<?xml version="1.0" encoding="UTF-8" standalone="no" ?>
<gpx xmlns="http://www.topografix.com/GPX/1/1" xmlns:xsi="http://www.w3.org/2001/XMLSchema-instance" xsi:schemaLocation="http://www.topografix.com/GPX/1/1 http://www.topografix.com/GPX/1/1/gpx.xsd" version="1.1" creator="VisuGPX - https://www.visugpx.com">
  <metadata>
    <name>Traversée VTT</name>
  </metadata>
  <trk>
    <name><![CDATA[Aïe !]]></name>
    <extensions>
      <line xmlns="http://www.topografix.com/GPX/gpx_style/0/2">
        <color>00FF00</color>
        <width>4</width>
      </line>
    </extensions>
    <trkseg>
      <trkpt lat="49.43822" lon="5.78093">
        <ele>325.2</ele>
        <time>2021-07-28T05:26:34Z</time>
      </trkpt>
      <trkpt lat="49.43822" lon="5.78093">
        <ele>325.2</ele>
        <time>2021-07-28T05:26:34Z</time>
      </trkpt>
      <trkpt lat="49.4382" lon="5.7809">
        <ele>325.3</ele>
        <time>2021-07-28T05:26:35Z</time>
      </trkpt>
      <trkpt lat="49.4382" lon="5.78089">
        <ele>325.3</ele>
        <time>2021-07-28T05:26:37Z</time>
      </trkpt>
      <trkpt lat="49.43824" lon="5.78095">
        <ele>325.5</ele>
        <time>2021-07-28T05:26:39Z</time>
      </trkpt>
      <trkpt lat="49.43826" lon="5.78098">
        <ele>325.6</ele>
        <time>2021-07-28T05:26:40Z</time>
      </trkpt>
      <trkpt lat="49.43831" lon="5.781">
        <ele>325.7</ele>
        <time>2021-07-28T05:26:42Z</time>
      </trkpt>
      <trkpt lat="49.43836" lon="5.78099">
        <ele>325.9</ele>
        <time>2021-07-28T05:26:43Z</time>
      </trkpt>
      <trkpt lat="49.4384" lon="5.78098">
        <ele>326</ele>
        <time>2021-07-28T05:26:44Z</time>
      </trkpt>
      <trkpt lat="49.43845" lon="5.78097">
        <ele>326.2</ele>
        <time>2021-07-28T05:26:45Z</time>
      </trkpt>
      <trkpt lat="49.4385" lon="5.78096">
        <ele>326.3</ele>
        <time>2021-07-28T05:26:47Z</time>
      </trkpt>
      <trkpt lat="49.43854" lon="5.78095">
        <ele>326.5</ele>
        <time>2021-07-28T05:26:48Z</time>
      </trkpt>
      <trkpt lat="49.43859" lon="5.78094">
        <ele>326.6</ele>
        <time>2021-07-28T05:26:50Z</time>
      </trkpt>
      <trkpt lat="49.43863" lon="5.78093">
        <ele>326.8</ele>
        <time>2021-07-28T05:27:08Z</time>
      </trkpt>
      <trkpt lat="49.43868" lon="5.78092">
        <ele>326.9</ele>
        <time>2021-07-28T05:27:09Z</time>
      </trkpt>
      <trkpt lat="49.43872" lon="5.7809">
        <ele>327.1</ele>
        <time>2021-07-28T05:27:10Z</time>
      </trkpt>
      <trkpt lat="49.43879" lon="5.78087">
        <ele>327.3</ele>
        <time>2021-07-28T05:27:12Z</time>
      </trkpt>
      <trkpt lat="49.43884" lon="5.78083">
        <ele>327.5</ele>
        <time>2021-07-28T05:27:13Z</time>
      </trkpt>
      <trkpt lat="49.43888" lon="5.78079">
        <ele>327.6</ele>
        <time>2021-07-28T05:27:14Z</time>
      </trkpt>
      <trkpt lat="49.43892" lon="5.78076">
        <ele>327.7</ele>
        <time>2021-07-28T05:27:15Z</time>
      </trkpt>
      <trkpt lat="49.43894" lon="5.78073">
        <ele>327.8</ele>
        <time>2021-07-28T05:27:16Z</time>
      </trkpt>
      <trkpt lat="49.43896" lon="5.78068">
        <ele>327.9</ele>
        <time>2021-07-28T05:27:18Z</time>
      </trkpt>
      <trkpt lat="49.43898" lon="5.78063">
        <ele>328.1</ele>
        <time>2021-07-28T05:27:19Z</time>
      </trkpt>
      <trkpt lat="49.43899" lon="5.78058">
        <ele>328.2</ele>
        <time>2021-07-28T05:27:20Z</time>
      </trkpt>
      <trkpt lat="49.439" lon="5.78055">
        <ele>328.2</ele>
        <time>2021-07-28T05:27:21Z</time>
      </trkpt>
      <trkpt lat="49.43901" lon="5.78049">
        <ele>328.3</ele>
        <time>2021-07-28T05:27:23Z</time>
      </trkpt>
      <trkpt lat="49.43903" lon="5.78046">
        <ele>328.4</ele>
        <time>2021-07-28T05:27:25Z</time>
      </trkpt>
      <trkpt lat="49.43905" lon="5.78043">
        <ele>328.5</ele>
        <time>2021-07-28T05:27:26Z</time>
      </trkpt>
      <trkpt lat="49.4391" lon="5.78037">
        <ele>328.7</ele>
        <time>2021-07-28T05:27:28Z</time>
      </trkpt>
      <trkpt lat="49.43913" lon="5.78034">
        <ele>328.8</ele>
        <time>2021-07-28T05:27:30Z</time>
      </trkpt>
      <trkpt lat="49.43915" lon="5.78031">
        <ele>328.9</ele>
        <time>2021-07-28T05:27:32Z</time>
      </trkpt>
      <trkpt lat="49.43917" lon="5.78028">
        <ele>329</ele>
        <time>2021-07-28T05:27:33Z</time>
      </trkpt>
      <trkpt lat="49.43919" lon="5.78026">
        <ele>329.1</ele>
        <time>2021-07-28T05:27:35Z</time>
      </trkpt>
      <trkpt lat="49.43923" lon="5.78024">
        <ele>329.2</ele>
        <time>2021-07-28T05:27:36Z</time>
      </trkpt>
      <trkpt lat="49.43925" lon="5.78024">
        <ele>329.3</ele>
        <time>2021-07-28T05:27:37Z</time>
      </trkpt>
      <trkpt lat="49.43929" lon="5.78021">
        <ele>329.5</ele>
        <time>2021-07-28T05:27:39Z</time>
      </trkpt>
      <trkpt lat="49.43932" lon="5.7802">
        <ele>329.6</ele>
        <time>2021-07-28T05:27:40Z</time>
      </trkpt>
      <trkpt lat="49.43933" lon="5.78019">
        <ele>329.6</ele>
        <time>2021-07-28T05:27:41Z</time>
      </trkpt>
      <trkpt lat="49.43935" lon="5.78016">
        <ele>329.7</ele>
        <time>2021-07-28T05:27:42Z</time>
      </trkpt>
      <trkpt lat="49.43936" lon="5.78015">
        <ele>329.7</ele>
        <time>2021-07-28T05:27:43Z</time>
      </trkpt>
      <trkpt lat="49.43937" lon="5.78012">
        <ele>329.8</ele>
        <time>2021-07-28T05:27:44Z</time>
      </trkpt>
      <trkpt lat="49.43939" lon="5.78007">
        <ele>329.9</ele>
        <time>2021-07-28T05:27:46Z</time>
      </trkpt>
      <trkpt lat="49.43937" lon="5.78001">
        <ele>330.1</ele>
        <time>2021-07-28T05:27:48Z</time>
      </trkpt>
      <trkpt lat="49.43936" lon="5.77998">
        <ele>330.2</ele>
        <time>2021-07-28T05:27:49Z</time>
      </trkpt>
      <trkpt lat="49.43932" lon="5.77997">
        <ele>330</ele>
        <time>2021-07-28T05:27:51Z</time>
      </trkpt>
      <trkpt lat="49.4393" lon="5.77998">
        <ele>329.9</ele>
        <time>2021-07-28T05:27:52Z</time>
      </trkpt>
      <trkpt lat="49.43926" lon="5.78001">
        <ele>329.7</ele>
        <time>2021-07-28T05:27:54Z</time>
      </trkpt>
      <trkpt lat="49.43921" lon="5.78003">
        <ele>329.6</ele>
        <time>2021-07-28T05:27:55Z</time>
      </trkpt>
      <trkpt lat="49.43915" lon="5.78006">
        <ele>329.3</ele>
        <time>2021-07-28T05:27:57Z</time>
      </trkpt>
      <trkpt lat="49.43909" lon="5.78009">
        <ele>329</ele>
        <time>2021-07-28T05:27:58Z</time>
      </trkpt>
      <trkpt lat="49.43904" lon="5.78011">
        <ele>328.8</ele>
        <time>2021-07-28T05:27:59Z</time>
      </trkpt>
      <trkpt lat="49.43898" lon="5.78014">
        <ele>328.6</ele>
        <time>2021-07-28T05:28:00Z</time>
      </trkpt>
      <trkpt lat="49.43892" lon="5.78017">
        <ele>328.3</ele>
        <time>2021-07-28T05:28:01Z</time>
      </trkpt>
      <trkpt lat="49.4388" lon="5.78019">
        <ele>327.9</ele>
        <time>2021-07-28T05:28:02Z</time>
      </trkpt>
      <trkpt lat="49.43867" lon="5.7802">
        <ele>327.4</ele>
        <time>2021-07-28T05:28:04Z</time>
      </trkpt>
      <trkpt lat="49.43856" lon="5.78028">
        <ele>327</ele>
        <time>2021-07-28T05:28:06Z</time>
      </trkpt>
      <trkpt lat="49.43847" lon="5.78034">
        <ele>326.6</ele>
        <time>2021-07-28T05:28:08Z</time>
      </trkpt>
      <trkpt lat="49.43838" lon="5.78038">
        <ele>326.2</ele>
        <time>2021-07-28T05:28:10Z</time>
      </trkpt>
      <trkpt lat="49.4383" lon="5.78042">
        <ele>325.8</ele>
        <time>2021-07-28T05:28:12Z</time>
      </trkpt>
      <trkpt lat="49.43826" lon="5.78042">
        <ele>325.7</ele>
        <time>2021-07-28T05:28:14Z</time>
      </trkpt>
      <trkpt lat="49.43819" lon="5.78045">
        <ele>325.4</ele>
        <time>2021-07-28T05:28:16Z</time>
      </trkpt>
      <trkpt lat="49.43815" lon="5.78048">
        <ele>325.3</ele>
        <time>2021-07-28T05:28:17Z</time>
      </trkpt>
      <trkpt lat="49.43812" lon="5.7805">
        <ele>325.1</ele>
        <time>2021-07-28T05:28:19Z</time>
      </trkpt>
      <trkpt lat="49.43802" lon="5.78058">
        <ele>324.7</ele>
        <time>2021-07-28T05:28:20Z</time>
      </trkpt>
      <trkpt lat="49.43429" lon="5.7825">
        <ele>319.8</ele>
        <time>2021-07-28T05:29:33Z</time>
      </trkpt>
      <trkpt lat="49.43425" lon="5.78244">
        <ele>319.6</ele>
        <time>2021-07-28T05:29:34Z</time>
      </trkpt>
      <trkpt lat="49.43414" lon="5.78226">
        <ele>318.9</ele>
        <time>2021-07-28T05:29:36Z</time>
      </trkpt>
      <trkpt lat="49.43406" lon="5.78216">
        <ele>318.5</ele>
        <time>2021-07-28T05:29:37Z</time>
      </trkpt>
      <trkpt lat="49.434" lon="5.78208">
        <ele>318.1</ele>
        <time>2021-07-28T05:29:38Z</time>
      </trkpt>
      <trkpt lat="49.43387" lon="5.78195">
        <ele>317.3</ele>
        <time>2021-07-28T05:29:40Z</time>
      </trkpt>
      <trkpt lat="49.4338" lon="5.78191">
        <ele>316.8</ele>
        <time>2021-07-28T05:29:41Z</time>
      </trkpt>
      <trkpt lat="49.43374" lon="5.78186">
        <ele>316.3</ele>
        <time>2021-07-28T05:29:42Z</time>
      </trkpt>
      <trkpt lat="49.43363" lon="5.78177">
        <ele>315.6</ele>
        <time>2021-07-28T05:29:44Z</time>
      </trkpt>
      <trkpt lat="49.43358" lon="5.78173">
        <ele>315.2</ele>
        <time>2021-07-28T05:29:45Z</time>
      </trkpt>
      <trkpt lat="49.43347" lon="5.78168">
        <ele>314.5</ele>
        <time>2021-07-28T05:29:47Z</time>
      </trkpt>
      <trkpt lat="49.4334" lon="5.78163">
        <ele>314</ele>
        <time>2021-07-28T05:29:49Z</time>
      </trkpt>
      <trkpt lat="49.43335" lon="5.78159">
        <ele>313.7</ele>
        <time>2021-07-28T05:29:50Z</time>
      </trkpt>
      <trkpt lat="49.43329" lon="5.78156">
        <ele>313.4</ele>
        <time>2021-07-28T05:29:51Z</time>
      </trkpt>
      <trkpt lat="49.43316" lon="5.78154">
        <ele>312.6</ele>
        <time>2021-07-28T05:29:53Z</time>
      </trkpt>
      <trkpt lat="49.43309" lon="5.78156">
        <ele>312.2</ele>
        <time>2021-07-28T05:29:55Z</time>
      </trkpt>
      <trkpt lat="49.43306" lon="5.78157">
        <ele>312</ele>
        <time>2021-07-28T05:29:56Z</time>
      </trkpt>
      <trkpt lat="49.43292" lon="5.78159">
        <ele>311.2</ele>
        <time>2021-07-28T05:29:57Z</time>
      </trkpt>
      <trkpt lat="49.43279" lon="5.78161">
        <ele>310.4</ele>
        <time>2021-07-28T05:29:58Z</time>
      </trkpt>
      <trkpt lat="49.43263" lon="5.78165">
        <ele>309.3</ele>
        <time>2021-07-28T05:29:59Z</time>
      </trkpt>
      <trkpt lat="49.43234" lon="5.78176">
        <ele>307.2</ele>
        <time>2021-07-28T05:30:01Z</time>
      </trkpt>
      <trkpt lat="49.43206" lon="5.78183">
        <ele>305.2</ele>
        <time>2021-07-28T05:30:03Z</time>
      </trkpt>
      <trkpt lat="49.43181" lon="5.78192">
        <ele>303.6</ele>
        <time>2021-07-28T05:30:05Z</time>
      </trkpt>
      <trkpt lat="49.4316" lon="5.78206">
        <ele>302.2</ele>
        <time>2021-07-28T05:30:07Z</time>
      </trkpt>
      <trkpt lat="49.43141" lon="5.78221">
        <ele>300.8</ele>
        <time>2021-07-28T05:30:09Z</time>
      </trkpt>
      <trkpt lat="49.4313" lon="5.78229">
        <ele>300.1</ele>
        <time>2021-07-28T05:30:10Z</time>
      </trkpt>
      <trkpt lat="49.4311" lon="5.78239">
        <ele>298.7</ele>
        <time>2021-07-28T05:30:12Z</time>
      </trkpt>
      <trkpt lat="49.43093" lon="5.78253">
        <ele>297.4</ele>
        <time>2021-07-28T05:30:14Z</time>
      </trkpt>
      <trkpt lat="49.43077" lon="5.78271">
        <ele>296</ele>
        <time>2021-07-28T05:30:16Z</time>
      </trkpt>
      <trkpt lat="49.43057" lon="5.78286">
        <ele>294.5</ele>
        <time>2021-07-28T05:30:18Z</time>
      </trkpt>
      <trkpt lat="49.43036" lon="5.783">
        <ele>293</ele>
        <time>2021-07-28T05:30:20Z</time>
      </trkpt>
      <trkpt lat="49.43024" lon="5.78307">
        <ele>292.2</ele>
        <time>2021-07-28T05:30:21Z</time>
      </trkpt>
      <trkpt lat="49.42998" lon="5.78319">
        <ele>290</ele>
        <time>2021-07-28T05:30:23Z</time>
      </trkpt>
      <trkpt lat="49.42963" lon="5.78327">
        <ele>286.8</ele>
        <time>2021-07-28T05:30:25Z</time>
      </trkpt>
      <trkpt lat="49.42938" lon="5.7834">
        <ele>284.4</ele>
        <time>2021-07-28T05:30:27Z</time>
      </trkpt>
      <trkpt lat="49.42929" lon="5.78342">
        <ele>283.7</ele>
        <time>2021-07-28T05:30:28Z</time>
      </trkpt>
      <trkpt lat="49.42908" lon="5.78338">
        <ele>282.1</ele>
        <time>2021-07-28T05:30:30Z</time>
      </trkpt>
      <trkpt lat="49.42897" lon="5.78331">
        <ele>281.2</ele>
        <time>2021-07-28T05:30:31Z</time>
      </trkpt>
      <trkpt lat="49.42875" lon="5.78307">
        <ele>279.7</ele>
        <time>2021-07-28T05:30:33Z</time>
      </trkpt>
      <trkpt lat="49.42867" lon="5.78299">
        <ele>279.4</ele>
        <time>2021-07-28T05:30:34Z</time>
      </trkpt>
      <trkpt lat="49.42868" lon="5.78294">
        <ele>279.3</ele>
        <time>2021-07-28T05:30:36Z</time>
      </trkpt>
      <trkpt lat="49.42866" lon="5.78292">
        <ele>279.3</ele>
        <time>2021-07-28T05:30:38Z</time>
      </trkpt>
      <trkpt lat="49.42864" lon="5.78288">
        <ele>279.2</ele>
        <time>2021-07-28T05:30:40Z</time>
      </trkpt>
      <trkpt lat="49.42854" lon="5.78295">
        <ele>279.1</ele>
        <time>2021-07-28T05:30:42Z</time>
      </trkpt>
      <trkpt lat="49.42849" lon="5.78304">
        <ele>279.1</ele>
        <time>2021-07-28T05:30:44Z</time>
      </trkpt>
      <trkpt lat="49.42846" lon="5.78307">
        <ele>279.2</ele>
        <time>2021-07-28T05:30:45Z</time>
      </trkpt>
      <trkpt lat="49.42844" lon="5.78308">
        <ele>279.2</ele>
        <time>2021-07-28T05:30:46Z</time>
      </trkpt>
      <trkpt lat="49.42838" lon="5.78311">
        <ele>279.2</ele>
        <time>2021-07-28T05:30:47Z</time>
      </trkpt>
      <trkpt lat="49.42835" lon="5.78316">
        <ele>279.3</ele>
        <time>2021-07-28T05:30:49Z</time>
      </trkpt>
      <trkpt lat="49.42835" lon="5.78322">
        <ele>279.5</ele>
        <time>2021-07-28T05:30:50Z</time>
      </trkpt>
      <trkpt lat="49.42837" lon="5.78324">
        <ele>279.7</ele>
        <time>2021-07-28T05:30:51Z</time>
      </trkpt>
      <trkpt lat="49.42838" lon="5.78326">
        <ele>279.8</ele>
        <time>2021-07-28T05:30:53Z</time>
      </trkpt>
      <trkpt lat="49.42839" lon="5.78328">
        <ele>279.9</ele>
        <time>2021-07-28T05:30:54Z</time>
      </trkpt>
      <trkpt lat="49.4284" lon="5.7833">
        <ele>280</ele>
        <time>2021-07-28T05:30:55Z</time>
      </trkpt>
      <trkpt lat="49.42843" lon="5.78335">
        <ele>280.3</ele>
        <time>2021-07-28T05:30:57Z</time>
      </trkpt>
      <trkpt lat="49.42843" lon="5.78337">
        <ele>280.4</ele>
        <time>2021-07-28T05:30:58Z</time>
      </trkpt>
      <trkpt lat="49.42844" lon="5.78341">
        <ele>280.5</ele>
        <time>2021-07-28T05:30:59Z</time>
      </trkpt>
      <trkpt lat="49.42845" lon="5.78344">
        <ele>280.7</ele>
        <time>2021-07-28T05:31:00Z</time>
      </trkpt>
      <trkpt lat="49.42883" lon="5.78425">
        <ele>284.9</ele>
        <time>2021-07-28T05:31:36Z</time>
      </trkpt>
      <trkpt lat="49.42885" lon="5.78429">
        <ele>285.1</ele>
        <time>2021-07-28T05:31:37Z</time>
      </trkpt>
      <trkpt lat="49.42888" lon="5.78432">
        <ele>285.4</ele>
        <time>2021-07-28T05:31:39Z</time>
      </trkpt>
      <trkpt lat="49.4289" lon="5.78435">
        <ele>285.5</ele>
        <time>2021-07-28T05:31:40Z</time>
      </trkpt>
      <trkpt lat="49.42896" lon="5.78441">
        <ele>286</ele>
        <time>2021-07-28T05:31:41Z</time>
      </trkpt>
      <trkpt lat="49.42901" lon="5.78445">
        <ele>286.4</ele>
        <time>2021-07-28T05:31:42Z</time>
      </trkpt>
      <trkpt lat="49.42906" lon="5.78447">
        <ele>286.7</ele>
        <time>2021-07-28T05:31:43Z</time>
      </trkpt>
      <trkpt lat="49.4291" lon="5.78448">
        <ele>287</ele>
        <time>2021-07-28T05:31:44Z</time>
      </trkpt>
      <trkpt lat="49.42912" lon="5.78448">
        <ele>287.1</ele>
        <time>2021-07-28T05:31:45Z</time>
      </trkpt>
      <trkpt lat="49.42913" lon="5.78449">
        <ele>287.2</ele>
        <time>2021-07-28T05:31:46Z</time>
      </trkpt>
      <trkpt lat="49.42915" lon="5.78449">
        <ele>287.3</ele>
        <time>2021-07-28T05:31:48Z</time>
      </trkpt>
      <trkpt lat="49.42916" lon="5.7845">
        <ele>287.4</ele>
        <time>2021-07-28T05:31:49Z</time>
      </trkpt>
      <trkpt lat="49.4292" lon="5.78455">
        <ele>287.7</ele>
        <time>2021-07-28T05:31:53Z</time>
      </trkpt>
      <trkpt lat="49.42921" lon="5.78456">
        <ele>287.8</ele>
        <time>2021-07-28T05:31:54Z</time>
      </trkpt>
      <trkpt lat="49.42923" lon="5.78459">
        <ele>288</ele>
        <time>2021-07-28T05:31:56Z</time>
      </trkpt>
      <trkpt lat="49.42925" lon="5.78461">
        <ele>288.1</ele>
        <time>2021-07-28T05:31:57Z</time>
      </trkpt>
      <trkpt lat="49.42929" lon="5.78463">
        <ele>288.4</ele>
        <time>2021-07-28T05:31:59Z</time>
      </trkpt>
      <trkpt lat="49.42932" lon="5.78463">
        <ele>288.6</ele>
        <time>2021-07-28T05:32:00Z</time>
      </trkpt>
      <trkpt lat="49.42937" lon="5.78462">
        <ele>288.9</ele>
        <time>2021-07-28T05:32:01Z</time>
      </trkpt>
      <trkpt lat="49.42942" lon="5.78462">
        <ele>289.3</ele>
        <time>2021-07-28T05:32:02Z</time>
      </trkpt>
      <trkpt lat="49.42947" lon="5.78464">
        <ele>289.6</ele>
        <time>2021-07-28T05:32:03Z</time>
      </trkpt>
      <trkpt lat="49.42951" lon="5.78466">
        <ele>289.9</ele>
        <time>2021-07-28T05:32:05Z</time>
      </trkpt>
      <trkpt lat="49.42953" lon="5.78466">
        <ele>290</ele>
        <time>2021-07-28T05:32:06Z</time>
      </trkpt>
      <trkpt lat="49.42956" lon="5.78468">
        <ele>290.2</ele>
        <time>2021-07-28T05:32:07Z</time>
      </trkpt>
      <trkpt lat="49.42956" lon="5.78468">
        <ele>290.2</ele>
        <time>2021-07-28T05:32:08Z</time>
      </trkpt>
      <trkpt lat="49.42957" lon="5.78469">
        <ele>290.3</ele>
        <time>2021-07-28T05:32:09Z</time>
      </trkpt>
      <trkpt lat="49.42958" lon="5.7847">
        <ele>290.4</ele>
        <time>2021-07-28T05:32:10Z</time>
      </trkpt>
      <trkpt lat="49.42959" lon="5.78472">
        <ele>290.5</ele>
        <time>2021-07-28T05:32:12Z</time>
      </trkpt>
      <trkpt lat="49.42959" lon="5.78474">
        <ele>290.5</ele>
        <time>2021-07-28T05:32:13Z</time>
      </trkpt>
      <trkpt lat="49.42975" lon="5.78472">
        <ele>291.6</ele>
        <time>2021-07-28T05:32:24Z</time>
      </trkpt>
      <trkpt lat="49.42978" lon="5.78473">
        <ele>291.8</ele>
        <time>2021-07-28T05:32:25Z</time>
      </trkpt>
      <trkpt lat="49.42982" lon="5.78474">
        <ele>292</ele>
        <time>2021-07-28T05:32:26Z</time>
      </trkpt>
      <trkpt lat="49.42988" lon="5.78477">
        <ele>292.5</ele>
        <time>2021-07-28T05:32:28Z</time>
      </trkpt>
      <trkpt lat="49.42991" lon="5.78478">
        <ele>292.7</ele>
        <time>2021-07-28T05:32:29Z</time>
      </trkpt>
      <trkpt lat="49.42994" lon="5.78478">
        <ele>292.9</ele>
        <time>2021-07-28T05:32:30Z</time>
      </trkpt>
      <trkpt lat="49.42996" lon="5.78478">
        <ele>293</ele>
        <time>2021-07-28T05:32:32Z</time>
      </trkpt>
      <trkpt lat="49.42998" lon="5.78478">
        <ele>293.1</ele>
        <time>2021-07-28T05:32:33Z</time>
      </trkpt>
      <trkpt lat="49.43" lon="5.78478">
        <ele>293.2</ele>
        <time>2021-07-28T05:32:34Z</time>
      </trkpt>
      <trkpt lat="49.43002" lon="5.78478">
        <ele>293.4</ele>
        <time>2021-07-28T05:32:35Z</time>
      </trkpt>
      <trkpt lat="49.43004" lon="5.78478">
        <ele>293.5</ele>
        <time>2021-07-28T05:32:37Z</time>
      </trkpt>
      <trkpt lat="49.43006" lon="5.78478">
        <ele>293.6</ele>
        <time>2021-07-28T05:32:48Z</time>
      </trkpt>
      <trkpt lat="49.43007" lon="5.78478">
        <ele>293.7</ele>
        <time>2021-07-28T05:32:50Z</time>
      </trkpt>
      <trkpt lat="49.43009" lon="5.78478">
        <ele>293.9</ele>
        <time>2021-07-28T05:32:51Z</time>
      </trkpt>
      <trkpt lat="49.43011" lon="5.78478">
        <ele>294</ele>
        <time>2021-07-28T05:32:52Z</time>
      </trkpt>
      <trkpt lat="49.43014" lon="5.78478">
        <ele>294.2</ele>
        <time>2021-07-28T05:32:53Z</time>
      </trkpt>
      <trkpt lat="49.43019" lon="5.78478">
        <ele>294.5</ele>
        <time>2021-07-28T05:32:55Z</time>
      </trkpt>
      <trkpt lat="49.4302" lon="5.78478">
        <ele>294.6</ele>
        <time>2021-07-28T05:32:56Z</time>
      </trkpt>
      <trkpt lat="49.43022" lon="5.78478">
        <ele>294.7</ele>
        <time>2021-07-28T05:32:57Z</time>
      </trkpt>
      <trkpt lat="49.43024" lon="5.78479">
        <ele>294.8</ele>
        <time>2021-07-28T05:32:58Z</time>
      </trkpt>
      <trkpt lat="49.43025" lon="5.78479">
        <ele>294.9</ele>
        <time>2021-07-28T05:33:00Z</time>
      </trkpt>
      <trkpt lat="49.43026" lon="5.78479">
        <ele>295</ele>
        <time>2021-07-28T05:33:01Z</time>
      </trkpt>
      <trkpt lat="49.43029" lon="5.78478">
        <ele>295.1</ele>
        <time>2021-07-28T05:33:03Z</time>
      </trkpt>
      <trkpt lat="49.4303" lon="5.78476">
        <ele>295.3</ele>
        <time>2021-07-28T05:33:04Z</time>
      </trkpt>
      <trkpt lat="49.43032" lon="5.78475">
        <ele>295.4</ele>
        <time>2021-07-28T05:33:05Z</time>
      </trkpt>
      <trkpt lat="49.43033" lon="5.78474">
        <ele>295.4</ele>
        <time>2021-07-28T05:33:07Z</time>
      </trkpt>
      <trkpt lat="49.43033" lon="5.78474">
        <ele>295.5</ele>
        <time>2021-07-28T05:33:08Z</time>
      </trkpt>
      <trkpt lat="49.43033" lon="5.78474">
        <ele>295.5</ele>
        <time>2021-07-28T05:33:09Z</time>
      </trkpt>
      <trkpt lat="49.43034" lon="5.78474">
        <ele>295.5</ele>
        <time>2021-07-28T05:33:11Z</time>
      </trkpt>
      <trkpt lat="49.43035" lon="5.78474">
        <ele>295.6</ele>
        <time>2021-07-28T05:33:12Z</time>
      </trkpt>
      <trkpt lat="49.43037" lon="5.78474">
        <ele>295.7</ele>
        <time>2021-07-28T05:33:14Z</time>
      </trkpt>
      <trkpt lat="49.43038" lon="5.78474">
        <ele>295.8</ele>
        <time>2021-07-28T05:33:15Z</time>
      </trkpt>
      <trkpt lat="49.43046" lon="5.78474">
        <ele>296.3</ele>
        <time>2021-07-28T05:33:21Z</time>
      </trkpt>
      <trkpt lat="49.43049" lon="5.78473">
        <ele>296.5</ele>
        <time>2021-07-28T05:33:22Z</time>
      </trkpt>
      <trkpt lat="49.43054" lon="5.78471">
        <ele>296.8</ele>
        <time>2021-07-28T05:33:24Z</time>
      </trkpt>
      <trkpt lat="49.43057" lon="5.78467">
        <ele>297.1</ele>
        <time>2021-07-28T05:33:25Z</time>
      </trkpt>
      <trkpt lat="49.4306" lon="5.78464">
        <ele>297.3</ele>
        <time>2021-07-28T05:33:26Z</time>
      </trkpt>
      <trkpt lat="49.43065" lon="5.78459">
        <ele>297.8</ele>
        <time>2021-07-28T05:33:28Z</time>
      </trkpt>
      <trkpt lat="49.43068" lon="5.78456">
        <ele>298</ele>
        <time>2021-07-28T05:33:29Z</time>
      </trkpt>
      <trkpt lat="49.43071" lon="5.78453">
        <ele>298.2</ele>
        <time>2021-07-28T05:33:30Z</time>
      </trkpt>
      <trkpt lat="49.43072" lon="5.78453">
        <ele>298.3</ele>
        <time>2021-07-28T05:33:31Z</time>
      </trkpt>
      <trkpt lat="49.43076" lon="5.78453">
        <ele>298.5</ele>
        <time>2021-07-28T05:33:33Z</time>
      </trkpt>
      <trkpt lat="49.43075" lon="5.78459">
        <ele>298.8</ele>
        <time>2021-07-28T05:33:34Z</time>
      </trkpt>
      <trkpt lat="49.43074" lon="5.78464">
        <ele>299</ele>
        <time>2021-07-28T05:33:35Z</time>
      </trkpt>
      <trkpt lat="49.43071" lon="5.7847">
        <ele>299.3</ele>
        <time>2021-07-28T05:33:36Z</time>
      </trkpt>
      <trkpt lat="49.43071" lon="5.78473">
        <ele>299.4</ele>
        <time>2021-07-28T05:33:38Z</time>
      </trkpt>
      <trkpt lat="49.43071" lon="5.78474">
        <ele>299.5</ele>
        <time>2021-07-28T05:33:41Z</time>
      </trkpt>
      <trkpt lat="49.43073" lon="5.78474">
        <ele>299.6</ele>
        <time>2021-07-28T05:33:42Z</time>
      </trkpt>
      <trkpt lat="49.43075" lon="5.78474">
        <ele>299.7</ele>
        <time>2021-07-28T05:33:43Z</time>
      </trkpt>
      <trkpt lat="49.43077" lon="5.78472">
        <ele>299.9</ele>
        <time>2021-07-28T05:33:45Z</time>
      </trkpt>
      <trkpt lat="49.43079" lon="5.78469">
        <ele>300.1</ele>
        <time>2021-07-28T05:33:46Z</time>
      </trkpt>
      <trkpt lat="49.43082" lon="5.78465">
        <ele>300.3</ele>
        <time>2021-07-28T05:33:47Z</time>
      </trkpt>
      <trkpt lat="49.43085" lon="5.7846">
        <ele>300.6</ele>
        <time>2021-07-28T05:33:49Z</time>
      </trkpt>
      <trkpt lat="49.43088" lon="5.78457">
        <ele>300.8</ele>
        <time>2021-07-28T05:33:50Z</time>
      </trkpt>
      <trkpt lat="49.43089" lon="5.78457">
        <ele>300.9</ele>
        <time>2021-07-28T05:33:51Z</time>
      </trkpt>
      <trkpt lat="49.43089" lon="5.78458">
        <ele>300.9</ele>
        <time>2021-07-28T05:33:53Z</time>
      </trkpt>
      <trkpt lat="49.4309" lon="5.78459">
        <ele>301</ele>
        <time>2021-07-28T05:33:54Z</time>
      </trkpt>
      <trkpt lat="49.43092" lon="5.78459">
        <ele>301.1</ele>
        <time>2021-07-28T05:33:55Z</time>
      </trkpt>
      <trkpt lat="49.43095" lon="5.78457">
        <ele>301.4</ele>
        <time>2021-07-28T05:33:56Z</time>
      </trkpt>
      <trkpt lat="49.43099" lon="5.78457">
        <ele>301.6</ele>
        <time>2021-07-28T05:33:58Z</time>
      </trkpt>
      <trkpt lat="49.43102" lon="5.78459">
        <ele>301.8</ele>
        <time>2021-07-28T05:33:59Z</time>
      </trkpt>
      <trkpt lat="49.43105" lon="5.78462">
        <ele>302</ele>
        <time>2021-07-28T05:34:00Z</time>
      </trkpt>
      <trkpt lat="49.43105" lon="5.78463">
        <ele>302.1</ele>
        <time>2021-07-28T05:34:01Z</time>
      </trkpt>
      <trkpt lat="49.43105" lon="5.78464">
        <ele>302.1</ele>
        <time>2021-07-28T05:34:02Z</time>
      </trkpt>
      <trkpt lat="49.43105" lon="5.78467">
        <ele>302.3</ele>
        <time>2021-07-28T05:34:04Z</time>
      </trkpt>
      <trkpt lat="49.43105" lon="5.78468">
        <ele>302.3</ele>
        <time>2021-07-28T05:34:05Z</time>
      </trkpt>
      <trkpt lat="49.43106" lon="5.78469">
        <ele>302.3</ele>
        <time>2021-07-28T05:34:06Z</time>
      </trkpt>
      <trkpt lat="49.43106" lon="5.7847">
        <ele>302.4</ele>
        <time>2021-07-28T05:34:07Z</time>
      </trkpt>
      <trkpt lat="49.43107" lon="5.78471">
        <ele>302.5</ele>
        <time>2021-07-28T05:34:08Z</time>
      </trkpt>
      <trkpt lat="49.43107" lon="5.78472">
        <ele>302.5</ele>
        <time>2021-07-28T05:34:09Z</time>
      </trkpt>
      <trkpt lat="49.43108" lon="5.78473">
        <ele>302.6</ele>
        <time>2021-07-28T05:34:11Z</time>
      </trkpt>
      <trkpt lat="49.43185" lon="5.78449">
        <ele>307.7</ele>
        <time>2021-07-28T05:35:14Z</time>
      </trkpt>
      <trkpt lat="49.43189" lon="5.78447">
        <ele>308</ele>
        <time>2021-07-28T05:35:15Z</time>
      </trkpt>
      <trkpt lat="49.4319" lon="5.78447">
        <ele>308.1</ele>
        <time>2021-07-28T05:35:16Z</time>
      </trkpt>
      <trkpt lat="49.43196" lon="5.78445">
        <ele>308.4</ele>
        <time>2021-07-28T05:35:18Z</time>
      </trkpt>
      <trkpt lat="49.43199" lon="5.78445">
        <ele>308.6</ele>
        <time>2021-07-28T05:35:19Z</time>
      </trkpt>
      <trkpt lat="49.432" lon="5.78446">
        <ele>308.7</ele>
        <time>2021-07-28T05:35:20Z</time>
      </trkpt>
      <trkpt lat="49.43201" lon="5.78447">
        <ele>308.8</ele>
        <time>2021-07-28T05:35:21Z</time>
      </trkpt>
      <trkpt lat="49.43201" lon="5.78448">
        <ele>308.8</ele>
        <time>2021-07-28T05:35:22Z</time>
      </trkpt>
      <trkpt lat="49.43201" lon="5.78449">
        <ele>308.8</ele>
        <time>2021-07-28T05:35:23Z</time>
      </trkpt>
      <trkpt lat="49.43201" lon="5.7845">
        <ele>308.9</ele>
        <time>2021-07-28T05:35:25Z</time>
      </trkpt>
      <trkpt lat="49.43201" lon="5.7845">
        <ele>308.9</ele>
        <time>2021-07-28T05:35:26Z</time>
      </trkpt>
      <trkpt lat="49.43201" lon="5.78451">
        <ele>308.9</ele>
        <time>2021-07-28T05:35:27Z</time>
      </trkpt>
      <trkpt lat="49.43202" lon="5.78451">
        <ele>309</ele>
        <time>2021-07-28T05:35:29Z</time>
      </trkpt>
      <trkpt lat="49.43224" lon="5.78453">
        <ele>310.4</ele>
        <time>2021-07-28T05:35:44Z</time>
      </trkpt>
      <trkpt lat="49.43225" lon="5.78451">
        <ele>309.5</ele>
        <time>2021-07-28T05:35:45Z</time>
      </trkpt>
      <trkpt lat="49.43229" lon="5.78463">
        <ele>312.4</ele>
        <time>2021-07-28T05:35:47Z</time>
      </trkpt>
      <trkpt lat="49.43232" lon="5.78475">
        <ele>315.6</ele>
        <time>2021-07-28T05:35:48Z</time>
      </trkpt>
      <trkpt lat="49.43233" lon="5.7848">
        <ele>316.6</ele>
        <time>2021-07-28T05:35:49Z</time>
      </trkpt>
      <trkpt lat="49.43235" lon="5.78481">
        <ele>317.2</ele>
        <time>2021-07-28T05:35:50Z</time>
      </trkpt>
      <trkpt lat="49.43238" lon="5.7848">
        <ele>317.2</ele>
        <time>2021-07-28T05:35:52Z</time>
      </trkpt>
      <trkpt lat="49.43241" lon="5.78479">
        <ele>317.2</ele>
        <time>2021-07-28T05:35:53Z</time>
      </trkpt>
      <trkpt lat="49.43242" lon="5.78478">
        <ele>316.9</ele>
        <time>2021-07-28T05:35:54Z</time>
      </trkpt>
      <trkpt lat="49.43243" lon="5.78479">
        <ele>317</ele>
        <time>2021-07-28T05:35:55Z</time>
      </trkpt>
      <trkpt lat="49.43244" lon="5.7848">
        <ele>317.1</ele>
        <time>2021-07-28T05:35:56Z</time>
      </trkpt>
      <trkpt lat="49.43247" lon="5.78485">
        <ele>317.3</ele>
        <time>2021-07-28T05:35:58Z</time>
      </trkpt>
      <trkpt lat="49.43247" lon="5.78491">
        <ele>317.5</ele>
        <time>2021-07-28T05:36:00Z</time>
      </trkpt>
      <trkpt lat="49.43247" lon="5.78491">
        <ele>317.5</ele>
        <time>2021-07-28T05:36:01Z</time>
      </trkpt>
      <trkpt lat="49.43247" lon="5.78491">
        <ele>317.6</ele>
        <time>2021-07-28T05:36:02Z</time>
      </trkpt>
      <trkpt lat="49.43247" lon="5.78492">
        <ele>317.6</ele>
        <time>2021-07-28T05:36:03Z</time>
      </trkpt>
      <trkpt lat="49.43248" lon="5.78495">
        <ele>317.7</ele>
        <time>2021-07-28T05:36:05Z</time>
      </trkpt>
      <trkpt lat="49.43248" lon="5.78497">
        <ele>317.8</ele>
        <time>2021-07-28T05:36:06Z</time>
      </trkpt>
      <trkpt lat="49.43248" lon="5.78499">
        <ele>317.9</ele>
        <time>2021-07-28T05:36:08Z</time>
      </trkpt>
      <trkpt lat="49.43248" lon="5.785">
        <ele>317.9</ele>
        <time>2021-07-28T05:36:09Z</time>
      </trkpt>
      <trkpt lat="49.43248" lon="5.78501">
        <ele>318</ele>
        <time>2021-07-28T05:36:10Z</time>
      </trkpt>
      <trkpt lat="49.43248" lon="5.78502">
        <ele>318</ele>
        <time>2021-07-28T05:36:12Z</time>
      </trkpt>
      <trkpt lat="49.43248" lon="5.78503">
        <ele>318</ele>
        <time>2021-07-28T05:36:14Z</time>
      </trkpt>
      <trkpt lat="49.43248" lon="5.78502">
        <ele>318</ele>
        <time>2021-07-28T05:36:15Z</time>
      </trkpt>
      <trkpt lat="49.43248" lon="5.78501">
        <ele>318.1</ele>
        <time>2021-07-28T05:36:17Z</time>
      </trkpt>
      <trkpt lat="49.43212" lon="5.78468">
        <ele>320.6</ele>
        <time>2021-07-28T05:37:04Z</time>
      </trkpt>
      <trkpt lat="49.43208" lon="5.7847">
        <ele>320.9</ele>
        <time>2021-07-28T05:37:05Z</time>
      </trkpt>
      <trkpt lat="49.43204" lon="5.78475">
        <ele>321.2</ele>
        <time>2021-07-28T05:37:06Z</time>
      </trkpt>
      <trkpt lat="49.43199" lon="5.78479">
        <ele>321.6</ele>
        <time>2021-07-28T05:37:07Z</time>
      </trkpt>
      <trkpt lat="49.43197" lon="5.78483">
        <ele>321.8</ele>
        <time>2021-07-28T05:37:09Z</time>
      </trkpt>
      <trkpt lat="49.43196" lon="5.7849">
        <ele>322</ele>
        <time>2021-07-28T05:37:10Z</time>
      </trkpt>
      <trkpt lat="49.43195" lon="5.78492">
        <ele>322.1</ele>
        <time>2021-07-28T05:37:11Z</time>
      </trkpt>
      <trkpt lat="49.43194" lon="5.78494">
        <ele>322.2</ele>
        <time>2021-07-28T05:37:13Z</time>
      </trkpt>
      <trkpt lat="49.43192" lon="5.78494">
        <ele>322.3</ele>
        <time>2021-07-28T05:37:14Z</time>
      </trkpt>
      <trkpt lat="49.43191" lon="5.78495">
        <ele>322.4</ele>
        <time>2021-07-28T05:37:15Z</time>
      </trkpt>
      <trkpt lat="49.43189" lon="5.78496">
        <ele>322.6</ele>
        <time>2021-07-28T05:37:17Z</time>
      </trkpt>
      <trkpt lat="49.43187" lon="5.785">
        <ele>322.8</ele>
        <time>2021-07-28T05:37:21Z</time>
      </trkpt>
      <trkpt lat="49.43186" lon="5.78504">
        <ele>322.9</ele>
        <time>2021-07-28T05:37:22Z</time>
      </trkpt>
      <trkpt lat="49.43186" lon="5.78507">
        <ele>323.1</ele>
        <time>2021-07-28T05:37:24Z</time>
      </trkpt>
      <trkpt lat="49.43186" lon="5.78512">
        <ele>323.2</ele>
        <time>2021-07-28T05:37:25Z</time>
      </trkpt>
      <trkpt lat="49.43186" lon="5.78513">
        <ele>323.3</ele>
        <time>2021-07-28T05:37:26Z</time>
      </trkpt>
      <trkpt lat="49.43185" lon="5.78515">
        <ele>323.4</ele>
        <time>2021-07-28T05:37:27Z</time>
      </trkpt>
      <trkpt lat="49.43185" lon="5.78516">
        <ele>323.4</ele>
        <time>2021-07-28T05:37:28Z</time>
      </trkpt>
      <trkpt lat="49.43182" lon="5.7852">
        <ele>323.6</ele>
        <time>2021-07-28T05:37:30Z</time>
      </trkpt>
      <trkpt lat="49.4318" lon="5.78521">
        <ele>323.8</ele>
        <time>2021-07-28T05:37:31Z</time>
      </trkpt>
      <trkpt lat="49.43177" lon="5.7852">
        <ele>324</ele>
        <time>2021-07-28T05:37:33Z</time>
      </trkpt>
      <trkpt lat="49.43174" lon="5.78519">
        <ele>324.1</ele>
        <time>2021-07-28T05:37:34Z</time>
      </trkpt>
      <trkpt lat="49.43173" lon="5.78519">
        <ele>324.2</ele>
        <time>2021-07-28T05:37:35Z</time>
      </trkpt>
      <trkpt lat="49.4317" lon="5.78517">
        <ele>324.4</ele>
        <time>2021-07-28T05:37:36Z</time>
      </trkpt>
      <trkpt lat="49.43169" lon="5.78517">
        <ele>324.4</ele>
        <time>2021-07-28T05:37:37Z</time>
      </trkpt>
      <trkpt lat="49.43166" lon="5.78515">
        <ele>324.6</ele>
        <time>2021-07-28T05:37:39Z</time>
      </trkpt>
      <trkpt lat="49.43166" lon="5.78515">
        <ele>324.7</ele>
        <time>2021-07-28T05:37:40Z</time>
      </trkpt>
      <trkpt lat="49.43164" lon="5.78515">
        <ele>324.8</ele>
        <time>2021-07-28T05:37:41Z</time>
      </trkpt>
      <trkpt lat="49.43086" lon="5.78565">
        <ele>329.9</ele>
        <time>2021-07-28T05:39:02Z</time>
      </trkpt>
      <trkpt lat="49.43083" lon="5.78565">
        <ele>330.1</ele>
        <time>2021-07-28T05:39:03Z</time>
      </trkpt>
      <trkpt lat="49.43081" lon="5.78567">
        <ele>330.2</ele>
        <time>2021-07-28T05:39:04Z</time>
      </trkpt>
      <trkpt lat="49.4308" lon="5.78568">
        <ele>330.3</ele>
        <time>2021-07-28T05:39:05Z</time>
      </trkpt>
      <trkpt lat="49.43078" lon="5.78575">
        <ele>330.6</ele>
        <time>2021-07-28T05:39:07Z</time>
      </trkpt>
      <trkpt lat="49.43075" lon="5.78584">
        <ele>331</ele>
        <time>2021-07-28T05:39:09Z</time>
      </trkpt>
      <trkpt lat="49.43073" lon="5.78588">
        <ele>331.2</ele>
        <time>2021-07-28T05:39:11Z</time>
      </trkpt>
      <trkpt lat="49.43072" lon="5.78589">
        <ele>331.3</ele>
        <time>2021-07-28T05:39:12Z</time>
      </trkpt>
      <trkpt lat="49.4307" lon="5.78593">
        <ele>331.5</ele>
        <time>2021-07-28T05:39:14Z</time>
      </trkpt>
      <trkpt lat="49.43067" lon="5.78597">
        <ele>331.7</ele>
        <time>2021-07-28T05:39:15Z</time>
      </trkpt>
      <trkpt lat="49.43064" lon="5.786">
        <ele>331.9</ele>
        <time>2021-07-28T05:39:16Z</time>
      </trkpt>
      <trkpt lat="49.43058" lon="5.78606">
        <ele>332.4</ele>
        <time>2021-07-28T05:39:18Z</time>
      </trkpt>
      <trkpt lat="49.43056" lon="5.7861">
        <ele>332.6</ele>
        <time>2021-07-28T05:39:20Z</time>
      </trkpt>
      <trkpt lat="49.43055" lon="5.78615">
        <ele>332.8</ele>
        <time>2021-07-28T05:39:21Z</time>
      </trkpt>
      <trkpt lat="49.43055" lon="5.78623">
        <ele>333.1</ele>
        <time>2021-07-28T05:39:22Z</time>
      </trkpt>
      <trkpt lat="49.43055" lon="5.7863">
        <ele>333.3</ele>
        <time>2021-07-28T05:39:24Z</time>
      </trkpt>
      <trkpt lat="49.43054" lon="5.78634">
        <ele>333.5</ele>
        <time>2021-07-28T05:39:26Z</time>
      </trkpt>
      <trkpt lat="49.43053" lon="5.78634">
        <ele>333.6</ele>
        <time>2021-07-28T05:39:27Z</time>
      </trkpt>
      <trkpt lat="49.43052" lon="5.78634">
        <ele>333.6</ele>
        <time>2021-07-28T05:39:28Z</time>
      </trkpt>
      <trkpt lat="49.43052" lon="5.78634">
        <ele>333.6</ele>
        <time>2021-07-28T05:39:30Z</time>
      </trkpt>
      <trkpt lat="49.43051" lon="5.78634">
        <ele>333.7</ele>
        <time>2021-07-28T05:39:31Z</time>
      </trkpt>
      <trkpt lat="49.43049" lon="5.78633">
        <ele>333.8</ele>
        <time>2021-07-28T05:39:32Z</time>
      </trkpt>
      <trkpt lat="49.43047" lon="5.78634">
        <ele>333.9</ele>
        <time>2021-07-28T05:39:34Z</time>
      </trkpt>
      <trkpt lat="49.43044" lon="5.78636">
        <ele>334.1</ele>
        <time>2021-07-28T05:39:35Z</time>
      </trkpt>
      <trkpt lat="49.43041" lon="5.78637">
        <ele>334.3</ele>
        <time>2021-07-28T05:39:36Z</time>
      </trkpt>
      <trkpt lat="49.43039" lon="5.78637">
        <ele>334.4</ele>
        <time>2021-07-28T05:39:37Z</time>
      </trkpt>
      <trkpt lat="49.43036" lon="5.78635">
        <ele>334.6</ele>
        <time>2021-07-28T05:39:39Z</time>
      </trkpt>
      <trkpt lat="49.43034" lon="5.78631">
        <ele>334.8</ele>
        <time>2021-07-28T05:39:40Z</time>
      </trkpt>
      <trkpt lat="49.43033" lon="5.78629">
        <ele>334.9</ele>
        <time>2021-07-28T05:39:41Z</time>
      </trkpt>
      <trkpt lat="49.43031" lon="5.78632">
        <ele>335.1</ele>
        <time>2021-07-28T05:39:43Z</time>
      </trkpt>
      <trkpt lat="49.4303" lon="5.78636">
        <ele>335.3</ele>
        <time>2021-07-28T05:39:44Z</time>
      </trkpt>
      <trkpt lat="49.43029" lon="5.7864">
        <ele>335.4</ele>
        <time>2021-07-28T05:39:45Z</time>
      </trkpt>
      <trkpt lat="49.43028" lon="5.78645">
        <ele>335.6</ele>
        <time>2021-07-28T05:39:47Z</time>
      </trkpt>
      <trkpt lat="49.43027" lon="5.78649">
        <ele>335.8</ele>
        <time>2021-07-28T05:39:48Z</time>
      </trkpt>
      <trkpt lat="49.43026" lon="5.78653">
        <ele>336</ele>
        <time>2021-07-28T05:39:49Z</time>
      </trkpt>
      <trkpt lat="49.43025" lon="5.78657">
        <ele>336.2</ele>
        <time>2021-07-28T05:40:03Z</time>
      </trkpt>
      <trkpt lat="49.43024" lon="5.78661">
        <ele>336.3</ele>
        <time>2021-07-28T05:40:04Z</time>
      </trkpt>
      <trkpt lat="49.43023" lon="5.7867">
        <ele>336.7</ele>
        <time>2021-07-28T05:40:05Z</time>
      </trkpt>
      <trkpt lat="49.43023" lon="5.78676">
        <ele>336.9</ele>
        <time>2021-07-28T05:40:06Z</time>
      </trkpt>
      <trkpt lat="49.43021" lon="5.78681">
        <ele>337.1</ele>
        <time>2021-07-28T05:40:08Z</time>
      </trkpt>
      <trkpt lat="49.43017" lon="5.78684">
        <ele>337.4</ele>
        <time>2021-07-28T05:40:09Z</time>
      </trkpt>
      <trkpt lat="49.43016" lon="5.78687">
        <ele>337.5</ele>
        <time>2021-07-28T05:40:10Z</time>
      </trkpt>
      <trkpt lat="49.43014" lon="5.7869">
        <ele>337.7</ele>
        <time>2021-07-28T05:40:12Z</time>
      </trkpt>
      <trkpt lat="49.43012" lon="5.7869">
        <ele>337.8</ele>
        <time>2021-07-28T05:40:13Z</time>
      </trkpt>
      <trkpt lat="49.43011" lon="5.7869">
        <ele>338</ele>
        <time>2021-07-28T05:40:14Z</time>
      </trkpt>
      <trkpt lat="49.43009" lon="5.78692">
        <ele>338</ele>
        <time>2021-07-28T05:40:16Z</time>
      </trkpt>
      <trkpt lat="49.43009" lon="5.78693">
        <ele>338.1</ele>
        <time>2021-07-28T05:40:17Z</time>
      </trkpt>
      <trkpt lat="49.43008" lon="5.78698">
        <ele>338.2</ele>
        <time>2021-07-28T05:40:18Z</time>
      </trkpt>
      <trkpt lat="49.43007" lon="5.78701">
        <ele>338.3</ele>
        <time>2021-07-28T05:40:19Z</time>
      </trkpt>
      <trkpt lat="49.43007" lon="5.78703">
        <ele>338.3</ele>
        <time>2021-07-28T05:40:21Z</time>
      </trkpt>
      <trkpt lat="49.43006" lon="5.78708">
        <ele>338.5</ele>
        <time>2021-07-28T05:40:22Z</time>
      </trkpt>
      <trkpt lat="49.43007" lon="5.78713">
        <ele>338.7</ele>
        <time>2021-07-28T05:40:24Z</time>
      </trkpt>
      <trkpt lat="49.43007" lon="5.78715">
        <ele>338.8</ele>
        <time>2021-07-28T05:40:25Z</time>
      </trkpt>
      <trkpt lat="49.43008" lon="5.78718">
        <ele>338.9</ele>
        <time>2021-07-28T05:40:26Z</time>
      </trkpt>
      <trkpt lat="49.43008" lon="5.7872">
        <ele>339</ele>
        <time>2021-07-28T05:40:27Z</time>
      </trkpt>
      <trkpt lat="49.43007" lon="5.78723">
        <ele>339.1</ele>
        <time>2021-07-28T05:40:29Z</time>
      </trkpt>
      <trkpt lat="49.43007" lon="5.78724">
        <ele>339.2</ele>
        <time>2021-07-28T05:40:31Z</time>
      </trkpt>
      <trkpt lat="49.43007" lon="5.78725">
        <ele>339.3</ele>
        <time>2021-07-28T05:40:32Z</time>
      </trkpt>
      <trkpt lat="49.43006" lon="5.78725">
        <ele>339.3</ele>
        <time>2021-07-28T05:40:34Z</time>
      </trkpt>
      <trkpt lat="49.43006" lon="5.78726">
        <ele>339.3</ele>
        <time>2021-07-28T05:40:35Z</time>
      </trkpt>
      <trkpt lat="49.43006" lon="5.78726">
        <ele>339.3</ele>
        <time>2021-07-28T05:40:36Z</time>
      </trkpt>
      <trkpt lat="49.43006" lon="5.78726">
        <ele>339.3</ele>
        <time>2021-07-28T05:40:37Z</time>
      </trkpt>
      <trkpt lat="49.43018" lon="5.78747">
        <ele>340.4</ele>
        <time>2021-07-28T05:40:49Z</time>
      </trkpt>
      <trkpt lat="49.4302" lon="5.78751">
        <ele>340.5</ele>
        <time>2021-07-28T05:40:50Z</time>
      </trkpt>
      <trkpt lat="49.43024" lon="5.78758">
        <ele>340.7</ele>
        <time>2021-07-28T05:40:52Z</time>
      </trkpt>
      <trkpt lat="49.43026" lon="5.78762">
        <ele>340.9</ele>
        <time>2021-07-28T05:40:53Z</time>
      </trkpt>
      <trkpt lat="49.43027" lon="5.78766">
        <ele>341</ele>
        <time>2021-07-28T05:40:54Z</time>
      </trkpt>
      <trkpt lat="49.43027" lon="5.78769">
        <ele>341.2</ele>
        <time>2021-07-28T05:40:55Z</time>
      </trkpt>
      <trkpt lat="49.43026" lon="5.78774">
        <ele>341.4</ele>
        <time>2021-07-28T05:40:57Z</time>
      </trkpt>
      <trkpt lat="49.43026" lon="5.78776">
        <ele>341.4</ele>
        <time>2021-07-28T05:40:58Z</time>
      </trkpt>
      <trkpt lat="49.43027" lon="5.78778">
        <ele>341.5</ele>
        <time>2021-07-28T05:40:59Z</time>
      </trkpt>
      <trkpt lat="49.43028" lon="5.78783">
        <ele>341.8</ele>
        <time>2021-07-28T05:41:01Z</time>
      </trkpt>
      <trkpt lat="49.43028" lon="5.78785">
        <ele>341.8</ele>
        <time>2021-07-28T05:41:02Z</time>
      </trkpt>
      <trkpt lat="49.43027" lon="5.78787">
        <ele>342</ele>
        <time>2021-07-28T05:41:03Z</time>
      </trkpt>
      <trkpt lat="49.43026" lon="5.7879">
        <ele>342.1</ele>
        <time>2021-07-28T05:41:05Z</time>
      </trkpt>
      <trkpt lat="49.43026" lon="5.7879">
        <ele>342.1</ele>
        <time>2021-07-28T05:41:06Z</time>
      </trkpt>
      <trkpt lat="49.43027" lon="5.7879">
        <ele>342.1</ele>
        <time>2021-07-28T05:41:08Z</time>
      </trkpt>
      <trkpt lat="49.43027" lon="5.7879">
        <ele>342.1</ele>
        <time>2021-07-28T05:41:09Z</time>
      </trkpt>
      <trkpt lat="49.43027" lon="5.78791">
        <ele>342.1</ele>
        <time>2021-07-28T05:41:10Z</time>
      </trkpt>
      <trkpt lat="49.43027" lon="5.78791">
        <ele>342.1</ele>
        <time>2021-07-28T05:41:11Z</time>
      </trkpt>
      <trkpt lat="49.43027" lon="5.78791">
        <ele>342.1</ele>
        <time>2021-07-28T05:41:12Z</time>
      </trkpt>
      <trkpt lat="49.43027" lon="5.78791">
        <ele>342.2</ele>
        <time>2021-07-28T05:41:13Z</time>
      </trkpt>
      <trkpt lat="49.43039" lon="5.78808">
        <ele>343.3</ele>
        <time>2021-07-28T05:41:31Z</time>
      </trkpt>
      <trkpt lat="49.4304" lon="5.7881">
        <ele>343.4</ele>
        <time>2021-07-28T05:41:32Z</time>
      </trkpt>
      <trkpt lat="49.43043" lon="5.78813">
        <ele>343.7</ele>
        <time>2021-07-28T05:41:33Z</time>
      </trkpt>
      <trkpt lat="49.43046" lon="5.78816">
        <ele>343.9</ele>
        <time>2021-07-28T05:41:34Z</time>
      </trkpt>
      <trkpt lat="49.43052" lon="5.78821">
        <ele>344.3</ele>
        <time>2021-07-28T05:41:36Z</time>
      </trkpt>
      <trkpt lat="49.43057" lon="5.78824">
        <ele>344.5</ele>
        <time>2021-07-28T05:41:37Z</time>
      </trkpt>
      <trkpt lat="49.4306" lon="5.78827">
        <ele>344.7</ele>
        <time>2021-07-28T05:41:38Z</time>
      </trkpt>
      <trkpt lat="49.43065" lon="5.7883">
        <ele>345</ele>
        <time>2021-07-28T05:41:40Z</time>
      </trkpt>
      <trkpt lat="49.43067" lon="5.78833">
        <ele>345.2</ele>
        <time>2021-07-28T05:41:41Z</time>
      </trkpt>
      <trkpt lat="49.43071" lon="5.78836">
        <ele>345.5</ele>
        <time>2021-07-28T05:41:42Z</time>
      </trkpt>
      <trkpt lat="49.43074" lon="5.78838">
        <ele>345.7</ele>
        <time>2021-07-28T05:41:43Z</time>
      </trkpt>
      <trkpt lat="49.43077" lon="5.78839">
        <ele>345.9</ele>
        <time>2021-07-28T05:41:44Z</time>
      </trkpt>
      <trkpt lat="49.4308" lon="5.78842">
        <ele>346.1</ele>
        <time>2021-07-28T05:41:45Z</time>
      </trkpt>
      <trkpt lat="49.43081" lon="5.78844">
        <ele>346.2</ele>
        <time>2021-07-28T05:41:46Z</time>
      </trkpt>
      <trkpt lat="49.43084" lon="5.78848">
        <ele>346.4</ele>
        <time>2021-07-28T05:41:48Z</time>
      </trkpt>
      <trkpt lat="49.43084" lon="5.78848">
        <ele>346.4</ele>
        <time>2021-07-28T05:41:49Z</time>
      </trkpt>
      <trkpt lat="49.43085" lon="5.78852">
        <ele>346.6</ele>
        <time>2021-07-28T05:41:50Z</time>
      </trkpt>
      <trkpt lat="49.43086" lon="5.78852">
        <ele>346.6</ele>
        <time>2021-07-28T05:41:51Z</time>
      </trkpt>
      <trkpt lat="49.43086" lon="5.78853">
        <ele>346.7</ele>
        <time>2021-07-28T05:41:52Z</time>
      </trkpt>
      <trkpt lat="49.43087" lon="5.78853">
        <ele>346.7</ele>
        <time>2021-07-28T05:41:54Z</time>
      </trkpt>
      <trkpt lat="49.43088" lon="5.78853">
        <ele>346.7</ele>
        <time>2021-07-28T05:41:55Z</time>
      </trkpt>
      <trkpt lat="49.43089" lon="5.78853">
        <ele>346.8</ele>
        <time>2021-07-28T05:41:56Z</time>
      </trkpt>
      <trkpt lat="49.4309" lon="5.78853">
        <ele>346.9</ele>
        <time>2021-07-28T05:41:57Z</time>
      </trkpt>
      <trkpt lat="49.43091" lon="5.78853">
        <ele>346.9</ele>
        <time>2021-07-28T05:41:58Z</time>
      </trkpt>
      <trkpt lat="49.43092" lon="5.78853">
        <ele>347</ele>
        <time>2021-07-28T05:42:00Z</time>
      </trkpt>
      <trkpt lat="49.43093" lon="5.78853">
        <ele>347</ele>
        <time>2021-07-28T05:42:01Z</time>
      </trkpt>
      <trkpt lat="49.43094" lon="5.78853">
        <ele>347.1</ele>
        <time>2021-07-28T05:42:02Z</time>
      </trkpt>
      <trkpt lat="49.43096" lon="5.78853">
        <ele>347.1</ele>
        <time>2021-07-28T05:42:03Z</time>
      </trkpt>
      <trkpt lat="49.43098" lon="5.78853">
        <ele>347.2</ele>
        <time>2021-07-28T05:42:05Z</time>
      </trkpt>
      <trkpt lat="49.43099" lon="5.78853">
        <ele>347.3</ele>
        <time>2021-07-28T05:42:06Z</time>
      </trkpt>
      <trkpt lat="49.43106" lon="5.78858">
        <ele>347.7</ele>
        <time>2021-07-28T05:42:10Z</time>
      </trkpt>
      <trkpt lat="49.4311" lon="5.78863">
        <ele>347.9</ele>
        <time>2021-07-28T05:42:12Z</time>
      </trkpt>
      <trkpt lat="49.43111" lon="5.78866">
        <ele>348</ele>
        <time>2021-07-28T05:42:13Z</time>
      </trkpt>
      <trkpt lat="49.43112" lon="5.78873">
        <ele>348.4</ele>
        <time>2021-07-28T05:42:15Z</time>
      </trkpt>
      <trkpt lat="49.43114" lon="5.78876">
        <ele>348.6</ele>
        <time>2021-07-28T05:42:16Z</time>
      </trkpt>
      <trkpt lat="49.43114" lon="5.78876">
        <ele>348.6</ele>
        <time>2021-07-28T05:42:18Z</time>
      </trkpt>
      <trkpt lat="49.43115" lon="5.78877">
        <ele>348.7</ele>
        <time>2021-07-28T05:42:19Z</time>
      </trkpt>
      <trkpt lat="49.43115" lon="5.78878">
        <ele>348.7</ele>
        <time>2021-07-28T05:42:21Z</time>
      </trkpt>
      <trkpt lat="49.43116" lon="5.78878">
        <ele>348.8</ele>
        <time>2021-07-28T05:42:22Z</time>
      </trkpt>
      <trkpt lat="49.43117" lon="5.78879">
        <ele>348.8</ele>
        <time>2021-07-28T05:42:24Z</time>
      </trkpt>
      <trkpt lat="49.43117" lon="5.78879">
        <ele>348.9</ele>
        <time>2021-07-28T05:42:25Z</time>
      </trkpt>
      <trkpt lat="49.43118" lon="5.7888">
        <ele>348.9</ele>
        <time>2021-07-28T05:42:26Z</time>
      </trkpt>
      <trkpt lat="49.4312" lon="5.78883">
        <ele>349.1</ele>
        <time>2021-07-28T05:42:28Z</time>
      </trkpt>
      <trkpt lat="49.43122" lon="5.78885">
        <ele>349.3</ele>
        <time>2021-07-28T05:42:29Z</time>
      </trkpt>
      <trkpt lat="49.43123" lon="5.78886">
        <ele>349.3</ele>
        <time>2021-07-28T05:42:31Z</time>
      </trkpt>
      <trkpt lat="49.43123" lon="5.78887">
        <ele>349.4</ele>
        <time>2021-07-28T05:42:32Z</time>
      </trkpt>
      <trkpt lat="49.43123" lon="5.78889">
        <ele>349.4</ele>
        <time>2021-07-28T05:42:33Z</time>
      </trkpt>
      <trkpt lat="49.43123" lon="5.78889">
        <ele>349.4</ele>
        <time>2021-07-28T05:42:35Z</time>
      </trkpt>
      <trkpt lat="49.43123" lon="5.7889">
        <ele>349.4</ele>
        <time>2021-07-28T05:42:36Z</time>
      </trkpt>
      <trkpt lat="49.43122" lon="5.7889">
        <ele>349.5</ele>
        <time>2021-07-28T05:42:37Z</time>
      </trkpt>
      <trkpt lat="49.43122" lon="5.78891">
        <ele>349.5</ele>
        <time>2021-07-28T05:42:39Z</time>
      </trkpt>
      <trkpt lat="49.43133" lon="5.7891">
        <ele>350</ele>
        <time>2021-07-28T05:42:47Z</time>
      </trkpt>
      <trkpt lat="49.43139" lon="5.78913">
        <ele>350.1</ele>
        <time>2021-07-28T05:42:49Z</time>
      </trkpt>
      <trkpt lat="49.43142" lon="5.78914">
        <ele>350.2</ele>
        <time>2021-07-28T05:42:50Z</time>
      </trkpt>
      <trkpt lat="49.43145" lon="5.78917">
        <ele>350.3</ele>
        <time>2021-07-28T05:42:51Z</time>
      </trkpt>
      <trkpt lat="49.43148" lon="5.78919">
        <ele>350.4</ele>
        <time>2021-07-28T05:42:52Z</time>
      </trkpt>
      <trkpt lat="49.4315" lon="5.78921">
        <ele>350.4</ele>
        <time>2021-07-28T05:42:53Z</time>
      </trkpt>
      <trkpt lat="49.43153" lon="5.78925">
        <ele>350.4</ele>
        <time>2021-07-28T05:42:55Z</time>
      </trkpt>
      <trkpt lat="49.43155" lon="5.78929">
        <ele>350.5</ele>
        <time>2021-07-28T05:42:56Z</time>
      </trkpt>
      <trkpt lat="49.43154" lon="5.78931">
        <ele>350.5</ele>
        <time>2021-07-28T05:42:57Z</time>
      </trkpt>
      <trkpt lat="49.43154" lon="5.78937">
        <ele>350.6</ele>
        <time>2021-07-28T05:42:58Z</time>
      </trkpt>
      <trkpt lat="49.43154" lon="5.7894">
        <ele>350.6</ele>
        <time>2021-07-28T05:43:00Z</time>
      </trkpt>
      <trkpt lat="49.43155" lon="5.78942">
        <ele>350.6</ele>
        <time>2021-07-28T05:43:01Z</time>
      </trkpt>
      <trkpt lat="49.43155" lon="5.78944">
        <ele>350.6</ele>
        <time>2021-07-28T05:43:03Z</time>
      </trkpt>
      <trkpt lat="49.43155" lon="5.78945">
        <ele>350.6</ele>
        <time>2021-07-28T05:43:04Z</time>
      </trkpt>
      <trkpt lat="49.43155" lon="5.78946">
        <ele>350.7</ele>
        <time>2021-07-28T05:43:05Z</time>
      </trkpt>
      <trkpt lat="49.43179" lon="5.79064">
        <ele>351.8</ele>
        <time>2021-07-28T05:47:09Z</time>
      </trkpt>
      <trkpt lat="49.43178" lon="5.79067">
        <ele>351.8</ele>
        <time>2021-07-28T05:47:10Z</time>
      </trkpt>
      <trkpt lat="49.4318" lon="5.79074">
        <ele>351.9</ele>
        <time>2021-07-28T05:47:12Z</time>
      </trkpt>
      <trkpt lat="49.43184" lon="5.79081">
        <ele>351.9</ele>
        <time>2021-07-28T05:47:14Z</time>
      </trkpt>
      <trkpt lat="49.43186" lon="5.79085">
        <ele>351.9</ele>
        <time>2021-07-28T05:47:15Z</time>
      </trkpt>
      <trkpt lat="49.43187" lon="5.79094">
        <ele>351.9</ele>
        <time>2021-07-28T05:47:17Z</time>
      </trkpt>
      <trkpt lat="49.43187" lon="5.79097">
        <ele>351.9</ele>
        <time>2021-07-28T05:47:18Z</time>
      </trkpt>
      <trkpt lat="49.43187" lon="5.79105">
        <ele>351.9</ele>
        <time>2021-07-28T05:47:20Z</time>
      </trkpt>
      <trkpt lat="49.43187" lon="5.79109">
        <ele>351.9</ele>
        <time>2021-07-28T05:47:21Z</time>
      </trkpt>
      <trkpt lat="49.43187" lon="5.79114">
        <ele>351.9</ele>
        <time>2021-07-28T05:47:22Z</time>
      </trkpt>
      <trkpt lat="49.43188" lon="5.79115">
        <ele>351.9</ele>
        <time>2021-07-28T05:47:23Z</time>
      </trkpt>
      <trkpt lat="49.43188" lon="5.79118">
        <ele>351.9</ele>
        <time>2021-07-28T05:47:24Z</time>
      </trkpt>
      <trkpt lat="49.43189" lon="5.79121">
        <ele>351.9</ele>
        <time>2021-07-28T05:47:26Z</time>
      </trkpt>
      <trkpt lat="49.43191" lon="5.79124">
        <ele>351.9</ele>
        <time>2021-07-28T05:47:27Z</time>
      </trkpt>
      <trkpt lat="49.43191" lon="5.79125">
        <ele>351.9</ele>
        <time>2021-07-28T05:47:28Z</time>
      </trkpt>
      <trkpt lat="49.43192" lon="5.79127">
        <ele>351.9</ele>
        <time>2021-07-28T05:47:29Z</time>
      </trkpt>
      <trkpt lat="49.43193" lon="5.79129">
        <ele>351.9</ele>
        <time>2021-07-28T05:47:30Z</time>
      </trkpt>
      <trkpt lat="49.43196" lon="5.79133">
        <ele>351.9</ele>
        <time>2021-07-28T05:47:32Z</time>
      </trkpt>
      <trkpt lat="49.43196" lon="5.79134">
        <ele>351.9</ele>
        <time>2021-07-28T05:47:33Z</time>
      </trkpt>
      <trkpt lat="49.43199" lon="5.79137">
        <ele>351.8</ele>
        <time>2021-07-28T05:47:34Z</time>
      </trkpt>
      <trkpt lat="49.432" lon="5.79138">
        <ele>351.8</ele>
        <time>2021-07-28T05:47:35Z</time>
      </trkpt>
      <trkpt lat="49.43201" lon="5.7914">
        <ele>351.8</ele>
        <time>2021-07-28T05:47:36Z</time>
      </trkpt>
      <trkpt lat="49.43203" lon="5.79141">
        <ele>351.8</ele>
        <time>2021-07-28T05:47:37Z</time>
      </trkpt>
      <trkpt lat="49.43205" lon="5.79145">
        <ele>351.8</ele>
        <time>2021-07-28T05:47:39Z</time>
      </trkpt>
      <trkpt lat="49.43207" lon="5.79148">
        <ele>351.8</ele>
        <time>2021-07-28T05:47:40Z</time>
      </trkpt>
      <trkpt lat="49.43209" lon="5.79153">
        <ele>351.8</ele>
        <time>2021-07-28T05:47:42Z</time>
      </trkpt>
      <trkpt lat="49.43211" lon="5.79158">
        <ele>351.8</ele>
        <time>2021-07-28T05:47:44Z</time>
      </trkpt>
      <trkpt lat="49.43212" lon="5.79162">
        <ele>351.9</ele>
        <time>2021-07-28T05:47:45Z</time>
      </trkpt>
      <trkpt lat="49.43214" lon="5.79166">
        <ele>351.9</ele>
        <time>2021-07-28T05:47:47Z</time>
      </trkpt>
      <trkpt lat="49.43215" lon="5.79171">
        <ele>352</ele>
        <time>2021-07-28T05:47:49Z</time>
      </trkpt>
      <trkpt lat="49.43215" lon="5.79175">
        <ele>352.1</ele>
        <time>2021-07-28T05:47:50Z</time>
      </trkpt>
      <trkpt lat="49.43215" lon="5.79181">
        <ele>352.1</ele>
        <time>2021-07-28T05:47:52Z</time>
      </trkpt>
      <trkpt lat="49.43215" lon="5.79187">
        <ele>352.2</ele>
        <time>2021-07-28T05:47:53Z</time>
      </trkpt>
      <trkpt lat="49.43215" lon="5.79189">
        <ele>352.2</ele>
        <time>2021-07-28T05:47:54Z</time>
      </trkpt>
      <trkpt lat="49.43216" lon="5.79191">
        <ele>352.3</ele>
        <time>2021-07-28T05:47:55Z</time>
      </trkpt>
      <trkpt lat="49.43217" lon="5.79193">
        <ele>352.3</ele>
        <time>2021-07-28T05:47:56Z</time>
      </trkpt>
      <trkpt lat="49.43218" lon="5.79196">
        <ele>352.4</ele>
        <time>2021-07-28T05:47:57Z</time>
      </trkpt>
      <trkpt lat="49.43219" lon="5.79198">
        <ele>352.4</ele>
        <time>2021-07-28T05:47:58Z</time>
      </trkpt>
      <trkpt lat="49.4322" lon="5.79203">
        <ele>352.5</ele>
        <time>2021-07-28T05:48:00Z</time>
      </trkpt>
      <trkpt lat="49.43221" lon="5.79206">
        <ele>352.5</ele>
        <time>2021-07-28T05:48:01Z</time>
      </trkpt>
      <trkpt lat="49.43221" lon="5.79211">
        <ele>352.5</ele>
        <time>2021-07-28T05:48:03Z</time>
      </trkpt>
      <trkpt lat="49.43221" lon="5.79214">
        <ele>352.5</ele>
        <time>2021-07-28T05:48:04Z</time>
      </trkpt>
      <trkpt lat="49.43223" lon="5.79219">
        <ele>352.5</ele>
        <time>2021-07-28T05:48:06Z</time>
      </trkpt>
      <trkpt lat="49.43225" lon="5.79225">
        <ele>352.4</ele>
        <time>2021-07-28T05:48:08Z</time>
      </trkpt>
      <trkpt lat="49.43227" lon="5.79229">
        <ele>352.4</ele>
        <time>2021-07-28T05:48:09Z</time>
      </trkpt>
      <trkpt lat="49.43227" lon="5.7923">
        <ele>352.4</ele>
        <time>2021-07-28T05:48:10Z</time>
      </trkpt>
      <trkpt lat="49.43229" lon="5.79237">
        <ele>352.3</ele>
        <time>2021-07-28T05:48:12Z</time>
      </trkpt>
      <trkpt lat="49.43229" lon="5.79239">
        <ele>352.3</ele>
        <time>2021-07-28T05:48:13Z</time>
      </trkpt>
      <trkpt lat="49.4323" lon="5.79245">
        <ele>352.3</ele>
        <time>2021-07-28T05:48:15Z</time>
      </trkpt>
      <trkpt lat="49.43231" lon="5.79248">
        <ele>352.3</ele>
        <time>2021-07-28T05:48:16Z</time>
      </trkpt>
      <trkpt lat="49.43233" lon="5.79252">
        <ele>352.3</ele>
        <time>2021-07-28T05:48:18Z</time>
      </trkpt>
      <trkpt lat="49.43234" lon="5.79255">
        <ele>352.4</ele>
        <time>2021-07-28T05:48:19Z</time>
      </trkpt>
      <trkpt lat="49.43237" lon="5.79261">
        <ele>352.4</ele>
        <time>2021-07-28T05:48:21Z</time>
      </trkpt>
      <trkpt lat="49.43239" lon="5.79266">
        <ele>352.5</ele>
        <time>2021-07-28T05:48:23Z</time>
      </trkpt>
      <trkpt lat="49.4324" lon="5.79268">
        <ele>352.6</ele>
        <time>2021-07-28T05:48:24Z</time>
      </trkpt>
      <trkpt lat="49.43241" lon="5.7927">
        <ele>352.6</ele>
        <time>2021-07-28T05:48:25Z</time>
      </trkpt>
      <trkpt lat="49.43244" lon="5.79274">
        <ele>352.7</ele>
        <time>2021-07-28T05:48:27Z</time>
      </trkpt>
      <trkpt lat="49.43245" lon="5.79276">
        <ele>352.7</ele>
        <time>2021-07-28T05:48:28Z</time>
      </trkpt>
      <trkpt lat="49.43247" lon="5.79278">
        <ele>352.7</ele>
        <time>2021-07-28T05:48:29Z</time>
      </trkpt>
      <trkpt lat="49.43249" lon="5.79282">
        <ele>352.7</ele>
        <time>2021-07-28T05:48:31Z</time>
      </trkpt>
      <trkpt lat="49.43252" lon="5.79286">
        <ele>352.8</ele>
        <time>2021-07-28T05:48:32Z</time>
      </trkpt>
      <trkpt lat="49.43253" lon="5.79287">
        <ele>352.8</ele>
        <time>2021-07-28T05:48:33Z</time>
      </trkpt>
      <trkpt lat="49.43256" lon="5.79289">
        <ele>352.8</ele>
        <time>2021-07-28T05:48:35Z</time>
      </trkpt>
      <trkpt lat="49.43258" lon="5.7929">
        <ele>352.8</ele>
        <time>2021-07-28T05:48:36Z</time>
      </trkpt>
      <trkpt lat="49.43262" lon="5.79293">
        <ele>352.8</ele>
        <time>2021-07-28T05:48:38Z</time>
      </trkpt>
      <trkpt lat="49.43263" lon="5.79294">
        <ele>352.8</ele>
        <time>2021-07-28T05:48:39Z</time>
      </trkpt>
      <trkpt lat="49.43264" lon="5.79295">
        <ele>352.8</ele>
        <time>2021-07-28T05:48:40Z</time>
      </trkpt>
      <trkpt lat="49.43266" lon="5.79298">
        <ele>352.9</ele>
        <time>2021-07-28T05:48:41Z</time>
      </trkpt>
      <trkpt lat="49.43267" lon="5.79299">
        <ele>352.9</ele>
        <time>2021-07-28T05:48:42Z</time>
      </trkpt>
      <trkpt lat="49.43271" lon="5.79303">
        <ele>353</ele>
        <time>2021-07-28T05:48:44Z</time>
      </trkpt>
      <trkpt lat="49.43272" lon="5.79303">
        <ele>353</ele>
        <time>2021-07-28T05:48:45Z</time>
      </trkpt>
      <trkpt lat="49.43273" lon="5.79304">
        <ele>353</ele>
        <time>2021-07-28T05:48:46Z</time>
      </trkpt>
      <trkpt lat="49.43275" lon="5.79305">
        <ele>353.1</ele>
        <time>2021-07-28T05:48:47Z</time>
      </trkpt>
      <trkpt lat="49.43279" lon="5.79308">
        <ele>353.2</ele>
        <time>2021-07-28T05:48:49Z</time>
      </trkpt>
      <trkpt lat="49.43281" lon="5.79309">
        <ele>353.2</ele>
        <time>2021-07-28T05:48:50Z</time>
      </trkpt>
      <trkpt lat="49.43284" lon="5.79311">
        <ele>353.2</ele>
        <time>2021-07-28T05:48:52Z</time>
      </trkpt>
      <trkpt lat="49.43287" lon="5.79312">
        <ele>353.2</ele>
        <time>2021-07-28T05:48:53Z</time>
      </trkpt>
      <trkpt lat="49.4329" lon="5.79313">
        <ele>353.3</ele>
        <time>2021-07-28T05:48:55Z</time>
      </trkpt>
      <trkpt lat="49.43292" lon="5.79314">
        <ele>353.3</ele>
        <time>2021-07-28T05:48:56Z</time>
      </trkpt>
      <trkpt lat="49.43295" lon="5.79316">
        <ele>353.3</ele>
        <time>2021-07-28T05:48:58Z</time>
      </trkpt>
      <trkpt lat="49.43298" lon="5.79319">
        <ele>353.3</ele>
        <time>2021-07-28T05:48:59Z</time>
      </trkpt>
      <trkpt lat="49.43299" lon="5.79319">
        <ele>353.3</ele>
        <time>2021-07-28T05:49:00Z</time>
      </trkpt>
      <trkpt lat="49.43302" lon="5.79321">
        <ele>353.3</ele>
        <time>2021-07-28T05:49:01Z</time>
      </trkpt>
      <trkpt lat="49.43304" lon="5.79323">
        <ele>353.3</ele>
        <time>2021-07-28T05:49:02Z</time>
      </trkpt>
      <trkpt lat="49.43307" lon="5.79325">
        <ele>353.3</ele>
        <time>2021-07-28T05:49:04Z</time>
      </trkpt>
      <trkpt lat="49.43309" lon="5.79327">
        <ele>353.3</ele>
        <time>2021-07-28T05:49:05Z</time>
      </trkpt>
      <trkpt lat="49.43313" lon="5.79331">
        <ele>353.3</ele>
        <time>2021-07-28T05:49:07Z</time>
      </trkpt>
      <trkpt lat="49.43317" lon="5.79335">
        <ele>353.3</ele>
        <time>2021-07-28T05:49:09Z</time>
      </trkpt>
      <trkpt lat="49.43319" lon="5.79337">
        <ele>353.3</ele>
        <time>2021-07-28T05:49:10Z</time>
      </trkpt>
      <trkpt lat="49.43322" lon="5.79341">
        <ele>353.4</ele>
        <time>2021-07-28T05:49:11Z</time>
      </trkpt>
      <trkpt lat="49.43323" lon="5.79342">
        <ele>353.4</ele>
        <time>2021-07-28T05:49:12Z</time>
      </trkpt>
      <trkpt lat="49.43327" lon="5.79345">
        <ele>353.5</ele>
        <time>2021-07-28T05:49:14Z</time>
      </trkpt>
      <trkpt lat="49.4333" lon="5.79347">
        <ele>353.6</ele>
        <time>2021-07-28T05:49:15Z</time>
      </trkpt>
      <trkpt lat="49.43332" lon="5.79349">
        <ele>353.7</ele>
        <time>2021-07-28T05:49:16Z</time>
      </trkpt>
      <trkpt lat="49.43335" lon="5.79351">
        <ele>353.8</ele>
        <time>2021-07-28T05:49:18Z</time>
      </trkpt>
      <trkpt lat="49.43338" lon="5.79353">
        <ele>353.8</ele>
        <time>2021-07-28T05:49:19Z</time>
      </trkpt>
      <trkpt lat="49.43342" lon="5.79356">
        <ele>353.8</ele>
        <time>2021-07-28T05:49:21Z</time>
      </trkpt>
      <trkpt lat="49.43344" lon="5.79358">
        <ele>353.9</ele>
        <time>2021-07-28T05:49:22Z</time>
      </trkpt>
      <trkpt lat="49.43348" lon="5.79361">
        <ele>353.9</ele>
        <time>2021-07-28T05:49:23Z</time>
      </trkpt>
      <trkpt lat="49.43349" lon="5.79361">
        <ele>353.9</ele>
        <time>2021-07-28T05:49:24Z</time>
      </trkpt>
      <trkpt lat="49.43351" lon="5.79364">
        <ele>353.9</ele>
        <time>2021-07-28T05:49:26Z</time>
      </trkpt>
      <trkpt lat="49.43354" lon="5.79366">
        <ele>354</ele>
        <time>2021-07-28T05:49:27Z</time>
      </trkpt>
      <trkpt lat="49.43356" lon="5.79368">
        <ele>354</ele>
        <time>2021-07-28T05:49:28Z</time>
      </trkpt>
      <trkpt lat="49.43359" lon="5.79372">
        <ele>354</ele>
        <time>2021-07-28T05:49:30Z</time>
      </trkpt>
      <trkpt lat="49.43361" lon="5.79374">
        <ele>354</ele>
        <time>2021-07-28T05:49:31Z</time>
      </trkpt>
      <trkpt lat="49.43364" lon="5.79377">
        <ele>354.1</ele>
        <time>2021-07-28T05:49:33Z</time>
      </trkpt>
      <trkpt lat="49.43366" lon="5.79381">
        <ele>354.1</ele>
        <time>2021-07-28T05:49:34Z</time>
      </trkpt>
      <trkpt lat="49.43369" lon="5.79385">
        <ele>354.1</ele>
        <time>2021-07-28T05:49:35Z</time>
      </trkpt>
      <trkpt lat="49.4337" lon="5.79385">
        <ele>354.2</ele>
        <time>2021-07-28T05:49:36Z</time>
      </trkpt>
      <trkpt lat="49.43374" lon="5.79389">
        <ele>354.3</ele>
        <time>2021-07-28T05:49:38Z</time>
      </trkpt>
      <trkpt lat="49.43377" lon="5.79391">
        <ele>354.3</ele>
        <time>2021-07-28T05:49:39Z</time>
      </trkpt>
      <trkpt lat="49.43379" lon="5.79392">
        <ele>354.4</ele>
        <time>2021-07-28T05:49:40Z</time>
      </trkpt>
      <trkpt lat="49.43382" lon="5.79393">
        <ele>354.5</ele>
        <time>2021-07-28T05:49:42Z</time>
      </trkpt>
      <trkpt lat="49.43385" lon="5.79395">
        <ele>354.5</ele>
        <time>2021-07-28T05:49:43Z</time>
      </trkpt>
      <trkpt lat="49.43386" lon="5.79398">
        <ele>354.5</ele>
        <time>2021-07-28T05:49:44Z</time>
      </trkpt>
      <trkpt lat="49.43389" lon="5.79403">
        <ele>354.6</ele>
        <time>2021-07-28T05:49:46Z</time>
      </trkpt>
      <trkpt lat="49.43391" lon="5.79407">
        <ele>354.6</ele>
        <time>2021-07-28T05:49:47Z</time>
      </trkpt>
      <trkpt lat="49.43392" lon="5.79412">
        <ele>354.7</ele>
        <time>2021-07-28T05:49:49Z</time>
      </trkpt>
      <trkpt lat="49.43394" lon="5.79415">
        <ele>354.8</ele>
        <time>2021-07-28T05:49:50Z</time>
      </trkpt>
      <trkpt lat="49.43396" lon="5.79419">
        <ele>354.9</ele>
        <time>2021-07-28T05:49:51Z</time>
      </trkpt>
      <trkpt lat="49.43397" lon="5.7942">
        <ele>355</ele>
        <time>2021-07-28T05:49:52Z</time>
      </trkpt>
      <trkpt lat="49.43399" lon="5.79424">
        <ele>355.1</ele>
        <time>2021-07-28T05:49:54Z</time>
      </trkpt>
      <trkpt lat="49.43401" lon="5.79426">
        <ele>355.2</ele>
        <time>2021-07-28T05:49:55Z</time>
      </trkpt>
      <trkpt lat="49.43402" lon="5.79429">
        <ele>355.4</ele>
        <time>2021-07-28T05:49:57Z</time>
      </trkpt>
      <trkpt lat="49.43403" lon="5.79434">
        <ele>355.5</ele>
        <time>2021-07-28T05:49:58Z</time>
      </trkpt>
      <trkpt lat="49.43404" lon="5.79436">
        <ele>355.6</ele>
        <time>2021-07-28T05:49:59Z</time>
      </trkpt>
      <trkpt lat="49.43405" lon="5.79439">
        <ele>355.7</ele>
        <time>2021-07-28T05:50:01Z</time>
      </trkpt>
      <trkpt lat="49.43406" lon="5.79443">
        <ele>355.8</ele>
        <time>2021-07-28T05:50:02Z</time>
      </trkpt>
      <trkpt lat="49.43407" lon="5.79446">
        <ele>355.8</ele>
        <time>2021-07-28T05:50:03Z</time>
      </trkpt>
      <trkpt lat="49.4341" lon="5.79448">
        <ele>355.9</ele>
        <time>2021-07-28T05:50:05Z</time>
      </trkpt>
      <trkpt lat="49.43412" lon="5.79452">
        <ele>355.9</ele>
        <time>2021-07-28T05:50:06Z</time>
      </trkpt>
      <trkpt lat="49.43413" lon="5.79453">
        <ele>356</ele>
        <time>2021-07-28T05:50:07Z</time>
      </trkpt>
      <trkpt lat="49.43416" lon="5.79459">
        <ele>356</ele>
        <time>2021-07-28T05:50:09Z</time>
      </trkpt>
      <trkpt lat="49.43417" lon="5.79462">
        <ele>356</ele>
        <time>2021-07-28T05:50:10Z</time>
      </trkpt>
      <trkpt lat="49.43419" lon="5.79466">
        <ele>356.1</ele>
        <time>2021-07-28T05:50:11Z</time>
      </trkpt>
      <trkpt lat="49.43419" lon="5.79467">
        <ele>356.1</ele>
        <time>2021-07-28T05:50:12Z</time>
      </trkpt>
      <trkpt lat="49.43421" lon="5.79473">
        <ele>356.2</ele>
        <time>2021-07-28T05:50:14Z</time>
      </trkpt>
      <trkpt lat="49.43422" lon="5.79478">
        <ele>356.3</ele>
        <time>2021-07-28T05:50:16Z</time>
      </trkpt>
      <trkpt lat="49.43423" lon="5.79481">
        <ele>356.4</ele>
        <time>2021-07-28T05:50:17Z</time>
      </trkpt>
      <trkpt lat="49.43426" lon="5.79486">
        <ele>356.5</ele>
        <time>2021-07-28T05:50:19Z</time>
      </trkpt>
      <trkpt lat="49.43427" lon="5.79488">
        <ele>356.6</ele>
        <time>2021-07-28T05:50:20Z</time>
      </trkpt>
      <trkpt lat="49.4343" lon="5.79492">
        <ele>356.7</ele>
        <time>2021-07-28T05:50:22Z</time>
      </trkpt>
      <trkpt lat="49.43432" lon="5.79494">
        <ele>356.8</ele>
        <time>2021-07-28T05:50:23Z</time>
      </trkpt>
      <trkpt lat="49.43434" lon="5.79497">
        <ele>356.9</ele>
        <time>2021-07-28T05:50:25Z</time>
      </trkpt>
      <trkpt lat="49.43436" lon="5.795">
        <ele>357</ele>
        <time>2021-07-28T05:50:26Z</time>
      </trkpt>
      <trkpt lat="49.43437" lon="5.79502">
        <ele>357</ele>
        <time>2021-07-28T05:50:27Z</time>
      </trkpt>
      <trkpt lat="49.43438" lon="5.79505">
        <ele>357.1</ele>
        <time>2021-07-28T05:50:29Z</time>
      </trkpt>
      <trkpt lat="49.4344" lon="5.79508">
        <ele>357.2</ele>
        <time>2021-07-28T05:50:30Z</time>
      </trkpt>
      <trkpt lat="49.43441" lon="5.79509">
        <ele>357.2</ele>
        <time>2021-07-28T05:50:31Z</time>
      </trkpt>
      <trkpt lat="49.43444" lon="5.79511">
        <ele>357.4</ele>
        <time>2021-07-28T05:50:32Z</time>
      </trkpt>
      <trkpt lat="49.43445" lon="5.79512">
        <ele>357.4</ele>
        <time>2021-07-28T05:50:33Z</time>
      </trkpt>
      <trkpt lat="49.43449" lon="5.79515">
        <ele>357.6</ele>
        <time>2021-07-28T05:50:35Z</time>
      </trkpt>
      <trkpt lat="49.4345" lon="5.79516">
        <ele>357.7</ele>
        <time>2021-07-28T05:50:36Z</time>
      </trkpt>
      <trkpt lat="49.4345" lon="5.79518">
        <ele>357.7</ele>
        <time>2021-07-28T05:50:37Z</time>
      </trkpt>
      <trkpt lat="49.43451" lon="5.79519">
        <ele>357.8</ele>
        <time>2021-07-28T05:50:38Z</time>
      </trkpt>
      <trkpt lat="49.43453" lon="5.7952">
        <ele>357.9</ele>
        <time>2021-07-28T05:50:39Z</time>
      </trkpt>
      <trkpt lat="49.43455" lon="5.79521">
        <ele>358</ele>
        <time>2021-07-28T05:50:41Z</time>
      </trkpt>
      <trkpt lat="49.43457" lon="5.79521">
        <ele>358.2</ele>
        <time>2021-07-28T05:50:42Z</time>
      </trkpt>
      <trkpt lat="49.43459" lon="5.79522">
        <ele>358.3</ele>
        <time>2021-07-28T05:50:43Z</time>
      </trkpt>
      <trkpt lat="49.43459" lon="5.79523">
        <ele>358.3</ele>
        <time>2021-07-28T05:50:44Z</time>
      </trkpt>
      <trkpt lat="49.43462" lon="5.79525">
        <ele>358.5</ele>
        <time>2021-07-28T05:50:46Z</time>
      </trkpt>
      <trkpt lat="49.43464" lon="5.79529">
        <ele>358.7</ele>
        <time>2021-07-28T05:50:47Z</time>
      </trkpt>
      <trkpt lat="49.43464" lon="5.79531">
        <ele>358.8</ele>
        <time>2021-07-28T05:50:48Z</time>
      </trkpt>
      <trkpt lat="49.43466" lon="5.79538">
        <ele>359.1</ele>
        <time>2021-07-28T05:50:50Z</time>
      </trkpt>
      <trkpt lat="49.43466" lon="5.79539">
        <ele>359.2</ele>
        <time>2021-07-28T05:50:51Z</time>
      </trkpt>
      <trkpt lat="49.43467" lon="5.79541">
        <ele>359.2</ele>
        <time>2021-07-28T05:50:52Z</time>
      </trkpt>
      <trkpt lat="49.43467" lon="5.79543">
        <ele>359.3</ele>
        <time>2021-07-28T05:50:53Z</time>
      </trkpt>
      <trkpt lat="49.43468" lon="5.79545">
        <ele>359.4</ele>
        <time>2021-07-28T05:50:54Z</time>
      </trkpt>
      <trkpt lat="49.43469" lon="5.79548">
        <ele>359.5</ele>
        <time>2021-07-28T05:50:56Z</time>
      </trkpt>
      <trkpt lat="49.43471" lon="5.79549">
        <ele>359.6</ele>
        <time>2021-07-28T05:50:57Z</time>
      </trkpt>
      <trkpt lat="49.43472" lon="5.79551">
        <ele>359.7</ele>
        <time>2021-07-28T05:50:59Z</time>
      </trkpt>
      <trkpt lat="49.43474" lon="5.79554">
        <ele>359.9</ele>
        <time>2021-07-28T05:51:01Z</time>
      </trkpt>
      <trkpt lat="49.43477" lon="5.7956">
        <ele>360</ele>
        <time>2021-07-28T05:51:02Z</time>
      </trkpt>
      <trkpt lat="49.43478" lon="5.79562">
        <ele>360.1</ele>
        <time>2021-07-28T05:51:03Z</time>
      </trkpt>
      <trkpt lat="49.43482" lon="5.79567">
        <ele>360.3</ele>
        <time>2021-07-28T05:51:05Z</time>
      </trkpt>
      <trkpt lat="49.43484" lon="5.79569">
        <ele>360.4</ele>
        <time>2021-07-28T05:51:06Z</time>
      </trkpt>
      <trkpt lat="49.43486" lon="5.79572">
        <ele>360.5</ele>
        <time>2021-07-28T05:51:08Z</time>
      </trkpt>
      <trkpt lat="49.4349" lon="5.79574">
        <ele>360.6</ele>
        <time>2021-07-28T05:51:09Z</time>
      </trkpt>
      <trkpt lat="49.43491" lon="5.79577">
        <ele>360.7</ele>
        <time>2021-07-28T05:51:10Z</time>
      </trkpt>
      <trkpt lat="49.43492" lon="5.79581">
        <ele>360.8</ele>
        <time>2021-07-28T05:51:12Z</time>
      </trkpt>
      <trkpt lat="49.43493" lon="5.79585">
        <ele>360.9</ele>
        <time>2021-07-28T05:51:13Z</time>
      </trkpt>
      <trkpt lat="49.43494" lon="5.79588">
        <ele>360.9</ele>
        <time>2021-07-28T05:51:14Z</time>
      </trkpt>
      <trkpt lat="49.43497" lon="5.79593">
        <ele>361.1</ele>
        <time>2021-07-28T05:51:16Z</time>
      </trkpt>
      <trkpt lat="49.43498" lon="5.79597">
        <ele>361.1</ele>
        <time>2021-07-28T05:51:18Z</time>
      </trkpt>
      <trkpt lat="49.43498" lon="5.796">
        <ele>361.2</ele>
        <time>2021-07-28T05:51:19Z</time>
      </trkpt>
      <trkpt lat="49.43498" lon="5.79604">
        <ele>361.2</ele>
        <time>2021-07-28T05:51:21Z</time>
      </trkpt>
      <trkpt lat="49.43499" lon="5.79609">
        <ele>361.2</ele>
        <time>2021-07-28T05:51:22Z</time>
      </trkpt>
      <trkpt lat="49.43502" lon="5.79614">
        <ele>361.3</ele>
        <time>2021-07-28T05:51:24Z</time>
      </trkpt>
      <trkpt lat="49.43504" lon="5.79619">
        <ele>361.3</ele>
        <time>2021-07-28T05:51:25Z</time>
      </trkpt>
      <trkpt lat="49.43506" lon="5.79624">
        <ele>361.3</ele>
        <time>2021-07-28T05:51:27Z</time>
      </trkpt>
      <trkpt lat="49.43508" lon="5.79627">
        <ele>361.3</ele>
        <time>2021-07-28T05:51:28Z</time>
      </trkpt>
      <trkpt lat="49.4351" lon="5.79631">
        <ele>361.3</ele>
        <time>2021-07-28T05:51:30Z</time>
      </trkpt>
      <trkpt lat="49.43512" lon="5.79635">
        <ele>361.3</ele>
        <time>2021-07-28T05:51:31Z</time>
      </trkpt>
      <trkpt lat="49.43514" lon="5.7964">
        <ele>361.2</ele>
        <time>2021-07-28T05:51:33Z</time>
      </trkpt>
      <trkpt lat="49.43515" lon="5.79645">
        <ele>361.2</ele>
        <time>2021-07-28T05:51:35Z</time>
      </trkpt>
      <trkpt lat="49.43516" lon="5.79649">
        <ele>361.2</ele>
        <time>2021-07-28T05:51:36Z</time>
      </trkpt>
      <trkpt lat="49.43518" lon="5.79652">
        <ele>361.2</ele>
        <time>2021-07-28T05:51:37Z</time>
      </trkpt>
      <trkpt lat="49.4352" lon="5.79655">
        <ele>361.1</ele>
        <time>2021-07-28T05:51:39Z</time>
      </trkpt>
      <trkpt lat="49.43522" lon="5.7966">
        <ele>361.1</ele>
        <time>2021-07-28T05:51:40Z</time>
      </trkpt>
      <trkpt lat="49.43525" lon="5.79664">
        <ele>361.1</ele>
        <time>2021-07-28T05:51:42Z</time>
      </trkpt>
      <trkpt lat="49.43527" lon="5.79668">
        <ele>361.1</ele>
        <time>2021-07-28T05:51:43Z</time>
      </trkpt>
      <trkpt lat="49.43531" lon="5.79673">
        <ele>361.1</ele>
        <time>2021-07-28T05:51:45Z</time>
      </trkpt>
      <trkpt lat="49.43535" lon="5.79679">
        <ele>361</ele>
        <time>2021-07-28T05:51:47Z</time>
      </trkpt>
      <trkpt lat="49.43536" lon="5.79681">
        <ele>361</ele>
        <time>2021-07-28T05:51:48Z</time>
      </trkpt>
      <trkpt lat="49.43537" lon="5.79683">
        <ele>361</ele>
        <time>2021-07-28T05:51:49Z</time>
      </trkpt>
      <trkpt lat="49.43539" lon="5.79688">
        <ele>361.1</ele>
        <time>2021-07-28T05:51:50Z</time>
      </trkpt>
      <trkpt lat="49.4354" lon="5.7969">
        <ele>361.1</ele>
        <time>2021-07-28T05:51:51Z</time>
      </trkpt>
      <trkpt lat="49.43542" lon="5.79695">
        <ele>361.1</ele>
        <time>2021-07-28T05:51:52Z</time>
      </trkpt>
      <trkpt lat="49.43544" lon="5.79699">
        <ele>361.2</ele>
        <time>2021-07-28T05:51:53Z</time>
      </trkpt>
      <trkpt lat="49.43545" lon="5.79703">
        <ele>361.2</ele>
        <time>2021-07-28T05:51:54Z</time>
      </trkpt>
      <trkpt lat="49.43547" lon="5.79709">
        <ele>361.2</ele>
        <time>2021-07-28T05:51:56Z</time>
      </trkpt>
      <trkpt lat="49.43549" lon="5.79715">
        <ele>361.3</ele>
        <time>2021-07-28T05:51:57Z</time>
      </trkpt>
      <trkpt lat="49.4355" lon="5.7972">
        <ele>361.3</ele>
        <time>2021-07-28T05:51:58Z</time>
      </trkpt>
      <trkpt lat="49.43551" lon="5.7973">
        <ele>361.3</ele>
        <time>2021-07-28T05:52:00Z</time>
      </trkpt>
      <trkpt lat="49.43554" lon="5.79739">
        <ele>361.4</ele>
        <time>2021-07-28T05:52:02Z</time>
      </trkpt>
      <trkpt lat="49.43555" lon="5.79747">
        <ele>361.4</ele>
        <time>2021-07-28T05:52:04Z</time>
      </trkpt>
      <trkpt lat="49.43557" lon="5.79752">
        <ele>361.4</ele>
        <time>2021-07-28T05:52:05Z</time>
      </trkpt>
      <trkpt lat="49.43559" lon="5.79757">
        <ele>361.5</ele>
        <time>2021-07-28T05:52:06Z</time>
      </trkpt>
      <trkpt lat="49.43561" lon="5.79762">
        <ele>361.5</ele>
        <time>2021-07-28T05:52:08Z</time>
      </trkpt>
      <trkpt lat="49.43562" lon="5.79768">
        <ele>361.5</ele>
        <time>2021-07-28T05:52:09Z</time>
      </trkpt>
      <trkpt lat="49.43563" lon="5.79772">
        <ele>361.5</ele>
        <time>2021-07-28T05:52:10Z</time>
      </trkpt>
      <trkpt lat="49.43566" lon="5.79779">
        <ele>361.5</ele>
        <time>2021-07-28T05:52:12Z</time>
      </trkpt>
      <trkpt lat="49.43567" lon="5.79782">
        <ele>361.5</ele>
        <time>2021-07-28T05:52:13Z</time>
      </trkpt>
      <trkpt lat="49.43568" lon="5.79784">
        <ele>361.5</ele>
        <time>2021-07-28T05:52:14Z</time>
      </trkpt>
      <trkpt lat="49.4357" lon="5.79788">
        <ele>361.5</ele>
        <time>2021-07-28T05:52:15Z</time>
      </trkpt>
      <trkpt lat="49.43572" lon="5.79793">
        <ele>361.6</ele>
        <time>2021-07-28T05:52:16Z</time>
      </trkpt>
      <trkpt lat="49.43573" lon="5.79797">
        <ele>361.6</ele>
        <time>2021-07-28T05:52:17Z</time>
      </trkpt>
      <trkpt lat="49.43575" lon="5.79801">
        <ele>361.7</ele>
        <time>2021-07-28T05:52:18Z</time>
      </trkpt>
      <trkpt lat="49.43578" lon="5.79806">
        <ele>361.7</ele>
        <time>2021-07-28T05:52:20Z</time>
      </trkpt>
      <trkpt lat="49.4358" lon="5.79813">
        <ele>361.8</ele>
        <time>2021-07-28T05:52:21Z</time>
      </trkpt>
      <trkpt lat="49.43582" lon="5.79819">
        <ele>361.9</ele>
        <time>2021-07-28T05:52:23Z</time>
      </trkpt>
      <trkpt lat="49.43583" lon="5.79823">
        <ele>361.9</ele>
        <time>2021-07-28T05:52:24Z</time>
      </trkpt>
      <trkpt lat="49.43586" lon="5.79831">
        <ele>362</ele>
        <time>2021-07-28T05:52:25Z</time>
      </trkpt>
      <trkpt lat="49.43589" lon="5.79837">
        <ele>362.1</ele>
        <time>2021-07-28T05:52:27Z</time>
      </trkpt>
      <trkpt lat="49.43591" lon="5.79842">
        <ele>362.2</ele>
        <time>2021-07-28T05:52:28Z</time>
      </trkpt>
      <trkpt lat="49.43594" lon="5.7985">
        <ele>362.2</ele>
        <time>2021-07-28T05:52:30Z</time>
      </trkpt>
      <trkpt lat="49.43595" lon="5.79854">
        <ele>362.2</ele>
        <time>2021-07-28T05:52:31Z</time>
      </trkpt>
      <trkpt lat="49.43598" lon="5.79861">
        <ele>362.2</ele>
        <time>2021-07-28T05:52:33Z</time>
      </trkpt>
      <trkpt lat="49.43599" lon="5.79866">
        <ele>362.2</ele>
        <time>2021-07-28T05:52:34Z</time>
      </trkpt>
      <trkpt lat="49.43601" lon="5.79874">
        <ele>362.2</ele>
        <time>2021-07-28T05:52:36Z</time>
      </trkpt>
      <trkpt lat="49.43602" lon="5.79879">
        <ele>362.3</ele>
        <time>2021-07-28T05:52:37Z</time>
      </trkpt>
      <trkpt lat="49.43604" lon="5.79883">
        <ele>362.3</ele>
        <time>2021-07-28T05:52:38Z</time>
      </trkpt>
      <trkpt lat="49.43609" lon="5.7989">
        <ele>362.4</ele>
        <time>2021-07-28T05:52:40Z</time>
      </trkpt>
      <trkpt lat="49.4361" lon="5.79895">
        <ele>362.4</ele>
        <time>2021-07-28T05:52:41Z</time>
      </trkpt>
      <trkpt lat="49.43614" lon="5.79904">
        <ele>362.5</ele>
        <time>2021-07-28T05:52:43Z</time>
      </trkpt>
      <trkpt lat="49.43617" lon="5.79913">
        <ele>362.6</ele>
        <time>2021-07-28T05:52:45Z</time>
      </trkpt>
      <trkpt lat="49.43619" lon="5.79922">
        <ele>362.6</ele>
        <time>2021-07-28T05:52:47Z</time>
      </trkpt>
      <trkpt lat="49.43622" lon="5.79931">
        <ele>362.6</ele>
        <time>2021-07-28T05:52:49Z</time>
      </trkpt>
      <trkpt lat="49.43623" lon="5.79936">
        <ele>362.6</ele>
        <time>2021-07-28T05:52:50Z</time>
      </trkpt>
      <trkpt lat="49.43624" lon="5.79941">
        <ele>362.6</ele>
        <time>2021-07-28T05:52:51Z</time>
      </trkpt>
      <trkpt lat="49.43625" lon="5.79945">
        <ele>362.6</ele>
        <time>2021-07-28T05:52:52Z</time>
      </trkpt>
      <trkpt lat="49.43626" lon="5.79951">
        <ele>362.6</ele>
        <time>2021-07-28T05:52:53Z</time>
      </trkpt>
      <trkpt lat="49.43626" lon="5.79953">
        <ele>362.6</ele>
        <time>2021-07-28T05:52:54Z</time>
      </trkpt>
      <trkpt lat="49.43628" lon="5.7996">
        <ele>362.6</ele>
        <time>2021-07-28T05:52:56Z</time>
      </trkpt>
      <trkpt lat="49.4363" lon="5.79967">
        <ele>362.6</ele>
        <time>2021-07-28T05:52:57Z</time>
      </trkpt>
      <trkpt lat="49.43631" lon="5.79971">
        <ele>362.6</ele>
        <time>2021-07-28T05:52:58Z</time>
      </trkpt>
      <trkpt lat="49.43632" lon="5.79975">
        <ele>362.7</ele>
        <time>2021-07-28T05:52:59Z</time>
      </trkpt>
      <trkpt lat="49.43633" lon="5.79977">
        <ele>362.7</ele>
        <time>2021-07-28T05:53:00Z</time>
      </trkpt>
      <trkpt lat="49.43635" lon="5.79985">
        <ele>362.7</ele>
        <time>2021-07-28T05:53:02Z</time>
      </trkpt>
      <trkpt lat="49.43636" lon="5.79991">
        <ele>362.8</ele>
        <time>2021-07-28T05:53:04Z</time>
      </trkpt>
      <trkpt lat="49.43637" lon="5.79995">
        <ele>362.8</ele>
        <time>2021-07-28T05:53:05Z</time>
      </trkpt>
      <trkpt lat="49.4364" lon="5.80001">
        <ele>362.9</ele>
        <time>2021-07-28T05:53:07Z</time>
      </trkpt>
      <trkpt lat="49.43642" lon="5.80006">
        <ele>362.9</ele>
        <time>2021-07-28T05:53:09Z</time>
      </trkpt>
      <trkpt lat="49.43644" lon="5.80009">
        <ele>362.9</ele>
        <time>2021-07-28T05:53:10Z</time>
      </trkpt>
      <trkpt lat="49.43647" lon="5.80013">
        <ele>362.9</ele>
        <time>2021-07-28T05:53:11Z</time>
      </trkpt>
      <trkpt lat="49.43648" lon="5.80014">
        <ele>362.9</ele>
        <time>2021-07-28T05:53:12Z</time>
      </trkpt>
      <trkpt lat="49.4365" lon="5.80017">
        <ele>362.9</ele>
        <time>2021-07-28T05:53:13Z</time>
      </trkpt>
      <trkpt lat="49.43653" lon="5.80021">
        <ele>362.9</ele>
        <time>2021-07-28T05:53:14Z</time>
      </trkpt>
      <trkpt lat="49.43654" lon="5.80023">
        <ele>362.9</ele>
        <time>2021-07-28T05:53:15Z</time>
      </trkpt>
      <trkpt lat="49.43657" lon="5.80026">
        <ele>362.9</ele>
        <time>2021-07-28T05:53:16Z</time>
      </trkpt>
      <trkpt lat="49.43659" lon="5.8003">
        <ele>362.9</ele>
        <time>2021-07-28T05:53:17Z</time>
      </trkpt>
      <trkpt lat="49.43663" lon="5.80033">
        <ele>362.8</ele>
        <time>2021-07-28T05:53:19Z</time>
      </trkpt>
      <trkpt lat="49.43667" lon="5.80039">
        <ele>362.8</ele>
        <time>2021-07-28T05:53:20Z</time>
      </trkpt>
      <trkpt lat="49.4367" lon="5.80042">
        <ele>362.8</ele>
        <time>2021-07-28T05:53:21Z</time>
      </trkpt>
      <trkpt lat="49.43675" lon="5.80048">
        <ele>362.7</ele>
        <time>2021-07-28T05:53:23Z</time>
      </trkpt>
      <trkpt lat="49.43678" lon="5.80053">
        <ele>362.7</ele>
        <time>2021-07-28T05:53:25Z</time>
      </trkpt>
      <trkpt lat="49.43681" lon="5.80057">
        <ele>362.7</ele>
        <time>2021-07-28T05:53:26Z</time>
      </trkpt>
      <trkpt lat="49.43685" lon="5.80061">
        <ele>362.7</ele>
        <time>2021-07-28T05:53:27Z</time>
      </trkpt>
      <trkpt lat="49.43688" lon="5.80063">
        <ele>362.7</ele>
        <time>2021-07-28T05:53:28Z</time>
      </trkpt>
      <trkpt lat="49.43693" lon="5.80065">
        <ele>362.7</ele>
        <time>2021-07-28T05:53:29Z</time>
      </trkpt>
      <trkpt lat="49.43697" lon="5.80067">
        <ele>362.6</ele>
        <time>2021-07-28T05:53:30Z</time>
      </trkpt>
      <trkpt lat="49.43706" lon="5.8007">
        <ele>362.5</ele>
        <time>2021-07-28T05:53:32Z</time>
      </trkpt>
      <trkpt lat="49.4371" lon="5.80071">
        <ele>362.4</ele>
        <time>2021-07-28T05:53:34Z</time>
      </trkpt>
      <trkpt lat="49.43718" lon="5.80073">
        <ele>362.3</ele>
        <time>2021-07-28T05:53:35Z</time>
      </trkpt>
      <trkpt lat="49.43724" lon="5.80074">
        <ele>362.1</ele>
        <time>2021-07-28T05:53:36Z</time>
      </trkpt>
      <trkpt lat="49.43736" lon="5.80077">
        <ele>361.9</ele>
        <time>2021-07-28T05:53:39Z</time>
      </trkpt>
      <trkpt lat="49.43747" lon="5.8008">
        <ele>361.6</ele>
        <time>2021-07-28T05:53:40Z</time>
      </trkpt>
      <trkpt lat="49.43752" lon="5.80082">
        <ele>361.5</ele>
        <time>2021-07-28T05:53:41Z</time>
      </trkpt>
      <trkpt lat="49.43758" lon="5.80083">
        <ele>361.4</ele>
        <time>2021-07-28T05:53:42Z</time>
      </trkpt>
      <trkpt lat="49.43769" lon="5.80086">
        <ele>361.1</ele>
        <time>2021-07-28T05:53:44Z</time>
      </trkpt>
      <trkpt lat="49.43781" lon="5.8009">
        <ele>360.8</ele>
        <time>2021-07-28T05:53:46Z</time>
      </trkpt>
      <trkpt lat="49.43793" lon="5.80094">
        <ele>360.4</ele>
        <time>2021-07-28T05:53:48Z</time>
      </trkpt>
      <trkpt lat="49.43805" lon="5.80099">
        <ele>360</ele>
        <time>2021-07-28T05:53:50Z</time>
      </trkpt>
      <trkpt lat="49.43817" lon="5.80106">
        <ele>359.8</ele>
        <time>2021-07-28T05:53:52Z</time>
      </trkpt>
      <trkpt lat="49.43829" lon="5.80111">
        <ele>359.5</ele>
        <time>2021-07-28T05:53:54Z</time>
      </trkpt>
      <trkpt lat="49.43841" lon="5.80116">
        <ele>359.3</ele>
        <time>2021-07-28T05:53:56Z</time>
      </trkpt>
      <trkpt lat="49.43852" lon="5.80121">
        <ele>359.1</ele>
        <time>2021-07-28T05:53:58Z</time>
      </trkpt>
      <trkpt lat="49.43858" lon="5.80124">
        <ele>359.1</ele>
        <time>2021-07-28T05:53:59Z</time>
      </trkpt>
      <trkpt lat="49.43863" lon="5.80126">
        <ele>359.1</ele>
        <time>2021-07-28T05:54:00Z</time>
      </trkpt>
      <trkpt lat="49.43873" lon="5.80133">
        <ele>358.9</ele>
        <time>2021-07-28T05:54:02Z</time>
      </trkpt>
      <trkpt lat="49.43878" lon="5.80137">
        <ele>358.9</ele>
        <time>2021-07-28T05:54:03Z</time>
      </trkpt>
      <trkpt lat="49.43883" lon="5.80142">
        <ele>358.8</ele>
        <time>2021-07-28T05:54:04Z</time>
      </trkpt>
      <trkpt lat="49.43887" lon="5.80146">
        <ele>358.7</ele>
        <time>2021-07-28T05:54:05Z</time>
      </trkpt>
      <trkpt lat="49.43891" lon="5.80151">
        <ele>358.7</ele>
        <time>2021-07-28T05:54:06Z</time>
      </trkpt>
      <trkpt lat="49.43899" lon="5.8016">
        <ele>358.6</ele>
        <time>2021-07-28T05:54:08Z</time>
      </trkpt>
      <trkpt lat="49.43905" lon="5.80167">
        <ele>358.6</ele>
        <time>2021-07-28T05:54:10Z</time>
      </trkpt>
      <trkpt lat="49.43914" lon="5.80177">
        <ele>358.5</ele>
        <time>2021-07-28T05:54:12Z</time>
      </trkpt>
      <trkpt lat="49.43919" lon="5.80182">
        <ele>358.6</ele>
        <time>2021-07-28T05:54:13Z</time>
      </trkpt>
      <trkpt lat="49.43923" lon="5.80187">
        <ele>358.6</ele>
        <time>2021-07-28T05:54:14Z</time>
      </trkpt>
      <trkpt lat="49.43932" lon="5.80195">
        <ele>358.7</ele>
        <time>2021-07-28T05:54:16Z</time>
      </trkpt>
      <trkpt lat="49.43941" lon="5.80204">
        <ele>358.7</ele>
        <time>2021-07-28T05:54:18Z</time>
      </trkpt>
      <trkpt lat="49.43949" lon="5.80212">
        <ele>358.8</ele>
        <time>2021-07-28T05:54:20Z</time>
      </trkpt>
      <trkpt lat="49.43959" lon="5.8022">
        <ele>358.8</ele>
        <time>2021-07-28T05:54:22Z</time>
      </trkpt>
      <trkpt lat="49.43963" lon="5.80223">
        <ele>358.9</ele>
        <time>2021-07-28T05:54:23Z</time>
      </trkpt>
      <trkpt lat="49.43972" lon="5.80231">
        <ele>358.9</ele>
        <time>2021-07-28T05:54:25Z</time>
      </trkpt>
      <trkpt lat="49.43976" lon="5.80236">
        <ele>359</ele>
        <time>2021-07-28T05:54:26Z</time>
      </trkpt>
      <trkpt lat="49.43983" lon="5.80244">
        <ele>359.1</ele>
        <time>2021-07-28T05:54:28Z</time>
      </trkpt>
      <trkpt lat="49.43986" lon="5.80248">
        <ele>359.2</ele>
        <time>2021-07-28T05:54:29Z</time>
      </trkpt>
      <trkpt lat="49.43991" lon="5.80252">
        <ele>359.3</ele>
        <time>2021-07-28T05:54:30Z</time>
      </trkpt>
      <trkpt lat="49.43999" lon="5.80258">
        <ele>359.4</ele>
        <time>2021-07-28T05:54:32Z</time>
      </trkpt>
      <trkpt lat="49.44002" lon="5.80261">
        <ele>359.5</ele>
        <time>2021-07-28T05:54:34Z</time>
      </trkpt>
      <trkpt lat="49.44007" lon="5.80267">
        <ele>359.6</ele>
        <time>2021-07-28T05:54:35Z</time>
      </trkpt>
      <trkpt lat="49.44013" lon="5.80272">
        <ele>359.7</ele>
        <time>2021-07-28T05:54:36Z</time>
      </trkpt>
      <trkpt lat="49.44026" lon="5.80279">
        <ele>359.8</ele>
        <time>2021-07-28T05:54:38Z</time>
      </trkpt>
      <trkpt lat="49.44035" lon="5.80287">
        <ele>359.9</ele>
        <time>2021-07-28T05:54:40Z</time>
      </trkpt>
      <trkpt lat="49.44044" lon="5.80294">
        <ele>360</ele>
        <time>2021-07-28T05:54:43Z</time>
      </trkpt>
      <trkpt lat="49.44049" lon="5.80299">
        <ele>360.1</ele>
        <time>2021-07-28T05:54:44Z</time>
      </trkpt>
      <trkpt lat="49.44054" lon="5.80303">
        <ele>360.2</ele>
        <time>2021-07-28T05:54:45Z</time>
      </trkpt>
      <trkpt lat="49.44064" lon="5.80314">
        <ele>360.4</ele>
        <time>2021-07-28T05:54:48Z</time>
      </trkpt>
      <trkpt lat="49.44072" lon="5.80321">
        <ele>360.6</ele>
        <time>2021-07-28T05:54:51Z</time>
      </trkpt>
      <trkpt lat="49.44078" lon="5.80332">
        <ele>360.8</ele>
        <time>2021-07-28T05:54:52Z</time>
      </trkpt>
      <trkpt lat="49.44083" lon="5.80336">
        <ele>360.9</ele>
        <time>2021-07-28T05:54:53Z</time>
      </trkpt>
      <trkpt lat="49.44087" lon="5.80341">
        <ele>361.1</ele>
        <time>2021-07-28T05:54:54Z</time>
      </trkpt>
      <trkpt lat="49.44094" lon="5.80349">
        <ele>361.2</ele>
        <time>2021-07-28T05:54:56Z</time>
      </trkpt>
      <trkpt lat="49.44102" lon="5.80357">
        <ele>361.4</ele>
        <time>2021-07-28T05:54:58Z</time>
      </trkpt>
      <trkpt lat="49.44107" lon="5.8036">
        <ele>361.5</ele>
        <time>2021-07-28T05:54:59Z</time>
      </trkpt>
      <trkpt lat="49.44111" lon="5.80364">
        <ele>361.5</ele>
        <time>2021-07-28T05:55:00Z</time>
      </trkpt>
      <trkpt lat="49.44117" lon="5.80368">
        <ele>361.7</ele>
        <time>2021-07-28T05:55:02Z</time>
      </trkpt>
      <trkpt lat="49.44121" lon="5.80368">
        <ele>361.7</ele>
        <time>2021-07-28T05:55:04Z</time>
      </trkpt>
      <trkpt lat="49.44127" lon="5.80376">
        <ele>361.8</ele>
        <time>2021-07-28T05:55:05Z</time>
      </trkpt>
      <trkpt lat="49.4413" lon="5.80382">
        <ele>361.9</ele>
        <time>2021-07-28T05:55:06Z</time>
      </trkpt>
      <trkpt lat="49.44136" lon="5.80392">
        <ele>361.9</ele>
        <time>2021-07-28T05:55:08Z</time>
      </trkpt>
      <trkpt lat="49.44142" lon="5.80401">
        <ele>362</ele>
        <time>2021-07-28T05:55:10Z</time>
      </trkpt>
      <trkpt lat="49.44147" lon="5.80407">
        <ele>362.1</ele>
        <time>2021-07-28T05:55:11Z</time>
      </trkpt>
      <trkpt lat="49.44151" lon="5.80411">
        <ele>362.2</ele>
        <time>2021-07-28T05:55:12Z</time>
      </trkpt>
      <trkpt lat="49.44156" lon="5.80414">
        <ele>362.2</ele>
        <time>2021-07-28T05:55:14Z</time>
      </trkpt>
      <trkpt lat="49.44162" lon="5.80417">
        <ele>362.3</ele>
        <time>2021-07-28T05:55:15Z</time>
      </trkpt>
      <trkpt lat="49.4417" lon="5.80419">
        <ele>362.6</ele>
        <time>2021-07-28T05:55:17Z</time>
      </trkpt>
      <trkpt lat="49.44176" lon="5.8042">
        <ele>362.8</ele>
        <time>2021-07-28T05:55:19Z</time>
      </trkpt>
      <trkpt lat="49.44179" lon="5.80422">
        <ele>363</ele>
        <time>2021-07-28T05:55:20Z</time>
      </trkpt>
      <trkpt lat="49.44183" lon="5.80425">
        <ele>363.3</ele>
        <time>2021-07-28T05:55:21Z</time>
      </trkpt>
      <trkpt lat="49.44187" lon="5.80428">
        <ele>363.5</ele>
        <time>2021-07-28T05:55:23Z</time>
      </trkpt>
      <trkpt lat="49.44191" lon="5.80431">
        <ele>363.7</ele>
        <time>2021-07-28T05:55:24Z</time>
      </trkpt>
      <trkpt lat="49.44194" lon="5.80434">
        <ele>363.9</ele>
        <time>2021-07-28T05:55:26Z</time>
      </trkpt>
      <trkpt lat="49.44199" lon="5.80438">
        <ele>364.1</ele>
        <time>2021-07-28T05:55:27Z</time>
      </trkpt>
      <trkpt lat="49.44202" lon="5.80441">
        <ele>364.3</ele>
        <time>2021-07-28T05:55:28Z</time>
      </trkpt>
      <trkpt lat="49.44208" lon="5.80448">
        <ele>364.5</ele>
        <time>2021-07-28T05:55:30Z</time>
      </trkpt>
      <trkpt lat="49.44211" lon="5.80456">
        <ele>364.6</ele>
        <time>2021-07-28T05:55:32Z</time>
      </trkpt>
      <trkpt lat="49.44216" lon="5.80466">
        <ele>364.9</ele>
        <time>2021-07-28T05:55:34Z</time>
      </trkpt>
      <trkpt lat="49.44219" lon="5.80473">
        <ele>365</ele>
        <time>2021-07-28T05:55:36Z</time>
      </trkpt>
      <trkpt lat="49.4422" lon="5.80479">
        <ele>365.2</ele>
        <time>2021-07-28T05:55:37Z</time>
      </trkpt>
      <trkpt lat="49.44221" lon="5.80486">
        <ele>365.3</ele>
        <time>2021-07-28T05:55:39Z</time>
      </trkpt>
      <trkpt lat="49.44221" lon="5.80494">
        <ele>365.4</ele>
        <time>2021-07-28T05:55:40Z</time>
      </trkpt>
      <trkpt lat="49.44221" lon="5.80504">
        <ele>365.6</ele>
        <time>2021-07-28T05:55:41Z</time>
      </trkpt>
      <trkpt lat="49.44221" lon="5.8051">
        <ele>365.6</ele>
        <time>2021-07-28T05:55:42Z</time>
      </trkpt>
      <trkpt lat="49.44222" lon="5.8052">
        <ele>365.8</ele>
        <time>2021-07-28T05:55:44Z</time>
      </trkpt>
      <trkpt lat="49.44223" lon="5.80526">
        <ele>365.8</ele>
        <time>2021-07-28T05:55:45Z</time>
      </trkpt>
      <trkpt lat="49.44225" lon="5.80531">
        <ele>365.9</ele>
        <time>2021-07-28T05:55:46Z</time>
      </trkpt>
      <trkpt lat="49.44227" lon="5.80536">
        <ele>366</ele>
        <time>2021-07-28T05:55:47Z</time>
      </trkpt>
      <trkpt lat="49.4423" lon="5.80545">
        <ele>366.1</ele>
        <time>2021-07-28T05:55:49Z</time>
      </trkpt>
      <trkpt lat="49.44233" lon="5.8055">
        <ele>366.2</ele>
        <time>2021-07-28T05:55:50Z</time>
      </trkpt>
      <trkpt lat="49.44235" lon="5.80555">
        <ele>366.2</ele>
        <time>2021-07-28T05:55:51Z</time>
      </trkpt>
      <trkpt lat="49.44236" lon="5.80561">
        <ele>366.3</ele>
        <time>2021-07-28T05:55:52Z</time>
      </trkpt>
      <trkpt lat="49.44237" lon="5.80567">
        <ele>366.4</ele>
        <time>2021-07-28T05:55:53Z</time>
      </trkpt>
      <trkpt lat="49.44238" lon="5.80572">
        <ele>366.4</ele>
        <time>2021-07-28T05:55:54Z</time>
      </trkpt>
      <trkpt lat="49.4424" lon="5.80578">
        <ele>366.5</ele>
        <time>2021-07-28T05:55:55Z</time>
      </trkpt>
      <trkpt lat="49.44242" lon="5.80583">
        <ele>366.6</ele>
        <time>2021-07-28T05:55:56Z</time>
      </trkpt>
      <trkpt lat="49.44245" lon="5.80589">
        <ele>366.7</ele>
        <time>2021-07-28T05:55:57Z</time>
      </trkpt>
      <trkpt lat="49.44247" lon="5.80594">
        <ele>366.8</ele>
        <time>2021-07-28T05:55:58Z</time>
      </trkpt>
      <trkpt lat="49.44248" lon="5.806">
        <ele>366.9</ele>
        <time>2021-07-28T05:55:59Z</time>
      </trkpt>
      <trkpt lat="49.4425" lon="5.80606">
        <ele>367</ele>
        <time>2021-07-28T05:56:00Z</time>
      </trkpt>
      <trkpt lat="49.44252" lon="5.80617">
        <ele>367.3</ele>
        <time>2021-07-28T05:56:02Z</time>
      </trkpt>
      <trkpt lat="49.44254" lon="5.80626">
        <ele>367.5</ele>
        <time>2021-07-28T05:56:04Z</time>
      </trkpt>
      <trkpt lat="49.44256" lon="5.80636">
        <ele>367.7</ele>
        <time>2021-07-28T05:56:06Z</time>
      </trkpt>
      <trkpt lat="49.44257" lon="5.80643">
        <ele>367.9</ele>
        <time>2021-07-28T05:56:07Z</time>
      </trkpt>
      <trkpt lat="49.44259" lon="5.80647">
        <ele>368</ele>
        <time>2021-07-28T05:56:09Z</time>
      </trkpt>
      <trkpt lat="49.4426" lon="5.80655">
        <ele>368.2</ele>
        <time>2021-07-28T05:56:10Z</time>
      </trkpt>
      <trkpt lat="49.44261" lon="5.80659">
        <ele>368.3</ele>
        <time>2021-07-28T05:56:11Z</time>
      </trkpt>
      <trkpt lat="49.44262" lon="5.80663">
        <ele>368.4</ele>
        <time>2021-07-28T05:56:12Z</time>
      </trkpt>
      <trkpt lat="49.44264" lon="5.80667">
        <ele>368.5</ele>
        <time>2021-07-28T05:56:13Z</time>
      </trkpt>
      <trkpt lat="49.44266" lon="5.80671">
        <ele>368.6</ele>
        <time>2021-07-28T05:56:14Z</time>
      </trkpt>
      <trkpt lat="49.4427" lon="5.80678">
        <ele>368.8</ele>
        <time>2021-07-28T05:56:16Z</time>
      </trkpt>
      <trkpt lat="49.44273" lon="5.80684">
        <ele>369</ele>
        <time>2021-07-28T05:56:17Z</time>
      </trkpt>
      <trkpt lat="49.44277" lon="5.8069">
        <ele>369.2</ele>
        <time>2021-07-28T05:56:19Z</time>
      </trkpt>
      <trkpt lat="49.4428" lon="5.80694">
        <ele>369.3</ele>
        <time>2021-07-28T05:56:20Z</time>
      </trkpt>
      <trkpt lat="49.44282" lon="5.80699">
        <ele>369.4</ele>
        <time>2021-07-28T05:56:22Z</time>
      </trkpt>
      <trkpt lat="49.44283" lon="5.80706">
        <ele>369.6</ele>
        <time>2021-07-28T05:56:23Z</time>
      </trkpt>
      <trkpt lat="49.44285" lon="5.80713">
        <ele>369.7</ele>
        <time>2021-07-28T05:56:25Z</time>
      </trkpt>
      <trkpt lat="49.44286" lon="5.80718">
        <ele>369.8</ele>
        <time>2021-07-28T05:56:26Z</time>
      </trkpt>
      <trkpt lat="49.44288" lon="5.80724">
        <ele>370</ele>
        <time>2021-07-28T05:56:28Z</time>
      </trkpt>
      <trkpt lat="49.44291" lon="5.80729">
        <ele>370.2</ele>
        <time>2021-07-28T05:56:29Z</time>
      </trkpt>
      <trkpt lat="49.44294" lon="5.80733">
        <ele>370.3</ele>
        <time>2021-07-28T05:56:31Z</time>
      </trkpt>
      <trkpt lat="49.44298" lon="5.80739">
        <ele>370.5</ele>
        <time>2021-07-28T05:56:32Z</time>
      </trkpt>
      <trkpt lat="49.443" lon="5.80742">
        <ele>370.6</ele>
        <time>2021-07-28T05:56:33Z</time>
      </trkpt>
      <trkpt lat="49.44304" lon="5.80746">
        <ele>370.7</ele>
        <time>2021-07-28T05:56:34Z</time>
      </trkpt>
      <trkpt lat="49.44306" lon="5.8075">
        <ele>370.8</ele>
        <time>2021-07-28T05:56:35Z</time>
      </trkpt>
      <trkpt lat="49.44308" lon="5.80752">
        <ele>370.8</ele>
        <time>2021-07-28T05:56:36Z</time>
      </trkpt>
      <trkpt lat="49.44311" lon="5.80755">
        <ele>370.8</ele>
        <time>2021-07-28T05:56:38Z</time>
      </trkpt>
      <trkpt lat="49.44315" lon="5.80757">
        <ele>370.8</ele>
        <time>2021-07-28T05:56:39Z</time>
      </trkpt>
      <trkpt lat="49.44316" lon="5.80758">
        <ele>370.9</ele>
        <time>2021-07-28T05:56:40Z</time>
      </trkpt>
      <trkpt lat="49.44318" lon="5.80761">
        <ele>370.9</ele>
        <time>2021-07-28T05:56:41Z</time>
      </trkpt>
      <trkpt lat="49.44321" lon="5.80763">
        <ele>370.9</ele>
        <time>2021-07-28T05:56:42Z</time>
      </trkpt>
      <trkpt lat="49.44324" lon="5.80766">
        <ele>370.8</ele>
        <time>2021-07-28T05:56:43Z</time>
      </trkpt>
      <trkpt lat="49.44326" lon="5.80768">
        <ele>370.8</ele>
        <time>2021-07-28T05:56:44Z</time>
      </trkpt>
      <trkpt lat="49.44329" lon="5.80771">
        <ele>370.8</ele>
        <time>2021-07-28T05:56:45Z</time>
      </trkpt>
      <trkpt lat="49.44332" lon="5.80775">
        <ele>370.8</ele>
        <time>2021-07-28T05:56:46Z</time>
      </trkpt>
      <trkpt lat="49.44335" lon="5.8078">
        <ele>370.8</ele>
        <time>2021-07-28T05:56:47Z</time>
      </trkpt>
      <trkpt lat="49.44338" lon="5.80785">
        <ele>370.8</ele>
        <time>2021-07-28T05:56:48Z</time>
      </trkpt>
      <trkpt lat="49.44344" lon="5.80796">
        <ele>370.8</ele>
        <time>2021-07-28T05:56:51Z</time>
      </trkpt>
      <trkpt lat="49.44347" lon="5.80814">
        <ele>371</ele>
        <time>2021-07-28T05:56:53Z</time>
      </trkpt>
      <trkpt lat="49.44347" lon="5.80821">
        <ele>371</ele>
        <time>2021-07-28T05:56:55Z</time>
      </trkpt>
      <trkpt lat="49.44351" lon="5.80833">
        <ele>371.2</ele>
        <time>2021-07-28T05:56:57Z</time>
      </trkpt>
      <trkpt lat="49.44352" lon="5.80839">
        <ele>371</ele>
        <time>2021-07-28T05:56:58Z</time>
      </trkpt>
      <trkpt lat="49.44352" lon="5.80843">
        <ele>370.9</ele>
        <time>2021-07-28T05:56:59Z</time>
      </trkpt>
      <trkpt lat="49.44354" lon="5.80853">
        <ele>370.4</ele>
        <time>2021-07-28T05:57:00Z</time>
      </trkpt>
      <trkpt lat="49.44355" lon="5.80861">
        <ele>370.1</ele>
        <time>2021-07-28T05:57:01Z</time>
      </trkpt>
      <trkpt lat="49.44356" lon="5.80868">
        <ele>369.8</ele>
        <time>2021-07-28T05:57:02Z</time>
      </trkpt>
      <trkpt lat="49.44355" lon="5.80882">
        <ele>369.1</ele>
        <time>2021-07-28T05:57:04Z</time>
      </trkpt>
      <trkpt lat="49.44355" lon="5.8089">
        <ele>368.8</ele>
        <time>2021-07-28T05:57:05Z</time>
      </trkpt>
      <trkpt lat="49.44356" lon="5.80899">
        <ele>368.5</ele>
        <time>2021-07-28T05:57:07Z</time>
      </trkpt>
      <trkpt lat="49.44357" lon="5.80908">
        <ele>368.1</ele>
        <time>2021-07-28T05:57:08Z</time>
      </trkpt>
      <trkpt lat="49.44357" lon="5.80914">
        <ele>367.9</ele>
        <time>2021-07-28T05:57:09Z</time>
      </trkpt>
      <trkpt lat="49.44358" lon="5.80922">
        <ele>367.6</ele>
        <time>2021-07-28T05:57:11Z</time>
      </trkpt>
      <trkpt lat="49.44359" lon="5.80932">
        <ele>367.4</ele>
        <time>2021-07-28T05:57:12Z</time>
      </trkpt>
      <trkpt lat="49.44361" lon="5.80944">
        <ele>367.3</ele>
        <time>2021-07-28T05:57:14Z</time>
      </trkpt>
      <trkpt lat="49.44362" lon="5.80955">
        <ele>367.2</ele>
        <time>2021-07-28T05:57:16Z</time>
      </trkpt>
      <trkpt lat="49.44362" lon="5.80961">
        <ele>367.2</ele>
        <time>2021-07-28T05:57:17Z</time>
      </trkpt>
      <trkpt lat="49.44362" lon="5.8097">
        <ele>367.1</ele>
        <time>2021-07-28T05:57:18Z</time>
      </trkpt>
      <trkpt lat="49.44362" lon="5.80978">
        <ele>367.1</ele>
        <time>2021-07-28T05:57:20Z</time>
      </trkpt>
      <trkpt lat="49.4436" lon="5.8099">
        <ele>367</ele>
        <time>2021-07-28T05:57:21Z</time>
      </trkpt>
      <trkpt lat="49.44357" lon="5.81001">
        <ele>367</ele>
        <time>2021-07-28T05:57:23Z</time>
      </trkpt>
      <trkpt lat="49.44353" lon="5.81007">
        <ele>366.9</ele>
        <time>2021-07-28T05:57:25Z</time>
      </trkpt>
      <trkpt lat="49.4435" lon="5.8101">
        <ele>366.8</ele>
        <time>2021-07-28T05:57:26Z</time>
      </trkpt>
      <trkpt lat="49.44345" lon="5.81011">
        <ele>366.7</ele>
        <time>2021-07-28T05:57:27Z</time>
      </trkpt>
      <trkpt lat="49.44339" lon="5.8101">
        <ele>366.6</ele>
        <time>2021-07-28T05:57:29Z</time>
      </trkpt>
      <trkpt lat="49.44332" lon="5.8101">
        <ele>366.5</ele>
        <time>2021-07-28T05:57:30Z</time>
      </trkpt>
      <trkpt lat="49.44327" lon="5.81009">
        <ele>366.5</ele>
        <time>2021-07-28T05:57:31Z</time>
      </trkpt>
      <trkpt lat="49.44318" lon="5.81007">
        <ele>366.3</ele>
        <time>2021-07-28T05:57:33Z</time>
      </trkpt>
      <trkpt lat="49.44311" lon="5.81007">
        <ele>366.2</ele>
        <time>2021-07-28T05:57:35Z</time>
      </trkpt>
      <trkpt lat="49.44301" lon="5.81007">
        <ele>366.1</ele>
        <time>2021-07-28T05:57:36Z</time>
      </trkpt>
      <trkpt lat="49.44296" lon="5.81008">
        <ele>366</ele>
        <time>2021-07-28T05:57:38Z</time>
      </trkpt>
      <trkpt lat="49.4429" lon="5.81009">
        <ele>366</ele>
        <time>2021-07-28T05:57:39Z</time>
      </trkpt>
      <trkpt lat="49.44284" lon="5.81012">
        <ele>365.9</ele>
        <time>2021-07-28T05:57:40Z</time>
      </trkpt>
      <trkpt lat="49.44278" lon="5.8102">
        <ele>365.8</ele>
        <time>2021-07-28T05:57:43Z</time>
      </trkpt>
      <trkpt lat="49.4428" lon="5.81029">
        <ele>365.7</ele>
        <time>2021-07-28T05:57:45Z</time>
      </trkpt>
      <trkpt lat="49.44283" lon="5.81036">
        <ele>365.7</ele>
        <time>2021-07-28T05:57:47Z</time>
      </trkpt>
      <trkpt lat="49.44284" lon="5.81044">
        <ele>365.7</ele>
        <time>2021-07-28T05:57:48Z</time>
      </trkpt>
      <trkpt lat="49.44286" lon="5.81052">
        <ele>365.7</ele>
        <time>2021-07-28T05:57:50Z</time>
      </trkpt>
      <trkpt lat="49.44286" lon="5.81057">
        <ele>365.7</ele>
        <time>2021-07-28T05:57:51Z</time>
      </trkpt>
      <trkpt lat="49.44287" lon="5.81063">
        <ele>365.7</ele>
        <time>2021-07-28T05:57:52Z</time>
      </trkpt>
      <trkpt lat="49.44289" lon="5.81078">
        <ele>365.7</ele>
        <time>2021-07-28T05:57:54Z</time>
      </trkpt>
      <trkpt lat="49.4429" lon="5.81091">
        <ele>365.7</ele>
        <time>2021-07-28T05:57:56Z</time>
      </trkpt>
      <trkpt lat="49.44292" lon="5.81101">
        <ele>365.7</ele>
        <time>2021-07-28T05:57:57Z</time>
      </trkpt>
      <trkpt lat="49.44293" lon="5.81108">
        <ele>365.7</ele>
        <time>2021-07-28T05:57:58Z</time>
      </trkpt>
      <trkpt lat="49.44293" lon="5.81117">
        <ele>365.7</ele>
        <time>2021-07-28T05:58:00Z</time>
      </trkpt>
      <trkpt lat="49.44294" lon="5.81138">
        <ele>365.6</ele>
        <time>2021-07-28T05:58:01Z</time>
      </trkpt>
      <trkpt lat="49.44295" lon="5.81147">
        <ele>365.6</ele>
        <time>2021-07-28T05:58:02Z</time>
      </trkpt>
      <trkpt lat="49.44295" lon="5.81161">
        <ele>365.6</ele>
        <time>2021-07-28T05:58:04Z</time>
      </trkpt>
      <trkpt lat="49.44294" lon="5.81167">
        <ele>365.6</ele>
        <time>2021-07-28T05:58:05Z</time>
      </trkpt>
      <trkpt lat="49.44294" lon="5.81182">
        <ele>365.6</ele>
        <time>2021-07-28T05:58:07Z</time>
      </trkpt>
      <trkpt lat="49.44294" lon="5.81189">
        <ele>365.6</ele>
        <time>2021-07-28T05:58:08Z</time>
      </trkpt>
      <trkpt lat="49.44293" lon="5.81195">
        <ele>365.6</ele>
        <time>2021-07-28T05:58:09Z</time>
      </trkpt>
      <trkpt lat="49.44292" lon="5.81201">
        <ele>365.6</ele>
        <time>2021-07-28T05:58:11Z</time>
      </trkpt>
      <trkpt lat="49.44291" lon="5.8121">
        <ele>365.6</ele>
        <time>2021-07-28T05:58:12Z</time>
      </trkpt>
      <trkpt lat="49.44291" lon="5.81216">
        <ele>365.6</ele>
        <time>2021-07-28T05:58:14Z</time>
      </trkpt>
      <trkpt lat="49.4429" lon="5.81224">
        <ele>365.6</ele>
        <time>2021-07-28T05:58:15Z</time>
      </trkpt>
      <trkpt lat="49.4429" lon="5.81234">
        <ele>365.6</ele>
        <time>2021-07-28T05:58:16Z</time>
      </trkpt>
      <trkpt lat="49.44289" lon="5.81239">
        <ele>365.6</ele>
        <time>2021-07-28T05:58:17Z</time>
      </trkpt>
      <trkpt lat="49.44289" lon="5.81246">
        <ele>365.6</ele>
        <time>2021-07-28T05:58:18Z</time>
      </trkpt>
      <trkpt lat="49.44291" lon="5.81252">
        <ele>365.5</ele>
        <time>2021-07-28T05:58:20Z</time>
      </trkpt>
      <trkpt lat="49.44291" lon="5.81259">
        <ele>365.4</ele>
        <time>2021-07-28T05:58:21Z</time>
      </trkpt>
      <trkpt lat="49.44291" lon="5.81274">
        <ele>365.2</ele>
        <time>2021-07-28T05:58:23Z</time>
      </trkpt>
      <trkpt lat="49.44285" lon="5.8129">
        <ele>365</ele>
        <time>2021-07-28T05:58:25Z</time>
      </trkpt>
      <trkpt lat="49.4428" lon="5.81306">
        <ele>364.7</ele>
        <time>2021-07-28T05:58:27Z</time>
      </trkpt>
      <trkpt lat="49.44277" lon="5.81314">
        <ele>364.6</ele>
        <time>2021-07-28T05:58:29Z</time>
      </trkpt>
      <trkpt lat="49.44275" lon="5.81328">
        <ele>364.4</ele>
        <time>2021-07-28T05:58:30Z</time>
      </trkpt>
      <trkpt lat="49.44274" lon="5.81338">
        <ele>364.2</ele>
        <time>2021-07-28T05:58:31Z</time>
      </trkpt>
      <trkpt lat="49.44272" lon="5.81354">
        <ele>363.6</ele>
        <time>2021-07-28T05:58:33Z</time>
      </trkpt>
      <trkpt lat="49.44269" lon="5.81371">
        <ele>362.9</ele>
        <time>2021-07-28T05:58:35Z</time>
      </trkpt>
      <trkpt lat="49.44265" lon="5.81387">
        <ele>362.2</ele>
        <time>2021-07-28T05:58:37Z</time>
      </trkpt>
      <trkpt lat="49.44263" lon="5.81396">
        <ele>361.8</ele>
        <time>2021-07-28T05:58:38Z</time>
      </trkpt>
      <trkpt lat="49.44261" lon="5.81414">
        <ele>361</ele>
        <time>2021-07-28T05:58:40Z</time>
      </trkpt>
      <trkpt lat="49.44257" lon="5.81431">
        <ele>360.3</ele>
        <time>2021-07-28T05:58:42Z</time>
      </trkpt>
      <trkpt lat="49.44256" lon="5.81439">
        <ele>360</ele>
        <time>2021-07-28T05:58:43Z</time>
      </trkpt>
      <trkpt lat="49.44254" lon="5.81447">
        <ele>359.6</ele>
        <time>2021-07-28T05:58:44Z</time>
      </trkpt>
      <trkpt lat="49.44252" lon="5.81465">
        <ele>358.9</ele>
        <time>2021-07-28T05:58:46Z</time>
      </trkpt>
      <trkpt lat="49.44251" lon="5.81482">
        <ele>358.2</ele>
        <time>2021-07-28T05:58:48Z</time>
      </trkpt>
      <trkpt lat="49.44252" lon="5.81499">
        <ele>357.5</ele>
        <time>2021-07-28T05:58:50Z</time>
      </trkpt>
      <trkpt lat="49.44251" lon="5.81511">
        <ele>357.2</ele>
        <time>2021-07-28T05:58:52Z</time>
      </trkpt>
      <trkpt lat="49.44251" lon="5.81517">
        <ele>356.9</ele>
        <time>2021-07-28T05:58:53Z</time>
      </trkpt>
      <trkpt lat="49.44252" lon="5.81522">
        <ele>356.6</ele>
        <time>2021-07-28T05:58:54Z</time>
      </trkpt>
      <trkpt lat="49.44252" lon="5.81528">
        <ele>356.4</ele>
        <time>2021-07-28T05:58:55Z</time>
      </trkpt>
      <trkpt lat="49.4425" lon="5.81537">
        <ele>355.9</ele>
        <time>2021-07-28T05:58:57Z</time>
      </trkpt>
      <trkpt lat="49.4425" lon="5.81541">
        <ele>355.7</ele>
        <time>2021-07-28T05:58:58Z</time>
      </trkpt>
      <trkpt lat="49.4425" lon="5.81545">
        <ele>355.5</ele>
        <time>2021-07-28T05:59:00Z</time>
      </trkpt>
      <trkpt lat="49.4425" lon="5.81551">
        <ele>355.2</ele>
        <time>2021-07-28T05:59:01Z</time>
      </trkpt>
      <trkpt lat="49.44251" lon="5.81553">
        <ele>355.1</ele>
        <time>2021-07-28T05:59:02Z</time>
      </trkpt>
      <trkpt lat="49.44251" lon="5.81559">
        <ele>354.8</ele>
        <time>2021-07-28T05:59:03Z</time>
      </trkpt>
      <trkpt lat="49.44249" lon="5.8157">
        <ele>354.2</ele>
        <time>2021-07-28T05:59:05Z</time>
      </trkpt>
      <trkpt lat="49.44244" lon="5.81583">
        <ele>353.5</ele>
        <time>2021-07-28T05:59:06Z</time>
      </trkpt>
      <trkpt lat="49.4424" lon="5.81586">
        <ele>353.2</ele>
        <time>2021-07-28T05:59:08Z</time>
      </trkpt>
      <trkpt lat="49.44236" lon="5.81594">
        <ele>352.7</ele>
        <time>2021-07-28T05:59:10Z</time>
      </trkpt>
      <trkpt lat="49.44234" lon="5.816">
        <ele>352.4</ele>
        <time>2021-07-28T05:59:11Z</time>
      </trkpt>
      <trkpt lat="49.44232" lon="5.81605">
        <ele>352</ele>
        <time>2021-07-28T05:59:12Z</time>
      </trkpt>
      <trkpt lat="49.44229" lon="5.81609">
        <ele>351.8</ele>
        <time>2021-07-28T05:59:13Z</time>
      </trkpt>
      <trkpt lat="49.44227" lon="5.81613">
        <ele>351.5</ele>
        <time>2021-07-28T05:59:14Z</time>
      </trkpt>
      <trkpt lat="49.44224" lon="5.81617">
        <ele>351.2</ele>
        <time>2021-07-28T05:59:16Z</time>
      </trkpt>
      <trkpt lat="49.44219" lon="5.81622">
        <ele>350.8</ele>
        <time>2021-07-28T05:59:17Z</time>
      </trkpt>
      <trkpt lat="49.44215" lon="5.81625">
        <ele>350.5</ele>
        <time>2021-07-28T05:59:18Z</time>
      </trkpt>
      <trkpt lat="49.44212" lon="5.81629">
        <ele>350.1</ele>
        <time>2021-07-28T05:59:19Z</time>
      </trkpt>
      <trkpt lat="49.4421" lon="5.81633">
        <ele>349.9</ele>
        <time>2021-07-28T05:59:20Z</time>
      </trkpt>
      <trkpt lat="49.44207" lon="5.81639">
        <ele>349.5</ele>
        <time>2021-07-28T05:59:22Z</time>
      </trkpt>
      <trkpt lat="49.44204" lon="5.81643">
        <ele>349.3</ele>
        <time>2021-07-28T05:59:23Z</time>
      </trkpt>
      <trkpt lat="49.442" lon="5.81647">
        <ele>348.9</ele>
        <time>2021-07-28T05:59:24Z</time>
      </trkpt>
      <trkpt lat="49.44194" lon="5.81654">
        <ele>348.3</ele>
        <time>2021-07-28T05:59:26Z</time>
      </trkpt>
      <trkpt lat="49.4419" lon="5.81658">
        <ele>347.9</ele>
        <time>2021-07-28T05:59:28Z</time>
      </trkpt>
      <trkpt lat="49.44188" lon="5.81664">
        <ele>347.6</ele>
        <time>2021-07-28T05:59:29Z</time>
      </trkpt>
      <trkpt lat="49.44186" lon="5.8167">
        <ele>347.3</ele>
        <time>2021-07-28T05:59:30Z</time>
      </trkpt>
      <trkpt lat="49.44183" lon="5.81678">
        <ele>346.8</ele>
        <time>2021-07-28T05:59:32Z</time>
      </trkpt>
      <trkpt lat="49.4418" lon="5.81688">
        <ele>346.3</ele>
        <time>2021-07-28T05:59:33Z</time>
      </trkpt>
      <trkpt lat="49.44178" lon="5.81693">
        <ele>346</ele>
        <time>2021-07-28T05:59:34Z</time>
      </trkpt>
      <trkpt lat="49.44174" lon="5.81698">
        <ele>345.6</ele>
        <time>2021-07-28T05:59:36Z</time>
      </trkpt>
      <trkpt lat="49.44171" lon="5.81702">
        <ele>345.3</ele>
        <time>2021-07-28T05:59:37Z</time>
      </trkpt>
      <trkpt lat="49.44169" lon="5.81706">
        <ele>345</ele>
        <time>2021-07-28T05:59:38Z</time>
      </trkpt>
      <trkpt lat="49.44165" lon="5.81711">
        <ele>344.7</ele>
        <time>2021-07-28T05:59:39Z</time>
      </trkpt>
      <trkpt lat="49.44162" lon="5.81714">
        <ele>344.4</ele>
        <time>2021-07-28T05:59:40Z</time>
      </trkpt>
      <trkpt lat="49.44159" lon="5.81719">
        <ele>344.1</ele>
        <time>2021-07-28T05:59:42Z</time>
      </trkpt>
      <trkpt lat="49.44156" lon="5.81723">
        <ele>343.8</ele>
        <time>2021-07-28T05:59:43Z</time>
      </trkpt>
      <trkpt lat="49.44152" lon="5.81727">
        <ele>343.4</ele>
        <time>2021-07-28T05:59:44Z</time>
      </trkpt>
      <trkpt lat="49.44148" lon="5.81731">
        <ele>343</ele>
        <time>2021-07-28T05:59:46Z</time>
      </trkpt>
      <trkpt lat="49.44143" lon="5.81736">
        <ele>342.6</ele>
        <time>2021-07-28T05:59:47Z</time>
      </trkpt>
      <trkpt lat="49.44138" lon="5.81739">
        <ele>342.2</ele>
        <time>2021-07-28T05:59:49Z</time>
      </trkpt>
      <trkpt lat="49.44134" lon="5.81742">
        <ele>341.8</ele>
        <time>2021-07-28T05:59:50Z</time>
      </trkpt>
      <trkpt lat="49.4413" lon="5.81747">
        <ele>341.5</ele>
        <time>2021-07-28T05:59:51Z</time>
      </trkpt>
      <trkpt lat="49.44126" lon="5.8175">
        <ele>341.1</ele>
        <time>2021-07-28T05:59:52Z</time>
      </trkpt>
      <trkpt lat="49.44122" lon="5.81756">
        <ele>340.7</ele>
        <time>2021-07-28T05:59:54Z</time>
      </trkpt>
      <trkpt lat="49.44116" lon="5.81767">
        <ele>340</ele>
        <time>2021-07-28T05:59:55Z</time>
      </trkpt>
      <trkpt lat="49.44114" lon="5.81772">
        <ele>339.7</ele>
        <time>2021-07-28T05:59:56Z</time>
      </trkpt>
      <trkpt lat="49.44108" lon="5.81782">
        <ele>339.1</ele>
        <time>2021-07-28T05:59:58Z</time>
      </trkpt>
      <trkpt lat="49.44107" lon="5.81787">
        <ele>339.1</ele>
        <time>2021-07-28T05:59:59Z</time>
      </trkpt>
      <trkpt lat="49.44105" lon="5.81793">
        <ele>339</ele>
        <time>2021-07-28T06:00:00Z</time>
      </trkpt>
      <trkpt lat="49.441" lon="5.818">
        <ele>339</ele>
        <time>2021-07-28T06:00:02Z</time>
      </trkpt>
      <trkpt lat="49.44098" lon="5.81804">
        <ele>338.9</ele>
        <time>2021-07-28T06:00:03Z</time>
      </trkpt>
      <trkpt lat="49.44093" lon="5.81807">
        <ele>338.9</ele>
        <time>2021-07-28T06:00:04Z</time>
      </trkpt>
      <trkpt lat="49.44085" lon="5.81815">
        <ele>338.9</ele>
        <time>2021-07-28T06:00:06Z</time>
      </trkpt>
      <trkpt lat="49.44079" lon="5.81826">
        <ele>338.8</ele>
        <time>2021-07-28T06:00:08Z</time>
      </trkpt>
      <trkpt lat="49.44074" lon="5.8184">
        <ele>338.8</ele>
        <time>2021-07-28T06:00:10Z</time>
      </trkpt>
      <trkpt lat="49.44073" lon="5.81854">
        <ele>338.7</ele>
        <time>2021-07-28T06:00:12Z</time>
      </trkpt>
      <trkpt lat="49.44072" lon="5.81863">
        <ele>338.7</ele>
        <time>2021-07-28T06:00:13Z</time>
      </trkpt>
      <trkpt lat="49.4407" lon="5.81872">
        <ele>338.7</ele>
        <time>2021-07-28T06:00:14Z</time>
      </trkpt>
      <trkpt lat="49.44068" lon="5.81888">
        <ele>338.8</ele>
        <time>2021-07-28T06:00:16Z</time>
      </trkpt>
      <trkpt lat="49.44067" lon="5.81896">
        <ele>338.9</ele>
        <time>2021-07-28T06:00:17Z</time>
      </trkpt>
      <trkpt lat="49.44064" lon="5.8191">
        <ele>339.1</ele>
        <time>2021-07-28T06:00:19Z</time>
      </trkpt>
      <trkpt lat="49.44061" lon="5.81916">
        <ele>339.2</ele>
        <time>2021-07-28T06:00:20Z</time>
      </trkpt>
      <trkpt lat="49.44053" lon="5.81925">
        <ele>339.4</ele>
        <time>2021-07-28T06:00:22Z</time>
      </trkpt>
      <trkpt lat="49.44049" lon="5.8193">
        <ele>339.6</ele>
        <time>2021-07-28T06:00:23Z</time>
      </trkpt>
      <trkpt lat="49.44045" lon="5.81936">
        <ele>339.7</ele>
        <time>2021-07-28T06:00:25Z</time>
      </trkpt>
      <trkpt lat="49.44043" lon="5.81941">
        <ele>339.7</ele>
        <time>2021-07-28T06:00:26Z</time>
      </trkpt>
      <trkpt lat="49.44041" lon="5.81951">
        <ele>339.7</ele>
        <time>2021-07-28T06:00:28Z</time>
      </trkpt>
      <trkpt lat="49.4404" lon="5.81961">
        <ele>339.8</ele>
        <time>2021-07-28T06:00:30Z</time>
      </trkpt>
      <trkpt lat="49.4404" lon="5.81969">
        <ele>339.9</ele>
        <time>2021-07-28T06:00:31Z</time>
      </trkpt>
      <trkpt lat="49.44039" lon="5.81975">
        <ele>340</ele>
        <time>2021-07-28T06:00:32Z</time>
      </trkpt>
      <trkpt lat="49.44038" lon="5.81981">
        <ele>340.1</ele>
        <time>2021-07-28T06:00:33Z</time>
      </trkpt>
      <trkpt lat="49.44038" lon="5.81991">
        <ele>340.2</ele>
        <time>2021-07-28T06:00:36Z</time>
      </trkpt>
      <trkpt lat="49.44039" lon="5.81999">
        <ele>340.3</ele>
        <time>2021-07-28T06:00:37Z</time>
      </trkpt>
      <trkpt lat="49.44038" lon="5.82006">
        <ele>340.4</ele>
        <time>2021-07-28T06:00:39Z</time>
      </trkpt>
      <trkpt lat="49.44038" lon="5.82011">
        <ele>340.5</ele>
        <time>2021-07-28T06:00:41Z</time>
      </trkpt>
      <trkpt lat="49.44037" lon="5.82012">
        <ele>340.5</ele>
        <time>2021-07-28T06:00:42Z</time>
      </trkpt>
      <trkpt lat="49.44036" lon="5.82018">
        <ele>340.6</ele>
        <time>2021-07-28T06:00:43Z</time>
      </trkpt>
      <trkpt lat="49.44036" lon="5.8202">
        <ele>340.6</ele>
        <time>2021-07-28T06:00:44Z</time>
      </trkpt>
      <trkpt lat="49.44035" lon="5.82025">
        <ele>340.7</ele>
        <time>2021-07-28T06:00:45Z</time>
      </trkpt>
      <trkpt lat="49.44035" lon="5.82033">
        <ele>340.7</ele>
        <time>2021-07-28T06:00:47Z</time>
      </trkpt>
      <trkpt lat="49.44035" lon="5.82036">
        <ele>340.8</ele>
        <time>2021-07-28T06:00:48Z</time>
      </trkpt>
      <trkpt lat="49.44035" lon="5.82041">
        <ele>340.8</ele>
        <time>2021-07-28T06:00:50Z</time>
      </trkpt>
      <trkpt lat="49.44033" lon="5.82048">
        <ele>340.9</ele>
        <time>2021-07-28T06:00:51Z</time>
      </trkpt>
      <trkpt lat="49.44032" lon="5.82052">
        <ele>340.9</ele>
        <time>2021-07-28T06:00:52Z</time>
      </trkpt>
      <trkpt lat="49.44031" lon="5.82059">
        <ele>341</ele>
        <time>2021-07-28T06:00:53Z</time>
      </trkpt>
      <trkpt lat="49.44028" lon="5.82065">
        <ele>341.1</ele>
        <time>2021-07-28T06:00:54Z</time>
      </trkpt>
      <trkpt lat="49.44025" lon="5.82071">
        <ele>341.1</ele>
        <time>2021-07-28T06:00:56Z</time>
      </trkpt>
      <trkpt lat="49.44022" lon="5.82078">
        <ele>341.2</ele>
        <time>2021-07-28T06:00:57Z</time>
      </trkpt>
      <trkpt lat="49.44019" lon="5.82084">
        <ele>341.3</ele>
        <time>2021-07-28T06:00:58Z</time>
      </trkpt>
      <trkpt lat="49.44015" lon="5.82095">
        <ele>341.4</ele>
        <time>2021-07-28T06:01:00Z</time>
      </trkpt>
      <trkpt lat="49.44013" lon="5.82102">
        <ele>341.5</ele>
        <time>2021-07-28T06:01:02Z</time>
      </trkpt>
      <trkpt lat="49.44011" lon="5.8211">
        <ele>341.6</ele>
        <time>2021-07-28T06:01:03Z</time>
      </trkpt>
      <trkpt lat="49.44009" lon="5.82116">
        <ele>341.7</ele>
        <time>2021-07-28T06:01:04Z</time>
      </trkpt>
      <trkpt lat="49.44005" lon="5.82126">
        <ele>341.8</ele>
        <time>2021-07-28T06:01:06Z</time>
      </trkpt>
      <trkpt lat="49.44003" lon="5.82135">
        <ele>341.8</ele>
        <time>2021-07-28T06:01:07Z</time>
      </trkpt>
      <trkpt lat="49.44003" lon="5.82143">
        <ele>341.8</ele>
        <time>2021-07-28T06:01:09Z</time>
      </trkpt>
      <trkpt lat="49.44005" lon="5.8215">
        <ele>341.8</ele>
        <time>2021-07-28T06:01:10Z</time>
      </trkpt>
      <trkpt lat="49.44006" lon="5.82157">
        <ele>341.9</ele>
        <time>2021-07-28T06:01:12Z</time>
      </trkpt>
      <trkpt lat="49.44006" lon="5.82161">
        <ele>341.9</ele>
        <time>2021-07-28T06:01:13Z</time>
      </trkpt>
      <trkpt lat="49.44006" lon="5.82166">
        <ele>341.9</ele>
        <time>2021-07-28T06:01:14Z</time>
      </trkpt>
      <trkpt lat="49.44005" lon="5.82171">
        <ele>341.9</ele>
        <time>2021-07-28T06:01:15Z</time>
      </trkpt>
      <trkpt lat="49.44004" lon="5.82177">
        <ele>341.9</ele>
        <time>2021-07-28T06:01:17Z</time>
      </trkpt>
      <trkpt lat="49.44004" lon="5.82185">
        <ele>341.8</ele>
        <time>2021-07-28T06:01:18Z</time>
      </trkpt>
      <trkpt lat="49.44003" lon="5.82195">
        <ele>341.8</ele>
        <time>2021-07-28T06:01:20Z</time>
      </trkpt>
      <trkpt lat="49.44003" lon="5.82204">
        <ele>341.8</ele>
        <time>2021-07-28T06:01:22Z</time>
      </trkpt>
      <trkpt lat="49.44003" lon="5.82212">
        <ele>341.7</ele>
        <time>2021-07-28T06:01:23Z</time>
      </trkpt>
      <trkpt lat="49.44001" lon="5.82222">
        <ele>341.6</ele>
        <time>2021-07-28T06:01:25Z</time>
      </trkpt>
      <trkpt lat="49.43998" lon="5.8223">
        <ele>341.6</ele>
        <time>2021-07-28T06:01:26Z</time>
      </trkpt>
      <trkpt lat="49.43995" lon="5.82234">
        <ele>341.5</ele>
        <time>2021-07-28T06:01:27Z</time>
      </trkpt>
      <trkpt lat="49.43991" lon="5.82236">
        <ele>341.5</ele>
        <time>2021-07-28T06:01:28Z</time>
      </trkpt>
      <trkpt lat="49.43988" lon="5.82236">
        <ele>341.5</ele>
        <time>2021-07-28T06:01:30Z</time>
      </trkpt>
      <trkpt lat="49.43985" lon="5.82236">
        <ele>341.5</ele>
        <time>2021-07-28T06:01:31Z</time>
      </trkpt>
      <trkpt lat="49.43981" lon="5.82238">
        <ele>341.5</ele>
        <time>2021-07-28T06:01:32Z</time>
      </trkpt>
      <trkpt lat="49.43976" lon="5.8224">
        <ele>341.5</ele>
        <time>2021-07-28T06:01:34Z</time>
      </trkpt>
      <trkpt lat="49.43973" lon="5.82242">
        <ele>341.5</ele>
        <time>2021-07-28T06:01:35Z</time>
      </trkpt>
      <trkpt lat="49.43967" lon="5.82245">
        <ele>341.5</ele>
        <time>2021-07-28T06:01:36Z</time>
      </trkpt>
      <trkpt lat="49.43961" lon="5.82247">
        <ele>341.5</ele>
        <time>2021-07-28T06:01:38Z</time>
      </trkpt>
      <trkpt lat="49.43955" lon="5.82249">
        <ele>341.6</ele>
        <time>2021-07-28T06:01:39Z</time>
      </trkpt>
      <trkpt lat="49.43948" lon="5.82254">
        <ele>341.7</ele>
        <time>2021-07-28T06:01:41Z</time>
      </trkpt>
      <trkpt lat="49.43944" lon="5.82256">
        <ele>341.7</ele>
        <time>2021-07-28T06:01:42Z</time>
      </trkpt>
      <trkpt lat="49.43937" lon="5.82259">
        <ele>341.8</ele>
        <time>2021-07-28T06:01:44Z</time>
      </trkpt>
      <trkpt lat="49.43932" lon="5.82261">
        <ele>341.9</ele>
        <time>2021-07-28T06:01:45Z</time>
      </trkpt>
      <trkpt lat="49.43926" lon="5.82267">
        <ele>341.9</ele>
        <time>2021-07-28T06:01:47Z</time>
      </trkpt>
      <trkpt lat="49.43923" lon="5.8227">
        <ele>341.9</ele>
        <time>2021-07-28T06:01:48Z</time>
      </trkpt>
      <trkpt lat="49.43921" lon="5.82272">
        <ele>342</ele>
        <time>2021-07-28T06:01:49Z</time>
      </trkpt>
      <trkpt lat="49.43919" lon="5.82276">
        <ele>342</ele>
        <time>2021-07-28T06:01:50Z</time>
      </trkpt>
      <trkpt lat="49.43915" lon="5.82285">
        <ele>342</ele>
        <time>2021-07-28T06:01:52Z</time>
      </trkpt>
      <trkpt lat="49.43911" lon="5.82295">
        <ele>342.1</ele>
        <time>2021-07-28T06:01:54Z</time>
      </trkpt>
      <trkpt lat="49.43908" lon="5.82304">
        <ele>342.2</ele>
        <time>2021-07-28T06:01:56Z</time>
      </trkpt>
      <trkpt lat="49.43906" lon="5.8231">
        <ele>342.2</ele>
        <time>2021-07-28T06:01:57Z</time>
      </trkpt>
      <trkpt lat="49.43904" lon="5.8232">
        <ele>342.4</ele>
        <time>2021-07-28T06:01:59Z</time>
      </trkpt>
      <trkpt lat="49.43904" lon="5.82328">
        <ele>342.5</ele>
        <time>2021-07-28T06:02:01Z</time>
      </trkpt>
      <trkpt lat="49.43903" lon="5.82333">
        <ele>342.6</ele>
        <time>2021-07-28T06:02:02Z</time>
      </trkpt>
      <trkpt lat="49.43902" lon="5.8234">
        <ele>342.7</ele>
        <time>2021-07-28T06:02:04Z</time>
      </trkpt>
      <trkpt lat="49.43902" lon="5.82345">
        <ele>342.8</ele>
        <time>2021-07-28T06:02:05Z</time>
      </trkpt>
      <trkpt lat="49.43902" lon="5.82349">
        <ele>342.9</ele>
        <time>2021-07-28T06:02:06Z</time>
      </trkpt>
      <trkpt lat="49.43902" lon="5.82355">
        <ele>343</ele>
        <time>2021-07-28T06:02:07Z</time>
      </trkpt>
      <trkpt lat="49.43902" lon="5.82358">
        <ele>343</ele>
        <time>2021-07-28T06:02:08Z</time>
      </trkpt>
      <trkpt lat="49.43902" lon="5.82365">
        <ele>343.1</ele>
        <time>2021-07-28T06:02:10Z</time>
      </trkpt>
      <trkpt lat="49.43901" lon="5.82372">
        <ele>343.3</ele>
        <time>2021-07-28T06:02:12Z</time>
      </trkpt>
      <trkpt lat="49.43902" lon="5.82377">
        <ele>343.4</ele>
        <time>2021-07-28T06:02:13Z</time>
      </trkpt>
      <trkpt lat="49.43903" lon="5.82378">
        <ele>343.4</ele>
        <time>2021-07-28T06:02:14Z</time>
      </trkpt>
      <trkpt lat="49.43903" lon="5.82384">
        <ele>343.5</ele>
        <time>2021-07-28T06:02:16Z</time>
      </trkpt>
      <trkpt lat="49.43903" lon="5.82386">
        <ele>343.6</ele>
        <time>2021-07-28T06:02:17Z</time>
      </trkpt>
      <trkpt lat="49.43903" lon="5.82389">
        <ele>343.7</ele>
        <time>2021-07-28T06:02:18Z</time>
      </trkpt>
      <trkpt lat="49.43903" lon="5.82392">
        <ele>343.7</ele>
        <time>2021-07-28T06:02:20Z</time>
      </trkpt>
      <trkpt lat="49.43902" lon="5.82394">
        <ele>343.8</ele>
        <time>2021-07-28T06:02:21Z</time>
      </trkpt>
      <trkpt lat="49.43899" lon="5.82396">
        <ele>343.9</ele>
        <time>2021-07-28T06:02:22Z</time>
      </trkpt>
      <trkpt lat="49.43898" lon="5.82397">
        <ele>343.9</ele>
        <time>2021-07-28T06:02:23Z</time>
      </trkpt>
      <trkpt lat="49.43897" lon="5.82403">
        <ele>344.1</ele>
        <time>2021-07-28T06:02:24Z</time>
      </trkpt>
      <trkpt lat="49.43897" lon="5.82406">
        <ele>344.1</ele>
        <time>2021-07-28T06:02:25Z</time>
      </trkpt>
      <trkpt lat="49.43897" lon="5.8241">
        <ele>344.2</ele>
        <time>2021-07-28T06:02:26Z</time>
      </trkpt>
      <trkpt lat="49.43897" lon="5.82418">
        <ele>344.4</ele>
        <time>2021-07-28T06:02:28Z</time>
      </trkpt>
      <trkpt lat="49.43897" lon="5.82423">
        <ele>344.5</ele>
        <time>2021-07-28T06:02:29Z</time>
      </trkpt>
      <trkpt lat="49.43898" lon="5.82428">
        <ele>344.6</ele>
        <time>2021-07-28T06:02:31Z</time>
      </trkpt>
      <trkpt lat="49.43898" lon="5.82433">
        <ele>344.8</ele>
        <time>2021-07-28T06:02:32Z</time>
      </trkpt>
      <trkpt lat="49.43898" lon="5.82439">
        <ele>344.9</ele>
        <time>2021-07-28T06:02:33Z</time>
      </trkpt>
      <trkpt lat="49.43898" lon="5.82442">
        <ele>345</ele>
        <time>2021-07-28T06:02:34Z</time>
      </trkpt>
      <trkpt lat="49.43898" lon="5.82446">
        <ele>345.1</ele>
        <time>2021-07-28T06:02:35Z</time>
      </trkpt>
      <trkpt lat="49.43898" lon="5.82451">
        <ele>345.2</ele>
        <time>2021-07-28T06:02:36Z</time>
      </trkpt>
      <trkpt lat="49.43899" lon="5.82455">
        <ele>345.3</ele>
        <time>2021-07-28T06:02:37Z</time>
      </trkpt>
      <trkpt lat="49.43899" lon="5.8246">
        <ele>345.5</ele>
        <time>2021-07-28T06:02:39Z</time>
      </trkpt>
      <trkpt lat="49.43898" lon="5.82465">
        <ele>345.6</ele>
        <time>2021-07-28T06:02:40Z</time>
      </trkpt>
      <trkpt lat="49.43897" lon="5.82468">
        <ele>345.7</ele>
        <time>2021-07-28T06:02:41Z</time>
      </trkpt>
      <trkpt lat="49.43895" lon="5.82473">
        <ele>345.9</ele>
        <time>2021-07-28T06:02:43Z</time>
      </trkpt>
      <trkpt lat="49.43894" lon="5.82476">
        <ele>346</ele>
        <time>2021-07-28T06:02:44Z</time>
      </trkpt>
      <trkpt lat="49.43893" lon="5.82481">
        <ele>346.2</ele>
        <time>2021-07-28T06:02:46Z</time>
      </trkpt>
      <trkpt lat="49.43892" lon="5.82486">
        <ele>346.3</ele>
        <time>2021-07-28T06:02:48Z</time>
      </trkpt>
      <trkpt lat="49.43892" lon="5.82489">
        <ele>346.4</ele>
        <time>2021-07-28T06:02:49Z</time>
      </trkpt>
      <trkpt lat="49.43893" lon="5.82493">
        <ele>346.5</ele>
        <time>2021-07-28T06:02:51Z</time>
      </trkpt>
      <trkpt lat="49.43894" lon="5.82498">
        <ele>346.6</ele>
        <time>2021-07-28T06:02:52Z</time>
      </trkpt>
      <trkpt lat="49.43894" lon="5.82503">
        <ele>346.7</ele>
        <time>2021-07-28T06:02:53Z</time>
      </trkpt>
      <trkpt lat="49.43893" lon="5.82504">
        <ele>346.8</ele>
        <time>2021-07-28T06:02:54Z</time>
      </trkpt>
      <trkpt lat="49.43892" lon="5.82507">
        <ele>346.8</ele>
        <time>2021-07-28T06:02:55Z</time>
      </trkpt>
      <trkpt lat="49.43891" lon="5.82515">
        <ele>347</ele>
        <time>2021-07-28T06:02:57Z</time>
      </trkpt>
      <trkpt lat="49.4389" lon="5.82521">
        <ele>347.1</ele>
        <time>2021-07-28T06:02:59Z</time>
      </trkpt>
      <trkpt lat="49.43889" lon="5.82526">
        <ele>347.3</ele>
        <time>2021-07-28T06:03:00Z</time>
      </trkpt>
      <trkpt lat="49.43889" lon="5.82533">
        <ele>347.4</ele>
        <time>2021-07-28T06:03:02Z</time>
      </trkpt>
      <trkpt lat="49.43889" lon="5.82539">
        <ele>347.5</ele>
        <time>2021-07-28T06:03:03Z</time>
      </trkpt>
      <trkpt lat="49.4389" lon="5.82544">
        <ele>347.6</ele>
        <time>2021-07-28T06:03:04Z</time>
      </trkpt>
      <trkpt lat="49.43891" lon="5.82549">
        <ele>347.7</ele>
        <time>2021-07-28T06:03:05Z</time>
      </trkpt>
      <trkpt lat="49.43892" lon="5.82554">
        <ele>347.8</ele>
        <time>2021-07-28T06:03:06Z</time>
      </trkpt>
      <trkpt lat="49.43893" lon="5.82559">
        <ele>347.9</ele>
        <time>2021-07-28T06:03:08Z</time>
      </trkpt>
      <trkpt lat="49.43893" lon="5.82561">
        <ele>347.9</ele>
        <time>2021-07-28T06:03:09Z</time>
      </trkpt>
      <trkpt lat="49.43893" lon="5.82568">
        <ele>348</ele>
        <time>2021-07-28T06:03:10Z</time>
      </trkpt>
      <trkpt lat="49.43895" lon="5.82578">
        <ele>348.2</ele>
        <time>2021-07-28T06:03:12Z</time>
      </trkpt>
      <trkpt lat="49.43897" lon="5.82583">
        <ele>348.2</ele>
        <time>2021-07-28T06:03:13Z</time>
      </trkpt>
      <trkpt lat="49.43898" lon="5.82589">
        <ele>348.3</ele>
        <time>2021-07-28T06:03:15Z</time>
      </trkpt>
      <trkpt lat="49.43899" lon="5.82594">
        <ele>348.4</ele>
        <time>2021-07-28T06:03:16Z</time>
      </trkpt>
      <trkpt lat="49.43901" lon="5.82599">
        <ele>348.5</ele>
        <time>2021-07-28T06:03:17Z</time>
      </trkpt>
      <trkpt lat="49.43903" lon="5.82602">
        <ele>348.6</ele>
        <time>2021-07-28T06:03:18Z</time>
      </trkpt>
      <trkpt lat="49.43906" lon="5.82605">
        <ele>348.6</ele>
        <time>2021-07-28T06:03:20Z</time>
      </trkpt>
      <trkpt lat="49.43908" lon="5.8261">
        <ele>348.7</ele>
        <time>2021-07-28T06:03:21Z</time>
      </trkpt>
      <trkpt lat="49.4391" lon="5.82614">
        <ele>348.8</ele>
        <time>2021-07-28T06:03:23Z</time>
      </trkpt>
      <trkpt lat="49.43911" lon="5.82616">
        <ele>348.9</ele>
        <time>2021-07-28T06:03:24Z</time>
      </trkpt>
      <trkpt lat="49.43912" lon="5.82618">
        <ele>348.9</ele>
        <time>2021-07-28T06:03:25Z</time>
      </trkpt>
      <trkpt lat="49.43913" lon="5.82621">
        <ele>349</ele>
        <time>2021-07-28T06:03:27Z</time>
      </trkpt>
      <trkpt lat="49.43914" lon="5.82624">
        <ele>349</ele>
        <time>2021-07-28T06:03:28Z</time>
      </trkpt>
      <trkpt lat="49.43916" lon="5.82628">
        <ele>349.1</ele>
        <time>2021-07-28T06:03:29Z</time>
      </trkpt>
      <trkpt lat="49.43918" lon="5.82631">
        <ele>349.2</ele>
        <time>2021-07-28T06:03:30Z</time>
      </trkpt>
      <trkpt lat="49.43919" lon="5.82633">
        <ele>349.2</ele>
        <time>2021-07-28T06:03:31Z</time>
      </trkpt>
      <trkpt lat="49.43919" lon="5.82638">
        <ele>349.3</ele>
        <time>2021-07-28T06:03:33Z</time>
      </trkpt>
      <trkpt lat="49.43919" lon="5.82642">
        <ele>349.4</ele>
        <time>2021-07-28T06:03:34Z</time>
      </trkpt>
      <trkpt lat="49.4392" lon="5.82646">
        <ele>349.4</ele>
        <time>2021-07-28T06:03:36Z</time>
      </trkpt>
      <trkpt lat="49.43921" lon="5.82651">
        <ele>349.5</ele>
        <time>2021-07-28T06:03:38Z</time>
      </trkpt>
      <trkpt lat="49.43922" lon="5.82653">
        <ele>349.6</ele>
        <time>2021-07-28T06:03:39Z</time>
      </trkpt>
      <trkpt lat="49.43923" lon="5.82657">
        <ele>349.6</ele>
        <time>2021-07-28T06:03:41Z</time>
      </trkpt>
      <trkpt lat="49.43924" lon="5.8266">
        <ele>349.7</ele>
        <time>2021-07-28T06:03:42Z</time>
      </trkpt>
      <trkpt lat="49.43926" lon="5.82663">
        <ele>349.7</ele>
        <time>2021-07-28T06:03:44Z</time>
      </trkpt>
      <trkpt lat="49.43928" lon="5.82665">
        <ele>349.8</ele>
        <time>2021-07-28T06:03:45Z</time>
      </trkpt>
      <trkpt lat="49.43929" lon="5.82668">
        <ele>349.8</ele>
        <time>2021-07-28T06:03:47Z</time>
      </trkpt>
      <trkpt lat="49.4393" lon="5.82669">
        <ele>349.9</ele>
        <time>2021-07-28T06:03:48Z</time>
      </trkpt>
      <trkpt lat="49.43931" lon="5.82671">
        <ele>349.9</ele>
        <time>2021-07-28T06:03:49Z</time>
      </trkpt>
      <trkpt lat="49.43932" lon="5.82673">
        <ele>349.9</ele>
        <time>2021-07-28T06:03:51Z</time>
      </trkpt>
      <trkpt lat="49.43933" lon="5.82675">
        <ele>350</ele>
        <time>2021-07-28T06:03:52Z</time>
      </trkpt>
      <trkpt lat="49.43933" lon="5.82678">
        <ele>350</ele>
        <time>2021-07-28T06:03:53Z</time>
      </trkpt>
      <trkpt lat="49.43935" lon="5.82682">
        <ele>350.1</ele>
        <time>2021-07-28T06:03:54Z</time>
      </trkpt>
      <trkpt lat="49.43935" lon="5.82684">
        <ele>350.1</ele>
        <time>2021-07-28T06:03:55Z</time>
      </trkpt>
      <trkpt lat="49.43937" lon="5.82689">
        <ele>350.2</ele>
        <time>2021-07-28T06:03:56Z</time>
      </trkpt>
      <trkpt lat="49.43937" lon="5.82691">
        <ele>350.2</ele>
        <time>2021-07-28T06:03:57Z</time>
      </trkpt>
      <trkpt lat="49.43938" lon="5.82696">
        <ele>350.3</ele>
        <time>2021-07-28T06:03:58Z</time>
      </trkpt>
      <trkpt lat="49.43938" lon="5.82697">
        <ele>350.4</ele>
        <time>2021-07-28T06:03:59Z</time>
      </trkpt>
      <trkpt lat="49.43939" lon="5.82701">
        <ele>350.4</ele>
        <time>2021-07-28T06:04:00Z</time>
      </trkpt>
      <trkpt lat="49.4394" lon="5.82706">
        <ele>350.5</ele>
        <time>2021-07-28T06:04:02Z</time>
      </trkpt>
      <trkpt lat="49.43942" lon="5.82709">
        <ele>350.6</ele>
        <time>2021-07-28T06:04:03Z</time>
      </trkpt>
      <trkpt lat="49.43942" lon="5.82713">
        <ele>350.6</ele>
        <time>2021-07-28T06:04:05Z</time>
      </trkpt>
      <trkpt lat="49.43942" lon="5.82718">
        <ele>350.7</ele>
        <time>2021-07-28T06:04:06Z</time>
      </trkpt>
      <trkpt lat="49.43942" lon="5.8272">
        <ele>350.8</ele>
        <time>2021-07-28T06:04:07Z</time>
      </trkpt>
      <trkpt lat="49.43944" lon="5.82723">
        <ele>350.8</ele>
        <time>2021-07-28T06:04:08Z</time>
      </trkpt>
      <trkpt lat="49.43946" lon="5.82727">
        <ele>350.9</ele>
        <time>2021-07-28T06:04:10Z</time>
      </trkpt>
      <trkpt lat="49.43947" lon="5.82729">
        <ele>351</ele>
        <time>2021-07-28T06:04:11Z</time>
      </trkpt>
      <trkpt lat="49.43947" lon="5.82732">
        <ele>351</ele>
        <time>2021-07-28T06:04:12Z</time>
      </trkpt>
      <trkpt lat="49.43949" lon="5.82737">
        <ele>351.1</ele>
        <time>2021-07-28T06:04:13Z</time>
      </trkpt>
      <trkpt lat="49.4395" lon="5.82739">
        <ele>351.2</ele>
        <time>2021-07-28T06:04:14Z</time>
      </trkpt>
      <trkpt lat="49.43951" lon="5.82742">
        <ele>351.2</ele>
        <time>2021-07-28T06:04:15Z</time>
      </trkpt>
      <trkpt lat="49.43952" lon="5.82746">
        <ele>351.3</ele>
        <time>2021-07-28T06:04:17Z</time>
      </trkpt>
      <trkpt lat="49.43954" lon="5.8275">
        <ele>351.4</ele>
        <time>2021-07-28T06:04:18Z</time>
      </trkpt>
      <trkpt lat="49.43956" lon="5.82755">
        <ele>351.5</ele>
        <time>2021-07-28T06:04:19Z</time>
      </trkpt>
      <trkpt lat="49.43957" lon="5.82759">
        <ele>351.6</ele>
        <time>2021-07-28T06:04:20Z</time>
      </trkpt>
      <trkpt lat="49.4396" lon="5.82765">
        <ele>351.8</ele>
        <time>2021-07-28T06:04:22Z</time>
      </trkpt>
      <trkpt lat="49.43962" lon="5.8277">
        <ele>351.9</ele>
        <time>2021-07-28T06:04:23Z</time>
      </trkpt>
      <trkpt lat="49.43963" lon="5.82773">
        <ele>352</ele>
        <time>2021-07-28T06:04:24Z</time>
      </trkpt>
      <trkpt lat="49.43965" lon="5.82781">
        <ele>352.1</ele>
        <time>2021-07-28T06:04:26Z</time>
      </trkpt>
      <trkpt lat="49.43968" lon="5.82788">
        <ele>352.3</ele>
        <time>2021-07-28T06:04:28Z</time>
      </trkpt>
      <trkpt lat="49.43969" lon="5.82794">
        <ele>352.4</ele>
        <time>2021-07-28T06:04:30Z</time>
      </trkpt>
      <trkpt lat="49.43971" lon="5.82802">
        <ele>352.5</ele>
        <time>2021-07-28T06:04:32Z</time>
      </trkpt>
      <trkpt lat="49.43971" lon="5.82804">
        <ele>352.5</ele>
        <time>2021-07-28T06:04:33Z</time>
      </trkpt>
      <trkpt lat="49.43971" lon="5.82806">
        <ele>352.6</ele>
        <time>2021-07-28T06:04:34Z</time>
      </trkpt>
      <trkpt lat="49.43972" lon="5.82811">
        <ele>352.6</ele>
        <time>2021-07-28T06:04:35Z</time>
      </trkpt>
      <trkpt lat="49.43972" lon="5.82812">
        <ele>352.7</ele>
        <time>2021-07-28T06:04:36Z</time>
      </trkpt>
      <trkpt lat="49.43973" lon="5.82818">
        <ele>352.8</ele>
        <time>2021-07-28T06:04:38Z</time>
      </trkpt>
      <trkpt lat="49.43973" lon="5.82819">
        <ele>352.8</ele>
        <time>2021-07-28T06:04:39Z</time>
      </trkpt>
      <trkpt lat="49.43975" lon="5.82825">
        <ele>352.9</ele>
        <time>2021-07-28T06:04:40Z</time>
      </trkpt>
      <trkpt lat="49.43976" lon="5.82828">
        <ele>352.9</ele>
        <time>2021-07-28T06:04:41Z</time>
      </trkpt>
      <trkpt lat="49.43977" lon="5.82832">
        <ele>353</ele>
        <time>2021-07-28T06:04:42Z</time>
      </trkpt>
      <trkpt lat="49.43978" lon="5.82839">
        <ele>353.1</ele>
        <time>2021-07-28T06:04:44Z</time>
      </trkpt>
      <trkpt lat="49.43978" lon="5.82843">
        <ele>353.2</ele>
        <time>2021-07-28T06:04:45Z</time>
      </trkpt>
      <trkpt lat="49.43978" lon="5.82847">
        <ele>353.2</ele>
        <time>2021-07-28T06:04:47Z</time>
      </trkpt>
      <trkpt lat="49.4398" lon="5.82852">
        <ele>353.3</ele>
        <time>2021-07-28T06:04:48Z</time>
      </trkpt>
      <trkpt lat="49.43982" lon="5.82855">
        <ele>353.4</ele>
        <time>2021-07-28T06:04:49Z</time>
      </trkpt>
      <trkpt lat="49.43983" lon="5.8286">
        <ele>353.4</ele>
        <time>2021-07-28T06:04:51Z</time>
      </trkpt>
      <trkpt lat="49.43984" lon="5.82866">
        <ele>353.5</ele>
        <time>2021-07-28T06:04:53Z</time>
      </trkpt>
      <trkpt lat="49.43984" lon="5.8287">
        <ele>353.6</ele>
        <time>2021-07-28T06:04:54Z</time>
      </trkpt>
      <trkpt lat="49.43984" lon="5.82874">
        <ele>353.6</ele>
        <time>2021-07-28T06:04:56Z</time>
      </trkpt>
      <trkpt lat="49.43984" lon="5.82876">
        <ele>353.7</ele>
        <time>2021-07-28T06:04:57Z</time>
      </trkpt>
      <trkpt lat="49.43984" lon="5.82879">
        <ele>353.7</ele>
        <time>2021-07-28T06:04:58Z</time>
      </trkpt>
      <trkpt lat="49.43983" lon="5.82884">
        <ele>353.8</ele>
        <time>2021-07-28T06:04:59Z</time>
      </trkpt>
      <trkpt lat="49.43982" lon="5.82886">
        <ele>353.8</ele>
        <time>2021-07-28T06:05:00Z</time>
      </trkpt>
      <trkpt lat="49.43982" lon="5.8289">
        <ele>353.9</ele>
        <time>2021-07-28T06:05:02Z</time>
      </trkpt>
      <trkpt lat="49.43983" lon="5.82892">
        <ele>353.9</ele>
        <time>2021-07-28T06:05:03Z</time>
      </trkpt>
      <trkpt lat="49.43984" lon="5.82894">
        <ele>354</ele>
        <time>2021-07-28T06:05:04Z</time>
      </trkpt>
      <trkpt lat="49.43985" lon="5.82896">
        <ele>354</ele>
        <time>2021-07-28T06:05:05Z</time>
      </trkpt>
      <trkpt lat="49.43986" lon="5.82899">
        <ele>354</ele>
        <time>2021-07-28T06:05:06Z</time>
      </trkpt>
      <trkpt lat="49.43988" lon="5.82904">
        <ele>354.1</ele>
        <time>2021-07-28T06:05:07Z</time>
      </trkpt>
      <trkpt lat="49.43988" lon="5.82906">
        <ele>354.2</ele>
        <time>2021-07-28T06:05:08Z</time>
      </trkpt>
      <trkpt lat="49.43991" lon="5.82916">
        <ele>354.4</ele>
        <time>2021-07-28T06:05:10Z</time>
      </trkpt>
      <trkpt lat="49.43995" lon="5.82926">
        <ele>354.6</ele>
        <time>2021-07-28T06:05:12Z</time>
      </trkpt>
      <trkpt lat="49.44" lon="5.82936">
        <ele>354.8</ele>
        <time>2021-07-28T06:05:14Z</time>
      </trkpt>
      <trkpt lat="49.44003" lon="5.82942">
        <ele>354.9</ele>
        <time>2021-07-28T06:05:15Z</time>
      </trkpt>
      <trkpt lat="49.44008" lon="5.8295">
        <ele>355.1</ele>
        <time>2021-07-28T06:05:17Z</time>
      </trkpt>
      <trkpt lat="49.44012" lon="5.82956">
        <ele>355.2</ele>
        <time>2021-07-28T06:05:18Z</time>
      </trkpt>
      <trkpt lat="49.44015" lon="5.82964">
        <ele>355.3</ele>
        <time>2021-07-28T06:05:20Z</time>
      </trkpt>
      <trkpt lat="49.44017" lon="5.82969">
        <ele>355.4</ele>
        <time>2021-07-28T06:05:21Z</time>
      </trkpt>
      <trkpt lat="49.44022" lon="5.82976">
        <ele>355.6</ele>
        <time>2021-07-28T06:05:22Z</time>
      </trkpt>
      <trkpt lat="49.44026" lon="5.82979">
        <ele>355.6</ele>
        <time>2021-07-28T06:05:23Z</time>
      </trkpt>
      <trkpt lat="49.44032" lon="5.82984">
        <ele>355.8</ele>
        <time>2021-07-28T06:05:25Z</time>
      </trkpt>
      <trkpt lat="49.44036" lon="5.82988">
        <ele>355.9</ele>
        <time>2021-07-28T06:05:27Z</time>
      </trkpt>
      <trkpt lat="49.44039" lon="5.82991">
        <ele>356</ele>
        <time>2021-07-28T06:05:28Z</time>
      </trkpt>
      <trkpt lat="49.44039" lon="5.82992">
        <ele>356</ele>
        <time>2021-07-28T06:05:29Z</time>
      </trkpt>
      <trkpt lat="49.44041" lon="5.82994">
        <ele>356.1</ele>
        <time>2021-07-28T06:05:30Z</time>
      </trkpt>
      <trkpt lat="49.44042" lon="5.82996">
        <ele>356.1</ele>
        <time>2021-07-28T06:05:31Z</time>
      </trkpt>
      <trkpt lat="49.44044" lon="5.82997">
        <ele>356.2</ele>
        <time>2021-07-28T06:05:32Z</time>
      </trkpt>
      <trkpt lat="49.44047" lon="5.82997">
        <ele>356.3</ele>
        <time>2021-07-28T06:05:34Z</time>
      </trkpt>
      <trkpt lat="49.44049" lon="5.82999">
        <ele>356.4</ele>
        <time>2021-07-28T06:05:35Z</time>
      </trkpt>
      <trkpt lat="49.44052" lon="5.83002">
        <ele>356.5</ele>
        <time>2021-07-28T06:05:37Z</time>
      </trkpt>
      <trkpt lat="49.44053" lon="5.83003">
        <ele>356.5</ele>
        <time>2021-07-28T06:05:38Z</time>
      </trkpt>
      <trkpt lat="49.44056" lon="5.83003">
        <ele>356.6</ele>
        <time>2021-07-28T06:05:40Z</time>
      </trkpt>
      <trkpt lat="49.44057" lon="5.83004">
        <ele>356.7</ele>
        <time>2021-07-28T06:05:41Z</time>
      </trkpt>
      <trkpt lat="49.4406" lon="5.83004">
        <ele>356.8</ele>
        <time>2021-07-28T06:05:42Z</time>
      </trkpt>
      <trkpt lat="49.44061" lon="5.83004">
        <ele>356.8</ele>
        <time>2021-07-28T06:05:43Z</time>
      </trkpt>
      <trkpt lat="49.44065" lon="5.83005">
        <ele>356.9</ele>
        <time>2021-07-28T06:05:44Z</time>
      </trkpt>
      <trkpt lat="49.44066" lon="5.83005">
        <ele>357</ele>
        <time>2021-07-28T06:05:45Z</time>
      </trkpt>
      <trkpt lat="49.44068" lon="5.83007">
        <ele>357</ele>
        <time>2021-07-28T06:05:46Z</time>
      </trkpt>
      <trkpt lat="49.4407" lon="5.83008">
        <ele>357.1</ele>
        <time>2021-07-28T06:05:48Z</time>
      </trkpt>
      <trkpt lat="49.44074" lon="5.8301">
        <ele>357.2</ele>
        <time>2021-07-28T06:05:49Z</time>
      </trkpt>
      <trkpt lat="49.44075" lon="5.83011">
        <ele>357.3</ele>
        <time>2021-07-28T06:05:50Z</time>
      </trkpt>
      <trkpt lat="49.44078" lon="5.83013">
        <ele>357.4</ele>
        <time>2021-07-28T06:05:52Z</time>
      </trkpt>
      <trkpt lat="49.44081" lon="5.83015">
        <ele>357.5</ele>
        <time>2021-07-28T06:05:53Z</time>
      </trkpt>
      <trkpt lat="49.44083" lon="5.83019">
        <ele>357.7</ele>
        <time>2021-07-28T06:05:54Z</time>
      </trkpt>
      <trkpt lat="49.44084" lon="5.8302">
        <ele>357.7</ele>
        <time>2021-07-28T06:05:55Z</time>
      </trkpt>
      <trkpt lat="49.44086" lon="5.83023">
        <ele>357.8</ele>
        <time>2021-07-28T06:05:57Z</time>
      </trkpt>
      <trkpt lat="49.44089" lon="5.83027">
        <ele>358</ele>
        <time>2021-07-28T06:05:58Z</time>
      </trkpt>
      <trkpt lat="49.44092" lon="5.83034">
        <ele>358.3</ele>
        <time>2021-07-28T06:06:00Z</time>
      </trkpt>
      <trkpt lat="49.44093" lon="5.83036">
        <ele>358.3</ele>
        <time>2021-07-28T06:06:01Z</time>
      </trkpt>
      <trkpt lat="49.44093" lon="5.83038">
        <ele>358.4</ele>
        <time>2021-07-28T06:06:02Z</time>
      </trkpt>
      <trkpt lat="49.44094" lon="5.83042">
        <ele>358.6</ele>
        <time>2021-07-28T06:06:03Z</time>
      </trkpt>
      <trkpt lat="49.44094" lon="5.83047">
        <ele>358.7</ele>
        <time>2021-07-28T06:06:04Z</time>
      </trkpt>
      <trkpt lat="49.44095" lon="5.83051">
        <ele>358.9</ele>
        <time>2021-07-28T06:06:05Z</time>
      </trkpt>
      <trkpt lat="49.44096" lon="5.83056">
        <ele>359</ele>
        <time>2021-07-28T06:06:06Z</time>
      </trkpt>
      <trkpt lat="49.44097" lon="5.8306">
        <ele>359.2</ele>
        <time>2021-07-28T06:06:07Z</time>
      </trkpt>
      <trkpt lat="49.441" lon="5.83066">
        <ele>359.4</ele>
        <time>2021-07-28T06:06:09Z</time>
      </trkpt>
      <trkpt lat="49.44101" lon="5.8307">
        <ele>359.6</ele>
        <time>2021-07-28T06:06:10Z</time>
      </trkpt>
      <trkpt lat="49.44104" lon="5.83072">
        <ele>359.7</ele>
        <time>2021-07-28T06:06:11Z</time>
      </trkpt>
      <trkpt lat="49.44106" lon="5.83074">
        <ele>359.8</ele>
        <time>2021-07-28T06:06:12Z</time>
      </trkpt>
      <trkpt lat="49.44109" lon="5.83077">
        <ele>360</ele>
        <time>2021-07-28T06:06:14Z</time>
      </trkpt>
      <trkpt lat="49.44111" lon="5.83079">
        <ele>360.1</ele>
        <time>2021-07-28T06:06:15Z</time>
      </trkpt>
      <trkpt lat="49.44113" lon="5.8308">
        <ele>360.2</ele>
        <time>2021-07-28T06:06:16Z</time>
      </trkpt>
      <trkpt lat="49.44116" lon="5.8308">
        <ele>360.3</ele>
        <time>2021-07-28T06:06:18Z</time>
      </trkpt>
      <trkpt lat="49.4412" lon="5.8308">
        <ele>360.5</ele>
        <time>2021-07-28T06:06:19Z</time>
      </trkpt>
      <trkpt lat="49.44124" lon="5.83079">
        <ele>360.7</ele>
        <time>2021-07-28T06:06:20Z</time>
      </trkpt>
      <trkpt lat="49.44128" lon="5.83078">
        <ele>360.8</ele>
        <time>2021-07-28T06:06:21Z</time>
      </trkpt>
      <trkpt lat="49.44132" lon="5.83082">
        <ele>361</ele>
        <time>2021-07-28T06:06:23Z</time>
      </trkpt>
      <trkpt lat="49.44132" lon="5.83086">
        <ele>361</ele>
        <time>2021-07-28T06:06:24Z</time>
      </trkpt>
      <trkpt lat="49.44132" lon="5.83088">
        <ele>361.1</ele>
        <time>2021-07-28T06:06:26Z</time>
      </trkpt>
      <trkpt lat="49.44134" lon="5.83091">
        <ele>361.2</ele>
        <time>2021-07-28T06:06:27Z</time>
      </trkpt>
      <trkpt lat="49.44134" lon="5.83092">
        <ele>361.2</ele>
        <time>2021-07-28T06:06:28Z</time>
      </trkpt>
      <trkpt lat="49.44135" lon="5.83093">
        <ele>361.3</ele>
        <time>2021-07-28T06:06:29Z</time>
      </trkpt>
      <trkpt lat="49.44137" lon="5.83097">
        <ele>361.4</ele>
        <time>2021-07-28T06:06:31Z</time>
      </trkpt>
      <trkpt lat="49.44139" lon="5.83102">
        <ele>361.5</ele>
        <time>2021-07-28T06:06:32Z</time>
      </trkpt>
      <trkpt lat="49.4414" lon="5.83105">
        <ele>361.6</ele>
        <time>2021-07-28T06:06:33Z</time>
      </trkpt>
      <trkpt lat="49.4414" lon="5.83112">
        <ele>361.7</ele>
        <time>2021-07-28T06:06:35Z</time>
      </trkpt>
      <trkpt lat="49.44141" lon="5.83117">
        <ele>361.8</ele>
        <time>2021-07-28T06:06:36Z</time>
      </trkpt>
      <trkpt lat="49.4414" lon="5.83122">
        <ele>361.9</ele>
        <time>2021-07-28T06:06:38Z</time>
      </trkpt>
      <trkpt lat="49.4414" lon="5.83126">
        <ele>362</ele>
        <time>2021-07-28T06:06:39Z</time>
      </trkpt>
      <trkpt lat="49.44142" lon="5.83128">
        <ele>362</ele>
        <time>2021-07-28T06:06:40Z</time>
      </trkpt>
      <trkpt lat="49.44142" lon="5.83128">
        <ele>362</ele>
        <time>2021-07-28T06:06:42Z</time>
      </trkpt>
      <trkpt lat="49.44143" lon="5.83129">
        <ele>362</ele>
        <time>2021-07-28T06:06:43Z</time>
      </trkpt>
      <trkpt lat="49.44144" lon="5.83129">
        <ele>362.1</ele>
        <time>2021-07-28T06:06:44Z</time>
      </trkpt>
      <trkpt lat="49.44146" lon="5.83131">
        <ele>362.1</ele>
        <time>2021-07-28T06:06:45Z</time>
      </trkpt>
      <trkpt lat="49.44146" lon="5.83133">
        <ele>362.1</ele>
        <time>2021-07-28T06:06:46Z</time>
      </trkpt>
      <trkpt lat="49.44147" lon="5.83134">
        <ele>362.2</ele>
        <time>2021-07-28T06:06:47Z</time>
      </trkpt>
      <trkpt lat="49.4415" lon="5.83138">
        <ele>362.3</ele>
        <time>2021-07-28T06:06:49Z</time>
      </trkpt>
      <trkpt lat="49.44152" lon="5.83141">
        <ele>362.4</ele>
        <time>2021-07-28T06:06:50Z</time>
      </trkpt>
      <trkpt lat="49.44154" lon="5.83145">
        <ele>362.4</ele>
        <time>2021-07-28T06:06:51Z</time>
      </trkpt>
      <trkpt lat="49.44154" lon="5.83147">
        <ele>362.5</ele>
        <time>2021-07-28T06:06:52Z</time>
      </trkpt>
      <trkpt lat="49.44155" lon="5.83151">
        <ele>362.6</ele>
        <time>2021-07-28T06:06:53Z</time>
      </trkpt>
      <trkpt lat="49.44155" lon="5.83157">
        <ele>362.7</ele>
        <time>2021-07-28T06:06:55Z</time>
      </trkpt>
      <trkpt lat="49.44157" lon="5.83161">
        <ele>362.7</ele>
        <time>2021-07-28T06:06:57Z</time>
      </trkpt>
      <trkpt lat="49.44159" lon="5.83164">
        <ele>362.8</ele>
        <time>2021-07-28T06:06:58Z</time>
      </trkpt>
      <trkpt lat="49.44161" lon="5.83168">
        <ele>362.9</ele>
        <time>2021-07-28T06:07:00Z</time>
      </trkpt>
      <trkpt lat="49.44163" lon="5.83173">
        <ele>363</ele>
        <time>2021-07-28T06:07:01Z</time>
      </trkpt>
      <trkpt lat="49.44166" lon="5.83179">
        <ele>363.1</ele>
        <time>2021-07-28T06:07:03Z</time>
      </trkpt>
      <trkpt lat="49.44167" lon="5.83184">
        <ele>363.1</ele>
        <time>2021-07-28T06:07:04Z</time>
      </trkpt>
      <trkpt lat="49.44168" lon="5.83188">
        <ele>363.2</ele>
        <time>2021-07-28T06:07:05Z</time>
      </trkpt>
      <trkpt lat="49.44171" lon="5.83191">
        <ele>363.2</ele>
        <time>2021-07-28T06:07:06Z</time>
      </trkpt>
      <trkpt lat="49.44174" lon="5.83194">
        <ele>363.3</ele>
        <time>2021-07-28T06:07:08Z</time>
      </trkpt>
      <trkpt lat="49.44175" lon="5.83195">
        <ele>363.4</ele>
        <time>2021-07-28T06:07:09Z</time>
      </trkpt>
      <trkpt lat="49.44176" lon="5.83196">
        <ele>363.4</ele>
        <time>2021-07-28T06:07:10Z</time>
      </trkpt>
      <trkpt lat="49.44179" lon="5.83199">
        <ele>363.5</ele>
        <time>2021-07-28T06:07:11Z</time>
      </trkpt>
      <trkpt lat="49.44181" lon="5.83202">
        <ele>363.5</ele>
        <time>2021-07-28T06:07:13Z</time>
      </trkpt>
      <trkpt lat="49.44183" lon="5.83207">
        <ele>363.6</ele>
        <time>2021-07-28T06:07:15Z</time>
      </trkpt>
      <trkpt lat="49.44183" lon="5.83215">
        <ele>363.8</ele>
        <time>2021-07-28T06:07:17Z</time>
      </trkpt>
      <trkpt lat="49.44184" lon="5.83221">
        <ele>363.9</ele>
        <time>2021-07-28T06:07:18Z</time>
      </trkpt>
      <trkpt lat="49.44185" lon="5.83223">
        <ele>363.9</ele>
        <time>2021-07-28T06:07:19Z</time>
      </trkpt>
      <trkpt lat="49.44185" lon="5.83226">
        <ele>364</ele>
        <time>2021-07-28T06:07:21Z</time>
      </trkpt>
      <trkpt lat="49.44188" lon="5.83233">
        <ele>364.2</ele>
        <time>2021-07-28T06:07:23Z</time>
      </trkpt>
      <trkpt lat="49.4419" lon="5.83237">
        <ele>364.2</ele>
        <time>2021-07-28T06:07:24Z</time>
      </trkpt>
      <trkpt lat="49.4419" lon="5.83242">
        <ele>364.3</ele>
        <time>2021-07-28T06:07:25Z</time>
      </trkpt>
      <trkpt lat="49.4419" lon="5.83244">
        <ele>364.4</ele>
        <time>2021-07-28T06:07:26Z</time>
      </trkpt>
      <trkpt lat="49.44192" lon="5.83251">
        <ele>364.5</ele>
        <time>2021-07-28T06:07:28Z</time>
      </trkpt>
      <trkpt lat="49.44193" lon="5.83253">
        <ele>364.5</ele>
        <time>2021-07-28T06:07:29Z</time>
      </trkpt>
      <trkpt lat="49.44193" lon="5.83255">
        <ele>364.5</ele>
        <time>2021-07-28T06:07:30Z</time>
      </trkpt>
      <trkpt lat="49.44194" lon="5.83256">
        <ele>364.6</ele>
        <time>2021-07-28T06:07:31Z</time>
      </trkpt>
      <trkpt lat="49.44195" lon="5.83258">
        <ele>364.6</ele>
        <time>2021-07-28T06:07:32Z</time>
      </trkpt>
      <trkpt lat="49.44196" lon="5.83261">
        <ele>364.7</ele>
        <time>2021-07-28T06:07:33Z</time>
      </trkpt>
      <trkpt lat="49.44198" lon="5.83265">
        <ele>364.7</ele>
        <time>2021-07-28T06:07:35Z</time>
      </trkpt>
      <trkpt lat="49.442" lon="5.8327">
        <ele>364.8</ele>
        <time>2021-07-28T06:07:37Z</time>
      </trkpt>
      <trkpt lat="49.44202" lon="5.83276">
        <ele>364.9</ele>
        <time>2021-07-28T06:07:39Z</time>
      </trkpt>
      <trkpt lat="49.44204" lon="5.83281">
        <ele>365</ele>
        <time>2021-07-28T06:07:40Z</time>
      </trkpt>
      <trkpt lat="49.44205" lon="5.83282">
        <ele>365</ele>
        <time>2021-07-28T06:07:41Z</time>
      </trkpt>
      <trkpt lat="49.4421" lon="5.83286">
        <ele>365.2</ele>
        <time>2021-07-28T06:07:43Z</time>
      </trkpt>
      <trkpt lat="49.44214" lon="5.83291">
        <ele>365.3</ele>
        <time>2021-07-28T06:07:45Z</time>
      </trkpt>
      <trkpt lat="49.44218" lon="5.83296">
        <ele>365.5</ele>
        <time>2021-07-28T06:07:47Z</time>
      </trkpt>
      <trkpt lat="49.44221" lon="5.83299">
        <ele>365.6</ele>
        <time>2021-07-28T06:07:48Z</time>
      </trkpt>
      <trkpt lat="49.44224" lon="5.83304">
        <ele>365.8</ele>
        <time>2021-07-28T06:07:50Z</time>
      </trkpt>
      <trkpt lat="49.44226" lon="5.83308">
        <ele>365.9</ele>
        <time>2021-07-28T06:07:51Z</time>
      </trkpt>
      <trkpt lat="49.44226" lon="5.8331">
        <ele>366</ele>
        <time>2021-07-28T06:07:52Z</time>
      </trkpt>
      <trkpt lat="49.44228" lon="5.83314">
        <ele>366.1</ele>
        <time>2021-07-28T06:07:54Z</time>
      </trkpt>
      <trkpt lat="49.4423" lon="5.83319">
        <ele>366.3</ele>
        <time>2021-07-28T06:07:55Z</time>
      </trkpt>
      <trkpt lat="49.44231" lon="5.8332">
        <ele>366.3</ele>
        <time>2021-07-28T06:07:56Z</time>
      </trkpt>
      <trkpt lat="49.44235" lon="5.83325">
        <ele>366.5</ele>
        <time>2021-07-28T06:07:58Z</time>
      </trkpt>
      <trkpt lat="49.44238" lon="5.83329">
        <ele>366.6</ele>
        <time>2021-07-28T06:07:59Z</time>
      </trkpt>
      <trkpt lat="49.44239" lon="5.8333">
        <ele>366.6</ele>
        <time>2021-07-28T06:08:00Z</time>
      </trkpt>
      <trkpt lat="49.44241" lon="5.83335">
        <ele>366.8</ele>
        <time>2021-07-28T06:08:02Z</time>
      </trkpt>
      <trkpt lat="49.44242" lon="5.83338">
        <ele>366.9</ele>
        <time>2021-07-28T06:08:04Z</time>
      </trkpt>
      <trkpt lat="49.44241" lon="5.83339">
        <ele>366.9</ele>
        <time>2021-07-28T06:08:05Z</time>
      </trkpt>
      <trkpt lat="49.44242" lon="5.83345">
        <ele>367</ele>
        <time>2021-07-28T06:08:07Z</time>
      </trkpt>
      <trkpt lat="49.44243" lon="5.83347">
        <ele>367.1</ele>
        <time>2021-07-28T06:08:08Z</time>
      </trkpt>
      <trkpt lat="49.44245" lon="5.83353">
        <ele>367.3</ele>
        <time>2021-07-28T06:08:10Z</time>
      </trkpt>
      <trkpt lat="49.44247" lon="5.83358">
        <ele>367.4</ele>
        <time>2021-07-28T06:08:11Z</time>
      </trkpt>
      <trkpt lat="49.44246" lon="5.83361">
        <ele>367.4</ele>
        <time>2021-07-28T06:08:12Z</time>
      </trkpt>
      <trkpt lat="49.44246" lon="5.83363">
        <ele>367.5</ele>
        <time>2021-07-28T06:08:14Z</time>
      </trkpt>
      <trkpt lat="49.44246" lon="5.83365">
        <ele>367.5</ele>
        <time>2021-07-28T06:08:15Z</time>
      </trkpt>
      <trkpt lat="49.44246" lon="5.83369">
        <ele>367.6</ele>
        <time>2021-07-28T06:08:16Z</time>
      </trkpt>
      <trkpt lat="49.44247" lon="5.83372">
        <ele>367.7</ele>
        <time>2021-07-28T06:08:17Z</time>
      </trkpt>
      <trkpt lat="49.44247" lon="5.83374">
        <ele>367.7</ele>
        <time>2021-07-28T06:08:18Z</time>
      </trkpt>
      <trkpt lat="49.44248" lon="5.83377">
        <ele>367.8</ele>
        <time>2021-07-28T06:08:19Z</time>
      </trkpt>
      <trkpt lat="49.4425" lon="5.83382">
        <ele>367.9</ele>
        <time>2021-07-28T06:08:21Z</time>
      </trkpt>
      <trkpt lat="49.44252" lon="5.83389">
        <ele>368</ele>
        <time>2021-07-28T06:08:23Z</time>
      </trkpt>
      <trkpt lat="49.44252" lon="5.83395">
        <ele>368.2</ele>
        <time>2021-07-28T06:08:24Z</time>
      </trkpt>
      <trkpt lat="49.44253" lon="5.83397">
        <ele>368.2</ele>
        <time>2021-07-28T06:08:25Z</time>
      </trkpt>
      <trkpt lat="49.44253" lon="5.834">
        <ele>368.3</ele>
        <time>2021-07-28T06:08:26Z</time>
      </trkpt>
      <trkpt lat="49.44255" lon="5.83404">
        <ele>368.4</ele>
        <time>2021-07-28T06:08:28Z</time>
      </trkpt>
      <trkpt lat="49.44257" lon="5.83408">
        <ele>368.5</ele>
        <time>2021-07-28T06:08:29Z</time>
      </trkpt>
      <trkpt lat="49.44257" lon="5.83409">
        <ele>368.5</ele>
        <time>2021-07-28T06:08:30Z</time>
      </trkpt>
      <trkpt lat="49.44259" lon="5.83414">
        <ele>368.7</ele>
        <time>2021-07-28T06:08:32Z</time>
      </trkpt>
      <trkpt lat="49.44259" lon="5.83416">
        <ele>368.7</ele>
        <time>2021-07-28T06:08:33Z</time>
      </trkpt>
      <trkpt lat="49.4426" lon="5.83417">
        <ele>368.7</ele>
        <time>2021-07-28T06:08:35Z</time>
      </trkpt>
      <trkpt lat="49.4426" lon="5.8342">
        <ele>368.8</ele>
        <time>2021-07-28T06:08:36Z</time>
      </trkpt>
      <trkpt lat="49.44261" lon="5.83425">
        <ele>368.9</ele>
        <time>2021-07-28T06:08:37Z</time>
      </trkpt>
      <trkpt lat="49.44262" lon="5.83427">
        <ele>369</ele>
        <time>2021-07-28T06:08:38Z</time>
      </trkpt>
      <trkpt lat="49.44263" lon="5.83427">
        <ele>369</ele>
        <time>2021-07-28T06:08:39Z</time>
      </trkpt>
      <trkpt lat="49.44264" lon="5.83427">
        <ele>369</ele>
        <time>2021-07-28T06:08:40Z</time>
      </trkpt>
      <trkpt lat="49.44265" lon="5.83427">
        <ele>369.1</ele>
        <time>2021-07-28T06:08:41Z</time>
      </trkpt>
      <trkpt lat="49.44266" lon="5.83427">
        <ele>369.1</ele>
        <time>2021-07-28T06:08:42Z</time>
      </trkpt>
      <trkpt lat="49.44267" lon="5.83429">
        <ele>369.2</ele>
        <time>2021-07-28T06:08:43Z</time>
      </trkpt>
      <trkpt lat="49.44269" lon="5.8343">
        <ele>369.2</ele>
        <time>2021-07-28T06:08:44Z</time>
      </trkpt>
      <trkpt lat="49.44272" lon="5.83432">
        <ele>369.3</ele>
        <time>2021-07-28T06:08:46Z</time>
      </trkpt>
      <trkpt lat="49.44273" lon="5.83434">
        <ele>369.4</ele>
        <time>2021-07-28T06:08:47Z</time>
      </trkpt>
      <trkpt lat="49.44274" lon="5.83436">
        <ele>369.5</ele>
        <time>2021-07-28T06:08:49Z</time>
      </trkpt>
      <trkpt lat="49.44277" lon="5.8344">
        <ele>369.6</ele>
        <time>2021-07-28T06:08:50Z</time>
      </trkpt>
      <trkpt lat="49.44278" lon="5.83441">
        <ele>369.6</ele>
        <time>2021-07-28T06:08:51Z</time>
      </trkpt>
      <trkpt lat="49.44279" lon="5.83446">
        <ele>369.8</ele>
        <time>2021-07-28T06:08:52Z</time>
      </trkpt>
      <trkpt lat="49.4428" lon="5.8345">
        <ele>369.9</ele>
        <time>2021-07-28T06:08:53Z</time>
      </trkpt>
      <trkpt lat="49.44281" lon="5.83452">
        <ele>369.9</ele>
        <time>2021-07-28T06:08:54Z</time>
      </trkpt>
      <trkpt lat="49.44281" lon="5.83457">
        <ele>370</ele>
        <time>2021-07-28T06:08:56Z</time>
      </trkpt>
      <trkpt lat="49.44282" lon="5.83461">
        <ele>370.1</ele>
        <time>2021-07-28T06:08:57Z</time>
      </trkpt>
      <trkpt lat="49.44282" lon="5.83465">
        <ele>370.2</ele>
        <time>2021-07-28T06:08:58Z</time>
      </trkpt>
      <trkpt lat="49.44283" lon="5.83471">
        <ele>370.4</ele>
        <time>2021-07-28T06:09:00Z</time>
      </trkpt>
      <trkpt lat="49.44284" lon="5.83474">
        <ele>370.4</ele>
        <time>2021-07-28T06:09:01Z</time>
      </trkpt>
      <trkpt lat="49.44284" lon="5.83476">
        <ele>370.5</ele>
        <time>2021-07-28T06:09:02Z</time>
      </trkpt>
      <trkpt lat="49.44285" lon="5.83481">
        <ele>370.6</ele>
        <time>2021-07-28T06:09:04Z</time>
      </trkpt>
      <trkpt lat="49.44285" lon="5.83483">
        <ele>370.6</ele>
        <time>2021-07-28T06:09:05Z</time>
      </trkpt>
      <trkpt lat="49.44287" lon="5.83487">
        <ele>370.7</ele>
        <time>2021-07-28T06:09:07Z</time>
      </trkpt>
      <trkpt lat="49.44287" lon="5.83489">
        <ele>370.7</ele>
        <time>2021-07-28T06:09:08Z</time>
      </trkpt>
      <trkpt lat="49.44287" lon="5.83492">
        <ele>370.8</ele>
        <time>2021-07-28T06:09:09Z</time>
      </trkpt>
      <trkpt lat="49.44287" lon="5.83495">
        <ele>370.8</ele>
        <time>2021-07-28T06:09:11Z</time>
      </trkpt>
      <trkpt lat="49.44289" lon="5.83501">
        <ele>370.9</ele>
        <time>2021-07-28T06:09:12Z</time>
      </trkpt>
      <trkpt lat="49.44292" lon="5.83505">
        <ele>371.1</ele>
        <time>2021-07-28T06:09:14Z</time>
      </trkpt>
      <trkpt lat="49.44295" lon="5.83509">
        <ele>371.2</ele>
        <time>2021-07-28T06:09:15Z</time>
      </trkpt>
      <trkpt lat="49.44297" lon="5.83512">
        <ele>371.2</ele>
        <time>2021-07-28T06:09:16Z</time>
      </trkpt>
      <trkpt lat="49.44298" lon="5.83514">
        <ele>371.3</ele>
        <time>2021-07-28T06:09:17Z</time>
      </trkpt>
      <trkpt lat="49.44299" lon="5.83517">
        <ele>371.3</ele>
        <time>2021-07-28T06:09:19Z</time>
      </trkpt>
      <trkpt lat="49.44301" lon="5.83521">
        <ele>371.4</ele>
        <time>2021-07-28T06:09:20Z</time>
      </trkpt>
      <trkpt lat="49.44303" lon="5.83527">
        <ele>371.5</ele>
        <time>2021-07-28T06:09:22Z</time>
      </trkpt>
      <trkpt lat="49.44303" lon="5.83533">
        <ele>371.6</ele>
        <time>2021-07-28T06:09:24Z</time>
      </trkpt>
      <trkpt lat="49.44303" lon="5.83539">
        <ele>371.7</ele>
        <time>2021-07-28T06:09:25Z</time>
      </trkpt>
      <trkpt lat="49.44304" lon="5.83546">
        <ele>371.8</ele>
        <time>2021-07-28T06:09:27Z</time>
      </trkpt>
      <trkpt lat="49.44305" lon="5.83551">
        <ele>371.9</ele>
        <time>2021-07-28T06:09:28Z</time>
      </trkpt>
      <trkpt lat="49.44305" lon="5.83554">
        <ele>371.9</ele>
        <time>2021-07-28T06:09:29Z</time>
      </trkpt>
      <trkpt lat="49.44306" lon="5.83556">
        <ele>372</ele>
        <time>2021-07-28T06:09:30Z</time>
      </trkpt>
      <trkpt lat="49.44308" lon="5.83559">
        <ele>372.1</ele>
        <time>2021-07-28T06:09:31Z</time>
      </trkpt>
      <trkpt lat="49.44309" lon="5.83559">
        <ele>372.1</ele>
        <time>2021-07-28T06:09:32Z</time>
      </trkpt>
      <trkpt lat="49.44312" lon="5.83562">
        <ele>372.2</ele>
        <time>2021-07-28T06:09:34Z</time>
      </trkpt>
      <trkpt lat="49.44314" lon="5.83565">
        <ele>372.3</ele>
        <time>2021-07-28T06:09:35Z</time>
      </trkpt>
      <trkpt lat="49.44315" lon="5.83566">
        <ele>372.3</ele>
        <time>2021-07-28T06:09:36Z</time>
      </trkpt>
      <trkpt lat="49.44318" lon="5.83572">
        <ele>372.4</ele>
        <time>2021-07-28T06:09:38Z</time>
      </trkpt>
      <trkpt lat="49.44319" lon="5.83574">
        <ele>372.5</ele>
        <time>2021-07-28T06:09:39Z</time>
      </trkpt>
      <trkpt lat="49.44321" lon="5.83576">
        <ele>372.5</ele>
        <time>2021-07-28T06:09:40Z</time>
      </trkpt>
      <trkpt lat="49.44324" lon="5.8358">
        <ele>372.7</ele>
        <time>2021-07-28T06:09:41Z</time>
      </trkpt>
      <trkpt lat="49.44324" lon="5.83582">
        <ele>372.7</ele>
        <time>2021-07-28T06:09:42Z</time>
      </trkpt>
      <trkpt lat="49.44327" lon="5.83586">
        <ele>372.9</ele>
        <time>2021-07-28T06:09:43Z</time>
      </trkpt>
      <trkpt lat="49.44328" lon="5.83587">
        <ele>372.9</ele>
        <time>2021-07-28T06:09:44Z</time>
      </trkpt>
      <trkpt lat="49.44331" lon="5.83592">
        <ele>373.1</ele>
        <time>2021-07-28T06:09:46Z</time>
      </trkpt>
      <trkpt lat="49.44333" lon="5.83595">
        <ele>373.2</ele>
        <time>2021-07-28T06:09:47Z</time>
      </trkpt>
      <trkpt lat="49.44335" lon="5.83598">
        <ele>373.3</ele>
        <time>2021-07-28T06:09:48Z</time>
      </trkpt>
      <trkpt lat="49.44337" lon="5.83602">
        <ele>373.5</ele>
        <time>2021-07-28T06:09:50Z</time>
      </trkpt>
      <trkpt lat="49.44338" lon="5.83606">
        <ele>373.6</ele>
        <time>2021-07-28T06:09:51Z</time>
      </trkpt>
      <trkpt lat="49.4434" lon="5.83611">
        <ele>373.7</ele>
        <time>2021-07-28T06:09:53Z</time>
      </trkpt>
      <trkpt lat="49.44339" lon="5.83615">
        <ele>373.8</ele>
        <time>2021-07-28T06:09:54Z</time>
      </trkpt>
      <trkpt lat="49.44339" lon="5.83618">
        <ele>373.9</ele>
        <time>2021-07-28T06:09:55Z</time>
      </trkpt>
      <trkpt lat="49.4434" lon="5.83626">
        <ele>374.1</ele>
        <time>2021-07-28T06:09:57Z</time>
      </trkpt>
      <trkpt lat="49.4434" lon="5.83631">
        <ele>374.3</ele>
        <time>2021-07-28T06:09:58Z</time>
      </trkpt>
      <trkpt lat="49.44339" lon="5.83638">
        <ele>374.4</ele>
        <time>2021-07-28T06:10:00Z</time>
      </trkpt>
      <trkpt lat="49.44338" lon="5.83644">
        <ele>374.6</ele>
        <time>2021-07-28T06:10:01Z</time>
      </trkpt>
      <trkpt lat="49.44338" lon="5.83647">
        <ele>374.7</ele>
        <time>2021-07-28T06:10:02Z</time>
      </trkpt>
      <trkpt lat="49.44338" lon="5.83652">
        <ele>374.8</ele>
        <time>2021-07-28T06:10:04Z</time>
      </trkpt>
      <trkpt lat="49.44338" lon="5.83653">
        <ele>374.8</ele>
        <time>2021-07-28T06:10:05Z</time>
      </trkpt>
      <trkpt lat="49.44338" lon="5.83655">
        <ele>374.9</ele>
        <time>2021-07-28T06:10:06Z</time>
      </trkpt>
      <trkpt lat="49.44338" lon="5.83658">
        <ele>374.9</ele>
        <time>2021-07-28T06:10:08Z</time>
      </trkpt>
      <trkpt lat="49.44338" lon="5.83661">
        <ele>375</ele>
        <time>2021-07-28T06:10:10Z</time>
      </trkpt>
      <trkpt lat="49.44338" lon="5.83663">
        <ele>375</ele>
        <time>2021-07-28T06:10:11Z</time>
      </trkpt>
      <trkpt lat="49.44338" lon="5.83666">
        <ele>375.1</ele>
        <time>2021-07-28T06:10:13Z</time>
      </trkpt>
      <trkpt lat="49.44338" lon="5.83668">
        <ele>375.1</ele>
        <time>2021-07-28T06:10:14Z</time>
      </trkpt>
      <trkpt lat="49.44361" lon="5.83747">
        <ele>377</ele>
        <time>2021-07-28T06:10:53Z</time>
      </trkpt>
      <trkpt lat="49.44362" lon="5.83751">
        <ele>377</ele>
        <time>2021-07-28T06:10:54Z</time>
      </trkpt>
      <trkpt lat="49.44365" lon="5.83755">
        <ele>377</ele>
        <time>2021-07-28T06:10:56Z</time>
      </trkpt>
      <trkpt lat="49.44366" lon="5.83758">
        <ele>377.1</ele>
        <time>2021-07-28T06:10:57Z</time>
      </trkpt>
      <trkpt lat="49.44369" lon="5.83761">
        <ele>377.1</ele>
        <time>2021-07-28T06:10:59Z</time>
      </trkpt>
      <trkpt lat="49.4437" lon="5.83763">
        <ele>377.1</ele>
        <time>2021-07-28T06:11:00Z</time>
      </trkpt>
      <trkpt lat="49.44373" lon="5.83767">
        <ele>377.2</ele>
        <time>2021-07-28T06:11:02Z</time>
      </trkpt>
      <trkpt lat="49.44378" lon="5.83772">
        <ele>377.4</ele>
        <time>2021-07-28T06:11:04Z</time>
      </trkpt>
      <trkpt lat="49.4438" lon="5.83775">
        <ele>377.5</ele>
        <time>2021-07-28T06:11:05Z</time>
      </trkpt>
      <trkpt lat="49.44383" lon="5.8378">
        <ele>377.7</ele>
        <time>2021-07-28T06:11:07Z</time>
      </trkpt>
      <trkpt lat="49.44383" lon="5.83783">
        <ele>377.6</ele>
        <time>2021-07-28T06:11:08Z</time>
      </trkpt>
      <trkpt lat="49.44382" lon="5.83787">
        <ele>377.4</ele>
        <time>2021-07-28T06:11:10Z</time>
      </trkpt>
      <trkpt lat="49.44381" lon="5.83788">
        <ele>377.4</ele>
        <time>2021-07-28T06:11:11Z</time>
      </trkpt>
      <trkpt lat="49.44377" lon="5.838">
        <ele>377.2</ele>
        <time>2021-07-28T06:11:13Z</time>
      </trkpt>
      <trkpt lat="49.44343" lon="5.84207">
        <ele>383.5</ele>
        <time>2021-07-28T06:13:00Z</time>
      </trkpt>
      <trkpt lat="49.44345" lon="5.84212">
        <ele>383.6</ele>
        <time>2021-07-28T06:13:01Z</time>
      </trkpt>
      <trkpt lat="49.44347" lon="5.84223">
        <ele>383.7</ele>
        <time>2021-07-28T06:13:03Z</time>
      </trkpt>
      <trkpt lat="49.44348" lon="5.84234">
        <ele>383.8</ele>
        <time>2021-07-28T06:13:04Z</time>
      </trkpt>
      <trkpt lat="49.44348" lon="5.84241">
        <ele>383.7</ele>
        <time>2021-07-28T06:13:05Z</time>
      </trkpt>
      <trkpt lat="49.44348" lon="5.84253">
        <ele>383.8</ele>
        <time>2021-07-28T06:13:07Z</time>
      </trkpt>
      <trkpt lat="49.44348" lon="5.84257">
        <ele>383.8</ele>
        <time>2021-07-28T06:13:08Z</time>
      </trkpt>
      <trkpt lat="49.44346" lon="5.84262">
        <ele>383.7</ele>
        <time>2021-07-28T06:13:10Z</time>
      </trkpt>
      <trkpt lat="49.44345" lon="5.84264">
        <ele>383.6</ele>
        <time>2021-07-28T06:13:11Z</time>
      </trkpt>
      <trkpt lat="49.44344" lon="5.84266">
        <ele>383.6</ele>
        <time>2021-07-28T06:13:12Z</time>
      </trkpt>
      <trkpt lat="49.44344" lon="5.84268">
        <ele>383.6</ele>
        <time>2021-07-28T06:13:14Z</time>
      </trkpt>
      <trkpt lat="49.44343" lon="5.84269">
        <ele>383.4</ele>
        <time>2021-07-28T06:13:15Z</time>
      </trkpt>
      <trkpt lat="49.44343" lon="5.84271">
        <ele>383.4</ele>
        <time>2021-07-28T06:13:16Z</time>
      </trkpt>
      <trkpt lat="49.44345" lon="5.84292">
        <ele>383.8</ele>
        <time>2021-07-28T06:13:17Z</time>
      </trkpt>
      <trkpt lat="49.44347" lon="5.8431">
        <ele>384.1</ele>
        <time>2021-07-28T06:13:46Z</time>
      </trkpt>
      <trkpt lat="49.44348" lon="5.84327">
        <ele>384.5</ele>
        <time>2021-07-28T06:13:47Z</time>
      </trkpt>
      <trkpt lat="49.4435" lon="5.84345">
        <ele>384.8</ele>
        <time>2021-07-28T06:13:48Z</time>
      </trkpt>
      <trkpt lat="49.44349" lon="5.84352">
        <ele>384.8</ele>
        <time>2021-07-28T06:13:50Z</time>
      </trkpt>
      <trkpt lat="49.44349" lon="5.84355">
        <ele>384.8</ele>
        <time>2021-07-28T06:13:51Z</time>
      </trkpt>
      <trkpt lat="49.44349" lon="5.84358">
        <ele>384.8</ele>
        <time>2021-07-28T06:13:52Z</time>
      </trkpt>
      <trkpt lat="49.44348" lon="5.84361">
        <ele>384.8</ele>
        <time>2021-07-28T06:13:53Z</time>
      </trkpt>
      <trkpt lat="49.44348" lon="5.84362">
        <ele>384.8</ele>
        <time>2021-07-28T06:13:55Z</time>
      </trkpt>
      <trkpt lat="49.44348" lon="5.84364">
        <ele>384.7</ele>
        <time>2021-07-28T06:13:56Z</time>
      </trkpt>
      <trkpt lat="49.44347" lon="5.84365">
        <ele>384.7</ele>
        <time>2021-07-28T06:13:57Z</time>
      </trkpt>
      <trkpt lat="49.44346" lon="5.84368">
        <ele>384.7</ele>
        <time>2021-07-28T06:13:59Z</time>
      </trkpt>
      <trkpt lat="49.44346" lon="5.84369">
        <ele>384.6</ele>
        <time>2021-07-28T06:14:00Z</time>
      </trkpt>
      <trkpt lat="49.44345" lon="5.8437">
        <ele>384.6</ele>
        <time>2021-07-28T06:14:01Z</time>
      </trkpt>
      <trkpt lat="49.44345" lon="5.84372">
        <ele>384.6</ele>
        <time>2021-07-28T06:14:03Z</time>
      </trkpt>
      <trkpt lat="49.44337" lon="5.84426">
        <ele>386</ele>
        <time>2021-07-28T06:14:27Z</time>
      </trkpt>
      <trkpt lat="49.44337" lon="5.84433">
        <ele>386.1</ele>
        <time>2021-07-28T06:14:28Z</time>
      </trkpt>
      <trkpt lat="49.44338" lon="5.84443">
        <ele>386.5</ele>
        <time>2021-07-28T06:14:29Z</time>
      </trkpt>
      <trkpt lat="49.44339" lon="5.84453">
        <ele>386.8</ele>
        <time>2021-07-28T06:14:31Z</time>
      </trkpt>
      <trkpt lat="49.44339" lon="5.84466">
        <ele>387.3</ele>
        <time>2021-07-28T06:14:32Z</time>
      </trkpt>
      <trkpt lat="49.44339" lon="5.84475">
        <ele>387.8</ele>
        <time>2021-07-28T06:14:33Z</time>
      </trkpt>
      <trkpt lat="49.44339" lon="5.84482">
        <ele>388.1</ele>
        <time>2021-07-28T06:14:34Z</time>
      </trkpt>
      <trkpt lat="49.4434" lon="5.84496">
        <ele>388.5</ele>
        <time>2021-07-28T06:14:36Z</time>
      </trkpt>
      <trkpt lat="49.44341" lon="5.84504">
        <ele>388.7</ele>
        <time>2021-07-28T06:14:38Z</time>
      </trkpt>
      <trkpt lat="49.44341" lon="5.84509">
        <ele>388.8</ele>
        <time>2021-07-28T06:14:39Z</time>
      </trkpt>
      <trkpt lat="49.4434" lon="5.84513">
        <ele>388.9</ele>
        <time>2021-07-28T06:14:40Z</time>
      </trkpt>
      <trkpt lat="49.44341" lon="5.84516">
        <ele>389</ele>
        <time>2021-07-28T06:14:41Z</time>
      </trkpt>
      <trkpt lat="49.44341" lon="5.84518">
        <ele>388.9</ele>
        <time>2021-07-28T06:14:43Z</time>
      </trkpt>
      <trkpt lat="49.44341" lon="5.84514">
        <ele>388.8</ele>
        <time>2021-07-28T06:14:44Z</time>
      </trkpt>
      <trkpt lat="49.44341" lon="5.8451">
        <ele>388.5</ele>
        <time>2021-07-28T06:14:46Z</time>
      </trkpt>
      <trkpt lat="49.44341" lon="5.84509">
        <ele>388.4</ele>
        <time>2021-07-28T06:14:48Z</time>
      </trkpt>
      <trkpt lat="49.44342" lon="5.84509">
        <ele>388.4</ele>
        <time>2021-07-28T06:14:50Z</time>
      </trkpt>
      <trkpt lat="49.44342" lon="5.84509">
        <ele>388.3</ele>
        <time>2021-07-28T06:14:51Z</time>
      </trkpt>
      <trkpt lat="49.44339" lon="5.84624">
        <ele>391.5</ele>
        <time>2021-07-28T06:16:23Z</time>
      </trkpt>
      <trkpt lat="49.44337" lon="5.84626">
        <ele>391.5</ele>
        <time>2021-07-28T06:16:24Z</time>
      </trkpt>
      <trkpt lat="49.44336" lon="5.84626">
        <ele>391.4</ele>
        <time>2021-07-28T06:16:26Z</time>
      </trkpt>
      <trkpt lat="49.44336" lon="5.84626">
        <ele>391.4</ele>
        <time>2021-07-28T06:16:27Z</time>
      </trkpt>
      <trkpt lat="49.44325" lon="5.84624">
        <ele>391.5</ele>
        <time>2021-07-28T06:16:28Z</time>
      </trkpt>
      <trkpt lat="49.44323" lon="5.84624">
        <ele>391.5</ele>
        <time>2021-07-28T06:16:29Z</time>
      </trkpt>
      <trkpt lat="49.44322" lon="5.84624">
        <ele>391.6</ele>
        <time>2021-07-28T06:16:30Z</time>
      </trkpt>
      <trkpt lat="49.44321" lon="5.84624">
        <ele>391.6</ele>
        <time>2021-07-28T06:16:31Z</time>
      </trkpt>
      <trkpt lat="49.44321" lon="5.84624">
        <ele>391.6</ele>
        <time>2021-07-28T06:16:32Z</time>
      </trkpt>
      <trkpt lat="49.44318" lon="5.84625">
        <ele>391.6</ele>
        <time>2021-07-28T06:16:34Z</time>
      </trkpt>
      <trkpt lat="49.44265" lon="5.84707">
        <ele>392.5</ele>
        <time>2021-07-28T06:17:23Z</time>
      </trkpt>
      <trkpt lat="49.44263" lon="5.8471">
        <ele>392.5</ele>
        <time>2021-07-28T06:17:24Z</time>
      </trkpt>
      <trkpt lat="49.4426" lon="5.84715">
        <ele>392.6</ele>
        <time>2021-07-28T06:17:26Z</time>
      </trkpt>
      <trkpt lat="49.44258" lon="5.84717">
        <ele>392.6</ele>
        <time>2021-07-28T06:17:28Z</time>
      </trkpt>
      <trkpt lat="49.44257" lon="5.84719">
        <ele>392.6</ele>
        <time>2021-07-28T06:17:29Z</time>
      </trkpt>
      <trkpt lat="49.44256" lon="5.84721">
        <ele>392.7</ele>
        <time>2021-07-28T06:17:31Z</time>
      </trkpt>
      <trkpt lat="49.44255" lon="5.84723">
        <ele>392.7</ele>
        <time>2021-07-28T06:17:32Z</time>
      </trkpt>
      <trkpt lat="49.44255" lon="5.84725">
        <ele>392.7</ele>
        <time>2021-07-28T06:17:33Z</time>
      </trkpt>
      <trkpt lat="49.44255" lon="5.84727">
        <ele>392.7</ele>
        <time>2021-07-28T06:17:35Z</time>
      </trkpt>
      <trkpt lat="49.44255" lon="5.84729">
        <ele>392.7</ele>
        <time>2021-07-28T06:17:36Z</time>
      </trkpt>
      <trkpt lat="49.44256" lon="5.84733">
        <ele>392.8</ele>
        <time>2021-07-28T06:17:37Z</time>
      </trkpt>
      <trkpt lat="49.44256" lon="5.84743">
        <ele>392.8</ele>
        <time>2021-07-28T06:17:39Z</time>
      </trkpt>
      <trkpt lat="49.44256" lon="5.84747">
        <ele>392.9</ele>
        <time>2021-07-28T06:17:40Z</time>
      </trkpt>
      <trkpt lat="49.44256" lon="5.84755">
        <ele>392.9</ele>
        <time>2021-07-28T06:17:42Z</time>
      </trkpt>
      <trkpt lat="49.44257" lon="5.84761">
        <ele>393</ele>
        <time>2021-07-28T06:17:43Z</time>
      </trkpt>
      <trkpt lat="49.44263" lon="5.84774">
        <ele>393.2</ele>
        <time>2021-07-28T06:17:45Z</time>
      </trkpt>
      <trkpt lat="49.44271" lon="5.84782">
        <ele>393.5</ele>
        <time>2021-07-28T06:17:47Z</time>
      </trkpt>
      <trkpt lat="49.44278" lon="5.84792">
        <ele>393.7</ele>
        <time>2021-07-28T06:17:49Z</time>
      </trkpt>
      <trkpt lat="49.44284" lon="5.84804">
        <ele>394</ele>
        <time>2021-07-28T06:17:50Z</time>
      </trkpt>
      <trkpt lat="49.44288" lon="5.84814">
        <ele>394.2</ele>
        <time>2021-07-28T06:17:53Z</time>
      </trkpt>
      <trkpt lat="49.4429" lon="5.84818">
        <ele>394.3</ele>
        <time>2021-07-28T06:17:54Z</time>
      </trkpt>
      <trkpt lat="49.44288" lon="5.84824">
        <ele>394.4</ele>
        <time>2021-07-28T06:17:55Z</time>
      </trkpt>
      <trkpt lat="49.44288" lon="5.84829">
        <ele>394.5</ele>
        <time>2021-07-28T06:17:57Z</time>
      </trkpt>
      <trkpt lat="49.44288" lon="5.8483">
        <ele>394.5</ele>
        <time>2021-07-28T06:17:58Z</time>
      </trkpt>
      <trkpt lat="49.44287" lon="5.84835">
        <ele>394.6</ele>
        <time>2021-07-28T06:18:00Z</time>
      </trkpt>
      <trkpt lat="49.44288" lon="5.84837">
        <ele>394.7</ele>
        <time>2021-07-28T06:18:01Z</time>
      </trkpt>
      <trkpt lat="49.44286" lon="5.8484">
        <ele>394.8</ele>
        <time>2021-07-28T06:18:02Z</time>
      </trkpt>
      <trkpt lat="49.44285" lon="5.84842">
        <ele>394.8</ele>
        <time>2021-07-28T06:18:03Z</time>
      </trkpt>
      <trkpt lat="49.44283" lon="5.84843">
        <ele>394.9</ele>
        <time>2021-07-28T06:18:04Z</time>
      </trkpt>
      <trkpt lat="49.44278" lon="5.84846">
        <ele>395.1</ele>
        <time>2021-07-28T06:18:06Z</time>
      </trkpt>
      <trkpt lat="49.44272" lon="5.84846">
        <ele>395.4</ele>
        <time>2021-07-28T06:18:07Z</time>
      </trkpt>
      <trkpt lat="49.44269" lon="5.84845">
        <ele>395.5</ele>
        <time>2021-07-28T06:18:08Z</time>
      </trkpt>
      <trkpt lat="49.44266" lon="5.84844">
        <ele>395.6</ele>
        <time>2021-07-28T06:18:09Z</time>
      </trkpt>
      <trkpt lat="49.44265" lon="5.84844">
        <ele>395.7</ele>
        <time>2021-07-28T06:18:10Z</time>
      </trkpt>
      <trkpt lat="49.44266" lon="5.84856">
        <ele>396.1</ele>
        <time>2021-07-28T06:18:12Z</time>
      </trkpt>
      <trkpt lat="49.44267" lon="5.84868">
        <ele>396.5</ele>
        <time>2021-07-28T06:18:13Z</time>
      </trkpt>
      <trkpt lat="49.44269" lon="5.84879">
        <ele>396.9</ele>
        <time>2021-07-28T06:18:37Z</time>
      </trkpt>
      <trkpt lat="49.44271" lon="5.84891">
        <ele>397.3</ele>
        <time>2021-07-28T06:18:38Z</time>
      </trkpt>
      <trkpt lat="49.44272" lon="5.84903">
        <ele>397.8</ele>
        <time>2021-07-28T06:18:39Z</time>
      </trkpt>
      <trkpt lat="49.44274" lon="5.84909">
        <ele>398</ele>
        <time>2021-07-28T06:18:41Z</time>
      </trkpt>
      <trkpt lat="49.44275" lon="5.84912">
        <ele>398.1</ele>
        <time>2021-07-28T06:18:43Z</time>
      </trkpt>
      <trkpt lat="49.44276" lon="5.84914">
        <ele>398.2</ele>
        <time>2021-07-28T06:18:44Z</time>
      </trkpt>
      <trkpt lat="49.44277" lon="5.84917">
        <ele>398.3</ele>
        <time>2021-07-28T06:18:45Z</time>
      </trkpt>
      <trkpt lat="49.44277" lon="5.84921">
        <ele>398.4</ele>
        <time>2021-07-28T06:18:47Z</time>
      </trkpt>
      <trkpt lat="49.44279" lon="5.84931">
        <ele>398.8</ele>
        <time>2021-07-28T06:18:49Z</time>
      </trkpt>
      <trkpt lat="49.44279" lon="5.8494">
        <ele>399.1</ele>
        <time>2021-07-28T06:18:50Z</time>
      </trkpt>
      <trkpt lat="49.44279" lon="5.84944">
        <ele>399.2</ele>
        <time>2021-07-28T06:18:52Z</time>
      </trkpt>
      <trkpt lat="49.4428" lon="5.84945">
        <ele>399.3</ele>
        <time>2021-07-28T06:18:53Z</time>
      </trkpt>
      <trkpt lat="49.4428" lon="5.84949">
        <ele>399.4</ele>
        <time>2021-07-28T06:18:55Z</time>
      </trkpt>
      <trkpt lat="49.4428" lon="5.84949">
        <ele>399.4</ele>
        <time>2021-07-28T06:18:56Z</time>
      </trkpt>
      <trkpt lat="49.4428" lon="5.84949">
        <ele>399.4</ele>
        <time>2021-07-28T06:18:57Z</time>
      </trkpt>
      <trkpt lat="49.4428" lon="5.84949">
        <ele>399.4</ele>
        <time>2021-07-28T06:18:58Z</time>
      </trkpt>
      <trkpt lat="49.4428" lon="5.84949">
        <ele>399.4</ele>
        <time>2021-07-28T06:19:00Z</time>
      </trkpt>
      <trkpt lat="49.44264" lon="5.85034">
        <ele>402.2</ele>
        <time>2021-07-28T06:19:30Z</time>
      </trkpt>
      <trkpt lat="49.44264" lon="5.85039">
        <ele>402.3</ele>
        <time>2021-07-28T06:19:31Z</time>
      </trkpt>
      <trkpt lat="49.44265" lon="5.85044">
        <ele>402.4</ele>
        <time>2021-07-28T06:19:33Z</time>
      </trkpt>
      <trkpt lat="49.44265" lon="5.85046">
        <ele>402.4</ele>
        <time>2021-07-28T06:19:34Z</time>
      </trkpt>
      <trkpt lat="49.44264" lon="5.85048">
        <ele>402.5</ele>
        <time>2021-07-28T06:19:35Z</time>
      </trkpt>
      <trkpt lat="49.44262" lon="5.85052">
        <ele>402.6</ele>
        <time>2021-07-28T06:19:36Z</time>
      </trkpt>
      <trkpt lat="49.44262" lon="5.85052">
        <ele>402.6</ele>
        <time>2021-07-28T06:19:37Z</time>
      </trkpt>
      <trkpt lat="49.4426" lon="5.85053">
        <ele>402.6</ele>
        <time>2021-07-28T06:19:38Z</time>
      </trkpt>
      <trkpt lat="49.44259" lon="5.85053">
        <ele>402.7</ele>
        <time>2021-07-28T06:19:40Z</time>
      </trkpt>
      <trkpt lat="49.44258" lon="5.85051">
        <ele>402.7</ele>
        <time>2021-07-28T06:19:41Z</time>
      </trkpt>
      <trkpt lat="49.44258" lon="5.85051">
        <ele>402.7</ele>
        <time>2021-07-28T06:19:42Z</time>
      </trkpt>
      <trkpt lat="49.44258" lon="5.85051">
        <ele>402.7</ele>
        <time>2021-07-28T06:19:43Z</time>
      </trkpt>
      <trkpt lat="49.44257" lon="5.85052">
        <ele>402.8</ele>
        <time>2021-07-28T06:19:44Z</time>
      </trkpt>
      <trkpt lat="49.44256" lon="5.85052">
        <ele>402.8</ele>
        <time>2021-07-28T06:19:45Z</time>
      </trkpt>
      <trkpt lat="49.44253" lon="5.85054">
        <ele>402.9</ele>
        <time>2021-07-28T06:19:47Z</time>
      </trkpt>
      <trkpt lat="49.44251" lon="5.85056">
        <ele>402.9</ele>
        <time>2021-07-28T06:19:48Z</time>
      </trkpt>
      <trkpt lat="49.44248" lon="5.85059">
        <ele>403</ele>
        <time>2021-07-28T06:19:50Z</time>
      </trkpt>
      <trkpt lat="49.44245" lon="5.85062">
        <ele>403.1</ele>
        <time>2021-07-28T06:19:52Z</time>
      </trkpt>
      <trkpt lat="49.44243" lon="5.85062">
        <ele>403.2</ele>
        <time>2021-07-28T06:19:53Z</time>
      </trkpt>
      <trkpt lat="49.44242" lon="5.85061">
        <ele>403.2</ele>
        <time>2021-07-28T06:19:55Z</time>
      </trkpt>
      <trkpt lat="49.44241" lon="5.8506">
        <ele>403.2</ele>
        <time>2021-07-28T06:19:56Z</time>
      </trkpt>
      <trkpt lat="49.4424" lon="5.85059">
        <ele>403.2</ele>
        <time>2021-07-28T06:19:57Z</time>
      </trkpt>
      <trkpt lat="49.4424" lon="5.8506">
        <ele>403.3</ele>
        <time>2021-07-28T06:19:58Z</time>
      </trkpt>
      <trkpt lat="49.44239" lon="5.8506">
        <ele>403.3</ele>
        <time>2021-07-28T06:19:59Z</time>
      </trkpt>
      <trkpt lat="49.44238" lon="5.85061">
        <ele>403.3</ele>
        <time>2021-07-28T06:20:00Z</time>
      </trkpt>
      <trkpt lat="49.44235" lon="5.85076">
        <ele>403.5</ele>
        <time>2021-07-28T06:20:07Z</time>
      </trkpt>
      <trkpt lat="49.44232" lon="5.85083">
        <ele>403.6</ele>
        <time>2021-07-28T06:20:09Z</time>
      </trkpt>
      <trkpt lat="49.44231" lon="5.85084">
        <ele>403.6</ele>
        <time>2021-07-28T06:20:10Z</time>
      </trkpt>
      <trkpt lat="49.44227" lon="5.85089">
        <ele>403.7</ele>
        <time>2021-07-28T06:20:12Z</time>
      </trkpt>
      <trkpt lat="49.44225" lon="5.85091">
        <ele>403.8</ele>
        <time>2021-07-28T06:20:13Z</time>
      </trkpt>
      <trkpt lat="49.44223" lon="5.85095">
        <ele>403.8</ele>
        <time>2021-07-28T06:20:15Z</time>
      </trkpt>
      <trkpt lat="49.44222" lon="5.85096">
        <ele>403.9</ele>
        <time>2021-07-28T06:20:16Z</time>
      </trkpt>
      <trkpt lat="49.44219" lon="5.851">
        <ele>403.9</ele>
        <time>2021-07-28T06:20:18Z</time>
      </trkpt>
      <trkpt lat="49.44216" lon="5.85103">
        <ele>404</ele>
        <time>2021-07-28T06:20:20Z</time>
      </trkpt>
      <trkpt lat="49.44216" lon="5.85103">
        <ele>404</ele>
        <time>2021-07-28T06:20:21Z</time>
      </trkpt>
      <trkpt lat="49.44215" lon="5.85104">
        <ele>404</ele>
        <time>2021-07-28T06:20:22Z</time>
      </trkpt>
      <trkpt lat="49.44213" lon="5.85105">
        <ele>404.1</ele>
        <time>2021-07-28T06:20:24Z</time>
      </trkpt>
      <trkpt lat="49.44212" lon="5.85105">
        <ele>404.1</ele>
        <time>2021-07-28T06:20:25Z</time>
      </trkpt>
      <trkpt lat="49.44211" lon="5.85105">
        <ele>404.1</ele>
        <time>2021-07-28T06:20:27Z</time>
      </trkpt>
      <trkpt lat="49.4421" lon="5.85106">
        <ele>404.1</ele>
        <time>2021-07-28T06:20:28Z</time>
      </trkpt>
      <trkpt lat="49.44166" lon="5.85113">
        <ele>404.6</ele>
        <time>2021-07-28T06:20:52Z</time>
      </trkpt>
      <trkpt lat="49.44161" lon="5.85112">
        <ele>404.7</ele>
        <time>2021-07-28T06:20:54Z</time>
      </trkpt>
      <trkpt lat="49.44159" lon="5.85111">
        <ele>404.7</ele>
        <time>2021-07-28T06:20:55Z</time>
      </trkpt>
      <trkpt lat="49.44157" lon="5.85111">
        <ele>404.8</ele>
        <time>2021-07-28T06:20:56Z</time>
      </trkpt>
      <trkpt lat="49.44153" lon="5.85111">
        <ele>404.8</ele>
        <time>2021-07-28T06:20:58Z</time>
      </trkpt>
      <trkpt lat="49.44149" lon="5.85112">
        <ele>404.8</ele>
        <time>2021-07-28T06:20:59Z</time>
      </trkpt>
      <trkpt lat="49.44148" lon="5.85112">
        <ele>404.8</ele>
        <time>2021-07-28T06:21:00Z</time>
      </trkpt>
      <trkpt lat="49.44145" lon="5.85113">
        <ele>404.8</ele>
        <time>2021-07-28T06:21:02Z</time>
      </trkpt>
      <trkpt lat="49.44144" lon="5.85112">
        <ele>404.8</ele>
        <time>2021-07-28T06:21:03Z</time>
      </trkpt>
      <trkpt lat="49.44143" lon="5.85112">
        <ele>404.8</ele>
        <time>2021-07-28T06:21:04Z</time>
      </trkpt>
      <trkpt lat="49.44134" lon="5.85112">
        <ele>404.7</ele>
        <time>2021-07-28T06:21:06Z</time>
      </trkpt>
      <trkpt lat="49.4413" lon="5.85111">
        <ele>404.7</ele>
        <time>2021-07-28T06:21:08Z</time>
      </trkpt>
      <trkpt lat="49.44127" lon="5.85111">
        <ele>404.7</ele>
        <time>2021-07-28T06:21:09Z</time>
      </trkpt>
      <trkpt lat="49.44124" lon="5.8511">
        <ele>404.7</ele>
        <time>2021-07-28T06:21:10Z</time>
      </trkpt>
      <trkpt lat="49.44119" lon="5.85108">
        <ele>404.6</ele>
        <time>2021-07-28T06:21:12Z</time>
      </trkpt>
      <trkpt lat="49.44116" lon="5.85107">
        <ele>404.6</ele>
        <time>2021-07-28T06:21:13Z</time>
      </trkpt>
      <trkpt lat="49.44111" lon="5.85099">
        <ele>404.4</ele>
        <time>2021-07-28T06:21:15Z</time>
      </trkpt>
      <trkpt lat="49.44107" lon="5.85093">
        <ele>404.3</ele>
        <time>2021-07-28T06:21:16Z</time>
      </trkpt>
      <trkpt lat="49.44101" lon="5.85085">
        <ele>404</ele>
        <time>2021-07-28T06:21:17Z</time>
      </trkpt>
      <trkpt lat="49.44095" lon="5.85078">
        <ele>403.8</ele>
        <time>2021-07-28T06:21:18Z</time>
      </trkpt>
      <trkpt lat="49.44091" lon="5.85072">
        <ele>403.6</ele>
        <time>2021-07-28T06:21:19Z</time>
      </trkpt>
      <trkpt lat="49.44089" lon="5.85068">
        <ele>403.5</ele>
        <time>2021-07-28T06:21:20Z</time>
      </trkpt>
      <trkpt lat="49.44084" lon="5.85064">
        <ele>403.3</ele>
        <time>2021-07-28T06:21:22Z</time>
      </trkpt>
      <trkpt lat="49.44081" lon="5.85061">
        <ele>403.1</ele>
        <time>2021-07-28T06:21:24Z</time>
      </trkpt>
      <trkpt lat="49.44078" lon="5.8506">
        <ele>403</ele>
        <time>2021-07-28T06:21:25Z</time>
      </trkpt>
      <trkpt lat="49.44074" lon="5.85061">
        <ele>402.8</ele>
        <time>2021-07-28T06:21:27Z</time>
      </trkpt>
      <trkpt lat="49.44072" lon="5.85061">
        <ele>402.7</ele>
        <time>2021-07-28T06:21:28Z</time>
      </trkpt>
      <trkpt lat="49.44068" lon="5.8506">
        <ele>402.5</ele>
        <time>2021-07-28T06:21:30Z</time>
      </trkpt>
      <trkpt lat="49.44066" lon="5.8506">
        <ele>402.4</ele>
        <time>2021-07-28T06:21:31Z</time>
      </trkpt>
      <trkpt lat="49.44065" lon="5.8506">
        <ele>402.3</ele>
        <time>2021-07-28T06:21:32Z</time>
      </trkpt>
      <trkpt lat="49.44061" lon="5.85062">
        <ele>402.1</ele>
        <time>2021-07-28T06:21:33Z</time>
      </trkpt>
      <trkpt lat="49.44059" lon="5.85064">
        <ele>402</ele>
        <time>2021-07-28T06:21:34Z</time>
      </trkpt>
      <trkpt lat="49.44056" lon="5.85067">
        <ele>401.8</ele>
        <time>2021-07-28T06:21:36Z</time>
      </trkpt>
      <trkpt lat="49.44052" lon="5.85071">
        <ele>401.6</ele>
        <time>2021-07-28T06:21:37Z</time>
      </trkpt>
      <trkpt lat="49.44046" lon="5.85076">
        <ele>401.3</ele>
        <time>2021-07-28T06:21:38Z</time>
      </trkpt>
      <trkpt lat="49.44041" lon="5.85078">
        <ele>401.1</ele>
        <time>2021-07-28T06:21:40Z</time>
      </trkpt>
      <trkpt lat="49.44036" lon="5.85079">
        <ele>400.8</ele>
        <time>2021-07-28T06:21:41Z</time>
      </trkpt>
      <trkpt lat="49.44031" lon="5.8508">
        <ele>400.6</ele>
        <time>2021-07-28T06:21:42Z</time>
      </trkpt>
      <trkpt lat="49.44022" lon="5.85079">
        <ele>400.2</ele>
        <time>2021-07-28T06:21:43Z</time>
      </trkpt>
      <trkpt lat="49.44016" lon="5.85074">
        <ele>399.8</ele>
        <time>2021-07-28T06:21:45Z</time>
      </trkpt>
      <trkpt lat="49.44011" lon="5.85075">
        <ele>399.6</ele>
        <time>2021-07-28T06:21:46Z</time>
      </trkpt>
      <trkpt lat="49.44004" lon="5.85077">
        <ele>399.2</ele>
        <time>2021-07-28T06:21:48Z</time>
      </trkpt>
      <trkpt lat="49.44" lon="5.8508">
        <ele>399</ele>
        <time>2021-07-28T06:21:49Z</time>
      </trkpt>
      <trkpt lat="49.43993" lon="5.85084">
        <ele>398.7</ele>
        <time>2021-07-28T06:21:50Z</time>
      </trkpt>
      <trkpt lat="49.43988" lon="5.85087">
        <ele>398.4</ele>
        <time>2021-07-28T06:21:52Z</time>
      </trkpt>
      <trkpt lat="49.43983" lon="5.85091">
        <ele>398.1</ele>
        <time>2021-07-28T06:21:53Z</time>
      </trkpt>
      <trkpt lat="49.43971" lon="5.85099">
        <ele>397.5</ele>
        <time>2021-07-28T06:21:55Z</time>
      </trkpt>
      <trkpt lat="49.43958" lon="5.85108">
        <ele>396.8</ele>
        <time>2021-07-28T06:21:57Z</time>
      </trkpt>
      <trkpt lat="49.43952" lon="5.85112">
        <ele>396.4</ele>
        <time>2021-07-28T06:21:58Z</time>
      </trkpt>
      <trkpt lat="49.43945" lon="5.85117">
        <ele>396</ele>
        <time>2021-07-28T06:21:59Z</time>
      </trkpt>
      <trkpt lat="49.43939" lon="5.85122">
        <ele>395.6</ele>
        <time>2021-07-28T06:22:00Z</time>
      </trkpt>
      <trkpt lat="49.43932" lon="5.85127">
        <ele>395.2</ele>
        <time>2021-07-28T06:22:01Z</time>
      </trkpt>
      <trkpt lat="49.43925" lon="5.85133">
        <ele>394.8</ele>
        <time>2021-07-28T06:22:02Z</time>
      </trkpt>
      <trkpt lat="49.43913" lon="5.85143">
        <ele>394.1</ele>
        <time>2021-07-28T06:22:04Z</time>
      </trkpt>
      <trkpt lat="49.43907" lon="5.85149">
        <ele>393.8</ele>
        <time>2021-07-28T06:22:05Z</time>
      </trkpt>
      <trkpt lat="49.43901" lon="5.85155">
        <ele>393.5</ele>
        <time>2021-07-28T06:22:06Z</time>
      </trkpt>
      <trkpt lat="49.43888" lon="5.85168">
        <ele>392.7</ele>
        <time>2021-07-28T06:22:08Z</time>
      </trkpt>
      <trkpt lat="49.43883" lon="5.85175">
        <ele>392.3</ele>
        <time>2021-07-28T06:22:09Z</time>
      </trkpt>
      <trkpt lat="49.43872" lon="5.85186">
        <ele>391.6</ele>
        <time>2021-07-28T06:22:11Z</time>
      </trkpt>
      <trkpt lat="49.43868" lon="5.85188">
        <ele>391.4</ele>
        <time>2021-07-28T06:22:12Z</time>
      </trkpt>
      <trkpt lat="49.43858" lon="5.85195">
        <ele>390.9</ele>
        <time>2021-07-28T06:22:14Z</time>
      </trkpt>
      <trkpt lat="49.43853" lon="5.85201">
        <ele>390.6</ele>
        <time>2021-07-28T06:22:15Z</time>
      </trkpt>
      <trkpt lat="49.43847" lon="5.85209">
        <ele>390.2</ele>
        <time>2021-07-28T06:22:17Z</time>
      </trkpt>
      <trkpt lat="49.43844" lon="5.85212">
        <ele>390.1</ele>
        <time>2021-07-28T06:22:18Z</time>
      </trkpt>
      <trkpt lat="49.43842" lon="5.85215">
        <ele>389.9</ele>
        <time>2021-07-28T06:22:19Z</time>
      </trkpt>
      <trkpt lat="49.43816" lon="5.8525">
        <ele>388.2</ele>
        <time>2021-07-28T06:22:21Z</time>
      </trkpt>
      <trkpt lat="49.43812" lon="5.85256">
        <ele>387.9</ele>
        <time>2021-07-28T06:22:22Z</time>
      </trkpt>
      <trkpt lat="49.43805" lon="5.85269">
        <ele>387.4</ele>
        <time>2021-07-28T06:22:23Z</time>
      </trkpt>
      <trkpt lat="49.438" lon="5.8528">
        <ele>387.1</ele>
        <time>2021-07-28T06:22:24Z</time>
      </trkpt>
      <trkpt lat="49.43797" lon="5.85289">
        <ele>386.8</ele>
        <time>2021-07-28T06:22:25Z</time>
      </trkpt>
      <trkpt lat="49.43795" lon="5.85296">
        <ele>386.6</ele>
        <time>2021-07-28T06:22:26Z</time>
      </trkpt>
      <trkpt lat="49.43793" lon="5.85301">
        <ele>386.5</ele>
        <time>2021-07-28T06:22:27Z</time>
      </trkpt>
      <trkpt lat="49.43792" lon="5.85303">
        <ele>386.4</ele>
        <time>2021-07-28T06:22:28Z</time>
      </trkpt>
      <trkpt lat="49.43786" lon="5.85312">
        <ele>386.2</ele>
        <time>2021-07-28T06:22:30Z</time>
      </trkpt>
      <trkpt lat="49.43781" lon="5.85319">
        <ele>385.9</ele>
        <time>2021-07-28T06:22:31Z</time>
      </trkpt>
      <trkpt lat="49.43774" lon="5.85327">
        <ele>385.7</ele>
        <time>2021-07-28T06:22:32Z</time>
      </trkpt>
      <trkpt lat="49.43767" lon="5.85342">
        <ele>385.4</ele>
        <time>2021-07-28T06:22:34Z</time>
      </trkpt>
      <trkpt lat="49.43763" lon="5.85354">
        <ele>385.2</ele>
        <time>2021-07-28T06:22:36Z</time>
      </trkpt>
      <trkpt lat="49.43759" lon="5.85372">
        <ele>385</ele>
        <time>2021-07-28T06:22:38Z</time>
      </trkpt>
      <trkpt lat="49.43757" lon="5.85379">
        <ele>385</ele>
        <time>2021-07-28T06:22:39Z</time>
      </trkpt>
      <trkpt lat="49.43756" lon="5.85385">
        <ele>384.9</ele>
        <time>2021-07-28T06:22:40Z</time>
      </trkpt>
      <trkpt lat="49.43756" lon="5.85389">
        <ele>384.9</ele>
        <time>2021-07-28T06:22:42Z</time>
      </trkpt>
      <trkpt lat="49.43755" lon="5.85391">
        <ele>384.9</ele>
        <time>2021-07-28T06:22:43Z</time>
      </trkpt>
      <trkpt lat="49.43753" lon="5.85395">
        <ele>384.9</ele>
        <time>2021-07-28T06:22:44Z</time>
      </trkpt>
      <trkpt lat="49.43752" lon="5.854">
        <ele>384.9</ele>
        <time>2021-07-28T06:22:46Z</time>
      </trkpt>
      <trkpt lat="49.43751" lon="5.85408">
        <ele>384.9</ele>
        <time>2021-07-28T06:22:47Z</time>
      </trkpt>
      <trkpt lat="49.43751" lon="5.85415">
        <ele>384.9</ele>
        <time>2021-07-28T06:22:49Z</time>
      </trkpt>
      <trkpt lat="49.4375" lon="5.85423">
        <ele>385</ele>
        <time>2021-07-28T06:22:50Z</time>
      </trkpt>
      <trkpt lat="49.43749" lon="5.85431">
        <ele>385</ele>
        <time>2021-07-28T06:22:51Z</time>
      </trkpt>
      <trkpt lat="49.43749" lon="5.85438">
        <ele>385.1</ele>
        <time>2021-07-28T06:22:52Z</time>
      </trkpt>
      <trkpt lat="49.43748" lon="5.85446">
        <ele>385.2</ele>
        <time>2021-07-28T06:22:54Z</time>
      </trkpt>
      <trkpt lat="49.43747" lon="5.85454">
        <ele>385.3</ele>
        <time>2021-07-28T06:23:51Z</time>
      </trkpt>
      <trkpt lat="49.43747" lon="5.85461">
        <ele>385.5</ele>
        <time>2021-07-28T06:23:52Z</time>
      </trkpt>
      <trkpt lat="49.43746" lon="5.8547">
        <ele>385.6</ele>
        <time>2021-07-28T06:23:53Z</time>
      </trkpt>
      <trkpt lat="49.43747" lon="5.85475">
        <ele>385.7</ele>
        <time>2021-07-28T06:23:54Z</time>
      </trkpt>
      <trkpt lat="49.43748" lon="5.85491">
        <ele>386.1</ele>
        <time>2021-07-28T06:23:55Z</time>
      </trkpt>
      <trkpt lat="49.43748" lon="5.85497">
        <ele>386.2</ele>
        <time>2021-07-28T06:23:57Z</time>
      </trkpt>
      <trkpt lat="49.43747" lon="5.85502">
        <ele>386.4</ele>
        <time>2021-07-28T06:23:59Z</time>
      </trkpt>
      <trkpt lat="49.43747" lon="5.85503">
        <ele>386.4</ele>
        <time>2021-07-28T06:24:00Z</time>
      </trkpt>
      <trkpt lat="49.43746" lon="5.85504">
        <ele>386.4</ele>
        <time>2021-07-28T06:24:01Z</time>
      </trkpt>
      <trkpt lat="49.43745" lon="5.85505">
        <ele>386.5</ele>
        <time>2021-07-28T06:24:03Z</time>
      </trkpt>
      <trkpt lat="49.43657" lon="5.85689">
        <ele>396.1</ele>
        <time>2021-07-28T06:25:55Z</time>
      </trkpt>
      <trkpt lat="49.43657" lon="5.85696">
        <ele>396.3</ele>
        <time>2021-07-28T06:25:56Z</time>
      </trkpt>
      <trkpt lat="49.43657" lon="5.85711">
        <ele>397</ele>
        <time>2021-07-28T06:25:57Z</time>
      </trkpt>
      <trkpt lat="49.43657" lon="5.8572">
        <ele>397.3</ele>
        <time>2021-07-28T06:25:58Z</time>
      </trkpt>
      <trkpt lat="49.43658" lon="5.85725">
        <ele>397.5</ele>
        <time>2021-07-28T06:26:00Z</time>
      </trkpt>
      <trkpt lat="49.43658" lon="5.85731">
        <ele>397.7</ele>
        <time>2021-07-28T06:26:01Z</time>
      </trkpt>
      <trkpt lat="49.4366" lon="5.85743">
        <ele>398.2</ele>
        <time>2021-07-28T06:26:03Z</time>
      </trkpt>
      <trkpt lat="49.4366" lon="5.85744">
        <ele>398.2</ele>
        <time>2021-07-28T06:26:04Z</time>
      </trkpt>
      <trkpt lat="49.43661" lon="5.85745">
        <ele>398.3</ele>
        <time>2021-07-28T06:26:06Z</time>
      </trkpt>
      <trkpt lat="49.43661" lon="5.85749">
        <ele>398.4</ele>
        <time>2021-07-28T06:26:08Z</time>
      </trkpt>
      <trkpt lat="49.4366" lon="5.85753">
        <ele>398.6</ele>
        <time>2021-07-28T06:26:09Z</time>
      </trkpt>
      <trkpt lat="49.43659" lon="5.85754">
        <ele>398.7</ele>
        <time>2021-07-28T06:26:10Z</time>
      </trkpt>
      <trkpt lat="49.43658" lon="5.85755">
        <ele>398.7</ele>
        <time>2021-07-28T06:26:12Z</time>
      </trkpt>
      <trkpt lat="49.43657" lon="5.85758">
        <ele>398.8</ele>
        <time>2021-07-28T06:26:13Z</time>
      </trkpt>
      <trkpt lat="49.43655" lon="5.85762">
        <ele>399</ele>
        <time>2021-07-28T06:26:15Z</time>
      </trkpt>
      <trkpt lat="49.43655" lon="5.85764">
        <ele>399.1</ele>
        <time>2021-07-28T06:26:16Z</time>
      </trkpt>
      <trkpt lat="49.43655" lon="5.85766">
        <ele>399.1</ele>
        <time>2021-07-28T06:26:17Z</time>
      </trkpt>
      <trkpt lat="49.43654" lon="5.85773">
        <ele>399.4</ele>
        <time>2021-07-28T06:26:18Z</time>
      </trkpt>
      <trkpt lat="49.43653" lon="5.8578">
        <ele>399.6</ele>
        <time>2021-07-28T06:26:20Z</time>
      </trkpt>
      <trkpt lat="49.43652" lon="5.85786">
        <ele>399.8</ele>
        <time>2021-07-28T06:26:21Z</time>
      </trkpt>
      <trkpt lat="49.43651" lon="5.85793">
        <ele>400.1</ele>
        <time>2021-07-28T06:26:23Z</time>
      </trkpt>
      <trkpt lat="49.4365" lon="5.85799">
        <ele>400.3</ele>
        <time>2021-07-28T06:26:24Z</time>
      </trkpt>
      <trkpt lat="49.43649" lon="5.85806">
        <ele>400.5</ele>
        <time>2021-07-28T06:26:25Z</time>
      </trkpt>
      <trkpt lat="49.43648" lon="5.85813">
        <ele>400.8</ele>
        <time>2021-07-28T06:26:27Z</time>
      </trkpt>
      <trkpt lat="49.43647" lon="5.85819">
        <ele>401</ele>
        <time>2021-07-28T06:26:59Z</time>
      </trkpt>
      <trkpt lat="49.43645" lon="5.85826">
        <ele>401.2</ele>
        <time>2021-07-28T06:27:00Z</time>
      </trkpt>
      <trkpt lat="49.43642" lon="5.85836">
        <ele>401.6</ele>
        <time>2021-07-28T06:27:02Z</time>
      </trkpt>
      <trkpt lat="49.43641" lon="5.85849">
        <ele>401.9</ele>
        <time>2021-07-28T06:27:04Z</time>
      </trkpt>
      <trkpt lat="49.43639" lon="5.85858">
        <ele>402.1</ele>
        <time>2021-07-28T06:27:06Z</time>
      </trkpt>
      <trkpt lat="49.43639" lon="5.85865">
        <ele>402.2</ele>
        <time>2021-07-28T06:27:07Z</time>
      </trkpt>
      <trkpt lat="49.43641" lon="5.85878">
        <ele>402.5</ele>
        <time>2021-07-28T06:27:08Z</time>
      </trkpt>
      <trkpt lat="49.43641" lon="5.85892">
        <ele>402.7</ele>
        <time>2021-07-28T06:27:10Z</time>
      </trkpt>
      <trkpt lat="49.43645" lon="5.85906">
        <ele>403</ele>
        <time>2021-07-28T06:27:12Z</time>
      </trkpt>
      <trkpt lat="49.43649" lon="5.85919">
        <ele>403.3</ele>
        <time>2021-07-28T06:27:14Z</time>
      </trkpt>
      <trkpt lat="49.43652" lon="5.8593">
        <ele>403.6</ele>
        <time>2021-07-28T06:27:16Z</time>
      </trkpt>
      <trkpt lat="49.43653" lon="5.85936">
        <ele>403.7</ele>
        <time>2021-07-28T06:27:17Z</time>
      </trkpt>
      <trkpt lat="49.43654" lon="5.85941">
        <ele>403.8</ele>
        <time>2021-07-28T06:27:18Z</time>
      </trkpt>
      <trkpt lat="49.43656" lon="5.85949">
        <ele>404</ele>
        <time>2021-07-28T06:27:19Z</time>
      </trkpt>
      <trkpt lat="49.43657" lon="5.85955">
        <ele>404.2</ele>
        <time>2021-07-28T06:27:21Z</time>
      </trkpt>
      <trkpt lat="49.43656" lon="5.85959">
        <ele>404.3</ele>
        <time>2021-07-28T06:27:22Z</time>
      </trkpt>
      <trkpt lat="49.43655" lon="5.85963">
        <ele>404.4</ele>
        <time>2021-07-28T06:27:23Z</time>
      </trkpt>
      <trkpt lat="49.43654" lon="5.85967">
        <ele>404.5</ele>
        <time>2021-07-28T06:27:25Z</time>
      </trkpt>
      <trkpt lat="49.43654" lon="5.85969">
        <ele>404.5</ele>
        <time>2021-07-28T06:27:26Z</time>
      </trkpt>
      <trkpt lat="49.43654" lon="5.85972">
        <ele>404.6</ele>
        <time>2021-07-28T06:27:27Z</time>
      </trkpt>
      <trkpt lat="49.43654" lon="5.85975">
        <ele>404.7</ele>
        <time>2021-07-28T06:27:29Z</time>
      </trkpt>
      <trkpt lat="49.43653" lon="5.85976">
        <ele>404.7</ele>
        <time>2021-07-28T06:27:30Z</time>
      </trkpt>
      <trkpt lat="49.43651" lon="5.85975">
        <ele>404.8</ele>
        <time>2021-07-28T06:27:31Z</time>
      </trkpt>
      <trkpt lat="49.43649" lon="5.85975">
        <ele>404.9</ele>
        <time>2021-07-28T06:27:32Z</time>
      </trkpt>
      <trkpt lat="49.43648" lon="5.85977">
        <ele>404.9</ele>
        <time>2021-07-28T06:27:33Z</time>
      </trkpt>
      <trkpt lat="49.43647" lon="5.85978">
        <ele>405</ele>
        <time>2021-07-28T06:27:34Z</time>
      </trkpt>
      <trkpt lat="49.43646" lon="5.85978">
        <ele>405</ele>
        <time>2021-07-28T06:27:36Z</time>
      </trkpt>
      <trkpt lat="49.43645" lon="5.85979">
        <ele>405.1</ele>
        <time>2021-07-28T06:27:37Z</time>
      </trkpt>
      <trkpt lat="49.43643" lon="5.85981">
        <ele>405.2</ele>
        <time>2021-07-28T06:27:38Z</time>
      </trkpt>
      <trkpt lat="49.43642" lon="5.85985">
        <ele>405.3</ele>
        <time>2021-07-28T06:27:39Z</time>
      </trkpt>
      <trkpt lat="49.43642" lon="5.85986">
        <ele>405.4</ele>
        <time>2021-07-28T06:27:40Z</time>
      </trkpt>
      <trkpt lat="49.43641" lon="5.85991">
        <ele>405.5</ele>
        <time>2021-07-28T06:27:42Z</time>
      </trkpt>
      <trkpt lat="49.43641" lon="5.85996">
        <ele>405.7</ele>
        <time>2021-07-28T06:27:43Z</time>
      </trkpt>
      <trkpt lat="49.43641" lon="5.86001">
        <ele>405.8</ele>
        <time>2021-07-28T06:27:44Z</time>
      </trkpt>
      <trkpt lat="49.43643" lon="5.86002">
        <ele>405.9</ele>
        <time>2021-07-28T06:27:46Z</time>
      </trkpt>
      <trkpt lat="49.43644" lon="5.86009">
        <ele>406.1</ele>
        <time>2021-07-28T06:27:48Z</time>
      </trkpt>
      <trkpt lat="49.43646" lon="5.86012">
        <ele>406.2</ele>
        <time>2021-07-28T06:27:50Z</time>
      </trkpt>
      <trkpt lat="49.43647" lon="5.86017">
        <ele>406.4</ele>
        <time>2021-07-28T06:27:51Z</time>
      </trkpt>
      <trkpt lat="49.43649" lon="5.86022">
        <ele>406.5</ele>
        <time>2021-07-28T06:27:52Z</time>
      </trkpt>
      <trkpt lat="49.43649" lon="5.86024">
        <ele>406.6</ele>
        <time>2021-07-28T06:27:53Z</time>
      </trkpt>
      <trkpt lat="49.43649" lon="5.86027">
        <ele>406.7</ele>
        <time>2021-07-28T06:27:54Z</time>
      </trkpt>
      <trkpt lat="49.43651" lon="5.86032">
        <ele>406.9</ele>
        <time>2021-07-28T06:27:56Z</time>
      </trkpt>
      <trkpt lat="49.43652" lon="5.86037">
        <ele>407.1</ele>
        <time>2021-07-28T06:27:57Z</time>
      </trkpt>
      <trkpt lat="49.43655" lon="5.86042">
        <ele>407.3</ele>
        <time>2021-07-28T06:27:59Z</time>
      </trkpt>
      <trkpt lat="49.43657" lon="5.86043">
        <ele>407.4</ele>
        <time>2021-07-28T06:28:00Z</time>
      </trkpt>
      <trkpt lat="49.43658" lon="5.86045">
        <ele>407.5</ele>
        <time>2021-07-28T06:28:01Z</time>
      </trkpt>
      <trkpt lat="49.43659" lon="5.86046">
        <ele>407.6</ele>
        <time>2021-07-28T06:28:02Z</time>
      </trkpt>
      <trkpt lat="49.4366" lon="5.86048">
        <ele>407.7</ele>
        <time>2021-07-28T06:28:03Z</time>
      </trkpt>
      <trkpt lat="49.4366" lon="5.86051">
        <ele>407.8</ele>
        <time>2021-07-28T06:28:04Z</time>
      </trkpt>
      <trkpt lat="49.43661" lon="5.86056">
        <ele>408</ele>
        <time>2021-07-28T06:28:06Z</time>
      </trkpt>
      <trkpt lat="49.43662" lon="5.8606">
        <ele>408.1</ele>
        <time>2021-07-28T06:28:07Z</time>
      </trkpt>
      <trkpt lat="49.43662" lon="5.86064">
        <ele>408.3</ele>
        <time>2021-07-28T06:28:08Z</time>
      </trkpt>
      <trkpt lat="49.43661" lon="5.86066">
        <ele>408.4</ele>
        <time>2021-07-28T06:28:10Z</time>
      </trkpt>
      <trkpt lat="49.4366" lon="5.86068">
        <ele>408.4</ele>
        <time>2021-07-28T06:28:11Z</time>
      </trkpt>
      <trkpt lat="49.43659" lon="5.86074">
        <ele>408.7</ele>
        <time>2021-07-28T06:28:13Z</time>
      </trkpt>
      <trkpt lat="49.43657" lon="5.86079">
        <ele>408.9</ele>
        <time>2021-07-28T06:28:14Z</time>
      </trkpt>
      <trkpt lat="49.43656" lon="5.86081">
        <ele>409</ele>
        <time>2021-07-28T06:28:15Z</time>
      </trkpt>
      <trkpt lat="49.43655" lon="5.86085">
        <ele>409.2</ele>
        <time>2021-07-28T06:28:16Z</time>
      </trkpt>
      <trkpt lat="49.43652" lon="5.8609">
        <ele>409.4</ele>
        <time>2021-07-28T06:28:17Z</time>
      </trkpt>
      <trkpt lat="49.43649" lon="5.86095">
        <ele>409.7</ele>
        <time>2021-07-28T06:28:18Z</time>
      </trkpt>
      <trkpt lat="49.43647" lon="5.86099">
        <ele>409.9</ele>
        <time>2021-07-28T06:28:19Z</time>
      </trkpt>
      <trkpt lat="49.43644" lon="5.86104">
        <ele>410.2</ele>
        <time>2021-07-28T06:28:20Z</time>
      </trkpt>
      <trkpt lat="49.4364" lon="5.86109">
        <ele>410.6</ele>
        <time>2021-07-28T06:28:21Z</time>
      </trkpt>
      <trkpt lat="49.43637" lon="5.86113">
        <ele>410.8</ele>
        <time>2021-07-28T06:28:22Z</time>
      </trkpt>
      <trkpt lat="49.43634" lon="5.86117">
        <ele>411.1</ele>
        <time>2021-07-28T06:28:24Z</time>
      </trkpt>
      <trkpt lat="49.43633" lon="5.86121">
        <ele>411.3</ele>
        <time>2021-07-28T06:28:25Z</time>
      </trkpt>
      <trkpt lat="49.43631" lon="5.86125">
        <ele>411.5</ele>
        <time>2021-07-28T06:28:26Z</time>
      </trkpt>
      <trkpt lat="49.43629" lon="5.86131">
        <ele>411.9</ele>
        <time>2021-07-28T06:28:28Z</time>
      </trkpt>
      <trkpt lat="49.43627" lon="5.86135">
        <ele>412.1</ele>
        <time>2021-07-28T06:28:29Z</time>
      </trkpt>
      <trkpt lat="49.43626" lon="5.86137">
        <ele>412.2</ele>
        <time>2021-07-28T06:28:30Z</time>
      </trkpt>
      <trkpt lat="49.43625" lon="5.86138">
        <ele>412.3</ele>
        <time>2021-07-28T06:28:32Z</time>
      </trkpt>
      <trkpt lat="49.43625" lon="5.86139">
        <ele>412.3</ele>
        <time>2021-07-28T06:28:33Z</time>
      </trkpt>
      <trkpt lat="49.43625" lon="5.86141">
        <ele>412.4</ele>
        <time>2021-07-28T06:28:34Z</time>
      </trkpt>
      <trkpt lat="49.43624" lon="5.86143">
        <ele>412.5</ele>
        <time>2021-07-28T06:28:35Z</time>
      </trkpt>
      <trkpt lat="49.43624" lon="5.86145">
        <ele>412.6</ele>
        <time>2021-07-28T06:28:37Z</time>
      </trkpt>
      <trkpt lat="49.43625" lon="5.86147">
        <ele>412.7</ele>
        <time>2021-07-28T06:28:38Z</time>
      </trkpt>
      <trkpt lat="49.43624" lon="5.86148">
        <ele>412.7</ele>
        <time>2021-07-28T06:28:40Z</time>
      </trkpt>
      <trkpt lat="49.43624" lon="5.8615">
        <ele>412.8</ele>
        <time>2021-07-28T06:28:41Z</time>
      </trkpt>
      <trkpt lat="49.43623" lon="5.86152">
        <ele>412.9</ele>
        <time>2021-07-28T06:28:42Z</time>
      </trkpt>
      <trkpt lat="49.43619" lon="5.86157">
        <ele>413.2</ele>
        <time>2021-07-28T06:28:44Z</time>
      </trkpt>
      <trkpt lat="49.43615" lon="5.86162">
        <ele>413.6</ele>
        <time>2021-07-28T06:28:45Z</time>
      </trkpt>
      <trkpt lat="49.43613" lon="5.86164">
        <ele>413.8</ele>
        <time>2021-07-28T06:28:46Z</time>
      </trkpt>
      <trkpt lat="49.43612" lon="5.86165">
        <ele>413.9</ele>
        <time>2021-07-28T06:28:48Z</time>
      </trkpt>
      <trkpt lat="49.43609" lon="5.86168">
        <ele>414.1</ele>
        <time>2021-07-28T06:28:49Z</time>
      </trkpt>
      <trkpt lat="49.43609" lon="5.86169">
        <ele>414.2</ele>
        <time>2021-07-28T06:28:50Z</time>
      </trkpt>
      <trkpt lat="49.43608" lon="5.86171">
        <ele>414.2</ele>
        <time>2021-07-28T06:28:52Z</time>
      </trkpt>
      <trkpt lat="49.43608" lon="5.86174">
        <ele>414.4</ele>
        <time>2021-07-28T06:28:53Z</time>
      </trkpt>
      <trkpt lat="49.43607" lon="5.86177">
        <ele>414.5</ele>
        <time>2021-07-28T06:28:54Z</time>
      </trkpt>
      <trkpt lat="49.43608" lon="5.86178">
        <ele>414.6</ele>
        <time>2021-07-28T06:28:55Z</time>
      </trkpt>
      <trkpt lat="49.43607" lon="5.86184">
        <ele>414.8</ele>
        <time>2021-07-28T06:28:56Z</time>
      </trkpt>
      <trkpt lat="49.43607" lon="5.86185">
        <ele>414.9</ele>
        <time>2021-07-28T06:28:57Z</time>
      </trkpt>
      <trkpt lat="49.43605" lon="5.86187">
        <ele>415</ele>
        <time>2021-07-28T06:28:59Z</time>
      </trkpt>
      <trkpt lat="49.43604" lon="5.86186">
        <ele>415.1</ele>
        <time>2021-07-28T06:29:00Z</time>
      </trkpt>
      <trkpt lat="49.43603" lon="5.86184">
        <ele>415.2</ele>
        <time>2021-07-28T06:29:01Z</time>
      </trkpt>
      <trkpt lat="49.43603" lon="5.86182">
        <ele>415.3</ele>
        <time>2021-07-28T06:29:02Z</time>
      </trkpt>
      <trkpt lat="49.43602" lon="5.86181">
        <ele>415.4</ele>
        <time>2021-07-28T06:29:04Z</time>
      </trkpt>
      <trkpt lat="49.43602" lon="5.86181">
        <ele>415.4</ele>
        <time>2021-07-28T06:29:05Z</time>
      </trkpt>
      <trkpt lat="49.43601" lon="5.86181">
        <ele>415.4</ele>
        <time>2021-07-28T06:29:06Z</time>
      </trkpt>
      <trkpt lat="49.43602" lon="5.86183">
        <ele>415.5</ele>
        <time>2021-07-28T06:29:07Z</time>
      </trkpt>
      <trkpt lat="49.43602" lon="5.86183">
        <ele>415.5</ele>
        <time>2021-07-28T06:29:08Z</time>
      </trkpt>
      <trkpt lat="49.43602" lon="5.86184">
        <ele>415.5</ele>
        <time>2021-07-28T06:29:10Z</time>
      </trkpt>
      <trkpt lat="49.43599" lon="5.86255">
        <ele>418.3</ele>
        <time>2021-07-28T06:29:32Z</time>
      </trkpt>
      <trkpt lat="49.43597" lon="5.86257">
        <ele>418.5</ele>
        <time>2021-07-28T06:29:33Z</time>
      </trkpt>
      <trkpt lat="49.43596" lon="5.86257">
        <ele>418.5</ele>
        <time>2021-07-28T06:29:34Z</time>
      </trkpt>
      <trkpt lat="49.43595" lon="5.86259">
        <ele>418.7</ele>
        <time>2021-07-28T06:29:36Z</time>
      </trkpt>
      <trkpt lat="49.43591" lon="5.86266">
        <ele>419</ele>
        <time>2021-07-28T06:29:39Z</time>
      </trkpt>
      <trkpt lat="49.4359" lon="5.8627">
        <ele>419.2</ele>
        <time>2021-07-28T06:29:41Z</time>
      </trkpt>
      <trkpt lat="49.43589" lon="5.86272">
        <ele>419.3</ele>
        <time>2021-07-28T06:29:42Z</time>
      </trkpt>
      <trkpt lat="49.43587" lon="5.86278">
        <ele>419.6</ele>
        <time>2021-07-28T06:29:44Z</time>
      </trkpt>
      <trkpt lat="49.43586" lon="5.8628">
        <ele>419.7</ele>
        <time>2021-07-28T06:29:46Z</time>
      </trkpt>
      <trkpt lat="49.43585" lon="5.86281">
        <ele>419.8</ele>
        <time>2021-07-28T06:29:47Z</time>
      </trkpt>
      <trkpt lat="49.43585" lon="5.86283">
        <ele>419.9</ele>
        <time>2021-07-28T06:29:49Z</time>
      </trkpt>
      <trkpt lat="49.43584" lon="5.86284">
        <ele>419.9</ele>
        <time>2021-07-28T06:29:50Z</time>
      </trkpt>
      <trkpt lat="49.43583" lon="5.86288">
        <ele>420.1</ele>
        <time>2021-07-28T06:29:52Z</time>
      </trkpt>
      <trkpt lat="49.4358" lon="5.86293">
        <ele>420.5</ele>
        <time>2021-07-28T06:29:53Z</time>
      </trkpt>
      <trkpt lat="49.43579" lon="5.86296">
        <ele>420.5</ele>
        <time>2021-07-28T06:29:54Z</time>
      </trkpt>
      <trkpt lat="49.43575" lon="5.86301">
        <ele>420.4</ele>
        <time>2021-07-28T06:29:56Z</time>
      </trkpt>
      <trkpt lat="49.4357" lon="5.86305">
        <ele>420.3</ele>
        <time>2021-07-28T06:29:57Z</time>
      </trkpt>
      <trkpt lat="49.43566" lon="5.86308">
        <ele>420.3</ele>
        <time>2021-07-28T06:29:59Z</time>
      </trkpt>
      <trkpt lat="49.43563" lon="5.8631">
        <ele>420.3</ele>
        <time>2021-07-28T06:30:00Z</time>
      </trkpt>
      <trkpt lat="49.43559" lon="5.8631">
        <ele>420.2</ele>
        <time>2021-07-28T06:30:01Z</time>
      </trkpt>
      <trkpt lat="49.43557" lon="5.8631">
        <ele>420.2</ele>
        <time>2021-07-28T06:30:02Z</time>
      </trkpt>
      <trkpt lat="49.43555" lon="5.86313">
        <ele>420.1</ele>
        <time>2021-07-28T06:30:03Z</time>
      </trkpt>
      <trkpt lat="49.43554" lon="5.86315">
        <ele>420.1</ele>
        <time>2021-07-28T06:30:05Z</time>
      </trkpt>
      <trkpt lat="49.43553" lon="5.86316">
        <ele>420.1</ele>
        <time>2021-07-28T06:30:06Z</time>
      </trkpt>
      <trkpt lat="49.43552" lon="5.86321">
        <ele>420</ele>
        <time>2021-07-28T06:30:07Z</time>
      </trkpt>
      <trkpt lat="49.43552" lon="5.86322">
        <ele>420</ele>
        <time>2021-07-28T06:30:09Z</time>
      </trkpt>
      <trkpt lat="49.43553" lon="5.86324">
        <ele>420</ele>
        <time>2021-07-28T06:30:10Z</time>
      </trkpt>
      <trkpt lat="49.43552" lon="5.8633">
        <ele>419.9</ele>
        <time>2021-07-28T06:30:12Z</time>
      </trkpt>
      <trkpt lat="49.43552" lon="5.86331">
        <ele>419.8</ele>
        <time>2021-07-28T06:30:13Z</time>
      </trkpt>
      <trkpt lat="49.43552" lon="5.86334">
        <ele>419.8</ele>
        <time>2021-07-28T06:30:14Z</time>
      </trkpt>
      <trkpt lat="49.43551" lon="5.86336">
        <ele>419.7</ele>
        <time>2021-07-28T06:30:16Z</time>
      </trkpt>
      <trkpt lat="49.43551" lon="5.86337">
        <ele>419.7</ele>
        <time>2021-07-28T06:30:17Z</time>
      </trkpt>
      <trkpt lat="49.43549" lon="5.86342">
        <ele>419.6</ele>
        <time>2021-07-28T06:30:18Z</time>
      </trkpt>
      <trkpt lat="49.43548" lon="5.86346">
        <ele>419.5</ele>
        <time>2021-07-28T06:30:19Z</time>
      </trkpt>
      <trkpt lat="49.43546" lon="5.8635">
        <ele>419.4</ele>
        <time>2021-07-28T06:30:20Z</time>
      </trkpt>
      <trkpt lat="49.43545" lon="5.86352">
        <ele>419.3</ele>
        <time>2021-07-28T06:30:21Z</time>
      </trkpt>
      <trkpt lat="49.43543" lon="5.86358">
        <ele>419.1</ele>
        <time>2021-07-28T06:30:22Z</time>
      </trkpt>
      <trkpt lat="49.43542" lon="5.86363">
        <ele>418.9</ele>
        <time>2021-07-28T06:30:25Z</time>
      </trkpt>
      <trkpt lat="49.43538" lon="5.86369">
        <ele>418.7</ele>
        <time>2021-07-28T06:30:26Z</time>
      </trkpt>
      <trkpt lat="49.43536" lon="5.86371">
        <ele>418.5</ele>
        <time>2021-07-28T06:30:27Z</time>
      </trkpt>
      <trkpt lat="49.43534" lon="5.86374">
        <ele>418.4</ele>
        <time>2021-07-28T06:30:28Z</time>
      </trkpt>
      <trkpt lat="49.43531" lon="5.8638">
        <ele>418.1</ele>
        <time>2021-07-28T06:30:29Z</time>
      </trkpt>
      <trkpt lat="49.43526" lon="5.86385">
        <ele>417.8</ele>
        <time>2021-07-28T06:30:31Z</time>
      </trkpt>
      <trkpt lat="49.43519" lon="5.86392">
        <ele>417.3</ele>
        <time>2021-07-28T06:30:32Z</time>
      </trkpt>
      <trkpt lat="49.43513" lon="5.86398">
        <ele>416.9</ele>
        <time>2021-07-28T06:30:34Z</time>
      </trkpt>
      <trkpt lat="49.43509" lon="5.86402">
        <ele>416.5</ele>
        <time>2021-07-28T06:30:35Z</time>
      </trkpt>
      <trkpt lat="49.43501" lon="5.8641">
        <ele>415.8</ele>
        <time>2021-07-28T06:30:36Z</time>
      </trkpt>
      <trkpt lat="49.43497" lon="5.86413">
        <ele>415.5</ele>
        <time>2021-07-28T06:30:37Z</time>
      </trkpt>
      <trkpt lat="49.43494" lon="5.86417">
        <ele>415.2</ele>
        <time>2021-07-28T06:30:39Z</time>
      </trkpt>
      <trkpt lat="49.4349" lon="5.86425">
        <ele>414.8</ele>
        <time>2021-07-28T06:30:40Z</time>
      </trkpt>
      <trkpt lat="49.43488" lon="5.8643">
        <ele>414.5</ele>
        <time>2021-07-28T06:30:41Z</time>
      </trkpt>
      <trkpt lat="49.43487" lon="5.86441">
        <ele>414</ele>
        <time>2021-07-28T06:30:43Z</time>
      </trkpt>
      <trkpt lat="49.43484" lon="5.86447">
        <ele>413.7</ele>
        <time>2021-07-28T06:30:44Z</time>
      </trkpt>
      <trkpt lat="49.43481" lon="5.86451">
        <ele>413.3</ele>
        <time>2021-07-28T06:30:45Z</time>
      </trkpt>
      <trkpt lat="49.43479" lon="5.86454">
        <ele>413.1</ele>
        <time>2021-07-28T06:30:46Z</time>
      </trkpt>
      <trkpt lat="49.43471" lon="5.8647">
        <ele>412.2</ele>
        <time>2021-07-28T06:30:48Z</time>
      </trkpt>
      <trkpt lat="49.43465" lon="5.86475">
        <ele>411.7</ele>
        <time>2021-07-28T06:30:49Z</time>
      </trkpt>
      <trkpt lat="49.4346" lon="5.8648">
        <ele>411.3</ele>
        <time>2021-07-28T06:30:50Z</time>
      </trkpt>
      <trkpt lat="49.43451" lon="5.86489">
        <ele>410.5</ele>
        <time>2021-07-28T06:30:52Z</time>
      </trkpt>
      <trkpt lat="49.43442" lon="5.86501">
        <ele>409.6</ele>
        <time>2021-07-28T06:30:53Z</time>
      </trkpt>
      <trkpt lat="49.43437" lon="5.86507">
        <ele>409.1</ele>
        <time>2021-07-28T06:30:55Z</time>
      </trkpt>
      <trkpt lat="49.43425" lon="5.86522">
        <ele>407.9</ele>
        <time>2021-07-28T06:30:57Z</time>
      </trkpt>
      <trkpt lat="49.43421" lon="5.86527">
        <ele>407.5</ele>
        <time>2021-07-28T06:30:59Z</time>
      </trkpt>
      <trkpt lat="49.43423" lon="5.86525">
        <ele>407.2</ele>
        <time>2021-07-28T06:31:00Z</time>
      </trkpt>
      <trkpt lat="49.43421" lon="5.8653">
        <ele>406.9</ele>
        <time>2021-07-28T06:31:01Z</time>
      </trkpt>
      <trkpt lat="49.43417" lon="5.86534">
        <ele>406.6</ele>
        <time>2021-07-28T06:31:03Z</time>
      </trkpt>
      <trkpt lat="49.43409" lon="5.86542">
        <ele>405.8</ele>
        <time>2021-07-28T06:31:04Z</time>
      </trkpt>
      <trkpt lat="49.43407" lon="5.86545">
        <ele>405.5</ele>
        <time>2021-07-28T06:31:05Z</time>
      </trkpt>
      <trkpt lat="49.43396" lon="5.86557">
        <ele>404.6</ele>
        <time>2021-07-28T06:31:07Z</time>
      </trkpt>
      <trkpt lat="49.43388" lon="5.86566">
        <ele>403.8</ele>
        <time>2021-07-28T06:31:08Z</time>
      </trkpt>
      <trkpt lat="49.43372" lon="5.86584">
        <ele>402.3</ele>
        <time>2021-07-28T06:31:10Z</time>
      </trkpt>
      <trkpt lat="49.4336" lon="5.86599">
        <ele>401.1</ele>
        <time>2021-07-28T06:31:12Z</time>
      </trkpt>
      <trkpt lat="49.43356" lon="5.86607">
        <ele>400.6</ele>
        <time>2021-07-28T06:31:13Z</time>
      </trkpt>
      <trkpt lat="49.43348" lon="5.86625">
        <ele>399.6</ele>
        <time>2021-07-28T06:31:15Z</time>
      </trkpt>
      <trkpt lat="49.43338" lon="5.86644">
        <ele>398.7</ele>
        <time>2021-07-28T06:31:17Z</time>
      </trkpt>
      <trkpt lat="49.43329" lon="5.8666">
        <ele>397.9</ele>
        <time>2021-07-28T06:31:19Z</time>
      </trkpt>
      <trkpt lat="49.43324" lon="5.86667">
        <ele>397.5</ele>
        <time>2021-07-28T06:31:20Z</time>
      </trkpt>
      <trkpt lat="49.4332" lon="5.86672">
        <ele>397.2</ele>
        <time>2021-07-28T06:31:21Z</time>
      </trkpt>
      <trkpt lat="49.43316" lon="5.86681">
        <ele>396.8</ele>
        <time>2021-07-28T06:31:23Z</time>
      </trkpt>
      <trkpt lat="49.43314" lon="5.86686">
        <ele>396.6</ele>
        <time>2021-07-28T06:31:24Z</time>
      </trkpt>
      <trkpt lat="49.43309" lon="5.86698">
        <ele>396</ele>
        <time>2021-07-28T06:31:26Z</time>
      </trkpt>
      <trkpt lat="49.43306" lon="5.86705">
        <ele>395.7</ele>
        <time>2021-07-28T06:31:27Z</time>
      </trkpt>
      <trkpt lat="49.43307" lon="5.86696">
        <ele>395.4</ele>
        <time>2021-07-28T06:31:28Z</time>
      </trkpt>
      <trkpt lat="49.43305" lon="5.86706">
        <ele>394.9</ele>
        <time>2021-07-28T06:31:30Z</time>
      </trkpt>
      <trkpt lat="49.43304" lon="5.86721">
        <ele>394.4</ele>
        <time>2021-07-28T06:31:31Z</time>
      </trkpt>
      <trkpt lat="49.43303" lon="5.86731">
        <ele>394.1</ele>
        <time>2021-07-28T06:31:33Z</time>
      </trkpt>
      <trkpt lat="49.43304" lon="5.8674">
        <ele>393.8</ele>
        <time>2021-07-28T06:31:34Z</time>
      </trkpt>
      <trkpt lat="49.43303" lon="5.86749">
        <ele>393.5</ele>
        <time>2021-07-28T06:31:35Z</time>
      </trkpt>
      <trkpt lat="49.43301" lon="5.86759">
        <ele>393.2</ele>
        <time>2021-07-28T06:31:37Z</time>
      </trkpt>
      <trkpt lat="49.43301" lon="5.86768">
        <ele>392.9</ele>
        <time>2021-07-28T06:31:38Z</time>
      </trkpt>
      <trkpt lat="49.43299" lon="5.86782">
        <ele>392.3</ele>
        <time>2021-07-28T06:31:40Z</time>
      </trkpt>
      <trkpt lat="49.43298" lon="5.86796">
        <ele>391.8</ele>
        <time>2021-07-28T06:31:41Z</time>
      </trkpt>
      <trkpt lat="49.43297" lon="5.86802">
        <ele>391.6</ele>
        <time>2021-07-28T06:31:43Z</time>
      </trkpt>
      <trkpt lat="49.43295" lon="5.86815">
        <ele>391.4</ele>
        <time>2021-07-28T06:31:45Z</time>
      </trkpt>
      <trkpt lat="49.43294" lon="5.86823">
        <ele>391.3</ele>
        <time>2021-07-28T06:31:46Z</time>
      </trkpt>
      <trkpt lat="49.43294" lon="5.86837">
        <ele>391.1</ele>
        <time>2021-07-28T06:31:47Z</time>
      </trkpt>
      <trkpt lat="49.43295" lon="5.86847">
        <ele>391</ele>
        <time>2021-07-28T06:31:49Z</time>
      </trkpt>
      <trkpt lat="49.43295" lon="5.86854">
        <ele>390.9</ele>
        <time>2021-07-28T06:31:50Z</time>
      </trkpt>
      <trkpt lat="49.43297" lon="5.86863">
        <ele>390.8</ele>
        <time>2021-07-28T06:31:51Z</time>
      </trkpt>
      <trkpt lat="49.43298" lon="5.86869">
        <ele>390.7</ele>
        <time>2021-07-28T06:31:52Z</time>
      </trkpt>
      <trkpt lat="49.43299" lon="5.86874">
        <ele>390.7</ele>
        <time>2021-07-28T06:31:54Z</time>
      </trkpt>
      <trkpt lat="49.433" lon="5.8688">
        <ele>390.6</ele>
        <time>2021-07-28T06:31:55Z</time>
      </trkpt>
      <trkpt lat="49.433" lon="5.86893">
        <ele>390.5</ele>
        <time>2021-07-28T06:31:56Z</time>
      </trkpt>
      <trkpt lat="49.43301" lon="5.86901">
        <ele>390.5</ele>
        <time>2021-07-28T06:31:57Z</time>
      </trkpt>
      <trkpt lat="49.43305" lon="5.86906">
        <ele>390.4</ele>
        <time>2021-07-28T06:31:59Z</time>
      </trkpt>
      <trkpt lat="49.43305" lon="5.86908">
        <ele>390.4</ele>
        <time>2021-07-28T06:32:00Z</time>
      </trkpt>
      <trkpt lat="49.43306" lon="5.86911">
        <ele>390.4</ele>
        <time>2021-07-28T06:32:01Z</time>
      </trkpt>
      <trkpt lat="49.43309" lon="5.86921">
        <ele>390.4</ele>
        <time>2021-07-28T06:32:03Z</time>
      </trkpt>
      <trkpt lat="49.43311" lon="5.86927">
        <ele>390.4</ele>
        <time>2021-07-28T06:32:04Z</time>
      </trkpt>
      <trkpt lat="49.43313" lon="5.86935">
        <ele>390.4</ele>
        <time>2021-07-28T06:32:05Z</time>
      </trkpt>
      <trkpt lat="49.43315" lon="5.8694">
        <ele>390.4</ele>
        <time>2021-07-28T06:32:07Z</time>
      </trkpt>
      <trkpt lat="49.43317" lon="5.86949">
        <ele>390.5</ele>
        <time>2021-07-28T06:32:08Z</time>
      </trkpt>
      <trkpt lat="49.4332" lon="5.86954">
        <ele>390.5</ele>
        <time>2021-07-28T06:32:09Z</time>
      </trkpt>
      <trkpt lat="49.43324" lon="5.86961">
        <ele>390.6</ele>
        <time>2021-07-28T06:32:10Z</time>
      </trkpt>
      <trkpt lat="49.4333" lon="5.86969">
        <ele>390.6</ele>
        <time>2021-07-28T06:32:12Z</time>
      </trkpt>
      <trkpt lat="49.43336" lon="5.86978">
        <ele>390.7</ele>
        <time>2021-07-28T06:32:13Z</time>
      </trkpt>
      <trkpt lat="49.43345" lon="5.86985">
        <ele>390.9</ele>
        <time>2021-07-28T06:32:15Z</time>
      </trkpt>
      <trkpt lat="49.43349" lon="5.86987">
        <ele>390.9</ele>
        <time>2021-07-28T06:32:16Z</time>
      </trkpt>
      <trkpt lat="49.43353" lon="5.86988">
        <ele>390.9</ele>
        <time>2021-07-28T06:32:17Z</time>
      </trkpt>
      <trkpt lat="49.43356" lon="5.8699">
        <ele>390.9</ele>
        <time>2021-07-28T06:32:19Z</time>
      </trkpt>
      <trkpt lat="49.43361" lon="5.86989">
        <ele>390.9</ele>
        <time>2021-07-28T06:32:20Z</time>
      </trkpt>
      <trkpt lat="49.43366" lon="5.86988">
        <ele>390.9</ele>
        <time>2021-07-28T06:32:21Z</time>
      </trkpt>
      <trkpt lat="49.4337" lon="5.86988">
        <ele>390.9</ele>
        <time>2021-07-28T06:32:22Z</time>
      </trkpt>
      <trkpt lat="49.43376" lon="5.86989">
        <ele>391</ele>
        <time>2021-07-28T06:32:23Z</time>
      </trkpt>
      <trkpt lat="49.4338" lon="5.86989">
        <ele>391</ele>
        <time>2021-07-28T06:32:24Z</time>
      </trkpt>
      <trkpt lat="49.43385" lon="5.86991">
        <ele>391</ele>
        <time>2021-07-28T06:32:26Z</time>
      </trkpt>
      <trkpt lat="49.43389" lon="5.86996">
        <ele>391.1</ele>
        <time>2021-07-28T06:32:27Z</time>
      </trkpt>
      <trkpt lat="49.43393" lon="5.87">
        <ele>391.1</ele>
        <time>2021-07-28T06:32:29Z</time>
      </trkpt>
      <trkpt lat="49.43396" lon="5.87004">
        <ele>391.1</ele>
        <time>2021-07-28T06:32:30Z</time>
      </trkpt>
      <trkpt lat="49.43398" lon="5.8701">
        <ele>391.2</ele>
        <time>2021-07-28T06:32:32Z</time>
      </trkpt>
      <trkpt lat="49.43398" lon="5.87015">
        <ele>391.2</ele>
        <time>2021-07-28T06:32:33Z</time>
      </trkpt>
      <trkpt lat="49.43398" lon="5.87021">
        <ele>391.2</ele>
        <time>2021-07-28T06:32:34Z</time>
      </trkpt>
      <trkpt lat="49.43399" lon="5.87027">
        <ele>391.3</ele>
        <time>2021-07-28T06:32:36Z</time>
      </trkpt>
      <trkpt lat="49.43399" lon="5.87032">
        <ele>391.3</ele>
        <time>2021-07-28T06:32:37Z</time>
      </trkpt>
      <trkpt lat="49.43398" lon="5.87038">
        <ele>391.4</ele>
        <time>2021-07-28T06:32:39Z</time>
      </trkpt>
      <trkpt lat="49.43396" lon="5.87041">
        <ele>391.4</ele>
        <time>2021-07-28T06:32:40Z</time>
      </trkpt>
      <trkpt lat="49.43393" lon="5.87044">
        <ele>391.4</ele>
        <time>2021-07-28T06:32:41Z</time>
      </trkpt>
      <trkpt lat="49.4339" lon="5.87048">
        <ele>391.5</ele>
        <time>2021-07-28T06:32:43Z</time>
      </trkpt>
      <trkpt lat="49.43386" lon="5.87049">
        <ele>391.5</ele>
        <time>2021-07-28T06:32:44Z</time>
      </trkpt>
      <trkpt lat="49.43382" lon="5.8705">
        <ele>391.6</ele>
        <time>2021-07-28T06:32:45Z</time>
      </trkpt>
      <trkpt lat="49.43378" lon="5.87051">
        <ele>391.6</ele>
        <time>2021-07-28T06:32:47Z</time>
      </trkpt>
      <trkpt lat="49.43372" lon="5.87052">
        <ele>391.7</ele>
        <time>2021-07-28T06:32:48Z</time>
      </trkpt>
      <trkpt lat="49.43367" lon="5.87052">
        <ele>391.8</ele>
        <time>2021-07-28T06:32:50Z</time>
      </trkpt>
      <trkpt lat="49.43363" lon="5.87051">
        <ele>391.9</ele>
        <time>2021-07-28T06:32:51Z</time>
      </trkpt>
      <trkpt lat="49.43359" lon="5.8705">
        <ele>391.9</ele>
        <time>2021-07-28T06:32:52Z</time>
      </trkpt>
      <trkpt lat="49.43354" lon="5.8705">
        <ele>392</ele>
        <time>2021-07-28T06:32:53Z</time>
      </trkpt>
      <trkpt lat="49.43351" lon="5.8705">
        <ele>392</ele>
        <time>2021-07-28T06:32:54Z</time>
      </trkpt>
      <trkpt lat="49.43347" lon="5.87047">
        <ele>392.1</ele>
        <time>2021-07-28T06:32:56Z</time>
      </trkpt>
      <trkpt lat="49.43343" lon="5.87044">
        <ele>392.1</ele>
        <time>2021-07-28T06:32:58Z</time>
      </trkpt>
      <trkpt lat="49.43339" lon="5.8704">
        <ele>392.2</ele>
        <time>2021-07-28T06:32:59Z</time>
      </trkpt>
      <trkpt lat="49.43334" lon="5.87039">
        <ele>392.2</ele>
        <time>2021-07-28T06:33:00Z</time>
      </trkpt>
      <trkpt lat="49.4333" lon="5.87039">
        <ele>392.3</ele>
        <time>2021-07-28T06:33:02Z</time>
      </trkpt>
      <trkpt lat="49.43326" lon="5.8704">
        <ele>392.3</ele>
        <time>2021-07-28T06:33:03Z</time>
      </trkpt>
      <trkpt lat="49.4332" lon="5.87041">
        <ele>392.3</ele>
        <time>2021-07-28T06:33:05Z</time>
      </trkpt>
      <trkpt lat="49.43316" lon="5.87041">
        <ele>392.4</ele>
        <time>2021-07-28T06:33:06Z</time>
      </trkpt>
      <trkpt lat="49.4331" lon="5.87037">
        <ele>392.4</ele>
        <time>2021-07-28T06:33:07Z</time>
      </trkpt>
      <trkpt lat="49.43307" lon="5.87033">
        <ele>392.5</ele>
        <time>2021-07-28T06:33:09Z</time>
      </trkpt>
      <trkpt lat="49.43305" lon="5.87029">
        <ele>392.5</ele>
        <time>2021-07-28T06:33:10Z</time>
      </trkpt>
      <trkpt lat="49.43303" lon="5.87025">
        <ele>392.5</ele>
        <time>2021-07-28T06:33:11Z</time>
      </trkpt>
      <trkpt lat="49.43301" lon="5.87021">
        <ele>392.6</ele>
        <time>2021-07-28T06:33:12Z</time>
      </trkpt>
      <trkpt lat="49.43297" lon="5.87018">
        <ele>392.6</ele>
        <time>2021-07-28T06:33:13Z</time>
      </trkpt>
      <trkpt lat="49.43291" lon="5.87015">
        <ele>392.7</ele>
        <time>2021-07-28T06:33:15Z</time>
      </trkpt>
      <trkpt lat="49.43286" lon="5.87012">
        <ele>392.7</ele>
        <time>2021-07-28T06:33:16Z</time>
      </trkpt>
      <trkpt lat="49.43281" lon="5.87009">
        <ele>392.7</ele>
        <time>2021-07-28T06:33:17Z</time>
      </trkpt>
      <trkpt lat="49.43276" lon="5.87008">
        <ele>392.8</ele>
        <time>2021-07-28T06:33:19Z</time>
      </trkpt>
      <trkpt lat="49.43269" lon="5.87005">
        <ele>392.8</ele>
        <time>2021-07-28T06:33:21Z</time>
      </trkpt>
      <trkpt lat="49.43266" lon="5.87003">
        <ele>392.9</ele>
        <time>2021-07-28T06:33:22Z</time>
      </trkpt>
      <trkpt lat="49.43261" lon="5.87001">
        <ele>392.9</ele>
        <time>2021-07-28T06:33:24Z</time>
      </trkpt>
      <trkpt lat="49.43256" lon="5.87">
        <ele>393</ele>
        <time>2021-07-28T06:33:25Z</time>
      </trkpt>
      <trkpt lat="49.43254" lon="5.86999">
        <ele>393</ele>
        <time>2021-07-28T06:33:26Z</time>
      </trkpt>
      <trkpt lat="49.4325" lon="5.86998">
        <ele>393</ele>
        <time>2021-07-28T06:33:27Z</time>
      </trkpt>
      <trkpt lat="49.43249" lon="5.86998">
        <ele>393</ele>
        <time>2021-07-28T06:33:28Z</time>
      </trkpt>
      <trkpt lat="49.43243" lon="5.87">
        <ele>393.1</ele>
        <time>2021-07-28T06:33:30Z</time>
      </trkpt>
      <trkpt lat="49.4324" lon="5.87">
        <ele>393.1</ele>
        <time>2021-07-28T06:33:32Z</time>
      </trkpt>
      <trkpt lat="49.43237" lon="5.87">
        <ele>393.2</ele>
        <time>2021-07-28T06:33:33Z</time>
      </trkpt>
      <trkpt lat="49.43234" lon="5.86999">
        <ele>393.2</ele>
        <time>2021-07-28T06:33:35Z</time>
      </trkpt>
      <trkpt lat="49.43232" lon="5.86999">
        <ele>393.3</ele>
        <time>2021-07-28T06:33:36Z</time>
      </trkpt>
      <trkpt lat="49.4323" lon="5.87">
        <ele>393.3</ele>
        <time>2021-07-28T06:33:37Z</time>
      </trkpt>
      <trkpt lat="49.43226" lon="5.87001">
        <ele>393.4</ele>
        <time>2021-07-28T06:33:38Z</time>
      </trkpt>
      <trkpt lat="49.43221" lon="5.87003">
        <ele>393.4</ele>
        <time>2021-07-28T06:33:40Z</time>
      </trkpt>
      <trkpt lat="49.43218" lon="5.87003">
        <ele>393.5</ele>
        <time>2021-07-28T06:33:41Z</time>
      </trkpt>
      <trkpt lat="49.43216" lon="5.87003">
        <ele>393.5</ele>
        <time>2021-07-28T06:33:42Z</time>
      </trkpt>
      <trkpt lat="49.43212" lon="5.87004">
        <ele>393.6</ele>
        <time>2021-07-28T06:33:44Z</time>
      </trkpt>
      <trkpt lat="49.43208" lon="5.87007">
        <ele>393.6</ele>
        <time>2021-07-28T06:33:45Z</time>
      </trkpt>
      <trkpt lat="49.43203" lon="5.87009">
        <ele>393.7</ele>
        <time>2021-07-28T06:33:47Z</time>
      </trkpt>
      <trkpt lat="49.43195" lon="5.87011">
        <ele>393.8</ele>
        <time>2021-07-28T06:33:49Z</time>
      </trkpt>
      <trkpt lat="49.43192" lon="5.87012">
        <ele>393.9</ele>
        <time>2021-07-28T06:33:50Z</time>
      </trkpt>
      <trkpt lat="49.43189" lon="5.87013">
        <ele>393.9</ele>
        <time>2021-07-28T06:33:51Z</time>
      </trkpt>
      <trkpt lat="49.43185" lon="5.87017">
        <ele>394</ele>
        <time>2021-07-28T06:33:53Z</time>
      </trkpt>
      <trkpt lat="49.43181" lon="5.87023">
        <ele>394</ele>
        <time>2021-07-28T06:33:54Z</time>
      </trkpt>
      <trkpt lat="49.43179" lon="5.87028">
        <ele>394.1</ele>
        <time>2021-07-28T06:33:55Z</time>
      </trkpt>
      <trkpt lat="49.43177" lon="5.87033">
        <ele>394.1</ele>
        <time>2021-07-28T06:33:56Z</time>
      </trkpt>
      <trkpt lat="49.43174" lon="5.87039">
        <ele>394.1</ele>
        <time>2021-07-28T06:33:58Z</time>
      </trkpt>
      <trkpt lat="49.43171" lon="5.87043">
        <ele>394.2</ele>
        <time>2021-07-28T06:33:59Z</time>
      </trkpt>
      <trkpt lat="49.43169" lon="5.87049">
        <ele>394.2</ele>
        <time>2021-07-28T06:34:00Z</time>
      </trkpt>
      <trkpt lat="49.43165" lon="5.87059">
        <ele>394.3</ele>
        <time>2021-07-28T06:34:01Z</time>
      </trkpt>
      <trkpt lat="49.43163" lon="5.87065">
        <ele>394.3</ele>
        <time>2021-07-28T06:34:03Z</time>
      </trkpt>
      <trkpt lat="49.43161" lon="5.87076">
        <ele>394.4</ele>
        <time>2021-07-28T06:34:04Z</time>
      </trkpt>
      <trkpt lat="49.43159" lon="5.87081">
        <ele>394.4</ele>
        <time>2021-07-28T06:34:06Z</time>
      </trkpt>
      <trkpt lat="49.43158" lon="5.8709">
        <ele>394.5</ele>
        <time>2021-07-28T06:34:07Z</time>
      </trkpt>
      <trkpt lat="49.43157" lon="5.87096">
        <ele>394.5</ele>
        <time>2021-07-28T06:34:09Z</time>
      </trkpt>
      <trkpt lat="49.43156" lon="5.87106">
        <ele>394.5</ele>
        <time>2021-07-28T06:34:10Z</time>
      </trkpt>
      <trkpt lat="49.43155" lon="5.87113">
        <ele>394.5</ele>
        <time>2021-07-28T06:34:11Z</time>
      </trkpt>
      <trkpt lat="49.43155" lon="5.87119">
        <ele>394.6</ele>
        <time>2021-07-28T06:34:13Z</time>
      </trkpt>
      <trkpt lat="49.43154" lon="5.87124">
        <ele>394.6</ele>
        <time>2021-07-28T06:34:14Z</time>
      </trkpt>
      <trkpt lat="49.43153" lon="5.87134">
        <ele>394.6</ele>
        <time>2021-07-28T06:34:16Z</time>
      </trkpt>
      <trkpt lat="49.43152" lon="5.87143">
        <ele>394.7</ele>
        <time>2021-07-28T06:34:17Z</time>
      </trkpt>
      <trkpt lat="49.43152" lon="5.87147">
        <ele>394.7</ele>
        <time>2021-07-28T06:34:18Z</time>
      </trkpt>
      <trkpt lat="49.43152" lon="5.87154">
        <ele>394.7</ele>
        <time>2021-07-28T06:34:20Z</time>
      </trkpt>
      <trkpt lat="49.43151" lon="5.87163">
        <ele>394.7</ele>
        <time>2021-07-28T06:34:22Z</time>
      </trkpt>
      <trkpt lat="49.4315" lon="5.87172">
        <ele>394.8</ele>
        <time>2021-07-28T06:34:24Z</time>
      </trkpt>
      <trkpt lat="49.43149" lon="5.87181">
        <ele>394.8</ele>
        <time>2021-07-28T06:34:25Z</time>
      </trkpt>
      <trkpt lat="49.43148" lon="5.87185">
        <ele>394.7</ele>
        <time>2021-07-28T06:34:27Z</time>
      </trkpt>
      <trkpt lat="49.43148" lon="5.8719">
        <ele>394.7</ele>
        <time>2021-07-28T06:34:28Z</time>
      </trkpt>
      <trkpt lat="49.43147" lon="5.87199">
        <ele>394.7</ele>
        <time>2021-07-28T06:34:29Z</time>
      </trkpt>
      <trkpt lat="49.43148" lon="5.87205">
        <ele>394.8</ele>
        <time>2021-07-28T06:34:31Z</time>
      </trkpt>
      <trkpt lat="49.43149" lon="5.87211">
        <ele>394.8</ele>
        <time>2021-07-28T06:34:32Z</time>
      </trkpt>
      <trkpt lat="49.43151" lon="5.8722">
        <ele>394.8</ele>
        <time>2021-07-28T06:34:33Z</time>
      </trkpt>
      <trkpt lat="49.43152" lon="5.87225">
        <ele>394.8</ele>
        <time>2021-07-28T06:34:35Z</time>
      </trkpt>
      <trkpt lat="49.43152" lon="5.8723">
        <ele>394.8</ele>
        <time>2021-07-28T06:34:36Z</time>
      </trkpt>
      <trkpt lat="49.43152" lon="5.87234">
        <ele>394.8</ele>
        <time>2021-07-28T06:34:37Z</time>
      </trkpt>
      <trkpt lat="49.43152" lon="5.87243">
        <ele>394.8</ele>
        <time>2021-07-28T06:34:39Z</time>
      </trkpt>
      <trkpt lat="49.43153" lon="5.8725">
        <ele>394.8</ele>
        <time>2021-07-28T06:34:40Z</time>
      </trkpt>
      <trkpt lat="49.43154" lon="5.87256">
        <ele>394.8</ele>
        <time>2021-07-28T06:34:41Z</time>
      </trkpt>
      <trkpt lat="49.43154" lon="5.87262">
        <ele>394.8</ele>
        <time>2021-07-28T06:34:43Z</time>
      </trkpt>
      <trkpt lat="49.43154" lon="5.87271">
        <ele>394.8</ele>
        <time>2021-07-28T06:34:44Z</time>
      </trkpt>
      <trkpt lat="49.43156" lon="5.87275">
        <ele>394.8</ele>
        <time>2021-07-28T06:34:45Z</time>
      </trkpt>
      <trkpt lat="49.43157" lon="5.87282">
        <ele>394.8</ele>
        <time>2021-07-28T06:34:47Z</time>
      </trkpt>
      <trkpt lat="49.43159" lon="5.87288">
        <ele>394.8</ele>
        <time>2021-07-28T06:34:48Z</time>
      </trkpt>
      <trkpt lat="49.43161" lon="5.87293">
        <ele>394.9</ele>
        <time>2021-07-28T06:34:50Z</time>
      </trkpt>
      <trkpt lat="49.4316" lon="5.873">
        <ele>394.9</ele>
        <time>2021-07-28T06:34:51Z</time>
      </trkpt>
      <trkpt lat="49.4316" lon="5.87308">
        <ele>394.8</ele>
        <time>2021-07-28T06:34:53Z</time>
      </trkpt>
      <trkpt lat="49.43162" lon="5.87318">
        <ele>394.8</ele>
        <time>2021-07-28T06:34:55Z</time>
      </trkpt>
      <trkpt lat="49.43162" lon="5.87322">
        <ele>394.8</ele>
        <time>2021-07-28T06:34:56Z</time>
      </trkpt>
      <trkpt lat="49.43162" lon="5.87327">
        <ele>394.8</ele>
        <time>2021-07-28T06:34:57Z</time>
      </trkpt>
      <trkpt lat="49.43163" lon="5.87332">
        <ele>394.8</ele>
        <time>2021-07-28T06:34:59Z</time>
      </trkpt>
      <trkpt lat="49.43163" lon="5.87333">
        <ele>394.7</ele>
        <time>2021-07-28T06:35:00Z</time>
      </trkpt>
      <trkpt lat="49.43165" lon="5.87339">
        <ele>394.7</ele>
        <time>2021-07-28T06:35:02Z</time>
      </trkpt>
      <trkpt lat="49.43166" lon="5.87346">
        <ele>394.7</ele>
        <time>2021-07-28T06:35:04Z</time>
      </trkpt>
      <trkpt lat="49.43169" lon="5.87353">
        <ele>394.7</ele>
        <time>2021-07-28T06:35:05Z</time>
      </trkpt>
      <trkpt lat="49.43171" lon="5.87362">
        <ele>394.6</ele>
        <time>2021-07-28T06:35:07Z</time>
      </trkpt>
      <trkpt lat="49.43173" lon="5.87369">
        <ele>394.6</ele>
        <time>2021-07-28T06:35:09Z</time>
      </trkpt>
      <trkpt lat="49.43176" lon="5.87373">
        <ele>394.6</ele>
        <time>2021-07-28T06:35:10Z</time>
      </trkpt>
      <trkpt lat="49.43178" lon="5.87379">
        <ele>394.6</ele>
        <time>2021-07-28T06:35:11Z</time>
      </trkpt>
      <trkpt lat="49.4318" lon="5.87387">
        <ele>394.6</ele>
        <time>2021-07-28T06:35:13Z</time>
      </trkpt>
      <trkpt lat="49.43181" lon="5.87393">
        <ele>394.6</ele>
        <time>2021-07-28T06:35:15Z</time>
      </trkpt>
      <trkpt lat="49.43182" lon="5.87399">
        <ele>394.6</ele>
        <time>2021-07-28T06:35:16Z</time>
      </trkpt>
      <trkpt lat="49.43184" lon="5.87407">
        <ele>394.6</ele>
        <time>2021-07-28T06:35:18Z</time>
      </trkpt>
      <trkpt lat="49.43185" lon="5.87414">
        <ele>394.5</ele>
        <time>2021-07-28T06:35:19Z</time>
      </trkpt>
      <trkpt lat="49.43186" lon="5.87422">
        <ele>394.5</ele>
        <time>2021-07-28T06:35:20Z</time>
      </trkpt>
      <trkpt lat="49.43187" lon="5.87428">
        <ele>394.4</ele>
        <time>2021-07-28T06:35:21Z</time>
      </trkpt>
      <trkpt lat="49.43187" lon="5.87435">
        <ele>394.4</ele>
        <time>2021-07-28T06:35:23Z</time>
      </trkpt>
      <trkpt lat="49.43187" lon="5.87448">
        <ele>394.2</ele>
        <time>2021-07-28T06:35:24Z</time>
      </trkpt>
      <trkpt lat="49.43187" lon="5.87454">
        <ele>394.1</ele>
        <time>2021-07-28T06:35:26Z</time>
      </trkpt>
      <trkpt lat="49.43187" lon="5.87468">
        <ele>394</ele>
        <time>2021-07-28T06:35:27Z</time>
      </trkpt>
      <trkpt lat="49.43187" lon="5.87477">
        <ele>393.8</ele>
        <time>2021-07-28T06:35:29Z</time>
      </trkpt>
      <trkpt lat="49.43188" lon="5.87485">
        <ele>393.7</ele>
        <time>2021-07-28T06:35:30Z</time>
      </trkpt>
      <trkpt lat="49.4319" lon="5.87496">
        <ele>393.5</ele>
        <time>2021-07-28T06:35:31Z</time>
      </trkpt>
      <trkpt lat="49.43191" lon="5.87504">
        <ele>393.4</ele>
        <time>2021-07-28T06:35:33Z</time>
      </trkpt>
      <trkpt lat="49.43192" lon="5.87514">
        <ele>393.2</ele>
        <time>2021-07-28T06:35:34Z</time>
      </trkpt>
      <trkpt lat="49.43192" lon="5.8752">
        <ele>393.2</ele>
        <time>2021-07-28T06:35:35Z</time>
      </trkpt>
      <trkpt lat="49.43191" lon="5.87527">
        <ele>393.1</ele>
        <time>2021-07-28T06:35:36Z</time>
      </trkpt>
      <trkpt lat="49.4319" lon="5.87533">
        <ele>393</ele>
        <time>2021-07-28T06:35:37Z</time>
      </trkpt>
      <trkpt lat="49.43188" lon="5.87543">
        <ele>392.8</ele>
        <time>2021-07-28T06:35:39Z</time>
      </trkpt>
      <trkpt lat="49.43188" lon="5.87555">
        <ele>392.6</ele>
        <time>2021-07-28T06:35:41Z</time>
      </trkpt>
      <trkpt lat="49.43187" lon="5.87563">
        <ele>392.5</ele>
        <time>2021-07-28T06:35:42Z</time>
      </trkpt>
      <trkpt lat="49.43185" lon="5.87569">
        <ele>392.4</ele>
        <time>2021-07-28T06:35:43Z</time>
      </trkpt>
      <trkpt lat="49.43182" lon="5.87579">
        <ele>392.3</ele>
        <time>2021-07-28T06:35:45Z</time>
      </trkpt>
      <trkpt lat="49.4318" lon="5.87586">
        <ele>392.2</ele>
        <time>2021-07-28T06:35:46Z</time>
      </trkpt>
      <trkpt lat="49.43176" lon="5.87593">
        <ele>392.1</ele>
        <time>2021-07-28T06:35:48Z</time>
      </trkpt>
      <trkpt lat="49.43173" lon="5.87602">
        <ele>392</ele>
        <time>2021-07-28T06:35:50Z</time>
      </trkpt>
      <trkpt lat="49.4317" lon="5.87607">
        <ele>392</ele>
        <time>2021-07-28T06:35:51Z</time>
      </trkpt>
      <trkpt lat="49.43166" lon="5.87611">
        <ele>392</ele>
        <time>2021-07-28T06:35:52Z</time>
      </trkpt>
      <trkpt lat="49.43164" lon="5.8761">
        <ele>391.9</ele>
        <time>2021-07-28T06:35:54Z</time>
      </trkpt>
      <trkpt lat="49.4316" lon="5.87605">
        <ele>391.9</ele>
        <time>2021-07-28T06:35:56Z</time>
      </trkpt>
      <trkpt lat="49.43153" lon="5.87602">
        <ele>391.9</ele>
        <time>2021-07-28T06:35:57Z</time>
      </trkpt>
      <trkpt lat="49.43149" lon="5.87601">
        <ele>391.9</ele>
        <time>2021-07-28T06:35:58Z</time>
      </trkpt>
      <trkpt lat="49.43143" lon="5.876">
        <ele>392</ele>
        <time>2021-07-28T06:36:00Z</time>
      </trkpt>
      <trkpt lat="49.43134" lon="5.87598">
        <ele>392.2</ele>
        <time>2021-07-28T06:36:02Z</time>
      </trkpt>
      <trkpt lat="49.43129" lon="5.87597">
        <ele>392.3</ele>
        <time>2021-07-28T06:36:04Z</time>
      </trkpt>
      <trkpt lat="49.43124" lon="5.87598">
        <ele>392.4</ele>
        <time>2021-07-28T06:36:05Z</time>
      </trkpt>
      <trkpt lat="49.4312" lon="5.87599">
        <ele>392.5</ele>
        <time>2021-07-28T06:36:07Z</time>
      </trkpt>
      <trkpt lat="49.43116" lon="5.87597">
        <ele>392.5</ele>
        <time>2021-07-28T06:36:08Z</time>
      </trkpt>
      <trkpt lat="49.43115" lon="5.87596">
        <ele>392.6</ele>
        <time>2021-07-28T06:36:09Z</time>
      </trkpt>
      <trkpt lat="49.43113" lon="5.87594">
        <ele>392.6</ele>
        <time>2021-07-28T06:36:10Z</time>
      </trkpt>
      <trkpt lat="49.43109" lon="5.87592">
        <ele>392.7</ele>
        <time>2021-07-28T06:36:11Z</time>
      </trkpt>
      <trkpt lat="49.43106" lon="5.87589">
        <ele>392.7</ele>
        <time>2021-07-28T06:36:12Z</time>
      </trkpt>
      <trkpt lat="49.43104" lon="5.87587">
        <ele>392.8</ele>
        <time>2021-07-28T06:36:13Z</time>
      </trkpt>
      <trkpt lat="49.43101" lon="5.87585">
        <ele>392.8</ele>
        <time>2021-07-28T06:36:15Z</time>
      </trkpt>
      <trkpt lat="49.43098" lon="5.87581">
        <ele>392.9</ele>
        <time>2021-07-28T06:36:16Z</time>
      </trkpt>
      <trkpt lat="49.43096" lon="5.87578">
        <ele>392.9</ele>
        <time>2021-07-28T06:36:17Z</time>
      </trkpt>
      <trkpt lat="49.43094" lon="5.87574">
        <ele>393</ele>
        <time>2021-07-28T06:36:18Z</time>
      </trkpt>
      <trkpt lat="49.43092" lon="5.87571">
        <ele>393</ele>
        <time>2021-07-28T06:36:19Z</time>
      </trkpt>
      <trkpt lat="49.4309" lon="5.87567">
        <ele>393.1</ele>
        <time>2021-07-28T06:36:20Z</time>
      </trkpt>
      <trkpt lat="49.43088" lon="5.87563">
        <ele>393.2</ele>
        <time>2021-07-28T06:36:22Z</time>
      </trkpt>
      <trkpt lat="49.43086" lon="5.8756">
        <ele>393.2</ele>
        <time>2021-07-28T06:36:23Z</time>
      </trkpt>
      <trkpt lat="49.43083" lon="5.87556">
        <ele>393.3</ele>
        <time>2021-07-28T06:36:24Z</time>
      </trkpt>
      <trkpt lat="49.43082" lon="5.87554">
        <ele>393.3</ele>
        <time>2021-07-28T06:36:25Z</time>
      </trkpt>
      <trkpt lat="49.4308" lon="5.87549">
        <ele>393.4</ele>
        <time>2021-07-28T06:36:27Z</time>
      </trkpt>
      <trkpt lat="49.43079" lon="5.87546">
        <ele>393.5</ele>
        <time>2021-07-28T06:36:28Z</time>
      </trkpt>
      <trkpt lat="49.43077" lon="5.87541">
        <ele>393.6</ele>
        <time>2021-07-28T06:36:29Z</time>
      </trkpt>
      <trkpt lat="49.43075" lon="5.87538">
        <ele>393.6</ele>
        <time>2021-07-28T06:36:30Z</time>
      </trkpt>
      <trkpt lat="49.43074" lon="5.87534">
        <ele>393.7</ele>
        <time>2021-07-28T06:36:32Z</time>
      </trkpt>
      <trkpt lat="49.43071" lon="5.87528">
        <ele>393.8</ele>
        <time>2021-07-28T06:36:33Z</time>
      </trkpt>
      <trkpt lat="49.43068" lon="5.87523">
        <ele>393.9</ele>
        <time>2021-07-28T06:36:34Z</time>
      </trkpt>
      <trkpt lat="49.43066" lon="5.87519">
        <ele>394</ele>
        <time>2021-07-28T06:36:35Z</time>
      </trkpt>
      <trkpt lat="49.43065" lon="5.87515">
        <ele>394.1</ele>
        <time>2021-07-28T06:36:36Z</time>
      </trkpt>
      <trkpt lat="49.43062" lon="5.8751">
        <ele>394.2</ele>
        <time>2021-07-28T06:36:38Z</time>
      </trkpt>
      <trkpt lat="49.4306" lon="5.87507">
        <ele>394.2</ele>
        <time>2021-07-28T06:36:39Z</time>
      </trkpt>
      <trkpt lat="49.43057" lon="5.87504">
        <ele>394.3</ele>
        <time>2021-07-28T06:36:40Z</time>
      </trkpt>
      <trkpt lat="49.43055" lon="5.87501">
        <ele>394.4</ele>
        <time>2021-07-28T06:36:42Z</time>
      </trkpt>
      <trkpt lat="49.43054" lon="5.87497">
        <ele>394.4</ele>
        <time>2021-07-28T06:36:43Z</time>
      </trkpt>
      <trkpt lat="49.43052" lon="5.87492">
        <ele>394.5</ele>
        <time>2021-07-28T06:36:45Z</time>
      </trkpt>
      <trkpt lat="49.43051" lon="5.87487">
        <ele>394.6</ele>
        <time>2021-07-28T06:36:46Z</time>
      </trkpt>
      <trkpt lat="49.43051" lon="5.87484">
        <ele>394.6</ele>
        <time>2021-07-28T06:36:47Z</time>
      </trkpt>
      <trkpt lat="49.4305" lon="5.8748">
        <ele>394.7</ele>
        <time>2021-07-28T06:36:48Z</time>
      </trkpt>
      <trkpt lat="49.43047" lon="5.87473">
        <ele>394.8</ele>
        <time>2021-07-28T06:36:51Z</time>
      </trkpt>
      <trkpt lat="49.43046" lon="5.87472">
        <ele>394.8</ele>
        <time>2021-07-28T06:36:52Z</time>
      </trkpt>
      <trkpt lat="49.43045" lon="5.8747">
        <ele>394.8</ele>
        <time>2021-07-28T06:36:53Z</time>
      </trkpt>
      <trkpt lat="49.43043" lon="5.87467">
        <ele>394.9</ele>
        <time>2021-07-28T06:36:54Z</time>
      </trkpt>
      <trkpt lat="49.4304" lon="5.87464">
        <ele>394.9</ele>
        <time>2021-07-28T06:36:55Z</time>
      </trkpt>
      <trkpt lat="49.43039" lon="5.87463">
        <ele>395</ele>
        <time>2021-07-28T06:36:56Z</time>
      </trkpt>
      <trkpt lat="49.43037" lon="5.8746">
        <ele>395</ele>
        <time>2021-07-28T06:36:57Z</time>
      </trkpt>
      <trkpt lat="49.43034" lon="5.87455">
        <ele>395.1</ele>
        <time>2021-07-28T06:36:59Z</time>
      </trkpt>
      <trkpt lat="49.43032" lon="5.87453">
        <ele>395.2</ele>
        <time>2021-07-28T06:37:00Z</time>
      </trkpt>
      <trkpt lat="49.43029" lon="5.87449">
        <ele>395.2</ele>
        <time>2021-07-28T06:37:01Z</time>
      </trkpt>
      <trkpt lat="49.43028" lon="5.87448">
        <ele>395.3</ele>
        <time>2021-07-28T06:37:02Z</time>
      </trkpt>
      <trkpt lat="49.43025" lon="5.87448">
        <ele>395.3</ele>
        <time>2021-07-28T06:37:03Z</time>
      </trkpt>
      <trkpt lat="49.43022" lon="5.87446">
        <ele>395.4</ele>
        <time>2021-07-28T06:37:04Z</time>
      </trkpt>
      <trkpt lat="49.43019" lon="5.87445">
        <ele>395.4</ele>
        <time>2021-07-28T06:37:05Z</time>
      </trkpt>
      <trkpt lat="49.43015" lon="5.87443">
        <ele>395.5</ele>
        <time>2021-07-28T06:37:07Z</time>
      </trkpt>
      <trkpt lat="49.43012" lon="5.87441">
        <ele>395.5</ele>
        <time>2021-07-28T06:37:08Z</time>
      </trkpt>
      <trkpt lat="49.4301" lon="5.87438">
        <ele>395.6</ele>
        <time>2021-07-28T06:37:09Z</time>
      </trkpt>
      <trkpt lat="49.43008" lon="5.87435">
        <ele>395.6</ele>
        <time>2021-07-28T06:37:10Z</time>
      </trkpt>
      <trkpt lat="49.43005" lon="5.87432">
        <ele>395.6</ele>
        <time>2021-07-28T06:37:12Z</time>
      </trkpt>
      <trkpt lat="49.43003" lon="5.87428">
        <ele>395.7</ele>
        <time>2021-07-28T06:37:13Z</time>
      </trkpt>
      <trkpt lat="49.43" lon="5.87426">
        <ele>395.7</ele>
        <time>2021-07-28T06:37:14Z</time>
      </trkpt>
      <trkpt lat="49.42997" lon="5.87425">
        <ele>395.8</ele>
        <time>2021-07-28T06:37:15Z</time>
      </trkpt>
      <trkpt lat="49.42993" lon="5.87422">
        <ele>395.8</ele>
        <time>2021-07-28T06:37:17Z</time>
      </trkpt>
      <trkpt lat="49.42992" lon="5.87421">
        <ele>395.8</ele>
        <time>2021-07-28T06:37:18Z</time>
      </trkpt>
      <trkpt lat="49.4299" lon="5.87421">
        <ele>395.9</ele>
        <time>2021-07-28T06:37:19Z</time>
      </trkpt>
      <trkpt lat="49.42987" lon="5.8742">
        <ele>395.9</ele>
        <time>2021-07-28T06:37:20Z</time>
      </trkpt>
      <trkpt lat="49.42985" lon="5.87419">
        <ele>395.9</ele>
        <time>2021-07-28T06:37:21Z</time>
      </trkpt>
      <trkpt lat="49.42984" lon="5.8742">
        <ele>395.9</ele>
        <time>2021-07-28T06:37:22Z</time>
      </trkpt>
      <trkpt lat="49.42982" lon="5.87421">
        <ele>395.9</ele>
        <time>2021-07-28T06:37:24Z</time>
      </trkpt>
      <trkpt lat="49.42981" lon="5.8742">
        <ele>396</ele>
        <time>2021-07-28T06:37:25Z</time>
      </trkpt>
      <trkpt lat="49.42977" lon="5.87417">
        <ele>396</ele>
        <time>2021-07-28T06:37:26Z</time>
      </trkpt>
      <trkpt lat="49.42976" lon="5.87415">
        <ele>396.1</ele>
        <time>2021-07-28T06:37:27Z</time>
      </trkpt>
      <trkpt lat="49.42973" lon="5.87412">
        <ele>396.1</ele>
        <time>2021-07-28T06:37:28Z</time>
      </trkpt>
      <trkpt lat="49.4297" lon="5.87409">
        <ele>396.1</ele>
        <time>2021-07-28T06:37:29Z</time>
      </trkpt>
      <trkpt lat="49.42967" lon="5.87405">
        <ele>396.2</ele>
        <time>2021-07-28T06:37:30Z</time>
      </trkpt>
      <trkpt lat="49.42965" lon="5.87402">
        <ele>396.2</ele>
        <time>2021-07-28T06:37:32Z</time>
      </trkpt>
      <trkpt lat="49.42959" lon="5.87397">
        <ele>396.3</ele>
        <time>2021-07-28T06:37:34Z</time>
      </trkpt>
      <trkpt lat="49.42955" lon="5.87393">
        <ele>396.4</ele>
        <time>2021-07-28T06:37:35Z</time>
      </trkpt>
      <trkpt lat="49.42952" lon="5.87393">
        <ele>396.4</ele>
        <time>2021-07-28T06:37:37Z</time>
      </trkpt>
      <trkpt lat="49.42951" lon="5.87393">
        <ele>396.4</ele>
        <time>2021-07-28T06:37:38Z</time>
      </trkpt>
      <trkpt lat="49.42948" lon="5.87391">
        <ele>396.5</ele>
        <time>2021-07-28T06:37:39Z</time>
      </trkpt>
      <trkpt lat="49.42946" lon="5.8739">
        <ele>396.5</ele>
        <time>2021-07-28T06:37:40Z</time>
      </trkpt>
      <trkpt lat="49.42944" lon="5.87389">
        <ele>396.6</ele>
        <time>2021-07-28T06:37:41Z</time>
      </trkpt>
      <trkpt lat="49.42941" lon="5.87388">
        <ele>396.6</ele>
        <time>2021-07-28T06:37:43Z</time>
      </trkpt>
      <trkpt lat="49.42939" lon="5.87386">
        <ele>396.7</ele>
        <time>2021-07-28T06:37:44Z</time>
      </trkpt>
      <trkpt lat="49.42938" lon="5.87384">
        <ele>396.7</ele>
        <time>2021-07-28T06:37:45Z</time>
      </trkpt>
      <trkpt lat="49.42935" lon="5.8738">
        <ele>396.8</ele>
        <time>2021-07-28T06:37:46Z</time>
      </trkpt>
      <trkpt lat="49.42931" lon="5.87378">
        <ele>396.9</ele>
        <time>2021-07-28T06:37:48Z</time>
      </trkpt>
      <trkpt lat="49.42928" lon="5.87376">
        <ele>397</ele>
        <time>2021-07-28T06:37:49Z</time>
      </trkpt>
      <trkpt lat="49.42925" lon="5.87374">
        <ele>397.1</ele>
        <time>2021-07-28T06:37:50Z</time>
      </trkpt>
      <trkpt lat="49.42922" lon="5.87372">
        <ele>397.2</ele>
        <time>2021-07-28T06:37:51Z</time>
      </trkpt>
      <trkpt lat="49.42918" lon="5.87371">
        <ele>397.3</ele>
        <time>2021-07-28T06:37:53Z</time>
      </trkpt>
      <trkpt lat="49.42916" lon="5.87372">
        <ele>397.4</ele>
        <time>2021-07-28T06:37:54Z</time>
      </trkpt>
      <trkpt lat="49.42914" lon="5.87372">
        <ele>397.4</ele>
        <time>2021-07-28T06:37:55Z</time>
      </trkpt>
      <trkpt lat="49.42913" lon="5.87371">
        <ele>397.5</ele>
        <time>2021-07-28T06:37:57Z</time>
      </trkpt>
      <trkpt lat="49.42909" lon="5.8737">
        <ele>397.6</ele>
        <time>2021-07-28T06:37:58Z</time>
      </trkpt>
      <trkpt lat="49.42907" lon="5.87369">
        <ele>397.7</ele>
        <time>2021-07-28T06:37:59Z</time>
      </trkpt>
      <trkpt lat="49.42905" lon="5.87369">
        <ele>397.8</ele>
        <time>2021-07-28T06:38:01Z</time>
      </trkpt>
      <trkpt lat="49.42901" lon="5.87369">
        <ele>397.9</ele>
        <time>2021-07-28T06:38:02Z</time>
      </trkpt>
      <trkpt lat="49.42899" lon="5.87369">
        <ele>398</ele>
        <time>2021-07-28T06:38:03Z</time>
      </trkpt>
      <trkpt lat="49.42897" lon="5.8737">
        <ele>398.1</ele>
        <time>2021-07-28T06:38:04Z</time>
      </trkpt>
      <trkpt lat="49.42896" lon="5.87371">
        <ele>398.1</ele>
        <time>2021-07-28T06:38:05Z</time>
      </trkpt>
      <trkpt lat="49.42895" lon="5.87372">
        <ele>398.2</ele>
        <time>2021-07-28T06:38:06Z</time>
      </trkpt>
      <trkpt lat="49.42894" lon="5.87373">
        <ele>398.2</ele>
        <time>2021-07-28T06:38:07Z</time>
      </trkpt>
      <trkpt lat="49.42891" lon="5.87377">
        <ele>398.4</ele>
        <time>2021-07-28T06:38:09Z</time>
      </trkpt>
      <trkpt lat="49.42889" lon="5.87378">
        <ele>398.4</ele>
        <time>2021-07-28T06:38:10Z</time>
      </trkpt>
      <trkpt lat="49.42887" lon="5.87382">
        <ele>398.6</ele>
        <time>2021-07-28T06:38:11Z</time>
      </trkpt>
      <trkpt lat="49.42886" lon="5.87384">
        <ele>398.6</ele>
        <time>2021-07-28T06:38:12Z</time>
      </trkpt>
      <trkpt lat="49.42884" lon="5.87385">
        <ele>398.7</ele>
        <time>2021-07-28T06:38:14Z</time>
      </trkpt>
      <trkpt lat="49.42882" lon="5.87388">
        <ele>398.8</ele>
        <time>2021-07-28T06:38:15Z</time>
      </trkpt>
      <trkpt lat="49.42881" lon="5.8739">
        <ele>398.9</ele>
        <time>2021-07-28T06:38:16Z</time>
      </trkpt>
      <trkpt lat="49.42883" lon="5.87395">
        <ele>399</ele>
        <time>2021-07-28T06:38:17Z</time>
      </trkpt>
      <trkpt lat="49.42885" lon="5.87403">
        <ele>399.2</ele>
        <time>2021-07-28T06:38:19Z</time>
      </trkpt>
      <trkpt lat="49.42885" lon="5.87408">
        <ele>399.3</ele>
        <time>2021-07-28T06:38:20Z</time>
      </trkpt>
      <trkpt lat="49.42885" lon="5.87409">
        <ele>399.4</ele>
        <time>2021-07-28T06:38:21Z</time>
      </trkpt>
      <trkpt lat="49.42882" lon="5.87416">
        <ele>399.5</ele>
        <time>2021-07-28T06:38:23Z</time>
      </trkpt>
      <trkpt lat="49.42883" lon="5.87423">
        <ele>399.7</ele>
        <time>2021-07-28T06:38:24Z</time>
      </trkpt>
      <trkpt lat="49.42883" lon="5.87433">
        <ele>399.9</ele>
        <time>2021-07-28T06:38:26Z</time>
      </trkpt>
      <trkpt lat="49.42883" lon="5.87439">
        <ele>400.1</ele>
        <time>2021-07-28T06:38:27Z</time>
      </trkpt>
      <trkpt lat="49.42882" lon="5.87446">
        <ele>400.2</ele>
        <time>2021-07-28T06:38:29Z</time>
      </trkpt>
      <trkpt lat="49.4288" lon="5.87451">
        <ele>400.3</ele>
        <time>2021-07-28T06:38:30Z</time>
      </trkpt>
      <trkpt lat="49.42878" lon="5.87454">
        <ele>400.4</ele>
        <time>2021-07-28T06:38:31Z</time>
      </trkpt>
      <trkpt lat="49.42877" lon="5.87453">
        <ele>400.4</ele>
        <time>2021-07-28T06:38:32Z</time>
      </trkpt>
      <trkpt lat="49.42874" lon="5.8745">
        <ele>400.5</ele>
        <time>2021-07-28T06:38:34Z</time>
      </trkpt>
      <trkpt lat="49.4287" lon="5.87447">
        <ele>400.7</ele>
        <time>2021-07-28T06:38:35Z</time>
      </trkpt>
      <trkpt lat="49.42861" lon="5.87438">
        <ele>400.9</ele>
        <time>2021-07-28T06:38:37Z</time>
      </trkpt>
      <trkpt lat="49.4286" lon="5.87438">
        <ele>400.9</ele>
        <time>2021-07-28T06:38:38Z</time>
      </trkpt>
      <trkpt lat="49.42859" lon="5.87443">
        <ele>401</ele>
        <time>2021-07-28T06:38:40Z</time>
      </trkpt>
      <trkpt lat="49.42858" lon="5.87445">
        <ele>401</ele>
        <time>2021-07-28T06:38:41Z</time>
      </trkpt>
      <trkpt lat="49.42857" lon="5.87449">
        <ele>401.1</ele>
        <time>2021-07-28T06:38:44Z</time>
      </trkpt>
      <trkpt lat="49.42829" lon="5.87473">
        <ele>401.8</ele>
        <time>2021-07-28T06:38:57Z</time>
      </trkpt>
      <trkpt lat="49.42827" lon="5.87477">
        <ele>401.9</ele>
        <time>2021-07-28T06:38:58Z</time>
      </trkpt>
      <trkpt lat="49.42824" lon="5.87483">
        <ele>402</ele>
        <time>2021-07-28T06:39:00Z</time>
      </trkpt>
      <trkpt lat="49.42819" lon="5.87489">
        <ele>402.1</ele>
        <time>2021-07-28T06:39:02Z</time>
      </trkpt>
      <trkpt lat="49.42814" lon="5.87497">
        <ele>402.2</ele>
        <time>2021-07-28T06:39:03Z</time>
      </trkpt>
      <trkpt lat="49.4281" lon="5.87503">
        <ele>402.3</ele>
        <time>2021-07-28T06:39:05Z</time>
      </trkpt>
      <trkpt lat="49.42807" lon="5.87505">
        <ele>402.4</ele>
        <time>2021-07-28T06:39:06Z</time>
      </trkpt>
      <trkpt lat="49.42806" lon="5.87506">
        <ele>402.4</ele>
        <time>2021-07-28T06:39:08Z</time>
      </trkpt>
      <trkpt lat="49.42802" lon="5.87509">
        <ele>402.5</ele>
        <time>2021-07-28T06:39:12Z</time>
      </trkpt>
      <trkpt lat="49.428" lon="5.87515">
        <ele>402.6</ele>
        <time>2021-07-28T06:39:13Z</time>
      </trkpt>
      <trkpt lat="49.42798" lon="5.87519">
        <ele>402.6</ele>
        <time>2021-07-28T06:39:15Z</time>
      </trkpt>
      <trkpt lat="49.42795" lon="5.87522">
        <ele>402.7</ele>
        <time>2021-07-28T06:39:16Z</time>
      </trkpt>
      <trkpt lat="49.42793" lon="5.87526">
        <ele>402.7</ele>
        <time>2021-07-28T06:39:17Z</time>
      </trkpt>
      <trkpt lat="49.42792" lon="5.87527">
        <ele>402.7</ele>
        <time>2021-07-28T06:39:18Z</time>
      </trkpt>
      <trkpt lat="49.4279" lon="5.87528">
        <ele>402.7</ele>
        <time>2021-07-28T06:39:20Z</time>
      </trkpt>
      <trkpt lat="49.4279" lon="5.87529">
        <ele>402.7</ele>
        <time>2021-07-28T06:39:21Z</time>
      </trkpt>
      <trkpt lat="49.4279" lon="5.87532">
        <ele>402.7</ele>
        <time>2021-07-28T06:39:22Z</time>
      </trkpt>
      <trkpt lat="49.42789" lon="5.87536">
        <ele>402.8</ele>
        <time>2021-07-28T06:39:24Z</time>
      </trkpt>
      <trkpt lat="49.42786" lon="5.87542">
        <ele>402.8</ele>
        <time>2021-07-28T06:39:26Z</time>
      </trkpt>
      <trkpt lat="49.42784" lon="5.87549">
        <ele>402.8</ele>
        <time>2021-07-28T06:39:28Z</time>
      </trkpt>
      <trkpt lat="49.42782" lon="5.87554">
        <ele>402.7</ele>
        <time>2021-07-28T06:39:29Z</time>
      </trkpt>
      <trkpt lat="49.42781" lon="5.87559">
        <ele>402.7</ele>
        <time>2021-07-28T06:39:30Z</time>
      </trkpt>
      <trkpt lat="49.42781" lon="5.87564">
        <ele>402.7</ele>
        <time>2021-07-28T06:39:32Z</time>
      </trkpt>
      <trkpt lat="49.4278" lon="5.87568">
        <ele>402.7</ele>
        <time>2021-07-28T06:39:33Z</time>
      </trkpt>
      <trkpt lat="49.4278" lon="5.87575">
        <ele>402.6</ele>
        <time>2021-07-28T06:39:34Z</time>
      </trkpt>
      <trkpt lat="49.42781" lon="5.87585">
        <ele>402.6</ele>
        <time>2021-07-28T06:39:36Z</time>
      </trkpt>
      <trkpt lat="49.42779" lon="5.87599">
        <ele>402.6</ele>
        <time>2021-07-28T06:39:37Z</time>
      </trkpt>
      <trkpt lat="49.42776" lon="5.87605">
        <ele>402.5</ele>
        <time>2021-07-28T06:39:39Z</time>
      </trkpt>
      <trkpt lat="49.42775" lon="5.87611">
        <ele>402.5</ele>
        <time>2021-07-28T06:39:40Z</time>
      </trkpt>
      <trkpt lat="49.42773" lon="5.87621">
        <ele>402.4</ele>
        <time>2021-07-28T06:39:41Z</time>
      </trkpt>
      <trkpt lat="49.42772" lon="5.87627">
        <ele>402.4</ele>
        <time>2021-07-28T06:39:42Z</time>
      </trkpt>
      <trkpt lat="49.42771" lon="5.87633">
        <ele>402.3</ele>
        <time>2021-07-28T06:39:44Z</time>
      </trkpt>
      <trkpt lat="49.42775" lon="5.87644">
        <ele>402.3</ele>
        <time>2021-07-28T06:39:45Z</time>
      </trkpt>
      <trkpt lat="49.42777" lon="5.87652">
        <ele>402.2</ele>
        <time>2021-07-28T06:39:47Z</time>
      </trkpt>
      <trkpt lat="49.42779" lon="5.87659">
        <ele>402.2</ele>
        <time>2021-07-28T06:39:48Z</time>
      </trkpt>
      <trkpt lat="49.42781" lon="5.87665">
        <ele>402.2</ele>
        <time>2021-07-28T06:39:49Z</time>
      </trkpt>
      <trkpt lat="49.42782" lon="5.87673">
        <ele>402.2</ele>
        <time>2021-07-28T06:39:50Z</time>
      </trkpt>
      <trkpt lat="49.42785" lon="5.87685">
        <ele>402.3</ele>
        <time>2021-07-28T06:39:51Z</time>
      </trkpt>
      <trkpt lat="49.42786" lon="5.87694">
        <ele>402.3</ele>
        <time>2021-07-28T06:39:53Z</time>
      </trkpt>
      <trkpt lat="49.42788" lon="5.87705">
        <ele>402.3</ele>
        <time>2021-07-28T06:39:54Z</time>
      </trkpt>
      <trkpt lat="49.42789" lon="5.87712">
        <ele>402.3</ele>
        <time>2021-07-28T06:39:56Z</time>
      </trkpt>
      <trkpt lat="49.42792" lon="5.8772">
        <ele>402.3</ele>
        <time>2021-07-28T06:39:58Z</time>
      </trkpt>
      <trkpt lat="49.42792" lon="5.87721">
        <ele>402.3</ele>
        <time>2021-07-28T06:39:59Z</time>
      </trkpt>
      <trkpt lat="49.42792" lon="5.87723">
        <ele>402.3</ele>
        <time>2021-07-28T06:40:00Z</time>
      </trkpt>
      <trkpt lat="49.42793" lon="5.87725">
        <ele>402.3</ele>
        <time>2021-07-28T06:40:01Z</time>
      </trkpt>
      <trkpt lat="49.42793" lon="5.87727">
        <ele>402.3</ele>
        <time>2021-07-28T06:40:03Z</time>
      </trkpt>
      <trkpt lat="49.42793" lon="5.8773">
        <ele>402.3</ele>
        <time>2021-07-28T06:40:04Z</time>
      </trkpt>
      <trkpt lat="49.42793" lon="5.87738">
        <ele>402.3</ele>
        <time>2021-07-28T06:40:05Z</time>
      </trkpt>
      <trkpt lat="49.42794" lon="5.87741">
        <ele>402.3</ele>
        <time>2021-07-28T06:40:06Z</time>
      </trkpt>
      <trkpt lat="49.42796" lon="5.87747">
        <ele>402.3</ele>
        <time>2021-07-28T06:40:07Z</time>
      </trkpt>
      <trkpt lat="49.42798" lon="5.87754">
        <ele>402.3</ele>
        <time>2021-07-28T06:40:09Z</time>
      </trkpt>
      <trkpt lat="49.42799" lon="5.87761">
        <ele>402.3</ele>
        <time>2021-07-28T06:40:10Z</time>
      </trkpt>
      <trkpt lat="49.428" lon="5.87771">
        <ele>402.3</ele>
        <time>2021-07-28T06:40:11Z</time>
      </trkpt>
      <trkpt lat="49.42802" lon="5.87776">
        <ele>402.3</ele>
        <time>2021-07-28T06:40:13Z</time>
      </trkpt>
      <trkpt lat="49.42804" lon="5.8778">
        <ele>402.3</ele>
        <time>2021-07-28T06:40:14Z</time>
      </trkpt>
      <trkpt lat="49.42806" lon="5.87786">
        <ele>402.3</ele>
        <time>2021-07-28T06:40:15Z</time>
      </trkpt>
      <trkpt lat="49.42807" lon="5.8779">
        <ele>402.3</ele>
        <time>2021-07-28T06:40:17Z</time>
      </trkpt>
      <trkpt lat="49.42809" lon="5.87795">
        <ele>402.3</ele>
        <time>2021-07-28T06:40:18Z</time>
      </trkpt>
      <trkpt lat="49.42811" lon="5.878">
        <ele>402.4</ele>
        <time>2021-07-28T06:40:20Z</time>
      </trkpt>
      <trkpt lat="49.42814" lon="5.87804">
        <ele>402.4</ele>
        <time>2021-07-28T06:40:21Z</time>
      </trkpt>
      <trkpt lat="49.42816" lon="5.87808">
        <ele>402.4</ele>
        <time>2021-07-28T06:40:22Z</time>
      </trkpt>
      <trkpt lat="49.42819" lon="5.87812">
        <ele>402.5</ele>
        <time>2021-07-28T06:40:23Z</time>
      </trkpt>
      <trkpt lat="49.42821" lon="5.87816">
        <ele>402.5</ele>
        <time>2021-07-28T06:40:24Z</time>
      </trkpt>
      <trkpt lat="49.42825" lon="5.87823">
        <ele>402.6</ele>
        <time>2021-07-28T06:40:25Z</time>
      </trkpt>
      <trkpt lat="49.42828" lon="5.8783">
        <ele>402.7</ele>
        <time>2021-07-28T06:40:27Z</time>
      </trkpt>
      <trkpt lat="49.42829" lon="5.87839">
        <ele>402.9</ele>
        <time>2021-07-28T06:40:28Z</time>
      </trkpt>
      <trkpt lat="49.42829" lon="5.87844">
        <ele>402.9</ele>
        <time>2021-07-28T06:40:30Z</time>
      </trkpt>
      <trkpt lat="49.42829" lon="5.87847">
        <ele>402.9</ele>
        <time>2021-07-28T06:40:31Z</time>
      </trkpt>
      <trkpt lat="49.42828" lon="5.8785">
        <ele>403</ele>
        <time>2021-07-28T06:40:32Z</time>
      </trkpt>
      <trkpt lat="49.42828" lon="5.87856">
        <ele>403</ele>
        <time>2021-07-28T06:40:34Z</time>
      </trkpt>
      <trkpt lat="49.42828" lon="5.87866">
        <ele>403.1</ele>
        <time>2021-07-28T06:40:36Z</time>
      </trkpt>
      <trkpt lat="49.42829" lon="5.87872">
        <ele>403.1</ele>
        <time>2021-07-28T06:40:37Z</time>
      </trkpt>
      <trkpt lat="49.42832" lon="5.87881">
        <ele>403.2</ele>
        <time>2021-07-28T06:40:39Z</time>
      </trkpt>
      <trkpt lat="49.42834" lon="5.87885">
        <ele>403.2</ele>
        <time>2021-07-28T06:40:40Z</time>
      </trkpt>
      <trkpt lat="49.42839" lon="5.8789">
        <ele>403.2</ele>
        <time>2021-07-28T06:40:41Z</time>
      </trkpt>
      <trkpt lat="49.42842" lon="5.87895">
        <ele>403.3</ele>
        <time>2021-07-28T06:40:42Z</time>
      </trkpt>
      <trkpt lat="49.42845" lon="5.87901">
        <ele>403.4</ele>
        <time>2021-07-28T06:40:43Z</time>
      </trkpt>
      <trkpt lat="49.42847" lon="5.87907">
        <ele>403.4</ele>
        <time>2021-07-28T06:40:44Z</time>
      </trkpt>
      <trkpt lat="49.42848" lon="5.87914">
        <ele>403.5</ele>
        <time>2021-07-28T06:40:46Z</time>
      </trkpt>
      <trkpt lat="49.42849" lon="5.8792">
        <ele>403.6</ele>
        <time>2021-07-28T06:40:47Z</time>
      </trkpt>
      <trkpt lat="49.42852" lon="5.87929">
        <ele>403.7</ele>
        <time>2021-07-28T06:40:48Z</time>
      </trkpt>
      <trkpt lat="49.42855" lon="5.87934">
        <ele>403.7</ele>
        <time>2021-07-28T06:40:50Z</time>
      </trkpt>
      <trkpt lat="49.42858" lon="5.87943">
        <ele>403.8</ele>
        <time>2021-07-28T06:40:51Z</time>
      </trkpt>
      <trkpt lat="49.42861" lon="5.87948">
        <ele>403.9</ele>
        <time>2021-07-28T06:40:53Z</time>
      </trkpt>
      <trkpt lat="49.42862" lon="5.87951">
        <ele>403.9</ele>
        <time>2021-07-28T06:40:54Z</time>
      </trkpt>
      <trkpt lat="49.42863" lon="5.87956">
        <ele>403.9</ele>
        <time>2021-07-28T06:40:55Z</time>
      </trkpt>
      <trkpt lat="49.42865" lon="5.87962">
        <ele>403.9</ele>
        <time>2021-07-28T06:40:56Z</time>
      </trkpt>
      <trkpt lat="49.42866" lon="5.87967">
        <ele>404</ele>
        <time>2021-07-28T06:40:58Z</time>
      </trkpt>
      <trkpt lat="49.42868" lon="5.87971">
        <ele>404</ele>
        <time>2021-07-28T06:40:59Z</time>
      </trkpt>
      <trkpt lat="49.4287" lon="5.87975">
        <ele>404</ele>
        <time>2021-07-28T06:41:00Z</time>
      </trkpt>
      <trkpt lat="49.42873" lon="5.87982">
        <ele>404</ele>
        <time>2021-07-28T06:41:01Z</time>
      </trkpt>
      <trkpt lat="49.42876" lon="5.87986">
        <ele>404</ele>
        <time>2021-07-28T06:41:03Z</time>
      </trkpt>
      <trkpt lat="49.42879" lon="5.87992">
        <ele>404</ele>
        <time>2021-07-28T06:41:04Z</time>
      </trkpt>
      <trkpt lat="49.42882" lon="5.87995">
        <ele>403.9</ele>
        <time>2021-07-28T06:41:05Z</time>
      </trkpt>
      <trkpt lat="49.42884" lon="5.87998">
        <ele>403.9</ele>
        <time>2021-07-28T06:41:07Z</time>
      </trkpt>
      <trkpt lat="49.42887" lon="5.88002">
        <ele>404</ele>
        <time>2021-07-28T06:41:08Z</time>
      </trkpt>
      <trkpt lat="49.42889" lon="5.88006">
        <ele>404</ele>
        <time>2021-07-28T06:41:09Z</time>
      </trkpt>
      <trkpt lat="49.42893" lon="5.88013">
        <ele>404</ele>
        <time>2021-07-28T06:41:11Z</time>
      </trkpt>
      <trkpt lat="49.42894" lon="5.88017">
        <ele>404</ele>
        <time>2021-07-28T06:41:12Z</time>
      </trkpt>
      <trkpt lat="49.42895" lon="5.88021">
        <ele>404</ele>
        <time>2021-07-28T06:41:13Z</time>
      </trkpt>
      <trkpt lat="49.42897" lon="5.88027">
        <ele>404.1</ele>
        <time>2021-07-28T06:41:15Z</time>
      </trkpt>
      <trkpt lat="49.42901" lon="5.8803">
        <ele>404.1</ele>
        <time>2021-07-28T06:41:16Z</time>
      </trkpt>
      <trkpt lat="49.42904" lon="5.88036">
        <ele>404.1</ele>
        <time>2021-07-28T06:41:18Z</time>
      </trkpt>
      <trkpt lat="49.42906" lon="5.88038">
        <ele>404.1</ele>
        <time>2021-07-28T06:41:19Z</time>
      </trkpt>
      <trkpt lat="49.42907" lon="5.88039">
        <ele>404.1</ele>
        <time>2021-07-28T06:41:20Z</time>
      </trkpt>
      <trkpt lat="49.42908" lon="5.88046">
        <ele>404.1</ele>
        <time>2021-07-28T06:41:21Z</time>
      </trkpt>
      <trkpt lat="49.42908" lon="5.88048">
        <ele>404.1</ele>
        <time>2021-07-28T06:41:22Z</time>
      </trkpt>
      <trkpt lat="49.42909" lon="5.88053">
        <ele>404.1</ele>
        <time>2021-07-28T06:41:23Z</time>
      </trkpt>
      <trkpt lat="49.42911" lon="5.8806">
        <ele>404.1</ele>
        <time>2021-07-28T06:41:25Z</time>
      </trkpt>
      <trkpt lat="49.42911" lon="5.88065">
        <ele>404.1</ele>
        <time>2021-07-28T06:41:26Z</time>
      </trkpt>
      <trkpt lat="49.42911" lon="5.88072">
        <ele>404.1</ele>
        <time>2021-07-28T06:41:27Z</time>
      </trkpt>
      <trkpt lat="49.42912" lon="5.88079">
        <ele>404.1</ele>
        <time>2021-07-28T06:41:29Z</time>
      </trkpt>
      <trkpt lat="49.42913" lon="5.88084">
        <ele>404.1</ele>
        <time>2021-07-28T06:41:30Z</time>
      </trkpt>
      <trkpt lat="49.42915" lon="5.8809">
        <ele>404.1</ele>
        <time>2021-07-28T06:41:31Z</time>
      </trkpt>
      <trkpt lat="49.42915" lon="5.88096">
        <ele>404</ele>
        <time>2021-07-28T06:41:32Z</time>
      </trkpt>
      <trkpt lat="49.42916" lon="5.88103">
        <ele>404</ele>
        <time>2021-07-28T06:41:33Z</time>
      </trkpt>
      <trkpt lat="49.42915" lon="5.88112">
        <ele>404</ele>
        <time>2021-07-28T06:41:35Z</time>
      </trkpt>
      <trkpt lat="49.42915" lon="5.88118">
        <ele>404</ele>
        <time>2021-07-28T06:41:36Z</time>
      </trkpt>
      <trkpt lat="49.42914" lon="5.88125">
        <ele>403.9</ele>
        <time>2021-07-28T06:41:37Z</time>
      </trkpt>
      <trkpt lat="49.42913" lon="5.88131">
        <ele>403.9</ele>
        <time>2021-07-28T06:41:38Z</time>
      </trkpt>
      <trkpt lat="49.42914" lon="5.88138">
        <ele>403.9</ele>
        <time>2021-07-28T06:41:40Z</time>
      </trkpt>
      <trkpt lat="49.42914" lon="5.88144">
        <ele>403.9</ele>
        <time>2021-07-28T06:41:41Z</time>
      </trkpt>
      <trkpt lat="49.42915" lon="5.88149">
        <ele>403.9</ele>
        <time>2021-07-28T06:41:42Z</time>
      </trkpt>
      <trkpt lat="49.42916" lon="5.88154">
        <ele>403.8</ele>
        <time>2021-07-28T06:41:44Z</time>
      </trkpt>
      <trkpt lat="49.42916" lon="5.8816">
        <ele>403.8</ele>
        <time>2021-07-28T06:41:45Z</time>
      </trkpt>
      <trkpt lat="49.42917" lon="5.88165">
        <ele>403.8</ele>
        <time>2021-07-28T06:41:46Z</time>
      </trkpt>
      <trkpt lat="49.42917" lon="5.8817">
        <ele>403.8</ele>
        <time>2021-07-28T06:41:47Z</time>
      </trkpt>
      <trkpt lat="49.42917" lon="5.88176">
        <ele>403.8</ele>
        <time>2021-07-28T06:41:48Z</time>
      </trkpt>
      <trkpt lat="49.42918" lon="5.88181">
        <ele>403.8</ele>
        <time>2021-07-28T06:41:49Z</time>
      </trkpt>
      <trkpt lat="49.42919" lon="5.88187">
        <ele>403.8</ele>
        <time>2021-07-28T06:41:50Z</time>
      </trkpt>
      <trkpt lat="49.42922" lon="5.88199">
        <ele>403.9</ele>
        <time>2021-07-28T06:41:52Z</time>
      </trkpt>
      <trkpt lat="49.42924" lon="5.88206">
        <ele>403.9</ele>
        <time>2021-07-28T06:41:53Z</time>
      </trkpt>
      <trkpt lat="49.42927" lon="5.88214">
        <ele>403.9</ele>
        <time>2021-07-28T06:41:55Z</time>
      </trkpt>
      <trkpt lat="49.4293" lon="5.88221">
        <ele>403.9</ele>
        <time>2021-07-28T06:41:56Z</time>
      </trkpt>
      <trkpt lat="49.42931" lon="5.88226">
        <ele>403.9</ele>
        <time>2021-07-28T06:41:57Z</time>
      </trkpt>
      <trkpt lat="49.42933" lon="5.88232">
        <ele>403.9</ele>
        <time>2021-07-28T06:41:58Z</time>
      </trkpt>
      <trkpt lat="49.42936" lon="5.88244">
        <ele>403.9</ele>
        <time>2021-07-28T06:42:00Z</time>
      </trkpt>
      <trkpt lat="49.42937" lon="5.88249">
        <ele>403.8</ele>
        <time>2021-07-28T06:42:01Z</time>
      </trkpt>
      <trkpt lat="49.42938" lon="5.88256">
        <ele>403.8</ele>
        <time>2021-07-28T06:42:03Z</time>
      </trkpt>
      <trkpt lat="49.42939" lon="5.88264">
        <ele>403.8</ele>
        <time>2021-07-28T06:42:04Z</time>
      </trkpt>
      <trkpt lat="49.42941" lon="5.8827">
        <ele>403.8</ele>
        <time>2021-07-28T06:42:06Z</time>
      </trkpt>
      <trkpt lat="49.42944" lon="5.88277">
        <ele>403.8</ele>
        <time>2021-07-28T06:42:07Z</time>
      </trkpt>
      <trkpt lat="49.42946" lon="5.88282">
        <ele>403.8</ele>
        <time>2021-07-28T06:42:08Z</time>
      </trkpt>
      <trkpt lat="49.42948" lon="5.88287">
        <ele>403.8</ele>
        <time>2021-07-28T06:42:10Z</time>
      </trkpt>
      <trkpt lat="49.42949" lon="5.88292">
        <ele>403.8</ele>
        <time>2021-07-28T06:42:11Z</time>
      </trkpt>
      <trkpt lat="49.42951" lon="5.88298">
        <ele>403.8</ele>
        <time>2021-07-28T06:42:12Z</time>
      </trkpt>
      <trkpt lat="49.42953" lon="5.88303">
        <ele>403.9</ele>
        <time>2021-07-28T06:42:13Z</time>
      </trkpt>
      <trkpt lat="49.42956" lon="5.88309">
        <ele>403.9</ele>
        <time>2021-07-28T06:42:14Z</time>
      </trkpt>
      <trkpt lat="49.42958" lon="5.88314">
        <ele>403.9</ele>
        <time>2021-07-28T06:42:15Z</time>
      </trkpt>
      <trkpt lat="49.42959" lon="5.88319">
        <ele>403.9</ele>
        <time>2021-07-28T06:42:16Z</time>
      </trkpt>
      <trkpt lat="49.42961" lon="5.88325">
        <ele>403.9</ele>
        <time>2021-07-28T06:42:17Z</time>
      </trkpt>
      <trkpt lat="49.42963" lon="5.8833">
        <ele>403.9</ele>
        <time>2021-07-28T06:42:19Z</time>
      </trkpt>
      <trkpt lat="49.42963" lon="5.88335">
        <ele>404</ele>
        <time>2021-07-28T06:42:20Z</time>
      </trkpt>
      <trkpt lat="49.42965" lon="5.8834">
        <ele>404</ele>
        <time>2021-07-28T06:42:22Z</time>
      </trkpt>
      <trkpt lat="49.42967" lon="5.88345">
        <ele>404</ele>
        <time>2021-07-28T06:42:23Z</time>
      </trkpt>
      <trkpt lat="49.42968" lon="5.88346">
        <ele>404</ele>
        <time>2021-07-28T06:42:24Z</time>
      </trkpt>
      <trkpt lat="49.4297" lon="5.88352">
        <ele>404.1</ele>
        <time>2021-07-28T06:42:25Z</time>
      </trkpt>
      <trkpt lat="49.42973" lon="5.8836">
        <ele>404.1</ele>
        <time>2021-07-28T06:42:27Z</time>
      </trkpt>
      <trkpt lat="49.42974" lon="5.88365">
        <ele>404.1</ele>
        <time>2021-07-28T06:42:28Z</time>
      </trkpt>
      <trkpt lat="49.42974" lon="5.88371">
        <ele>404.2</ele>
        <time>2021-07-28T06:42:29Z</time>
      </trkpt>
      <trkpt lat="49.42975" lon="5.88379">
        <ele>404.2</ele>
        <time>2021-07-28T06:42:31Z</time>
      </trkpt>
      <trkpt lat="49.42975" lon="5.88381">
        <ele>404.2</ele>
        <time>2021-07-28T06:42:32Z</time>
      </trkpt>
      <trkpt lat="49.42976" lon="5.88384">
        <ele>404.2</ele>
        <time>2021-07-28T06:42:33Z</time>
      </trkpt>
      <trkpt lat="49.42976" lon="5.8839">
        <ele>404.3</ele>
        <time>2021-07-28T06:42:34Z</time>
      </trkpt>
      <trkpt lat="49.42977" lon="5.88394">
        <ele>404.3</ele>
        <time>2021-07-28T06:42:35Z</time>
      </trkpt>
      <trkpt lat="49.42977" lon="5.88401">
        <ele>404.3</ele>
        <time>2021-07-28T06:42:36Z</time>
      </trkpt>
      <trkpt lat="49.42978" lon="5.88408">
        <ele>404.4</ele>
        <time>2021-07-28T06:42:38Z</time>
      </trkpt>
      <trkpt lat="49.42979" lon="5.88415">
        <ele>404.5</ele>
        <time>2021-07-28T06:42:39Z</time>
      </trkpt>
      <trkpt lat="49.4298" lon="5.88423">
        <ele>404.5</ele>
        <time>2021-07-28T06:42:40Z</time>
      </trkpt>
      <trkpt lat="49.42981" lon="5.88429">
        <ele>404.6</ele>
        <time>2021-07-28T06:42:41Z</time>
      </trkpt>
      <trkpt lat="49.42982" lon="5.88433">
        <ele>404.6</ele>
        <time>2021-07-28T06:42:43Z</time>
      </trkpt>
      <trkpt lat="49.42983" lon="5.88441">
        <ele>404.6</ele>
        <time>2021-07-28T06:42:44Z</time>
      </trkpt>
      <trkpt lat="49.42983" lon="5.88447">
        <ele>404.7</ele>
        <time>2021-07-28T06:42:45Z</time>
      </trkpt>
      <trkpt lat="49.42983" lon="5.88453">
        <ele>404.7</ele>
        <time>2021-07-28T06:42:46Z</time>
      </trkpt>
      <trkpt lat="49.42983" lon="5.88459">
        <ele>404.8</ele>
        <time>2021-07-28T06:42:48Z</time>
      </trkpt>
      <trkpt lat="49.42984" lon="5.88464">
        <ele>404.8</ele>
        <time>2021-07-28T06:42:49Z</time>
      </trkpt>
      <trkpt lat="49.42983" lon="5.88471">
        <ele>404.9</ele>
        <time>2021-07-28T06:42:50Z</time>
      </trkpt>
      <trkpt lat="49.42982" lon="5.88478">
        <ele>404.9</ele>
        <time>2021-07-28T06:42:51Z</time>
      </trkpt>
      <trkpt lat="49.42981" lon="5.88485">
        <ele>405</ele>
        <time>2021-07-28T06:42:52Z</time>
      </trkpt>
      <trkpt lat="49.4298" lon="5.8849">
        <ele>405</ele>
        <time>2021-07-28T06:42:53Z</time>
      </trkpt>
      <trkpt lat="49.42979" lon="5.88495">
        <ele>405.1</ele>
        <time>2021-07-28T06:42:54Z</time>
      </trkpt>
      <trkpt lat="49.42977" lon="5.88499">
        <ele>405.1</ele>
        <time>2021-07-28T06:42:56Z</time>
      </trkpt>
      <trkpt lat="49.42976" lon="5.88504">
        <ele>405.2</ele>
        <time>2021-07-28T06:42:57Z</time>
      </trkpt>
      <trkpt lat="49.42976" lon="5.88509">
        <ele>405.2</ele>
        <time>2021-07-28T06:42:58Z</time>
      </trkpt>
      <trkpt lat="49.42977" lon="5.88514">
        <ele>405.3</ele>
        <time>2021-07-28T06:42:59Z</time>
      </trkpt>
      <trkpt lat="49.42977" lon="5.8852">
        <ele>405.4</ele>
        <time>2021-07-28T06:43:00Z</time>
      </trkpt>
      <trkpt lat="49.42977" lon="5.88526">
        <ele>405.4</ele>
        <time>2021-07-28T06:43:02Z</time>
      </trkpt>
      <trkpt lat="49.42975" lon="5.88534">
        <ele>405.5</ele>
        <time>2021-07-28T06:43:03Z</time>
      </trkpt>
      <trkpt lat="49.42973" lon="5.88539">
        <ele>405.6</ele>
        <time>2021-07-28T06:43:04Z</time>
      </trkpt>
      <trkpt lat="49.42973" lon="5.88545">
        <ele>405.7</ele>
        <time>2021-07-28T06:43:05Z</time>
      </trkpt>
      <trkpt lat="49.42972" lon="5.88551">
        <ele>405.7</ele>
        <time>2021-07-28T06:43:07Z</time>
      </trkpt>
      <trkpt lat="49.42972" lon="5.88558">
        <ele>405.8</ele>
        <time>2021-07-28T06:43:08Z</time>
      </trkpt>
      <trkpt lat="49.42972" lon="5.88572">
        <ele>406</ele>
        <time>2021-07-28T06:43:09Z</time>
      </trkpt>
      <trkpt lat="49.42978" lon="5.88599">
        <ele>406.3</ele>
        <time>2021-07-28T06:43:11Z</time>
      </trkpt>
      <trkpt lat="49.42981" lon="5.8861">
        <ele>406.4</ele>
        <time>2021-07-28T06:43:12Z</time>
      </trkpt>
      <trkpt lat="49.42984" lon="5.88623">
        <ele>406.6</ele>
        <time>2021-07-28T06:43:14Z</time>
      </trkpt>
      <trkpt lat="49.42985" lon="5.8863">
        <ele>406.7</ele>
        <time>2021-07-28T06:43:15Z</time>
      </trkpt>
      <trkpt lat="49.42986" lon="5.88638">
        <ele>406.7</ele>
        <time>2021-07-28T06:43:17Z</time>
      </trkpt>
      <trkpt lat="49.42987" lon="5.88643">
        <ele>406.8</ele>
        <time>2021-07-28T06:43:18Z</time>
      </trkpt>
      <trkpt lat="49.42988" lon="5.88644">
        <ele>406.8</ele>
        <time>2021-07-28T06:43:19Z</time>
      </trkpt>
      <trkpt lat="49.42988" lon="5.88649">
        <ele>406.9</ele>
        <time>2021-07-28T06:43:20Z</time>
      </trkpt>
      <trkpt lat="49.42988" lon="5.88651">
        <ele>406.9</ele>
        <time>2021-07-28T06:43:21Z</time>
      </trkpt>
      <trkpt lat="49.42988" lon="5.88654">
        <ele>406.9</ele>
        <time>2021-07-28T06:43:22Z</time>
      </trkpt>
      <trkpt lat="49.42989" lon="5.88656">
        <ele>407</ele>
        <time>2021-07-28T06:43:23Z</time>
      </trkpt>
      <trkpt lat="49.42989" lon="5.88657">
        <ele>407</ele>
        <time>2021-07-28T06:43:25Z</time>
      </trkpt>
      <trkpt lat="49.42989" lon="5.88658">
        <ele>407</ele>
        <time>2021-07-28T06:43:26Z</time>
      </trkpt>
      <trkpt lat="49.42989" lon="5.88659">
        <ele>407</ele>
        <time>2021-07-28T06:43:27Z</time>
      </trkpt>
      <trkpt lat="49.42989" lon="5.8866">
        <ele>407</ele>
        <time>2021-07-28T06:43:28Z</time>
      </trkpt>
      <trkpt lat="49.42989" lon="5.88663">
        <ele>407</ele>
        <time>2021-07-28T06:43:29Z</time>
      </trkpt>
      <trkpt lat="49.42988" lon="5.88665">
        <ele>407.1</ele>
        <time>2021-07-28T06:43:31Z</time>
      </trkpt>
      <trkpt lat="49.42987" lon="5.88667">
        <ele>407.1</ele>
        <time>2021-07-28T06:43:32Z</time>
      </trkpt>
      <trkpt lat="49.43029" lon="5.88768">
        <ele>408.2</ele>
        <time>2021-07-28T06:44:11Z</time>
      </trkpt>
      <trkpt lat="49.43033" lon="5.88772">
        <ele>408.3</ele>
        <time>2021-07-28T06:44:12Z</time>
      </trkpt>
      <trkpt lat="49.43038" lon="5.88776">
        <ele>408.4</ele>
        <time>2021-07-28T06:44:13Z</time>
      </trkpt>
      <trkpt lat="49.43042" lon="5.88782">
        <ele>408.5</ele>
        <time>2021-07-28T06:44:14Z</time>
      </trkpt>
      <trkpt lat="49.43046" lon="5.88788">
        <ele>408.5</ele>
        <time>2021-07-28T06:44:16Z</time>
      </trkpt>
      <trkpt lat="49.43052" lon="5.88794">
        <ele>408.7</ele>
        <time>2021-07-28T06:44:17Z</time>
      </trkpt>
      <trkpt lat="49.43054" lon="5.88802">
        <ele>408.8</ele>
        <time>2021-07-28T06:44:19Z</time>
      </trkpt>
      <trkpt lat="49.43056" lon="5.88806">
        <ele>408.8</ele>
        <time>2021-07-28T06:44:20Z</time>
      </trkpt>
      <trkpt lat="49.43057" lon="5.88809">
        <ele>408.8</ele>
        <time>2021-07-28T06:44:21Z</time>
      </trkpt>
      <trkpt lat="49.4306" lon="5.88812">
        <ele>408.9</ele>
        <time>2021-07-28T06:44:23Z</time>
      </trkpt>
      <trkpt lat="49.43065" lon="5.88821">
        <ele>408.9</ele>
        <time>2021-07-28T06:44:24Z</time>
      </trkpt>
      <trkpt lat="49.43068" lon="5.88829">
        <ele>409</ele>
        <time>2021-07-28T06:44:25Z</time>
      </trkpt>
      <trkpt lat="49.43068" lon="5.88826">
        <ele>409</ele>
        <time>2021-07-28T06:44:26Z</time>
      </trkpt>
      <trkpt lat="49.4307" lon="5.88834">
        <ele>409</ele>
        <time>2021-07-28T06:44:27Z</time>
      </trkpt>
      <trkpt lat="49.43069" lon="5.88831">
        <ele>409.1</ele>
        <time>2021-07-28T06:44:29Z</time>
      </trkpt>
      <trkpt lat="49.43071" lon="5.88839">
        <ele>409.1</ele>
        <time>2021-07-28T06:44:30Z</time>
      </trkpt>
      <trkpt lat="49.43077" lon="5.88854">
        <ele>409.3</ele>
        <time>2021-07-28T06:44:31Z</time>
      </trkpt>
      <trkpt lat="49.4308" lon="5.88862">
        <ele>409.4</ele>
        <time>2021-07-28T06:44:32Z</time>
      </trkpt>
      <trkpt lat="49.43083" lon="5.88867">
        <ele>409.4</ele>
        <time>2021-07-28T06:44:34Z</time>
      </trkpt>
      <trkpt lat="49.43085" lon="5.88869">
        <ele>409.4</ele>
        <time>2021-07-28T06:44:35Z</time>
      </trkpt>
      <trkpt lat="49.43115" lon="5.88941">
        <ele>410.4</ele>
        <time>2021-07-28T06:45:03Z</time>
      </trkpt>
      <trkpt lat="49.43115" lon="5.88947">
        <ele>410.5</ele>
        <time>2021-07-28T06:45:04Z</time>
      </trkpt>
      <trkpt lat="49.43116" lon="5.88957">
        <ele>410.6</ele>
        <time>2021-07-28T06:45:05Z</time>
      </trkpt>
      <trkpt lat="49.43117" lon="5.88965">
        <ele>410.7</ele>
        <time>2021-07-28T06:45:06Z</time>
      </trkpt>
      <trkpt lat="49.43119" lon="5.88971">
        <ele>410.9</ele>
        <time>2021-07-28T06:45:08Z</time>
      </trkpt>
      <trkpt lat="49.43122" lon="5.88981">
        <ele>411</ele>
        <time>2021-07-28T06:45:09Z</time>
      </trkpt>
      <trkpt lat="49.43125" lon="5.88991">
        <ele>411.2</ele>
        <time>2021-07-28T06:45:10Z</time>
      </trkpt>
      <trkpt lat="49.43126" lon="5.88995">
        <ele>411.3</ele>
        <time>2021-07-28T06:45:12Z</time>
      </trkpt>
      <trkpt lat="49.43126" lon="5.88998">
        <ele>411.4</ele>
        <time>2021-07-28T06:45:13Z</time>
      </trkpt>
      <trkpt lat="49.43125" lon="5.89">
        <ele>411.5</ele>
        <time>2021-07-28T06:45:14Z</time>
      </trkpt>
      <trkpt lat="49.43124" lon="5.89004">
        <ele>411.6</ele>
        <time>2021-07-28T06:45:17Z</time>
      </trkpt>
      <trkpt lat="49.43124" lon="5.89004">
        <ele>411.7</ele>
        <time>2021-07-28T06:45:17Z</time>
      </trkpt>
      <trkpt lat="49.4312" lon="5.89011">
        <ele>411.9</ele>
        <time>2021-07-28T06:45:18Z</time>
      </trkpt>
      <trkpt lat="49.43117" lon="5.89016">
        <ele>412.2</ele>
        <time>2021-07-28T06:45:19Z</time>
      </trkpt>
      <trkpt lat="49.43116" lon="5.89017">
        <ele>412.2</ele>
        <time>2021-07-28T06:45:20Z</time>
      </trkpt>
      <trkpt lat="49.4311" lon="5.89025">
        <ele>412.6</ele>
        <time>2021-07-28T06:45:22Z</time>
      </trkpt>
      <trkpt lat="49.43108" lon="5.89029">
        <ele>412.9</ele>
        <time>2021-07-28T06:45:24Z</time>
      </trkpt>
      <trkpt lat="49.43108" lon="5.89029">
        <ele>412.9</ele>
        <time>2021-07-28T06:45:25Z</time>
      </trkpt>
      <trkpt lat="49.43107" lon="5.89031">
        <ele>413.2</ele>
        <time>2021-07-28T06:45:26Z</time>
      </trkpt>
      <trkpt lat="49.43106" lon="5.89032">
        <ele>413.3</ele>
        <time>2021-07-28T06:45:27Z</time>
      </trkpt>
      <trkpt lat="49.43105" lon="5.89033">
        <ele>413.3</ele>
        <time>2021-07-28T06:45:28Z</time>
      </trkpt>
      <trkpt lat="49.43026" lon="5.89073">
        <ele>415.3</ele>
        <time>2021-07-28T06:46:02Z</time>
      </trkpt>
      <trkpt lat="49.4302" lon="5.8907">
        <ele>415.1</ele>
        <time>2021-07-28T06:46:04Z</time>
      </trkpt>
      <trkpt lat="49.43016" lon="5.89067">
        <ele>415</ele>
        <time>2021-07-28T06:46:05Z</time>
      </trkpt>
      <trkpt lat="49.43005" lon="5.89059">
        <ele>414.7</ele>
        <time>2021-07-28T06:46:06Z</time>
      </trkpt>
      <trkpt lat="49.42995" lon="5.89052">
        <ele>414.5</ele>
        <time>2021-07-28T06:46:07Z</time>
      </trkpt>
      <trkpt lat="49.4299" lon="5.89048">
        <ele>414.4</ele>
        <time>2021-07-28T06:46:09Z</time>
      </trkpt>
      <trkpt lat="49.42987" lon="5.89045">
        <ele>414.3</ele>
        <time>2021-07-28T06:46:10Z</time>
      </trkpt>
      <trkpt lat="49.42981" lon="5.89041">
        <ele>414.2</ele>
        <time>2021-07-28T06:46:11Z</time>
      </trkpt>
      <trkpt lat="49.42979" lon="5.8904">
        <ele>414.3</ele>
        <time>2021-07-28T06:46:12Z</time>
      </trkpt>
      <trkpt lat="49.42978" lon="5.89039">
        <ele>414.3</ele>
        <time>2021-07-28T06:46:13Z</time>
      </trkpt>
      <trkpt lat="49.42977" lon="5.89038">
        <ele>414.3</ele>
        <time>2021-07-28T06:46:14Z</time>
      </trkpt>
      <trkpt lat="49.42925" lon="5.89131">
        <ele>414.4</ele>
        <time>2021-07-28T06:46:37Z</time>
      </trkpt>
      <trkpt lat="49.42924" lon="5.89135">
        <ele>414.4</ele>
        <time>2021-07-28T06:46:38Z</time>
      </trkpt>
      <trkpt lat="49.42922" lon="5.8914">
        <ele>414.2</ele>
        <time>2021-07-28T06:46:40Z</time>
      </trkpt>
      <trkpt lat="49.42922" lon="5.89144">
        <ele>414.2</ele>
        <time>2021-07-28T06:46:42Z</time>
      </trkpt>
      <trkpt lat="49.42921" lon="5.89142">
        <ele>414.3</ele>
        <time>2021-07-28T06:46:43Z</time>
      </trkpt>
      <trkpt lat="49.42919" lon="5.89136">
        <ele>414.3</ele>
        <time>2021-07-28T06:46:45Z</time>
      </trkpt>
      <trkpt lat="49.42919" lon="5.89135">
        <ele>414.4</ele>
        <time>2021-07-28T06:46:46Z</time>
      </trkpt>
      <trkpt lat="49.42919" lon="5.89135">
        <ele>414.4</ele>
        <time>2021-07-28T06:46:47Z</time>
      </trkpt>
      <trkpt lat="49.4292" lon="5.89135">
        <ele>414.5</ele>
        <time>2021-07-28T06:46:48Z</time>
      </trkpt>
      <trkpt lat="49.4292" lon="5.89135">
        <ele>414.7</ele>
        <time>2021-07-28T06:46:49Z</time>
      </trkpt>
      <trkpt lat="49.42923" lon="5.89134">
        <ele>414.8</ele>
        <time>2021-07-28T06:46:51Z</time>
      </trkpt>
      <trkpt lat="49.42923" lon="5.89134">
        <ele>415</ele>
        <time>2021-07-28T06:46:52Z</time>
      </trkpt>
      <trkpt lat="49.42926" lon="5.89138">
        <ele>415.1</ele>
        <time>2021-07-28T06:46:55Z</time>
      </trkpt>
      <trkpt lat="49.42928" lon="5.89142">
        <ele>415.1</ele>
        <time>2021-07-28T06:46:56Z</time>
      </trkpt>
      <trkpt lat="49.42929" lon="5.89147">
        <ele>415.2</ele>
        <time>2021-07-28T06:46:58Z</time>
      </trkpt>
      <trkpt lat="49.4293" lon="5.89151">
        <ele>415.2</ele>
        <time>2021-07-28T06:46:59Z</time>
      </trkpt>
      <trkpt lat="49.4293" lon="5.89155">
        <ele>415.1</ele>
        <time>2021-07-28T06:47:01Z</time>
      </trkpt>
      <trkpt lat="49.4293" lon="5.89156">
        <ele>415.2</ele>
        <time>2021-07-28T06:47:02Z</time>
      </trkpt>
      <trkpt lat="49.4293" lon="5.89161">
        <ele>415.1</ele>
        <time>2021-07-28T06:47:03Z</time>
      </trkpt>
      <trkpt lat="49.4293" lon="5.89164">
        <ele>415</ele>
        <time>2021-07-28T06:47:05Z</time>
      </trkpt>
      <trkpt lat="49.4293" lon="5.89166">
        <ele>415.1</ele>
        <time>2021-07-28T06:47:07Z</time>
      </trkpt>
      <trkpt lat="49.42929" lon="5.89169">
        <ele>415</ele>
        <time>2021-07-28T06:47:08Z</time>
      </trkpt>
      <trkpt lat="49.4293" lon="5.89178">
        <ele>414.7</ele>
        <time>2021-07-28T06:47:10Z</time>
      </trkpt>
      <trkpt lat="49.42927" lon="5.89191">
        <ele>414.1</ele>
        <time>2021-07-28T06:47:11Z</time>
      </trkpt>
      <trkpt lat="49.42924" lon="5.89202">
        <ele>413.7</ele>
        <time>2021-07-28T06:47:13Z</time>
      </trkpt>
      <trkpt lat="49.42922" lon="5.89212">
        <ele>413.4</ele>
        <time>2021-07-28T06:47:14Z</time>
      </trkpt>
      <trkpt lat="49.42922" lon="5.89215">
        <ele>413.4</ele>
        <time>2021-07-28T06:47:15Z</time>
      </trkpt>
      <trkpt lat="49.42921" lon="5.89227">
        <ele>413.3</ele>
        <time>2021-07-28T06:47:17Z</time>
      </trkpt>
      <trkpt lat="49.4292" lon="5.89235">
        <ele>413.3</ele>
        <time>2021-07-28T06:47:19Z</time>
      </trkpt>
      <trkpt lat="49.42921" lon="5.89241">
        <ele>413.3</ele>
        <time>2021-07-28T06:47:20Z</time>
      </trkpt>
      <trkpt lat="49.42921" lon="5.89242">
        <ele>413.3</ele>
        <time>2021-07-28T06:47:21Z</time>
      </trkpt>
      <trkpt lat="49.42923" lon="5.89248">
        <ele>413.2</ele>
        <time>2021-07-28T06:47:22Z</time>
      </trkpt>
      <trkpt lat="49.42924" lon="5.89258">
        <ele>413.2</ele>
        <time>2021-07-28T06:47:24Z</time>
      </trkpt>
      <trkpt lat="49.42926" lon="5.89266">
        <ele>413.2</ele>
        <time>2021-07-28T06:47:25Z</time>
      </trkpt>
      <trkpt lat="49.42929" lon="5.89275">
        <ele>413.1</ele>
        <time>2021-07-28T06:47:26Z</time>
      </trkpt>
      <trkpt lat="49.42933" lon="5.89282">
        <ele>413.1</ele>
        <time>2021-07-28T06:47:28Z</time>
      </trkpt>
      <trkpt lat="49.42936" lon="5.89292">
        <ele>413.1</ele>
        <time>2021-07-28T06:47:29Z</time>
      </trkpt>
      <trkpt lat="49.42938" lon="5.89299">
        <ele>413</ele>
        <time>2021-07-28T06:47:30Z</time>
      </trkpt>
      <trkpt lat="49.4294" lon="5.89303">
        <ele>413</ele>
        <time>2021-07-28T06:47:31Z</time>
      </trkpt>
      <trkpt lat="49.42942" lon="5.89306">
        <ele>413</ele>
        <time>2021-07-28T06:47:32Z</time>
      </trkpt>
      <trkpt lat="49.42945" lon="5.89312">
        <ele>413</ele>
        <time>2021-07-28T06:47:34Z</time>
      </trkpt>
      <trkpt lat="49.42946" lon="5.89315">
        <ele>413</ele>
        <time>2021-07-28T06:47:35Z</time>
      </trkpt>
      <trkpt lat="49.42947" lon="5.89322">
        <ele>413</ele>
        <time>2021-07-28T06:47:36Z</time>
      </trkpt>
      <trkpt lat="49.4295" lon="5.89329">
        <ele>413</ele>
        <time>2021-07-28T06:47:38Z</time>
      </trkpt>
      <trkpt lat="49.42953" lon="5.89333">
        <ele>413</ele>
        <time>2021-07-28T06:47:39Z</time>
      </trkpt>
      <trkpt lat="49.42957" lon="5.89341">
        <ele>413</ele>
        <time>2021-07-28T06:47:40Z</time>
      </trkpt>
      <trkpt lat="49.42958" lon="5.89347">
        <ele>413</ele>
        <time>2021-07-28T06:47:41Z</time>
      </trkpt>
      <trkpt lat="49.4296" lon="5.89354">
        <ele>413</ele>
        <time>2021-07-28T06:47:43Z</time>
      </trkpt>
      <trkpt lat="49.42961" lon="5.89362">
        <ele>413.1</ele>
        <time>2021-07-28T06:47:44Z</time>
      </trkpt>
      <trkpt lat="49.42961" lon="5.8937">
        <ele>413.1</ele>
        <time>2021-07-28T06:47:45Z</time>
      </trkpt>
      <trkpt lat="49.42962" lon="5.89376">
        <ele>413.1</ele>
        <time>2021-07-28T06:47:46Z</time>
      </trkpt>
      <trkpt lat="49.42963" lon="5.89383">
        <ele>413.2</ele>
        <time>2021-07-28T06:47:48Z</time>
      </trkpt>
      <trkpt lat="49.42967" lon="5.89397">
        <ele>413.2</ele>
        <time>2021-07-28T06:47:49Z</time>
      </trkpt>
      <trkpt lat="49.4297" lon="5.89403">
        <ele>413.2</ele>
        <time>2021-07-28T06:47:51Z</time>
      </trkpt>
      <trkpt lat="49.42972" lon="5.89408">
        <ele>413.2</ele>
        <time>2021-07-28T06:47:52Z</time>
      </trkpt>
      <trkpt lat="49.42975" lon="5.89412">
        <ele>413.3</ele>
        <time>2021-07-28T06:47:53Z</time>
      </trkpt>
      <trkpt lat="49.42976" lon="5.89413">
        <ele>413.3</ele>
        <time>2021-07-28T06:47:54Z</time>
      </trkpt>
      <trkpt lat="49.42978" lon="5.89416">
        <ele>413.3</ele>
        <time>2021-07-28T06:47:56Z</time>
      </trkpt>
      <trkpt lat="49.42978" lon="5.89416">
        <ele>413.3</ele>
        <time>2021-07-28T06:47:57Z</time>
      </trkpt>
      <trkpt lat="49.42977" lon="5.89418">
        <ele>413.3</ele>
        <time>2021-07-28T06:47:58Z</time>
      </trkpt>
      <trkpt lat="49.42977" lon="5.8942">
        <ele>413.3</ele>
        <time>2021-07-28T06:47:59Z</time>
      </trkpt>
      <trkpt lat="49.42979" lon="5.89422">
        <ele>413.3</ele>
        <time>2021-07-28T06:48:00Z</time>
      </trkpt>
      <trkpt lat="49.4298" lon="5.89423">
        <ele>413.3</ele>
        <time>2021-07-28T06:48:01Z</time>
      </trkpt>
      <trkpt lat="49.42981" lon="5.89423">
        <ele>413.3</ele>
        <time>2021-07-28T06:48:02Z</time>
      </trkpt>
      <trkpt lat="49.42988" lon="5.89428">
        <ele>413.4</ele>
        <time>2021-07-28T06:48:04Z</time>
      </trkpt>
      <trkpt lat="49.42999" lon="5.89429">
        <ele>413.4</ele>
        <time>2021-07-28T06:48:05Z</time>
      </trkpt>
      <trkpt lat="49.43017" lon="5.89428">
        <ele>413.6</ele>
        <time>2021-07-28T06:48:07Z</time>
      </trkpt>
      <trkpt lat="49.43029" lon="5.8943">
        <ele>413.7</ele>
        <time>2021-07-28T06:48:09Z</time>
      </trkpt>
      <trkpt lat="49.43034" lon="5.8943">
        <ele>413.7</ele>
        <time>2021-07-28T06:48:10Z</time>
      </trkpt>
      <trkpt lat="49.43036" lon="5.89428">
        <ele>413.8</ele>
        <time>2021-07-28T06:48:12Z</time>
      </trkpt>
      <trkpt lat="49.43035" lon="5.89431">
        <ele>413.8</ele>
        <time>2021-07-28T06:48:13Z</time>
      </trkpt>
      <trkpt lat="49.43035" lon="5.8944">
        <ele>413.8</ele>
        <time>2021-07-28T06:48:15Z</time>
      </trkpt>
      <trkpt lat="49.43035" lon="5.89442">
        <ele>413.8</ele>
        <time>2021-07-28T06:48:16Z</time>
      </trkpt>
      <trkpt lat="49.43036" lon="5.89444">
        <ele>413.9</ele>
        <time>2021-07-28T06:48:17Z</time>
      </trkpt>
      <trkpt lat="49.43037" lon="5.89446">
        <ele>413.9</ele>
        <time>2021-07-28T06:48:18Z</time>
      </trkpt>
      <trkpt lat="49.43037" lon="5.89449">
        <ele>413.9</ele>
        <time>2021-07-28T06:48:19Z</time>
      </trkpt>
      <trkpt lat="49.43038" lon="5.89453">
        <ele>413.9</ele>
        <time>2021-07-28T06:48:21Z</time>
      </trkpt>
      <trkpt lat="49.43051" lon="5.89493">
        <ele>414.2</ele>
        <time>2021-07-28T06:48:27Z</time>
      </trkpt>
      <trkpt lat="49.43054" lon="5.895">
        <ele>414.2</ele>
        <time>2021-07-28T06:48:28Z</time>
      </trkpt>
      <trkpt lat="49.43057" lon="5.89507">
        <ele>414.3</ele>
        <time>2021-07-28T06:48:29Z</time>
      </trkpt>
      <trkpt lat="49.4306" lon="5.89518">
        <ele>414.4</ele>
        <time>2021-07-28T06:48:30Z</time>
      </trkpt>
      <trkpt lat="49.43061" lon="5.89526">
        <ele>414.5</ele>
        <time>2021-07-28T06:48:31Z</time>
      </trkpt>
      <trkpt lat="49.43062" lon="5.89537">
        <ele>414.5</ele>
        <time>2021-07-28T06:48:33Z</time>
      </trkpt>
      <trkpt lat="49.43061" lon="5.89544">
        <ele>414.5</ele>
        <time>2021-07-28T06:48:34Z</time>
      </trkpt>
      <trkpt lat="49.4306" lon="5.8955">
        <ele>414.6</ele>
        <time>2021-07-28T06:48:35Z</time>
      </trkpt>
      <trkpt lat="49.43058" lon="5.89559">
        <ele>414.6</ele>
        <time>2021-07-28T06:48:37Z</time>
      </trkpt>
      <trkpt lat="49.43056" lon="5.89565">
        <ele>414.7</ele>
        <time>2021-07-28T06:48:38Z</time>
      </trkpt>
      <trkpt lat="49.43054" lon="5.8957">
        <ele>414.7</ele>
        <time>2021-07-28T06:48:39Z</time>
      </trkpt>
      <trkpt lat="49.43052" lon="5.89574">
        <ele>414.7</ele>
        <time>2021-07-28T06:48:40Z</time>
      </trkpt>
      <trkpt lat="49.4305" lon="5.89583">
        <ele>414.8</ele>
        <time>2021-07-28T06:48:42Z</time>
      </trkpt>
      <trkpt lat="49.43048" lon="5.89596">
        <ele>414.8</ele>
        <time>2021-07-28T06:48:44Z</time>
      </trkpt>
      <trkpt lat="49.43045" lon="5.89607">
        <ele>414.9</ele>
        <time>2021-07-28T06:48:46Z</time>
      </trkpt>
      <trkpt lat="49.43044" lon="5.89617">
        <ele>414.9</ele>
        <time>2021-07-28T06:48:47Z</time>
      </trkpt>
      <trkpt lat="49.43044" lon="5.89625">
        <ele>414.9</ele>
        <time>2021-07-28T06:48:48Z</time>
      </trkpt>
      <trkpt lat="49.43043" lon="5.89636">
        <ele>414.9</ele>
        <time>2021-07-28T06:48:50Z</time>
      </trkpt>
      <trkpt lat="49.43043" lon="5.89645">
        <ele>415</ele>
        <time>2021-07-28T06:48:51Z</time>
      </trkpt>
      <trkpt lat="49.43042" lon="5.89651">
        <ele>415</ele>
        <time>2021-07-28T06:48:52Z</time>
      </trkpt>
      <trkpt lat="49.43044" lon="5.89662">
        <ele>415</ele>
        <time>2021-07-28T06:48:54Z</time>
      </trkpt>
      <trkpt lat="49.43045" lon="5.89668">
        <ele>415</ele>
        <time>2021-07-28T06:48:55Z</time>
      </trkpt>
      <trkpt lat="49.43047" lon="5.89672">
        <ele>415.1</ele>
        <time>2021-07-28T06:48:56Z</time>
      </trkpt>
      <trkpt lat="49.43048" lon="5.8968">
        <ele>415.1</ele>
        <time>2021-07-28T06:48:58Z</time>
      </trkpt>
      <trkpt lat="49.43048" lon="5.89686">
        <ele>415.1</ele>
        <time>2021-07-28T06:48:59Z</time>
      </trkpt>
      <trkpt lat="49.43049" lon="5.89691">
        <ele>415.2</ele>
        <time>2021-07-28T06:49:00Z</time>
      </trkpt>
      <trkpt lat="49.4305" lon="5.897">
        <ele>415.2</ele>
        <time>2021-07-28T06:49:01Z</time>
      </trkpt>
      <trkpt lat="49.43051" lon="5.89709">
        <ele>415.3</ele>
        <time>2021-07-28T06:49:03Z</time>
      </trkpt>
      <trkpt lat="49.43052" lon="5.89715">
        <ele>415.3</ele>
        <time>2021-07-28T06:49:04Z</time>
      </trkpt>
      <trkpt lat="49.43054" lon="5.89721">
        <ele>415.4</ele>
        <time>2021-07-28T06:49:05Z</time>
      </trkpt>
      <trkpt lat="49.43056" lon="5.89729">
        <ele>415.5</ele>
        <time>2021-07-28T06:49:07Z</time>
      </trkpt>
      <trkpt lat="49.43057" lon="5.8974">
        <ele>415.5</ele>
        <time>2021-07-28T06:49:08Z</time>
      </trkpt>
      <trkpt lat="49.43058" lon="5.89749">
        <ele>415.6</ele>
        <time>2021-07-28T06:49:10Z</time>
      </trkpt>
      <trkpt lat="49.43057" lon="5.89757">
        <ele>415.7</ele>
        <time>2021-07-28T06:49:11Z</time>
      </trkpt>
      <trkpt lat="49.43054" lon="5.89763">
        <ele>415.7</ele>
        <time>2021-07-28T06:49:12Z</time>
      </trkpt>
      <trkpt lat="49.43052" lon="5.89768">
        <ele>415.8</ele>
        <time>2021-07-28T06:49:13Z</time>
      </trkpt>
      <trkpt lat="49.4305" lon="5.89777">
        <ele>415.8</ele>
        <time>2021-07-28T06:49:15Z</time>
      </trkpt>
      <trkpt lat="49.43048" lon="5.89786">
        <ele>415.9</ele>
        <time>2021-07-28T06:49:17Z</time>
      </trkpt>
      <trkpt lat="49.43046" lon="5.8979">
        <ele>416</ele>
        <time>2021-07-28T06:49:18Z</time>
      </trkpt>
      <trkpt lat="49.43045" lon="5.89795">
        <ele>416</ele>
        <time>2021-07-28T06:49:20Z</time>
      </trkpt>
      <trkpt lat="49.43045" lon="5.89799">
        <ele>416.1</ele>
        <time>2021-07-28T06:49:21Z</time>
      </trkpt>
      <trkpt lat="49.43045" lon="5.89804">
        <ele>416.1</ele>
        <time>2021-07-28T06:49:22Z</time>
      </trkpt>
      <trkpt lat="49.43046" lon="5.89815">
        <ele>416.3</ele>
        <time>2021-07-28T06:49:24Z</time>
      </trkpt>
      <trkpt lat="49.43047" lon="5.89823">
        <ele>416.4</ele>
        <time>2021-07-28T06:49:26Z</time>
      </trkpt>
      <trkpt lat="49.43048" lon="5.89832">
        <ele>416.4</ele>
        <time>2021-07-28T06:49:27Z</time>
      </trkpt>
      <trkpt lat="49.4305" lon="5.89837">
        <ele>416.5</ele>
        <time>2021-07-28T06:49:28Z</time>
      </trkpt>
      <trkpt lat="49.43053" lon="5.89845">
        <ele>416.5</ele>
        <time>2021-07-28T06:49:30Z</time>
      </trkpt>
      <trkpt lat="49.43054" lon="5.89851">
        <ele>416.6</ele>
        <time>2021-07-28T06:49:32Z</time>
      </trkpt>
      <trkpt lat="49.43055" lon="5.89856">
        <ele>416.6</ele>
        <time>2021-07-28T06:49:33Z</time>
      </trkpt>
      <trkpt lat="49.43057" lon="5.89863">
        <ele>416.6</ele>
        <time>2021-07-28T06:49:34Z</time>
      </trkpt>
      <trkpt lat="49.43059" lon="5.89868">
        <ele>416.7</ele>
        <time>2021-07-28T06:49:36Z</time>
      </trkpt>
      <trkpt lat="49.4306" lon="5.89872">
        <ele>416.7</ele>
        <time>2021-07-28T06:49:37Z</time>
      </trkpt>
      <trkpt lat="49.43062" lon="5.89878">
        <ele>416.8</ele>
        <time>2021-07-28T06:49:38Z</time>
      </trkpt>
      <trkpt lat="49.43065" lon="5.89886">
        <ele>416.8</ele>
        <time>2021-07-28T06:49:40Z</time>
      </trkpt>
      <trkpt lat="49.43067" lon="5.89891">
        <ele>416.9</ele>
        <time>2021-07-28T06:49:41Z</time>
      </trkpt>
      <trkpt lat="49.4307" lon="5.89899">
        <ele>416.9</ele>
        <time>2021-07-28T06:49:43Z</time>
      </trkpt>
      <trkpt lat="49.43073" lon="5.89904">
        <ele>417</ele>
        <time>2021-07-28T06:49:44Z</time>
      </trkpt>
      <trkpt lat="49.43079" lon="5.8991">
        <ele>417.1</ele>
        <time>2021-07-28T06:49:46Z</time>
      </trkpt>
      <trkpt lat="49.43085" lon="5.89915">
        <ele>417.1</ele>
        <time>2021-07-28T06:49:48Z</time>
      </trkpt>
      <trkpt lat="49.43087" lon="5.89919">
        <ele>417.1</ele>
        <time>2021-07-28T06:49:49Z</time>
      </trkpt>
      <trkpt lat="49.43088" lon="5.89921">
        <ele>417.1</ele>
        <time>2021-07-28T06:49:50Z</time>
      </trkpt>
      <trkpt lat="49.43092" lon="5.89926">
        <ele>417.1</ele>
        <time>2021-07-28T06:49:52Z</time>
      </trkpt>
      <trkpt lat="49.43095" lon="5.89931">
        <ele>417.2</ele>
        <time>2021-07-28T06:49:53Z</time>
      </trkpt>
      <trkpt lat="49.43098" lon="5.89934">
        <ele>417.2</ele>
        <time>2021-07-28T06:49:54Z</time>
      </trkpt>
      <trkpt lat="49.43102" lon="5.89939">
        <ele>417.2</ele>
        <time>2021-07-28T06:49:56Z</time>
      </trkpt>
      <trkpt lat="49.43105" lon="5.89944">
        <ele>417.2</ele>
        <time>2021-07-28T06:49:57Z</time>
      </trkpt>
      <trkpt lat="49.43107" lon="5.89948">
        <ele>417.2</ele>
        <time>2021-07-28T06:49:58Z</time>
      </trkpt>
      <trkpt lat="49.4311" lon="5.8995">
        <ele>417.2</ele>
        <time>2021-07-28T06:49:59Z</time>
      </trkpt>
      <trkpt lat="49.43113" lon="5.89952">
        <ele>417.2</ele>
        <time>2021-07-28T06:50:00Z</time>
      </trkpt>
      <trkpt lat="49.43118" lon="5.89954">
        <ele>417.2</ele>
        <time>2021-07-28T06:50:02Z</time>
      </trkpt>
      <trkpt lat="49.43122" lon="5.89958">
        <ele>417.3</ele>
        <time>2021-07-28T06:50:03Z</time>
      </trkpt>
      <trkpt lat="49.43124" lon="5.89959">
        <ele>417.3</ele>
        <time>2021-07-28T06:50:04Z</time>
      </trkpt>
      <trkpt lat="49.43127" lon="5.89962">
        <ele>417.3</ele>
        <time>2021-07-28T06:50:06Z</time>
      </trkpt>
      <trkpt lat="49.43131" lon="5.89967">
        <ele>417.3</ele>
        <time>2021-07-28T06:50:07Z</time>
      </trkpt>
      <trkpt lat="49.43134" lon="5.89971">
        <ele>417.3</ele>
        <time>2021-07-28T06:50:08Z</time>
      </trkpt>
      <trkpt lat="49.43135" lon="5.89974">
        <ele>417.3</ele>
        <time>2021-07-28T06:50:09Z</time>
      </trkpt>
      <trkpt lat="49.43138" lon="5.89977">
        <ele>417.3</ele>
        <time>2021-07-28T06:50:10Z</time>
      </trkpt>
      <trkpt lat="49.43139" lon="5.89978">
        <ele>417.3</ele>
        <time>2021-07-28T06:50:11Z</time>
      </trkpt>
      <trkpt lat="49.43142" lon="5.89984">
        <ele>417.3</ele>
        <time>2021-07-28T06:50:13Z</time>
      </trkpt>
      <trkpt lat="49.43145" lon="5.89988">
        <ele>417.3</ele>
        <time>2021-07-28T06:50:15Z</time>
      </trkpt>
      <trkpt lat="49.43147" lon="5.89993">
        <ele>417.3</ele>
        <time>2021-07-28T06:50:16Z</time>
      </trkpt>
      <trkpt lat="49.43147" lon="5.89995">
        <ele>417.3</ele>
        <time>2021-07-28T06:50:17Z</time>
      </trkpt>
      <trkpt lat="49.43148" lon="5.89998">
        <ele>417.3</ele>
        <time>2021-07-28T06:50:18Z</time>
      </trkpt>
      <trkpt lat="49.4315" lon="5.90005">
        <ele>417.3</ele>
        <time>2021-07-28T06:50:20Z</time>
      </trkpt>
      <trkpt lat="49.4315" lon="5.90011">
        <ele>417.3</ele>
        <time>2021-07-28T06:50:21Z</time>
      </trkpt>
      <trkpt lat="49.4315" lon="5.90013">
        <ele>417.3</ele>
        <time>2021-07-28T06:50:22Z</time>
      </trkpt>
      <trkpt lat="49.4315" lon="5.90023">
        <ele>417.2</ele>
        <time>2021-07-28T06:50:24Z</time>
      </trkpt>
      <trkpt lat="49.43149" lon="5.90033">
        <ele>417.3</ele>
        <time>2021-07-28T06:50:26Z</time>
      </trkpt>
      <trkpt lat="49.43146" lon="5.90041">
        <ele>417.3</ele>
        <time>2021-07-28T06:50:27Z</time>
      </trkpt>
      <trkpt lat="49.43144" lon="5.90048">
        <ele>417.4</ele>
        <time>2021-07-28T06:50:28Z</time>
      </trkpt>
      <trkpt lat="49.43138" lon="5.90057">
        <ele>417.4</ele>
        <time>2021-07-28T06:50:30Z</time>
      </trkpt>
      <trkpt lat="49.43135" lon="5.90062">
        <ele>417.5</ele>
        <time>2021-07-28T06:50:31Z</time>
      </trkpt>
      <trkpt lat="49.43133" lon="5.90064">
        <ele>417.5</ele>
        <time>2021-07-28T06:50:32Z</time>
      </trkpt>
      <trkpt lat="49.43133" lon="5.90066">
        <ele>417.5</ele>
        <time>2021-07-28T06:50:33Z</time>
      </trkpt>
      <trkpt lat="49.43134" lon="5.90066">
        <ele>417.5</ele>
        <time>2021-07-28T06:50:35Z</time>
      </trkpt>
      <trkpt lat="49.43134" lon="5.90068">
        <ele>417.5</ele>
        <time>2021-07-28T06:50:36Z</time>
      </trkpt>
      <trkpt lat="49.43133" lon="5.90075">
        <ele>417.6</ele>
        <time>2021-07-28T06:50:38Z</time>
      </trkpt>
      <trkpt lat="49.43134" lon="5.9008">
        <ele>417.6</ele>
        <time>2021-07-28T06:50:39Z</time>
      </trkpt>
      <trkpt lat="49.43135" lon="5.90091">
        <ele>417.7</ele>
        <time>2021-07-28T06:50:41Z</time>
      </trkpt>
      <trkpt lat="49.43136" lon="5.90098">
        <ele>417.8</ele>
        <time>2021-07-28T06:50:42Z</time>
      </trkpt>
      <trkpt lat="49.43136" lon="5.90107">
        <ele>417.9</ele>
        <time>2021-07-28T06:50:44Z</time>
      </trkpt>
      <trkpt lat="49.43135" lon="5.90115">
        <ele>417.9</ele>
        <time>2021-07-28T06:50:45Z</time>
      </trkpt>
      <trkpt lat="49.43134" lon="5.90121">
        <ele>417.9</ele>
        <time>2021-07-28T06:50:46Z</time>
      </trkpt>
      <trkpt lat="49.43136" lon="5.90131">
        <ele>418</ele>
        <time>2021-07-28T06:50:48Z</time>
      </trkpt>
      <trkpt lat="49.43136" lon="5.90135">
        <ele>418</ele>
        <time>2021-07-28T06:50:49Z</time>
      </trkpt>
      <trkpt lat="49.43137" lon="5.90139">
        <ele>418</ele>
        <time>2021-07-28T06:50:50Z</time>
      </trkpt>
      <trkpt lat="49.4314" lon="5.90142">
        <ele>418</ele>
        <time>2021-07-28T06:50:52Z</time>
      </trkpt>
      <trkpt lat="49.43142" lon="5.90146">
        <ele>417.9</ele>
        <time>2021-07-28T06:50:53Z</time>
      </trkpt>
      <trkpt lat="49.43143" lon="5.90152">
        <ele>417.9</ele>
        <time>2021-07-28T06:50:54Z</time>
      </trkpt>
      <trkpt lat="49.43144" lon="5.90159">
        <ele>417.8</ele>
        <time>2021-07-28T06:50:56Z</time>
      </trkpt>
      <trkpt lat="49.43145" lon="5.90164">
        <ele>417.8</ele>
        <time>2021-07-28T06:50:57Z</time>
      </trkpt>
      <trkpt lat="49.43146" lon="5.90167">
        <ele>417.7</ele>
        <time>2021-07-28T06:50:58Z</time>
      </trkpt>
      <trkpt lat="49.43146" lon="5.90171">
        <ele>417.7</ele>
        <time>2021-07-28T06:50:59Z</time>
      </trkpt>
      <trkpt lat="49.43149" lon="5.9018">
        <ele>417.5</ele>
        <time>2021-07-28T06:51:01Z</time>
      </trkpt>
      <trkpt lat="49.43151" lon="5.90184">
        <ele>417.4</ele>
        <time>2021-07-28T06:51:03Z</time>
      </trkpt>
      <trkpt lat="49.43155" lon="5.90187">
        <ele>417.3</ele>
        <time>2021-07-28T06:51:04Z</time>
      </trkpt>
      <trkpt lat="49.43157" lon="5.90191">
        <ele>417.2</ele>
        <time>2021-07-28T06:51:05Z</time>
      </trkpt>
      <trkpt lat="49.43159" lon="5.90196">
        <ele>417.1</ele>
        <time>2021-07-28T06:51:07Z</time>
      </trkpt>
      <trkpt lat="49.4316" lon="5.90198">
        <ele>417.1</ele>
        <time>2021-07-28T06:51:08Z</time>
      </trkpt>
      <trkpt lat="49.43162" lon="5.90214">
        <ele>416.8</ele>
        <time>2021-07-28T06:51:10Z</time>
      </trkpt>
      <trkpt lat="49.43163" lon="5.9023">
        <ele>416.6</ele>
        <time>2021-07-28T06:51:12Z</time>
      </trkpt>
      <trkpt lat="49.43162" lon="5.90251">
        <ele>416.5</ele>
        <time>2021-07-28T06:51:13Z</time>
      </trkpt>
      <trkpt lat="49.43161" lon="5.90262">
        <ele>416.5</ele>
        <time>2021-07-28T06:51:14Z</time>
      </trkpt>
      <trkpt lat="49.43159" lon="5.90281">
        <ele>416.5</ele>
        <time>2021-07-28T06:51:16Z</time>
      </trkpt>
      <trkpt lat="49.4316" lon="5.90289">
        <ele>416.6</ele>
        <time>2021-07-28T06:51:17Z</time>
      </trkpt>
      <trkpt lat="49.4316" lon="5.90299">
        <ele>416.7</ele>
        <time>2021-07-28T06:51:19Z</time>
      </trkpt>
      <trkpt lat="49.43158" lon="5.90307">
        <ele>416.8</ele>
        <time>2021-07-28T06:51:21Z</time>
      </trkpt>
      <trkpt lat="49.43152" lon="5.90301">
        <ele>416.9</ele>
        <time>2021-07-28T06:51:22Z</time>
      </trkpt>
      <trkpt lat="49.43148" lon="5.90301">
        <ele>416.9</ele>
        <time>2021-07-28T06:51:24Z</time>
      </trkpt>
      <trkpt lat="49.43141" lon="5.90298">
        <ele>417</ele>
        <time>2021-07-28T06:51:25Z</time>
      </trkpt>
      <trkpt lat="49.43134" lon="5.90298">
        <ele>417.1</ele>
        <time>2021-07-28T06:51:26Z</time>
      </trkpt>
      <trkpt lat="49.43129" lon="5.903">
        <ele>417.2</ele>
        <time>2021-07-28T06:51:28Z</time>
      </trkpt>
      <trkpt lat="49.43127" lon="5.90301">
        <ele>417.2</ele>
        <time>2021-07-28T06:51:29Z</time>
      </trkpt>
      <trkpt lat="49.43125" lon="5.90301">
        <ele>417.2</ele>
        <time>2021-07-28T06:51:30Z</time>
      </trkpt>
      <trkpt lat="49.43107" lon="5.90302">
        <ele>417.3</ele>
        <time>2021-07-28T06:51:32Z</time>
      </trkpt>
      <trkpt lat="49.43072" lon="5.90308">
        <ele>417.3</ele>
        <time>2021-07-28T06:51:43Z</time>
      </trkpt>
      <trkpt lat="49.43066" lon="5.9031">
        <ele>417.3</ele>
        <time>2021-07-28T06:51:44Z</time>
      </trkpt>
      <trkpt lat="49.43062" lon="5.90306">
        <ele>417.3</ele>
        <time>2021-07-28T06:51:46Z</time>
      </trkpt>
      <trkpt lat="49.43061" lon="5.90302">
        <ele>417.3</ele>
        <time>2021-07-28T06:51:47Z</time>
      </trkpt>
      <trkpt lat="49.43061" lon="5.90297">
        <ele>417.3</ele>
        <time>2021-07-28T06:51:48Z</time>
      </trkpt>
      <trkpt lat="49.43059" lon="5.9029">
        <ele>417.3</ele>
        <time>2021-07-28T06:51:50Z</time>
      </trkpt>
      <trkpt lat="49.43057" lon="5.90285">
        <ele>417.3</ele>
        <time>2021-07-28T06:51:51Z</time>
      </trkpt>
      <trkpt lat="49.43054" lon="5.90281">
        <ele>417.3</ele>
        <time>2021-07-28T06:51:52Z</time>
      </trkpt>
      <trkpt lat="49.4305" lon="5.90277">
        <ele>417.3</ele>
        <time>2021-07-28T06:51:53Z</time>
      </trkpt>
      <trkpt lat="49.43047" lon="5.90276">
        <ele>417.3</ele>
        <time>2021-07-28T06:51:54Z</time>
      </trkpt>
      <trkpt lat="49.43043" lon="5.90277">
        <ele>417.3</ele>
        <time>2021-07-28T06:51:56Z</time>
      </trkpt>
      <trkpt lat="49.43038" lon="5.90274">
        <ele>417.3</ele>
        <time>2021-07-28T06:51:57Z</time>
      </trkpt>
      <trkpt lat="49.43035" lon="5.90272">
        <ele>417.3</ele>
        <time>2021-07-28T06:51:58Z</time>
      </trkpt>
      <trkpt lat="49.43031" lon="5.9027">
        <ele>417.3</ele>
        <time>2021-07-28T06:51:59Z</time>
      </trkpt>
      <trkpt lat="49.43024" lon="5.90266">
        <ele>417.3</ele>
        <time>2021-07-28T06:52:01Z</time>
      </trkpt>
      <trkpt lat="49.4302" lon="5.90262">
        <ele>417.3</ele>
        <time>2021-07-28T06:52:02Z</time>
      </trkpt>
      <trkpt lat="49.43018" lon="5.90259">
        <ele>417.3</ele>
        <time>2021-07-28T06:52:03Z</time>
      </trkpt>
      <trkpt lat="49.43015" lon="5.90257">
        <ele>417.2</ele>
        <time>2021-07-28T06:52:04Z</time>
      </trkpt>
      <trkpt lat="49.43009" lon="5.90255">
        <ele>417.2</ele>
        <time>2021-07-28T06:52:06Z</time>
      </trkpt>
      <trkpt lat="49.43004" lon="5.90253">
        <ele>417.1</ele>
        <time>2021-07-28T06:52:07Z</time>
      </trkpt>
      <trkpt lat="49.42998" lon="5.90251">
        <ele>417</ele>
        <time>2021-07-28T06:52:09Z</time>
      </trkpt>
      <trkpt lat="49.42993" lon="5.90248">
        <ele>416.9</ele>
        <time>2021-07-28T06:52:10Z</time>
      </trkpt>
      <trkpt lat="49.4299" lon="5.90247">
        <ele>416.8</ele>
        <time>2021-07-28T06:52:11Z</time>
      </trkpt>
      <trkpt lat="49.42981" lon="5.90241">
        <ele>416.7</ele>
        <time>2021-07-28T06:52:13Z</time>
      </trkpt>
      <trkpt lat="49.42973" lon="5.90235">
        <ele>416.6</ele>
        <time>2021-07-28T06:52:15Z</time>
      </trkpt>
      <trkpt lat="49.42967" lon="5.90231">
        <ele>416.5</ele>
        <time>2021-07-28T06:52:16Z</time>
      </trkpt>
      <trkpt lat="49.42963" lon="5.90227">
        <ele>416.4</ele>
        <time>2021-07-28T06:52:17Z</time>
      </trkpt>
      <trkpt lat="49.42956" lon="5.90222">
        <ele>416.4</ele>
        <time>2021-07-28T06:52:19Z</time>
      </trkpt>
      <trkpt lat="49.42953" lon="5.90218">
        <ele>416.4</ele>
        <time>2021-07-28T06:52:20Z</time>
      </trkpt>
      <trkpt lat="49.42949" lon="5.90214">
        <ele>416.3</ele>
        <time>2021-07-28T06:52:21Z</time>
      </trkpt>
      <trkpt lat="49.42946" lon="5.9021">
        <ele>416.3</ele>
        <time>2021-07-28T06:52:22Z</time>
      </trkpt>
      <trkpt lat="49.42943" lon="5.90205">
        <ele>416.2</ele>
        <time>2021-07-28T06:52:23Z</time>
      </trkpt>
      <trkpt lat="49.42941" lon="5.902">
        <ele>416.2</ele>
        <time>2021-07-28T06:52:24Z</time>
      </trkpt>
      <trkpt lat="49.42938" lon="5.90193">
        <ele>416.1</ele>
        <time>2021-07-28T06:52:26Z</time>
      </trkpt>
      <trkpt lat="49.42931" lon="5.90185">
        <ele>416</ele>
        <time>2021-07-28T06:52:27Z</time>
      </trkpt>
      <trkpt lat="49.42928" lon="5.9018">
        <ele>415.9</ele>
        <time>2021-07-28T06:52:28Z</time>
      </trkpt>
      <trkpt lat="49.42924" lon="5.90182">
        <ele>415.9</ele>
        <time>2021-07-28T06:52:30Z</time>
      </trkpt>
      <trkpt lat="49.42921" lon="5.90174">
        <ele>415.8</ele>
        <time>2021-07-28T06:52:31Z</time>
      </trkpt>
      <trkpt lat="49.42915" lon="5.90161">
        <ele>415.7</ele>
        <time>2021-07-28T06:52:33Z</time>
      </trkpt>
      <trkpt lat="49.4291" lon="5.90152">
        <ele>415.6</ele>
        <time>2021-07-28T06:52:34Z</time>
      </trkpt>
      <trkpt lat="49.42907" lon="5.90147">
        <ele>415.5</ele>
        <time>2021-07-28T06:52:35Z</time>
      </trkpt>
      <trkpt lat="49.42904" lon="5.90142">
        <ele>415.5</ele>
        <time>2021-07-28T06:52:36Z</time>
      </trkpt>
      <trkpt lat="49.429" lon="5.90135">
        <ele>415.4</ele>
        <time>2021-07-28T06:52:38Z</time>
      </trkpt>
      <trkpt lat="49.42895" lon="5.9013">
        <ele>415.3</ele>
        <time>2021-07-28T06:52:39Z</time>
      </trkpt>
      <trkpt lat="49.42892" lon="5.90124">
        <ele>415.3</ele>
        <time>2021-07-28T06:52:40Z</time>
      </trkpt>
      <trkpt lat="49.42888" lon="5.9012">
        <ele>415.3</ele>
        <time>2021-07-28T06:52:41Z</time>
      </trkpt>
      <trkpt lat="49.42885" lon="5.90113">
        <ele>415.3</ele>
        <time>2021-07-28T06:52:43Z</time>
      </trkpt>
      <trkpt lat="49.42882" lon="5.90106">
        <ele>415.3</ele>
        <time>2021-07-28T06:52:44Z</time>
      </trkpt>
      <trkpt lat="49.42878" lon="5.90092">
        <ele>415.2</ele>
        <time>2021-07-28T06:52:46Z</time>
      </trkpt>
      <trkpt lat="49.42874" lon="5.90086">
        <ele>415.2</ele>
        <time>2021-07-28T06:52:47Z</time>
      </trkpt>
      <trkpt lat="49.42869" lon="5.90077">
        <ele>415.2</ele>
        <time>2021-07-28T06:52:49Z</time>
      </trkpt>
      <trkpt lat="49.42863" lon="5.9007">
        <ele>415.1</ele>
        <time>2021-07-28T06:52:50Z</time>
      </trkpt>
      <trkpt lat="49.42859" lon="5.90064">
        <ele>415</ele>
        <time>2021-07-28T06:52:51Z</time>
      </trkpt>
      <trkpt lat="49.42849" lon="5.9005">
        <ele>414.9</ele>
        <time>2021-07-28T06:52:53Z</time>
      </trkpt>
      <trkpt lat="49.4284" lon="5.90038">
        <ele>414.7</ele>
        <time>2021-07-28T06:52:55Z</time>
      </trkpt>
      <trkpt lat="49.42836" lon="5.90032">
        <ele>414.7</ele>
        <time>2021-07-28T06:52:56Z</time>
      </trkpt>
      <trkpt lat="49.42832" lon="5.90027">
        <ele>414.6</ele>
        <time>2021-07-28T06:52:57Z</time>
      </trkpt>
      <trkpt lat="49.42825" lon="5.90016">
        <ele>414.6</ele>
        <time>2021-07-28T06:52:59Z</time>
      </trkpt>
      <trkpt lat="49.42823" lon="5.90011">
        <ele>414.5</ele>
        <time>2021-07-28T06:53:00Z</time>
      </trkpt>
      <trkpt lat="49.42817" lon="5.89998">
        <ele>414.5</ele>
        <time>2021-07-28T06:53:02Z</time>
      </trkpt>
      <trkpt lat="49.42816" lon="5.89992">
        <ele>414.4</ele>
        <time>2021-07-28T06:53:03Z</time>
      </trkpt>
      <trkpt lat="49.42815" lon="5.89987">
        <ele>414.4</ele>
        <time>2021-07-28T06:53:04Z</time>
      </trkpt>
      <trkpt lat="49.42811" lon="5.89977">
        <ele>414.3</ele>
        <time>2021-07-28T06:53:06Z</time>
      </trkpt>
      <trkpt lat="49.42809" lon="5.89971">
        <ele>414.2</ele>
        <time>2021-07-28T06:53:07Z</time>
      </trkpt>
      <trkpt lat="49.42805" lon="5.89965">
        <ele>414.2</ele>
        <time>2021-07-28T06:53:08Z</time>
      </trkpt>
      <trkpt lat="49.42801" lon="5.8996">
        <ele>414.1</ele>
        <time>2021-07-28T06:53:09Z</time>
      </trkpt>
      <trkpt lat="49.42797" lon="5.89957">
        <ele>414</ele>
        <time>2021-07-28T06:53:11Z</time>
      </trkpt>
      <trkpt lat="49.42789" lon="5.89943">
        <ele>413.8</ele>
        <time>2021-07-28T06:53:13Z</time>
      </trkpt>
      <trkpt lat="49.42786" lon="5.89938">
        <ele>413.8</ele>
        <time>2021-07-28T06:53:14Z</time>
      </trkpt>
      <trkpt lat="49.42784" lon="5.89927">
        <ele>413.6</ele>
        <time>2021-07-28T06:53:16Z</time>
      </trkpt>
      <trkpt lat="49.42783" lon="5.8992">
        <ele>413.5</ele>
        <time>2021-07-28T06:53:17Z</time>
      </trkpt>
      <trkpt lat="49.42782" lon="5.89911">
        <ele>413.4</ele>
        <time>2021-07-28T06:53:18Z</time>
      </trkpt>
      <trkpt lat="49.42782" lon="5.89903">
        <ele>413.3</ele>
        <time>2021-07-28T06:53:19Z</time>
      </trkpt>
      <trkpt lat="49.42781" lon="5.89895">
        <ele>413.3</ele>
        <time>2021-07-28T06:53:20Z</time>
      </trkpt>
      <trkpt lat="49.42779" lon="5.89888">
        <ele>413.2</ele>
        <time>2021-07-28T06:53:21Z</time>
      </trkpt>
      <trkpt lat="49.42776" lon="5.89881">
        <ele>413.1</ele>
        <time>2021-07-28T06:53:22Z</time>
      </trkpt>
      <trkpt lat="49.42772" lon="5.89875">
        <ele>413</ele>
        <time>2021-07-28T06:53:24Z</time>
      </trkpt>
      <trkpt lat="49.42766" lon="5.89864">
        <ele>412.8</ele>
        <time>2021-07-28T06:53:25Z</time>
      </trkpt>
      <trkpt lat="49.42763" lon="5.89858">
        <ele>412.7</ele>
        <time>2021-07-28T06:53:26Z</time>
      </trkpt>
      <trkpt lat="49.42761" lon="5.89853">
        <ele>412.6</ele>
        <time>2021-07-28T06:53:28Z</time>
      </trkpt>
      <trkpt lat="49.42757" lon="5.89848">
        <ele>412.5</ele>
        <time>2021-07-28T06:53:29Z</time>
      </trkpt>
      <trkpt lat="49.42753" lon="5.89844">
        <ele>412.4</ele>
        <time>2021-07-28T06:53:30Z</time>
      </trkpt>
      <trkpt lat="49.42749" lon="5.89838">
        <ele>412.3</ele>
        <time>2021-07-28T06:53:31Z</time>
      </trkpt>
      <trkpt lat="49.42746" lon="5.89833">
        <ele>412.2</ele>
        <time>2021-07-28T06:53:32Z</time>
      </trkpt>
      <trkpt lat="49.42741" lon="5.89828">
        <ele>412.1</ele>
        <time>2021-07-28T06:53:34Z</time>
      </trkpt>
      <trkpt lat="49.42737" lon="5.89823">
        <ele>412</ele>
        <time>2021-07-28T06:53:35Z</time>
      </trkpt>
      <trkpt lat="49.42733" lon="5.89816">
        <ele>411.9</ele>
        <time>2021-07-28T06:53:36Z</time>
      </trkpt>
      <trkpt lat="49.42728" lon="5.89806">
        <ele>411.7</ele>
        <time>2021-07-28T06:53:38Z</time>
      </trkpt>
      <trkpt lat="49.42724" lon="5.898">
        <ele>411.6</ele>
        <time>2021-07-28T06:53:39Z</time>
      </trkpt>
      <trkpt lat="49.42721" lon="5.89794">
        <ele>411.5</ele>
        <time>2021-07-28T06:53:40Z</time>
      </trkpt>
      <trkpt lat="49.42717" lon="5.89788">
        <ele>411.4</ele>
        <time>2021-07-28T06:53:41Z</time>
      </trkpt>
      <trkpt lat="49.42714" lon="5.89783">
        <ele>411.3</ele>
        <time>2021-07-28T06:53:42Z</time>
      </trkpt>
      <trkpt lat="49.42706" lon="5.89769">
        <ele>410.9</ele>
        <time>2021-07-28T06:53:44Z</time>
      </trkpt>
      <trkpt lat="49.42703" lon="5.89763">
        <ele>410.7</ele>
        <time>2021-07-28T06:53:45Z</time>
      </trkpt>
      <trkpt lat="49.42697" lon="5.89751">
        <ele>410.4</ele>
        <time>2021-07-28T06:53:47Z</time>
      </trkpt>
      <trkpt lat="49.42694" lon="5.89745">
        <ele>410.2</ele>
        <time>2021-07-28T06:53:48Z</time>
      </trkpt>
      <trkpt lat="49.42687" lon="5.89734">
        <ele>409.9</ele>
        <time>2021-07-28T06:53:50Z</time>
      </trkpt>
      <trkpt lat="49.42683" lon="5.89731">
        <ele>409.8</ele>
        <time>2021-07-28T06:53:52Z</time>
      </trkpt>
      <trkpt lat="49.42677" lon="5.89722">
        <ele>409.4</ele>
        <time>2021-07-28T06:53:53Z</time>
      </trkpt>
      <trkpt lat="49.42673" lon="5.89717">
        <ele>409.3</ele>
        <time>2021-07-28T06:53:54Z</time>
      </trkpt>
      <trkpt lat="49.42666" lon="5.89711">
        <ele>409</ele>
        <time>2021-07-28T06:53:56Z</time>
      </trkpt>
      <trkpt lat="49.42661" lon="5.89707">
        <ele>408.9</ele>
        <time>2021-07-28T06:53:57Z</time>
      </trkpt>
      <trkpt lat="49.42659" lon="5.897">
        <ele>408.7</ele>
        <time>2021-07-28T06:53:59Z</time>
      </trkpt>
      <trkpt lat="49.42654" lon="5.89695">
        <ele>408.6</ele>
        <time>2021-07-28T06:54:00Z</time>
      </trkpt>
      <trkpt lat="49.42649" lon="5.89692">
        <ele>408.5</ele>
        <time>2021-07-28T06:54:01Z</time>
      </trkpt>
      <trkpt lat="49.42643" lon="5.89687">
        <ele>408.3</ele>
        <time>2021-07-28T06:54:03Z</time>
      </trkpt>
      <trkpt lat="49.42638" lon="5.8968">
        <ele>408.2</ele>
        <time>2021-07-28T06:54:04Z</time>
      </trkpt>
      <trkpt lat="49.42631" lon="5.89674">
        <ele>408</ele>
        <time>2021-07-28T06:54:06Z</time>
      </trkpt>
      <trkpt lat="49.42624" lon="5.89668">
        <ele>407.8</ele>
        <time>2021-07-28T06:54:07Z</time>
      </trkpt>
      <trkpt lat="49.42619" lon="5.89665">
        <ele>407.7</ele>
        <time>2021-07-28T06:54:08Z</time>
      </trkpt>
      <trkpt lat="49.4261" lon="5.89657">
        <ele>407.5</ele>
        <time>2021-07-28T06:54:10Z</time>
      </trkpt>
      <trkpt lat="49.42609" lon="5.89653">
        <ele>407.4</ele>
        <time>2021-07-28T06:54:11Z</time>
      </trkpt>
      <trkpt lat="49.42608" lon="5.8965">
        <ele>407.4</ele>
        <time>2021-07-28T06:54:13Z</time>
      </trkpt>
      <trkpt lat="49.42601" lon="5.89646">
        <ele>407.3</ele>
        <time>2021-07-28T06:54:14Z</time>
      </trkpt>
      <trkpt lat="49.42595" lon="5.89644">
        <ele>407.2</ele>
        <time>2021-07-28T06:54:16Z</time>
      </trkpt>
      <trkpt lat="49.42591" lon="5.89644">
        <ele>407.1</ele>
        <time>2021-07-28T06:54:17Z</time>
      </trkpt>
      <trkpt lat="49.42588" lon="5.89644">
        <ele>407.1</ele>
        <time>2021-07-28T06:54:18Z</time>
      </trkpt>
      <trkpt lat="49.42584" lon="5.89644">
        <ele>407</ele>
        <time>2021-07-28T06:54:20Z</time>
      </trkpt>
      <trkpt lat="49.42581" lon="5.89644">
        <ele>407</ele>
        <time>2021-07-28T06:54:21Z</time>
      </trkpt>
      <trkpt lat="49.42577" lon="5.89643">
        <ele>407</ele>
        <time>2021-07-28T06:54:22Z</time>
      </trkpt>
      <trkpt lat="49.42574" lon="5.89641">
        <ele>407</ele>
        <time>2021-07-28T06:54:23Z</time>
      </trkpt>
      <trkpt lat="49.42571" lon="5.89639">
        <ele>406.9</ele>
        <time>2021-07-28T06:54:24Z</time>
      </trkpt>
      <trkpt lat="49.42567" lon="5.89637">
        <ele>406.9</ele>
        <time>2021-07-28T06:54:26Z</time>
      </trkpt>
      <trkpt lat="49.42561" lon="5.89635">
        <ele>406.9</ele>
        <time>2021-07-28T06:54:27Z</time>
      </trkpt>
      <trkpt lat="49.42557" lon="5.89634">
        <ele>406.8</ele>
        <time>2021-07-28T06:54:28Z</time>
      </trkpt>
      <trkpt lat="49.42551" lon="5.89631">
        <ele>406.8</ele>
        <time>2021-07-28T06:54:30Z</time>
      </trkpt>
      <trkpt lat="49.42541" lon="5.89628">
        <ele>406.7</ele>
        <time>2021-07-28T06:54:31Z</time>
      </trkpt>
      <trkpt lat="49.42537" lon="5.89628">
        <ele>406.6</ele>
        <time>2021-07-28T06:54:32Z</time>
      </trkpt>
      <trkpt lat="49.4253" lon="5.89634">
        <ele>406.6</ele>
        <time>2021-07-28T06:54:34Z</time>
      </trkpt>
      <trkpt lat="49.42522" lon="5.89635">
        <ele>406.5</ele>
        <time>2021-07-28T06:54:36Z</time>
      </trkpt>
      <trkpt lat="49.42517" lon="5.89636">
        <ele>406.4</ele>
        <time>2021-07-28T06:54:37Z</time>
      </trkpt>
      <trkpt lat="49.42514" lon="5.8964">
        <ele>406.3</ele>
        <time>2021-07-28T06:54:39Z</time>
      </trkpt>
      <trkpt lat="49.42507" lon="5.89641">
        <ele>406.2</ele>
        <time>2021-07-28T06:54:40Z</time>
      </trkpt>
      <trkpt lat="49.42502" lon="5.89638">
        <ele>406.2</ele>
        <time>2021-07-28T06:54:42Z</time>
      </trkpt>
      <trkpt lat="49.42497" lon="5.89636">
        <ele>406.1</ele>
        <time>2021-07-28T06:54:43Z</time>
      </trkpt>
      <trkpt lat="49.42493" lon="5.89633">
        <ele>406.1</ele>
        <time>2021-07-28T06:54:44Z</time>
      </trkpt>
      <trkpt lat="49.42487" lon="5.8963">
        <ele>406</ele>
        <time>2021-07-28T06:54:45Z</time>
      </trkpt>
      <trkpt lat="49.42482" lon="5.89629">
        <ele>405.9</ele>
        <time>2021-07-28T06:54:46Z</time>
      </trkpt>
      <trkpt lat="49.42478" lon="5.89626">
        <ele>405.9</ele>
        <time>2021-07-28T06:54:47Z</time>
      </trkpt>
      <trkpt lat="49.42471" lon="5.89621">
        <ele>405.8</ele>
        <time>2021-07-28T06:54:49Z</time>
      </trkpt>
      <trkpt lat="49.42465" lon="5.89617">
        <ele>405.8</ele>
        <time>2021-07-28T06:54:50Z</time>
      </trkpt>
      <trkpt lat="49.42461" lon="5.89614">
        <ele>405.7</ele>
        <time>2021-07-28T06:54:52Z</time>
      </trkpt>
      <trkpt lat="49.42457" lon="5.89613">
        <ele>405.7</ele>
        <time>2021-07-28T06:54:53Z</time>
      </trkpt>
      <trkpt lat="49.42454" lon="5.89614">
        <ele>405.6</ele>
        <time>2021-07-28T06:54:54Z</time>
      </trkpt>
      <trkpt lat="49.42452" lon="5.89616">
        <ele>405.6</ele>
        <time>2021-07-28T06:54:56Z</time>
      </trkpt>
      <trkpt lat="49.42448" lon="5.8962">
        <ele>405.5</ele>
        <time>2021-07-28T06:54:57Z</time>
      </trkpt>
      <trkpt lat="49.42445" lon="5.89623">
        <ele>405.5</ele>
        <time>2021-07-28T06:54:58Z</time>
      </trkpt>
      <trkpt lat="49.42442" lon="5.89626">
        <ele>405.5</ele>
        <time>2021-07-28T06:54:59Z</time>
      </trkpt>
      <trkpt lat="49.42437" lon="5.89627">
        <ele>405.4</ele>
        <time>2021-07-28T06:55:00Z</time>
      </trkpt>
      <trkpt lat="49.42431" lon="5.89627">
        <ele>405.3</ele>
        <time>2021-07-28T06:55:01Z</time>
      </trkpt>
      <trkpt lat="49.42425" lon="5.89625">
        <ele>405.2</ele>
        <time>2021-07-28T06:55:02Z</time>
      </trkpt>
      <trkpt lat="49.42418" lon="5.89623">
        <ele>405.2</ele>
        <time>2021-07-28T06:55:04Z</time>
      </trkpt>
      <trkpt lat="49.42412" lon="5.89621">
        <ele>405.1</ele>
        <time>2021-07-28T06:55:05Z</time>
      </trkpt>
      <trkpt lat="49.42407" lon="5.89618">
        <ele>405</ele>
        <time>2021-07-28T06:55:07Z</time>
      </trkpt>
      <trkpt lat="49.42404" lon="5.89617">
        <ele>405</ele>
        <time>2021-07-28T06:55:08Z</time>
      </trkpt>
      <trkpt lat="49.42399" lon="5.89615">
        <ele>404.9</ele>
        <time>2021-07-28T06:55:09Z</time>
      </trkpt>
      <trkpt lat="49.42396" lon="5.89615">
        <ele>404.9</ele>
        <time>2021-07-28T06:55:10Z</time>
      </trkpt>
      <trkpt lat="49.42392" lon="5.89615">
        <ele>404.9</ele>
        <time>2021-07-28T06:55:11Z</time>
      </trkpt>
      <trkpt lat="49.42388" lon="5.89616">
        <ele>404.9</ele>
        <time>2021-07-28T06:55:13Z</time>
      </trkpt>
      <trkpt lat="49.42385" lon="5.89616">
        <ele>404.8</ele>
        <time>2021-07-28T06:55:14Z</time>
      </trkpt>
      <trkpt lat="49.4238" lon="5.89615">
        <ele>404.8</ele>
        <time>2021-07-28T06:55:15Z</time>
      </trkpt>
      <trkpt lat="49.42376" lon="5.89612">
        <ele>404.8</ele>
        <time>2021-07-28T06:55:16Z</time>
      </trkpt>
      <trkpt lat="49.42373" lon="5.89609">
        <ele>404.9</ele>
        <time>2021-07-28T06:55:17Z</time>
      </trkpt>
      <trkpt lat="49.4237" lon="5.89605">
        <ele>404.9</ele>
        <time>2021-07-28T06:55:18Z</time>
      </trkpt>
      <trkpt lat="49.42366" lon="5.89601">
        <ele>404.9</ele>
        <time>2021-07-28T06:55:19Z</time>
      </trkpt>
      <trkpt lat="49.42351" lon="5.89597">
        <ele>405</ele>
        <time>2021-07-28T06:55:21Z</time>
      </trkpt>
      <trkpt lat="49.42346" lon="5.89603">
        <ele>405</ele>
        <time>2021-07-28T06:55:23Z</time>
      </trkpt>
      <trkpt lat="49.42341" lon="5.89605">
        <ele>405</ele>
        <time>2021-07-28T06:55:24Z</time>
      </trkpt>
      <trkpt lat="49.42336" lon="5.89604">
        <ele>405</ele>
        <time>2021-07-28T06:55:25Z</time>
      </trkpt>
      <trkpt lat="49.42331" lon="5.89602">
        <ele>405.1</ele>
        <time>2021-07-28T06:55:27Z</time>
      </trkpt>
      <trkpt lat="49.42327" lon="5.89601">
        <ele>405.1</ele>
        <time>2021-07-28T06:55:28Z</time>
      </trkpt>
      <trkpt lat="49.42323" lon="5.89602">
        <ele>405.1</ele>
        <time>2021-07-28T06:55:29Z</time>
      </trkpt>
      <trkpt lat="49.42318" lon="5.89602">
        <ele>405</ele>
        <time>2021-07-28T06:55:31Z</time>
      </trkpt>
      <trkpt lat="49.42314" lon="5.89603">
        <ele>405</ele>
        <time>2021-07-28T06:55:32Z</time>
      </trkpt>
      <trkpt lat="49.4231" lon="5.89605">
        <ele>404.9</ele>
        <time>2021-07-28T06:55:34Z</time>
      </trkpt>
      <trkpt lat="49.42306" lon="5.89607">
        <ele>404.9</ele>
        <time>2021-07-28T06:55:35Z</time>
      </trkpt>
      <trkpt lat="49.42303" lon="5.8961">
        <ele>404.8</ele>
        <time>2021-07-28T06:55:37Z</time>
      </trkpt>
      <trkpt lat="49.42301" lon="5.89612">
        <ele>404.8</ele>
        <time>2021-07-28T06:55:38Z</time>
      </trkpt>
      <trkpt lat="49.42299" lon="5.89617">
        <ele>404.8</ele>
        <time>2021-07-28T06:55:40Z</time>
      </trkpt>
      <trkpt lat="49.42299" lon="5.89622">
        <ele>404.7</ele>
        <time>2021-07-28T06:55:41Z</time>
      </trkpt>
      <trkpt lat="49.42299" lon="5.89624">
        <ele>404.7</ele>
        <time>2021-07-28T06:55:43Z</time>
      </trkpt>
      <trkpt lat="49.42299" lon="5.89626">
        <ele>404.7</ele>
        <time>2021-07-28T06:55:44Z</time>
      </trkpt>
      <trkpt lat="49.42298" lon="5.89627">
        <ele>404.7</ele>
        <time>2021-07-28T06:55:45Z</time>
      </trkpt>
      <trkpt lat="49.42297" lon="5.89628">
        <ele>404.7</ele>
        <time>2021-07-28T06:55:46Z</time>
      </trkpt>
      <trkpt lat="49.42296" lon="5.89632">
        <ele>404.6</ele>
        <time>2021-07-28T06:55:49Z</time>
      </trkpt>
      <trkpt lat="49.42294" lon="5.8964">
        <ele>404.6</ele>
        <time>2021-07-28T06:55:51Z</time>
      </trkpt>
      <trkpt lat="49.4229" lon="5.89646">
        <ele>404.5</ele>
        <time>2021-07-28T06:55:53Z</time>
      </trkpt>
      <trkpt lat="49.42288" lon="5.89648">
        <ele>404.5</ele>
        <time>2021-07-28T06:55:55Z</time>
      </trkpt>
      <trkpt lat="49.42284" lon="5.89648">
        <ele>404.4</ele>
        <time>2021-07-28T06:55:57Z</time>
      </trkpt>
      <trkpt lat="49.42282" lon="5.89648">
        <ele>404.4</ele>
        <time>2021-07-28T06:55:58Z</time>
      </trkpt>
      <trkpt lat="49.42282" lon="5.89647">
        <ele>404.4</ele>
        <time>2021-07-28T06:55:59Z</time>
      </trkpt>
      <trkpt lat="49.42282" lon="5.89647">
        <ele>404.4</ele>
        <time>2021-07-28T06:56:00Z</time>
      </trkpt>
      <trkpt lat="49.42283" lon="5.89646">
        <ele>404.4</ele>
        <time>2021-07-28T06:56:02Z</time>
      </trkpt>
      <trkpt lat="49.42284" lon="5.89646">
        <ele>404.4</ele>
        <time>2021-07-28T06:56:04Z</time>
      </trkpt>
      <trkpt lat="49.42284" lon="5.89646">
        <ele>404.4</ele>
        <time>2021-07-28T06:56:05Z</time>
      </trkpt>
      <trkpt lat="49.42285" lon="5.89645">
        <ele>404.4</ele>
        <time>2021-07-28T06:56:07Z</time>
      </trkpt>
      <trkpt lat="49.42275" lon="5.89622">
        <ele>404.4</ele>
        <time>2021-07-28T06:56:30Z</time>
      </trkpt>
      <trkpt lat="49.42267" lon="5.89608">
        <ele>404.4</ele>
        <time>2021-07-28T06:56:32Z</time>
      </trkpt>
      <trkpt lat="49.42261" lon="5.89594">
        <ele>404.3</ele>
        <time>2021-07-28T06:56:34Z</time>
      </trkpt>
      <trkpt lat="49.42258" lon="5.89588">
        <ele>404.3</ele>
        <time>2021-07-28T06:56:35Z</time>
      </trkpt>
      <trkpt lat="49.42256" lon="5.89582">
        <ele>404.2</ele>
        <time>2021-07-28T06:56:36Z</time>
      </trkpt>
      <trkpt lat="49.42254" lon="5.89575">
        <ele>404.2</ele>
        <time>2021-07-28T06:56:38Z</time>
      </trkpt>
      <trkpt lat="49.42253" lon="5.89566">
        <ele>404.1</ele>
        <time>2021-07-28T06:56:39Z</time>
      </trkpt>
      <trkpt lat="49.42252" lon="5.89561">
        <ele>404.1</ele>
        <time>2021-07-28T06:56:40Z</time>
      </trkpt>
      <trkpt lat="49.42251" lon="5.89553">
        <ele>404</ele>
        <time>2021-07-28T06:56:42Z</time>
      </trkpt>
      <trkpt lat="49.42249" lon="5.89546">
        <ele>404</ele>
        <time>2021-07-28T06:56:43Z</time>
      </trkpt>
      <trkpt lat="49.42246" lon="5.8954">
        <ele>403.9</ele>
        <time>2021-07-28T06:56:45Z</time>
      </trkpt>
      <trkpt lat="49.42244" lon="5.89538">
        <ele>403.9</ele>
        <time>2021-07-28T06:56:46Z</time>
      </trkpt>
      <trkpt lat="49.42243" lon="5.89538">
        <ele>403.9</ele>
        <time>2021-07-28T06:56:47Z</time>
      </trkpt>
      <trkpt lat="49.42242" lon="5.89538">
        <ele>403.9</ele>
        <time>2021-07-28T06:56:48Z</time>
      </trkpt>
      <trkpt lat="49.42237" lon="5.89536">
        <ele>403.8</ele>
        <time>2021-07-28T06:56:49Z</time>
      </trkpt>
      <trkpt lat="49.42233" lon="5.89533">
        <ele>403.8</ele>
        <time>2021-07-28T06:56:51Z</time>
      </trkpt>
      <trkpt lat="49.42228" lon="5.89527">
        <ele>403.7</ele>
        <time>2021-07-28T06:56:53Z</time>
      </trkpt>
      <trkpt lat="49.42223" lon="5.8952">
        <ele>403.6</ele>
        <time>2021-07-28T06:56:54Z</time>
      </trkpt>
      <trkpt lat="49.42221" lon="5.89515">
        <ele>403.6</ele>
        <time>2021-07-28T06:56:55Z</time>
      </trkpt>
      <trkpt lat="49.42218" lon="5.89509">
        <ele>403.5</ele>
        <time>2021-07-28T06:56:56Z</time>
      </trkpt>
      <trkpt lat="49.42212" lon="5.89503">
        <ele>403.4</ele>
        <time>2021-07-28T06:56:58Z</time>
      </trkpt>
      <trkpt lat="49.42206" lon="5.89495">
        <ele>403.3</ele>
        <time>2021-07-28T06:56:59Z</time>
      </trkpt>
      <trkpt lat="49.422" lon="5.89489">
        <ele>403.2</ele>
        <time>2021-07-28T06:57:01Z</time>
      </trkpt>
      <trkpt lat="49.42197" lon="5.89484">
        <ele>403.1</ele>
        <time>2021-07-28T06:57:02Z</time>
      </trkpt>
      <trkpt lat="49.42194" lon="5.89477">
        <ele>403</ele>
        <time>2021-07-28T06:57:03Z</time>
      </trkpt>
      <trkpt lat="49.42193" lon="5.8947">
        <ele>402.9</ele>
        <time>2021-07-28T06:57:04Z</time>
      </trkpt>
      <trkpt lat="49.4219" lon="5.89462">
        <ele>402.8</ele>
        <time>2021-07-28T06:57:06Z</time>
      </trkpt>
      <trkpt lat="49.42187" lon="5.89454">
        <ele>402.6</ele>
        <time>2021-07-28T06:57:07Z</time>
      </trkpt>
      <trkpt lat="49.42182" lon="5.8944">
        <ele>402.4</ele>
        <time>2021-07-28T06:57:08Z</time>
      </trkpt>
      <trkpt lat="49.42173" lon="5.89427">
        <ele>402.2</ele>
        <time>2021-07-28T06:57:10Z</time>
      </trkpt>
      <trkpt lat="49.42166" lon="5.89416">
        <ele>402</ele>
        <time>2021-07-28T06:57:12Z</time>
      </trkpt>
      <trkpt lat="49.42167" lon="5.8941">
        <ele>401.9</ele>
        <time>2021-07-28T06:57:14Z</time>
      </trkpt>
      <trkpt lat="49.42165" lon="5.89401">
        <ele>401.8</ele>
        <time>2021-07-28T06:57:15Z</time>
      </trkpt>
      <trkpt lat="49.4216" lon="5.89395">
        <ele>401.7</ele>
        <time>2021-07-28T06:57:16Z</time>
      </trkpt>
      <trkpt lat="49.42153" lon="5.89385">
        <ele>401.6</ele>
        <time>2021-07-28T06:57:18Z</time>
      </trkpt>
      <trkpt lat="49.42149" lon="5.89378">
        <ele>401.5</ele>
        <time>2021-07-28T06:57:19Z</time>
      </trkpt>
      <trkpt lat="49.42143" lon="5.89365">
        <ele>401.4</ele>
        <time>2021-07-28T06:57:21Z</time>
      </trkpt>
      <trkpt lat="49.42139" lon="5.89357">
        <ele>401.3</ele>
        <time>2021-07-28T06:57:22Z</time>
      </trkpt>
      <trkpt lat="49.42136" lon="5.89352">
        <ele>401.2</ele>
        <time>2021-07-28T06:57:23Z</time>
      </trkpt>
      <trkpt lat="49.42133" lon="5.89348">
        <ele>401.2</ele>
        <time>2021-07-28T06:57:24Z</time>
      </trkpt>
      <trkpt lat="49.42129" lon="5.89345">
        <ele>401.2</ele>
        <time>2021-07-28T06:57:25Z</time>
      </trkpt>
      <trkpt lat="49.42125" lon="5.89341">
        <ele>401.1</ele>
        <time>2021-07-28T06:57:26Z</time>
      </trkpt>
      <trkpt lat="49.4212" lon="5.89336">
        <ele>401.1</ele>
        <time>2021-07-28T06:57:28Z</time>
      </trkpt>
      <trkpt lat="49.42115" lon="5.89333">
        <ele>401.1</ele>
        <time>2021-07-28T06:57:29Z</time>
      </trkpt>
      <trkpt lat="49.42109" lon="5.8933">
        <ele>401.1</ele>
        <time>2021-07-28T06:57:31Z</time>
      </trkpt>
      <trkpt lat="49.42104" lon="5.89329">
        <ele>401.1</ele>
        <time>2021-07-28T06:57:32Z</time>
      </trkpt>
      <trkpt lat="49.42099" lon="5.89328">
        <ele>401.1</ele>
        <time>2021-07-28T06:57:34Z</time>
      </trkpt>
      <trkpt lat="49.42096" lon="5.89326">
        <ele>401.1</ele>
        <time>2021-07-28T06:57:35Z</time>
      </trkpt>
      <trkpt lat="49.42092" lon="5.89323">
        <ele>401.1</ele>
        <time>2021-07-28T06:57:36Z</time>
      </trkpt>
      <trkpt lat="49.42089" lon="5.89321">
        <ele>401.1</ele>
        <time>2021-07-28T06:57:37Z</time>
      </trkpt>
      <trkpt lat="49.42084" lon="5.89318">
        <ele>401.1</ele>
        <time>2021-07-28T06:57:38Z</time>
      </trkpt>
      <trkpt lat="49.42078" lon="5.89315">
        <ele>401.1</ele>
        <time>2021-07-28T06:57:40Z</time>
      </trkpt>
      <trkpt lat="49.4207" lon="5.89313">
        <ele>401.1</ele>
        <time>2021-07-28T06:57:41Z</time>
      </trkpt>
      <trkpt lat="49.42065" lon="5.89312">
        <ele>401.1</ele>
        <time>2021-07-28T06:57:42Z</time>
      </trkpt>
      <trkpt lat="49.42059" lon="5.89312">
        <ele>401.1</ele>
        <time>2021-07-28T06:57:44Z</time>
      </trkpt>
      <trkpt lat="49.42055" lon="5.89311">
        <ele>401.1</ele>
        <time>2021-07-28T06:57:45Z</time>
      </trkpt>
      <trkpt lat="49.42051" lon="5.89311">
        <ele>401.1</ele>
        <time>2021-07-28T06:57:46Z</time>
      </trkpt>
      <trkpt lat="49.42047" lon="5.89309">
        <ele>401.1</ele>
        <time>2021-07-28T06:57:47Z</time>
      </trkpt>
      <trkpt lat="49.42045" lon="5.89307">
        <ele>401.1</ele>
        <time>2021-07-28T06:57:48Z</time>
      </trkpt>
      <trkpt lat="49.42041" lon="5.89306">
        <ele>401.1</ele>
        <time>2021-07-28T06:57:49Z</time>
      </trkpt>
      <trkpt lat="49.42038" lon="5.89304">
        <ele>401.1</ele>
        <time>2021-07-28T06:57:50Z</time>
      </trkpt>
      <trkpt lat="49.42034" lon="5.89304">
        <ele>401.1</ele>
        <time>2021-07-28T06:57:52Z</time>
      </trkpt>
      <trkpt lat="49.42029" lon="5.89303">
        <ele>401.1</ele>
        <time>2021-07-28T06:57:53Z</time>
      </trkpt>
      <trkpt lat="49.42025" lon="5.89302">
        <ele>401.1</ele>
        <time>2021-07-28T06:57:54Z</time>
      </trkpt>
      <trkpt lat="49.42021" lon="5.89302">
        <ele>401.1</ele>
        <time>2021-07-28T06:57:55Z</time>
      </trkpt>
      <trkpt lat="49.42018" lon="5.89302">
        <ele>401.1</ele>
        <time>2021-07-28T06:57:56Z</time>
      </trkpt>
      <trkpt lat="49.42014" lon="5.89301">
        <ele>401.1</ele>
        <time>2021-07-28T06:57:58Z</time>
      </trkpt>
      <trkpt lat="49.4201" lon="5.89299">
        <ele>401.1</ele>
        <time>2021-07-28T06:57:59Z</time>
      </trkpt>
      <trkpt lat="49.42006" lon="5.89298">
        <ele>401.1</ele>
        <time>2021-07-28T06:58:00Z</time>
      </trkpt>
      <trkpt lat="49.42003" lon="5.89297">
        <ele>401.1</ele>
        <time>2021-07-28T06:58:01Z</time>
      </trkpt>
      <trkpt lat="49.41997" lon="5.89294">
        <ele>401.1</ele>
        <time>2021-07-28T06:58:03Z</time>
      </trkpt>
      <trkpt lat="49.41992" lon="5.89292">
        <ele>401.1</ele>
        <time>2021-07-28T06:58:04Z</time>
      </trkpt>
      <trkpt lat="49.41987" lon="5.89291">
        <ele>401</ele>
        <time>2021-07-28T06:58:05Z</time>
      </trkpt>
      <trkpt lat="49.41981" lon="5.89289">
        <ele>401</ele>
        <time>2021-07-28T06:58:07Z</time>
      </trkpt>
      <trkpt lat="49.41976" lon="5.89286">
        <ele>401</ele>
        <time>2021-07-28T06:58:08Z</time>
      </trkpt>
      <trkpt lat="49.41973" lon="5.89284">
        <ele>401</ele>
        <time>2021-07-28T06:58:09Z</time>
      </trkpt>
      <trkpt lat="49.41971" lon="5.8928">
        <ele>401</ele>
        <time>2021-07-28T06:58:11Z</time>
      </trkpt>
      <trkpt lat="49.4197" lon="5.89279">
        <ele>401</ele>
        <time>2021-07-28T06:58:12Z</time>
      </trkpt>
      <trkpt lat="49.4197" lon="5.89277">
        <ele>401</ele>
        <time>2021-07-28T06:58:14Z</time>
      </trkpt>
      <trkpt lat="49.41971" lon="5.89278">
        <ele>401</ele>
        <time>2021-07-28T06:58:15Z</time>
      </trkpt>
      <trkpt lat="49.41971" lon="5.89278">
        <ele>401</ele>
        <time>2021-07-28T06:58:17Z</time>
      </trkpt>
      <trkpt lat="49.41971" lon="5.89278">
        <ele>401</ele>
        <time>2021-07-28T06:58:19Z</time>
      </trkpt>
      <trkpt lat="49.41971" lon="5.89277">
        <ele>401</ele>
        <time>2021-07-28T06:58:21Z</time>
      </trkpt>
      <trkpt lat="49.41971" lon="5.89277">
        <ele>401</ele>
        <time>2021-07-28T06:58:22Z</time>
      </trkpt>
      <trkpt lat="49.41927" lon="5.89294">
        <ele>400.1</ele>
        <time>2021-07-28T06:59:34Z</time>
      </trkpt>
      <trkpt lat="49.41924" lon="5.89293">
        <ele>400</ele>
        <time>2021-07-28T06:59:35Z</time>
      </trkpt>
      <trkpt lat="49.41922" lon="5.89293">
        <ele>400</ele>
        <time>2021-07-28T06:59:36Z</time>
      </trkpt>
      <trkpt lat="49.41924" lon="5.89294">
        <ele>400</ele>
        <time>2021-07-28T06:59:38Z</time>
      </trkpt>
      <trkpt lat="49.41924" lon="5.89293">
        <ele>400</ele>
        <time>2021-07-28T06:59:39Z</time>
      </trkpt>
      <trkpt lat="49.41926" lon="5.89293">
        <ele>399.9</ele>
        <time>2021-07-28T06:59:41Z</time>
      </trkpt>
      <trkpt lat="49.41926" lon="5.89293">
        <ele>399.9</ele>
        <time>2021-07-28T06:59:42Z</time>
      </trkpt>
      <trkpt lat="49.41926" lon="5.89293">
        <ele>399.9</ele>
        <time>2021-07-28T06:59:43Z</time>
      </trkpt>
      <trkpt lat="49.41931" lon="5.89293">
        <ele>399.8</ele>
        <time>2021-07-28T06:59:45Z</time>
      </trkpt>
      <trkpt lat="49.41936" lon="5.89292">
        <ele>399.6</ele>
        <time>2021-07-28T06:59:47Z</time>
      </trkpt>
      <trkpt lat="49.41926" lon="5.89311">
        <ele>399.1</ele>
        <time>2021-07-28T07:00:22Z</time>
      </trkpt>
      <trkpt lat="49.41923" lon="5.89312">
        <ele>399</ele>
        <time>2021-07-28T07:00:23Z</time>
      </trkpt>
      <trkpt lat="49.4192" lon="5.89315">
        <ele>398.9</ele>
        <time>2021-07-28T07:00:24Z</time>
      </trkpt>
      <trkpt lat="49.41918" lon="5.89318">
        <ele>398.8</ele>
        <time>2021-07-28T07:00:25Z</time>
      </trkpt>
      <trkpt lat="49.41914" lon="5.89321">
        <ele>398.7</ele>
        <time>2021-07-28T07:00:27Z</time>
      </trkpt>
      <trkpt lat="49.41909" lon="5.89324">
        <ele>398.5</ele>
        <time>2021-07-28T07:00:28Z</time>
      </trkpt>
      <trkpt lat="49.41907" lon="5.89326">
        <ele>398.4</ele>
        <time>2021-07-28T07:00:29Z</time>
      </trkpt>
      <trkpt lat="49.41903" lon="5.89326">
        <ele>398.3</ele>
        <time>2021-07-28T07:00:30Z</time>
      </trkpt>
      <trkpt lat="49.41902" lon="5.89331">
        <ele>398.2</ele>
        <time>2021-07-28T07:00:32Z</time>
      </trkpt>
      <trkpt lat="49.41898" lon="5.89335">
        <ele>398</ele>
        <time>2021-07-28T07:00:33Z</time>
      </trkpt>
      <trkpt lat="49.41895" lon="5.89336">
        <ele>397.9</ele>
        <time>2021-07-28T07:00:34Z</time>
      </trkpt>
      <trkpt lat="49.4189" lon="5.89338">
        <ele>397.7</ele>
        <time>2021-07-28T07:00:36Z</time>
      </trkpt>
      <trkpt lat="49.41883" lon="5.89338">
        <ele>397.5</ele>
        <time>2021-07-28T07:00:37Z</time>
      </trkpt>
      <trkpt lat="49.41879" lon="5.89336">
        <ele>397.4</ele>
        <time>2021-07-28T07:00:39Z</time>
      </trkpt>
      <trkpt lat="49.41873" lon="5.89332">
        <ele>397.1</ele>
        <time>2021-07-28T07:00:40Z</time>
      </trkpt>
      <trkpt lat="49.41868" lon="5.89327">
        <ele>396.9</ele>
        <time>2021-07-28T07:00:42Z</time>
      </trkpt>
      <trkpt lat="49.41841" lon="5.89334">
        <ele>395.7</ele>
        <time>2021-07-28T07:00:44Z</time>
      </trkpt>
      <trkpt lat="49.41835" lon="5.89337">
        <ele>395.4</ele>
        <time>2021-07-28T07:00:46Z</time>
      </trkpt>
      <trkpt lat="49.41828" lon="5.89341">
        <ele>395.2</ele>
        <time>2021-07-28T07:00:48Z</time>
      </trkpt>
      <trkpt lat="49.41824" lon="5.89343">
        <ele>395</ele>
        <time>2021-07-28T07:00:49Z</time>
      </trkpt>
      <trkpt lat="49.41811" lon="5.89348">
        <ele>394.5</ele>
        <time>2021-07-28T07:00:50Z</time>
      </trkpt>
      <trkpt lat="49.41804" lon="5.89352">
        <ele>394.3</ele>
        <time>2021-07-28T07:00:51Z</time>
      </trkpt>
      <trkpt lat="49.41798" lon="5.89355">
        <ele>394.1</ele>
        <time>2021-07-28T07:00:52Z</time>
      </trkpt>
      <trkpt lat="49.41788" lon="5.89358">
        <ele>393.8</ele>
        <time>2021-07-28T07:00:54Z</time>
      </trkpt>
      <trkpt lat="49.4178" lon="5.89364">
        <ele>393.5</ele>
        <time>2021-07-28T07:00:56Z</time>
      </trkpt>
      <trkpt lat="49.41774" lon="5.89365">
        <ele>393.4</ele>
        <time>2021-07-28T07:00:57Z</time>
      </trkpt>
      <trkpt lat="49.4176" lon="5.8937">
        <ele>393</ele>
        <time>2021-07-28T07:00:59Z</time>
      </trkpt>
      <trkpt lat="49.41745" lon="5.89379">
        <ele>392.7</ele>
        <time>2021-07-28T07:01:01Z</time>
      </trkpt>
      <trkpt lat="49.41735" lon="5.89395">
        <ele>392.5</ele>
        <time>2021-07-28T07:01:03Z</time>
      </trkpt>
      <trkpt lat="49.41729" lon="5.89407">
        <ele>392.4</ele>
        <time>2021-07-28T07:01:05Z</time>
      </trkpt>
      <trkpt lat="49.41724" lon="5.89412">
        <ele>392.4</ele>
        <time>2021-07-28T07:01:07Z</time>
      </trkpt>
      <trkpt lat="49.4172" lon="5.89414">
        <ele>392.4</ele>
        <time>2021-07-28T07:01:08Z</time>
      </trkpt>
      <trkpt lat="49.41718" lon="5.89417">
        <ele>392.3</ele>
        <time>2021-07-28T07:01:09Z</time>
      </trkpt>
      <trkpt lat="49.41715" lon="5.89419">
        <ele>392.3</ele>
        <time>2021-07-28T07:01:11Z</time>
      </trkpt>
      <trkpt lat="49.41708" lon="5.89417">
        <ele>392.3</ele>
        <time>2021-07-28T07:01:12Z</time>
      </trkpt>
      <trkpt lat="49.41703" lon="5.89415">
        <ele>392.3</ele>
        <time>2021-07-28T07:01:13Z</time>
      </trkpt>
      <trkpt lat="49.41697" lon="5.89414">
        <ele>392.3</ele>
        <time>2021-07-28T07:01:15Z</time>
      </trkpt>
      <trkpt lat="49.41693" lon="5.89415">
        <ele>392.3</ele>
        <time>2021-07-28T07:01:16Z</time>
      </trkpt>
      <trkpt lat="49.41688" lon="5.89414">
        <ele>392.4</ele>
        <time>2021-07-28T07:01:17Z</time>
      </trkpt>
      <trkpt lat="49.41682" lon="5.89414">
        <ele>392.6</ele>
        <time>2021-07-28T07:01:19Z</time>
      </trkpt>
      <trkpt lat="49.41677" lon="5.89414">
        <ele>392.7</ele>
        <time>2021-07-28T07:01:20Z</time>
      </trkpt>
      <trkpt lat="49.41672" lon="5.89414">
        <ele>392.9</ele>
        <time>2021-07-28T07:01:21Z</time>
      </trkpt>
      <trkpt lat="49.41666" lon="5.89414">
        <ele>393</ele>
        <time>2021-07-28T07:01:23Z</time>
      </trkpt>
      <trkpt lat="49.41664" lon="5.89413">
        <ele>393.1</ele>
        <time>2021-07-28T07:01:24Z</time>
      </trkpt>
      <trkpt lat="49.4166" lon="5.89414">
        <ele>393.2</ele>
        <time>2021-07-28T07:01:26Z</time>
      </trkpt>
      <trkpt lat="49.41657" lon="5.89416">
        <ele>393.2</ele>
        <time>2021-07-28T07:01:27Z</time>
      </trkpt>
      <trkpt lat="49.41656" lon="5.89418">
        <ele>393.3</ele>
        <time>2021-07-28T07:01:28Z</time>
      </trkpt>
      <trkpt lat="49.41655" lon="5.89419">
        <ele>393.3</ele>
        <time>2021-07-28T07:01:29Z</time>
      </trkpt>
      <trkpt lat="49.41655" lon="5.8942">
        <ele>393.3</ele>
        <time>2021-07-28T07:01:30Z</time>
      </trkpt>
      <trkpt lat="49.41656" lon="5.89422">
        <ele>393.3</ele>
        <time>2021-07-28T07:01:32Z</time>
      </trkpt>
      <trkpt lat="49.41656" lon="5.89422">
        <ele>393.3</ele>
        <time>2021-07-28T07:01:33Z</time>
      </trkpt>
      <trkpt lat="49.41655" lon="5.89423">
        <ele>393.4</ele>
        <time>2021-07-28T07:01:35Z</time>
      </trkpt>
      <trkpt lat="49.41654" lon="5.89423">
        <ele>393.4</ele>
        <time>2021-07-28T07:01:37Z</time>
      </trkpt>
      <trkpt lat="49.41654" lon="5.89423">
        <ele>393.4</ele>
        <time>2021-07-28T07:01:38Z</time>
      </trkpt>
      <trkpt lat="49.4165" lon="5.89438">
        <ele>393.6</ele>
        <time>2021-07-28T07:02:08Z</time>
      </trkpt>
      <trkpt lat="49.4165" lon="5.89441">
        <ele>393.6</ele>
        <time>2021-07-28T07:02:09Z</time>
      </trkpt>
      <trkpt lat="49.4165" lon="5.89445">
        <ele>393.7</ele>
        <time>2021-07-28T07:02:11Z</time>
      </trkpt>
      <trkpt lat="49.4165" lon="5.89446">
        <ele>393.7</ele>
        <time>2021-07-28T07:02:12Z</time>
      </trkpt>
      <trkpt lat="49.4165" lon="5.89447">
        <ele>393.7</ele>
        <time>2021-07-28T07:02:15Z</time>
      </trkpt>
      <trkpt lat="49.41649" lon="5.89449">
        <ele>393.7</ele>
        <time>2021-07-28T07:02:16Z</time>
      </trkpt>
      <trkpt lat="49.4165" lon="5.89452">
        <ele>393.7</ele>
        <time>2021-07-28T07:02:17Z</time>
      </trkpt>
      <trkpt lat="49.4165" lon="5.89453">
        <ele>393.7</ele>
        <time>2021-07-28T07:02:18Z</time>
      </trkpt>
      <trkpt lat="49.4165" lon="5.89455">
        <ele>393.7</ele>
        <time>2021-07-28T07:02:19Z</time>
      </trkpt>
      <trkpt lat="49.41651" lon="5.89457">
        <ele>393.7</ele>
        <time>2021-07-28T07:02:22Z</time>
      </trkpt>
      <trkpt lat="49.41651" lon="5.89458">
        <ele>393.7</ele>
        <time>2021-07-28T07:02:23Z</time>
      </trkpt>
      <trkpt lat="49.41652" lon="5.89458">
        <ele>393.7</ele>
        <time>2021-07-28T07:02:24Z</time>
      </trkpt>
      <trkpt lat="49.41653" lon="5.89458">
        <ele>393.6</ele>
        <time>2021-07-28T07:02:26Z</time>
      </trkpt>
      <trkpt lat="49.41654" lon="5.89458">
        <ele>393.6</ele>
        <time>2021-07-28T07:02:27Z</time>
      </trkpt>
      <trkpt lat="49.41654" lon="5.89458">
        <ele>393.6</ele>
        <time>2021-07-28T07:02:28Z</time>
      </trkpt>
      <trkpt lat="49.41654" lon="5.89458">
        <ele>393.6</ele>
        <time>2021-07-28T07:02:29Z</time>
      </trkpt>
      <trkpt lat="49.41655" lon="5.89458">
        <ele>393.6</ele>
        <time>2021-07-28T07:02:30Z</time>
      </trkpt>
      <trkpt lat="49.41655" lon="5.89457">
        <ele>393.6</ele>
        <time>2021-07-28T07:02:32Z</time>
      </trkpt>
      <trkpt lat="49.41655" lon="5.89456">
        <ele>393.6</ele>
        <time>2021-07-28T07:02:33Z</time>
      </trkpt>
      <trkpt lat="49.41655" lon="5.89454">
        <ele>393.6</ele>
        <time>2021-07-28T07:02:34Z</time>
      </trkpt>
      <trkpt lat="49.41655" lon="5.89452">
        <ele>393.5</ele>
        <time>2021-07-28T07:02:36Z</time>
      </trkpt>
      <trkpt lat="49.41655" lon="5.89451">
        <ele>393.5</ele>
        <time>2021-07-28T07:02:37Z</time>
      </trkpt>
      <trkpt lat="49.41656" lon="5.89448">
        <ele>393.5</ele>
        <time>2021-07-28T07:02:39Z</time>
      </trkpt>
      <trkpt lat="49.41658" lon="5.89445">
        <ele>393.4</ele>
        <time>2021-07-28T07:02:40Z</time>
      </trkpt>
      <trkpt lat="49.41659" lon="5.89443">
        <ele>393.4</ele>
        <time>2021-07-28T07:02:41Z</time>
      </trkpt>
      <trkpt lat="49.41663" lon="5.8944">
        <ele>393.3</ele>
        <time>2021-07-28T07:02:43Z</time>
      </trkpt>
      <trkpt lat="49.41671" lon="5.89431">
        <ele>393.1</ele>
        <time>2021-07-28T07:02:44Z</time>
      </trkpt>
      <trkpt lat="49.41686" lon="5.89418">
        <ele>392.8</ele>
        <time>2021-07-28T07:02:45Z</time>
      </trkpt>
      <trkpt lat="49.41692" lon="5.89413">
        <ele>392.6</ele>
        <time>2021-07-28T07:02:47Z</time>
      </trkpt>
      <trkpt lat="49.41699" lon="5.89407">
        <ele>392.4</ele>
        <time>2021-07-28T07:02:48Z</time>
      </trkpt>
      <trkpt lat="49.417" lon="5.89401">
        <ele>392.3</ele>
        <time>2021-07-28T07:02:50Z</time>
      </trkpt>
      <trkpt lat="49.41699" lon="5.89391">
        <ele>392.3</ele>
        <time>2021-07-28T07:02:52Z</time>
      </trkpt>
      <trkpt lat="49.41698" lon="5.89385">
        <ele>392.2</ele>
        <time>2021-07-28T07:02:53Z</time>
      </trkpt>
      <trkpt lat="49.41698" lon="5.89382">
        <ele>392.2</ele>
        <time>2021-07-28T07:02:54Z</time>
      </trkpt>
      <trkpt lat="49.41698" lon="5.89375">
        <ele>392.1</ele>
        <time>2021-07-28T07:02:56Z</time>
      </trkpt>
      <trkpt lat="49.41697" lon="5.89372">
        <ele>392.1</ele>
        <time>2021-07-28T07:02:58Z</time>
      </trkpt>
      <trkpt lat="49.41618" lon="5.89327">
        <ele>390.7</ele>
        <time>2021-07-28T07:03:08Z</time>
      </trkpt>
      <trkpt lat="49.41612" lon="5.89321">
        <ele>390.6</ele>
        <time>2021-07-28T07:03:09Z</time>
      </trkpt>
      <trkpt lat="49.41607" lon="5.89313">
        <ele>390.5</ele>
        <time>2021-07-28T07:03:10Z</time>
      </trkpt>
      <trkpt lat="49.416" lon="5.89296">
        <ele>390.4</ele>
        <time>2021-07-28T07:03:12Z</time>
      </trkpt>
      <trkpt lat="49.41595" lon="5.89288">
        <ele>390.3</ele>
        <time>2021-07-28T07:03:14Z</time>
      </trkpt>
      <trkpt lat="49.41594" lon="5.89285">
        <ele>390.2</ele>
        <time>2021-07-28T07:03:16Z</time>
      </trkpt>
      <trkpt lat="49.41592" lon="5.89282">
        <ele>390.2</ele>
        <time>2021-07-28T07:03:17Z</time>
      </trkpt>
      <trkpt lat="49.4159" lon="5.89278">
        <ele>390.2</ele>
        <time>2021-07-28T07:03:18Z</time>
      </trkpt>
      <trkpt lat="49.41586" lon="5.89274">
        <ele>390.1</ele>
        <time>2021-07-28T07:03:19Z</time>
      </trkpt>
      <trkpt lat="49.41581" lon="5.89271">
        <ele>390</ele>
        <time>2021-07-28T07:03:21Z</time>
      </trkpt>
      <trkpt lat="49.4157" lon="5.89267">
        <ele>389.9</ele>
        <time>2021-07-28T07:03:22Z</time>
      </trkpt>
      <trkpt lat="49.41565" lon="5.89264">
        <ele>389.8</ele>
        <time>2021-07-28T07:03:23Z</time>
      </trkpt>
      <trkpt lat="49.41561" lon="5.89258">
        <ele>389.8</ele>
        <time>2021-07-28T07:03:24Z</time>
      </trkpt>
      <trkpt lat="49.41554" lon="5.89247">
        <ele>389.7</ele>
        <time>2021-07-28T07:03:26Z</time>
      </trkpt>
      <trkpt lat="49.4155" lon="5.89241">
        <ele>389.7</ele>
        <time>2021-07-28T07:03:28Z</time>
      </trkpt>
      <trkpt lat="49.41547" lon="5.89238">
        <ele>389.6</ele>
        <time>2021-07-28T07:03:29Z</time>
      </trkpt>
      <trkpt lat="49.41536" lon="5.8923">
        <ele>389.5</ele>
        <time>2021-07-28T07:03:30Z</time>
      </trkpt>
      <trkpt lat="49.41532" lon="5.89225">
        <ele>389.5</ele>
        <time>2021-07-28T07:03:32Z</time>
      </trkpt>
      <trkpt lat="49.41526" lon="5.89215">
        <ele>389.4</ele>
        <time>2021-07-28T07:03:33Z</time>
      </trkpt>
      <trkpt lat="49.41523" lon="5.89207">
        <ele>389.4</ele>
        <time>2021-07-28T07:03:35Z</time>
      </trkpt>
      <trkpt lat="49.41513" lon="5.89195">
        <ele>389.3</ele>
        <time>2021-07-28T07:03:36Z</time>
      </trkpt>
      <trkpt lat="49.41509" lon="5.8919">
        <ele>389.3</ele>
        <time>2021-07-28T07:03:37Z</time>
      </trkpt>
      <trkpt lat="49.41506" lon="5.89186">
        <ele>389.3</ele>
        <time>2021-07-28T07:03:39Z</time>
      </trkpt>
      <trkpt lat="49.41505" lon="5.89184">
        <ele>389.3</ele>
        <time>2021-07-28T07:03:40Z</time>
      </trkpt>
      <trkpt lat="49.41496" lon="5.8918">
        <ele>389.4</ele>
        <time>2021-07-28T07:03:41Z</time>
      </trkpt>
      <trkpt lat="49.41489" lon="5.89173">
        <ele>389.4</ele>
        <time>2021-07-28T07:03:42Z</time>
      </trkpt>
      <trkpt lat="49.41478" lon="5.89162">
        <ele>389.5</ele>
        <time>2021-07-28T07:03:44Z</time>
      </trkpt>
      <trkpt lat="49.4147" lon="5.89164">
        <ele>389.5</ele>
        <time>2021-07-28T07:03:46Z</time>
      </trkpt>
      <trkpt lat="49.41466" lon="5.89158">
        <ele>389.5</ele>
        <time>2021-07-28T07:03:48Z</time>
      </trkpt>
      <trkpt lat="49.41463" lon="5.89155">
        <ele>389.5</ele>
        <time>2021-07-28T07:03:49Z</time>
      </trkpt>
      <trkpt lat="49.4146" lon="5.89151">
        <ele>389.5</ele>
        <time>2021-07-28T07:03:50Z</time>
      </trkpt>
      <trkpt lat="49.41459" lon="5.89147">
        <ele>389.5</ele>
        <time>2021-07-28T07:03:52Z</time>
      </trkpt>
      <trkpt lat="49.41458" lon="5.89146">
        <ele>389.5</ele>
        <time>2021-07-28T07:03:54Z</time>
      </trkpt>
      <trkpt lat="49.41458" lon="5.89144">
        <ele>389.5</ele>
        <time>2021-07-28T07:03:55Z</time>
      </trkpt>
      <trkpt lat="49.41456" lon="5.89142">
        <ele>389.5</ele>
        <time>2021-07-28T07:03:56Z</time>
      </trkpt>
      <trkpt lat="49.41455" lon="5.8914">
        <ele>389.6</ele>
        <time>2021-07-28T07:03:58Z</time>
      </trkpt>
      <trkpt lat="49.41455" lon="5.89142">
        <ele>389.6</ele>
        <time>2021-07-28T07:03:59Z</time>
      </trkpt>
      <trkpt lat="49.41454" lon="5.89142">
        <ele>389.6</ele>
        <time>2021-07-28T07:04:00Z</time>
      </trkpt>
      <trkpt lat="49.41448" lon="5.89141">
        <ele>389.6</ele>
        <time>2021-07-28T07:04:02Z</time>
      </trkpt>
      <trkpt lat="49.41445" lon="5.89139">
        <ele>389.6</ele>
        <time>2021-07-28T07:04:04Z</time>
      </trkpt>
      <trkpt lat="49.4144" lon="5.89136">
        <ele>389.7</ele>
        <time>2021-07-28T07:04:05Z</time>
      </trkpt>
      <trkpt lat="49.41436" lon="5.89133">
        <ele>389.7</ele>
        <time>2021-07-28T07:04:07Z</time>
      </trkpt>
      <trkpt lat="49.41432" lon="5.89131">
        <ele>389.7</ele>
        <time>2021-07-28T07:04:08Z</time>
      </trkpt>
      <trkpt lat="49.41427" lon="5.89126">
        <ele>389.8</ele>
        <time>2021-07-28T07:04:09Z</time>
      </trkpt>
      <trkpt lat="49.4142" lon="5.89119">
        <ele>389.9</ele>
        <time>2021-07-28T07:04:11Z</time>
      </trkpt>
      <trkpt lat="49.41412" lon="5.89115">
        <ele>389.9</ele>
        <time>2021-07-28T07:04:13Z</time>
      </trkpt>
      <trkpt lat="49.41407" lon="5.89112">
        <ele>390</ele>
        <time>2021-07-28T07:04:14Z</time>
      </trkpt>
      <trkpt lat="49.41405" lon="5.89111">
        <ele>390</ele>
        <time>2021-07-28T07:04:15Z</time>
      </trkpt>
      <trkpt lat="49.41403" lon="5.8911">
        <ele>390</ele>
        <time>2021-07-28T07:04:17Z</time>
      </trkpt>
      <trkpt lat="49.414" lon="5.89108">
        <ele>390</ele>
        <time>2021-07-28T07:04:18Z</time>
      </trkpt>
      <trkpt lat="49.41398" lon="5.89106">
        <ele>390</ele>
        <time>2021-07-28T07:04:20Z</time>
      </trkpt>
      <trkpt lat="49.41394" lon="5.89103">
        <ele>390.1</ele>
        <time>2021-07-28T07:04:21Z</time>
      </trkpt>
      <trkpt lat="49.41392" lon="5.89102">
        <ele>390.1</ele>
        <time>2021-07-28T07:04:22Z</time>
      </trkpt>
      <trkpt lat="49.41388" lon="5.891">
        <ele>390.1</ele>
        <time>2021-07-28T07:04:23Z</time>
      </trkpt>
      <trkpt lat="49.41387" lon="5.89099">
        <ele>390.1</ele>
        <time>2021-07-28T07:04:24Z</time>
      </trkpt>
      <trkpt lat="49.41347" lon="5.89061">
        <ele>390.2</ele>
        <time>2021-07-28T07:04:39Z</time>
      </trkpt>
      <trkpt lat="49.41342" lon="5.89054">
        <ele>390.2</ele>
        <time>2021-07-28T07:04:40Z</time>
      </trkpt>
      <trkpt lat="49.41338" lon="5.89045">
        <ele>390.3</ele>
        <time>2021-07-28T07:04:42Z</time>
      </trkpt>
      <trkpt lat="49.41336" lon="5.89038">
        <ele>390.3</ele>
        <time>2021-07-28T07:04:43Z</time>
      </trkpt>
      <trkpt lat="49.41332" lon="5.89029">
        <ele>390.4</ele>
        <time>2021-07-28T07:04:44Z</time>
      </trkpt>
      <trkpt lat="49.4133" lon="5.8902">
        <ele>390.5</ele>
        <time>2021-07-28T07:04:46Z</time>
      </trkpt>
      <trkpt lat="49.41327" lon="5.89015">
        <ele>390.5</ele>
        <time>2021-07-28T07:04:47Z</time>
      </trkpt>
      <trkpt lat="49.41322" lon="5.89008">
        <ele>390.6</ele>
        <time>2021-07-28T07:04:48Z</time>
      </trkpt>
      <trkpt lat="49.41319" lon="5.89004">
        <ele>390.7</ele>
        <time>2021-07-28T07:04:49Z</time>
      </trkpt>
      <trkpt lat="49.41316" lon="5.89001">
        <ele>390.7</ele>
        <time>2021-07-28T07:04:50Z</time>
      </trkpt>
      <trkpt lat="49.41313" lon="5.88998">
        <ele>390.8</ele>
        <time>2021-07-28T07:04:52Z</time>
      </trkpt>
      <trkpt lat="49.4131" lon="5.88996">
        <ele>390.8</ele>
        <time>2021-07-28T07:04:53Z</time>
      </trkpt>
      <trkpt lat="49.41307" lon="5.88995">
        <ele>390.9</ele>
        <time>2021-07-28T07:04:54Z</time>
      </trkpt>
      <trkpt lat="49.41306" lon="5.88995">
        <ele>390.9</ele>
        <time>2021-07-28T07:04:55Z</time>
      </trkpt>
      <trkpt lat="49.41305" lon="5.88996">
        <ele>390.9</ele>
        <time>2021-07-28T07:04:56Z</time>
      </trkpt>
      <trkpt lat="49.41301" lon="5.88997">
        <ele>391</ele>
        <time>2021-07-28T07:04:57Z</time>
      </trkpt>
      <trkpt lat="49.41299" lon="5.88996">
        <ele>391</ele>
        <time>2021-07-28T07:04:58Z</time>
      </trkpt>
      <trkpt lat="49.41295" lon="5.88994">
        <ele>391.1</ele>
        <time>2021-07-28T07:04:59Z</time>
      </trkpt>
      <trkpt lat="49.41292" lon="5.88992">
        <ele>391.2</ele>
        <time>2021-07-28T07:05:00Z</time>
      </trkpt>
      <trkpt lat="49.41288" lon="5.88988">
        <ele>391.2</ele>
        <time>2021-07-28T07:05:01Z</time>
      </trkpt>
      <trkpt lat="49.41283" lon="5.88986">
        <ele>391.3</ele>
        <time>2021-07-28T07:05:03Z</time>
      </trkpt>
      <trkpt lat="49.41279" lon="5.88984">
        <ele>391.4</ele>
        <time>2021-07-28T07:05:04Z</time>
      </trkpt>
      <trkpt lat="49.41275" lon="5.88981">
        <ele>391.5</ele>
        <time>2021-07-28T07:05:05Z</time>
      </trkpt>
      <trkpt lat="49.41272" lon="5.88979">
        <ele>391.6</ele>
        <time>2021-07-28T07:05:06Z</time>
      </trkpt>
      <trkpt lat="49.41269" lon="5.88976">
        <ele>391.7</ele>
        <time>2021-07-28T07:05:07Z</time>
      </trkpt>
      <trkpt lat="49.41266" lon="5.88974">
        <ele>391.7</ele>
        <time>2021-07-28T07:05:08Z</time>
      </trkpt>
      <trkpt lat="49.41262" lon="5.88971">
        <ele>391.8</ele>
        <time>2021-07-28T07:05:09Z</time>
      </trkpt>
      <trkpt lat="49.41257" lon="5.88967">
        <ele>391.9</ele>
        <time>2021-07-28T07:05:11Z</time>
      </trkpt>
      <trkpt lat="49.41253" lon="5.88964">
        <ele>392</ele>
        <time>2021-07-28T07:05:12Z</time>
      </trkpt>
      <trkpt lat="49.41249" lon="5.8896">
        <ele>392.1</ele>
        <time>2021-07-28T07:05:14Z</time>
      </trkpt>
      <trkpt lat="49.41246" lon="5.88956">
        <ele>392.2</ele>
        <time>2021-07-28T07:05:15Z</time>
      </trkpt>
      <trkpt lat="49.41244" lon="5.88952">
        <ele>392.2</ele>
        <time>2021-07-28T07:05:16Z</time>
      </trkpt>
      <trkpt lat="49.41242" lon="5.88949">
        <ele>392.3</ele>
        <time>2021-07-28T07:05:17Z</time>
      </trkpt>
      <trkpt lat="49.41239" lon="5.88945">
        <ele>392.4</ele>
        <time>2021-07-28T07:05:18Z</time>
      </trkpt>
      <trkpt lat="49.41237" lon="5.88941">
        <ele>392.5</ele>
        <time>2021-07-28T07:05:19Z</time>
      </trkpt>
      <trkpt lat="49.41236" lon="5.88936">
        <ele>392.6</ele>
        <time>2021-07-28T07:05:20Z</time>
      </trkpt>
      <trkpt lat="49.41233" lon="5.88933">
        <ele>392.7</ele>
        <time>2021-07-28T07:05:21Z</time>
      </trkpt>
      <trkpt lat="49.41231" lon="5.8893">
        <ele>392.8</ele>
        <time>2021-07-28T07:05:22Z</time>
      </trkpt>
      <trkpt lat="49.41229" lon="5.88926">
        <ele>392.8</ele>
        <time>2021-07-28T07:05:23Z</time>
      </trkpt>
      <trkpt lat="49.41225" lon="5.88918">
        <ele>393</ele>
        <time>2021-07-28T07:05:25Z</time>
      </trkpt>
      <trkpt lat="49.41223" lon="5.8891">
        <ele>393</ele>
        <time>2021-07-28T07:05:27Z</time>
      </trkpt>
      <trkpt lat="49.41222" lon="5.88903">
        <ele>392.9</ele>
        <time>2021-07-28T07:05:28Z</time>
      </trkpt>
      <trkpt lat="49.41221" lon="5.88896">
        <ele>392.9</ele>
        <time>2021-07-28T07:05:29Z</time>
      </trkpt>
      <trkpt lat="49.41219" lon="5.8889">
        <ele>392.9</ele>
        <time>2021-07-28T07:05:30Z</time>
      </trkpt>
      <trkpt lat="49.41216" lon="5.88882">
        <ele>392.9</ele>
        <time>2021-07-28T07:05:32Z</time>
      </trkpt>
      <trkpt lat="49.41215" lon="5.88875">
        <ele>392.9</ele>
        <time>2021-07-28T07:05:33Z</time>
      </trkpt>
      <trkpt lat="49.41214" lon="5.88867">
        <ele>392.8</ele>
        <time>2021-07-28T07:05:34Z</time>
      </trkpt>
      <trkpt lat="49.41214" lon="5.88861">
        <ele>392.8</ele>
        <time>2021-07-28T07:05:35Z</time>
      </trkpt>
      <trkpt lat="49.41213" lon="5.88851">
        <ele>392.8</ele>
        <time>2021-07-28T07:05:37Z</time>
      </trkpt>
      <trkpt lat="49.4121" lon="5.88842">
        <ele>392.7</ele>
        <time>2021-07-28T07:05:39Z</time>
      </trkpt>
      <trkpt lat="49.41208" lon="5.88836">
        <ele>392.7</ele>
        <time>2021-07-28T07:05:41Z</time>
      </trkpt>
      <trkpt lat="49.41205" lon="5.8883">
        <ele>392.7</ele>
        <time>2021-07-28T07:05:42Z</time>
      </trkpt>
      <trkpt lat="49.41201" lon="5.88826">
        <ele>392.7</ele>
        <time>2021-07-28T07:05:44Z</time>
      </trkpt>
      <trkpt lat="49.41199" lon="5.88823">
        <ele>392.6</ele>
        <time>2021-07-28T07:05:45Z</time>
      </trkpt>
      <trkpt lat="49.41198" lon="5.88819">
        <ele>392.6</ele>
        <time>2021-07-28T07:05:46Z</time>
      </trkpt>
      <trkpt lat="49.41197" lon="5.88814">
        <ele>392.6</ele>
        <time>2021-07-28T07:05:47Z</time>
      </trkpt>
      <trkpt lat="49.41194" lon="5.88808">
        <ele>392.6</ele>
        <time>2021-07-28T07:05:48Z</time>
      </trkpt>
      <trkpt lat="49.4119" lon="5.88803">
        <ele>392.6</ele>
        <time>2021-07-28T07:05:50Z</time>
      </trkpt>
      <trkpt lat="49.41187" lon="5.88799">
        <ele>392.6</ele>
        <time>2021-07-28T07:05:51Z</time>
      </trkpt>
      <trkpt lat="49.41184" lon="5.88796">
        <ele>392.5</ele>
        <time>2021-07-28T07:05:52Z</time>
      </trkpt>
      <trkpt lat="49.41181" lon="5.88793">
        <ele>392.5</ele>
        <time>2021-07-28T07:05:53Z</time>
      </trkpt>
      <trkpt lat="49.41178" lon="5.88788">
        <ele>392.5</ele>
        <time>2021-07-28T07:05:55Z</time>
      </trkpt>
      <trkpt lat="49.41175" lon="5.88783">
        <ele>392.4</ele>
        <time>2021-07-28T07:05:56Z</time>
      </trkpt>
      <trkpt lat="49.41173" lon="5.8878">
        <ele>392.4</ele>
        <time>2021-07-28T07:05:57Z</time>
      </trkpt>
      <trkpt lat="49.41171" lon="5.88775">
        <ele>392.4</ele>
        <time>2021-07-28T07:05:58Z</time>
      </trkpt>
      <trkpt lat="49.41169" lon="5.88771">
        <ele>392.3</ele>
        <time>2021-07-28T07:05:59Z</time>
      </trkpt>
      <trkpt lat="49.41164" lon="5.88763">
        <ele>392.3</ele>
        <time>2021-07-28T07:06:01Z</time>
      </trkpt>
      <trkpt lat="49.41162" lon="5.88759">
        <ele>392.3</ele>
        <time>2021-07-28T07:06:02Z</time>
      </trkpt>
      <trkpt lat="49.41161" lon="5.88754">
        <ele>392.2</ele>
        <time>2021-07-28T07:06:03Z</time>
      </trkpt>
      <trkpt lat="49.4116" lon="5.88747">
        <ele>392.2</ele>
        <time>2021-07-28T07:06:05Z</time>
      </trkpt>
      <trkpt lat="49.41157" lon="5.88739">
        <ele>392.2</ele>
        <time>2021-07-28T07:06:06Z</time>
      </trkpt>
      <trkpt lat="49.41155" lon="5.88729">
        <ele>392.2</ele>
        <time>2021-07-28T07:06:08Z</time>
      </trkpt>
      <trkpt lat="49.41153" lon="5.88725">
        <ele>392.2</ele>
        <time>2021-07-28T07:06:09Z</time>
      </trkpt>
      <trkpt lat="49.41151" lon="5.88721">
        <ele>392.1</ele>
        <time>2021-07-28T07:06:10Z</time>
      </trkpt>
      <trkpt lat="49.41148" lon="5.88714">
        <ele>392.1</ele>
        <time>2021-07-28T07:06:12Z</time>
      </trkpt>
      <trkpt lat="49.41146" lon="5.88708">
        <ele>392.1</ele>
        <time>2021-07-28T07:06:13Z</time>
      </trkpt>
      <trkpt lat="49.41144" lon="5.88703">
        <ele>392.1</ele>
        <time>2021-07-28T07:06:14Z</time>
      </trkpt>
      <trkpt lat="49.41142" lon="5.88695">
        <ele>392</ele>
        <time>2021-07-28T07:06:16Z</time>
      </trkpt>
      <trkpt lat="49.4114" lon="5.88688">
        <ele>392</ele>
        <time>2021-07-28T07:06:17Z</time>
      </trkpt>
      <trkpt lat="49.41139" lon="5.8868">
        <ele>391.9</ele>
        <time>2021-07-28T07:06:19Z</time>
      </trkpt>
      <trkpt lat="49.41139" lon="5.88672">
        <ele>391.9</ele>
        <time>2021-07-28T07:06:20Z</time>
      </trkpt>
      <trkpt lat="49.41137" lon="5.88661">
        <ele>391.8</ele>
        <time>2021-07-28T07:06:22Z</time>
      </trkpt>
      <trkpt lat="49.41135" lon="5.88656">
        <ele>391.8</ele>
        <time>2021-07-28T07:06:23Z</time>
      </trkpt>
      <trkpt lat="49.41134" lon="5.88652">
        <ele>391.7</ele>
        <time>2021-07-28T07:06:24Z</time>
      </trkpt>
      <trkpt lat="49.41131" lon="5.88647">
        <ele>391.7</ele>
        <time>2021-07-28T07:06:25Z</time>
      </trkpt>
      <trkpt lat="49.41128" lon="5.88644">
        <ele>391.7</ele>
        <time>2021-07-28T07:06:26Z</time>
      </trkpt>
      <trkpt lat="49.41128" lon="5.88643">
        <ele>391.7</ele>
        <time>2021-07-28T07:06:27Z</time>
      </trkpt>
      <trkpt lat="49.41125" lon="5.88638">
        <ele>391.6</ele>
        <time>2021-07-28T07:06:28Z</time>
      </trkpt>
      <trkpt lat="49.4112" lon="5.88629">
        <ele>391.6</ele>
        <time>2021-07-28T07:06:30Z</time>
      </trkpt>
      <trkpt lat="49.41118" lon="5.88622">
        <ele>391.6</ele>
        <time>2021-07-28T07:06:31Z</time>
      </trkpt>
      <trkpt lat="49.41117" lon="5.88615">
        <ele>391.6</ele>
        <time>2021-07-28T07:06:32Z</time>
      </trkpt>
      <trkpt lat="49.41117" lon="5.88608">
        <ele>391.6</ele>
        <time>2021-07-28T07:06:33Z</time>
      </trkpt>
      <trkpt lat="49.41116" lon="5.88598">
        <ele>391.5</ele>
        <time>2021-07-28T07:06:35Z</time>
      </trkpt>
      <trkpt lat="49.41112" lon="5.88589">
        <ele>391.5</ele>
        <time>2021-07-28T07:06:37Z</time>
      </trkpt>
      <trkpt lat="49.41109" lon="5.88587">
        <ele>391.4</ele>
        <time>2021-07-28T07:06:38Z</time>
      </trkpt>
      <trkpt lat="49.41103" lon="5.88584">
        <ele>391.4</ele>
        <time>2021-07-28T07:06:40Z</time>
      </trkpt>
      <trkpt lat="49.41099" lon="5.88581">
        <ele>391.4</ele>
        <time>2021-07-28T07:06:41Z</time>
      </trkpt>
      <trkpt lat="49.41096" lon="5.88578">
        <ele>391.4</ele>
        <time>2021-07-28T07:06:43Z</time>
      </trkpt>
      <trkpt lat="49.41093" lon="5.88576">
        <ele>391.4</ele>
        <time>2021-07-28T07:06:44Z</time>
      </trkpt>
      <trkpt lat="49.41092" lon="5.88576">
        <ele>391.4</ele>
        <time>2021-07-28T07:06:45Z</time>
      </trkpt>
      <trkpt lat="49.4109" lon="5.88572">
        <ele>391.4</ele>
        <time>2021-07-28T07:06:46Z</time>
      </trkpt>
      <trkpt lat="49.41085" lon="5.88569">
        <ele>391.3</ele>
        <time>2021-07-28T07:06:47Z</time>
      </trkpt>
      <trkpt lat="49.41082" lon="5.88566">
        <ele>391.3</ele>
        <time>2021-07-28T07:06:48Z</time>
      </trkpt>
      <trkpt lat="49.41076" lon="5.8856">
        <ele>391.3</ele>
        <time>2021-07-28T07:06:50Z</time>
      </trkpt>
      <trkpt lat="49.41072" lon="5.88557">
        <ele>391.3</ele>
        <time>2021-07-28T07:06:52Z</time>
      </trkpt>
      <trkpt lat="49.41068" lon="5.88554">
        <ele>391.3</ele>
        <time>2021-07-28T07:06:53Z</time>
      </trkpt>
      <trkpt lat="49.41067" lon="5.88553">
        <ele>391.3</ele>
        <time>2021-07-28T07:06:54Z</time>
      </trkpt>
      <trkpt lat="49.41063" lon="5.88549">
        <ele>391.3</ele>
        <time>2021-07-28T07:06:56Z</time>
      </trkpt>
      <trkpt lat="49.4106" lon="5.88545">
        <ele>391.2</ele>
        <time>2021-07-28T07:06:57Z</time>
      </trkpt>
      <trkpt lat="49.41057" lon="5.8854">
        <ele>391.2</ele>
        <time>2021-07-28T07:06:58Z</time>
      </trkpt>
      <trkpt lat="49.41055" lon="5.88537">
        <ele>391.2</ele>
        <time>2021-07-28T07:06:59Z</time>
      </trkpt>
      <trkpt lat="49.41053" lon="5.88534">
        <ele>391.1</ele>
        <time>2021-07-28T07:07:00Z</time>
      </trkpt>
      <trkpt lat="49.4105" lon="5.8853">
        <ele>391.1</ele>
        <time>2021-07-28T07:07:02Z</time>
      </trkpt>
      <trkpt lat="49.41047" lon="5.88525">
        <ele>391</ele>
        <time>2021-07-28T07:07:03Z</time>
      </trkpt>
      <trkpt lat="49.41044" lon="5.8852">
        <ele>390.9</ele>
        <time>2021-07-28T07:07:05Z</time>
      </trkpt>
      <trkpt lat="49.41041" lon="5.88516">
        <ele>390.8</ele>
        <time>2021-07-28T07:07:06Z</time>
      </trkpt>
      <trkpt lat="49.41037" lon="5.88514">
        <ele>390.7</ele>
        <time>2021-07-28T07:07:08Z</time>
      </trkpt>
      <trkpt lat="49.41034" lon="5.88513">
        <ele>390.7</ele>
        <time>2021-07-28T07:07:09Z</time>
      </trkpt>
      <trkpt lat="49.41028" lon="5.88509">
        <ele>390.6</ele>
        <time>2021-07-28T07:07:11Z</time>
      </trkpt>
      <trkpt lat="49.41024" lon="5.88508">
        <ele>390.5</ele>
        <time>2021-07-28T07:07:12Z</time>
      </trkpt>
      <trkpt lat="49.41018" lon="5.88506">
        <ele>390.4</ele>
        <time>2021-07-28T07:07:14Z</time>
      </trkpt>
      <trkpt lat="49.41013" lon="5.88505">
        <ele>390.2</ele>
        <time>2021-07-28T07:07:15Z</time>
      </trkpt>
      <trkpt lat="49.41008" lon="5.88502">
        <ele>390.1</ele>
        <time>2021-07-28T07:07:16Z</time>
      </trkpt>
      <trkpt lat="49.41002" lon="5.88498">
        <ele>390</ele>
        <time>2021-07-28T07:07:18Z</time>
      </trkpt>
      <trkpt lat="49.40999" lon="5.88496">
        <ele>389.9</ele>
        <time>2021-07-28T07:07:20Z</time>
      </trkpt>
      <trkpt lat="49.40995" lon="5.88494">
        <ele>389.8</ele>
        <time>2021-07-28T07:07:21Z</time>
      </trkpt>
      <trkpt lat="49.4099" lon="5.88493">
        <ele>389.7</ele>
        <time>2021-07-28T07:07:22Z</time>
      </trkpt>
      <trkpt lat="49.40984" lon="5.88492">
        <ele>389.5</ele>
        <time>2021-07-28T07:07:23Z</time>
      </trkpt>
      <trkpt lat="49.4098" lon="5.88489">
        <ele>389.4</ele>
        <time>2021-07-28T07:07:25Z</time>
      </trkpt>
      <trkpt lat="49.40976" lon="5.88486">
        <ele>389.2</ele>
        <time>2021-07-28T07:07:26Z</time>
      </trkpt>
      <trkpt lat="49.40971" lon="5.88481">
        <ele>389.1</ele>
        <time>2021-07-28T07:07:27Z</time>
      </trkpt>
      <trkpt lat="49.40968" lon="5.88479">
        <ele>389</ele>
        <time>2021-07-28T07:07:29Z</time>
      </trkpt>
      <trkpt lat="49.40965" lon="5.88476">
        <ele>388.8</ele>
        <time>2021-07-28T07:07:30Z</time>
      </trkpt>
      <trkpt lat="49.40961" lon="5.88474">
        <ele>388.7</ele>
        <time>2021-07-28T07:07:31Z</time>
      </trkpt>
      <trkpt lat="49.40957" lon="5.8847">
        <ele>388.6</ele>
        <time>2021-07-28T07:07:32Z</time>
      </trkpt>
      <trkpt lat="49.40953" lon="5.88466">
        <ele>388.5</ele>
        <time>2021-07-28T07:07:33Z</time>
      </trkpt>
      <trkpt lat="49.40949" lon="5.88462">
        <ele>388.3</ele>
        <time>2021-07-28T07:07:34Z</time>
      </trkpt>
      <trkpt lat="49.40945" lon="5.88459">
        <ele>388.2</ele>
        <time>2021-07-28T07:07:35Z</time>
      </trkpt>
      <trkpt lat="49.40941" lon="5.88456">
        <ele>388.1</ele>
        <time>2021-07-28T07:07:36Z</time>
      </trkpt>
      <trkpt lat="49.40936" lon="5.88452">
        <ele>387.9</ele>
        <time>2021-07-28T07:07:38Z</time>
      </trkpt>
      <trkpt lat="49.40934" lon="5.88449">
        <ele>387.8</ele>
        <time>2021-07-28T07:07:39Z</time>
      </trkpt>
      <trkpt lat="49.4093" lon="5.88447">
        <ele>387.7</ele>
        <time>2021-07-28T07:07:40Z</time>
      </trkpt>
      <trkpt lat="49.40928" lon="5.88446">
        <ele>387.7</ele>
        <time>2021-07-28T07:07:41Z</time>
      </trkpt>
      <trkpt lat="49.40924" lon="5.88442">
        <ele>387.6</ele>
        <time>2021-07-28T07:07:43Z</time>
      </trkpt>
      <trkpt lat="49.40921" lon="5.88438">
        <ele>387.5</ele>
        <time>2021-07-28T07:07:44Z</time>
      </trkpt>
      <trkpt lat="49.40918" lon="5.88434">
        <ele>387.4</ele>
        <time>2021-07-28T07:07:45Z</time>
      </trkpt>
      <trkpt lat="49.40915" lon="5.88431">
        <ele>387.3</ele>
        <time>2021-07-28T07:07:46Z</time>
      </trkpt>
      <trkpt lat="49.40911" lon="5.8843">
        <ele>387.3</ele>
        <time>2021-07-28T07:07:47Z</time>
      </trkpt>
      <trkpt lat="49.40907" lon="5.88429">
        <ele>387.2</ele>
        <time>2021-07-28T07:07:48Z</time>
      </trkpt>
      <trkpt lat="49.40902" lon="5.88427">
        <ele>387.1</ele>
        <time>2021-07-28T07:07:50Z</time>
      </trkpt>
      <trkpt lat="49.409" lon="5.88424">
        <ele>387</ele>
        <time>2021-07-28T07:07:51Z</time>
      </trkpt>
      <trkpt lat="49.40894" lon="5.8842">
        <ele>386.8</ele>
        <time>2021-07-28T07:07:52Z</time>
      </trkpt>
      <trkpt lat="49.40891" lon="5.88419">
        <ele>386.7</ele>
        <time>2021-07-28T07:07:53Z</time>
      </trkpt>
      <trkpt lat="49.40887" lon="5.88419">
        <ele>386.6</ele>
        <time>2021-07-28T07:07:55Z</time>
      </trkpt>
      <trkpt lat="49.40884" lon="5.88419">
        <ele>386.5</ele>
        <time>2021-07-28T07:07:56Z</time>
      </trkpt>
      <trkpt lat="49.40881" lon="5.88418">
        <ele>386.4</ele>
        <time>2021-07-28T07:07:57Z</time>
      </trkpt>
      <trkpt lat="49.4088" lon="5.88417">
        <ele>386.4</ele>
        <time>2021-07-28T07:07:58Z</time>
      </trkpt>
      <trkpt lat="49.40877" lon="5.88415">
        <ele>386.3</ele>
        <time>2021-07-28T07:07:59Z</time>
      </trkpt>
      <trkpt lat="49.40873" lon="5.88411">
        <ele>386.2</ele>
        <time>2021-07-28T07:08:01Z</time>
      </trkpt>
      <trkpt lat="49.4087" lon="5.88409">
        <ele>386.2</ele>
        <time>2021-07-28T07:08:02Z</time>
      </trkpt>
      <trkpt lat="49.40866" lon="5.88407">
        <ele>386.1</ele>
        <time>2021-07-28T07:08:03Z</time>
      </trkpt>
      <trkpt lat="49.40862" lon="5.88406">
        <ele>386</ele>
        <time>2021-07-28T07:08:04Z</time>
      </trkpt>
      <trkpt lat="49.40858" lon="5.88405">
        <ele>385.9</ele>
        <time>2021-07-28T07:08:05Z</time>
      </trkpt>
      <trkpt lat="49.40851" lon="5.88403">
        <ele>385.8</ele>
        <time>2021-07-28T07:08:07Z</time>
      </trkpt>
      <trkpt lat="49.40846" lon="5.88402">
        <ele>385.7</ele>
        <time>2021-07-28T07:08:08Z</time>
      </trkpt>
      <trkpt lat="49.40841" lon="5.88401">
        <ele>385.6</ele>
        <time>2021-07-28T07:08:09Z</time>
      </trkpt>
      <trkpt lat="49.40836" lon="5.884">
        <ele>385.5</ele>
        <time>2021-07-28T07:08:10Z</time>
      </trkpt>
      <trkpt lat="49.40832" lon="5.88399">
        <ele>385.4</ele>
        <time>2021-07-28T07:08:11Z</time>
      </trkpt>
      <trkpt lat="49.40828" lon="5.88396">
        <ele>385.3</ele>
        <time>2021-07-28T07:08:13Z</time>
      </trkpt>
      <trkpt lat="49.40824" lon="5.88391">
        <ele>385.2</ele>
        <time>2021-07-28T07:08:14Z</time>
      </trkpt>
      <trkpt lat="49.40821" lon="5.88387">
        <ele>385.1</ele>
        <time>2021-07-28T07:08:16Z</time>
      </trkpt>
      <trkpt lat="49.40819" lon="5.88386">
        <ele>385.1</ele>
        <time>2021-07-28T07:08:17Z</time>
      </trkpt>
      <trkpt lat="49.40818" lon="5.88384">
        <ele>385</ele>
        <time>2021-07-28T07:08:18Z</time>
      </trkpt>
      <trkpt lat="49.40818" lon="5.88381">
        <ele>385</ele>
        <time>2021-07-28T07:08:20Z</time>
      </trkpt>
      <trkpt lat="49.40818" lon="5.88379">
        <ele>385</ele>
        <time>2021-07-28T07:08:21Z</time>
      </trkpt>
      <trkpt lat="49.40817" lon="5.88374">
        <ele>384.9</ele>
        <time>2021-07-28T07:08:23Z</time>
      </trkpt>
      <trkpt lat="49.40816" lon="5.88372">
        <ele>384.9</ele>
        <time>2021-07-28T07:08:24Z</time>
      </trkpt>
      <trkpt lat="49.40814" lon="5.88367">
        <ele>384.8</ele>
        <time>2021-07-28T07:08:26Z</time>
      </trkpt>
      <trkpt lat="49.40814" lon="5.88365">
        <ele>384.8</ele>
        <time>2021-07-28T07:08:28Z</time>
      </trkpt>
      <trkpt lat="49.40813" lon="5.88365">
        <ele>384.8</ele>
        <time>2021-07-28T07:08:29Z</time>
      </trkpt>
      <trkpt lat="49.40806" lon="5.88366">
        <ele>384.7</ele>
        <time>2021-07-28T07:08:31Z</time>
      </trkpt>
      <trkpt lat="49.40803" lon="5.88366">
        <ele>384.6</ele>
        <time>2021-07-28T07:08:32Z</time>
      </trkpt>
      <trkpt lat="49.40801" lon="5.88366">
        <ele>384.6</ele>
        <time>2021-07-28T07:08:34Z</time>
      </trkpt>
      <trkpt lat="49.40798" lon="5.88366">
        <ele>384.6</ele>
        <time>2021-07-28T07:08:35Z</time>
      </trkpt>
      <trkpt lat="49.40797" lon="5.88366">
        <ele>384.5</ele>
        <time>2021-07-28T07:08:36Z</time>
      </trkpt>
      <trkpt lat="49.40772" lon="5.88345">
        <ele>384.2</ele>
        <time>2021-07-28T07:08:44Z</time>
      </trkpt>
      <trkpt lat="49.40767" lon="5.88336">
        <ele>384.2</ele>
        <time>2021-07-28T07:08:45Z</time>
      </trkpt>
      <trkpt lat="49.40762" lon="5.88316">
        <ele>384</ele>
        <time>2021-07-28T07:08:47Z</time>
      </trkpt>
      <trkpt lat="49.40759" lon="5.88306">
        <ele>383.9</ele>
        <time>2021-07-28T07:08:48Z</time>
      </trkpt>
      <trkpt lat="49.40756" lon="5.88291">
        <ele>383.8</ele>
        <time>2021-07-28T07:08:50Z</time>
      </trkpt>
      <trkpt lat="49.40754" lon="5.88282">
        <ele>383.7</ele>
        <time>2021-07-28T07:08:51Z</time>
      </trkpt>
      <trkpt lat="49.40751" lon="5.88276">
        <ele>383.7</ele>
        <time>2021-07-28T07:08:52Z</time>
      </trkpt>
      <trkpt lat="49.40748" lon="5.88266">
        <ele>383.7</ele>
        <time>2021-07-28T07:08:54Z</time>
      </trkpt>
      <trkpt lat="49.40746" lon="5.88264">
        <ele>383.6</ele>
        <time>2021-07-28T07:08:55Z</time>
      </trkpt>
      <trkpt lat="49.40742" lon="5.88262">
        <ele>383.6</ele>
        <time>2021-07-28T07:08:56Z</time>
      </trkpt>
      <trkpt lat="49.40741" lon="5.88261">
        <ele>383.6</ele>
        <time>2021-07-28T07:08:57Z</time>
      </trkpt>
      <trkpt lat="49.40732" lon="5.88258">
        <ele>383.6</ele>
        <time>2021-07-28T07:08:59Z</time>
      </trkpt>
      <trkpt lat="49.40726" lon="5.88254">
        <ele>383.6</ele>
        <time>2021-07-28T07:09:00Z</time>
      </trkpt>
      <trkpt lat="49.407" lon="5.88233">
        <ele>383.6</ele>
        <time>2021-07-28T07:09:01Z</time>
      </trkpt>
      <trkpt lat="49.40694" lon="5.8823">
        <ele>383.6</ele>
        <time>2021-07-28T07:09:03Z</time>
      </trkpt>
      <trkpt lat="49.40676" lon="5.88215">
        <ele>383.5</ele>
        <time>2021-07-28T07:09:04Z</time>
      </trkpt>
      <trkpt lat="49.40658" lon="5.882">
        <ele>383.4</ele>
        <time>2021-07-28T07:09:06Z</time>
      </trkpt>
      <trkpt lat="49.4065" lon="5.8819">
        <ele>383.3</ele>
        <time>2021-07-28T07:09:07Z</time>
      </trkpt>
      <trkpt lat="49.40634" lon="5.88173">
        <ele>383.3</ele>
        <time>2021-07-28T07:09:09Z</time>
      </trkpt>
      <trkpt lat="49.40623" lon="5.88166">
        <ele>383.3</ele>
        <time>2021-07-28T07:09:11Z</time>
      </trkpt>
      <trkpt lat="49.40627" lon="5.88165">
        <ele>383.3</ele>
        <time>2021-07-28T07:09:13Z</time>
      </trkpt>
      <trkpt lat="49.40635" lon="5.88162">
        <ele>383.3</ele>
        <time>2021-07-28T07:09:15Z</time>
      </trkpt>
      <trkpt lat="49.40637" lon="5.88158">
        <ele>383.3</ele>
        <time>2021-07-28T07:09:17Z</time>
      </trkpt>
      <trkpt lat="49.40637" lon="5.88157">
        <ele>383.3</ele>
        <time>2021-07-28T07:09:18Z</time>
      </trkpt>
      <trkpt lat="49.40637" lon="5.88156">
        <ele>383.3</ele>
        <time>2021-07-28T07:09:19Z</time>
      </trkpt>
      <trkpt lat="49.40644" lon="5.88147">
        <ele>383.3</ele>
        <time>2021-07-28T07:09:21Z</time>
      </trkpt>
      <trkpt lat="49.40652" lon="5.88136">
        <ele>383.3</ele>
        <time>2021-07-28T07:09:22Z</time>
      </trkpt>
      <trkpt lat="49.40655" lon="5.88131">
        <ele>383.3</ele>
        <time>2021-07-28T07:09:24Z</time>
      </trkpt>
      <trkpt lat="49.40656" lon="5.88126">
        <ele>383.3</ele>
        <time>2021-07-28T07:09:25Z</time>
      </trkpt>
      <trkpt lat="49.40656" lon="5.88126">
        <ele>383.3</ele>
        <time>2021-07-28T07:09:26Z</time>
      </trkpt>
      <trkpt lat="49.40653" lon="5.88119">
        <ele>383.4</ele>
        <time>2021-07-28T07:09:28Z</time>
      </trkpt>
      <trkpt lat="49.40653" lon="5.88117">
        <ele>383.4</ele>
        <time>2021-07-28T07:09:29Z</time>
      </trkpt>
      <trkpt lat="49.40651" lon="5.88109">
        <ele>383.4</ele>
        <time>2021-07-28T07:09:31Z</time>
      </trkpt>
      <trkpt lat="49.40651" lon="5.88104">
        <ele>383.4</ele>
        <time>2021-07-28T07:09:32Z</time>
      </trkpt>
      <trkpt lat="49.4065" lon="5.88098">
        <ele>383.4</ele>
        <time>2021-07-28T07:09:34Z</time>
      </trkpt>
      <trkpt lat="49.40646" lon="5.88091">
        <ele>383.4</ele>
        <time>2021-07-28T07:09:35Z</time>
      </trkpt>
      <trkpt lat="49.40644" lon="5.88085">
        <ele>383.4</ele>
        <time>2021-07-28T07:09:36Z</time>
      </trkpt>
      <trkpt lat="49.4064" lon="5.88075">
        <ele>383.4</ele>
        <time>2021-07-28T07:09:38Z</time>
      </trkpt>
      <trkpt lat="49.40637" lon="5.88065">
        <ele>383.4</ele>
        <time>2021-07-28T07:09:40Z</time>
      </trkpt>
      <trkpt lat="49.40635" lon="5.88059">
        <ele>383.4</ele>
        <time>2021-07-28T07:09:41Z</time>
      </trkpt>
      <trkpt lat="49.4063" lon="5.88047">
        <ele>383.4</ele>
        <time>2021-07-28T07:09:43Z</time>
      </trkpt>
      <trkpt lat="49.40627" lon="5.88039">
        <ele>383.4</ele>
        <time>2021-07-28T07:09:44Z</time>
      </trkpt>
      <trkpt lat="49.40622" lon="5.8803">
        <ele>383.3</ele>
        <time>2021-07-28T07:09:46Z</time>
      </trkpt>
      <trkpt lat="49.40616" lon="5.88024">
        <ele>383.3</ele>
        <time>2021-07-28T07:09:47Z</time>
      </trkpt>
      <trkpt lat="49.40612" lon="5.88018">
        <ele>383.3</ele>
        <time>2021-07-28T07:09:48Z</time>
      </trkpt>
      <trkpt lat="49.40606" lon="5.88012">
        <ele>383.2</ele>
        <time>2021-07-28T07:09:50Z</time>
      </trkpt>
      <trkpt lat="49.40602" lon="5.8801">
        <ele>383.2</ele>
        <time>2021-07-28T07:09:51Z</time>
      </trkpt>
      <trkpt lat="49.40598" lon="5.88009">
        <ele>383.2</ele>
        <time>2021-07-28T07:09:53Z</time>
      </trkpt>
      <trkpt lat="49.40595" lon="5.88008">
        <ele>383.1</ele>
        <time>2021-07-28T07:09:54Z</time>
      </trkpt>
      <trkpt lat="49.40588" lon="5.88005">
        <ele>383.1</ele>
        <time>2021-07-28T07:09:56Z</time>
      </trkpt>
      <trkpt lat="49.40584" lon="5.88002">
        <ele>383</ele>
        <time>2021-07-28T07:09:57Z</time>
      </trkpt>
      <trkpt lat="49.40577" lon="5.87996">
        <ele>383</ele>
        <time>2021-07-28T07:09:59Z</time>
      </trkpt>
      <trkpt lat="49.40572" lon="5.87992">
        <ele>382.9</ele>
        <time>2021-07-28T07:10:00Z</time>
      </trkpt>
      <trkpt lat="49.40564" lon="5.87986">
        <ele>382.9</ele>
        <time>2021-07-28T07:10:02Z</time>
      </trkpt>
      <trkpt lat="49.40556" lon="5.87979">
        <ele>382.8</ele>
        <time>2021-07-28T07:10:04Z</time>
      </trkpt>
      <trkpt lat="49.4055" lon="5.87971">
        <ele>382.7</ele>
        <time>2021-07-28T07:10:06Z</time>
      </trkpt>
      <trkpt lat="49.40548" lon="5.87967">
        <ele>382.7</ele>
        <time>2021-07-28T07:10:08Z</time>
      </trkpt>
      <trkpt lat="49.40547" lon="5.87966">
        <ele>382.7</ele>
        <time>2021-07-28T07:10:09Z</time>
      </trkpt>
      <trkpt lat="49.40544" lon="5.87961">
        <ele>382.6</ele>
        <time>2021-07-28T07:10:10Z</time>
      </trkpt>
      <trkpt lat="49.40541" lon="5.87958">
        <ele>382.6</ele>
        <time>2021-07-28T07:10:11Z</time>
      </trkpt>
      <trkpt lat="49.40538" lon="5.87955">
        <ele>382.6</ele>
        <time>2021-07-28T07:10:13Z</time>
      </trkpt>
      <trkpt lat="49.40536" lon="5.87954">
        <ele>382.6</ele>
        <time>2021-07-28T07:10:14Z</time>
      </trkpt>
      <trkpt lat="49.40535" lon="5.87954">
        <ele>382.5</ele>
        <time>2021-07-28T07:10:15Z</time>
      </trkpt>
      <trkpt lat="49.40532" lon="5.87953">
        <ele>382.5</ele>
        <time>2021-07-28T07:10:17Z</time>
      </trkpt>
      <trkpt lat="49.40503" lon="5.88011">
        <ele>381.9</ele>
        <time>2021-07-28T07:10:31Z</time>
      </trkpt>
      <trkpt lat="49.40497" lon="5.88021">
        <ele>381.7</ele>
        <time>2021-07-28T07:10:32Z</time>
      </trkpt>
      <trkpt lat="49.40491" lon="5.88029">
        <ele>381.5</ele>
        <time>2021-07-28T07:10:34Z</time>
      </trkpt>
      <trkpt lat="49.40482" lon="5.88041">
        <ele>381.3</ele>
        <time>2021-07-28T07:10:36Z</time>
      </trkpt>
      <trkpt lat="49.40479" lon="5.88044">
        <ele>381.2</ele>
        <time>2021-07-28T07:10:37Z</time>
      </trkpt>
      <trkpt lat="49.40477" lon="5.88054">
        <ele>381.1</ele>
        <time>2021-07-28T07:10:39Z</time>
      </trkpt>
      <trkpt lat="49.40477" lon="5.88059">
        <ele>381.1</ele>
        <time>2021-07-28T07:10:40Z</time>
      </trkpt>
      <trkpt lat="49.40477" lon="5.88064">
        <ele>381</ele>
        <time>2021-07-28T07:10:41Z</time>
      </trkpt>
      <trkpt lat="49.40477" lon="5.8807">
        <ele>380.9</ele>
        <time>2021-07-28T07:10:42Z</time>
      </trkpt>
      <trkpt lat="49.40474" lon="5.88081">
        <ele>380.8</ele>
        <time>2021-07-28T07:10:44Z</time>
      </trkpt>
      <trkpt lat="49.40469" lon="5.88085">
        <ele>380.7</ele>
        <time>2021-07-28T07:10:46Z</time>
      </trkpt>
      <trkpt lat="49.40467" lon="5.88088">
        <ele>380.6</ele>
        <time>2021-07-28T07:10:47Z</time>
      </trkpt>
      <trkpt lat="49.40462" lon="5.88095">
        <ele>380.4</ele>
        <time>2021-07-28T07:10:49Z</time>
      </trkpt>
      <trkpt lat="49.4046" lon="5.88101">
        <ele>380.3</ele>
        <time>2021-07-28T07:10:50Z</time>
      </trkpt>
      <trkpt lat="49.40459" lon="5.88117">
        <ele>380</ele>
        <time>2021-07-28T07:10:52Z</time>
      </trkpt>
      <trkpt lat="49.40458" lon="5.8813">
        <ele>379.7</ele>
        <time>2021-07-28T07:10:53Z</time>
      </trkpt>
      <trkpt lat="49.40454" lon="5.88161">
        <ele>378.9</ele>
        <time>2021-07-28T07:10:55Z</time>
      </trkpt>
      <trkpt lat="49.40451" lon="5.88173">
        <ele>378.6</ele>
        <time>2021-07-28T07:10:56Z</time>
      </trkpt>
      <trkpt lat="49.40449" lon="5.88189">
        <ele>378.3</ele>
        <time>2021-07-28T07:10:58Z</time>
      </trkpt>
      <trkpt lat="49.40447" lon="5.88191">
        <ele>378.2</ele>
        <time>2021-07-28T07:11:00Z</time>
      </trkpt>
      <trkpt lat="49.40443" lon="5.88195">
        <ele>378.1</ele>
        <time>2021-07-28T07:11:02Z</time>
      </trkpt>
      <trkpt lat="49.40438" lon="5.88202">
        <ele>377.8</ele>
        <time>2021-07-28T07:11:04Z</time>
      </trkpt>
      <trkpt lat="49.40432" lon="5.88206">
        <ele>377.6</ele>
        <time>2021-07-28T07:11:05Z</time>
      </trkpt>
      <trkpt lat="49.40422" lon="5.88214">
        <ele>377.3</ele>
        <time>2021-07-28T07:11:07Z</time>
      </trkpt>
      <trkpt lat="49.40413" lon="5.88225">
        <ele>376.9</ele>
        <time>2021-07-28T07:11:09Z</time>
      </trkpt>
      <trkpt lat="49.40379" lon="5.88326">
        <ele>374.4</ele>
        <time>2021-07-28T07:11:17Z</time>
      </trkpt>
      <trkpt lat="49.40381" lon="5.88317">
        <ele>374.2</ele>
        <time>2021-07-28T07:11:18Z</time>
      </trkpt>
      <trkpt lat="49.40383" lon="5.88303">
        <ele>374.6</ele>
        <time>2021-07-28T07:11:20Z</time>
      </trkpt>
      <trkpt lat="49.40382" lon="5.88302">
        <ele>374.6</ele>
        <time>2021-07-28T07:11:21Z</time>
      </trkpt>
      <trkpt lat="49.4038" lon="5.88302">
        <ele>374.7</ele>
        <time>2021-07-28T07:11:22Z</time>
      </trkpt>
      <trkpt lat="49.40383" lon="5.88294">
        <ele>374.9</ele>
        <time>2021-07-28T07:11:23Z</time>
      </trkpt>
      <trkpt lat="49.40388" lon="5.88277">
        <ele>375.3</ele>
        <time>2021-07-28T07:11:25Z</time>
      </trkpt>
      <trkpt lat="49.40392" lon="5.88266">
        <ele>375.6</ele>
        <time>2021-07-28T07:11:26Z</time>
      </trkpt>
      <trkpt lat="49.40395" lon="5.88253">
        <ele>375.9</ele>
        <time>2021-07-28T07:11:27Z</time>
      </trkpt>
      <trkpt lat="49.40395" lon="5.88245">
        <ele>376.1</ele>
        <time>2021-07-28T07:11:28Z</time>
      </trkpt>
      <trkpt lat="49.40394" lon="5.88238">
        <ele>376.3</ele>
        <time>2021-07-28T07:11:30Z</time>
      </trkpt>
      <trkpt lat="49.40391" lon="5.88234">
        <ele>376.1</ele>
        <time>2021-07-28T07:11:31Z</time>
      </trkpt>
      <trkpt lat="49.40388" lon="5.88233">
        <ele>375.9</ele>
        <time>2021-07-28T07:11:32Z</time>
      </trkpt>
      <trkpt lat="49.40382" lon="5.8823">
        <ele>374.7</ele>
        <time>2021-07-28T07:11:33Z</time>
      </trkpt>
      <trkpt lat="49.40378" lon="5.88231">
        <ele>374.4</ele>
        <time>2021-07-28T07:11:34Z</time>
      </trkpt>
      <trkpt lat="49.40374" lon="5.88231">
        <ele>373.7</ele>
        <time>2021-07-28T07:11:36Z</time>
      </trkpt>
      <trkpt lat="49.40372" lon="5.88232">
        <ele>373.8</ele>
        <time>2021-07-28T07:11:37Z</time>
      </trkpt>
      <trkpt lat="49.40361" lon="5.88232">
        <ele>371.9</ele>
        <time>2021-07-28T07:11:38Z</time>
      </trkpt>
      <trkpt lat="49.4035" lon="5.88233">
        <ele>369.7</ele>
        <time>2021-07-28T07:11:40Z</time>
      </trkpt>
      <trkpt lat="49.40345" lon="5.88233">
        <ele>368.7</ele>
        <time>2021-07-28T07:11:41Z</time>
      </trkpt>
      <trkpt lat="49.40341" lon="5.88233">
        <ele>368.2</ele>
        <time>2021-07-28T07:11:43Z</time>
      </trkpt>
      <trkpt lat="49.40334" lon="5.8823">
        <ele>366.1</ele>
        <time>2021-07-28T07:11:44Z</time>
      </trkpt>
      <trkpt lat="49.40328" lon="5.88227">
        <ele>364.6</ele>
        <time>2021-07-28T07:11:53Z</time>
      </trkpt>
      <trkpt lat="49.40322" lon="5.88225">
        <ele>363.3</ele>
        <time>2021-07-28T07:11:54Z</time>
      </trkpt>
      <trkpt lat="49.40319" lon="5.88227">
        <ele>362.7</ele>
        <time>2021-07-28T07:11:55Z</time>
      </trkpt>
      <trkpt lat="49.40316" lon="5.88234">
        <ele>362.6</ele>
        <time>2021-07-28T07:11:57Z</time>
      </trkpt>
      <trkpt lat="49.40313" lon="5.8824">
        <ele>362.3</ele>
        <time>2021-07-28T07:11:58Z</time>
      </trkpt>
      <trkpt lat="49.40311" lon="5.88245">
        <ele>361.9</ele>
        <time>2021-07-28T07:11:59Z</time>
      </trkpt>
      <trkpt lat="49.40309" lon="5.88249">
        <ele>361.5</ele>
        <time>2021-07-28T07:12:00Z</time>
      </trkpt>
      <trkpt lat="49.40308" lon="5.88255">
        <ele>362.1</ele>
        <time>2021-07-28T07:12:02Z</time>
      </trkpt>
      <trkpt lat="49.40307" lon="5.88257">
        <ele>362.2</ele>
        <time>2021-07-28T07:12:03Z</time>
      </trkpt>
      <trkpt lat="49.40307" lon="5.88259">
        <ele>361.7</ele>
        <time>2021-07-28T07:12:04Z</time>
      </trkpt>
      <trkpt lat="49.40273" lon="5.88358">
        <ele>351</ele>
        <time>2021-07-28T07:12:12Z</time>
      </trkpt>
      <trkpt lat="49.40266" lon="5.88386">
        <ele>348.8</ele>
        <time>2021-07-28T07:12:14Z</time>
      </trkpt>
      <trkpt lat="49.40264" lon="5.88399">
        <ele>347.9</ele>
        <time>2021-07-28T07:12:15Z</time>
      </trkpt>
      <trkpt lat="49.4026" lon="5.88422">
        <ele>346.2</ele>
        <time>2021-07-28T07:12:17Z</time>
      </trkpt>
      <trkpt lat="49.40257" lon="5.88432">
        <ele>345.8</ele>
        <time>2021-07-28T07:12:18Z</time>
      </trkpt>
      <trkpt lat="49.40254" lon="5.8845">
        <ele>343.6</ele>
        <time>2021-07-28T07:12:20Z</time>
      </trkpt>
      <trkpt lat="49.40253" lon="5.88456">
        <ele>343.3</ele>
        <time>2021-07-28T07:12:22Z</time>
      </trkpt>
      <trkpt lat="49.4025" lon="5.88463">
        <ele>342.6</ele>
        <time>2021-07-28T07:12:24Z</time>
      </trkpt>
      <trkpt lat="49.40248" lon="5.8847">
        <ele>341.8</ele>
        <time>2021-07-28T07:12:25Z</time>
      </trkpt>
      <trkpt lat="49.40248" lon="5.88481">
        <ele>341.6</ele>
        <time>2021-07-28T07:12:26Z</time>
      </trkpt>
      <trkpt lat="49.40246" lon="5.8849">
        <ele>341.1</ele>
        <time>2021-07-28T07:12:28Z</time>
      </trkpt>
      <trkpt lat="49.40246" lon="5.88495">
        <ele>340.9</ele>
        <time>2021-07-28T07:12:29Z</time>
      </trkpt>
      <trkpt lat="49.40244" lon="5.88502">
        <ele>340.1</ele>
        <time>2021-07-28T07:12:31Z</time>
      </trkpt>
      <trkpt lat="49.40241" lon="5.88506">
        <ele>339.3</ele>
        <time>2021-07-28T07:12:32Z</time>
      </trkpt>
      <trkpt lat="49.40238" lon="5.88513">
        <ele>338.2</ele>
        <time>2021-07-28T07:12:33Z</time>
      </trkpt>
      <trkpt lat="49.40237" lon="5.88519">
        <ele>337.5</ele>
        <time>2021-07-28T07:12:34Z</time>
      </trkpt>
      <trkpt lat="49.40236" lon="5.88526">
        <ele>337.2</ele>
        <time>2021-07-28T07:12:36Z</time>
      </trkpt>
      <trkpt lat="49.40236" lon="5.88533">
        <ele>336.9</ele>
        <time>2021-07-28T07:12:37Z</time>
      </trkpt>
      <trkpt lat="49.40233" lon="5.88539">
        <ele>336.5</ele>
        <time>2021-07-28T07:12:39Z</time>
      </trkpt>
      <trkpt lat="49.4023" lon="5.88541">
        <ele>336</ele>
        <time>2021-07-28T07:12:40Z</time>
      </trkpt>
      <trkpt lat="49.40226" lon="5.88543">
        <ele>335.2</ele>
        <time>2021-07-28T07:12:41Z</time>
      </trkpt>
      <trkpt lat="49.40223" lon="5.88546">
        <ele>334.7</ele>
        <time>2021-07-28T07:12:42Z</time>
      </trkpt>
      <trkpt lat="49.40221" lon="5.88545">
        <ele>334.9</ele>
        <time>2021-07-28T07:12:43Z</time>
      </trkpt>
      <trkpt lat="49.40217" lon="5.88548">
        <ele>334.1</ele>
        <time>2021-07-28T07:12:45Z</time>
      </trkpt>
      <trkpt lat="49.40209" lon="5.88538">
        <ele>332.9</ele>
        <time>2021-07-28T07:12:47Z</time>
      </trkpt>
      <trkpt lat="49.40208" lon="5.88536">
        <ele>333</ele>
        <time>2021-07-28T07:12:49Z</time>
      </trkpt>
      <trkpt lat="49.40208" lon="5.88535">
        <ele>333.1</ele>
        <time>2021-07-28T07:12:50Z</time>
      </trkpt>
      <trkpt lat="49.40208" lon="5.88535">
        <ele>333.2</ele>
        <time>2021-07-28T07:12:51Z</time>
      </trkpt>
      <trkpt lat="49.40207" lon="5.88533">
        <ele>333.3</ele>
        <time>2021-07-28T07:12:53Z</time>
      </trkpt>
      <trkpt lat="49.40189" lon="5.88533">
        <ele>330.2</ele>
        <time>2021-07-28T07:13:46Z</time>
      </trkpt>
      <trkpt lat="49.40191" lon="5.88547">
        <ele>329.9</ele>
        <time>2021-07-28T07:13:48Z</time>
      </trkpt>
      <trkpt lat="49.40193" lon="5.88559">
        <ele>329</ele>
        <time>2021-07-28T07:13:49Z</time>
      </trkpt>
      <trkpt lat="49.40194" lon="5.88569">
        <ele>328.2</ele>
        <time>2021-07-28T07:13:50Z</time>
      </trkpt>
      <trkpt lat="49.40197" lon="5.88582">
        <ele>327.1</ele>
        <time>2021-07-28T07:13:51Z</time>
      </trkpt>
      <trkpt lat="49.40199" lon="5.88591">
        <ele>326.4</ele>
        <time>2021-07-28T07:13:53Z</time>
      </trkpt>
      <trkpt lat="49.40202" lon="5.886">
        <ele>325.6</ele>
        <time>2021-07-28T07:13:54Z</time>
      </trkpt>
      <trkpt lat="49.40204" lon="5.88609">
        <ele>324.9</ele>
        <time>2021-07-28T07:13:56Z</time>
      </trkpt>
      <trkpt lat="49.40207" lon="5.88615">
        <ele>324.4</ele>
        <time>2021-07-28T07:13:57Z</time>
      </trkpt>
      <trkpt lat="49.40211" lon="5.88622">
        <ele>324.1</ele>
        <time>2021-07-28T07:13:58Z</time>
      </trkpt>
      <trkpt lat="49.40214" lon="5.88629">
        <ele>323.9</ele>
        <time>2021-07-28T07:14:00Z</time>
      </trkpt>
      <trkpt lat="49.40217" lon="5.88634">
        <ele>323.8</ele>
        <time>2021-07-28T07:14:01Z</time>
      </trkpt>
      <trkpt lat="49.40219" lon="5.8864">
        <ele>323.6</ele>
        <time>2021-07-28T07:14:02Z</time>
      </trkpt>
      <trkpt lat="49.40221" lon="5.88646">
        <ele>323.5</ele>
        <time>2021-07-28T07:14:03Z</time>
      </trkpt>
      <trkpt lat="49.40224" lon="5.88653">
        <ele>323.3</ele>
        <time>2021-07-28T07:14:05Z</time>
      </trkpt>
      <trkpt lat="49.40224" lon="5.88667">
        <ele>322.9</ele>
        <time>2021-07-28T07:14:06Z</time>
      </trkpt>
      <trkpt lat="49.40223" lon="5.88671">
        <ele>322.8</ele>
        <time>2021-07-28T07:14:07Z</time>
      </trkpt>
      <trkpt lat="49.40222" lon="5.88677">
        <ele>322.7</ele>
        <time>2021-07-28T07:14:08Z</time>
      </trkpt>
      <trkpt lat="49.40227" lon="5.88688">
        <ele>322.3</ele>
        <time>2021-07-28T07:14:10Z</time>
      </trkpt>
      <trkpt lat="49.40233" lon="5.88698">
        <ele>322.2</ele>
        <time>2021-07-28T07:14:12Z</time>
      </trkpt>
      <trkpt lat="49.40239" lon="5.88706">
        <ele>322</ele>
        <time>2021-07-28T07:14:13Z</time>
      </trkpt>
      <trkpt lat="49.4024" lon="5.88715">
        <ele>322</ele>
        <time>2021-07-28T07:14:14Z</time>
      </trkpt>
      <trkpt lat="49.40244" lon="5.88728">
        <ele>321.9</ele>
        <time>2021-07-28T07:14:16Z</time>
      </trkpt>
      <trkpt lat="49.40244" lon="5.88736">
        <ele>321.9</ele>
        <time>2021-07-28T07:14:18Z</time>
      </trkpt>
      <trkpt lat="49.40245" lon="5.88743">
        <ele>321.9</ele>
        <time>2021-07-28T07:14:19Z</time>
      </trkpt>
      <trkpt lat="49.40246" lon="5.8875">
        <ele>321.9</ele>
        <time>2021-07-28T07:14:20Z</time>
      </trkpt>
      <trkpt lat="49.40245" lon="5.88761">
        <ele>322</ele>
        <time>2021-07-28T07:14:21Z</time>
      </trkpt>
      <trkpt lat="49.40245" lon="5.88777">
        <ele>322.3</ele>
        <time>2021-07-28T07:14:23Z</time>
      </trkpt>
      <trkpt lat="49.40253" lon="5.88794">
        <ele>322.6</ele>
        <time>2021-07-28T07:14:25Z</time>
      </trkpt>
      <trkpt lat="49.40256" lon="5.88801">
        <ele>322.8</ele>
        <time>2021-07-28T07:14:26Z</time>
      </trkpt>
      <trkpt lat="49.40263" lon="5.88816">
        <ele>323.1</ele>
        <time>2021-07-28T07:14:28Z</time>
      </trkpt>
      <trkpt lat="49.40267" lon="5.88824">
        <ele>323.2</ele>
        <time>2021-07-28T07:14:29Z</time>
      </trkpt>
      <trkpt lat="49.4027" lon="5.88831">
        <ele>323.3</ele>
        <time>2021-07-28T07:14:30Z</time>
      </trkpt>
      <trkpt lat="49.4027" lon="5.88835">
        <ele>323.3</ele>
        <time>2021-07-28T07:14:31Z</time>
      </trkpt>
      <trkpt lat="49.4027" lon="5.88837">
        <ele>323.4</ele>
        <time>2021-07-28T07:14:32Z</time>
      </trkpt>
      <trkpt lat="49.40271" lon="5.88844">
        <ele>323.4</ele>
        <time>2021-07-28T07:14:33Z</time>
      </trkpt>
      <trkpt lat="49.40273" lon="5.88851">
        <ele>323.5</ele>
        <time>2021-07-28T07:14:35Z</time>
      </trkpt>
      <trkpt lat="49.40275" lon="5.88855">
        <ele>323.5</ele>
        <time>2021-07-28T07:14:36Z</time>
      </trkpt>
      <trkpt lat="49.40276" lon="5.88861">
        <ele>323.5</ele>
        <time>2021-07-28T07:14:37Z</time>
      </trkpt>
      <trkpt lat="49.40277" lon="5.88866">
        <ele>323.6</ele>
        <time>2021-07-28T07:14:39Z</time>
      </trkpt>
      <trkpt lat="49.40278" lon="5.8887">
        <ele>323.6</ele>
        <time>2021-07-28T07:14:40Z</time>
      </trkpt>
      <trkpt lat="49.4027" lon="5.8891">
        <ele>324</ele>
        <time>2021-07-28T07:14:50Z</time>
      </trkpt>
      <trkpt lat="49.40272" lon="5.88921">
        <ele>324.1</ele>
        <time>2021-07-28T07:14:51Z</time>
      </trkpt>
      <trkpt lat="49.40273" lon="5.88929">
        <ele>324.2</ele>
        <time>2021-07-28T07:14:53Z</time>
      </trkpt>
      <trkpt lat="49.40278" lon="5.88942">
        <ele>324.4</ele>
        <time>2021-07-28T07:14:54Z</time>
      </trkpt>
      <trkpt lat="49.40276" lon="5.88946">
        <ele>324.5</ele>
        <time>2021-07-28T07:14:56Z</time>
      </trkpt>
      <trkpt lat="49.40274" lon="5.88953">
        <ele>324.6</ele>
        <time>2021-07-28T07:14:57Z</time>
      </trkpt>
      <trkpt lat="49.40273" lon="5.88957">
        <ele>324.6</ele>
        <time>2021-07-28T07:14:58Z</time>
      </trkpt>
      <trkpt lat="49.40273" lon="5.88961">
        <ele>324.7</ele>
        <time>2021-07-28T07:15:00Z</time>
      </trkpt>
      <trkpt lat="49.40273" lon="5.88963">
        <ele>324.7</ele>
        <time>2021-07-28T07:15:01Z</time>
      </trkpt>
      <trkpt lat="49.40274" lon="5.88968">
        <ele>324.8</ele>
        <time>2021-07-28T07:15:03Z</time>
      </trkpt>
      <trkpt lat="49.40275" lon="5.88971">
        <ele>324.8</ele>
        <time>2021-07-28T07:15:04Z</time>
      </trkpt>
      <trkpt lat="49.40298" lon="5.88992">
        <ele>325.8</ele>
        <time>2021-07-28T07:15:10Z</time>
      </trkpt>
      <trkpt lat="49.40302" lon="5.88995">
        <ele>326</ele>
        <time>2021-07-28T07:15:12Z</time>
      </trkpt>
      <trkpt lat="49.40304" lon="5.88998">
        <ele>326.1</ele>
        <time>2021-07-28T07:15:13Z</time>
      </trkpt>
      <trkpt lat="49.40305" lon="5.89">
        <ele>326.2</ele>
        <time>2021-07-28T07:15:14Z</time>
      </trkpt>
      <trkpt lat="49.40307" lon="5.89005">
        <ele>326.4</ele>
        <time>2021-07-28T07:15:15Z</time>
      </trkpt>
      <trkpt lat="49.40307" lon="5.8901">
        <ele>326.6</ele>
        <time>2021-07-28T07:15:17Z</time>
      </trkpt>
      <trkpt lat="49.40308" lon="5.89016">
        <ele>326.6</ele>
        <time>2021-07-28T07:15:18Z</time>
      </trkpt>
      <trkpt lat="49.4031" lon="5.89022">
        <ele>326.6</ele>
        <time>2021-07-28T07:15:19Z</time>
      </trkpt>
      <trkpt lat="49.40311" lon="5.89026">
        <ele>326.6</ele>
        <time>2021-07-28T07:15:21Z</time>
      </trkpt>
      <trkpt lat="49.40312" lon="5.89029">
        <ele>326.6</ele>
        <time>2021-07-28T07:15:22Z</time>
      </trkpt>
      <trkpt lat="49.40314" lon="5.89034">
        <ele>326.5</ele>
        <time>2021-07-28T07:15:24Z</time>
      </trkpt>
      <trkpt lat="49.40316" lon="5.89038">
        <ele>326.5</ele>
        <time>2021-07-28T07:15:26Z</time>
      </trkpt>
      <trkpt lat="49.40317" lon="5.89044">
        <ele>326.4</ele>
        <time>2021-07-28T07:15:28Z</time>
      </trkpt>
      <trkpt lat="49.40317" lon="5.89048">
        <ele>326.3</ele>
        <time>2021-07-28T07:15:29Z</time>
      </trkpt>
      <trkpt lat="49.40315" lon="5.89054">
        <ele>326</ele>
        <time>2021-07-28T07:15:30Z</time>
      </trkpt>
      <trkpt lat="49.40314" lon="5.89057">
        <ele>325.9</ele>
        <time>2021-07-28T07:15:31Z</time>
      </trkpt>
      <trkpt lat="49.40307" lon="5.89062">
        <ele>325.8</ele>
        <time>2021-07-28T07:15:33Z</time>
      </trkpt>
      <trkpt lat="49.40297" lon="5.89069">
        <ele>325.6</ele>
        <time>2021-07-28T07:15:34Z</time>
      </trkpt>
      <trkpt lat="49.40293" lon="5.89072">
        <ele>325.6</ele>
        <time>2021-07-28T07:15:36Z</time>
      </trkpt>
      <trkpt lat="49.4029" lon="5.89074">
        <ele>325.5</ele>
        <time>2021-07-28T07:15:37Z</time>
      </trkpt>
      <trkpt lat="49.40288" lon="5.89075">
        <ele>325.5</ele>
        <time>2021-07-28T07:15:39Z</time>
      </trkpt>
      <trkpt lat="49.40287" lon="5.89076">
        <ele>325.5</ele>
        <time>2021-07-28T07:15:40Z</time>
      </trkpt>
      <trkpt lat="49.4028" lon="5.89076">
        <ele>325.5</ele>
        <time>2021-07-28T07:15:42Z</time>
      </trkpt>
      <trkpt lat="49.40273" lon="5.89075">
        <ele>325.6</ele>
        <time>2021-07-28T07:15:43Z</time>
      </trkpt>
      <trkpt lat="49.40267" lon="5.89073">
        <ele>325.6</ele>
        <time>2021-07-28T07:15:44Z</time>
      </trkpt>
      <trkpt lat="49.40252" lon="5.89071">
        <ele>325.8</ele>
        <time>2021-07-28T07:15:46Z</time>
      </trkpt>
      <trkpt lat="49.40244" lon="5.8907">
        <ele>325.9</ele>
        <time>2021-07-28T07:15:47Z</time>
      </trkpt>
      <trkpt lat="49.40239" lon="5.89068">
        <ele>326</ele>
        <time>2021-07-28T07:15:48Z</time>
      </trkpt>
      <trkpt lat="49.40236" lon="5.89066">
        <ele>326.1</ele>
        <time>2021-07-28T07:15:49Z</time>
      </trkpt>
      <trkpt lat="49.40234" lon="5.89066">
        <ele>326.2</ele>
        <time>2021-07-28T07:15:51Z</time>
      </trkpt>
      <trkpt lat="49.40227" lon="5.89062">
        <ele>326.4</ele>
        <time>2021-07-28T07:15:53Z</time>
      </trkpt>
      <trkpt lat="49.40224" lon="5.89057">
        <ele>326.6</ele>
        <time>2021-07-28T07:15:54Z</time>
      </trkpt>
      <trkpt lat="49.40222" lon="5.89053">
        <ele>326.7</ele>
        <time>2021-07-28T07:15:56Z</time>
      </trkpt>
      <trkpt lat="49.40222" lon="5.8905">
        <ele>326.8</ele>
        <time>2021-07-28T07:15:57Z</time>
      </trkpt>
      <trkpt lat="49.40221" lon="5.89048">
        <ele>326.8</ele>
        <time>2021-07-28T07:15:59Z</time>
      </trkpt>
      <trkpt lat="49.40235" lon="5.88966">
        <ele>329.1</ele>
        <time>2021-07-28T07:16:26Z</time>
      </trkpt>
      <trkpt lat="49.40229" lon="5.88961">
        <ele>329.3</ele>
        <time>2021-07-28T07:16:28Z</time>
      </trkpt>
      <trkpt lat="49.40226" lon="5.88958">
        <ele>329.5</ele>
        <time>2021-07-28T07:16:29Z</time>
      </trkpt>
      <trkpt lat="49.40218" lon="5.88953">
        <ele>329.9</ele>
        <time>2021-07-28T07:16:30Z</time>
      </trkpt>
      <trkpt lat="49.40212" lon="5.88949">
        <ele>330.2</ele>
        <time>2021-07-28T07:16:32Z</time>
      </trkpt>
      <trkpt lat="49.40209" lon="5.88945">
        <ele>330.3</ele>
        <time>2021-07-28T07:16:33Z</time>
      </trkpt>
      <trkpt lat="49.40206" lon="5.88943">
        <ele>330.5</ele>
        <time>2021-07-28T07:16:35Z</time>
      </trkpt>
      <trkpt lat="49.40203" lon="5.88942">
        <ele>330.7</ele>
        <time>2021-07-28T07:16:36Z</time>
      </trkpt>
      <trkpt lat="49.40195" lon="5.88943">
        <ele>331</ele>
        <time>2021-07-28T07:16:38Z</time>
      </trkpt>
      <trkpt lat="49.40189" lon="5.88943">
        <ele>331.4</ele>
        <time>2021-07-28T07:16:39Z</time>
      </trkpt>
      <trkpt lat="49.40186" lon="5.88943">
        <ele>331.6</ele>
        <time>2021-07-28T07:16:40Z</time>
      </trkpt>
      <trkpt lat="49.40182" lon="5.88943">
        <ele>331.8</ele>
        <time>2021-07-28T07:16:41Z</time>
      </trkpt>
      <trkpt lat="49.40183" lon="5.88942">
        <ele>331.9</ele>
        <time>2021-07-28T07:16:43Z</time>
      </trkpt>
      <trkpt lat="49.40183" lon="5.88939">
        <ele>332.1</ele>
        <time>2021-07-28T07:16:44Z</time>
      </trkpt>
      <trkpt lat="49.40184" lon="5.88937">
        <ele>332.2</ele>
        <time>2021-07-28T07:16:45Z</time>
      </trkpt>
      <trkpt lat="49.40185" lon="5.88931">
        <ele>332.5</ele>
        <time>2021-07-28T07:16:47Z</time>
      </trkpt>
      <trkpt lat="49.40185" lon="5.88929">
        <ele>332.5</ele>
        <time>2021-07-28T07:16:48Z</time>
      </trkpt>
      <trkpt lat="49.40185" lon="5.88928">
        <ele>332.6</ele>
        <time>2021-07-28T07:16:49Z</time>
      </trkpt>
      <trkpt lat="49.40183" lon="5.88924">
        <ele>332.8</ele>
        <time>2021-07-28T07:16:51Z</time>
      </trkpt>
      <trkpt lat="49.40183" lon="5.88918">
        <ele>333.1</ele>
        <time>2021-07-28T07:16:52Z</time>
      </trkpt>
      <trkpt lat="49.40183" lon="5.88915">
        <ele>333.2</ele>
        <time>2021-07-28T07:16:53Z</time>
      </trkpt>
      <trkpt lat="49.40184" lon="5.8891">
        <ele>333.5</ele>
        <time>2021-07-28T07:16:54Z</time>
      </trkpt>
      <trkpt lat="49.40184" lon="5.88904">
        <ele>333.8</ele>
        <time>2021-07-28T07:16:56Z</time>
      </trkpt>
      <trkpt lat="49.40184" lon="5.88899">
        <ele>334</ele>
        <time>2021-07-28T07:16:57Z</time>
      </trkpt>
      <trkpt lat="49.40184" lon="5.88897">
        <ele>334.1</ele>
        <time>2021-07-28T07:16:58Z</time>
      </trkpt>
      <trkpt lat="49.40184" lon="5.88891">
        <ele>334.4</ele>
        <time>2021-07-28T07:17:00Z</time>
      </trkpt>
      <trkpt lat="49.40184" lon="5.88886">
        <ele>334.6</ele>
        <time>2021-07-28T07:17:01Z</time>
      </trkpt>
      <trkpt lat="49.40183" lon="5.88885">
        <ele>334.7</ele>
        <time>2021-07-28T07:17:02Z</time>
      </trkpt>
      <trkpt lat="49.40182" lon="5.8888">
        <ele>334.9</ele>
        <time>2021-07-28T07:17:03Z</time>
      </trkpt>
      <trkpt lat="49.40181" lon="5.88877">
        <ele>335.1</ele>
        <time>2021-07-28T07:17:05Z</time>
      </trkpt>
      <trkpt lat="49.40181" lon="5.88875">
        <ele>335.2</ele>
        <time>2021-07-28T07:17:06Z</time>
      </trkpt>
      <trkpt lat="49.40179" lon="5.88872">
        <ele>335.4</ele>
        <time>2021-07-28T07:17:07Z</time>
      </trkpt>
      <trkpt lat="49.40176" lon="5.88871">
        <ele>335.6</ele>
        <time>2021-07-28T07:17:09Z</time>
      </trkpt>
      <trkpt lat="49.40172" lon="5.88869">
        <ele>335.8</ele>
        <time>2021-07-28T07:17:11Z</time>
      </trkpt>
      <trkpt lat="49.40167" lon="5.88868">
        <ele>336.1</ele>
        <time>2021-07-28T07:17:13Z</time>
      </trkpt>
      <trkpt lat="49.40166" lon="5.88867">
        <ele>336.1</ele>
        <time>2021-07-28T07:17:14Z</time>
      </trkpt>
      <trkpt lat="49.40165" lon="5.88866">
        <ele>336.2</ele>
        <time>2021-07-28T07:17:15Z</time>
      </trkpt>
      <trkpt lat="49.40164" lon="5.88863">
        <ele>336.3</ele>
        <time>2021-07-28T07:17:16Z</time>
      </trkpt>
      <trkpt lat="49.40163" lon="5.8886">
        <ele>336.5</ele>
        <time>2021-07-28T07:17:18Z</time>
      </trkpt>
      <trkpt lat="49.40163" lon="5.88858">
        <ele>336.5</ele>
        <time>2021-07-28T07:17:19Z</time>
      </trkpt>
      <trkpt lat="49.40162" lon="5.88857">
        <ele>336.6</ele>
        <time>2021-07-28T07:17:20Z</time>
      </trkpt>
      <trkpt lat="49.40161" lon="5.88854">
        <ele>336.7</ele>
        <time>2021-07-28T07:17:22Z</time>
      </trkpt>
      <trkpt lat="49.40158" lon="5.88854">
        <ele>336.9</ele>
        <time>2021-07-28T07:17:24Z</time>
      </trkpt>
      <trkpt lat="49.40157" lon="5.88853">
        <ele>337</ele>
        <time>2021-07-28T07:17:25Z</time>
      </trkpt>
      <trkpt lat="49.40153" lon="5.88854">
        <ele>337.2</ele>
        <time>2021-07-28T07:17:27Z</time>
      </trkpt>
      <trkpt lat="49.40152" lon="5.88856">
        <ele>337.3</ele>
        <time>2021-07-28T07:17:29Z</time>
      </trkpt>
      <trkpt lat="49.40151" lon="5.88857">
        <ele>337.4</ele>
        <time>2021-07-28T07:17:30Z</time>
      </trkpt>
      <trkpt lat="49.4015" lon="5.88858">
        <ele>337.5</ele>
        <time>2021-07-28T07:17:32Z</time>
      </trkpt>
      <trkpt lat="49.40149" lon="5.88859">
        <ele>337.5</ele>
        <time>2021-07-28T07:17:33Z</time>
      </trkpt>
      <trkpt lat="49.40147" lon="5.88859">
        <ele>337.6</ele>
        <time>2021-07-28T07:17:35Z</time>
      </trkpt>
      <trkpt lat="49.40144" lon="5.8886">
        <ele>337.8</ele>
        <time>2021-07-28T07:17:36Z</time>
      </trkpt>
      <trkpt lat="49.40144" lon="5.88861">
        <ele>337.9</ele>
        <time>2021-07-28T07:17:37Z</time>
      </trkpt>
      <trkpt lat="49.40122" lon="5.88861">
        <ele>340</ele>
        <time>2021-07-28T07:17:50Z</time>
      </trkpt>
      <trkpt lat="49.40118" lon="5.88861">
        <ele>340.3</ele>
        <time>2021-07-28T07:17:51Z</time>
      </trkpt>
      <trkpt lat="49.40113" lon="5.88862">
        <ele>340.8</ele>
        <time>2021-07-28T07:17:53Z</time>
      </trkpt>
      <trkpt lat="49.4011" lon="5.88862">
        <ele>341.1</ele>
        <time>2021-07-28T07:17:54Z</time>
      </trkpt>
      <trkpt lat="49.40108" lon="5.88863">
        <ele>341.2</ele>
        <time>2021-07-28T07:17:55Z</time>
      </trkpt>
      <trkpt lat="49.40108" lon="5.88865">
        <ele>341.3</ele>
        <time>2021-07-28T07:17:56Z</time>
      </trkpt>
      <trkpt lat="49.40104" lon="5.88867">
        <ele>341.6</ele>
        <time>2021-07-28T07:17:58Z</time>
      </trkpt>
      <trkpt lat="49.40101" lon="5.88869">
        <ele>341.8</ele>
        <time>2021-07-28T07:17:59Z</time>
      </trkpt>
      <trkpt lat="49.401" lon="5.8887">
        <ele>341.9</ele>
        <time>2021-07-28T07:18:00Z</time>
      </trkpt>
      <trkpt lat="49.40099" lon="5.8887">
        <ele>341.9</ele>
        <time>2021-07-28T07:18:01Z</time>
      </trkpt>
      <trkpt lat="49.40098" lon="5.88871">
        <ele>342</ele>
        <time>2021-07-28T07:18:02Z</time>
      </trkpt>
      <trkpt lat="49.40095" lon="5.88872">
        <ele>342.3</ele>
        <time>2021-07-28T07:18:04Z</time>
      </trkpt>
      <trkpt lat="49.40091" lon="5.88872">
        <ele>342.5</ele>
        <time>2021-07-28T07:18:06Z</time>
      </trkpt>
      <trkpt lat="49.4009" lon="5.88871">
        <ele>342.6</ele>
        <time>2021-07-28T07:18:08Z</time>
      </trkpt>
      <trkpt lat="49.40089" lon="5.88871">
        <ele>342.6</ele>
        <time>2021-07-28T07:18:09Z</time>
      </trkpt>
      <trkpt lat="49.40088" lon="5.88871">
        <ele>342.7</ele>
        <time>2021-07-28T07:18:10Z</time>
      </trkpt>
      <trkpt lat="49.40088" lon="5.88871">
        <ele>342.7</ele>
        <time>2021-07-28T07:18:11Z</time>
      </trkpt>
      <trkpt lat="49.40086" lon="5.88872">
        <ele>342.8</ele>
        <time>2021-07-28T07:18:13Z</time>
      </trkpt>
      <trkpt lat="49.40086" lon="5.88872">
        <ele>342.9</ele>
        <time>2021-07-28T07:18:14Z</time>
      </trkpt>
      <trkpt lat="49.40085" lon="5.88871">
        <ele>342.9</ele>
        <time>2021-07-28T07:18:15Z</time>
      </trkpt>
      <trkpt lat="49.40085" lon="5.88869">
        <ele>343</ele>
        <time>2021-07-28T07:18:17Z</time>
      </trkpt>
      <trkpt lat="49.40085" lon="5.88868">
        <ele>343.1</ele>
        <time>2021-07-28T07:18:18Z</time>
      </trkpt>
      <trkpt lat="49.40085" lon="5.88867">
        <ele>343.1</ele>
        <time>2021-07-28T07:18:20Z</time>
      </trkpt>
      <trkpt lat="49.40085" lon="5.88864">
        <ele>343.2</ele>
        <time>2021-07-28T07:18:22Z</time>
      </trkpt>
      <trkpt lat="49.40084" lon="5.88862">
        <ele>343.3</ele>
        <time>2021-07-28T07:18:23Z</time>
      </trkpt>
      <trkpt lat="49.40084" lon="5.8886">
        <ele>343.4</ele>
        <time>2021-07-28T07:18:24Z</time>
      </trkpt>
      <trkpt lat="49.40083" lon="5.88859">
        <ele>343.5</ele>
        <time>2021-07-28T07:18:26Z</time>
      </trkpt>
      <trkpt lat="49.40081" lon="5.88858">
        <ele>343.6</ele>
        <time>2021-07-28T07:18:27Z</time>
      </trkpt>
      <trkpt lat="49.40078" lon="5.88857">
        <ele>343.8</ele>
        <time>2021-07-28T07:18:29Z</time>
      </trkpt>
      <trkpt lat="49.40078" lon="5.88857">
        <ele>343.8</ele>
        <time>2021-07-28T07:18:30Z</time>
      </trkpt>
      <trkpt lat="49.40075" lon="5.88856">
        <ele>344</ele>
        <time>2021-07-28T07:18:32Z</time>
      </trkpt>
      <trkpt lat="49.40071" lon="5.88854">
        <ele>344.2</ele>
        <time>2021-07-28T07:18:34Z</time>
      </trkpt>
      <trkpt lat="49.40068" lon="5.88855">
        <ele>344.4</ele>
        <time>2021-07-28T07:18:35Z</time>
      </trkpt>
      <trkpt lat="49.40068" lon="5.88856">
        <ele>344.5</ele>
        <time>2021-07-28T07:18:36Z</time>
      </trkpt>
      <trkpt lat="49.40064" lon="5.88858">
        <ele>344.7</ele>
        <time>2021-07-28T07:18:38Z</time>
      </trkpt>
      <trkpt lat="49.40061" lon="5.88862">
        <ele>345</ele>
        <time>2021-07-28T07:18:39Z</time>
      </trkpt>
      <trkpt lat="49.40057" lon="5.88865">
        <ele>345.2</ele>
        <time>2021-07-28T07:18:41Z</time>
      </trkpt>
      <trkpt lat="49.40056" lon="5.88867">
        <ele>345.3</ele>
        <time>2021-07-28T07:18:42Z</time>
      </trkpt>
      <trkpt lat="49.40056" lon="5.88865">
        <ele>345.4</ele>
        <time>2021-07-28T07:18:44Z</time>
      </trkpt>
      <trkpt lat="49.40056" lon="5.88864">
        <ele>345.4</ele>
        <time>2021-07-28T07:18:45Z</time>
      </trkpt>
      <trkpt lat="49.40056" lon="5.88862">
        <ele>345.5</ele>
        <time>2021-07-28T07:18:46Z</time>
      </trkpt>
      <trkpt lat="49.40056" lon="5.8886">
        <ele>345.6</ele>
        <time>2021-07-28T07:18:47Z</time>
      </trkpt>
      <trkpt lat="49.40057" lon="5.88855">
        <ele>345.8</ele>
        <time>2021-07-28T07:18:48Z</time>
      </trkpt>
      <trkpt lat="49.40057" lon="5.88852">
        <ele>345.9</ele>
        <time>2021-07-28T07:18:49Z</time>
      </trkpt>
      <trkpt lat="49.40056" lon="5.88843">
        <ele>346.2</ele>
        <time>2021-07-28T07:18:50Z</time>
      </trkpt>
      <trkpt lat="49.40056" lon="5.88837">
        <ele>346.4</ele>
        <time>2021-07-28T07:18:52Z</time>
      </trkpt>
      <trkpt lat="49.40055" lon="5.88836">
        <ele>346.5</ele>
        <time>2021-07-28T07:18:53Z</time>
      </trkpt>
      <trkpt lat="49.40054" lon="5.88836">
        <ele>346.6</ele>
        <time>2021-07-28T07:18:55Z</time>
      </trkpt>
      <trkpt lat="49.4005" lon="5.88839">
        <ele>346.8</ele>
        <time>2021-07-28T07:18:57Z</time>
      </trkpt>
      <trkpt lat="49.40047" lon="5.88843">
        <ele>347</ele>
        <time>2021-07-28T07:18:59Z</time>
      </trkpt>
      <trkpt lat="49.40044" lon="5.88848">
        <ele>347.2</ele>
        <time>2021-07-28T07:19:00Z</time>
      </trkpt>
      <trkpt lat="49.40043" lon="5.88852">
        <ele>347.4</ele>
        <time>2021-07-28T07:19:01Z</time>
      </trkpt>
      <trkpt lat="49.40041" lon="5.88857">
        <ele>347.6</ele>
        <time>2021-07-28T07:19:03Z</time>
      </trkpt>
      <trkpt lat="49.40038" lon="5.88862">
        <ele>347.8</ele>
        <time>2021-07-28T07:19:04Z</time>
      </trkpt>
      <trkpt lat="49.40036" lon="5.88864">
        <ele>347.9</ele>
        <time>2021-07-28T07:19:05Z</time>
      </trkpt>
      <trkpt lat="49.40032" lon="5.88865">
        <ele>348.2</ele>
        <time>2021-07-28T07:19:06Z</time>
      </trkpt>
      <trkpt lat="49.40029" lon="5.88866">
        <ele>348.3</ele>
        <time>2021-07-28T07:19:08Z</time>
      </trkpt>
      <trkpt lat="49.40027" lon="5.88866">
        <ele>348.4</ele>
        <time>2021-07-28T07:19:09Z</time>
      </trkpt>
      <trkpt lat="49.40025" lon="5.88866">
        <ele>348.5</ele>
        <time>2021-07-28T07:19:11Z</time>
      </trkpt>
      <trkpt lat="49.40024" lon="5.88866">
        <ele>348.6</ele>
        <time>2021-07-28T07:19:12Z</time>
      </trkpt>
      <trkpt lat="49.40022" lon="5.88866">
        <ele>348.7</ele>
        <time>2021-07-28T07:19:13Z</time>
      </trkpt>
      <trkpt lat="49.4002" lon="5.88864">
        <ele>348.9</ele>
        <time>2021-07-28T07:19:15Z</time>
      </trkpt>
      <trkpt lat="49.40017" lon="5.88863">
        <ele>349</ele>
        <time>2021-07-28T07:19:17Z</time>
      </trkpt>
      <trkpt lat="49.40017" lon="5.88864">
        <ele>349</ele>
        <time>2021-07-28T07:19:18Z</time>
      </trkpt>
      <trkpt lat="49.40017" lon="5.88865">
        <ele>349.1</ele>
        <time>2021-07-28T07:19:19Z</time>
      </trkpt>
      <trkpt lat="49.40017" lon="5.88865">
        <ele>349.1</ele>
        <time>2021-07-28T07:19:20Z</time>
      </trkpt>
      <trkpt lat="49.40016" lon="5.88865">
        <ele>349.1</ele>
        <time>2021-07-28T07:19:22Z</time>
      </trkpt>
      <trkpt lat="49.40016" lon="5.88865">
        <ele>349.1</ele>
        <time>2021-07-28T07:19:23Z</time>
      </trkpt>
      <trkpt lat="49.40016" lon="5.88865">
        <ele>349.1</ele>
        <time>2021-07-28T07:19:25Z</time>
      </trkpt>
      <trkpt lat="49.40016" lon="5.88865">
        <ele>349.1</ele>
        <time>2021-07-28T07:19:26Z</time>
      </trkpt>
      <trkpt lat="49.40015" lon="5.88865">
        <ele>349.1</ele>
        <time>2021-07-28T07:19:27Z</time>
      </trkpt>
      <trkpt lat="49.39984" lon="5.88877">
        <ele>351.5</ele>
        <time>2021-07-28T07:20:25Z</time>
      </trkpt>
      <trkpt lat="49.39983" lon="5.88879">
        <ele>351.6</ele>
        <time>2021-07-28T07:20:26Z</time>
      </trkpt>
      <trkpt lat="49.39983" lon="5.8888">
        <ele>351.7</ele>
        <time>2021-07-28T07:20:28Z</time>
      </trkpt>
      <trkpt lat="49.39983" lon="5.8888">
        <ele>351.7</ele>
        <time>2021-07-28T07:20:29Z</time>
      </trkpt>
      <trkpt lat="49.39982" lon="5.88881">
        <ele>351.7</ele>
        <time>2021-07-28T07:20:31Z</time>
      </trkpt>
      <trkpt lat="49.39982" lon="5.88881">
        <ele>351.7</ele>
        <time>2021-07-28T07:20:32Z</time>
      </trkpt>
      <trkpt lat="49.39982" lon="5.88883">
        <ele>351.8</ele>
        <time>2021-07-28T07:20:33Z</time>
      </trkpt>
      <trkpt lat="49.39982" lon="5.88884">
        <ele>351.9</ele>
        <time>2021-07-28T07:20:35Z</time>
      </trkpt>
      <trkpt lat="49.39982" lon="5.88884">
        <ele>351.9</ele>
        <time>2021-07-28T07:20:36Z</time>
      </trkpt>
      <trkpt lat="49.39981" lon="5.88886">
        <ele>352</ele>
        <time>2021-07-28T07:20:37Z</time>
      </trkpt>
      <trkpt lat="49.39981" lon="5.88888">
        <ele>352.1</ele>
        <time>2021-07-28T07:20:39Z</time>
      </trkpt>
      <trkpt lat="49.39981" lon="5.88889">
        <ele>352.1</ele>
        <time>2021-07-28T07:20:40Z</time>
      </trkpt>
      <trkpt lat="49.39981" lon="5.8889">
        <ele>352.2</ele>
        <time>2021-07-28T07:20:41Z</time>
      </trkpt>
      <trkpt lat="49.39979" lon="5.88895">
        <ele>352.4</ele>
        <time>2021-07-28T07:20:43Z</time>
      </trkpt>
      <trkpt lat="49.39978" lon="5.88897">
        <ele>352.5</ele>
        <time>2021-07-28T07:20:44Z</time>
      </trkpt>
      <trkpt lat="49.39975" lon="5.88902">
        <ele>352.9</ele>
        <time>2021-07-28T07:20:46Z</time>
      </trkpt>
      <trkpt lat="49.39973" lon="5.88906">
        <ele>353.1</ele>
        <time>2021-07-28T07:20:47Z</time>
      </trkpt>
      <trkpt lat="49.39964" lon="5.88917">
        <ele>353.9</ele>
        <time>2021-07-28T07:20:48Z</time>
      </trkpt>
      <trkpt lat="49.39956" lon="5.88925">
        <ele>354.5</ele>
        <time>2021-07-28T07:20:50Z</time>
      </trkpt>
      <trkpt lat="49.39947" lon="5.88933">
        <ele>355.2</ele>
        <time>2021-07-28T07:20:51Z</time>
      </trkpt>
      <trkpt lat="49.39944" lon="5.88936">
        <ele>355.4</ele>
        <time>2021-07-28T07:20:52Z</time>
      </trkpt>
      <trkpt lat="49.39942" lon="5.88937">
        <ele>355.5</ele>
        <time>2021-07-28T07:20:53Z</time>
      </trkpt>
      <trkpt lat="49.39941" lon="5.88937">
        <ele>355.5</ele>
        <time>2021-07-28T07:20:54Z</time>
      </trkpt>
      <trkpt lat="49.3994" lon="5.88938">
        <ele>355.6</ele>
        <time>2021-07-28T07:20:55Z</time>
      </trkpt>
      <trkpt lat="49.39939" lon="5.88937">
        <ele>355.7</ele>
        <time>2021-07-28T07:20:57Z</time>
      </trkpt>
      <trkpt lat="49.39938" lon="5.88935">
        <ele>355.7</ele>
        <time>2021-07-28T07:20:58Z</time>
      </trkpt>
      <trkpt lat="49.39938" lon="5.88935">
        <ele>355.8</ele>
        <time>2021-07-28T07:20:59Z</time>
      </trkpt>
      <trkpt lat="49.39937" lon="5.88935">
        <ele>355.8</ele>
        <time>2021-07-28T07:21:00Z</time>
      </trkpt>
      <trkpt lat="49.39935" lon="5.88934">
        <ele>355.9</ele>
        <time>2021-07-28T07:21:02Z</time>
      </trkpt>
      <trkpt lat="49.39934" lon="5.88933">
        <ele>356</ele>
        <time>2021-07-28T07:21:03Z</time>
      </trkpt>
      <trkpt lat="49.39931" lon="5.8893">
        <ele>356.2</ele>
        <time>2021-07-28T07:21:05Z</time>
      </trkpt>
      <trkpt lat="49.39931" lon="5.88929">
        <ele>356.2</ele>
        <time>2021-07-28T07:21:06Z</time>
      </trkpt>
      <trkpt lat="49.3993" lon="5.88927">
        <ele>356.3</ele>
        <time>2021-07-28T07:21:07Z</time>
      </trkpt>
      <trkpt lat="49.3993" lon="5.88926">
        <ele>356.4</ele>
        <time>2021-07-28T07:21:09Z</time>
      </trkpt>
      <trkpt lat="49.39929" lon="5.88925">
        <ele>356.4</ele>
        <time>2021-07-28T07:21:10Z</time>
      </trkpt>
      <trkpt lat="49.39928" lon="5.88923">
        <ele>356.5</ele>
        <time>2021-07-28T07:21:12Z</time>
      </trkpt>
      <trkpt lat="49.39928" lon="5.88921">
        <ele>356.5</ele>
        <time>2021-07-28T07:21:14Z</time>
      </trkpt>
      <trkpt lat="49.39924" lon="5.88919">
        <ele>356.7</ele>
        <time>2021-07-28T07:21:15Z</time>
      </trkpt>
      <trkpt lat="49.39923" lon="5.88918">
        <ele>356.8</ele>
        <time>2021-07-28T07:21:16Z</time>
      </trkpt>
      <trkpt lat="49.39919" lon="5.88913">
        <ele>357</ele>
        <time>2021-07-28T07:21:17Z</time>
      </trkpt>
      <trkpt lat="49.39915" lon="5.88908">
        <ele>357.3</ele>
        <time>2021-07-28T07:21:19Z</time>
      </trkpt>
      <trkpt lat="49.3991" lon="5.88903">
        <ele>357.5</ele>
        <time>2021-07-28T07:21:20Z</time>
      </trkpt>
      <trkpt lat="49.39908" lon="5.88902">
        <ele>357.7</ele>
        <time>2021-07-28T07:21:21Z</time>
      </trkpt>
      <trkpt lat="49.39906" lon="5.88902">
        <ele>357.7</ele>
        <time>2021-07-28T07:21:23Z</time>
      </trkpt>
      <trkpt lat="49.39903" lon="5.88902">
        <ele>357.9</ele>
        <time>2021-07-28T07:21:24Z</time>
      </trkpt>
      <trkpt lat="49.399" lon="5.88901">
        <ele>358</ele>
        <time>2021-07-28T07:21:25Z</time>
      </trkpt>
      <trkpt lat="49.39899" lon="5.889">
        <ele>358</ele>
        <time>2021-07-28T07:21:26Z</time>
      </trkpt>
      <trkpt lat="49.39898" lon="5.889">
        <ele>358.1</ele>
        <time>2021-07-28T07:21:28Z</time>
      </trkpt>
      <trkpt lat="49.39898" lon="5.889">
        <ele>358.1</ele>
        <time>2021-07-28T07:21:29Z</time>
      </trkpt>
      <trkpt lat="49.39896" lon="5.889">
        <ele>358.1</ele>
        <time>2021-07-28T07:21:30Z</time>
      </trkpt>
      <trkpt lat="49.39895" lon="5.88899">
        <ele>358.2</ele>
        <time>2021-07-28T07:21:32Z</time>
      </trkpt>
      <trkpt lat="49.39883" lon="5.889">
        <ele>358.7</ele>
        <time>2021-07-28T07:21:40Z</time>
      </trkpt>
      <trkpt lat="49.39875" lon="5.88903">
        <ele>358.8</ele>
        <time>2021-07-28T07:21:42Z</time>
      </trkpt>
      <trkpt lat="49.3987" lon="5.88905">
        <ele>358.9</ele>
        <time>2021-07-28T07:21:43Z</time>
      </trkpt>
      <trkpt lat="49.39863" lon="5.88907">
        <ele>359.1</ele>
        <time>2021-07-28T07:21:44Z</time>
      </trkpt>
      <trkpt lat="49.39859" lon="5.88908">
        <ele>359.2</ele>
        <time>2021-07-28T07:21:45Z</time>
      </trkpt>
      <trkpt lat="49.39854" lon="5.8891">
        <ele>359.3</ele>
        <time>2021-07-28T07:21:47Z</time>
      </trkpt>
      <trkpt lat="49.39851" lon="5.88911">
        <ele>359.3</ele>
        <time>2021-07-28T07:21:48Z</time>
      </trkpt>
      <trkpt lat="49.39847" lon="5.88912">
        <ele>359.5</ele>
        <time>2021-07-28T07:21:50Z</time>
      </trkpt>
      <trkpt lat="49.39843" lon="5.88914">
        <ele>359.6</ele>
        <time>2021-07-28T07:21:51Z</time>
      </trkpt>
      <trkpt lat="49.39841" lon="5.88914">
        <ele>359.6</ele>
        <time>2021-07-28T07:21:52Z</time>
      </trkpt>
      <trkpt lat="49.39837" lon="5.88914">
        <ele>359.7</ele>
        <time>2021-07-28T07:21:54Z</time>
      </trkpt>
      <trkpt lat="49.39835" lon="5.88913">
        <ele>359.8</ele>
        <time>2021-07-28T07:21:55Z</time>
      </trkpt>
      <trkpt lat="49.39831" lon="5.88914">
        <ele>359.9</ele>
        <time>2021-07-28T07:21:57Z</time>
      </trkpt>
      <trkpt lat="49.39828" lon="5.88915">
        <ele>359.9</ele>
        <time>2021-07-28T07:21:58Z</time>
      </trkpt>
      <trkpt lat="49.39825" lon="5.88917">
        <ele>360</ele>
        <time>2021-07-28T07:22:00Z</time>
      </trkpt>
      <trkpt lat="49.39824" lon="5.88919">
        <ele>360</ele>
        <time>2021-07-28T07:22:01Z</time>
      </trkpt>
      <trkpt lat="49.3982" lon="5.88927">
        <ele>359.9</ele>
        <time>2021-07-28T07:22:03Z</time>
      </trkpt>
      <trkpt lat="49.39818" lon="5.8893">
        <ele>359.9</ele>
        <time>2021-07-28T07:22:04Z</time>
      </trkpt>
      <trkpt lat="49.39813" lon="5.88932">
        <ele>359.9</ele>
        <time>2021-07-28T07:22:05Z</time>
      </trkpt>
      <trkpt lat="49.39811" lon="5.88935">
        <ele>359.9</ele>
        <time>2021-07-28T07:22:07Z</time>
      </trkpt>
      <trkpt lat="49.39808" lon="5.88938">
        <ele>359.9</ele>
        <time>2021-07-28T07:22:09Z</time>
      </trkpt>
      <trkpt lat="49.39805" lon="5.88939">
        <ele>359.8</ele>
        <time>2021-07-28T07:22:11Z</time>
      </trkpt>
      <trkpt lat="49.39805" lon="5.88941">
        <ele>359.8</ele>
        <time>2021-07-28T07:22:12Z</time>
      </trkpt>
      <trkpt lat="49.39805" lon="5.88941">
        <ele>359.8</ele>
        <time>2021-07-28T07:22:14Z</time>
      </trkpt>
      <trkpt lat="49.39805" lon="5.88942">
        <ele>359.8</ele>
        <time>2021-07-28T07:22:15Z</time>
      </trkpt>
      <trkpt lat="49.39805" lon="5.88942">
        <ele>359.8</ele>
        <time>2021-07-28T07:22:17Z</time>
      </trkpt>
      <trkpt lat="49.39804" lon="5.88943">
        <ele>359.8</ele>
        <time>2021-07-28T07:22:18Z</time>
      </trkpt>
      <trkpt lat="49.39804" lon="5.88943">
        <ele>359.8</ele>
        <time>2021-07-28T07:22:19Z</time>
      </trkpt>
      <trkpt lat="49.39804" lon="5.88944">
        <ele>359.8</ele>
        <time>2021-07-28T07:22:21Z</time>
      </trkpt>
      <trkpt lat="49.398" lon="5.88935">
        <ele>359.8</ele>
        <time>2021-07-28T07:23:36Z</time>
      </trkpt>
      <trkpt lat="49.39799" lon="5.88936">
        <ele>359.8</ele>
        <time>2021-07-28T07:23:37Z</time>
      </trkpt>
      <trkpt lat="49.39799" lon="5.88937">
        <ele>359.8</ele>
        <time>2021-07-28T07:23:38Z</time>
      </trkpt>
      <trkpt lat="49.39799" lon="5.88937">
        <ele>359.8</ele>
        <time>2021-07-28T07:23:39Z</time>
      </trkpt>
      <trkpt lat="49.39799" lon="5.88937">
        <ele>359.8</ele>
        <time>2021-07-28T07:23:41Z</time>
      </trkpt>
      <trkpt lat="49.39798" lon="5.88937">
        <ele>359.7</ele>
        <time>2021-07-28T07:23:43Z</time>
      </trkpt>
      <trkpt lat="49.39798" lon="5.88937">
        <ele>359.7</ele>
        <time>2021-07-28T07:23:45Z</time>
      </trkpt>
      <trkpt lat="49.39798" lon="5.88936">
        <ele>359.7</ele>
        <time>2021-07-28T07:23:47Z</time>
      </trkpt>
      <trkpt lat="49.39798" lon="5.88936">
        <ele>359.7</ele>
        <time>2021-07-28T07:23:49Z</time>
      </trkpt>
      <trkpt lat="49.39798" lon="5.88936">
        <ele>359.7</ele>
        <time>2021-07-28T07:23:50Z</time>
      </trkpt>
      <trkpt lat="49.39798" lon="5.88936">
        <ele>359.7</ele>
        <time>2021-07-28T07:23:51Z</time>
      </trkpt>
      <trkpt lat="49.39798" lon="5.88936">
        <ele>359.7</ele>
        <time>2021-07-28T07:23:53Z</time>
      </trkpt>
      <trkpt lat="49.39798" lon="5.88935">
        <ele>359.7</ele>
        <time>2021-07-28T07:23:55Z</time>
      </trkpt>
      <trkpt lat="49.39798" lon="5.88935">
        <ele>359.7</ele>
        <time>2021-07-28T07:23:57Z</time>
      </trkpt>
      <trkpt lat="49.39797" lon="5.88935">
        <ele>359.7</ele>
        <time>2021-07-28T07:23:59Z</time>
      </trkpt>
      <trkpt lat="49.39797" lon="5.88934">
        <ele>359.7</ele>
        <time>2021-07-28T07:24:01Z</time>
      </trkpt>
      <trkpt lat="49.39797" lon="5.88934">
        <ele>359.7</ele>
        <time>2021-07-28T07:24:02Z</time>
      </trkpt>
      <trkpt lat="49.39797" lon="5.88934">
        <ele>359.7</ele>
        <time>2021-07-28T07:24:03Z</time>
      </trkpt>
      <trkpt lat="49.39796" lon="5.88923">
        <ele>359.7</ele>
        <time>2021-07-28T07:24:05Z</time>
      </trkpt>
      <trkpt lat="49.39796" lon="5.88921">
        <ele>359.7</ele>
        <time>2021-07-28T07:24:07Z</time>
      </trkpt>
      <trkpt lat="49.39796" lon="5.88921">
        <ele>359.7</ele>
        <time>2021-07-28T07:24:08Z</time>
      </trkpt>
      <trkpt lat="49.39796" lon="5.88921">
        <ele>359.7</ele>
        <time>2021-07-28T07:24:10Z</time>
      </trkpt>
      <trkpt lat="49.39796" lon="5.88921">
        <ele>359.7</ele>
        <time>2021-07-28T07:24:12Z</time>
      </trkpt>
      <trkpt lat="49.39796" lon="5.88921">
        <ele>359.7</ele>
        <time>2021-07-28T07:24:13Z</time>
      </trkpt>
      <trkpt lat="49.398" lon="5.88925">
        <ele>359.6</ele>
        <time>2021-07-28T07:24:14Z</time>
      </trkpt>
      <trkpt lat="49.39802" lon="5.88928">
        <ele>359.6</ele>
        <time>2021-07-28T07:24:16Z</time>
      </trkpt>
      <trkpt lat="49.39803" lon="5.88929">
        <ele>359.6</ele>
        <time>2021-07-28T07:24:18Z</time>
      </trkpt>
      <trkpt lat="49.39803" lon="5.88929">
        <ele>359.6</ele>
        <time>2021-07-28T07:24:19Z</time>
      </trkpt>
      <trkpt lat="49.39803" lon="5.88929">
        <ele>359.6</ele>
        <time>2021-07-28T07:24:20Z</time>
      </trkpt>
      <trkpt lat="49.39803" lon="5.88929">
        <ele>359.6</ele>
        <time>2021-07-28T07:24:21Z</time>
      </trkpt>
      <trkpt lat="49.39803" lon="5.88937">
        <ele>359.5</ele>
        <time>2021-07-28T07:24:23Z</time>
      </trkpt>
      <trkpt lat="49.39804" lon="5.8894">
        <ele>359.5</ele>
        <time>2021-07-28T07:24:25Z</time>
      </trkpt>
      <trkpt lat="49.39804" lon="5.8894">
        <ele>359.5</ele>
        <time>2021-07-28T07:24:26Z</time>
      </trkpt>
      <trkpt lat="49.39804" lon="5.88941">
        <ele>359.5</ele>
        <time>2021-07-28T07:24:28Z</time>
      </trkpt>
      <trkpt lat="49.39804" lon="5.88941">
        <ele>359.5</ele>
        <time>2021-07-28T07:24:29Z</time>
      </trkpt>
      <trkpt lat="49.39804" lon="5.88941">
        <ele>359.5</ele>
        <time>2021-07-28T07:24:31Z</time>
      </trkpt>
      <trkpt lat="49.39804" lon="5.88941">
        <ele>359.5</ele>
        <time>2021-07-28T07:24:33Z</time>
      </trkpt>
      <trkpt lat="49.39804" lon="5.88942">
        <ele>359.5</ele>
        <time>2021-07-28T07:24:34Z</time>
      </trkpt>
      <trkpt lat="49.39804" lon="5.88942">
        <ele>359.5</ele>
        <time>2021-07-28T07:24:36Z</time>
      </trkpt>
      <trkpt lat="49.39804" lon="5.88942">
        <ele>359.5</ele>
        <time>2021-07-28T07:24:38Z</time>
      </trkpt>
      <trkpt lat="49.39804" lon="5.88942">
        <ele>359.5</ele>
        <time>2021-07-28T07:24:40Z</time>
      </trkpt>
      <trkpt lat="49.39804" lon="5.88942">
        <ele>359.5</ele>
        <time>2021-07-28T07:24:42Z</time>
      </trkpt>
      <trkpt lat="49.39804" lon="5.88943">
        <ele>359.5</ele>
        <time>2021-07-28T07:24:44Z</time>
      </trkpt>
      <trkpt lat="49.39804" lon="5.88943">
        <ele>359.5</ele>
        <time>2021-07-28T07:24:45Z</time>
      </trkpt>
      <trkpt lat="49.39804" lon="5.88943">
        <ele>359.5</ele>
        <time>2021-07-28T07:24:47Z</time>
      </trkpt>
      <trkpt lat="49.39804" lon="5.88943">
        <ele>359.5</ele>
        <time>2021-07-28T07:24:49Z</time>
      </trkpt>
      <trkpt lat="49.39804" lon="5.88944">
        <ele>359.5</ele>
        <time>2021-07-28T07:24:50Z</time>
      </trkpt>
      <trkpt lat="49.39804" lon="5.88944">
        <ele>359.5</ele>
        <time>2021-07-28T07:24:52Z</time>
      </trkpt>
      <trkpt lat="49.39804" lon="5.88944">
        <ele>359.5</ele>
        <time>2021-07-28T07:24:54Z</time>
      </trkpt>
      <trkpt lat="49.39804" lon="5.88944">
        <ele>359.5</ele>
        <time>2021-07-28T07:24:55Z</time>
      </trkpt>
      <trkpt lat="49.39805" lon="5.88944">
        <ele>359.5</ele>
        <time>2021-07-28T07:24:56Z</time>
      </trkpt>
      <trkpt lat="49.39805" lon="5.88945">
        <ele>359.5</ele>
        <time>2021-07-28T07:24:57Z</time>
      </trkpt>
      <trkpt lat="49.39805" lon="5.88945">
        <ele>359.5</ele>
        <time>2021-07-28T07:24:58Z</time>
      </trkpt>
      <trkpt lat="49.39805" lon="5.88945">
        <ele>359.5</ele>
        <time>2021-07-28T07:25:00Z</time>
      </trkpt>
      <trkpt lat="49.39805" lon="5.88945">
        <ele>359.5</ele>
        <time>2021-07-28T07:25:01Z</time>
      </trkpt>
      <trkpt lat="49.39805" lon="5.88946">
        <ele>359.5</ele>
        <time>2021-07-28T07:25:03Z</time>
      </trkpt>
      <trkpt lat="49.39805" lon="5.88946">
        <ele>359.5</ele>
        <time>2021-07-28T07:25:04Z</time>
      </trkpt>
      <trkpt lat="49.39805" lon="5.88946">
        <ele>359.5</ele>
        <time>2021-07-28T07:25:05Z</time>
      </trkpt>
      <trkpt lat="49.39805" lon="5.88946">
        <ele>359.5</ele>
        <time>2021-07-28T07:25:06Z</time>
      </trkpt>
      <trkpt lat="49.39805" lon="5.88947">
        <ele>359.5</ele>
        <time>2021-07-28T07:25:08Z</time>
      </trkpt>
      <trkpt lat="49.39804" lon="5.88947">
        <ele>359.5</ele>
        <time>2021-07-28T07:25:10Z</time>
      </trkpt>
      <trkpt lat="49.39801" lon="5.88945">
        <ele>359.5</ele>
        <time>2021-07-28T07:25:12Z</time>
      </trkpt>
      <trkpt lat="49.39799" lon="5.88944">
        <ele>359.4</ele>
        <time>2021-07-28T07:25:14Z</time>
      </trkpt>
      <trkpt lat="49.39798" lon="5.88944">
        <ele>359.4</ele>
        <time>2021-07-28T07:25:15Z</time>
      </trkpt>
      <trkpt lat="49.39794" lon="5.88944">
        <ele>359.4</ele>
        <time>2021-07-28T07:25:16Z</time>
      </trkpt>
      <trkpt lat="49.39793" lon="5.88943">
        <ele>359.4</ele>
        <time>2021-07-28T07:25:17Z</time>
      </trkpt>
      <trkpt lat="49.39791" lon="5.88942">
        <ele>359.4</ele>
        <time>2021-07-28T07:25:18Z</time>
      </trkpt>
      <trkpt lat="49.39786" lon="5.88941">
        <ele>359.3</ele>
        <time>2021-07-28T07:25:20Z</time>
      </trkpt>
      <trkpt lat="49.39779" lon="5.88942">
        <ele>359.1</ele>
        <time>2021-07-28T07:25:22Z</time>
      </trkpt>
      <trkpt lat="49.39774" lon="5.88943">
        <ele>358.9</ele>
        <time>2021-07-28T07:25:23Z</time>
      </trkpt>
      <trkpt lat="49.3977" lon="5.88942">
        <ele>358.7</ele>
        <time>2021-07-28T07:25:25Z</time>
      </trkpt>
      <trkpt lat="49.39764" lon="5.88935">
        <ele>358.4</ele>
        <time>2021-07-28T07:25:27Z</time>
      </trkpt>
      <trkpt lat="49.39758" lon="5.88931">
        <ele>358.1</ele>
        <time>2021-07-28T07:25:28Z</time>
      </trkpt>
      <trkpt lat="49.39753" lon="5.88929">
        <ele>357.9</ele>
        <time>2021-07-28T07:25:29Z</time>
      </trkpt>
      <trkpt lat="49.39748" lon="5.88928">
        <ele>357.7</ele>
        <time>2021-07-28T07:25:30Z</time>
      </trkpt>
      <trkpt lat="49.39741" lon="5.88927">
        <ele>357.4</ele>
        <time>2021-07-28T07:25:32Z</time>
      </trkpt>
      <trkpt lat="49.39735" lon="5.88923">
        <ele>357.1</ele>
        <time>2021-07-28T07:25:33Z</time>
      </trkpt>
      <trkpt lat="49.39725" lon="5.88915">
        <ele>356.6</ele>
        <time>2021-07-28T07:25:35Z</time>
      </trkpt>
      <trkpt lat="49.39721" lon="5.88912">
        <ele>356.4</ele>
        <time>2021-07-28T07:25:36Z</time>
      </trkpt>
      <trkpt lat="49.39715" lon="5.88909">
        <ele>356.2</ele>
        <time>2021-07-28T07:25:37Z</time>
      </trkpt>
      <trkpt lat="49.39704" lon="5.88908">
        <ele>355.7</ele>
        <time>2021-07-28T07:25:39Z</time>
      </trkpt>
      <trkpt lat="49.39698" lon="5.88907">
        <ele>355.5</ele>
        <time>2021-07-28T07:25:40Z</time>
      </trkpt>
      <trkpt lat="49.39687" lon="5.88905">
        <ele>355</ele>
        <time>2021-07-28T07:25:42Z</time>
      </trkpt>
      <trkpt lat="49.39673" lon="5.88904">
        <ele>354.5</ele>
        <time>2021-07-28T07:25:44Z</time>
      </trkpt>
      <trkpt lat="49.39666" lon="5.88903">
        <ele>354.2</ele>
        <time>2021-07-28T07:25:45Z</time>
      </trkpt>
      <trkpt lat="49.39659" lon="5.88904">
        <ele>354</ele>
        <time>2021-07-28T07:25:46Z</time>
      </trkpt>
      <trkpt lat="49.39651" lon="5.88903">
        <ele>353.9</ele>
        <time>2021-07-28T07:25:47Z</time>
      </trkpt>
      <trkpt lat="49.39644" lon="5.88902">
        <ele>353.8</ele>
        <time>2021-07-28T07:25:48Z</time>
      </trkpt>
      <trkpt lat="49.39629" lon="5.88901">
        <ele>353.6</ele>
        <time>2021-07-28T07:25:50Z</time>
      </trkpt>
      <trkpt lat="49.39621" lon="5.88902">
        <ele>353.6</ele>
        <time>2021-07-28T07:25:51Z</time>
      </trkpt>
      <trkpt lat="49.39607" lon="5.88905">
        <ele>353.6</ele>
        <time>2021-07-28T07:25:53Z</time>
      </trkpt>
      <trkpt lat="49.39601" lon="5.88906">
        <ele>353.6</ele>
        <time>2021-07-28T07:25:54Z</time>
      </trkpt>
      <trkpt lat="49.39589" lon="5.88907">
        <ele>353.7</ele>
        <time>2021-07-28T07:25:56Z</time>
      </trkpt>
      <trkpt lat="49.39583" lon="5.88908">
        <ele>353.8</ele>
        <time>2021-07-28T07:25:57Z</time>
      </trkpt>
      <trkpt lat="49.39572" lon="5.8891">
        <ele>353.9</ele>
        <time>2021-07-28T07:25:59Z</time>
      </trkpt>
      <trkpt lat="49.39566" lon="5.88911">
        <ele>353.9</ele>
        <time>2021-07-28T07:26:00Z</time>
      </trkpt>
      <trkpt lat="49.39554" lon="5.88915">
        <ele>353.9</ele>
        <time>2021-07-28T07:26:02Z</time>
      </trkpt>
      <trkpt lat="49.39548" lon="5.88916">
        <ele>354</ele>
        <time>2021-07-28T07:26:03Z</time>
      </trkpt>
      <trkpt lat="49.39537" lon="5.88918">
        <ele>354</ele>
        <time>2021-07-28T07:26:05Z</time>
      </trkpt>
      <trkpt lat="49.39532" lon="5.88919">
        <ele>354.1</ele>
        <time>2021-07-28T07:26:06Z</time>
      </trkpt>
      <trkpt lat="49.39522" lon="5.88921">
        <ele>354.1</ele>
        <time>2021-07-28T07:26:08Z</time>
      </trkpt>
      <trkpt lat="49.39518" lon="5.88922">
        <ele>354.2</ele>
        <time>2021-07-28T07:26:09Z</time>
      </trkpt>
      <trkpt lat="49.39509" lon="5.88924">
        <ele>354.2</ele>
        <time>2021-07-28T07:26:11Z</time>
      </trkpt>
      <trkpt lat="49.39504" lon="5.88925">
        <ele>354.2</ele>
        <time>2021-07-28T07:26:12Z</time>
      </trkpt>
      <trkpt lat="49.39499" lon="5.88926">
        <ele>354.3</ele>
        <time>2021-07-28T07:26:13Z</time>
      </trkpt>
      <trkpt lat="49.39489" lon="5.88927">
        <ele>354.3</ele>
        <time>2021-07-28T07:26:15Z</time>
      </trkpt>
      <trkpt lat="49.39483" lon="5.88928">
        <ele>354.3</ele>
        <time>2021-07-28T07:26:17Z</time>
      </trkpt>
      <trkpt lat="49.39475" lon="5.88929">
        <ele>354.4</ele>
        <time>2021-07-28T07:26:18Z</time>
      </trkpt>
      <trkpt lat="49.39473" lon="5.88931">
        <ele>354.4</ele>
        <time>2021-07-28T07:26:19Z</time>
      </trkpt>
      <trkpt lat="49.39463" lon="5.88937">
        <ele>354.6</ele>
        <time>2021-07-28T07:26:21Z</time>
      </trkpt>
      <trkpt lat="49.39457" lon="5.8894">
        <ele>354.6</ele>
        <time>2021-07-28T07:26:22Z</time>
      </trkpt>
      <trkpt lat="49.39448" lon="5.88944">
        <ele>354.8</ele>
        <time>2021-07-28T07:26:24Z</time>
      </trkpt>
      <trkpt lat="49.39438" lon="5.88948">
        <ele>355</ele>
        <time>2021-07-28T07:26:26Z</time>
      </trkpt>
      <trkpt lat="49.39434" lon="5.88944">
        <ele>355</ele>
        <time>2021-07-28T07:26:27Z</time>
      </trkpt>
      <trkpt lat="49.39429" lon="5.88948">
        <ele>355</ele>
        <time>2021-07-28T07:26:29Z</time>
      </trkpt>
      <trkpt lat="49.39424" lon="5.88952">
        <ele>355</ele>
        <time>2021-07-28T07:26:30Z</time>
      </trkpt>
      <trkpt lat="49.39416" lon="5.88956">
        <ele>355.1</ele>
        <time>2021-07-28T07:26:32Z</time>
      </trkpt>
      <trkpt lat="49.3941" lon="5.88959">
        <ele>355.1</ele>
        <time>2021-07-28T07:26:33Z</time>
      </trkpt>
      <trkpt lat="49.39405" lon="5.88961">
        <ele>355.2</ele>
        <time>2021-07-28T07:26:34Z</time>
      </trkpt>
      <trkpt lat="49.39401" lon="5.88962">
        <ele>355.2</ele>
        <time>2021-07-28T07:26:36Z</time>
      </trkpt>
      <trkpt lat="49.39396" lon="5.88963">
        <ele>355.3</ele>
        <time>2021-07-28T07:26:37Z</time>
      </trkpt>
      <trkpt lat="49.3939" lon="5.88965">
        <ele>355.4</ele>
        <time>2021-07-28T07:26:39Z</time>
      </trkpt>
      <trkpt lat="49.39387" lon="5.88966">
        <ele>355.4</ele>
        <time>2021-07-28T07:26:40Z</time>
      </trkpt>
      <trkpt lat="49.39381" lon="5.88967">
        <ele>355.5</ele>
        <time>2021-07-28T07:26:41Z</time>
      </trkpt>
      <trkpt lat="49.39375" lon="5.88968">
        <ele>355.7</ele>
        <time>2021-07-28T07:26:43Z</time>
      </trkpt>
      <trkpt lat="49.39369" lon="5.88971">
        <ele>355.8</ele>
        <time>2021-07-28T07:26:45Z</time>
      </trkpt>
      <trkpt lat="49.39366" lon="5.88973">
        <ele>355.8</ele>
        <time>2021-07-28T07:26:46Z</time>
      </trkpt>
      <trkpt lat="49.39362" lon="5.88974">
        <ele>355.9</ele>
        <time>2021-07-28T07:26:48Z</time>
      </trkpt>
      <trkpt lat="49.39357" lon="5.88977">
        <ele>356</ele>
        <time>2021-07-28T07:26:49Z</time>
      </trkpt>
      <trkpt lat="49.39351" lon="5.88981">
        <ele>356.1</ele>
        <time>2021-07-28T07:26:51Z</time>
      </trkpt>
      <trkpt lat="49.39346" lon="5.88983">
        <ele>356.3</ele>
        <time>2021-07-28T07:26:52Z</time>
      </trkpt>
      <trkpt lat="49.39339" lon="5.88988">
        <ele>356.4</ele>
        <time>2021-07-28T07:26:54Z</time>
      </trkpt>
      <trkpt lat="49.39333" lon="5.88992">
        <ele>356.5</ele>
        <time>2021-07-28T07:26:56Z</time>
      </trkpt>
      <trkpt lat="49.39327" lon="5.88994">
        <ele>356.7</ele>
        <time>2021-07-28T07:26:57Z</time>
      </trkpt>
      <trkpt lat="49.39323" lon="5.88995">
        <ele>356.8</ele>
        <time>2021-07-28T07:26:59Z</time>
      </trkpt>
      <trkpt lat="49.39319" lon="5.88996">
        <ele>356.9</ele>
        <time>2021-07-28T07:27:00Z</time>
      </trkpt>
      <trkpt lat="49.39314" lon="5.88997">
        <ele>357</ele>
        <time>2021-07-28T07:27:02Z</time>
      </trkpt>
      <trkpt lat="49.39308" lon="5.88997">
        <ele>357.2</ele>
        <time>2021-07-28T07:27:04Z</time>
      </trkpt>
      <trkpt lat="49.39303" lon="5.88998">
        <ele>357.3</ele>
        <time>2021-07-28T07:27:05Z</time>
      </trkpt>
      <trkpt lat="49.39298" lon="5.88999">
        <ele>357.4</ele>
        <time>2021-07-28T07:27:06Z</time>
      </trkpt>
      <trkpt lat="49.39293" lon="5.89001">
        <ele>357.6</ele>
        <time>2021-07-28T07:27:08Z</time>
      </trkpt>
      <trkpt lat="49.39289" lon="5.89003">
        <ele>357.7</ele>
        <time>2021-07-28T07:27:10Z</time>
      </trkpt>
      <trkpt lat="49.39287" lon="5.89003">
        <ele>357.8</ele>
        <time>2021-07-28T07:27:11Z</time>
      </trkpt>
      <trkpt lat="49.39283" lon="5.89004">
        <ele>357.9</ele>
        <time>2021-07-28T07:27:12Z</time>
      </trkpt>
      <trkpt lat="49.39281" lon="5.89006">
        <ele>358</ele>
        <time>2021-07-28T07:27:13Z</time>
      </trkpt>
      <trkpt lat="49.39276" lon="5.89007">
        <ele>358.2</ele>
        <time>2021-07-28T07:27:15Z</time>
      </trkpt>
      <trkpt lat="49.39273" lon="5.89008">
        <ele>358.3</ele>
        <time>2021-07-28T07:27:16Z</time>
      </trkpt>
      <trkpt lat="49.3927" lon="5.89009">
        <ele>358.4</ele>
        <time>2021-07-28T07:27:17Z</time>
      </trkpt>
      <trkpt lat="49.39267" lon="5.89009">
        <ele>358.5</ele>
        <time>2021-07-28T07:27:18Z</time>
      </trkpt>
      <trkpt lat="49.39261" lon="5.89009">
        <ele>358.7</ele>
        <time>2021-07-28T07:27:20Z</time>
      </trkpt>
      <trkpt lat="49.39255" lon="5.89011">
        <ele>358.9</ele>
        <time>2021-07-28T07:27:21Z</time>
      </trkpt>
      <trkpt lat="49.39249" lon="5.89012">
        <ele>359.1</ele>
        <time>2021-07-28T07:27:23Z</time>
      </trkpt>
      <trkpt lat="49.39246" lon="5.89013">
        <ele>359.2</ele>
        <time>2021-07-28T07:27:25Z</time>
      </trkpt>
      <trkpt lat="49.39243" lon="5.89013">
        <ele>359.3</ele>
        <time>2021-07-28T07:27:26Z</time>
      </trkpt>
      <trkpt lat="49.39238" lon="5.89015">
        <ele>359.5</ele>
        <time>2021-07-28T07:27:28Z</time>
      </trkpt>
      <trkpt lat="49.39236" lon="5.89015">
        <ele>359.6</ele>
        <time>2021-07-28T07:27:29Z</time>
      </trkpt>
      <trkpt lat="49.39235" lon="5.89015">
        <ele>359.6</ele>
        <time>2021-07-28T07:27:30Z</time>
      </trkpt>
      <trkpt lat="49.39232" lon="5.89016">
        <ele>359.7</ele>
        <time>2021-07-28T07:27:31Z</time>
      </trkpt>
      <trkpt lat="49.39228" lon="5.89017">
        <ele>359.9</ele>
        <time>2021-07-28T07:27:32Z</time>
      </trkpt>
      <trkpt lat="49.39224" lon="5.89018">
        <ele>360</ele>
        <time>2021-07-28T07:27:34Z</time>
      </trkpt>
      <trkpt lat="49.39218" lon="5.89017">
        <ele>360.2</ele>
        <time>2021-07-28T07:27:35Z</time>
      </trkpt>
      <trkpt lat="49.39214" lon="5.89017">
        <ele>360.4</ele>
        <time>2021-07-28T07:27:37Z</time>
      </trkpt>
      <trkpt lat="49.3921" lon="5.89017">
        <ele>360.5</ele>
        <time>2021-07-28T07:27:38Z</time>
      </trkpt>
      <trkpt lat="49.39206" lon="5.89017">
        <ele>360.7</ele>
        <time>2021-07-28T07:27:40Z</time>
      </trkpt>
      <trkpt lat="49.39202" lon="5.89018">
        <ele>360.8</ele>
        <time>2021-07-28T07:27:41Z</time>
      </trkpt>
      <trkpt lat="49.39196" lon="5.89019">
        <ele>361</ele>
        <time>2021-07-28T07:27:43Z</time>
      </trkpt>
      <trkpt lat="49.3919" lon="5.8902">
        <ele>361.3</ele>
        <time>2021-07-28T07:27:45Z</time>
      </trkpt>
      <trkpt lat="49.39186" lon="5.8902">
        <ele>361.4</ele>
        <time>2021-07-28T07:27:47Z</time>
      </trkpt>
      <trkpt lat="49.39182" lon="5.89022">
        <ele>361.6</ele>
        <time>2021-07-28T07:27:48Z</time>
      </trkpt>
      <trkpt lat="49.3918" lon="5.89022">
        <ele>361.7</ele>
        <time>2021-07-28T07:27:49Z</time>
      </trkpt>
      <trkpt lat="49.39174" lon="5.89024">
        <ele>361.9</ele>
        <time>2021-07-28T07:27:51Z</time>
      </trkpt>
      <trkpt lat="49.39172" lon="5.89025">
        <ele>362</ele>
        <time>2021-07-28T07:27:52Z</time>
      </trkpt>
      <trkpt lat="49.3917" lon="5.89025">
        <ele>362</ele>
        <time>2021-07-28T07:27:53Z</time>
      </trkpt>
      <trkpt lat="49.39166" lon="5.89026">
        <ele>362.2</ele>
        <time>2021-07-28T07:27:55Z</time>
      </trkpt>
      <trkpt lat="49.39163" lon="5.89026">
        <ele>362.3</ele>
        <time>2021-07-28T07:27:56Z</time>
      </trkpt>
      <trkpt lat="49.39157" lon="5.89025">
        <ele>362.6</ele>
        <time>2021-07-28T07:27:58Z</time>
      </trkpt>
      <trkpt lat="49.39154" lon="5.89024">
        <ele>362.7</ele>
        <time>2021-07-28T07:27:59Z</time>
      </trkpt>
      <trkpt lat="49.39149" lon="5.89023">
        <ele>362.9</ele>
        <time>2021-07-28T07:28:01Z</time>
      </trkpt>
      <trkpt lat="49.39144" lon="5.89023">
        <ele>363.1</ele>
        <time>2021-07-28T07:28:02Z</time>
      </trkpt>
      <trkpt lat="49.3914" lon="5.89021">
        <ele>363.3</ele>
        <time>2021-07-28T07:28:04Z</time>
      </trkpt>
      <trkpt lat="49.39136" lon="5.89021">
        <ele>363.4</ele>
        <time>2021-07-28T07:28:05Z</time>
      </trkpt>
      <trkpt lat="49.39133" lon="5.89022">
        <ele>363.5</ele>
        <time>2021-07-28T07:28:07Z</time>
      </trkpt>
      <trkpt lat="49.3913" lon="5.89021">
        <ele>363.6</ele>
        <time>2021-07-28T07:28:08Z</time>
      </trkpt>
      <trkpt lat="49.39126" lon="5.8902">
        <ele>363.8</ele>
        <time>2021-07-28T07:28:10Z</time>
      </trkpt>
      <trkpt lat="49.39122" lon="5.89018">
        <ele>363.9</ele>
        <time>2021-07-28T07:28:11Z</time>
      </trkpt>
      <trkpt lat="49.39121" lon="5.89018">
        <ele>364</ele>
        <time>2021-07-28T07:28:12Z</time>
      </trkpt>
      <trkpt lat="49.39118" lon="5.89018">
        <ele>364.1</ele>
        <time>2021-07-28T07:28:13Z</time>
      </trkpt>
      <trkpt lat="49.39113" lon="5.89016">
        <ele>364.3</ele>
        <time>2021-07-28T07:28:15Z</time>
      </trkpt>
      <trkpt lat="49.39109" lon="5.89014">
        <ele>364.4</ele>
        <time>2021-07-28T07:28:16Z</time>
      </trkpt>
      <trkpt lat="49.39103" lon="5.89014">
        <ele>364.7</ele>
        <time>2021-07-28T07:28:18Z</time>
      </trkpt>
      <trkpt lat="49.391" lon="5.89015">
        <ele>364.8</ele>
        <time>2021-07-28T07:28:20Z</time>
      </trkpt>
      <trkpt lat="49.39097" lon="5.89014">
        <ele>364.9</ele>
        <time>2021-07-28T07:28:21Z</time>
      </trkpt>
      <trkpt lat="49.39095" lon="5.89014">
        <ele>365</ele>
        <time>2021-07-28T07:28:22Z</time>
      </trkpt>
      <trkpt lat="49.39091" lon="5.89014">
        <ele>365.2</ele>
        <time>2021-07-28T07:28:24Z</time>
      </trkpt>
      <trkpt lat="49.39087" lon="5.89014">
        <ele>365.4</ele>
        <time>2021-07-28T07:28:25Z</time>
      </trkpt>
      <trkpt lat="49.39083" lon="5.89015">
        <ele>365.6</ele>
        <time>2021-07-28T07:28:27Z</time>
      </trkpt>
      <trkpt lat="49.39079" lon="5.89015">
        <ele>365.7</ele>
        <time>2021-07-28T07:28:28Z</time>
      </trkpt>
      <trkpt lat="49.39076" lon="5.89015">
        <ele>365.9</ele>
        <time>2021-07-28T07:28:29Z</time>
      </trkpt>
      <trkpt lat="49.39074" lon="5.89014">
        <ele>366</ele>
        <time>2021-07-28T07:28:30Z</time>
      </trkpt>
      <trkpt lat="49.39071" lon="5.89012">
        <ele>366.1</ele>
        <time>2021-07-28T07:28:32Z</time>
      </trkpt>
      <trkpt lat="49.39066" lon="5.89011">
        <ele>366.3</ele>
        <time>2021-07-28T07:28:33Z</time>
      </trkpt>
      <trkpt lat="49.39065" lon="5.89011">
        <ele>366.4</ele>
        <time>2021-07-28T07:28:34Z</time>
      </trkpt>
      <trkpt lat="49.39061" lon="5.89011">
        <ele>366.6</ele>
        <time>2021-07-28T07:28:36Z</time>
      </trkpt>
      <trkpt lat="49.39057" lon="5.89009">
        <ele>366.7</ele>
        <time>2021-07-28T07:28:37Z</time>
      </trkpt>
      <trkpt lat="49.39053" lon="5.89006">
        <ele>366.9</ele>
        <time>2021-07-28T07:28:39Z</time>
      </trkpt>
      <trkpt lat="49.3905" lon="5.89004">
        <ele>367</ele>
        <time>2021-07-28T07:28:40Z</time>
      </trkpt>
      <trkpt lat="49.39045" lon="5.89001">
        <ele>367.2</ele>
        <time>2021-07-28T07:28:42Z</time>
      </trkpt>
      <trkpt lat="49.39039" lon="5.88998">
        <ele>367.5</ele>
        <time>2021-07-28T07:28:43Z</time>
      </trkpt>
      <trkpt lat="49.39034" lon="5.88996">
        <ele>367.7</ele>
        <time>2021-07-28T07:28:45Z</time>
      </trkpt>
      <trkpt lat="49.39028" lon="5.88995">
        <ele>367.9</ele>
        <time>2021-07-28T07:28:47Z</time>
      </trkpt>
      <trkpt lat="49.39026" lon="5.88994">
        <ele>368</ele>
        <time>2021-07-28T07:28:48Z</time>
      </trkpt>
      <trkpt lat="49.39024" lon="5.88994">
        <ele>368.1</ele>
        <time>2021-07-28T07:28:49Z</time>
      </trkpt>
      <trkpt lat="49.39019" lon="5.88993">
        <ele>368.3</ele>
        <time>2021-07-28T07:28:51Z</time>
      </trkpt>
      <trkpt lat="49.39014" lon="5.88993">
        <ele>368.5</ele>
        <time>2021-07-28T07:28:52Z</time>
      </trkpt>
      <trkpt lat="49.3901" lon="5.88993">
        <ele>368.6</ele>
        <time>2021-07-28T07:28:54Z</time>
      </trkpt>
      <trkpt lat="49.39004" lon="5.88994">
        <ele>368.9</ele>
        <time>2021-07-28T07:28:56Z</time>
      </trkpt>
      <trkpt lat="49.39001" lon="5.88994">
        <ele>369</ele>
        <time>2021-07-28T07:28:57Z</time>
      </trkpt>
      <trkpt lat="49.38998" lon="5.88995">
        <ele>369.1</ele>
        <time>2021-07-28T07:28:58Z</time>
      </trkpt>
      <trkpt lat="49.38993" lon="5.88995">
        <ele>369.3</ele>
        <time>2021-07-28T07:28:59Z</time>
      </trkpt>
      <trkpt lat="49.3899" lon="5.88996">
        <ele>369.4</ele>
        <time>2021-07-28T07:29:01Z</time>
      </trkpt>
      <trkpt lat="49.38987" lon="5.88997">
        <ele>369.5</ele>
        <time>2021-07-28T07:29:02Z</time>
      </trkpt>
      <trkpt lat="49.38984" lon="5.88998">
        <ele>369.6</ele>
        <time>2021-07-28T07:29:03Z</time>
      </trkpt>
      <trkpt lat="49.38982" lon="5.88999">
        <ele>369.7</ele>
        <time>2021-07-28T07:29:04Z</time>
      </trkpt>
      <trkpt lat="49.38979" lon="5.88998">
        <ele>369.8</ele>
        <time>2021-07-28T07:29:06Z</time>
      </trkpt>
      <trkpt lat="49.38975" lon="5.88996">
        <ele>369.9</ele>
        <time>2021-07-28T07:29:07Z</time>
      </trkpt>
      <trkpt lat="49.38972" lon="5.88994">
        <ele>370.1</ele>
        <time>2021-07-28T07:29:09Z</time>
      </trkpt>
      <trkpt lat="49.38967" lon="5.88994">
        <ele>370.2</ele>
        <time>2021-07-28T07:29:10Z</time>
      </trkpt>
      <trkpt lat="49.38964" lon="5.88994">
        <ele>370.4</ele>
        <time>2021-07-28T07:29:12Z</time>
      </trkpt>
      <trkpt lat="49.38958" lon="5.88993">
        <ele>370.5</ele>
        <time>2021-07-28T07:29:13Z</time>
      </trkpt>
      <trkpt lat="49.38954" lon="5.88994">
        <ele>370.7</ele>
        <time>2021-07-28T07:29:15Z</time>
      </trkpt>
      <trkpt lat="49.3895" lon="5.88994">
        <ele>370.8</ele>
        <time>2021-07-28T07:29:17Z</time>
      </trkpt>
      <trkpt lat="49.38946" lon="5.88993">
        <ele>370.9</ele>
        <time>2021-07-28T07:29:18Z</time>
      </trkpt>
      <trkpt lat="49.38942" lon="5.88993">
        <ele>371.1</ele>
        <time>2021-07-28T07:29:20Z</time>
      </trkpt>
      <trkpt lat="49.38939" lon="5.88993">
        <ele>371.2</ele>
        <time>2021-07-28T07:29:21Z</time>
      </trkpt>
      <trkpt lat="49.38935" lon="5.88993">
        <ele>371.3</ele>
        <time>2021-07-28T07:29:22Z</time>
      </trkpt>
      <trkpt lat="49.38931" lon="5.88991">
        <ele>371.4</ele>
        <time>2021-07-28T07:29:24Z</time>
      </trkpt>
      <trkpt lat="49.38925" lon="5.8899">
        <ele>371.6</ele>
        <time>2021-07-28T07:29:25Z</time>
      </trkpt>
      <trkpt lat="49.38919" lon="5.88994">
        <ele>371.7</ele>
        <time>2021-07-28T07:29:27Z</time>
      </trkpt>
      <trkpt lat="49.38916" lon="5.88995">
        <ele>371.8</ele>
        <time>2021-07-28T07:29:28Z</time>
      </trkpt>
      <trkpt lat="49.3891" lon="5.88996">
        <ele>371.9</ele>
        <time>2021-07-28T07:29:30Z</time>
      </trkpt>
      <trkpt lat="49.38907" lon="5.88997">
        <ele>372</ele>
        <time>2021-07-28T07:29:31Z</time>
      </trkpt>
      <trkpt lat="49.389" lon="5.88999">
        <ele>372.1</ele>
        <time>2021-07-28T07:29:33Z</time>
      </trkpt>
      <trkpt lat="49.38896" lon="5.89">
        <ele>372.2</ele>
        <time>2021-07-28T07:29:35Z</time>
      </trkpt>
      <trkpt lat="49.38893" lon="5.89001">
        <ele>372.3</ele>
        <time>2021-07-28T07:29:36Z</time>
      </trkpt>
      <trkpt lat="49.38888" lon="5.89004">
        <ele>372.4</ele>
        <time>2021-07-28T07:29:37Z</time>
      </trkpt>
      <trkpt lat="49.38884" lon="5.89007">
        <ele>372.5</ele>
        <time>2021-07-28T07:29:39Z</time>
      </trkpt>
      <trkpt lat="49.3888" lon="5.89008">
        <ele>372.5</ele>
        <time>2021-07-28T07:29:40Z</time>
      </trkpt>
      <trkpt lat="49.38875" lon="5.8901">
        <ele>372.7</ele>
        <time>2021-07-28T07:29:41Z</time>
      </trkpt>
      <trkpt lat="49.3887" lon="5.89012">
        <ele>372.7</ele>
        <time>2021-07-28T07:29:43Z</time>
      </trkpt>
      <trkpt lat="49.38867" lon="5.89012">
        <ele>372.8</ele>
        <time>2021-07-28T07:29:44Z</time>
      </trkpt>
      <trkpt lat="49.38862" lon="5.89012">
        <ele>372.9</ele>
        <time>2021-07-28T07:29:46Z</time>
      </trkpt>
      <trkpt lat="49.38857" lon="5.89013">
        <ele>373</ele>
        <time>2021-07-28T07:29:47Z</time>
      </trkpt>
      <trkpt lat="49.38852" lon="5.89015">
        <ele>373.1</ele>
        <time>2021-07-28T07:29:49Z</time>
      </trkpt>
      <trkpt lat="49.3885" lon="5.89016">
        <ele>373.1</ele>
        <time>2021-07-28T07:29:50Z</time>
      </trkpt>
      <trkpt lat="49.38848" lon="5.89017">
        <ele>373.1</ele>
        <time>2021-07-28T07:29:51Z</time>
      </trkpt>
      <trkpt lat="49.38844" lon="5.89018">
        <ele>373.2</ele>
        <time>2021-07-28T07:29:52Z</time>
      </trkpt>
      <trkpt lat="49.3884" lon="5.8902">
        <ele>373.3</ele>
        <time>2021-07-28T07:29:54Z</time>
      </trkpt>
      <trkpt lat="49.38838" lon="5.89021">
        <ele>373.3</ele>
        <time>2021-07-28T07:29:55Z</time>
      </trkpt>
      <trkpt lat="49.38835" lon="5.89022">
        <ele>373.4</ele>
        <time>2021-07-28T07:29:56Z</time>
      </trkpt>
      <trkpt lat="49.38831" lon="5.89023">
        <ele>373.5</ele>
        <time>2021-07-28T07:29:57Z</time>
      </trkpt>
      <trkpt lat="49.38827" lon="5.89023">
        <ele>373.5</ele>
        <time>2021-07-28T07:29:59Z</time>
      </trkpt>
      <trkpt lat="49.38822" lon="5.89023">
        <ele>373.6</ele>
        <time>2021-07-28T07:30:00Z</time>
      </trkpt>
      <trkpt lat="49.38819" lon="5.89023">
        <ele>373.7</ele>
        <time>2021-07-28T07:30:01Z</time>
      </trkpt>
      <trkpt lat="49.38816" lon="5.89023">
        <ele>373.7</ele>
        <time>2021-07-28T07:30:02Z</time>
      </trkpt>
      <trkpt lat="49.38815" lon="5.89023">
        <ele>373.8</ele>
        <time>2021-07-28T07:30:03Z</time>
      </trkpt>
      <trkpt lat="49.38811" lon="5.89023">
        <ele>373.8</ele>
        <time>2021-07-28T07:30:04Z</time>
      </trkpt>
      <trkpt lat="49.3881" lon="5.89023">
        <ele>373.8</ele>
        <time>2021-07-28T07:30:05Z</time>
      </trkpt>
      <trkpt lat="49.38806" lon="5.89021">
        <ele>373.9</ele>
        <time>2021-07-28T07:30:06Z</time>
      </trkpt>
      <trkpt lat="49.38805" lon="5.89021">
        <ele>373.9</ele>
        <time>2021-07-28T07:30:07Z</time>
      </trkpt>
      <trkpt lat="49.38801" lon="5.89021">
        <ele>374</ele>
        <time>2021-07-28T07:30:08Z</time>
      </trkpt>
      <trkpt lat="49.388" lon="5.89021">
        <ele>374</ele>
        <time>2021-07-28T07:30:09Z</time>
      </trkpt>
      <trkpt lat="49.38796" lon="5.8902">
        <ele>374</ele>
        <time>2021-07-28T07:30:10Z</time>
      </trkpt>
      <trkpt lat="49.38794" lon="5.8902">
        <ele>374.1</ele>
        <time>2021-07-28T07:30:11Z</time>
      </trkpt>
      <trkpt lat="49.38791" lon="5.89019">
        <ele>374.1</ele>
        <time>2021-07-28T07:30:12Z</time>
      </trkpt>
      <trkpt lat="49.38787" lon="5.89019">
        <ele>374.2</ele>
        <time>2021-07-28T07:30:13Z</time>
      </trkpt>
      <trkpt lat="49.38782" lon="5.89019">
        <ele>374.2</ele>
        <time>2021-07-28T07:30:14Z</time>
      </trkpt>
      <trkpt lat="49.38778" lon="5.89021">
        <ele>374.3</ele>
        <time>2021-07-28T07:30:16Z</time>
      </trkpt>
      <trkpt lat="49.38772" lon="5.89023">
        <ele>374.4</ele>
        <time>2021-07-28T07:30:17Z</time>
      </trkpt>
      <trkpt lat="49.38768" lon="5.89024">
        <ele>374.5</ele>
        <time>2021-07-28T07:30:19Z</time>
      </trkpt>
      <trkpt lat="49.38764" lon="5.89024">
        <ele>374.5</ele>
        <time>2021-07-28T07:30:20Z</time>
      </trkpt>
      <trkpt lat="49.38761" lon="5.89024">
        <ele>374.6</ele>
        <time>2021-07-28T07:30:21Z</time>
      </trkpt>
      <trkpt lat="49.38758" lon="5.89024">
        <ele>374.7</ele>
        <time>2021-07-28T07:30:22Z</time>
      </trkpt>
      <trkpt lat="49.38755" lon="5.89024">
        <ele>374.7</ele>
        <time>2021-07-28T07:30:23Z</time>
      </trkpt>
      <trkpt lat="49.38752" lon="5.89025">
        <ele>374.8</ele>
        <time>2021-07-28T07:30:24Z</time>
      </trkpt>
      <trkpt lat="49.38749" lon="5.89026">
        <ele>374.8</ele>
        <time>2021-07-28T07:30:25Z</time>
      </trkpt>
      <trkpt lat="49.38743" lon="5.89029">
        <ele>374.9</ele>
        <time>2021-07-28T07:30:27Z</time>
      </trkpt>
      <trkpt lat="49.38741" lon="5.89029">
        <ele>375</ele>
        <time>2021-07-28T07:30:28Z</time>
      </trkpt>
      <trkpt lat="49.38735" lon="5.89029">
        <ele>375.1</ele>
        <time>2021-07-28T07:30:30Z</time>
      </trkpt>
      <trkpt lat="49.38732" lon="5.89029">
        <ele>375.2</ele>
        <time>2021-07-28T07:30:31Z</time>
      </trkpt>
      <trkpt lat="49.38726" lon="5.89031">
        <ele>375.3</ele>
        <time>2021-07-28T07:30:33Z</time>
      </trkpt>
      <trkpt lat="49.38722" lon="5.89033">
        <ele>375.4</ele>
        <time>2021-07-28T07:30:34Z</time>
      </trkpt>
      <trkpt lat="49.3872" lon="5.89033">
        <ele>375.4</ele>
        <time>2021-07-28T07:30:35Z</time>
      </trkpt>
      <trkpt lat="49.38717" lon="5.89033">
        <ele>375.5</ele>
        <time>2021-07-28T07:30:36Z</time>
      </trkpt>
      <trkpt lat="49.38716" lon="5.89033">
        <ele>375.5</ele>
        <time>2021-07-28T07:30:37Z</time>
      </trkpt>
      <trkpt lat="49.38713" lon="5.89033">
        <ele>375.6</ele>
        <time>2021-07-28T07:30:38Z</time>
      </trkpt>
      <trkpt lat="49.38711" lon="5.89033">
        <ele>375.6</ele>
        <time>2021-07-28T07:30:39Z</time>
      </trkpt>
      <trkpt lat="49.38708" lon="5.89033">
        <ele>375.7</ele>
        <time>2021-07-28T07:30:40Z</time>
      </trkpt>
      <trkpt lat="49.38705" lon="5.89033">
        <ele>375.8</ele>
        <time>2021-07-28T07:30:41Z</time>
      </trkpt>
      <trkpt lat="49.38702" lon="5.89034">
        <ele>375.9</ele>
        <time>2021-07-28T07:30:42Z</time>
      </trkpt>
      <trkpt lat="49.387" lon="5.89034">
        <ele>375.9</ele>
        <time>2021-07-28T07:30:43Z</time>
      </trkpt>
      <trkpt lat="49.38697" lon="5.89035">
        <ele>376</ele>
        <time>2021-07-28T07:30:45Z</time>
      </trkpt>
      <trkpt lat="49.38694" lon="5.89035">
        <ele>376.1</ele>
        <time>2021-07-28T07:30:46Z</time>
      </trkpt>
      <trkpt lat="49.38691" lon="5.89035">
        <ele>376.2</ele>
        <time>2021-07-28T07:30:47Z</time>
      </trkpt>
      <trkpt lat="49.38688" lon="5.89036">
        <ele>376.2</ele>
        <time>2021-07-28T07:30:48Z</time>
      </trkpt>
      <trkpt lat="49.38685" lon="5.89037">
        <ele>376.3</ele>
        <time>2021-07-28T07:30:49Z</time>
      </trkpt>
      <trkpt lat="49.3868" lon="5.89039">
        <ele>376.5</ele>
        <time>2021-07-28T07:30:51Z</time>
      </trkpt>
      <trkpt lat="49.38675" lon="5.8904">
        <ele>376.6</ele>
        <time>2021-07-28T07:30:52Z</time>
      </trkpt>
      <trkpt lat="49.38672" lon="5.89042">
        <ele>376.7</ele>
        <time>2021-07-28T07:30:54Z</time>
      </trkpt>
      <trkpt lat="49.38667" lon="5.89043">
        <ele>376.9</ele>
        <time>2021-07-28T07:30:55Z</time>
      </trkpt>
      <trkpt lat="49.38664" lon="5.89043">
        <ele>377</ele>
        <time>2021-07-28T07:30:56Z</time>
      </trkpt>
      <trkpt lat="49.3866" lon="5.89045">
        <ele>377.1</ele>
        <time>2021-07-28T07:30:58Z</time>
      </trkpt>
      <trkpt lat="49.38655" lon="5.89048">
        <ele>377.3</ele>
        <time>2021-07-28T07:31:00Z</time>
      </trkpt>
      <trkpt lat="49.38649" lon="5.89051">
        <ele>377.5</ele>
        <time>2021-07-28T07:31:02Z</time>
      </trkpt>
      <trkpt lat="49.38645" lon="5.89052">
        <ele>377.7</ele>
        <time>2021-07-28T07:31:04Z</time>
      </trkpt>
      <trkpt lat="49.38643" lon="5.89053">
        <ele>377.7</ele>
        <time>2021-07-28T07:31:05Z</time>
      </trkpt>
      <trkpt lat="49.38642" lon="5.89052">
        <ele>377.8</ele>
        <time>2021-07-28T07:31:06Z</time>
      </trkpt>
      <trkpt lat="49.38638" lon="5.89054">
        <ele>377.9</ele>
        <time>2021-07-28T07:31:07Z</time>
      </trkpt>
      <trkpt lat="49.38637" lon="5.89055">
        <ele>378</ele>
        <time>2021-07-28T07:31:08Z</time>
      </trkpt>
      <trkpt lat="49.38633" lon="5.89057">
        <ele>378.1</ele>
        <time>2021-07-28T07:31:09Z</time>
      </trkpt>
      <trkpt lat="49.38632" lon="5.89057">
        <ele>378.2</ele>
        <time>2021-07-28T07:31:10Z</time>
      </trkpt>
      <trkpt lat="49.3863" lon="5.89059">
        <ele>378.3</ele>
        <time>2021-07-28T07:31:11Z</time>
      </trkpt>
      <trkpt lat="49.38626" lon="5.89061">
        <ele>378.4</ele>
        <time>2021-07-28T07:31:12Z</time>
      </trkpt>
      <trkpt lat="49.38625" lon="5.89062">
        <ele>378.5</ele>
        <time>2021-07-28T07:31:13Z</time>
      </trkpt>
      <trkpt lat="49.38622" lon="5.89063">
        <ele>378.6</ele>
        <time>2021-07-28T07:31:14Z</time>
      </trkpt>
      <trkpt lat="49.38619" lon="5.89065">
        <ele>378.7</ele>
        <time>2021-07-28T07:31:16Z</time>
      </trkpt>
      <trkpt lat="49.38615" lon="5.89067">
        <ele>378.8</ele>
        <time>2021-07-28T07:31:17Z</time>
      </trkpt>
      <trkpt lat="49.3861" lon="5.89069">
        <ele>379.1</ele>
        <time>2021-07-28T07:31:19Z</time>
      </trkpt>
      <trkpt lat="49.38605" lon="5.89071">
        <ele>379.3</ele>
        <time>2021-07-28T07:31:21Z</time>
      </trkpt>
      <trkpt lat="49.38602" lon="5.89072">
        <ele>379.4</ele>
        <time>2021-07-28T07:31:22Z</time>
      </trkpt>
      <trkpt lat="49.386" lon="5.89073">
        <ele>379.5</ele>
        <time>2021-07-28T07:31:24Z</time>
      </trkpt>
      <trkpt lat="49.38597" lon="5.89074">
        <ele>379.7</ele>
        <time>2021-07-28T07:31:25Z</time>
      </trkpt>
      <trkpt lat="49.38596" lon="5.89075">
        <ele>379.7</ele>
        <time>2021-07-28T07:31:26Z</time>
      </trkpt>
      <trkpt lat="49.38592" lon="5.89076">
        <ele>379.9</ele>
        <time>2021-07-28T07:31:27Z</time>
      </trkpt>
      <trkpt lat="49.38591" lon="5.89076">
        <ele>379.9</ele>
        <time>2021-07-28T07:31:28Z</time>
      </trkpt>
      <trkpt lat="49.38588" lon="5.89078">
        <ele>380.1</ele>
        <time>2021-07-28T07:31:29Z</time>
      </trkpt>
      <trkpt lat="49.38587" lon="5.89078">
        <ele>380.1</ele>
        <time>2021-07-28T07:31:30Z</time>
      </trkpt>
      <trkpt lat="49.38584" lon="5.89081">
        <ele>380.3</ele>
        <time>2021-07-28T07:31:31Z</time>
      </trkpt>
      <trkpt lat="49.38583" lon="5.89082">
        <ele>380.3</ele>
        <time>2021-07-28T07:31:32Z</time>
      </trkpt>
      <trkpt lat="49.3858" lon="5.89084">
        <ele>380.4</ele>
        <time>2021-07-28T07:31:33Z</time>
      </trkpt>
      <trkpt lat="49.38578" lon="5.89087">
        <ele>380.6</ele>
        <time>2021-07-28T07:31:34Z</time>
      </trkpt>
      <trkpt lat="49.38574" lon="5.8909">
        <ele>380.8</ele>
        <time>2021-07-28T07:31:35Z</time>
      </trkpt>
      <trkpt lat="49.3857" lon="5.89093">
        <ele>381</ele>
        <time>2021-07-28T07:31:37Z</time>
      </trkpt>
      <trkpt lat="49.38569" lon="5.89094">
        <ele>381</ele>
        <time>2021-07-28T07:31:38Z</time>
      </trkpt>
      <trkpt lat="49.38568" lon="5.89095">
        <ele>381.1</ele>
        <time>2021-07-28T07:31:39Z</time>
      </trkpt>
      <trkpt lat="49.38565" lon="5.89097">
        <ele>381.2</ele>
        <time>2021-07-28T07:31:40Z</time>
      </trkpt>
      <trkpt lat="49.38561" lon="5.891">
        <ele>381.4</ele>
        <time>2021-07-28T07:31:41Z</time>
      </trkpt>
      <trkpt lat="49.3856" lon="5.89101">
        <ele>381.5</ele>
        <time>2021-07-28T07:31:42Z</time>
      </trkpt>
      <trkpt lat="49.38557" lon="5.89103">
        <ele>381.6</ele>
        <time>2021-07-28T07:31:43Z</time>
      </trkpt>
      <trkpt lat="49.38555" lon="5.89105">
        <ele>381.7</ele>
        <time>2021-07-28T07:31:44Z</time>
      </trkpt>
      <trkpt lat="49.38552" lon="5.89107">
        <ele>381.8</ele>
        <time>2021-07-28T07:31:45Z</time>
      </trkpt>
      <trkpt lat="49.38551" lon="5.89108">
        <ele>381.9</ele>
        <time>2021-07-28T07:31:46Z</time>
      </trkpt>
      <trkpt lat="49.38547" lon="5.8911">
        <ele>382</ele>
        <time>2021-07-28T07:31:47Z</time>
      </trkpt>
      <trkpt lat="49.38546" lon="5.89111">
        <ele>382</ele>
        <time>2021-07-28T07:31:48Z</time>
      </trkpt>
      <trkpt lat="49.38544" lon="5.89113">
        <ele>382.1</ele>
        <time>2021-07-28T07:31:49Z</time>
      </trkpt>
      <trkpt lat="49.38541" lon="5.89116">
        <ele>382.3</ele>
        <time>2021-07-28T07:31:50Z</time>
      </trkpt>
      <trkpt lat="49.38539" lon="5.89116">
        <ele>382.3</ele>
        <time>2021-07-28T07:31:51Z</time>
      </trkpt>
      <trkpt lat="49.38537" lon="5.89115">
        <ele>382.4</ele>
        <time>2021-07-28T07:31:52Z</time>
      </trkpt>
      <trkpt lat="49.38536" lon="5.89115">
        <ele>382.5</ele>
        <time>2021-07-28T07:31:53Z</time>
      </trkpt>
      <trkpt lat="49.38531" lon="5.89115">
        <ele>382.6</ele>
        <time>2021-07-28T07:31:55Z</time>
      </trkpt>
      <trkpt lat="49.38528" lon="5.89117">
        <ele>382.8</ele>
        <time>2021-07-28T07:31:56Z</time>
      </trkpt>
      <trkpt lat="49.38527" lon="5.89118">
        <ele>382.8</ele>
        <time>2021-07-28T07:31:57Z</time>
      </trkpt>
      <trkpt lat="49.38524" lon="5.89119">
        <ele>382.9</ele>
        <time>2021-07-28T07:31:58Z</time>
      </trkpt>
      <trkpt lat="49.38521" lon="5.8912">
        <ele>383</ele>
        <time>2021-07-28T07:32:00Z</time>
      </trkpt>
      <trkpt lat="49.38519" lon="5.89123">
        <ele>383.1</ele>
        <time>2021-07-28T07:32:01Z</time>
      </trkpt>
      <trkpt lat="49.38515" lon="5.89125">
        <ele>383.2</ele>
        <time>2021-07-28T07:32:02Z</time>
      </trkpt>
      <trkpt lat="49.38512" lon="5.89127">
        <ele>383.3</ele>
        <time>2021-07-28T07:32:03Z</time>
      </trkpt>
      <trkpt lat="49.38508" lon="5.89128">
        <ele>383.4</ele>
        <time>2021-07-28T07:32:04Z</time>
      </trkpt>
      <trkpt lat="49.38504" lon="5.8913">
        <ele>383.6</ele>
        <time>2021-07-28T07:32:06Z</time>
      </trkpt>
      <trkpt lat="49.38501" lon="5.89132">
        <ele>383.7</ele>
        <time>2021-07-28T07:32:07Z</time>
      </trkpt>
      <trkpt lat="49.38498" lon="5.89132">
        <ele>383.8</ele>
        <time>2021-07-28T07:32:08Z</time>
      </trkpt>
      <trkpt lat="49.38494" lon="5.89132">
        <ele>383.9</ele>
        <time>2021-07-28T07:32:09Z</time>
      </trkpt>
      <trkpt lat="49.38493" lon="5.89132">
        <ele>383.9</ele>
        <time>2021-07-28T07:32:10Z</time>
      </trkpt>
      <trkpt lat="49.38489" lon="5.89135">
        <ele>384.1</ele>
        <time>2021-07-28T07:32:12Z</time>
      </trkpt>
      <trkpt lat="49.38486" lon="5.89136">
        <ele>384.2</ele>
        <time>2021-07-28T07:32:13Z</time>
      </trkpt>
      <trkpt lat="49.38481" lon="5.89138">
        <ele>384.3</ele>
        <time>2021-07-28T07:32:14Z</time>
      </trkpt>
      <trkpt lat="49.3848" lon="5.89139">
        <ele>384.4</ele>
        <time>2021-07-28T07:32:15Z</time>
      </trkpt>
      <trkpt lat="49.38475" lon="5.89141">
        <ele>384.5</ele>
        <time>2021-07-28T07:32:17Z</time>
      </trkpt>
      <trkpt lat="49.38473" lon="5.89143">
        <ele>384.5</ele>
        <time>2021-07-28T07:32:18Z</time>
      </trkpt>
      <trkpt lat="49.38469" lon="5.89146">
        <ele>384.6</ele>
        <time>2021-07-28T07:32:20Z</time>
      </trkpt>
      <trkpt lat="49.38466" lon="5.89149">
        <ele>384.7</ele>
        <time>2021-07-28T07:32:21Z</time>
      </trkpt>
      <trkpt lat="49.38462" lon="5.89152">
        <ele>384.8</ele>
        <time>2021-07-28T07:32:22Z</time>
      </trkpt>
      <trkpt lat="49.38459" lon="5.89155">
        <ele>384.9</ele>
        <time>2021-07-28T07:32:24Z</time>
      </trkpt>
      <trkpt lat="49.38456" lon="5.89157">
        <ele>385</ele>
        <time>2021-07-28T07:32:25Z</time>
      </trkpt>
      <trkpt lat="49.38452" lon="5.8916">
        <ele>385.1</ele>
        <time>2021-07-28T07:32:27Z</time>
      </trkpt>
      <trkpt lat="49.3845" lon="5.89162">
        <ele>385.2</ele>
        <time>2021-07-28T07:32:28Z</time>
      </trkpt>
      <trkpt lat="49.38446" lon="5.89163">
        <ele>385.2</ele>
        <time>2021-07-28T07:32:29Z</time>
      </trkpt>
      <trkpt lat="49.38442" lon="5.89164">
        <ele>385.3</ele>
        <time>2021-07-28T07:32:31Z</time>
      </trkpt>
      <trkpt lat="49.38439" lon="5.89166">
        <ele>385.4</ele>
        <time>2021-07-28T07:32:33Z</time>
      </trkpt>
      <trkpt lat="49.38436" lon="5.89167">
        <ele>385.5</ele>
        <time>2021-07-28T07:32:34Z</time>
      </trkpt>
      <trkpt lat="49.38431" lon="5.89169">
        <ele>385.6</ele>
        <time>2021-07-28T07:32:36Z</time>
      </trkpt>
      <trkpt lat="49.38427" lon="5.89173">
        <ele>385.7</ele>
        <time>2021-07-28T07:32:38Z</time>
      </trkpt>
      <trkpt lat="49.38422" lon="5.89175">
        <ele>385.8</ele>
        <time>2021-07-28T07:32:39Z</time>
      </trkpt>
      <trkpt lat="49.38419" lon="5.89176">
        <ele>385.9</ele>
        <time>2021-07-28T07:32:41Z</time>
      </trkpt>
      <trkpt lat="49.38416" lon="5.89178">
        <ele>385.9</ele>
        <time>2021-07-28T07:32:42Z</time>
      </trkpt>
      <trkpt lat="49.38413" lon="5.89179">
        <ele>386</ele>
        <time>2021-07-28T07:32:43Z</time>
      </trkpt>
      <trkpt lat="49.38408" lon="5.89182">
        <ele>386.1</ele>
        <time>2021-07-28T07:32:45Z</time>
      </trkpt>
      <trkpt lat="49.38404" lon="5.89186">
        <ele>386.2</ele>
        <time>2021-07-28T07:32:46Z</time>
      </trkpt>
      <trkpt lat="49.384" lon="5.89189">
        <ele>386.3</ele>
        <time>2021-07-28T07:32:48Z</time>
      </trkpt>
      <trkpt lat="49.38398" lon="5.89192">
        <ele>386.3</ele>
        <time>2021-07-28T07:32:49Z</time>
      </trkpt>
      <trkpt lat="49.38391" lon="5.89198">
        <ele>386.4</ele>
        <time>2021-07-28T07:32:51Z</time>
      </trkpt>
      <trkpt lat="49.38385" lon="5.89204">
        <ele>386.5</ele>
        <time>2021-07-28T07:32:52Z</time>
      </trkpt>
      <trkpt lat="49.3838" lon="5.89207">
        <ele>386.6</ele>
        <time>2021-07-28T07:32:54Z</time>
      </trkpt>
      <trkpt lat="49.38377" lon="5.89209">
        <ele>386.6</ele>
        <time>2021-07-28T07:32:55Z</time>
      </trkpt>
      <trkpt lat="49.38371" lon="5.89213">
        <ele>386.7</ele>
        <time>2021-07-28T07:32:56Z</time>
      </trkpt>
      <trkpt lat="49.38365" lon="5.89218">
        <ele>386.7</ele>
        <time>2021-07-28T07:32:58Z</time>
      </trkpt>
      <trkpt lat="49.38365" lon="5.89222">
        <ele>386.7</ele>
        <time>2021-07-28T07:32:59Z</time>
      </trkpt>
      <trkpt lat="49.3836" lon="5.89225">
        <ele>386.7</ele>
        <time>2021-07-28T07:33:01Z</time>
      </trkpt>
      <trkpt lat="49.38355" lon="5.89228">
        <ele>386.7</ele>
        <time>2021-07-28T07:33:02Z</time>
      </trkpt>
      <trkpt lat="49.3835" lon="5.89231">
        <ele>386.7</ele>
        <time>2021-07-28T07:33:03Z</time>
      </trkpt>
      <trkpt lat="49.38342" lon="5.89236">
        <ele>386.6</ele>
        <time>2021-07-28T07:33:05Z</time>
      </trkpt>
      <trkpt lat="49.38335" lon="5.89238">
        <ele>386.6</ele>
        <time>2021-07-28T07:33:06Z</time>
      </trkpt>
      <trkpt lat="49.38329" lon="5.8924">
        <ele>386.6</ele>
        <time>2021-07-28T07:33:08Z</time>
      </trkpt>
      <trkpt lat="49.38325" lon="5.89242">
        <ele>386.6</ele>
        <time>2021-07-28T07:33:09Z</time>
      </trkpt>
      <trkpt lat="49.3832" lon="5.89244">
        <ele>386.5</ele>
        <time>2021-07-28T07:33:10Z</time>
      </trkpt>
      <trkpt lat="49.38315" lon="5.89251">
        <ele>386.5</ele>
        <time>2021-07-28T07:33:11Z</time>
      </trkpt>
      <trkpt lat="49.38308" lon="5.89252">
        <ele>386.5</ele>
        <time>2021-07-28T07:33:13Z</time>
      </trkpt>
      <trkpt lat="49.38303" lon="5.89253">
        <ele>386.5</ele>
        <time>2021-07-28T07:33:14Z</time>
      </trkpt>
      <trkpt lat="49.38296" lon="5.89255">
        <ele>386.5</ele>
        <time>2021-07-28T07:33:16Z</time>
      </trkpt>
      <trkpt lat="49.38291" lon="5.89256">
        <ele>386.5</ele>
        <time>2021-07-28T07:33:17Z</time>
      </trkpt>
      <trkpt lat="49.38284" lon="5.89259">
        <ele>386.5</ele>
        <time>2021-07-28T07:33:19Z</time>
      </trkpt>
      <trkpt lat="49.38276" lon="5.89262">
        <ele>386.6</ele>
        <time>2021-07-28T07:33:21Z</time>
      </trkpt>
      <trkpt lat="49.38268" lon="5.89265">
        <ele>386.6</ele>
        <time>2021-07-28T07:33:22Z</time>
      </trkpt>
      <trkpt lat="49.3826" lon="5.89267">
        <ele>386.7</ele>
        <time>2021-07-28T07:33:24Z</time>
      </trkpt>
      <trkpt lat="49.38253" lon="5.89269">
        <ele>386.7</ele>
        <time>2021-07-28T07:33:26Z</time>
      </trkpt>
      <trkpt lat="49.38247" lon="5.8927">
        <ele>386.8</ele>
        <time>2021-07-28T07:33:28Z</time>
      </trkpt>
      <trkpt lat="49.38243" lon="5.89272">
        <ele>386.8</ele>
        <time>2021-07-28T07:33:29Z</time>
      </trkpt>
      <trkpt lat="49.38239" lon="5.89273">
        <ele>386.8</ele>
        <time>2021-07-28T07:33:30Z</time>
      </trkpt>
      <trkpt lat="49.38234" lon="5.89275">
        <ele>386.8</ele>
        <time>2021-07-28T07:33:31Z</time>
      </trkpt>
      <trkpt lat="49.38229" lon="5.89276">
        <ele>386.8</ele>
        <time>2021-07-28T07:33:32Z</time>
      </trkpt>
      <trkpt lat="49.38221" lon="5.89278">
        <ele>386.8</ele>
        <time>2021-07-28T07:33:34Z</time>
      </trkpt>
      <trkpt lat="49.38215" lon="5.8928">
        <ele>386.7</ele>
        <time>2021-07-28T07:33:35Z</time>
      </trkpt>
      <trkpt lat="49.38209" lon="5.8928">
        <ele>386.6</ele>
        <time>2021-07-28T07:33:37Z</time>
      </trkpt>
      <trkpt lat="49.382" lon="5.89281">
        <ele>386.4</ele>
        <time>2021-07-28T07:33:39Z</time>
      </trkpt>
      <trkpt lat="49.38193" lon="5.89281">
        <ele>386.2</ele>
        <time>2021-07-28T07:33:40Z</time>
      </trkpt>
      <trkpt lat="49.38185" lon="5.89282">
        <ele>385.9</ele>
        <time>2021-07-28T07:33:42Z</time>
      </trkpt>
      <trkpt lat="49.3818" lon="5.89282">
        <ele>385.7</ele>
        <time>2021-07-28T07:33:44Z</time>
      </trkpt>
      <trkpt lat="49.38175" lon="5.89283">
        <ele>385.5</ele>
        <time>2021-07-28T07:33:45Z</time>
      </trkpt>
      <trkpt lat="49.38167" lon="5.89283">
        <ele>385.3</ele>
        <time>2021-07-28T07:33:47Z</time>
      </trkpt>
      <trkpt lat="49.38163" lon="5.89282">
        <ele>385.1</ele>
        <time>2021-07-28T07:33:48Z</time>
      </trkpt>
      <trkpt lat="49.38151" lon="5.89279">
        <ele>384.7</ele>
        <time>2021-07-28T07:33:50Z</time>
      </trkpt>
      <trkpt lat="49.38145" lon="5.89279">
        <ele>384.4</ele>
        <time>2021-07-28T07:33:51Z</time>
      </trkpt>
      <trkpt lat="49.38139" lon="5.8928">
        <ele>384.2</ele>
        <time>2021-07-28T07:33:52Z</time>
      </trkpt>
      <trkpt lat="49.38127" lon="5.89281">
        <ele>383.6</ele>
        <time>2021-07-28T07:33:54Z</time>
      </trkpt>
      <trkpt lat="49.38121" lon="5.89281">
        <ele>383.3</ele>
        <time>2021-07-28T07:33:55Z</time>
      </trkpt>
      <trkpt lat="49.38115" lon="5.89282">
        <ele>383.1</ele>
        <time>2021-07-28T07:33:56Z</time>
      </trkpt>
      <trkpt lat="49.38104" lon="5.89284">
        <ele>382.6</ele>
        <time>2021-07-28T07:33:58Z</time>
      </trkpt>
      <trkpt lat="49.38098" lon="5.89283">
        <ele>382.3</ele>
        <time>2021-07-28T07:33:59Z</time>
      </trkpt>
      <trkpt lat="49.38086" lon="5.89282">
        <ele>381.8</ele>
        <time>2021-07-28T07:34:01Z</time>
      </trkpt>
      <trkpt lat="49.3808" lon="5.89281">
        <ele>381.6</ele>
        <time>2021-07-28T07:34:02Z</time>
      </trkpt>
      <trkpt lat="49.38074" lon="5.8928">
        <ele>381.4</ele>
        <time>2021-07-28T07:34:03Z</time>
      </trkpt>
      <trkpt lat="49.38068" lon="5.89278">
        <ele>381.1</ele>
        <time>2021-07-28T07:34:04Z</time>
      </trkpt>
      <trkpt lat="49.38062" lon="5.89277">
        <ele>380.9</ele>
        <time>2021-07-28T07:34:05Z</time>
      </trkpt>
      <trkpt lat="49.38056" lon="5.89276">
        <ele>380.6</ele>
        <time>2021-07-28T07:34:06Z</time>
      </trkpt>
      <trkpt lat="49.3805" lon="5.89276">
        <ele>380.3</ele>
        <time>2021-07-28T07:34:07Z</time>
      </trkpt>
      <trkpt lat="49.38037" lon="5.89275">
        <ele>379.8</ele>
        <time>2021-07-28T07:34:09Z</time>
      </trkpt>
      <trkpt lat="49.38031" lon="5.89275">
        <ele>379.5</ele>
        <time>2021-07-28T07:34:10Z</time>
      </trkpt>
      <trkpt lat="49.38025" lon="5.89275">
        <ele>379.2</ele>
        <time>2021-07-28T07:34:11Z</time>
      </trkpt>
      <trkpt lat="49.3802" lon="5.89275">
        <ele>379</ele>
        <time>2021-07-28T07:34:12Z</time>
      </trkpt>
      <trkpt lat="49.38007" lon="5.89276">
        <ele>378.5</ele>
        <time>2021-07-28T07:34:14Z</time>
      </trkpt>
      <trkpt lat="49.38001" lon="5.89276">
        <ele>378.2</ele>
        <time>2021-07-28T07:34:15Z</time>
      </trkpt>
      <trkpt lat="49.37988" lon="5.89278">
        <ele>377.7</ele>
        <time>2021-07-28T07:34:17Z</time>
      </trkpt>
      <trkpt lat="49.37981" lon="5.89279">
        <ele>377.5</ele>
        <time>2021-07-28T07:34:18Z</time>
      </trkpt>
      <trkpt lat="49.37968" lon="5.89282">
        <ele>377</ele>
        <time>2021-07-28T07:34:20Z</time>
      </trkpt>
      <trkpt lat="49.37962" lon="5.89283">
        <ele>376.7</ele>
        <time>2021-07-28T07:34:21Z</time>
      </trkpt>
      <trkpt lat="49.37949" lon="5.89285">
        <ele>376.3</ele>
        <time>2021-07-28T07:34:23Z</time>
      </trkpt>
      <trkpt lat="49.37942" lon="5.89286">
        <ele>376.1</ele>
        <time>2021-07-28T07:34:24Z</time>
      </trkpt>
      <trkpt lat="49.37929" lon="5.89289">
        <ele>375.6</ele>
        <time>2021-07-28T07:34:26Z</time>
      </trkpt>
      <trkpt lat="49.37916" lon="5.89291">
        <ele>375.1</ele>
        <time>2021-07-28T07:34:28Z</time>
      </trkpt>
      <trkpt lat="49.37909" lon="5.89292">
        <ele>374.8</ele>
        <time>2021-07-28T07:34:29Z</time>
      </trkpt>
      <trkpt lat="49.37903" lon="5.89293">
        <ele>374.6</ele>
        <time>2021-07-28T07:34:30Z</time>
      </trkpt>
      <trkpt lat="49.37897" lon="5.89294">
        <ele>374.4</ele>
        <time>2021-07-28T07:34:31Z</time>
      </trkpt>
      <trkpt lat="49.37884" lon="5.89298">
        <ele>374</ele>
        <time>2021-07-28T07:34:33Z</time>
      </trkpt>
      <trkpt lat="49.37871" lon="5.89302">
        <ele>373.6</ele>
        <time>2021-07-28T07:34:35Z</time>
      </trkpt>
      <trkpt lat="49.37864" lon="5.89304">
        <ele>373.5</ele>
        <time>2021-07-28T07:34:36Z</time>
      </trkpt>
      <trkpt lat="49.37857" lon="5.89304">
        <ele>373.3</ele>
        <time>2021-07-28T07:34:37Z</time>
      </trkpt>
      <trkpt lat="49.37844" lon="5.89305">
        <ele>373</ele>
        <time>2021-07-28T07:34:39Z</time>
      </trkpt>
      <trkpt lat="49.37831" lon="5.89304">
        <ele>372.8</ele>
        <time>2021-07-28T07:34:41Z</time>
      </trkpt>
      <trkpt lat="49.37819" lon="5.89303">
        <ele>372.5</ele>
        <time>2021-07-28T07:34:43Z</time>
      </trkpt>
      <trkpt lat="49.37806" lon="5.89304">
        <ele>372.3</ele>
        <time>2021-07-28T07:34:45Z</time>
      </trkpt>
      <trkpt lat="49.37794" lon="5.89304">
        <ele>372.1</ele>
        <time>2021-07-28T07:34:47Z</time>
      </trkpt>
      <trkpt lat="49.37782" lon="5.89303">
        <ele>371.9</ele>
        <time>2021-07-28T07:34:49Z</time>
      </trkpt>
      <trkpt lat="49.3777" lon="5.89304">
        <ele>371.6</ele>
        <time>2021-07-28T07:34:51Z</time>
      </trkpt>
      <trkpt lat="49.37758" lon="5.89305">
        <ele>371.3</ele>
        <time>2021-07-28T07:34:53Z</time>
      </trkpt>
      <trkpt lat="49.37752" lon="5.89306">
        <ele>371.2</ele>
        <time>2021-07-28T07:34:54Z</time>
      </trkpt>
      <trkpt lat="49.37741" lon="5.89309">
        <ele>370.8</ele>
        <time>2021-07-28T07:34:56Z</time>
      </trkpt>
      <trkpt lat="49.3773" lon="5.89313">
        <ele>370.2</ele>
        <time>2021-07-28T07:34:58Z</time>
      </trkpt>
      <trkpt lat="49.37724" lon="5.89317">
        <ele>370</ele>
        <time>2021-07-28T07:34:59Z</time>
      </trkpt>
      <trkpt lat="49.37713" lon="5.89322">
        <ele>369.6</ele>
        <time>2021-07-28T07:35:01Z</time>
      </trkpt>
      <trkpt lat="49.37707" lon="5.89326">
        <ele>369.4</ele>
        <time>2021-07-28T07:35:02Z</time>
      </trkpt>
      <trkpt lat="49.37695" lon="5.89334">
        <ele>368.8</ele>
        <time>2021-07-28T07:35:04Z</time>
      </trkpt>
      <trkpt lat="49.37689" lon="5.89338">
        <ele>368.5</ele>
        <time>2021-07-28T07:35:05Z</time>
      </trkpt>
      <trkpt lat="49.37684" lon="5.89343">
        <ele>368.2</ele>
        <time>2021-07-28T07:35:06Z</time>
      </trkpt>
      <trkpt lat="49.37677" lon="5.89347">
        <ele>367.8</ele>
        <time>2021-07-28T07:35:07Z</time>
      </trkpt>
      <trkpt lat="49.37663" lon="5.89356">
        <ele>367</ele>
        <time>2021-07-28T07:35:09Z</time>
      </trkpt>
      <trkpt lat="49.3765" lon="5.89365">
        <ele>366.3</ele>
        <time>2021-07-28T07:35:11Z</time>
      </trkpt>
      <trkpt lat="49.37636" lon="5.89373">
        <ele>365.6</ele>
        <time>2021-07-28T07:35:13Z</time>
      </trkpt>
      <trkpt lat="49.3762" lon="5.89379">
        <ele>364.8</ele>
        <time>2021-07-28T07:35:15Z</time>
      </trkpt>
      <trkpt lat="49.37604" lon="5.89386">
        <ele>364</ele>
        <time>2021-07-28T07:35:17Z</time>
      </trkpt>
      <trkpt lat="49.37595" lon="5.89389">
        <ele>363.6</ele>
        <time>2021-07-28T07:35:18Z</time>
      </trkpt>
      <trkpt lat="49.37575" lon="5.89388">
        <ele>362.7</ele>
        <time>2021-07-28T07:35:20Z</time>
      </trkpt>
      <trkpt lat="49.37567" lon="5.89391">
        <ele>362.3</ele>
        <time>2021-07-28T07:35:21Z</time>
      </trkpt>
      <trkpt lat="49.3755" lon="5.89397">
        <ele>361.6</ele>
        <time>2021-07-28T07:35:23Z</time>
      </trkpt>
      <trkpt lat="49.37541" lon="5.89397">
        <ele>361.2</ele>
        <time>2021-07-28T07:35:24Z</time>
      </trkpt>
      <trkpt lat="49.37525" lon="5.89403">
        <ele>360.6</ele>
        <time>2021-07-28T07:35:26Z</time>
      </trkpt>
      <trkpt lat="49.37517" lon="5.89406">
        <ele>360.3</ele>
        <time>2021-07-28T07:35:27Z</time>
      </trkpt>
      <trkpt lat="49.37502" lon="5.89413">
        <ele>359.9</ele>
        <time>2021-07-28T07:35:29Z</time>
      </trkpt>
      <trkpt lat="49.37494" lon="5.89415">
        <ele>359.7</ele>
        <time>2021-07-28T07:35:30Z</time>
      </trkpt>
      <trkpt lat="49.37478" lon="5.8942">
        <ele>359.4</ele>
        <time>2021-07-28T07:35:32Z</time>
      </trkpt>
      <trkpt lat="49.3747" lon="5.89424">
        <ele>359.4</ele>
        <time>2021-07-28T07:35:33Z</time>
      </trkpt>
      <trkpt lat="49.37463" lon="5.89426">
        <ele>359.3</ele>
        <time>2021-07-28T07:35:34Z</time>
      </trkpt>
      <trkpt lat="49.37455" lon="5.89429">
        <ele>359.3</ele>
        <time>2021-07-28T07:35:35Z</time>
      </trkpt>
      <trkpt lat="49.37449" lon="5.89432">
        <ele>359.3</ele>
        <time>2021-07-28T07:35:36Z</time>
      </trkpt>
      <trkpt lat="49.37442" lon="5.89435">
        <ele>359.3</ele>
        <time>2021-07-28T07:35:37Z</time>
      </trkpt>
      <trkpt lat="49.37428" lon="5.89441">
        <ele>359.4</ele>
        <time>2021-07-28T07:35:39Z</time>
      </trkpt>
      <trkpt lat="49.37422" lon="5.89443">
        <ele>359.5</ele>
        <time>2021-07-28T07:35:40Z</time>
      </trkpt>
      <trkpt lat="49.3741" lon="5.8945">
        <ele>359.6</ele>
        <time>2021-07-28T07:35:42Z</time>
      </trkpt>
      <trkpt lat="49.37398" lon="5.89455">
        <ele>359.7</ele>
        <time>2021-07-28T07:35:44Z</time>
      </trkpt>
      <trkpt lat="49.37389" lon="5.89456">
        <ele>359.8</ele>
        <time>2021-07-28T07:35:46Z</time>
      </trkpt>
      <trkpt lat="49.37384" lon="5.89458">
        <ele>359.9</ele>
        <time>2021-07-28T07:35:47Z</time>
      </trkpt>
      <trkpt lat="49.3738" lon="5.89459">
        <ele>359.9</ele>
        <time>2021-07-28T07:35:48Z</time>
      </trkpt>
      <trkpt lat="49.37378" lon="5.89459">
        <ele>359.9</ele>
        <time>2021-07-28T07:35:49Z</time>
      </trkpt>
      <trkpt lat="49.3737" lon="5.89461">
        <ele>360.1</ele>
        <time>2021-07-28T07:35:51Z</time>
      </trkpt>
      <trkpt lat="49.37361" lon="5.89463">
        <ele>360.2</ele>
        <time>2021-07-28T07:35:53Z</time>
      </trkpt>
      <trkpt lat="49.37352" lon="5.89461">
        <ele>360.2</ele>
        <time>2021-07-28T07:35:55Z</time>
      </trkpt>
      <trkpt lat="49.3735" lon="5.89462">
        <ele>360.2</ele>
        <time>2021-07-28T07:35:56Z</time>
      </trkpt>
      <trkpt lat="49.37346" lon="5.89457">
        <ele>360.3</ele>
        <time>2021-07-28T07:35:58Z</time>
      </trkpt>
      <trkpt lat="49.37342" lon="5.89453">
        <ele>360.3</ele>
        <time>2021-07-28T07:35:59Z</time>
      </trkpt>
      <trkpt lat="49.37338" lon="5.8945">
        <ele>360.3</ele>
        <time>2021-07-28T07:36:01Z</time>
      </trkpt>
      <trkpt lat="49.37334" lon="5.89448">
        <ele>360.3</ele>
        <time>2021-07-28T07:36:02Z</time>
      </trkpt>
      <trkpt lat="49.37331" lon="5.89445">
        <ele>360.3</ele>
        <time>2021-07-28T07:36:03Z</time>
      </trkpt>
      <trkpt lat="49.37327" lon="5.89443">
        <ele>360.3</ele>
        <time>2021-07-28T07:36:05Z</time>
      </trkpt>
      <trkpt lat="49.37324" lon="5.89442">
        <ele>360.3</ele>
        <time>2021-07-28T07:36:06Z</time>
      </trkpt>
      <trkpt lat="49.3732" lon="5.8944">
        <ele>360.3</ele>
        <time>2021-07-28T07:36:07Z</time>
      </trkpt>
      <trkpt lat="49.37317" lon="5.89438">
        <ele>360.3</ele>
        <time>2021-07-28T07:36:08Z</time>
      </trkpt>
      <trkpt lat="49.37314" lon="5.89437">
        <ele>360.3</ele>
        <time>2021-07-28T07:36:10Z</time>
      </trkpt>
      <trkpt lat="49.37311" lon="5.89434">
        <ele>360.3</ele>
        <time>2021-07-28T07:36:11Z</time>
      </trkpt>
      <trkpt lat="49.37307" lon="5.89431">
        <ele>360.3</ele>
        <time>2021-07-28T07:36:13Z</time>
      </trkpt>
      <trkpt lat="49.37304" lon="5.89429">
        <ele>360.4</ele>
        <time>2021-07-28T07:36:14Z</time>
      </trkpt>
      <trkpt lat="49.37301" lon="5.89426">
        <ele>360.4</ele>
        <time>2021-07-28T07:36:15Z</time>
      </trkpt>
      <trkpt lat="49.37299" lon="5.89424">
        <ele>360.4</ele>
        <time>2021-07-28T07:36:16Z</time>
      </trkpt>
      <trkpt lat="49.37295" lon="5.89419">
        <ele>360.4</ele>
        <time>2021-07-28T07:36:18Z</time>
      </trkpt>
      <trkpt lat="49.37294" lon="5.89416">
        <ele>360.4</ele>
        <time>2021-07-28T07:36:19Z</time>
      </trkpt>
      <trkpt lat="49.37292" lon="5.89408">
        <ele>360.4</ele>
        <time>2021-07-28T07:36:21Z</time>
      </trkpt>
      <trkpt lat="49.37291" lon="5.89405">
        <ele>360.4</ele>
        <time>2021-07-28T07:36:22Z</time>
      </trkpt>
      <trkpt lat="49.37286" lon="5.89406">
        <ele>360.4</ele>
        <time>2021-07-28T07:36:24Z</time>
      </trkpt>
      <trkpt lat="49.37285" lon="5.89408">
        <ele>360.4</ele>
        <time>2021-07-28T07:36:25Z</time>
      </trkpt>
      <trkpt lat="49.37286" lon="5.8941">
        <ele>360.4</ele>
        <time>2021-07-28T07:36:26Z</time>
      </trkpt>
      <trkpt lat="49.37287" lon="5.89412">
        <ele>360.4</ele>
        <time>2021-07-28T07:36:28Z</time>
      </trkpt>
      <trkpt lat="49.37288" lon="5.89417">
        <ele>360.4</ele>
        <time>2021-07-28T07:36:29Z</time>
      </trkpt>
      <trkpt lat="49.3729" lon="5.89418">
        <ele>360.4</ele>
        <time>2021-07-28T07:36:30Z</time>
      </trkpt>
      <trkpt lat="49.37293" lon="5.89421">
        <ele>360.4</ele>
        <time>2021-07-28T07:36:32Z</time>
      </trkpt>
      <trkpt lat="49.37293" lon="5.89425">
        <ele>360.4</ele>
        <time>2021-07-28T07:36:33Z</time>
      </trkpt>
      <trkpt lat="49.37293" lon="5.89429">
        <ele>360.8</ele>
        <time>2021-07-28T07:36:35Z</time>
      </trkpt>
      <trkpt lat="49.37292" lon="5.89433">
        <ele>361</ele>
        <time>2021-07-28T07:36:36Z</time>
      </trkpt>
      <trkpt lat="49.37292" lon="5.89435">
        <ele>361.2</ele>
        <time>2021-07-28T07:36:37Z</time>
      </trkpt>
      <trkpt lat="49.37288" lon="5.89439">
        <ele>361.5</ele>
        <time>2021-07-28T07:36:38Z</time>
      </trkpt>
      <trkpt lat="49.37287" lon="5.8944">
        <ele>361.7</ele>
        <time>2021-07-28T07:36:39Z</time>
      </trkpt>
      <trkpt lat="49.37284" lon="5.89445">
        <ele>362.1</ele>
        <time>2021-07-28T07:36:41Z</time>
      </trkpt>
      <trkpt lat="49.37281" lon="5.89448">
        <ele>362.4</ele>
        <time>2021-07-28T07:36:43Z</time>
      </trkpt>
      <trkpt lat="49.3728" lon="5.89448">
        <ele>362.5</ele>
        <time>2021-07-28T07:36:44Z</time>
      </trkpt>
      <trkpt lat="49.37278" lon="5.89449">
        <ele>362.6</ele>
        <time>2021-07-28T07:36:45Z</time>
      </trkpt>
      <trkpt lat="49.37274" lon="5.8945">
        <ele>362.8</ele>
        <time>2021-07-28T07:36:47Z</time>
      </trkpt>
      <trkpt lat="49.37272" lon="5.89453">
        <ele>363.2</ele>
        <time>2021-07-28T07:36:49Z</time>
      </trkpt>
      <trkpt lat="49.37271" lon="5.89458">
        <ele>363.5</ele>
        <time>2021-07-28T07:36:50Z</time>
      </trkpt>
      <trkpt lat="49.37271" lon="5.8946">
        <ele>363.7</ele>
        <time>2021-07-28T07:36:51Z</time>
      </trkpt>
      <trkpt lat="49.37271" lon="5.89465">
        <ele>364.1</ele>
        <time>2021-07-28T07:36:52Z</time>
      </trkpt>
      <trkpt lat="49.3727" lon="5.89467">
        <ele>364.1</ele>
        <time>2021-07-28T07:36:53Z</time>
      </trkpt>
      <trkpt lat="49.37269" lon="5.89469">
        <ele>364.3</ele>
        <time>2021-07-28T07:36:54Z</time>
      </trkpt>
      <trkpt lat="49.37268" lon="5.89471">
        <ele>364.4</ele>
        <time>2021-07-28T07:36:56Z</time>
      </trkpt>
      <trkpt lat="49.37267" lon="5.89474">
        <ele>364.6</ele>
        <time>2021-07-28T07:36:57Z</time>
      </trkpt>
      <trkpt lat="49.37264" lon="5.89476">
        <ele>364.8</ele>
        <time>2021-07-28T07:36:59Z</time>
      </trkpt>
      <trkpt lat="49.37262" lon="5.8948">
        <ele>364.9</ele>
        <time>2021-07-28T07:37:00Z</time>
      </trkpt>
      <trkpt lat="49.37262" lon="5.89482">
        <ele>365.1</ele>
        <time>2021-07-28T07:37:01Z</time>
      </trkpt>
      <trkpt lat="49.3726" lon="5.89486">
        <ele>365.3</ele>
        <time>2021-07-28T07:37:03Z</time>
      </trkpt>
      <trkpt lat="49.37259" lon="5.89486">
        <ele>365.4</ele>
        <time>2021-07-28T07:37:04Z</time>
      </trkpt>
      <trkpt lat="49.37256" lon="5.8949">
        <ele>365.6</ele>
        <time>2021-07-28T07:37:05Z</time>
      </trkpt>
      <trkpt lat="49.37255" lon="5.89491">
        <ele>365.6</ele>
        <time>2021-07-28T07:37:06Z</time>
      </trkpt>
      <trkpt lat="49.37252" lon="5.89493">
        <ele>365.7</ele>
        <time>2021-07-28T07:37:07Z</time>
      </trkpt>
      <trkpt lat="49.37251" lon="5.89493">
        <ele>365.8</ele>
        <time>2021-07-28T07:37:08Z</time>
      </trkpt>
      <trkpt lat="49.37248" lon="5.89495">
        <ele>365.9</ele>
        <time>2021-07-28T07:37:10Z</time>
      </trkpt>
      <trkpt lat="49.37245" lon="5.89497">
        <ele>366</ele>
        <time>2021-07-28T07:37:11Z</time>
      </trkpt>
      <trkpt lat="49.3724" lon="5.89501">
        <ele>366.1</ele>
        <time>2021-07-28T07:37:13Z</time>
      </trkpt>
      <trkpt lat="49.37239" lon="5.89502">
        <ele>366.2</ele>
        <time>2021-07-28T07:37:14Z</time>
      </trkpt>
      <trkpt lat="49.37238" lon="5.89503">
        <ele>366.2</ele>
        <time>2021-07-28T07:37:15Z</time>
      </trkpt>
      <trkpt lat="49.37233" lon="5.89507">
        <ele>366.4</ele>
        <time>2021-07-28T07:37:17Z</time>
      </trkpt>
      <trkpt lat="49.37231" lon="5.89509">
        <ele>366.5</ele>
        <time>2021-07-28T07:37:18Z</time>
      </trkpt>
      <trkpt lat="49.37229" lon="5.89511">
        <ele>366.5</ele>
        <time>2021-07-28T07:37:19Z</time>
      </trkpt>
      <trkpt lat="49.37225" lon="5.89516">
        <ele>366.7</ele>
        <time>2021-07-28T07:37:21Z</time>
      </trkpt>
      <trkpt lat="49.37221" lon="5.8952">
        <ele>366.8</ele>
        <time>2021-07-28T07:37:22Z</time>
      </trkpt>
      <trkpt lat="49.37217" lon="5.89523">
        <ele>366.9</ele>
        <time>2021-07-28T07:37:23Z</time>
      </trkpt>
      <trkpt lat="49.37213" lon="5.89526">
        <ele>366.9</ele>
        <time>2021-07-28T07:37:24Z</time>
      </trkpt>
      <trkpt lat="49.3721" lon="5.89526">
        <ele>367</ele>
        <time>2021-07-28T07:37:25Z</time>
      </trkpt>
      <trkpt lat="49.37209" lon="5.89526">
        <ele>367</ele>
        <time>2021-07-28T07:37:26Z</time>
      </trkpt>
      <trkpt lat="49.37205" lon="5.89525">
        <ele>367.1</ele>
        <time>2021-07-28T07:37:28Z</time>
      </trkpt>
      <trkpt lat="49.372" lon="5.8953">
        <ele>367.1</ele>
        <time>2021-07-28T07:37:29Z</time>
      </trkpt>
      <trkpt lat="49.37197" lon="5.89534">
        <ele>367.2</ele>
        <time>2021-07-28T07:37:31Z</time>
      </trkpt>
      <trkpt lat="49.37195" lon="5.89538">
        <ele>367.2</ele>
        <time>2021-07-28T07:37:32Z</time>
      </trkpt>
      <trkpt lat="49.37191" lon="5.89544">
        <ele>367.2</ele>
        <time>2021-07-28T07:37:33Z</time>
      </trkpt>
      <trkpt lat="49.37188" lon="5.89549">
        <ele>367.2</ele>
        <time>2021-07-28T07:37:35Z</time>
      </trkpt>
      <trkpt lat="49.37186" lon="5.89554">
        <ele>367.3</ele>
        <time>2021-07-28T07:37:36Z</time>
      </trkpt>
      <trkpt lat="49.37183" lon="5.89558">
        <ele>367.3</ele>
        <time>2021-07-28T07:37:37Z</time>
      </trkpt>
      <trkpt lat="49.37182" lon="5.89562">
        <ele>367.3</ele>
        <time>2021-07-28T07:37:38Z</time>
      </trkpt>
      <trkpt lat="49.3718" lon="5.89567">
        <ele>367.3</ele>
        <time>2021-07-28T07:37:40Z</time>
      </trkpt>
      <trkpt lat="49.37179" lon="5.89569">
        <ele>367.3</ele>
        <time>2021-07-28T07:37:41Z</time>
      </trkpt>
      <trkpt lat="49.37176" lon="5.89573">
        <ele>367.3</ele>
        <time>2021-07-28T07:37:42Z</time>
      </trkpt>
      <trkpt lat="49.37175" lon="5.89575">
        <ele>367.3</ele>
        <time>2021-07-28T07:37:43Z</time>
      </trkpt>
      <trkpt lat="49.37172" lon="5.89579">
        <ele>367.3</ele>
        <time>2021-07-28T07:37:44Z</time>
      </trkpt>
      <trkpt lat="49.3717" lon="5.89582">
        <ele>367.3</ele>
        <time>2021-07-28T07:37:45Z</time>
      </trkpt>
      <trkpt lat="49.37166" lon="5.89586">
        <ele>367.2</ele>
        <time>2021-07-28T07:37:47Z</time>
      </trkpt>
      <trkpt lat="49.37164" lon="5.89589">
        <ele>367.2</ele>
        <time>2021-07-28T07:37:48Z</time>
      </trkpt>
      <trkpt lat="49.3716" lon="5.89592">
        <ele>367.2</ele>
        <time>2021-07-28T07:37:49Z</time>
      </trkpt>
      <trkpt lat="49.37157" lon="5.89597">
        <ele>367.2</ele>
        <time>2021-07-28T07:37:51Z</time>
      </trkpt>
      <trkpt lat="49.37154" lon="5.896">
        <ele>367.2</ele>
        <time>2021-07-28T07:37:52Z</time>
      </trkpt>
      <trkpt lat="49.37152" lon="5.89603">
        <ele>367.1</ele>
        <time>2021-07-28T07:37:53Z</time>
      </trkpt>
      <trkpt lat="49.37149" lon="5.89608">
        <ele>367.1</ele>
        <time>2021-07-28T07:37:55Z</time>
      </trkpt>
      <trkpt lat="49.37147" lon="5.89612">
        <ele>367.1</ele>
        <time>2021-07-28T07:37:56Z</time>
      </trkpt>
      <trkpt lat="49.37144" lon="5.89616">
        <ele>367</ele>
        <time>2021-07-28T07:37:57Z</time>
      </trkpt>
      <trkpt lat="49.37141" lon="5.89619">
        <ele>367</ele>
        <time>2021-07-28T07:37:58Z</time>
      </trkpt>
      <trkpt lat="49.37138" lon="5.89622">
        <ele>367</ele>
        <time>2021-07-28T07:37:59Z</time>
      </trkpt>
      <trkpt lat="49.37134" lon="5.89626">
        <ele>366.9</ele>
        <time>2021-07-28T07:38:00Z</time>
      </trkpt>
      <trkpt lat="49.3713" lon="5.89633">
        <ele>366.8</ele>
        <time>2021-07-28T07:38:02Z</time>
      </trkpt>
      <trkpt lat="49.37126" lon="5.89639">
        <ele>366.6</ele>
        <time>2021-07-28T07:38:03Z</time>
      </trkpt>
      <trkpt lat="49.37123" lon="5.89644">
        <ele>366.5</ele>
        <time>2021-07-28T07:38:04Z</time>
      </trkpt>
      <trkpt lat="49.37119" lon="5.89651">
        <ele>366.3</ele>
        <time>2021-07-28T07:38:06Z</time>
      </trkpt>
      <trkpt lat="49.37115" lon="5.89656">
        <ele>366.1</ele>
        <time>2021-07-28T07:38:07Z</time>
      </trkpt>
      <trkpt lat="49.3711" lon="5.89663">
        <ele>365.9</ele>
        <time>2021-07-28T07:38:08Z</time>
      </trkpt>
      <trkpt lat="49.37106" lon="5.89669">
        <ele>365.7</ele>
        <time>2021-07-28T07:38:09Z</time>
      </trkpt>
      <trkpt lat="49.37099" lon="5.89672">
        <ele>365.5</ele>
        <time>2021-07-28T07:38:11Z</time>
      </trkpt>
      <trkpt lat="49.37093" lon="5.89681">
        <ele>365.3</ele>
        <time>2021-07-28T07:38:13Z</time>
      </trkpt>
      <trkpt lat="49.37092" lon="5.89686">
        <ele>365.3</ele>
        <time>2021-07-28T07:38:14Z</time>
      </trkpt>
      <trkpt lat="49.37089" lon="5.89689">
        <ele>365.2</ele>
        <time>2021-07-28T07:38:15Z</time>
      </trkpt>
      <trkpt lat="49.37083" lon="5.89695">
        <ele>365.1</ele>
        <time>2021-07-28T07:38:17Z</time>
      </trkpt>
      <trkpt lat="49.37079" lon="5.89699">
        <ele>365</ele>
        <time>2021-07-28T07:38:18Z</time>
      </trkpt>
      <trkpt lat="49.37075" lon="5.897">
        <ele>364.8</ele>
        <time>2021-07-28T07:38:19Z</time>
      </trkpt>
      <trkpt lat="49.37069" lon="5.89698">
        <ele>364.6</ele>
        <time>2021-07-28T07:38:21Z</time>
      </trkpt>
      <trkpt lat="49.37066" lon="5.89692">
        <ele>364.5</ele>
        <time>2021-07-28T07:38:22Z</time>
      </trkpt>
      <trkpt lat="49.37064" lon="5.89684">
        <ele>364.4</ele>
        <time>2021-07-28T07:38:24Z</time>
      </trkpt>
      <trkpt lat="49.37063" lon="5.89676">
        <ele>364.2</ele>
        <time>2021-07-28T07:38:25Z</time>
      </trkpt>
      <trkpt lat="49.37062" lon="5.89666">
        <ele>364.1</ele>
        <time>2021-07-28T07:38:27Z</time>
      </trkpt>
      <trkpt lat="49.3706" lon="5.89659">
        <ele>364</ele>
        <time>2021-07-28T07:38:28Z</time>
      </trkpt>
      <trkpt lat="49.37058" lon="5.89653">
        <ele>363.9</ele>
        <time>2021-07-28T07:38:30Z</time>
      </trkpt>
      <trkpt lat="49.37057" lon="5.89649">
        <ele>363.8</ele>
        <time>2021-07-28T07:38:31Z</time>
      </trkpt>
      <trkpt lat="49.37055" lon="5.89644">
        <ele>363.7</ele>
        <time>2021-07-28T07:38:32Z</time>
      </trkpt>
      <trkpt lat="49.37053" lon="5.89637">
        <ele>363.7</ele>
        <time>2021-07-28T07:38:33Z</time>
      </trkpt>
      <trkpt lat="49.3705" lon="5.8963">
        <ele>363.5</ele>
        <time>2021-07-28T07:38:34Z</time>
      </trkpt>
      <trkpt lat="49.37046" lon="5.89623">
        <ele>363.4</ele>
        <time>2021-07-28T07:38:36Z</time>
      </trkpt>
      <trkpt lat="49.37043" lon="5.89616">
        <ele>363.3</ele>
        <time>2021-07-28T07:38:37Z</time>
      </trkpt>
      <trkpt lat="49.3704" lon="5.8961">
        <ele>363.2</ele>
        <time>2021-07-28T07:38:38Z</time>
      </trkpt>
      <trkpt lat="49.37038" lon="5.89603">
        <ele>363.1</ele>
        <time>2021-07-28T07:38:39Z</time>
      </trkpt>
      <trkpt lat="49.37035" lon="5.89595">
        <ele>362.9</ele>
        <time>2021-07-28T07:38:41Z</time>
      </trkpt>
      <trkpt lat="49.37033" lon="5.8959">
        <ele>362.8</ele>
        <time>2021-07-28T07:38:42Z</time>
      </trkpt>
      <trkpt lat="49.3703" lon="5.89586">
        <ele>362.8</ele>
        <time>2021-07-28T07:38:43Z</time>
      </trkpt>
      <trkpt lat="49.37027" lon="5.89575">
        <ele>362.7</ele>
        <time>2021-07-28T07:38:45Z</time>
      </trkpt>
      <trkpt lat="49.37024" lon="5.89565">
        <ele>362.6</ele>
        <time>2021-07-28T07:38:47Z</time>
      </trkpt>
      <trkpt lat="49.37021" lon="5.89562">
        <ele>362.6</ele>
        <time>2021-07-28T07:38:48Z</time>
      </trkpt>
      <trkpt lat="49.37019" lon="5.89558">
        <ele>362.5</ele>
        <time>2021-07-28T07:38:49Z</time>
      </trkpt>
      <trkpt lat="49.37016" lon="5.89551">
        <ele>362.4</ele>
        <time>2021-07-28T07:38:51Z</time>
      </trkpt>
      <trkpt lat="49.37012" lon="5.89545">
        <ele>362.4</ele>
        <time>2021-07-28T07:38:53Z</time>
      </trkpt>
      <trkpt lat="49.37011" lon="5.89541">
        <ele>362.3</ele>
        <time>2021-07-28T07:38:54Z</time>
      </trkpt>
      <trkpt lat="49.3701" lon="5.8954">
        <ele>362.3</ele>
        <time>2021-07-28T07:38:55Z</time>
      </trkpt>
      <trkpt lat="49.37009" lon="5.89537">
        <ele>362.3</ele>
        <time>2021-07-28T07:38:56Z</time>
      </trkpt>
      <trkpt lat="49.37006" lon="5.89534">
        <ele>362.3</ele>
        <time>2021-07-28T07:38:58Z</time>
      </trkpt>
      <trkpt lat="49.37003" lon="5.89532">
        <ele>362.2</ele>
        <time>2021-07-28T07:39:00Z</time>
      </trkpt>
      <trkpt lat="49.36999" lon="5.89529">
        <ele>362.2</ele>
        <time>2021-07-28T07:39:01Z</time>
      </trkpt>
      <trkpt lat="49.36996" lon="5.89525">
        <ele>362.1</ele>
        <time>2021-07-28T07:39:03Z</time>
      </trkpt>
      <trkpt lat="49.36995" lon="5.8952">
        <ele>362.1</ele>
        <time>2021-07-28T07:39:05Z</time>
      </trkpt>
      <trkpt lat="49.36994" lon="5.89515">
        <ele>362.1</ele>
        <time>2021-07-28T07:39:07Z</time>
      </trkpt>
      <trkpt lat="49.36994" lon="5.89511">
        <ele>362</ele>
        <time>2021-07-28T07:39:08Z</time>
      </trkpt>
      <trkpt lat="49.36994" lon="5.89508">
        <ele>362</ele>
        <time>2021-07-28T07:39:10Z</time>
      </trkpt>
      <trkpt lat="49.36993" lon="5.89505">
        <ele>362</ele>
        <time>2021-07-28T07:39:11Z</time>
      </trkpt>
      <trkpt lat="49.36993" lon="5.89498">
        <ele>361.9</ele>
        <time>2021-07-28T07:39:13Z</time>
      </trkpt>
      <trkpt lat="49.36993" lon="5.89493">
        <ele>361.9</ele>
        <time>2021-07-28T07:39:14Z</time>
      </trkpt>
      <trkpt lat="49.36993" lon="5.89491">
        <ele>361.9</ele>
        <time>2021-07-28T07:39:15Z</time>
      </trkpt>
      <trkpt lat="49.36991" lon="5.89484">
        <ele>361.8</ele>
        <time>2021-07-28T07:39:16Z</time>
      </trkpt>
      <trkpt lat="49.36989" lon="5.89479">
        <ele>361.8</ele>
        <time>2021-07-28T07:39:18Z</time>
      </trkpt>
      <trkpt lat="49.36988" lon="5.8948">
        <ele>361.8</ele>
        <time>2021-07-28T07:39:19Z</time>
      </trkpt>
      <trkpt lat="49.36988" lon="5.89481">
        <ele>361.8</ele>
        <time>2021-07-28T07:39:21Z</time>
      </trkpt>
      <trkpt lat="49.36988" lon="5.89483">
        <ele>361.8</ele>
        <time>2021-07-28T07:39:23Z</time>
      </trkpt>
      <trkpt lat="49.36987" lon="5.89485">
        <ele>361.8</ele>
        <time>2021-07-28T07:39:24Z</time>
      </trkpt>
      <trkpt lat="49.36987" lon="5.89487">
        <ele>361.8</ele>
        <time>2021-07-28T07:39:25Z</time>
      </trkpt>
      <trkpt lat="49.36987" lon="5.89488">
        <ele>361.9</ele>
        <time>2021-07-28T07:39:26Z</time>
      </trkpt>
      <trkpt lat="49.36986" lon="5.8949">
        <ele>361.9</ele>
        <time>2021-07-28T07:39:28Z</time>
      </trkpt>
      <trkpt lat="49.36986" lon="5.89492">
        <ele>361.9</ele>
        <time>2021-07-28T07:39:36Z</time>
      </trkpt>
      <trkpt lat="49.36986" lon="5.89494">
        <ele>361.9</ele>
        <time>2021-07-28T07:39:37Z</time>
      </trkpt>
      <trkpt lat="49.36987" lon="5.89502">
        <ele>362</ele>
        <time>2021-07-28T07:39:39Z</time>
      </trkpt>
      <trkpt lat="49.36988" lon="5.89514">
        <ele>362.1</ele>
        <time>2021-07-28T07:39:41Z</time>
      </trkpt>
      <trkpt lat="49.3699" lon="5.89524">
        <ele>362.1</ele>
        <time>2021-07-28T07:39:43Z</time>
      </trkpt>
      <trkpt lat="49.36992" lon="5.89528">
        <ele>362.2</ele>
        <time>2021-07-28T07:39:44Z</time>
      </trkpt>
      <trkpt lat="49.36994" lon="5.89535">
        <ele>362.2</ele>
        <time>2021-07-28T07:39:46Z</time>
      </trkpt>
      <trkpt lat="49.36995" lon="5.89539">
        <ele>362.3</ele>
        <time>2021-07-28T07:39:47Z</time>
      </trkpt>
      <trkpt lat="49.36995" lon="5.89544">
        <ele>362.3</ele>
        <time>2021-07-28T07:39:49Z</time>
      </trkpt>
      <trkpt lat="49.36999" lon="5.89538">
        <ele>362.3</ele>
        <time>2021-07-28T07:39:50Z</time>
      </trkpt>
      <trkpt lat="49.37005" lon="5.89532">
        <ele>362.4</ele>
        <time>2021-07-28T07:39:51Z</time>
      </trkpt>
      <trkpt lat="49.3701" lon="5.89526">
        <ele>362.5</ele>
        <time>2021-07-28T07:39:52Z</time>
      </trkpt>
      <trkpt lat="49.37016" lon="5.8952">
        <ele>362.6</ele>
        <time>2021-07-28T07:39:54Z</time>
      </trkpt>
      <trkpt lat="49.37021" lon="5.89514">
        <ele>362.7</ele>
        <time>2021-07-28T07:39:56Z</time>
      </trkpt>
      <trkpt lat="49.37027" lon="5.89508">
        <ele>362.9</ele>
        <time>2021-07-28T07:39:57Z</time>
      </trkpt>
      <trkpt lat="49.37033" lon="5.89501">
        <ele>363.1</ele>
        <time>2021-07-28T07:48:42Z</time>
      </trkpt>
      <trkpt lat="49.37038" lon="5.89495">
        <ele>363.3</ele>
        <time>2021-07-28T07:48:44Z</time>
      </trkpt>
      <trkpt lat="49.37047" lon="5.89479">
        <ele>363.5</ele>
        <time>2021-07-28T07:48:46Z</time>
      </trkpt>
      <trkpt lat="49.37055" lon="5.89466">
        <ele>363.8</ele>
        <time>2021-07-28T07:48:48Z</time>
      </trkpt>
      <trkpt lat="49.37063" lon="5.89455">
        <ele>364.1</ele>
        <time>2021-07-28T07:48:50Z</time>
      </trkpt>
      <trkpt lat="49.37068" lon="5.89448">
        <ele>364.2</ele>
        <time>2021-07-28T07:48:51Z</time>
      </trkpt>
      <trkpt lat="49.37079" lon="5.89436">
        <ele>364.3</ele>
        <time>2021-07-28T07:48:53Z</time>
      </trkpt>
      <trkpt lat="49.37087" lon="5.89438">
        <ele>364.4</ele>
        <time>2021-07-28T07:48:55Z</time>
      </trkpt>
      <trkpt lat="49.37094" lon="5.89445">
        <ele>364.5</ele>
        <time>2021-07-28T07:48:57Z</time>
      </trkpt>
      <trkpt lat="49.37102" lon="5.89456">
        <ele>364.6</ele>
        <time>2021-07-28T07:49:01Z</time>
      </trkpt>
      <trkpt lat="49.37171" lon="5.89474">
        <ele>364.6</ele>
        <time>2021-07-28T07:49:08Z</time>
      </trkpt>
      <trkpt lat="49.37236" lon="5.89488">
        <ele>364.3</ele>
        <time>2021-07-28T07:49:12Z</time>
      </trkpt>
      <trkpt lat="49.37211" lon="5.89564">
        <ele>366.4</ele>
        <time>2021-07-28T07:49:14Z</time>
      </trkpt>
      <trkpt lat="49.37193" lon="5.896">
        <ele>367.1</ele>
        <time>2021-07-28T07:49:15Z</time>
      </trkpt>
      <trkpt lat="49.37179" lon="5.89617">
        <ele>367.3</ele>
        <time>2021-07-28T07:49:16Z</time>
      </trkpt>
      <trkpt lat="49.37143" lon="5.89624">
        <ele>366.8</ele>
        <time>2021-07-28T07:49:18Z</time>
      </trkpt>
      <trkpt lat="49.37113" lon="5.89617">
        <ele>365.7</ele>
        <time>2021-07-28T07:49:20Z</time>
      </trkpt>
      <trkpt lat="49.37094" lon="5.89609">
        <ele>364.9</ele>
        <time>2021-07-28T07:49:21Z</time>
      </trkpt>
      <trkpt lat="49.37074" lon="5.896">
        <ele>364.2</ele>
        <time>2021-07-28T07:49:23Z</time>
      </trkpt>
      <trkpt lat="49.37061" lon="5.89592">
        <ele>363.8</ele>
        <time>2021-07-28T07:49:25Z</time>
      </trkpt>
      <trkpt lat="49.37058" lon="5.8959">
        <ele>363.8</ele>
        <time>2021-07-28T07:49:26Z</time>
      </trkpt>
      <trkpt lat="49.37055" lon="5.89588">
        <ele>363.7</ele>
        <time>2021-07-28T07:49:28Z</time>
      </trkpt>
      <trkpt lat="49.37054" lon="5.89587">
        <ele>363.7</ele>
        <time>2021-07-28T07:49:29Z</time>
      </trkpt>
      <trkpt lat="49.3705" lon="5.8958">
        <ele>363.6</ele>
        <time>2021-07-28T07:49:31Z</time>
      </trkpt>
      <trkpt lat="49.37022" lon="5.89518">
        <ele>362.8</ele>
        <time>2021-07-28T07:50:12Z</time>
      </trkpt>
      <trkpt lat="49.37027" lon="5.8952">
        <ele>363</ele>
        <time>2021-07-28T07:50:14Z</time>
      </trkpt>
      <trkpt lat="49.37029" lon="5.89523">
        <ele>363.1</ele>
        <time>2021-07-28T07:50:15Z</time>
      </trkpt>
      <trkpt lat="49.37031" lon="5.89526">
        <ele>363.2</ele>
        <time>2021-07-28T07:50:17Z</time>
      </trkpt>
      <trkpt lat="49.37032" lon="5.89528">
        <ele>363.2</ele>
        <time>2021-07-28T07:50:18Z</time>
      </trkpt>
      <trkpt lat="49.37032" lon="5.89531">
        <ele>363.3</ele>
        <time>2021-07-28T07:50:19Z</time>
      </trkpt>
      <trkpt lat="49.3703" lon="5.89533">
        <ele>363.2</ele>
        <time>2021-07-28T07:50:20Z</time>
      </trkpt>
      <trkpt lat="49.37028" lon="5.89533">
        <ele>363.2</ele>
        <time>2021-07-28T07:50:22Z</time>
      </trkpt>
      <trkpt lat="49.37028" lon="5.89534">
        <ele>363.2</ele>
        <time>2021-07-28T07:50:24Z</time>
      </trkpt>
      <trkpt lat="49.37028" lon="5.89534">
        <ele>363.2</ele>
        <time>2021-07-28T07:50:25Z</time>
      </trkpt>
      <trkpt lat="49.36993" lon="5.89579">
        <ele>362.5</ele>
        <time>2021-07-28T07:55:35Z</time>
      </trkpt>
      <trkpt lat="49.3699" lon="5.89585">
        <ele>362.5</ele>
        <time>2021-07-28T07:55:37Z</time>
      </trkpt>
      <trkpt lat="49.36988" lon="5.89588">
        <ele>362.5</ele>
        <time>2021-07-28T07:55:38Z</time>
      </trkpt>
      <trkpt lat="49.36983" lon="5.89594">
        <ele>362.5</ele>
        <time>2021-07-28T07:55:40Z</time>
      </trkpt>
      <trkpt lat="49.36982" lon="5.89599">
        <ele>362.5</ele>
        <time>2021-07-28T07:55:41Z</time>
      </trkpt>
      <trkpt lat="49.36981" lon="5.89609">
        <ele>362.4</ele>
        <time>2021-07-28T07:55:43Z</time>
      </trkpt>
      <trkpt lat="49.36982" lon="5.89615">
        <ele>362.4</ele>
        <time>2021-07-28T07:55:44Z</time>
      </trkpt>
      <trkpt lat="49.36983" lon="5.89625">
        <ele>362.3</ele>
        <time>2021-07-28T07:55:45Z</time>
      </trkpt>
      <trkpt lat="49.36986" lon="5.89632">
        <ele>362.2</ele>
        <time>2021-07-28T07:55:47Z</time>
      </trkpt>
      <trkpt lat="49.36991" lon="5.89641">
        <ele>362.1</ele>
        <time>2021-07-28T07:55:49Z</time>
      </trkpt>
      <trkpt lat="49.36994" lon="5.89644">
        <ele>362</ele>
        <time>2021-07-28T07:55:50Z</time>
      </trkpt>
      <trkpt lat="49.36999" lon="5.89652">
        <ele>362</ele>
        <time>2021-07-28T07:55:52Z</time>
      </trkpt>
      <trkpt lat="49.37001" lon="5.89656">
        <ele>361.9</ele>
        <time>2021-07-28T07:55:53Z</time>
      </trkpt>
      <trkpt lat="49.37003" lon="5.89662">
        <ele>361.9</ele>
        <time>2021-07-28T07:55:54Z</time>
      </trkpt>
      <trkpt lat="49.37006" lon="5.89677">
        <ele>361.9</ele>
        <time>2021-07-28T07:55:56Z</time>
      </trkpt>
      <trkpt lat="49.37008" lon="5.89682">
        <ele>361.9</ele>
        <time>2021-07-28T07:55:57Z</time>
      </trkpt>
      <trkpt lat="49.37009" lon="5.89682">
        <ele>361.9</ele>
        <time>2021-07-28T07:55:58Z</time>
      </trkpt>
      <trkpt lat="49.37008" lon="5.89695">
        <ele>361.9</ele>
        <time>2021-07-28T07:56:00Z</time>
      </trkpt>
      <trkpt lat="49.37009" lon="5.89702">
        <ele>361.9</ele>
        <time>2021-07-28T07:56:01Z</time>
      </trkpt>
      <trkpt lat="49.3701" lon="5.89709">
        <ele>361.9</ele>
        <time>2021-07-28T07:56:02Z</time>
      </trkpt>
      <trkpt lat="49.37011" lon="5.89716">
        <ele>361.9</ele>
        <time>2021-07-28T07:56:03Z</time>
      </trkpt>
      <trkpt lat="49.37012" lon="5.89725">
        <ele>361.9</ele>
        <time>2021-07-28T07:56:05Z</time>
      </trkpt>
      <trkpt lat="49.37013" lon="5.8973">
        <ele>361.9</ele>
        <time>2021-07-28T07:56:06Z</time>
      </trkpt>
      <trkpt lat="49.37014" lon="5.89734">
        <ele>361.9</ele>
        <time>2021-07-28T07:56:07Z</time>
      </trkpt>
      <trkpt lat="49.37016" lon="5.89739">
        <ele>361.9</ele>
        <time>2021-07-28T07:56:08Z</time>
      </trkpt>
      <trkpt lat="49.37019" lon="5.89747">
        <ele>362</ele>
        <time>2021-07-28T07:56:09Z</time>
      </trkpt>
      <trkpt lat="49.37022" lon="5.89755">
        <ele>362</ele>
        <time>2021-07-28T07:56:11Z</time>
      </trkpt>
      <trkpt lat="49.37025" lon="5.89765">
        <ele>361.9</ele>
        <time>2021-07-28T07:56:13Z</time>
      </trkpt>
      <trkpt lat="49.37025" lon="5.8977">
        <ele>361.9</ele>
        <time>2021-07-28T07:56:14Z</time>
      </trkpt>
      <trkpt lat="49.37025" lon="5.89779">
        <ele>361.9</ele>
        <time>2021-07-28T07:56:15Z</time>
      </trkpt>
      <trkpt lat="49.37024" lon="5.89789">
        <ele>361.7</ele>
        <time>2021-07-28T07:56:17Z</time>
      </trkpt>
      <trkpt lat="49.37024" lon="5.89796">
        <ele>361.6</ele>
        <time>2021-07-28T07:56:18Z</time>
      </trkpt>
      <trkpt lat="49.37024" lon="5.89801">
        <ele>361.6</ele>
        <time>2021-07-28T07:56:19Z</time>
      </trkpt>
      <trkpt lat="49.37024" lon="5.89801">
        <ele>361.5</ele>
        <time>2021-07-28T07:56:20Z</time>
      </trkpt>
      <trkpt lat="49.37026" lon="5.89804">
        <ele>361.5</ele>
        <time>2021-07-28T07:56:22Z</time>
      </trkpt>
      <trkpt lat="49.37026" lon="5.89811">
        <ele>361.4</ele>
        <time>2021-07-28T07:56:24Z</time>
      </trkpt>
      <trkpt lat="49.37028" lon="5.89815">
        <ele>361.4</ele>
        <time>2021-07-28T07:56:25Z</time>
      </trkpt>
      <trkpt lat="49.37029" lon="5.89814">
        <ele>361.4</ele>
        <time>2021-07-28T07:56:27Z</time>
      </trkpt>
      <trkpt lat="49.37028" lon="5.89813">
        <ele>361.4</ele>
        <time>2021-07-28T07:56:29Z</time>
      </trkpt>
      <trkpt lat="49.37026" lon="5.89815">
        <ele>361.3</ele>
        <time>2021-07-28T07:56:30Z</time>
      </trkpt>
      <trkpt lat="49.37018" lon="5.89823">
        <ele>360.9</ele>
        <time>2021-07-28T07:56:32Z</time>
      </trkpt>
      <trkpt lat="49.37" lon="5.89842">
        <ele>359.9</ele>
        <time>2021-07-28T07:56:34Z</time>
      </trkpt>
      <trkpt lat="49.36994" lon="5.8985">
        <ele>359.4</ele>
        <time>2021-07-28T07:56:35Z</time>
      </trkpt>
      <trkpt lat="49.36989" lon="5.89857">
        <ele>359.1</ele>
        <time>2021-07-28T07:56:36Z</time>
      </trkpt>
      <trkpt lat="49.36979" lon="5.89869">
        <ele>358.5</ele>
        <time>2021-07-28T07:56:38Z</time>
      </trkpt>
      <trkpt lat="49.36971" lon="5.89879">
        <ele>358</ele>
        <time>2021-07-28T07:56:40Z</time>
      </trkpt>
      <trkpt lat="49.36966" lon="5.89885">
        <ele>357.8</ele>
        <time>2021-07-28T07:56:41Z</time>
      </trkpt>
      <trkpt lat="49.36961" lon="5.8989">
        <ele>357.5</ele>
        <time>2021-07-28T07:56:42Z</time>
      </trkpt>
      <trkpt lat="49.3695" lon="5.89901">
        <ele>356.9</ele>
        <time>2021-07-28T07:56:44Z</time>
      </trkpt>
      <trkpt lat="49.36942" lon="5.89915">
        <ele>356.3</ele>
        <time>2021-07-28T07:56:46Z</time>
      </trkpt>
      <trkpt lat="49.36939" lon="5.89923">
        <ele>356.1</ele>
        <time>2021-07-28T07:56:47Z</time>
      </trkpt>
      <trkpt lat="49.36933" lon="5.8994">
        <ele>355.7</ele>
        <time>2021-07-28T07:56:49Z</time>
      </trkpt>
      <trkpt lat="49.36931" lon="5.89948">
        <ele>355.5</ele>
        <time>2021-07-28T07:56:50Z</time>
      </trkpt>
      <trkpt lat="49.36927" lon="5.89964">
        <ele>355.1</ele>
        <time>2021-07-28T07:56:52Z</time>
      </trkpt>
      <trkpt lat="49.36924" lon="5.89973">
        <ele>354.9</ele>
        <time>2021-07-28T07:56:53Z</time>
      </trkpt>
      <trkpt lat="49.36922" lon="5.89983">
        <ele>354.7</ele>
        <time>2021-07-28T07:56:54Z</time>
      </trkpt>
      <trkpt lat="49.36917" lon="5.90003">
        <ele>354.4</ele>
        <time>2021-07-28T07:56:56Z</time>
      </trkpt>
      <trkpt lat="49.36915" lon="5.90013">
        <ele>354.2</ele>
        <time>2021-07-28T07:56:57Z</time>
      </trkpt>
      <trkpt lat="49.36911" lon="5.90034">
        <ele>353.8</ele>
        <time>2021-07-28T07:56:59Z</time>
      </trkpt>
      <trkpt lat="49.36909" lon="5.90044">
        <ele>353.6</ele>
        <time>2021-07-28T07:57:00Z</time>
      </trkpt>
      <trkpt lat="49.36905" lon="5.90064">
        <ele>353.2</ele>
        <time>2021-07-28T07:57:02Z</time>
      </trkpt>
      <trkpt lat="49.36901" lon="5.90083">
        <ele>352.8</ele>
        <time>2021-07-28T07:57:04Z</time>
      </trkpt>
      <trkpt lat="49.36899" lon="5.90091">
        <ele>352.6</ele>
        <time>2021-07-28T07:57:05Z</time>
      </trkpt>
      <trkpt lat="49.36896" lon="5.90106">
        <ele>352.3</ele>
        <time>2021-07-28T07:57:07Z</time>
      </trkpt>
      <trkpt lat="49.36893" lon="5.90123">
        <ele>351.9</ele>
        <time>2021-07-28T07:57:09Z</time>
      </trkpt>
      <trkpt lat="49.36892" lon="5.90132">
        <ele>351.7</ele>
        <time>2021-07-28T07:57:10Z</time>
      </trkpt>
      <trkpt lat="49.36891" lon="5.9014">
        <ele>351.5</ele>
        <time>2021-07-28T07:57:11Z</time>
      </trkpt>
      <trkpt lat="49.36889" lon="5.90149">
        <ele>351.4</ele>
        <time>2021-07-28T07:57:12Z</time>
      </trkpt>
      <trkpt lat="49.36884" lon="5.90166">
        <ele>350.9</ele>
        <time>2021-07-28T07:57:14Z</time>
      </trkpt>
      <trkpt lat="49.36878" lon="5.90183">
        <ele>350.4</ele>
        <time>2021-07-28T07:57:16Z</time>
      </trkpt>
      <trkpt lat="49.36871" lon="5.902">
        <ele>349.9</ele>
        <time>2021-07-28T07:57:18Z</time>
      </trkpt>
      <trkpt lat="49.36867" lon="5.90207">
        <ele>349.7</ele>
        <time>2021-07-28T07:57:19Z</time>
      </trkpt>
      <trkpt lat="49.36863" lon="5.90216">
        <ele>349.5</ele>
        <time>2021-07-28T07:57:20Z</time>
      </trkpt>
      <trkpt lat="49.36855" lon="5.90233">
        <ele>349</ele>
        <time>2021-07-28T07:57:22Z</time>
      </trkpt>
      <trkpt lat="49.36851" lon="5.90241">
        <ele>348.7</ele>
        <time>2021-07-28T07:57:23Z</time>
      </trkpt>
      <trkpt lat="49.36843" lon="5.9026">
        <ele>348.3</ele>
        <time>2021-07-28T07:57:25Z</time>
      </trkpt>
      <trkpt lat="49.36839" lon="5.90269">
        <ele>348.1</ele>
        <time>2021-07-28T07:57:26Z</time>
      </trkpt>
      <trkpt lat="49.36833" lon="5.90287">
        <ele>347.7</ele>
        <time>2021-07-28T07:57:28Z</time>
      </trkpt>
      <trkpt lat="49.36829" lon="5.90295">
        <ele>347.5</ele>
        <time>2021-07-28T07:57:29Z</time>
      </trkpt>
      <trkpt lat="49.36822" lon="5.90311">
        <ele>347</ele>
        <time>2021-07-28T07:57:31Z</time>
      </trkpt>
      <trkpt lat="49.36819" lon="5.90317">
        <ele>346.7</ele>
        <time>2021-07-28T07:57:32Z</time>
      </trkpt>
      <trkpt lat="49.36813" lon="5.90326">
        <ele>346</ele>
        <time>2021-07-28T07:57:34Z</time>
      </trkpt>
      <trkpt lat="49.36809" lon="5.9033">
        <ele>345.7</ele>
        <time>2021-07-28T07:57:35Z</time>
      </trkpt>
      <trkpt lat="49.36804" lon="5.90333">
        <ele>345.4</ele>
        <time>2021-07-28T07:57:36Z</time>
      </trkpt>
      <trkpt lat="49.36793" lon="5.90338">
        <ele>344.8</ele>
        <time>2021-07-28T07:57:38Z</time>
      </trkpt>
      <trkpt lat="49.36788" lon="5.90341">
        <ele>344.5</ele>
        <time>2021-07-28T07:57:39Z</time>
      </trkpt>
      <trkpt lat="49.36782" lon="5.90344">
        <ele>344.2</ele>
        <time>2021-07-28T07:57:40Z</time>
      </trkpt>
      <trkpt lat="49.36771" lon="5.90348">
        <ele>343.5</ele>
        <time>2021-07-28T07:57:42Z</time>
      </trkpt>
      <trkpt lat="49.36765" lon="5.9035">
        <ele>343.2</ele>
        <time>2021-07-28T07:57:43Z</time>
      </trkpt>
      <trkpt lat="49.36753" lon="5.90357">
        <ele>342.5</ele>
        <time>2021-07-28T07:57:45Z</time>
      </trkpt>
      <trkpt lat="49.3674" lon="5.90365">
        <ele>341.6</ele>
        <time>2021-07-28T07:57:47Z</time>
      </trkpt>
      <trkpt lat="49.36734" lon="5.9037">
        <ele>341.2</ele>
        <time>2021-07-28T07:57:48Z</time>
      </trkpt>
      <trkpt lat="49.36722" lon="5.90383">
        <ele>340.4</ele>
        <time>2021-07-28T07:57:50Z</time>
      </trkpt>
      <trkpt lat="49.36717" lon="5.9039">
        <ele>340</ele>
        <time>2021-07-28T07:57:51Z</time>
      </trkpt>
      <trkpt lat="49.36713" lon="5.90399">
        <ele>339.7</ele>
        <time>2021-07-28T07:57:52Z</time>
      </trkpt>
      <trkpt lat="49.36705" lon="5.90417">
        <ele>339.1</ele>
        <time>2021-07-28T07:57:54Z</time>
      </trkpt>
      <trkpt lat="49.36697" lon="5.90435">
        <ele>338.6</ele>
        <time>2021-07-28T07:57:56Z</time>
      </trkpt>
      <trkpt lat="49.36693" lon="5.90445">
        <ele>338.3</ele>
        <time>2021-07-28T07:57:57Z</time>
      </trkpt>
      <trkpt lat="49.36688" lon="5.90464">
        <ele>337.8</ele>
        <time>2021-07-28T07:57:59Z</time>
      </trkpt>
      <trkpt lat="49.36682" lon="5.90484">
        <ele>337.4</ele>
        <time>2021-07-28T07:58:01Z</time>
      </trkpt>
      <trkpt lat="49.36679" lon="5.90494">
        <ele>337.2</ele>
        <time>2021-07-28T07:58:02Z</time>
      </trkpt>
      <trkpt lat="49.36672" lon="5.90514">
        <ele>336.8</ele>
        <time>2021-07-28T07:58:04Z</time>
      </trkpt>
      <trkpt lat="49.36665" lon="5.90533">
        <ele>336.6</ele>
        <time>2021-07-28T07:58:06Z</time>
      </trkpt>
      <trkpt lat="49.36656" lon="5.90552">
        <ele>336.4</ele>
        <time>2021-07-28T07:58:08Z</time>
      </trkpt>
      <trkpt lat="49.36651" lon="5.90561">
        <ele>336.4</ele>
        <time>2021-07-28T07:58:09Z</time>
      </trkpt>
      <trkpt lat="49.3664" lon="5.90576">
        <ele>336.4</ele>
        <time>2021-07-28T07:58:11Z</time>
      </trkpt>
      <trkpt lat="49.36634" lon="5.90583">
        <ele>336.4</ele>
        <time>2021-07-28T07:58:12Z</time>
      </trkpt>
      <trkpt lat="49.36622" lon="5.90595">
        <ele>336.4</ele>
        <time>2021-07-28T07:58:14Z</time>
      </trkpt>
      <trkpt lat="49.36617" lon="5.90601">
        <ele>336.4</ele>
        <time>2021-07-28T07:58:15Z</time>
      </trkpt>
      <trkpt lat="49.36613" lon="5.90607">
        <ele>336.5</ele>
        <time>2021-07-28T07:58:16Z</time>
      </trkpt>
      <trkpt lat="49.36604" lon="5.90615">
        <ele>336.6</ele>
        <time>2021-07-28T07:58:18Z</time>
      </trkpt>
      <trkpt lat="49.36595" lon="5.90622">
        <ele>336.7</ele>
        <time>2021-07-28T07:58:20Z</time>
      </trkpt>
      <trkpt lat="49.36585" lon="5.90625">
        <ele>336.8</ele>
        <time>2021-07-28T07:58:22Z</time>
      </trkpt>
      <trkpt lat="49.3658" lon="5.90627">
        <ele>336.9</ele>
        <time>2021-07-28T07:58:23Z</time>
      </trkpt>
      <trkpt lat="49.36567" lon="5.90628">
        <ele>337</ele>
        <time>2021-07-28T07:58:25Z</time>
      </trkpt>
      <trkpt lat="49.36553" lon="5.90627">
        <ele>337.1</ele>
        <time>2021-07-28T07:58:27Z</time>
      </trkpt>
      <trkpt lat="49.36546" lon="5.90629">
        <ele>337</ele>
        <time>2021-07-28T07:58:28Z</time>
      </trkpt>
      <trkpt lat="49.3654" lon="5.9063">
        <ele>337</ele>
        <time>2021-07-28T07:58:29Z</time>
      </trkpt>
      <trkpt lat="49.36533" lon="5.90631">
        <ele>337</ele>
        <time>2021-07-28T07:58:30Z</time>
      </trkpt>
      <trkpt lat="49.3652" lon="5.90635">
        <ele>336.9</ele>
        <time>2021-07-28T07:58:32Z</time>
      </trkpt>
      <trkpt lat="49.36508" lon="5.9064">
        <ele>336.7</ele>
        <time>2021-07-28T07:58:34Z</time>
      </trkpt>
      <trkpt lat="49.36496" lon="5.90647">
        <ele>336.5</ele>
        <time>2021-07-28T07:58:36Z</time>
      </trkpt>
      <trkpt lat="49.36485" lon="5.90655">
        <ele>336.1</ele>
        <time>2021-07-28T07:58:38Z</time>
      </trkpt>
      <trkpt lat="49.36473" lon="5.90663">
        <ele>335.8</ele>
        <time>2021-07-28T07:58:40Z</time>
      </trkpt>
      <trkpt lat="49.36467" lon="5.90667">
        <ele>335.6</ele>
        <time>2021-07-28T07:58:41Z</time>
      </trkpt>
      <trkpt lat="49.36454" lon="5.90672">
        <ele>335.2</ele>
        <time>2021-07-28T07:58:43Z</time>
      </trkpt>
      <trkpt lat="49.36446" lon="5.90674">
        <ele>334.9</ele>
        <time>2021-07-28T07:58:44Z</time>
      </trkpt>
      <trkpt lat="49.36432" lon="5.9068">
        <ele>334.5</ele>
        <time>2021-07-28T07:58:46Z</time>
      </trkpt>
      <trkpt lat="49.36418" lon="5.90685">
        <ele>334</ele>
        <time>2021-07-28T07:58:48Z</time>
      </trkpt>
      <trkpt lat="49.36411" lon="5.90687">
        <ele>333.7</ele>
        <time>2021-07-28T07:58:49Z</time>
      </trkpt>
      <trkpt lat="49.36403" lon="5.9069">
        <ele>333.5</ele>
        <time>2021-07-28T07:58:50Z</time>
      </trkpt>
      <trkpt lat="49.3639" lon="5.90695">
        <ele>333.1</ele>
        <time>2021-07-28T07:58:52Z</time>
      </trkpt>
      <trkpt lat="49.36384" lon="5.90698">
        <ele>333</ele>
        <time>2021-07-28T07:58:53Z</time>
      </trkpt>
      <trkpt lat="49.36379" lon="5.90701">
        <ele>332.9</ele>
        <time>2021-07-28T07:58:54Z</time>
      </trkpt>
      <trkpt lat="49.36366" lon="5.90705">
        <ele>332.6</ele>
        <time>2021-07-28T07:58:56Z</time>
      </trkpt>
      <trkpt lat="49.36355" lon="5.9071">
        <ele>332.3</ele>
        <time>2021-07-28T07:58:58Z</time>
      </trkpt>
      <trkpt lat="49.36344" lon="5.90714">
        <ele>332.1</ele>
        <time>2021-07-28T07:59:00Z</time>
      </trkpt>
      <trkpt lat="49.36333" lon="5.9072">
        <ele>331.9</ele>
        <time>2021-07-28T07:59:02Z</time>
      </trkpt>
      <trkpt lat="49.36327" lon="5.90723">
        <ele>331.8</ele>
        <time>2021-07-28T07:59:03Z</time>
      </trkpt>
      <trkpt lat="49.36317" lon="5.90728">
        <ele>331.6</ele>
        <time>2021-07-28T07:59:05Z</time>
      </trkpt>
      <trkpt lat="49.36313" lon="5.9073">
        <ele>331.5</ele>
        <time>2021-07-28T07:59:06Z</time>
      </trkpt>
      <trkpt lat="49.36302" lon="5.90736">
        <ele>331.4</ele>
        <time>2021-07-28T07:59:08Z</time>
      </trkpt>
      <trkpt lat="49.36292" lon="5.9074">
        <ele>331.2</ele>
        <time>2021-07-28T07:59:10Z</time>
      </trkpt>
      <trkpt lat="49.36286" lon="5.90743">
        <ele>331.1</ele>
        <time>2021-07-28T07:59:11Z</time>
      </trkpt>
      <trkpt lat="49.36275" lon="5.90746">
        <ele>330.9</ele>
        <time>2021-07-28T07:59:13Z</time>
      </trkpt>
      <trkpt lat="49.36268" lon="5.90746">
        <ele>330.8</ele>
        <time>2021-07-28T07:59:14Z</time>
      </trkpt>
      <trkpt lat="49.36254" lon="5.90747">
        <ele>330.6</ele>
        <time>2021-07-28T07:59:16Z</time>
      </trkpt>
      <trkpt lat="49.36246" lon="5.90747">
        <ele>330.5</ele>
        <time>2021-07-28T07:59:17Z</time>
      </trkpt>
      <trkpt lat="49.36232" lon="5.90746">
        <ele>330.2</ele>
        <time>2021-07-28T07:59:19Z</time>
      </trkpt>
      <trkpt lat="49.36219" lon="5.90748">
        <ele>330.1</ele>
        <time>2021-07-28T07:59:21Z</time>
      </trkpt>
      <trkpt lat="49.36213" lon="5.90749">
        <ele>330</ele>
        <time>2021-07-28T07:59:22Z</time>
      </trkpt>
      <trkpt lat="49.36207" lon="5.9075">
        <ele>329.9</ele>
        <time>2021-07-28T07:59:23Z</time>
      </trkpt>
      <trkpt lat="49.36201" lon="5.90751">
        <ele>329.8</ele>
        <time>2021-07-28T07:59:24Z</time>
      </trkpt>
      <trkpt lat="49.36195" lon="5.90752">
        <ele>329.8</ele>
        <time>2021-07-28T07:59:25Z</time>
      </trkpt>
      <trkpt lat="49.36181" lon="5.90753">
        <ele>329.6</ele>
        <time>2021-07-28T07:59:27Z</time>
      </trkpt>
      <trkpt lat="49.36169" lon="5.90755">
        <ele>329.4</ele>
        <time>2021-07-28T07:59:29Z</time>
      </trkpt>
      <trkpt lat="49.36163" lon="5.90757">
        <ele>329.4</ele>
        <time>2021-07-28T07:59:30Z</time>
      </trkpt>
      <trkpt lat="49.36152" lon="5.90758">
        <ele>329.3</ele>
        <time>2021-07-28T07:59:32Z</time>
      </trkpt>
      <trkpt lat="49.36141" lon="5.90762">
        <ele>329.2</ele>
        <time>2021-07-28T07:59:34Z</time>
      </trkpt>
      <trkpt lat="49.36136" lon="5.90763">
        <ele>329.1</ele>
        <time>2021-07-28T07:59:35Z</time>
      </trkpt>
      <trkpt lat="49.3613" lon="5.90765">
        <ele>329</ele>
        <time>2021-07-28T07:59:36Z</time>
      </trkpt>
      <trkpt lat="49.36118" lon="5.90768">
        <ele>328.9</ele>
        <time>2021-07-28T07:59:38Z</time>
      </trkpt>
      <trkpt lat="49.36111" lon="5.9077">
        <ele>328.8</ele>
        <time>2021-07-28T07:59:39Z</time>
      </trkpt>
      <trkpt lat="49.36099" lon="5.90773">
        <ele>328.6</ele>
        <time>2021-07-28T07:59:41Z</time>
      </trkpt>
      <trkpt lat="49.36093" lon="5.90774">
        <ele>328.5</ele>
        <time>2021-07-28T07:59:42Z</time>
      </trkpt>
      <trkpt lat="49.36081" lon="5.90774">
        <ele>328.3</ele>
        <time>2021-07-28T07:59:44Z</time>
      </trkpt>
      <trkpt lat="49.36075" lon="5.90773">
        <ele>328.2</ele>
        <time>2021-07-28T07:59:45Z</time>
      </trkpt>
      <trkpt lat="49.36062" lon="5.90775">
        <ele>328.1</ele>
        <time>2021-07-28T07:59:47Z</time>
      </trkpt>
      <trkpt lat="49.36056" lon="5.90777">
        <ele>328</ele>
        <time>2021-07-28T07:59:48Z</time>
      </trkpt>
      <trkpt lat="49.36044" lon="5.90781">
        <ele>327.9</ele>
        <time>2021-07-28T07:59:50Z</time>
      </trkpt>
      <trkpt lat="49.36031" lon="5.90783">
        <ele>327.8</ele>
        <time>2021-07-28T07:59:52Z</time>
      </trkpt>
      <trkpt lat="49.36025" lon="5.90785">
        <ele>327.7</ele>
        <time>2021-07-28T07:59:53Z</time>
      </trkpt>
      <trkpt lat="49.36018" lon="5.90786">
        <ele>327.7</ele>
        <time>2021-07-28T07:59:54Z</time>
      </trkpt>
      <trkpt lat="49.36006" lon="5.90787">
        <ele>327.5</ele>
        <time>2021-07-28T07:59:56Z</time>
      </trkpt>
      <trkpt lat="49.35994" lon="5.90787">
        <ele>327.5</ele>
        <time>2021-07-28T07:59:58Z</time>
      </trkpt>
      <trkpt lat="49.35988" lon="5.90789">
        <ele>327.4</ele>
        <time>2021-07-28T07:59:59Z</time>
      </trkpt>
      <trkpt lat="49.35983" lon="5.9079">
        <ele>327.4</ele>
        <time>2021-07-28T08:00:00Z</time>
      </trkpt>
      <trkpt lat="49.35972" lon="5.90791">
        <ele>327.4</ele>
        <time>2021-07-28T08:00:02Z</time>
      </trkpt>
      <trkpt lat="49.35959" lon="5.90793">
        <ele>327.3</ele>
        <time>2021-07-28T08:00:04Z</time>
      </trkpt>
      <trkpt lat="49.35953" lon="5.90794">
        <ele>327.3</ele>
        <time>2021-07-28T08:00:05Z</time>
      </trkpt>
      <trkpt lat="49.35948" lon="5.90796">
        <ele>327.3</ele>
        <time>2021-07-28T08:00:06Z</time>
      </trkpt>
      <trkpt lat="49.35937" lon="5.90797">
        <ele>327.3</ele>
        <time>2021-07-28T08:00:08Z</time>
      </trkpt>
      <trkpt lat="49.35932" lon="5.90797">
        <ele>327.3</ele>
        <time>2021-07-28T08:00:09Z</time>
      </trkpt>
      <trkpt lat="49.35922" lon="5.90799">
        <ele>327.3</ele>
        <time>2021-07-28T08:00:11Z</time>
      </trkpt>
      <trkpt lat="49.35916" lon="5.908">
        <ele>327.3</ele>
        <time>2021-07-28T08:00:12Z</time>
      </trkpt>
      <trkpt lat="49.35906" lon="5.908">
        <ele>327.3</ele>
        <time>2021-07-28T08:00:14Z</time>
      </trkpt>
      <trkpt lat="49.35901" lon="5.908">
        <ele>327.3</ele>
        <time>2021-07-28T08:00:15Z</time>
      </trkpt>
      <trkpt lat="49.3589" lon="5.90801">
        <ele>327.3</ele>
        <time>2021-07-28T08:00:17Z</time>
      </trkpt>
      <trkpt lat="49.35877" lon="5.90802">
        <ele>327.4</ele>
        <time>2021-07-28T08:00:19Z</time>
      </trkpt>
      <trkpt lat="49.35863" lon="5.90801">
        <ele>327.4</ele>
        <time>2021-07-28T08:00:21Z</time>
      </trkpt>
      <trkpt lat="49.35856" lon="5.90802">
        <ele>327.4</ele>
        <time>2021-07-28T08:00:22Z</time>
      </trkpt>
      <trkpt lat="49.3585" lon="5.90803">
        <ele>327.4</ele>
        <time>2021-07-28T08:00:23Z</time>
      </trkpt>
      <trkpt lat="49.35844" lon="5.90805">
        <ele>327.4</ele>
        <time>2021-07-28T08:00:24Z</time>
      </trkpt>
      <trkpt lat="49.35839" lon="5.90807">
        <ele>327.4</ele>
        <time>2021-07-28T08:00:25Z</time>
      </trkpt>
      <trkpt lat="49.35836" lon="5.90808">
        <ele>327.4</ele>
        <time>2021-07-28T08:00:26Z</time>
      </trkpt>
      <trkpt lat="49.35828" lon="5.9081">
        <ele>327.5</ele>
        <time>2021-07-28T08:00:28Z</time>
      </trkpt>
      <trkpt lat="49.35823" lon="5.90811">
        <ele>327.5</ele>
        <time>2021-07-28T08:00:29Z</time>
      </trkpt>
      <trkpt lat="49.35818" lon="5.90813">
        <ele>327.5</ele>
        <time>2021-07-28T08:00:30Z</time>
      </trkpt>
      <trkpt lat="49.3581" lon="5.90814">
        <ele>327.5</ele>
        <time>2021-07-28T08:00:32Z</time>
      </trkpt>
      <trkpt lat="49.35811" lon="5.90809">
        <ele>327.6</ele>
        <time>2021-07-28T08:00:33Z</time>
      </trkpt>
      <trkpt lat="49.35807" lon="5.90814">
        <ele>327.6</ele>
        <time>2021-07-28T08:00:34Z</time>
      </trkpt>
      <trkpt lat="49.35802" lon="5.90818">
        <ele>327.6</ele>
        <time>2021-07-28T08:00:35Z</time>
      </trkpt>
      <trkpt lat="49.35797" lon="5.90822">
        <ele>327.6</ele>
        <time>2021-07-28T08:00:37Z</time>
      </trkpt>
      <trkpt lat="49.35792" lon="5.90826">
        <ele>327.7</ele>
        <time>2021-07-28T08:00:38Z</time>
      </trkpt>
      <trkpt lat="49.35786" lon="5.90831">
        <ele>327.7</ele>
        <time>2021-07-28T08:00:39Z</time>
      </trkpt>
      <trkpt lat="49.35781" lon="5.90835">
        <ele>327.7</ele>
        <time>2021-07-28T08:00:40Z</time>
      </trkpt>
      <trkpt lat="49.35773" lon="5.90839">
        <ele>327.7</ele>
        <time>2021-07-28T08:00:42Z</time>
      </trkpt>
      <trkpt lat="49.35766" lon="5.90843">
        <ele>327.7</ele>
        <time>2021-07-28T08:00:43Z</time>
      </trkpt>
      <trkpt lat="49.35762" lon="5.90845">
        <ele>327.7</ele>
        <time>2021-07-28T08:00:45Z</time>
      </trkpt>
      <trkpt lat="49.35757" lon="5.90847">
        <ele>327.8</ele>
        <time>2021-07-28T08:00:46Z</time>
      </trkpt>
      <trkpt lat="49.35752" lon="5.9085">
        <ele>327.8</ele>
        <time>2021-07-28T08:00:47Z</time>
      </trkpt>
      <trkpt lat="49.35748" lon="5.90852">
        <ele>327.8</ele>
        <time>2021-07-28T08:00:48Z</time>
      </trkpt>
      <trkpt lat="49.35739" lon="5.90857">
        <ele>327.7</ele>
        <time>2021-07-28T08:00:50Z</time>
      </trkpt>
      <trkpt lat="49.35735" lon="5.90859">
        <ele>327.7</ele>
        <time>2021-07-28T08:00:51Z</time>
      </trkpt>
      <trkpt lat="49.35731" lon="5.90859">
        <ele>327.7</ele>
        <time>2021-07-28T08:00:52Z</time>
      </trkpt>
      <trkpt lat="49.35728" lon="5.90857">
        <ele>327.7</ele>
        <time>2021-07-28T08:00:53Z</time>
      </trkpt>
      <trkpt lat="49.35723" lon="5.90862">
        <ele>327.7</ele>
        <time>2021-07-28T08:00:54Z</time>
      </trkpt>
      <trkpt lat="49.35717" lon="5.90865">
        <ele>327.7</ele>
        <time>2021-07-28T08:00:56Z</time>
      </trkpt>
      <trkpt lat="49.35714" lon="5.9087">
        <ele>327.7</ele>
        <time>2021-07-28T08:00:57Z</time>
      </trkpt>
      <trkpt lat="49.35709" lon="5.90873">
        <ele>327.7</ele>
        <time>2021-07-28T08:00:58Z</time>
      </trkpt>
      <trkpt lat="49.35702" lon="5.90876">
        <ele>327.7</ele>
        <time>2021-07-28T08:01:00Z</time>
      </trkpt>
      <trkpt lat="49.35693" lon="5.90878">
        <ele>327.7</ele>
        <time>2021-07-28T08:01:01Z</time>
      </trkpt>
      <trkpt lat="49.35684" lon="5.90881">
        <ele>327.7</ele>
        <time>2021-07-28T08:01:03Z</time>
      </trkpt>
      <trkpt lat="49.35678" lon="5.90883">
        <ele>327.7</ele>
        <time>2021-07-28T08:01:04Z</time>
      </trkpt>
      <trkpt lat="49.35669" lon="5.90889">
        <ele>327.6</ele>
        <time>2021-07-28T08:01:06Z</time>
      </trkpt>
      <trkpt lat="49.35665" lon="5.90891">
        <ele>327.6</ele>
        <time>2021-07-28T08:01:07Z</time>
      </trkpt>
      <trkpt lat="49.35661" lon="5.90889">
        <ele>327.6</ele>
        <time>2021-07-28T08:01:08Z</time>
      </trkpt>
      <trkpt lat="49.35656" lon="5.90889">
        <ele>327.6</ele>
        <time>2021-07-28T08:01:09Z</time>
      </trkpt>
      <trkpt lat="49.35649" lon="5.90896">
        <ele>327.7</ele>
        <time>2021-07-28T08:01:11Z</time>
      </trkpt>
      <trkpt lat="49.35642" lon="5.90901">
        <ele>327.7</ele>
        <time>2021-07-28T08:01:13Z</time>
      </trkpt>
      <trkpt lat="49.35636" lon="5.90904">
        <ele>327.7</ele>
        <time>2021-07-28T08:01:14Z</time>
      </trkpt>
      <trkpt lat="49.35631" lon="5.90908">
        <ele>327.7</ele>
        <time>2021-07-28T08:01:15Z</time>
      </trkpt>
      <trkpt lat="49.35625" lon="5.9091">
        <ele>327.7</ele>
        <time>2021-07-28T08:01:16Z</time>
      </trkpt>
      <trkpt lat="49.3562" lon="5.90912">
        <ele>327.7</ele>
        <time>2021-07-28T08:01:18Z</time>
      </trkpt>
      <trkpt lat="49.35616" lon="5.90913">
        <ele>327.7</ele>
        <time>2021-07-28T08:01:19Z</time>
      </trkpt>
      <trkpt lat="49.35612" lon="5.90915">
        <ele>327.7</ele>
        <time>2021-07-28T08:01:20Z</time>
      </trkpt>
      <trkpt lat="49.35605" lon="5.90916">
        <ele>327.7</ele>
        <time>2021-07-28T08:01:21Z</time>
      </trkpt>
      <trkpt lat="49.356" lon="5.90919">
        <ele>327.7</ele>
        <time>2021-07-28T08:01:23Z</time>
      </trkpt>
      <trkpt lat="49.35594" lon="5.90925">
        <ele>327.7</ele>
        <time>2021-07-28T08:01:25Z</time>
      </trkpt>
      <trkpt lat="49.35591" lon="5.90927">
        <ele>327.7</ele>
        <time>2021-07-28T08:01:26Z</time>
      </trkpt>
      <trkpt lat="49.35588" lon="5.9093">
        <ele>327.7</ele>
        <time>2021-07-28T08:01:27Z</time>
      </trkpt>
      <trkpt lat="49.3558" lon="5.90934">
        <ele>327.7</ele>
        <time>2021-07-28T08:01:29Z</time>
      </trkpt>
      <trkpt lat="49.35575" lon="5.90936">
        <ele>327.7</ele>
        <time>2021-07-28T08:01:30Z</time>
      </trkpt>
      <trkpt lat="49.35566" lon="5.9094">
        <ele>327.7</ele>
        <time>2021-07-28T08:01:32Z</time>
      </trkpt>
      <trkpt lat="49.35557" lon="5.90944">
        <ele>327.7</ele>
        <time>2021-07-28T08:01:34Z</time>
      </trkpt>
      <trkpt lat="49.35553" lon="5.90946">
        <ele>327.7</ele>
        <time>2021-07-28T08:01:35Z</time>
      </trkpt>
      <trkpt lat="49.35549" lon="5.90948">
        <ele>327.7</ele>
        <time>2021-07-28T08:01:36Z</time>
      </trkpt>
      <trkpt lat="49.35544" lon="5.90949">
        <ele>327.7</ele>
        <time>2021-07-28T08:01:37Z</time>
      </trkpt>
      <trkpt lat="49.3554" lon="5.9095">
        <ele>327.8</ele>
        <time>2021-07-28T08:01:38Z</time>
      </trkpt>
      <trkpt lat="49.35536" lon="5.90952">
        <ele>327.8</ele>
        <time>2021-07-28T08:01:39Z</time>
      </trkpt>
      <trkpt lat="49.35533" lon="5.90955">
        <ele>327.8</ele>
        <time>2021-07-28T08:01:40Z</time>
      </trkpt>
      <trkpt lat="49.3553" lon="5.90958">
        <ele>327.8</ele>
        <time>2021-07-28T08:01:41Z</time>
      </trkpt>
      <trkpt lat="49.35526" lon="5.90959">
        <ele>327.8</ele>
        <time>2021-07-28T08:01:42Z</time>
      </trkpt>
      <trkpt lat="49.35522" lon="5.9096">
        <ele>327.8</ele>
        <time>2021-07-28T08:01:44Z</time>
      </trkpt>
      <trkpt lat="49.35519" lon="5.90962">
        <ele>327.9</ele>
        <time>2021-07-28T08:01:45Z</time>
      </trkpt>
      <trkpt lat="49.35514" lon="5.90965">
        <ele>327.9</ele>
        <time>2021-07-28T08:01:46Z</time>
      </trkpt>
      <trkpt lat="49.35509" lon="5.90967">
        <ele>328</ele>
        <time>2021-07-28T08:01:47Z</time>
      </trkpt>
      <trkpt lat="49.35504" lon="5.90968">
        <ele>328</ele>
        <time>2021-07-28T08:01:48Z</time>
      </trkpt>
      <trkpt lat="49.35499" lon="5.90971">
        <ele>328.1</ele>
        <time>2021-07-28T08:01:49Z</time>
      </trkpt>
      <trkpt lat="49.35494" lon="5.90973">
        <ele>328.2</ele>
        <time>2021-07-28T08:01:50Z</time>
      </trkpt>
      <trkpt lat="49.35488" lon="5.90976">
        <ele>328.2</ele>
        <time>2021-07-28T08:01:52Z</time>
      </trkpt>
      <trkpt lat="49.35478" lon="5.9098">
        <ele>328.4</ele>
        <time>2021-07-28T08:01:54Z</time>
      </trkpt>
      <trkpt lat="49.35472" lon="5.90983">
        <ele>328.5</ele>
        <time>2021-07-28T08:01:55Z</time>
      </trkpt>
      <trkpt lat="49.35467" lon="5.90985">
        <ele>328.6</ele>
        <time>2021-07-28T08:01:56Z</time>
      </trkpt>
      <trkpt lat="49.35462" lon="5.90988">
        <ele>328.7</ele>
        <time>2021-07-28T08:01:57Z</time>
      </trkpt>
      <trkpt lat="49.35454" lon="5.90993">
        <ele>328.8</ele>
        <time>2021-07-28T08:02:00Z</time>
      </trkpt>
      <trkpt lat="49.3545" lon="5.90995">
        <ele>328.9</ele>
        <time>2021-07-28T08:02:01Z</time>
      </trkpt>
      <trkpt lat="49.35443" lon="5.90997">
        <ele>329</ele>
        <time>2021-07-28T08:02:02Z</time>
      </trkpt>
      <trkpt lat="49.35438" lon="5.91">
        <ele>329.1</ele>
        <time>2021-07-28T08:02:03Z</time>
      </trkpt>
      <trkpt lat="49.35433" lon="5.91003">
        <ele>329.1</ele>
        <time>2021-07-28T08:02:05Z</time>
      </trkpt>
      <trkpt lat="49.3543" lon="5.91006">
        <ele>329.2</ele>
        <time>2021-07-28T08:02:06Z</time>
      </trkpt>
      <trkpt lat="49.35425" lon="5.91008">
        <ele>329.3</ele>
        <time>2021-07-28T08:02:07Z</time>
      </trkpt>
      <trkpt lat="49.35422" lon="5.9101">
        <ele>329.3</ele>
        <time>2021-07-28T08:02:08Z</time>
      </trkpt>
      <trkpt lat="49.35417" lon="5.91012">
        <ele>329.4</ele>
        <time>2021-07-28T08:02:09Z</time>
      </trkpt>
      <trkpt lat="49.35413" lon="5.91014">
        <ele>329.4</ele>
        <time>2021-07-28T08:02:11Z</time>
      </trkpt>
      <trkpt lat="49.3541" lon="5.91017">
        <ele>329.4</ele>
        <time>2021-07-28T08:02:12Z</time>
      </trkpt>
      <trkpt lat="49.35407" lon="5.91019">
        <ele>329.5</ele>
        <time>2021-07-28T08:02:13Z</time>
      </trkpt>
      <trkpt lat="49.35401" lon="5.91022">
        <ele>329.5</ele>
        <time>2021-07-28T08:02:14Z</time>
      </trkpt>
      <trkpt lat="49.35397" lon="5.91024">
        <ele>329.6</ele>
        <time>2021-07-28T08:02:16Z</time>
      </trkpt>
      <trkpt lat="49.35394" lon="5.91027">
        <ele>329.6</ele>
        <time>2021-07-28T08:02:17Z</time>
      </trkpt>
      <trkpt lat="49.35391" lon="5.9103">
        <ele>329.6</ele>
        <time>2021-07-28T08:02:18Z</time>
      </trkpt>
      <trkpt lat="49.35384" lon="5.91034">
        <ele>329.7</ele>
        <time>2021-07-28T08:02:20Z</time>
      </trkpt>
      <trkpt lat="49.35376" lon="5.91036">
        <ele>329.7</ele>
        <time>2021-07-28T08:02:22Z</time>
      </trkpt>
      <trkpt lat="49.35368" lon="5.91038">
        <ele>329.8</ele>
        <time>2021-07-28T08:02:24Z</time>
      </trkpt>
      <trkpt lat="49.35364" lon="5.91038">
        <ele>329.8</ele>
        <time>2021-07-28T08:02:25Z</time>
      </trkpt>
      <trkpt lat="49.35361" lon="5.91038">
        <ele>329.7</ele>
        <time>2021-07-28T08:02:26Z</time>
      </trkpt>
      <trkpt lat="49.35358" lon="5.91039">
        <ele>329.7</ele>
        <time>2021-07-28T08:02:27Z</time>
      </trkpt>
      <trkpt lat="49.35351" lon="5.91041">
        <ele>329.7</ele>
        <time>2021-07-28T08:02:28Z</time>
      </trkpt>
      <trkpt lat="49.35346" lon="5.91043">
        <ele>329.6</ele>
        <time>2021-07-28T08:02:30Z</time>
      </trkpt>
      <trkpt lat="49.35342" lon="5.91044">
        <ele>329.5</ele>
        <time>2021-07-28T08:02:31Z</time>
      </trkpt>
      <trkpt lat="49.35338" lon="5.91046">
        <ele>329.4</ele>
        <time>2021-07-28T08:02:32Z</time>
      </trkpt>
      <trkpt lat="49.3533" lon="5.91049">
        <ele>329.1</ele>
        <time>2021-07-28T08:02:34Z</time>
      </trkpt>
      <trkpt lat="49.35327" lon="5.91052">
        <ele>329</ele>
        <time>2021-07-28T08:02:35Z</time>
      </trkpt>
      <trkpt lat="49.35319" lon="5.91056">
        <ele>328.7</ele>
        <time>2021-07-28T08:02:37Z</time>
      </trkpt>
      <trkpt lat="49.35311" lon="5.91059">
        <ele>328.4</ele>
        <time>2021-07-28T08:02:39Z</time>
      </trkpt>
      <trkpt lat="49.35301" lon="5.91063">
        <ele>328</ele>
        <time>2021-07-28T08:02:41Z</time>
      </trkpt>
      <trkpt lat="49.35296" lon="5.91066">
        <ele>327.8</ele>
        <time>2021-07-28T08:02:42Z</time>
      </trkpt>
      <trkpt lat="49.35286" lon="5.91073">
        <ele>327.4</ele>
        <time>2021-07-28T08:02:44Z</time>
      </trkpt>
      <trkpt lat="49.35281" lon="5.91077">
        <ele>327.1</ele>
        <time>2021-07-28T08:02:45Z</time>
      </trkpt>
      <trkpt lat="49.3527" lon="5.91085">
        <ele>326.7</ele>
        <time>2021-07-28T08:02:47Z</time>
      </trkpt>
      <trkpt lat="49.35264" lon="5.91088">
        <ele>326.4</ele>
        <time>2021-07-28T08:02:48Z</time>
      </trkpt>
      <trkpt lat="49.35252" lon="5.91093">
        <ele>326</ele>
        <time>2021-07-28T08:02:50Z</time>
      </trkpt>
      <trkpt lat="49.35246" lon="5.91096">
        <ele>325.8</ele>
        <time>2021-07-28T08:02:51Z</time>
      </trkpt>
      <trkpt lat="49.3524" lon="5.91099">
        <ele>325.6</ele>
        <time>2021-07-28T08:02:52Z</time>
      </trkpt>
      <trkpt lat="49.35235" lon="5.91101">
        <ele>325.4</ele>
        <time>2021-07-28T08:02:53Z</time>
      </trkpt>
      <trkpt lat="49.35224" lon="5.91107">
        <ele>325.1</ele>
        <time>2021-07-28T08:02:55Z</time>
      </trkpt>
      <trkpt lat="49.35219" lon="5.91109">
        <ele>324.9</ele>
        <time>2021-07-28T08:02:56Z</time>
      </trkpt>
      <trkpt lat="49.35209" lon="5.91113">
        <ele>324.7</ele>
        <time>2021-07-28T08:02:58Z</time>
      </trkpt>
      <trkpt lat="49.35204" lon="5.91115">
        <ele>324.7</ele>
        <time>2021-07-28T08:02:59Z</time>
      </trkpt>
      <trkpt lat="49.352" lon="5.91117">
        <ele>324.6</ele>
        <time>2021-07-28T08:03:00Z</time>
      </trkpt>
      <trkpt lat="49.35197" lon="5.91119">
        <ele>324.6</ele>
        <time>2021-07-28T08:03:01Z</time>
      </trkpt>
      <trkpt lat="49.35194" lon="5.91122">
        <ele>324.6</ele>
        <time>2021-07-28T08:03:02Z</time>
      </trkpt>
      <trkpt lat="49.35187" lon="5.91128">
        <ele>324.5</ele>
        <time>2021-07-28T08:03:04Z</time>
      </trkpt>
      <trkpt lat="49.35184" lon="5.91132">
        <ele>324.2</ele>
        <time>2021-07-28T08:03:05Z</time>
      </trkpt>
      <trkpt lat="49.35176" lon="5.91143">
        <ele>323.6</ele>
        <time>2021-07-28T08:03:07Z</time>
      </trkpt>
      <trkpt lat="49.35173" lon="5.91149">
        <ele>323.3</ele>
        <time>2021-07-28T08:03:08Z</time>
      </trkpt>
      <trkpt lat="49.35169" lon="5.91155">
        <ele>323.1</ele>
        <time>2021-07-28T08:03:09Z</time>
      </trkpt>
      <trkpt lat="49.35162" lon="5.91168">
        <ele>322.5</ele>
        <time>2021-07-28T08:03:11Z</time>
      </trkpt>
      <trkpt lat="49.35158" lon="5.91177">
        <ele>322.1</ele>
        <time>2021-07-28T08:03:12Z</time>
      </trkpt>
      <trkpt lat="49.35151" lon="5.91196">
        <ele>321.4</ele>
        <time>2021-07-28T08:03:14Z</time>
      </trkpt>
      <trkpt lat="49.35149" lon="5.91207">
        <ele>321.1</ele>
        <time>2021-07-28T08:03:15Z</time>
      </trkpt>
      <trkpt lat="49.35146" lon="5.91218">
        <ele>320.7</ele>
        <time>2021-07-28T08:03:16Z</time>
      </trkpt>
      <trkpt lat="49.35143" lon="5.91242">
        <ele>320.2</ele>
        <time>2021-07-28T08:03:18Z</time>
      </trkpt>
      <trkpt lat="49.35142" lon="5.91254">
        <ele>320</ele>
        <time>2021-07-28T08:03:19Z</time>
      </trkpt>
      <trkpt lat="49.35139" lon="5.91278">
        <ele>319.6</ele>
        <time>2021-07-28T08:03:21Z</time>
      </trkpt>
      <trkpt lat="49.35137" lon="5.91301">
        <ele>319.1</ele>
        <time>2021-07-28T08:03:23Z</time>
      </trkpt>
      <trkpt lat="49.35134" lon="5.91324">
        <ele>318.6</ele>
        <time>2021-07-28T08:03:25Z</time>
      </trkpt>
      <trkpt lat="49.3513" lon="5.91346">
        <ele>318.4</ele>
        <time>2021-07-28T08:03:27Z</time>
      </trkpt>
      <trkpt lat="49.35126" lon="5.91366">
        <ele>318.3</ele>
        <time>2021-07-28T08:03:29Z</time>
      </trkpt>
      <trkpt lat="49.35124" lon="5.91375">
        <ele>318.2</ele>
        <time>2021-07-28T08:03:30Z</time>
      </trkpt>
      <trkpt lat="49.35122" lon="5.9139">
        <ele>318.2</ele>
        <time>2021-07-28T08:03:32Z</time>
      </trkpt>
      <trkpt lat="49.35121" lon="5.91398">
        <ele>318.1</ele>
        <time>2021-07-28T08:03:33Z</time>
      </trkpt>
      <trkpt lat="49.35119" lon="5.91405">
        <ele>318.1</ele>
        <time>2021-07-28T08:03:34Z</time>
      </trkpt>
      <trkpt lat="49.35116" lon="5.91422">
        <ele>317.9</ele>
        <time>2021-07-28T08:03:36Z</time>
      </trkpt>
      <trkpt lat="49.35113" lon="5.9144">
        <ele>317.7</ele>
        <time>2021-07-28T08:03:38Z</time>
      </trkpt>
      <trkpt lat="49.3511" lon="5.91448">
        <ele>317.5</ele>
        <time>2021-07-28T08:03:39Z</time>
      </trkpt>
      <trkpt lat="49.35107" lon="5.91456">
        <ele>317.4</ele>
        <time>2021-07-28T08:03:40Z</time>
      </trkpt>
      <trkpt lat="49.35102" lon="5.91473">
        <ele>317</ele>
        <time>2021-07-28T08:03:42Z</time>
      </trkpt>
      <trkpt lat="49.35098" lon="5.9149">
        <ele>316.6</ele>
        <time>2021-07-28T08:03:44Z</time>
      </trkpt>
      <trkpt lat="49.35094" lon="5.91498">
        <ele>316.4</ele>
        <time>2021-07-28T08:03:45Z</time>
      </trkpt>
      <trkpt lat="49.35089" lon="5.91517">
        <ele>315.9</ele>
        <time>2021-07-28T08:03:47Z</time>
      </trkpt>
      <trkpt lat="49.35087" lon="5.91526">
        <ele>315.7</ele>
        <time>2021-07-28T08:03:48Z</time>
      </trkpt>
      <trkpt lat="49.35085" lon="5.91535">
        <ele>315.5</ele>
        <time>2021-07-28T08:03:49Z</time>
      </trkpt>
      <trkpt lat="49.35081" lon="5.91554">
        <ele>315.4</ele>
        <time>2021-07-28T08:03:51Z</time>
      </trkpt>
      <trkpt lat="49.35077" lon="5.91574">
        <ele>315.2</ele>
        <time>2021-07-28T08:03:53Z</time>
      </trkpt>
      <trkpt lat="49.35074" lon="5.91583">
        <ele>315.1</ele>
        <time>2021-07-28T08:03:54Z</time>
      </trkpt>
      <trkpt lat="49.35071" lon="5.91592">
        <ele>315</ele>
        <time>2021-07-28T08:03:55Z</time>
      </trkpt>
      <trkpt lat="49.35067" lon="5.916">
        <ele>314.8</ele>
        <time>2021-07-28T08:03:56Z</time>
      </trkpt>
      <trkpt lat="49.35059" lon="5.91617">
        <ele>314.6</ele>
        <time>2021-07-28T08:03:58Z</time>
      </trkpt>
      <trkpt lat="49.35056" lon="5.91627">
        <ele>314.4</ele>
        <time>2021-07-28T08:03:59Z</time>
      </trkpt>
      <trkpt lat="49.35055" lon="5.91637">
        <ele>314.3</ele>
        <time>2021-07-28T08:04:00Z</time>
      </trkpt>
      <trkpt lat="49.35051" lon="5.91654">
        <ele>314.2</ele>
        <time>2021-07-28T08:04:02Z</time>
      </trkpt>
      <trkpt lat="49.35049" lon="5.91662">
        <ele>314.2</ele>
        <time>2021-07-28T08:04:03Z</time>
      </trkpt>
      <trkpt lat="49.35047" lon="5.91679">
        <ele>314</ele>
        <time>2021-07-28T08:04:05Z</time>
      </trkpt>
      <trkpt lat="49.35047" lon="5.91688">
        <ele>313.8</ele>
        <time>2021-07-28T08:04:06Z</time>
      </trkpt>
      <trkpt lat="49.35045" lon="5.91708">
        <ele>313.3</ele>
        <time>2021-07-28T08:04:08Z</time>
      </trkpt>
      <trkpt lat="49.35044" lon="5.91717">
        <ele>313.1</ele>
        <time>2021-07-28T08:04:09Z</time>
      </trkpt>
      <trkpt lat="49.35042" lon="5.91726">
        <ele>312.9</ele>
        <time>2021-07-28T08:04:10Z</time>
      </trkpt>
      <trkpt lat="49.35041" lon="5.91735">
        <ele>312.8</ele>
        <time>2021-07-28T08:04:11Z</time>
      </trkpt>
      <trkpt lat="49.35039" lon="5.91743">
        <ele>312.8</ele>
        <time>2021-07-28T08:04:12Z</time>
      </trkpt>
      <trkpt lat="49.35038" lon="5.91752">
        <ele>312.8</ele>
        <time>2021-07-28T08:04:13Z</time>
      </trkpt>
      <trkpt lat="49.35037" lon="5.91761">
        <ele>312.9</ele>
        <time>2021-07-28T08:04:14Z</time>
      </trkpt>
      <trkpt lat="49.35035" lon="5.9178">
        <ele>313</ele>
        <time>2021-07-28T08:04:16Z</time>
      </trkpt>
      <trkpt lat="49.35032" lon="5.91799">
        <ele>313</ele>
        <time>2021-07-28T08:04:18Z</time>
      </trkpt>
      <trkpt lat="49.35031" lon="5.91818">
        <ele>313.2</ele>
        <time>2021-07-28T08:04:20Z</time>
      </trkpt>
      <trkpt lat="49.35031" lon="5.91836">
        <ele>313.4</ele>
        <time>2021-07-28T08:04:22Z</time>
      </trkpt>
      <trkpt lat="49.3503" lon="5.91851">
        <ele>313.7</ele>
        <time>2021-07-28T08:04:24Z</time>
      </trkpt>
      <trkpt lat="49.35028" lon="5.91865">
        <ele>314.1</ele>
        <time>2021-07-28T08:04:26Z</time>
      </trkpt>
      <trkpt lat="49.35027" lon="5.91869">
        <ele>314.2</ele>
        <time>2021-07-28T08:04:27Z</time>
      </trkpt>
      <trkpt lat="49.35025" lon="5.91879">
        <ele>314.3</ele>
        <time>2021-07-28T08:04:29Z</time>
      </trkpt>
      <trkpt lat="49.35023" lon="5.91884">
        <ele>314.4</ele>
        <time>2021-07-28T08:04:30Z</time>
      </trkpt>
      <trkpt lat="49.35022" lon="5.91892">
        <ele>314.4</ele>
        <time>2021-07-28T08:04:32Z</time>
      </trkpt>
      <trkpt lat="49.35021" lon="5.91898">
        <ele>314.4</ele>
        <time>2021-07-28T08:04:33Z</time>
      </trkpt>
      <trkpt lat="49.35019" lon="5.91904">
        <ele>314.4</ele>
        <time>2021-07-28T08:04:35Z</time>
      </trkpt>
      <trkpt lat="49.35018" lon="5.91912">
        <ele>314.3</ele>
        <time>2021-07-28T08:04:36Z</time>
      </trkpt>
      <trkpt lat="49.35018" lon="5.91915">
        <ele>314.2</ele>
        <time>2021-07-28T08:04:37Z</time>
      </trkpt>
      <trkpt lat="49.35017" lon="5.91921">
        <ele>314.1</ele>
        <time>2021-07-28T08:04:38Z</time>
      </trkpt>
      <trkpt lat="49.35017" lon="5.91927">
        <ele>313.9</ele>
        <time>2021-07-28T08:04:39Z</time>
      </trkpt>
      <trkpt lat="49.35016" lon="5.91934">
        <ele>313.8</ele>
        <time>2021-07-28T08:04:41Z</time>
      </trkpt>
      <trkpt lat="49.35014" lon="5.9194">
        <ele>313.6</ele>
        <time>2021-07-28T08:04:42Z</time>
      </trkpt>
      <trkpt lat="49.35014" lon="5.91945">
        <ele>313.5</ele>
        <time>2021-07-28T08:04:43Z</time>
      </trkpt>
      <trkpt lat="49.35015" lon="5.9195">
        <ele>313.4</ele>
        <time>2021-07-28T08:04:44Z</time>
      </trkpt>
      <trkpt lat="49.35024" lon="5.91964">
        <ele>312.8</ele>
        <time>2021-07-28T08:04:46Z</time>
      </trkpt>
      <trkpt lat="49.35029" lon="5.91972">
        <ele>312.4</ele>
        <time>2021-07-28T08:04:47Z</time>
      </trkpt>
      <trkpt lat="49.35033" lon="5.9198">
        <ele>312</ele>
        <time>2021-07-28T08:04:48Z</time>
      </trkpt>
      <trkpt lat="49.35042" lon="5.92001">
        <ele>311.1</ele>
        <time>2021-07-28T08:04:50Z</time>
      </trkpt>
      <trkpt lat="49.3505" lon="5.92024">
        <ele>310.5</ele>
        <time>2021-07-28T08:04:52Z</time>
      </trkpt>
      <trkpt lat="49.35053" lon="5.92036">
        <ele>310.5</ele>
        <time>2021-07-28T08:04:53Z</time>
      </trkpt>
      <trkpt lat="49.35056" lon="5.92048">
        <ele>310.4</ele>
        <time>2021-07-28T08:04:54Z</time>
      </trkpt>
      <trkpt lat="49.35062" lon="5.9207">
        <ele>310.2</ele>
        <time>2021-07-28T08:04:56Z</time>
      </trkpt>
      <trkpt lat="49.35066" lon="5.92093">
        <ele>310.2</ele>
        <time>2021-07-28T08:04:58Z</time>
      </trkpt>
      <trkpt lat="49.35068" lon="5.92104">
        <ele>310.3</ele>
        <time>2021-07-28T08:04:59Z</time>
      </trkpt>
      <trkpt lat="49.3507" lon="5.92114">
        <ele>310.3</ele>
        <time>2021-07-28T08:05:00Z</time>
      </trkpt>
      <trkpt lat="49.35074" lon="5.92134">
        <ele>310.4</ele>
        <time>2021-07-28T08:05:02Z</time>
      </trkpt>
      <trkpt lat="49.35076" lon="5.92143">
        <ele>310.4</ele>
        <time>2021-07-28T08:05:03Z</time>
      </trkpt>
      <trkpt lat="49.35078" lon="5.9216">
        <ele>310.3</ele>
        <time>2021-07-28T08:05:05Z</time>
      </trkpt>
      <trkpt lat="49.3508" lon="5.92168">
        <ele>310.4</ele>
        <time>2021-07-28T08:05:06Z</time>
      </trkpt>
      <trkpt lat="49.35083" lon="5.92184">
        <ele>310.6</ele>
        <time>2021-07-28T08:05:08Z</time>
      </trkpt>
      <trkpt lat="49.35085" lon="5.92199">
        <ele>310.8</ele>
        <time>2021-07-28T08:05:10Z</time>
      </trkpt>
      <trkpt lat="49.35087" lon="5.92206">
        <ele>310.8</ele>
        <time>2021-07-28T08:05:11Z</time>
      </trkpt>
      <trkpt lat="49.35089" lon="5.92213">
        <ele>310.8</ele>
        <time>2021-07-28T08:05:12Z</time>
      </trkpt>
      <trkpt lat="49.35094" lon="5.92227">
        <ele>310.7</ele>
        <time>2021-07-28T08:05:14Z</time>
      </trkpt>
      <trkpt lat="49.35101" lon="5.92243">
        <ele>310.6</ele>
        <time>2021-07-28T08:05:16Z</time>
      </trkpt>
      <trkpt lat="49.35104" lon="5.92252">
        <ele>310.5</ele>
        <time>2021-07-28T08:05:17Z</time>
      </trkpt>
      <trkpt lat="49.35107" lon="5.92261">
        <ele>310.4</ele>
        <time>2021-07-28T08:05:18Z</time>
      </trkpt>
      <trkpt lat="49.35114" lon="5.92275">
        <ele>310.2</ele>
        <time>2021-07-28T08:05:20Z</time>
      </trkpt>
      <trkpt lat="49.35118" lon="5.9229">
        <ele>310.3</ele>
        <time>2021-07-28T08:05:22Z</time>
      </trkpt>
      <trkpt lat="49.3512" lon="5.92304">
        <ele>310.4</ele>
        <time>2021-07-28T08:05:24Z</time>
      </trkpt>
      <trkpt lat="49.35122" lon="5.92314">
        <ele>310.4</ele>
        <time>2021-07-28T08:05:25Z</time>
      </trkpt>
      <trkpt lat="49.35124" lon="5.92325">
        <ele>310.5</ele>
        <time>2021-07-28T08:05:26Z</time>
      </trkpt>
      <trkpt lat="49.3513" lon="5.92347">
        <ele>310.3</ele>
        <time>2021-07-28T08:05:28Z</time>
      </trkpt>
      <trkpt lat="49.35132" lon="5.92357">
        <ele>310.1</ele>
        <time>2021-07-28T08:05:29Z</time>
      </trkpt>
      <trkpt lat="49.35136" lon="5.92376">
        <ele>309.8</ele>
        <time>2021-07-28T08:05:31Z</time>
      </trkpt>
      <trkpt lat="49.35137" lon="5.92386">
        <ele>309.6</ele>
        <time>2021-07-28T08:05:32Z</time>
      </trkpt>
      <trkpt lat="49.35139" lon="5.92395">
        <ele>309.6</ele>
        <time>2021-07-28T08:05:33Z</time>
      </trkpt>
      <trkpt lat="49.35141" lon="5.92411">
        <ele>309.6</ele>
        <time>2021-07-28T08:05:35Z</time>
      </trkpt>
      <trkpt lat="49.35142" lon="5.92419">
        <ele>309.6</ele>
        <time>2021-07-28T08:05:36Z</time>
      </trkpt>
      <trkpt lat="49.35144" lon="5.92435">
        <ele>309.8</ele>
        <time>2021-07-28T08:05:38Z</time>
      </trkpt>
      <trkpt lat="49.35145" lon="5.92452">
        <ele>309.9</ele>
        <time>2021-07-28T08:05:40Z</time>
      </trkpt>
      <trkpt lat="49.35146" lon="5.92461">
        <ele>309.9</ele>
        <time>2021-07-28T08:05:41Z</time>
      </trkpt>
      <trkpt lat="49.35147" lon="5.92469">
        <ele>309.9</ele>
        <time>2021-07-28T08:05:42Z</time>
      </trkpt>
      <trkpt lat="49.35146" lon="5.92484">
        <ele>309.9</ele>
        <time>2021-07-28T08:05:44Z</time>
      </trkpt>
      <trkpt lat="49.35144" lon="5.92489">
        <ele>309.9</ele>
        <time>2021-07-28T08:05:45Z</time>
      </trkpt>
      <trkpt lat="49.3514" lon="5.92492">
        <ele>309.9</ele>
        <time>2021-07-28T08:05:46Z</time>
      </trkpt>
      <trkpt lat="49.35124" lon="5.92494">
        <ele>309.9</ele>
        <time>2021-07-28T08:05:48Z</time>
      </trkpt>
      <trkpt lat="49.35105" lon="5.92495">
        <ele>309.3</ele>
        <time>2021-07-28T08:05:50Z</time>
      </trkpt>
      <trkpt lat="49.35091" lon="5.92494">
        <ele>308.9</ele>
        <time>2021-07-28T08:05:52Z</time>
      </trkpt>
      <trkpt lat="49.35085" lon="5.92494">
        <ele>308.8</ele>
        <time>2021-07-28T08:05:53Z</time>
      </trkpt>
      <trkpt lat="49.35075" lon="5.92495">
        <ele>308.5</ele>
        <time>2021-07-28T08:05:55Z</time>
      </trkpt>
      <trkpt lat="49.3507" lon="5.92495">
        <ele>308.4</ele>
        <time>2021-07-28T08:05:56Z</time>
      </trkpt>
      <trkpt lat="49.3506" lon="5.92495">
        <ele>308.1</ele>
        <time>2021-07-28T08:05:58Z</time>
      </trkpt>
      <trkpt lat="49.3505" lon="5.92492">
        <ele>307.8</ele>
        <time>2021-07-28T08:06:00Z</time>
      </trkpt>
      <trkpt lat="49.35042" lon="5.92491">
        <ele>307.5</ele>
        <time>2021-07-28T08:06:02Z</time>
      </trkpt>
      <trkpt lat="49.35034" lon="5.9249">
        <ele>307.3</ele>
        <time>2021-07-28T08:06:03Z</time>
      </trkpt>
      <trkpt lat="49.35031" lon="5.92488">
        <ele>307.2</ele>
        <time>2021-07-28T08:06:05Z</time>
      </trkpt>
      <trkpt lat="49.35027" lon="5.92487">
        <ele>307</ele>
        <time>2021-07-28T08:06:06Z</time>
      </trkpt>
      <trkpt lat="49.35019" lon="5.9249">
        <ele>306.7</ele>
        <time>2021-07-28T08:06:08Z</time>
      </trkpt>
      <trkpt lat="49.35014" lon="5.92488">
        <ele>306.6</ele>
        <time>2021-07-28T08:06:10Z</time>
      </trkpt>
      <trkpt lat="49.35011" lon="5.92492">
        <ele>306.4</ele>
        <time>2021-07-28T08:06:11Z</time>
      </trkpt>
      <trkpt lat="49.35007" lon="5.92495">
        <ele>306.3</ele>
        <time>2021-07-28T08:06:12Z</time>
      </trkpt>
      <trkpt lat="49.35002" lon="5.92496">
        <ele>306.1</ele>
        <time>2021-07-28T08:06:14Z</time>
      </trkpt>
      <trkpt lat="49.34994" lon="5.92497">
        <ele>306</ele>
        <time>2021-07-28T08:06:16Z</time>
      </trkpt>
      <trkpt lat="49.34991" lon="5.92496">
        <ele>305.9</ele>
        <time>2021-07-28T08:06:17Z</time>
      </trkpt>
      <trkpt lat="49.34986" lon="5.92494">
        <ele>305.8</ele>
        <time>2021-07-28T08:06:18Z</time>
      </trkpt>
      <trkpt lat="49.34982" lon="5.92493">
        <ele>305.5</ele>
        <time>2021-07-28T08:06:20Z</time>
      </trkpt>
      <trkpt lat="49.34979" lon="5.92498">
        <ele>305.5</ele>
        <time>2021-07-28T08:06:21Z</time>
      </trkpt>
      <trkpt lat="49.34978" lon="5.92501">
        <ele>305.5</ele>
        <time>2021-07-28T08:06:22Z</time>
      </trkpt>
      <trkpt lat="49.34977" lon="5.92507">
        <ele>305.6</ele>
        <time>2021-07-28T08:06:24Z</time>
      </trkpt>
      <trkpt lat="49.34977" lon="5.92514">
        <ele>305.6</ele>
        <time>2021-07-28T08:06:25Z</time>
      </trkpt>
      <trkpt lat="49.34977" lon="5.9252">
        <ele>305.6</ele>
        <time>2021-07-28T08:06:27Z</time>
      </trkpt>
      <trkpt lat="49.34979" lon="5.92532">
        <ele>305.5</ele>
        <time>2021-07-28T08:06:29Z</time>
      </trkpt>
      <trkpt lat="49.3498" lon="5.92536">
        <ele>305.5</ele>
        <time>2021-07-28T08:06:30Z</time>
      </trkpt>
      <trkpt lat="49.34978" lon="5.92546">
        <ele>305.4</ele>
        <time>2021-07-28T08:06:31Z</time>
      </trkpt>
      <trkpt lat="49.34976" lon="5.92555">
        <ele>305.4</ele>
        <time>2021-07-28T08:06:33Z</time>
      </trkpt>
      <trkpt lat="49.34976" lon="5.92562">
        <ele>305.3</ele>
        <time>2021-07-28T08:06:34Z</time>
      </trkpt>
      <trkpt lat="49.34975" lon="5.92576">
        <ele>305.3</ele>
        <time>2021-07-28T08:06:36Z</time>
      </trkpt>
      <trkpt lat="49.34975" lon="5.92586">
        <ele>305.3</ele>
        <time>2021-07-28T08:06:38Z</time>
      </trkpt>
      <trkpt lat="49.34975" lon="5.92598">
        <ele>305.3</ele>
        <time>2021-07-28T08:06:40Z</time>
      </trkpt>
      <trkpt lat="49.34978" lon="5.9261">
        <ele>305.4</ele>
        <time>2021-07-28T08:06:42Z</time>
      </trkpt>
      <trkpt lat="49.34979" lon="5.92623">
        <ele>305.5</ele>
        <time>2021-07-28T08:06:44Z</time>
      </trkpt>
      <trkpt lat="49.3498" lon="5.92628">
        <ele>305.6</ele>
        <time>2021-07-28T08:06:45Z</time>
      </trkpt>
      <trkpt lat="49.34982" lon="5.92632">
        <ele>305.4</ele>
        <time>2021-07-28T08:06:46Z</time>
      </trkpt>
      <trkpt lat="49.34983" lon="5.92633">
        <ele>305.4</ele>
        <time>2021-07-28T08:06:47Z</time>
      </trkpt>
      <trkpt lat="49.34985" lon="5.92634">
        <ele>305.3</ele>
        <time>2021-07-28T08:06:48Z</time>
      </trkpt>
      <trkpt lat="49.3499" lon="5.92635">
        <ele>305.2</ele>
        <time>2021-07-28T08:06:50Z</time>
      </trkpt>
      <trkpt lat="49.34993" lon="5.92637">
        <ele>305.2</ele>
        <time>2021-07-28T08:06:51Z</time>
      </trkpt>
      <trkpt lat="49.34994" lon="5.92639">
        <ele>305.1</ele>
        <time>2021-07-28T08:06:52Z</time>
      </trkpt>
      <trkpt lat="49.34998" lon="5.92649">
        <ele>305.1</ele>
        <time>2021-07-28T08:06:54Z</time>
      </trkpt>
      <trkpt lat="49.35001" lon="5.92654">
        <ele>305.1</ele>
        <time>2021-07-28T08:06:55Z</time>
      </trkpt>
      <trkpt lat="49.35004" lon="5.92659">
        <ele>305.1</ele>
        <time>2021-07-28T08:06:56Z</time>
      </trkpt>
      <trkpt lat="49.35009" lon="5.92671">
        <ele>305.2</ele>
        <time>2021-07-28T08:06:58Z</time>
      </trkpt>
      <trkpt lat="49.35013" lon="5.92679">
        <ele>305.2</ele>
        <time>2021-07-28T08:07:00Z</time>
      </trkpt>
      <trkpt lat="49.35017" lon="5.92686">
        <ele>305.2</ele>
        <time>2021-07-28T08:07:02Z</time>
      </trkpt>
      <trkpt lat="49.35019" lon="5.92689">
        <ele>305.2</ele>
        <time>2021-07-28T08:07:03Z</time>
      </trkpt>
      <trkpt lat="49.35022" lon="5.92692">
        <ele>305.3</ele>
        <time>2021-07-28T08:07:05Z</time>
      </trkpt>
      <trkpt lat="49.35024" lon="5.92695">
        <ele>305.3</ele>
        <time>2021-07-28T08:07:06Z</time>
      </trkpt>
      <trkpt lat="49.35025" lon="5.92697">
        <ele>305.3</ele>
        <time>2021-07-28T08:07:07Z</time>
      </trkpt>
      <trkpt lat="49.35029" lon="5.927">
        <ele>305.3</ele>
        <time>2021-07-28T08:07:09Z</time>
      </trkpt>
      <trkpt lat="49.3503" lon="5.92701">
        <ele>305.3</ele>
        <time>2021-07-28T08:07:10Z</time>
      </trkpt>
      <trkpt lat="49.35033" lon="5.92704">
        <ele>305.3</ele>
        <time>2021-07-28T08:07:12Z</time>
      </trkpt>
      <trkpt lat="49.35034" lon="5.92706">
        <ele>305.3</ele>
        <time>2021-07-28T08:07:14Z</time>
      </trkpt>
      <trkpt lat="49.35034" lon="5.92708">
        <ele>305.3</ele>
        <time>2021-07-28T08:07:15Z</time>
      </trkpt>
      <trkpt lat="49.35034" lon="5.92718">
        <ele>305.3</ele>
        <time>2021-07-28T08:07:17Z</time>
      </trkpt>
      <trkpt lat="49.35034" lon="5.92725">
        <ele>305.2</ele>
        <time>2021-07-28T08:07:19Z</time>
      </trkpt>
      <trkpt lat="49.35033" lon="5.92732">
        <ele>305.1</ele>
        <time>2021-07-28T08:07:21Z</time>
      </trkpt>
      <trkpt lat="49.35033" lon="5.9274">
        <ele>305</ele>
        <time>2021-07-28T08:07:22Z</time>
      </trkpt>
      <trkpt lat="49.35032" lon="5.92747">
        <ele>304.9</ele>
        <time>2021-07-28T08:08:02Z</time>
      </trkpt>
      <trkpt lat="49.35032" lon="5.92754">
        <ele>304.8</ele>
        <time>2021-07-28T08:08:03Z</time>
      </trkpt>
      <trkpt lat="49.35037" lon="5.92773">
        <ele>304.5</ele>
        <time>2021-07-28T08:08:05Z</time>
      </trkpt>
      <trkpt lat="49.35038" lon="5.92779">
        <ele>304.4</ele>
        <time>2021-07-28T08:08:06Z</time>
      </trkpt>
      <trkpt lat="49.35045" lon="5.92788">
        <ele>304.2</ele>
        <time>2021-07-28T08:08:08Z</time>
      </trkpt>
      <trkpt lat="49.35047" lon="5.92797">
        <ele>304.1</ele>
        <time>2021-07-28T08:08:09Z</time>
      </trkpt>
      <trkpt lat="49.35048" lon="5.92806">
        <ele>304</ele>
        <time>2021-07-28T08:08:11Z</time>
      </trkpt>
      <trkpt lat="49.35049" lon="5.92812">
        <ele>304</ele>
        <time>2021-07-28T08:08:12Z</time>
      </trkpt>
      <trkpt lat="49.35052" lon="5.92822">
        <ele>303.7</ele>
        <time>2021-07-28T08:08:14Z</time>
      </trkpt>
      <trkpt lat="49.35052" lon="5.92827">
        <ele>303.6</ele>
        <time>2021-07-28T08:08:15Z</time>
      </trkpt>
      <trkpt lat="49.35053" lon="5.92832">
        <ele>303.6</ele>
        <time>2021-07-28T08:08:16Z</time>
      </trkpt>
      <trkpt lat="49.35054" lon="5.92836">
        <ele>303.5</ele>
        <time>2021-07-28T08:08:17Z</time>
      </trkpt>
      <trkpt lat="49.35055" lon="5.92843">
        <ele>303.4</ele>
        <time>2021-07-28T08:08:18Z</time>
      </trkpt>
      <trkpt lat="49.35057" lon="5.92848">
        <ele>303.3</ele>
        <time>2021-07-28T08:08:19Z</time>
      </trkpt>
      <trkpt lat="49.35058" lon="5.92852">
        <ele>303.2</ele>
        <time>2021-07-28T08:08:20Z</time>
      </trkpt>
      <trkpt lat="49.35063" lon="5.92862">
        <ele>303.1</ele>
        <time>2021-07-28T08:08:22Z</time>
      </trkpt>
      <trkpt lat="49.35064" lon="5.92871">
        <ele>302.9</ele>
        <time>2021-07-28T08:08:23Z</time>
      </trkpt>
      <trkpt lat="49.35065" lon="5.9288">
        <ele>302.8</ele>
        <time>2021-07-28T08:08:24Z</time>
      </trkpt>
      <trkpt lat="49.35068" lon="5.92898">
        <ele>302.6</ele>
        <time>2021-07-28T08:08:26Z</time>
      </trkpt>
      <trkpt lat="49.35069" lon="5.92908">
        <ele>302.5</ele>
        <time>2021-07-28T08:08:27Z</time>
      </trkpt>
      <trkpt lat="49.35071" lon="5.92925">
        <ele>302.3</ele>
        <time>2021-07-28T08:08:29Z</time>
      </trkpt>
      <trkpt lat="49.35073" lon="5.92932">
        <ele>302.2</ele>
        <time>2021-07-28T08:08:30Z</time>
      </trkpt>
      <trkpt lat="49.35075" lon="5.92944">
        <ele>302</ele>
        <time>2021-07-28T08:08:32Z</time>
      </trkpt>
      <trkpt lat="49.35075" lon="5.92951">
        <ele>301.9</ele>
        <time>2021-07-28T08:08:33Z</time>
      </trkpt>
      <trkpt lat="49.35076" lon="5.92958">
        <ele>301.9</ele>
        <time>2021-07-28T08:08:34Z</time>
      </trkpt>
      <trkpt lat="49.35076" lon="5.92965">
        <ele>301.8</ele>
        <time>2021-07-28T08:08:35Z</time>
      </trkpt>
      <trkpt lat="49.35077" lon="5.92973">
        <ele>301.7</ele>
        <time>2021-07-28T08:08:36Z</time>
      </trkpt>
      <trkpt lat="49.35078" lon="5.92981">
        <ele>301.7</ele>
        <time>2021-07-28T08:08:37Z</time>
      </trkpt>
      <trkpt lat="49.3508" lon="5.9299">
        <ele>301.6</ele>
        <time>2021-07-28T08:08:38Z</time>
      </trkpt>
      <trkpt lat="49.35082" lon="5.92999">
        <ele>301.6</ele>
        <time>2021-07-28T08:08:39Z</time>
      </trkpt>
      <trkpt lat="49.35086" lon="5.93017">
        <ele>301.5</ele>
        <time>2021-07-28T08:08:41Z</time>
      </trkpt>
      <trkpt lat="49.35088" lon="5.93025">
        <ele>301.4</ele>
        <time>2021-07-28T08:08:42Z</time>
      </trkpt>
      <trkpt lat="49.35088" lon="5.93038">
        <ele>301.4</ele>
        <time>2021-07-28T08:08:44Z</time>
      </trkpt>
      <trkpt lat="49.3509" lon="5.93052">
        <ele>301.4</ele>
        <time>2021-07-28T08:08:46Z</time>
      </trkpt>
      <trkpt lat="49.35092" lon="5.9306">
        <ele>301.4</ele>
        <time>2021-07-28T08:08:47Z</time>
      </trkpt>
      <trkpt lat="49.35092" lon="5.9307">
        <ele>301.4</ele>
        <time>2021-07-28T08:08:48Z</time>
      </trkpt>
      <trkpt lat="49.35094" lon="5.93087">
        <ele>301.5</ele>
        <time>2021-07-28T08:08:50Z</time>
      </trkpt>
      <trkpt lat="49.35093" lon="5.93103">
        <ele>301.5</ele>
        <time>2021-07-28T08:08:52Z</time>
      </trkpt>
      <trkpt lat="49.35092" lon="5.93112">
        <ele>301.5</ele>
        <time>2021-07-28T08:08:53Z</time>
      </trkpt>
      <trkpt lat="49.35091" lon="5.9312">
        <ele>301.5</ele>
        <time>2021-07-28T08:08:54Z</time>
      </trkpt>
      <trkpt lat="49.3509" lon="5.93127">
        <ele>301.4</ele>
        <time>2021-07-28T08:08:55Z</time>
      </trkpt>
      <trkpt lat="49.35094" lon="5.93142">
        <ele>301.3</ele>
        <time>2021-07-28T08:08:57Z</time>
      </trkpt>
      <trkpt lat="49.35097" lon="5.93152">
        <ele>301.2</ele>
        <time>2021-07-28T08:08:59Z</time>
      </trkpt>
      <trkpt lat="49.35099" lon="5.93156">
        <ele>301.2</ele>
        <time>2021-07-28T08:09:00Z</time>
      </trkpt>
      <trkpt lat="49.35101" lon="5.93161">
        <ele>301.1</ele>
        <time>2021-07-28T08:09:01Z</time>
      </trkpt>
      <trkpt lat="49.35102" lon="5.93166">
        <ele>301.1</ele>
        <time>2021-07-28T08:09:02Z</time>
      </trkpt>
      <trkpt lat="49.35103" lon="5.93177">
        <ele>301</ele>
        <time>2021-07-28T08:09:04Z</time>
      </trkpt>
      <trkpt lat="49.35103" lon="5.93184">
        <ele>301</ele>
        <time>2021-07-28T08:09:05Z</time>
      </trkpt>
      <trkpt lat="49.35104" lon="5.93191">
        <ele>300.9</ele>
        <time>2021-07-28T08:09:06Z</time>
      </trkpt>
      <trkpt lat="49.35105" lon="5.93198">
        <ele>300.8</ele>
        <time>2021-07-28T08:09:07Z</time>
      </trkpt>
      <trkpt lat="49.35106" lon="5.93205">
        <ele>300.7</ele>
        <time>2021-07-28T08:09:08Z</time>
      </trkpt>
      <trkpt lat="49.35108" lon="5.93219">
        <ele>300.4</ele>
        <time>2021-07-28T08:09:10Z</time>
      </trkpt>
      <trkpt lat="49.3511" lon="5.93231">
        <ele>300.1</ele>
        <time>2021-07-28T08:09:12Z</time>
      </trkpt>
      <trkpt lat="49.35111" lon="5.93247">
        <ele>299.7</ele>
        <time>2021-07-28T08:09:14Z</time>
      </trkpt>
      <trkpt lat="49.35112" lon="5.93263">
        <ele>299.3</ele>
        <time>2021-07-28T08:09:16Z</time>
      </trkpt>
      <trkpt lat="49.35111" lon="5.9328">
        <ele>298.6</ele>
        <time>2021-07-28T08:09:18Z</time>
      </trkpt>
      <trkpt lat="49.35109" lon="5.93288">
        <ele>298.3</ele>
        <time>2021-07-28T08:09:19Z</time>
      </trkpt>
      <trkpt lat="49.35107" lon="5.93304">
        <ele>297.6</ele>
        <time>2021-07-28T08:09:21Z</time>
      </trkpt>
      <trkpt lat="49.35107" lon="5.93312">
        <ele>297.4</ele>
        <time>2021-07-28T08:09:22Z</time>
      </trkpt>
      <trkpt lat="49.35108" lon="5.9332">
        <ele>297.1</ele>
        <time>2021-07-28T08:09:23Z</time>
      </trkpt>
      <trkpt lat="49.35108" lon="5.93329">
        <ele>296.8</ele>
        <time>2021-07-28T08:09:24Z</time>
      </trkpt>
      <trkpt lat="49.3511" lon="5.93347">
        <ele>296.2</ele>
        <time>2021-07-28T08:09:26Z</time>
      </trkpt>
      <trkpt lat="49.35111" lon="5.93366">
        <ele>295.5</ele>
        <time>2021-07-28T08:09:28Z</time>
      </trkpt>
      <trkpt lat="49.35111" lon="5.93387">
        <ele>294.9</ele>
        <time>2021-07-28T08:09:30Z</time>
      </trkpt>
      <trkpt lat="49.35112" lon="5.93408">
        <ele>294.1</ele>
        <time>2021-07-28T08:09:32Z</time>
      </trkpt>
      <trkpt lat="49.35113" lon="5.93419">
        <ele>293.7</ele>
        <time>2021-07-28T08:09:33Z</time>
      </trkpt>
      <trkpt lat="49.35115" lon="5.93428">
        <ele>293.3</ele>
        <time>2021-07-28T08:09:34Z</time>
      </trkpt>
      <trkpt lat="49.35117" lon="5.9345">
        <ele>292.5</ele>
        <time>2021-07-28T08:09:36Z</time>
      </trkpt>
      <trkpt lat="49.35118" lon="5.93461">
        <ele>292.1</ele>
        <time>2021-07-28T08:09:37Z</time>
      </trkpt>
      <trkpt lat="49.35119" lon="5.93481">
        <ele>291.5</ele>
        <time>2021-07-28T08:09:39Z</time>
      </trkpt>
      <trkpt lat="49.35121" lon="5.93502">
        <ele>290.8</ele>
        <time>2021-07-28T08:09:41Z</time>
      </trkpt>
      <trkpt lat="49.3512" lon="5.93522">
        <ele>290.2</ele>
        <time>2021-07-28T08:09:43Z</time>
      </trkpt>
      <trkpt lat="49.35119" lon="5.93531">
        <ele>289.9</ele>
        <time>2021-07-28T08:09:44Z</time>
      </trkpt>
      <trkpt lat="49.35117" lon="5.93551">
        <ele>289.4</ele>
        <time>2021-07-28T08:09:46Z</time>
      </trkpt>
      <trkpt lat="49.35116" lon="5.93561">
        <ele>289.2</ele>
        <time>2021-07-28T08:09:47Z</time>
      </trkpt>
      <trkpt lat="49.35115" lon="5.9357">
        <ele>288.9</ele>
        <time>2021-07-28T08:09:48Z</time>
      </trkpt>
      <trkpt lat="49.35114" lon="5.93587">
        <ele>288.6</ele>
        <time>2021-07-28T08:09:50Z</time>
      </trkpt>
      <trkpt lat="49.35114" lon="5.93605">
        <ele>288.2</ele>
        <time>2021-07-28T08:09:52Z</time>
      </trkpt>
      <trkpt lat="49.35115" lon="5.93614">
        <ele>288</ele>
        <time>2021-07-28T08:09:53Z</time>
      </trkpt>
      <trkpt lat="49.35117" lon="5.93631">
        <ele>287.7</ele>
        <time>2021-07-28T08:09:55Z</time>
      </trkpt>
      <trkpt lat="49.35118" lon="5.93641">
        <ele>287.5</ele>
        <time>2021-07-28T08:09:56Z</time>
      </trkpt>
      <trkpt lat="49.35121" lon="5.9366">
        <ele>287.3</ele>
        <time>2021-07-28T08:09:58Z</time>
      </trkpt>
      <trkpt lat="49.35124" lon="5.93678">
        <ele>287</ele>
        <time>2021-07-28T08:10:00Z</time>
      </trkpt>
      <trkpt lat="49.35127" lon="5.93695">
        <ele>287</ele>
        <time>2021-07-28T08:10:02Z</time>
      </trkpt>
      <trkpt lat="49.3513" lon="5.93711">
        <ele>286.9</ele>
        <time>2021-07-28T08:10:04Z</time>
      </trkpt>
      <trkpt lat="49.35132" lon="5.9372">
        <ele>286.9</ele>
        <time>2021-07-28T08:10:05Z</time>
      </trkpt>
      <trkpt lat="49.35133" lon="5.93729">
        <ele>286.9</ele>
        <time>2021-07-28T08:10:06Z</time>
      </trkpt>
      <trkpt lat="49.35134" lon="5.93745">
        <ele>286.9</ele>
        <time>2021-07-28T08:10:08Z</time>
      </trkpt>
      <trkpt lat="49.35135" lon="5.93761">
        <ele>287</ele>
        <time>2021-07-28T08:10:10Z</time>
      </trkpt>
      <trkpt lat="49.35137" lon="5.93777">
        <ele>287.2</ele>
        <time>2021-07-28T08:10:12Z</time>
      </trkpt>
      <trkpt lat="49.35137" lon="5.93791">
        <ele>287.3</ele>
        <time>2021-07-28T08:10:14Z</time>
      </trkpt>
      <trkpt lat="49.35138" lon="5.93806">
        <ele>287.4</ele>
        <time>2021-07-28T08:10:16Z</time>
      </trkpt>
      <trkpt lat="49.35138" lon="5.93814">
        <ele>287.5</ele>
        <time>2021-07-28T08:10:17Z</time>
      </trkpt>
      <trkpt lat="49.35138" lon="5.93821">
        <ele>287.6</ele>
        <time>2021-07-28T08:10:18Z</time>
      </trkpt>
      <trkpt lat="49.35138" lon="5.93836">
        <ele>287.8</ele>
        <time>2021-07-28T08:10:20Z</time>
      </trkpt>
      <trkpt lat="49.35137" lon="5.93851">
        <ele>288.1</ele>
        <time>2021-07-28T08:10:22Z</time>
      </trkpt>
      <trkpt lat="49.35136" lon="5.93858">
        <ele>288.2</ele>
        <time>2021-07-28T08:10:23Z</time>
      </trkpt>
      <trkpt lat="49.35136" lon="5.93865">
        <ele>288.3</ele>
        <time>2021-07-28T08:10:24Z</time>
      </trkpt>
      <trkpt lat="49.35136" lon="5.93871">
        <ele>288.4</ele>
        <time>2021-07-28T08:10:25Z</time>
      </trkpt>
      <trkpt lat="49.35135" lon="5.93878">
        <ele>288.5</ele>
        <time>2021-07-28T08:10:26Z</time>
      </trkpt>
      <trkpt lat="49.35136" lon="5.93885">
        <ele>288.5</ele>
        <time>2021-07-28T08:10:28Z</time>
      </trkpt>
      <trkpt lat="49.35136" lon="5.93891">
        <ele>288.6</ele>
        <time>2021-07-28T08:10:29Z</time>
      </trkpt>
      <trkpt lat="49.35136" lon="5.93899">
        <ele>288.8</ele>
        <time>2021-07-28T08:10:30Z</time>
      </trkpt>
      <trkpt lat="49.35135" lon="5.93909">
        <ele>289</ele>
        <time>2021-07-28T08:10:32Z</time>
      </trkpt>
      <trkpt lat="49.35135" lon="5.93915">
        <ele>289.1</ele>
        <time>2021-07-28T08:10:33Z</time>
      </trkpt>
      <trkpt lat="49.35135" lon="5.93919">
        <ele>289.1</ele>
        <time>2021-07-28T08:10:34Z</time>
      </trkpt>
      <trkpt lat="49.35135" lon="5.93924">
        <ele>289.2</ele>
        <time>2021-07-28T08:10:35Z</time>
      </trkpt>
      <trkpt lat="49.35135" lon="5.93931">
        <ele>289.3</ele>
        <time>2021-07-28T08:10:37Z</time>
      </trkpt>
      <trkpt lat="49.35135" lon="5.93937">
        <ele>289.4</ele>
        <time>2021-07-28T08:10:38Z</time>
      </trkpt>
      <trkpt lat="49.35136" lon="5.93942">
        <ele>289.6</ele>
        <time>2021-07-28T08:10:39Z</time>
      </trkpt>
      <trkpt lat="49.35137" lon="5.93951">
        <ele>289.7</ele>
        <time>2021-07-28T08:10:40Z</time>
      </trkpt>
      <trkpt lat="49.35137" lon="5.93956">
        <ele>289.8</ele>
        <time>2021-07-28T08:10:42Z</time>
      </trkpt>
      <trkpt lat="49.35138" lon="5.93965">
        <ele>289.9</ele>
        <time>2021-07-28T08:10:43Z</time>
      </trkpt>
      <trkpt lat="49.35139" lon="5.93975">
        <ele>290.1</ele>
        <time>2021-07-28T08:10:45Z</time>
      </trkpt>
      <trkpt lat="49.35139" lon="5.93983">
        <ele>290.2</ele>
        <time>2021-07-28T08:10:46Z</time>
      </trkpt>
      <trkpt lat="49.35139" lon="5.9399">
        <ele>290.3</ele>
        <time>2021-07-28T08:10:47Z</time>
      </trkpt>
      <trkpt lat="49.35139" lon="5.93997">
        <ele>290.4</ele>
        <time>2021-07-28T08:10:48Z</time>
      </trkpt>
      <trkpt lat="49.35139" lon="5.94003">
        <ele>290.5</ele>
        <time>2021-07-28T08:10:49Z</time>
      </trkpt>
      <trkpt lat="49.35139" lon="5.94016">
        <ele>290.8</ele>
        <time>2021-07-28T08:10:52Z</time>
      </trkpt>
      <trkpt lat="49.3514" lon="5.94022">
        <ele>290.9</ele>
        <time>2021-07-28T08:10:53Z</time>
      </trkpt>
      <trkpt lat="49.35141" lon="5.94028">
        <ele>291.1</ele>
        <time>2021-07-28T08:10:54Z</time>
      </trkpt>
      <trkpt lat="49.35141" lon="5.94033">
        <ele>291.2</ele>
        <time>2021-07-28T08:10:55Z</time>
      </trkpt>
      <trkpt lat="49.35141" lon="5.9404">
        <ele>291.3</ele>
        <time>2021-07-28T08:10:57Z</time>
      </trkpt>
      <trkpt lat="49.3514" lon="5.9405">
        <ele>291.6</ele>
        <time>2021-07-28T08:10:59Z</time>
      </trkpt>
      <trkpt lat="49.3514" lon="5.94054">
        <ele>291.7</ele>
        <time>2021-07-28T08:11:00Z</time>
      </trkpt>
      <trkpt lat="49.35141" lon="5.9406">
        <ele>291.9</ele>
        <time>2021-07-28T08:11:01Z</time>
      </trkpt>
      <trkpt lat="49.35141" lon="5.94061">
        <ele>292</ele>
        <time>2021-07-28T08:11:02Z</time>
      </trkpt>
      <trkpt lat="49.35141" lon="5.94064">
        <ele>292</ele>
        <time>2021-07-28T08:11:03Z</time>
      </trkpt>
      <trkpt lat="49.35142" lon="5.94067">
        <ele>292.2</ele>
        <time>2021-07-28T08:11:05Z</time>
      </trkpt>
      <trkpt lat="49.35143" lon="5.94073">
        <ele>292.3</ele>
        <time>2021-07-28T08:11:06Z</time>
      </trkpt>
      <trkpt lat="49.35143" lon="5.94075">
        <ele>292.4</ele>
        <time>2021-07-28T08:11:07Z</time>
      </trkpt>
      <trkpt lat="49.35145" lon="5.94079">
        <ele>292.5</ele>
        <time>2021-07-28T08:11:09Z</time>
      </trkpt>
      <trkpt lat="49.35145" lon="5.94081">
        <ele>292.6</ele>
        <time>2021-07-28T08:11:10Z</time>
      </trkpt>
      <trkpt lat="49.35147" lon="5.94085">
        <ele>292.7</ele>
        <time>2021-07-28T08:11:11Z</time>
      </trkpt>
      <trkpt lat="49.35147" lon="5.94086">
        <ele>292.8</ele>
        <time>2021-07-28T08:11:12Z</time>
      </trkpt>
      <trkpt lat="49.35149" lon="5.9409">
        <ele>292.9</ele>
        <time>2021-07-28T08:11:14Z</time>
      </trkpt>
      <trkpt lat="49.3515" lon="5.94092">
        <ele>293</ele>
        <time>2021-07-28T08:11:15Z</time>
      </trkpt>
      <trkpt lat="49.35152" lon="5.94097">
        <ele>293.1</ele>
        <time>2021-07-28T08:11:16Z</time>
      </trkpt>
      <trkpt lat="49.35152" lon="5.94099">
        <ele>293.2</ele>
        <time>2021-07-28T08:11:18Z</time>
      </trkpt>
      <trkpt lat="49.35152" lon="5.94101">
        <ele>293.2</ele>
        <time>2021-07-28T08:11:19Z</time>
      </trkpt>
      <trkpt lat="49.35152" lon="5.94103">
        <ele>293.3</ele>
        <time>2021-07-28T08:11:20Z</time>
      </trkpt>
      <trkpt lat="49.35153" lon="5.94107">
        <ele>293.4</ele>
        <time>2021-07-28T08:11:22Z</time>
      </trkpt>
      <trkpt lat="49.35153" lon="5.94109">
        <ele>293.5</ele>
        <time>2021-07-28T08:11:23Z</time>
      </trkpt>
      <trkpt lat="49.35153" lon="5.94114">
        <ele>293.6</ele>
        <time>2021-07-28T08:11:25Z</time>
      </trkpt>
      <trkpt lat="49.35153" lon="5.94116">
        <ele>293.7</ele>
        <time>2021-07-28T08:11:26Z</time>
      </trkpt>
      <trkpt lat="49.35154" lon="5.94121">
        <ele>293.8</ele>
        <time>2021-07-28T08:11:27Z</time>
      </trkpt>
      <trkpt lat="49.35155" lon="5.94125">
        <ele>294</ele>
        <time>2021-07-28T08:11:28Z</time>
      </trkpt>
      <trkpt lat="49.35156" lon="5.94131">
        <ele>294.2</ele>
        <time>2021-07-28T08:11:30Z</time>
      </trkpt>
      <trkpt lat="49.35159" lon="5.94139">
        <ele>294.5</ele>
        <time>2021-07-28T08:11:31Z</time>
      </trkpt>
      <trkpt lat="49.3516" lon="5.94146">
        <ele>294.7</ele>
        <time>2021-07-28T08:11:33Z</time>
      </trkpt>
      <trkpt lat="49.35162" lon="5.94154">
        <ele>294.8</ele>
        <time>2021-07-28T08:11:34Z</time>
      </trkpt>
      <trkpt lat="49.35163" lon="5.94159">
        <ele>294.9</ele>
        <time>2021-07-28T08:11:35Z</time>
      </trkpt>
      <trkpt lat="49.35164" lon="5.94164">
        <ele>295</ele>
        <time>2021-07-28T08:11:37Z</time>
      </trkpt>
      <trkpt lat="49.35165" lon="5.94168">
        <ele>295</ele>
        <time>2021-07-28T08:11:38Z</time>
      </trkpt>
      <trkpt lat="49.35166" lon="5.94172">
        <ele>295</ele>
        <time>2021-07-28T08:11:39Z</time>
      </trkpt>
      <trkpt lat="49.35167" lon="5.94177">
        <ele>295</ele>
        <time>2021-07-28T08:11:40Z</time>
      </trkpt>
      <trkpt lat="49.35167" lon="5.94182">
        <ele>295</ele>
        <time>2021-07-28T08:11:42Z</time>
      </trkpt>
      <trkpt lat="49.35167" lon="5.94188">
        <ele>295</ele>
        <time>2021-07-28T08:11:43Z</time>
      </trkpt>
      <trkpt lat="49.35169" lon="5.94192">
        <ele>294.9</ele>
        <time>2021-07-28T08:11:44Z</time>
      </trkpt>
      <trkpt lat="49.3517" lon="5.94194">
        <ele>294.9</ele>
        <time>2021-07-28T08:11:45Z</time>
      </trkpt>
      <trkpt lat="49.35171" lon="5.94198">
        <ele>294.9</ele>
        <time>2021-07-28T08:11:47Z</time>
      </trkpt>
      <trkpt lat="49.35175" lon="5.94203">
        <ele>294.8</ele>
        <time>2021-07-28T08:11:48Z</time>
      </trkpt>
      <trkpt lat="49.35177" lon="5.94208">
        <ele>294.8</ele>
        <time>2021-07-28T08:11:49Z</time>
      </trkpt>
      <trkpt lat="49.35178" lon="5.94213">
        <ele>294.7</ele>
        <time>2021-07-28T08:11:51Z</time>
      </trkpt>
      <trkpt lat="49.3518" lon="5.94218">
        <ele>294.7</ele>
        <time>2021-07-28T08:11:52Z</time>
      </trkpt>
      <trkpt lat="49.35181" lon="5.94226">
        <ele>294.6</ele>
        <time>2021-07-28T08:11:53Z</time>
      </trkpt>
      <trkpt lat="49.35182" lon="5.94232">
        <ele>294.5</ele>
        <time>2021-07-28T08:11:54Z</time>
      </trkpt>
      <trkpt lat="49.35183" lon="5.94237">
        <ele>294.5</ele>
        <time>2021-07-28T08:11:55Z</time>
      </trkpt>
      <trkpt lat="49.35186" lon="5.9424">
        <ele>294.4</ele>
        <time>2021-07-28T08:11:57Z</time>
      </trkpt>
      <trkpt lat="49.3519" lon="5.94247">
        <ele>294.3</ele>
        <time>2021-07-28T08:11:59Z</time>
      </trkpt>
      <trkpt lat="49.35192" lon="5.94253">
        <ele>294.3</ele>
        <time>2021-07-28T08:12:00Z</time>
      </trkpt>
      <trkpt lat="49.35194" lon="5.94259">
        <ele>294.2</ele>
        <time>2021-07-28T08:12:01Z</time>
      </trkpt>
      <trkpt lat="49.35195" lon="5.94265">
        <ele>294.1</ele>
        <time>2021-07-28T08:12:03Z</time>
      </trkpt>
      <trkpt lat="49.35196" lon="5.94275">
        <ele>294.1</ele>
        <time>2021-07-28T08:12:04Z</time>
      </trkpt>
      <trkpt lat="49.35196" lon="5.94282">
        <ele>294</ele>
        <time>2021-07-28T08:12:06Z</time>
      </trkpt>
      <trkpt lat="49.35197" lon="5.94289">
        <ele>293.9</ele>
        <time>2021-07-28T08:12:07Z</time>
      </trkpt>
      <trkpt lat="49.35198" lon="5.94293">
        <ele>293.9</ele>
        <time>2021-07-28T08:12:08Z</time>
      </trkpt>
      <trkpt lat="49.35198" lon="5.943">
        <ele>293.8</ele>
        <time>2021-07-28T08:12:09Z</time>
      </trkpt>
      <trkpt lat="49.35198" lon="5.94308">
        <ele>293.8</ele>
        <time>2021-07-28T08:12:11Z</time>
      </trkpt>
      <trkpt lat="49.35199" lon="5.94314">
        <ele>293.7</ele>
        <time>2021-07-28T08:12:12Z</time>
      </trkpt>
      <trkpt lat="49.352" lon="5.94319">
        <ele>293.7</ele>
        <time>2021-07-28T08:12:13Z</time>
      </trkpt>
      <trkpt lat="49.35202" lon="5.94325">
        <ele>293.6</ele>
        <time>2021-07-28T08:12:14Z</time>
      </trkpt>
      <trkpt lat="49.35205" lon="5.94343">
        <ele>293.5</ele>
        <time>2021-07-28T08:12:16Z</time>
      </trkpt>
      <trkpt lat="49.35204" lon="5.94347">
        <ele>293.4</ele>
        <time>2021-07-28T08:12:17Z</time>
      </trkpt>
      <trkpt lat="49.35204" lon="5.94366">
        <ele>293.3</ele>
        <time>2021-07-28T08:12:19Z</time>
      </trkpt>
      <trkpt lat="49.35205" lon="5.94375">
        <ele>293.2</ele>
        <time>2021-07-28T08:12:20Z</time>
      </trkpt>
      <trkpt lat="49.35209" lon="5.9439">
        <ele>293.1</ele>
        <time>2021-07-28T08:12:22Z</time>
      </trkpt>
      <trkpt lat="49.35211" lon="5.94403">
        <ele>293</ele>
        <time>2021-07-28T08:12:24Z</time>
      </trkpt>
      <trkpt lat="49.35214" lon="5.94411">
        <ele>292.9</ele>
        <time>2021-07-28T08:12:25Z</time>
      </trkpt>
      <trkpt lat="49.35216" lon="5.94418">
        <ele>292.9</ele>
        <time>2021-07-28T08:12:26Z</time>
      </trkpt>
      <trkpt lat="49.35218" lon="5.94421">
        <ele>292.8</ele>
        <time>2021-07-28T08:12:27Z</time>
      </trkpt>
      <trkpt lat="49.3522" lon="5.9443">
        <ele>292.8</ele>
        <time>2021-07-28T08:12:29Z</time>
      </trkpt>
      <trkpt lat="49.35222" lon="5.94438">
        <ele>292.7</ele>
        <time>2021-07-28T08:12:30Z</time>
      </trkpt>
      <trkpt lat="49.35218" lon="5.94451">
        <ele>292.6</ele>
        <time>2021-07-28T08:12:32Z</time>
      </trkpt>
      <trkpt lat="49.3522" lon="5.94461">
        <ele>292.4</ele>
        <time>2021-07-28T08:12:33Z</time>
      </trkpt>
      <trkpt lat="49.35222" lon="5.9447">
        <ele>292.3</ele>
        <time>2021-07-28T08:12:35Z</time>
      </trkpt>
      <trkpt lat="49.35225" lon="5.94484">
        <ele>292.1</ele>
        <time>2021-07-28T08:12:37Z</time>
      </trkpt>
      <trkpt lat="49.35225" lon="5.94489">
        <ele>292</ele>
        <time>2021-07-28T08:12:38Z</time>
      </trkpt>
      <trkpt lat="49.35226" lon="5.94498">
        <ele>291.8</ele>
        <time>2021-07-28T08:12:39Z</time>
      </trkpt>
      <trkpt lat="49.35227" lon="5.94507">
        <ele>291.7</ele>
        <time>2021-07-28T08:12:40Z</time>
      </trkpt>
      <trkpt lat="49.3523" lon="5.9452">
        <ele>291.4</ele>
        <time>2021-07-28T08:12:42Z</time>
      </trkpt>
      <trkpt lat="49.35233" lon="5.94529">
        <ele>291.1</ele>
        <time>2021-07-28T08:12:43Z</time>
      </trkpt>
      <trkpt lat="49.35234" lon="5.94539">
        <ele>290.8</ele>
        <time>2021-07-28T08:12:44Z</time>
      </trkpt>
      <trkpt lat="49.35236" lon="5.94557">
        <ele>290.1</ele>
        <time>2021-07-28T08:12:46Z</time>
      </trkpt>
      <trkpt lat="49.35239" lon="5.94565">
        <ele>289.8</ele>
        <time>2021-07-28T08:12:47Z</time>
      </trkpt>
      <trkpt lat="49.35243" lon="5.94574">
        <ele>289.5</ele>
        <time>2021-07-28T08:12:48Z</time>
      </trkpt>
      <trkpt lat="49.35246" lon="5.94581">
        <ele>289.3</ele>
        <time>2021-07-28T08:12:49Z</time>
      </trkpt>
      <trkpt lat="49.3525" lon="5.94588">
        <ele>289</ele>
        <time>2021-07-28T08:12:50Z</time>
      </trkpt>
      <trkpt lat="49.35253" lon="5.94595">
        <ele>288.8</ele>
        <time>2021-07-28T08:12:51Z</time>
      </trkpt>
      <trkpt lat="49.35256" lon="5.94603">
        <ele>288.5</ele>
        <time>2021-07-28T08:12:52Z</time>
      </trkpt>
      <trkpt lat="49.35262" lon="5.9462">
        <ele>287.9</ele>
        <time>2021-07-28T08:12:54Z</time>
      </trkpt>
      <trkpt lat="49.35269" lon="5.94635">
        <ele>287.4</ele>
        <time>2021-07-28T08:12:56Z</time>
      </trkpt>
      <trkpt lat="49.35277" lon="5.94649">
        <ele>287</ele>
        <time>2021-07-28T08:12:58Z</time>
      </trkpt>
      <trkpt lat="49.35282" lon="5.94656">
        <ele>286.7</ele>
        <time>2021-07-28T08:12:59Z</time>
      </trkpt>
      <trkpt lat="49.35285" lon="5.94662">
        <ele>286.5</ele>
        <time>2021-07-28T08:13:00Z</time>
      </trkpt>
      <trkpt lat="49.35288" lon="5.94668">
        <ele>286.4</ele>
        <time>2021-07-28T08:13:01Z</time>
      </trkpt>
      <trkpt lat="49.35291" lon="5.94674">
        <ele>286.3</ele>
        <time>2021-07-28T08:13:02Z</time>
      </trkpt>
      <trkpt lat="49.353" lon="5.94685">
        <ele>286.1</ele>
        <time>2021-07-28T08:13:04Z</time>
      </trkpt>
      <trkpt lat="49.35304" lon="5.94688">
        <ele>286</ele>
        <time>2021-07-28T08:13:05Z</time>
      </trkpt>
      <trkpt lat="49.35307" lon="5.94692">
        <ele>286</ele>
        <time>2021-07-28T08:13:06Z</time>
      </trkpt>
      <trkpt lat="49.35311" lon="5.94698">
        <ele>285.9</ele>
        <time>2021-07-28T08:13:08Z</time>
      </trkpt>
      <trkpt lat="49.35313" lon="5.94703">
        <ele>285.9</ele>
        <time>2021-07-28T08:13:10Z</time>
      </trkpt>
      <trkpt lat="49.35314" lon="5.94709">
        <ele>285.9</ele>
        <time>2021-07-28T08:13:11Z</time>
      </trkpt>
      <trkpt lat="49.35316" lon="5.94709">
        <ele>285.9</ele>
        <time>2021-07-28T08:13:12Z</time>
      </trkpt>
      <trkpt lat="49.35317" lon="5.94711">
        <ele>285.9</ele>
        <time>2021-07-28T08:13:13Z</time>
      </trkpt>
      <trkpt lat="49.35317" lon="5.94712">
        <ele>285.9</ele>
        <time>2021-07-28T08:13:15Z</time>
      </trkpt>
      <trkpt lat="49.35317" lon="5.94712">
        <ele>285.8</ele>
        <time>2021-07-28T08:13:17Z</time>
      </trkpt>
      <trkpt lat="49.35318" lon="5.94712">
        <ele>285.8</ele>
        <time>2021-07-28T08:13:18Z</time>
      </trkpt>
      <trkpt lat="49.35318" lon="5.94712">
        <ele>285.8</ele>
        <time>2021-07-28T08:13:20Z</time>
      </trkpt>
      <trkpt lat="49.35318" lon="5.94712">
        <ele>285.8</ele>
        <time>2021-07-28T08:13:23Z</time>
      </trkpt>
      <trkpt lat="49.35333" lon="5.94735">
        <ele>285.7</ele>
        <time>2021-07-28T08:14:12Z</time>
      </trkpt>
      <trkpt lat="49.35335" lon="5.94738">
        <ele>285.7</ele>
        <time>2021-07-28T08:14:13Z</time>
      </trkpt>
      <trkpt lat="49.35338" lon="5.94742">
        <ele>285.7</ele>
        <time>2021-07-28T08:14:15Z</time>
      </trkpt>
      <trkpt lat="49.3534" lon="5.94745">
        <ele>285.6</ele>
        <time>2021-07-28T08:14:16Z</time>
      </trkpt>
      <trkpt lat="49.35343" lon="5.9475">
        <ele>285.5</ele>
        <time>2021-07-28T08:14:17Z</time>
      </trkpt>
      <trkpt lat="49.35346" lon="5.94753">
        <ele>285.5</ele>
        <time>2021-07-28T08:14:19Z</time>
      </trkpt>
      <trkpt lat="49.35348" lon="5.94754">
        <ele>285.4</ele>
        <time>2021-07-28T08:14:20Z</time>
      </trkpt>
      <trkpt lat="49.3535" lon="5.94758">
        <ele>285.4</ele>
        <time>2021-07-28T08:14:22Z</time>
      </trkpt>
      <trkpt lat="49.35352" lon="5.94761">
        <ele>285.3</ele>
        <time>2021-07-28T08:14:23Z</time>
      </trkpt>
      <trkpt lat="49.35355" lon="5.94764">
        <ele>285.2</ele>
        <time>2021-07-28T08:14:24Z</time>
      </trkpt>
      <trkpt lat="49.35358" lon="5.94769">
        <ele>285.1</ele>
        <time>2021-07-28T08:14:26Z</time>
      </trkpt>
      <trkpt lat="49.35361" lon="5.94776">
        <ele>285</ele>
        <time>2021-07-28T08:14:27Z</time>
      </trkpt>
      <trkpt lat="49.35363" lon="5.94783">
        <ele>284.9</ele>
        <time>2021-07-28T08:14:29Z</time>
      </trkpt>
      <trkpt lat="49.35366" lon="5.94791">
        <ele>284.7</ele>
        <time>2021-07-28T08:14:30Z</time>
      </trkpt>
      <trkpt lat="49.3537" lon="5.948">
        <ele>284.5</ele>
        <time>2021-07-28T08:14:31Z</time>
      </trkpt>
      <trkpt lat="49.35373" lon="5.94808">
        <ele>284.4</ele>
        <time>2021-07-28T08:14:33Z</time>
      </trkpt>
      <trkpt lat="49.35376" lon="5.94817">
        <ele>284.3</ele>
        <time>2021-07-28T08:14:34Z</time>
      </trkpt>
      <trkpt lat="49.35378" lon="5.94824">
        <ele>284.2</ele>
        <time>2021-07-28T08:14:35Z</time>
      </trkpt>
      <trkpt lat="49.3538" lon="5.9483">
        <ele>284.1</ele>
        <time>2021-07-28T08:14:36Z</time>
      </trkpt>
      <trkpt lat="49.35381" lon="5.94837">
        <ele>284.1</ele>
        <time>2021-07-28T08:14:37Z</time>
      </trkpt>
      <trkpt lat="49.35383" lon="5.94843">
        <ele>284</ele>
        <time>2021-07-28T08:14:39Z</time>
      </trkpt>
      <trkpt lat="49.35385" lon="5.94849">
        <ele>283.9</ele>
        <time>2021-07-28T08:14:40Z</time>
      </trkpt>
      <trkpt lat="49.35386" lon="5.94856">
        <ele>283.9</ele>
        <time>2021-07-28T08:14:41Z</time>
      </trkpt>
      <trkpt lat="49.35388" lon="5.94864">
        <ele>283.8</ele>
        <time>2021-07-28T08:14:42Z</time>
      </trkpt>
      <trkpt lat="49.3539" lon="5.94871">
        <ele>283.7</ele>
        <time>2021-07-28T08:14:43Z</time>
      </trkpt>
      <trkpt lat="49.3539" lon="5.9488">
        <ele>283.6</ele>
        <time>2021-07-28T08:14:45Z</time>
      </trkpt>
      <trkpt lat="49.35392" lon="5.94895">
        <ele>283.5</ele>
        <time>2021-07-28T08:14:47Z</time>
      </trkpt>
      <trkpt lat="49.35391" lon="5.949">
        <ele>283.5</ele>
        <time>2021-07-28T08:14:48Z</time>
      </trkpt>
      <trkpt lat="49.35388" lon="5.94906">
        <ele>283.4</ele>
        <time>2021-07-28T08:14:49Z</time>
      </trkpt>
      <trkpt lat="49.35388" lon="5.94913">
        <ele>283.4</ele>
        <time>2021-07-28T08:14:50Z</time>
      </trkpt>
      <trkpt lat="49.35389" lon="5.94922">
        <ele>283.3</ele>
        <time>2021-07-28T08:14:51Z</time>
      </trkpt>
      <trkpt lat="49.35389" lon="5.9493">
        <ele>283.2</ele>
        <time>2021-07-28T08:14:53Z</time>
      </trkpt>
      <trkpt lat="49.3539" lon="5.94937">
        <ele>283.2</ele>
        <time>2021-07-28T08:14:54Z</time>
      </trkpt>
      <trkpt lat="49.3539" lon="5.94945">
        <ele>283.1</ele>
        <time>2021-07-28T08:14:55Z</time>
      </trkpt>
      <trkpt lat="49.3539" lon="5.94954">
        <ele>283.1</ele>
        <time>2021-07-28T08:14:56Z</time>
      </trkpt>
      <trkpt lat="49.3539" lon="5.9496">
        <ele>283</ele>
        <time>2021-07-28T08:14:57Z</time>
      </trkpt>
      <trkpt lat="49.35391" lon="5.94968">
        <ele>283</ele>
        <time>2021-07-28T08:14:59Z</time>
      </trkpt>
      <trkpt lat="49.35392" lon="5.94975">
        <ele>282.9</ele>
        <time>2021-07-28T08:15:00Z</time>
      </trkpt>
      <trkpt lat="49.35393" lon="5.94983">
        <ele>282.9</ele>
        <time>2021-07-28T08:15:01Z</time>
      </trkpt>
      <trkpt lat="49.35395" lon="5.9499">
        <ele>282.9</ele>
        <time>2021-07-28T08:15:03Z</time>
      </trkpt>
      <trkpt lat="49.35399" lon="5.94997">
        <ele>282.8</ele>
        <time>2021-07-28T08:15:04Z</time>
      </trkpt>
      <trkpt lat="49.35401" lon="5.95004">
        <ele>282.8</ele>
        <time>2021-07-28T08:15:05Z</time>
      </trkpt>
      <trkpt lat="49.35401" lon="5.95009">
        <ele>282.7</ele>
        <time>2021-07-28T08:15:07Z</time>
      </trkpt>
      <trkpt lat="49.35401" lon="5.95013">
        <ele>282.7</ele>
        <time>2021-07-28T08:15:08Z</time>
      </trkpt>
      <trkpt lat="49.354" lon="5.9502">
        <ele>282.7</ele>
        <time>2021-07-28T08:15:09Z</time>
      </trkpt>
      <trkpt lat="49.354" lon="5.95026">
        <ele>282.6</ele>
        <time>2021-07-28T08:15:10Z</time>
      </trkpt>
      <trkpt lat="49.35397" lon="5.95034">
        <ele>282.6</ele>
        <time>2021-07-28T08:15:12Z</time>
      </trkpt>
      <trkpt lat="49.35395" lon="5.95036">
        <ele>282.6</ele>
        <time>2021-07-28T08:15:13Z</time>
      </trkpt>
      <trkpt lat="49.35392" lon="5.95039">
        <ele>282.5</ele>
        <time>2021-07-28T08:15:14Z</time>
      </trkpt>
      <trkpt lat="49.35387" lon="5.95046">
        <ele>282.5</ele>
        <time>2021-07-28T08:15:16Z</time>
      </trkpt>
      <trkpt lat="49.35386" lon="5.9505">
        <ele>282.5</ele>
        <time>2021-07-28T08:15:17Z</time>
      </trkpt>
      <trkpt lat="49.35383" lon="5.95056">
        <ele>282.5</ele>
        <time>2021-07-28T08:15:19Z</time>
      </trkpt>
      <trkpt lat="49.35378" lon="5.95071">
        <ele>282.5</ele>
        <time>2021-07-28T08:15:21Z</time>
      </trkpt>
      <trkpt lat="49.35375" lon="5.95077">
        <ele>282.6</ele>
        <time>2021-07-28T08:15:22Z</time>
      </trkpt>
      <trkpt lat="49.35375" lon="5.95076">
        <ele>282.6</ele>
        <time>2021-07-28T08:15:24Z</time>
      </trkpt>
      <trkpt lat="49.35376" lon="5.95074">
        <ele>282.6</ele>
        <time>2021-07-28T08:15:25Z</time>
      </trkpt>
      <trkpt lat="49.35376" lon="5.95072">
        <ele>282.6</ele>
        <time>2021-07-28T08:15:26Z</time>
      </trkpt>
      <trkpt lat="49.35377" lon="5.95072">
        <ele>282.6</ele>
        <time>2021-07-28T08:15:28Z</time>
      </trkpt>
      <trkpt lat="49.35377" lon="5.95072">
        <ele>282.6</ele>
        <time>2021-07-28T08:15:29Z</time>
      </trkpt>
      <trkpt lat="49.35377" lon="5.95072">
        <ele>282.6</ele>
        <time>2021-07-28T08:15:30Z</time>
      </trkpt>
      <trkpt lat="49.35378" lon="5.95072">
        <ele>282.6</ele>
        <time>2021-07-28T08:15:32Z</time>
      </trkpt>
      <trkpt lat="49.354" lon="5.95077">
        <ele>282.8</ele>
        <time>2021-07-28T08:15:41Z</time>
      </trkpt>
      <trkpt lat="49.35404" lon="5.9508">
        <ele>282.9</ele>
        <time>2021-07-28T08:15:42Z</time>
      </trkpt>
      <trkpt lat="49.35407" lon="5.95085">
        <ele>282.9</ele>
        <time>2021-07-28T08:15:43Z</time>
      </trkpt>
      <trkpt lat="49.3541" lon="5.95091">
        <ele>283</ele>
        <time>2021-07-28T08:15:45Z</time>
      </trkpt>
      <trkpt lat="49.35413" lon="5.95096">
        <ele>283</ele>
        <time>2021-07-28T08:15:46Z</time>
      </trkpt>
      <trkpt lat="49.35422" lon="5.95101">
        <ele>283.2</ele>
        <time>2021-07-28T08:15:47Z</time>
      </trkpt>
      <trkpt lat="49.35425" lon="5.95107">
        <ele>283.3</ele>
        <time>2021-07-28T08:15:49Z</time>
      </trkpt>
      <trkpt lat="49.35427" lon="5.95112">
        <ele>283.4</ele>
        <time>2021-07-28T08:15:50Z</time>
      </trkpt>
      <trkpt lat="49.35433" lon="5.95123">
        <ele>283.7</ele>
        <time>2021-07-28T08:15:51Z</time>
      </trkpt>
      <trkpt lat="49.35436" lon="5.95131">
        <ele>283.8</ele>
        <time>2021-07-28T08:15:53Z</time>
      </trkpt>
      <trkpt lat="49.35439" lon="5.95136">
        <ele>284</ele>
        <time>2021-07-28T08:15:54Z</time>
      </trkpt>
      <trkpt lat="49.35442" lon="5.95142">
        <ele>284.1</ele>
        <time>2021-07-28T08:15:55Z</time>
      </trkpt>
      <trkpt lat="49.35445" lon="5.95148">
        <ele>284.3</ele>
        <time>2021-07-28T08:15:57Z</time>
      </trkpt>
      <trkpt lat="49.35452" lon="5.95143">
        <ele>284.5</ele>
        <time>2021-07-28T08:15:58Z</time>
      </trkpt>
      <trkpt lat="49.35455" lon="5.95141">
        <ele>284.5</ele>
        <time>2021-07-28T08:16:00Z</time>
      </trkpt>
      <trkpt lat="49.35456" lon="5.95141">
        <ele>284.6</ele>
        <time>2021-07-28T08:16:01Z</time>
      </trkpt>
      <trkpt lat="49.35457" lon="5.95142">
        <ele>284.6</ele>
        <time>2021-07-28T08:16:02Z</time>
      </trkpt>
      <trkpt lat="49.35461" lon="5.95142">
        <ele>284.7</ele>
        <time>2021-07-28T08:16:04Z</time>
      </trkpt>
      <trkpt lat="49.35462" lon="5.95141">
        <ele>284.7</ele>
        <time>2021-07-28T08:16:05Z</time>
      </trkpt>
      <trkpt lat="49.35469" lon="5.9514">
        <ele>284.9</ele>
        <time>2021-07-28T08:16:07Z</time>
      </trkpt>
      <trkpt lat="49.3547" lon="5.9514">
        <ele>285</ele>
        <time>2021-07-28T08:16:08Z</time>
      </trkpt>
      <trkpt lat="49.3547" lon="5.95139">
        <ele>285</ele>
        <time>2021-07-28T08:16:09Z</time>
      </trkpt>
      <trkpt lat="49.35471" lon="5.95138">
        <ele>285</ele>
        <time>2021-07-28T08:16:10Z</time>
      </trkpt>
      <trkpt lat="49.35472" lon="5.95137">
        <ele>285.1</ele>
        <time>2021-07-28T08:16:11Z</time>
      </trkpt>
      <trkpt lat="49.35473" lon="5.95136">
        <ele>285.1</ele>
        <time>2021-07-28T08:16:13Z</time>
      </trkpt>
      <trkpt lat="49.35474" lon="5.95137">
        <ele>285.1</ele>
        <time>2021-07-28T08:16:14Z</time>
      </trkpt>
      <trkpt lat="49.35475" lon="5.95138">
        <ele>285.2</ele>
        <time>2021-07-28T08:16:16Z</time>
      </trkpt>
      <trkpt lat="49.35478" lon="5.9514">
        <ele>285.3</ele>
        <time>2021-07-28T08:16:17Z</time>
      </trkpt>
      <trkpt lat="49.35506" lon="5.95566">
        <ele>291.9</ele>
        <time>2021-07-28T08:18:21Z</time>
      </trkpt>
      <trkpt lat="49.35505" lon="5.95569">
        <ele>292</ele>
        <time>2021-07-28T08:18:22Z</time>
      </trkpt>
      <trkpt lat="49.35505" lon="5.95572">
        <ele>292.2</ele>
        <time>2021-07-28T08:18:24Z</time>
      </trkpt>
      <trkpt lat="49.35504" lon="5.95575">
        <ele>292.3</ele>
        <time>2021-07-28T08:18:25Z</time>
      </trkpt>
      <trkpt lat="49.35504" lon="5.95577">
        <ele>292.4</ele>
        <time>2021-07-28T08:18:26Z</time>
      </trkpt>
      <trkpt lat="49.355" lon="5.9559">
        <ele>292.9</ele>
        <time>2021-07-28T08:18:27Z</time>
      </trkpt>
      <trkpt lat="49.35497" lon="5.95603">
        <ele>293.3</ele>
        <time>2021-07-28T08:18:29Z</time>
      </trkpt>
      <trkpt lat="49.35496" lon="5.95608">
        <ele>293.4</ele>
        <time>2021-07-28T08:18:30Z</time>
      </trkpt>
      <trkpt lat="49.35495" lon="5.95614">
        <ele>293.6</ele>
        <time>2021-07-28T08:18:31Z</time>
      </trkpt>
      <trkpt lat="49.35495" lon="5.95618">
        <ele>293.8</ele>
        <time>2021-07-28T08:18:34Z</time>
      </trkpt>
      <trkpt lat="49.35494" lon="5.95621">
        <ele>293.9</ele>
        <time>2021-07-28T08:18:35Z</time>
      </trkpt>
      <trkpt lat="49.35492" lon="5.9563">
        <ele>294.1</ele>
        <time>2021-07-28T08:18:36Z</time>
      </trkpt>
      <trkpt lat="49.35484" lon="5.95641">
        <ele>294.6</ele>
        <time>2021-07-28T08:18:38Z</time>
      </trkpt>
      <trkpt lat="49.35479" lon="5.95648">
        <ele>294.8</ele>
        <time>2021-07-28T08:18:39Z</time>
      </trkpt>
      <trkpt lat="49.35475" lon="5.95656">
        <ele>295</ele>
        <time>2021-07-28T08:18:40Z</time>
      </trkpt>
      <trkpt lat="49.35471" lon="5.95664">
        <ele>295.3</ele>
        <time>2021-07-28T08:18:41Z</time>
      </trkpt>
      <trkpt lat="49.35469" lon="5.95669">
        <ele>295.4</ele>
        <time>2021-07-28T08:18:43Z</time>
      </trkpt>
      <trkpt lat="49.35468" lon="5.95672">
        <ele>295.5</ele>
        <time>2021-07-28T08:18:44Z</time>
      </trkpt>
      <trkpt lat="49.35466" lon="5.95674">
        <ele>295.6</ele>
        <time>2021-07-28T08:18:45Z</time>
      </trkpt>
      <trkpt lat="49.35466" lon="5.95676">
        <ele>295.6</ele>
        <time>2021-07-28T08:18:47Z</time>
      </trkpt>
      <trkpt lat="49.35466" lon="5.95677">
        <ele>295.6</ele>
        <time>2021-07-28T08:18:48Z</time>
      </trkpt>
      <trkpt lat="49.35466" lon="5.95678">
        <ele>295.6</ele>
        <time>2021-07-28T08:18:49Z</time>
      </trkpt>
      <trkpt lat="49.35467" lon="5.95683">
        <ele>295.8</ele>
        <time>2021-07-28T08:18:52Z</time>
      </trkpt>
      <trkpt lat="49.35469" lon="5.9569">
        <ele>295.9</ele>
        <time>2021-07-28T08:18:54Z</time>
      </trkpt>
      <trkpt lat="49.3547" lon="5.95694">
        <ele>296</ele>
        <time>2021-07-28T08:18:55Z</time>
      </trkpt>
      <trkpt lat="49.35472" lon="5.95698">
        <ele>296.1</ele>
        <time>2021-07-28T08:18:56Z</time>
      </trkpt>
      <trkpt lat="49.35476" lon="5.95703">
        <ele>296.3</ele>
        <time>2021-07-28T08:18:57Z</time>
      </trkpt>
      <trkpt lat="49.3548" lon="5.95709">
        <ele>296.4</ele>
        <time>2021-07-28T08:18:58Z</time>
      </trkpt>
      <trkpt lat="49.35482" lon="5.95712">
        <ele>296.5</ele>
        <time>2021-07-28T08:18:59Z</time>
      </trkpt>
      <trkpt lat="49.35483" lon="5.95713">
        <ele>296.5</ele>
        <time>2021-07-28T08:19:01Z</time>
      </trkpt>
      <trkpt lat="49.35483" lon="5.95713">
        <ele>296.5</ele>
        <time>2021-07-28T08:19:02Z</time>
      </trkpt>
      <trkpt lat="49.35483" lon="5.95713">
        <ele>296.5</ele>
        <time>2021-07-28T08:19:03Z</time>
      </trkpt>
      <trkpt lat="49.35483" lon="5.95713">
        <ele>296.5</ele>
        <time>2021-07-28T08:19:05Z</time>
      </trkpt>
      <trkpt lat="49.35483" lon="5.95713">
        <ele>296.5</ele>
        <time>2021-07-28T08:19:06Z</time>
      </trkpt>
      <trkpt lat="49.35483" lon="5.95715">
        <ele>296.6</ele>
        <time>2021-07-28T08:19:07Z</time>
      </trkpt>
      <trkpt lat="49.35485" lon="5.95866">
        <ele>296.3</ele>
        <time>2021-07-28T08:19:40Z</time>
      </trkpt>
      <trkpt lat="49.35487" lon="5.9587">
        <ele>296.2</ele>
        <time>2021-07-28T08:19:41Z</time>
      </trkpt>
      <trkpt lat="49.3549" lon="5.95873">
        <ele>296.1</ele>
        <time>2021-07-28T08:19:42Z</time>
      </trkpt>
      <trkpt lat="49.3549" lon="5.95875">
        <ele>296.1</ele>
        <time>2021-07-28T08:19:43Z</time>
      </trkpt>
      <trkpt lat="49.35492" lon="5.95881">
        <ele>295.9</ele>
        <time>2021-07-28T08:19:45Z</time>
      </trkpt>
      <trkpt lat="49.35492" lon="5.95884">
        <ele>295.9</ele>
        <time>2021-07-28T08:19:46Z</time>
      </trkpt>
      <trkpt lat="49.35493" lon="5.95886">
        <ele>295.9</ele>
        <time>2021-07-28T08:19:47Z</time>
      </trkpt>
      <trkpt lat="49.35491" lon="5.95889">
        <ele>295.8</ele>
        <time>2021-07-28T08:19:48Z</time>
      </trkpt>
      <trkpt lat="49.35491" lon="5.95893">
        <ele>295.7</ele>
        <time>2021-07-28T08:19:50Z</time>
      </trkpt>
      <trkpt lat="49.35491" lon="5.95899">
        <ele>295.6</ele>
        <time>2021-07-28T08:19:51Z</time>
      </trkpt>
      <trkpt lat="49.35491" lon="5.95901">
        <ele>295.5</ele>
        <time>2021-07-28T08:19:52Z</time>
      </trkpt>
      <trkpt lat="49.35491" lon="5.95906">
        <ele>295.4</ele>
        <time>2021-07-28T08:19:54Z</time>
      </trkpt>
      <trkpt lat="49.35491" lon="5.95907">
        <ele>295.4</ele>
        <time>2021-07-28T08:19:55Z</time>
      </trkpt>
      <trkpt lat="49.35491" lon="5.95913">
        <ele>295.3</ele>
        <time>2021-07-28T08:19:56Z</time>
      </trkpt>
      <trkpt lat="49.35491" lon="5.95915">
        <ele>295.2</ele>
        <time>2021-07-28T08:19:57Z</time>
      </trkpt>
      <trkpt lat="49.35491" lon="5.9592">
        <ele>295.1</ele>
        <time>2021-07-28T08:19:58Z</time>
      </trkpt>
      <trkpt lat="49.35492" lon="5.95925">
        <ele>295</ele>
        <time>2021-07-28T08:20:00Z</time>
      </trkpt>
      <trkpt lat="49.35493" lon="5.9593">
        <ele>294.9</ele>
        <time>2021-07-28T08:20:01Z</time>
      </trkpt>
      <trkpt lat="49.35491" lon="5.95935">
        <ele>294.8</ele>
        <time>2021-07-28T08:20:03Z</time>
      </trkpt>
      <trkpt lat="49.35491" lon="5.9594">
        <ele>294.7</ele>
        <time>2021-07-28T08:20:04Z</time>
      </trkpt>
      <trkpt lat="49.3549" lon="5.95945">
        <ele>294.6</ele>
        <time>2021-07-28T08:20:05Z</time>
      </trkpt>
      <trkpt lat="49.35489" lon="5.9595">
        <ele>294.5</ele>
        <time>2021-07-28T08:20:06Z</time>
      </trkpt>
      <trkpt lat="49.35488" lon="5.9596">
        <ele>294.3</ele>
        <time>2021-07-28T08:20:07Z</time>
      </trkpt>
      <trkpt lat="49.35487" lon="5.95968">
        <ele>294.2</ele>
        <time>2021-07-28T08:20:09Z</time>
      </trkpt>
      <trkpt lat="49.35487" lon="5.9598">
        <ele>293.9</ele>
        <time>2021-07-28T08:20:11Z</time>
      </trkpt>
      <trkpt lat="49.35485" lon="5.95988">
        <ele>293.8</ele>
        <time>2021-07-28T08:20:12Z</time>
      </trkpt>
      <trkpt lat="49.35482" lon="5.95993">
        <ele>293.6</ele>
        <time>2021-07-28T08:20:13Z</time>
      </trkpt>
      <trkpt lat="49.3548" lon="5.96">
        <ele>293.5</ele>
        <time>2021-07-28T08:20:14Z</time>
      </trkpt>
      <trkpt lat="49.35478" lon="5.96008">
        <ele>293.3</ele>
        <time>2021-07-28T08:20:16Z</time>
      </trkpt>
      <trkpt lat="49.35476" lon="5.96013">
        <ele>293.1</ele>
        <time>2021-07-28T08:20:17Z</time>
      </trkpt>
      <trkpt lat="49.35474" lon="5.96021">
        <ele>292.9</ele>
        <time>2021-07-28T08:20:18Z</time>
      </trkpt>
      <trkpt lat="49.35474" lon="5.9603">
        <ele>292.7</ele>
        <time>2021-07-28T08:20:19Z</time>
      </trkpt>
      <trkpt lat="49.35473" lon="5.96037">
        <ele>292.5</ele>
        <time>2021-07-28T08:20:20Z</time>
      </trkpt>
      <trkpt lat="49.35473" lon="5.96044">
        <ele>292.4</ele>
        <time>2021-07-28T08:20:22Z</time>
      </trkpt>
      <trkpt lat="49.35472" lon="5.96057">
        <ele>291.9</ele>
        <time>2021-07-28T08:20:23Z</time>
      </trkpt>
      <trkpt lat="49.35475" lon="5.96071">
        <ele>291.4</ele>
        <time>2021-07-28T08:20:25Z</time>
      </trkpt>
      <trkpt lat="49.35474" lon="5.96078">
        <ele>291.2</ele>
        <time>2021-07-28T08:20:26Z</time>
      </trkpt>
      <trkpt lat="49.3547" lon="5.96085">
        <ele>290.9</ele>
        <time>2021-07-28T08:20:27Z</time>
      </trkpt>
      <trkpt lat="49.35469" lon="5.96094">
        <ele>290.7</ele>
        <time>2021-07-28T08:20:28Z</time>
      </trkpt>
      <trkpt lat="49.3547" lon="5.96099">
        <ele>290.5</ele>
        <time>2021-07-28T08:20:30Z</time>
      </trkpt>
      <trkpt lat="49.3547" lon="5.96106">
        <ele>290.4</ele>
        <time>2021-07-28T08:20:31Z</time>
      </trkpt>
      <trkpt lat="49.3547" lon="5.96112">
        <ele>290.3</ele>
        <time>2021-07-28T08:20:32Z</time>
      </trkpt>
      <trkpt lat="49.35468" lon="5.96121">
        <ele>290.1</ele>
        <time>2021-07-28T08:20:35Z</time>
      </trkpt>
      <trkpt lat="49.35465" lon="5.96127">
        <ele>289.9</ele>
        <time>2021-07-28T08:20:36Z</time>
      </trkpt>
      <trkpt lat="49.35465" lon="5.96134">
        <ele>289.8</ele>
        <time>2021-07-28T08:20:37Z</time>
      </trkpt>
      <trkpt lat="49.35464" lon="5.96141">
        <ele>289.7</ele>
        <time>2021-07-28T08:20:38Z</time>
      </trkpt>
      <trkpt lat="49.35463" lon="5.96156">
        <ele>289.5</ele>
        <time>2021-07-28T08:20:40Z</time>
      </trkpt>
      <trkpt lat="49.35462" lon="5.96167">
        <ele>289.4</ele>
        <time>2021-07-28T08:20:42Z</time>
      </trkpt>
      <trkpt lat="49.35461" lon="5.96174">
        <ele>289.2</ele>
        <time>2021-07-28T08:20:43Z</time>
      </trkpt>
      <trkpt lat="49.3546" lon="5.96181">
        <ele>289</ele>
        <time>2021-07-28T08:20:45Z</time>
      </trkpt>
      <trkpt lat="49.35459" lon="5.96185">
        <ele>289.1</ele>
        <time>2021-07-28T08:20:46Z</time>
      </trkpt>
      <trkpt lat="49.35461" lon="5.96191">
        <ele>288.9</ele>
        <time>2021-07-28T08:20:47Z</time>
      </trkpt>
      <trkpt lat="49.35463" lon="5.96197">
        <ele>288.5</ele>
        <time>2021-07-28T08:20:49Z</time>
      </trkpt>
      <trkpt lat="49.35462" lon="5.96201">
        <ele>288.7</ele>
        <time>2021-07-28T08:20:50Z</time>
      </trkpt>
      <trkpt lat="49.35461" lon="5.96203">
        <ele>288.6</ele>
        <time>2021-07-28T08:20:51Z</time>
      </trkpt>
      <trkpt lat="49.3546" lon="5.96206">
        <ele>288.6</ele>
        <time>2021-07-28T08:20:52Z</time>
      </trkpt>
      <trkpt lat="49.35459" lon="5.96215">
        <ele>288.7</ele>
        <time>2021-07-28T08:20:54Z</time>
      </trkpt>
      <trkpt lat="49.35458" lon="5.96219">
        <ele>288.6</ele>
        <time>2021-07-28T08:20:56Z</time>
      </trkpt>
      <trkpt lat="49.35457" lon="5.96224">
        <ele>288.5</ele>
        <time>2021-07-28T08:20:57Z</time>
      </trkpt>
      <trkpt lat="49.35456" lon="5.96226">
        <ele>288.8</ele>
        <time>2021-07-28T08:20:58Z</time>
      </trkpt>
      <trkpt lat="49.35456" lon="5.96227">
        <ele>288.7</ele>
        <time>2021-07-28T08:20:59Z</time>
      </trkpt>
      <trkpt lat="49.35456" lon="5.96228">
        <ele>288.6</ele>
        <time>2021-07-28T08:21:00Z</time>
      </trkpt>
      <trkpt lat="49.35456" lon="5.96229">
        <ele>288.6</ele>
        <time>2021-07-28T08:21:01Z</time>
      </trkpt>
      <trkpt lat="49.35447" lon="5.96251">
        <ele>289.4</ele>
        <time>2021-07-28T08:21:03Z</time>
      </trkpt>
      <trkpt lat="49.35445" lon="5.96258">
        <ele>289.8</ele>
        <time>2021-07-28T08:21:05Z</time>
      </trkpt>
      <trkpt lat="49.35443" lon="5.96263">
        <ele>289.7</ele>
        <time>2021-07-28T08:21:06Z</time>
      </trkpt>
      <trkpt lat="49.35443" lon="5.96265">
        <ele>290.2</ele>
        <time>2021-07-28T08:21:07Z</time>
      </trkpt>
      <trkpt lat="49.35406" lon="5.96212">
        <ele>292.3</ele>
        <time>2021-07-28T08:22:00Z</time>
      </trkpt>
      <trkpt lat="49.35412" lon="5.9622">
        <ele>292.3</ele>
        <time>2021-07-28T08:22:02Z</time>
      </trkpt>
      <trkpt lat="49.35421" lon="5.96233">
        <ele>291.9</ele>
        <time>2021-07-28T08:22:04Z</time>
      </trkpt>
      <trkpt lat="49.35411" lon="5.96227">
        <ele>291.9</ele>
        <time>2021-07-28T08:22:05Z</time>
      </trkpt>
      <trkpt lat="49.3541" lon="5.96226">
        <ele>291.9</ele>
        <time>2021-07-28T08:22:06Z</time>
      </trkpt>
      <trkpt lat="49.35406" lon="5.96227">
        <ele>291.9</ele>
        <time>2021-07-28T08:22:08Z</time>
      </trkpt>
      <trkpt lat="49.35405" lon="5.96228">
        <ele>292</ele>
        <time>2021-07-28T08:22:09Z</time>
      </trkpt>
      <trkpt lat="49.35404" lon="5.96233">
        <ele>292</ele>
        <time>2021-07-28T08:22:11Z</time>
      </trkpt>
      <trkpt lat="49.35404" lon="5.96235">
        <ele>292.1</ele>
        <time>2021-07-28T08:22:12Z</time>
      </trkpt>
      <trkpt lat="49.35404" lon="5.96237">
        <ele>292.1</ele>
        <time>2021-07-28T08:22:13Z</time>
      </trkpt>
      <trkpt lat="49.35403" lon="5.9624">
        <ele>292.2</ele>
        <time>2021-07-28T08:22:14Z</time>
      </trkpt>
      <trkpt lat="49.35397" lon="5.96459">
        <ele>295.2</ele>
        <time>2021-07-28T08:23:20Z</time>
      </trkpt>
      <trkpt lat="49.35398" lon="5.96467">
        <ele>295.3</ele>
        <time>2021-07-28T08:23:22Z</time>
      </trkpt>
      <trkpt lat="49.35398" lon="5.96474">
        <ele>295.4</ele>
        <time>2021-07-28T08:23:23Z</time>
      </trkpt>
      <trkpt lat="49.35398" lon="5.96483">
        <ele>295.4</ele>
        <time>2021-07-28T08:23:24Z</time>
      </trkpt>
      <trkpt lat="49.35399" lon="5.96484">
        <ele>295.5</ele>
        <time>2021-07-28T08:23:25Z</time>
      </trkpt>
      <trkpt lat="49.35401" lon="5.96487">
        <ele>295.5</ele>
        <time>2021-07-28T08:23:27Z</time>
      </trkpt>
      <trkpt lat="49.35402" lon="5.96491">
        <ele>295.5</ele>
        <time>2021-07-28T08:23:29Z</time>
      </trkpt>
      <trkpt lat="49.35403" lon="5.96494">
        <ele>295.5</ele>
        <time>2021-07-28T08:23:30Z</time>
      </trkpt>
      <trkpt lat="49.35403" lon="5.96496">
        <ele>295.6</ele>
        <time>2021-07-28T08:23:31Z</time>
      </trkpt>
      <trkpt lat="49.35402" lon="5.96501">
        <ele>295.6</ele>
        <time>2021-07-28T08:23:32Z</time>
      </trkpt>
      <trkpt lat="49.35401" lon="5.96507">
        <ele>295.6</ele>
        <time>2021-07-28T08:23:34Z</time>
      </trkpt>
      <trkpt lat="49.35401" lon="5.96512">
        <ele>295.6</ele>
        <time>2021-07-28T08:23:35Z</time>
      </trkpt>
      <trkpt lat="49.354" lon="5.96517">
        <ele>295.6</ele>
        <time>2021-07-28T08:23:36Z</time>
      </trkpt>
      <trkpt lat="49.354" lon="5.96523">
        <ele>295.5</ele>
        <time>2021-07-28T08:23:37Z</time>
      </trkpt>
      <trkpt lat="49.35399" lon="5.96524">
        <ele>295.5</ele>
        <time>2021-07-28T08:23:38Z</time>
      </trkpt>
      <trkpt lat="49.35398" lon="5.96528">
        <ele>295.5</ele>
        <time>2021-07-28T08:23:39Z</time>
      </trkpt>
      <trkpt lat="49.35398" lon="5.96529">
        <ele>295.5</ele>
        <time>2021-07-28T08:23:41Z</time>
      </trkpt>
      <trkpt lat="49.35398" lon="5.96531">
        <ele>295.5</ele>
        <time>2021-07-28T08:23:42Z</time>
      </trkpt>
      <trkpt lat="49.35398" lon="5.96534">
        <ele>295.4</ele>
        <time>2021-07-28T08:23:44Z</time>
      </trkpt>
      <trkpt lat="49.35397" lon="5.96541">
        <ele>295.4</ele>
        <time>2021-07-28T08:23:46Z</time>
      </trkpt>
      <trkpt lat="49.35396" lon="5.96547">
        <ele>295.4</ele>
        <time>2021-07-28T08:23:47Z</time>
      </trkpt>
      <trkpt lat="49.35396" lon="5.96555">
        <ele>295.4</ele>
        <time>2021-07-28T08:23:49Z</time>
      </trkpt>
      <trkpt lat="49.35395" lon="5.9656">
        <ele>295.4</ele>
        <time>2021-07-28T08:23:50Z</time>
      </trkpt>
      <trkpt lat="49.35392" lon="5.96569">
        <ele>295.4</ele>
        <time>2021-07-28T08:23:51Z</time>
      </trkpt>
      <trkpt lat="49.3539" lon="5.96577">
        <ele>295.4</ele>
        <time>2021-07-28T08:23:53Z</time>
      </trkpt>
      <trkpt lat="49.35388" lon="5.96581">
        <ele>295.3</ele>
        <time>2021-07-28T08:23:54Z</time>
      </trkpt>
      <trkpt lat="49.35387" lon="5.96587">
        <ele>295.2</ele>
        <time>2021-07-28T08:23:55Z</time>
      </trkpt>
      <trkpt lat="49.35386" lon="5.96594">
        <ele>295.2</ele>
        <time>2021-07-28T08:23:57Z</time>
      </trkpt>
      <trkpt lat="49.35386" lon="5.96596">
        <ele>295.1</ele>
        <time>2021-07-28T08:23:58Z</time>
      </trkpt>
      <trkpt lat="49.35386" lon="5.96598">
        <ele>295.1</ele>
        <time>2021-07-28T08:23:59Z</time>
      </trkpt>
      <trkpt lat="49.35385" lon="5.96602">
        <ele>295</ele>
        <time>2021-07-28T08:24:00Z</time>
      </trkpt>
      <trkpt lat="49.35385" lon="5.96607">
        <ele>295</ele>
        <time>2021-07-28T08:24:01Z</time>
      </trkpt>
      <trkpt lat="49.35385" lon="5.96609">
        <ele>295</ele>
        <time>2021-07-28T08:24:03Z</time>
      </trkpt>
      <trkpt lat="49.35386" lon="5.96612">
        <ele>294.9</ele>
        <time>2021-07-28T08:24:04Z</time>
      </trkpt>
      <trkpt lat="49.35389" lon="5.96614">
        <ele>294.9</ele>
        <time>2021-07-28T08:24:06Z</time>
      </trkpt>
      <trkpt lat="49.35389" lon="5.96615">
        <ele>294.8</ele>
        <time>2021-07-28T08:24:07Z</time>
      </trkpt>
      <trkpt lat="49.35392" lon="5.96612">
        <ele>294.8</ele>
        <time>2021-07-28T08:24:08Z</time>
      </trkpt>
      <trkpt lat="49.35394" lon="5.96612">
        <ele>294.7</ele>
        <time>2021-07-28T08:24:09Z</time>
      </trkpt>
      <trkpt lat="49.35394" lon="5.96612">
        <ele>294.7</ele>
        <time>2021-07-28T08:24:11Z</time>
      </trkpt>
      <trkpt lat="49.35395" lon="5.96612">
        <ele>294.7</ele>
        <time>2021-07-28T08:24:12Z</time>
      </trkpt>
      <trkpt lat="49.35395" lon="5.96615">
        <ele>294.6</ele>
        <time>2021-07-28T08:24:13Z</time>
      </trkpt>
      <trkpt lat="49.35396" lon="5.96618">
        <ele>294.5</ele>
        <time>2021-07-28T08:24:14Z</time>
      </trkpt>
      <trkpt lat="49.35394" lon="5.96622">
        <ele>294.4</ele>
        <time>2021-07-28T08:24:16Z</time>
      </trkpt>
      <trkpt lat="49.35393" lon="5.96628">
        <ele>294.3</ele>
        <time>2021-07-28T08:24:17Z</time>
      </trkpt>
      <trkpt lat="49.3539" lon="5.96634">
        <ele>294.1</ele>
        <time>2021-07-28T08:24:18Z</time>
      </trkpt>
      <trkpt lat="49.35388" lon="5.96645">
        <ele>293.8</ele>
        <time>2021-07-28T08:24:19Z</time>
      </trkpt>
      <trkpt lat="49.35387" lon="5.96652">
        <ele>293.6</ele>
        <time>2021-07-28T08:24:21Z</time>
      </trkpt>
      <trkpt lat="49.35385" lon="5.96662">
        <ele>293.3</ele>
        <time>2021-07-28T08:24:22Z</time>
      </trkpt>
      <trkpt lat="49.35383" lon="5.96668">
        <ele>293.2</ele>
        <time>2021-07-28T08:24:24Z</time>
      </trkpt>
      <trkpt lat="49.35382" lon="5.96673">
        <ele>293.1</ele>
        <time>2021-07-28T08:24:26Z</time>
      </trkpt>
      <trkpt lat="49.35382" lon="5.96682">
        <ele>292.9</ele>
        <time>2021-07-28T08:24:27Z</time>
      </trkpt>
      <trkpt lat="49.35382" lon="5.9669">
        <ele>292.7</ele>
        <time>2021-07-28T08:24:29Z</time>
      </trkpt>
      <trkpt lat="49.35382" lon="5.96698">
        <ele>292.5</ele>
        <time>2021-07-28T08:24:30Z</time>
      </trkpt>
      <trkpt lat="49.35383" lon="5.96704">
        <ele>292.3</ele>
        <time>2021-07-28T08:24:31Z</time>
      </trkpt>
      <trkpt lat="49.35384" lon="5.96706">
        <ele>292.2</ele>
        <time>2021-07-28T08:24:32Z</time>
      </trkpt>
      <trkpt lat="49.35384" lon="5.96709">
        <ele>292.2</ele>
        <time>2021-07-28T08:24:34Z</time>
      </trkpt>
      <trkpt lat="49.35385" lon="5.96711">
        <ele>292.1</ele>
        <time>2021-07-28T08:24:35Z</time>
      </trkpt>
      <trkpt lat="49.35385" lon="5.96712">
        <ele>292</ele>
        <time>2021-07-28T08:24:37Z</time>
      </trkpt>
      <trkpt lat="49.35385" lon="5.96714">
        <ele>292</ele>
        <time>2021-07-28T08:24:38Z</time>
      </trkpt>
      <trkpt lat="49.35387" lon="5.96717">
        <ele>291.9</ele>
        <time>2021-07-28T08:24:39Z</time>
      </trkpt>
      <trkpt lat="49.35388" lon="5.96719">
        <ele>291.7</ele>
        <time>2021-07-28T08:24:41Z</time>
      </trkpt>
      <trkpt lat="49.35341" lon="5.96789">
        <ele>288.7</ele>
        <time>2021-07-28T08:24:52Z</time>
      </trkpt>
      <trkpt lat="49.35338" lon="5.96797">
        <ele>288.7</ele>
        <time>2021-07-28T08:24:54Z</time>
      </trkpt>
      <trkpt lat="49.35338" lon="5.96806">
        <ele>288.7</ele>
        <time>2021-07-28T08:24:55Z</time>
      </trkpt>
      <trkpt lat="49.35338" lon="5.96819">
        <ele>288.7</ele>
        <time>2021-07-28T08:24:56Z</time>
      </trkpt>
      <trkpt lat="49.35339" lon="5.96825">
        <ele>288.6</ele>
        <time>2021-07-28T08:24:58Z</time>
      </trkpt>
      <trkpt lat="49.3534" lon="5.96825">
        <ele>288.6</ele>
        <time>2021-07-28T08:24:59Z</time>
      </trkpt>
      <trkpt lat="49.3534" lon="5.96825">
        <ele>288.6</ele>
        <time>2021-07-28T08:25:01Z</time>
      </trkpt>
      <trkpt lat="49.35339" lon="5.96827">
        <ele>288.6</ele>
        <time>2021-07-28T08:25:03Z</time>
      </trkpt>
      <trkpt lat="49.35338" lon="5.96827">
        <ele>288.6</ele>
        <time>2021-07-28T08:25:04Z</time>
      </trkpt>
      <trkpt lat="49.35337" lon="5.96828">
        <ele>288.6</ele>
        <time>2021-07-28T08:25:05Z</time>
      </trkpt>
      <trkpt lat="49.35335" lon="5.96831">
        <ele>288.6</ele>
        <time>2021-07-28T08:25:06Z</time>
      </trkpt>
      <trkpt lat="49.35331" lon="5.96835">
        <ele>288.7</ele>
        <time>2021-07-28T08:25:08Z</time>
      </trkpt>
      <trkpt lat="49.35322" lon="5.96879">
        <ele>288</ele>
        <time>2021-07-28T08:25:15Z</time>
      </trkpt>
      <trkpt lat="49.35321" lon="5.96886">
        <ele>287.8</ele>
        <time>2021-07-28T08:25:17Z</time>
      </trkpt>
      <trkpt lat="49.3532" lon="5.96891">
        <ele>287.7</ele>
        <time>2021-07-28T08:25:18Z</time>
      </trkpt>
      <trkpt lat="49.35318" lon="5.96899">
        <ele>287.5</ele>
        <time>2021-07-28T08:25:19Z</time>
      </trkpt>
      <trkpt lat="49.35317" lon="5.96906">
        <ele>287.2</ele>
        <time>2021-07-28T08:25:20Z</time>
      </trkpt>
      <trkpt lat="49.35317" lon="5.96912">
        <ele>287</ele>
        <time>2021-07-28T08:25:22Z</time>
      </trkpt>
      <trkpt lat="49.35317" lon="5.96921">
        <ele>286.7</ele>
        <time>2021-07-28T08:25:23Z</time>
      </trkpt>
      <trkpt lat="49.35318" lon="5.96927">
        <ele>286.4</ele>
        <time>2021-07-28T08:25:24Z</time>
      </trkpt>
      <trkpt lat="49.35321" lon="5.96937">
        <ele>286</ele>
        <time>2021-07-28T08:25:26Z</time>
      </trkpt>
      <trkpt lat="49.35324" lon="5.96949">
        <ele>285.6</ele>
        <time>2021-07-28T08:25:27Z</time>
      </trkpt>
      <trkpt lat="49.35327" lon="5.96958">
        <ele>285.3</ele>
        <time>2021-07-28T08:25:28Z</time>
      </trkpt>
      <trkpt lat="49.35331" lon="5.96966">
        <ele>285.1</ele>
        <time>2021-07-28T08:25:29Z</time>
      </trkpt>
      <trkpt lat="49.35339" lon="5.96982">
        <ele>284.5</ele>
        <time>2021-07-28T08:25:31Z</time>
      </trkpt>
      <trkpt lat="49.35343" lon="5.9699">
        <ele>284.1</ele>
        <time>2021-07-28T08:25:32Z</time>
      </trkpt>
      <trkpt lat="49.35347" lon="5.96999">
        <ele>283.6</ele>
        <time>2021-07-28T08:25:33Z</time>
      </trkpt>
      <trkpt lat="49.35349" lon="5.97004">
        <ele>283.4</ele>
        <time>2021-07-28T08:25:34Z</time>
      </trkpt>
      <trkpt lat="49.3535" lon="5.97009">
        <ele>283.1</ele>
        <time>2021-07-28T08:25:35Z</time>
      </trkpt>
      <trkpt lat="49.35351" lon="5.97014">
        <ele>282.9</ele>
        <time>2021-07-28T08:25:37Z</time>
      </trkpt>
      <trkpt lat="49.35351" lon="5.97016">
        <ele>282.8</ele>
        <time>2021-07-28T08:25:38Z</time>
      </trkpt>
      <trkpt lat="49.35351" lon="5.97022">
        <ele>282.6</ele>
        <time>2021-07-28T08:25:39Z</time>
      </trkpt>
      <trkpt lat="49.35353" lon="5.97028">
        <ele>282.4</ele>
        <time>2021-07-28T08:25:41Z</time>
      </trkpt>
      <trkpt lat="49.35352" lon="5.97035">
        <ele>282.1</ele>
        <time>2021-07-28T08:25:42Z</time>
      </trkpt>
      <trkpt lat="49.35351" lon="5.97039">
        <ele>281.9</ele>
        <time>2021-07-28T08:25:43Z</time>
      </trkpt>
      <trkpt lat="49.3535" lon="5.97044">
        <ele>281.7</ele>
        <time>2021-07-28T08:25:44Z</time>
      </trkpt>
      <trkpt lat="49.35349" lon="5.97048">
        <ele>281.5</ele>
        <time>2021-07-28T08:25:46Z</time>
      </trkpt>
      <trkpt lat="49.35348" lon="5.97049">
        <ele>281.4</ele>
        <time>2021-07-28T08:25:47Z</time>
      </trkpt>
      <trkpt lat="49.35348" lon="5.97052">
        <ele>281.2</ele>
        <time>2021-07-28T08:25:49Z</time>
      </trkpt>
      <trkpt lat="49.35348" lon="5.97054">
        <ele>281.1</ele>
        <time>2021-07-28T08:25:50Z</time>
      </trkpt>
      <trkpt lat="49.35347" lon="5.97056">
        <ele>281</ele>
        <time>2021-07-28T08:25:51Z</time>
      </trkpt>
      <trkpt lat="49.35347" lon="5.97058">
        <ele>280.9</ele>
        <time>2021-07-28T08:25:52Z</time>
      </trkpt>
      <trkpt lat="49.35347" lon="5.9706">
        <ele>280.7</ele>
        <time>2021-07-28T08:25:53Z</time>
      </trkpt>
      <trkpt lat="49.35347" lon="5.97062">
        <ele>280.6</ele>
        <time>2021-07-28T08:25:55Z</time>
      </trkpt>
      <trkpt lat="49.35348" lon="5.97069">
        <ele>280.1</ele>
        <time>2021-07-28T08:25:56Z</time>
      </trkpt>
      <trkpt lat="49.35348" lon="5.97072">
        <ele>279.9</ele>
        <time>2021-07-28T08:25:57Z</time>
      </trkpt>
      <trkpt lat="49.35348" lon="5.97079">
        <ele>279.4</ele>
        <time>2021-07-28T08:25:58Z</time>
      </trkpt>
      <trkpt lat="49.35348" lon="5.97086">
        <ele>279</ele>
        <time>2021-07-28T08:25:59Z</time>
      </trkpt>
      <trkpt lat="49.35347" lon="5.97093">
        <ele>278.5</ele>
        <time>2021-07-28T08:26:00Z</time>
      </trkpt>
      <trkpt lat="49.35346" lon="5.97104">
        <ele>277.9</ele>
        <time>2021-07-28T08:26:01Z</time>
      </trkpt>
      <trkpt lat="49.35342" lon="5.97115">
        <ele>277.2</ele>
        <time>2021-07-28T08:26:03Z</time>
      </trkpt>
      <trkpt lat="49.3534" lon="5.97121">
        <ele>276.9</ele>
        <time>2021-07-28T08:26:04Z</time>
      </trkpt>
      <trkpt lat="49.35336" lon="5.97135">
        <ele>276.3</ele>
        <time>2021-07-28T08:26:06Z</time>
      </trkpt>
      <trkpt lat="49.35334" lon="5.97142">
        <ele>276</ele>
        <time>2021-07-28T08:26:07Z</time>
      </trkpt>
      <trkpt lat="49.3533" lon="5.97153">
        <ele>275.6</ele>
        <time>2021-07-28T08:26:08Z</time>
      </trkpt>
      <trkpt lat="49.35331" lon="5.97161">
        <ele>275.4</ele>
        <time>2021-07-28T08:26:09Z</time>
      </trkpt>
      <trkpt lat="49.35332" lon="5.9717">
        <ele>275.3</ele>
        <time>2021-07-28T08:26:11Z</time>
      </trkpt>
      <trkpt lat="49.35332" lon="5.97176">
        <ele>275.2</ele>
        <time>2021-07-28T08:26:12Z</time>
      </trkpt>
      <trkpt lat="49.35332" lon="5.97183">
        <ele>275.1</ele>
        <time>2021-07-28T08:26:13Z</time>
      </trkpt>
      <trkpt lat="49.35333" lon="5.97193">
        <ele>274.8</ele>
        <time>2021-07-28T08:26:14Z</time>
      </trkpt>
      <trkpt lat="49.35333" lon="5.97196">
        <ele>274.7</ele>
        <time>2021-07-28T08:26:16Z</time>
      </trkpt>
      <trkpt lat="49.35334" lon="5.97196">
        <ele>274.7</ele>
        <time>2021-07-28T08:26:17Z</time>
      </trkpt>
      <trkpt lat="49.35334" lon="5.97197">
        <ele>274.7</ele>
        <time>2021-07-28T08:26:18Z</time>
      </trkpt>
      <trkpt lat="49.35335" lon="5.97198">
        <ele>274.7</ele>
        <time>2021-07-28T08:26:20Z</time>
      </trkpt>
      <trkpt lat="49.35335" lon="5.972">
        <ele>274.6</ele>
        <time>2021-07-28T08:26:21Z</time>
      </trkpt>
      <trkpt lat="49.35336" lon="5.97201">
        <ele>274.6</ele>
        <time>2021-07-28T08:26:22Z</time>
      </trkpt>
      <trkpt lat="49.35336" lon="5.97203">
        <ele>274.5</ele>
        <time>2021-07-28T08:26:24Z</time>
      </trkpt>
      <trkpt lat="49.35337" lon="5.97204">
        <ele>274.5</ele>
        <time>2021-07-28T08:26:37Z</time>
      </trkpt>
      <trkpt lat="49.35337" lon="5.97206">
        <ele>274.5</ele>
        <time>2021-07-28T08:26:38Z</time>
      </trkpt>
      <trkpt lat="49.35338" lon="5.97215">
        <ele>274.3</ele>
        <time>2021-07-28T08:26:40Z</time>
      </trkpt>
      <trkpt lat="49.35339" lon="5.97222">
        <ele>274.1</ele>
        <time>2021-07-28T08:26:41Z</time>
      </trkpt>
      <trkpt lat="49.35339" lon="5.97229">
        <ele>274</ele>
        <time>2021-07-28T08:26:42Z</time>
      </trkpt>
      <trkpt lat="49.3534" lon="5.97239">
        <ele>273.8</ele>
        <time>2021-07-28T08:26:43Z</time>
      </trkpt>
      <trkpt lat="49.3534" lon="5.97247">
        <ele>273.7</ele>
        <time>2021-07-28T08:26:44Z</time>
      </trkpt>
      <trkpt lat="49.35341" lon="5.97259">
        <ele>273.5</ele>
        <time>2021-07-28T08:26:46Z</time>
      </trkpt>
      <trkpt lat="49.35339" lon="5.9726">
        <ele>273.4</ele>
        <time>2021-07-28T08:26:48Z</time>
      </trkpt>
      <trkpt lat="49.35339" lon="5.97274">
        <ele>273.2</ele>
        <time>2021-07-28T08:26:50Z</time>
      </trkpt>
      <trkpt lat="49.35339" lon="5.97281">
        <ele>273.1</ele>
        <time>2021-07-28T08:26:51Z</time>
      </trkpt>
      <trkpt lat="49.3534" lon="5.97288">
        <ele>273</ele>
        <time>2021-07-28T08:26:52Z</time>
      </trkpt>
      <trkpt lat="49.3534" lon="5.97294">
        <ele>272.8</ele>
        <time>2021-07-28T08:26:53Z</time>
      </trkpt>
      <trkpt lat="49.35341" lon="5.97303">
        <ele>272.7</ele>
        <time>2021-07-28T08:26:54Z</time>
      </trkpt>
      <trkpt lat="49.3534" lon="5.97309">
        <ele>272.5</ele>
        <time>2021-07-28T08:26:55Z</time>
      </trkpt>
      <trkpt lat="49.3534" lon="5.97316">
        <ele>272.4</ele>
        <time>2021-07-28T08:26:57Z</time>
      </trkpt>
      <trkpt lat="49.3534" lon="5.97323">
        <ele>272.2</ele>
        <time>2021-07-28T08:26:58Z</time>
      </trkpt>
      <trkpt lat="49.35338" lon="5.97338">
        <ele>271.8</ele>
        <time>2021-07-28T08:27:00Z</time>
      </trkpt>
      <trkpt lat="49.35337" lon="5.97345">
        <ele>271.7</ele>
        <time>2021-07-28T08:27:01Z</time>
      </trkpt>
      <trkpt lat="49.35336" lon="5.97352">
        <ele>271.5</ele>
        <time>2021-07-28T08:27:02Z</time>
      </trkpt>
      <trkpt lat="49.35335" lon="5.97367">
        <ele>271.1</ele>
        <time>2021-07-28T08:27:04Z</time>
      </trkpt>
      <trkpt lat="49.35335" lon="5.97374">
        <ele>270.9</ele>
        <time>2021-07-28T08:27:05Z</time>
      </trkpt>
      <trkpt lat="49.35336" lon="5.97382">
        <ele>270.7</ele>
        <time>2021-07-28T08:27:06Z</time>
      </trkpt>
      <trkpt lat="49.35337" lon="5.97398">
        <ele>270.3</ele>
        <time>2021-07-28T08:27:08Z</time>
      </trkpt>
      <trkpt lat="49.35336" lon="5.97413">
        <ele>269.9</ele>
        <time>2021-07-28T08:27:10Z</time>
      </trkpt>
      <trkpt lat="49.35336" lon="5.97421">
        <ele>269.7</ele>
        <time>2021-07-28T08:27:11Z</time>
      </trkpt>
      <trkpt lat="49.35335" lon="5.97429">
        <ele>269.5</ele>
        <time>2021-07-28T08:27:12Z</time>
      </trkpt>
      <trkpt lat="49.35334" lon="5.97445">
        <ele>269.1</ele>
        <time>2021-07-28T08:27:14Z</time>
      </trkpt>
      <trkpt lat="49.35334" lon="5.97453">
        <ele>268.9</ele>
        <time>2021-07-28T08:27:15Z</time>
      </trkpt>
      <trkpt lat="49.35332" lon="5.97467">
        <ele>268.6</ele>
        <time>2021-07-28T08:27:17Z</time>
      </trkpt>
      <trkpt lat="49.35331" lon="5.97474">
        <ele>268.4</ele>
        <time>2021-07-28T08:27:18Z</time>
      </trkpt>
      <trkpt lat="49.3533" lon="5.9748">
        <ele>268.3</ele>
        <time>2021-07-28T08:27:19Z</time>
      </trkpt>
      <trkpt lat="49.35327" lon="5.97494">
        <ele>267.9</ele>
        <time>2021-07-28T08:27:21Z</time>
      </trkpt>
      <trkpt lat="49.35324" lon="5.97506">
        <ele>267.6</ele>
        <time>2021-07-28T08:27:23Z</time>
      </trkpt>
      <trkpt lat="49.35321" lon="5.97513">
        <ele>267.4</ele>
        <time>2021-07-28T08:27:24Z</time>
      </trkpt>
      <trkpt lat="49.35315" lon="5.97532">
        <ele>267</ele>
        <time>2021-07-28T08:27:26Z</time>
      </trkpt>
      <trkpt lat="49.35311" lon="5.9755">
        <ele>266.5</ele>
        <time>2021-07-28T08:27:28Z</time>
      </trkpt>
      <trkpt lat="49.35307" lon="5.97568">
        <ele>266.1</ele>
        <time>2021-07-28T08:27:30Z</time>
      </trkpt>
      <trkpt lat="49.35306" lon="5.97577">
        <ele>265.9</ele>
        <time>2021-07-28T08:27:31Z</time>
      </trkpt>
      <trkpt lat="49.35304" lon="5.97587">
        <ele>265.7</ele>
        <time>2021-07-28T08:27:32Z</time>
      </trkpt>
      <trkpt lat="49.353" lon="5.97605">
        <ele>265.2</ele>
        <time>2021-07-28T08:27:34Z</time>
      </trkpt>
      <trkpt lat="49.35297" lon="5.97624">
        <ele>264.8</ele>
        <time>2021-07-28T08:27:36Z</time>
      </trkpt>
      <trkpt lat="49.35295" lon="5.97634">
        <ele>264.5</ele>
        <time>2021-07-28T08:27:37Z</time>
      </trkpt>
      <trkpt lat="49.35295" lon="5.97643">
        <ele>264.3</ele>
        <time>2021-07-28T08:27:38Z</time>
      </trkpt>
      <trkpt lat="49.35292" lon="5.97662">
        <ele>263.9</ele>
        <time>2021-07-28T08:27:40Z</time>
      </trkpt>
      <trkpt lat="49.35289" lon="5.97678">
        <ele>263.6</ele>
        <time>2021-07-28T08:27:42Z</time>
      </trkpt>
      <trkpt lat="49.35284" lon="5.97694">
        <ele>263.4</ele>
        <time>2021-07-28T08:27:44Z</time>
      </trkpt>
      <trkpt lat="49.35282" lon="5.97711">
        <ele>263.2</ele>
        <time>2021-07-28T08:27:46Z</time>
      </trkpt>
      <trkpt lat="49.35285" lon="5.97729">
        <ele>263</ele>
        <time>2021-07-28T08:27:48Z</time>
      </trkpt>
      <trkpt lat="49.35291" lon="5.97744">
        <ele>263</ele>
        <time>2021-07-28T08:27:50Z</time>
      </trkpt>
      <trkpt lat="49.35298" lon="5.97758">
        <ele>263</ele>
        <time>2021-07-28T08:27:52Z</time>
      </trkpt>
      <trkpt lat="49.35307" lon="5.9777">
        <ele>262.9</ele>
        <time>2021-07-28T08:27:54Z</time>
      </trkpt>
      <trkpt lat="49.35311" lon="5.97781">
        <ele>262.9</ele>
        <time>2021-07-28T08:27:56Z</time>
      </trkpt>
      <trkpt lat="49.35317" lon="5.97792">
        <ele>262.8</ele>
        <time>2021-07-28T08:27:58Z</time>
      </trkpt>
      <trkpt lat="49.3532" lon="5.97798">
        <ele>262.8</ele>
        <time>2021-07-28T08:27:59Z</time>
      </trkpt>
      <trkpt lat="49.35321" lon="5.978">
        <ele>262.8</ele>
        <time>2021-07-28T08:28:00Z</time>
      </trkpt>
      <trkpt lat="49.35327" lon="5.97807">
        <ele>262.8</ele>
        <time>2021-07-28T08:28:02Z</time>
      </trkpt>
      <trkpt lat="49.35331" lon="5.97815">
        <ele>262.9</ele>
        <time>2021-07-28T08:28:04Z</time>
      </trkpt>
      <trkpt lat="49.35332" lon="5.97824">
        <ele>263</ele>
        <time>2021-07-28T08:28:05Z</time>
      </trkpt>
      <trkpt lat="49.35331" lon="5.97832">
        <ele>263.2</ele>
        <time>2021-07-28T08:28:07Z</time>
      </trkpt>
      <trkpt lat="49.35332" lon="5.97838">
        <ele>263.3</ele>
        <time>2021-07-28T08:28:08Z</time>
      </trkpt>
      <trkpt lat="49.35332" lon="5.97847">
        <ele>263.5</ele>
        <time>2021-07-28T08:28:09Z</time>
      </trkpt>
      <trkpt lat="49.35333" lon="5.97854">
        <ele>263.6</ele>
        <time>2021-07-28T08:28:10Z</time>
      </trkpt>
      <trkpt lat="49.35334" lon="5.97861">
        <ele>263.8</ele>
        <time>2021-07-28T08:28:11Z</time>
      </trkpt>
      <trkpt lat="49.35335" lon="5.9787">
        <ele>263.9</ele>
        <time>2021-07-28T08:28:12Z</time>
      </trkpt>
      <trkpt lat="49.35335" lon="5.97876">
        <ele>264</ele>
        <time>2021-07-28T08:28:14Z</time>
      </trkpt>
      <trkpt lat="49.35336" lon="5.97882">
        <ele>264.1</ele>
        <time>2021-07-28T08:28:15Z</time>
      </trkpt>
      <trkpt lat="49.35337" lon="5.97887">
        <ele>264.2</ele>
        <time>2021-07-28T08:28:16Z</time>
      </trkpt>
      <trkpt lat="49.35337" lon="5.97893">
        <ele>264.3</ele>
        <time>2021-07-28T08:28:18Z</time>
      </trkpt>
      <trkpt lat="49.35338" lon="5.979">
        <ele>264.4</ele>
        <time>2021-07-28T08:28:19Z</time>
      </trkpt>
      <trkpt lat="49.35338" lon="5.97904">
        <ele>264.4</ele>
        <time>2021-07-28T08:28:20Z</time>
      </trkpt>
      <trkpt lat="49.35338" lon="5.9791">
        <ele>264.5</ele>
        <time>2021-07-28T08:28:21Z</time>
      </trkpt>
      <trkpt lat="49.35338" lon="5.97916">
        <ele>264.6</ele>
        <time>2021-07-28T08:28:23Z</time>
      </trkpt>
      <trkpt lat="49.35337" lon="5.97924">
        <ele>264.7</ele>
        <time>2021-07-28T08:28:24Z</time>
      </trkpt>
      <trkpt lat="49.35338" lon="5.97932">
        <ele>264.8</ele>
        <time>2021-07-28T08:28:25Z</time>
      </trkpt>
      <trkpt lat="49.35339" lon="5.97943">
        <ele>265</ele>
        <time>2021-07-28T08:28:28Z</time>
      </trkpt>
      <trkpt lat="49.3534" lon="5.97948">
        <ele>265</ele>
        <time>2021-07-28T08:28:29Z</time>
      </trkpt>
      <trkpt lat="49.35342" lon="5.97957">
        <ele>265.1</ele>
        <time>2021-07-28T08:28:31Z</time>
      </trkpt>
      <trkpt lat="49.35343" lon="5.97961">
        <ele>265.2</ele>
        <time>2021-07-28T08:28:32Z</time>
      </trkpt>
      <trkpt lat="49.35345" lon="5.97966">
        <ele>265.3</ele>
        <time>2021-07-28T08:28:33Z</time>
      </trkpt>
      <trkpt lat="49.35346" lon="5.97971">
        <ele>265.3</ele>
        <time>2021-07-28T08:28:34Z</time>
      </trkpt>
      <trkpt lat="49.35347" lon="5.97975">
        <ele>265.4</ele>
        <time>2021-07-28T08:28:35Z</time>
      </trkpt>
      <trkpt lat="49.35347" lon="5.97977">
        <ele>265.4</ele>
        <time>2021-07-28T08:28:36Z</time>
      </trkpt>
      <trkpt lat="49.35348" lon="5.97982">
        <ele>265.5</ele>
        <time>2021-07-28T08:28:37Z</time>
      </trkpt>
      <trkpt lat="49.35349" lon="5.97984">
        <ele>265.5</ele>
        <time>2021-07-28T08:28:38Z</time>
      </trkpt>
      <trkpt lat="49.35349" lon="5.9799">
        <ele>265.6</ele>
        <time>2021-07-28T08:28:39Z</time>
      </trkpt>
      <trkpt lat="49.35349" lon="5.97992">
        <ele>265.6</ele>
        <time>2021-07-28T08:28:40Z</time>
      </trkpt>
      <trkpt lat="49.35349" lon="5.97996">
        <ele>265.6</ele>
        <time>2021-07-28T08:28:41Z</time>
      </trkpt>
      <trkpt lat="49.35348" lon="5.98001">
        <ele>265.7</ele>
        <time>2021-07-28T08:28:43Z</time>
      </trkpt>
      <trkpt lat="49.35349" lon="5.98006">
        <ele>265.7</ele>
        <time>2021-07-28T08:28:44Z</time>
      </trkpt>
      <trkpt lat="49.35349" lon="5.98011">
        <ele>265.7</ele>
        <time>2021-07-28T08:28:45Z</time>
      </trkpt>
      <trkpt lat="49.3535" lon="5.98017">
        <ele>265.8</ele>
        <time>2021-07-28T08:28:46Z</time>
      </trkpt>
      <trkpt lat="49.35351" lon="5.98022">
        <ele>265.8</ele>
        <time>2021-07-28T08:28:47Z</time>
      </trkpt>
      <trkpt lat="49.35352" lon="5.98027">
        <ele>265.9</ele>
        <time>2021-07-28T08:28:48Z</time>
      </trkpt>
      <trkpt lat="49.35353" lon="5.98031">
        <ele>266</ele>
        <time>2021-07-28T08:28:49Z</time>
      </trkpt>
      <trkpt lat="49.35354" lon="5.98035">
        <ele>266.1</ele>
        <time>2021-07-28T08:28:50Z</time>
      </trkpt>
      <trkpt lat="49.35355" lon="5.98039">
        <ele>266.2</ele>
        <time>2021-07-28T08:28:51Z</time>
      </trkpt>
      <trkpt lat="49.35357" lon="5.98044">
        <ele>266.3</ele>
        <time>2021-07-28T08:28:52Z</time>
      </trkpt>
      <trkpt lat="49.35358" lon="5.98048">
        <ele>266.4</ele>
        <time>2021-07-28T08:28:53Z</time>
      </trkpt>
      <trkpt lat="49.3536" lon="5.98051">
        <ele>266.5</ele>
        <time>2021-07-28T08:28:54Z</time>
      </trkpt>
      <trkpt lat="49.35361" lon="5.98056">
        <ele>266.6</ele>
        <time>2021-07-28T08:28:56Z</time>
      </trkpt>
      <trkpt lat="49.35363" lon="5.98064">
        <ele>266.7</ele>
        <time>2021-07-28T08:28:57Z</time>
      </trkpt>
      <trkpt lat="49.35365" lon="5.9807">
        <ele>266.8</ele>
        <time>2021-07-28T08:28:59Z</time>
      </trkpt>
      <trkpt lat="49.35367" lon="5.98075">
        <ele>266.9</ele>
        <time>2021-07-28T08:29:00Z</time>
      </trkpt>
      <trkpt lat="49.35372" lon="5.98084">
        <ele>267.1</ele>
        <time>2021-07-28T08:29:02Z</time>
      </trkpt>
      <trkpt lat="49.35376" lon="5.98094">
        <ele>267.3</ele>
        <time>2021-07-28T08:29:04Z</time>
      </trkpt>
      <trkpt lat="49.35379" lon="5.98107">
        <ele>267.5</ele>
        <time>2021-07-28T08:29:06Z</time>
      </trkpt>
      <trkpt lat="49.3538" lon="5.98113">
        <ele>267.6</ele>
        <time>2021-07-28T08:29:07Z</time>
      </trkpt>
      <trkpt lat="49.35382" lon="5.9812">
        <ele>267.7</ele>
        <time>2021-07-28T08:29:08Z</time>
      </trkpt>
      <trkpt lat="49.35383" lon="5.98125">
        <ele>267.8</ele>
        <time>2021-07-28T08:29:09Z</time>
      </trkpt>
      <trkpt lat="49.35384" lon="5.98128">
        <ele>267.9</ele>
        <time>2021-07-28T08:29:10Z</time>
      </trkpt>
      <trkpt lat="49.35385" lon="5.98128">
        <ele>267.9</ele>
        <time>2021-07-28T08:29:11Z</time>
      </trkpt>
      <trkpt lat="49.35387" lon="5.98127">
        <ele>268</ele>
        <time>2021-07-28T08:29:13Z</time>
      </trkpt>
      <trkpt lat="49.35387" lon="5.98129">
        <ele>268</ele>
        <time>2021-07-28T08:29:14Z</time>
      </trkpt>
      <trkpt lat="49.35388" lon="5.98131">
        <ele>268.1</ele>
        <time>2021-07-28T08:29:16Z</time>
      </trkpt>
      <trkpt lat="49.35388" lon="5.98133">
        <ele>268.1</ele>
        <time>2021-07-28T08:29:17Z</time>
      </trkpt>
      <trkpt lat="49.3539" lon="5.98139">
        <ele>268.2</ele>
        <time>2021-07-28T08:29:19Z</time>
      </trkpt>
      <trkpt lat="49.35392" lon="5.98144">
        <ele>268.3</ele>
        <time>2021-07-28T08:29:20Z</time>
      </trkpt>
      <trkpt lat="49.35395" lon="5.98152">
        <ele>268.5</ele>
        <time>2021-07-28T08:29:21Z</time>
      </trkpt>
      <trkpt lat="49.35395" lon="5.98154">
        <ele>268.5</ele>
        <time>2021-07-28T08:29:22Z</time>
      </trkpt>
      <trkpt lat="49.35396" lon="5.9816">
        <ele>268.6</ele>
        <time>2021-07-28T08:29:24Z</time>
      </trkpt>
      <trkpt lat="49.35399" lon="5.98169">
        <ele>268.8</ele>
        <time>2021-07-28T08:29:25Z</time>
      </trkpt>
      <trkpt lat="49.35402" lon="5.98179">
        <ele>269</ele>
        <time>2021-07-28T08:29:27Z</time>
      </trkpt>
      <trkpt lat="49.35404" lon="5.98187">
        <ele>269.2</ele>
        <time>2021-07-28T08:29:28Z</time>
      </trkpt>
      <trkpt lat="49.35406" lon="5.98194">
        <ele>269.3</ele>
        <time>2021-07-28T08:29:29Z</time>
      </trkpt>
      <trkpt lat="49.35407" lon="5.98203">
        <ele>269.6</ele>
        <time>2021-07-28T08:29:31Z</time>
      </trkpt>
      <trkpt lat="49.35409" lon="5.98209">
        <ele>269.7</ele>
        <time>2021-07-28T08:29:32Z</time>
      </trkpt>
      <trkpt lat="49.35409" lon="5.98215">
        <ele>269.9</ele>
        <time>2021-07-28T08:29:33Z</time>
      </trkpt>
      <trkpt lat="49.35411" lon="5.98224">
        <ele>270.1</ele>
        <time>2021-07-28T08:29:34Z</time>
      </trkpt>
      <trkpt lat="49.35412" lon="5.98231">
        <ele>270.3</ele>
        <time>2021-07-28T08:29:36Z</time>
      </trkpt>
      <trkpt lat="49.35413" lon="5.98239">
        <ele>270.4</ele>
        <time>2021-07-28T08:29:37Z</time>
      </trkpt>
      <trkpt lat="49.35414" lon="5.98245">
        <ele>270.4</ele>
        <time>2021-07-28T08:29:38Z</time>
      </trkpt>
      <trkpt lat="49.35413" lon="5.98251">
        <ele>270.5</ele>
        <time>2021-07-28T08:29:40Z</time>
      </trkpt>
      <trkpt lat="49.35413" lon="5.98257">
        <ele>270.5</ele>
        <time>2021-07-28T08:29:41Z</time>
      </trkpt>
      <trkpt lat="49.35414" lon="5.98267">
        <ele>270.6</ele>
        <time>2021-07-28T08:29:46Z</time>
      </trkpt>
      <trkpt lat="49.35415" lon="5.98272">
        <ele>270.6</ele>
        <time>2021-07-28T08:29:47Z</time>
      </trkpt>
      <trkpt lat="49.35416" lon="5.98277">
        <ele>270.7</ele>
        <time>2021-07-28T08:29:49Z</time>
      </trkpt>
      <trkpt lat="49.35417" lon="5.9828">
        <ele>270.7</ele>
        <time>2021-07-28T08:29:50Z</time>
      </trkpt>
      <trkpt lat="49.35418" lon="5.98282">
        <ele>270.7</ele>
        <time>2021-07-28T08:29:52Z</time>
      </trkpt>
      <trkpt lat="49.35432" lon="5.98339">
        <ele>271.1</ele>
        <time>2021-07-28T08:30:05Z</time>
      </trkpt>
      <trkpt lat="49.35432" lon="5.98344">
        <ele>271.1</ele>
        <time>2021-07-28T08:30:06Z</time>
      </trkpt>
      <trkpt lat="49.3543" lon="5.98356">
        <ele>271.2</ele>
        <time>2021-07-28T08:30:08Z</time>
      </trkpt>
      <trkpt lat="49.3543" lon="5.98366">
        <ele>271.4</ele>
        <time>2021-07-28T08:30:10Z</time>
      </trkpt>
      <trkpt lat="49.35429" lon="5.98378">
        <ele>271.5</ele>
        <time>2021-07-28T08:30:12Z</time>
      </trkpt>
      <trkpt lat="49.35429" lon="5.98382">
        <ele>271.6</ele>
        <time>2021-07-28T08:30:13Z</time>
      </trkpt>
      <trkpt lat="49.35429" lon="5.98389">
        <ele>271.7</ele>
        <time>2021-07-28T08:30:15Z</time>
      </trkpt>
      <trkpt lat="49.3543" lon="5.98394">
        <ele>271.8</ele>
        <time>2021-07-28T08:30:16Z</time>
      </trkpt>
      <trkpt lat="49.35429" lon="5.98395">
        <ele>271.8</ele>
        <time>2021-07-28T08:30:17Z</time>
      </trkpt>
      <trkpt lat="49.35429" lon="5.98401">
        <ele>271.9</ele>
        <time>2021-07-28T08:30:18Z</time>
      </trkpt>
      <trkpt lat="49.3543" lon="5.98405">
        <ele>272</ele>
        <time>2021-07-28T08:30:20Z</time>
      </trkpt>
      <trkpt lat="49.3543" lon="5.98409">
        <ele>272.1</ele>
        <time>2021-07-28T08:30:21Z</time>
      </trkpt>
      <trkpt lat="49.3543" lon="5.98412">
        <ele>272.2</ele>
        <time>2021-07-28T08:30:22Z</time>
      </trkpt>
      <trkpt lat="49.35429" lon="5.98416">
        <ele>272.3</ele>
        <time>2021-07-28T08:30:24Z</time>
      </trkpt>
      <trkpt lat="49.35429" lon="5.9842">
        <ele>272.4</ele>
        <time>2021-07-28T08:30:26Z</time>
      </trkpt>
      <trkpt lat="49.35429" lon="5.98422">
        <ele>272.5</ele>
        <time>2021-07-28T08:30:27Z</time>
      </trkpt>
      <trkpt lat="49.35429" lon="5.98424">
        <ele>272.5</ele>
        <time>2021-07-28T08:30:29Z</time>
      </trkpt>
      <trkpt lat="49.35429" lon="5.98425">
        <ele>272.6</ele>
        <time>2021-07-28T08:30:30Z</time>
      </trkpt>
      <trkpt lat="49.35429" lon="5.98427">
        <ele>272.6</ele>
        <time>2021-07-28T08:30:31Z</time>
      </trkpt>
      <trkpt lat="49.35429" lon="5.9843">
        <ele>272.7</ele>
        <time>2021-07-28T08:30:32Z</time>
      </trkpt>
      <trkpt lat="49.35428" lon="5.98432">
        <ele>272.7</ele>
        <time>2021-07-28T08:30:33Z</time>
      </trkpt>
      <trkpt lat="49.35429" lon="5.98433">
        <ele>272.8</ele>
        <time>2021-07-28T08:30:34Z</time>
      </trkpt>
      <trkpt lat="49.35429" lon="5.98436">
        <ele>272.9</ele>
        <time>2021-07-28T08:30:36Z</time>
      </trkpt>
      <trkpt lat="49.35428" lon="5.9844">
        <ele>273</ele>
        <time>2021-07-28T08:30:37Z</time>
      </trkpt>
      <trkpt lat="49.35428" lon="5.98442">
        <ele>273.1</ele>
        <time>2021-07-28T08:30:39Z</time>
      </trkpt>
      <trkpt lat="49.35428" lon="5.98447">
        <ele>273.2</ele>
        <time>2021-07-28T08:30:40Z</time>
      </trkpt>
      <trkpt lat="49.35427" lon="5.98449">
        <ele>273.3</ele>
        <time>2021-07-28T08:30:41Z</time>
      </trkpt>
      <trkpt lat="49.35427" lon="5.98454">
        <ele>273.5</ele>
        <time>2021-07-28T08:30:43Z</time>
      </trkpt>
      <trkpt lat="49.35427" lon="5.9846">
        <ele>273.6</ele>
        <time>2021-07-28T08:30:44Z</time>
      </trkpt>
      <trkpt lat="49.35427" lon="5.98462">
        <ele>273.7</ele>
        <time>2021-07-28T08:30:45Z</time>
      </trkpt>
      <trkpt lat="49.35427" lon="5.98466">
        <ele>273.8</ele>
        <time>2021-07-28T08:30:46Z</time>
      </trkpt>
      <trkpt lat="49.35427" lon="5.98468">
        <ele>273.9</ele>
        <time>2021-07-28T08:30:47Z</time>
      </trkpt>
      <trkpt lat="49.35426" lon="5.98474">
        <ele>274.1</ele>
        <time>2021-07-28T08:30:48Z</time>
      </trkpt>
      <trkpt lat="49.35425" lon="5.98476">
        <ele>274.2</ele>
        <time>2021-07-28T08:30:50Z</time>
      </trkpt>
      <trkpt lat="49.35425" lon="5.98479">
        <ele>274.2</ele>
        <time>2021-07-28T08:30:52Z</time>
      </trkpt>
      <trkpt lat="49.35425" lon="5.98481">
        <ele>274.3</ele>
        <time>2021-07-28T08:30:55Z</time>
      </trkpt>
      <trkpt lat="49.35424" lon="5.98483">
        <ele>274.4</ele>
        <time>2021-07-28T08:30:56Z</time>
      </trkpt>
      <trkpt lat="49.35424" lon="5.98486">
        <ele>274.5</ele>
        <time>2021-07-28T08:30:57Z</time>
      </trkpt>
      <trkpt lat="49.35424" lon="5.98489">
        <ele>274.6</ele>
        <time>2021-07-28T08:30:59Z</time>
      </trkpt>
      <trkpt lat="49.35425" lon="5.98491">
        <ele>274.6</ele>
        <time>2021-07-28T08:31:00Z</time>
      </trkpt>
      <trkpt lat="49.35425" lon="5.98492">
        <ele>274.7</ele>
        <time>2021-07-28T08:31:01Z</time>
      </trkpt>
      <trkpt lat="49.35425" lon="5.98493">
        <ele>274.7</ele>
        <time>2021-07-28T08:31:02Z</time>
      </trkpt>
      <trkpt lat="49.35425" lon="5.98494">
        <ele>274.7</ele>
        <time>2021-07-28T08:31:03Z</time>
      </trkpt>
      <trkpt lat="49.35426" lon="5.98496">
        <ele>274.8</ele>
        <time>2021-07-28T08:31:04Z</time>
      </trkpt>
      <trkpt lat="49.35426" lon="5.98499">
        <ele>274.9</ele>
        <time>2021-07-28T08:31:05Z</time>
      </trkpt>
      <trkpt lat="49.35426" lon="5.985">
        <ele>274.9</ele>
        <time>2021-07-28T08:31:06Z</time>
      </trkpt>
      <trkpt lat="49.35426" lon="5.98501">
        <ele>274.9</ele>
        <time>2021-07-28T08:31:07Z</time>
      </trkpt>
      <trkpt lat="49.35426" lon="5.98503">
        <ele>275</ele>
        <time>2021-07-28T08:31:08Z</time>
      </trkpt>
      <trkpt lat="49.35426" lon="5.98504">
        <ele>275</ele>
        <time>2021-07-28T08:31:09Z</time>
      </trkpt>
      <trkpt lat="49.35426" lon="5.98506">
        <ele>275.1</ele>
        <time>2021-07-28T08:31:11Z</time>
      </trkpt>
      <trkpt lat="49.35425" lon="5.9851">
        <ele>275.2</ele>
        <time>2021-07-28T08:31:12Z</time>
      </trkpt>
      <trkpt lat="49.35425" lon="5.98513">
        <ele>275.3</ele>
        <time>2021-07-28T08:31:14Z</time>
      </trkpt>
      <trkpt lat="49.35425" lon="5.98558">
        <ele>276.1</ele>
        <time>2021-07-28T08:31:32Z</time>
      </trkpt>
      <trkpt lat="49.35427" lon="5.98565">
        <ele>276.2</ele>
        <time>2021-07-28T08:31:33Z</time>
      </trkpt>
      <trkpt lat="49.35429" lon="5.98572">
        <ele>276.3</ele>
        <time>2021-07-28T08:31:35Z</time>
      </trkpt>
      <trkpt lat="49.35431" lon="5.98579">
        <ele>276.3</ele>
        <time>2021-07-28T08:31:36Z</time>
      </trkpt>
      <trkpt lat="49.35429" lon="5.98582">
        <ele>276.3</ele>
        <time>2021-07-28T08:31:38Z</time>
      </trkpt>
      <trkpt lat="49.35428" lon="5.98583">
        <ele>276.2</ele>
        <time>2021-07-28T08:31:39Z</time>
      </trkpt>
      <trkpt lat="49.35426" lon="5.98586">
        <ele>276.2</ele>
        <time>2021-07-28T08:31:41Z</time>
      </trkpt>
      <trkpt lat="49.35425" lon="5.98591">
        <ele>276.1</ele>
        <time>2021-07-28T08:31:43Z</time>
      </trkpt>
      <trkpt lat="49.35423" lon="5.98595">
        <ele>276.1</ele>
        <time>2021-07-28T08:31:45Z</time>
      </trkpt>
      <trkpt lat="49.35423" lon="5.98597">
        <ele>276</ele>
        <time>2021-07-28T08:31:46Z</time>
      </trkpt>
      <trkpt lat="49.35423" lon="5.986">
        <ele>276</ele>
        <time>2021-07-28T08:31:48Z</time>
      </trkpt>
      <trkpt lat="49.35423" lon="5.98601">
        <ele>275.9</ele>
        <time>2021-07-28T08:31:49Z</time>
      </trkpt>
      <trkpt lat="49.35422" lon="5.98604">
        <ele>275.9</ele>
        <time>2021-07-28T08:31:50Z</time>
      </trkpt>
      <trkpt lat="49.35422" lon="5.98607">
        <ele>275.8</ele>
        <time>2021-07-28T08:31:51Z</time>
      </trkpt>
      <trkpt lat="49.35423" lon="5.98612">
        <ele>275.7</ele>
        <time>2021-07-28T08:31:53Z</time>
      </trkpt>
      <trkpt lat="49.35425" lon="5.98617">
        <ele>275.6</ele>
        <time>2021-07-28T08:31:55Z</time>
      </trkpt>
      <trkpt lat="49.35426" lon="5.98622">
        <ele>275.5</ele>
        <time>2021-07-28T08:31:56Z</time>
      </trkpt>
      <trkpt lat="49.35427" lon="5.98624">
        <ele>275.5</ele>
        <time>2021-07-28T08:31:57Z</time>
      </trkpt>
      <trkpt lat="49.35428" lon="5.9863">
        <ele>275.4</ele>
        <time>2021-07-28T08:31:59Z</time>
      </trkpt>
      <trkpt lat="49.35428" lon="5.98635">
        <ele>275.3</ele>
        <time>2021-07-28T08:32:01Z</time>
      </trkpt>
      <trkpt lat="49.35427" lon="5.98643">
        <ele>275.2</ele>
        <time>2021-07-28T08:32:03Z</time>
      </trkpt>
      <trkpt lat="49.35425" lon="5.98654">
        <ele>275</ele>
        <time>2021-07-28T08:32:05Z</time>
      </trkpt>
      <trkpt lat="49.35424" lon="5.98664">
        <ele>274.9</ele>
        <time>2021-07-28T08:32:07Z</time>
      </trkpt>
      <trkpt lat="49.35423" lon="5.9867">
        <ele>274.8</ele>
        <time>2021-07-28T08:32:08Z</time>
      </trkpt>
      <trkpt lat="49.35423" lon="5.98672">
        <ele>274.8</ele>
        <time>2021-07-28T08:32:09Z</time>
      </trkpt>
      <trkpt lat="49.35421" lon="5.98678">
        <ele>274.7</ele>
        <time>2021-07-28T08:32:11Z</time>
      </trkpt>
      <trkpt lat="49.3542" lon="5.98682">
        <ele>274.7</ele>
        <time>2021-07-28T08:32:12Z</time>
      </trkpt>
      <trkpt lat="49.35417" lon="5.98689">
        <ele>275</ele>
        <time>2021-07-28T08:32:14Z</time>
      </trkpt>
      <trkpt lat="49.35415" lon="5.98696">
        <ele>275.4</ele>
        <time>2021-07-28T08:32:16Z</time>
      </trkpt>
      <trkpt lat="49.35415" lon="5.98699">
        <ele>275.6</ele>
        <time>2021-07-28T08:32:17Z</time>
      </trkpt>
      <trkpt lat="49.35413" lon="5.98706">
        <ele>275.9</ele>
        <time>2021-07-28T08:32:19Z</time>
      </trkpt>
      <trkpt lat="49.35411" lon="5.98712">
        <ele>276.3</ele>
        <time>2021-07-28T08:32:21Z</time>
      </trkpt>
      <trkpt lat="49.35409" lon="5.98718">
        <ele>276.7</ele>
        <time>2021-07-28T08:32:23Z</time>
      </trkpt>
      <trkpt lat="49.35407" lon="5.9872">
        <ele>276.9</ele>
        <time>2021-07-28T08:32:24Z</time>
      </trkpt>
      <trkpt lat="49.35403" lon="5.98725">
        <ele>277.3</ele>
        <time>2021-07-28T08:32:26Z</time>
      </trkpt>
      <trkpt lat="49.35401" lon="5.9873">
        <ele>277.7</ele>
        <time>2021-07-28T08:32:28Z</time>
      </trkpt>
      <trkpt lat="49.354" lon="5.98734">
        <ele>278</ele>
        <time>2021-07-28T08:32:29Z</time>
      </trkpt>
      <trkpt lat="49.35399" lon="5.98735">
        <ele>278.1</ele>
        <time>2021-07-28T08:32:30Z</time>
      </trkpt>
      <trkpt lat="49.35399" lon="5.98737">
        <ele>278.3</ele>
        <time>2021-07-28T08:32:31Z</time>
      </trkpt>
      <trkpt lat="49.35397" lon="5.98742">
        <ele>278.7</ele>
        <time>2021-07-28T08:32:33Z</time>
      </trkpt>
      <trkpt lat="49.35395" lon="5.98746">
        <ele>279</ele>
        <time>2021-07-28T08:32:34Z</time>
      </trkpt>
      <trkpt lat="49.35395" lon="5.98747">
        <ele>279.1</ele>
        <time>2021-07-28T08:32:35Z</time>
      </trkpt>
      <trkpt lat="49.35393" lon="5.98747">
        <ele>279.3</ele>
        <time>2021-07-28T08:32:36Z</time>
      </trkpt>
      <trkpt lat="49.3539" lon="5.98751">
        <ele>279.7</ele>
        <time>2021-07-28T08:32:38Z</time>
      </trkpt>
      <trkpt lat="49.35389" lon="5.98753">
        <ele>279.9</ele>
        <time>2021-07-28T08:32:39Z</time>
      </trkpt>
      <trkpt lat="49.35389" lon="5.98756">
        <ele>280.1</ele>
        <time>2021-07-28T08:32:40Z</time>
      </trkpt>
      <trkpt lat="49.35389" lon="5.98761">
        <ele>280.5</ele>
        <time>2021-07-28T08:32:41Z</time>
      </trkpt>
      <trkpt lat="49.35389" lon="5.98763">
        <ele>280.6</ele>
        <time>2021-07-28T08:32:42Z</time>
      </trkpt>
      <trkpt lat="49.35388" lon="5.98771">
        <ele>281.2</ele>
        <time>2021-07-28T08:32:44Z</time>
      </trkpt>
      <trkpt lat="49.35384" lon="5.98779">
        <ele>281.9</ele>
        <time>2021-07-28T08:32:46Z</time>
      </trkpt>
      <trkpt lat="49.35382" lon="5.98781">
        <ele>282.2</ele>
        <time>2021-07-28T08:32:47Z</time>
      </trkpt>
      <trkpt lat="49.35379" lon="5.98783">
        <ele>282.6</ele>
        <time>2021-07-28T08:32:48Z</time>
      </trkpt>
      <trkpt lat="49.35374" lon="5.98785">
        <ele>283.2</ele>
        <time>2021-07-28T08:32:50Z</time>
      </trkpt>
      <trkpt lat="49.35369" lon="5.98789">
        <ele>284.1</ele>
        <time>2021-07-28T08:32:52Z</time>
      </trkpt>
      <trkpt lat="49.35367" lon="5.98792">
        <ele>284.4</ele>
        <time>2021-07-28T08:32:54Z</time>
      </trkpt>
      <trkpt lat="49.35364" lon="5.98795">
        <ele>284.6</ele>
        <time>2021-07-28T08:32:56Z</time>
      </trkpt>
      <trkpt lat="49.35361" lon="5.98797">
        <ele>284.9</ele>
        <time>2021-07-28T08:32:58Z</time>
      </trkpt>
      <trkpt lat="49.3536" lon="5.988">
        <ele>285</ele>
        <time>2021-07-28T08:32:59Z</time>
      </trkpt>
      <trkpt lat="49.35359" lon="5.98801">
        <ele>285.1</ele>
        <time>2021-07-28T08:33:00Z</time>
      </trkpt>
      <trkpt lat="49.35356" lon="5.98805">
        <ele>285.3</ele>
        <time>2021-07-28T08:33:02Z</time>
      </trkpt>
      <trkpt lat="49.35353" lon="5.98807">
        <ele>285.5</ele>
        <time>2021-07-28T08:33:04Z</time>
      </trkpt>
      <trkpt lat="49.35352" lon="5.98808">
        <ele>285.6</ele>
        <time>2021-07-28T08:33:05Z</time>
      </trkpt>
      <trkpt lat="49.35349" lon="5.98811">
        <ele>285.8</ele>
        <time>2021-07-28T08:33:07Z</time>
      </trkpt>
      <trkpt lat="49.35347" lon="5.98812">
        <ele>286</ele>
        <time>2021-07-28T08:33:08Z</time>
      </trkpt>
      <trkpt lat="49.35343" lon="5.98815">
        <ele>286.2</ele>
        <time>2021-07-28T08:33:10Z</time>
      </trkpt>
      <trkpt lat="49.35339" lon="5.98817">
        <ele>286.4</ele>
        <time>2021-07-28T08:33:11Z</time>
      </trkpt>
      <trkpt lat="49.35338" lon="5.98818">
        <ele>286.5</ele>
        <time>2021-07-28T08:33:12Z</time>
      </trkpt>
      <trkpt lat="49.35337" lon="5.98822">
        <ele>286.7</ele>
        <time>2021-07-28T08:33:13Z</time>
      </trkpt>
      <trkpt lat="49.35337" lon="5.98824">
        <ele>286.7</ele>
        <time>2021-07-28T08:33:14Z</time>
      </trkpt>
      <trkpt lat="49.35335" lon="5.98827">
        <ele>286.9</ele>
        <time>2021-07-28T08:33:16Z</time>
      </trkpt>
      <trkpt lat="49.35332" lon="5.98832">
        <ele>287.1</ele>
        <time>2021-07-28T08:33:18Z</time>
      </trkpt>
      <trkpt lat="49.35329" lon="5.98836">
        <ele>287.3</ele>
        <time>2021-07-28T08:33:19Z</time>
      </trkpt>
      <trkpt lat="49.35328" lon="5.9884">
        <ele>287.5</ele>
        <time>2021-07-28T08:33:21Z</time>
      </trkpt>
      <trkpt lat="49.35326" lon="5.98845">
        <ele>287.7</ele>
        <time>2021-07-28T08:33:22Z</time>
      </trkpt>
      <trkpt lat="49.35325" lon="5.98848">
        <ele>287.8</ele>
        <time>2021-07-28T08:33:23Z</time>
      </trkpt>
      <trkpt lat="49.35323" lon="5.98852">
        <ele>288</ele>
        <time>2021-07-28T08:33:25Z</time>
      </trkpt>
      <trkpt lat="49.35321" lon="5.98856">
        <ele>288.1</ele>
        <time>2021-07-28T08:33:26Z</time>
      </trkpt>
      <trkpt lat="49.35319" lon="5.9886">
        <ele>288.3</ele>
        <time>2021-07-28T08:33:27Z</time>
      </trkpt>
      <trkpt lat="49.35318" lon="5.98862">
        <ele>288.4</ele>
        <time>2021-07-28T08:33:28Z</time>
      </trkpt>
      <trkpt lat="49.35316" lon="5.98865">
        <ele>288.5</ele>
        <time>2021-07-28T08:33:30Z</time>
      </trkpt>
      <trkpt lat="49.35315" lon="5.98866">
        <ele>288.6</ele>
        <time>2021-07-28T08:33:31Z</time>
      </trkpt>
      <trkpt lat="49.35314" lon="5.98867">
        <ele>288.6</ele>
        <time>2021-07-28T08:33:32Z</time>
      </trkpt>
      <trkpt lat="49.35312" lon="5.98869">
        <ele>288.7</ele>
        <time>2021-07-28T08:33:34Z</time>
      </trkpt>
      <trkpt lat="49.35311" lon="5.98871">
        <ele>288.8</ele>
        <time>2021-07-28T08:33:35Z</time>
      </trkpt>
      <trkpt lat="49.3531" lon="5.98875">
        <ele>288.9</ele>
        <time>2021-07-28T08:33:37Z</time>
      </trkpt>
      <trkpt lat="49.35309" lon="5.98878">
        <ele>289</ele>
        <time>2021-07-28T08:33:38Z</time>
      </trkpt>
      <trkpt lat="49.35307" lon="5.9888">
        <ele>289.1</ele>
        <time>2021-07-28T08:33:39Z</time>
      </trkpt>
      <trkpt lat="49.35303" lon="5.98885">
        <ele>289.3</ele>
        <time>2021-07-28T08:33:41Z</time>
      </trkpt>
      <trkpt lat="49.35302" lon="5.98887">
        <ele>289.4</ele>
        <time>2021-07-28T08:33:42Z</time>
      </trkpt>
      <trkpt lat="49.353" lon="5.98888">
        <ele>289.5</ele>
        <time>2021-07-28T08:33:43Z</time>
      </trkpt>
      <trkpt lat="49.35296" lon="5.98892">
        <ele>289.6</ele>
        <time>2021-07-28T08:33:45Z</time>
      </trkpt>
      <trkpt lat="49.35293" lon="5.98895">
        <ele>289.8</ele>
        <time>2021-07-28T08:33:46Z</time>
      </trkpt>
      <trkpt lat="49.35292" lon="5.98897">
        <ele>289.8</ele>
        <time>2021-07-28T08:33:47Z</time>
      </trkpt>
      <trkpt lat="49.35291" lon="5.98899">
        <ele>289.9</ele>
        <time>2021-07-28T08:33:48Z</time>
      </trkpt>
      <trkpt lat="49.3529" lon="5.98902">
        <ele>290</ele>
        <time>2021-07-28T08:33:50Z</time>
      </trkpt>
      <trkpt lat="49.35287" lon="5.98906">
        <ele>290.1</ele>
        <time>2021-07-28T08:33:51Z</time>
      </trkpt>
      <trkpt lat="49.35285" lon="5.98909">
        <ele>290.2</ele>
        <time>2021-07-28T08:33:52Z</time>
      </trkpt>
      <trkpt lat="49.35281" lon="5.98912">
        <ele>290.3</ele>
        <time>2021-07-28T08:33:54Z</time>
      </trkpt>
      <trkpt lat="49.35278" lon="5.98914">
        <ele>290.4</ele>
        <time>2021-07-28T08:33:55Z</time>
      </trkpt>
      <trkpt lat="49.35275" lon="5.98916">
        <ele>290.5</ele>
        <time>2021-07-28T08:33:56Z</time>
      </trkpt>
      <trkpt lat="49.3527" lon="5.98918">
        <ele>290.6</ele>
        <time>2021-07-28T08:33:58Z</time>
      </trkpt>
      <trkpt lat="49.35267" lon="5.98918">
        <ele>290.7</ele>
        <time>2021-07-28T08:33:59Z</time>
      </trkpt>
      <trkpt lat="49.35264" lon="5.9892">
        <ele>290.8</ele>
        <time>2021-07-28T08:34:00Z</time>
      </trkpt>
      <trkpt lat="49.35259" lon="5.98923">
        <ele>290.9</ele>
        <time>2021-07-28T08:34:02Z</time>
      </trkpt>
      <trkpt lat="49.35257" lon="5.98925">
        <ele>291</ele>
        <time>2021-07-28T08:34:03Z</time>
      </trkpt>
      <trkpt lat="49.35254" lon="5.98929">
        <ele>291</ele>
        <time>2021-07-28T08:34:04Z</time>
      </trkpt>
      <trkpt lat="49.35254" lon="5.9893">
        <ele>291</ele>
        <time>2021-07-28T08:34:05Z</time>
      </trkpt>
      <trkpt lat="49.35252" lon="5.98935">
        <ele>291.1</ele>
        <time>2021-07-28T08:34:06Z</time>
      </trkpt>
      <trkpt lat="49.35251" lon="5.98939">
        <ele>291.2</ele>
        <time>2021-07-28T08:34:08Z</time>
      </trkpt>
      <trkpt lat="49.3525" lon="5.9894">
        <ele>291.2</ele>
        <time>2021-07-28T08:34:09Z</time>
      </trkpt>
      <trkpt lat="49.35247" lon="5.98943">
        <ele>291.2</ele>
        <time>2021-07-28T08:34:10Z</time>
      </trkpt>
      <trkpt lat="49.35246" lon="5.98944">
        <ele>291.3</ele>
        <time>2021-07-28T08:34:11Z</time>
      </trkpt>
      <trkpt lat="49.35244" lon="5.98946">
        <ele>291.3</ele>
        <time>2021-07-28T08:34:13Z</time>
      </trkpt>
      <trkpt lat="49.35242" lon="5.98949">
        <ele>291.3</ele>
        <time>2021-07-28T08:34:14Z</time>
      </trkpt>
      <trkpt lat="49.35242" lon="5.98951">
        <ele>291.3</ele>
        <time>2021-07-28T08:34:15Z</time>
      </trkpt>
      <trkpt lat="49.35239" lon="5.98957">
        <ele>291.4</ele>
        <time>2021-07-28T08:34:17Z</time>
      </trkpt>
      <trkpt lat="49.35238" lon="5.98961">
        <ele>291.4</ele>
        <time>2021-07-28T08:34:18Z</time>
      </trkpt>
      <trkpt lat="49.35237" lon="5.98968">
        <ele>291.5</ele>
        <time>2021-07-28T08:34:20Z</time>
      </trkpt>
      <trkpt lat="49.35234" lon="5.98974">
        <ele>291.6</ele>
        <time>2021-07-28T08:34:21Z</time>
      </trkpt>
      <trkpt lat="49.35232" lon="5.98976">
        <ele>291.6</ele>
        <time>2021-07-28T08:34:23Z</time>
      </trkpt>
      <trkpt lat="49.35229" lon="5.98981">
        <ele>291.6</ele>
        <time>2021-07-28T08:34:25Z</time>
      </trkpt>
      <trkpt lat="49.35222" lon="5.98987">
        <ele>291.7</ele>
        <time>2021-07-28T08:34:27Z</time>
      </trkpt>
      <trkpt lat="49.3522" lon="5.9899">
        <ele>291.7</ele>
        <time>2021-07-28T08:34:28Z</time>
      </trkpt>
      <trkpt lat="49.35215" lon="5.98995">
        <ele>291.8</ele>
        <time>2021-07-28T08:34:30Z</time>
      </trkpt>
      <trkpt lat="49.35211" lon="5.98998">
        <ele>291.9</ele>
        <time>2021-07-28T08:34:31Z</time>
      </trkpt>
      <trkpt lat="49.35208" lon="5.99001">
        <ele>291.9</ele>
        <time>2021-07-28T08:34:33Z</time>
      </trkpt>
      <trkpt lat="49.35207" lon="5.99003">
        <ele>291.9</ele>
        <time>2021-07-28T08:34:34Z</time>
      </trkpt>
      <trkpt lat="49.35204" lon="5.99008">
        <ele>292</ele>
        <time>2021-07-28T08:34:35Z</time>
      </trkpt>
      <trkpt lat="49.35203" lon="5.99009">
        <ele>292</ele>
        <time>2021-07-28T08:34:36Z</time>
      </trkpt>
      <trkpt lat="49.35198" lon="5.99014">
        <ele>292.1</ele>
        <time>2021-07-28T08:34:38Z</time>
      </trkpt>
      <trkpt lat="49.35197" lon="5.99022">
        <ele>292.5</ele>
        <time>2021-07-28T08:34:40Z</time>
      </trkpt>
      <trkpt lat="49.35197" lon="5.99026">
        <ele>292.5</ele>
        <time>2021-07-28T08:34:41Z</time>
      </trkpt>
      <trkpt lat="49.35197" lon="5.99028">
        <ele>292.5</ele>
        <time>2021-07-28T08:34:42Z</time>
      </trkpt>
      <trkpt lat="49.35199" lon="5.99033">
        <ele>292.5</ele>
        <time>2021-07-28T08:34:44Z</time>
      </trkpt>
      <trkpt lat="49.352" lon="5.99039">
        <ele>292.6</ele>
        <time>2021-07-28T08:34:45Z</time>
      </trkpt>
      <trkpt lat="49.352" lon="5.99043">
        <ele>292.5</ele>
        <time>2021-07-28T08:34:46Z</time>
      </trkpt>
      <trkpt lat="49.35201" lon="5.99049">
        <ele>292.5</ele>
        <time>2021-07-28T08:34:48Z</time>
      </trkpt>
      <trkpt lat="49.35203" lon="5.99054">
        <ele>292.5</ele>
        <time>2021-07-28T08:34:49Z</time>
      </trkpt>
      <trkpt lat="49.35205" lon="5.99059">
        <ele>292.4</ele>
        <time>2021-07-28T08:34:50Z</time>
      </trkpt>
      <trkpt lat="49.35208" lon="5.99065">
        <ele>292.4</ele>
        <time>2021-07-28T08:34:51Z</time>
      </trkpt>
      <trkpt lat="49.35212" lon="5.99072">
        <ele>292.2</ele>
        <time>2021-07-28T08:34:52Z</time>
      </trkpt>
      <trkpt lat="49.35216" lon="5.99075">
        <ele>292.1</ele>
        <time>2021-07-28T08:34:54Z</time>
      </trkpt>
      <trkpt lat="49.3522" lon="5.99079">
        <ele>291.9</ele>
        <time>2021-07-28T08:34:55Z</time>
      </trkpt>
      <trkpt lat="49.35226" lon="5.99085">
        <ele>291.6</ele>
        <time>2021-07-28T08:34:57Z</time>
      </trkpt>
      <trkpt lat="49.35229" lon="5.9909">
        <ele>291.4</ele>
        <time>2021-07-28T08:34:58Z</time>
      </trkpt>
      <trkpt lat="49.35234" lon="5.99099">
        <ele>291</ele>
        <time>2021-07-28T08:34:59Z</time>
      </trkpt>
      <trkpt lat="49.35237" lon="5.99104">
        <ele>290.8</ele>
        <time>2021-07-28T08:35:01Z</time>
      </trkpt>
      <trkpt lat="49.3524" lon="5.99107">
        <ele>290.6</ele>
        <time>2021-07-28T08:35:02Z</time>
      </trkpt>
      <trkpt lat="49.35246" lon="5.99116">
        <ele>290.1</ele>
        <time>2021-07-28T08:35:04Z</time>
      </trkpt>
      <trkpt lat="49.3525" lon="5.99126">
        <ele>289.6</ele>
        <time>2021-07-28T08:35:05Z</time>
      </trkpt>
      <trkpt lat="49.35256" lon="5.99141">
        <ele>288.9</ele>
        <time>2021-07-28T08:35:07Z</time>
      </trkpt>
      <trkpt lat="49.3526" lon="5.9915">
        <ele>288.4</ele>
        <time>2021-07-28T08:35:08Z</time>
      </trkpt>
      <trkpt lat="49.35269" lon="5.99167">
        <ele>287.6</ele>
        <time>2021-07-28T08:35:10Z</time>
      </trkpt>
      <trkpt lat="49.35275" lon="5.99183">
        <ele>286.8</ele>
        <time>2021-07-28T08:35:12Z</time>
      </trkpt>
      <trkpt lat="49.35281" lon="5.99201">
        <ele>286.1</ele>
        <time>2021-07-28T08:35:14Z</time>
      </trkpt>
      <trkpt lat="49.35288" lon="5.99221">
        <ele>285.4</ele>
        <time>2021-07-28T08:35:16Z</time>
      </trkpt>
      <trkpt lat="49.35296" lon="5.9924">
        <ele>284.8</ele>
        <time>2021-07-28T08:35:18Z</time>
      </trkpt>
      <trkpt lat="49.35302" lon="5.99249">
        <ele>284.5</ele>
        <time>2021-07-28T08:35:19Z</time>
      </trkpt>
      <trkpt lat="49.35308" lon="5.99259">
        <ele>284.2</ele>
        <time>2021-07-28T08:35:20Z</time>
      </trkpt>
      <trkpt lat="49.35319" lon="5.99274">
        <ele>283.9</ele>
        <time>2021-07-28T08:35:22Z</time>
      </trkpt>
      <trkpt lat="49.35326" lon="5.99287">
        <ele>283.8</ele>
        <time>2021-07-28T08:35:24Z</time>
      </trkpt>
      <trkpt lat="49.3533" lon="5.99294">
        <ele>283.7</ele>
        <time>2021-07-28T08:35:25Z</time>
      </trkpt>
      <trkpt lat="49.35332" lon="5.99302">
        <ele>283.9</ele>
        <time>2021-07-28T08:35:26Z</time>
      </trkpt>
      <trkpt lat="49.35336" lon="5.99319">
        <ele>286.6</ele>
        <time>2021-07-28T08:35:28Z</time>
      </trkpt>
      <trkpt lat="49.35337" lon="5.99327">
        <ele>286.6</ele>
        <time>2021-07-28T08:35:29Z</time>
      </trkpt>
      <trkpt lat="49.35338" lon="5.99333">
        <ele>286.6</ele>
        <time>2021-07-28T08:35:30Z</time>
      </trkpt>
      <trkpt lat="49.35337" lon="5.99337">
        <ele>286.6</ele>
        <time>2021-07-28T08:35:31Z</time>
      </trkpt>
      <trkpt lat="49.35338" lon="5.99345">
        <ele>286.6</ele>
        <time>2021-07-28T08:35:33Z</time>
      </trkpt>
      <trkpt lat="49.35338" lon="5.99348">
        <ele>286.6</ele>
        <time>2021-07-28T08:35:34Z</time>
      </trkpt>
      <trkpt lat="49.3534" lon="5.99354">
        <ele>286.6</ele>
        <time>2021-07-28T08:35:36Z</time>
      </trkpt>
      <trkpt lat="49.35342" lon="5.99358">
        <ele>286.6</ele>
        <time>2021-07-28T08:35:37Z</time>
      </trkpt>
      <trkpt lat="49.35343" lon="5.9936">
        <ele>286.6</ele>
        <time>2021-07-28T08:35:39Z</time>
      </trkpt>
      <trkpt lat="49.35344" lon="5.99364">
        <ele>286.6</ele>
        <time>2021-07-28T08:35:40Z</time>
      </trkpt>
      <trkpt lat="49.35347" lon="5.99372">
        <ele>286.5</ele>
        <time>2021-07-28T08:35:41Z</time>
      </trkpt>
      <trkpt lat="49.3535" lon="5.99384">
        <ele>286.5</ele>
        <time>2021-07-28T08:35:43Z</time>
      </trkpt>
      <trkpt lat="49.3535" lon="5.9939">
        <ele>286.5</ele>
        <time>2021-07-28T08:35:44Z</time>
      </trkpt>
      <trkpt lat="49.35349" lon="5.99394">
        <ele>286.4</ele>
        <time>2021-07-28T08:35:45Z</time>
      </trkpt>
      <trkpt lat="49.35352" lon="5.99398">
        <ele>286.4</ele>
        <time>2021-07-28T08:35:46Z</time>
      </trkpt>
      <trkpt lat="49.35359" lon="5.99408">
        <ele>286.4</ele>
        <time>2021-07-28T08:35:48Z</time>
      </trkpt>
      <trkpt lat="49.35366" lon="5.99417">
        <ele>286.4</ele>
        <time>2021-07-28T08:35:50Z</time>
      </trkpt>
      <trkpt lat="49.35369" lon="5.9942">
        <ele>286.5</ele>
        <time>2021-07-28T08:35:51Z</time>
      </trkpt>
      <trkpt lat="49.35373" lon="5.99427">
        <ele>286.5</ele>
        <time>2021-07-28T08:35:53Z</time>
      </trkpt>
      <trkpt lat="49.35375" lon="5.99437">
        <ele>286.6</ele>
        <time>2021-07-28T08:35:54Z</time>
      </trkpt>
      <trkpt lat="49.35378" lon="5.99445">
        <ele>286.6</ele>
        <time>2021-07-28T08:35:55Z</time>
      </trkpt>
      <trkpt lat="49.3538" lon="5.9945">
        <ele>286.7</ele>
        <time>2021-07-28T08:35:56Z</time>
      </trkpt>
      <trkpt lat="49.35383" lon="5.99457">
        <ele>286.7</ele>
        <time>2021-07-28T08:35:58Z</time>
      </trkpt>
      <trkpt lat="49.35387" lon="5.99465">
        <ele>286.8</ele>
        <time>2021-07-28T08:36:00Z</time>
      </trkpt>
      <trkpt lat="49.35389" lon="5.99474">
        <ele>286.8</ele>
        <time>2021-07-28T08:36:01Z</time>
      </trkpt>
      <trkpt lat="49.35392" lon="5.99485">
        <ele>286.9</ele>
        <time>2021-07-28T08:36:02Z</time>
      </trkpt>
      <trkpt lat="49.35394" lon="5.99491">
        <ele>287</ele>
        <time>2021-07-28T08:36:03Z</time>
      </trkpt>
      <trkpt lat="49.35397" lon="5.99497">
        <ele>287</ele>
        <time>2021-07-28T08:36:05Z</time>
      </trkpt>
      <trkpt lat="49.35399" lon="5.99502">
        <ele>287.1</ele>
        <time>2021-07-28T08:36:06Z</time>
      </trkpt>
      <trkpt lat="49.35401" lon="5.99508">
        <ele>287.1</ele>
        <time>2021-07-28T08:36:07Z</time>
      </trkpt>
      <trkpt lat="49.35403" lon="5.99514">
        <ele>287.3</ele>
        <time>2021-07-28T08:36:09Z</time>
      </trkpt>
      <trkpt lat="49.35407" lon="5.9952">
        <ele>287.5</ele>
        <time>2021-07-28T08:36:10Z</time>
      </trkpt>
      <trkpt lat="49.35407" lon="5.99526">
        <ele>287.7</ele>
        <time>2021-07-28T08:36:12Z</time>
      </trkpt>
      <trkpt lat="49.35408" lon="5.99533">
        <ele>287.9</ele>
        <time>2021-07-28T08:36:14Z</time>
      </trkpt>
      <trkpt lat="49.35411" lon="5.9954">
        <ele>288</ele>
        <time>2021-07-28T08:36:16Z</time>
      </trkpt>
      <trkpt lat="49.35409" lon="5.99546">
        <ele>288</ele>
        <time>2021-07-28T08:36:17Z</time>
      </trkpt>
      <trkpt lat="49.35408" lon="5.99548">
        <ele>288</ele>
        <time>2021-07-28T08:36:18Z</time>
      </trkpt>
      <trkpt lat="49.35407" lon="5.99557">
        <ele>288</ele>
        <time>2021-07-28T08:36:19Z</time>
      </trkpt>
      <trkpt lat="49.35406" lon="5.99562">
        <ele>288</ele>
        <time>2021-07-28T08:36:21Z</time>
      </trkpt>
      <trkpt lat="49.35406" lon="5.9957">
        <ele>288.1</ele>
        <time>2021-07-28T08:36:23Z</time>
      </trkpt>
      <trkpt lat="49.35404" lon="5.99573">
        <ele>288.1</ele>
        <time>2021-07-28T08:36:24Z</time>
      </trkpt>
      <trkpt lat="49.35403" lon="5.99578">
        <ele>288.2</ele>
        <time>2021-07-28T08:36:26Z</time>
      </trkpt>
      <trkpt lat="49.35403" lon="5.99579">
        <ele>288.2</ele>
        <time>2021-07-28T08:36:27Z</time>
      </trkpt>
      <trkpt lat="49.35404" lon="5.99581">
        <ele>288.2</ele>
        <time>2021-07-28T08:36:28Z</time>
      </trkpt>
      <trkpt lat="49.35404" lon="5.99582">
        <ele>288.3</ele>
        <time>2021-07-28T08:36:31Z</time>
      </trkpt>
      <trkpt lat="49.35404" lon="5.99584">
        <ele>288.3</ele>
        <time>2021-07-28T08:36:32Z</time>
      </trkpt>
      <trkpt lat="49.35404" lon="5.99585">
        <ele>288.3</ele>
        <time>2021-07-28T08:36:33Z</time>
      </trkpt>
      <trkpt lat="49.35403" lon="5.99587">
        <ele>288.3</ele>
        <time>2021-07-28T08:36:35Z</time>
      </trkpt>
      <trkpt lat="49.35403" lon="5.99589">
        <ele>287.2</ele>
        <time>2021-07-28T08:36:36Z</time>
      </trkpt>
      <trkpt lat="49.35404" lon="5.99591">
        <ele>286.3</ele>
        <time>2021-07-28T08:36:38Z</time>
      </trkpt>
      <trkpt lat="49.35361" lon="5.99674">
        <ele>280.3</ele>
        <time>2021-07-28T08:38:34Z</time>
      </trkpt>
      <trkpt lat="49.35357" lon="5.99676">
        <ele>280</ele>
        <time>2021-07-28T08:38:35Z</time>
      </trkpt>
      <trkpt lat="49.35351" lon="5.99678">
        <ele>279.2</ele>
        <time>2021-07-28T08:38:36Z</time>
      </trkpt>
      <trkpt lat="49.35347" lon="5.99681">
        <ele>279.2</ele>
        <time>2021-07-28T08:38:37Z</time>
      </trkpt>
      <trkpt lat="49.35342" lon="5.99683">
        <ele>277.9</ele>
        <time>2021-07-28T08:38:39Z</time>
      </trkpt>
      <trkpt lat="49.35339" lon="5.99686">
        <ele>277.9</ele>
        <time>2021-07-28T08:38:40Z</time>
      </trkpt>
      <trkpt lat="49.35334" lon="5.99689">
        <ele>276.7</ele>
        <time>2021-07-28T08:38:41Z</time>
      </trkpt>
      <trkpt lat="49.35331" lon="5.99688">
        <ele>276.8</ele>
        <time>2021-07-28T08:38:42Z</time>
      </trkpt>
      <trkpt lat="49.35327" lon="5.99688">
        <ele>276.5</ele>
        <time>2021-07-28T08:38:43Z</time>
      </trkpt>
      <trkpt lat="49.35324" lon="5.99686">
        <ele>276.1</ele>
        <time>2021-07-28T08:38:45Z</time>
      </trkpt>
      <trkpt lat="49.35321" lon="5.99685">
        <ele>276.5</ele>
        <time>2021-07-28T08:38:46Z</time>
      </trkpt>
      <trkpt lat="49.35316" lon="5.99684">
        <ele>276.6</ele>
        <time>2021-07-28T08:38:48Z</time>
      </trkpt>
      <trkpt lat="49.35313" lon="5.99682">
        <ele>276.4</ele>
        <time>2021-07-28T08:38:50Z</time>
      </trkpt>
      <trkpt lat="49.35312" lon="5.99682">
        <ele>275.6</ele>
        <time>2021-07-28T08:38:51Z</time>
      </trkpt>
      <trkpt lat="49.35311" lon="5.99682">
        <ele>275.4</ele>
        <time>2021-07-28T08:38:52Z</time>
      </trkpt>
      <trkpt lat="49.35311" lon="5.99681">
        <ele>275.4</ele>
        <time>2021-07-28T08:38:54Z</time>
      </trkpt>
      <trkpt lat="49.35311" lon="5.99681">
        <ele>274.6</ele>
        <time>2021-07-28T08:38:55Z</time>
      </trkpt>
      <trkpt lat="49.3531" lon="5.9968">
        <ele>273.8</ele>
        <time>2021-07-28T08:38:57Z</time>
      </trkpt>
      <trkpt lat="49.35309" lon="5.9968">
        <ele>273</ele>
        <time>2021-07-28T08:38:58Z</time>
      </trkpt>
      <trkpt lat="49.35308" lon="5.99679">
        <ele>272.9</ele>
        <time>2021-07-28T08:39:00Z</time>
      </trkpt>
      <trkpt lat="49.35307" lon="5.99678">
        <ele>272.1</ele>
        <time>2021-07-28T08:39:02Z</time>
      </trkpt>
      <trkpt lat="49.35302" lon="5.99814">
        <ele>245.2</ele>
        <time>2021-07-28T08:39:57Z</time>
      </trkpt>
      <trkpt lat="49.35329" lon="5.99982">
        <ele>235.9</ele>
        <time>2021-07-28T08:40:03Z</time>
      </trkpt>
      <trkpt lat="49.35333" lon="6.00001">
        <ele>235.9</ele>
        <time>2021-07-28T08:40:09Z</time>
      </trkpt>
      <trkpt lat="49.34843" lon="6.00137">
        <ele>294.1</ele>
        <time>2021-07-28T08:44:43Z</time>
      </trkpt>
      <trkpt lat="49.34843" lon="6.00142">
        <ele>294.1</ele>
        <time>2021-07-28T08:44:44Z</time>
      </trkpt>
      <trkpt lat="49.34842" lon="6.00149">
        <ele>294.2</ele>
        <time>2021-07-28T08:44:46Z</time>
      </trkpt>
      <trkpt lat="49.34842" lon="6.00151">
        <ele>294.2</ele>
        <time>2021-07-28T08:44:47Z</time>
      </trkpt>
      <trkpt lat="49.34842" lon="6.00153">
        <ele>294.2</ele>
        <time>2021-07-28T08:44:48Z</time>
      </trkpt>
      <trkpt lat="49.34841" lon="6.00158">
        <ele>294.2</ele>
        <time>2021-07-28T08:44:49Z</time>
      </trkpt>
      <trkpt lat="49.34839" lon="6.00159">
        <ele>294.2</ele>
        <time>2021-07-28T08:44:51Z</time>
      </trkpt>
      <trkpt lat="49.34838" lon="6.00159">
        <ele>294.2</ele>
        <time>2021-07-28T08:44:52Z</time>
      </trkpt>
      <trkpt lat="49.34837" lon="6.0016">
        <ele>294.2</ele>
        <time>2021-07-28T08:44:53Z</time>
      </trkpt>
      <trkpt lat="49.34836" lon="6.00162">
        <ele>294.2</ele>
        <time>2021-07-28T08:44:55Z</time>
      </trkpt>
      <trkpt lat="49.34835" lon="6.00163">
        <ele>294.3</ele>
        <time>2021-07-28T08:44:56Z</time>
      </trkpt>
      <trkpt lat="49.34834" lon="6.00164">
        <ele>294.3</ele>
        <time>2021-07-28T08:44:57Z</time>
      </trkpt>
      <trkpt lat="49.34834" lon="6.00164">
        <ele>294.3</ele>
        <time>2021-07-28T08:44:58Z</time>
      </trkpt>
      <trkpt lat="49.34449" lon="6.00229">
        <ele>298.4</ele>
        <time>2021-07-28T08:48:32Z</time>
      </trkpt>
      <trkpt lat="49.34447" lon="6.00227">
        <ele>298.5</ele>
        <time>2021-07-28T08:48:33Z</time>
      </trkpt>
      <trkpt lat="49.34444" lon="6.00227">
        <ele>298.7</ele>
        <time>2021-07-28T08:48:35Z</time>
      </trkpt>
      <trkpt lat="49.34442" lon="6.00227">
        <ele>298.8</ele>
        <time>2021-07-28T08:48:37Z</time>
      </trkpt>
      <trkpt lat="49.34441" lon="6.00227">
        <ele>298.9</ele>
        <time>2021-07-28T08:48:38Z</time>
      </trkpt>
      <trkpt lat="49.34441" lon="6.00226">
        <ele>298.9</ele>
        <time>2021-07-28T08:48:40Z</time>
      </trkpt>
      <trkpt lat="49.3444" lon="6.00225">
        <ele>299</ele>
        <time>2021-07-28T08:48:42Z</time>
      </trkpt>
      <trkpt lat="49.3444" lon="6.00225">
        <ele>299</ele>
        <time>2021-07-28T08:48:43Z</time>
      </trkpt>
      <trkpt lat="49.34428" lon="6.00214">
        <ele>299.7</ele>
        <time>2021-07-28T08:48:54Z</time>
      </trkpt>
      <trkpt lat="49.34425" lon="6.00209">
        <ele>299.9</ele>
        <time>2021-07-28T08:48:55Z</time>
      </trkpt>
      <trkpt lat="49.34421" lon="6.00203">
        <ele>300</ele>
        <time>2021-07-28T08:48:56Z</time>
      </trkpt>
      <trkpt lat="49.34419" lon="6.00199">
        <ele>300.2</ele>
        <time>2021-07-28T08:48:57Z</time>
      </trkpt>
      <trkpt lat="49.34416" lon="6.00193">
        <ele>300.3</ele>
        <time>2021-07-28T08:48:58Z</time>
      </trkpt>
      <trkpt lat="49.34415" lon="6.00188">
        <ele>300.5</ele>
        <time>2021-07-28T08:48:59Z</time>
      </trkpt>
      <trkpt lat="49.34414" lon="6.00186">
        <ele>300.5</ele>
        <time>2021-07-28T08:49:01Z</time>
      </trkpt>
      <trkpt lat="49.34412" lon="6.00186">
        <ele>300.5</ele>
        <time>2021-07-28T08:49:02Z</time>
      </trkpt>
      <trkpt lat="49.34412" lon="6.00184">
        <ele>300.6</ele>
        <time>2021-07-28T08:49:04Z</time>
      </trkpt>
      <trkpt lat="49.34412" lon="6.00181">
        <ele>300.7</ele>
        <time>2021-07-28T08:49:05Z</time>
      </trkpt>
      <trkpt lat="49.34411" lon="6.00179">
        <ele>300.7</ele>
        <time>2021-07-28T08:49:07Z</time>
      </trkpt>
      <trkpt lat="49.3441" lon="6.00178">
        <ele>300.7</ele>
        <time>2021-07-28T08:49:08Z</time>
      </trkpt>
      <trkpt lat="49.34409" lon="6.00178">
        <ele>300.8</ele>
        <time>2021-07-28T08:49:10Z</time>
      </trkpt>
      <trkpt lat="49.34406" lon="5.99738">
        <ele>309.3</ele>
        <time>2021-07-28T08:52:05Z</time>
      </trkpt>
      <trkpt lat="49.34404" lon="5.99732">
        <ele>309.3</ele>
        <time>2021-07-28T08:52:06Z</time>
      </trkpt>
      <trkpt lat="49.34402" lon="5.99727">
        <ele>309.3</ele>
        <time>2021-07-28T08:52:07Z</time>
      </trkpt>
      <trkpt lat="49.34399" lon="5.99722">
        <ele>309.3</ele>
        <time>2021-07-28T08:52:09Z</time>
      </trkpt>
      <trkpt lat="49.34398" lon="5.99716">
        <ele>309.4</ele>
        <time>2021-07-28T08:52:11Z</time>
      </trkpt>
      <trkpt lat="49.34398" lon="5.99715">
        <ele>309.4</ele>
        <time>2021-07-28T08:52:12Z</time>
      </trkpt>
      <trkpt lat="49.34398" lon="5.99714">
        <ele>309.4</ele>
        <time>2021-07-28T08:52:13Z</time>
      </trkpt>
      <trkpt lat="49.34397" lon="5.99712">
        <ele>309.4</ele>
        <time>2021-07-28T08:52:15Z</time>
      </trkpt>
      <trkpt lat="49.34397" lon="5.99711">
        <ele>309.4</ele>
        <time>2021-07-28T08:52:16Z</time>
      </trkpt>
      <trkpt lat="49.34397" lon="5.99709">
        <ele>309.4</ele>
        <time>2021-07-28T08:52:17Z</time>
      </trkpt>
      <trkpt lat="49.34404" lon="5.99662">
        <ele>309.5</ele>
        <time>2021-07-28T08:52:32Z</time>
      </trkpt>
      <trkpt lat="49.34407" lon="5.99651">
        <ele>309.5</ele>
        <time>2021-07-28T08:52:33Z</time>
      </trkpt>
      <trkpt lat="49.34408" lon="5.99633">
        <ele>309.4</ele>
        <time>2021-07-28T08:52:35Z</time>
      </trkpt>
      <trkpt lat="49.34409" lon="5.99616">
        <ele>309.4</ele>
        <time>2021-07-28T08:52:36Z</time>
      </trkpt>
      <trkpt lat="49.3441" lon="5.99598">
        <ele>309.3</ele>
        <time>2021-07-28T08:52:38Z</time>
      </trkpt>
      <trkpt lat="49.3441" lon="5.99589">
        <ele>309.3</ele>
        <time>2021-07-28T08:52:39Z</time>
      </trkpt>
      <trkpt lat="49.34412" lon="5.99582">
        <ele>309.3</ele>
        <time>2021-07-28T08:52:40Z</time>
      </trkpt>
      <trkpt lat="49.34412" lon="5.99579">
        <ele>309.3</ele>
        <time>2021-07-28T08:52:41Z</time>
      </trkpt>
      <trkpt lat="49.34413" lon="5.99575">
        <ele>309.3</ele>
        <time>2021-07-28T08:52:42Z</time>
      </trkpt>
      <trkpt lat="49.34414" lon="5.99572">
        <ele>309.3</ele>
        <time>2021-07-28T08:52:43Z</time>
      </trkpt>
      <trkpt lat="49.34414" lon="5.99569">
        <ele>309.3</ele>
        <time>2021-07-28T08:52:45Z</time>
      </trkpt>
      <trkpt lat="49.34415" lon="5.9957">
        <ele>309.3</ele>
        <time>2021-07-28T08:52:46Z</time>
      </trkpt>
      <trkpt lat="49.34415" lon="5.99569">
        <ele>309.3</ele>
        <time>2021-07-28T08:52:47Z</time>
      </trkpt>
      <trkpt lat="49.34416" lon="5.99565">
        <ele>309.3</ele>
        <time>2021-07-28T08:52:48Z</time>
      </trkpt>
      <trkpt lat="49.34416" lon="5.99561">
        <ele>309.3</ele>
        <time>2021-07-28T08:52:49Z</time>
      </trkpt>
      <trkpt lat="49.34415" lon="5.99556">
        <ele>309.3</ele>
        <time>2021-07-28T08:52:51Z</time>
      </trkpt>
      <trkpt lat="49.34413" lon="5.9955">
        <ele>309.3</ele>
        <time>2021-07-28T08:52:52Z</time>
      </trkpt>
      <trkpt lat="49.3441" lon="5.99545">
        <ele>309.3</ele>
        <time>2021-07-28T08:52:54Z</time>
      </trkpt>
      <trkpt lat="49.34405" lon="5.99541">
        <ele>309.3</ele>
        <time>2021-07-28T08:52:55Z</time>
      </trkpt>
      <trkpt lat="49.34401" lon="5.99538">
        <ele>309.3</ele>
        <time>2021-07-28T08:52:56Z</time>
      </trkpt>
      <trkpt lat="49.34398" lon="5.99533">
        <ele>309.4</ele>
        <time>2021-07-28T08:52:57Z</time>
      </trkpt>
      <trkpt lat="49.34395" lon="5.99528">
        <ele>309.4</ele>
        <time>2021-07-28T08:52:58Z</time>
      </trkpt>
      <trkpt lat="49.34392" lon="5.99523">
        <ele>309.5</ele>
        <time>2021-07-28T08:52:59Z</time>
      </trkpt>
      <trkpt lat="49.34389" lon="5.99518">
        <ele>309.6</ele>
        <time>2021-07-28T08:53:00Z</time>
      </trkpt>
      <trkpt lat="49.34386" lon="5.99513">
        <ele>309.7</ele>
        <time>2021-07-28T08:53:01Z</time>
      </trkpt>
      <trkpt lat="49.34386" lon="5.99511">
        <ele>309.7</ele>
        <time>2021-07-28T08:53:03Z</time>
      </trkpt>
      <trkpt lat="49.34387" lon="5.99509">
        <ele>309.8</ele>
        <time>2021-07-28T08:53:04Z</time>
      </trkpt>
      <trkpt lat="49.34387" lon="5.99507">
        <ele>309.8</ele>
        <time>2021-07-28T08:53:05Z</time>
      </trkpt>
      <trkpt lat="49.34386" lon="5.99505">
        <ele>309.8</ele>
        <time>2021-07-28T08:53:07Z</time>
      </trkpt>
      <trkpt lat="49.34384" lon="5.99502">
        <ele>309.9</ele>
        <time>2021-07-28T08:53:08Z</time>
      </trkpt>
      <trkpt lat="49.34379" lon="5.99497">
        <ele>310</ele>
        <time>2021-07-28T08:53:10Z</time>
      </trkpt>
      <trkpt lat="49.34378" lon="5.99492">
        <ele>310</ele>
        <time>2021-07-28T08:53:11Z</time>
      </trkpt>
      <trkpt lat="49.34377" lon="5.99488">
        <ele>310.1</ele>
        <time>2021-07-28T08:53:12Z</time>
      </trkpt>
      <trkpt lat="49.34376" lon="5.99482">
        <ele>310.1</ele>
        <time>2021-07-28T08:53:13Z</time>
      </trkpt>
      <trkpt lat="49.34375" lon="5.99476">
        <ele>310.2</ele>
        <time>2021-07-28T08:53:14Z</time>
      </trkpt>
      <trkpt lat="49.3437" lon="5.99464">
        <ele>310.3</ele>
        <time>2021-07-28T08:53:16Z</time>
      </trkpt>
      <trkpt lat="49.34368" lon="5.99456">
        <ele>310.4</ele>
        <time>2021-07-28T08:53:17Z</time>
      </trkpt>
      <trkpt lat="49.34367" lon="5.99454">
        <ele>310.4</ele>
        <time>2021-07-28T08:53:18Z</time>
      </trkpt>
      <trkpt lat="49.34364" lon="5.99439">
        <ele>310.6</ele>
        <time>2021-07-28T08:53:20Z</time>
      </trkpt>
      <trkpt lat="49.34363" lon="5.99432">
        <ele>310.7</ele>
        <time>2021-07-28T08:53:21Z</time>
      </trkpt>
      <trkpt lat="49.34361" lon="5.99427">
        <ele>310.8</ele>
        <time>2021-07-28T08:53:22Z</time>
      </trkpt>
      <trkpt lat="49.34361" lon="5.99426">
        <ele>310.8</ele>
        <time>2021-07-28T08:53:23Z</time>
      </trkpt>
      <trkpt lat="49.34364" lon="5.99422">
        <ele>310.9</ele>
        <time>2021-07-28T08:53:25Z</time>
      </trkpt>
      <trkpt lat="49.34365" lon="5.99421">
        <ele>310.9</ele>
        <time>2021-07-28T08:53:26Z</time>
      </trkpt>
      <trkpt lat="49.34367" lon="5.99418">
        <ele>311</ele>
        <time>2021-07-28T08:53:27Z</time>
      </trkpt>
      <trkpt lat="49.34369" lon="5.99419">
        <ele>311</ele>
        <time>2021-07-28T08:53:28Z</time>
      </trkpt>
      <trkpt lat="49.3437" lon="5.9942">
        <ele>311</ele>
        <time>2021-07-28T08:53:29Z</time>
      </trkpt>
      <trkpt lat="49.34372" lon="5.99421">
        <ele>311.1</ele>
        <time>2021-07-28T08:53:30Z</time>
      </trkpt>
      <trkpt lat="49.34373" lon="5.99422">
        <ele>311.1</ele>
        <time>2021-07-28T08:53:31Z</time>
      </trkpt>
      <trkpt lat="49.34372" lon="5.99422">
        <ele>311.2</ele>
        <time>2021-07-28T08:53:33Z</time>
      </trkpt>
      <trkpt lat="49.3437" lon="5.99422">
        <ele>311.2</ele>
        <time>2021-07-28T08:53:34Z</time>
      </trkpt>
      <trkpt lat="49.34366" lon="5.9942">
        <ele>311.2</ele>
        <time>2021-07-28T08:53:36Z</time>
      </trkpt>
      <trkpt lat="49.34365" lon="5.99419">
        <ele>311.2</ele>
        <time>2021-07-28T08:53:37Z</time>
      </trkpt>
      <trkpt lat="49.34349" lon="5.9942">
        <ele>311.4</ele>
        <time>2021-07-28T08:53:45Z</time>
      </trkpt>
      <trkpt lat="49.34343" lon="5.9942">
        <ele>311.6</ele>
        <time>2021-07-28T08:53:47Z</time>
      </trkpt>
      <trkpt lat="49.34339" lon="5.99421">
        <ele>311.7</ele>
        <time>2021-07-28T08:53:48Z</time>
      </trkpt>
      <trkpt lat="49.34335" lon="5.99423">
        <ele>311.8</ele>
        <time>2021-07-28T08:53:49Z</time>
      </trkpt>
      <trkpt lat="49.34331" lon="5.99424">
        <ele>311.9</ele>
        <time>2021-07-28T08:53:51Z</time>
      </trkpt>
      <trkpt lat="49.34328" lon="5.99426">
        <ele>312</ele>
        <time>2021-07-28T08:53:52Z</time>
      </trkpt>
      <trkpt lat="49.34324" lon="5.99431">
        <ele>312.2</ele>
        <time>2021-07-28T08:53:53Z</time>
      </trkpt>
      <trkpt lat="49.34322" lon="5.99437">
        <ele>312.4</ele>
        <time>2021-07-28T08:53:55Z</time>
      </trkpt>
      <trkpt lat="49.34319" lon="5.9944">
        <ele>312.5</ele>
        <time>2021-07-28T08:53:56Z</time>
      </trkpt>
      <trkpt lat="49.34318" lon="5.99441">
        <ele>312.6</ele>
        <time>2021-07-28T08:53:57Z</time>
      </trkpt>
      <trkpt lat="49.34315" lon="5.99443">
        <ele>312.7</ele>
        <time>2021-07-28T08:53:58Z</time>
      </trkpt>
      <trkpt lat="49.34312" lon="5.99446">
        <ele>312.8</ele>
        <time>2021-07-28T08:53:59Z</time>
      </trkpt>
      <trkpt lat="49.34311" lon="5.99446">
        <ele>312.8</ele>
        <time>2021-07-28T08:54:00Z</time>
      </trkpt>
      <trkpt lat="49.34308" lon="5.99449">
        <ele>313</ele>
        <time>2021-07-28T08:54:02Z</time>
      </trkpt>
      <trkpt lat="49.34307" lon="5.9945">
        <ele>313</ele>
        <time>2021-07-28T08:54:03Z</time>
      </trkpt>
      <trkpt lat="49.34305" lon="5.99451">
        <ele>313.1</ele>
        <time>2021-07-28T08:54:04Z</time>
      </trkpt>
      <trkpt lat="49.34302" lon="5.99454">
        <ele>313.2</ele>
        <time>2021-07-28T08:54:06Z</time>
      </trkpt>
      <trkpt lat="49.34299" lon="5.99456">
        <ele>313.3</ele>
        <time>2021-07-28T08:54:07Z</time>
      </trkpt>
      <trkpt lat="49.34297" lon="5.99458">
        <ele>313.4</ele>
        <time>2021-07-28T08:54:08Z</time>
      </trkpt>
      <trkpt lat="49.34293" lon="5.9946">
        <ele>313.5</ele>
        <time>2021-07-28T08:54:10Z</time>
      </trkpt>
      <trkpt lat="49.3429" lon="5.99461">
        <ele>313.6</ele>
        <time>2021-07-28T08:54:12Z</time>
      </trkpt>
      <trkpt lat="49.34288" lon="5.99464">
        <ele>313.6</ele>
        <time>2021-07-28T08:54:13Z</time>
      </trkpt>
      <trkpt lat="49.34286" lon="5.9947">
        <ele>313.7</ele>
        <time>2021-07-28T08:54:15Z</time>
      </trkpt>
      <trkpt lat="49.34286" lon="5.9947">
        <ele>313.7</ele>
        <time>2021-07-28T08:54:16Z</time>
      </trkpt>
      <trkpt lat="49.34283" lon="5.99475">
        <ele>313.8</ele>
        <time>2021-07-28T08:54:18Z</time>
      </trkpt>
      <trkpt lat="49.34282" lon="5.99478">
        <ele>313.9</ele>
        <time>2021-07-28T08:54:19Z</time>
      </trkpt>
      <trkpt lat="49.3428" lon="5.99482">
        <ele>313.9</ele>
        <time>2021-07-28T08:54:21Z</time>
      </trkpt>
      <trkpt lat="49.34279" lon="5.99485">
        <ele>313.9</ele>
        <time>2021-07-28T08:54:22Z</time>
      </trkpt>
      <trkpt lat="49.34279" lon="5.99488">
        <ele>313.9</ele>
        <time>2021-07-28T08:54:23Z</time>
      </trkpt>
      <trkpt lat="49.34278" lon="5.99489">
        <ele>314</ele>
        <time>2021-07-28T08:54:24Z</time>
      </trkpt>
      <trkpt lat="49.34276" lon="5.99491">
        <ele>314</ele>
        <time>2021-07-28T08:54:26Z</time>
      </trkpt>
      <trkpt lat="49.34272" lon="5.9949">
        <ele>314</ele>
        <time>2021-07-28T08:54:27Z</time>
      </trkpt>
      <trkpt lat="49.34271" lon="5.99489">
        <ele>314</ele>
        <time>2021-07-28T08:54:28Z</time>
      </trkpt>
      <trkpt lat="49.34269" lon="5.99489">
        <ele>314</ele>
        <time>2021-07-28T08:54:29Z</time>
      </trkpt>
      <trkpt lat="49.34266" lon="5.99488">
        <ele>314.1</ele>
        <time>2021-07-28T08:54:31Z</time>
      </trkpt>
      <trkpt lat="49.34265" lon="5.9949">
        <ele>314.1</ele>
        <time>2021-07-28T08:54:32Z</time>
      </trkpt>
      <trkpt lat="49.34263" lon="5.99489">
        <ele>314.1</ele>
        <time>2021-07-28T08:54:33Z</time>
      </trkpt>
      <trkpt lat="49.34261" lon="5.99487">
        <ele>314.1</ele>
        <time>2021-07-28T08:54:35Z</time>
      </trkpt>
      <trkpt lat="49.34257" lon="5.99488">
        <ele>314.1</ele>
        <time>2021-07-28T08:54:36Z</time>
      </trkpt>
      <trkpt lat="49.34255" lon="5.99489">
        <ele>314</ele>
        <time>2021-07-28T08:54:37Z</time>
      </trkpt>
      <trkpt lat="49.34252" lon="5.99491">
        <ele>314</ele>
        <time>2021-07-28T08:54:38Z</time>
      </trkpt>
      <trkpt lat="49.34248" lon="5.99493">
        <ele>314</ele>
        <time>2021-07-28T08:54:40Z</time>
      </trkpt>
      <trkpt lat="49.34246" lon="5.99493">
        <ele>313.9</ele>
        <time>2021-07-28T08:54:41Z</time>
      </trkpt>
      <trkpt lat="49.34245" lon="5.99494">
        <ele>313.9</ele>
        <time>2021-07-28T08:54:42Z</time>
      </trkpt>
      <trkpt lat="49.34246" lon="5.99495">
        <ele>313.9</ele>
        <time>2021-07-28T08:54:44Z</time>
      </trkpt>
      <trkpt lat="49.34247" lon="5.99497">
        <ele>313.9</ele>
        <time>2021-07-28T08:54:46Z</time>
      </trkpt>
      <trkpt lat="49.34247" lon="5.99498">
        <ele>313.9</ele>
        <time>2021-07-28T08:54:47Z</time>
      </trkpt>
      <trkpt lat="49.34247" lon="5.995">
        <ele>313.9</ele>
        <time>2021-07-28T08:54:49Z</time>
      </trkpt>
      <trkpt lat="49.34245" lon="5.99498">
        <ele>313.8</ele>
        <time>2021-07-28T08:54:51Z</time>
      </trkpt>
      <trkpt lat="49.34243" lon="5.99497">
        <ele>313.8</ele>
        <time>2021-07-28T08:54:53Z</time>
      </trkpt>
      <trkpt lat="49.34242" lon="5.99496">
        <ele>313.7</ele>
        <time>2021-07-28T08:54:55Z</time>
      </trkpt>
      <trkpt lat="49.3424" lon="5.99494">
        <ele>313.7</ele>
        <time>2021-07-28T08:54:57Z</time>
      </trkpt>
      <trkpt lat="49.34238" lon="5.99493">
        <ele>313.7</ele>
        <time>2021-07-28T08:54:58Z</time>
      </trkpt>
      <trkpt lat="49.34236" lon="5.99492">
        <ele>313.6</ele>
        <time>2021-07-28T08:55:00Z</time>
      </trkpt>
      <trkpt lat="49.34234" lon="5.99491">
        <ele>313.6</ele>
        <time>2021-07-28T08:55:01Z</time>
      </trkpt>
      <trkpt lat="49.34232" lon="5.99489">
        <ele>313.6</ele>
        <time>2021-07-28T08:55:44Z</time>
      </trkpt>
      <trkpt lat="49.34231" lon="5.99488">
        <ele>313.5</ele>
        <time>2021-07-28T08:55:45Z</time>
      </trkpt>
      <trkpt lat="49.34222" lon="5.99491">
        <ele>313.4</ele>
        <time>2021-07-28T08:55:47Z</time>
      </trkpt>
      <trkpt lat="49.34217" lon="5.99494">
        <ele>313.2</ele>
        <time>2021-07-28T08:55:48Z</time>
      </trkpt>
      <trkpt lat="49.34214" lon="5.99498">
        <ele>313.1</ele>
        <time>2021-07-28T08:55:49Z</time>
      </trkpt>
      <trkpt lat="49.34211" lon="5.99505">
        <ele>313.1</ele>
        <time>2021-07-28T08:55:51Z</time>
      </trkpt>
      <trkpt lat="49.34209" lon="5.99511">
        <ele>312.9</ele>
        <time>2021-07-28T08:55:52Z</time>
      </trkpt>
      <trkpt lat="49.34207" lon="5.99515">
        <ele>312.9</ele>
        <time>2021-07-28T08:55:53Z</time>
      </trkpt>
      <trkpt lat="49.34205" lon="5.99521">
        <ele>312.7</ele>
        <time>2021-07-28T08:55:54Z</time>
      </trkpt>
      <trkpt lat="49.34203" lon="5.99529">
        <ele>312.5</ele>
        <time>2021-07-28T08:55:56Z</time>
      </trkpt>
      <trkpt lat="49.34201" lon="5.99537">
        <ele>312.3</ele>
        <time>2021-07-28T08:55:58Z</time>
      </trkpt>
      <trkpt lat="49.34199" lon="5.99542">
        <ele>312.2</ele>
        <time>2021-07-28T08:55:59Z</time>
      </trkpt>
      <trkpt lat="49.34198" lon="5.99544">
        <ele>312.1</ele>
        <time>2021-07-28T08:56:00Z</time>
      </trkpt>
      <trkpt lat="49.34197" lon="5.99546">
        <ele>312</ele>
        <time>2021-07-28T08:56:01Z</time>
      </trkpt>
      <trkpt lat="49.34197" lon="5.99551">
        <ele>312</ele>
        <time>2021-07-28T08:56:02Z</time>
      </trkpt>
      <trkpt lat="49.34198" lon="5.99559">
        <ele>312</ele>
        <time>2021-07-28T08:56:04Z</time>
      </trkpt>
      <trkpt lat="49.34199" lon="5.99566">
        <ele>312</ele>
        <time>2021-07-28T08:56:05Z</time>
      </trkpt>
      <trkpt lat="49.34198" lon="5.9957">
        <ele>311.9</ele>
        <time>2021-07-28T08:56:06Z</time>
      </trkpt>
      <trkpt lat="49.34196" lon="5.99572">
        <ele>311.9</ele>
        <time>2021-07-28T08:56:08Z</time>
      </trkpt>
      <trkpt lat="49.34196" lon="5.99573">
        <ele>311.9</ele>
        <time>2021-07-28T08:56:09Z</time>
      </trkpt>
      <trkpt lat="49.34196" lon="5.99573">
        <ele>311.8</ele>
        <time>2021-07-28T08:56:10Z</time>
      </trkpt>
      <trkpt lat="49.34196" lon="5.99573">
        <ele>311.7</ele>
        <time>2021-07-28T08:56:11Z</time>
      </trkpt>
      <trkpt lat="49.34197" lon="5.99572">
        <ele>311.7</ele>
        <time>2021-07-28T08:56:13Z</time>
      </trkpt>
      <trkpt lat="49.34197" lon="5.99572">
        <ele>311.6</ele>
        <time>2021-07-28T08:56:15Z</time>
      </trkpt>
      <trkpt lat="49.34197" lon="5.99571">
        <ele>311.5</ele>
        <time>2021-07-28T08:56:16Z</time>
      </trkpt>
      <trkpt lat="49.34197" lon="5.99569">
        <ele>311.4</ele>
        <time>2021-07-28T08:56:17Z</time>
      </trkpt>
      <trkpt lat="49.34198" lon="5.99567">
        <ele>311.4</ele>
        <time>2021-07-28T08:56:18Z</time>
      </trkpt>
      <trkpt lat="49.34194" lon="5.99659">
        <ele>311.6</ele>
        <time>2021-07-28T08:58:09Z</time>
      </trkpt>
      <trkpt lat="49.34192" lon="5.99663">
        <ele>311.5</ele>
        <time>2021-07-28T08:58:10Z</time>
      </trkpt>
      <trkpt lat="49.34187" lon="5.99661">
        <ele>311.6</ele>
        <time>2021-07-28T08:58:12Z</time>
      </trkpt>
      <trkpt lat="49.34177" lon="5.99654">
        <ele>311.8</ele>
        <time>2021-07-28T08:58:13Z</time>
      </trkpt>
      <trkpt lat="49.3417" lon="5.99651">
        <ele>311.8</ele>
        <time>2021-07-28T08:58:15Z</time>
      </trkpt>
      <trkpt lat="49.34168" lon="5.99652">
        <ele>311.8</ele>
        <time>2021-07-28T08:58:16Z</time>
      </trkpt>
      <trkpt lat="49.34164" lon="5.99655">
        <ele>311.9</ele>
        <time>2021-07-28T08:58:18Z</time>
      </trkpt>
      <trkpt lat="49.34163" lon="5.99658">
        <ele>311.8</ele>
        <time>2021-07-28T08:58:19Z</time>
      </trkpt>
      <trkpt lat="49.34154" lon="5.99659">
        <ele>312.1</ele>
        <time>2021-07-28T08:58:21Z</time>
      </trkpt>
      <trkpt lat="49.34146" lon="5.99658">
        <ele>312.2</ele>
        <time>2021-07-28T08:58:23Z</time>
      </trkpt>
      <trkpt lat="49.34142" lon="5.99656">
        <ele>312.4</ele>
        <time>2021-07-28T08:58:25Z</time>
      </trkpt>
      <trkpt lat="49.34139" lon="5.99655">
        <ele>312.3</ele>
        <time>2021-07-28T08:58:26Z</time>
      </trkpt>
      <trkpt lat="49.34138" lon="5.99655">
        <ele>312.3</ele>
        <time>2021-07-28T08:58:27Z</time>
      </trkpt>
      <trkpt lat="49.34136" lon="5.99655">
        <ele>312.4</ele>
        <time>2021-07-28T08:58:28Z</time>
      </trkpt>
      <trkpt lat="49.34135" lon="5.99655">
        <ele>312.3</ele>
        <time>2021-07-28T08:58:29Z</time>
      </trkpt>
      <trkpt lat="49.34136" lon="5.99653">
        <ele>312.2</ele>
        <time>2021-07-28T08:58:32Z</time>
      </trkpt>
      <trkpt lat="49.34138" lon="5.99651">
        <ele>311.9</ele>
        <time>2021-07-28T08:58:34Z</time>
      </trkpt>
      <trkpt lat="49.34191" lon="5.9968">
        <ele>309.1</ele>
        <time>2021-07-28T08:59:57Z</time>
      </trkpt>
      <trkpt lat="49.34193" lon="5.99685">
        <ele>309.3</ele>
        <time>2021-07-28T08:59:58Z</time>
      </trkpt>
      <trkpt lat="49.34192" lon="5.99689">
        <ele>309.6</ele>
        <time>2021-07-28T08:59:59Z</time>
      </trkpt>
      <trkpt lat="49.34192" lon="5.99692">
        <ele>309.8</ele>
        <time>2021-07-28T09:00:00Z</time>
      </trkpt>
      <trkpt lat="49.34192" lon="5.99696">
        <ele>310.1</ele>
        <time>2021-07-28T09:00:02Z</time>
      </trkpt>
      <trkpt lat="49.34188" lon="5.99698">
        <ele>310.5</ele>
        <time>2021-07-28T09:00:04Z</time>
      </trkpt>
      <trkpt lat="49.34187" lon="5.99699">
        <ele>310.7</ele>
        <time>2021-07-28T09:00:05Z</time>
      </trkpt>
      <trkpt lat="49.34186" lon="5.99699">
        <ele>310.8</ele>
        <time>2021-07-28T09:00:06Z</time>
      </trkpt>
      <trkpt lat="49.34186" lon="5.99699">
        <ele>310.8</ele>
        <time>2021-07-28T09:00:07Z</time>
      </trkpt>
      <trkpt lat="49.34185" lon="5.997">
        <ele>310.9</ele>
        <time>2021-07-28T09:00:09Z</time>
      </trkpt>
      <trkpt lat="49.34185" lon="5.997">
        <ele>311</ele>
        <time>2021-07-28T09:00:10Z</time>
      </trkpt>
      <trkpt lat="49.34122" lon="5.99768">
        <ele>317.3</ele>
        <time>2021-07-28T09:01:23Z</time>
      </trkpt>
      <trkpt lat="49.3412" lon="5.9977">
        <ele>317.5</ele>
        <time>2021-07-28T09:01:24Z</time>
      </trkpt>
      <trkpt lat="49.34115" lon="5.99777">
        <ele>318</ele>
        <time>2021-07-28T09:01:26Z</time>
      </trkpt>
      <trkpt lat="49.34114" lon="5.99781">
        <ele>318.2</ele>
        <time>2021-07-28T09:01:27Z</time>
      </trkpt>
      <trkpt lat="49.34114" lon="5.99783">
        <ele>318.3</ele>
        <time>2021-07-28T09:01:29Z</time>
      </trkpt>
      <trkpt lat="49.34114" lon="5.99783">
        <ele>318.3</ele>
        <time>2021-07-28T09:01:30Z</time>
      </trkpt>
      <trkpt lat="49.34114" lon="5.99785">
        <ele>318.4</ele>
        <time>2021-07-28T09:01:32Z</time>
      </trkpt>
      <trkpt lat="49.34116" lon="5.99788">
        <ele>318.7</ele>
        <time>2021-07-28T09:01:34Z</time>
      </trkpt>
      <trkpt lat="49.34119" lon="5.9979">
        <ele>318.9</ele>
        <time>2021-07-28T09:01:35Z</time>
      </trkpt>
      <trkpt lat="49.3412" lon="5.99792">
        <ele>319</ele>
        <time>2021-07-28T09:01:36Z</time>
      </trkpt>
      <trkpt lat="49.34122" lon="5.99793">
        <ele>319.2</ele>
        <time>2021-07-28T09:01:38Z</time>
      </trkpt>
      <trkpt lat="49.34017" lon="5.99914">
        <ele>330.1</ele>
        <time>2021-07-28T09:04:37Z</time>
      </trkpt>
      <trkpt lat="49.34015" lon="5.99918">
        <ele>330.4</ele>
        <time>2021-07-28T09:04:39Z</time>
      </trkpt>
      <trkpt lat="49.34011" lon="5.99921">
        <ele>330.6</ele>
        <time>2021-07-28T09:04:40Z</time>
      </trkpt>
      <trkpt lat="49.3401" lon="5.99922">
        <ele>330.8</ele>
        <time>2021-07-28T09:04:41Z</time>
      </trkpt>
      <trkpt lat="49.34002" lon="5.99922">
        <ele>331.3</ele>
        <time>2021-07-28T09:04:43Z</time>
      </trkpt>
      <trkpt lat="49.34" lon="5.99921">
        <ele>331.4</ele>
        <time>2021-07-28T09:04:45Z</time>
      </trkpt>
      <trkpt lat="49.33999" lon="5.99921">
        <ele>331.5</ele>
        <time>2021-07-28T09:04:46Z</time>
      </trkpt>
      <trkpt lat="49.33998" lon="5.9992">
        <ele>331.5</ele>
        <time>2021-07-28T09:04:47Z</time>
      </trkpt>
      <trkpt lat="49.33998" lon="5.99919">
        <ele>331.6</ele>
        <time>2021-07-28T09:04:48Z</time>
      </trkpt>
      <trkpt lat="49.33997" lon="5.99919">
        <ele>331.7</ele>
        <time>2021-07-28T09:04:49Z</time>
      </trkpt>
      <trkpt lat="49.33974" lon="5.99945">
        <ele>333.5</ele>
        <time>2021-07-28T09:05:10Z</time>
      </trkpt>
      <trkpt lat="49.33967" lon="5.99952">
        <ele>334.1</ele>
        <time>2021-07-28T09:05:12Z</time>
      </trkpt>
      <trkpt lat="49.33966" lon="5.99954">
        <ele>334.2</ele>
        <time>2021-07-28T09:05:13Z</time>
      </trkpt>
      <trkpt lat="49.33964" lon="5.99956">
        <ele>334.3</ele>
        <time>2021-07-28T09:05:15Z</time>
      </trkpt>
      <trkpt lat="49.33963" lon="5.99958">
        <ele>334.5</ele>
        <time>2021-07-28T09:05:16Z</time>
      </trkpt>
      <trkpt lat="49.33959" lon="5.99965">
        <ele>334.8</ele>
        <time>2021-07-28T09:05:18Z</time>
      </trkpt>
      <trkpt lat="49.33957" lon="5.99971">
        <ele>335</ele>
        <time>2021-07-28T09:05:19Z</time>
      </trkpt>
      <trkpt lat="49.33954" lon="5.99977">
        <ele>335.3</ele>
        <time>2021-07-28T09:05:20Z</time>
      </trkpt>
      <trkpt lat="49.33951" lon="5.99981">
        <ele>335.5</ele>
        <time>2021-07-28T09:05:21Z</time>
      </trkpt>
      <trkpt lat="49.33947" lon="5.99988">
        <ele>335.8</ele>
        <time>2021-07-28T09:05:23Z</time>
      </trkpt>
      <trkpt lat="49.33944" lon="5.99994">
        <ele>336.1</ele>
        <time>2021-07-28T09:05:24Z</time>
      </trkpt>
      <trkpt lat="49.33941" lon="5.99996">
        <ele>336.3</ele>
        <time>2021-07-28T09:05:25Z</time>
      </trkpt>
      <trkpt lat="49.33938" lon="5.99998">
        <ele>336.5</ele>
        <time>2021-07-28T09:05:27Z</time>
      </trkpt>
      <trkpt lat="49.33935" lon="5.99998">
        <ele>336.6</ele>
        <time>2021-07-28T09:05:28Z</time>
      </trkpt>
      <trkpt lat="49.33931" lon="5.99996">
        <ele>336.8</ele>
        <time>2021-07-28T09:05:30Z</time>
      </trkpt>
      <trkpt lat="49.3393" lon="5.99996">
        <ele>336.9</ele>
        <time>2021-07-28T09:05:31Z</time>
      </trkpt>
      <trkpt lat="49.3393" lon="5.99991">
        <ele>337</ele>
        <time>2021-07-28T09:05:33Z</time>
      </trkpt>
      <trkpt lat="49.33929" lon="5.99987">
        <ele>337.2</ele>
        <time>2021-07-28T09:05:35Z</time>
      </trkpt>
      <trkpt lat="49.33929" lon="5.99986">
        <ele>337.3</ele>
        <time>2021-07-28T09:05:36Z</time>
      </trkpt>
      <trkpt lat="49.33928" lon="5.99985">
        <ele>337.3</ele>
        <time>2021-07-28T09:05:37Z</time>
      </trkpt>
      <trkpt lat="49.33927" lon="5.99985">
        <ele>337.3</ele>
        <time>2021-07-28T09:05:38Z</time>
      </trkpt>
      <trkpt lat="49.33926" lon="5.99985">
        <ele>337.4</ele>
        <time>2021-07-28T09:05:40Z</time>
      </trkpt>
      <trkpt lat="49.33795" lon="6.00239">
        <ele>334.5</ele>
        <time>2021-07-28T09:07:16Z</time>
      </trkpt>
      <trkpt lat="49.33793" lon="6.0024">
        <ele>334.5</ele>
        <time>2021-07-28T09:07:18Z</time>
      </trkpt>
      <trkpt lat="49.33791" lon="6.00241">
        <ele>334.4</ele>
        <time>2021-07-28T09:07:19Z</time>
      </trkpt>
      <trkpt lat="49.3379" lon="6.00241">
        <ele>334.4</ele>
        <time>2021-07-28T09:07:20Z</time>
      </trkpt>
      <trkpt lat="49.33786" lon="6.0024">
        <ele>334.3</ele>
        <time>2021-07-28T09:07:22Z</time>
      </trkpt>
      <trkpt lat="49.33775" lon="6.00232">
        <ele>334</ele>
        <time>2021-07-28T09:07:24Z</time>
      </trkpt>
      <trkpt lat="49.33768" lon="6.00229">
        <ele>333.9</ele>
        <time>2021-07-28T09:07:26Z</time>
      </trkpt>
      <trkpt lat="49.33765" lon="6.00229">
        <ele>333.8</ele>
        <time>2021-07-28T09:07:27Z</time>
      </trkpt>
      <trkpt lat="49.33763" lon="6.00231">
        <ele>333.8</ele>
        <time>2021-07-28T09:07:28Z</time>
      </trkpt>
      <trkpt lat="49.33762" lon="6.00233">
        <ele>333.8</ele>
        <time>2021-07-28T09:07:29Z</time>
      </trkpt>
      <trkpt lat="49.3376" lon="6.00238">
        <ele>333.7</ele>
        <time>2021-07-28T09:07:30Z</time>
      </trkpt>
      <trkpt lat="49.33759" lon="6.00244">
        <ele>333.6</ele>
        <time>2021-07-28T09:07:32Z</time>
      </trkpt>
      <trkpt lat="49.33757" lon="6.00248">
        <ele>333.6</ele>
        <time>2021-07-28T09:07:33Z</time>
      </trkpt>
      <trkpt lat="49.33757" lon="6.00249">
        <ele>333.6</ele>
        <time>2021-07-28T09:07:34Z</time>
      </trkpt>
      <trkpt lat="49.33757" lon="6.00253">
        <ele>333.5</ele>
        <time>2021-07-28T09:07:36Z</time>
      </trkpt>
      <trkpt lat="49.33757" lon="6.00253">
        <ele>333.5</ele>
        <time>2021-07-28T09:07:37Z</time>
      </trkpt>
      <trkpt lat="49.33757" lon="6.00254">
        <ele>333.5</ele>
        <time>2021-07-28T09:07:38Z</time>
      </trkpt>
      <trkpt lat="49.33756" lon="6.00255">
        <ele>333.5</ele>
        <time>2021-07-28T09:07:40Z</time>
      </trkpt>
      <trkpt lat="49.33755" lon="6.00256">
        <ele>333.5</ele>
        <time>2021-07-28T09:07:42Z</time>
      </trkpt>
      <trkpt lat="49.33756" lon="6.00258">
        <ele>333.5</ele>
        <time>2021-07-28T09:07:43Z</time>
      </trkpt>
      <trkpt lat="49.33756" lon="6.00262">
        <ele>333.4</ele>
        <time>2021-07-28T09:07:45Z</time>
      </trkpt>
      <trkpt lat="49.33727" lon="6.00308">
        <ele>333.1</ele>
        <time>2021-07-28T09:08:06Z</time>
      </trkpt>
      <trkpt lat="49.33725" lon="6.00312">
        <ele>333.1</ele>
        <time>2021-07-28T09:08:07Z</time>
      </trkpt>
      <trkpt lat="49.33724" lon="6.00317">
        <ele>333</ele>
        <time>2021-07-28T09:08:08Z</time>
      </trkpt>
      <trkpt lat="49.33723" lon="6.00321">
        <ele>333</ele>
        <time>2021-07-28T09:08:10Z</time>
      </trkpt>
      <trkpt lat="49.33723" lon="6.00323">
        <ele>333</ele>
        <time>2021-07-28T09:08:11Z</time>
      </trkpt>
      <trkpt lat="49.33723" lon="6.00323">
        <ele>332.9</ele>
        <time>2021-07-28T09:08:12Z</time>
      </trkpt>
      <trkpt lat="49.33723" lon="6.00325">
        <ele>332.9</ele>
        <time>2021-07-28T09:08:14Z</time>
      </trkpt>
      <trkpt lat="49.33724" lon="6.00328">
        <ele>332.9</ele>
        <time>2021-07-28T09:08:15Z</time>
      </trkpt>
      <trkpt lat="49.33725" lon="6.00331">
        <ele>332.9</ele>
        <time>2021-07-28T09:08:16Z</time>
      </trkpt>
      <trkpt lat="49.33726" lon="6.00334">
        <ele>332.8</ele>
        <time>2021-07-28T09:08:18Z</time>
      </trkpt>
      <trkpt lat="49.33717" lon="6.0038">
        <ele>332.4</ele>
        <time>2021-07-28T09:09:01Z</time>
      </trkpt>
      <trkpt lat="49.33718" lon="6.00381">
        <ele>332.4</ele>
        <time>2021-07-28T09:09:02Z</time>
      </trkpt>
      <trkpt lat="49.33719" lon="6.00382">
        <ele>332.5</ele>
        <time>2021-07-28T09:09:03Z</time>
      </trkpt>
      <trkpt lat="49.33723" lon="6.00385">
        <ele>332.4</ele>
        <time>2021-07-28T09:09:05Z</time>
      </trkpt>
      <trkpt lat="49.33725" lon="6.00385">
        <ele>332.5</ele>
        <time>2021-07-28T09:09:06Z</time>
      </trkpt>
      <trkpt lat="49.33725" lon="6.00385">
        <ele>332.5</ele>
        <time>2021-07-28T09:09:08Z</time>
      </trkpt>
      <trkpt lat="49.33725" lon="6.00384">
        <ele>332.6</ele>
        <time>2021-07-28T09:09:09Z</time>
      </trkpt>
      <trkpt lat="49.33723" lon="6.00382">
        <ele>332.7</ele>
        <time>2021-07-28T09:09:11Z</time>
      </trkpt>
      <trkpt lat="49.33721" lon="6.00381">
        <ele>332.8</ele>
        <time>2021-07-28T09:09:12Z</time>
      </trkpt>
      <trkpt lat="49.33718" lon="6.00381">
        <ele>332.9</ele>
        <time>2021-07-28T09:09:14Z</time>
      </trkpt>
      <trkpt lat="49.33715" lon="6.00381">
        <ele>333</ele>
        <time>2021-07-28T09:09:15Z</time>
      </trkpt>
      <trkpt lat="49.33713" lon="6.00382">
        <ele>333.1</ele>
        <time>2021-07-28T09:09:17Z</time>
      </trkpt>
      <trkpt lat="49.33712" lon="6.00382">
        <ele>333.1</ele>
        <time>2021-07-28T09:09:18Z</time>
      </trkpt>
      <trkpt lat="49.3371" lon="6.00383">
        <ele>333.2</ele>
        <time>2021-07-28T09:09:20Z</time>
      </trkpt>
      <trkpt lat="49.33709" lon="6.00383">
        <ele>333.2</ele>
        <time>2021-07-28T09:09:22Z</time>
      </trkpt>
      <trkpt lat="49.33703" lon="6.00389">
        <ele>333.3</ele>
        <time>2021-07-28T09:09:23Z</time>
      </trkpt>
      <trkpt lat="49.33697" lon="6.00393">
        <ele>333.6</ele>
        <time>2021-07-28T09:09:24Z</time>
      </trkpt>
      <trkpt lat="49.33696" lon="6.00396">
        <ele>333.9</ele>
        <time>2021-07-28T09:09:25Z</time>
      </trkpt>
      <trkpt lat="49.33693" lon="6.00401">
        <ele>334.2</ele>
        <time>2021-07-28T09:09:27Z</time>
      </trkpt>
      <trkpt lat="49.33691" lon="6.00405">
        <ele>334.5</ele>
        <time>2021-07-28T09:09:28Z</time>
      </trkpt>
      <trkpt lat="49.33689" lon="6.00408">
        <ele>334.7</ele>
        <time>2021-07-28T09:09:29Z</time>
      </trkpt>
      <trkpt lat="49.33687" lon="6.00412">
        <ele>335</ele>
        <time>2021-07-28T09:09:31Z</time>
      </trkpt>
      <trkpt lat="49.33683" lon="6.00418">
        <ele>335.1</ele>
        <time>2021-07-28T09:09:33Z</time>
      </trkpt>
      <trkpt lat="49.33679" lon="6.00428">
        <ele>335.4</ele>
        <time>2021-07-28T09:09:35Z</time>
      </trkpt>
      <trkpt lat="49.33676" lon="6.00434">
        <ele>335.5</ele>
        <time>2021-07-28T09:09:36Z</time>
      </trkpt>
      <trkpt lat="49.33675" lon="6.00437">
        <ele>335.6</ele>
        <time>2021-07-28T09:09:37Z</time>
      </trkpt>
      <trkpt lat="49.33673" lon="6.00438">
        <ele>335.6</ele>
        <time>2021-07-28T09:09:38Z</time>
      </trkpt>
      <trkpt lat="49.33671" lon="6.00439">
        <ele>335.6</ele>
        <time>2021-07-28T09:09:40Z</time>
      </trkpt>
      <trkpt lat="49.33669" lon="6.0044">
        <ele>335.6</ele>
        <time>2021-07-28T09:09:42Z</time>
      </trkpt>
      <trkpt lat="49.33667" lon="6.0044">
        <ele>335.6</ele>
        <time>2021-07-28T09:09:43Z</time>
      </trkpt>
      <trkpt lat="49.33665" lon="6.00441">
        <ele>335.7</ele>
        <time>2021-07-28T09:09:45Z</time>
      </trkpt>
      <trkpt lat="49.33663" lon="6.00442">
        <ele>335.7</ele>
        <time>2021-07-28T09:09:47Z</time>
      </trkpt>
      <trkpt lat="49.33661" lon="6.00443">
        <ele>335.7</ele>
        <time>2021-07-28T09:09:53Z</time>
      </trkpt>
      <trkpt lat="49.3366" lon="6.00443">
        <ele>335.8</ele>
        <time>2021-07-28T09:09:54Z</time>
      </trkpt>
      <trkpt lat="49.33658" lon="6.00444">
        <ele>335.8</ele>
        <time>2021-07-28T09:09:55Z</time>
      </trkpt>
      <trkpt lat="49.33654" lon="6.00447">
        <ele>335.8</ele>
        <time>2021-07-28T09:09:57Z</time>
      </trkpt>
      <trkpt lat="49.33651" lon="6.00448">
        <ele>335.7</ele>
        <time>2021-07-28T09:09:58Z</time>
      </trkpt>
      <trkpt lat="49.33647" lon="6.0045">
        <ele>335.7</ele>
        <time>2021-07-28T09:10:00Z</time>
      </trkpt>
      <trkpt lat="49.33645" lon="6.00452">
        <ele>335.7</ele>
        <time>2021-07-28T09:10:01Z</time>
      </trkpt>
      <trkpt lat="49.33643" lon="6.00453">
        <ele>335.7</ele>
        <time>2021-07-28T09:10:03Z</time>
      </trkpt>
      <trkpt lat="49.3364" lon="6.00455">
        <ele>335.7</ele>
        <time>2021-07-28T09:10:04Z</time>
      </trkpt>
      <trkpt lat="49.33639" lon="6.00456">
        <ele>335.7</ele>
        <time>2021-07-28T09:10:05Z</time>
      </trkpt>
      <trkpt lat="49.33637" lon="6.0046">
        <ele>335.8</ele>
        <time>2021-07-28T09:10:06Z</time>
      </trkpt>
      <trkpt lat="49.33636" lon="6.00461">
        <ele>335.8</ele>
        <time>2021-07-28T09:10:07Z</time>
      </trkpt>
      <trkpt lat="49.33633" lon="6.00462">
        <ele>335.8</ele>
        <time>2021-07-28T09:10:09Z</time>
      </trkpt>
      <trkpt lat="49.33633" lon="6.00464">
        <ele>335.9</ele>
        <time>2021-07-28T09:10:10Z</time>
      </trkpt>
      <trkpt lat="49.33632" lon="6.00467">
        <ele>336</ele>
        <time>2021-07-28T09:10:12Z</time>
      </trkpt>
      <trkpt lat="49.33631" lon="6.00469">
        <ele>336.1</ele>
        <time>2021-07-28T09:10:13Z</time>
      </trkpt>
      <trkpt lat="49.33629" lon="6.0047">
        <ele>336.1</ele>
        <time>2021-07-28T09:10:14Z</time>
      </trkpt>
      <trkpt lat="49.33625" lon="6.00471">
        <ele>336.1</ele>
        <time>2021-07-28T09:10:16Z</time>
      </trkpt>
      <trkpt lat="49.33622" lon="6.00473">
        <ele>336.1</ele>
        <time>2021-07-28T09:10:18Z</time>
      </trkpt>
      <trkpt lat="49.3362" lon="6.00473">
        <ele>336.1</ele>
        <time>2021-07-28T09:10:19Z</time>
      </trkpt>
      <trkpt lat="49.33616" lon="6.00477">
        <ele>336.1</ele>
        <time>2021-07-28T09:10:21Z</time>
      </trkpt>
      <trkpt lat="49.33614" lon="6.00478">
        <ele>336.1</ele>
        <time>2021-07-28T09:10:22Z</time>
      </trkpt>
      <trkpt lat="49.33612" lon="6.0048">
        <ele>336.2</ele>
        <time>2021-07-28T09:10:23Z</time>
      </trkpt>
      <trkpt lat="49.33608" lon="6.00483">
        <ele>336.2</ele>
        <time>2021-07-28T09:10:25Z</time>
      </trkpt>
      <trkpt lat="49.33605" lon="6.00487">
        <ele>336.2</ele>
        <time>2021-07-28T09:10:26Z</time>
      </trkpt>
      <trkpt lat="49.33602" lon="6.00491">
        <ele>336.2</ele>
        <time>2021-07-28T09:10:27Z</time>
      </trkpt>
      <trkpt lat="49.33601" lon="6.00494">
        <ele>336.2</ele>
        <time>2021-07-28T09:10:28Z</time>
      </trkpt>
      <trkpt lat="49.33598" lon="6.00498">
        <ele>336.1</ele>
        <time>2021-07-28T09:10:29Z</time>
      </trkpt>
      <trkpt lat="49.33598" lon="6.00499">
        <ele>336.2</ele>
        <time>2021-07-28T09:10:30Z</time>
      </trkpt>
      <trkpt lat="49.33597" lon="6.00501">
        <ele>336.2</ele>
        <time>2021-07-28T09:10:31Z</time>
      </trkpt>
      <trkpt lat="49.33597" lon="6.00501">
        <ele>336.3</ele>
        <time>2021-07-28T09:10:32Z</time>
      </trkpt>
      <trkpt lat="49.33597" lon="6.00502">
        <ele>336.2</ele>
        <time>2021-07-28T09:10:33Z</time>
      </trkpt>
      <trkpt lat="49.33595" lon="6.00502">
        <ele>336.2</ele>
        <time>2021-07-28T09:10:34Z</time>
      </trkpt>
      <trkpt lat="49.33593" lon="6.00498">
        <ele>336.3</ele>
        <time>2021-07-28T09:10:36Z</time>
      </trkpt>
      <trkpt lat="49.33592" lon="6.00497">
        <ele>336.5</ele>
        <time>2021-07-28T09:10:37Z</time>
      </trkpt>
      <trkpt lat="49.3359" lon="6.00497">
        <ele>336.5</ele>
        <time>2021-07-28T09:10:39Z</time>
      </trkpt>
      <trkpt lat="49.33588" lon="6.00499">
        <ele>336.4</ele>
        <time>2021-07-28T09:10:40Z</time>
      </trkpt>
      <trkpt lat="49.33584" lon="6.00501">
        <ele>336.4</ele>
        <time>2021-07-28T09:10:41Z</time>
      </trkpt>
      <trkpt lat="49.33582" lon="6.00504">
        <ele>336.3</ele>
        <time>2021-07-28T09:10:42Z</time>
      </trkpt>
      <trkpt lat="49.33581" lon="6.00505">
        <ele>336.3</ele>
        <time>2021-07-28T09:10:43Z</time>
      </trkpt>
      <trkpt lat="49.33577" lon="6.00508">
        <ele>336.1</ele>
        <time>2021-07-28T09:10:45Z</time>
      </trkpt>
      <trkpt lat="49.33574" lon="6.0051">
        <ele>336.1</ele>
        <time>2021-07-28T09:10:46Z</time>
      </trkpt>
      <trkpt lat="49.33571" lon="6.00512">
        <ele>335.8</ele>
        <time>2021-07-28T09:10:47Z</time>
      </trkpt>
      <trkpt lat="49.33568" lon="6.00518">
        <ele>335.6</ele>
        <time>2021-07-28T09:10:48Z</time>
      </trkpt>
      <trkpt lat="49.33566" lon="6.00522">
        <ele>335.3</ele>
        <time>2021-07-28T09:10:49Z</time>
      </trkpt>
      <trkpt lat="49.33562" lon="6.0053">
        <ele>334.7</ele>
        <time>2021-07-28T09:10:51Z</time>
      </trkpt>
      <trkpt lat="49.33559" lon="6.00536">
        <ele>334.3</ele>
        <time>2021-07-28T09:10:52Z</time>
      </trkpt>
      <trkpt lat="49.33557" lon="6.0054">
        <ele>334.5</ele>
        <time>2021-07-28T09:10:53Z</time>
      </trkpt>
      <trkpt lat="49.33553" lon="6.0054">
        <ele>334.9</ele>
        <time>2021-07-28T09:10:55Z</time>
      </trkpt>
      <trkpt lat="49.33549" lon="6.00539">
        <ele>335.2</ele>
        <time>2021-07-28T09:10:56Z</time>
      </trkpt>
      <trkpt lat="49.33546" lon="6.0054">
        <ele>335.4</ele>
        <time>2021-07-28T09:10:57Z</time>
      </trkpt>
      <trkpt lat="49.33543" lon="6.0054">
        <ele>335.6</ele>
        <time>2021-07-28T09:10:58Z</time>
      </trkpt>
      <trkpt lat="49.33539" lon="6.00541">
        <ele>335.7</ele>
        <time>2021-07-28T09:10:59Z</time>
      </trkpt>
      <trkpt lat="49.33532" lon="6.00544">
        <ele>336.2</ele>
        <time>2021-07-28T09:11:01Z</time>
      </trkpt>
      <trkpt lat="49.3353" lon="6.00544">
        <ele>336.2</ele>
        <time>2021-07-28T09:11:02Z</time>
      </trkpt>
      <trkpt lat="49.33529" lon="6.00544">
        <ele>336.4</ele>
        <time>2021-07-28T09:11:03Z</time>
      </trkpt>
      <trkpt lat="49.33526" lon="6.00546">
        <ele>336.4</ele>
        <time>2021-07-28T09:11:04Z</time>
      </trkpt>
      <trkpt lat="49.33524" lon="6.00546">
        <ele>336.5</ele>
        <time>2021-07-28T09:11:05Z</time>
      </trkpt>
      <trkpt lat="49.33521" lon="6.0055">
        <ele>336.4</ele>
        <time>2021-07-28T09:11:07Z</time>
      </trkpt>
      <trkpt lat="49.33521" lon="6.00552">
        <ele>336.5</ele>
        <time>2021-07-28T09:11:08Z</time>
      </trkpt>
      <trkpt lat="49.3352" lon="6.00553">
        <ele>336.3</ele>
        <time>2021-07-28T09:11:09Z</time>
      </trkpt>
      <trkpt lat="49.33519" lon="6.00557">
        <ele>336.1</ele>
        <time>2021-07-28T09:11:10Z</time>
      </trkpt>
      <trkpt lat="49.33519" lon="6.00559">
        <ele>336.1</ele>
        <time>2021-07-28T09:11:11Z</time>
      </trkpt>
      <trkpt lat="49.33522" lon="6.00564">
        <ele>335.8</ele>
        <time>2021-07-28T09:11:13Z</time>
      </trkpt>
      <trkpt lat="49.33523" lon="6.00566">
        <ele>335.6</ele>
        <time>2021-07-28T09:11:15Z</time>
      </trkpt>
      <trkpt lat="49.33523" lon="6.00568">
        <ele>335.6</ele>
        <time>2021-07-28T09:11:16Z</time>
      </trkpt>
      <trkpt lat="49.33524" lon="6.0057">
        <ele>335.4</ele>
        <time>2021-07-28T09:11:18Z</time>
      </trkpt>
      <trkpt lat="49.33524" lon="6.00572">
        <ele>335.4</ele>
        <time>2021-07-28T09:11:19Z</time>
      </trkpt>
      <trkpt lat="49.33524" lon="6.00573">
        <ele>335.5</ele>
        <time>2021-07-28T09:11:20Z</time>
      </trkpt>
      <trkpt lat="49.33524" lon="6.00576">
        <ele>335.2</ele>
        <time>2021-07-28T09:11:21Z</time>
      </trkpt>
      <trkpt lat="49.33524" lon="6.00576">
        <ele>335.3</ele>
        <time>2021-07-28T09:11:22Z</time>
      </trkpt>
      <trkpt lat="49.33523" lon="6.0058">
        <ele>335</ele>
        <time>2021-07-28T09:11:24Z</time>
      </trkpt>
      <trkpt lat="49.33523" lon="6.0058">
        <ele>335.1</ele>
        <time>2021-07-28T09:11:25Z</time>
      </trkpt>
      <trkpt lat="49.33522" lon="6.00581">
        <ele>335.2</ele>
        <time>2021-07-28T09:11:26Z</time>
      </trkpt>
      <trkpt lat="49.33522" lon="6.00581">
        <ele>335.4</ele>
        <time>2021-07-28T09:11:27Z</time>
      </trkpt>
      <trkpt lat="49.33521" lon="6.00581">
        <ele>335.4</ele>
        <time>2021-07-28T09:11:29Z</time>
      </trkpt>
      <trkpt lat="49.33521" lon="6.00582">
        <ele>335.5</ele>
        <time>2021-07-28T09:11:30Z</time>
      </trkpt>
      <trkpt lat="49.3352" lon="6.00582">
        <ele>335.5</ele>
        <time>2021-07-28T09:11:31Z</time>
      </trkpt>
      <trkpt lat="49.3352" lon="6.00582">
        <ele>335.6</ele>
        <time>2021-07-28T09:11:32Z</time>
      </trkpt>
      <trkpt lat="49.33506" lon="6.00579">
        <ele>336.2</ele>
        <time>2021-07-28T09:11:34Z</time>
      </trkpt>
      <trkpt lat="49.33488" lon="6.00585">
        <ele>336.3</ele>
        <time>2021-07-28T09:11:43Z</time>
      </trkpt>
      <trkpt lat="49.33484" lon="6.00586">
        <ele>336.4</ele>
        <time>2021-07-28T09:11:44Z</time>
      </trkpt>
      <trkpt lat="49.33479" lon="6.00587">
        <ele>336.4</ele>
        <time>2021-07-28T09:11:46Z</time>
      </trkpt>
      <trkpt lat="49.33476" lon="6.00589">
        <ele>336.1</ele>
        <time>2021-07-28T09:11:47Z</time>
      </trkpt>
      <trkpt lat="49.33473" lon="6.00591">
        <ele>336.1</ele>
        <time>2021-07-28T09:11:48Z</time>
      </trkpt>
      <trkpt lat="49.33471" lon="6.00592">
        <ele>335.9</ele>
        <time>2021-07-28T09:11:49Z</time>
      </trkpt>
      <trkpt lat="49.33469" lon="6.00593">
        <ele>335.9</ele>
        <time>2021-07-28T09:11:51Z</time>
      </trkpt>
      <trkpt lat="49.33466" lon="6.00596">
        <ele>336</ele>
        <time>2021-07-28T09:11:52Z</time>
      </trkpt>
      <trkpt lat="49.33466" lon="6.00597">
        <ele>335.8</ele>
        <time>2021-07-28T09:11:53Z</time>
      </trkpt>
      <trkpt lat="49.33465" lon="6.00595">
        <ele>336</ele>
        <time>2021-07-28T09:11:55Z</time>
      </trkpt>
      <trkpt lat="49.33464" lon="6.00594">
        <ele>336.1</ele>
        <time>2021-07-28T09:11:56Z</time>
      </trkpt>
      <trkpt lat="49.33464" lon="6.00594">
        <ele>336.2</ele>
        <time>2021-07-28T09:11:58Z</time>
      </trkpt>
      <trkpt lat="49.33463" lon="6.00593">
        <ele>336.2</ele>
        <time>2021-07-28T09:12:00Z</time>
      </trkpt>
      <trkpt lat="49.33462" lon="6.00594">
        <ele>336.2</ele>
        <time>2021-07-28T09:12:01Z</time>
      </trkpt>
      <trkpt lat="49.33462" lon="6.00594">
        <ele>336.3</ele>
        <time>2021-07-28T09:12:03Z</time>
      </trkpt>
      <trkpt lat="49.33461" lon="6.00595">
        <ele>336.3</ele>
        <time>2021-07-28T09:12:04Z</time>
      </trkpt>
      <trkpt lat="49.3346" lon="6.00595">
        <ele>336.3</ele>
        <time>2021-07-28T09:12:05Z</time>
      </trkpt>
      <trkpt lat="49.33425" lon="6.00565">
        <ele>336.5</ele>
        <time>2021-07-28T09:13:07Z</time>
      </trkpt>
      <trkpt lat="49.3342" lon="6.0057">
        <ele>336.5</ele>
        <time>2021-07-28T09:13:09Z</time>
      </trkpt>
      <trkpt lat="49.33418" lon="6.00575">
        <ele>336.5</ele>
        <time>2021-07-28T09:13:11Z</time>
      </trkpt>
      <trkpt lat="49.33418" lon="6.00581">
        <ele>336.5</ele>
        <time>2021-07-28T09:13:13Z</time>
      </trkpt>
      <trkpt lat="49.33418" lon="6.00588">
        <ele>336.5</ele>
        <time>2021-07-28T09:13:15Z</time>
      </trkpt>
      <trkpt lat="49.33427" lon="6.00585">
        <ele>336.5</ele>
        <time>2021-07-28T09:13:17Z</time>
      </trkpt>
      <trkpt lat="49.33437" lon="6.00578">
        <ele>336.6</ele>
        <time>2021-07-28T09:13:18Z</time>
      </trkpt>
      <trkpt lat="49.33446" lon="6.00571">
        <ele>336.6</ele>
        <time>2021-07-28T09:13:19Z</time>
      </trkpt>
      <trkpt lat="49.33455" lon="6.00564">
        <ele>336.6</ele>
        <time>2021-07-28T09:16:23Z</time>
      </trkpt>
      <trkpt lat="49.33465" lon="6.00557">
        <ele>336.6</ele>
        <time>2021-07-28T09:16:25Z</time>
      </trkpt>
      <trkpt lat="49.33431" lon="6.00571">
        <ele>336.8</ele>
        <time>2021-07-28T09:17:09Z</time>
      </trkpt>
      <trkpt lat="49.33432" lon="6.0057">
        <ele>336.8</ele>
        <time>2021-07-28T09:17:10Z</time>
      </trkpt>
      <trkpt lat="49.33434" lon="6.00569">
        <ele>336.8</ele>
        <time>2021-07-28T09:17:11Z</time>
      </trkpt>
      <trkpt lat="49.33435" lon="6.00569">
        <ele>336.8</ele>
        <time>2021-07-28T09:17:12Z</time>
      </trkpt>
      <trkpt lat="49.33436" lon="6.00568">
        <ele>336.8</ele>
        <time>2021-07-28T09:17:14Z</time>
      </trkpt>
      <trkpt lat="49.33438" lon="6.00567">
        <ele>336.8</ele>
        <time>2021-07-28T09:17:15Z</time>
      </trkpt>
      <trkpt lat="49.33438" lon="6.00567">
        <ele>336.8</ele>
        <time>2021-07-28T09:17:17Z</time>
      </trkpt>
      <trkpt lat="49.33439" lon="6.00568">
        <ele>336.8</ele>
        <time>2021-07-28T09:17:19Z</time>
      </trkpt>
      <trkpt lat="49.3344" lon="6.00569">
        <ele>336.8</ele>
        <time>2021-07-28T09:17:20Z</time>
      </trkpt>
      <trkpt lat="49.3344" lon="6.00571">
        <ele>336.8</ele>
        <time>2021-07-28T09:17:22Z</time>
      </trkpt>
      <trkpt lat="49.3344" lon="6.00571">
        <ele>336.8</ele>
        <time>2021-07-28T09:17:23Z</time>
      </trkpt>
      <trkpt lat="49.33439" lon="6.00572">
        <ele>336.8</ele>
        <time>2021-07-28T09:17:24Z</time>
      </trkpt>
      <trkpt lat="49.33439" lon="6.00573">
        <ele>336.8</ele>
        <time>2021-07-28T09:17:26Z</time>
      </trkpt>
      <trkpt lat="49.33439" lon="6.00574">
        <ele>336.8</ele>
        <time>2021-07-28T09:17:27Z</time>
      </trkpt>
      <trkpt lat="49.33438" lon="6.00575">
        <ele>336.8</ele>
        <time>2021-07-28T09:17:29Z</time>
      </trkpt>
      <trkpt lat="49.33438" lon="6.00576">
        <ele>336.8</ele>
        <time>2021-07-28T09:17:30Z</time>
      </trkpt>
      <trkpt lat="49.33438" lon="6.00577">
        <ele>336.8</ele>
        <time>2021-07-28T09:17:31Z</time>
      </trkpt>
      <trkpt lat="49.33437" lon="6.00578">
        <ele>336.8</ele>
        <time>2021-07-28T09:17:33Z</time>
      </trkpt>
      <trkpt lat="49.33437" lon="6.00579">
        <ele>336.8</ele>
        <time>2021-07-28T09:17:34Z</time>
      </trkpt>
      <trkpt lat="49.33437" lon="6.0058">
        <ele>336.8</ele>
        <time>2021-07-28T09:17:35Z</time>
      </trkpt>
      <trkpt lat="49.33436" lon="6.00581">
        <ele>336.8</ele>
        <time>2021-07-28T09:17:37Z</time>
      </trkpt>
      <trkpt lat="49.33436" lon="6.00582">
        <ele>336.9</ele>
        <time>2021-07-28T09:17:38Z</time>
      </trkpt>
      <trkpt lat="49.33431" lon="6.00594">
        <ele>336.9</ele>
        <time>2021-07-28T09:17:40Z</time>
      </trkpt>
      <trkpt lat="49.3343" lon="6.00595">
        <ele>336.9</ele>
        <time>2021-07-28T09:17:42Z</time>
      </trkpt>
      <trkpt lat="49.3343" lon="6.00593">
        <ele>336.9</ele>
        <time>2021-07-28T09:17:44Z</time>
      </trkpt>
      <trkpt lat="49.3343" lon="6.00592">
        <ele>336.9</ele>
        <time>2021-07-28T09:17:46Z</time>
      </trkpt>
      <trkpt lat="49.33429" lon="6.00591">
        <ele>336.9</ele>
        <time>2021-07-28T09:17:47Z</time>
      </trkpt>
      <trkpt lat="49.33429" lon="6.0059">
        <ele>336.9</ele>
        <time>2021-07-28T09:17:48Z</time>
      </trkpt>
      <trkpt lat="49.33427" lon="6.00589">
        <ele>336.9</ele>
        <time>2021-07-28T09:17:50Z</time>
      </trkpt>
      <trkpt lat="49.33427" lon="6.00589">
        <ele>336.9</ele>
        <time>2021-07-28T09:17:52Z</time>
      </trkpt>
      <trkpt lat="49.33427" lon="6.00589">
        <ele>336.9</ele>
        <time>2021-07-28T09:17:54Z</time>
      </trkpt>
      <trkpt lat="49.33427" lon="6.00589">
        <ele>336.9</ele>
        <time>2021-07-28T09:17:55Z</time>
      </trkpt>
      <trkpt lat="49.33427" lon="6.00589">
        <ele>336.9</ele>
        <time>2021-07-28T09:17:57Z</time>
      </trkpt>
      <trkpt lat="49.33427" lon="6.00589">
        <ele>336.9</ele>
        <time>2021-07-28T09:17:58Z</time>
      </trkpt>
      <trkpt lat="49.33427" lon="6.00589">
        <ele>336.9</ele>
        <time>2021-07-28T09:17:59Z</time>
      </trkpt>
      <trkpt lat="49.33427" lon="6.00589">
        <ele>336.9</ele>
        <time>2021-07-28T09:18:00Z</time>
      </trkpt>
      <trkpt lat="49.33427" lon="6.00589">
        <ele>336.9</ele>
        <time>2021-07-28T09:18:01Z</time>
      </trkpt>
      <trkpt lat="49.33427" lon="6.00589">
        <ele>336.9</ele>
        <time>2021-07-28T09:18:03Z</time>
      </trkpt>
      <trkpt lat="49.33427" lon="6.00589">
        <ele>336.9</ele>
        <time>2021-07-28T09:18:04Z</time>
      </trkpt>
      <trkpt lat="49.33427" lon="6.00589">
        <ele>336.9</ele>
        <time>2021-07-28T09:18:05Z</time>
      </trkpt>
      <trkpt lat="49.33428" lon="6.0059">
        <ele>337</ele>
        <time>2021-07-28T09:18:07Z</time>
      </trkpt>
      <trkpt lat="49.33428" lon="6.00591">
        <ele>337</ele>
        <time>2021-07-28T09:18:09Z</time>
      </trkpt>
      <trkpt lat="49.33428" lon="6.0059">
        <ele>337</ele>
        <time>2021-07-28T09:18:10Z</time>
      </trkpt>
      <trkpt lat="49.33427" lon="6.00589">
        <ele>337</ele>
        <time>2021-07-28T09:18:11Z</time>
      </trkpt>
      <trkpt lat="49.33429" lon="6.00583">
        <ele>337</ele>
        <time>2021-07-28T09:18:13Z</time>
      </trkpt>
      <trkpt lat="49.33429" lon="6.00582">
        <ele>337</ele>
        <time>2021-07-28T09:18:14Z</time>
      </trkpt>
      <trkpt lat="49.33429" lon="6.00582">
        <ele>337</ele>
        <time>2021-07-28T09:18:16Z</time>
      </trkpt>
      <trkpt lat="49.33429" lon="6.00581">
        <ele>337</ele>
        <time>2021-07-28T09:18:17Z</time>
      </trkpt>
      <trkpt lat="49.33433" lon="6.00577">
        <ele>337</ele>
        <time>2021-07-28T09:18:19Z</time>
      </trkpt>
      <trkpt lat="49.33438" lon="6.0057">
        <ele>337.1</ele>
        <time>2021-07-28T09:18:21Z</time>
      </trkpt>
      <trkpt lat="49.33438" lon="6.00568">
        <ele>337.1</ele>
        <time>2021-07-28T09:18:22Z</time>
      </trkpt>
      <trkpt lat="49.33438" lon="6.00568">
        <ele>337.1</ele>
        <time>2021-07-28T09:18:23Z</time>
      </trkpt>
      <trkpt lat="49.33438" lon="6.00568">
        <ele>337.1</ele>
        <time>2021-07-28T09:18:24Z</time>
      </trkpt>
      <trkpt lat="49.33438" lon="6.00568">
        <ele>337.1</ele>
        <time>2021-07-28T09:18:25Z</time>
      </trkpt>
      <trkpt lat="49.33438" lon="6.00568">
        <ele>337.1</ele>
        <time>2021-07-28T09:18:27Z</time>
      </trkpt>
      <trkpt lat="49.33438" lon="6.00568">
        <ele>337.1</ele>
        <time>2021-07-28T09:18:28Z</time>
      </trkpt>
      <trkpt lat="49.33438" lon="6.00568">
        <ele>337.1</ele>
        <time>2021-07-28T09:18:29Z</time>
      </trkpt>
      <trkpt lat="49.33438" lon="6.00568">
        <ele>337.1</ele>
        <time>2021-07-28T09:18:31Z</time>
      </trkpt>
      <trkpt lat="49.33438" lon="6.00568">
        <ele>337.1</ele>
        <time>2021-07-28T09:18:33Z</time>
      </trkpt>
      <trkpt lat="49.33438" lon="6.00568">
        <ele>337.1</ele>
        <time>2021-07-28T09:18:35Z</time>
      </trkpt>
      <trkpt lat="49.33438" lon="6.00568">
        <ele>337.1</ele>
        <time>2021-07-28T09:18:37Z</time>
      </trkpt>
      <trkpt lat="49.33438" lon="6.00568">
        <ele>337.1</ele>
        <time>2021-07-28T09:18:39Z</time>
      </trkpt>
      <trkpt lat="49.33438" lon="6.00568">
        <ele>337.1</ele>
        <time>2021-07-28T09:18:40Z</time>
      </trkpt>
      <trkpt lat="49.33438" lon="6.00568">
        <ele>337.1</ele>
        <time>2021-07-28T09:18:42Z</time>
      </trkpt>
      <trkpt lat="49.33438" lon="6.00568">
        <ele>337.1</ele>
        <time>2021-07-28T09:18:44Z</time>
      </trkpt>
      <trkpt lat="49.33438" lon="6.00568">
        <ele>337.1</ele>
        <time>2021-07-28T09:18:45Z</time>
      </trkpt>
      <trkpt lat="49.33438" lon="6.00568">
        <ele>337.1</ele>
        <time>2021-07-28T09:18:47Z</time>
      </trkpt>
      <trkpt lat="49.33438" lon="6.00568">
        <ele>337.1</ele>
        <time>2021-07-28T09:18:49Z</time>
      </trkpt>
      <trkpt lat="49.33438" lon="6.00568">
        <ele>337.1</ele>
        <time>2021-07-28T09:18:51Z</time>
      </trkpt>
      <trkpt lat="49.33438" lon="6.00568">
        <ele>337.1</ele>
        <time>2021-07-28T09:18:52Z</time>
      </trkpt>
      <trkpt lat="49.33438" lon="6.00568">
        <ele>337.1</ele>
        <time>2021-07-28T09:18:53Z</time>
      </trkpt>
      <trkpt lat="49.33438" lon="6.00568">
        <ele>337.1</ele>
        <time>2021-07-28T09:18:55Z</time>
      </trkpt>
      <trkpt lat="49.33438" lon="6.00568">
        <ele>337.1</ele>
        <time>2021-07-28T09:18:57Z</time>
      </trkpt>
      <trkpt lat="49.33438" lon="6.00568">
        <ele>337.1</ele>
        <time>2021-07-28T09:18:58Z</time>
      </trkpt>
      <trkpt lat="49.33438" lon="6.00568">
        <ele>337.1</ele>
        <time>2021-07-28T09:18:59Z</time>
      </trkpt>
      <trkpt lat="49.33438" lon="6.00568">
        <ele>337.1</ele>
        <time>2021-07-28T09:19:00Z</time>
      </trkpt>
      <trkpt lat="49.33438" lon="6.00568">
        <ele>337.1</ele>
        <time>2021-07-28T09:19:02Z</time>
      </trkpt>
      <trkpt lat="49.33438" lon="6.00568">
        <ele>337.1</ele>
        <time>2021-07-28T09:19:03Z</time>
      </trkpt>
      <trkpt lat="49.33438" lon="6.00568">
        <ele>337.1</ele>
        <time>2021-07-28T09:19:05Z</time>
      </trkpt>
      <trkpt lat="49.33438" lon="6.00568">
        <ele>337.1</ele>
        <time>2021-07-28T09:19:07Z</time>
      </trkpt>
      <trkpt lat="49.33438" lon="6.00568">
        <ele>337.1</ele>
        <time>2021-07-28T09:19:09Z</time>
      </trkpt>
      <trkpt lat="49.33438" lon="6.00568">
        <ele>337.1</ele>
        <time>2021-07-28T09:19:10Z</time>
      </trkpt>
      <trkpt lat="49.33438" lon="6.00568">
        <ele>337.1</ele>
        <time>2021-07-28T09:19:11Z</time>
      </trkpt>
      <trkpt lat="49.33438" lon="6.00568">
        <ele>337.1</ele>
        <time>2021-07-28T09:19:13Z</time>
      </trkpt>
      <trkpt lat="49.33438" lon="6.00568">
        <ele>337.1</ele>
        <time>2021-07-28T09:19:15Z</time>
      </trkpt>
      <trkpt lat="49.33438" lon="6.00568">
        <ele>337.1</ele>
        <time>2021-07-28T09:19:17Z</time>
      </trkpt>
      <trkpt lat="49.33438" lon="6.00568">
        <ele>337.1</ele>
        <time>2021-07-28T09:19:18Z</time>
      </trkpt>
      <trkpt lat="49.33438" lon="6.00568">
        <ele>337.1</ele>
        <time>2021-07-28T09:19:19Z</time>
      </trkpt>
      <trkpt lat="49.33438" lon="6.00568">
        <ele>337.1</ele>
        <time>2021-07-28T09:19:21Z</time>
      </trkpt>
      <trkpt lat="49.33438" lon="6.00568">
        <ele>337.1</ele>
        <time>2021-07-28T09:19:23Z</time>
      </trkpt>
      <trkpt lat="49.33438" lon="6.00568">
        <ele>337.1</ele>
        <time>2021-07-28T09:19:24Z</time>
      </trkpt>
      <trkpt lat="49.33438" lon="6.00568">
        <ele>337.1</ele>
        <time>2021-07-28T09:19:26Z</time>
      </trkpt>
      <trkpt lat="49.33438" lon="6.00568">
        <ele>337.1</ele>
        <time>2021-07-28T09:19:28Z</time>
      </trkpt>
      <trkpt lat="49.33438" lon="6.00568">
        <ele>337.1</ele>
        <time>2021-07-28T09:19:30Z</time>
      </trkpt>
      <trkpt lat="49.33438" lon="6.00568">
        <ele>337.1</ele>
        <time>2021-07-28T09:19:32Z</time>
      </trkpt>
      <trkpt lat="49.33438" lon="6.00568">
        <ele>337.1</ele>
        <time>2021-07-28T09:19:33Z</time>
      </trkpt>
      <trkpt lat="49.33438" lon="6.00568">
        <ele>337.1</ele>
        <time>2021-07-28T09:19:35Z</time>
      </trkpt>
      <trkpt lat="49.33438" lon="6.00568">
        <ele>337.1</ele>
        <time>2021-07-28T09:19:36Z</time>
      </trkpt>
      <trkpt lat="49.33438" lon="6.00568">
        <ele>337.1</ele>
        <time>2021-07-28T09:19:38Z</time>
      </trkpt>
      <trkpt lat="49.33435" lon="6.0056">
        <ele>337.1</ele>
        <time>2021-07-28T09:19:40Z</time>
      </trkpt>
      <trkpt lat="49.33434" lon="6.00557">
        <ele>337.1</ele>
        <time>2021-07-28T09:19:42Z</time>
      </trkpt>
      <trkpt lat="49.33434" lon="6.00558">
        <ele>337.1</ele>
        <time>2021-07-28T09:19:44Z</time>
      </trkpt>
      <trkpt lat="49.33434" lon="6.00558">
        <ele>337.1</ele>
        <time>2021-07-28T09:19:46Z</time>
      </trkpt>
      <trkpt lat="49.33434" lon="6.00559">
        <ele>337.1</ele>
        <time>2021-07-28T09:19:47Z</time>
      </trkpt>
      <trkpt lat="49.33434" lon="6.0056">
        <ele>337.2</ele>
        <time>2021-07-28T09:19:49Z</time>
      </trkpt>
      <trkpt lat="49.33434" lon="6.00561">
        <ele>337.2</ele>
        <time>2021-07-28T09:19:50Z</time>
      </trkpt>
      <trkpt lat="49.33435" lon="6.00561">
        <ele>337.2</ele>
        <time>2021-07-28T09:19:52Z</time>
      </trkpt>
      <trkpt lat="49.33435" lon="6.00562">
        <ele>337.2</ele>
        <time>2021-07-28T09:19:53Z</time>
      </trkpt>
      <trkpt lat="49.33438" lon="6.00569">
        <ele>337.2</ele>
        <time>2021-07-28T09:19:55Z</time>
      </trkpt>
      <trkpt lat="49.33439" lon="6.00571">
        <ele>337.2</ele>
        <time>2021-07-28T09:19:56Z</time>
      </trkpt>
      <trkpt lat="49.33439" lon="6.00572">
        <ele>337.2</ele>
        <time>2021-07-28T09:19:57Z</time>
      </trkpt>
      <trkpt lat="49.3344" lon="6.00572">
        <ele>337.2</ele>
        <time>2021-07-28T09:19:59Z</time>
      </trkpt>
      <trkpt lat="49.3344" lon="6.00572">
        <ele>337.2</ele>
        <time>2021-07-28T09:20:00Z</time>
      </trkpt>
      <trkpt lat="49.3344" lon="6.00573">
        <ele>337.2</ele>
        <time>2021-07-28T09:20:02Z</time>
      </trkpt>
      <trkpt lat="49.3344" lon="6.00573">
        <ele>337.2</ele>
        <time>2021-07-28T09:20:04Z</time>
      </trkpt>
      <trkpt lat="49.3344" lon="6.00573">
        <ele>337.2</ele>
        <time>2021-07-28T09:20:05Z</time>
      </trkpt>
      <trkpt lat="49.3344" lon="6.00573">
        <ele>337.2</ele>
        <time>2021-07-28T09:20:07Z</time>
      </trkpt>
      <trkpt lat="49.3344" lon="6.00573">
        <ele>337.2</ele>
        <time>2021-07-28T09:20:08Z</time>
      </trkpt>
      <trkpt lat="49.3344" lon="6.00573">
        <ele>337.2</ele>
        <time>2021-07-28T09:20:10Z</time>
      </trkpt>
      <trkpt lat="49.3344" lon="6.00573">
        <ele>337.2</ele>
        <time>2021-07-28T09:20:12Z</time>
      </trkpt>
      <trkpt lat="49.3344" lon="6.00573">
        <ele>337.2</ele>
        <time>2021-07-28T09:20:14Z</time>
      </trkpt>
      <trkpt lat="49.3344" lon="6.00573">
        <ele>337.2</ele>
        <time>2021-07-28T09:20:16Z</time>
      </trkpt>
      <trkpt lat="49.3344" lon="6.00573">
        <ele>337.2</ele>
        <time>2021-07-28T09:20:17Z</time>
      </trkpt>
      <trkpt lat="49.3344" lon="6.00573">
        <ele>337.2</ele>
        <time>2021-07-28T09:20:19Z</time>
      </trkpt>
      <trkpt lat="49.3344" lon="6.00573">
        <ele>337.2</ele>
        <time>2021-07-28T09:20:20Z</time>
      </trkpt>
      <trkpt lat="49.3344" lon="6.00573">
        <ele>337.2</ele>
        <time>2021-07-28T09:20:21Z</time>
      </trkpt>
      <trkpt lat="49.3344" lon="6.00573">
        <ele>337.2</ele>
        <time>2021-07-28T09:20:22Z</time>
      </trkpt>
      <trkpt lat="49.3344" lon="6.00573">
        <ele>337.2</ele>
        <time>2021-07-28T09:20:23Z</time>
      </trkpt>
      <trkpt lat="49.3344" lon="6.00573">
        <ele>337.2</ele>
        <time>2021-07-28T09:20:24Z</time>
      </trkpt>
      <trkpt lat="49.3344" lon="6.00573">
        <ele>337.2</ele>
        <time>2021-07-28T09:20:26Z</time>
      </trkpt>
      <trkpt lat="49.3344" lon="6.00573">
        <ele>337.2</ele>
        <time>2021-07-28T09:20:27Z</time>
      </trkpt>
      <trkpt lat="49.3344" lon="6.00573">
        <ele>337.2</ele>
        <time>2021-07-28T09:20:29Z</time>
      </trkpt>
      <trkpt lat="49.3344" lon="6.00573">
        <ele>337.2</ele>
        <time>2021-07-28T09:20:30Z</time>
      </trkpt>
      <trkpt lat="49.3344" lon="6.00573">
        <ele>337.2</ele>
        <time>2021-07-28T09:20:32Z</time>
      </trkpt>
      <trkpt lat="49.3344" lon="6.00573">
        <ele>337.2</ele>
        <time>2021-07-28T09:20:33Z</time>
      </trkpt>
      <trkpt lat="49.3344" lon="6.00573">
        <ele>337.2</ele>
        <time>2021-07-28T09:20:34Z</time>
      </trkpt>
      <trkpt lat="49.3344" lon="6.00573">
        <ele>337.2</ele>
        <time>2021-07-28T09:20:35Z</time>
      </trkpt>
      <trkpt lat="49.3344" lon="6.00573">
        <ele>337.2</ele>
        <time>2021-07-28T09:20:37Z</time>
      </trkpt>
      <trkpt lat="49.3344" lon="6.00573">
        <ele>337.2</ele>
        <time>2021-07-28T09:20:38Z</time>
      </trkpt>
      <trkpt lat="49.33446" lon="6.00568">
        <ele>337.3</ele>
        <time>2021-07-28T09:20:40Z</time>
      </trkpt>
      <trkpt lat="49.33448" lon="6.00566">
        <ele>337.3</ele>
        <time>2021-07-28T09:20:41Z</time>
      </trkpt>
      <trkpt lat="49.33448" lon="6.00567">
        <ele>337.3</ele>
        <time>2021-07-28T09:20:43Z</time>
      </trkpt>
      <trkpt lat="49.33448" lon="6.00567">
        <ele>337.3</ele>
        <time>2021-07-28T09:20:44Z</time>
      </trkpt>
      <trkpt lat="49.33448" lon="6.00567">
        <ele>337.3</ele>
        <time>2021-07-28T09:20:46Z</time>
      </trkpt>
      <trkpt lat="49.33448" lon="6.00567">
        <ele>337.3</ele>
        <time>2021-07-28T09:20:47Z</time>
      </trkpt>
      <trkpt lat="49.33448" lon="6.00568">
        <ele>337.3</ele>
        <time>2021-07-28T09:20:49Z</time>
      </trkpt>
      <trkpt lat="49.33448" lon="6.00568">
        <ele>337.3</ele>
        <time>2021-07-28T09:20:50Z</time>
      </trkpt>
      <trkpt lat="49.33448" lon="6.00568">
        <ele>337.3</ele>
        <time>2021-07-28T09:20:51Z</time>
      </trkpt>
      <trkpt lat="49.33448" lon="6.00568">
        <ele>337.3</ele>
        <time>2021-07-28T09:20:53Z</time>
      </trkpt>
      <trkpt lat="49.33448" lon="6.00568">
        <ele>337.3</ele>
        <time>2021-07-28T09:20:55Z</time>
      </trkpt>
      <trkpt lat="49.33448" lon="6.00569">
        <ele>337.3</ele>
        <time>2021-07-28T09:20:57Z</time>
      </trkpt>
      <trkpt lat="49.33449" lon="6.00569">
        <ele>337.3</ele>
        <time>2021-07-28T09:20:58Z</time>
      </trkpt>
      <trkpt lat="49.33449" lon="6.00569">
        <ele>337.3</ele>
        <time>2021-07-28T09:21:00Z</time>
      </trkpt>
      <trkpt lat="49.33449" lon="6.00569">
        <ele>337.3</ele>
        <time>2021-07-28T09:21:01Z</time>
      </trkpt>
      <trkpt lat="49.33449" lon="6.00569">
        <ele>337.3</ele>
        <time>2021-07-28T09:21:03Z</time>
      </trkpt>
      <trkpt lat="49.33449" lon="6.0057">
        <ele>337.3</ele>
        <time>2021-07-28T09:21:04Z</time>
      </trkpt>
      <trkpt lat="49.33449" lon="6.0057">
        <ele>337.3</ele>
        <time>2021-07-28T09:21:05Z</time>
      </trkpt>
      <trkpt lat="49.33449" lon="6.0057">
        <ele>337.3</ele>
        <time>2021-07-28T09:21:07Z</time>
      </trkpt>
      <trkpt lat="49.33449" lon="6.0057">
        <ele>337.3</ele>
        <time>2021-07-28T09:21:09Z</time>
      </trkpt>
      <trkpt lat="49.33449" lon="6.0057">
        <ele>337.3</ele>
        <time>2021-07-28T09:21:10Z</time>
      </trkpt>
      <trkpt lat="49.33449" lon="6.00571">
        <ele>337.3</ele>
        <time>2021-07-28T09:21:11Z</time>
      </trkpt>
      <trkpt lat="49.33449" lon="6.00571">
        <ele>337.3</ele>
        <time>2021-07-28T09:21:13Z</time>
      </trkpt>
      <trkpt lat="49.33449" lon="6.00571">
        <ele>337.3</ele>
        <time>2021-07-28T09:21:14Z</time>
      </trkpt>
      <trkpt lat="49.33449" lon="6.00577">
        <ele>337.3</ele>
        <time>2021-07-28T09:21:16Z</time>
      </trkpt>
      <trkpt lat="49.33449" lon="6.0058">
        <ele>337.3</ele>
        <time>2021-07-28T09:21:18Z</time>
      </trkpt>
      <trkpt lat="49.33449" lon="6.0058">
        <ele>337.3</ele>
        <time>2021-07-28T09:21:19Z</time>
      </trkpt>
      <trkpt lat="49.33449" lon="6.0058">
        <ele>337.3</ele>
        <time>2021-07-28T09:21:20Z</time>
      </trkpt>
      <trkpt lat="49.33449" lon="6.00581">
        <ele>337.3</ele>
        <time>2021-07-28T09:21:22Z</time>
      </trkpt>
      <trkpt lat="49.33449" lon="6.00581">
        <ele>337.3</ele>
        <time>2021-07-28T09:21:23Z</time>
      </trkpt>
      <trkpt lat="49.33449" lon="6.00581">
        <ele>337.3</ele>
        <time>2021-07-28T09:21:25Z</time>
      </trkpt>
      <trkpt lat="49.33449" lon="6.00581">
        <ele>337.3</ele>
        <time>2021-07-28T09:21:27Z</time>
      </trkpt>
      <trkpt lat="49.33449" lon="6.00581">
        <ele>337.3</ele>
        <time>2021-07-28T09:21:28Z</time>
      </trkpt>
      <trkpt lat="49.33449" lon="6.00581">
        <ele>337.3</ele>
        <time>2021-07-28T09:21:29Z</time>
      </trkpt>
      <trkpt lat="49.33449" lon="6.00581">
        <ele>337.3</ele>
        <time>2021-07-28T09:21:31Z</time>
      </trkpt>
      <trkpt lat="49.33449" lon="6.00581">
        <ele>337.3</ele>
        <time>2021-07-28T09:21:32Z</time>
      </trkpt>
      <trkpt lat="49.33449" lon="6.00581">
        <ele>337.3</ele>
        <time>2021-07-28T09:21:34Z</time>
      </trkpt>
      <trkpt lat="49.33449" lon="6.00581">
        <ele>337.3</ele>
        <time>2021-07-28T09:21:35Z</time>
      </trkpt>
      <trkpt lat="49.33449" lon="6.00581">
        <ele>337.3</ele>
        <time>2021-07-28T09:21:37Z</time>
      </trkpt>
      <trkpt lat="49.33449" lon="6.00581">
        <ele>337.3</ele>
        <time>2021-07-28T09:21:38Z</time>
      </trkpt>
      <trkpt lat="49.33449" lon="6.00581">
        <ele>337.3</ele>
        <time>2021-07-28T09:21:40Z</time>
      </trkpt>
      <trkpt lat="49.33449" lon="6.00581">
        <ele>337.3</ele>
        <time>2021-07-28T09:21:41Z</time>
      </trkpt>
      <trkpt lat="49.33449" lon="6.00581">
        <ele>337.3</ele>
        <time>2021-07-28T09:21:43Z</time>
      </trkpt>
      <trkpt lat="49.33449" lon="6.00581">
        <ele>337.3</ele>
        <time>2021-07-28T09:21:44Z</time>
      </trkpt>
      <trkpt lat="49.33449" lon="6.00581">
        <ele>337.3</ele>
        <time>2021-07-28T09:21:46Z</time>
      </trkpt>
      <trkpt lat="49.33447" lon="6.0058">
        <ele>337.4</ele>
        <time>2021-07-28T09:21:48Z</time>
      </trkpt>
      <trkpt lat="49.33445" lon="6.0058">
        <ele>337.4</ele>
        <time>2021-07-28T09:21:49Z</time>
      </trkpt>
      <trkpt lat="49.33444" lon="6.00581">
        <ele>337.4</ele>
        <time>2021-07-28T09:21:50Z</time>
      </trkpt>
      <trkpt lat="49.33444" lon="6.00582">
        <ele>337.4</ele>
        <time>2021-07-28T09:21:52Z</time>
      </trkpt>
      <trkpt lat="49.33443" lon="6.00582">
        <ele>337.4</ele>
        <time>2021-07-28T09:21:54Z</time>
      </trkpt>
      <trkpt lat="49.33443" lon="6.00582">
        <ele>337.4</ele>
        <time>2021-07-28T09:21:55Z</time>
      </trkpt>
      <trkpt lat="49.33442" lon="6.00582">
        <ele>337.4</ele>
        <time>2021-07-28T09:21:56Z</time>
      </trkpt>
      <trkpt lat="49.33442" lon="6.00582">
        <ele>337.4</ele>
        <time>2021-07-28T09:21:58Z</time>
      </trkpt>
      <trkpt lat="49.33442" lon="6.00583">
        <ele>337.4</ele>
        <time>2021-07-28T09:22:00Z</time>
      </trkpt>
      <trkpt lat="49.33442" lon="6.00583">
        <ele>337.4</ele>
        <time>2021-07-28T09:22:01Z</time>
      </trkpt>
      <trkpt lat="49.33442" lon="6.00583">
        <ele>337.4</ele>
        <time>2021-07-28T09:22:03Z</time>
      </trkpt>
      <trkpt lat="49.33442" lon="6.00583">
        <ele>337.4</ele>
        <time>2021-07-28T09:22:04Z</time>
      </trkpt>
      <trkpt lat="49.33442" lon="6.00583">
        <ele>337.4</ele>
        <time>2021-07-28T09:22:05Z</time>
      </trkpt>
      <trkpt lat="49.33442" lon="6.00583">
        <ele>337.4</ele>
        <time>2021-07-28T09:22:07Z</time>
      </trkpt>
      <trkpt lat="49.33442" lon="6.00583">
        <ele>337.4</ele>
        <time>2021-07-28T09:22:08Z</time>
      </trkpt>
      <trkpt lat="49.33442" lon="6.00583">
        <ele>337.4</ele>
        <time>2021-07-28T09:22:10Z</time>
      </trkpt>
      <trkpt lat="49.33442" lon="6.00583">
        <ele>337.4</ele>
        <time>2021-07-28T09:22:11Z</time>
      </trkpt>
      <trkpt lat="49.33442" lon="6.00583">
        <ele>337.4</ele>
        <time>2021-07-28T09:22:12Z</time>
      </trkpt>
      <trkpt lat="49.33442" lon="6.00583">
        <ele>337.4</ele>
        <time>2021-07-28T09:22:14Z</time>
      </trkpt>
      <trkpt lat="49.33442" lon="6.00583">
        <ele>337.4</ele>
        <time>2021-07-28T09:22:15Z</time>
      </trkpt>
      <trkpt lat="49.33442" lon="6.00583">
        <ele>337.4</ele>
        <time>2021-07-28T09:22:17Z</time>
      </trkpt>
      <trkpt lat="49.33442" lon="6.00583">
        <ele>337.4</ele>
        <time>2021-07-28T09:22:18Z</time>
      </trkpt>
      <trkpt lat="49.33442" lon="6.00583">
        <ele>337.4</ele>
        <time>2021-07-28T09:22:20Z</time>
      </trkpt>
      <trkpt lat="49.33442" lon="6.00583">
        <ele>337.4</ele>
        <time>2021-07-28T09:22:21Z</time>
      </trkpt>
      <trkpt lat="49.33442" lon="6.00583">
        <ele>337.4</ele>
        <time>2021-07-28T09:22:22Z</time>
      </trkpt>
      <trkpt lat="49.33442" lon="6.00583">
        <ele>337.4</ele>
        <time>2021-07-28T09:22:24Z</time>
      </trkpt>
      <trkpt lat="49.33442" lon="6.00583">
        <ele>337.4</ele>
        <time>2021-07-28T09:22:25Z</time>
      </trkpt>
      <trkpt lat="49.33442" lon="6.00583">
        <ele>337.4</ele>
        <time>2021-07-28T09:22:26Z</time>
      </trkpt>
      <trkpt lat="49.33442" lon="6.00583">
        <ele>337.4</ele>
        <time>2021-07-28T09:22:28Z</time>
      </trkpt>
      <trkpt lat="49.33443" lon="6.00579">
        <ele>337.4</ele>
        <time>2021-07-28T09:22:30Z</time>
      </trkpt>
      <trkpt lat="49.33444" lon="6.00578">
        <ele>337.4</ele>
        <time>2021-07-28T09:22:31Z</time>
      </trkpt>
      <trkpt lat="49.33444" lon="6.00576">
        <ele>337.4</ele>
        <time>2021-07-28T09:22:33Z</time>
      </trkpt>
      <trkpt lat="49.33444" lon="6.00576">
        <ele>337.4</ele>
        <time>2021-07-28T09:22:34Z</time>
      </trkpt>
      <trkpt lat="49.33444" lon="6.00576">
        <ele>337.4</ele>
        <time>2021-07-28T09:22:36Z</time>
      </trkpt>
      <trkpt lat="49.33444" lon="6.00576">
        <ele>337.4</ele>
        <time>2021-07-28T09:22:37Z</time>
      </trkpt>
      <trkpt lat="49.33444" lon="6.00576">
        <ele>337.4</ele>
        <time>2021-07-28T09:22:38Z</time>
      </trkpt>
      <trkpt lat="49.33439" lon="6.00573">
        <ele>337.5</ele>
        <time>2021-07-28T09:22:40Z</time>
      </trkpt>
      <trkpt lat="49.33437" lon="6.00573">
        <ele>337.5</ele>
        <time>2021-07-28T09:22:42Z</time>
      </trkpt>
      <trkpt lat="49.33437" lon="6.00573">
        <ele>337.5</ele>
        <time>2021-07-28T09:22:44Z</time>
      </trkpt>
      <trkpt lat="49.33437" lon="6.00573">
        <ele>337.5</ele>
        <time>2021-07-28T09:22:45Z</time>
      </trkpt>
      <trkpt lat="49.33437" lon="6.00573">
        <ele>337.5</ele>
        <time>2021-07-28T09:22:46Z</time>
      </trkpt>
      <trkpt lat="49.33437" lon="6.00573">
        <ele>337.5</ele>
        <time>2021-07-28T09:22:48Z</time>
      </trkpt>
      <trkpt lat="49.33437" lon="6.00573">
        <ele>337.5</ele>
        <time>2021-07-28T09:22:49Z</time>
      </trkpt>
      <trkpt lat="49.33439" lon="6.00575">
        <ele>337.5</ele>
        <time>2021-07-28T09:22:51Z</time>
      </trkpt>
      <trkpt lat="49.3344" lon="6.00578">
        <ele>337.5</ele>
        <time>2021-07-28T09:22:53Z</time>
      </trkpt>
      <trkpt lat="49.33441" lon="6.0058">
        <ele>337.5</ele>
        <time>2021-07-28T09:22:54Z</time>
      </trkpt>
      <trkpt lat="49.33441" lon="6.0058">
        <ele>337.5</ele>
        <time>2021-07-28T09:22:55Z</time>
      </trkpt>
      <trkpt lat="49.33441" lon="6.00581">
        <ele>337.5</ele>
        <time>2021-07-28T09:22:57Z</time>
      </trkpt>
      <trkpt lat="49.33441" lon="6.00581">
        <ele>337.5</ele>
        <time>2021-07-28T09:22:58Z</time>
      </trkpt>
      <trkpt lat="49.33441" lon="6.00581">
        <ele>337.5</ele>
        <time>2021-07-28T09:23:00Z</time>
      </trkpt>
      <trkpt lat="49.33441" lon="6.00581">
        <ele>337.5</ele>
        <time>2021-07-28T09:23:01Z</time>
      </trkpt>
      <trkpt lat="49.33441" lon="6.00581">
        <ele>337.5</ele>
        <time>2021-07-28T09:23:03Z</time>
      </trkpt>
      <trkpt lat="49.33441" lon="6.00581">
        <ele>337.5</ele>
        <time>2021-07-28T09:23:04Z</time>
      </trkpt>
      <trkpt lat="49.33441" lon="6.00581">
        <ele>337.5</ele>
        <time>2021-07-28T09:23:06Z</time>
      </trkpt>
      <trkpt lat="49.33441" lon="6.00581">
        <ele>337.5</ele>
        <time>2021-07-28T09:23:07Z</time>
      </trkpt>
      <trkpt lat="49.33449" lon="6.00578">
        <ele>337.6</ele>
        <time>2021-07-28T09:23:09Z</time>
      </trkpt>
      <trkpt lat="49.33451" lon="6.00577">
        <ele>337.6</ele>
        <time>2021-07-28T09:23:10Z</time>
      </trkpt>
      <trkpt lat="49.33453" lon="6.00576">
        <ele>337.6</ele>
        <time>2021-07-28T09:23:12Z</time>
      </trkpt>
      <trkpt lat="49.33453" lon="6.00576">
        <ele>337.6</ele>
        <time>2021-07-28T09:23:13Z</time>
      </trkpt>
      <trkpt lat="49.33453" lon="6.00576">
        <ele>337.6</ele>
        <time>2021-07-28T09:23:14Z</time>
      </trkpt>
      <trkpt lat="49.33453" lon="6.00576">
        <ele>337.6</ele>
        <time>2021-07-28T09:23:16Z</time>
      </trkpt>
      <trkpt lat="49.33453" lon="6.00576">
        <ele>337.6</ele>
        <time>2021-07-28T09:23:18Z</time>
      </trkpt>
      <trkpt lat="49.33453" lon="6.00576">
        <ele>337.6</ele>
        <time>2021-07-28T09:23:19Z</time>
      </trkpt>
      <trkpt lat="49.33453" lon="6.00576">
        <ele>337.6</ele>
        <time>2021-07-28T09:23:21Z</time>
      </trkpt>
      <trkpt lat="49.33453" lon="6.00576">
        <ele>337.6</ele>
        <time>2021-07-28T09:23:22Z</time>
      </trkpt>
      <trkpt lat="49.33453" lon="6.00576">
        <ele>337.6</ele>
        <time>2021-07-28T09:23:24Z</time>
      </trkpt>
      <trkpt lat="49.33453" lon="6.00576">
        <ele>337.6</ele>
        <time>2021-07-28T09:23:26Z</time>
      </trkpt>
      <trkpt lat="49.33453" lon="6.00576">
        <ele>337.6</ele>
        <time>2021-07-28T09:23:28Z</time>
      </trkpt>
      <trkpt lat="49.33453" lon="6.00576">
        <ele>337.6</ele>
        <time>2021-07-28T09:23:30Z</time>
      </trkpt>
      <trkpt lat="49.33453" lon="6.00576">
        <ele>337.6</ele>
        <time>2021-07-28T09:23:31Z</time>
      </trkpt>
      <trkpt lat="49.33453" lon="6.00576">
        <ele>337.6</ele>
        <time>2021-07-28T09:23:32Z</time>
      </trkpt>
      <trkpt lat="49.33453" lon="6.00576">
        <ele>337.6</ele>
        <time>2021-07-28T09:23:33Z</time>
      </trkpt>
      <trkpt lat="49.33453" lon="6.00576">
        <ele>337.6</ele>
        <time>2021-07-28T09:23:35Z</time>
      </trkpt>
      <trkpt lat="49.33453" lon="6.00576">
        <ele>337.6</ele>
        <time>2021-07-28T09:23:37Z</time>
      </trkpt>
      <trkpt lat="49.33453" lon="6.00576">
        <ele>337.6</ele>
        <time>2021-07-28T09:23:39Z</time>
      </trkpt>
      <trkpt lat="49.33453" lon="6.00576">
        <ele>337.6</ele>
        <time>2021-07-28T09:23:41Z</time>
      </trkpt>
      <trkpt lat="49.33453" lon="6.00576">
        <ele>337.6</ele>
        <time>2021-07-28T09:23:42Z</time>
      </trkpt>
      <trkpt lat="49.33453" lon="6.00576">
        <ele>337.6</ele>
        <time>2021-07-28T09:23:43Z</time>
      </trkpt>
      <trkpt lat="49.33453" lon="6.00576">
        <ele>337.6</ele>
        <time>2021-07-28T09:23:45Z</time>
      </trkpt>
      <trkpt lat="49.33453" lon="6.00576">
        <ele>337.6</ele>
        <time>2021-07-28T09:23:47Z</time>
      </trkpt>
      <trkpt lat="49.33453" lon="6.00576">
        <ele>337.6</ele>
        <time>2021-07-28T09:23:48Z</time>
      </trkpt>
      <trkpt lat="49.33453" lon="6.00576">
        <ele>337.6</ele>
        <time>2021-07-28T09:23:50Z</time>
      </trkpt>
      <trkpt lat="49.33453" lon="6.00576">
        <ele>337.6</ele>
        <time>2021-07-28T09:23:51Z</time>
      </trkpt>
      <trkpt lat="49.33453" lon="6.00576">
        <ele>337.6</ele>
        <time>2021-07-28T09:23:53Z</time>
      </trkpt>
      <trkpt lat="49.33453" lon="6.00581">
        <ele>337.6</ele>
        <time>2021-07-28T09:23:54Z</time>
      </trkpt>
      <trkpt lat="49.33452" lon="6.00584">
        <ele>337.7</ele>
        <time>2021-07-28T09:23:56Z</time>
      </trkpt>
      <trkpt lat="49.33452" lon="6.00584">
        <ele>337.7</ele>
        <time>2021-07-28T09:23:57Z</time>
      </trkpt>
      <trkpt lat="49.33452" lon="6.00584">
        <ele>337.7</ele>
        <time>2021-07-28T09:23:59Z</time>
      </trkpt>
      <trkpt lat="49.33452" lon="6.00584">
        <ele>337.7</ele>
        <time>2021-07-28T09:24:00Z</time>
      </trkpt>
      <trkpt lat="49.33452" lon="6.00585">
        <ele>337.7</ele>
        <time>2021-07-28T09:24:02Z</time>
      </trkpt>
      <trkpt lat="49.33452" lon="6.00585">
        <ele>337.7</ele>
        <time>2021-07-28T09:24:04Z</time>
      </trkpt>
      <trkpt lat="49.33452" lon="6.00585">
        <ele>337.7</ele>
        <time>2021-07-28T09:24:05Z</time>
      </trkpt>
      <trkpt lat="49.33452" lon="6.00585">
        <ele>337.7</ele>
        <time>2021-07-28T09:24:07Z</time>
      </trkpt>
      <trkpt lat="49.33452" lon="6.00585">
        <ele>337.7</ele>
        <time>2021-07-28T09:24:08Z</time>
      </trkpt>
      <trkpt lat="49.33452" lon="6.00585">
        <ele>337.7</ele>
        <time>2021-07-28T09:24:09Z</time>
      </trkpt>
      <trkpt lat="49.33452" lon="6.00585">
        <ele>337.7</ele>
        <time>2021-07-28T09:24:11Z</time>
      </trkpt>
      <trkpt lat="49.33452" lon="6.00585">
        <ele>337.7</ele>
        <time>2021-07-28T09:24:13Z</time>
      </trkpt>
      <trkpt lat="49.33452" lon="6.00585">
        <ele>337.7</ele>
        <time>2021-07-28T09:24:15Z</time>
      </trkpt>
      <trkpt lat="49.33447" lon="6.00581">
        <ele>337.7</ele>
        <time>2021-07-28T09:24:17Z</time>
      </trkpt>
      <trkpt lat="49.33444" lon="6.0058">
        <ele>337.7</ele>
        <time>2021-07-28T09:24:18Z</time>
      </trkpt>
      <trkpt lat="49.33443" lon="6.00579">
        <ele>337.7</ele>
        <time>2021-07-28T09:24:19Z</time>
      </trkpt>
      <trkpt lat="49.33441" lon="6.00578">
        <ele>337.7</ele>
        <time>2021-07-28T09:24:21Z</time>
      </trkpt>
      <trkpt lat="49.3344" lon="6.00577">
        <ele>337.8</ele>
        <time>2021-07-28T09:24:23Z</time>
      </trkpt>
      <trkpt lat="49.3344" lon="6.00577">
        <ele>337.8</ele>
        <time>2021-07-28T09:24:25Z</time>
      </trkpt>
      <trkpt lat="49.3344" lon="6.00577">
        <ele>337.8</ele>
        <time>2021-07-28T09:24:26Z</time>
      </trkpt>
      <trkpt lat="49.3344" lon="6.00577">
        <ele>337.8</ele>
        <time>2021-07-28T09:24:28Z</time>
      </trkpt>
      <trkpt lat="49.3344" lon="6.00577">
        <ele>337.8</ele>
        <time>2021-07-28T09:24:29Z</time>
      </trkpt>
      <trkpt lat="49.3344" lon="6.00577">
        <ele>337.8</ele>
        <time>2021-07-28T09:24:30Z</time>
      </trkpt>
      <trkpt lat="49.3344" lon="6.00577">
        <ele>337.8</ele>
        <time>2021-07-28T09:24:31Z</time>
      </trkpt>
      <trkpt lat="49.3344" lon="6.00577">
        <ele>337.8</ele>
        <time>2021-07-28T09:24:33Z</time>
      </trkpt>
      <trkpt lat="49.3344" lon="6.00577">
        <ele>337.8</ele>
        <time>2021-07-28T09:24:35Z</time>
      </trkpt>
      <trkpt lat="49.3344" lon="6.00577">
        <ele>337.8</ele>
        <time>2021-07-28T09:24:37Z</time>
      </trkpt>
      <trkpt lat="49.3344" lon="6.00577">
        <ele>337.8</ele>
        <time>2021-07-28T09:24:39Z</time>
      </trkpt>
      <trkpt lat="49.3344" lon="6.00577">
        <ele>337.8</ele>
        <time>2021-07-28T09:24:40Z</time>
      </trkpt>
      <trkpt lat="49.3344" lon="6.00577">
        <ele>337.8</ele>
        <time>2021-07-28T09:24:41Z</time>
      </trkpt>
      <trkpt lat="49.3344" lon="6.00577">
        <ele>337.8</ele>
        <time>2021-07-28T09:24:43Z</time>
      </trkpt>
      <trkpt lat="49.3344" lon="6.00577">
        <ele>337.8</ele>
        <time>2021-07-28T09:24:45Z</time>
      </trkpt>
      <trkpt lat="49.3344" lon="6.00577">
        <ele>337.8</ele>
        <time>2021-07-28T09:24:46Z</time>
      </trkpt>
      <trkpt lat="49.3344" lon="6.00577">
        <ele>337.8</ele>
        <time>2021-07-28T09:24:48Z</time>
      </trkpt>
      <trkpt lat="49.3344" lon="6.00577">
        <ele>337.8</ele>
        <time>2021-07-28T09:24:49Z</time>
      </trkpt>
      <trkpt lat="49.3344" lon="6.00577">
        <ele>337.8</ele>
        <time>2021-07-28T09:24:51Z</time>
      </trkpt>
      <trkpt lat="49.33441" lon="6.00575">
        <ele>337.8</ele>
        <time>2021-07-28T09:24:52Z</time>
      </trkpt>
      <trkpt lat="49.33441" lon="6.00574">
        <ele>337.8</ele>
        <time>2021-07-28T09:24:53Z</time>
      </trkpt>
      <trkpt lat="49.33441" lon="6.00573">
        <ele>337.8</ele>
        <time>2021-07-28T09:24:54Z</time>
      </trkpt>
      <trkpt lat="49.33439" lon="6.00571">
        <ele>337.8</ele>
        <time>2021-07-28T09:24:56Z</time>
      </trkpt>
      <trkpt lat="49.33438" lon="6.0057">
        <ele>337.8</ele>
        <time>2021-07-28T09:24:58Z</time>
      </trkpt>
      <trkpt lat="49.33437" lon="6.0057">
        <ele>337.8</ele>
        <time>2021-07-28T09:24:59Z</time>
      </trkpt>
      <trkpt lat="49.33437" lon="6.00569">
        <ele>337.8</ele>
        <time>2021-07-28T09:25:01Z</time>
      </trkpt>
      <trkpt lat="49.33437" lon="6.00569">
        <ele>337.8</ele>
        <time>2021-07-28T09:25:03Z</time>
      </trkpt>
      <trkpt lat="49.33437" lon="6.00569">
        <ele>337.8</ele>
        <time>2021-07-28T09:25:04Z</time>
      </trkpt>
      <trkpt lat="49.33437" lon="6.00569">
        <ele>337.8</ele>
        <time>2021-07-28T09:25:05Z</time>
      </trkpt>
      <trkpt lat="49.33437" lon="6.00569">
        <ele>337.8</ele>
        <time>2021-07-28T09:25:07Z</time>
      </trkpt>
      <trkpt lat="49.33437" lon="6.00569">
        <ele>337.8</ele>
        <time>2021-07-28T09:25:09Z</time>
      </trkpt>
      <trkpt lat="49.33437" lon="6.00569">
        <ele>337.8</ele>
        <time>2021-07-28T09:25:10Z</time>
      </trkpt>
      <trkpt lat="49.33437" lon="6.00569">
        <ele>337.8</ele>
        <time>2021-07-28T09:25:11Z</time>
      </trkpt>
      <trkpt lat="49.33437" lon="6.00569">
        <ele>337.8</ele>
        <time>2021-07-28T09:25:12Z</time>
      </trkpt>
      <trkpt lat="49.33437" lon="6.00569">
        <ele>337.8</ele>
        <time>2021-07-28T09:25:13Z</time>
      </trkpt>
      <trkpt lat="49.33437" lon="6.00569">
        <ele>337.8</ele>
        <time>2021-07-28T09:25:14Z</time>
      </trkpt>
      <trkpt lat="49.33437" lon="6.00569">
        <ele>337.8</ele>
        <time>2021-07-28T09:25:16Z</time>
      </trkpt>
      <trkpt lat="49.33437" lon="6.00569">
        <ele>337.8</ele>
        <time>2021-07-28T09:25:17Z</time>
      </trkpt>
      <trkpt lat="49.33437" lon="6.00569">
        <ele>337.8</ele>
        <time>2021-07-28T09:25:19Z</time>
      </trkpt>
      <trkpt lat="49.33437" lon="6.00569">
        <ele>337.8</ele>
        <time>2021-07-28T09:25:21Z</time>
      </trkpt>
      <trkpt lat="49.33437" lon="6.00569">
        <ele>337.8</ele>
        <time>2021-07-28T09:25:22Z</time>
      </trkpt>
      <trkpt lat="49.33437" lon="6.00569">
        <ele>337.8</ele>
        <time>2021-07-28T09:25:24Z</time>
      </trkpt>
      <trkpt lat="49.33435" lon="6.00565">
        <ele>337.8</ele>
        <time>2021-07-28T09:25:26Z</time>
      </trkpt>
      <trkpt lat="49.33435" lon="6.00559">
        <ele>337.9</ele>
        <time>2021-07-28T09:25:28Z</time>
      </trkpt>
      <trkpt lat="49.33435" lon="6.00556">
        <ele>337.9</ele>
        <time>2021-07-28T09:25:30Z</time>
      </trkpt>
      <trkpt lat="49.33435" lon="6.00556">
        <ele>337.9</ele>
        <time>2021-07-28T09:25:31Z</time>
      </trkpt>
      <trkpt lat="49.33436" lon="6.00555">
        <ele>337.9</ele>
        <time>2021-07-28T09:25:33Z</time>
      </trkpt>
      <trkpt lat="49.33436" lon="6.00555">
        <ele>337.9</ele>
        <time>2021-07-28T09:25:34Z</time>
      </trkpt>
      <trkpt lat="49.33436" lon="6.00555">
        <ele>337.9</ele>
        <time>2021-07-28T09:25:35Z</time>
      </trkpt>
      <trkpt lat="49.33437" lon="6.00554">
        <ele>337.9</ele>
        <time>2021-07-28T09:25:37Z</time>
      </trkpt>
      <trkpt lat="49.33437" lon="6.00554">
        <ele>337.9</ele>
        <time>2021-07-28T09:25:39Z</time>
      </trkpt>
      <trkpt lat="49.33437" lon="6.00553">
        <ele>337.9</ele>
        <time>2021-07-28T09:25:40Z</time>
      </trkpt>
      <trkpt lat="49.33437" lon="6.00553">
        <ele>337.9</ele>
        <time>2021-07-28T09:25:41Z</time>
      </trkpt>
      <trkpt lat="49.33438" lon="6.00552">
        <ele>337.9</ele>
        <time>2021-07-28T09:25:42Z</time>
      </trkpt>
      <trkpt lat="49.33438" lon="6.00552">
        <ele>337.9</ele>
        <time>2021-07-28T09:25:43Z</time>
      </trkpt>
      <trkpt lat="49.33442" lon="6.00547">
        <ele>338</ele>
        <time>2021-07-28T09:25:45Z</time>
      </trkpt>
      <trkpt lat="49.33444" lon="6.00545">
        <ele>338</ele>
        <time>2021-07-28T09:25:46Z</time>
      </trkpt>
      <trkpt lat="49.33444" lon="6.00545">
        <ele>338</ele>
        <time>2021-07-28T09:25:47Z</time>
      </trkpt>
      <trkpt lat="49.33444" lon="6.00545">
        <ele>338</ele>
        <time>2021-07-28T09:25:48Z</time>
      </trkpt>
      <trkpt lat="49.33445" lon="6.00544">
        <ele>338</ele>
        <time>2021-07-28T09:25:49Z</time>
      </trkpt>
      <trkpt lat="49.33445" lon="6.00544">
        <ele>338</ele>
        <time>2021-07-28T09:25:51Z</time>
      </trkpt>
      <trkpt lat="49.33445" lon="6.00544">
        <ele>338</ele>
        <time>2021-07-28T09:25:52Z</time>
      </trkpt>
      <trkpt lat="49.33445" lon="6.00544">
        <ele>338</ele>
        <time>2021-07-28T09:25:54Z</time>
      </trkpt>
      <trkpt lat="49.33445" lon="6.00544">
        <ele>338</ele>
        <time>2021-07-28T09:25:55Z</time>
      </trkpt>
      <trkpt lat="49.33445" lon="6.00544">
        <ele>338</ele>
        <time>2021-07-28T09:25:56Z</time>
      </trkpt>
      <trkpt lat="49.33445" lon="6.00544">
        <ele>338</ele>
        <time>2021-07-28T09:25:58Z</time>
      </trkpt>
      <trkpt lat="49.33445" lon="6.00544">
        <ele>338</ele>
        <time>2021-07-28T09:25:59Z</time>
      </trkpt>
      <trkpt lat="49.33445" lon="6.00544">
        <ele>338</ele>
        <time>2021-07-28T09:26:00Z</time>
      </trkpt>
      <trkpt lat="49.33445" lon="6.00544">
        <ele>338</ele>
        <time>2021-07-28T09:26:02Z</time>
      </trkpt>
      <trkpt lat="49.33445" lon="6.00544">
        <ele>338</ele>
        <time>2021-07-28T09:26:04Z</time>
      </trkpt>
      <trkpt lat="49.33445" lon="6.00544">
        <ele>338</ele>
        <time>2021-07-28T09:26:05Z</time>
      </trkpt>
      <trkpt lat="49.33445" lon="6.00544">
        <ele>338</ele>
        <time>2021-07-28T09:26:07Z</time>
      </trkpt>
      <trkpt lat="49.33449" lon="6.00546">
        <ele>338</ele>
        <time>2021-07-28T09:26:09Z</time>
      </trkpt>
      <trkpt lat="49.33451" lon="6.00548">
        <ele>338.1</ele>
        <time>2021-07-28T09:26:10Z</time>
      </trkpt>
      <trkpt lat="49.33452" lon="6.00548">
        <ele>338.1</ele>
        <time>2021-07-28T09:26:12Z</time>
      </trkpt>
      <trkpt lat="49.33452" lon="6.00548">
        <ele>338.1</ele>
        <time>2021-07-28T09:26:13Z</time>
      </trkpt>
      <trkpt lat="49.33452" lon="6.00548">
        <ele>338.1</ele>
        <time>2021-07-28T09:26:15Z</time>
      </trkpt>
      <trkpt lat="49.33452" lon="6.00548">
        <ele>338.1</ele>
        <time>2021-07-28T09:26:16Z</time>
      </trkpt>
      <trkpt lat="49.33452" lon="6.00548">
        <ele>338.1</ele>
        <time>2021-07-28T09:26:18Z</time>
      </trkpt>
      <trkpt lat="49.33452" lon="6.00548">
        <ele>338.1</ele>
        <time>2021-07-28T09:26:19Z</time>
      </trkpt>
      <trkpt lat="49.33452" lon="6.00548">
        <ele>338.1</ele>
        <time>2021-07-28T09:26:21Z</time>
      </trkpt>
      <trkpt lat="49.33452" lon="6.00548">
        <ele>338.1</ele>
        <time>2021-07-28T09:26:22Z</time>
      </trkpt>
      <trkpt lat="49.33452" lon="6.00548">
        <ele>338.1</ele>
        <time>2021-07-28T09:26:24Z</time>
      </trkpt>
      <trkpt lat="49.33452" lon="6.00549">
        <ele>338.1</ele>
        <time>2021-07-28T09:26:25Z</time>
      </trkpt>
      <trkpt lat="49.33449" lon="6.00552">
        <ele>338.1</ele>
        <time>2021-07-28T09:26:27Z</time>
      </trkpt>
      <trkpt lat="49.33448" lon="6.00553">
        <ele>338.1</ele>
        <time>2021-07-28T09:26:28Z</time>
      </trkpt>
      <trkpt lat="49.33447" lon="6.00554">
        <ele>338.1</ele>
        <time>2021-07-28T09:26:29Z</time>
      </trkpt>
      <trkpt lat="49.33447" lon="6.00555">
        <ele>338.1</ele>
        <time>2021-07-28T09:26:30Z</time>
      </trkpt>
      <trkpt lat="49.33446" lon="6.00556">
        <ele>338.1</ele>
        <time>2021-07-28T09:26:31Z</time>
      </trkpt>
      <trkpt lat="49.33445" lon="6.00557">
        <ele>338.1</ele>
        <time>2021-07-28T09:26:33Z</time>
      </trkpt>
      <trkpt lat="49.33444" lon="6.00559">
        <ele>338.2</ele>
        <time>2021-07-28T09:26:35Z</time>
      </trkpt>
      <trkpt lat="49.33443" lon="6.0056">
        <ele>338.2</ele>
        <time>2021-07-28T09:26:36Z</time>
      </trkpt>
      <trkpt lat="49.33442" lon="6.00561">
        <ele>338.2</ele>
        <time>2021-07-28T09:26:38Z</time>
      </trkpt>
      <trkpt lat="49.33442" lon="6.00562">
        <ele>338.2</ele>
        <time>2021-07-28T09:26:39Z</time>
      </trkpt>
      <trkpt lat="49.3344" lon="6.00566">
        <ele>338.2</ele>
        <time>2021-07-28T09:26:41Z</time>
      </trkpt>
      <trkpt lat="49.3344" lon="6.00567">
        <ele>338.2</ele>
        <time>2021-07-28T09:26:42Z</time>
      </trkpt>
      <trkpt lat="49.33439" lon="6.00569">
        <ele>338.2</ele>
        <time>2021-07-28T09:26:43Z</time>
      </trkpt>
      <trkpt lat="49.33439" lon="6.00571">
        <ele>338.2</ele>
        <time>2021-07-28T09:26:45Z</time>
      </trkpt>
      <trkpt lat="49.33439" lon="6.00573">
        <ele>338.2</ele>
        <time>2021-07-28T09:26:46Z</time>
      </trkpt>
      <trkpt lat="49.33439" lon="6.00574">
        <ele>338.3</ele>
        <time>2021-07-28T09:26:47Z</time>
      </trkpt>
      <trkpt lat="49.33438" lon="6.00586">
        <ele>338.3</ele>
        <time>2021-07-28T09:26:49Z</time>
      </trkpt>
      <trkpt lat="49.33438" lon="6.00594">
        <ele>338.4</ele>
        <time>2021-07-28T09:26:51Z</time>
      </trkpt>
      <trkpt lat="49.33438" lon="6.00597">
        <ele>338.4</ele>
        <time>2021-07-28T09:26:52Z</time>
      </trkpt>
      <trkpt lat="49.33438" lon="6.006">
        <ele>338.4</ele>
        <time>2021-07-28T09:26:53Z</time>
      </trkpt>
      <trkpt lat="49.33439" lon="6.00604">
        <ele>338.4</ele>
        <time>2021-07-28T09:26:54Z</time>
      </trkpt>
      <trkpt lat="49.3344" lon="6.00608">
        <ele>338.4</ele>
        <time>2021-07-28T09:26:55Z</time>
      </trkpt>
      <trkpt lat="49.3344" lon="6.00618">
        <ele>338.5</ele>
        <time>2021-07-28T09:26:57Z</time>
      </trkpt>
      <trkpt lat="49.3344" lon="6.00622">
        <ele>338.5</ele>
        <time>2021-07-28T09:26:58Z</time>
      </trkpt>
      <trkpt lat="49.33441" lon="6.00627">
        <ele>338.5</ele>
        <time>2021-07-28T09:26:59Z</time>
      </trkpt>
      <trkpt lat="49.33442" lon="6.00631">
        <ele>338.6</ele>
        <time>2021-07-28T09:27:01Z</time>
      </trkpt>
      <trkpt lat="49.33443" lon="6.00635">
        <ele>338.6</ele>
        <time>2021-07-28T09:27:03Z</time>
      </trkpt>
      <trkpt lat="49.33444" lon="6.0064">
        <ele>338.6</ele>
        <time>2021-07-28T09:27:04Z</time>
      </trkpt>
      <trkpt lat="49.33443" lon="6.00645">
        <ele>338.6</ele>
        <time>2021-07-28T09:27:06Z</time>
      </trkpt>
      <trkpt lat="49.33441" lon="6.00644">
        <ele>338.6</ele>
        <time>2021-07-28T09:27:08Z</time>
      </trkpt>
      <trkpt lat="49.3344" lon="6.00644">
        <ele>338.7</ele>
        <time>2021-07-28T09:27:09Z</time>
      </trkpt>
      <trkpt lat="49.33439" lon="6.00645">
        <ele>338.7</ele>
        <time>2021-07-28T09:27:11Z</time>
      </trkpt>
      <trkpt lat="49.33439" lon="6.00646">
        <ele>338.7</ele>
        <time>2021-07-28T09:27:12Z</time>
      </trkpt>
      <trkpt lat="49.3344" lon="6.00648">
        <ele>338.7</ele>
        <time>2021-07-28T09:27:13Z</time>
      </trkpt>
      <trkpt lat="49.33441" lon="6.00654">
        <ele>338.7</ele>
        <time>2021-07-28T09:27:14Z</time>
      </trkpt>
      <trkpt lat="49.33441" lon="6.00658">
        <ele>338.7</ele>
        <time>2021-07-28T09:27:16Z</time>
      </trkpt>
      <trkpt lat="49.33441" lon="6.0066">
        <ele>338.7</ele>
        <time>2021-07-28T09:27:17Z</time>
      </trkpt>
      <trkpt lat="49.3344" lon="6.00664">
        <ele>338.8</ele>
        <time>2021-07-28T09:27:18Z</time>
      </trkpt>
      <trkpt lat="49.33438" lon="6.00667">
        <ele>338.8</ele>
        <time>2021-07-28T09:27:20Z</time>
      </trkpt>
      <trkpt lat="49.33437" lon="6.00668">
        <ele>338.8</ele>
        <time>2021-07-28T09:27:21Z</time>
      </trkpt>
      <trkpt lat="49.33436" lon="6.00671">
        <ele>338.8</ele>
        <time>2021-07-28T09:27:22Z</time>
      </trkpt>
      <trkpt lat="49.33436" lon="6.00677">
        <ele>338.8</ele>
        <time>2021-07-28T09:27:24Z</time>
      </trkpt>
      <trkpt lat="49.33435" lon="6.00682">
        <ele>338.8</ele>
        <time>2021-07-28T09:27:25Z</time>
      </trkpt>
      <trkpt lat="49.33435" lon="6.00684">
        <ele>338.8</ele>
        <time>2021-07-28T09:27:26Z</time>
      </trkpt>
      <trkpt lat="49.33435" lon="6.00683">
        <ele>338.8</ele>
        <time>2021-07-28T09:27:27Z</time>
      </trkpt>
      <trkpt lat="49.33435" lon="6.00683">
        <ele>338.8</ele>
        <time>2021-07-28T09:27:28Z</time>
      </trkpt>
      <trkpt lat="49.33436" lon="6.00684">
        <ele>338.8</ele>
        <time>2021-07-28T09:27:29Z</time>
      </trkpt>
      <trkpt lat="49.33438" lon="6.00685">
        <ele>338.7</ele>
        <time>2021-07-28T09:27:31Z</time>
      </trkpt>
      <trkpt lat="49.33438" lon="6.00686">
        <ele>338.7</ele>
        <time>2021-07-28T09:27:32Z</time>
      </trkpt>
      <trkpt lat="49.33438" lon="6.00688">
        <ele>338.8</ele>
        <time>2021-07-28T09:27:34Z</time>
      </trkpt>
      <trkpt lat="49.33438" lon="6.00689">
        <ele>338.8</ele>
        <time>2021-07-28T09:27:35Z</time>
      </trkpt>
      <trkpt lat="49.33443" lon="6.00717">
        <ele>339.2</ele>
        <time>2021-07-28T09:27:46Z</time>
      </trkpt>
      <trkpt lat="49.33444" lon="6.00722">
        <ele>339.3</ele>
        <time>2021-07-28T09:27:47Z</time>
      </trkpt>
      <trkpt lat="49.33445" lon="6.00727">
        <ele>339.4</ele>
        <time>2021-07-28T09:27:48Z</time>
      </trkpt>
      <trkpt lat="49.33445" lon="6.00728">
        <ele>339.5</ele>
        <time>2021-07-28T09:27:49Z</time>
      </trkpt>
      <trkpt lat="49.33446" lon="6.00733">
        <ele>339.6</ele>
        <time>2021-07-28T09:27:51Z</time>
      </trkpt>
      <trkpt lat="49.33447" lon="6.00738">
        <ele>339.7</ele>
        <time>2021-07-28T09:27:52Z</time>
      </trkpt>
      <trkpt lat="49.33448" lon="6.00745">
        <ele>339.8</ele>
        <time>2021-07-28T09:27:54Z</time>
      </trkpt>
      <trkpt lat="49.33449" lon="6.00748">
        <ele>339.9</ele>
        <time>2021-07-28T09:27:55Z</time>
      </trkpt>
      <trkpt lat="49.3345" lon="6.00752">
        <ele>340</ele>
        <time>2021-07-28T09:27:56Z</time>
      </trkpt>
      <trkpt lat="49.3345" lon="6.00754">
        <ele>340.1</ele>
        <time>2021-07-28T09:27:57Z</time>
      </trkpt>
      <trkpt lat="49.33449" lon="6.00756">
        <ele>340.1</ele>
        <time>2021-07-28T09:27:58Z</time>
      </trkpt>
      <trkpt lat="49.33447" lon="6.00766">
        <ele>340.5</ele>
        <time>2021-07-28T09:28:00Z</time>
      </trkpt>
      <trkpt lat="49.33446" lon="6.0077">
        <ele>340.6</ele>
        <time>2021-07-28T09:28:01Z</time>
      </trkpt>
      <trkpt lat="49.33446" lon="6.00772">
        <ele>340.6</ele>
        <time>2021-07-28T09:28:02Z</time>
      </trkpt>
      <trkpt lat="49.33446" lon="6.00774">
        <ele>340.7</ele>
        <time>2021-07-28T09:28:03Z</time>
      </trkpt>
      <trkpt lat="49.33446" lon="6.00783">
        <ele>341</ele>
        <time>2021-07-28T09:28:06Z</time>
      </trkpt>
      <trkpt lat="49.33446" lon="6.00783">
        <ele>341</ele>
        <time>2021-07-28T09:28:06Z</time>
      </trkpt>
      <trkpt lat="49.33445" lon="6.00787">
        <ele>341.1</ele>
        <time>2021-07-28T09:28:07Z</time>
      </trkpt>
      <trkpt lat="49.33444" lon="6.00789">
        <ele>341.2</ele>
        <time>2021-07-28T09:28:09Z</time>
      </trkpt>
      <trkpt lat="49.33444" lon="6.00792">
        <ele>341.2</ele>
        <time>2021-07-28T09:28:11Z</time>
      </trkpt>
      <trkpt lat="49.33444" lon="6.00794">
        <ele>341.3</ele>
        <time>2021-07-28T09:28:13Z</time>
      </trkpt>
      <trkpt lat="49.33443" lon="6.00796">
        <ele>341.4</ele>
        <time>2021-07-28T09:28:14Z</time>
      </trkpt>
      <trkpt lat="49.33443" lon="6.00799">
        <ele>341.4</ele>
        <time>2021-07-28T09:28:15Z</time>
      </trkpt>
      <trkpt lat="49.33443" lon="6.00801">
        <ele>341.5</ele>
        <time>2021-07-28T09:28:16Z</time>
      </trkpt>
      <trkpt lat="49.33442" lon="6.00803">
        <ele>341.5</ele>
        <time>2021-07-28T09:28:17Z</time>
      </trkpt>
      <trkpt lat="49.33442" lon="6.00807">
        <ele>341.7</ele>
        <time>2021-07-28T09:28:19Z</time>
      </trkpt>
      <trkpt lat="49.33442" lon="6.00809">
        <ele>341.7</ele>
        <time>2021-07-28T09:28:20Z</time>
      </trkpt>
      <trkpt lat="49.33442" lon="6.00811">
        <ele>341.7</ele>
        <time>2021-07-28T09:28:21Z</time>
      </trkpt>
      <trkpt lat="49.33442" lon="6.00812">
        <ele>341.8</ele>
        <time>2021-07-28T09:28:22Z</time>
      </trkpt>
      <trkpt lat="49.33441" lon="6.00818">
        <ele>341.9</ele>
        <time>2021-07-28T09:28:24Z</time>
      </trkpt>
      <trkpt lat="49.33441" lon="6.00821">
        <ele>342</ele>
        <time>2021-07-28T09:28:25Z</time>
      </trkpt>
      <trkpt lat="49.33441" lon="6.00829">
        <ele>342.2</ele>
        <time>2021-07-28T09:28:27Z</time>
      </trkpt>
      <trkpt lat="49.33441" lon="6.00831">
        <ele>342.3</ele>
        <time>2021-07-28T09:28:28Z</time>
      </trkpt>
      <trkpt lat="49.33441" lon="6.00832">
        <ele>342.3</ele>
        <time>2021-07-28T09:28:29Z</time>
      </trkpt>
      <trkpt lat="49.33441" lon="6.00836">
        <ele>342.4</ele>
        <time>2021-07-28T09:28:31Z</time>
      </trkpt>
      <trkpt lat="49.33444" lon="6.00846">
        <ele>342.6</ele>
        <time>2021-07-28T09:28:32Z</time>
      </trkpt>
      <trkpt lat="49.33447" lon="6.00855">
        <ele>342.8</ele>
        <time>2021-07-28T09:28:33Z</time>
      </trkpt>
      <trkpt lat="49.3345" lon="6.00863">
        <ele>342.9</ele>
        <time>2021-07-28T09:28:35Z</time>
      </trkpt>
      <trkpt lat="49.33457" lon="6.00879">
        <ele>343</ele>
        <time>2021-07-28T09:28:36Z</time>
      </trkpt>
      <trkpt lat="49.3346" lon="6.0089">
        <ele>343</ele>
        <time>2021-07-28T09:28:38Z</time>
      </trkpt>
      <trkpt lat="49.33462" lon="6.00894">
        <ele>343</ele>
        <time>2021-07-28T09:28:39Z</time>
      </trkpt>
      <trkpt lat="49.33464" lon="6.00897">
        <ele>343</ele>
        <time>2021-07-28T09:28:41Z</time>
      </trkpt>
      <trkpt lat="49.33467" lon="6.00902">
        <ele>343</ele>
        <time>2021-07-28T09:28:43Z</time>
      </trkpt>
      <trkpt lat="49.33469" lon="6.00906">
        <ele>343</ele>
        <time>2021-07-28T09:28:45Z</time>
      </trkpt>
      <trkpt lat="49.3347" lon="6.00912">
        <ele>342.9</ele>
        <time>2021-07-28T09:28:47Z</time>
      </trkpt>
      <trkpt lat="49.33474" lon="6.00918">
        <ele>342.9</ele>
        <time>2021-07-28T09:28:49Z</time>
      </trkpt>
      <trkpt lat="49.33476" lon="6.00921">
        <ele>342.9</ele>
        <time>2021-07-28T09:28:50Z</time>
      </trkpt>
      <trkpt lat="49.33477" lon="6.00923">
        <ele>342.8</ele>
        <time>2021-07-28T09:28:52Z</time>
      </trkpt>
      <trkpt lat="49.33479" lon="6.00925">
        <ele>342.8</ele>
        <time>2021-07-28T09:28:53Z</time>
      </trkpt>
      <trkpt lat="49.3348" lon="6.00927">
        <ele>342.8</ele>
        <time>2021-07-28T09:28:54Z</time>
      </trkpt>
      <trkpt lat="49.33494" lon="6.00949">
        <ele>342.8</ele>
        <time>2021-07-28T09:28:56Z</time>
      </trkpt>
      <trkpt lat="49.33498" lon="6.00955">
        <ele>342.8</ele>
        <time>2021-07-28T09:28:57Z</time>
      </trkpt>
      <trkpt lat="49.33502" lon="6.00965">
        <ele>342.7</ele>
        <time>2021-07-28T09:28:59Z</time>
      </trkpt>
      <trkpt lat="49.33505" lon="6.00973">
        <ele>342.7</ele>
        <time>2021-07-28T09:29:00Z</time>
      </trkpt>
      <trkpt lat="49.33512" lon="6.0098">
        <ele>342.7</ele>
        <time>2021-07-28T09:29:02Z</time>
      </trkpt>
      <trkpt lat="49.33519" lon="6.00987">
        <ele>342.6</ele>
        <time>2021-07-28T09:29:03Z</time>
      </trkpt>
      <trkpt lat="49.33524" lon="6.00992">
        <ele>342.6</ele>
        <time>2021-07-28T09:29:04Z</time>
      </trkpt>
      <trkpt lat="49.33533" lon="6.01001">
        <ele>342.4</ele>
        <time>2021-07-28T09:29:06Z</time>
      </trkpt>
      <trkpt lat="49.33538" lon="6.01004">
        <ele>342.4</ele>
        <time>2021-07-28T09:29:07Z</time>
      </trkpt>
      <trkpt lat="49.33547" lon="6.01009">
        <ele>342.3</ele>
        <time>2021-07-28T09:29:09Z</time>
      </trkpt>
      <trkpt lat="49.33553" lon="6.0102">
        <ele>342.3</ele>
        <time>2021-07-28T09:29:11Z</time>
      </trkpt>
      <trkpt lat="49.33559" lon="6.01031">
        <ele>342.4</ele>
        <time>2021-07-28T09:29:13Z</time>
      </trkpt>
      <trkpt lat="49.33562" lon="6.01042">
        <ele>342.4</ele>
        <time>2021-07-28T09:29:15Z</time>
      </trkpt>
      <trkpt lat="49.33563" lon="6.01048">
        <ele>342.4</ele>
        <time>2021-07-28T09:29:16Z</time>
      </trkpt>
      <trkpt lat="49.33565" lon="6.01055">
        <ele>342.4</ele>
        <time>2021-07-28T09:29:17Z</time>
      </trkpt>
      <trkpt lat="49.33566" lon="6.0106">
        <ele>342.5</ele>
        <time>2021-07-28T09:29:18Z</time>
      </trkpt>
      <trkpt lat="49.33568" lon="6.0107">
        <ele>342.5</ele>
        <time>2021-07-28T09:29:20Z</time>
      </trkpt>
      <trkpt lat="49.33569" lon="6.01079">
        <ele>342.7</ele>
        <time>2021-07-28T09:29:22Z</time>
      </trkpt>
      <trkpt lat="49.33571" lon="6.01085">
        <ele>342.8</ele>
        <time>2021-07-28T09:29:23Z</time>
      </trkpt>
      <trkpt lat="49.33572" lon="6.0109">
        <ele>342.9</ele>
        <time>2021-07-28T09:29:24Z</time>
      </trkpt>
      <trkpt lat="49.33574" lon="6.0109">
        <ele>343</ele>
        <time>2021-07-28T09:29:25Z</time>
      </trkpt>
      <trkpt lat="49.33576" lon="6.01087">
        <ele>343.1</ele>
        <time>2021-07-28T09:29:27Z</time>
      </trkpt>
      <trkpt lat="49.33577" lon="6.01087">
        <ele>343.1</ele>
        <time>2021-07-28T09:29:28Z</time>
      </trkpt>
      <trkpt lat="49.33579" lon="6.01087">
        <ele>343.2</ele>
        <time>2021-07-28T09:29:29Z</time>
      </trkpt>
      <trkpt lat="49.33582" lon="6.01088">
        <ele>343.3</ele>
        <time>2021-07-28T09:29:31Z</time>
      </trkpt>
      <trkpt lat="49.33585" lon="6.0109">
        <ele>343.4</ele>
        <time>2021-07-28T09:29:33Z</time>
      </trkpt>
      <trkpt lat="49.33587" lon="6.01092">
        <ele>343.5</ele>
        <time>2021-07-28T09:29:34Z</time>
      </trkpt>
      <trkpt lat="49.33637" lon="6.01358">
        <ele>347.1</ele>
        <time>2021-07-28T09:30:38Z</time>
      </trkpt>
      <trkpt lat="49.33639" lon="6.01369">
        <ele>347</ele>
        <time>2021-07-28T09:30:39Z</time>
      </trkpt>
      <trkpt lat="49.33645" lon="6.01396">
        <ele>346.8</ele>
        <time>2021-07-28T09:30:41Z</time>
      </trkpt>
      <trkpt lat="49.33647" lon="6.01405">
        <ele>346.8</ele>
        <time>2021-07-28T09:30:42Z</time>
      </trkpt>
      <trkpt lat="49.33648" lon="6.01412">
        <ele>346.7</ele>
        <time>2021-07-28T09:30:43Z</time>
      </trkpt>
      <trkpt lat="49.3365" lon="6.01415">
        <ele>346.7</ele>
        <time>2021-07-28T09:30:45Z</time>
      </trkpt>
      <trkpt lat="49.33651" lon="6.0143">
        <ele>346.6</ele>
        <time>2021-07-28T09:30:47Z</time>
      </trkpt>
      <trkpt lat="49.33652" lon="6.01439">
        <ele>346.6</ele>
        <time>2021-07-28T09:30:48Z</time>
      </trkpt>
      <trkpt lat="49.33654" lon="6.01447">
        <ele>346.6</ele>
        <time>2021-07-28T09:30:50Z</time>
      </trkpt>
      <trkpt lat="49.33656" lon="6.01452">
        <ele>346.6</ele>
        <time>2021-07-28T09:30:51Z</time>
      </trkpt>
      <trkpt lat="49.33658" lon="6.01459">
        <ele>346.7</ele>
        <time>2021-07-28T09:30:52Z</time>
      </trkpt>
      <trkpt lat="49.33662" lon="6.01464">
        <ele>346.7</ele>
        <time>2021-07-28T09:30:54Z</time>
      </trkpt>
      <trkpt lat="49.33665" lon="6.01468">
        <ele>346.7</ele>
        <time>2021-07-28T09:30:55Z</time>
      </trkpt>
      <trkpt lat="49.33668" lon="6.01473">
        <ele>346.8</ele>
        <time>2021-07-28T09:30:57Z</time>
      </trkpt>
      <trkpt lat="49.33672" lon="6.01479">
        <ele>346.9</ele>
        <time>2021-07-28T09:30:58Z</time>
      </trkpt>
      <trkpt lat="49.33674" lon="6.01483">
        <ele>346.9</ele>
        <time>2021-07-28T09:30:59Z</time>
      </trkpt>
      <trkpt lat="49.33676" lon="6.01489">
        <ele>347</ele>
        <time>2021-07-28T09:31:01Z</time>
      </trkpt>
      <trkpt lat="49.33678" lon="6.01494">
        <ele>347.1</ele>
        <time>2021-07-28T09:31:02Z</time>
      </trkpt>
      <trkpt lat="49.33679" lon="6.01499">
        <ele>347.2</ele>
        <time>2021-07-28T09:31:03Z</time>
      </trkpt>
      <trkpt lat="49.33679" lon="6.01505">
        <ele>347.2</ele>
        <time>2021-07-28T09:31:04Z</time>
      </trkpt>
      <trkpt lat="49.3368" lon="6.0151">
        <ele>347.3</ele>
        <time>2021-07-28T09:31:05Z</time>
      </trkpt>
      <trkpt lat="49.33682" lon="6.01515">
        <ele>347.4</ele>
        <time>2021-07-28T09:31:06Z</time>
      </trkpt>
      <trkpt lat="49.33684" lon="6.0152">
        <ele>347.4</ele>
        <time>2021-07-28T09:31:07Z</time>
      </trkpt>
      <trkpt lat="49.3369" lon="6.01526">
        <ele>347.5</ele>
        <time>2021-07-28T09:31:08Z</time>
      </trkpt>
      <trkpt lat="49.33697" lon="6.01534">
        <ele>347.7</ele>
        <time>2021-07-28T09:31:10Z</time>
      </trkpt>
      <trkpt lat="49.33701" lon="6.01541">
        <ele>347.8</ele>
        <time>2021-07-28T09:31:12Z</time>
      </trkpt>
      <trkpt lat="49.33703" lon="6.01545">
        <ele>347.8</ele>
        <time>2021-07-28T09:31:13Z</time>
      </trkpt>
      <trkpt lat="49.33703" lon="6.0155">
        <ele>347.9</ele>
        <time>2021-07-28T09:31:14Z</time>
      </trkpt>
      <trkpt lat="49.337" lon="6.01556">
        <ele>348</ele>
        <time>2021-07-28T09:31:15Z</time>
      </trkpt>
      <trkpt lat="49.33698" lon="6.01561">
        <ele>348.1</ele>
        <time>2021-07-28T09:31:16Z</time>
      </trkpt>
      <trkpt lat="49.33697" lon="6.01566">
        <ele>348.1</ele>
        <time>2021-07-28T09:31:17Z</time>
      </trkpt>
      <trkpt lat="49.33698" lon="6.01574">
        <ele>348.2</ele>
        <time>2021-07-28T09:31:19Z</time>
      </trkpt>
      <trkpt lat="49.337" lon="6.01578">
        <ele>348.3</ele>
        <time>2021-07-28T09:31:20Z</time>
      </trkpt>
      <trkpt lat="49.33701" lon="6.01583">
        <ele>348.4</ele>
        <time>2021-07-28T09:31:21Z</time>
      </trkpt>
      <trkpt lat="49.33702" lon="6.0159">
        <ele>348.5</ele>
        <time>2021-07-28T09:31:23Z</time>
      </trkpt>
      <trkpt lat="49.33702" lon="6.01596">
        <ele>348.6</ele>
        <time>2021-07-28T09:31:24Z</time>
      </trkpt>
      <trkpt lat="49.33702" lon="6.01601">
        <ele>348.7</ele>
        <time>2021-07-28T09:31:25Z</time>
      </trkpt>
      <trkpt lat="49.33701" lon="6.01605">
        <ele>348.8</ele>
        <time>2021-07-28T09:31:26Z</time>
      </trkpt>
      <trkpt lat="49.33699" lon="6.01608">
        <ele>348.9</ele>
        <time>2021-07-28T09:31:27Z</time>
      </trkpt>
      <trkpt lat="49.33699" lon="6.0161">
        <ele>348.9</ele>
        <time>2021-07-28T09:31:28Z</time>
      </trkpt>
      <trkpt lat="49.33699" lon="6.01615">
        <ele>349</ele>
        <time>2021-07-28T09:31:29Z</time>
      </trkpt>
      <trkpt lat="49.337" lon="6.01617">
        <ele>349</ele>
        <time>2021-07-28T09:31:30Z</time>
      </trkpt>
      <trkpt lat="49.33701" lon="6.01623">
        <ele>349.1</ele>
        <time>2021-07-28T09:31:31Z</time>
      </trkpt>
      <trkpt lat="49.33702" lon="6.01632">
        <ele>349.3</ele>
        <time>2021-07-28T09:31:33Z</time>
      </trkpt>
      <trkpt lat="49.33703" lon="6.01636">
        <ele>349.4</ele>
        <time>2021-07-28T09:31:34Z</time>
      </trkpt>
      <trkpt lat="49.33707" lon="6.01642">
        <ele>349.6</ele>
        <time>2021-07-28T09:31:35Z</time>
      </trkpt>
      <trkpt lat="49.33711" lon="6.0165">
        <ele>349.5</ele>
        <time>2021-07-28T09:31:37Z</time>
      </trkpt>
      <trkpt lat="49.33715" lon="6.01655">
        <ele>349.4</ele>
        <time>2021-07-28T09:31:39Z</time>
      </trkpt>
      <trkpt lat="49.33717" lon="6.01658">
        <ele>349.4</ele>
        <time>2021-07-28T09:31:40Z</time>
      </trkpt>
      <trkpt lat="49.33719" lon="6.01661">
        <ele>349.4</ele>
        <time>2021-07-28T09:31:41Z</time>
      </trkpt>
      <trkpt lat="49.33719" lon="6.01662">
        <ele>349.3</ele>
        <time>2021-07-28T09:31:42Z</time>
      </trkpt>
      <trkpt lat="49.33721" lon="6.01663">
        <ele>349.3</ele>
        <time>2021-07-28T09:31:44Z</time>
      </trkpt>
      <trkpt lat="49.33722" lon="6.01663">
        <ele>349.3</ele>
        <time>2021-07-28T09:31:45Z</time>
      </trkpt>
      <trkpt lat="49.33723" lon="6.01664">
        <ele>349.3</ele>
        <time>2021-07-28T09:31:46Z</time>
      </trkpt>
      <trkpt lat="49.33724" lon="6.01664">
        <ele>349.3</ele>
        <time>2021-07-28T09:31:47Z</time>
      </trkpt>
      <trkpt lat="49.33724" lon="6.01665">
        <ele>349.3</ele>
        <time>2021-07-28T09:31:49Z</time>
      </trkpt>
      <trkpt lat="49.33724" lon="6.01666">
        <ele>349.3</ele>
        <time>2021-07-28T09:31:50Z</time>
      </trkpt>
      <trkpt lat="49.33725" lon="6.01667">
        <ele>349.3</ele>
        <time>2021-07-28T09:31:51Z</time>
      </trkpt>
      <trkpt lat="49.3372" lon="6.01657">
        <ele>349.4</ele>
        <time>2021-07-28T09:31:52Z</time>
      </trkpt>
      <trkpt lat="49.33716" lon="6.01647">
        <ele>349.5</ele>
        <time>2021-07-28T09:33:30Z</time>
      </trkpt>
      <trkpt lat="49.33712" lon="6.01637">
        <ele>349.5</ele>
        <time>2021-07-28T09:33:31Z</time>
      </trkpt>
      <trkpt lat="49.33711" lon="6.01613">
        <ele>349.1</ele>
        <time>2021-07-28T09:33:32Z</time>
      </trkpt>
      <trkpt lat="49.3371" lon="6.01591">
        <ele>348.7</ele>
        <time>2021-07-28T09:33:34Z</time>
      </trkpt>
      <trkpt lat="49.3371" lon="6.01583">
        <ele>348.5</ele>
        <time>2021-07-28T09:33:35Z</time>
      </trkpt>
      <trkpt lat="49.33708" lon="6.01569">
        <ele>348.3</ele>
        <time>2021-07-28T09:33:37Z</time>
      </trkpt>
      <trkpt lat="49.33707" lon="6.01554">
        <ele>348.1</ele>
        <time>2021-07-28T09:33:39Z</time>
      </trkpt>
      <trkpt lat="49.33704" lon="6.01539">
        <ele>347.9</ele>
        <time>2021-07-28T09:33:41Z</time>
      </trkpt>
      <trkpt lat="49.33704" lon="6.01532">
        <ele>347.8</ele>
        <time>2021-07-28T09:33:42Z</time>
      </trkpt>
      <trkpt lat="49.33701" lon="6.01518">
        <ele>347.7</ele>
        <time>2021-07-28T09:33:44Z</time>
      </trkpt>
      <trkpt lat="49.33697" lon="6.01511">
        <ele>347.6</ele>
        <time>2021-07-28T09:33:45Z</time>
      </trkpt>
      <trkpt lat="49.33693" lon="6.01504">
        <ele>347.4</ele>
        <time>2021-07-28T09:33:46Z</time>
      </trkpt>
      <trkpt lat="49.33686" lon="6.01491">
        <ele>347.3</ele>
        <time>2021-07-28T09:33:48Z</time>
      </trkpt>
      <trkpt lat="49.33683" lon="6.01484">
        <ele>347.2</ele>
        <time>2021-07-28T09:33:49Z</time>
      </trkpt>
      <trkpt lat="49.33678" lon="6.01469">
        <ele>346.9</ele>
        <time>2021-07-28T09:33:51Z</time>
      </trkpt>
      <trkpt lat="49.33672" lon="6.01453">
        <ele>346.7</ele>
        <time>2021-07-28T09:33:53Z</time>
      </trkpt>
      <trkpt lat="49.3367" lon="6.01444">
        <ele>346.7</ele>
        <time>2021-07-28T09:33:54Z</time>
      </trkpt>
      <trkpt lat="49.33666" lon="6.01429">
        <ele>346.6</ele>
        <time>2021-07-28T09:33:56Z</time>
      </trkpt>
      <trkpt lat="49.33664" lon="6.01422">
        <ele>346.6</ele>
        <time>2021-07-28T09:33:57Z</time>
      </trkpt>
      <trkpt lat="49.33664" lon="6.01414">
        <ele>346.6</ele>
        <time>2021-07-28T09:33:58Z</time>
      </trkpt>
      <trkpt lat="49.3366" lon="6.01401">
        <ele>346.7</ele>
        <time>2021-07-28T09:34:00Z</time>
      </trkpt>
      <trkpt lat="49.33653" lon="6.01389">
        <ele>346.7</ele>
        <time>2021-07-28T09:34:02Z</time>
      </trkpt>
      <trkpt lat="49.3365" lon="6.01382">
        <ele>346.8</ele>
        <time>2021-07-28T09:34:03Z</time>
      </trkpt>
      <trkpt lat="49.33645" lon="6.0137">
        <ele>346.9</ele>
        <time>2021-07-28T09:34:05Z</time>
      </trkpt>
      <trkpt lat="49.33642" lon="6.0136">
        <ele>347</ele>
        <time>2021-07-28T09:34:07Z</time>
      </trkpt>
      <trkpt lat="49.33639" lon="6.0135">
        <ele>347.1</ele>
        <time>2021-07-28T09:34:09Z</time>
      </trkpt>
      <trkpt lat="49.33637" lon="6.01343">
        <ele>347.1</ele>
        <time>2021-07-28T09:34:10Z</time>
      </trkpt>
      <trkpt lat="49.33636" lon="6.0134">
        <ele>347.1</ele>
        <time>2021-07-28T09:34:11Z</time>
      </trkpt>
      <trkpt lat="49.33635" lon="6.0133">
        <ele>347.2</ele>
        <time>2021-07-28T09:34:13Z</time>
      </trkpt>
      <trkpt lat="49.33634" lon="6.01326">
        <ele>347.2</ele>
        <time>2021-07-28T09:34:14Z</time>
      </trkpt>
      <trkpt lat="49.33631" lon="6.01321">
        <ele>347.2</ele>
        <time>2021-07-28T09:34:15Z</time>
      </trkpt>
      <trkpt lat="49.33628" lon="6.01311">
        <ele>347.2</ele>
        <time>2021-07-28T09:34:17Z</time>
      </trkpt>
      <trkpt lat="49.33627" lon="6.01304">
        <ele>347.1</ele>
        <time>2021-07-28T09:34:18Z</time>
      </trkpt>
      <trkpt lat="49.33626" lon="6.01298">
        <ele>347.1</ele>
        <time>2021-07-28T09:34:19Z</time>
      </trkpt>
      <trkpt lat="49.33626" lon="6.01287">
        <ele>347</ele>
        <time>2021-07-28T09:34:20Z</time>
      </trkpt>
      <trkpt lat="49.33625" lon="6.01276">
        <ele>346.9</ele>
        <time>2021-07-28T09:34:22Z</time>
      </trkpt>
      <trkpt lat="49.33624" lon="6.01269">
        <ele>346.8</ele>
        <time>2021-07-28T09:34:23Z</time>
      </trkpt>
      <trkpt lat="49.33619" lon="6.01258">
        <ele>346.6</ele>
        <time>2021-07-28T09:34:24Z</time>
      </trkpt>
      <trkpt lat="49.33617" lon="6.01251">
        <ele>346.5</ele>
        <time>2021-07-28T09:34:25Z</time>
      </trkpt>
      <trkpt lat="49.33614" lon="6.01242">
        <ele>346.3</ele>
        <time>2021-07-28T09:34:27Z</time>
      </trkpt>
      <trkpt lat="49.33614" lon="6.01234">
        <ele>346.2</ele>
        <time>2021-07-28T09:34:28Z</time>
      </trkpt>
      <trkpt lat="49.33611" lon="6.0123">
        <ele>346.1</ele>
        <time>2021-07-28T09:34:29Z</time>
      </trkpt>
      <trkpt lat="49.33609" lon="6.01222">
        <ele>346</ele>
        <time>2021-07-28T09:34:31Z</time>
      </trkpt>
      <trkpt lat="49.33608" lon="6.01217">
        <ele>345.9</ele>
        <time>2021-07-28T09:34:32Z</time>
      </trkpt>
      <trkpt lat="49.33605" lon="6.01208">
        <ele>345.7</ele>
        <time>2021-07-28T09:34:34Z</time>
      </trkpt>
      <trkpt lat="49.33602" lon="6.01202">
        <ele>345.6</ele>
        <time>2021-07-28T09:34:36Z</time>
      </trkpt>
      <trkpt lat="49.33599" lon="6.01196">
        <ele>345.5</ele>
        <time>2021-07-28T09:34:37Z</time>
      </trkpt>
      <trkpt lat="49.33597" lon="6.01189">
        <ele>345.4</ele>
        <time>2021-07-28T09:34:38Z</time>
      </trkpt>
      <trkpt lat="49.33595" lon="6.01183">
        <ele>345.3</ele>
        <time>2021-07-28T09:34:39Z</time>
      </trkpt>
      <trkpt lat="49.33594" lon="6.01174">
        <ele>345.2</ele>
        <time>2021-07-28T09:34:40Z</time>
      </trkpt>
      <trkpt lat="49.33593" lon="6.01166">
        <ele>345.1</ele>
        <time>2021-07-28T09:34:41Z</time>
      </trkpt>
      <trkpt lat="49.33592" lon="6.01156">
        <ele>344.9</ele>
        <time>2021-07-28T09:34:43Z</time>
      </trkpt>
      <trkpt lat="49.33589" lon="6.01148">
        <ele>344.8</ele>
        <time>2021-07-28T09:34:44Z</time>
      </trkpt>
      <trkpt lat="49.33586" lon="6.0114">
        <ele>344.6</ele>
        <time>2021-07-28T09:34:46Z</time>
      </trkpt>
      <trkpt lat="49.33581" lon="6.01126">
        <ele>344.3</ele>
        <time>2021-07-28T09:34:47Z</time>
      </trkpt>
      <trkpt lat="49.33582" lon="6.01117">
        <ele>344.2</ele>
        <time>2021-07-28T09:34:48Z</time>
      </trkpt>
      <trkpt lat="49.33583" lon="6.011">
        <ele>343.8</ele>
        <time>2021-07-28T09:34:50Z</time>
      </trkpt>
      <trkpt lat="49.33578" lon="6.01084">
        <ele>343.4</ele>
        <time>2021-07-28T09:34:52Z</time>
      </trkpt>
      <trkpt lat="49.33571" lon="6.01065">
        <ele>342.9</ele>
        <time>2021-07-28T09:34:54Z</time>
      </trkpt>
      <trkpt lat="49.33567" lon="6.01048">
        <ele>342.6</ele>
        <time>2021-07-28T09:34:56Z</time>
      </trkpt>
      <trkpt lat="49.33566" lon="6.01042">
        <ele>342.5</ele>
        <time>2021-07-28T09:34:57Z</time>
      </trkpt>
      <trkpt lat="49.33566" lon="6.01039">
        <ele>342.5</ele>
        <time>2021-07-28T09:34:58Z</time>
      </trkpt>
      <trkpt lat="49.33567" lon="6.01031">
        <ele>342.4</ele>
        <time>2021-07-28T09:35:00Z</time>
      </trkpt>
      <trkpt lat="49.33566" lon="6.01026">
        <ele>342.4</ele>
        <time>2021-07-28T09:35:01Z</time>
      </trkpt>
      <trkpt lat="49.33561" lon="6.01017">
        <ele>342.4</ele>
        <time>2021-07-28T09:35:03Z</time>
      </trkpt>
      <trkpt lat="49.33557" lon="6.01008">
        <ele>342.4</ele>
        <time>2021-07-28T09:35:04Z</time>
      </trkpt>
      <trkpt lat="49.33553" lon="6.01003">
        <ele>342.4</ele>
        <time>2021-07-28T09:35:05Z</time>
      </trkpt>
      <trkpt lat="49.33542" lon="6.00991">
        <ele>342.3</ele>
        <time>2021-07-28T09:35:07Z</time>
      </trkpt>
      <trkpt lat="49.33532" lon="6.00981">
        <ele>342.4</ele>
        <time>2021-07-28T09:35:09Z</time>
      </trkpt>
      <trkpt lat="49.33529" lon="6.00977">
        <ele>342.5</ele>
        <time>2021-07-28T09:35:10Z</time>
      </trkpt>
      <trkpt lat="49.33522" lon="6.00969">
        <ele>342.6</ele>
        <time>2021-07-28T09:35:12Z</time>
      </trkpt>
      <trkpt lat="49.33518" lon="6.00963">
        <ele>342.6</ele>
        <time>2021-07-28T09:35:14Z</time>
      </trkpt>
      <trkpt lat="49.33514" lon="6.00961">
        <ele>342.6</ele>
        <time>2021-07-28T09:35:15Z</time>
      </trkpt>
      <trkpt lat="49.3351" lon="6.00956">
        <ele>342.7</ele>
        <time>2021-07-28T09:35:16Z</time>
      </trkpt>
      <trkpt lat="49.33507" lon="6.00952">
        <ele>342.7</ele>
        <time>2021-07-28T09:35:18Z</time>
      </trkpt>
      <trkpt lat="49.33502" lon="6.00946">
        <ele>342.7</ele>
        <time>2021-07-28T09:35:19Z</time>
      </trkpt>
      <trkpt lat="49.33498" lon="6.00942">
        <ele>342.8</ele>
        <time>2021-07-28T09:35:20Z</time>
      </trkpt>
      <trkpt lat="49.33493" lon="6.00936">
        <ele>342.8</ele>
        <time>2021-07-28T09:35:22Z</time>
      </trkpt>
      <trkpt lat="49.33489" lon="6.00931">
        <ele>342.8</ele>
        <time>2021-07-28T09:35:23Z</time>
      </trkpt>
      <trkpt lat="49.33486" lon="6.00928">
        <ele>342.8</ele>
        <time>2021-07-28T09:35:24Z</time>
      </trkpt>
      <trkpt lat="49.33481" lon="6.00924">
        <ele>342.8</ele>
        <time>2021-07-28T09:35:25Z</time>
      </trkpt>
      <trkpt lat="49.33475" lon="6.00918">
        <ele>342.8</ele>
        <time>2021-07-28T09:35:27Z</time>
      </trkpt>
      <trkpt lat="49.33471" lon="6.00914">
        <ele>342.8</ele>
        <time>2021-07-28T09:35:28Z</time>
      </trkpt>
      <trkpt lat="49.33467" lon="6.00909">
        <ele>342.9</ele>
        <time>2021-07-28T09:35:29Z</time>
      </trkpt>
      <trkpt lat="49.33463" lon="6.00902">
        <ele>342.9</ele>
        <time>2021-07-28T09:35:30Z</time>
      </trkpt>
      <trkpt lat="49.33459" lon="6.00897">
        <ele>343</ele>
        <time>2021-07-28T09:35:32Z</time>
      </trkpt>
      <trkpt lat="49.33455" lon="6.00892">
        <ele>343</ele>
        <time>2021-07-28T09:35:33Z</time>
      </trkpt>
      <trkpt lat="49.33451" lon="6.00888">
        <ele>343</ele>
        <time>2021-07-28T09:35:34Z</time>
      </trkpt>
      <trkpt lat="49.33449" lon="6.00884">
        <ele>343</ele>
        <time>2021-07-28T09:35:35Z</time>
      </trkpt>
      <trkpt lat="49.33445" lon="6.00878">
        <ele>343</ele>
        <time>2021-07-28T09:35:37Z</time>
      </trkpt>
      <trkpt lat="49.33442" lon="6.00871">
        <ele>343</ele>
        <time>2021-07-28T09:35:38Z</time>
      </trkpt>
      <trkpt lat="49.3344" lon="6.00863">
        <ele>343</ele>
        <time>2021-07-28T09:35:40Z</time>
      </trkpt>
      <trkpt lat="49.33439" lon="6.00855">
        <ele>342.9</ele>
        <time>2021-07-28T09:35:41Z</time>
      </trkpt>
      <trkpt lat="49.33437" lon="6.00844">
        <ele>342.8</ele>
        <time>2021-07-28T09:35:42Z</time>
      </trkpt>
      <trkpt lat="49.33436" lon="6.00835">
        <ele>342.6</ele>
        <time>2021-07-28T09:35:43Z</time>
      </trkpt>
      <trkpt lat="49.33435" lon="6.00824">
        <ele>342.3</ele>
        <time>2021-07-28T09:35:45Z</time>
      </trkpt>
      <trkpt lat="49.33437" lon="6.00809">
        <ele>341.9</ele>
        <time>2021-07-28T09:35:46Z</time>
      </trkpt>
      <trkpt lat="49.3344" lon="6.008">
        <ele>341.7</ele>
        <time>2021-07-28T09:35:47Z</time>
      </trkpt>
      <trkpt lat="49.33445" lon="6.00781">
        <ele>341.1</ele>
        <time>2021-07-28T09:35:49Z</time>
      </trkpt>
      <trkpt lat="49.33451" lon="6.00766">
        <ele>340.6</ele>
        <time>2021-07-28T09:35:51Z</time>
      </trkpt>
      <trkpt lat="49.33452" lon="6.00758">
        <ele>340.4</ele>
        <time>2021-07-28T09:35:52Z</time>
      </trkpt>
      <trkpt lat="49.33452" lon="6.00753">
        <ele>340.2</ele>
        <time>2021-07-28T09:35:53Z</time>
      </trkpt>
      <trkpt lat="49.33453" lon="6.00745">
        <ele>340</ele>
        <time>2021-07-28T09:35:54Z</time>
      </trkpt>
      <trkpt lat="49.33451" lon="6.00727">
        <ele>339.6</ele>
        <time>2021-07-28T09:35:56Z</time>
      </trkpt>
      <trkpt lat="49.33444" lon="6.00708">
        <ele>339.1</ele>
        <time>2021-07-28T09:35:58Z</time>
      </trkpt>
      <trkpt lat="49.33439" lon="6.00699">
        <ele>338.9</ele>
        <time>2021-07-28T09:35:59Z</time>
      </trkpt>
      <trkpt lat="49.33434" lon="6.00689">
        <ele>338.8</ele>
        <time>2021-07-28T09:36:00Z</time>
      </trkpt>
      <trkpt lat="49.33413" lon="6.00668">
        <ele>339.3</ele>
        <time>2021-07-28T09:36:02Z</time>
      </trkpt>
      <trkpt lat="49.33396" lon="6.00653">
        <ele>340.1</ele>
        <time>2021-07-28T09:36:04Z</time>
      </trkpt>
      <trkpt lat="49.33389" lon="6.00646">
        <ele>340.6</ele>
        <time>2021-07-28T09:36:05Z</time>
      </trkpt>
      <trkpt lat="49.33394" lon="6.00671">
        <ele>341.4</ele>
        <time>2021-07-28T09:36:07Z</time>
      </trkpt>
      <trkpt lat="49.33388" lon="6.00676">
        <ele>341.6</ele>
        <time>2021-07-28T09:36:09Z</time>
      </trkpt>
      <trkpt lat="49.33385" lon="6.00676">
        <ele>341.7</ele>
        <time>2021-07-28T09:36:10Z</time>
      </trkpt>
      <trkpt lat="49.33381" lon="6.00675">
        <ele>341.8</ele>
        <time>2021-07-28T09:36:11Z</time>
      </trkpt>
      <trkpt lat="49.33379" lon="6.00674">
        <ele>341.9</ele>
        <time>2021-07-28T09:36:12Z</time>
      </trkpt>
      <trkpt lat="49.33377" lon="6.00673">
        <ele>342</ele>
        <time>2021-07-28T09:36:14Z</time>
      </trkpt>
      <trkpt lat="49.33371" lon="6.0067">
        <ele>342.2</ele>
        <time>2021-07-28T09:36:15Z</time>
      </trkpt>
      <trkpt lat="49.33362" lon="6.00662">
        <ele>342.7</ele>
        <time>2021-07-28T09:36:17Z</time>
      </trkpt>
      <trkpt lat="49.33358" lon="6.00659">
        <ele>342.9</ele>
        <time>2021-07-28T09:36:18Z</time>
      </trkpt>
      <trkpt lat="49.33351" lon="6.00654">
        <ele>343.4</ele>
        <time>2021-07-28T09:36:20Z</time>
      </trkpt>
      <trkpt lat="49.33348" lon="6.00652">
        <ele>343.6</ele>
        <time>2021-07-28T09:36:21Z</time>
      </trkpt>
      <trkpt lat="49.3335" lon="6.00651">
        <ele>343.6</ele>
        <time>2021-07-28T09:36:23Z</time>
      </trkpt>
      <trkpt lat="49.3335" lon="6.00651">
        <ele>343.6</ele>
        <time>2021-07-28T09:36:24Z</time>
      </trkpt>
      <trkpt lat="49.33349" lon="6.0065">
        <ele>343.7</ele>
        <time>2021-07-28T09:36:25Z</time>
      </trkpt>
      <trkpt lat="49.33346" lon="6.0065">
        <ele>343.8</ele>
        <time>2021-07-28T09:36:26Z</time>
      </trkpt>
      <trkpt lat="49.33344" lon="6.00649">
        <ele>343.9</ele>
        <time>2021-07-28T09:36:27Z</time>
      </trkpt>
      <trkpt lat="49.33341" lon="6.00649">
        <ele>344</ele>
        <time>2021-07-28T09:36:29Z</time>
      </trkpt>
      <trkpt lat="49.3334" lon="6.00649">
        <ele>344</ele>
        <time>2021-07-28T09:36:30Z</time>
      </trkpt>
      <trkpt lat="49.33267" lon="6.00709">
        <ele>347.9</ele>
        <time>2021-07-28T09:37:39Z</time>
      </trkpt>
      <trkpt lat="49.33265" lon="6.00721">
        <ele>348</ele>
        <time>2021-07-28T09:37:41Z</time>
      </trkpt>
      <trkpt lat="49.33263" lon="6.00732">
        <ele>348.1</ele>
        <time>2021-07-28T09:37:43Z</time>
      </trkpt>
      <trkpt lat="49.33262" lon="6.00737">
        <ele>348.1</ele>
        <time>2021-07-28T09:37:44Z</time>
      </trkpt>
      <trkpt lat="49.33259" lon="6.00747">
        <ele>348.2</ele>
        <time>2021-07-28T09:37:46Z</time>
      </trkpt>
      <trkpt lat="49.33259" lon="6.00752">
        <ele>348.2</ele>
        <time>2021-07-28T09:37:47Z</time>
      </trkpt>
      <trkpt lat="49.33261" lon="6.00755">
        <ele>348.3</ele>
        <time>2021-07-28T09:37:49Z</time>
      </trkpt>
      <trkpt lat="49.33261" lon="6.00757">
        <ele>348.3</ele>
        <time>2021-07-28T09:37:50Z</time>
      </trkpt>
      <trkpt lat="49.33262" lon="6.00758">
        <ele>348.3</ele>
        <time>2021-07-28T09:37:51Z</time>
      </trkpt>
      <trkpt lat="49.33262" lon="6.00759">
        <ele>348.3</ele>
        <time>2021-07-28T09:37:52Z</time>
      </trkpt>
      <trkpt lat="49.33262" lon="6.0076">
        <ele>348.3</ele>
        <time>2021-07-28T09:37:54Z</time>
      </trkpt>
      <trkpt lat="49.33261" lon="6.00762">
        <ele>348.4</ele>
        <time>2021-07-28T09:37:55Z</time>
      </trkpt>
      <trkpt lat="49.3326" lon="6.00767">
        <ele>348.4</ele>
        <time>2021-07-28T09:37:56Z</time>
      </trkpt>
      <trkpt lat="49.3326" lon="6.00768">
        <ele>348.5</ele>
        <time>2021-07-28T09:37:57Z</time>
      </trkpt>
      <trkpt lat="49.33259" lon="6.0077">
        <ele>348.5</ele>
        <time>2021-07-28T09:37:58Z</time>
      </trkpt>
      <trkpt lat="49.33258" lon="6.00772">
        <ele>348.5</ele>
        <time>2021-07-28T09:37:59Z</time>
      </trkpt>
      <trkpt lat="49.33229" lon="6.00882">
        <ele>350.8</ele>
        <time>2021-07-28T09:38:42Z</time>
      </trkpt>
      <trkpt lat="49.33227" lon="6.00888">
        <ele>351</ele>
        <time>2021-07-28T09:38:43Z</time>
      </trkpt>
      <trkpt lat="49.33227" lon="6.0089">
        <ele>351</ele>
        <time>2021-07-28T09:38:44Z</time>
      </trkpt>
      <trkpt lat="49.33226" lon="6.00896">
        <ele>351.1</ele>
        <time>2021-07-28T09:38:45Z</time>
      </trkpt>
      <trkpt lat="49.33223" lon="6.00904">
        <ele>351.3</ele>
        <time>2021-07-28T09:38:47Z</time>
      </trkpt>
      <trkpt lat="49.3322" lon="6.00911">
        <ele>351.4</ele>
        <time>2021-07-28T09:38:48Z</time>
      </trkpt>
      <trkpt lat="49.33219" lon="6.00917">
        <ele>351.5</ele>
        <time>2021-07-28T09:38:49Z</time>
      </trkpt>
      <trkpt lat="49.33219" lon="6.00919">
        <ele>351.6</ele>
        <time>2021-07-28T09:38:50Z</time>
      </trkpt>
      <trkpt lat="49.33217" lon="6.00925">
        <ele>351.7</ele>
        <time>2021-07-28T09:38:52Z</time>
      </trkpt>
      <trkpt lat="49.33216" lon="6.00927">
        <ele>351.8</ele>
        <time>2021-07-28T09:38:53Z</time>
      </trkpt>
      <trkpt lat="49.33215" lon="6.00929">
        <ele>351.8</ele>
        <time>2021-07-28T09:38:54Z</time>
      </trkpt>
      <trkpt lat="49.33213" lon="6.00932">
        <ele>351.9</ele>
        <time>2021-07-28T09:38:55Z</time>
      </trkpt>
      <trkpt lat="49.33212" lon="6.00934">
        <ele>352</ele>
        <time>2021-07-28T09:38:56Z</time>
      </trkpt>
      <trkpt lat="49.33209" lon="6.00943">
        <ele>352.2</ele>
        <time>2021-07-28T09:38:57Z</time>
      </trkpt>
      <trkpt lat="49.33206" lon="6.00947">
        <ele>352.3</ele>
        <time>2021-07-28T09:38:58Z</time>
      </trkpt>
      <trkpt lat="49.33204" lon="6.00951">
        <ele>352.4</ele>
        <time>2021-07-28T09:38:59Z</time>
      </trkpt>
      <trkpt lat="49.33202" lon="6.00956">
        <ele>352.5</ele>
        <time>2021-07-28T09:39:00Z</time>
      </trkpt>
      <trkpt lat="49.33201" lon="6.0096">
        <ele>352.6</ele>
        <time>2021-07-28T09:39:01Z</time>
      </trkpt>
      <trkpt lat="49.33202" lon="6.0096">
        <ele>352.6</ele>
        <time>2021-07-28T09:39:02Z</time>
      </trkpt>
      <trkpt lat="49.33204" lon="6.00961">
        <ele>352.7</ele>
        <time>2021-07-28T09:39:04Z</time>
      </trkpt>
      <trkpt lat="49.33204" lon="6.00962">
        <ele>352.7</ele>
        <time>2021-07-28T09:39:05Z</time>
      </trkpt>
      <trkpt lat="49.33205" lon="6.00963">
        <ele>352.7</ele>
        <time>2021-07-28T09:39:06Z</time>
      </trkpt>
      <trkpt lat="49.33206" lon="6.00965">
        <ele>352.7</ele>
        <time>2021-07-28T09:39:07Z</time>
      </trkpt>
      <trkpt lat="49.33207" lon="6.0097">
        <ele>352.8</ele>
        <time>2021-07-28T09:39:09Z</time>
      </trkpt>
      <trkpt lat="49.33208" lon="6.00974">
        <ele>352.9</ele>
        <time>2021-07-28T09:39:10Z</time>
      </trkpt>
      <trkpt lat="49.33208" lon="6.00982">
        <ele>353</ele>
        <time>2021-07-28T09:39:12Z</time>
      </trkpt>
      <trkpt lat="49.33209" lon="6.00986">
        <ele>353.1</ele>
        <time>2021-07-28T09:39:13Z</time>
      </trkpt>
      <trkpt lat="49.33209" lon="6.00994">
        <ele>353.2</ele>
        <time>2021-07-28T09:39:15Z</time>
      </trkpt>
      <trkpt lat="49.33208" lon="6.01">
        <ele>353.3</ele>
        <time>2021-07-28T09:39:16Z</time>
      </trkpt>
      <trkpt lat="49.33207" lon="6.01002">
        <ele>353.3</ele>
        <time>2021-07-28T09:39:17Z</time>
      </trkpt>
      <trkpt lat="49.33204" lon="6.01005">
        <ele>353.4</ele>
        <time>2021-07-28T09:39:19Z</time>
      </trkpt>
      <trkpt lat="49.332" lon="6.01009">
        <ele>353.5</ele>
        <time>2021-07-28T09:39:20Z</time>
      </trkpt>
      <trkpt lat="49.33195" lon="6.01015">
        <ele>353.6</ele>
        <time>2021-07-28T09:39:22Z</time>
      </trkpt>
      <trkpt lat="49.33193" lon="6.01016">
        <ele>353.7</ele>
        <time>2021-07-28T09:39:23Z</time>
      </trkpt>
      <trkpt lat="49.33192" lon="6.01022">
        <ele>353.7</ele>
        <time>2021-07-28T09:39:25Z</time>
      </trkpt>
      <trkpt lat="49.33192" lon="6.01029">
        <ele>353.8</ele>
        <time>2021-07-28T09:39:27Z</time>
      </trkpt>
      <trkpt lat="49.33192" lon="6.01031">
        <ele>353.8</ele>
        <time>2021-07-28T09:39:29Z</time>
      </trkpt>
      <trkpt lat="49.33192" lon="6.01032">
        <ele>353.8</ele>
        <time>2021-07-28T09:39:31Z</time>
      </trkpt>
      <trkpt lat="49.33193" lon="6.01034">
        <ele>353.9</ele>
        <time>2021-07-28T09:39:32Z</time>
      </trkpt>
      <trkpt lat="49.33191" lon="6.01043">
        <ele>354</ele>
        <time>2021-07-28T09:39:34Z</time>
      </trkpt>
      <trkpt lat="49.33191" lon="6.01047">
        <ele>354</ele>
        <time>2021-07-28T09:39:35Z</time>
      </trkpt>
      <trkpt lat="49.33191" lon="6.01052">
        <ele>354.1</ele>
        <time>2021-07-28T09:39:36Z</time>
      </trkpt>
      <trkpt lat="49.3319" lon="6.01056">
        <ele>354.2</ele>
        <time>2021-07-28T09:39:37Z</time>
      </trkpt>
      <trkpt lat="49.33189" lon="6.01061">
        <ele>354.3</ele>
        <time>2021-07-28T09:39:38Z</time>
      </trkpt>
      <trkpt lat="49.33188" lon="6.01066">
        <ele>354.4</ele>
        <time>2021-07-28T09:39:39Z</time>
      </trkpt>
      <trkpt lat="49.33185" lon="6.0107">
        <ele>354.5</ele>
        <time>2021-07-28T09:39:40Z</time>
      </trkpt>
      <trkpt lat="49.33185" lon="6.01072">
        <ele>354.5</ele>
        <time>2021-07-28T09:39:41Z</time>
      </trkpt>
      <trkpt lat="49.33183" lon="6.01078">
        <ele>354.6</ele>
        <time>2021-07-28T09:39:42Z</time>
      </trkpt>
      <trkpt lat="49.33182" lon="6.01082">
        <ele>354.7</ele>
        <time>2021-07-28T09:39:43Z</time>
      </trkpt>
      <trkpt lat="49.3318" lon="6.01084">
        <ele>354.8</ele>
        <time>2021-07-28T09:39:45Z</time>
      </trkpt>
      <trkpt lat="49.33178" lon="6.01087">
        <ele>354.9</ele>
        <time>2021-07-28T09:39:46Z</time>
      </trkpt>
      <trkpt lat="49.33175" lon="6.01091">
        <ele>355</ele>
        <time>2021-07-28T09:39:47Z</time>
      </trkpt>
      <trkpt lat="49.33173" lon="6.01092">
        <ele>355.1</ele>
        <time>2021-07-28T09:39:48Z</time>
      </trkpt>
      <trkpt lat="49.33172" lon="6.01094">
        <ele>355.2</ele>
        <time>2021-07-28T09:39:49Z</time>
      </trkpt>
      <trkpt lat="49.33167" lon="6.01098">
        <ele>355.3</ele>
        <time>2021-07-28T09:39:51Z</time>
      </trkpt>
      <trkpt lat="49.33167" lon="6.01098">
        <ele>355.3</ele>
        <time>2021-07-28T09:39:52Z</time>
      </trkpt>
      <trkpt lat="49.33166" lon="6.01098">
        <ele>355.3</ele>
        <time>2021-07-28T09:39:53Z</time>
      </trkpt>
      <trkpt lat="49.33164" lon="6.01102">
        <ele>355.4</ele>
        <time>2021-07-28T09:39:55Z</time>
      </trkpt>
      <trkpt lat="49.33162" lon="6.01106">
        <ele>355.6</ele>
        <time>2021-07-28T09:39:56Z</time>
      </trkpt>
      <trkpt lat="49.33161" lon="6.01107">
        <ele>355.6</ele>
        <time>2021-07-28T09:39:57Z</time>
      </trkpt>
      <trkpt lat="49.33159" lon="6.01111">
        <ele>355.7</ele>
        <time>2021-07-28T09:39:58Z</time>
      </trkpt>
      <trkpt lat="49.33159" lon="6.01112">
        <ele>355.7</ele>
        <time>2021-07-28T09:39:59Z</time>
      </trkpt>
      <trkpt lat="49.33158" lon="6.01117">
        <ele>355.8</ele>
        <time>2021-07-28T09:40:00Z</time>
      </trkpt>
      <trkpt lat="49.33158" lon="6.01119">
        <ele>355.9</ele>
        <time>2021-07-28T09:40:01Z</time>
      </trkpt>
      <trkpt lat="49.3316" lon="6.01125">
        <ele>356</ele>
        <time>2021-07-28T09:40:03Z</time>
      </trkpt>
      <trkpt lat="49.33161" lon="6.01128">
        <ele>356</ele>
        <time>2021-07-28T09:40:04Z</time>
      </trkpt>
      <trkpt lat="49.33162" lon="6.01131">
        <ele>356.1</ele>
        <time>2021-07-28T09:40:05Z</time>
      </trkpt>
      <trkpt lat="49.3316" lon="6.01135">
        <ele>356.2</ele>
        <time>2021-07-28T09:40:06Z</time>
      </trkpt>
      <trkpt lat="49.3316" lon="6.01137">
        <ele>356.2</ele>
        <time>2021-07-28T09:40:07Z</time>
      </trkpt>
      <trkpt lat="49.33159" lon="6.01142">
        <ele>356.3</ele>
        <time>2021-07-28T09:40:09Z</time>
      </trkpt>
      <trkpt lat="49.33158" lon="6.01144">
        <ele>356.3</ele>
        <time>2021-07-28T09:40:10Z</time>
      </trkpt>
      <trkpt lat="49.33158" lon="6.01149">
        <ele>356.4</ele>
        <time>2021-07-28T09:40:11Z</time>
      </trkpt>
      <trkpt lat="49.33157" lon="6.01154">
        <ele>356.5</ele>
        <time>2021-07-28T09:40:12Z</time>
      </trkpt>
      <trkpt lat="49.33157" lon="6.01156">
        <ele>356.5</ele>
        <time>2021-07-28T09:40:13Z</time>
      </trkpt>
      <trkpt lat="49.33155" lon="6.01162">
        <ele>356.5</ele>
        <time>2021-07-28T09:40:14Z</time>
      </trkpt>
      <trkpt lat="49.33155" lon="6.01164">
        <ele>356.5</ele>
        <time>2021-07-28T09:40:15Z</time>
      </trkpt>
      <trkpt lat="49.33154" lon="6.01165">
        <ele>356.6</ele>
        <time>2021-07-28T09:40:16Z</time>
      </trkpt>
      <trkpt lat="49.33152" lon="6.0117">
        <ele>356.6</ele>
        <time>2021-07-28T09:40:18Z</time>
      </trkpt>
      <trkpt lat="49.3315" lon="6.01174">
        <ele>356.6</ele>
        <time>2021-07-28T09:40:19Z</time>
      </trkpt>
      <trkpt lat="49.33148" lon="6.01177">
        <ele>356.6</ele>
        <time>2021-07-28T09:40:20Z</time>
      </trkpt>
      <trkpt lat="49.33146" lon="6.0118">
        <ele>356.6</ele>
        <time>2021-07-28T09:40:21Z</time>
      </trkpt>
      <trkpt lat="49.33145" lon="6.01182">
        <ele>356.6</ele>
        <time>2021-07-28T09:40:22Z</time>
      </trkpt>
      <trkpt lat="49.33143" lon="6.01188">
        <ele>356.6</ele>
        <time>2021-07-28T09:40:23Z</time>
      </trkpt>
      <trkpt lat="49.33141" lon="6.01193">
        <ele>356.6</ele>
        <time>2021-07-28T09:40:25Z</time>
      </trkpt>
      <trkpt lat="49.33139" lon="6.01198">
        <ele>356.6</ele>
        <time>2021-07-28T09:40:26Z</time>
      </trkpt>
      <trkpt lat="49.33138" lon="6.01204">
        <ele>356.6</ele>
        <time>2021-07-28T09:40:27Z</time>
      </trkpt>
      <trkpt lat="49.33137" lon="6.01211">
        <ele>356.5</ele>
        <time>2021-07-28T09:40:28Z</time>
      </trkpt>
      <trkpt lat="49.33135" lon="6.01215">
        <ele>356.5</ele>
        <time>2021-07-28T09:40:29Z</time>
      </trkpt>
      <trkpt lat="49.33132" lon="6.01224">
        <ele>356.4</ele>
        <time>2021-07-28T09:40:31Z</time>
      </trkpt>
      <trkpt lat="49.33129" lon="6.01228">
        <ele>356.3</ele>
        <time>2021-07-28T09:40:32Z</time>
      </trkpt>
      <trkpt lat="49.33127" lon="6.01241">
        <ele>356.2</ele>
        <time>2021-07-28T09:40:34Z</time>
      </trkpt>
      <trkpt lat="49.33126" lon="6.01254">
        <ele>356</ele>
        <time>2021-07-28T09:40:36Z</time>
      </trkpt>
      <trkpt lat="49.33126" lon="6.01262">
        <ele>355.9</ele>
        <time>2021-07-28T09:40:38Z</time>
      </trkpt>
      <trkpt lat="49.33126" lon="6.01268">
        <ele>355.7</ele>
        <time>2021-07-28T09:40:40Z</time>
      </trkpt>
      <trkpt lat="49.33124" lon="6.01276">
        <ele>355.6</ele>
        <time>2021-07-28T09:40:41Z</time>
      </trkpt>
      <trkpt lat="49.3312" lon="6.01289">
        <ele>355.3</ele>
        <time>2021-07-28T09:40:43Z</time>
      </trkpt>
      <trkpt lat="49.33116" lon="6.01304">
        <ele>354.9</ele>
        <time>2021-07-28T09:40:44Z</time>
      </trkpt>
      <trkpt lat="49.33111" lon="6.01324">
        <ele>354.6</ele>
        <time>2021-07-28T09:40:46Z</time>
      </trkpt>
      <trkpt lat="49.33106" lon="6.0134">
        <ele>354.4</ele>
        <time>2021-07-28T09:40:48Z</time>
      </trkpt>
      <trkpt lat="49.33101" lon="6.01347">
        <ele>354.3</ele>
        <time>2021-07-28T09:40:49Z</time>
      </trkpt>
      <trkpt lat="49.33094" lon="6.01361">
        <ele>354.1</ele>
        <time>2021-07-28T09:40:51Z</time>
      </trkpt>
      <trkpt lat="49.3309" lon="6.01368">
        <ele>354</ele>
        <time>2021-07-28T09:40:52Z</time>
      </trkpt>
      <trkpt lat="49.33088" lon="6.01376">
        <ele>353.9</ele>
        <time>2021-07-28T09:40:53Z</time>
      </trkpt>
      <trkpt lat="49.33084" lon="6.01388">
        <ele>353.7</ele>
        <time>2021-07-28T09:40:55Z</time>
      </trkpt>
      <trkpt lat="49.33081" lon="6.01386">
        <ele>353.6</ele>
        <time>2021-07-28T09:40:57Z</time>
      </trkpt>
      <trkpt lat="49.33077" lon="6.01389">
        <ele>353.6</ele>
        <time>2021-07-28T09:40:58Z</time>
      </trkpt>
      <trkpt lat="49.33073" lon="6.01393">
        <ele>353.5</ele>
        <time>2021-07-28T09:41:00Z</time>
      </trkpt>
      <trkpt lat="49.33072" lon="6.01395">
        <ele>353.5</ele>
        <time>2021-07-28T09:41:01Z</time>
      </trkpt>
      <trkpt lat="49.33071" lon="6.01396">
        <ele>353.5</ele>
        <time>2021-07-28T09:41:02Z</time>
      </trkpt>
      <trkpt lat="49.33057" lon="6.0141">
        <ele>353.3</ele>
        <time>2021-07-28T09:41:04Z</time>
      </trkpt>
      <trkpt lat="49.33047" lon="6.01413">
        <ele>353.4</ele>
        <time>2021-07-28T09:41:06Z</time>
      </trkpt>
      <trkpt lat="49.33043" lon="6.01413">
        <ele>353.4</ele>
        <time>2021-07-28T09:41:07Z</time>
      </trkpt>
      <trkpt lat="49.33039" lon="6.0141">
        <ele>353.4</ele>
        <time>2021-07-28T09:41:09Z</time>
      </trkpt>
      <trkpt lat="49.33037" lon="6.01406">
        <ele>353.4</ele>
        <time>2021-07-28T09:41:10Z</time>
      </trkpt>
      <trkpt lat="49.33035" lon="6.01402">
        <ele>353.4</ele>
        <time>2021-07-28T09:41:11Z</time>
      </trkpt>
      <trkpt lat="49.33033" lon="6.01397">
        <ele>353.4</ele>
        <time>2021-07-28T09:41:12Z</time>
      </trkpt>
      <trkpt lat="49.33031" lon="6.01393">
        <ele>353.4</ele>
        <time>2021-07-28T09:41:13Z</time>
      </trkpt>
      <trkpt lat="49.33029" lon="6.01389">
        <ele>353.4</ele>
        <time>2021-07-28T09:41:14Z</time>
      </trkpt>
      <trkpt lat="49.33027" lon="6.01386">
        <ele>353.4</ele>
        <time>2021-07-28T09:41:16Z</time>
      </trkpt>
      <trkpt lat="49.33024" lon="6.01383">
        <ele>353.3</ele>
        <time>2021-07-28T09:41:17Z</time>
      </trkpt>
      <trkpt lat="49.33022" lon="6.0138">
        <ele>353.3</ele>
        <time>2021-07-28T09:41:18Z</time>
      </trkpt>
      <trkpt lat="49.33019" lon="6.01377">
        <ele>353.2</ele>
        <time>2021-07-28T09:41:19Z</time>
      </trkpt>
      <trkpt lat="49.33014" lon="6.01375">
        <ele>353.1</ele>
        <time>2021-07-28T09:41:20Z</time>
      </trkpt>
      <trkpt lat="49.33011" lon="6.01373">
        <ele>353</ele>
        <time>2021-07-28T09:41:21Z</time>
      </trkpt>
      <trkpt lat="49.33008" lon="6.0137">
        <ele>352.9</ele>
        <time>2021-07-28T09:41:22Z</time>
      </trkpt>
      <trkpt lat="49.33004" lon="6.01365">
        <ele>352.7</ele>
        <time>2021-07-28T09:41:24Z</time>
      </trkpt>
      <trkpt lat="49.33" lon="6.01362">
        <ele>352.6</ele>
        <time>2021-07-28T09:41:25Z</time>
      </trkpt>
      <trkpt lat="49.32995" lon="6.01358">
        <ele>352.5</ele>
        <time>2021-07-28T09:41:26Z</time>
      </trkpt>
      <trkpt lat="49.32991" lon="6.01354">
        <ele>352.4</ele>
        <time>2021-07-28T09:41:27Z</time>
      </trkpt>
      <trkpt lat="49.32988" lon="6.0135">
        <ele>352.3</ele>
        <time>2021-07-28T09:41:28Z</time>
      </trkpt>
      <trkpt lat="49.32985" lon="6.01345">
        <ele>352.2</ele>
        <time>2021-07-28T09:41:29Z</time>
      </trkpt>
      <trkpt lat="49.32984" lon="6.01341">
        <ele>352.2</ele>
        <time>2021-07-28T09:41:30Z</time>
      </trkpt>
      <trkpt lat="49.32983" lon="6.01335">
        <ele>352.1</ele>
        <time>2021-07-28T09:41:31Z</time>
      </trkpt>
      <trkpt lat="49.32977" lon="6.01332">
        <ele>352</ele>
        <time>2021-07-28T09:41:33Z</time>
      </trkpt>
      <trkpt lat="49.32974" lon="6.01329">
        <ele>352</ele>
        <time>2021-07-28T09:41:34Z</time>
      </trkpt>
      <trkpt lat="49.32972" lon="6.01324">
        <ele>352</ele>
        <time>2021-07-28T09:41:35Z</time>
      </trkpt>
      <trkpt lat="49.32972" lon="6.01323">
        <ele>352</ele>
        <time>2021-07-28T09:41:37Z</time>
      </trkpt>
      <trkpt lat="49.32971" lon="6.01321">
        <ele>352.1</ele>
        <time>2021-07-28T09:41:38Z</time>
      </trkpt>
      <trkpt lat="49.32971" lon="6.01318">
        <ele>352.1</ele>
        <time>2021-07-28T09:41:40Z</time>
      </trkpt>
      <trkpt lat="49.3297" lon="6.01316">
        <ele>352.1</ele>
        <time>2021-07-28T09:41:41Z</time>
      </trkpt>
      <trkpt lat="49.3297" lon="6.01316">
        <ele>352.1</ele>
        <time>2021-07-28T09:41:42Z</time>
      </trkpt>
      <trkpt lat="49.32966" lon="6.01315">
        <ele>352.1</ele>
        <time>2021-07-28T09:41:44Z</time>
      </trkpt>
      <trkpt lat="49.32963" lon="6.01313">
        <ele>352.1</ele>
        <time>2021-07-28T09:41:45Z</time>
      </trkpt>
      <trkpt lat="49.3296" lon="6.01311">
        <ele>352.1</ele>
        <time>2021-07-28T09:41:46Z</time>
      </trkpt>
      <trkpt lat="49.32957" lon="6.01308">
        <ele>352.2</ele>
        <time>2021-07-28T09:41:48Z</time>
      </trkpt>
      <trkpt lat="49.32956" lon="6.01307">
        <ele>352.2</ele>
        <time>2021-07-28T09:41:49Z</time>
      </trkpt>
      <trkpt lat="49.32955" lon="6.01305">
        <ele>352.2</ele>
        <time>2021-07-28T09:41:50Z</time>
      </trkpt>
      <trkpt lat="49.32954" lon="6.01303">
        <ele>352.2</ele>
        <time>2021-07-28T09:41:51Z</time>
      </trkpt>
      <trkpt lat="49.32955" lon="6.01298">
        <ele>352.2</ele>
        <time>2021-07-28T09:41:53Z</time>
      </trkpt>
      <trkpt lat="49.32953" lon="6.01293">
        <ele>352.2</ele>
        <time>2021-07-28T09:41:54Z</time>
      </trkpt>
      <trkpt lat="49.32952" lon="6.01288">
        <ele>352.2</ele>
        <time>2021-07-28T09:41:56Z</time>
      </trkpt>
      <trkpt lat="49.3295" lon="6.01282">
        <ele>352.3</ele>
        <time>2021-07-28T09:41:57Z</time>
      </trkpt>
      <trkpt lat="49.32949" lon="6.01277">
        <ele>352.3</ele>
        <time>2021-07-28T09:41:58Z</time>
      </trkpt>
      <trkpt lat="49.32947" lon="6.01271">
        <ele>352.3</ele>
        <time>2021-07-28T09:41:59Z</time>
      </trkpt>
      <trkpt lat="49.32945" lon="6.01265">
        <ele>352.4</ele>
        <time>2021-07-28T09:42:01Z</time>
      </trkpt>
      <trkpt lat="49.32942" lon="6.01261">
        <ele>352.4</ele>
        <time>2021-07-28T09:42:02Z</time>
      </trkpt>
      <trkpt lat="49.32938" lon="6.01258">
        <ele>352.4</ele>
        <time>2021-07-28T09:42:03Z</time>
      </trkpt>
      <trkpt lat="49.32933" lon="6.01251">
        <ele>352.5</ele>
        <time>2021-07-28T09:42:05Z</time>
      </trkpt>
      <trkpt lat="49.3293" lon="6.01245">
        <ele>352.5</ele>
        <time>2021-07-28T09:42:06Z</time>
      </trkpt>
      <trkpt lat="49.32928" lon="6.01238">
        <ele>352.5</ele>
        <time>2021-07-28T09:42:07Z</time>
      </trkpt>
      <trkpt lat="49.32925" lon="6.01231">
        <ele>352.4</ele>
        <time>2021-07-28T09:42:09Z</time>
      </trkpt>
      <trkpt lat="49.32923" lon="6.01225">
        <ele>352.3</ele>
        <time>2021-07-28T09:42:10Z</time>
      </trkpt>
      <trkpt lat="49.32921" lon="6.01219">
        <ele>352.3</ele>
        <time>2021-07-28T09:42:11Z</time>
      </trkpt>
      <trkpt lat="49.32919" lon="6.01213">
        <ele>352.2</ele>
        <time>2021-07-28T09:42:12Z</time>
      </trkpt>
      <trkpt lat="49.32918" lon="6.01208">
        <ele>352.1</ele>
        <time>2021-07-28T09:42:13Z</time>
      </trkpt>
      <trkpt lat="49.32916" lon="6.01201">
        <ele>352</ele>
        <time>2021-07-28T09:42:15Z</time>
      </trkpt>
      <trkpt lat="49.32915" lon="6.01196">
        <ele>352</ele>
        <time>2021-07-28T09:42:16Z</time>
      </trkpt>
      <trkpt lat="49.32914" lon="6.01191">
        <ele>351.9</ele>
        <time>2021-07-28T09:42:17Z</time>
      </trkpt>
      <trkpt lat="49.32914" lon="6.01184">
        <ele>351.8</ele>
        <time>2021-07-28T09:42:19Z</time>
      </trkpt>
      <trkpt lat="49.32913" lon="6.01178">
        <ele>351.7</ele>
        <time>2021-07-28T09:42:20Z</time>
      </trkpt>
      <trkpt lat="49.32911" lon="6.01173">
        <ele>351.6</ele>
        <time>2021-07-28T09:42:21Z</time>
      </trkpt>
      <trkpt lat="49.32909" lon="6.01168">
        <ele>351.5</ele>
        <time>2021-07-28T09:42:22Z</time>
      </trkpt>
      <trkpt lat="49.32906" lon="6.0116">
        <ele>351.4</ele>
        <time>2021-07-28T09:42:24Z</time>
      </trkpt>
      <trkpt lat="49.32905" lon="6.01154">
        <ele>351.3</ele>
        <time>2021-07-28T09:42:25Z</time>
      </trkpt>
      <trkpt lat="49.32904" lon="6.01152">
        <ele>351.3</ele>
        <time>2021-07-28T09:42:26Z</time>
      </trkpt>
      <trkpt lat="49.32903" lon="6.01148">
        <ele>351.2</ele>
        <time>2021-07-28T09:42:28Z</time>
      </trkpt>
      <trkpt lat="49.32902" lon="6.01143">
        <ele>351.1</ele>
        <time>2021-07-28T09:42:29Z</time>
      </trkpt>
      <trkpt lat="49.32899" lon="6.01139">
        <ele>351</ele>
        <time>2021-07-28T09:42:30Z</time>
      </trkpt>
      <trkpt lat="49.32896" lon="6.01135">
        <ele>350.9</ele>
        <time>2021-07-28T09:42:31Z</time>
      </trkpt>
      <trkpt lat="49.32892" lon="6.0113">
        <ele>350.8</ele>
        <time>2021-07-28T09:42:32Z</time>
      </trkpt>
      <trkpt lat="49.32887" lon="6.01124">
        <ele>350.7</ele>
        <time>2021-07-28T09:42:33Z</time>
      </trkpt>
      <trkpt lat="49.32883" lon="6.01119">
        <ele>350.5</ele>
        <time>2021-07-28T09:42:34Z</time>
      </trkpt>
      <trkpt lat="49.3288" lon="6.01113">
        <ele>350.4</ele>
        <time>2021-07-28T09:42:36Z</time>
      </trkpt>
      <trkpt lat="49.32877" lon="6.01108">
        <ele>350.3</ele>
        <time>2021-07-28T09:42:37Z</time>
      </trkpt>
      <trkpt lat="49.32874" lon="6.01104">
        <ele>350.2</ele>
        <time>2021-07-28T09:42:38Z</time>
      </trkpt>
      <trkpt lat="49.3287" lon="6.01099">
        <ele>350.1</ele>
        <time>2021-07-28T09:42:39Z</time>
      </trkpt>
      <trkpt lat="49.32867" lon="6.01093">
        <ele>350</ele>
        <time>2021-07-28T09:42:41Z</time>
      </trkpt>
      <trkpt lat="49.32865" lon="6.01088">
        <ele>349.9</ele>
        <time>2021-07-28T09:42:42Z</time>
      </trkpt>
      <trkpt lat="49.32864" lon="6.01083">
        <ele>349.8</ele>
        <time>2021-07-28T09:42:43Z</time>
      </trkpt>
      <trkpt lat="49.32862" lon="6.01078">
        <ele>349.7</ele>
        <time>2021-07-28T09:42:44Z</time>
      </trkpt>
      <trkpt lat="49.3286" lon="6.01075">
        <ele>349.7</ele>
        <time>2021-07-28T09:42:45Z</time>
      </trkpt>
      <trkpt lat="49.32858" lon="6.01068">
        <ele>349.6</ele>
        <time>2021-07-28T09:42:47Z</time>
      </trkpt>
      <trkpt lat="49.32857" lon="6.01062">
        <ele>349.4</ele>
        <time>2021-07-28T09:42:48Z</time>
      </trkpt>
      <trkpt lat="49.32855" lon="6.01056">
        <ele>349.3</ele>
        <time>2021-07-28T09:42:49Z</time>
      </trkpt>
      <trkpt lat="49.32853" lon="6.01052">
        <ele>349.3</ele>
        <time>2021-07-28T09:42:50Z</time>
      </trkpt>
      <trkpt lat="49.32852" lon="6.01047">
        <ele>349.2</ele>
        <time>2021-07-28T09:42:51Z</time>
      </trkpt>
      <trkpt lat="49.32847" lon="6.01038">
        <ele>349</ele>
        <time>2021-07-28T09:42:53Z</time>
      </trkpt>
      <trkpt lat="49.32844" lon="6.01031">
        <ele>348.9</ele>
        <time>2021-07-28T09:42:54Z</time>
      </trkpt>
      <trkpt lat="49.32841" lon="6.01022">
        <ele>348.7</ele>
        <time>2021-07-28T09:42:56Z</time>
      </trkpt>
      <trkpt lat="49.32841" lon="6.01017">
        <ele>348.6</ele>
        <time>2021-07-28T09:42:57Z</time>
      </trkpt>
      <trkpt lat="49.32839" lon="6.01012">
        <ele>348.5</ele>
        <time>2021-07-28T09:42:58Z</time>
      </trkpt>
      <trkpt lat="49.32837" lon="6.01008">
        <ele>348.4</ele>
        <time>2021-07-28T09:43:00Z</time>
      </trkpt>
      <trkpt lat="49.32835" lon="6.01002">
        <ele>348.3</ele>
        <time>2021-07-28T09:43:01Z</time>
      </trkpt>
      <trkpt lat="49.32833" lon="6.00997">
        <ele>348.2</ele>
        <time>2021-07-28T09:43:03Z</time>
      </trkpt>
      <trkpt lat="49.32831" lon="6.00993">
        <ele>348.1</ele>
        <time>2021-07-28T09:43:04Z</time>
      </trkpt>
      <trkpt lat="49.3283" lon="6.00989">
        <ele>348</ele>
        <time>2021-07-28T09:43:05Z</time>
      </trkpt>
      <trkpt lat="49.32828" lon="6.00983">
        <ele>347.9</ele>
        <time>2021-07-28T09:43:07Z</time>
      </trkpt>
      <trkpt lat="49.32826" lon="6.00977">
        <ele>347.8</ele>
        <time>2021-07-28T09:43:08Z</time>
      </trkpt>
      <trkpt lat="49.32825" lon="6.00972">
        <ele>347.7</ele>
        <time>2021-07-28T09:43:09Z</time>
      </trkpt>
      <trkpt lat="49.32822" lon="6.00964">
        <ele>347.6</ele>
        <time>2021-07-28T09:43:11Z</time>
      </trkpt>
      <trkpt lat="49.32819" lon="6.00956">
        <ele>347.5</ele>
        <time>2021-07-28T09:43:12Z</time>
      </trkpt>
      <trkpt lat="49.32814" lon="6.00945">
        <ele>347.3</ele>
        <time>2021-07-28T09:43:14Z</time>
      </trkpt>
      <trkpt lat="49.32811" lon="6.00938">
        <ele>347.2</ele>
        <time>2021-07-28T09:43:15Z</time>
      </trkpt>
      <trkpt lat="49.32809" lon="6.0093">
        <ele>347.1</ele>
        <time>2021-07-28T09:43:17Z</time>
      </trkpt>
      <trkpt lat="49.32806" lon="6.00923">
        <ele>347</ele>
        <time>2021-07-28T09:43:18Z</time>
      </trkpt>
      <trkpt lat="49.32805" lon="6.00917">
        <ele>347</ele>
        <time>2021-07-28T09:43:19Z</time>
      </trkpt>
      <trkpt lat="49.32804" lon="6.00912">
        <ele>346.9</ele>
        <time>2021-07-28T09:43:20Z</time>
      </trkpt>
      <trkpt lat="49.32803" lon="6.00904">
        <ele>346.9</ele>
        <time>2021-07-28T09:43:22Z</time>
      </trkpt>
      <trkpt lat="49.32803" lon="6.00899">
        <ele>346.8</ele>
        <time>2021-07-28T09:43:23Z</time>
      </trkpt>
      <trkpt lat="49.32804" lon="6.0089">
        <ele>346.8</ele>
        <time>2021-07-28T09:43:25Z</time>
      </trkpt>
      <trkpt lat="49.32807" lon="6.00883">
        <ele>346.8</ele>
        <time>2021-07-28T09:43:27Z</time>
      </trkpt>
      <trkpt lat="49.32808" lon="6.00877">
        <ele>346.5</ele>
        <time>2021-07-28T09:43:28Z</time>
      </trkpt>
      <trkpt lat="49.32808" lon="6.0087">
        <ele>346.4</ele>
        <time>2021-07-28T09:43:29Z</time>
      </trkpt>
      <trkpt lat="49.32807" lon="6.00861">
        <ele>346.4</ele>
        <time>2021-07-28T09:43:30Z</time>
      </trkpt>
      <trkpt lat="49.32801" lon="6.00851">
        <ele>346.2</ele>
        <time>2021-07-28T09:43:31Z</time>
      </trkpt>
      <trkpt lat="49.32791" lon="6.0084">
        <ele>345.9</ele>
        <time>2021-07-28T09:43:33Z</time>
      </trkpt>
      <trkpt lat="49.32788" lon="6.00835">
        <ele>345.8</ele>
        <time>2021-07-28T09:43:34Z</time>
      </trkpt>
      <trkpt lat="49.32786" lon="6.00831">
        <ele>345.8</ele>
        <time>2021-07-28T09:43:35Z</time>
      </trkpt>
      <trkpt lat="49.32785" lon="6.0083">
        <ele>345.8</ele>
        <time>2021-07-28T09:43:36Z</time>
      </trkpt>
      <trkpt lat="49.32778" lon="6.00826">
        <ele>345.7</ele>
        <time>2021-07-28T09:43:38Z</time>
      </trkpt>
      <trkpt lat="49.32773" lon="6.00825">
        <ele>345.6</ele>
        <time>2021-07-28T09:43:39Z</time>
      </trkpt>
      <trkpt lat="49.32769" lon="6.0082">
        <ele>345.5</ele>
        <time>2021-07-28T09:43:41Z</time>
      </trkpt>
      <trkpt lat="49.32771" lon="6.0082">
        <ele>345.5</ele>
        <time>2021-07-28T09:43:42Z</time>
      </trkpt>
      <trkpt lat="49.32773" lon="6.00814">
        <ele>345.4</ele>
        <time>2021-07-28T09:43:44Z</time>
      </trkpt>
      <trkpt lat="49.32771" lon="6.00806">
        <ele>345.4</ele>
        <time>2021-07-28T09:43:45Z</time>
      </trkpt>
      <trkpt lat="49.32769" lon="6.00801">
        <ele>345.3</ele>
        <time>2021-07-28T09:43:47Z</time>
      </trkpt>
      <trkpt lat="49.32763" lon="6.00795">
        <ele>345.2</ele>
        <time>2021-07-28T09:43:48Z</time>
      </trkpt>
      <trkpt lat="49.3276" lon="6.00789">
        <ele>345.1</ele>
        <time>2021-07-28T09:43:49Z</time>
      </trkpt>
      <trkpt lat="49.3276" lon="6.0078">
        <ele>345</ele>
        <time>2021-07-28T09:43:51Z</time>
      </trkpt>
      <trkpt lat="49.32762" lon="6.00774">
        <ele>344.9</ele>
        <time>2021-07-28T09:43:52Z</time>
      </trkpt>
      <trkpt lat="49.32767" lon="6.00759">
        <ele>344.7</ele>
        <time>2021-07-28T09:43:54Z</time>
      </trkpt>
      <trkpt lat="49.32767" lon="6.00753">
        <ele>344.6</ele>
        <time>2021-07-28T09:43:55Z</time>
      </trkpt>
      <trkpt lat="49.32767" lon="6.00744">
        <ele>344.4</ele>
        <time>2021-07-28T09:43:56Z</time>
      </trkpt>
      <trkpt lat="49.32767" lon="6.0074">
        <ele>344.3</ele>
        <time>2021-07-28T09:43:58Z</time>
      </trkpt>
      <trkpt lat="49.32766" lon="6.00734">
        <ele>344.2</ele>
        <time>2021-07-28T09:44:00Z</time>
      </trkpt>
      <trkpt lat="49.32765" lon="6.00732">
        <ele>344.2</ele>
        <time>2021-07-28T09:44:01Z</time>
      </trkpt>
      <trkpt lat="49.32763" lon="6.00724">
        <ele>344</ele>
        <time>2021-07-28T09:44:03Z</time>
      </trkpt>
      <trkpt lat="49.3274" lon="6.00693">
        <ele>342.4</ele>
        <time>2021-07-28T09:44:04Z</time>
      </trkpt>
      <trkpt lat="49.32735" lon="6.00686">
        <ele>342</ele>
        <time>2021-07-28T09:44:05Z</time>
      </trkpt>
      <trkpt lat="49.32721" lon="6.00656">
        <ele>340.8</ele>
        <time>2021-07-28T09:44:07Z</time>
      </trkpt>
      <trkpt lat="49.32714" lon="6.00632">
        <ele>340</ele>
        <time>2021-07-28T09:44:09Z</time>
      </trkpt>
      <trkpt lat="49.3271" lon="6.00623">
        <ele>339.8</ele>
        <time>2021-07-28T09:44:10Z</time>
      </trkpt>
      <trkpt lat="49.32705" lon="6.00615">
        <ele>339.5</ele>
        <time>2021-07-28T09:44:11Z</time>
      </trkpt>
      <trkpt lat="49.32698" lon="6.00601">
        <ele>339.2</ele>
        <time>2021-07-28T09:44:13Z</time>
      </trkpt>
      <trkpt lat="49.32692" lon="6.00586">
        <ele>339.1</ele>
        <time>2021-07-28T09:44:15Z</time>
      </trkpt>
      <trkpt lat="49.32688" lon="6.00578">
        <ele>339</ele>
        <time>2021-07-28T09:44:16Z</time>
      </trkpt>
      <trkpt lat="49.32684" lon="6.00569">
        <ele>339</ele>
        <time>2021-07-28T09:44:17Z</time>
      </trkpt>
      <trkpt lat="49.32676" lon="6.00551">
        <ele>339.1</ele>
        <time>2021-07-28T09:44:19Z</time>
      </trkpt>
      <trkpt lat="49.32667" lon="6.00534">
        <ele>339.3</ele>
        <time>2021-07-28T09:44:21Z</time>
      </trkpt>
      <trkpt lat="49.32663" lon="6.00526">
        <ele>339.6</ele>
        <time>2021-07-28T09:44:22Z</time>
      </trkpt>
      <trkpt lat="49.32658" lon="6.00519">
        <ele>339.7</ele>
        <time>2021-07-28T09:44:23Z</time>
      </trkpt>
      <trkpt lat="49.32651" lon="6.00509">
        <ele>339.9</ele>
        <time>2021-07-28T09:44:25Z</time>
      </trkpt>
      <trkpt lat="49.3265" lon="6.00508">
        <ele>339.9</ele>
        <time>2021-07-28T09:44:26Z</time>
      </trkpt>
      <trkpt lat="49.32649" lon="6.00508">
        <ele>340</ele>
        <time>2021-07-28T09:44:27Z</time>
      </trkpt>
      <trkpt lat="49.32648" lon="6.00507">
        <ele>340</ele>
        <time>2021-07-28T09:44:29Z</time>
      </trkpt>
      <trkpt lat="49.32647" lon="6.00507">
        <ele>340</ele>
        <time>2021-07-28T09:44:30Z</time>
      </trkpt>
      <trkpt lat="49.32646" lon="6.00506">
        <ele>340</ele>
        <time>2021-07-28T09:44:32Z</time>
      </trkpt>
      <trkpt lat="49.32645" lon="6.00506">
        <ele>340.1</ele>
        <time>2021-07-28T09:44:33Z</time>
      </trkpt>
      <trkpt lat="49.3264" lon="6.00503">
        <ele>340.2</ele>
        <time>2021-07-28T09:44:39Z</time>
      </trkpt>
      <trkpt lat="49.3264" lon="6.00512">
        <ele>340.3</ele>
        <time>2021-07-28T09:44:41Z</time>
      </trkpt>
      <trkpt lat="49.3264" lon="6.00514">
        <ele>340.3</ele>
        <time>2021-07-28T09:44:43Z</time>
      </trkpt>
      <trkpt lat="49.32639" lon="6.00514">
        <ele>340.3</ele>
        <time>2021-07-28T09:44:44Z</time>
      </trkpt>
      <trkpt lat="49.32639" lon="6.00514">
        <ele>340.3</ele>
        <time>2021-07-28T09:44:45Z</time>
      </trkpt>
      <trkpt lat="49.32638" lon="6.00513">
        <ele>340.3</ele>
        <time>2021-07-28T09:44:47Z</time>
      </trkpt>
      <trkpt lat="49.32637" lon="6.00512">
        <ele>340.4</ele>
        <time>2021-07-28T09:44:48Z</time>
      </trkpt>
      <trkpt lat="49.32635" lon="6.00508">
        <ele>340.4</ele>
        <time>2021-07-28T09:44:50Z</time>
      </trkpt>
      <trkpt lat="49.32635" lon="6.00508">
        <ele>340.4</ele>
        <time>2021-07-28T09:44:50Z</time>
      </trkpt>
      <trkpt lat="49.32631" lon="6.00505">
        <ele>340.5</ele>
        <time>2021-07-28T09:44:51Z</time>
      </trkpt>
      <trkpt lat="49.3263" lon="6.00504">
        <ele>340.6</ele>
        <time>2021-07-28T09:44:52Z</time>
      </trkpt>
      <trkpt lat="49.3263" lon="6.00504">
        <ele>340.6</ele>
        <time>2021-07-28T09:44:59Z</time>
      </trkpt>
      <trkpt lat="49.32504" lon="6.00497">
        <ele>340.4</ele>
        <time>2021-07-28T09:46:22Z</time>
      </trkpt>
      <trkpt lat="49.32496" lon="6.00493">
        <ele>340.2</ele>
        <time>2021-07-28T09:46:24Z</time>
      </trkpt>
      <trkpt lat="49.32489" lon="6.0049">
        <ele>340.1</ele>
        <time>2021-07-28T09:46:25Z</time>
      </trkpt>
      <trkpt lat="49.32484" lon="6.00487">
        <ele>339.9</ele>
        <time>2021-07-28T09:46:26Z</time>
      </trkpt>
      <trkpt lat="49.32478" lon="6.00485">
        <ele>339.7</ele>
        <time>2021-07-28T09:46:28Z</time>
      </trkpt>
      <trkpt lat="49.32471" lon="6.00482">
        <ele>339.4</ele>
        <time>2021-07-28T09:46:29Z</time>
      </trkpt>
      <trkpt lat="49.3247" lon="6.00481">
        <ele>339.4</ele>
        <time>2021-07-28T09:46:30Z</time>
      </trkpt>
      <trkpt lat="49.32469" lon="6.00481">
        <ele>339.3</ele>
        <time>2021-07-28T09:46:32Z</time>
      </trkpt>
      <trkpt lat="49.32468" lon="6.00481">
        <ele>339.3</ele>
        <time>2021-07-28T09:46:33Z</time>
      </trkpt>
      <trkpt lat="49.32468" lon="6.00481">
        <ele>339.3</ele>
        <time>2021-07-28T09:46:34Z</time>
      </trkpt>
      <trkpt lat="49.32467" lon="6.0048">
        <ele>339.2</ele>
        <time>2021-07-28T09:46:35Z</time>
      </trkpt>
      <trkpt lat="49.32465" lon="6.0048">
        <ele>339.1</ele>
        <time>2021-07-28T09:46:37Z</time>
      </trkpt>
      <trkpt lat="49.32463" lon="6.0048">
        <ele>339.1</ele>
        <time>2021-07-28T09:46:38Z</time>
      </trkpt>
      <trkpt lat="49.32427" lon="6.00487">
        <ele>337.6</ele>
        <time>2021-07-28T09:46:52Z</time>
      </trkpt>
      <trkpt lat="49.32421" lon="6.00484">
        <ele>337.4</ele>
        <time>2021-07-28T09:46:53Z</time>
      </trkpt>
      <trkpt lat="49.32407" lon="6.00477">
        <ele>337</ele>
        <time>2021-07-28T09:46:55Z</time>
      </trkpt>
      <trkpt lat="49.32392" lon="6.00471">
        <ele>336.5</ele>
        <time>2021-07-28T09:46:57Z</time>
      </trkpt>
      <trkpt lat="49.32385" lon="6.00468">
        <ele>336.2</ele>
        <time>2021-07-28T09:46:58Z</time>
      </trkpt>
      <trkpt lat="49.32381" lon="6.00471">
        <ele>336.1</ele>
        <time>2021-07-28T09:46:59Z</time>
      </trkpt>
      <trkpt lat="49.32383" lon="6.00478">
        <ele>335.9</ele>
        <time>2021-07-28T09:47:00Z</time>
      </trkpt>
      <trkpt lat="49.32385" lon="6.00482">
        <ele>335.8</ele>
        <time>2021-07-28T09:47:01Z</time>
      </trkpt>
      <trkpt lat="49.32388" lon="6.00487">
        <ele>335.7</ele>
        <time>2021-07-28T09:47:03Z</time>
      </trkpt>
      <trkpt lat="49.3239" lon="6.00491">
        <ele>335.7</ele>
        <time>2021-07-28T09:47:05Z</time>
      </trkpt>
      <trkpt lat="49.32392" lon="6.00494">
        <ele>335.6</ele>
        <time>2021-07-28T09:47:07Z</time>
      </trkpt>
      <trkpt lat="49.32392" lon="6.00495">
        <ele>335.6</ele>
        <time>2021-07-28T09:47:08Z</time>
      </trkpt>
      <trkpt lat="49.32392" lon="6.00497">
        <ele>335.5</ele>
        <time>2021-07-28T09:47:09Z</time>
      </trkpt>
      <trkpt lat="49.32286" lon="6.00459">
        <ele>333.6</ele>
        <time>2021-07-28T09:47:18Z</time>
      </trkpt>
      <trkpt lat="49.32279" lon="6.00455">
        <ele>333.4</ele>
        <time>2021-07-28T09:47:20Z</time>
      </trkpt>
      <trkpt lat="49.3227" lon="6.00452">
        <ele>333.2</ele>
        <time>2021-07-28T09:47:21Z</time>
      </trkpt>
      <trkpt lat="49.32262" lon="6.0045">
        <ele>333</ele>
        <time>2021-07-28T09:47:23Z</time>
      </trkpt>
      <trkpt lat="49.32255" lon="6.00449">
        <ele>332.8</ele>
        <time>2021-07-28T09:47:24Z</time>
      </trkpt>
      <trkpt lat="49.32249" lon="6.00448">
        <ele>332.6</ele>
        <time>2021-07-28T09:47:25Z</time>
      </trkpt>
      <trkpt lat="49.32242" lon="6.00447">
        <ele>332.4</ele>
        <time>2021-07-28T09:47:27Z</time>
      </trkpt>
      <trkpt lat="49.32236" lon="6.00446">
        <ele>332.3</ele>
        <time>2021-07-28T09:47:28Z</time>
      </trkpt>
      <trkpt lat="49.32232" lon="6.00444">
        <ele>332.1</ele>
        <time>2021-07-28T09:47:29Z</time>
      </trkpt>
      <trkpt lat="49.32227" lon="6.00441">
        <ele>332</ele>
        <time>2021-07-28T09:47:30Z</time>
      </trkpt>
      <trkpt lat="49.32219" lon="6.00438">
        <ele>331.8</ele>
        <time>2021-07-28T09:47:31Z</time>
      </trkpt>
      <trkpt lat="49.32208" lon="6.00431">
        <ele>331.7</ele>
        <time>2021-07-28T09:47:33Z</time>
      </trkpt>
      <trkpt lat="49.32204" lon="6.00426">
        <ele>331.7</ele>
        <time>2021-07-28T09:47:34Z</time>
      </trkpt>
      <trkpt lat="49.322" lon="6.00419">
        <ele>331.7</ele>
        <time>2021-07-28T09:47:35Z</time>
      </trkpt>
      <trkpt lat="49.32194" lon="6.00406">
        <ele>331.7</ele>
        <time>2021-07-28T09:47:37Z</time>
      </trkpt>
      <trkpt lat="49.32191" lon="6.004">
        <ele>331.7</ele>
        <time>2021-07-28T09:47:38Z</time>
      </trkpt>
      <trkpt lat="49.32191" lon="6.00396">
        <ele>331.8</ele>
        <time>2021-07-28T09:47:39Z</time>
      </trkpt>
      <trkpt lat="49.3219" lon="6.00394">
        <ele>331.8</ele>
        <time>2021-07-28T09:47:40Z</time>
      </trkpt>
      <trkpt lat="49.32188" lon="6.00388">
        <ele>331.8</ele>
        <time>2021-07-28T09:47:42Z</time>
      </trkpt>
      <trkpt lat="49.32185" lon="6.00381">
        <ele>331.9</ele>
        <time>2021-07-28T09:47:43Z</time>
      </trkpt>
      <trkpt lat="49.32182" lon="6.00374">
        <ele>331.9</ele>
        <time>2021-07-28T09:47:44Z</time>
      </trkpt>
      <trkpt lat="49.32181" lon="6.00372">
        <ele>331.9</ele>
        <time>2021-07-28T09:47:45Z</time>
      </trkpt>
      <trkpt lat="49.3218" lon="6.00369">
        <ele>331.9</ele>
        <time>2021-07-28T09:47:46Z</time>
      </trkpt>
      <trkpt lat="49.32179" lon="6.0036">
        <ele>332</ele>
        <time>2021-07-28T09:47:47Z</time>
      </trkpt>
      <trkpt lat="49.32177" lon="6.00356">
        <ele>332</ele>
        <time>2021-07-28T09:47:49Z</time>
      </trkpt>
      <trkpt lat="49.32177" lon="6.00355">
        <ele>332</ele>
        <time>2021-07-28T09:47:50Z</time>
      </trkpt>
      <trkpt lat="49.32175" lon="6.00353">
        <ele>332</ele>
        <time>2021-07-28T09:47:51Z</time>
      </trkpt>
      <trkpt lat="49.32173" lon="6.00352">
        <ele>332</ele>
        <time>2021-07-28T09:47:53Z</time>
      </trkpt>
      <trkpt lat="49.32162" lon="6.00358">
        <ele>331.6</ele>
        <time>2021-07-28T09:47:54Z</time>
      </trkpt>
      <trkpt lat="49.32153" lon="6.00362">
        <ele>331.3</ele>
        <time>2021-07-28T09:47:55Z</time>
      </trkpt>
      <trkpt lat="49.32146" lon="6.00371">
        <ele>330.9</ele>
        <time>2021-07-28T09:47:56Z</time>
      </trkpt>
      <trkpt lat="49.32139" lon="6.0038">
        <ele>330.4</ele>
        <time>2021-07-28T09:47:58Z</time>
      </trkpt>
      <trkpt lat="49.32135" lon="6.00385">
        <ele>330.1</ele>
        <time>2021-07-28T09:47:59Z</time>
      </trkpt>
      <trkpt lat="49.3213" lon="6.00391">
        <ele>329.8</ele>
        <time>2021-07-28T09:48:01Z</time>
      </trkpt>
      <trkpt lat="49.32118" lon="6.00413">
        <ele>329.1</ele>
        <time>2021-07-28T09:48:02Z</time>
      </trkpt>
      <trkpt lat="49.32104" lon="6.00433">
        <ele>328.8</ele>
        <time>2021-07-28T09:48:04Z</time>
      </trkpt>
      <trkpt lat="49.32102" lon="6.00437">
        <ele>328.8</ele>
        <time>2021-07-28T09:48:06Z</time>
      </trkpt>
      <trkpt lat="49.32104" lon="6.00445">
        <ele>328.9</ele>
        <time>2021-07-28T09:48:08Z</time>
      </trkpt>
      <trkpt lat="49.32104" lon="6.00452">
        <ele>329</ele>
        <time>2021-07-28T09:48:09Z</time>
      </trkpt>
      <trkpt lat="49.32102" lon="6.00456">
        <ele>329.1</ele>
        <time>2021-07-28T09:48:10Z</time>
      </trkpt>
      <trkpt lat="49.32101" lon="6.00457">
        <ele>329.1</ele>
        <time>2021-07-28T09:48:11Z</time>
      </trkpt>
      <trkpt lat="49.32099" lon="6.00467">
        <ele>329.4</ele>
        <time>2021-07-28T09:48:12Z</time>
      </trkpt>
      <trkpt lat="49.32097" lon="6.00476">
        <ele>329.6</ele>
        <time>2021-07-28T09:48:14Z</time>
      </trkpt>
      <trkpt lat="49.32096" lon="6.00484">
        <ele>329.8</ele>
        <time>2021-07-28T09:48:16Z</time>
      </trkpt>
      <trkpt lat="49.32095" lon="6.00493">
        <ele>330.1</ele>
        <time>2021-07-28T09:48:18Z</time>
      </trkpt>
      <trkpt lat="49.32093" lon="6.00501">
        <ele>330.3</ele>
        <time>2021-07-28T09:48:36Z</time>
      </trkpt>
      <trkpt lat="49.32092" lon="6.0051">
        <ele>330.5</ele>
        <time>2021-07-28T09:48:37Z</time>
      </trkpt>
      <trkpt lat="49.32094" lon="6.00518">
        <ele>330.6</ele>
        <time>2021-07-28T09:48:39Z</time>
      </trkpt>
      <trkpt lat="49.32096" lon="6.00527">
        <ele>330.8</ele>
        <time>2021-07-28T09:48:41Z</time>
      </trkpt>
      <trkpt lat="49.32098" lon="6.0053">
        <ele>330.9</ele>
        <time>2021-07-28T09:48:42Z</time>
      </trkpt>
      <trkpt lat="49.32102" lon="6.00536">
        <ele>331</ele>
        <time>2021-07-28T09:48:44Z</time>
      </trkpt>
      <trkpt lat="49.32103" lon="6.00537">
        <ele>331</ele>
        <time>2021-07-28T09:48:46Z</time>
      </trkpt>
      <trkpt lat="49.32103" lon="6.00538">
        <ele>331.1</ele>
        <time>2021-07-28T09:48:47Z</time>
      </trkpt>
      <trkpt lat="49.32102" lon="6.00541">
        <ele>331.1</ele>
        <time>2021-07-28T09:48:49Z</time>
      </trkpt>
      <trkpt lat="49.3209" lon="6.00588">
        <ele>331.9</ele>
        <time>2021-07-28T09:49:08Z</time>
      </trkpt>
      <trkpt lat="49.32087" lon="6.00593">
        <ele>332</ele>
        <time>2021-07-28T09:49:10Z</time>
      </trkpt>
      <trkpt lat="49.32086" lon="6.00597">
        <ele>332</ele>
        <time>2021-07-28T09:49:11Z</time>
      </trkpt>
      <trkpt lat="49.32084" lon="6.00603">
        <ele>332</ele>
        <time>2021-07-28T09:49:12Z</time>
      </trkpt>
      <trkpt lat="49.32082" lon="6.00608">
        <ele>332</ele>
        <time>2021-07-28T09:49:13Z</time>
      </trkpt>
      <trkpt lat="49.32079" lon="6.00613">
        <ele>332</ele>
        <time>2021-07-28T09:49:15Z</time>
      </trkpt>
      <trkpt lat="49.32076" lon="6.00619">
        <ele>332.1</ele>
        <time>2021-07-28T09:49:16Z</time>
      </trkpt>
      <trkpt lat="49.32072" lon="6.00625">
        <ele>332.1</ele>
        <time>2021-07-28T09:49:18Z</time>
      </trkpt>
      <trkpt lat="49.32068" lon="6.00627">
        <ele>332.2</ele>
        <time>2021-07-28T09:49:19Z</time>
      </trkpt>
      <trkpt lat="49.32066" lon="6.00626">
        <ele>332.2</ele>
        <time>2021-07-28T09:49:20Z</time>
      </trkpt>
      <trkpt lat="49.32066" lon="6.00626">
        <ele>332.2</ele>
        <time>2021-07-28T09:49:21Z</time>
      </trkpt>
      <trkpt lat="49.32065" lon="6.0063">
        <ele>332.2</ele>
        <time>2021-07-28T09:49:23Z</time>
      </trkpt>
      <trkpt lat="49.32063" lon="6.00636">
        <ele>332.3</ele>
        <time>2021-07-28T09:49:25Z</time>
      </trkpt>
      <trkpt lat="49.32062" lon="6.0064">
        <ele>332.3</ele>
        <time>2021-07-28T09:49:26Z</time>
      </trkpt>
      <trkpt lat="49.32061" lon="6.00644">
        <ele>332.4</ele>
        <time>2021-07-28T09:49:28Z</time>
      </trkpt>
      <trkpt lat="49.32062" lon="6.00646">
        <ele>332.4</ele>
        <time>2021-07-28T09:49:29Z</time>
      </trkpt>
      <trkpt lat="49.3196" lon="6.00758">
        <ele>336.6</ele>
        <time>2021-07-28T09:50:28Z</time>
      </trkpt>
      <trkpt lat="49.31957" lon="6.00761">
        <ele>336.7</ele>
        <time>2021-07-28T09:50:29Z</time>
      </trkpt>
      <trkpt lat="49.31954" lon="6.00764">
        <ele>336.9</ele>
        <time>2021-07-28T09:50:30Z</time>
      </trkpt>
      <trkpt lat="49.3195" lon="6.00768">
        <ele>337</ele>
        <time>2021-07-28T09:50:31Z</time>
      </trkpt>
      <trkpt lat="49.31946" lon="6.00772">
        <ele>337.2</ele>
        <time>2021-07-28T09:50:32Z</time>
      </trkpt>
      <trkpt lat="49.31942" lon="6.00776">
        <ele>337.4</ele>
        <time>2021-07-28T09:50:33Z</time>
      </trkpt>
      <trkpt lat="49.31938" lon="6.00779">
        <ele>337.5</ele>
        <time>2021-07-28T09:50:34Z</time>
      </trkpt>
      <trkpt lat="49.31934" lon="6.00781">
        <ele>337.7</ele>
        <time>2021-07-28T09:50:35Z</time>
      </trkpt>
      <trkpt lat="49.31927" lon="6.00785">
        <ele>338.2</ele>
        <time>2021-07-28T09:50:37Z</time>
      </trkpt>
      <trkpt lat="49.31926" lon="6.00785">
        <ele>338.2</ele>
        <time>2021-07-28T09:50:38Z</time>
      </trkpt>
      <trkpt lat="49.31926" lon="6.0079">
        <ele>338.2</ele>
        <time>2021-07-28T09:50:40Z</time>
      </trkpt>
      <trkpt lat="49.31927" lon="6.00791">
        <ele>338.1</ele>
        <time>2021-07-28T09:50:41Z</time>
      </trkpt>
      <trkpt lat="49.31929" lon="6.00791">
        <ele>338.1</ele>
        <time>2021-07-28T09:50:43Z</time>
      </trkpt>
      <trkpt lat="49.31931" lon="6.00791">
        <ele>338.1</ele>
        <time>2021-07-28T09:50:44Z</time>
      </trkpt>
      <trkpt lat="49.31931" lon="6.00792">
        <ele>338.1</ele>
        <time>2021-07-28T09:50:45Z</time>
      </trkpt>
      <trkpt lat="49.31927" lon="6.00795">
        <ele>338.1</ele>
        <time>2021-07-28T09:50:50Z</time>
      </trkpt>
      <trkpt lat="49.31923" lon="6.00795">
        <ele>338</ele>
        <time>2021-07-28T09:50:52Z</time>
      </trkpt>
      <trkpt lat="49.31919" lon="6.00793">
        <ele>337.9</ele>
        <time>2021-07-28T09:50:54Z</time>
      </trkpt>
      <trkpt lat="49.31917" lon="6.00791">
        <ele>337.8</ele>
        <time>2021-07-28T09:50:55Z</time>
      </trkpt>
      <trkpt lat="49.31914" lon="6.00789">
        <ele>337.7</ele>
        <time>2021-07-28T09:50:57Z</time>
      </trkpt>
      <trkpt lat="49.31911" lon="6.00787">
        <ele>337.7</ele>
        <time>2021-07-28T09:50:58Z</time>
      </trkpt>
      <trkpt lat="49.31909" lon="6.00786">
        <ele>337.6</ele>
        <time>2021-07-28T09:50:59Z</time>
      </trkpt>
      <trkpt lat="49.31907" lon="6.0079">
        <ele>337.5</ele>
        <time>2021-07-28T09:51:01Z</time>
      </trkpt>
      <trkpt lat="49.31904" lon="6.00794">
        <ele>337.4</ele>
        <time>2021-07-28T09:51:02Z</time>
      </trkpt>
      <trkpt lat="49.31902" lon="6.00799">
        <ele>337.3</ele>
        <time>2021-07-28T09:51:03Z</time>
      </trkpt>
      <trkpt lat="49.319" lon="6.00804">
        <ele>337.2</ele>
        <time>2021-07-28T09:51:05Z</time>
      </trkpt>
      <trkpt lat="49.31894" lon="6.00809">
        <ele>337</ele>
        <time>2021-07-28T09:51:06Z</time>
      </trkpt>
      <trkpt lat="49.31891" lon="6.00811">
        <ele>337</ele>
        <time>2021-07-28T09:51:07Z</time>
      </trkpt>
      <trkpt lat="49.31885" lon="6.00817">
        <ele>337</ele>
        <time>2021-07-28T09:51:09Z</time>
      </trkpt>
      <trkpt lat="49.3188" lon="6.00824">
        <ele>337.1</ele>
        <time>2021-07-28T09:51:10Z</time>
      </trkpt>
      <trkpt lat="49.31873" lon="6.00826">
        <ele>337.2</ele>
        <time>2021-07-28T09:51:12Z</time>
      </trkpt>
      <trkpt lat="49.31867" lon="6.00825">
        <ele>337.3</ele>
        <time>2021-07-28T09:51:13Z</time>
      </trkpt>
      <trkpt lat="49.31863" lon="6.00825">
        <ele>337.4</ele>
        <time>2021-07-28T09:51:14Z</time>
      </trkpt>
      <trkpt lat="49.3186" lon="6.00824">
        <ele>337.5</ele>
        <time>2021-07-28T09:51:15Z</time>
      </trkpt>
      <trkpt lat="49.31854" lon="6.00813">
        <ele>337.9</ele>
        <time>2021-07-28T09:51:16Z</time>
      </trkpt>
      <trkpt lat="49.31844" lon="6.00804">
        <ele>338.4</ele>
        <time>2021-07-28T09:51:18Z</time>
      </trkpt>
      <trkpt lat="49.31841" lon="6.00801">
        <ele>338.6</ele>
        <time>2021-07-28T09:51:19Z</time>
      </trkpt>
      <trkpt lat="49.31838" lon="6.00803">
        <ele>338.7</ele>
        <time>2021-07-28T09:51:20Z</time>
      </trkpt>
      <trkpt lat="49.31837" lon="6.00804">
        <ele>338.8</ele>
        <time>2021-07-28T09:51:21Z</time>
      </trkpt>
      <trkpt lat="49.31834" lon="6.00806">
        <ele>338.9</ele>
        <time>2021-07-28T09:51:23Z</time>
      </trkpt>
      <trkpt lat="49.31834" lon="6.00807">
        <ele>339</ele>
        <time>2021-07-28T09:51:24Z</time>
      </trkpt>
      <trkpt lat="49.31832" lon="6.00809">
        <ele>339.1</ele>
        <time>2021-07-28T09:51:25Z</time>
      </trkpt>
      <trkpt lat="49.3183" lon="6.00813">
        <ele>339.3</ele>
        <time>2021-07-28T09:51:27Z</time>
      </trkpt>
      <trkpt lat="49.31829" lon="6.00817">
        <ele>339.4</ele>
        <time>2021-07-28T09:51:28Z</time>
      </trkpt>
      <trkpt lat="49.31828" lon="6.0082">
        <ele>339.6</ele>
        <time>2021-07-28T09:51:30Z</time>
      </trkpt>
      <trkpt lat="49.31818" lon="6.00826">
        <ele>340.2</ele>
        <time>2021-07-28T09:51:34Z</time>
      </trkpt>
      <trkpt lat="49.31814" lon="6.00828">
        <ele>340.4</ele>
        <time>2021-07-28T09:51:35Z</time>
      </trkpt>
      <trkpt lat="49.3181" lon="6.00832">
        <ele>340.7</ele>
        <time>2021-07-28T09:51:36Z</time>
      </trkpt>
      <trkpt lat="49.31805" lon="6.0084">
        <ele>341.1</ele>
        <time>2021-07-28T09:51:37Z</time>
      </trkpt>
      <trkpt lat="49.31802" lon="6.00847">
        <ele>341.4</ele>
        <time>2021-07-28T09:51:38Z</time>
      </trkpt>
      <trkpt lat="49.31799" lon="6.0085">
        <ele>341.6</ele>
        <time>2021-07-28T09:51:40Z</time>
      </trkpt>
      <trkpt lat="49.31798" lon="6.00851">
        <ele>341.7</ele>
        <time>2021-07-28T09:51:41Z</time>
      </trkpt>
      <trkpt lat="49.31795" lon="6.00851">
        <ele>341.8</ele>
        <time>2021-07-28T09:51:42Z</time>
      </trkpt>
      <trkpt lat="49.31792" lon="6.00849">
        <ele>342</ele>
        <time>2021-07-28T09:51:43Z</time>
      </trkpt>
      <trkpt lat="49.3179" lon="6.00847">
        <ele>342.1</ele>
        <time>2021-07-28T09:51:44Z</time>
      </trkpt>
      <trkpt lat="49.31788" lon="6.00842">
        <ele>342.2</ele>
        <time>2021-07-28T09:51:45Z</time>
      </trkpt>
      <trkpt lat="49.31787" lon="6.00841">
        <ele>342.2</ele>
        <time>2021-07-28T09:51:46Z</time>
      </trkpt>
      <trkpt lat="49.31786" lon="6.00841">
        <ele>342.3</ele>
        <time>2021-07-28T09:51:47Z</time>
      </trkpt>
      <trkpt lat="49.31786" lon="6.00841">
        <ele>342.3</ele>
        <time>2021-07-28T09:51:49Z</time>
      </trkpt>
      <trkpt lat="49.31747" lon="6.00839">
        <ele>343.2</ele>
        <time>2021-07-28T09:52:14Z</time>
      </trkpt>
      <trkpt lat="49.31741" lon="6.00846">
        <ele>343.3</ele>
        <time>2021-07-28T09:52:16Z</time>
      </trkpt>
      <trkpt lat="49.31736" lon="6.00848">
        <ele>343.4</ele>
        <time>2021-07-28T09:52:17Z</time>
      </trkpt>
      <trkpt lat="49.31728" lon="6.00849">
        <ele>343.5</ele>
        <time>2021-07-28T09:52:19Z</time>
      </trkpt>
      <trkpt lat="49.31723" lon="6.00848">
        <ele>343.6</ele>
        <time>2021-07-28T09:52:20Z</time>
      </trkpt>
      <trkpt lat="49.31719" lon="6.00847">
        <ele>343.7</ele>
        <time>2021-07-28T09:52:21Z</time>
      </trkpt>
      <trkpt lat="49.31715" lon="6.00848">
        <ele>343.7</ele>
        <time>2021-07-28T09:52:22Z</time>
      </trkpt>
      <trkpt lat="49.31712" lon="6.00847">
        <ele>343.7</ele>
        <time>2021-07-28T09:52:23Z</time>
      </trkpt>
      <trkpt lat="49.31708" lon="6.00846">
        <ele>343.8</ele>
        <time>2021-07-28T09:52:24Z</time>
      </trkpt>
      <trkpt lat="49.31704" lon="6.00846">
        <ele>343.8</ele>
        <time>2021-07-28T09:52:25Z</time>
      </trkpt>
      <trkpt lat="49.31697" lon="6.00847">
        <ele>343.9</ele>
        <time>2021-07-28T09:52:27Z</time>
      </trkpt>
      <trkpt lat="49.31693" lon="6.00846">
        <ele>344</ele>
        <time>2021-07-28T09:52:28Z</time>
      </trkpt>
      <trkpt lat="49.31689" lon="6.00845">
        <ele>344.1</ele>
        <time>2021-07-28T09:52:29Z</time>
      </trkpt>
      <trkpt lat="49.31687" lon="6.00848">
        <ele>344.1</ele>
        <time>2021-07-28T09:52:30Z</time>
      </trkpt>
      <trkpt lat="49.31686" lon="6.00849">
        <ele>344.1</ele>
        <time>2021-07-28T09:52:32Z</time>
      </trkpt>
      <trkpt lat="49.31685" lon="6.0085">
        <ele>344.2</ele>
        <time>2021-07-28T09:52:33Z</time>
      </trkpt>
      <trkpt lat="49.3168" lon="6.00855">
        <ele>344.3</ele>
        <time>2021-07-28T09:52:35Z</time>
      </trkpt>
      <trkpt lat="49.31676" lon="6.00858">
        <ele>344.4</ele>
        <time>2021-07-28T09:52:36Z</time>
      </trkpt>
      <trkpt lat="49.31672" lon="6.00861">
        <ele>344.5</ele>
        <time>2021-07-28T09:52:37Z</time>
      </trkpt>
      <trkpt lat="49.31668" lon="6.00864">
        <ele>344.6</ele>
        <time>2021-07-28T09:52:38Z</time>
      </trkpt>
      <trkpt lat="49.31664" lon="6.00868">
        <ele>344.8</ele>
        <time>2021-07-28T09:52:39Z</time>
      </trkpt>
      <trkpt lat="49.31658" lon="6.00873">
        <ele>345</ele>
        <time>2021-07-28T09:52:41Z</time>
      </trkpt>
      <trkpt lat="49.31653" lon="6.00878">
        <ele>345.3</ele>
        <time>2021-07-28T09:52:43Z</time>
      </trkpt>
      <trkpt lat="49.3165" lon="6.00881">
        <ele>345.4</ele>
        <time>2021-07-28T09:52:44Z</time>
      </trkpt>
      <trkpt lat="49.31647" lon="6.00885">
        <ele>345.5</ele>
        <time>2021-07-28T09:52:45Z</time>
      </trkpt>
      <trkpt lat="49.31645" lon="6.00889">
        <ele>345.6</ele>
        <time>2021-07-28T09:52:46Z</time>
      </trkpt>
      <trkpt lat="49.31644" lon="6.00894">
        <ele>345.8</ele>
        <time>2021-07-28T09:52:48Z</time>
      </trkpt>
      <trkpt lat="49.31641" lon="6.00896">
        <ele>345.9</ele>
        <time>2021-07-28T09:52:49Z</time>
      </trkpt>
      <trkpt lat="49.31639" lon="6.00896">
        <ele>346</ele>
        <time>2021-07-28T09:52:50Z</time>
      </trkpt>
      <trkpt lat="49.31634" lon="6.00897">
        <ele>346.2</ele>
        <time>2021-07-28T09:52:52Z</time>
      </trkpt>
      <trkpt lat="49.31631" lon="6.00897">
        <ele>346.3</ele>
        <time>2021-07-28T09:52:53Z</time>
      </trkpt>
      <trkpt lat="49.31626" lon="6.00901">
        <ele>346.5</ele>
        <time>2021-07-28T09:52:54Z</time>
      </trkpt>
      <trkpt lat="49.31622" lon="6.00904">
        <ele>346.7</ele>
        <time>2021-07-28T09:52:55Z</time>
      </trkpt>
      <trkpt lat="49.31614" lon="6.00909">
        <ele>347.1</ele>
        <time>2021-07-28T09:52:57Z</time>
      </trkpt>
      <trkpt lat="49.31609" lon="6.00912">
        <ele>347.3</ele>
        <time>2021-07-28T09:52:59Z</time>
      </trkpt>
      <trkpt lat="49.31607" lon="6.00912">
        <ele>347.4</ele>
        <time>2021-07-28T09:53:00Z</time>
      </trkpt>
      <trkpt lat="49.31607" lon="6.00911">
        <ele>347.4</ele>
        <time>2021-07-28T09:53:01Z</time>
      </trkpt>
      <trkpt lat="49.31606" lon="6.0091">
        <ele>347.5</ele>
        <time>2021-07-28T09:53:02Z</time>
      </trkpt>
      <trkpt lat="49.31605" lon="6.00908">
        <ele>347.5</ele>
        <time>2021-07-28T09:53:03Z</time>
      </trkpt>
      <trkpt lat="49.31603" lon="6.00906">
        <ele>347.6</ele>
        <time>2021-07-28T09:53:05Z</time>
      </trkpt>
      <trkpt lat="49.31602" lon="6.00905">
        <ele>347.7</ele>
        <time>2021-07-28T09:53:06Z</time>
      </trkpt>
      <trkpt lat="49.316" lon="6.00905">
        <ele>347.7</ele>
        <time>2021-07-28T09:53:07Z</time>
      </trkpt>
      <trkpt lat="49.31599" lon="6.00905">
        <ele>347.8</ele>
        <time>2021-07-28T09:53:09Z</time>
      </trkpt>
      <trkpt lat="49.31597" lon="6.00906">
        <ele>347.8</ele>
        <time>2021-07-28T09:53:10Z</time>
      </trkpt>
      <trkpt lat="49.31592" lon="6.00907">
        <ele>348</ele>
        <time>2021-07-28T09:53:12Z</time>
      </trkpt>
      <trkpt lat="49.3159" lon="6.00907">
        <ele>348</ele>
        <time>2021-07-28T09:53:13Z</time>
      </trkpt>
      <trkpt lat="49.31589" lon="6.00908">
        <ele>348.1</ele>
        <time>2021-07-28T09:53:14Z</time>
      </trkpt>
      <trkpt lat="49.31583" lon="6.00908">
        <ele>348.2</ele>
        <time>2021-07-28T09:53:16Z</time>
      </trkpt>
      <trkpt lat="49.31579" lon="6.00907">
        <ele>348.3</ele>
        <time>2021-07-28T09:53:17Z</time>
      </trkpt>
      <trkpt lat="49.31576" lon="6.00908">
        <ele>348.3</ele>
        <time>2021-07-28T09:53:19Z</time>
      </trkpt>
      <trkpt lat="49.31572" lon="6.00909">
        <ele>348.4</ele>
        <time>2021-07-28T09:53:20Z</time>
      </trkpt>
      <trkpt lat="49.31571" lon="6.0091">
        <ele>348.4</ele>
        <time>2021-07-28T09:53:21Z</time>
      </trkpt>
      <trkpt lat="49.31568" lon="6.00912">
        <ele>348.4</ele>
        <time>2021-07-28T09:53:22Z</time>
      </trkpt>
      <trkpt lat="49.31567" lon="6.00913">
        <ele>348.4</ele>
        <time>2021-07-28T09:53:23Z</time>
      </trkpt>
      <trkpt lat="49.31565" lon="6.00914">
        <ele>348.4</ele>
        <time>2021-07-28T09:53:24Z</time>
      </trkpt>
      <trkpt lat="49.3156" lon="6.00918">
        <ele>348.4</ele>
        <time>2021-07-28T09:53:26Z</time>
      </trkpt>
      <trkpt lat="49.31558" lon="6.00921">
        <ele>348.4</ele>
        <time>2021-07-28T09:53:28Z</time>
      </trkpt>
      <trkpt lat="49.31556" lon="6.00923">
        <ele>348.4</ele>
        <time>2021-07-28T09:53:29Z</time>
      </trkpt>
      <trkpt lat="49.31554" lon="6.00923">
        <ele>348.4</ele>
        <time>2021-07-28T09:53:30Z</time>
      </trkpt>
      <trkpt lat="49.31551" lon="6.00923">
        <ele>348.4</ele>
        <time>2021-07-28T09:53:32Z</time>
      </trkpt>
      <trkpt lat="49.3155" lon="6.00923">
        <ele>348.3</ele>
        <time>2021-07-28T09:53:33Z</time>
      </trkpt>
      <trkpt lat="49.31546" lon="6.00922">
        <ele>348.3</ele>
        <time>2021-07-28T09:53:34Z</time>
      </trkpt>
      <trkpt lat="49.31545" lon="6.00922">
        <ele>348.2</ele>
        <time>2021-07-28T09:53:35Z</time>
      </trkpt>
      <trkpt lat="49.3154" lon="6.00924">
        <ele>348.1</ele>
        <time>2021-07-28T09:53:37Z</time>
      </trkpt>
      <trkpt lat="49.31536" lon="6.00925">
        <ele>348</ele>
        <time>2021-07-28T09:53:38Z</time>
      </trkpt>
      <trkpt lat="49.31532" lon="6.00926">
        <ele>347.9</ele>
        <time>2021-07-28T09:53:40Z</time>
      </trkpt>
      <trkpt lat="49.31527" lon="6.00927">
        <ele>347.8</ele>
        <time>2021-07-28T09:53:41Z</time>
      </trkpt>
      <trkpt lat="49.31523" lon="6.00928">
        <ele>347.7</ele>
        <time>2021-07-28T09:53:42Z</time>
      </trkpt>
      <trkpt lat="49.31518" lon="6.00931">
        <ele>347.6</ele>
        <time>2021-07-28T09:53:43Z</time>
      </trkpt>
      <trkpt lat="49.31514" lon="6.00932">
        <ele>347.6</ele>
        <time>2021-07-28T09:53:44Z</time>
      </trkpt>
      <trkpt lat="49.3151" lon="6.00934">
        <ele>347.5</ele>
        <time>2021-07-28T09:53:45Z</time>
      </trkpt>
      <trkpt lat="49.31506" lon="6.00934">
        <ele>347.5</ele>
        <time>2021-07-28T09:53:47Z</time>
      </trkpt>
      <trkpt lat="49.31503" lon="6.00934">
        <ele>347.5</ele>
        <time>2021-07-28T09:53:48Z</time>
      </trkpt>
      <trkpt lat="49.31499" lon="6.00934">
        <ele>347.5</ele>
        <time>2021-07-28T09:53:49Z</time>
      </trkpt>
      <trkpt lat="49.31493" lon="6.00933">
        <ele>347.4</ele>
        <time>2021-07-28T09:53:51Z</time>
      </trkpt>
      <trkpt lat="49.31488" lon="6.00933">
        <ele>347.4</ele>
        <time>2021-07-28T09:53:52Z</time>
      </trkpt>
      <trkpt lat="49.31483" lon="6.00934">
        <ele>347.4</ele>
        <time>2021-07-28T09:53:53Z</time>
      </trkpt>
      <trkpt lat="49.31475" lon="6.00935">
        <ele>347.3</ele>
        <time>2021-07-28T09:53:55Z</time>
      </trkpt>
      <trkpt lat="49.31469" lon="6.00939">
        <ele>347.3</ele>
        <time>2021-07-28T09:53:57Z</time>
      </trkpt>
      <trkpt lat="49.31465" lon="6.00941">
        <ele>347.3</ele>
        <time>2021-07-28T09:53:58Z</time>
      </trkpt>
      <trkpt lat="49.31461" lon="6.00944">
        <ele>347.2</ele>
        <time>2021-07-28T09:53:59Z</time>
      </trkpt>
      <trkpt lat="49.31458" lon="6.00945">
        <ele>347.2</ele>
        <time>2021-07-28T09:54:00Z</time>
      </trkpt>
      <trkpt lat="49.31455" lon="6.00945">
        <ele>347.3</ele>
        <time>2021-07-28T09:54:01Z</time>
      </trkpt>
      <trkpt lat="49.3145" lon="6.00945">
        <ele>347.3</ele>
        <time>2021-07-28T09:54:03Z</time>
      </trkpt>
      <trkpt lat="49.31445" lon="6.00944">
        <ele>347.3</ele>
        <time>2021-07-28T09:54:04Z</time>
      </trkpt>
      <trkpt lat="49.31438" lon="6.00942">
        <ele>347.4</ele>
        <time>2021-07-28T09:54:05Z</time>
      </trkpt>
      <trkpt lat="49.31431" lon="6.00938">
        <ele>347.6</ele>
        <time>2021-07-28T09:54:07Z</time>
      </trkpt>
      <trkpt lat="49.31425" lon="6.00934">
        <ele>347.7</ele>
        <time>2021-07-28T09:54:08Z</time>
      </trkpt>
      <trkpt lat="49.3142" lon="6.00932">
        <ele>347.9</ele>
        <time>2021-07-28T09:54:09Z</time>
      </trkpt>
      <trkpt lat="49.31416" lon="6.00931">
        <ele>348</ele>
        <time>2021-07-28T09:54:11Z</time>
      </trkpt>
      <trkpt lat="49.31412" lon="6.00931">
        <ele>348.3</ele>
        <time>2021-07-28T09:54:12Z</time>
      </trkpt>
      <trkpt lat="49.31411" lon="6.00931">
        <ele>348.4</ele>
        <time>2021-07-28T09:54:13Z</time>
      </trkpt>
      <trkpt lat="49.31407" lon="6.00932">
        <ele>348.4</ele>
        <time>2021-07-28T09:54:15Z</time>
      </trkpt>
      <trkpt lat="49.31406" lon="6.00934">
        <ele>348.5</ele>
        <time>2021-07-28T09:54:16Z</time>
      </trkpt>
      <trkpt lat="49.31406" lon="6.00935">
        <ele>348.5</ele>
        <time>2021-07-28T09:54:17Z</time>
      </trkpt>
      <trkpt lat="49.31407" lon="6.00935">
        <ele>348.5</ele>
        <time>2021-07-28T09:54:18Z</time>
      </trkpt>
      <trkpt lat="49.3141" lon="6.00936">
        <ele>348.6</ele>
        <time>2021-07-28T09:54:20Z</time>
      </trkpt>
      <trkpt lat="49.3141" lon="6.00937">
        <ele>348.6</ele>
        <time>2021-07-28T09:54:21Z</time>
      </trkpt>
      <trkpt lat="49.3141" lon="6.00938">
        <ele>348.6</ele>
        <time>2021-07-28T09:54:23Z</time>
      </trkpt>
      <trkpt lat="49.31409" lon="6.00938">
        <ele>348.6</ele>
        <time>2021-07-28T09:54:24Z</time>
      </trkpt>
      <trkpt lat="49.3141" lon="6.00939">
        <ele>348.6</ele>
        <time>2021-07-28T09:54:25Z</time>
      </trkpt>
      <trkpt lat="49.3141" lon="6.0094">
        <ele>348.6</ele>
        <time>2021-07-28T09:54:26Z</time>
      </trkpt>
      <trkpt lat="49.31351" lon="6.01006">
        <ele>344.1</ele>
        <time>2021-07-28T09:56:32Z</time>
      </trkpt>
      <trkpt lat="49.31335" lon="6.01013">
        <ele>342</ele>
        <time>2021-07-28T09:56:34Z</time>
      </trkpt>
      <trkpt lat="49.3133" lon="6.01016">
        <ele>341.3</ele>
        <time>2021-07-28T09:56:35Z</time>
      </trkpt>
      <trkpt lat="49.31341" lon="6.01008">
        <ele>339.7</ele>
        <time>2021-07-28T09:56:37Z</time>
      </trkpt>
      <trkpt lat="49.31329" lon="6.01018">
        <ele>338</ele>
        <time>2021-07-28T09:56:38Z</time>
      </trkpt>
      <trkpt lat="49.31324" lon="6.01035">
        <ele>336.6</ele>
        <time>2021-07-28T09:56:41Z</time>
      </trkpt>
      <trkpt lat="49.31322" lon="6.01049">
        <ele>335.4</ele>
        <time>2021-07-28T09:56:42Z</time>
      </trkpt>
      <trkpt lat="49.3132" lon="6.01063">
        <ele>334.2</ele>
        <time>2021-07-28T09:56:43Z</time>
      </trkpt>
      <trkpt lat="49.31319" lon="6.01069">
        <ele>333.7</ele>
        <time>2021-07-28T09:56:45Z</time>
      </trkpt>
      <trkpt lat="49.31318" lon="6.01074">
        <ele>333.2</ele>
        <time>2021-07-28T09:56:46Z</time>
      </trkpt>
      <trkpt lat="49.31311" lon="6.01092">
        <ele>331.3</ele>
        <time>2021-07-28T09:56:47Z</time>
      </trkpt>
      <trkpt lat="49.31305" lon="6.01104">
        <ele>329.9</ele>
        <time>2021-07-28T09:56:48Z</time>
      </trkpt>
      <trkpt lat="49.31303" lon="6.01114">
        <ele>328.9</ele>
        <time>2021-07-28T09:56:49Z</time>
      </trkpt>
      <trkpt lat="49.31296" lon="6.01133">
        <ele>326.8</ele>
        <time>2021-07-28T09:56:51Z</time>
      </trkpt>
      <trkpt lat="49.31295" lon="6.01143">
        <ele>325.9</ele>
        <time>2021-07-28T09:56:52Z</time>
      </trkpt>
      <trkpt lat="49.31295" lon="6.01153">
        <ele>324.8</ele>
        <time>2021-07-28T09:56:53Z</time>
      </trkpt>
      <trkpt lat="49.31294" lon="6.01173">
        <ele>322.7</ele>
        <time>2021-07-28T09:56:55Z</time>
      </trkpt>
      <trkpt lat="49.31295" lon="6.01178">
        <ele>322.2</ele>
        <time>2021-07-28T09:56:57Z</time>
      </trkpt>
      <trkpt lat="49.31295" lon="6.01184">
        <ele>321.5</ele>
        <time>2021-07-28T09:56:58Z</time>
      </trkpt>
      <trkpt lat="49.31295" lon="6.0119">
        <ele>320.9</ele>
        <time>2021-07-28T09:57:00Z</time>
      </trkpt>
      <trkpt lat="49.31297" lon="6.01196">
        <ele>320.3</ele>
        <time>2021-07-28T09:57:01Z</time>
      </trkpt>
      <trkpt lat="49.31304" lon="6.01234">
        <ele>316.5</ele>
        <time>2021-07-28T09:57:03Z</time>
      </trkpt>
      <trkpt lat="49.313" lon="6.01264">
        <ele>313.8</ele>
        <time>2021-07-28T09:57:04Z</time>
      </trkpt>
      <trkpt lat="49.31292" lon="6.01303">
        <ele>310.7</ele>
        <time>2021-07-28T09:57:06Z</time>
      </trkpt>
      <trkpt lat="49.3129" lon="6.01313">
        <ele>309.9</ele>
        <time>2021-07-28T09:57:07Z</time>
      </trkpt>
      <trkpt lat="49.3129" lon="6.01314">
        <ele>309.9</ele>
        <time>2021-07-28T09:57:08Z</time>
      </trkpt>
      <trkpt lat="49.31289" lon="6.01317">
        <ele>309.7</ele>
        <time>2021-07-28T09:57:09Z</time>
      </trkpt>
      <trkpt lat="49.31288" lon="6.01325">
        <ele>309.4</ele>
        <time>2021-07-28T09:57:11Z</time>
      </trkpt>
      <trkpt lat="49.31287" lon="6.01333">
        <ele>309.1</ele>
        <time>2021-07-28T09:57:13Z</time>
      </trkpt>
      <trkpt lat="49.31286" lon="6.01336">
        <ele>309</ele>
        <time>2021-07-28T09:57:14Z</time>
      </trkpt>
      <trkpt lat="49.31286" lon="6.01339">
        <ele>308.8</ele>
        <time>2021-07-28T09:57:15Z</time>
      </trkpt>
      <trkpt lat="49.31286" lon="6.01343">
        <ele>308.7</ele>
        <time>2021-07-28T09:57:16Z</time>
      </trkpt>
      <trkpt lat="49.31293" lon="6.01454">
        <ele>303.8</ele>
        <time>2021-07-28T09:57:24Z</time>
      </trkpt>
      <trkpt lat="49.31295" lon="6.01493">
        <ele>302</ele>
        <time>2021-07-28T09:57:26Z</time>
      </trkpt>
      <trkpt lat="49.31297" lon="6.01516">
        <ele>301</ele>
        <time>2021-07-28T09:57:28Z</time>
      </trkpt>
      <trkpt lat="49.31299" lon="6.0154">
        <ele>300.2</ele>
        <time>2021-07-28T09:57:30Z</time>
      </trkpt>
      <trkpt lat="49.31301" lon="6.01551">
        <ele>299.8</ele>
        <time>2021-07-28T09:57:31Z</time>
      </trkpt>
      <trkpt lat="49.31306" lon="6.01569">
        <ele>299.3</ele>
        <time>2021-07-28T09:57:33Z</time>
      </trkpt>
      <trkpt lat="49.31308" lon="6.01579">
        <ele>299.1</ele>
        <time>2021-07-28T09:57:34Z</time>
      </trkpt>
      <trkpt lat="49.3131" lon="6.01589">
        <ele>298.9</ele>
        <time>2021-07-28T09:57:35Z</time>
      </trkpt>
      <trkpt lat="49.31312" lon="6.01598">
        <ele>298.8</ele>
        <time>2021-07-28T09:57:36Z</time>
      </trkpt>
      <trkpt lat="49.31313" lon="6.01607">
        <ele>298.6</ele>
        <time>2021-07-28T09:57:37Z</time>
      </trkpt>
      <trkpt lat="49.31318" lon="6.01623">
        <ele>298.4</ele>
        <time>2021-07-28T09:57:39Z</time>
      </trkpt>
      <trkpt lat="49.31324" lon="6.01636">
        <ele>298.3</ele>
        <time>2021-07-28T09:57:41Z</time>
      </trkpt>
      <trkpt lat="49.31326" lon="6.01643">
        <ele>298.2</ele>
        <time>2021-07-28T09:57:42Z</time>
      </trkpt>
      <trkpt lat="49.31329" lon="6.0165">
        <ele>298.2</ele>
        <time>2021-07-28T09:57:43Z</time>
      </trkpt>
      <trkpt lat="49.31333" lon="6.01665">
        <ele>298.1</ele>
        <time>2021-07-28T09:57:45Z</time>
      </trkpt>
      <trkpt lat="49.31335" lon="6.01672">
        <ele>298.1</ele>
        <time>2021-07-28T09:57:46Z</time>
      </trkpt>
      <trkpt lat="49.31339" lon="6.01689">
        <ele>298.2</ele>
        <time>2021-07-28T09:57:48Z</time>
      </trkpt>
      <trkpt lat="49.31338" lon="6.01709">
        <ele>298.2</ele>
        <time>2021-07-28T09:57:50Z</time>
      </trkpt>
      <trkpt lat="49.31338" lon="6.01719">
        <ele>298.3</ele>
        <time>2021-07-28T09:57:51Z</time>
      </trkpt>
      <trkpt lat="49.31337" lon="6.01728">
        <ele>298.4</ele>
        <time>2021-07-28T09:57:52Z</time>
      </trkpt>
      <trkpt lat="49.31336" lon="6.01736">
        <ele>298.4</ele>
        <time>2021-07-28T09:57:53Z</time>
      </trkpt>
      <trkpt lat="49.31335" lon="6.0175">
        <ele>298.5</ele>
        <time>2021-07-28T09:57:55Z</time>
      </trkpt>
      <trkpt lat="49.31332" lon="6.01763">
        <ele>298.6</ele>
        <time>2021-07-28T09:57:57Z</time>
      </trkpt>
      <trkpt lat="49.31331" lon="6.01769">
        <ele>298.6</ele>
        <time>2021-07-28T09:57:58Z</time>
      </trkpt>
      <trkpt lat="49.31329" lon="6.01775">
        <ele>298.7</ele>
        <time>2021-07-28T09:57:59Z</time>
      </trkpt>
      <trkpt lat="49.31329" lon="6.01782">
        <ele>298.7</ele>
        <time>2021-07-28T09:58:01Z</time>
      </trkpt>
      <trkpt lat="49.31331" lon="6.01787">
        <ele>298.8</ele>
        <time>2021-07-28T09:58:03Z</time>
      </trkpt>
      <trkpt lat="49.31331" lon="6.01794">
        <ele>298.9</ele>
        <time>2021-07-28T09:58:05Z</time>
      </trkpt>
      <trkpt lat="49.31331" lon="6.01799">
        <ele>298.9</ele>
        <time>2021-07-28T09:58:06Z</time>
      </trkpt>
      <trkpt lat="49.31332" lon="6.01804">
        <ele>299</ele>
        <time>2021-07-28T09:58:07Z</time>
      </trkpt>
      <trkpt lat="49.31332" lon="6.01806">
        <ele>299</ele>
        <time>2021-07-28T09:58:08Z</time>
      </trkpt>
      <trkpt lat="49.31333" lon="6.01811">
        <ele>299</ele>
        <time>2021-07-28T09:58:10Z</time>
      </trkpt>
      <trkpt lat="49.31335" lon="6.01816">
        <ele>299.1</ele>
        <time>2021-07-28T09:58:11Z</time>
      </trkpt>
      <trkpt lat="49.31335" lon="6.01818">
        <ele>299.1</ele>
        <time>2021-07-28T09:58:12Z</time>
      </trkpt>
      <trkpt lat="49.31337" lon="6.01822">
        <ele>299.2</ele>
        <time>2021-07-28T09:58:13Z</time>
      </trkpt>
      <trkpt lat="49.31338" lon="6.01824">
        <ele>299.2</ele>
        <time>2021-07-28T09:58:14Z</time>
      </trkpt>
      <trkpt lat="49.31341" lon="6.01827">
        <ele>299.2</ele>
        <time>2021-07-28T09:58:16Z</time>
      </trkpt>
      <trkpt lat="49.31342" lon="6.01827">
        <ele>299.3</ele>
        <time>2021-07-28T09:58:17Z</time>
      </trkpt>
      <trkpt lat="49.31344" lon="6.01831">
        <ele>299.3</ele>
        <time>2021-07-28T09:58:19Z</time>
      </trkpt>
      <trkpt lat="49.31345" lon="6.01835">
        <ele>299.3</ele>
        <time>2021-07-28T09:58:20Z</time>
      </trkpt>
      <trkpt lat="49.31345" lon="6.01841">
        <ele>299.4</ele>
        <time>2021-07-28T09:58:22Z</time>
      </trkpt>
      <trkpt lat="49.31346" lon="6.01846">
        <ele>299.4</ele>
        <time>2021-07-28T09:58:23Z</time>
      </trkpt>
      <trkpt lat="49.31345" lon="6.01848">
        <ele>299.4</ele>
        <time>2021-07-28T09:58:24Z</time>
      </trkpt>
      <trkpt lat="49.31346" lon="6.01851">
        <ele>299.5</ele>
        <time>2021-07-28T09:58:26Z</time>
      </trkpt>
      <trkpt lat="49.31346" lon="6.01853">
        <ele>299.5</ele>
        <time>2021-07-28T09:58:27Z</time>
      </trkpt>
      <trkpt lat="49.31346" lon="6.01857">
        <ele>299.5</ele>
        <time>2021-07-28T09:58:29Z</time>
      </trkpt>
      <trkpt lat="49.31346" lon="6.01858">
        <ele>299.5</ele>
        <time>2021-07-28T09:58:30Z</time>
      </trkpt>
      <trkpt lat="49.31346" lon="6.01859">
        <ele>299.5</ele>
        <time>2021-07-28T09:58:32Z</time>
      </trkpt>
      <trkpt lat="49.31345" lon="6.0186">
        <ele>299.6</ele>
        <time>2021-07-28T09:58:33Z</time>
      </trkpt>
      <trkpt lat="49.31344" lon="6.01861">
        <ele>299.6</ele>
        <time>2021-07-28T09:58:34Z</time>
      </trkpt>
      <trkpt lat="49.31344" lon="6.01861">
        <ele>299.6</ele>
        <time>2021-07-28T09:58:35Z</time>
      </trkpt>
      <trkpt lat="49.31343" lon="6.01861">
        <ele>299.6</ele>
        <time>2021-07-28T09:58:37Z</time>
      </trkpt>
      <trkpt lat="49.31343" lon="6.01862">
        <ele>299.6</ele>
        <time>2021-07-28T09:58:39Z</time>
      </trkpt>
      <trkpt lat="49.31343" lon="6.01862">
        <ele>299.6</ele>
        <time>2021-07-28T09:58:40Z</time>
      </trkpt>
      <trkpt lat="49.31337" lon="6.01852">
        <ele>299.7</ele>
        <time>2021-07-28T10:05:53Z</time>
      </trkpt>
      <trkpt lat="49.31331" lon="6.01849">
        <ele>299.7</ele>
        <time>2021-07-28T10:05:55Z</time>
      </trkpt>
      <trkpt lat="49.31326" lon="6.01849">
        <ele>299.7</ele>
        <time>2021-07-28T10:05:57Z</time>
      </trkpt>
      <trkpt lat="49.31324" lon="6.01851">
        <ele>299.7</ele>
        <time>2021-07-28T10:05:58Z</time>
      </trkpt>
      <trkpt lat="49.31322" lon="6.01856">
        <ele>299.7</ele>
        <time>2021-07-28T10:05:59Z</time>
      </trkpt>
      <trkpt lat="49.31321" lon="6.01857">
        <ele>299.7</ele>
        <time>2021-07-28T10:06:00Z</time>
      </trkpt>
      <trkpt lat="49.31321" lon="6.01861">
        <ele>299.7</ele>
        <time>2021-07-28T10:06:01Z</time>
      </trkpt>
      <trkpt lat="49.31319" lon="6.01869">
        <ele>299.7</ele>
        <time>2021-07-28T10:06:03Z</time>
      </trkpt>
      <trkpt lat="49.31318" lon="6.01875">
        <ele>299.7</ele>
        <time>2021-07-28T10:06:04Z</time>
      </trkpt>
      <trkpt lat="49.31317" lon="6.01879">
        <ele>299.7</ele>
        <time>2021-07-28T10:06:05Z</time>
      </trkpt>
      <trkpt lat="49.31316" lon="6.01889">
        <ele>299.7</ele>
        <time>2021-07-28T10:06:07Z</time>
      </trkpt>
      <trkpt lat="49.31314" lon="6.01898">
        <ele>299.7</ele>
        <time>2021-07-28T10:06:09Z</time>
      </trkpt>
      <trkpt lat="49.31313" lon="6.01904">
        <ele>299.7</ele>
        <time>2021-07-28T10:06:10Z</time>
      </trkpt>
      <trkpt lat="49.31312" lon="6.01909">
        <ele>299.6</ele>
        <time>2021-07-28T10:06:11Z</time>
      </trkpt>
      <trkpt lat="49.31311" lon="6.01919">
        <ele>299.7</ele>
        <time>2021-07-28T10:06:13Z</time>
      </trkpt>
      <trkpt lat="49.3131" lon="6.0193">
        <ele>299.8</ele>
        <time>2021-07-28T10:06:15Z</time>
      </trkpt>
      <trkpt lat="49.3131" lon="6.01935">
        <ele>299.8</ele>
        <time>2021-07-28T10:06:16Z</time>
      </trkpt>
      <trkpt lat="49.31309" lon="6.0194">
        <ele>299.9</ele>
        <time>2021-07-28T10:06:17Z</time>
      </trkpt>
      <trkpt lat="49.31309" lon="6.01944">
        <ele>300</ele>
        <time>2021-07-28T10:06:18Z</time>
      </trkpt>
      <trkpt lat="49.31309" lon="6.01949">
        <ele>300</ele>
        <time>2021-07-28T10:06:19Z</time>
      </trkpt>
      <trkpt lat="49.31309" lon="6.01958">
        <ele>300.2</ele>
        <time>2021-07-28T10:06:21Z</time>
      </trkpt>
      <trkpt lat="49.31309" lon="6.01966">
        <ele>300.3</ele>
        <time>2021-07-28T10:06:23Z</time>
      </trkpt>
      <trkpt lat="49.31309" lon="6.0197">
        <ele>300.4</ele>
        <time>2021-07-28T10:06:24Z</time>
      </trkpt>
      <trkpt lat="49.31309" lon="6.01974">
        <ele>300.5</ele>
        <time>2021-07-28T10:06:25Z</time>
      </trkpt>
      <trkpt lat="49.3131" lon="6.0198">
        <ele>300.6</ele>
        <time>2021-07-28T10:06:27Z</time>
      </trkpt>
      <trkpt lat="49.31311" lon="6.01985">
        <ele>300.8</ele>
        <time>2021-07-28T10:06:28Z</time>
      </trkpt>
      <trkpt lat="49.31312" lon="6.01988">
        <ele>300.9</ele>
        <time>2021-07-28T10:06:29Z</time>
      </trkpt>
      <trkpt lat="49.31312" lon="6.01993">
        <ele>301</ele>
        <time>2021-07-28T10:06:31Z</time>
      </trkpt>
      <trkpt lat="49.31314" lon="6.01998">
        <ele>301.1</ele>
        <time>2021-07-28T10:06:32Z</time>
      </trkpt>
      <trkpt lat="49.31316" lon="6.02003">
        <ele>301.3</ele>
        <time>2021-07-28T10:06:34Z</time>
      </trkpt>
      <trkpt lat="49.31317" lon="6.02009">
        <ele>301.5</ele>
        <time>2021-07-28T10:06:35Z</time>
      </trkpt>
      <trkpt lat="49.31318" lon="6.02011">
        <ele>301.5</ele>
        <time>2021-07-28T10:06:36Z</time>
      </trkpt>
      <trkpt lat="49.31318" lon="6.02015">
        <ele>301.7</ele>
        <time>2021-07-28T10:06:37Z</time>
      </trkpt>
      <trkpt lat="49.3132" lon="6.02022">
        <ele>301.9</ele>
        <time>2021-07-28T10:06:39Z</time>
      </trkpt>
      <trkpt lat="49.31321" lon="6.02026">
        <ele>302</ele>
        <time>2021-07-28T10:06:40Z</time>
      </trkpt>
      <trkpt lat="49.31321" lon="6.02031">
        <ele>302.2</ele>
        <time>2021-07-28T10:06:41Z</time>
      </trkpt>
      <trkpt lat="49.31324" lon="6.02037">
        <ele>302.4</ele>
        <time>2021-07-28T10:06:43Z</time>
      </trkpt>
      <trkpt lat="49.31325" lon="6.02041">
        <ele>302.5</ele>
        <time>2021-07-28T10:06:44Z</time>
      </trkpt>
      <trkpt lat="49.31328" lon="6.02044">
        <ele>302.6</ele>
        <time>2021-07-28T10:06:46Z</time>
      </trkpt>
      <trkpt lat="49.31329" lon="6.02048">
        <ele>302.8</ele>
        <time>2021-07-28T10:06:47Z</time>
      </trkpt>
      <trkpt lat="49.3133" lon="6.0205">
        <ele>302.8</ele>
        <time>2021-07-28T10:06:48Z</time>
      </trkpt>
      <trkpt lat="49.31331" lon="6.02054">
        <ele>303</ele>
        <time>2021-07-28T10:06:49Z</time>
      </trkpt>
      <trkpt lat="49.31332" lon="6.02056">
        <ele>303</ele>
        <time>2021-07-28T10:06:50Z</time>
      </trkpt>
      <trkpt lat="49.31334" lon="6.0206">
        <ele>303.2</ele>
        <time>2021-07-28T10:06:51Z</time>
      </trkpt>
      <trkpt lat="49.31335" lon="6.02061">
        <ele>303.3</ele>
        <time>2021-07-28T10:06:52Z</time>
      </trkpt>
      <trkpt lat="49.31337" lon="6.02065">
        <ele>303.4</ele>
        <time>2021-07-28T10:06:53Z</time>
      </trkpt>
      <trkpt lat="49.31338" lon="6.02067">
        <ele>303.5</ele>
        <time>2021-07-28T10:06:54Z</time>
      </trkpt>
      <trkpt lat="49.31339" lon="6.02071">
        <ele>303.6</ele>
        <time>2021-07-28T10:06:55Z</time>
      </trkpt>
      <trkpt lat="49.31341" lon="6.02074">
        <ele>303.7</ele>
        <time>2021-07-28T10:06:56Z</time>
      </trkpt>
      <trkpt lat="49.31343" lon="6.02078">
        <ele>303.9</ele>
        <time>2021-07-28T10:06:57Z</time>
      </trkpt>
      <trkpt lat="49.31345" lon="6.02081">
        <ele>304</ele>
        <time>2021-07-28T10:06:58Z</time>
      </trkpt>
      <trkpt lat="49.31349" lon="6.02088">
        <ele>304.3</ele>
        <time>2021-07-28T10:07:00Z</time>
      </trkpt>
      <trkpt lat="49.31351" lon="6.02092">
        <ele>304.4</ele>
        <time>2021-07-28T10:07:01Z</time>
      </trkpt>
      <trkpt lat="49.31352" lon="6.02099">
        <ele>304.7</ele>
        <time>2021-07-28T10:07:03Z</time>
      </trkpt>
      <trkpt lat="49.31354" lon="6.02107">
        <ele>304.9</ele>
        <time>2021-07-28T10:07:04Z</time>
      </trkpt>
      <trkpt lat="49.31356" lon="6.02111">
        <ele>305</ele>
        <time>2021-07-28T10:07:05Z</time>
      </trkpt>
      <trkpt lat="49.31357" lon="6.02113">
        <ele>305.1</ele>
        <time>2021-07-28T10:07:06Z</time>
      </trkpt>
      <trkpt lat="49.31358" lon="6.02115">
        <ele>305.2</ele>
        <time>2021-07-28T10:07:07Z</time>
      </trkpt>
      <trkpt lat="49.31359" lon="6.02121">
        <ele>305.4</ele>
        <time>2021-07-28T10:07:09Z</time>
      </trkpt>
      <trkpt lat="49.3136" lon="6.02124">
        <ele>305.5</ele>
        <time>2021-07-28T10:07:10Z</time>
      </trkpt>
      <trkpt lat="49.31361" lon="6.02128">
        <ele>305.6</ele>
        <time>2021-07-28T10:07:11Z</time>
      </trkpt>
      <trkpt lat="49.31362" lon="6.02129">
        <ele>305.6</ele>
        <time>2021-07-28T10:07:12Z</time>
      </trkpt>
      <trkpt lat="49.31363" lon="6.02134">
        <ele>305.8</ele>
        <time>2021-07-28T10:07:13Z</time>
      </trkpt>
      <trkpt lat="49.31363" lon="6.02136">
        <ele>306</ele>
        <time>2021-07-28T10:07:14Z</time>
      </trkpt>
      <trkpt lat="49.31364" lon="6.02139">
        <ele>306.1</ele>
        <time>2021-07-28T10:07:15Z</time>
      </trkpt>
      <trkpt lat="49.31364" lon="6.02142">
        <ele>306.1</ele>
        <time>2021-07-28T10:07:17Z</time>
      </trkpt>
      <trkpt lat="49.31364" lon="6.02147">
        <ele>306.2</ele>
        <time>2021-07-28T10:07:18Z</time>
      </trkpt>
      <trkpt lat="49.31364" lon="6.02149">
        <ele>306.2</ele>
        <time>2021-07-28T10:07:19Z</time>
      </trkpt>
      <trkpt lat="49.31366" lon="6.02152">
        <ele>306.3</ele>
        <time>2021-07-28T10:07:20Z</time>
      </trkpt>
      <trkpt lat="49.31366" lon="6.02154">
        <ele>306.3</ele>
        <time>2021-07-28T10:07:21Z</time>
      </trkpt>
      <trkpt lat="49.31367" lon="6.02156">
        <ele>306.4</ele>
        <time>2021-07-28T10:07:22Z</time>
      </trkpt>
      <trkpt lat="49.31368" lon="6.02158">
        <ele>306.4</ele>
        <time>2021-07-28T10:07:23Z</time>
      </trkpt>
      <trkpt lat="49.3137" lon="6.0216">
        <ele>306.5</ele>
        <time>2021-07-28T10:07:24Z</time>
      </trkpt>
      <trkpt lat="49.31371" lon="6.02163">
        <ele>306.5</ele>
        <time>2021-07-28T10:07:26Z</time>
      </trkpt>
      <trkpt lat="49.31373" lon="6.02167">
        <ele>306.8</ele>
        <time>2021-07-28T10:07:27Z</time>
      </trkpt>
      <trkpt lat="49.31374" lon="6.02169">
        <ele>306.8</ele>
        <time>2021-07-28T10:07:28Z</time>
      </trkpt>
      <trkpt lat="49.31376" lon="6.02173">
        <ele>306.9</ele>
        <time>2021-07-28T10:07:29Z</time>
      </trkpt>
      <trkpt lat="49.31377" lon="6.02175">
        <ele>307</ele>
        <time>2021-07-28T10:07:30Z</time>
      </trkpt>
      <trkpt lat="49.31379" lon="6.02179">
        <ele>307.1</ele>
        <time>2021-07-28T10:07:31Z</time>
      </trkpt>
      <trkpt lat="49.3138" lon="6.02181">
        <ele>307.2</ele>
        <time>2021-07-28T10:07:32Z</time>
      </trkpt>
      <trkpt lat="49.31382" lon="6.02187">
        <ele>307.4</ele>
        <time>2021-07-28T10:07:34Z</time>
      </trkpt>
      <trkpt lat="49.31382" lon="6.02191">
        <ele>307.5</ele>
        <time>2021-07-28T10:07:35Z</time>
      </trkpt>
      <trkpt lat="49.31383" lon="6.02197">
        <ele>307.7</ele>
        <time>2021-07-28T10:07:37Z</time>
      </trkpt>
      <trkpt lat="49.31383" lon="6.02202">
        <ele>307.8</ele>
        <time>2021-07-28T10:07:38Z</time>
      </trkpt>
      <trkpt lat="49.31383" lon="6.02204">
        <ele>307.9</ele>
        <time>2021-07-28T10:07:39Z</time>
      </trkpt>
      <trkpt lat="49.31384" lon="6.02209">
        <ele>308</ele>
        <time>2021-07-28T10:07:40Z</time>
      </trkpt>
      <trkpt lat="49.31385" lon="6.02211">
        <ele>308.1</ele>
        <time>2021-07-28T10:07:41Z</time>
      </trkpt>
      <trkpt lat="49.31386" lon="6.02216">
        <ele>308.2</ele>
        <time>2021-07-28T10:07:43Z</time>
      </trkpt>
      <trkpt lat="49.31388" lon="6.02222">
        <ele>308.4</ele>
        <time>2021-07-28T10:07:44Z</time>
      </trkpt>
      <trkpt lat="49.31389" lon="6.02226">
        <ele>308.5</ele>
        <time>2021-07-28T10:07:45Z</time>
      </trkpt>
      <trkpt lat="49.31391" lon="6.02232">
        <ele>308.6</ele>
        <time>2021-07-28T10:07:46Z</time>
      </trkpt>
      <trkpt lat="49.31392" lon="6.02234">
        <ele>308.7</ele>
        <time>2021-07-28T10:07:47Z</time>
      </trkpt>
      <trkpt lat="49.31393" lon="6.02239">
        <ele>308.8</ele>
        <time>2021-07-28T10:07:49Z</time>
      </trkpt>
      <trkpt lat="49.31394" lon="6.02242">
        <ele>308.9</ele>
        <time>2021-07-28T10:07:51Z</time>
      </trkpt>
      <trkpt lat="49.31395" lon="6.02242">
        <ele>309</ele>
        <time>2021-07-28T10:07:52Z</time>
      </trkpt>
      <trkpt lat="49.31396" lon="6.02241">
        <ele>309</ele>
        <time>2021-07-28T10:07:54Z</time>
      </trkpt>
      <trkpt lat="49.31397" lon="6.02241">
        <ele>309</ele>
        <time>2021-07-28T10:07:55Z</time>
      </trkpt>
      <trkpt lat="49.31398" lon="6.02241">
        <ele>309</ele>
        <time>2021-07-28T10:07:57Z</time>
      </trkpt>
      <trkpt lat="49.31399" lon="6.0224">
        <ele>309.1</ele>
        <time>2021-07-28T10:07:59Z</time>
      </trkpt>
      <trkpt lat="49.314" lon="6.0224">
        <ele>309.1</ele>
        <time>2021-07-28T10:08:47Z</time>
      </trkpt>
      <trkpt lat="49.31401" lon="6.0224">
        <ele>309.1</ele>
        <time>2021-07-28T10:08:49Z</time>
      </trkpt>
      <trkpt lat="49.31401" lon="6.02239">
        <ele>309.2</ele>
        <time>2021-07-28T10:08:50Z</time>
      </trkpt>
      <trkpt lat="49.31402" lon="6.02241">
        <ele>309.2</ele>
        <time>2021-07-28T10:08:51Z</time>
      </trkpt>
      <trkpt lat="49.31403" lon="6.02243">
        <ele>309.7</ele>
        <time>2021-07-28T10:08:52Z</time>
      </trkpt>
      <trkpt lat="49.31405" lon="6.02248">
        <ele>309.7</ele>
        <time>2021-07-28T10:08:54Z</time>
      </trkpt>
      <trkpt lat="49.31405" lon="6.02248">
        <ele>309.7</ele>
        <time>2021-07-28T10:08:55Z</time>
      </trkpt>
      <trkpt lat="49.3141" lon="6.02249">
        <ele>309.7</ele>
        <time>2021-07-28T10:08:57Z</time>
      </trkpt>
      <trkpt lat="49.31412" lon="6.02249">
        <ele>309.7</ele>
        <time>2021-07-28T10:08:59Z</time>
      </trkpt>
      <trkpt lat="49.31414" lon="6.02249">
        <ele>309.7</ele>
        <time>2021-07-28T10:09:01Z</time>
      </trkpt>
      <trkpt lat="49.31416" lon="6.0225">
        <ele>309.7</ele>
        <time>2021-07-28T10:09:02Z</time>
      </trkpt>
      <trkpt lat="49.31419" lon="6.02251">
        <ele>309.7</ele>
        <time>2021-07-28T10:09:03Z</time>
      </trkpt>
      <trkpt lat="49.31423" lon="6.02252">
        <ele>309.7</ele>
        <time>2021-07-28T10:09:05Z</time>
      </trkpt>
      <trkpt lat="49.31426" lon="6.02253">
        <ele>309.7</ele>
        <time>2021-07-28T10:09:07Z</time>
      </trkpt>
      <trkpt lat="49.31429" lon="6.02254">
        <ele>309.7</ele>
        <time>2021-07-28T10:09:08Z</time>
      </trkpt>
      <trkpt lat="49.31432" lon="6.02257">
        <ele>309.7</ele>
        <time>2021-07-28T10:09:10Z</time>
      </trkpt>
      <trkpt lat="49.31433" lon="6.02258">
        <ele>309.7</ele>
        <time>2021-07-28T10:09:12Z</time>
      </trkpt>
      <trkpt lat="49.31436" lon="6.02258">
        <ele>309.7</ele>
        <time>2021-07-28T10:09:14Z</time>
      </trkpt>
      <trkpt lat="49.31435" lon="6.0226">
        <ele>309.7</ele>
        <time>2021-07-28T10:09:15Z</time>
      </trkpt>
      <trkpt lat="49.31434" lon="6.02259">
        <ele>309.7</ele>
        <time>2021-07-28T10:09:17Z</time>
      </trkpt>
      <trkpt lat="49.31433" lon="6.02259">
        <ele>309.7</ele>
        <time>2021-07-28T10:09:19Z</time>
      </trkpt>
      <trkpt lat="49.31432" lon="6.02259">
        <ele>309.7</ele>
        <time>2021-07-28T10:09:20Z</time>
      </trkpt>
      <trkpt lat="49.31431" lon="6.02258">
        <ele>309.7</ele>
        <time>2021-07-28T10:09:22Z</time>
      </trkpt>
      <trkpt lat="49.3143" lon="6.02258">
        <ele>309.7</ele>
        <time>2021-07-28T10:09:23Z</time>
      </trkpt>
      <trkpt lat="49.31429" lon="6.02258">
        <ele>309.7</ele>
        <time>2021-07-28T10:09:24Z</time>
      </trkpt>
      <trkpt lat="49.31417" lon="6.0226">
        <ele>309.7</ele>
        <time>2021-07-28T10:09:26Z</time>
      </trkpt>
      <trkpt lat="49.31405" lon="6.02261">
        <ele>309.7</ele>
        <time>2021-07-28T10:09:28Z</time>
      </trkpt>
      <trkpt lat="49.31399" lon="6.02262">
        <ele>309.7</ele>
        <time>2021-07-28T10:09:29Z</time>
      </trkpt>
      <trkpt lat="49.31389" lon="6.02265">
        <ele>309.8</ele>
        <time>2021-07-28T10:09:31Z</time>
      </trkpt>
      <trkpt lat="49.3138" lon="6.02266">
        <ele>309.9</ele>
        <time>2021-07-28T10:09:33Z</time>
      </trkpt>
      <trkpt lat="49.31372" lon="6.0227">
        <ele>310.1</ele>
        <time>2021-07-28T10:09:35Z</time>
      </trkpt>
      <trkpt lat="49.31365" lon="6.02271">
        <ele>310.2</ele>
        <time>2021-07-28T10:09:37Z</time>
      </trkpt>
      <trkpt lat="49.3136" lon="6.02272">
        <ele>310.3</ele>
        <time>2021-07-28T10:09:38Z</time>
      </trkpt>
      <trkpt lat="49.31356" lon="6.02273">
        <ele>310.4</ele>
        <time>2021-07-28T10:09:39Z</time>
      </trkpt>
      <trkpt lat="49.3135" lon="6.02275">
        <ele>310.5</ele>
        <time>2021-07-28T10:09:41Z</time>
      </trkpt>
      <trkpt lat="49.31345" lon="6.02276">
        <ele>310.6</ele>
        <time>2021-07-28T10:09:42Z</time>
      </trkpt>
      <trkpt lat="49.3134" lon="6.02277">
        <ele>310.7</ele>
        <time>2021-07-28T10:09:43Z</time>
      </trkpt>
      <trkpt lat="49.31336" lon="6.02277">
        <ele>310.8</ele>
        <time>2021-07-28T10:09:44Z</time>
      </trkpt>
      <trkpt lat="49.31331" lon="6.02279">
        <ele>311</ele>
        <time>2021-07-28T10:09:46Z</time>
      </trkpt>
      <trkpt lat="49.31326" lon="6.02281">
        <ele>311.1</ele>
        <time>2021-07-28T10:09:48Z</time>
      </trkpt>
      <trkpt lat="49.31321" lon="6.02284">
        <ele>311.2</ele>
        <time>2021-07-28T10:09:49Z</time>
      </trkpt>
      <trkpt lat="49.31318" lon="6.02285">
        <ele>311.3</ele>
        <time>2021-07-28T10:09:50Z</time>
      </trkpt>
      <trkpt lat="49.31315" lon="6.02286">
        <ele>311.4</ele>
        <time>2021-07-28T10:09:51Z</time>
      </trkpt>
      <trkpt lat="49.3131" lon="6.02288">
        <ele>311.5</ele>
        <time>2021-07-28T10:09:53Z</time>
      </trkpt>
      <trkpt lat="49.31308" lon="6.02287">
        <ele>311.5</ele>
        <time>2021-07-28T10:09:54Z</time>
      </trkpt>
      <trkpt lat="49.31304" lon="6.02288">
        <ele>311.6</ele>
        <time>2021-07-28T10:09:56Z</time>
      </trkpt>
      <trkpt lat="49.313" lon="6.02289">
        <ele>311.7</ele>
        <time>2021-07-28T10:09:58Z</time>
      </trkpt>
      <trkpt lat="49.31296" lon="6.02291">
        <ele>311.7</ele>
        <time>2021-07-28T10:09:59Z</time>
      </trkpt>
      <trkpt lat="49.31294" lon="6.02292">
        <ele>311.8</ele>
        <time>2021-07-28T10:10:00Z</time>
      </trkpt>
      <trkpt lat="49.3129" lon="6.02291">
        <ele>311.8</ele>
        <time>2021-07-28T10:10:02Z</time>
      </trkpt>
      <trkpt lat="49.31285" lon="6.02293">
        <ele>311.9</ele>
        <time>2021-07-28T10:10:03Z</time>
      </trkpt>
      <trkpt lat="49.31282" lon="6.02294">
        <ele>311.9</ele>
        <time>2021-07-28T10:10:04Z</time>
      </trkpt>
      <trkpt lat="49.31279" lon="6.02294">
        <ele>312</ele>
        <time>2021-07-28T10:10:05Z</time>
      </trkpt>
      <trkpt lat="49.31277" lon="6.02293">
        <ele>312</ele>
        <time>2021-07-28T10:10:07Z</time>
      </trkpt>
      <trkpt lat="49.31273" lon="6.02292">
        <ele>312</ele>
        <time>2021-07-28T10:10:08Z</time>
      </trkpt>
      <trkpt lat="49.31272" lon="6.02292">
        <ele>312.1</ele>
        <time>2021-07-28T10:10:09Z</time>
      </trkpt>
      <trkpt lat="49.31269" lon="6.02294">
        <ele>312.1</ele>
        <time>2021-07-28T10:10:11Z</time>
      </trkpt>
      <trkpt lat="49.31266" lon="6.02293">
        <ele>312.2</ele>
        <time>2021-07-28T10:10:13Z</time>
      </trkpt>
      <trkpt lat="49.31262" lon="6.02293">
        <ele>312.2</ele>
        <time>2021-07-28T10:10:15Z</time>
      </trkpt>
      <trkpt lat="49.3126" lon="6.02295">
        <ele>312.3</ele>
        <time>2021-07-28T10:10:16Z</time>
      </trkpt>
      <trkpt lat="49.31256" lon="6.02294">
        <ele>312.3</ele>
        <time>2021-07-28T10:10:18Z</time>
      </trkpt>
      <trkpt lat="49.31254" lon="6.02291">
        <ele>312.4</ele>
        <time>2021-07-28T10:10:19Z</time>
      </trkpt>
      <trkpt lat="49.31249" lon="6.02285">
        <ele>312.5</ele>
        <time>2021-07-28T10:10:21Z</time>
      </trkpt>
      <trkpt lat="49.31245" lon="6.02282">
        <ele>312.6</ele>
        <time>2021-07-28T10:10:22Z</time>
      </trkpt>
      <trkpt lat="49.3124" lon="6.02283">
        <ele>312.7</ele>
        <time>2021-07-28T10:10:24Z</time>
      </trkpt>
      <trkpt lat="49.31236" lon="6.02285">
        <ele>312.7</ele>
        <time>2021-07-28T10:10:25Z</time>
      </trkpt>
      <trkpt lat="49.31231" lon="6.02288">
        <ele>312.8</ele>
        <time>2021-07-28T10:10:27Z</time>
      </trkpt>
      <trkpt lat="49.31227" lon="6.02288">
        <ele>312.9</ele>
        <time>2021-07-28T10:10:29Z</time>
      </trkpt>
      <trkpt lat="49.31224" lon="6.02287">
        <ele>313</ele>
        <time>2021-07-28T10:10:30Z</time>
      </trkpt>
      <trkpt lat="49.31221" lon="6.02286">
        <ele>313.1</ele>
        <time>2021-07-28T10:10:31Z</time>
      </trkpt>
      <trkpt lat="49.31219" lon="6.02285">
        <ele>313.1</ele>
        <time>2021-07-28T10:10:32Z</time>
      </trkpt>
      <trkpt lat="49.31215" lon="6.02283">
        <ele>313.2</ele>
        <time>2021-07-28T10:10:34Z</time>
      </trkpt>
      <trkpt lat="49.31213" lon="6.02283">
        <ele>313.3</ele>
        <time>2021-07-28T10:10:35Z</time>
      </trkpt>
      <trkpt lat="49.31209" lon="6.02283">
        <ele>313.4</ele>
        <time>2021-07-28T10:10:37Z</time>
      </trkpt>
      <trkpt lat="49.31206" lon="6.02283">
        <ele>313.5</ele>
        <time>2021-07-28T10:10:38Z</time>
      </trkpt>
      <trkpt lat="49.31203" lon="6.02285">
        <ele>313.6</ele>
        <time>2021-07-28T10:10:40Z</time>
      </trkpt>
      <trkpt lat="49.31203" lon="6.02285">
        <ele>313.6</ele>
        <time>2021-07-28T10:10:41Z</time>
      </trkpt>
      <trkpt lat="49.31202" lon="6.02285">
        <ele>313.6</ele>
        <time>2021-07-28T10:10:42Z</time>
      </trkpt>
      <trkpt lat="49.312" lon="6.02283">
        <ele>313.7</ele>
        <time>2021-07-28T10:10:44Z</time>
      </trkpt>
      <trkpt lat="49.31196" lon="6.02281">
        <ele>313.8</ele>
        <time>2021-07-28T10:10:45Z</time>
      </trkpt>
      <trkpt lat="49.31192" lon="6.0228">
        <ele>313.9</ele>
        <time>2021-07-28T10:10:46Z</time>
      </trkpt>
      <trkpt lat="49.31191" lon="6.0228">
        <ele>313.9</ele>
        <time>2021-07-28T10:10:47Z</time>
      </trkpt>
      <trkpt lat="49.31185" lon="6.02282">
        <ele>314</ele>
        <time>2021-07-28T10:10:49Z</time>
      </trkpt>
      <trkpt lat="49.31181" lon="6.02283">
        <ele>314.1</ele>
        <time>2021-07-28T10:10:50Z</time>
      </trkpt>
      <trkpt lat="49.31173" lon="6.02283">
        <ele>314.3</ele>
        <time>2021-07-28T10:10:52Z</time>
      </trkpt>
      <trkpt lat="49.3117" lon="6.02283">
        <ele>314.3</ele>
        <time>2021-07-28T10:10:53Z</time>
      </trkpt>
      <trkpt lat="49.31164" lon="6.02284">
        <ele>314.4</ele>
        <time>2021-07-28T10:10:55Z</time>
      </trkpt>
      <trkpt lat="49.31158" lon="6.0229">
        <ele>314.6</ele>
        <time>2021-07-28T10:10:57Z</time>
      </trkpt>
      <trkpt lat="49.31155" lon="6.02293">
        <ele>314.7</ele>
        <time>2021-07-28T10:10:58Z</time>
      </trkpt>
      <trkpt lat="49.31153" lon="6.02295">
        <ele>314.7</ele>
        <time>2021-07-28T10:10:59Z</time>
      </trkpt>
      <trkpt lat="49.31149" lon="6.02299">
        <ele>314.9</ele>
        <time>2021-07-28T10:11:01Z</time>
      </trkpt>
      <trkpt lat="49.31146" lon="6.02301">
        <ele>315</ele>
        <time>2021-07-28T10:11:02Z</time>
      </trkpt>
      <trkpt lat="49.31142" lon="6.02304">
        <ele>315.1</ele>
        <time>2021-07-28T10:11:03Z</time>
      </trkpt>
      <trkpt lat="49.31139" lon="6.02305">
        <ele>315.2</ele>
        <time>2021-07-28T10:11:04Z</time>
      </trkpt>
      <trkpt lat="49.31137" lon="6.02307">
        <ele>315.3</ele>
        <time>2021-07-28T10:11:05Z</time>
      </trkpt>
      <trkpt lat="49.31132" lon="6.02311">
        <ele>315.5</ele>
        <time>2021-07-28T10:11:07Z</time>
      </trkpt>
      <trkpt lat="49.31129" lon="6.02312">
        <ele>315.6</ele>
        <time>2021-07-28T10:11:08Z</time>
      </trkpt>
      <trkpt lat="49.31126" lon="6.02312">
        <ele>315.7</ele>
        <time>2021-07-28T10:11:09Z</time>
      </trkpt>
      <trkpt lat="49.31125" lon="6.02312">
        <ele>315.7</ele>
        <time>2021-07-28T10:11:10Z</time>
      </trkpt>
      <trkpt lat="49.31122" lon="6.02312">
        <ele>315.8</ele>
        <time>2021-07-28T10:11:11Z</time>
      </trkpt>
      <trkpt lat="49.31121" lon="6.02312">
        <ele>315.8</ele>
        <time>2021-07-28T10:11:12Z</time>
      </trkpt>
      <trkpt lat="49.31118" lon="6.02312">
        <ele>315.9</ele>
        <time>2021-07-28T10:11:13Z</time>
      </trkpt>
      <trkpt lat="49.31114" lon="6.02313">
        <ele>315.9</ele>
        <time>2021-07-28T10:11:15Z</time>
      </trkpt>
      <trkpt lat="49.31111" lon="6.02313">
        <ele>316</ele>
        <time>2021-07-28T10:11:16Z</time>
      </trkpt>
      <trkpt lat="49.31108" lon="6.02314">
        <ele>316.1</ele>
        <time>2021-07-28T10:11:17Z</time>
      </trkpt>
      <trkpt lat="49.31107" lon="6.02314">
        <ele>316.2</ele>
        <time>2021-07-28T10:11:18Z</time>
      </trkpt>
      <trkpt lat="49.31106" lon="6.02314">
        <ele>316.2</ele>
        <time>2021-07-28T10:11:19Z</time>
      </trkpt>
      <trkpt lat="49.31104" lon="6.02315">
        <ele>316.3</ele>
        <time>2021-07-28T10:11:21Z</time>
      </trkpt>
      <trkpt lat="49.31101" lon="6.02317">
        <ele>316.4</ele>
        <time>2021-07-28T10:11:22Z</time>
      </trkpt>
      <trkpt lat="49.31097" lon="6.0232">
        <ele>316.5</ele>
        <time>2021-07-28T10:11:23Z</time>
      </trkpt>
      <trkpt lat="49.31096" lon="6.0232">
        <ele>316.6</ele>
        <time>2021-07-28T10:11:24Z</time>
      </trkpt>
      <trkpt lat="49.31093" lon="6.02321">
        <ele>316.7</ele>
        <time>2021-07-28T10:11:25Z</time>
      </trkpt>
      <trkpt lat="49.31089" lon="6.02325">
        <ele>316.9</ele>
        <time>2021-07-28T10:11:27Z</time>
      </trkpt>
      <trkpt lat="49.31086" lon="6.02326">
        <ele>317</ele>
        <time>2021-07-28T10:11:28Z</time>
      </trkpt>
      <trkpt lat="49.31082" lon="6.0233">
        <ele>317.1</ele>
        <time>2021-07-28T10:11:30Z</time>
      </trkpt>
      <trkpt lat="49.31079" lon="6.02332">
        <ele>317.3</ele>
        <time>2021-07-28T10:11:31Z</time>
      </trkpt>
      <trkpt lat="49.31078" lon="6.02333">
        <ele>317.3</ele>
        <time>2021-07-28T10:11:33Z</time>
      </trkpt>
      <trkpt lat="49.31077" lon="6.02334">
        <ele>317.4</ele>
        <time>2021-07-28T10:11:34Z</time>
      </trkpt>
      <trkpt lat="49.31075" lon="6.02335">
        <ele>317.4</ele>
        <time>2021-07-28T10:11:35Z</time>
      </trkpt>
      <trkpt lat="49.31072" lon="6.02335">
        <ele>317.6</ele>
        <time>2021-07-28T10:11:37Z</time>
      </trkpt>
      <trkpt lat="49.31072" lon="6.02335">
        <ele>317.6</ele>
        <time>2021-07-28T10:11:38Z</time>
      </trkpt>
      <trkpt lat="49.31069" lon="6.02338">
        <ele>317.7</ele>
        <time>2021-07-28T10:11:40Z</time>
      </trkpt>
      <trkpt lat="49.31068" lon="6.02339">
        <ele>317.8</ele>
        <time>2021-07-28T10:11:41Z</time>
      </trkpt>
      <trkpt lat="49.31066" lon="6.02342">
        <ele>317.9</ele>
        <time>2021-07-28T10:11:42Z</time>
      </trkpt>
      <trkpt lat="49.31065" lon="6.02343">
        <ele>317.9</ele>
        <time>2021-07-28T10:11:43Z</time>
      </trkpt>
      <trkpt lat="49.31062" lon="6.02346">
        <ele>318.1</ele>
        <time>2021-07-28T10:11:45Z</time>
      </trkpt>
      <trkpt lat="49.31059" lon="6.02349">
        <ele>318.2</ele>
        <time>2021-07-28T10:11:46Z</time>
      </trkpt>
      <trkpt lat="49.31056" lon="6.0235">
        <ele>318.3</ele>
        <time>2021-07-28T10:11:47Z</time>
      </trkpt>
      <trkpt lat="49.31055" lon="6.02351">
        <ele>318.4</ele>
        <time>2021-07-28T10:11:48Z</time>
      </trkpt>
      <trkpt lat="49.31053" lon="6.02352">
        <ele>318.5</ele>
        <time>2021-07-28T10:11:49Z</time>
      </trkpt>
      <trkpt lat="49.31052" lon="6.02353">
        <ele>318.5</ele>
        <time>2021-07-28T10:11:50Z</time>
      </trkpt>
      <trkpt lat="49.31049" lon="6.02355">
        <ele>318.6</ele>
        <time>2021-07-28T10:11:51Z</time>
      </trkpt>
      <trkpt lat="49.31048" lon="6.02355">
        <ele>318.7</ele>
        <time>2021-07-28T10:11:52Z</time>
      </trkpt>
      <trkpt lat="49.31043" lon="6.02359">
        <ele>318.9</ele>
        <time>2021-07-28T10:11:54Z</time>
      </trkpt>
      <trkpt lat="49.31042" lon="6.02361">
        <ele>319</ele>
        <time>2021-07-28T10:11:55Z</time>
      </trkpt>
      <trkpt lat="49.31037" lon="6.02362">
        <ele>319.2</ele>
        <time>2021-07-28T10:11:57Z</time>
      </trkpt>
      <trkpt lat="49.31034" lon="6.02364">
        <ele>319.3</ele>
        <time>2021-07-28T10:11:58Z</time>
      </trkpt>
      <trkpt lat="49.31033" lon="6.02365">
        <ele>319.3</ele>
        <time>2021-07-28T10:11:59Z</time>
      </trkpt>
      <trkpt lat="49.31028" lon="6.02365">
        <ele>319.6</ele>
        <time>2021-07-28T10:12:01Z</time>
      </trkpt>
      <trkpt lat="49.31027" lon="6.02365">
        <ele>319.6</ele>
        <time>2021-07-28T10:12:02Z</time>
      </trkpt>
      <trkpt lat="49.31025" lon="6.02366">
        <ele>319.7</ele>
        <time>2021-07-28T10:12:03Z</time>
      </trkpt>
      <trkpt lat="49.31022" lon="6.02367">
        <ele>319.8</ele>
        <time>2021-07-28T10:12:04Z</time>
      </trkpt>
      <trkpt lat="49.31021" lon="6.02367">
        <ele>319.9</ele>
        <time>2021-07-28T10:12:05Z</time>
      </trkpt>
      <trkpt lat="49.31019" lon="6.02366">
        <ele>319.9</ele>
        <time>2021-07-28T10:12:06Z</time>
      </trkpt>
      <trkpt lat="49.31018" lon="6.02367">
        <ele>320</ele>
        <time>2021-07-28T10:12:07Z</time>
      </trkpt>
      <trkpt lat="49.31014" lon="6.02368">
        <ele>320.1</ele>
        <time>2021-07-28T10:12:09Z</time>
      </trkpt>
      <trkpt lat="49.31013" lon="6.02369">
        <ele>320.2</ele>
        <time>2021-07-28T10:12:10Z</time>
      </trkpt>
      <trkpt lat="49.31012" lon="6.02369">
        <ele>320.3</ele>
        <time>2021-07-28T10:12:12Z</time>
      </trkpt>
      <trkpt lat="49.3101" lon="6.0237">
        <ele>320.3</ele>
        <time>2021-07-28T10:12:13Z</time>
      </trkpt>
      <trkpt lat="49.31009" lon="6.02372">
        <ele>320.4</ele>
        <time>2021-07-28T10:12:14Z</time>
      </trkpt>
      <trkpt lat="49.31006" lon="6.02373">
        <ele>320.5</ele>
        <time>2021-07-28T10:12:15Z</time>
      </trkpt>
      <trkpt lat="49.31004" lon="6.02373">
        <ele>320.5</ele>
        <time>2021-07-28T10:12:16Z</time>
      </trkpt>
      <trkpt lat="49.31002" lon="6.02374">
        <ele>320.6</ele>
        <time>2021-07-28T10:12:17Z</time>
      </trkpt>
      <trkpt lat="49.30998" lon="6.02374">
        <ele>320.7</ele>
        <time>2021-07-28T10:12:19Z</time>
      </trkpt>
      <trkpt lat="49.30993" lon="6.02373">
        <ele>320.9</ele>
        <time>2021-07-28T10:12:21Z</time>
      </trkpt>
      <trkpt lat="49.30992" lon="6.02373">
        <ele>320.9</ele>
        <time>2021-07-28T10:12:22Z</time>
      </trkpt>
      <trkpt lat="49.30991" lon="6.02373">
        <ele>321</ele>
        <time>2021-07-28T10:12:23Z</time>
      </trkpt>
      <trkpt lat="49.30988" lon="6.02375">
        <ele>321.1</ele>
        <time>2021-07-28T10:12:24Z</time>
      </trkpt>
      <trkpt lat="49.30987" lon="6.02375">
        <ele>321.1</ele>
        <time>2021-07-28T10:12:25Z</time>
      </trkpt>
      <trkpt lat="49.30983" lon="6.02378">
        <ele>321.3</ele>
        <time>2021-07-28T10:12:27Z</time>
      </trkpt>
      <trkpt lat="49.30981" lon="6.02381">
        <ele>321.4</ele>
        <time>2021-07-28T10:12:28Z</time>
      </trkpt>
      <trkpt lat="49.3098" lon="6.02382">
        <ele>321.4</ele>
        <time>2021-07-28T10:12:29Z</time>
      </trkpt>
      <trkpt lat="49.30978" lon="6.02385">
        <ele>321.5</ele>
        <time>2021-07-28T10:12:30Z</time>
      </trkpt>
      <trkpt lat="49.30977" lon="6.02386">
        <ele>321.5</ele>
        <time>2021-07-28T10:12:31Z</time>
      </trkpt>
      <trkpt lat="49.30974" lon="6.0239">
        <ele>321.6</ele>
        <time>2021-07-28T10:12:33Z</time>
      </trkpt>
      <trkpt lat="49.30972" lon="6.02393">
        <ele>321.7</ele>
        <time>2021-07-28T10:12:34Z</time>
      </trkpt>
      <trkpt lat="49.30969" lon="6.02399">
        <ele>321.9</ele>
        <time>2021-07-28T10:12:36Z</time>
      </trkpt>
      <trkpt lat="49.30967" lon="6.02403">
        <ele>322</ele>
        <time>2021-07-28T10:12:37Z</time>
      </trkpt>
      <trkpt lat="49.30965" lon="6.02407">
        <ele>322.1</ele>
        <time>2021-07-28T10:12:38Z</time>
      </trkpt>
      <trkpt lat="49.30964" lon="6.02409">
        <ele>322.1</ele>
        <time>2021-07-28T10:12:39Z</time>
      </trkpt>
      <trkpt lat="49.30962" lon="6.02412">
        <ele>322.2</ele>
        <time>2021-07-28T10:12:40Z</time>
      </trkpt>
      <trkpt lat="49.30957" lon="6.02417">
        <ele>322.3</ele>
        <time>2021-07-28T10:12:42Z</time>
      </trkpt>
      <trkpt lat="49.30955" lon="6.02419">
        <ele>322.4</ele>
        <time>2021-07-28T10:12:43Z</time>
      </trkpt>
      <trkpt lat="49.30951" lon="6.02425">
        <ele>322.5</ele>
        <time>2021-07-28T10:12:45Z</time>
      </trkpt>
      <trkpt lat="49.30949" lon="6.02428">
        <ele>322.6</ele>
        <time>2021-07-28T10:12:46Z</time>
      </trkpt>
      <trkpt lat="49.30948" lon="6.02432">
        <ele>322.6</ele>
        <time>2021-07-28T10:12:47Z</time>
      </trkpt>
      <trkpt lat="49.30945" lon="6.02436">
        <ele>322.7</ele>
        <time>2021-07-28T10:12:49Z</time>
      </trkpt>
      <trkpt lat="49.30944" lon="6.02439">
        <ele>322.7</ele>
        <time>2021-07-28T10:12:50Z</time>
      </trkpt>
      <trkpt lat="49.30941" lon="6.02445">
        <ele>322.8</ele>
        <time>2021-07-28T10:12:52Z</time>
      </trkpt>
      <trkpt lat="49.30939" lon="6.02448">
        <ele>322.8</ele>
        <time>2021-07-28T10:12:53Z</time>
      </trkpt>
      <trkpt lat="49.30937" lon="6.02451">
        <ele>322.9</ele>
        <time>2021-07-28T10:12:54Z</time>
      </trkpt>
      <trkpt lat="49.30935" lon="6.02455">
        <ele>322.9</ele>
        <time>2021-07-28T10:12:55Z</time>
      </trkpt>
      <trkpt lat="49.30932" lon="6.0246">
        <ele>322.9</ele>
        <time>2021-07-28T10:12:57Z</time>
      </trkpt>
      <trkpt lat="49.30929" lon="6.02465">
        <ele>322.9</ele>
        <time>2021-07-28T10:12:58Z</time>
      </trkpt>
      <trkpt lat="49.30928" lon="6.02467">
        <ele>322.9</ele>
        <time>2021-07-28T10:12:59Z</time>
      </trkpt>
      <trkpt lat="49.30925" lon="6.02472">
        <ele>323</ele>
        <time>2021-07-28T10:13:00Z</time>
      </trkpt>
      <trkpt lat="49.3092" lon="6.02479">
        <ele>323</ele>
        <time>2021-07-28T10:13:02Z</time>
      </trkpt>
      <trkpt lat="49.30917" lon="6.02483">
        <ele>323</ele>
        <time>2021-07-28T10:13:03Z</time>
      </trkpt>
      <trkpt lat="49.30915" lon="6.02487">
        <ele>323</ele>
        <time>2021-07-28T10:13:04Z</time>
      </trkpt>
      <trkpt lat="49.30912" lon="6.02491">
        <ele>323</ele>
        <time>2021-07-28T10:13:05Z</time>
      </trkpt>
      <trkpt lat="49.30909" lon="6.02494">
        <ele>323.1</ele>
        <time>2021-07-28T10:13:06Z</time>
      </trkpt>
      <trkpt lat="49.30903" lon="6.02501">
        <ele>323.1</ele>
        <time>2021-07-28T10:13:08Z</time>
      </trkpt>
      <trkpt lat="49.30898" lon="6.02507">
        <ele>323.1</ele>
        <time>2021-07-28T10:13:10Z</time>
      </trkpt>
      <trkpt lat="49.30895" lon="6.0251">
        <ele>323.1</ele>
        <time>2021-07-28T10:13:11Z</time>
      </trkpt>
      <trkpt lat="49.30889" lon="6.02513">
        <ele>323.1</ele>
        <time>2021-07-28T10:13:13Z</time>
      </trkpt>
      <trkpt lat="49.30886" lon="6.02515">
        <ele>323.1</ele>
        <time>2021-07-28T10:13:14Z</time>
      </trkpt>
      <trkpt lat="49.30884" lon="6.02518">
        <ele>323.1</ele>
        <time>2021-07-28T10:13:15Z</time>
      </trkpt>
      <trkpt lat="49.30881" lon="6.02522">
        <ele>323.1</ele>
        <time>2021-07-28T10:13:16Z</time>
      </trkpt>
      <trkpt lat="49.30877" lon="6.02526">
        <ele>323.1</ele>
        <time>2021-07-28T10:13:17Z</time>
      </trkpt>
      <trkpt lat="49.30875" lon="6.02529">
        <ele>323.1</ele>
        <time>2021-07-28T10:13:18Z</time>
      </trkpt>
      <trkpt lat="49.30872" lon="6.02532">
        <ele>323.2</ele>
        <time>2021-07-28T10:13:19Z</time>
      </trkpt>
      <trkpt lat="49.30869" lon="6.02536">
        <ele>323.2</ele>
        <time>2021-07-28T10:13:20Z</time>
      </trkpt>
      <trkpt lat="49.30863" lon="6.02542">
        <ele>323.2</ele>
        <time>2021-07-28T10:13:22Z</time>
      </trkpt>
      <trkpt lat="49.30857" lon="6.02547">
        <ele>323.3</ele>
        <time>2021-07-28T10:13:24Z</time>
      </trkpt>
      <trkpt lat="49.3085" lon="6.02556">
        <ele>323.3</ele>
        <time>2021-07-28T10:13:26Z</time>
      </trkpt>
      <trkpt lat="49.30843" lon="6.02564">
        <ele>323.3</ele>
        <time>2021-07-28T10:13:28Z</time>
      </trkpt>
      <trkpt lat="49.30839" lon="6.02568">
        <ele>323.3</ele>
        <time>2021-07-28T10:13:29Z</time>
      </trkpt>
      <trkpt lat="49.30834" lon="6.02573">
        <ele>323.4</ele>
        <time>2021-07-28T10:13:30Z</time>
      </trkpt>
      <trkpt lat="49.30831" lon="6.02577">
        <ele>323.4</ele>
        <time>2021-07-28T10:13:31Z</time>
      </trkpt>
      <trkpt lat="49.30827" lon="6.02582">
        <ele>323.5</ele>
        <time>2021-07-28T10:13:33Z</time>
      </trkpt>
      <trkpt lat="49.30823" lon="6.02586">
        <ele>323.6</ele>
        <time>2021-07-28T10:13:34Z</time>
      </trkpt>
      <trkpt lat="49.3082" lon="6.02589">
        <ele>323.6</ele>
        <time>2021-07-28T10:13:35Z</time>
      </trkpt>
      <trkpt lat="49.30816" lon="6.02591">
        <ele>323.7</ele>
        <time>2021-07-28T10:13:37Z</time>
      </trkpt>
      <trkpt lat="49.30811" lon="6.02594">
        <ele>323.7</ele>
        <time>2021-07-28T10:13:38Z</time>
      </trkpt>
      <trkpt lat="49.30807" lon="6.02596">
        <ele>323.8</ele>
        <time>2021-07-28T10:13:40Z</time>
      </trkpt>
      <trkpt lat="49.30804" lon="6.02596">
        <ele>323.9</ele>
        <time>2021-07-28T10:13:41Z</time>
      </trkpt>
      <trkpt lat="49.30802" lon="6.02596">
        <ele>323.9</ele>
        <time>2021-07-28T10:13:42Z</time>
      </trkpt>
      <trkpt lat="49.30799" lon="6.02596">
        <ele>323.9</ele>
        <time>2021-07-28T10:13:43Z</time>
      </trkpt>
      <trkpt lat="49.30796" lon="6.02597">
        <ele>324</ele>
        <time>2021-07-28T10:13:44Z</time>
      </trkpt>
      <trkpt lat="49.30793" lon="6.026">
        <ele>324.1</ele>
        <time>2021-07-28T10:13:45Z</time>
      </trkpt>
      <trkpt lat="49.3079" lon="6.02603">
        <ele>324.1</ele>
        <time>2021-07-28T10:13:46Z</time>
      </trkpt>
      <trkpt lat="49.30786" lon="6.02605">
        <ele>324.2</ele>
        <time>2021-07-28T10:13:47Z</time>
      </trkpt>
      <trkpt lat="49.30783" lon="6.02606">
        <ele>324.3</ele>
        <time>2021-07-28T10:13:48Z</time>
      </trkpt>
      <trkpt lat="49.3078" lon="6.02607">
        <ele>324.3</ele>
        <time>2021-07-28T10:13:49Z</time>
      </trkpt>
      <trkpt lat="49.30777" lon="6.02608">
        <ele>324.4</ele>
        <time>2021-07-28T10:13:50Z</time>
      </trkpt>
      <trkpt lat="49.30775" lon="6.02609">
        <ele>324.4</ele>
        <time>2021-07-28T10:13:51Z</time>
      </trkpt>
      <trkpt lat="49.30771" lon="6.02609">
        <ele>324.5</ele>
        <time>2021-07-28T10:13:52Z</time>
      </trkpt>
      <trkpt lat="49.30769" lon="6.0261">
        <ele>324.5</ele>
        <time>2021-07-28T10:13:53Z</time>
      </trkpt>
      <trkpt lat="49.30766" lon="6.02611">
        <ele>324.5</ele>
        <time>2021-07-28T10:13:55Z</time>
      </trkpt>
      <trkpt lat="49.30763" lon="6.02613">
        <ele>324.6</ele>
        <time>2021-07-28T10:13:56Z</time>
      </trkpt>
      <trkpt lat="49.3076" lon="6.02614">
        <ele>324.6</ele>
        <time>2021-07-28T10:13:57Z</time>
      </trkpt>
      <trkpt lat="49.30757" lon="6.02616">
        <ele>324.7</ele>
        <time>2021-07-28T10:13:58Z</time>
      </trkpt>
      <trkpt lat="49.30754" lon="6.02618">
        <ele>324.7</ele>
        <time>2021-07-28T10:13:59Z</time>
      </trkpt>
      <trkpt lat="49.30753" lon="6.02619">
        <ele>324.7</ele>
        <time>2021-07-28T10:14:00Z</time>
      </trkpt>
      <trkpt lat="49.30749" lon="6.02622">
        <ele>324.8</ele>
        <time>2021-07-28T10:14:01Z</time>
      </trkpt>
      <trkpt lat="49.30748" lon="6.02622">
        <ele>324.8</ele>
        <time>2021-07-28T10:14:02Z</time>
      </trkpt>
      <trkpt lat="49.30744" lon="6.02624">
        <ele>324.8</ele>
        <time>2021-07-28T10:14:04Z</time>
      </trkpt>
      <trkpt lat="49.30743" lon="6.02625">
        <ele>324.9</ele>
        <time>2021-07-28T10:14:05Z</time>
      </trkpt>
      <trkpt lat="49.30739" lon="6.02627">
        <ele>324.9</ele>
        <time>2021-07-28T10:14:06Z</time>
      </trkpt>
      <trkpt lat="49.30738" lon="6.02627">
        <ele>324.9</ele>
        <time>2021-07-28T10:14:07Z</time>
      </trkpt>
      <trkpt lat="49.30735" lon="6.02629">
        <ele>324.9</ele>
        <time>2021-07-28T10:14:08Z</time>
      </trkpt>
      <trkpt lat="49.30732" lon="6.02632">
        <ele>324.9</ele>
        <time>2021-07-28T10:14:09Z</time>
      </trkpt>
      <trkpt lat="49.30729" lon="6.02634">
        <ele>325</ele>
        <time>2021-07-28T10:14:10Z</time>
      </trkpt>
      <trkpt lat="49.30725" lon="6.02637">
        <ele>325</ele>
        <time>2021-07-28T10:14:12Z</time>
      </trkpt>
      <trkpt lat="49.30723" lon="6.02639">
        <ele>325</ele>
        <time>2021-07-28T10:14:13Z</time>
      </trkpt>
      <trkpt lat="49.30719" lon="6.02643">
        <ele>325</ele>
        <time>2021-07-28T10:14:14Z</time>
      </trkpt>
      <trkpt lat="49.30715" lon="6.02648">
        <ele>325</ele>
        <time>2021-07-28T10:14:15Z</time>
      </trkpt>
      <trkpt lat="49.30712" lon="6.02652">
        <ele>325.1</ele>
        <time>2021-07-28T10:14:16Z</time>
      </trkpt>
      <trkpt lat="49.30709" lon="6.02654">
        <ele>325.1</ele>
        <time>2021-07-28T10:14:17Z</time>
      </trkpt>
      <trkpt lat="49.30705" lon="6.0266">
        <ele>325.2</ele>
        <time>2021-07-28T10:14:19Z</time>
      </trkpt>
      <trkpt lat="49.30701" lon="6.02663">
        <ele>325.2</ele>
        <time>2021-07-28T10:14:21Z</time>
      </trkpt>
      <trkpt lat="49.30696" lon="6.02666">
        <ele>325.3</ele>
        <time>2021-07-28T10:14:22Z</time>
      </trkpt>
      <trkpt lat="49.30693" lon="6.0267">
        <ele>325.3</ele>
        <time>2021-07-28T10:14:23Z</time>
      </trkpt>
      <trkpt lat="49.30688" lon="6.02674">
        <ele>325.4</ele>
        <time>2021-07-28T10:14:25Z</time>
      </trkpt>
      <trkpt lat="49.30685" lon="6.02677">
        <ele>325.4</ele>
        <time>2021-07-28T10:14:26Z</time>
      </trkpt>
      <trkpt lat="49.30681" lon="6.02683">
        <ele>325.5</ele>
        <time>2021-07-28T10:14:28Z</time>
      </trkpt>
      <trkpt lat="49.30677" lon="6.02686">
        <ele>325.5</ele>
        <time>2021-07-28T10:14:29Z</time>
      </trkpt>
      <trkpt lat="49.30672" lon="6.0269">
        <ele>325.5</ele>
        <time>2021-07-28T10:14:31Z</time>
      </trkpt>
      <trkpt lat="49.30669" lon="6.02691">
        <ele>325.5</ele>
        <time>2021-07-28T10:14:32Z</time>
      </trkpt>
      <trkpt lat="49.30666" lon="6.02693">
        <ele>325.5</ele>
        <time>2021-07-28T10:14:33Z</time>
      </trkpt>
      <trkpt lat="49.30662" lon="6.02697">
        <ele>325.5</ele>
        <time>2021-07-28T10:14:35Z</time>
      </trkpt>
      <trkpt lat="49.30658" lon="6.02701">
        <ele>325.5</ele>
        <time>2021-07-28T10:14:36Z</time>
      </trkpt>
      <trkpt lat="49.30655" lon="6.02704">
        <ele>325.5</ele>
        <time>2021-07-28T10:14:37Z</time>
      </trkpt>
      <trkpt lat="49.30648" lon="6.0271">
        <ele>325.5</ele>
        <time>2021-07-28T10:14:39Z</time>
      </trkpt>
      <trkpt lat="49.30644" lon="6.02714">
        <ele>325.5</ele>
        <time>2021-07-28T10:14:41Z</time>
      </trkpt>
      <trkpt lat="49.30641" lon="6.02717">
        <ele>325.5</ele>
        <time>2021-07-28T10:14:42Z</time>
      </trkpt>
      <trkpt lat="49.30638" lon="6.0272">
        <ele>325.5</ele>
        <time>2021-07-28T10:14:43Z</time>
      </trkpt>
      <trkpt lat="49.30635" lon="6.02723">
        <ele>325.4</ele>
        <time>2021-07-28T10:14:44Z</time>
      </trkpt>
      <trkpt lat="49.30631" lon="6.02726">
        <ele>325.4</ele>
        <time>2021-07-28T10:14:46Z</time>
      </trkpt>
      <trkpt lat="49.30626" lon="6.02728">
        <ele>325.4</ele>
        <time>2021-07-28T10:14:47Z</time>
      </trkpt>
      <trkpt lat="49.30622" lon="6.0273">
        <ele>325.4</ele>
        <time>2021-07-28T10:14:48Z</time>
      </trkpt>
      <trkpt lat="49.30619" lon="6.02733">
        <ele>325.4</ele>
        <time>2021-07-28T10:14:49Z</time>
      </trkpt>
      <trkpt lat="49.30613" lon="6.02739">
        <ele>325.4</ele>
        <time>2021-07-28T10:14:51Z</time>
      </trkpt>
      <trkpt lat="49.30609" lon="6.02742">
        <ele>325.4</ele>
        <time>2021-07-28T10:14:52Z</time>
      </trkpt>
      <trkpt lat="49.30605" lon="6.02745">
        <ele>325.5</ele>
        <time>2021-07-28T10:14:53Z</time>
      </trkpt>
      <trkpt lat="49.30602" lon="6.02747">
        <ele>325.5</ele>
        <time>2021-07-28T10:14:54Z</time>
      </trkpt>
      <trkpt lat="49.30597" lon="6.0275">
        <ele>325.5</ele>
        <time>2021-07-28T10:14:56Z</time>
      </trkpt>
      <trkpt lat="49.30593" lon="6.02756">
        <ele>325.5</ele>
        <time>2021-07-28T10:14:57Z</time>
      </trkpt>
      <trkpt lat="49.30591" lon="6.02759">
        <ele>325.5</ele>
        <time>2021-07-28T10:14:58Z</time>
      </trkpt>
      <trkpt lat="49.30588" lon="6.02761">
        <ele>325.5</ele>
        <time>2021-07-28T10:14:59Z</time>
      </trkpt>
      <trkpt lat="49.30581" lon="6.02765">
        <ele>325.5</ele>
        <time>2021-07-28T10:15:01Z</time>
      </trkpt>
      <trkpt lat="49.30575" lon="6.02769">
        <ele>325.5</ele>
        <time>2021-07-28T10:15:03Z</time>
      </trkpt>
      <trkpt lat="49.30571" lon="6.02771">
        <ele>325.5</ele>
        <time>2021-07-28T10:15:04Z</time>
      </trkpt>
      <trkpt lat="49.30568" lon="6.02774">
        <ele>325.5</ele>
        <time>2021-07-28T10:15:05Z</time>
      </trkpt>
      <trkpt lat="49.3056" lon="6.02779">
        <ele>325.5</ele>
        <time>2021-07-28T10:15:07Z</time>
      </trkpt>
      <trkpt lat="49.30552" lon="6.02785">
        <ele>325.5</ele>
        <time>2021-07-28T10:15:09Z</time>
      </trkpt>
      <trkpt lat="49.30544" lon="6.02788">
        <ele>325.6</ele>
        <time>2021-07-28T10:15:11Z</time>
      </trkpt>
      <trkpt lat="49.30537" lon="6.02792">
        <ele>325.6</ele>
        <time>2021-07-28T10:15:13Z</time>
      </trkpt>
      <trkpt lat="49.30531" lon="6.02794">
        <ele>325.6</ele>
        <time>2021-07-28T10:15:15Z</time>
      </trkpt>
      <trkpt lat="49.30527" lon="6.02796">
        <ele>325.6</ele>
        <time>2021-07-28T10:15:16Z</time>
      </trkpt>
      <trkpt lat="49.30524" lon="6.02797">
        <ele>325.6</ele>
        <time>2021-07-28T10:15:17Z</time>
      </trkpt>
      <trkpt lat="49.30517" lon="6.02798">
        <ele>325.6</ele>
        <time>2021-07-28T10:15:19Z</time>
      </trkpt>
      <trkpt lat="49.3051" lon="6.02795">
        <ele>325.6</ele>
        <time>2021-07-28T10:15:21Z</time>
      </trkpt>
      <trkpt lat="49.30507" lon="6.02794">
        <ele>325.6</ele>
        <time>2021-07-28T10:15:22Z</time>
      </trkpt>
      <trkpt lat="49.30504" lon="6.02794">
        <ele>325.6</ele>
        <time>2021-07-28T10:15:23Z</time>
      </trkpt>
      <trkpt lat="49.30497" lon="6.02793">
        <ele>325.6</ele>
        <time>2021-07-28T10:15:25Z</time>
      </trkpt>
      <trkpt lat="49.30489" lon="6.02795">
        <ele>325.6</ele>
        <time>2021-07-28T10:15:27Z</time>
      </trkpt>
      <trkpt lat="49.30485" lon="6.02795">
        <ele>325.6</ele>
        <time>2021-07-28T10:15:28Z</time>
      </trkpt>
      <trkpt lat="49.30481" lon="6.02797">
        <ele>325.6</ele>
        <time>2021-07-28T10:15:29Z</time>
      </trkpt>
      <trkpt lat="49.30473" lon="6.02801">
        <ele>325.6</ele>
        <time>2021-07-28T10:15:31Z</time>
      </trkpt>
      <trkpt lat="49.30469" lon="6.02804">
        <ele>325.6</ele>
        <time>2021-07-28T10:15:32Z</time>
      </trkpt>
      <trkpt lat="49.30465" lon="6.02806">
        <ele>325.7</ele>
        <time>2021-07-28T10:15:33Z</time>
      </trkpt>
      <trkpt lat="49.30461" lon="6.02806">
        <ele>325.7</ele>
        <time>2021-07-28T10:15:34Z</time>
      </trkpt>
      <trkpt lat="49.30454" lon="6.02803">
        <ele>325.7</ele>
        <time>2021-07-28T10:15:36Z</time>
      </trkpt>
      <trkpt lat="49.30451" lon="6.02802">
        <ele>325.7</ele>
        <time>2021-07-28T10:15:37Z</time>
      </trkpt>
      <trkpt lat="49.30442" lon="6.02804">
        <ele>325.8</ele>
        <time>2021-07-28T10:15:39Z</time>
      </trkpt>
      <trkpt lat="49.30437" lon="6.02804">
        <ele>325.8</ele>
        <time>2021-07-28T10:15:40Z</time>
      </trkpt>
      <trkpt lat="49.30429" lon="6.02803">
        <ele>325.8</ele>
        <time>2021-07-28T10:15:42Z</time>
      </trkpt>
      <trkpt lat="49.30424" lon="6.02802">
        <ele>325.8</ele>
        <time>2021-07-28T10:15:43Z</time>
      </trkpt>
      <trkpt lat="49.30419" lon="6.028">
        <ele>325.9</ele>
        <time>2021-07-28T10:15:44Z</time>
      </trkpt>
      <trkpt lat="49.30416" lon="6.02797">
        <ele>325.9</ele>
        <time>2021-07-28T10:15:45Z</time>
      </trkpt>
      <trkpt lat="49.30413" lon="6.02794">
        <ele>325.9</ele>
        <time>2021-07-28T10:15:46Z</time>
      </trkpt>
      <trkpt lat="49.30408" lon="6.02792">
        <ele>325.9</ele>
        <time>2021-07-28T10:15:48Z</time>
      </trkpt>
      <trkpt lat="49.30404" lon="6.02791">
        <ele>325.9</ele>
        <time>2021-07-28T10:15:50Z</time>
      </trkpt>
      <trkpt lat="49.30402" lon="6.02791">
        <ele>325.9</ele>
        <time>2021-07-28T10:15:51Z</time>
      </trkpt>
      <trkpt lat="49.30401" lon="6.0279">
        <ele>325.9</ele>
        <time>2021-07-28T10:15:52Z</time>
      </trkpt>
      <trkpt lat="49.30402" lon="6.02789">
        <ele>325.9</ele>
        <time>2021-07-28T10:15:54Z</time>
      </trkpt>
      <trkpt lat="49.30399" lon="6.02788">
        <ele>325.9</ele>
        <time>2021-07-28T10:15:56Z</time>
      </trkpt>
      <trkpt lat="49.30309" lon="6.0274">
        <ele>325.8</ele>
        <time>2021-07-28T10:16:58Z</time>
      </trkpt>
      <trkpt lat="49.30301" lon="6.02735">
        <ele>325.7</ele>
        <time>2021-07-28T10:16:59Z</time>
      </trkpt>
      <trkpt lat="49.30294" lon="6.02729">
        <ele>325.7</ele>
        <time>2021-07-28T10:17:00Z</time>
      </trkpt>
      <trkpt lat="49.30289" lon="6.02726">
        <ele>325.7</ele>
        <time>2021-07-28T10:17:01Z</time>
      </trkpt>
      <trkpt lat="49.30281" lon="6.02722">
        <ele>325.6</ele>
        <time>2021-07-28T10:17:03Z</time>
      </trkpt>
      <trkpt lat="49.30276" lon="6.02719">
        <ele>325.6</ele>
        <time>2021-07-28T10:17:04Z</time>
      </trkpt>
      <trkpt lat="49.30267" lon="6.02717">
        <ele>325.6</ele>
        <time>2021-07-28T10:17:06Z</time>
      </trkpt>
      <trkpt lat="49.30267" lon="6.02717">
        <ele>325.6</ele>
        <time>2021-07-28T10:17:08Z</time>
      </trkpt>
      <trkpt lat="49.30266" lon="6.02717">
        <ele>325.6</ele>
        <time>2021-07-28T10:17:10Z</time>
      </trkpt>
      <trkpt lat="49.30264" lon="6.02717">
        <ele>325.5</ele>
        <time>2021-07-28T10:17:12Z</time>
      </trkpt>
      <trkpt lat="49.3026" lon="6.02717">
        <ele>325.5</ele>
        <time>2021-07-28T10:17:13Z</time>
      </trkpt>
      <trkpt lat="49.30255" lon="6.02717">
        <ele>325.5</ele>
        <time>2021-07-28T10:17:15Z</time>
      </trkpt>
      <trkpt lat="49.30192" lon="6.0269">
        <ele>325</ele>
        <time>2021-07-28T10:17:27Z</time>
      </trkpt>
      <trkpt lat="49.30185" lon="6.02689">
        <ele>324.9</ele>
        <time>2021-07-28T10:17:28Z</time>
      </trkpt>
      <trkpt lat="49.30175" lon="6.02687">
        <ele>324.9</ele>
        <time>2021-07-28T10:17:29Z</time>
      </trkpt>
      <trkpt lat="49.30171" lon="6.02681">
        <ele>324.9</ele>
        <time>2021-07-28T10:17:30Z</time>
      </trkpt>
      <trkpt lat="49.30165" lon="6.02675">
        <ele>324.8</ele>
        <time>2021-07-28T10:17:31Z</time>
      </trkpt>
      <trkpt lat="49.3016" lon="6.02673">
        <ele>324.8</ele>
        <time>2021-07-28T10:17:33Z</time>
      </trkpt>
      <trkpt lat="49.30153" lon="6.02668">
        <ele>324.7</ele>
        <time>2021-07-28T10:17:34Z</time>
      </trkpt>
      <trkpt lat="49.30151" lon="6.02666">
        <ele>324.7</ele>
        <time>2021-07-28T10:17:36Z</time>
      </trkpt>
      <trkpt lat="49.3015" lon="6.02664">
        <ele>324.7</ele>
        <time>2021-07-28T10:17:37Z</time>
      </trkpt>
      <trkpt lat="49.3014" lon="6.02644">
        <ele>324.6</ele>
        <time>2021-07-28T10:17:39Z</time>
      </trkpt>
      <trkpt lat="49.30137" lon="6.02639">
        <ele>324.6</ele>
        <time>2021-07-28T10:17:40Z</time>
      </trkpt>
      <trkpt lat="49.30133" lon="6.02637">
        <ele>324.5</ele>
        <time>2021-07-28T10:17:41Z</time>
      </trkpt>
      <trkpt lat="49.30131" lon="6.02637">
        <ele>324.5</ele>
        <time>2021-07-28T10:17:43Z</time>
      </trkpt>
      <trkpt lat="49.3013" lon="6.02637">
        <ele>324.5</ele>
        <time>2021-07-28T10:17:44Z</time>
      </trkpt>
      <trkpt lat="49.30121" lon="6.02641">
        <ele>324.5</ele>
        <time>2021-07-28T10:17:46Z</time>
      </trkpt>
      <trkpt lat="49.30116" lon="6.02647">
        <ele>324.4</ele>
        <time>2021-07-28T10:17:47Z</time>
      </trkpt>
      <trkpt lat="49.3011" lon="6.02647">
        <ele>324.4</ele>
        <time>2021-07-28T10:17:48Z</time>
      </trkpt>
      <trkpt lat="49.30098" lon="6.02645">
        <ele>324.3</ele>
        <time>2021-07-28T10:17:50Z</time>
      </trkpt>
      <trkpt lat="49.30093" lon="6.02644">
        <ele>324.3</ele>
        <time>2021-07-28T10:17:51Z</time>
      </trkpt>
      <trkpt lat="49.30087" lon="6.02644">
        <ele>324.3</ele>
        <time>2021-07-28T10:17:52Z</time>
      </trkpt>
      <trkpt lat="49.30078" lon="6.02644">
        <ele>324.2</ele>
        <time>2021-07-28T10:17:54Z</time>
      </trkpt>
      <trkpt lat="49.30069" lon="6.02642">
        <ele>324.1</ele>
        <time>2021-07-28T10:17:56Z</time>
      </trkpt>
      <trkpt lat="49.30063" lon="6.02639">
        <ele>324</ele>
        <time>2021-07-28T10:17:57Z</time>
      </trkpt>
      <trkpt lat="49.30059" lon="6.02632">
        <ele>324</ele>
        <time>2021-07-28T10:17:58Z</time>
      </trkpt>
      <trkpt lat="49.30055" lon="6.02627">
        <ele>323.9</ele>
        <time>2021-07-28T10:17:59Z</time>
      </trkpt>
      <trkpt lat="49.3005" lon="6.02624">
        <ele>323.9</ele>
        <time>2021-07-28T10:18:00Z</time>
      </trkpt>
      <trkpt lat="49.30045" lon="6.02622">
        <ele>323.8</ele>
        <time>2021-07-28T10:18:01Z</time>
      </trkpt>
      <trkpt lat="49.30036" lon="6.02616">
        <ele>323.7</ele>
        <time>2021-07-28T10:18:03Z</time>
      </trkpt>
      <trkpt lat="49.30032" lon="6.02614">
        <ele>323.7</ele>
        <time>2021-07-28T10:18:04Z</time>
      </trkpt>
      <trkpt lat="49.30028" lon="6.02613">
        <ele>323.7</ele>
        <time>2021-07-28T10:18:05Z</time>
      </trkpt>
      <trkpt lat="49.30018" lon="6.02609">
        <ele>323.6</ele>
        <time>2021-07-28T10:18:07Z</time>
      </trkpt>
      <trkpt lat="49.30009" lon="6.02605">
        <ele>323.5</ele>
        <time>2021-07-28T10:18:09Z</time>
      </trkpt>
      <trkpt lat="49.30005" lon="6.02603">
        <ele>323.5</ele>
        <time>2021-07-28T10:18:10Z</time>
      </trkpt>
      <trkpt lat="49.30001" lon="6.02601">
        <ele>323.5</ele>
        <time>2021-07-28T10:18:11Z</time>
      </trkpt>
      <trkpt lat="49.29992" lon="6.02598">
        <ele>323.4</ele>
        <time>2021-07-28T10:18:13Z</time>
      </trkpt>
      <trkpt lat="49.29982" lon="6.02596">
        <ele>323.5</ele>
        <time>2021-07-28T10:18:15Z</time>
      </trkpt>
      <trkpt lat="49.29977" lon="6.02594">
        <ele>323.5</ele>
        <time>2021-07-28T10:18:16Z</time>
      </trkpt>
      <trkpt lat="49.29967" lon="6.02591">
        <ele>323.5</ele>
        <time>2021-07-28T10:18:18Z</time>
      </trkpt>
      <trkpt lat="49.29962" lon="6.02589">
        <ele>323.5</ele>
        <time>2021-07-28T10:18:19Z</time>
      </trkpt>
      <trkpt lat="49.29959" lon="6.02587">
        <ele>323.5</ele>
        <time>2021-07-28T10:18:20Z</time>
      </trkpt>
      <trkpt lat="49.29958" lon="6.02586">
        <ele>323.5</ele>
        <time>2021-07-28T10:18:21Z</time>
      </trkpt>
      <trkpt lat="49.29957" lon="6.02586">
        <ele>323.6</ele>
        <time>2021-07-28T10:18:23Z</time>
      </trkpt>
      <trkpt lat="49.29955" lon="6.02586">
        <ele>323.6</ele>
        <time>2021-07-28T10:18:24Z</time>
      </trkpt>
      <trkpt lat="49.29953" lon="6.02587">
        <ele>323.6</ele>
        <time>2021-07-28T10:18:25Z</time>
      </trkpt>
      <trkpt lat="49.2995" lon="6.0259">
        <ele>323.6</ele>
        <time>2021-07-28T10:18:27Z</time>
      </trkpt>
      <trkpt lat="49.29947" lon="6.02595">
        <ele>323.7</ele>
        <time>2021-07-28T10:18:28Z</time>
      </trkpt>
      <trkpt lat="49.29944" lon="6.02598">
        <ele>323.7</ele>
        <time>2021-07-28T10:18:30Z</time>
      </trkpt>
      <trkpt lat="49.29941" lon="6.026">
        <ele>323.8</ele>
        <time>2021-07-28T10:18:31Z</time>
      </trkpt>
      <trkpt lat="49.29937" lon="6.026">
        <ele>323.9</ele>
        <time>2021-07-28T10:18:32Z</time>
      </trkpt>
      <trkpt lat="49.29931" lon="6.02597">
        <ele>324</ele>
        <time>2021-07-28T10:18:34Z</time>
      </trkpt>
      <trkpt lat="49.29925" lon="6.02594">
        <ele>324.1</ele>
        <time>2021-07-28T10:18:35Z</time>
      </trkpt>
      <trkpt lat="49.29919" lon="6.02592">
        <ele>324.2</ele>
        <time>2021-07-28T10:18:37Z</time>
      </trkpt>
      <trkpt lat="49.29915" lon="6.02592">
        <ele>324.2</ele>
        <time>2021-07-28T10:18:38Z</time>
      </trkpt>
      <trkpt lat="49.2991" lon="6.02591">
        <ele>324.3</ele>
        <time>2021-07-28T10:18:40Z</time>
      </trkpt>
      <trkpt lat="49.29905" lon="6.0259">
        <ele>324.4</ele>
        <time>2021-07-28T10:18:41Z</time>
      </trkpt>
      <trkpt lat="49.29899" lon="6.0259">
        <ele>324.5</ele>
        <time>2021-07-28T10:18:42Z</time>
      </trkpt>
      <trkpt lat="49.29894" lon="6.02589">
        <ele>324.5</ele>
        <time>2021-07-28T10:18:43Z</time>
      </trkpt>
      <trkpt lat="49.29887" lon="6.02587">
        <ele>324.6</ele>
        <time>2021-07-28T10:18:45Z</time>
      </trkpt>
      <trkpt lat="49.29882" lon="6.02584">
        <ele>324.7</ele>
        <time>2021-07-28T10:18:46Z</time>
      </trkpt>
      <trkpt lat="49.29878" lon="6.02581">
        <ele>324.7</ele>
        <time>2021-07-28T10:18:47Z</time>
      </trkpt>
      <trkpt lat="49.29875" lon="6.02579">
        <ele>324.8</ele>
        <time>2021-07-28T10:18:48Z</time>
      </trkpt>
      <trkpt lat="49.29871" lon="6.02577">
        <ele>324.8</ele>
        <time>2021-07-28T10:18:49Z</time>
      </trkpt>
      <trkpt lat="49.29866" lon="6.02572">
        <ele>324.9</ele>
        <time>2021-07-28T10:18:51Z</time>
      </trkpt>
      <trkpt lat="49.29862" lon="6.0257">
        <ele>324.9</ele>
        <time>2021-07-28T10:18:52Z</time>
      </trkpt>
      <trkpt lat="49.29857" lon="6.02569">
        <ele>325</ele>
        <time>2021-07-28T10:18:54Z</time>
      </trkpt>
      <trkpt lat="49.29854" lon="6.02569">
        <ele>325</ele>
        <time>2021-07-28T10:18:55Z</time>
      </trkpt>
      <trkpt lat="49.2985" lon="6.0257">
        <ele>325</ele>
        <time>2021-07-28T10:18:56Z</time>
      </trkpt>
      <trkpt lat="49.29846" lon="6.02571">
        <ele>325</ele>
        <time>2021-07-28T10:18:58Z</time>
      </trkpt>
      <trkpt lat="49.29842" lon="6.02573">
        <ele>325.1</ele>
        <time>2021-07-28T10:18:59Z</time>
      </trkpt>
      <trkpt lat="49.29839" lon="6.02574">
        <ele>325.1</ele>
        <time>2021-07-28T10:19:00Z</time>
      </trkpt>
      <trkpt lat="49.29836" lon="6.02574">
        <ele>325.1</ele>
        <time>2021-07-28T10:19:01Z</time>
      </trkpt>
      <trkpt lat="49.29831" lon="6.02573">
        <ele>325.1</ele>
        <time>2021-07-28T10:19:03Z</time>
      </trkpt>
      <trkpt lat="49.29827" lon="6.02573">
        <ele>325.2</ele>
        <time>2021-07-28T10:19:04Z</time>
      </trkpt>
      <trkpt lat="49.29822" lon="6.02573">
        <ele>325.2</ele>
        <time>2021-07-28T10:19:05Z</time>
      </trkpt>
      <trkpt lat="49.29818" lon="6.02572">
        <ele>325.2</ele>
        <time>2021-07-28T10:19:06Z</time>
      </trkpt>
      <trkpt lat="49.29814" lon="6.02571">
        <ele>325.2</ele>
        <time>2021-07-28T10:19:07Z</time>
      </trkpt>
      <trkpt lat="49.29809" lon="6.02569">
        <ele>325.2</ele>
        <time>2021-07-28T10:19:09Z</time>
      </trkpt>
      <trkpt lat="49.29805" lon="6.02567">
        <ele>325.3</ele>
        <time>2021-07-28T10:19:10Z</time>
      </trkpt>
      <trkpt lat="49.29803" lon="6.02565">
        <ele>325.3</ele>
        <time>2021-07-28T10:19:11Z</time>
      </trkpt>
      <trkpt lat="49.29799" lon="6.02562">
        <ele>325.3</ele>
        <time>2021-07-28T10:19:13Z</time>
      </trkpt>
      <trkpt lat="49.29796" lon="6.0256">
        <ele>325.3</ele>
        <time>2021-07-28T10:19:14Z</time>
      </trkpt>
      <trkpt lat="49.29792" lon="6.02558">
        <ele>325.3</ele>
        <time>2021-07-28T10:19:15Z</time>
      </trkpt>
      <trkpt lat="49.29788" lon="6.02556">
        <ele>325.4</ele>
        <time>2021-07-28T10:19:16Z</time>
      </trkpt>
      <trkpt lat="49.29785" lon="6.02554">
        <ele>325.4</ele>
        <time>2021-07-28T10:19:17Z</time>
      </trkpt>
      <trkpt lat="49.29781" lon="6.02552">
        <ele>325.4</ele>
        <time>2021-07-28T10:19:19Z</time>
      </trkpt>
      <trkpt lat="49.29777" lon="6.0255">
        <ele>325.4</ele>
        <time>2021-07-28T10:19:20Z</time>
      </trkpt>
      <trkpt lat="49.29774" lon="6.02548">
        <ele>325.4</ele>
        <time>2021-07-28T10:19:21Z</time>
      </trkpt>
      <trkpt lat="49.29771" lon="6.02547">
        <ele>325.4</ele>
        <time>2021-07-28T10:19:22Z</time>
      </trkpt>
      <trkpt lat="49.29767" lon="6.02545">
        <ele>325.5</ele>
        <time>2021-07-28T10:19:24Z</time>
      </trkpt>
      <trkpt lat="49.29764" lon="6.02544">
        <ele>325.5</ele>
        <time>2021-07-28T10:19:25Z</time>
      </trkpt>
      <trkpt lat="49.29761" lon="6.02543">
        <ele>325.5</ele>
        <time>2021-07-28T10:19:26Z</time>
      </trkpt>
      <trkpt lat="49.29756" lon="6.02541">
        <ele>325.5</ele>
        <time>2021-07-28T10:19:28Z</time>
      </trkpt>
      <trkpt lat="49.29754" lon="6.0254">
        <ele>325.5</ele>
        <time>2021-07-28T10:19:29Z</time>
      </trkpt>
      <trkpt lat="49.29752" lon="6.02539">
        <ele>325.6</ele>
        <time>2021-07-28T10:19:30Z</time>
      </trkpt>
      <trkpt lat="49.2975" lon="6.02537">
        <ele>325.6</ele>
        <time>2021-07-28T10:19:31Z</time>
      </trkpt>
      <trkpt lat="49.29749" lon="6.02537">
        <ele>325.6</ele>
        <time>2021-07-28T10:19:33Z</time>
      </trkpt>
      <trkpt lat="49.29746" lon="6.02535">
        <ele>325.6</ele>
        <time>2021-07-28T10:19:34Z</time>
      </trkpt>
      <trkpt lat="49.29744" lon="6.02535">
        <ele>325.6</ele>
        <time>2021-07-28T10:19:35Z</time>
      </trkpt>
      <trkpt lat="49.2974" lon="6.02534">
        <ele>325.6</ele>
        <time>2021-07-28T10:19:36Z</time>
      </trkpt>
      <trkpt lat="49.29738" lon="6.02534">
        <ele>325.6</ele>
        <time>2021-07-28T10:19:37Z</time>
      </trkpt>
      <trkpt lat="49.29732" lon="6.02533">
        <ele>325.7</ele>
        <time>2021-07-28T10:19:39Z</time>
      </trkpt>
      <trkpt lat="49.29728" lon="6.02531">
        <ele>325.7</ele>
        <time>2021-07-28T10:19:40Z</time>
      </trkpt>
      <trkpt lat="49.29725" lon="6.0253">
        <ele>325.7</ele>
        <time>2021-07-28T10:19:41Z</time>
      </trkpt>
      <trkpt lat="49.2972" lon="6.02528">
        <ele>325.7</ele>
        <time>2021-07-28T10:19:43Z</time>
      </trkpt>
      <trkpt lat="49.29717" lon="6.02528">
        <ele>325.6</ele>
        <time>2021-07-28T10:19:44Z</time>
      </trkpt>
      <trkpt lat="49.29714" lon="6.02527">
        <ele>325.6</ele>
        <time>2021-07-28T10:19:45Z</time>
      </trkpt>
      <trkpt lat="49.2971" lon="6.02527">
        <ele>325.6</ele>
        <time>2021-07-28T10:19:46Z</time>
      </trkpt>
      <trkpt lat="49.29706" lon="6.02527">
        <ele>325.6</ele>
        <time>2021-07-28T10:19:47Z</time>
      </trkpt>
      <trkpt lat="49.29702" lon="6.02528">
        <ele>325.6</ele>
        <time>2021-07-28T10:19:48Z</time>
      </trkpt>
      <trkpt lat="49.29699" lon="6.02528">
        <ele>325.6</ele>
        <time>2021-07-28T10:19:49Z</time>
      </trkpt>
      <trkpt lat="49.29696" lon="6.02526">
        <ele>325.5</ele>
        <time>2021-07-28T10:19:51Z</time>
      </trkpt>
      <trkpt lat="49.29694" lon="6.02524">
        <ele>325.5</ele>
        <time>2021-07-28T10:19:52Z</time>
      </trkpt>
      <trkpt lat="49.29692" lon="6.0252">
        <ele>325.5</ele>
        <time>2021-07-28T10:19:54Z</time>
      </trkpt>
      <trkpt lat="49.29691" lon="6.02515">
        <ele>325.5</ele>
        <time>2021-07-28T10:19:55Z</time>
      </trkpt>
      <trkpt lat="49.29691" lon="6.02515">
        <ele>325.5</ele>
        <time>2021-07-28T10:19:56Z</time>
      </trkpt>
      <trkpt lat="49.29691" lon="6.02514">
        <ele>325.5</ele>
        <time>2021-07-28T10:19:57Z</time>
      </trkpt>
      <trkpt lat="49.2969" lon="6.02513">
        <ele>325.5</ele>
        <time>2021-07-28T10:19:58Z</time>
      </trkpt>
      <trkpt lat="49.29689" lon="6.02511">
        <ele>325.5</ele>
        <time>2021-07-28T10:19:59Z</time>
      </trkpt>
      <trkpt lat="49.29688" lon="6.02509">
        <ele>325.5</ele>
        <time>2021-07-28T10:20:01Z</time>
      </trkpt>
      <trkpt lat="49.29688" lon="6.02508">
        <ele>325.5</ele>
        <time>2021-07-28T10:20:02Z</time>
      </trkpt>
      <trkpt lat="49.29688" lon="6.02507">
        <ele>325.5</ele>
        <time>2021-07-28T10:20:03Z</time>
      </trkpt>
      <trkpt lat="49.29688" lon="6.02506">
        <ele>325.5</ele>
        <time>2021-07-28T10:20:04Z</time>
      </trkpt>
      <trkpt lat="49.29687" lon="6.02505">
        <ele>325.5</ele>
        <time>2021-07-28T10:20:06Z</time>
      </trkpt>
      <trkpt lat="49.29687" lon="6.02504">
        <ele>325.5</ele>
        <time>2021-07-28T10:20:07Z</time>
      </trkpt>
      <trkpt lat="49.29686" lon="6.02503">
        <ele>325.5</ele>
        <time>2021-07-28T10:20:09Z</time>
      </trkpt>
      <trkpt lat="49.29662" lon="6.0247">
        <ele>325.2</ele>
        <time>2021-07-28T10:27:24Z</time>
      </trkpt>
      <trkpt lat="49.29661" lon="6.0247">
        <ele>325.2</ele>
        <time>2021-07-28T10:27:25Z</time>
      </trkpt>
      <trkpt lat="49.29659" lon="6.02467">
        <ele>325.1</ele>
        <time>2021-07-28T10:27:27Z</time>
      </trkpt>
      <trkpt lat="49.29659" lon="6.02466">
        <ele>325.1</ele>
        <time>2021-07-28T10:27:28Z</time>
      </trkpt>
      <trkpt lat="49.2966" lon="6.02466">
        <ele>325.1</ele>
        <time>2021-07-28T10:27:29Z</time>
      </trkpt>
      <trkpt lat="49.29662" lon="6.02466">
        <ele>325.1</ele>
        <time>2021-07-28T10:27:31Z</time>
      </trkpt>
      <trkpt lat="49.29662" lon="6.02466">
        <ele>325.1</ele>
        <time>2021-07-28T10:27:32Z</time>
      </trkpt>
      <trkpt lat="49.29662" lon="6.02466">
        <ele>325.1</ele>
        <time>2021-07-28T10:27:34Z</time>
      </trkpt>
      <trkpt lat="49.29662" lon="6.02466">
        <ele>325.1</ele>
        <time>2021-07-28T10:27:35Z</time>
      </trkpt>
      <trkpt lat="49.29662" lon="6.02466">
        <ele>325.1</ele>
        <time>2021-07-28T10:27:37Z</time>
      </trkpt>
      <trkpt lat="49.29623" lon="6.0249">
        <ele>324.4</ele>
        <time>2021-07-28T10:47:05Z</time>
      </trkpt>
      <trkpt lat="49.29623" lon="6.02489">
        <ele>324.4</ele>
        <time>2021-07-28T10:47:06Z</time>
      </trkpt>
      <trkpt lat="49.29624" lon="6.02488">
        <ele>324.3</ele>
        <time>2021-07-28T10:47:07Z</time>
      </trkpt>
      <trkpt lat="49.2963" lon="6.02486">
        <ele>324.2</ele>
        <time>2021-07-28T10:47:09Z</time>
      </trkpt>
      <trkpt lat="49.29633" lon="6.02486">
        <ele>324.3</ele>
        <time>2021-07-28T10:47:10Z</time>
      </trkpt>
      <trkpt lat="49.29634" lon="6.02485">
        <ele>324.3</ele>
        <time>2021-07-28T10:47:11Z</time>
      </trkpt>
      <trkpt lat="49.29641" lon="6.02483">
        <ele>324.5</ele>
        <time>2021-07-28T10:47:13Z</time>
      </trkpt>
      <trkpt lat="49.29649" lon="6.02479">
        <ele>324.7</ele>
        <time>2021-07-28T10:47:15Z</time>
      </trkpt>
      <trkpt lat="49.29652" lon="6.02477">
        <ele>324.8</ele>
        <time>2021-07-28T10:47:16Z</time>
      </trkpt>
      <trkpt lat="49.29654" lon="6.02476">
        <ele>324.8</ele>
        <time>2021-07-28T10:47:17Z</time>
      </trkpt>
      <trkpt lat="49.29657" lon="6.02473">
        <ele>324.9</ele>
        <time>2021-07-28T10:47:19Z</time>
      </trkpt>
      <trkpt lat="49.29659" lon="6.02473">
        <ele>324.9</ele>
        <time>2021-07-28T10:47:21Z</time>
      </trkpt>
      <trkpt lat="49.29659" lon="6.02474">
        <ele>324.9</ele>
        <time>2021-07-28T10:47:22Z</time>
      </trkpt>
      <trkpt lat="49.2966" lon="6.02474">
        <ele>324.9</ele>
        <time>2021-07-28T10:47:23Z</time>
      </trkpt>
      <trkpt lat="49.2966" lon="6.02474">
        <ele>324.9</ele>
        <time>2021-07-28T10:47:25Z</time>
      </trkpt>
      <trkpt lat="49.2966" lon="6.02474">
        <ele>324.9</ele>
        <time>2021-07-28T10:47:27Z</time>
      </trkpt>
      <trkpt lat="49.2966" lon="6.02474">
        <ele>324.9</ele>
        <time>2021-07-28T10:47:29Z</time>
      </trkpt>
      <trkpt lat="49.29668" lon="6.0248">
        <ele>325.1</ele>
        <time>2021-07-28T10:47:31Z</time>
      </trkpt>
      <trkpt lat="49.29672" lon="6.02484">
        <ele>325.2</ele>
        <time>2021-07-28T10:47:33Z</time>
      </trkpt>
      <trkpt lat="49.29674" lon="6.02485">
        <ele>325.2</ele>
        <time>2021-07-28T10:47:35Z</time>
      </trkpt>
      <trkpt lat="49.29674" lon="6.02486">
        <ele>325.2</ele>
        <time>2021-07-28T10:47:37Z</time>
      </trkpt>
      <trkpt lat="49.29674" lon="6.02486">
        <ele>325.2</ele>
        <time>2021-07-28T10:47:39Z</time>
      </trkpt>
      <trkpt lat="49.29674" lon="6.02486">
        <ele>325.2</ele>
        <time>2021-07-28T10:47:41Z</time>
      </trkpt>
      <trkpt lat="49.2968" lon="6.02486">
        <ele>325.3</ele>
        <time>2021-07-28T10:47:43Z</time>
      </trkpt>
      <trkpt lat="49.29687" lon="6.02485">
        <ele>325.4</ele>
        <time>2021-07-28T10:47:45Z</time>
      </trkpt>
      <trkpt lat="49.29689" lon="6.02484">
        <ele>325.4</ele>
        <time>2021-07-28T10:47:47Z</time>
      </trkpt>
      <trkpt lat="49.2969" lon="6.02484">
        <ele>325.4</ele>
        <time>2021-07-28T10:47:48Z</time>
      </trkpt>
      <trkpt lat="49.2969" lon="6.02484">
        <ele>325.4</ele>
        <time>2021-07-28T10:47:49Z</time>
      </trkpt>
      <trkpt lat="49.2969" lon="6.02484">
        <ele>325.4</ele>
        <time>2021-07-28T10:47:51Z</time>
      </trkpt>
      <trkpt lat="49.29691" lon="6.02484">
        <ele>325.4</ele>
        <time>2021-07-28T10:47:53Z</time>
      </trkpt>
      <trkpt lat="49.29691" lon="6.02484">
        <ele>325.4</ele>
        <time>2021-07-28T10:47:54Z</time>
      </trkpt>
      <trkpt lat="49.29691" lon="6.02484">
        <ele>325.4</ele>
        <time>2021-07-28T10:47:55Z</time>
      </trkpt>
      <trkpt lat="49.29691" lon="6.02484">
        <ele>325.4</ele>
        <time>2021-07-28T10:47:57Z</time>
      </trkpt>
      <trkpt lat="49.29692" lon="6.02484">
        <ele>325.4</ele>
        <time>2021-07-28T10:47:59Z</time>
      </trkpt>
      <trkpt lat="49.29692" lon="6.02484">
        <ele>325.4</ele>
        <time>2021-07-28T10:48:00Z</time>
      </trkpt>
      <trkpt lat="49.29692" lon="6.02484">
        <ele>325.4</ele>
        <time>2021-07-28T10:48:01Z</time>
      </trkpt>
      <trkpt lat="49.29692" lon="6.02484">
        <ele>325.4</ele>
        <time>2021-07-28T10:48:03Z</time>
      </trkpt>
      <trkpt lat="49.29692" lon="6.02484">
        <ele>325.4</ele>
        <time>2021-07-28T10:48:05Z</time>
      </trkpt>
      <trkpt lat="49.29693" lon="6.02484">
        <ele>325.4</ele>
        <time>2021-07-28T10:48:07Z</time>
      </trkpt>
      <trkpt lat="49.29693" lon="6.02484">
        <ele>325.4</ele>
        <time>2021-07-28T10:48:09Z</time>
      </trkpt>
      <trkpt lat="49.29693" lon="6.02484">
        <ele>325.4</ele>
        <time>2021-07-28T10:48:11Z</time>
      </trkpt>
      <trkpt lat="49.29693" lon="6.02484">
        <ele>325.4</ele>
        <time>2021-07-28T10:48:12Z</time>
      </trkpt>
      <trkpt lat="49.29694" lon="6.02484">
        <ele>325.4</ele>
        <time>2021-07-28T10:48:13Z</time>
      </trkpt>
      <trkpt lat="49.29697" lon="6.02487">
        <ele>325.5</ele>
        <time>2021-07-28T10:48:15Z</time>
      </trkpt>
      <trkpt lat="49.297" lon="6.0249">
        <ele>325.5</ele>
        <time>2021-07-28T10:48:16Z</time>
      </trkpt>
      <trkpt lat="49.29703" lon="6.02493">
        <ele>325.4</ele>
        <time>2021-07-28T10:48:18Z</time>
      </trkpt>
      <trkpt lat="49.29703" lon="6.02493">
        <ele>325.4</ele>
        <time>2021-07-28T10:48:19Z</time>
      </trkpt>
      <trkpt lat="49.29704" lon="6.02495">
        <ele>325.3</ele>
        <time>2021-07-28T10:48:20Z</time>
      </trkpt>
      <trkpt lat="49.29704" lon="6.02497">
        <ele>325.3</ele>
        <time>2021-07-28T10:48:22Z</time>
      </trkpt>
      <trkpt lat="49.29702" lon="6.02496">
        <ele>325.3</ele>
        <time>2021-07-28T10:48:23Z</time>
      </trkpt>
      <trkpt lat="49.29701" lon="6.02494">
        <ele>325.3</ele>
        <time>2021-07-28T10:48:25Z</time>
      </trkpt>
      <trkpt lat="49.29697" lon="6.02493">
        <ele>325.3</ele>
        <time>2021-07-28T10:48:27Z</time>
      </trkpt>
      <trkpt lat="49.29694" lon="6.02491">
        <ele>325.3</ele>
        <time>2021-07-28T10:48:28Z</time>
      </trkpt>
      <trkpt lat="49.2969" lon="6.02489">
        <ele>325.2</ele>
        <time>2021-07-28T10:48:29Z</time>
      </trkpt>
      <trkpt lat="49.29687" lon="6.02486">
        <ele>325.2</ele>
        <time>2021-07-28T10:48:31Z</time>
      </trkpt>
      <trkpt lat="49.29687" lon="6.02484">
        <ele>325.2</ele>
        <time>2021-07-28T10:48:33Z</time>
      </trkpt>
      <trkpt lat="49.29687" lon="6.02483">
        <ele>325.2</ele>
        <time>2021-07-28T10:48:34Z</time>
      </trkpt>
      <trkpt lat="49.29687" lon="6.02481">
        <ele>325.2</ele>
        <time>2021-07-28T10:48:35Z</time>
      </trkpt>
      <trkpt lat="49.29687" lon="6.02477">
        <ele>325.2</ele>
        <time>2021-07-28T10:48:36Z</time>
      </trkpt>
      <trkpt lat="49.29687" lon="6.02475">
        <ele>325.2</ele>
        <time>2021-07-28T10:48:37Z</time>
      </trkpt>
      <trkpt lat="49.29686" lon="6.02472">
        <ele>325.2</ele>
        <time>2021-07-28T10:48:39Z</time>
      </trkpt>
      <trkpt lat="49.29686" lon="6.02471">
        <ele>325.2</ele>
        <time>2021-07-28T10:48:40Z</time>
      </trkpt>
      <trkpt lat="49.29686" lon="6.0247">
        <ele>325.2</ele>
        <time>2021-07-28T10:48:41Z</time>
      </trkpt>
      <trkpt lat="49.29685" lon="6.02469">
        <ele>325.2</ele>
        <time>2021-07-28T10:48:42Z</time>
      </trkpt>
      <trkpt lat="49.29685" lon="6.02469">
        <ele>325.2</ele>
        <time>2021-07-28T10:48:44Z</time>
      </trkpt>
      <trkpt lat="49.29685" lon="6.02469">
        <ele>325.2</ele>
        <time>2021-07-28T10:48:46Z</time>
      </trkpt>
      <trkpt lat="49.29685" lon="6.02468">
        <ele>325.2</ele>
        <time>2021-07-28T10:48:47Z</time>
      </trkpt>
      <trkpt lat="49.29684" lon="6.02468">
        <ele>325.2</ele>
        <time>2021-07-28T10:48:49Z</time>
      </trkpt>
      <trkpt lat="49.29684" lon="6.02468">
        <ele>325.2</ele>
        <time>2021-07-28T10:48:51Z</time>
      </trkpt>
      <trkpt lat="49.29684" lon="6.02467">
        <ele>325.2</ele>
        <time>2021-07-28T10:48:52Z</time>
      </trkpt>
      <trkpt lat="49.29683" lon="6.02467">
        <ele>325.2</ele>
        <time>2021-07-28T10:48:53Z</time>
      </trkpt>
      <trkpt lat="49.29683" lon="6.02467">
        <ele>325.2</ele>
        <time>2021-07-28T10:48:55Z</time>
      </trkpt>
      <trkpt lat="49.29683" lon="6.02466">
        <ele>325.2</ele>
        <time>2021-07-28T10:48:56Z</time>
      </trkpt>
      <trkpt lat="49.2968" lon="6.02462">
        <ele>325.2</ele>
        <time>2021-07-28T10:48:58Z</time>
      </trkpt>
      <trkpt lat="49.2968" lon="6.02462">
        <ele>325.1</ele>
        <time>2021-07-28T10:48:59Z</time>
      </trkpt>
      <trkpt lat="49.2968" lon="6.02463">
        <ele>325.1</ele>
        <time>2021-07-28T10:49:00Z</time>
      </trkpt>
      <trkpt lat="49.2968" lon="6.02464">
        <ele>325.1</ele>
        <time>2021-07-28T10:49:01Z</time>
      </trkpt>
      <trkpt lat="49.29679" lon="6.02466">
        <ele>325.1</ele>
        <time>2021-07-28T10:49:03Z</time>
      </trkpt>
      <trkpt lat="49.29679" lon="6.02466">
        <ele>325.1</ele>
        <time>2021-07-28T10:49:04Z</time>
      </trkpt>
      <trkpt lat="49.2967" lon="6.0246">
        <ele>325.1</ele>
        <time>2021-07-28T10:49:06Z</time>
      </trkpt>
      <trkpt lat="49.29666" lon="6.02456">
        <ele>325.1</ele>
        <time>2021-07-28T10:49:08Z</time>
      </trkpt>
      <trkpt lat="49.29665" lon="6.02455">
        <ele>325.1</ele>
        <time>2021-07-28T10:49:10Z</time>
      </trkpt>
      <trkpt lat="49.29662" lon="6.02454">
        <ele>325.1</ele>
        <time>2021-07-28T10:49:12Z</time>
      </trkpt>
      <trkpt lat="49.29662" lon="6.02453">
        <ele>325</ele>
        <time>2021-07-28T10:49:14Z</time>
      </trkpt>
      <trkpt lat="49.29654" lon="6.02451">
        <ele>325</ele>
        <time>2021-07-28T10:49:16Z</time>
      </trkpt>
      <trkpt lat="49.29648" lon="6.02448">
        <ele>325</ele>
        <time>2021-07-28T10:49:18Z</time>
      </trkpt>
      <trkpt lat="49.29644" lon="6.02447">
        <ele>325</ele>
        <time>2021-07-28T10:49:20Z</time>
      </trkpt>
      <trkpt lat="49.29642" lon="6.02447">
        <ele>325</ele>
        <time>2021-07-28T10:49:21Z</time>
      </trkpt>
      <trkpt lat="49.29643" lon="6.02447">
        <ele>325</ele>
        <time>2021-07-28T10:49:23Z</time>
      </trkpt>
      <trkpt lat="49.29643" lon="6.02447">
        <ele>325</ele>
        <time>2021-07-28T10:49:24Z</time>
      </trkpt>
      <trkpt lat="49.29643" lon="6.02446">
        <ele>325</ele>
        <time>2021-07-28T10:49:26Z</time>
      </trkpt>
      <trkpt lat="49.29641" lon="6.02445">
        <ele>325</ele>
        <time>2021-07-28T10:49:28Z</time>
      </trkpt>
      <trkpt lat="49.29641" lon="6.02444">
        <ele>325</ele>
        <time>2021-07-28T10:49:29Z</time>
      </trkpt>
      <trkpt lat="49.29641" lon="6.02442">
        <ele>325</ele>
        <time>2021-07-28T10:49:30Z</time>
      </trkpt>
      <trkpt lat="49.2964" lon="6.02444">
        <ele>325</ele>
        <time>2021-07-28T10:49:31Z</time>
      </trkpt>
      <trkpt lat="49.29646" lon="6.02448">
        <ele>324.9</ele>
        <time>2021-07-28T10:49:33Z</time>
      </trkpt>
      <trkpt lat="49.29649" lon="6.0245">
        <ele>325</ele>
        <time>2021-07-28T10:49:34Z</time>
      </trkpt>
      <trkpt lat="49.29654" lon="6.02453">
        <ele>325</ele>
        <time>2021-07-28T10:49:36Z</time>
      </trkpt>
      <trkpt lat="49.29657" lon="6.02454">
        <ele>325</ele>
        <time>2021-07-28T10:49:37Z</time>
      </trkpt>
      <trkpt lat="49.29664" lon="6.02456">
        <ele>325.1</ele>
        <time>2021-07-28T10:49:39Z</time>
      </trkpt>
      <trkpt lat="49.29669" lon="6.02457">
        <ele>325.1</ele>
        <time>2021-07-28T10:49:40Z</time>
      </trkpt>
      <trkpt lat="49.29676" lon="6.02459">
        <ele>325.2</ele>
        <time>2021-07-28T10:49:42Z</time>
      </trkpt>
      <trkpt lat="49.2968" lon="6.0246">
        <ele>325.2</ele>
        <time>2021-07-28T10:49:43Z</time>
      </trkpt>
      <trkpt lat="49.29684" lon="6.02461">
        <ele>325.3</ele>
        <time>2021-07-28T10:49:44Z</time>
      </trkpt>
      <trkpt lat="49.29689" lon="6.02464">
        <ele>325.3</ele>
        <time>2021-07-28T10:49:46Z</time>
      </trkpt>
      <trkpt lat="49.2969" lon="6.02465">
        <ele>325.3</ele>
        <time>2021-07-28T10:49:47Z</time>
      </trkpt>
      <trkpt lat="49.29692" lon="6.02467">
        <ele>325.3</ele>
        <time>2021-07-28T10:49:49Z</time>
      </trkpt>
      <trkpt lat="49.29693" lon="6.02468">
        <ele>325.3</ele>
        <time>2021-07-28T10:49:51Z</time>
      </trkpt>
      <trkpt lat="49.29693" lon="6.02468">
        <ele>325.3</ele>
        <time>2021-07-28T10:49:52Z</time>
      </trkpt>
      <trkpt lat="49.29693" lon="6.02468">
        <ele>325.3</ele>
        <time>2021-07-28T10:49:53Z</time>
      </trkpt>
      <trkpt lat="49.29693" lon="6.02468">
        <ele>325.3</ele>
        <time>2021-07-28T10:49:55Z</time>
      </trkpt>
      <trkpt lat="49.29693" lon="6.02469">
        <ele>325.3</ele>
        <time>2021-07-28T10:49:57Z</time>
      </trkpt>
      <trkpt lat="49.29693" lon="6.02469">
        <ele>325.3</ele>
        <time>2021-07-28T10:49:58Z</time>
      </trkpt>
      <trkpt lat="49.29693" lon="6.02469">
        <ele>325.3</ele>
        <time>2021-07-28T10:50:00Z</time>
      </trkpt>
      <trkpt lat="49.29693" lon="6.02469">
        <ele>325.3</ele>
        <time>2021-07-28T10:50:01Z</time>
      </trkpt>
      <trkpt lat="49.29693" lon="6.02469">
        <ele>325.3</ele>
        <time>2021-07-28T10:50:03Z</time>
      </trkpt>
      <trkpt lat="49.29693" lon="6.02469">
        <ele>325.3</ele>
        <time>2021-07-28T10:50:04Z</time>
      </trkpt>
      <trkpt lat="49.29693" lon="6.02469">
        <ele>325.4</ele>
        <time>2021-07-28T10:50:06Z</time>
      </trkpt>
      <trkpt lat="49.29693" lon="6.02469">
        <ele>325.4</ele>
        <time>2021-07-28T10:50:07Z</time>
      </trkpt>
      <trkpt lat="49.29693" lon="6.02469">
        <ele>325.4</ele>
        <time>2021-07-28T10:50:09Z</time>
      </trkpt>
      <trkpt lat="49.29693" lon="6.02469">
        <ele>325.4</ele>
        <time>2021-07-28T10:50:11Z</time>
      </trkpt>
      <trkpt lat="49.29693" lon="6.02469">
        <ele>325.4</ele>
        <time>2021-07-28T10:50:12Z</time>
      </trkpt>
      <trkpt lat="49.29693" lon="6.02469">
        <ele>325.4</ele>
        <time>2021-07-28T10:50:13Z</time>
      </trkpt>
      <trkpt lat="49.29693" lon="6.02469">
        <ele>325.4</ele>
        <time>2021-07-28T10:50:15Z</time>
      </trkpt>
      <trkpt lat="49.29693" lon="6.02469">
        <ele>325.4</ele>
        <time>2021-07-28T10:50:16Z</time>
      </trkpt>
      <trkpt lat="49.29693" lon="6.02469">
        <ele>325.4</ele>
        <time>2021-07-28T10:50:18Z</time>
      </trkpt>
      <trkpt lat="49.29693" lon="6.02469">
        <ele>325.4</ele>
        <time>2021-07-28T10:50:19Z</time>
      </trkpt>
      <trkpt lat="49.29693" lon="6.02469">
        <ele>325.4</ele>
        <time>2021-07-28T10:50:21Z</time>
      </trkpt>
      <trkpt lat="49.29693" lon="6.02469">
        <ele>325.4</ele>
        <time>2021-07-28T10:50:22Z</time>
      </trkpt>
      <trkpt lat="49.29693" lon="6.02469">
        <ele>325.4</ele>
        <time>2021-07-28T10:50:23Z</time>
      </trkpt>
      <trkpt lat="49.29693" lon="6.02469">
        <ele>325.4</ele>
        <time>2021-07-28T10:50:25Z</time>
      </trkpt>
      <trkpt lat="49.29693" lon="6.02469">
        <ele>325.4</ele>
        <time>2021-07-28T10:50:27Z</time>
      </trkpt>
      <trkpt lat="49.29693" lon="6.02469">
        <ele>325.4</ele>
        <time>2021-07-28T10:50:29Z</time>
      </trkpt>
      <trkpt lat="49.29693" lon="6.02469">
        <ele>325.4</ele>
        <time>2021-07-28T10:50:30Z</time>
      </trkpt>
      <trkpt lat="49.29693" lon="6.02469">
        <ele>325.4</ele>
        <time>2021-07-28T10:50:31Z</time>
      </trkpt>
      <trkpt lat="49.29693" lon="6.02469">
        <ele>325.4</ele>
        <time>2021-07-28T10:50:33Z</time>
      </trkpt>
      <trkpt lat="49.29693" lon="6.02469">
        <ele>325.4</ele>
        <time>2021-07-28T10:50:34Z</time>
      </trkpt>
      <trkpt lat="49.29693" lon="6.02469">
        <ele>325.4</ele>
        <time>2021-07-28T10:50:35Z</time>
      </trkpt>
      <trkpt lat="49.29693" lon="6.02469">
        <ele>325.4</ele>
        <time>2021-07-28T10:50:36Z</time>
      </trkpt>
      <trkpt lat="49.29693" lon="6.02469">
        <ele>325.4</ele>
        <time>2021-07-28T10:50:37Z</time>
      </trkpt>
      <trkpt lat="49.29693" lon="6.02469">
        <ele>325.4</ele>
        <time>2021-07-28T10:50:39Z</time>
      </trkpt>
      <trkpt lat="49.29693" lon="6.02469">
        <ele>325.4</ele>
        <time>2021-07-28T10:50:41Z</time>
      </trkpt>
      <trkpt lat="49.29693" lon="6.02469">
        <ele>325.4</ele>
        <time>2021-07-28T10:50:43Z</time>
      </trkpt>
      <trkpt lat="49.29693" lon="6.02469">
        <ele>325.4</ele>
        <time>2021-07-28T10:50:45Z</time>
      </trkpt>
      <trkpt lat="49.29693" lon="6.02469">
        <ele>325.4</ele>
        <time>2021-07-28T10:50:46Z</time>
      </trkpt>
      <trkpt lat="49.29693" lon="6.02469">
        <ele>325.4</ele>
        <time>2021-07-28T10:50:47Z</time>
      </trkpt>
      <trkpt lat="49.29693" lon="6.02469">
        <ele>325.4</ele>
        <time>2021-07-28T10:50:48Z</time>
      </trkpt>
      <trkpt lat="49.29693" lon="6.02469">
        <ele>325.4</ele>
        <time>2021-07-28T10:50:49Z</time>
      </trkpt>
      <trkpt lat="49.29693" lon="6.02469">
        <ele>325.4</ele>
        <time>2021-07-28T10:50:51Z</time>
      </trkpt>
      <trkpt lat="49.29693" lon="6.02469">
        <ele>325.4</ele>
        <time>2021-07-28T10:50:52Z</time>
      </trkpt>
      <trkpt lat="49.29693" lon="6.02469">
        <ele>325.4</ele>
        <time>2021-07-28T10:50:54Z</time>
      </trkpt>
      <trkpt lat="49.29693" lon="6.02469">
        <ele>325.5</ele>
        <time>2021-07-28T10:50:55Z</time>
      </trkpt>
      <trkpt lat="49.29693" lon="6.02469">
        <ele>325.5</ele>
        <time>2021-07-28T10:50:57Z</time>
      </trkpt>
      <trkpt lat="49.29693" lon="6.02469">
        <ele>325.5</ele>
        <time>2021-07-28T10:50:58Z</time>
      </trkpt>
      <trkpt lat="49.29693" lon="6.02469">
        <ele>325.5</ele>
        <time>2021-07-28T10:50:59Z</time>
      </trkpt>
      <trkpt lat="49.29693" lon="6.02469">
        <ele>325.5</ele>
        <time>2021-07-28T10:51:01Z</time>
      </trkpt>
      <trkpt lat="49.29693" lon="6.02469">
        <ele>325.5</ele>
        <time>2021-07-28T10:51:03Z</time>
      </trkpt>
      <trkpt lat="49.29693" lon="6.02469">
        <ele>325.5</ele>
        <time>2021-07-28T10:51:04Z</time>
      </trkpt>
      <trkpt lat="49.29693" lon="6.02469">
        <ele>325.5</ele>
        <time>2021-07-28T10:51:06Z</time>
      </trkpt>
      <trkpt lat="49.29693" lon="6.02469">
        <ele>325.5</ele>
        <time>2021-07-28T10:51:07Z</time>
      </trkpt>
      <trkpt lat="49.29693" lon="6.02469">
        <ele>325.5</ele>
        <time>2021-07-28T10:51:09Z</time>
      </trkpt>
      <trkpt lat="49.29693" lon="6.02469">
        <ele>325.5</ele>
        <time>2021-07-28T10:51:10Z</time>
      </trkpt>
      <trkpt lat="49.29693" lon="6.02469">
        <ele>325.5</ele>
        <time>2021-07-28T10:51:12Z</time>
      </trkpt>
      <trkpt lat="49.29693" lon="6.02469">
        <ele>325.5</ele>
        <time>2021-07-28T10:51:13Z</time>
      </trkpt>
      <trkpt lat="49.29693" lon="6.02469">
        <ele>325.5</ele>
        <time>2021-07-28T10:51:15Z</time>
      </trkpt>
      <trkpt lat="49.29693" lon="6.02469">
        <ele>325.5</ele>
        <time>2021-07-28T10:51:16Z</time>
      </trkpt>
      <trkpt lat="49.29693" lon="6.02469">
        <ele>325.5</ele>
        <time>2021-07-28T10:51:17Z</time>
      </trkpt>
      <trkpt lat="49.29693" lon="6.02469">
        <ele>325.5</ele>
        <time>2021-07-28T10:51:19Z</time>
      </trkpt>
      <trkpt lat="49.29693" lon="6.02469">
        <ele>325.5</ele>
        <time>2021-07-28T10:51:21Z</time>
      </trkpt>
      <trkpt lat="49.29693" lon="6.02469">
        <ele>325.5</ele>
        <time>2021-07-28T10:51:22Z</time>
      </trkpt>
      <trkpt lat="49.29693" lon="6.02469">
        <ele>325.5</ele>
        <time>2021-07-28T10:51:23Z</time>
      </trkpt>
      <trkpt lat="49.29696" lon="6.02478">
        <ele>325.5</ele>
        <time>2021-07-28T10:51:25Z</time>
      </trkpt>
      <trkpt lat="49.29696" lon="6.02481">
        <ele>325.5</ele>
        <time>2021-07-28T10:51:27Z</time>
      </trkpt>
      <trkpt lat="49.29697" lon="6.02481">
        <ele>325.5</ele>
        <time>2021-07-28T10:51:28Z</time>
      </trkpt>
      <trkpt lat="49.29697" lon="6.02482">
        <ele>325.5</ele>
        <time>2021-07-28T10:51:29Z</time>
      </trkpt>
      <trkpt lat="49.29697" lon="6.02482">
        <ele>325.5</ele>
        <time>2021-07-28T10:51:30Z</time>
      </trkpt>
      <trkpt lat="49.29697" lon="6.02482">
        <ele>325.5</ele>
        <time>2021-07-28T10:51:32Z</time>
      </trkpt>
      <trkpt lat="49.29697" lon="6.02482">
        <ele>325.5</ele>
        <time>2021-07-28T10:51:34Z</time>
      </trkpt>
      <trkpt lat="49.29697" lon="6.02482">
        <ele>325.5</ele>
        <time>2021-07-28T10:51:36Z</time>
      </trkpt>
      <trkpt lat="49.29697" lon="6.02482">
        <ele>325.5</ele>
        <time>2021-07-28T10:51:37Z</time>
      </trkpt>
      <trkpt lat="49.29697" lon="6.02482">
        <ele>325.5</ele>
        <time>2021-07-28T10:51:38Z</time>
      </trkpt>
      <trkpt lat="49.29697" lon="6.02482">
        <ele>325.5</ele>
        <time>2021-07-28T10:51:40Z</time>
      </trkpt>
      <trkpt lat="49.29697" lon="6.02482">
        <ele>325.5</ele>
        <time>2021-07-28T10:51:42Z</time>
      </trkpt>
      <trkpt lat="49.29697" lon="6.02482">
        <ele>325.5</ele>
        <time>2021-07-28T10:51:43Z</time>
      </trkpt>
      <trkpt lat="49.29697" lon="6.02482">
        <ele>325.5</ele>
        <time>2021-07-28T10:51:45Z</time>
      </trkpt>
      <trkpt lat="49.29697" lon="6.02482">
        <ele>325.5</ele>
        <time>2021-07-28T10:51:46Z</time>
      </trkpt>
      <trkpt lat="49.29697" lon="6.02482">
        <ele>325.5</ele>
        <time>2021-07-28T10:51:47Z</time>
      </trkpt>
      <trkpt lat="49.29697" lon="6.02482">
        <ele>325.5</ele>
        <time>2021-07-28T10:51:48Z</time>
      </trkpt>
      <trkpt lat="49.29697" lon="6.02482">
        <ele>325.5</ele>
        <time>2021-07-28T10:51:49Z</time>
      </trkpt>
      <trkpt lat="49.29697" lon="6.02482">
        <ele>325.5</ele>
        <time>2021-07-28T10:51:51Z</time>
      </trkpt>
      <trkpt lat="49.29697" lon="6.02482">
        <ele>325.5</ele>
        <time>2021-07-28T10:51:53Z</time>
      </trkpt>
      <trkpt lat="49.29697" lon="6.02482">
        <ele>325.5</ele>
        <time>2021-07-28T10:51:54Z</time>
      </trkpt>
      <trkpt lat="49.29697" lon="6.02482">
        <ele>325.5</ele>
        <time>2021-07-28T10:51:55Z</time>
      </trkpt>
      <trkpt lat="49.29697" lon="6.02482">
        <ele>325.5</ele>
        <time>2021-07-28T10:51:57Z</time>
      </trkpt>
      <trkpt lat="49.29697" lon="6.02482">
        <ele>325.5</ele>
        <time>2021-07-28T10:51:58Z</time>
      </trkpt>
      <trkpt lat="49.29697" lon="6.02482">
        <ele>325.5</ele>
        <time>2021-07-28T10:52:00Z</time>
      </trkpt>
      <trkpt lat="49.29697" lon="6.02482">
        <ele>325.5</ele>
        <time>2021-07-28T10:52:01Z</time>
      </trkpt>
      <trkpt lat="49.29697" lon="6.02482">
        <ele>325.5</ele>
        <time>2021-07-28T10:52:03Z</time>
      </trkpt>
      <trkpt lat="49.29697" lon="6.02482">
        <ele>325.5</ele>
        <time>2021-07-28T10:52:05Z</time>
      </trkpt>
      <trkpt lat="49.29697" lon="6.02482">
        <ele>325.5</ele>
        <time>2021-07-28T10:52:06Z</time>
      </trkpt>
      <trkpt lat="49.29697" lon="6.02482">
        <ele>325.5</ele>
        <time>2021-07-28T10:52:07Z</time>
      </trkpt>
      <trkpt lat="49.29697" lon="6.02482">
        <ele>325.5</ele>
        <time>2021-07-28T10:52:09Z</time>
      </trkpt>
      <trkpt lat="49.29697" lon="6.02482">
        <ele>325.5</ele>
        <time>2021-07-28T10:52:11Z</time>
      </trkpt>
      <trkpt lat="49.29697" lon="6.02482">
        <ele>325.5</ele>
        <time>2021-07-28T10:52:12Z</time>
      </trkpt>
      <trkpt lat="49.29697" lon="6.02482">
        <ele>325.5</ele>
        <time>2021-07-28T10:52:14Z</time>
      </trkpt>
      <trkpt lat="49.29697" lon="6.02482">
        <ele>325.5</ele>
        <time>2021-07-28T10:52:15Z</time>
      </trkpt>
      <trkpt lat="49.29697" lon="6.02482">
        <ele>325.5</ele>
        <time>2021-07-28T10:52:16Z</time>
      </trkpt>
      <trkpt lat="49.29697" lon="6.02482">
        <ele>325.5</ele>
        <time>2021-07-28T10:52:17Z</time>
      </trkpt>
      <trkpt lat="49.29697" lon="6.02482">
        <ele>325.5</ele>
        <time>2021-07-28T10:52:19Z</time>
      </trkpt>
      <trkpt lat="49.29697" lon="6.02482">
        <ele>325.5</ele>
        <time>2021-07-28T10:52:21Z</time>
      </trkpt>
      <trkpt lat="49.29697" lon="6.02482">
        <ele>325.5</ele>
        <time>2021-07-28T10:52:22Z</time>
      </trkpt>
      <trkpt lat="49.29697" lon="6.02482">
        <ele>325.5</ele>
        <time>2021-07-28T10:52:24Z</time>
      </trkpt>
      <trkpt lat="49.29697" lon="6.02482">
        <ele>325.5</ele>
        <time>2021-07-28T10:52:25Z</time>
      </trkpt>
      <trkpt lat="49.29697" lon="6.02482">
        <ele>325.5</ele>
        <time>2021-07-28T10:52:27Z</time>
      </trkpt>
      <trkpt lat="49.29697" lon="6.02482">
        <ele>325.5</ele>
        <time>2021-07-28T10:52:28Z</time>
      </trkpt>
      <trkpt lat="49.29697" lon="6.02482">
        <ele>325.5</ele>
        <time>2021-07-28T10:52:29Z</time>
      </trkpt>
      <trkpt lat="49.29697" lon="6.02482">
        <ele>325.5</ele>
        <time>2021-07-28T10:52:31Z</time>
      </trkpt>
      <trkpt lat="49.29697" lon="6.02482">
        <ele>325.5</ele>
        <time>2021-07-28T10:52:33Z</time>
      </trkpt>
      <trkpt lat="49.29697" lon="6.02482">
        <ele>325.5</ele>
        <time>2021-07-28T10:52:34Z</time>
      </trkpt>
      <trkpt lat="49.29697" lon="6.02482">
        <ele>325.5</ele>
        <time>2021-07-28T10:52:36Z</time>
      </trkpt>
      <trkpt lat="49.29697" lon="6.02482">
        <ele>325.5</ele>
        <time>2021-07-28T10:52:37Z</time>
      </trkpt>
      <trkpt lat="49.29697" lon="6.02482">
        <ele>325.5</ele>
        <time>2021-07-28T10:52:39Z</time>
      </trkpt>
      <trkpt lat="49.29697" lon="6.02482">
        <ele>325.5</ele>
        <time>2021-07-28T10:52:40Z</time>
      </trkpt>
      <trkpt lat="49.29697" lon="6.02482">
        <ele>325.5</ele>
        <time>2021-07-28T10:52:42Z</time>
      </trkpt>
      <trkpt lat="49.29697" lon="6.02482">
        <ele>325.5</ele>
        <time>2021-07-28T10:52:43Z</time>
      </trkpt>
      <trkpt lat="49.29697" lon="6.02482">
        <ele>325.5</ele>
        <time>2021-07-28T10:52:45Z</time>
      </trkpt>
      <trkpt lat="49.29697" lon="6.02482">
        <ele>325.5</ele>
        <time>2021-07-28T10:52:46Z</time>
      </trkpt>
      <trkpt lat="49.29697" lon="6.02482">
        <ele>325.5</ele>
        <time>2021-07-28T10:52:47Z</time>
      </trkpt>
      <trkpt lat="49.29697" lon="6.02482">
        <ele>325.5</ele>
        <time>2021-07-28T10:52:48Z</time>
      </trkpt>
      <trkpt lat="49.29697" lon="6.02482">
        <ele>325.5</ele>
        <time>2021-07-28T10:52:49Z</time>
      </trkpt>
      <trkpt lat="49.29697" lon="6.02482">
        <ele>325.5</ele>
        <time>2021-07-28T10:52:51Z</time>
      </trkpt>
      <trkpt lat="49.29697" lon="6.02482">
        <ele>325.5</ele>
        <time>2021-07-28T10:52:52Z</time>
      </trkpt>
      <trkpt lat="49.29697" lon="6.02482">
        <ele>325.5</ele>
        <time>2021-07-28T10:52:53Z</time>
      </trkpt>
      <trkpt lat="49.29697" lon="6.02482">
        <ele>325.5</ele>
        <time>2021-07-28T10:52:54Z</time>
      </trkpt>
      <trkpt lat="49.29697" lon="6.02482">
        <ele>325.5</ele>
        <time>2021-07-28T10:52:55Z</time>
      </trkpt>
      <trkpt lat="49.29697" lon="6.02482">
        <ele>325.5</ele>
        <time>2021-07-28T10:52:57Z</time>
      </trkpt>
      <trkpt lat="49.29697" lon="6.02482">
        <ele>325.5</ele>
        <time>2021-07-28T10:52:58Z</time>
      </trkpt>
      <trkpt lat="49.29697" lon="6.02482">
        <ele>325.5</ele>
        <time>2021-07-28T10:52:59Z</time>
      </trkpt>
      <trkpt lat="49.29697" lon="6.02482">
        <ele>325.5</ele>
        <time>2021-07-28T10:53:01Z</time>
      </trkpt>
      <trkpt lat="49.29697" lon="6.02482">
        <ele>325.5</ele>
        <time>2021-07-28T10:53:03Z</time>
      </trkpt>
      <trkpt lat="49.29697" lon="6.02482">
        <ele>325.5</ele>
        <time>2021-07-28T10:53:05Z</time>
      </trkpt>
      <trkpt lat="49.29697" lon="6.02482">
        <ele>325.5</ele>
        <time>2021-07-28T10:53:06Z</time>
      </trkpt>
      <trkpt lat="49.29697" lon="6.02482">
        <ele>325.5</ele>
        <time>2021-07-28T10:53:07Z</time>
      </trkpt>
      <trkpt lat="49.29697" lon="6.02482">
        <ele>325.5</ele>
        <time>2021-07-28T10:53:09Z</time>
      </trkpt>
      <trkpt lat="49.29697" lon="6.02482">
        <ele>325.5</ele>
        <time>2021-07-28T10:53:11Z</time>
      </trkpt>
      <trkpt lat="49.29697" lon="6.02482">
        <ele>325.5</ele>
        <time>2021-07-28T10:53:12Z</time>
      </trkpt>
      <trkpt lat="49.29697" lon="6.02482">
        <ele>325.5</ele>
        <time>2021-07-28T10:53:14Z</time>
      </trkpt>
      <trkpt lat="49.29697" lon="6.02482">
        <ele>325.5</ele>
        <time>2021-07-28T10:53:15Z</time>
      </trkpt>
      <trkpt lat="49.29697" lon="6.02482">
        <ele>325.5</ele>
        <time>2021-07-28T10:53:17Z</time>
      </trkpt>
      <trkpt lat="49.29697" lon="6.02482">
        <ele>325.5</ele>
        <time>2021-07-28T10:53:19Z</time>
      </trkpt>
      <trkpt lat="49.29697" lon="6.02482">
        <ele>325.5</ele>
        <time>2021-07-28T10:53:20Z</time>
      </trkpt>
      <trkpt lat="49.29697" lon="6.02482">
        <ele>325.5</ele>
        <time>2021-07-28T10:53:22Z</time>
      </trkpt>
      <trkpt lat="49.29697" lon="6.02482">
        <ele>325.5</ele>
        <time>2021-07-28T10:53:24Z</time>
      </trkpt>
      <trkpt lat="49.29697" lon="6.02482">
        <ele>325.5</ele>
        <time>2021-07-28T10:53:26Z</time>
      </trkpt>
      <trkpt lat="49.29697" lon="6.02482">
        <ele>325.5</ele>
        <time>2021-07-28T10:53:27Z</time>
      </trkpt>
      <trkpt lat="49.29697" lon="6.02482">
        <ele>325.5</ele>
        <time>2021-07-28T10:53:29Z</time>
      </trkpt>
      <trkpt lat="49.29697" lon="6.02482">
        <ele>325.5</ele>
        <time>2021-07-28T10:53:31Z</time>
      </trkpt>
      <trkpt lat="49.29697" lon="6.02482">
        <ele>325.5</ele>
        <time>2021-07-28T10:53:33Z</time>
      </trkpt>
      <trkpt lat="49.29697" lon="6.02482">
        <ele>325.5</ele>
        <time>2021-07-28T10:53:34Z</time>
      </trkpt>
      <trkpt lat="49.29693" lon="6.02487">
        <ele>325.5</ele>
        <time>2021-07-28T10:53:36Z</time>
      </trkpt>
      <trkpt lat="49.29692" lon="6.02489">
        <ele>325.5</ele>
        <time>2021-07-28T10:53:38Z</time>
      </trkpt>
      <trkpt lat="49.29692" lon="6.02489">
        <ele>325.5</ele>
        <time>2021-07-28T10:53:40Z</time>
      </trkpt>
      <trkpt lat="49.29692" lon="6.02489">
        <ele>325.5</ele>
        <time>2021-07-28T10:53:41Z</time>
      </trkpt>
      <trkpt lat="49.29692" lon="6.02489">
        <ele>325.5</ele>
        <time>2021-07-28T10:53:43Z</time>
      </trkpt>
      <trkpt lat="49.29692" lon="6.02489">
        <ele>325.5</ele>
        <time>2021-07-28T10:53:44Z</time>
      </trkpt>
      <trkpt lat="49.29692" lon="6.02489">
        <ele>325.5</ele>
        <time>2021-07-28T10:53:46Z</time>
      </trkpt>
      <trkpt lat="49.29692" lon="6.02489">
        <ele>325.5</ele>
        <time>2021-07-28T10:53:47Z</time>
      </trkpt>
      <trkpt lat="49.29692" lon="6.02489">
        <ele>325.5</ele>
        <time>2021-07-28T10:53:49Z</time>
      </trkpt>
      <trkpt lat="49.29692" lon="6.02489">
        <ele>325.5</ele>
        <time>2021-07-28T10:53:50Z</time>
      </trkpt>
      <trkpt lat="49.29692" lon="6.02489">
        <ele>325.5</ele>
        <time>2021-07-28T10:53:51Z</time>
      </trkpt>
      <trkpt lat="49.29692" lon="6.02489">
        <ele>325.5</ele>
        <time>2021-07-28T10:53:52Z</time>
      </trkpt>
      <trkpt lat="49.29692" lon="6.02489">
        <ele>325.5</ele>
        <time>2021-07-28T10:53:54Z</time>
      </trkpt>
      <trkpt lat="49.29692" lon="6.02489">
        <ele>325.5</ele>
        <time>2021-07-28T10:53:56Z</time>
      </trkpt>
      <trkpt lat="49.29693" lon="6.02489">
        <ele>325.5</ele>
        <time>2021-07-28T10:53:58Z</time>
      </trkpt>
      <trkpt lat="49.29693" lon="6.02489">
        <ele>325.5</ele>
        <time>2021-07-28T10:53:59Z</time>
      </trkpt>
      <trkpt lat="49.29693" lon="6.02489">
        <ele>325.5</ele>
        <time>2021-07-28T10:54:01Z</time>
      </trkpt>
      <trkpt lat="49.29693" lon="6.02489">
        <ele>325.5</ele>
        <time>2021-07-28T10:54:02Z</time>
      </trkpt>
      <trkpt lat="49.29693" lon="6.02489">
        <ele>325.5</ele>
        <time>2021-07-28T10:54:04Z</time>
      </trkpt>
      <trkpt lat="49.29693" lon="6.02489">
        <ele>325.5</ele>
        <time>2021-07-28T10:54:06Z</time>
      </trkpt>
      <trkpt lat="49.29693" lon="6.02489">
        <ele>325.5</ele>
        <time>2021-07-28T10:54:08Z</time>
      </trkpt>
      <trkpt lat="49.29693" lon="6.02489">
        <ele>325.5</ele>
        <time>2021-07-28T10:54:09Z</time>
      </trkpt>
      <trkpt lat="49.29693" lon="6.02489">
        <ele>325.5</ele>
        <time>2021-07-28T10:54:11Z</time>
      </trkpt>
      <trkpt lat="49.29693" lon="6.02489">
        <ele>325.5</ele>
        <time>2021-07-28T10:54:12Z</time>
      </trkpt>
      <trkpt lat="49.29693" lon="6.02489">
        <ele>325.5</ele>
        <time>2021-07-28T10:54:14Z</time>
      </trkpt>
      <trkpt lat="49.29693" lon="6.02489">
        <ele>325.5</ele>
        <time>2021-07-28T10:54:15Z</time>
      </trkpt>
      <trkpt lat="49.29693" lon="6.02489">
        <ele>325.5</ele>
        <time>2021-07-28T10:54:16Z</time>
      </trkpt>
      <trkpt lat="49.29693" lon="6.02489">
        <ele>325.5</ele>
        <time>2021-07-28T10:54:17Z</time>
      </trkpt>
      <trkpt lat="49.29693" lon="6.02489">
        <ele>325.5</ele>
        <time>2021-07-28T10:54:19Z</time>
      </trkpt>
      <trkpt lat="49.29693" lon="6.02489">
        <ele>325.5</ele>
        <time>2021-07-28T10:54:20Z</time>
      </trkpt>
      <trkpt lat="49.29693" lon="6.02489">
        <ele>325.5</ele>
        <time>2021-07-28T10:54:21Z</time>
      </trkpt>
      <trkpt lat="49.29693" lon="6.02489">
        <ele>325.5</ele>
        <time>2021-07-28T10:54:22Z</time>
      </trkpt>
      <trkpt lat="49.29693" lon="6.02489">
        <ele>325.5</ele>
        <time>2021-07-28T10:54:24Z</time>
      </trkpt>
      <trkpt lat="49.29693" lon="6.02489">
        <ele>325.5</ele>
        <time>2021-07-28T10:54:26Z</time>
      </trkpt>
      <trkpt lat="49.29693" lon="6.02489">
        <ele>325.5</ele>
        <time>2021-07-28T10:54:28Z</time>
      </trkpt>
      <trkpt lat="49.29693" lon="6.02489">
        <ele>325.5</ele>
        <time>2021-07-28T10:54:30Z</time>
      </trkpt>
      <trkpt lat="49.29693" lon="6.02489">
        <ele>325.5</ele>
        <time>2021-07-28T10:54:32Z</time>
      </trkpt>
      <trkpt lat="49.29693" lon="6.02489">
        <ele>325.5</ele>
        <time>2021-07-28T10:54:33Z</time>
      </trkpt>
      <trkpt lat="49.29693" lon="6.02489">
        <ele>325.5</ele>
        <time>2021-07-28T10:54:35Z</time>
      </trkpt>
      <trkpt lat="49.29693" lon="6.02489">
        <ele>325.5</ele>
        <time>2021-07-28T10:54:36Z</time>
      </trkpt>
      <trkpt lat="49.29693" lon="6.0249">
        <ele>325.5</ele>
        <time>2021-07-28T10:54:37Z</time>
      </trkpt>
      <trkpt lat="49.29693" lon="6.0249">
        <ele>325.5</ele>
        <time>2021-07-28T10:54:39Z</time>
      </trkpt>
      <trkpt lat="49.29693" lon="6.0249">
        <ele>325.5</ele>
        <time>2021-07-28T10:54:40Z</time>
      </trkpt>
      <trkpt lat="49.29694" lon="6.0249">
        <ele>325.5</ele>
        <time>2021-07-28T10:54:42Z</time>
      </trkpt>
      <trkpt lat="49.29694" lon="6.0249">
        <ele>325.5</ele>
        <time>2021-07-28T10:54:44Z</time>
      </trkpt>
      <trkpt lat="49.29694" lon="6.0249">
        <ele>325.5</ele>
        <time>2021-07-28T10:54:45Z</time>
      </trkpt>
      <trkpt lat="49.29694" lon="6.0249">
        <ele>325.5</ele>
        <time>2021-07-28T10:54:46Z</time>
      </trkpt>
      <trkpt lat="49.29694" lon="6.0249">
        <ele>325.5</ele>
        <time>2021-07-28T10:54:48Z</time>
      </trkpt>
      <trkpt lat="49.29694" lon="6.0249">
        <ele>325.5</ele>
        <time>2021-07-28T10:54:49Z</time>
      </trkpt>
      <trkpt lat="49.29694" lon="6.0249">
        <ele>325.5</ele>
        <time>2021-07-28T10:54:51Z</time>
      </trkpt>
      <trkpt lat="49.29694" lon="6.0249">
        <ele>325.5</ele>
        <time>2021-07-28T10:54:53Z</time>
      </trkpt>
      <trkpt lat="49.29694" lon="6.0249">
        <ele>325.5</ele>
        <time>2021-07-28T10:54:55Z</time>
      </trkpt>
      <trkpt lat="49.29694" lon="6.0249">
        <ele>325.5</ele>
        <time>2021-07-28T10:54:57Z</time>
      </trkpt>
      <trkpt lat="49.29694" lon="6.0249">
        <ele>325.5</ele>
        <time>2021-07-28T10:54:58Z</time>
      </trkpt>
      <trkpt lat="49.29694" lon="6.0249">
        <ele>325.5</ele>
        <time>2021-07-28T10:54:59Z</time>
      </trkpt>
      <trkpt lat="49.29694" lon="6.0249">
        <ele>325.5</ele>
        <time>2021-07-28T10:55:01Z</time>
      </trkpt>
      <trkpt lat="49.29694" lon="6.0249">
        <ele>325.5</ele>
        <time>2021-07-28T10:55:03Z</time>
      </trkpt>
      <trkpt lat="49.29694" lon="6.0249">
        <ele>325.5</ele>
        <time>2021-07-28T10:55:05Z</time>
      </trkpt>
      <trkpt lat="49.29694" lon="6.0249">
        <ele>325.5</ele>
        <time>2021-07-28T10:55:07Z</time>
      </trkpt>
      <trkpt lat="49.29694" lon="6.0249">
        <ele>325.5</ele>
        <time>2021-07-28T10:55:09Z</time>
      </trkpt>
      <trkpt lat="49.29694" lon="6.0249">
        <ele>325.5</ele>
        <time>2021-07-28T10:55:11Z</time>
      </trkpt>
      <trkpt lat="49.29694" lon="6.0249">
        <ele>325.5</ele>
        <time>2021-07-28T10:55:13Z</time>
      </trkpt>
      <trkpt lat="49.29694" lon="6.0249">
        <ele>325.5</ele>
        <time>2021-07-28T10:55:15Z</time>
      </trkpt>
      <trkpt lat="49.29694" lon="6.0249">
        <ele>325.5</ele>
        <time>2021-07-28T10:55:16Z</time>
      </trkpt>
      <trkpt lat="49.29694" lon="6.0249">
        <ele>325.5</ele>
        <time>2021-07-28T10:55:18Z</time>
      </trkpt>
      <trkpt lat="49.29694" lon="6.0249">
        <ele>325.5</ele>
        <time>2021-07-28T10:55:19Z</time>
      </trkpt>
      <trkpt lat="49.29694" lon="6.0249">
        <ele>325.5</ele>
        <time>2021-07-28T10:55:21Z</time>
      </trkpt>
      <trkpt lat="49.29694" lon="6.0249">
        <ele>325.5</ele>
        <time>2021-07-28T10:55:22Z</time>
      </trkpt>
      <trkpt lat="49.29694" lon="6.0249">
        <ele>325.5</ele>
        <time>2021-07-28T10:55:23Z</time>
      </trkpt>
      <trkpt lat="49.29694" lon="6.0249">
        <ele>325.5</ele>
        <time>2021-07-28T10:55:25Z</time>
      </trkpt>
      <trkpt lat="49.29694" lon="6.0249">
        <ele>325.5</ele>
        <time>2021-07-28T10:55:27Z</time>
      </trkpt>
      <trkpt lat="49.29694" lon="6.0249">
        <ele>325.5</ele>
        <time>2021-07-28T10:55:28Z</time>
      </trkpt>
      <trkpt lat="49.29695" lon="6.0249">
        <ele>325.5</ele>
        <time>2021-07-28T10:55:30Z</time>
      </trkpt>
      <trkpt lat="49.29695" lon="6.0249">
        <ele>325.5</ele>
        <time>2021-07-28T10:55:31Z</time>
      </trkpt>
      <trkpt lat="49.29695" lon="6.0249">
        <ele>325.5</ele>
        <time>2021-07-28T10:55:33Z</time>
      </trkpt>
      <trkpt lat="49.29695" lon="6.0249">
        <ele>325.5</ele>
        <time>2021-07-28T10:55:34Z</time>
      </trkpt>
      <trkpt lat="49.29695" lon="6.0249">
        <ele>325.5</ele>
        <time>2021-07-28T10:55:35Z</time>
      </trkpt>
      <trkpt lat="49.29695" lon="6.0249">
        <ele>325.5</ele>
        <time>2021-07-28T10:55:37Z</time>
      </trkpt>
      <trkpt lat="49.29695" lon="6.0249">
        <ele>325.5</ele>
        <time>2021-07-28T10:55:39Z</time>
      </trkpt>
      <trkpt lat="49.29695" lon="6.0249">
        <ele>325.5</ele>
        <time>2021-07-28T10:55:41Z</time>
      </trkpt>
      <trkpt lat="49.29695" lon="6.0249">
        <ele>325.5</ele>
        <time>2021-07-28T10:55:43Z</time>
      </trkpt>
      <trkpt lat="49.29695" lon="6.02491">
        <ele>325.5</ele>
        <time>2021-07-28T10:55:45Z</time>
      </trkpt>
      <trkpt lat="49.29695" lon="6.02491">
        <ele>325.5</ele>
        <time>2021-07-28T10:55:46Z</time>
      </trkpt>
      <trkpt lat="49.29695" lon="6.02491">
        <ele>325.5</ele>
        <time>2021-07-28T10:55:48Z</time>
      </trkpt>
      <trkpt lat="49.29695" lon="6.02491">
        <ele>325.5</ele>
        <time>2021-07-28T10:55:49Z</time>
      </trkpt>
      <trkpt lat="49.29695" lon="6.02491">
        <ele>325.5</ele>
        <time>2021-07-28T10:55:51Z</time>
      </trkpt>
      <trkpt lat="49.29695" lon="6.02491">
        <ele>325.5</ele>
        <time>2021-07-28T10:55:53Z</time>
      </trkpt>
      <trkpt lat="49.29695" lon="6.02491">
        <ele>325.5</ele>
        <time>2021-07-28T10:55:55Z</time>
      </trkpt>
      <trkpt lat="49.29695" lon="6.02491">
        <ele>325.5</ele>
        <time>2021-07-28T10:55:57Z</time>
      </trkpt>
      <trkpt lat="49.29695" lon="6.02491">
        <ele>325.5</ele>
        <time>2021-07-28T10:55:58Z</time>
      </trkpt>
      <trkpt lat="49.29695" lon="6.02491">
        <ele>325.5</ele>
        <time>2021-07-28T10:56:00Z</time>
      </trkpt>
      <trkpt lat="49.29695" lon="6.02491">
        <ele>325.5</ele>
        <time>2021-07-28T10:56:01Z</time>
      </trkpt>
      <trkpt lat="49.29695" lon="6.02491">
        <ele>325.5</ele>
        <time>2021-07-28T10:56:03Z</time>
      </trkpt>
      <trkpt lat="49.29695" lon="6.02491">
        <ele>325.5</ele>
        <time>2021-07-28T10:56:05Z</time>
      </trkpt>
      <trkpt lat="49.29695" lon="6.02491">
        <ele>325.5</ele>
        <time>2021-07-28T10:56:06Z</time>
      </trkpt>
      <trkpt lat="49.29695" lon="6.02491">
        <ele>325.5</ele>
        <time>2021-07-28T10:56:07Z</time>
      </trkpt>
      <trkpt lat="49.29695" lon="6.02491">
        <ele>325.5</ele>
        <time>2021-07-28T10:56:09Z</time>
      </trkpt>
      <trkpt lat="49.29695" lon="6.02491">
        <ele>325.5</ele>
        <time>2021-07-28T10:56:10Z</time>
      </trkpt>
      <trkpt lat="49.29695" lon="6.02491">
        <ele>325.5</ele>
        <time>2021-07-28T10:56:12Z</time>
      </trkpt>
      <trkpt lat="49.29695" lon="6.02491">
        <ele>325.5</ele>
        <time>2021-07-28T10:56:13Z</time>
      </trkpt>
      <trkpt lat="49.29695" lon="6.02491">
        <ele>325.5</ele>
        <time>2021-07-28T10:56:15Z</time>
      </trkpt>
      <trkpt lat="49.29696" lon="6.02491">
        <ele>325.5</ele>
        <time>2021-07-28T10:56:16Z</time>
      </trkpt>
      <trkpt lat="49.29696" lon="6.02491">
        <ele>325.5</ele>
        <time>2021-07-28T10:56:18Z</time>
      </trkpt>
      <trkpt lat="49.29696" lon="6.02491">
        <ele>325.5</ele>
        <time>2021-07-28T10:56:19Z</time>
      </trkpt>
      <trkpt lat="49.29696" lon="6.02491">
        <ele>325.5</ele>
        <time>2021-07-28T10:56:21Z</time>
      </trkpt>
      <trkpt lat="49.29696" lon="6.02491">
        <ele>325.5</ele>
        <time>2021-07-28T10:56:22Z</time>
      </trkpt>
      <trkpt lat="49.29696" lon="6.02491">
        <ele>325.5</ele>
        <time>2021-07-28T10:56:24Z</time>
      </trkpt>
      <trkpt lat="49.29696" lon="6.02491">
        <ele>325.5</ele>
        <time>2021-07-28T10:56:25Z</time>
      </trkpt>
      <trkpt lat="49.29696" lon="6.02491">
        <ele>325.5</ele>
        <time>2021-07-28T10:56:27Z</time>
      </trkpt>
      <trkpt lat="49.29696" lon="6.02491">
        <ele>325.5</ele>
        <time>2021-07-28T10:56:28Z</time>
      </trkpt>
      <trkpt lat="49.29696" lon="6.02491">
        <ele>325.5</ele>
        <time>2021-07-28T10:56:30Z</time>
      </trkpt>
      <trkpt lat="49.29696" lon="6.02491">
        <ele>325.5</ele>
        <time>2021-07-28T10:56:31Z</time>
      </trkpt>
      <trkpt lat="49.29699" lon="6.02493">
        <ele>325.5</ele>
        <time>2021-07-28T10:56:33Z</time>
      </trkpt>
      <trkpt lat="49.297" lon="6.02494">
        <ele>325.5</ele>
        <time>2021-07-28T10:56:35Z</time>
      </trkpt>
      <trkpt lat="49.297" lon="6.02494">
        <ele>325.5</ele>
        <time>2021-07-28T10:56:36Z</time>
      </trkpt>
      <trkpt lat="49.297" lon="6.02494">
        <ele>325.5</ele>
        <time>2021-07-28T10:56:37Z</time>
      </trkpt>
      <trkpt lat="49.297" lon="6.02494">
        <ele>325.5</ele>
        <time>2021-07-28T10:56:39Z</time>
      </trkpt>
      <trkpt lat="49.297" lon="6.02494">
        <ele>325.5</ele>
        <time>2021-07-28T10:56:40Z</time>
      </trkpt>
      <trkpt lat="49.297" lon="6.02494">
        <ele>325.5</ele>
        <time>2021-07-28T10:56:42Z</time>
      </trkpt>
      <trkpt lat="49.297" lon="6.02494">
        <ele>325.5</ele>
        <time>2021-07-28T10:56:43Z</time>
      </trkpt>
      <trkpt lat="49.297" lon="6.02494">
        <ele>325.5</ele>
        <time>2021-07-28T10:56:45Z</time>
      </trkpt>
      <trkpt lat="49.297" lon="6.02493">
        <ele>325.5</ele>
        <time>2021-07-28T10:56:47Z</time>
      </trkpt>
      <trkpt lat="49.297" lon="6.02493">
        <ele>325.5</ele>
        <time>2021-07-28T10:56:48Z</time>
      </trkpt>
      <trkpt lat="49.297" lon="6.02493">
        <ele>325.5</ele>
        <time>2021-07-28T10:56:49Z</time>
      </trkpt>
      <trkpt lat="49.297" lon="6.02493">
        <ele>325.5</ele>
        <time>2021-07-28T10:56:51Z</time>
      </trkpt>
      <trkpt lat="49.297" lon="6.02493">
        <ele>325.5</ele>
        <time>2021-07-28T10:56:52Z</time>
      </trkpt>
      <trkpt lat="49.29699" lon="6.02493">
        <ele>325.5</ele>
        <time>2021-07-28T10:56:54Z</time>
      </trkpt>
      <trkpt lat="49.29699" lon="6.02493">
        <ele>325.5</ele>
        <time>2021-07-28T10:56:55Z</time>
      </trkpt>
      <trkpt lat="49.29699" lon="6.02493">
        <ele>325.5</ele>
        <time>2021-07-28T10:56:57Z</time>
      </trkpt>
      <trkpt lat="49.29699" lon="6.02493">
        <ele>325.5</ele>
        <time>2021-07-28T10:56:58Z</time>
      </trkpt>
      <trkpt lat="49.29699" lon="6.02493">
        <ele>325.5</ele>
        <time>2021-07-28T10:57:00Z</time>
      </trkpt>
      <trkpt lat="49.29699" lon="6.02493">
        <ele>325.5</ele>
        <time>2021-07-28T10:57:01Z</time>
      </trkpt>
      <trkpt lat="49.29699" lon="6.02493">
        <ele>325.5</ele>
        <time>2021-07-28T10:57:03Z</time>
      </trkpt>
      <trkpt lat="49.29699" lon="6.02493">
        <ele>325.5</ele>
        <time>2021-07-28T10:57:05Z</time>
      </trkpt>
      <trkpt lat="49.29699" lon="6.02493">
        <ele>325.5</ele>
        <time>2021-07-28T10:57:06Z</time>
      </trkpt>
      <trkpt lat="49.29699" lon="6.02493">
        <ele>325.5</ele>
        <time>2021-07-28T10:57:07Z</time>
      </trkpt>
      <trkpt lat="49.29699" lon="6.02493">
        <ele>325.5</ele>
        <time>2021-07-28T10:57:09Z</time>
      </trkpt>
      <trkpt lat="49.29699" lon="6.02493">
        <ele>325.5</ele>
        <time>2021-07-28T10:57:10Z</time>
      </trkpt>
      <trkpt lat="49.29699" lon="6.02493">
        <ele>325.5</ele>
        <time>2021-07-28T10:57:12Z</time>
      </trkpt>
      <trkpt lat="49.29699" lon="6.02493">
        <ele>325.5</ele>
        <time>2021-07-28T10:57:13Z</time>
      </trkpt>
      <trkpt lat="49.29699" lon="6.02493">
        <ele>325.5</ele>
        <time>2021-07-28T10:57:15Z</time>
      </trkpt>
      <trkpt lat="49.29698" lon="6.02493">
        <ele>325.5</ele>
        <time>2021-07-28T10:57:16Z</time>
      </trkpt>
      <trkpt lat="49.29698" lon="6.02493">
        <ele>325.5</ele>
        <time>2021-07-28T10:57:18Z</time>
      </trkpt>
      <trkpt lat="49.29698" lon="6.02493">
        <ele>325.5</ele>
        <time>2021-07-28T10:57:19Z</time>
      </trkpt>
      <trkpt lat="49.29698" lon="6.02492">
        <ele>325.5</ele>
        <time>2021-07-28T10:57:21Z</time>
      </trkpt>
      <trkpt lat="49.29698" lon="6.02492">
        <ele>325.5</ele>
        <time>2021-07-28T10:57:22Z</time>
      </trkpt>
      <trkpt lat="49.29698" lon="6.02492">
        <ele>325.5</ele>
        <time>2021-07-28T10:57:24Z</time>
      </trkpt>
      <trkpt lat="49.29698" lon="6.02492">
        <ele>325.5</ele>
        <time>2021-07-28T10:57:26Z</time>
      </trkpt>
      <trkpt lat="49.29698" lon="6.02492">
        <ele>325.5</ele>
        <time>2021-07-28T10:57:28Z</time>
      </trkpt>
      <trkpt lat="49.29698" lon="6.02492">
        <ele>325.5</ele>
        <time>2021-07-28T10:57:30Z</time>
      </trkpt>
      <trkpt lat="49.29698" lon="6.02492">
        <ele>325.5</ele>
        <time>2021-07-28T10:57:31Z</time>
      </trkpt>
      <trkpt lat="49.29698" lon="6.02492">
        <ele>325.5</ele>
        <time>2021-07-28T10:57:33Z</time>
      </trkpt>
      <trkpt lat="49.29698" lon="6.02492">
        <ele>325.5</ele>
        <time>2021-07-28T10:57:35Z</time>
      </trkpt>
      <trkpt lat="49.29698" lon="6.02492">
        <ele>325.5</ele>
        <time>2021-07-28T10:57:37Z</time>
      </trkpt>
      <trkpt lat="49.29698" lon="6.02492">
        <ele>325.5</ele>
        <time>2021-07-28T10:57:39Z</time>
      </trkpt>
      <trkpt lat="49.29698" lon="6.02492">
        <ele>325.5</ele>
        <time>2021-07-28T10:57:41Z</time>
      </trkpt>
      <trkpt lat="49.29698" lon="6.02492">
        <ele>325.5</ele>
        <time>2021-07-28T10:57:43Z</time>
      </trkpt>
      <trkpt lat="49.29697" lon="6.02492">
        <ele>325.5</ele>
        <time>2021-07-28T10:57:45Z</time>
      </trkpt>
      <trkpt lat="49.29697" lon="6.02492">
        <ele>325.5</ele>
        <time>2021-07-28T10:57:47Z</time>
      </trkpt>
      <trkpt lat="49.29697" lon="6.02492">
        <ele>325.5</ele>
        <time>2021-07-28T10:57:48Z</time>
      </trkpt>
      <trkpt lat="49.29697" lon="6.02492">
        <ele>325.5</ele>
        <time>2021-07-28T10:57:49Z</time>
      </trkpt>
      <trkpt lat="49.29697" lon="6.02492">
        <ele>325.5</ele>
        <time>2021-07-28T10:57:51Z</time>
      </trkpt>
      <trkpt lat="49.29697" lon="6.02492">
        <ele>325.5</ele>
        <time>2021-07-28T10:57:53Z</time>
      </trkpt>
      <trkpt lat="49.29697" lon="6.02492">
        <ele>325.5</ele>
        <time>2021-07-28T10:57:55Z</time>
      </trkpt>
      <trkpt lat="49.29697" lon="6.02492">
        <ele>325.5</ele>
        <time>2021-07-28T10:57:57Z</time>
      </trkpt>
      <trkpt lat="49.29697" lon="6.02492">
        <ele>325.5</ele>
        <time>2021-07-28T10:57:59Z</time>
      </trkpt>
      <trkpt lat="49.29697" lon="6.02492">
        <ele>325.5</ele>
        <time>2021-07-28T10:58:01Z</time>
      </trkpt>
      <trkpt lat="49.29697" lon="6.02492">
        <ele>325.5</ele>
        <time>2021-07-28T10:58:03Z</time>
      </trkpt>
      <trkpt lat="49.29697" lon="6.02491">
        <ele>325.5</ele>
        <time>2021-07-28T10:58:05Z</time>
      </trkpt>
      <trkpt lat="49.29697" lon="6.02491">
        <ele>325.5</ele>
        <time>2021-07-28T10:58:07Z</time>
      </trkpt>
      <trkpt lat="49.29697" lon="6.02491">
        <ele>325.5</ele>
        <time>2021-07-28T10:58:09Z</time>
      </trkpt>
      <trkpt lat="49.29697" lon="6.02491">
        <ele>325.5</ele>
        <time>2021-07-28T10:58:11Z</time>
      </trkpt>
      <trkpt lat="49.29696" lon="6.02491">
        <ele>325.5</ele>
        <time>2021-07-28T10:58:12Z</time>
      </trkpt>
      <trkpt lat="49.29696" lon="6.02491">
        <ele>325.5</ele>
        <time>2021-07-28T10:58:13Z</time>
      </trkpt>
      <trkpt lat="49.29696" lon="6.02491">
        <ele>325.5</ele>
        <time>2021-07-28T10:58:15Z</time>
      </trkpt>
      <trkpt lat="49.29696" lon="6.02491">
        <ele>325.5</ele>
        <time>2021-07-28T10:58:17Z</time>
      </trkpt>
      <trkpt lat="49.29696" lon="6.02491">
        <ele>325.5</ele>
        <time>2021-07-28T10:58:18Z</time>
      </trkpt>
      <trkpt lat="49.29696" lon="6.02491">
        <ele>325.5</ele>
        <time>2021-07-28T10:58:19Z</time>
      </trkpt>
      <trkpt lat="49.29696" lon="6.02491">
        <ele>325.5</ele>
        <time>2021-07-28T10:58:21Z</time>
      </trkpt>
      <trkpt lat="49.29696" lon="6.02491">
        <ele>325.5</ele>
        <time>2021-07-28T10:58:23Z</time>
      </trkpt>
      <trkpt lat="49.29696" lon="6.02491">
        <ele>325.5</ele>
        <time>2021-07-28T10:58:24Z</time>
      </trkpt>
      <trkpt lat="49.29696" lon="6.02491">
        <ele>325.5</ele>
        <time>2021-07-28T10:58:25Z</time>
      </trkpt>
      <trkpt lat="49.29696" lon="6.02491">
        <ele>325.5</ele>
        <time>2021-07-28T10:58:27Z</time>
      </trkpt>
      <trkpt lat="49.29696" lon="6.02491">
        <ele>325.5</ele>
        <time>2021-07-28T10:58:29Z</time>
      </trkpt>
      <trkpt lat="49.29696" lon="6.02491">
        <ele>325.5</ele>
        <time>2021-07-28T10:58:30Z</time>
      </trkpt>
      <trkpt lat="49.29696" lon="6.02491">
        <ele>325.5</ele>
        <time>2021-07-28T10:58:31Z</time>
      </trkpt>
      <trkpt lat="49.29696" lon="6.02491">
        <ele>325.5</ele>
        <time>2021-07-28T10:58:33Z</time>
      </trkpt>
      <trkpt lat="49.29696" lon="6.02491">
        <ele>325.5</ele>
        <time>2021-07-28T10:58:35Z</time>
      </trkpt>
      <trkpt lat="49.29695" lon="6.02491">
        <ele>325.5</ele>
        <time>2021-07-28T10:58:36Z</time>
      </trkpt>
      <trkpt lat="49.29695" lon="6.02491">
        <ele>325.5</ele>
        <time>2021-07-28T10:58:37Z</time>
      </trkpt>
      <trkpt lat="49.29695" lon="6.02491">
        <ele>325.5</ele>
        <time>2021-07-28T10:58:39Z</time>
      </trkpt>
      <trkpt lat="49.29695" lon="6.02491">
        <ele>325.5</ele>
        <time>2021-07-28T10:58:41Z</time>
      </trkpt>
      <trkpt lat="49.29695" lon="6.0249">
        <ele>325.5</ele>
        <time>2021-07-28T10:58:42Z</time>
      </trkpt>
      <trkpt lat="49.29695" lon="6.0249">
        <ele>325.5</ele>
        <time>2021-07-28T10:58:43Z</time>
      </trkpt>
      <trkpt lat="49.29695" lon="6.0249">
        <ele>325.5</ele>
        <time>2021-07-28T10:58:45Z</time>
      </trkpt>
      <trkpt lat="49.29695" lon="6.0249">
        <ele>325.5</ele>
        <time>2021-07-28T10:58:47Z</time>
      </trkpt>
      <trkpt lat="49.29695" lon="6.0249">
        <ele>325.5</ele>
        <time>2021-07-28T10:58:48Z</time>
      </trkpt>
      <trkpt lat="49.29695" lon="6.0249">
        <ele>325.5</ele>
        <time>2021-07-28T10:58:49Z</time>
      </trkpt>
      <trkpt lat="49.29695" lon="6.0249">
        <ele>325.5</ele>
        <time>2021-07-28T10:58:51Z</time>
      </trkpt>
      <trkpt lat="49.29695" lon="6.0249">
        <ele>325.5</ele>
        <time>2021-07-28T10:58:52Z</time>
      </trkpt>
      <trkpt lat="49.29695" lon="6.0249">
        <ele>325.5</ele>
        <time>2021-07-28T10:58:53Z</time>
      </trkpt>
      <trkpt lat="49.29695" lon="6.0249">
        <ele>325.5</ele>
        <time>2021-07-28T10:58:55Z</time>
      </trkpt>
      <trkpt lat="49.29695" lon="6.0249">
        <ele>325.5</ele>
        <time>2021-07-28T10:58:57Z</time>
      </trkpt>
      <trkpt lat="49.29694" lon="6.0249">
        <ele>325.5</ele>
        <time>2021-07-28T10:58:58Z</time>
      </trkpt>
      <trkpt lat="49.29694" lon="6.0249">
        <ele>325.5</ele>
        <time>2021-07-28T10:58:59Z</time>
      </trkpt>
      <trkpt lat="49.29694" lon="6.0249">
        <ele>325.5</ele>
        <time>2021-07-28T10:59:01Z</time>
      </trkpt>
      <trkpt lat="49.29694" lon="6.0249">
        <ele>325.5</ele>
        <time>2021-07-28T10:59:03Z</time>
      </trkpt>
      <trkpt lat="49.29694" lon="6.0249">
        <ele>325.5</ele>
        <time>2021-07-28T10:59:04Z</time>
      </trkpt>
      <trkpt lat="49.29694" lon="6.0249">
        <ele>325.5</ele>
        <time>2021-07-28T10:59:05Z</time>
      </trkpt>
      <trkpt lat="49.29694" lon="6.0249">
        <ele>325.5</ele>
        <time>2021-07-28T10:59:06Z</time>
      </trkpt>
      <trkpt lat="49.29694" lon="6.0249">
        <ele>325.5</ele>
        <time>2021-07-28T10:59:08Z</time>
      </trkpt>
      <trkpt lat="49.29694" lon="6.0249">
        <ele>325.5</ele>
        <time>2021-07-28T10:59:10Z</time>
      </trkpt>
      <trkpt lat="49.29694" lon="6.0249">
        <ele>325.5</ele>
        <time>2021-07-28T10:59:11Z</time>
      </trkpt>
      <trkpt lat="49.29694" lon="6.0249">
        <ele>325.5</ele>
        <time>2021-07-28T10:59:12Z</time>
      </trkpt>
      <trkpt lat="49.29694" lon="6.0249">
        <ele>325.5</ele>
        <time>2021-07-28T10:59:13Z</time>
      </trkpt>
      <trkpt lat="49.29694" lon="6.02489">
        <ele>325.5</ele>
        <time>2021-07-28T10:59:15Z</time>
      </trkpt>
      <trkpt lat="49.29694" lon="6.02489">
        <ele>325.5</ele>
        <time>2021-07-28T10:59:16Z</time>
      </trkpt>
      <trkpt lat="49.2969" lon="6.02487">
        <ele>325.5</ele>
        <time>2021-07-28T10:59:17Z</time>
      </trkpt>
      <trkpt lat="49.29687" lon="6.02484">
        <ele>325.5</ele>
        <time>2021-07-28T10:59:18Z</time>
      </trkpt>
      <trkpt lat="49.29686" lon="6.02484">
        <ele>325.5</ele>
        <time>2021-07-28T10:59:19Z</time>
      </trkpt>
      <trkpt lat="49.2968" lon="6.02478">
        <ele>325.4</ele>
        <time>2021-07-28T10:59:21Z</time>
      </trkpt>
      <trkpt lat="49.29675" lon="6.02475">
        <ele>325.3</ele>
        <time>2021-07-28T10:59:22Z</time>
      </trkpt>
      <trkpt lat="49.29671" lon="6.02477">
        <ele>325.2</ele>
        <time>2021-07-28T10:59:23Z</time>
      </trkpt>
      <trkpt lat="49.29669" lon="6.0248">
        <ele>325.2</ele>
        <time>2021-07-28T10:59:25Z</time>
      </trkpt>
      <trkpt lat="49.29668" lon="6.02483">
        <ele>325.1</ele>
        <time>2021-07-28T10:59:27Z</time>
      </trkpt>
      <trkpt lat="49.29667" lon="6.02486">
        <ele>325.1</ele>
        <time>2021-07-28T10:59:29Z</time>
      </trkpt>
      <trkpt lat="49.29665" lon="6.02489">
        <ele>325</ele>
        <time>2021-07-28T10:59:31Z</time>
      </trkpt>
      <trkpt lat="49.29664" lon="6.02492">
        <ele>325</ele>
        <time>2021-07-28T10:59:32Z</time>
      </trkpt>
      <trkpt lat="49.29663" lon="6.02494">
        <ele>324.9</ele>
        <time>2021-07-28T10:59:34Z</time>
      </trkpt>
      <trkpt lat="49.29661" lon="6.02497">
        <ele>324.9</ele>
        <time>2021-07-28T11:01:46Z</time>
      </trkpt>
      <trkpt lat="49.2966" lon="6.025">
        <ele>324.8</ele>
        <time>2021-07-28T11:01:47Z</time>
      </trkpt>
      <trkpt lat="49.29656" lon="6.02498">
        <ele>324.7</ele>
        <time>2021-07-28T11:01:49Z</time>
      </trkpt>
      <trkpt lat="49.29655" lon="6.02498">
        <ele>324.7</ele>
        <time>2021-07-28T11:01:50Z</time>
      </trkpt>
      <trkpt lat="49.29653" lon="6.02497">
        <ele>324.7</ele>
        <time>2021-07-28T11:01:51Z</time>
      </trkpt>
      <trkpt lat="49.29653" lon="6.02497">
        <ele>324.6</ele>
        <time>2021-07-28T11:01:52Z</time>
      </trkpt>
      <trkpt lat="49.29652" lon="6.02497">
        <ele>324.6</ele>
        <time>2021-07-28T11:01:53Z</time>
      </trkpt>
      <trkpt lat="49.29651" lon="6.02496">
        <ele>324.6</ele>
        <time>2021-07-28T11:01:54Z</time>
      </trkpt>
      <trkpt lat="49.29647" lon="6.02494">
        <ele>324.5</ele>
        <time>2021-07-28T11:01:55Z</time>
      </trkpt>
      <trkpt lat="49.29643" lon="6.02491">
        <ele>324.3</ele>
        <time>2021-07-28T11:01:57Z</time>
      </trkpt>
      <trkpt lat="49.29638" lon="6.0249">
        <ele>324.2</ele>
        <time>2021-07-28T11:01:58Z</time>
      </trkpt>
      <trkpt lat="49.2963" lon="6.02489">
        <ele>323.9</ele>
        <time>2021-07-28T11:02:00Z</time>
      </trkpt>
      <trkpt lat="49.29627" lon="6.02489">
        <ele>323.8</ele>
        <time>2021-07-28T11:02:01Z</time>
      </trkpt>
      <trkpt lat="49.2961" lon="6.02488">
        <ele>323.2</ele>
        <time>2021-07-28T11:02:03Z</time>
      </trkpt>
      <trkpt lat="49.29606" lon="6.02487">
        <ele>323</ele>
        <time>2021-07-28T11:02:04Z</time>
      </trkpt>
      <trkpt lat="49.29603" lon="6.02487">
        <ele>322.8</ele>
        <time>2021-07-28T11:02:05Z</time>
      </trkpt>
      <trkpt lat="49.29591" lon="6.02479">
        <ele>322.3</ele>
        <time>2021-07-28T11:02:07Z</time>
      </trkpt>
      <trkpt lat="49.29583" lon="6.02473">
        <ele>321.8</ele>
        <time>2021-07-28T11:02:09Z</time>
      </trkpt>
      <trkpt lat="49.29572" lon="6.02463">
        <ele>321.1</ele>
        <time>2021-07-28T11:02:10Z</time>
      </trkpt>
      <trkpt lat="49.29478" lon="6.0242">
        <ele>317.2</ele>
        <time>2021-07-28T11:02:19Z</time>
      </trkpt>
      <trkpt lat="49.29467" lon="6.02415">
        <ele>316.9</ele>
        <time>2021-07-28T11:02:20Z</time>
      </trkpt>
      <trkpt lat="49.29458" lon="6.0241">
        <ele>316.6</ele>
        <time>2021-07-28T11:02:21Z</time>
      </trkpt>
      <trkpt lat="49.29452" lon="6.02408">
        <ele>316.5</ele>
        <time>2021-07-28T11:02:22Z</time>
      </trkpt>
      <trkpt lat="49.29452" lon="6.02407">
        <ele>316.5</ele>
        <time>2021-07-28T11:02:23Z</time>
      </trkpt>
      <trkpt lat="49.29451" lon="6.02404">
        <ele>316.4</ele>
        <time>2021-07-28T11:02:25Z</time>
      </trkpt>
      <trkpt lat="49.29448" lon="6.024">
        <ele>316.3</ele>
        <time>2021-07-28T11:02:26Z</time>
      </trkpt>
      <trkpt lat="49.2944" lon="6.02397">
        <ele>316.2</ele>
        <time>2021-07-28T11:02:28Z</time>
      </trkpt>
      <trkpt lat="49.29437" lon="6.02396">
        <ele>316.1</ele>
        <time>2021-07-28T11:02:29Z</time>
      </trkpt>
      <trkpt lat="49.29436" lon="6.02397">
        <ele>316.1</ele>
        <time>2021-07-28T11:02:30Z</time>
      </trkpt>
      <trkpt lat="49.29434" lon="6.02397">
        <ele>316</ele>
        <time>2021-07-28T11:02:32Z</time>
      </trkpt>
      <trkpt lat="49.29433" lon="6.02398">
        <ele>316</ele>
        <time>2021-07-28T11:02:33Z</time>
      </trkpt>
      <trkpt lat="49.29431" lon="6.02399">
        <ele>316</ele>
        <time>2021-07-28T11:02:34Z</time>
      </trkpt>
      <trkpt lat="49.29429" lon="6.02399">
        <ele>315.9</ele>
        <time>2021-07-28T11:02:36Z</time>
      </trkpt>
      <trkpt lat="49.29427" lon="6.02398">
        <ele>315.9</ele>
        <time>2021-07-28T11:02:37Z</time>
      </trkpt>
      <trkpt lat="49.29437" lon="6.0242">
        <ele>316.1</ele>
        <time>2021-07-28T11:02:39Z</time>
      </trkpt>
      <trkpt lat="49.29447" lon="6.02442">
        <ele>316.5</ele>
        <time>2021-07-28T11:03:32Z</time>
      </trkpt>
      <trkpt lat="49.29458" lon="6.02464">
        <ele>316.9</ele>
        <time>2021-07-28T11:03:33Z</time>
      </trkpt>
      <trkpt lat="49.29464" lon="6.02463">
        <ele>317.1</ele>
        <time>2021-07-28T11:03:34Z</time>
      </trkpt>
      <trkpt lat="49.29471" lon="6.02462">
        <ele>317.3</ele>
        <time>2021-07-28T11:03:35Z</time>
      </trkpt>
      <trkpt lat="49.29476" lon="6.02462">
        <ele>317.4</ele>
        <time>2021-07-28T11:03:36Z</time>
      </trkpt>
      <trkpt lat="49.29481" lon="6.02461">
        <ele>317.6</ele>
        <time>2021-07-28T11:03:37Z</time>
      </trkpt>
      <trkpt lat="49.29489" lon="6.02461">
        <ele>317.8</ele>
        <time>2021-07-28T11:03:38Z</time>
      </trkpt>
      <trkpt lat="49.29494" lon="6.02461">
        <ele>317.9</ele>
        <time>2021-07-28T11:03:39Z</time>
      </trkpt>
      <trkpt lat="49.29504" lon="6.0246">
        <ele>318.3</ele>
        <time>2021-07-28T11:03:41Z</time>
      </trkpt>
      <trkpt lat="49.2951" lon="6.02461">
        <ele>318.5</ele>
        <time>2021-07-28T11:03:42Z</time>
      </trkpt>
      <trkpt lat="49.29514" lon="6.02463">
        <ele>318.6</ele>
        <time>2021-07-28T11:03:44Z</time>
      </trkpt>
      <trkpt lat="49.29518" lon="6.02464">
        <ele>318.7</ele>
        <time>2021-07-28T11:03:45Z</time>
      </trkpt>
      <trkpt lat="49.29522" lon="6.02465">
        <ele>318.9</ele>
        <time>2021-07-28T11:03:46Z</time>
      </trkpt>
      <trkpt lat="49.29527" lon="6.02467">
        <ele>319.1</ele>
        <time>2021-07-28T11:03:48Z</time>
      </trkpt>
      <trkpt lat="49.2953" lon="6.02466">
        <ele>319.2</ele>
        <time>2021-07-28T11:03:49Z</time>
      </trkpt>
      <trkpt lat="49.29531" lon="6.02465">
        <ele>319.3</ele>
        <time>2021-07-28T11:03:50Z</time>
      </trkpt>
      <trkpt lat="49.29535" lon="6.02463">
        <ele>319.4</ele>
        <time>2021-07-28T11:03:52Z</time>
      </trkpt>
      <trkpt lat="49.29538" lon="6.02461">
        <ele>319.5</ele>
        <time>2021-07-28T11:03:53Z</time>
      </trkpt>
      <trkpt lat="49.29542" lon="6.02459">
        <ele>319.7</ele>
        <time>2021-07-28T11:03:54Z</time>
      </trkpt>
      <trkpt lat="49.29543" lon="6.02458">
        <ele>319.8</ele>
        <time>2021-07-28T11:03:55Z</time>
      </trkpt>
      <trkpt lat="49.29546" lon="6.02457">
        <ele>319.9</ele>
        <time>2021-07-28T11:03:57Z</time>
      </trkpt>
      <trkpt lat="49.29549" lon="6.02457">
        <ele>320</ele>
        <time>2021-07-28T11:03:58Z</time>
      </trkpt>
      <trkpt lat="49.29553" lon="6.02455">
        <ele>320.2</ele>
        <time>2021-07-28T11:03:59Z</time>
      </trkpt>
      <trkpt lat="49.29559" lon="6.02453">
        <ele>320.5</ele>
        <time>2021-07-28T11:04:01Z</time>
      </trkpt>
      <trkpt lat="49.29563" lon="6.02451">
        <ele>320.7</ele>
        <time>2021-07-28T11:04:02Z</time>
      </trkpt>
      <trkpt lat="49.29565" lon="6.02449">
        <ele>320.9</ele>
        <time>2021-07-28T11:04:03Z</time>
      </trkpt>
      <trkpt lat="49.2957" lon="6.02445">
        <ele>321.2</ele>
        <time>2021-07-28T11:04:05Z</time>
      </trkpt>
      <trkpt lat="49.29571" lon="6.02445">
        <ele>321.2</ele>
        <time>2021-07-28T11:04:06Z</time>
      </trkpt>
      <trkpt lat="49.29571" lon="6.02445">
        <ele>321.2</ele>
        <time>2021-07-28T11:04:07Z</time>
      </trkpt>
      <trkpt lat="49.29571" lon="6.02447">
        <ele>321.3</ele>
        <time>2021-07-28T11:04:09Z</time>
      </trkpt>
      <trkpt lat="49.29571" lon="6.02449">
        <ele>321.4</ele>
        <time>2021-07-28T11:04:10Z</time>
      </trkpt>
      <trkpt lat="49.29573" lon="6.02453">
        <ele>321.5</ele>
        <time>2021-07-28T11:04:11Z</time>
      </trkpt>
      <trkpt lat="49.29574" lon="6.02455">
        <ele>321.6</ele>
        <time>2021-07-28T11:04:12Z</time>
      </trkpt>
      <trkpt lat="49.29597" lon="6.02485">
        <ele>323</ele>
        <time>2021-07-28T11:04:26Z</time>
      </trkpt>
      <trkpt lat="49.29601" lon="6.02489">
        <ele>323.2</ele>
        <time>2021-07-28T11:04:27Z</time>
      </trkpt>
      <trkpt lat="49.29605" lon="6.02494">
        <ele>323.4</ele>
        <time>2021-07-28T11:04:29Z</time>
      </trkpt>
      <trkpt lat="49.2961" lon="6.02499">
        <ele>323.6</ele>
        <time>2021-07-28T11:04:30Z</time>
      </trkpt>
      <trkpt lat="49.29613" lon="6.02502">
        <ele>323.8</ele>
        <time>2021-07-28T11:04:31Z</time>
      </trkpt>
      <trkpt lat="49.29616" lon="6.02503">
        <ele>323.9</ele>
        <time>2021-07-28T11:04:32Z</time>
      </trkpt>
      <trkpt lat="49.29622" lon="6.02504">
        <ele>324.1</ele>
        <time>2021-07-28T11:04:34Z</time>
      </trkpt>
      <trkpt lat="49.29626" lon="6.02504">
        <ele>324.2</ele>
        <time>2021-07-28T11:04:35Z</time>
      </trkpt>
      <trkpt lat="49.29632" lon="6.02505">
        <ele>324.4</ele>
        <time>2021-07-28T11:04:37Z</time>
      </trkpt>
      <trkpt lat="49.29635" lon="6.02506">
        <ele>324.4</ele>
        <time>2021-07-28T11:04:38Z</time>
      </trkpt>
      <trkpt lat="49.2964" lon="6.02508">
        <ele>324.6</ele>
        <time>2021-07-28T11:04:40Z</time>
      </trkpt>
      <trkpt lat="49.29643" lon="6.02511">
        <ele>324.7</ele>
        <time>2021-07-28T11:04:41Z</time>
      </trkpt>
      <trkpt lat="49.29645" lon="6.02513">
        <ele>324.8</ele>
        <time>2021-07-28T11:04:42Z</time>
      </trkpt>
      <trkpt lat="49.29647" lon="6.02516">
        <ele>324.8</ele>
        <time>2021-07-28T11:04:43Z</time>
      </trkpt>
      <trkpt lat="49.29653" lon="6.02524">
        <ele>325</ele>
        <time>2021-07-28T11:04:45Z</time>
      </trkpt>
      <trkpt lat="49.29656" lon="6.02532">
        <ele>325.1</ele>
        <time>2021-07-28T11:04:47Z</time>
      </trkpt>
      <trkpt lat="49.29658" lon="6.02536">
        <ele>325.1</ele>
        <time>2021-07-28T11:04:49Z</time>
      </trkpt>
      <trkpt lat="49.2966" lon="6.02539">
        <ele>325.2</ele>
        <time>2021-07-28T11:04:50Z</time>
      </trkpt>
      <trkpt lat="49.29662" lon="6.02541">
        <ele>325.2</ele>
        <time>2021-07-28T11:04:51Z</time>
      </trkpt>
      <trkpt lat="49.29665" lon="6.02544">
        <ele>325.3</ele>
        <time>2021-07-28T11:04:53Z</time>
      </trkpt>
      <trkpt lat="49.29668" lon="6.02546">
        <ele>325.5</ele>
        <time>2021-07-28T11:04:55Z</time>
      </trkpt>
      <trkpt lat="49.29673" lon="6.02567">
        <ele>325.4</ele>
        <time>2021-07-28T11:05:07Z</time>
      </trkpt>
      <trkpt lat="49.2967" lon="6.02573">
        <ele>325.3</ele>
        <time>2021-07-28T11:05:09Z</time>
      </trkpt>
      <trkpt lat="49.2967" lon="6.02576">
        <ele>325.3</ele>
        <time>2021-07-28T11:05:10Z</time>
      </trkpt>
      <trkpt lat="49.29669" lon="6.02577">
        <ele>325.3</ele>
        <time>2021-07-28T11:05:11Z</time>
      </trkpt>
      <trkpt lat="49.29669" lon="6.02577">
        <ele>325.3</ele>
        <time>2021-07-28T11:05:12Z</time>
      </trkpt>
      <trkpt lat="49.29669" lon="6.02578">
        <ele>325.3</ele>
        <time>2021-07-28T11:05:14Z</time>
      </trkpt>
      <trkpt lat="49.29668" lon="6.02579">
        <ele>325.3</ele>
        <time>2021-07-28T11:05:15Z</time>
      </trkpt>
      <trkpt lat="49.29668" lon="6.02579">
        <ele>325.3</ele>
        <time>2021-07-28T11:05:16Z</time>
      </trkpt>
      <trkpt lat="49.29666" lon="6.0258">
        <ele>325.2</ele>
        <time>2021-07-28T11:05:17Z</time>
      </trkpt>
      <trkpt lat="49.29665" lon="6.02581">
        <ele>325.2</ele>
        <time>2021-07-28T11:05:18Z</time>
      </trkpt>
      <trkpt lat="49.29664" lon="6.02582">
        <ele>325.2</ele>
        <time>2021-07-28T11:05:19Z</time>
      </trkpt>
      <trkpt lat="49.29663" lon="6.02584">
        <ele>325.2</ele>
        <time>2021-07-28T11:05:20Z</time>
      </trkpt>
      <trkpt lat="49.29661" lon="6.02589">
        <ele>325.1</ele>
        <time>2021-07-28T11:05:22Z</time>
      </trkpt>
      <trkpt lat="49.29659" lon="6.02597">
        <ele>325</ele>
        <time>2021-07-28T11:05:24Z</time>
      </trkpt>
      <trkpt lat="49.29659" lon="6.026">
        <ele>325</ele>
        <time>2021-07-28T11:05:26Z</time>
      </trkpt>
      <trkpt lat="49.29659" lon="6.02601">
        <ele>324.9</ele>
        <time>2021-07-28T11:05:27Z</time>
      </trkpt>
      <trkpt lat="49.29658" lon="6.02614">
        <ele>324.8</ele>
        <time>2021-07-28T11:05:28Z</time>
      </trkpt>
      <trkpt lat="49.29658" lon="6.02633">
        <ele>324.6</ele>
        <time>2021-07-28T11:05:30Z</time>
      </trkpt>
      <trkpt lat="49.29658" lon="6.02638">
        <ele>324.5</ele>
        <time>2021-07-28T11:05:31Z</time>
      </trkpt>
      <trkpt lat="49.29656" lon="6.02648">
        <ele>324.4</ele>
        <time>2021-07-28T11:05:33Z</time>
      </trkpt>
      <trkpt lat="49.29652" lon="6.02656">
        <ele>324.3</ele>
        <time>2021-07-28T11:05:34Z</time>
      </trkpt>
      <trkpt lat="49.29646" lon="6.02664">
        <ele>324.1</ele>
        <time>2021-07-28T11:05:35Z</time>
      </trkpt>
      <trkpt lat="49.2964" lon="6.02675">
        <ele>324</ele>
        <time>2021-07-28T11:05:37Z</time>
      </trkpt>
      <trkpt lat="49.29634" lon="6.02685">
        <ele>323.8</ele>
        <time>2021-07-28T11:05:38Z</time>
      </trkpt>
      <trkpt lat="49.29625" lon="6.02694">
        <ele>323.7</ele>
        <time>2021-07-28T11:05:39Z</time>
      </trkpt>
      <trkpt lat="49.2962" lon="6.027">
        <ele>323.6</ele>
        <time>2021-07-28T11:05:40Z</time>
      </trkpt>
      <trkpt lat="49.2961" lon="6.0271">
        <ele>323.5</ele>
        <time>2021-07-28T11:05:42Z</time>
      </trkpt>
      <trkpt lat="49.29607" lon="6.02714">
        <ele>323.5</ele>
        <time>2021-07-28T11:05:43Z</time>
      </trkpt>
      <trkpt lat="49.29602" lon="6.02717">
        <ele>323.5</ele>
        <time>2021-07-28T11:05:45Z</time>
      </trkpt>
      <trkpt lat="49.29596" lon="6.0272">
        <ele>323.5</ele>
        <time>2021-07-28T11:05:46Z</time>
      </trkpt>
      <trkpt lat="49.29591" lon="6.02727">
        <ele>323.5</ele>
        <time>2021-07-28T11:05:47Z</time>
      </trkpt>
      <trkpt lat="49.29581" lon="6.02739">
        <ele>323.5</ele>
        <time>2021-07-28T11:05:49Z</time>
      </trkpt>
      <trkpt lat="49.29573" lon="6.02748">
        <ele>323.5</ele>
        <time>2021-07-28T11:05:51Z</time>
      </trkpt>
      <trkpt lat="49.29569" lon="6.02757">
        <ele>323.6</ele>
        <time>2021-07-28T11:05:53Z</time>
      </trkpt>
      <trkpt lat="49.29564" lon="6.02759">
        <ele>323.6</ele>
        <time>2021-07-28T11:05:54Z</time>
      </trkpt>
      <trkpt lat="49.29555" lon="6.0276">
        <ele>323.7</ele>
        <time>2021-07-28T11:05:55Z</time>
      </trkpt>
      <trkpt lat="49.29547" lon="6.02768">
        <ele>323.9</ele>
        <time>2021-07-28T11:05:57Z</time>
      </trkpt>
      <trkpt lat="49.29543" lon="6.02772">
        <ele>324</ele>
        <time>2021-07-28T11:05:58Z</time>
      </trkpt>
      <trkpt lat="49.29538" lon="6.02777">
        <ele>324.1</ele>
        <time>2021-07-28T11:05:59Z</time>
      </trkpt>
      <trkpt lat="49.29534" lon="6.02783">
        <ele>324.2</ele>
        <time>2021-07-28T11:06:01Z</time>
      </trkpt>
      <trkpt lat="49.2953" lon="6.02789">
        <ele>324.3</ele>
        <time>2021-07-28T11:06:02Z</time>
      </trkpt>
      <trkpt lat="49.29526" lon="6.02794">
        <ele>324.4</ele>
        <time>2021-07-28T11:06:03Z</time>
      </trkpt>
      <trkpt lat="49.29523" lon="6.02797">
        <ele>324.5</ele>
        <time>2021-07-28T11:06:04Z</time>
      </trkpt>
      <trkpt lat="49.29516" lon="6.02798">
        <ele>324.5</ele>
        <time>2021-07-28T11:06:06Z</time>
      </trkpt>
      <trkpt lat="49.29512" lon="6.02802">
        <ele>324.6</ele>
        <time>2021-07-28T11:06:07Z</time>
      </trkpt>
      <trkpt lat="49.29506" lon="6.02811">
        <ele>324.7</ele>
        <time>2021-07-28T11:06:08Z</time>
      </trkpt>
      <trkpt lat="49.295" lon="6.02817">
        <ele>324.7</ele>
        <time>2021-07-28T11:06:09Z</time>
      </trkpt>
      <trkpt lat="49.29495" lon="6.02823">
        <ele>324.8</ele>
        <time>2021-07-28T11:06:10Z</time>
      </trkpt>
      <trkpt lat="49.2949" lon="6.02828">
        <ele>324.9</ele>
        <time>2021-07-28T11:06:11Z</time>
      </trkpt>
      <trkpt lat="49.29482" lon="6.02838">
        <ele>325</ele>
        <time>2021-07-28T11:06:13Z</time>
      </trkpt>
      <trkpt lat="49.29481" lon="6.02839">
        <ele>325</ele>
        <time>2021-07-28T11:06:14Z</time>
      </trkpt>
      <trkpt lat="49.29476" lon="6.02852">
        <ele>325.1</ele>
        <time>2021-07-28T11:06:16Z</time>
      </trkpt>
      <trkpt lat="49.29473" lon="6.02856">
        <ele>325.2</ele>
        <time>2021-07-28T11:06:18Z</time>
      </trkpt>
      <trkpt lat="49.29472" lon="6.02859">
        <ele>325.2</ele>
        <time>2021-07-28T11:06:19Z</time>
      </trkpt>
      <trkpt lat="49.2947" lon="6.02863">
        <ele>325.2</ele>
        <time>2021-07-28T11:06:20Z</time>
      </trkpt>
      <trkpt lat="49.29468" lon="6.02868">
        <ele>325.3</ele>
        <time>2021-07-28T11:06:21Z</time>
      </trkpt>
      <trkpt lat="49.29465" lon="6.02874">
        <ele>325.3</ele>
        <time>2021-07-28T11:06:23Z</time>
      </trkpt>
      <trkpt lat="49.29462" lon="6.02879">
        <ele>325.3</ele>
        <time>2021-07-28T11:06:24Z</time>
      </trkpt>
      <trkpt lat="49.29459" lon="6.02884">
        <ele>325.4</ele>
        <time>2021-07-28T11:06:25Z</time>
      </trkpt>
      <trkpt lat="49.29458" lon="6.02886">
        <ele>325.4</ele>
        <time>2021-07-28T11:06:26Z</time>
      </trkpt>
      <trkpt lat="49.29458" lon="6.02888">
        <ele>325.4</ele>
        <time>2021-07-28T11:06:28Z</time>
      </trkpt>
      <trkpt lat="49.29432" lon="6.02975">
        <ele>325.4</ele>
        <time>2021-07-28T11:06:49Z</time>
      </trkpt>
      <trkpt lat="49.29428" lon="6.02982">
        <ele>325.3</ele>
        <time>2021-07-28T11:06:50Z</time>
      </trkpt>
      <trkpt lat="49.29423" lon="6.02988">
        <ele>325.3</ele>
        <time>2021-07-28T11:06:51Z</time>
      </trkpt>
      <trkpt lat="49.29415" lon="6.02999">
        <ele>325.2</ele>
        <time>2021-07-28T11:06:53Z</time>
      </trkpt>
      <trkpt lat="49.29409" lon="6.03005">
        <ele>325.2</ele>
        <time>2021-07-28T11:06:54Z</time>
      </trkpt>
      <trkpt lat="49.29403" lon="6.03011">
        <ele>325.2</ele>
        <time>2021-07-28T11:06:55Z</time>
      </trkpt>
      <trkpt lat="49.29399" lon="6.03015">
        <ele>325.2</ele>
        <time>2021-07-28T11:06:56Z</time>
      </trkpt>
      <trkpt lat="49.29393" lon="6.03017">
        <ele>325.2</ele>
        <time>2021-07-28T11:06:58Z</time>
      </trkpt>
      <trkpt lat="49.29388" lon="6.0302">
        <ele>325.3</ele>
        <time>2021-07-28T11:06:59Z</time>
      </trkpt>
      <trkpt lat="49.29386" lon="6.03023">
        <ele>325.3</ele>
        <time>2021-07-28T11:07:00Z</time>
      </trkpt>
      <trkpt lat="49.29382" lon="6.03029">
        <ele>325.4</ele>
        <time>2021-07-28T11:07:02Z</time>
      </trkpt>
      <trkpt lat="49.2938" lon="6.03033">
        <ele>325.4</ele>
        <time>2021-07-28T11:07:03Z</time>
      </trkpt>
      <trkpt lat="49.29379" lon="6.03036">
        <ele>325.4</ele>
        <time>2021-07-28T11:07:04Z</time>
      </trkpt>
      <trkpt lat="49.29379" lon="6.03038">
        <ele>325.5</ele>
        <time>2021-07-28T11:07:05Z</time>
      </trkpt>
      <trkpt lat="49.29355" lon="6.03095">
        <ele>326.3</ele>
        <time>2021-07-28T11:07:16Z</time>
      </trkpt>
      <trkpt lat="49.2935" lon="6.03101">
        <ele>326.4</ele>
        <time>2021-07-28T11:07:17Z</time>
      </trkpt>
      <trkpt lat="49.29344" lon="6.03108">
        <ele>326.5</ele>
        <time>2021-07-28T11:07:18Z</time>
      </trkpt>
      <trkpt lat="49.29337" lon="6.03117">
        <ele>326.7</ele>
        <time>2021-07-28T11:07:19Z</time>
      </trkpt>
      <trkpt lat="49.29332" lon="6.03124">
        <ele>326.7</ele>
        <time>2021-07-28T11:07:21Z</time>
      </trkpt>
      <trkpt lat="49.29328" lon="6.03132">
        <ele>326.8</ele>
        <time>2021-07-28T11:07:22Z</time>
      </trkpt>
      <trkpt lat="49.29324" lon="6.03139">
        <ele>326.8</ele>
        <time>2021-07-28T11:07:23Z</time>
      </trkpt>
      <trkpt lat="49.29318" lon="6.0315">
        <ele>326.8</ele>
        <time>2021-07-28T11:07:25Z</time>
      </trkpt>
      <trkpt lat="49.29314" lon="6.03156">
        <ele>326.8</ele>
        <time>2021-07-28T11:07:26Z</time>
      </trkpt>
      <trkpt lat="49.29308" lon="6.03167">
        <ele>326.8</ele>
        <time>2021-07-28T11:07:28Z</time>
      </trkpt>
      <trkpt lat="49.29303" lon="6.03179">
        <ele>326.7</ele>
        <time>2021-07-28T11:07:30Z</time>
      </trkpt>
      <trkpt lat="49.29301" lon="6.03185">
        <ele>326.7</ele>
        <time>2021-07-28T11:07:31Z</time>
      </trkpt>
      <trkpt lat="49.29298" lon="6.03198">
        <ele>326.5</ele>
        <time>2021-07-28T11:07:33Z</time>
      </trkpt>
      <trkpt lat="49.29296" lon="6.03211">
        <ele>326.4</ele>
        <time>2021-07-28T11:07:35Z</time>
      </trkpt>
      <trkpt lat="49.29293" lon="6.03218">
        <ele>326.3</ele>
        <time>2021-07-28T11:07:36Z</time>
      </trkpt>
      <trkpt lat="49.29289" lon="6.03225">
        <ele>326.2</ele>
        <time>2021-07-28T11:07:37Z</time>
      </trkpt>
      <trkpt lat="49.29282" lon="6.03238">
        <ele>325.9</ele>
        <time>2021-07-28T11:07:39Z</time>
      </trkpt>
      <trkpt lat="49.29273" lon="6.0325">
        <ele>325.6</ele>
        <time>2021-07-28T11:07:41Z</time>
      </trkpt>
      <trkpt lat="49.29269" lon="6.03263">
        <ele>325.2</ele>
        <time>2021-07-28T11:07:43Z</time>
      </trkpt>
      <trkpt lat="49.29262" lon="6.03277">
        <ele>324.8</ele>
        <time>2021-07-28T11:07:45Z</time>
      </trkpt>
      <trkpt lat="49.29253" lon="6.03292">
        <ele>324.4</ele>
        <time>2021-07-28T11:07:47Z</time>
      </trkpt>
      <trkpt lat="49.29244" lon="6.03306">
        <ele>323.9</ele>
        <time>2021-07-28T11:07:49Z</time>
      </trkpt>
      <trkpt lat="49.29235" lon="6.0332">
        <ele>323.6</ele>
        <time>2021-07-28T11:07:51Z</time>
      </trkpt>
      <trkpt lat="49.29232" lon="6.03328">
        <ele>323.5</ele>
        <time>2021-07-28T11:07:52Z</time>
      </trkpt>
      <trkpt lat="49.29227" lon="6.03347">
        <ele>323.3</ele>
        <time>2021-07-28T11:07:54Z</time>
      </trkpt>
      <trkpt lat="49.29224" lon="6.03357">
        <ele>323.2</ele>
        <time>2021-07-28T11:07:55Z</time>
      </trkpt>
      <trkpt lat="49.29218" lon="6.03375">
        <ele>323</ele>
        <time>2021-07-28T11:07:57Z</time>
      </trkpt>
      <trkpt lat="49.29211" lon="6.03389">
        <ele>322.8</ele>
        <time>2021-07-28T11:07:59Z</time>
      </trkpt>
      <trkpt lat="49.29206" lon="6.03396">
        <ele>322.7</ele>
        <time>2021-07-28T11:08:00Z</time>
      </trkpt>
      <trkpt lat="49.29201" lon="6.03403">
        <ele>322.7</ele>
        <time>2021-07-28T11:08:01Z</time>
      </trkpt>
      <trkpt lat="49.29189" lon="6.03414">
        <ele>322.6</ele>
        <time>2021-07-28T11:08:03Z</time>
      </trkpt>
      <trkpt lat="49.29182" lon="6.0342">
        <ele>322.6</ele>
        <time>2021-07-28T11:08:04Z</time>
      </trkpt>
      <trkpt lat="49.29175" lon="6.03425">
        <ele>322.6</ele>
        <time>2021-07-28T11:08:05Z</time>
      </trkpt>
      <trkpt lat="49.29162" lon="6.03437">
        <ele>322.7</ele>
        <time>2021-07-28T11:08:07Z</time>
      </trkpt>
      <trkpt lat="49.29153" lon="6.03447">
        <ele>323</ele>
        <time>2021-07-28T11:08:09Z</time>
      </trkpt>
      <trkpt lat="49.29149" lon="6.0345">
        <ele>323.1</ele>
        <time>2021-07-28T11:08:10Z</time>
      </trkpt>
      <trkpt lat="49.29145" lon="6.03452">
        <ele>323.3</ele>
        <time>2021-07-28T11:08:11Z</time>
      </trkpt>
      <trkpt lat="49.2914" lon="6.03455">
        <ele>323.5</ele>
        <time>2021-07-28T11:08:13Z</time>
      </trkpt>
      <trkpt lat="49.29137" lon="6.03456">
        <ele>323.6</ele>
        <time>2021-07-28T11:08:15Z</time>
      </trkpt>
      <trkpt lat="49.29134" lon="6.0346">
        <ele>323.7</ele>
        <time>2021-07-28T11:08:17Z</time>
      </trkpt>
      <trkpt lat="49.2913" lon="6.03464">
        <ele>324</ele>
        <time>2021-07-28T11:08:18Z</time>
      </trkpt>
      <trkpt lat="49.29126" lon="6.03467">
        <ele>324.2</ele>
        <time>2021-07-28T11:08:19Z</time>
      </trkpt>
      <trkpt lat="49.29123" lon="6.03471">
        <ele>324.3</ele>
        <time>2021-07-28T11:08:21Z</time>
      </trkpt>
      <trkpt lat="49.29119" lon="6.03474">
        <ele>324.5</ele>
        <time>2021-07-28T11:08:22Z</time>
      </trkpt>
      <trkpt lat="49.29117" lon="6.03477">
        <ele>324.7</ele>
        <time>2021-07-28T11:08:23Z</time>
      </trkpt>
      <trkpt lat="49.29114" lon="6.03482">
        <ele>324.9</ele>
        <time>2021-07-28T11:08:24Z</time>
      </trkpt>
      <trkpt lat="49.29113" lon="6.03483">
        <ele>324.9</ele>
        <time>2021-07-28T11:08:25Z</time>
      </trkpt>
      <trkpt lat="49.29109" lon="6.03489">
        <ele>325.2</ele>
        <time>2021-07-28T11:08:28Z</time>
      </trkpt>
      <trkpt lat="49.2908" lon="6.03587">
        <ele>327.5</ele>
        <time>2021-07-28T11:08:48Z</time>
      </trkpt>
      <trkpt lat="49.2908" lon="6.03593">
        <ele>327.6</ele>
        <time>2021-07-28T11:08:50Z</time>
      </trkpt>
      <trkpt lat="49.29079" lon="6.036">
        <ele>327.7</ele>
        <time>2021-07-28T11:08:51Z</time>
      </trkpt>
      <trkpt lat="49.29077" lon="6.03604">
        <ele>327.7</ele>
        <time>2021-07-28T11:08:52Z</time>
      </trkpt>
      <trkpt lat="49.29076" lon="6.03607">
        <ele>327.8</ele>
        <time>2021-07-28T11:08:53Z</time>
      </trkpt>
      <trkpt lat="49.29071" lon="6.03613">
        <ele>327.9</ele>
        <time>2021-07-28T11:08:54Z</time>
      </trkpt>
      <trkpt lat="49.29067" lon="6.03618">
        <ele>327.9</ele>
        <time>2021-07-28T11:08:56Z</time>
      </trkpt>
      <trkpt lat="49.29063" lon="6.03621">
        <ele>328</ele>
        <time>2021-07-28T11:08:57Z</time>
      </trkpt>
      <trkpt lat="49.29059" lon="6.03626">
        <ele>328</ele>
        <time>2021-07-28T11:08:58Z</time>
      </trkpt>
      <trkpt lat="49.29057" lon="6.0363">
        <ele>328</ele>
        <time>2021-07-28T11:08:59Z</time>
      </trkpt>
      <trkpt lat="49.29057" lon="6.03632">
        <ele>328</ele>
        <time>2021-07-28T11:09:00Z</time>
      </trkpt>
      <trkpt lat="49.29056" lon="6.03642">
        <ele>328.1</ele>
        <time>2021-07-28T11:09:02Z</time>
      </trkpt>
      <trkpt lat="49.29056" lon="6.03649">
        <ele>328.1</ele>
        <time>2021-07-28T11:09:03Z</time>
      </trkpt>
      <trkpt lat="49.29054" lon="6.03651">
        <ele>328.1</ele>
        <time>2021-07-28T11:09:04Z</time>
      </trkpt>
      <trkpt lat="49.29052" lon="6.0366">
        <ele>328.1</ele>
        <time>2021-07-28T11:09:06Z</time>
      </trkpt>
      <trkpt lat="49.2905" lon="6.03665">
        <ele>328</ele>
        <time>2021-07-28T11:09:07Z</time>
      </trkpt>
      <trkpt lat="49.2905" lon="6.03671">
        <ele>328</ele>
        <time>2021-07-28T11:09:08Z</time>
      </trkpt>
      <trkpt lat="49.29047" lon="6.03676">
        <ele>328</ele>
        <time>2021-07-28T11:09:10Z</time>
      </trkpt>
      <trkpt lat="49.29045" lon="6.0368">
        <ele>328</ele>
        <time>2021-07-28T11:09:11Z</time>
      </trkpt>
      <trkpt lat="49.29043" lon="6.03684">
        <ele>328</ele>
        <time>2021-07-28T11:09:12Z</time>
      </trkpt>
      <trkpt lat="49.29042" lon="6.03688">
        <ele>328</ele>
        <time>2021-07-28T11:09:13Z</time>
      </trkpt>
      <trkpt lat="49.29038" lon="6.03693">
        <ele>327.9</ele>
        <time>2021-07-28T11:09:15Z</time>
      </trkpt>
      <trkpt lat="49.29036" lon="6.03697">
        <ele>327.9</ele>
        <time>2021-07-28T11:09:16Z</time>
      </trkpt>
      <trkpt lat="49.29032" lon="6.03702">
        <ele>327.8</ele>
        <time>2021-07-28T11:09:18Z</time>
      </trkpt>
      <trkpt lat="49.29031" lon="6.03707">
        <ele>327.8</ele>
        <time>2021-07-28T11:09:19Z</time>
      </trkpt>
      <trkpt lat="49.29032" lon="6.03708">
        <ele>327.8</ele>
        <time>2021-07-28T11:09:20Z</time>
      </trkpt>
      <trkpt lat="49.29033" lon="6.03717">
        <ele>327.7</ele>
        <time>2021-07-28T11:09:22Z</time>
      </trkpt>
      <trkpt lat="49.29034" lon="6.03725">
        <ele>327.6</ele>
        <time>2021-07-28T11:09:24Z</time>
      </trkpt>
      <trkpt lat="49.29034" lon="6.03733">
        <ele>327.5</ele>
        <time>2021-07-28T11:09:25Z</time>
      </trkpt>
      <trkpt lat="49.29032" lon="6.03741">
        <ele>327.5</ele>
        <time>2021-07-28T11:09:27Z</time>
      </trkpt>
      <trkpt lat="49.29031" lon="6.03745">
        <ele>327.4</ele>
        <time>2021-07-28T11:09:28Z</time>
      </trkpt>
      <trkpt lat="49.29028" lon="6.03751">
        <ele>327.3</ele>
        <time>2021-07-28T11:09:29Z</time>
      </trkpt>
      <trkpt lat="49.29025" lon="6.03757">
        <ele>327.3</ele>
        <time>2021-07-28T11:09:30Z</time>
      </trkpt>
      <trkpt lat="49.29022" lon="6.03763">
        <ele>327.2</ele>
        <time>2021-07-28T11:09:31Z</time>
      </trkpt>
      <trkpt lat="49.29017" lon="6.03773">
        <ele>327.1</ele>
        <time>2021-07-28T11:09:33Z</time>
      </trkpt>
      <trkpt lat="49.29015" lon="6.03779">
        <ele>327</ele>
        <time>2021-07-28T11:09:34Z</time>
      </trkpt>
      <trkpt lat="49.29013" lon="6.03785">
        <ele>327</ele>
        <time>2021-07-28T11:09:35Z</time>
      </trkpt>
      <trkpt lat="49.29012" lon="6.03791">
        <ele>326.9</ele>
        <time>2021-07-28T11:09:36Z</time>
      </trkpt>
      <trkpt lat="49.29012" lon="6.03796">
        <ele>326.9</ele>
        <time>2021-07-28T11:09:37Z</time>
      </trkpt>
      <trkpt lat="49.29012" lon="6.03804">
        <ele>326.8</ele>
        <time>2021-07-28T11:09:39Z</time>
      </trkpt>
      <trkpt lat="49.29011" lon="6.03805">
        <ele>326.8</ele>
        <time>2021-07-28T11:09:40Z</time>
      </trkpt>
      <trkpt lat="49.29009" lon="6.03807">
        <ele>326.8</ele>
        <time>2021-07-28T11:09:41Z</time>
      </trkpt>
      <trkpt lat="49.29005" lon="6.03809">
        <ele>326.7</ele>
        <time>2021-07-28T11:09:43Z</time>
      </trkpt>
      <trkpt lat="49.29001" lon="6.03819">
        <ele>326.7</ele>
        <time>2021-07-28T11:09:44Z</time>
      </trkpt>
      <trkpt lat="49.29" lon="6.03826">
        <ele>326.7</ele>
        <time>2021-07-28T11:09:45Z</time>
      </trkpt>
      <trkpt lat="49.28998" lon="6.03837">
        <ele>326.6</ele>
        <time>2021-07-28T11:09:46Z</time>
      </trkpt>
      <trkpt lat="49.28996" lon="6.03847">
        <ele>326.6</ele>
        <time>2021-07-28T11:09:48Z</time>
      </trkpt>
      <trkpt lat="49.28992" lon="6.03854">
        <ele>326.6</ele>
        <time>2021-07-28T11:09:49Z</time>
      </trkpt>
      <trkpt lat="49.28987" lon="6.03862">
        <ele>326.6</ele>
        <time>2021-07-28T11:09:51Z</time>
      </trkpt>
      <trkpt lat="49.28984" lon="6.03869">
        <ele>326.6</ele>
        <time>2021-07-28T11:09:52Z</time>
      </trkpt>
      <trkpt lat="49.28981" lon="6.03875">
        <ele>326.6</ele>
        <time>2021-07-28T11:09:53Z</time>
      </trkpt>
      <trkpt lat="49.28979" lon="6.03879">
        <ele>326.7</ele>
        <time>2021-07-28T11:09:54Z</time>
      </trkpt>
      <trkpt lat="49.28976" lon="6.03884">
        <ele>326.7</ele>
        <time>2021-07-28T11:09:55Z</time>
      </trkpt>
      <trkpt lat="49.28973" lon="6.03888">
        <ele>326.7</ele>
        <time>2021-07-28T11:09:56Z</time>
      </trkpt>
      <trkpt lat="49.2897" lon="6.0389">
        <ele>326.8</ele>
        <time>2021-07-28T11:09:57Z</time>
      </trkpt>
      <trkpt lat="49.28965" lon="6.03893">
        <ele>326.9</ele>
        <time>2021-07-28T11:09:58Z</time>
      </trkpt>
      <trkpt lat="49.28961" lon="6.03896">
        <ele>326.9</ele>
        <time>2021-07-28T11:10:00Z</time>
      </trkpt>
      <trkpt lat="49.28957" lon="6.03899">
        <ele>327</ele>
        <time>2021-07-28T11:10:01Z</time>
      </trkpt>
      <trkpt lat="49.28953" lon="6.03903">
        <ele>327.1</ele>
        <time>2021-07-28T11:10:02Z</time>
      </trkpt>
      <trkpt lat="49.28949" lon="6.03907">
        <ele>327.2</ele>
        <time>2021-07-28T11:10:03Z</time>
      </trkpt>
      <trkpt lat="49.28945" lon="6.0391">
        <ele>327.3</ele>
        <time>2021-07-28T11:10:04Z</time>
      </trkpt>
      <trkpt lat="49.28942" lon="6.03913">
        <ele>327.4</ele>
        <time>2021-07-28T11:10:05Z</time>
      </trkpt>
      <trkpt lat="49.28936" lon="6.03915">
        <ele>327.5</ele>
        <time>2021-07-28T11:10:06Z</time>
      </trkpt>
      <trkpt lat="49.28931" lon="6.03917">
        <ele>327.6</ele>
        <time>2021-07-28T11:10:07Z</time>
      </trkpt>
      <trkpt lat="49.28926" lon="6.03918">
        <ele>327.7</ele>
        <time>2021-07-28T11:10:09Z</time>
      </trkpt>
      <trkpt lat="49.28923" lon="6.03917">
        <ele>327.8</ele>
        <time>2021-07-28T11:10:10Z</time>
      </trkpt>
      <trkpt lat="49.28918" lon="6.03917">
        <ele>327.9</ele>
        <time>2021-07-28T11:10:11Z</time>
      </trkpt>
      <trkpt lat="49.28914" lon="6.03917">
        <ele>327.9</ele>
        <time>2021-07-28T11:10:12Z</time>
      </trkpt>
      <trkpt lat="49.28912" lon="6.03917">
        <ele>328</ele>
        <time>2021-07-28T11:10:13Z</time>
      </trkpt>
      <trkpt lat="49.28908" lon="6.03919">
        <ele>328.1</ele>
        <time>2021-07-28T11:10:15Z</time>
      </trkpt>
      <trkpt lat="49.28906" lon="6.0392">
        <ele>328.1</ele>
        <time>2021-07-28T11:10:16Z</time>
      </trkpt>
      <trkpt lat="49.28903" lon="6.03925">
        <ele>328.2</ele>
        <time>2021-07-28T11:10:18Z</time>
      </trkpt>
      <trkpt lat="49.28893" lon="6.03953">
        <ele>328.6</ele>
        <time>2021-07-28T11:10:19Z</time>
      </trkpt>
      <trkpt lat="49.28885" lon="6.03978">
        <ele>328.9</ele>
        <time>2021-07-28T11:10:21Z</time>
      </trkpt>
      <trkpt lat="49.28876" lon="6.04004">
        <ele>329</ele>
        <time>2021-07-28T11:11:00Z</time>
      </trkpt>
      <trkpt lat="49.28868" lon="6.04029">
        <ele>328.7</ele>
        <time>2021-07-28T11:11:01Z</time>
      </trkpt>
      <trkpt lat="49.28859" lon="6.04055">
        <ele>328.3</ele>
        <time>2021-07-28T11:11:03Z</time>
      </trkpt>
      <trkpt lat="49.28855" lon="6.04064">
        <ele>328.2</ele>
        <time>2021-07-28T11:11:04Z</time>
      </trkpt>
      <trkpt lat="49.28851" lon="6.04072">
        <ele>328</ele>
        <time>2021-07-28T11:11:05Z</time>
      </trkpt>
      <trkpt lat="49.28845" lon="6.04087">
        <ele>327.7</ele>
        <time>2021-07-28T11:11:07Z</time>
      </trkpt>
      <trkpt lat="49.28839" lon="6.04101">
        <ele>327.4</ele>
        <time>2021-07-28T11:11:09Z</time>
      </trkpt>
      <trkpt lat="49.28833" lon="6.04108">
        <ele>327.1</ele>
        <time>2021-07-28T11:11:10Z</time>
      </trkpt>
      <trkpt lat="49.28818" lon="6.0412">
        <ele>326.6</ele>
        <time>2021-07-28T11:11:12Z</time>
      </trkpt>
      <trkpt lat="49.28811" lon="6.04127">
        <ele>326.3</ele>
        <time>2021-07-28T11:11:13Z</time>
      </trkpt>
      <trkpt lat="49.288" lon="6.04143">
        <ele>325.9</ele>
        <time>2021-07-28T11:11:15Z</time>
      </trkpt>
      <trkpt lat="49.28795" lon="6.04151">
        <ele>325.7</ele>
        <time>2021-07-28T11:11:16Z</time>
      </trkpt>
      <trkpt lat="49.28789" lon="6.04159">
        <ele>325.5</ele>
        <time>2021-07-28T11:11:17Z</time>
      </trkpt>
      <trkpt lat="49.2878" lon="6.04176">
        <ele>325.2</ele>
        <time>2021-07-28T11:11:19Z</time>
      </trkpt>
      <trkpt lat="49.28776" lon="6.04193">
        <ele>324.9</ele>
        <time>2021-07-28T11:11:21Z</time>
      </trkpt>
      <trkpt lat="49.28774" lon="6.04202">
        <ele>324.8</ele>
        <time>2021-07-28T11:11:22Z</time>
      </trkpt>
      <trkpt lat="49.28771" lon="6.0421">
        <ele>324.6</ele>
        <time>2021-07-28T11:11:23Z</time>
      </trkpt>
      <trkpt lat="49.28764" lon="6.0422">
        <ele>324.3</ele>
        <time>2021-07-28T11:11:25Z</time>
      </trkpt>
      <trkpt lat="49.28754" lon="6.04232">
        <ele>323.9</ele>
        <time>2021-07-28T11:11:27Z</time>
      </trkpt>
      <trkpt lat="49.28747" lon="6.04241">
        <ele>323.6</ele>
        <time>2021-07-28T11:11:28Z</time>
      </trkpt>
      <trkpt lat="49.28742" lon="6.0425">
        <ele>323.3</ele>
        <time>2021-07-28T11:11:29Z</time>
      </trkpt>
      <trkpt lat="49.28737" lon="6.04268">
        <ele>322.9</ele>
        <time>2021-07-28T11:11:31Z</time>
      </trkpt>
      <trkpt lat="49.28739" lon="6.04288">
        <ele>322.5</ele>
        <time>2021-07-28T11:11:33Z</time>
      </trkpt>
      <trkpt lat="49.28739" lon="6.04298">
        <ele>322.2</ele>
        <time>2021-07-28T11:11:34Z</time>
      </trkpt>
      <trkpt lat="49.28737" lon="6.04308">
        <ele>322.1</ele>
        <time>2021-07-28T11:11:35Z</time>
      </trkpt>
      <trkpt lat="49.28733" lon="6.04318">
        <ele>321.9</ele>
        <time>2021-07-28T11:11:36Z</time>
      </trkpt>
      <trkpt lat="49.28728" lon="6.04327">
        <ele>321.7</ele>
        <time>2021-07-28T11:11:37Z</time>
      </trkpt>
      <trkpt lat="49.28723" lon="6.04334">
        <ele>321.7</ele>
        <time>2021-07-28T11:11:38Z</time>
      </trkpt>
      <trkpt lat="49.28719" lon="6.04349">
        <ele>321.6</ele>
        <time>2021-07-28T11:11:40Z</time>
      </trkpt>
      <trkpt lat="49.28713" lon="6.04362">
        <ele>321.7</ele>
        <time>2021-07-28T11:11:42Z</time>
      </trkpt>
      <trkpt lat="49.28711" lon="6.04368">
        <ele>321.7</ele>
        <time>2021-07-28T11:11:43Z</time>
      </trkpt>
      <trkpt lat="49.28706" lon="6.04382">
        <ele>321.8</ele>
        <time>2021-07-28T11:11:45Z</time>
      </trkpt>
      <trkpt lat="49.28703" lon="6.04389">
        <ele>321.9</ele>
        <time>2021-07-28T11:11:46Z</time>
      </trkpt>
      <trkpt lat="49.28701" lon="6.04397">
        <ele>322</ele>
        <time>2021-07-28T11:11:47Z</time>
      </trkpt>
      <trkpt lat="49.28698" lon="6.04404">
        <ele>322.1</ele>
        <time>2021-07-28T11:11:48Z</time>
      </trkpt>
      <trkpt lat="49.28697" lon="6.04411">
        <ele>322.2</ele>
        <time>2021-07-28T11:11:50Z</time>
      </trkpt>
      <trkpt lat="49.28695" lon="6.04422">
        <ele>322.3</ele>
        <time>2021-07-28T11:11:51Z</time>
      </trkpt>
      <trkpt lat="49.28698" lon="6.04426">
        <ele>322.3</ele>
        <time>2021-07-28T11:11:52Z</time>
      </trkpt>
      <trkpt lat="49.28701" lon="6.04428">
        <ele>322.4</ele>
        <time>2021-07-28T11:11:53Z</time>
      </trkpt>
      <trkpt lat="49.28702" lon="6.0443">
        <ele>322.4</ele>
        <time>2021-07-28T11:11:54Z</time>
      </trkpt>
      <trkpt lat="49.28701" lon="6.04432">
        <ele>322.5</ele>
        <time>2021-07-28T11:11:55Z</time>
      </trkpt>
      <trkpt lat="49.287" lon="6.04434">
        <ele>322.5</ele>
        <time>2021-07-28T11:11:57Z</time>
      </trkpt>
      <trkpt lat="49.28699" lon="6.04436">
        <ele>322.5</ele>
        <time>2021-07-28T11:11:58Z</time>
      </trkpt>
      <trkpt lat="49.28695" lon="6.0444">
        <ele>322.6</ele>
        <time>2021-07-28T11:11:59Z</time>
      </trkpt>
      <trkpt lat="49.28679" lon="6.04448">
        <ele>322.7</ele>
        <time>2021-07-28T11:12:01Z</time>
      </trkpt>
      <trkpt lat="49.28659" lon="6.04454">
        <ele>322.7</ele>
        <time>2021-07-28T11:12:03Z</time>
      </trkpt>
      <trkpt lat="49.28649" lon="6.04456">
        <ele>322.5</ele>
        <time>2021-07-28T11:12:04Z</time>
      </trkpt>
      <trkpt lat="49.28635" lon="6.04462">
        <ele>322.3</ele>
        <time>2021-07-28T11:12:06Z</time>
      </trkpt>
      <trkpt lat="49.28628" lon="6.04465">
        <ele>322.2</ele>
        <time>2021-07-28T11:12:07Z</time>
      </trkpt>
      <trkpt lat="49.28612" lon="6.04471">
        <ele>322</ele>
        <time>2021-07-28T11:12:09Z</time>
      </trkpt>
      <trkpt lat="49.28603" lon="6.04475">
        <ele>322</ele>
        <time>2021-07-28T11:12:10Z</time>
      </trkpt>
      <trkpt lat="49.28597" lon="6.04479">
        <ele>322</ele>
        <time>2021-07-28T11:12:11Z</time>
      </trkpt>
      <trkpt lat="49.28592" lon="6.04485">
        <ele>322</ele>
        <time>2021-07-28T11:12:12Z</time>
      </trkpt>
      <trkpt lat="49.28588" lon="6.04491">
        <ele>322</ele>
        <time>2021-07-28T11:12:13Z</time>
      </trkpt>
      <trkpt lat="49.28579" lon="6.04502">
        <ele>322.2</ele>
        <time>2021-07-28T11:12:15Z</time>
      </trkpt>
      <trkpt lat="49.28574" lon="6.04508">
        <ele>322.2</ele>
        <time>2021-07-28T11:12:16Z</time>
      </trkpt>
      <trkpt lat="49.2857" lon="6.04514">
        <ele>322.4</ele>
        <time>2021-07-28T11:12:17Z</time>
      </trkpt>
      <trkpt lat="49.28568" lon="6.0452">
        <ele>322.4</ele>
        <time>2021-07-28T11:12:18Z</time>
      </trkpt>
      <trkpt lat="49.28567" lon="6.04524">
        <ele>322.5</ele>
        <time>2021-07-28T11:12:19Z</time>
      </trkpt>
      <trkpt lat="49.28564" lon="6.04535">
        <ele>322.8</ele>
        <time>2021-07-28T11:12:21Z</time>
      </trkpt>
      <trkpt lat="49.28563" lon="6.0454">
        <ele>322.9</ele>
        <time>2021-07-28T11:12:22Z</time>
      </trkpt>
      <trkpt lat="49.28559" lon="6.04551">
        <ele>323.2</ele>
        <time>2021-07-28T11:12:24Z</time>
      </trkpt>
      <trkpt lat="49.28559" lon="6.04552">
        <ele>323.2</ele>
        <time>2021-07-28T11:12:25Z</time>
      </trkpt>
      <trkpt lat="49.28559" lon="6.04554">
        <ele>323.3</ele>
        <time>2021-07-28T11:12:27Z</time>
      </trkpt>
      <trkpt lat="49.28559" lon="6.04557">
        <ele>323.3</ele>
        <time>2021-07-28T11:12:28Z</time>
      </trkpt>
      <trkpt lat="49.28558" lon="6.0456">
        <ele>323.4</ele>
        <time>2021-07-28T11:12:29Z</time>
      </trkpt>
      <trkpt lat="49.28556" lon="6.04565">
        <ele>323.6</ele>
        <time>2021-07-28T11:12:31Z</time>
      </trkpt>
      <trkpt lat="49.28555" lon="6.04569">
        <ele>323.7</ele>
        <time>2021-07-28T11:12:32Z</time>
      </trkpt>
      <trkpt lat="49.28553" lon="6.04575">
        <ele>323.9</ele>
        <time>2021-07-28T11:12:33Z</time>
      </trkpt>
      <trkpt lat="49.28547" lon="6.04585">
        <ele>324.2</ele>
        <time>2021-07-28T11:12:35Z</time>
      </trkpt>
      <trkpt lat="49.28543" lon="6.04589">
        <ele>324.4</ele>
        <time>2021-07-28T11:12:36Z</time>
      </trkpt>
      <trkpt lat="49.28537" lon="6.04594">
        <ele>324.7</ele>
        <time>2021-07-28T11:12:37Z</time>
      </trkpt>
      <trkpt lat="49.28534" lon="6.04595">
        <ele>324.8</ele>
        <time>2021-07-28T11:12:39Z</time>
      </trkpt>
      <trkpt lat="49.2852" lon="6.046">
        <ele>325.3</ele>
        <time>2021-07-28T11:12:40Z</time>
      </trkpt>
      <trkpt lat="49.28516" lon="6.04601">
        <ele>325.4</ele>
        <time>2021-07-28T11:12:42Z</time>
      </trkpt>
      <trkpt lat="49.28514" lon="6.04602">
        <ele>325.5</ele>
        <time>2021-07-28T11:12:43Z</time>
      </trkpt>
      <trkpt lat="49.2851" lon="6.04603">
        <ele>325.6</ele>
        <time>2021-07-28T11:12:44Z</time>
      </trkpt>
      <trkpt lat="49.28507" lon="6.04603">
        <ele>325.7</ele>
        <time>2021-07-28T11:12:45Z</time>
      </trkpt>
      <trkpt lat="49.28505" lon="6.04604">
        <ele>325.8</ele>
        <time>2021-07-28T11:12:47Z</time>
      </trkpt>
      <trkpt lat="49.28425" lon="6.04788">
        <ele>326.1</ele>
        <time>2021-07-28T11:14:22Z</time>
      </trkpt>
      <trkpt lat="49.2842" lon="6.04788">
        <ele>326.1</ele>
        <time>2021-07-28T11:14:23Z</time>
      </trkpt>
      <trkpt lat="49.28414" lon="6.04787">
        <ele>326.1</ele>
        <time>2021-07-28T11:14:25Z</time>
      </trkpt>
      <trkpt lat="49.28403" lon="6.0478">
        <ele>326</ele>
        <time>2021-07-28T11:14:27Z</time>
      </trkpt>
      <trkpt lat="49.28356" lon="6.04756">
        <ele>326.1</ele>
        <time>2021-07-28T11:14:28Z</time>
      </trkpt>
      <trkpt lat="49.28341" lon="6.04749">
        <ele>326.1</ele>
        <time>2021-07-28T11:14:29Z</time>
      </trkpt>
      <trkpt lat="49.28327" lon="6.04742">
        <ele>326.1</ele>
        <time>2021-07-28T11:14:30Z</time>
      </trkpt>
      <trkpt lat="49.28315" lon="6.04737">
        <ele>326.1</ele>
        <time>2021-07-28T11:14:31Z</time>
      </trkpt>
      <trkpt lat="49.28297" lon="6.04731">
        <ele>326.1</ele>
        <time>2021-07-28T11:14:33Z</time>
      </trkpt>
      <trkpt lat="49.28331" lon="6.04723">
        <ele>326.1</ele>
        <time>2021-07-28T11:15:41Z</time>
      </trkpt>
      <trkpt lat="49.28342" lon="6.04723">
        <ele>326.1</ele>
        <time>2021-07-28T11:15:43Z</time>
      </trkpt>
      <trkpt lat="49.28352" lon="6.04725">
        <ele>326.1</ele>
        <time>2021-07-28T11:15:45Z</time>
      </trkpt>
      <trkpt lat="49.28355" lon="6.04726">
        <ele>326.1</ele>
        <time>2021-07-28T11:15:46Z</time>
      </trkpt>
      <trkpt lat="49.28358" lon="6.04728">
        <ele>326.1</ele>
        <time>2021-07-28T11:15:47Z</time>
      </trkpt>
      <trkpt lat="49.28359" lon="6.04729">
        <ele>326.1</ele>
        <time>2021-07-28T11:15:48Z</time>
      </trkpt>
      <trkpt lat="49.28363" lon="6.04736">
        <ele>326.1</ele>
        <time>2021-07-28T11:15:50Z</time>
      </trkpt>
      <trkpt lat="49.28366" lon="6.0474">
        <ele>326.1</ele>
        <time>2021-07-28T11:15:51Z</time>
      </trkpt>
      <trkpt lat="49.28369" lon="6.04745">
        <ele>326</ele>
        <time>2021-07-28T11:15:52Z</time>
      </trkpt>
      <trkpt lat="49.28374" lon="6.04753">
        <ele>326</ele>
        <time>2021-07-28T11:15:54Z</time>
      </trkpt>
      <trkpt lat="49.2838" lon="6.0476">
        <ele>326</ele>
        <time>2021-07-28T11:15:55Z</time>
      </trkpt>
      <trkpt lat="49.28389" lon="6.04768">
        <ele>326</ele>
        <time>2021-07-28T11:15:57Z</time>
      </trkpt>
      <trkpt lat="49.28389" lon="6.04768">
        <ele>326</ele>
        <time>2021-07-28T11:15:57Z</time>
      </trkpt>
      <trkpt lat="49.28394" lon="6.04775">
        <ele>326</ele>
        <time>2021-07-28T11:15:58Z</time>
      </trkpt>
      <trkpt lat="49.28399" lon="6.0478">
        <ele>326</ele>
        <time>2021-07-28T11:15:59Z</time>
      </trkpt>
      <trkpt lat="49.28404" lon="6.04792">
        <ele>326</ele>
        <time>2021-07-28T11:16:01Z</time>
      </trkpt>
      <trkpt lat="49.28407" lon="6.048">
        <ele>325.9</ele>
        <time>2021-07-28T11:16:03Z</time>
      </trkpt>
      <trkpt lat="49.28411" lon="6.04804">
        <ele>325.5</ele>
        <time>2021-07-28T11:16:04Z</time>
      </trkpt>
      <trkpt lat="49.28415" lon="6.04808">
        <ele>325.1</ele>
        <time>2021-07-28T11:16:05Z</time>
      </trkpt>
      <trkpt lat="49.28424" lon="6.04817">
        <ele>324.8</ele>
        <time>2021-07-28T11:16:07Z</time>
      </trkpt>
      <trkpt lat="49.28428" lon="6.04819">
        <ele>324.8</ele>
        <time>2021-07-28T11:16:08Z</time>
      </trkpt>
      <trkpt lat="49.28425" lon="6.0482">
        <ele>324.8</ele>
        <time>2021-07-28T11:16:09Z</time>
      </trkpt>
      <trkpt lat="49.28314" lon="6.0489">
        <ele>323.1</ele>
        <time>2021-07-28T11:17:04Z</time>
      </trkpt>
      <trkpt lat="49.2831" lon="6.04893">
        <ele>322.9</ele>
        <time>2021-07-28T11:17:05Z</time>
      </trkpt>
      <trkpt lat="49.28302" lon="6.04897">
        <ele>322.7</ele>
        <time>2021-07-28T11:17:07Z</time>
      </trkpt>
      <trkpt lat="49.28296" lon="6.049">
        <ele>322.1</ele>
        <time>2021-07-28T11:17:08Z</time>
      </trkpt>
      <trkpt lat="49.28288" lon="6.04908">
        <ele>321.7</ele>
        <time>2021-07-28T11:17:09Z</time>
      </trkpt>
      <trkpt lat="49.28287" lon="6.04913">
        <ele>321.6</ele>
        <time>2021-07-28T11:17:11Z</time>
      </trkpt>
      <trkpt lat="49.28287" lon="6.04921">
        <ele>321.5</ele>
        <time>2021-07-28T11:17:12Z</time>
      </trkpt>
      <trkpt lat="49.28285" lon="6.04925">
        <ele>321.3</ele>
        <time>2021-07-28T11:17:13Z</time>
      </trkpt>
      <trkpt lat="49.2828" lon="6.04927">
        <ele>321.1</ele>
        <time>2021-07-28T11:17:15Z</time>
      </trkpt>
      <trkpt lat="49.28276" lon="6.04928">
        <ele>321</ele>
        <time>2021-07-28T11:17:16Z</time>
      </trkpt>
      <trkpt lat="49.28268" lon="6.0493">
        <ele>320.6</ele>
        <time>2021-07-28T11:17:17Z</time>
      </trkpt>
      <trkpt lat="49.28256" lon="6.04934">
        <ele>320.2</ele>
        <time>2021-07-28T11:17:19Z</time>
      </trkpt>
      <trkpt lat="49.28252" lon="6.04936">
        <ele>320.1</ele>
        <time>2021-07-28T11:17:21Z</time>
      </trkpt>
      <trkpt lat="49.28248" lon="6.04938">
        <ele>320</ele>
        <time>2021-07-28T11:17:22Z</time>
      </trkpt>
      <trkpt lat="49.28243" lon="6.0494">
        <ele>319.8</ele>
        <time>2021-07-28T11:17:23Z</time>
      </trkpt>
      <trkpt lat="49.28238" lon="6.04941">
        <ele>319.6</ele>
        <time>2021-07-28T11:17:25Z</time>
      </trkpt>
      <trkpt lat="49.28233" lon="6.0494">
        <ele>319.5</ele>
        <time>2021-07-28T11:17:26Z</time>
      </trkpt>
      <trkpt lat="49.2823" lon="6.04939">
        <ele>319.4</ele>
        <time>2021-07-28T11:17:27Z</time>
      </trkpt>
      <trkpt lat="49.28227" lon="6.04938">
        <ele>319.3</ele>
        <time>2021-07-28T11:17:28Z</time>
      </trkpt>
      <trkpt lat="49.28222" lon="6.04936">
        <ele>319.2</ele>
        <time>2021-07-28T11:17:30Z</time>
      </trkpt>
      <trkpt lat="49.2822" lon="6.04934">
        <ele>319.1</ele>
        <time>2021-07-28T11:17:31Z</time>
      </trkpt>
      <trkpt lat="49.28216" lon="6.04933">
        <ele>319</ele>
        <time>2021-07-28T11:17:32Z</time>
      </trkpt>
      <trkpt lat="49.28212" lon="6.04933">
        <ele>318.9</ele>
        <time>2021-07-28T11:17:33Z</time>
      </trkpt>
      <trkpt lat="49.28212" lon="6.04935">
        <ele>318.8</ele>
        <time>2021-07-28T11:17:35Z</time>
      </trkpt>
      <trkpt lat="49.28211" lon="6.04936">
        <ele>318.8</ele>
        <time>2021-07-28T11:17:36Z</time>
      </trkpt>
      <trkpt lat="49.28209" lon="6.04937">
        <ele>318.8</ele>
        <time>2021-07-28T11:17:37Z</time>
      </trkpt>
      <trkpt lat="49.28208" lon="6.04938">
        <ele>318.7</ele>
        <time>2021-07-28T11:17:38Z</time>
      </trkpt>
      <trkpt lat="49.28205" lon="6.0494">
        <ele>318.7</ele>
        <time>2021-07-28T11:17:40Z</time>
      </trkpt>
      <trkpt lat="49.28202" lon="6.04941">
        <ele>318.6</ele>
        <time>2021-07-28T11:17:41Z</time>
      </trkpt>
      <trkpt lat="49.28197" lon="6.04941">
        <ele>318.5</ele>
        <time>2021-07-28T11:17:42Z</time>
      </trkpt>
      <trkpt lat="49.28189" lon="6.0494">
        <ele>318.4</ele>
        <time>2021-07-28T11:17:43Z</time>
      </trkpt>
      <trkpt lat="49.28184" lon="6.04939">
        <ele>318.3</ele>
        <time>2021-07-28T11:17:44Z</time>
      </trkpt>
      <trkpt lat="49.28178" lon="6.04937">
        <ele>318.3</ele>
        <time>2021-07-28T11:17:45Z</time>
      </trkpt>
      <trkpt lat="49.28173" lon="6.04934">
        <ele>318.2</ele>
        <time>2021-07-28T11:17:47Z</time>
      </trkpt>
      <trkpt lat="49.28168" lon="6.04931">
        <ele>318.2</ele>
        <time>2021-07-28T11:17:48Z</time>
      </trkpt>
      <trkpt lat="49.28161" lon="6.04928">
        <ele>318.1</ele>
        <time>2021-07-28T11:17:49Z</time>
      </trkpt>
      <trkpt lat="49.28155" lon="6.04926">
        <ele>318.1</ele>
        <time>2021-07-28T11:17:50Z</time>
      </trkpt>
      <trkpt lat="49.2815" lon="6.04925">
        <ele>318</ele>
        <time>2021-07-28T11:17:52Z</time>
      </trkpt>
      <trkpt lat="49.28148" lon="6.04923">
        <ele>318</ele>
        <time>2021-07-28T11:17:53Z</time>
      </trkpt>
      <trkpt lat="49.28145" lon="6.0492">
        <ele>318</ele>
        <time>2021-07-28T11:17:54Z</time>
      </trkpt>
      <trkpt lat="49.28144" lon="6.04917">
        <ele>317.9</ele>
        <time>2021-07-28T11:17:55Z</time>
      </trkpt>
      <trkpt lat="49.28143" lon="6.04916">
        <ele>317.9</ele>
        <time>2021-07-28T11:17:57Z</time>
      </trkpt>
      <trkpt lat="49.28143" lon="6.04915">
        <ele>317.9</ele>
        <time>2021-07-28T11:17:58Z</time>
      </trkpt>
      <trkpt lat="49.28142" lon="6.04911">
        <ele>317.9</ele>
        <time>2021-07-28T11:18:00Z</time>
      </trkpt>
      <trkpt lat="49.27541" lon="6.04734">
        <ele>313.7</ele>
        <time>2021-07-28T11:20:25Z</time>
      </trkpt>
      <trkpt lat="49.2753" lon="6.04734">
        <ele>313.6</ele>
        <time>2021-07-28T11:20:26Z</time>
      </trkpt>
      <trkpt lat="49.27519" lon="6.04737">
        <ele>313.5</ele>
        <time>2021-07-28T11:20:27Z</time>
      </trkpt>
      <trkpt lat="49.27499" lon="6.04744">
        <ele>313.3</ele>
        <time>2021-07-28T11:20:29Z</time>
      </trkpt>
      <trkpt lat="49.2749" lon="6.04747">
        <ele>313.3</ele>
        <time>2021-07-28T11:20:30Z</time>
      </trkpt>
      <trkpt lat="49.27481" lon="6.04749">
        <ele>313.3</ele>
        <time>2021-07-28T11:20:31Z</time>
      </trkpt>
      <trkpt lat="49.27466" lon="6.04757">
        <ele>313.3</ele>
        <time>2021-07-28T11:20:33Z</time>
      </trkpt>
      <trkpt lat="49.27459" lon="6.04762">
        <ele>313.3</ele>
        <time>2021-07-28T11:20:35Z</time>
      </trkpt>
      <trkpt lat="49.27463" lon="6.04759">
        <ele>313.3</ele>
        <time>2021-07-28T11:20:36Z</time>
      </trkpt>
      <trkpt lat="49.27489" lon="6.04743">
        <ele>313.3</ele>
        <time>2021-07-28T11:20:37Z</time>
      </trkpt>
      <trkpt lat="49.27499" lon="6.04738">
        <ele>313.3</ele>
        <time>2021-07-28T11:20:39Z</time>
      </trkpt>
      <trkpt lat="49.27506" lon="6.04734">
        <ele>313.4</ele>
        <time>2021-07-28T11:20:40Z</time>
      </trkpt>
      <trkpt lat="49.27513" lon="6.04728">
        <ele>313.3</ele>
        <time>2021-07-28T11:20:41Z</time>
      </trkpt>
      <trkpt lat="49.27516" lon="6.04725">
        <ele>313.3</ele>
        <time>2021-07-28T11:20:43Z</time>
      </trkpt>
      <trkpt lat="49.27517" lon="6.04724">
        <ele>313.3</ele>
        <time>2021-07-28T11:20:44Z</time>
      </trkpt>
      <trkpt lat="49.27518" lon="6.04724">
        <ele>313.3</ele>
        <time>2021-07-28T11:20:45Z</time>
      </trkpt>
      <trkpt lat="49.27467" lon="6.04715">
        <ele>313.3</ele>
        <time>2021-07-28T11:21:02Z</time>
      </trkpt>
      <trkpt lat="49.27461" lon="6.04715">
        <ele>313.3</ele>
        <time>2021-07-28T11:21:03Z</time>
      </trkpt>
      <trkpt lat="49.27456" lon="6.04715">
        <ele>313.3</ele>
        <time>2021-07-28T11:21:04Z</time>
      </trkpt>
      <trkpt lat="49.27453" lon="6.04715">
        <ele>313.3</ele>
        <time>2021-07-28T11:21:05Z</time>
      </trkpt>
      <trkpt lat="49.27447" lon="6.04713">
        <ele>313.2</ele>
        <time>2021-07-28T11:21:07Z</time>
      </trkpt>
      <trkpt lat="49.27442" lon="6.0471">
        <ele>313.2</ele>
        <time>2021-07-28T11:21:08Z</time>
      </trkpt>
      <trkpt lat="49.2744" lon="6.0471">
        <ele>313.2</ele>
        <time>2021-07-28T11:21:09Z</time>
      </trkpt>
      <trkpt lat="49.27436" lon="6.04708">
        <ele>313.2</ele>
        <time>2021-07-28T11:21:11Z</time>
      </trkpt>
      <trkpt lat="49.27428" lon="6.04706">
        <ele>313.1</ele>
        <time>2021-07-28T11:21:13Z</time>
      </trkpt>
      <trkpt lat="49.27421" lon="6.04704">
        <ele>313.1</ele>
        <time>2021-07-28T11:21:14Z</time>
      </trkpt>
      <trkpt lat="49.27417" lon="6.04704">
        <ele>313</ele>
        <time>2021-07-28T11:21:15Z</time>
      </trkpt>
      <trkpt lat="49.27414" lon="6.04703">
        <ele>313</ele>
        <time>2021-07-28T11:21:16Z</time>
      </trkpt>
      <trkpt lat="49.27411" lon="6.047">
        <ele>313</ele>
        <time>2021-07-28T11:21:17Z</time>
      </trkpt>
      <trkpt lat="49.2741" lon="6.04699">
        <ele>312.9</ele>
        <time>2021-07-28T11:21:18Z</time>
      </trkpt>
      <trkpt lat="49.27405" lon="6.04694">
        <ele>312.9</ele>
        <time>2021-07-28T11:21:20Z</time>
      </trkpt>
      <trkpt lat="49.27401" lon="6.04692">
        <ele>312.9</ele>
        <time>2021-07-28T11:21:21Z</time>
      </trkpt>
      <trkpt lat="49.27397" lon="6.0469">
        <ele>312.8</ele>
        <time>2021-07-28T11:21:22Z</time>
      </trkpt>
      <trkpt lat="49.27391" lon="6.04688">
        <ele>312.7</ele>
        <time>2021-07-28T11:21:24Z</time>
      </trkpt>
      <trkpt lat="49.27387" lon="6.04685">
        <ele>312.7</ele>
        <time>2021-07-28T11:21:25Z</time>
      </trkpt>
      <trkpt lat="49.27382" lon="6.04683">
        <ele>312.7</ele>
        <time>2021-07-28T11:21:27Z</time>
      </trkpt>
      <trkpt lat="49.27379" lon="6.04685">
        <ele>312.6</ele>
        <time>2021-07-28T11:21:28Z</time>
      </trkpt>
      <trkpt lat="49.27378" lon="6.04686">
        <ele>312.6</ele>
        <time>2021-07-28T11:21:29Z</time>
      </trkpt>
      <trkpt lat="49.27375" lon="6.04687">
        <ele>312.6</ele>
        <time>2021-07-28T11:21:30Z</time>
      </trkpt>
      <trkpt lat="49.27374" lon="6.04688">
        <ele>312.6</ele>
        <time>2021-07-28T11:21:31Z</time>
      </trkpt>
      <trkpt lat="49.27373" lon="6.04693">
        <ele>312.6</ele>
        <time>2021-07-28T11:21:33Z</time>
      </trkpt>
      <trkpt lat="49.27372" lon="6.04694">
        <ele>312.6</ele>
        <time>2021-07-28T11:21:34Z</time>
      </trkpt>
      <trkpt lat="49.27372" lon="6.04695">
        <ele>312.6</ele>
        <time>2021-07-28T11:21:36Z</time>
      </trkpt>
      <trkpt lat="49.27372" lon="6.04696">
        <ele>312.6</ele>
        <time>2021-07-28T11:21:37Z</time>
      </trkpt>
      <trkpt lat="49.27372" lon="6.04697">
        <ele>312.6</ele>
        <time>2021-07-28T11:21:38Z</time>
      </trkpt>
      <trkpt lat="49.27372" lon="6.04699">
        <ele>312.6</ele>
        <time>2021-07-28T11:21:40Z</time>
      </trkpt>
      <trkpt lat="49.27371" lon="6.047">
        <ele>312.6</ele>
        <time>2021-07-28T11:21:41Z</time>
      </trkpt>
      <trkpt lat="49.2737" lon="6.04706">
        <ele>312.6</ele>
        <time>2021-07-28T11:21:42Z</time>
      </trkpt>
      <trkpt lat="49.2737" lon="6.04708">
        <ele>312.6</ele>
        <time>2021-07-28T11:21:43Z</time>
      </trkpt>
      <trkpt lat="49.2737" lon="6.04719">
        <ele>312.5</ele>
        <time>2021-07-28T11:21:45Z</time>
      </trkpt>
      <trkpt lat="49.27371" lon="6.04727">
        <ele>312.5</ele>
        <time>2021-07-28T11:21:46Z</time>
      </trkpt>
      <trkpt lat="49.27373" lon="6.04737">
        <ele>312.5</ele>
        <time>2021-07-28T11:21:48Z</time>
      </trkpt>
      <trkpt lat="49.27375" lon="6.04746">
        <ele>312.5</ele>
        <time>2021-07-28T11:21:49Z</time>
      </trkpt>
      <trkpt lat="49.27383" lon="6.04758">
        <ele>312.5</ele>
        <time>2021-07-28T11:21:50Z</time>
      </trkpt>
      <trkpt lat="49.27387" lon="6.04766">
        <ele>312.5</ele>
        <time>2021-07-28T11:21:51Z</time>
      </trkpt>
      <trkpt lat="49.2739" lon="6.04776">
        <ele>312.5</ele>
        <time>2021-07-28T11:21:53Z</time>
      </trkpt>
      <trkpt lat="49.27392" lon="6.0478">
        <ele>312.3</ele>
        <time>2021-07-28T11:21:54Z</time>
      </trkpt>
      <trkpt lat="49.2739" lon="6.04788">
        <ele>311.9</ele>
        <time>2021-07-28T11:21:55Z</time>
      </trkpt>
      <trkpt lat="49.27388" lon="6.04797">
        <ele>311.5</ele>
        <time>2021-07-28T11:21:57Z</time>
      </trkpt>
      <trkpt lat="49.27386" lon="6.04802">
        <ele>311.4</ele>
        <time>2021-07-28T11:21:58Z</time>
      </trkpt>
      <trkpt lat="49.27384" lon="6.04807">
        <ele>311.1</ele>
        <time>2021-07-28T11:22:00Z</time>
      </trkpt>
      <trkpt lat="49.27382" lon="6.04811">
        <ele>311</ele>
        <time>2021-07-28T11:22:01Z</time>
      </trkpt>
      <trkpt lat="49.27379" lon="6.04814">
        <ele>310.8</ele>
        <time>2021-07-28T11:22:02Z</time>
      </trkpt>
      <trkpt lat="49.27376" lon="6.04815">
        <ele>310.7</ele>
        <time>2021-07-28T11:22:03Z</time>
      </trkpt>
      <trkpt lat="49.27373" lon="6.04813">
        <ele>310.5</ele>
        <time>2021-07-28T11:22:05Z</time>
      </trkpt>
      <trkpt lat="49.27372" lon="6.0481">
        <ele>310.5</ele>
        <time>2021-07-28T11:22:06Z</time>
      </trkpt>
      <trkpt lat="49.27369" lon="6.04807">
        <ele>310.6</ele>
        <time>2021-07-28T11:22:08Z</time>
      </trkpt>
      <trkpt lat="49.27366" lon="6.04803">
        <ele>311</ele>
        <time>2021-07-28T11:22:10Z</time>
      </trkpt>
      <trkpt lat="49.27363" lon="6.04801">
        <ele>311.4</ele>
        <time>2021-07-28T11:22:11Z</time>
      </trkpt>
      <trkpt lat="49.27346" lon="6.04793">
        <ele>312.7</ele>
        <time>2021-07-28T11:22:12Z</time>
      </trkpt>
      <trkpt lat="49.27331" lon="6.04789">
        <ele>314.1</ele>
        <time>2021-07-28T11:22:13Z</time>
      </trkpt>
      <trkpt lat="49.27306" lon="6.04787">
        <ele>315.6</ele>
        <time>2021-07-28T11:22:15Z</time>
      </trkpt>
      <trkpt lat="49.27296" lon="6.04788">
        <ele>315.7</ele>
        <time>2021-07-28T11:22:16Z</time>
      </trkpt>
      <trkpt lat="49.2729" lon="6.04788">
        <ele>315.7</ele>
        <time>2021-07-28T11:22:17Z</time>
      </trkpt>
      <trkpt lat="49.27298" lon="6.04794">
        <ele>314.4</ele>
        <time>2021-07-28T11:22:18Z</time>
      </trkpt>
      <trkpt lat="49.27299" lon="6.04795">
        <ele>314.3</ele>
        <time>2021-07-28T11:22:19Z</time>
      </trkpt>
      <trkpt lat="49.27299" lon="6.04795">
        <ele>314.3</ele>
        <time>2021-07-28T11:22:21Z</time>
      </trkpt>
      <trkpt lat="49.27298" lon="6.04795">
        <ele>314.3</ele>
        <time>2021-07-28T11:22:22Z</time>
      </trkpt>
      <trkpt lat="49.27295" lon="6.04795">
        <ele>314.4</ele>
        <time>2021-07-28T11:22:23Z</time>
      </trkpt>
      <trkpt lat="49.27291" lon="6.04797">
        <ele>314.4</ele>
        <time>2021-07-28T11:22:25Z</time>
      </trkpt>
      <trkpt lat="49.27289" lon="6.04799">
        <ele>313.8</ele>
        <time>2021-07-28T11:22:26Z</time>
      </trkpt>
      <trkpt lat="49.27288" lon="6.048">
        <ele>313.7</ele>
        <time>2021-07-28T11:22:28Z</time>
      </trkpt>
      <trkpt lat="49.27272" lon="6.04817">
        <ele>311.5</ele>
        <time>2021-07-28T11:22:35Z</time>
      </trkpt>
      <trkpt lat="49.27267" lon="6.04822">
        <ele>311</ele>
        <time>2021-07-28T11:22:36Z</time>
      </trkpt>
      <trkpt lat="49.2726" lon="6.04824">
        <ele>310.4</ele>
        <time>2021-07-28T11:22:37Z</time>
      </trkpt>
      <trkpt lat="49.27253" lon="6.04826">
        <ele>310.7</ele>
        <time>2021-07-28T11:22:38Z</time>
      </trkpt>
      <trkpt lat="49.27243" lon="6.04827">
        <ele>311.1</ele>
        <time>2021-07-28T11:22:40Z</time>
      </trkpt>
      <trkpt lat="49.27236" lon="6.04828">
        <ele>310.5</ele>
        <time>2021-07-28T11:22:41Z</time>
      </trkpt>
      <trkpt lat="49.27232" lon="6.04828">
        <ele>310.6</ele>
        <time>2021-07-28T11:22:42Z</time>
      </trkpt>
      <trkpt lat="49.27229" lon="6.04828">
        <ele>310.7</ele>
        <time>2021-07-28T11:22:43Z</time>
      </trkpt>
      <trkpt lat="49.27225" lon="6.04828">
        <ele>310.9</ele>
        <time>2021-07-28T11:22:45Z</time>
      </trkpt>
      <trkpt lat="49.27222" lon="6.04831">
        <ele>311</ele>
        <time>2021-07-28T11:22:46Z</time>
      </trkpt>
      <trkpt lat="49.2722" lon="6.04832">
        <ele>310.9</ele>
        <time>2021-07-28T11:22:47Z</time>
      </trkpt>
      <trkpt lat="49.27218" lon="6.04833">
        <ele>310.4</ele>
        <time>2021-07-28T11:22:48Z</time>
      </trkpt>
      <trkpt lat="49.27214" lon="6.04834">
        <ele>310.6</ele>
        <time>2021-07-28T11:22:49Z</time>
      </trkpt>
      <trkpt lat="49.2721" lon="6.04837">
        <ele>310.2</ele>
        <time>2021-07-28T11:22:51Z</time>
      </trkpt>
      <trkpt lat="49.27207" lon="6.04839">
        <ele>310.3</ele>
        <time>2021-07-28T11:22:52Z</time>
      </trkpt>
      <trkpt lat="49.27205" lon="6.04841">
        <ele>309.9</ele>
        <time>2021-07-28T11:22:53Z</time>
      </trkpt>
      <trkpt lat="49.27201" lon="6.04843">
        <ele>309.9</ele>
        <time>2021-07-28T11:22:54Z</time>
      </trkpt>
      <trkpt lat="49.272" lon="6.04843">
        <ele>309.9</ele>
        <time>2021-07-28T11:22:55Z</time>
      </trkpt>
      <trkpt lat="49.27196" lon="6.04841">
        <ele>309.9</ele>
        <time>2021-07-28T11:22:57Z</time>
      </trkpt>
      <trkpt lat="49.27195" lon="6.0484">
        <ele>309.9</ele>
        <time>2021-07-28T11:22:58Z</time>
      </trkpt>
      <trkpt lat="49.27194" lon="6.04839">
        <ele>310.2</ele>
        <time>2021-07-28T11:22:59Z</time>
      </trkpt>
      <trkpt lat="49.27193" lon="6.04836">
        <ele>310.2</ele>
        <time>2021-07-28T11:23:01Z</time>
      </trkpt>
      <trkpt lat="49.27194" lon="6.04836">
        <ele>310.6</ele>
        <time>2021-07-28T11:23:02Z</time>
      </trkpt>
      <trkpt lat="49.27196" lon="6.04835">
        <ele>310.6</ele>
        <time>2021-07-28T11:23:03Z</time>
      </trkpt>
      <trkpt lat="49.27198" lon="6.04836">
        <ele>310.5</ele>
        <time>2021-07-28T11:23:05Z</time>
      </trkpt>
      <trkpt lat="49.27199" lon="6.04836">
        <ele>310.1</ele>
        <time>2021-07-28T11:23:06Z</time>
      </trkpt>
      <trkpt lat="49.272" lon="6.04837">
        <ele>310.1</ele>
        <time>2021-07-28T11:23:07Z</time>
      </trkpt>
      <trkpt lat="49.272" lon="6.04837">
        <ele>310</ele>
        <time>2021-07-28T11:23:08Z</time>
      </trkpt>
      <trkpt lat="49.27201" lon="6.04838">
        <ele>310</ele>
        <time>2021-07-28T11:23:09Z</time>
      </trkpt>
      <trkpt lat="49.27106" lon="6.04853">
        <ele>314.6</ele>
        <time>2021-07-28T11:23:30Z</time>
      </trkpt>
      <trkpt lat="49.27099" lon="6.04853">
        <ele>315.3</ele>
        <time>2021-07-28T11:23:31Z</time>
      </trkpt>
      <trkpt lat="49.27093" lon="6.04858">
        <ele>315</ele>
        <time>2021-07-28T11:23:32Z</time>
      </trkpt>
      <trkpt lat="49.27089" lon="6.04863">
        <ele>314.7</ele>
        <time>2021-07-28T11:23:33Z</time>
      </trkpt>
      <trkpt lat="49.27084" lon="6.0487">
        <ele>314.7</ele>
        <time>2021-07-28T11:23:34Z</time>
      </trkpt>
      <trkpt lat="49.2708" lon="6.04878">
        <ele>314.3</ele>
        <time>2021-07-28T11:23:35Z</time>
      </trkpt>
      <trkpt lat="49.27062" lon="6.04898">
        <ele>313.2</ele>
        <time>2021-07-28T11:23:37Z</time>
      </trkpt>
      <trkpt lat="49.27056" lon="6.04904">
        <ele>313.2</ele>
        <time>2021-07-28T11:23:38Z</time>
      </trkpt>
      <trkpt lat="49.27046" lon="6.04913">
        <ele>312.6</ele>
        <time>2021-07-28T11:23:40Z</time>
      </trkpt>
      <trkpt lat="49.27043" lon="6.04916">
        <ele>312.8</ele>
        <time>2021-07-28T11:23:41Z</time>
      </trkpt>
      <trkpt lat="49.27042" lon="6.04917">
        <ele>312.8</ele>
        <time>2021-07-28T11:23:42Z</time>
      </trkpt>
      <trkpt lat="49.27036" lon="6.04921">
        <ele>312.7</ele>
        <time>2021-07-28T11:23:43Z</time>
      </trkpt>
      <trkpt lat="49.27028" lon="6.04928">
        <ele>312.3</ele>
        <time>2021-07-28T11:23:45Z</time>
      </trkpt>
      <trkpt lat="49.27024" lon="6.04934">
        <ele>312.4</ele>
        <time>2021-07-28T11:23:47Z</time>
      </trkpt>
      <trkpt lat="49.2702" lon="6.04938">
        <ele>312.3</ele>
        <time>2021-07-28T11:23:48Z</time>
      </trkpt>
      <trkpt lat="49.27016" lon="6.04944">
        <ele>311.7</ele>
        <time>2021-07-28T11:23:49Z</time>
      </trkpt>
      <trkpt lat="49.27013" lon="6.04947">
        <ele>312.2</ele>
        <time>2021-07-28T11:23:50Z</time>
      </trkpt>
      <trkpt lat="49.27007" lon="6.04952">
        <ele>312.4</ele>
        <time>2021-07-28T11:23:51Z</time>
      </trkpt>
      <trkpt lat="49.27001" lon="6.04956">
        <ele>312.2</ele>
        <time>2021-07-28T11:23:53Z</time>
      </trkpt>
      <trkpt lat="49.26996" lon="6.04961">
        <ele>312.3</ele>
        <time>2021-07-28T11:23:54Z</time>
      </trkpt>
      <trkpt lat="49.26992" lon="6.04964">
        <ele>312.5</ele>
        <time>2021-07-28T11:23:55Z</time>
      </trkpt>
      <trkpt lat="49.26987" lon="6.0497">
        <ele>312</ele>
        <time>2021-07-28T11:23:57Z</time>
      </trkpt>
      <trkpt lat="49.26984" lon="6.04974">
        <ele>311.8</ele>
        <time>2021-07-28T11:23:58Z</time>
      </trkpt>
      <trkpt lat="49.2698" lon="6.0498">
        <ele>311.7</ele>
        <time>2021-07-28T11:23:59Z</time>
      </trkpt>
      <trkpt lat="49.26978" lon="6.04987">
        <ele>311.3</ele>
        <time>2021-07-28T11:24:00Z</time>
      </trkpt>
      <trkpt lat="49.26976" lon="6.04993">
        <ele>311.3</ele>
        <time>2021-07-28T11:24:01Z</time>
      </trkpt>
      <trkpt lat="49.26975" lon="6.05">
        <ele>310.6</ele>
        <time>2021-07-28T11:24:03Z</time>
      </trkpt>
      <trkpt lat="49.26971" lon="6.05012">
        <ele>309.8</ele>
        <time>2021-07-28T11:24:04Z</time>
      </trkpt>
      <trkpt lat="49.26957" lon="6.05024">
        <ele>310.7</ele>
        <time>2021-07-28T11:24:06Z</time>
      </trkpt>
      <trkpt lat="49.26943" lon="6.05026">
        <ele>311</ele>
        <time>2021-07-28T11:24:07Z</time>
      </trkpt>
      <trkpt lat="49.26936" lon="6.05032">
        <ele>310.7</ele>
        <time>2021-07-28T11:24:09Z</time>
      </trkpt>
      <trkpt lat="49.26935" lon="6.05037">
        <ele>310.4</ele>
        <time>2021-07-28T11:24:10Z</time>
      </trkpt>
      <trkpt lat="49.26933" lon="6.05042">
        <ele>309.8</ele>
        <time>2021-07-28T11:24:11Z</time>
      </trkpt>
      <trkpt lat="49.2693" lon="6.05047">
        <ele>309.4</ele>
        <time>2021-07-28T11:24:12Z</time>
      </trkpt>
      <trkpt lat="49.26929" lon="6.05049">
        <ele>309.4</ele>
        <time>2021-07-28T11:24:13Z</time>
      </trkpt>
      <trkpt lat="49.26926" lon="6.05054">
        <ele>309.1</ele>
        <time>2021-07-28T11:24:14Z</time>
      </trkpt>
      <trkpt lat="49.26924" lon="6.05058">
        <ele>308.8</ele>
        <time>2021-07-28T11:24:16Z</time>
      </trkpt>
      <trkpt lat="49.26921" lon="6.05062">
        <ele>308.5</ele>
        <time>2021-07-28T11:24:17Z</time>
      </trkpt>
      <trkpt lat="49.26574" lon="6.05129">
        <ele>301.6</ele>
        <time>2021-07-28T11:26:40Z</time>
      </trkpt>
      <trkpt lat="49.26561" lon="6.05132">
        <ele>301.3</ele>
        <time>2021-07-28T11:26:42Z</time>
      </trkpt>
      <trkpt lat="49.26551" lon="6.05136">
        <ele>300.5</ele>
        <time>2021-07-28T11:26:43Z</time>
      </trkpt>
      <trkpt lat="49.26537" lon="6.05142">
        <ele>299.5</ele>
        <time>2021-07-28T11:26:45Z</time>
      </trkpt>
      <trkpt lat="49.26528" lon="6.05148">
        <ele>299.1</ele>
        <time>2021-07-28T11:26:46Z</time>
      </trkpt>
      <trkpt lat="49.26516" lon="6.05157">
        <ele>298.5</ele>
        <time>2021-07-28T11:26:48Z</time>
      </trkpt>
      <trkpt lat="49.26511" lon="6.05164">
        <ele>297.9</ele>
        <time>2021-07-28T11:26:49Z</time>
      </trkpt>
      <trkpt lat="49.26504" lon="6.0517">
        <ele>297.6</ele>
        <time>2021-07-28T11:26:51Z</time>
      </trkpt>
      <trkpt lat="49.26497" lon="6.05172">
        <ele>297.4</ele>
        <time>2021-07-28T11:26:52Z</time>
      </trkpt>
      <trkpt lat="49.26493" lon="6.05174">
        <ele>297.4</ele>
        <time>2021-07-28T11:26:53Z</time>
      </trkpt>
      <trkpt lat="49.26487" lon="6.05179">
        <ele>297</ele>
        <time>2021-07-28T11:26:55Z</time>
      </trkpt>
      <trkpt lat="49.26483" lon="6.05183">
        <ele>296.6</ele>
        <time>2021-07-28T11:26:56Z</time>
      </trkpt>
      <trkpt lat="49.26476" lon="6.05187">
        <ele>296.2</ele>
        <time>2021-07-28T11:26:58Z</time>
      </trkpt>
      <trkpt lat="49.2647" lon="6.05183">
        <ele>296.7</ele>
        <time>2021-07-28T11:26:59Z</time>
      </trkpt>
      <trkpt lat="49.26463" lon="6.05187">
        <ele>296.6</ele>
        <time>2021-07-28T11:27:01Z</time>
      </trkpt>
      <trkpt lat="49.26457" lon="6.05187">
        <ele>296.8</ele>
        <time>2021-07-28T11:27:02Z</time>
      </trkpt>
      <trkpt lat="49.26451" lon="6.05189">
        <ele>296.9</ele>
        <time>2021-07-28T11:27:04Z</time>
      </trkpt>
      <trkpt lat="49.26446" lon="6.05191">
        <ele>297.5</ele>
        <time>2021-07-28T11:27:05Z</time>
      </trkpt>
      <trkpt lat="49.26442" lon="6.05195">
        <ele>297.7</ele>
        <time>2021-07-28T11:27:06Z</time>
      </trkpt>
      <trkpt lat="49.26438" lon="6.05198">
        <ele>297.7</ele>
        <time>2021-07-28T11:27:07Z</time>
      </trkpt>
      <trkpt lat="49.26434" lon="6.05203">
        <ele>297.8</ele>
        <time>2021-07-28T11:27:09Z</time>
      </trkpt>
      <trkpt lat="49.2643" lon="6.05208">
        <ele>298.2</ele>
        <time>2021-07-28T11:27:10Z</time>
      </trkpt>
      <trkpt lat="49.26426" lon="6.05218">
        <ele>298.2</ele>
        <time>2021-07-28T11:27:11Z</time>
      </trkpt>
      <trkpt lat="49.26419" lon="6.05229">
        <ele>298.6</ele>
        <time>2021-07-28T11:27:13Z</time>
      </trkpt>
      <trkpt lat="49.26412" lon="6.05234">
        <ele>299.8</ele>
        <time>2021-07-28T11:27:15Z</time>
      </trkpt>
      <trkpt lat="49.26403" lon="6.05243">
        <ele>300.6</ele>
        <time>2021-07-28T11:27:17Z</time>
      </trkpt>
      <trkpt lat="49.26398" lon="6.05251">
        <ele>300.9</ele>
        <time>2021-07-28T11:27:19Z</time>
      </trkpt>
      <trkpt lat="49.26395" lon="6.05254">
        <ele>301</ele>
        <time>2021-07-28T11:27:20Z</time>
      </trkpt>
      <trkpt lat="49.26392" lon="6.05254">
        <ele>301.4</ele>
        <time>2021-07-28T11:27:21Z</time>
      </trkpt>
      <trkpt lat="49.2639" lon="6.05256">
        <ele>301.8</ele>
        <time>2021-07-28T11:27:23Z</time>
      </trkpt>
      <trkpt lat="49.26388" lon="6.05258">
        <ele>302</ele>
        <time>2021-07-28T11:27:24Z</time>
      </trkpt>
      <trkpt lat="49.26387" lon="6.0526">
        <ele>302</ele>
        <time>2021-07-28T11:27:25Z</time>
      </trkpt>
      <trkpt lat="49.26386" lon="6.05262">
        <ele>301.8</ele>
        <time>2021-07-28T11:27:26Z</time>
      </trkpt>
      <trkpt lat="49.26385" lon="6.05265">
        <ele>302.2</ele>
        <time>2021-07-28T11:27:28Z</time>
      </trkpt>
      <trkpt lat="49.26384" lon="6.05268">
        <ele>301.9</ele>
        <time>2021-07-28T11:27:29Z</time>
      </trkpt>
      <trkpt lat="49.26384" lon="6.0527">
        <ele>301.5</ele>
        <time>2021-07-28T11:27:30Z</time>
      </trkpt>
      <trkpt lat="49.26366" lon="6.05301">
        <ele>299.9</ele>
        <time>2021-07-28T11:27:41Z</time>
      </trkpt>
      <trkpt lat="49.26363" lon="6.05303">
        <ele>299.6</ele>
        <time>2021-07-28T11:27:42Z</time>
      </trkpt>
      <trkpt lat="49.26342" lon="6.05301">
        <ele>298.6</ele>
        <time>2021-07-28T11:27:44Z</time>
      </trkpt>
      <trkpt lat="49.26333" lon="6.05298">
        <ele>298.3</ele>
        <time>2021-07-28T11:27:45Z</time>
      </trkpt>
      <trkpt lat="49.2632" lon="6.05294">
        <ele>298.1</ele>
        <time>2021-07-28T11:27:47Z</time>
      </trkpt>
      <trkpt lat="49.26315" lon="6.05293">
        <ele>298</ele>
        <time>2021-07-28T11:27:48Z</time>
      </trkpt>
      <trkpt lat="49.26314" lon="6.05291">
        <ele>298</ele>
        <time>2021-07-28T11:27:50Z</time>
      </trkpt>
      <trkpt lat="49.26316" lon="6.05287">
        <ele>298</ele>
        <time>2021-07-28T11:27:52Z</time>
      </trkpt>
      <trkpt lat="49.26317" lon="6.05287">
        <ele>298</ele>
        <time>2021-07-28T11:27:53Z</time>
      </trkpt>
      <trkpt lat="49.26317" lon="6.05287">
        <ele>298</ele>
        <time>2021-07-28T11:27:55Z</time>
      </trkpt>
      <trkpt lat="49.26318" lon="6.05288">
        <ele>297.9</ele>
        <time>2021-07-28T11:27:56Z</time>
      </trkpt>
      <trkpt lat="49.26318" lon="6.05288">
        <ele>297.9</ele>
        <time>2021-07-28T11:27:58Z</time>
      </trkpt>
      <trkpt lat="49.26273" lon="6.05304">
        <ele>296.2</ele>
        <time>2021-07-28T11:28:21Z</time>
      </trkpt>
      <trkpt lat="49.26177" lon="6.05306">
        <ele>290.6</ele>
        <time>2021-07-28T11:28:29Z</time>
      </trkpt>
      <trkpt lat="49.26173" lon="6.05305">
        <ele>290.4</ele>
        <time>2021-07-28T11:28:31Z</time>
      </trkpt>
      <trkpt lat="49.26163" lon="6.05306">
        <ele>290.1</ele>
        <time>2021-07-28T11:28:33Z</time>
      </trkpt>
      <trkpt lat="49.26154" lon="6.05306">
        <ele>289.7</ele>
        <time>2021-07-28T11:28:34Z</time>
      </trkpt>
      <trkpt lat="49.26144" lon="6.05307">
        <ele>289.3</ele>
        <time>2021-07-28T11:28:35Z</time>
      </trkpt>
      <trkpt lat="49.26136" lon="6.05309">
        <ele>288.8</ele>
        <time>2021-07-28T11:28:36Z</time>
      </trkpt>
      <trkpt lat="49.26129" lon="6.05312">
        <ele>288.3</ele>
        <time>2021-07-28T11:28:37Z</time>
      </trkpt>
      <trkpt lat="49.26124" lon="6.05314">
        <ele>288</ele>
        <time>2021-07-28T11:28:39Z</time>
      </trkpt>
      <trkpt lat="49.26097" lon="6.05333">
        <ele>286.7</ele>
        <time>2021-07-28T11:28:40Z</time>
      </trkpt>
      <trkpt lat="49.26089" lon="6.05341">
        <ele>286.5</ele>
        <time>2021-07-28T11:28:42Z</time>
      </trkpt>
      <trkpt lat="49.26084" lon="6.05348">
        <ele>286.4</ele>
        <time>2021-07-28T11:28:43Z</time>
      </trkpt>
      <trkpt lat="49.2608" lon="6.05355">
        <ele>286.2</ele>
        <time>2021-07-28T11:28:44Z</time>
      </trkpt>
      <trkpt lat="49.26068" lon="6.05367">
        <ele>285.9</ele>
        <time>2021-07-28T11:28:46Z</time>
      </trkpt>
      <trkpt lat="49.26061" lon="6.05371">
        <ele>285.8</ele>
        <time>2021-07-28T11:28:47Z</time>
      </trkpt>
      <trkpt lat="49.26051" lon="6.05378">
        <ele>285.6</ele>
        <time>2021-07-28T11:28:49Z</time>
      </trkpt>
      <trkpt lat="49.26047" lon="6.0538">
        <ele>285.5</ele>
        <time>2021-07-28T11:28:50Z</time>
      </trkpt>
      <trkpt lat="49.26043" lon="6.05376">
        <ele>285.4</ele>
        <time>2021-07-28T11:28:52Z</time>
      </trkpt>
      <trkpt lat="49.26041" lon="6.05374">
        <ele>285.4</ele>
        <time>2021-07-28T11:28:53Z</time>
      </trkpt>
      <trkpt lat="49.26038" lon="6.05376">
        <ele>285.4</ele>
        <time>2021-07-28T11:28:54Z</time>
      </trkpt>
      <trkpt lat="49.26033" lon="6.05376">
        <ele>285.3</ele>
        <time>2021-07-28T11:28:56Z</time>
      </trkpt>
      <trkpt lat="49.26028" lon="6.05374">
        <ele>285.3</ele>
        <time>2021-07-28T11:28:57Z</time>
      </trkpt>
      <trkpt lat="49.26025" lon="6.05372">
        <ele>285.2</ele>
        <time>2021-07-28T11:28:58Z</time>
      </trkpt>
      <trkpt lat="49.2602" lon="6.05371">
        <ele>285.2</ele>
        <time>2021-07-28T11:29:00Z</time>
      </trkpt>
      <trkpt lat="49.26016" lon="6.05371">
        <ele>285.1</ele>
        <time>2021-07-28T11:29:02Z</time>
      </trkpt>
      <trkpt lat="49.26011" lon="6.05372">
        <ele>285</ele>
        <time>2021-07-28T11:29:04Z</time>
      </trkpt>
      <trkpt lat="49.26007" lon="6.05375">
        <ele>284.9</ele>
        <time>2021-07-28T11:29:05Z</time>
      </trkpt>
      <trkpt lat="49.26005" lon="6.05376">
        <ele>284.9</ele>
        <time>2021-07-28T11:29:06Z</time>
      </trkpt>
      <trkpt lat="49.26001" lon="6.05377">
        <ele>284.7</ele>
        <time>2021-07-28T11:29:07Z</time>
      </trkpt>
      <trkpt lat="49.25994" lon="6.05377">
        <ele>284.5</ele>
        <time>2021-07-28T11:29:09Z</time>
      </trkpt>
      <trkpt lat="49.25986" lon="6.05378">
        <ele>284</ele>
        <time>2021-07-28T11:29:11Z</time>
      </trkpt>
      <trkpt lat="49.25981" lon="6.05379">
        <ele>283.7</ele>
        <time>2021-07-28T11:29:12Z</time>
      </trkpt>
      <trkpt lat="49.25955" lon="6.05384">
        <ele>281.9</ele>
        <time>2021-07-28T11:29:13Z</time>
      </trkpt>
      <trkpt lat="49.25947" lon="6.05386">
        <ele>281.3</ele>
        <time>2021-07-28T11:29:15Z</time>
      </trkpt>
      <trkpt lat="49.25934" lon="6.0539">
        <ele>280.4</ele>
        <time>2021-07-28T11:29:17Z</time>
      </trkpt>
      <trkpt lat="49.25928" lon="6.05392">
        <ele>280</ele>
        <time>2021-07-28T11:29:18Z</time>
      </trkpt>
      <trkpt lat="49.25923" lon="6.05394">
        <ele>279.6</ele>
        <time>2021-07-28T11:29:19Z</time>
      </trkpt>
      <trkpt lat="49.2591" lon="6.05398">
        <ele>278.9</ele>
        <time>2021-07-28T11:29:21Z</time>
      </trkpt>
      <trkpt lat="49.25896" lon="6.05401">
        <ele>278.1</ele>
        <time>2021-07-28T11:29:23Z</time>
      </trkpt>
      <trkpt lat="49.2589" lon="6.05402">
        <ele>277.7</ele>
        <time>2021-07-28T11:29:24Z</time>
      </trkpt>
      <trkpt lat="49.25883" lon="6.05402">
        <ele>277.4</ele>
        <time>2021-07-28T11:29:25Z</time>
      </trkpt>
      <trkpt lat="49.25868" lon="6.05399">
        <ele>276.5</ele>
        <time>2021-07-28T11:29:27Z</time>
      </trkpt>
      <trkpt lat="49.25853" lon="6.05398">
        <ele>275.6</ele>
        <time>2021-07-28T11:29:28Z</time>
      </trkpt>
      <trkpt lat="49.25834" lon="6.05402">
        <ele>274.5</ele>
        <time>2021-07-28T11:29:29Z</time>
      </trkpt>
      <trkpt lat="49.25818" lon="6.05408">
        <ele>273.5</ele>
        <time>2021-07-28T11:29:30Z</time>
      </trkpt>
      <trkpt lat="49.25811" lon="6.0541">
        <ele>273</ele>
        <time>2021-07-28T11:29:31Z</time>
      </trkpt>
      <trkpt lat="49.25794" lon="6.05419">
        <ele>272</ele>
        <time>2021-07-28T11:29:33Z</time>
      </trkpt>
      <trkpt lat="49.25786" lon="6.05426">
        <ele>271.4</ele>
        <time>2021-07-28T11:29:34Z</time>
      </trkpt>
      <trkpt lat="49.25779" lon="6.05435">
        <ele>270.9</ele>
        <time>2021-07-28T11:29:35Z</time>
      </trkpt>
      <trkpt lat="49.25766" lon="6.05451">
        <ele>270.2</ele>
        <time>2021-07-28T11:29:37Z</time>
      </trkpt>
      <trkpt lat="49.25761" lon="6.05459">
        <ele>269.8</ele>
        <time>2021-07-28T11:29:38Z</time>
      </trkpt>
      <trkpt lat="49.25753" lon="6.05475">
        <ele>268.7</ele>
        <time>2021-07-28T11:29:40Z</time>
      </trkpt>
      <trkpt lat="49.25748" lon="6.05484">
        <ele>268</ele>
        <time>2021-07-28T11:29:41Z</time>
      </trkpt>
      <trkpt lat="49.25743" lon="6.05493">
        <ele>267.3</ele>
        <time>2021-07-28T11:29:42Z</time>
      </trkpt>
      <trkpt lat="49.25739" lon="6.05504">
        <ele>266.5</ele>
        <time>2021-07-28T11:29:43Z</time>
      </trkpt>
      <trkpt lat="49.25731" lon="6.05523">
        <ele>265.1</ele>
        <time>2021-07-28T11:29:45Z</time>
      </trkpt>
      <trkpt lat="49.25726" lon="6.05533">
        <ele>264.3</ele>
        <time>2021-07-28T11:29:46Z</time>
      </trkpt>
      <trkpt lat="49.25713" lon="6.05553">
        <ele>262.5</ele>
        <time>2021-07-28T11:29:48Z</time>
      </trkpt>
      <trkpt lat="49.25702" lon="6.05569">
        <ele>261.3</ele>
        <time>2021-07-28T11:29:50Z</time>
      </trkpt>
      <trkpt lat="49.25697" lon="6.05576">
        <ele>260.8</ele>
        <time>2021-07-28T11:29:51Z</time>
      </trkpt>
      <trkpt lat="49.25685" lon="6.05593">
        <ele>259.8</ele>
        <time>2021-07-28T11:29:53Z</time>
      </trkpt>
      <trkpt lat="49.25679" lon="6.05601">
        <ele>259.3</ele>
        <time>2021-07-28T11:29:54Z</time>
      </trkpt>
      <trkpt lat="49.25672" lon="6.05609">
        <ele>258.8</ele>
        <time>2021-07-28T11:29:55Z</time>
      </trkpt>
      <trkpt lat="49.25659" lon="6.05626">
        <ele>257.9</ele>
        <time>2021-07-28T11:29:57Z</time>
      </trkpt>
      <trkpt lat="49.25644" lon="6.05641">
        <ele>256.9</ele>
        <time>2021-07-28T11:29:59Z</time>
      </trkpt>
      <trkpt lat="49.25628" lon="6.05654">
        <ele>255.4</ele>
        <time>2021-07-28T11:30:01Z</time>
      </trkpt>
      <trkpt lat="49.25615" lon="6.05667">
        <ele>253.6</ele>
        <time>2021-07-28T11:30:03Z</time>
      </trkpt>
      <trkpt lat="49.25609" lon="6.05674">
        <ele>252.6</ele>
        <time>2021-07-28T11:30:04Z</time>
      </trkpt>
      <trkpt lat="49.25603" lon="6.05682">
        <ele>251.8</ele>
        <time>2021-07-28T11:30:05Z</time>
      </trkpt>
      <trkpt lat="49.25599" lon="6.05689">
        <ele>251</ele>
        <time>2021-07-28T11:30:06Z</time>
      </trkpt>
      <trkpt lat="49.25594" lon="6.05697">
        <ele>250.2</ele>
        <time>2021-07-28T11:30:07Z</time>
      </trkpt>
      <trkpt lat="49.25584" lon="6.05712">
        <ele>248.7</ele>
        <time>2021-07-28T11:30:09Z</time>
      </trkpt>
      <trkpt lat="49.25579" lon="6.05718">
        <ele>248</ele>
        <time>2021-07-28T11:30:10Z</time>
      </trkpt>
      <trkpt lat="49.25574" lon="6.05724">
        <ele>247.3</ele>
        <time>2021-07-28T11:30:11Z</time>
      </trkpt>
      <trkpt lat="49.25569" lon="6.05729">
        <ele>246.6</ele>
        <time>2021-07-28T11:30:12Z</time>
      </trkpt>
      <trkpt lat="49.25565" lon="6.05733">
        <ele>246</ele>
        <time>2021-07-28T11:30:13Z</time>
      </trkpt>
      <trkpt lat="49.25561" lon="6.05739">
        <ele>245.3</ele>
        <time>2021-07-28T11:30:15Z</time>
      </trkpt>
      <trkpt lat="49.2556" lon="6.05742">
        <ele>245</ele>
        <time>2021-07-28T11:30:16Z</time>
      </trkpt>
      <trkpt lat="49.25559" lon="6.05748">
        <ele>244.3</ele>
        <time>2021-07-28T11:30:18Z</time>
      </trkpt>
      <trkpt lat="49.25559" lon="6.0575">
        <ele>244.1</ele>
        <time>2021-07-28T11:30:19Z</time>
      </trkpt>
      <trkpt lat="49.25559" lon="6.05753">
        <ele>243.8</ele>
        <time>2021-07-28T11:30:20Z</time>
      </trkpt>
      <trkpt lat="49.25561" lon="6.05762">
        <ele>243.3</ele>
        <time>2021-07-28T11:30:22Z</time>
      </trkpt>
      <trkpt lat="49.25562" lon="6.05766">
        <ele>242.8</ele>
        <time>2021-07-28T11:30:23Z</time>
      </trkpt>
      <trkpt lat="49.25562" lon="6.05774">
        <ele>242.1</ele>
        <time>2021-07-28T11:30:25Z</time>
      </trkpt>
      <trkpt lat="49.25561" lon="6.05782">
        <ele>241.3</ele>
        <time>2021-07-28T11:30:27Z</time>
      </trkpt>
      <trkpt lat="49.25558" lon="6.05806">
        <ele>238.6</ele>
        <time>2021-07-28T11:30:34Z</time>
      </trkpt>
      <trkpt lat="49.25558" lon="6.05811">
        <ele>238</ele>
        <time>2021-07-28T11:30:35Z</time>
      </trkpt>
      <trkpt lat="49.25564" lon="6.05814">
        <ele>236.7</ele>
        <time>2021-07-28T11:30:37Z</time>
      </trkpt>
      <trkpt lat="49.25571" lon="6.05816">
        <ele>235</ele>
        <time>2021-07-28T11:30:39Z</time>
      </trkpt>
      <trkpt lat="49.25578" lon="6.05815">
        <ele>233.3</ele>
        <time>2021-07-28T11:30:41Z</time>
      </trkpt>
      <trkpt lat="49.25584" lon="6.05816">
        <ele>232</ele>
        <time>2021-07-28T11:30:43Z</time>
      </trkpt>
      <trkpt lat="49.25586" lon="6.05817">
        <ele>231.3</ele>
        <time>2021-07-28T11:30:45Z</time>
      </trkpt>
      <trkpt lat="49.25587" lon="6.05818">
        <ele>231.1</ele>
        <time>2021-07-28T11:30:47Z</time>
      </trkpt>
      <trkpt lat="49.25587" lon="6.05819">
        <ele>231</ele>
        <time>2021-07-28T11:30:49Z</time>
      </trkpt>
      <trkpt lat="49.25587" lon="6.05819">
        <ele>231</ele>
        <time>2021-07-28T11:30:50Z</time>
      </trkpt>
      <trkpt lat="49.25587" lon="6.05819">
        <ele>231</ele>
        <time>2021-07-28T11:30:52Z</time>
      </trkpt>
      <trkpt lat="49.25645" lon="6.0588">
        <ele>219</ele>
        <time>2021-07-28T11:32:07Z</time>
      </trkpt>
      <trkpt lat="49.25646" lon="6.05886">
        <ele>218.8</ele>
        <time>2021-07-28T11:32:08Z</time>
      </trkpt>
      <trkpt lat="49.25646" lon="6.05891">
        <ele>218.7</ele>
        <time>2021-07-28T11:32:09Z</time>
      </trkpt>
      <trkpt lat="49.25648" lon="6.05896">
        <ele>218.5</ele>
        <time>2021-07-28T11:32:11Z</time>
      </trkpt>
      <trkpt lat="49.25648" lon="6.05899">
        <ele>218.4</ele>
        <time>2021-07-28T11:32:12Z</time>
      </trkpt>
      <trkpt lat="49.25647" lon="6.059">
        <ele>218.4</ele>
        <time>2021-07-28T11:32:14Z</time>
      </trkpt>
      <trkpt lat="49.25645" lon="6.05899">
        <ele>218.3</ele>
        <time>2021-07-28T11:32:16Z</time>
      </trkpt>
      <trkpt lat="49.25644" lon="6.05896">
        <ele>218.3</ele>
        <time>2021-07-28T11:32:18Z</time>
      </trkpt>
      <trkpt lat="49.25668" lon="6.05877">
        <ele>217.8</ele>
        <time>2021-07-28T11:33:13Z</time>
      </trkpt>
      <trkpt lat="49.25676" lon="6.05874">
        <ele>217.6</ele>
        <time>2021-07-28T11:33:15Z</time>
      </trkpt>
      <trkpt lat="49.25683" lon="6.0587">
        <ele>217.5</ele>
        <time>2021-07-28T11:33:16Z</time>
      </trkpt>
      <trkpt lat="49.25691" lon="6.05865">
        <ele>217.3</ele>
        <time>2021-07-28T11:33:17Z</time>
      </trkpt>
      <trkpt lat="49.25697" lon="6.0586">
        <ele>217.3</ele>
        <time>2021-07-28T11:33:19Z</time>
      </trkpt>
      <trkpt lat="49.257" lon="6.05858">
        <ele>217.3</ele>
        <time>2021-07-28T11:33:20Z</time>
      </trkpt>
      <trkpt lat="49.25704" lon="6.05853">
        <ele>217.2</ele>
        <time>2021-07-28T11:33:21Z</time>
      </trkpt>
      <trkpt lat="49.25706" lon="6.05852">
        <ele>217.2</ele>
        <time>2021-07-28T11:33:22Z</time>
      </trkpt>
      <trkpt lat="49.25708" lon="6.05849">
        <ele>217.2</ele>
        <time>2021-07-28T11:33:23Z</time>
      </trkpt>
      <trkpt lat="49.25711" lon="6.05845">
        <ele>217.1</ele>
        <time>2021-07-28T11:33:24Z</time>
      </trkpt>
      <trkpt lat="49.25714" lon="6.05841">
        <ele>217.1</ele>
        <time>2021-07-28T11:33:25Z</time>
      </trkpt>
      <trkpt lat="49.25717" lon="6.05836">
        <ele>217.1</ele>
        <time>2021-07-28T11:33:27Z</time>
      </trkpt>
      <trkpt lat="49.25718" lon="6.05831">
        <ele>217.1</ele>
        <time>2021-07-28T11:33:28Z</time>
      </trkpt>
      <trkpt lat="49.25719" lon="6.05825">
        <ele>217</ele>
        <time>2021-07-28T11:33:29Z</time>
      </trkpt>
      <trkpt lat="49.25721" lon="6.05816">
        <ele>217</ele>
        <time>2021-07-28T11:33:31Z</time>
      </trkpt>
      <trkpt lat="49.25725" lon="6.0581">
        <ele>217</ele>
        <time>2021-07-28T11:33:33Z</time>
      </trkpt>
      <trkpt lat="49.25729" lon="6.05804">
        <ele>217</ele>
        <time>2021-07-28T11:33:34Z</time>
      </trkpt>
      <trkpt lat="49.25731" lon="6.05799">
        <ele>217</ele>
        <time>2021-07-28T11:33:35Z</time>
      </trkpt>
      <trkpt lat="49.25734" lon="6.05794">
        <ele>217</ele>
        <time>2021-07-28T11:33:36Z</time>
      </trkpt>
      <trkpt lat="49.25735" lon="6.0579">
        <ele>217</ele>
        <time>2021-07-28T11:33:37Z</time>
      </trkpt>
      <trkpt lat="49.25737" lon="6.05786">
        <ele>217</ele>
        <time>2021-07-28T11:33:38Z</time>
      </trkpt>
      <trkpt lat="49.25742" lon="6.05779">
        <ele>217</ele>
        <time>2021-07-28T11:33:40Z</time>
      </trkpt>
      <trkpt lat="49.25744" lon="6.05775">
        <ele>217</ele>
        <time>2021-07-28T11:33:41Z</time>
      </trkpt>
      <trkpt lat="49.25747" lon="6.05771">
        <ele>217.1</ele>
        <time>2021-07-28T11:33:42Z</time>
      </trkpt>
      <trkpt lat="49.25749" lon="6.05767">
        <ele>217.1</ele>
        <time>2021-07-28T11:33:43Z</time>
      </trkpt>
      <trkpt lat="49.25752" lon="6.05762">
        <ele>217.1</ele>
        <time>2021-07-28T11:33:44Z</time>
      </trkpt>
      <trkpt lat="49.25756" lon="6.05756">
        <ele>217.1</ele>
        <time>2021-07-28T11:33:46Z</time>
      </trkpt>
      <trkpt lat="49.25759" lon="6.05754">
        <ele>217.1</ele>
        <time>2021-07-28T11:33:47Z</time>
      </trkpt>
      <trkpt lat="49.25762" lon="6.05751">
        <ele>217.1</ele>
        <time>2021-07-28T11:33:48Z</time>
      </trkpt>
      <trkpt lat="49.25765" lon="6.05748">
        <ele>217.1</ele>
        <time>2021-07-28T11:33:49Z</time>
      </trkpt>
      <trkpt lat="49.25769" lon="6.05744">
        <ele>217.1</ele>
        <time>2021-07-28T11:33:51Z</time>
      </trkpt>
      <trkpt lat="49.25772" lon="6.05741">
        <ele>217.1</ele>
        <time>2021-07-28T11:33:52Z</time>
      </trkpt>
      <trkpt lat="49.25773" lon="6.0574">
        <ele>217.1</ele>
        <time>2021-07-28T11:33:53Z</time>
      </trkpt>
      <trkpt lat="49.25777" lon="6.05733">
        <ele>217.1</ele>
        <time>2021-07-28T11:33:55Z</time>
      </trkpt>
      <trkpt lat="49.25783" lon="6.05727">
        <ele>217.1</ele>
        <time>2021-07-28T11:33:57Z</time>
      </trkpt>
      <trkpt lat="49.25788" lon="6.05722">
        <ele>217.1</ele>
        <time>2021-07-28T11:33:58Z</time>
      </trkpt>
      <trkpt lat="49.25793" lon="6.05718">
        <ele>217.1</ele>
        <time>2021-07-28T11:33:59Z</time>
      </trkpt>
      <trkpt lat="49.25801" lon="6.05712">
        <ele>217.2</ele>
        <time>2021-07-28T11:34:01Z</time>
      </trkpt>
      <trkpt lat="49.25808" lon="6.05709">
        <ele>217</ele>
        <time>2021-07-28T11:34:02Z</time>
      </trkpt>
      <trkpt lat="49.25814" lon="6.05709">
        <ele>216</ele>
        <time>2021-07-28T11:34:03Z</time>
      </trkpt>
      <trkpt lat="49.25825" lon="6.05707">
        <ele>215.5</ele>
        <time>2021-07-28T11:34:05Z</time>
      </trkpt>
      <trkpt lat="49.25835" lon="6.05704">
        <ele>214.1</ele>
        <time>2021-07-28T11:34:07Z</time>
      </trkpt>
      <trkpt lat="49.25841" lon="6.05702">
        <ele>214.1</ele>
        <time>2021-07-28T11:34:09Z</time>
      </trkpt>
      <trkpt lat="49.25846" lon="6.057">
        <ele>213.4</ele>
        <time>2021-07-28T11:34:10Z</time>
      </trkpt>
      <trkpt lat="49.25856" lon="6.05695">
        <ele>213.4</ele>
        <time>2021-07-28T11:34:11Z</time>
      </trkpt>
      <trkpt lat="49.25861" lon="6.05694">
        <ele>213.6</ele>
        <time>2021-07-28T11:34:12Z</time>
      </trkpt>
      <trkpt lat="49.25867" lon="6.05686">
        <ele>214</ele>
        <time>2021-07-28T11:34:14Z</time>
      </trkpt>
      <trkpt lat="49.25871" lon="6.05685">
        <ele>214.5</ele>
        <time>2021-07-28T11:34:15Z</time>
      </trkpt>
      <trkpt lat="49.25875" lon="6.05684">
        <ele>214.2</ele>
        <time>2021-07-28T11:34:16Z</time>
      </trkpt>
      <trkpt lat="49.25883" lon="6.0568">
        <ele>214.4</ele>
        <time>2021-07-28T11:34:18Z</time>
      </trkpt>
      <trkpt lat="49.25893" lon="6.05676">
        <ele>214.4</ele>
        <time>2021-07-28T11:34:19Z</time>
      </trkpt>
      <trkpt lat="49.259" lon="6.05674">
        <ele>213.9</ele>
        <time>2021-07-28T11:34:20Z</time>
      </trkpt>
      <trkpt lat="49.25908" lon="6.05674">
        <ele>213.3</ele>
        <time>2021-07-28T11:34:22Z</time>
      </trkpt>
      <trkpt lat="49.25913" lon="6.05674">
        <ele>212.9</ele>
        <time>2021-07-28T11:34:23Z</time>
      </trkpt>
      <trkpt lat="49.25918" lon="6.05674">
        <ele>212.5</ele>
        <time>2021-07-28T11:34:24Z</time>
      </trkpt>
      <trkpt lat="49.25924" lon="6.05674">
        <ele>212.3</ele>
        <time>2021-07-28T11:34:25Z</time>
      </trkpt>
      <trkpt lat="49.25929" lon="6.05673">
        <ele>212.2</ele>
        <time>2021-07-28T11:34:27Z</time>
      </trkpt>
      <trkpt lat="49.25935" lon="6.05671">
        <ele>212.9</ele>
        <time>2021-07-28T11:34:28Z</time>
      </trkpt>
      <trkpt lat="49.25938" lon="6.0567">
        <ele>212.8</ele>
        <time>2021-07-28T11:34:29Z</time>
      </trkpt>
      <trkpt lat="49.25943" lon="6.05668">
        <ele>213.4</ele>
        <time>2021-07-28T11:34:30Z</time>
      </trkpt>
      <trkpt lat="49.25949" lon="6.05667">
        <ele>213.6</ele>
        <time>2021-07-28T11:34:32Z</time>
      </trkpt>
      <trkpt lat="49.25956" lon="6.05662">
        <ele>214.3</ele>
        <time>2021-07-28T11:34:34Z</time>
      </trkpt>
      <trkpt lat="49.2596" lon="6.05658">
        <ele>214.9</ele>
        <time>2021-07-28T11:34:35Z</time>
      </trkpt>
      <trkpt lat="49.25966" lon="6.05654">
        <ele>215.6</ele>
        <time>2021-07-28T11:34:37Z</time>
      </trkpt>
      <trkpt lat="49.2597" lon="6.05652">
        <ele>215.4</ele>
        <time>2021-07-28T11:34:38Z</time>
      </trkpt>
      <trkpt lat="49.25973" lon="6.0565">
        <ele>216</ele>
        <time>2021-07-28T11:34:39Z</time>
      </trkpt>
      <trkpt lat="49.25977" lon="6.05649">
        <ele>215.9</ele>
        <time>2021-07-28T11:34:40Z</time>
      </trkpt>
      <trkpt lat="49.25982" lon="6.05649">
        <ele>215.7</ele>
        <time>2021-07-28T11:34:41Z</time>
      </trkpt>
      <trkpt lat="49.25987" lon="6.05648">
        <ele>215.6</ele>
        <time>2021-07-28T11:34:43Z</time>
      </trkpt>
      <trkpt lat="49.25991" lon="6.05648">
        <ele>215.5</ele>
        <time>2021-07-28T11:34:44Z</time>
      </trkpt>
      <trkpt lat="49.25996" lon="6.05647">
        <ele>216.1</ele>
        <time>2021-07-28T11:34:45Z</time>
      </trkpt>
      <trkpt lat="49.26001" lon="6.05645">
        <ele>216</ele>
        <time>2021-07-28T11:34:46Z</time>
      </trkpt>
      <trkpt lat="49.26005" lon="6.05644">
        <ele>216</ele>
        <time>2021-07-28T11:34:48Z</time>
      </trkpt>
      <trkpt lat="49.26009" lon="6.05641">
        <ele>216.6</ele>
        <time>2021-07-28T11:34:49Z</time>
      </trkpt>
      <trkpt lat="49.26015" lon="6.05636">
        <ele>217.5</ele>
        <time>2021-07-28T11:34:51Z</time>
      </trkpt>
      <trkpt lat="49.2602" lon="6.05635">
        <ele>217.4</ele>
        <time>2021-07-28T11:34:53Z</time>
      </trkpt>
      <trkpt lat="49.26024" lon="6.05635">
        <ele>217.2</ele>
        <time>2021-07-28T11:34:54Z</time>
      </trkpt>
      <trkpt lat="49.26028" lon="6.05635">
        <ele>217.1</ele>
        <time>2021-07-28T11:34:55Z</time>
      </trkpt>
      <trkpt lat="49.26029" lon="6.05635">
        <ele>216.9</ele>
        <time>2021-07-28T11:34:56Z</time>
      </trkpt>
      <trkpt lat="49.26032" lon="6.05636">
        <ele>216.7</ele>
        <time>2021-07-28T11:34:57Z</time>
      </trkpt>
      <trkpt lat="49.26037" lon="6.05637">
        <ele>216.6</ele>
        <time>2021-07-28T11:34:59Z</time>
      </trkpt>
      <trkpt lat="49.26039" lon="6.05637">
        <ele>216.4</ele>
        <time>2021-07-28T11:35:00Z</time>
      </trkpt>
      <trkpt lat="49.26044" lon="6.05637">
        <ele>216.2</ele>
        <time>2021-07-28T11:35:01Z</time>
      </trkpt>
      <trkpt lat="49.26049" lon="6.05637">
        <ele>216</ele>
        <time>2021-07-28T11:35:02Z</time>
      </trkpt>
      <trkpt lat="49.26054" lon="6.05636">
        <ele>215.8</ele>
        <time>2021-07-28T11:35:03Z</time>
      </trkpt>
      <trkpt lat="49.26059" lon="6.05633">
        <ele>216.5</ele>
        <time>2021-07-28T11:35:05Z</time>
      </trkpt>
      <trkpt lat="49.26065" lon="6.05632">
        <ele>216.2</ele>
        <time>2021-07-28T11:35:06Z</time>
      </trkpt>
      <trkpt lat="49.26071" lon="6.05633">
        <ele>216</ele>
        <time>2021-07-28T11:35:08Z</time>
      </trkpt>
      <trkpt lat="49.26075" lon="6.05632">
        <ele>215.7</ele>
        <time>2021-07-28T11:35:09Z</time>
      </trkpt>
      <trkpt lat="49.2608" lon="6.05631">
        <ele>215.5</ele>
        <time>2021-07-28T11:35:11Z</time>
      </trkpt>
      <trkpt lat="49.26084" lon="6.05628">
        <ele>215.9</ele>
        <time>2021-07-28T11:35:12Z</time>
      </trkpt>
      <trkpt lat="49.26086" lon="6.05627">
        <ele>215.7</ele>
        <time>2021-07-28T11:35:13Z</time>
      </trkpt>
      <trkpt lat="49.26089" lon="6.05627">
        <ele>215.4</ele>
        <time>2021-07-28T11:35:15Z</time>
      </trkpt>
      <trkpt lat="49.26093" lon="6.05628">
        <ele>215.1</ele>
        <time>2021-07-28T11:35:16Z</time>
      </trkpt>
      <trkpt lat="49.26094" lon="6.05628">
        <ele>214.8</ele>
        <time>2021-07-28T11:35:17Z</time>
      </trkpt>
      <trkpt lat="49.26097" lon="6.05629">
        <ele>214.6</ele>
        <time>2021-07-28T11:35:19Z</time>
      </trkpt>
      <trkpt lat="49.26101" lon="6.05628">
        <ele>214.3</ele>
        <time>2021-07-28T11:35:20Z</time>
      </trkpt>
      <trkpt lat="49.26104" lon="6.05626">
        <ele>214</ele>
        <time>2021-07-28T11:35:21Z</time>
      </trkpt>
      <trkpt lat="49.26108" lon="6.05622">
        <ele>214.2</ele>
        <time>2021-07-28T11:35:23Z</time>
      </trkpt>
      <trkpt lat="49.26111" lon="6.05619">
        <ele>214.5</ele>
        <time>2021-07-28T11:35:24Z</time>
      </trkpt>
      <trkpt lat="49.26113" lon="6.05617">
        <ele>214.7</ele>
        <time>2021-07-28T11:35:25Z</time>
      </trkpt>
      <trkpt lat="49.26118" lon="6.05614">
        <ele>214.3</ele>
        <time>2021-07-28T11:35:27Z</time>
      </trkpt>
      <trkpt lat="49.2612" lon="6.05612">
        <ele>214.5</ele>
        <time>2021-07-28T11:35:28Z</time>
      </trkpt>
      <trkpt lat="49.26124" lon="6.0561">
        <ele>214.2</ele>
        <time>2021-07-28T11:35:30Z</time>
      </trkpt>
      <trkpt lat="49.26126" lon="6.05607">
        <ele>214.3</ele>
        <time>2021-07-28T11:35:31Z</time>
      </trkpt>
      <trkpt lat="49.26127" lon="6.05606">
        <ele>214.1</ele>
        <time>2021-07-28T11:35:32Z</time>
      </trkpt>
      <trkpt lat="49.26128" lon="6.05606">
        <ele>213.7</ele>
        <time>2021-07-28T11:35:34Z</time>
      </trkpt>
      <trkpt lat="49.26129" lon="6.05606">
        <ele>213.5</ele>
        <time>2021-07-28T11:35:35Z</time>
      </trkpt>
      <trkpt lat="49.26129" lon="6.05606">
        <ele>213.2</ele>
        <time>2021-07-28T11:35:36Z</time>
      </trkpt>
      <trkpt lat="49.2613" lon="6.05606">
        <ele>212.9</ele>
        <time>2021-07-28T11:35:37Z</time>
      </trkpt>
      <trkpt lat="49.2613" lon="6.05606">
        <ele>212.6</ele>
        <time>2021-07-28T11:35:38Z</time>
      </trkpt>
      <trkpt lat="49.26131" lon="6.05606">
        <ele>212.4</ele>
        <time>2021-07-28T11:35:39Z</time>
      </trkpt>
      <trkpt lat="49.26131" lon="6.05606">
        <ele>212</ele>
        <time>2021-07-28T11:35:40Z</time>
      </trkpt>
      <trkpt lat="49.26133" lon="6.05606">
        <ele>211.8</ele>
        <time>2021-07-28T11:35:41Z</time>
      </trkpt>
      <trkpt lat="49.26143" lon="6.05607">
        <ele>211.2</ele>
        <time>2021-07-28T11:35:46Z</time>
      </trkpt>
      <trkpt lat="49.26148" lon="6.05608">
        <ele>211</ele>
        <time>2021-07-28T11:35:47Z</time>
      </trkpt>
      <trkpt lat="49.26152" lon="6.0561">
        <ele>210.8</ele>
        <time>2021-07-28T11:35:48Z</time>
      </trkpt>
      <trkpt lat="49.26161" lon="6.05613">
        <ele>210.6</ele>
        <time>2021-07-28T11:35:50Z</time>
      </trkpt>
      <trkpt lat="49.26167" lon="6.05615">
        <ele>210.5</ele>
        <time>2021-07-28T11:35:51Z</time>
      </trkpt>
      <trkpt lat="49.26176" lon="6.05617">
        <ele>210.4</ele>
        <time>2021-07-28T11:35:53Z</time>
      </trkpt>
      <trkpt lat="49.26181" lon="6.0562">
        <ele>210.3</ele>
        <time>2021-07-28T11:35:54Z</time>
      </trkpt>
      <trkpt lat="49.26185" lon="6.05623">
        <ele>210.2</ele>
        <time>2021-07-28T11:35:55Z</time>
      </trkpt>
      <trkpt lat="49.26189" lon="6.05629">
        <ele>210.2</ele>
        <time>2021-07-28T11:35:57Z</time>
      </trkpt>
      <trkpt lat="49.26189" lon="6.0563">
        <ele>210.2</ele>
        <time>2021-07-28T11:35:58Z</time>
      </trkpt>
      <trkpt lat="49.26189" lon="6.05629">
        <ele>210.2</ele>
        <time>2021-07-28T11:36:00Z</time>
      </trkpt>
      <trkpt lat="49.26188" lon="6.0563">
        <ele>210.2</ele>
        <time>2021-07-28T11:36:01Z</time>
      </trkpt>
      <trkpt lat="49.26189" lon="6.05631">
        <ele>210.2</ele>
        <time>2021-07-28T11:36:02Z</time>
      </trkpt>
      <trkpt lat="49.2619" lon="6.05633">
        <ele>210.2</ele>
        <time>2021-07-28T11:36:04Z</time>
      </trkpt>
      <trkpt lat="49.26191" lon="6.05635">
        <ele>210.2</ele>
        <time>2021-07-28T11:36:05Z</time>
      </trkpt>
      <trkpt lat="49.26192" lon="6.05638">
        <ele>210.2</ele>
        <time>2021-07-28T11:36:06Z</time>
      </trkpt>
      <trkpt lat="49.26192" lon="6.05643">
        <ele>210.2</ele>
        <time>2021-07-28T11:36:08Z</time>
      </trkpt>
      <trkpt lat="49.2619" lon="6.05648">
        <ele>210.2</ele>
        <time>2021-07-28T11:36:10Z</time>
      </trkpt>
      <trkpt lat="49.2619" lon="6.05648">
        <ele>210.2</ele>
        <time>2021-07-28T11:36:11Z</time>
      </trkpt>
      <trkpt lat="49.26189" lon="6.05647">
        <ele>210.2</ele>
        <time>2021-07-28T11:36:13Z</time>
      </trkpt>
      <trkpt lat="49.26189" lon="6.05647">
        <ele>210.2</ele>
        <time>2021-07-28T11:36:14Z</time>
      </trkpt>
      <trkpt lat="49.26188" lon="6.05647">
        <ele>210.2</ele>
        <time>2021-07-28T11:36:15Z</time>
      </trkpt>
      <trkpt lat="49.26189" lon="6.05645">
        <ele>210.2</ele>
        <time>2021-07-28T11:36:17Z</time>
      </trkpt>
      <trkpt lat="49.2619" lon="6.05644">
        <ele>210.2</ele>
        <time>2021-07-28T11:36:18Z</time>
      </trkpt>
      <trkpt lat="49.26194" lon="6.05629">
        <ele>210.2</ele>
        <time>2021-07-28T11:36:25Z</time>
      </trkpt>
      <trkpt lat="49.26196" lon="6.05625">
        <ele>210.2</ele>
        <time>2021-07-28T11:36:27Z</time>
      </trkpt>
      <trkpt lat="49.26196" lon="6.05624">
        <ele>210.2</ele>
        <time>2021-07-28T11:36:28Z</time>
      </trkpt>
      <trkpt lat="49.26198" lon="6.05622">
        <ele>210.2</ele>
        <time>2021-07-28T11:36:30Z</time>
      </trkpt>
      <trkpt lat="49.26199" lon="6.05621">
        <ele>210.2</ele>
        <time>2021-07-28T11:36:31Z</time>
      </trkpt>
      <trkpt lat="49.26202" lon="6.05619">
        <ele>210.2</ele>
        <time>2021-07-28T11:36:33Z</time>
      </trkpt>
      <trkpt lat="49.26204" lon="6.05616">
        <ele>210.2</ele>
        <time>2021-07-28T11:36:35Z</time>
      </trkpt>
      <trkpt lat="49.26205" lon="6.05616">
        <ele>210.2</ele>
        <time>2021-07-28T11:36:36Z</time>
      </trkpt>
      <trkpt lat="49.26205" lon="6.05616">
        <ele>210.2</ele>
        <time>2021-07-28T11:36:37Z</time>
      </trkpt>
      <trkpt lat="49.26204" lon="6.05616">
        <ele>210.2</ele>
        <time>2021-07-28T11:36:39Z</time>
      </trkpt>
      <trkpt lat="49.26204" lon="6.05615">
        <ele>210.2</ele>
        <time>2021-07-28T11:36:40Z</time>
      </trkpt>
      <trkpt lat="49.26204" lon="6.05615">
        <ele>210.2</ele>
        <time>2021-07-28T11:36:42Z</time>
      </trkpt>
      <trkpt lat="49.26208" lon="6.05609">
        <ele>210.2</ele>
        <time>2021-07-28T11:36:43Z</time>
      </trkpt>
      <trkpt lat="49.262" lon="6.0561">
        <ele>210.2</ele>
        <time>2021-07-28T11:36:49Z</time>
      </trkpt>
      <trkpt lat="49.26195" lon="6.05614">
        <ele>210.2</ele>
        <time>2021-07-28T11:36:51Z</time>
      </trkpt>
      <trkpt lat="49.2619" lon="6.05618">
        <ele>210</ele>
        <time>2021-07-28T11:36:52Z</time>
      </trkpt>
      <trkpt lat="49.26186" lon="6.05619">
        <ele>209.9</ele>
        <time>2021-07-28T11:36:53Z</time>
      </trkpt>
      <trkpt lat="49.26179" lon="6.05622">
        <ele>209.6</ele>
        <time>2021-07-28T11:36:54Z</time>
      </trkpt>
      <trkpt lat="49.26167" lon="6.05628">
        <ele>209.1</ele>
        <time>2021-07-28T11:36:56Z</time>
      </trkpt>
      <trkpt lat="49.26162" lon="6.05631">
        <ele>208.9</ele>
        <time>2021-07-28T11:36:57Z</time>
      </trkpt>
      <trkpt lat="49.26154" lon="6.05639">
        <ele>208.4</ele>
        <time>2021-07-28T11:36:59Z</time>
      </trkpt>
      <trkpt lat="49.26145" lon="6.05646">
        <ele>207.8</ele>
        <time>2021-07-28T11:37:01Z</time>
      </trkpt>
      <trkpt lat="49.2614" lon="6.05649">
        <ele>207.5</ele>
        <time>2021-07-28T11:37:02Z</time>
      </trkpt>
      <trkpt lat="49.26134" lon="6.05656">
        <ele>207.1</ele>
        <time>2021-07-28T11:37:04Z</time>
      </trkpt>
      <trkpt lat="49.26134" lon="6.05659">
        <ele>207</ele>
        <time>2021-07-28T11:37:05Z</time>
      </trkpt>
      <trkpt lat="49.26129" lon="6.05663">
        <ele>206.6</ele>
        <time>2021-07-28T11:37:07Z</time>
      </trkpt>
      <trkpt lat="49.26124" lon="6.05669">
        <ele>206.2</ele>
        <time>2021-07-28T11:37:09Z</time>
      </trkpt>
      <trkpt lat="49.26123" lon="6.05674">
        <ele>206</ele>
        <time>2021-07-28T11:37:10Z</time>
      </trkpt>
      <trkpt lat="49.26123" lon="6.05678">
        <ele>205.8</ele>
        <time>2021-07-28T11:37:11Z</time>
      </trkpt>
      <trkpt lat="49.26123" lon="6.05684">
        <ele>205.6</ele>
        <time>2021-07-28T11:37:12Z</time>
      </trkpt>
      <trkpt lat="49.26123" lon="6.05687">
        <ele>205.5</ele>
        <time>2021-07-28T11:37:13Z</time>
      </trkpt>
      <trkpt lat="49.26123" lon="6.05692">
        <ele>205.3</ele>
        <time>2021-07-28T11:37:15Z</time>
      </trkpt>
      <trkpt lat="49.26122" lon="6.05694">
        <ele>205.2</ele>
        <time>2021-07-28T11:37:16Z</time>
      </trkpt>
      <trkpt lat="49.26122" lon="6.05697">
        <ele>205</ele>
        <time>2021-07-28T11:37:17Z</time>
      </trkpt>
      <trkpt lat="49.26121" lon="6.05701">
        <ele>204.8</ele>
        <time>2021-07-28T11:37:19Z</time>
      </trkpt>
      <trkpt lat="49.2612" lon="6.05703">
        <ele>204.8</ele>
        <time>2021-07-28T11:37:20Z</time>
      </trkpt>
      <trkpt lat="49.2612" lon="6.05701">
        <ele>204.7</ele>
        <time>2021-07-28T11:37:21Z</time>
      </trkpt>
      <trkpt lat="49.26121" lon="6.057">
        <ele>204.6</ele>
        <time>2021-07-28T11:37:23Z</time>
      </trkpt>
      <trkpt lat="49.26121" lon="6.057">
        <ele>204.6</ele>
        <time>2021-07-28T11:37:24Z</time>
      </trkpt>
      <trkpt lat="49.26121" lon="6.05699">
        <ele>204.6</ele>
        <time>2021-07-28T11:37:26Z</time>
      </trkpt>
      <trkpt lat="49.26121" lon="6.05698">
        <ele>204.5</ele>
        <time>2021-07-28T11:37:27Z</time>
      </trkpt>
      <trkpt lat="49.26122" lon="6.05694">
        <ele>204.3</ele>
        <time>2021-07-28T11:37:29Z</time>
      </trkpt>
      <trkpt lat="49.26123" lon="6.0569">
        <ele>204.1</ele>
        <time>2021-07-28T11:37:31Z</time>
      </trkpt>
      <trkpt lat="49.26124" lon="6.05684">
        <ele>203.8</ele>
        <time>2021-07-28T11:37:34Z</time>
      </trkpt>
      <trkpt lat="49.26121" lon="6.05678">
        <ele>203.5</ele>
        <time>2021-07-28T11:37:36Z</time>
      </trkpt>
      <trkpt lat="49.26114" lon="6.05673">
        <ele>203</ele>
        <time>2021-07-28T11:37:38Z</time>
      </trkpt>
      <trkpt lat="49.26107" lon="6.05669">
        <ele>202.3</ele>
        <time>2021-07-28T11:37:39Z</time>
      </trkpt>
      <trkpt lat="49.26096" lon="6.05672">
        <ele>201.3</ele>
        <time>2021-07-28T11:37:41Z</time>
      </trkpt>
      <trkpt lat="49.2609" lon="6.05675">
        <ele>200.7</ele>
        <time>2021-07-28T11:37:42Z</time>
      </trkpt>
      <trkpt lat="49.26086" lon="6.05678">
        <ele>200.3</ele>
        <time>2021-07-28T11:37:43Z</time>
      </trkpt>
      <trkpt lat="49.26076" lon="6.05684">
        <ele>199.5</ele>
        <time>2021-07-28T11:37:45Z</time>
      </trkpt>
      <trkpt lat="49.26071" lon="6.05687">
        <ele>199.1</ele>
        <time>2021-07-28T11:37:46Z</time>
      </trkpt>
      <trkpt lat="49.26061" lon="6.05692">
        <ele>198.4</ele>
        <time>2021-07-28T11:37:48Z</time>
      </trkpt>
      <trkpt lat="49.26052" lon="6.05697">
        <ele>197.8</ele>
        <time>2021-07-28T11:37:50Z</time>
      </trkpt>
      <trkpt lat="49.26042" lon="6.05702">
        <ele>197.2</ele>
        <time>2021-07-28T11:37:52Z</time>
      </trkpt>
      <trkpt lat="49.26031" lon="6.05705">
        <ele>196.7</ele>
        <time>2021-07-28T11:37:54Z</time>
      </trkpt>
      <trkpt lat="49.26025" lon="6.05705">
        <ele>196.4</ele>
        <time>2021-07-28T11:37:55Z</time>
      </trkpt>
      <trkpt lat="49.26014" lon="6.05708">
        <ele>195.9</ele>
        <time>2021-07-28T11:37:57Z</time>
      </trkpt>
      <trkpt lat="49.26009" lon="6.05709">
        <ele>195.7</ele>
        <time>2021-07-28T11:37:58Z</time>
      </trkpt>
      <trkpt lat="49.26005" lon="6.0571">
        <ele>195.6</ele>
        <time>2021-07-28T11:37:59Z</time>
      </trkpt>
      <trkpt lat="49.25998" lon="6.05712">
        <ele>195.3</ele>
        <time>2021-07-28T11:38:01Z</time>
      </trkpt>
      <trkpt lat="49.25995" lon="6.05713">
        <ele>195.1</ele>
        <time>2021-07-28T11:38:02Z</time>
      </trkpt>
      <trkpt lat="49.25993" lon="6.05714">
        <ele>195</ele>
        <time>2021-07-28T11:38:03Z</time>
      </trkpt>
      <trkpt lat="49.25989" lon="6.05718">
        <ele>194.8</ele>
        <time>2021-07-28T11:38:04Z</time>
      </trkpt>
      <trkpt lat="49.25983" lon="6.05724">
        <ele>194.5</ele>
        <time>2021-07-28T11:38:06Z</time>
      </trkpt>
      <trkpt lat="49.2598" lon="6.05726">
        <ele>194.4</ele>
        <time>2021-07-28T11:38:07Z</time>
      </trkpt>
      <trkpt lat="49.25976" lon="6.05728">
        <ele>194.2</ele>
        <time>2021-07-28T11:38:08Z</time>
      </trkpt>
      <trkpt lat="49.2597" lon="6.05732">
        <ele>193.9</ele>
        <time>2021-07-28T11:38:10Z</time>
      </trkpt>
      <trkpt lat="49.25965" lon="6.05733">
        <ele>193.7</ele>
        <time>2021-07-28T11:38:12Z</time>
      </trkpt>
      <trkpt lat="49.25961" lon="6.05733">
        <ele>193.6</ele>
        <time>2021-07-28T11:38:13Z</time>
      </trkpt>
      <trkpt lat="49.25955" lon="6.0574">
        <ele>193.2</ele>
        <time>2021-07-28T11:38:15Z</time>
      </trkpt>
      <trkpt lat="49.2595" lon="6.05745">
        <ele>193.6</ele>
        <time>2021-07-28T11:38:16Z</time>
      </trkpt>
      <trkpt lat="49.25948" lon="6.05751">
        <ele>193.8</ele>
        <time>2021-07-28T11:38:17Z</time>
      </trkpt>
      <trkpt lat="49.25947" lon="6.05759">
        <ele>194.2</ele>
        <time>2021-07-28T11:38:19Z</time>
      </trkpt>
      <trkpt lat="49.25946" lon="6.05764">
        <ele>194.5</ele>
        <time>2021-07-28T11:38:20Z</time>
      </trkpt>
      <trkpt lat="49.25945" lon="6.0577">
        <ele>194.9</ele>
        <time>2021-07-28T11:38:22Z</time>
      </trkpt>
      <trkpt lat="49.25945" lon="6.05776">
        <ele>195.2</ele>
        <time>2021-07-28T11:38:23Z</time>
      </trkpt>
      <trkpt lat="49.25947" lon="6.05783">
        <ele>195.7</ele>
        <time>2021-07-28T11:38:24Z</time>
      </trkpt>
      <trkpt lat="49.25948" lon="6.0579">
        <ele>196.2</ele>
        <time>2021-07-28T11:38:26Z</time>
      </trkpt>
      <trkpt lat="49.25949" lon="6.05796">
        <ele>196.6</ele>
        <time>2021-07-28T11:38:27Z</time>
      </trkpt>
      <trkpt lat="49.25949" lon="6.05803">
        <ele>197.2</ele>
        <time>2021-07-28T11:38:28Z</time>
      </trkpt>
      <trkpt lat="49.25949" lon="6.05807">
        <ele>197.5</ele>
        <time>2021-07-28T11:38:30Z</time>
      </trkpt>
      <trkpt lat="49.25948" lon="6.05807">
        <ele>197.3</ele>
        <time>2021-07-28T11:38:31Z</time>
      </trkpt>
      <trkpt lat="49.25948" lon="6.05807">
        <ele>197.3</ele>
        <time>2021-07-28T11:38:33Z</time>
      </trkpt>
      <trkpt lat="49.25948" lon="6.05806">
        <ele>197.3</ele>
        <time>2021-07-28T11:38:34Z</time>
      </trkpt>
      <trkpt lat="49.25948" lon="6.05807">
        <ele>197.2</ele>
        <time>2021-07-28T11:38:35Z</time>
      </trkpt>
      <trkpt lat="49.25947" lon="6.05807">
        <ele>197.2</ele>
        <time>2021-07-28T11:38:36Z</time>
      </trkpt>
      <trkpt lat="49.25944" lon="6.05804">
        <ele>197.1</ele>
        <time>2021-07-28T11:38:38Z</time>
      </trkpt>
      <trkpt lat="49.25941" lon="6.05802">
        <ele>197</ele>
        <time>2021-07-28T11:38:39Z</time>
      </trkpt>
      <trkpt lat="49.25937" lon="6.05801">
        <ele>196.9</ele>
        <time>2021-07-28T11:38:40Z</time>
      </trkpt>
      <trkpt lat="49.25933" lon="6.05801">
        <ele>196.8</ele>
        <time>2021-07-28T11:38:41Z</time>
      </trkpt>
      <trkpt lat="49.2593" lon="6.05802">
        <ele>196.7</ele>
        <time>2021-07-28T11:38:43Z</time>
      </trkpt>
      <trkpt lat="49.25927" lon="6.05801">
        <ele>196.6</ele>
        <time>2021-07-28T11:38:44Z</time>
      </trkpt>
      <trkpt lat="49.25924" lon="6.05799">
        <ele>196.5</ele>
        <time>2021-07-28T11:38:45Z</time>
      </trkpt>
      <trkpt lat="49.25922" lon="6.05796">
        <ele>196.5</ele>
        <time>2021-07-28T11:38:46Z</time>
      </trkpt>
      <trkpt lat="49.25919" lon="6.05794">
        <ele>196.4</ele>
        <time>2021-07-28T11:38:47Z</time>
      </trkpt>
      <trkpt lat="49.25916" lon="6.05791">
        <ele>196.2</ele>
        <time>2021-07-28T11:38:49Z</time>
      </trkpt>
      <trkpt lat="49.25914" lon="6.05791">
        <ele>196.2</ele>
        <time>2021-07-28T11:38:50Z</time>
      </trkpt>
      <trkpt lat="49.25912" lon="6.05791">
        <ele>196.1</ele>
        <time>2021-07-28T11:38:51Z</time>
      </trkpt>
      <trkpt lat="49.25908" lon="6.05793">
        <ele>195.9</ele>
        <time>2021-07-28T11:38:53Z</time>
      </trkpt>
      <trkpt lat="49.25904" lon="6.05797">
        <ele>195.7</ele>
        <time>2021-07-28T11:38:54Z</time>
      </trkpt>
      <trkpt lat="49.25901" lon="6.05805">
        <ele>195.4</ele>
        <time>2021-07-28T11:38:56Z</time>
      </trkpt>
      <trkpt lat="49.25898" lon="6.05811">
        <ele>195.1</ele>
        <time>2021-07-28T11:38:57Z</time>
      </trkpt>
      <trkpt lat="49.25894" lon="6.05817">
        <ele>194.8</ele>
        <time>2021-07-28T11:38:58Z</time>
      </trkpt>
      <trkpt lat="49.25892" lon="6.05822">
        <ele>194.6</ele>
        <time>2021-07-28T11:38:59Z</time>
      </trkpt>
      <trkpt lat="49.2589" lon="6.0583">
        <ele>194.3</ele>
        <time>2021-07-28T11:39:00Z</time>
      </trkpt>
      <trkpt lat="49.25887" lon="6.05838">
        <ele>193.9</ele>
        <time>2021-07-28T11:39:01Z</time>
      </trkpt>
      <trkpt lat="49.25884" lon="6.05846">
        <ele>193.6</ele>
        <time>2021-07-28T11:39:03Z</time>
      </trkpt>
      <trkpt lat="49.25881" lon="6.05843">
        <ele>193.5</ele>
        <time>2021-07-28T11:39:04Z</time>
      </trkpt>
      <trkpt lat="49.25878" lon="6.05854">
        <ele>193.2</ele>
        <time>2021-07-28T11:39:06Z</time>
      </trkpt>
      <trkpt lat="49.25875" lon="6.05864">
        <ele>193</ele>
        <time>2021-07-28T11:39:07Z</time>
      </trkpt>
      <trkpt lat="49.25873" lon="6.05872">
        <ele>192.8</ele>
        <time>2021-07-28T11:39:08Z</time>
      </trkpt>
      <trkpt lat="49.2587" lon="6.05881">
        <ele>192.6</ele>
        <time>2021-07-28T11:39:10Z</time>
      </trkpt>
      <trkpt lat="49.25869" lon="6.05887">
        <ele>192.4</ele>
        <time>2021-07-28T11:39:11Z</time>
      </trkpt>
      <trkpt lat="49.25868" lon="6.05893">
        <ele>192.3</ele>
        <time>2021-07-28T11:39:13Z</time>
      </trkpt>
      <trkpt lat="49.25868" lon="6.05899">
        <ele>192.2</ele>
        <time>2021-07-28T11:39:14Z</time>
      </trkpt>
      <trkpt lat="49.25868" lon="6.05904">
        <ele>192.1</ele>
        <time>2021-07-28T11:39:15Z</time>
      </trkpt>
      <trkpt lat="49.25867" lon="6.05909">
        <ele>192</ele>
        <time>2021-07-28T11:39:17Z</time>
      </trkpt>
      <trkpt lat="49.25865" lon="6.05914">
        <ele>191.9</ele>
        <time>2021-07-28T11:39:18Z</time>
      </trkpt>
      <trkpt lat="49.25863" lon="6.05921">
        <ele>191.8</ele>
        <time>2021-07-28T11:39:19Z</time>
      </trkpt>
      <trkpt lat="49.25862" lon="6.05929">
        <ele>191.6</ele>
        <time>2021-07-28T11:39:21Z</time>
      </trkpt>
      <trkpt lat="49.2586" lon="6.05937">
        <ele>191.5</ele>
        <time>2021-07-28T11:39:22Z</time>
      </trkpt>
      <trkpt lat="49.25858" lon="6.05941">
        <ele>191.4</ele>
        <time>2021-07-28T11:39:23Z</time>
      </trkpt>
      <trkpt lat="49.25855" lon="6.05949">
        <ele>191.2</ele>
        <time>2021-07-28T11:39:25Z</time>
      </trkpt>
      <trkpt lat="49.25853" lon="6.05954">
        <ele>191.1</ele>
        <time>2021-07-28T11:39:26Z</time>
      </trkpt>
      <trkpt lat="49.25851" lon="6.05958">
        <ele>191</ele>
        <time>2021-07-28T11:39:27Z</time>
      </trkpt>
      <trkpt lat="49.2585" lon="6.05959">
        <ele>191</ele>
        <time>2021-07-28T11:39:28Z</time>
      </trkpt>
      <trkpt lat="49.25847" lon="6.05962">
        <ele>190.9</ele>
        <time>2021-07-28T11:39:30Z</time>
      </trkpt>
      <trkpt lat="49.25845" lon="6.05966">
        <ele>190.8</ele>
        <time>2021-07-28T11:39:31Z</time>
      </trkpt>
      <trkpt lat="49.25843" lon="6.0597">
        <ele>190.7</ele>
        <time>2021-07-28T11:39:32Z</time>
      </trkpt>
      <trkpt lat="49.25839" lon="6.05974">
        <ele>190.6</ele>
        <time>2021-07-28T11:39:33Z</time>
      </trkpt>
      <trkpt lat="49.25837" lon="6.05979">
        <ele>190.5</ele>
        <time>2021-07-28T11:39:35Z</time>
      </trkpt>
      <trkpt lat="49.25834" lon="6.05982">
        <ele>190.4</ele>
        <time>2021-07-28T11:39:36Z</time>
      </trkpt>
      <trkpt lat="49.25834" lon="6.05983">
        <ele>190.3</ele>
        <time>2021-07-28T11:39:37Z</time>
      </trkpt>
      <trkpt lat="49.25832" lon="6.05987">
        <ele>190.2</ele>
        <time>2021-07-28T11:39:39Z</time>
      </trkpt>
      <trkpt lat="49.2583" lon="6.05991">
        <ele>190.2</ele>
        <time>2021-07-28T11:39:40Z</time>
      </trkpt>
      <trkpt lat="49.25828" lon="6.05997">
        <ele>190</ele>
        <time>2021-07-28T11:39:41Z</time>
      </trkpt>
      <trkpt lat="49.25825" lon="6.06005">
        <ele>189.9</ele>
        <time>2021-07-28T11:39:42Z</time>
      </trkpt>
      <trkpt lat="49.25821" lon="6.06013">
        <ele>189.7</ele>
        <time>2021-07-28T11:39:44Z</time>
      </trkpt>
      <trkpt lat="49.25818" lon="6.06021">
        <ele>189.6</ele>
        <time>2021-07-28T11:39:45Z</time>
      </trkpt>
      <trkpt lat="49.25815" lon="6.06026">
        <ele>189.5</ele>
        <time>2021-07-28T11:39:46Z</time>
      </trkpt>
      <trkpt lat="49.25812" lon="6.06032">
        <ele>189.3</ele>
        <time>2021-07-28T11:39:47Z</time>
      </trkpt>
      <trkpt lat="49.25808" lon="6.06038">
        <ele>189.2</ele>
        <time>2021-07-28T11:39:49Z</time>
      </trkpt>
      <trkpt lat="49.25804" lon="6.06046">
        <ele>189</ele>
        <time>2021-07-28T11:39:50Z</time>
      </trkpt>
      <trkpt lat="49.25798" lon="6.0606">
        <ele>188.7</ele>
        <time>2021-07-28T11:39:52Z</time>
      </trkpt>
      <trkpt lat="49.25795" lon="6.06066">
        <ele>188.5</ele>
        <time>2021-07-28T11:39:53Z</time>
      </trkpt>
      <trkpt lat="49.25795" lon="6.06067">
        <ele>188.5</ele>
        <time>2021-07-28T11:39:54Z</time>
      </trkpt>
      <trkpt lat="49.25792" lon="6.06074">
        <ele>188.4</ele>
        <time>2021-07-28T11:39:56Z</time>
      </trkpt>
      <trkpt lat="49.25789" lon="6.06082">
        <ele>188.2</ele>
        <time>2021-07-28T11:39:57Z</time>
      </trkpt>
      <trkpt lat="49.25784" lon="6.06093">
        <ele>188</ele>
        <time>2021-07-28T11:39:58Z</time>
      </trkpt>
      <trkpt lat="49.2578" lon="6.06101">
        <ele>187.8</ele>
        <time>2021-07-28T11:39:59Z</time>
      </trkpt>
      <trkpt lat="49.25774" lon="6.06112">
        <ele>187.6</ele>
        <time>2021-07-28T11:40:01Z</time>
      </trkpt>
      <trkpt lat="49.25769" lon="6.06123">
        <ele>187.3</ele>
        <time>2021-07-28T11:40:03Z</time>
      </trkpt>
      <trkpt lat="49.25768" lon="6.06128">
        <ele>187.2</ele>
        <time>2021-07-28T11:40:04Z</time>
      </trkpt>
      <trkpt lat="49.25765" lon="6.06134">
        <ele>187.1</ele>
        <time>2021-07-28T11:40:05Z</time>
      </trkpt>
      <trkpt lat="49.25762" lon="6.0614">
        <ele>187</ele>
        <time>2021-07-28T11:40:07Z</time>
      </trkpt>
      <trkpt lat="49.25761" lon="6.06146">
        <ele>186.9</ele>
        <time>2021-07-28T11:40:08Z</time>
      </trkpt>
      <trkpt lat="49.25759" lon="6.06151">
        <ele>186.8</ele>
        <time>2021-07-28T11:40:09Z</time>
      </trkpt>
      <trkpt lat="49.25757" lon="6.06158">
        <ele>186.6</ele>
        <time>2021-07-28T11:40:11Z</time>
      </trkpt>
      <trkpt lat="49.25755" lon="6.06162">
        <ele>186.5</ele>
        <time>2021-07-28T11:40:12Z</time>
      </trkpt>
      <trkpt lat="49.25753" lon="6.06168">
        <ele>186.4</ele>
        <time>2021-07-28T11:40:13Z</time>
      </trkpt>
      <trkpt lat="49.2575" lon="6.06176">
        <ele>186.2</ele>
        <time>2021-07-28T11:40:15Z</time>
      </trkpt>
      <trkpt lat="49.25748" lon="6.06186">
        <ele>185.9</ele>
        <time>2021-07-28T11:40:17Z</time>
      </trkpt>
      <trkpt lat="49.25747" lon="6.06193">
        <ele>185.8</ele>
        <time>2021-07-28T11:40:18Z</time>
      </trkpt>
      <trkpt lat="49.25745" lon="6.06201">
        <ele>185.7</ele>
        <time>2021-07-28T11:40:20Z</time>
      </trkpt>
      <trkpt lat="49.25745" lon="6.06208">
        <ele>185.6</ele>
        <time>2021-07-28T11:40:21Z</time>
      </trkpt>
      <trkpt lat="49.25744" lon="6.06215">
        <ele>185.4</ele>
        <time>2021-07-28T11:40:22Z</time>
      </trkpt>
      <trkpt lat="49.25742" lon="6.06225">
        <ele>185.3</ele>
        <time>2021-07-28T11:40:24Z</time>
      </trkpt>
      <trkpt lat="49.2574" lon="6.06233">
        <ele>185.1</ele>
        <time>2021-07-28T11:40:26Z</time>
      </trkpt>
      <trkpt lat="49.25737" lon="6.06239">
        <ele>185</ele>
        <time>2021-07-28T11:40:27Z</time>
      </trkpt>
      <trkpt lat="49.25735" lon="6.06244">
        <ele>184.9</ele>
        <time>2021-07-28T11:40:28Z</time>
      </trkpt>
      <trkpt lat="49.25733" lon="6.0625">
        <ele>184.7</ele>
        <time>2021-07-28T11:40:29Z</time>
      </trkpt>
      <trkpt lat="49.2573" lon="6.06258">
        <ele>184.6</ele>
        <time>2021-07-28T11:40:31Z</time>
      </trkpt>
      <trkpt lat="49.25728" lon="6.06264">
        <ele>184.5</ele>
        <time>2021-07-28T11:40:32Z</time>
      </trkpt>
      <trkpt lat="49.25726" lon="6.0627">
        <ele>184.4</ele>
        <time>2021-07-28T11:40:33Z</time>
      </trkpt>
      <trkpt lat="49.25724" lon="6.06275">
        <ele>184.3</ele>
        <time>2021-07-28T11:40:34Z</time>
      </trkpt>
      <trkpt lat="49.25722" lon="6.06282">
        <ele>184.2</ele>
        <time>2021-07-28T11:40:36Z</time>
      </trkpt>
      <trkpt lat="49.25722" lon="6.06285">
        <ele>184.1</ele>
        <time>2021-07-28T11:40:37Z</time>
      </trkpt>
      <trkpt lat="49.2572" lon="6.0629">
        <ele>184</ele>
        <time>2021-07-28T11:40:39Z</time>
      </trkpt>
      <trkpt lat="49.2572" lon="6.06295">
        <ele>184</ele>
        <time>2021-07-28T11:40:40Z</time>
      </trkpt>
      <trkpt lat="49.25719" lon="6.06296">
        <ele>183.9</ele>
        <time>2021-07-28T11:40:41Z</time>
      </trkpt>
      <trkpt lat="49.25718" lon="6.06301">
        <ele>183.9</ele>
        <time>2021-07-28T11:40:43Z</time>
      </trkpt>
      <trkpt lat="49.25717" lon="6.06305">
        <ele>183.8</ele>
        <time>2021-07-28T11:40:44Z</time>
      </trkpt>
      <trkpt lat="49.25715" lon="6.06311">
        <ele>183.8</ele>
        <time>2021-07-28T11:40:46Z</time>
      </trkpt>
      <trkpt lat="49.25714" lon="6.06317">
        <ele>183.8</ele>
        <time>2021-07-28T11:40:47Z</time>
      </trkpt>
      <trkpt lat="49.25712" lon="6.0632">
        <ele>183.8</ele>
        <time>2021-07-28T11:40:48Z</time>
      </trkpt>
      <trkpt lat="49.2571" lon="6.06323">
        <ele>183.8</ele>
        <time>2021-07-28T11:40:49Z</time>
      </trkpt>
      <trkpt lat="49.25708" lon="6.06329">
        <ele>183.9</ele>
        <time>2021-07-28T11:40:51Z</time>
      </trkpt>
      <trkpt lat="49.25707" lon="6.06333">
        <ele>184</ele>
        <time>2021-07-28T11:40:52Z</time>
      </trkpt>
      <trkpt lat="49.25707" lon="6.06335">
        <ele>184</ele>
        <time>2021-07-28T11:40:54Z</time>
      </trkpt>
      <trkpt lat="49.25707" lon="6.06337">
        <ele>184.1</ele>
        <time>2021-07-28T11:40:55Z</time>
      </trkpt>
      <trkpt lat="49.25707" lon="6.06339">
        <ele>184.1</ele>
        <time>2021-07-28T11:40:57Z</time>
      </trkpt>
      <trkpt lat="49.25707" lon="6.06342">
        <ele>184.1</ele>
        <time>2021-07-28T11:40:59Z</time>
      </trkpt>
      <trkpt lat="49.25707" lon="6.06344">
        <ele>184.2</ele>
        <time>2021-07-28T11:41:00Z</time>
      </trkpt>
      <trkpt lat="49.25707" lon="6.06346">
        <ele>184.2</ele>
        <time>2021-07-28T11:41:01Z</time>
      </trkpt>
      <trkpt lat="49.25707" lon="6.06348">
        <ele>184.2</ele>
        <time>2021-07-28T11:41:02Z</time>
      </trkpt>
      <trkpt lat="49.25707" lon="6.0635">
        <ele>184.3</ele>
        <time>2021-07-28T11:41:07Z</time>
      </trkpt>
      <trkpt lat="49.25707" lon="6.06352">
        <ele>184.3</ele>
        <time>2021-07-28T11:41:08Z</time>
      </trkpt>
      <trkpt lat="49.25706" lon="6.06361">
        <ele>184.4</ele>
        <time>2021-07-28T11:41:09Z</time>
      </trkpt>
      <trkpt lat="49.25705" lon="6.0637">
        <ele>184.4</ele>
        <time>2021-07-28T11:41:11Z</time>
      </trkpt>
      <trkpt lat="49.25704" lon="6.06375">
        <ele>184.4</ele>
        <time>2021-07-28T11:41:12Z</time>
      </trkpt>
      <trkpt lat="49.25701" lon="6.06381">
        <ele>184.4</ele>
        <time>2021-07-28T11:41:13Z</time>
      </trkpt>
      <trkpt lat="49.25697" lon="6.06389">
        <ele>184.5</ele>
        <time>2021-07-28T11:41:14Z</time>
      </trkpt>
      <trkpt lat="49.25694" lon="6.06397">
        <ele>184.5</ele>
        <time>2021-07-28T11:41:16Z</time>
      </trkpt>
      <trkpt lat="49.2569" lon="6.06403">
        <ele>184.5</ele>
        <time>2021-07-28T11:41:18Z</time>
      </trkpt>
      <trkpt lat="49.25687" lon="6.06407">
        <ele>184.6</ele>
        <time>2021-07-28T11:41:19Z</time>
      </trkpt>
      <trkpt lat="49.25684" lon="6.06412">
        <ele>184.6</ele>
        <time>2021-07-28T11:41:20Z</time>
      </trkpt>
      <trkpt lat="49.25681" lon="6.06418">
        <ele>184.6</ele>
        <time>2021-07-28T11:41:21Z</time>
      </trkpt>
      <trkpt lat="49.25679" lon="6.06423">
        <ele>184.7</ele>
        <time>2021-07-28T11:41:22Z</time>
      </trkpt>
      <trkpt lat="49.25677" lon="6.06429">
        <ele>184.7</ele>
        <time>2021-07-28T11:41:23Z</time>
      </trkpt>
      <trkpt lat="49.25674" lon="6.06434">
        <ele>184.7</ele>
        <time>2021-07-28T11:41:25Z</time>
      </trkpt>
      <trkpt lat="49.25672" lon="6.06439">
        <ele>184.8</ele>
        <time>2021-07-28T11:41:26Z</time>
      </trkpt>
      <trkpt lat="49.25671" lon="6.06444">
        <ele>184.8</ele>
        <time>2021-07-28T11:41:27Z</time>
      </trkpt>
      <trkpt lat="49.25667" lon="6.06452">
        <ele>184.7</ele>
        <time>2021-07-28T11:41:29Z</time>
      </trkpt>
      <trkpt lat="49.25665" lon="6.06458">
        <ele>184.7</ele>
        <time>2021-07-28T11:41:30Z</time>
      </trkpt>
      <trkpt lat="49.25662" lon="6.06462">
        <ele>184.7</ele>
        <time>2021-07-28T11:41:31Z</time>
      </trkpt>
      <trkpt lat="49.25659" lon="6.06466">
        <ele>184.7</ele>
        <time>2021-07-28T11:41:32Z</time>
      </trkpt>
      <trkpt lat="49.25658" lon="6.06471">
        <ele>184.6</ele>
        <time>2021-07-28T11:41:33Z</time>
      </trkpt>
      <trkpt lat="49.25657" lon="6.06475">
        <ele>184.6</ele>
        <time>2021-07-28T11:41:35Z</time>
      </trkpt>
      <trkpt lat="49.25657" lon="6.06481">
        <ele>184.7</ele>
        <time>2021-07-28T11:41:36Z</time>
      </trkpt>
      <trkpt lat="49.25657" lon="6.06484">
        <ele>184.7</ele>
        <time>2021-07-28T11:41:37Z</time>
      </trkpt>
      <trkpt lat="49.25656" lon="6.06489">
        <ele>184.2</ele>
        <time>2021-07-28T11:41:39Z</time>
      </trkpt>
      <trkpt lat="49.25653" lon="6.06493">
        <ele>184</ele>
        <time>2021-07-28T11:41:40Z</time>
      </trkpt>
      <trkpt lat="49.2565" lon="6.06496">
        <ele>183.7</ele>
        <time>2021-07-28T11:41:41Z</time>
      </trkpt>
      <trkpt lat="49.25648" lon="6.06499">
        <ele>183.5</ele>
        <time>2021-07-28T11:41:43Z</time>
      </trkpt>
      <trkpt lat="49.25646" lon="6.06501">
        <ele>183.3</ele>
        <time>2021-07-28T11:41:44Z</time>
      </trkpt>
      <trkpt lat="49.25642" lon="6.06504">
        <ele>183</ele>
        <time>2021-07-28T11:41:46Z</time>
      </trkpt>
      <trkpt lat="49.25639" lon="6.06508">
        <ele>182.6</ele>
        <time>2021-07-28T11:41:47Z</time>
      </trkpt>
      <trkpt lat="49.25637" lon="6.06511">
        <ele>182.4</ele>
        <time>2021-07-28T11:41:48Z</time>
      </trkpt>
      <trkpt lat="49.25633" lon="6.06515">
        <ele>182</ele>
        <time>2021-07-28T11:41:50Z</time>
      </trkpt>
      <trkpt lat="49.25624" lon="6.06525">
        <ele>180.8</ele>
        <time>2021-07-28T11:41:51Z</time>
      </trkpt>
      <trkpt lat="49.25621" lon="6.06532">
        <ele>180.2</ele>
        <time>2021-07-28T11:41:52Z</time>
      </trkpt>
      <trkpt lat="49.25617" lon="6.06539">
        <ele>179.5</ele>
        <time>2021-07-28T11:41:53Z</time>
      </trkpt>
      <trkpt lat="49.2561" lon="6.06553">
        <ele>178.2</ele>
        <time>2021-07-28T11:41:55Z</time>
      </trkpt>
      <trkpt lat="49.25603" lon="6.06564">
        <ele>177</ele>
        <time>2021-07-28T11:41:57Z</time>
      </trkpt>
      <trkpt lat="49.256" lon="6.0657">
        <ele>176.5</ele>
        <time>2021-07-28T11:41:58Z</time>
      </trkpt>
      <trkpt lat="49.25597" lon="6.06577">
        <ele>175.8</ele>
        <time>2021-07-28T11:42:00Z</time>
      </trkpt>
      <trkpt lat="49.256" lon="6.06579">
        <ele>175.5</ele>
        <time>2021-07-28T11:42:01Z</time>
      </trkpt>
      <trkpt lat="49.25598" lon="6.06584">
        <ele>175.5</ele>
        <time>2021-07-28T11:42:02Z</time>
      </trkpt>
      <trkpt lat="49.256" lon="6.06587">
        <ele>175.6</ele>
        <time>2021-07-28T11:42:03Z</time>
      </trkpt>
      <trkpt lat="49.256" lon="6.0659">
        <ele>175.6</ele>
        <time>2021-07-28T11:42:04Z</time>
      </trkpt>
      <trkpt lat="49.25601" lon="6.06592">
        <ele>175.7</ele>
        <time>2021-07-28T11:42:05Z</time>
      </trkpt>
      <trkpt lat="49.25603" lon="6.066">
        <ele>175.8</ele>
        <time>2021-07-28T11:42:07Z</time>
      </trkpt>
      <trkpt lat="49.25607" lon="6.06603">
        <ele>175.9</ele>
        <time>2021-07-28T11:42:09Z</time>
      </trkpt>
      <trkpt lat="49.25612" lon="6.06609">
        <ele>176</ele>
        <time>2021-07-28T11:42:10Z</time>
      </trkpt>
      <trkpt lat="49.25615" lon="6.06614">
        <ele>176.1</ele>
        <time>2021-07-28T11:42:11Z</time>
      </trkpt>
      <trkpt lat="49.25618" lon="6.0662">
        <ele>176.2</ele>
        <time>2021-07-28T11:42:13Z</time>
      </trkpt>
      <trkpt lat="49.25621" lon="6.06621">
        <ele>176.3</ele>
        <time>2021-07-28T11:42:15Z</time>
      </trkpt>
      <trkpt lat="49.25622" lon="6.06622">
        <ele>176.3</ele>
        <time>2021-07-28T11:42:16Z</time>
      </trkpt>
      <trkpt lat="49.25626" lon="6.06625">
        <ele>176.5</ele>
        <time>2021-07-28T11:42:18Z</time>
      </trkpt>
      <trkpt lat="49.25628" lon="6.06627">
        <ele>176.6</ele>
        <time>2021-07-28T11:42:19Z</time>
      </trkpt>
      <trkpt lat="49.25631" lon="6.06633">
        <ele>176.8</ele>
        <time>2021-07-28T11:42:20Z</time>
      </trkpt>
      <trkpt lat="49.25634" lon="6.06642">
        <ele>177</ele>
        <time>2021-07-28T11:42:22Z</time>
      </trkpt>
      <trkpt lat="49.25637" lon="6.06647">
        <ele>177.2</ele>
        <time>2021-07-28T11:42:23Z</time>
      </trkpt>
      <trkpt lat="49.2564" lon="6.06652">
        <ele>177.5</ele>
        <time>2021-07-28T11:42:25Z</time>
      </trkpt>
      <trkpt lat="49.25641" lon="6.06653">
        <ele>177.5</ele>
        <time>2021-07-28T11:42:26Z</time>
      </trkpt>
      <trkpt lat="49.25643" lon="6.06655">
        <ele>177.6</ele>
        <time>2021-07-28T11:42:27Z</time>
      </trkpt>
      <trkpt lat="49.25646" lon="6.06662">
        <ele>177.9</ele>
        <time>2021-07-28T11:42:29Z</time>
      </trkpt>
      <trkpt lat="49.25651" lon="6.06669">
        <ele>178.2</ele>
        <time>2021-07-28T11:42:31Z</time>
      </trkpt>
      <trkpt lat="49.25655" lon="6.06671">
        <ele>178.4</ele>
        <time>2021-07-28T11:42:33Z</time>
      </trkpt>
      <trkpt lat="49.25659" lon="6.06673">
        <ele>178.7</ele>
        <time>2021-07-28T11:42:35Z</time>
      </trkpt>
      <trkpt lat="49.25663" lon="6.06676">
        <ele>178.9</ele>
        <time>2021-07-28T11:42:36Z</time>
      </trkpt>
      <trkpt lat="49.25664" lon="6.06677">
        <ele>179</ele>
        <time>2021-07-28T11:42:37Z</time>
      </trkpt>
      <trkpt lat="49.25667" lon="6.06681">
        <ele>179.2</ele>
        <time>2021-07-28T11:42:38Z</time>
      </trkpt>
      <trkpt lat="49.25668" lon="6.06682">
        <ele>179.2</ele>
        <time>2021-07-28T11:42:39Z</time>
      </trkpt>
      <trkpt lat="49.25672" lon="6.06687">
        <ele>179.6</ele>
        <time>2021-07-28T11:42:41Z</time>
      </trkpt>
      <trkpt lat="49.25673" lon="6.06691">
        <ele>179.8</ele>
        <time>2021-07-28T11:42:42Z</time>
      </trkpt>
      <trkpt lat="49.25674" lon="6.06692">
        <ele>179.8</ele>
        <time>2021-07-28T11:42:43Z</time>
      </trkpt>
      <trkpt lat="49.25676" lon="6.06699">
        <ele>180.1</ele>
        <time>2021-07-28T11:42:45Z</time>
      </trkpt>
      <trkpt lat="49.25678" lon="6.06703">
        <ele>180.3</ele>
        <time>2021-07-28T11:42:46Z</time>
      </trkpt>
      <trkpt lat="49.25679" lon="6.06704">
        <ele>180.4</ele>
        <time>2021-07-28T11:42:47Z</time>
      </trkpt>
      <trkpt lat="49.25681" lon="6.06708">
        <ele>180.6</ele>
        <time>2021-07-28T11:42:48Z</time>
      </trkpt>
      <trkpt lat="49.25682" lon="6.0671">
        <ele>180.7</ele>
        <time>2021-07-28T11:42:49Z</time>
      </trkpt>
      <trkpt lat="49.25683" lon="6.06713">
        <ele>180.8</ele>
        <time>2021-07-28T11:42:50Z</time>
      </trkpt>
      <trkpt lat="49.25686" lon="6.06716">
        <ele>181</ele>
        <time>2021-07-28T11:42:52Z</time>
      </trkpt>
      <trkpt lat="49.25689" lon="6.06716">
        <ele>181.2</ele>
        <time>2021-07-28T11:42:53Z</time>
      </trkpt>
      <trkpt lat="49.25693" lon="6.06719">
        <ele>181.5</ele>
        <time>2021-07-28T11:42:55Z</time>
      </trkpt>
      <trkpt lat="49.25696" lon="6.06723">
        <ele>181.7</ele>
        <time>2021-07-28T11:42:57Z</time>
      </trkpt>
      <trkpt lat="49.257" lon="6.06727">
        <ele>181.9</ele>
        <time>2021-07-28T11:42:59Z</time>
      </trkpt>
      <trkpt lat="49.25703" lon="6.06729">
        <ele>182.1</ele>
        <time>2021-07-28T11:43:00Z</time>
      </trkpt>
      <trkpt lat="49.25704" lon="6.0673">
        <ele>182.2</ele>
        <time>2021-07-28T11:43:01Z</time>
      </trkpt>
      <trkpt lat="49.25706" lon="6.06733">
        <ele>182.3</ele>
        <time>2021-07-28T11:43:03Z</time>
      </trkpt>
      <trkpt lat="49.25709" lon="6.06736">
        <ele>182.6</ele>
        <time>2021-07-28T11:43:04Z</time>
      </trkpt>
      <trkpt lat="49.25712" lon="6.06739">
        <ele>182.7</ele>
        <time>2021-07-28T11:43:05Z</time>
      </trkpt>
      <trkpt lat="49.25713" lon="6.06739">
        <ele>182.8</ele>
        <time>2021-07-28T11:43:06Z</time>
      </trkpt>
      <trkpt lat="49.25718" lon="6.06743">
        <ele>183.1</ele>
        <time>2021-07-28T11:43:08Z</time>
      </trkpt>
      <trkpt lat="49.25719" lon="6.06744">
        <ele>183.2</ele>
        <time>2021-07-28T11:43:09Z</time>
      </trkpt>
      <trkpt lat="49.25721" lon="6.06746">
        <ele>183.3</ele>
        <time>2021-07-28T11:43:10Z</time>
      </trkpt>
      <trkpt lat="49.25725" lon="6.06748">
        <ele>183.5</ele>
        <time>2021-07-28T11:43:12Z</time>
      </trkpt>
      <trkpt lat="49.25728" lon="6.0675">
        <ele>183.6</ele>
        <time>2021-07-28T11:43:13Z</time>
      </trkpt>
      <trkpt lat="49.25731" lon="6.06753">
        <ele>183.8</ele>
        <time>2021-07-28T11:43:14Z</time>
      </trkpt>
      <trkpt lat="49.25736" lon="6.06758">
        <ele>184.1</ele>
        <time>2021-07-28T11:43:16Z</time>
      </trkpt>
      <trkpt lat="49.25739" lon="6.0676">
        <ele>184.3</ele>
        <time>2021-07-28T11:43:17Z</time>
      </trkpt>
      <trkpt lat="49.25743" lon="6.06763">
        <ele>184.5</ele>
        <time>2021-07-28T11:43:19Z</time>
      </trkpt>
      <trkpt lat="49.25746" lon="6.06765">
        <ele>184.7</ele>
        <time>2021-07-28T11:43:21Z</time>
      </trkpt>
      <trkpt lat="49.25749" lon="6.0677">
        <ele>184.8</ele>
        <time>2021-07-28T11:43:22Z</time>
      </trkpt>
      <trkpt lat="49.2575" lon="6.06773">
        <ele>184.9</ele>
        <time>2021-07-28T11:43:23Z</time>
      </trkpt>
      <trkpt lat="49.25753" lon="6.0678">
        <ele>185.1</ele>
        <time>2021-07-28T11:43:25Z</time>
      </trkpt>
      <trkpt lat="49.25755" lon="6.06783">
        <ele>185.2</ele>
        <time>2021-07-28T11:43:26Z</time>
      </trkpt>
      <trkpt lat="49.25758" lon="6.0679">
        <ele>185.3</ele>
        <time>2021-07-28T11:43:28Z</time>
      </trkpt>
      <trkpt lat="49.2576" lon="6.06795">
        <ele>185.2</ele>
        <time>2021-07-28T11:43:29Z</time>
      </trkpt>
      <trkpt lat="49.25763" lon="6.06799">
        <ele>185.1</ele>
        <time>2021-07-28T11:43:30Z</time>
      </trkpt>
      <trkpt lat="49.25765" lon="6.06803">
        <ele>185</ele>
        <time>2021-07-28T11:43:31Z</time>
      </trkpt>
      <trkpt lat="49.25768" lon="6.06808">
        <ele>184.9</ele>
        <time>2021-07-28T11:43:33Z</time>
      </trkpt>
      <trkpt lat="49.25771" lon="6.06814">
        <ele>184.7</ele>
        <time>2021-07-28T11:43:34Z</time>
      </trkpt>
      <trkpt lat="49.25774" lon="6.06819">
        <ele>184.5</ele>
        <time>2021-07-28T11:43:35Z</time>
      </trkpt>
      <trkpt lat="49.25779" lon="6.06829">
        <ele>184.2</ele>
        <time>2021-07-28T11:43:37Z</time>
      </trkpt>
      <trkpt lat="49.25783" lon="6.06843">
        <ele>183.8</ele>
        <time>2021-07-28T11:43:38Z</time>
      </trkpt>
      <trkpt lat="49.25787" lon="6.06859">
        <ele>183.4</ele>
        <time>2021-07-28T11:43:40Z</time>
      </trkpt>
      <trkpt lat="49.25793" lon="6.06875">
        <ele>182.8</ele>
        <time>2021-07-28T11:43:42Z</time>
      </trkpt>
      <trkpt lat="49.25796" lon="6.06884">
        <ele>182.5</ele>
        <time>2021-07-28T11:43:43Z</time>
      </trkpt>
      <trkpt lat="49.25802" lon="6.06901">
        <ele>181.9</ele>
        <time>2021-07-28T11:43:45Z</time>
      </trkpt>
      <trkpt lat="49.25804" lon="6.06909">
        <ele>181.6</ele>
        <time>2021-07-28T11:43:46Z</time>
      </trkpt>
      <trkpt lat="49.25806" lon="6.06917">
        <ele>181.3</ele>
        <time>2021-07-28T11:43:47Z</time>
      </trkpt>
      <trkpt lat="49.25808" lon="6.06926">
        <ele>181</ele>
        <time>2021-07-28T11:43:48Z</time>
      </trkpt>
      <trkpt lat="49.25809" lon="6.06933">
        <ele>180.7</ele>
        <time>2021-07-28T11:43:49Z</time>
      </trkpt>
      <trkpt lat="49.25812" lon="6.06943">
        <ele>180.4</ele>
        <time>2021-07-28T11:43:51Z</time>
      </trkpt>
      <trkpt lat="49.25815" lon="6.06958">
        <ele>180</ele>
        <time>2021-07-28T11:43:53Z</time>
      </trkpt>
      <trkpt lat="49.25819" lon="6.06972">
        <ele>179.7</ele>
        <time>2021-07-28T11:43:55Z</time>
      </trkpt>
      <trkpt lat="49.25819" lon="6.06973">
        <ele>179.7</ele>
        <time>2021-07-28T11:43:56Z</time>
      </trkpt>
      <trkpt lat="49.2582" lon="6.06976">
        <ele>179.6</ele>
        <time>2021-07-28T11:43:58Z</time>
      </trkpt>
      <trkpt lat="49.25823" lon="6.06983">
        <ele>179.5</ele>
        <time>2021-07-28T11:43:59Z</time>
      </trkpt>
      <trkpt lat="49.25843" lon="6.07042">
        <ele>179</ele>
        <time>2021-07-28T11:44:13Z</time>
      </trkpt>
      <trkpt lat="49.25847" lon="6.07054">
        <ele>178.9</ele>
        <time>2021-07-28T11:44:15Z</time>
      </trkpt>
      <trkpt lat="49.25849" lon="6.07062">
        <ele>178.8</ele>
        <time>2021-07-28T11:44:16Z</time>
      </trkpt>
      <trkpt lat="49.2585" lon="6.07068">
        <ele>178.8</ele>
        <time>2021-07-28T11:44:17Z</time>
      </trkpt>
      <trkpt lat="49.25851" lon="6.07074">
        <ele>178.5</ele>
        <time>2021-07-28T11:44:19Z</time>
      </trkpt>
      <trkpt lat="49.25851" lon="6.07074">
        <ele>178.5</ele>
        <time>2021-07-28T11:44:20Z</time>
      </trkpt>
      <trkpt lat="49.25849" lon="6.07072">
        <ele>178.4</ele>
        <time>2021-07-28T11:44:21Z</time>
      </trkpt>
      <trkpt lat="49.25847" lon="6.07069">
        <ele>178.2</ele>
        <time>2021-07-28T11:44:22Z</time>
      </trkpt>
      <trkpt lat="49.25844" lon="6.07067">
        <ele>178</ele>
        <time>2021-07-28T11:44:23Z</time>
      </trkpt>
      <trkpt lat="49.2584" lon="6.07066">
        <ele>177.8</ele>
        <time>2021-07-28T11:44:25Z</time>
      </trkpt>
      <trkpt lat="49.25838" lon="6.07068">
        <ele>177.6</ele>
        <time>2021-07-28T11:44:26Z</time>
      </trkpt>
      <trkpt lat="49.25836" lon="6.0707">
        <ele>177.4</ele>
        <time>2021-07-28T11:44:28Z</time>
      </trkpt>
      <trkpt lat="49.25834" lon="6.07071">
        <ele>177.3</ele>
        <time>2021-07-28T11:44:30Z</time>
      </trkpt>
      <trkpt lat="49.2583" lon="6.07074">
        <ele>177.1</ele>
        <time>2021-07-28T11:44:32Z</time>
      </trkpt>
      <trkpt lat="49.25828" lon="6.07082">
        <ele>176.7</ele>
        <time>2021-07-28T11:44:34Z</time>
      </trkpt>
      <trkpt lat="49.25827" lon="6.07086">
        <ele>176.5</ele>
        <time>2021-07-28T11:44:35Z</time>
      </trkpt>
      <trkpt lat="49.25826" lon="6.07088">
        <ele>176.4</ele>
        <time>2021-07-28T11:44:36Z</time>
      </trkpt>
      <trkpt lat="49.25821" lon="6.07093">
        <ele>176</ele>
        <time>2021-07-28T11:44:37Z</time>
      </trkpt>
      <trkpt lat="49.25811" lon="6.07101">
        <ele>175.3</ele>
        <time>2021-07-28T11:44:39Z</time>
      </trkpt>
      <trkpt lat="49.25804" lon="6.07104">
        <ele>174.8</ele>
        <time>2021-07-28T11:44:40Z</time>
      </trkpt>
      <trkpt lat="49.25797" lon="6.07108">
        <ele>174.4</ele>
        <time>2021-07-28T11:44:41Z</time>
      </trkpt>
      <trkpt lat="49.25784" lon="6.07115">
        <ele>173.5</ele>
        <time>2021-07-28T11:44:43Z</time>
      </trkpt>
      <trkpt lat="49.25772" lon="6.07122">
        <ele>172.7</ele>
        <time>2021-07-28T11:44:45Z</time>
      </trkpt>
      <trkpt lat="49.2576" lon="6.07127">
        <ele>172</ele>
        <time>2021-07-28T11:44:47Z</time>
      </trkpt>
      <trkpt lat="49.25749" lon="6.07132">
        <ele>171.4</ele>
        <time>2021-07-28T11:44:49Z</time>
      </trkpt>
      <trkpt lat="49.25743" lon="6.07134">
        <ele>171.1</ele>
        <time>2021-07-28T11:44:50Z</time>
      </trkpt>
      <trkpt lat="49.25737" lon="6.07137">
        <ele>170.8</ele>
        <time>2021-07-28T11:44:51Z</time>
      </trkpt>
      <trkpt lat="49.25732" lon="6.0714">
        <ele>170.7</ele>
        <time>2021-07-28T11:44:52Z</time>
      </trkpt>
      <trkpt lat="49.25727" lon="6.07143">
        <ele>170.5</ele>
        <time>2021-07-28T11:44:53Z</time>
      </trkpt>
      <trkpt lat="49.25718" lon="6.07147">
        <ele>170.3</ele>
        <time>2021-07-28T11:44:55Z</time>
      </trkpt>
      <trkpt lat="49.25713" lon="6.07149">
        <ele>170.2</ele>
        <time>2021-07-28T11:44:57Z</time>
      </trkpt>
      <trkpt lat="49.2571" lon="6.0715">
        <ele>170.1</ele>
        <time>2021-07-28T11:44:58Z</time>
      </trkpt>
      <trkpt lat="49.25706" lon="6.07152">
        <ele>170</ele>
        <time>2021-07-28T11:44:59Z</time>
      </trkpt>
      <trkpt lat="49.25699" lon="6.07158">
        <ele>169.9</ele>
        <time>2021-07-28T11:45:01Z</time>
      </trkpt>
      <trkpt lat="49.25697" lon="6.07163">
        <ele>169.8</ele>
        <time>2021-07-28T11:45:02Z</time>
      </trkpt>
      <trkpt lat="49.25699" lon="6.07168">
        <ele>169.8</ele>
        <time>2021-07-28T11:45:04Z</time>
      </trkpt>
      <trkpt lat="49.25695" lon="6.07172">
        <ele>169.7</ele>
        <time>2021-07-28T11:45:05Z</time>
      </trkpt>
      <trkpt lat="49.25693" lon="6.07177">
        <ele>169.7</ele>
        <time>2021-07-28T11:45:06Z</time>
      </trkpt>
      <trkpt lat="49.25691" lon="6.07181">
        <ele>169.7</ele>
        <time>2021-07-28T11:45:07Z</time>
      </trkpt>
      <trkpt lat="49.25687" lon="6.07185">
        <ele>169.7</ele>
        <time>2021-07-28T11:45:09Z</time>
      </trkpt>
      <trkpt lat="49.25685" lon="6.07186">
        <ele>169.7</ele>
        <time>2021-07-28T11:45:10Z</time>
      </trkpt>
      <trkpt lat="49.25684" lon="6.07186">
        <ele>169.7</ele>
        <time>2021-07-28T11:45:11Z</time>
      </trkpt>
      <trkpt lat="49.25682" lon="6.07186">
        <ele>169.7</ele>
        <time>2021-07-28T11:45:13Z</time>
      </trkpt>
      <trkpt lat="49.2568" lon="6.07186">
        <ele>169.7</ele>
        <time>2021-07-28T11:45:15Z</time>
      </trkpt>
      <trkpt lat="49.25678" lon="6.07187">
        <ele>169.7</ele>
        <time>2021-07-28T11:45:16Z</time>
      </trkpt>
      <trkpt lat="49.25676" lon="6.07187">
        <ele>169.7</ele>
        <time>2021-07-28T11:45:18Z</time>
      </trkpt>
      <trkpt lat="49.25674" lon="6.07187">
        <ele>169.7</ele>
        <time>2021-07-28T11:45:20Z</time>
      </trkpt>
      <trkpt lat="49.25673" lon="6.07187">
        <ele>169.7</ele>
        <time>2021-07-28T11:45:21Z</time>
      </trkpt>
      <trkpt lat="49.25671" lon="6.07188">
        <ele>169.7</ele>
        <time>2021-07-28T11:45:31Z</time>
      </trkpt>
      <trkpt lat="49.25669" lon="6.07188">
        <ele>169.7</ele>
        <time>2021-07-28T11:45:32Z</time>
      </trkpt>
      <trkpt lat="49.25661" lon="6.07193">
        <ele>169.7</ele>
        <time>2021-07-28T11:45:34Z</time>
      </trkpt>
      <trkpt lat="49.25653" lon="6.072">
        <ele>169.7</ele>
        <time>2021-07-28T11:45:36Z</time>
      </trkpt>
      <trkpt lat="49.25642" lon="6.07208">
        <ele>169.6</ele>
        <time>2021-07-28T11:45:37Z</time>
      </trkpt>
      <trkpt lat="49.25634" lon="6.07215">
        <ele>169.6</ele>
        <time>2021-07-28T11:45:39Z</time>
      </trkpt>
      <trkpt lat="49.2563" lon="6.07215">
        <ele>169.5</ele>
        <time>2021-07-28T11:45:40Z</time>
      </trkpt>
      <trkpt lat="49.25625" lon="6.0722">
        <ele>169.5</ele>
        <time>2021-07-28T11:45:41Z</time>
      </trkpt>
      <trkpt lat="49.25619" lon="6.07226">
        <ele>169.4</ele>
        <time>2021-07-28T11:45:43Z</time>
      </trkpt>
      <trkpt lat="49.25614" lon="6.07231">
        <ele>169.4</ele>
        <time>2021-07-28T11:45:45Z</time>
      </trkpt>
      <trkpt lat="49.2561" lon="6.07235">
        <ele>169.4</ele>
        <time>2021-07-28T11:45:46Z</time>
      </trkpt>
      <trkpt lat="49.25606" lon="6.07239">
        <ele>169.3</ele>
        <time>2021-07-28T11:45:47Z</time>
      </trkpt>
      <trkpt lat="49.25602" lon="6.07242">
        <ele>169.3</ele>
        <time>2021-07-28T11:45:48Z</time>
      </trkpt>
      <trkpt lat="49.25598" lon="6.07245">
        <ele>169.2</ele>
        <time>2021-07-28T11:45:50Z</time>
      </trkpt>
      <trkpt lat="49.25594" lon="6.07248">
        <ele>169.2</ele>
        <time>2021-07-28T11:45:51Z</time>
      </trkpt>
      <trkpt lat="49.25588" lon="6.07253">
        <ele>169.1</ele>
        <time>2021-07-28T11:45:52Z</time>
      </trkpt>
      <trkpt lat="49.25584" lon="6.07256">
        <ele>169.1</ele>
        <time>2021-07-28T11:45:53Z</time>
      </trkpt>
      <trkpt lat="49.25579" lon="6.0726">
        <ele>169.1</ele>
        <time>2021-07-28T11:45:55Z</time>
      </trkpt>
      <trkpt lat="49.25575" lon="6.07262">
        <ele>169</ele>
        <time>2021-07-28T11:45:56Z</time>
      </trkpt>
      <trkpt lat="49.25565" lon="6.07268">
        <ele>169</ele>
        <time>2021-07-28T11:45:58Z</time>
      </trkpt>
      <trkpt lat="49.25562" lon="6.07268">
        <ele>169</ele>
        <time>2021-07-28T11:45:59Z</time>
      </trkpt>
      <trkpt lat="49.25558" lon="6.07272">
        <ele>169</ele>
        <time>2021-07-28T11:46:00Z</time>
      </trkpt>
      <trkpt lat="49.25553" lon="6.07279">
        <ele>169</ele>
        <time>2021-07-28T11:46:02Z</time>
      </trkpt>
      <trkpt lat="49.25549" lon="6.0729">
        <ele>169</ele>
        <time>2021-07-28T11:46:04Z</time>
      </trkpt>
      <trkpt lat="49.25544" lon="6.07296">
        <ele>169</ele>
        <time>2021-07-28T11:46:05Z</time>
      </trkpt>
      <trkpt lat="49.2554" lon="6.073">
        <ele>169</ele>
        <time>2021-07-28T11:46:06Z</time>
      </trkpt>
      <trkpt lat="49.25537" lon="6.073">
        <ele>169</ele>
        <time>2021-07-28T11:46:08Z</time>
      </trkpt>
      <trkpt lat="49.25532" lon="6.073">
        <ele>169</ele>
        <time>2021-07-28T11:46:09Z</time>
      </trkpt>
      <trkpt lat="49.25527" lon="6.07303">
        <ele>169</ele>
        <time>2021-07-28T11:46:10Z</time>
      </trkpt>
      <trkpt lat="49.25523" lon="6.07306">
        <ele>169</ele>
        <time>2021-07-28T11:46:11Z</time>
      </trkpt>
      <trkpt lat="49.25517" lon="6.07305">
        <ele>169</ele>
        <time>2021-07-28T11:46:12Z</time>
      </trkpt>
      <trkpt lat="49.25513" lon="6.07306">
        <ele>169</ele>
        <time>2021-07-28T11:46:14Z</time>
      </trkpt>
      <trkpt lat="49.25512" lon="6.0731">
        <ele>169</ele>
        <time>2021-07-28T11:46:16Z</time>
      </trkpt>
      <trkpt lat="49.25512" lon="6.07311">
        <ele>169</ele>
        <time>2021-07-28T11:46:17Z</time>
      </trkpt>
      <trkpt lat="49.25512" lon="6.0731">
        <ele>168.9</ele>
        <time>2021-07-28T11:46:19Z</time>
      </trkpt>
      <trkpt lat="49.25513" lon="6.07307">
        <ele>168.9</ele>
        <time>2021-07-28T11:46:21Z</time>
      </trkpt>
      <trkpt lat="49.25514" lon="6.07308">
        <ele>168.9</ele>
        <time>2021-07-28T11:46:22Z</time>
      </trkpt>
      <trkpt lat="49.25518" lon="6.07305">
        <ele>168.9</ele>
        <time>2021-07-28T11:46:23Z</time>
      </trkpt>
      <trkpt lat="49.25523" lon="6.07299">
        <ele>168.9</ele>
        <time>2021-07-28T11:46:25Z</time>
      </trkpt>
      <trkpt lat="49.25527" lon="6.07296">
        <ele>168.9</ele>
        <time>2021-07-28T11:46:26Z</time>
      </trkpt>
      <trkpt lat="49.25532" lon="6.07294">
        <ele>168.9</ele>
        <time>2021-07-28T11:46:27Z</time>
      </trkpt>
      <trkpt lat="49.25534" lon="6.07293">
        <ele>168.9</ele>
        <time>2021-07-28T11:46:28Z</time>
      </trkpt>
      <trkpt lat="49.25538" lon="6.07296">
        <ele>168.9</ele>
        <time>2021-07-28T11:46:30Z</time>
      </trkpt>
      <trkpt lat="49.25539" lon="6.07297">
        <ele>168.9</ele>
        <time>2021-07-28T11:46:31Z</time>
      </trkpt>
      <trkpt lat="49.25542" lon="6.07299">
        <ele>168.9</ele>
        <time>2021-07-28T11:46:32Z</time>
      </trkpt>
      <trkpt lat="49.25544" lon="6.073">
        <ele>168.9</ele>
        <time>2021-07-28T11:46:33Z</time>
      </trkpt>
      <trkpt lat="49.25543" lon="6.073">
        <ele>169</ele>
        <time>2021-07-28T11:46:35Z</time>
      </trkpt>
      <trkpt lat="49.25543" lon="6.07302">
        <ele>169</ele>
        <time>2021-07-28T11:46:36Z</time>
      </trkpt>
      <trkpt lat="49.25543" lon="6.07302">
        <ele>169</ele>
        <time>2021-07-28T11:46:37Z</time>
      </trkpt>
      <trkpt lat="49.25543" lon="6.07303">
        <ele>169</ele>
        <time>2021-07-28T11:46:39Z</time>
      </trkpt>
      <trkpt lat="49.25543" lon="6.07303">
        <ele>169</ele>
        <time>2021-07-28T11:46:41Z</time>
      </trkpt>
      <trkpt lat="49.25543" lon="6.07303">
        <ele>169</ele>
        <time>2021-07-28T11:46:42Z</time>
      </trkpt>
      <trkpt lat="49.25543" lon="6.07303">
        <ele>169</ele>
        <time>2021-07-28T11:46:44Z</time>
      </trkpt>
      <trkpt lat="49.25555" lon="6.07327">
        <ele>168.9</ele>
        <time>2021-07-28T11:48:35Z</time>
      </trkpt>
      <trkpt lat="49.25564" lon="6.07328">
        <ele>168.8</ele>
        <time>2021-07-28T11:48:37Z</time>
      </trkpt>
      <trkpt lat="49.25573" lon="6.0733">
        <ele>168.8</ele>
        <time>2021-07-28T11:48:39Z</time>
      </trkpt>
      <trkpt lat="49.25577" lon="6.07333">
        <ele>168.9</ele>
        <time>2021-07-28T11:48:40Z</time>
      </trkpt>
      <trkpt lat="49.2558" lon="6.07336">
        <ele>168.9</ele>
        <time>2021-07-28T11:48:41Z</time>
      </trkpt>
      <trkpt lat="49.25582" lon="6.07338">
        <ele>168.9</ele>
        <time>2021-07-28T11:48:42Z</time>
      </trkpt>
      <trkpt lat="49.25584" lon="6.0734">
        <ele>168.9</ele>
        <time>2021-07-28T11:48:43Z</time>
      </trkpt>
      <trkpt lat="49.25587" lon="6.07346">
        <ele>168.9</ele>
        <time>2021-07-28T11:48:45Z</time>
      </trkpt>
      <trkpt lat="49.25588" lon="6.07349">
        <ele>168.9</ele>
        <time>2021-07-28T11:48:46Z</time>
      </trkpt>
      <trkpt lat="49.25588" lon="6.07354">
        <ele>168.9</ele>
        <time>2021-07-28T11:48:48Z</time>
      </trkpt>
      <trkpt lat="49.25586" lon="6.0736">
        <ele>168.9</ele>
        <time>2021-07-28T11:48:49Z</time>
      </trkpt>
      <trkpt lat="49.25584" lon="6.07367">
        <ele>168.8</ele>
        <time>2021-07-28T11:48:50Z</time>
      </trkpt>
      <trkpt lat="49.25584" lon="6.07378">
        <ele>168.8</ele>
        <time>2021-07-28T11:48:52Z</time>
      </trkpt>
      <trkpt lat="49.2558" lon="6.07382">
        <ele>168.8</ele>
        <time>2021-07-28T11:48:53Z</time>
      </trkpt>
      <trkpt lat="49.25579" lon="6.0739">
        <ele>168.8</ele>
        <time>2021-07-28T11:48:54Z</time>
      </trkpt>
      <trkpt lat="49.25577" lon="6.07401">
        <ele>168.7</ele>
        <time>2021-07-28T11:48:56Z</time>
      </trkpt>
      <trkpt lat="49.25575" lon="6.07407">
        <ele>168.7</ele>
        <time>2021-07-28T11:48:57Z</time>
      </trkpt>
      <trkpt lat="49.25573" lon="6.07412">
        <ele>168.7</ele>
        <time>2021-07-28T11:48:58Z</time>
      </trkpt>
      <trkpt lat="49.25572" lon="6.07417">
        <ele>168.6</ele>
        <time>2021-07-28T11:48:59Z</time>
      </trkpt>
      <trkpt lat="49.25571" lon="6.07422">
        <ele>168.6</ele>
        <time>2021-07-28T11:49:00Z</time>
      </trkpt>
      <trkpt lat="49.25571" lon="6.07431">
        <ele>168.6</ele>
        <time>2021-07-28T11:49:02Z</time>
      </trkpt>
      <trkpt lat="49.25568" lon="6.07441">
        <ele>168.5</ele>
        <time>2021-07-28T11:49:04Z</time>
      </trkpt>
      <trkpt lat="49.25567" lon="6.07446">
        <ele>168.5</ele>
        <time>2021-07-28T11:49:05Z</time>
      </trkpt>
      <trkpt lat="49.25566" lon="6.07458">
        <ele>168.5</ele>
        <time>2021-07-28T11:49:07Z</time>
      </trkpt>
      <trkpt lat="49.25567" lon="6.0747">
        <ele>168.5</ele>
        <time>2021-07-28T11:49:09Z</time>
      </trkpt>
      <trkpt lat="49.25568" lon="6.07483">
        <ele>168.5</ele>
        <time>2021-07-28T11:49:11Z</time>
      </trkpt>
      <trkpt lat="49.25569" lon="6.07488">
        <ele>168.5</ele>
        <time>2021-07-28T11:49:12Z</time>
      </trkpt>
      <trkpt lat="49.2557" lon="6.07493">
        <ele>168.5</ele>
        <time>2021-07-28T11:49:13Z</time>
      </trkpt>
      <trkpt lat="49.2557" lon="6.07504">
        <ele>168.5</ele>
        <time>2021-07-28T11:49:15Z</time>
      </trkpt>
      <trkpt lat="49.25571" lon="6.07514">
        <ele>168.5</ele>
        <time>2021-07-28T11:49:17Z</time>
      </trkpt>
      <trkpt lat="49.25571" lon="6.07522">
        <ele>168.5</ele>
        <time>2021-07-28T11:49:18Z</time>
      </trkpt>
      <trkpt lat="49.25571" lon="6.07529">
        <ele>168.5</ele>
        <time>2021-07-28T11:49:19Z</time>
      </trkpt>
      <trkpt lat="49.25572" lon="6.07539">
        <ele>168.4</ele>
        <time>2021-07-28T11:49:21Z</time>
      </trkpt>
      <trkpt lat="49.25575" lon="6.07547">
        <ele>168.4</ele>
        <time>2021-07-28T11:49:22Z</time>
      </trkpt>
      <trkpt lat="49.25575" lon="6.07553">
        <ele>168.4</ele>
        <time>2021-07-28T11:49:23Z</time>
      </trkpt>
      <trkpt lat="49.25576" lon="6.07564">
        <ele>168.4</ele>
        <time>2021-07-28T11:49:25Z</time>
      </trkpt>
      <trkpt lat="49.25577" lon="6.07576">
        <ele>168.4</ele>
        <time>2021-07-28T11:49:27Z</time>
      </trkpt>
      <trkpt lat="49.25577" lon="6.07588">
        <ele>168.4</ele>
        <time>2021-07-28T11:49:29Z</time>
      </trkpt>
      <trkpt lat="49.25577" lon="6.07595">
        <ele>168.4</ele>
        <time>2021-07-28T11:49:30Z</time>
      </trkpt>
      <trkpt lat="49.25577" lon="6.07603">
        <ele>168.3</ele>
        <time>2021-07-28T11:49:31Z</time>
      </trkpt>
      <trkpt lat="49.25578" lon="6.07617">
        <ele>168.3</ele>
        <time>2021-07-28T11:49:33Z</time>
      </trkpt>
      <trkpt lat="49.25579" lon="6.07629">
        <ele>168.3</ele>
        <time>2021-07-28T11:49:35Z</time>
      </trkpt>
      <trkpt lat="49.25581" lon="6.07642">
        <ele>168.3</ele>
        <time>2021-07-28T11:49:37Z</time>
      </trkpt>
      <trkpt lat="49.25582" lon="6.07656">
        <ele>168.2</ele>
        <time>2021-07-28T11:49:39Z</time>
      </trkpt>
      <trkpt lat="49.25583" lon="6.07664">
        <ele>168.2</ele>
        <time>2021-07-28T11:49:40Z</time>
      </trkpt>
      <trkpt lat="49.25583" lon="6.07676">
        <ele>168.2</ele>
        <time>2021-07-28T11:49:42Z</time>
      </trkpt>
      <trkpt lat="49.25581" lon="6.07684">
        <ele>168.2</ele>
        <time>2021-07-28T11:49:43Z</time>
      </trkpt>
      <trkpt lat="49.25584" lon="6.0769">
        <ele>168.2</ele>
        <time>2021-07-28T11:49:44Z</time>
      </trkpt>
      <trkpt lat="49.25585" lon="6.07699">
        <ele>168.1</ele>
        <time>2021-07-28T11:49:45Z</time>
      </trkpt>
      <trkpt lat="49.25586" lon="6.07707">
        <ele>168.1</ele>
        <time>2021-07-28T11:49:47Z</time>
      </trkpt>
      <trkpt lat="49.25587" lon="6.07718">
        <ele>168.1</ele>
        <time>2021-07-28T11:49:48Z</time>
      </trkpt>
      <trkpt lat="49.25587" lon="6.07725">
        <ele>168.1</ele>
        <time>2021-07-28T11:49:49Z</time>
      </trkpt>
      <trkpt lat="49.25586" lon="6.07736">
        <ele>168.1</ele>
        <time>2021-07-28T11:49:51Z</time>
      </trkpt>
      <trkpt lat="49.25585" lon="6.07745">
        <ele>168.2</ele>
        <time>2021-07-28T11:49:52Z</time>
      </trkpt>
      <trkpt lat="49.25589" lon="6.07752">
        <ele>168.2</ele>
        <time>2021-07-28T11:49:53Z</time>
      </trkpt>
      <trkpt lat="49.25591" lon="6.07759">
        <ele>168.2</ele>
        <time>2021-07-28T11:49:54Z</time>
      </trkpt>
      <trkpt lat="49.25591" lon="6.07767">
        <ele>168.3</ele>
        <time>2021-07-28T11:49:55Z</time>
      </trkpt>
      <trkpt lat="49.25591" lon="6.07779">
        <ele>168.3</ele>
        <time>2021-07-28T11:49:57Z</time>
      </trkpt>
      <trkpt lat="49.25592" lon="6.07787">
        <ele>168.3</ele>
        <time>2021-07-28T11:49:58Z</time>
      </trkpt>
      <trkpt lat="49.25591" lon="6.07798">
        <ele>168.3</ele>
        <time>2021-07-28T11:50:00Z</time>
      </trkpt>
      <trkpt lat="49.2559" lon="6.07803">
        <ele>168.3</ele>
        <time>2021-07-28T11:50:01Z</time>
      </trkpt>
      <trkpt lat="49.25588" lon="6.07813">
        <ele>168.2</ele>
        <time>2021-07-28T11:50:03Z</time>
      </trkpt>
      <trkpt lat="49.25586" lon="6.07821">
        <ele>168.2</ele>
        <time>2021-07-28T11:50:04Z</time>
      </trkpt>
      <trkpt lat="49.25586" lon="6.07831">
        <ele>168.2</ele>
        <time>2021-07-28T11:50:06Z</time>
      </trkpt>
      <trkpt lat="49.25586" lon="6.0784">
        <ele>168.3</ele>
        <time>2021-07-28T11:50:07Z</time>
      </trkpt>
      <trkpt lat="49.25586" lon="6.07848">
        <ele>168.3</ele>
        <time>2021-07-28T11:50:08Z</time>
      </trkpt>
      <trkpt lat="49.25586" lon="6.07862">
        <ele>168.3</ele>
        <time>2021-07-28T11:50:10Z</time>
      </trkpt>
      <trkpt lat="49.25584" lon="6.07873">
        <ele>168.3</ele>
        <time>2021-07-28T11:50:12Z</time>
      </trkpt>
      <trkpt lat="49.25584" lon="6.07886">
        <ele>168.3</ele>
        <time>2021-07-28T11:50:14Z</time>
      </trkpt>
      <trkpt lat="49.25583" lon="6.07895">
        <ele>168.3</ele>
        <time>2021-07-28T11:50:15Z</time>
      </trkpt>
      <trkpt lat="49.25583" lon="6.07901">
        <ele>168.3</ele>
        <time>2021-07-28T11:50:16Z</time>
      </trkpt>
      <trkpt lat="49.25582" lon="6.07906">
        <ele>168.3</ele>
        <time>2021-07-28T11:50:17Z</time>
      </trkpt>
      <trkpt lat="49.25581" lon="6.07924">
        <ele>168.3</ele>
        <time>2021-07-28T11:50:19Z</time>
      </trkpt>
      <trkpt lat="49.2558" lon="6.07938">
        <ele>168.3</ele>
        <time>2021-07-28T11:50:21Z</time>
      </trkpt>
      <trkpt lat="49.2558" lon="6.07945">
        <ele>168.3</ele>
        <time>2021-07-28T11:50:22Z</time>
      </trkpt>
      <trkpt lat="49.25579" lon="6.07953">
        <ele>168.2</ele>
        <time>2021-07-28T11:50:23Z</time>
      </trkpt>
      <trkpt lat="49.25578" lon="6.07961">
        <ele>168.2</ele>
        <time>2021-07-28T11:50:24Z</time>
      </trkpt>
      <trkpt lat="49.25578" lon="6.07969">
        <ele>168.2</ele>
        <time>2021-07-28T11:50:25Z</time>
      </trkpt>
      <trkpt lat="49.25578" lon="6.07977">
        <ele>168.2</ele>
        <time>2021-07-28T11:50:26Z</time>
      </trkpt>
      <trkpt lat="49.25578" lon="6.07985">
        <ele>168.1</ele>
        <time>2021-07-28T11:50:27Z</time>
      </trkpt>
      <trkpt lat="49.25577" lon="6.08002">
        <ele>168.1</ele>
        <time>2021-07-28T11:50:29Z</time>
      </trkpt>
      <trkpt lat="49.25575" lon="6.08016">
        <ele>168.1</ele>
        <time>2021-07-28T11:50:31Z</time>
      </trkpt>
      <trkpt lat="49.25575" lon="6.0803">
        <ele>168.1</ele>
        <time>2021-07-28T11:50:33Z</time>
      </trkpt>
      <trkpt lat="49.25574" lon="6.08047">
        <ele>168.2</ele>
        <time>2021-07-28T11:50:35Z</time>
      </trkpt>
      <trkpt lat="49.25572" lon="6.08062">
        <ele>168.2</ele>
        <time>2021-07-28T11:50:37Z</time>
      </trkpt>
      <trkpt lat="49.25571" lon="6.08077">
        <ele>168.2</ele>
        <time>2021-07-28T11:50:39Z</time>
      </trkpt>
      <trkpt lat="49.2557" lon="6.08091">
        <ele>168.3</ele>
        <time>2021-07-28T11:50:41Z</time>
      </trkpt>
      <trkpt lat="49.25569" lon="6.08106">
        <ele>168.3</ele>
        <time>2021-07-28T11:50:43Z</time>
      </trkpt>
      <trkpt lat="49.25568" lon="6.08121">
        <ele>168.4</ele>
        <time>2021-07-28T11:50:45Z</time>
      </trkpt>
      <trkpt lat="49.25567" lon="6.08128">
        <ele>168.4</ele>
        <time>2021-07-28T11:50:46Z</time>
      </trkpt>
      <trkpt lat="49.25567" lon="6.08135">
        <ele>168.4</ele>
        <time>2021-07-28T11:50:47Z</time>
      </trkpt>
      <trkpt lat="49.25566" lon="6.0815">
        <ele>168.4</ele>
        <time>2021-07-28T11:50:49Z</time>
      </trkpt>
      <trkpt lat="49.25566" lon="6.08164">
        <ele>168.4</ele>
        <time>2021-07-28T11:50:51Z</time>
      </trkpt>
      <trkpt lat="49.25565" lon="6.0817">
        <ele>168.4</ele>
        <time>2021-07-28T11:50:52Z</time>
      </trkpt>
      <trkpt lat="49.25564" lon="6.08177">
        <ele>168.3</ele>
        <time>2021-07-28T11:50:53Z</time>
      </trkpt>
      <trkpt lat="49.25562" lon="6.0819">
        <ele>168.3</ele>
        <time>2021-07-28T11:50:55Z</time>
      </trkpt>
      <trkpt lat="49.25561" lon="6.08197">
        <ele>168.3</ele>
        <time>2021-07-28T11:50:56Z</time>
      </trkpt>
      <trkpt lat="49.25559" lon="6.0821">
        <ele>168.3</ele>
        <time>2021-07-28T11:50:58Z</time>
      </trkpt>
      <trkpt lat="49.25558" lon="6.08217">
        <ele>168.3</ele>
        <time>2021-07-28T11:50:59Z</time>
      </trkpt>
      <trkpt lat="49.25558" lon="6.08224">
        <ele>168.3</ele>
        <time>2021-07-28T11:51:00Z</time>
      </trkpt>
      <trkpt lat="49.25558" lon="6.08238">
        <ele>168.3</ele>
        <time>2021-07-28T11:51:02Z</time>
      </trkpt>
      <trkpt lat="49.25557" lon="6.08249">
        <ele>168.3</ele>
        <time>2021-07-28T11:51:04Z</time>
      </trkpt>
      <trkpt lat="49.25555" lon="6.08255">
        <ele>168.3</ele>
        <time>2021-07-28T11:51:05Z</time>
      </trkpt>
      <trkpt lat="49.25554" lon="6.08267">
        <ele>168.3</ele>
        <time>2021-07-28T11:51:07Z</time>
      </trkpt>
      <trkpt lat="49.25554" lon="6.08277">
        <ele>168.3</ele>
        <time>2021-07-28T11:51:08Z</time>
      </trkpt>
      <trkpt lat="49.25554" lon="6.08285">
        <ele>168.3</ele>
        <time>2021-07-28T11:51:09Z</time>
      </trkpt>
      <trkpt lat="49.25553" lon="6.08294">
        <ele>168.3</ele>
        <time>2021-07-28T11:51:11Z</time>
      </trkpt>
      <trkpt lat="49.25553" lon="6.08304">
        <ele>168.3</ele>
        <time>2021-07-28T11:51:12Z</time>
      </trkpt>
      <trkpt lat="49.25553" lon="6.0831">
        <ele>168.4</ele>
        <time>2021-07-28T11:51:13Z</time>
      </trkpt>
      <trkpt lat="49.25553" lon="6.08319">
        <ele>168.4</ele>
        <time>2021-07-28T11:51:14Z</time>
      </trkpt>
      <trkpt lat="49.25553" lon="6.08329">
        <ele>168.4</ele>
        <time>2021-07-28T11:51:16Z</time>
      </trkpt>
      <trkpt lat="49.25554" lon="6.08337">
        <ele>168.4</ele>
        <time>2021-07-28T11:51:17Z</time>
      </trkpt>
      <trkpt lat="49.25554" lon="6.08345">
        <ele>168.4</ele>
        <time>2021-07-28T11:51:19Z</time>
      </trkpt>
      <trkpt lat="49.25554" lon="6.08356">
        <ele>168.4</ele>
        <time>2021-07-28T11:51:20Z</time>
      </trkpt>
      <trkpt lat="49.25554" lon="6.08364">
        <ele>168.4</ele>
        <time>2021-07-28T11:51:21Z</time>
      </trkpt>
      <trkpt lat="49.25554" lon="6.08372">
        <ele>168.4</ele>
        <time>2021-07-28T11:51:23Z</time>
      </trkpt>
      <trkpt lat="49.25553" lon="6.08377">
        <ele>168.4</ele>
        <time>2021-07-28T11:51:24Z</time>
      </trkpt>
      <trkpt lat="49.25552" lon="6.08388">
        <ele>168.4</ele>
        <time>2021-07-28T11:51:25Z</time>
      </trkpt>
      <trkpt lat="49.25548" lon="6.08406">
        <ele>168.4</ele>
        <time>2021-07-28T11:51:27Z</time>
      </trkpt>
      <trkpt lat="49.25548" lon="6.08413">
        <ele>168.3</ele>
        <time>2021-07-28T11:51:28Z</time>
      </trkpt>
      <trkpt lat="49.25547" lon="6.08422">
        <ele>168.3</ele>
        <time>2021-07-28T11:51:29Z</time>
      </trkpt>
      <trkpt lat="49.25546" lon="6.08436">
        <ele>168.3</ele>
        <time>2021-07-28T11:51:31Z</time>
      </trkpt>
      <trkpt lat="49.25544" lon="6.08451">
        <ele>168.2</ele>
        <time>2021-07-28T11:51:33Z</time>
      </trkpt>
      <trkpt lat="49.25542" lon="6.08462">
        <ele>168.2</ele>
        <time>2021-07-28T11:51:35Z</time>
      </trkpt>
      <trkpt lat="49.25541" lon="6.08472">
        <ele>168.2</ele>
        <time>2021-07-28T11:51:36Z</time>
      </trkpt>
      <trkpt lat="49.2554" lon="6.08477">
        <ele>168.2</ele>
        <time>2021-07-28T11:51:37Z</time>
      </trkpt>
      <trkpt lat="49.25539" lon="6.08493">
        <ele>168.2</ele>
        <time>2021-07-28T11:51:39Z</time>
      </trkpt>
      <trkpt lat="49.25538" lon="6.08511">
        <ele>168.2</ele>
        <time>2021-07-28T11:51:41Z</time>
      </trkpt>
      <trkpt lat="49.25537" lon="6.08528">
        <ele>168.2</ele>
        <time>2021-07-28T11:51:43Z</time>
      </trkpt>
      <trkpt lat="49.25536" lon="6.08546">
        <ele>168.2</ele>
        <time>2021-07-28T11:51:45Z</time>
      </trkpt>
      <trkpt lat="49.25536" lon="6.08563">
        <ele>168.2</ele>
        <time>2021-07-28T11:51:47Z</time>
      </trkpt>
      <trkpt lat="49.25536" lon="6.08579">
        <ele>168.2</ele>
        <time>2021-07-28T11:51:49Z</time>
      </trkpt>
      <trkpt lat="49.25535" lon="6.08595">
        <ele>168.2</ele>
        <time>2021-07-28T11:51:51Z</time>
      </trkpt>
      <trkpt lat="49.25534" lon="6.08603">
        <ele>168.2</ele>
        <time>2021-07-28T11:51:52Z</time>
      </trkpt>
      <trkpt lat="49.25533" lon="6.08612">
        <ele>168.2</ele>
        <time>2021-07-28T11:51:53Z</time>
      </trkpt>
      <trkpt lat="49.25532" lon="6.08628">
        <ele>168.2</ele>
        <time>2021-07-28T11:51:55Z</time>
      </trkpt>
      <trkpt lat="49.25531" lon="6.08637">
        <ele>168.3</ele>
        <time>2021-07-28T11:51:56Z</time>
      </trkpt>
      <trkpt lat="49.25529" lon="6.08653">
        <ele>168.3</ele>
        <time>2021-07-28T11:51:58Z</time>
      </trkpt>
      <trkpt lat="49.25529" lon="6.08662">
        <ele>168.3</ele>
        <time>2021-07-28T11:51:59Z</time>
      </trkpt>
      <trkpt lat="49.25528" lon="6.08678">
        <ele>168.3</ele>
        <time>2021-07-28T11:52:01Z</time>
      </trkpt>
      <trkpt lat="49.25527" lon="6.08694">
        <ele>168.3</ele>
        <time>2021-07-28T11:52:03Z</time>
      </trkpt>
      <trkpt lat="49.25527" lon="6.08702">
        <ele>168.2</ele>
        <time>2021-07-28T11:52:04Z</time>
      </trkpt>
      <trkpt lat="49.25526" lon="6.0871">
        <ele>168.2</ele>
        <time>2021-07-28T11:52:05Z</time>
      </trkpt>
      <trkpt lat="49.25525" lon="6.08726">
        <ele>168.2</ele>
        <time>2021-07-28T11:52:07Z</time>
      </trkpt>
      <trkpt lat="49.25523" lon="6.08742">
        <ele>168.1</ele>
        <time>2021-07-28T11:52:09Z</time>
      </trkpt>
      <trkpt lat="49.25522" lon="6.08758">
        <ele>168.1</ele>
        <time>2021-07-28T11:52:11Z</time>
      </trkpt>
      <trkpt lat="49.25521" lon="6.08774">
        <ele>168.1</ele>
        <time>2021-07-28T11:52:13Z</time>
      </trkpt>
      <trkpt lat="49.2552" lon="6.08792">
        <ele>168.1</ele>
        <time>2021-07-28T11:52:15Z</time>
      </trkpt>
      <trkpt lat="49.2552" lon="6.08801">
        <ele>168.1</ele>
        <time>2021-07-28T11:52:16Z</time>
      </trkpt>
      <trkpt lat="49.25519" lon="6.0881">
        <ele>168.1</ele>
        <time>2021-07-28T11:52:17Z</time>
      </trkpt>
      <trkpt lat="49.25519" lon="6.08826">
        <ele>168.1</ele>
        <time>2021-07-28T11:52:19Z</time>
      </trkpt>
      <trkpt lat="49.25517" lon="6.08841">
        <ele>168.1</ele>
        <time>2021-07-28T11:52:21Z</time>
      </trkpt>
      <trkpt lat="49.25516" lon="6.08848">
        <ele>168.1</ele>
        <time>2021-07-28T11:52:22Z</time>
      </trkpt>
      <trkpt lat="49.25515" lon="6.08855">
        <ele>168.1</ele>
        <time>2021-07-28T11:52:23Z</time>
      </trkpt>
      <trkpt lat="49.25512" lon="6.0887">
        <ele>168.2</ele>
        <time>2021-07-28T11:52:25Z</time>
      </trkpt>
      <trkpt lat="49.25509" lon="6.08884">
        <ele>168.2</ele>
        <time>2021-07-28T11:52:27Z</time>
      </trkpt>
      <trkpt lat="49.25508" lon="6.08892">
        <ele>168.2</ele>
        <time>2021-07-28T11:52:28Z</time>
      </trkpt>
      <trkpt lat="49.25507" lon="6.089">
        <ele>168.2</ele>
        <time>2021-07-28T11:52:29Z</time>
      </trkpt>
      <trkpt lat="49.25505" lon="6.08915">
        <ele>168.1</ele>
        <time>2021-07-28T11:52:31Z</time>
      </trkpt>
      <trkpt lat="49.25504" lon="6.0893">
        <ele>168.1</ele>
        <time>2021-07-28T11:52:33Z</time>
      </trkpt>
      <trkpt lat="49.25503" lon="6.08938">
        <ele>168.1</ele>
        <time>2021-07-28T11:52:34Z</time>
      </trkpt>
      <trkpt lat="49.255" lon="6.08953">
        <ele>168.1</ele>
        <time>2021-07-28T11:52:36Z</time>
      </trkpt>
      <trkpt lat="49.25499" lon="6.08961">
        <ele>168.1</ele>
        <time>2021-07-28T11:52:37Z</time>
      </trkpt>
      <trkpt lat="49.25496" lon="6.08978">
        <ele>168.1</ele>
        <time>2021-07-28T11:52:39Z</time>
      </trkpt>
      <trkpt lat="49.25495" lon="6.08987">
        <ele>168.2</ele>
        <time>2021-07-28T11:52:40Z</time>
      </trkpt>
      <trkpt lat="49.25493" lon="6.08994">
        <ele>168.2</ele>
        <time>2021-07-28T11:52:41Z</time>
      </trkpt>
      <trkpt lat="49.2549" lon="6.09006">
        <ele>168.3</ele>
        <time>2021-07-28T11:52:43Z</time>
      </trkpt>
      <trkpt lat="49.25487" lon="6.09017">
        <ele>168.3</ele>
        <time>2021-07-28T11:52:45Z</time>
      </trkpt>
      <trkpt lat="49.25485" lon="6.09025">
        <ele>168.3</ele>
        <time>2021-07-28T11:52:46Z</time>
      </trkpt>
      <trkpt lat="49.25484" lon="6.09033">
        <ele>168.4</ele>
        <time>2021-07-28T11:52:47Z</time>
      </trkpt>
      <trkpt lat="49.25483" lon="6.09044">
        <ele>168.4</ele>
        <time>2021-07-28T11:52:49Z</time>
      </trkpt>
      <trkpt lat="49.25488" lon="6.09049">
        <ele>168.4</ele>
        <time>2021-07-28T11:52:51Z</time>
      </trkpt>
      <trkpt lat="49.25487" lon="6.09058">
        <ele>168.4</ele>
        <time>2021-07-28T11:52:52Z</time>
      </trkpt>
      <trkpt lat="49.25485" lon="6.0907">
        <ele>168.3</ele>
        <time>2021-07-28T11:52:53Z</time>
      </trkpt>
      <trkpt lat="49.25485" lon="6.09086">
        <ele>168.3</ele>
        <time>2021-07-28T11:52:55Z</time>
      </trkpt>
      <trkpt lat="49.25488" lon="6.091">
        <ele>168.3</ele>
        <time>2021-07-28T11:52:57Z</time>
      </trkpt>
      <trkpt lat="49.25489" lon="6.09107">
        <ele>168.3</ele>
        <time>2021-07-28T11:52:58Z</time>
      </trkpt>
      <trkpt lat="49.2549" lon="6.09112">
        <ele>168.3</ele>
        <time>2021-07-28T11:52:59Z</time>
      </trkpt>
      <trkpt lat="49.25492" lon="6.09116">
        <ele>168.3</ele>
        <time>2021-07-28T11:53:00Z</time>
      </trkpt>
      <trkpt lat="49.25494" lon="6.09121">
        <ele>168.3</ele>
        <time>2021-07-28T11:53:01Z</time>
      </trkpt>
      <trkpt lat="49.25495" lon="6.09126">
        <ele>168.3</ele>
        <time>2021-07-28T11:53:02Z</time>
      </trkpt>
      <trkpt lat="49.25497" lon="6.09133">
        <ele>168.3</ele>
        <time>2021-07-28T11:53:04Z</time>
      </trkpt>
      <trkpt lat="49.25499" lon="6.0914">
        <ele>168.3</ele>
        <time>2021-07-28T11:53:05Z</time>
      </trkpt>
      <trkpt lat="49.25499" lon="6.09146">
        <ele>168.3</ele>
        <time>2021-07-28T11:53:06Z</time>
      </trkpt>
      <trkpt lat="49.25499" lon="6.09154">
        <ele>168.3</ele>
        <time>2021-07-28T11:53:08Z</time>
      </trkpt>
      <trkpt lat="49.25499" lon="6.09162">
        <ele>168.2</ele>
        <time>2021-07-28T11:53:10Z</time>
      </trkpt>
      <trkpt lat="49.25499" lon="6.09168">
        <ele>168.2</ele>
        <time>2021-07-28T11:53:11Z</time>
      </trkpt>
      <trkpt lat="49.255" lon="6.09179">
        <ele>168.2</ele>
        <time>2021-07-28T11:53:13Z</time>
      </trkpt>
      <trkpt lat="49.25499" lon="6.09187">
        <ele>168.1</ele>
        <time>2021-07-28T11:53:14Z</time>
      </trkpt>
      <trkpt lat="49.25496" lon="6.09196">
        <ele>168.1</ele>
        <time>2021-07-28T11:53:16Z</time>
      </trkpt>
      <trkpt lat="49.25495" lon="6.09202">
        <ele>168.1</ele>
        <time>2021-07-28T11:53:17Z</time>
      </trkpt>
      <trkpt lat="49.25495" lon="6.0921">
        <ele>168.1</ele>
        <time>2021-07-28T11:53:18Z</time>
      </trkpt>
      <trkpt lat="49.25496" lon="6.0922">
        <ele>168</ele>
        <time>2021-07-28T11:53:19Z</time>
      </trkpt>
      <trkpt lat="49.25499" lon="6.09226">
        <ele>168</ele>
        <time>2021-07-28T11:53:21Z</time>
      </trkpt>
      <trkpt lat="49.25501" lon="6.09234">
        <ele>168</ele>
        <time>2021-07-28T11:53:22Z</time>
      </trkpt>
      <trkpt lat="49.25502" lon="6.0924">
        <ele>167.9</ele>
        <time>2021-07-28T11:53:23Z</time>
      </trkpt>
      <trkpt lat="49.25502" lon="6.09244">
        <ele>167.9</ele>
        <time>2021-07-28T11:53:24Z</time>
      </trkpt>
      <trkpt lat="49.25502" lon="6.09249">
        <ele>167.9</ele>
        <time>2021-07-28T11:53:25Z</time>
      </trkpt>
      <trkpt lat="49.25502" lon="6.09254">
        <ele>167.8</ele>
        <time>2021-07-28T11:53:26Z</time>
      </trkpt>
      <trkpt lat="49.25502" lon="6.09259">
        <ele>167.8</ele>
        <time>2021-07-28T11:53:27Z</time>
      </trkpt>
      <trkpt lat="49.25502" lon="6.09264">
        <ele>167.7</ele>
        <time>2021-07-28T11:53:29Z</time>
      </trkpt>
      <trkpt lat="49.25502" lon="6.09266">
        <ele>167.7</ele>
        <time>2021-07-28T11:53:30Z</time>
      </trkpt>
      <trkpt lat="49.255" lon="6.09268">
        <ele>167.7</ele>
        <time>2021-07-28T11:53:31Z</time>
      </trkpt>
      <trkpt lat="49.25494" lon="6.09281">
        <ele>167.4</ele>
        <time>2021-07-28T11:53:32Z</time>
      </trkpt>
      <trkpt lat="49.2549" lon="6.09291">
        <ele>167.2</ele>
        <time>2021-07-28T11:53:34Z</time>
      </trkpt>
      <trkpt lat="49.25487" lon="6.09301">
        <ele>167</ele>
        <time>2021-07-28T11:53:35Z</time>
      </trkpt>
      <trkpt lat="49.25486" lon="6.0932">
        <ele>166.7</ele>
        <time>2021-07-28T11:53:37Z</time>
      </trkpt>
      <trkpt lat="49.25486" lon="6.09335">
        <ele>166.7</ele>
        <time>2021-07-28T11:53:39Z</time>
      </trkpt>
      <trkpt lat="49.25486" lon="6.09345">
        <ele>166.8</ele>
        <time>2021-07-28T11:53:41Z</time>
      </trkpt>
      <trkpt lat="49.25488" lon="6.09353">
        <ele>166.8</ele>
        <time>2021-07-28T11:53:42Z</time>
      </trkpt>
      <trkpt lat="49.25489" lon="6.09358">
        <ele>166.7</ele>
        <time>2021-07-28T11:53:43Z</time>
      </trkpt>
      <trkpt lat="49.25491" lon="6.09367">
        <ele>166.7</ele>
        <time>2021-07-28T11:53:44Z</time>
      </trkpt>
      <trkpt lat="49.25494" lon="6.09377">
        <ele>166.6</ele>
        <time>2021-07-28T11:53:46Z</time>
      </trkpt>
      <trkpt lat="49.25497" lon="6.09388">
        <ele>166.5</ele>
        <time>2021-07-28T11:53:48Z</time>
      </trkpt>
      <trkpt lat="49.25502" lon="6.09402">
        <ele>166.4</ele>
        <time>2021-07-28T11:53:49Z</time>
      </trkpt>
      <trkpt lat="49.25504" lon="6.09408">
        <ele>166.3</ele>
        <time>2021-07-28T11:53:50Z</time>
      </trkpt>
      <trkpt lat="49.25506" lon="6.09412">
        <ele>166.3</ele>
        <time>2021-07-28T11:53:51Z</time>
      </trkpt>
      <trkpt lat="49.25511" lon="6.09424">
        <ele>166.1</ele>
        <time>2021-07-28T11:53:53Z</time>
      </trkpt>
      <trkpt lat="49.25512" lon="6.09432">
        <ele>166</ele>
        <time>2021-07-28T11:53:54Z</time>
      </trkpt>
      <trkpt lat="49.25514" lon="6.0944">
        <ele>166</ele>
        <time>2021-07-28T11:53:55Z</time>
      </trkpt>
      <trkpt lat="49.25515" lon="6.09447">
        <ele>165.9</ele>
        <time>2021-07-28T11:53:56Z</time>
      </trkpt>
      <trkpt lat="49.25515" lon="6.09452">
        <ele>165.8</ele>
        <time>2021-07-28T11:53:57Z</time>
      </trkpt>
      <trkpt lat="49.25517" lon="6.09467">
        <ele>165.7</ele>
        <time>2021-07-28T11:53:59Z</time>
      </trkpt>
      <trkpt lat="49.25522" lon="6.09481">
        <ele>165.4</ele>
        <time>2021-07-28T11:54:01Z</time>
      </trkpt>
      <trkpt lat="49.25525" lon="6.09496">
        <ele>165.3</ele>
        <time>2021-07-28T11:54:03Z</time>
      </trkpt>
      <trkpt lat="49.25527" lon="6.09509">
        <ele>165.3</ele>
        <time>2021-07-28T11:54:05Z</time>
      </trkpt>
      <trkpt lat="49.25528" lon="6.09516">
        <ele>165.3</ele>
        <time>2021-07-28T11:54:06Z</time>
      </trkpt>
      <trkpt lat="49.2553" lon="6.09523">
        <ele>165.3</ele>
        <time>2021-07-28T11:54:07Z</time>
      </trkpt>
      <trkpt lat="49.25534" lon="6.09535">
        <ele>165.5</ele>
        <time>2021-07-28T11:54:09Z</time>
      </trkpt>
      <trkpt lat="49.25537" lon="6.09547">
        <ele>165.6</ele>
        <time>2021-07-28T11:54:11Z</time>
      </trkpt>
      <trkpt lat="49.2554" lon="6.09553">
        <ele>165.7</ele>
        <time>2021-07-28T11:54:13Z</time>
      </trkpt>
      <trkpt lat="49.25538" lon="6.09561">
        <ele>165.7</ele>
        <time>2021-07-28T11:54:14Z</time>
      </trkpt>
      <trkpt lat="49.25539" lon="6.09568">
        <ele>165.8</ele>
        <time>2021-07-28T11:54:16Z</time>
      </trkpt>
      <trkpt lat="49.2554" lon="6.09574">
        <ele>165.8</ele>
        <time>2021-07-28T11:54:17Z</time>
      </trkpt>
      <trkpt lat="49.2554" lon="6.09578">
        <ele>165.8</ele>
        <time>2021-07-28T11:54:18Z</time>
      </trkpt>
      <trkpt lat="49.25541" lon="6.09581">
        <ele>165.9</ele>
        <time>2021-07-28T11:54:19Z</time>
      </trkpt>
      <trkpt lat="49.25543" lon="6.09585">
        <ele>165.9</ele>
        <time>2021-07-28T11:54:21Z</time>
      </trkpt>
      <trkpt lat="49.25545" lon="6.09586">
        <ele>165.9</ele>
        <time>2021-07-28T11:54:23Z</time>
      </trkpt>
      <trkpt lat="49.2555" lon="6.09588">
        <ele>165.8</ele>
        <time>2021-07-28T11:54:25Z</time>
      </trkpt>
      <trkpt lat="49.25553" lon="6.09589">
        <ele>165.8</ele>
        <time>2021-07-28T11:54:26Z</time>
      </trkpt>
      <trkpt lat="49.25557" lon="6.09591">
        <ele>165.8</ele>
        <time>2021-07-28T11:54:28Z</time>
      </trkpt>
      <trkpt lat="49.25558" lon="6.09594">
        <ele>165.8</ele>
        <time>2021-07-28T11:54:29Z</time>
      </trkpt>
      <trkpt lat="49.25559" lon="6.09596">
        <ele>165.8</ele>
        <time>2021-07-28T11:54:31Z</time>
      </trkpt>
      <trkpt lat="49.2556" lon="6.09598">
        <ele>165.8</ele>
        <time>2021-07-28T11:54:33Z</time>
      </trkpt>
      <trkpt lat="49.25561" lon="6.096">
        <ele>165.8</ele>
        <time>2021-07-28T11:54:34Z</time>
      </trkpt>
      <trkpt lat="49.25561" lon="6.09602">
        <ele>165.8</ele>
        <time>2021-07-28T11:54:35Z</time>
      </trkpt>
      <trkpt lat="49.2556" lon="6.09606">
        <ele>165.9</ele>
        <time>2021-07-28T11:54:36Z</time>
      </trkpt>
      <trkpt lat="49.25555" lon="6.09609">
        <ele>166</ele>
        <time>2021-07-28T11:54:38Z</time>
      </trkpt>
      <trkpt lat="49.2555" lon="6.09608">
        <ele>166.1</ele>
        <time>2021-07-28T11:54:40Z</time>
      </trkpt>
      <trkpt lat="49.25546" lon="6.09603">
        <ele>166.1</ele>
        <time>2021-07-28T11:54:41Z</time>
      </trkpt>
      <trkpt lat="49.2554" lon="6.09596">
        <ele>166.2</ele>
        <time>2021-07-28T11:54:43Z</time>
      </trkpt>
      <trkpt lat="49.25531" lon="6.09585">
        <ele>166.3</ele>
        <time>2021-07-28T11:54:44Z</time>
      </trkpt>
      <trkpt lat="49.25527" lon="6.09578">
        <ele>166.4</ele>
        <time>2021-07-28T11:54:45Z</time>
      </trkpt>
      <trkpt lat="49.25523" lon="6.09572">
        <ele>166.5</ele>
        <time>2021-07-28T11:54:46Z</time>
      </trkpt>
      <trkpt lat="49.25519" lon="6.09567">
        <ele>166.6</ele>
        <time>2021-07-28T11:54:47Z</time>
      </trkpt>
      <trkpt lat="49.2551" lon="6.09558">
        <ele>166.7</ele>
        <time>2021-07-28T11:54:49Z</time>
      </trkpt>
      <trkpt lat="49.25501" lon="6.09551">
        <ele>166.8</ele>
        <time>2021-07-28T11:54:51Z</time>
      </trkpt>
      <trkpt lat="49.25497" lon="6.09551">
        <ele>166.9</ele>
        <time>2021-07-28T11:54:52Z</time>
      </trkpt>
      <trkpt lat="49.25492" lon="6.0955">
        <ele>167</ele>
        <time>2021-07-28T11:54:53Z</time>
      </trkpt>
      <trkpt lat="49.25482" lon="6.09548">
        <ele>167.1</ele>
        <time>2021-07-28T11:54:55Z</time>
      </trkpt>
      <trkpt lat="49.25477" lon="6.0955">
        <ele>167.1</ele>
        <time>2021-07-28T11:54:56Z</time>
      </trkpt>
      <trkpt lat="49.25467" lon="6.09549">
        <ele>167.2</ele>
        <time>2021-07-28T11:54:58Z</time>
      </trkpt>
      <trkpt lat="49.25463" lon="6.09547">
        <ele>167.3</ele>
        <time>2021-07-28T11:54:59Z</time>
      </trkpt>
      <trkpt lat="49.25459" lon="6.09541">
        <ele>167.4</ele>
        <time>2021-07-28T11:55:00Z</time>
      </trkpt>
      <trkpt lat="49.25455" lon="6.0954">
        <ele>167.4</ele>
        <time>2021-07-28T11:55:02Z</time>
      </trkpt>
      <trkpt lat="49.2545" lon="6.09538">
        <ele>167.5</ele>
        <time>2021-07-28T11:55:03Z</time>
      </trkpt>
      <trkpt lat="49.25447" lon="6.09534">
        <ele>167.8</ele>
        <time>2021-07-28T11:55:05Z</time>
      </trkpt>
      <trkpt lat="49.25446" lon="6.09532">
        <ele>167.9</ele>
        <time>2021-07-28T11:55:06Z</time>
      </trkpt>
      <trkpt lat="49.25443" lon="6.09529">
        <ele>168.1</ele>
        <time>2021-07-28T11:55:07Z</time>
      </trkpt>
      <trkpt lat="49.25441" lon="6.09527">
        <ele>168.2</ele>
        <time>2021-07-28T11:55:09Z</time>
      </trkpt>
      <trkpt lat="49.25438" lon="6.09524">
        <ele>168.3</ele>
        <time>2021-07-28T11:55:10Z</time>
      </trkpt>
      <trkpt lat="49.25435" lon="6.09522">
        <ele>168.5</ele>
        <time>2021-07-28T11:55:11Z</time>
      </trkpt>
      <trkpt lat="49.25432" lon="6.09519">
        <ele>168.6</ele>
        <time>2021-07-28T11:55:12Z</time>
      </trkpt>
      <trkpt lat="49.25429" lon="6.09513">
        <ele>168.8</ele>
        <time>2021-07-28T11:55:13Z</time>
      </trkpt>
      <trkpt lat="49.25427" lon="6.09509">
        <ele>168.9</ele>
        <time>2021-07-28T11:55:14Z</time>
      </trkpt>
      <trkpt lat="49.25425" lon="6.09504">
        <ele>169.1</ele>
        <time>2021-07-28T11:55:16Z</time>
      </trkpt>
      <trkpt lat="49.25425" lon="6.09498">
        <ele>169.2</ele>
        <time>2021-07-28T11:55:17Z</time>
      </trkpt>
      <trkpt lat="49.25425" lon="6.09492">
        <ele>169.2</ele>
        <time>2021-07-28T11:55:18Z</time>
      </trkpt>
      <trkpt lat="49.25426" lon="6.09484">
        <ele>169.3</ele>
        <time>2021-07-28T11:55:20Z</time>
      </trkpt>
      <trkpt lat="49.25426" lon="6.09479">
        <ele>169.4</ele>
        <time>2021-07-28T11:55:21Z</time>
      </trkpt>
      <trkpt lat="49.25426" lon="6.09471">
        <ele>169.5</ele>
        <time>2021-07-28T11:55:23Z</time>
      </trkpt>
      <trkpt lat="49.25425" lon="6.09465">
        <ele>169.5</ele>
        <time>2021-07-28T11:55:24Z</time>
      </trkpt>
      <trkpt lat="49.25424" lon="6.09456">
        <ele>169.6</ele>
        <time>2021-07-28T11:55:26Z</time>
      </trkpt>
      <trkpt lat="49.25423" lon="6.09451">
        <ele>169.7</ele>
        <time>2021-07-28T11:55:27Z</time>
      </trkpt>
      <trkpt lat="49.25423" lon="6.09441">
        <ele>169.8</ele>
        <time>2021-07-28T11:55:29Z</time>
      </trkpt>
      <trkpt lat="49.25424" lon="6.09435">
        <ele>169.8</ele>
        <time>2021-07-28T11:55:30Z</time>
      </trkpt>
      <trkpt lat="49.25425" lon="6.09427">
        <ele>169.9</ele>
        <time>2021-07-28T11:55:32Z</time>
      </trkpt>
      <trkpt lat="49.25424" lon="6.09421">
        <ele>170</ele>
        <time>2021-07-28T11:55:33Z</time>
      </trkpt>
      <trkpt lat="49.25423" lon="6.0942">
        <ele>170</ele>
        <time>2021-07-28T11:55:34Z</time>
      </trkpt>
      <trkpt lat="49.25422" lon="6.09418">
        <ele>170</ele>
        <time>2021-07-28T11:55:35Z</time>
      </trkpt>
      <trkpt lat="49.25418" lon="6.09418">
        <ele>170.1</ele>
        <time>2021-07-28T11:55:37Z</time>
      </trkpt>
      <trkpt lat="49.25416" lon="6.09415">
        <ele>170.1</ele>
        <time>2021-07-28T11:55:38Z</time>
      </trkpt>
      <trkpt lat="49.25415" lon="6.09414">
        <ele>170.1</ele>
        <time>2021-07-28T11:55:39Z</time>
      </trkpt>
      <trkpt lat="49.25412" lon="6.09413">
        <ele>170.2</ele>
        <time>2021-07-28T11:55:40Z</time>
      </trkpt>
      <trkpt lat="49.2541" lon="6.09412">
        <ele>170.2</ele>
        <time>2021-07-28T11:55:41Z</time>
      </trkpt>
      <trkpt lat="49.25407" lon="6.09409">
        <ele>170.2</ele>
        <time>2021-07-28T11:55:42Z</time>
      </trkpt>
      <trkpt lat="49.25403" lon="6.09406">
        <ele>170.3</ele>
        <time>2021-07-28T11:55:44Z</time>
      </trkpt>
      <trkpt lat="49.25401" lon="6.09405">
        <ele>170.3</ele>
        <time>2021-07-28T11:55:45Z</time>
      </trkpt>
      <trkpt lat="49.254" lon="6.09404">
        <ele>170.3</ele>
        <time>2021-07-28T11:55:46Z</time>
      </trkpt>
      <trkpt lat="49.25397" lon="6.09401">
        <ele>170.4</ele>
        <time>2021-07-28T11:55:48Z</time>
      </trkpt>
      <trkpt lat="49.25396" lon="6.094">
        <ele>170.4</ele>
        <time>2021-07-28T11:55:49Z</time>
      </trkpt>
      <trkpt lat="49.25392" lon="6.09398">
        <ele>170.4</ele>
        <time>2021-07-28T11:55:51Z</time>
      </trkpt>
      <trkpt lat="49.2539" lon="6.09395">
        <ele>170.4</ele>
        <time>2021-07-28T11:55:53Z</time>
      </trkpt>
      <trkpt lat="49.25389" lon="6.09394">
        <ele>170.4</ele>
        <time>2021-07-28T11:55:54Z</time>
      </trkpt>
      <trkpt lat="49.25387" lon="6.0939">
        <ele>170.4</ele>
        <time>2021-07-28T11:55:55Z</time>
      </trkpt>
      <trkpt lat="49.25386" lon="6.09389">
        <ele>170.5</ele>
        <time>2021-07-28T11:55:56Z</time>
      </trkpt>
      <trkpt lat="49.25385" lon="6.09387">
        <ele>170.5</ele>
        <time>2021-07-28T11:55:57Z</time>
      </trkpt>
      <trkpt lat="49.25382" lon="6.09384">
        <ele>170.5</ele>
        <time>2021-07-28T11:55:59Z</time>
      </trkpt>
      <trkpt lat="49.25379" lon="6.09385">
        <ele>170.5</ele>
        <time>2021-07-28T11:56:01Z</time>
      </trkpt>
      <trkpt lat="49.25375" lon="6.09385">
        <ele>170.6</ele>
        <time>2021-07-28T11:56:02Z</time>
      </trkpt>
      <trkpt lat="49.25373" lon="6.09383">
        <ele>170.6</ele>
        <time>2021-07-28T11:56:03Z</time>
      </trkpt>
      <trkpt lat="49.25368" lon="6.09383">
        <ele>170.6</ele>
        <time>2021-07-28T11:56:05Z</time>
      </trkpt>
      <trkpt lat="49.25366" lon="6.09383">
        <ele>170.6</ele>
        <time>2021-07-28T11:56:06Z</time>
      </trkpt>
      <trkpt lat="49.25362" lon="6.09383">
        <ele>170.7</ele>
        <time>2021-07-28T11:56:07Z</time>
      </trkpt>
      <trkpt lat="49.25359" lon="6.09385">
        <ele>170.7</ele>
        <time>2021-07-28T11:56:09Z</time>
      </trkpt>
      <trkpt lat="49.25356" lon="6.09387">
        <ele>170.7</ele>
        <time>2021-07-28T11:56:10Z</time>
      </trkpt>
      <trkpt lat="49.25352" lon="6.0939">
        <ele>170.7</ele>
        <time>2021-07-28T11:56:11Z</time>
      </trkpt>
      <trkpt lat="49.25348" lon="6.09394">
        <ele>170.7</ele>
        <time>2021-07-28T11:56:13Z</time>
      </trkpt>
      <trkpt lat="49.25345" lon="6.09396">
        <ele>170.7</ele>
        <time>2021-07-28T11:56:14Z</time>
      </trkpt>
      <trkpt lat="49.25344" lon="6.09397">
        <ele>170.7</ele>
        <time>2021-07-28T11:56:15Z</time>
      </trkpt>
      <trkpt lat="49.25343" lon="6.09399">
        <ele>170.7</ele>
        <time>2021-07-28T11:56:16Z</time>
      </trkpt>
      <trkpt lat="49.2534" lon="6.09403">
        <ele>170.7</ele>
        <time>2021-07-28T11:56:18Z</time>
      </trkpt>
      <trkpt lat="49.25339" lon="6.09404">
        <ele>170.7</ele>
        <time>2021-07-28T11:56:19Z</time>
      </trkpt>
      <trkpt lat="49.25336" lon="6.09407">
        <ele>170.7</ele>
        <time>2021-07-28T11:56:20Z</time>
      </trkpt>
      <trkpt lat="49.25335" lon="6.09408">
        <ele>170.7</ele>
        <time>2021-07-28T11:56:21Z</time>
      </trkpt>
      <trkpt lat="49.25327" lon="6.09411">
        <ele>170.6</ele>
        <time>2021-07-28T11:56:23Z</time>
      </trkpt>
      <trkpt lat="49.25322" lon="6.09413">
        <ele>170.5</ele>
        <time>2021-07-28T11:56:24Z</time>
      </trkpt>
      <trkpt lat="49.25313" lon="6.09415">
        <ele>170.4</ele>
        <time>2021-07-28T11:56:26Z</time>
      </trkpt>
      <trkpt lat="49.25309" lon="6.09417">
        <ele>170.3</ele>
        <time>2021-07-28T11:56:27Z</time>
      </trkpt>
      <trkpt lat="49.25303" lon="6.09419">
        <ele>170.2</ele>
        <time>2021-07-28T11:56:28Z</time>
      </trkpt>
      <trkpt lat="49.25298" lon="6.0942">
        <ele>170.3</ele>
        <time>2021-07-28T11:56:30Z</time>
      </trkpt>
      <trkpt lat="49.25293" lon="6.09423">
        <ele>170.3</ele>
        <time>2021-07-28T11:56:31Z</time>
      </trkpt>
      <trkpt lat="49.25287" lon="6.09426">
        <ele>170.3</ele>
        <time>2021-07-28T11:56:33Z</time>
      </trkpt>
      <trkpt lat="49.25283" lon="6.09425">
        <ele>170.4</ele>
        <time>2021-07-28T11:56:35Z</time>
      </trkpt>
      <trkpt lat="49.2528" lon="6.0942">
        <ele>170.4</ele>
        <time>2021-07-28T11:56:36Z</time>
      </trkpt>
      <trkpt lat="49.25278" lon="6.09417">
        <ele>170.4</ele>
        <time>2021-07-28T11:56:37Z</time>
      </trkpt>
      <trkpt lat="49.25275" lon="6.09409">
        <ele>170.6</ele>
        <time>2021-07-28T11:56:39Z</time>
      </trkpt>
      <trkpt lat="49.25272" lon="6.09405">
        <ele>170.7</ele>
        <time>2021-07-28T11:56:40Z</time>
      </trkpt>
      <trkpt lat="49.25271" lon="6.094">
        <ele>170.7</ele>
        <time>2021-07-28T11:56:42Z</time>
      </trkpt>
      <trkpt lat="49.25269" lon="6.09397">
        <ele>170.9</ele>
        <time>2021-07-28T11:56:43Z</time>
      </trkpt>
      <trkpt lat="49.25267" lon="6.09393">
        <ele>171</ele>
        <time>2021-07-28T11:56:45Z</time>
      </trkpt>
      <trkpt lat="49.25264" lon="6.09391">
        <ele>171.2</ele>
        <time>2021-07-28T11:56:46Z</time>
      </trkpt>
      <trkpt lat="49.25263" lon="6.0939">
        <ele>171.3</ele>
        <time>2021-07-28T11:56:47Z</time>
      </trkpt>
      <trkpt lat="49.25264" lon="6.09383">
        <ele>171.5</ele>
        <time>2021-07-28T11:56:48Z</time>
      </trkpt>
      <trkpt lat="49.25264" lon="6.09381">
        <ele>171.5</ele>
        <time>2021-07-28T11:56:49Z</time>
      </trkpt>
      <trkpt lat="49.25263" lon="6.09375">
        <ele>171.8</ele>
        <time>2021-07-28T11:56:50Z</time>
      </trkpt>
      <trkpt lat="49.25263" lon="6.0937">
        <ele>172.9</ele>
        <time>2021-07-28T11:56:52Z</time>
      </trkpt>
      <trkpt lat="49.25263" lon="6.09368">
        <ele>172.9</ele>
        <time>2021-07-28T11:56:53Z</time>
      </trkpt>
      <trkpt lat="49.25262" lon="6.0937">
        <ele>172.9</ele>
        <time>2021-07-28T11:56:55Z</time>
      </trkpt>
      <trkpt lat="49.25261" lon="6.0937">
        <ele>172.9</ele>
        <time>2021-07-28T11:56:56Z</time>
      </trkpt>
      <trkpt lat="49.25261" lon="6.09371">
        <ele>172.9</ele>
        <time>2021-07-28T11:56:58Z</time>
      </trkpt>
      <trkpt lat="49.25261" lon="6.09371">
        <ele>172.9</ele>
        <time>2021-07-28T11:56:59Z</time>
      </trkpt>
      <trkpt lat="49.25261" lon="6.09371">
        <ele>172.9</ele>
        <time>2021-07-28T11:57:00Z</time>
      </trkpt>
      <trkpt lat="49.2526" lon="6.09372">
        <ele>172.9</ele>
        <time>2021-07-28T11:57:01Z</time>
      </trkpt>
      <trkpt lat="49.2526" lon="6.09373">
        <ele>172.9</ele>
        <time>2021-07-28T11:57:03Z</time>
      </trkpt>
      <trkpt lat="49.25259" lon="6.09373">
        <ele>172.9</ele>
        <time>2021-07-28T11:57:05Z</time>
      </trkpt>
      <trkpt lat="49.25252" lon="6.0937">
        <ele>173</ele>
        <time>2021-07-28T11:57:17Z</time>
      </trkpt>
      <trkpt lat="49.25248" lon="6.09366">
        <ele>173</ele>
        <time>2021-07-28T11:57:18Z</time>
      </trkpt>
      <trkpt lat="49.25244" lon="6.09359">
        <ele>173</ele>
        <time>2021-07-28T11:57:19Z</time>
      </trkpt>
      <trkpt lat="49.2524" lon="6.09348">
        <ele>173</ele>
        <time>2021-07-28T11:57:21Z</time>
      </trkpt>
      <trkpt lat="49.25236" lon="6.09343">
        <ele>173</ele>
        <time>2021-07-28T11:57:22Z</time>
      </trkpt>
      <trkpt lat="49.2523" lon="6.09339">
        <ele>173.1</ele>
        <time>2021-07-28T11:57:23Z</time>
      </trkpt>
      <trkpt lat="49.25223" lon="6.09332">
        <ele>173.2</ele>
        <time>2021-07-28T11:57:25Z</time>
      </trkpt>
      <trkpt lat="49.25218" lon="6.09326">
        <ele>173.3</ele>
        <time>2021-07-28T11:57:26Z</time>
      </trkpt>
      <trkpt lat="49.25214" lon="6.09322">
        <ele>173.4</ele>
        <time>2021-07-28T11:57:27Z</time>
      </trkpt>
      <trkpt lat="49.25209" lon="6.09318">
        <ele>173.6</ele>
        <time>2021-07-28T11:57:29Z</time>
      </trkpt>
      <trkpt lat="49.25207" lon="6.09314">
        <ele>173.7</ele>
        <time>2021-07-28T11:57:30Z</time>
      </trkpt>
      <trkpt lat="49.25204" lon="6.09312">
        <ele>173.7</ele>
        <time>2021-07-28T11:57:32Z</time>
      </trkpt>
      <trkpt lat="49.25202" lon="6.09311">
        <ele>173.8</ele>
        <time>2021-07-28T11:57:33Z</time>
      </trkpt>
      <trkpt lat="49.25199" lon="6.09312">
        <ele>173.8</ele>
        <time>2021-07-28T11:57:34Z</time>
      </trkpt>
      <trkpt lat="49.25196" lon="6.09313">
        <ele>173.9</ele>
        <time>2021-07-28T11:57:36Z</time>
      </trkpt>
      <trkpt lat="49.25194" lon="6.09311">
        <ele>174</ele>
        <time>2021-07-28T11:57:37Z</time>
      </trkpt>
      <trkpt lat="49.25192" lon="6.09308">
        <ele>174.1</ele>
        <time>2021-07-28T11:57:39Z</time>
      </trkpt>
      <trkpt lat="49.25189" lon="6.09305">
        <ele>174.1</ele>
        <time>2021-07-28T11:57:40Z</time>
      </trkpt>
      <trkpt lat="49.25185" lon="6.093">
        <ele>174.3</ele>
        <time>2021-07-28T11:57:41Z</time>
      </trkpt>
      <trkpt lat="49.25181" lon="6.09296">
        <ele>174.5</ele>
        <time>2021-07-28T11:57:43Z</time>
      </trkpt>
      <trkpt lat="49.25178" lon="6.09292">
        <ele>174.7</ele>
        <time>2021-07-28T11:57:44Z</time>
      </trkpt>
      <trkpt lat="49.25177" lon="6.09291">
        <ele>174.7</ele>
        <time>2021-07-28T11:57:45Z</time>
      </trkpt>
      <trkpt lat="49.25174" lon="6.09289">
        <ele>174.9</ele>
        <time>2021-07-28T11:57:46Z</time>
      </trkpt>
      <trkpt lat="49.25171" lon="6.09284">
        <ele>175</ele>
        <time>2021-07-28T11:57:48Z</time>
      </trkpt>
      <trkpt lat="49.2517" lon="6.09282">
        <ele>175.1</ele>
        <time>2021-07-28T11:57:49Z</time>
      </trkpt>
      <trkpt lat="49.25169" lon="6.09281">
        <ele>175.1</ele>
        <time>2021-07-28T11:57:50Z</time>
      </trkpt>
      <trkpt lat="49.25169" lon="6.09276">
        <ele>175.2</ele>
        <time>2021-07-28T11:57:51Z</time>
      </trkpt>
      <trkpt lat="49.25168" lon="6.09275">
        <ele>175.3</ele>
        <time>2021-07-28T11:57:52Z</time>
      </trkpt>
      <trkpt lat="49.25166" lon="6.09271">
        <ele>175.4</ele>
        <time>2021-07-28T11:57:53Z</time>
      </trkpt>
      <trkpt lat="49.25165" lon="6.09269">
        <ele>175.5</ele>
        <time>2021-07-28T11:57:54Z</time>
      </trkpt>
      <trkpt lat="49.25163" lon="6.09268">
        <ele>175.5</ele>
        <time>2021-07-28T11:57:55Z</time>
      </trkpt>
      <trkpt lat="49.25159" lon="6.09264">
        <ele>175.7</ele>
        <time>2021-07-28T11:57:57Z</time>
      </trkpt>
      <trkpt lat="49.25157" lon="6.09261">
        <ele>175.8</ele>
        <time>2021-07-28T11:57:58Z</time>
      </trkpt>
      <trkpt lat="49.25154" lon="6.09258">
        <ele>175.9</ele>
        <time>2021-07-28T11:57:59Z</time>
      </trkpt>
      <trkpt lat="49.25152" lon="6.09255">
        <ele>176</ele>
        <time>2021-07-28T11:58:00Z</time>
      </trkpt>
      <trkpt lat="49.25151" lon="6.09251">
        <ele>176.1</ele>
        <time>2021-07-28T11:58:02Z</time>
      </trkpt>
      <trkpt lat="49.25151" lon="6.0925">
        <ele>176.1</ele>
        <time>2021-07-28T11:58:04Z</time>
      </trkpt>
      <trkpt lat="49.25151" lon="6.0925">
        <ele>176.1</ele>
        <time>2021-07-28T11:58:05Z</time>
      </trkpt>
      <trkpt lat="49.25151" lon="6.0925">
        <ele>176.1</ele>
        <time>2021-07-28T11:58:07Z</time>
      </trkpt>
      <trkpt lat="49.25151" lon="6.09249">
        <ele>176.1</ele>
        <time>2021-07-28T11:58:09Z</time>
      </trkpt>
      <trkpt lat="49.2515" lon="6.09248">
        <ele>176.1</ele>
        <time>2021-07-28T11:58:10Z</time>
      </trkpt>
      <trkpt lat="49.25149" lon="6.09247">
        <ele>176.1</ele>
        <time>2021-07-28T11:58:12Z</time>
      </trkpt>
      <trkpt lat="49.25148" lon="6.09241">
        <ele>176.2</ele>
        <time>2021-07-28T11:58:17Z</time>
      </trkpt>
      <trkpt lat="49.25146" lon="6.09236">
        <ele>176.5</ele>
        <time>2021-07-28T11:58:19Z</time>
      </trkpt>
      <trkpt lat="49.25144" lon="6.09232">
        <ele>176.7</ele>
        <time>2021-07-28T11:58:20Z</time>
      </trkpt>
      <trkpt lat="49.25141" lon="6.09226">
        <ele>177</ele>
        <time>2021-07-28T11:58:21Z</time>
      </trkpt>
      <trkpt lat="49.25137" lon="6.09218">
        <ele>177.3</ele>
        <time>2021-07-28T11:58:22Z</time>
      </trkpt>
      <trkpt lat="49.25135" lon="6.09213">
        <ele>177.5</ele>
        <time>2021-07-28T11:58:23Z</time>
      </trkpt>
      <trkpt lat="49.25132" lon="6.09207">
        <ele>177.7</ele>
        <time>2021-07-28T11:58:25Z</time>
      </trkpt>
      <trkpt lat="49.2513" lon="6.092">
        <ele>177.8</ele>
        <time>2021-07-28T11:58:26Z</time>
      </trkpt>
      <trkpt lat="49.2513" lon="6.09195">
        <ele>178</ele>
        <time>2021-07-28T11:58:27Z</time>
      </trkpt>
      <trkpt lat="49.25129" lon="6.09191">
        <ele>178.1</ele>
        <time>2021-07-28T11:58:28Z</time>
      </trkpt>
      <trkpt lat="49.25128" lon="6.09188">
        <ele>178.2</ele>
        <time>2021-07-28T11:58:29Z</time>
      </trkpt>
      <trkpt lat="49.25125" lon="6.09188">
        <ele>178.3</ele>
        <time>2021-07-28T11:58:31Z</time>
      </trkpt>
      <trkpt lat="49.25123" lon="6.09184">
        <ele>178.4</ele>
        <time>2021-07-28T11:58:32Z</time>
      </trkpt>
      <trkpt lat="49.25121" lon="6.09181">
        <ele>178.5</ele>
        <time>2021-07-28T11:58:33Z</time>
      </trkpt>
      <trkpt lat="49.2512" lon="6.0918">
        <ele>178.6</ele>
        <time>2021-07-28T11:58:34Z</time>
      </trkpt>
      <trkpt lat="49.25117" lon="6.09172">
        <ele>178.8</ele>
        <time>2021-07-28T11:58:36Z</time>
      </trkpt>
      <trkpt lat="49.25116" lon="6.09165">
        <ele>179</ele>
        <time>2021-07-28T11:58:37Z</time>
      </trkpt>
      <trkpt lat="49.25115" lon="6.09161">
        <ele>179.2</ele>
        <time>2021-07-28T11:58:38Z</time>
      </trkpt>
      <trkpt lat="49.2511" lon="6.09157">
        <ele>179.4</ele>
        <time>2021-07-28T11:58:40Z</time>
      </trkpt>
      <trkpt lat="49.25105" lon="6.09156">
        <ele>179.6</ele>
        <time>2021-07-28T11:58:42Z</time>
      </trkpt>
      <trkpt lat="49.25104" lon="6.09153">
        <ele>179.7</ele>
        <time>2021-07-28T11:58:43Z</time>
      </trkpt>
      <trkpt lat="49.25105" lon="6.09148">
        <ele>179.8</ele>
        <time>2021-07-28T11:58:45Z</time>
      </trkpt>
      <trkpt lat="49.25105" lon="6.09145">
        <ele>179.9</ele>
        <time>2021-07-28T11:58:46Z</time>
      </trkpt>
      <trkpt lat="49.25104" lon="6.09144">
        <ele>180</ele>
        <time>2021-07-28T11:58:47Z</time>
      </trkpt>
      <trkpt lat="49.25103" lon="6.09144">
        <ele>180</ele>
        <time>2021-07-28T11:58:48Z</time>
      </trkpt>
      <trkpt lat="49.251" lon="6.09144">
        <ele>180.1</ele>
        <time>2021-07-28T11:58:50Z</time>
      </trkpt>
      <trkpt lat="49.25097" lon="6.09142">
        <ele>180.2</ele>
        <time>2021-07-28T11:58:51Z</time>
      </trkpt>
      <trkpt lat="49.25094" lon="6.09138">
        <ele>180.4</ele>
        <time>2021-07-28T11:58:52Z</time>
      </trkpt>
      <trkpt lat="49.25091" lon="6.09136">
        <ele>180.5</ele>
        <time>2021-07-28T11:58:53Z</time>
      </trkpt>
      <trkpt lat="49.25085" lon="6.09136">
        <ele>180.7</ele>
        <time>2021-07-28T11:58:54Z</time>
      </trkpt>
      <trkpt lat="49.25081" lon="6.09136">
        <ele>180.9</ele>
        <time>2021-07-28T11:58:56Z</time>
      </trkpt>
      <trkpt lat="49.25074" lon="6.09139">
        <ele>181.1</ele>
        <time>2021-07-28T11:58:57Z</time>
      </trkpt>
      <trkpt lat="49.25069" lon="6.09143">
        <ele>181.1</ele>
        <time>2021-07-28T11:58:58Z</time>
      </trkpt>
      <trkpt lat="49.25065" lon="6.09148">
        <ele>180.8</ele>
        <time>2021-07-28T11:58:59Z</time>
      </trkpt>
      <trkpt lat="49.25059" lon="6.09156">
        <ele>180.2</ele>
        <time>2021-07-28T11:59:01Z</time>
      </trkpt>
      <trkpt lat="49.25053" lon="6.09164">
        <ele>179.5</ele>
        <time>2021-07-28T11:59:02Z</time>
      </trkpt>
      <trkpt lat="49.25049" lon="6.0917">
        <ele>179</ele>
        <time>2021-07-28T11:59:04Z</time>
      </trkpt>
      <trkpt lat="49.25044" lon="6.09174">
        <ele>178.6</ele>
        <time>2021-07-28T11:59:05Z</time>
      </trkpt>
      <trkpt lat="49.25038" lon="6.09176">
        <ele>178.1</ele>
        <time>2021-07-28T11:59:07Z</time>
      </trkpt>
      <trkpt lat="49.25035" lon="6.09181">
        <ele>177.8</ele>
        <time>2021-07-28T11:59:08Z</time>
      </trkpt>
      <trkpt lat="49.25035" lon="6.09183">
        <ele>177.8</ele>
        <time>2021-07-28T11:59:09Z</time>
      </trkpt>
      <trkpt lat="49.25032" lon="6.09189">
        <ele>177.5</ele>
        <time>2021-07-28T11:59:11Z</time>
      </trkpt>
      <trkpt lat="49.2503" lon="6.09193">
        <ele>177.4</ele>
        <time>2021-07-28T11:59:12Z</time>
      </trkpt>
      <trkpt lat="49.25027" lon="6.09197">
        <ele>177.2</ele>
        <time>2021-07-28T11:59:13Z</time>
      </trkpt>
      <trkpt lat="49.25023" lon="6.09205">
        <ele>177</ele>
        <time>2021-07-28T11:59:15Z</time>
      </trkpt>
      <trkpt lat="49.25017" lon="6.09207">
        <ele>177</ele>
        <time>2021-07-28T11:59:17Z</time>
      </trkpt>
      <trkpt lat="49.25016" lon="6.09213">
        <ele>177</ele>
        <time>2021-07-28T11:59:18Z</time>
      </trkpt>
      <trkpt lat="49.25012" lon="6.09221">
        <ele>177</ele>
        <time>2021-07-28T11:59:20Z</time>
      </trkpt>
      <trkpt lat="49.25008" lon="6.09227">
        <ele>177.1</ele>
        <time>2021-07-28T11:59:22Z</time>
      </trkpt>
      <trkpt lat="49.25005" lon="6.09231">
        <ele>177.1</ele>
        <time>2021-07-28T11:59:23Z</time>
      </trkpt>
      <trkpt lat="49.25003" lon="6.09235">
        <ele>177.2</ele>
        <time>2021-07-28T11:59:24Z</time>
      </trkpt>
      <trkpt lat="49.25" lon="6.09239">
        <ele>177.2</ele>
        <time>2021-07-28T11:59:25Z</time>
      </trkpt>
      <trkpt lat="49.24997" lon="6.09243">
        <ele>177.2</ele>
        <time>2021-07-28T11:59:27Z</time>
      </trkpt>
      <trkpt lat="49.24993" lon="6.0925">
        <ele>177.3</ele>
        <time>2021-07-28T11:59:29Z</time>
      </trkpt>
      <trkpt lat="49.2499" lon="6.09255">
        <ele>177.3</ele>
        <time>2021-07-28T11:59:31Z</time>
      </trkpt>
      <trkpt lat="49.24989" lon="6.09256">
        <ele>177.3</ele>
        <time>2021-07-28T11:59:32Z</time>
      </trkpt>
      <trkpt lat="49.24988" lon="6.09257">
        <ele>177.3</ele>
        <time>2021-07-28T11:59:33Z</time>
      </trkpt>
      <trkpt lat="49.24987" lon="6.09262">
        <ele>177.3</ele>
        <time>2021-07-28T11:59:35Z</time>
      </trkpt>
      <trkpt lat="49.24986" lon="6.09266">
        <ele>177.3</ele>
        <time>2021-07-28T11:59:36Z</time>
      </trkpt>
      <trkpt lat="49.24984" lon="6.09271">
        <ele>177.2</ele>
        <time>2021-07-28T11:59:37Z</time>
      </trkpt>
      <trkpt lat="49.24983" lon="6.09277">
        <ele>177.2</ele>
        <time>2021-07-28T11:59:39Z</time>
      </trkpt>
      <trkpt lat="49.24983" lon="6.09279">
        <ele>177.2</ele>
        <time>2021-07-28T11:59:40Z</time>
      </trkpt>
      <trkpt lat="49.24983" lon="6.09279">
        <ele>177.2</ele>
        <time>2021-07-28T11:59:42Z</time>
      </trkpt>
      <trkpt lat="49.24984" lon="6.09278">
        <ele>177.2</ele>
        <time>2021-07-28T11:59:44Z</time>
      </trkpt>
      <trkpt lat="49.24984" lon="6.09277">
        <ele>177.2</ele>
        <time>2021-07-28T11:59:45Z</time>
      </trkpt>
      <trkpt lat="49.24985" lon="6.09274">
        <ele>177.2</ele>
        <time>2021-07-28T11:59:46Z</time>
      </trkpt>
      <trkpt lat="49.24986" lon="6.09272">
        <ele>177.2</ele>
        <time>2021-07-28T11:59:48Z</time>
      </trkpt>
      <trkpt lat="49.24988" lon="6.09269">
        <ele>177.2</ele>
        <time>2021-07-28T11:59:49Z</time>
      </trkpt>
      <trkpt lat="49.2499" lon="6.09266">
        <ele>177.2</ele>
        <time>2021-07-28T11:59:51Z</time>
      </trkpt>
      <trkpt lat="49.24991" lon="6.09264">
        <ele>177.2</ele>
        <time>2021-07-28T11:59:52Z</time>
      </trkpt>
      <trkpt lat="49.24996" lon="6.09253">
        <ele>177.2</ele>
        <time>2021-07-28T11:59:53Z</time>
      </trkpt>
      <trkpt lat="49.25" lon="6.09244">
        <ele>177.3</ele>
        <time>2021-07-28T11:59:55Z</time>
      </trkpt>
      <trkpt lat="49.25005" lon="6.09226">
        <ele>177.2</ele>
        <time>2021-07-28T11:59:56Z</time>
      </trkpt>
      <trkpt lat="49.25008" lon="6.09221">
        <ele>177.1</ele>
        <time>2021-07-28T11:59:57Z</time>
      </trkpt>
      <trkpt lat="49.25011" lon="6.09218">
        <ele>177.1</ele>
        <time>2021-07-28T11:59:58Z</time>
      </trkpt>
      <trkpt lat="49.25016" lon="6.09208">
        <ele>177</ele>
        <time>2021-07-28T12:00:00Z</time>
      </trkpt>
      <trkpt lat="49.25016" lon="6.09199">
        <ele>177.1</ele>
        <time>2021-07-28T12:00:02Z</time>
      </trkpt>
      <trkpt lat="49.25012" lon="6.09192">
        <ele>177.2</ele>
        <time>2021-07-28T12:00:04Z</time>
      </trkpt>
      <trkpt lat="49.25012" lon="6.09195">
        <ele>177.2</ele>
        <time>2021-07-28T12:00:06Z</time>
      </trkpt>
      <trkpt lat="49.25012" lon="6.09196">
        <ele>177.2</ele>
        <time>2021-07-28T12:00:07Z</time>
      </trkpt>
      <trkpt lat="49.25016" lon="6.09201">
        <ele>177.3</ele>
        <time>2021-07-28T12:00:09Z</time>
      </trkpt>
      <trkpt lat="49.25015" lon="6.09201">
        <ele>177.3</ele>
        <time>2021-07-28T12:00:10Z</time>
      </trkpt>
      <trkpt lat="49.25014" lon="6.092">
        <ele>177.3</ele>
        <time>2021-07-28T12:00:12Z</time>
      </trkpt>
      <trkpt lat="49.25013" lon="6.092">
        <ele>177.3</ele>
        <time>2021-07-28T12:00:14Z</time>
      </trkpt>
      <trkpt lat="49.25013" lon="6.09199">
        <ele>177.3</ele>
        <time>2021-07-28T12:00:15Z</time>
      </trkpt>
      <trkpt lat="49.25012" lon="6.09199">
        <ele>177.3</ele>
        <time>2021-07-28T12:00:17Z</time>
      </trkpt>
      <trkpt lat="49.25012" lon="6.09198">
        <ele>177.3</ele>
        <time>2021-07-28T12:00:18Z</time>
      </trkpt>
      <trkpt lat="49.25009" lon="6.09193">
        <ele>177.3</ele>
        <time>2021-07-28T12:00:19Z</time>
      </trkpt>
      <trkpt lat="49.25004" lon="6.09182">
        <ele>177.4</ele>
        <time>2021-07-28T12:00:21Z</time>
      </trkpt>
      <trkpt lat="49.25001" lon="6.09175">
        <ele>177.5</ele>
        <time>2021-07-28T12:00:22Z</time>
      </trkpt>
      <trkpt lat="49.24998" lon="6.0917">
        <ele>177.5</ele>
        <time>2021-07-28T12:00:23Z</time>
      </trkpt>
      <trkpt lat="49.24998" lon="6.09169">
        <ele>177.5</ele>
        <time>2021-07-28T12:00:25Z</time>
      </trkpt>
      <trkpt lat="49.24998" lon="6.09168">
        <ele>177.5</ele>
        <time>2021-07-28T12:00:26Z</time>
      </trkpt>
      <trkpt lat="49.24997" lon="6.09166">
        <ele>177.5</ele>
        <time>2021-07-28T12:00:28Z</time>
      </trkpt>
      <trkpt lat="49.24997" lon="6.09165">
        <ele>177.5</ele>
        <time>2021-07-28T12:00:29Z</time>
      </trkpt>
      <trkpt lat="49.24992" lon="6.09163">
        <ele>177.6</ele>
        <time>2021-07-28T12:00:30Z</time>
      </trkpt>
      <trkpt lat="49.24989" lon="6.09161">
        <ele>177.6</ele>
        <time>2021-07-28T12:00:31Z</time>
      </trkpt>
      <trkpt lat="49.24983" lon="6.09159">
        <ele>177.6</ele>
        <time>2021-07-28T12:00:33Z</time>
      </trkpt>
      <trkpt lat="49.24979" lon="6.09159">
        <ele>177.6</ele>
        <time>2021-07-28T12:00:34Z</time>
      </trkpt>
      <trkpt lat="49.24975" lon="6.09159">
        <ele>177.7</ele>
        <time>2021-07-28T12:00:35Z</time>
      </trkpt>
      <trkpt lat="49.24968" lon="6.09161">
        <ele>177.7</ele>
        <time>2021-07-28T12:00:37Z</time>
      </trkpt>
      <trkpt lat="49.24962" lon="6.09162">
        <ele>177.8</ele>
        <time>2021-07-28T12:00:38Z</time>
      </trkpt>
      <trkpt lat="49.24955" lon="6.09163">
        <ele>177.9</ele>
        <time>2021-07-28T12:00:39Z</time>
      </trkpt>
      <trkpt lat="49.24945" lon="6.09164">
        <ele>178</ele>
        <time>2021-07-28T12:00:41Z</time>
      </trkpt>
      <trkpt lat="49.2494" lon="6.09164">
        <ele>178.1</ele>
        <time>2021-07-28T12:00:42Z</time>
      </trkpt>
      <trkpt lat="49.24935" lon="6.09164">
        <ele>178.2</ele>
        <time>2021-07-28T12:00:43Z</time>
      </trkpt>
      <trkpt lat="49.24929" lon="6.09164">
        <ele>178.3</ele>
        <time>2021-07-28T12:00:44Z</time>
      </trkpt>
      <trkpt lat="49.24924" lon="6.09163">
        <ele>178.4</ele>
        <time>2021-07-28T12:00:45Z</time>
      </trkpt>
      <trkpt lat="49.24916" lon="6.09155">
        <ele>178.6</ele>
        <time>2021-07-28T12:00:47Z</time>
      </trkpt>
      <trkpt lat="49.24911" lon="6.09146">
        <ele>178.7</ele>
        <time>2021-07-28T12:00:49Z</time>
      </trkpt>
      <trkpt lat="49.24908" lon="6.09142">
        <ele>178.7</ele>
        <time>2021-07-28T12:00:51Z</time>
      </trkpt>
      <trkpt lat="49.24907" lon="6.09142">
        <ele>178.7</ele>
        <time>2021-07-28T12:00:52Z</time>
      </trkpt>
      <trkpt lat="49.24903" lon="6.09141">
        <ele>178.8</ele>
        <time>2021-07-28T12:00:54Z</time>
      </trkpt>
      <trkpt lat="49.249" lon="6.09138">
        <ele>178.8</ele>
        <time>2021-07-28T12:00:55Z</time>
      </trkpt>
      <trkpt lat="49.24899" lon="6.09137">
        <ele>178.8</ele>
        <time>2021-07-28T12:00:56Z</time>
      </trkpt>
      <trkpt lat="49.24896" lon="6.09135">
        <ele>178.9</ele>
        <time>2021-07-28T12:00:57Z</time>
      </trkpt>
      <trkpt lat="49.24893" lon="6.09132">
        <ele>178.9</ele>
        <time>2021-07-28T12:00:58Z</time>
      </trkpt>
      <trkpt lat="49.2489" lon="6.09124">
        <ele>179</ele>
        <time>2021-07-28T12:01:00Z</time>
      </trkpt>
      <trkpt lat="49.24886" lon="6.09119">
        <ele>179</ele>
        <time>2021-07-28T12:01:01Z</time>
      </trkpt>
      <trkpt lat="49.24879" lon="6.09113">
        <ele>179.1</ele>
        <time>2021-07-28T12:01:03Z</time>
      </trkpt>
      <trkpt lat="49.24873" lon="6.09107">
        <ele>179.2</ele>
        <time>2021-07-28T12:01:05Z</time>
      </trkpt>
      <trkpt lat="49.24869" lon="6.09102">
        <ele>179.2</ele>
        <time>2021-07-28T12:01:06Z</time>
      </trkpt>
      <trkpt lat="49.24864" lon="6.09098">
        <ele>179.3</ele>
        <time>2021-07-28T12:01:08Z</time>
      </trkpt>
      <trkpt lat="49.24858" lon="6.09092">
        <ele>179.5</ele>
        <time>2021-07-28T12:01:10Z</time>
      </trkpt>
      <trkpt lat="49.24856" lon="6.0909">
        <ele>179.5</ele>
        <time>2021-07-28T12:01:11Z</time>
      </trkpt>
      <trkpt lat="49.24854" lon="6.09089">
        <ele>179.6</ele>
        <time>2021-07-28T12:01:12Z</time>
      </trkpt>
      <trkpt lat="49.24853" lon="6.09087">
        <ele>179.6</ele>
        <time>2021-07-28T12:01:14Z</time>
      </trkpt>
      <trkpt lat="49.24854" lon="6.09086">
        <ele>179.6</ele>
        <time>2021-07-28T12:01:15Z</time>
      </trkpt>
      <trkpt lat="49.24854" lon="6.09086">
        <ele>179.6</ele>
        <time>2021-07-28T12:01:16Z</time>
      </trkpt>
      <trkpt lat="49.24853" lon="6.09085">
        <ele>179.6</ele>
        <time>2021-07-28T12:01:17Z</time>
      </trkpt>
      <trkpt lat="49.2485" lon="6.09081">
        <ele>179.7</ele>
        <time>2021-07-28T12:01:19Z</time>
      </trkpt>
      <trkpt lat="49.24847" lon="6.09079">
        <ele>179.8</ele>
        <time>2021-07-28T12:01:20Z</time>
      </trkpt>
      <trkpt lat="49.24842" lon="6.09076">
        <ele>179.9</ele>
        <time>2021-07-28T12:01:21Z</time>
      </trkpt>
      <trkpt lat="49.24838" lon="6.09076">
        <ele>179.9</ele>
        <time>2021-07-28T12:01:22Z</time>
      </trkpt>
      <trkpt lat="49.24834" lon="6.09076">
        <ele>180</ele>
        <time>2021-07-28T12:01:23Z</time>
      </trkpt>
      <trkpt lat="49.2483" lon="6.09075">
        <ele>180.1</ele>
        <time>2021-07-28T12:01:24Z</time>
      </trkpt>
      <trkpt lat="49.2482" lon="6.09073">
        <ele>180.3</ele>
        <time>2021-07-28T12:01:26Z</time>
      </trkpt>
      <trkpt lat="49.24816" lon="6.0907">
        <ele>180.4</ele>
        <time>2021-07-28T12:01:27Z</time>
      </trkpt>
      <trkpt lat="49.24812" lon="6.09067">
        <ele>180.5</ele>
        <time>2021-07-28T12:01:28Z</time>
      </trkpt>
      <trkpt lat="49.24809" lon="6.09063">
        <ele>180.6</ele>
        <time>2021-07-28T12:01:29Z</time>
      </trkpt>
      <trkpt lat="49.24806" lon="6.09057">
        <ele>180.8</ele>
        <time>2021-07-28T12:01:31Z</time>
      </trkpt>
      <trkpt lat="49.24806" lon="6.09052">
        <ele>180.9</ele>
        <time>2021-07-28T12:01:32Z</time>
      </trkpt>
      <trkpt lat="49.24808" lon="6.09045">
        <ele>181</ele>
        <time>2021-07-28T12:01:34Z</time>
      </trkpt>
      <trkpt lat="49.24808" lon="6.0904">
        <ele>181.1</ele>
        <time>2021-07-28T12:01:35Z</time>
      </trkpt>
      <trkpt lat="49.24808" lon="6.09038">
        <ele>181.2</ele>
        <time>2021-07-28T12:01:36Z</time>
      </trkpt>
      <trkpt lat="49.24807" lon="6.09036">
        <ele>181.2</ele>
        <time>2021-07-28T12:01:37Z</time>
      </trkpt>
      <trkpt lat="49.24805" lon="6.09032">
        <ele>181.4</ele>
        <time>2021-07-28T12:01:39Z</time>
      </trkpt>
      <trkpt lat="49.24805" lon="6.09031">
        <ele>181.4</ele>
        <time>2021-07-28T12:01:40Z</time>
      </trkpt>
      <trkpt lat="49.24804" lon="6.0903">
        <ele>181.5</ele>
        <time>2021-07-28T12:01:41Z</time>
      </trkpt>
      <trkpt lat="49.24802" lon="6.09029">
        <ele>181.5</ele>
        <time>2021-07-28T12:01:42Z</time>
      </trkpt>
      <trkpt lat="49.24801" lon="6.09027">
        <ele>181.6</ele>
        <time>2021-07-28T12:01:43Z</time>
      </trkpt>
      <trkpt lat="49.248" lon="6.09025">
        <ele>181.7</ele>
        <time>2021-07-28T12:01:44Z</time>
      </trkpt>
      <trkpt lat="49.24797" lon="6.09023">
        <ele>181.8</ele>
        <time>2021-07-28T12:01:45Z</time>
      </trkpt>
      <trkpt lat="49.24796" lon="6.09022">
        <ele>181.9</ele>
        <time>2021-07-28T12:01:46Z</time>
      </trkpt>
      <trkpt lat="49.24795" lon="6.09021">
        <ele>182</ele>
        <time>2021-07-28T12:01:47Z</time>
      </trkpt>
      <trkpt lat="49.24792" lon="6.0902">
        <ele>182.1</ele>
        <time>2021-07-28T12:01:49Z</time>
      </trkpt>
      <trkpt lat="49.24792" lon="6.0902">
        <ele>182.1</ele>
        <time>2021-07-28T12:01:50Z</time>
      </trkpt>
      <trkpt lat="49.2479" lon="6.09021">
        <ele>182.2</ele>
        <time>2021-07-28T12:01:51Z</time>
      </trkpt>
      <trkpt lat="49.2479" lon="6.09021">
        <ele>182.3</ele>
        <time>2021-07-28T12:01:53Z</time>
      </trkpt>
      <trkpt lat="49.2479" lon="6.09021">
        <ele>182.3</ele>
        <time>2021-07-28T12:01:54Z</time>
      </trkpt>
      <trkpt lat="49.2479" lon="6.0902">
        <ele>182.3</ele>
        <time>2021-07-28T12:01:56Z</time>
      </trkpt>
      <trkpt lat="49.2479" lon="6.09018">
        <ele>182.4</ele>
        <time>2021-07-28T12:01:58Z</time>
      </trkpt>
      <trkpt lat="49.2479" lon="6.09017">
        <ele>182.4</ele>
        <time>2021-07-28T12:01:59Z</time>
      </trkpt>
      <trkpt lat="49.2479" lon="6.09016">
        <ele>182.4</ele>
        <time>2021-07-28T12:02:00Z</time>
      </trkpt>
      <trkpt lat="49.24779" lon="6.09007">
        <ele>183</ele>
        <time>2021-07-28T12:02:08Z</time>
      </trkpt>
      <trkpt lat="49.24773" lon="6.08998">
        <ele>183.1</ele>
        <time>2021-07-28T12:02:10Z</time>
      </trkpt>
      <trkpt lat="49.24769" lon="6.08993">
        <ele>183.2</ele>
        <time>2021-07-28T12:02:11Z</time>
      </trkpt>
      <trkpt lat="49.24762" lon="6.08986">
        <ele>183.3</ele>
        <time>2021-07-28T12:02:13Z</time>
      </trkpt>
      <trkpt lat="49.2476" lon="6.08983">
        <ele>183.4</ele>
        <time>2021-07-28T12:02:14Z</time>
      </trkpt>
      <trkpt lat="49.24755" lon="6.08978">
        <ele>183.4</ele>
        <time>2021-07-28T12:02:16Z</time>
      </trkpt>
      <trkpt lat="49.24754" lon="6.08974">
        <ele>183.5</ele>
        <time>2021-07-28T12:02:17Z</time>
      </trkpt>
      <trkpt lat="49.24752" lon="6.08971">
        <ele>183.5</ele>
        <time>2021-07-28T12:02:18Z</time>
      </trkpt>
      <trkpt lat="49.2475" lon="6.08966">
        <ele>183.6</ele>
        <time>2021-07-28T12:02:19Z</time>
      </trkpt>
      <trkpt lat="49.24747" lon="6.0896">
        <ele>183.6</ele>
        <time>2021-07-28T12:02:21Z</time>
      </trkpt>
      <trkpt lat="49.24746" lon="6.08955">
        <ele>183.7</ele>
        <time>2021-07-28T12:02:22Z</time>
      </trkpt>
      <trkpt lat="49.24744" lon="6.08951">
        <ele>183.7</ele>
        <time>2021-07-28T12:02:23Z</time>
      </trkpt>
      <trkpt lat="49.24742" lon="6.08946">
        <ele>183.8</ele>
        <time>2021-07-28T12:02:24Z</time>
      </trkpt>
      <trkpt lat="49.24741" lon="6.08945">
        <ele>183.8</ele>
        <time>2021-07-28T12:02:25Z</time>
      </trkpt>
      <trkpt lat="49.24737" lon="6.0894">
        <ele>183.9</ele>
        <time>2021-07-28T12:02:27Z</time>
      </trkpt>
      <trkpt lat="49.24734" lon="6.08937">
        <ele>184</ele>
        <time>2021-07-28T12:02:28Z</time>
      </trkpt>
      <trkpt lat="49.2473" lon="6.08933">
        <ele>184.1</ele>
        <time>2021-07-28T12:02:30Z</time>
      </trkpt>
      <trkpt lat="49.24727" lon="6.08931">
        <ele>184.1</ele>
        <time>2021-07-28T12:02:31Z</time>
      </trkpt>
      <trkpt lat="49.24723" lon="6.08929">
        <ele>184.1</ele>
        <time>2021-07-28T12:02:33Z</time>
      </trkpt>
      <trkpt lat="49.24721" lon="6.08926">
        <ele>184.2</ele>
        <time>2021-07-28T12:02:34Z</time>
      </trkpt>
      <trkpt lat="49.24721" lon="6.08924">
        <ele>184.2</ele>
        <time>2021-07-28T12:02:35Z</time>
      </trkpt>
      <trkpt lat="49.24721" lon="6.08925">
        <ele>184.2</ele>
        <time>2021-07-28T12:02:37Z</time>
      </trkpt>
      <trkpt lat="49.24722" lon="6.08925">
        <ele>184.2</ele>
        <time>2021-07-28T12:02:38Z</time>
      </trkpt>
      <trkpt lat="49.24722" lon="6.08924">
        <ele>184.2</ele>
        <time>2021-07-28T12:02:39Z</time>
      </trkpt>
      <trkpt lat="49.24723" lon="6.08924">
        <ele>184.2</ele>
        <time>2021-07-28T12:02:41Z</time>
      </trkpt>
      <trkpt lat="49.24723" lon="6.08924">
        <ele>184.2</ele>
        <time>2021-07-28T12:02:42Z</time>
      </trkpt>
      <trkpt lat="49.24721" lon="6.08917">
        <ele>184.3</ele>
        <time>2021-07-28T12:02:43Z</time>
      </trkpt>
      <trkpt lat="49.24719" lon="6.0891">
        <ele>184.3</ele>
        <time>2021-07-28T12:02:45Z</time>
      </trkpt>
      <trkpt lat="49.24717" lon="6.08904">
        <ele>184.4</ele>
        <time>2021-07-28T12:02:47Z</time>
      </trkpt>
      <trkpt lat="49.24715" lon="6.08897">
        <ele>184.5</ele>
        <time>2021-07-28T12:03:21Z</time>
      </trkpt>
      <trkpt lat="49.24714" lon="6.0889">
        <ele>184.5</ele>
        <time>2021-07-28T12:03:22Z</time>
      </trkpt>
      <trkpt lat="49.24707" lon="6.08884">
        <ele>184.6</ele>
        <time>2021-07-28T12:03:23Z</time>
      </trkpt>
      <trkpt lat="49.24696" lon="6.08872">
        <ele>184.8</ele>
        <time>2021-07-28T12:03:25Z</time>
      </trkpt>
      <trkpt lat="49.24687" lon="6.08864">
        <ele>185</ele>
        <time>2021-07-28T12:03:27Z</time>
      </trkpt>
      <trkpt lat="49.24681" lon="6.08861">
        <ele>185.1</ele>
        <time>2021-07-28T12:03:29Z</time>
      </trkpt>
      <trkpt lat="49.24682" lon="6.08861">
        <ele>185.1</ele>
        <time>2021-07-28T12:03:30Z</time>
      </trkpt>
      <trkpt lat="49.24683" lon="6.08861">
        <ele>185.2</ele>
        <time>2021-07-28T12:03:31Z</time>
      </trkpt>
      <trkpt lat="49.24681" lon="6.08858">
        <ele>185.2</ele>
        <time>2021-07-28T12:03:33Z</time>
      </trkpt>
      <trkpt lat="49.24681" lon="6.08857">
        <ele>185.2</ele>
        <time>2021-07-28T12:03:34Z</time>
      </trkpt>
      <trkpt lat="49.24677" lon="6.08855">
        <ele>185.3</ele>
        <time>2021-07-28T12:03:36Z</time>
      </trkpt>
      <trkpt lat="49.24671" lon="6.08854">
        <ele>185.4</ele>
        <time>2021-07-28T12:03:38Z</time>
      </trkpt>
      <trkpt lat="49.24666" lon="6.0885">
        <ele>185.5</ele>
        <time>2021-07-28T12:03:39Z</time>
      </trkpt>
      <trkpt lat="49.24663" lon="6.08846">
        <ele>185.5</ele>
        <time>2021-07-28T12:03:40Z</time>
      </trkpt>
      <trkpt lat="49.2466" lon="6.08844">
        <ele>185.6</ele>
        <time>2021-07-28T12:03:41Z</time>
      </trkpt>
      <trkpt lat="49.24655" lon="6.08839">
        <ele>185.7</ele>
        <time>2021-07-28T12:03:43Z</time>
      </trkpt>
      <trkpt lat="49.24651" lon="6.08831">
        <ele>185.8</ele>
        <time>2021-07-28T12:03:44Z</time>
      </trkpt>
      <trkpt lat="49.24647" lon="6.08824">
        <ele>185.9</ele>
        <time>2021-07-28T12:03:46Z</time>
      </trkpt>
      <trkpt lat="49.24646" lon="6.08819">
        <ele>186</ele>
        <time>2021-07-28T12:03:47Z</time>
      </trkpt>
      <trkpt lat="49.24644" lon="6.08813">
        <ele>186.1</ele>
        <time>2021-07-28T12:03:49Z</time>
      </trkpt>
      <trkpt lat="49.24641" lon="6.08806">
        <ele>186.2</ele>
        <time>2021-07-28T12:03:51Z</time>
      </trkpt>
      <trkpt lat="49.24638" lon="6.08803">
        <ele>186.3</ele>
        <time>2021-07-28T12:03:52Z</time>
      </trkpt>
      <trkpt lat="49.24637" lon="6.08802">
        <ele>186.3</ele>
        <time>2021-07-28T12:03:53Z</time>
      </trkpt>
      <trkpt lat="49.24635" lon="6.08798">
        <ele>186.4</ele>
        <time>2021-07-28T12:03:55Z</time>
      </trkpt>
      <trkpt lat="49.24631" lon="6.08793">
        <ele>186.5</ele>
        <time>2021-07-28T12:03:56Z</time>
      </trkpt>
      <trkpt lat="49.24626" lon="6.0879">
        <ele>186.6</ele>
        <time>2021-07-28T12:03:58Z</time>
      </trkpt>
      <trkpt lat="49.24623" lon="6.08788">
        <ele>186.7</ele>
        <time>2021-07-28T12:03:59Z</time>
      </trkpt>
      <trkpt lat="49.2462" lon="6.08785">
        <ele>186.7</ele>
        <time>2021-07-28T12:04:00Z</time>
      </trkpt>
      <trkpt lat="49.24618" lon="6.08782">
        <ele>186.8</ele>
        <time>2021-07-28T12:04:01Z</time>
      </trkpt>
      <trkpt lat="49.24616" lon="6.08777">
        <ele>186.9</ele>
        <time>2021-07-28T12:04:02Z</time>
      </trkpt>
      <trkpt lat="49.24613" lon="6.08773">
        <ele>187</ele>
        <time>2021-07-28T12:04:04Z</time>
      </trkpt>
      <trkpt lat="49.24612" lon="6.08772">
        <ele>187</ele>
        <time>2021-07-28T12:04:05Z</time>
      </trkpt>
      <trkpt lat="49.24609" lon="6.08769">
        <ele>187.1</ele>
        <time>2021-07-28T12:04:06Z</time>
      </trkpt>
      <trkpt lat="49.24607" lon="6.08766">
        <ele>187.1</ele>
        <time>2021-07-28T12:04:07Z</time>
      </trkpt>
      <trkpt lat="49.24607" lon="6.08764">
        <ele>187.2</ele>
        <time>2021-07-28T12:04:08Z</time>
      </trkpt>
      <trkpt lat="49.24605" lon="6.08759">
        <ele>187.3</ele>
        <time>2021-07-28T12:04:09Z</time>
      </trkpt>
      <trkpt lat="49.24605" lon="6.08757">
        <ele>187.3</ele>
        <time>2021-07-28T12:04:10Z</time>
      </trkpt>
      <trkpt lat="49.24604" lon="6.08754">
        <ele>187.3</ele>
        <time>2021-07-28T12:04:11Z</time>
      </trkpt>
      <trkpt lat="49.24603" lon="6.08752">
        <ele>187.4</ele>
        <time>2021-07-28T12:04:12Z</time>
      </trkpt>
      <trkpt lat="49.24602" lon="6.08751">
        <ele>187.4</ele>
        <time>2021-07-28T12:04:13Z</time>
      </trkpt>
      <trkpt lat="49.246" lon="6.08747">
        <ele>187.4</ele>
        <time>2021-07-28T12:04:14Z</time>
      </trkpt>
      <trkpt lat="49.24598" lon="6.08744">
        <ele>187.5</ele>
        <time>2021-07-28T12:04:15Z</time>
      </trkpt>
      <trkpt lat="49.24596" lon="6.08741">
        <ele>187.6</ele>
        <time>2021-07-28T12:04:17Z</time>
      </trkpt>
      <trkpt lat="49.24593" lon="6.08739">
        <ele>187.6</ele>
        <time>2021-07-28T12:04:18Z</time>
      </trkpt>
      <trkpt lat="49.24589" lon="6.08738">
        <ele>187.7</ele>
        <time>2021-07-28T12:04:19Z</time>
      </trkpt>
      <trkpt lat="49.24586" lon="6.08737">
        <ele>187.8</ele>
        <time>2021-07-28T12:04:20Z</time>
      </trkpt>
      <trkpt lat="49.24581" lon="6.08737">
        <ele>187.9</ele>
        <time>2021-07-28T12:04:21Z</time>
      </trkpt>
      <trkpt lat="49.24577" lon="6.08736">
        <ele>188</ele>
        <time>2021-07-28T12:04:22Z</time>
      </trkpt>
      <trkpt lat="49.24574" lon="6.08735">
        <ele>188.1</ele>
        <time>2021-07-28T12:04:23Z</time>
      </trkpt>
      <trkpt lat="49.24574" lon="6.08731">
        <ele>188.1</ele>
        <time>2021-07-28T12:04:24Z</time>
      </trkpt>
      <trkpt lat="49.24573" lon="6.08728">
        <ele>188.2</ele>
        <time>2021-07-28T12:04:25Z</time>
      </trkpt>
      <trkpt lat="49.2457" lon="6.08726">
        <ele>188.3</ele>
        <time>2021-07-28T12:04:26Z</time>
      </trkpt>
      <trkpt lat="49.24566" lon="6.08726">
        <ele>188.3</ele>
        <time>2021-07-28T12:04:27Z</time>
      </trkpt>
      <trkpt lat="49.24564" lon="6.08726">
        <ele>188.4</ele>
        <time>2021-07-28T12:04:29Z</time>
      </trkpt>
      <trkpt lat="49.24563" lon="6.08726">
        <ele>188.4</ele>
        <time>2021-07-28T12:04:30Z</time>
      </trkpt>
      <trkpt lat="49.24561" lon="6.08724">
        <ele>188.5</ele>
        <time>2021-07-28T12:04:31Z</time>
      </trkpt>
      <trkpt lat="49.24551" lon="6.08725">
        <ele>188.7</ele>
        <time>2021-07-28T12:04:32Z</time>
      </trkpt>
      <trkpt lat="49.24545" lon="6.08726">
        <ele>188.8</ele>
        <time>2021-07-28T12:04:33Z</time>
      </trkpt>
      <trkpt lat="49.24539" lon="6.08725">
        <ele>188.9</ele>
        <time>2021-07-28T12:04:34Z</time>
      </trkpt>
      <trkpt lat="49.2453" lon="6.08723">
        <ele>189.1</ele>
        <time>2021-07-28T12:04:36Z</time>
      </trkpt>
      <trkpt lat="49.24526" lon="6.0872">
        <ele>189.1</ele>
        <time>2021-07-28T12:04:37Z</time>
      </trkpt>
      <trkpt lat="49.24524" lon="6.08716">
        <ele>189.2</ele>
        <time>2021-07-28T12:04:39Z</time>
      </trkpt>
      <trkpt lat="49.24523" lon="6.08715">
        <ele>189.2</ele>
        <time>2021-07-28T12:04:40Z</time>
      </trkpt>
      <trkpt lat="49.24524" lon="6.08712">
        <ele>189.2</ele>
        <time>2021-07-28T12:04:41Z</time>
      </trkpt>
      <trkpt lat="49.24524" lon="6.08709">
        <ele>189.2</ele>
        <time>2021-07-28T12:04:42Z</time>
      </trkpt>
      <trkpt lat="49.24525" lon="6.08705">
        <ele>189.3</ele>
        <time>2021-07-28T12:04:43Z</time>
      </trkpt>
      <trkpt lat="49.24523" lon="6.087">
        <ele>189.3</ele>
        <time>2021-07-28T12:04:44Z</time>
      </trkpt>
      <trkpt lat="49.24523" lon="6.08698">
        <ele>189.3</ele>
        <time>2021-07-28T12:04:45Z</time>
      </trkpt>
      <trkpt lat="49.24524" lon="6.08694">
        <ele>189.4</ele>
        <time>2021-07-28T12:04:46Z</time>
      </trkpt>
      <trkpt lat="49.24525" lon="6.08684">
        <ele>189.5</ele>
        <time>2021-07-28T12:04:48Z</time>
      </trkpt>
      <trkpt lat="49.24526" lon="6.0868">
        <ele>189.5</ele>
        <time>2021-07-28T12:04:49Z</time>
      </trkpt>
      <trkpt lat="49.24528" lon="6.08674">
        <ele>189.6</ele>
        <time>2021-07-28T12:04:50Z</time>
      </trkpt>
      <trkpt lat="49.24528" lon="6.0867">
        <ele>189.6</ele>
        <time>2021-07-28T12:04:51Z</time>
      </trkpt>
      <trkpt lat="49.24527" lon="6.08665">
        <ele>189.6</ele>
        <time>2021-07-28T12:04:53Z</time>
      </trkpt>
      <trkpt lat="49.24525" lon="6.08661">
        <ele>189.7</ele>
        <time>2021-07-28T12:04:54Z</time>
      </trkpt>
      <trkpt lat="49.24524" lon="6.08656">
        <ele>189.7</ele>
        <time>2021-07-28T12:04:55Z</time>
      </trkpt>
      <trkpt lat="49.24524" lon="6.08655">
        <ele>189.8</ele>
        <time>2021-07-28T12:04:56Z</time>
      </trkpt>
      <trkpt lat="49.24522" lon="6.08653">
        <ele>189.8</ele>
        <time>2021-07-28T12:04:57Z</time>
      </trkpt>
      <trkpt lat="49.24521" lon="6.08652">
        <ele>189.8</ele>
        <time>2021-07-28T12:04:58Z</time>
      </trkpt>
      <trkpt lat="49.24519" lon="6.08651">
        <ele>189.8</ele>
        <time>2021-07-28T12:04:59Z</time>
      </trkpt>
      <trkpt lat="49.24517" lon="6.08648">
        <ele>189.9</ele>
        <time>2021-07-28T12:05:01Z</time>
      </trkpt>
      <trkpt lat="49.24516" lon="6.08645">
        <ele>189.9</ele>
        <time>2021-07-28T12:05:02Z</time>
      </trkpt>
      <trkpt lat="49.24515" lon="6.08643">
        <ele>189.9</ele>
        <time>2021-07-28T12:05:04Z</time>
      </trkpt>
      <trkpt lat="49.24512" lon="6.08639">
        <ele>190</ele>
        <time>2021-07-28T12:05:05Z</time>
      </trkpt>
      <trkpt lat="49.24511" lon="6.08638">
        <ele>190</ele>
        <time>2021-07-28T12:05:06Z</time>
      </trkpt>
      <trkpt lat="49.24509" lon="6.08634">
        <ele>190</ele>
        <time>2021-07-28T12:05:07Z</time>
      </trkpt>
      <trkpt lat="49.24507" lon="6.08631">
        <ele>190.1</ele>
        <time>2021-07-28T12:05:08Z</time>
      </trkpt>
      <trkpt lat="49.24506" lon="6.0863">
        <ele>190.1</ele>
        <time>2021-07-28T12:05:09Z</time>
      </trkpt>
      <trkpt lat="49.24504" lon="6.08627">
        <ele>190.1</ele>
        <time>2021-07-28T12:05:10Z</time>
      </trkpt>
      <trkpt lat="49.24503" lon="6.08626">
        <ele>190.1</ele>
        <time>2021-07-28T12:05:11Z</time>
      </trkpt>
      <trkpt lat="49.24499" lon="6.08623">
        <ele>190.2</ele>
        <time>2021-07-28T12:05:13Z</time>
      </trkpt>
      <trkpt lat="49.24498" lon="6.08623">
        <ele>190.2</ele>
        <time>2021-07-28T12:05:14Z</time>
      </trkpt>
      <trkpt lat="49.24497" lon="6.08622">
        <ele>190.2</ele>
        <time>2021-07-28T12:05:15Z</time>
      </trkpt>
      <trkpt lat="49.24494" lon="6.0862">
        <ele>190.2</ele>
        <time>2021-07-28T12:05:16Z</time>
      </trkpt>
      <trkpt lat="49.24493" lon="6.0862">
        <ele>190.2</ele>
        <time>2021-07-28T12:05:17Z</time>
      </trkpt>
      <trkpt lat="49.24492" lon="6.08619">
        <ele>190.3</ele>
        <time>2021-07-28T12:05:18Z</time>
      </trkpt>
      <trkpt lat="49.24491" lon="6.08618">
        <ele>190.3</ele>
        <time>2021-07-28T12:05:20Z</time>
      </trkpt>
      <trkpt lat="49.2449" lon="6.08615">
        <ele>190.3</ele>
        <time>2021-07-28T12:05:21Z</time>
      </trkpt>
      <trkpt lat="49.24489" lon="6.08614">
        <ele>190.3</ele>
        <time>2021-07-28T12:05:23Z</time>
      </trkpt>
      <trkpt lat="49.24489" lon="6.08612">
        <ele>190.3</ele>
        <time>2021-07-28T12:05:24Z</time>
      </trkpt>
      <trkpt lat="49.24488" lon="6.08611">
        <ele>190.4</ele>
        <time>2021-07-28T12:05:25Z</time>
      </trkpt>
      <trkpt lat="49.24488" lon="6.08609">
        <ele>190.4</ele>
        <time>2021-07-28T12:05:26Z</time>
      </trkpt>
      <trkpt lat="49.24486" lon="6.08606">
        <ele>190.4</ele>
        <time>2021-07-28T12:05:27Z</time>
      </trkpt>
      <trkpt lat="49.24485" lon="6.08605">
        <ele>190.4</ele>
        <time>2021-07-28T12:05:28Z</time>
      </trkpt>
      <trkpt lat="49.24485" lon="6.08603">
        <ele>190.5</ele>
        <time>2021-07-28T12:05:29Z</time>
      </trkpt>
      <trkpt lat="49.24483" lon="6.08599">
        <ele>190.6</ele>
        <time>2021-07-28T12:05:31Z</time>
      </trkpt>
      <trkpt lat="49.24481" lon="6.08594">
        <ele>190.6</ele>
        <time>2021-07-28T12:05:33Z</time>
      </trkpt>
      <trkpt lat="49.24481" lon="6.08593">
        <ele>190.7</ele>
        <time>2021-07-28T12:05:34Z</time>
      </trkpt>
      <trkpt lat="49.24478" lon="6.0859">
        <ele>190.7</ele>
        <time>2021-07-28T12:05:36Z</time>
      </trkpt>
      <trkpt lat="49.24477" lon="6.0859">
        <ele>190.8</ele>
        <time>2021-07-28T12:05:37Z</time>
      </trkpt>
      <trkpt lat="49.24475" lon="6.08589">
        <ele>190.8</ele>
        <time>2021-07-28T12:05:38Z</time>
      </trkpt>
      <trkpt lat="49.24474" lon="6.08588">
        <ele>190.9</ele>
        <time>2021-07-28T12:05:39Z</time>
      </trkpt>
      <trkpt lat="49.24473" lon="6.08587">
        <ele>190.9</ele>
        <time>2021-07-28T12:05:40Z</time>
      </trkpt>
      <trkpt lat="49.24472" lon="6.08588">
        <ele>190.9</ele>
        <time>2021-07-28T12:05:41Z</time>
      </trkpt>
      <trkpt lat="49.24471" lon="6.08589">
        <ele>191</ele>
        <time>2021-07-28T12:05:42Z</time>
      </trkpt>
      <trkpt lat="49.24467" lon="6.08588">
        <ele>191.1</ele>
        <time>2021-07-28T12:05:43Z</time>
      </trkpt>
      <trkpt lat="49.24466" lon="6.08587">
        <ele>191.1</ele>
        <time>2021-07-28T12:05:44Z</time>
      </trkpt>
      <trkpt lat="49.24463" lon="6.08584">
        <ele>191.2</ele>
        <time>2021-07-28T12:05:45Z</time>
      </trkpt>
      <trkpt lat="49.24462" lon="6.08584">
        <ele>191.2</ele>
        <time>2021-07-28T12:05:46Z</time>
      </trkpt>
      <trkpt lat="49.2446" lon="6.08581">
        <ele>191.3</ele>
        <time>2021-07-28T12:05:47Z</time>
      </trkpt>
      <trkpt lat="49.24457" lon="6.08577">
        <ele>191.4</ele>
        <time>2021-07-28T12:05:49Z</time>
      </trkpt>
      <trkpt lat="49.24455" lon="6.08573">
        <ele>191.5</ele>
        <time>2021-07-28T12:05:50Z</time>
      </trkpt>
      <trkpt lat="49.24454" lon="6.0857">
        <ele>191.6</ele>
        <time>2021-07-28T12:05:51Z</time>
      </trkpt>
      <trkpt lat="49.24452" lon="6.08566">
        <ele>191.7</ele>
        <time>2021-07-28T12:05:53Z</time>
      </trkpt>
      <trkpt lat="49.2445" lon="6.08563">
        <ele>191.8</ele>
        <time>2021-07-28T12:05:54Z</time>
      </trkpt>
      <trkpt lat="49.24449" lon="6.08562">
        <ele>191.9</ele>
        <time>2021-07-28T12:05:55Z</time>
      </trkpt>
      <trkpt lat="49.24447" lon="6.08559">
        <ele>191.9</ele>
        <time>2021-07-28T12:05:56Z</time>
      </trkpt>
      <trkpt lat="49.24447" lon="6.08558">
        <ele>192</ele>
        <time>2021-07-28T12:05:57Z</time>
      </trkpt>
      <trkpt lat="49.24446" lon="6.08556">
        <ele>192</ele>
        <time>2021-07-28T12:05:58Z</time>
      </trkpt>
      <trkpt lat="49.24445" lon="6.08554">
        <ele>192.1</ele>
        <time>2021-07-28T12:05:59Z</time>
      </trkpt>
      <trkpt lat="49.24444" lon="6.08552">
        <ele>192.2</ele>
        <time>2021-07-28T12:06:00Z</time>
      </trkpt>
      <trkpt lat="49.24442" lon="6.0855">
        <ele>192.2</ele>
        <time>2021-07-28T12:06:01Z</time>
      </trkpt>
      <trkpt lat="49.24441" lon="6.08547">
        <ele>192.3</ele>
        <time>2021-07-28T12:06:03Z</time>
      </trkpt>
      <trkpt lat="49.2444" lon="6.08546">
        <ele>192.4</ele>
        <time>2021-07-28T12:06:04Z</time>
      </trkpt>
      <trkpt lat="49.24439" lon="6.08545">
        <ele>192.4</ele>
        <time>2021-07-28T12:06:05Z</time>
      </trkpt>
      <trkpt lat="49.24437" lon="6.08542">
        <ele>192.5</ele>
        <time>2021-07-28T12:06:07Z</time>
      </trkpt>
      <trkpt lat="49.24436" lon="6.08539">
        <ele>192.6</ele>
        <time>2021-07-28T12:06:08Z</time>
      </trkpt>
      <trkpt lat="49.24435" lon="6.08534">
        <ele>192.8</ele>
        <time>2021-07-28T12:06:10Z</time>
      </trkpt>
      <trkpt lat="49.24432" lon="6.0853">
        <ele>192.9</ele>
        <time>2021-07-28T12:06:11Z</time>
      </trkpt>
      <trkpt lat="49.24429" lon="6.08524">
        <ele>193.1</ele>
        <time>2021-07-28T12:06:13Z</time>
      </trkpt>
      <trkpt lat="49.24428" lon="6.08522">
        <ele>193.2</ele>
        <time>2021-07-28T12:06:14Z</time>
      </trkpt>
      <trkpt lat="49.24425" lon="6.0852">
        <ele>193.4</ele>
        <time>2021-07-28T12:06:16Z</time>
      </trkpt>
      <trkpt lat="49.24424" lon="6.08518">
        <ele>193.4</ele>
        <time>2021-07-28T12:06:17Z</time>
      </trkpt>
      <trkpt lat="49.24423" lon="6.08515">
        <ele>193.5</ele>
        <time>2021-07-28T12:06:18Z</time>
      </trkpt>
      <trkpt lat="49.24421" lon="6.08511">
        <ele>193.7</ele>
        <time>2021-07-28T12:06:20Z</time>
      </trkpt>
      <trkpt lat="49.24419" lon="6.08507">
        <ele>193.9</ele>
        <time>2021-07-28T12:06:22Z</time>
      </trkpt>
      <trkpt lat="49.24419" lon="6.08506">
        <ele>193.9</ele>
        <time>2021-07-28T12:06:23Z</time>
      </trkpt>
      <trkpt lat="49.24418" lon="6.08501">
        <ele>194.1</ele>
        <time>2021-07-28T12:06:24Z</time>
      </trkpt>
      <trkpt lat="49.24417" lon="6.085">
        <ele>194.2</ele>
        <time>2021-07-28T12:06:25Z</time>
      </trkpt>
      <trkpt lat="49.24414" lon="6.08497">
        <ele>194.3</ele>
        <time>2021-07-28T12:06:27Z</time>
      </trkpt>
      <trkpt lat="49.24413" lon="6.08496">
        <ele>194.4</ele>
        <time>2021-07-28T12:06:29Z</time>
      </trkpt>
      <trkpt lat="49.24413" lon="6.08497">
        <ele>194.5</ele>
        <time>2021-07-28T12:06:31Z</time>
      </trkpt>
      <trkpt lat="49.24411" lon="6.08496">
        <ele>194.5</ele>
        <time>2021-07-28T12:06:32Z</time>
      </trkpt>
      <trkpt lat="49.24409" lon="6.08493">
        <ele>194.7</ele>
        <time>2021-07-28T12:06:33Z</time>
      </trkpt>
      <trkpt lat="49.24408" lon="6.08492">
        <ele>194.7</ele>
        <time>2021-07-28T12:06:34Z</time>
      </trkpt>
      <trkpt lat="49.24405" lon="6.08487">
        <ele>194.9</ele>
        <time>2021-07-28T12:06:36Z</time>
      </trkpt>
      <trkpt lat="49.24403" lon="6.08485">
        <ele>195.1</ele>
        <time>2021-07-28T12:06:37Z</time>
      </trkpt>
      <trkpt lat="49.24401" lon="6.08479">
        <ele>195.3</ele>
        <time>2021-07-28T12:06:39Z</time>
      </trkpt>
      <trkpt lat="49.244" lon="6.08477">
        <ele>195.4</ele>
        <time>2021-07-28T12:06:40Z</time>
      </trkpt>
      <trkpt lat="49.24399" lon="6.08475">
        <ele>195.4</ele>
        <time>2021-07-28T12:06:41Z</time>
      </trkpt>
      <trkpt lat="49.24399" lon="6.08474">
        <ele>195.6</ele>
        <time>2021-07-28T12:06:43Z</time>
      </trkpt>
      <trkpt lat="49.24398" lon="6.08471">
        <ele>195.6</ele>
        <time>2021-07-28T12:06:45Z</time>
      </trkpt>
      <trkpt lat="49.24395" lon="6.08467">
        <ele>195.8</ele>
        <time>2021-07-28T12:06:47Z</time>
      </trkpt>
      <trkpt lat="49.24394" lon="6.08467">
        <ele>195.9</ele>
        <time>2021-07-28T12:06:48Z</time>
      </trkpt>
      <trkpt lat="49.24392" lon="6.08467">
        <ele>196</ele>
        <time>2021-07-28T12:06:50Z</time>
      </trkpt>
      <trkpt lat="49.24391" lon="6.08466">
        <ele>196</ele>
        <time>2021-07-28T12:06:52Z</time>
      </trkpt>
      <trkpt lat="49.24391" lon="6.08466">
        <ele>196</ele>
        <time>2021-07-28T12:06:54Z</time>
      </trkpt>
      <trkpt lat="49.24391" lon="6.08466">
        <ele>196</ele>
        <time>2021-07-28T12:06:55Z</time>
      </trkpt>
      <trkpt lat="49.24391" lon="6.08466">
        <ele>196</ele>
        <time>2021-07-28T12:06:57Z</time>
      </trkpt>
      <trkpt lat="49.24392" lon="6.08461">
        <ele>196.2</ele>
        <time>2021-07-28T12:07:12Z</time>
      </trkpt>
      <trkpt lat="49.24393" lon="6.08459">
        <ele>196.3</ele>
        <time>2021-07-28T12:07:13Z</time>
      </trkpt>
      <trkpt lat="49.24393" lon="6.08459">
        <ele>196.3</ele>
        <time>2021-07-28T12:07:14Z</time>
      </trkpt>
      <trkpt lat="49.24393" lon="6.0846">
        <ele>196.3</ele>
        <time>2021-07-28T12:07:16Z</time>
      </trkpt>
      <trkpt lat="49.24392" lon="6.0846">
        <ele>196.3</ele>
        <time>2021-07-28T12:07:18Z</time>
      </trkpt>
      <trkpt lat="49.24392" lon="6.0846">
        <ele>196.3</ele>
        <time>2021-07-28T12:07:19Z</time>
      </trkpt>
      <trkpt lat="49.24392" lon="6.0846">
        <ele>196.3</ele>
        <time>2021-07-28T12:07:21Z</time>
      </trkpt>
      <trkpt lat="49.24392" lon="6.0846">
        <ele>196.4</ele>
        <time>2021-07-28T12:07:23Z</time>
      </trkpt>
      <trkpt lat="49.24389" lon="6.08466">
        <ele>196.6</ele>
        <time>2021-07-28T12:09:13Z</time>
      </trkpt>
      <trkpt lat="49.24386" lon="6.0847">
        <ele>196.8</ele>
        <time>2021-07-28T12:09:15Z</time>
      </trkpt>
      <trkpt lat="49.24385" lon="6.08471">
        <ele>196.8</ele>
        <time>2021-07-28T12:09:16Z</time>
      </trkpt>
      <trkpt lat="49.24385" lon="6.08471">
        <ele>196.8</ele>
        <time>2021-07-28T12:09:17Z</time>
      </trkpt>
      <trkpt lat="49.24385" lon="6.08471">
        <ele>196.8</ele>
        <time>2021-07-28T12:09:19Z</time>
      </trkpt>
      <trkpt lat="49.24385" lon="6.08471">
        <ele>196.8</ele>
        <time>2021-07-28T12:09:21Z</time>
      </trkpt>
      <trkpt lat="49.24385" lon="6.08471">
        <ele>196.8</ele>
        <time>2021-07-28T12:09:22Z</time>
      </trkpt>
      <trkpt lat="49.24385" lon="6.08471">
        <ele>196.8</ele>
        <time>2021-07-28T12:09:23Z</time>
      </trkpt>
      <trkpt lat="49.24385" lon="6.0847">
        <ele>196.8</ele>
        <time>2021-07-28T12:09:25Z</time>
      </trkpt>
      <trkpt lat="49.24385" lon="6.0847">
        <ele>196.8</ele>
        <time>2021-07-28T12:09:27Z</time>
      </trkpt>
      <trkpt lat="49.24385" lon="6.0847">
        <ele>196.8</ele>
        <time>2021-07-28T12:09:28Z</time>
      </trkpt>
      <trkpt lat="49.24385" lon="6.0847">
        <ele>196.9</ele>
        <time>2021-07-28T12:09:30Z</time>
      </trkpt>
      <trkpt lat="49.24385" lon="6.0847">
        <ele>196.9</ele>
        <time>2021-07-28T12:09:31Z</time>
      </trkpt>
      <trkpt lat="49.24385" lon="6.0847">
        <ele>196.9</ele>
        <time>2021-07-28T12:09:33Z</time>
      </trkpt>
      <trkpt lat="49.24385" lon="6.0847">
        <ele>196.9</ele>
        <time>2021-07-28T12:09:34Z</time>
      </trkpt>
      <trkpt lat="49.24385" lon="6.0847">
        <ele>196.9</ele>
        <time>2021-07-28T12:09:36Z</time>
      </trkpt>
      <trkpt lat="49.24385" lon="6.0847">
        <ele>196.9</ele>
        <time>2021-07-28T12:09:37Z</time>
      </trkpt>
      <trkpt lat="49.24385" lon="6.0847">
        <ele>196.9</ele>
        <time>2021-07-28T12:09:39Z</time>
      </trkpt>
      <trkpt lat="49.24385" lon="6.0847">
        <ele>196.9</ele>
        <time>2021-07-28T12:09:40Z</time>
      </trkpt>
      <trkpt lat="49.24385" lon="6.0847">
        <ele>196.9</ele>
        <time>2021-07-28T12:09:42Z</time>
      </trkpt>
      <trkpt lat="49.24384" lon="6.0847">
        <ele>196.9</ele>
        <time>2021-07-28T12:09:43Z</time>
      </trkpt>
      <trkpt lat="49.24384" lon="6.0847">
        <ele>196.9</ele>
        <time>2021-07-28T12:09:45Z</time>
      </trkpt>
      <trkpt lat="49.24384" lon="6.08469">
        <ele>196.9</ele>
        <time>2021-07-28T12:09:46Z</time>
      </trkpt>
      <trkpt lat="49.24384" lon="6.08469">
        <ele>196.9</ele>
        <time>2021-07-28T12:09:47Z</time>
      </trkpt>
      <trkpt lat="49.24384" lon="6.08469">
        <ele>196.9</ele>
        <time>2021-07-28T12:09:49Z</time>
      </trkpt>
      <trkpt lat="49.24384" lon="6.08469">
        <ele>196.9</ele>
        <time>2021-07-28T12:09:51Z</time>
      </trkpt>
      <trkpt lat="49.24384" lon="6.08469">
        <ele>196.9</ele>
        <time>2021-07-28T12:09:52Z</time>
      </trkpt>
      <trkpt lat="49.24384" lon="6.08469">
        <ele>196.9</ele>
        <time>2021-07-28T12:09:53Z</time>
      </trkpt>
      <trkpt lat="49.24384" lon="6.08469">
        <ele>196.9</ele>
        <time>2021-07-28T12:09:55Z</time>
      </trkpt>
      <trkpt lat="49.24384" lon="6.08469">
        <ele>196.9</ele>
        <time>2021-07-28T12:09:57Z</time>
      </trkpt>
      <trkpt lat="49.24384" lon="6.08469">
        <ele>196.9</ele>
        <time>2021-07-28T12:09:58Z</time>
      </trkpt>
      <trkpt lat="49.24384" lon="6.08469">
        <ele>196.9</ele>
        <time>2021-07-28T12:09:59Z</time>
      </trkpt>
      <trkpt lat="49.24384" lon="6.08469">
        <ele>196.9</ele>
        <time>2021-07-28T12:10:01Z</time>
      </trkpt>
      <trkpt lat="49.24384" lon="6.08469">
        <ele>196.9</ele>
        <time>2021-07-28T12:10:03Z</time>
      </trkpt>
      <trkpt lat="49.24384" lon="6.08469">
        <ele>196.9</ele>
        <time>2021-07-28T12:10:04Z</time>
      </trkpt>
      <trkpt lat="49.24384" lon="6.08469">
        <ele>196.9</ele>
        <time>2021-07-28T12:10:05Z</time>
      </trkpt>
      <trkpt lat="49.24384" lon="6.08468">
        <ele>196.9</ele>
        <time>2021-07-28T12:10:06Z</time>
      </trkpt>
      <trkpt lat="49.24384" lon="6.08468">
        <ele>196.9</ele>
        <time>2021-07-28T12:10:07Z</time>
      </trkpt>
      <trkpt lat="49.24384" lon="6.08468">
        <ele>196.9</ele>
        <time>2021-07-28T12:10:09Z</time>
      </trkpt>
      <trkpt lat="49.24384" lon="6.08468">
        <ele>196.9</ele>
        <time>2021-07-28T12:10:10Z</time>
      </trkpt>
      <trkpt lat="49.24384" lon="6.08468">
        <ele>196.9</ele>
        <time>2021-07-28T12:10:11Z</time>
      </trkpt>
      <trkpt lat="49.24384" lon="6.08468">
        <ele>197</ele>
        <time>2021-07-28T12:10:13Z</time>
      </trkpt>
      <trkpt lat="49.24384" lon="6.08468">
        <ele>197</ele>
        <time>2021-07-28T12:10:15Z</time>
      </trkpt>
      <trkpt lat="49.24384" lon="6.08468">
        <ele>197</ele>
        <time>2021-07-28T12:10:16Z</time>
      </trkpt>
      <trkpt lat="49.24384" lon="6.08468">
        <ele>197</ele>
        <time>2021-07-28T12:10:17Z</time>
      </trkpt>
      <trkpt lat="49.24384" lon="6.08468">
        <ele>197</ele>
        <time>2021-07-28T12:10:18Z</time>
      </trkpt>
      <trkpt lat="49.24384" lon="6.08468">
        <ele>197</ele>
        <time>2021-07-28T12:10:19Z</time>
      </trkpt>
      <trkpt lat="49.24384" lon="6.08468">
        <ele>197</ele>
        <time>2021-07-28T12:10:21Z</time>
      </trkpt>
      <trkpt lat="49.24383" lon="6.08468">
        <ele>197</ele>
        <time>2021-07-28T12:10:22Z</time>
      </trkpt>
      <trkpt lat="49.24383" lon="6.08468">
        <ele>197</ele>
        <time>2021-07-28T12:10:23Z</time>
      </trkpt>
      <trkpt lat="49.24383" lon="6.08467">
        <ele>197</ele>
        <time>2021-07-28T12:10:25Z</time>
      </trkpt>
      <trkpt lat="49.24383" lon="6.08467">
        <ele>197</ele>
        <time>2021-07-28T12:10:27Z</time>
      </trkpt>
      <trkpt lat="49.24383" lon="6.08467">
        <ele>197</ele>
        <time>2021-07-28T12:10:28Z</time>
      </trkpt>
      <trkpt lat="49.24383" lon="6.08467">
        <ele>197</ele>
        <time>2021-07-28T12:10:29Z</time>
      </trkpt>
      <trkpt lat="49.24383" lon="6.08467">
        <ele>197</ele>
        <time>2021-07-28T12:10:31Z</time>
      </trkpt>
      <trkpt lat="49.24383" lon="6.08467">
        <ele>197</ele>
        <time>2021-07-28T12:10:33Z</time>
      </trkpt>
      <trkpt lat="49.24383" lon="6.08467">
        <ele>197</ele>
        <time>2021-07-28T12:10:34Z</time>
      </trkpt>
      <trkpt lat="49.24383" lon="6.08467">
        <ele>197</ele>
        <time>2021-07-28T12:10:35Z</time>
      </trkpt>
      <trkpt lat="49.24383" lon="6.08467">
        <ele>197</ele>
        <time>2021-07-28T12:10:36Z</time>
      </trkpt>
      <trkpt lat="49.24383" lon="6.08467">
        <ele>197</ele>
        <time>2021-07-28T12:10:38Z</time>
      </trkpt>
      <trkpt lat="49.24383" lon="6.08467">
        <ele>197</ele>
        <time>2021-07-28T12:10:40Z</time>
      </trkpt>
      <trkpt lat="49.24383" lon="6.08467">
        <ele>197</ele>
        <time>2021-07-28T12:10:41Z</time>
      </trkpt>
      <trkpt lat="49.24383" lon="6.08467">
        <ele>197</ele>
        <time>2021-07-28T12:10:42Z</time>
      </trkpt>
      <trkpt lat="49.24383" lon="6.08467">
        <ele>197</ele>
        <time>2021-07-28T12:10:43Z</time>
      </trkpt>
      <trkpt lat="49.24383" lon="6.08466">
        <ele>197</ele>
        <time>2021-07-28T12:10:45Z</time>
      </trkpt>
      <trkpt lat="49.24383" lon="6.08466">
        <ele>197</ele>
        <time>2021-07-28T12:10:46Z</time>
      </trkpt>
      <trkpt lat="49.24383" lon="6.08466">
        <ele>197</ele>
        <time>2021-07-28T12:10:47Z</time>
      </trkpt>
      <trkpt lat="49.24383" lon="6.08466">
        <ele>197</ele>
        <time>2021-07-28T12:10:49Z</time>
      </trkpt>
      <trkpt lat="49.24383" lon="6.08466">
        <ele>197</ele>
        <time>2021-07-28T12:10:51Z</time>
      </trkpt>
      <trkpt lat="49.24383" lon="6.08466">
        <ele>197</ele>
        <time>2021-07-28T12:10:52Z</time>
      </trkpt>
      <trkpt lat="49.24383" lon="6.08466">
        <ele>197</ele>
        <time>2021-07-28T12:10:53Z</time>
      </trkpt>
      <trkpt lat="49.24383" lon="6.08466">
        <ele>197</ele>
        <time>2021-07-28T12:10:55Z</time>
      </trkpt>
      <trkpt lat="49.24383" lon="6.08466">
        <ele>197</ele>
        <time>2021-07-28T12:10:57Z</time>
      </trkpt>
      <trkpt lat="49.24383" lon="6.08466">
        <ele>197.1</ele>
        <time>2021-07-28T12:10:59Z</time>
      </trkpt>
      <trkpt lat="49.24383" lon="6.08466">
        <ele>197.1</ele>
        <time>2021-07-28T12:11:01Z</time>
      </trkpt>
      <trkpt lat="49.24383" lon="6.08466">
        <ele>197.1</ele>
        <time>2021-07-28T12:11:03Z</time>
      </trkpt>
      <trkpt lat="49.24382" lon="6.08466">
        <ele>197.1</ele>
        <time>2021-07-28T12:11:05Z</time>
      </trkpt>
      <trkpt lat="49.24382" lon="6.08466">
        <ele>197.1</ele>
        <time>2021-07-28T12:11:06Z</time>
      </trkpt>
      <trkpt lat="49.24382" lon="6.08465">
        <ele>197.1</ele>
        <time>2021-07-28T12:11:07Z</time>
      </trkpt>
      <trkpt lat="49.24382" lon="6.08465">
        <ele>197.1</ele>
        <time>2021-07-28T12:11:09Z</time>
      </trkpt>
      <trkpt lat="49.24382" lon="6.08465">
        <ele>197.1</ele>
        <time>2021-07-28T12:11:11Z</time>
      </trkpt>
      <trkpt lat="49.24382" lon="6.08465">
        <ele>197.1</ele>
        <time>2021-07-28T12:11:12Z</time>
      </trkpt>
      <trkpt lat="49.24382" lon="6.08465">
        <ele>197.1</ele>
        <time>2021-07-28T12:11:13Z</time>
      </trkpt>
      <trkpt lat="49.24382" lon="6.08465">
        <ele>197.1</ele>
        <time>2021-07-28T12:11:15Z</time>
      </trkpt>
      <trkpt lat="49.24382" lon="6.08465">
        <ele>197.1</ele>
        <time>2021-07-28T12:11:17Z</time>
      </trkpt>
      <trkpt lat="49.24382" lon="6.08465">
        <ele>197.1</ele>
        <time>2021-07-28T12:11:18Z</time>
      </trkpt>
      <trkpt lat="49.24382" lon="6.08465">
        <ele>197.1</ele>
        <time>2021-07-28T12:11:19Z</time>
      </trkpt>
      <trkpt lat="49.24382" lon="6.08465">
        <ele>197.1</ele>
        <time>2021-07-28T12:11:21Z</time>
      </trkpt>
      <trkpt lat="49.24382" lon="6.08465">
        <ele>197.1</ele>
        <time>2021-07-28T12:11:22Z</time>
      </trkpt>
      <trkpt lat="49.24382" lon="6.08465">
        <ele>197.1</ele>
        <time>2021-07-28T12:11:24Z</time>
      </trkpt>
      <trkpt lat="49.24382" lon="6.08465">
        <ele>197.1</ele>
        <time>2021-07-28T12:11:25Z</time>
      </trkpt>
      <trkpt lat="49.24382" lon="6.08465">
        <ele>197.1</ele>
        <time>2021-07-28T12:11:26Z</time>
      </trkpt>
      <trkpt lat="49.24382" lon="6.08464">
        <ele>197.1</ele>
        <time>2021-07-28T12:11:28Z</time>
      </trkpt>
      <trkpt lat="49.24382" lon="6.08464">
        <ele>197.1</ele>
        <time>2021-07-28T12:11:30Z</time>
      </trkpt>
      <trkpt lat="49.24382" lon="6.08464">
        <ele>197.1</ele>
        <time>2021-07-28T12:11:31Z</time>
      </trkpt>
      <trkpt lat="49.24382" lon="6.08464">
        <ele>197.1</ele>
        <time>2021-07-28T12:11:33Z</time>
      </trkpt>
      <trkpt lat="49.24382" lon="6.08464">
        <ele>197.1</ele>
        <time>2021-07-28T12:11:34Z</time>
      </trkpt>
      <trkpt lat="49.24382" lon="6.08464">
        <ele>197.1</ele>
        <time>2021-07-28T12:11:36Z</time>
      </trkpt>
      <trkpt lat="49.24382" lon="6.08464">
        <ele>197.1</ele>
        <time>2021-07-28T12:11:37Z</time>
      </trkpt>
      <trkpt lat="49.24382" lon="6.08464">
        <ele>197.1</ele>
        <time>2021-07-28T12:11:38Z</time>
      </trkpt>
      <trkpt lat="49.24382" lon="6.08464">
        <ele>197.1</ele>
        <time>2021-07-28T12:11:40Z</time>
      </trkpt>
      <trkpt lat="49.24382" lon="6.08464">
        <ele>197.1</ele>
        <time>2021-07-28T12:11:42Z</time>
      </trkpt>
      <trkpt lat="49.24382" lon="6.08464">
        <ele>197.1</ele>
        <time>2021-07-28T12:11:43Z</time>
      </trkpt>
      <trkpt lat="49.24382" lon="6.08464">
        <ele>197.2</ele>
        <time>2021-07-28T12:11:45Z</time>
      </trkpt>
      <trkpt lat="49.24382" lon="6.08464">
        <ele>197.2</ele>
        <time>2021-07-28T12:11:46Z</time>
      </trkpt>
      <trkpt lat="49.24381" lon="6.08464">
        <ele>197.2</ele>
        <time>2021-07-28T12:11:48Z</time>
      </trkpt>
      <trkpt lat="49.24381" lon="6.08463">
        <ele>197.2</ele>
        <time>2021-07-28T12:11:49Z</time>
      </trkpt>
      <trkpt lat="49.24381" lon="6.08463">
        <ele>197.2</ele>
        <time>2021-07-28T12:11:51Z</time>
      </trkpt>
      <trkpt lat="49.24381" lon="6.08463">
        <ele>197.2</ele>
        <time>2021-07-28T12:11:53Z</time>
      </trkpt>
      <trkpt lat="49.24381" lon="6.08463">
        <ele>197.2</ele>
        <time>2021-07-28T12:11:54Z</time>
      </trkpt>
      <trkpt lat="49.24381" lon="6.08463">
        <ele>197.2</ele>
        <time>2021-07-28T12:11:55Z</time>
      </trkpt>
      <trkpt lat="49.24381" lon="6.08463">
        <ele>197.2</ele>
        <time>2021-07-28T12:11:57Z</time>
      </trkpt>
      <trkpt lat="49.24381" lon="6.08463">
        <ele>197.2</ele>
        <time>2021-07-28T12:11:58Z</time>
      </trkpt>
      <trkpt lat="49.24381" lon="6.08463">
        <ele>197.2</ele>
        <time>2021-07-28T12:11:59Z</time>
      </trkpt>
      <trkpt lat="49.24381" lon="6.08463">
        <ele>197.2</ele>
        <time>2021-07-28T12:12:01Z</time>
      </trkpt>
      <trkpt lat="49.24381" lon="6.08463">
        <ele>197.2</ele>
        <time>2021-07-28T12:12:03Z</time>
      </trkpt>
      <trkpt lat="49.24381" lon="6.08463">
        <ele>197.2</ele>
        <time>2021-07-28T12:12:05Z</time>
      </trkpt>
      <trkpt lat="49.24381" lon="6.08463">
        <ele>197.2</ele>
        <time>2021-07-28T12:12:06Z</time>
      </trkpt>
      <trkpt lat="49.24378" lon="6.08459">
        <ele>197.4</ele>
        <time>2021-07-28T12:12:07Z</time>
      </trkpt>
      <trkpt lat="49.24373" lon="6.08452">
        <ele>197.7</ele>
        <time>2021-07-28T12:12:09Z</time>
      </trkpt>
      <trkpt lat="49.24369" lon="6.08447">
        <ele>197.9</ele>
        <time>2021-07-28T12:12:10Z</time>
      </trkpt>
      <trkpt lat="49.24366" lon="6.08443">
        <ele>198.1</ele>
        <time>2021-07-28T12:12:11Z</time>
      </trkpt>
      <trkpt lat="49.24363" lon="6.08439">
        <ele>198.2</ele>
        <time>2021-07-28T12:12:12Z</time>
      </trkpt>
      <trkpt lat="49.24361" lon="6.08435">
        <ele>198.4</ele>
        <time>2021-07-28T12:12:14Z</time>
      </trkpt>
      <trkpt lat="49.24358" lon="6.0843">
        <ele>198.5</ele>
        <time>2021-07-28T12:12:15Z</time>
      </trkpt>
      <trkpt lat="49.24355" lon="6.08424">
        <ele>198.7</ele>
        <time>2021-07-28T12:12:17Z</time>
      </trkpt>
      <trkpt lat="49.24352" lon="6.08418">
        <ele>198.9</ele>
        <time>2021-07-28T12:12:19Z</time>
      </trkpt>
      <trkpt lat="49.2435" lon="6.08415">
        <ele>199</ele>
        <time>2021-07-28T12:12:20Z</time>
      </trkpt>
      <trkpt lat="49.24348" lon="6.08412">
        <ele>199.1</ele>
        <time>2021-07-28T12:12:21Z</time>
      </trkpt>
      <trkpt lat="49.24346" lon="6.08407">
        <ele>199.2</ele>
        <time>2021-07-28T12:12:22Z</time>
      </trkpt>
      <trkpt lat="49.24346" lon="6.08406">
        <ele>199.2</ele>
        <time>2021-07-28T12:12:23Z</time>
      </trkpt>
      <trkpt lat="49.24342" lon="6.08399">
        <ele>199.4</ele>
        <time>2021-07-28T12:12:25Z</time>
      </trkpt>
      <trkpt lat="49.2434" lon="6.08396">
        <ele>199.4</ele>
        <time>2021-07-28T12:12:26Z</time>
      </trkpt>
      <trkpt lat="49.24338" lon="6.08392">
        <ele>199.5</ele>
        <time>2021-07-28T12:12:27Z</time>
      </trkpt>
      <trkpt lat="49.24337" lon="6.08388">
        <ele>199.6</ele>
        <time>2021-07-28T12:12:28Z</time>
      </trkpt>
      <trkpt lat="49.24336" lon="6.08382">
        <ele>199.6</ele>
        <time>2021-07-28T12:12:30Z</time>
      </trkpt>
      <trkpt lat="49.24336" lon="6.0838">
        <ele>199.7</ele>
        <time>2021-07-28T12:12:31Z</time>
      </trkpt>
      <trkpt lat="49.24335" lon="6.08376">
        <ele>199.7</ele>
        <time>2021-07-28T12:12:32Z</time>
      </trkpt>
      <trkpt lat="49.24334" lon="6.0837">
        <ele>199.8</ele>
        <time>2021-07-28T12:12:34Z</time>
      </trkpt>
      <trkpt lat="49.24331" lon="6.08367">
        <ele>199.8</ele>
        <time>2021-07-28T12:12:35Z</time>
      </trkpt>
      <trkpt lat="49.24329" lon="6.08361">
        <ele>199.9</ele>
        <time>2021-07-28T12:12:37Z</time>
      </trkpt>
      <trkpt lat="49.24327" lon="6.08357">
        <ele>199.9</ele>
        <time>2021-07-28T12:12:38Z</time>
      </trkpt>
      <trkpt lat="49.24327" lon="6.08355">
        <ele>199.9</ele>
        <time>2021-07-28T12:12:39Z</time>
      </trkpt>
      <trkpt lat="49.24326" lon="6.08352">
        <ele>199.9</ele>
        <time>2021-07-28T12:12:40Z</time>
      </trkpt>
      <trkpt lat="49.24325" lon="6.08347">
        <ele>199.9</ele>
        <time>2021-07-28T12:12:42Z</time>
      </trkpt>
      <trkpt lat="49.24323" lon="6.08343">
        <ele>200</ele>
        <time>2021-07-28T12:12:44Z</time>
      </trkpt>
      <trkpt lat="49.24321" lon="6.08339">
        <ele>200</ele>
        <time>2021-07-28T12:12:45Z</time>
      </trkpt>
      <trkpt lat="49.24318" lon="6.08334">
        <ele>200</ele>
        <time>2021-07-28T12:12:47Z</time>
      </trkpt>
      <trkpt lat="49.24315" lon="6.08328">
        <ele>200</ele>
        <time>2021-07-28T12:12:49Z</time>
      </trkpt>
      <trkpt lat="49.24315" lon="6.08324">
        <ele>200</ele>
        <time>2021-07-28T12:12:50Z</time>
      </trkpt>
      <trkpt lat="49.24315" lon="6.08323">
        <ele>200</ele>
        <time>2021-07-28T12:12:51Z</time>
      </trkpt>
      <trkpt lat="49.24315" lon="6.08317">
        <ele>199.9</ele>
        <time>2021-07-28T12:12:53Z</time>
      </trkpt>
      <trkpt lat="49.24314" lon="6.08311">
        <ele>199.9</ele>
        <time>2021-07-28T12:12:55Z</time>
      </trkpt>
      <trkpt lat="49.24313" lon="6.08304">
        <ele>199.9</ele>
        <time>2021-07-28T12:12:57Z</time>
      </trkpt>
      <trkpt lat="49.24312" lon="6.08302">
        <ele>199.9</ele>
        <time>2021-07-28T12:12:58Z</time>
      </trkpt>
      <trkpt lat="49.24311" lon="6.08297">
        <ele>199.8</ele>
        <time>2021-07-28T12:13:00Z</time>
      </trkpt>
      <trkpt lat="49.2431" lon="6.08293">
        <ele>199.8</ele>
        <time>2021-07-28T12:13:02Z</time>
      </trkpt>
      <trkpt lat="49.24308" lon="6.08289">
        <ele>199.8</ele>
        <time>2021-07-28T12:13:04Z</time>
      </trkpt>
      <trkpt lat="49.24307" lon="6.08286">
        <ele>199.8</ele>
        <time>2021-07-28T12:13:05Z</time>
      </trkpt>
      <trkpt lat="49.24305" lon="6.08279">
        <ele>199.7</ele>
        <time>2021-07-28T12:13:07Z</time>
      </trkpt>
      <trkpt lat="49.24304" lon="6.08271">
        <ele>199.7</ele>
        <time>2021-07-28T12:13:09Z</time>
      </trkpt>
      <trkpt lat="49.24303" lon="6.08262">
        <ele>199.6</ele>
        <time>2021-07-28T12:13:11Z</time>
      </trkpt>
      <trkpt lat="49.24303" lon="6.08256">
        <ele>199.5</ele>
        <time>2021-07-28T12:13:12Z</time>
      </trkpt>
      <trkpt lat="49.24301" lon="6.08245">
        <ele>199.5</ele>
        <time>2021-07-28T12:13:14Z</time>
      </trkpt>
      <trkpt lat="49.243" lon="6.0824">
        <ele>199.4</ele>
        <time>2021-07-28T12:13:15Z</time>
      </trkpt>
      <trkpt lat="49.24299" lon="6.08235">
        <ele>199.4</ele>
        <time>2021-07-28T12:13:16Z</time>
      </trkpt>
      <trkpt lat="49.24297" lon="6.08224">
        <ele>199.4</ele>
        <time>2021-07-28T12:13:18Z</time>
      </trkpt>
      <trkpt lat="49.24296" lon="6.08219">
        <ele>199.4</ele>
        <time>2021-07-28T12:13:19Z</time>
      </trkpt>
      <trkpt lat="49.24296" lon="6.08212">
        <ele>199.4</ele>
        <time>2021-07-28T12:13:20Z</time>
      </trkpt>
      <trkpt lat="49.24296" lon="6.08206">
        <ele>199.4</ele>
        <time>2021-07-28T12:13:22Z</time>
      </trkpt>
      <trkpt lat="49.24296" lon="6.08198">
        <ele>199.4</ele>
        <time>2021-07-28T12:13:23Z</time>
      </trkpt>
      <trkpt lat="49.24295" lon="6.08194">
        <ele>199.4</ele>
        <time>2021-07-28T12:13:24Z</time>
      </trkpt>
      <trkpt lat="49.24294" lon="6.08187">
        <ele>199.5</ele>
        <time>2021-07-28T12:13:25Z</time>
      </trkpt>
      <trkpt lat="49.24294" lon="6.0818">
        <ele>199.5</ele>
        <time>2021-07-28T12:13:27Z</time>
      </trkpt>
      <trkpt lat="49.24294" lon="6.08175">
        <ele>199.5</ele>
        <time>2021-07-28T12:13:28Z</time>
      </trkpt>
      <trkpt lat="49.24294" lon="6.08166">
        <ele>199.6</ele>
        <time>2021-07-28T12:13:29Z</time>
      </trkpt>
      <trkpt lat="49.24295" lon="6.08159">
        <ele>199.7</ele>
        <time>2021-07-28T12:13:30Z</time>
      </trkpt>
      <trkpt lat="49.24296" lon="6.08154">
        <ele>199.8</ele>
        <time>2021-07-28T12:13:31Z</time>
      </trkpt>
      <trkpt lat="49.24298" lon="6.08143">
        <ele>199.9</ele>
        <time>2021-07-28T12:13:33Z</time>
      </trkpt>
      <trkpt lat="49.24298" lon="6.08138">
        <ele>200</ele>
        <time>2021-07-28T12:13:34Z</time>
      </trkpt>
      <trkpt lat="49.24299" lon="6.08127">
        <ele>200.2</ele>
        <time>2021-07-28T12:13:35Z</time>
      </trkpt>
      <trkpt lat="49.24299" lon="6.08118">
        <ele>200.4</ele>
        <time>2021-07-28T12:13:36Z</time>
      </trkpt>
      <trkpt lat="49.24299" lon="6.08111">
        <ele>200.5</ele>
        <time>2021-07-28T12:13:37Z</time>
      </trkpt>
      <trkpt lat="49.24298" lon="6.08104">
        <ele>200.6</ele>
        <time>2021-07-28T12:13:38Z</time>
      </trkpt>
      <trkpt lat="49.24298" lon="6.08097">
        <ele>200.8</ele>
        <time>2021-07-28T12:13:39Z</time>
      </trkpt>
      <trkpt lat="49.24296" lon="6.08093">
        <ele>200.9</ele>
        <time>2021-07-28T12:13:40Z</time>
      </trkpt>
      <trkpt lat="49.24296" lon="6.08088">
        <ele>200.9</ele>
        <time>2021-07-28T12:13:42Z</time>
      </trkpt>
      <trkpt lat="49.24296" lon="6.08086">
        <ele>201</ele>
        <time>2021-07-28T12:13:43Z</time>
      </trkpt>
      <trkpt lat="49.24296" lon="6.08081">
        <ele>201.1</ele>
        <time>2021-07-28T12:13:45Z</time>
      </trkpt>
      <trkpt lat="49.24295" lon="6.0808">
        <ele>201.1</ele>
        <time>2021-07-28T12:13:46Z</time>
      </trkpt>
      <trkpt lat="49.24295" lon="6.08078">
        <ele>201.2</ele>
        <time>2021-07-28T12:13:48Z</time>
      </trkpt>
      <trkpt lat="49.24295" lon="6.08076">
        <ele>201.2</ele>
        <time>2021-07-28T12:13:49Z</time>
      </trkpt>
      <trkpt lat="49.24293" lon="6.08074">
        <ele>201.2</ele>
        <time>2021-07-28T12:13:50Z</time>
      </trkpt>
      <trkpt lat="49.24292" lon="6.08072">
        <ele>201.2</ele>
        <time>2021-07-28T12:13:52Z</time>
      </trkpt>
      <trkpt lat="49.24291" lon="6.08071">
        <ele>201.3</ele>
        <time>2021-07-28T12:13:54Z</time>
      </trkpt>
      <trkpt lat="49.24289" lon="6.0807">
        <ele>201.3</ele>
        <time>2021-07-28T12:13:56Z</time>
      </trkpt>
      <trkpt lat="49.24288" lon="6.08068">
        <ele>201.3</ele>
        <time>2021-07-28T12:13:57Z</time>
      </trkpt>
      <trkpt lat="49.24287" lon="6.08067">
        <ele>201.3</ele>
        <time>2021-07-28T12:13:58Z</time>
      </trkpt>
      <trkpt lat="49.24282" lon="6.08066">
        <ele>201.4</ele>
        <time>2021-07-28T12:14:00Z</time>
      </trkpt>
      <trkpt lat="49.24278" lon="6.08064">
        <ele>201.5</ele>
        <time>2021-07-28T12:14:02Z</time>
      </trkpt>
      <trkpt lat="49.24274" lon="6.08061">
        <ele>201.5</ele>
        <time>2021-07-28T12:14:04Z</time>
      </trkpt>
      <trkpt lat="49.24272" lon="6.0806">
        <ele>201.5</ele>
        <time>2021-07-28T12:14:05Z</time>
      </trkpt>
      <trkpt lat="49.24269" lon="6.08059">
        <ele>201.5</ele>
        <time>2021-07-28T12:14:07Z</time>
      </trkpt>
      <trkpt lat="49.24266" lon="6.08058">
        <ele>201.5</ele>
        <time>2021-07-28T12:14:08Z</time>
      </trkpt>
      <trkpt lat="49.24263" lon="6.08055">
        <ele>201.4</ele>
        <time>2021-07-28T12:14:09Z</time>
      </trkpt>
      <trkpt lat="49.24259" lon="6.08049">
        <ele>201.4</ele>
        <time>2021-07-28T12:14:10Z</time>
      </trkpt>
      <trkpt lat="49.24253" lon="6.08045">
        <ele>201.3</ele>
        <time>2021-07-28T12:14:12Z</time>
      </trkpt>
      <trkpt lat="49.24248" lon="6.0804">
        <ele>201.2</ele>
        <time>2021-07-28T12:14:13Z</time>
      </trkpt>
      <trkpt lat="49.24241" lon="6.08032">
        <ele>201.3</ele>
        <time>2021-07-28T12:14:15Z</time>
      </trkpt>
      <trkpt lat="49.24236" lon="6.08029">
        <ele>201.4</ele>
        <time>2021-07-28T12:14:16Z</time>
      </trkpt>
      <trkpt lat="49.24233" lon="6.08026">
        <ele>201.6</ele>
        <time>2021-07-28T12:14:17Z</time>
      </trkpt>
      <trkpt lat="49.24229" lon="6.08022">
        <ele>201.8</ele>
        <time>2021-07-28T12:14:18Z</time>
      </trkpt>
      <trkpt lat="49.24223" lon="6.08016">
        <ele>202.1</ele>
        <time>2021-07-28T12:14:19Z</time>
      </trkpt>
      <trkpt lat="49.2422" lon="6.08009">
        <ele>202.5</ele>
        <time>2021-07-28T12:14:21Z</time>
      </trkpt>
      <trkpt lat="49.24219" lon="6.08003">
        <ele>202.8</ele>
        <time>2021-07-28T12:14:22Z</time>
      </trkpt>
      <trkpt lat="49.2422" lon="6.07996">
        <ele>203.1</ele>
        <time>2021-07-28T12:14:24Z</time>
      </trkpt>
      <trkpt lat="49.24221" lon="6.07991">
        <ele>203.3</ele>
        <time>2021-07-28T12:14:25Z</time>
      </trkpt>
      <trkpt lat="49.24223" lon="6.07988">
        <ele>203.5</ele>
        <time>2021-07-28T12:14:26Z</time>
      </trkpt>
      <trkpt lat="49.24223" lon="6.07984">
        <ele>203.7</ele>
        <time>2021-07-28T12:14:28Z</time>
      </trkpt>
      <trkpt lat="49.24225" lon="6.0798">
        <ele>204</ele>
        <time>2021-07-28T12:14:29Z</time>
      </trkpt>
      <trkpt lat="49.24226" lon="6.07979">
        <ele>204.1</ele>
        <time>2021-07-28T12:14:30Z</time>
      </trkpt>
      <trkpt lat="49.24227" lon="6.07974">
        <ele>204.3</ele>
        <time>2021-07-28T12:14:31Z</time>
      </trkpt>
      <trkpt lat="49.24228" lon="6.07973">
        <ele>204.4</ele>
        <time>2021-07-28T12:14:32Z</time>
      </trkpt>
      <trkpt lat="49.2423" lon="6.07966">
        <ele>204.9</ele>
        <time>2021-07-28T12:14:34Z</time>
      </trkpt>
      <trkpt lat="49.2423" lon="6.07963">
        <ele>205</ele>
        <time>2021-07-28T12:14:35Z</time>
      </trkpt>
      <trkpt lat="49.2423" lon="6.0796">
        <ele>205.2</ele>
        <time>2021-07-28T12:14:36Z</time>
      </trkpt>
      <trkpt lat="49.24231" lon="6.07955">
        <ele>205.4</ele>
        <time>2021-07-28T12:14:38Z</time>
      </trkpt>
      <trkpt lat="49.24232" lon="6.07953">
        <ele>205.5</ele>
        <time>2021-07-28T12:14:39Z</time>
      </trkpt>
      <trkpt lat="49.24233" lon="6.07949">
        <ele>205.8</ele>
        <time>2021-07-28T12:14:40Z</time>
      </trkpt>
      <trkpt lat="49.24234" lon="6.07947">
        <ele>205.9</ele>
        <time>2021-07-28T12:14:42Z</time>
      </trkpt>
      <trkpt lat="49.24235" lon="6.07945">
        <ele>206</ele>
        <time>2021-07-28T12:14:43Z</time>
      </trkpt>
      <trkpt lat="49.24235" lon="6.07943">
        <ele>206.2</ele>
        <time>2021-07-28T12:14:44Z</time>
      </trkpt>
      <trkpt lat="49.24236" lon="6.07941">
        <ele>206.3</ele>
        <time>2021-07-28T12:14:45Z</time>
      </trkpt>
      <trkpt lat="49.24236" lon="6.07938">
        <ele>206.4</ele>
        <time>2021-07-28T12:14:47Z</time>
      </trkpt>
      <trkpt lat="49.24237" lon="6.07935">
        <ele>206.6</ele>
        <time>2021-07-28T12:14:48Z</time>
      </trkpt>
      <trkpt lat="49.24238" lon="6.07933">
        <ele>206.7</ele>
        <time>2021-07-28T12:14:49Z</time>
      </trkpt>
      <trkpt lat="49.24239" lon="6.07932">
        <ele>206.8</ele>
        <time>2021-07-28T12:14:50Z</time>
      </trkpt>
      <trkpt lat="49.24239" lon="6.07931">
        <ele>206.9</ele>
        <time>2021-07-28T12:14:51Z</time>
      </trkpt>
      <trkpt lat="49.24238" lon="6.07928">
        <ele>207</ele>
        <time>2021-07-28T12:14:52Z</time>
      </trkpt>
      <trkpt lat="49.24238" lon="6.07925">
        <ele>207.2</ele>
        <time>2021-07-28T12:14:53Z</time>
      </trkpt>
      <trkpt lat="49.24239" lon="6.0792">
        <ele>207.4</ele>
        <time>2021-07-28T12:14:55Z</time>
      </trkpt>
      <trkpt lat="49.24239" lon="6.07916">
        <ele>207.6</ele>
        <time>2021-07-28T12:14:56Z</time>
      </trkpt>
      <trkpt lat="49.24239" lon="6.07914">
        <ele>207.7</ele>
        <time>2021-07-28T12:14:57Z</time>
      </trkpt>
      <trkpt lat="49.2424" lon="6.07909">
        <ele>207.9</ele>
        <time>2021-07-28T12:14:59Z</time>
      </trkpt>
      <trkpt lat="49.24242" lon="6.07908">
        <ele>208</ele>
        <time>2021-07-28T12:15:00Z</time>
      </trkpt>
      <trkpt lat="49.24243" lon="6.07905">
        <ele>208.2</ele>
        <time>2021-07-28T12:15:02Z</time>
      </trkpt>
      <trkpt lat="49.24244" lon="6.07904">
        <ele>208.3</ele>
        <time>2021-07-28T12:15:03Z</time>
      </trkpt>
      <trkpt lat="49.24244" lon="6.07902">
        <ele>208.3</ele>
        <time>2021-07-28T12:15:04Z</time>
      </trkpt>
      <trkpt lat="49.24242" lon="6.07902">
        <ele>208.4</ele>
        <time>2021-07-28T12:15:05Z</time>
      </trkpt>
      <trkpt lat="49.24243" lon="6.07899">
        <ele>208.6</ele>
        <time>2021-07-28T12:15:07Z</time>
      </trkpt>
      <trkpt lat="49.24244" lon="6.07893">
        <ele>208.9</ele>
        <time>2021-07-28T12:15:09Z</time>
      </trkpt>
      <trkpt lat="49.24244" lon="6.07888">
        <ele>209.1</ele>
        <time>2021-07-28T12:15:10Z</time>
      </trkpt>
      <trkpt lat="49.24245" lon="6.07887">
        <ele>209.2</ele>
        <time>2021-07-28T12:15:11Z</time>
      </trkpt>
      <trkpt lat="49.24243" lon="6.07881">
        <ele>209.4</ele>
        <time>2021-07-28T12:15:13Z</time>
      </trkpt>
      <trkpt lat="49.24243" lon="6.07878">
        <ele>209.6</ele>
        <time>2021-07-28T12:15:14Z</time>
      </trkpt>
      <trkpt lat="49.24243" lon="6.07876">
        <ele>209.7</ele>
        <time>2021-07-28T12:15:15Z</time>
      </trkpt>
      <trkpt lat="49.24243" lon="6.07873">
        <ele>209.8</ele>
        <time>2021-07-28T12:15:16Z</time>
      </trkpt>
      <trkpt lat="49.24242" lon="6.07868">
        <ele>210</ele>
        <time>2021-07-28T12:15:18Z</time>
      </trkpt>
      <trkpt lat="49.24241" lon="6.07866">
        <ele>210.1</ele>
        <time>2021-07-28T12:15:19Z</time>
      </trkpt>
      <trkpt lat="49.2424" lon="6.07862">
        <ele>210.3</ele>
        <time>2021-07-28T12:15:21Z</time>
      </trkpt>
      <trkpt lat="49.24239" lon="6.0786">
        <ele>210.5</ele>
        <time>2021-07-28T12:15:22Z</time>
      </trkpt>
      <trkpt lat="49.24238" lon="6.07858">
        <ele>210.6</ele>
        <time>2021-07-28T12:15:23Z</time>
      </trkpt>
      <trkpt lat="49.24238" lon="6.07855">
        <ele>210.7</ele>
        <time>2021-07-28T12:15:25Z</time>
      </trkpt>
      <trkpt lat="49.24238" lon="6.07854">
        <ele>210.7</ele>
        <time>2021-07-28T12:15:26Z</time>
      </trkpt>
      <trkpt lat="49.24237" lon="6.07851">
        <ele>210.8</ele>
        <time>2021-07-28T12:15:27Z</time>
      </trkpt>
      <trkpt lat="49.24236" lon="6.07847">
        <ele>211</ele>
        <time>2021-07-28T12:15:29Z</time>
      </trkpt>
      <trkpt lat="49.24235" lon="6.07842">
        <ele>211.2</ele>
        <time>2021-07-28T12:15:30Z</time>
      </trkpt>
      <trkpt lat="49.24234" lon="6.07841">
        <ele>211.3</ele>
        <time>2021-07-28T12:15:31Z</time>
      </trkpt>
      <trkpt lat="49.24233" lon="6.07839">
        <ele>211.3</ele>
        <time>2021-07-28T12:15:32Z</time>
      </trkpt>
      <trkpt lat="49.24233" lon="6.07837">
        <ele>211.4</ele>
        <time>2021-07-28T12:15:33Z</time>
      </trkpt>
      <trkpt lat="49.24232" lon="6.07834">
        <ele>211.5</ele>
        <time>2021-07-28T12:15:34Z</time>
      </trkpt>
      <trkpt lat="49.24231" lon="6.07833">
        <ele>211.6</ele>
        <time>2021-07-28T12:15:35Z</time>
      </trkpt>
      <trkpt lat="49.2423" lon="6.07832">
        <ele>211.6</ele>
        <time>2021-07-28T12:15:37Z</time>
      </trkpt>
      <trkpt lat="49.24229" lon="6.07831">
        <ele>211.7</ele>
        <time>2021-07-28T12:15:38Z</time>
      </trkpt>
      <trkpt lat="49.24228" lon="6.0783">
        <ele>211.7</ele>
        <time>2021-07-28T12:15:39Z</time>
      </trkpt>
      <trkpt lat="49.24226" lon="6.07829">
        <ele>211.8</ele>
        <time>2021-07-28T12:15:40Z</time>
      </trkpt>
      <trkpt lat="49.24223" lon="6.07829">
        <ele>211.9</ele>
        <time>2021-07-28T12:15:42Z</time>
      </trkpt>
      <trkpt lat="49.24222" lon="6.07828">
        <ele>212</ele>
        <time>2021-07-28T12:15:43Z</time>
      </trkpt>
      <trkpt lat="49.2422" lon="6.07827">
        <ele>212.1</ele>
        <time>2021-07-28T12:15:45Z</time>
      </trkpt>
      <trkpt lat="49.24219" lon="6.07827">
        <ele>212.1</ele>
        <time>2021-07-28T12:15:46Z</time>
      </trkpt>
      <trkpt lat="49.24217" lon="6.07827">
        <ele>212.2</ele>
        <time>2021-07-28T12:15:47Z</time>
      </trkpt>
      <trkpt lat="49.24213" lon="6.07827">
        <ele>212.3</ele>
        <time>2021-07-28T12:15:49Z</time>
      </trkpt>
      <trkpt lat="49.24212" lon="6.07827">
        <ele>212.3</ele>
        <time>2021-07-28T12:15:50Z</time>
      </trkpt>
      <trkpt lat="49.24209" lon="6.07828">
        <ele>212.4</ele>
        <time>2021-07-28T12:15:52Z</time>
      </trkpt>
      <trkpt lat="49.24206" lon="6.07829">
        <ele>212.4</ele>
        <time>2021-07-28T12:15:53Z</time>
      </trkpt>
      <trkpt lat="49.24203" lon="6.07828">
        <ele>212.4</ele>
        <time>2021-07-28T12:15:55Z</time>
      </trkpt>
      <trkpt lat="49.242" lon="6.07829">
        <ele>212.5</ele>
        <time>2021-07-28T12:15:56Z</time>
      </trkpt>
      <trkpt lat="49.24199" lon="6.07829">
        <ele>212.5</ele>
        <time>2021-07-28T12:15:57Z</time>
      </trkpt>
      <trkpt lat="49.24197" lon="6.07829">
        <ele>212.5</ele>
        <time>2021-07-28T12:15:58Z</time>
      </trkpt>
      <trkpt lat="49.24194" lon="6.07829">
        <ele>212.5</ele>
        <time>2021-07-28T12:16:00Z</time>
      </trkpt>
      <trkpt lat="49.2419" lon="6.0783">
        <ele>212.5</ele>
        <time>2021-07-28T12:16:01Z</time>
      </trkpt>
      <trkpt lat="49.24186" lon="6.07831">
        <ele>212.6</ele>
        <time>2021-07-28T12:16:03Z</time>
      </trkpt>
      <trkpt lat="49.24185" lon="6.07831">
        <ele>212.6</ele>
        <time>2021-07-28T12:16:04Z</time>
      </trkpt>
      <trkpt lat="49.24184" lon="6.07831">
        <ele>212.6</ele>
        <time>2021-07-28T12:16:05Z</time>
      </trkpt>
      <trkpt lat="49.2418" lon="6.07831">
        <ele>212.6</ele>
        <time>2021-07-28T12:16:06Z</time>
      </trkpt>
      <trkpt lat="49.24179" lon="6.07831">
        <ele>212.6</ele>
        <time>2021-07-28T12:16:07Z</time>
      </trkpt>
      <trkpt lat="49.24176" lon="6.07831">
        <ele>212.6</ele>
        <time>2021-07-28T12:16:08Z</time>
      </trkpt>
      <trkpt lat="49.24175" lon="6.07831">
        <ele>212.6</ele>
        <time>2021-07-28T12:16:09Z</time>
      </trkpt>
      <trkpt lat="49.24172" lon="6.0783">
        <ele>212.7</ele>
        <time>2021-07-28T12:16:10Z</time>
      </trkpt>
      <trkpt lat="49.24169" lon="6.07829">
        <ele>212.7</ele>
        <time>2021-07-28T12:16:11Z</time>
      </trkpt>
      <trkpt lat="49.24165" lon="6.07828">
        <ele>212.7</ele>
        <time>2021-07-28T12:16:13Z</time>
      </trkpt>
      <trkpt lat="49.2416" lon="6.07826">
        <ele>212.8</ele>
        <time>2021-07-28T12:16:15Z</time>
      </trkpt>
      <trkpt lat="49.24155" lon="6.07827">
        <ele>212.8</ele>
        <time>2021-07-28T12:16:17Z</time>
      </trkpt>
      <trkpt lat="49.24152" lon="6.07828">
        <ele>212.8</ele>
        <time>2021-07-28T12:16:18Z</time>
      </trkpt>
      <trkpt lat="49.2415" lon="6.07829">
        <ele>212.9</ele>
        <time>2021-07-28T12:16:19Z</time>
      </trkpt>
      <trkpt lat="49.24144" lon="6.07831">
        <ele>212.9</ele>
        <time>2021-07-28T12:16:21Z</time>
      </trkpt>
      <trkpt lat="49.24141" lon="6.07833">
        <ele>212.9</ele>
        <time>2021-07-28T12:16:22Z</time>
      </trkpt>
      <trkpt lat="49.24139" lon="6.07836">
        <ele>212.9</ele>
        <time>2021-07-28T12:16:23Z</time>
      </trkpt>
      <trkpt lat="49.24135" lon="6.07839">
        <ele>212.9</ele>
        <time>2021-07-28T12:16:24Z</time>
      </trkpt>
      <trkpt lat="49.24131" lon="6.07839">
        <ele>212.9</ele>
        <time>2021-07-28T12:16:26Z</time>
      </trkpt>
      <trkpt lat="49.2413" lon="6.07839">
        <ele>212.9</ele>
        <time>2021-07-28T12:16:27Z</time>
      </trkpt>
      <trkpt lat="49.24127" lon="6.07839">
        <ele>212.8</ele>
        <time>2021-07-28T12:16:29Z</time>
      </trkpt>
      <trkpt lat="49.24125" lon="6.07839">
        <ele>212.8</ele>
        <time>2021-07-28T12:16:30Z</time>
      </trkpt>
      <trkpt lat="49.24121" lon="6.07838">
        <ele>212.8</ele>
        <time>2021-07-28T12:16:31Z</time>
      </trkpt>
      <trkpt lat="49.2412" lon="6.07838">
        <ele>212.8</ele>
        <time>2021-07-28T12:16:32Z</time>
      </trkpt>
      <trkpt lat="49.24117" lon="6.07837">
        <ele>212.8</ele>
        <time>2021-07-28T12:16:33Z</time>
      </trkpt>
      <trkpt lat="49.24114" lon="6.07835">
        <ele>212.8</ele>
        <time>2021-07-28T12:16:34Z</time>
      </trkpt>
      <trkpt lat="49.2411" lon="6.07834">
        <ele>212.8</ele>
        <time>2021-07-28T12:16:35Z</time>
      </trkpt>
      <trkpt lat="49.24106" lon="6.07834">
        <ele>212.8</ele>
        <time>2021-07-28T12:16:36Z</time>
      </trkpt>
      <trkpt lat="49.24104" lon="6.07835">
        <ele>212.8</ele>
        <time>2021-07-28T12:16:37Z</time>
      </trkpt>
      <trkpt lat="49.241" lon="6.07836">
        <ele>212.8</ele>
        <time>2021-07-28T12:16:39Z</time>
      </trkpt>
      <trkpt lat="49.24097" lon="6.07835">
        <ele>212.8</ele>
        <time>2021-07-28T12:16:40Z</time>
      </trkpt>
      <trkpt lat="49.24096" lon="6.07834">
        <ele>212.8</ele>
        <time>2021-07-28T12:16:41Z</time>
      </trkpt>
      <trkpt lat="49.24094" lon="6.07832">
        <ele>212.8</ele>
        <time>2021-07-28T12:16:43Z</time>
      </trkpt>
      <trkpt lat="49.24091" lon="6.07828">
        <ele>212.8</ele>
        <time>2021-07-28T12:16:44Z</time>
      </trkpt>
      <trkpt lat="49.2409" lon="6.07826">
        <ele>212.8</ele>
        <time>2021-07-28T12:16:45Z</time>
      </trkpt>
      <trkpt lat="49.24089" lon="6.07825">
        <ele>212.8</ele>
        <time>2021-07-28T12:16:46Z</time>
      </trkpt>
      <trkpt lat="49.24087" lon="6.07823">
        <ele>212.8</ele>
        <time>2021-07-28T12:16:48Z</time>
      </trkpt>
      <trkpt lat="49.24085" lon="6.07823">
        <ele>212.8</ele>
        <time>2021-07-28T12:16:49Z</time>
      </trkpt>
      <trkpt lat="49.24084" lon="6.07824">
        <ele>212.8</ele>
        <time>2021-07-28T12:16:50Z</time>
      </trkpt>
      <trkpt lat="49.24084" lon="6.07824">
        <ele>212.8</ele>
        <time>2021-07-28T12:16:51Z</time>
      </trkpt>
      <trkpt lat="49.24084" lon="6.07822">
        <ele>212.8</ele>
        <time>2021-07-28T12:16:53Z</time>
      </trkpt>
      <trkpt lat="49.24084" lon="6.07822">
        <ele>212.8</ele>
        <time>2021-07-28T12:16:54Z</time>
      </trkpt>
      <trkpt lat="49.24082" lon="6.07822">
        <ele>212.8</ele>
        <time>2021-07-28T12:16:56Z</time>
      </trkpt>
      <trkpt lat="49.2408" lon="6.07822">
        <ele>212.8</ele>
        <time>2021-07-28T12:16:58Z</time>
      </trkpt>
      <trkpt lat="49.24078" lon="6.07823">
        <ele>212.8</ele>
        <time>2021-07-28T12:16:59Z</time>
      </trkpt>
      <trkpt lat="49.2407" lon="6.07828">
        <ele>212.7</ele>
        <time>2021-07-28T12:17:03Z</time>
      </trkpt>
      <trkpt lat="49.24063" lon="6.0783">
        <ele>212.6</ele>
        <time>2021-07-28T12:17:04Z</time>
      </trkpt>
      <trkpt lat="49.24057" lon="6.07831">
        <ele>212.4</ele>
        <time>2021-07-28T12:17:05Z</time>
      </trkpt>
      <trkpt lat="49.24051" lon="6.07833">
        <ele>212.3</ele>
        <time>2021-07-28T12:17:06Z</time>
      </trkpt>
      <trkpt lat="49.24035" lon="6.07826">
        <ele>212.2</ele>
        <time>2021-07-28T12:17:08Z</time>
      </trkpt>
      <trkpt lat="49.2403" lon="6.0782">
        <ele>212.2</ele>
        <time>2021-07-28T12:17:09Z</time>
      </trkpt>
      <trkpt lat="49.24024" lon="6.07816">
        <ele>212.3</ele>
        <time>2021-07-28T12:17:11Z</time>
      </trkpt>
      <trkpt lat="49.24021" lon="6.07813">
        <ele>212.5</ele>
        <time>2021-07-28T12:17:12Z</time>
      </trkpt>
      <trkpt lat="49.24013" lon="6.07806">
        <ele>212.7</ele>
        <time>2021-07-28T12:17:14Z</time>
      </trkpt>
      <trkpt lat="49.2401" lon="6.07804">
        <ele>212.8</ele>
        <time>2021-07-28T12:17:15Z</time>
      </trkpt>
      <trkpt lat="49.24005" lon="6.07798">
        <ele>213</ele>
        <time>2021-07-28T12:17:17Z</time>
      </trkpt>
      <trkpt lat="49.24003" lon="6.07795">
        <ele>213.1</ele>
        <time>2021-07-28T12:17:18Z</time>
      </trkpt>
      <trkpt lat="49.24" lon="6.07793">
        <ele>213.2</ele>
        <time>2021-07-28T12:17:19Z</time>
      </trkpt>
      <trkpt lat="49.23996" lon="6.07789">
        <ele>213.4</ele>
        <time>2021-07-28T12:17:20Z</time>
      </trkpt>
      <trkpt lat="49.23991" lon="6.07786">
        <ele>213.6</ele>
        <time>2021-07-28T12:17:22Z</time>
      </trkpt>
      <trkpt lat="49.23986" lon="6.07784">
        <ele>213.9</ele>
        <time>2021-07-28T12:17:23Z</time>
      </trkpt>
      <trkpt lat="49.23979" lon="6.0778">
        <ele>214.2</ele>
        <time>2021-07-28T12:17:24Z</time>
      </trkpt>
      <trkpt lat="49.23975" lon="6.07778">
        <ele>214.5</ele>
        <time>2021-07-28T12:17:25Z</time>
      </trkpt>
      <trkpt lat="49.2397" lon="6.07776">
        <ele>214.8</ele>
        <time>2021-07-28T12:17:26Z</time>
      </trkpt>
      <trkpt lat="49.23966" lon="6.0777">
        <ele>215.2</ele>
        <time>2021-07-28T12:17:28Z</time>
      </trkpt>
      <trkpt lat="49.23963" lon="6.07767">
        <ele>215.4</ele>
        <time>2021-07-28T12:17:29Z</time>
      </trkpt>
      <trkpt lat="49.23963" lon="6.07767">
        <ele>215.4</ele>
        <time>2021-07-28T12:17:30Z</time>
      </trkpt>
      <trkpt lat="49.23962" lon="6.07761">
        <ele>215.6</ele>
        <time>2021-07-28T12:17:32Z</time>
      </trkpt>
      <trkpt lat="49.23961" lon="6.07759">
        <ele>215.7</ele>
        <time>2021-07-28T12:17:33Z</time>
      </trkpt>
      <trkpt lat="49.23961" lon="6.07758">
        <ele>215.8</ele>
        <time>2021-07-28T12:17:34Z</time>
      </trkpt>
      <trkpt lat="49.2396" lon="6.07757">
        <ele>215.9</ele>
        <time>2021-07-28T12:17:35Z</time>
      </trkpt>
      <trkpt lat="49.23958" lon="6.07753">
        <ele>216.1</ele>
        <time>2021-07-28T12:17:37Z</time>
      </trkpt>
      <trkpt lat="49.23957" lon="6.07751">
        <ele>216.2</ele>
        <time>2021-07-28T12:17:38Z</time>
      </trkpt>
      <trkpt lat="49.23956" lon="6.07748">
        <ele>216.3</ele>
        <time>2021-07-28T12:17:40Z</time>
      </trkpt>
      <trkpt lat="49.2377" lon="6.07607">
        <ele>224.2</ele>
        <time>2021-07-28T12:19:29Z</time>
      </trkpt>
      <trkpt lat="49.23767" lon="6.07605">
        <ele>224.2</ele>
        <time>2021-07-28T12:19:30Z</time>
      </trkpt>
      <trkpt lat="49.23764" lon="6.07603">
        <ele>224.3</ele>
        <time>2021-07-28T12:19:32Z</time>
      </trkpt>
      <trkpt lat="49.23762" lon="6.07602">
        <ele>224.3</ele>
        <time>2021-07-28T12:19:34Z</time>
      </trkpt>
      <trkpt lat="49.23761" lon="6.07602">
        <ele>224.3</ele>
        <time>2021-07-28T12:19:35Z</time>
      </trkpt>
      <trkpt lat="49.2376" lon="6.07603">
        <ele>224.3</ele>
        <time>2021-07-28T12:19:36Z</time>
      </trkpt>
      <trkpt lat="49.23758" lon="6.07603">
        <ele>224.3</ele>
        <time>2021-07-28T12:19:38Z</time>
      </trkpt>
      <trkpt lat="49.23757" lon="6.07603">
        <ele>224.3</ele>
        <time>2021-07-28T12:19:40Z</time>
      </trkpt>
      <trkpt lat="49.23757" lon="6.07602">
        <ele>224.3</ele>
        <time>2021-07-28T12:19:41Z</time>
      </trkpt>
      <trkpt lat="49.23755" lon="6.07601">
        <ele>224.4</ele>
        <time>2021-07-28T12:19:42Z</time>
      </trkpt>
      <trkpt lat="49.23751" lon="6.07597">
        <ele>224.4</ele>
        <time>2021-07-28T12:19:44Z</time>
      </trkpt>
      <trkpt lat="49.23749" lon="6.07595">
        <ele>224.4</ele>
        <time>2021-07-28T12:19:45Z</time>
      </trkpt>
      <trkpt lat="49.23748" lon="6.07594">
        <ele>224.4</ele>
        <time>2021-07-28T12:19:46Z</time>
      </trkpt>
      <trkpt lat="49.23738" lon="6.07594">
        <ele>224.5</ele>
        <time>2021-07-28T12:19:48Z</time>
      </trkpt>
      <trkpt lat="49.23727" lon="6.07595">
        <ele>224.6</ele>
        <time>2021-07-28T12:19:50Z</time>
      </trkpt>
      <trkpt lat="49.23718" lon="6.07598">
        <ele>224.2</ele>
        <time>2021-07-28T12:19:51Z</time>
      </trkpt>
      <trkpt lat="49.23714" lon="6.07601">
        <ele>224.1</ele>
        <time>2021-07-28T12:19:52Z</time>
      </trkpt>
      <trkpt lat="49.23708" lon="6.07614">
        <ele>224</ele>
        <time>2021-07-28T12:19:53Z</time>
      </trkpt>
      <trkpt lat="49.23703" lon="6.07625">
        <ele>224</ele>
        <time>2021-07-28T12:19:54Z</time>
      </trkpt>
      <trkpt lat="49.23701" lon="6.0763">
        <ele>224.1</ele>
        <time>2021-07-28T12:19:55Z</time>
      </trkpt>
      <trkpt lat="49.237" lon="6.07636">
        <ele>224.1</ele>
        <time>2021-07-28T12:19:56Z</time>
      </trkpt>
      <trkpt lat="49.23698" lon="6.07643">
        <ele>224.2</ele>
        <time>2021-07-28T12:19:57Z</time>
      </trkpt>
      <trkpt lat="49.23696" lon="6.07648">
        <ele>224.3</ele>
        <time>2021-07-28T12:19:58Z</time>
      </trkpt>
      <trkpt lat="49.23698" lon="6.07655">
        <ele>224.4</ele>
        <time>2021-07-28T12:20:00Z</time>
      </trkpt>
      <trkpt lat="49.237" lon="6.07656">
        <ele>224.5</ele>
        <time>2021-07-28T12:20:01Z</time>
      </trkpt>
      <trkpt lat="49.23702" lon="6.07657">
        <ele>224.6</ele>
        <time>2021-07-28T12:20:02Z</time>
      </trkpt>
      <trkpt lat="49.23703" lon="6.0766">
        <ele>224.6</ele>
        <time>2021-07-28T12:20:03Z</time>
      </trkpt>
      <trkpt lat="49.23704" lon="6.07663">
        <ele>224.6</ele>
        <time>2021-07-28T12:20:05Z</time>
      </trkpt>
      <trkpt lat="49.23705" lon="6.07666">
        <ele>224.6</ele>
        <time>2021-07-28T12:20:06Z</time>
      </trkpt>
      <trkpt lat="49.23706" lon="6.07667">
        <ele>224.6</ele>
        <time>2021-07-28T12:20:07Z</time>
      </trkpt>
      <trkpt lat="49.23706" lon="6.07669">
        <ele>224.6</ele>
        <time>2021-07-28T12:20:09Z</time>
      </trkpt>
      <trkpt lat="49.24052" lon="6.08195">
        <ele>227.8</ele>
        <time>2021-07-28T12:24:15Z</time>
      </trkpt>
      <trkpt lat="49.24057" lon="6.0821">
        <ele>227.2</ele>
        <time>2021-07-28T12:24:16Z</time>
      </trkpt>
      <trkpt lat="49.24063" lon="6.0823">
        <ele>227.5</ele>
        <time>2021-07-28T12:24:18Z</time>
      </trkpt>
      <trkpt lat="49.24063" lon="6.08236">
        <ele>228.1</ele>
        <time>2021-07-28T12:24:19Z</time>
      </trkpt>
      <trkpt lat="49.24063" lon="6.08237">
        <ele>228.1</ele>
        <time>2021-07-28T12:24:20Z</time>
      </trkpt>
      <trkpt lat="49.24064" lon="6.08236">
        <ele>228.3</ele>
        <time>2021-07-28T12:24:22Z</time>
      </trkpt>
      <trkpt lat="49.24065" lon="6.08235">
        <ele>228.4</ele>
        <time>2021-07-28T12:24:23Z</time>
      </trkpt>
      <trkpt lat="49.24068" lon="6.08235">
        <ele>228.9</ele>
        <time>2021-07-28T12:24:26Z</time>
      </trkpt>
      <trkpt lat="49.24069" lon="6.08236">
        <ele>229</ele>
        <time>2021-07-28T12:24:27Z</time>
      </trkpt>
      <trkpt lat="49.24069" lon="6.08237">
        <ele>229.1</ele>
        <time>2021-07-28T12:24:28Z</time>
      </trkpt>
      <trkpt lat="49.23964" lon="6.08324">
        <ele>244</ele>
        <time>2021-07-28T12:27:02Z</time>
      </trkpt>
      <trkpt lat="49.23961" lon="6.08328">
        <ele>244.5</ele>
        <time>2021-07-28T12:27:04Z</time>
      </trkpt>
      <trkpt lat="49.23957" lon="6.08336">
        <ele>245.6</ele>
        <time>2021-07-28T12:27:05Z</time>
      </trkpt>
      <trkpt lat="49.23953" lon="6.08342">
        <ele>246.3</ele>
        <time>2021-07-28T12:27:07Z</time>
      </trkpt>
      <trkpt lat="49.23951" lon="6.08345">
        <ele>246.8</ele>
        <time>2021-07-28T12:27:08Z</time>
      </trkpt>
      <trkpt lat="49.23951" lon="6.08346">
        <ele>247</ele>
        <time>2021-07-28T12:27:10Z</time>
      </trkpt>
      <trkpt lat="49.23952" lon="6.08344">
        <ele>247.3</ele>
        <time>2021-07-28T12:27:11Z</time>
      </trkpt>
      <trkpt lat="49.23953" lon="6.08343">
        <ele>247.4</ele>
        <time>2021-07-28T12:27:12Z</time>
      </trkpt>
      <trkpt lat="49.23953" lon="6.08343">
        <ele>247.4</ele>
        <time>2021-07-28T12:27:13Z</time>
      </trkpt>
      <trkpt lat="49.23953" lon="6.08344">
        <ele>247.4</ele>
        <time>2021-07-28T12:27:14Z</time>
      </trkpt>
      <trkpt lat="49.23953" lon="6.08344">
        <ele>247.5</ele>
        <time>2021-07-28T12:27:16Z</time>
      </trkpt>
      <trkpt lat="49.23953" lon="6.08344">
        <ele>247.5</ele>
        <time>2021-07-28T12:27:17Z</time>
      </trkpt>
      <trkpt lat="49.23953" lon="6.08344">
        <ele>247.5</ele>
        <time>2021-07-28T12:27:18Z</time>
      </trkpt>
      <trkpt lat="49.23953" lon="6.08344">
        <ele>247.5</ele>
        <time>2021-07-28T12:27:19Z</time>
      </trkpt>
      <trkpt lat="49.23953" lon="6.08344">
        <ele>247.5</ele>
        <time>2021-07-28T12:27:21Z</time>
      </trkpt>
      <trkpt lat="49.23902" lon="6.08393">
        <ele>255.8</ele>
        <time>2021-07-28T12:29:39Z</time>
      </trkpt>
      <trkpt lat="49.23901" lon="6.08394">
        <ele>256</ele>
        <time>2021-07-28T12:29:40Z</time>
      </trkpt>
      <trkpt lat="49.239" lon="6.08395">
        <ele>256.2</ele>
        <time>2021-07-28T12:29:42Z</time>
      </trkpt>
      <trkpt lat="49.23899" lon="6.08396">
        <ele>256.3</ele>
        <time>2021-07-28T12:29:43Z</time>
      </trkpt>
      <trkpt lat="49.23899" lon="6.08396">
        <ele>256.4</ele>
        <time>2021-07-28T12:29:45Z</time>
      </trkpt>
      <trkpt lat="49.23898" lon="6.08397">
        <ele>256.5</ele>
        <time>2021-07-28T12:29:46Z</time>
      </trkpt>
      <trkpt lat="49.23898" lon="6.08397">
        <ele>256.5</ele>
        <time>2021-07-28T12:29:47Z</time>
      </trkpt>
      <trkpt lat="49.23898" lon="6.08397">
        <ele>256.6</ele>
        <time>2021-07-28T12:29:49Z</time>
      </trkpt>
      <trkpt lat="49.23897" lon="6.08398">
        <ele>256.6</ele>
        <time>2021-07-28T12:29:50Z</time>
      </trkpt>
      <trkpt lat="49.23897" lon="6.08398">
        <ele>256.7</ele>
        <time>2021-07-28T12:29:51Z</time>
      </trkpt>
      <trkpt lat="49.23897" lon="6.08398">
        <ele>256.7</ele>
        <time>2021-07-28T12:29:53Z</time>
      </trkpt>
      <trkpt lat="49.23897" lon="6.08398">
        <ele>256.7</ele>
        <time>2021-07-28T12:29:54Z</time>
      </trkpt>
      <trkpt lat="49.23897" lon="6.08398">
        <ele>256.7</ele>
        <time>2021-07-28T12:29:55Z</time>
      </trkpt>
      <trkpt lat="49.23897" lon="6.08398">
        <ele>256.7</ele>
        <time>2021-07-28T12:29:57Z</time>
      </trkpt>
      <trkpt lat="49.23897" lon="6.08398">
        <ele>256.7</ele>
        <time>2021-07-28T12:29:59Z</time>
      </trkpt>
      <trkpt lat="49.23897" lon="6.08398">
        <ele>256.7</ele>
        <time>2021-07-28T12:30:00Z</time>
      </trkpt>
      <trkpt lat="49.23897" lon="6.08398">
        <ele>256.8</ele>
        <time>2021-07-28T12:30:02Z</time>
      </trkpt>
      <trkpt lat="49.23896" lon="6.08399">
        <ele>256.8</ele>
        <time>2021-07-28T12:30:03Z</time>
      </trkpt>
      <trkpt lat="49.23896" lon="6.08399">
        <ele>256.9</ele>
        <time>2021-07-28T12:30:04Z</time>
      </trkpt>
      <trkpt lat="49.23895" lon="6.084">
        <ele>257.1</ele>
        <time>2021-07-28T12:30:05Z</time>
      </trkpt>
      <trkpt lat="49.23892" lon="6.08403">
        <ele>257.6</ele>
        <time>2021-07-28T12:30:07Z</time>
      </trkpt>
      <trkpt lat="49.23891" lon="6.08404">
        <ele>257.7</ele>
        <time>2021-07-28T12:30:08Z</time>
      </trkpt>
      <trkpt lat="49.23887" lon="6.08406">
        <ele>258.2</ele>
        <time>2021-07-28T12:30:09Z</time>
      </trkpt>
      <trkpt lat="49.23885" lon="6.08407">
        <ele>258.5</ele>
        <time>2021-07-28T12:30:10Z</time>
      </trkpt>
      <trkpt lat="49.23879" lon="6.08411">
        <ele>259.4</ele>
        <time>2021-07-28T12:30:12Z</time>
      </trkpt>
      <trkpt lat="49.23873" lon="6.08414">
        <ele>260.2</ele>
        <time>2021-07-28T12:30:13Z</time>
      </trkpt>
      <trkpt lat="49.23869" lon="6.08416">
        <ele>260.8</ele>
        <time>2021-07-28T12:30:14Z</time>
      </trkpt>
      <trkpt lat="49.23866" lon="6.08418">
        <ele>261.1</ele>
        <time>2021-07-28T12:30:15Z</time>
      </trkpt>
      <trkpt lat="49.23862" lon="6.0842">
        <ele>261.7</ele>
        <time>2021-07-28T12:30:17Z</time>
      </trkpt>
      <trkpt lat="49.2386" lon="6.0842">
        <ele>261.9</ele>
        <time>2021-07-28T12:30:19Z</time>
      </trkpt>
      <trkpt lat="49.23859" lon="6.08421">
        <ele>262</ele>
        <time>2021-07-28T12:30:20Z</time>
      </trkpt>
      <trkpt lat="49.23857" lon="6.08421">
        <ele>262.3</ele>
        <time>2021-07-28T12:30:21Z</time>
      </trkpt>
      <trkpt lat="49.23854" lon="6.08422">
        <ele>262.6</ele>
        <time>2021-07-28T12:30:23Z</time>
      </trkpt>
      <trkpt lat="49.23775" lon="6.08427">
        <ele>274.7</ele>
        <time>2021-07-28T12:33:06Z</time>
      </trkpt>
      <trkpt lat="49.23772" lon="6.08428">
        <ele>275</ele>
        <time>2021-07-28T12:33:07Z</time>
      </trkpt>
      <trkpt lat="49.23771" lon="6.08427">
        <ele>275.1</ele>
        <time>2021-07-28T12:33:09Z</time>
      </trkpt>
      <trkpt lat="49.23771" lon="6.08427">
        <ele>275.2</ele>
        <time>2021-07-28T12:33:10Z</time>
      </trkpt>
      <trkpt lat="49.2377" lon="6.08427">
        <ele>275.2</ele>
        <time>2021-07-28T12:33:12Z</time>
      </trkpt>
      <trkpt lat="49.2377" lon="6.08426">
        <ele>275.3</ele>
        <time>2021-07-28T12:33:13Z</time>
      </trkpt>
      <trkpt lat="49.23768" lon="6.08427">
        <ele>275.5</ele>
        <time>2021-07-28T12:33:15Z</time>
      </trkpt>
      <trkpt lat="49.23766" lon="6.08428">
        <ele>275.6</ele>
        <time>2021-07-28T12:33:16Z</time>
      </trkpt>
      <trkpt lat="49.23766" lon="6.08428">
        <ele>275.7</ele>
        <time>2021-07-28T12:33:17Z</time>
      </trkpt>
      <trkpt lat="49.23738" lon="6.08413">
        <ele>278.8</ele>
        <time>2021-07-28T12:33:52Z</time>
      </trkpt>
      <trkpt lat="49.23736" lon="6.08415">
        <ele>279</ele>
        <time>2021-07-28T12:33:53Z</time>
      </trkpt>
      <trkpt lat="49.23736" lon="6.08417">
        <ele>279.2</ele>
        <time>2021-07-28T12:33:55Z</time>
      </trkpt>
      <trkpt lat="49.23736" lon="6.08419">
        <ele>279.3</ele>
        <time>2021-07-28T12:33:56Z</time>
      </trkpt>
      <trkpt lat="49.23736" lon="6.0842">
        <ele>279.3</ele>
        <time>2021-07-28T12:33:57Z</time>
      </trkpt>
      <trkpt lat="49.23736" lon="6.08421">
        <ele>279.4</ele>
        <time>2021-07-28T12:33:59Z</time>
      </trkpt>
      <trkpt lat="49.23735" lon="6.08422">
        <ele>279.5</ele>
        <time>2021-07-28T12:34:00Z</time>
      </trkpt>
      <trkpt lat="49.23735" lon="6.08422">
        <ele>279.5</ele>
        <time>2021-07-28T12:34:01Z</time>
      </trkpt>
      <trkpt lat="49.23735" lon="6.08422">
        <ele>279.5</ele>
        <time>2021-07-28T12:34:03Z</time>
      </trkpt>
      <trkpt lat="49.23735" lon="6.08423">
        <ele>279.5</ele>
        <time>2021-07-28T12:34:05Z</time>
      </trkpt>
      <trkpt lat="49.23735" lon="6.08423">
        <ele>279.5</ele>
        <time>2021-07-28T12:34:06Z</time>
      </trkpt>
      <trkpt lat="49.23735" lon="6.08423">
        <ele>279.5</ele>
        <time>2021-07-28T12:34:07Z</time>
      </trkpt>
      <trkpt lat="49.23735" lon="6.08423">
        <ele>279.6</ele>
        <time>2021-07-28T12:34:09Z</time>
      </trkpt>
      <trkpt lat="49.23735" lon="6.08423">
        <ele>279.6</ele>
        <time>2021-07-28T12:34:10Z</time>
      </trkpt>
      <trkpt lat="49.23735" lon="6.08423">
        <ele>279.6</ele>
        <time>2021-07-28T12:34:12Z</time>
      </trkpt>
      <trkpt lat="49.23734" lon="6.08423">
        <ele>279.6</ele>
        <time>2021-07-28T12:34:13Z</time>
      </trkpt>
      <trkpt lat="49.23732" lon="6.08422">
        <ele>279.8</ele>
        <time>2021-07-28T12:34:15Z</time>
      </trkpt>
      <trkpt lat="49.2373" lon="6.08423">
        <ele>280</ele>
        <time>2021-07-28T12:34:16Z</time>
      </trkpt>
      <trkpt lat="49.23728" lon="6.08423">
        <ele>280.1</ele>
        <time>2021-07-28T12:34:17Z</time>
      </trkpt>
      <trkpt lat="49.23726" lon="6.08424">
        <ele>280.3</ele>
        <time>2021-07-28T12:34:18Z</time>
      </trkpt>
      <trkpt lat="49.23725" lon="6.08425">
        <ele>280.4</ele>
        <time>2021-07-28T12:34:19Z</time>
      </trkpt>
      <trkpt lat="49.23724" lon="6.08425">
        <ele>280.4</ele>
        <time>2021-07-28T12:34:20Z</time>
      </trkpt>
      <trkpt lat="49.23722" lon="6.08426">
        <ele>280.6</ele>
        <time>2021-07-28T12:34:22Z</time>
      </trkpt>
      <trkpt lat="49.23721" lon="6.08426">
        <ele>280.7</ele>
        <time>2021-07-28T12:34:23Z</time>
      </trkpt>
      <trkpt lat="49.2372" lon="6.08426">
        <ele>280.8</ele>
        <time>2021-07-28T12:34:25Z</time>
      </trkpt>
      <trkpt lat="49.23718" lon="6.08427">
        <ele>280.9</ele>
        <time>2021-07-28T12:34:27Z</time>
      </trkpt>
      <trkpt lat="49.23717" lon="6.08427">
        <ele>281</ele>
        <time>2021-07-28T12:34:28Z</time>
      </trkpt>
      <trkpt lat="49.23716" lon="6.08426">
        <ele>281.1</ele>
        <time>2021-07-28T12:34:29Z</time>
      </trkpt>
      <trkpt lat="49.23714" lon="6.08426">
        <ele>281.2</ele>
        <time>2021-07-28T12:34:30Z</time>
      </trkpt>
      <trkpt lat="49.23712" lon="6.08427">
        <ele>281.3</ele>
        <time>2021-07-28T12:34:31Z</time>
      </trkpt>
      <trkpt lat="49.23709" lon="6.08427">
        <ele>281.5</ele>
        <time>2021-07-28T12:34:33Z</time>
      </trkpt>
      <trkpt lat="49.23706" lon="6.08427">
        <ele>281.7</ele>
        <time>2021-07-28T12:34:34Z</time>
      </trkpt>
      <trkpt lat="49.23703" lon="6.08426">
        <ele>281.8</ele>
        <time>2021-07-28T12:34:35Z</time>
      </trkpt>
      <trkpt lat="49.23701" lon="6.08425">
        <ele>281.9</ele>
        <time>2021-07-28T12:34:37Z</time>
      </trkpt>
      <trkpt lat="49.237" lon="6.08424">
        <ele>282</ele>
        <time>2021-07-28T12:34:38Z</time>
      </trkpt>
      <trkpt lat="49.23697" lon="6.08423">
        <ele>282.2</ele>
        <time>2021-07-28T12:34:40Z</time>
      </trkpt>
      <trkpt lat="49.23694" lon="6.08421">
        <ele>282.4</ele>
        <time>2021-07-28T12:34:42Z</time>
      </trkpt>
      <trkpt lat="49.23693" lon="6.0842">
        <ele>282.4</ele>
        <time>2021-07-28T12:34:43Z</time>
      </trkpt>
      <trkpt lat="49.23692" lon="6.0842">
        <ele>282.5</ele>
        <time>2021-07-28T12:34:44Z</time>
      </trkpt>
      <trkpt lat="49.23691" lon="6.08419">
        <ele>282.6</ele>
        <time>2021-07-28T12:34:46Z</time>
      </trkpt>
      <trkpt lat="49.2369" lon="6.08419">
        <ele>282.6</ele>
        <time>2021-07-28T12:34:47Z</time>
      </trkpt>
      <trkpt lat="49.23649" lon="6.08405">
        <ele>286</ele>
        <time>2021-07-28T12:35:37Z</time>
      </trkpt>
      <trkpt lat="49.23648" lon="6.08403">
        <ele>286.2</ele>
        <time>2021-07-28T12:35:38Z</time>
      </trkpt>
      <trkpt lat="49.23647" lon="6.08401">
        <ele>286.4</ele>
        <time>2021-07-28T12:35:40Z</time>
      </trkpt>
      <trkpt lat="49.23646" lon="6.08399">
        <ele>286.5</ele>
        <time>2021-07-28T12:35:41Z</time>
      </trkpt>
      <trkpt lat="49.23646" lon="6.08396">
        <ele>286.7</ele>
        <time>2021-07-28T12:35:43Z</time>
      </trkpt>
      <trkpt lat="49.23645" lon="6.08395">
        <ele>286.8</ele>
        <time>2021-07-28T12:35:44Z</time>
      </trkpt>
      <trkpt lat="49.23645" lon="6.08393">
        <ele>286.9</ele>
        <time>2021-07-28T12:35:46Z</time>
      </trkpt>
      <trkpt lat="49.23645" lon="6.08392">
        <ele>287</ele>
        <time>2021-07-28T12:35:47Z</time>
      </trkpt>
      <trkpt lat="49.23644" lon="6.08392">
        <ele>288</ele>
        <time>2021-07-28T12:35:49Z</time>
      </trkpt>
      <trkpt lat="49.23643" lon="6.08393">
        <ele>288</ele>
        <time>2021-07-28T12:35:50Z</time>
      </trkpt>
      <trkpt lat="49.23643" lon="6.08393">
        <ele>288.1</ele>
        <time>2021-07-28T12:35:52Z</time>
      </trkpt>
      <trkpt lat="49.23642" lon="6.08393">
        <ele>288.1</ele>
        <time>2021-07-28T12:35:53Z</time>
      </trkpt>
      <trkpt lat="49.23642" lon="6.08393">
        <ele>288.1</ele>
        <time>2021-07-28T12:35:55Z</time>
      </trkpt>
      <trkpt lat="49.23641" lon="6.08393">
        <ele>288.1</ele>
        <time>2021-07-28T12:35:56Z</time>
      </trkpt>
      <trkpt lat="49.23641" lon="6.08393">
        <ele>288.1</ele>
        <time>2021-07-28T12:35:57Z</time>
      </trkpt>
      <trkpt lat="49.23639" lon="6.08393">
        <ele>288.2</ele>
        <time>2021-07-28T12:35:59Z</time>
      </trkpt>
      <trkpt lat="49.23638" lon="6.08393">
        <ele>288.3</ele>
        <time>2021-07-28T12:36:00Z</time>
      </trkpt>
      <trkpt lat="49.23636" lon="6.08393">
        <ele>288.4</ele>
        <time>2021-07-28T12:36:01Z</time>
      </trkpt>
      <trkpt lat="49.23632" lon="6.08393">
        <ele>288.6</ele>
        <time>2021-07-28T12:36:03Z</time>
      </trkpt>
      <trkpt lat="49.23631" lon="6.08392">
        <ele>288.6</ele>
        <time>2021-07-28T12:36:04Z</time>
      </trkpt>
      <trkpt lat="49.23629" lon="6.08392">
        <ele>288.8</ele>
        <time>2021-07-28T12:36:06Z</time>
      </trkpt>
      <trkpt lat="49.23627" lon="6.08392">
        <ele>288.8</ele>
        <time>2021-07-28T12:36:07Z</time>
      </trkpt>
      <trkpt lat="49.23626" lon="6.08393">
        <ele>288.9</ele>
        <time>2021-07-28T12:36:09Z</time>
      </trkpt>
      <trkpt lat="49.23625" lon="6.08393">
        <ele>288.9</ele>
        <time>2021-07-28T12:36:10Z</time>
      </trkpt>
      <trkpt lat="49.23625" lon="6.08393">
        <ele>289</ele>
        <time>2021-07-28T12:36:12Z</time>
      </trkpt>
      <trkpt lat="49.23625" lon="6.08392">
        <ele>289</ele>
        <time>2021-07-28T12:36:13Z</time>
      </trkpt>
      <trkpt lat="49.23626" lon="6.08392">
        <ele>289</ele>
        <time>2021-07-28T12:36:15Z</time>
      </trkpt>
      <trkpt lat="49.23625" lon="6.08392">
        <ele>289</ele>
        <time>2021-07-28T12:36:16Z</time>
      </trkpt>
      <trkpt lat="49.23624" lon="6.08392">
        <ele>289.1</ele>
        <time>2021-07-28T12:36:18Z</time>
      </trkpt>
      <trkpt lat="49.23623" lon="6.08392">
        <ele>289.1</ele>
        <time>2021-07-28T12:36:19Z</time>
      </trkpt>
      <trkpt lat="49.23623" lon="6.08392">
        <ele>289.2</ele>
        <time>2021-07-28T12:36:20Z</time>
      </trkpt>
      <trkpt lat="49.23622" lon="6.08392">
        <ele>289.2</ele>
        <time>2021-07-28T12:36:21Z</time>
      </trkpt>
      <trkpt lat="49.23622" lon="6.08392">
        <ele>289.2</ele>
        <time>2021-07-28T12:36:22Z</time>
      </trkpt>
      <trkpt lat="49.23622" lon="6.08393">
        <ele>289.2</ele>
        <time>2021-07-28T12:36:24Z</time>
      </trkpt>
      <trkpt lat="49.23622" lon="6.08393">
        <ele>289.2</ele>
        <time>2021-07-28T12:36:25Z</time>
      </trkpt>
      <trkpt lat="49.23621" lon="6.08393">
        <ele>289.2</ele>
        <time>2021-07-28T12:36:26Z</time>
      </trkpt>
      <trkpt lat="49.23621" lon="6.08393">
        <ele>289.2</ele>
        <time>2021-07-28T12:36:28Z</time>
      </trkpt>
      <trkpt lat="49.23621" lon="6.08393">
        <ele>289.2</ele>
        <time>2021-07-28T12:36:29Z</time>
      </trkpt>
      <trkpt lat="49.23621" lon="6.08392">
        <ele>289.3</ele>
        <time>2021-07-28T12:36:31Z</time>
      </trkpt>
      <trkpt lat="49.23612" lon="6.08381">
        <ele>289.8</ele>
        <time>2021-07-28T12:36:33Z</time>
      </trkpt>
      <trkpt lat="49.23606" lon="6.08373">
        <ele>290.2</ele>
        <time>2021-07-28T12:36:35Z</time>
      </trkpt>
      <trkpt lat="49.23605" lon="6.08371">
        <ele>290.3</ele>
        <time>2021-07-28T12:36:36Z</time>
      </trkpt>
      <trkpt lat="49.23604" lon="6.08368">
        <ele>290.4</ele>
        <time>2021-07-28T12:36:39Z</time>
      </trkpt>
      <trkpt lat="49.23605" lon="6.08366">
        <ele>290.4</ele>
        <time>2021-07-28T12:36:40Z</time>
      </trkpt>
      <trkpt lat="49.23604" lon="6.08365">
        <ele>290.5</ele>
        <time>2021-07-28T12:36:41Z</time>
      </trkpt>
      <trkpt lat="49.23604" lon="6.08364">
        <ele>290.5</ele>
        <time>2021-07-28T12:36:43Z</time>
      </trkpt>
      <trkpt lat="49.23604" lon="6.08363">
        <ele>290.6</ele>
        <time>2021-07-28T12:36:44Z</time>
      </trkpt>
      <trkpt lat="49.23604" lon="6.08362">
        <ele>290.6</ele>
        <time>2021-07-28T12:36:45Z</time>
      </trkpt>
      <trkpt lat="49.23603" lon="6.08362">
        <ele>290.6</ele>
        <time>2021-07-28T12:36:46Z</time>
      </trkpt>
      <trkpt lat="49.23603" lon="6.08361">
        <ele>290.6</ele>
        <time>2021-07-28T12:36:48Z</time>
      </trkpt>
      <trkpt lat="49.23603" lon="6.08361">
        <ele>290.6</ele>
        <time>2021-07-28T12:36:50Z</time>
      </trkpt>
      <trkpt lat="49.23603" lon="6.08361">
        <ele>290.6</ele>
        <time>2021-07-28T12:36:51Z</time>
      </trkpt>
      <trkpt lat="49.23603" lon="6.0836">
        <ele>290.6</ele>
        <time>2021-07-28T12:36:53Z</time>
      </trkpt>
      <trkpt lat="49.23603" lon="6.0836">
        <ele>290.7</ele>
        <time>2021-07-28T12:36:54Z</time>
      </trkpt>
      <trkpt lat="49.23601" lon="6.08363">
        <ele>290.8</ele>
        <time>2021-07-28T12:36:56Z</time>
      </trkpt>
      <trkpt lat="49.23599" lon="6.08365">
        <ele>290.9</ele>
        <time>2021-07-28T12:36:58Z</time>
      </trkpt>
      <trkpt lat="49.23599" lon="6.08366">
        <ele>290.9</ele>
        <time>2021-07-28T12:36:59Z</time>
      </trkpt>
      <trkpt lat="49.23598" lon="6.08366">
        <ele>290.9</ele>
        <time>2021-07-28T12:37:00Z</time>
      </trkpt>
      <trkpt lat="49.23598" lon="6.08367">
        <ele>291</ele>
        <time>2021-07-28T12:37:02Z</time>
      </trkpt>
      <trkpt lat="49.23598" lon="6.08368">
        <ele>291</ele>
        <time>2021-07-28T12:37:03Z</time>
      </trkpt>
      <trkpt lat="49.23598" lon="6.08368">
        <ele>291</ele>
        <time>2021-07-28T12:37:04Z</time>
      </trkpt>
      <trkpt lat="49.23598" lon="6.08369">
        <ele>291</ele>
        <time>2021-07-28T12:37:06Z</time>
      </trkpt>
      <trkpt lat="49.23597" lon="6.08369">
        <ele>291.1</ele>
        <time>2021-07-28T12:37:08Z</time>
      </trkpt>
      <trkpt lat="49.23597" lon="6.08368">
        <ele>291.1</ele>
        <time>2021-07-28T12:37:09Z</time>
      </trkpt>
      <trkpt lat="49.23596" lon="6.08368">
        <ele>291.1</ele>
        <time>2021-07-28T12:37:11Z</time>
      </trkpt>
      <trkpt lat="49.23596" lon="6.08368">
        <ele>291.1</ele>
        <time>2021-07-28T12:37:12Z</time>
      </trkpt>
      <trkpt lat="49.23595" lon="6.08368">
        <ele>291.2</ele>
        <time>2021-07-28T12:37:13Z</time>
      </trkpt>
      <trkpt lat="49.23594" lon="6.08368">
        <ele>291.2</ele>
        <time>2021-07-28T12:37:14Z</time>
      </trkpt>
      <trkpt lat="49.23593" lon="6.08368">
        <ele>291.3</ele>
        <time>2021-07-28T12:37:15Z</time>
      </trkpt>
      <trkpt lat="49.23589" lon="6.08369">
        <ele>291.5</ele>
        <time>2021-07-28T12:37:17Z</time>
      </trkpt>
      <trkpt lat="49.23588" lon="6.08369">
        <ele>291.5</ele>
        <time>2021-07-28T12:37:18Z</time>
      </trkpt>
      <trkpt lat="49.23587" lon="6.08369">
        <ele>291.6</ele>
        <time>2021-07-28T12:37:20Z</time>
      </trkpt>
      <trkpt lat="49.23586" lon="6.0837">
        <ele>291.6</ele>
        <time>2021-07-28T12:37:21Z</time>
      </trkpt>
      <trkpt lat="49.23577" lon="6.08374">
        <ele>292</ele>
        <time>2021-07-28T12:37:22Z</time>
      </trkpt>
      <trkpt lat="49.23572" lon="6.08376">
        <ele>292.3</ele>
        <time>2021-07-28T12:37:23Z</time>
      </trkpt>
      <trkpt lat="49.23568" lon="6.08378">
        <ele>292.5</ele>
        <time>2021-07-28T12:37:25Z</time>
      </trkpt>
      <trkpt lat="49.23567" lon="6.08378">
        <ele>292.5</ele>
        <time>2021-07-28T12:37:26Z</time>
      </trkpt>
      <trkpt lat="49.23566" lon="6.08378">
        <ele>292.5</ele>
        <time>2021-07-28T12:37:27Z</time>
      </trkpt>
      <trkpt lat="49.23567" lon="6.08379">
        <ele>292.6</ele>
        <time>2021-07-28T12:37:28Z</time>
      </trkpt>
      <trkpt lat="49.23568" lon="6.08379">
        <ele>292.6</ele>
        <time>2021-07-28T12:37:29Z</time>
      </trkpt>
      <trkpt lat="49.23571" lon="6.0838">
        <ele>292.8</ele>
        <time>2021-07-28T12:37:31Z</time>
      </trkpt>
      <trkpt lat="49.23573" lon="6.08381">
        <ele>292.9</ele>
        <time>2021-07-28T12:37:32Z</time>
      </trkpt>
      <trkpt lat="49.23575" lon="6.08382">
        <ele>292.9</ele>
        <time>2021-07-28T12:37:34Z</time>
      </trkpt>
      <trkpt lat="49.23576" lon="6.08383">
        <ele>293</ele>
        <time>2021-07-28T12:37:35Z</time>
      </trkpt>
      <trkpt lat="49.23577" lon="6.08384">
        <ele>293</ele>
        <time>2021-07-28T12:37:36Z</time>
      </trkpt>
      <trkpt lat="49.23578" lon="6.08384">
        <ele>293.1</ele>
        <time>2021-07-28T12:37:38Z</time>
      </trkpt>
      <trkpt lat="49.23579" lon="6.08385">
        <ele>293.1</ele>
        <time>2021-07-28T12:37:39Z</time>
      </trkpt>
      <trkpt lat="49.23579" lon="6.08385">
        <ele>293.2</ele>
        <time>2021-07-28T12:37:40Z</time>
      </trkpt>
      <trkpt lat="49.23579" lon="6.08385">
        <ele>293.2</ele>
        <time>2021-07-28T12:37:41Z</time>
      </trkpt>
      <trkpt lat="49.2358" lon="6.08385">
        <ele>293.2</ele>
        <time>2021-07-28T12:37:43Z</time>
      </trkpt>
      <trkpt lat="49.2358" lon="6.08384">
        <ele>293.2</ele>
        <time>2021-07-28T12:37:44Z</time>
      </trkpt>
      <trkpt lat="49.2358" lon="6.08384">
        <ele>293.2</ele>
        <time>2021-07-28T12:37:45Z</time>
      </trkpt>
      <trkpt lat="49.23581" lon="6.08386">
        <ele>293.3</ele>
        <time>2021-07-28T12:37:47Z</time>
      </trkpt>
      <trkpt lat="49.23582" lon="6.08388">
        <ele>293.4</ele>
        <time>2021-07-28T12:37:48Z</time>
      </trkpt>
      <trkpt lat="49.23582" lon="6.0839">
        <ele>293.4</ele>
        <time>2021-07-28T12:37:49Z</time>
      </trkpt>
      <trkpt lat="49.23582" lon="6.08392">
        <ele>293.5</ele>
        <time>2021-07-28T12:37:51Z</time>
      </trkpt>
      <trkpt lat="49.23582" lon="6.08393">
        <ele>293.5</ele>
        <time>2021-07-28T12:37:52Z</time>
      </trkpt>
      <trkpt lat="49.23582" lon="6.08393">
        <ele>293.5</ele>
        <time>2021-07-28T12:37:53Z</time>
      </trkpt>
      <trkpt lat="49.23582" lon="6.08394">
        <ele>293.6</ele>
        <time>2021-07-28T12:37:55Z</time>
      </trkpt>
      <trkpt lat="49.23583" lon="6.08395">
        <ele>293.6</ele>
        <time>2021-07-28T12:37:56Z</time>
      </trkpt>
      <trkpt lat="49.23583" lon="6.08395">
        <ele>293.6</ele>
        <time>2021-07-28T12:37:57Z</time>
      </trkpt>
      <trkpt lat="49.23583" lon="6.08396">
        <ele>293.6</ele>
        <time>2021-07-28T12:37:58Z</time>
      </trkpt>
      <trkpt lat="49.23583" lon="6.08396">
        <ele>293.6</ele>
        <time>2021-07-28T12:38:00Z</time>
      </trkpt>
      <trkpt lat="49.23583" lon="6.08396">
        <ele>293.6</ele>
        <time>2021-07-28T12:38:02Z</time>
      </trkpt>
      <trkpt lat="49.23583" lon="6.08396">
        <ele>293.6</ele>
        <time>2021-07-28T12:38:03Z</time>
      </trkpt>
      <trkpt lat="49.23583" lon="6.08397">
        <ele>293.6</ele>
        <time>2021-07-28T12:38:04Z</time>
      </trkpt>
      <trkpt lat="49.23583" lon="6.08397">
        <ele>293.6</ele>
        <time>2021-07-28T12:38:06Z</time>
      </trkpt>
      <trkpt lat="49.23583" lon="6.08397">
        <ele>293.6</ele>
        <time>2021-07-28T12:38:07Z</time>
      </trkpt>
      <trkpt lat="49.23583" lon="6.08397">
        <ele>293.7</ele>
        <time>2021-07-28T12:38:09Z</time>
      </trkpt>
      <trkpt lat="49.23584" lon="6.08397">
        <ele>293.7</ele>
        <time>2021-07-28T12:38:10Z</time>
      </trkpt>
      <trkpt lat="49.23584" lon="6.08397">
        <ele>293.7</ele>
        <time>2021-07-28T12:38:12Z</time>
      </trkpt>
      <trkpt lat="49.23585" lon="6.08398">
        <ele>293.7</ele>
        <time>2021-07-28T12:38:13Z</time>
      </trkpt>
      <trkpt lat="49.23586" lon="6.08399">
        <ele>293.8</ele>
        <time>2021-07-28T12:38:15Z</time>
      </trkpt>
      <trkpt lat="49.23587" lon="6.08399">
        <ele>293.9</ele>
        <time>2021-07-28T12:38:16Z</time>
      </trkpt>
      <trkpt lat="49.23588" lon="6.084">
        <ele>293.9</ele>
        <time>2021-07-28T12:38:18Z</time>
      </trkpt>
      <trkpt lat="49.23589" lon="6.08401">
        <ele>293.9</ele>
        <time>2021-07-28T12:38:19Z</time>
      </trkpt>
      <trkpt lat="49.23589" lon="6.08401">
        <ele>294</ele>
        <time>2021-07-28T12:38:21Z</time>
      </trkpt>
      <trkpt lat="49.23589" lon="6.08402">
        <ele>294</ele>
        <time>2021-07-28T12:38:22Z</time>
      </trkpt>
      <trkpt lat="49.23589" lon="6.08402">
        <ele>294</ele>
        <time>2021-07-28T12:38:23Z</time>
      </trkpt>
      <trkpt lat="49.23589" lon="6.08402">
        <ele>294</ele>
        <time>2021-07-28T12:38:24Z</time>
      </trkpt>
      <trkpt lat="49.23589" lon="6.08402">
        <ele>294</ele>
        <time>2021-07-28T12:38:26Z</time>
      </trkpt>
      <trkpt lat="49.23589" lon="6.08401">
        <ele>294</ele>
        <time>2021-07-28T12:38:28Z</time>
      </trkpt>
      <trkpt lat="49.23589" lon="6.08401">
        <ele>294</ele>
        <time>2021-07-28T12:38:29Z</time>
      </trkpt>
      <trkpt lat="49.23589" lon="6.08402">
        <ele>294.1</ele>
        <time>2021-07-28T12:38:31Z</time>
      </trkpt>
      <trkpt lat="49.23589" lon="6.08402">
        <ele>294.1</ele>
        <time>2021-07-28T12:38:32Z</time>
      </trkpt>
      <trkpt lat="49.2359" lon="6.08402">
        <ele>294.1</ele>
        <time>2021-07-28T12:38:34Z</time>
      </trkpt>
      <trkpt lat="49.2359" lon="6.08402">
        <ele>294.1</ele>
        <time>2021-07-28T12:38:36Z</time>
      </trkpt>
      <trkpt lat="49.2359" lon="6.08402">
        <ele>294.1</ele>
        <time>2021-07-28T12:38:37Z</time>
      </trkpt>
      <trkpt lat="49.2359" lon="6.08403">
        <ele>294.1</ele>
        <time>2021-07-28T12:38:39Z</time>
      </trkpt>
      <trkpt lat="49.23589" lon="6.08404">
        <ele>294.2</ele>
        <time>2021-07-28T12:38:40Z</time>
      </trkpt>
      <trkpt lat="49.23588" lon="6.08407">
        <ele>294.3</ele>
        <time>2021-07-28T12:38:42Z</time>
      </trkpt>
      <trkpt lat="49.23587" lon="6.08408">
        <ele>294.3</ele>
        <time>2021-07-28T12:38:43Z</time>
      </trkpt>
      <trkpt lat="49.23587" lon="6.08408">
        <ele>294.3</ele>
        <time>2021-07-28T12:38:44Z</time>
      </trkpt>
      <trkpt lat="49.23583" lon="6.08419">
        <ele>294.7</ele>
        <time>2021-07-28T12:38:46Z</time>
      </trkpt>
      <trkpt lat="49.23579" lon="6.08431">
        <ele>295.1</ele>
        <time>2021-07-28T12:38:47Z</time>
      </trkpt>
      <trkpt lat="49.23582" lon="6.08436">
        <ele>295.3</ele>
        <time>2021-07-28T12:38:49Z</time>
      </trkpt>
      <trkpt lat="49.23583" lon="6.08441">
        <ele>295.4</ele>
        <time>2021-07-28T12:38:51Z</time>
      </trkpt>
      <trkpt lat="49.23583" lon="6.08442">
        <ele>295.5</ele>
        <time>2021-07-28T12:38:52Z</time>
      </trkpt>
      <trkpt lat="49.23582" lon="6.08444">
        <ele>295.5</ele>
        <time>2021-07-28T12:38:53Z</time>
      </trkpt>
      <trkpt lat="49.23581" lon="6.08446">
        <ele>295.6</ele>
        <time>2021-07-28T12:38:55Z</time>
      </trkpt>
      <trkpt lat="49.2358" lon="6.08447">
        <ele>295.7</ele>
        <time>2021-07-28T12:38:57Z</time>
      </trkpt>
      <trkpt lat="49.23579" lon="6.08447">
        <ele>295.7</ele>
        <time>2021-07-28T12:38:59Z</time>
      </trkpt>
      <trkpt lat="49.23576" lon="6.08444">
        <ele>295.9</ele>
        <time>2021-07-28T12:39:01Z</time>
      </trkpt>
      <trkpt lat="49.23574" lon="6.0844">
        <ele>296</ele>
        <time>2021-07-28T12:39:03Z</time>
      </trkpt>
      <trkpt lat="49.23573" lon="6.08438">
        <ele>296.1</ele>
        <time>2021-07-28T12:39:04Z</time>
      </trkpt>
      <trkpt lat="49.23573" lon="6.08437">
        <ele>296.1</ele>
        <time>2021-07-28T12:39:05Z</time>
      </trkpt>
      <trkpt lat="49.2357" lon="6.08437">
        <ele>296.3</ele>
        <time>2021-07-28T12:39:07Z</time>
      </trkpt>
      <trkpt lat="49.23567" lon="6.08437">
        <ele>296.4</ele>
        <time>2021-07-28T12:39:08Z</time>
      </trkpt>
      <trkpt lat="49.23562" lon="6.08438">
        <ele>296.6</ele>
        <time>2021-07-28T12:39:10Z</time>
      </trkpt>
      <trkpt lat="49.23559" lon="6.08439">
        <ele>296.8</ele>
        <time>2021-07-28T12:39:11Z</time>
      </trkpt>
      <trkpt lat="49.23558" lon="6.08441">
        <ele>296.9</ele>
        <time>2021-07-28T12:39:12Z</time>
      </trkpt>
      <trkpt lat="49.23555" lon="6.08444">
        <ele>297</ele>
        <time>2021-07-28T12:39:14Z</time>
      </trkpt>
      <trkpt lat="49.23553" lon="6.08445">
        <ele>297.1</ele>
        <time>2021-07-28T12:39:15Z</time>
      </trkpt>
      <trkpt lat="49.23552" lon="6.08445">
        <ele>297.2</ele>
        <time>2021-07-28T12:39:16Z</time>
      </trkpt>
      <trkpt lat="49.23552" lon="6.08444">
        <ele>297.2</ele>
        <time>2021-07-28T12:39:17Z</time>
      </trkpt>
      <trkpt lat="49.23557" lon="6.08446">
        <ele>297.4</ele>
        <time>2021-07-28T12:39:19Z</time>
      </trkpt>
      <trkpt lat="49.23562" lon="6.0845">
        <ele>297.7</ele>
        <time>2021-07-28T12:39:21Z</time>
      </trkpt>
      <trkpt lat="49.23566" lon="6.08458">
        <ele>298</ele>
        <time>2021-07-28T12:39:23Z</time>
      </trkpt>
      <trkpt lat="49.23566" lon="6.08458">
        <ele>298</ele>
        <time>2021-07-28T12:39:25Z</time>
      </trkpt>
      <trkpt lat="49.23567" lon="6.08458">
        <ele>298.1</ele>
        <time>2021-07-28T12:39:27Z</time>
      </trkpt>
      <trkpt lat="49.23567" lon="6.08458">
        <ele>298.1</ele>
        <time>2021-07-28T12:39:29Z</time>
      </trkpt>
      <trkpt lat="49.23567" lon="6.08458">
        <ele>298.1</ele>
        <time>2021-07-28T12:39:30Z</time>
      </trkpt>
      <trkpt lat="49.23569" lon="6.08457">
        <ele>298.2</ele>
        <time>2021-07-28T12:39:32Z</time>
      </trkpt>
      <trkpt lat="49.23573" lon="6.08454">
        <ele>298.4</ele>
        <time>2021-07-28T12:39:33Z</time>
      </trkpt>
      <trkpt lat="49.23574" lon="6.08452">
        <ele>298.5</ele>
        <time>2021-07-28T12:39:34Z</time>
      </trkpt>
      <trkpt lat="49.23576" lon="6.08445">
        <ele>298.7</ele>
        <time>2021-07-28T12:39:36Z</time>
      </trkpt>
      <trkpt lat="49.23577" lon="6.08441">
        <ele>298.8</ele>
        <time>2021-07-28T12:39:37Z</time>
      </trkpt>
      <trkpt lat="49.23577" lon="6.08438">
        <ele>298.9</ele>
        <time>2021-07-28T12:39:39Z</time>
      </trkpt>
      <trkpt lat="49.23577" lon="6.08438">
        <ele>299</ele>
        <time>2021-07-28T12:39:41Z</time>
      </trkpt>
      <trkpt lat="49.23577" lon="6.08438">
        <ele>299</ele>
        <time>2021-07-28T12:39:43Z</time>
      </trkpt>
      <trkpt lat="49.23578" lon="6.08438">
        <ele>299</ele>
        <time>2021-07-28T12:39:44Z</time>
      </trkpt>
      <trkpt lat="49.23578" lon="6.08437">
        <ele>299</ele>
        <time>2021-07-28T12:39:45Z</time>
      </trkpt>
      <trkpt lat="49.23577" lon="6.08437">
        <ele>299</ele>
        <time>2021-07-28T12:39:47Z</time>
      </trkpt>
      <trkpt lat="49.23576" lon="6.08437">
        <ele>299</ele>
        <time>2021-07-28T12:39:48Z</time>
      </trkpt>
      <trkpt lat="49.23576" lon="6.08436">
        <ele>299.1</ele>
        <time>2021-07-28T12:39:49Z</time>
      </trkpt>
      <trkpt lat="49.23576" lon="6.08435">
        <ele>299.1</ele>
        <time>2021-07-28T12:39:51Z</time>
      </trkpt>
      <trkpt lat="49.23576" lon="6.08432">
        <ele>299.2</ele>
        <time>2021-07-28T12:39:53Z</time>
      </trkpt>
      <trkpt lat="49.2358" lon="6.08431">
        <ele>299.4</ele>
        <time>2021-07-28T12:39:55Z</time>
      </trkpt>
      <trkpt lat="49.23583" lon="6.0843">
        <ele>299.5</ele>
        <time>2021-07-28T12:39:56Z</time>
      </trkpt>
      <trkpt lat="49.23585" lon="6.08429">
        <ele>299.6</ele>
        <time>2021-07-28T12:39:57Z</time>
      </trkpt>
      <trkpt lat="49.23587" lon="6.0843">
        <ele>299.7</ele>
        <time>2021-07-28T12:39:59Z</time>
      </trkpt>
      <trkpt lat="49.23589" lon="6.08431">
        <ele>299.8</ele>
        <time>2021-07-28T12:40:00Z</time>
      </trkpt>
      <trkpt lat="49.2359" lon="6.08432">
        <ele>299.9</ele>
        <time>2021-07-28T12:40:01Z</time>
      </trkpt>
      <trkpt lat="49.23591" lon="6.08432">
        <ele>299.9</ele>
        <time>2021-07-28T12:40:02Z</time>
      </trkpt>
      <trkpt lat="49.23592" lon="6.08431">
        <ele>300</ele>
        <time>2021-07-28T12:40:04Z</time>
      </trkpt>
      <trkpt lat="49.23593" lon="6.08431">
        <ele>300</ele>
        <time>2021-07-28T12:40:05Z</time>
      </trkpt>
      <trkpt lat="49.23591" lon="6.08434">
        <ele>300.2</ele>
        <time>2021-07-28T12:40:06Z</time>
      </trkpt>
      <trkpt lat="49.23589" lon="6.08437">
        <ele>300.3</ele>
        <time>2021-07-28T12:40:07Z</time>
      </trkpt>
      <trkpt lat="49.23586" lon="6.0844">
        <ele>300.5</ele>
        <time>2021-07-28T12:40:09Z</time>
      </trkpt>
      <trkpt lat="49.23584" lon="6.08443">
        <ele>300.6</ele>
        <time>2021-07-28T12:40:10Z</time>
      </trkpt>
      <trkpt lat="49.23581" lon="6.08446">
        <ele>300.8</ele>
        <time>2021-07-28T12:40:11Z</time>
      </trkpt>
      <trkpt lat="49.23576" lon="6.08453">
        <ele>301.1</ele>
        <time>2021-07-28T12:40:13Z</time>
      </trkpt>
      <trkpt lat="49.23575" lon="6.08455">
        <ele>301.2</ele>
        <time>2021-07-28T12:40:14Z</time>
      </trkpt>
      <trkpt lat="49.23576" lon="6.08456">
        <ele>301.2</ele>
        <time>2021-07-28T12:40:15Z</time>
      </trkpt>
      <trkpt lat="49.23576" lon="6.08457">
        <ele>301.3</ele>
        <time>2021-07-28T12:40:16Z</time>
      </trkpt>
      <trkpt lat="49.23577" lon="6.08459">
        <ele>301.3</ele>
        <time>2021-07-28T12:40:18Z</time>
      </trkpt>
      <trkpt lat="49.23578" lon="6.08464">
        <ele>301.5</ele>
        <time>2021-07-28T12:40:20Z</time>
      </trkpt>
      <trkpt lat="49.2358" lon="6.08468">
        <ele>301.7</ele>
        <time>2021-07-28T12:40:21Z</time>
      </trkpt>
      <trkpt lat="49.23581" lon="6.08471">
        <ele>301.8</ele>
        <time>2021-07-28T12:40:23Z</time>
      </trkpt>
      <trkpt lat="49.23582" lon="6.08476">
        <ele>301.9</ele>
        <time>2021-07-28T12:40:24Z</time>
      </trkpt>
      <trkpt lat="49.23585" lon="6.08478">
        <ele>302.1</ele>
        <time>2021-07-28T12:40:25Z</time>
      </trkpt>
      <trkpt lat="49.2359" lon="6.0848">
        <ele>302.4</ele>
        <time>2021-07-28T12:40:26Z</time>
      </trkpt>
      <trkpt lat="49.23594" lon="6.08482">
        <ele>302.5</ele>
        <time>2021-07-28T12:40:27Z</time>
      </trkpt>
      <trkpt lat="49.23601" lon="6.08485">
        <ele>302.8</ele>
        <time>2021-07-28T12:40:29Z</time>
      </trkpt>
      <trkpt lat="49.23602" lon="6.08486">
        <ele>302.9</ele>
        <time>2021-07-28T12:40:30Z</time>
      </trkpt>
      <trkpt lat="49.23604" lon="6.08485">
        <ele>302.9</ele>
        <time>2021-07-28T12:40:31Z</time>
      </trkpt>
      <trkpt lat="49.23607" lon="6.08482">
        <ele>303.1</ele>
        <time>2021-07-28T12:40:33Z</time>
      </trkpt>
      <trkpt lat="49.236" lon="6.0849">
        <ele>303.4</ele>
        <time>2021-07-28T12:40:34Z</time>
      </trkpt>
      <trkpt lat="49.23591" lon="6.085">
        <ele>303.8</ele>
        <time>2021-07-28T12:41:32Z</time>
      </trkpt>
      <trkpt lat="49.23581" lon="6.0851">
        <ele>303.7</ele>
        <time>2021-07-28T12:41:33Z</time>
      </trkpt>
      <trkpt lat="49.23586" lon="6.08515">
        <ele>303.1</ele>
        <time>2021-07-28T12:41:34Z</time>
      </trkpt>
      <trkpt lat="49.23593" lon="6.08528">
        <ele>301.9</ele>
        <time>2021-07-28T12:41:36Z</time>
      </trkpt>
      <trkpt lat="49.23599" lon="6.08537">
        <ele>300.9</ele>
        <time>2021-07-28T12:41:37Z</time>
      </trkpt>
      <trkpt lat="49.23602" lon="6.08541">
        <ele>300.4</ele>
        <time>2021-07-28T12:41:38Z</time>
      </trkpt>
      <trkpt lat="49.23603" lon="6.08542">
        <ele>300.3</ele>
        <time>2021-07-28T12:41:39Z</time>
      </trkpt>
      <trkpt lat="49.23604" lon="6.08544">
        <ele>300.1</ele>
        <time>2021-07-28T12:41:41Z</time>
      </trkpt>
      <trkpt lat="49.23608" lon="6.08547">
        <ele>299.5</ele>
        <time>2021-07-28T12:41:43Z</time>
      </trkpt>
      <trkpt lat="49.23732" lon="6.08676">
        <ele>282.8</ele>
        <time>2021-07-28T12:42:26Z</time>
      </trkpt>
      <trkpt lat="49.23737" lon="6.08693">
        <ele>282.1</ele>
        <time>2021-07-28T12:42:27Z</time>
      </trkpt>
      <trkpt lat="49.23738" lon="6.08717">
        <ele>281.2</ele>
        <time>2021-07-28T12:42:29Z</time>
      </trkpt>
      <trkpt lat="49.23739" lon="6.08736">
        <ele>280.6</ele>
        <time>2021-07-28T12:42:31Z</time>
      </trkpt>
      <trkpt lat="49.23741" lon="6.08755">
        <ele>280.3</ele>
        <time>2021-07-28T12:42:33Z</time>
      </trkpt>
      <trkpt lat="49.23742" lon="6.08763">
        <ele>280.2</ele>
        <time>2021-07-28T12:42:34Z</time>
      </trkpt>
      <trkpt lat="49.23745" lon="6.08771">
        <ele>280.1</ele>
        <time>2021-07-28T12:42:35Z</time>
      </trkpt>
      <trkpt lat="49.23748" lon="6.08778">
        <ele>280.2</ele>
        <time>2021-07-28T12:42:36Z</time>
      </trkpt>
      <trkpt lat="49.23751" lon="6.08784">
        <ele>280.3</ele>
        <time>2021-07-28T12:42:37Z</time>
      </trkpt>
      <trkpt lat="49.23755" lon="6.08791">
        <ele>280.6</ele>
        <time>2021-07-28T12:42:39Z</time>
      </trkpt>
      <trkpt lat="49.23758" lon="6.08796">
        <ele>280.9</ele>
        <time>2021-07-28T12:42:41Z</time>
      </trkpt>
      <trkpt lat="49.23761" lon="6.08799">
        <ele>281.2</ele>
        <time>2021-07-28T12:42:42Z</time>
      </trkpt>
      <trkpt lat="49.23764" lon="6.08802">
        <ele>281.5</ele>
        <time>2021-07-28T12:42:43Z</time>
      </trkpt>
      <trkpt lat="49.23766" lon="6.08802">
        <ele>281.7</ele>
        <time>2021-07-28T12:42:44Z</time>
      </trkpt>
      <trkpt lat="49.23767" lon="6.08803">
        <ele>281.9</ele>
        <time>2021-07-28T12:42:45Z</time>
      </trkpt>
      <trkpt lat="49.2377" lon="6.08806">
        <ele>282.2</ele>
        <time>2021-07-28T12:42:47Z</time>
      </trkpt>
      <trkpt lat="49.23771" lon="6.08808">
        <ele>282.3</ele>
        <time>2021-07-28T12:42:48Z</time>
      </trkpt>
      <trkpt lat="49.23774" lon="6.08812">
        <ele>282.7</ele>
        <time>2021-07-28T12:42:50Z</time>
      </trkpt>
      <trkpt lat="49.23777" lon="6.08815">
        <ele>283</ele>
        <time>2021-07-28T12:42:51Z</time>
      </trkpt>
      <trkpt lat="49.23781" lon="6.0882">
        <ele>283.4</ele>
        <time>2021-07-28T12:42:52Z</time>
      </trkpt>
      <trkpt lat="49.23783" lon="6.08824">
        <ele>283.7</ele>
        <time>2021-07-28T12:42:54Z</time>
      </trkpt>
      <trkpt lat="49.23783" lon="6.08825">
        <ele>283.7</ele>
        <time>2021-07-28T12:42:55Z</time>
      </trkpt>
      <trkpt lat="49.23785" lon="6.08829">
        <ele>284</ele>
        <time>2021-07-28T12:42:56Z</time>
      </trkpt>
      <trkpt lat="49.23786" lon="6.08829">
        <ele>284.1</ele>
        <time>2021-07-28T12:42:58Z</time>
      </trkpt>
      <trkpt lat="49.23787" lon="6.0883">
        <ele>284.1</ele>
        <time>2021-07-28T12:42:59Z</time>
      </trkpt>
      <trkpt lat="49.23787" lon="6.0883">
        <ele>284.2</ele>
        <time>2021-07-28T12:43:01Z</time>
      </trkpt>
      <trkpt lat="49.23788" lon="6.0883">
        <ele>284.2</ele>
        <time>2021-07-28T12:43:02Z</time>
      </trkpt>
      <trkpt lat="49.23857" lon="6.08908">
        <ele>290.6</ele>
        <time>2021-07-28T12:44:18Z</time>
      </trkpt>
      <trkpt lat="49.23858" lon="6.0891">
        <ele>290.7</ele>
        <time>2021-07-28T12:44:19Z</time>
      </trkpt>
      <trkpt lat="49.2386" lon="6.08912">
        <ele>290.8</ele>
        <time>2021-07-28T12:44:21Z</time>
      </trkpt>
      <trkpt lat="49.23863" lon="6.08914">
        <ele>290.9</ele>
        <time>2021-07-28T12:44:22Z</time>
      </trkpt>
      <trkpt lat="49.23864" lon="6.08915">
        <ele>290.9</ele>
        <time>2021-07-28T12:44:23Z</time>
      </trkpt>
      <trkpt lat="49.23865" lon="6.08915">
        <ele>291</ele>
        <time>2021-07-28T12:44:25Z</time>
      </trkpt>
      <trkpt lat="49.23866" lon="6.08915">
        <ele>291</ele>
        <time>2021-07-28T12:44:26Z</time>
      </trkpt>
      <trkpt lat="49.23866" lon="6.08916">
        <ele>291</ele>
        <time>2021-07-28T12:44:27Z</time>
      </trkpt>
      <trkpt lat="49.23867" lon="6.08918">
        <ele>291.1</ele>
        <time>2021-07-28T12:44:29Z</time>
      </trkpt>
      <trkpt lat="49.23868" lon="6.0892">
        <ele>291.1</ele>
        <time>2021-07-28T12:44:30Z</time>
      </trkpt>
      <trkpt lat="49.23869" lon="6.08921">
        <ele>291.1</ele>
        <time>2021-07-28T12:44:31Z</time>
      </trkpt>
      <trkpt lat="49.23871" lon="6.08923">
        <ele>291.2</ele>
        <time>2021-07-28T12:44:33Z</time>
      </trkpt>
      <trkpt lat="49.23885" lon="6.08932">
        <ele>291.5</ele>
        <time>2021-07-28T12:44:42Z</time>
      </trkpt>
      <trkpt lat="49.23889" lon="6.08933">
        <ele>291.5</ele>
        <time>2021-07-28T12:44:44Z</time>
      </trkpt>
      <trkpt lat="49.23893" lon="6.08934">
        <ele>291.6</ele>
        <time>2021-07-28T12:44:45Z</time>
      </trkpt>
      <trkpt lat="49.23894" lon="6.08935">
        <ele>291.6</ele>
        <time>2021-07-28T12:44:46Z</time>
      </trkpt>
      <trkpt lat="49.23898" lon="6.08938">
        <ele>291.6</ele>
        <time>2021-07-28T12:44:48Z</time>
      </trkpt>
      <trkpt lat="49.239" lon="6.08942">
        <ele>291.7</ele>
        <time>2021-07-28T12:44:49Z</time>
      </trkpt>
      <trkpt lat="49.23901" lon="6.08945">
        <ele>291.7</ele>
        <time>2021-07-28T12:44:50Z</time>
      </trkpt>
      <trkpt lat="49.23904" lon="6.08948">
        <ele>291.8</ele>
        <time>2021-07-28T12:44:52Z</time>
      </trkpt>
      <trkpt lat="49.23905" lon="6.08949">
        <ele>291.9</ele>
        <time>2021-07-28T12:44:53Z</time>
      </trkpt>
      <trkpt lat="49.23908" lon="6.08951">
        <ele>292</ele>
        <time>2021-07-28T12:44:54Z</time>
      </trkpt>
      <trkpt lat="49.23909" lon="6.08952">
        <ele>292</ele>
        <time>2021-07-28T12:44:55Z</time>
      </trkpt>
      <trkpt lat="49.23911" lon="6.08954">
        <ele>292.2</ele>
        <time>2021-07-28T12:44:56Z</time>
      </trkpt>
      <trkpt lat="49.23912" lon="6.08955">
        <ele>292.2</ele>
        <time>2021-07-28T12:44:57Z</time>
      </trkpt>
      <trkpt lat="49.23914" lon="6.08959">
        <ele>292.4</ele>
        <time>2021-07-28T12:44:58Z</time>
      </trkpt>
      <trkpt lat="49.23914" lon="6.08965">
        <ele>292.6</ele>
        <time>2021-07-28T12:45:00Z</time>
      </trkpt>
      <trkpt lat="49.23914" lon="6.0897">
        <ele>292.7</ele>
        <time>2021-07-28T12:45:02Z</time>
      </trkpt>
      <trkpt lat="49.23915" lon="6.08971">
        <ele>292.8</ele>
        <time>2021-07-28T12:45:03Z</time>
      </trkpt>
      <trkpt lat="49.23916" lon="6.08973">
        <ele>292.9</ele>
        <time>2021-07-28T12:45:05Z</time>
      </trkpt>
      <trkpt lat="49.23917" lon="6.08974">
        <ele>293</ele>
        <time>2021-07-28T12:45:06Z</time>
      </trkpt>
      <trkpt lat="49.23918" lon="6.08971">
        <ele>293.1</ele>
        <time>2021-07-28T12:45:07Z</time>
      </trkpt>
      <trkpt lat="49.23919" lon="6.08969">
        <ele>293.2</ele>
        <time>2021-07-28T12:45:09Z</time>
      </trkpt>
      <trkpt lat="49.23919" lon="6.08969">
        <ele>293.2</ele>
        <time>2021-07-28T12:45:10Z</time>
      </trkpt>
      <trkpt lat="49.23919" lon="6.08969">
        <ele>293.2</ele>
        <time>2021-07-28T12:45:11Z</time>
      </trkpt>
      <trkpt lat="49.2392" lon="6.08971">
        <ele>293.3</ele>
        <time>2021-07-28T12:45:13Z</time>
      </trkpt>
      <trkpt lat="49.2392" lon="6.08972">
        <ele>293.3</ele>
        <time>2021-07-28T12:45:14Z</time>
      </trkpt>
      <trkpt lat="49.23921" lon="6.08973">
        <ele>293.4</ele>
        <time>2021-07-28T12:45:15Z</time>
      </trkpt>
      <trkpt lat="49.23936" lon="6.08998">
        <ele>293.5</ele>
        <time>2021-07-28T12:45:26Z</time>
      </trkpt>
      <trkpt lat="49.23941" lon="6.09001">
        <ele>293.4</ele>
        <time>2021-07-28T12:45:27Z</time>
      </trkpt>
      <trkpt lat="49.23946" lon="6.09006">
        <ele>293.1</ele>
        <time>2021-07-28T12:45:29Z</time>
      </trkpt>
      <trkpt lat="49.23951" lon="6.09013">
        <ele>292.8</ele>
        <time>2021-07-28T12:45:30Z</time>
      </trkpt>
      <trkpt lat="49.23958" lon="6.09035">
        <ele>291.8</ele>
        <time>2021-07-28T12:45:31Z</time>
      </trkpt>
      <trkpt lat="49.23963" lon="6.09054">
        <ele>290.9</ele>
        <time>2021-07-28T12:45:33Z</time>
      </trkpt>
      <trkpt lat="49.23966" lon="6.09063">
        <ele>290.5</ele>
        <time>2021-07-28T12:45:35Z</time>
      </trkpt>
      <trkpt lat="49.23968" lon="6.09068">
        <ele>290.2</ele>
        <time>2021-07-28T12:45:36Z</time>
      </trkpt>
      <trkpt lat="49.23969" lon="6.09077">
        <ele>289.9</ele>
        <time>2021-07-28T12:45:37Z</time>
      </trkpt>
      <trkpt lat="49.23972" lon="6.09091">
        <ele>289.2</ele>
        <time>2021-07-28T12:45:39Z</time>
      </trkpt>
      <trkpt lat="49.23972" lon="6.09094">
        <ele>289.1</ele>
        <time>2021-07-28T12:45:40Z</time>
      </trkpt>
      <trkpt lat="49.23973" lon="6.09102">
        <ele>288.8</ele>
        <time>2021-07-28T12:45:42Z</time>
      </trkpt>
      <trkpt lat="49.23975" lon="6.09111">
        <ele>288.3</ele>
        <time>2021-07-28T12:45:43Z</time>
      </trkpt>
      <trkpt lat="49.23977" lon="6.09122">
        <ele>287.8</ele>
        <time>2021-07-28T12:45:45Z</time>
      </trkpt>
      <trkpt lat="49.23977" lon="6.09129">
        <ele>287.4</ele>
        <time>2021-07-28T12:45:46Z</time>
      </trkpt>
      <trkpt lat="49.23979" lon="6.09136">
        <ele>286.9</ele>
        <time>2021-07-28T12:45:47Z</time>
      </trkpt>
      <trkpt lat="49.23982" lon="6.09146">
        <ele>286.2</ele>
        <time>2021-07-28T12:45:48Z</time>
      </trkpt>
      <trkpt lat="49.23984" lon="6.09152">
        <ele>285.7</ele>
        <time>2021-07-28T12:45:49Z</time>
      </trkpt>
      <trkpt lat="49.23988" lon="6.0916">
        <ele>284.9</ele>
        <time>2021-07-28T12:45:51Z</time>
      </trkpt>
      <trkpt lat="49.23992" lon="6.09166">
        <ele>284.1</ele>
        <time>2021-07-28T12:45:52Z</time>
      </trkpt>
      <trkpt lat="49.23995" lon="6.09172">
        <ele>283.4</ele>
        <time>2021-07-28T12:45:53Z</time>
      </trkpt>
      <trkpt lat="49.23999" lon="6.09181">
        <ele>282.5</ele>
        <time>2021-07-28T12:45:55Z</time>
      </trkpt>
      <trkpt lat="49.24002" lon="6.09188">
        <ele>281.8</ele>
        <time>2021-07-28T12:45:56Z</time>
      </trkpt>
      <trkpt lat="49.24005" lon="6.09193">
        <ele>281.2</ele>
        <time>2021-07-28T12:45:58Z</time>
      </trkpt>
      <trkpt lat="49.24006" lon="6.09196">
        <ele>281</ele>
        <time>2021-07-28T12:45:59Z</time>
      </trkpt>
      <trkpt lat="49.24007" lon="6.09199">
        <ele>280.8</ele>
        <time>2021-07-28T12:46:00Z</time>
      </trkpt>
      <trkpt lat="49.24008" lon="6.09202">
        <ele>280.5</ele>
        <time>2021-07-28T12:46:02Z</time>
      </trkpt>
      <trkpt lat="49.2401" lon="6.09207">
        <ele>280.2</ele>
        <time>2021-07-28T12:46:03Z</time>
      </trkpt>
      <trkpt lat="49.24011" lon="6.09211">
        <ele>280</ele>
        <time>2021-07-28T12:46:04Z</time>
      </trkpt>
      <trkpt lat="49.24014" lon="6.09218">
        <ele>279.7</ele>
        <time>2021-07-28T12:46:06Z</time>
      </trkpt>
      <trkpt lat="49.24015" lon="6.09226">
        <ele>279.5</ele>
        <time>2021-07-28T12:46:07Z</time>
      </trkpt>
      <trkpt lat="49.24015" lon="6.09232">
        <ele>279.3</ele>
        <time>2021-07-28T12:46:08Z</time>
      </trkpt>
      <trkpt lat="49.24015" lon="6.0924">
        <ele>279.3</ele>
        <time>2021-07-28T12:46:10Z</time>
      </trkpt>
      <trkpt lat="49.24015" lon="6.0925">
        <ele>279.2</ele>
        <time>2021-07-28T12:46:11Z</time>
      </trkpt>
      <trkpt lat="49.24016" lon="6.09263">
        <ele>279.4</ele>
        <time>2021-07-28T12:46:13Z</time>
      </trkpt>
      <trkpt lat="49.24016" lon="6.09273">
        <ele>279.5</ele>
        <time>2021-07-28T12:46:14Z</time>
      </trkpt>
      <trkpt lat="49.24017" lon="6.09284">
        <ele>279.4</ele>
        <time>2021-07-28T12:46:16Z</time>
      </trkpt>
      <trkpt lat="49.24017" lon="6.09293">
        <ele>278.9</ele>
        <time>2021-07-28T12:46:17Z</time>
      </trkpt>
      <trkpt lat="49.24015" lon="6.09304">
        <ele>278.2</ele>
        <time>2021-07-28T12:46:18Z</time>
      </trkpt>
      <trkpt lat="49.24013" lon="6.09312">
        <ele>277.9</ele>
        <time>2021-07-28T12:46:20Z</time>
      </trkpt>
      <trkpt lat="49.24012" lon="6.09317">
        <ele>277.6</ele>
        <time>2021-07-28T12:46:21Z</time>
      </trkpt>
      <trkpt lat="49.24011" lon="6.09321">
        <ele>277.4</ele>
        <time>2021-07-28T12:46:22Z</time>
      </trkpt>
      <trkpt lat="49.2401" lon="6.09324">
        <ele>277.3</ele>
        <time>2021-07-28T12:46:23Z</time>
      </trkpt>
      <trkpt lat="49.24008" lon="6.09328">
        <ele>277.1</ele>
        <time>2021-07-28T12:46:25Z</time>
      </trkpt>
      <trkpt lat="49.24007" lon="6.09332">
        <ele>277</ele>
        <time>2021-07-28T12:46:26Z</time>
      </trkpt>
      <trkpt lat="49.24007" lon="6.09333">
        <ele>277</ele>
        <time>2021-07-28T12:46:27Z</time>
      </trkpt>
      <trkpt lat="49.24006" lon="6.09338">
        <ele>276.9</ele>
        <time>2021-07-28T12:46:29Z</time>
      </trkpt>
      <trkpt lat="49.24004" lon="6.09344">
        <ele>276.8</ele>
        <time>2021-07-28T12:46:31Z</time>
      </trkpt>
      <trkpt lat="49.24004" lon="6.09349">
        <ele>276.8</ele>
        <time>2021-07-28T12:46:33Z</time>
      </trkpt>
      <trkpt lat="49.24005" lon="6.09349">
        <ele>275.8</ele>
        <time>2021-07-28T12:46:34Z</time>
      </trkpt>
      <trkpt lat="49.24006" lon="6.09352">
        <ele>275.3</ele>
        <time>2021-07-28T12:46:35Z</time>
      </trkpt>
      <trkpt lat="49.24006" lon="6.09353">
        <ele>275</ele>
        <time>2021-07-28T12:46:36Z</time>
      </trkpt>
      <trkpt lat="49.24006" lon="6.09353">
        <ele>274.8</ele>
        <time>2021-07-28T12:46:37Z</time>
      </trkpt>
      <trkpt lat="49.24006" lon="6.09353">
        <ele>274.5</ele>
        <time>2021-07-28T12:46:38Z</time>
      </trkpt>
      <trkpt lat="49.24007" lon="6.09354">
        <ele>274.2</ele>
        <time>2021-07-28T12:46:41Z</time>
      </trkpt>
      <trkpt lat="49.24006" lon="6.09354">
        <ele>273.9</ele>
        <time>2021-07-28T12:46:43Z</time>
      </trkpt>
      <trkpt lat="49.24006" lon="6.09354">
        <ele>273.7</ele>
        <time>2021-07-28T12:46:45Z</time>
      </trkpt>
      <trkpt lat="49.23767" lon="6.09276">
        <ele>373</ele>
        <time>2021-07-28T13:04:35Z</time>
      </trkpt>
      <trkpt lat="49.23764" lon="6.0926">
        <ele>374.2</ele>
        <time>2021-07-28T13:04:37Z</time>
      </trkpt>
      <trkpt lat="49.23765" lon="6.09252">
        <ele>373.9</ele>
        <time>2021-07-28T13:04:39Z</time>
      </trkpt>
      <trkpt lat="49.23765" lon="6.09251">
        <ele>373.7</ele>
        <time>2021-07-28T13:04:41Z</time>
      </trkpt>
      <trkpt lat="49.23764" lon="6.09253">
        <ele>373.4</ele>
        <time>2021-07-28T13:04:43Z</time>
      </trkpt>
      <trkpt lat="49.23763" lon="6.09254">
        <ele>373.9</ele>
        <time>2021-07-28T13:04:44Z</time>
      </trkpt>
      <trkpt lat="49.23761" lon="6.09256">
        <ele>373.6</ele>
        <time>2021-07-28T13:04:45Z</time>
      </trkpt>
      <trkpt lat="49.2376" lon="6.0926">
        <ele>374</ele>
        <time>2021-07-28T13:04:46Z</time>
      </trkpt>
      <trkpt lat="49.23756" lon="6.09268">
        <ele>374.3</ele>
        <time>2021-07-28T13:04:48Z</time>
      </trkpt>
      <trkpt lat="49.23742" lon="6.09255">
        <ele>378.1</ele>
        <time>2021-07-28T13:04:49Z</time>
      </trkpt>
      <trkpt lat="49.2373" lon="6.09237">
        <ele>381.4</ele>
        <time>2021-07-28T13:12:56Z</time>
      </trkpt>
      <trkpt lat="49.23718" lon="6.09219">
        <ele>383.2</ele>
        <time>2021-07-28T13:12:57Z</time>
      </trkpt>
      <trkpt lat="49.23714" lon="6.09221">
        <ele>383.4</ele>
        <time>2021-07-28T13:12:58Z</time>
      </trkpt>
      <trkpt lat="49.23708" lon="6.09223">
        <ele>384.3</ele>
        <time>2021-07-28T13:13:00Z</time>
      </trkpt>
      <trkpt lat="49.23703" lon="6.09225">
        <ele>385</ele>
        <time>2021-07-28T13:13:02Z</time>
      </trkpt>
      <trkpt lat="49.23699" lon="6.09226">
        <ele>385.7</ele>
        <time>2021-07-28T13:13:03Z</time>
      </trkpt>
      <trkpt lat="49.23695" lon="6.09227">
        <ele>385.9</ele>
        <time>2021-07-28T13:13:05Z</time>
      </trkpt>
      <trkpt lat="49.23691" lon="6.09229">
        <ele>386</ele>
        <time>2021-07-28T13:13:07Z</time>
      </trkpt>
      <trkpt lat="49.23684" lon="6.09231">
        <ele>386.2</ele>
        <time>2021-07-28T13:13:09Z</time>
      </trkpt>
      <trkpt lat="49.23663" lon="6.0925">
        <ele>387</ele>
        <time>2021-07-28T13:13:10Z</time>
      </trkpt>
      <trkpt lat="49.23644" lon="6.09268">
        <ele>387.5</ele>
        <time>2021-07-28T13:15:50Z</time>
      </trkpt>
      <trkpt lat="49.23625" lon="6.09286">
        <ele>387.9</ele>
        <time>2021-07-28T13:15:51Z</time>
      </trkpt>
      <trkpt lat="49.2362" lon="6.09293">
        <ele>388.1</ele>
        <time>2021-07-28T13:15:53Z</time>
      </trkpt>
      <trkpt lat="49.23611" lon="6.09302">
        <ele>388.3</ele>
        <time>2021-07-28T13:15:54Z</time>
      </trkpt>
      <trkpt lat="49.23605" lon="6.09309">
        <ele>388.5</ele>
        <time>2021-07-28T13:15:56Z</time>
      </trkpt>
      <trkpt lat="49.23603" lon="6.09311">
        <ele>388.5</ele>
        <time>2021-07-28T13:15:57Z</time>
      </trkpt>
      <trkpt lat="49.236" lon="6.09315">
        <ele>388.6</ele>
        <time>2021-07-28T13:15:59Z</time>
      </trkpt>
      <trkpt lat="49.23598" lon="6.09317">
        <ele>388.7</ele>
        <time>2021-07-28T13:16:00Z</time>
      </trkpt>
      <trkpt lat="49.23597" lon="6.09319">
        <ele>388.8</ele>
        <time>2021-07-28T13:16:02Z</time>
      </trkpt>
      <trkpt lat="49.23596" lon="6.0932">
        <ele>388.8</ele>
        <time>2021-07-28T13:16:03Z</time>
      </trkpt>
      <trkpt lat="49.2351" lon="6.09371">
        <ele>391</ele>
        <time>2021-07-28T13:16:54Z</time>
      </trkpt>
      <trkpt lat="49.23506" lon="6.0937">
        <ele>391.1</ele>
        <time>2021-07-28T13:16:55Z</time>
      </trkpt>
      <trkpt lat="49.23505" lon="6.0937">
        <ele>391.1</ele>
        <time>2021-07-28T13:16:57Z</time>
      </trkpt>
      <trkpt lat="49.23504" lon="6.09369">
        <ele>391.2</ele>
        <time>2021-07-28T13:16:58Z</time>
      </trkpt>
      <trkpt lat="49.23503" lon="6.09369">
        <ele>391.2</ele>
        <time>2021-07-28T13:16:59Z</time>
      </trkpt>
      <trkpt lat="49.23503" lon="6.09369">
        <ele>391.2</ele>
        <time>2021-07-28T13:17:00Z</time>
      </trkpt>
      <trkpt lat="49.23502" lon="6.09369">
        <ele>391.2</ele>
        <time>2021-07-28T13:17:01Z</time>
      </trkpt>
      <trkpt lat="49.23498" lon="6.09369">
        <ele>391.3</ele>
        <time>2021-07-28T13:17:03Z</time>
      </trkpt>
      <trkpt lat="49.23496" lon="6.09369">
        <ele>391.4</ele>
        <time>2021-07-28T13:17:04Z</time>
      </trkpt>
      <trkpt lat="49.23491" lon="6.09368">
        <ele>391.5</ele>
        <time>2021-07-28T13:17:06Z</time>
      </trkpt>
      <trkpt lat="49.23484" lon="6.09368">
        <ele>391.8</ele>
        <time>2021-07-28T13:17:07Z</time>
      </trkpt>
      <trkpt lat="49.23476" lon="6.09367">
        <ele>392.1</ele>
        <time>2021-07-28T13:17:09Z</time>
      </trkpt>
      <trkpt lat="49.23472" lon="6.09365">
        <ele>392.2</ele>
        <time>2021-07-28T13:17:10Z</time>
      </trkpt>
      <trkpt lat="49.23469" lon="6.09364">
        <ele>392.3</ele>
        <time>2021-07-28T13:17:11Z</time>
      </trkpt>
      <trkpt lat="49.23466" lon="6.09362">
        <ele>392.5</ele>
        <time>2021-07-28T13:17:13Z</time>
      </trkpt>
      <trkpt lat="49.23463" lon="6.09361">
        <ele>392.6</ele>
        <time>2021-07-28T13:17:14Z</time>
      </trkpt>
      <trkpt lat="49.23457" lon="6.09358">
        <ele>392.9</ele>
        <time>2021-07-28T13:17:16Z</time>
      </trkpt>
      <trkpt lat="49.23453" lon="6.09357">
        <ele>393</ele>
        <time>2021-07-28T13:17:17Z</time>
      </trkpt>
      <trkpt lat="49.2345" lon="6.09356">
        <ele>393.2</ele>
        <time>2021-07-28T13:17:18Z</time>
      </trkpt>
      <trkpt lat="49.23446" lon="6.09354">
        <ele>393.3</ele>
        <time>2021-07-28T13:17:20Z</time>
      </trkpt>
      <trkpt lat="49.23445" lon="6.09354">
        <ele>393.3</ele>
        <time>2021-07-28T13:17:21Z</time>
      </trkpt>
      <trkpt lat="49.23444" lon="6.09353">
        <ele>393.4</ele>
        <time>2021-07-28T13:17:22Z</time>
      </trkpt>
      <trkpt lat="49.23443" lon="6.09351">
        <ele>393.4</ele>
        <time>2021-07-28T13:17:23Z</time>
      </trkpt>
      <trkpt lat="49.23442" lon="6.09347">
        <ele>393.5</ele>
        <time>2021-07-28T13:17:25Z</time>
      </trkpt>
      <trkpt lat="49.23441" lon="6.09345">
        <ele>393.5</ele>
        <time>2021-07-28T13:17:27Z</time>
      </trkpt>
      <trkpt lat="49.2344" lon="6.09344">
        <ele>393.6</ele>
        <time>2021-07-28T13:17:28Z</time>
      </trkpt>
      <trkpt lat="49.23439" lon="6.09343">
        <ele>393.6</ele>
        <time>2021-07-28T13:17:29Z</time>
      </trkpt>
      <trkpt lat="49.23436" lon="6.09343">
        <ele>393.6</ele>
        <time>2021-07-28T13:17:31Z</time>
      </trkpt>
      <trkpt lat="49.23434" lon="6.09343">
        <ele>393.6</ele>
        <time>2021-07-28T13:17:32Z</time>
      </trkpt>
      <trkpt lat="49.23433" lon="6.09342">
        <ele>393.6</ele>
        <time>2021-07-28T13:17:33Z</time>
      </trkpt>
      <trkpt lat="49.23432" lon="6.09342">
        <ele>393.6</ele>
        <time>2021-07-28T13:17:34Z</time>
      </trkpt>
      <trkpt lat="49.23429" lon="6.09341">
        <ele>393.6</ele>
        <time>2021-07-28T13:17:36Z</time>
      </trkpt>
      <trkpt lat="49.23428" lon="6.0934">
        <ele>393.5</ele>
        <time>2021-07-28T13:17:37Z</time>
      </trkpt>
      <trkpt lat="49.23426" lon="6.09339">
        <ele>393.5</ele>
        <time>2021-07-28T13:17:38Z</time>
      </trkpt>
      <trkpt lat="49.23426" lon="6.09338">
        <ele>393.5</ele>
        <time>2021-07-28T13:17:40Z</time>
      </trkpt>
      <trkpt lat="49.23425" lon="6.09336">
        <ele>393.5</ele>
        <time>2021-07-28T13:17:42Z</time>
      </trkpt>
      <trkpt lat="49.23421" lon="6.09334">
        <ele>393.4</ele>
        <time>2021-07-28T13:17:43Z</time>
      </trkpt>
      <trkpt lat="49.23419" lon="6.09336">
        <ele>393.3</ele>
        <time>2021-07-28T13:17:44Z</time>
      </trkpt>
      <trkpt lat="49.23415" lon="6.09337">
        <ele>393.2</ele>
        <time>2021-07-28T13:17:45Z</time>
      </trkpt>
      <trkpt lat="49.23401" lon="6.09342">
        <ele>392.8</ele>
        <time>2021-07-28T13:17:47Z</time>
      </trkpt>
      <trkpt lat="49.23398" lon="6.09344">
        <ele>392.8</ele>
        <time>2021-07-28T13:17:48Z</time>
      </trkpt>
      <trkpt lat="49.23398" lon="6.09344">
        <ele>392.8</ele>
        <time>2021-07-28T13:17:49Z</time>
      </trkpt>
      <trkpt lat="49.23396" lon="6.09346">
        <ele>392.7</ele>
        <time>2021-07-28T13:17:51Z</time>
      </trkpt>
      <trkpt lat="49.23394" lon="6.0935">
        <ele>392.7</ele>
        <time>2021-07-28T13:17:53Z</time>
      </trkpt>
      <trkpt lat="49.22812" lon="6.08466">
        <ele>390.1</ele>
        <time>2021-07-28T13:28:15Z</time>
      </trkpt>
      <trkpt lat="49.2281" lon="6.08462">
        <ele>390.3</ele>
        <time>2021-07-28T13:28:16Z</time>
      </trkpt>
      <trkpt lat="49.22807" lon="6.08458">
        <ele>390.3</ele>
        <time>2021-07-28T13:28:17Z</time>
      </trkpt>
      <trkpt lat="49.22805" lon="6.08453">
        <ele>390.4</ele>
        <time>2021-07-28T13:28:19Z</time>
      </trkpt>
      <trkpt lat="49.22804" lon="6.08441">
        <ele>390.5</ele>
        <time>2021-07-28T13:28:21Z</time>
      </trkpt>
      <trkpt lat="49.22803" lon="6.0844">
        <ele>390.6</ele>
        <time>2021-07-28T13:28:22Z</time>
      </trkpt>
      <trkpt lat="49.22802" lon="6.08439">
        <ele>390.6</ele>
        <time>2021-07-28T13:28:23Z</time>
      </trkpt>
      <trkpt lat="49.22801" lon="6.0844">
        <ele>390.6</ele>
        <time>2021-07-28T13:28:25Z</time>
      </trkpt>
      <trkpt lat="49.228" lon="6.0844">
        <ele>390.6</ele>
        <time>2021-07-28T13:28:27Z</time>
      </trkpt>
      <trkpt lat="49.22591" lon="6.08361">
        <ele>386.1</ele>
        <time>2021-07-28T13:30:19Z</time>
      </trkpt>
      <trkpt lat="49.22581" lon="6.08364">
        <ele>385.3</ele>
        <time>2021-07-28T13:30:21Z</time>
      </trkpt>
      <trkpt lat="49.22577" lon="6.08366">
        <ele>385.1</ele>
        <time>2021-07-28T13:30:22Z</time>
      </trkpt>
      <trkpt lat="49.22572" lon="6.08367">
        <ele>384.7</ele>
        <time>2021-07-28T13:30:24Z</time>
      </trkpt>
      <trkpt lat="49.2257" lon="6.08367">
        <ele>384.6</ele>
        <time>2021-07-28T13:30:25Z</time>
      </trkpt>
      <trkpt lat="49.22564" lon="6.08371">
        <ele>384.3</ele>
        <time>2021-07-28T13:30:27Z</time>
      </trkpt>
      <trkpt lat="49.22555" lon="6.08378">
        <ele>384</ele>
        <time>2021-07-28T13:30:29Z</time>
      </trkpt>
      <trkpt lat="49.22552" lon="6.08379">
        <ele>383.9</ele>
        <time>2021-07-28T13:30:30Z</time>
      </trkpt>
      <trkpt lat="49.22545" lon="6.08383">
        <ele>383.8</ele>
        <time>2021-07-28T13:30:32Z</time>
      </trkpt>
      <trkpt lat="49.22545" lon="6.08383">
        <ele>383.8</ele>
        <time>2021-07-28T13:30:32Z</time>
      </trkpt>
      <trkpt lat="49.22535" lon="6.08388">
        <ele>383.7</ele>
        <time>2021-07-28T13:30:34Z</time>
      </trkpt>
      <trkpt lat="49.22526" lon="6.08388">
        <ele>383.6</ele>
        <time>2021-07-28T13:30:36Z</time>
      </trkpt>
      <trkpt lat="49.22517" lon="6.08385">
        <ele>383.4</ele>
        <time>2021-07-28T13:30:38Z</time>
      </trkpt>
      <trkpt lat="49.22513" lon="6.08385">
        <ele>383.3</ele>
        <time>2021-07-28T13:30:39Z</time>
      </trkpt>
      <trkpt lat="49.22512" lon="6.08385">
        <ele>383.3</ele>
        <time>2021-07-28T13:30:40Z</time>
      </trkpt>
      <trkpt lat="49.22507" lon="6.0838">
        <ele>383.1</ele>
        <time>2021-07-28T13:30:42Z</time>
      </trkpt>
      <trkpt lat="49.22502" lon="6.08373">
        <ele>382.9</ele>
        <time>2021-07-28T13:30:44Z</time>
      </trkpt>
      <trkpt lat="49.225" lon="6.08372">
        <ele>382.8</ele>
        <time>2021-07-28T13:30:46Z</time>
      </trkpt>
      <trkpt lat="49.22499" lon="6.08371">
        <ele>382.8</ele>
        <time>2021-07-28T13:30:47Z</time>
      </trkpt>
      <trkpt lat="49.22498" lon="6.08371">
        <ele>382.7</ele>
        <time>2021-07-28T13:30:48Z</time>
      </trkpt>
      <trkpt lat="49.22492" lon="6.08369">
        <ele>382.5</ele>
        <time>2021-07-28T13:30:50Z</time>
      </trkpt>
      <trkpt lat="49.2249" lon="6.08368">
        <ele>382.5</ele>
        <time>2021-07-28T13:30:51Z</time>
      </trkpt>
      <trkpt lat="49.22487" lon="6.08367">
        <ele>382.4</ele>
        <time>2021-07-28T13:30:52Z</time>
      </trkpt>
      <trkpt lat="49.22484" lon="6.08362">
        <ele>382.3</ele>
        <time>2021-07-28T13:30:54Z</time>
      </trkpt>
      <trkpt lat="49.2248" lon="6.08359">
        <ele>382.2</ele>
        <time>2021-07-28T13:30:56Z</time>
      </trkpt>
      <trkpt lat="49.22478" lon="6.08357">
        <ele>382.2</ele>
        <time>2021-07-28T13:30:57Z</time>
      </trkpt>
      <trkpt lat="49.22476" lon="6.08353">
        <ele>382.1</ele>
        <time>2021-07-28T13:30:59Z</time>
      </trkpt>
      <trkpt lat="49.22475" lon="6.08351">
        <ele>382.1</ele>
        <time>2021-07-28T13:31:00Z</time>
      </trkpt>
      <trkpt lat="49.22474" lon="6.08349">
        <ele>382.1</ele>
        <time>2021-07-28T13:31:02Z</time>
      </trkpt>
      <trkpt lat="49.22474" lon="6.08348">
        <ele>382.1</ele>
        <time>2021-07-28T13:31:03Z</time>
      </trkpt>
      <trkpt lat="49.22473" lon="6.08345">
        <ele>382</ele>
        <time>2021-07-28T13:31:05Z</time>
      </trkpt>
      <trkpt lat="49.2247" lon="6.08344">
        <ele>382</ele>
        <time>2021-07-28T13:31:07Z</time>
      </trkpt>
      <trkpt lat="49.22464" lon="6.08339">
        <ele>381.8</ele>
        <time>2021-07-28T13:31:09Z</time>
      </trkpt>
      <trkpt lat="49.22457" lon="6.08328">
        <ele>381.4</ele>
        <time>2021-07-28T13:31:10Z</time>
      </trkpt>
      <trkpt lat="49.22453" lon="6.08322">
        <ele>381.1</ele>
        <time>2021-07-28T13:31:12Z</time>
      </trkpt>
      <trkpt lat="49.22445" lon="6.08305">
        <ele>380.2</ele>
        <time>2021-07-28T13:31:14Z</time>
      </trkpt>
      <trkpt lat="49.22441" lon="6.08296">
        <ele>379.8</ele>
        <time>2021-07-28T13:31:15Z</time>
      </trkpt>
      <trkpt lat="49.22435" lon="6.08277">
        <ele>379</ele>
        <time>2021-07-28T13:31:17Z</time>
      </trkpt>
      <trkpt lat="49.22433" lon="6.08269">
        <ele>378.8</ele>
        <time>2021-07-28T13:31:18Z</time>
      </trkpt>
      <trkpt lat="49.22432" lon="6.08259">
        <ele>378.6</ele>
        <time>2021-07-28T13:31:20Z</time>
      </trkpt>
      <trkpt lat="49.22431" lon="6.08247">
        <ele>378.4</ele>
        <time>2021-07-28T13:31:22Z</time>
      </trkpt>
      <trkpt lat="49.2243" lon="6.0824">
        <ele>378.4</ele>
        <time>2021-07-28T13:31:23Z</time>
      </trkpt>
      <trkpt lat="49.22429" lon="6.08234">
        <ele>378.4</ele>
        <time>2021-07-28T13:31:24Z</time>
      </trkpt>
      <trkpt lat="49.22426" lon="6.08226">
        <ele>378.4</ele>
        <time>2021-07-28T13:31:26Z</time>
      </trkpt>
      <trkpt lat="49.22424" lon="6.0822">
        <ele>378.5</ele>
        <time>2021-07-28T13:31:27Z</time>
      </trkpt>
      <trkpt lat="49.22419" lon="6.08203">
        <ele>377.8</ele>
        <time>2021-07-28T13:31:32Z</time>
      </trkpt>
      <trkpt lat="49.22418" lon="6.082">
        <ele>377.8</ele>
        <time>2021-07-28T13:31:33Z</time>
      </trkpt>
      <trkpt lat="49.22419" lon="6.08195">
        <ele>377.5</ele>
        <time>2021-07-28T13:31:35Z</time>
      </trkpt>
      <trkpt lat="49.22419" lon="6.08193">
        <ele>377.6</ele>
        <time>2021-07-28T13:31:36Z</time>
      </trkpt>
      <trkpt lat="49.2242" lon="6.0819">
        <ele>377.5</ele>
        <time>2021-07-28T13:31:37Z</time>
      </trkpt>
      <trkpt lat="49.22419" lon="6.08187">
        <ele>377.4</ele>
        <time>2021-07-28T13:31:39Z</time>
      </trkpt>
      <trkpt lat="49.22419" lon="6.08185">
        <ele>377.5</ele>
        <time>2021-07-28T13:31:40Z</time>
      </trkpt>
      <trkpt lat="49.22417" lon="6.08182">
        <ele>377.6</ele>
        <time>2021-07-28T13:31:42Z</time>
      </trkpt>
      <trkpt lat="49.22415" lon="6.08174">
        <ele>377.7</ele>
        <time>2021-07-28T13:31:43Z</time>
      </trkpt>
      <trkpt lat="49.22411" lon="6.0817">
        <ele>377.9</ele>
        <time>2021-07-28T13:31:44Z</time>
      </trkpt>
      <trkpt lat="49.22408" lon="6.08166">
        <ele>378.1</ele>
        <time>2021-07-28T13:31:45Z</time>
      </trkpt>
      <trkpt lat="49.22406" lon="6.08161">
        <ele>378.2</ele>
        <time>2021-07-28T13:31:47Z</time>
      </trkpt>
      <trkpt lat="49.22403" lon="6.08157">
        <ele>378.2</ele>
        <time>2021-07-28T13:31:48Z</time>
      </trkpt>
      <trkpt lat="49.22399" lon="6.08153">
        <ele>378.2</ele>
        <time>2021-07-28T13:31:50Z</time>
      </trkpt>
      <trkpt lat="49.22396" lon="6.0815">
        <ele>378.6</ele>
        <time>2021-07-28T13:31:51Z</time>
      </trkpt>
      <trkpt lat="49.22393" lon="6.08147">
        <ele>378.6</ele>
        <time>2021-07-28T13:31:53Z</time>
      </trkpt>
      <trkpt lat="49.2239" lon="6.08143">
        <ele>378.6</ele>
        <time>2021-07-28T13:31:54Z</time>
      </trkpt>
      <trkpt lat="49.22389" lon="6.08142">
        <ele>378.7</ele>
        <time>2021-07-28T13:31:55Z</time>
      </trkpt>
      <trkpt lat="49.22385" lon="6.08138">
        <ele>378.9</ele>
        <time>2021-07-28T13:31:57Z</time>
      </trkpt>
      <trkpt lat="49.22384" lon="6.08136">
        <ele>378.8</ele>
        <time>2021-07-28T13:31:58Z</time>
      </trkpt>
      <trkpt lat="49.22383" lon="6.08134">
        <ele>378.9</ele>
        <time>2021-07-28T13:31:59Z</time>
      </trkpt>
      <trkpt lat="49.22381" lon="6.0813">
        <ele>379</ele>
        <time>2021-07-28T13:32:01Z</time>
      </trkpt>
      <trkpt lat="49.2238" lon="6.08126">
        <ele>378.9</ele>
        <time>2021-07-28T13:32:02Z</time>
      </trkpt>
      <trkpt lat="49.22378" lon="6.08122">
        <ele>378.9</ele>
        <time>2021-07-28T13:32:03Z</time>
      </trkpt>
      <trkpt lat="49.22375" lon="6.08118">
        <ele>378.9</ele>
        <time>2021-07-28T13:32:05Z</time>
      </trkpt>
      <trkpt lat="49.22373" lon="6.08116">
        <ele>379.1</ele>
        <time>2021-07-28T13:32:06Z</time>
      </trkpt>
      <trkpt lat="49.2237" lon="6.08113">
        <ele>379</ele>
        <time>2021-07-28T13:32:08Z</time>
      </trkpt>
      <trkpt lat="49.22366" lon="6.08111">
        <ele>379.2</ele>
        <time>2021-07-28T13:32:09Z</time>
      </trkpt>
      <trkpt lat="49.22362" lon="6.08108">
        <ele>379.1</ele>
        <time>2021-07-28T13:32:10Z</time>
      </trkpt>
      <trkpt lat="49.22358" lon="6.08105">
        <ele>379.1</ele>
        <time>2021-07-28T13:32:11Z</time>
      </trkpt>
      <trkpt lat="49.22354" lon="6.08103">
        <ele>379.4</ele>
        <time>2021-07-28T13:32:13Z</time>
      </trkpt>
      <trkpt lat="49.22351" lon="6.081">
        <ele>379.3</ele>
        <time>2021-07-28T13:32:14Z</time>
      </trkpt>
      <trkpt lat="49.22349" lon="6.08097">
        <ele>379.2</ele>
        <time>2021-07-28T13:32:15Z</time>
      </trkpt>
      <trkpt lat="49.22346" lon="6.08093">
        <ele>379.4</ele>
        <time>2021-07-28T13:32:17Z</time>
      </trkpt>
      <trkpt lat="49.22342" lon="6.0809">
        <ele>379.4</ele>
        <time>2021-07-28T13:32:18Z</time>
      </trkpt>
      <trkpt lat="49.22339" lon="6.08088">
        <ele>379.3</ele>
        <time>2021-07-28T13:32:19Z</time>
      </trkpt>
      <trkpt lat="49.22336" lon="6.08086">
        <ele>379.4</ele>
        <time>2021-07-28T13:32:21Z</time>
      </trkpt>
      <trkpt lat="49.22335" lon="6.08085">
        <ele>379.5</ele>
        <time>2021-07-28T13:32:22Z</time>
      </trkpt>
      <trkpt lat="49.22334" lon="6.08084">
        <ele>379.5</ele>
        <time>2021-07-28T13:32:24Z</time>
      </trkpt>
      <trkpt lat="49.22334" lon="6.08084">
        <ele>379.6</ele>
        <time>2021-07-28T13:32:25Z</time>
      </trkpt>
      <trkpt lat="49.22334" lon="6.08084">
        <ele>379.7</ele>
        <time>2021-07-28T13:32:26Z</time>
      </trkpt>
      <trkpt lat="49.22334" lon="6.08084">
        <ele>379.8</ele>
        <time>2021-07-28T13:32:28Z</time>
      </trkpt>
      <trkpt lat="49.22333" lon="6.08085">
        <ele>380</ele>
        <time>2021-07-28T13:32:29Z</time>
      </trkpt>
      <trkpt lat="49.22316" lon="6.08112">
        <ele>381.6</ele>
        <time>2021-07-28T13:32:36Z</time>
      </trkpt>
      <trkpt lat="49.22311" lon="6.08113">
        <ele>381.8</ele>
        <time>2021-07-28T13:32:38Z</time>
      </trkpt>
      <trkpt lat="49.22308" lon="6.08114">
        <ele>381.9</ele>
        <time>2021-07-28T13:32:39Z</time>
      </trkpt>
      <trkpt lat="49.22301" lon="6.08114">
        <ele>382.1</ele>
        <time>2021-07-28T13:32:41Z</time>
      </trkpt>
      <trkpt lat="49.22297" lon="6.08115">
        <ele>382.5</ele>
        <time>2021-07-28T13:32:42Z</time>
      </trkpt>
      <trkpt lat="49.22289" lon="6.08116">
        <ele>382.7</ele>
        <time>2021-07-28T13:32:44Z</time>
      </trkpt>
      <trkpt lat="49.22282" lon="6.08118">
        <ele>382.8</ele>
        <time>2021-07-28T13:32:45Z</time>
      </trkpt>
      <trkpt lat="49.2228" lon="6.08118">
        <ele>383</ele>
        <time>2021-07-28T13:32:46Z</time>
      </trkpt>
      <trkpt lat="49.22277" lon="6.08118">
        <ele>383.1</ele>
        <time>2021-07-28T13:32:48Z</time>
      </trkpt>
      <trkpt lat="49.22274" lon="6.08118">
        <ele>383.2</ele>
        <time>2021-07-28T13:32:50Z</time>
      </trkpt>
      <trkpt lat="49.22272" lon="6.08117">
        <ele>383.4</ele>
        <time>2021-07-28T13:32:51Z</time>
      </trkpt>
      <trkpt lat="49.22209" lon="6.08094">
        <ele>382.8</ele>
        <time>2021-07-28T13:33:20Z</time>
      </trkpt>
      <trkpt lat="49.22204" lon="6.08086">
        <ele>382.5</ele>
        <time>2021-07-28T13:33:22Z</time>
      </trkpt>
      <trkpt lat="49.22203" lon="6.08081">
        <ele>382.4</ele>
        <time>2021-07-28T13:33:23Z</time>
      </trkpt>
      <trkpt lat="49.22202" lon="6.08078">
        <ele>382.3</ele>
        <time>2021-07-28T13:33:24Z</time>
      </trkpt>
      <trkpt lat="49.22201" lon="6.08076">
        <ele>382.3</ele>
        <time>2021-07-28T13:33:25Z</time>
      </trkpt>
      <trkpt lat="49.22201" lon="6.08072">
        <ele>382.4</ele>
        <time>2021-07-28T13:33:27Z</time>
      </trkpt>
      <trkpt lat="49.222" lon="6.0807">
        <ele>382.4</ele>
        <time>2021-07-28T13:33:28Z</time>
      </trkpt>
      <trkpt lat="49.222" lon="6.08069">
        <ele>382.5</ele>
        <time>2021-07-28T13:33:30Z</time>
      </trkpt>
      <trkpt lat="49.222" lon="6.08069">
        <ele>382.6</ele>
        <time>2021-07-28T13:33:31Z</time>
      </trkpt>
      <trkpt lat="49.22201" lon="6.08068">
        <ele>382.7</ele>
        <time>2021-07-28T13:33:33Z</time>
      </trkpt>
      <trkpt lat="49.22201" lon="6.08067">
        <ele>382.6</ele>
        <time>2021-07-28T13:33:34Z</time>
      </trkpt>
      <trkpt lat="49.22202" lon="6.08065">
        <ele>382.7</ele>
        <time>2021-07-28T13:33:36Z</time>
      </trkpt>
      <trkpt lat="49.22202" lon="6.08064">
        <ele>382.8</ele>
        <time>2021-07-28T13:33:37Z</time>
      </trkpt>
      <trkpt lat="49.21603" lon="6.07029">
        <ele>368.2</ele>
        <time>2021-07-28T13:43:36Z</time>
      </trkpt>
      <trkpt lat="49.21605" lon="6.07033">
        <ele>368.3</ele>
        <time>2021-07-28T13:43:37Z</time>
      </trkpt>
      <trkpt lat="49.2161" lon="6.07042">
        <ele>368.7</ele>
        <time>2021-07-28T13:43:38Z</time>
      </trkpt>
      <trkpt lat="49.21615" lon="6.07049">
        <ele>368.9</ele>
        <time>2021-07-28T13:43:40Z</time>
      </trkpt>
      <trkpt lat="49.21619" lon="6.07051">
        <ele>369.1</ele>
        <time>2021-07-28T13:43:42Z</time>
      </trkpt>
      <trkpt lat="49.2162" lon="6.07053">
        <ele>369.2</ele>
        <time>2021-07-28T13:43:44Z</time>
      </trkpt>
      <trkpt lat="49.21621" lon="6.07054">
        <ele>369.3</ele>
        <time>2021-07-28T13:43:45Z</time>
      </trkpt>
      <trkpt lat="49.21621" lon="6.07051">
        <ele>369.4</ele>
        <time>2021-07-28T13:43:47Z</time>
      </trkpt>
      <trkpt lat="49.2162" lon="6.07047">
        <ele>369.4</ele>
        <time>2021-07-28T13:43:49Z</time>
      </trkpt>
      <trkpt lat="49.21618" lon="6.07045">
        <ele>369.4</ele>
        <time>2021-07-28T13:43:51Z</time>
      </trkpt>
      <trkpt lat="49.21617" lon="6.07045">
        <ele>369.5</ele>
        <time>2021-07-28T13:43:52Z</time>
      </trkpt>
      <trkpt lat="49.21614" lon="6.07041">
        <ele>369.5</ele>
        <time>2021-07-28T13:43:54Z</time>
      </trkpt>
      <trkpt lat="49.21612" lon="6.07039">
        <ele>369.6</ele>
        <time>2021-07-28T13:43:55Z</time>
      </trkpt>
      <trkpt lat="49.21598" lon="6.07025">
        <ele>369.3</ele>
        <time>2021-07-28T13:44:07Z</time>
      </trkpt>
      <trkpt lat="49.21594" lon="6.07023">
        <ele>369.4</ele>
        <time>2021-07-28T13:44:08Z</time>
      </trkpt>
      <trkpt lat="49.21588" lon="6.07019">
        <ele>369.5</ele>
        <time>2021-07-28T13:44:10Z</time>
      </trkpt>
      <trkpt lat="49.21585" lon="6.07014">
        <ele>369.6</ele>
        <time>2021-07-28T13:44:12Z</time>
      </trkpt>
      <trkpt lat="49.2158" lon="6.07008">
        <ele>369.8</ele>
        <time>2021-07-28T13:44:14Z</time>
      </trkpt>
      <trkpt lat="49.21577" lon="6.07004">
        <ele>369.9</ele>
        <time>2021-07-28T13:44:16Z</time>
      </trkpt>
      <trkpt lat="49.21574" lon="6.07002">
        <ele>370</ele>
        <time>2021-07-28T13:44:17Z</time>
      </trkpt>
      <trkpt lat="49.21573" lon="6.07001">
        <ele>370.1</ele>
        <time>2021-07-28T13:44:18Z</time>
      </trkpt>
      <trkpt lat="49.2157" lon="6.06999">
        <ele>370.1</ele>
        <time>2021-07-28T13:44:20Z</time>
      </trkpt>
      <trkpt lat="49.21569" lon="6.06999">
        <ele>370.2</ele>
        <time>2021-07-28T13:44:21Z</time>
      </trkpt>
      <trkpt lat="49.21568" lon="6.07001">
        <ele>370.2</ele>
        <time>2021-07-28T13:44:22Z</time>
      </trkpt>
      <trkpt lat="49.21566" lon="6.07003">
        <ele>370.3</ele>
        <time>2021-07-28T13:44:23Z</time>
      </trkpt>
      <trkpt lat="49.21564" lon="6.07008">
        <ele>370.4</ele>
        <time>2021-07-28T13:44:25Z</time>
      </trkpt>
      <trkpt lat="49.21399" lon="6.07185">
        <ele>364.3</ele>
        <time>2021-07-28T13:45:23Z</time>
      </trkpt>
      <trkpt lat="49.21395" lon="6.07188">
        <ele>364</ele>
        <time>2021-07-28T13:45:24Z</time>
      </trkpt>
      <trkpt lat="49.21383" lon="6.07199">
        <ele>363.1</ele>
        <time>2021-07-28T13:45:26Z</time>
      </trkpt>
      <trkpt lat="49.21381" lon="6.07201">
        <ele>362.9</ele>
        <time>2021-07-28T13:45:27Z</time>
      </trkpt>
      <trkpt lat="49.21377" lon="6.07204">
        <ele>362.6</ele>
        <time>2021-07-28T13:45:28Z</time>
      </trkpt>
      <trkpt lat="49.21373" lon="6.07208">
        <ele>362.3</ele>
        <time>2021-07-28T13:45:29Z</time>
      </trkpt>
      <trkpt lat="49.21368" lon="6.07212">
        <ele>361.9</ele>
        <time>2021-07-28T13:45:30Z</time>
      </trkpt>
      <trkpt lat="49.21364" lon="6.07216">
        <ele>361.6</ele>
        <time>2021-07-28T13:45:32Z</time>
      </trkpt>
      <trkpt lat="49.2136" lon="6.07221">
        <ele>361.3</ele>
        <time>2021-07-28T13:45:34Z</time>
      </trkpt>
      <trkpt lat="49.21357" lon="6.07224">
        <ele>361.1</ele>
        <time>2021-07-28T13:45:35Z</time>
      </trkpt>
      <trkpt lat="49.21349" lon="6.0723">
        <ele>360.6</ele>
        <time>2021-07-28T13:45:37Z</time>
      </trkpt>
      <trkpt lat="49.21344" lon="6.07233">
        <ele>360.2</ele>
        <time>2021-07-28T13:45:38Z</time>
      </trkpt>
      <trkpt lat="49.21339" lon="6.07237">
        <ele>359.9</ele>
        <time>2021-07-28T13:45:39Z</time>
      </trkpt>
      <trkpt lat="49.21335" lon="6.07242">
        <ele>359.6</ele>
        <time>2021-07-28T13:45:40Z</time>
      </trkpt>
      <trkpt lat="49.21068" lon="6.06939">
        <ele>347.6</ele>
        <time>2021-07-28T13:47:10Z</time>
      </trkpt>
      <trkpt lat="49.21065" lon="6.06933">
        <ele>347.4</ele>
        <time>2021-07-28T13:47:11Z</time>
      </trkpt>
      <trkpt lat="49.21062" lon="6.06926">
        <ele>347.2</ele>
        <time>2021-07-28T13:47:12Z</time>
      </trkpt>
      <trkpt lat="49.2106" lon="6.0692">
        <ele>347</ele>
        <time>2021-07-28T13:47:13Z</time>
      </trkpt>
      <trkpt lat="49.21057" lon="6.06914">
        <ele>346.9</ele>
        <time>2021-07-28T13:47:14Z</time>
      </trkpt>
      <trkpt lat="49.21054" lon="6.06908">
        <ele>346.6</ele>
        <time>2021-07-28T13:47:16Z</time>
      </trkpt>
      <trkpt lat="49.2105" lon="6.06902">
        <ele>346.4</ele>
        <time>2021-07-28T13:47:17Z</time>
      </trkpt>
      <trkpt lat="49.21047" lon="6.06898">
        <ele>346.3</ele>
        <time>2021-07-28T13:47:18Z</time>
      </trkpt>
      <trkpt lat="49.21044" lon="6.06894">
        <ele>346.1</ele>
        <time>2021-07-28T13:47:20Z</time>
      </trkpt>
      <trkpt lat="49.21043" lon="6.06893">
        <ele>346.1</ele>
        <time>2021-07-28T13:47:21Z</time>
      </trkpt>
      <trkpt lat="49.21042" lon="6.06894">
        <ele>346</ele>
        <time>2021-07-28T13:47:22Z</time>
      </trkpt>
      <trkpt lat="49.21042" lon="6.06894">
        <ele>346</ele>
        <time>2021-07-28T13:47:23Z</time>
      </trkpt>
      <trkpt lat="49.21042" lon="6.06894">
        <ele>346</ele>
        <time>2021-07-28T13:47:25Z</time>
      </trkpt>
      <trkpt lat="49.21042" lon="6.06895">
        <ele>346</ele>
        <time>2021-07-28T13:47:26Z</time>
      </trkpt>
      <trkpt lat="49.21042" lon="6.06895">
        <ele>346</ele>
        <time>2021-07-28T13:47:28Z</time>
      </trkpt>
      <trkpt lat="49.21042" lon="6.06896">
        <ele>346</ele>
        <time>2021-07-28T13:47:29Z</time>
      </trkpt>
      <trkpt lat="49.21042" lon="6.06896">
        <ele>346</ele>
        <time>2021-07-28T13:47:30Z</time>
      </trkpt>
      <trkpt lat="49.20402" lon="6.08559">
        <ele>241.2</ele>
        <time>2021-07-28T13:56:41Z</time>
      </trkpt>
      <trkpt lat="49.20399" lon="6.08565">
        <ele>240.9</ele>
        <time>2021-07-28T13:56:42Z</time>
      </trkpt>
      <trkpt lat="49.20391" lon="6.08576">
        <ele>240.5</ele>
        <time>2021-07-28T13:56:43Z</time>
      </trkpt>
      <trkpt lat="49.20381" lon="6.08591">
        <ele>240.1</ele>
        <time>2021-07-28T13:56:45Z</time>
      </trkpt>
      <trkpt lat="49.20377" lon="6.08597">
        <ele>239.9</ele>
        <time>2021-07-28T13:56:46Z</time>
      </trkpt>
      <trkpt lat="49.20374" lon="6.086">
        <ele>239.9</ele>
        <time>2021-07-28T13:56:47Z</time>
      </trkpt>
      <trkpt lat="49.20367" lon="6.08611">
        <ele>239.8</ele>
        <time>2021-07-28T13:56:48Z</time>
      </trkpt>
      <trkpt lat="49.20359" lon="6.08624">
        <ele>239.6</ele>
        <time>2021-07-28T13:56:50Z</time>
      </trkpt>
      <trkpt lat="49.20355" lon="6.0863">
        <ele>239.6</ele>
        <time>2021-07-28T13:56:51Z</time>
      </trkpt>
      <trkpt lat="49.20354" lon="6.08633">
        <ele>239.6</ele>
        <time>2021-07-28T13:56:52Z</time>
      </trkpt>
      <trkpt lat="49.20348" lon="6.08642">
        <ele>239.5</ele>
        <time>2021-07-28T13:56:53Z</time>
      </trkpt>
      <trkpt lat="49.20343" lon="6.0865">
        <ele>239.4</ele>
        <time>2021-07-28T13:56:55Z</time>
      </trkpt>
      <trkpt lat="49.20334" lon="6.08663">
        <ele>239.3</ele>
        <time>2021-07-28T13:56:57Z</time>
      </trkpt>
      <trkpt lat="49.20325" lon="6.08674">
        <ele>239.2</ele>
        <time>2021-07-28T13:56:58Z</time>
      </trkpt>
      <trkpt lat="49.20318" lon="6.08682">
        <ele>239</ele>
        <time>2021-07-28T13:56:59Z</time>
      </trkpt>
      <trkpt lat="49.20305" lon="6.08701">
        <ele>238.6</ele>
        <time>2021-07-28T13:57:01Z</time>
      </trkpt>
      <trkpt lat="49.20297" lon="6.08709">
        <ele>238.4</ele>
        <time>2021-07-28T13:57:03Z</time>
      </trkpt>
      <trkpt lat="49.20294" lon="6.08713">
        <ele>238.3</ele>
        <time>2021-07-28T13:57:04Z</time>
      </trkpt>
      <trkpt lat="49.2029" lon="6.08718">
        <ele>238.1</ele>
        <time>2021-07-28T13:57:05Z</time>
      </trkpt>
      <trkpt lat="49.20287" lon="6.08723">
        <ele>238</ele>
        <time>2021-07-28T13:57:06Z</time>
      </trkpt>
      <trkpt lat="49.20282" lon="6.08736">
        <ele>237.8</ele>
        <time>2021-07-28T13:57:08Z</time>
      </trkpt>
      <trkpt lat="49.20275" lon="6.08754">
        <ele>237.3</ele>
        <time>2021-07-28T13:57:10Z</time>
      </trkpt>
      <trkpt lat="49.20272" lon="6.08763">
        <ele>237.1</ele>
        <time>2021-07-28T13:57:11Z</time>
      </trkpt>
      <trkpt lat="49.20267" lon="6.08783">
        <ele>236.6</ele>
        <time>2021-07-28T13:57:13Z</time>
      </trkpt>
      <trkpt lat="49.20265" lon="6.08793">
        <ele>236.4</ele>
        <time>2021-07-28T13:57:14Z</time>
      </trkpt>
      <trkpt lat="49.2026" lon="6.08814">
        <ele>235.8</ele>
        <time>2021-07-28T13:57:16Z</time>
      </trkpt>
      <trkpt lat="49.20257" lon="6.08824">
        <ele>235.4</ele>
        <time>2021-07-28T13:57:17Z</time>
      </trkpt>
      <trkpt lat="49.20255" lon="6.08834">
        <ele>234.9</ele>
        <time>2021-07-28T13:57:18Z</time>
      </trkpt>
      <trkpt lat="49.20251" lon="6.08853">
        <ele>234</ele>
        <time>2021-07-28T13:57:20Z</time>
      </trkpt>
      <trkpt lat="49.20248" lon="6.08867">
        <ele>233.2</ele>
        <time>2021-07-28T13:57:22Z</time>
      </trkpt>
      <trkpt lat="49.20245" lon="6.0888">
        <ele>232.5</ele>
        <time>2021-07-28T13:57:24Z</time>
      </trkpt>
      <trkpt lat="49.20244" lon="6.08886">
        <ele>232.2</ele>
        <time>2021-07-28T13:57:25Z</time>
      </trkpt>
      <trkpt lat="49.20243" lon="6.0889">
        <ele>231.9</ele>
        <time>2021-07-28T13:57:26Z</time>
      </trkpt>
      <trkpt lat="49.20242" lon="6.08893">
        <ele>231.8</ele>
        <time>2021-07-28T13:57:27Z</time>
      </trkpt>
      <trkpt lat="49.20241" lon="6.089">
        <ele>231.4</ele>
        <time>2021-07-28T13:57:28Z</time>
      </trkpt>
      <trkpt lat="49.20242" lon="6.08909">
        <ele>230.9</ele>
        <time>2021-07-28T13:57:29Z</time>
      </trkpt>
      <trkpt lat="49.20243" lon="6.0892">
        <ele>230.2</ele>
        <time>2021-07-28T13:57:30Z</time>
      </trkpt>
      <trkpt lat="49.20244" lon="6.08927">
        <ele>229.8</ele>
        <time>2021-07-28T13:57:31Z</time>
      </trkpt>
      <trkpt lat="49.20244" lon="6.08937">
        <ele>229.1</ele>
        <time>2021-07-28T13:57:33Z</time>
      </trkpt>
      <trkpt lat="49.20243" lon="6.08949">
        <ele>228.6</ele>
        <time>2021-07-28T13:57:35Z</time>
      </trkpt>
      <trkpt lat="49.20244" lon="6.08958">
        <ele>228.2</ele>
        <time>2021-07-28T13:57:36Z</time>
      </trkpt>
      <trkpt lat="49.20246" lon="6.0896">
        <ele>228.1</ele>
        <time>2021-07-28T13:57:37Z</time>
      </trkpt>
      <trkpt lat="49.20246" lon="6.08969">
        <ele>227.7</ele>
        <time>2021-07-28T13:57:39Z</time>
      </trkpt>
      <trkpt lat="49.20247" lon="6.08978">
        <ele>226.2</ele>
        <time>2021-07-28T13:57:40Z</time>
      </trkpt>
      <trkpt lat="49.20249" lon="6.08989">
        <ele>225.2</ele>
        <time>2021-07-28T13:57:41Z</time>
      </trkpt>
      <trkpt lat="49.2025" lon="6.08998">
        <ele>224.3</ele>
        <time>2021-07-28T13:57:43Z</time>
      </trkpt>
      <trkpt lat="49.2025" lon="6.09003">
        <ele>223.8</ele>
        <time>2021-07-28T13:57:44Z</time>
      </trkpt>
      <trkpt lat="49.2025" lon="6.09018">
        <ele>222.1</ele>
        <time>2021-07-28T13:57:45Z</time>
      </trkpt>
      <trkpt lat="49.2025" lon="6.09026">
        <ele>221</ele>
        <time>2021-07-28T13:57:47Z</time>
      </trkpt>
      <trkpt lat="49.20224" lon="6.09176">
        <ele>216.3</ele>
        <time>2021-07-28T13:58:07Z</time>
      </trkpt>
      <trkpt lat="49.20217" lon="6.09194">
        <ele>216.1</ele>
        <time>2021-07-28T13:58:09Z</time>
      </trkpt>
      <trkpt lat="49.20214" lon="6.092">
        <ele>216</ele>
        <time>2021-07-28T13:58:10Z</time>
      </trkpt>
      <trkpt lat="49.20207" lon="6.09215">
        <ele>215.8</ele>
        <time>2021-07-28T13:58:12Z</time>
      </trkpt>
      <trkpt lat="49.20204" lon="6.09221">
        <ele>215.7</ele>
        <time>2021-07-28T13:58:13Z</time>
      </trkpt>
      <trkpt lat="49.202" lon="6.09227">
        <ele>215.6</ele>
        <time>2021-07-28T13:58:14Z</time>
      </trkpt>
      <trkpt lat="49.202" lon="6.09227">
        <ele>215.6</ele>
        <time>2021-07-28T13:58:15Z</time>
      </trkpt>
      <trkpt lat="49.202" lon="6.09224">
        <ele>215.6</ele>
        <time>2021-07-28T13:58:16Z</time>
      </trkpt>
      <trkpt lat="49.20199" lon="6.09218">
        <ele>215.6</ele>
        <time>2021-07-28T13:58:18Z</time>
      </trkpt>
      <trkpt lat="49.20198" lon="6.09214">
        <ele>215.5</ele>
        <time>2021-07-28T13:58:19Z</time>
      </trkpt>
      <trkpt lat="49.20197" lon="6.09211">
        <ele>215.5</ele>
        <time>2021-07-28T13:58:20Z</time>
      </trkpt>
      <trkpt lat="49.20198" lon="6.09207">
        <ele>215.4</ele>
        <time>2021-07-28T13:58:22Z</time>
      </trkpt>
      <trkpt lat="49.20198" lon="6.09206">
        <ele>215.4</ele>
        <time>2021-07-28T13:58:23Z</time>
      </trkpt>
      <trkpt lat="49.20198" lon="6.09206">
        <ele>215.4</ele>
        <time>2021-07-28T13:58:24Z</time>
      </trkpt>
      <trkpt lat="49.1999" lon="6.09255">
        <ele>216.8</ele>
        <time>2021-07-28T14:00:12Z</time>
      </trkpt>
      <trkpt lat="49.19988" lon="6.09264">
        <ele>217.2</ele>
        <time>2021-07-28T14:00:13Z</time>
      </trkpt>
      <trkpt lat="49.19987" lon="6.09269">
        <ele>217.4</ele>
        <time>2021-07-28T14:00:14Z</time>
      </trkpt>
      <trkpt lat="49.19986" lon="6.09274">
        <ele>217.7</ele>
        <time>2021-07-28T14:00:15Z</time>
      </trkpt>
      <trkpt lat="49.19986" lon="6.09276">
        <ele>217.7</ele>
        <time>2021-07-28T14:00:16Z</time>
      </trkpt>
      <trkpt lat="49.19986" lon="6.09278">
        <ele>217.8</ele>
        <time>2021-07-28T14:00:17Z</time>
      </trkpt>
      <trkpt lat="49.19987" lon="6.09279">
        <ele>217.9</ele>
        <time>2021-07-28T14:00:18Z</time>
      </trkpt>
      <trkpt lat="49.19987" lon="6.09281">
        <ele>218</ele>
        <time>2021-07-28T14:00:20Z</time>
      </trkpt>
      <trkpt lat="49.19987" lon="6.09282">
        <ele>218.1</ele>
        <time>2021-07-28T14:00:21Z</time>
      </trkpt>
      <trkpt lat="49.19987" lon="6.09283">
        <ele>218.1</ele>
        <time>2021-07-28T14:00:22Z</time>
      </trkpt>
      <trkpt lat="49.19987" lon="6.09283">
        <ele>218.1</ele>
        <time>2021-07-28T14:00:24Z</time>
      </trkpt>
      <trkpt lat="49.19986" lon="6.09285">
        <ele>218.2</ele>
        <time>2021-07-28T14:00:25Z</time>
      </trkpt>
      <trkpt lat="49.19985" lon="6.09289">
        <ele>218.4</ele>
        <time>2021-07-28T14:00:26Z</time>
      </trkpt>
      <trkpt lat="49.19916" lon="6.09368">
        <ele>227.7</ele>
        <time>2021-07-28T14:01:48Z</time>
      </trkpt>
      <trkpt lat="49.19914" lon="6.09369">
        <ele>227.9</ele>
        <time>2021-07-28T14:01:49Z</time>
      </trkpt>
      <trkpt lat="49.19911" lon="6.0937">
        <ele>228.2</ele>
        <time>2021-07-28T14:01:51Z</time>
      </trkpt>
      <trkpt lat="49.19911" lon="6.0937">
        <ele>228.3</ele>
        <time>2021-07-28T14:01:52Z</time>
      </trkpt>
      <trkpt lat="49.1991" lon="6.0937">
        <ele>228.4</ele>
        <time>2021-07-28T14:01:53Z</time>
      </trkpt>
      <trkpt lat="49.1991" lon="6.0937">
        <ele>228.4</ele>
        <time>2021-07-28T14:01:54Z</time>
      </trkpt>
      <trkpt lat="49.1991" lon="6.0937">
        <ele>228.4</ele>
        <time>2021-07-28T14:01:55Z</time>
      </trkpt>
      <trkpt lat="49.1991" lon="6.09371">
        <ele>228.5</ele>
        <time>2021-07-28T14:01:57Z</time>
      </trkpt>
      <trkpt lat="49.1991" lon="6.09371">
        <ele>228.5</ele>
        <time>2021-07-28T14:01:59Z</time>
      </trkpt>
      <trkpt lat="49.1991" lon="6.0937">
        <ele>228.5</ele>
        <time>2021-07-28T14:02:01Z</time>
      </trkpt>
      <trkpt lat="49.1991" lon="6.0937">
        <ele>228.5</ele>
        <time>2021-07-28T14:02:02Z</time>
      </trkpt>
      <trkpt lat="49.1991" lon="6.0937">
        <ele>228.5</ele>
        <time>2021-07-28T14:02:04Z</time>
      </trkpt>
      <trkpt lat="49.19877" lon="6.09375">
        <ele>232.3</ele>
        <time>2021-07-28T14:03:53Z</time>
      </trkpt>
      <trkpt lat="49.19874" lon="6.09377">
        <ele>232.6</ele>
        <time>2021-07-28T14:03:54Z</time>
      </trkpt>
      <trkpt lat="49.19871" lon="6.0938">
        <ele>232.9</ele>
        <time>2021-07-28T14:03:55Z</time>
      </trkpt>
      <trkpt lat="49.19869" lon="6.09383">
        <ele>233.1</ele>
        <time>2021-07-28T14:03:56Z</time>
      </trkpt>
      <trkpt lat="49.19865" lon="6.09386">
        <ele>233.4</ele>
        <time>2021-07-28T14:03:57Z</time>
      </trkpt>
      <trkpt lat="49.19864" lon="6.09387">
        <ele>233.5</ele>
        <time>2021-07-28T14:03:58Z</time>
      </trkpt>
      <trkpt lat="49.19861" lon="6.09389">
        <ele>233.7</ele>
        <time>2021-07-28T14:04:00Z</time>
      </trkpt>
      <trkpt lat="49.1986" lon="6.0939">
        <ele>233.8</ele>
        <time>2021-07-28T14:04:01Z</time>
      </trkpt>
      <trkpt lat="49.19858" lon="6.0939">
        <ele>233.9</ele>
        <time>2021-07-28T14:04:02Z</time>
      </trkpt>
      <trkpt lat="49.19857" lon="6.09391">
        <ele>234</ele>
        <time>2021-07-28T14:04:03Z</time>
      </trkpt>
      <trkpt lat="49.19856" lon="6.09392">
        <ele>234.1</ele>
        <time>2021-07-28T14:04:05Z</time>
      </trkpt>
      <trkpt lat="49.19855" lon="6.09393">
        <ele>234.2</ele>
        <time>2021-07-28T14:04:06Z</time>
      </trkpt>
      <trkpt lat="49.19852" lon="6.09394">
        <ele>234.4</ele>
        <time>2021-07-28T14:04:08Z</time>
      </trkpt>
      <trkpt lat="49.19851" lon="6.09397">
        <ele>234.5</ele>
        <time>2021-07-28T14:04:10Z</time>
      </trkpt>
      <trkpt lat="49.19852" lon="6.094">
        <ele>234.7</ele>
        <time>2021-07-28T14:04:12Z</time>
      </trkpt>
      <trkpt lat="49.19853" lon="6.09401">
        <ele>234.7</ele>
        <time>2021-07-28T14:04:14Z</time>
      </trkpt>
      <trkpt lat="49.19853" lon="6.09401">
        <ele>234.7</ele>
        <time>2021-07-28T14:04:15Z</time>
      </trkpt>
      <trkpt lat="49.19853" lon="6.09402">
        <ele>234.8</ele>
        <time>2021-07-28T14:04:16Z</time>
      </trkpt>
      <trkpt lat="49.19853" lon="6.09402">
        <ele>234.8</ele>
        <time>2021-07-28T14:04:17Z</time>
      </trkpt>
      <trkpt lat="49.19852" lon="6.09402">
        <ele>234.8</ele>
        <time>2021-07-28T14:04:19Z</time>
      </trkpt>
      <trkpt lat="49.19791" lon="6.09477">
        <ele>242.9</ele>
        <time>2021-07-28T14:05:40Z</time>
      </trkpt>
      <trkpt lat="49.19789" lon="6.09477">
        <ele>243.1</ele>
        <time>2021-07-28T14:05:42Z</time>
      </trkpt>
      <trkpt lat="49.19788" lon="6.09476">
        <ele>243.2</ele>
        <time>2021-07-28T14:05:43Z</time>
      </trkpt>
      <trkpt lat="49.19788" lon="6.09475">
        <ele>243.2</ele>
        <time>2021-07-28T14:05:45Z</time>
      </trkpt>
      <trkpt lat="49.19788" lon="6.09475">
        <ele>243.3</ele>
        <time>2021-07-28T14:05:46Z</time>
      </trkpt>
      <trkpt lat="49.19788" lon="6.09475">
        <ele>243.3</ele>
        <time>2021-07-28T14:05:47Z</time>
      </trkpt>
      <trkpt lat="49.19788" lon="6.09475">
        <ele>243.3</ele>
        <time>2021-07-28T14:05:48Z</time>
      </trkpt>
      <trkpt lat="49.19787" lon="6.09475">
        <ele>243.3</ele>
        <time>2021-07-28T14:05:50Z</time>
      </trkpt>
      <trkpt lat="49.19787" lon="6.09475">
        <ele>243.3</ele>
        <time>2021-07-28T14:05:52Z</time>
      </trkpt>
      <trkpt lat="49.19787" lon="6.09475">
        <ele>243.3</ele>
        <time>2021-07-28T14:05:53Z</time>
      </trkpt>
      <trkpt lat="49.19787" lon="6.09475">
        <ele>243.3</ele>
        <time>2021-07-28T14:05:54Z</time>
      </trkpt>
      <trkpt lat="49.19787" lon="6.09475">
        <ele>243.3</ele>
        <time>2021-07-28T14:05:55Z</time>
      </trkpt>
      <trkpt lat="49.19787" lon="6.09475">
        <ele>243.4</ele>
        <time>2021-07-28T14:05:57Z</time>
      </trkpt>
      <trkpt lat="49.19787" lon="6.09476">
        <ele>243.4</ele>
        <time>2021-07-28T14:05:59Z</time>
      </trkpt>
      <trkpt lat="49.19787" lon="6.09476">
        <ele>243.4</ele>
        <time>2021-07-28T14:06:00Z</time>
      </trkpt>
      <trkpt lat="49.19787" lon="6.09476">
        <ele>243.4</ele>
        <time>2021-07-28T14:06:01Z</time>
      </trkpt>
      <trkpt lat="49.19787" lon="6.09476">
        <ele>243.4</ele>
        <time>2021-07-28T14:06:03Z</time>
      </trkpt>
      <trkpt lat="49.19787" lon="6.09476">
        <ele>243.4</ele>
        <time>2021-07-28T14:06:05Z</time>
      </trkpt>
      <trkpt lat="49.19787" lon="6.09476">
        <ele>243.4</ele>
        <time>2021-07-28T14:06:06Z</time>
      </trkpt>
      <trkpt lat="49.19787" lon="6.09476">
        <ele>243.4</ele>
        <time>2021-07-28T14:06:07Z</time>
      </trkpt>
      <trkpt lat="49.19787" lon="6.09476">
        <ele>243.4</ele>
        <time>2021-07-28T14:06:09Z</time>
      </trkpt>
      <trkpt lat="49.19787" lon="6.09477">
        <ele>243.5</ele>
        <time>2021-07-28T14:06:10Z</time>
      </trkpt>
      <trkpt lat="49.19788" lon="6.09481">
        <ele>243.8</ele>
        <time>2021-07-28T14:06:12Z</time>
      </trkpt>
      <trkpt lat="49.19789" lon="6.09483">
        <ele>244</ele>
        <time>2021-07-28T14:06:13Z</time>
      </trkpt>
      <trkpt lat="49.19789" lon="6.09484">
        <ele>244</ele>
        <time>2021-07-28T14:06:14Z</time>
      </trkpt>
      <trkpt lat="49.19789" lon="6.09486">
        <ele>244.1</ele>
        <time>2021-07-28T14:06:15Z</time>
      </trkpt>
      <trkpt lat="49.19788" lon="6.09489">
        <ele>244.4</ele>
        <time>2021-07-28T14:06:17Z</time>
      </trkpt>
      <trkpt lat="49.19787" lon="6.09491">
        <ele>244.5</ele>
        <time>2021-07-28T14:06:19Z</time>
      </trkpt>
      <trkpt lat="49.19786" lon="6.09492">
        <ele>244.7</ele>
        <time>2021-07-28T14:06:21Z</time>
      </trkpt>
      <trkpt lat="49.19785" lon="6.09494">
        <ele>244.8</ele>
        <time>2021-07-28T14:06:22Z</time>
      </trkpt>
      <trkpt lat="49.19784" lon="6.09497">
        <ele>245</ele>
        <time>2021-07-28T14:06:23Z</time>
      </trkpt>
      <trkpt lat="49.19782" lon="6.09498">
        <ele>245.2</ele>
        <time>2021-07-28T14:06:25Z</time>
      </trkpt>
      <trkpt lat="49.1978" lon="6.09499">
        <ele>245.4</ele>
        <time>2021-07-28T14:06:27Z</time>
      </trkpt>
      <trkpt lat="49.19779" lon="6.09499">
        <ele>245.5</ele>
        <time>2021-07-28T14:06:28Z</time>
      </trkpt>
      <trkpt lat="49.19779" lon="6.09499">
        <ele>245.6</ele>
        <time>2021-07-28T14:06:29Z</time>
      </trkpt>
      <trkpt lat="49.19776" lon="6.09501">
        <ele>245.8</ele>
        <time>2021-07-28T14:06:30Z</time>
      </trkpt>
      <trkpt lat="49.19775" lon="6.09502">
        <ele>245.9</ele>
        <time>2021-07-28T14:06:32Z</time>
      </trkpt>
      <trkpt lat="49.19773" lon="6.09503">
        <ele>246.1</ele>
        <time>2021-07-28T14:06:33Z</time>
      </trkpt>
      <trkpt lat="49.19772" lon="6.09504">
        <ele>246.2</ele>
        <time>2021-07-28T14:06:34Z</time>
      </trkpt>
      <trkpt lat="49.19769" lon="6.09505">
        <ele>246.4</ele>
        <time>2021-07-28T14:06:35Z</time>
      </trkpt>
      <trkpt lat="49.19768" lon="6.09505">
        <ele>246.5</ele>
        <time>2021-07-28T14:06:37Z</time>
      </trkpt>
      <trkpt lat="49.19767" lon="6.09506">
        <ele>246.6</ele>
        <time>2021-07-28T14:06:38Z</time>
      </trkpt>
      <trkpt lat="49.19765" lon="6.09507">
        <ele>246.7</ele>
        <time>2021-07-28T14:06:39Z</time>
      </trkpt>
      <trkpt lat="49.19764" lon="6.09509">
        <ele>246.9</ele>
        <time>2021-07-28T14:06:40Z</time>
      </trkpt>
      <trkpt lat="49.19763" lon="6.09511">
        <ele>247</ele>
        <time>2021-07-28T14:06:42Z</time>
      </trkpt>
      <trkpt lat="49.19762" lon="6.09513">
        <ele>247.1</ele>
        <time>2021-07-28T14:06:43Z</time>
      </trkpt>
      <trkpt lat="49.19762" lon="6.09514">
        <ele>247.2</ele>
        <time>2021-07-28T14:06:44Z</time>
      </trkpt>
      <trkpt lat="49.19761" lon="6.09514">
        <ele>247.2</ele>
        <time>2021-07-28T14:06:45Z</time>
      </trkpt>
      <trkpt lat="49.19761" lon="6.09515">
        <ele>247.2</ele>
        <time>2021-07-28T14:06:47Z</time>
      </trkpt>
      <trkpt lat="49.19761" lon="6.09515">
        <ele>247.2</ele>
        <time>2021-07-28T14:06:48Z</time>
      </trkpt>
      <trkpt lat="49.1976" lon="6.09516">
        <ele>247.3</ele>
        <time>2021-07-28T14:06:49Z</time>
      </trkpt>
      <trkpt lat="49.1976" lon="6.09517">
        <ele>247.4</ele>
        <time>2021-07-28T14:06:50Z</time>
      </trkpt>
      <trkpt lat="49.19759" lon="6.09518">
        <ele>247.4</ele>
        <time>2021-07-28T14:06:52Z</time>
      </trkpt>
      <trkpt lat="49.19758" lon="6.09521">
        <ele>247.6</ele>
        <time>2021-07-28T14:06:53Z</time>
      </trkpt>
      <trkpt lat="49.19744" lon="6.09571">
        <ele>250.6</ele>
        <time>2021-07-28T14:07:44Z</time>
      </trkpt>
      <trkpt lat="49.19747" lon="6.09576">
        <ele>250.7</ele>
        <time>2021-07-28T14:07:45Z</time>
      </trkpt>
      <trkpt lat="49.19748" lon="6.09579">
        <ele>250.7</ele>
        <time>2021-07-28T14:07:46Z</time>
      </trkpt>
      <trkpt lat="49.19749" lon="6.09582">
        <ele>250.8</ele>
        <time>2021-07-28T14:07:48Z</time>
      </trkpt>
      <trkpt lat="49.19752" lon="6.09585">
        <ele>250.8</ele>
        <time>2021-07-28T14:07:49Z</time>
      </trkpt>
      <trkpt lat="49.19752" lon="6.09586">
        <ele>250.8</ele>
        <time>2021-07-28T14:07:50Z</time>
      </trkpt>
      <trkpt lat="49.19754" lon="6.09586">
        <ele>250.8</ele>
        <time>2021-07-28T14:07:51Z</time>
      </trkpt>
      <trkpt lat="49.19758" lon="6.09587">
        <ele>250.9</ele>
        <time>2021-07-28T14:07:53Z</time>
      </trkpt>
      <trkpt lat="49.1976" lon="6.09585">
        <ele>250.9</ele>
        <time>2021-07-28T14:07:54Z</time>
      </trkpt>
      <trkpt lat="49.19761" lon="6.09584">
        <ele>251</ele>
        <time>2021-07-28T14:07:55Z</time>
      </trkpt>
      <trkpt lat="49.19762" lon="6.09585">
        <ele>251</ele>
        <time>2021-07-28T14:07:56Z</time>
      </trkpt>
      <trkpt lat="49.19765" lon="6.09588">
        <ele>251.1</ele>
        <time>2021-07-28T14:07:58Z</time>
      </trkpt>
      <trkpt lat="49.19766" lon="6.09589">
        <ele>251.1</ele>
        <time>2021-07-28T14:07:59Z</time>
      </trkpt>
      <trkpt lat="49.19767" lon="6.09591">
        <ele>251.1</ele>
        <time>2021-07-28T14:08:00Z</time>
      </trkpt>
      <trkpt lat="49.19768" lon="6.09592">
        <ele>251.1</ele>
        <time>2021-07-28T14:08:02Z</time>
      </trkpt>
      <trkpt lat="49.19768" lon="6.09592">
        <ele>251.1</ele>
        <time>2021-07-28T14:08:03Z</time>
      </trkpt>
      <trkpt lat="49.19769" lon="6.09595">
        <ele>251.2</ele>
        <time>2021-07-28T14:08:05Z</time>
      </trkpt>
      <trkpt lat="49.19771" lon="6.09597">
        <ele>251.2</ele>
        <time>2021-07-28T14:08:07Z</time>
      </trkpt>
      <trkpt lat="49.19771" lon="6.09599">
        <ele>251.3</ele>
        <time>2021-07-28T14:08:08Z</time>
      </trkpt>
      <trkpt lat="49.19783" lon="6.09633">
        <ele>251.9</ele>
        <time>2021-07-28T14:08:26Z</time>
      </trkpt>
      <trkpt lat="49.19784" lon="6.09638">
        <ele>252</ele>
        <time>2021-07-28T14:08:27Z</time>
      </trkpt>
      <trkpt lat="49.19786" lon="6.09644">
        <ele>252.2</ele>
        <time>2021-07-28T14:08:28Z</time>
      </trkpt>
      <trkpt lat="49.19788" lon="6.09648">
        <ele>252.3</ele>
        <time>2021-07-28T14:08:29Z</time>
      </trkpt>
      <trkpt lat="49.19791" lon="6.09657">
        <ele>252.6</ele>
        <time>2021-07-28T14:08:31Z</time>
      </trkpt>
      <trkpt lat="49.19792" lon="6.09661">
        <ele>252.7</ele>
        <time>2021-07-28T14:08:32Z</time>
      </trkpt>
      <trkpt lat="49.19793" lon="6.09665">
        <ele>252.9</ele>
        <time>2021-07-28T14:08:33Z</time>
      </trkpt>
      <trkpt lat="49.19793" lon="6.0967">
        <ele>253</ele>
        <time>2021-07-28T14:08:35Z</time>
      </trkpt>
      <trkpt lat="49.19793" lon="6.09672">
        <ele>253.1</ele>
        <time>2021-07-28T14:08:36Z</time>
      </trkpt>
      <trkpt lat="49.19793" lon="6.09675">
        <ele>253.2</ele>
        <time>2021-07-28T14:08:37Z</time>
      </trkpt>
      <trkpt lat="49.19792" lon="6.09681">
        <ele>253.5</ele>
        <time>2021-07-28T14:08:39Z</time>
      </trkpt>
      <trkpt lat="49.19791" lon="6.09685">
        <ele>253.6</ele>
        <time>2021-07-28T14:08:40Z</time>
      </trkpt>
      <trkpt lat="49.19791" lon="6.09686">
        <ele>253.7</ele>
        <time>2021-07-28T14:08:41Z</time>
      </trkpt>
      <trkpt lat="49.19789" lon="6.09691">
        <ele>253.9</ele>
        <time>2021-07-28T14:08:43Z</time>
      </trkpt>
      <trkpt lat="49.19789" lon="6.09692">
        <ele>253.9</ele>
        <time>2021-07-28T14:08:44Z</time>
      </trkpt>
      <trkpt lat="49.19788" lon="6.09694">
        <ele>254</ele>
        <time>2021-07-28T14:08:45Z</time>
      </trkpt>
      <trkpt lat="49.19787" lon="6.09697">
        <ele>254.2</ele>
        <time>2021-07-28T14:08:47Z</time>
      </trkpt>
      <trkpt lat="49.19787" lon="6.09697">
        <ele>254.2</ele>
        <time>2021-07-28T14:08:48Z</time>
      </trkpt>
      <trkpt lat="49.19786" lon="6.09699">
        <ele>254.3</ele>
        <time>2021-07-28T14:08:49Z</time>
      </trkpt>
      <trkpt lat="49.19785" lon="6.09702">
        <ele>254.5</ele>
        <time>2021-07-28T14:08:50Z</time>
      </trkpt>
      <trkpt lat="49.19784" lon="6.09708">
        <ele>254.7</ele>
        <time>2021-07-28T14:08:53Z</time>
      </trkpt>
      <trkpt lat="49.19784" lon="6.0971">
        <ele>254.9</ele>
        <time>2021-07-28T14:08:54Z</time>
      </trkpt>
      <trkpt lat="49.19784" lon="6.0971">
        <ele>254.9</ele>
        <time>2021-07-28T14:08:56Z</time>
      </trkpt>
      <trkpt lat="49.19784" lon="6.0971">
        <ele>254.9</ele>
        <time>2021-07-28T14:08:57Z</time>
      </trkpt>
      <trkpt lat="49.19784" lon="6.0971">
        <ele>254.9</ele>
        <time>2021-07-28T14:08:59Z</time>
      </trkpt>
      <trkpt lat="49.19784" lon="6.0971">
        <ele>254.9</ele>
        <time>2021-07-28T14:09:00Z</time>
      </trkpt>
      <trkpt lat="49.19783" lon="6.09711">
        <ele>255</ele>
        <time>2021-07-28T14:09:01Z</time>
      </trkpt>
      <trkpt lat="49.19783" lon="6.09712">
        <ele>255</ele>
        <time>2021-07-28T14:09:02Z</time>
      </trkpt>
      <trkpt lat="49.19782" lon="6.09714">
        <ele>255.1</ele>
        <time>2021-07-28T14:09:04Z</time>
      </trkpt>
      <trkpt lat="49.19775" lon="6.09722">
        <ele>255.7</ele>
        <time>2021-07-28T14:09:12Z</time>
      </trkpt>
      <trkpt lat="49.19773" lon="6.09725">
        <ele>255.9</ele>
        <time>2021-07-28T14:09:14Z</time>
      </trkpt>
      <trkpt lat="49.19772" lon="6.09726">
        <ele>256.1</ele>
        <time>2021-07-28T14:09:15Z</time>
      </trkpt>
      <trkpt lat="49.19772" lon="6.09728">
        <ele>256.2</ele>
        <time>2021-07-28T14:09:16Z</time>
      </trkpt>
      <trkpt lat="49.19771" lon="6.09729">
        <ele>256.3</ele>
        <time>2021-07-28T14:09:17Z</time>
      </trkpt>
      <trkpt lat="49.19771" lon="6.0973">
        <ele>256.4</ele>
        <time>2021-07-28T14:09:18Z</time>
      </trkpt>
      <trkpt lat="49.19771" lon="6.0973">
        <ele>256.4</ele>
        <time>2021-07-28T14:09:20Z</time>
      </trkpt>
      <trkpt lat="49.1977" lon="6.09731">
        <ele>256.4</ele>
        <time>2021-07-28T14:09:21Z</time>
      </trkpt>
      <trkpt lat="49.1977" lon="6.09732">
        <ele>256.5</ele>
        <time>2021-07-28T14:09:22Z</time>
      </trkpt>
      <trkpt lat="49.19768" lon="6.09733">
        <ele>256.6</ele>
        <time>2021-07-28T14:09:24Z</time>
      </trkpt>
      <trkpt lat="49.19686" lon="6.09783">
        <ele>264.9</ele>
        <time>2021-07-28T14:10:56Z</time>
      </trkpt>
      <trkpt lat="49.19686" lon="6.09785">
        <ele>265</ele>
        <time>2021-07-28T14:10:58Z</time>
      </trkpt>
      <trkpt lat="49.19685" lon="6.09787">
        <ele>265.1</ele>
        <time>2021-07-28T14:10:59Z</time>
      </trkpt>
      <trkpt lat="49.19685" lon="6.09788">
        <ele>265.1</ele>
        <time>2021-07-28T14:11:00Z</time>
      </trkpt>
      <trkpt lat="49.19684" lon="6.0979">
        <ele>265.3</ele>
        <time>2021-07-28T14:11:01Z</time>
      </trkpt>
      <trkpt lat="49.19683" lon="6.09791">
        <ele>265.4</ele>
        <time>2021-07-28T14:11:04Z</time>
      </trkpt>
      <trkpt lat="49.19683" lon="6.09791">
        <ele>265.4</ele>
        <time>2021-07-28T14:11:05Z</time>
      </trkpt>
      <trkpt lat="49.19682" lon="6.09791">
        <ele>265.5</ele>
        <time>2021-07-28T14:11:07Z</time>
      </trkpt>
      <trkpt lat="49.19682" lon="6.09792">
        <ele>265.5</ele>
        <time>2021-07-28T14:11:08Z</time>
      </trkpt>
      <trkpt lat="49.19681" lon="6.09791">
        <ele>265.5</ele>
        <time>2021-07-28T14:11:09Z</time>
      </trkpt>
      <trkpt lat="49.1968" lon="6.0979">
        <ele>265.7</ele>
        <time>2021-07-28T14:11:10Z</time>
      </trkpt>
      <trkpt lat="49.19678" lon="6.09788">
        <ele>265.9</ele>
        <time>2021-07-28T14:11:12Z</time>
      </trkpt>
      <trkpt lat="49.19676" lon="6.09787">
        <ele>266</ele>
        <time>2021-07-28T14:11:13Z</time>
      </trkpt>
      <trkpt lat="49.19675" lon="6.09786">
        <ele>266.1</ele>
        <time>2021-07-28T14:11:14Z</time>
      </trkpt>
      <trkpt lat="49.19673" lon="6.09785">
        <ele>266.3</ele>
        <time>2021-07-28T14:11:16Z</time>
      </trkpt>
      <trkpt lat="49.19638" lon="6.09789">
        <ele>269.1</ele>
        <time>2021-07-28T14:11:52Z</time>
      </trkpt>
      <trkpt lat="49.19636" lon="6.0979">
        <ele>269.3</ele>
        <time>2021-07-28T14:11:54Z</time>
      </trkpt>
      <trkpt lat="49.19633" lon="6.09791">
        <ele>269.5</ele>
        <time>2021-07-28T14:11:55Z</time>
      </trkpt>
      <trkpt lat="49.1963" lon="6.09792">
        <ele>269.7</ele>
        <time>2021-07-28T14:11:57Z</time>
      </trkpt>
      <trkpt lat="49.19629" lon="6.09792">
        <ele>269.8</ele>
        <time>2021-07-28T14:11:58Z</time>
      </trkpt>
      <trkpt lat="49.19626" lon="6.09794">
        <ele>270.1</ele>
        <time>2021-07-28T14:11:59Z</time>
      </trkpt>
      <trkpt lat="49.19626" lon="6.09795">
        <ele>270.1</ele>
        <time>2021-07-28T14:12:00Z</time>
      </trkpt>
      <trkpt lat="49.19624" lon="6.098">
        <ele>270.4</ele>
        <time>2021-07-28T14:12:02Z</time>
      </trkpt>
      <trkpt lat="49.19623" lon="6.09806">
        <ele>270.7</ele>
        <time>2021-07-28T14:12:03Z</time>
      </trkpt>
      <trkpt lat="49.19624" lon="6.09809">
        <ele>270.9</ele>
        <time>2021-07-28T14:12:05Z</time>
      </trkpt>
      <trkpt lat="49.19625" lon="6.0981">
        <ele>271</ele>
        <time>2021-07-28T14:12:06Z</time>
      </trkpt>
      <trkpt lat="49.19625" lon="6.09813">
        <ele>271.1</ele>
        <time>2021-07-28T14:12:07Z</time>
      </trkpt>
      <trkpt lat="49.19625" lon="6.09813">
        <ele>271.1</ele>
        <time>2021-07-28T14:12:09Z</time>
      </trkpt>
      <trkpt lat="49.19625" lon="6.09814">
        <ele>271.2</ele>
        <time>2021-07-28T14:12:11Z</time>
      </trkpt>
      <trkpt lat="49.19625" lon="6.09815">
        <ele>271.2</ele>
        <time>2021-07-28T14:12:12Z</time>
      </trkpt>
      <trkpt lat="49.19625" lon="6.09818">
        <ele>271.4</ele>
        <time>2021-07-28T14:12:13Z</time>
      </trkpt>
      <trkpt lat="49.19626" lon="6.0982">
        <ele>271.5</ele>
        <time>2021-07-28T14:12:15Z</time>
      </trkpt>
      <trkpt lat="49.19626" lon="6.09822">
        <ele>271.6</ele>
        <time>2021-07-28T14:12:16Z</time>
      </trkpt>
      <trkpt lat="49.19626" lon="6.09824">
        <ele>271.7</ele>
        <time>2021-07-28T14:12:17Z</time>
      </trkpt>
      <trkpt lat="49.19613" lon="6.09888">
        <ele>274.1</ele>
        <time>2021-07-28T14:13:13Z</time>
      </trkpt>
      <trkpt lat="49.19612" lon="6.09891">
        <ele>274.1</ele>
        <time>2021-07-28T14:13:14Z</time>
      </trkpt>
      <trkpt lat="49.19611" lon="6.09899">
        <ele>274.3</ele>
        <time>2021-07-28T14:13:15Z</time>
      </trkpt>
      <trkpt lat="49.19612" lon="6.09908">
        <ele>274.3</ele>
        <time>2021-07-28T14:13:17Z</time>
      </trkpt>
      <trkpt lat="49.19613" lon="6.09915">
        <ele>274.3</ele>
        <time>2021-07-28T14:13:18Z</time>
      </trkpt>
      <trkpt lat="49.19615" lon="6.09926">
        <ele>274.2</ele>
        <time>2021-07-28T14:13:19Z</time>
      </trkpt>
      <trkpt lat="49.19616" lon="6.09933">
        <ele>274.2</ele>
        <time>2021-07-28T14:13:21Z</time>
      </trkpt>
      <trkpt lat="49.19616" lon="6.09938">
        <ele>274.2</ele>
        <time>2021-07-28T14:13:22Z</time>
      </trkpt>
      <trkpt lat="49.19617" lon="6.09942">
        <ele>274.1</ele>
        <time>2021-07-28T14:13:23Z</time>
      </trkpt>
      <trkpt lat="49.1962" lon="6.09945">
        <ele>274.1</ele>
        <time>2021-07-28T14:13:25Z</time>
      </trkpt>
      <trkpt lat="49.19622" lon="6.09949">
        <ele>274.1</ele>
        <time>2021-07-28T14:13:26Z</time>
      </trkpt>
      <trkpt lat="49.19623" lon="6.09954">
        <ele>274.1</ele>
        <time>2021-07-28T14:13:27Z</time>
      </trkpt>
      <trkpt lat="49.19623" lon="6.09956">
        <ele>274.1</ele>
        <time>2021-07-28T14:13:28Z</time>
      </trkpt>
      <trkpt lat="49.19624" lon="6.09956">
        <ele>274.1</ele>
        <time>2021-07-28T14:13:30Z</time>
      </trkpt>
      <trkpt lat="49.19624" lon="6.09957">
        <ele>274.1</ele>
        <time>2021-07-28T14:13:31Z</time>
      </trkpt>
      <trkpt lat="49.19622" lon="6.0996">
        <ele>274.1</ele>
        <time>2021-07-28T14:13:33Z</time>
      </trkpt>
      <trkpt lat="49.19621" lon="6.09961">
        <ele>274.1</ele>
        <time>2021-07-28T14:13:34Z</time>
      </trkpt>
      <trkpt lat="49.19622" lon="6.09965">
        <ele>274.1</ele>
        <time>2021-07-28T14:13:35Z</time>
      </trkpt>
      <trkpt lat="49.19625" lon="6.0997">
        <ele>274.1</ele>
        <time>2021-07-28T14:13:36Z</time>
      </trkpt>
      <trkpt lat="49.19627" lon="6.09975">
        <ele>274.1</ele>
        <time>2021-07-28T14:13:37Z</time>
      </trkpt>
      <trkpt lat="49.19629" lon="6.0998">
        <ele>274.1</ele>
        <time>2021-07-28T14:13:39Z</time>
      </trkpt>
      <trkpt lat="49.19631" lon="6.09984">
        <ele>274.1</ele>
        <time>2021-07-28T14:13:40Z</time>
      </trkpt>
      <trkpt lat="49.19632" lon="6.09988">
        <ele>274.1</ele>
        <time>2021-07-28T14:13:42Z</time>
      </trkpt>
      <trkpt lat="49.19632" lon="6.09991">
        <ele>274.1</ele>
        <time>2021-07-28T14:13:43Z</time>
      </trkpt>
      <trkpt lat="49.19632" lon="6.09992">
        <ele>274.1</ele>
        <time>2021-07-28T14:13:44Z</time>
      </trkpt>
      <trkpt lat="49.19632" lon="6.09993">
        <ele>274.1</ele>
        <time>2021-07-28T14:13:45Z</time>
      </trkpt>
      <trkpt lat="49.19632" lon="6.09998">
        <ele>274.1</ele>
        <time>2021-07-28T14:13:47Z</time>
      </trkpt>
      <trkpt lat="49.19631" lon="6.09999">
        <ele>274.1</ele>
        <time>2021-07-28T14:13:48Z</time>
      </trkpt>
      <trkpt lat="49.1963" lon="6.10002">
        <ele>274.1</ele>
        <time>2021-07-28T14:13:50Z</time>
      </trkpt>
      <trkpt lat="49.1963" lon="6.10004">
        <ele>274.1</ele>
        <time>2021-07-28T14:13:51Z</time>
      </trkpt>
      <trkpt lat="49.1963" lon="6.10006">
        <ele>274</ele>
        <time>2021-07-28T14:13:53Z</time>
      </trkpt>
      <trkpt lat="49.19629" lon="6.10008">
        <ele>274</ele>
        <time>2021-07-28T14:13:55Z</time>
      </trkpt>
      <trkpt lat="49.19629" lon="6.10009">
        <ele>274</ele>
        <time>2021-07-28T14:13:56Z</time>
      </trkpt>
      <trkpt lat="49.19629" lon="6.10012">
        <ele>274</ele>
        <time>2021-07-28T14:13:58Z</time>
      </trkpt>
      <trkpt lat="49.19633" lon="6.10065">
        <ele>272.6</ele>
        <time>2021-07-28T14:14:06Z</time>
      </trkpt>
      <trkpt lat="49.19637" lon="6.10075">
        <ele>272.2</ele>
        <time>2021-07-28T14:14:07Z</time>
      </trkpt>
      <trkpt lat="49.19644" lon="6.10092">
        <ele>271.9</ele>
        <time>2021-07-28T14:14:09Z</time>
      </trkpt>
      <trkpt lat="49.19643" lon="6.10099">
        <ele>271.8</ele>
        <time>2021-07-28T14:14:10Z</time>
      </trkpt>
      <trkpt lat="49.19643" lon="6.10106">
        <ele>271.8</ele>
        <time>2021-07-28T14:14:12Z</time>
      </trkpt>
      <trkpt lat="49.19643" lon="6.1011">
        <ele>271.8</ele>
        <time>2021-07-28T14:14:13Z</time>
      </trkpt>
      <trkpt lat="49.19643" lon="6.10114">
        <ele>271.8</ele>
        <time>2021-07-28T14:14:14Z</time>
      </trkpt>
      <trkpt lat="49.19642" lon="6.10119">
        <ele>271.8</ele>
        <time>2021-07-28T14:14:16Z</time>
      </trkpt>
      <trkpt lat="49.19643" lon="6.10125">
        <ele>271.8</ele>
        <time>2021-07-28T14:14:17Z</time>
      </trkpt>
      <trkpt lat="49.19644" lon="6.10133">
        <ele>271.9</ele>
        <time>2021-07-28T14:14:18Z</time>
      </trkpt>
      <trkpt lat="49.19645" lon="6.10138">
        <ele>271.9</ele>
        <time>2021-07-28T14:14:19Z</time>
      </trkpt>
      <trkpt lat="49.19645" lon="6.10144">
        <ele>271.9</ele>
        <time>2021-07-28T14:14:21Z</time>
      </trkpt>
      <trkpt lat="49.19645" lon="6.10148">
        <ele>272</ele>
        <time>2021-07-28T14:14:22Z</time>
      </trkpt>
      <trkpt lat="49.19646" lon="6.10153">
        <ele>272</ele>
        <time>2021-07-28T14:14:23Z</time>
      </trkpt>
      <trkpt lat="49.19647" lon="6.10157">
        <ele>272.1</ele>
        <time>2021-07-28T14:14:24Z</time>
      </trkpt>
      <trkpt lat="49.19648" lon="6.1016">
        <ele>272.1</ele>
        <time>2021-07-28T14:14:25Z</time>
      </trkpt>
      <trkpt lat="49.19648" lon="6.10162">
        <ele>272.2</ele>
        <time>2021-07-28T14:14:26Z</time>
      </trkpt>
      <trkpt lat="49.19648" lon="6.10163">
        <ele>272.2</ele>
        <time>2021-07-28T14:14:28Z</time>
      </trkpt>
      <trkpt lat="49.19648" lon="6.10163">
        <ele>272.2</ele>
        <time>2021-07-28T14:14:29Z</time>
      </trkpt>
      <trkpt lat="49.19647" lon="6.10164">
        <ele>272.2</ele>
        <time>2021-07-28T14:14:30Z</time>
      </trkpt>
      <trkpt lat="49.19647" lon="6.10167">
        <ele>272.2</ele>
        <time>2021-07-28T14:14:32Z</time>
      </trkpt>
      <trkpt lat="49.19648" lon="6.1017">
        <ele>272.3</ele>
        <time>2021-07-28T14:14:33Z</time>
      </trkpt>
      <trkpt lat="49.1965" lon="6.10173">
        <ele>272.4</ele>
        <time>2021-07-28T14:14:34Z</time>
      </trkpt>
      <trkpt lat="49.1967" lon="6.10208">
        <ele>273.2</ele>
        <time>2021-07-28T14:14:42Z</time>
      </trkpt>
      <trkpt lat="49.19674" lon="6.10216">
        <ele>273.2</ele>
        <time>2021-07-28T14:14:44Z</time>
      </trkpt>
      <trkpt lat="49.19676" lon="6.10221">
        <ele>273.2</ele>
        <time>2021-07-28T14:14:45Z</time>
      </trkpt>
      <trkpt lat="49.19679" lon="6.10227">
        <ele>273.1</ele>
        <time>2021-07-28T14:14:47Z</time>
      </trkpt>
      <trkpt lat="49.19681" lon="6.10231">
        <ele>273</ele>
        <time>2021-07-28T14:14:48Z</time>
      </trkpt>
      <trkpt lat="49.19681" lon="6.10233">
        <ele>273</ele>
        <time>2021-07-28T14:14:49Z</time>
      </trkpt>
      <trkpt lat="49.1968" lon="6.10236">
        <ele>273</ele>
        <time>2021-07-28T14:14:51Z</time>
      </trkpt>
      <trkpt lat="49.1968" lon="6.1024">
        <ele>272.9</ele>
        <time>2021-07-28T14:14:52Z</time>
      </trkpt>
      <trkpt lat="49.19681" lon="6.10245">
        <ele>272.8</ele>
        <time>2021-07-28T14:14:53Z</time>
      </trkpt>
      <trkpt lat="49.19682" lon="6.10247">
        <ele>272.8</ele>
        <time>2021-07-28T14:14:54Z</time>
      </trkpt>
      <trkpt lat="49.19682" lon="6.1025">
        <ele>272.8</ele>
        <time>2021-07-28T14:14:55Z</time>
      </trkpt>
      <trkpt lat="49.19685" lon="6.10256">
        <ele>272.7</ele>
        <time>2021-07-28T14:14:57Z</time>
      </trkpt>
      <trkpt lat="49.1969" lon="6.10265">
        <ele>272.5</ele>
        <time>2021-07-28T14:14:59Z</time>
      </trkpt>
      <trkpt lat="49.19693" lon="6.10271">
        <ele>272.4</ele>
        <time>2021-07-28T14:15:00Z</time>
      </trkpt>
      <trkpt lat="49.19697" lon="6.1028">
        <ele>272.3</ele>
        <time>2021-07-28T14:15:02Z</time>
      </trkpt>
      <trkpt lat="49.197" lon="6.10286">
        <ele>272.2</ele>
        <time>2021-07-28T14:15:03Z</time>
      </trkpt>
      <trkpt lat="49.19704" lon="6.10297">
        <ele>272</ele>
        <time>2021-07-28T14:15:05Z</time>
      </trkpt>
      <trkpt lat="49.19707" lon="6.10306">
        <ele>271.9</ele>
        <time>2021-07-28T14:15:06Z</time>
      </trkpt>
      <trkpt lat="49.1971" lon="6.10314">
        <ele>271.8</ele>
        <time>2021-07-28T14:15:07Z</time>
      </trkpt>
      <trkpt lat="49.19712" lon="6.1032">
        <ele>271.7</ele>
        <time>2021-07-28T14:15:08Z</time>
      </trkpt>
      <trkpt lat="49.19715" lon="6.10328">
        <ele>271.6</ele>
        <time>2021-07-28T14:15:10Z</time>
      </trkpt>
      <trkpt lat="49.19716" lon="6.10333">
        <ele>271.5</ele>
        <time>2021-07-28T14:15:11Z</time>
      </trkpt>
      <trkpt lat="49.19717" lon="6.10338">
        <ele>271.4</ele>
        <time>2021-07-28T14:15:12Z</time>
      </trkpt>
      <trkpt lat="49.1972" lon="6.10346">
        <ele>271.3</ele>
        <time>2021-07-28T14:15:13Z</time>
      </trkpt>
      <trkpt lat="49.19722" lon="6.10353">
        <ele>271.3</ele>
        <time>2021-07-28T14:15:15Z</time>
      </trkpt>
      <trkpt lat="49.19723" lon="6.10358">
        <ele>271.2</ele>
        <time>2021-07-28T14:15:16Z</time>
      </trkpt>
      <trkpt lat="49.19725" lon="6.10363">
        <ele>271.1</ele>
        <time>2021-07-28T14:15:17Z</time>
      </trkpt>
      <trkpt lat="49.19728" lon="6.1037">
        <ele>271</ele>
        <time>2021-07-28T14:15:18Z</time>
      </trkpt>
      <trkpt lat="49.19731" lon="6.10376">
        <ele>271</ele>
        <time>2021-07-28T14:15:20Z</time>
      </trkpt>
      <trkpt lat="49.19734" lon="6.10382">
        <ele>270.9</ele>
        <time>2021-07-28T14:15:21Z</time>
      </trkpt>
      <trkpt lat="49.19738" lon="6.10391">
        <ele>270.8</ele>
        <time>2021-07-28T14:15:23Z</time>
      </trkpt>
      <trkpt lat="49.1974" lon="6.10397">
        <ele>270.8</ele>
        <time>2021-07-28T14:15:24Z</time>
      </trkpt>
      <trkpt lat="49.19742" lon="6.10402">
        <ele>270.7</ele>
        <time>2021-07-28T14:15:25Z</time>
      </trkpt>
      <trkpt lat="49.19744" lon="6.10406">
        <ele>270.7</ele>
        <time>2021-07-28T14:15:26Z</time>
      </trkpt>
      <trkpt lat="49.19747" lon="6.10411">
        <ele>270.7</ele>
        <time>2021-07-28T14:15:27Z</time>
      </trkpt>
      <trkpt lat="49.19749" lon="6.10415">
        <ele>270.7</ele>
        <time>2021-07-28T14:15:28Z</time>
      </trkpt>
      <trkpt lat="49.19751" lon="6.10419">
        <ele>270.7</ele>
        <time>2021-07-28T14:15:29Z</time>
      </trkpt>
      <trkpt lat="49.19753" lon="6.10425">
        <ele>270.7</ele>
        <time>2021-07-28T14:15:30Z</time>
      </trkpt>
      <trkpt lat="49.19756" lon="6.10432">
        <ele>270.7</ele>
        <time>2021-07-28T14:15:31Z</time>
      </trkpt>
      <trkpt lat="49.19759" lon="6.10439">
        <ele>270.8</ele>
        <time>2021-07-28T14:15:33Z</time>
      </trkpt>
      <trkpt lat="49.19763" lon="6.10448">
        <ele>270.9</ele>
        <time>2021-07-28T14:15:35Z</time>
      </trkpt>
      <trkpt lat="49.19765" lon="6.10452">
        <ele>270.9</ele>
        <time>2021-07-28T14:15:36Z</time>
      </trkpt>
      <trkpt lat="49.19767" lon="6.10456">
        <ele>271</ele>
        <time>2021-07-28T14:15:37Z</time>
      </trkpt>
      <trkpt lat="49.19771" lon="6.10465">
        <ele>271</ele>
        <time>2021-07-28T14:15:39Z</time>
      </trkpt>
      <trkpt lat="49.19773" lon="6.1047">
        <ele>271.1</ele>
        <time>2021-07-28T14:15:40Z</time>
      </trkpt>
      <trkpt lat="49.19776" lon="6.10477">
        <ele>271.2</ele>
        <time>2021-07-28T14:15:41Z</time>
      </trkpt>
      <trkpt lat="49.19778" lon="6.10484">
        <ele>271.2</ele>
        <time>2021-07-28T14:15:43Z</time>
      </trkpt>
      <trkpt lat="49.19779" lon="6.10485">
        <ele>271.2</ele>
        <time>2021-07-28T14:15:44Z</time>
      </trkpt>
      <trkpt lat="49.1978" lon="6.10487">
        <ele>271.2</ele>
        <time>2021-07-28T14:15:45Z</time>
      </trkpt>
      <trkpt lat="49.19781" lon="6.10491">
        <ele>271.2</ele>
        <time>2021-07-28T14:15:47Z</time>
      </trkpt>
      <trkpt lat="49.19784" lon="6.10495">
        <ele>271.3</ele>
        <time>2021-07-28T14:15:49Z</time>
      </trkpt>
      <trkpt lat="49.19785" lon="6.10497">
        <ele>271.3</ele>
        <time>2021-07-28T14:15:50Z</time>
      </trkpt>
      <trkpt lat="49.19785" lon="6.10499">
        <ele>271.3</ele>
        <time>2021-07-28T14:15:51Z</time>
      </trkpt>
      <trkpt lat="49.19787" lon="6.10503">
        <ele>271.3</ele>
        <time>2021-07-28T14:15:53Z</time>
      </trkpt>
      <trkpt lat="49.19789" lon="6.10506">
        <ele>271.3</ele>
        <time>2021-07-28T14:15:54Z</time>
      </trkpt>
      <trkpt lat="49.19792" lon="6.10511">
        <ele>271.3</ele>
        <time>2021-07-28T14:15:56Z</time>
      </trkpt>
      <trkpt lat="49.19793" lon="6.10513">
        <ele>271.3</ele>
        <time>2021-07-28T14:15:57Z</time>
      </trkpt>
      <trkpt lat="49.19796" lon="6.10518">
        <ele>271.2</ele>
        <time>2021-07-28T14:15:59Z</time>
      </trkpt>
      <trkpt lat="49.19798" lon="6.10522">
        <ele>271.2</ele>
        <time>2021-07-28T14:16:00Z</time>
      </trkpt>
      <trkpt lat="49.198" lon="6.10527">
        <ele>271.2</ele>
        <time>2021-07-28T14:16:02Z</time>
      </trkpt>
      <trkpt lat="49.19803" lon="6.10532">
        <ele>271.1</ele>
        <time>2021-07-28T14:16:03Z</time>
      </trkpt>
      <trkpt lat="49.19805" lon="6.10535">
        <ele>271.1</ele>
        <time>2021-07-28T14:16:04Z</time>
      </trkpt>
      <trkpt lat="49.19808" lon="6.10539">
        <ele>271.1</ele>
        <time>2021-07-28T14:16:06Z</time>
      </trkpt>
      <trkpt lat="49.19811" lon="6.10546">
        <ele>271</ele>
        <time>2021-07-28T14:16:07Z</time>
      </trkpt>
      <trkpt lat="49.19814" lon="6.10553">
        <ele>271</ele>
        <time>2021-07-28T14:16:09Z</time>
      </trkpt>
      <trkpt lat="49.19817" lon="6.1056">
        <ele>271</ele>
        <time>2021-07-28T14:16:10Z</time>
      </trkpt>
      <trkpt lat="49.19821" lon="6.10569">
        <ele>271</ele>
        <time>2021-07-28T14:16:12Z</time>
      </trkpt>
      <trkpt lat="49.19822" lon="6.10575">
        <ele>271</ele>
        <time>2021-07-28T14:16:13Z</time>
      </trkpt>
      <trkpt lat="49.19825" lon="6.10582">
        <ele>271.1</ele>
        <time>2021-07-28T14:16:14Z</time>
      </trkpt>
      <trkpt lat="49.19827" lon="6.10587">
        <ele>271.1</ele>
        <time>2021-07-28T14:16:15Z</time>
      </trkpt>
      <trkpt lat="49.19831" lon="6.10595">
        <ele>271.2</ele>
        <time>2021-07-28T14:16:17Z</time>
      </trkpt>
      <trkpt lat="49.19833" lon="6.106">
        <ele>271.2</ele>
        <time>2021-07-28T14:16:18Z</time>
      </trkpt>
      <trkpt lat="49.19835" lon="6.10604">
        <ele>271.3</ele>
        <time>2021-07-28T14:16:19Z</time>
      </trkpt>
      <trkpt lat="49.19838" lon="6.10611">
        <ele>271.3</ele>
        <time>2021-07-28T14:16:21Z</time>
      </trkpt>
      <trkpt lat="49.19839" lon="6.10615">
        <ele>271.4</ele>
        <time>2021-07-28T14:16:22Z</time>
      </trkpt>
      <trkpt lat="49.19841" lon="6.1062">
        <ele>271.4</ele>
        <time>2021-07-28T14:16:23Z</time>
      </trkpt>
      <trkpt lat="49.19842" lon="6.10625">
        <ele>271.5</ele>
        <time>2021-07-28T14:16:24Z</time>
      </trkpt>
      <trkpt lat="49.19844" lon="6.10631">
        <ele>271.6</ele>
        <time>2021-07-28T14:16:25Z</time>
      </trkpt>
      <trkpt lat="49.19845" lon="6.10636">
        <ele>271.6</ele>
        <time>2021-07-28T14:16:27Z</time>
      </trkpt>
      <trkpt lat="49.19847" lon="6.10642">
        <ele>271.7</ele>
        <time>2021-07-28T14:16:28Z</time>
      </trkpt>
      <trkpt lat="49.19849" lon="6.10646">
        <ele>271.8</ele>
        <time>2021-07-28T14:16:29Z</time>
      </trkpt>
      <trkpt lat="49.1985" lon="6.1065">
        <ele>271.8</ele>
        <time>2021-07-28T14:16:31Z</time>
      </trkpt>
      <trkpt lat="49.19852" lon="6.10656">
        <ele>271.9</ele>
        <time>2021-07-28T14:16:32Z</time>
      </trkpt>
      <trkpt lat="49.19853" lon="6.1066">
        <ele>271.9</ele>
        <time>2021-07-28T14:16:33Z</time>
      </trkpt>
      <trkpt lat="49.19855" lon="6.10664">
        <ele>272</ele>
        <time>2021-07-28T14:16:35Z</time>
      </trkpt>
      <trkpt lat="49.19856" lon="6.10668">
        <ele>272</ele>
        <time>2021-07-28T14:16:36Z</time>
      </trkpt>
      <trkpt lat="49.19858" lon="6.10674">
        <ele>272.1</ele>
        <time>2021-07-28T14:16:37Z</time>
      </trkpt>
      <trkpt lat="49.19859" lon="6.10679">
        <ele>272.1</ele>
        <time>2021-07-28T14:16:38Z</time>
      </trkpt>
      <trkpt lat="49.19861" lon="6.10684">
        <ele>272.2</ele>
        <time>2021-07-28T14:16:40Z</time>
      </trkpt>
      <trkpt lat="49.19862" lon="6.10686">
        <ele>272.2</ele>
        <time>2021-07-28T14:16:41Z</time>
      </trkpt>
      <trkpt lat="49.19864" lon="6.10691">
        <ele>272.2</ele>
        <time>2021-07-28T14:16:42Z</time>
      </trkpt>
      <trkpt lat="49.19864" lon="6.10693">
        <ele>272.2</ele>
        <time>2021-07-28T14:16:43Z</time>
      </trkpt>
      <trkpt lat="49.19866" lon="6.10698">
        <ele>272.3</ele>
        <time>2021-07-28T14:16:45Z</time>
      </trkpt>
      <trkpt lat="49.19867" lon="6.10701">
        <ele>272.3</ele>
        <time>2021-07-28T14:16:46Z</time>
      </trkpt>
      <trkpt lat="49.19868" lon="6.10705">
        <ele>272.3</ele>
        <time>2021-07-28T14:16:48Z</time>
      </trkpt>
      <trkpt lat="49.19869" lon="6.10709">
        <ele>272.3</ele>
        <time>2021-07-28T14:16:49Z</time>
      </trkpt>
      <trkpt lat="49.19871" lon="6.10713">
        <ele>272.3</ele>
        <time>2021-07-28T14:16:50Z</time>
      </trkpt>
      <trkpt lat="49.19872" lon="6.10717">
        <ele>272.3</ele>
        <time>2021-07-28T14:16:51Z</time>
      </trkpt>
      <trkpt lat="49.19873" lon="6.10724">
        <ele>272.3</ele>
        <time>2021-07-28T14:16:53Z</time>
      </trkpt>
      <trkpt lat="49.19873" lon="6.10727">
        <ele>272.3</ele>
        <time>2021-07-28T14:16:54Z</time>
      </trkpt>
      <trkpt lat="49.19874" lon="6.10729">
        <ele>272.3</ele>
        <time>2021-07-28T14:16:55Z</time>
      </trkpt>
      <trkpt lat="49.19875" lon="6.10733">
        <ele>272.3</ele>
        <time>2021-07-28T14:16:56Z</time>
      </trkpt>
      <trkpt lat="49.19876" lon="6.10737">
        <ele>272.3</ele>
        <time>2021-07-28T14:16:58Z</time>
      </trkpt>
      <trkpt lat="49.19878" lon="6.10741">
        <ele>272.3</ele>
        <time>2021-07-28T14:16:59Z</time>
      </trkpt>
      <trkpt lat="49.19879" lon="6.10748">
        <ele>272.2</ele>
        <time>2021-07-28T14:17:00Z</time>
      </trkpt>
      <trkpt lat="49.1988" lon="6.10753">
        <ele>272.1</ele>
        <time>2021-07-28T14:17:02Z</time>
      </trkpt>
      <trkpt lat="49.19882" lon="6.10757">
        <ele>272.1</ele>
        <time>2021-07-28T14:17:03Z</time>
      </trkpt>
      <trkpt lat="49.19882" lon="6.10763">
        <ele>272</ele>
        <time>2021-07-28T14:17:04Z</time>
      </trkpt>
      <trkpt lat="49.19884" lon="6.10768">
        <ele>271.9</ele>
        <time>2021-07-28T14:17:05Z</time>
      </trkpt>
      <trkpt lat="49.19886" lon="6.10772">
        <ele>271.8</ele>
        <time>2021-07-28T14:17:07Z</time>
      </trkpt>
      <trkpt lat="49.19888" lon="6.10776">
        <ele>271.7</ele>
        <time>2021-07-28T14:17:08Z</time>
      </trkpt>
      <trkpt lat="49.19891" lon="6.10779">
        <ele>271.6</ele>
        <time>2021-07-28T14:17:09Z</time>
      </trkpt>
      <trkpt lat="49.19893" lon="6.10784">
        <ele>271.5</ele>
        <time>2021-07-28T14:17:11Z</time>
      </trkpt>
      <trkpt lat="49.19894" lon="6.1079">
        <ele>271.4</ele>
        <time>2021-07-28T14:17:12Z</time>
      </trkpt>
      <trkpt lat="49.19895" lon="6.10794">
        <ele>271.4</ele>
        <time>2021-07-28T14:17:13Z</time>
      </trkpt>
      <trkpt lat="49.19898" lon="6.10802">
        <ele>271.2</ele>
        <time>2021-07-28T14:17:15Z</time>
      </trkpt>
      <trkpt lat="49.19899" lon="6.10805">
        <ele>271.2</ele>
        <time>2021-07-28T14:17:16Z</time>
      </trkpt>
      <trkpt lat="49.19902" lon="6.10812">
        <ele>271</ele>
        <time>2021-07-28T14:17:18Z</time>
      </trkpt>
      <trkpt lat="49.19903" lon="6.10816">
        <ele>270.9</ele>
        <time>2021-07-28T14:17:19Z</time>
      </trkpt>
      <trkpt lat="49.19905" lon="6.10822">
        <ele>270.9</ele>
        <time>2021-07-28T14:17:20Z</time>
      </trkpt>
      <trkpt lat="49.19907" lon="6.10829">
        <ele>270.7</ele>
        <time>2021-07-28T14:17:22Z</time>
      </trkpt>
      <trkpt lat="49.19909" lon="6.10835">
        <ele>270.6</ele>
        <time>2021-07-28T14:17:23Z</time>
      </trkpt>
      <trkpt lat="49.1991" lon="6.10841">
        <ele>270.5</ele>
        <time>2021-07-28T14:17:24Z</time>
      </trkpt>
      <trkpt lat="49.19911" lon="6.10851">
        <ele>270.4</ele>
        <time>2021-07-28T14:17:25Z</time>
      </trkpt>
      <trkpt lat="49.19913" lon="6.10859">
        <ele>270.3</ele>
        <time>2021-07-28T14:17:27Z</time>
      </trkpt>
      <trkpt lat="49.19914" lon="6.10868">
        <ele>270.2</ele>
        <time>2021-07-28T14:17:28Z</time>
      </trkpt>
      <trkpt lat="49.19916" lon="6.10875">
        <ele>270.1</ele>
        <time>2021-07-28T14:17:30Z</time>
      </trkpt>
      <trkpt lat="49.19917" lon="6.10885">
        <ele>270</ele>
        <time>2021-07-28T14:17:32Z</time>
      </trkpt>
      <trkpt lat="49.19919" lon="6.10891">
        <ele>270</ele>
        <time>2021-07-28T14:17:33Z</time>
      </trkpt>
      <trkpt lat="49.1992" lon="6.10899">
        <ele>269.9</ele>
        <time>2021-07-28T14:17:34Z</time>
      </trkpt>
      <trkpt lat="49.19921" lon="6.10906">
        <ele>269.9</ele>
        <time>2021-07-28T14:17:36Z</time>
      </trkpt>
      <trkpt lat="49.19923" lon="6.10912">
        <ele>269.8</ele>
        <time>2021-07-28T14:17:37Z</time>
      </trkpt>
      <trkpt lat="49.19925" lon="6.1092">
        <ele>269.8</ele>
        <time>2021-07-28T14:17:39Z</time>
      </trkpt>
      <trkpt lat="49.19928" lon="6.10927">
        <ele>269.7</ele>
        <time>2021-07-28T14:17:40Z</time>
      </trkpt>
      <trkpt lat="49.19929" lon="6.10933">
        <ele>269.7</ele>
        <time>2021-07-28T14:17:41Z</time>
      </trkpt>
      <trkpt lat="49.19931" lon="6.10938">
        <ele>269.7</ele>
        <time>2021-07-28T14:17:42Z</time>
      </trkpt>
      <trkpt lat="49.19933" lon="6.10947">
        <ele>269.7</ele>
        <time>2021-07-28T14:17:43Z</time>
      </trkpt>
      <trkpt lat="49.19935" lon="6.10955">
        <ele>269.7</ele>
        <time>2021-07-28T14:17:44Z</time>
      </trkpt>
      <trkpt lat="49.19937" lon="6.10962">
        <ele>269.7</ele>
        <time>2021-07-28T14:17:46Z</time>
      </trkpt>
      <trkpt lat="49.19938" lon="6.10967">
        <ele>269.7</ele>
        <time>2021-07-28T14:17:47Z</time>
      </trkpt>
      <trkpt lat="49.19939" lon="6.10972">
        <ele>269.7</ele>
        <time>2021-07-28T14:17:48Z</time>
      </trkpt>
      <trkpt lat="49.19941" lon="6.10981">
        <ele>269.7</ele>
        <time>2021-07-28T14:17:49Z</time>
      </trkpt>
      <trkpt lat="49.19943" lon="6.10989">
        <ele>269.7</ele>
        <time>2021-07-28T14:17:51Z</time>
      </trkpt>
      <trkpt lat="49.19945" lon="6.10998">
        <ele>269.8</ele>
        <time>2021-07-28T14:17:53Z</time>
      </trkpt>
      <trkpt lat="49.19946" lon="6.11002">
        <ele>269.8</ele>
        <time>2021-07-28T14:17:54Z</time>
      </trkpt>
      <trkpt lat="49.19947" lon="6.11006">
        <ele>269.8</ele>
        <time>2021-07-28T14:17:55Z</time>
      </trkpt>
      <trkpt lat="49.1995" lon="6.11016">
        <ele>269.8</ele>
        <time>2021-07-28T14:17:57Z</time>
      </trkpt>
      <trkpt lat="49.19951" lon="6.11021">
        <ele>269.8</ele>
        <time>2021-07-28T14:17:58Z</time>
      </trkpt>
      <trkpt lat="49.19952" lon="6.11025">
        <ele>269.8</ele>
        <time>2021-07-28T14:17:59Z</time>
      </trkpt>
      <trkpt lat="49.19954" lon="6.11029">
        <ele>269.8</ele>
        <time>2021-07-28T14:18:00Z</time>
      </trkpt>
      <trkpt lat="49.19955" lon="6.11034">
        <ele>269.8</ele>
        <time>2021-07-28T14:18:01Z</time>
      </trkpt>
      <trkpt lat="49.19956" lon="6.11038">
        <ele>269.8</ele>
        <time>2021-07-28T14:18:02Z</time>
      </trkpt>
      <trkpt lat="49.19956" lon="6.11043">
        <ele>269.9</ele>
        <time>2021-07-28T14:18:04Z</time>
      </trkpt>
      <trkpt lat="49.19957" lon="6.11047">
        <ele>269.9</ele>
        <time>2021-07-28T14:18:05Z</time>
      </trkpt>
      <trkpt lat="49.19958" lon="6.11053">
        <ele>269.9</ele>
        <time>2021-07-28T14:18:06Z</time>
      </trkpt>
      <trkpt lat="49.19959" lon="6.11057">
        <ele>269.9</ele>
        <time>2021-07-28T14:18:07Z</time>
      </trkpt>
      <trkpt lat="49.19962" lon="6.11066">
        <ele>269.9</ele>
        <time>2021-07-28T14:18:08Z</time>
      </trkpt>
      <trkpt lat="49.19964" lon="6.11074">
        <ele>269.9</ele>
        <time>2021-07-28T14:18:10Z</time>
      </trkpt>
      <trkpt lat="49.19965" lon="6.11081">
        <ele>269.9</ele>
        <time>2021-07-28T14:18:11Z</time>
      </trkpt>
      <trkpt lat="49.19967" lon="6.11086">
        <ele>270</ele>
        <time>2021-07-28T14:18:12Z</time>
      </trkpt>
      <trkpt lat="49.19969" lon="6.11094">
        <ele>270</ele>
        <time>2021-07-28T14:18:13Z</time>
      </trkpt>
      <trkpt lat="49.1997" lon="6.11101">
        <ele>270</ele>
        <time>2021-07-28T14:18:14Z</time>
      </trkpt>
      <trkpt lat="49.19971" lon="6.11108">
        <ele>270.1</ele>
        <time>2021-07-28T14:18:16Z</time>
      </trkpt>
      <trkpt lat="49.19972" lon="6.11113">
        <ele>270.1</ele>
        <time>2021-07-28T14:18:17Z</time>
      </trkpt>
      <trkpt lat="49.19973" lon="6.11119">
        <ele>270.1</ele>
        <time>2021-07-28T14:18:18Z</time>
      </trkpt>
      <trkpt lat="49.19974" lon="6.11121">
        <ele>270.1</ele>
        <time>2021-07-28T14:18:19Z</time>
      </trkpt>
      <trkpt lat="49.19976" lon="6.11126">
        <ele>270.2</ele>
        <time>2021-07-28T14:18:20Z</time>
      </trkpt>
      <trkpt lat="49.19978" lon="6.1113">
        <ele>270.2</ele>
        <time>2021-07-28T14:18:21Z</time>
      </trkpt>
      <trkpt lat="49.19979" lon="6.11135">
        <ele>270.2</ele>
        <time>2021-07-28T14:18:23Z</time>
      </trkpt>
      <trkpt lat="49.1998" lon="6.1114">
        <ele>270.2</ele>
        <time>2021-07-28T14:18:24Z</time>
      </trkpt>
      <trkpt lat="49.19982" lon="6.11145">
        <ele>270.2</ele>
        <time>2021-07-28T14:18:25Z</time>
      </trkpt>
      <trkpt lat="49.19984" lon="6.11148">
        <ele>270.2</ele>
        <time>2021-07-28T14:18:27Z</time>
      </trkpt>
      <trkpt lat="49.19985" lon="6.11152">
        <ele>270.2</ele>
        <time>2021-07-28T14:18:28Z</time>
      </trkpt>
      <trkpt lat="49.19986" lon="6.11156">
        <ele>270.2</ele>
        <time>2021-07-28T14:18:29Z</time>
      </trkpt>
      <trkpt lat="49.19987" lon="6.11161">
        <ele>270.2</ele>
        <time>2021-07-28T14:18:30Z</time>
      </trkpt>
      <trkpt lat="49.19988" lon="6.11165">
        <ele>270.2</ele>
        <time>2021-07-28T14:18:31Z</time>
      </trkpt>
      <trkpt lat="49.19988" lon="6.11167">
        <ele>270.2</ele>
        <time>2021-07-28T14:18:32Z</time>
      </trkpt>
      <trkpt lat="49.19991" lon="6.11174">
        <ele>270.2</ele>
        <time>2021-07-28T14:18:34Z</time>
      </trkpt>
      <trkpt lat="49.19992" lon="6.11179">
        <ele>270.2</ele>
        <time>2021-07-28T14:18:35Z</time>
      </trkpt>
      <trkpt lat="49.19993" lon="6.11185">
        <ele>270.2</ele>
        <time>2021-07-28T14:18:36Z</time>
      </trkpt>
      <trkpt lat="49.19994" lon="6.11195">
        <ele>270.3</ele>
        <time>2021-07-28T14:18:38Z</time>
      </trkpt>
      <trkpt lat="49.19995" lon="6.112">
        <ele>270.3</ele>
        <time>2021-07-28T14:18:39Z</time>
      </trkpt>
      <trkpt lat="49.19997" lon="6.11206">
        <ele>270.4</ele>
        <time>2021-07-28T14:18:41Z</time>
      </trkpt>
      <trkpt lat="49.19997" lon="6.11208">
        <ele>270.4</ele>
        <time>2021-07-28T14:18:42Z</time>
      </trkpt>
      <trkpt lat="49.19998" lon="6.11214">
        <ele>270.4</ele>
        <time>2021-07-28T14:18:44Z</time>
      </trkpt>
      <trkpt lat="49.2" lon="6.11222">
        <ele>270.6</ele>
        <time>2021-07-28T14:18:46Z</time>
      </trkpt>
      <trkpt lat="49.20002" lon="6.11227">
        <ele>270.6</ele>
        <time>2021-07-28T14:18:47Z</time>
      </trkpt>
      <trkpt lat="49.20002" lon="6.11231">
        <ele>270.7</ele>
        <time>2021-07-28T14:18:48Z</time>
      </trkpt>
      <trkpt lat="49.20005" lon="6.11237">
        <ele>270.8</ele>
        <time>2021-07-28T14:18:50Z</time>
      </trkpt>
      <trkpt lat="49.20006" lon="6.1124">
        <ele>270.9</ele>
        <time>2021-07-28T14:18:51Z</time>
      </trkpt>
      <trkpt lat="49.20007" lon="6.11244">
        <ele>271</ele>
        <time>2021-07-28T14:18:53Z</time>
      </trkpt>
      <trkpt lat="49.20008" lon="6.11247">
        <ele>271</ele>
        <time>2021-07-28T14:18:54Z</time>
      </trkpt>
      <trkpt lat="49.2001" lon="6.11252">
        <ele>271.1</ele>
        <time>2021-07-28T14:18:56Z</time>
      </trkpt>
      <trkpt lat="49.20011" lon="6.11256">
        <ele>271.2</ele>
        <time>2021-07-28T14:18:57Z</time>
      </trkpt>
      <trkpt lat="49.20011" lon="6.11258">
        <ele>271.3</ele>
        <time>2021-07-28T14:18:58Z</time>
      </trkpt>
      <trkpt lat="49.20012" lon="6.11261">
        <ele>271.3</ele>
        <time>2021-07-28T14:18:59Z</time>
      </trkpt>
      <trkpt lat="49.20012" lon="6.11263">
        <ele>271.4</ele>
        <time>2021-07-28T14:19:01Z</time>
      </trkpt>
      <trkpt lat="49.20012" lon="6.11264">
        <ele>271.4</ele>
        <time>2021-07-28T14:19:02Z</time>
      </trkpt>
      <trkpt lat="49.20012" lon="6.11266">
        <ele>271.5</ele>
        <time>2021-07-28T14:19:04Z</time>
      </trkpt>
      <trkpt lat="49.20013" lon="6.11268">
        <ele>271.5</ele>
        <time>2021-07-28T14:19:05Z</time>
      </trkpt>
      <trkpt lat="49.20014" lon="6.11271">
        <ele>271.6</ele>
        <time>2021-07-28T14:19:06Z</time>
      </trkpt>
      <trkpt lat="49.20015" lon="6.11274">
        <ele>271.7</ele>
        <time>2021-07-28T14:19:08Z</time>
      </trkpt>
      <trkpt lat="49.20017" lon="6.11277">
        <ele>271.9</ele>
        <time>2021-07-28T14:19:09Z</time>
      </trkpt>
      <trkpt lat="49.2002" lon="6.1128">
        <ele>272</ele>
        <time>2021-07-28T14:19:11Z</time>
      </trkpt>
      <trkpt lat="49.20021" lon="6.11281">
        <ele>272.1</ele>
        <time>2021-07-28T14:19:12Z</time>
      </trkpt>
      <trkpt lat="49.20022" lon="6.11284">
        <ele>272.2</ele>
        <time>2021-07-28T14:19:14Z</time>
      </trkpt>
      <trkpt lat="49.20023" lon="6.11289">
        <ele>272.4</ele>
        <time>2021-07-28T14:19:15Z</time>
      </trkpt>
      <trkpt lat="49.20024" lon="6.11291">
        <ele>272.5</ele>
        <time>2021-07-28T14:19:16Z</time>
      </trkpt>
      <trkpt lat="49.20024" lon="6.11295">
        <ele>272.7</ele>
        <time>2021-07-28T14:19:18Z</time>
      </trkpt>
      <trkpt lat="49.20024" lon="6.11298">
        <ele>272.8</ele>
        <time>2021-07-28T14:19:20Z</time>
      </trkpt>
      <trkpt lat="49.20023" lon="6.11299">
        <ele>272.9</ele>
        <time>2021-07-28T14:19:21Z</time>
      </trkpt>
      <trkpt lat="49.20023" lon="6.113">
        <ele>273</ele>
        <time>2021-07-28T14:19:22Z</time>
      </trkpt>
      <trkpt lat="49.20023" lon="6.11302">
        <ele>273</ele>
        <time>2021-07-28T14:19:24Z</time>
      </trkpt>
      <trkpt lat="49.20023" lon="6.11303">
        <ele>273.1</ele>
        <time>2021-07-28T14:19:26Z</time>
      </trkpt>
      <trkpt lat="49.20023" lon="6.11305">
        <ele>273.2</ele>
        <time>2021-07-28T14:19:27Z</time>
      </trkpt>
      <trkpt lat="49.20023" lon="6.11306">
        <ele>273.2</ele>
        <time>2021-07-28T14:19:28Z</time>
      </trkpt>
      <trkpt lat="49.20023" lon="6.11308">
        <ele>273.3</ele>
        <time>2021-07-28T14:20:08Z</time>
      </trkpt>
      <trkpt lat="49.20023" lon="6.1131">
        <ele>273.4</ele>
        <time>2021-07-28T14:20:09Z</time>
      </trkpt>
      <trkpt lat="49.20024" lon="6.11316">
        <ele>273.7</ele>
        <time>2021-07-28T14:20:11Z</time>
      </trkpt>
      <trkpt lat="49.20024" lon="6.11319">
        <ele>273.8</ele>
        <time>2021-07-28T14:20:13Z</time>
      </trkpt>
      <trkpt lat="49.20025" lon="6.11322">
        <ele>273.9</ele>
        <time>2021-07-28T14:20:14Z</time>
      </trkpt>
      <trkpt lat="49.20025" lon="6.11324">
        <ele>274</ele>
        <time>2021-07-28T14:20:15Z</time>
      </trkpt>
      <trkpt lat="49.20026" lon="6.11326">
        <ele>274.1</ele>
        <time>2021-07-28T14:20:16Z</time>
      </trkpt>
      <trkpt lat="49.20027" lon="6.11329">
        <ele>274.2</ele>
        <time>2021-07-28T14:20:17Z</time>
      </trkpt>
      <trkpt lat="49.20027" lon="6.1133">
        <ele>274.3</ele>
        <time>2021-07-28T14:20:19Z</time>
      </trkpt>
      <trkpt lat="49.20028" lon="6.1133">
        <ele>274.3</ele>
        <time>2021-07-28T14:20:20Z</time>
      </trkpt>
      <trkpt lat="49.20029" lon="6.11333">
        <ele>274.4</ele>
        <time>2021-07-28T14:20:21Z</time>
      </trkpt>
      <trkpt lat="49.20032" lon="6.11336">
        <ele>274.6</ele>
        <time>2021-07-28T14:20:23Z</time>
      </trkpt>
      <trkpt lat="49.20033" lon="6.11337">
        <ele>274.7</ele>
        <time>2021-07-28T14:20:24Z</time>
      </trkpt>
      <trkpt lat="49.20034" lon="6.11337">
        <ele>274.7</ele>
        <time>2021-07-28T14:20:26Z</time>
      </trkpt>
      <trkpt lat="49.20035" lon="6.11338">
        <ele>274.8</ele>
        <time>2021-07-28T14:20:27Z</time>
      </trkpt>
      <trkpt lat="49.20035" lon="6.11339">
        <ele>274.8</ele>
        <time>2021-07-28T14:20:28Z</time>
      </trkpt>
      <trkpt lat="49.20037" lon="6.11341">
        <ele>274.9</ele>
        <time>2021-07-28T14:20:29Z</time>
      </trkpt>
      <trkpt lat="49.20038" lon="6.11343">
        <ele>275</ele>
        <time>2021-07-28T14:20:30Z</time>
      </trkpt>
      <trkpt lat="49.20039" lon="6.11346">
        <ele>275.1</ele>
        <time>2021-07-28T14:20:32Z</time>
      </trkpt>
      <trkpt lat="49.2004" lon="6.11347">
        <ele>275.1</ele>
        <time>2021-07-28T14:20:33Z</time>
      </trkpt>
      <trkpt lat="49.2004" lon="6.11348">
        <ele>275.1</ele>
        <time>2021-07-28T14:20:34Z</time>
      </trkpt>
      <trkpt lat="49.2004" lon="6.11349">
        <ele>275.1</ele>
        <time>2021-07-28T14:20:35Z</time>
      </trkpt>
      <trkpt lat="49.2004" lon="6.11349">
        <ele>275.2</ele>
        <time>2021-07-28T14:20:36Z</time>
      </trkpt>
      <trkpt lat="49.2004" lon="6.11351">
        <ele>275.2</ele>
        <time>2021-07-28T14:20:37Z</time>
      </trkpt>
      <trkpt lat="49.20041" lon="6.11355">
        <ele>275.3</ele>
        <time>2021-07-28T14:20:39Z</time>
      </trkpt>
      <trkpt lat="49.20042" lon="6.11356">
        <ele>275.4</ele>
        <time>2021-07-28T14:20:40Z</time>
      </trkpt>
      <trkpt lat="49.20041" lon="6.11358">
        <ele>275.4</ele>
        <time>2021-07-28T14:20:41Z</time>
      </trkpt>
      <trkpt lat="49.20041" lon="6.11362">
        <ele>275.5</ele>
        <time>2021-07-28T14:20:43Z</time>
      </trkpt>
      <trkpt lat="49.20041" lon="6.11365">
        <ele>275.6</ele>
        <time>2021-07-28T14:20:44Z</time>
      </trkpt>
      <trkpt lat="49.20041" lon="6.11367">
        <ele>275.6</ele>
        <time>2021-07-28T14:20:46Z</time>
      </trkpt>
      <trkpt lat="49.20041" lon="6.1137">
        <ele>275.7</ele>
        <time>2021-07-28T14:20:47Z</time>
      </trkpt>
      <trkpt lat="49.20041" lon="6.11373">
        <ele>275.7</ele>
        <time>2021-07-28T14:20:48Z</time>
      </trkpt>
      <trkpt lat="49.20042" lon="6.11375">
        <ele>275.8</ele>
        <time>2021-07-28T14:20:49Z</time>
      </trkpt>
      <trkpt lat="49.20043" lon="6.11378">
        <ele>275.9</ele>
        <time>2021-07-28T14:20:50Z</time>
      </trkpt>
      <trkpt lat="49.20043" lon="6.1138">
        <ele>275.9</ele>
        <time>2021-07-28T14:20:51Z</time>
      </trkpt>
      <trkpt lat="49.20044" lon="6.11382">
        <ele>276</ele>
        <time>2021-07-28T14:20:52Z</time>
      </trkpt>
      <trkpt lat="49.20045" lon="6.11386">
        <ele>276.1</ele>
        <time>2021-07-28T14:20:54Z</time>
      </trkpt>
      <trkpt lat="49.20045" lon="6.11388">
        <ele>276.1</ele>
        <time>2021-07-28T14:20:55Z</time>
      </trkpt>
      <trkpt lat="49.20045" lon="6.1139">
        <ele>276.2</ele>
        <time>2021-07-28T14:20:56Z</time>
      </trkpt>
      <trkpt lat="49.20046" lon="6.11393">
        <ele>276.2</ele>
        <time>2021-07-28T14:20:57Z</time>
      </trkpt>
      <trkpt lat="49.20046" lon="6.11396">
        <ele>276.3</ele>
        <time>2021-07-28T14:20:58Z</time>
      </trkpt>
      <trkpt lat="49.20047" lon="6.11399">
        <ele>276.4</ele>
        <time>2021-07-28T14:21:00Z</time>
      </trkpt>
      <trkpt lat="49.20048" lon="6.11403">
        <ele>276.4</ele>
        <time>2021-07-28T14:21:01Z</time>
      </trkpt>
      <trkpt lat="49.20049" lon="6.11405">
        <ele>276.5</ele>
        <time>2021-07-28T14:21:02Z</time>
      </trkpt>
      <trkpt lat="49.20049" lon="6.11407">
        <ele>276.5</ele>
        <time>2021-07-28T14:21:03Z</time>
      </trkpt>
      <trkpt lat="49.20049" lon="6.11408">
        <ele>276.6</ele>
        <time>2021-07-28T14:21:04Z</time>
      </trkpt>
      <trkpt lat="49.20051" lon="6.11412">
        <ele>276.7</ele>
        <time>2021-07-28T14:21:06Z</time>
      </trkpt>
      <trkpt lat="49.20052" lon="6.11413">
        <ele>276.7</ele>
        <time>2021-07-28T14:21:07Z</time>
      </trkpt>
      <trkpt lat="49.20052" lon="6.11414">
        <ele>276.7</ele>
        <time>2021-07-28T14:21:08Z</time>
      </trkpt>
      <trkpt lat="49.20053" lon="6.11414">
        <ele>276.7</ele>
        <time>2021-07-28T14:21:09Z</time>
      </trkpt>
      <trkpt lat="49.20053" lon="6.11415">
        <ele>276.7</ele>
        <time>2021-07-28T14:21:10Z</time>
      </trkpt>
      <trkpt lat="49.20053" lon="6.11416">
        <ele>276.7</ele>
        <time>2021-07-28T14:21:12Z</time>
      </trkpt>
      <trkpt lat="49.20054" lon="6.11417">
        <ele>276.8</ele>
        <time>2021-07-28T14:21:13Z</time>
      </trkpt>
      <trkpt lat="49.20054" lon="6.11417">
        <ele>276.8</ele>
        <time>2021-07-28T14:21:15Z</time>
      </trkpt>
      <trkpt lat="49.20054" lon="6.11417">
        <ele>276.8</ele>
        <time>2021-07-28T14:21:16Z</time>
      </trkpt>
      <trkpt lat="49.20054" lon="6.11418">
        <ele>276.8</ele>
        <time>2021-07-28T14:21:18Z</time>
      </trkpt>
      <trkpt lat="49.20054" lon="6.11418">
        <ele>276.8</ele>
        <time>2021-07-28T14:21:19Z</time>
      </trkpt>
      <trkpt lat="49.20054" lon="6.11418">
        <ele>276.8</ele>
        <time>2021-07-28T14:21:21Z</time>
      </trkpt>
      <trkpt lat="49.20054" lon="6.11418">
        <ele>276.8</ele>
        <time>2021-07-28T14:21:22Z</time>
      </trkpt>
      <trkpt lat="49.20054" lon="6.11419">
        <ele>276.8</ele>
        <time>2021-07-28T14:21:24Z</time>
      </trkpt>
      <trkpt lat="49.20054" lon="6.11422">
        <ele>276.8</ele>
        <time>2021-07-28T14:21:26Z</time>
      </trkpt>
      <trkpt lat="49.20055" lon="6.11435">
        <ele>277</ele>
        <time>2021-07-28T14:21:30Z</time>
      </trkpt>
      <trkpt lat="49.20057" lon="6.1144">
        <ele>277.1</ele>
        <time>2021-07-28T14:21:32Z</time>
      </trkpt>
      <trkpt lat="49.2006" lon="6.11449">
        <ele>277.1</ele>
        <time>2021-07-28T14:21:33Z</time>
      </trkpt>
      <trkpt lat="49.20062" lon="6.11454">
        <ele>277.2</ele>
        <time>2021-07-28T14:21:34Z</time>
      </trkpt>
      <trkpt lat="49.20063" lon="6.11458">
        <ele>277.2</ele>
        <time>2021-07-28T14:21:35Z</time>
      </trkpt>
      <trkpt lat="49.20064" lon="6.11463">
        <ele>277.2</ele>
        <time>2021-07-28T14:21:36Z</time>
      </trkpt>
      <trkpt lat="49.20065" lon="6.11464">
        <ele>277.2</ele>
        <time>2021-07-28T14:21:37Z</time>
      </trkpt>
      <trkpt lat="49.20066" lon="6.11468">
        <ele>277.2</ele>
        <time>2021-07-28T14:21:39Z</time>
      </trkpt>
      <trkpt lat="49.20066" lon="6.11472">
        <ele>277.1</ele>
        <time>2021-07-28T14:21:40Z</time>
      </trkpt>
      <trkpt lat="49.20066" lon="6.11478">
        <ele>277.1</ele>
        <time>2021-07-28T14:21:41Z</time>
      </trkpt>
      <trkpt lat="49.20068" lon="6.11483">
        <ele>277</ele>
        <time>2021-07-28T14:21:43Z</time>
      </trkpt>
      <trkpt lat="49.20069" lon="6.11488">
        <ele>276.9</ele>
        <time>2021-07-28T14:21:44Z</time>
      </trkpt>
      <trkpt lat="49.2007" lon="6.11489">
        <ele>276.8</ele>
        <time>2021-07-28T14:21:45Z</time>
      </trkpt>
      <trkpt lat="49.20071" lon="6.11495">
        <ele>276.7</ele>
        <time>2021-07-28T14:21:46Z</time>
      </trkpt>
      <trkpt lat="49.20072" lon="6.11498">
        <ele>276.5</ele>
        <time>2021-07-28T14:21:48Z</time>
      </trkpt>
      <trkpt lat="49.20073" lon="6.11498">
        <ele>276.5</ele>
        <time>2021-07-28T14:21:49Z</time>
      </trkpt>
      <trkpt lat="49.20074" lon="6.11505">
        <ele>276.2</ele>
        <time>2021-07-28T14:21:50Z</time>
      </trkpt>
      <trkpt lat="49.20076" lon="6.11527">
        <ele>275.1</ele>
        <time>2021-07-28T14:21:52Z</time>
      </trkpt>
      <trkpt lat="49.20078" lon="6.11549">
        <ele>274.1</ele>
        <time>2021-07-28T14:21:54Z</time>
      </trkpt>
      <trkpt lat="49.20078" lon="6.11573">
        <ele>273</ele>
        <time>2021-07-28T14:21:56Z</time>
      </trkpt>
      <trkpt lat="49.20078" lon="6.11596">
        <ele>272.1</ele>
        <time>2021-07-28T14:21:58Z</time>
      </trkpt>
      <trkpt lat="49.20079" lon="6.11616">
        <ele>271.5</ele>
        <time>2021-07-28T14:22:00Z</time>
      </trkpt>
      <trkpt lat="49.2008" lon="6.11637">
        <ele>270.9</ele>
        <time>2021-07-28T14:22:02Z</time>
      </trkpt>
      <trkpt lat="49.2008" lon="6.11657">
        <ele>270.5</ele>
        <time>2021-07-28T14:22:04Z</time>
      </trkpt>
      <trkpt lat="49.20082" lon="6.11676">
        <ele>270.2</ele>
        <time>2021-07-28T14:22:06Z</time>
      </trkpt>
      <trkpt lat="49.20083" lon="6.11685">
        <ele>270.1</ele>
        <time>2021-07-28T14:22:07Z</time>
      </trkpt>
      <trkpt lat="49.20086" lon="6.11704">
        <ele>269.8</ele>
        <time>2021-07-28T14:22:09Z</time>
      </trkpt>
      <trkpt lat="49.20088" lon="6.11712">
        <ele>269.7</ele>
        <time>2021-07-28T14:22:10Z</time>
      </trkpt>
      <trkpt lat="49.20091" lon="6.11727">
        <ele>269.5</ele>
        <time>2021-07-28T14:22:12Z</time>
      </trkpt>
      <trkpt lat="49.20094" lon="6.11742">
        <ele>269.4</ele>
        <time>2021-07-28T14:22:14Z</time>
      </trkpt>
      <trkpt lat="49.20093" lon="6.11747">
        <ele>269.4</ele>
        <time>2021-07-28T14:22:15Z</time>
      </trkpt>
      <trkpt lat="49.20091" lon="6.11752">
        <ele>269.5</ele>
        <time>2021-07-28T14:22:16Z</time>
      </trkpt>
      <trkpt lat="49.20086" lon="6.11756">
        <ele>269.7</ele>
        <time>2021-07-28T14:22:18Z</time>
      </trkpt>
      <trkpt lat="49.20081" lon="6.11764">
        <ele>269.9</ele>
        <time>2021-07-28T14:22:20Z</time>
      </trkpt>
      <trkpt lat="49.20075" lon="6.11772">
        <ele>270.2</ele>
        <time>2021-07-28T14:22:22Z</time>
      </trkpt>
      <trkpt lat="49.20071" lon="6.1177">
        <ele>270.3</ele>
        <time>2021-07-28T14:22:23Z</time>
      </trkpt>
      <trkpt lat="49.20069" lon="6.11771">
        <ele>270.4</ele>
        <time>2021-07-28T14:22:24Z</time>
      </trkpt>
      <trkpt lat="49.20065" lon="6.11775">
        <ele>270.5</ele>
        <time>2021-07-28T14:22:26Z</time>
      </trkpt>
      <trkpt lat="49.2006" lon="6.11779">
        <ele>270.7</ele>
        <time>2021-07-28T14:22:28Z</time>
      </trkpt>
      <trkpt lat="49.20057" lon="6.11777">
        <ele>270.8</ele>
        <time>2021-07-28T14:22:29Z</time>
      </trkpt>
      <trkpt lat="49.20054" lon="6.11777">
        <ele>270.9</ele>
        <time>2021-07-28T14:22:30Z</time>
      </trkpt>
      <trkpt lat="49.20053" lon="6.11777">
        <ele>270.9</ele>
        <time>2021-07-28T14:22:32Z</time>
      </trkpt>
      <trkpt lat="49.20051" lon="6.11777">
        <ele>270.9</ele>
        <time>2021-07-28T14:22:34Z</time>
      </trkpt>
      <trkpt lat="49.2005" lon="6.11777">
        <ele>271</ele>
        <time>2021-07-28T14:22:35Z</time>
      </trkpt>
      <trkpt lat="49.20048" lon="6.11785">
        <ele>271</ele>
        <time>2021-07-28T14:22:37Z</time>
      </trkpt>
      <trkpt lat="49.20048" lon="6.11797">
        <ele>271.1</ele>
        <time>2021-07-28T14:22:39Z</time>
      </trkpt>
      <trkpt lat="49.20005" lon="6.11896">
        <ele>270.2</ele>
        <time>2021-07-28T14:23:08Z</time>
      </trkpt>
      <trkpt lat="49.2" lon="6.11904">
        <ele>270.1</ele>
        <time>2021-07-28T14:23:09Z</time>
      </trkpt>
      <trkpt lat="49.19994" lon="6.11914">
        <ele>269.9</ele>
        <time>2021-07-28T14:23:10Z</time>
      </trkpt>
      <trkpt lat="49.19987" lon="6.11926">
        <ele>269.7</ele>
        <time>2021-07-28T14:23:12Z</time>
      </trkpt>
      <trkpt lat="49.19976" lon="6.11936">
        <ele>269.7</ele>
        <time>2021-07-28T14:23:13Z</time>
      </trkpt>
      <trkpt lat="49.19958" lon="6.11942">
        <ele>269.8</ele>
        <time>2021-07-28T14:23:15Z</time>
      </trkpt>
      <trkpt lat="49.1995" lon="6.11941">
        <ele>269.9</ele>
        <time>2021-07-28T14:23:16Z</time>
      </trkpt>
      <trkpt lat="49.19944" lon="6.11941">
        <ele>270</ele>
        <time>2021-07-28T14:23:18Z</time>
      </trkpt>
      <trkpt lat="49.19942" lon="6.11939">
        <ele>270</ele>
        <time>2021-07-28T14:23:19Z</time>
      </trkpt>
      <trkpt lat="49.19941" lon="6.1194">
        <ele>270</ele>
        <time>2021-07-28T14:23:20Z</time>
      </trkpt>
      <trkpt lat="49.1994" lon="6.11944">
        <ele>270.1</ele>
        <time>2021-07-28T14:23:22Z</time>
      </trkpt>
      <trkpt lat="49.19939" lon="6.1195">
        <ele>270.2</ele>
        <time>2021-07-28T14:23:23Z</time>
      </trkpt>
      <trkpt lat="49.1994" lon="6.11955">
        <ele>270.3</ele>
        <time>2021-07-28T14:23:24Z</time>
      </trkpt>
      <trkpt lat="49.19941" lon="6.1196">
        <ele>270.4</ele>
        <time>2021-07-28T14:23:25Z</time>
      </trkpt>
      <trkpt lat="49.1994" lon="6.11967">
        <ele>270.6</ele>
        <time>2021-07-28T14:23:27Z</time>
      </trkpt>
      <trkpt lat="49.1994" lon="6.11969">
        <ele>270.6</ele>
        <time>2021-07-28T14:23:28Z</time>
      </trkpt>
      <trkpt lat="49.1994" lon="6.11972">
        <ele>270.7</ele>
        <time>2021-07-28T14:23:29Z</time>
      </trkpt>
      <trkpt lat="49.19939" lon="6.11974">
        <ele>270.7</ele>
        <time>2021-07-28T14:23:30Z</time>
      </trkpt>
      <trkpt lat="49.19938" lon="6.11975">
        <ele>270.8</ele>
        <time>2021-07-28T14:23:31Z</time>
      </trkpt>
      <trkpt lat="49.19936" lon="6.11977">
        <ele>270.9</ele>
        <time>2021-07-28T14:23:32Z</time>
      </trkpt>
      <trkpt lat="49.19934" lon="6.11981">
        <ele>271</ele>
        <time>2021-07-28T14:23:34Z</time>
      </trkpt>
      <trkpt lat="49.19932" lon="6.11987">
        <ele>271.1</ele>
        <time>2021-07-28T14:23:36Z</time>
      </trkpt>
      <trkpt lat="49.1993" lon="6.11991">
        <ele>271.1</ele>
        <time>2021-07-28T14:23:37Z</time>
      </trkpt>
      <trkpt lat="49.1993" lon="6.11993">
        <ele>271.2</ele>
        <time>2021-07-28T14:23:38Z</time>
      </trkpt>
      <trkpt lat="49.19929" lon="6.11999">
        <ele>271.2</ele>
        <time>2021-07-28T14:23:40Z</time>
      </trkpt>
      <trkpt lat="49.19929" lon="6.12001">
        <ele>271.2</ele>
        <time>2021-07-28T14:23:41Z</time>
      </trkpt>
      <trkpt lat="49.1993" lon="6.12004">
        <ele>271.2</ele>
        <time>2021-07-28T14:23:42Z</time>
      </trkpt>
      <trkpt lat="49.19929" lon="6.12012">
        <ele>271.1</ele>
        <time>2021-07-28T14:23:45Z</time>
      </trkpt>
      <trkpt lat="49.19927" lon="6.12017">
        <ele>271</ele>
        <time>2021-07-28T14:23:46Z</time>
      </trkpt>
      <trkpt lat="49.19923" lon="6.12026">
        <ele>270.7</ele>
        <time>2021-07-28T14:23:48Z</time>
      </trkpt>
      <trkpt lat="49.19919" lon="6.12032">
        <ele>270.4</ele>
        <time>2021-07-28T14:23:49Z</time>
      </trkpt>
      <trkpt lat="49.19915" lon="6.12042">
        <ele>270</ele>
        <time>2021-07-28T14:23:50Z</time>
      </trkpt>
      <trkpt lat="49.19908" lon="6.1205">
        <ele>269.5</ele>
        <time>2021-07-28T14:23:52Z</time>
      </trkpt>
      <trkpt lat="49.19904" lon="6.12053">
        <ele>269.3</ele>
        <time>2021-07-28T14:23:53Z</time>
      </trkpt>
      <trkpt lat="49.19898" lon="6.12059">
        <ele>269.1</ele>
        <time>2021-07-28T14:23:54Z</time>
      </trkpt>
      <trkpt lat="49.19892" lon="6.12064">
        <ele>268.9</ele>
        <time>2021-07-28T14:23:56Z</time>
      </trkpt>
      <trkpt lat="49.19881" lon="6.12072">
        <ele>268.8</ele>
        <time>2021-07-28T14:23:57Z</time>
      </trkpt>
      <trkpt lat="49.19872" lon="6.12078">
        <ele>268.8</ele>
        <time>2021-07-28T14:23:59Z</time>
      </trkpt>
      <trkpt lat="49.19869" lon="6.12079">
        <ele>268.8</ele>
        <time>2021-07-28T14:24:00Z</time>
      </trkpt>
      <trkpt lat="49.19862" lon="6.1208">
        <ele>268.9</ele>
        <time>2021-07-28T14:24:02Z</time>
      </trkpt>
      <trkpt lat="49.19857" lon="6.12079">
        <ele>268.9</ele>
        <time>2021-07-28T14:24:04Z</time>
      </trkpt>
      <trkpt lat="49.19857" lon="6.12076">
        <ele>269</ele>
        <time>2021-07-28T14:24:05Z</time>
      </trkpt>
      <trkpt lat="49.19856" lon="6.12075">
        <ele>269</ele>
        <time>2021-07-28T14:24:06Z</time>
      </trkpt>
      <trkpt lat="49.19859" lon="6.12071">
        <ele>269</ele>
        <time>2021-07-28T14:24:08Z</time>
      </trkpt>
      <trkpt lat="49.1986" lon="6.12068">
        <ele>269</ele>
        <time>2021-07-28T14:24:09Z</time>
      </trkpt>
      <trkpt lat="49.19861" lon="6.12067">
        <ele>269</ele>
        <time>2021-07-28T14:24:10Z</time>
      </trkpt>
      <trkpt lat="49.19861" lon="6.12067">
        <ele>269.1</ele>
        <time>2021-07-28T14:24:12Z</time>
      </trkpt>
      <trkpt lat="49.19862" lon="6.12066">
        <ele>269.3</ele>
        <time>2021-07-28T14:24:13Z</time>
      </trkpt>
      <trkpt lat="49.19862" lon="6.12066">
        <ele>269.4</ele>
        <time>2021-07-28T14:24:14Z</time>
      </trkpt>
      <trkpt lat="49.19862" lon="6.12066">
        <ele>269.7</ele>
        <time>2021-07-28T14:24:16Z</time>
      </trkpt>
      <trkpt lat="49.19891" lon="6.12176">
        <ele>256.5</ele>
        <time>2021-07-28T14:24:50Z</time>
      </trkpt>
      <trkpt lat="49.19905" lon="6.12247">
        <ele>251.1</ele>
        <time>2021-07-28T14:25:01Z</time>
      </trkpt>
      <trkpt lat="49.19912" lon="6.12276">
        <ele>250.1</ele>
        <time>2021-07-28T14:25:07Z</time>
      </trkpt>
      <trkpt lat="49.19914" lon="6.12284">
        <ele>250</ele>
        <time>2021-07-28T14:25:11Z</time>
      </trkpt>
      <trkpt lat="49.19909" lon="6.12247">
        <ele>251.9</ele>
        <time>2021-07-28T14:25:17Z</time>
      </trkpt>
      <trkpt lat="49.19861" lon="6.12088">
        <ele>269.1</ele>
        <time>2021-07-28T14:25:25Z</time>
      </trkpt>
      <trkpt lat="49.19857" lon="6.12075">
        <ele>269.7</ele>
        <time>2021-07-28T14:25:27Z</time>
      </trkpt>
      <trkpt lat="49.19857" lon="6.12073">
        <ele>269.8</ele>
        <time>2021-07-28T14:25:28Z</time>
      </trkpt>
      <trkpt lat="49.19856" lon="6.12072">
        <ele>269.9</ele>
        <time>2021-07-28T14:25:30Z</time>
      </trkpt>
      <trkpt lat="49.19856" lon="6.12072">
        <ele>269.9</ele>
        <time>2021-07-28T14:25:31Z</time>
      </trkpt>
      <trkpt lat="49.19856" lon="6.12072">
        <ele>269.9</ele>
        <time>2021-07-28T14:25:32Z</time>
      </trkpt>
      <trkpt lat="49.19855" lon="6.1207">
        <ele>270</ele>
        <time>2021-07-28T14:25:34Z</time>
      </trkpt>
      <trkpt lat="49.19854" lon="6.12067">
        <ele>270.2</ele>
        <time>2021-07-28T14:25:36Z</time>
      </trkpt>
      <trkpt lat="49.19854" lon="6.12063">
        <ele>270.4</ele>
        <time>2021-07-28T14:25:38Z</time>
      </trkpt>
      <trkpt lat="49.19854" lon="6.12062">
        <ele>270.5</ele>
        <time>2021-07-28T14:25:39Z</time>
      </trkpt>
      <trkpt lat="49.19854" lon="6.12061">
        <ele>270.5</ele>
        <time>2021-07-28T14:25:42Z</time>
      </trkpt>
      <trkpt lat="49.19854" lon="6.1206">
        <ele>270.6</ele>
        <time>2021-07-28T14:25:43Z</time>
      </trkpt>
      <trkpt lat="49.19854" lon="6.1206">
        <ele>270.6</ele>
        <time>2021-07-28T14:25:44Z</time>
      </trkpt>
      <trkpt lat="49.19855" lon="6.12059">
        <ele>270.6</ele>
        <time>2021-07-28T14:25:45Z</time>
      </trkpt>
      <trkpt lat="49.19855" lon="6.12059">
        <ele>270.6</ele>
        <time>2021-07-28T14:25:47Z</time>
      </trkpt>
      <trkpt lat="49.19855" lon="6.1206">
        <ele>270.7</ele>
        <time>2021-07-28T14:25:48Z</time>
      </trkpt>
      <trkpt lat="49.19854" lon="6.12063">
        <ele>270.9</ele>
        <time>2021-07-28T14:25:50Z</time>
      </trkpt>
      <trkpt lat="49.19854" lon="6.12067">
        <ele>271.1</ele>
        <time>2021-07-28T14:25:51Z</time>
      </trkpt>
      <trkpt lat="49.19854" lon="6.12071">
        <ele>271.3</ele>
        <time>2021-07-28T14:25:53Z</time>
      </trkpt>
      <trkpt lat="49.19853" lon="6.12073">
        <ele>271.4</ele>
        <time>2021-07-28T14:25:55Z</time>
      </trkpt>
      <trkpt lat="49.19853" lon="6.12074">
        <ele>271.4</ele>
        <time>2021-07-28T14:25:56Z</time>
      </trkpt>
      <trkpt lat="49.19853" lon="6.12074">
        <ele>271.5</ele>
        <time>2021-07-28T14:25:57Z</time>
      </trkpt>
      <trkpt lat="49.19853" lon="6.12075">
        <ele>271.5</ele>
        <time>2021-07-28T14:25:59Z</time>
      </trkpt>
      <trkpt lat="49.19853" lon="6.12075">
        <ele>271.5</ele>
        <time>2021-07-28T14:26:00Z</time>
      </trkpt>
      <trkpt lat="49.19853" lon="6.12075">
        <ele>271.5</ele>
        <time>2021-07-28T14:26:01Z</time>
      </trkpt>
      <trkpt lat="49.19853" lon="6.12076">
        <ele>271.6</ele>
        <time>2021-07-28T14:26:03Z</time>
      </trkpt>
      <trkpt lat="49.19853" lon="6.12076">
        <ele>271.6</ele>
        <time>2021-07-28T14:26:05Z</time>
      </trkpt>
      <trkpt lat="49.19854" lon="6.12076">
        <ele>271.6</ele>
        <time>2021-07-28T14:26:07Z</time>
      </trkpt>
      <trkpt lat="49.19854" lon="6.12075">
        <ele>271.6</ele>
        <time>2021-07-28T14:26:09Z</time>
      </trkpt>
      <trkpt lat="49.19854" lon="6.12075">
        <ele>271.7</ele>
        <time>2021-07-28T14:26:11Z</time>
      </trkpt>
      <trkpt lat="49.19854" lon="6.12075">
        <ele>271.7</ele>
        <time>2021-07-28T14:26:13Z</time>
      </trkpt>
      <trkpt lat="49.19853" lon="6.12075">
        <ele>271.7</ele>
        <time>2021-07-28T14:26:15Z</time>
      </trkpt>
      <trkpt lat="49.19853" lon="6.12074">
        <ele>271.8</ele>
        <time>2021-07-28T14:26:17Z</time>
      </trkpt>
      <trkpt lat="49.19853" lon="6.12074">
        <ele>271.8</ele>
        <time>2021-07-28T14:26:18Z</time>
      </trkpt>
      <trkpt lat="49.19853" lon="6.12073">
        <ele>271.8</ele>
        <time>2021-07-28T14:26:19Z</time>
      </trkpt>
      <trkpt lat="49.19853" lon="6.12073">
        <ele>271.8</ele>
        <time>2021-07-28T14:26:20Z</time>
      </trkpt>
      <trkpt lat="49.19852" lon="6.12072">
        <ele>271.9</ele>
        <time>2021-07-28T14:26:22Z</time>
      </trkpt>
      <trkpt lat="49.19852" lon="6.12071">
        <ele>271.9</ele>
        <time>2021-07-28T14:26:24Z</time>
      </trkpt>
      <trkpt lat="49.19852" lon="6.12071">
        <ele>272</ele>
        <time>2021-07-28T14:26:25Z</time>
      </trkpt>
      <trkpt lat="49.19852" lon="6.1207">
        <ele>272</ele>
        <time>2021-07-28T14:26:26Z</time>
      </trkpt>
      <trkpt lat="49.19851" lon="6.12067">
        <ele>272.2</ele>
        <time>2021-07-28T14:26:28Z</time>
      </trkpt>
      <trkpt lat="49.19847" lon="6.12048">
        <ele>273.3</ele>
        <time>2021-07-28T14:26:30Z</time>
      </trkpt>
      <trkpt lat="49.19842" lon="6.12032">
        <ele>274.4</ele>
        <time>2021-07-28T14:26:31Z</time>
      </trkpt>
      <trkpt lat="49.1984" lon="6.12035">
        <ele>274.6</ele>
        <time>2021-07-28T14:26:33Z</time>
      </trkpt>
      <trkpt lat="49.1984" lon="6.12038">
        <ele>274.8</ele>
        <time>2021-07-28T14:26:34Z</time>
      </trkpt>
      <trkpt lat="49.19842" lon="6.12043">
        <ele>275.1</ele>
        <time>2021-07-28T14:26:36Z</time>
      </trkpt>
      <trkpt lat="49.19843" lon="6.12046">
        <ele>275.3</ele>
        <time>2021-07-28T14:26:37Z</time>
      </trkpt>
      <trkpt lat="49.19844" lon="6.12047">
        <ele>275.4</ele>
        <time>2021-07-28T14:26:38Z</time>
      </trkpt>
      <trkpt lat="49.19844" lon="6.12048">
        <ele>275.4</ele>
        <time>2021-07-28T14:26:39Z</time>
      </trkpt>
      <trkpt lat="49.19845" lon="6.1205">
        <ele>275.6</ele>
        <time>2021-07-28T14:26:41Z</time>
      </trkpt>
      <trkpt lat="49.19845" lon="6.12051">
        <ele>275.7</ele>
        <time>2021-07-28T14:26:42Z</time>
      </trkpt>
      <trkpt lat="49.19846" lon="6.12052">
        <ele>275.7</ele>
        <time>2021-07-28T14:26:43Z</time>
      </trkpt>
      <trkpt lat="49.19845" lon="6.12053">
        <ele>275.8</ele>
        <time>2021-07-28T14:26:45Z</time>
      </trkpt>
      <trkpt lat="49.19845" lon="6.12053">
        <ele>275.8</ele>
        <time>2021-07-28T14:26:46Z</time>
      </trkpt>
      <trkpt lat="49.19844" lon="6.12053">
        <ele>275.8</ele>
        <time>2021-07-28T14:26:48Z</time>
      </trkpt>
      <trkpt lat="49.19844" lon="6.12054">
        <ele>275.9</ele>
        <time>2021-07-28T14:26:49Z</time>
      </trkpt>
      <trkpt lat="49.19843" lon="6.12054">
        <ele>275.9</ele>
        <time>2021-07-28T14:26:50Z</time>
      </trkpt>
      <trkpt lat="49.19843" lon="6.12054">
        <ele>276</ele>
        <time>2021-07-28T14:26:52Z</time>
      </trkpt>
      <trkpt lat="49.19843" lon="6.12054">
        <ele>276</ele>
        <time>2021-07-28T14:26:53Z</time>
      </trkpt>
      <trkpt lat="49.19842" lon="6.12054">
        <ele>276</ele>
        <time>2021-07-28T14:26:54Z</time>
      </trkpt>
      <trkpt lat="49.19842" lon="6.12055">
        <ele>276.1</ele>
        <time>2021-07-28T14:26:56Z</time>
      </trkpt>
      <trkpt lat="49.19841" lon="6.12055">
        <ele>276.1</ele>
        <time>2021-07-28T14:26:57Z</time>
      </trkpt>
      <trkpt lat="49.19841" lon="6.12055">
        <ele>276.2</ele>
        <time>2021-07-28T14:26:58Z</time>
      </trkpt>
      <trkpt lat="49.1984" lon="6.12055">
        <ele>276.2</ele>
        <time>2021-07-28T14:27:00Z</time>
      </trkpt>
      <trkpt lat="49.1984" lon="6.12056">
        <ele>276.2</ele>
        <time>2021-07-28T14:27:01Z</time>
      </trkpt>
      <trkpt lat="49.19837" lon="6.12051">
        <ele>276.5</ele>
        <time>2021-07-28T14:27:03Z</time>
      </trkpt>
      <trkpt lat="49.19837" lon="6.12049">
        <ele>276.6</ele>
        <time>2021-07-28T14:27:04Z</time>
      </trkpt>
      <trkpt lat="49.19836" lon="6.12047">
        <ele>276.7</ele>
        <time>2021-07-28T14:27:05Z</time>
      </trkpt>
      <trkpt lat="49.19836" lon="6.12046">
        <ele>276.8</ele>
        <time>2021-07-28T14:27:07Z</time>
      </trkpt>
      <trkpt lat="49.19836" lon="6.12046">
        <ele>276.8</ele>
        <time>2021-07-28T14:27:08Z</time>
      </trkpt>
      <trkpt lat="49.19836" lon="6.12045">
        <ele>276.8</ele>
        <time>2021-07-28T14:27:09Z</time>
      </trkpt>
      <trkpt lat="49.19836" lon="6.12044">
        <ele>276.9</ele>
        <time>2021-07-28T14:27:11Z</time>
      </trkpt>
      <trkpt lat="49.19836" lon="6.12043">
        <ele>276.9</ele>
        <time>2021-07-28T14:27:12Z</time>
      </trkpt>
      <trkpt lat="49.19836" lon="6.12043">
        <ele>276.9</ele>
        <time>2021-07-28T14:27:13Z</time>
      </trkpt>
      <trkpt lat="49.19836" lon="6.12042">
        <ele>277</ele>
        <time>2021-07-28T14:27:15Z</time>
      </trkpt>
      <trkpt lat="49.19836" lon="6.12041">
        <ele>277</ele>
        <time>2021-07-28T14:27:16Z</time>
      </trkpt>
      <trkpt lat="49.19836" lon="6.12042">
        <ele>277</ele>
        <time>2021-07-28T14:27:17Z</time>
      </trkpt>
      <trkpt lat="49.19835" lon="6.12043">
        <ele>277.1</ele>
        <time>2021-07-28T14:27:19Z</time>
      </trkpt>
      <trkpt lat="49.19834" lon="6.12044">
        <ele>277.2</ele>
        <time>2021-07-28T14:27:20Z</time>
      </trkpt>
      <trkpt lat="49.19832" lon="6.12045">
        <ele>277.3</ele>
        <time>2021-07-28T14:27:22Z</time>
      </trkpt>
      <trkpt lat="49.19831" lon="6.12045">
        <ele>277.4</ele>
        <time>2021-07-28T14:27:23Z</time>
      </trkpt>
      <trkpt lat="49.19829" lon="6.12045">
        <ele>277.5</ele>
        <time>2021-07-28T14:27:24Z</time>
      </trkpt>
      <trkpt lat="49.19826" lon="6.12042">
        <ele>277.7</ele>
        <time>2021-07-28T14:27:26Z</time>
      </trkpt>
      <trkpt lat="49.19825" lon="6.12041">
        <ele>277.8</ele>
        <time>2021-07-28T14:27:27Z</time>
      </trkpt>
      <trkpt lat="49.19824" lon="6.1204">
        <ele>277.8</ele>
        <time>2021-07-28T14:27:29Z</time>
      </trkpt>
      <trkpt lat="49.19823" lon="6.1204">
        <ele>277.9</ele>
        <time>2021-07-28T14:27:30Z</time>
      </trkpt>
      <trkpt lat="49.19822" lon="6.1204">
        <ele>277.9</ele>
        <time>2021-07-28T14:27:32Z</time>
      </trkpt>
      <trkpt lat="49.19821" lon="6.1204">
        <ele>277.9</ele>
        <time>2021-07-28T14:27:33Z</time>
      </trkpt>
      <trkpt lat="49.1982" lon="6.12041">
        <ele>278</ele>
        <time>2021-07-28T14:27:35Z</time>
      </trkpt>
      <trkpt lat="49.19819" lon="6.12041">
        <ele>278.1</ele>
        <time>2021-07-28T14:27:36Z</time>
      </trkpt>
      <trkpt lat="49.19817" lon="6.12042">
        <ele>278.1</ele>
        <time>2021-07-28T14:27:38Z</time>
      </trkpt>
      <trkpt lat="49.19815" lon="6.12045">
        <ele>278.2</ele>
        <time>2021-07-28T14:27:40Z</time>
      </trkpt>
      <trkpt lat="49.19812" lon="6.12047">
        <ele>278.4</ele>
        <time>2021-07-28T14:27:41Z</time>
      </trkpt>
      <trkpt lat="49.19811" lon="6.12048">
        <ele>278.4</ele>
        <time>2021-07-28T14:27:43Z</time>
      </trkpt>
      <trkpt lat="49.19809" lon="6.1205">
        <ele>278.5</ele>
        <time>2021-07-28T14:27:44Z</time>
      </trkpt>
      <trkpt lat="49.19808" lon="6.12051">
        <ele>278.5</ele>
        <time>2021-07-28T14:27:45Z</time>
      </trkpt>
      <trkpt lat="49.19806" lon="6.12052">
        <ele>278.6</ele>
        <time>2021-07-28T14:27:47Z</time>
      </trkpt>
      <trkpt lat="49.19804" lon="6.12053">
        <ele>278.6</ele>
        <time>2021-07-28T14:27:48Z</time>
      </trkpt>
      <trkpt lat="49.19803" lon="6.12054">
        <ele>278.6</ele>
        <time>2021-07-28T14:27:50Z</time>
      </trkpt>
      <trkpt lat="49.19801" lon="6.12055">
        <ele>278.7</ele>
        <time>2021-07-28T14:27:51Z</time>
      </trkpt>
      <trkpt lat="49.198" lon="6.12056">
        <ele>278.7</ele>
        <time>2021-07-28T14:27:52Z</time>
      </trkpt>
      <trkpt lat="49.19798" lon="6.12057">
        <ele>278.7</ele>
        <time>2021-07-28T14:27:54Z</time>
      </trkpt>
      <trkpt lat="49.19797" lon="6.12058">
        <ele>278.8</ele>
        <time>2021-07-28T14:27:55Z</time>
      </trkpt>
      <trkpt lat="49.19784" lon="6.12068">
        <ele>278.8</ele>
        <time>2021-07-28T14:27:56Z</time>
      </trkpt>
      <trkpt lat="49.19774" lon="6.12075">
        <ele>278.9</ele>
        <time>2021-07-28T14:27:57Z</time>
      </trkpt>
      <trkpt lat="49.19773" lon="6.12076">
        <ele>278.9</ele>
        <time>2021-07-28T14:27:59Z</time>
      </trkpt>
      <trkpt lat="49.19775" lon="6.12076">
        <ele>278.9</ele>
        <time>2021-07-28T14:28:00Z</time>
      </trkpt>
      <trkpt lat="49.19777" lon="6.12076">
        <ele>278.9</ele>
        <time>2021-07-28T14:28:02Z</time>
      </trkpt>
      <trkpt lat="49.19779" lon="6.12076">
        <ele>278.9</ele>
        <time>2021-07-28T14:28:04Z</time>
      </trkpt>
      <trkpt lat="49.19781" lon="6.12076">
        <ele>278.8</ele>
        <time>2021-07-28T14:28:05Z</time>
      </trkpt>
      <trkpt lat="49.19783" lon="6.12076">
        <ele>278.8</ele>
        <time>2021-07-28T14:28:06Z</time>
      </trkpt>
      <trkpt lat="49.19785" lon="6.12076">
        <ele>278.8</ele>
        <time>2021-07-28T14:28:08Z</time>
      </trkpt>
      <trkpt lat="49.19795" lon="6.12073">
        <ele>278.8</ele>
        <time>2021-07-28T14:28:09Z</time>
      </trkpt>
      <trkpt lat="49.19798" lon="6.12067">
        <ele>278.8</ele>
        <time>2021-07-28T14:28:10Z</time>
      </trkpt>
      <trkpt lat="49.19799" lon="6.12056">
        <ele>278.8</ele>
        <time>2021-07-28T14:28:12Z</time>
      </trkpt>
      <trkpt lat="49.19797" lon="6.12052">
        <ele>278.7</ele>
        <time>2021-07-28T14:28:14Z</time>
      </trkpt>
      <trkpt lat="49.19796" lon="6.1205">
        <ele>278.7</ele>
        <time>2021-07-28T14:28:16Z</time>
      </trkpt>
      <trkpt lat="49.19795" lon="6.12048">
        <ele>278.7</ele>
        <time>2021-07-28T14:28:18Z</time>
      </trkpt>
      <trkpt lat="49.19794" lon="6.12046">
        <ele>278.7</ele>
        <time>2021-07-28T14:28:20Z</time>
      </trkpt>
      <trkpt lat="49.19794" lon="6.12043">
        <ele>278.7</ele>
        <time>2021-07-28T14:28:21Z</time>
      </trkpt>
      <trkpt lat="49.19792" lon="6.12041">
        <ele>278.7</ele>
        <time>2021-07-28T14:28:23Z</time>
      </trkpt>
      <trkpt lat="49.19792" lon="6.1204">
        <ele>278.7</ele>
        <time>2021-07-28T14:28:24Z</time>
      </trkpt>
      <trkpt lat="49.1979" lon="6.1204">
        <ele>278.7</ele>
        <time>2021-07-28T14:28:26Z</time>
      </trkpt>
      <trkpt lat="49.19789" lon="6.1204">
        <ele>278.7</ele>
        <time>2021-07-28T14:28:27Z</time>
      </trkpt>
      <trkpt lat="49.19786" lon="6.1204">
        <ele>278.7</ele>
        <time>2021-07-28T14:28:28Z</time>
      </trkpt>
      <trkpt lat="49.19784" lon="6.12039">
        <ele>278.6</ele>
        <time>2021-07-28T14:28:29Z</time>
      </trkpt>
      <trkpt lat="49.19779" lon="6.12039">
        <ele>278.6</ele>
        <time>2021-07-28T14:28:31Z</time>
      </trkpt>
      <trkpt lat="49.19775" lon="6.12038">
        <ele>278.6</ele>
        <time>2021-07-28T14:28:32Z</time>
      </trkpt>
      <trkpt lat="49.1977" lon="6.12037">
        <ele>278.5</ele>
        <time>2021-07-28T14:28:33Z</time>
      </trkpt>
      <trkpt lat="49.19765" lon="6.12037">
        <ele>278.5</ele>
        <time>2021-07-28T14:28:34Z</time>
      </trkpt>
      <trkpt lat="49.1976" lon="6.12036">
        <ele>278.4</ele>
        <time>2021-07-28T14:28:36Z</time>
      </trkpt>
      <trkpt lat="49.19756" lon="6.12034">
        <ele>278.4</ele>
        <time>2021-07-28T14:28:37Z</time>
      </trkpt>
      <trkpt lat="49.19753" lon="6.12031">
        <ele>278.3</ele>
        <time>2021-07-28T14:28:38Z</time>
      </trkpt>
      <trkpt lat="49.19752" lon="6.1203">
        <ele>278.3</ele>
        <time>2021-07-28T14:28:39Z</time>
      </trkpt>
      <trkpt lat="49.19751" lon="6.12028">
        <ele>278.3</ele>
        <time>2021-07-28T14:28:40Z</time>
      </trkpt>
      <trkpt lat="49.1975" lon="6.12026">
        <ele>278.3</ele>
        <time>2021-07-28T14:28:41Z</time>
      </trkpt>
      <trkpt lat="49.19748" lon="6.12025">
        <ele>278.2</ele>
        <time>2021-07-28T14:28:42Z</time>
      </trkpt>
      <trkpt lat="49.19747" lon="6.12025">
        <ele>278.2</ele>
        <time>2021-07-28T14:28:43Z</time>
      </trkpt>
      <trkpt lat="49.19746" lon="6.12024">
        <ele>278.2</ele>
        <time>2021-07-28T14:28:44Z</time>
      </trkpt>
      <trkpt lat="49.19745" lon="6.12024">
        <ele>278.2</ele>
        <time>2021-07-28T14:28:45Z</time>
      </trkpt>
      <trkpt lat="49.19742" lon="6.12025">
        <ele>278.2</ele>
        <time>2021-07-28T14:28:47Z</time>
      </trkpt>
      <trkpt lat="49.1974" lon="6.12024">
        <ele>278.1</ele>
        <time>2021-07-28T14:28:48Z</time>
      </trkpt>
      <trkpt lat="49.19737" lon="6.12024">
        <ele>278.1</ele>
        <time>2021-07-28T14:28:49Z</time>
      </trkpt>
      <trkpt lat="49.19734" lon="6.12027">
        <ele>278</ele>
        <time>2021-07-28T14:28:50Z</time>
      </trkpt>
      <trkpt lat="49.19733" lon="6.12027">
        <ele>278</ele>
        <time>2021-07-28T14:28:51Z</time>
      </trkpt>
      <trkpt lat="49.1973" lon="6.12028">
        <ele>277.9</ele>
        <time>2021-07-28T14:28:53Z</time>
      </trkpt>
      <trkpt lat="49.19729" lon="6.12029">
        <ele>277.9</ele>
        <time>2021-07-28T14:28:54Z</time>
      </trkpt>
      <trkpt lat="49.19726" lon="6.12028">
        <ele>277.8</ele>
        <time>2021-07-28T14:28:56Z</time>
      </trkpt>
      <trkpt lat="49.19727" lon="6.12028">
        <ele>277.8</ele>
        <time>2021-07-28T14:28:57Z</time>
      </trkpt>
      <trkpt lat="49.19725" lon="6.12027">
        <ele>277.8</ele>
        <time>2021-07-28T14:28:58Z</time>
      </trkpt>
      <trkpt lat="49.19719" lon="6.12024">
        <ele>277.7</ele>
        <time>2021-07-28T14:29:00Z</time>
      </trkpt>
      <trkpt lat="49.19714" lon="6.12022">
        <ele>277.6</ele>
        <time>2021-07-28T14:29:01Z</time>
      </trkpt>
      <trkpt lat="49.19708" lon="6.12018">
        <ele>277.5</ele>
        <time>2021-07-28T14:29:02Z</time>
      </trkpt>
      <trkpt lat="49.19704" lon="6.12016">
        <ele>277.4</ele>
        <time>2021-07-28T14:29:03Z</time>
      </trkpt>
      <trkpt lat="49.19699" lon="6.12014">
        <ele>277.1</ele>
        <time>2021-07-28T14:29:05Z</time>
      </trkpt>
      <trkpt lat="49.19692" lon="6.12013">
        <ele>276.4</ele>
        <time>2021-07-28T14:29:07Z</time>
      </trkpt>
      <trkpt lat="49.19689" lon="6.12015">
        <ele>276.1</ele>
        <time>2021-07-28T14:29:08Z</time>
      </trkpt>
      <trkpt lat="49.19685" lon="6.12018">
        <ele>275.7</ele>
        <time>2021-07-28T14:29:09Z</time>
      </trkpt>
      <trkpt lat="49.19681" lon="6.12019">
        <ele>275.3</ele>
        <time>2021-07-28T14:29:11Z</time>
      </trkpt>
      <trkpt lat="49.19677" lon="6.12019">
        <ele>274.9</ele>
        <time>2021-07-28T14:29:12Z</time>
      </trkpt>
      <trkpt lat="49.19673" lon="6.1202">
        <ele>274.5</ele>
        <time>2021-07-28T14:29:13Z</time>
      </trkpt>
      <trkpt lat="49.19668" lon="6.12021">
        <ele>273.9</ele>
        <time>2021-07-28T14:29:15Z</time>
      </trkpt>
      <trkpt lat="49.19663" lon="6.12025">
        <ele>273.3</ele>
        <time>2021-07-28T14:29:16Z</time>
      </trkpt>
      <trkpt lat="49.19658" lon="6.12029">
        <ele>272.7</ele>
        <time>2021-07-28T14:29:18Z</time>
      </trkpt>
      <trkpt lat="49.19655" lon="6.1203">
        <ele>272.3</ele>
        <time>2021-07-28T14:29:20Z</time>
      </trkpt>
      <trkpt lat="49.19654" lon="6.12029">
        <ele>272.2</ele>
        <time>2021-07-28T14:29:21Z</time>
      </trkpt>
      <trkpt lat="49.19653" lon="6.12026">
        <ele>272</ele>
        <time>2021-07-28T14:29:22Z</time>
      </trkpt>
      <trkpt lat="49.19651" lon="6.12025">
        <ele>271.8</ele>
        <time>2021-07-28T14:29:24Z</time>
      </trkpt>
      <trkpt lat="49.1965" lon="6.12023">
        <ele>271.7</ele>
        <time>2021-07-28T14:29:25Z</time>
      </trkpt>
      <trkpt lat="49.19646" lon="6.12016">
        <ele>271</ele>
        <time>2021-07-28T14:29:27Z</time>
      </trkpt>
      <trkpt lat="49.19642" lon="6.12009">
        <ele>271</ele>
        <time>2021-07-28T14:29:29Z</time>
      </trkpt>
      <trkpt lat="49.19639" lon="6.12001">
        <ele>271.1</ele>
        <time>2021-07-28T14:29:30Z</time>
      </trkpt>
      <trkpt lat="49.19637" lon="6.11991">
        <ele>271.2</ele>
        <time>2021-07-28T14:29:31Z</time>
      </trkpt>
      <trkpt lat="49.19635" lon="6.11981">
        <ele>271.3</ele>
        <time>2021-07-28T14:29:32Z</time>
      </trkpt>
      <trkpt lat="49.19632" lon="6.11963">
        <ele>271.2</ele>
        <time>2021-07-28T14:29:34Z</time>
      </trkpt>
      <trkpt lat="49.1963" lon="6.11953">
        <ele>271.1</ele>
        <time>2021-07-28T14:29:35Z</time>
      </trkpt>
      <trkpt lat="49.19628" lon="6.11946">
        <ele>271</ele>
        <time>2021-07-28T14:29:36Z</time>
      </trkpt>
      <trkpt lat="49.19621" lon="6.11937">
        <ele>270.8</ele>
        <time>2021-07-28T14:29:38Z</time>
      </trkpt>
      <trkpt lat="49.19616" lon="6.11933">
        <ele>270.6</ele>
        <time>2021-07-28T14:29:39Z</time>
      </trkpt>
      <trkpt lat="49.19605" lon="6.1192">
        <ele>270.1</ele>
        <time>2021-07-28T14:29:41Z</time>
      </trkpt>
      <trkpt lat="49.19599" lon="6.11912">
        <ele>269.8</ele>
        <time>2021-07-28T14:29:42Z</time>
      </trkpt>
      <trkpt lat="49.19589" lon="6.11895">
        <ele>269.2</ele>
        <time>2021-07-28T14:29:44Z</time>
      </trkpt>
      <trkpt lat="49.19587" lon="6.11888">
        <ele>269</ele>
        <time>2021-07-28T14:29:45Z</time>
      </trkpt>
      <trkpt lat="49.19582" lon="6.11878">
        <ele>268.7</ele>
        <time>2021-07-28T14:29:47Z</time>
      </trkpt>
      <trkpt lat="49.19582" lon="6.11872">
        <ele>268.6</ele>
        <time>2021-07-28T14:29:48Z</time>
      </trkpt>
      <trkpt lat="49.1958" lon="6.11867">
        <ele>268.5</ele>
        <time>2021-07-28T14:29:49Z</time>
      </trkpt>
      <trkpt lat="49.19578" lon="6.11863">
        <ele>268.4</ele>
        <time>2021-07-28T14:29:51Z</time>
      </trkpt>
      <trkpt lat="49.19575" lon="6.11855">
        <ele>268.2</ele>
        <time>2021-07-28T14:29:53Z</time>
      </trkpt>
      <trkpt lat="49.19574" lon="6.11849">
        <ele>268.1</ele>
        <time>2021-07-28T14:29:54Z</time>
      </trkpt>
      <trkpt lat="49.19573" lon="6.11847">
        <ele>268</ele>
        <time>2021-07-28T14:29:55Z</time>
      </trkpt>
      <trkpt lat="49.19571" lon="6.1184">
        <ele>267.9</ele>
        <time>2021-07-28T14:29:57Z</time>
      </trkpt>
      <trkpt lat="49.19571" lon="6.11836">
        <ele>267.8</ele>
        <time>2021-07-28T14:29:58Z</time>
      </trkpt>
      <trkpt lat="49.1957" lon="6.11831">
        <ele>267.7</ele>
        <time>2021-07-28T14:30:00Z</time>
      </trkpt>
      <trkpt lat="49.19571" lon="6.11829">
        <ele>267.7</ele>
        <time>2021-07-28T14:30:02Z</time>
      </trkpt>
      <trkpt lat="49.19573" lon="6.11828">
        <ele>267.7</ele>
        <time>2021-07-28T14:30:04Z</time>
      </trkpt>
      <trkpt lat="49.19573" lon="6.11828">
        <ele>267.7</ele>
        <time>2021-07-28T14:30:05Z</time>
      </trkpt>
      <trkpt lat="49.19572" lon="6.11828">
        <ele>267.7</ele>
        <time>2021-07-28T14:30:06Z</time>
      </trkpt>
      <trkpt lat="49.19572" lon="6.11828">
        <ele>267.6</ele>
        <time>2021-07-28T14:30:08Z</time>
      </trkpt>
      <trkpt lat="49.19572" lon="6.11829">
        <ele>267.6</ele>
        <time>2021-07-28T14:30:09Z</time>
      </trkpt>
      <trkpt lat="49.19571" lon="6.11829">
        <ele>267.6</ele>
        <time>2021-07-28T14:30:11Z</time>
      </trkpt>
      <trkpt lat="49.19566" lon="6.11825">
        <ele>267.5</ele>
        <time>2021-07-28T14:30:25Z</time>
      </trkpt>
      <trkpt lat="49.19564" lon="6.11822">
        <ele>267.4</ele>
        <time>2021-07-28T14:30:26Z</time>
      </trkpt>
      <trkpt lat="49.19562" lon="6.1182">
        <ele>267.4</ele>
        <time>2021-07-28T14:30:28Z</time>
      </trkpt>
      <trkpt lat="49.19559" lon="6.11816">
        <ele>267.3</ele>
        <time>2021-07-28T14:30:29Z</time>
      </trkpt>
      <trkpt lat="49.19556" lon="6.11813">
        <ele>267.3</ele>
        <time>2021-07-28T14:30:30Z</time>
      </trkpt>
      <trkpt lat="49.19556" lon="6.11812">
        <ele>267.2</ele>
        <time>2021-07-28T14:30:31Z</time>
      </trkpt>
      <trkpt lat="49.19554" lon="6.11809">
        <ele>267.2</ele>
        <time>2021-07-28T14:30:32Z</time>
      </trkpt>
      <trkpt lat="49.19548" lon="6.11805">
        <ele>267</ele>
        <time>2021-07-28T14:30:34Z</time>
      </trkpt>
      <trkpt lat="49.19542" lon="6.11795">
        <ele>266.8</ele>
        <time>2021-07-28T14:30:35Z</time>
      </trkpt>
      <trkpt lat="49.19537" lon="6.11783">
        <ele>266.6</ele>
        <time>2021-07-28T14:30:37Z</time>
      </trkpt>
      <trkpt lat="49.19528" lon="6.11748">
        <ele>266.2</ele>
        <time>2021-07-28T14:30:38Z</time>
      </trkpt>
      <trkpt lat="49.19526" lon="6.11741">
        <ele>266.1</ele>
        <time>2021-07-28T14:30:39Z</time>
      </trkpt>
      <trkpt lat="49.19521" lon="6.11726">
        <ele>265.9</ele>
        <time>2021-07-28T14:30:41Z</time>
      </trkpt>
      <trkpt lat="49.19519" lon="6.11721">
        <ele>265.8</ele>
        <time>2021-07-28T14:30:42Z</time>
      </trkpt>
      <trkpt lat="49.19518" lon="6.11716">
        <ele>265.8</ele>
        <time>2021-07-28T14:30:43Z</time>
      </trkpt>
      <trkpt lat="49.19519" lon="6.11714">
        <ele>265.7</ele>
        <time>2021-07-28T14:30:45Z</time>
      </trkpt>
      <trkpt lat="49.19519" lon="6.11708">
        <ele>265.7</ele>
        <time>2021-07-28T14:30:47Z</time>
      </trkpt>
      <trkpt lat="49.19518" lon="6.11704">
        <ele>264.2</ele>
        <time>2021-07-28T14:30:48Z</time>
      </trkpt>
      <trkpt lat="49.19513" lon="6.11702">
        <ele>263.8</ele>
        <time>2021-07-28T14:30:49Z</time>
      </trkpt>
      <trkpt lat="49.1951" lon="6.11701">
        <ele>263.4</ele>
        <time>2021-07-28T14:30:50Z</time>
      </trkpt>
      <trkpt lat="49.19509" lon="6.117">
        <ele>263.2</ele>
        <time>2021-07-28T14:30:51Z</time>
      </trkpt>
      <trkpt lat="49.19496" lon="6.11706">
        <ele>261.4</ele>
        <time>2021-07-28T14:30:53Z</time>
      </trkpt>
      <trkpt lat="49.19489" lon="6.11709">
        <ele>260.2</ele>
        <time>2021-07-28T14:30:54Z</time>
      </trkpt>
      <trkpt lat="49.19479" lon="6.11708">
        <ele>258.7</ele>
        <time>2021-07-28T14:30:56Z</time>
      </trkpt>
      <trkpt lat="49.19463" lon="6.11709">
        <ele>256.1</ele>
        <time>2021-07-28T14:30:58Z</time>
      </trkpt>
      <trkpt lat="49.19459" lon="6.11711">
        <ele>255.4</ele>
        <time>2021-07-28T14:30:59Z</time>
      </trkpt>
      <trkpt lat="49.19455" lon="6.11715">
        <ele>254.7</ele>
        <time>2021-07-28T14:31:00Z</time>
      </trkpt>
      <trkpt lat="49.19445" lon="6.11722">
        <ele>253.1</ele>
        <time>2021-07-28T14:31:02Z</time>
      </trkpt>
      <trkpt lat="49.19434" lon="6.1173">
        <ele>251.3</ele>
        <time>2021-07-28T14:31:04Z</time>
      </trkpt>
      <trkpt lat="49.19424" lon="6.11739">
        <ele>249.8</ele>
        <time>2021-07-28T14:31:06Z</time>
      </trkpt>
      <trkpt lat="49.19417" lon="6.1174">
        <ele>248.9</ele>
        <time>2021-07-28T14:31:08Z</time>
      </trkpt>
      <trkpt lat="49.19418" lon="6.11741">
        <ele>248.8</ele>
        <time>2021-07-28T14:31:09Z</time>
      </trkpt>
      <trkpt lat="49.19412" lon="6.11743">
        <ele>248</ele>
        <time>2021-07-28T14:31:11Z</time>
      </trkpt>
      <trkpt lat="49.19408" lon="6.11745">
        <ele>247.5</ele>
        <time>2021-07-28T14:31:12Z</time>
      </trkpt>
      <trkpt lat="49.19404" lon="6.11748">
        <ele>246.9</ele>
        <time>2021-07-28T14:31:13Z</time>
      </trkpt>
      <trkpt lat="49.194" lon="6.11752">
        <ele>246.1</ele>
        <time>2021-07-28T14:31:14Z</time>
      </trkpt>
      <trkpt lat="49.19395" lon="6.11756">
        <ele>245.3</ele>
        <time>2021-07-28T14:31:16Z</time>
      </trkpt>
      <trkpt lat="49.19392" lon="6.11759">
        <ele>244.7</ele>
        <time>2021-07-28T14:31:17Z</time>
      </trkpt>
      <trkpt lat="49.19388" lon="6.1176">
        <ele>244.2</ele>
        <time>2021-07-28T14:31:18Z</time>
      </trkpt>
      <trkpt lat="49.1938" lon="6.11759">
        <ele>243.1</ele>
        <time>2021-07-28T14:31:20Z</time>
      </trkpt>
      <trkpt lat="49.19374" lon="6.11759">
        <ele>242.1</ele>
        <time>2021-07-28T14:31:22Z</time>
      </trkpt>
      <trkpt lat="49.19371" lon="6.11761">
        <ele>241.7</ele>
        <time>2021-07-28T14:31:23Z</time>
      </trkpt>
      <trkpt lat="49.19371" lon="6.11762">
        <ele>241.6</ele>
        <time>2021-07-28T14:31:24Z</time>
      </trkpt>
      <trkpt lat="49.19369" lon="6.11763">
        <ele>241.4</ele>
        <time>2021-07-28T14:31:26Z</time>
      </trkpt>
      <trkpt lat="49.19368" lon="6.11763">
        <ele>241.3</ele>
        <time>2021-07-28T14:31:27Z</time>
      </trkpt>
      <trkpt lat="49.19367" lon="6.11763">
        <ele>241.1</ele>
        <time>2021-07-28T14:31:28Z</time>
      </trkpt>
      <trkpt lat="49.19366" lon="6.11763">
        <ele>241</ele>
        <time>2021-07-28T14:31:29Z</time>
      </trkpt>
      <trkpt lat="49.19365" lon="6.11764">
        <ele>240.8</ele>
        <time>2021-07-28T14:31:30Z</time>
      </trkpt>
      <trkpt lat="49.19364" lon="6.11765">
        <ele>240.6</ele>
        <time>2021-07-28T14:31:32Z</time>
      </trkpt>
      <trkpt lat="49.19325" lon="6.11857">
        <ele>232.3</ele>
        <time>2021-07-28T14:31:44Z</time>
      </trkpt>
      <trkpt lat="49.19318" lon="6.11877">
        <ele>231</ele>
        <time>2021-07-28T14:31:45Z</time>
      </trkpt>
      <trkpt lat="49.19316" lon="6.11886">
        <ele>230.5</ele>
        <time>2021-07-28T14:31:47Z</time>
      </trkpt>
      <trkpt lat="49.19311" lon="6.11896">
        <ele>229.8</ele>
        <time>2021-07-28T14:31:48Z</time>
      </trkpt>
      <trkpt lat="49.19305" lon="6.11908">
        <ele>229</ele>
        <time>2021-07-28T14:31:49Z</time>
      </trkpt>
      <trkpt lat="49.193" lon="6.11914">
        <ele>228.5</ele>
        <time>2021-07-28T14:31:50Z</time>
      </trkpt>
      <trkpt lat="49.19299" lon="6.11915">
        <ele>228.3</ele>
        <time>2021-07-28T14:31:52Z</time>
      </trkpt>
      <trkpt lat="49.1929" lon="6.11918">
        <ele>227.6</ele>
        <time>2021-07-28T14:31:54Z</time>
      </trkpt>
      <trkpt lat="49.19275" lon="6.11919">
        <ele>226.3</ele>
        <time>2021-07-28T14:31:55Z</time>
      </trkpt>
      <trkpt lat="49.19208" lon="6.1189">
        <ele>221.4</ele>
        <time>2021-07-28T14:31:59Z</time>
      </trkpt>
      <trkpt lat="49.19195" lon="6.11882">
        <ele>220.5</ele>
        <time>2021-07-28T14:32:00Z</time>
      </trkpt>
      <trkpt lat="49.19189" lon="6.11879">
        <ele>220.2</ele>
        <time>2021-07-28T14:32:01Z</time>
      </trkpt>
      <trkpt lat="49.19167" lon="6.11863">
        <ele>218.2</ele>
        <time>2021-07-28T14:32:03Z</time>
      </trkpt>
      <trkpt lat="49.19156" lon="6.11856">
        <ele>217.2</ele>
        <time>2021-07-28T14:32:04Z</time>
      </trkpt>
      <trkpt lat="49.19147" lon="6.11852">
        <ele>216.5</ele>
        <time>2021-07-28T14:32:05Z</time>
      </trkpt>
      <trkpt lat="49.19139" lon="6.11851">
        <ele>216.1</ele>
        <time>2021-07-28T14:32:06Z</time>
      </trkpt>
      <trkpt lat="49.19127" lon="6.11851">
        <ele>215.9</ele>
        <time>2021-07-28T14:32:08Z</time>
      </trkpt>
      <trkpt lat="49.19121" lon="6.11851">
        <ele>215.8</ele>
        <time>2021-07-28T14:32:09Z</time>
      </trkpt>
      <trkpt lat="49.19111" lon="6.11852">
        <ele>215.6</ele>
        <time>2021-07-28T14:32:11Z</time>
      </trkpt>
      <trkpt lat="49.19101" lon="6.11852">
        <ele>215.4</ele>
        <time>2021-07-28T14:32:13Z</time>
      </trkpt>
      <trkpt lat="49.19096" lon="6.11852">
        <ele>215.3</ele>
        <time>2021-07-28T14:32:15Z</time>
      </trkpt>
      <trkpt lat="49.19095" lon="6.11851">
        <ele>215.3</ele>
        <time>2021-07-28T14:32:16Z</time>
      </trkpt>
      <trkpt lat="49.19093" lon="6.1185">
        <ele>215.3</ele>
        <time>2021-07-28T14:32:17Z</time>
      </trkpt>
      <trkpt lat="49.1909" lon="6.11853">
        <ele>215.2</ele>
        <time>2021-07-28T14:32:18Z</time>
      </trkpt>
      <trkpt lat="49.19088" lon="6.11855">
        <ele>215.2</ele>
        <time>2021-07-28T14:32:19Z</time>
      </trkpt>
      <trkpt lat="49.19085" lon="6.1186">
        <ele>215.1</ele>
        <time>2021-07-28T14:32:21Z</time>
      </trkpt>
      <trkpt lat="49.19083" lon="6.11867">
        <ele>214.9</ele>
        <time>2021-07-28T14:32:22Z</time>
      </trkpt>
      <trkpt lat="49.1908" lon="6.11882">
        <ele>214.7</ele>
        <time>2021-07-28T14:32:24Z</time>
      </trkpt>
      <trkpt lat="49.19079" lon="6.11889">
        <ele>214.6</ele>
        <time>2021-07-28T14:32:25Z</time>
      </trkpt>
      <trkpt lat="49.19079" lon="6.11895">
        <ele>214.5</ele>
        <time>2021-07-28T14:32:26Z</time>
      </trkpt>
      <trkpt lat="49.19077" lon="6.11905">
        <ele>214.3</ele>
        <time>2021-07-28T14:32:28Z</time>
      </trkpt>
      <trkpt lat="49.19071" lon="6.11913">
        <ele>214.1</ele>
        <time>2021-07-28T14:32:30Z</time>
      </trkpt>
      <trkpt lat="49.19066" lon="6.11914">
        <ele>214</ele>
        <time>2021-07-28T14:32:31Z</time>
      </trkpt>
      <trkpt lat="49.19062" lon="6.11915">
        <ele>213.9</ele>
        <time>2021-07-28T14:32:32Z</time>
      </trkpt>
      <trkpt lat="49.1905" lon="6.11922">
        <ele>213.8</ele>
        <time>2021-07-28T14:32:34Z</time>
      </trkpt>
      <trkpt lat="49.19044" lon="6.11925">
        <ele>213.8</ele>
        <time>2021-07-28T14:32:35Z</time>
      </trkpt>
      <trkpt lat="49.19039" lon="6.11927">
        <ele>213.8</ele>
        <time>2021-07-28T14:32:36Z</time>
      </trkpt>
      <trkpt lat="49.19028" lon="6.1193">
        <ele>213.9</ele>
        <time>2021-07-28T14:32:38Z</time>
      </trkpt>
      <trkpt lat="49.19023" lon="6.11929">
        <ele>213.9</ele>
        <time>2021-07-28T14:32:39Z</time>
      </trkpt>
      <trkpt lat="49.19012" lon="6.11926">
        <ele>214.1</ele>
        <time>2021-07-28T14:32:41Z</time>
      </trkpt>
      <trkpt lat="49.19007" lon="6.11924">
        <ele>214.1</ele>
        <time>2021-07-28T14:32:42Z</time>
      </trkpt>
      <trkpt lat="49.18999" lon="6.11922">
        <ele>214.1</ele>
        <time>2021-07-28T14:32:44Z</time>
      </trkpt>
      <trkpt lat="49.18996" lon="6.11922">
        <ele>214.1</ele>
        <time>2021-07-28T14:32:45Z</time>
      </trkpt>
      <trkpt lat="49.1899" lon="6.11922">
        <ele>214</ele>
        <time>2021-07-28T14:32:47Z</time>
      </trkpt>
      <trkpt lat="49.18986" lon="6.11922">
        <ele>213.9</ele>
        <time>2021-07-28T14:32:48Z</time>
      </trkpt>
      <trkpt lat="49.18979" lon="6.11922">
        <ele>213.6</ele>
        <time>2021-07-28T14:32:50Z</time>
      </trkpt>
      <trkpt lat="49.18972" lon="6.11924">
        <ele>213.3</ele>
        <time>2021-07-28T14:32:52Z</time>
      </trkpt>
      <trkpt lat="49.18967" lon="6.11925">
        <ele>213</ele>
        <time>2021-07-28T14:32:53Z</time>
      </trkpt>
      <trkpt lat="49.18956" lon="6.11928">
        <ele>212.3</ele>
        <time>2021-07-28T14:32:55Z</time>
      </trkpt>
      <trkpt lat="49.18949" lon="6.11931">
        <ele>211.9</ele>
        <time>2021-07-28T14:32:56Z</time>
      </trkpt>
      <trkpt lat="49.18936" lon="6.11937">
        <ele>211.2</ele>
        <time>2021-07-28T14:32:58Z</time>
      </trkpt>
      <trkpt lat="49.18929" lon="6.11939">
        <ele>210.8</ele>
        <time>2021-07-28T14:32:59Z</time>
      </trkpt>
      <trkpt lat="49.1892" lon="6.11942">
        <ele>210.4</ele>
        <time>2021-07-28T14:33:00Z</time>
      </trkpt>
      <trkpt lat="49.18903" lon="6.11947">
        <ele>209.7</ele>
        <time>2021-07-28T14:33:02Z</time>
      </trkpt>
      <trkpt lat="49.1889" lon="6.1195">
        <ele>209.4</ele>
        <time>2021-07-28T14:33:04Z</time>
      </trkpt>
      <trkpt lat="49.18885" lon="6.11952">
        <ele>209.3</ele>
        <time>2021-07-28T14:33:05Z</time>
      </trkpt>
      <trkpt lat="49.1888" lon="6.11954">
        <ele>209.2</ele>
        <time>2021-07-28T14:33:06Z</time>
      </trkpt>
      <trkpt lat="49.18868" lon="6.11956">
        <ele>209</ele>
        <time>2021-07-28T14:33:08Z</time>
      </trkpt>
      <trkpt lat="49.18865" lon="6.1196">
        <ele>208.9</ele>
        <time>2021-07-28T14:33:10Z</time>
      </trkpt>
      <trkpt lat="49.18867" lon="6.11963">
        <ele>208.8</ele>
        <time>2021-07-28T14:33:11Z</time>
      </trkpt>
      <trkpt lat="49.18869" lon="6.11965">
        <ele>208.8</ele>
        <time>2021-07-28T14:33:12Z</time>
      </trkpt>
      <trkpt lat="49.18872" lon="6.11971">
        <ele>208.7</ele>
        <time>2021-07-28T14:33:14Z</time>
      </trkpt>
      <trkpt lat="49.18871" lon="6.11974">
        <ele>210</ele>
        <time>2021-07-28T14:33:16Z</time>
      </trkpt>
      <trkpt lat="49.1887" lon="6.11974">
        <ele>210</ele>
        <time>2021-07-28T14:33:17Z</time>
      </trkpt>
      <trkpt lat="49.18869" lon="6.11974">
        <ele>210</ele>
        <time>2021-07-28T14:33:18Z</time>
      </trkpt>
      <trkpt lat="49.18864" lon="6.11969">
        <ele>210.1</ele>
        <time>2021-07-28T14:33:20Z</time>
      </trkpt>
      <trkpt lat="49.18862" lon="6.11966">
        <ele>210.2</ele>
        <time>2021-07-28T14:33:21Z</time>
      </trkpt>
      <trkpt lat="49.1886" lon="6.11963">
        <ele>210.4</ele>
        <time>2021-07-28T14:33:22Z</time>
      </trkpt>
      <trkpt lat="49.1886" lon="6.11962">
        <ele>210.5</ele>
        <time>2021-07-28T14:33:24Z</time>
      </trkpt>
      <trkpt lat="49.18861" lon="6.11962">
        <ele>210.5</ele>
        <time>2021-07-28T14:33:25Z</time>
      </trkpt>
      <trkpt lat="49.18863" lon="6.11961">
        <ele>210.5</ele>
        <time>2021-07-28T14:33:26Z</time>
      </trkpt>
      <trkpt lat="49.18866" lon="6.11958">
        <ele>210.6</ele>
        <time>2021-07-28T14:33:27Z</time>
      </trkpt>
      <trkpt lat="49.18868" lon="6.11955">
        <ele>210.6</ele>
        <time>2021-07-28T14:33:29Z</time>
      </trkpt>
      <trkpt lat="49.1887" lon="6.11952">
        <ele>210.6</ele>
        <time>2021-07-28T14:33:30Z</time>
      </trkpt>
      <trkpt lat="49.18872" lon="6.11949">
        <ele>210.7</ele>
        <time>2021-07-28T14:33:32Z</time>
      </trkpt>
      <trkpt lat="49.18874" lon="6.11945">
        <ele>210.7</ele>
        <time>2021-07-28T14:34:44Z</time>
      </trkpt>
      <trkpt lat="49.18875" lon="6.11942">
        <ele>210.7</ele>
        <time>2021-07-28T14:34:45Z</time>
      </trkpt>
      <trkpt lat="49.18876" lon="6.11934">
        <ele>210.8</ele>
        <time>2021-07-28T14:34:47Z</time>
      </trkpt>
      <trkpt lat="49.18876" lon="6.11929">
        <ele>210.9</ele>
        <time>2021-07-28T14:34:48Z</time>
      </trkpt>
      <trkpt lat="49.18876" lon="6.11921">
        <ele>210.9</ele>
        <time>2021-07-28T14:34:50Z</time>
      </trkpt>
      <trkpt lat="49.18874" lon="6.11916">
        <ele>211</ele>
        <time>2021-07-28T14:34:51Z</time>
      </trkpt>
      <trkpt lat="49.18873" lon="6.11914">
        <ele>211</ele>
        <time>2021-07-28T14:34:52Z</time>
      </trkpt>
      <trkpt lat="49.1887" lon="6.11911">
        <ele>211.1</ele>
        <time>2021-07-28T14:34:53Z</time>
      </trkpt>
      <trkpt lat="49.18867" lon="6.11908">
        <ele>211.1</ele>
        <time>2021-07-28T14:34:54Z</time>
      </trkpt>
      <trkpt lat="49.18866" lon="6.11907">
        <ele>211.1</ele>
        <time>2021-07-28T14:34:55Z</time>
      </trkpt>
      <trkpt lat="49.18863" lon="6.11905">
        <ele>211.2</ele>
        <time>2021-07-28T14:34:57Z</time>
      </trkpt>
      <trkpt lat="49.18861" lon="6.11904">
        <ele>211.2</ele>
        <time>2021-07-28T14:34:58Z</time>
      </trkpt>
      <trkpt lat="49.1886" lon="6.11901">
        <ele>211.2</ele>
        <time>2021-07-28T14:34:59Z</time>
      </trkpt>
      <trkpt lat="49.18859" lon="6.11896">
        <ele>211.3</ele>
        <time>2021-07-28T14:35:00Z</time>
      </trkpt>
      <trkpt lat="49.18858" lon="6.11894">
        <ele>211.3</ele>
        <time>2021-07-28T14:35:01Z</time>
      </trkpt>
      <trkpt lat="49.18858" lon="6.11891">
        <ele>211.3</ele>
        <time>2021-07-28T14:35:02Z</time>
      </trkpt>
      <trkpt lat="49.18856" lon="6.11887">
        <ele>211.4</ele>
        <time>2021-07-28T14:35:04Z</time>
      </trkpt>
      <trkpt lat="49.18856" lon="6.11884">
        <ele>211.4</ele>
        <time>2021-07-28T14:35:05Z</time>
      </trkpt>
      <trkpt lat="49.18856" lon="6.11882">
        <ele>211.4</ele>
        <time>2021-07-28T14:35:06Z</time>
      </trkpt>
      <trkpt lat="49.18857" lon="6.11879">
        <ele>211.5</ele>
        <time>2021-07-28T14:35:07Z</time>
      </trkpt>
      <trkpt lat="49.18857" lon="6.11876">
        <ele>211.5</ele>
        <time>2021-07-28T14:35:08Z</time>
      </trkpt>
      <trkpt lat="49.18857" lon="6.11872">
        <ele>211.5</ele>
        <time>2021-07-28T14:35:10Z</time>
      </trkpt>
      <trkpt lat="49.18858" lon="6.11867">
        <ele>211.6</ele>
        <time>2021-07-28T14:35:12Z</time>
      </trkpt>
      <trkpt lat="49.18857" lon="6.11863">
        <ele>211.6</ele>
        <time>2021-07-28T14:35:13Z</time>
      </trkpt>
      <trkpt lat="49.18856" lon="6.1186">
        <ele>211.6</ele>
        <time>2021-07-28T14:35:15Z</time>
      </trkpt>
      <trkpt lat="49.18856" lon="6.11858">
        <ele>211.7</ele>
        <time>2021-07-28T14:35:16Z</time>
      </trkpt>
      <trkpt lat="49.18855" lon="6.11856">
        <ele>211.7</ele>
        <time>2021-07-28T14:35:17Z</time>
      </trkpt>
      <trkpt lat="49.18854" lon="6.11855">
        <ele>211.7</ele>
        <time>2021-07-28T14:35:18Z</time>
      </trkpt>
      <trkpt lat="49.18854" lon="6.11854">
        <ele>211.7</ele>
        <time>2021-07-28T14:35:19Z</time>
      </trkpt>
      <trkpt lat="49.18854" lon="6.11854">
        <ele>211.7</ele>
        <time>2021-07-28T14:35:21Z</time>
      </trkpt>
      <trkpt lat="49.18854" lon="6.11854">
        <ele>211.7</ele>
        <time>2021-07-28T14:35:22Z</time>
      </trkpt>
      <trkpt lat="49.18854" lon="6.11854">
        <ele>211.7</ele>
        <time>2021-07-28T14:35:23Z</time>
      </trkpt>
      <trkpt lat="49.18854" lon="6.11853">
        <ele>211.7</ele>
        <time>2021-07-28T14:35:24Z</time>
      </trkpt>
      <trkpt lat="49.18854" lon="6.11853">
        <ele>211.7</ele>
        <time>2021-07-28T14:35:26Z</time>
      </trkpt>
      <trkpt lat="49.18854" lon="6.11854">
        <ele>211.7</ele>
        <time>2021-07-28T14:35:28Z</time>
      </trkpt>
      <trkpt lat="49.18854" lon="6.11854">
        <ele>211.7</ele>
        <time>2021-07-28T14:35:29Z</time>
      </trkpt>
      <trkpt lat="49.18859" lon="6.11913">
        <ele>212.3</ele>
        <time>2021-07-28T14:35:39Z</time>
      </trkpt>
      <trkpt lat="49.18859" lon="6.11916">
        <ele>212.3</ele>
        <time>2021-07-28T14:35:41Z</time>
      </trkpt>
      <trkpt lat="49.1886" lon="6.11916">
        <ele>212.3</ele>
        <time>2021-07-28T14:35:42Z</time>
      </trkpt>
      <trkpt lat="49.1886" lon="6.11917">
        <ele>212.3</ele>
        <time>2021-07-28T14:35:43Z</time>
      </trkpt>
      <trkpt lat="49.18859" lon="6.11904">
        <ele>212.4</ele>
        <time>2021-07-28T14:35:45Z</time>
      </trkpt>
      <trkpt lat="49.18859" lon="6.119">
        <ele>212.5</ele>
        <time>2021-07-28T14:35:46Z</time>
      </trkpt>
      <trkpt lat="49.18859" lon="6.11898">
        <ele>212.5</ele>
        <time>2021-07-28T14:35:47Z</time>
      </trkpt>
      <trkpt lat="49.18859" lon="6.11897">
        <ele>212.5</ele>
        <time>2021-07-28T14:35:48Z</time>
      </trkpt>
      <trkpt lat="49.18858" lon="6.11896">
        <ele>212.5</ele>
        <time>2021-07-28T14:35:49Z</time>
      </trkpt>
      <trkpt lat="49.18858" lon="6.11895">
        <ele>212.5</ele>
        <time>2021-07-28T14:35:51Z</time>
      </trkpt>
      <trkpt lat="49.18858" lon="6.11895">
        <ele>212.5</ele>
        <time>2021-07-28T14:35:52Z</time>
      </trkpt>
      <trkpt lat="49.18858" lon="6.11895">
        <ele>212.5</ele>
        <time>2021-07-28T14:35:53Z</time>
      </trkpt>
      <trkpt lat="49.18858" lon="6.11895">
        <ele>212.5</ele>
        <time>2021-07-28T14:35:54Z</time>
      </trkpt>
      <trkpt lat="49.18858" lon="6.11895">
        <ele>212.5</ele>
        <time>2021-07-28T14:35:55Z</time>
      </trkpt>
      <trkpt lat="49.1886" lon="6.11893">
        <ele>212.5</ele>
        <time>2021-07-28T14:35:56Z</time>
      </trkpt>
      <trkpt lat="49.1886" lon="6.11895">
        <ele>212.5</ele>
        <time>2021-07-28T14:35:58Z</time>
      </trkpt>
      <trkpt lat="49.1886" lon="6.11893">
        <ele>212.6</ele>
        <time>2021-07-28T14:36:00Z</time>
      </trkpt>
      <trkpt lat="49.18859" lon="6.11891">
        <ele>212.6</ele>
        <time>2021-07-28T14:36:01Z</time>
      </trkpt>
      <trkpt lat="49.18857" lon="6.11887">
        <ele>212.6</ele>
        <time>2021-07-28T14:36:02Z</time>
      </trkpt>
      <trkpt lat="49.18855" lon="6.11883">
        <ele>212.7</ele>
        <time>2021-07-28T14:36:04Z</time>
      </trkpt>
      <trkpt lat="49.18855" lon="6.11882">
        <ele>212.7</ele>
        <time>2021-07-28T14:36:05Z</time>
      </trkpt>
      <trkpt lat="49.18853" lon="6.11876">
        <ele>212.8</ele>
        <time>2021-07-28T14:36:06Z</time>
      </trkpt>
      <trkpt lat="49.18852" lon="6.1187">
        <ele>212.8</ele>
        <time>2021-07-28T14:36:07Z</time>
      </trkpt>
      <trkpt lat="49.1885" lon="6.11864">
        <ele>212.9</ele>
        <time>2021-07-28T14:36:08Z</time>
      </trkpt>
      <trkpt lat="49.1885" lon="6.11861">
        <ele>212.9</ele>
        <time>2021-07-28T14:36:09Z</time>
      </trkpt>
      <trkpt lat="49.18849" lon="6.11858">
        <ele>212.9</ele>
        <time>2021-07-28T14:36:11Z</time>
      </trkpt>
      <trkpt lat="49.18848" lon="6.11854">
        <ele>213</ele>
        <time>2021-07-28T14:36:12Z</time>
      </trkpt>
      <trkpt lat="49.18848" lon="6.11852">
        <ele>213</ele>
        <time>2021-07-28T14:36:13Z</time>
      </trkpt>
      <trkpt lat="49.18848" lon="6.1185">
        <ele>213</ele>
        <time>2021-07-28T14:36:15Z</time>
      </trkpt>
      <trkpt lat="49.18847" lon="6.11848">
        <ele>213</ele>
        <time>2021-07-28T14:36:16Z</time>
      </trkpt>
      <trkpt lat="49.18847" lon="6.11845">
        <ele>213</ele>
        <time>2021-07-28T14:36:17Z</time>
      </trkpt>
      <trkpt lat="49.18847" lon="6.11844">
        <ele>212.9</ele>
        <time>2021-07-28T14:36:18Z</time>
      </trkpt>
      <trkpt lat="49.18839" lon="6.11886">
        <ele>212.1</ele>
        <time>2021-07-28T14:37:36Z</time>
      </trkpt>
      <trkpt lat="49.1884" lon="6.11904">
        <ele>211.8</ele>
        <time>2021-07-28T14:37:38Z</time>
      </trkpt>
      <trkpt lat="49.1884" lon="6.11913">
        <ele>211.6</ele>
        <time>2021-07-28T14:37:39Z</time>
      </trkpt>
      <trkpt lat="49.18842" lon="6.11917">
        <ele>211.5</ele>
        <time>2021-07-28T14:37:40Z</time>
      </trkpt>
      <trkpt lat="49.18845" lon="6.11922">
        <ele>211.4</ele>
        <time>2021-07-28T14:37:41Z</time>
      </trkpt>
      <trkpt lat="49.18848" lon="6.11929">
        <ele>211.3</ele>
        <time>2021-07-28T14:37:43Z</time>
      </trkpt>
      <trkpt lat="49.18853" lon="6.11936">
        <ele>211.1</ele>
        <time>2021-07-28T14:37:44Z</time>
      </trkpt>
      <trkpt lat="49.18856" lon="6.11939">
        <ele>210.9</ele>
        <time>2021-07-28T14:37:45Z</time>
      </trkpt>
      <trkpt lat="49.18862" lon="6.11942">
        <ele>210.8</ele>
        <time>2021-07-28T14:37:47Z</time>
      </trkpt>
      <trkpt lat="49.18865" lon="6.11946">
        <ele>210.7</ele>
        <time>2021-07-28T14:37:48Z</time>
      </trkpt>
      <trkpt lat="49.18867" lon="6.11951">
        <ele>210.6</ele>
        <time>2021-07-28T14:37:49Z</time>
      </trkpt>
      <trkpt lat="49.18868" lon="6.11955">
        <ele>210.5</ele>
        <time>2021-07-28T14:37:51Z</time>
      </trkpt>
      <trkpt lat="49.18869" lon="6.11959">
        <ele>210.4</ele>
        <time>2021-07-28T14:37:52Z</time>
      </trkpt>
      <trkpt lat="49.18871" lon="6.11966">
        <ele>210.3</ele>
        <time>2021-07-28T14:37:53Z</time>
      </trkpt>
      <trkpt lat="49.18873" lon="6.1198">
        <ele>208.4</ele>
        <time>2021-07-28T14:37:55Z</time>
      </trkpt>
      <trkpt lat="49.18874" lon="6.11994">
        <ele>208.2</ele>
        <time>2021-07-28T14:37:56Z</time>
      </trkpt>
      <trkpt lat="49.18874" lon="6.12002">
        <ele>208</ele>
        <time>2021-07-28T14:37:58Z</time>
      </trkpt>
      <trkpt lat="49.18874" lon="6.12006">
        <ele>207.9</ele>
        <time>2021-07-28T14:37:59Z</time>
      </trkpt>
      <trkpt lat="49.18873" lon="6.12009">
        <ele>207.9</ele>
        <time>2021-07-28T14:38:01Z</time>
      </trkpt>
      <trkpt lat="49.18873" lon="6.12016">
        <ele>207.7</ele>
        <time>2021-07-28T14:38:03Z</time>
      </trkpt>
      <trkpt lat="49.18871" lon="6.12022">
        <ele>207.6</ele>
        <time>2021-07-28T14:38:04Z</time>
      </trkpt>
      <trkpt lat="49.1887" lon="6.12028">
        <ele>207.5</ele>
        <time>2021-07-28T14:38:05Z</time>
      </trkpt>
      <trkpt lat="49.18869" lon="6.12033">
        <ele>207.4</ele>
        <time>2021-07-28T14:38:06Z</time>
      </trkpt>
      <trkpt lat="49.18866" lon="6.12039">
        <ele>207.3</ele>
        <time>2021-07-28T14:38:08Z</time>
      </trkpt>
      <trkpt lat="49.18865" lon="6.12044">
        <ele>207.2</ele>
        <time>2021-07-28T14:38:09Z</time>
      </trkpt>
      <trkpt lat="49.18863" lon="6.1205">
        <ele>207.1</ele>
        <time>2021-07-28T14:38:10Z</time>
      </trkpt>
      <trkpt lat="49.1886" lon="6.12058">
        <ele>207</ele>
        <time>2021-07-28T14:38:11Z</time>
      </trkpt>
      <trkpt lat="49.18858" lon="6.12067">
        <ele>206.8</ele>
        <time>2021-07-28T14:38:13Z</time>
      </trkpt>
      <trkpt lat="49.18856" lon="6.12073">
        <ele>206.8</ele>
        <time>2021-07-28T14:38:14Z</time>
      </trkpt>
      <trkpt lat="49.18854" lon="6.12081">
        <ele>206.6</ele>
        <time>2021-07-28T14:38:15Z</time>
      </trkpt>
      <trkpt lat="49.18852" lon="6.1209">
        <ele>206.5</ele>
        <time>2021-07-28T14:38:17Z</time>
      </trkpt>
      <trkpt lat="49.18851" lon="6.121">
        <ele>206.4</ele>
        <time>2021-07-28T14:38:18Z</time>
      </trkpt>
      <trkpt lat="49.18849" lon="6.12106">
        <ele>206.3</ele>
        <time>2021-07-28T14:38:19Z</time>
      </trkpt>
      <trkpt lat="49.18849" lon="6.12112">
        <ele>206.2</ele>
        <time>2021-07-28T14:38:20Z</time>
      </trkpt>
      <trkpt lat="49.18848" lon="6.12118">
        <ele>206.1</ele>
        <time>2021-07-28T14:38:21Z</time>
      </trkpt>
      <trkpt lat="49.18845" lon="6.12127">
        <ele>206</ele>
        <time>2021-07-28T14:38:23Z</time>
      </trkpt>
      <trkpt lat="49.18843" lon="6.12136">
        <ele>206</ele>
        <time>2021-07-28T14:38:24Z</time>
      </trkpt>
      <trkpt lat="49.18841" lon="6.12145">
        <ele>205.9</ele>
        <time>2021-07-28T14:38:26Z</time>
      </trkpt>
      <trkpt lat="49.1884" lon="6.12148">
        <ele>205.9</ele>
        <time>2021-07-28T14:38:27Z</time>
      </trkpt>
      <trkpt lat="49.18837" lon="6.12152">
        <ele>205.8</ele>
        <time>2021-07-28T14:38:28Z</time>
      </trkpt>
      <trkpt lat="49.18833" lon="6.12156">
        <ele>205.8</ele>
        <time>2021-07-28T14:38:29Z</time>
      </trkpt>
      <trkpt lat="49.18829" lon="6.12158">
        <ele>205.7</ele>
        <time>2021-07-28T14:38:30Z</time>
      </trkpt>
      <trkpt lat="49.18826" lon="6.1216">
        <ele>205.7</ele>
        <time>2021-07-28T14:38:31Z</time>
      </trkpt>
      <trkpt lat="49.18822" lon="6.12164">
        <ele>205.7</ele>
        <time>2021-07-28T14:38:33Z</time>
      </trkpt>
      <trkpt lat="49.18819" lon="6.12166">
        <ele>205.7</ele>
        <time>2021-07-28T14:38:34Z</time>
      </trkpt>
      <trkpt lat="49.18816" lon="6.12164">
        <ele>205.7</ele>
        <time>2021-07-28T14:38:35Z</time>
      </trkpt>
      <trkpt lat="49.18812" lon="6.12162">
        <ele>205.7</ele>
        <time>2021-07-28T14:38:36Z</time>
      </trkpt>
      <trkpt lat="49.18808" lon="6.1216">
        <ele>205.7</ele>
        <time>2021-07-28T14:38:38Z</time>
      </trkpt>
      <trkpt lat="49.18805" lon="6.12158">
        <ele>205.7</ele>
        <time>2021-07-28T14:38:39Z</time>
      </trkpt>
      <trkpt lat="49.18802" lon="6.12157">
        <ele>205.8</ele>
        <time>2021-07-28T14:38:40Z</time>
      </trkpt>
      <trkpt lat="49.18799" lon="6.12156">
        <ele>205.9</ele>
        <time>2021-07-28T14:38:41Z</time>
      </trkpt>
      <trkpt lat="49.18793" lon="6.12155">
        <ele>206</ele>
        <time>2021-07-28T14:38:43Z</time>
      </trkpt>
      <trkpt lat="49.18789" lon="6.12153">
        <ele>206.1</ele>
        <time>2021-07-28T14:38:44Z</time>
      </trkpt>
      <trkpt lat="49.18786" lon="6.12152">
        <ele>206.2</ele>
        <time>2021-07-28T14:38:45Z</time>
      </trkpt>
      <trkpt lat="49.18782" lon="6.1215">
        <ele>206.2</ele>
        <time>2021-07-28T14:38:47Z</time>
      </trkpt>
      <trkpt lat="49.18778" lon="6.12149">
        <ele>206.3</ele>
        <time>2021-07-28T14:38:48Z</time>
      </trkpt>
      <trkpt lat="49.18773" lon="6.12148">
        <ele>206.3</ele>
        <time>2021-07-28T14:38:49Z</time>
      </trkpt>
      <trkpt lat="49.18769" lon="6.12148">
        <ele>206.2</ele>
        <time>2021-07-28T14:38:50Z</time>
      </trkpt>
      <trkpt lat="49.18764" lon="6.12146">
        <ele>206.1</ele>
        <time>2021-07-28T14:38:52Z</time>
      </trkpt>
      <trkpt lat="49.18757" lon="6.12143">
        <ele>206</ele>
        <time>2021-07-28T14:38:54Z</time>
      </trkpt>
      <trkpt lat="49.18752" lon="6.12142">
        <ele>205.8</ele>
        <time>2021-07-28T14:38:55Z</time>
      </trkpt>
      <trkpt lat="49.18741" lon="6.12141">
        <ele>205.4</ele>
        <time>2021-07-28T14:38:57Z</time>
      </trkpt>
      <trkpt lat="49.18729" lon="6.12137">
        <ele>204.9</ele>
        <time>2021-07-28T14:38:59Z</time>
      </trkpt>
      <trkpt lat="49.18724" lon="6.12135">
        <ele>204.7</ele>
        <time>2021-07-28T14:39:00Z</time>
      </trkpt>
      <trkpt lat="49.18714" lon="6.1213">
        <ele>204.5</ele>
        <time>2021-07-28T14:39:02Z</time>
      </trkpt>
      <trkpt lat="49.18716" lon="6.12125">
        <ele>204.7</ele>
        <time>2021-07-28T14:39:03Z</time>
      </trkpt>
      <trkpt lat="49.18717" lon="6.12114">
        <ele>204.9</ele>
        <time>2021-07-28T14:39:05Z</time>
      </trkpt>
      <trkpt lat="49.18717" lon="6.12104">
        <ele>205.2</ele>
        <time>2021-07-28T14:39:07Z</time>
      </trkpt>
      <trkpt lat="49.18717" lon="6.12098">
        <ele>205.3</ele>
        <time>2021-07-28T14:39:08Z</time>
      </trkpt>
      <trkpt lat="49.18717" lon="6.12096">
        <ele>205.3</ele>
        <time>2021-07-28T14:39:09Z</time>
      </trkpt>
      <trkpt lat="49.18719" lon="6.12089">
        <ele>205.5</ele>
        <time>2021-07-28T14:39:11Z</time>
      </trkpt>
      <trkpt lat="49.18719" lon="6.12085">
        <ele>205.6</ele>
        <time>2021-07-28T14:39:12Z</time>
      </trkpt>
      <trkpt lat="49.18719" lon="6.12079">
        <ele>205.7</ele>
        <time>2021-07-28T14:39:14Z</time>
      </trkpt>
      <trkpt lat="49.1872" lon="6.12074">
        <ele>205.7</ele>
        <time>2021-07-28T14:39:15Z</time>
      </trkpt>
      <trkpt lat="49.1872" lon="6.12072">
        <ele>205.8</ele>
        <time>2021-07-28T14:39:16Z</time>
      </trkpt>
      <trkpt lat="49.18719" lon="6.1207">
        <ele>205.8</ele>
        <time>2021-07-28T14:39:17Z</time>
      </trkpt>
      <trkpt lat="49.18718" lon="6.12067">
        <ele>205.8</ele>
        <time>2021-07-28T14:39:19Z</time>
      </trkpt>
      <trkpt lat="49.18713" lon="6.12064">
        <ele>205.9</ele>
        <time>2021-07-28T14:39:21Z</time>
      </trkpt>
      <trkpt lat="49.1871" lon="6.12061">
        <ele>206</ele>
        <time>2021-07-28T14:39:22Z</time>
      </trkpt>
      <trkpt lat="49.18707" lon="6.12059">
        <ele>206</ele>
        <time>2021-07-28T14:39:23Z</time>
      </trkpt>
      <trkpt lat="49.18704" lon="6.12053">
        <ele>206</ele>
        <time>2021-07-28T14:39:25Z</time>
      </trkpt>
      <trkpt lat="49.18703" lon="6.12046">
        <ele>206.1</ele>
        <time>2021-07-28T14:39:27Z</time>
      </trkpt>
      <trkpt lat="49.18703" lon="6.12042">
        <ele>206.1</ele>
        <time>2021-07-28T14:39:28Z</time>
      </trkpt>
      <trkpt lat="49.18703" lon="6.12039">
        <ele>206.1</ele>
        <time>2021-07-28T14:39:29Z</time>
      </trkpt>
      <trkpt lat="49.18703" lon="6.12033">
        <ele>206.2</ele>
        <time>2021-07-28T14:39:31Z</time>
      </trkpt>
      <trkpt lat="49.18703" lon="6.12027">
        <ele>206.2</ele>
        <time>2021-07-28T14:39:32Z</time>
      </trkpt>
      <trkpt lat="49.18703" lon="6.12022">
        <ele>206.3</ele>
        <time>2021-07-28T14:39:33Z</time>
      </trkpt>
      <trkpt lat="49.18704" lon="6.12017">
        <ele>206.3</ele>
        <time>2021-07-28T14:39:35Z</time>
      </trkpt>
      <trkpt lat="49.18704" lon="6.12011">
        <ele>206.3</ele>
        <time>2021-07-28T14:39:36Z</time>
      </trkpt>
      <trkpt lat="49.18705" lon="6.12003">
        <ele>206.4</ele>
        <time>2021-07-28T14:39:38Z</time>
      </trkpt>
      <trkpt lat="49.18708" lon="6.11996">
        <ele>206.5</ele>
        <time>2021-07-28T14:39:40Z</time>
      </trkpt>
      <trkpt lat="49.18709" lon="6.11992">
        <ele>206.5</ele>
        <time>2021-07-28T14:39:41Z</time>
      </trkpt>
      <trkpt lat="49.1871" lon="6.11987">
        <ele>206.6</ele>
        <time>2021-07-28T14:39:42Z</time>
      </trkpt>
      <trkpt lat="49.18712" lon="6.11978">
        <ele>206.7</ele>
        <time>2021-07-28T14:39:44Z</time>
      </trkpt>
      <trkpt lat="49.18713" lon="6.11973">
        <ele>206.8</ele>
        <time>2021-07-28T14:39:45Z</time>
      </trkpt>
      <trkpt lat="49.18713" lon="6.11968">
        <ele>206.8</ele>
        <time>2021-07-28T14:39:46Z</time>
      </trkpt>
      <trkpt lat="49.18713" lon="6.11961">
        <ele>206.9</ele>
        <time>2021-07-28T14:39:47Z</time>
      </trkpt>
      <trkpt lat="49.18713" lon="6.11954">
        <ele>207</ele>
        <time>2021-07-28T14:39:49Z</time>
      </trkpt>
      <trkpt lat="49.18713" lon="6.11949">
        <ele>207.1</ele>
        <time>2021-07-28T14:39:50Z</time>
      </trkpt>
      <trkpt lat="49.18713" lon="6.11939">
        <ele>207.2</ele>
        <time>2021-07-28T14:39:52Z</time>
      </trkpt>
      <trkpt lat="49.18714" lon="6.11933">
        <ele>207.3</ele>
        <time>2021-07-28T14:39:53Z</time>
      </trkpt>
      <trkpt lat="49.18714" lon="6.11925">
        <ele>207.4</ele>
        <time>2021-07-28T14:39:55Z</time>
      </trkpt>
      <trkpt lat="49.18714" lon="6.11922">
        <ele>207.4</ele>
        <time>2021-07-28T14:39:56Z</time>
      </trkpt>
      <trkpt lat="49.18714" lon="6.1192">
        <ele>207.4</ele>
        <time>2021-07-28T14:39:57Z</time>
      </trkpt>
      <trkpt lat="49.18713" lon="6.11913">
        <ele>207.5</ele>
        <time>2021-07-28T14:39:59Z</time>
      </trkpt>
      <trkpt lat="49.18712" lon="6.11907">
        <ele>207.6</ele>
        <time>2021-07-28T14:40:00Z</time>
      </trkpt>
      <trkpt lat="49.18712" lon="6.11905">
        <ele>207.6</ele>
        <time>2021-07-28T14:40:01Z</time>
      </trkpt>
      <trkpt lat="49.18712" lon="6.119">
        <ele>207.7</ele>
        <time>2021-07-28T14:40:02Z</time>
      </trkpt>
      <trkpt lat="49.18712" lon="6.11898">
        <ele>207.7</ele>
        <time>2021-07-28T14:40:03Z</time>
      </trkpt>
      <trkpt lat="49.18712" lon="6.11891">
        <ele>207.8</ele>
        <time>2021-07-28T14:40:05Z</time>
      </trkpt>
      <trkpt lat="49.18711" lon="6.11887">
        <ele>207.9</ele>
        <time>2021-07-28T14:40:06Z</time>
      </trkpt>
      <trkpt lat="49.1871" lon="6.11883">
        <ele>207.9</ele>
        <time>2021-07-28T14:40:07Z</time>
      </trkpt>
      <trkpt lat="49.1871" lon="6.11875">
        <ele>208</ele>
        <time>2021-07-28T14:40:09Z</time>
      </trkpt>
      <trkpt lat="49.18709" lon="6.1187">
        <ele>208</ele>
        <time>2021-07-28T14:40:10Z</time>
      </trkpt>
      <trkpt lat="49.18707" lon="6.11863">
        <ele>208.1</ele>
        <time>2021-07-28T14:40:11Z</time>
      </trkpt>
      <trkpt lat="49.18705" lon="6.11859">
        <ele>208.2</ele>
        <time>2021-07-28T14:40:12Z</time>
      </trkpt>
      <trkpt lat="49.18704" lon="6.11854">
        <ele>208.2</ele>
        <time>2021-07-28T14:40:14Z</time>
      </trkpt>
      <trkpt lat="49.18703" lon="6.11848">
        <ele>208.3</ele>
        <time>2021-07-28T14:40:15Z</time>
      </trkpt>
      <trkpt lat="49.18701" lon="6.11842">
        <ele>208.4</ele>
        <time>2021-07-28T14:40:16Z</time>
      </trkpt>
      <trkpt lat="49.18699" lon="6.11838">
        <ele>208.4</ele>
        <time>2021-07-28T14:40:17Z</time>
      </trkpt>
      <trkpt lat="49.18697" lon="6.11834">
        <ele>208.5</ele>
        <time>2021-07-28T14:40:18Z</time>
      </trkpt>
      <trkpt lat="49.18694" lon="6.1183">
        <ele>208.6</ele>
        <time>2021-07-28T14:40:20Z</time>
      </trkpt>
      <trkpt lat="49.18692" lon="6.11825">
        <ele>208.6</ele>
        <time>2021-07-28T14:40:21Z</time>
      </trkpt>
      <trkpt lat="49.18691" lon="6.1182">
        <ele>208.7</ele>
        <time>2021-07-28T14:40:22Z</time>
      </trkpt>
      <trkpt lat="49.18689" lon="6.11813">
        <ele>208.8</ele>
        <time>2021-07-28T14:40:23Z</time>
      </trkpt>
      <trkpt lat="49.18686" lon="6.11808">
        <ele>208.9</ele>
        <time>2021-07-28T14:40:24Z</time>
      </trkpt>
      <trkpt lat="49.18683" lon="6.11804">
        <ele>209</ele>
        <time>2021-07-28T14:40:26Z</time>
      </trkpt>
      <trkpt lat="49.18681" lon="6.118">
        <ele>209.1</ele>
        <time>2021-07-28T14:40:27Z</time>
      </trkpt>
      <trkpt lat="49.18679" lon="6.11795">
        <ele>209.2</ele>
        <time>2021-07-28T14:40:28Z</time>
      </trkpt>
      <trkpt lat="49.18676" lon="6.1179">
        <ele>209.3</ele>
        <time>2021-07-28T14:40:30Z</time>
      </trkpt>
      <trkpt lat="49.18675" lon="6.11785">
        <ele>209.4</ele>
        <time>2021-07-28T14:40:31Z</time>
      </trkpt>
      <trkpt lat="49.18674" lon="6.11781">
        <ele>209.5</ele>
        <time>2021-07-28T14:40:32Z</time>
      </trkpt>
      <trkpt lat="49.18673" lon="6.11778">
        <ele>209.6</ele>
        <time>2021-07-28T14:40:33Z</time>
      </trkpt>
      <trkpt lat="49.18672" lon="6.11774">
        <ele>209.6</ele>
        <time>2021-07-28T14:40:35Z</time>
      </trkpt>
      <trkpt lat="49.18671" lon="6.11771">
        <ele>209.7</ele>
        <time>2021-07-28T14:40:36Z</time>
      </trkpt>
      <trkpt lat="49.1867" lon="6.11769">
        <ele>209.8</ele>
        <time>2021-07-28T14:40:37Z</time>
      </trkpt>
      <trkpt lat="49.18668" lon="6.11765">
        <ele>209.9</ele>
        <time>2021-07-28T14:40:39Z</time>
      </trkpt>
      <trkpt lat="49.18668" lon="6.11762">
        <ele>209.9</ele>
        <time>2021-07-28T14:40:40Z</time>
      </trkpt>
      <trkpt lat="49.18665" lon="6.11758">
        <ele>210</ele>
        <time>2021-07-28T14:40:42Z</time>
      </trkpt>
      <trkpt lat="49.18664" lon="6.11755">
        <ele>210.1</ele>
        <time>2021-07-28T14:40:43Z</time>
      </trkpt>
      <trkpt lat="49.18662" lon="6.11751">
        <ele>210.2</ele>
        <time>2021-07-28T14:40:45Z</time>
      </trkpt>
      <trkpt lat="49.18661" lon="6.11747">
        <ele>210.2</ele>
        <time>2021-07-28T14:40:46Z</time>
      </trkpt>
      <trkpt lat="49.18659" lon="6.11743">
        <ele>210.3</ele>
        <time>2021-07-28T14:40:48Z</time>
      </trkpt>
      <trkpt lat="49.18658" lon="6.11741">
        <ele>210.3</ele>
        <time>2021-07-28T14:40:49Z</time>
      </trkpt>
      <trkpt lat="49.18657" lon="6.11739">
        <ele>210.4</ele>
        <time>2021-07-28T14:40:50Z</time>
      </trkpt>
      <trkpt lat="49.18656" lon="6.11735">
        <ele>210.4</ele>
        <time>2021-07-28T14:40:51Z</time>
      </trkpt>
      <trkpt lat="49.18655" lon="6.11732">
        <ele>210.5</ele>
        <time>2021-07-28T14:40:53Z</time>
      </trkpt>
      <trkpt lat="49.18654" lon="6.11729">
        <ele>210.5</ele>
        <time>2021-07-28T14:40:54Z</time>
      </trkpt>
      <trkpt lat="49.18652" lon="6.11724">
        <ele>210.6</ele>
        <time>2021-07-28T14:40:56Z</time>
      </trkpt>
      <trkpt lat="49.18651" lon="6.11719">
        <ele>210.7</ele>
        <time>2021-07-28T14:40:57Z</time>
      </trkpt>
      <trkpt lat="49.18651" lon="6.11717">
        <ele>210.7</ele>
        <time>2021-07-28T14:40:58Z</time>
      </trkpt>
      <trkpt lat="49.1865" lon="6.11713">
        <ele>210.7</ele>
        <time>2021-07-28T14:40:59Z</time>
      </trkpt>
      <trkpt lat="49.18649" lon="6.11708">
        <ele>210.8</ele>
        <time>2021-07-28T14:41:01Z</time>
      </trkpt>
      <trkpt lat="49.18648" lon="6.11704">
        <ele>210.8</ele>
        <time>2021-07-28T14:41:02Z</time>
      </trkpt>
      <trkpt lat="49.18647" lon="6.11697">
        <ele>210.9</ele>
        <time>2021-07-28T14:41:04Z</time>
      </trkpt>
      <trkpt lat="49.18645" lon="6.11693">
        <ele>211</ele>
        <time>2021-07-28T14:41:05Z</time>
      </trkpt>
      <trkpt lat="49.18645" lon="6.11691">
        <ele>211</ele>
        <time>2021-07-28T14:41:06Z</time>
      </trkpt>
      <trkpt lat="49.18643" lon="6.11685">
        <ele>211.1</ele>
        <time>2021-07-28T14:41:08Z</time>
      </trkpt>
      <trkpt lat="49.1864" lon="6.11682">
        <ele>211.1</ele>
        <time>2021-07-28T14:41:09Z</time>
      </trkpt>
      <trkpt lat="49.18638" lon="6.1168">
        <ele>211.2</ele>
        <time>2021-07-28T14:41:10Z</time>
      </trkpt>
      <trkpt lat="49.18635" lon="6.11678">
        <ele>211.3</ele>
        <time>2021-07-28T14:41:12Z</time>
      </trkpt>
      <trkpt lat="49.18632" lon="6.11675">
        <ele>211.3</ele>
        <time>2021-07-28T14:41:13Z</time>
      </trkpt>
      <trkpt lat="49.1863" lon="6.11672">
        <ele>211.4</ele>
        <time>2021-07-28T14:41:14Z</time>
      </trkpt>
      <trkpt lat="49.18627" lon="6.11669">
        <ele>211.4</ele>
        <time>2021-07-28T14:41:15Z</time>
      </trkpt>
      <trkpt lat="49.18624" lon="6.11665">
        <ele>211.5</ele>
        <time>2021-07-28T14:41:16Z</time>
      </trkpt>
      <trkpt lat="49.18622" lon="6.11662">
        <ele>211.6</ele>
        <time>2021-07-28T14:41:18Z</time>
      </trkpt>
      <trkpt lat="49.1862" lon="6.11659">
        <ele>211.7</ele>
        <time>2021-07-28T14:41:19Z</time>
      </trkpt>
      <trkpt lat="49.18618" lon="6.11654">
        <ele>211.7</ele>
        <time>2021-07-28T14:41:20Z</time>
      </trkpt>
      <trkpt lat="49.18617" lon="6.11652">
        <ele>211.8</ele>
        <time>2021-07-28T14:41:21Z</time>
      </trkpt>
      <trkpt lat="49.18614" lon="6.11644">
        <ele>211.9</ele>
        <time>2021-07-28T14:41:23Z</time>
      </trkpt>
      <trkpt lat="49.18612" lon="6.1164">
        <ele>212</ele>
        <time>2021-07-28T14:41:24Z</time>
      </trkpt>
      <trkpt lat="49.18609" lon="6.11635">
        <ele>212.1</ele>
        <time>2021-07-28T14:41:26Z</time>
      </trkpt>
      <trkpt lat="49.18607" lon="6.1163">
        <ele>212.1</ele>
        <time>2021-07-28T14:41:27Z</time>
      </trkpt>
      <trkpt lat="49.18607" lon="6.11629">
        <ele>212.2</ele>
        <time>2021-07-28T14:41:28Z</time>
      </trkpt>
      <trkpt lat="49.18605" lon="6.11625">
        <ele>212.2</ele>
        <time>2021-07-28T14:41:29Z</time>
      </trkpt>
      <trkpt lat="49.18604" lon="6.11622">
        <ele>212.3</ele>
        <time>2021-07-28T14:41:31Z</time>
      </trkpt>
      <trkpt lat="49.18604" lon="6.1162">
        <ele>212.3</ele>
        <time>2021-07-28T14:41:32Z</time>
      </trkpt>
      <trkpt lat="49.18603" lon="6.11613">
        <ele>212.4</ele>
        <time>2021-07-28T14:41:34Z</time>
      </trkpt>
      <trkpt lat="49.18602" lon="6.11611">
        <ele>212.5</ele>
        <time>2021-07-28T14:41:35Z</time>
      </trkpt>
      <trkpt lat="49.18602" lon="6.11609">
        <ele>212.5</ele>
        <time>2021-07-28T14:41:36Z</time>
      </trkpt>
      <trkpt lat="49.18601" lon="6.11603">
        <ele>212.6</ele>
        <time>2021-07-28T14:41:38Z</time>
      </trkpt>
      <trkpt lat="49.186" lon="6.11601">
        <ele>212.6</ele>
        <time>2021-07-28T14:41:39Z</time>
      </trkpt>
      <trkpt lat="49.18599" lon="6.11599">
        <ele>212.7</ele>
        <time>2021-07-28T14:41:40Z</time>
      </trkpt>
      <trkpt lat="49.18598" lon="6.11595">
        <ele>212.8</ele>
        <time>2021-07-28T14:41:41Z</time>
      </trkpt>
      <trkpt lat="49.18597" lon="6.11593">
        <ele>212.8</ele>
        <time>2021-07-28T14:41:43Z</time>
      </trkpt>
      <trkpt lat="49.18597" lon="6.1159">
        <ele>212.9</ele>
        <time>2021-07-28T14:41:44Z</time>
      </trkpt>
      <trkpt lat="49.18596" lon="6.11588">
        <ele>212.9</ele>
        <time>2021-07-28T14:41:45Z</time>
      </trkpt>
      <trkpt lat="49.18596" lon="6.11582">
        <ele>213.1</ele>
        <time>2021-07-28T14:41:47Z</time>
      </trkpt>
      <trkpt lat="49.18596" lon="6.1158">
        <ele>213.1</ele>
        <time>2021-07-28T14:41:49Z</time>
      </trkpt>
      <trkpt lat="49.18597" lon="6.11578">
        <ele>213.1</ele>
        <time>2021-07-28T14:41:50Z</time>
      </trkpt>
      <trkpt lat="49.18596" lon="6.11576">
        <ele>213.2</ele>
        <time>2021-07-28T14:41:51Z</time>
      </trkpt>
      <trkpt lat="49.18595" lon="6.11572">
        <ele>213.3</ele>
        <time>2021-07-28T14:41:53Z</time>
      </trkpt>
      <trkpt lat="49.18595" lon="6.11569">
        <ele>213.3</ele>
        <time>2021-07-28T14:41:54Z</time>
      </trkpt>
      <trkpt lat="49.18594" lon="6.11567">
        <ele>213.4</ele>
        <time>2021-07-28T14:41:55Z</time>
      </trkpt>
      <trkpt lat="49.18595" lon="6.11565">
        <ele>213.4</ele>
        <time>2021-07-28T14:41:56Z</time>
      </trkpt>
      <trkpt lat="49.18594" lon="6.11559">
        <ele>213.5</ele>
        <time>2021-07-28T14:41:58Z</time>
      </trkpt>
      <trkpt lat="49.18594" lon="6.11554">
        <ele>213.7</ele>
        <time>2021-07-28T14:41:59Z</time>
      </trkpt>
      <trkpt lat="49.18594" lon="6.11552">
        <ele>213.7</ele>
        <time>2021-07-28T14:42:00Z</time>
      </trkpt>
      <trkpt lat="49.18594" lon="6.11551">
        <ele>213.7</ele>
        <time>2021-07-28T14:42:02Z</time>
      </trkpt>
      <trkpt lat="49.18593" lon="6.11548">
        <ele>213.8</ele>
        <time>2021-07-28T14:42:03Z</time>
      </trkpt>
      <trkpt lat="49.18593" lon="6.11545">
        <ele>213.8</ele>
        <time>2021-07-28T14:42:05Z</time>
      </trkpt>
      <trkpt lat="49.18592" lon="6.11541">
        <ele>213.9</ele>
        <time>2021-07-28T14:42:06Z</time>
      </trkpt>
      <trkpt lat="49.18591" lon="6.11533">
        <ele>214.1</ele>
        <time>2021-07-28T14:42:08Z</time>
      </trkpt>
      <trkpt lat="49.18591" lon="6.11529">
        <ele>214.2</ele>
        <time>2021-07-28T14:42:09Z</time>
      </trkpt>
      <trkpt lat="49.18591" lon="6.11523">
        <ele>214.3</ele>
        <time>2021-07-28T14:42:11Z</time>
      </trkpt>
      <trkpt lat="49.18591" lon="6.1152">
        <ele>214.4</ele>
        <time>2021-07-28T14:42:12Z</time>
      </trkpt>
      <trkpt lat="49.18592" lon="6.11514">
        <ele>214.5</ele>
        <time>2021-07-28T14:42:14Z</time>
      </trkpt>
      <trkpt lat="49.18592" lon="6.11511">
        <ele>214.6</ele>
        <time>2021-07-28T14:42:15Z</time>
      </trkpt>
      <trkpt lat="49.18591" lon="6.11507">
        <ele>214.7</ele>
        <time>2021-07-28T14:42:17Z</time>
      </trkpt>
      <trkpt lat="49.18591" lon="6.11504">
        <ele>214.8</ele>
        <time>2021-07-28T14:42:18Z</time>
      </trkpt>
      <trkpt lat="49.1859" lon="6.11499">
        <ele>214.9</ele>
        <time>2021-07-28T14:42:20Z</time>
      </trkpt>
      <trkpt lat="49.18588" lon="6.11494">
        <ele>215</ele>
        <time>2021-07-28T14:42:21Z</time>
      </trkpt>
      <trkpt lat="49.18588" lon="6.11493">
        <ele>215</ele>
        <time>2021-07-28T14:42:22Z</time>
      </trkpt>
      <trkpt lat="49.18588" lon="6.1149">
        <ele>215.1</ele>
        <time>2021-07-28T14:42:23Z</time>
      </trkpt>
      <trkpt lat="49.18587" lon="6.11485">
        <ele>215.2</ele>
        <time>2021-07-28T14:42:25Z</time>
      </trkpt>
      <trkpt lat="49.18584" lon="6.1148">
        <ele>215.3</ele>
        <time>2021-07-28T14:42:26Z</time>
      </trkpt>
      <trkpt lat="49.18583" lon="6.11477">
        <ele>215.4</ele>
        <time>2021-07-28T14:42:27Z</time>
      </trkpt>
      <trkpt lat="49.18581" lon="6.11471">
        <ele>215.5</ele>
        <time>2021-07-28T14:42:29Z</time>
      </trkpt>
      <trkpt lat="49.1858" lon="6.11468">
        <ele>215.6</ele>
        <time>2021-07-28T14:42:30Z</time>
      </trkpt>
      <trkpt lat="49.1858" lon="6.11466">
        <ele>215.6</ele>
        <time>2021-07-28T14:42:31Z</time>
      </trkpt>
      <trkpt lat="49.18579" lon="6.11463">
        <ele>215.7</ele>
        <time>2021-07-28T14:42:32Z</time>
      </trkpt>
      <trkpt lat="49.18578" lon="6.1146">
        <ele>215.7</ele>
        <time>2021-07-28T14:42:34Z</time>
      </trkpt>
      <trkpt lat="49.18577" lon="6.11458">
        <ele>215.8</ele>
        <time>2021-07-28T14:42:35Z</time>
      </trkpt>
      <trkpt lat="49.18576" lon="6.11456">
        <ele>215.8</ele>
        <time>2021-07-28T14:42:36Z</time>
      </trkpt>
      <trkpt lat="49.18575" lon="6.1145">
        <ele>216</ele>
        <time>2021-07-28T14:42:38Z</time>
      </trkpt>
      <trkpt lat="49.18575" lon="6.11447">
        <ele>216</ele>
        <time>2021-07-28T14:42:40Z</time>
      </trkpt>
      <trkpt lat="49.18576" lon="6.11445">
        <ele>216.1</ele>
        <time>2021-07-28T14:42:42Z</time>
      </trkpt>
      <trkpt lat="49.18576" lon="6.11442">
        <ele>216.1</ele>
        <time>2021-07-28T14:42:44Z</time>
      </trkpt>
      <trkpt lat="49.18577" lon="6.11439">
        <ele>216.2</ele>
        <time>2021-07-28T14:42:45Z</time>
      </trkpt>
      <trkpt lat="49.18578" lon="6.11438">
        <ele>216.3</ele>
        <time>2021-07-28T14:42:46Z</time>
      </trkpt>
      <trkpt lat="49.18578" lon="6.11434">
        <ele>216.3</ele>
        <time>2021-07-28T14:42:48Z</time>
      </trkpt>
      <trkpt lat="49.18577" lon="6.11428">
        <ele>216.5</ele>
        <time>2021-07-28T14:42:50Z</time>
      </trkpt>
      <trkpt lat="49.18577" lon="6.11425">
        <ele>216.5</ele>
        <time>2021-07-28T14:42:51Z</time>
      </trkpt>
      <trkpt lat="49.18576" lon="6.11419">
        <ele>216.7</ele>
        <time>2021-07-28T14:42:53Z</time>
      </trkpt>
      <trkpt lat="49.18575" lon="6.11415">
        <ele>216.7</ele>
        <time>2021-07-28T14:42:54Z</time>
      </trkpt>
      <trkpt lat="49.18575" lon="6.1141">
        <ele>216.8</ele>
        <time>2021-07-28T14:42:56Z</time>
      </trkpt>
      <trkpt lat="49.18575" lon="6.11408">
        <ele>216.9</ele>
        <time>2021-07-28T14:42:57Z</time>
      </trkpt>
      <trkpt lat="49.18575" lon="6.11404">
        <ele>216.9</ele>
        <time>2021-07-28T14:42:59Z</time>
      </trkpt>
      <trkpt lat="49.18574" lon="6.11399">
        <ele>217</ele>
        <time>2021-07-28T14:43:00Z</time>
      </trkpt>
      <trkpt lat="49.18574" lon="6.11395">
        <ele>217.1</ele>
        <time>2021-07-28T14:43:01Z</time>
      </trkpt>
      <trkpt lat="49.18573" lon="6.1139">
        <ele>217.2</ele>
        <time>2021-07-28T14:43:03Z</time>
      </trkpt>
      <trkpt lat="49.18573" lon="6.11386">
        <ele>217.3</ele>
        <time>2021-07-28T14:43:04Z</time>
      </trkpt>
      <trkpt lat="49.18573" lon="6.1138">
        <ele>217.4</ele>
        <time>2021-07-28T14:43:05Z</time>
      </trkpt>
      <trkpt lat="49.18574" lon="6.11378">
        <ele>217.4</ele>
        <time>2021-07-28T14:43:06Z</time>
      </trkpt>
      <trkpt lat="49.18574" lon="6.11372">
        <ele>217.5</ele>
        <time>2021-07-28T14:43:08Z</time>
      </trkpt>
      <trkpt lat="49.18574" lon="6.1137">
        <ele>217.5</ele>
        <time>2021-07-28T14:43:09Z</time>
      </trkpt>
      <trkpt lat="49.18574" lon="6.11368">
        <ele>217.6</ele>
        <time>2021-07-28T14:43:10Z</time>
      </trkpt>
      <trkpt lat="49.18574" lon="6.11363">
        <ele>217.7</ele>
        <time>2021-07-28T14:43:12Z</time>
      </trkpt>
      <trkpt lat="49.18574" lon="6.1136">
        <ele>217.7</ele>
        <time>2021-07-28T14:43:13Z</time>
      </trkpt>
      <trkpt lat="49.18572" lon="6.11357">
        <ele>217.8</ele>
        <time>2021-07-28T14:43:15Z</time>
      </trkpt>
      <trkpt lat="49.18571" lon="6.11355">
        <ele>217.8</ele>
        <time>2021-07-28T14:43:16Z</time>
      </trkpt>
      <trkpt lat="49.1857" lon="6.11352">
        <ele>217.9</ele>
        <time>2021-07-28T14:43:17Z</time>
      </trkpt>
      <trkpt lat="49.18568" lon="6.11347">
        <ele>218</ele>
        <time>2021-07-28T14:43:19Z</time>
      </trkpt>
      <trkpt lat="49.18568" lon="6.11341">
        <ele>218.2</ele>
        <time>2021-07-28T14:43:20Z</time>
      </trkpt>
      <trkpt lat="49.18568" lon="6.11339">
        <ele>218.2</ele>
        <time>2021-07-28T14:43:21Z</time>
      </trkpt>
      <trkpt lat="49.18567" lon="6.11335">
        <ele>218.3</ele>
        <time>2021-07-28T14:43:23Z</time>
      </trkpt>
      <trkpt lat="49.18567" lon="6.11332">
        <ele>218.4</ele>
        <time>2021-07-28T14:43:24Z</time>
      </trkpt>
      <trkpt lat="49.18566" lon="6.1133">
        <ele>218.5</ele>
        <time>2021-07-28T14:43:25Z</time>
      </trkpt>
      <trkpt lat="49.18565" lon="6.11325">
        <ele>218.6</ele>
        <time>2021-07-28T14:43:27Z</time>
      </trkpt>
      <trkpt lat="49.18565" lon="6.11323">
        <ele>218.7</ele>
        <time>2021-07-28T14:43:29Z</time>
      </trkpt>
      <trkpt lat="49.18566" lon="6.11321">
        <ele>218.7</ele>
        <time>2021-07-28T14:43:31Z</time>
      </trkpt>
      <trkpt lat="49.18566" lon="6.11321">
        <ele>218.7</ele>
        <time>2021-07-28T14:43:32Z</time>
      </trkpt>
      <trkpt lat="49.18565" lon="6.1132">
        <ele>218.8</ele>
        <time>2021-07-28T14:43:34Z</time>
      </trkpt>
      <trkpt lat="49.18565" lon="6.11319">
        <ele>218.8</ele>
        <time>2021-07-28T14:43:35Z</time>
      </trkpt>
      <trkpt lat="49.18564" lon="6.11317">
        <ele>218.9</ele>
        <time>2021-07-28T14:43:37Z</time>
      </trkpt>
      <trkpt lat="49.18559" lon="6.113">
        <ele>219.6</ele>
        <time>2021-07-28T14:43:46Z</time>
      </trkpt>
      <trkpt lat="49.18557" lon="6.11295">
        <ele>219.9</ele>
        <time>2021-07-28T14:43:47Z</time>
      </trkpt>
      <trkpt lat="49.18555" lon="6.11292">
        <ele>220.1</ele>
        <time>2021-07-28T14:43:48Z</time>
      </trkpt>
      <trkpt lat="49.18554" lon="6.11287">
        <ele>220.4</ele>
        <time>2021-07-28T14:43:50Z</time>
      </trkpt>
      <trkpt lat="49.18554" lon="6.11285">
        <ele>220.5</ele>
        <time>2021-07-28T14:43:51Z</time>
      </trkpt>
      <trkpt lat="49.18554" lon="6.1128">
        <ele>220.8</ele>
        <time>2021-07-28T14:43:54Z</time>
      </trkpt>
      <trkpt lat="49.18553" lon="6.11276">
        <ele>221</ele>
        <time>2021-07-28T14:43:55Z</time>
      </trkpt>
      <trkpt lat="49.18552" lon="6.11272">
        <ele>221.3</ele>
        <time>2021-07-28T14:43:57Z</time>
      </trkpt>
      <trkpt lat="49.18551" lon="6.11267">
        <ele>221.7</ele>
        <time>2021-07-28T14:43:59Z</time>
      </trkpt>
      <trkpt lat="49.1855" lon="6.11266">
        <ele>221.7</ele>
        <time>2021-07-28T14:44:00Z</time>
      </trkpt>
      <trkpt lat="49.18548" lon="6.11262">
        <ele>222</ele>
        <time>2021-07-28T14:44:01Z</time>
      </trkpt>
      <trkpt lat="49.18546" lon="6.11261">
        <ele>222.2</ele>
        <time>2021-07-28T14:44:03Z</time>
      </trkpt>
      <trkpt lat="49.18545" lon="6.11259">
        <ele>222.4</ele>
        <time>2021-07-28T14:44:04Z</time>
      </trkpt>
      <trkpt lat="49.18544" lon="6.11258">
        <ele>222.6</ele>
        <time>2021-07-28T14:44:05Z</time>
      </trkpt>
      <trkpt lat="49.18542" lon="6.11255">
        <ele>222.8</ele>
        <time>2021-07-28T14:44:06Z</time>
      </trkpt>
      <trkpt lat="49.18541" lon="6.11253">
        <ele>222.9</ele>
        <time>2021-07-28T14:44:08Z</time>
      </trkpt>
      <trkpt lat="49.18541" lon="6.11252">
        <ele>223</ele>
        <time>2021-07-28T14:44:09Z</time>
      </trkpt>
      <trkpt lat="49.1854" lon="6.1125">
        <ele>223.1</ele>
        <time>2021-07-28T14:44:10Z</time>
      </trkpt>
      <trkpt lat="49.1854" lon="6.11249">
        <ele>223.2</ele>
        <time>2021-07-28T14:44:11Z</time>
      </trkpt>
      <trkpt lat="49.18538" lon="6.11245">
        <ele>223.4</ele>
        <time>2021-07-28T14:44:12Z</time>
      </trkpt>
      <trkpt lat="49.18537" lon="6.11244">
        <ele>223.5</ele>
        <time>2021-07-28T14:44:13Z</time>
      </trkpt>
      <trkpt lat="49.18536" lon="6.11242">
        <ele>223.6</ele>
        <time>2021-07-28T14:44:14Z</time>
      </trkpt>
      <trkpt lat="49.18535" lon="6.1124">
        <ele>223.7</ele>
        <time>2021-07-28T14:44:15Z</time>
      </trkpt>
      <trkpt lat="49.18534" lon="6.11237">
        <ele>223.9</ele>
        <time>2021-07-28T14:44:16Z</time>
      </trkpt>
      <trkpt lat="49.18534" lon="6.11236">
        <ele>223.9</ele>
        <time>2021-07-28T14:44:18Z</time>
      </trkpt>
      <trkpt lat="49.18534" lon="6.11234">
        <ele>224</ele>
        <time>2021-07-28T14:44:19Z</time>
      </trkpt>
      <trkpt lat="49.18533" lon="6.11232">
        <ele>224.1</ele>
        <time>2021-07-28T14:44:20Z</time>
      </trkpt>
      <trkpt lat="49.18531" lon="6.1123">
        <ele>224.2</ele>
        <time>2021-07-28T14:44:21Z</time>
      </trkpt>
      <trkpt lat="49.18529" lon="6.11227">
        <ele>224.3</ele>
        <time>2021-07-28T14:44:23Z</time>
      </trkpt>
      <trkpt lat="49.18526" lon="6.11225">
        <ele>224.4</ele>
        <time>2021-07-28T14:44:24Z</time>
      </trkpt>
      <trkpt lat="49.18523" lon="6.11219">
        <ele>224.6</ele>
        <time>2021-07-28T14:44:26Z</time>
      </trkpt>
      <trkpt lat="49.1852" lon="6.11215">
        <ele>224.7</ele>
        <time>2021-07-28T14:44:27Z</time>
      </trkpt>
      <trkpt lat="49.18519" lon="6.11214">
        <ele>224.7</ele>
        <time>2021-07-28T14:44:28Z</time>
      </trkpt>
      <trkpt lat="49.18516" lon="6.11211">
        <ele>224.8</ele>
        <time>2021-07-28T14:44:30Z</time>
      </trkpt>
      <trkpt lat="49.18516" lon="6.1121">
        <ele>224.8</ele>
        <time>2021-07-28T14:44:31Z</time>
      </trkpt>
      <trkpt lat="49.18514" lon="6.11208">
        <ele>224.8</ele>
        <time>2021-07-28T14:44:32Z</time>
      </trkpt>
      <trkpt lat="49.18513" lon="6.11204">
        <ele>224.9</ele>
        <time>2021-07-28T14:44:34Z</time>
      </trkpt>
      <trkpt lat="49.18511" lon="6.11198">
        <ele>224.9</ele>
        <time>2021-07-28T14:44:36Z</time>
      </trkpt>
      <trkpt lat="49.1851" lon="6.11194">
        <ele>225</ele>
        <time>2021-07-28T14:44:37Z</time>
      </trkpt>
      <trkpt lat="49.1851" lon="6.11192">
        <ele>225</ele>
        <time>2021-07-28T14:44:38Z</time>
      </trkpt>
      <trkpt lat="49.18509" lon="6.11189">
        <ele>225</ele>
        <time>2021-07-28T14:44:39Z</time>
      </trkpt>
      <trkpt lat="49.18507" lon="6.11184">
        <ele>225.1</ele>
        <time>2021-07-28T14:44:41Z</time>
      </trkpt>
      <trkpt lat="49.18506" lon="6.11181">
        <ele>225.2</ele>
        <time>2021-07-28T14:44:42Z</time>
      </trkpt>
      <trkpt lat="49.18506" lon="6.11177">
        <ele>225.2</ele>
        <time>2021-07-28T14:44:44Z</time>
      </trkpt>
      <trkpt lat="49.18507" lon="6.11175">
        <ele>225.3</ele>
        <time>2021-07-28T14:44:45Z</time>
      </trkpt>
      <trkpt lat="49.18508" lon="6.11171">
        <ele>225.3</ele>
        <time>2021-07-28T14:44:47Z</time>
      </trkpt>
      <trkpt lat="49.18509" lon="6.11167">
        <ele>225.4</ele>
        <time>2021-07-28T14:44:48Z</time>
      </trkpt>
      <trkpt lat="49.18509" lon="6.11163">
        <ele>225.5</ele>
        <time>2021-07-28T14:44:49Z</time>
      </trkpt>
      <trkpt lat="49.18508" lon="6.11157">
        <ele>225.6</ele>
        <time>2021-07-28T14:44:51Z</time>
      </trkpt>
      <trkpt lat="49.18509" lon="6.11152">
        <ele>225.7</ele>
        <time>2021-07-28T14:44:53Z</time>
      </trkpt>
      <trkpt lat="49.18509" lon="6.11147">
        <ele>225.8</ele>
        <time>2021-07-28T14:44:54Z</time>
      </trkpt>
      <trkpt lat="49.18509" lon="6.11146">
        <ele>225.9</ele>
        <time>2021-07-28T14:44:55Z</time>
      </trkpt>
      <trkpt lat="49.18509" lon="6.11142">
        <ele>226</ele>
        <time>2021-07-28T14:44:56Z</time>
      </trkpt>
      <trkpt lat="49.18509" lon="6.1114">
        <ele>226</ele>
        <time>2021-07-28T14:44:57Z</time>
      </trkpt>
      <trkpt lat="49.18509" lon="6.11135">
        <ele>226.2</ele>
        <time>2021-07-28T14:44:59Z</time>
      </trkpt>
      <trkpt lat="49.18508" lon="6.11133">
        <ele>226.2</ele>
        <time>2021-07-28T14:45:00Z</time>
      </trkpt>
      <trkpt lat="49.18508" lon="6.11126">
        <ele>226.4</ele>
        <time>2021-07-28T14:45:02Z</time>
      </trkpt>
      <trkpt lat="49.18507" lon="6.1112">
        <ele>226.6</ele>
        <time>2021-07-28T14:45:04Z</time>
      </trkpt>
      <trkpt lat="49.18506" lon="6.11118">
        <ele>226.6</ele>
        <time>2021-07-28T14:45:05Z</time>
      </trkpt>
      <trkpt lat="49.18506" lon="6.11116">
        <ele>226.7</ele>
        <time>2021-07-28T14:45:06Z</time>
      </trkpt>
      <trkpt lat="49.18505" lon="6.11114">
        <ele>226.7</ele>
        <time>2021-07-28T14:45:07Z</time>
      </trkpt>
      <trkpt lat="49.18503" lon="6.11109">
        <ele>226.8</ele>
        <time>2021-07-28T14:45:09Z</time>
      </trkpt>
      <trkpt lat="49.18503" lon="6.11105">
        <ele>227</ele>
        <time>2021-07-28T14:45:10Z</time>
      </trkpt>
      <trkpt lat="49.18502" lon="6.11103">
        <ele>227</ele>
        <time>2021-07-28T14:45:11Z</time>
      </trkpt>
      <trkpt lat="49.18502" lon="6.111">
        <ele>227.1</ele>
        <time>2021-07-28T14:45:12Z</time>
      </trkpt>
      <trkpt lat="49.18502" lon="6.11095">
        <ele>227.2</ele>
        <time>2021-07-28T14:45:14Z</time>
      </trkpt>
      <trkpt lat="49.18502" lon="6.1109">
        <ele>227.3</ele>
        <time>2021-07-28T14:45:15Z</time>
      </trkpt>
      <trkpt lat="49.18502" lon="6.11088">
        <ele>227.4</ele>
        <time>2021-07-28T14:45:16Z</time>
      </trkpt>
      <trkpt lat="49.18502" lon="6.11085">
        <ele>227.4</ele>
        <time>2021-07-28T14:45:17Z</time>
      </trkpt>
      <trkpt lat="49.18502" lon="6.11082">
        <ele>227.5</ele>
        <time>2021-07-28T14:45:19Z</time>
      </trkpt>
      <trkpt lat="49.18502" lon="6.11078">
        <ele>227.6</ele>
        <time>2021-07-28T14:45:20Z</time>
      </trkpt>
      <trkpt lat="49.18501" lon="6.11076">
        <ele>227.7</ele>
        <time>2021-07-28T14:45:21Z</time>
      </trkpt>
      <trkpt lat="49.185" lon="6.11071">
        <ele>227.8</ele>
        <time>2021-07-28T14:45:22Z</time>
      </trkpt>
      <trkpt lat="49.18499" lon="6.11069">
        <ele>227.8</ele>
        <time>2021-07-28T14:45:23Z</time>
      </trkpt>
      <trkpt lat="49.18497" lon="6.11063">
        <ele>228</ele>
        <time>2021-07-28T14:45:25Z</time>
      </trkpt>
      <trkpt lat="49.18495" lon="6.11057">
        <ele>228.1</ele>
        <time>2021-07-28T14:45:26Z</time>
      </trkpt>
      <trkpt lat="49.18495" lon="6.11055">
        <ele>228.1</ele>
        <time>2021-07-28T14:45:27Z</time>
      </trkpt>
      <trkpt lat="49.18493" lon="6.1105">
        <ele>228.2</ele>
        <time>2021-07-28T14:45:28Z</time>
      </trkpt>
      <trkpt lat="49.18493" lon="6.11048">
        <ele>228.2</ele>
        <time>2021-07-28T14:45:29Z</time>
      </trkpt>
      <trkpt lat="49.18493" lon="6.11043">
        <ele>228.3</ele>
        <time>2021-07-28T14:45:31Z</time>
      </trkpt>
      <trkpt lat="49.18492" lon="6.1104">
        <ele>228.3</ele>
        <time>2021-07-28T14:45:32Z</time>
      </trkpt>
      <trkpt lat="49.18491" lon="6.11034">
        <ele>228.4</ele>
        <time>2021-07-28T14:45:34Z</time>
      </trkpt>
      <trkpt lat="49.18491" lon="6.11031">
        <ele>228.5</ele>
        <time>2021-07-28T14:45:35Z</time>
      </trkpt>
      <trkpt lat="49.18489" lon="6.11023">
        <ele>228.6</ele>
        <time>2021-07-28T14:45:37Z</time>
      </trkpt>
      <trkpt lat="49.18489" lon="6.11019">
        <ele>228.7</ele>
        <time>2021-07-28T14:45:38Z</time>
      </trkpt>
      <trkpt lat="49.18488" lon="6.11013">
        <ele>228.7</ele>
        <time>2021-07-28T14:45:40Z</time>
      </trkpt>
      <trkpt lat="49.18488" lon="6.1101">
        <ele>228.8</ele>
        <time>2021-07-28T14:45:41Z</time>
      </trkpt>
      <trkpt lat="49.18489" lon="6.11002">
        <ele>228.8</ele>
        <time>2021-07-28T14:45:43Z</time>
      </trkpt>
      <trkpt lat="49.18488" lon="6.10998">
        <ele>228.9</ele>
        <time>2021-07-28T14:45:44Z</time>
      </trkpt>
      <trkpt lat="49.18487" lon="6.10994">
        <ele>228.9</ele>
        <time>2021-07-28T14:45:45Z</time>
      </trkpt>
      <trkpt lat="49.18486" lon="6.10988">
        <ele>228.9</ele>
        <time>2021-07-28T14:45:47Z</time>
      </trkpt>
      <trkpt lat="49.18485" lon="6.10985">
        <ele>228.9</ele>
        <time>2021-07-28T14:45:48Z</time>
      </trkpt>
      <trkpt lat="49.18483" lon="6.10978">
        <ele>228.9</ele>
        <time>2021-07-28T14:45:50Z</time>
      </trkpt>
      <trkpt lat="49.18482" lon="6.10973">
        <ele>228.9</ele>
        <time>2021-07-28T14:45:51Z</time>
      </trkpt>
      <trkpt lat="49.18481" lon="6.10971">
        <ele>228.9</ele>
        <time>2021-07-28T14:45:52Z</time>
      </trkpt>
      <trkpt lat="49.1848" lon="6.10966">
        <ele>228.8</ele>
        <time>2021-07-28T14:45:53Z</time>
      </trkpt>
      <trkpt lat="49.18479" lon="6.10964">
        <ele>228.8</ele>
        <time>2021-07-28T14:45:54Z</time>
      </trkpt>
      <trkpt lat="49.18478" lon="6.10957">
        <ele>228.7</ele>
        <time>2021-07-28T14:45:56Z</time>
      </trkpt>
      <trkpt lat="49.18476" lon="6.10948">
        <ele>228.6</ele>
        <time>2021-07-28T14:45:58Z</time>
      </trkpt>
      <trkpt lat="49.18475" lon="6.10944">
        <ele>228.5</ele>
        <time>2021-07-28T14:45:59Z</time>
      </trkpt>
      <trkpt lat="49.18474" lon="6.1094">
        <ele>228.5</ele>
        <time>2021-07-28T14:46:00Z</time>
      </trkpt>
      <trkpt lat="49.18473" lon="6.10935">
        <ele>228.4</ele>
        <time>2021-07-28T14:46:01Z</time>
      </trkpt>
      <trkpt lat="49.18473" lon="6.10931">
        <ele>228.3</ele>
        <time>2021-07-28T14:46:02Z</time>
      </trkpt>
      <trkpt lat="49.18472" lon="6.1092">
        <ele>228.1</ele>
        <time>2021-07-28T14:46:04Z</time>
      </trkpt>
      <trkpt lat="49.18471" lon="6.10915">
        <ele>228</ele>
        <time>2021-07-28T14:46:05Z</time>
      </trkpt>
      <trkpt lat="49.18471" lon="6.1091">
        <ele>227.9</ele>
        <time>2021-07-28T14:46:06Z</time>
      </trkpt>
      <trkpt lat="49.18472" lon="6.109">
        <ele>227.7</ele>
        <time>2021-07-28T14:46:08Z</time>
      </trkpt>
      <trkpt lat="49.18471" lon="6.10894">
        <ele>227.5</ele>
        <time>2021-07-28T14:46:09Z</time>
      </trkpt>
      <trkpt lat="49.18469" lon="6.10882">
        <ele>227.2</ele>
        <time>2021-07-28T14:46:11Z</time>
      </trkpt>
      <trkpt lat="49.18466" lon="6.10874">
        <ele>227</ele>
        <time>2021-07-28T14:46:12Z</time>
      </trkpt>
      <trkpt lat="49.18463" lon="6.10859">
        <ele>226.6</ele>
        <time>2021-07-28T14:46:14Z</time>
      </trkpt>
      <trkpt lat="49.18463" lon="6.10852">
        <ele>226.3</ele>
        <time>2021-07-28T14:46:15Z</time>
      </trkpt>
      <trkpt lat="49.18463" lon="6.10837">
        <ele>225.9</ele>
        <time>2021-07-28T14:46:17Z</time>
      </trkpt>
      <trkpt lat="49.18462" lon="6.10829">
        <ele>225.7</ele>
        <time>2021-07-28T14:46:18Z</time>
      </trkpt>
      <trkpt lat="49.18461" lon="6.10811">
        <ele>225.4</ele>
        <time>2021-07-28T14:46:20Z</time>
      </trkpt>
      <trkpt lat="49.18461" lon="6.10803">
        <ele>225.2</ele>
        <time>2021-07-28T14:46:21Z</time>
      </trkpt>
      <trkpt lat="49.18462" lon="6.10794">
        <ele>225.1</ele>
        <time>2021-07-28T14:46:22Z</time>
      </trkpt>
      <trkpt lat="49.18464" lon="6.10778">
        <ele>224.9</ele>
        <time>2021-07-28T14:46:24Z</time>
      </trkpt>
      <trkpt lat="49.18464" lon="6.10762">
        <ele>224.7</ele>
        <time>2021-07-28T14:46:26Z</time>
      </trkpt>
      <trkpt lat="49.18461" lon="6.10747">
        <ele>224.5</ele>
        <time>2021-07-28T14:46:28Z</time>
      </trkpt>
      <trkpt lat="49.1846" lon="6.10739">
        <ele>224.3</ele>
        <time>2021-07-28T14:46:29Z</time>
      </trkpt>
      <trkpt lat="49.18458" lon="6.10732">
        <ele>224.2</ele>
        <time>2021-07-28T14:46:30Z</time>
      </trkpt>
      <trkpt lat="49.18458" lon="6.10726">
        <ele>224.1</ele>
        <time>2021-07-28T14:46:31Z</time>
      </trkpt>
      <trkpt lat="49.18457" lon="6.10719">
        <ele>224</ele>
        <time>2021-07-28T14:46:32Z</time>
      </trkpt>
      <trkpt lat="49.18455" lon="6.10706">
        <ele>223.7</ele>
        <time>2021-07-28T14:46:34Z</time>
      </trkpt>
      <trkpt lat="49.18455" lon="6.10693">
        <ele>223.4</ele>
        <time>2021-07-28T14:46:36Z</time>
      </trkpt>
      <trkpt lat="49.18453" lon="6.10687">
        <ele>223.3</ele>
        <time>2021-07-28T14:46:37Z</time>
      </trkpt>
      <trkpt lat="49.18449" lon="6.1068">
        <ele>223.2</ele>
        <time>2021-07-28T14:46:39Z</time>
      </trkpt>
      <trkpt lat="49.18446" lon="6.10678">
        <ele>223.1</ele>
        <time>2021-07-28T14:46:40Z</time>
      </trkpt>
      <trkpt lat="49.18442" lon="6.10677">
        <ele>223</ele>
        <time>2021-07-28T14:46:41Z</time>
      </trkpt>
      <trkpt lat="49.18438" lon="6.10677">
        <ele>222.9</ele>
        <time>2021-07-28T14:46:42Z</time>
      </trkpt>
      <trkpt lat="49.18432" lon="6.10677">
        <ele>222.8</ele>
        <time>2021-07-28T14:46:44Z</time>
      </trkpt>
      <trkpt lat="49.18429" lon="6.10676">
        <ele>222.8</ele>
        <time>2021-07-28T14:46:45Z</time>
      </trkpt>
      <trkpt lat="49.18426" lon="6.10673">
        <ele>222.8</ele>
        <time>2021-07-28T14:46:46Z</time>
      </trkpt>
      <trkpt lat="49.18423" lon="6.10669">
        <ele>222.8</ele>
        <time>2021-07-28T14:46:48Z</time>
      </trkpt>
      <trkpt lat="49.18421" lon="6.10665">
        <ele>222.8</ele>
        <time>2021-07-28T14:46:50Z</time>
      </trkpt>
      <trkpt lat="49.18419" lon="6.10664">
        <ele>222.8</ele>
        <time>2021-07-28T14:46:51Z</time>
      </trkpt>
      <trkpt lat="49.18417" lon="6.10661">
        <ele>222.7</ele>
        <time>2021-07-28T14:46:53Z</time>
      </trkpt>
      <trkpt lat="49.18416" lon="6.10658">
        <ele>222.7</ele>
        <time>2021-07-28T14:46:54Z</time>
      </trkpt>
      <trkpt lat="49.18415" lon="6.10654">
        <ele>222.7</ele>
        <time>2021-07-28T14:46:56Z</time>
      </trkpt>
      <trkpt lat="49.18414" lon="6.1065">
        <ele>222.7</ele>
        <time>2021-07-28T14:46:57Z</time>
      </trkpt>
      <trkpt lat="49.18414" lon="6.10648">
        <ele>222.7</ele>
        <time>2021-07-28T14:46:58Z</time>
      </trkpt>
      <trkpt lat="49.18415" lon="6.10646">
        <ele>222.7</ele>
        <time>2021-07-28T14:47:00Z</time>
      </trkpt>
      <trkpt lat="49.18418" lon="6.10646">
        <ele>222.8</ele>
        <time>2021-07-28T14:47:02Z</time>
      </trkpt>
      <trkpt lat="49.18419" lon="6.10645">
        <ele>222.8</ele>
        <time>2021-07-28T14:47:03Z</time>
      </trkpt>
      <trkpt lat="49.18418" lon="6.10641">
        <ele>222.8</ele>
        <time>2021-07-28T14:47:05Z</time>
      </trkpt>
      <trkpt lat="49.18417" lon="6.10638">
        <ele>222.8</ele>
        <time>2021-07-28T14:47:07Z</time>
      </trkpt>
      <trkpt lat="49.18416" lon="6.10635">
        <ele>222.9</ele>
        <time>2021-07-28T14:47:09Z</time>
      </trkpt>
      <trkpt lat="49.18415" lon="6.10632">
        <ele>222.9</ele>
        <time>2021-07-28T14:47:11Z</time>
      </trkpt>
      <trkpt lat="49.18415" lon="6.10628">
        <ele>223</ele>
        <time>2021-07-28T14:47:13Z</time>
      </trkpt>
      <trkpt lat="49.18414" lon="6.10625">
        <ele>223</ele>
        <time>2021-07-28T14:48:48Z</time>
      </trkpt>
      <trkpt lat="49.18413" lon="6.10622">
        <ele>223.1</ele>
        <time>2021-07-28T14:48:49Z</time>
      </trkpt>
      <trkpt lat="49.18407" lon="6.10617">
        <ele>223.2</ele>
        <time>2021-07-28T14:48:51Z</time>
      </trkpt>
      <trkpt lat="49.18404" lon="6.10612">
        <ele>223.4</ele>
        <time>2021-07-28T14:48:52Z</time>
      </trkpt>
      <trkpt lat="49.18402" lon="6.10609">
        <ele>223.5</ele>
        <time>2021-07-28T14:48:53Z</time>
      </trkpt>
      <trkpt lat="49.18399" lon="6.10606">
        <ele>223.6</ele>
        <time>2021-07-28T14:48:54Z</time>
      </trkpt>
      <trkpt lat="49.18396" lon="6.10603">
        <ele>223.8</ele>
        <time>2021-07-28T14:48:55Z</time>
      </trkpt>
      <trkpt lat="49.18395" lon="6.10601">
        <ele>223.9</ele>
        <time>2021-07-28T14:48:56Z</time>
      </trkpt>
      <trkpt lat="49.18395" lon="6.106">
        <ele>223.9</ele>
        <time>2021-07-28T14:48:58Z</time>
      </trkpt>
      <trkpt lat="49.18395" lon="6.10599">
        <ele>223.9</ele>
        <time>2021-07-28T14:48:59Z</time>
      </trkpt>
      <trkpt lat="49.18396" lon="6.10598">
        <ele>224</ele>
        <time>2021-07-28T14:49:00Z</time>
      </trkpt>
      <trkpt lat="49.18397" lon="6.10595">
        <ele>224.1</ele>
        <time>2021-07-28T14:49:02Z</time>
      </trkpt>
      <trkpt lat="49.18397" lon="6.1059">
        <ele>224.3</ele>
        <time>2021-07-28T14:49:03Z</time>
      </trkpt>
      <trkpt lat="49.18398" lon="6.10588">
        <ele>224.4</ele>
        <time>2021-07-28T14:49:04Z</time>
      </trkpt>
      <trkpt lat="49.18399" lon="6.10588">
        <ele>224.4</ele>
        <time>2021-07-28T14:49:05Z</time>
      </trkpt>
      <trkpt lat="49.18399" lon="6.10587">
        <ele>224.5</ele>
        <time>2021-07-28T14:49:07Z</time>
      </trkpt>
      <trkpt lat="49.18398" lon="6.10587">
        <ele>224.5</ele>
        <time>2021-07-28T14:49:08Z</time>
      </trkpt>
      <trkpt lat="49.18397" lon="6.10586">
        <ele>224.6</ele>
        <time>2021-07-28T14:49:09Z</time>
      </trkpt>
      <trkpt lat="49.18395" lon="6.10585">
        <ele>224.7</ele>
        <time>2021-07-28T14:49:10Z</time>
      </trkpt>
      <trkpt lat="49.1839" lon="6.10582">
        <ele>225.1</ele>
        <time>2021-07-28T14:49:12Z</time>
      </trkpt>
      <trkpt lat="49.18389" lon="6.10582">
        <ele>225.1</ele>
        <time>2021-07-28T14:49:13Z</time>
      </trkpt>
      <trkpt lat="49.18382" lon="6.10578">
        <ele>225.7</ele>
        <time>2021-07-28T14:49:17Z</time>
      </trkpt>
      <trkpt lat="49.18379" lon="6.10575">
        <ele>225.9</ele>
        <time>2021-07-28T14:49:18Z</time>
      </trkpt>
      <trkpt lat="49.18376" lon="6.10574">
        <ele>226.2</ele>
        <time>2021-07-28T14:49:19Z</time>
      </trkpt>
      <trkpt lat="49.18372" lon="6.10574">
        <ele>226.5</ele>
        <time>2021-07-28T14:49:21Z</time>
      </trkpt>
      <trkpt lat="49.18369" lon="6.10574">
        <ele>226.8</ele>
        <time>2021-07-28T14:49:22Z</time>
      </trkpt>
      <trkpt lat="49.18365" lon="6.10572">
        <ele>227.1</ele>
        <time>2021-07-28T14:49:23Z</time>
      </trkpt>
      <trkpt lat="49.18362" lon="6.10571">
        <ele>227.4</ele>
        <time>2021-07-28T14:49:25Z</time>
      </trkpt>
      <trkpt lat="49.1836" lon="6.1057">
        <ele>227.5</ele>
        <time>2021-07-28T14:49:27Z</time>
      </trkpt>
      <trkpt lat="49.1836" lon="6.10569">
        <ele>227.5</ele>
        <time>2021-07-28T14:49:29Z</time>
      </trkpt>
      <trkpt lat="49.1836" lon="6.10568">
        <ele>227.6</ele>
        <time>2021-07-28T14:49:31Z</time>
      </trkpt>
      <trkpt lat="49.18359" lon="6.10567">
        <ele>227.6</ele>
        <time>2021-07-28T14:49:33Z</time>
      </trkpt>
      <trkpt lat="49.18359" lon="6.10566">
        <ele>227.7</ele>
        <time>2021-07-28T14:49:34Z</time>
      </trkpt>
      <trkpt lat="49.18359" lon="6.10565">
        <ele>227.8</ele>
        <time>2021-07-28T14:49:36Z</time>
      </trkpt>
      <trkpt lat="49.18358" lon="6.10564">
        <ele>227.8</ele>
        <time>2021-07-28T14:49:57Z</time>
      </trkpt>
      <trkpt lat="49.18358" lon="6.10564">
        <ele>227.9</ele>
        <time>2021-07-28T14:49:58Z</time>
      </trkpt>
      <trkpt lat="49.18358" lon="6.10563">
        <ele>227.9</ele>
        <time>2021-07-28T14:49:59Z</time>
      </trkpt>
      <trkpt lat="49.18356" lon="6.10567">
        <ele>228.2</ele>
        <time>2021-07-28T14:50:01Z</time>
      </trkpt>
      <trkpt lat="49.18356" lon="6.10572">
        <ele>228.4</ele>
        <time>2021-07-28T14:50:02Z</time>
      </trkpt>
      <trkpt lat="49.18355" lon="6.10571">
        <ele>228.5</ele>
        <time>2021-07-28T14:50:04Z</time>
      </trkpt>
      <trkpt lat="49.18355" lon="6.10569">
        <ele>228.6</ele>
        <time>2021-07-28T14:50:05Z</time>
      </trkpt>
      <trkpt lat="49.18354" lon="6.10569">
        <ele>228.7</ele>
        <time>2021-07-28T14:50:06Z</time>
      </trkpt>
      <trkpt lat="49.18354" lon="6.10569">
        <ele>228.7</ele>
        <time>2021-07-28T14:50:07Z</time>
      </trkpt>
      <trkpt lat="49.18353" lon="6.10569">
        <ele>228.7</ele>
        <time>2021-07-28T14:50:09Z</time>
      </trkpt>
      <trkpt lat="49.18352" lon="6.10567">
        <ele>228.9</ele>
        <time>2021-07-28T14:50:10Z</time>
      </trkpt>
      <trkpt lat="49.1835" lon="6.10566">
        <ele>229</ele>
        <time>2021-07-28T14:50:12Z</time>
      </trkpt>
      <trkpt lat="49.18262" lon="6.10448">
        <ele>243.1</ele>
        <time>2021-07-28T14:53:33Z</time>
      </trkpt>
      <trkpt lat="49.18262" lon="6.1045">
        <ele>243.2</ele>
        <time>2021-07-28T14:53:34Z</time>
      </trkpt>
      <trkpt lat="49.18261" lon="6.10452">
        <ele>243.3</ele>
        <time>2021-07-28T14:53:35Z</time>
      </trkpt>
      <trkpt lat="49.18261" lon="6.10454">
        <ele>243.4</ele>
        <time>2021-07-28T14:53:37Z</time>
      </trkpt>
      <trkpt lat="49.18259" lon="6.10452">
        <ele>243.5</ele>
        <time>2021-07-28T14:53:39Z</time>
      </trkpt>
      <trkpt lat="49.18255" lon="6.1045">
        <ele>243.7</ele>
        <time>2021-07-28T14:53:40Z</time>
      </trkpt>
      <trkpt lat="49.1825" lon="6.10451">
        <ele>244.1</ele>
        <time>2021-07-28T14:53:41Z</time>
      </trkpt>
      <trkpt lat="49.18247" lon="6.10451">
        <ele>244.3</ele>
        <time>2021-07-28T14:53:42Z</time>
      </trkpt>
      <trkpt lat="49.18244" lon="6.10452">
        <ele>244.5</ele>
        <time>2021-07-28T14:53:44Z</time>
      </trkpt>
      <trkpt lat="49.18242" lon="6.10453">
        <ele>244.6</ele>
        <time>2021-07-28T14:53:46Z</time>
      </trkpt>
      <trkpt lat="49.1824" lon="6.10453">
        <ele>245.8</ele>
        <time>2021-07-28T14:53:47Z</time>
      </trkpt>
      <trkpt lat="49.18238" lon="6.10454">
        <ele>246</ele>
        <time>2021-07-28T14:53:48Z</time>
      </trkpt>
      <trkpt lat="49.18236" lon="6.10454">
        <ele>246.2</ele>
        <time>2021-07-28T14:53:49Z</time>
      </trkpt>
      <trkpt lat="49.18234" lon="6.10455">
        <ele>246.4</ele>
        <time>2021-07-28T14:53:51Z</time>
      </trkpt>
      <trkpt lat="49.18232" lon="6.10455">
        <ele>246.6</ele>
        <time>2021-07-28T14:53:52Z</time>
      </trkpt>
      <trkpt lat="49.1823" lon="6.10456">
        <ele>246.8</ele>
        <time>2021-07-28T14:53:53Z</time>
      </trkpt>
      <trkpt lat="49.18228" lon="6.10456">
        <ele>247</ele>
        <time>2021-07-28T14:53:55Z</time>
      </trkpt>
      <trkpt lat="49.18226" lon="6.10456">
        <ele>247.2</ele>
        <time>2021-07-28T14:53:56Z</time>
      </trkpt>
      <trkpt lat="49.18224" lon="6.10457">
        <ele>247.4</ele>
        <time>2021-07-28T14:54:12Z</time>
      </trkpt>
      <trkpt lat="49.18222" lon="6.10457">
        <ele>247.6</ele>
        <time>2021-07-28T14:54:13Z</time>
      </trkpt>
      <trkpt lat="49.1822" lon="6.10458">
        <ele>247.8</ele>
        <time>2021-07-28T14:54:14Z</time>
      </trkpt>
      <trkpt lat="49.18217" lon="6.10457">
        <ele>248.1</ele>
        <time>2021-07-28T14:54:15Z</time>
      </trkpt>
      <trkpt lat="49.18215" lon="6.10456">
        <ele>248.3</ele>
        <time>2021-07-28T14:54:16Z</time>
      </trkpt>
      <trkpt lat="49.18212" lon="6.10456">
        <ele>248.6</ele>
        <time>2021-07-28T14:54:18Z</time>
      </trkpt>
      <trkpt lat="49.18211" lon="6.10456">
        <ele>248.7</ele>
        <time>2021-07-28T14:54:19Z</time>
      </trkpt>
      <trkpt lat="49.18209" lon="6.10458">
        <ele>248.8</ele>
        <time>2021-07-28T14:54:20Z</time>
      </trkpt>
      <trkpt lat="49.18209" lon="6.10458">
        <ele>248.9</ele>
        <time>2021-07-28T14:54:22Z</time>
      </trkpt>
      <trkpt lat="49.18209" lon="6.1046">
        <ele>249</ele>
        <time>2021-07-28T14:54:24Z</time>
      </trkpt>
      <trkpt lat="49.18209" lon="6.10461">
        <ele>249</ele>
        <time>2021-07-28T14:54:25Z</time>
      </trkpt>
      <trkpt lat="49.18208" lon="6.10461">
        <ele>249</ele>
        <time>2021-07-28T14:54:26Z</time>
      </trkpt>
      <trkpt lat="49.18208" lon="6.10462">
        <ele>249.1</ele>
        <time>2021-07-28T14:54:27Z</time>
      </trkpt>
      <trkpt lat="49.18208" lon="6.10462">
        <ele>249.1</ele>
        <time>2021-07-28T14:54:29Z</time>
      </trkpt>
      <trkpt lat="49.18208" lon="6.10462">
        <ele>249.1</ele>
        <time>2021-07-28T14:54:30Z</time>
      </trkpt>
      <trkpt lat="49.18207" lon="6.10462">
        <ele>249.1</ele>
        <time>2021-07-28T14:54:32Z</time>
      </trkpt>
      <trkpt lat="49.18207" lon="6.10463">
        <ele>249.2</ele>
        <time>2021-07-28T14:54:33Z</time>
      </trkpt>
      <trkpt lat="49.18206" lon="6.10463">
        <ele>249.2</ele>
        <time>2021-07-28T14:54:35Z</time>
      </trkpt>
      <trkpt lat="49.18206" lon="6.10463">
        <ele>249.3</ele>
        <time>2021-07-28T14:54:36Z</time>
      </trkpt>
      <trkpt lat="49.18138" lon="6.10445">
        <ele>253.2</ele>
        <time>2021-07-28T14:55:31Z</time>
      </trkpt>
      <trkpt lat="49.18136" lon="6.10444">
        <ele>253.2</ele>
        <time>2021-07-28T14:55:32Z</time>
      </trkpt>
      <trkpt lat="49.18132" lon="6.1044">
        <ele>253.4</ele>
        <time>2021-07-28T14:55:34Z</time>
      </trkpt>
      <trkpt lat="49.18132" lon="6.10441">
        <ele>253.4</ele>
        <time>2021-07-28T14:55:35Z</time>
      </trkpt>
      <trkpt lat="49.18132" lon="6.10442">
        <ele>253.4</ele>
        <time>2021-07-28T14:55:37Z</time>
      </trkpt>
      <trkpt lat="49.18133" lon="6.10443">
        <ele>253.5</ele>
        <time>2021-07-28T14:55:38Z</time>
      </trkpt>
      <trkpt lat="49.18134" lon="6.10446">
        <ele>253.5</ele>
        <time>2021-07-28T14:55:40Z</time>
      </trkpt>
      <trkpt lat="49.18136" lon="6.10449">
        <ele>253.6</ele>
        <time>2021-07-28T14:55:41Z</time>
      </trkpt>
      <trkpt lat="49.18137" lon="6.10451">
        <ele>253.6</ele>
        <time>2021-07-28T14:55:42Z</time>
      </trkpt>
      <trkpt lat="49.18111" lon="6.10513">
        <ele>253.9</ele>
        <time>2021-07-28T14:55:59Z</time>
      </trkpt>
      <trkpt lat="49.18106" lon="6.10514">
        <ele>253.9</ele>
        <time>2021-07-28T14:56:00Z</time>
      </trkpt>
      <trkpt lat="49.18102" lon="6.10516">
        <ele>253.9</ele>
        <time>2021-07-28T14:56:01Z</time>
      </trkpt>
      <trkpt lat="49.18099" lon="6.10519">
        <ele>253.7</ele>
        <time>2021-07-28T14:56:02Z</time>
      </trkpt>
      <trkpt lat="49.18093" lon="6.10523">
        <ele>253.3</ele>
        <time>2021-07-28T14:56:04Z</time>
      </trkpt>
      <trkpt lat="49.18087" lon="6.10527">
        <ele>252.9</ele>
        <time>2021-07-28T14:56:05Z</time>
      </trkpt>
      <trkpt lat="49.1808" lon="6.10529">
        <ele>252.4</ele>
        <time>2021-07-28T14:56:06Z</time>
      </trkpt>
      <trkpt lat="49.18074" lon="6.10531">
        <ele>252.1</ele>
        <time>2021-07-28T14:56:07Z</time>
      </trkpt>
      <trkpt lat="49.18062" lon="6.10535">
        <ele>251.3</ele>
        <time>2021-07-28T14:56:09Z</time>
      </trkpt>
      <trkpt lat="49.18055" lon="6.10536">
        <ele>250.8</ele>
        <time>2021-07-28T14:56:10Z</time>
      </trkpt>
      <trkpt lat="49.18045" lon="6.1054">
        <ele>250</ele>
        <time>2021-07-28T14:56:12Z</time>
      </trkpt>
      <trkpt lat="49.1804" lon="6.10543">
        <ele>249.7</ele>
        <time>2021-07-28T14:56:13Z</time>
      </trkpt>
      <trkpt lat="49.1803" lon="6.10548">
        <ele>248.8</ele>
        <time>2021-07-28T14:56:15Z</time>
      </trkpt>
      <trkpt lat="49.1802" lon="6.10553">
        <ele>248</ele>
        <time>2021-07-28T14:56:17Z</time>
      </trkpt>
      <trkpt lat="49.18016" lon="6.10558">
        <ele>247.6</ele>
        <time>2021-07-28T14:56:18Z</time>
      </trkpt>
      <trkpt lat="49.18006" lon="6.10571">
        <ele>246.8</ele>
        <time>2021-07-28T14:56:20Z</time>
      </trkpt>
      <trkpt lat="49.18001" lon="6.1058">
        <ele>246.3</ele>
        <time>2021-07-28T14:56:21Z</time>
      </trkpt>
      <trkpt lat="49.17992" lon="6.10598">
        <ele>245.7</ele>
        <time>2021-07-28T14:56:23Z</time>
      </trkpt>
      <trkpt lat="49.17986" lon="6.10618">
        <ele>245.3</ele>
        <time>2021-07-28T14:56:25Z</time>
      </trkpt>
      <trkpt lat="49.17978" lon="6.10633">
        <ele>245</ele>
        <time>2021-07-28T14:56:27Z</time>
      </trkpt>
      <trkpt lat="49.17972" lon="6.10637">
        <ele>245.4</ele>
        <time>2021-07-28T14:56:28Z</time>
      </trkpt>
      <trkpt lat="49.17967" lon="6.10639">
        <ele>245.7</ele>
        <time>2021-07-28T14:56:29Z</time>
      </trkpt>
      <trkpt lat="49.17962" lon="6.10638">
        <ele>246</ele>
        <time>2021-07-28T14:56:30Z</time>
      </trkpt>
      <trkpt lat="49.17959" lon="6.10637">
        <ele>246.3</ele>
        <time>2021-07-28T14:56:31Z</time>
      </trkpt>
      <trkpt lat="49.17952" lon="6.10633">
        <ele>246.8</ele>
        <time>2021-07-28T14:56:33Z</time>
      </trkpt>
      <trkpt lat="49.17942" lon="6.10625">
        <ele>247.7</ele>
        <time>2021-07-28T14:56:35Z</time>
      </trkpt>
      <trkpt lat="49.17937" lon="6.10621">
        <ele>248.1</ele>
        <time>2021-07-28T14:56:37Z</time>
      </trkpt>
      <trkpt lat="49.17934" lon="6.1062">
        <ele>248.3</ele>
        <time>2021-07-28T14:56:38Z</time>
      </trkpt>
      <trkpt lat="49.1793" lon="6.10617">
        <ele>248.7</ele>
        <time>2021-07-28T14:56:40Z</time>
      </trkpt>
      <trkpt lat="49.17928" lon="6.10617">
        <ele>248.9</ele>
        <time>2021-07-28T14:56:41Z</time>
      </trkpt>
      <trkpt lat="49.17926" lon="6.10617">
        <ele>249</ele>
        <time>2021-07-28T14:56:42Z</time>
      </trkpt>
      <trkpt lat="49.17922" lon="6.10617">
        <ele>249.3</ele>
        <time>2021-07-28T14:56:43Z</time>
      </trkpt>
      <trkpt lat="49.17921" lon="6.10617">
        <ele>249.4</ele>
        <time>2021-07-28T14:56:44Z</time>
      </trkpt>
      <trkpt lat="49.17918" lon="6.10618">
        <ele>249.7</ele>
        <time>2021-07-28T14:56:45Z</time>
      </trkpt>
      <trkpt lat="49.17914" lon="6.10618">
        <ele>249.9</ele>
        <time>2021-07-28T14:56:47Z</time>
      </trkpt>
      <trkpt lat="49.17911" lon="6.10617">
        <ele>250.2</ele>
        <time>2021-07-28T14:56:48Z</time>
      </trkpt>
      <trkpt lat="49.17909" lon="6.10616">
        <ele>250.3</ele>
        <time>2021-07-28T14:56:49Z</time>
      </trkpt>
      <trkpt lat="49.17907" lon="6.10614">
        <ele>250.5</ele>
        <time>2021-07-28T14:56:50Z</time>
      </trkpt>
      <trkpt lat="49.17904" lon="6.10613">
        <ele>250.8</ele>
        <time>2021-07-28T14:56:51Z</time>
      </trkpt>
      <trkpt lat="49.17901" lon="6.10613">
        <ele>250.9</ele>
        <time>2021-07-28T14:56:53Z</time>
      </trkpt>
      <trkpt lat="49.17898" lon="6.10613">
        <ele>251.1</ele>
        <time>2021-07-28T14:56:54Z</time>
      </trkpt>
      <trkpt lat="49.17895" lon="6.10612">
        <ele>251.3</ele>
        <time>2021-07-28T14:56:55Z</time>
      </trkpt>
      <trkpt lat="49.17892" lon="6.10611">
        <ele>251.5</ele>
        <time>2021-07-28T14:56:56Z</time>
      </trkpt>
      <trkpt lat="49.17891" lon="6.10611">
        <ele>251.5</ele>
        <time>2021-07-28T14:56:57Z</time>
      </trkpt>
      <trkpt lat="49.17888" lon="6.10611">
        <ele>251.7</ele>
        <time>2021-07-28T14:56:58Z</time>
      </trkpt>
      <trkpt lat="49.17884" lon="6.10612">
        <ele>251.8</ele>
        <time>2021-07-28T14:57:00Z</time>
      </trkpt>
      <trkpt lat="49.17882" lon="6.10613">
        <ele>251.9</ele>
        <time>2021-07-28T14:57:01Z</time>
      </trkpt>
      <trkpt lat="49.1788" lon="6.10613">
        <ele>251.9</ele>
        <time>2021-07-28T14:57:02Z</time>
      </trkpt>
      <trkpt lat="49.17878" lon="6.10613">
        <ele>252</ele>
        <time>2021-07-28T14:57:03Z</time>
      </trkpt>
      <trkpt lat="49.17876" lon="6.10614">
        <ele>252</ele>
        <time>2021-07-28T14:57:05Z</time>
      </trkpt>
      <trkpt lat="49.17875" lon="6.10615">
        <ele>252</ele>
        <time>2021-07-28T14:57:06Z</time>
      </trkpt>
      <trkpt lat="49.17872" lon="6.10617">
        <ele>252.1</ele>
        <time>2021-07-28T14:57:08Z</time>
      </trkpt>
      <trkpt lat="49.17872" lon="6.1062">
        <ele>252.1</ele>
        <time>2021-07-28T14:57:10Z</time>
      </trkpt>
      <trkpt lat="49.17871" lon="6.10622">
        <ele>252.1</ele>
        <time>2021-07-28T14:57:11Z</time>
      </trkpt>
      <trkpt lat="49.1787" lon="6.10623">
        <ele>252.1</ele>
        <time>2021-07-28T14:57:12Z</time>
      </trkpt>
      <trkpt lat="49.17868" lon="6.10626">
        <ele>252.1</ele>
        <time>2021-07-28T14:57:14Z</time>
      </trkpt>
      <trkpt lat="49.17867" lon="6.10626">
        <ele>252</ele>
        <time>2021-07-28T14:57:15Z</time>
      </trkpt>
      <trkpt lat="49.17864" lon="6.10627">
        <ele>252</ele>
        <time>2021-07-28T14:57:17Z</time>
      </trkpt>
      <trkpt lat="49.17861" lon="6.1063">
        <ele>251.9</ele>
        <time>2021-07-28T14:57:18Z</time>
      </trkpt>
      <trkpt lat="49.1786" lon="6.10631">
        <ele>251.9</ele>
        <time>2021-07-28T14:57:19Z</time>
      </trkpt>
      <trkpt lat="49.17859" lon="6.10635">
        <ele>251.8</ele>
        <time>2021-07-28T14:57:20Z</time>
      </trkpt>
      <trkpt lat="49.17857" lon="6.10639">
        <ele>251.7</ele>
        <time>2021-07-28T14:57:22Z</time>
      </trkpt>
      <trkpt lat="49.17853" lon="6.10644">
        <ele>251.5</ele>
        <time>2021-07-28T14:57:23Z</time>
      </trkpt>
      <trkpt lat="49.1785" lon="6.10648">
        <ele>251.4</ele>
        <time>2021-07-28T14:57:24Z</time>
      </trkpt>
      <trkpt lat="49.17846" lon="6.10652">
        <ele>251.2</ele>
        <time>2021-07-28T14:57:25Z</time>
      </trkpt>
      <trkpt lat="49.17841" lon="6.10655">
        <ele>250.9</ele>
        <time>2021-07-28T14:57:26Z</time>
      </trkpt>
      <trkpt lat="49.17828" lon="6.10659">
        <ele>250.4</ele>
        <time>2021-07-28T14:57:28Z</time>
      </trkpt>
      <trkpt lat="49.17816" lon="6.10663">
        <ele>250</ele>
        <time>2021-07-28T14:57:30Z</time>
      </trkpt>
      <trkpt lat="49.17804" lon="6.10666">
        <ele>249.6</ele>
        <time>2021-07-28T14:57:32Z</time>
      </trkpt>
      <trkpt lat="49.17794" lon="6.1067">
        <ele>249.4</ele>
        <time>2021-07-28T14:57:34Z</time>
      </trkpt>
      <trkpt lat="49.17784" lon="6.10674">
        <ele>249.3</ele>
        <time>2021-07-28T14:57:36Z</time>
      </trkpt>
      <trkpt lat="49.1778" lon="6.10676">
        <ele>249.3</ele>
        <time>2021-07-28T14:57:37Z</time>
      </trkpt>
      <trkpt lat="49.17771" lon="6.10681">
        <ele>249.4</ele>
        <time>2021-07-28T14:57:39Z</time>
      </trkpt>
      <trkpt lat="49.17767" lon="6.10684">
        <ele>249.4</ele>
        <time>2021-07-28T14:57:40Z</time>
      </trkpt>
      <trkpt lat="49.17759" lon="6.10689">
        <ele>249.4</ele>
        <time>2021-07-28T14:57:42Z</time>
      </trkpt>
      <trkpt lat="49.17755" lon="6.10692">
        <ele>249.5</ele>
        <time>2021-07-28T14:57:44Z</time>
      </trkpt>
      <trkpt lat="49.17751" lon="6.10695">
        <ele>249.5</ele>
        <time>2021-07-28T14:57:45Z</time>
      </trkpt>
      <trkpt lat="49.17748" lon="6.10698">
        <ele>249.5</ele>
        <time>2021-07-28T14:57:46Z</time>
      </trkpt>
      <trkpt lat="49.17745" lon="6.10702">
        <ele>249.6</ele>
        <time>2021-07-28T14:57:47Z</time>
      </trkpt>
      <trkpt lat="49.17741" lon="6.10707">
        <ele>249.7</ele>
        <time>2021-07-28T14:57:49Z</time>
      </trkpt>
      <trkpt lat="49.17738" lon="6.10709">
        <ele>249.7</ele>
        <time>2021-07-28T14:57:50Z</time>
      </trkpt>
      <trkpt lat="49.17735" lon="6.1071">
        <ele>249.8</ele>
        <time>2021-07-28T14:57:51Z</time>
      </trkpt>
      <trkpt lat="49.17731" lon="6.1071">
        <ele>249.8</ele>
        <time>2021-07-28T14:57:53Z</time>
      </trkpt>
      <trkpt lat="49.17728" lon="6.10711">
        <ele>249.9</ele>
        <time>2021-07-28T14:57:54Z</time>
      </trkpt>
      <trkpt lat="49.17724" lon="6.10712">
        <ele>250</ele>
        <time>2021-07-28T14:57:55Z</time>
      </trkpt>
      <trkpt lat="49.17721" lon="6.10712">
        <ele>250.1</ele>
        <time>2021-07-28T14:57:56Z</time>
      </trkpt>
      <trkpt lat="49.17715" lon="6.10711">
        <ele>250.3</ele>
        <time>2021-07-28T14:57:58Z</time>
      </trkpt>
      <trkpt lat="49.17712" lon="6.1071">
        <ele>250.4</ele>
        <time>2021-07-28T14:57:59Z</time>
      </trkpt>
      <trkpt lat="49.17709" lon="6.1071">
        <ele>250.5</ele>
        <time>2021-07-28T14:58:00Z</time>
      </trkpt>
      <trkpt lat="49.17708" lon="6.1071">
        <ele>250.5</ele>
        <time>2021-07-28T14:58:01Z</time>
      </trkpt>
      <trkpt lat="49.17706" lon="6.10709">
        <ele>250.6</ele>
        <time>2021-07-28T14:58:02Z</time>
      </trkpt>
      <trkpt lat="49.17705" lon="6.10711">
        <ele>250.7</ele>
        <time>2021-07-28T14:58:04Z</time>
      </trkpt>
      <trkpt lat="49.17704" lon="6.10712">
        <ele>250.7</ele>
        <time>2021-07-28T14:58:06Z</time>
      </trkpt>
      <trkpt lat="49.17703" lon="6.10714">
        <ele>250.8</ele>
        <time>2021-07-28T14:58:08Z</time>
      </trkpt>
      <trkpt lat="49.17702" lon="6.10715">
        <ele>250.8</ele>
        <time>2021-07-28T14:58:09Z</time>
      </trkpt>
      <trkpt lat="49.17701" lon="6.10716">
        <ele>250.8</ele>
        <time>2021-07-28T14:58:11Z</time>
      </trkpt>
      <trkpt lat="49.177" lon="6.10718">
        <ele>250.8</ele>
        <time>2021-07-28T14:59:17Z</time>
      </trkpt>
      <trkpt lat="49.17699" lon="6.10719">
        <ele>250.8</ele>
        <time>2021-07-28T14:59:18Z</time>
      </trkpt>
      <trkpt lat="49.17693" lon="6.10731">
        <ele>250.7</ele>
        <time>2021-07-28T14:59:20Z</time>
      </trkpt>
      <trkpt lat="49.17691" lon="6.10736">
        <ele>250.7</ele>
        <time>2021-07-28T14:59:21Z</time>
      </trkpt>
      <trkpt lat="49.17687" lon="6.10743">
        <ele>250.6</ele>
        <time>2021-07-28T14:59:23Z</time>
      </trkpt>
      <trkpt lat="49.17684" lon="6.10746">
        <ele>250.6</ele>
        <time>2021-07-28T14:59:24Z</time>
      </trkpt>
      <trkpt lat="49.17681" lon="6.10749">
        <ele>250.5</ele>
        <time>2021-07-28T14:59:25Z</time>
      </trkpt>
      <trkpt lat="49.1768" lon="6.1075">
        <ele>250.5</ele>
        <time>2021-07-28T14:59:26Z</time>
      </trkpt>
      <trkpt lat="49.17676" lon="6.10754">
        <ele>250.5</ele>
        <time>2021-07-28T14:59:28Z</time>
      </trkpt>
      <trkpt lat="49.17673" lon="6.10757">
        <ele>250.5</ele>
        <time>2021-07-28T14:59:29Z</time>
      </trkpt>
      <trkpt lat="49.1767" lon="6.1076">
        <ele>250.5</ele>
        <time>2021-07-28T14:59:30Z</time>
      </trkpt>
      <trkpt lat="49.17668" lon="6.10762">
        <ele>250.6</ele>
        <time>2021-07-28T14:59:31Z</time>
      </trkpt>
      <trkpt lat="49.17664" lon="6.10766">
        <ele>250.6</ele>
        <time>2021-07-28T14:59:33Z</time>
      </trkpt>
      <trkpt lat="49.17661" lon="6.10769">
        <ele>250.7</ele>
        <time>2021-07-28T14:59:34Z</time>
      </trkpt>
      <trkpt lat="49.17661" lon="6.1077">
        <ele>250.7</ele>
        <time>2021-07-28T14:59:35Z</time>
      </trkpt>
      <trkpt lat="49.17657" lon="6.10771">
        <ele>250.8</ele>
        <time>2021-07-28T14:59:37Z</time>
      </trkpt>
      <trkpt lat="49.17656" lon="6.10771">
        <ele>250.8</ele>
        <time>2021-07-28T14:59:38Z</time>
      </trkpt>
      <trkpt lat="49.17654" lon="6.10773">
        <ele>250.9</ele>
        <time>2021-07-28T14:59:40Z</time>
      </trkpt>
      <trkpt lat="49.17653" lon="6.10774">
        <ele>250.9</ele>
        <time>2021-07-28T14:59:41Z</time>
      </trkpt>
      <trkpt lat="49.17651" lon="6.10777">
        <ele>250.9</ele>
        <time>2021-07-28T14:59:42Z</time>
      </trkpt>
      <trkpt lat="49.1765" lon="6.10778">
        <ele>251</ele>
        <time>2021-07-28T14:59:43Z</time>
      </trkpt>
      <trkpt lat="49.17647" lon="6.10781">
        <ele>251</ele>
        <time>2021-07-28T14:59:45Z</time>
      </trkpt>
      <trkpt lat="49.17646" lon="6.10783">
        <ele>251.1</ele>
        <time>2021-07-28T14:59:46Z</time>
      </trkpt>
      <trkpt lat="49.17646" lon="6.10786">
        <ele>251.1</ele>
        <time>2021-07-28T14:59:47Z</time>
      </trkpt>
      <trkpt lat="49.17646" lon="6.10793">
        <ele>251.1</ele>
        <time>2021-07-28T14:59:49Z</time>
      </trkpt>
      <trkpt lat="49.17645" lon="6.10795">
        <ele>251.2</ele>
        <time>2021-07-28T14:59:50Z</time>
      </trkpt>
      <trkpt lat="49.17644" lon="6.10797">
        <ele>251.2</ele>
        <time>2021-07-28T14:59:51Z</time>
      </trkpt>
      <trkpt lat="49.17643" lon="6.10799">
        <ele>251.2</ele>
        <time>2021-07-28T14:59:53Z</time>
      </trkpt>
      <trkpt lat="49.17642" lon="6.10801">
        <ele>251.2</ele>
        <time>2021-07-28T14:59:54Z</time>
      </trkpt>
      <trkpt lat="49.1764" lon="6.10803">
        <ele>251.3</ele>
        <time>2021-07-28T14:59:55Z</time>
      </trkpt>
      <trkpt lat="49.17639" lon="6.10805">
        <ele>251.3</ele>
        <time>2021-07-28T14:59:56Z</time>
      </trkpt>
      <trkpt lat="49.17638" lon="6.10807">
        <ele>251.3</ele>
        <time>2021-07-28T14:59:58Z</time>
      </trkpt>
      <trkpt lat="49.17637" lon="6.10809">
        <ele>251.3</ele>
        <time>2021-07-28T14:59:59Z</time>
      </trkpt>
      <trkpt lat="49.17636" lon="6.10811">
        <ele>251.3</ele>
        <time>2021-07-28T15:00:07Z</time>
      </trkpt>
      <trkpt lat="49.17635" lon="6.10813">
        <ele>251.4</ele>
        <time>2021-07-28T15:00:08Z</time>
      </trkpt>
      <trkpt lat="49.17629" lon="6.10818">
        <ele>251.5</ele>
        <time>2021-07-28T15:00:09Z</time>
      </trkpt>
      <trkpt lat="49.1762" lon="6.10825">
        <ele>251.7</ele>
        <time>2021-07-28T15:00:11Z</time>
      </trkpt>
      <trkpt lat="49.17614" lon="6.10828">
        <ele>251.8</ele>
        <time>2021-07-28T15:00:13Z</time>
      </trkpt>
      <trkpt lat="49.17611" lon="6.10831">
        <ele>251.9</ele>
        <time>2021-07-28T15:00:14Z</time>
      </trkpt>
      <trkpt lat="49.17609" lon="6.10834">
        <ele>251.9</ele>
        <time>2021-07-28T15:00:16Z</time>
      </trkpt>
      <trkpt lat="49.17609" lon="6.10835">
        <ele>251.9</ele>
        <time>2021-07-28T15:00:17Z</time>
      </trkpt>
      <trkpt lat="49.17607" lon="6.10837">
        <ele>251.9</ele>
        <time>2021-07-28T15:00:18Z</time>
      </trkpt>
      <trkpt lat="49.17606" lon="6.10841">
        <ele>252</ele>
        <time>2021-07-28T15:00:20Z</time>
      </trkpt>
      <trkpt lat="49.17605" lon="6.10843">
        <ele>252</ele>
        <time>2021-07-28T15:00:22Z</time>
      </trkpt>
      <trkpt lat="49.17604" lon="6.10843">
        <ele>252</ele>
        <time>2021-07-28T15:00:23Z</time>
      </trkpt>
      <trkpt lat="49.17601" lon="6.10843">
        <ele>252</ele>
        <time>2021-07-28T15:00:24Z</time>
      </trkpt>
      <trkpt lat="49.17598" lon="6.10844">
        <ele>252</ele>
        <time>2021-07-28T15:00:26Z</time>
      </trkpt>
      <trkpt lat="49.17596" lon="6.10846">
        <ele>252</ele>
        <time>2021-07-28T15:00:28Z</time>
      </trkpt>
      <trkpt lat="49.17594" lon="6.10848">
        <ele>252</ele>
        <time>2021-07-28T15:00:29Z</time>
      </trkpt>
      <trkpt lat="49.1759" lon="6.1085">
        <ele>252</ele>
        <time>2021-07-28T15:00:31Z</time>
      </trkpt>
      <trkpt lat="49.17586" lon="6.1085">
        <ele>251.9</ele>
        <time>2021-07-28T15:00:32Z</time>
      </trkpt>
      <trkpt lat="49.17581" lon="6.1085">
        <ele>251.8</ele>
        <time>2021-07-28T15:00:34Z</time>
      </trkpt>
      <trkpt lat="49.17577" lon="6.10855">
        <ele>251.6</ele>
        <time>2021-07-28T15:00:36Z</time>
      </trkpt>
      <trkpt lat="49.17575" lon="6.1086">
        <ele>251.4</ele>
        <time>2021-07-28T15:00:38Z</time>
      </trkpt>
      <trkpt lat="49.17573" lon="6.10865">
        <ele>251.1</ele>
        <time>2021-07-28T15:00:39Z</time>
      </trkpt>
      <trkpt lat="49.17571" lon="6.1087">
        <ele>250.9</ele>
        <time>2021-07-28T15:00:40Z</time>
      </trkpt>
      <trkpt lat="49.17569" lon="6.10875">
        <ele>250.6</ele>
        <time>2021-07-28T15:00:41Z</time>
      </trkpt>
      <trkpt lat="49.17565" lon="6.10883">
        <ele>250.2</ele>
        <time>2021-07-28T15:00:43Z</time>
      </trkpt>
      <trkpt lat="49.1756" lon="6.1089">
        <ele>249.7</ele>
        <time>2021-07-28T15:00:44Z</time>
      </trkpt>
      <trkpt lat="49.17556" lon="6.10894">
        <ele>249.3</ele>
        <time>2021-07-28T15:00:45Z</time>
      </trkpt>
      <trkpt lat="49.17548" lon="6.10899">
        <ele>249.3</ele>
        <time>2021-07-28T15:00:47Z</time>
      </trkpt>
      <trkpt lat="49.17544" lon="6.109">
        <ele>249.3</ele>
        <time>2021-07-28T15:00:48Z</time>
      </trkpt>
      <trkpt lat="49.17537" lon="6.10902">
        <ele>249.3</ele>
        <time>2021-07-28T15:00:49Z</time>
      </trkpt>
      <trkpt lat="49.17526" lon="6.1091">
        <ele>248.7</ele>
        <time>2021-07-28T15:00:51Z</time>
      </trkpt>
      <trkpt lat="49.17517" lon="6.10919">
        <ele>247.7</ele>
        <time>2021-07-28T15:00:53Z</time>
      </trkpt>
      <trkpt lat="49.17513" lon="6.10923">
        <ele>247.1</ele>
        <time>2021-07-28T15:00:54Z</time>
      </trkpt>
      <trkpt lat="49.17509" lon="6.10927">
        <ele>246.6</ele>
        <time>2021-07-28T15:00:55Z</time>
      </trkpt>
      <trkpt lat="49.17505" lon="6.10932">
        <ele>245.9</ele>
        <time>2021-07-28T15:00:56Z</time>
      </trkpt>
      <trkpt lat="49.17495" lon="6.10942">
        <ele>244.4</ele>
        <time>2021-07-28T15:00:58Z</time>
      </trkpt>
      <trkpt lat="49.1749" lon="6.10948">
        <ele>243.6</ele>
        <time>2021-07-28T15:00:59Z</time>
      </trkpt>
      <trkpt lat="49.17484" lon="6.10954">
        <ele>242.8</ele>
        <time>2021-07-28T15:01:00Z</time>
      </trkpt>
      <trkpt lat="49.17475" lon="6.10964">
        <ele>241.5</ele>
        <time>2021-07-28T15:01:02Z</time>
      </trkpt>
      <trkpt lat="49.17468" lon="6.10969">
        <ele>240.6</ele>
        <time>2021-07-28T15:01:04Z</time>
      </trkpt>
      <trkpt lat="49.17464" lon="6.10971">
        <ele>240.1</ele>
        <time>2021-07-28T15:01:05Z</time>
      </trkpt>
      <trkpt lat="49.17458" lon="6.10974">
        <ele>239.3</ele>
        <time>2021-07-28T15:01:06Z</time>
      </trkpt>
      <trkpt lat="49.17451" lon="6.10979">
        <ele>238.3</ele>
        <time>2021-07-28T15:01:07Z</time>
      </trkpt>
      <trkpt lat="49.17437" lon="6.1099">
        <ele>236.3</ele>
        <time>2021-07-28T15:01:09Z</time>
      </trkpt>
      <trkpt lat="49.17421" lon="6.10999">
        <ele>234.2</ele>
        <time>2021-07-28T15:01:11Z</time>
      </trkpt>
      <trkpt lat="49.17412" lon="6.11">
        <ele>233.2</ele>
        <time>2021-07-28T15:01:12Z</time>
      </trkpt>
      <trkpt lat="49.17396" lon="6.11002">
        <ele>231.7</ele>
        <time>2021-07-28T15:01:14Z</time>
      </trkpt>
      <trkpt lat="49.17391" lon="6.11004">
        <ele>231.1</ele>
        <time>2021-07-28T15:01:15Z</time>
      </trkpt>
      <trkpt lat="49.17381" lon="6.11008">
        <ele>230.1</ele>
        <time>2021-07-28T15:01:17Z</time>
      </trkpt>
      <trkpt lat="49.17375" lon="6.11009">
        <ele>229.5</ele>
        <time>2021-07-28T15:01:18Z</time>
      </trkpt>
      <trkpt lat="49.17364" lon="6.1101">
        <ele>228.5</ele>
        <time>2021-07-28T15:01:20Z</time>
      </trkpt>
      <trkpt lat="49.17359" lon="6.11013">
        <ele>228</ele>
        <time>2021-07-28T15:01:21Z</time>
      </trkpt>
      <trkpt lat="49.1735" lon="6.11018">
        <ele>227.1</ele>
        <time>2021-07-28T15:01:23Z</time>
      </trkpt>
      <trkpt lat="49.17346" lon="6.11021">
        <ele>226.8</ele>
        <time>2021-07-28T15:01:25Z</time>
      </trkpt>
      <trkpt lat="49.17345" lon="6.1102">
        <ele>226.6</ele>
        <time>2021-07-28T15:01:26Z</time>
      </trkpt>
      <trkpt lat="49.17345" lon="6.11017">
        <ele>226.4</ele>
        <time>2021-07-28T15:01:28Z</time>
      </trkpt>
      <trkpt lat="49.17347" lon="6.11016">
        <ele>226.2</ele>
        <time>2021-07-28T15:01:30Z</time>
      </trkpt>
      <trkpt lat="49.17348" lon="6.11016">
        <ele>226.1</ele>
        <time>2021-07-28T15:01:32Z</time>
      </trkpt>
      <trkpt lat="49.17348" lon="6.11016">
        <ele>226.1</ele>
        <time>2021-07-28T15:01:34Z</time>
      </trkpt>
      <trkpt lat="49.1735" lon="6.11019">
        <ele>225.9</ele>
        <time>2021-07-28T15:01:35Z</time>
      </trkpt>
      <trkpt lat="49.17351" lon="6.11022">
        <ele>225.7</ele>
        <time>2021-07-28T15:01:36Z</time>
      </trkpt>
      <trkpt lat="49.17341" lon="6.1103">
        <ele>224.6</ele>
        <time>2021-07-28T15:02:16Z</time>
      </trkpt>
      <trkpt lat="49.17334" lon="6.11039">
        <ele>223.9</ele>
        <time>2021-07-28T15:02:18Z</time>
      </trkpt>
      <trkpt lat="49.17328" lon="6.11045">
        <ele>223.3</ele>
        <time>2021-07-28T15:02:19Z</time>
      </trkpt>
      <trkpt lat="49.17325" lon="6.11048">
        <ele>223</ele>
        <time>2021-07-28T15:02:20Z</time>
      </trkpt>
      <trkpt lat="49.17321" lon="6.1105">
        <ele>222.7</ele>
        <time>2021-07-28T15:02:21Z</time>
      </trkpt>
      <trkpt lat="49.17316" lon="6.11051">
        <ele>222.3</ele>
        <time>2021-07-28T15:02:23Z</time>
      </trkpt>
      <trkpt lat="49.17318" lon="6.11057">
        <ele>222.1</ele>
        <time>2021-07-28T15:02:25Z</time>
      </trkpt>
      <trkpt lat="49.17319" lon="6.1106">
        <ele>221.9</ele>
        <time>2021-07-28T15:02:27Z</time>
      </trkpt>
      <trkpt lat="49.17319" lon="6.1106">
        <ele>221.9</ele>
        <time>2021-07-28T15:02:28Z</time>
      </trkpt>
      <trkpt lat="49.17319" lon="6.11061">
        <ele>221.9</ele>
        <time>2021-07-28T15:02:30Z</time>
      </trkpt>
      <trkpt lat="49.17319" lon="6.11061">
        <ele>221.9</ele>
        <time>2021-07-28T15:02:31Z</time>
      </trkpt>
      <trkpt lat="49.17308" lon="6.11069">
        <ele>221.3</ele>
        <time>2021-07-28T15:03:32Z</time>
      </trkpt>
      <trkpt lat="49.17302" lon="6.11072">
        <ele>221.3</ele>
        <time>2021-07-28T15:03:34Z</time>
      </trkpt>
      <trkpt lat="49.17296" lon="6.11073">
        <ele>221.4</ele>
        <time>2021-07-28T15:03:36Z</time>
      </trkpt>
      <trkpt lat="49.17294" lon="6.11074">
        <ele>221.5</ele>
        <time>2021-07-28T15:03:37Z</time>
      </trkpt>
      <trkpt lat="49.1729" lon="6.11076">
        <ele>221.7</ele>
        <time>2021-07-28T15:03:39Z</time>
      </trkpt>
      <trkpt lat="49.17286" lon="6.11078">
        <ele>221.9</ele>
        <time>2021-07-28T15:03:41Z</time>
      </trkpt>
      <trkpt lat="49.17283" lon="6.1108">
        <ele>222.1</ele>
        <time>2021-07-28T15:03:43Z</time>
      </trkpt>
      <trkpt lat="49.17282" lon="6.1108">
        <ele>222.2</ele>
        <time>2021-07-28T15:03:44Z</time>
      </trkpt>
      <trkpt lat="49.17281" lon="6.11081">
        <ele>222.3</ele>
        <time>2021-07-28T15:03:45Z</time>
      </trkpt>
      <trkpt lat="49.17279" lon="6.11082">
        <ele>222.5</ele>
        <time>2021-07-28T15:03:47Z</time>
      </trkpt>
      <trkpt lat="49.17279" lon="6.11084">
        <ele>222.6</ele>
        <time>2021-07-28T15:03:48Z</time>
      </trkpt>
      <trkpt lat="49.1728" lon="6.11086">
        <ele>222.8</ele>
        <time>2021-07-28T15:03:50Z</time>
      </trkpt>
      <trkpt lat="49.1728" lon="6.11086">
        <ele>222.8</ele>
        <time>2021-07-28T15:03:52Z</time>
      </trkpt>
      <trkpt lat="49.1728" lon="6.11086">
        <ele>222.8</ele>
        <time>2021-07-28T15:03:53Z</time>
      </trkpt>
      <trkpt lat="49.1728" lon="6.11087">
        <ele>222.9</ele>
        <time>2021-07-28T15:03:54Z</time>
      </trkpt>
      <trkpt lat="49.17279" lon="6.11087">
        <ele>222.9</ele>
        <time>2021-07-28T15:03:56Z</time>
      </trkpt>
      <trkpt lat="49.17278" lon="6.11087">
        <ele>223</ele>
        <time>2021-07-28T15:03:57Z</time>
      </trkpt>
      <trkpt lat="49.17277" lon="6.11087">
        <ele>223.1</ele>
        <time>2021-07-28T15:03:59Z</time>
      </trkpt>
      <trkpt lat="49.17177" lon="6.11115">
        <ele>237.4</ele>
        <time>2021-07-28T15:06:58Z</time>
      </trkpt>
      <trkpt lat="49.17174" lon="6.11116">
        <ele>237.8</ele>
        <time>2021-07-28T15:06:59Z</time>
      </trkpt>
      <trkpt lat="49.17169" lon="6.11116">
        <ele>238.5</ele>
        <time>2021-07-28T15:07:01Z</time>
      </trkpt>
      <trkpt lat="49.17168" lon="6.11116">
        <ele>238.7</ele>
        <time>2021-07-28T15:07:02Z</time>
      </trkpt>
      <trkpt lat="49.17167" lon="6.11115">
        <ele>238.8</ele>
        <time>2021-07-28T15:07:04Z</time>
      </trkpt>
      <trkpt lat="49.17166" lon="6.11114">
        <ele>239</ele>
        <time>2021-07-28T15:07:05Z</time>
      </trkpt>
      <trkpt lat="49.17163" lon="6.11112">
        <ele>239.5</ele>
        <time>2021-07-28T15:07:07Z</time>
      </trkpt>
      <trkpt lat="49.17162" lon="6.11111">
        <ele>239.7</ele>
        <time>2021-07-28T15:07:08Z</time>
      </trkpt>
      <trkpt lat="49.17159" lon="6.1111">
        <ele>240.1</ele>
        <time>2021-07-28T15:07:10Z</time>
      </trkpt>
      <trkpt lat="49.17158" lon="6.1111">
        <ele>240.3</ele>
        <time>2021-07-28T15:07:11Z</time>
      </trkpt>
      <trkpt lat="49.17157" lon="6.11112">
        <ele>240.5</ele>
        <time>2021-07-28T15:07:12Z</time>
      </trkpt>
      <trkpt lat="49.17157" lon="6.11112">
        <ele>240.5</ele>
        <time>2021-07-28T15:07:13Z</time>
      </trkpt>
      <trkpt lat="49.17157" lon="6.11112">
        <ele>240.6</ele>
        <time>2021-07-28T15:07:15Z</time>
      </trkpt>
      <trkpt lat="49.17156" lon="6.11112">
        <ele>240.6</ele>
        <time>2021-07-28T15:07:16Z</time>
      </trkpt>
      <trkpt lat="49.17156" lon="6.11113">
        <ele>240.6</ele>
        <time>2021-07-28T15:07:18Z</time>
      </trkpt>
      <trkpt lat="49.17156" lon="6.11113">
        <ele>240.6</ele>
        <time>2021-07-28T15:07:19Z</time>
      </trkpt>
      <trkpt lat="49.17156" lon="6.11113">
        <ele>240.7</ele>
        <time>2021-07-28T15:07:21Z</time>
      </trkpt>
      <trkpt lat="49.17125" lon="6.11137">
        <ele>244.2</ele>
        <time>2021-07-28T15:08:05Z</time>
      </trkpt>
      <trkpt lat="49.17121" lon="6.11143">
        <ele>244.2</ele>
        <time>2021-07-28T15:08:07Z</time>
      </trkpt>
      <trkpt lat="49.17119" lon="6.11148">
        <ele>244.3</ele>
        <time>2021-07-28T15:08:08Z</time>
      </trkpt>
      <trkpt lat="49.17116" lon="6.11154">
        <ele>244.4</ele>
        <time>2021-07-28T15:08:09Z</time>
      </trkpt>
      <trkpt lat="49.17114" lon="6.11158">
        <ele>244.4</ele>
        <time>2021-07-28T15:08:10Z</time>
      </trkpt>
      <trkpt lat="49.17112" lon="6.11163">
        <ele>244.5</ele>
        <time>2021-07-28T15:08:12Z</time>
      </trkpt>
      <trkpt lat="49.17111" lon="6.11167">
        <ele>244.6</ele>
        <time>2021-07-28T15:08:13Z</time>
      </trkpt>
      <trkpt lat="49.1711" lon="6.11172">
        <ele>244.6</ele>
        <time>2021-07-28T15:08:15Z</time>
      </trkpt>
      <trkpt lat="49.17109" lon="6.11176">
        <ele>244.7</ele>
        <time>2021-07-28T15:08:16Z</time>
      </trkpt>
      <trkpt lat="49.17107" lon="6.11179">
        <ele>244.8</ele>
        <time>2021-07-28T15:08:17Z</time>
      </trkpt>
      <trkpt lat="49.17104" lon="6.11181">
        <ele>244.8</ele>
        <time>2021-07-28T15:08:18Z</time>
      </trkpt>
      <trkpt lat="49.17101" lon="6.11184">
        <ele>244.9</ele>
        <time>2021-07-28T15:08:20Z</time>
      </trkpt>
      <trkpt lat="49.171" lon="6.11185">
        <ele>244.9</ele>
        <time>2021-07-28T15:08:21Z</time>
      </trkpt>
      <trkpt lat="49.17099" lon="6.11186">
        <ele>245</ele>
        <time>2021-07-28T15:08:22Z</time>
      </trkpt>
      <trkpt lat="49.17096" lon="6.11189">
        <ele>245.1</ele>
        <time>2021-07-28T15:08:24Z</time>
      </trkpt>
      <trkpt lat="49.17096" lon="6.11191">
        <ele>245.1</ele>
        <time>2021-07-28T15:08:25Z</time>
      </trkpt>
      <trkpt lat="49.17096" lon="6.11192">
        <ele>245.1</ele>
        <time>2021-07-28T15:08:26Z</time>
      </trkpt>
      <trkpt lat="49.17095" lon="6.11196">
        <ele>245.2</ele>
        <time>2021-07-28T15:08:28Z</time>
      </trkpt>
      <trkpt lat="49.17093" lon="6.11197">
        <ele>245.2</ele>
        <time>2021-07-28T15:08:29Z</time>
      </trkpt>
      <trkpt lat="49.17091" lon="6.112">
        <ele>245.3</ele>
        <time>2021-07-28T15:08:31Z</time>
      </trkpt>
      <trkpt lat="49.1709" lon="6.11203">
        <ele>245.4</ele>
        <time>2021-07-28T15:08:32Z</time>
      </trkpt>
      <trkpt lat="49.17087" lon="6.11206">
        <ele>245.5</ele>
        <time>2021-07-28T15:08:34Z</time>
      </trkpt>
      <trkpt lat="49.17085" lon="6.11207">
        <ele>245.6</ele>
        <time>2021-07-28T15:08:36Z</time>
      </trkpt>
      <trkpt lat="49.17085" lon="6.11206">
        <ele>245.6</ele>
        <time>2021-07-28T15:08:37Z</time>
      </trkpt>
      <trkpt lat="49.17085" lon="6.11205">
        <ele>245.7</ele>
        <time>2021-07-28T15:08:38Z</time>
      </trkpt>
      <trkpt lat="49.17084" lon="6.11204">
        <ele>245.7</ele>
        <time>2021-07-28T15:08:40Z</time>
      </trkpt>
      <trkpt lat="49.17082" lon="6.11203">
        <ele>245.8</ele>
        <time>2021-07-28T15:08:41Z</time>
      </trkpt>
      <trkpt lat="49.17077" lon="6.11202">
        <ele>246</ele>
        <time>2021-07-28T15:08:43Z</time>
      </trkpt>
      <trkpt lat="49.17073" lon="6.11203">
        <ele>246.2</ele>
        <time>2021-07-28T15:08:44Z</time>
      </trkpt>
      <trkpt lat="49.17073" lon="6.11203">
        <ele>246.2</ele>
        <time>2021-07-28T15:08:45Z</time>
      </trkpt>
      <trkpt lat="49.17072" lon="6.11203">
        <ele>246.2</ele>
        <time>2021-07-28T15:08:46Z</time>
      </trkpt>
      <trkpt lat="49.17072" lon="6.11201">
        <ele>246.3</ele>
        <time>2021-07-28T15:08:48Z</time>
      </trkpt>
      <trkpt lat="49.17072" lon="6.112">
        <ele>246.4</ele>
        <time>2021-07-28T15:08:49Z</time>
      </trkpt>
      <trkpt lat="49.17072" lon="6.11199">
        <ele>246.4</ele>
        <time>2021-07-28T15:08:50Z</time>
      </trkpt>
      <trkpt lat="49.17072" lon="6.11198">
        <ele>246.4</ele>
        <time>2021-07-28T15:08:52Z</time>
      </trkpt>
      <trkpt lat="49.17071" lon="6.11197">
        <ele>246.5</ele>
        <time>2021-07-28T15:08:54Z</time>
      </trkpt>
      <trkpt lat="49.17071" lon="6.11196">
        <ele>246.5</ele>
        <time>2021-07-28T15:08:55Z</time>
      </trkpt>
      <trkpt lat="49.16814" lon="6.11151">
        <ele>279.4</ele>
        <time>2021-07-28T15:20:33Z</time>
      </trkpt>
      <trkpt lat="49.16811" lon="6.11151">
        <ele>279.6</ele>
        <time>2021-07-28T15:20:34Z</time>
      </trkpt>
      <trkpt lat="49.1681" lon="6.11151">
        <ele>279.6</ele>
        <time>2021-07-28T15:20:35Z</time>
      </trkpt>
      <trkpt lat="49.16806" lon="6.11149">
        <ele>279.9</ele>
        <time>2021-07-28T15:20:37Z</time>
      </trkpt>
      <trkpt lat="49.16805" lon="6.11148">
        <ele>279.9</ele>
        <time>2021-07-28T15:20:38Z</time>
      </trkpt>
      <trkpt lat="49.16804" lon="6.11146">
        <ele>280</ele>
        <time>2021-07-28T15:20:39Z</time>
      </trkpt>
      <trkpt lat="49.16804" lon="6.11144">
        <ele>280</ele>
        <time>2021-07-28T15:20:41Z</time>
      </trkpt>
      <trkpt lat="49.16803" lon="6.11143">
        <ele>280.1</ele>
        <time>2021-07-28T15:20:42Z</time>
      </trkpt>
      <trkpt lat="49.16803" lon="6.11139">
        <ele>280.2</ele>
        <time>2021-07-28T15:20:44Z</time>
      </trkpt>
      <trkpt lat="49.16802" lon="6.11136">
        <ele>280.3</ele>
        <time>2021-07-28T15:20:45Z</time>
      </trkpt>
      <trkpt lat="49.16802" lon="6.11133">
        <ele>280.4</ele>
        <time>2021-07-28T15:20:47Z</time>
      </trkpt>
      <trkpt lat="49.16801" lon="6.1113">
        <ele>280.5</ele>
        <time>2021-07-28T15:20:49Z</time>
      </trkpt>
      <trkpt lat="49.16801" lon="6.11129">
        <ele>280.5</ele>
        <time>2021-07-28T15:20:50Z</time>
      </trkpt>
      <trkpt lat="49.16804" lon="6.11132">
        <ele>280.7</ele>
        <time>2021-07-28T15:20:52Z</time>
      </trkpt>
      <trkpt lat="49.16805" lon="6.11136">
        <ele>280.8</ele>
        <time>2021-07-28T15:20:54Z</time>
      </trkpt>
      <trkpt lat="49.16807" lon="6.1114">
        <ele>281</ele>
        <time>2021-07-28T15:20:55Z</time>
      </trkpt>
      <trkpt lat="49.16809" lon="6.11144">
        <ele>281.1</ele>
        <time>2021-07-28T15:20:57Z</time>
      </trkpt>
      <trkpt lat="49.16811" lon="6.11148">
        <ele>281.2</ele>
        <time>2021-07-28T15:20:58Z</time>
      </trkpt>
      <trkpt lat="49.16815" lon="6.11158">
        <ele>281.5</ele>
        <time>2021-07-28T15:20:59Z</time>
      </trkpt>
      <trkpt lat="49.16816" lon="6.11161">
        <ele>281.7</ele>
        <time>2021-07-28T15:21:00Z</time>
      </trkpt>
      <trkpt lat="49.16817" lon="6.11164">
        <ele>281.7</ele>
        <time>2021-07-28T15:21:02Z</time>
      </trkpt>
      <trkpt lat="49.16817" lon="6.11164">
        <ele>281.8</ele>
        <time>2021-07-28T15:21:04Z</time>
      </trkpt>
      <trkpt lat="49.16817" lon="6.11164">
        <ele>281.8</ele>
        <time>2021-07-28T15:21:05Z</time>
      </trkpt>
      <trkpt lat="49.16817" lon="6.11165">
        <ele>281.8</ele>
        <time>2021-07-28T15:21:06Z</time>
      </trkpt>
      <trkpt lat="49.16817" lon="6.11165">
        <ele>281.8</ele>
        <time>2021-07-28T15:21:08Z</time>
      </trkpt>
      <trkpt lat="49.16817" lon="6.11165">
        <ele>281.8</ele>
        <time>2021-07-28T15:21:09Z</time>
      </trkpt>
      <trkpt lat="49.16816" lon="6.11166">
        <ele>281.8</ele>
        <time>2021-07-28T15:21:10Z</time>
      </trkpt>
      <trkpt lat="49.16816" lon="6.11166">
        <ele>281.8</ele>
        <time>2021-07-28T15:21:12Z</time>
      </trkpt>
      <trkpt lat="49.16816" lon="6.11166">
        <ele>281.8</ele>
        <time>2021-07-28T15:21:13Z</time>
      </trkpt>
      <trkpt lat="49.16816" lon="6.11166">
        <ele>281.8</ele>
        <time>2021-07-28T15:21:15Z</time>
      </trkpt>
      <trkpt lat="49.16816" lon="6.11167">
        <ele>281.8</ele>
        <time>2021-07-28T15:21:16Z</time>
      </trkpt>
      <trkpt lat="49.16816" lon="6.11167">
        <ele>281.9</ele>
        <time>2021-07-28T15:21:18Z</time>
      </trkpt>
      <trkpt lat="49.16816" lon="6.11167">
        <ele>281.9</ele>
        <time>2021-07-28T15:21:19Z</time>
      </trkpt>
      <trkpt lat="49.16816" lon="6.11169">
        <ele>281.9</ele>
        <time>2021-07-28T15:21:20Z</time>
      </trkpt>
      <trkpt lat="49.16816" lon="6.11174">
        <ele>282.1</ele>
        <time>2021-07-28T15:21:22Z</time>
      </trkpt>
      <trkpt lat="49.16816" lon="6.11177">
        <ele>282.1</ele>
        <time>2021-07-28T15:21:23Z</time>
      </trkpt>
      <trkpt lat="49.16816" lon="6.11179">
        <ele>282.2</ele>
        <time>2021-07-28T15:21:25Z</time>
      </trkpt>
      <trkpt lat="49.16816" lon="6.1118">
        <ele>282.2</ele>
        <time>2021-07-28T15:21:26Z</time>
      </trkpt>
      <trkpt lat="49.16816" lon="6.1118">
        <ele>282.2</ele>
        <time>2021-07-28T15:21:27Z</time>
      </trkpt>
      <trkpt lat="49.16814" lon="6.11181">
        <ele>282.3</ele>
        <time>2021-07-28T15:21:29Z</time>
      </trkpt>
      <trkpt lat="49.16812" lon="6.11181">
        <ele>282.4</ele>
        <time>2021-07-28T15:21:31Z</time>
      </trkpt>
      <trkpt lat="49.1681" lon="6.11181">
        <ele>282.5</ele>
        <time>2021-07-28T15:21:32Z</time>
      </trkpt>
      <trkpt lat="49.16809" lon="6.1118">
        <ele>282.6</ele>
        <time>2021-07-28T15:21:34Z</time>
      </trkpt>
      <trkpt lat="49.16807" lon="6.1118">
        <ele>282.6</ele>
        <time>2021-07-28T15:21:36Z</time>
      </trkpt>
      <trkpt lat="49.16806" lon="6.11179">
        <ele>282.7</ele>
        <time>2021-07-28T15:21:38Z</time>
      </trkpt>
      <trkpt lat="49.16805" lon="6.11178">
        <ele>282.7</ele>
        <time>2021-07-28T15:21:40Z</time>
      </trkpt>
      <trkpt lat="49.16804" lon="6.11178">
        <ele>282.8</ele>
        <time>2021-07-28T15:21:42Z</time>
      </trkpt>
      <trkpt lat="49.16802" lon="6.11177">
        <ele>282.9</ele>
        <time>2021-07-28T15:21:44Z</time>
      </trkpt>
      <trkpt lat="49.16802" lon="6.11177">
        <ele>282.9</ele>
        <time>2021-07-28T15:21:46Z</time>
      </trkpt>
      <trkpt lat="49.16803" lon="6.11177">
        <ele>282.9</ele>
        <time>2021-07-28T15:21:48Z</time>
      </trkpt>
      <trkpt lat="49.16804" lon="6.11176">
        <ele>282.9</ele>
        <time>2021-07-28T15:21:49Z</time>
      </trkpt>
      <trkpt lat="49.16805" lon="6.11176">
        <ele>283</ele>
        <time>2021-07-28T15:21:50Z</time>
      </trkpt>
      <trkpt lat="49.16806" lon="6.11176">
        <ele>283</ele>
        <time>2021-07-28T15:21:52Z</time>
      </trkpt>
      <trkpt lat="49.16806" lon="6.11175">
        <ele>283.1</ele>
        <time>2021-07-28T15:21:54Z</time>
      </trkpt>
      <trkpt lat="49.16807" lon="6.11175">
        <ele>283.1</ele>
        <time>2021-07-28T15:21:55Z</time>
      </trkpt>
      <trkpt lat="49.16808" lon="6.11175">
        <ele>283.1</ele>
        <time>2021-07-28T15:21:56Z</time>
      </trkpt>
      <trkpt lat="49.16809" lon="6.11175">
        <ele>283.2</ele>
        <time>2021-07-28T15:21:57Z</time>
      </trkpt>
      <trkpt lat="49.16816" lon="6.11171">
        <ele>283.5</ele>
        <time>2021-07-28T15:21:59Z</time>
      </trkpt>
      <trkpt lat="49.1682" lon="6.11169">
        <ele>283.6</ele>
        <time>2021-07-28T15:22:00Z</time>
      </trkpt>
      <trkpt lat="49.1682" lon="6.11169">
        <ele>283.7</ele>
        <time>2021-07-28T15:22:02Z</time>
      </trkpt>
      <trkpt lat="49.16821" lon="6.11169">
        <ele>283.7</ele>
        <time>2021-07-28T15:22:03Z</time>
      </trkpt>
      <trkpt lat="49.16821" lon="6.11169">
        <ele>283.7</ele>
        <time>2021-07-28T15:22:04Z</time>
      </trkpt>
      <trkpt lat="49.16818" lon="6.11169">
        <ele>283.8</ele>
        <time>2021-07-28T15:22:05Z</time>
      </trkpt>
      <trkpt lat="49.16809" lon="6.11168">
        <ele>284.2</ele>
        <time>2021-07-28T15:22:07Z</time>
      </trkpt>
      <trkpt lat="49.16801" lon="6.11168">
        <ele>284.5</ele>
        <time>2021-07-28T15:22:08Z</time>
      </trkpt>
      <trkpt lat="49.16797" lon="6.11168">
        <ele>284.7</ele>
        <time>2021-07-28T15:22:10Z</time>
      </trkpt>
      <trkpt lat="49.16795" lon="6.11168">
        <ele>284.8</ele>
        <time>2021-07-28T15:22:11Z</time>
      </trkpt>
      <trkpt lat="49.16794" lon="6.11169">
        <ele>284.8</ele>
        <time>2021-07-28T15:22:13Z</time>
      </trkpt>
      <trkpt lat="49.16793" lon="6.11169">
        <ele>284.8</ele>
        <time>2021-07-28T15:22:14Z</time>
      </trkpt>
      <trkpt lat="49.1679" lon="6.11169">
        <ele>285</ele>
        <time>2021-07-28T15:22:16Z</time>
      </trkpt>
      <trkpt lat="49.16787" lon="6.11169">
        <ele>285.1</ele>
        <time>2021-07-28T15:22:17Z</time>
      </trkpt>
      <trkpt lat="49.16784" lon="6.11168">
        <ele>285.2</ele>
        <time>2021-07-28T15:22:19Z</time>
      </trkpt>
      <trkpt lat="49.16781" lon="6.11167">
        <ele>285.4</ele>
        <time>2021-07-28T15:22:20Z</time>
      </trkpt>
      <trkpt lat="49.16778" lon="6.11166">
        <ele>285.5</ele>
        <time>2021-07-28T15:22:21Z</time>
      </trkpt>
      <trkpt lat="49.16777" lon="6.11166">
        <ele>285.5</ele>
        <time>2021-07-28T15:22:22Z</time>
      </trkpt>
      <trkpt lat="49.16774" lon="6.11165">
        <ele>285.6</ele>
        <time>2021-07-28T15:22:24Z</time>
      </trkpt>
      <trkpt lat="49.1677" lon="6.11166">
        <ele>285.8</ele>
        <time>2021-07-28T15:22:25Z</time>
      </trkpt>
      <trkpt lat="49.16769" lon="6.11166">
        <ele>285.8</ele>
        <time>2021-07-28T15:22:26Z</time>
      </trkpt>
      <trkpt lat="49.16767" lon="6.11166">
        <ele>285.9</ele>
        <time>2021-07-28T15:22:28Z</time>
      </trkpt>
      <trkpt lat="49.16765" lon="6.11166">
        <ele>286</ele>
        <time>2021-07-28T15:22:29Z</time>
      </trkpt>
      <trkpt lat="49.16762" lon="6.11167">
        <ele>286.1</ele>
        <time>2021-07-28T15:22:31Z</time>
      </trkpt>
      <trkpt lat="49.16759" lon="6.11168">
        <ele>286.2</ele>
        <time>2021-07-28T15:22:33Z</time>
      </trkpt>
      <trkpt lat="49.16758" lon="6.11168">
        <ele>286.2</ele>
        <time>2021-07-28T15:22:34Z</time>
      </trkpt>
      <trkpt lat="49.16382" lon="6.11128">
        <ele>275.1</ele>
        <time>2021-07-28T15:29:58Z</time>
      </trkpt>
      <trkpt lat="49.16379" lon="6.11128">
        <ele>275.2</ele>
        <time>2021-07-28T15:29:59Z</time>
      </trkpt>
      <trkpt lat="49.16373" lon="6.11129">
        <ele>275.5</ele>
        <time>2021-07-28T15:30:01Z</time>
      </trkpt>
      <trkpt lat="49.16371" lon="6.1113">
        <ele>275.5</ele>
        <time>2021-07-28T15:30:02Z</time>
      </trkpt>
      <trkpt lat="49.16368" lon="6.11133">
        <ele>275.7</ele>
        <time>2021-07-28T15:30:04Z</time>
      </trkpt>
      <trkpt lat="49.16364" lon="6.11136">
        <ele>275.9</ele>
        <time>2021-07-28T15:30:06Z</time>
      </trkpt>
      <trkpt lat="49.1636" lon="6.11135">
        <ele>276.2</ele>
        <time>2021-07-28T15:30:08Z</time>
      </trkpt>
      <trkpt lat="49.16358" lon="6.11134">
        <ele>276.2</ele>
        <time>2021-07-28T15:30:10Z</time>
      </trkpt>
      <trkpt lat="49.16357" lon="6.11133">
        <ele>276.3</ele>
        <time>2021-07-28T15:30:11Z</time>
      </trkpt>
      <trkpt lat="49.16355" lon="6.11132">
        <ele>276.4</ele>
        <time>2021-07-28T15:30:12Z</time>
      </trkpt>
      <trkpt lat="49.16354" lon="6.11131">
        <ele>276.5</ele>
        <time>2021-07-28T15:30:13Z</time>
      </trkpt>
      <trkpt lat="49.16352" lon="6.11129">
        <ele>276.7</ele>
        <time>2021-07-28T15:30:15Z</time>
      </trkpt>
      <trkpt lat="49.16352" lon="6.11128">
        <ele>276.7</ele>
        <time>2021-07-28T15:30:16Z</time>
      </trkpt>
      <trkpt lat="49.16351" lon="6.11127">
        <ele>276.7</ele>
        <time>2021-07-28T15:30:18Z</time>
      </trkpt>
      <trkpt lat="49.16349" lon="6.11128">
        <ele>276.9</ele>
        <time>2021-07-28T15:30:20Z</time>
      </trkpt>
      <trkpt lat="49.16347" lon="6.11128">
        <ele>277</ele>
        <time>2021-07-28T15:30:22Z</time>
      </trkpt>
      <trkpt lat="49.16346" lon="6.11128">
        <ele>277.1</ele>
        <time>2021-07-28T15:30:23Z</time>
      </trkpt>
      <trkpt lat="49.16279" lon="6.11105">
        <ele>283.6</ele>
        <time>2021-07-28T15:31:27Z</time>
      </trkpt>
      <trkpt lat="49.16277" lon="6.11102">
        <ele>283.7</ele>
        <time>2021-07-28T15:31:28Z</time>
      </trkpt>
      <trkpt lat="49.16273" lon="6.11094">
        <ele>283.8</ele>
        <time>2021-07-28T15:31:30Z</time>
      </trkpt>
      <trkpt lat="49.16272" lon="6.11089">
        <ele>283.9</ele>
        <time>2021-07-28T15:31:31Z</time>
      </trkpt>
      <trkpt lat="49.1627" lon="6.11084">
        <ele>284</ele>
        <time>2021-07-28T15:31:32Z</time>
      </trkpt>
      <trkpt lat="49.16269" lon="6.11076">
        <ele>284</ele>
        <time>2021-07-28T15:31:34Z</time>
      </trkpt>
      <trkpt lat="49.16269" lon="6.11067">
        <ele>284</ele>
        <time>2021-07-28T15:31:36Z</time>
      </trkpt>
      <trkpt lat="49.16268" lon="6.11062">
        <ele>284</ele>
        <time>2021-07-28T15:31:37Z</time>
      </trkpt>
      <trkpt lat="49.16268" lon="6.11058">
        <ele>284</ele>
        <time>2021-07-28T15:31:38Z</time>
      </trkpt>
      <trkpt lat="49.16266" lon="6.11058">
        <ele>284</ele>
        <time>2021-07-28T15:31:40Z</time>
      </trkpt>
      <trkpt lat="49.16265" lon="6.11058">
        <ele>284</ele>
        <time>2021-07-28T15:31:41Z</time>
      </trkpt>
      <trkpt lat="49.16263" lon="6.11058">
        <ele>284</ele>
        <time>2021-07-28T15:31:42Z</time>
      </trkpt>
      <trkpt lat="49.16262" lon="6.11058">
        <ele>284</ele>
        <time>2021-07-28T15:31:43Z</time>
      </trkpt>
      <trkpt lat="49.1626" lon="6.11059">
        <ele>284</ele>
        <time>2021-07-28T15:31:44Z</time>
      </trkpt>
      <trkpt lat="49.16258" lon="6.11059">
        <ele>284</ele>
        <time>2021-07-28T15:31:46Z</time>
      </trkpt>
      <trkpt lat="49.16255" lon="6.11059">
        <ele>283.9</ele>
        <time>2021-07-28T15:31:48Z</time>
      </trkpt>
      <trkpt lat="49.16208" lon="6.11022">
        <ele>280.5</ele>
        <time>2021-07-28T15:32:06Z</time>
      </trkpt>
      <trkpt lat="49.16204" lon="6.11019">
        <ele>280</ele>
        <time>2021-07-28T15:32:07Z</time>
      </trkpt>
      <trkpt lat="49.16192" lon="6.1101">
        <ele>278.5</ele>
        <time>2021-07-28T15:32:08Z</time>
      </trkpt>
      <trkpt lat="49.16176" lon="6.10993">
        <ele>276.4</ele>
        <time>2021-07-28T15:32:10Z</time>
      </trkpt>
      <trkpt lat="49.16171" lon="6.10977">
        <ele>275.2</ele>
        <time>2021-07-28T15:32:11Z</time>
      </trkpt>
      <trkpt lat="49.16167" lon="6.1096">
        <ele>274.1</ele>
        <time>2021-07-28T15:32:12Z</time>
      </trkpt>
      <trkpt lat="49.16158" lon="6.10934">
        <ele>272.3</ele>
        <time>2021-07-28T15:32:14Z</time>
      </trkpt>
      <trkpt lat="49.16155" lon="6.10927">
        <ele>271.9</ele>
        <time>2021-07-28T15:32:16Z</time>
      </trkpt>
      <trkpt lat="49.16153" lon="6.10921">
        <ele>271.5</ele>
        <time>2021-07-28T15:32:18Z</time>
      </trkpt>
      <trkpt lat="49.1615" lon="6.10914">
        <ele>271</ele>
        <time>2021-07-28T15:32:19Z</time>
      </trkpt>
      <trkpt lat="49.16147" lon="6.10911">
        <ele>270.8</ele>
        <time>2021-07-28T15:32:20Z</time>
      </trkpt>
      <trkpt lat="49.16145" lon="6.10909">
        <ele>270.6</ele>
        <time>2021-07-28T15:32:21Z</time>
      </trkpt>
      <trkpt lat="49.16135" lon="6.10908">
        <ele>269.8</ele>
        <time>2021-07-28T15:32:23Z</time>
      </trkpt>
      <trkpt lat="49.1612" lon="6.10905">
        <ele>268.5</ele>
        <time>2021-07-28T15:32:24Z</time>
      </trkpt>
      <trkpt lat="49.16023" lon="6.10733">
        <ele>256</ele>
        <time>2021-07-28T15:32:58Z</time>
      </trkpt>
      <trkpt lat="49.16021" lon="6.10717">
        <ele>256.2</ele>
        <time>2021-07-28T15:33:00Z</time>
      </trkpt>
      <trkpt lat="49.16021" lon="6.10707">
        <ele>256.3</ele>
        <time>2021-07-28T15:33:01Z</time>
      </trkpt>
      <trkpt lat="49.1602" lon="6.10692">
        <ele>256.6</ele>
        <time>2021-07-28T15:33:03Z</time>
      </trkpt>
      <trkpt lat="49.1602" lon="6.10684">
        <ele>256.7</ele>
        <time>2021-07-28T15:33:04Z</time>
      </trkpt>
      <trkpt lat="49.16019" lon="6.1068">
        <ele>256.8</ele>
        <time>2021-07-28T15:33:05Z</time>
      </trkpt>
      <trkpt lat="49.16017" lon="6.10673">
        <ele>257</ele>
        <time>2021-07-28T15:33:07Z</time>
      </trkpt>
      <trkpt lat="49.16011" lon="6.10674">
        <ele>257.2</ele>
        <time>2021-07-28T15:33:08Z</time>
      </trkpt>
      <trkpt lat="49.16008" lon="6.10674">
        <ele>257.3</ele>
        <time>2021-07-28T15:33:09Z</time>
      </trkpt>
      <trkpt lat="49.16005" lon="6.10673">
        <ele>257.5</ele>
        <time>2021-07-28T15:33:10Z</time>
      </trkpt>
      <trkpt lat="49.16005" lon="6.10673">
        <ele>257.5</ele>
        <time>2021-07-28T15:33:12Z</time>
      </trkpt>
      <trkpt lat="49.16006" lon="6.1067">
        <ele>257.5</ele>
        <time>2021-07-28T15:33:13Z</time>
      </trkpt>
      <trkpt lat="49.16006" lon="6.10669">
        <ele>257.6</ele>
        <time>2021-07-28T15:33:14Z</time>
      </trkpt>
      <trkpt lat="49.16005" lon="6.10667">
        <ele>257.7</ele>
        <time>2021-07-28T15:33:16Z</time>
      </trkpt>
      <trkpt lat="49.16005" lon="6.10665">
        <ele>257.7</ele>
        <time>2021-07-28T15:33:17Z</time>
      </trkpt>
      <trkpt lat="49.16003" lon="6.10662">
        <ele>257.8</ele>
        <time>2021-07-28T15:33:18Z</time>
      </trkpt>
      <trkpt lat="49.15999" lon="6.10661">
        <ele>258</ele>
        <time>2021-07-28T15:33:20Z</time>
      </trkpt>
      <trkpt lat="49.15995" lon="6.1066">
        <ele>258.1</ele>
        <time>2021-07-28T15:33:21Z</time>
      </trkpt>
      <trkpt lat="49.15991" lon="6.10657">
        <ele>258.2</ele>
        <time>2021-07-28T15:33:23Z</time>
      </trkpt>
      <trkpt lat="49.15989" lon="6.10652">
        <ele>258.3</ele>
        <time>2021-07-28T15:33:24Z</time>
      </trkpt>
      <trkpt lat="49.15988" lon="6.10646">
        <ele>258.4</ele>
        <time>2021-07-28T15:33:26Z</time>
      </trkpt>
      <trkpt lat="49.15986" lon="6.10641">
        <ele>258.5</ele>
        <time>2021-07-28T15:33:27Z</time>
      </trkpt>
      <trkpt lat="49.15985" lon="6.10636">
        <ele>258.6</ele>
        <time>2021-07-28T15:33:28Z</time>
      </trkpt>
      <trkpt lat="49.15984" lon="6.1063">
        <ele>258.6</ele>
        <time>2021-07-28T15:33:29Z</time>
      </trkpt>
      <trkpt lat="49.15982" lon="6.10625">
        <ele>258.7</ele>
        <time>2021-07-28T15:33:31Z</time>
      </trkpt>
      <trkpt lat="49.15981" lon="6.1062">
        <ele>258.7</ele>
        <time>2021-07-28T15:33:56Z</time>
      </trkpt>
      <trkpt lat="49.1598" lon="6.10614">
        <ele>258.7</ele>
        <time>2021-07-28T15:33:57Z</time>
      </trkpt>
      <trkpt lat="49.1598" lon="6.10595">
        <ele>258.7</ele>
        <time>2021-07-28T15:33:59Z</time>
      </trkpt>
      <trkpt lat="49.15982" lon="6.10586">
        <ele>258.7</ele>
        <time>2021-07-28T15:34:00Z</time>
      </trkpt>
      <trkpt lat="49.15983" lon="6.10579">
        <ele>258.8</ele>
        <time>2021-07-28T15:34:01Z</time>
      </trkpt>
      <trkpt lat="49.15983" lon="6.10574">
        <ele>258.8</ele>
        <time>2021-07-28T15:34:02Z</time>
      </trkpt>
      <trkpt lat="49.15982" lon="6.1057">
        <ele>258.8</ele>
        <time>2021-07-28T15:34:03Z</time>
      </trkpt>
      <trkpt lat="49.15982" lon="6.10565">
        <ele>258.8</ele>
        <time>2021-07-28T15:34:04Z</time>
      </trkpt>
      <trkpt lat="49.15981" lon="6.1056">
        <ele>258.7</ele>
        <time>2021-07-28T15:34:06Z</time>
      </trkpt>
      <trkpt lat="49.15979" lon="6.10559">
        <ele>258.3</ele>
        <time>2021-07-28T15:34:07Z</time>
      </trkpt>
      <trkpt lat="49.15974" lon="6.10557">
        <ele>257.3</ele>
        <time>2021-07-28T15:34:09Z</time>
      </trkpt>
      <trkpt lat="49.15968" lon="6.10556">
        <ele>256.4</ele>
        <time>2021-07-28T15:34:10Z</time>
      </trkpt>
      <trkpt lat="49.15963" lon="6.10553">
        <ele>255.4</ele>
        <time>2021-07-28T15:34:11Z</time>
      </trkpt>
      <trkpt lat="49.15956" lon="6.1055">
        <ele>254.2</ele>
        <time>2021-07-28T15:34:13Z</time>
      </trkpt>
      <trkpt lat="49.15951" lon="6.10548">
        <ele>253.3</ele>
        <time>2021-07-28T15:34:14Z</time>
      </trkpt>
      <trkpt lat="49.15946" lon="6.10543">
        <ele>252.3</ele>
        <time>2021-07-28T15:34:16Z</time>
      </trkpt>
      <trkpt lat="49.15941" lon="6.1054">
        <ele>251.6</ele>
        <time>2021-07-28T15:34:17Z</time>
      </trkpt>
      <trkpt lat="49.15938" lon="6.1054">
        <ele>251.1</ele>
        <time>2021-07-28T15:34:18Z</time>
      </trkpt>
      <trkpt lat="49.15934" lon="6.10545">
        <ele>250.4</ele>
        <time>2021-07-28T15:34:20Z</time>
      </trkpt>
      <trkpt lat="49.15935" lon="6.10547">
        <ele>250.3</ele>
        <time>2021-07-28T15:34:21Z</time>
      </trkpt>
      <trkpt lat="49.15936" lon="6.10553">
        <ele>250.3</ele>
        <time>2021-07-28T15:34:23Z</time>
      </trkpt>
      <trkpt lat="49.15936" lon="6.10554">
        <ele>250.2</ele>
        <time>2021-07-28T15:34:25Z</time>
      </trkpt>
      <trkpt lat="49.15936" lon="6.10554">
        <ele>250.2</ele>
        <time>2021-07-28T15:34:26Z</time>
      </trkpt>
      <trkpt lat="49.15936" lon="6.10554">
        <ele>250.2</ele>
        <time>2021-07-28T15:34:27Z</time>
      </trkpt>
      <trkpt lat="49.15937" lon="6.10554">
        <ele>250.1</ele>
        <time>2021-07-28T15:34:28Z</time>
      </trkpt>
      <trkpt lat="49.159" lon="6.10606">
        <ele>246.5</ele>
        <time>2021-07-28T15:34:46Z</time>
      </trkpt>
      <trkpt lat="49.15879" lon="6.10619">
        <ele>244.9</ele>
        <time>2021-07-28T15:34:48Z</time>
      </trkpt>
      <trkpt lat="49.15864" lon="6.10629">
        <ele>244</ele>
        <time>2021-07-28T15:34:50Z</time>
      </trkpt>
      <trkpt lat="49.15858" lon="6.10635">
        <ele>243.6</ele>
        <time>2021-07-28T15:34:51Z</time>
      </trkpt>
      <trkpt lat="49.15845" lon="6.1065">
        <ele>242.7</ele>
        <time>2021-07-28T15:34:53Z</time>
      </trkpt>
      <trkpt lat="49.15838" lon="6.10657">
        <ele>242.3</ele>
        <time>2021-07-28T15:34:54Z</time>
      </trkpt>
      <trkpt lat="49.15824" lon="6.10675">
        <ele>241.2</ele>
        <time>2021-07-28T15:34:56Z</time>
      </trkpt>
      <trkpt lat="49.15816" lon="6.10698">
        <ele>240.3</ele>
        <time>2021-07-28T15:34:58Z</time>
      </trkpt>
      <trkpt lat="49.15813" lon="6.10709">
        <ele>239.9</ele>
        <time>2021-07-28T15:34:59Z</time>
      </trkpt>
      <trkpt lat="49.1581" lon="6.10719">
        <ele>239.5</ele>
        <time>2021-07-28T15:35:00Z</time>
      </trkpt>
      <trkpt lat="49.15801" lon="6.10738">
        <ele>238.7</ele>
        <time>2021-07-28T15:35:02Z</time>
      </trkpt>
      <trkpt lat="49.1579" lon="6.1076">
        <ele>237.6</ele>
        <time>2021-07-28T15:35:04Z</time>
      </trkpt>
      <trkpt lat="49.15785" lon="6.10772">
        <ele>237</ele>
        <time>2021-07-28T15:35:05Z</time>
      </trkpt>
      <trkpt lat="49.15776" lon="6.10794">
        <ele>235.7</ele>
        <time>2021-07-28T15:35:07Z</time>
      </trkpt>
      <trkpt lat="49.15771" lon="6.10805">
        <ele>234.9</ele>
        <time>2021-07-28T15:35:08Z</time>
      </trkpt>
      <trkpt lat="49.15763" lon="6.10827">
        <ele>233.1</ele>
        <time>2021-07-28T15:35:10Z</time>
      </trkpt>
      <trkpt lat="49.15753" lon="6.1085">
        <ele>231</ele>
        <time>2021-07-28T15:35:12Z</time>
      </trkpt>
      <trkpt lat="49.15743" lon="6.10874">
        <ele>228.6</ele>
        <time>2021-07-28T15:35:14Z</time>
      </trkpt>
      <trkpt lat="49.15737" lon="6.10886">
        <ele>227.3</ele>
        <time>2021-07-28T15:35:15Z</time>
      </trkpt>
      <trkpt lat="49.15722" lon="6.10911">
        <ele>224.5</ele>
        <time>2021-07-28T15:35:17Z</time>
      </trkpt>
      <trkpt lat="49.15705" lon="6.10936">
        <ele>221.8</ele>
        <time>2021-07-28T15:35:19Z</time>
      </trkpt>
      <trkpt lat="49.15696" lon="6.10948">
        <ele>220.4</ele>
        <time>2021-07-28T15:35:20Z</time>
      </trkpt>
      <trkpt lat="49.15687" lon="6.1096">
        <ele>219.2</ele>
        <time>2021-07-28T15:35:21Z</time>
      </trkpt>
      <trkpt lat="49.15669" lon="6.10983">
        <ele>217.1</ele>
        <time>2021-07-28T15:35:23Z</time>
      </trkpt>
      <trkpt lat="49.1566" lon="6.10995">
        <ele>216.3</ele>
        <time>2021-07-28T15:35:24Z</time>
      </trkpt>
      <trkpt lat="49.15646" lon="6.11024">
        <ele>214.9</ele>
        <time>2021-07-28T15:35:26Z</time>
      </trkpt>
      <trkpt lat="49.15637" lon="6.11053">
        <ele>213.8</ele>
        <time>2021-07-28T15:35:28Z</time>
      </trkpt>
      <trkpt lat="49.15629" lon="6.11081">
        <ele>212.9</ele>
        <time>2021-07-28T15:35:30Z</time>
      </trkpt>
      <trkpt lat="49.1562" lon="6.11107">
        <ele>212.1</ele>
        <time>2021-07-28T15:35:32Z</time>
      </trkpt>
      <trkpt lat="49.15612" lon="6.11134">
        <ele>211.7</ele>
        <time>2021-07-28T15:35:34Z</time>
      </trkpt>
      <trkpt lat="49.15608" lon="6.11147">
        <ele>211.2</ele>
        <time>2021-07-28T15:35:35Z</time>
      </trkpt>
      <trkpt lat="49.15605" lon="6.11159">
        <ele>210.8</ele>
        <time>2021-07-28T15:35:36Z</time>
      </trkpt>
      <trkpt lat="49.15599" lon="6.11184">
        <ele>209.8</ele>
        <time>2021-07-28T15:35:38Z</time>
      </trkpt>
      <trkpt lat="49.15595" lon="6.1121">
        <ele>209</ele>
        <time>2021-07-28T15:35:40Z</time>
      </trkpt>
      <trkpt lat="49.15589" lon="6.11239">
        <ele>208.2</ele>
        <time>2021-07-28T15:35:42Z</time>
      </trkpt>
      <trkpt lat="49.15583" lon="6.11268">
        <ele>207.6</ele>
        <time>2021-07-28T15:35:44Z</time>
      </trkpt>
      <trkpt lat="49.15577" lon="6.11298">
        <ele>207.1</ele>
        <time>2021-07-28T15:35:46Z</time>
      </trkpt>
      <trkpt lat="49.15574" lon="6.11312">
        <ele>207</ele>
        <time>2021-07-28T15:35:47Z</time>
      </trkpt>
      <trkpt lat="49.15571" lon="6.11326">
        <ele>206.8</ele>
        <time>2021-07-28T15:35:48Z</time>
      </trkpt>
      <trkpt lat="49.15569" lon="6.11341">
        <ele>206.7</ele>
        <time>2021-07-28T15:35:49Z</time>
      </trkpt>
      <trkpt lat="49.15567" lon="6.11354">
        <ele>206.4</ele>
        <time>2021-07-28T15:35:50Z</time>
      </trkpt>
      <trkpt lat="49.15562" lon="6.11381">
        <ele>205.8</ele>
        <time>2021-07-28T15:35:52Z</time>
      </trkpt>
      <trkpt lat="49.15557" lon="6.11407">
        <ele>205.4</ele>
        <time>2021-07-28T15:35:54Z</time>
      </trkpt>
      <trkpt lat="49.15548" lon="6.11433">
        <ele>204.9</ele>
        <time>2021-07-28T15:35:56Z</time>
      </trkpt>
      <trkpt lat="49.15543" lon="6.11457">
        <ele>204.5</ele>
        <time>2021-07-28T15:35:58Z</time>
      </trkpt>
      <trkpt lat="49.15542" lon="6.1147">
        <ele>204.4</ele>
        <time>2021-07-28T15:35:59Z</time>
      </trkpt>
      <trkpt lat="49.15537" lon="6.11495">
        <ele>204.2</ele>
        <time>2021-07-28T15:36:01Z</time>
      </trkpt>
      <trkpt lat="49.15535" lon="6.11507">
        <ele>204.1</ele>
        <time>2021-07-28T15:36:02Z</time>
      </trkpt>
      <trkpt lat="49.15535" lon="6.1152">
        <ele>204</ele>
        <time>2021-07-28T15:36:03Z</time>
      </trkpt>
      <trkpt lat="49.15533" lon="6.11543">
        <ele>203.8</ele>
        <time>2021-07-28T15:36:05Z</time>
      </trkpt>
      <trkpt lat="49.15528" lon="6.11567">
        <ele>203.5</ele>
        <time>2021-07-28T15:36:07Z</time>
      </trkpt>
      <trkpt lat="49.15525" lon="6.11578">
        <ele>203.3</ele>
        <time>2021-07-28T15:36:08Z</time>
      </trkpt>
      <trkpt lat="49.15519" lon="6.11599">
        <ele>203</ele>
        <time>2021-07-28T15:36:10Z</time>
      </trkpt>
      <trkpt lat="49.15515" lon="6.1161">
        <ele>202.8</ele>
        <time>2021-07-28T15:36:11Z</time>
      </trkpt>
      <trkpt lat="49.15511" lon="6.11621">
        <ele>202.7</ele>
        <time>2021-07-28T15:36:12Z</time>
      </trkpt>
      <trkpt lat="49.15503" lon="6.11644">
        <ele>202.4</ele>
        <time>2021-07-28T15:36:14Z</time>
      </trkpt>
      <trkpt lat="49.15497" lon="6.11666">
        <ele>202.1</ele>
        <time>2021-07-28T15:36:16Z</time>
      </trkpt>
      <trkpt lat="49.15491" lon="6.11678">
        <ele>201.9</ele>
        <time>2021-07-28T15:36:17Z</time>
      </trkpt>
      <trkpt lat="49.15487" lon="6.11689">
        <ele>201.8</ele>
        <time>2021-07-28T15:36:18Z</time>
      </trkpt>
      <trkpt lat="49.15478" lon="6.11713">
        <ele>201.4</ele>
        <time>2021-07-28T15:36:20Z</time>
      </trkpt>
      <trkpt lat="49.15471" lon="6.11734">
        <ele>201.2</ele>
        <time>2021-07-28T15:36:22Z</time>
      </trkpt>
      <trkpt lat="49.15468" lon="6.11744">
        <ele>201.2</ele>
        <time>2021-07-28T15:36:23Z</time>
      </trkpt>
      <trkpt lat="49.15465" lon="6.11754">
        <ele>201.3</ele>
        <time>2021-07-28T15:36:24Z</time>
      </trkpt>
      <trkpt lat="49.15459" lon="6.11774">
        <ele>200.7</ele>
        <time>2021-07-28T15:36:26Z</time>
      </trkpt>
      <trkpt lat="49.15455" lon="6.11794">
        <ele>200.4</ele>
        <time>2021-07-28T15:36:28Z</time>
      </trkpt>
      <trkpt lat="49.15453" lon="6.11804">
        <ele>200.2</ele>
        <time>2021-07-28T15:36:29Z</time>
      </trkpt>
      <trkpt lat="49.15452" lon="6.11814">
        <ele>200.1</ele>
        <time>2021-07-28T15:36:30Z</time>
      </trkpt>
      <trkpt lat="49.15449" lon="6.11832">
        <ele>199.8</ele>
        <time>2021-07-28T15:36:32Z</time>
      </trkpt>
      <trkpt lat="49.15444" lon="6.1185">
        <ele>199.5</ele>
        <time>2021-07-28T15:36:34Z</time>
      </trkpt>
      <trkpt lat="49.15438" lon="6.1187">
        <ele>199.1</ele>
        <time>2021-07-28T15:36:36Z</time>
      </trkpt>
      <trkpt lat="49.15435" lon="6.11881">
        <ele>199</ele>
        <time>2021-07-28T15:36:37Z</time>
      </trkpt>
      <trkpt lat="49.15432" lon="6.1189">
        <ele>198.8</ele>
        <time>2021-07-28T15:36:38Z</time>
      </trkpt>
      <trkpt lat="49.1543" lon="6.11899">
        <ele>198.7</ele>
        <time>2021-07-28T15:36:39Z</time>
      </trkpt>
      <trkpt lat="49.15425" lon="6.11915">
        <ele>198.4</ele>
        <time>2021-07-28T15:36:41Z</time>
      </trkpt>
      <trkpt lat="49.15421" lon="6.11924">
        <ele>198.3</ele>
        <time>2021-07-28T15:36:42Z</time>
      </trkpt>
      <trkpt lat="49.15409" lon="6.11941">
        <ele>198</ele>
        <time>2021-07-28T15:36:44Z</time>
      </trkpt>
      <trkpt lat="49.15398" lon="6.11958">
        <ele>197.7</ele>
        <time>2021-07-28T15:36:46Z</time>
      </trkpt>
      <trkpt lat="49.15394" lon="6.11966">
        <ele>197.6</ele>
        <time>2021-07-28T15:36:47Z</time>
      </trkpt>
      <trkpt lat="49.1539" lon="6.11975">
        <ele>197.6</ele>
        <time>2021-07-28T15:36:48Z</time>
      </trkpt>
      <trkpt lat="49.15383" lon="6.11992">
        <ele>197.4</ele>
        <time>2021-07-28T15:36:50Z</time>
      </trkpt>
      <trkpt lat="49.15377" lon="6.12008">
        <ele>197.3</ele>
        <time>2021-07-28T15:36:52Z</time>
      </trkpt>
      <trkpt lat="49.15372" lon="6.12025">
        <ele>197.2</ele>
        <time>2021-07-28T15:36:54Z</time>
      </trkpt>
      <trkpt lat="49.15372" lon="6.12033">
        <ele>197.1</ele>
        <time>2021-07-28T15:36:55Z</time>
      </trkpt>
      <trkpt lat="49.1537" lon="6.12049">
        <ele>197.1</ele>
        <time>2021-07-28T15:36:57Z</time>
      </trkpt>
      <trkpt lat="49.15365" lon="6.12065">
        <ele>197.1</ele>
        <time>2021-07-28T15:36:59Z</time>
      </trkpt>
      <trkpt lat="49.15358" lon="6.1208">
        <ele>197.1</ele>
        <time>2021-07-28T15:37:01Z</time>
      </trkpt>
      <trkpt lat="49.15354" lon="6.12088">
        <ele>197.1</ele>
        <time>2021-07-28T15:37:02Z</time>
      </trkpt>
      <trkpt lat="49.15345" lon="6.12103">
        <ele>197.1</ele>
        <time>2021-07-28T15:37:04Z</time>
      </trkpt>
      <trkpt lat="49.15341" lon="6.1211">
        <ele>197.1</ele>
        <time>2021-07-28T15:37:05Z</time>
      </trkpt>
      <trkpt lat="49.15336" lon="6.12118">
        <ele>197.2</ele>
        <time>2021-07-28T15:37:06Z</time>
      </trkpt>
      <trkpt lat="49.15327" lon="6.1213">
        <ele>197.3</ele>
        <time>2021-07-28T15:37:08Z</time>
      </trkpt>
      <trkpt lat="49.15318" lon="6.1214">
        <ele>197.5</ele>
        <time>2021-07-28T15:37:10Z</time>
      </trkpt>
      <trkpt lat="49.15313" lon="6.12145">
        <ele>197.6</ele>
        <time>2021-07-28T15:37:11Z</time>
      </trkpt>
      <trkpt lat="49.15309" lon="6.12149">
        <ele>197.7</ele>
        <time>2021-07-28T15:37:12Z</time>
      </trkpt>
      <trkpt lat="49.15301" lon="6.12156">
        <ele>198</ele>
        <time>2021-07-28T15:37:14Z</time>
      </trkpt>
      <trkpt lat="49.15293" lon="6.12163">
        <ele>198.2</ele>
        <time>2021-07-28T15:37:16Z</time>
      </trkpt>
      <trkpt lat="49.15285" lon="6.1217">
        <ele>198.5</ele>
        <time>2021-07-28T15:37:18Z</time>
      </trkpt>
      <trkpt lat="49.15278" lon="6.12177">
        <ele>198.8</ele>
        <time>2021-07-28T15:37:20Z</time>
      </trkpt>
      <trkpt lat="49.15271" lon="6.12181">
        <ele>199.1</ele>
        <time>2021-07-28T15:37:22Z</time>
      </trkpt>
      <trkpt lat="49.15268" lon="6.12183">
        <ele>199.2</ele>
        <time>2021-07-28T15:37:23Z</time>
      </trkpt>
      <trkpt lat="49.15266" lon="6.12185">
        <ele>199.4</ele>
        <time>2021-07-28T15:37:24Z</time>
      </trkpt>
      <trkpt lat="49.15263" lon="6.12188">
        <ele>199.5</ele>
        <time>2021-07-28T15:37:26Z</time>
      </trkpt>
      <trkpt lat="49.15258" lon="6.12191">
        <ele>199.8</ele>
        <time>2021-07-28T15:37:27Z</time>
      </trkpt>
      <trkpt lat="49.15256" lon="6.12192">
        <ele>199.9</ele>
        <time>2021-07-28T15:37:28Z</time>
      </trkpt>
      <trkpt lat="49.15253" lon="6.122">
        <ele>200.2</ele>
        <time>2021-07-28T15:37:30Z</time>
      </trkpt>
      <trkpt lat="49.1525" lon="6.12202">
        <ele>200.4</ele>
        <time>2021-07-28T15:37:31Z</time>
      </trkpt>
      <trkpt lat="49.15246" lon="6.12204">
        <ele>200.6</ele>
        <time>2021-07-28T15:37:32Z</time>
      </trkpt>
      <trkpt lat="49.15242" lon="6.12207">
        <ele>200.8</ele>
        <time>2021-07-28T15:37:33Z</time>
      </trkpt>
      <trkpt lat="49.1524" lon="6.12209">
        <ele>201</ele>
        <time>2021-07-28T15:37:34Z</time>
      </trkpt>
      <trkpt lat="49.15237" lon="6.12211">
        <ele>201.1</ele>
        <time>2021-07-28T15:37:35Z</time>
      </trkpt>
      <trkpt lat="49.15234" lon="6.12214">
        <ele>201.3</ele>
        <time>2021-07-28T15:37:37Z</time>
      </trkpt>
      <trkpt lat="49.15231" lon="6.12217">
        <ele>201.5</ele>
        <time>2021-07-28T15:37:38Z</time>
      </trkpt>
      <trkpt lat="49.15228" lon="6.1222">
        <ele>201.7</ele>
        <time>2021-07-28T15:37:40Z</time>
      </trkpt>
      <trkpt lat="49.15224" lon="6.12224">
        <ele>202</ele>
        <time>2021-07-28T15:37:42Z</time>
      </trkpt>
      <trkpt lat="49.15222" lon="6.12226">
        <ele>202.1</ele>
        <time>2021-07-28T15:37:43Z</time>
      </trkpt>
      <trkpt lat="49.15219" lon="6.12229">
        <ele>202.3</ele>
        <time>2021-07-28T15:37:44Z</time>
      </trkpt>
      <trkpt lat="49.15215" lon="6.12232">
        <ele>202.6</ele>
        <time>2021-07-28T15:37:46Z</time>
      </trkpt>
      <trkpt lat="49.15214" lon="6.12234">
        <ele>202.7</ele>
        <time>2021-07-28T15:37:47Z</time>
      </trkpt>
      <trkpt lat="49.15213" lon="6.12235">
        <ele>202.8</ele>
        <time>2021-07-28T15:37:48Z</time>
      </trkpt>
      <trkpt lat="49.15209" lon="6.12237">
        <ele>203</ele>
        <time>2021-07-28T15:37:49Z</time>
      </trkpt>
      <trkpt lat="49.15208" lon="6.12238">
        <ele>203</ele>
        <time>2021-07-28T15:37:50Z</time>
      </trkpt>
      <trkpt lat="49.15207" lon="6.12239">
        <ele>203.2</ele>
        <time>2021-07-28T15:37:51Z</time>
      </trkpt>
      <trkpt lat="49.15205" lon="6.1224">
        <ele>203.3</ele>
        <time>2021-07-28T15:37:53Z</time>
      </trkpt>
      <trkpt lat="49.15202" lon="6.12242">
        <ele>203.5</ele>
        <time>2021-07-28T15:37:54Z</time>
      </trkpt>
      <trkpt lat="49.15201" lon="6.12243">
        <ele>203.6</ele>
        <time>2021-07-28T15:37:55Z</time>
      </trkpt>
      <trkpt lat="49.15199" lon="6.12245">
        <ele>203.7</ele>
        <time>2021-07-28T15:37:56Z</time>
      </trkpt>
      <trkpt lat="49.15196" lon="6.12246">
        <ele>203.9</ele>
        <time>2021-07-28T15:37:58Z</time>
      </trkpt>
      <trkpt lat="49.15194" lon="6.12247">
        <ele>204</ele>
        <time>2021-07-28T15:37:59Z</time>
      </trkpt>
      <trkpt lat="49.1519" lon="6.1225">
        <ele>204.3</ele>
        <time>2021-07-28T15:38:01Z</time>
      </trkpt>
      <trkpt lat="49.15187" lon="6.12251">
        <ele>204.5</ele>
        <time>2021-07-28T15:38:03Z</time>
      </trkpt>
      <trkpt lat="49.15186" lon="6.12251">
        <ele>204.6</ele>
        <time>2021-07-28T15:38:04Z</time>
      </trkpt>
      <trkpt lat="49.15184" lon="6.12253">
        <ele>204.7</ele>
        <time>2021-07-28T15:38:05Z</time>
      </trkpt>
      <trkpt lat="49.15183" lon="6.12253">
        <ele>204.8</ele>
        <time>2021-07-28T15:38:06Z</time>
      </trkpt>
      <trkpt lat="49.15182" lon="6.12254">
        <ele>204.8</ele>
        <time>2021-07-28T15:38:07Z</time>
      </trkpt>
      <trkpt lat="49.1518" lon="6.12255">
        <ele>204.9</ele>
        <time>2021-07-28T15:38:08Z</time>
      </trkpt>
      <trkpt lat="49.15179" lon="6.12257">
        <ele>205.1</ele>
        <time>2021-07-28T15:38:10Z</time>
      </trkpt>
      <trkpt lat="49.15176" lon="6.12259">
        <ele>205.3</ele>
        <time>2021-07-28T15:38:11Z</time>
      </trkpt>
      <trkpt lat="49.15175" lon="6.12259">
        <ele>205.3</ele>
        <time>2021-07-28T15:38:12Z</time>
      </trkpt>
      <trkpt lat="49.15172" lon="6.12261">
        <ele>205.6</ele>
        <time>2021-07-28T15:38:13Z</time>
      </trkpt>
      <trkpt lat="49.1517" lon="6.12261">
        <ele>205.6</ele>
        <time>2021-07-28T15:38:14Z</time>
      </trkpt>
      <trkpt lat="49.15167" lon="6.12264">
        <ele>205.9</ele>
        <time>2021-07-28T15:38:16Z</time>
      </trkpt>
      <trkpt lat="49.15165" lon="6.12266">
        <ele>206.1</ele>
        <time>2021-07-28T15:38:17Z</time>
      </trkpt>
      <trkpt lat="49.15164" lon="6.12267">
        <ele>206.1</ele>
        <time>2021-07-28T15:38:19Z</time>
      </trkpt>
      <trkpt lat="49.15163" lon="6.12268">
        <ele>206.2</ele>
        <time>2021-07-28T15:38:20Z</time>
      </trkpt>
      <trkpt lat="49.15162" lon="6.1227">
        <ele>206.3</ele>
        <time>2021-07-28T15:38:21Z</time>
      </trkpt>
      <trkpt lat="49.15162" lon="6.12271">
        <ele>206.3</ele>
        <time>2021-07-28T15:38:22Z</time>
      </trkpt>
      <trkpt lat="49.15161" lon="6.12273">
        <ele>206.4</ele>
        <time>2021-07-28T15:38:23Z</time>
      </trkpt>
      <trkpt lat="49.15159" lon="6.12274">
        <ele>206.6</ele>
        <time>2021-07-28T15:38:24Z</time>
      </trkpt>
      <trkpt lat="49.15156" lon="6.12278">
        <ele>206.8</ele>
        <time>2021-07-28T15:38:26Z</time>
      </trkpt>
      <trkpt lat="49.15156" lon="6.1228">
        <ele>206.9</ele>
        <time>2021-07-28T15:38:27Z</time>
      </trkpt>
      <trkpt lat="49.15155" lon="6.12282">
        <ele>207</ele>
        <time>2021-07-28T15:38:28Z</time>
      </trkpt>
      <trkpt lat="49.15154" lon="6.12284">
        <ele>207.1</ele>
        <time>2021-07-28T15:38:29Z</time>
      </trkpt>
      <trkpt lat="49.15153" lon="6.12285">
        <ele>207.2</ele>
        <time>2021-07-28T15:38:30Z</time>
      </trkpt>
      <trkpt lat="49.15151" lon="6.12288">
        <ele>207.3</ele>
        <time>2021-07-28T15:38:32Z</time>
      </trkpt>
      <trkpt lat="49.15151" lon="6.12289">
        <ele>207.4</ele>
        <time>2021-07-28T15:38:33Z</time>
      </trkpt>
      <trkpt lat="49.1515" lon="6.12291">
        <ele>207.5</ele>
        <time>2021-07-28T15:38:34Z</time>
      </trkpt>
      <trkpt lat="49.15149" lon="6.12292">
        <ele>207.6</ele>
        <time>2021-07-28T15:38:35Z</time>
      </trkpt>
      <trkpt lat="49.15147" lon="6.12293">
        <ele>207.7</ele>
        <time>2021-07-28T15:38:37Z</time>
      </trkpt>
      <trkpt lat="49.15146" lon="6.12294">
        <ele>207.8</ele>
        <time>2021-07-28T15:38:38Z</time>
      </trkpt>
      <trkpt lat="49.15146" lon="6.12295">
        <ele>207.8</ele>
        <time>2021-07-28T15:38:40Z</time>
      </trkpt>
      <trkpt lat="49.15145" lon="6.12296">
        <ele>207.9</ele>
        <time>2021-07-28T15:38:41Z</time>
      </trkpt>
      <trkpt lat="49.15144" lon="6.12297">
        <ele>207.9</ele>
        <time>2021-07-28T15:38:42Z</time>
      </trkpt>
      <trkpt lat="49.15144" lon="6.12299">
        <ele>208</ele>
        <time>2021-07-28T15:38:44Z</time>
      </trkpt>
      <trkpt lat="49.15144" lon="6.123">
        <ele>208</ele>
        <time>2021-07-28T15:38:45Z</time>
      </trkpt>
      <trkpt lat="49.15143" lon="6.123">
        <ele>208.1</ele>
        <time>2021-07-28T15:38:46Z</time>
      </trkpt>
      <trkpt lat="49.15142" lon="6.123">
        <ele>208.1</ele>
        <time>2021-07-28T15:38:47Z</time>
      </trkpt>
      <trkpt lat="49.15141" lon="6.12301">
        <ele>208.2</ele>
        <time>2021-07-28T15:38:48Z</time>
      </trkpt>
      <trkpt lat="49.15139" lon="6.12302">
        <ele>208.3</ele>
        <time>2021-07-28T15:38:50Z</time>
      </trkpt>
      <trkpt lat="49.15139" lon="6.12301">
        <ele>208.3</ele>
        <time>2021-07-28T15:38:51Z</time>
      </trkpt>
      <trkpt lat="49.15138" lon="6.12301">
        <ele>208.4</ele>
        <time>2021-07-28T15:38:52Z</time>
      </trkpt>
      <trkpt lat="49.15136" lon="6.12301">
        <ele>208.5</ele>
        <time>2021-07-28T15:38:54Z</time>
      </trkpt>
      <trkpt lat="49.15136" lon="6.123">
        <ele>208.5</ele>
        <time>2021-07-28T15:38:56Z</time>
      </trkpt>
      <trkpt lat="49.15135" lon="6.12301">
        <ele>208.6</ele>
        <time>2021-07-28T15:38:58Z</time>
      </trkpt>
      <trkpt lat="49.15134" lon="6.12301">
        <ele>208.6</ele>
        <time>2021-07-28T15:38:59Z</time>
      </trkpt>
      <trkpt lat="49.15132" lon="6.12301">
        <ele>208.7</ele>
        <time>2021-07-28T15:39:01Z</time>
      </trkpt>
      <trkpt lat="49.1513" lon="6.12303">
        <ele>208.8</ele>
        <time>2021-07-28T15:39:02Z</time>
      </trkpt>
      <trkpt lat="49.15122" lon="6.12314">
        <ele>209.4</ele>
        <time>2021-07-28T15:39:08Z</time>
      </trkpt>
      <trkpt lat="49.15119" lon="6.12317">
        <ele>209.5</ele>
        <time>2021-07-28T15:39:09Z</time>
      </trkpt>
      <trkpt lat="49.15114" lon="6.12324">
        <ele>209.9</ele>
        <time>2021-07-28T15:39:11Z</time>
      </trkpt>
      <trkpt lat="49.15111" lon="6.12328">
        <ele>210.1</ele>
        <time>2021-07-28T15:39:12Z</time>
      </trkpt>
      <trkpt lat="49.15106" lon="6.12333">
        <ele>210.3</ele>
        <time>2021-07-28T15:39:14Z</time>
      </trkpt>
      <trkpt lat="49.15102" lon="6.12335">
        <ele>210.4</ele>
        <time>2021-07-28T15:39:16Z</time>
      </trkpt>
      <trkpt lat="49.15099" lon="6.12338">
        <ele>210.6</ele>
        <time>2021-07-28T15:39:17Z</time>
      </trkpt>
      <trkpt lat="49.15098" lon="6.12339">
        <ele>210.6</ele>
        <time>2021-07-28T15:39:18Z</time>
      </trkpt>
      <trkpt lat="49.15094" lon="6.12341">
        <ele>210.7</ele>
        <time>2021-07-28T15:39:20Z</time>
      </trkpt>
      <trkpt lat="49.15091" lon="6.12344">
        <ele>210.8</ele>
        <time>2021-07-28T15:39:22Z</time>
      </trkpt>
      <trkpt lat="49.1509" lon="6.12345">
        <ele>210.9</ele>
        <time>2021-07-28T15:39:23Z</time>
      </trkpt>
      <trkpt lat="49.15089" lon="6.12346">
        <ele>210.9</ele>
        <time>2021-07-28T15:39:24Z</time>
      </trkpt>
      <trkpt lat="49.15088" lon="6.12347">
        <ele>210.9</ele>
        <time>2021-07-28T15:39:25Z</time>
      </trkpt>
      <trkpt lat="49.15085" lon="6.1235">
        <ele>211</ele>
        <time>2021-07-28T15:39:26Z</time>
      </trkpt>
      <trkpt lat="49.15082" lon="6.12353">
        <ele>211</ele>
        <time>2021-07-28T15:39:28Z</time>
      </trkpt>
      <trkpt lat="49.15079" lon="6.12355">
        <ele>211</ele>
        <time>2021-07-28T15:39:29Z</time>
      </trkpt>
      <trkpt lat="49.15074" lon="6.12358">
        <ele>211.1</ele>
        <time>2021-07-28T15:39:31Z</time>
      </trkpt>
      <trkpt lat="49.15071" lon="6.1236">
        <ele>211.1</ele>
        <time>2021-07-28T15:39:32Z</time>
      </trkpt>
      <trkpt lat="49.15066" lon="6.12359">
        <ele>211.1</ele>
        <time>2021-07-28T15:39:33Z</time>
      </trkpt>
      <trkpt lat="49.1506" lon="6.12357">
        <ele>211.1</ele>
        <time>2021-07-28T15:39:35Z</time>
      </trkpt>
      <trkpt lat="49.15052" lon="6.12356">
        <ele>211.1</ele>
        <time>2021-07-28T15:39:36Z</time>
      </trkpt>
      <trkpt lat="49.15043" lon="6.12355">
        <ele>211.1</ele>
        <time>2021-07-28T15:39:38Z</time>
      </trkpt>
      <trkpt lat="49.15037" lon="6.12355">
        <ele>211</ele>
        <time>2021-07-28T15:39:39Z</time>
      </trkpt>
      <trkpt lat="49.15033" lon="6.12355">
        <ele>211</ele>
        <time>2021-07-28T15:39:40Z</time>
      </trkpt>
      <trkpt lat="49.15027" lon="6.12355">
        <ele>210.9</ele>
        <time>2021-07-28T15:39:42Z</time>
      </trkpt>
      <trkpt lat="49.15022" lon="6.12355">
        <ele>210.9</ele>
        <time>2021-07-28T15:39:43Z</time>
      </trkpt>
      <trkpt lat="49.15014" lon="6.12353">
        <ele>210.7</ele>
        <time>2021-07-28T15:39:45Z</time>
      </trkpt>
      <trkpt lat="49.1501" lon="6.12352">
        <ele>210.6</ele>
        <time>2021-07-28T15:39:46Z</time>
      </trkpt>
      <trkpt lat="49.15" lon="6.12353">
        <ele>210.4</ele>
        <time>2021-07-28T15:39:48Z</time>
      </trkpt>
      <trkpt lat="49.14991" lon="6.12353">
        <ele>210.1</ele>
        <time>2021-07-28T15:39:50Z</time>
      </trkpt>
      <trkpt lat="49.14987" lon="6.12353">
        <ele>210</ele>
        <time>2021-07-28T15:39:51Z</time>
      </trkpt>
      <trkpt lat="49.1498" lon="6.12356">
        <ele>209.7</ele>
        <time>2021-07-28T15:39:53Z</time>
      </trkpt>
      <trkpt lat="49.14975" lon="6.12357">
        <ele>209.6</ele>
        <time>2021-07-28T15:39:54Z</time>
      </trkpt>
      <trkpt lat="49.14966" lon="6.12359">
        <ele>209.3</ele>
        <time>2021-07-28T15:39:56Z</time>
      </trkpt>
      <trkpt lat="49.14962" lon="6.1236">
        <ele>209.1</ele>
        <time>2021-07-28T15:39:57Z</time>
      </trkpt>
      <trkpt lat="49.14953" lon="6.12362">
        <ele>208.8</ele>
        <time>2021-07-28T15:39:59Z</time>
      </trkpt>
      <trkpt lat="49.1495" lon="6.12364">
        <ele>208.7</ele>
        <time>2021-07-28T15:40:00Z</time>
      </trkpt>
      <trkpt lat="49.14946" lon="6.12365">
        <ele>208.5</ele>
        <time>2021-07-28T15:40:01Z</time>
      </trkpt>
      <trkpt lat="49.14936" lon="6.12366">
        <ele>208.2</ele>
        <time>2021-07-28T15:40:03Z</time>
      </trkpt>
      <trkpt lat="49.14927" lon="6.12364">
        <ele>207.8</ele>
        <time>2021-07-28T15:40:05Z</time>
      </trkpt>
      <trkpt lat="49.14921" lon="6.12364">
        <ele>207.5</ele>
        <time>2021-07-28T15:40:06Z</time>
      </trkpt>
      <trkpt lat="49.14907" lon="6.12362">
        <ele>206.9</ele>
        <time>2021-07-28T15:40:08Z</time>
      </trkpt>
      <trkpt lat="49.14893" lon="6.12363">
        <ele>206.3</ele>
        <time>2021-07-28T15:40:10Z</time>
      </trkpt>
      <trkpt lat="49.14887" lon="6.12364">
        <ele>206</ele>
        <time>2021-07-28T15:40:11Z</time>
      </trkpt>
      <trkpt lat="49.14875" lon="6.12368">
        <ele>205.6</ele>
        <time>2021-07-28T15:40:13Z</time>
      </trkpt>
      <trkpt lat="49.14864" lon="6.12375">
        <ele>205.2</ele>
        <time>2021-07-28T15:40:15Z</time>
      </trkpt>
      <trkpt lat="49.14858" lon="6.12379">
        <ele>205</ele>
        <time>2021-07-28T15:40:16Z</time>
      </trkpt>
      <trkpt lat="49.14846" lon="6.1239">
        <ele>204.7</ele>
        <time>2021-07-28T15:40:18Z</time>
      </trkpt>
      <trkpt lat="49.14841" lon="6.12395">
        <ele>204.6</ele>
        <time>2021-07-28T15:40:19Z</time>
      </trkpt>
      <trkpt lat="49.14835" lon="6.12401">
        <ele>204.6</ele>
        <time>2021-07-28T15:40:20Z</time>
      </trkpt>
      <trkpt lat="49.14825" lon="6.12414">
        <ele>204.5</ele>
        <time>2021-07-28T15:40:22Z</time>
      </trkpt>
      <trkpt lat="49.14817" lon="6.12424">
        <ele>204.5</ele>
        <time>2021-07-28T15:40:24Z</time>
      </trkpt>
      <trkpt lat="49.14811" lon="6.1243">
        <ele>204.5</ele>
        <time>2021-07-28T15:40:25Z</time>
      </trkpt>
      <trkpt lat="49.14806" lon="6.12436">
        <ele>204.2</ele>
        <time>2021-07-28T15:40:26Z</time>
      </trkpt>
      <trkpt lat="49.14799" lon="6.12446">
        <ele>204.4</ele>
        <time>2021-07-28T15:40:27Z</time>
      </trkpt>
      <trkpt lat="49.14788" lon="6.12461">
        <ele>204.8</ele>
        <time>2021-07-28T15:40:29Z</time>
      </trkpt>
      <trkpt lat="49.14786" lon="6.12468">
        <ele>204.9</ele>
        <time>2021-07-28T15:40:30Z</time>
      </trkpt>
      <trkpt lat="49.14785" lon="6.12477">
        <ele>205.1</ele>
        <time>2021-07-28T15:40:32Z</time>
      </trkpt>
      <trkpt lat="49.14788" lon="6.12479">
        <ele>205.2</ele>
        <time>2021-07-28T15:40:34Z</time>
      </trkpt>
      <trkpt lat="49.14785" lon="6.12486">
        <ele>205.4</ele>
        <time>2021-07-28T15:40:36Z</time>
      </trkpt>
      <trkpt lat="49.14783" lon="6.12493">
        <ele>205.6</ele>
        <time>2021-07-28T15:40:38Z</time>
      </trkpt>
      <trkpt lat="49.14782" lon="6.12501">
        <ele>205.8</ele>
        <time>2021-07-28T15:40:40Z</time>
      </trkpt>
      <trkpt lat="49.14782" lon="6.12504">
        <ele>205.9</ele>
        <time>2021-07-28T15:40:41Z</time>
      </trkpt>
      <trkpt lat="49.14781" lon="6.12504">
        <ele>205.9</ele>
        <time>2021-07-28T15:40:42Z</time>
      </trkpt>
      <trkpt lat="49.1478" lon="6.12505">
        <ele>206</ele>
        <time>2021-07-28T15:40:43Z</time>
      </trkpt>
      <trkpt lat="49.1478" lon="6.12505">
        <ele>206</ele>
        <time>2021-07-28T15:40:44Z</time>
      </trkpt>
      <trkpt lat="49.14779" lon="6.12506">
        <ele>206</ele>
        <time>2021-07-28T15:40:46Z</time>
      </trkpt>
      <trkpt lat="49.14778" lon="6.12506">
        <ele>206.1</ele>
        <time>2021-07-28T15:40:47Z</time>
      </trkpt>
      <trkpt lat="49.14775" lon="6.12508">
        <ele>206.3</ele>
        <time>2021-07-28T15:40:48Z</time>
      </trkpt>
      <trkpt lat="49.14772" lon="6.1251">
        <ele>206.5</ele>
        <time>2021-07-28T15:40:49Z</time>
      </trkpt>
      <trkpt lat="49.14769" lon="6.12511">
        <ele>206.6</ele>
        <time>2021-07-28T15:40:50Z</time>
      </trkpt>
      <trkpt lat="49.14766" lon="6.12515">
        <ele>206.8</ele>
        <time>2021-07-28T15:40:52Z</time>
      </trkpt>
      <trkpt lat="49.14763" lon="6.12519">
        <ele>207</ele>
        <time>2021-07-28T15:40:53Z</time>
      </trkpt>
      <trkpt lat="49.14761" lon="6.12523">
        <ele>207.2</ele>
        <time>2021-07-28T15:40:54Z</time>
      </trkpt>
      <trkpt lat="49.14757" lon="6.12528">
        <ele>207.5</ele>
        <time>2021-07-28T15:40:56Z</time>
      </trkpt>
      <trkpt lat="49.14754" lon="6.12532">
        <ele>207.7</ele>
        <time>2021-07-28T15:40:57Z</time>
      </trkpt>
      <trkpt lat="49.14754" lon="6.12534">
        <ele>207.7</ele>
        <time>2021-07-28T15:40:58Z</time>
      </trkpt>
      <trkpt lat="49.14753" lon="6.12537">
        <ele>207.9</ele>
        <time>2021-07-28T15:40:59Z</time>
      </trkpt>
      <trkpt lat="49.14752" lon="6.12538">
        <ele>207.9</ele>
        <time>2021-07-28T15:41:00Z</time>
      </trkpt>
      <trkpt lat="49.14753" lon="6.12539">
        <ele>208</ele>
        <time>2021-07-28T15:41:02Z</time>
      </trkpt>
      <trkpt lat="49.14754" lon="6.1254">
        <ele>208.1</ele>
        <time>2021-07-28T15:41:03Z</time>
      </trkpt>
      <trkpt lat="49.14754" lon="6.12542">
        <ele>208.2</ele>
        <time>2021-07-28T15:41:05Z</time>
      </trkpt>
      <trkpt lat="49.14755" lon="6.12543">
        <ele>208.2</ele>
        <time>2021-07-28T15:41:06Z</time>
      </trkpt>
      <trkpt lat="49.14754" lon="6.12545">
        <ele>208.3</ele>
        <time>2021-07-28T15:41:08Z</time>
      </trkpt>
      <trkpt lat="49.14753" lon="6.12545">
        <ele>208.4</ele>
        <time>2021-07-28T15:41:09Z</time>
      </trkpt>
      <trkpt lat="49.14752" lon="6.12546">
        <ele>208.4</ele>
        <time>2021-07-28T15:41:10Z</time>
      </trkpt>
      <trkpt lat="49.14747" lon="6.12544">
        <ele>208.7</ele>
        <time>2021-07-28T15:41:12Z</time>
      </trkpt>
      <trkpt lat="49.14738" lon="6.12543">
        <ele>209.4</ele>
        <time>2021-07-28T15:41:14Z</time>
      </trkpt>
      <trkpt lat="49.14735" lon="6.12544">
        <ele>209.5</ele>
        <time>2021-07-28T15:41:15Z</time>
      </trkpt>
      <trkpt lat="49.14737" lon="6.12545">
        <ele>209.7</ele>
        <time>2021-07-28T15:41:16Z</time>
      </trkpt>
      <trkpt lat="49.1474" lon="6.12549">
        <ele>209.9</ele>
        <time>2021-07-28T15:41:18Z</time>
      </trkpt>
      <trkpt lat="49.1474" lon="6.12552">
        <ele>210.1</ele>
        <time>2021-07-28T15:41:19Z</time>
      </trkpt>
      <trkpt lat="49.14739" lon="6.12554">
        <ele>210.2</ele>
        <time>2021-07-28T15:41:20Z</time>
      </trkpt>
      <trkpt lat="49.1474" lon="6.12558">
        <ele>210.3</ele>
        <time>2021-07-28T15:41:22Z</time>
      </trkpt>
      <trkpt lat="49.1474" lon="6.12559">
        <ele>210.4</ele>
        <time>2021-07-28T15:41:23Z</time>
      </trkpt>
      <trkpt lat="49.1474" lon="6.1256">
        <ele>210.4</ele>
        <time>2021-07-28T15:41:24Z</time>
      </trkpt>
      <trkpt lat="49.1474" lon="6.12561">
        <ele>210.5</ele>
        <time>2021-07-28T15:41:25Z</time>
      </trkpt>
      <trkpt lat="49.1474" lon="6.12562">
        <ele>210.5</ele>
        <time>2021-07-28T15:41:26Z</time>
      </trkpt>
      <trkpt lat="49.14739" lon="6.12563">
        <ele>210.6</ele>
        <time>2021-07-28T15:41:28Z</time>
      </trkpt>
      <trkpt lat="49.14738" lon="6.12564">
        <ele>210.7</ele>
        <time>2021-07-28T15:41:29Z</time>
      </trkpt>
      <trkpt lat="49.14591" lon="6.12591">
        <ele>216.9</ele>
        <time>2021-07-28T15:42:56Z</time>
      </trkpt>
      <trkpt lat="49.14588" lon="6.12592">
        <ele>217</ele>
        <time>2021-07-28T15:42:58Z</time>
      </trkpt>
      <trkpt lat="49.14584" lon="6.12596">
        <ele>217.1</ele>
        <time>2021-07-28T15:42:59Z</time>
      </trkpt>
      <trkpt lat="49.14582" lon="6.12598">
        <ele>217.2</ele>
        <time>2021-07-28T15:43:00Z</time>
      </trkpt>
      <trkpt lat="49.14577" lon="6.12603">
        <ele>217.4</ele>
        <time>2021-07-28T15:43:02Z</time>
      </trkpt>
      <trkpt lat="49.14576" lon="6.12604">
        <ele>217.4</ele>
        <time>2021-07-28T15:43:03Z</time>
      </trkpt>
      <trkpt lat="49.14572" lon="6.12608">
        <ele>217.6</ele>
        <time>2021-07-28T15:43:05Z</time>
      </trkpt>
      <trkpt lat="49.14571" lon="6.12611">
        <ele>217.6</ele>
        <time>2021-07-28T15:43:06Z</time>
      </trkpt>
      <trkpt lat="49.14568" lon="6.12616">
        <ele>217.7</ele>
        <time>2021-07-28T15:43:08Z</time>
      </trkpt>
      <trkpt lat="49.14568" lon="6.12621">
        <ele>217.8</ele>
        <time>2021-07-28T15:43:09Z</time>
      </trkpt>
      <trkpt lat="49.14568" lon="6.12623">
        <ele>217.9</ele>
        <time>2021-07-28T15:43:10Z</time>
      </trkpt>
      <trkpt lat="49.14572" lon="6.12626">
        <ele>218</ele>
        <time>2021-07-28T15:43:12Z</time>
      </trkpt>
      <trkpt lat="49.14571" lon="6.12629">
        <ele>218</ele>
        <time>2021-07-28T15:43:13Z</time>
      </trkpt>
      <trkpt lat="49.14571" lon="6.12631">
        <ele>218</ele>
        <time>2021-07-28T15:43:15Z</time>
      </trkpt>
      <trkpt lat="49.14576" lon="6.12628">
        <ele>218.2</ele>
        <time>2021-07-28T15:43:17Z</time>
      </trkpt>
      <trkpt lat="49.14576" lon="6.12628">
        <ele>218.2</ele>
        <time>2021-07-28T15:43:18Z</time>
      </trkpt>
      <trkpt lat="49.14577" lon="6.12628">
        <ele>218.2</ele>
        <time>2021-07-28T15:43:19Z</time>
      </trkpt>
      <trkpt lat="49.14577" lon="6.12628">
        <ele>218.2</ele>
        <time>2021-07-28T15:43:20Z</time>
      </trkpt>
      <trkpt lat="49.14577" lon="6.12628">
        <ele>218.2</ele>
        <time>2021-07-28T15:43:22Z</time>
      </trkpt>
      <trkpt lat="49.14576" lon="6.12629">
        <ele>218.2</ele>
        <time>2021-07-28T15:43:23Z</time>
      </trkpt>
      <trkpt lat="49.14555" lon="6.12651">
        <ele>218.8</ele>
        <time>2021-07-28T15:43:35Z</time>
      </trkpt>
      <trkpt lat="49.14552" lon="6.12654">
        <ele>218.9</ele>
        <time>2021-07-28T15:43:36Z</time>
      </trkpt>
      <trkpt lat="49.1455" lon="6.12657">
        <ele>219</ele>
        <time>2021-07-28T15:43:37Z</time>
      </trkpt>
      <trkpt lat="49.1455" lon="6.12659">
        <ele>219</ele>
        <time>2021-07-28T15:43:38Z</time>
      </trkpt>
      <trkpt lat="49.14547" lon="6.12664">
        <ele>219.1</ele>
        <time>2021-07-28T15:43:40Z</time>
      </trkpt>
      <trkpt lat="49.14544" lon="6.12668">
        <ele>219.2</ele>
        <time>2021-07-28T15:43:41Z</time>
      </trkpt>
      <trkpt lat="49.14543" lon="6.12667">
        <ele>219.2</ele>
        <time>2021-07-28T15:43:43Z</time>
      </trkpt>
      <trkpt lat="49.14543" lon="6.12667">
        <ele>219.2</ele>
        <time>2021-07-28T15:43:44Z</time>
      </trkpt>
      <trkpt lat="49.14542" lon="6.12667">
        <ele>219.2</ele>
        <time>2021-07-28T15:43:46Z</time>
      </trkpt>
      <trkpt lat="49.14541" lon="6.12667">
        <ele>219.2</ele>
        <time>2021-07-28T15:43:47Z</time>
      </trkpt>
      <trkpt lat="49.1454" lon="6.12667">
        <ele>219.3</ele>
        <time>2021-07-28T15:43:48Z</time>
      </trkpt>
      <trkpt lat="49.14538" lon="6.12668">
        <ele>219.3</ele>
        <time>2021-07-28T15:43:50Z</time>
      </trkpt>
      <trkpt lat="49.14541" lon="6.12654">
        <ele>219.5</ele>
        <time>2021-07-28T15:44:15Z</time>
      </trkpt>
      <trkpt lat="49.14542" lon="6.1264">
        <ele>219.7</ele>
        <time>2021-07-28T15:44:17Z</time>
      </trkpt>
      <trkpt lat="49.14543" lon="6.12635">
        <ele>219.8</ele>
        <time>2021-07-28T15:44:18Z</time>
      </trkpt>
      <trkpt lat="49.14545" lon="6.12626">
        <ele>220</ele>
        <time>2021-07-28T15:44:20Z</time>
      </trkpt>
      <trkpt lat="49.14545" lon="6.12626">
        <ele>220</ele>
        <time>2021-07-28T15:44:21Z</time>
      </trkpt>
      <trkpt lat="49.14545" lon="6.12627">
        <ele>220</ele>
        <time>2021-07-28T15:44:23Z</time>
      </trkpt>
      <trkpt lat="49.14544" lon="6.12627">
        <ele>220</ele>
        <time>2021-07-28T15:44:24Z</time>
      </trkpt>
      <trkpt lat="49.14544" lon="6.12628">
        <ele>220</ele>
        <time>2021-07-28T15:44:26Z</time>
      </trkpt>
      <trkpt lat="49.14544" lon="6.12629">
        <ele>220.1</ele>
        <time>2021-07-28T15:44:28Z</time>
      </trkpt>
      <trkpt lat="49.14544" lon="6.1263">
        <ele>220.1</ele>
        <time>2021-07-28T15:44:30Z</time>
      </trkpt>
      <trkpt lat="49.14543" lon="6.12631">
        <ele>220.1</ele>
        <time>2021-07-28T15:44:31Z</time>
      </trkpt>
      <trkpt lat="49.14543" lon="6.12632">
        <ele>220.1</ele>
        <time>2021-07-28T15:44:32Z</time>
      </trkpt>
      <trkpt lat="49.14542" lon="6.12636">
        <ele>220.2</ele>
        <time>2021-07-28T15:44:34Z</time>
      </trkpt>
      <trkpt lat="49.14542" lon="6.12638">
        <ele>220.3</ele>
        <time>2021-07-28T15:44:35Z</time>
      </trkpt>
      <trkpt lat="49.14541" lon="6.12639">
        <ele>220.3</ele>
        <time>2021-07-28T15:44:36Z</time>
      </trkpt>
      <trkpt lat="49.14481" lon="6.12694">
        <ele>224.4</ele>
        <time>2021-07-28T15:47:49Z</time>
      </trkpt>
      <trkpt lat="49.14479" lon="6.12697">
        <ele>224.5</ele>
        <time>2021-07-28T15:47:50Z</time>
      </trkpt>
      <trkpt lat="49.14479" lon="6.127">
        <ele>224.6</ele>
        <time>2021-07-28T15:47:51Z</time>
      </trkpt>
      <trkpt lat="49.14478" lon="6.12705">
        <ele>224.7</ele>
        <time>2021-07-28T15:47:52Z</time>
      </trkpt>
      <trkpt lat="49.14477" lon="6.12711">
        <ele>224.8</ele>
        <time>2021-07-28T15:47:53Z</time>
      </trkpt>
      <trkpt lat="49.14477" lon="6.12721">
        <ele>224.8</ele>
        <time>2021-07-28T15:47:55Z</time>
      </trkpt>
      <trkpt lat="49.14474" lon="6.12732">
        <ele>224.8</ele>
        <time>2021-07-28T15:47:57Z</time>
      </trkpt>
      <trkpt lat="49.14468" lon="6.1274">
        <ele>224.7</ele>
        <time>2021-07-28T15:47:59Z</time>
      </trkpt>
      <trkpt lat="49.14464" lon="6.12745">
        <ele>224.6</ele>
        <time>2021-07-28T15:48:00Z</time>
      </trkpt>
      <trkpt lat="49.1446" lon="6.12749">
        <ele>224.5</ele>
        <time>2021-07-28T15:48:01Z</time>
      </trkpt>
      <trkpt lat="49.14454" lon="6.12757">
        <ele>224.3</ele>
        <time>2021-07-28T15:48:02Z</time>
      </trkpt>
      <trkpt lat="49.14446" lon="6.12765">
        <ele>224</ele>
        <time>2021-07-28T15:48:04Z</time>
      </trkpt>
      <trkpt lat="49.14442" lon="6.12769">
        <ele>223.9</ele>
        <time>2021-07-28T15:48:05Z</time>
      </trkpt>
      <trkpt lat="49.14439" lon="6.12773">
        <ele>223.8</ele>
        <time>2021-07-28T15:48:06Z</time>
      </trkpt>
      <trkpt lat="49.14431" lon="6.12783">
        <ele>223.6</ele>
        <time>2021-07-28T15:48:08Z</time>
      </trkpt>
      <trkpt lat="49.14422" lon="6.12793">
        <ele>223.2</ele>
        <time>2021-07-28T15:48:10Z</time>
      </trkpt>
      <trkpt lat="49.14417" lon="6.12797">
        <ele>223.1</ele>
        <time>2021-07-28T15:48:11Z</time>
      </trkpt>
      <trkpt lat="49.14412" lon="6.12802">
        <ele>222.9</ele>
        <time>2021-07-28T15:48:12Z</time>
      </trkpt>
      <trkpt lat="49.14408" lon="6.12807">
        <ele>222.8</ele>
        <time>2021-07-28T15:48:13Z</time>
      </trkpt>
      <trkpt lat="49.14398" lon="6.12816">
        <ele>222.6</ele>
        <time>2021-07-28T15:48:15Z</time>
      </trkpt>
      <trkpt lat="49.14389" lon="6.12827">
        <ele>222.4</ele>
        <time>2021-07-28T15:48:17Z</time>
      </trkpt>
      <trkpt lat="49.14385" lon="6.12834">
        <ele>222.4</ele>
        <time>2021-07-28T15:48:18Z</time>
      </trkpt>
      <trkpt lat="49.14378" lon="6.12848">
        <ele>222.3</ele>
        <time>2021-07-28T15:48:20Z</time>
      </trkpt>
      <trkpt lat="49.14372" lon="6.12862">
        <ele>222.2</ele>
        <time>2021-07-28T15:48:22Z</time>
      </trkpt>
      <trkpt lat="49.1437" lon="6.12869">
        <ele>222.2</ele>
        <time>2021-07-28T15:48:23Z</time>
      </trkpt>
      <trkpt lat="49.14364" lon="6.12881">
        <ele>222.3</ele>
        <time>2021-07-28T15:48:25Z</time>
      </trkpt>
      <trkpt lat="49.14361" lon="6.12887">
        <ele>222.3</ele>
        <time>2021-07-28T15:48:26Z</time>
      </trkpt>
      <trkpt lat="49.14356" lon="6.12903">
        <ele>222.3</ele>
        <time>2021-07-28T15:48:28Z</time>
      </trkpt>
      <trkpt lat="49.14354" lon="6.1291">
        <ele>222.4</ele>
        <time>2021-07-28T15:48:29Z</time>
      </trkpt>
      <trkpt lat="49.14351" lon="6.12918">
        <ele>222.4</ele>
        <time>2021-07-28T15:48:30Z</time>
      </trkpt>
      <trkpt lat="49.14346" lon="6.12932">
        <ele>222.4</ele>
        <time>2021-07-28T15:48:32Z</time>
      </trkpt>
      <trkpt lat="49.1434" lon="6.12947">
        <ele>222.5</ele>
        <time>2021-07-28T15:48:34Z</time>
      </trkpt>
      <trkpt lat="49.14337" lon="6.12954">
        <ele>222.5</ele>
        <time>2021-07-28T15:48:35Z</time>
      </trkpt>
      <trkpt lat="49.14335" lon="6.1296">
        <ele>222.6</ele>
        <time>2021-07-28T15:48:36Z</time>
      </trkpt>
      <trkpt lat="49.14331" lon="6.12973">
        <ele>222.7</ele>
        <time>2021-07-28T15:48:38Z</time>
      </trkpt>
      <trkpt lat="49.14327" lon="6.12983">
        <ele>222.8</ele>
        <time>2021-07-28T15:48:40Z</time>
      </trkpt>
      <trkpt lat="49.14322" lon="6.12998">
        <ele>222.9</ele>
        <time>2021-07-28T15:48:42Z</time>
      </trkpt>
      <trkpt lat="49.1432" lon="6.13005">
        <ele>222.9</ele>
        <time>2021-07-28T15:48:43Z</time>
      </trkpt>
      <trkpt lat="49.14318" lon="6.1301">
        <ele>223</ele>
        <time>2021-07-28T15:48:44Z</time>
      </trkpt>
      <trkpt lat="49.14314" lon="6.1302">
        <ele>223.1</ele>
        <time>2021-07-28T15:48:46Z</time>
      </trkpt>
      <trkpt lat="49.14317" lon="6.13028">
        <ele>223.2</ele>
        <time>2021-07-28T15:48:48Z</time>
      </trkpt>
      <trkpt lat="49.14314" lon="6.13032">
        <ele>223.2</ele>
        <time>2021-07-28T15:48:49Z</time>
      </trkpt>
      <trkpt lat="49.1431" lon="6.13037">
        <ele>223.3</ele>
        <time>2021-07-28T15:48:50Z</time>
      </trkpt>
      <trkpt lat="49.14303" lon="6.13046">
        <ele>223.4</ele>
        <time>2021-07-28T15:48:52Z</time>
      </trkpt>
      <trkpt lat="49.14293" lon="6.13053">
        <ele>223.4</ele>
        <time>2021-07-28T15:48:54Z</time>
      </trkpt>
      <trkpt lat="49.14285" lon="6.1306">
        <ele>223.3</ele>
        <time>2021-07-28T15:48:56Z</time>
      </trkpt>
      <trkpt lat="49.14281" lon="6.13064">
        <ele>223.2</ele>
        <time>2021-07-28T15:48:57Z</time>
      </trkpt>
      <trkpt lat="49.14277" lon="6.13069">
        <ele>223.1</ele>
        <time>2021-07-28T15:48:59Z</time>
      </trkpt>
      <trkpt lat="49.14273" lon="6.13072">
        <ele>223</ele>
        <time>2021-07-28T15:49:00Z</time>
      </trkpt>
      <trkpt lat="49.14266" lon="6.13083">
        <ele>222.6</ele>
        <time>2021-07-28T15:49:02Z</time>
      </trkpt>
      <trkpt lat="49.14255" lon="6.13098">
        <ele>222</ele>
        <time>2021-07-28T15:49:04Z</time>
      </trkpt>
      <trkpt lat="49.14246" lon="6.13107">
        <ele>221.5</ele>
        <time>2021-07-28T15:49:06Z</time>
      </trkpt>
      <trkpt lat="49.14234" lon="6.13113">
        <ele>220.8</ele>
        <time>2021-07-28T15:49:08Z</time>
      </trkpt>
      <trkpt lat="49.14219" lon="6.13126">
        <ele>219.9</ele>
        <time>2021-07-28T15:49:10Z</time>
      </trkpt>
      <trkpt lat="49.14205" lon="6.1314">
        <ele>219</ele>
        <time>2021-07-28T15:49:12Z</time>
      </trkpt>
      <trkpt lat="49.14195" lon="6.1315">
        <ele>218.3</ele>
        <time>2021-07-28T15:49:14Z</time>
      </trkpt>
      <trkpt lat="49.14183" lon="6.13163">
        <ele>217.4</ele>
        <time>2021-07-28T15:49:16Z</time>
      </trkpt>
      <trkpt lat="49.14178" lon="6.13172">
        <ele>216.9</ele>
        <time>2021-07-28T15:49:17Z</time>
      </trkpt>
      <trkpt lat="49.1417" lon="6.13199">
        <ele>216</ele>
        <time>2021-07-28T15:49:19Z</time>
      </trkpt>
      <trkpt lat="49.14167" lon="6.13212">
        <ele>215.7</ele>
        <time>2021-07-28T15:49:20Z</time>
      </trkpt>
      <trkpt lat="49.14158" lon="6.13232">
        <ele>214.8</ele>
        <time>2021-07-28T15:49:22Z</time>
      </trkpt>
      <trkpt lat="49.1415" lon="6.13252">
        <ele>213.9</ele>
        <time>2021-07-28T15:49:24Z</time>
      </trkpt>
      <trkpt lat="49.14143" lon="6.13273">
        <ele>212.9</ele>
        <time>2021-07-28T15:49:26Z</time>
      </trkpt>
      <trkpt lat="49.14137" lon="6.13295">
        <ele>211.9</ele>
        <time>2021-07-28T15:49:28Z</time>
      </trkpt>
      <trkpt lat="49.14133" lon="6.13305">
        <ele>211.3</ele>
        <time>2021-07-28T15:49:29Z</time>
      </trkpt>
      <trkpt lat="49.14129" lon="6.13315">
        <ele>210.6</ele>
        <time>2021-07-28T15:49:30Z</time>
      </trkpt>
      <trkpt lat="49.14116" lon="6.13335">
        <ele>209</ele>
        <time>2021-07-28T15:49:32Z</time>
      </trkpt>
      <trkpt lat="49.14102" lon="6.13355">
        <ele>207.5</ele>
        <time>2021-07-28T15:49:34Z</time>
      </trkpt>
      <trkpt lat="49.1409" lon="6.13376">
        <ele>206.1</ele>
        <time>2021-07-28T15:49:36Z</time>
      </trkpt>
      <trkpt lat="49.14084" lon="6.13387">
        <ele>205.5</ele>
        <time>2021-07-28T15:49:37Z</time>
      </trkpt>
      <trkpt lat="49.14079" lon="6.13399">
        <ele>205</ele>
        <time>2021-07-28T15:49:38Z</time>
      </trkpt>
      <trkpt lat="49.14068" lon="6.1342">
        <ele>204.1</ele>
        <time>2021-07-28T15:49:40Z</time>
      </trkpt>
      <trkpt lat="49.14063" lon="6.13431">
        <ele>203.7</ele>
        <time>2021-07-28T15:49:41Z</time>
      </trkpt>
      <trkpt lat="49.14054" lon="6.13453">
        <ele>203.1</ele>
        <time>2021-07-28T15:49:43Z</time>
      </trkpt>
      <trkpt lat="49.1405" lon="6.13463">
        <ele>202.8</ele>
        <time>2021-07-28T15:49:44Z</time>
      </trkpt>
      <trkpt lat="49.1404" lon="6.13484">
        <ele>203.5</ele>
        <time>2021-07-28T15:49:46Z</time>
      </trkpt>
      <trkpt lat="49.14036" lon="6.13494">
        <ele>203.3</ele>
        <time>2021-07-28T15:49:47Z</time>
      </trkpt>
      <trkpt lat="49.14033" lon="6.13505">
        <ele>202.8</ele>
        <time>2021-07-28T15:49:48Z</time>
      </trkpt>
      <trkpt lat="49.14026" lon="6.13526">
        <ele>202.4</ele>
        <time>2021-07-28T15:49:50Z</time>
      </trkpt>
      <trkpt lat="49.14021" lon="6.13547">
        <ele>202</ele>
        <time>2021-07-28T15:49:52Z</time>
      </trkpt>
      <trkpt lat="49.14016" lon="6.13568">
        <ele>201.8</ele>
        <time>2021-07-28T15:49:54Z</time>
      </trkpt>
      <trkpt lat="49.14011" lon="6.13586">
        <ele>201.7</ele>
        <time>2021-07-28T15:49:56Z</time>
      </trkpt>
      <trkpt lat="49.14006" lon="6.13604">
        <ele>201.6</ele>
        <time>2021-07-28T15:49:58Z</time>
      </trkpt>
      <trkpt lat="49.14003" lon="6.13613">
        <ele>201.7</ele>
        <time>2021-07-28T15:49:59Z</time>
      </trkpt>
      <trkpt lat="49.14" lon="6.13621">
        <ele>201.7</ele>
        <time>2021-07-28T15:50:00Z</time>
      </trkpt>
      <trkpt lat="49.13995" lon="6.13637">
        <ele>201.9</ele>
        <time>2021-07-28T15:50:02Z</time>
      </trkpt>
      <trkpt lat="49.13991" lon="6.13655">
        <ele>202.2</ele>
        <time>2021-07-28T15:50:04Z</time>
      </trkpt>
      <trkpt lat="49.13988" lon="6.1367">
        <ele>202.5</ele>
        <time>2021-07-28T15:50:06Z</time>
      </trkpt>
      <trkpt lat="49.13985" lon="6.13683">
        <ele>202.7</ele>
        <time>2021-07-28T15:50:08Z</time>
      </trkpt>
      <trkpt lat="49.13983" lon="6.13696">
        <ele>202.8</ele>
        <time>2021-07-28T15:50:10Z</time>
      </trkpt>
      <trkpt lat="49.13981" lon="6.13701">
        <ele>202.9</ele>
        <time>2021-07-28T15:50:11Z</time>
      </trkpt>
      <trkpt lat="49.13977" lon="6.1371">
        <ele>203</ele>
        <time>2021-07-28T15:50:13Z</time>
      </trkpt>
      <trkpt lat="49.13975" lon="6.13715">
        <ele>203.1</ele>
        <time>2021-07-28T15:50:14Z</time>
      </trkpt>
      <trkpt lat="49.13971" lon="6.13726">
        <ele>203.4</ele>
        <time>2021-07-28T15:50:16Z</time>
      </trkpt>
      <trkpt lat="49.13968" lon="6.13732">
        <ele>203.5</ele>
        <time>2021-07-28T15:50:17Z</time>
      </trkpt>
      <trkpt lat="49.13967" lon="6.13737">
        <ele>203.6</ele>
        <time>2021-07-28T15:50:18Z</time>
      </trkpt>
      <trkpt lat="49.13966" lon="6.13746">
        <ele>203.8</ele>
        <time>2021-07-28T15:50:20Z</time>
      </trkpt>
      <trkpt lat="49.13965" lon="6.13753">
        <ele>204</ele>
        <time>2021-07-28T15:50:22Z</time>
      </trkpt>
      <trkpt lat="49.13964" lon="6.13758">
        <ele>204.2</ele>
        <time>2021-07-28T15:50:23Z</time>
      </trkpt>
      <trkpt lat="49.13964" lon="6.1376">
        <ele>204.2</ele>
        <time>2021-07-28T15:50:24Z</time>
      </trkpt>
      <trkpt lat="49.13961" lon="6.13765">
        <ele>204.4</ele>
        <time>2021-07-28T15:50:26Z</time>
      </trkpt>
      <trkpt lat="49.13957" lon="6.1377">
        <ele>204.6</ele>
        <time>2021-07-28T15:50:28Z</time>
      </trkpt>
      <trkpt lat="49.13956" lon="6.13772">
        <ele>204.7</ele>
        <time>2021-07-28T15:50:29Z</time>
      </trkpt>
      <trkpt lat="49.13955" lon="6.13778">
        <ele>204.9</ele>
        <time>2021-07-28T15:50:31Z</time>
      </trkpt>
      <trkpt lat="49.13954" lon="6.1378">
        <ele>205</ele>
        <time>2021-07-28T15:50:32Z</time>
      </trkpt>
      <trkpt lat="49.13955" lon="6.13784">
        <ele>205.1</ele>
        <time>2021-07-28T15:50:34Z</time>
      </trkpt>
      <trkpt lat="49.13954" lon="6.13786">
        <ele>205.2</ele>
        <time>2021-07-28T15:50:35Z</time>
      </trkpt>
      <trkpt lat="49.13953" lon="6.13791">
        <ele>205.4</ele>
        <time>2021-07-28T15:50:37Z</time>
      </trkpt>
      <trkpt lat="49.13952" lon="6.13794">
        <ele>205.5</ele>
        <time>2021-07-28T15:50:38Z</time>
      </trkpt>
      <trkpt lat="49.13951" lon="6.13798">
        <ele>205.6</ele>
        <time>2021-07-28T15:50:40Z</time>
      </trkpt>
      <trkpt lat="49.1395" lon="6.13803">
        <ele>205.8</ele>
        <time>2021-07-28T15:50:41Z</time>
      </trkpt>
      <trkpt lat="49.1395" lon="6.13807">
        <ele>205.9</ele>
        <time>2021-07-28T15:50:42Z</time>
      </trkpt>
      <trkpt lat="49.1395" lon="6.13813">
        <ele>206.1</ele>
        <time>2021-07-28T15:50:44Z</time>
      </trkpt>
      <trkpt lat="49.1395" lon="6.13818">
        <ele>206.2</ele>
        <time>2021-07-28T15:50:45Z</time>
      </trkpt>
      <trkpt lat="49.13949" lon="6.13823">
        <ele>206.4</ele>
        <time>2021-07-28T15:50:46Z</time>
      </trkpt>
      <trkpt lat="49.13946" lon="6.13827">
        <ele>206.5</ele>
        <time>2021-07-28T15:50:47Z</time>
      </trkpt>
      <trkpt lat="49.13943" lon="6.1383">
        <ele>206.7</ele>
        <time>2021-07-28T15:50:49Z</time>
      </trkpt>
      <trkpt lat="49.13941" lon="6.13833">
        <ele>206.8</ele>
        <time>2021-07-28T15:50:50Z</time>
      </trkpt>
      <trkpt lat="49.13939" lon="6.13835">
        <ele>206.8</ele>
        <time>2021-07-28T15:50:51Z</time>
      </trkpt>
      <trkpt lat="49.13938" lon="6.13836">
        <ele>206.9</ele>
        <time>2021-07-28T15:50:53Z</time>
      </trkpt>
      <trkpt lat="49.13939" lon="6.13835">
        <ele>206.9</ele>
        <time>2021-07-28T15:50:54Z</time>
      </trkpt>
      <trkpt lat="49.13941" lon="6.13841">
        <ele>207</ele>
        <time>2021-07-28T15:50:56Z</time>
      </trkpt>
      <trkpt lat="49.1394" lon="6.13846">
        <ele>207.1</ele>
        <time>2021-07-28T15:50:58Z</time>
      </trkpt>
      <trkpt lat="49.13938" lon="6.13852">
        <ele>207.2</ele>
        <time>2021-07-28T15:50:59Z</time>
      </trkpt>
      <trkpt lat="49.13934" lon="6.13858">
        <ele>207.4</ele>
        <time>2021-07-28T15:51:01Z</time>
      </trkpt>
      <trkpt lat="49.13931" lon="6.13861">
        <ele>207.4</ele>
        <time>2021-07-28T15:51:02Z</time>
      </trkpt>
      <trkpt lat="49.13925" lon="6.13867">
        <ele>207.5</ele>
        <time>2021-07-28T15:51:04Z</time>
      </trkpt>
      <trkpt lat="49.13923" lon="6.13871">
        <ele>207.5</ele>
        <time>2021-07-28T15:51:05Z</time>
      </trkpt>
      <trkpt lat="49.13919" lon="6.13877">
        <ele>207.6</ele>
        <time>2021-07-28T15:51:07Z</time>
      </trkpt>
      <trkpt lat="49.13917" lon="6.13882">
        <ele>207.6</ele>
        <time>2021-07-28T15:51:08Z</time>
      </trkpt>
      <trkpt lat="49.13914" lon="6.13886">
        <ele>207.6</ele>
        <time>2021-07-28T15:51:09Z</time>
      </trkpt>
      <trkpt lat="49.13909" lon="6.13892">
        <ele>207.5</ele>
        <time>2021-07-28T15:51:11Z</time>
      </trkpt>
      <trkpt lat="49.13906" lon="6.13899">
        <ele>207.5</ele>
        <time>2021-07-28T15:51:12Z</time>
      </trkpt>
      <trkpt lat="49.13899" lon="6.13906">
        <ele>207.2</ele>
        <time>2021-07-28T15:51:14Z</time>
      </trkpt>
      <trkpt lat="49.13891" lon="6.13917">
        <ele>206.6</ele>
        <time>2021-07-28T15:51:15Z</time>
      </trkpt>
      <trkpt lat="49.13884" lon="6.13931">
        <ele>205.9</ele>
        <time>2021-07-28T15:51:17Z</time>
      </trkpt>
      <trkpt lat="49.13878" lon="6.13945">
        <ele>205.2</ele>
        <time>2021-07-28T15:51:19Z</time>
      </trkpt>
      <trkpt lat="49.13875" lon="6.13958">
        <ele>204.5</ele>
        <time>2021-07-28T15:51:21Z</time>
      </trkpt>
      <trkpt lat="49.13874" lon="6.13959">
        <ele>204.4</ele>
        <time>2021-07-28T15:51:22Z</time>
      </trkpt>
      <trkpt lat="49.13875" lon="6.1396">
        <ele>204.3</ele>
        <time>2021-07-28T15:51:23Z</time>
      </trkpt>
      <trkpt lat="49.13875" lon="6.13963">
        <ele>204.2</ele>
        <time>2021-07-28T15:51:24Z</time>
      </trkpt>
      <trkpt lat="49.13877" lon="6.13968">
        <ele>203.9</ele>
        <time>2021-07-28T15:51:26Z</time>
      </trkpt>
      <trkpt lat="49.13877" lon="6.1397">
        <ele>203.8</ele>
        <time>2021-07-28T15:51:27Z</time>
      </trkpt>
      <trkpt lat="49.13879" lon="6.13974">
        <ele>203.6</ele>
        <time>2021-07-28T15:51:28Z</time>
      </trkpt>
      <trkpt lat="49.13879" lon="6.13977">
        <ele>203.4</ele>
        <time>2021-07-28T15:51:29Z</time>
      </trkpt>
      <trkpt lat="49.13839" lon="6.14109">
        <ele>194.1</ele>
        <time>2021-07-28T15:51:40Z</time>
      </trkpt>
      <trkpt lat="49.13824" lon="6.14127">
        <ele>192</ele>
        <time>2021-07-28T15:51:41Z</time>
      </trkpt>
      <trkpt lat="49.13813" lon="6.14141">
        <ele>190.4</ele>
        <time>2021-07-28T15:51:42Z</time>
      </trkpt>
      <trkpt lat="49.13796" lon="6.14158">
        <ele>188.1</ele>
        <time>2021-07-28T15:51:44Z</time>
      </trkpt>
      <trkpt lat="49.13783" lon="6.1417">
        <ele>186.7</ele>
        <time>2021-07-28T15:51:46Z</time>
      </trkpt>
      <trkpt lat="49.13777" lon="6.14176">
        <ele>186.1</ele>
        <time>2021-07-28T15:51:47Z</time>
      </trkpt>
      <trkpt lat="49.1377" lon="6.14181">
        <ele>185.4</ele>
        <time>2021-07-28T15:51:48Z</time>
      </trkpt>
      <trkpt lat="49.13755" lon="6.14193">
        <ele>184.1</ele>
        <time>2021-07-28T15:51:50Z</time>
      </trkpt>
      <trkpt lat="49.13748" lon="6.14201">
        <ele>183.5</ele>
        <time>2021-07-28T15:51:51Z</time>
      </trkpt>
      <trkpt lat="49.13731" lon="6.14221">
        <ele>183.9</ele>
        <time>2021-07-28T15:51:53Z</time>
      </trkpt>
      <trkpt lat="49.13716" lon="6.14244">
        <ele>182.4</ele>
        <time>2021-07-28T15:51:55Z</time>
      </trkpt>
      <trkpt lat="49.13709" lon="6.14257">
        <ele>182</ele>
        <time>2021-07-28T15:51:56Z</time>
      </trkpt>
      <trkpt lat="49.13704" lon="6.1427">
        <ele>181.8</ele>
        <time>2021-07-28T15:51:57Z</time>
      </trkpt>
      <trkpt lat="49.13699" lon="6.14284">
        <ele>181.6</ele>
        <time>2021-07-28T15:51:58Z</time>
      </trkpt>
      <trkpt lat="49.13696" lon="6.14297">
        <ele>181.5</ele>
        <time>2021-07-28T15:51:59Z</time>
      </trkpt>
      <trkpt lat="49.13691" lon="6.1432">
        <ele>181.4</ele>
        <time>2021-07-28T15:52:01Z</time>
      </trkpt>
      <trkpt lat="49.13685" lon="6.14341">
        <ele>181.4</ele>
        <time>2021-07-28T15:52:03Z</time>
      </trkpt>
      <trkpt lat="49.13684" lon="6.14351">
        <ele>181.5</ele>
        <time>2021-07-28T15:52:04Z</time>
      </trkpt>
      <trkpt lat="49.13682" lon="6.14369">
        <ele>181.6</ele>
        <time>2021-07-28T15:52:06Z</time>
      </trkpt>
      <trkpt lat="49.13681" lon="6.14377">
        <ele>181.7</ele>
        <time>2021-07-28T15:52:07Z</time>
      </trkpt>
      <trkpt lat="49.13681" lon="6.14386">
        <ele>181.7</ele>
        <time>2021-07-28T15:52:08Z</time>
      </trkpt>
      <trkpt lat="49.13683" lon="6.14405">
        <ele>181.4</ele>
        <time>2021-07-28T15:52:10Z</time>
      </trkpt>
      <trkpt lat="49.13687" lon="6.14423">
        <ele>180.9</ele>
        <time>2021-07-28T15:52:12Z</time>
      </trkpt>
      <trkpt lat="49.1369" lon="6.14432">
        <ele>180.7</ele>
        <time>2021-07-28T15:52:13Z</time>
      </trkpt>
      <trkpt lat="49.13696" lon="6.1445">
        <ele>180.2</ele>
        <time>2021-07-28T15:52:15Z</time>
      </trkpt>
      <trkpt lat="49.137" lon="6.1447">
        <ele>179.8</ele>
        <time>2021-07-28T15:52:17Z</time>
      </trkpt>
      <trkpt lat="49.13702" lon="6.14481">
        <ele>179.4</ele>
        <time>2021-07-28T15:52:18Z</time>
      </trkpt>
      <trkpt lat="49.13706" lon="6.14503">
        <ele>178.6</ele>
        <time>2021-07-28T15:52:20Z</time>
      </trkpt>
      <trkpt lat="49.1371" lon="6.14526">
        <ele>177.8</ele>
        <time>2021-07-28T15:52:22Z</time>
      </trkpt>
      <trkpt lat="49.13712" lon="6.14537">
        <ele>177.5</ele>
        <time>2021-07-28T15:52:23Z</time>
      </trkpt>
      <trkpt lat="49.13713" lon="6.14547">
        <ele>177.1</ele>
        <time>2021-07-28T15:52:24Z</time>
      </trkpt>
      <trkpt lat="49.13713" lon="6.14567">
        <ele>176.4</ele>
        <time>2021-07-28T15:52:26Z</time>
      </trkpt>
      <trkpt lat="49.13711" lon="6.14589">
        <ele>175.7</ele>
        <time>2021-07-28T15:52:28Z</time>
      </trkpt>
      <trkpt lat="49.13705" lon="6.14609">
        <ele>174.8</ele>
        <time>2021-07-28T15:52:30Z</time>
      </trkpt>
      <trkpt lat="49.13698" lon="6.14628">
        <ele>173.8</ele>
        <time>2021-07-28T15:52:32Z</time>
      </trkpt>
      <trkpt lat="49.1369" lon="6.14648">
        <ele>172.7</ele>
        <time>2021-07-28T15:52:34Z</time>
      </trkpt>
      <trkpt lat="49.13677" lon="6.14669">
        <ele>171.4</ele>
        <time>2021-07-28T15:52:36Z</time>
      </trkpt>
      <trkpt lat="49.13663" lon="6.1469">
        <ele>170.6</ele>
        <time>2021-07-28T15:52:38Z</time>
      </trkpt>
      <trkpt lat="49.13649" lon="6.14709">
        <ele>169.9</ele>
        <time>2021-07-28T15:52:40Z</time>
      </trkpt>
      <trkpt lat="49.13641" lon="6.14719">
        <ele>169.3</ele>
        <time>2021-07-28T15:52:41Z</time>
      </trkpt>
      <trkpt lat="49.13634" lon="6.14729">
        <ele>168.7</ele>
        <time>2021-07-28T15:52:42Z</time>
      </trkpt>
      <trkpt lat="49.13628" lon="6.1474">
        <ele>168.2</ele>
        <time>2021-07-28T15:52:43Z</time>
      </trkpt>
      <trkpt lat="49.13623" lon="6.1475">
        <ele>168.1</ele>
        <time>2021-07-28T15:52:44Z</time>
      </trkpt>
      <trkpt lat="49.13614" lon="6.14772">
        <ele>167.8</ele>
        <time>2021-07-28T15:52:46Z</time>
      </trkpt>
      <trkpt lat="49.13604" lon="6.14793">
        <ele>167.6</ele>
        <time>2021-07-28T15:52:48Z</time>
      </trkpt>
      <trkpt lat="49.13597" lon="6.14813">
        <ele>167.5</ele>
        <time>2021-07-28T15:52:50Z</time>
      </trkpt>
      <trkpt lat="49.1359" lon="6.14831">
        <ele>167.3</ele>
        <time>2021-07-28T15:52:52Z</time>
      </trkpt>
      <trkpt lat="49.13587" lon="6.1484">
        <ele>167.2</ele>
        <time>2021-07-28T15:52:53Z</time>
      </trkpt>
      <trkpt lat="49.13583" lon="6.14849">
        <ele>167.1</ele>
        <time>2021-07-28T15:52:54Z</time>
      </trkpt>
      <trkpt lat="49.13577" lon="6.14866">
        <ele>167</ele>
        <time>2021-07-28T15:52:56Z</time>
      </trkpt>
      <trkpt lat="49.13572" lon="6.1488">
        <ele>166.9</ele>
        <time>2021-07-28T15:52:58Z</time>
      </trkpt>
      <trkpt lat="49.13562" lon="6.14888">
        <ele>166.8</ele>
        <time>2021-07-28T15:53:00Z</time>
      </trkpt>
      <trkpt lat="49.13557" lon="6.14886">
        <ele>166.8</ele>
        <time>2021-07-28T15:53:01Z</time>
      </trkpt>
      <trkpt lat="49.13552" lon="6.14883">
        <ele>166.7</ele>
        <time>2021-07-28T15:53:02Z</time>
      </trkpt>
      <trkpt lat="49.13544" lon="6.14875">
        <ele>166.7</ele>
        <time>2021-07-28T15:53:04Z</time>
      </trkpt>
      <trkpt lat="49.1354" lon="6.14871">
        <ele>166.7</ele>
        <time>2021-07-28T15:53:05Z</time>
      </trkpt>
      <trkpt lat="49.13538" lon="6.14868">
        <ele>166.7</ele>
        <time>2021-07-28T15:53:06Z</time>
      </trkpt>
      <trkpt lat="49.13528" lon="6.14861">
        <ele>166.7</ele>
        <time>2021-07-28T15:53:08Z</time>
      </trkpt>
      <trkpt lat="49.13519" lon="6.14856">
        <ele>166.7</ele>
        <time>2021-07-28T15:53:10Z</time>
      </trkpt>
      <trkpt lat="49.13514" lon="6.14854">
        <ele>166.7</ele>
        <time>2021-07-28T15:53:11Z</time>
      </trkpt>
      <trkpt lat="49.13507" lon="6.14849">
        <ele>166.7</ele>
        <time>2021-07-28T15:53:13Z</time>
      </trkpt>
      <trkpt lat="49.13506" lon="6.14845">
        <ele>166.7</ele>
        <time>2021-07-28T15:53:14Z</time>
      </trkpt>
      <trkpt lat="49.13503" lon="6.14835">
        <ele>166.7</ele>
        <time>2021-07-28T15:53:16Z</time>
      </trkpt>
      <trkpt lat="49.13499" lon="6.14828">
        <ele>166.7</ele>
        <time>2021-07-28T15:53:18Z</time>
      </trkpt>
      <trkpt lat="49.13496" lon="6.14826">
        <ele>166.7</ele>
        <time>2021-07-28T15:53:19Z</time>
      </trkpt>
      <trkpt lat="49.13493" lon="6.14822">
        <ele>166.7</ele>
        <time>2021-07-28T15:53:21Z</time>
      </trkpt>
      <trkpt lat="49.1349" lon="6.14818">
        <ele>166.7</ele>
        <time>2021-07-28T15:53:22Z</time>
      </trkpt>
      <trkpt lat="49.13481" lon="6.14814">
        <ele>166.7</ele>
        <time>2021-07-28T15:53:24Z</time>
      </trkpt>
      <trkpt lat="49.13473" lon="6.14811">
        <ele>166.7</ele>
        <time>2021-07-28T15:53:25Z</time>
      </trkpt>
      <trkpt lat="49.13466" lon="6.1481">
        <ele>166.7</ele>
        <time>2021-07-28T15:53:27Z</time>
      </trkpt>
      <trkpt lat="49.13462" lon="6.14809">
        <ele>166.7</ele>
        <time>2021-07-28T15:53:28Z</time>
      </trkpt>
      <trkpt lat="49.13456" lon="6.14806">
        <ele>166.8</ele>
        <time>2021-07-28T15:53:29Z</time>
      </trkpt>
      <trkpt lat="49.13449" lon="6.14802">
        <ele>166.8</ele>
        <time>2021-07-28T15:53:31Z</time>
      </trkpt>
      <trkpt lat="49.13442" lon="6.14798">
        <ele>166.7</ele>
        <time>2021-07-28T15:53:32Z</time>
      </trkpt>
      <trkpt lat="49.13435" lon="6.14798">
        <ele>166.7</ele>
        <time>2021-07-28T15:53:34Z</time>
      </trkpt>
      <trkpt lat="49.13436" lon="6.14794">
        <ele>166.6</ele>
        <time>2021-07-28T15:53:35Z</time>
      </trkpt>
      <trkpt lat="49.13429" lon="6.14792">
        <ele>166.6</ele>
        <time>2021-07-28T15:53:36Z</time>
      </trkpt>
      <trkpt lat="49.13419" lon="6.14788">
        <ele>166.5</ele>
        <time>2021-07-28T15:53:38Z</time>
      </trkpt>
      <trkpt lat="49.13414" lon="6.14786">
        <ele>166.5</ele>
        <time>2021-07-28T15:53:39Z</time>
      </trkpt>
      <trkpt lat="49.13409" lon="6.14785">
        <ele>166.5</ele>
        <time>2021-07-28T15:53:40Z</time>
      </trkpt>
      <trkpt lat="49.13401" lon="6.14782">
        <ele>166.5</ele>
        <time>2021-07-28T15:53:42Z</time>
      </trkpt>
      <trkpt lat="49.13396" lon="6.1478">
        <ele>166.5</ele>
        <time>2021-07-28T15:53:44Z</time>
      </trkpt>
      <trkpt lat="49.13392" lon="6.14777">
        <ele>166.5</ele>
        <time>2021-07-28T15:53:45Z</time>
      </trkpt>
      <trkpt lat="49.13388" lon="6.14774">
        <ele>166.5</ele>
        <time>2021-07-28T15:53:46Z</time>
      </trkpt>
      <trkpt lat="49.13381" lon="6.14769">
        <ele>166.5</ele>
        <time>2021-07-28T15:53:48Z</time>
      </trkpt>
      <trkpt lat="49.13376" lon="6.14767">
        <ele>166.5</ele>
        <time>2021-07-28T15:53:49Z</time>
      </trkpt>
      <trkpt lat="49.13368" lon="6.14763">
        <ele>166.5</ele>
        <time>2021-07-28T15:53:51Z</time>
      </trkpt>
      <trkpt lat="49.13364" lon="6.1476">
        <ele>166.5</ele>
        <time>2021-07-28T15:53:52Z</time>
      </trkpt>
      <trkpt lat="49.1336" lon="6.14754">
        <ele>166.5</ele>
        <time>2021-07-28T15:53:54Z</time>
      </trkpt>
      <trkpt lat="49.13356" lon="6.14752">
        <ele>166.5</ele>
        <time>2021-07-28T15:53:55Z</time>
      </trkpt>
      <trkpt lat="49.13352" lon="6.14749">
        <ele>166.5</ele>
        <time>2021-07-28T15:53:56Z</time>
      </trkpt>
      <trkpt lat="49.13348" lon="6.14746">
        <ele>166.5</ele>
        <time>2021-07-28T15:53:57Z</time>
      </trkpt>
      <trkpt lat="49.13344" lon="6.14745">
        <ele>166.5</ele>
        <time>2021-07-28T15:53:58Z</time>
      </trkpt>
      <trkpt lat="49.13341" lon="6.14743">
        <ele>166.5</ele>
        <time>2021-07-28T15:53:59Z</time>
      </trkpt>
      <trkpt lat="49.13337" lon="6.14739">
        <ele>166.5</ele>
        <time>2021-07-28T15:54:01Z</time>
      </trkpt>
      <trkpt lat="49.13337" lon="6.14738">
        <ele>166.5</ele>
        <time>2021-07-28T15:54:02Z</time>
      </trkpt>
      <trkpt lat="49.13336" lon="6.14737">
        <ele>166.5</ele>
        <time>2021-07-28T15:54:03Z</time>
      </trkpt>
      <trkpt lat="49.13335" lon="6.14736">
        <ele>166.5</ele>
        <time>2021-07-28T15:54:05Z</time>
      </trkpt>
      <trkpt lat="49.13335" lon="6.14735">
        <ele>166.5</ele>
        <time>2021-07-28T15:54:07Z</time>
      </trkpt>
      <trkpt lat="49.13334" lon="6.14734">
        <ele>166.5</ele>
        <time>2021-07-28T15:54:08Z</time>
      </trkpt>
      <trkpt lat="49.13333" lon="6.14734">
        <ele>166.5</ele>
        <time>2021-07-28T15:54:09Z</time>
      </trkpt>
      <trkpt lat="49.13333" lon="6.14733">
        <ele>166.5</ele>
        <time>2021-07-28T15:54:10Z</time>
      </trkpt>
      <trkpt lat="49.13332" lon="6.14732">
        <ele>166.5</ele>
        <time>2021-07-28T15:54:12Z</time>
      </trkpt>
      <trkpt lat="49.13331" lon="6.14731">
        <ele>166.5</ele>
        <time>2021-07-28T15:54:13Z</time>
      </trkpt>
      <trkpt lat="49.13325" lon="6.14727">
        <ele>166.6</ele>
        <time>2021-07-28T15:54:15Z</time>
      </trkpt>
      <trkpt lat="49.1332" lon="6.14723">
        <ele>166.6</ele>
        <time>2021-07-28T15:54:16Z</time>
      </trkpt>
      <trkpt lat="49.13316" lon="6.14719">
        <ele>166.6</ele>
        <time>2021-07-28T15:54:17Z</time>
      </trkpt>
      <trkpt lat="49.13311" lon="6.14716">
        <ele>166.6</ele>
        <time>2021-07-28T15:54:18Z</time>
      </trkpt>
      <trkpt lat="49.13306" lon="6.14714">
        <ele>166.6</ele>
        <time>2021-07-28T15:54:20Z</time>
      </trkpt>
      <trkpt lat="49.13302" lon="6.1471">
        <ele>166.6</ele>
        <time>2021-07-28T15:54:21Z</time>
      </trkpt>
      <trkpt lat="49.13298" lon="6.14707">
        <ele>166.6</ele>
        <time>2021-07-28T15:54:23Z</time>
      </trkpt>
      <trkpt lat="49.13294" lon="6.14704">
        <ele>166.6</ele>
        <time>2021-07-28T15:54:24Z</time>
      </trkpt>
      <trkpt lat="49.13288" lon="6.14697">
        <ele>166.7</ele>
        <time>2021-07-28T15:54:26Z</time>
      </trkpt>
      <trkpt lat="49.13287" lon="6.14694">
        <ele>166.7</ele>
        <time>2021-07-28T15:54:27Z</time>
      </trkpt>
      <trkpt lat="49.13287" lon="6.14694">
        <ele>166.7</ele>
        <time>2021-07-28T15:54:28Z</time>
      </trkpt>
      <trkpt lat="49.13293" lon="6.147">
        <ele>166.7</ele>
        <time>2021-07-28T15:54:30Z</time>
      </trkpt>
      <trkpt lat="49.13297" lon="6.14703">
        <ele>166.7</ele>
        <time>2021-07-28T15:54:31Z</time>
      </trkpt>
      <trkpt lat="49.13299" lon="6.14704">
        <ele>166.7</ele>
        <time>2021-07-28T15:54:33Z</time>
      </trkpt>
      <trkpt lat="49.133" lon="6.14704">
        <ele>166.7</ele>
        <time>2021-07-28T15:54:34Z</time>
      </trkpt>
      <trkpt lat="49.13292" lon="6.14695">
        <ele>166.7</ele>
        <time>2021-07-28T15:54:36Z</time>
      </trkpt>
      <trkpt lat="49.13283" lon="6.14686">
        <ele>166.7</ele>
        <time>2021-07-28T15:54:37Z</time>
      </trkpt>
      <trkpt lat="49.13274" lon="6.14676">
        <ele>166.7</ele>
        <time>2021-07-28T15:54:59Z</time>
      </trkpt>
      <trkpt lat="49.13266" lon="6.14667">
        <ele>166.7</ele>
        <time>2021-07-28T15:55:00Z</time>
      </trkpt>
      <trkpt lat="49.1324" lon="6.1465">
        <ele>166.8</ele>
        <time>2021-07-28T15:55:02Z</time>
      </trkpt>
      <trkpt lat="49.13229" lon="6.14647">
        <ele>166.9</ele>
        <time>2021-07-28T15:55:03Z</time>
      </trkpt>
      <trkpt lat="49.13218" lon="6.14642">
        <ele>166.9</ele>
        <time>2021-07-28T15:55:04Z</time>
      </trkpt>
      <trkpt lat="49.1321" lon="6.14639">
        <ele>167</ele>
        <time>2021-07-28T15:55:05Z</time>
      </trkpt>
      <trkpt lat="49.13204" lon="6.14636">
        <ele>167</ele>
        <time>2021-07-28T15:55:06Z</time>
      </trkpt>
      <trkpt lat="49.13199" lon="6.14634">
        <ele>167.1</ele>
        <time>2021-07-28T15:55:07Z</time>
      </trkpt>
      <trkpt lat="49.13193" lon="6.14631">
        <ele>167.1</ele>
        <time>2021-07-28T15:55:08Z</time>
      </trkpt>
      <trkpt lat="49.13186" lon="6.14627">
        <ele>167.2</ele>
        <time>2021-07-28T15:55:10Z</time>
      </trkpt>
      <trkpt lat="49.13181" lon="6.14625">
        <ele>167.2</ele>
        <time>2021-07-28T15:55:11Z</time>
      </trkpt>
      <trkpt lat="49.13177" lon="6.14624">
        <ele>167.3</ele>
        <time>2021-07-28T15:55:12Z</time>
      </trkpt>
      <trkpt lat="49.13173" lon="6.14624">
        <ele>167.3</ele>
        <time>2021-07-28T15:55:13Z</time>
      </trkpt>
      <trkpt lat="49.1317" lon="6.14624">
        <ele>167.3</ele>
        <time>2021-07-28T15:55:14Z</time>
      </trkpt>
      <trkpt lat="49.13165" lon="6.1462">
        <ele>167.4</ele>
        <time>2021-07-28T15:55:16Z</time>
      </trkpt>
      <trkpt lat="49.13162" lon="6.14616">
        <ele>167.4</ele>
        <time>2021-07-28T15:55:17Z</time>
      </trkpt>
      <trkpt lat="49.13158" lon="6.14612">
        <ele>167.5</ele>
        <time>2021-07-28T15:55:19Z</time>
      </trkpt>
      <trkpt lat="49.13155" lon="6.14609">
        <ele>167.5</ele>
        <time>2021-07-28T15:55:20Z</time>
      </trkpt>
      <trkpt lat="49.13151" lon="6.14607">
        <ele>167.5</ele>
        <time>2021-07-28T15:55:21Z</time>
      </trkpt>
      <trkpt lat="49.13148" lon="6.14604">
        <ele>167.5</ele>
        <time>2021-07-28T15:55:22Z</time>
      </trkpt>
      <trkpt lat="49.13145" lon="6.14599">
        <ele>167.6</ele>
        <time>2021-07-28T15:55:23Z</time>
      </trkpt>
      <trkpt lat="49.13143" lon="6.14596">
        <ele>167.6</ele>
        <time>2021-07-28T15:55:24Z</time>
      </trkpt>
      <trkpt lat="49.13137" lon="6.14591">
        <ele>167.6</ele>
        <time>2021-07-28T15:55:26Z</time>
      </trkpt>
      <trkpt lat="49.13133" lon="6.14586">
        <ele>167.6</ele>
        <time>2021-07-28T15:55:28Z</time>
      </trkpt>
      <trkpt lat="49.13129" lon="6.14582">
        <ele>167.7</ele>
        <time>2021-07-28T15:55:29Z</time>
      </trkpt>
      <trkpt lat="49.13126" lon="6.14579">
        <ele>167.7</ele>
        <time>2021-07-28T15:55:30Z</time>
      </trkpt>
      <trkpt lat="49.13123" lon="6.14576">
        <ele>167.7</ele>
        <time>2021-07-28T15:55:32Z</time>
      </trkpt>
      <trkpt lat="49.13121" lon="6.14572">
        <ele>167.8</ele>
        <time>2021-07-28T15:55:33Z</time>
      </trkpt>
      <trkpt lat="49.13119" lon="6.1457">
        <ele>167.8</ele>
        <time>2021-07-28T15:55:34Z</time>
      </trkpt>
      <trkpt lat="49.13117" lon="6.14568">
        <ele>167.8</ele>
        <time>2021-07-28T15:55:35Z</time>
      </trkpt>
      <trkpt lat="49.13114" lon="6.14566">
        <ele>167.8</ele>
        <time>2021-07-28T15:55:37Z</time>
      </trkpt>
      <trkpt lat="49.13111" lon="6.14564">
        <ele>167.8</ele>
        <time>2021-07-28T15:55:38Z</time>
      </trkpt>
      <trkpt lat="49.13109" lon="6.14561">
        <ele>167.9</ele>
        <time>2021-07-28T15:55:39Z</time>
      </trkpt>
      <trkpt lat="49.13104" lon="6.14557">
        <ele>167.9</ele>
        <time>2021-07-28T15:55:41Z</time>
      </trkpt>
      <trkpt lat="49.131" lon="6.14556">
        <ele>167.9</ele>
        <time>2021-07-28T15:55:42Z</time>
      </trkpt>
      <trkpt lat="49.13095" lon="6.14555">
        <ele>167.9</ele>
        <time>2021-07-28T15:55:44Z</time>
      </trkpt>
      <trkpt lat="49.13091" lon="6.14555">
        <ele>168</ele>
        <time>2021-07-28T15:55:45Z</time>
      </trkpt>
      <trkpt lat="49.1309" lon="6.14555">
        <ele>168</ele>
        <time>2021-07-28T15:55:46Z</time>
      </trkpt>
      <trkpt lat="49.13084" lon="6.14554">
        <ele>168</ele>
        <time>2021-07-28T15:55:48Z</time>
      </trkpt>
      <trkpt lat="49.13079" lon="6.14551">
        <ele>168</ele>
        <time>2021-07-28T15:55:50Z</time>
      </trkpt>
      <trkpt lat="49.13076" lon="6.14551">
        <ele>168</ele>
        <time>2021-07-28T15:55:51Z</time>
      </trkpt>
      <trkpt lat="49.13072" lon="6.1455">
        <ele>168.1</ele>
        <time>2021-07-28T15:55:53Z</time>
      </trkpt>
      <trkpt lat="49.13069" lon="6.14549">
        <ele>168.1</ele>
        <time>2021-07-28T15:55:54Z</time>
      </trkpt>
      <trkpt lat="49.13065" lon="6.14547">
        <ele>168.1</ele>
        <time>2021-07-28T15:55:56Z</time>
      </trkpt>
      <trkpt lat="49.13061" lon="6.14547">
        <ele>168.1</ele>
        <time>2021-07-28T15:55:57Z</time>
      </trkpt>
      <trkpt lat="49.13058" lon="6.14547">
        <ele>168.1</ele>
        <time>2021-07-28T15:55:58Z</time>
      </trkpt>
      <trkpt lat="49.13054" lon="6.14548">
        <ele>168.2</ele>
        <time>2021-07-28T15:55:59Z</time>
      </trkpt>
      <trkpt lat="49.13047" lon="6.14548">
        <ele>168.2</ele>
        <time>2021-07-28T15:56:01Z</time>
      </trkpt>
      <trkpt lat="49.13043" lon="6.14549">
        <ele>168.2</ele>
        <time>2021-07-28T15:56:02Z</time>
      </trkpt>
      <trkpt lat="49.13036" lon="6.14549">
        <ele>168.2</ele>
        <time>2021-07-28T15:56:04Z</time>
      </trkpt>
      <trkpt lat="49.13033" lon="6.14549">
        <ele>168.2</ele>
        <time>2021-07-28T15:56:05Z</time>
      </trkpt>
      <trkpt lat="49.1303" lon="6.14548">
        <ele>168.2</ele>
        <time>2021-07-28T15:56:06Z</time>
      </trkpt>
      <trkpt lat="49.13026" lon="6.14546">
        <ele>168.2</ele>
        <time>2021-07-28T15:56:08Z</time>
      </trkpt>
      <trkpt lat="49.13022" lon="6.14544">
        <ele>168.2</ele>
        <time>2021-07-28T15:56:09Z</time>
      </trkpt>
      <trkpt lat="49.13018" lon="6.14542">
        <ele>168.2</ele>
        <time>2021-07-28T15:56:10Z</time>
      </trkpt>
      <trkpt lat="49.13014" lon="6.14541">
        <ele>168.2</ele>
        <time>2021-07-28T15:56:11Z</time>
      </trkpt>
      <trkpt lat="49.13011" lon="6.1454">
        <ele>168.2</ele>
        <time>2021-07-28T15:56:12Z</time>
      </trkpt>
      <trkpt lat="49.13004" lon="6.14538">
        <ele>168.2</ele>
        <time>2021-07-28T15:56:14Z</time>
      </trkpt>
      <trkpt lat="49.13" lon="6.14537">
        <ele>168.2</ele>
        <time>2021-07-28T15:56:15Z</time>
      </trkpt>
      <trkpt lat="49.12996" lon="6.14536">
        <ele>168.2</ele>
        <time>2021-07-28T15:56:16Z</time>
      </trkpt>
      <trkpt lat="49.12993" lon="6.14535">
        <ele>168.3</ele>
        <time>2021-07-28T15:56:17Z</time>
      </trkpt>
      <trkpt lat="49.12989" lon="6.14534">
        <ele>168.3</ele>
        <time>2021-07-28T15:56:18Z</time>
      </trkpt>
      <trkpt lat="49.12985" lon="6.14533">
        <ele>168.3</ele>
        <time>2021-07-28T15:56:19Z</time>
      </trkpt>
      <trkpt lat="49.12978" lon="6.14532">
        <ele>168.3</ele>
        <time>2021-07-28T15:56:21Z</time>
      </trkpt>
      <trkpt lat="49.12974" lon="6.1453">
        <ele>168.3</ele>
        <time>2021-07-28T15:56:22Z</time>
      </trkpt>
      <trkpt lat="49.1297" lon="6.14529">
        <ele>168.3</ele>
        <time>2021-07-28T15:56:23Z</time>
      </trkpt>
      <trkpt lat="49.12965" lon="6.14527">
        <ele>168.4</ele>
        <time>2021-07-28T15:56:24Z</time>
      </trkpt>
      <trkpt lat="49.12961" lon="6.14527">
        <ele>168.4</ele>
        <time>2021-07-28T15:56:25Z</time>
      </trkpt>
      <trkpt lat="49.12957" lon="6.14527">
        <ele>168.4</ele>
        <time>2021-07-28T15:56:26Z</time>
      </trkpt>
      <trkpt lat="49.12952" lon="6.14526">
        <ele>168.4</ele>
        <time>2021-07-28T15:56:28Z</time>
      </trkpt>
      <trkpt lat="49.12949" lon="6.14525">
        <ele>168.4</ele>
        <time>2021-07-28T15:56:29Z</time>
      </trkpt>
      <trkpt lat="49.12944" lon="6.14521">
        <ele>168.5</ele>
        <time>2021-07-28T15:56:31Z</time>
      </trkpt>
      <trkpt lat="49.12944" lon="6.14519">
        <ele>168.5</ele>
        <time>2021-07-28T15:56:32Z</time>
      </trkpt>
      <trkpt lat="49.12943" lon="6.14515">
        <ele>168.5</ele>
        <time>2021-07-28T15:56:34Z</time>
      </trkpt>
      <trkpt lat="49.12941" lon="6.14512">
        <ele>168.5</ele>
        <time>2021-07-28T15:56:35Z</time>
      </trkpt>
      <trkpt lat="49.12939" lon="6.14511">
        <ele>168.5</ele>
        <time>2021-07-28T15:56:36Z</time>
      </trkpt>
      <trkpt lat="49.12932" lon="6.14509">
        <ele>168.6</ele>
        <time>2021-07-28T15:56:38Z</time>
      </trkpt>
      <trkpt lat="49.12928" lon="6.14507">
        <ele>168.6</ele>
        <time>2021-07-28T15:56:39Z</time>
      </trkpt>
      <trkpt lat="49.12919" lon="6.14507">
        <ele>168.7</ele>
        <time>2021-07-28T15:56:41Z</time>
      </trkpt>
      <trkpt lat="49.12916" lon="6.14508">
        <ele>168.7</ele>
        <time>2021-07-28T15:56:42Z</time>
      </trkpt>
      <trkpt lat="49.12913" lon="6.14511">
        <ele>168.7</ele>
        <time>2021-07-28T15:56:44Z</time>
      </trkpt>
      <trkpt lat="49.1291" lon="6.14512">
        <ele>168.8</ele>
        <time>2021-07-28T15:56:45Z</time>
      </trkpt>
      <trkpt lat="49.12909" lon="6.14512">
        <ele>168.8</ele>
        <time>2021-07-28T15:56:46Z</time>
      </trkpt>
      <trkpt lat="49.12908" lon="6.14512">
        <ele>168.8</ele>
        <time>2021-07-28T15:56:48Z</time>
      </trkpt>
      <trkpt lat="49.12907" lon="6.14511">
        <ele>168.8</ele>
        <time>2021-07-28T15:56:49Z</time>
      </trkpt>
      <trkpt lat="49.12903" lon="6.14507">
        <ele>168.8</ele>
        <time>2021-07-28T15:56:50Z</time>
      </trkpt>
      <trkpt lat="49.12893" lon="6.14503">
        <ele>168.9</ele>
        <time>2021-07-28T15:56:52Z</time>
      </trkpt>
      <trkpt lat="49.12887" lon="6.145">
        <ele>168.9</ele>
        <time>2021-07-28T15:56:53Z</time>
      </trkpt>
      <trkpt lat="49.12881" lon="6.14498">
        <ele>169</ele>
        <time>2021-07-28T15:56:55Z</time>
      </trkpt>
      <trkpt lat="49.12877" lon="6.14497">
        <ele>169</ele>
        <time>2021-07-28T15:56:56Z</time>
      </trkpt>
      <trkpt lat="49.12876" lon="6.14498">
        <ele>169</ele>
        <time>2021-07-28T15:56:57Z</time>
      </trkpt>
      <trkpt lat="49.12871" lon="6.14501">
        <ele>169.1</ele>
        <time>2021-07-28T15:56:59Z</time>
      </trkpt>
      <trkpt lat="49.1287" lon="6.145">
        <ele>169.1</ele>
        <time>2021-07-28T15:57:00Z</time>
      </trkpt>
      <trkpt lat="49.1287" lon="6.145">
        <ele>169.1</ele>
        <time>2021-07-28T15:57:01Z</time>
      </trkpt>
      <trkpt lat="49.1287" lon="6.14498">
        <ele>169.1</ele>
        <time>2021-07-28T15:57:02Z</time>
      </trkpt>
      <trkpt lat="49.1287" lon="6.14497">
        <ele>169.1</ele>
        <time>2021-07-28T15:57:03Z</time>
      </trkpt>
      <trkpt lat="49.1287" lon="6.14496">
        <ele>169.1</ele>
        <time>2021-07-28T15:57:04Z</time>
      </trkpt>
      <trkpt lat="49.1287" lon="6.14495">
        <ele>169.1</ele>
        <time>2021-07-28T15:57:06Z</time>
      </trkpt>
      <trkpt lat="49.12892" lon="6.1447">
        <ele>169.4</ele>
        <time>2021-07-28T15:57:46Z</time>
      </trkpt>
      <trkpt lat="49.12895" lon="6.14466">
        <ele>169.4</ele>
        <time>2021-07-28T15:57:47Z</time>
      </trkpt>
      <trkpt lat="49.12896" lon="6.14463">
        <ele>169.4</ele>
        <time>2021-07-28T15:57:48Z</time>
      </trkpt>
      <trkpt lat="49.12896" lon="6.14462">
        <ele>169.4</ele>
        <time>2021-07-28T15:57:49Z</time>
      </trkpt>
      <trkpt lat="49.12896" lon="6.14461">
        <ele>169.4</ele>
        <time>2021-07-28T15:57:50Z</time>
      </trkpt>
      <trkpt lat="49.12895" lon="6.14459">
        <ele>169.4</ele>
        <time>2021-07-28T15:57:52Z</time>
      </trkpt>
      <trkpt lat="49.12895" lon="6.14457">
        <ele>169.4</ele>
        <time>2021-07-28T15:57:53Z</time>
      </trkpt>
      <trkpt lat="49.12893" lon="6.14458">
        <ele>169.5</ele>
        <time>2021-07-28T15:57:55Z</time>
      </trkpt>
      <trkpt lat="49.12893" lon="6.14459">
        <ele>169.5</ele>
        <time>2021-07-28T15:57:57Z</time>
      </trkpt>
      <trkpt lat="49.12892" lon="6.14459">
        <ele>169.5</ele>
        <time>2021-07-28T15:57:59Z</time>
      </trkpt>
      <trkpt lat="49.12874" lon="6.14473">
        <ele>169.6</ele>
        <time>2021-07-28T15:58:28Z</time>
      </trkpt>
      <trkpt lat="49.12871" lon="6.14475">
        <ele>169.6</ele>
        <time>2021-07-28T15:58:30Z</time>
      </trkpt>
      <trkpt lat="49.1287" lon="6.14475">
        <ele>169.6</ele>
        <time>2021-07-28T15:58:32Z</time>
      </trkpt>
      <trkpt lat="49.1286" lon="6.14479">
        <ele>169.7</ele>
        <time>2021-07-28T15:58:34Z</time>
      </trkpt>
      <trkpt lat="49.12852" lon="6.14485">
        <ele>169.9</ele>
        <time>2021-07-28T15:58:35Z</time>
      </trkpt>
      <trkpt lat="49.12847" lon="6.14488">
        <ele>169.9</ele>
        <time>2021-07-28T15:58:36Z</time>
      </trkpt>
      <trkpt lat="49.12842" lon="6.1449">
        <ele>169.9</ele>
        <time>2021-07-28T15:58:37Z</time>
      </trkpt>
      <trkpt lat="49.12831" lon="6.14491">
        <ele>169.8</ele>
        <time>2021-07-28T15:58:39Z</time>
      </trkpt>
      <trkpt lat="49.12817" lon="6.14493">
        <ele>169.5</ele>
        <time>2021-07-28T15:58:41Z</time>
      </trkpt>
      <trkpt lat="49.12812" lon="6.14496">
        <ele>169.3</ele>
        <time>2021-07-28T15:58:42Z</time>
      </trkpt>
      <trkpt lat="49.12807" lon="6.14499">
        <ele>169.2</ele>
        <time>2021-07-28T15:58:43Z</time>
      </trkpt>
      <trkpt lat="49.12798" lon="6.14503">
        <ele>169.1</ele>
        <time>2021-07-28T15:58:45Z</time>
      </trkpt>
      <trkpt lat="49.12793" lon="6.14504">
        <ele>169</ele>
        <time>2021-07-28T15:58:46Z</time>
      </trkpt>
      <trkpt lat="49.12777" lon="6.14502">
        <ele>168.8</ele>
        <time>2021-07-28T15:58:47Z</time>
      </trkpt>
      <trkpt lat="49.12756" lon="6.14501">
        <ele>168.6</ele>
        <time>2021-07-28T15:58:49Z</time>
      </trkpt>
      <trkpt lat="49.12748" lon="6.14502">
        <ele>168.5</ele>
        <time>2021-07-28T15:58:50Z</time>
      </trkpt>
      <trkpt lat="49.12734" lon="6.14503">
        <ele>168.4</ele>
        <time>2021-07-28T15:58:52Z</time>
      </trkpt>
      <trkpt lat="49.12727" lon="6.14502">
        <ele>168.4</ele>
        <time>2021-07-28T15:58:53Z</time>
      </trkpt>
      <trkpt lat="49.12713" lon="6.14503">
        <ele>168.4</ele>
        <time>2021-07-28T15:58:55Z</time>
      </trkpt>
      <trkpt lat="49.12707" lon="6.14505">
        <ele>168.3</ele>
        <time>2021-07-28T15:58:56Z</time>
      </trkpt>
      <trkpt lat="49.127" lon="6.14504">
        <ele>168.3</ele>
        <time>2021-07-28T15:58:58Z</time>
      </trkpt>
      <trkpt lat="49.12696" lon="6.14504">
        <ele>168.3</ele>
        <time>2021-07-28T15:58:59Z</time>
      </trkpt>
      <trkpt lat="49.12689" lon="6.14503">
        <ele>168.3</ele>
        <time>2021-07-28T15:59:01Z</time>
      </trkpt>
      <trkpt lat="49.12685" lon="6.14503">
        <ele>168.3</ele>
        <time>2021-07-28T15:59:02Z</time>
      </trkpt>
      <trkpt lat="49.12683" lon="6.14503">
        <ele>168.3</ele>
        <time>2021-07-28T15:59:04Z</time>
      </trkpt>
      <trkpt lat="49.12682" lon="6.14502">
        <ele>168.3</ele>
        <time>2021-07-28T15:59:05Z</time>
      </trkpt>
      <trkpt lat="49.12681" lon="6.145">
        <ele>168.3</ele>
        <time>2021-07-28T15:59:06Z</time>
      </trkpt>
      <trkpt lat="49.12675" lon="6.14499">
        <ele>168.3</ele>
        <time>2021-07-28T15:59:08Z</time>
      </trkpt>
      <trkpt lat="49.12669" lon="6.14501">
        <ele>168.3</ele>
        <time>2021-07-28T15:59:10Z</time>
      </trkpt>
      <trkpt lat="49.12663" lon="6.14502">
        <ele>168.3</ele>
        <time>2021-07-28T15:59:11Z</time>
      </trkpt>
      <trkpt lat="49.12659" lon="6.14502">
        <ele>168.3</ele>
        <time>2021-07-28T15:59:12Z</time>
      </trkpt>
      <trkpt lat="49.12653" lon="6.14501">
        <ele>168.3</ele>
        <time>2021-07-28T15:59:14Z</time>
      </trkpt>
      <trkpt lat="49.12648" lon="6.145">
        <ele>168.2</ele>
        <time>2021-07-28T15:59:15Z</time>
      </trkpt>
      <trkpt lat="49.12641" lon="6.14503">
        <ele>168.2</ele>
        <time>2021-07-28T15:59:16Z</time>
      </trkpt>
      <trkpt lat="49.12631" lon="6.14505">
        <ele>168.2</ele>
        <time>2021-07-28T15:59:18Z</time>
      </trkpt>
      <trkpt lat="49.12623" lon="6.14505">
        <ele>168.2</ele>
        <time>2021-07-28T15:59:20Z</time>
      </trkpt>
      <trkpt lat="49.1262" lon="6.14503">
        <ele>168.2</ele>
        <time>2021-07-28T15:59:21Z</time>
      </trkpt>
      <trkpt lat="49.12614" lon="6.14505">
        <ele>168.2</ele>
        <time>2021-07-28T15:59:23Z</time>
      </trkpt>
      <trkpt lat="49.12608" lon="6.14506">
        <ele>168.2</ele>
        <time>2021-07-28T15:59:24Z</time>
      </trkpt>
      <trkpt lat="49.12604" lon="6.14504">
        <ele>168.2</ele>
        <time>2021-07-28T15:59:25Z</time>
      </trkpt>
      <trkpt lat="49.126" lon="6.14504">
        <ele>168.2</ele>
        <time>2021-07-28T15:59:26Z</time>
      </trkpt>
      <trkpt lat="49.12597" lon="6.14501">
        <ele>168.2</ele>
        <time>2021-07-28T15:59:28Z</time>
      </trkpt>
      <trkpt lat="49.12594" lon="6.14498">
        <ele>168.2</ele>
        <time>2021-07-28T15:59:29Z</time>
      </trkpt>
      <trkpt lat="49.12591" lon="6.14495">
        <ele>168.2</ele>
        <time>2021-07-28T15:59:30Z</time>
      </trkpt>
      <trkpt lat="49.12588" lon="6.1449">
        <ele>168.2</ele>
        <time>2021-07-28T15:59:32Z</time>
      </trkpt>
      <trkpt lat="49.12584" lon="6.14488">
        <ele>168.2</ele>
        <time>2021-07-28T15:59:33Z</time>
      </trkpt>
      <trkpt lat="49.12581" lon="6.14487">
        <ele>168.2</ele>
        <time>2021-07-28T15:59:34Z</time>
      </trkpt>
      <trkpt lat="49.12578" lon="6.14485">
        <ele>168.2</ele>
        <time>2021-07-28T15:59:35Z</time>
      </trkpt>
      <trkpt lat="49.12574" lon="6.14484">
        <ele>168.2</ele>
        <time>2021-07-28T15:59:36Z</time>
      </trkpt>
      <trkpt lat="49.1257" lon="6.14482">
        <ele>168.2</ele>
        <time>2021-07-28T15:59:37Z</time>
      </trkpt>
      <trkpt lat="49.12567" lon="6.14481">
        <ele>168.3</ele>
        <time>2021-07-28T15:59:39Z</time>
      </trkpt>
      <trkpt lat="49.12562" lon="6.14479">
        <ele>168.3</ele>
        <time>2021-07-28T15:59:40Z</time>
      </trkpt>
      <trkpt lat="49.12556" lon="6.14478">
        <ele>168.3</ele>
        <time>2021-07-28T15:59:42Z</time>
      </trkpt>
      <trkpt lat="49.12551" lon="6.14479">
        <ele>168.3</ele>
        <time>2021-07-28T15:59:43Z</time>
      </trkpt>
      <trkpt lat="49.12545" lon="6.14478">
        <ele>168.4</ele>
        <time>2021-07-28T15:59:44Z</time>
      </trkpt>
      <trkpt lat="49.1254" lon="6.14477">
        <ele>168.4</ele>
        <time>2021-07-28T15:59:45Z</time>
      </trkpt>
      <trkpt lat="49.12534" lon="6.14478">
        <ele>168.4</ele>
        <time>2021-07-28T15:59:47Z</time>
      </trkpt>
      <trkpt lat="49.1253" lon="6.14478">
        <ele>168.5</ele>
        <time>2021-07-28T15:59:48Z</time>
      </trkpt>
      <trkpt lat="49.12528" lon="6.14477">
        <ele>168.5</ele>
        <time>2021-07-28T15:59:49Z</time>
      </trkpt>
      <trkpt lat="49.12524" lon="6.14475">
        <ele>168.5</ele>
        <time>2021-07-28T15:59:51Z</time>
      </trkpt>
      <trkpt lat="49.12524" lon="6.14473">
        <ele>168.5</ele>
        <time>2021-07-28T15:59:52Z</time>
      </trkpt>
      <trkpt lat="49.12526" lon="6.1447">
        <ele>168.5</ele>
        <time>2021-07-28T15:59:54Z</time>
      </trkpt>
      <trkpt lat="49.12529" lon="6.14468">
        <ele>168.4</ele>
        <time>2021-07-28T15:59:56Z</time>
      </trkpt>
      <trkpt lat="49.1253" lon="6.14468">
        <ele>168.4</ele>
        <time>2021-07-28T15:59:57Z</time>
      </trkpt>
      <trkpt lat="49.1253" lon="6.14469">
        <ele>168.4</ele>
        <time>2021-07-28T15:59:59Z</time>
      </trkpt>
      <trkpt lat="49.1253" lon="6.1447">
        <ele>168.4</ele>
        <time>2021-07-28T16:00:00Z</time>
      </trkpt>
      <trkpt lat="49.1253" lon="6.14471">
        <ele>168.4</ele>
        <time>2021-07-28T16:00:01Z</time>
      </trkpt>
      <trkpt lat="49.1253" lon="6.14471">
        <ele>168.4</ele>
        <time>2021-07-28T16:00:02Z</time>
      </trkpt>
      <trkpt lat="49.12529" lon="6.14476">
        <ele>168.3</ele>
        <time>2021-07-28T16:00:07Z</time>
      </trkpt>
      <trkpt lat="49.12527" lon="6.14483">
        <ele>168.3</ele>
        <time>2021-07-28T16:00:08Z</time>
      </trkpt>
      <trkpt lat="49.12524" lon="6.14498">
        <ele>168.2</ele>
        <time>2021-07-28T16:00:10Z</time>
      </trkpt>
      <trkpt lat="49.12521" lon="6.14504">
        <ele>168.1</ele>
        <time>2021-07-28T16:00:11Z</time>
      </trkpt>
      <trkpt lat="49.12516" lon="6.1451">
        <ele>168.1</ele>
        <time>2021-07-28T16:00:12Z</time>
      </trkpt>
      <trkpt lat="49.12506" lon="6.14521">
        <ele>168</ele>
        <time>2021-07-28T16:00:14Z</time>
      </trkpt>
      <trkpt lat="49.12501" lon="6.14526">
        <ele>168</ele>
        <time>2021-07-28T16:00:15Z</time>
      </trkpt>
      <trkpt lat="49.12498" lon="6.1453">
        <ele>168</ele>
        <time>2021-07-28T16:00:16Z</time>
      </trkpt>
      <trkpt lat="49.12497" lon="6.14533">
        <ele>167.9</ele>
        <time>2021-07-28T16:00:17Z</time>
      </trkpt>
      <trkpt lat="49.12496" lon="6.14541">
        <ele>167.9</ele>
        <time>2021-07-28T16:00:19Z</time>
      </trkpt>
      <trkpt lat="49.12496" lon="6.14542">
        <ele>167.9</ele>
        <time>2021-07-28T16:00:20Z</time>
      </trkpt>
      <trkpt lat="49.12496" lon="6.14542">
        <ele>167.9</ele>
        <time>2021-07-28T16:00:21Z</time>
      </trkpt>
      <trkpt lat="49.12492" lon="6.14546">
        <ele>167.9</ele>
        <time>2021-07-28T16:00:23Z</time>
      </trkpt>
      <trkpt lat="49.12494" lon="6.14545">
        <ele>167.9</ele>
        <time>2021-07-28T16:00:24Z</time>
      </trkpt>
      <trkpt lat="49.12493" lon="6.14545">
        <ele>167.9</ele>
        <time>2021-07-28T16:00:25Z</time>
      </trkpt>
      <trkpt lat="49.12485" lon="6.14557">
        <ele>167.9</ele>
        <time>2021-07-28T16:00:28Z</time>
      </trkpt>
      <trkpt lat="49.1248" lon="6.14569">
        <ele>167.8</ele>
        <time>2021-07-28T16:00:30Z</time>
      </trkpt>
      <trkpt lat="49.12479" lon="6.14574">
        <ele>167.8</ele>
        <time>2021-07-28T16:00:31Z</time>
      </trkpt>
      <trkpt lat="49.12479" lon="6.14592">
        <ele>167.8</ele>
        <time>2021-07-28T16:00:33Z</time>
      </trkpt>
      <trkpt lat="49.12479" lon="6.14601">
        <ele>167.8</ele>
        <time>2021-07-28T16:00:35Z</time>
      </trkpt>
      <trkpt lat="49.12479" lon="6.14615">
        <ele>167.8</ele>
        <time>2021-07-28T16:00:36Z</time>
      </trkpt>
      <trkpt lat="49.12479" lon="6.14627">
        <ele>167.8</ele>
        <time>2021-07-28T16:00:38Z</time>
      </trkpt>
      <trkpt lat="49.12478" lon="6.14638">
        <ele>167.7</ele>
        <time>2021-07-28T16:00:40Z</time>
      </trkpt>
      <trkpt lat="49.12477" lon="6.14643">
        <ele>167.7</ele>
        <time>2021-07-28T16:00:41Z</time>
      </trkpt>
      <trkpt lat="49.12476" lon="6.14648">
        <ele>167.7</ele>
        <time>2021-07-28T16:00:42Z</time>
      </trkpt>
      <trkpt lat="49.12476" lon="6.14652">
        <ele>167.7</ele>
        <time>2021-07-28T16:00:44Z</time>
      </trkpt>
      <trkpt lat="49.12479" lon="6.14652">
        <ele>167.7</ele>
        <time>2021-07-28T16:00:45Z</time>
      </trkpt>
      <trkpt lat="49.12481" lon="6.14651">
        <ele>167.7</ele>
        <time>2021-07-28T16:00:47Z</time>
      </trkpt>
      <trkpt lat="49.12482" lon="6.1465">
        <ele>167.7</ele>
        <time>2021-07-28T16:00:49Z</time>
      </trkpt>
      <trkpt lat="49.12482" lon="6.14651">
        <ele>167.7</ele>
        <time>2021-07-28T16:00:50Z</time>
      </trkpt>
      <trkpt lat="49.12482" lon="6.14651">
        <ele>167.7</ele>
        <time>2021-07-28T16:00:52Z</time>
      </trkpt>
      <trkpt lat="49.12482" lon="6.14651">
        <ele>167.7</ele>
        <time>2021-07-28T16:02:08Z</time>
      </trkpt>
      <trkpt lat="49.12481" lon="6.1464">
        <ele>167.7</ele>
        <time>2021-07-28T16:02:10Z</time>
      </trkpt>
      <trkpt lat="49.12475" lon="6.14631">
        <ele>167.8</ele>
        <time>2021-07-28T16:02:12Z</time>
      </trkpt>
      <trkpt lat="49.1247" lon="6.14624">
        <ele>167.8</ele>
        <time>2021-07-28T16:02:13Z</time>
      </trkpt>
      <trkpt lat="49.12462" lon="6.14617">
        <ele>167.8</ele>
        <time>2021-07-28T16:02:14Z</time>
      </trkpt>
      <trkpt lat="49.12456" lon="6.14613">
        <ele>167.8</ele>
        <time>2021-07-28T16:02:15Z</time>
      </trkpt>
      <trkpt lat="49.12451" lon="6.1461">
        <ele>167.9</ele>
        <time>2021-07-28T16:02:16Z</time>
      </trkpt>
      <trkpt lat="49.12446" lon="6.14605">
        <ele>167.9</ele>
        <time>2021-07-28T16:02:18Z</time>
      </trkpt>
      <trkpt lat="49.1244" lon="6.14601">
        <ele>167.9</ele>
        <time>2021-07-28T16:02:19Z</time>
      </trkpt>
      <trkpt lat="49.12435" lon="6.14598">
        <ele>167.9</ele>
        <time>2021-07-28T16:02:20Z</time>
      </trkpt>
      <trkpt lat="49.1243" lon="6.14596">
        <ele>168</ele>
        <time>2021-07-28T16:02:21Z</time>
      </trkpt>
      <trkpt lat="49.12422" lon="6.14592">
        <ele>168.1</ele>
        <time>2021-07-28T16:02:23Z</time>
      </trkpt>
      <trkpt lat="49.12416" lon="6.14585">
        <ele>168.2</ele>
        <time>2021-07-28T16:02:25Z</time>
      </trkpt>
      <trkpt lat="49.12413" lon="6.14581">
        <ele>168.3</ele>
        <time>2021-07-28T16:02:26Z</time>
      </trkpt>
      <trkpt lat="49.12407" lon="6.14577">
        <ele>168.4</ele>
        <time>2021-07-28T16:02:28Z</time>
      </trkpt>
      <trkpt lat="49.12404" lon="6.14575">
        <ele>168.3</ele>
        <time>2021-07-28T16:02:29Z</time>
      </trkpt>
      <trkpt lat="49.12402" lon="6.14575">
        <ele>168.3</ele>
        <time>2021-07-28T16:02:30Z</time>
      </trkpt>
      <trkpt lat="49.12399" lon="6.14575">
        <ele>168.3</ele>
        <time>2021-07-28T16:02:32Z</time>
      </trkpt>
      <trkpt lat="49.12401" lon="6.14575">
        <ele>168.3</ele>
        <time>2021-07-28T16:02:34Z</time>
      </trkpt>
      <trkpt lat="49.12402" lon="6.14575">
        <ele>168.3</ele>
        <time>2021-07-28T16:02:35Z</time>
      </trkpt>
      <trkpt lat="49.12402" lon="6.14574">
        <ele>168.3</ele>
        <time>2021-07-28T16:02:36Z</time>
      </trkpt>
      <trkpt lat="49.12402" lon="6.14575">
        <ele>168.3</ele>
        <time>2021-07-28T16:02:37Z</time>
      </trkpt>
      <trkpt lat="49.12402" lon="6.14577">
        <ele>168.3</ele>
        <time>2021-07-28T16:02:39Z</time>
      </trkpt>
      <trkpt lat="49.12401" lon="6.1458">
        <ele>168.3</ele>
        <time>2021-07-28T16:02:40Z</time>
      </trkpt>
      <trkpt lat="49.124" lon="6.14591">
        <ele>168.2</ele>
        <time>2021-07-28T16:02:43Z</time>
      </trkpt>
      <trkpt lat="49.124" lon="6.14595">
        <ele>168.2</ele>
        <time>2021-07-28T16:02:44Z</time>
      </trkpt>
      <trkpt lat="49.12398" lon="6.14604">
        <ele>168.1</ele>
        <time>2021-07-28T16:02:45Z</time>
      </trkpt>
      <trkpt lat="49.12391" lon="6.14622">
        <ele>167.9</ele>
        <time>2021-07-28T16:02:47Z</time>
      </trkpt>
      <trkpt lat="49.12388" lon="6.14632">
        <ele>167.8</ele>
        <time>2021-07-28T16:02:48Z</time>
      </trkpt>
      <trkpt lat="49.12383" lon="6.14647">
        <ele>167.7</ele>
        <time>2021-07-28T16:02:50Z</time>
      </trkpt>
      <trkpt lat="49.1238" lon="6.14657">
        <ele>167.6</ele>
        <time>2021-07-28T16:02:51Z</time>
      </trkpt>
      <trkpt lat="49.12377" lon="6.14666">
        <ele>167.5</ele>
        <time>2021-07-28T16:02:53Z</time>
      </trkpt>
      <trkpt lat="49.12374" lon="6.14677">
        <ele>167.4</ele>
        <time>2021-07-28T16:02:54Z</time>
      </trkpt>
      <trkpt lat="49.12371" lon="6.14683">
        <ele>167.3</ele>
        <time>2021-07-28T16:02:55Z</time>
      </trkpt>
      <trkpt lat="49.12367" lon="6.14688">
        <ele>167.3</ele>
        <time>2021-07-28T16:02:56Z</time>
      </trkpt>
      <trkpt lat="49.12361" lon="6.14702">
        <ele>167.2</ele>
        <time>2021-07-28T16:02:58Z</time>
      </trkpt>
      <trkpt lat="49.12353" lon="6.14715">
        <ele>167.1</ele>
        <time>2021-07-28T16:03:00Z</time>
      </trkpt>
      <trkpt lat="49.12345" lon="6.14728">
        <ele>167</ele>
        <time>2021-07-28T16:03:02Z</time>
      </trkpt>
      <trkpt lat="49.1234" lon="6.14744">
        <ele>166.9</ele>
        <time>2021-07-28T16:03:04Z</time>
      </trkpt>
      <trkpt lat="49.12335" lon="6.14757">
        <ele>166.9</ele>
        <time>2021-07-28T16:03:06Z</time>
      </trkpt>
      <trkpt lat="49.1233" lon="6.14768">
        <ele>166.8</ele>
        <time>2021-07-28T16:03:08Z</time>
      </trkpt>
      <trkpt lat="49.12325" lon="6.14776">
        <ele>166.8</ele>
        <time>2021-07-28T16:03:10Z</time>
      </trkpt>
      <trkpt lat="49.12321" lon="6.14781">
        <ele>166.8</ele>
        <time>2021-07-28T16:03:11Z</time>
      </trkpt>
      <trkpt lat="49.12317" lon="6.14785">
        <ele>166.8</ele>
        <time>2021-07-28T16:03:12Z</time>
      </trkpt>
      <trkpt lat="49.12309" lon="6.14796">
        <ele>166.8</ele>
        <time>2021-07-28T16:03:14Z</time>
      </trkpt>
      <trkpt lat="49.12305" lon="6.14803">
        <ele>166.8</ele>
        <time>2021-07-28T16:03:15Z</time>
      </trkpt>
      <trkpt lat="49.12298" lon="6.14816">
        <ele>166.8</ele>
        <time>2021-07-28T16:03:17Z</time>
      </trkpt>
      <trkpt lat="49.12295" lon="6.14822">
        <ele>166.8</ele>
        <time>2021-07-28T16:03:18Z</time>
      </trkpt>
      <trkpt lat="49.12287" lon="6.14834">
        <ele>166.8</ele>
        <time>2021-07-28T16:03:20Z</time>
      </trkpt>
      <trkpt lat="49.12283" lon="6.14838">
        <ele>166.7</ele>
        <time>2021-07-28T16:03:21Z</time>
      </trkpt>
      <trkpt lat="49.12279" lon="6.14841">
        <ele>166.7</ele>
        <time>2021-07-28T16:03:22Z</time>
      </trkpt>
      <trkpt lat="49.1227" lon="6.14848">
        <ele>166.7</ele>
        <time>2021-07-28T16:03:24Z</time>
      </trkpt>
      <trkpt lat="49.12259" lon="6.14859">
        <ele>166.7</ele>
        <time>2021-07-28T16:03:26Z</time>
      </trkpt>
      <trkpt lat="49.12254" lon="6.14865">
        <ele>166.7</ele>
        <time>2021-07-28T16:03:27Z</time>
      </trkpt>
      <trkpt lat="49.12247" lon="6.1487">
        <ele>166.7</ele>
        <time>2021-07-28T16:03:28Z</time>
      </trkpt>
      <trkpt lat="49.1224" lon="6.14874">
        <ele>166.7</ele>
        <time>2021-07-28T16:03:29Z</time>
      </trkpt>
      <trkpt lat="49.12234" lon="6.14877">
        <ele>166.7</ele>
        <time>2021-07-28T16:03:30Z</time>
      </trkpt>
      <trkpt lat="49.12223" lon="6.14883">
        <ele>166.8</ele>
        <time>2021-07-28T16:03:32Z</time>
      </trkpt>
      <trkpt lat="49.12218" lon="6.1489">
        <ele>166.8</ele>
        <time>2021-07-28T16:03:34Z</time>
      </trkpt>
      <trkpt lat="49.12216" lon="6.14895">
        <ele>166.7</ele>
        <time>2021-07-28T16:03:35Z</time>
      </trkpt>
      <trkpt lat="49.12207" lon="6.14903">
        <ele>166.7</ele>
        <time>2021-07-28T16:03:37Z</time>
      </trkpt>
      <trkpt lat="49.12199" lon="6.14913">
        <ele>166.7</ele>
        <time>2021-07-28T16:03:39Z</time>
      </trkpt>
      <trkpt lat="49.12196" lon="6.14917">
        <ele>166.7</ele>
        <time>2021-07-28T16:03:40Z</time>
      </trkpt>
      <trkpt lat="49.12189" lon="6.14925">
        <ele>166.7</ele>
        <time>2021-07-28T16:03:42Z</time>
      </trkpt>
      <trkpt lat="49.12186" lon="6.1493">
        <ele>166.7</ele>
        <time>2021-07-28T16:03:44Z</time>
      </trkpt>
      <trkpt lat="49.12182" lon="6.14936">
        <ele>166.7</ele>
        <time>2021-07-28T16:03:45Z</time>
      </trkpt>
      <trkpt lat="49.1218" lon="6.14941">
        <ele>166.7</ele>
        <time>2021-07-28T16:03:46Z</time>
      </trkpt>
      <trkpt lat="49.12177" lon="6.14946">
        <ele>166.7</ele>
        <time>2021-07-28T16:03:47Z</time>
      </trkpt>
      <trkpt lat="49.12175" lon="6.14954">
        <ele>166.7</ele>
        <time>2021-07-28T16:03:49Z</time>
      </trkpt>
      <trkpt lat="49.12173" lon="6.14958">
        <ele>166.7</ele>
        <time>2021-07-28T16:03:50Z</time>
      </trkpt>
      <trkpt lat="49.12171" lon="6.14961">
        <ele>166.7</ele>
        <time>2021-07-28T16:03:51Z</time>
      </trkpt>
      <trkpt lat="49.12168" lon="6.14967">
        <ele>166.7</ele>
        <time>2021-07-28T16:03:53Z</time>
      </trkpt>
      <trkpt lat="49.12166" lon="6.14969">
        <ele>166.7</ele>
        <time>2021-07-28T16:03:54Z</time>
      </trkpt>
      <trkpt lat="49.12161" lon="6.14975">
        <ele>166.7</ele>
        <time>2021-07-28T16:03:56Z</time>
      </trkpt>
      <trkpt lat="49.12161" lon="6.14979">
        <ele>166.7</ele>
        <time>2021-07-28T16:03:58Z</time>
      </trkpt>
      <trkpt lat="49.12162" lon="6.14981">
        <ele>166.7</ele>
        <time>2021-07-28T16:03:59Z</time>
      </trkpt>
      <trkpt lat="49.12162" lon="6.14985">
        <ele>166.7</ele>
        <time>2021-07-28T16:04:01Z</time>
      </trkpt>
      <trkpt lat="49.12162" lon="6.14988">
        <ele>166.7</ele>
        <time>2021-07-28T16:04:02Z</time>
      </trkpt>
      <trkpt lat="49.12162" lon="6.14993">
        <ele>166.7</ele>
        <time>2021-07-28T16:04:04Z</time>
      </trkpt>
      <trkpt lat="49.12162" lon="6.14994">
        <ele>166.7</ele>
        <time>2021-07-28T16:04:05Z</time>
      </trkpt>
      <trkpt lat="49.12162" lon="6.14995">
        <ele>166.7</ele>
        <time>2021-07-28T16:04:06Z</time>
      </trkpt>
      <trkpt lat="49.12157" lon="6.14994">
        <ele>166.7</ele>
        <time>2021-07-28T16:04:16Z</time>
      </trkpt>
      <trkpt lat="49.12156" lon="6.14993">
        <ele>166.7</ele>
        <time>2021-07-28T16:04:17Z</time>
      </trkpt>
      <trkpt lat="49.12155" lon="6.14992">
        <ele>166.7</ele>
        <time>2021-07-28T16:04:18Z</time>
      </trkpt>
      <trkpt lat="49.12155" lon="6.14991">
        <ele>166.7</ele>
        <time>2021-07-28T16:04:19Z</time>
      </trkpt>
      <trkpt lat="49.12154" lon="6.14988">
        <ele>166.7</ele>
        <time>2021-07-28T16:04:20Z</time>
      </trkpt>
      <trkpt lat="49.12158" lon="6.14972">
        <ele>166.7</ele>
        <time>2021-07-28T16:04:22Z</time>
      </trkpt>
      <trkpt lat="49.12159" lon="6.14969">
        <ele>166.7</ele>
        <time>2021-07-28T16:04:23Z</time>
      </trkpt>
      <trkpt lat="49.12159" lon="6.14969">
        <ele>166.7</ele>
        <time>2021-07-28T16:04:24Z</time>
      </trkpt>
      <trkpt lat="49.12158" lon="6.14969">
        <ele>166.7</ele>
        <time>2021-07-28T16:04:26Z</time>
      </trkpt>
      <trkpt lat="49.12158" lon="6.14969">
        <ele>166.7</ele>
        <time>2021-07-28T16:04:28Z</time>
      </trkpt>
      <trkpt lat="49.12158" lon="6.14967">
        <ele>166.7</ele>
        <time>2021-07-28T16:04:30Z</time>
      </trkpt>
      <trkpt lat="49.12159" lon="6.14967">
        <ele>166.7</ele>
        <time>2021-07-28T16:04:31Z</time>
      </trkpt>
      <trkpt lat="49.12158" lon="6.14966">
        <ele>166.7</ele>
        <time>2021-07-28T16:04:32Z</time>
      </trkpt>
      <trkpt lat="49.12122" lon="6.14952">
        <ele>166.4</ele>
        <time>2021-07-28T16:04:45Z</time>
      </trkpt>
      <trkpt lat="49.12113" lon="6.14945">
        <ele>166.4</ele>
        <time>2021-07-28T16:04:47Z</time>
      </trkpt>
      <trkpt lat="49.12109" lon="6.1494">
        <ele>166.4</ele>
        <time>2021-07-28T16:04:48Z</time>
      </trkpt>
      <trkpt lat="49.12105" lon="6.14934">
        <ele>166.4</ele>
        <time>2021-07-28T16:04:49Z</time>
      </trkpt>
      <trkpt lat="49.12102" lon="6.14928">
        <ele>166.4</ele>
        <time>2021-07-28T16:04:50Z</time>
      </trkpt>
      <trkpt lat="49.121" lon="6.14923">
        <ele>166.4</ele>
        <time>2021-07-28T16:04:51Z</time>
      </trkpt>
      <trkpt lat="49.12099" lon="6.14917">
        <ele>166.4</ele>
        <time>2021-07-28T16:04:52Z</time>
      </trkpt>
      <trkpt lat="49.12097" lon="6.14912">
        <ele>166.4</ele>
        <time>2021-07-28T16:04:54Z</time>
      </trkpt>
      <trkpt lat="49.12095" lon="6.14906">
        <ele>166.5</ele>
        <time>2021-07-28T16:04:55Z</time>
      </trkpt>
      <trkpt lat="49.12093" lon="6.149">
        <ele>166.5</ele>
        <time>2021-07-28T16:04:57Z</time>
      </trkpt>
      <trkpt lat="49.12091" lon="6.14893">
        <ele>166.5</ele>
        <time>2021-07-28T16:04:58Z</time>
      </trkpt>
      <trkpt lat="49.12089" lon="6.14884">
        <ele>166.5</ele>
        <time>2021-07-28T16:05:00Z</time>
      </trkpt>
      <trkpt lat="49.12087" lon="6.14876">
        <ele>166.5</ele>
        <time>2021-07-28T16:05:02Z</time>
      </trkpt>
      <trkpt lat="49.12086" lon="6.14869">
        <ele>166.5</ele>
        <time>2021-07-28T16:05:03Z</time>
      </trkpt>
      <trkpt lat="49.12085" lon="6.14863">
        <ele>166.5</ele>
        <time>2021-07-28T16:05:04Z</time>
      </trkpt>
      <trkpt lat="49.12084" lon="6.14858">
        <ele>166.5</ele>
        <time>2021-07-28T16:05:05Z</time>
      </trkpt>
      <trkpt lat="49.12084" lon="6.14853">
        <ele>166.5</ele>
        <time>2021-07-28T16:05:07Z</time>
      </trkpt>
      <trkpt lat="49.12082" lon="6.14847">
        <ele>166.5</ele>
        <time>2021-07-28T16:05:08Z</time>
      </trkpt>
      <trkpt lat="49.12082" lon="6.14843">
        <ele>166.5</ele>
        <time>2021-07-28T16:05:09Z</time>
      </trkpt>
      <trkpt lat="49.12081" lon="6.14837">
        <ele>166.5</ele>
        <time>2021-07-28T16:05:11Z</time>
      </trkpt>
      <trkpt lat="49.1208" lon="6.14831">
        <ele>166.5</ele>
        <time>2021-07-28T16:05:12Z</time>
      </trkpt>
      <trkpt lat="49.12079" lon="6.14826">
        <ele>166.5</ele>
        <time>2021-07-28T16:05:13Z</time>
      </trkpt>
      <trkpt lat="49.12079" lon="6.14819">
        <ele>166.5</ele>
        <time>2021-07-28T16:05:14Z</time>
      </trkpt>
      <trkpt lat="49.12078" lon="6.14815">
        <ele>166.5</ele>
        <time>2021-07-28T16:05:15Z</time>
      </trkpt>
      <trkpt lat="49.12076" lon="6.14809">
        <ele>166.5</ele>
        <time>2021-07-28T16:05:17Z</time>
      </trkpt>
      <trkpt lat="49.12074" lon="6.14804">
        <ele>166.5</ele>
        <time>2021-07-28T16:05:18Z</time>
      </trkpt>
      <trkpt lat="49.12072" lon="6.14801">
        <ele>166.5</ele>
        <time>2021-07-28T16:05:20Z</time>
      </trkpt>
      <trkpt lat="49.1207" lon="6.14797">
        <ele>166.6</ele>
        <time>2021-07-28T16:05:21Z</time>
      </trkpt>
      <trkpt lat="49.12069" lon="6.14792">
        <ele>166.6</ele>
        <time>2021-07-28T16:05:22Z</time>
      </trkpt>
      <trkpt lat="49.12069" lon="6.14791">
        <ele>166.6</ele>
        <time>2021-07-28T16:05:23Z</time>
      </trkpt>
      <trkpt lat="49.12067" lon="6.14785">
        <ele>166.6</ele>
        <time>2021-07-28T16:05:24Z</time>
      </trkpt>
      <trkpt lat="49.12066" lon="6.14783">
        <ele>166.6</ele>
        <time>2021-07-28T16:05:25Z</time>
      </trkpt>
      <trkpt lat="49.12064" lon="6.1478">
        <ele>166.6</ele>
        <time>2021-07-28T16:05:26Z</time>
      </trkpt>
      <trkpt lat="49.12061" lon="6.14776">
        <ele>166.6</ele>
        <time>2021-07-28T16:05:28Z</time>
      </trkpt>
      <trkpt lat="49.12062" lon="6.1477">
        <ele>166.6</ele>
        <time>2021-07-28T16:05:29Z</time>
      </trkpt>
      <trkpt lat="49.12062" lon="6.14769">
        <ele>166.6</ele>
        <time>2021-07-28T16:05:31Z</time>
      </trkpt>
      <trkpt lat="49.12062" lon="6.14765">
        <ele>166.6</ele>
        <time>2021-07-28T16:05:32Z</time>
      </trkpt>
      <trkpt lat="49.12062" lon="6.14762">
        <ele>166.6</ele>
        <time>2021-07-28T16:05:33Z</time>
      </trkpt>
      <trkpt lat="49.12062" lon="6.14759">
        <ele>166.6</ele>
        <time>2021-07-28T16:05:34Z</time>
      </trkpt>
      <trkpt lat="49.1206" lon="6.14753">
        <ele>166.6</ele>
        <time>2021-07-28T16:05:36Z</time>
      </trkpt>
      <trkpt lat="49.12059" lon="6.14745">
        <ele>166.7</ele>
        <time>2021-07-28T16:05:38Z</time>
      </trkpt>
      <trkpt lat="49.12057" lon="6.1474">
        <ele>166.7</ele>
        <time>2021-07-28T16:05:39Z</time>
      </trkpt>
      <trkpt lat="49.12055" lon="6.14738">
        <ele>166.7</ele>
        <time>2021-07-28T16:05:40Z</time>
      </trkpt>
      <trkpt lat="49.1205" lon="6.14734">
        <ele>166.7</ele>
        <time>2021-07-28T16:05:42Z</time>
      </trkpt>
      <trkpt lat="49.12048" lon="6.1473">
        <ele>166.7</ele>
        <time>2021-07-28T16:05:43Z</time>
      </trkpt>
      <trkpt lat="49.12046" lon="6.14726">
        <ele>166.7</ele>
        <time>2021-07-28T16:05:44Z</time>
      </trkpt>
      <trkpt lat="49.12044" lon="6.14723">
        <ele>166.7</ele>
        <time>2021-07-28T16:05:45Z</time>
      </trkpt>
      <trkpt lat="49.12042" lon="6.14723">
        <ele>166.7</ele>
        <time>2021-07-28T16:05:46Z</time>
      </trkpt>
      <trkpt lat="49.12038" lon="6.14722">
        <ele>166.8</ele>
        <time>2021-07-28T16:05:48Z</time>
      </trkpt>
      <trkpt lat="49.12034" lon="6.1472">
        <ele>166.8</ele>
        <time>2021-07-28T16:05:49Z</time>
      </trkpt>
      <trkpt lat="49.12031" lon="6.14717">
        <ele>166.8</ele>
        <time>2021-07-28T16:05:51Z</time>
      </trkpt>
      <trkpt lat="49.12029" lon="6.14715">
        <ele>166.8</ele>
        <time>2021-07-28T16:05:52Z</time>
      </trkpt>
      <trkpt lat="49.12026" lon="6.14717">
        <ele>166.9</ele>
        <time>2021-07-28T16:05:54Z</time>
      </trkpt>
      <trkpt lat="49.12023" lon="6.14718">
        <ele>166.9</ele>
        <time>2021-07-28T16:05:55Z</time>
      </trkpt>
      <trkpt lat="49.12023" lon="6.14718">
        <ele>166.9</ele>
        <time>2021-07-28T16:05:56Z</time>
      </trkpt>
      <trkpt lat="49.12015" lon="6.14724">
        <ele>166.9</ele>
        <time>2021-07-28T16:05:58Z</time>
      </trkpt>
      <trkpt lat="49.12013" lon="6.14725">
        <ele>166.9</ele>
        <time>2021-07-28T16:05:59Z</time>
      </trkpt>
      <trkpt lat="49.12011" lon="6.14726">
        <ele>166.9</ele>
        <time>2021-07-28T16:06:00Z</time>
      </trkpt>
      <trkpt lat="49.1201" lon="6.1473">
        <ele>166.8</ele>
        <time>2021-07-28T16:06:01Z</time>
      </trkpt>
      <trkpt lat="49.1201" lon="6.14732">
        <ele>166.8</ele>
        <time>2021-07-28T16:06:02Z</time>
      </trkpt>
      <trkpt lat="49.12006" lon="6.14737">
        <ele>166.8</ele>
        <time>2021-07-28T16:06:04Z</time>
      </trkpt>
      <trkpt lat="49.12004" lon="6.14739">
        <ele>166.8</ele>
        <time>2021-07-28T16:06:05Z</time>
      </trkpt>
      <trkpt lat="49.12" lon="6.14743">
        <ele>166.8</ele>
        <time>2021-07-28T16:06:06Z</time>
      </trkpt>
      <trkpt lat="49.11996" lon="6.14747">
        <ele>166.8</ele>
        <time>2021-07-28T16:06:07Z</time>
      </trkpt>
      <trkpt lat="49.11992" lon="6.14753">
        <ele>166.8</ele>
        <time>2021-07-28T16:06:09Z</time>
      </trkpt>
      <trkpt lat="49.1199" lon="6.14756">
        <ele>166.8</ele>
        <time>2021-07-28T16:06:10Z</time>
      </trkpt>
      <trkpt lat="49.1199" lon="6.14761">
        <ele>166.8</ele>
        <time>2021-07-28T16:06:11Z</time>
      </trkpt>
      <trkpt lat="49.11991" lon="6.14765">
        <ele>166.8</ele>
        <time>2021-07-28T16:06:12Z</time>
      </trkpt>
      <trkpt lat="49.1199" lon="6.14771">
        <ele>166.8</ele>
        <time>2021-07-28T16:06:14Z</time>
      </trkpt>
      <trkpt lat="49.1199" lon="6.14775">
        <ele>166.8</ele>
        <time>2021-07-28T16:06:16Z</time>
      </trkpt>
      <trkpt lat="49.11989" lon="6.14776">
        <ele>166.8</ele>
        <time>2021-07-28T16:06:17Z</time>
      </trkpt>
      <trkpt lat="49.11988" lon="6.14777">
        <ele>166.8</ele>
        <time>2021-07-28T16:06:18Z</time>
      </trkpt>
      <trkpt lat="49.11986" lon="6.14777">
        <ele>166.7</ele>
        <time>2021-07-28T16:06:20Z</time>
      </trkpt>
      <trkpt lat="49.11985" lon="6.14777">
        <ele>166.7</ele>
        <time>2021-07-28T16:06:21Z</time>
      </trkpt>
      <trkpt lat="49.11983" lon="6.14779">
        <ele>166.7</ele>
        <time>2021-07-28T16:06:22Z</time>
      </trkpt>
      <trkpt lat="49.11981" lon="6.14782">
        <ele>166.7</ele>
        <time>2021-07-28T16:06:23Z</time>
      </trkpt>
      <trkpt lat="49.11977" lon="6.14784">
        <ele>166.6</ele>
        <time>2021-07-28T16:06:25Z</time>
      </trkpt>
      <trkpt lat="49.11971" lon="6.14785">
        <ele>166.5</ele>
        <time>2021-07-28T16:06:26Z</time>
      </trkpt>
      <trkpt lat="49.11963" lon="6.14789">
        <ele>166.3</ele>
        <time>2021-07-28T16:06:28Z</time>
      </trkpt>
      <trkpt lat="49.11962" lon="6.14789">
        <ele>166.3</ele>
        <time>2021-07-28T16:06:29Z</time>
      </trkpt>
      <trkpt lat="49.11958" lon="6.1479">
        <ele>166.4</ele>
        <time>2021-07-28T16:06:31Z</time>
      </trkpt>
      <trkpt lat="49.11957" lon="6.1479">
        <ele>166.4</ele>
        <time>2021-07-28T16:06:32Z</time>
      </trkpt>
      <trkpt lat="49.11954" lon="6.14796">
        <ele>166.4</ele>
        <time>2021-07-28T16:06:34Z</time>
      </trkpt>
      <trkpt lat="49.11952" lon="6.14802">
        <ele>166.5</ele>
        <time>2021-07-28T16:06:35Z</time>
      </trkpt>
      <trkpt lat="49.11955" lon="6.14808">
        <ele>166.5</ele>
        <time>2021-07-28T16:06:37Z</time>
      </trkpt>
      <trkpt lat="49.11961" lon="6.1481">
        <ele>166.6</ele>
        <time>2021-07-28T16:06:38Z</time>
      </trkpt>
      <trkpt lat="49.11967" lon="6.14813">
        <ele>166.6</ele>
        <time>2021-07-28T16:06:40Z</time>
      </trkpt>
      <trkpt lat="49.11971" lon="6.14815">
        <ele>166.7</ele>
        <time>2021-07-28T16:06:41Z</time>
      </trkpt>
      <trkpt lat="49.11974" lon="6.14816">
        <ele>166.7</ele>
        <time>2021-07-28T16:06:42Z</time>
      </trkpt>
      <trkpt lat="49.11978" lon="6.1482">
        <ele>166.7</ele>
        <time>2021-07-28T16:06:44Z</time>
      </trkpt>
      <trkpt lat="49.11982" lon="6.14822">
        <ele>166.8</ele>
        <time>2021-07-28T16:06:45Z</time>
      </trkpt>
      <trkpt lat="49.11984" lon="6.14823">
        <ele>166.8</ele>
        <time>2021-07-28T16:06:46Z</time>
      </trkpt>
      <trkpt lat="49.11985" lon="6.14824">
        <ele>166.8</ele>
        <time>2021-07-28T16:06:47Z</time>
      </trkpt>
      <trkpt lat="49.11985" lon="6.14824">
        <ele>166.8</ele>
        <time>2021-07-28T16:06:49Z</time>
      </trkpt>
      <trkpt lat="49.11984" lon="6.14824">
        <ele>166.8</ele>
        <time>2021-07-28T16:06:50Z</time>
      </trkpt>
      <trkpt lat="49.11983" lon="6.14823">
        <ele>166.8</ele>
        <time>2021-07-28T16:06:52Z</time>
      </trkpt>
      <trkpt lat="49.11981" lon="6.14821">
        <ele>166.8</ele>
        <time>2021-07-28T16:06:53Z</time>
      </trkpt>
      <trkpt lat="49.11979" lon="6.14819">
        <ele>166.9</ele>
        <time>2021-07-28T16:06:54Z</time>
      </trkpt>
      <trkpt lat="49.11949" lon="6.14776">
        <ele>167.1</ele>
        <time>2021-07-28T16:07:04Z</time>
      </trkpt>
      <trkpt lat="49.11947" lon="6.14772">
        <ele>167.1</ele>
        <time>2021-07-28T16:07:05Z</time>
      </trkpt>
      <trkpt lat="49.11941" lon="6.14765">
        <ele>167</ele>
        <time>2021-07-28T16:07:07Z</time>
      </trkpt>
      <trkpt lat="49.11937" lon="6.1476">
        <ele>167</ele>
        <time>2021-07-28T16:07:08Z</time>
      </trkpt>
      <trkpt lat="49.11934" lon="6.14756">
        <ele>167</ele>
        <time>2021-07-28T16:07:09Z</time>
      </trkpt>
      <trkpt lat="49.11932" lon="6.14752">
        <ele>166.9</ele>
        <time>2021-07-28T16:07:10Z</time>
      </trkpt>
      <trkpt lat="49.11932" lon="6.14745">
        <ele>166.9</ele>
        <time>2021-07-28T16:07:11Z</time>
      </trkpt>
      <trkpt lat="49.11931" lon="6.14737">
        <ele>166.8</ele>
        <time>2021-07-28T16:07:13Z</time>
      </trkpt>
      <trkpt lat="49.11934" lon="6.14723">
        <ele>166.7</ele>
        <time>2021-07-28T16:07:14Z</time>
      </trkpt>
      <trkpt lat="49.11933" lon="6.14716">
        <ele>166.7</ele>
        <time>2021-07-28T16:07:15Z</time>
      </trkpt>
      <trkpt lat="49.11934" lon="6.14708">
        <ele>166.7</ele>
        <time>2021-07-28T16:07:16Z</time>
      </trkpt>
      <trkpt lat="49.11933" lon="6.14701">
        <ele>166.6</ele>
        <time>2021-07-28T16:07:17Z</time>
      </trkpt>
      <trkpt lat="49.11932" lon="6.14693">
        <ele>166.6</ele>
        <time>2021-07-28T16:07:19Z</time>
      </trkpt>
      <trkpt lat="49.1193" lon="6.14686">
        <ele>166.6</ele>
        <time>2021-07-28T16:07:20Z</time>
      </trkpt>
      <trkpt lat="49.11927" lon="6.14673">
        <ele>166.7</ele>
        <time>2021-07-28T16:07:21Z</time>
      </trkpt>
      <trkpt lat="49.11927" lon="6.14669">
        <ele>166.7</ele>
        <time>2021-07-28T16:07:22Z</time>
      </trkpt>
      <trkpt lat="49.11927" lon="6.14659">
        <ele>166.7</ele>
        <time>2021-07-28T16:07:24Z</time>
      </trkpt>
      <trkpt lat="49.11924" lon="6.14653">
        <ele>166.8</ele>
        <time>2021-07-28T16:07:25Z</time>
      </trkpt>
      <trkpt lat="49.11922" lon="6.14647">
        <ele>166.8</ele>
        <time>2021-07-28T16:07:26Z</time>
      </trkpt>
      <trkpt lat="49.11918" lon="6.14637">
        <ele>166.9</ele>
        <time>2021-07-28T16:07:28Z</time>
      </trkpt>
      <trkpt lat="49.11916" lon="6.14627">
        <ele>167</ele>
        <time>2021-07-28T16:07:30Z</time>
      </trkpt>
      <trkpt lat="49.11913" lon="6.14616">
        <ele>167.1</ele>
        <time>2021-07-28T16:07:32Z</time>
      </trkpt>
      <trkpt lat="49.11911" lon="6.14613">
        <ele>167.1</ele>
        <time>2021-07-28T16:07:33Z</time>
      </trkpt>
      <trkpt lat="49.11908" lon="6.1461">
        <ele>167.1</ele>
        <time>2021-07-28T16:07:34Z</time>
      </trkpt>
      <trkpt lat="49.11905" lon="6.14607">
        <ele>167.2</ele>
        <time>2021-07-28T16:07:35Z</time>
      </trkpt>
      <trkpt lat="49.11903" lon="6.14603">
        <ele>167.2</ele>
        <time>2021-07-28T16:07:36Z</time>
      </trkpt>
      <trkpt lat="49.11901" lon="6.14597">
        <ele>167.2</ele>
        <time>2021-07-28T16:07:38Z</time>
      </trkpt>
      <trkpt lat="49.119" lon="6.14592">
        <ele>167.2</ele>
        <time>2021-07-28T16:07:39Z</time>
      </trkpt>
      <trkpt lat="49.11897" lon="6.14587">
        <ele>167.3</ele>
        <time>2021-07-28T16:07:40Z</time>
      </trkpt>
      <trkpt lat="49.11895" lon="6.14583">
        <ele>167.3</ele>
        <time>2021-07-28T16:07:41Z</time>
      </trkpt>
      <trkpt lat="49.11892" lon="6.14579">
        <ele>167.3</ele>
        <time>2021-07-28T16:07:42Z</time>
      </trkpt>
      <trkpt lat="49.11889" lon="6.14575">
        <ele>167.3</ele>
        <time>2021-07-28T16:07:43Z</time>
      </trkpt>
      <trkpt lat="49.11887" lon="6.14571">
        <ele>167.3</ele>
        <time>2021-07-28T16:07:45Z</time>
      </trkpt>
      <trkpt lat="49.11885" lon="6.14567">
        <ele>167.3</ele>
        <time>2021-07-28T16:07:46Z</time>
      </trkpt>
      <trkpt lat="49.11884" lon="6.14562">
        <ele>167.3</ele>
        <time>2021-07-28T16:07:47Z</time>
      </trkpt>
      <trkpt lat="49.11881" lon="6.14558">
        <ele>167.3</ele>
        <time>2021-07-28T16:07:48Z</time>
      </trkpt>
      <trkpt lat="49.11878" lon="6.14551">
        <ele>167.3</ele>
        <time>2021-07-28T16:07:49Z</time>
      </trkpt>
      <trkpt lat="49.11874" lon="6.14543">
        <ele>167.4</ele>
        <time>2021-07-28T16:07:51Z</time>
      </trkpt>
      <trkpt lat="49.11871" lon="6.14537">
        <ele>167.4</ele>
        <time>2021-07-28T16:07:52Z</time>
      </trkpt>
      <trkpt lat="49.11868" lon="6.14531">
        <ele>167.4</ele>
        <time>2021-07-28T16:07:53Z</time>
      </trkpt>
      <trkpt lat="49.11866" lon="6.14528">
        <ele>167.4</ele>
        <time>2021-07-28T16:07:54Z</time>
      </trkpt>
      <trkpt lat="49.11862" lon="6.1452">
        <ele>167.4</ele>
        <time>2021-07-28T16:07:56Z</time>
      </trkpt>
      <trkpt lat="49.11858" lon="6.14515">
        <ele>167.4</ele>
        <time>2021-07-28T16:07:57Z</time>
      </trkpt>
      <trkpt lat="49.11855" lon="6.14508">
        <ele>167.3</ele>
        <time>2021-07-28T16:07:59Z</time>
      </trkpt>
      <trkpt lat="49.11853" lon="6.14505">
        <ele>167.3</ele>
        <time>2021-07-28T16:08:00Z</time>
      </trkpt>
      <trkpt lat="49.1185" lon="6.145">
        <ele>167.3</ele>
        <time>2021-07-28T16:08:02Z</time>
      </trkpt>
      <trkpt lat="49.11847" lon="6.14495">
        <ele>167.3</ele>
        <time>2021-07-28T16:08:03Z</time>
      </trkpt>
      <trkpt lat="49.11845" lon="6.14491">
        <ele>167.3</ele>
        <time>2021-07-28T16:08:04Z</time>
      </trkpt>
      <trkpt lat="49.11841" lon="6.14486">
        <ele>167.3</ele>
        <time>2021-07-28T16:08:06Z</time>
      </trkpt>
      <trkpt lat="49.11838" lon="6.14483">
        <ele>167.3</ele>
        <time>2021-07-28T16:08:07Z</time>
      </trkpt>
      <trkpt lat="49.11837" lon="6.14482">
        <ele>167.3</ele>
        <time>2021-07-28T16:08:08Z</time>
      </trkpt>
      <trkpt lat="49.11833" lon="6.1448">
        <ele>167.3</ele>
        <time>2021-07-28T16:08:10Z</time>
      </trkpt>
      <trkpt lat="49.11832" lon="6.14479">
        <ele>167.3</ele>
        <time>2021-07-28T16:08:11Z</time>
      </trkpt>
      <trkpt lat="49.11829" lon="6.14477">
        <ele>167.3</ele>
        <time>2021-07-28T16:08:12Z</time>
      </trkpt>
      <trkpt lat="49.11829" lon="6.14476">
        <ele>167.3</ele>
        <time>2021-07-28T16:08:13Z</time>
      </trkpt>
      <trkpt lat="49.11827" lon="6.14473">
        <ele>167.3</ele>
        <time>2021-07-28T16:08:14Z</time>
      </trkpt>
      <trkpt lat="49.11825" lon="6.1447">
        <ele>167.3</ele>
        <time>2021-07-28T16:08:15Z</time>
      </trkpt>
      <trkpt lat="49.11824" lon="6.14468">
        <ele>167.3</ele>
        <time>2021-07-28T16:08:17Z</time>
      </trkpt>
      <trkpt lat="49.11823" lon="6.14463">
        <ele>167.3</ele>
        <time>2021-07-28T16:08:18Z</time>
      </trkpt>
      <trkpt lat="49.11822" lon="6.14457">
        <ele>167.3</ele>
        <time>2021-07-28T16:08:19Z</time>
      </trkpt>
      <trkpt lat="49.11821" lon="6.14452">
        <ele>167.3</ele>
        <time>2021-07-28T16:08:20Z</time>
      </trkpt>
      <trkpt lat="49.11818" lon="6.14444">
        <ele>167.3</ele>
        <time>2021-07-28T16:08:21Z</time>
      </trkpt>
      <trkpt lat="49.11815" lon="6.14437">
        <ele>167.3</ele>
        <time>2021-07-28T16:08:22Z</time>
      </trkpt>
      <trkpt lat="49.11807" lon="6.14423">
        <ele>167.3</ele>
        <time>2021-07-28T16:08:23Z</time>
      </trkpt>
      <trkpt lat="49.11801" lon="6.14412">
        <ele>167.2</ele>
        <time>2021-07-28T16:08:25Z</time>
      </trkpt>
      <trkpt lat="49.11797" lon="6.14406">
        <ele>167.2</ele>
        <time>2021-07-28T16:08:26Z</time>
      </trkpt>
      <trkpt lat="49.11791" lon="6.14398">
        <ele>167.2</ele>
        <time>2021-07-28T16:08:28Z</time>
      </trkpt>
      <trkpt lat="49.11786" lon="6.14392">
        <ele>167.2</ele>
        <time>2021-07-28T16:08:29Z</time>
      </trkpt>
      <trkpt lat="49.11782" lon="6.14387">
        <ele>167.3</ele>
        <time>2021-07-28T16:08:30Z</time>
      </trkpt>
      <trkpt lat="49.11777" lon="6.14377">
        <ele>167.3</ele>
        <time>2021-07-28T16:08:31Z</time>
      </trkpt>
      <trkpt lat="49.11776" lon="6.14373">
        <ele>167.3</ele>
        <time>2021-07-28T16:08:32Z</time>
      </trkpt>
      <trkpt lat="49.11777" lon="6.14369">
        <ele>167.3</ele>
        <time>2021-07-28T16:08:34Z</time>
      </trkpt>
      <trkpt lat="49.11775" lon="6.14364">
        <ele>167.3</ele>
        <time>2021-07-28T16:08:35Z</time>
      </trkpt>
      <trkpt lat="49.1177" lon="6.14356">
        <ele>167.3</ele>
        <time>2021-07-28T16:08:36Z</time>
      </trkpt>
      <trkpt lat="49.11763" lon="6.14347">
        <ele>167.3</ele>
        <time>2021-07-28T16:08:37Z</time>
      </trkpt>
      <trkpt lat="49.11757" lon="6.14337">
        <ele>167.4</ele>
        <time>2021-07-28T16:08:39Z</time>
      </trkpt>
      <trkpt lat="49.11754" lon="6.1433">
        <ele>167.4</ele>
        <time>2021-07-28T16:08:40Z</time>
      </trkpt>
      <trkpt lat="49.1175" lon="6.14323">
        <ele>167.5</ele>
        <time>2021-07-28T16:08:41Z</time>
      </trkpt>
      <trkpt lat="49.11746" lon="6.14317">
        <ele>167.5</ele>
        <time>2021-07-28T16:08:42Z</time>
      </trkpt>
      <trkpt lat="49.11739" lon="6.14304">
        <ele>167.6</ele>
        <time>2021-07-28T16:08:44Z</time>
      </trkpt>
      <trkpt lat="49.11736" lon="6.14297">
        <ele>167.6</ele>
        <time>2021-07-28T16:08:46Z</time>
      </trkpt>
      <trkpt lat="49.11733" lon="6.14291">
        <ele>167.6</ele>
        <time>2021-07-28T16:08:47Z</time>
      </trkpt>
      <trkpt lat="49.1173" lon="6.14289">
        <ele>167.6</ele>
        <time>2021-07-28T16:08:48Z</time>
      </trkpt>
      <trkpt lat="49.11728" lon="6.14287">
        <ele>167.6</ele>
        <time>2021-07-28T16:08:49Z</time>
      </trkpt>
      <trkpt lat="49.11724" lon="6.14283">
        <ele>167.6</ele>
        <time>2021-07-28T16:08:51Z</time>
      </trkpt>
      <trkpt lat="49.11721" lon="6.14279">
        <ele>167.6</ele>
        <time>2021-07-28T16:08:52Z</time>
      </trkpt>
      <trkpt lat="49.11719" lon="6.14278">
        <ele>167.6</ele>
        <time>2021-07-28T16:08:53Z</time>
      </trkpt>
      <trkpt lat="49.11717" lon="6.14277">
        <ele>167.6</ele>
        <time>2021-07-28T16:08:54Z</time>
      </trkpt>
      <trkpt lat="49.11713" lon="6.14277">
        <ele>167.6</ele>
        <time>2021-07-28T16:08:55Z</time>
      </trkpt>
      <trkpt lat="49.1171" lon="6.14279">
        <ele>167.6</ele>
        <time>2021-07-28T16:08:57Z</time>
      </trkpt>
      <trkpt lat="49.11707" lon="6.14276">
        <ele>167.6</ele>
        <time>2021-07-28T16:08:58Z</time>
      </trkpt>
      <trkpt lat="49.11704" lon="6.14271">
        <ele>167.6</ele>
        <time>2021-07-28T16:09:00Z</time>
      </trkpt>
      <trkpt lat="49.11701" lon="6.14264">
        <ele>167.6</ele>
        <time>2021-07-28T16:09:01Z</time>
      </trkpt>
      <trkpt lat="49.11697" lon="6.14257">
        <ele>167.6</ele>
        <time>2021-07-28T16:09:02Z</time>
      </trkpt>
      <trkpt lat="49.11694" lon="6.14251">
        <ele>167.6</ele>
        <time>2021-07-28T16:09:03Z</time>
      </trkpt>
      <trkpt lat="49.11692" lon="6.14245">
        <ele>167.6</ele>
        <time>2021-07-28T16:09:04Z</time>
      </trkpt>
      <trkpt lat="49.11689" lon="6.1424">
        <ele>167.6</ele>
        <time>2021-07-28T16:09:05Z</time>
      </trkpt>
      <trkpt lat="49.11684" lon="6.14233">
        <ele>167.6</ele>
        <time>2021-07-28T16:09:07Z</time>
      </trkpt>
      <trkpt lat="49.11682" lon="6.14227">
        <ele>167.5</ele>
        <time>2021-07-28T16:09:08Z</time>
      </trkpt>
      <trkpt lat="49.11679" lon="6.1422">
        <ele>167.5</ele>
        <time>2021-07-28T16:09:09Z</time>
      </trkpt>
      <trkpt lat="49.11675" lon="6.14214">
        <ele>167.5</ele>
        <time>2021-07-28T16:09:11Z</time>
      </trkpt>
      <trkpt lat="49.11672" lon="6.14208">
        <ele>167.5</ele>
        <time>2021-07-28T16:09:12Z</time>
      </trkpt>
      <trkpt lat="49.11668" lon="6.14202">
        <ele>167.5</ele>
        <time>2021-07-28T16:09:14Z</time>
      </trkpt>
      <trkpt lat="49.11666" lon="6.14196">
        <ele>167.5</ele>
        <time>2021-07-28T16:09:15Z</time>
      </trkpt>
      <trkpt lat="49.11663" lon="6.14191">
        <ele>167.5</ele>
        <time>2021-07-28T16:09:16Z</time>
      </trkpt>
      <trkpt lat="49.11661" lon="6.14189">
        <ele>167.5</ele>
        <time>2021-07-28T16:09:17Z</time>
      </trkpt>
      <trkpt lat="49.11658" lon="6.14183">
        <ele>167.4</ele>
        <time>2021-07-28T16:09:19Z</time>
      </trkpt>
      <trkpt lat="49.11656" lon="6.14179">
        <ele>167.4</ele>
        <time>2021-07-28T16:09:20Z</time>
      </trkpt>
      <trkpt lat="49.11649" lon="6.14175">
        <ele>167.4</ele>
        <time>2021-07-28T16:09:22Z</time>
      </trkpt>
      <trkpt lat="49.11645" lon="6.14175">
        <ele>167.4</ele>
        <time>2021-07-28T16:09:23Z</time>
      </trkpt>
      <trkpt lat="49.11641" lon="6.14174">
        <ele>167.4</ele>
        <time>2021-07-28T16:09:24Z</time>
      </trkpt>
      <trkpt lat="49.11638" lon="6.14172">
        <ele>167.4</ele>
        <time>2021-07-28T16:09:25Z</time>
      </trkpt>
      <trkpt lat="49.11634" lon="6.14169">
        <ele>167.4</ele>
        <time>2021-07-28T16:09:27Z</time>
      </trkpt>
      <trkpt lat="49.11629" lon="6.14166">
        <ele>167.3</ele>
        <time>2021-07-28T16:09:28Z</time>
      </trkpt>
      <trkpt lat="49.11625" lon="6.14164">
        <ele>167.3</ele>
        <time>2021-07-28T16:09:29Z</time>
      </trkpt>
      <trkpt lat="49.11617" lon="6.14158">
        <ele>167.3</ele>
        <time>2021-07-28T16:09:31Z</time>
      </trkpt>
      <trkpt lat="49.11614" lon="6.14157">
        <ele>167.3</ele>
        <time>2021-07-28T16:09:32Z</time>
      </trkpt>
      <trkpt lat="49.11611" lon="6.14157">
        <ele>167.3</ele>
        <time>2021-07-28T16:09:33Z</time>
      </trkpt>
      <trkpt lat="49.11608" lon="6.14158">
        <ele>167.2</ele>
        <time>2021-07-28T16:09:34Z</time>
      </trkpt>
      <trkpt lat="49.11606" lon="6.14158">
        <ele>167.2</ele>
        <time>2021-07-28T16:09:35Z</time>
      </trkpt>
      <trkpt lat="49.11603" lon="6.14157">
        <ele>167.2</ele>
        <time>2021-07-28T16:09:37Z</time>
      </trkpt>
      <trkpt lat="49.116" lon="6.14157">
        <ele>167.2</ele>
        <time>2021-07-28T16:09:38Z</time>
      </trkpt>
      <trkpt lat="49.11597" lon="6.14154">
        <ele>167.2</ele>
        <time>2021-07-28T16:09:39Z</time>
      </trkpt>
      <trkpt lat="49.11593" lon="6.14152">
        <ele>167.1</ele>
        <time>2021-07-28T16:09:41Z</time>
      </trkpt>
      <trkpt lat="49.11592" lon="6.14152">
        <ele>167.1</ele>
        <time>2021-07-28T16:09:42Z</time>
      </trkpt>
      <trkpt lat="49.11589" lon="6.14149">
        <ele>167</ele>
        <time>2021-07-28T16:09:43Z</time>
      </trkpt>
      <trkpt lat="49.11583" lon="6.14146">
        <ele>166.9</ele>
        <time>2021-07-28T16:09:45Z</time>
      </trkpt>
      <trkpt lat="49.11581" lon="6.14144">
        <ele>166.9</ele>
        <time>2021-07-28T16:09:47Z</time>
      </trkpt>
      <trkpt lat="49.11581" lon="6.14143">
        <ele>166.9</ele>
        <time>2021-07-28T16:09:48Z</time>
      </trkpt>
      <trkpt lat="49.11574" lon="6.1414">
        <ele>166.8</ele>
        <time>2021-07-28T16:09:50Z</time>
      </trkpt>
      <trkpt lat="49.11564" lon="6.14133">
        <ele>166.6</ele>
        <time>2021-07-28T16:09:52Z</time>
      </trkpt>
      <trkpt lat="49.11554" lon="6.14124">
        <ele>166.4</ele>
        <time>2021-07-28T16:09:54Z</time>
      </trkpt>
      <trkpt lat="49.11546" lon="6.14115">
        <ele>166.2</ele>
        <time>2021-07-28T16:09:56Z</time>
      </trkpt>
      <trkpt lat="49.11536" lon="6.14104">
        <ele>166.1</ele>
        <time>2021-07-28T16:09:57Z</time>
      </trkpt>
      <trkpt lat="49.11528" lon="6.14102">
        <ele>166</ele>
        <time>2021-07-28T16:09:59Z</time>
      </trkpt>
      <trkpt lat="49.11525" lon="6.14102">
        <ele>166</ele>
        <time>2021-07-28T16:10:00Z</time>
      </trkpt>
      <trkpt lat="49.11521" lon="6.141">
        <ele>166</ele>
        <time>2021-07-28T16:10:01Z</time>
      </trkpt>
      <trkpt lat="49.11517" lon="6.14097">
        <ele>166</ele>
        <time>2021-07-28T16:10:02Z</time>
      </trkpt>
      <trkpt lat="49.11509" lon="6.14091">
        <ele>166</ele>
        <time>2021-07-28T16:10:04Z</time>
      </trkpt>
      <trkpt lat="49.11505" lon="6.14088">
        <ele>166</ele>
        <time>2021-07-28T16:10:05Z</time>
      </trkpt>
      <trkpt lat="49.11496" lon="6.14083">
        <ele>166.1</ele>
        <time>2021-07-28T16:10:07Z</time>
      </trkpt>
      <trkpt lat="49.11492" lon="6.14081">
        <ele>166.1</ele>
        <time>2021-07-28T16:10:08Z</time>
      </trkpt>
      <trkpt lat="49.11485" lon="6.14078">
        <ele>166.2</ele>
        <time>2021-07-28T16:10:10Z</time>
      </trkpt>
      <trkpt lat="49.11479" lon="6.14076">
        <ele>166.2</ele>
        <time>2021-07-28T16:10:12Z</time>
      </trkpt>
      <trkpt lat="49.11475" lon="6.14076">
        <ele>166.2</ele>
        <time>2021-07-28T16:10:13Z</time>
      </trkpt>
      <trkpt lat="49.11471" lon="6.14075">
        <ele>166.3</ele>
        <time>2021-07-28T16:10:14Z</time>
      </trkpt>
      <trkpt lat="49.11467" lon="6.14076">
        <ele>166.3</ele>
        <time>2021-07-28T16:10:15Z</time>
      </trkpt>
      <trkpt lat="49.11463" lon="6.14076">
        <ele>166.3</ele>
        <time>2021-07-28T16:10:16Z</time>
      </trkpt>
      <trkpt lat="49.11458" lon="6.14078">
        <ele>166.4</ele>
        <time>2021-07-28T16:10:18Z</time>
      </trkpt>
      <trkpt lat="49.11454" lon="6.14083">
        <ele>166.4</ele>
        <time>2021-07-28T16:10:19Z</time>
      </trkpt>
      <trkpt lat="49.11449" lon="6.14088">
        <ele>166.5</ele>
        <time>2021-07-28T16:10:20Z</time>
      </trkpt>
      <trkpt lat="49.11439" lon="6.14095">
        <ele>166.6</ele>
        <time>2021-07-28T16:10:22Z</time>
      </trkpt>
      <trkpt lat="49.11434" lon="6.14098">
        <ele>166.6</ele>
        <time>2021-07-28T16:10:23Z</time>
      </trkpt>
      <trkpt lat="49.11429" lon="6.14099">
        <ele>166.6</ele>
        <time>2021-07-28T16:10:24Z</time>
      </trkpt>
      <trkpt lat="49.11423" lon="6.14102">
        <ele>166.6</ele>
        <time>2021-07-28T16:10:26Z</time>
      </trkpt>
      <trkpt lat="49.11419" lon="6.14105">
        <ele>166.6</ele>
        <time>2021-07-28T16:10:27Z</time>
      </trkpt>
      <trkpt lat="49.11416" lon="6.14108">
        <ele>166.5</ele>
        <time>2021-07-28T16:10:28Z</time>
      </trkpt>
      <trkpt lat="49.11409" lon="6.14108">
        <ele>166.5</ele>
        <time>2021-07-28T16:10:30Z</time>
      </trkpt>
      <trkpt lat="49.11401" lon="6.14109">
        <ele>166.5</ele>
        <time>2021-07-28T16:10:32Z</time>
      </trkpt>
      <trkpt lat="49.11397" lon="6.14108">
        <ele>166.4</ele>
        <time>2021-07-28T16:10:33Z</time>
      </trkpt>
      <trkpt lat="49.11389" lon="6.14109">
        <ele>166.4</ele>
        <time>2021-07-28T16:10:35Z</time>
      </trkpt>
      <trkpt lat="49.11385" lon="6.14108">
        <ele>166.4</ele>
        <time>2021-07-28T16:10:36Z</time>
      </trkpt>
      <trkpt lat="49.11379" lon="6.14107">
        <ele>166.4</ele>
        <time>2021-07-28T16:10:38Z</time>
      </trkpt>
      <trkpt lat="49.11374" lon="6.14107">
        <ele>166.3</ele>
        <time>2021-07-28T16:10:39Z</time>
      </trkpt>
      <trkpt lat="49.1137" lon="6.14108">
        <ele>166.3</ele>
        <time>2021-07-28T16:10:40Z</time>
      </trkpt>
      <trkpt lat="49.11361" lon="6.1411">
        <ele>166.3</ele>
        <time>2021-07-28T16:10:42Z</time>
      </trkpt>
      <trkpt lat="49.11357" lon="6.1411">
        <ele>166.3</ele>
        <time>2021-07-28T16:10:44Z</time>
      </trkpt>
      <trkpt lat="49.11353" lon="6.1411">
        <ele>166.3</ele>
        <time>2021-07-28T16:10:45Z</time>
      </trkpt>
      <trkpt lat="49.11352" lon="6.14109">
        <ele>166.3</ele>
        <time>2021-07-28T16:10:47Z</time>
      </trkpt>
      <trkpt lat="49.11352" lon="6.14109">
        <ele>166.3</ele>
        <time>2021-07-28T16:10:48Z</time>
      </trkpt>
      <trkpt lat="49.11352" lon="6.14109">
        <ele>166.3</ele>
        <time>2021-07-28T16:10:49Z</time>
      </trkpt>
      <trkpt lat="49.11351" lon="6.14108">
        <ele>166.3</ele>
        <time>2021-07-28T16:10:50Z</time>
      </trkpt>
      <trkpt lat="49.1135" lon="6.14107">
        <ele>166.3</ele>
        <time>2021-07-28T16:10:51Z</time>
      </trkpt>
      <trkpt lat="49.11349" lon="6.14107">
        <ele>166.3</ele>
        <time>2021-07-28T16:10:52Z</time>
      </trkpt>
      <trkpt lat="49.11348" lon="6.14106">
        <ele>166.3</ele>
        <time>2021-07-28T16:10:54Z</time>
      </trkpt>
      <trkpt lat="49.11346" lon="6.14105">
        <ele>166.2</ele>
        <time>2021-07-28T16:10:55Z</time>
      </trkpt>
      <trkpt lat="49.11189" lon="6.14146">
        <ele>166.3</ele>
        <time>2021-07-28T16:11:27Z</time>
      </trkpt>
      <trkpt lat="49.11185" lon="6.14146">
        <ele>166.3</ele>
        <time>2021-07-28T16:11:28Z</time>
      </trkpt>
      <trkpt lat="49.11179" lon="6.14146">
        <ele>166.3</ele>
        <time>2021-07-28T16:11:30Z</time>
      </trkpt>
      <trkpt lat="49.11171" lon="6.14148">
        <ele>166.3</ele>
        <time>2021-07-28T16:11:31Z</time>
      </trkpt>
      <trkpt lat="49.11168" lon="6.14147">
        <ele>166.4</ele>
        <time>2021-07-28T16:11:32Z</time>
      </trkpt>
      <trkpt lat="49.11167" lon="6.14147">
        <ele>166.4</ele>
        <time>2021-07-28T16:11:33Z</time>
      </trkpt>
      <trkpt lat="49.11165" lon="6.14148">
        <ele>166.4</ele>
        <time>2021-07-28T16:11:35Z</time>
      </trkpt>
      <trkpt lat="49.11163" lon="6.14149">
        <ele>166.4</ele>
        <time>2021-07-28T16:11:36Z</time>
      </trkpt>
      <trkpt lat="49.11161" lon="6.14152">
        <ele>166.4</ele>
        <time>2021-07-28T16:11:38Z</time>
      </trkpt>
      <trkpt lat="49.11158" lon="6.14154">
        <ele>166.4</ele>
        <time>2021-07-28T16:11:39Z</time>
      </trkpt>
      <trkpt lat="49.11154" lon="6.14157">
        <ele>166.4</ele>
        <time>2021-07-28T16:11:40Z</time>
      </trkpt>
      <trkpt lat="49.11151" lon="6.1416">
        <ele>166.4</ele>
        <time>2021-07-28T16:11:41Z</time>
      </trkpt>
      <trkpt lat="49.11144" lon="6.14166">
        <ele>166.4</ele>
        <time>2021-07-28T16:11:43Z</time>
      </trkpt>
      <trkpt lat="49.11137" lon="6.14169">
        <ele>166.4</ele>
        <time>2021-07-28T16:11:45Z</time>
      </trkpt>
      <trkpt lat="49.11137" lon="6.14167">
        <ele>166.4</ele>
        <time>2021-07-28T16:11:46Z</time>
      </trkpt>
      <trkpt lat="49.11134" lon="6.14165">
        <ele>166.4</ele>
        <time>2021-07-28T16:11:48Z</time>
      </trkpt>
      <trkpt lat="49.11133" lon="6.14165">
        <ele>166.4</ele>
        <time>2021-07-28T16:11:49Z</time>
      </trkpt>
      <trkpt lat="49.11133" lon="6.14165">
        <ele>166.4</ele>
        <time>2021-07-28T16:11:50Z</time>
      </trkpt>
      <trkpt lat="49.11131" lon="6.14165">
        <ele>166.4</ele>
        <time>2021-07-28T16:11:52Z</time>
      </trkpt>
      <trkpt lat="49.1113" lon="6.14165">
        <ele>166.4</ele>
        <time>2021-07-28T16:11:53Z</time>
      </trkpt>
      <trkpt lat="49.10769" lon="6.14174">
        <ele>167.2</ele>
        <time>2021-07-28T16:13:35Z</time>
      </trkpt>
      <trkpt lat="49.10765" lon="6.14165">
        <ele>167.2</ele>
        <time>2021-07-28T16:13:37Z</time>
      </trkpt>
      <trkpt lat="49.10757" lon="6.14161">
        <ele>167.2</ele>
        <time>2021-07-28T16:13:39Z</time>
      </trkpt>
      <trkpt lat="49.10751" lon="6.14159">
        <ele>167.2</ele>
        <time>2021-07-28T16:13:40Z</time>
      </trkpt>
      <trkpt lat="49.10747" lon="6.14157">
        <ele>167.2</ele>
        <time>2021-07-28T16:13:41Z</time>
      </trkpt>
      <trkpt lat="49.10744" lon="6.14155">
        <ele>167.2</ele>
        <time>2021-07-28T16:13:42Z</time>
      </trkpt>
      <trkpt lat="49.10741" lon="6.14152">
        <ele>167.3</ele>
        <time>2021-07-28T16:13:44Z</time>
      </trkpt>
      <trkpt lat="49.10739" lon="6.1415">
        <ele>167.3</ele>
        <time>2021-07-28T16:13:45Z</time>
      </trkpt>
      <trkpt lat="49.10738" lon="6.1415">
        <ele>167.3</ele>
        <time>2021-07-28T16:13:46Z</time>
      </trkpt>
      <trkpt lat="49.10735" lon="6.14147">
        <ele>167.3</ele>
        <time>2021-07-28T16:13:47Z</time>
      </trkpt>
      <trkpt lat="49.10731" lon="6.14139">
        <ele>167.3</ele>
        <time>2021-07-28T16:13:48Z</time>
      </trkpt>
      <trkpt lat="49.10723" lon="6.14134">
        <ele>167.3</ele>
        <time>2021-07-28T16:13:50Z</time>
      </trkpt>
      <trkpt lat="49.10717" lon="6.14131">
        <ele>167.3</ele>
        <time>2021-07-28T16:13:51Z</time>
      </trkpt>
      <trkpt lat="49.10712" lon="6.14127">
        <ele>167.3</ele>
        <time>2021-07-28T16:13:52Z</time>
      </trkpt>
      <trkpt lat="49.1071" lon="6.14124">
        <ele>167.3</ele>
        <time>2021-07-28T16:13:53Z</time>
      </trkpt>
      <trkpt lat="49.10701" lon="6.14111">
        <ele>167.3</ele>
        <time>2021-07-28T16:13:55Z</time>
      </trkpt>
      <trkpt lat="49.10699" lon="6.14109">
        <ele>167.3</ele>
        <time>2021-07-28T16:13:56Z</time>
      </trkpt>
      <trkpt lat="49.10695" lon="6.14105">
        <ele>167.3</ele>
        <time>2021-07-28T16:13:58Z</time>
      </trkpt>
      <trkpt lat="49.10692" lon="6.14101">
        <ele>167.3</ele>
        <time>2021-07-28T16:13:59Z</time>
      </trkpt>
      <trkpt lat="49.10684" lon="6.14093">
        <ele>167.3</ele>
        <time>2021-07-28T16:14:01Z</time>
      </trkpt>
      <trkpt lat="49.10679" lon="6.14086">
        <ele>167.3</ele>
        <time>2021-07-28T16:14:03Z</time>
      </trkpt>
      <trkpt lat="49.10671" lon="6.1408">
        <ele>167.3</ele>
        <time>2021-07-28T16:14:05Z</time>
      </trkpt>
      <trkpt lat="49.10668" lon="6.1408">
        <ele>167.3</ele>
        <time>2021-07-28T16:14:07Z</time>
      </trkpt>
      <trkpt lat="49.10665" lon="6.14074">
        <ele>167.3</ele>
        <time>2021-07-28T16:14:09Z</time>
      </trkpt>
      <trkpt lat="49.10666" lon="6.14066">
        <ele>167.3</ele>
        <time>2021-07-28T16:14:11Z</time>
      </trkpt>
      <trkpt lat="49.10666" lon="6.14062">
        <ele>167.3</ele>
        <time>2021-07-28T16:14:12Z</time>
      </trkpt>
      <trkpt lat="49.10653" lon="6.14047">
        <ele>167.4</ele>
        <time>2021-07-28T16:14:14Z</time>
      </trkpt>
      <trkpt lat="49.10649" lon="6.14047">
        <ele>167.5</ele>
        <time>2021-07-28T16:14:15Z</time>
      </trkpt>
      <trkpt lat="49.10641" lon="6.14048">
        <ele>167.5</ele>
        <time>2021-07-28T16:14:17Z</time>
      </trkpt>
      <trkpt lat="49.10638" lon="6.14048">
        <ele>167.6</ele>
        <time>2021-07-28T16:14:18Z</time>
      </trkpt>
      <trkpt lat="49.10635" lon="6.14048">
        <ele>167.6</ele>
        <time>2021-07-28T16:14:19Z</time>
      </trkpt>
      <trkpt lat="49.10633" lon="6.14048">
        <ele>167.6</ele>
        <time>2021-07-28T16:14:21Z</time>
      </trkpt>
      <trkpt lat="49.10632" lon="6.14047">
        <ele>167.6</ele>
        <time>2021-07-28T16:14:23Z</time>
      </trkpt>
      <trkpt lat="49.10631" lon="6.14046">
        <ele>167.6</ele>
        <time>2021-07-28T16:14:25Z</time>
      </trkpt>
      <trkpt lat="49.10603" lon="6.13915">
        <ele>167.6</ele>
        <time>2021-07-28T16:14:40Z</time>
      </trkpt>
      <trkpt lat="49.10602" lon="6.13907">
        <ele>167.5</ele>
        <time>2021-07-28T16:14:41Z</time>
      </trkpt>
      <trkpt lat="49.10602" lon="6.13903">
        <ele>167.5</ele>
        <time>2021-07-28T16:14:42Z</time>
      </trkpt>
      <trkpt lat="49.10607" lon="6.13876">
        <ele>167.1</ele>
        <time>2021-07-28T16:14:44Z</time>
      </trkpt>
      <trkpt lat="49.1061" lon="6.13864">
        <ele>167</ele>
        <time>2021-07-28T16:14:46Z</time>
      </trkpt>
      <trkpt lat="49.1061" lon="6.13859">
        <ele>166.9</ele>
        <time>2021-07-28T16:14:47Z</time>
      </trkpt>
      <trkpt lat="49.10605" lon="6.13848">
        <ele>166.8</ele>
        <time>2021-07-28T16:14:49Z</time>
      </trkpt>
      <trkpt lat="49.10601" lon="6.13833">
        <ele>166.7</ele>
        <time>2021-07-28T16:14:52Z</time>
      </trkpt>
      <trkpt lat="49.10598" lon="6.13824">
        <ele>166.6</ele>
        <time>2021-07-28T16:14:53Z</time>
      </trkpt>
      <trkpt lat="49.10595" lon="6.13815">
        <ele>166.6</ele>
        <time>2021-07-28T16:14:54Z</time>
      </trkpt>
      <trkpt lat="49.10593" lon="6.1381">
        <ele>166.5</ele>
        <time>2021-07-28T16:14:55Z</time>
      </trkpt>
      <trkpt lat="49.10592" lon="6.13807">
        <ele>166.5</ele>
        <time>2021-07-28T16:14:56Z</time>
      </trkpt>
      <trkpt lat="49.10591" lon="6.13802">
        <ele>166.5</ele>
        <time>2021-07-28T16:14:58Z</time>
      </trkpt>
      <trkpt lat="49.1059" lon="6.13798">
        <ele>166.5</ele>
        <time>2021-07-28T16:15:00Z</time>
      </trkpt>
      <trkpt lat="49.10591" lon="6.13652">
        <ele>166.2</ele>
        <time>2021-07-28T16:15:22Z</time>
      </trkpt>
      <trkpt lat="49.10593" lon="6.13642">
        <ele>166.2</ele>
        <time>2021-07-28T16:15:23Z</time>
      </trkpt>
      <trkpt lat="49.10596" lon="6.13629">
        <ele>166.2</ele>
        <time>2021-07-28T16:15:24Z</time>
      </trkpt>
      <trkpt lat="49.10598" lon="6.13618">
        <ele>166.2</ele>
        <time>2021-07-28T16:15:26Z</time>
      </trkpt>
      <trkpt lat="49.10602" lon="6.13607">
        <ele>166.2</ele>
        <time>2021-07-28T16:15:27Z</time>
      </trkpt>
      <trkpt lat="49.10619" lon="6.13573">
        <ele>166</ele>
        <time>2021-07-28T16:15:28Z</time>
      </trkpt>
      <trkpt lat="49.10625" lon="6.13548">
        <ele>165.9</ele>
        <time>2021-07-28T16:15:33Z</time>
      </trkpt>
      <trkpt lat="49.10632" lon="6.13539">
        <ele>165.8</ele>
        <time>2021-07-28T16:15:36Z</time>
      </trkpt>
      <trkpt lat="49.10638" lon="6.13535">
        <ele>165.8</ele>
        <time>2021-07-28T16:15:38Z</time>
      </trkpt>
      <trkpt lat="49.10656" lon="6.13535">
        <ele>165.7</ele>
        <time>2021-07-28T16:15:44Z</time>
      </trkpt>
      <trkpt lat="49.10653" lon="6.13551">
        <ele>165.7</ele>
        <time>2021-07-28T16:15:45Z</time>
      </trkpt>
      <trkpt lat="49.10641" lon="6.13558">
        <ele>165.7</ele>
        <time>2021-07-28T16:15:48Z</time>
      </trkpt>
      <trkpt lat="49.10638" lon="6.13557">
        <ele>165.7</ele>
        <time>2021-07-28T16:15:49Z</time>
      </trkpt>
      <trkpt lat="49.10637" lon="6.13556">
        <ele>165.7</ele>
        <time>2021-07-28T16:15:50Z</time>
      </trkpt>
      <trkpt lat="49.10634" lon="6.13553">
        <ele>165.7</ele>
        <time>2021-07-28T16:15:52Z</time>
      </trkpt>
      <trkpt lat="49.1063" lon="6.13548">
        <ele>165.7</ele>
        <time>2021-07-28T16:15:54Z</time>
      </trkpt>
      <trkpt lat="49.10628" lon="6.13547">
        <ele>165.7</ele>
        <time>2021-07-28T16:15:55Z</time>
      </trkpt>
      <trkpt lat="49.10614" lon="6.13538">
        <ele>165.7</ele>
        <time>2021-07-28T16:16:00Z</time>
      </trkpt>
      <trkpt lat="49.10613" lon="6.13537">
        <ele>165.7</ele>
        <time>2021-07-28T16:16:02Z</time>
      </trkpt>
      <trkpt lat="49.1061" lon="6.13525">
        <ele>165.8</ele>
        <time>2021-07-28T16:16:06Z</time>
      </trkpt>
      <trkpt lat="49.10596" lon="6.13527">
        <ele>165.9</ele>
        <time>2021-07-28T16:16:08Z</time>
      </trkpt>
      <trkpt lat="49.10593" lon="6.13528">
        <ele>165.9</ele>
        <time>2021-07-28T16:16:10Z</time>
      </trkpt>
      <trkpt lat="49.10591" lon="6.13529">
        <ele>165.9</ele>
        <time>2021-07-28T16:16:11Z</time>
      </trkpt>
      <trkpt lat="49.1059" lon="6.13529">
        <ele>165.9</ele>
        <time>2021-07-28T16:16:12Z</time>
      </trkpt>
      <trkpt lat="49.1059" lon="6.13529">
        <ele>165.9</ele>
        <time>2021-07-28T16:16:14Z</time>
      </trkpt>
      <trkpt lat="49.1059" lon="6.13529">
        <ele>165.9</ele>
        <time>2021-07-28T16:16:15Z</time>
      </trkpt>
      <trkpt lat="49.10589" lon="6.13529">
        <ele>165.9</ele>
        <time>2021-07-28T16:16:16Z</time>
      </trkpt>
      <trkpt lat="49.10601" lon="6.1352">
        <ele>166.1</ele>
        <time>2021-07-28T16:17:55Z</time>
      </trkpt>
      <trkpt lat="49.10604" lon="6.1351">
        <ele>166.2</ele>
        <time>2021-07-28T16:17:57Z</time>
      </trkpt>
      <trkpt lat="49.10607" lon="6.13499">
        <ele>166.2</ele>
        <time>2021-07-28T16:17:58Z</time>
      </trkpt>
      <trkpt lat="49.10609" lon="6.13487">
        <ele>166.4</ele>
        <time>2021-07-28T16:18:00Z</time>
      </trkpt>
      <trkpt lat="49.10611" lon="6.13478">
        <ele>166.4</ele>
        <time>2021-07-28T16:18:02Z</time>
      </trkpt>
      <trkpt lat="49.10613" lon="6.13473">
        <ele>166.4</ele>
        <time>2021-07-28T16:18:03Z</time>
      </trkpt>
      <trkpt lat="49.10614" lon="6.13468">
        <ele>166.4</ele>
        <time>2021-07-28T16:18:04Z</time>
      </trkpt>
      <trkpt lat="49.10616" lon="6.13463">
        <ele>166.4</ele>
        <time>2021-07-28T16:18:05Z</time>
      </trkpt>
      <trkpt lat="49.10619" lon="6.13458">
        <ele>166.4</ele>
        <time>2021-07-28T16:18:06Z</time>
      </trkpt>
      <trkpt lat="49.10621" lon="6.13455">
        <ele>166.5</ele>
        <time>2021-07-28T16:18:07Z</time>
      </trkpt>
      <trkpt lat="49.10622" lon="6.13449">
        <ele>166.5</ele>
        <time>2021-07-28T16:18:09Z</time>
      </trkpt>
      <trkpt lat="49.10624" lon="6.13443">
        <ele>166.5</ele>
        <time>2021-07-28T16:18:10Z</time>
      </trkpt>
      <trkpt lat="49.10624" lon="6.13438">
        <ele>166.5</ele>
        <time>2021-07-28T16:18:11Z</time>
      </trkpt>
      <trkpt lat="49.10624" lon="6.13432">
        <ele>166.5</ele>
        <time>2021-07-28T16:18:12Z</time>
      </trkpt>
      <trkpt lat="49.10624" lon="6.1343">
        <ele>166.5</ele>
        <time>2021-07-28T16:18:13Z</time>
      </trkpt>
      <trkpt lat="49.10624" lon="6.13426">
        <ele>166.5</ele>
        <time>2021-07-28T16:18:14Z</time>
      </trkpt>
      <trkpt lat="49.10624" lon="6.13418">
        <ele>166.5</ele>
        <time>2021-07-28T16:18:16Z</time>
      </trkpt>
      <trkpt lat="49.10626" lon="6.13414">
        <ele>166.5</ele>
        <time>2021-07-28T16:18:17Z</time>
      </trkpt>
      <trkpt lat="49.10627" lon="6.1341">
        <ele>166.5</ele>
        <time>2021-07-28T16:18:18Z</time>
      </trkpt>
      <trkpt lat="49.10627" lon="6.13402">
        <ele>166.5</ele>
        <time>2021-07-28T16:18:20Z</time>
      </trkpt>
      <trkpt lat="49.10626" lon="6.13397">
        <ele>166.5</ele>
        <time>2021-07-28T16:18:21Z</time>
      </trkpt>
      <trkpt lat="49.10626" lon="6.13392">
        <ele>166.5</ele>
        <time>2021-07-28T16:18:22Z</time>
      </trkpt>
      <trkpt lat="49.10626" lon="6.13385">
        <ele>166.5</ele>
        <time>2021-07-28T16:18:24Z</time>
      </trkpt>
      <trkpt lat="49.10627" lon="6.13381">
        <ele>166.5</ele>
        <time>2021-07-28T16:18:25Z</time>
      </trkpt>
      <trkpt lat="49.10627" lon="6.13376">
        <ele>166.5</ele>
        <time>2021-07-28T16:18:26Z</time>
      </trkpt>
      <trkpt lat="49.10627" lon="6.13366">
        <ele>166.5</ele>
        <time>2021-07-28T16:18:28Z</time>
      </trkpt>
      <trkpt lat="49.10627" lon="6.1336">
        <ele>166.5</ele>
        <time>2021-07-28T16:18:29Z</time>
      </trkpt>
      <trkpt lat="49.10628" lon="6.13352">
        <ele>166.5</ele>
        <time>2021-07-28T16:18:30Z</time>
      </trkpt>
      <trkpt lat="49.10629" lon="6.13346">
        <ele>166.5</ele>
        <time>2021-07-28T16:18:31Z</time>
      </trkpt>
      <trkpt lat="49.1063" lon="6.13342">
        <ele>166.5</ele>
        <time>2021-07-28T16:18:32Z</time>
      </trkpt>
      <trkpt lat="49.10629" lon="6.13338">
        <ele>166.5</ele>
        <time>2021-07-28T16:18:33Z</time>
      </trkpt>
      <trkpt lat="49.10627" lon="6.13336">
        <ele>166.5</ele>
        <time>2021-07-28T16:18:35Z</time>
      </trkpt>
      <trkpt lat="49.10623" lon="6.13335">
        <ele>166.5</ele>
        <time>2021-07-28T16:18:36Z</time>
      </trkpt>
      <trkpt lat="49.10621" lon="6.13335">
        <ele>166.5</ele>
        <time>2021-07-28T16:18:37Z</time>
      </trkpt>
      <trkpt lat="49.10619" lon="6.13333">
        <ele>166.5</ele>
        <time>2021-07-28T16:18:38Z</time>
      </trkpt>
      <trkpt lat="49.10618" lon="6.1333">
        <ele>166.5</ele>
        <time>2021-07-28T16:18:39Z</time>
      </trkpt>
      <trkpt lat="49.10617" lon="6.13325">
        <ele>166.5</ele>
        <time>2021-07-28T16:18:41Z</time>
      </trkpt>
      <trkpt lat="49.10615" lon="6.13313">
        <ele>166.5</ele>
        <time>2021-07-28T16:18:44Z</time>
      </trkpt>
      <trkpt lat="49.10615" lon="6.13302">
        <ele>166.5</ele>
        <time>2021-07-28T16:18:45Z</time>
      </trkpt>
      <trkpt lat="49.10614" lon="6.13293">
        <ele>166.5</ele>
        <time>2021-07-28T16:18:46Z</time>
      </trkpt>
      <trkpt lat="49.10614" lon="6.13286">
        <ele>166.5</ele>
        <time>2021-07-28T16:18:47Z</time>
      </trkpt>
      <trkpt lat="49.10613" lon="6.1328">
        <ele>166.6</ele>
        <time>2021-07-28T16:18:48Z</time>
      </trkpt>
      <trkpt lat="49.10614" lon="6.13268">
        <ele>166.6</ele>
        <time>2021-07-28T16:18:50Z</time>
      </trkpt>
      <trkpt lat="49.10616" lon="6.1326">
        <ele>166.6</ele>
        <time>2021-07-28T16:18:51Z</time>
      </trkpt>
      <trkpt lat="49.10633" lon="6.1323">
        <ele>166.7</ele>
        <time>2021-07-28T16:18:52Z</time>
      </trkpt>
      <trkpt lat="49.10638" lon="6.1322">
        <ele>166.7</ele>
        <time>2021-07-28T16:18:54Z</time>
      </trkpt>
      <trkpt lat="49.10642" lon="6.1321">
        <ele>166.7</ele>
        <time>2021-07-28T16:18:56Z</time>
      </trkpt>
      <trkpt lat="49.10645" lon="6.13201">
        <ele>166.7</ele>
        <time>2021-07-28T16:18:57Z</time>
      </trkpt>
      <trkpt lat="49.10643" lon="6.13193">
        <ele>166.7</ele>
        <time>2021-07-28T16:18:59Z</time>
      </trkpt>
      <trkpt lat="49.10641" lon="6.13191">
        <ele>166.7</ele>
        <time>2021-07-28T16:19:00Z</time>
      </trkpt>
      <trkpt lat="49.10637" lon="6.13185">
        <ele>166.7</ele>
        <time>2021-07-28T16:19:02Z</time>
      </trkpt>
      <trkpt lat="49.10634" lon="6.13183">
        <ele>166.7</ele>
        <time>2021-07-28T16:19:03Z</time>
      </trkpt>
      <trkpt lat="49.1063" lon="6.13178">
        <ele>166.7</ele>
        <time>2021-07-28T16:19:04Z</time>
      </trkpt>
      <trkpt lat="49.10627" lon="6.13173">
        <ele>166.7</ele>
        <time>2021-07-28T16:19:05Z</time>
      </trkpt>
      <trkpt lat="49.10624" lon="6.13166">
        <ele>166.7</ele>
        <time>2021-07-28T16:19:06Z</time>
      </trkpt>
      <trkpt lat="49.10619" lon="6.13156">
        <ele>166.7</ele>
        <time>2021-07-28T16:19:08Z</time>
      </trkpt>
      <trkpt lat="49.10616" lon="6.13149">
        <ele>166.7</ele>
        <time>2021-07-28T16:19:09Z</time>
      </trkpt>
      <trkpt lat="49.10614" lon="6.13142">
        <ele>166.7</ele>
        <time>2021-07-28T16:19:10Z</time>
      </trkpt>
      <trkpt lat="49.10611" lon="6.13132">
        <ele>166.6</ele>
        <time>2021-07-28T16:19:12Z</time>
      </trkpt>
      <trkpt lat="49.10609" lon="6.13126">
        <ele>166.6</ele>
        <time>2021-07-28T16:19:13Z</time>
      </trkpt>
      <trkpt lat="49.10609" lon="6.1312">
        <ele>166.6</ele>
        <time>2021-07-28T16:19:14Z</time>
      </trkpt>
      <trkpt lat="49.10608" lon="6.13112">
        <ele>166.6</ele>
        <time>2021-07-28T16:19:15Z</time>
      </trkpt>
      <trkpt lat="49.10606" lon="6.13104">
        <ele>166.6</ele>
        <time>2021-07-28T16:19:16Z</time>
      </trkpt>
      <trkpt lat="49.10605" lon="6.13096">
        <ele>166.6</ele>
        <time>2021-07-28T16:19:17Z</time>
      </trkpt>
      <trkpt lat="49.10604" lon="6.13088">
        <ele>166.5</ele>
        <time>2021-07-28T16:19:18Z</time>
      </trkpt>
      <trkpt lat="49.10603" lon="6.13081">
        <ele>166.5</ele>
        <time>2021-07-28T16:19:19Z</time>
      </trkpt>
      <trkpt lat="49.106" lon="6.13066">
        <ele>166.5</ele>
        <time>2021-07-28T16:19:21Z</time>
      </trkpt>
      <trkpt lat="49.10598" lon="6.1306">
        <ele>166.4</ele>
        <time>2021-07-28T16:19:22Z</time>
      </trkpt>
      <trkpt lat="49.10595" lon="6.13051">
        <ele>166.4</ele>
        <time>2021-07-28T16:19:23Z</time>
      </trkpt>
      <trkpt lat="49.10593" lon="6.13045">
        <ele>166.4</ele>
        <time>2021-07-28T16:19:24Z</time>
      </trkpt>
      <trkpt lat="49.10592" lon="6.13037">
        <ele>166.4</ele>
        <time>2021-07-28T16:19:26Z</time>
      </trkpt>
      <trkpt lat="49.10591" lon="6.13028">
        <ele>166.4</ele>
        <time>2021-07-28T16:19:27Z</time>
      </trkpt>
      <trkpt lat="49.10591" lon="6.1302">
        <ele>166.4</ele>
        <time>2021-07-28T16:19:29Z</time>
      </trkpt>
      <trkpt lat="49.10591" lon="6.13014">
        <ele>166.4</ele>
        <time>2021-07-28T16:19:30Z</time>
      </trkpt>
      <trkpt lat="49.10589" lon="6.13009">
        <ele>166.4</ele>
        <time>2021-07-28T16:19:31Z</time>
      </trkpt>
      <trkpt lat="49.10587" lon="6.13004">
        <ele>166.4</ele>
        <time>2021-07-28T16:19:32Z</time>
      </trkpt>
      <trkpt lat="49.10586" lon="6.12998">
        <ele>166.4</ele>
        <time>2021-07-28T16:19:33Z</time>
      </trkpt>
      <trkpt lat="49.10584" lon="6.12992">
        <ele>166.4</ele>
        <time>2021-07-28T16:19:35Z</time>
      </trkpt>
      <trkpt lat="49.10582" lon="6.12985">
        <ele>166.4</ele>
        <time>2021-07-28T16:19:36Z</time>
      </trkpt>
      <trkpt lat="49.1058" lon="6.1298">
        <ele>166.4</ele>
        <time>2021-07-28T16:19:37Z</time>
      </trkpt>
      <trkpt lat="49.10578" lon="6.12972">
        <ele>166.4</ele>
        <time>2021-07-28T16:19:39Z</time>
      </trkpt>
      <trkpt lat="49.10576" lon="6.12966">
        <ele>166.4</ele>
        <time>2021-07-28T16:19:40Z</time>
      </trkpt>
      <trkpt lat="49.10575" lon="6.1296">
        <ele>166.4</ele>
        <time>2021-07-28T16:19:41Z</time>
      </trkpt>
      <trkpt lat="49.10574" lon="6.12955">
        <ele>166.4</ele>
        <time>2021-07-28T16:19:42Z</time>
      </trkpt>
      <trkpt lat="49.10571" lon="6.12943">
        <ele>166.4</ele>
        <time>2021-07-28T16:19:44Z</time>
      </trkpt>
      <trkpt lat="49.10569" lon="6.12938">
        <ele>166.4</ele>
        <time>2021-07-28T16:19:45Z</time>
      </trkpt>
      <trkpt lat="49.10568" lon="6.12928">
        <ele>166.4</ele>
        <time>2021-07-28T16:19:47Z</time>
      </trkpt>
      <trkpt lat="49.10567" lon="6.12921">
        <ele>166.4</ele>
        <time>2021-07-28T16:19:48Z</time>
      </trkpt>
      <trkpt lat="49.10566" lon="6.12912">
        <ele>166.4</ele>
        <time>2021-07-28T16:19:50Z</time>
      </trkpt>
      <trkpt lat="49.10566" lon="6.12907">
        <ele>166.4</ele>
        <time>2021-07-28T16:19:51Z</time>
      </trkpt>
      <trkpt lat="49.10566" lon="6.12901">
        <ele>166.3</ele>
        <time>2021-07-28T16:19:52Z</time>
      </trkpt>
      <trkpt lat="49.10565" lon="6.12894">
        <ele>166.3</ele>
        <time>2021-07-28T16:19:54Z</time>
      </trkpt>
      <trkpt lat="49.10565" lon="6.12889">
        <ele>166.3</ele>
        <time>2021-07-28T16:19:55Z</time>
      </trkpt>
      <trkpt lat="49.10563" lon="6.12889">
        <ele>166.3</ele>
        <time>2021-07-28T16:19:56Z</time>
      </trkpt>
      <trkpt lat="49.1056" lon="6.12886">
        <ele>166.3</ele>
        <time>2021-07-28T16:19:58Z</time>
      </trkpt>
      <trkpt lat="49.10557" lon="6.12883">
        <ele>166.3</ele>
        <time>2021-07-28T16:19:59Z</time>
      </trkpt>
      <trkpt lat="49.10555" lon="6.12881">
        <ele>166.3</ele>
        <time>2021-07-28T16:20:00Z</time>
      </trkpt>
      <trkpt lat="49.10553" lon="6.12877">
        <ele>166.3</ele>
        <time>2021-07-28T16:20:02Z</time>
      </trkpt>
      <trkpt lat="49.10552" lon="6.1287">
        <ele>166.2</ele>
        <time>2021-07-28T16:20:03Z</time>
      </trkpt>
      <trkpt lat="49.1055" lon="6.12863">
        <ele>166.2</ele>
        <time>2021-07-28T16:20:04Z</time>
      </trkpt>
      <trkpt lat="49.10548" lon="6.12857">
        <ele>166.2</ele>
        <time>2021-07-28T16:20:05Z</time>
      </trkpt>
      <trkpt lat="49.10545" lon="6.12848">
        <ele>166.2</ele>
        <time>2021-07-28T16:20:07Z</time>
      </trkpt>
      <trkpt lat="49.10542" lon="6.12841">
        <ele>166.2</ele>
        <time>2021-07-28T16:20:08Z</time>
      </trkpt>
      <trkpt lat="49.1054" lon="6.12834">
        <ele>166.2</ele>
        <time>2021-07-28T16:20:09Z</time>
      </trkpt>
      <trkpt lat="49.10537" lon="6.12828">
        <ele>166.2</ele>
        <time>2021-07-28T16:20:10Z</time>
      </trkpt>
      <trkpt lat="49.10534" lon="6.12823">
        <ele>166.2</ele>
        <time>2021-07-28T16:20:11Z</time>
      </trkpt>
      <trkpt lat="49.10531" lon="6.12819">
        <ele>166.3</ele>
        <time>2021-07-28T16:20:12Z</time>
      </trkpt>
      <trkpt lat="49.10527" lon="6.1281">
        <ele>166.3</ele>
        <time>2021-07-28T16:20:14Z</time>
      </trkpt>
      <trkpt lat="49.10525" lon="6.12806">
        <ele>166.3</ele>
        <time>2021-07-28T16:20:15Z</time>
      </trkpt>
      <trkpt lat="49.10523" lon="6.12802">
        <ele>166.3</ele>
        <time>2021-07-28T16:20:16Z</time>
      </trkpt>
      <trkpt lat="49.10522" lon="6.12794">
        <ele>166.3</ele>
        <time>2021-07-28T16:20:18Z</time>
      </trkpt>
      <trkpt lat="49.10522" lon="6.12789">
        <ele>166.2</ele>
        <time>2021-07-28T16:20:19Z</time>
      </trkpt>
      <trkpt lat="49.10521" lon="6.12781">
        <ele>166.2</ele>
        <time>2021-07-28T16:20:21Z</time>
      </trkpt>
      <trkpt lat="49.1052" lon="6.12774">
        <ele>166.2</ele>
        <time>2021-07-28T16:20:22Z</time>
      </trkpt>
      <trkpt lat="49.10519" lon="6.12768">
        <ele>166.2</ele>
        <time>2021-07-28T16:20:23Z</time>
      </trkpt>
      <trkpt lat="49.10519" lon="6.12761">
        <ele>166.2</ele>
        <time>2021-07-28T16:20:24Z</time>
      </trkpt>
      <trkpt lat="49.10517" lon="6.12751">
        <ele>166.2</ele>
        <time>2021-07-28T16:20:26Z</time>
      </trkpt>
      <trkpt lat="49.10515" lon="6.12742">
        <ele>166.2</ele>
        <time>2021-07-28T16:20:28Z</time>
      </trkpt>
      <trkpt lat="49.10514" lon="6.12737">
        <ele>166.2</ele>
        <time>2021-07-28T16:20:29Z</time>
      </trkpt>
      <trkpt lat="49.10514" lon="6.12731">
        <ele>166.2</ele>
        <time>2021-07-28T16:20:30Z</time>
      </trkpt>
      <trkpt lat="49.10513" lon="6.12721">
        <ele>166.2</ele>
        <time>2021-07-28T16:20:32Z</time>
      </trkpt>
      <trkpt lat="49.10512" lon="6.12711">
        <ele>166.2</ele>
        <time>2021-07-28T16:20:34Z</time>
      </trkpt>
      <trkpt lat="49.10512" lon="6.12706">
        <ele>166.2</ele>
        <time>2021-07-28T16:20:35Z</time>
      </trkpt>
      <trkpt lat="49.10513" lon="6.12696">
        <ele>166.2</ele>
        <time>2021-07-28T16:20:37Z</time>
      </trkpt>
      <trkpt lat="49.10513" lon="6.1269">
        <ele>166.2</ele>
        <time>2021-07-28T16:20:38Z</time>
      </trkpt>
      <trkpt lat="49.10512" lon="6.12683">
        <ele>166.2</ele>
        <time>2021-07-28T16:20:39Z</time>
      </trkpt>
      <trkpt lat="49.10511" lon="6.12675">
        <ele>166.2</ele>
        <time>2021-07-28T16:20:40Z</time>
      </trkpt>
      <trkpt lat="49.10506" lon="6.12662">
        <ele>166.3</ele>
        <time>2021-07-28T16:20:41Z</time>
      </trkpt>
      <trkpt lat="49.10504" lon="6.12654">
        <ele>166.3</ele>
        <time>2021-07-28T16:20:42Z</time>
      </trkpt>
      <trkpt lat="49.10503" lon="6.12646">
        <ele>166.4</ele>
        <time>2021-07-28T16:20:43Z</time>
      </trkpt>
      <trkpt lat="49.10497" lon="6.12639">
        <ele>166.6</ele>
        <time>2021-07-28T16:20:45Z</time>
      </trkpt>
      <trkpt lat="49.10494" lon="6.12633">
        <ele>166.8</ele>
        <time>2021-07-28T16:20:46Z</time>
      </trkpt>
      <trkpt lat="49.10492" lon="6.12627">
        <ele>166.9</ele>
        <time>2021-07-28T16:20:47Z</time>
      </trkpt>
      <trkpt lat="49.10489" lon="6.1262">
        <ele>167.2</ele>
        <time>2021-07-28T16:20:48Z</time>
      </trkpt>
      <trkpt lat="49.10485" lon="6.12614">
        <ele>167.4</ele>
        <time>2021-07-28T16:20:49Z</time>
      </trkpt>
      <trkpt lat="49.10483" lon="6.12607">
        <ele>167.6</ele>
        <time>2021-07-28T16:20:51Z</time>
      </trkpt>
      <trkpt lat="49.10481" lon="6.12601">
        <ele>167.8</ele>
        <time>2021-07-28T16:20:52Z</time>
      </trkpt>
      <trkpt lat="49.1048" lon="6.12596">
        <ele>167.8</ele>
        <time>2021-07-28T16:20:53Z</time>
      </trkpt>
      <trkpt lat="49.10479" lon="6.1259">
        <ele>167.9</ele>
        <time>2021-07-28T16:20:55Z</time>
      </trkpt>
      <trkpt lat="49.10479" lon="6.12585">
        <ele>167.9</ele>
        <time>2021-07-28T16:20:56Z</time>
      </trkpt>
      <trkpt lat="49.1048" lon="6.1258">
        <ele>167.9</ele>
        <time>2021-07-28T16:20:57Z</time>
      </trkpt>
      <trkpt lat="49.1048" lon="6.12573">
        <ele>167.9</ele>
        <time>2021-07-28T16:20:59Z</time>
      </trkpt>
      <trkpt lat="49.10479" lon="6.12564">
        <ele>167.9</ele>
        <time>2021-07-28T16:21:01Z</time>
      </trkpt>
      <trkpt lat="49.10477" lon="6.12557">
        <ele>167.8</ele>
        <time>2021-07-28T16:21:02Z</time>
      </trkpt>
      <trkpt lat="49.10475" lon="6.12542">
        <ele>167.4</ele>
        <time>2021-07-28T16:21:04Z</time>
      </trkpt>
      <trkpt lat="49.10472" lon="6.12536">
        <ele>167.2</ele>
        <time>2021-07-28T16:21:05Z</time>
      </trkpt>
      <trkpt lat="49.10469" lon="6.12527">
        <ele>167</ele>
        <time>2021-07-28T16:21:06Z</time>
      </trkpt>
      <trkpt lat="49.10467" lon="6.12519">
        <ele>166.8</ele>
        <time>2021-07-28T16:21:07Z</time>
      </trkpt>
      <trkpt lat="49.10464" lon="6.12503">
        <ele>166.5</ele>
        <time>2021-07-28T16:21:09Z</time>
      </trkpt>
      <trkpt lat="49.10463" lon="6.12496">
        <ele>166.4</ele>
        <time>2021-07-28T16:21:10Z</time>
      </trkpt>
      <trkpt lat="49.10466" lon="6.12489">
        <ele>166.3</ele>
        <time>2021-07-28T16:21:12Z</time>
      </trkpt>
      <trkpt lat="49.10461" lon="6.12479">
        <ele>166.2</ele>
        <time>2021-07-28T16:21:14Z</time>
      </trkpt>
      <trkpt lat="49.10458" lon="6.12472">
        <ele>166.1</ele>
        <time>2021-07-28T16:21:15Z</time>
      </trkpt>
      <trkpt lat="49.10457" lon="6.12466">
        <ele>166</ele>
        <time>2021-07-28T16:21:16Z</time>
      </trkpt>
      <trkpt lat="49.10456" lon="6.1246">
        <ele>166</ele>
        <time>2021-07-28T16:21:17Z</time>
      </trkpt>
      <trkpt lat="49.10458" lon="6.12449">
        <ele>166</ele>
        <time>2021-07-28T16:21:18Z</time>
      </trkpt>
      <trkpt lat="49.10458" lon="6.12443">
        <ele>165.9</ele>
        <time>2021-07-28T16:21:19Z</time>
      </trkpt>
      <trkpt lat="49.10458" lon="6.12437">
        <ele>165.9</ele>
        <time>2021-07-28T16:21:20Z</time>
      </trkpt>
      <trkpt lat="49.10459" lon="6.12427">
        <ele>165.9</ele>
        <time>2021-07-28T16:21:22Z</time>
      </trkpt>
      <trkpt lat="49.10458" lon="6.12421">
        <ele>165.9</ele>
        <time>2021-07-28T16:21:23Z</time>
      </trkpt>
      <trkpt lat="49.10459" lon="6.12415">
        <ele>165.9</ele>
        <time>2021-07-28T16:21:24Z</time>
      </trkpt>
      <trkpt lat="49.10459" lon="6.12404">
        <ele>165.9</ele>
        <time>2021-07-28T16:21:26Z</time>
      </trkpt>
      <trkpt lat="49.10458" lon="6.12396">
        <ele>165.9</ele>
        <time>2021-07-28T16:21:28Z</time>
      </trkpt>
      <trkpt lat="49.10458" lon="6.12388">
        <ele>165.9</ele>
        <time>2021-07-28T16:21:29Z</time>
      </trkpt>
      <trkpt lat="49.10457" lon="6.12383">
        <ele>165.9</ele>
        <time>2021-07-28T16:21:30Z</time>
      </trkpt>
      <trkpt lat="49.10458" lon="6.12378">
        <ele>165.9</ele>
        <time>2021-07-28T16:21:31Z</time>
      </trkpt>
      <trkpt lat="49.1046" lon="6.12367">
        <ele>165.9</ele>
        <time>2021-07-28T16:21:33Z</time>
      </trkpt>
      <trkpt lat="49.1046" lon="6.12358">
        <ele>165.9</ele>
        <time>2021-07-28T16:21:35Z</time>
      </trkpt>
      <trkpt lat="49.10461" lon="6.12351">
        <ele>165.9</ele>
        <time>2021-07-28T16:21:36Z</time>
      </trkpt>
      <trkpt lat="49.10458" lon="6.12346">
        <ele>165.9</ele>
        <time>2021-07-28T16:21:38Z</time>
      </trkpt>
      <trkpt lat="49.10458" lon="6.12343">
        <ele>165.9</ele>
        <time>2021-07-28T16:21:39Z</time>
      </trkpt>
      <trkpt lat="49.10456" lon="6.12337">
        <ele>165.9</ele>
        <time>2021-07-28T16:21:40Z</time>
      </trkpt>
      <trkpt lat="49.10455" lon="6.12333">
        <ele>165.9</ele>
        <time>2021-07-28T16:21:41Z</time>
      </trkpt>
      <trkpt lat="49.10454" lon="6.12328">
        <ele>165.9</ele>
        <time>2021-07-28T16:21:42Z</time>
      </trkpt>
      <trkpt lat="49.10452" lon="6.12319">
        <ele>165.9</ele>
        <time>2021-07-28T16:21:44Z</time>
      </trkpt>
      <trkpt lat="49.10451" lon="6.12314">
        <ele>165.9</ele>
        <time>2021-07-28T16:21:45Z</time>
      </trkpt>
      <trkpt lat="49.10449" lon="6.1231">
        <ele>165.9</ele>
        <time>2021-07-28T16:21:46Z</time>
      </trkpt>
      <trkpt lat="49.10447" lon="6.12303">
        <ele>165.9</ele>
        <time>2021-07-28T16:21:48Z</time>
      </trkpt>
      <trkpt lat="49.10446" lon="6.12298">
        <ele>165.9</ele>
        <time>2021-07-28T16:21:49Z</time>
      </trkpt>
      <trkpt lat="49.10446" lon="6.12295">
        <ele>166</ele>
        <time>2021-07-28T16:21:50Z</time>
      </trkpt>
      <trkpt lat="49.10444" lon="6.12286">
        <ele>166</ele>
        <time>2021-07-28T16:21:52Z</time>
      </trkpt>
      <trkpt lat="49.10442" lon="6.1228">
        <ele>166</ele>
        <time>2021-07-28T16:21:53Z</time>
      </trkpt>
      <trkpt lat="49.10441" lon="6.12274">
        <ele>166</ele>
        <time>2021-07-28T16:21:54Z</time>
      </trkpt>
      <trkpt lat="49.10439" lon="6.12266">
        <ele>165.9</ele>
        <time>2021-07-28T16:21:55Z</time>
      </trkpt>
      <trkpt lat="49.10434" lon="6.12251">
        <ele>165.9</ele>
        <time>2021-07-28T16:21:57Z</time>
      </trkpt>
      <trkpt lat="49.10431" lon="6.12244">
        <ele>165.9</ele>
        <time>2021-07-28T16:21:59Z</time>
      </trkpt>
      <trkpt lat="49.10429" lon="6.12238">
        <ele>165.9</ele>
        <time>2021-07-28T16:22:00Z</time>
      </trkpt>
      <trkpt lat="49.10428" lon="6.12233">
        <ele>165.9</ele>
        <time>2021-07-28T16:22:01Z</time>
      </trkpt>
      <trkpt lat="49.10428" lon="6.12226">
        <ele>165.9</ele>
        <time>2021-07-28T16:22:03Z</time>
      </trkpt>
      <trkpt lat="49.10426" lon="6.1222">
        <ele>165.9</ele>
        <time>2021-07-28T16:22:04Z</time>
      </trkpt>
      <trkpt lat="49.10425" lon="6.12216">
        <ele>165.9</ele>
        <time>2021-07-28T16:22:05Z</time>
      </trkpt>
      <trkpt lat="49.10424" lon="6.12208">
        <ele>165.9</ele>
        <time>2021-07-28T16:22:07Z</time>
      </trkpt>
      <trkpt lat="49.10422" lon="6.12202">
        <ele>166</ele>
        <time>2021-07-28T16:22:09Z</time>
      </trkpt>
      <trkpt lat="49.1042" lon="6.12197">
        <ele>166</ele>
        <time>2021-07-28T16:22:10Z</time>
      </trkpt>
      <trkpt lat="49.10418" lon="6.12192">
        <ele>166</ele>
        <time>2021-07-28T16:22:12Z</time>
      </trkpt>
      <trkpt lat="49.10416" lon="6.12189">
        <ele>166</ele>
        <time>2021-07-28T16:22:13Z</time>
      </trkpt>
      <trkpt lat="49.10414" lon="6.12185">
        <ele>166.1</ele>
        <time>2021-07-28T16:22:15Z</time>
      </trkpt>
      <trkpt lat="49.10412" lon="6.12182">
        <ele>166.1</ele>
        <time>2021-07-28T16:22:16Z</time>
      </trkpt>
      <trkpt lat="49.10411" lon="6.12181">
        <ele>166.1</ele>
        <time>2021-07-28T16:22:17Z</time>
      </trkpt>
      <trkpt lat="49.10408" lon="6.12173">
        <ele>166.2</ele>
        <time>2021-07-28T16:22:18Z</time>
      </trkpt>
      <trkpt lat="49.10405" lon="6.12167">
        <ele>166.2</ele>
        <time>2021-07-28T16:22:20Z</time>
      </trkpt>
      <trkpt lat="49.10403" lon="6.12161">
        <ele>166.2</ele>
        <time>2021-07-28T16:22:21Z</time>
      </trkpt>
      <trkpt lat="49.10401" lon="6.12154">
        <ele>166.2</ele>
        <time>2021-07-28T16:22:22Z</time>
      </trkpt>
      <trkpt lat="49.10399" lon="6.12146">
        <ele>166.1</ele>
        <time>2021-07-28T16:22:23Z</time>
      </trkpt>
      <trkpt lat="49.10398" lon="6.1214">
        <ele>166.1</ele>
        <time>2021-07-28T16:22:24Z</time>
      </trkpt>
      <trkpt lat="49.10396" lon="6.12132">
        <ele>166.1</ele>
        <time>2021-07-28T16:22:26Z</time>
      </trkpt>
      <trkpt lat="49.10394" lon="6.12124">
        <ele>166.1</ele>
        <time>2021-07-28T16:22:27Z</time>
      </trkpt>
      <trkpt lat="49.10392" lon="6.12118">
        <ele>166.1</ele>
        <time>2021-07-28T16:22:28Z</time>
      </trkpt>
      <trkpt lat="49.1039" lon="6.12111">
        <ele>166.1</ele>
        <time>2021-07-28T16:22:29Z</time>
      </trkpt>
      <trkpt lat="49.10387" lon="6.12105">
        <ele>166.1</ele>
        <time>2021-07-28T16:22:30Z</time>
      </trkpt>
      <trkpt lat="49.10385" lon="6.12095">
        <ele>166.1</ele>
        <time>2021-07-28T16:22:32Z</time>
      </trkpt>
      <trkpt lat="49.10384" lon="6.12088">
        <ele>166.1</ele>
        <time>2021-07-28T16:22:33Z</time>
      </trkpt>
      <trkpt lat="49.10382" lon="6.12079">
        <ele>166.1</ele>
        <time>2021-07-28T16:22:34Z</time>
      </trkpt>
      <trkpt lat="49.10383" lon="6.12065">
        <ele>166.1</ele>
        <time>2021-07-28T16:22:36Z</time>
      </trkpt>
      <trkpt lat="49.10382" lon="6.12056">
        <ele>166.1</ele>
        <time>2021-07-28T16:22:37Z</time>
      </trkpt>
      <trkpt lat="49.1038" lon="6.12046">
        <ele>166.1</ele>
        <time>2021-07-28T16:22:39Z</time>
      </trkpt>
      <trkpt lat="49.10381" lon="6.12039">
        <ele>166.1</ele>
        <time>2021-07-28T16:22:40Z</time>
      </trkpt>
      <trkpt lat="49.10381" lon="6.12034">
        <ele>166.1</ele>
        <time>2021-07-28T16:22:41Z</time>
      </trkpt>
      <trkpt lat="49.1038" lon="6.1203">
        <ele>166.1</ele>
        <time>2021-07-28T16:22:42Z</time>
      </trkpt>
      <trkpt lat="49.1038" lon="6.12024">
        <ele>166.1</ele>
        <time>2021-07-28T16:22:44Z</time>
      </trkpt>
      <trkpt lat="49.10381" lon="6.12024">
        <ele>166.1</ele>
        <time>2021-07-28T16:22:45Z</time>
      </trkpt>
      <trkpt lat="49.10382" lon="6.12019">
        <ele>166.1</ele>
        <time>2021-07-28T16:22:47Z</time>
      </trkpt>
      <trkpt lat="49.10386" lon="6.12015">
        <ele>166.1</ele>
        <time>2021-07-28T16:22:49Z</time>
      </trkpt>
      <trkpt lat="49.10387" lon="6.12014">
        <ele>166.1</ele>
        <time>2021-07-28T16:22:50Z</time>
      </trkpt>
      <trkpt lat="49.1039" lon="6.12011">
        <ele>166.1</ele>
        <time>2021-07-28T16:22:52Z</time>
      </trkpt>
      <trkpt lat="49.10392" lon="6.12007">
        <ele>166.1</ele>
        <time>2021-07-28T16:22:53Z</time>
      </trkpt>
      <trkpt lat="49.10391" lon="6.11997">
        <ele>166.1</ele>
        <time>2021-07-28T16:22:55Z</time>
      </trkpt>
      <trkpt lat="49.1039" lon="6.11992">
        <ele>166.2</ele>
        <time>2021-07-28T16:22:56Z</time>
      </trkpt>
      <trkpt lat="49.10389" lon="6.11988">
        <ele>166.2</ele>
        <time>2021-07-28T16:22:58Z</time>
      </trkpt>
      <trkpt lat="49.10388" lon="6.11985">
        <ele>166.2</ele>
        <time>2021-07-28T16:22:59Z</time>
      </trkpt>
      <trkpt lat="49.10388" lon="6.11982">
        <ele>166.2</ele>
        <time>2021-07-28T16:23:01Z</time>
      </trkpt>
      <trkpt lat="49.10387" lon="6.1198">
        <ele>166.2</ele>
        <time>2021-07-28T16:23:02Z</time>
      </trkpt>
      <trkpt lat="49.10387" lon="6.11978">
        <ele>166.2</ele>
        <time>2021-07-28T16:23:03Z</time>
      </trkpt>
      <trkpt lat="49.10372" lon="6.11926">
        <ele>166.1</ele>
        <time>2021-07-28T16:23:14Z</time>
      </trkpt>
      <trkpt lat="49.10372" lon="6.11916">
        <ele>166.1</ele>
        <time>2021-07-28T16:23:15Z</time>
      </trkpt>
      <trkpt lat="49.10371" lon="6.11912">
        <ele>166.1</ele>
        <time>2021-07-28T16:23:16Z</time>
      </trkpt>
      <trkpt lat="49.10372" lon="6.11909">
        <ele>166.1</ele>
        <time>2021-07-28T16:23:17Z</time>
      </trkpt>
      <trkpt lat="49.10372" lon="6.11906">
        <ele>166.1</ele>
        <time>2021-07-28T16:23:18Z</time>
      </trkpt>
      <trkpt lat="49.10371" lon="6.11901">
        <ele>166.1</ele>
        <time>2021-07-28T16:23:19Z</time>
      </trkpt>
      <trkpt lat="49.1037" lon="6.11888">
        <ele>166.1</ele>
        <time>2021-07-28T16:23:21Z</time>
      </trkpt>
      <trkpt lat="49.10369" lon="6.11881">
        <ele>166.2</ele>
        <time>2021-07-28T16:23:22Z</time>
      </trkpt>
      <trkpt lat="49.10369" lon="6.11875">
        <ele>166.2</ele>
        <time>2021-07-28T16:23:23Z</time>
      </trkpt>
      <trkpt lat="49.10367" lon="6.11867">
        <ele>166.2</ele>
        <time>2021-07-28T16:23:25Z</time>
      </trkpt>
      <trkpt lat="49.10367" lon="6.11861">
        <ele>166.2</ele>
        <time>2021-07-28T16:23:26Z</time>
      </trkpt>
      <trkpt lat="49.10368" lon="6.11852">
        <ele>166.3</ele>
        <time>2021-07-28T16:23:28Z</time>
      </trkpt>
      <trkpt lat="49.10368" lon="6.11849">
        <ele>166.3</ele>
        <time>2021-07-28T16:23:29Z</time>
      </trkpt>
      <trkpt lat="49.1037" lon="6.11846">
        <ele>166.3</ele>
        <time>2021-07-28T16:23:31Z</time>
      </trkpt>
      <trkpt lat="49.10373" lon="6.11843">
        <ele>166.3</ele>
        <time>2021-07-28T16:23:32Z</time>
      </trkpt>
      <trkpt lat="49.10374" lon="6.11839">
        <ele>166.3</ele>
        <time>2021-07-28T16:23:33Z</time>
      </trkpt>
      <trkpt lat="49.10374" lon="6.11838">
        <ele>166.3</ele>
        <time>2021-07-28T16:23:34Z</time>
      </trkpt>
      <trkpt lat="49.10374" lon="6.11833">
        <ele>166.4</ele>
        <time>2021-07-28T16:23:35Z</time>
      </trkpt>
      <trkpt lat="49.10374" lon="6.11832">
        <ele>166.4</ele>
        <time>2021-07-28T16:23:36Z</time>
      </trkpt>
      <trkpt lat="49.10373" lon="6.11822">
        <ele>166.4</ele>
        <time>2021-07-28T16:23:38Z</time>
      </trkpt>
      <trkpt lat="49.10371" lon="6.11815">
        <ele>166.4</ele>
        <time>2021-07-28T16:23:39Z</time>
      </trkpt>
      <trkpt lat="49.10367" lon="6.11799">
        <ele>166.5</ele>
        <time>2021-07-28T16:23:41Z</time>
      </trkpt>
      <trkpt lat="49.10364" lon="6.1179">
        <ele>166.5</ele>
        <time>2021-07-28T16:23:42Z</time>
      </trkpt>
      <trkpt lat="49.10357" lon="6.11776">
        <ele>166.6</ele>
        <time>2021-07-28T16:23:44Z</time>
      </trkpt>
      <trkpt lat="49.10351" lon="6.11764">
        <ele>166.6</ele>
        <time>2021-07-28T16:23:46Z</time>
      </trkpt>
      <trkpt lat="49.10348" lon="6.11758">
        <ele>166.6</ele>
        <time>2021-07-28T16:23:47Z</time>
      </trkpt>
      <trkpt lat="49.10345" lon="6.11751">
        <ele>166.7</ele>
        <time>2021-07-28T16:23:48Z</time>
      </trkpt>
      <trkpt lat="49.10341" lon="6.1174">
        <ele>166.7</ele>
        <time>2021-07-28T16:23:49Z</time>
      </trkpt>
      <trkpt lat="49.10339" lon="6.11732">
        <ele>166.8</ele>
        <time>2021-07-28T16:23:51Z</time>
      </trkpt>
      <trkpt lat="49.10335" lon="6.11724">
        <ele>166.9</ele>
        <time>2021-07-28T16:23:52Z</time>
      </trkpt>
      <trkpt lat="49.1033" lon="6.11712">
        <ele>167</ele>
        <time>2021-07-28T16:23:53Z</time>
      </trkpt>
      <trkpt lat="49.10328" lon="6.11704">
        <ele>167</ele>
        <time>2021-07-28T16:23:54Z</time>
      </trkpt>
      <trkpt lat="49.10326" lon="6.11692">
        <ele>167.1</ele>
        <time>2021-07-28T16:23:56Z</time>
      </trkpt>
      <trkpt lat="49.10329" lon="6.11693">
        <ele>167.1</ele>
        <time>2021-07-28T16:23:58Z</time>
      </trkpt>
      <trkpt lat="49.10329" lon="6.11693">
        <ele>167.1</ele>
        <time>2021-07-28T16:23:59Z</time>
      </trkpt>
      <trkpt lat="49.10329" lon="6.11693">
        <ele>167.1</ele>
        <time>2021-07-28T16:24:00Z</time>
      </trkpt>
      <trkpt lat="49.10328" lon="6.11691">
        <ele>167.1</ele>
        <time>2021-07-28T16:24:01Z</time>
      </trkpt>
      <trkpt lat="49.10327" lon="6.11689">
        <ele>167.1</ele>
        <time>2021-07-28T16:24:02Z</time>
      </trkpt>
      <trkpt lat="49.10325" lon="6.11681">
        <ele>167.1</ele>
        <time>2021-07-28T16:24:04Z</time>
      </trkpt>
      <trkpt lat="49.10324" lon="6.11677">
        <ele>167.1</ele>
        <time>2021-07-28T16:24:05Z</time>
      </trkpt>
      <trkpt lat="49.10323" lon="6.1167">
        <ele>167.1</ele>
        <time>2021-07-28T16:24:06Z</time>
      </trkpt>
      <trkpt lat="49.1032" lon="6.1166">
        <ele>167.1</ele>
        <time>2021-07-28T16:24:08Z</time>
      </trkpt>
      <trkpt lat="49.10317" lon="6.11652">
        <ele>167.1</ele>
        <time>2021-07-28T16:24:09Z</time>
      </trkpt>
      <trkpt lat="49.10315" lon="6.11645">
        <ele>167.1</ele>
        <time>2021-07-28T16:24:10Z</time>
      </trkpt>
      <trkpt lat="49.10314" lon="6.11638">
        <ele>167.1</ele>
        <time>2021-07-28T16:24:11Z</time>
      </trkpt>
      <trkpt lat="49.10312" lon="6.11632">
        <ele>167.1</ele>
        <time>2021-07-28T16:24:12Z</time>
      </trkpt>
      <trkpt lat="49.1031" lon="6.11626">
        <ele>167.1</ele>
        <time>2021-07-28T16:24:13Z</time>
      </trkpt>
      <trkpt lat="49.10307" lon="6.11622">
        <ele>167.1</ele>
        <time>2021-07-28T16:24:14Z</time>
      </trkpt>
      <trkpt lat="49.10306" lon="6.11618">
        <ele>167.1</ele>
        <time>2021-07-28T16:24:15Z</time>
      </trkpt>
      <trkpt lat="49.10308" lon="6.11614">
        <ele>167.1</ele>
        <time>2021-07-28T16:24:16Z</time>
      </trkpt>
      <trkpt lat="49.1031" lon="6.11612">
        <ele>167.1</ele>
        <time>2021-07-28T16:24:17Z</time>
      </trkpt>
      <trkpt lat="49.10311" lon="6.11608">
        <ele>167.1</ele>
        <time>2021-07-28T16:24:18Z</time>
      </trkpt>
      <trkpt lat="49.1031" lon="6.11602">
        <ele>167.1</ele>
        <time>2021-07-28T16:24:20Z</time>
      </trkpt>
      <trkpt lat="49.10308" lon="6.11596">
        <ele>167.2</ele>
        <time>2021-07-28T16:24:21Z</time>
      </trkpt>
      <trkpt lat="49.10308" lon="6.11594">
        <ele>167.2</ele>
        <time>2021-07-28T16:24:22Z</time>
      </trkpt>
      <trkpt lat="49.10306" lon="6.1159">
        <ele>167.2</ele>
        <time>2021-07-28T16:24:23Z</time>
      </trkpt>
      <trkpt lat="49.10305" lon="6.11585">
        <ele>167.2</ele>
        <time>2021-07-28T16:24:24Z</time>
      </trkpt>
      <trkpt lat="49.10302" lon="6.11577">
        <ele>167.3</ele>
        <time>2021-07-28T16:24:26Z</time>
      </trkpt>
      <trkpt lat="49.103" lon="6.11567">
        <ele>167.3</ele>
        <time>2021-07-28T16:24:28Z</time>
      </trkpt>
      <trkpt lat="49.10302" lon="6.11558">
        <ele>167.4</ele>
        <time>2021-07-28T16:24:29Z</time>
      </trkpt>
      <trkpt lat="49.10302" lon="6.11552">
        <ele>167.4</ele>
        <time>2021-07-28T16:24:30Z</time>
      </trkpt>
      <trkpt lat="49.10302" lon="6.1155">
        <ele>167.4</ele>
        <time>2021-07-28T16:24:32Z</time>
      </trkpt>
      <trkpt lat="49.103" lon="6.11547">
        <ele>167.4</ele>
        <time>2021-07-28T16:24:34Z</time>
      </trkpt>
      <trkpt lat="49.10298" lon="6.11544">
        <ele>167.4</ele>
        <time>2021-07-28T16:24:35Z</time>
      </trkpt>
      <trkpt lat="49.10295" lon="6.11537">
        <ele>167.4</ele>
        <time>2021-07-28T16:24:37Z</time>
      </trkpt>
      <trkpt lat="49.10295" lon="6.11537">
        <ele>167.4</ele>
        <time>2021-07-28T16:24:37Z</time>
      </trkpt>
      <trkpt lat="49.10287" lon="6.11526">
        <ele>167.3</ele>
        <time>2021-07-28T16:24:39Z</time>
      </trkpt>
      <trkpt lat="49.1028" lon="6.11515">
        <ele>167.2</ele>
        <time>2021-07-28T16:24:41Z</time>
      </trkpt>
      <trkpt lat="49.10271" lon="6.11503">
        <ele>167.1</ele>
        <time>2021-07-28T16:24:43Z</time>
      </trkpt>
      <trkpt lat="49.10257" lon="6.11493">
        <ele>166.9</ele>
        <time>2021-07-28T16:24:45Z</time>
      </trkpt>
      <trkpt lat="49.10251" lon="6.11489">
        <ele>166.8</ele>
        <time>2021-07-28T16:24:46Z</time>
      </trkpt>
      <trkpt lat="49.10246" lon="6.11485">
        <ele>166.8</ele>
        <time>2021-07-28T16:24:47Z</time>
      </trkpt>
      <trkpt lat="49.10241" lon="6.1148">
        <ele>166.8</ele>
        <time>2021-07-28T16:24:48Z</time>
      </trkpt>
      <trkpt lat="49.10237" lon="6.11476">
        <ele>166.8</ele>
        <time>2021-07-28T16:24:49Z</time>
      </trkpt>
      <trkpt lat="49.1023" lon="6.11469">
        <ele>166.7</ele>
        <time>2021-07-28T16:24:51Z</time>
      </trkpt>
      <trkpt lat="49.10227" lon="6.11464">
        <ele>166.7</ele>
        <time>2021-07-28T16:24:52Z</time>
      </trkpt>
      <trkpt lat="49.10225" lon="6.11458">
        <ele>166.7</ele>
        <time>2021-07-28T16:24:53Z</time>
      </trkpt>
      <trkpt lat="49.10223" lon="6.11454">
        <ele>166.7</ele>
        <time>2021-07-28T16:24:54Z</time>
      </trkpt>
      <trkpt lat="49.10222" lon="6.1145">
        <ele>166.7</ele>
        <time>2021-07-28T16:24:55Z</time>
      </trkpt>
      <trkpt lat="49.1022" lon="6.11447">
        <ele>166.7</ele>
        <time>2021-07-28T16:24:56Z</time>
      </trkpt>
      <trkpt lat="49.10218" lon="6.11441">
        <ele>166.7</ele>
        <time>2021-07-28T16:24:58Z</time>
      </trkpt>
      <trkpt lat="49.10215" lon="6.11436">
        <ele>166.7</ele>
        <time>2021-07-28T16:24:59Z</time>
      </trkpt>
      <trkpt lat="49.10212" lon="6.1143">
        <ele>166.7</ele>
        <time>2021-07-28T16:25:00Z</time>
      </trkpt>
      <trkpt lat="49.10207" lon="6.11426">
        <ele>166.7</ele>
        <time>2021-07-28T16:25:01Z</time>
      </trkpt>
      <trkpt lat="49.10203" lon="6.11422">
        <ele>166.7</ele>
        <time>2021-07-28T16:25:02Z</time>
      </trkpt>
      <trkpt lat="49.102" lon="6.11418">
        <ele>166.7</ele>
        <time>2021-07-28T16:25:03Z</time>
      </trkpt>
      <trkpt lat="49.10197" lon="6.11415">
        <ele>166.7</ele>
        <time>2021-07-28T16:25:04Z</time>
      </trkpt>
      <trkpt lat="49.10192" lon="6.11411">
        <ele>166.7</ele>
        <time>2021-07-28T16:25:05Z</time>
      </trkpt>
      <trkpt lat="49.10189" lon="6.11407">
        <ele>166.7</ele>
        <time>2021-07-28T16:25:06Z</time>
      </trkpt>
      <trkpt lat="49.10183" lon="6.11397">
        <ele>166.7</ele>
        <time>2021-07-28T16:25:07Z</time>
      </trkpt>
      <trkpt lat="49.10183" lon="6.11391">
        <ele>166.7</ele>
        <time>2021-07-28T16:25:08Z</time>
      </trkpt>
      <trkpt lat="49.10181" lon="6.11384">
        <ele>166.7</ele>
        <time>2021-07-28T16:25:10Z</time>
      </trkpt>
      <trkpt lat="49.10178" lon="6.11376">
        <ele>166.7</ele>
        <time>2021-07-28T16:25:11Z</time>
      </trkpt>
      <trkpt lat="49.10176" lon="6.11371">
        <ele>166.7</ele>
        <time>2021-07-28T16:25:12Z</time>
      </trkpt>
      <trkpt lat="49.10171" lon="6.11363">
        <ele>166.7</ele>
        <time>2021-07-28T16:25:14Z</time>
      </trkpt>
      <trkpt lat="49.10168" lon="6.11358">
        <ele>166.7</ele>
        <time>2021-07-28T16:25:15Z</time>
      </trkpt>
      <trkpt lat="49.10163" lon="6.11351">
        <ele>166.6</ele>
        <time>2021-07-28T16:25:17Z</time>
      </trkpt>
      <trkpt lat="49.1016" lon="6.11347">
        <ele>166.6</ele>
        <time>2021-07-28T16:25:18Z</time>
      </trkpt>
      <trkpt lat="49.10156" lon="6.11344">
        <ele>166.6</ele>
        <time>2021-07-28T16:25:19Z</time>
      </trkpt>
      <trkpt lat="49.10152" lon="6.1134">
        <ele>166.6</ele>
        <time>2021-07-28T16:25:20Z</time>
      </trkpt>
      <trkpt lat="49.10147" lon="6.11333">
        <ele>166.5</ele>
        <time>2021-07-28T16:25:22Z</time>
      </trkpt>
      <trkpt lat="49.10145" lon="6.11331">
        <ele>166.5</ele>
        <time>2021-07-28T16:25:23Z</time>
      </trkpt>
      <trkpt lat="49.10145" lon="6.11327">
        <ele>166.5</ele>
        <time>2021-07-28T16:25:25Z</time>
      </trkpt>
      <trkpt lat="49.10145" lon="6.11324">
        <ele>166.5</ele>
        <time>2021-07-28T16:25:26Z</time>
      </trkpt>
      <trkpt lat="49.10144" lon="6.11322">
        <ele>166.5</ele>
        <time>2021-07-28T16:25:27Z</time>
      </trkpt>
      <trkpt lat="49.10142" lon="6.11318">
        <ele>166.5</ele>
        <time>2021-07-28T16:25:28Z</time>
      </trkpt>
      <trkpt lat="49.10141" lon="6.11316">
        <ele>166.5</ele>
        <time>2021-07-28T16:25:29Z</time>
      </trkpt>
      <trkpt lat="49.10138" lon="6.11313">
        <ele>166.5</ele>
        <time>2021-07-28T16:25:30Z</time>
      </trkpt>
      <trkpt lat="49.10136" lon="6.1131">
        <ele>166.5</ele>
        <time>2021-07-28T16:25:31Z</time>
      </trkpt>
      <trkpt lat="49.10136" lon="6.11307">
        <ele>166.5</ele>
        <time>2021-07-28T16:25:33Z</time>
      </trkpt>
      <trkpt lat="49.10136" lon="6.11306">
        <ele>166.5</ele>
        <time>2021-07-28T16:25:34Z</time>
      </trkpt>
      <trkpt lat="49.10135" lon="6.11305">
        <ele>166.5</ele>
        <time>2021-07-28T16:25:35Z</time>
      </trkpt>
      <trkpt lat="49.10135" lon="6.11305">
        <ele>166.5</ele>
        <time>2021-07-28T16:25:36Z</time>
      </trkpt>
      <trkpt lat="49.10136" lon="6.11303">
        <ele>166.4</ele>
        <time>2021-07-28T16:25:38Z</time>
      </trkpt>
      <trkpt lat="49.10136" lon="6.11302">
        <ele>166.4</ele>
        <time>2021-07-28T16:25:39Z</time>
      </trkpt>
      <trkpt lat="49.10137" lon="6.11298">
        <ele>166.4</ele>
        <time>2021-07-28T16:25:41Z</time>
      </trkpt>
      <trkpt lat="49.10133" lon="6.11275">
        <ele>166.9</ele>
        <time>2021-07-28T16:25:54Z</time>
      </trkpt>
      <trkpt lat="49.10131" lon="6.11269">
        <ele>166.9</ele>
        <time>2021-07-28T16:25:56Z</time>
      </trkpt>
      <trkpt lat="49.1013" lon="6.11265">
        <ele>166.9</ele>
        <time>2021-07-28T16:25:57Z</time>
      </trkpt>
      <trkpt lat="49.10129" lon="6.11258">
        <ele>167</ele>
        <time>2021-07-28T16:25:59Z</time>
      </trkpt>
      <trkpt lat="49.10128" lon="6.11253">
        <ele>167</ele>
        <time>2021-07-28T16:26:00Z</time>
      </trkpt>
      <trkpt lat="49.10128" lon="6.11251">
        <ele>167</ele>
        <time>2021-07-28T16:26:01Z</time>
      </trkpt>
      <trkpt lat="49.10127" lon="6.1125">
        <ele>167</ele>
        <time>2021-07-28T16:26:02Z</time>
      </trkpt>
      <trkpt lat="49.10127" lon="6.11248">
        <ele>167</ele>
        <time>2021-07-28T16:26:05Z</time>
      </trkpt>
      <trkpt lat="49.10127" lon="6.11247">
        <ele>167</ele>
        <time>2021-07-28T16:26:07Z</time>
      </trkpt>
      <trkpt lat="49.10127" lon="6.11247">
        <ele>167</ele>
        <time>2021-07-28T16:26:08Z</time>
      </trkpt>
      <trkpt lat="49.10127" lon="6.11247">
        <ele>167</ele>
        <time>2021-07-28T16:26:10Z</time>
      </trkpt>
      <trkpt lat="49.10127" lon="6.11247">
        <ele>167</ele>
        <time>2021-07-28T16:26:11Z</time>
      </trkpt>
      <trkpt lat="49.10126" lon="6.11247">
        <ele>167</ele>
        <time>2021-07-28T16:26:12Z</time>
      </trkpt>
      <trkpt lat="49.10126" lon="6.11247">
        <ele>167.1</ele>
        <time>2021-07-28T16:26:13Z</time>
      </trkpt>
      <trkpt lat="49.10135" lon="6.11244">
        <ele>167.3</ele>
        <time>2021-07-28T16:26:15Z</time>
      </trkpt>
      <trkpt lat="49.10151" lon="6.1124">
        <ele>167.9</ele>
        <time>2021-07-28T16:26:16Z</time>
      </trkpt>
      <trkpt lat="49.10154" lon="6.11239">
        <ele>168.1</ele>
        <time>2021-07-28T16:26:17Z</time>
      </trkpt>
      <trkpt lat="49.10156" lon="6.11238">
        <ele>168.3</ele>
        <time>2021-07-28T16:26:18Z</time>
      </trkpt>
      <trkpt lat="49.10158" lon="6.11237">
        <ele>168.4</ele>
        <time>2021-07-28T16:26:20Z</time>
      </trkpt>
      <trkpt lat="49.10159" lon="6.11237">
        <ele>168.4</ele>
        <time>2021-07-28T16:26:22Z</time>
      </trkpt>
      <trkpt lat="49.10159" lon="6.11237">
        <ele>168.5</ele>
        <time>2021-07-28T16:26:23Z</time>
      </trkpt>
      <trkpt lat="49.1016" lon="6.11236">
        <ele>168.5</ele>
        <time>2021-07-28T16:26:25Z</time>
      </trkpt>
      <trkpt lat="49.10162" lon="6.11234">
        <ele>168.6</ele>
        <time>2021-07-28T16:26:27Z</time>
      </trkpt>
      <trkpt lat="49.10162" lon="6.11232">
        <ele>168.7</ele>
        <time>2021-07-28T16:26:28Z</time>
      </trkpt>
      <trkpt lat="49.10164" lon="6.1123">
        <ele>168.8</ele>
        <time>2021-07-28T16:26:30Z</time>
      </trkpt>
      <trkpt lat="49.10164" lon="6.1123">
        <ele>168.9</ele>
        <time>2021-07-28T16:26:32Z</time>
      </trkpt>
      <trkpt lat="49.10166" lon="6.11231">
        <ele>169</ele>
        <time>2021-07-28T16:26:34Z</time>
      </trkpt>
      <trkpt lat="49.10167" lon="6.11232">
        <ele>169</ele>
        <time>2021-07-28T16:26:36Z</time>
      </trkpt>
      <trkpt lat="49.10167" lon="6.11232">
        <ele>169.1</ele>
        <time>2021-07-28T16:26:37Z</time>
      </trkpt>
      <trkpt lat="49.10167" lon="6.11232">
        <ele>169.1</ele>
        <time>2021-07-28T16:26:39Z</time>
      </trkpt>
      <trkpt lat="49.10167" lon="6.11233">
        <ele>169.1</ele>
        <time>2021-07-28T16:26:41Z</time>
      </trkpt>
      <trkpt lat="49.10167" lon="6.11233">
        <ele>169.1</ele>
        <time>2021-07-28T16:26:42Z</time>
      </trkpt>
      <trkpt lat="49.10167" lon="6.11233">
        <ele>169.1</ele>
        <time>2021-07-28T16:26:43Z</time>
      </trkpt>
      <trkpt lat="49.10167" lon="6.11232">
        <ele>169.1</ele>
        <time>2021-07-28T16:26:45Z</time>
      </trkpt>
      <trkpt lat="49.10167" lon="6.11232">
        <ele>169.1</ele>
        <time>2021-07-28T16:26:47Z</time>
      </trkpt>
      <trkpt lat="49.10164" lon="6.11229">
        <ele>169.3</ele>
        <time>2021-07-28T16:26:50Z</time>
      </trkpt>
      <trkpt lat="49.10164" lon="6.11229">
        <ele>169.3</ele>
        <time>2021-07-28T16:26:52Z</time>
      </trkpt>
      <trkpt lat="49.10167" lon="6.11229">
        <ele>169.5</ele>
        <time>2021-07-28T16:26:53Z</time>
      </trkpt>
      <trkpt lat="49.10167" lon="6.11228">
        <ele>169.5</ele>
        <time>2021-07-28T16:26:54Z</time>
      </trkpt>
      <trkpt lat="49.10167" lon="6.11228">
        <ele>169.6</ele>
        <time>2021-07-28T16:26:56Z</time>
      </trkpt>
      <trkpt lat="49.10167" lon="6.11227">
        <ele>169.6</ele>
        <time>2021-07-28T16:26:59Z</time>
      </trkpt>
      <trkpt lat="49.10167" lon="6.11227">
        <ele>169.6</ele>
        <time>2021-07-28T16:27:00Z</time>
      </trkpt>
      <trkpt lat="49.10167" lon="6.11227">
        <ele>169.6</ele>
        <time>2021-07-28T16:27:01Z</time>
      </trkpt>
      <trkpt lat="49.10167" lon="6.11226">
        <ele>169.6</ele>
        <time>2021-07-28T16:27:02Z</time>
      </trkpt>
      <trkpt lat="49.10168" lon="6.11226">
        <ele>169.7</ele>
        <time>2021-07-28T16:27:04Z</time>
      </trkpt>
      <trkpt lat="49.10169" lon="6.11225">
        <ele>169.8</ele>
        <time>2021-07-28T16:27:05Z</time>
      </trkpt>
      <trkpt lat="49.1017" lon="6.11224">
        <ele>169.8</ele>
        <time>2021-07-28T16:27:07Z</time>
      </trkpt>
      <trkpt lat="49.1017" lon="6.11224">
        <ele>169.9</ele>
        <time>2021-07-28T16:27:08Z</time>
      </trkpt>
      <trkpt lat="49.10171" lon="6.11222">
        <ele>169.9</ele>
        <time>2021-07-28T16:27:09Z</time>
      </trkpt>
      <trkpt lat="49.10174" lon="6.11218">
        <ele>170.2</ele>
        <time>2021-07-28T16:27:11Z</time>
      </trkpt>
      <trkpt lat="49.10178" lon="6.11214">
        <ele>170.4</ele>
        <time>2021-07-28T16:27:12Z</time>
      </trkpt>
      <trkpt lat="49.10183" lon="6.11206">
        <ele>170.8</ele>
        <time>2021-07-28T16:27:14Z</time>
      </trkpt>
      <trkpt lat="49.10185" lon="6.11202">
        <ele>171</ele>
        <time>2021-07-28T16:27:15Z</time>
      </trkpt>
      <trkpt lat="49.10186" lon="6.11199">
        <ele>171.1</ele>
        <time>2021-07-28T16:27:16Z</time>
      </trkpt>
      <trkpt lat="49.10187" lon="6.11194">
        <ele>171.3</ele>
        <time>2021-07-28T16:27:18Z</time>
      </trkpt>
      <trkpt lat="49.10189" lon="6.1119">
        <ele>171.4</ele>
        <time>2021-07-28T16:27:19Z</time>
      </trkpt>
      <trkpt lat="49.10191" lon="6.11186">
        <ele>171.5</ele>
        <time>2021-07-28T16:27:21Z</time>
      </trkpt>
      <trkpt lat="49.10192" lon="6.11183">
        <ele>171.6</ele>
        <time>2021-07-28T16:27:22Z</time>
      </trkpt>
      <trkpt lat="49.10192" lon="6.11182">
        <ele>172.1</ele>
        <time>2021-07-28T16:27:23Z</time>
      </trkpt>
      <trkpt lat="49.10194" lon="6.11177">
        <ele>172.1</ele>
        <time>2021-07-28T16:27:24Z</time>
      </trkpt>
      <trkpt lat="49.10192" lon="6.11179">
        <ele>172.2</ele>
        <time>2021-07-28T16:27:26Z</time>
      </trkpt>
      <trkpt lat="49.10192" lon="6.11181">
        <ele>172.2</ele>
        <time>2021-07-28T16:27:28Z</time>
      </trkpt>
      <trkpt lat="49.10191" lon="6.11182">
        <ele>172.2</ele>
        <time>2021-07-28T16:27:29Z</time>
      </trkpt>
      <trkpt lat="49.10189" lon="6.11185">
        <ele>172.3</ele>
        <time>2021-07-28T16:27:30Z</time>
      </trkpt>
      <trkpt lat="49.10183" lon="6.11191">
        <ele>172.4</ele>
        <time>2021-07-28T16:27:32Z</time>
      </trkpt>
      <trkpt lat="49.1018" lon="6.11198">
        <ele>172.5</ele>
        <time>2021-07-28T16:27:34Z</time>
      </trkpt>
      <trkpt lat="49.10179" lon="6.11203">
        <ele>172.6</ele>
        <time>2021-07-28T16:27:35Z</time>
      </trkpt>
      <trkpt lat="49.10176" lon="6.1121">
        <ele>172.7</ele>
        <time>2021-07-28T16:27:37Z</time>
      </trkpt>
      <trkpt lat="49.10173" lon="6.11218">
        <ele>172.8</ele>
        <time>2021-07-28T16:27:39Z</time>
      </trkpt>
      <trkpt lat="49.10171" lon="6.11224">
        <ele>172.9</ele>
        <time>2021-07-28T16:27:41Z</time>
      </trkpt>
      <trkpt lat="49.10169" lon="6.11229">
        <ele>173</ele>
        <time>2021-07-28T16:27:43Z</time>
      </trkpt>
      <trkpt lat="49.10167" lon="6.11236">
        <ele>173.1</ele>
        <time>2021-07-28T16:27:45Z</time>
      </trkpt>
      <trkpt lat="49.10164" lon="6.11245">
        <ele>173.2</ele>
        <time>2021-07-28T16:27:47Z</time>
      </trkpt>
      <trkpt lat="49.10162" lon="6.1125">
        <ele>173.3</ele>
        <time>2021-07-28T16:27:48Z</time>
      </trkpt>
      <trkpt lat="49.10161" lon="6.11254">
        <ele>173.3</ele>
        <time>2021-07-28T16:27:49Z</time>
      </trkpt>
      <trkpt lat="49.1016" lon="6.11261">
        <ele>173.4</ele>
        <time>2021-07-28T16:27:51Z</time>
      </trkpt>
      <trkpt lat="49.10159" lon="6.11266">
        <ele>173.4</ele>
        <time>2021-07-28T16:27:52Z</time>
      </trkpt>
      <trkpt lat="49.10158" lon="6.11267">
        <ele>173.5</ele>
        <time>2021-07-28T16:27:53Z</time>
      </trkpt>
      <trkpt lat="49.10156" lon="6.1127">
        <ele>173.5</ele>
        <time>2021-07-28T16:27:54Z</time>
      </trkpt>
      <trkpt lat="49.10154" lon="6.11273">
        <ele>173.6</ele>
        <time>2021-07-28T16:27:55Z</time>
      </trkpt>
      <trkpt lat="49.10152" lon="6.11277">
        <ele>173.6</ele>
        <time>2021-07-28T16:27:56Z</time>
      </trkpt>
      <trkpt lat="49.10149" lon="6.11281">
        <ele>173.6</ele>
        <time>2021-07-28T16:27:58Z</time>
      </trkpt>
      <trkpt lat="49.10147" lon="6.11284">
        <ele>173.7</ele>
        <time>2021-07-28T16:27:59Z</time>
      </trkpt>
      <trkpt lat="49.10143" lon="6.11289">
        <ele>173.7</ele>
        <time>2021-07-28T16:28:00Z</time>
      </trkpt>
      <trkpt lat="49.1014" lon="6.11295">
        <ele>173.8</ele>
        <time>2021-07-28T16:28:02Z</time>
      </trkpt>
      <trkpt lat="49.10138" lon="6.11298">
        <ele>173.8</ele>
        <time>2021-07-28T16:28:03Z</time>
      </trkpt>
      <trkpt lat="49.10135" lon="6.11302">
        <ele>173.9</ele>
        <time>2021-07-28T16:28:04Z</time>
      </trkpt>
      <trkpt lat="49.10132" lon="6.11306">
        <ele>173.9</ele>
        <time>2021-07-28T16:28:06Z</time>
      </trkpt>
      <trkpt lat="49.1013" lon="6.11309">
        <ele>174</ele>
        <time>2021-07-28T16:28:07Z</time>
      </trkpt>
      <trkpt lat="49.10127" lon="6.11313">
        <ele>174</ele>
        <time>2021-07-28T16:28:08Z</time>
      </trkpt>
      <trkpt lat="49.10123" lon="6.11316">
        <ele>174.1</ele>
        <time>2021-07-28T16:28:09Z</time>
      </trkpt>
      <trkpt lat="49.10118" lon="6.1132">
        <ele>174.1</ele>
        <time>2021-07-28T16:28:11Z</time>
      </trkpt>
      <trkpt lat="49.10116" lon="6.11323">
        <ele>174.2</ele>
        <time>2021-07-28T16:28:12Z</time>
      </trkpt>
      <trkpt lat="49.10114" lon="6.11329">
        <ele>174.2</ele>
        <time>2021-07-28T16:28:13Z</time>
      </trkpt>
      <trkpt lat="49.10112" lon="6.11333">
        <ele>174.3</ele>
        <time>2021-07-28T16:28:14Z</time>
      </trkpt>
      <trkpt lat="49.1011" lon="6.11338">
        <ele>174.3</ele>
        <time>2021-07-28T16:28:15Z</time>
      </trkpt>
      <trkpt lat="49.10108" lon="6.11343">
        <ele>174.3</ele>
        <time>2021-07-28T16:28:16Z</time>
      </trkpt>
      <trkpt lat="49.10106" lon="6.11347">
        <ele>174.3</ele>
        <time>2021-07-28T16:28:17Z</time>
      </trkpt>
      <trkpt lat="49.10104" lon="6.11351">
        <ele>174.4</ele>
        <time>2021-07-28T16:28:18Z</time>
      </trkpt>
      <trkpt lat="49.10102" lon="6.11355">
        <ele>174.4</ele>
        <time>2021-07-28T16:28:19Z</time>
      </trkpt>
      <trkpt lat="49.10098" lon="6.11365">
        <ele>174.4</ele>
        <time>2021-07-28T16:28:21Z</time>
      </trkpt>
      <trkpt lat="49.10096" lon="6.1137">
        <ele>174.5</ele>
        <time>2021-07-28T16:28:22Z</time>
      </trkpt>
      <trkpt lat="49.10093" lon="6.1138">
        <ele>174.5</ele>
        <time>2021-07-28T16:28:24Z</time>
      </trkpt>
      <trkpt lat="49.1009" lon="6.11387">
        <ele>174.5</ele>
        <time>2021-07-28T16:28:25Z</time>
      </trkpt>
      <trkpt lat="49.10088" lon="6.11391">
        <ele>174.6</ele>
        <time>2021-07-28T16:28:26Z</time>
      </trkpt>
      <trkpt lat="49.10085" lon="6.11396">
        <ele>174.6</ele>
        <time>2021-07-28T16:28:28Z</time>
      </trkpt>
      <trkpt lat="49.10081" lon="6.11401">
        <ele>174.6</ele>
        <time>2021-07-28T16:28:29Z</time>
      </trkpt>
      <trkpt lat="49.10079" lon="6.11406">
        <ele>174.6</ele>
        <time>2021-07-28T16:28:30Z</time>
      </trkpt>
      <trkpt lat="49.10076" lon="6.11413">
        <ele>174.6</ele>
        <time>2021-07-28T16:28:32Z</time>
      </trkpt>
      <trkpt lat="49.10073" lon="6.11418">
        <ele>174.6</ele>
        <time>2021-07-28T16:28:33Z</time>
      </trkpt>
      <trkpt lat="49.1007" lon="6.11424">
        <ele>174.6</ele>
        <time>2021-07-28T16:28:34Z</time>
      </trkpt>
      <trkpt lat="49.10068" lon="6.11429">
        <ele>174.6</ele>
        <time>2021-07-28T16:28:35Z</time>
      </trkpt>
      <trkpt lat="49.10064" lon="6.11436">
        <ele>174.6</ele>
        <time>2021-07-28T16:28:37Z</time>
      </trkpt>
      <trkpt lat="49.10062" lon="6.1144">
        <ele>174.6</ele>
        <time>2021-07-28T16:28:38Z</time>
      </trkpt>
      <trkpt lat="49.10059" lon="6.11445">
        <ele>174.6</ele>
        <time>2021-07-28T16:28:39Z</time>
      </trkpt>
      <trkpt lat="49.10057" lon="6.11449">
        <ele>174.6</ele>
        <time>2021-07-28T16:28:40Z</time>
      </trkpt>
      <trkpt lat="49.10055" lon="6.11454">
        <ele>174.6</ele>
        <time>2021-07-28T16:28:41Z</time>
      </trkpt>
      <trkpt lat="49.10053" lon="6.11458">
        <ele>174.6</ele>
        <time>2021-07-28T16:28:42Z</time>
      </trkpt>
      <trkpt lat="49.10051" lon="6.11462">
        <ele>174.6</ele>
        <time>2021-07-28T16:28:43Z</time>
      </trkpt>
      <trkpt lat="49.10049" lon="6.11467">
        <ele>174.6</ele>
        <time>2021-07-28T16:28:44Z</time>
      </trkpt>
      <trkpt lat="49.10046" lon="6.11474">
        <ele>174.5</ele>
        <time>2021-07-28T16:28:45Z</time>
      </trkpt>
      <trkpt lat="49.10044" lon="6.11479">
        <ele>174.5</ele>
        <time>2021-07-28T16:28:46Z</time>
      </trkpt>
      <trkpt lat="49.10041" lon="6.11483">
        <ele>174.4</ele>
        <time>2021-07-28T16:28:47Z</time>
      </trkpt>
      <trkpt lat="49.10037" lon="6.11489">
        <ele>174.4</ele>
        <time>2021-07-28T16:28:49Z</time>
      </trkpt>
      <trkpt lat="49.10034" lon="6.11496">
        <ele>174.3</ele>
        <time>2021-07-28T16:28:50Z</time>
      </trkpt>
      <trkpt lat="49.10031" lon="6.115">
        <ele>174.3</ele>
        <time>2021-07-28T16:28:51Z</time>
      </trkpt>
      <trkpt lat="49.10029" lon="6.11506">
        <ele>174.2</ele>
        <time>2021-07-28T16:28:52Z</time>
      </trkpt>
      <trkpt lat="49.10027" lon="6.1151">
        <ele>174.2</ele>
        <time>2021-07-28T16:28:53Z</time>
      </trkpt>
      <trkpt lat="49.10024" lon="6.11515">
        <ele>174.1</ele>
        <time>2021-07-28T16:28:54Z</time>
      </trkpt>
      <trkpt lat="49.1002" lon="6.11524">
        <ele>174</ele>
        <time>2021-07-28T16:28:56Z</time>
      </trkpt>
      <trkpt lat="49.10015" lon="6.11528">
        <ele>174</ele>
        <time>2021-07-28T16:28:58Z</time>
      </trkpt>
      <trkpt lat="49.10011" lon="6.11533">
        <ele>173.9</ele>
        <time>2021-07-28T16:28:59Z</time>
      </trkpt>
      <trkpt lat="49.10009" lon="6.11534">
        <ele>173.7</ele>
        <time>2021-07-28T16:29:00Z</time>
      </trkpt>
      <trkpt lat="49.10001" lon="6.11535">
        <ele>173.1</ele>
        <time>2021-07-28T16:29:02Z</time>
      </trkpt>
      <trkpt lat="49.09995" lon="6.11529">
        <ele>172.5</ele>
        <time>2021-07-28T16:29:04Z</time>
      </trkpt>
      <trkpt lat="49.09993" lon="6.11525">
        <ele>172.1</ele>
        <time>2021-07-28T16:29:05Z</time>
      </trkpt>
      <trkpt lat="49.09989" lon="6.11512">
        <ele>171.1</ele>
        <time>2021-07-28T16:29:07Z</time>
      </trkpt>
      <trkpt lat="49.09988" lon="6.11484">
        <ele>169.8</ele>
        <time>2021-07-28T16:29:09Z</time>
      </trkpt>
      <trkpt lat="49.09987" lon="6.11473">
        <ele>169</ele>
        <time>2021-07-28T16:29:10Z</time>
      </trkpt>
      <trkpt lat="49.09988" lon="6.11463">
        <ele>168.6</ele>
        <time>2021-07-28T16:29:11Z</time>
      </trkpt>
      <trkpt lat="49.09989" lon="6.11454">
        <ele>168.1</ele>
        <time>2021-07-28T16:29:12Z</time>
      </trkpt>
      <trkpt lat="49.09994" lon="6.11441">
        <ele>167.4</ele>
        <time>2021-07-28T16:29:14Z</time>
      </trkpt>
      <trkpt lat="49.09998" lon="6.11432">
        <ele>166.9</ele>
        <time>2021-07-28T16:29:16Z</time>
      </trkpt>
      <trkpt lat="49.10003" lon="6.11432">
        <ele>166.6</ele>
        <time>2021-07-28T16:29:17Z</time>
      </trkpt>
      <trkpt lat="49.10007" lon="6.11424">
        <ele>166.5</ele>
        <time>2021-07-28T16:29:19Z</time>
      </trkpt>
      <trkpt lat="49.10009" lon="6.11417">
        <ele>166.5</ele>
        <time>2021-07-28T16:29:21Z</time>
      </trkpt>
      <trkpt lat="49.10011" lon="6.11414">
        <ele>166.4</ele>
        <time>2021-07-28T16:29:22Z</time>
      </trkpt>
      <trkpt lat="49.1001" lon="6.11411">
        <ele>166.4</ele>
        <time>2021-07-28T16:29:23Z</time>
      </trkpt>
      <trkpt lat="49.10009" lon="6.11411">
        <ele>166.4</ele>
        <time>2021-07-28T16:29:25Z</time>
      </trkpt>
      <trkpt lat="49.10008" lon="6.11411">
        <ele>166.4</ele>
        <time>2021-07-28T16:29:26Z</time>
      </trkpt>
      <trkpt lat="49.10005" lon="6.1141">
        <ele>166.4</ele>
        <time>2021-07-28T16:29:27Z</time>
      </trkpt>
      <trkpt lat="49.10003" lon="6.11405">
        <ele>166.3</ele>
        <time>2021-07-28T16:29:29Z</time>
      </trkpt>
      <trkpt lat="49.10001" lon="6.11399">
        <ele>166.3</ele>
        <time>2021-07-28T16:29:30Z</time>
      </trkpt>
      <trkpt lat="49.09991" lon="6.11396">
        <ele>166.2</ele>
        <time>2021-07-28T16:29:32Z</time>
      </trkpt>
      <trkpt lat="49.09983" lon="6.11391">
        <ele>166.2</ele>
        <time>2021-07-28T16:29:33Z</time>
      </trkpt>
      <trkpt lat="49.09976" lon="6.11386">
        <ele>166.2</ele>
        <time>2021-07-28T16:29:34Z</time>
      </trkpt>
      <trkpt lat="49.0997" lon="6.1138">
        <ele>166.1</ele>
        <time>2021-07-28T16:29:36Z</time>
      </trkpt>
      <trkpt lat="49.09967" lon="6.11375">
        <ele>166.1</ele>
        <time>2021-07-28T16:29:37Z</time>
      </trkpt>
      <trkpt lat="49.0996" lon="6.11364">
        <ele>166.1</ele>
        <time>2021-07-28T16:29:38Z</time>
      </trkpt>
      <trkpt lat="49.09958" lon="6.1136">
        <ele>166.1</ele>
        <time>2021-07-28T16:29:39Z</time>
      </trkpt>
      <trkpt lat="49.09957" lon="6.11358">
        <ele>166.1</ele>
        <time>2021-07-28T16:29:41Z</time>
      </trkpt>
      <trkpt lat="49.09956" lon="6.11357">
        <ele>166.1</ele>
        <time>2021-07-28T16:29:42Z</time>
      </trkpt>
      <trkpt lat="49.09955" lon="6.11357">
        <ele>166.1</ele>
        <time>2021-07-28T16:29:44Z</time>
      </trkpt>
      <trkpt lat="49.09955" lon="6.11356">
        <ele>166.1</ele>
        <time>2021-07-28T16:29:45Z</time>
      </trkpt>
      <trkpt lat="49.09952" lon="6.11355">
        <ele>166.1</ele>
        <time>2021-07-28T16:29:46Z</time>
      </trkpt>
      <trkpt lat="49.09947" lon="6.11351">
        <ele>166.1</ele>
        <time>2021-07-28T16:29:48Z</time>
      </trkpt>
      <trkpt lat="49.09945" lon="6.1135">
        <ele>166.1</ele>
        <time>2021-07-28T16:29:49Z</time>
      </trkpt>
      <trkpt lat="49.0977" lon="6.11086">
        <ele>167.1</ele>
        <time>2021-07-28T16:30:42Z</time>
      </trkpt>
      <trkpt lat="49.09766" lon="6.11084">
        <ele>167.1</ele>
        <time>2021-07-28T16:30:43Z</time>
      </trkpt>
      <trkpt lat="49.09761" lon="6.11081">
        <ele>167.3</ele>
        <time>2021-07-28T16:30:45Z</time>
      </trkpt>
      <trkpt lat="49.0976" lon="6.11081">
        <ele>167.3</ele>
        <time>2021-07-28T16:30:46Z</time>
      </trkpt>
      <trkpt lat="49.09757" lon="6.11086">
        <ele>167.4</ele>
        <time>2021-07-28T16:30:48Z</time>
      </trkpt>
      <trkpt lat="49.09756" lon="6.11089">
        <ele>167.4</ele>
        <time>2021-07-28T16:30:49Z</time>
      </trkpt>
      <trkpt lat="49.09756" lon="6.11089">
        <ele>167.4</ele>
        <time>2021-07-28T16:30:50Z</time>
      </trkpt>
      <trkpt lat="49.09755" lon="6.11088">
        <ele>167.4</ele>
        <time>2021-07-28T16:30:52Z</time>
      </trkpt>
      <trkpt lat="49.09754" lon="6.11074">
        <ele>167.6</ele>
        <time>2021-07-28T16:30:54Z</time>
      </trkpt>
      <trkpt lat="49.09753" lon="6.11057">
        <ele>167.7</ele>
        <time>2021-07-28T16:30:55Z</time>
      </trkpt>
      <trkpt lat="49.0975" lon="6.11029">
        <ele>167.9</ele>
        <time>2021-07-28T16:31:00Z</time>
      </trkpt>
      <trkpt lat="49.09744" lon="6.11022">
        <ele>167.9</ele>
        <time>2021-07-28T16:31:02Z</time>
      </trkpt>
      <trkpt lat="49.0974" lon="6.11014">
        <ele>168</ele>
        <time>2021-07-28T16:31:03Z</time>
      </trkpt>
      <trkpt lat="49.09739" lon="6.11011">
        <ele>168</ele>
        <time>2021-07-28T16:31:04Z</time>
      </trkpt>
      <trkpt lat="49.09736" lon="6.11002">
        <ele>168.1</ele>
        <time>2021-07-28T16:31:06Z</time>
      </trkpt>
      <trkpt lat="49.09736" lon="6.11001">
        <ele>168.1</ele>
        <time>2021-07-28T16:31:07Z</time>
      </trkpt>
      <trkpt lat="49.09735" lon="6.10999">
        <ele>168.1</ele>
        <time>2021-07-28T16:31:08Z</time>
      </trkpt>
      <trkpt lat="49.09734" lon="6.10997">
        <ele>168.1</ele>
        <time>2021-07-28T16:31:10Z</time>
      </trkpt>
      <trkpt lat="49.09733" lon="6.10996">
        <ele>168.1</ele>
        <time>2021-07-28T16:31:11Z</time>
      </trkpt>
      <trkpt lat="49.09732" lon="6.10993">
        <ele>168.1</ele>
        <time>2021-07-28T16:31:12Z</time>
      </trkpt>
      <trkpt lat="49.09732" lon="6.10993">
        <ele>168.1</ele>
        <time>2021-07-28T16:31:12Z</time>
      </trkpt>
      <trkpt lat="49.09731" lon="6.10986">
        <ele>168.2</ele>
        <time>2021-07-28T16:31:14Z</time>
      </trkpt>
      <trkpt lat="49.09731" lon="6.1098">
        <ele>168.2</ele>
        <time>2021-07-28T16:31:15Z</time>
      </trkpt>
      <trkpt lat="49.09729" lon="6.10974">
        <ele>168.3</ele>
        <time>2021-07-28T16:31:17Z</time>
      </trkpt>
      <trkpt lat="49.09728" lon="6.1097">
        <ele>168.3</ele>
        <time>2021-07-28T16:31:18Z</time>
      </trkpt>
      <trkpt lat="49.09726" lon="6.10964">
        <ele>168.3</ele>
        <time>2021-07-28T16:31:20Z</time>
      </trkpt>
      <trkpt lat="49.09724" lon="6.1096">
        <ele>168.3</ele>
        <time>2021-07-28T16:31:21Z</time>
      </trkpt>
      <trkpt lat="49.09723" lon="6.10955">
        <ele>168.3</ele>
        <time>2021-07-28T16:31:22Z</time>
      </trkpt>
      <trkpt lat="49.09722" lon="6.1095">
        <ele>168.3</ele>
        <time>2021-07-28T16:31:23Z</time>
      </trkpt>
      <trkpt lat="49.09721" lon="6.10943">
        <ele>168.3</ele>
        <time>2021-07-28T16:31:24Z</time>
      </trkpt>
      <trkpt lat="49.09719" lon="6.10929">
        <ele>168.3</ele>
        <time>2021-07-28T16:31:26Z</time>
      </trkpt>
      <trkpt lat="49.09712" lon="6.10919">
        <ele>168.3</ele>
        <time>2021-07-28T16:31:28Z</time>
      </trkpt>
      <trkpt lat="49.09705" lon="6.1091">
        <ele>168.3</ele>
        <time>2021-07-28T16:31:29Z</time>
      </trkpt>
      <trkpt lat="49.097" lon="6.10901">
        <ele>168.3</ele>
        <time>2021-07-28T16:31:30Z</time>
      </trkpt>
      <trkpt lat="49.09698" lon="6.10895">
        <ele>168.3</ele>
        <time>2021-07-28T16:31:31Z</time>
      </trkpt>
      <trkpt lat="49.09697" lon="6.1089">
        <ele>168.2</ele>
        <time>2021-07-28T16:31:32Z</time>
      </trkpt>
      <trkpt lat="49.09695" lon="6.10884">
        <ele>168.2</ele>
        <time>2021-07-28T16:31:34Z</time>
      </trkpt>
      <trkpt lat="49.09692" lon="6.10872">
        <ele>168.2</ele>
        <time>2021-07-28T16:31:35Z</time>
      </trkpt>
      <trkpt lat="49.09689" lon="6.10866">
        <ele>168.2</ele>
        <time>2021-07-28T16:31:36Z</time>
      </trkpt>
      <trkpt lat="49.09684" lon="6.10858">
        <ele>168.1</ele>
        <time>2021-07-28T16:31:38Z</time>
      </trkpt>
      <trkpt lat="49.0968" lon="6.10854">
        <ele>168.1</ele>
        <time>2021-07-28T16:31:39Z</time>
      </trkpt>
      <trkpt lat="49.09677" lon="6.10849">
        <ele>168.1</ele>
        <time>2021-07-28T16:31:40Z</time>
      </trkpt>
      <trkpt lat="49.09675" lon="6.10843">
        <ele>168.1</ele>
        <time>2021-07-28T16:31:41Z</time>
      </trkpt>
      <trkpt lat="49.09674" lon="6.10838">
        <ele>168</ele>
        <time>2021-07-28T16:31:42Z</time>
      </trkpt>
      <trkpt lat="49.09672" lon="6.10832">
        <ele>168</ele>
        <time>2021-07-28T16:31:43Z</time>
      </trkpt>
      <trkpt lat="49.09669" lon="6.10825">
        <ele>168</ele>
        <time>2021-07-28T16:31:44Z</time>
      </trkpt>
      <trkpt lat="49.09667" lon="6.10819">
        <ele>168</ele>
        <time>2021-07-28T16:31:45Z</time>
      </trkpt>
      <trkpt lat="49.09665" lon="6.1081">
        <ele>168</ele>
        <time>2021-07-28T16:31:47Z</time>
      </trkpt>
      <trkpt lat="49.09664" lon="6.10804">
        <ele>168</ele>
        <time>2021-07-28T16:31:48Z</time>
      </trkpt>
      <trkpt lat="49.09663" lon="6.10797">
        <ele>167.9</ele>
        <time>2021-07-28T16:31:49Z</time>
      </trkpt>
      <trkpt lat="49.09661" lon="6.10791">
        <ele>167.9</ele>
        <time>2021-07-28T16:31:50Z</time>
      </trkpt>
      <trkpt lat="49.09659" lon="6.10782">
        <ele>167.9</ele>
        <time>2021-07-28T16:31:52Z</time>
      </trkpt>
      <trkpt lat="49.09657" lon="6.10778">
        <ele>167.9</ele>
        <time>2021-07-28T16:31:53Z</time>
      </trkpt>
      <trkpt lat="49.09655" lon="6.10773">
        <ele>167.9</ele>
        <time>2021-07-28T16:31:54Z</time>
      </trkpt>
      <trkpt lat="49.09652" lon="6.10766">
        <ele>168</ele>
        <time>2021-07-28T16:31:56Z</time>
      </trkpt>
      <trkpt lat="49.0965" lon="6.10762">
        <ele>168</ele>
        <time>2021-07-28T16:31:57Z</time>
      </trkpt>
      <trkpt lat="49.09646" lon="6.10759">
        <ele>168</ele>
        <time>2021-07-28T16:31:58Z</time>
      </trkpt>
      <trkpt lat="49.09645" lon="6.10758">
        <ele>168</ele>
        <time>2021-07-28T16:31:59Z</time>
      </trkpt>
      <trkpt lat="49.09644" lon="6.10756">
        <ele>168</ele>
        <time>2021-07-28T16:32:00Z</time>
      </trkpt>
      <trkpt lat="49.09643" lon="6.10755">
        <ele>168</ele>
        <time>2021-07-28T16:32:02Z</time>
      </trkpt>
      <trkpt lat="49.09642" lon="6.10754">
        <ele>168</ele>
        <time>2021-07-28T16:32:03Z</time>
      </trkpt>
      <trkpt lat="49.0964" lon="6.10752">
        <ele>168</ele>
        <time>2021-07-28T16:32:04Z</time>
      </trkpt>
      <trkpt lat="49.09639" lon="6.10751">
        <ele>168</ele>
        <time>2021-07-28T16:32:05Z</time>
      </trkpt>
      <trkpt lat="49.09636" lon="6.10749">
        <ele>168</ele>
        <time>2021-07-28T16:32:06Z</time>
      </trkpt>
      <trkpt lat="49.09632" lon="6.10745">
        <ele>168</ele>
        <time>2021-07-28T16:32:08Z</time>
      </trkpt>
      <trkpt lat="49.0963" lon="6.10742">
        <ele>168</ele>
        <time>2021-07-28T16:32:09Z</time>
      </trkpt>
      <trkpt lat="49.09626" lon="6.10738">
        <ele>168</ele>
        <time>2021-07-28T16:32:11Z</time>
      </trkpt>
      <trkpt lat="49.09622" lon="6.10735">
        <ele>168</ele>
        <time>2021-07-28T16:32:12Z</time>
      </trkpt>
      <trkpt lat="49.09615" lon="6.10731">
        <ele>168</ele>
        <time>2021-07-28T16:32:14Z</time>
      </trkpt>
      <trkpt lat="49.09611" lon="6.10727">
        <ele>168</ele>
        <time>2021-07-28T16:32:15Z</time>
      </trkpt>
      <trkpt lat="49.09607" lon="6.10724">
        <ele>168</ele>
        <time>2021-07-28T16:32:16Z</time>
      </trkpt>
      <trkpt lat="49.09599" lon="6.1072">
        <ele>167.9</ele>
        <time>2021-07-28T16:32:18Z</time>
      </trkpt>
      <trkpt lat="49.09596" lon="6.10719">
        <ele>167.9</ele>
        <time>2021-07-28T16:32:19Z</time>
      </trkpt>
      <trkpt lat="49.0959" lon="6.10714">
        <ele>167.9</ele>
        <time>2021-07-28T16:32:21Z</time>
      </trkpt>
      <trkpt lat="49.09585" lon="6.10708">
        <ele>167.9</ele>
        <time>2021-07-28T16:32:23Z</time>
      </trkpt>
      <trkpt lat="49.09581" lon="6.10705">
        <ele>167.8</ele>
        <time>2021-07-28T16:32:24Z</time>
      </trkpt>
      <trkpt lat="49.09575" lon="6.10699">
        <ele>167.8</ele>
        <time>2021-07-28T16:32:26Z</time>
      </trkpt>
      <trkpt lat="49.09568" lon="6.10692">
        <ele>167.8</ele>
        <time>2021-07-28T16:32:28Z</time>
      </trkpt>
      <trkpt lat="49.09563" lon="6.10686">
        <ele>167.7</ele>
        <time>2021-07-28T16:32:30Z</time>
      </trkpt>
      <trkpt lat="49.09559" lon="6.10681">
        <ele>167.7</ele>
        <time>2021-07-28T16:32:32Z</time>
      </trkpt>
      <trkpt lat="49.09556" lon="6.10672">
        <ele>167.7</ele>
        <time>2021-07-28T16:32:34Z</time>
      </trkpt>
      <trkpt lat="49.09554" lon="6.10667">
        <ele>167.7</ele>
        <time>2021-07-28T16:32:35Z</time>
      </trkpt>
      <trkpt lat="49.09552" lon="6.10662">
        <ele>167.6</ele>
        <time>2021-07-28T16:32:36Z</time>
      </trkpt>
      <trkpt lat="49.09549" lon="6.10655">
        <ele>167.6</ele>
        <time>2021-07-28T16:32:38Z</time>
      </trkpt>
      <trkpt lat="49.09546" lon="6.1065">
        <ele>167.6</ele>
        <time>2021-07-28T16:32:39Z</time>
      </trkpt>
      <trkpt lat="49.09543" lon="6.10646">
        <ele>167.6</ele>
        <time>2021-07-28T16:32:40Z</time>
      </trkpt>
      <trkpt lat="49.09538" lon="6.10636">
        <ele>167.5</ele>
        <time>2021-07-28T16:32:42Z</time>
      </trkpt>
      <trkpt lat="49.09534" lon="6.10626">
        <ele>167.5</ele>
        <time>2021-07-28T16:32:44Z</time>
      </trkpt>
      <trkpt lat="49.09531" lon="6.10621">
        <ele>167.5</ele>
        <time>2021-07-28T16:32:45Z</time>
      </trkpt>
      <trkpt lat="49.09526" lon="6.10611">
        <ele>167.5</ele>
        <time>2021-07-28T16:32:47Z</time>
      </trkpt>
      <trkpt lat="49.09524" lon="6.10606">
        <ele>167.5</ele>
        <time>2021-07-28T16:32:48Z</time>
      </trkpt>
      <trkpt lat="49.09521" lon="6.10592">
        <ele>167.4</ele>
        <time>2021-07-28T16:32:50Z</time>
      </trkpt>
      <trkpt lat="49.09521" lon="6.10586">
        <ele>167.4</ele>
        <time>2021-07-28T16:32:51Z</time>
      </trkpt>
      <trkpt lat="49.0952" lon="6.10578">
        <ele>167.4</ele>
        <time>2021-07-28T16:32:53Z</time>
      </trkpt>
      <trkpt lat="49.09519" lon="6.10571">
        <ele>167.3</ele>
        <time>2021-07-28T16:32:54Z</time>
      </trkpt>
      <trkpt lat="49.09517" lon="6.10561">
        <ele>167.3</ele>
        <time>2021-07-28T16:32:56Z</time>
      </trkpt>
      <trkpt lat="49.09515" lon="6.10552">
        <ele>167.3</ele>
        <time>2021-07-28T16:32:58Z</time>
      </trkpt>
      <trkpt lat="49.09514" lon="6.10548">
        <ele>167.2</ele>
        <time>2021-07-28T16:32:59Z</time>
      </trkpt>
      <trkpt lat="49.09514" lon="6.10543">
        <ele>167.2</ele>
        <time>2021-07-28T16:33:00Z</time>
      </trkpt>
      <trkpt lat="49.09517" lon="6.10533">
        <ele>167.2</ele>
        <time>2021-07-28T16:33:02Z</time>
      </trkpt>
      <trkpt lat="49.09519" lon="6.10528">
        <ele>167.2</ele>
        <time>2021-07-28T16:33:03Z</time>
      </trkpt>
      <trkpt lat="49.09525" lon="6.10519">
        <ele>167.1</ele>
        <time>2021-07-28T16:33:05Z</time>
      </trkpt>
      <trkpt lat="49.09527" lon="6.10515">
        <ele>167.1</ele>
        <time>2021-07-28T16:33:06Z</time>
      </trkpt>
      <trkpt lat="49.09531" lon="6.10513">
        <ele>167.1</ele>
        <time>2021-07-28T16:33:07Z</time>
      </trkpt>
      <trkpt lat="49.09535" lon="6.10509">
        <ele>167.1</ele>
        <time>2021-07-28T16:33:09Z</time>
      </trkpt>
      <trkpt lat="49.09539" lon="6.10505">
        <ele>167.1</ele>
        <time>2021-07-28T16:33:10Z</time>
      </trkpt>
      <trkpt lat="49.09542" lon="6.10501">
        <ele>167</ele>
        <time>2021-07-28T16:33:11Z</time>
      </trkpt>
      <trkpt lat="49.09545" lon="6.10496">
        <ele>167</ele>
        <time>2021-07-28T16:33:12Z</time>
      </trkpt>
      <trkpt lat="49.09548" lon="6.10493">
        <ele>167</ele>
        <time>2021-07-28T16:33:13Z</time>
      </trkpt>
      <trkpt lat="49.09558" lon="6.10484">
        <ele>167</ele>
        <time>2021-07-28T16:33:14Z</time>
      </trkpt>
      <trkpt lat="49.0957" lon="6.10472">
        <ele>167</ele>
        <time>2021-07-28T16:33:16Z</time>
      </trkpt>
      <trkpt lat="49.09578" lon="6.10471">
        <ele>167</ele>
        <time>2021-07-28T16:33:18Z</time>
      </trkpt>
      <trkpt lat="49.09583" lon="6.10462">
        <ele>167.1</ele>
        <time>2021-07-28T16:33:19Z</time>
      </trkpt>
      <trkpt lat="49.09585" lon="6.10455">
        <ele>167.1</ele>
        <time>2021-07-28T16:33:21Z</time>
      </trkpt>
      <trkpt lat="49.09589" lon="6.10444">
        <ele>167.2</ele>
        <time>2021-07-28T16:33:23Z</time>
      </trkpt>
      <trkpt lat="49.0959" lon="6.10438">
        <ele>167.2</ele>
        <time>2021-07-28T16:33:24Z</time>
      </trkpt>
      <trkpt lat="49.09593" lon="6.10432">
        <ele>167.2</ele>
        <time>2021-07-28T16:33:25Z</time>
      </trkpt>
      <trkpt lat="49.09597" lon="6.10428">
        <ele>167.2</ele>
        <time>2021-07-28T16:33:26Z</time>
      </trkpt>
      <trkpt lat="49.096" lon="6.10424">
        <ele>167.3</ele>
        <time>2021-07-28T16:33:27Z</time>
      </trkpt>
      <trkpt lat="49.096" lon="6.10425">
        <ele>167.3</ele>
        <time>2021-07-28T16:33:28Z</time>
      </trkpt>
      <trkpt lat="49.09599" lon="6.10426">
        <ele>167.3</ele>
        <time>2021-07-28T16:33:29Z</time>
      </trkpt>
      <trkpt lat="49.096" lon="6.10423">
        <ele>167.3</ele>
        <time>2021-07-28T16:33:30Z</time>
      </trkpt>
      <trkpt lat="49.09601" lon="6.10421">
        <ele>167.3</ele>
        <time>2021-07-28T16:33:31Z</time>
      </trkpt>
      <trkpt lat="49.09601" lon="6.10419">
        <ele>167.3</ele>
        <time>2021-07-28T16:33:32Z</time>
      </trkpt>
      <trkpt lat="49.09601" lon="6.10417">
        <ele>167.3</ele>
        <time>2021-07-28T16:33:33Z</time>
      </trkpt>
      <trkpt lat="49.09601" lon="6.10414">
        <ele>167.4</ele>
        <time>2021-07-28T16:33:34Z</time>
      </trkpt>
      <trkpt lat="49.09602" lon="6.10409">
        <ele>167.4</ele>
        <time>2021-07-28T16:33:35Z</time>
      </trkpt>
      <trkpt lat="49.09603" lon="6.10407">
        <ele>167.4</ele>
        <time>2021-07-28T16:33:36Z</time>
      </trkpt>
      <trkpt lat="49.09608" lon="6.10397">
        <ele>167.5</ele>
        <time>2021-07-28T16:33:38Z</time>
      </trkpt>
      <trkpt lat="49.09616" lon="6.10212">
        <ele>166.8</ele>
        <time>2021-07-28T16:34:13Z</time>
      </trkpt>
      <trkpt lat="49.0961" lon="6.10207">
        <ele>166.8</ele>
        <time>2021-07-28T16:34:14Z</time>
      </trkpt>
      <trkpt lat="49.09593" lon="6.10197">
        <ele>166.8</ele>
        <time>2021-07-28T16:34:15Z</time>
      </trkpt>
      <trkpt lat="49.09584" lon="6.10192">
        <ele>166.7</ele>
        <time>2021-07-28T16:34:17Z</time>
      </trkpt>
      <trkpt lat="49.09577" lon="6.10186">
        <ele>166.7</ele>
        <time>2021-07-28T16:34:18Z</time>
      </trkpt>
      <trkpt lat="49.09572" lon="6.10182">
        <ele>166.7</ele>
        <time>2021-07-28T16:34:19Z</time>
      </trkpt>
      <trkpt lat="49.09556" lon="6.10169">
        <ele>166.7</ele>
        <time>2021-07-28T16:34:21Z</time>
      </trkpt>
      <trkpt lat="49.09553" lon="6.10166">
        <ele>166.7</ele>
        <time>2021-07-28T16:34:22Z</time>
      </trkpt>
      <trkpt lat="49.0955" lon="6.10163">
        <ele>166.7</ele>
        <time>2021-07-28T16:34:23Z</time>
      </trkpt>
      <trkpt lat="49.09546" lon="6.10163">
        <ele>166.7</ele>
        <time>2021-07-28T16:34:24Z</time>
      </trkpt>
      <trkpt lat="49.09543" lon="6.10163">
        <ele>166.7</ele>
        <time>2021-07-28T16:34:25Z</time>
      </trkpt>
      <trkpt lat="49.09539" lon="6.10162">
        <ele>166.7</ele>
        <time>2021-07-28T16:34:26Z</time>
      </trkpt>
      <trkpt lat="49.09534" lon="6.10162">
        <ele>166.7</ele>
        <time>2021-07-28T16:34:28Z</time>
      </trkpt>
      <trkpt lat="49.0953" lon="6.1016">
        <ele>166.7</ele>
        <time>2021-07-28T16:34:29Z</time>
      </trkpt>
      <trkpt lat="49.09527" lon="6.10156">
        <ele>166.7</ele>
        <time>2021-07-28T16:34:30Z</time>
      </trkpt>
      <trkpt lat="49.09526" lon="6.10154">
        <ele>166.7</ele>
        <time>2021-07-28T16:34:31Z</time>
      </trkpt>
      <trkpt lat="49.09521" lon="6.10148">
        <ele>166.7</ele>
        <time>2021-07-28T16:34:32Z</time>
      </trkpt>
      <trkpt lat="49.09515" lon="6.10138">
        <ele>166.7</ele>
        <time>2021-07-28T16:34:33Z</time>
      </trkpt>
      <trkpt lat="49.09511" lon="6.10131">
        <ele>166.7</ele>
        <time>2021-07-28T16:34:34Z</time>
      </trkpt>
      <trkpt lat="49.09507" lon="6.10123">
        <ele>166.7</ele>
        <time>2021-07-28T16:34:35Z</time>
      </trkpt>
      <trkpt lat="49.09503" lon="6.10115">
        <ele>166.7</ele>
        <time>2021-07-28T16:34:36Z</time>
      </trkpt>
      <trkpt lat="49.09497" lon="6.10096">
        <ele>166.7</ele>
        <time>2021-07-28T16:34:37Z</time>
      </trkpt>
      <trkpt lat="49.09493" lon="6.10091">
        <ele>166.8</ele>
        <time>2021-07-28T16:34:38Z</time>
      </trkpt>
      <trkpt lat="49.09491" lon="6.10082">
        <ele>166.8</ele>
        <time>2021-07-28T16:34:40Z</time>
      </trkpt>
      <trkpt lat="49.09492" lon="6.10084">
        <ele>166.8</ele>
        <time>2021-07-28T16:34:41Z</time>
      </trkpt>
      <trkpt lat="49.0949" lon="6.10082">
        <ele>166.8</ele>
        <time>2021-07-28T16:34:42Z</time>
      </trkpt>
      <trkpt lat="49.09488" lon="6.1008">
        <ele>166.8</ele>
        <time>2021-07-28T16:34:43Z</time>
      </trkpt>
      <trkpt lat="49.09483" lon="6.10078">
        <ele>166.8</ele>
        <time>2021-07-28T16:34:45Z</time>
      </trkpt>
      <trkpt lat="49.09481" lon="6.10075">
        <ele>166.8</ele>
        <time>2021-07-28T16:34:46Z</time>
      </trkpt>
      <trkpt lat="49.09478" lon="6.10073">
        <ele>166.8</ele>
        <time>2021-07-28T16:34:47Z</time>
      </trkpt>
      <trkpt lat="49.09471" lon="6.10069">
        <ele>166.8</ele>
        <time>2021-07-28T16:34:49Z</time>
      </trkpt>
      <trkpt lat="49.09466" lon="6.10066">
        <ele>166.9</ele>
        <time>2021-07-28T16:34:50Z</time>
      </trkpt>
      <trkpt lat="49.09462" lon="6.10063">
        <ele>166.9</ele>
        <time>2021-07-28T16:34:52Z</time>
      </trkpt>
      <trkpt lat="49.09458" lon="6.1006">
        <ele>166.9</ele>
        <time>2021-07-28T16:34:53Z</time>
      </trkpt>
      <trkpt lat="49.09454" lon="6.10057">
        <ele>166.9</ele>
        <time>2021-07-28T16:34:54Z</time>
      </trkpt>
      <trkpt lat="49.09449" lon="6.10054">
        <ele>166.9</ele>
        <time>2021-07-28T16:34:55Z</time>
      </trkpt>
      <trkpt lat="49.09445" lon="6.10051">
        <ele>166.9</ele>
        <time>2021-07-28T16:34:56Z</time>
      </trkpt>
      <trkpt lat="49.0944" lon="6.10048">
        <ele>166.9</ele>
        <time>2021-07-28T16:34:57Z</time>
      </trkpt>
      <trkpt lat="49.09436" lon="6.10044">
        <ele>166.9</ele>
        <time>2021-07-28T16:34:58Z</time>
      </trkpt>
      <trkpt lat="49.09428" lon="6.10035">
        <ele>166.9</ele>
        <time>2021-07-28T16:35:00Z</time>
      </trkpt>
      <trkpt lat="49.09423" lon="6.10029">
        <ele>166.9</ele>
        <time>2021-07-28T16:35:02Z</time>
      </trkpt>
      <trkpt lat="49.0942" lon="6.10027">
        <ele>166.9</ele>
        <time>2021-07-28T16:35:03Z</time>
      </trkpt>
      <trkpt lat="49.09416" lon="6.10025">
        <ele>166.9</ele>
        <time>2021-07-28T16:35:04Z</time>
      </trkpt>
      <trkpt lat="49.09413" lon="6.10023">
        <ele>166.9</ele>
        <time>2021-07-28T16:35:05Z</time>
      </trkpt>
      <trkpt lat="49.09409" lon="6.10022">
        <ele>166.9</ele>
        <time>2021-07-28T16:35:06Z</time>
      </trkpt>
      <trkpt lat="49.09406" lon="6.10022">
        <ele>166.9</ele>
        <time>2021-07-28T16:35:07Z</time>
      </trkpt>
      <trkpt lat="49.09404" lon="6.10022">
        <ele>166.9</ele>
        <time>2021-07-28T16:35:08Z</time>
      </trkpt>
      <trkpt lat="49.09399" lon="6.10025">
        <ele>166.9</ele>
        <time>2021-07-28T16:35:10Z</time>
      </trkpt>
      <trkpt lat="49.09396" lon="6.10025">
        <ele>166.9</ele>
        <time>2021-07-28T16:35:11Z</time>
      </trkpt>
      <trkpt lat="49.09391" lon="6.10025">
        <ele>166.9</ele>
        <time>2021-07-28T16:35:13Z</time>
      </trkpt>
      <trkpt lat="49.0939" lon="6.10024">
        <ele>166.9</ele>
        <time>2021-07-28T16:35:14Z</time>
      </trkpt>
      <trkpt lat="49.09385" lon="6.10021">
        <ele>166.9</ele>
        <time>2021-07-28T16:35:16Z</time>
      </trkpt>
      <trkpt lat="49.09382" lon="6.10022">
        <ele>166.9</ele>
        <time>2021-07-28T16:35:17Z</time>
      </trkpt>
      <trkpt lat="49.09381" lon="6.10022">
        <ele>166.9</ele>
        <time>2021-07-28T16:35:18Z</time>
      </trkpt>
      <trkpt lat="49.09377" lon="6.10022">
        <ele>166.9</ele>
        <time>2021-07-28T16:35:20Z</time>
      </trkpt>
      <trkpt lat="49.09372" lon="6.1002">
        <ele>166.9</ele>
        <time>2021-07-28T16:35:21Z</time>
      </trkpt>
      <trkpt lat="49.09369" lon="6.10019">
        <ele>166.9</ele>
        <time>2021-07-28T16:35:22Z</time>
      </trkpt>
      <trkpt lat="49.09367" lon="6.10018">
        <ele>166.9</ele>
        <time>2021-07-28T16:35:23Z</time>
      </trkpt>
      <trkpt lat="49.09365" lon="6.10017">
        <ele>166.9</ele>
        <time>2021-07-28T16:35:24Z</time>
      </trkpt>
      <trkpt lat="49.09363" lon="6.10017">
        <ele>166.9</ele>
        <time>2021-07-28T16:35:25Z</time>
      </trkpt>
      <trkpt lat="49.09356" lon="6.10013">
        <ele>166.9</ele>
        <time>2021-07-28T16:35:26Z</time>
      </trkpt>
      <trkpt lat="49.09349" lon="6.1001">
        <ele>166.9</ele>
        <time>2021-07-28T16:35:28Z</time>
      </trkpt>
      <trkpt lat="49.09344" lon="6.10007">
        <ele>166.9</ele>
        <time>2021-07-28T16:35:29Z</time>
      </trkpt>
      <trkpt lat="49.09341" lon="6.10006">
        <ele>166.9</ele>
        <time>2021-07-28T16:35:30Z</time>
      </trkpt>
      <trkpt lat="49.09332" lon="6.09998">
        <ele>167</ele>
        <time>2021-07-28T16:35:32Z</time>
      </trkpt>
      <trkpt lat="49.09332" lon="6.09998">
        <ele>167</ele>
        <time>2021-07-28T16:35:32Z</time>
      </trkpt>
      <trkpt lat="49.09327" lon="6.09996">
        <ele>167</ele>
        <time>2021-07-28T16:35:33Z</time>
      </trkpt>
      <trkpt lat="49.09324" lon="6.09998">
        <ele>167</ele>
        <time>2021-07-28T16:35:34Z</time>
      </trkpt>
      <trkpt lat="49.09323" lon="6.09999">
        <ele>167</ele>
        <time>2021-07-28T16:35:35Z</time>
      </trkpt>
      <trkpt lat="49.09317" lon="6.10001">
        <ele>167</ele>
        <time>2021-07-28T16:35:36Z</time>
      </trkpt>
      <trkpt lat="49.09312" lon="6.10001">
        <ele>167</ele>
        <time>2021-07-28T16:35:37Z</time>
      </trkpt>
      <trkpt lat="49.09306" lon="6.10002">
        <ele>167</ele>
        <time>2021-07-28T16:35:38Z</time>
      </trkpt>
      <trkpt lat="49.09301" lon="6.10002">
        <ele>167</ele>
        <time>2021-07-28T16:35:40Z</time>
      </trkpt>
      <trkpt lat="49.09298" lon="6.10002">
        <ele>167</ele>
        <time>2021-07-28T16:35:41Z</time>
      </trkpt>
      <trkpt lat="49.09294" lon="6.10001">
        <ele>167</ele>
        <time>2021-07-28T16:35:42Z</time>
      </trkpt>
      <trkpt lat="49.0929" lon="6.10001">
        <ele>167</ele>
        <time>2021-07-28T16:35:44Z</time>
      </trkpt>
      <trkpt lat="49.09286" lon="6.10001">
        <ele>167</ele>
        <time>2021-07-28T16:35:45Z</time>
      </trkpt>
      <trkpt lat="49.09282" lon="6.09999">
        <ele>167</ele>
        <time>2021-07-28T16:35:46Z</time>
      </trkpt>
      <trkpt lat="49.09279" lon="6.09996">
        <ele>167.1</ele>
        <time>2021-07-28T16:35:47Z</time>
      </trkpt>
      <trkpt lat="49.09278" lon="6.09993">
        <ele>167.1</ele>
        <time>2021-07-28T16:35:48Z</time>
      </trkpt>
      <trkpt lat="49.09274" lon="6.09988">
        <ele>167.1</ele>
        <time>2021-07-28T16:35:50Z</time>
      </trkpt>
      <trkpt lat="49.09272" lon="6.09986">
        <ele>167.1</ele>
        <time>2021-07-28T16:35:51Z</time>
      </trkpt>
      <trkpt lat="49.09269" lon="6.09983">
        <ele>167.1</ele>
        <time>2021-07-28T16:35:52Z</time>
      </trkpt>
      <trkpt lat="49.09268" lon="6.09982">
        <ele>167.1</ele>
        <time>2021-07-28T16:35:53Z</time>
      </trkpt>
      <trkpt lat="49.09265" lon="6.09979">
        <ele>167.1</ele>
        <time>2021-07-28T16:35:55Z</time>
      </trkpt>
      <trkpt lat="49.09264" lon="6.09978">
        <ele>167.1</ele>
        <time>2021-07-28T16:35:56Z</time>
      </trkpt>
      <trkpt lat="49.09263" lon="6.09976">
        <ele>167.1</ele>
        <time>2021-07-28T16:35:57Z</time>
      </trkpt>
      <trkpt lat="49.09254" lon="6.09967">
        <ele>167.1</ele>
        <time>2021-07-28T16:36:02Z</time>
      </trkpt>
      <trkpt lat="49.09249" lon="6.09967">
        <ele>167.1</ele>
        <time>2021-07-28T16:36:03Z</time>
      </trkpt>
      <trkpt lat="49.09242" lon="6.09961">
        <ele>167.1</ele>
        <time>2021-07-28T16:36:04Z</time>
      </trkpt>
      <trkpt lat="49.09233" lon="6.09956">
        <ele>167.1</ele>
        <time>2021-07-28T16:36:05Z</time>
      </trkpt>
      <trkpt lat="49.09221" lon="6.09949">
        <ele>167.2</ele>
        <time>2021-07-28T16:36:07Z</time>
      </trkpt>
      <trkpt lat="49.09214" lon="6.09946">
        <ele>167.2</ele>
        <time>2021-07-28T16:36:08Z</time>
      </trkpt>
      <trkpt lat="49.09208" lon="6.09943">
        <ele>167.2</ele>
        <time>2021-07-28T16:36:09Z</time>
      </trkpt>
      <trkpt lat="49.09202" lon="6.09943">
        <ele>167.1</ele>
        <time>2021-07-28T16:36:11Z</time>
      </trkpt>
      <trkpt lat="49.092" lon="6.09944">
        <ele>167.1</ele>
        <time>2021-07-28T16:36:12Z</time>
      </trkpt>
      <trkpt lat="49.09196" lon="6.09943">
        <ele>167.1</ele>
        <time>2021-07-28T16:36:13Z</time>
      </trkpt>
      <trkpt lat="49.09192" lon="6.09942">
        <ele>167.1</ele>
        <time>2021-07-28T16:36:15Z</time>
      </trkpt>
      <trkpt lat="49.09186" lon="6.0994">
        <ele>167.1</ele>
        <time>2021-07-28T16:36:16Z</time>
      </trkpt>
      <trkpt lat="49.09179" lon="6.09936">
        <ele>167.2</ele>
        <time>2021-07-28T16:36:17Z</time>
      </trkpt>
      <trkpt lat="49.09173" lon="6.09935">
        <ele>167.2</ele>
        <time>2021-07-28T16:36:18Z</time>
      </trkpt>
      <trkpt lat="49.09165" lon="6.09933">
        <ele>167.2</ele>
        <time>2021-07-28T16:36:20Z</time>
      </trkpt>
      <trkpt lat="49.0916" lon="6.09929">
        <ele>167.2</ele>
        <time>2021-07-28T16:36:21Z</time>
      </trkpt>
      <trkpt lat="49.09156" lon="6.09926">
        <ele>167.2</ele>
        <time>2021-07-28T16:36:22Z</time>
      </trkpt>
      <trkpt lat="49.09152" lon="6.09921">
        <ele>167.3</ele>
        <time>2021-07-28T16:36:23Z</time>
      </trkpt>
      <trkpt lat="49.09148" lon="6.09917">
        <ele>167.3</ele>
        <time>2021-07-28T16:36:25Z</time>
      </trkpt>
      <trkpt lat="49.09144" lon="6.09914">
        <ele>167.3</ele>
        <time>2021-07-28T16:36:26Z</time>
      </trkpt>
      <trkpt lat="49.09142" lon="6.09911">
        <ele>167.3</ele>
        <time>2021-07-28T16:36:27Z</time>
      </trkpt>
      <trkpt lat="49.09139" lon="6.09908">
        <ele>167.4</ele>
        <time>2021-07-28T16:36:29Z</time>
      </trkpt>
      <trkpt lat="49.09134" lon="6.09904">
        <ele>167.4</ele>
        <time>2021-07-28T16:36:30Z</time>
      </trkpt>
      <trkpt lat="49.09129" lon="6.099">
        <ele>167.5</ele>
        <time>2021-07-28T16:36:31Z</time>
      </trkpt>
      <trkpt lat="49.0912" lon="6.09891">
        <ele>167.5</ele>
        <time>2021-07-28T16:36:33Z</time>
      </trkpt>
      <trkpt lat="49.09114" lon="6.09889">
        <ele>167.6</ele>
        <time>2021-07-28T16:36:35Z</time>
      </trkpt>
      <trkpt lat="49.09109" lon="6.09887">
        <ele>167.7</ele>
        <time>2021-07-28T16:36:36Z</time>
      </trkpt>
      <trkpt lat="49.09105" lon="6.09885">
        <ele>167.7</ele>
        <time>2021-07-28T16:36:37Z</time>
      </trkpt>
      <trkpt lat="49.09102" lon="6.09885">
        <ele>167.7</ele>
        <time>2021-07-28T16:36:38Z</time>
      </trkpt>
      <trkpt lat="49.09098" lon="6.09883">
        <ele>167.7</ele>
        <time>2021-07-28T16:36:39Z</time>
      </trkpt>
      <trkpt lat="49.09094" lon="6.0988">
        <ele>167.8</ele>
        <time>2021-07-28T16:36:41Z</time>
      </trkpt>
      <trkpt lat="49.09091" lon="6.09877">
        <ele>167.8</ele>
        <time>2021-07-28T16:36:42Z</time>
      </trkpt>
      <trkpt lat="49.09088" lon="6.09874">
        <ele>167.8</ele>
        <time>2021-07-28T16:36:43Z</time>
      </trkpt>
      <trkpt lat="49.09085" lon="6.09872">
        <ele>167.8</ele>
        <time>2021-07-28T16:36:44Z</time>
      </trkpt>
      <trkpt lat="49.09083" lon="6.09871">
        <ele>167.8</ele>
        <time>2021-07-28T16:36:45Z</time>
      </trkpt>
      <trkpt lat="49.09083" lon="6.09877">
        <ele>167.8</ele>
        <time>2021-07-28T16:36:47Z</time>
      </trkpt>
      <trkpt lat="49.09082" lon="6.09879">
        <ele>167.8</ele>
        <time>2021-07-28T16:36:48Z</time>
      </trkpt>
      <trkpt lat="49.09082" lon="6.09879">
        <ele>167.8</ele>
        <time>2021-07-28T16:36:49Z</time>
      </trkpt>
      <trkpt lat="49.09081" lon="6.09879">
        <ele>167.8</ele>
        <time>2021-07-28T16:36:50Z</time>
      </trkpt>
      <trkpt lat="49.0908" lon="6.09879">
        <ele>167.8</ele>
        <time>2021-07-28T16:36:51Z</time>
      </trkpt>
      <trkpt lat="49.09072" lon="6.09875">
        <ele>167.8</ele>
        <time>2021-07-28T16:36:53Z</time>
      </trkpt>
      <trkpt lat="49.09068" lon="6.09874">
        <ele>167.8</ele>
        <time>2021-07-28T16:36:54Z</time>
      </trkpt>
      <trkpt lat="49.09062" lon="6.09874">
        <ele>167.8</ele>
        <time>2021-07-28T16:36:56Z</time>
      </trkpt>
      <trkpt lat="49.09058" lon="6.09875">
        <ele>167.8</ele>
        <time>2021-07-28T16:36:57Z</time>
      </trkpt>
      <trkpt lat="49.09056" lon="6.09875">
        <ele>167.8</ele>
        <time>2021-07-28T16:36:58Z</time>
      </trkpt>
      <trkpt lat="49.09053" lon="6.09876">
        <ele>167.8</ele>
        <time>2021-07-28T16:36:59Z</time>
      </trkpt>
      <trkpt lat="49.0905" lon="6.09875">
        <ele>167.8</ele>
        <time>2021-07-28T16:37:00Z</time>
      </trkpt>
      <trkpt lat="49.09049" lon="6.09874">
        <ele>167.8</ele>
        <time>2021-07-28T16:37:01Z</time>
      </trkpt>
      <trkpt lat="49.09048" lon="6.09873">
        <ele>167.8</ele>
        <time>2021-07-28T16:37:02Z</time>
      </trkpt>
      <trkpt lat="49.09042" lon="6.09865">
        <ele>167.8</ele>
        <time>2021-07-28T16:37:04Z</time>
      </trkpt>
      <trkpt lat="49.09038" lon="6.09861">
        <ele>167.8</ele>
        <time>2021-07-28T16:37:05Z</time>
      </trkpt>
      <trkpt lat="49.09029" lon="6.09851">
        <ele>167.8</ele>
        <time>2021-07-28T16:37:07Z</time>
      </trkpt>
      <trkpt lat="49.09025" lon="6.09843">
        <ele>167.7</ele>
        <time>2021-07-28T16:37:09Z</time>
      </trkpt>
      <trkpt lat="49.09023" lon="6.09839">
        <ele>167.7</ele>
        <time>2021-07-28T16:37:10Z</time>
      </trkpt>
      <trkpt lat="49.09022" lon="6.09837">
        <ele>167.7</ele>
        <time>2021-07-28T16:37:11Z</time>
      </trkpt>
      <trkpt lat="49.09021" lon="6.09835">
        <ele>167.7</ele>
        <time>2021-07-28T16:37:12Z</time>
      </trkpt>
      <trkpt lat="49.09019" lon="6.09829">
        <ele>167.7</ele>
        <time>2021-07-28T16:37:13Z</time>
      </trkpt>
      <trkpt lat="49.09016" lon="6.09823">
        <ele>167.7</ele>
        <time>2021-07-28T16:37:14Z</time>
      </trkpt>
      <trkpt lat="49.09012" lon="6.09819">
        <ele>167.7</ele>
        <time>2021-07-28T16:37:15Z</time>
      </trkpt>
      <trkpt lat="49.09007" lon="6.09814">
        <ele>167.7</ele>
        <time>2021-07-28T16:37:17Z</time>
      </trkpt>
      <trkpt lat="49.09005" lon="6.09809">
        <ele>167.7</ele>
        <time>2021-07-28T16:37:18Z</time>
      </trkpt>
      <trkpt lat="49.09003" lon="6.09805">
        <ele>167.7</ele>
        <time>2021-07-28T16:37:19Z</time>
      </trkpt>
      <trkpt lat="49.09002" lon="6.09799">
        <ele>167.7</ele>
        <time>2021-07-28T16:37:20Z</time>
      </trkpt>
      <trkpt lat="49.09001" lon="6.09795">
        <ele>167.8</ele>
        <time>2021-07-28T16:37:21Z</time>
      </trkpt>
      <trkpt lat="49.09003" lon="6.09789">
        <ele>167.8</ele>
        <time>2021-07-28T16:37:22Z</time>
      </trkpt>
      <trkpt lat="49.09004" lon="6.09787">
        <ele>167.8</ele>
        <time>2021-07-28T16:37:23Z</time>
      </trkpt>
      <trkpt lat="49.09004" lon="6.09783">
        <ele>167.8</ele>
        <time>2021-07-28T16:37:25Z</time>
      </trkpt>
      <trkpt lat="49.09002" lon="6.09777">
        <ele>167.8</ele>
        <time>2021-07-28T16:37:26Z</time>
      </trkpt>
      <trkpt lat="49.09" lon="6.09771">
        <ele>167.9</ele>
        <time>2021-07-28T16:37:27Z</time>
      </trkpt>
      <trkpt lat="49.08997" lon="6.09763">
        <ele>167.9</ele>
        <time>2021-07-28T16:37:29Z</time>
      </trkpt>
      <trkpt lat="49.08994" lon="6.09755">
        <ele>167.9</ele>
        <time>2021-07-28T16:37:30Z</time>
      </trkpt>
      <trkpt lat="49.08991" lon="6.0975">
        <ele>168</ele>
        <time>2021-07-28T16:37:32Z</time>
      </trkpt>
      <trkpt lat="49.08989" lon="6.09745">
        <ele>168</ele>
        <time>2021-07-28T16:37:33Z</time>
      </trkpt>
      <trkpt lat="49.08988" lon="6.09742">
        <ele>168</ele>
        <time>2021-07-28T16:37:34Z</time>
      </trkpt>
      <trkpt lat="49.08985" lon="6.09739">
        <ele>168</ele>
        <time>2021-07-28T16:37:36Z</time>
      </trkpt>
      <trkpt lat="49.08983" lon="6.09736">
        <ele>168</ele>
        <time>2021-07-28T16:37:37Z</time>
      </trkpt>
      <trkpt lat="49.08981" lon="6.09733">
        <ele>168</ele>
        <time>2021-07-28T16:37:38Z</time>
      </trkpt>
      <trkpt lat="49.08977" lon="6.09732">
        <ele>168</ele>
        <time>2021-07-28T16:37:39Z</time>
      </trkpt>
      <trkpt lat="49.08972" lon="6.09728">
        <ele>168</ele>
        <time>2021-07-28T16:37:41Z</time>
      </trkpt>
      <trkpt lat="49.08969" lon="6.09729">
        <ele>167.9</ele>
        <time>2021-07-28T16:37:43Z</time>
      </trkpt>
      <trkpt lat="49.08967" lon="6.09729">
        <ele>167.9</ele>
        <time>2021-07-28T16:37:44Z</time>
      </trkpt>
      <trkpt lat="49.08963" lon="6.09727">
        <ele>167.9</ele>
        <time>2021-07-28T16:37:45Z</time>
      </trkpt>
      <trkpt lat="49.08962" lon="6.09726">
        <ele>167.9</ele>
        <time>2021-07-28T16:37:46Z</time>
      </trkpt>
      <trkpt lat="49.08958" lon="6.09722">
        <ele>167.9</ele>
        <time>2021-07-28T16:37:48Z</time>
      </trkpt>
      <trkpt lat="49.08955" lon="6.09717">
        <ele>167.9</ele>
        <time>2021-07-28T16:37:49Z</time>
      </trkpt>
      <trkpt lat="49.08949" lon="6.09709">
        <ele>167.8</ele>
        <time>2021-07-28T16:37:50Z</time>
      </trkpt>
      <trkpt lat="49.08942" lon="6.09704">
        <ele>167.8</ele>
        <time>2021-07-28T16:37:52Z</time>
      </trkpt>
      <trkpt lat="49.08937" lon="6.09701">
        <ele>167.8</ele>
        <time>2021-07-28T16:37:53Z</time>
      </trkpt>
      <trkpt lat="49.08933" lon="6.09697">
        <ele>167.8</ele>
        <time>2021-07-28T16:37:54Z</time>
      </trkpt>
      <trkpt lat="49.08929" lon="6.09694">
        <ele>167.8</ele>
        <time>2021-07-28T16:37:55Z</time>
      </trkpt>
      <trkpt lat="49.08925" lon="6.09692">
        <ele>167.8</ele>
        <time>2021-07-28T16:37:56Z</time>
      </trkpt>
      <trkpt lat="49.0892" lon="6.09686">
        <ele>167.8</ele>
        <time>2021-07-28T16:37:57Z</time>
      </trkpt>
      <trkpt lat="49.08917" lon="6.0968">
        <ele>167.8</ele>
        <time>2021-07-28T16:37:58Z</time>
      </trkpt>
      <trkpt lat="49.08913" lon="6.0967">
        <ele>167.8</ele>
        <time>2021-07-28T16:38:00Z</time>
      </trkpt>
      <trkpt lat="49.0891" lon="6.09663">
        <ele>167.8</ele>
        <time>2021-07-28T16:38:01Z</time>
      </trkpt>
      <trkpt lat="49.08909" lon="6.09661">
        <ele>167.8</ele>
        <time>2021-07-28T16:38:02Z</time>
      </trkpt>
      <trkpt lat="49.08907" lon="6.09657">
        <ele>167.8</ele>
        <time>2021-07-28T16:38:04Z</time>
      </trkpt>
      <trkpt lat="49.08905" lon="6.09651">
        <ele>167.8</ele>
        <time>2021-07-28T16:38:05Z</time>
      </trkpt>
      <trkpt lat="49.08903" lon="6.09646">
        <ele>167.8</ele>
        <time>2021-07-28T16:38:07Z</time>
      </trkpt>
      <trkpt lat="49.08898" lon="6.09631">
        <ele>167.9</ele>
        <time>2021-07-28T16:38:13Z</time>
      </trkpt>
      <trkpt lat="49.08895" lon="6.09627">
        <ele>167.9</ele>
        <time>2021-07-28T16:38:14Z</time>
      </trkpt>
      <trkpt lat="49.08894" lon="6.09623">
        <ele>167.9</ele>
        <time>2021-07-28T16:38:15Z</time>
      </trkpt>
      <trkpt lat="49.08891" lon="6.09619">
        <ele>167.9</ele>
        <time>2021-07-28T16:38:16Z</time>
      </trkpt>
      <trkpt lat="49.08884" lon="6.09607">
        <ele>168</ele>
        <time>2021-07-28T16:38:18Z</time>
      </trkpt>
      <trkpt lat="49.0888" lon="6.096">
        <ele>168</ele>
        <time>2021-07-28T16:38:19Z</time>
      </trkpt>
      <trkpt lat="49.08874" lon="6.09594">
        <ele>168</ele>
        <time>2021-07-28T16:38:21Z</time>
      </trkpt>
      <trkpt lat="49.0887" lon="6.09589">
        <ele>168</ele>
        <time>2021-07-28T16:38:22Z</time>
      </trkpt>
      <trkpt lat="49.08867" lon="6.09583">
        <ele>168</ele>
        <time>2021-07-28T16:38:23Z</time>
      </trkpt>
      <trkpt lat="49.08862" lon="6.09575">
        <ele>167.9</ele>
        <time>2021-07-28T16:38:25Z</time>
      </trkpt>
      <trkpt lat="49.08859" lon="6.0957">
        <ele>167.8</ele>
        <time>2021-07-28T16:38:26Z</time>
      </trkpt>
      <trkpt lat="49.08858" lon="6.09566">
        <ele>167.8</ele>
        <time>2021-07-28T16:38:27Z</time>
      </trkpt>
      <trkpt lat="49.08856" lon="6.09562">
        <ele>167.8</ele>
        <time>2021-07-28T16:38:28Z</time>
      </trkpt>
      <trkpt lat="49.08855" lon="6.09561">
        <ele>167.8</ele>
        <time>2021-07-28T16:38:29Z</time>
      </trkpt>
      <trkpt lat="49.08849" lon="6.09553">
        <ele>167.7</ele>
        <time>2021-07-28T16:38:31Z</time>
      </trkpt>
      <trkpt lat="49.08845" lon="6.0954">
        <ele>167.5</ele>
        <time>2021-07-28T16:38:33Z</time>
      </trkpt>
      <trkpt lat="49.0884" lon="6.09523">
        <ele>167.4</ele>
        <time>2021-07-28T16:38:34Z</time>
      </trkpt>
      <trkpt lat="49.08835" lon="6.09508">
        <ele>167.2</ele>
        <time>2021-07-28T16:38:36Z</time>
      </trkpt>
      <trkpt lat="49.08833" lon="6.09502">
        <ele>167.2</ele>
        <time>2021-07-28T16:38:37Z</time>
      </trkpt>
      <trkpt lat="49.08818" lon="6.09473">
        <ele>167</ele>
        <time>2021-07-28T16:38:39Z</time>
      </trkpt>
      <trkpt lat="49.08809" lon="6.09457">
        <ele>167</ele>
        <time>2021-07-28T16:38:41Z</time>
      </trkpt>
      <trkpt lat="49.08805" lon="6.09453">
        <ele>166.9</ele>
        <time>2021-07-28T16:38:43Z</time>
      </trkpt>
      <trkpt lat="49.08803" lon="6.09451">
        <ele>166.9</ele>
        <time>2021-07-28T16:38:44Z</time>
      </trkpt>
      <trkpt lat="49.08798" lon="6.09443">
        <ele>166.9</ele>
        <time>2021-07-28T16:38:46Z</time>
      </trkpt>
      <trkpt lat="49.08796" lon="6.09439">
        <ele>166.9</ele>
        <time>2021-07-28T16:38:47Z</time>
      </trkpt>
      <trkpt lat="49.08794" lon="6.09434">
        <ele>166.9</ele>
        <time>2021-07-28T16:38:48Z</time>
      </trkpt>
      <trkpt lat="49.08791" lon="6.09427">
        <ele>166.9</ele>
        <time>2021-07-28T16:38:50Z</time>
      </trkpt>
      <trkpt lat="49.0879" lon="6.09423">
        <ele>166.9</ele>
        <time>2021-07-28T16:38:51Z</time>
      </trkpt>
      <trkpt lat="49.08789" lon="6.09419">
        <ele>166.9</ele>
        <time>2021-07-28T16:38:52Z</time>
      </trkpt>
      <trkpt lat="49.08787" lon="6.09416">
        <ele>167</ele>
        <time>2021-07-28T16:38:54Z</time>
      </trkpt>
      <trkpt lat="49.08785" lon="6.09416">
        <ele>167</ele>
        <time>2021-07-28T16:38:55Z</time>
      </trkpt>
      <trkpt lat="49.08782" lon="6.09414">
        <ele>167</ele>
        <time>2021-07-28T16:38:57Z</time>
      </trkpt>
      <trkpt lat="49.0878" lon="6.09413">
        <ele>167</ele>
        <time>2021-07-28T16:38:58Z</time>
      </trkpt>
      <trkpt lat="49.08764" lon="6.094">
        <ele>167.4</ele>
        <time>2021-07-28T16:39:00Z</time>
      </trkpt>
      <trkpt lat="49.08759" lon="6.09397">
        <ele>167.5</ele>
        <time>2021-07-28T16:39:01Z</time>
      </trkpt>
      <trkpt lat="49.08756" lon="6.09395">
        <ele>167.6</ele>
        <time>2021-07-28T16:39:02Z</time>
      </trkpt>
      <trkpt lat="49.08749" lon="6.09391">
        <ele>167.8</ele>
        <time>2021-07-28T16:39:04Z</time>
      </trkpt>
      <trkpt lat="49.08745" lon="6.09393">
        <ele>167.9</ele>
        <time>2021-07-28T16:39:05Z</time>
      </trkpt>
      <trkpt lat="49.08741" lon="6.09395">
        <ele>167.9</ele>
        <time>2021-07-28T16:39:06Z</time>
      </trkpt>
      <trkpt lat="49.08739" lon="6.09396">
        <ele>168</ele>
        <time>2021-07-28T16:39:07Z</time>
      </trkpt>
      <trkpt lat="49.08736" lon="6.09398">
        <ele>168</ele>
        <time>2021-07-28T16:39:09Z</time>
      </trkpt>
      <trkpt lat="49.08733" lon="6.094">
        <ele>168.1</ele>
        <time>2021-07-28T16:39:10Z</time>
      </trkpt>
      <trkpt lat="49.08731" lon="6.094">
        <ele>168.1</ele>
        <time>2021-07-28T16:39:11Z</time>
      </trkpt>
      <trkpt lat="49.08728" lon="6.09402">
        <ele>168.1</ele>
        <time>2021-07-28T16:39:12Z</time>
      </trkpt>
      <trkpt lat="49.08726" lon="6.09403">
        <ele>168.1</ele>
        <time>2021-07-28T16:39:13Z</time>
      </trkpt>
      <trkpt lat="49.08725" lon="6.09403">
        <ele>168.2</ele>
        <time>2021-07-28T16:39:14Z</time>
      </trkpt>
      <trkpt lat="49.08724" lon="6.09401">
        <ele>168.2</ele>
        <time>2021-07-28T16:39:16Z</time>
      </trkpt>
      <trkpt lat="49.08722" lon="6.094">
        <ele>168.2</ele>
        <time>2021-07-28T16:39:17Z</time>
      </trkpt>
      <trkpt lat="49.08721" lon="6.09398">
        <ele>168.2</ele>
        <time>2021-07-28T16:39:18Z</time>
      </trkpt>
      <trkpt lat="49.0872" lon="6.09397">
        <ele>168.2</ele>
        <time>2021-07-28T16:39:19Z</time>
      </trkpt>
      <trkpt lat="49.0835" lon="6.09239">
        <ele>168.7</ele>
        <time>2021-07-28T16:41:16Z</time>
      </trkpt>
      <trkpt lat="49.0834" lon="6.09234">
        <ele>168.6</ele>
        <time>2021-07-28T16:41:18Z</time>
      </trkpt>
      <trkpt lat="49.08331" lon="6.09228">
        <ele>168.6</ele>
        <time>2021-07-28T16:41:19Z</time>
      </trkpt>
      <trkpt lat="49.08324" lon="6.09221">
        <ele>168.6</ele>
        <time>2021-07-28T16:41:20Z</time>
      </trkpt>
      <trkpt lat="49.08305" lon="6.09211">
        <ele>168.5</ele>
        <time>2021-07-28T16:41:22Z</time>
      </trkpt>
      <trkpt lat="49.08297" lon="6.0921">
        <ele>168.5</ele>
        <time>2021-07-28T16:41:23Z</time>
      </trkpt>
      <trkpt lat="49.08291" lon="6.09209">
        <ele>168.5</ele>
        <time>2021-07-28T16:41:25Z</time>
      </trkpt>
      <trkpt lat="49.08286" lon="6.09209">
        <ele>168.5</ele>
        <time>2021-07-28T16:41:26Z</time>
      </trkpt>
      <trkpt lat="49.0828" lon="6.09208">
        <ele>168.5</ele>
        <time>2021-07-28T16:41:28Z</time>
      </trkpt>
      <trkpt lat="49.08275" lon="6.09205">
        <ele>168.5</ele>
        <time>2021-07-28T16:41:29Z</time>
      </trkpt>
      <trkpt lat="49.0827" lon="6.09203">
        <ele>168.5</ele>
        <time>2021-07-28T16:41:30Z</time>
      </trkpt>
      <trkpt lat="49.0827" lon="6.09202">
        <ele>168.5</ele>
        <time>2021-07-28T16:41:31Z</time>
      </trkpt>
      <trkpt lat="49.08269" lon="6.09199">
        <ele>168.5</ele>
        <time>2021-07-28T16:41:32Z</time>
      </trkpt>
      <trkpt lat="49.08267" lon="6.09197">
        <ele>168.6</ele>
        <time>2021-07-28T16:41:34Z</time>
      </trkpt>
      <trkpt lat="49.08264" lon="6.09192">
        <ele>168.6</ele>
        <time>2021-07-28T16:41:36Z</time>
      </trkpt>
      <trkpt lat="49.08262" lon="6.09189">
        <ele>168.6</ele>
        <time>2021-07-28T16:41:37Z</time>
      </trkpt>
      <trkpt lat="49.0826" lon="6.09187">
        <ele>168.6</ele>
        <time>2021-07-28T16:41:38Z</time>
      </trkpt>
      <trkpt lat="49.08259" lon="6.09185">
        <ele>168.6</ele>
        <time>2021-07-28T16:41:39Z</time>
      </trkpt>
      <trkpt lat="49.08257" lon="6.09184">
        <ele>168.6</ele>
        <time>2021-07-28T16:41:40Z</time>
      </trkpt>
      <trkpt lat="49.08047" lon="6.09101">
        <ele>167.6</ele>
        <time>2021-07-28T16:43:11Z</time>
      </trkpt>
      <trkpt lat="49.08041" lon="6.09103">
        <ele>167.8</ele>
        <time>2021-07-28T16:43:12Z</time>
      </trkpt>
      <trkpt lat="49.08038" lon="6.09104">
        <ele>167.9</ele>
        <time>2021-07-28T16:43:13Z</time>
      </trkpt>
      <trkpt lat="49.0803" lon="6.09107">
        <ele>168.2</ele>
        <time>2021-07-28T16:43:14Z</time>
      </trkpt>
      <trkpt lat="49.08024" lon="6.09108">
        <ele>168.5</ele>
        <time>2021-07-28T16:43:15Z</time>
      </trkpt>
      <trkpt lat="49.08021" lon="6.09109">
        <ele>168.6</ele>
        <time>2021-07-28T16:43:16Z</time>
      </trkpt>
      <trkpt lat="49.08017" lon="6.0911">
        <ele>168.8</ele>
        <time>2021-07-28T16:43:18Z</time>
      </trkpt>
      <trkpt lat="49.08016" lon="6.09111">
        <ele>168.9</ele>
        <time>2021-07-28T16:43:19Z</time>
      </trkpt>
      <trkpt lat="49.08013" lon="6.09113">
        <ele>169</ele>
        <time>2021-07-28T16:43:20Z</time>
      </trkpt>
      <trkpt lat="49.08012" lon="6.09114">
        <ele>169.1</ele>
        <time>2021-07-28T16:43:21Z</time>
      </trkpt>
      <trkpt lat="49.0801" lon="6.09117">
        <ele>169.2</ele>
        <time>2021-07-28T16:43:23Z</time>
      </trkpt>
      <trkpt lat="49.07984" lon="6.09124">
        <ele>169.8</ele>
        <time>2021-07-28T16:43:33Z</time>
      </trkpt>
      <trkpt lat="49.07976" lon="6.09127">
        <ele>169.8</ele>
        <time>2021-07-28T16:43:35Z</time>
      </trkpt>
      <trkpt lat="49.07972" lon="6.09132">
        <ele>169.8</ele>
        <time>2021-07-28T16:43:36Z</time>
      </trkpt>
      <trkpt lat="49.07963" lon="6.09138">
        <ele>169.8</ele>
        <time>2021-07-28T16:43:38Z</time>
      </trkpt>
      <trkpt lat="49.07959" lon="6.0914">
        <ele>169.8</ele>
        <time>2021-07-28T16:43:39Z</time>
      </trkpt>
      <trkpt lat="49.07957" lon="6.09142">
        <ele>169.9</ele>
        <time>2021-07-28T16:43:40Z</time>
      </trkpt>
      <trkpt lat="49.07951" lon="6.09143">
        <ele>169.9</ele>
        <time>2021-07-28T16:43:42Z</time>
      </trkpt>
      <trkpt lat="49.07945" lon="6.09144">
        <ele>169.9</ele>
        <time>2021-07-28T16:43:44Z</time>
      </trkpt>
      <trkpt lat="49.07943" lon="6.09144">
        <ele>169.9</ele>
        <time>2021-07-28T16:43:45Z</time>
      </trkpt>
      <trkpt lat="49.07939" lon="6.09143">
        <ele>169.9</ele>
        <time>2021-07-28T16:43:47Z</time>
      </trkpt>
      <trkpt lat="49.07934" lon="6.09142">
        <ele>169.9</ele>
        <time>2021-07-28T16:43:49Z</time>
      </trkpt>
      <trkpt lat="49.07929" lon="6.09143">
        <ele>169.9</ele>
        <time>2021-07-28T16:43:51Z</time>
      </trkpt>
      <trkpt lat="49.07926" lon="6.09144">
        <ele>169.9</ele>
        <time>2021-07-28T16:43:52Z</time>
      </trkpt>
      <trkpt lat="49.07924" lon="6.09146">
        <ele>169.9</ele>
        <time>2021-07-28T16:43:53Z</time>
      </trkpt>
      <trkpt lat="49.07918" lon="6.09149">
        <ele>169.9</ele>
        <time>2021-07-28T16:43:55Z</time>
      </trkpt>
      <trkpt lat="49.07915" lon="6.09154">
        <ele>169.9</ele>
        <time>2021-07-28T16:43:57Z</time>
      </trkpt>
      <trkpt lat="49.07911" lon="6.09155">
        <ele>169.9</ele>
        <time>2021-07-28T16:43:58Z</time>
      </trkpt>
      <trkpt lat="49.07908" lon="6.09156">
        <ele>169.9</ele>
        <time>2021-07-28T16:43:59Z</time>
      </trkpt>
      <trkpt lat="49.07903" lon="6.09158">
        <ele>169.9</ele>
        <time>2021-07-28T16:44:01Z</time>
      </trkpt>
      <trkpt lat="49.07896" lon="6.09159">
        <ele>169.9</ele>
        <time>2021-07-28T16:44:03Z</time>
      </trkpt>
      <trkpt lat="49.07893" lon="6.0916">
        <ele>169.9</ele>
        <time>2021-07-28T16:44:04Z</time>
      </trkpt>
      <trkpt lat="49.0789" lon="6.09162">
        <ele>169.8</ele>
        <time>2021-07-28T16:44:05Z</time>
      </trkpt>
      <trkpt lat="49.07884" lon="6.09167">
        <ele>169.8</ele>
        <time>2021-07-28T16:44:07Z</time>
      </trkpt>
      <trkpt lat="49.07883" lon="6.09169">
        <ele>169.8</ele>
        <time>2021-07-28T16:44:08Z</time>
      </trkpt>
      <trkpt lat="49.07879" lon="6.09167">
        <ele>169.8</ele>
        <time>2021-07-28T16:44:10Z</time>
      </trkpt>
      <trkpt lat="49.07877" lon="6.09167">
        <ele>169.8</ele>
        <time>2021-07-28T16:44:11Z</time>
      </trkpt>
      <trkpt lat="49.07872" lon="6.09168">
        <ele>169.8</ele>
        <time>2021-07-28T16:44:13Z</time>
      </trkpt>
      <trkpt lat="49.07865" lon="6.09167">
        <ele>169.8</ele>
        <time>2021-07-28T16:44:14Z</time>
      </trkpt>
      <trkpt lat="49.07859" lon="6.09167">
        <ele>169.8</ele>
        <time>2021-07-28T16:44:16Z</time>
      </trkpt>
      <trkpt lat="49.07854" lon="6.09167">
        <ele>169.8</ele>
        <time>2021-07-28T16:44:17Z</time>
      </trkpt>
      <trkpt lat="49.07852" lon="6.09164">
        <ele>169.8</ele>
        <time>2021-07-28T16:44:19Z</time>
      </trkpt>
      <trkpt lat="49.0785" lon="6.0916">
        <ele>169.8</ele>
        <time>2021-07-28T16:44:20Z</time>
      </trkpt>
      <trkpt lat="49.07847" lon="6.09161">
        <ele>169.8</ele>
        <time>2021-07-28T16:44:21Z</time>
      </trkpt>
      <trkpt lat="49.07846" lon="6.09162">
        <ele>169.7</ele>
        <time>2021-07-28T16:44:22Z</time>
      </trkpt>
      <trkpt lat="49.07843" lon="6.09164">
        <ele>169.7</ele>
        <time>2021-07-28T16:44:24Z</time>
      </trkpt>
      <trkpt lat="49.07836" lon="6.09166">
        <ele>169.6</ele>
        <time>2021-07-28T16:44:26Z</time>
      </trkpt>
      <trkpt lat="49.07826" lon="6.09171">
        <ele>169.4</ele>
        <time>2021-07-28T16:44:28Z</time>
      </trkpt>
      <trkpt lat="49.0782" lon="6.09171">
        <ele>169.3</ele>
        <time>2021-07-28T16:44:29Z</time>
      </trkpt>
      <trkpt lat="49.0781" lon="6.09171">
        <ele>169.2</ele>
        <time>2021-07-28T16:44:31Z</time>
      </trkpt>
      <trkpt lat="49.07804" lon="6.09172">
        <ele>169.1</ele>
        <time>2021-07-28T16:44:32Z</time>
      </trkpt>
      <trkpt lat="49.07799" lon="6.09173">
        <ele>169</ele>
        <time>2021-07-28T16:44:34Z</time>
      </trkpt>
      <trkpt lat="49.07795" lon="6.09175">
        <ele>169</ele>
        <time>2021-07-28T16:44:36Z</time>
      </trkpt>
      <trkpt lat="49.07792" lon="6.09176">
        <ele>169</ele>
        <time>2021-07-28T16:44:38Z</time>
      </trkpt>
      <trkpt lat="49.07791" lon="6.09176">
        <ele>169</ele>
        <time>2021-07-28T16:44:39Z</time>
      </trkpt>
      <trkpt lat="49.07545" lon="6.09119">
        <ele>167.6</ele>
        <time>2021-07-28T16:46:41Z</time>
      </trkpt>
      <trkpt lat="49.0754" lon="6.09117">
        <ele>167.6</ele>
        <time>2021-07-28T16:46:43Z</time>
      </trkpt>
      <trkpt lat="49.07533" lon="6.0911">
        <ele>167.7</ele>
        <time>2021-07-28T16:46:44Z</time>
      </trkpt>
      <trkpt lat="49.07529" lon="6.09108">
        <ele>167.7</ele>
        <time>2021-07-28T16:46:45Z</time>
      </trkpt>
      <trkpt lat="49.07525" lon="6.09105">
        <ele>167.8</ele>
        <time>2021-07-28T16:46:46Z</time>
      </trkpt>
      <trkpt lat="49.07521" lon="6.09102">
        <ele>167.8</ele>
        <time>2021-07-28T16:46:48Z</time>
      </trkpt>
      <trkpt lat="49.07519" lon="6.091">
        <ele>167.8</ele>
        <time>2021-07-28T16:46:49Z</time>
      </trkpt>
      <trkpt lat="49.07511" lon="6.09096">
        <ele>167.8</ele>
        <time>2021-07-28T16:46:51Z</time>
      </trkpt>
      <trkpt lat="49.07501" lon="6.09085">
        <ele>167.8</ele>
        <time>2021-07-28T16:46:52Z</time>
      </trkpt>
      <trkpt lat="49.07498" lon="6.09082">
        <ele>167.8</ele>
        <time>2021-07-28T16:46:54Z</time>
      </trkpt>
      <trkpt lat="49.07496" lon="6.09079">
        <ele>167.9</ele>
        <time>2021-07-28T16:46:55Z</time>
      </trkpt>
      <trkpt lat="49.07494" lon="6.09076">
        <ele>167.9</ele>
        <time>2021-07-28T16:46:56Z</time>
      </trkpt>
      <trkpt lat="49.07492" lon="6.09073">
        <ele>167.9</ele>
        <time>2021-07-28T16:46:57Z</time>
      </trkpt>
      <trkpt lat="49.07491" lon="6.09071">
        <ele>167.9</ele>
        <time>2021-07-28T16:46:59Z</time>
      </trkpt>
      <trkpt lat="49.0748" lon="6.09056">
        <ele>167.9</ele>
        <time>2021-07-28T16:47:00Z</time>
      </trkpt>
      <trkpt lat="49.07473" lon="6.09048">
        <ele>168</ele>
        <time>2021-07-28T16:47:02Z</time>
      </trkpt>
      <trkpt lat="49.07313" lon="6.08625">
        <ele>168.6</ele>
        <time>2021-07-28T16:48:22Z</time>
      </trkpt>
      <trkpt lat="49.0731" lon="6.08617">
        <ele>168.6</ele>
        <time>2021-07-28T16:48:23Z</time>
      </trkpt>
      <trkpt lat="49.07307" lon="6.0861">
        <ele>168.5</ele>
        <time>2021-07-28T16:48:24Z</time>
      </trkpt>
      <trkpt lat="49.07305" lon="6.08606">
        <ele>168.5</ele>
        <time>2021-07-28T16:48:25Z</time>
      </trkpt>
      <trkpt lat="49.073" lon="6.08599">
        <ele>168.5</ele>
        <time>2021-07-28T16:48:26Z</time>
      </trkpt>
      <trkpt lat="49.07298" lon="6.08596">
        <ele>168.5</ele>
        <time>2021-07-28T16:48:27Z</time>
      </trkpt>
      <trkpt lat="49.07296" lon="6.08593">
        <ele>168.5</ele>
        <time>2021-07-28T16:48:29Z</time>
      </trkpt>
      <trkpt lat="49.07295" lon="6.08592">
        <ele>168.5</ele>
        <time>2021-07-28T16:48:30Z</time>
      </trkpt>
      <trkpt lat="49.07294" lon="6.0859">
        <ele>168.5</ele>
        <time>2021-07-28T16:48:31Z</time>
      </trkpt>
      <trkpt lat="49.07293" lon="6.08589">
        <ele>168.5</ele>
        <time>2021-07-28T16:48:32Z</time>
      </trkpt>
      <trkpt lat="49.07293" lon="6.08588">
        <ele>168.5</ele>
        <time>2021-07-28T16:48:34Z</time>
      </trkpt>
      <trkpt lat="49.07258" lon="6.08483">
        <ele>168.6</ele>
        <time>2021-07-28T16:48:51Z</time>
      </trkpt>
      <trkpt lat="49.07255" lon="6.08477">
        <ele>168.6</ele>
        <time>2021-07-28T16:48:53Z</time>
      </trkpt>
      <trkpt lat="49.07253" lon="6.08472">
        <ele>168.6</ele>
        <time>2021-07-28T16:48:54Z</time>
      </trkpt>
      <trkpt lat="49.07251" lon="6.08467">
        <ele>168.6</ele>
        <time>2021-07-28T16:48:55Z</time>
      </trkpt>
      <trkpt lat="49.07248" lon="6.08462">
        <ele>168.6</ele>
        <time>2021-07-28T16:48:56Z</time>
      </trkpt>
      <trkpt lat="49.07245" lon="6.08455">
        <ele>168.6</ele>
        <time>2021-07-28T16:48:57Z</time>
      </trkpt>
      <trkpt lat="49.07241" lon="6.08445">
        <ele>168.6</ele>
        <time>2021-07-28T16:48:59Z</time>
      </trkpt>
      <trkpt lat="49.07239" lon="6.08438">
        <ele>168.6</ele>
        <time>2021-07-28T16:49:00Z</time>
      </trkpt>
      <trkpt lat="49.07238" lon="6.08432">
        <ele>168.6</ele>
        <time>2021-07-28T16:49:01Z</time>
      </trkpt>
      <trkpt lat="49.07237" lon="6.08427">
        <ele>168.6</ele>
        <time>2021-07-28T16:49:02Z</time>
      </trkpt>
      <trkpt lat="49.07235" lon="6.08422">
        <ele>168.6</ele>
        <time>2021-07-28T16:49:04Z</time>
      </trkpt>
      <trkpt lat="49.07235" lon="6.08419">
        <ele>168.6</ele>
        <time>2021-07-28T16:49:05Z</time>
      </trkpt>
      <trkpt lat="49.07235" lon="6.08417">
        <ele>168.6</ele>
        <time>2021-07-28T16:49:06Z</time>
      </trkpt>
      <trkpt lat="49.07238" lon="6.0842">
        <ele>168.6</ele>
        <time>2021-07-28T16:49:08Z</time>
      </trkpt>
      <trkpt lat="49.07239" lon="6.08421">
        <ele>168.6</ele>
        <time>2021-07-28T16:49:09Z</time>
      </trkpt>
      <trkpt lat="49.07238" lon="6.08421">
        <ele>168.6</ele>
        <time>2021-07-28T16:49:10Z</time>
      </trkpt>
      <trkpt lat="49.07237" lon="6.0842">
        <ele>168.6</ele>
        <time>2021-07-28T16:49:11Z</time>
      </trkpt>
      <trkpt lat="49.07233" lon="6.08418">
        <ele>168.6</ele>
        <time>2021-07-28T16:49:13Z</time>
      </trkpt>
      <trkpt lat="49.0723" lon="6.08416">
        <ele>168.6</ele>
        <time>2021-07-28T16:49:15Z</time>
      </trkpt>
      <trkpt lat="49.07161" lon="6.08376">
        <ele>168.9</ele>
        <time>2021-07-28T16:49:37Z</time>
      </trkpt>
      <trkpt lat="49.07156" lon="6.08374">
        <ele>168.9</ele>
        <time>2021-07-28T16:49:38Z</time>
      </trkpt>
      <trkpt lat="49.07147" lon="6.08371">
        <ele>168.9</ele>
        <time>2021-07-28T16:49:40Z</time>
      </trkpt>
      <trkpt lat="49.07143" lon="6.0837">
        <ele>168.8</ele>
        <time>2021-07-28T16:49:41Z</time>
      </trkpt>
      <trkpt lat="49.07136" lon="6.08369">
        <ele>168.8</ele>
        <time>2021-07-28T16:49:43Z</time>
      </trkpt>
      <trkpt lat="49.0713" lon="6.08368">
        <ele>168.8</ele>
        <time>2021-07-28T16:49:44Z</time>
      </trkpt>
      <trkpt lat="49.07127" lon="6.08367">
        <ele>168.8</ele>
        <time>2021-07-28T16:49:45Z</time>
      </trkpt>
      <trkpt lat="49.07125" lon="6.08366">
        <ele>168.8</ele>
        <time>2021-07-28T16:49:46Z</time>
      </trkpt>
      <trkpt lat="49.07123" lon="6.08366">
        <ele>168.8</ele>
        <time>2021-07-28T16:49:48Z</time>
      </trkpt>
      <trkpt lat="49.07116" lon="6.08363">
        <ele>168.8</ele>
        <time>2021-07-28T16:49:50Z</time>
      </trkpt>
      <trkpt lat="49.07079" lon="6.08349">
        <ele>168.9</ele>
        <time>2021-07-28T16:49:59Z</time>
      </trkpt>
      <trkpt lat="49.07075" lon="6.08344">
        <ele>169</ele>
        <time>2021-07-28T16:50:00Z</time>
      </trkpt>
      <trkpt lat="49.0707" lon="6.08339">
        <ele>169</ele>
        <time>2021-07-28T16:50:01Z</time>
      </trkpt>
      <trkpt lat="49.07065" lon="6.08336">
        <ele>169.1</ele>
        <time>2021-07-28T16:50:03Z</time>
      </trkpt>
      <trkpt lat="49.0706" lon="6.08328">
        <ele>169.2</ele>
        <time>2021-07-28T16:50:04Z</time>
      </trkpt>
      <trkpt lat="49.0706" lon="6.08325">
        <ele>169.2</ele>
        <time>2021-07-28T16:50:05Z</time>
      </trkpt>
      <trkpt lat="49.07058" lon="6.08316">
        <ele>169.3</ele>
        <time>2021-07-28T16:50:07Z</time>
      </trkpt>
      <trkpt lat="49.07057" lon="6.08311">
        <ele>169.4</ele>
        <time>2021-07-28T16:50:08Z</time>
      </trkpt>
      <trkpt lat="49.07057" lon="6.08302">
        <ele>169.5</ele>
        <time>2021-07-28T16:50:09Z</time>
      </trkpt>
      <trkpt lat="49.07057" lon="6.08297">
        <ele>169.5</ele>
        <time>2021-07-28T16:50:11Z</time>
      </trkpt>
      <trkpt lat="49.07056" lon="6.08296">
        <ele>169.6</ele>
        <time>2021-07-28T16:50:12Z</time>
      </trkpt>
      <trkpt lat="49.07055" lon="6.08295">
        <ele>169.6</ele>
        <time>2021-07-28T16:50:13Z</time>
      </trkpt>
      <trkpt lat="49.07053" lon="6.08291">
        <ele>169.6</ele>
        <time>2021-07-28T16:50:15Z</time>
      </trkpt>
      <trkpt lat="49.07051" lon="6.0829">
        <ele>169.7</ele>
        <time>2021-07-28T16:50:16Z</time>
      </trkpt>
      <trkpt lat="49.0705" lon="6.08288">
        <ele>169.7</ele>
        <time>2021-07-28T16:50:18Z</time>
      </trkpt>
      <trkpt lat="49.07042" lon="6.08272">
        <ele>170.1</ele>
        <time>2021-07-28T16:50:23Z</time>
      </trkpt>
      <trkpt lat="49.0704" lon="6.08266">
        <ele>170.2</ele>
        <time>2021-07-28T16:50:24Z</time>
      </trkpt>
      <trkpt lat="49.07036" lon="6.08258">
        <ele>170.5</ele>
        <time>2021-07-28T16:50:26Z</time>
      </trkpt>
      <trkpt lat="49.07033" lon="6.08251">
        <ele>170.6</ele>
        <time>2021-07-28T16:50:27Z</time>
      </trkpt>
      <trkpt lat="49.07031" lon="6.08244">
        <ele>170.7</ele>
        <time>2021-07-28T16:50:29Z</time>
      </trkpt>
      <trkpt lat="49.07028" lon="6.08238">
        <ele>170.8</ele>
        <time>2021-07-28T16:50:30Z</time>
      </trkpt>
      <trkpt lat="49.07026" lon="6.08233">
        <ele>170.9</ele>
        <time>2021-07-28T16:50:31Z</time>
      </trkpt>
      <trkpt lat="49.07024" lon="6.0823">
        <ele>171</ele>
        <time>2021-07-28T16:50:32Z</time>
      </trkpt>
      <trkpt lat="49.07021" lon="6.08224">
        <ele>171.1</ele>
        <time>2021-07-28T16:50:34Z</time>
      </trkpt>
      <trkpt lat="49.07019" lon="6.0822">
        <ele>171.1</ele>
        <time>2021-07-28T16:50:35Z</time>
      </trkpt>
      <trkpt lat="49.07016" lon="6.08214">
        <ele>171.2</ele>
        <time>2021-07-28T16:50:36Z</time>
      </trkpt>
      <trkpt lat="49.07013" lon="6.0821">
        <ele>171.3</ele>
        <time>2021-07-28T16:50:38Z</time>
      </trkpt>
      <trkpt lat="49.0701" lon="6.08205">
        <ele>171.4</ele>
        <time>2021-07-28T16:50:40Z</time>
      </trkpt>
      <trkpt lat="49.07007" lon="6.082">
        <ele>171.8</ele>
        <time>2021-07-28T16:50:41Z</time>
      </trkpt>
      <trkpt lat="49.07004" lon="6.08195">
        <ele>172.2</ele>
        <time>2021-07-28T16:50:49Z</time>
      </trkpt>
      <trkpt lat="49.07002" lon="6.08191">
        <ele>172.7</ele>
        <time>2021-07-28T16:50:50Z</time>
      </trkpt>
      <trkpt lat="49.06998" lon="6.08185">
        <ele>173.3</ele>
        <time>2021-07-28T16:50:51Z</time>
      </trkpt>
      <trkpt lat="49.06982" lon="6.08164">
        <ele>173.4</ele>
        <time>2021-07-28T16:50:53Z</time>
      </trkpt>
      <trkpt lat="49.06979" lon="6.08159">
        <ele>172.9</ele>
        <time>2021-07-28T16:50:55Z</time>
      </trkpt>
      <trkpt lat="49.06978" lon="6.08155">
        <ele>172.5</ele>
        <time>2021-07-28T16:50:56Z</time>
      </trkpt>
      <trkpt lat="49.06978" lon="6.0815">
        <ele>172</ele>
        <time>2021-07-28T16:50:58Z</time>
      </trkpt>
      <trkpt lat="49.06979" lon="6.08141">
        <ele>171.9</ele>
        <time>2021-07-28T16:50:59Z</time>
      </trkpt>
      <trkpt lat="49.06979" lon="6.08134">
        <ele>171.8</ele>
        <time>2021-07-28T16:51:00Z</time>
      </trkpt>
      <trkpt lat="49.0698" lon="6.08128">
        <ele>171.8</ele>
        <time>2021-07-28T16:51:02Z</time>
      </trkpt>
      <trkpt lat="49.0698" lon="6.08115">
        <ele>171.8</ele>
        <time>2021-07-28T16:51:03Z</time>
      </trkpt>
      <trkpt lat="49.0698" lon="6.08109">
        <ele>171.8</ele>
        <time>2021-07-28T16:51:05Z</time>
      </trkpt>
      <trkpt lat="49.06978" lon="6.08106">
        <ele>171.7</ele>
        <time>2021-07-28T16:51:06Z</time>
      </trkpt>
      <trkpt lat="49.06977" lon="6.08105">
        <ele>171.7</ele>
        <time>2021-07-28T16:51:07Z</time>
      </trkpt>
      <trkpt lat="49.06976" lon="6.08104">
        <ele>171.7</ele>
        <time>2021-07-28T16:51:08Z</time>
      </trkpt>
      <trkpt lat="49.06973" lon="6.08103">
        <ele>171.7</ele>
        <time>2021-07-28T16:51:10Z</time>
      </trkpt>
      <trkpt lat="49.0697" lon="6.08103">
        <ele>171.7</ele>
        <time>2021-07-28T16:51:11Z</time>
      </trkpt>
      <trkpt lat="49.06969" lon="6.08103">
        <ele>171.7</ele>
        <time>2021-07-28T16:51:12Z</time>
      </trkpt>
      <trkpt lat="49.06967" lon="6.08102">
        <ele>171.7</ele>
        <time>2021-07-28T16:51:13Z</time>
      </trkpt>
      <trkpt lat="49.06959" lon="6.08099">
        <ele>171.7</ele>
        <time>2021-07-28T16:51:14Z</time>
      </trkpt>
      <trkpt lat="49.06942" lon="6.08094">
        <ele>171.7</ele>
        <time>2021-07-28T16:51:17Z</time>
      </trkpt>
      <trkpt lat="49.06939" lon="6.08094">
        <ele>171.7</ele>
        <time>2021-07-28T16:51:18Z</time>
      </trkpt>
      <trkpt lat="49.06936" lon="6.08092">
        <ele>171.7</ele>
        <time>2021-07-28T16:51:20Z</time>
      </trkpt>
      <trkpt lat="49.06935" lon="6.08092">
        <ele>171.7</ele>
        <time>2021-07-28T16:51:21Z</time>
      </trkpt>
      <trkpt lat="49.06934" lon="6.08092">
        <ele>171.7</ele>
        <time>2021-07-28T16:51:23Z</time>
      </trkpt>
      <trkpt lat="49.06933" lon="6.08091">
        <ele>171.7</ele>
        <time>2021-07-28T16:51:24Z</time>
      </trkpt>
      <trkpt lat="49.06933" lon="6.08091">
        <ele>171.7</ele>
        <time>2021-07-28T16:51:26Z</time>
      </trkpt>
      <trkpt lat="49.06933" lon="6.08091">
        <ele>171.7</ele>
        <time>2021-07-28T16:51:27Z</time>
      </trkpt>
      <trkpt lat="49.0693" lon="6.08088">
        <ele>171.7</ele>
        <time>2021-07-28T16:51:28Z</time>
      </trkpt>
      <trkpt lat="49.06917" lon="6.08074">
        <ele>171.9</ele>
        <time>2021-07-28T16:51:30Z</time>
      </trkpt>
      <trkpt lat="49.06912" lon="6.08069">
        <ele>172.1</ele>
        <time>2021-07-28T16:51:31Z</time>
      </trkpt>
      <trkpt lat="49.06907" lon="6.08064">
        <ele>172.3</ele>
        <time>2021-07-28T16:51:33Z</time>
      </trkpt>
      <trkpt lat="49.06904" lon="6.08062">
        <ele>172.4</ele>
        <time>2021-07-28T16:51:34Z</time>
      </trkpt>
      <trkpt lat="49.06904" lon="6.08062">
        <ele>172.4</ele>
        <time>2021-07-28T16:51:36Z</time>
      </trkpt>
      <trkpt lat="49.06903" lon="6.08061">
        <ele>172.4</ele>
        <time>2021-07-28T16:51:37Z</time>
      </trkpt>
      <trkpt lat="49.06902" lon="6.08061">
        <ele>172.5</ele>
        <time>2021-07-28T16:51:38Z</time>
      </trkpt>
      <trkpt lat="49.06901" lon="6.0806">
        <ele>172.5</ele>
        <time>2021-07-28T16:51:40Z</time>
      </trkpt>
      <trkpt lat="49.06901" lon="6.0806">
        <ele>172.5</ele>
        <time>2021-07-28T16:51:41Z</time>
      </trkpt>
      <trkpt lat="49.06899" lon="6.08059">
        <ele>172.6</ele>
        <time>2021-07-28T16:51:43Z</time>
      </trkpt>
      <trkpt lat="49.06897" lon="6.08059">
        <ele>172.7</ele>
        <time>2021-07-28T16:51:44Z</time>
      </trkpt>
      <trkpt lat="49.06887" lon="6.08061">
        <ele>173.1</ele>
        <time>2021-07-28T16:51:46Z</time>
      </trkpt>
      <trkpt lat="49.06877" lon="6.08064">
        <ele>173.3</ele>
        <time>2021-07-28T16:51:47Z</time>
      </trkpt>
      <trkpt lat="49.06871" lon="6.08067">
        <ele>173.3</ele>
        <time>2021-07-28T16:51:48Z</time>
      </trkpt>
      <trkpt lat="49.06867" lon="6.0807">
        <ele>173.4</ele>
        <time>2021-07-28T16:51:50Z</time>
      </trkpt>
      <trkpt lat="49.06866" lon="6.08073">
        <ele>173.4</ele>
        <time>2021-07-28T16:51:52Z</time>
      </trkpt>
      <trkpt lat="49.06866" lon="6.08073">
        <ele>173.4</ele>
        <time>2021-07-28T16:51:53Z</time>
      </trkpt>
      <trkpt lat="49.06865" lon="6.08075">
        <ele>173.4</ele>
        <time>2021-07-28T16:51:54Z</time>
      </trkpt>
      <trkpt lat="49.06855" lon="6.08089">
        <ele>173.3</ele>
        <time>2021-07-28T16:51:56Z</time>
      </trkpt>
      <trkpt lat="49.06849" lon="6.08093">
        <ele>173.3</ele>
        <time>2021-07-28T16:51:58Z</time>
      </trkpt>
      <trkpt lat="49.06846" lon="6.08095">
        <ele>173.3</ele>
        <time>2021-07-28T16:51:59Z</time>
      </trkpt>
      <trkpt lat="49.06845" lon="6.08096">
        <ele>172.3</ele>
        <time>2021-07-28T16:52:00Z</time>
      </trkpt>
      <trkpt lat="49.06843" lon="6.08096">
        <ele>172.1</ele>
        <time>2021-07-28T16:52:02Z</time>
      </trkpt>
      <trkpt lat="49.06842" lon="6.08094">
        <ele>171.9</ele>
        <time>2021-07-28T16:52:04Z</time>
      </trkpt>
      <trkpt lat="49.06841" lon="6.0809">
        <ele>171.7</ele>
        <time>2021-07-28T16:52:05Z</time>
      </trkpt>
      <trkpt lat="49.0684" lon="6.08088">
        <ele>171.5</ele>
        <time>2021-07-28T16:52:06Z</time>
      </trkpt>
      <trkpt lat="49.06839" lon="6.08087">
        <ele>171.4</ele>
        <time>2021-07-28T16:52:07Z</time>
      </trkpt>
      <trkpt lat="49.06838" lon="6.08087">
        <ele>171.4</ele>
        <time>2021-07-28T16:52:08Z</time>
      </trkpt>
      <trkpt lat="49.06834" lon="6.08083">
        <ele>170.8</ele>
        <time>2021-07-28T16:52:09Z</time>
      </trkpt>
      <trkpt lat="49.06819" lon="6.0807">
        <ele>169.5</ele>
        <time>2021-07-28T16:52:11Z</time>
      </trkpt>
      <trkpt lat="49.06811" lon="6.08064">
        <ele>169</ele>
        <time>2021-07-28T16:52:13Z</time>
      </trkpt>
      <trkpt lat="49.068" lon="6.08054">
        <ele>168.7</ele>
        <time>2021-07-28T16:52:15Z</time>
      </trkpt>
      <trkpt lat="49.06785" lon="6.08039">
        <ele>168.6</ele>
        <time>2021-07-28T16:52:16Z</time>
      </trkpt>
      <trkpt lat="49.06782" lon="6.08034">
        <ele>168.6</ele>
        <time>2021-07-28T16:52:18Z</time>
      </trkpt>
      <trkpt lat="49.0678" lon="6.08032">
        <ele>168.6</ele>
        <time>2021-07-28T16:52:19Z</time>
      </trkpt>
      <trkpt lat="49.0678" lon="6.0803">
        <ele>168.6</ele>
        <time>2021-07-28T16:52:20Z</time>
      </trkpt>
      <trkpt lat="49.06778" lon="6.08027">
        <ele>168.6</ele>
        <time>2021-07-28T16:52:21Z</time>
      </trkpt>
      <trkpt lat="49.06778" lon="6.08025">
        <ele>168.6</ele>
        <time>2021-07-28T16:52:23Z</time>
      </trkpt>
      <trkpt lat="49.06777" lon="6.08024">
        <ele>168.6</ele>
        <time>2021-07-28T16:52:24Z</time>
      </trkpt>
      <trkpt lat="49.06761" lon="6.07994">
        <ele>168.6</ele>
        <time>2021-07-28T16:52:26Z</time>
      </trkpt>
      <trkpt lat="49.0675" lon="6.07969">
        <ele>168.7</ele>
        <time>2021-07-28T16:52:28Z</time>
      </trkpt>
      <trkpt lat="49.06741" lon="6.0795">
        <ele>168.7</ele>
        <time>2021-07-28T16:52:30Z</time>
      </trkpt>
      <trkpt lat="49.06736" lon="6.07945">
        <ele>168.8</ele>
        <time>2021-07-28T16:52:31Z</time>
      </trkpt>
      <trkpt lat="49.06732" lon="6.07943">
        <ele>168.8</ele>
        <time>2021-07-28T16:52:32Z</time>
      </trkpt>
      <trkpt lat="49.06719" lon="6.07936">
        <ele>168.8</ele>
        <time>2021-07-28T16:52:33Z</time>
      </trkpt>
      <trkpt lat="49.06706" lon="6.07931">
        <ele>168.9</ele>
        <time>2021-07-28T16:52:35Z</time>
      </trkpt>
      <trkpt lat="49.06703" lon="6.0793">
        <ele>168.9</ele>
        <time>2021-07-28T16:52:36Z</time>
      </trkpt>
      <trkpt lat="49.06697" lon="6.07929">
        <ele>168.9</ele>
        <time>2021-07-28T16:52:37Z</time>
      </trkpt>
      <trkpt lat="49.06693" lon="6.07929">
        <ele>168.9</ele>
        <time>2021-07-28T16:52:38Z</time>
      </trkpt>
      <trkpt lat="49.06681" lon="6.07928">
        <ele>169</ele>
        <time>2021-07-28T16:52:40Z</time>
      </trkpt>
      <trkpt lat="49.06676" lon="6.07928">
        <ele>169</ele>
        <time>2021-07-28T16:52:42Z</time>
      </trkpt>
      <trkpt lat="49.06672" lon="6.07926">
        <ele>169</ele>
        <time>2021-07-28T16:52:43Z</time>
      </trkpt>
      <trkpt lat="49.0667" lon="6.07923">
        <ele>169</ele>
        <time>2021-07-28T16:52:44Z</time>
      </trkpt>
      <trkpt lat="49.06667" lon="6.07922">
        <ele>169.1</ele>
        <time>2021-07-28T16:52:46Z</time>
      </trkpt>
      <trkpt lat="49.06666" lon="6.07922">
        <ele>169.1</ele>
        <time>2021-07-28T16:52:47Z</time>
      </trkpt>
      <trkpt lat="49.06666" lon="6.07922">
        <ele>169.1</ele>
        <time>2021-07-28T16:52:48Z</time>
      </trkpt>
      <trkpt lat="49.06652" lon="6.07922">
        <ele>169.1</ele>
        <time>2021-07-28T16:52:50Z</time>
      </trkpt>
      <trkpt lat="49.06647" lon="6.07922">
        <ele>169.1</ele>
        <time>2021-07-28T16:52:51Z</time>
      </trkpt>
      <trkpt lat="49.06642" lon="6.07922">
        <ele>169.1</ele>
        <time>2021-07-28T16:52:52Z</time>
      </trkpt>
      <trkpt lat="49.06635" lon="6.07922">
        <ele>169.2</ele>
        <time>2021-07-28T16:52:54Z</time>
      </trkpt>
      <trkpt lat="49.06631" lon="6.07923">
        <ele>169.2</ele>
        <time>2021-07-28T16:52:55Z</time>
      </trkpt>
      <trkpt lat="49.06627" lon="6.07923">
        <ele>169.2</ele>
        <time>2021-07-28T16:52:56Z</time>
      </trkpt>
      <trkpt lat="49.06623" lon="6.07923">
        <ele>169.2</ele>
        <time>2021-07-28T16:52:57Z</time>
      </trkpt>
      <trkpt lat="49.06617" lon="6.0792">
        <ele>169.3</ele>
        <time>2021-07-28T16:52:59Z</time>
      </trkpt>
      <trkpt lat="49.06614" lon="6.07916">
        <ele>169.3</ele>
        <time>2021-07-28T16:53:00Z</time>
      </trkpt>
      <trkpt lat="49.06611" lon="6.07911">
        <ele>169.3</ele>
        <time>2021-07-28T16:53:02Z</time>
      </trkpt>
      <trkpt lat="49.0661" lon="6.07909">
        <ele>169.3</ele>
        <time>2021-07-28T16:53:03Z</time>
      </trkpt>
      <trkpt lat="49.06609" lon="6.07909">
        <ele>169.3</ele>
        <time>2021-07-28T16:53:04Z</time>
      </trkpt>
      <trkpt lat="49.06608" lon="6.07908">
        <ele>169.3</ele>
        <time>2021-07-28T16:53:05Z</time>
      </trkpt>
      <trkpt lat="49.06594" lon="6.07896">
        <ele>169.3</ele>
        <time>2021-07-28T16:53:07Z</time>
      </trkpt>
      <trkpt lat="49.06586" lon="6.07892">
        <ele>169.3</ele>
        <time>2021-07-28T16:53:09Z</time>
      </trkpt>
      <trkpt lat="49.06583" lon="6.07891">
        <ele>169.3</ele>
        <time>2021-07-28T16:53:11Z</time>
      </trkpt>
      <trkpt lat="49.06581" lon="6.07888">
        <ele>169.3</ele>
        <time>2021-07-28T16:53:12Z</time>
      </trkpt>
      <trkpt lat="49.06579" lon="6.07885">
        <ele>169.3</ele>
        <time>2021-07-28T16:53:13Z</time>
      </trkpt>
      <trkpt lat="49.06575" lon="6.07881">
        <ele>169.3</ele>
        <time>2021-07-28T16:53:14Z</time>
      </trkpt>
      <trkpt lat="49.06566" lon="6.07879">
        <ele>169.2</ele>
        <time>2021-07-28T16:53:16Z</time>
      </trkpt>
      <trkpt lat="49.06559" lon="6.07874">
        <ele>169.2</ele>
        <time>2021-07-28T16:53:18Z</time>
      </trkpt>
      <trkpt lat="49.06556" lon="6.0787">
        <ele>169.2</ele>
        <time>2021-07-28T16:53:19Z</time>
      </trkpt>
      <trkpt lat="49.06552" lon="6.07865">
        <ele>169.2</ele>
        <time>2021-07-28T16:53:21Z</time>
      </trkpt>
      <trkpt lat="49.06551" lon="6.07864">
        <ele>169.2</ele>
        <time>2021-07-28T16:53:22Z</time>
      </trkpt>
      <trkpt lat="49.06549" lon="6.07863">
        <ele>169.2</ele>
        <time>2021-07-28T16:53:23Z</time>
      </trkpt>
      <trkpt lat="49.06548" lon="6.07862">
        <ele>169.2</ele>
        <time>2021-07-28T16:53:24Z</time>
      </trkpt>
      <trkpt lat="49.06546" lon="6.0786">
        <ele>169.2</ele>
        <time>2021-07-28T16:53:26Z</time>
      </trkpt>
      <trkpt lat="49.06545" lon="6.07859">
        <ele>169.2</ele>
        <time>2021-07-28T16:53:27Z</time>
      </trkpt>
      <trkpt lat="49.06543" lon="6.07858">
        <ele>169.2</ele>
        <time>2021-07-28T16:53:29Z</time>
      </trkpt>
      <trkpt lat="49.06542" lon="6.07857">
        <ele>169.2</ele>
        <time>2021-07-28T16:54:15Z</time>
      </trkpt>
      <trkpt lat="49.0654" lon="6.07855">
        <ele>169.2</ele>
        <time>2021-07-28T16:54:16Z</time>
      </trkpt>
      <trkpt lat="49.06529" lon="6.07847">
        <ele>169.1</ele>
        <time>2021-07-28T16:54:17Z</time>
      </trkpt>
      <trkpt lat="49.06523" lon="6.07843">
        <ele>169.1</ele>
        <time>2021-07-28T16:54:18Z</time>
      </trkpt>
      <trkpt lat="49.06513" lon="6.07837">
        <ele>169.1</ele>
        <time>2021-07-28T16:54:20Z</time>
      </trkpt>
      <trkpt lat="49.06507" lon="6.07833">
        <ele>169.1</ele>
        <time>2021-07-28T16:54:21Z</time>
      </trkpt>
      <trkpt lat="49.06503" lon="6.07829">
        <ele>169</ele>
        <time>2021-07-28T16:54:22Z</time>
      </trkpt>
      <trkpt lat="49.06499" lon="6.07826">
        <ele>169</ele>
        <time>2021-07-28T16:54:23Z</time>
      </trkpt>
      <trkpt lat="49.06496" lon="6.07824">
        <ele>169</ele>
        <time>2021-07-28T16:54:24Z</time>
      </trkpt>
      <trkpt lat="49.06488" lon="6.07818">
        <ele>169</ele>
        <time>2021-07-28T16:54:26Z</time>
      </trkpt>
      <trkpt lat="49.06482" lon="6.07814">
        <ele>169</ele>
        <time>2021-07-28T16:54:28Z</time>
      </trkpt>
      <trkpt lat="49.06478" lon="6.07813">
        <ele>168.9</ele>
        <time>2021-07-28T16:54:29Z</time>
      </trkpt>
      <trkpt lat="49.06475" lon="6.0781">
        <ele>168.9</ele>
        <time>2021-07-28T16:54:30Z</time>
      </trkpt>
      <trkpt lat="49.06472" lon="6.07808">
        <ele>168.9</ele>
        <time>2021-07-28T16:54:31Z</time>
      </trkpt>
      <trkpt lat="49.06468" lon="6.07806">
        <ele>168.9</ele>
        <time>2021-07-28T16:54:32Z</time>
      </trkpt>
      <trkpt lat="49.06465" lon="6.07804">
        <ele>168.9</ele>
        <time>2021-07-28T16:54:33Z</time>
      </trkpt>
      <trkpt lat="49.06461" lon="6.07801">
        <ele>168.9</ele>
        <time>2021-07-28T16:54:34Z</time>
      </trkpt>
      <trkpt lat="49.06457" lon="6.07799">
        <ele>168.9</ele>
        <time>2021-07-28T16:54:35Z</time>
      </trkpt>
      <trkpt lat="49.06449" lon="6.07797">
        <ele>168.9</ele>
        <time>2021-07-28T16:54:37Z</time>
      </trkpt>
      <trkpt lat="49.06445" lon="6.07794">
        <ele>168.9</ele>
        <time>2021-07-28T16:54:38Z</time>
      </trkpt>
      <trkpt lat="49.06438" lon="6.07788">
        <ele>168.9</ele>
        <time>2021-07-28T16:54:40Z</time>
      </trkpt>
      <trkpt lat="49.06436" lon="6.07784">
        <ele>168.9</ele>
        <time>2021-07-28T16:54:41Z</time>
      </trkpt>
      <trkpt lat="49.06433" lon="6.07783">
        <ele>168.9</ele>
        <time>2021-07-28T16:54:42Z</time>
      </trkpt>
      <trkpt lat="49.06428" lon="6.07781">
        <ele>168.9</ele>
        <time>2021-07-28T16:54:43Z</time>
      </trkpt>
      <trkpt lat="49.06422" lon="6.07778">
        <ele>168.9</ele>
        <time>2021-07-28T16:54:45Z</time>
      </trkpt>
      <trkpt lat="49.06418" lon="6.07775">
        <ele>169</ele>
        <time>2021-07-28T16:54:46Z</time>
      </trkpt>
      <trkpt lat="49.06412" lon="6.07772">
        <ele>169</ele>
        <time>2021-07-28T16:54:48Z</time>
      </trkpt>
      <trkpt lat="49.06409" lon="6.07769">
        <ele>169</ele>
        <time>2021-07-28T16:54:49Z</time>
      </trkpt>
      <trkpt lat="49.06406" lon="6.07765">
        <ele>169</ele>
        <time>2021-07-28T16:54:50Z</time>
      </trkpt>
      <trkpt lat="49.06402" lon="6.07761">
        <ele>169</ele>
        <time>2021-07-28T16:54:51Z</time>
      </trkpt>
      <trkpt lat="49.06396" lon="6.07756">
        <ele>169</ele>
        <time>2021-07-28T16:54:53Z</time>
      </trkpt>
      <trkpt lat="49.06393" lon="6.07751">
        <ele>169</ele>
        <time>2021-07-28T16:54:54Z</time>
      </trkpt>
      <trkpt lat="49.06389" lon="6.07747">
        <ele>169</ele>
        <time>2021-07-28T16:54:56Z</time>
      </trkpt>
      <trkpt lat="49.06387" lon="6.07744">
        <ele>169</ele>
        <time>2021-07-28T16:54:57Z</time>
      </trkpt>
      <trkpt lat="49.06384" lon="6.0774">
        <ele>169</ele>
        <time>2021-07-28T16:54:58Z</time>
      </trkpt>
      <trkpt lat="49.06381" lon="6.07737">
        <ele>169.1</ele>
        <time>2021-07-28T16:54:59Z</time>
      </trkpt>
      <trkpt lat="49.06377" lon="6.0773">
        <ele>169.1</ele>
        <time>2021-07-28T16:55:01Z</time>
      </trkpt>
      <trkpt lat="49.06373" lon="6.07726">
        <ele>169.1</ele>
        <time>2021-07-28T16:55:02Z</time>
      </trkpt>
      <trkpt lat="49.0637" lon="6.07724">
        <ele>169.1</ele>
        <time>2021-07-28T16:55:03Z</time>
      </trkpt>
      <trkpt lat="49.06366" lon="6.07721">
        <ele>169</ele>
        <time>2021-07-28T16:55:05Z</time>
      </trkpt>
      <trkpt lat="49.06362" lon="6.07717">
        <ele>169</ele>
        <time>2021-07-28T16:55:06Z</time>
      </trkpt>
      <trkpt lat="49.06359" lon="6.07713">
        <ele>169</ele>
        <time>2021-07-28T16:55:07Z</time>
      </trkpt>
      <trkpt lat="49.06354" lon="6.07707">
        <ele>169</ele>
        <time>2021-07-28T16:55:09Z</time>
      </trkpt>
      <trkpt lat="49.06351" lon="6.07704">
        <ele>169</ele>
        <time>2021-07-28T16:55:10Z</time>
      </trkpt>
      <trkpt lat="49.06347" lon="6.07699">
        <ele>169</ele>
        <time>2021-07-28T16:55:12Z</time>
      </trkpt>
      <trkpt lat="49.06342" lon="6.07696">
        <ele>169</ele>
        <time>2021-07-28T16:55:13Z</time>
      </trkpt>
      <trkpt lat="49.06338" lon="6.07694">
        <ele>169</ele>
        <time>2021-07-28T16:55:14Z</time>
      </trkpt>
      <trkpt lat="49.06332" lon="6.07692">
        <ele>169</ele>
        <time>2021-07-28T16:55:16Z</time>
      </trkpt>
      <trkpt lat="49.0633" lon="6.0769">
        <ele>169</ele>
        <time>2021-07-28T16:55:17Z</time>
      </trkpt>
      <trkpt lat="49.06327" lon="6.07687">
        <ele>169</ele>
        <time>2021-07-28T16:55:18Z</time>
      </trkpt>
      <trkpt lat="49.06325" lon="6.07683">
        <ele>169</ele>
        <time>2021-07-28T16:55:19Z</time>
      </trkpt>
      <trkpt lat="49.06323" lon="6.07678">
        <ele>169</ele>
        <time>2021-07-28T16:55:20Z</time>
      </trkpt>
      <trkpt lat="49.06321" lon="6.07672">
        <ele>169</ele>
        <time>2021-07-28T16:55:21Z</time>
      </trkpt>
      <trkpt lat="49.06317" lon="6.07659">
        <ele>169</ele>
        <time>2021-07-28T16:55:23Z</time>
      </trkpt>
      <trkpt lat="49.06316" lon="6.07652">
        <ele>169</ele>
        <time>2021-07-28T16:55:24Z</time>
      </trkpt>
      <trkpt lat="49.06317" lon="6.07638">
        <ele>169</ele>
        <time>2021-07-28T16:55:26Z</time>
      </trkpt>
      <trkpt lat="49.0632" lon="6.07635">
        <ele>168.9</ele>
        <time>2021-07-28T16:55:28Z</time>
      </trkpt>
      <trkpt lat="49.06322" lon="6.07628">
        <ele>168.9</ele>
        <time>2021-07-28T16:55:29Z</time>
      </trkpt>
      <trkpt lat="49.06324" lon="6.07622">
        <ele>168.9</ele>
        <time>2021-07-28T16:55:30Z</time>
      </trkpt>
      <trkpt lat="49.06324" lon="6.07612">
        <ele>168.9</ele>
        <time>2021-07-28T16:55:32Z</time>
      </trkpt>
      <trkpt lat="49.06322" lon="6.07602">
        <ele>168.9</ele>
        <time>2021-07-28T16:55:34Z</time>
      </trkpt>
      <trkpt lat="49.06321" lon="6.07594">
        <ele>168.9</ele>
        <time>2021-07-28T16:55:35Z</time>
      </trkpt>
      <trkpt lat="49.06321" lon="6.07587">
        <ele>168.9</ele>
        <time>2021-07-28T16:55:36Z</time>
      </trkpt>
      <trkpt lat="49.06321" lon="6.07581">
        <ele>168.9</ele>
        <time>2021-07-28T16:55:37Z</time>
      </trkpt>
      <trkpt lat="49.06321" lon="6.07579">
        <ele>168.9</ele>
        <time>2021-07-28T16:55:38Z</time>
      </trkpt>
      <trkpt lat="49.06318" lon="6.0757">
        <ele>168.9</ele>
        <time>2021-07-28T16:55:40Z</time>
      </trkpt>
      <trkpt lat="49.06316" lon="6.07565">
        <ele>168.9</ele>
        <time>2021-07-28T16:55:41Z</time>
      </trkpt>
      <trkpt lat="49.06315" lon="6.07561">
        <ele>168.9</ele>
        <time>2021-07-28T16:55:42Z</time>
      </trkpt>
      <trkpt lat="49.06314" lon="6.07552">
        <ele>168.9</ele>
        <time>2021-07-28T16:55:43Z</time>
      </trkpt>
      <trkpt lat="49.06314" lon="6.07545">
        <ele>168.9</ele>
        <time>2021-07-28T16:55:45Z</time>
      </trkpt>
      <trkpt lat="49.06313" lon="6.07538">
        <ele>168.9</ele>
        <time>2021-07-28T16:55:46Z</time>
      </trkpt>
      <trkpt lat="49.06312" lon="6.07532">
        <ele>168.9</ele>
        <time>2021-07-28T16:55:47Z</time>
      </trkpt>
      <trkpt lat="49.06308" lon="6.07526">
        <ele>168.9</ele>
        <time>2021-07-28T16:55:49Z</time>
      </trkpt>
      <trkpt lat="49.06304" lon="6.07525">
        <ele>168.9</ele>
        <time>2021-07-28T16:55:50Z</time>
      </trkpt>
      <trkpt lat="49.06293" lon="6.07521">
        <ele>168.8</ele>
        <time>2021-07-28T16:55:51Z</time>
      </trkpt>
      <trkpt lat="49.06283" lon="6.07516">
        <ele>168.7</ele>
        <time>2021-07-28T16:55:53Z</time>
      </trkpt>
      <trkpt lat="49.06279" lon="6.07514">
        <ele>168.7</ele>
        <time>2021-07-28T16:55:54Z</time>
      </trkpt>
      <trkpt lat="49.06275" lon="6.07512">
        <ele>168.7</ele>
        <time>2021-07-28T16:55:55Z</time>
      </trkpt>
      <trkpt lat="49.06273" lon="6.0751">
        <ele>168.7</ele>
        <time>2021-07-28T16:55:56Z</time>
      </trkpt>
      <trkpt lat="49.06269" lon="6.07506">
        <ele>168.7</ele>
        <time>2021-07-28T16:55:58Z</time>
      </trkpt>
      <trkpt lat="49.06267" lon="6.07502">
        <ele>168.7</ele>
        <time>2021-07-28T16:55:59Z</time>
      </trkpt>
      <trkpt lat="49.06261" lon="6.07489">
        <ele>168.8</ele>
        <time>2021-07-28T16:56:01Z</time>
      </trkpt>
      <trkpt lat="49.0626" lon="6.07481">
        <ele>168.8</ele>
        <time>2021-07-28T16:56:03Z</time>
      </trkpt>
      <trkpt lat="49.06259" lon="6.07475">
        <ele>168.8</ele>
        <time>2021-07-28T16:56:04Z</time>
      </trkpt>
      <trkpt lat="49.06257" lon="6.07466">
        <ele>168.8</ele>
        <time>2021-07-28T16:56:05Z</time>
      </trkpt>
      <trkpt lat="49.06256" lon="6.0746">
        <ele>168.8</ele>
        <time>2021-07-28T16:56:06Z</time>
      </trkpt>
      <trkpt lat="49.06255" lon="6.07455">
        <ele>168.8</ele>
        <time>2021-07-28T16:56:07Z</time>
      </trkpt>
      <trkpt lat="49.06253" lon="6.07446">
        <ele>168.8</ele>
        <time>2021-07-28T16:56:09Z</time>
      </trkpt>
      <trkpt lat="49.06252" lon="6.07441">
        <ele>168.8</ele>
        <time>2021-07-28T16:56:10Z</time>
      </trkpt>
      <trkpt lat="49.0625" lon="6.07433">
        <ele>168.8</ele>
        <time>2021-07-28T16:56:12Z</time>
      </trkpt>
      <trkpt lat="49.06246" lon="6.07424">
        <ele>168.8</ele>
        <time>2021-07-28T16:56:13Z</time>
      </trkpt>
      <trkpt lat="49.06244" lon="6.07417">
        <ele>168.8</ele>
        <time>2021-07-28T16:56:14Z</time>
      </trkpt>
      <trkpt lat="49.06242" lon="6.07411">
        <ele>168.9</ele>
        <time>2021-07-28T16:56:16Z</time>
      </trkpt>
      <trkpt lat="49.0624" lon="6.07404">
        <ele>168.9</ele>
        <time>2021-07-28T16:56:17Z</time>
      </trkpt>
      <trkpt lat="49.06239" lon="6.07399">
        <ele>168.9</ele>
        <time>2021-07-28T16:56:18Z</time>
      </trkpt>
      <trkpt lat="49.06236" lon="6.07392">
        <ele>168.9</ele>
        <time>2021-07-28T16:56:20Z</time>
      </trkpt>
      <trkpt lat="49.06235" lon="6.07387">
        <ele>168.9</ele>
        <time>2021-07-28T16:56:21Z</time>
      </trkpt>
      <trkpt lat="49.06232" lon="6.07379">
        <ele>168.9</ele>
        <time>2021-07-28T16:56:22Z</time>
      </trkpt>
      <trkpt lat="49.0623" lon="6.07376">
        <ele>169</ele>
        <time>2021-07-28T16:56:23Z</time>
      </trkpt>
      <trkpt lat="49.06228" lon="6.07367">
        <ele>169</ele>
        <time>2021-07-28T16:56:25Z</time>
      </trkpt>
      <trkpt lat="49.06226" lon="6.0736">
        <ele>169</ele>
        <time>2021-07-28T16:56:26Z</time>
      </trkpt>
      <trkpt lat="49.06224" lon="6.07352">
        <ele>169</ele>
        <time>2021-07-28T16:56:27Z</time>
      </trkpt>
      <trkpt lat="49.06219" lon="6.07339">
        <ele>169</ele>
        <time>2021-07-28T16:56:29Z</time>
      </trkpt>
      <trkpt lat="49.06216" lon="6.07335">
        <ele>169</ele>
        <time>2021-07-28T16:56:30Z</time>
      </trkpt>
      <trkpt lat="49.06212" lon="6.0733">
        <ele>169</ele>
        <time>2021-07-28T16:56:31Z</time>
      </trkpt>
      <trkpt lat="49.06207" lon="6.07326">
        <ele>169</ele>
        <time>2021-07-28T16:56:33Z</time>
      </trkpt>
      <trkpt lat="49.06203" lon="6.07326">
        <ele>169</ele>
        <time>2021-07-28T16:56:35Z</time>
      </trkpt>
      <trkpt lat="49.06198" lon="6.0733">
        <ele>169</ele>
        <time>2021-07-28T16:56:37Z</time>
      </trkpt>
      <trkpt lat="49.06195" lon="6.07331">
        <ele>169</ele>
        <time>2021-07-28T16:56:38Z</time>
      </trkpt>
      <trkpt lat="49.06191" lon="6.07329">
        <ele>169</ele>
        <time>2021-07-28T16:56:40Z</time>
      </trkpt>
      <trkpt lat="49.06189" lon="6.07325">
        <ele>169</ele>
        <time>2021-07-28T16:56:42Z</time>
      </trkpt>
      <trkpt lat="49.06187" lon="6.07321">
        <ele>169</ele>
        <time>2021-07-28T16:56:44Z</time>
      </trkpt>
      <trkpt lat="49.06185" lon="6.07315">
        <ele>169</ele>
        <time>2021-07-28T16:56:46Z</time>
      </trkpt>
      <trkpt lat="49.06183" lon="6.0731">
        <ele>169</ele>
        <time>2021-07-28T16:56:48Z</time>
      </trkpt>
      <trkpt lat="49.06183" lon="6.07309">
        <ele>169</ele>
        <time>2021-07-28T16:56:49Z</time>
      </trkpt>
      <trkpt lat="49.06182" lon="6.07307">
        <ele>169</ele>
        <time>2021-07-28T16:56:50Z</time>
      </trkpt>
      <trkpt lat="49.05287" lon="6.06474">
        <ele>169.3</ele>
        <time>2021-07-28T17:02:12Z</time>
      </trkpt>
      <trkpt lat="49.05278" lon="6.06475">
        <ele>169.3</ele>
        <time>2021-07-28T17:02:14Z</time>
      </trkpt>
      <trkpt lat="49.05262" lon="6.06481">
        <ele>169.3</ele>
        <time>2021-07-28T17:02:15Z</time>
      </trkpt>
      <trkpt lat="49.05254" lon="6.06483">
        <ele>169.3</ele>
        <time>2021-07-28T17:02:17Z</time>
      </trkpt>
      <trkpt lat="49.05251" lon="6.06483">
        <ele>169.3</ele>
        <time>2021-07-28T17:02:18Z</time>
      </trkpt>
      <trkpt lat="49.0525" lon="6.06483">
        <ele>169.3</ele>
        <time>2021-07-28T17:02:19Z</time>
      </trkpt>
      <trkpt lat="49.05248" lon="6.06483">
        <ele>169.3</ele>
        <time>2021-07-28T17:02:20Z</time>
      </trkpt>
      <trkpt lat="49.05244" lon="6.06485">
        <ele>169.3</ele>
        <time>2021-07-28T17:02:22Z</time>
      </trkpt>
      <trkpt lat="49.05238" lon="6.06489">
        <ele>169.4</ele>
        <time>2021-07-28T17:02:23Z</time>
      </trkpt>
      <trkpt lat="49.0523" lon="6.06492">
        <ele>169.5</ele>
        <time>2021-07-28T17:02:24Z</time>
      </trkpt>
      <trkpt lat="49.05223" lon="6.06493">
        <ele>169.5</ele>
        <time>2021-07-28T17:02:26Z</time>
      </trkpt>
      <trkpt lat="49.05219" lon="6.06491">
        <ele>169.6</ele>
        <time>2021-07-28T17:02:27Z</time>
      </trkpt>
      <trkpt lat="49.05217" lon="6.06489">
        <ele>169.6</ele>
        <time>2021-07-28T17:02:28Z</time>
      </trkpt>
      <trkpt lat="49.05216" lon="6.06489">
        <ele>169.6</ele>
        <time>2021-07-28T17:02:29Z</time>
      </trkpt>
      <trkpt lat="49.05211" lon="6.06488">
        <ele>169.6</ele>
        <time>2021-07-28T17:02:30Z</time>
      </trkpt>
      <trkpt lat="49.05207" lon="6.06488">
        <ele>169.6</ele>
        <time>2021-07-28T17:02:31Z</time>
      </trkpt>
      <trkpt lat="49.05193" lon="6.06485">
        <ele>169.5</ele>
        <time>2021-07-28T17:02:34Z</time>
      </trkpt>
      <trkpt lat="49.05189" lon="6.06483">
        <ele>169.5</ele>
        <time>2021-07-28T17:02:36Z</time>
      </trkpt>
      <trkpt lat="49.05183" lon="6.06484">
        <ele>169.4</ele>
        <time>2021-07-28T17:02:38Z</time>
      </trkpt>
      <trkpt lat="49.0518" lon="6.06484">
        <ele>169.4</ele>
        <time>2021-07-28T17:02:39Z</time>
      </trkpt>
      <trkpt lat="49.05177" lon="6.06485">
        <ele>169.4</ele>
        <time>2021-07-28T17:02:40Z</time>
      </trkpt>
      <trkpt lat="49.05174" lon="6.06485">
        <ele>169.4</ele>
        <time>2021-07-28T17:02:41Z</time>
      </trkpt>
      <trkpt lat="49.05167" lon="6.06485">
        <ele>169.4</ele>
        <time>2021-07-28T17:02:42Z</time>
      </trkpt>
      <trkpt lat="49.05158" lon="6.06485">
        <ele>169.3</ele>
        <time>2021-07-28T17:02:44Z</time>
      </trkpt>
      <trkpt lat="49.05154" lon="6.06485">
        <ele>169.3</ele>
        <time>2021-07-28T17:02:46Z</time>
      </trkpt>
      <trkpt lat="49.05149" lon="6.06486">
        <ele>169.2</ele>
        <time>2021-07-28T17:02:47Z</time>
      </trkpt>
      <trkpt lat="49.05145" lon="6.06486">
        <ele>169.2</ele>
        <time>2021-07-28T17:02:48Z</time>
      </trkpt>
      <trkpt lat="49.05134" lon="6.06486">
        <ele>169.2</ele>
        <time>2021-07-28T17:02:50Z</time>
      </trkpt>
      <trkpt lat="49.0513" lon="6.06484">
        <ele>169.1</ele>
        <time>2021-07-28T17:02:51Z</time>
      </trkpt>
      <trkpt lat="49.05128" lon="6.06483">
        <ele>169.1</ele>
        <time>2021-07-28T17:02:52Z</time>
      </trkpt>
      <trkpt lat="49.05126" lon="6.06482">
        <ele>169.1</ele>
        <time>2021-07-28T17:02:54Z</time>
      </trkpt>
      <trkpt lat="49.0512" lon="6.06482">
        <ele>169.1</ele>
        <time>2021-07-28T17:02:55Z</time>
      </trkpt>
      <trkpt lat="49.05112" lon="6.06482">
        <ele>169.1</ele>
        <time>2021-07-28T17:02:56Z</time>
      </trkpt>
      <trkpt lat="49.05106" lon="6.06483">
        <ele>169.1</ele>
        <time>2021-07-28T17:02:57Z</time>
      </trkpt>
      <trkpt lat="49.05102" lon="6.06484">
        <ele>169.1</ele>
        <time>2021-07-28T17:02:58Z</time>
      </trkpt>
      <trkpt lat="49.051" lon="6.06481">
        <ele>169.1</ele>
        <time>2021-07-28T17:03:00Z</time>
      </trkpt>
      <trkpt lat="49.05095" lon="6.06476">
        <ele>169.2</ele>
        <time>2021-07-28T17:03:02Z</time>
      </trkpt>
      <trkpt lat="49.05082" lon="6.06479">
        <ele>169.2</ele>
        <time>2021-07-28T17:03:04Z</time>
      </trkpt>
      <trkpt lat="49.05074" lon="6.06483">
        <ele>169.3</ele>
        <time>2021-07-28T17:03:05Z</time>
      </trkpt>
      <trkpt lat="49.0507" lon="6.06485">
        <ele>169.3</ele>
        <time>2021-07-28T17:03:06Z</time>
      </trkpt>
      <trkpt lat="49.05063" lon="6.06492">
        <ele>169.3</ele>
        <time>2021-07-28T17:03:07Z</time>
      </trkpt>
      <trkpt lat="49.05059" lon="6.06495">
        <ele>169.3</ele>
        <time>2021-07-28T17:03:09Z</time>
      </trkpt>
      <trkpt lat="49.05056" lon="6.06496">
        <ele>169.3</ele>
        <time>2021-07-28T17:03:10Z</time>
      </trkpt>
      <trkpt lat="49.05053" lon="6.06498">
        <ele>169.3</ele>
        <time>2021-07-28T17:03:11Z</time>
      </trkpt>
      <trkpt lat="49.0505" lon="6.065">
        <ele>169.3</ele>
        <time>2021-07-28T17:03:12Z</time>
      </trkpt>
      <trkpt lat="49.05049" lon="6.06501">
        <ele>169.3</ele>
        <time>2021-07-28T17:03:13Z</time>
      </trkpt>
      <trkpt lat="49.05047" lon="6.06502">
        <ele>169.3</ele>
        <time>2021-07-28T17:03:14Z</time>
      </trkpt>
      <trkpt lat="49.05045" lon="6.06504">
        <ele>169.3</ele>
        <time>2021-07-28T17:03:16Z</time>
      </trkpt>
      <trkpt lat="49.05021" lon="6.06528">
        <ele>169.3</ele>
        <time>2021-07-28T17:03:21Z</time>
      </trkpt>
      <trkpt lat="49.05013" lon="6.06527">
        <ele>169.3</ele>
        <time>2021-07-28T17:03:23Z</time>
      </trkpt>
      <trkpt lat="49.05008" lon="6.06524">
        <ele>169.3</ele>
        <time>2021-07-28T17:03:24Z</time>
      </trkpt>
      <trkpt lat="49.05003" lon="6.0652">
        <ele>169.3</ele>
        <time>2021-07-28T17:03:25Z</time>
      </trkpt>
      <trkpt lat="49.05001" lon="6.06517">
        <ele>169.3</ele>
        <time>2021-07-28T17:03:26Z</time>
      </trkpt>
      <trkpt lat="49.04996" lon="6.06513">
        <ele>169.3</ele>
        <time>2021-07-28T17:03:28Z</time>
      </trkpt>
      <trkpt lat="49.04992" lon="6.06509">
        <ele>169.3</ele>
        <time>2021-07-28T17:03:29Z</time>
      </trkpt>
      <trkpt lat="49.04988" lon="6.06505">
        <ele>169.4</ele>
        <time>2021-07-28T17:03:30Z</time>
      </trkpt>
      <trkpt lat="49.04985" lon="6.06502">
        <ele>169.4</ele>
        <time>2021-07-28T17:03:32Z</time>
      </trkpt>
      <trkpt lat="49.04983" lon="6.065">
        <ele>169.4</ele>
        <time>2021-07-28T17:03:33Z</time>
      </trkpt>
      <trkpt lat="49.04982" lon="6.06499">
        <ele>169.4</ele>
        <time>2021-07-28T17:03:34Z</time>
      </trkpt>
      <trkpt lat="49.0498" lon="6.06498">
        <ele>169.4</ele>
        <time>2021-07-28T17:03:35Z</time>
      </trkpt>
      <trkpt lat="49.04198" lon="6.06075">
        <ele>170.8</ele>
        <time>2021-07-28T17:08:02Z</time>
      </trkpt>
      <trkpt lat="49.04193" lon="6.06073">
        <ele>170.8</ele>
        <time>2021-07-28T17:08:03Z</time>
      </trkpt>
      <trkpt lat="49.04188" lon="6.06071">
        <ele>170.8</ele>
        <time>2021-07-28T17:08:04Z</time>
      </trkpt>
      <trkpt lat="49.04181" lon="6.06068">
        <ele>170.8</ele>
        <time>2021-07-28T17:08:05Z</time>
      </trkpt>
      <trkpt lat="49.04175" lon="6.06062">
        <ele>170.8</ele>
        <time>2021-07-28T17:08:07Z</time>
      </trkpt>
      <trkpt lat="49.04169" lon="6.06055">
        <ele>170.8</ele>
        <time>2021-07-28T17:08:08Z</time>
      </trkpt>
      <trkpt lat="49.04162" lon="6.06046">
        <ele>170.8</ele>
        <time>2021-07-28T17:08:09Z</time>
      </trkpt>
      <trkpt lat="49.0415" lon="6.06031">
        <ele>170.8</ele>
        <time>2021-07-28T17:08:11Z</time>
      </trkpt>
      <trkpt lat="49.04144" lon="6.06024">
        <ele>170.8</ele>
        <time>2021-07-28T17:08:12Z</time>
      </trkpt>
      <trkpt lat="49.04129" lon="6.06002">
        <ele>170.7</ele>
        <time>2021-07-28T17:08:14Z</time>
      </trkpt>
      <trkpt lat="49.04122" lon="6.05993">
        <ele>170.7</ele>
        <time>2021-07-28T17:08:15Z</time>
      </trkpt>
      <trkpt lat="49.04109" lon="6.05976">
        <ele>170.5</ele>
        <time>2021-07-28T17:08:17Z</time>
      </trkpt>
      <trkpt lat="49.04099" lon="6.05965">
        <ele>170.4</ele>
        <time>2021-07-28T17:08:19Z</time>
      </trkpt>
      <trkpt lat="49.04095" lon="6.05961">
        <ele>170.4</ele>
        <time>2021-07-28T17:08:20Z</time>
      </trkpt>
      <trkpt lat="49.04091" lon="6.05958">
        <ele>170.3</ele>
        <time>2021-07-28T17:08:21Z</time>
      </trkpt>
      <trkpt lat="49.04086" lon="6.05954">
        <ele>170.3</ele>
        <time>2021-07-28T17:08:23Z</time>
      </trkpt>
      <trkpt lat="49.04081" lon="6.0595">
        <ele>170.2</ele>
        <time>2021-07-28T17:08:24Z</time>
      </trkpt>
      <trkpt lat="49.04078" lon="6.05947">
        <ele>170.2</ele>
        <time>2021-07-28T17:08:25Z</time>
      </trkpt>
      <trkpt lat="49.04076" lon="6.05943">
        <ele>170.2</ele>
        <time>2021-07-28T17:08:26Z</time>
      </trkpt>
      <trkpt lat="49.0407" lon="6.05937">
        <ele>170.2</ele>
        <time>2021-07-28T17:08:28Z</time>
      </trkpt>
      <trkpt lat="49.04064" lon="6.0593">
        <ele>170.2</ele>
        <time>2021-07-28T17:08:30Z</time>
      </trkpt>
      <trkpt lat="49.04061" lon="6.05928">
        <ele>170.2</ele>
        <time>2021-07-28T17:08:31Z</time>
      </trkpt>
      <trkpt lat="49.04058" lon="6.05925">
        <ele>170.1</ele>
        <time>2021-07-28T17:08:32Z</time>
      </trkpt>
      <trkpt lat="49.04054" lon="6.05922">
        <ele>170.1</ele>
        <time>2021-07-28T17:08:33Z</time>
      </trkpt>
      <trkpt lat="49.04047" lon="6.05919">
        <ele>170.1</ele>
        <time>2021-07-28T17:08:35Z</time>
      </trkpt>
      <trkpt lat="49.04042" lon="6.05916">
        <ele>170.2</ele>
        <time>2021-07-28T17:08:37Z</time>
      </trkpt>
      <trkpt lat="49.04041" lon="6.05915">
        <ele>170.3</ele>
        <time>2021-07-28T17:08:38Z</time>
      </trkpt>
      <trkpt lat="49.04037" lon="6.05916">
        <ele>170.3</ele>
        <time>2021-07-28T17:08:40Z</time>
      </trkpt>
      <trkpt lat="49.04035" lon="6.05915">
        <ele>170.4</ele>
        <time>2021-07-28T17:08:41Z</time>
      </trkpt>
      <trkpt lat="49.04032" lon="6.0591">
        <ele>170.5</ele>
        <time>2021-07-28T17:08:43Z</time>
      </trkpt>
      <trkpt lat="49.04031" lon="6.05904">
        <ele>170.6</ele>
        <time>2021-07-28T17:08:44Z</time>
      </trkpt>
      <trkpt lat="49.04031" lon="6.05899">
        <ele>170.7</ele>
        <time>2021-07-28T17:08:45Z</time>
      </trkpt>
      <trkpt lat="49.04032" lon="6.05894">
        <ele>170.8</ele>
        <time>2021-07-28T17:08:47Z</time>
      </trkpt>
      <trkpt lat="49.04032" lon="6.05892">
        <ele>170.8</ele>
        <time>2021-07-28T17:08:48Z</time>
      </trkpt>
      <trkpt lat="49.04032" lon="6.05893">
        <ele>170.8</ele>
        <time>2021-07-28T17:08:49Z</time>
      </trkpt>
      <trkpt lat="49.04033" lon="6.05894">
        <ele>170.9</ele>
        <time>2021-07-28T17:08:50Z</time>
      </trkpt>
      <trkpt lat="49.04033" lon="6.05894">
        <ele>170.9</ele>
        <time>2021-07-28T17:08:52Z</time>
      </trkpt>
      <trkpt lat="49.04033" lon="6.05894">
        <ele>170.9</ele>
        <time>2021-07-28T17:08:53Z</time>
      </trkpt>
      <trkpt lat="49.04034" lon="6.05893">
        <ele>170.9</ele>
        <time>2021-07-28T17:08:54Z</time>
      </trkpt>
      <trkpt lat="49.04034" lon="6.05892">
        <ele>170.9</ele>
        <time>2021-07-28T17:08:56Z</time>
      </trkpt>
      <trkpt lat="49.04034" lon="6.05892">
        <ele>170.9</ele>
        <time>2021-07-28T17:08:58Z</time>
      </trkpt>
      <trkpt lat="49.04023" lon="6.05917">
        <ele>171.4</ele>
        <time>2021-07-28T17:10:06Z</time>
      </trkpt>
      <trkpt lat="49.04021" lon="6.05916">
        <ele>171.4</ele>
        <time>2021-07-28T17:10:07Z</time>
      </trkpt>
      <trkpt lat="49.04019" lon="6.05915">
        <ele>171.5</ele>
        <time>2021-07-28T17:10:09Z</time>
      </trkpt>
      <trkpt lat="49.04015" lon="6.05918">
        <ele>171.6</ele>
        <time>2021-07-28T17:10:11Z</time>
      </trkpt>
      <trkpt lat="49.04013" lon="6.0592">
        <ele>171.7</ele>
        <time>2021-07-28T17:10:13Z</time>
      </trkpt>
      <trkpt lat="49.04012" lon="6.05921">
        <ele>171.7</ele>
        <time>2021-07-28T17:10:14Z</time>
      </trkpt>
      <trkpt lat="49.04012" lon="6.05921">
        <ele>171.7</ele>
        <time>2021-07-28T17:10:16Z</time>
      </trkpt>
      <trkpt lat="49.04012" lon="6.05922">
        <ele>171.7</ele>
        <time>2021-07-28T17:10:17Z</time>
      </trkpt>
      <trkpt lat="49.04012" lon="6.05922">
        <ele>171.7</ele>
        <time>2021-07-28T17:10:19Z</time>
      </trkpt>
      <trkpt lat="49.04036" lon="6.05912">
        <ele>172.3</ele>
        <time>2021-07-28T17:13:40Z</time>
      </trkpt>
      <trkpt lat="49.04027" lon="6.05913">
        <ele>172.5</ele>
        <time>2021-07-28T17:13:42Z</time>
      </trkpt>
      <trkpt lat="49.04023" lon="6.05912">
        <ele>172.6</ele>
        <time>2021-07-28T17:13:43Z</time>
      </trkpt>
      <trkpt lat="49.04018" lon="6.05906">
        <ele>172.8</ele>
        <time>2021-07-28T17:13:45Z</time>
      </trkpt>
      <trkpt lat="49.04016" lon="6.059">
        <ele>172.9</ele>
        <time>2021-07-28T17:13:46Z</time>
      </trkpt>
      <trkpt lat="49.04015" lon="6.05894">
        <ele>172.7</ele>
        <time>2021-07-28T17:13:47Z</time>
      </trkpt>
      <trkpt lat="49.04017" lon="6.05881">
        <ele>172.5</ele>
        <time>2021-07-28T17:13:49Z</time>
      </trkpt>
      <trkpt lat="49.04019" lon="6.05874">
        <ele>172.4</ele>
        <time>2021-07-28T17:13:50Z</time>
      </trkpt>
      <trkpt lat="49.0402" lon="6.05868">
        <ele>172.2</ele>
        <time>2021-07-28T17:13:51Z</time>
      </trkpt>
      <trkpt lat="49.04022" lon="6.05855">
        <ele>172</ele>
        <time>2021-07-28T17:13:53Z</time>
      </trkpt>
      <trkpt lat="49.04022" lon="6.05849">
        <ele>171.9</ele>
        <time>2021-07-28T17:13:54Z</time>
      </trkpt>
      <trkpt lat="49.04022" lon="6.05845">
        <ele>171.9</ele>
        <time>2021-07-28T17:13:55Z</time>
      </trkpt>
      <trkpt lat="49.04021" lon="6.05841">
        <ele>171.8</ele>
        <time>2021-07-28T17:13:56Z</time>
      </trkpt>
      <trkpt lat="49.0402" lon="6.05836">
        <ele>171.8</ele>
        <time>2021-07-28T17:13:58Z</time>
      </trkpt>
      <trkpt lat="49.04019" lon="6.05835">
        <ele>171.8</ele>
        <time>2021-07-28T17:13:59Z</time>
      </trkpt>
      <trkpt lat="49.04019" lon="6.05834">
        <ele>171.7</ele>
        <time>2021-07-28T17:14:00Z</time>
      </trkpt>
      <trkpt lat="49.04017" lon="6.05834">
        <ele>171.7</ele>
        <time>2021-07-28T17:14:01Z</time>
      </trkpt>
      <trkpt lat="49.04014" lon="6.05835">
        <ele>171.7</ele>
        <time>2021-07-28T17:14:03Z</time>
      </trkpt>
      <trkpt lat="49.04012" lon="6.05836">
        <ele>171.7</ele>
        <time>2021-07-28T17:14:04Z</time>
      </trkpt>
      <trkpt lat="49.0401" lon="6.05835">
        <ele>171.7</ele>
        <time>2021-07-28T17:14:06Z</time>
      </trkpt>
      <trkpt lat="49.04008" lon="6.05835">
        <ele>171.7</ele>
        <time>2021-07-28T17:14:07Z</time>
      </trkpt>
      <trkpt lat="49.04005" lon="6.05832">
        <ele>171.7</ele>
        <time>2021-07-28T17:14:09Z</time>
      </trkpt>
      <trkpt lat="49.04002" lon="6.05832">
        <ele>171.8</ele>
        <time>2021-07-28T17:14:11Z</time>
      </trkpt>
      <trkpt lat="49.04" lon="6.05831">
        <ele>171.8</ele>
        <time>2021-07-28T17:14:12Z</time>
      </trkpt>
      <trkpt lat="49.03996" lon="6.0583">
        <ele>171.8</ele>
        <time>2021-07-28T17:14:14Z</time>
      </trkpt>
      <trkpt lat="49.03994" lon="6.0583">
        <ele>171.9</ele>
        <time>2021-07-28T17:14:15Z</time>
      </trkpt>
      <trkpt lat="49.03992" lon="6.05831">
        <ele>171.9</ele>
        <time>2021-07-28T17:14:17Z</time>
      </trkpt>
      <trkpt lat="49.0399" lon="6.05831">
        <ele>171.9</ele>
        <time>2021-07-28T17:14:18Z</time>
      </trkpt>
      <trkpt lat="49.03986" lon="6.0583">
        <ele>171.8</ele>
        <time>2021-07-28T17:14:20Z</time>
      </trkpt>
      <trkpt lat="49.03981" lon="6.05827">
        <ele>171.4</ele>
        <time>2021-07-28T17:14:22Z</time>
      </trkpt>
      <trkpt lat="49.03979" lon="6.05826">
        <ele>171.1</ele>
        <time>2021-07-28T17:14:23Z</time>
      </trkpt>
      <trkpt lat="49.03975" lon="6.05823">
        <ele>170.7</ele>
        <time>2021-07-28T17:14:24Z</time>
      </trkpt>
      <trkpt lat="49.03971" lon="6.0582">
        <ele>170.3</ele>
        <time>2021-07-28T17:14:26Z</time>
      </trkpt>
      <trkpt lat="49.03969" lon="6.05819">
        <ele>170.1</ele>
        <time>2021-07-28T17:14:27Z</time>
      </trkpt>
      <trkpt lat="49.03967" lon="6.05817">
        <ele>169.9</ele>
        <time>2021-07-28T17:14:28Z</time>
      </trkpt>
      <trkpt lat="49.03963" lon="6.0581">
        <ele>169.9</ele>
        <time>2021-07-28T17:14:30Z</time>
      </trkpt>
      <trkpt lat="49.0396" lon="6.05806">
        <ele>169.9</ele>
        <time>2021-07-28T17:14:32Z</time>
      </trkpt>
      <trkpt lat="49.03959" lon="6.05802">
        <ele>169.9</ele>
        <time>2021-07-28T17:14:33Z</time>
      </trkpt>
      <trkpt lat="49.03956" lon="6.05799">
        <ele>169.9</ele>
        <time>2021-07-28T17:14:34Z</time>
      </trkpt>
      <trkpt lat="49.03955" lon="6.05799">
        <ele>169.8</ele>
        <time>2021-07-28T17:14:35Z</time>
      </trkpt>
      <trkpt lat="49.03954" lon="6.05798">
        <ele>169.8</ele>
        <time>2021-07-28T17:14:36Z</time>
      </trkpt>
      <trkpt lat="49.03952" lon="6.05799">
        <ele>169.8</ele>
        <time>2021-07-28T17:14:38Z</time>
      </trkpt>
      <trkpt lat="49.0395" lon="6.05799">
        <ele>169.8</ele>
        <time>2021-07-28T17:14:39Z</time>
      </trkpt>
      <trkpt lat="49.03946" lon="6.05798">
        <ele>169.8</ele>
        <time>2021-07-28T17:14:41Z</time>
      </trkpt>
      <trkpt lat="49.03946" lon="6.05798">
        <ele>169.8</ele>
        <time>2021-07-28T17:14:43Z</time>
      </trkpt>
      <trkpt lat="49.03948" lon="6.05797">
        <ele>169.8</ele>
        <time>2021-07-28T17:14:45Z</time>
      </trkpt>
      <trkpt lat="49.03951" lon="6.05797">
        <ele>169.8</ele>
        <time>2021-07-28T17:14:46Z</time>
      </trkpt>
      <trkpt lat="49.03953" lon="6.05796">
        <ele>169.8</ele>
        <time>2021-07-28T17:14:48Z</time>
      </trkpt>
      <trkpt lat="49.03956" lon="6.05795">
        <ele>169.8</ele>
        <time>2021-07-28T17:14:50Z</time>
      </trkpt>
      <trkpt lat="49.03958" lon="6.05795">
        <ele>169.8</ele>
        <time>2021-07-28T17:14:52Z</time>
      </trkpt>
      <trkpt lat="49.03961" lon="6.05794">
        <ele>169.8</ele>
        <time>2021-07-28T17:26:28Z</time>
      </trkpt>
      <trkpt lat="49.03963" lon="6.05793">
        <ele>169.8</ele>
        <time>2021-07-28T17:26:29Z</time>
      </trkpt>
      <trkpt lat="49.0397" lon="6.05795">
        <ele>170</ele>
        <time>2021-07-28T17:26:31Z</time>
      </trkpt>
      <trkpt lat="49.03975" lon="6.05794">
        <ele>170.2</ele>
        <time>2021-07-28T17:26:32Z</time>
      </trkpt>
      <trkpt lat="49.03976" lon="6.05793">
        <ele>170.2</ele>
        <time>2021-07-28T17:26:34Z</time>
      </trkpt>
      <trkpt lat="49.03975" lon="6.05792">
        <ele>170.2</ele>
        <time>2021-07-28T17:26:35Z</time>
      </trkpt>
      <trkpt lat="49.03975" lon="6.0579">
        <ele>170.2</ele>
        <time>2021-07-28T17:26:37Z</time>
      </trkpt>
      <trkpt lat="49.03975" lon="6.0579">
        <ele>170.3</ele>
        <time>2021-07-28T17:26:39Z</time>
      </trkpt>
      <trkpt lat="49.03976" lon="6.05789">
        <ele>170.3</ele>
        <time>2021-07-28T17:26:42Z</time>
      </trkpt>
      <trkpt lat="49.03952" lon="6.05852">
        <ele>171.5</ele>
        <time>2021-07-28T17:48:42Z</time>
      </trkpt>
      <trkpt lat="49.03953" lon="6.05854">
        <ele>171.5</ele>
        <time>2021-07-28T17:48:43Z</time>
      </trkpt>
      <trkpt lat="49.03953" lon="6.05855">
        <ele>171.5</ele>
        <time>2021-07-28T17:48:45Z</time>
      </trkpt>
      <trkpt lat="49.03953" lon="6.05855">
        <ele>171.5</ele>
        <time>2021-07-28T17:48:46Z</time>
      </trkpt>
      <trkpt lat="49.03953" lon="6.05855">
        <ele>171.5</ele>
        <time>2021-07-28T17:48:49Z</time>
      </trkpt>
      <trkpt lat="49.03953" lon="6.05855">
        <ele>171.5</ele>
        <time>2021-07-28T17:48:50Z</time>
      </trkpt>
      <trkpt lat="49.03953" lon="6.05855">
        <ele>171.5</ele>
        <time>2021-07-28T17:48:51Z</time>
      </trkpt>
      <trkpt lat="49.03953" lon="6.05855">
        <ele>171.5</ele>
        <time>2021-07-28T17:48:52Z</time>
      </trkpt>
      <trkpt lat="49.03953" lon="6.05855">
        <ele>171.5</ele>
        <time>2021-07-28T17:48:55Z</time>
      </trkpt>
      <trkpt lat="49.03946" lon="6.05847">
        <ele>171.8</ele>
        <time>2021-07-28T17:49:41Z</time>
      </trkpt>
      <trkpt lat="49.03944" lon="6.05841">
        <ele>171.9</ele>
        <time>2021-07-28T17:49:47Z</time>
      </trkpt>
      <trkpt lat="49.03947" lon="6.05892">
        <ele>174.1</ele>
        <time>2021-07-28T17:50:07Z</time>
      </trkpt>
      <trkpt lat="49.03944" lon="6.05887">
        <ele>173.8</ele>
        <time>2021-07-28T17:50:09Z</time>
      </trkpt>
      <trkpt lat="49.03946" lon="6.05891">
        <ele>173.7</ele>
        <time>2021-07-28T17:50:11Z</time>
      </trkpt>
      <trkpt lat="49.03946" lon="6.05892">
        <ele>173.7</ele>
        <time>2021-07-28T17:50:12Z</time>
      </trkpt>
      <trkpt lat="49.03947" lon="6.05883">
        <ele>173.4</ele>
        <time>2021-07-28T17:50:14Z</time>
      </trkpt>
      <trkpt lat="49.03946" lon="6.05873">
        <ele>173</ele>
        <time>2021-07-28T17:50:15Z</time>
      </trkpt>
      <trkpt lat="49.03946" lon="6.05864">
        <ele>172.7</ele>
        <time>2021-07-28T17:52:37Z</time>
      </trkpt>
      <trkpt lat="49.03945" lon="6.05854">
        <ele>172.4</ele>
        <time>2021-07-28T17:52:39Z</time>
      </trkpt>
      <trkpt lat="49.03945" lon="6.05845">
        <ele>172.1</ele>
        <time>2021-07-28T17:52:40Z</time>
      </trkpt>
      <trkpt lat="49.03943" lon="6.05844">
        <ele>172</ele>
        <time>2021-07-28T17:52:41Z</time>
      </trkpt>
      <trkpt lat="49.03942" lon="6.05844">
        <ele>171.9</ele>
        <time>2021-07-28T17:52:42Z</time>
      </trkpt>
      <trkpt lat="49.03939" lon="6.05841">
        <ele>171.8</ele>
        <time>2021-07-28T17:52:44Z</time>
      </trkpt>
      <trkpt lat="49.03938" lon="6.0584">
        <ele>171.7</ele>
        <time>2021-07-28T17:52:45Z</time>
      </trkpt>
      <trkpt lat="49.03936" lon="6.05839">
        <ele>171.6</ele>
        <time>2021-07-28T17:52:47Z</time>
      </trkpt>
      <trkpt lat="49.03936" lon="6.05838">
        <ele>171.6</ele>
        <time>2021-07-28T17:52:48Z</time>
      </trkpt>
      <trkpt lat="49.03936" lon="6.05838">
        <ele>171.5</ele>
        <time>2021-07-28T17:52:49Z</time>
      </trkpt>
      <trkpt lat="49.03937" lon="6.05838">
        <ele>171.5</ele>
        <time>2021-07-28T17:52:51Z</time>
      </trkpt>
      <trkpt lat="49.03938" lon="6.05837">
        <ele>171.4</ele>
        <time>2021-07-28T17:52:53Z</time>
      </trkpt>
      <trkpt lat="49.03938" lon="6.05836">
        <ele>171.4</ele>
        <time>2021-07-28T17:52:54Z</time>
      </trkpt>
      <trkpt lat="49.0394" lon="6.05832">
        <ele>171.3</ele>
        <time>2021-07-28T17:52:56Z</time>
      </trkpt>
      <trkpt lat="49.0394" lon="6.0583">
        <ele>171.2</ele>
        <time>2021-07-28T17:52:57Z</time>
      </trkpt>
      <trkpt lat="49.03704" lon="6.05708">
        <ele>170</ele>
        <time>2021-07-29T08:52:56Z</time>
      </trkpt>
      <trkpt lat="49.03704" lon="6.05708">
        <ele>170</ele>
        <time>2021-07-29T08:52:56Z</time>
      </trkpt>
      <trkpt lat="49.03703" lon="6.05706">
        <ele>170</ele>
        <time>2021-07-29T08:52:57Z</time>
      </trkpt>
      <trkpt lat="49.03693" lon="6.05701">
        <ele>170</ele>
        <time>2021-07-29T08:52:59Z</time>
      </trkpt>
      <trkpt lat="49.03686" lon="6.05697">
        <ele>170.1</ele>
        <time>2021-07-29T08:53:01Z</time>
      </trkpt>
      <trkpt lat="49.03681" lon="6.05694">
        <ele>170.1</ele>
        <time>2021-07-29T08:53:02Z</time>
      </trkpt>
      <trkpt lat="49.0368" lon="6.05694">
        <ele>170.1</ele>
        <time>2021-07-29T08:53:03Z</time>
      </trkpt>
      <trkpt lat="49.03679" lon="6.05693">
        <ele>170.1</ele>
        <time>2021-07-29T08:53:04Z</time>
      </trkpt>
      <trkpt lat="49.03678" lon="6.05692">
        <ele>170.1</ele>
        <time>2021-07-29T08:53:05Z</time>
      </trkpt>
      <trkpt lat="49.03674" lon="6.05691">
        <ele>170.1</ele>
        <time>2021-07-29T08:53:07Z</time>
      </trkpt>
      <trkpt lat="49.03672" lon="6.05691">
        <ele>170.1</ele>
        <time>2021-07-29T08:53:08Z</time>
      </trkpt>
      <trkpt lat="49.03667" lon="6.05689">
        <ele>170.1</ele>
        <time>2021-07-29T08:53:09Z</time>
      </trkpt>
      <trkpt lat="49.03663" lon="6.05687">
        <ele>170.1</ele>
        <time>2021-07-29T08:53:11Z</time>
      </trkpt>
      <trkpt lat="49.03656" lon="6.05687">
        <ele>170.2</ele>
        <time>2021-07-29T08:53:12Z</time>
      </trkpt>
      <trkpt lat="49.03608" lon="6.05713">
        <ele>170.4</ele>
        <time>2021-07-29T08:53:23Z</time>
      </trkpt>
      <trkpt lat="49.03604" lon="6.05714">
        <ele>170.4</ele>
        <time>2021-07-29T08:53:24Z</time>
      </trkpt>
      <trkpt lat="49.03598" lon="6.05712">
        <ele>170.5</ele>
        <time>2021-07-29T08:53:26Z</time>
      </trkpt>
      <trkpt lat="49.03594" lon="6.0571">
        <ele>170.6</ele>
        <time>2021-07-29T08:53:27Z</time>
      </trkpt>
      <trkpt lat="49.03589" lon="6.05709">
        <ele>170.6</ele>
        <time>2021-07-29T08:53:28Z</time>
      </trkpt>
      <trkpt lat="49.03585" lon="6.05707">
        <ele>170.7</ele>
        <time>2021-07-29T08:53:29Z</time>
      </trkpt>
      <trkpt lat="49.0358" lon="6.05705">
        <ele>170.7</ele>
        <time>2021-07-29T08:53:30Z</time>
      </trkpt>
      <trkpt lat="49.03576" lon="6.05705">
        <ele>170.8</ele>
        <time>2021-07-29T08:53:31Z</time>
      </trkpt>
      <trkpt lat="49.03572" lon="6.05704">
        <ele>170.8</ele>
        <time>2021-07-29T08:53:33Z</time>
      </trkpt>
      <trkpt lat="49.03568" lon="6.05703">
        <ele>170.9</ele>
        <time>2021-07-29T08:53:34Z</time>
      </trkpt>
      <trkpt lat="49.03562" lon="6.05701">
        <ele>170.9</ele>
        <time>2021-07-29T08:53:35Z</time>
      </trkpt>
      <trkpt lat="49.03554" lon="6.05698">
        <ele>171</ele>
        <time>2021-07-29T08:53:37Z</time>
      </trkpt>
      <trkpt lat="49.03546" lon="6.05695">
        <ele>171.1</ele>
        <time>2021-07-29T08:53:39Z</time>
      </trkpt>
      <trkpt lat="49.03542" lon="6.05694">
        <ele>171.1</ele>
        <time>2021-07-29T08:53:40Z</time>
      </trkpt>
      <trkpt lat="49.03536" lon="6.05693">
        <ele>171.2</ele>
        <time>2021-07-29T08:53:42Z</time>
      </trkpt>
      <trkpt lat="49.03531" lon="6.05692">
        <ele>171.2</ele>
        <time>2021-07-29T08:53:43Z</time>
      </trkpt>
      <trkpt lat="49.03524" lon="6.05691">
        <ele>171.2</ele>
        <time>2021-07-29T08:53:45Z</time>
      </trkpt>
      <trkpt lat="49.0352" lon="6.05691">
        <ele>171.2</ele>
        <time>2021-07-29T08:53:46Z</time>
      </trkpt>
      <trkpt lat="49.03516" lon="6.05691">
        <ele>171.3</ele>
        <time>2021-07-29T08:53:47Z</time>
      </trkpt>
      <trkpt lat="49.03513" lon="6.0569">
        <ele>171.3</ele>
        <time>2021-07-29T08:53:48Z</time>
      </trkpt>
      <trkpt lat="49.03505" lon="6.05688">
        <ele>171.3</ele>
        <time>2021-07-29T08:53:50Z</time>
      </trkpt>
      <trkpt lat="49.03497" lon="6.05684">
        <ele>171.3</ele>
        <time>2021-07-29T08:53:52Z</time>
      </trkpt>
      <trkpt lat="49.0349" lon="6.05681">
        <ele>171.4</ele>
        <time>2021-07-29T08:53:53Z</time>
      </trkpt>
      <trkpt lat="49.03485" lon="6.05679">
        <ele>171.4</ele>
        <time>2021-07-29T08:53:54Z</time>
      </trkpt>
      <trkpt lat="49.03479" lon="6.05678">
        <ele>171.4</ele>
        <time>2021-07-29T08:53:55Z</time>
      </trkpt>
      <trkpt lat="49.03469" lon="6.05677">
        <ele>171.5</ele>
        <time>2021-07-29T08:53:57Z</time>
      </trkpt>
      <trkpt lat="49.03459" lon="6.05674">
        <ele>171.5</ele>
        <time>2021-07-29T08:53:59Z</time>
      </trkpt>
      <trkpt lat="49.03451" lon="6.0567">
        <ele>171.5</ele>
        <time>2021-07-29T08:54:01Z</time>
      </trkpt>
      <trkpt lat="49.03445" lon="6.05667">
        <ele>171.6</ele>
        <time>2021-07-29T08:54:02Z</time>
      </trkpt>
      <trkpt lat="49.03439" lon="6.05665">
        <ele>171.6</ele>
        <time>2021-07-29T08:54:03Z</time>
      </trkpt>
      <trkpt lat="49.0343" lon="6.05661">
        <ele>171.6</ele>
        <time>2021-07-29T08:54:05Z</time>
      </trkpt>
      <trkpt lat="49.03425" lon="6.05658">
        <ele>171.6</ele>
        <time>2021-07-29T08:54:06Z</time>
      </trkpt>
      <trkpt lat="49.03416" lon="6.05653">
        <ele>171.7</ele>
        <time>2021-07-29T08:54:08Z</time>
      </trkpt>
      <trkpt lat="49.03408" lon="6.05649">
        <ele>171.7</ele>
        <time>2021-07-29T08:54:09Z</time>
      </trkpt>
      <trkpt lat="49.03392" lon="6.05639">
        <ele>171.8</ele>
        <time>2021-07-29T08:54:11Z</time>
      </trkpt>
      <trkpt lat="49.03387" lon="6.05639">
        <ele>171.8</ele>
        <time>2021-07-29T08:54:12Z</time>
      </trkpt>
      <trkpt lat="49.03378" lon="6.05638">
        <ele>171.9</ele>
        <time>2021-07-29T08:54:14Z</time>
      </trkpt>
      <trkpt lat="49.03375" lon="6.05636">
        <ele>171.9</ele>
        <time>2021-07-29T08:54:15Z</time>
      </trkpt>
      <trkpt lat="49.03371" lon="6.05636">
        <ele>172</ele>
        <time>2021-07-29T08:54:17Z</time>
      </trkpt>
      <trkpt lat="49.03366" lon="6.05635">
        <ele>172</ele>
        <time>2021-07-29T08:54:18Z</time>
      </trkpt>
      <trkpt lat="49.03362" lon="6.05635">
        <ele>172</ele>
        <time>2021-07-29T08:54:19Z</time>
      </trkpt>
      <trkpt lat="49.03355" lon="6.05634">
        <ele>172</ele>
        <time>2021-07-29T08:54:21Z</time>
      </trkpt>
      <trkpt lat="49.03351" lon="6.05633">
        <ele>172</ele>
        <time>2021-07-29T08:54:22Z</time>
      </trkpt>
      <trkpt lat="49.03348" lon="6.05632">
        <ele>172</ele>
        <time>2021-07-29T08:54:23Z</time>
      </trkpt>
      <trkpt lat="49.03345" lon="6.05631">
        <ele>172</ele>
        <time>2021-07-29T08:54:24Z</time>
      </trkpt>
      <trkpt lat="49.03341" lon="6.05629">
        <ele>172</ele>
        <time>2021-07-29T08:54:26Z</time>
      </trkpt>
      <trkpt lat="49.03337" lon="6.05626">
        <ele>172</ele>
        <time>2021-07-29T08:54:27Z</time>
      </trkpt>
      <trkpt lat="49.03333" lon="6.05626">
        <ele>172</ele>
        <time>2021-07-29T08:54:28Z</time>
      </trkpt>
      <trkpt lat="49.0333" lon="6.05625">
        <ele>172</ele>
        <time>2021-07-29T08:54:29Z</time>
      </trkpt>
      <trkpt lat="49.03325" lon="6.05624">
        <ele>172</ele>
        <time>2021-07-29T08:54:31Z</time>
      </trkpt>
      <trkpt lat="49.03321" lon="6.05623">
        <ele>172</ele>
        <time>2021-07-29T08:54:32Z</time>
      </trkpt>
      <trkpt lat="49.03317" lon="6.05622">
        <ele>172</ele>
        <time>2021-07-29T08:54:33Z</time>
      </trkpt>
      <trkpt lat="49.03312" lon="6.0562">
        <ele>172.1</ele>
        <time>2021-07-29T08:54:34Z</time>
      </trkpt>
      <trkpt lat="49.03306" lon="6.05618">
        <ele>172.1</ele>
        <time>2021-07-29T08:54:36Z</time>
      </trkpt>
      <trkpt lat="49.03302" lon="6.05617">
        <ele>172.1</ele>
        <time>2021-07-29T08:54:37Z</time>
      </trkpt>
      <trkpt lat="49.03298" lon="6.05617">
        <ele>172.1</ele>
        <time>2021-07-29T08:54:38Z</time>
      </trkpt>
      <trkpt lat="49.03294" lon="6.05616">
        <ele>172.1</ele>
        <time>2021-07-29T08:54:39Z</time>
      </trkpt>
      <trkpt lat="49.0329" lon="6.05615">
        <ele>172.2</ele>
        <time>2021-07-29T08:54:40Z</time>
      </trkpt>
      <trkpt lat="49.03286" lon="6.05615">
        <ele>172.2</ele>
        <time>2021-07-29T08:54:41Z</time>
      </trkpt>
      <trkpt lat="49.03284" lon="6.05615">
        <ele>172.2</ele>
        <time>2021-07-29T08:54:42Z</time>
      </trkpt>
      <trkpt lat="49.03282" lon="6.05615">
        <ele>172.2</ele>
        <time>2021-07-29T08:54:44Z</time>
      </trkpt>
      <trkpt lat="49.03279" lon="6.05616">
        <ele>172.3</ele>
        <time>2021-07-29T08:54:45Z</time>
      </trkpt>
      <trkpt lat="49.03278" lon="6.05616">
        <ele>172.3</ele>
        <time>2021-07-29T08:54:46Z</time>
      </trkpt>
      <trkpt lat="49.03275" lon="6.05616">
        <ele>172.3</ele>
        <time>2021-07-29T08:54:47Z</time>
      </trkpt>
      <trkpt lat="49.0327" lon="6.05617">
        <ele>172.4</ele>
        <time>2021-07-29T08:54:48Z</time>
      </trkpt>
      <trkpt lat="49.03267" lon="6.05617">
        <ele>172.4</ele>
        <time>2021-07-29T08:54:49Z</time>
      </trkpt>
      <trkpt lat="49.03263" lon="6.05615">
        <ele>172.5</ele>
        <time>2021-07-29T08:54:51Z</time>
      </trkpt>
      <trkpt lat="49.0326" lon="6.05613">
        <ele>172.5</ele>
        <time>2021-07-29T08:54:56Z</time>
      </trkpt>
      <trkpt lat="49.03258" lon="6.0561">
        <ele>172.5</ele>
        <time>2021-07-29T08:54:57Z</time>
      </trkpt>
      <trkpt lat="49.03251" lon="6.05601">
        <ele>172.4</ele>
        <time>2021-07-29T08:54:59Z</time>
      </trkpt>
      <trkpt lat="49.03239" lon="6.0559">
        <ele>172.2</ele>
        <time>2021-07-29T08:55:00Z</time>
      </trkpt>
      <trkpt lat="49.03232" lon="6.05584">
        <ele>172.1</ele>
        <time>2021-07-29T08:55:02Z</time>
      </trkpt>
      <trkpt lat="49.03221" lon="6.05574">
        <ele>172</ele>
        <time>2021-07-29T08:55:03Z</time>
      </trkpt>
      <trkpt lat="49.03213" lon="6.05568">
        <ele>171.9</ele>
        <time>2021-07-29T08:55:05Z</time>
      </trkpt>
      <trkpt lat="49.03206" lon="6.05562">
        <ele>171.9</ele>
        <time>2021-07-29T08:55:06Z</time>
      </trkpt>
      <trkpt lat="49.032" lon="6.05559">
        <ele>171.9</ele>
        <time>2021-07-29T08:55:07Z</time>
      </trkpt>
      <trkpt lat="49.03192" lon="6.05559">
        <ele>171.9</ele>
        <time>2021-07-29T08:55:09Z</time>
      </trkpt>
      <trkpt lat="49.03187" lon="6.0556">
        <ele>171.8</ele>
        <time>2021-07-29T08:55:10Z</time>
      </trkpt>
      <trkpt lat="49.03181" lon="6.05561">
        <ele>171.8</ele>
        <time>2021-07-29T08:55:11Z</time>
      </trkpt>
      <trkpt lat="49.03173" lon="6.05562">
        <ele>171.8</ele>
        <time>2021-07-29T08:55:12Z</time>
      </trkpt>
      <trkpt lat="49.03166" lon="6.05562">
        <ele>171.9</ele>
        <time>2021-07-29T08:55:14Z</time>
      </trkpt>
      <trkpt lat="49.03158" lon="6.05562">
        <ele>171.9</ele>
        <time>2021-07-29T08:55:15Z</time>
      </trkpt>
      <trkpt lat="49.03153" lon="6.05562">
        <ele>171.9</ele>
        <time>2021-07-29T08:55:16Z</time>
      </trkpt>
      <trkpt lat="49.03147" lon="6.05562">
        <ele>172</ele>
        <time>2021-07-29T08:55:18Z</time>
      </trkpt>
      <trkpt lat="49.03142" lon="6.05562">
        <ele>172</ele>
        <time>2021-07-29T08:55:19Z</time>
      </trkpt>
      <trkpt lat="49.03138" lon="6.05563">
        <ele>172</ele>
        <time>2021-07-29T08:55:20Z</time>
      </trkpt>
      <trkpt lat="49.03134" lon="6.05564">
        <ele>172.1</ele>
        <time>2021-07-29T08:55:21Z</time>
      </trkpt>
      <trkpt lat="49.03128" lon="6.05564">
        <ele>172.1</ele>
        <time>2021-07-29T08:55:22Z</time>
      </trkpt>
      <trkpt lat="49.03123" lon="6.05563">
        <ele>172.1</ele>
        <time>2021-07-29T08:55:24Z</time>
      </trkpt>
      <trkpt lat="49.03118" lon="6.05562">
        <ele>172.1</ele>
        <time>2021-07-29T08:55:25Z</time>
      </trkpt>
      <trkpt lat="49.03114" lon="6.05562">
        <ele>172.2</ele>
        <time>2021-07-29T08:55:26Z</time>
      </trkpt>
      <trkpt lat="49.03106" lon="6.05561">
        <ele>172.2</ele>
        <time>2021-07-29T08:55:28Z</time>
      </trkpt>
      <trkpt lat="49.03098" lon="6.05558">
        <ele>172.3</ele>
        <time>2021-07-29T08:55:30Z</time>
      </trkpt>
      <trkpt lat="49.03093" lon="6.05557">
        <ele>172.3</ele>
        <time>2021-07-29T08:55:31Z</time>
      </trkpt>
      <trkpt lat="49.03085" lon="6.05554">
        <ele>172.4</ele>
        <time>2021-07-29T08:55:33Z</time>
      </trkpt>
      <trkpt lat="49.03076" lon="6.05551">
        <ele>172.6</ele>
        <time>2021-07-29T08:55:34Z</time>
      </trkpt>
      <trkpt lat="49.03071" lon="6.0555">
        <ele>172.7</ele>
        <time>2021-07-29T08:55:36Z</time>
      </trkpt>
      <trkpt lat="49.03067" lon="6.05549">
        <ele>172.8</ele>
        <time>2021-07-29T08:55:37Z</time>
      </trkpt>
      <trkpt lat="49.03061" lon="6.05549">
        <ele>173</ele>
        <time>2021-07-29T08:55:38Z</time>
      </trkpt>
      <trkpt lat="49.03055" lon="6.05549">
        <ele>173.1</ele>
        <time>2021-07-29T08:55:40Z</time>
      </trkpt>
      <trkpt lat="49.03049" lon="6.05549">
        <ele>173.2</ele>
        <time>2021-07-29T08:55:41Z</time>
      </trkpt>
      <trkpt lat="49.03044" lon="6.05548">
        <ele>173.2</ele>
        <time>2021-07-29T08:55:43Z</time>
      </trkpt>
      <trkpt lat="49.0304" lon="6.05547">
        <ele>173.3</ele>
        <time>2021-07-29T08:55:44Z</time>
      </trkpt>
      <trkpt lat="49.03035" lon="6.05547">
        <ele>173.4</ele>
        <time>2021-07-29T08:55:46Z</time>
      </trkpt>
      <trkpt lat="49.03031" lon="6.05546">
        <ele>173.4</ele>
        <time>2021-07-29T08:55:47Z</time>
      </trkpt>
      <trkpt lat="49.03027" lon="6.05544">
        <ele>173.5</ele>
        <time>2021-07-29T08:55:49Z</time>
      </trkpt>
      <trkpt lat="49.03024" lon="6.05543">
        <ele>173.6</ele>
        <time>2021-07-29T08:55:50Z</time>
      </trkpt>
      <trkpt lat="49.03021" lon="6.0554">
        <ele>173.6</ele>
        <time>2021-07-29T08:55:51Z</time>
      </trkpt>
      <trkpt lat="49.03016" lon="6.05536">
        <ele>173.8</ele>
        <time>2021-07-29T08:55:53Z</time>
      </trkpt>
      <trkpt lat="49.03014" lon="6.05534">
        <ele>173.8</ele>
        <time>2021-07-29T08:55:54Z</time>
      </trkpt>
      <trkpt lat="49.03012" lon="6.05528">
        <ele>174</ele>
        <time>2021-07-29T08:55:55Z</time>
      </trkpt>
      <trkpt lat="49.03009" lon="6.05525">
        <ele>174.1</ele>
        <time>2021-07-29T08:55:57Z</time>
      </trkpt>
      <trkpt lat="49.03005" lon="6.05522">
        <ele>174.3</ele>
        <time>2021-07-29T08:55:59Z</time>
      </trkpt>
      <trkpt lat="49.03002" lon="6.05519">
        <ele>174.3</ele>
        <time>2021-07-29T08:56:00Z</time>
      </trkpt>
      <trkpt lat="49.02999" lon="6.05519">
        <ele>174.3</ele>
        <time>2021-07-29T08:56:01Z</time>
      </trkpt>
      <trkpt lat="49.02997" lon="6.05519">
        <ele>174.3</ele>
        <time>2021-07-29T08:56:03Z</time>
      </trkpt>
      <trkpt lat="49.02995" lon="6.05522">
        <ele>173.6</ele>
        <time>2021-07-29T08:56:04Z</time>
      </trkpt>
      <trkpt lat="49.02995" lon="6.05523">
        <ele>173.6</ele>
        <time>2021-07-29T08:56:05Z</time>
      </trkpt>
      <trkpt lat="49.02993" lon="6.05526">
        <ele>173.6</ele>
        <time>2021-07-29T08:56:07Z</time>
      </trkpt>
      <trkpt lat="49.02992" lon="6.05527">
        <ele>173.6</ele>
        <time>2021-07-29T08:56:08Z</time>
      </trkpt>
      <trkpt lat="49.02991" lon="6.05528">
        <ele>173.6</ele>
        <time>2021-07-29T08:56:10Z</time>
      </trkpt>
      <trkpt lat="49.0299" lon="6.05529">
        <ele>173.6</ele>
        <time>2021-07-29T08:56:11Z</time>
      </trkpt>
      <trkpt lat="49.02989" lon="6.0553">
        <ele>173.5</ele>
        <time>2021-07-29T08:56:13Z</time>
      </trkpt>
      <trkpt lat="49.02986" lon="6.05532">
        <ele>173.5</ele>
        <time>2021-07-29T08:56:14Z</time>
      </trkpt>
      <trkpt lat="49.02985" lon="6.05532">
        <ele>173.5</ele>
        <time>2021-07-29T08:56:15Z</time>
      </trkpt>
      <trkpt lat="49.02982" lon="6.05533">
        <ele>173.5</ele>
        <time>2021-07-29T08:56:17Z</time>
      </trkpt>
      <trkpt lat="49.02978" lon="6.05533">
        <ele>173.4</ele>
        <time>2021-07-29T08:56:18Z</time>
      </trkpt>
      <trkpt lat="49.02973" lon="6.05532">
        <ele>173.4</ele>
        <time>2021-07-29T08:56:20Z</time>
      </trkpt>
      <trkpt lat="49.02968" lon="6.05532">
        <ele>173.3</ele>
        <time>2021-07-29T08:56:21Z</time>
      </trkpt>
      <trkpt lat="49.02963" lon="6.05531">
        <ele>173.3</ele>
        <time>2021-07-29T08:56:22Z</time>
      </trkpt>
      <trkpt lat="49.02958" lon="6.05531">
        <ele>173.3</ele>
        <time>2021-07-29T08:56:24Z</time>
      </trkpt>
      <trkpt lat="49.02953" lon="6.0553">
        <ele>173.2</ele>
        <time>2021-07-29T08:56:25Z</time>
      </trkpt>
      <trkpt lat="49.02949" lon="6.0553">
        <ele>173.2</ele>
        <time>2021-07-29T08:56:26Z</time>
      </trkpt>
      <trkpt lat="49.02943" lon="6.05531">
        <ele>173.2</ele>
        <time>2021-07-29T08:56:27Z</time>
      </trkpt>
      <trkpt lat="49.02939" lon="6.05531">
        <ele>173.2</ele>
        <time>2021-07-29T08:56:28Z</time>
      </trkpt>
      <trkpt lat="49.02933" lon="6.05531">
        <ele>173.2</ele>
        <time>2021-07-29T08:56:30Z</time>
      </trkpt>
      <trkpt lat="49.02927" lon="6.05532">
        <ele>173.2</ele>
        <time>2021-07-29T08:56:31Z</time>
      </trkpt>
      <trkpt lat="49.02921" lon="6.05533">
        <ele>173.2</ele>
        <time>2021-07-29T08:56:33Z</time>
      </trkpt>
      <trkpt lat="49.02917" lon="6.05533">
        <ele>173.3</ele>
        <time>2021-07-29T08:56:34Z</time>
      </trkpt>
      <trkpt lat="49.02912" lon="6.05534">
        <ele>173.3</ele>
        <time>2021-07-29T08:56:35Z</time>
      </trkpt>
      <trkpt lat="49.02908" lon="6.05535">
        <ele>173.3</ele>
        <time>2021-07-29T08:56:36Z</time>
      </trkpt>
      <trkpt lat="49.02902" lon="6.05535">
        <ele>173.3</ele>
        <time>2021-07-29T08:56:38Z</time>
      </trkpt>
      <trkpt lat="49.02897" lon="6.05535">
        <ele>173.4</ele>
        <time>2021-07-29T08:56:39Z</time>
      </trkpt>
      <trkpt lat="49.02894" lon="6.05536">
        <ele>173.4</ele>
        <time>2021-07-29T08:56:40Z</time>
      </trkpt>
      <trkpt lat="49.0289" lon="6.05537">
        <ele>173.4</ele>
        <time>2021-07-29T08:56:41Z</time>
      </trkpt>
      <trkpt lat="49.02885" lon="6.05538">
        <ele>173.4</ele>
        <time>2021-07-29T08:56:43Z</time>
      </trkpt>
      <trkpt lat="49.02881" lon="6.05539">
        <ele>173.4</ele>
        <time>2021-07-29T08:56:44Z</time>
      </trkpt>
      <trkpt lat="49.02877" lon="6.0554">
        <ele>173.5</ele>
        <time>2021-07-29T08:56:45Z</time>
      </trkpt>
      <trkpt lat="49.02873" lon="6.05541">
        <ele>173.5</ele>
        <time>2021-07-29T08:56:47Z</time>
      </trkpt>
      <trkpt lat="49.02869" lon="6.05542">
        <ele>173.5</ele>
        <time>2021-07-29T08:56:48Z</time>
      </trkpt>
      <trkpt lat="49.02866" lon="6.05543">
        <ele>173.5</ele>
        <time>2021-07-29T08:56:49Z</time>
      </trkpt>
      <trkpt lat="49.02862" lon="6.05545">
        <ele>173.5</ele>
        <time>2021-07-29T08:56:50Z</time>
      </trkpt>
      <trkpt lat="49.02856" lon="6.05547">
        <ele>173.5</ele>
        <time>2021-07-29T08:56:52Z</time>
      </trkpt>
      <trkpt lat="49.02853" lon="6.05548">
        <ele>173.6</ele>
        <time>2021-07-29T08:56:53Z</time>
      </trkpt>
      <trkpt lat="49.02845" lon="6.05548">
        <ele>173.7</ele>
        <time>2021-07-29T08:56:55Z</time>
      </trkpt>
      <trkpt lat="49.02838" lon="6.0555">
        <ele>173.8</ele>
        <time>2021-07-29T08:56:56Z</time>
      </trkpt>
      <trkpt lat="49.02833" lon="6.05552">
        <ele>173.8</ele>
        <time>2021-07-29T08:56:58Z</time>
      </trkpt>
      <trkpt lat="49.02827" lon="6.05553">
        <ele>173.9</ele>
        <time>2021-07-29T08:56:59Z</time>
      </trkpt>
      <trkpt lat="49.02822" lon="6.05555">
        <ele>174</ele>
        <time>2021-07-29T08:57:01Z</time>
      </trkpt>
      <trkpt lat="49.02818" lon="6.05555">
        <ele>174</ele>
        <time>2021-07-29T08:57:02Z</time>
      </trkpt>
      <trkpt lat="49.02812" lon="6.05556">
        <ele>174.1</ele>
        <time>2021-07-29T08:57:03Z</time>
      </trkpt>
      <trkpt lat="49.02808" lon="6.05556">
        <ele>174.2</ele>
        <time>2021-07-29T08:57:04Z</time>
      </trkpt>
      <trkpt lat="49.02803" lon="6.05556">
        <ele>174.3</ele>
        <time>2021-07-29T08:57:06Z</time>
      </trkpt>
      <trkpt lat="49.02795" lon="6.05558">
        <ele>174.5</ele>
        <time>2021-07-29T08:57:08Z</time>
      </trkpt>
      <trkpt lat="49.02788" lon="6.05559">
        <ele>174.6</ele>
        <time>2021-07-29T08:57:10Z</time>
      </trkpt>
      <trkpt lat="49.02784" lon="6.05559">
        <ele>174.7</ele>
        <time>2021-07-29T08:57:11Z</time>
      </trkpt>
      <trkpt lat="49.0278" lon="6.05559">
        <ele>174.8</ele>
        <time>2021-07-29T08:57:12Z</time>
      </trkpt>
      <trkpt lat="49.02773" lon="6.05559">
        <ele>175</ele>
        <time>2021-07-29T08:57:14Z</time>
      </trkpt>
      <trkpt lat="49.02769" lon="6.05559">
        <ele>175.1</ele>
        <time>2021-07-29T08:57:15Z</time>
      </trkpt>
      <trkpt lat="49.02766" lon="6.0556">
        <ele>175.2</ele>
        <time>2021-07-29T08:57:16Z</time>
      </trkpt>
      <trkpt lat="49.02763" lon="6.0556">
        <ele>175.2</ele>
        <time>2021-07-29T08:57:17Z</time>
      </trkpt>
      <trkpt lat="49.02759" lon="6.05561">
        <ele>175.3</ele>
        <time>2021-07-29T08:57:19Z</time>
      </trkpt>
      <trkpt lat="49.02754" lon="6.05562">
        <ele>175.5</ele>
        <time>2021-07-29T08:57:21Z</time>
      </trkpt>
      <trkpt lat="49.02748" lon="6.05563">
        <ele>175.6</ele>
        <time>2021-07-29T08:57:23Z</time>
      </trkpt>
      <trkpt lat="49.02745" lon="6.05564">
        <ele>175.7</ele>
        <time>2021-07-29T08:57:24Z</time>
      </trkpt>
      <trkpt lat="49.02742" lon="6.05564">
        <ele>175.8</ele>
        <time>2021-07-29T08:57:25Z</time>
      </trkpt>
      <trkpt lat="49.02737" lon="6.05565">
        <ele>175.9</ele>
        <time>2021-07-29T08:57:26Z</time>
      </trkpt>
      <trkpt lat="49.02734" lon="6.05566">
        <ele>176</ele>
        <time>2021-07-29T08:57:28Z</time>
      </trkpt>
      <trkpt lat="49.02731" lon="6.05567">
        <ele>176.1</ele>
        <time>2021-07-29T08:57:29Z</time>
      </trkpt>
      <trkpt lat="49.02726" lon="6.05567">
        <ele>176.2</ele>
        <time>2021-07-29T08:57:31Z</time>
      </trkpt>
      <trkpt lat="49.02723" lon="6.0557">
        <ele>176.2</ele>
        <time>2021-07-29T08:57:32Z</time>
      </trkpt>
      <trkpt lat="49.02721" lon="6.05574">
        <ele>176.3</ele>
        <time>2021-07-29T08:57:34Z</time>
      </trkpt>
      <trkpt lat="49.02719" lon="6.05571">
        <ele>176.2</ele>
        <time>2021-07-29T08:57:35Z</time>
      </trkpt>
      <trkpt lat="49.02717" lon="6.05567">
        <ele>176.2</ele>
        <time>2021-07-29T08:57:36Z</time>
      </trkpt>
      <trkpt lat="49.02716" lon="6.05568">
        <ele>176.2</ele>
        <time>2021-07-29T08:57:38Z</time>
      </trkpt>
      <trkpt lat="49.02716" lon="6.05566">
        <ele>176.1</ele>
        <time>2021-07-29T08:57:39Z</time>
      </trkpt>
      <trkpt lat="49.02718" lon="6.05566">
        <ele>176.1</ele>
        <time>2021-07-29T08:57:41Z</time>
      </trkpt>
      <trkpt lat="49.02718" lon="6.05568">
        <ele>176.1</ele>
        <time>2021-07-29T08:57:42Z</time>
      </trkpt>
      <trkpt lat="49.02718" lon="6.05569">
        <ele>176.1</ele>
        <time>2021-07-29T08:57:43Z</time>
      </trkpt>
      <trkpt lat="49.02718" lon="6.0557">
        <ele>176.1</ele>
        <time>2021-07-29T08:57:45Z</time>
      </trkpt>
      <trkpt lat="49.02718" lon="6.0557">
        <ele>176</ele>
        <time>2021-07-29T08:57:46Z</time>
      </trkpt>
      <trkpt lat="49.02719" lon="6.05571">
        <ele>176</ele>
        <time>2021-07-29T08:57:48Z</time>
      </trkpt>
      <trkpt lat="49.02719" lon="6.05571">
        <ele>176</ele>
        <time>2021-07-29T08:57:49Z</time>
      </trkpt>
      <trkpt lat="49.02719" lon="6.05572">
        <ele>176</ele>
        <time>2021-07-29T08:57:51Z</time>
      </trkpt>
      <trkpt lat="49.02719" lon="6.05572">
        <ele>176</ele>
        <time>2021-07-29T08:57:53Z</time>
      </trkpt>
      <trkpt lat="49.02737" lon="6.05599">
        <ele>175.5</ele>
        <time>2021-07-29T08:58:36Z</time>
      </trkpt>
      <trkpt lat="49.02749" lon="6.05597">
        <ele>175.2</ele>
        <time>2021-07-29T08:58:38Z</time>
      </trkpt>
      <trkpt lat="49.02763" lon="6.05595">
        <ele>174.9</ele>
        <time>2021-07-29T08:58:40Z</time>
      </trkpt>
      <trkpt lat="49.0277" lon="6.05594">
        <ele>174.8</ele>
        <time>2021-07-29T08:58:41Z</time>
      </trkpt>
      <trkpt lat="49.02777" lon="6.05593">
        <ele>174.6</ele>
        <time>2021-07-29T08:58:42Z</time>
      </trkpt>
      <trkpt lat="49.02788" lon="6.05592">
        <ele>174.4</ele>
        <time>2021-07-29T08:58:43Z</time>
      </trkpt>
      <trkpt lat="49.02798" lon="6.05591">
        <ele>174.3</ele>
        <time>2021-07-29T08:58:45Z</time>
      </trkpt>
      <trkpt lat="49.02809" lon="6.05588">
        <ele>174.1</ele>
        <time>2021-07-29T08:58:47Z</time>
      </trkpt>
      <trkpt lat="49.02814" lon="6.05588">
        <ele>174</ele>
        <time>2021-07-29T08:58:48Z</time>
      </trkpt>
      <trkpt lat="49.02823" lon="6.05587">
        <ele>173.9</ele>
        <time>2021-07-29T08:58:49Z</time>
      </trkpt>
      <trkpt lat="49.02829" lon="6.05585">
        <ele>173.9</ele>
        <time>2021-07-29T08:58:51Z</time>
      </trkpt>
      <trkpt lat="49.02837" lon="6.05583">
        <ele>173.8</ele>
        <time>2021-07-29T08:58:53Z</time>
      </trkpt>
      <trkpt lat="49.02846" lon="6.05581">
        <ele>173.7</ele>
        <time>2021-07-29T08:58:55Z</time>
      </trkpt>
      <trkpt lat="49.02853" lon="6.05578">
        <ele>173.6</ele>
        <time>2021-07-29T08:58:57Z</time>
      </trkpt>
      <trkpt lat="49.02856" lon="6.05576">
        <ele>173.6</ele>
        <time>2021-07-29T08:58:58Z</time>
      </trkpt>
      <trkpt lat="49.0286" lon="6.05575">
        <ele>173.5</ele>
        <time>2021-07-29T08:58:59Z</time>
      </trkpt>
      <trkpt lat="49.02868" lon="6.05575">
        <ele>173.4</ele>
        <time>2021-07-29T08:59:01Z</time>
      </trkpt>
      <trkpt lat="49.02872" lon="6.05575">
        <ele>173.3</ele>
        <time>2021-07-29T08:59:02Z</time>
      </trkpt>
      <trkpt lat="49.02881" lon="6.05575">
        <ele>173.2</ele>
        <time>2021-07-29T08:59:04Z</time>
      </trkpt>
      <trkpt lat="49.02892" lon="6.05573">
        <ele>173.1</ele>
        <time>2021-07-29T08:59:06Z</time>
      </trkpt>
      <trkpt lat="49.02897" lon="6.05572">
        <ele>173</ele>
        <time>2021-07-29T08:59:07Z</time>
      </trkpt>
      <trkpt lat="49.02907" lon="6.0557">
        <ele>173</ele>
        <time>2021-07-29T08:59:09Z</time>
      </trkpt>
      <trkpt lat="49.02911" lon="6.05569">
        <ele>173</ele>
        <time>2021-07-29T08:59:10Z</time>
      </trkpt>
      <trkpt lat="49.02915" lon="6.05569">
        <ele>172.9</ele>
        <time>2021-07-29T08:59:11Z</time>
      </trkpt>
      <trkpt lat="49.02919" lon="6.0557">
        <ele>172.9</ele>
        <time>2021-07-29T08:59:12Z</time>
      </trkpt>
      <trkpt lat="49.02924" lon="6.0557">
        <ele>172.9</ele>
        <time>2021-07-29T08:59:13Z</time>
      </trkpt>
      <trkpt lat="49.02932" lon="6.05568">
        <ele>172.9</ele>
        <time>2021-07-29T08:59:15Z</time>
      </trkpt>
      <trkpt lat="49.02941" lon="6.05566">
        <ele>172.9</ele>
        <time>2021-07-29T08:59:16Z</time>
      </trkpt>
      <trkpt lat="49.0295" lon="6.05564">
        <ele>172.9</ele>
        <time>2021-07-29T08:59:18Z</time>
      </trkpt>
      <trkpt lat="49.02956" lon="6.05563">
        <ele>172.9</ele>
        <time>2021-07-29T08:59:19Z</time>
      </trkpt>
      <trkpt lat="49.02961" lon="6.05563">
        <ele>173</ele>
        <time>2021-07-29T08:59:20Z</time>
      </trkpt>
      <trkpt lat="49.02972" lon="6.05562">
        <ele>173.2</ele>
        <time>2021-07-29T08:59:22Z</time>
      </trkpt>
      <trkpt lat="49.02977" lon="6.05563">
        <ele>173.2</ele>
        <time>2021-07-29T08:59:23Z</time>
      </trkpt>
      <trkpt lat="49.02982" lon="6.05563">
        <ele>173.3</ele>
        <time>2021-07-29T08:59:24Z</time>
      </trkpt>
      <trkpt lat="49.02991" lon="6.05564">
        <ele>173.5</ele>
        <time>2021-07-29T08:59:26Z</time>
      </trkpt>
      <trkpt lat="49.02999" lon="6.05565">
        <ele>173.6</ele>
        <time>2021-07-29T08:59:28Z</time>
      </trkpt>
      <trkpt lat="49.03003" lon="6.05565">
        <ele>173.7</ele>
        <time>2021-07-29T08:59:29Z</time>
      </trkpt>
      <trkpt lat="49.03006" lon="6.05561">
        <ele>173.7</ele>
        <time>2021-07-29T08:59:30Z</time>
      </trkpt>
      <trkpt lat="49.03007" lon="6.0556">
        <ele>173.7</ele>
        <time>2021-07-29T08:59:31Z</time>
      </trkpt>
      <trkpt lat="49.03009" lon="6.05547">
        <ele>173.9</ele>
        <time>2021-07-29T08:59:33Z</time>
      </trkpt>
      <trkpt lat="49.03009" lon="6.05542">
        <ele>174</ele>
        <time>2021-07-29T08:59:34Z</time>
      </trkpt>
      <trkpt lat="49.03009" lon="6.05534">
        <ele>174.2</ele>
        <time>2021-07-29T08:59:35Z</time>
      </trkpt>
      <trkpt lat="49.03009" lon="6.05526">
        <ele>174.4</ele>
        <time>2021-07-29T08:59:37Z</time>
      </trkpt>
      <trkpt lat="49.03008" lon="6.05518">
        <ele>174.4</ele>
        <time>2021-07-29T08:59:38Z</time>
      </trkpt>
      <trkpt lat="49.03006" lon="6.05509">
        <ele>174.6</ele>
        <time>2021-07-29T08:59:39Z</time>
      </trkpt>
      <trkpt lat="49.03004" lon="6.05499">
        <ele>174.7</ele>
        <time>2021-07-29T08:59:41Z</time>
      </trkpt>
      <trkpt lat="49.03003" lon="6.05487">
        <ele>174.9</ele>
        <time>2021-07-29T08:59:43Z</time>
      </trkpt>
      <trkpt lat="49.03002" lon="6.05476">
        <ele>175.1</ele>
        <time>2021-07-29T08:59:44Z</time>
      </trkpt>
      <trkpt lat="49.03002" lon="6.05464">
        <ele>175.4</ele>
        <time>2021-07-29T08:59:46Z</time>
      </trkpt>
      <trkpt lat="49.03001" lon="6.05452">
        <ele>175.7</ele>
        <time>2021-07-29T08:59:48Z</time>
      </trkpt>
      <trkpt lat="49.02999" lon="6.05441">
        <ele>176.1</ele>
        <time>2021-07-29T08:59:50Z</time>
      </trkpt>
      <trkpt lat="49.02998" lon="6.05436">
        <ele>176.2</ele>
        <time>2021-07-29T08:59:52Z</time>
      </trkpt>
      <trkpt lat="49.02996" lon="6.05426">
        <ele>176.5</ele>
        <time>2021-07-29T08:59:54Z</time>
      </trkpt>
      <trkpt lat="49.02996" lon="6.05416">
        <ele>176.8</ele>
        <time>2021-07-29T08:59:56Z</time>
      </trkpt>
      <trkpt lat="49.02995" lon="6.05408">
        <ele>177.1</ele>
        <time>2021-07-29T08:59:58Z</time>
      </trkpt>
      <trkpt lat="49.02994" lon="6.05403">
        <ele>177.2</ele>
        <time>2021-07-29T08:59:59Z</time>
      </trkpt>
      <trkpt lat="49.02994" lon="6.05394">
        <ele>177.4</ele>
        <time>2021-07-29T09:00:01Z</time>
      </trkpt>
      <trkpt lat="49.02993" lon="6.05385">
        <ele>177.6</ele>
        <time>2021-07-29T09:00:02Z</time>
      </trkpt>
      <trkpt lat="49.02993" lon="6.05378">
        <ele>177.8</ele>
        <time>2021-07-29T09:00:04Z</time>
      </trkpt>
      <trkpt lat="49.02993" lon="6.05371">
        <ele>177.9</ele>
        <time>2021-07-29T09:00:06Z</time>
      </trkpt>
      <trkpt lat="49.02993" lon="6.05369">
        <ele>178</ele>
        <time>2021-07-29T09:00:07Z</time>
      </trkpt>
      <trkpt lat="49.02993" lon="6.05367">
        <ele>178</ele>
        <time>2021-07-29T09:00:08Z</time>
      </trkpt>
      <trkpt lat="49.02994" lon="6.0536">
        <ele>178.1</ele>
        <time>2021-07-29T09:00:09Z</time>
      </trkpt>
      <trkpt lat="49.02994" lon="6.05357">
        <ele>178.2</ele>
        <time>2021-07-29T09:00:10Z</time>
      </trkpt>
      <trkpt lat="49.02994" lon="6.05351">
        <ele>178.3</ele>
        <time>2021-07-29T09:00:12Z</time>
      </trkpt>
      <trkpt lat="49.02993" lon="6.05343">
        <ele>178.4</ele>
        <time>2021-07-29T09:00:13Z</time>
      </trkpt>
      <trkpt lat="49.02993" lon="6.05338">
        <ele>178.5</ele>
        <time>2021-07-29T09:00:15Z</time>
      </trkpt>
      <trkpt lat="49.02992" lon="6.05333">
        <ele>178.5</ele>
        <time>2021-07-29T09:00:16Z</time>
      </trkpt>
      <trkpt lat="49.02991" lon="6.05326">
        <ele>178.6</ele>
        <time>2021-07-29T09:00:18Z</time>
      </trkpt>
      <trkpt lat="49.02991" lon="6.05318">
        <ele>178.8</ele>
        <time>2021-07-29T09:00:20Z</time>
      </trkpt>
      <trkpt lat="49.0299" lon="6.0531">
        <ele>178.8</ele>
        <time>2021-07-29T09:00:21Z</time>
      </trkpt>
      <trkpt lat="49.0299" lon="6.05304">
        <ele>178.9</ele>
        <time>2021-07-29T09:00:23Z</time>
      </trkpt>
      <trkpt lat="49.0299" lon="6.05299">
        <ele>178.9</ele>
        <time>2021-07-29T09:00:24Z</time>
      </trkpt>
      <trkpt lat="49.02989" lon="6.05293">
        <ele>179</ele>
        <time>2021-07-29T09:00:25Z</time>
      </trkpt>
      <trkpt lat="49.02989" lon="6.05285">
        <ele>179.1</ele>
        <time>2021-07-29T09:00:27Z</time>
      </trkpt>
      <trkpt lat="49.02989" lon="6.05275">
        <ele>179.1</ele>
        <time>2021-07-29T09:00:29Z</time>
      </trkpt>
      <trkpt lat="49.02989" lon="6.0527">
        <ele>179.1</ele>
        <time>2021-07-29T09:00:30Z</time>
      </trkpt>
      <trkpt lat="49.02989" lon="6.05262">
        <ele>179.1</ele>
        <time>2021-07-29T09:00:32Z</time>
      </trkpt>
      <trkpt lat="49.02988" lon="6.05253">
        <ele>179.2</ele>
        <time>2021-07-29T09:00:33Z</time>
      </trkpt>
      <trkpt lat="49.02988" lon="6.05247">
        <ele>179.2</ele>
        <time>2021-07-29T09:00:35Z</time>
      </trkpt>
      <trkpt lat="49.02988" lon="6.05241">
        <ele>179.2</ele>
        <time>2021-07-29T09:00:36Z</time>
      </trkpt>
      <trkpt lat="49.02988" lon="6.05233">
        <ele>179.2</ele>
        <time>2021-07-29T09:00:38Z</time>
      </trkpt>
      <trkpt lat="49.02988" lon="6.05225">
        <ele>179.1</ele>
        <time>2021-07-29T09:00:39Z</time>
      </trkpt>
      <trkpt lat="49.02987" lon="6.05218">
        <ele>179.1</ele>
        <time>2021-07-29T09:00:41Z</time>
      </trkpt>
      <trkpt lat="49.02987" lon="6.05213">
        <ele>179.1</ele>
        <time>2021-07-29T09:00:42Z</time>
      </trkpt>
      <trkpt lat="49.02986" lon="6.05203">
        <ele>179</ele>
        <time>2021-07-29T09:00:44Z</time>
      </trkpt>
      <trkpt lat="49.02985" lon="6.05198">
        <ele>178.9</ele>
        <time>2021-07-29T09:00:45Z</time>
      </trkpt>
      <trkpt lat="49.02983" lon="6.05188">
        <ele>178.8</ele>
        <time>2021-07-29T09:00:47Z</time>
      </trkpt>
      <trkpt lat="49.02982" lon="6.05181">
        <ele>178.7</ele>
        <time>2021-07-29T09:00:48Z</time>
      </trkpt>
      <trkpt lat="49.02981" lon="6.05173">
        <ele>178.5</ele>
        <time>2021-07-29T09:00:50Z</time>
      </trkpt>
      <trkpt lat="49.0298" lon="6.05167">
        <ele>178.4</ele>
        <time>2021-07-29T09:00:51Z</time>
      </trkpt>
      <trkpt lat="49.02977" lon="6.0516">
        <ele>178.2</ele>
        <time>2021-07-29T09:00:52Z</time>
      </trkpt>
      <trkpt lat="49.02973" lon="6.05154">
        <ele>178</ele>
        <time>2021-07-29T09:00:54Z</time>
      </trkpt>
      <trkpt lat="49.02967" lon="6.05151">
        <ele>177.8</ele>
        <time>2021-07-29T09:00:56Z</time>
      </trkpt>
      <trkpt lat="49.02963" lon="6.0515">
        <ele>177.6</ele>
        <time>2021-07-29T09:00:57Z</time>
      </trkpt>
      <trkpt lat="49.02959" lon="6.05151">
        <ele>177.3</ele>
        <time>2021-07-29T09:00:58Z</time>
      </trkpt>
      <trkpt lat="49.02948" lon="6.05154">
        <ele>176.8</ele>
        <time>2021-07-29T09:01:00Z</time>
      </trkpt>
      <trkpt lat="49.02937" lon="6.05156">
        <ele>176.3</ele>
        <time>2021-07-29T09:01:01Z</time>
      </trkpt>
      <trkpt lat="49.0293" lon="6.05157">
        <ele>175.9</ele>
        <time>2021-07-29T09:01:02Z</time>
      </trkpt>
      <trkpt lat="49.02923" lon="6.05159">
        <ele>175.6</ele>
        <time>2021-07-29T09:01:03Z</time>
      </trkpt>
      <trkpt lat="49.02908" lon="6.0516">
        <ele>175</ele>
        <time>2021-07-29T09:01:05Z</time>
      </trkpt>
      <trkpt lat="49.02901" lon="6.05161">
        <ele>174.6</ele>
        <time>2021-07-29T09:01:06Z</time>
      </trkpt>
      <trkpt lat="49.02887" lon="6.05162">
        <ele>174.1</ele>
        <time>2021-07-29T09:01:08Z</time>
      </trkpt>
      <trkpt lat="49.0288" lon="6.05162">
        <ele>173.9</ele>
        <time>2021-07-29T09:01:09Z</time>
      </trkpt>
      <trkpt lat="49.02867" lon="6.05161">
        <ele>173.6</ele>
        <time>2021-07-29T09:01:11Z</time>
      </trkpt>
      <trkpt lat="49.0286" lon="6.05161">
        <ele>173.5</ele>
        <time>2021-07-29T09:01:12Z</time>
      </trkpt>
      <trkpt lat="49.02849" lon="6.05159">
        <ele>173.3</ele>
        <time>2021-07-29T09:01:14Z</time>
      </trkpt>
      <trkpt lat="49.02839" lon="6.05159">
        <ele>172.7</ele>
        <time>2021-07-29T09:01:16Z</time>
      </trkpt>
      <trkpt lat="49.02835" lon="6.05161">
        <ele>172.5</ele>
        <time>2021-07-29T09:01:17Z</time>
      </trkpt>
      <trkpt lat="49.02833" lon="6.05165">
        <ele>172.5</ele>
        <time>2021-07-29T09:01:18Z</time>
      </trkpt>
      <trkpt lat="49.02833" lon="6.05167">
        <ele>172.5</ele>
        <time>2021-07-29T09:01:19Z</time>
      </trkpt>
      <trkpt lat="49.02835" lon="6.05169">
        <ele>172.5</ele>
        <time>2021-07-29T09:01:20Z</time>
      </trkpt>
      <trkpt lat="49.02839" lon="6.05168">
        <ele>172.4</ele>
        <time>2021-07-29T09:01:22Z</time>
      </trkpt>
      <trkpt lat="49.02844" lon="6.05168">
        <ele>172.4</ele>
        <time>2021-07-29T09:01:23Z</time>
      </trkpt>
      <trkpt lat="49.02847" lon="6.05173">
        <ele>172.3</ele>
        <time>2021-07-29T09:01:24Z</time>
      </trkpt>
      <trkpt lat="49.02849" lon="6.05174">
        <ele>172.3</ele>
        <time>2021-07-29T09:01:25Z</time>
      </trkpt>
      <trkpt lat="49.02856" lon="6.05174">
        <ele>172.3</ele>
        <time>2021-07-29T09:01:27Z</time>
      </trkpt>
      <trkpt lat="49.02862" lon="6.05173">
        <ele>172.3</ele>
        <time>2021-07-29T09:01:28Z</time>
      </trkpt>
      <trkpt lat="49.02869" lon="6.05174">
        <ele>172.2</ele>
        <time>2021-07-29T09:01:30Z</time>
      </trkpt>
      <trkpt lat="49.02875" lon="6.05174">
        <ele>172.2</ele>
        <time>2021-07-29T09:01:31Z</time>
      </trkpt>
      <trkpt lat="49.02879" lon="6.05178">
        <ele>172.2</ele>
        <time>2021-07-29T09:01:32Z</time>
      </trkpt>
      <trkpt lat="49.02884" lon="6.05183">
        <ele>172.1</ele>
        <time>2021-07-29T09:01:34Z</time>
      </trkpt>
      <trkpt lat="49.02892" lon="6.05197">
        <ele>171.7</ele>
        <time>2021-07-29T09:01:36Z</time>
      </trkpt>
      <trkpt lat="49.02895" lon="6.05205">
        <ele>171.5</ele>
        <time>2021-07-29T09:01:37Z</time>
      </trkpt>
      <trkpt lat="49.029" lon="6.0522">
        <ele>171.3</ele>
        <time>2021-07-29T09:01:39Z</time>
      </trkpt>
      <trkpt lat="49.02903" lon="6.05239">
        <ele>171.1</ele>
        <time>2021-07-29T09:01:41Z</time>
      </trkpt>
      <trkpt lat="49.02906" lon="6.05292">
        <ele>170.7</ele>
        <time>2021-07-29T09:01:48Z</time>
      </trkpt>
      <trkpt lat="49.02898" lon="6.05296">
        <ele>170.5</ele>
        <time>2021-07-29T09:01:50Z</time>
      </trkpt>
      <trkpt lat="49.02888" lon="6.05298">
        <ele>170.3</ele>
        <time>2021-07-29T09:01:51Z</time>
      </trkpt>
      <trkpt lat="49.02876" lon="6.05299">
        <ele>170.1</ele>
        <time>2021-07-29T09:01:52Z</time>
      </trkpt>
      <trkpt lat="49.02869" lon="6.05301">
        <ele>170</ele>
        <time>2021-07-29T09:01:54Z</time>
      </trkpt>
      <trkpt lat="49.02865" lon="6.05304">
        <ele>170</ele>
        <time>2021-07-29T09:01:55Z</time>
      </trkpt>
      <trkpt lat="49.02858" lon="6.05305">
        <ele>170</ele>
        <time>2021-07-29T09:01:57Z</time>
      </trkpt>
      <trkpt lat="49.02848" lon="6.05306">
        <ele>170.1</ele>
        <time>2021-07-29T09:01:59Z</time>
      </trkpt>
      <trkpt lat="49.02837" lon="6.05309">
        <ele>170.2</ele>
        <time>2021-07-29T09:02:00Z</time>
      </trkpt>
      <trkpt lat="49.02829" lon="6.05314">
        <ele>170.2</ele>
        <time>2021-07-29T09:02:02Z</time>
      </trkpt>
      <trkpt lat="49.02821" lon="6.05315">
        <ele>170.3</ele>
        <time>2021-07-29T09:02:03Z</time>
      </trkpt>
      <trkpt lat="49.02811" lon="6.05314">
        <ele>170.5</ele>
        <time>2021-07-29T09:02:05Z</time>
      </trkpt>
      <trkpt lat="49.02805" lon="6.05312">
        <ele>170.6</ele>
        <time>2021-07-29T09:02:06Z</time>
      </trkpt>
      <trkpt lat="49.02795" lon="6.0531">
        <ele>170.9</ele>
        <time>2021-07-29T09:02:08Z</time>
      </trkpt>
      <trkpt lat="49.02789" lon="6.05308">
        <ele>171.1</ele>
        <time>2021-07-29T09:02:09Z</time>
      </trkpt>
      <trkpt lat="49.02783" lon="6.05305">
        <ele>171.3</ele>
        <time>2021-07-29T09:02:10Z</time>
      </trkpt>
      <trkpt lat="49.02777" lon="6.05301">
        <ele>171.5</ele>
        <time>2021-07-29T09:02:12Z</time>
      </trkpt>
      <trkpt lat="49.02773" lon="6.05299">
        <ele>171.7</ele>
        <time>2021-07-29T09:02:13Z</time>
      </trkpt>
      <trkpt lat="49.02765" lon="6.05294">
        <ele>172</ele>
        <time>2021-07-29T09:02:15Z</time>
      </trkpt>
      <trkpt lat="49.0276" lon="6.05293">
        <ele>172.2</ele>
        <time>2021-07-29T09:02:16Z</time>
      </trkpt>
      <trkpt lat="49.02756" lon="6.05292">
        <ele>172.3</ele>
        <time>2021-07-29T09:02:17Z</time>
      </trkpt>
      <trkpt lat="49.0275" lon="6.0529">
        <ele>172.5</ele>
        <time>2021-07-29T09:02:19Z</time>
      </trkpt>
      <trkpt lat="49.02747" lon="6.0529">
        <ele>172.5</ele>
        <time>2021-07-29T09:02:20Z</time>
      </trkpt>
      <trkpt lat="49.02744" lon="6.05292">
        <ele>172.6</ele>
        <time>2021-07-29T09:02:21Z</time>
      </trkpt>
      <trkpt lat="49.02743" lon="6.05293">
        <ele>172.6</ele>
        <time>2021-07-29T09:02:22Z</time>
      </trkpt>
      <trkpt lat="49.02742" lon="6.05295">
        <ele>172.6</ele>
        <time>2021-07-29T09:02:23Z</time>
      </trkpt>
      <trkpt lat="49.02738" lon="6.05297">
        <ele>172.6</ele>
        <time>2021-07-29T09:02:25Z</time>
      </trkpt>
      <trkpt lat="49.02734" lon="6.05298">
        <ele>172.7</ele>
        <time>2021-07-29T09:02:26Z</time>
      </trkpt>
      <trkpt lat="49.02732" lon="6.05299">
        <ele>172.7</ele>
        <time>2021-07-29T09:02:27Z</time>
      </trkpt>
      <trkpt lat="49.02723" lon="6.05299">
        <ele>172.6</ele>
        <time>2021-07-29T09:02:29Z</time>
      </trkpt>
      <trkpt lat="49.02719" lon="6.05299">
        <ele>172.6</ele>
        <time>2021-07-29T09:02:30Z</time>
      </trkpt>
      <trkpt lat="49.02715" lon="6.05299">
        <ele>172.5</ele>
        <time>2021-07-29T09:02:31Z</time>
      </trkpt>
      <trkpt lat="49.02712" lon="6.05299">
        <ele>172.5</ele>
        <time>2021-07-29T09:02:33Z</time>
      </trkpt>
      <trkpt lat="49.02707" lon="6.05298">
        <ele>172.5</ele>
        <time>2021-07-29T09:02:34Z</time>
      </trkpt>
      <trkpt lat="49.02697" lon="6.05295">
        <ele>172.4</ele>
        <time>2021-07-29T09:02:36Z</time>
      </trkpt>
      <trkpt lat="49.02691" lon="6.05294">
        <ele>172.4</ele>
        <time>2021-07-29T09:02:37Z</time>
      </trkpt>
      <trkpt lat="49.02685" lon="6.05292">
        <ele>172.4</ele>
        <time>2021-07-29T09:02:38Z</time>
      </trkpt>
      <trkpt lat="49.02679" lon="6.0529">
        <ele>172.4</ele>
        <time>2021-07-29T09:02:39Z</time>
      </trkpt>
      <trkpt lat="49.02674" lon="6.05287">
        <ele>172.4</ele>
        <time>2021-07-29T09:02:41Z</time>
      </trkpt>
      <trkpt lat="49.0267" lon="6.05285">
        <ele>172.4</ele>
        <time>2021-07-29T09:02:42Z</time>
      </trkpt>
      <trkpt lat="49.02663" lon="6.05282">
        <ele>172.4</ele>
        <time>2021-07-29T09:02:43Z</time>
      </trkpt>
      <trkpt lat="49.02658" lon="6.0528">
        <ele>172.4</ele>
        <time>2021-07-29T09:02:44Z</time>
      </trkpt>
      <trkpt lat="49.02653" lon="6.05278">
        <ele>172.4</ele>
        <time>2021-07-29T09:02:46Z</time>
      </trkpt>
      <trkpt lat="49.02646" lon="6.05277">
        <ele>172.4</ele>
        <time>2021-07-29T09:02:47Z</time>
      </trkpt>
      <trkpt lat="49.02641" lon="6.05277">
        <ele>172.4</ele>
        <time>2021-07-29T09:02:48Z</time>
      </trkpt>
      <trkpt lat="49.02636" lon="6.05276">
        <ele>172.4</ele>
        <time>2021-07-29T09:02:49Z</time>
      </trkpt>
      <trkpt lat="49.02631" lon="6.05275">
        <ele>172.4</ele>
        <time>2021-07-29T09:02:50Z</time>
      </trkpt>
      <trkpt lat="49.02626" lon="6.05274">
        <ele>172.4</ele>
        <time>2021-07-29T09:02:52Z</time>
      </trkpt>
      <trkpt lat="49.02621" lon="6.05273">
        <ele>172.4</ele>
        <time>2021-07-29T09:02:53Z</time>
      </trkpt>
      <trkpt lat="49.02616" lon="6.05273">
        <ele>172.4</ele>
        <time>2021-07-29T09:02:54Z</time>
      </trkpt>
      <trkpt lat="49.02612" lon="6.05272">
        <ele>172.4</ele>
        <time>2021-07-29T09:02:55Z</time>
      </trkpt>
      <trkpt lat="49.02608" lon="6.0527">
        <ele>172.3</ele>
        <time>2021-07-29T09:02:56Z</time>
      </trkpt>
      <trkpt lat="49.02596" lon="6.05264">
        <ele>172.3</ele>
        <time>2021-07-29T09:02:58Z</time>
      </trkpt>
      <trkpt lat="49.02591" lon="6.05261">
        <ele>172.2</ele>
        <time>2021-07-29T09:02:59Z</time>
      </trkpt>
      <trkpt lat="49.02581" lon="6.05256">
        <ele>172.1</ele>
        <time>2021-07-29T09:03:01Z</time>
      </trkpt>
      <trkpt lat="49.02576" lon="6.05254">
        <ele>172.1</ele>
        <time>2021-07-29T09:03:02Z</time>
      </trkpt>
      <trkpt lat="49.02566" lon="6.05247">
        <ele>172</ele>
        <time>2021-07-29T09:03:04Z</time>
      </trkpt>
      <trkpt lat="49.02561" lon="6.05243">
        <ele>171.9</ele>
        <time>2021-07-29T09:03:05Z</time>
      </trkpt>
      <trkpt lat="49.02552" lon="6.05237">
        <ele>171.8</ele>
        <time>2021-07-29T09:03:07Z</time>
      </trkpt>
      <trkpt lat="49.02547" lon="6.05235">
        <ele>171.8</ele>
        <time>2021-07-29T09:03:08Z</time>
      </trkpt>
      <trkpt lat="49.0254" lon="6.05232">
        <ele>171.7</ele>
        <time>2021-07-29T09:03:10Z</time>
      </trkpt>
      <trkpt lat="49.02536" lon="6.05231">
        <ele>171.6</ele>
        <time>2021-07-29T09:03:11Z</time>
      </trkpt>
      <trkpt lat="49.02527" lon="6.05229">
        <ele>171.5</ele>
        <time>2021-07-29T09:03:13Z</time>
      </trkpt>
      <trkpt lat="49.0252" lon="6.05228">
        <ele>171.5</ele>
        <time>2021-07-29T09:03:14Z</time>
      </trkpt>
      <trkpt lat="49.02514" lon="6.05227">
        <ele>171.5</ele>
        <time>2021-07-29T09:03:15Z</time>
      </trkpt>
      <trkpt lat="49.02504" lon="6.05226">
        <ele>171.5</ele>
        <time>2021-07-29T09:03:17Z</time>
      </trkpt>
      <trkpt lat="49.02496" lon="6.05223">
        <ele>171.5</ele>
        <time>2021-07-29T09:03:19Z</time>
      </trkpt>
      <trkpt lat="49.02492" lon="6.05223">
        <ele>171.5</ele>
        <time>2021-07-29T09:03:20Z</time>
      </trkpt>
      <trkpt lat="49.0248" lon="6.05221">
        <ele>171.5</ele>
        <time>2021-07-29T09:03:22Z</time>
      </trkpt>
      <trkpt lat="49.02471" lon="6.05222">
        <ele>171.5</ele>
        <time>2021-07-29T09:03:24Z</time>
      </trkpt>
      <trkpt lat="49.02466" lon="6.05221">
        <ele>171.5</ele>
        <time>2021-07-29T09:03:26Z</time>
      </trkpt>
      <trkpt lat="49.02462" lon="6.05226">
        <ele>171.5</ele>
        <time>2021-07-29T09:03:27Z</time>
      </trkpt>
      <trkpt lat="49.02454" lon="6.05229">
        <ele>171.6</ele>
        <time>2021-07-29T09:03:29Z</time>
      </trkpt>
      <trkpt lat="49.02446" lon="6.0523">
        <ele>171.6</ele>
        <time>2021-07-29T09:03:31Z</time>
      </trkpt>
      <trkpt lat="49.02442" lon="6.05231">
        <ele>171.6</ele>
        <time>2021-07-29T09:03:32Z</time>
      </trkpt>
      <trkpt lat="49.02437" lon="6.05232">
        <ele>171.7</ele>
        <time>2021-07-29T09:03:33Z</time>
      </trkpt>
      <trkpt lat="49.02433" lon="6.05231">
        <ele>171.7</ele>
        <time>2021-07-29T09:03:34Z</time>
      </trkpt>
      <trkpt lat="49.02426" lon="6.05228">
        <ele>171.7</ele>
        <time>2021-07-29T09:03:36Z</time>
      </trkpt>
      <trkpt lat="49.02415" lon="6.05222">
        <ele>171.8</ele>
        <time>2021-07-29T09:03:38Z</time>
      </trkpt>
      <trkpt lat="49.0241" lon="6.05221">
        <ele>171.8</ele>
        <time>2021-07-29T09:03:39Z</time>
      </trkpt>
      <trkpt lat="49.02406" lon="6.05218">
        <ele>171.8</ele>
        <time>2021-07-29T09:03:40Z</time>
      </trkpt>
      <trkpt lat="49.02402" lon="6.05215">
        <ele>171.7</ele>
        <time>2021-07-29T09:03:41Z</time>
      </trkpt>
      <trkpt lat="49.02394" lon="6.05205">
        <ele>171.7</ele>
        <time>2021-07-29T09:03:43Z</time>
      </trkpt>
      <trkpt lat="49.02388" lon="6.05201">
        <ele>171.6</ele>
        <time>2021-07-29T09:03:44Z</time>
      </trkpt>
      <trkpt lat="49.02379" lon="6.05195">
        <ele>171.6</ele>
        <time>2021-07-29T09:03:46Z</time>
      </trkpt>
      <trkpt lat="49.02374" lon="6.05191">
        <ele>171.6</ele>
        <time>2021-07-29T09:03:47Z</time>
      </trkpt>
      <trkpt lat="49.02365" lon="6.05185">
        <ele>171.6</ele>
        <time>2021-07-29T09:03:49Z</time>
      </trkpt>
      <trkpt lat="49.02361" lon="6.05186">
        <ele>171.6</ele>
        <time>2021-07-29T09:03:50Z</time>
      </trkpt>
      <trkpt lat="49.02357" lon="6.05187">
        <ele>171.7</ele>
        <time>2021-07-29T09:03:51Z</time>
      </trkpt>
      <trkpt lat="49.02352" lon="6.05184">
        <ele>171.7</ele>
        <time>2021-07-29T09:03:52Z</time>
      </trkpt>
      <trkpt lat="49.02346" lon="6.05178">
        <ele>171.7</ele>
        <time>2021-07-29T09:03:54Z</time>
      </trkpt>
      <trkpt lat="49.02342" lon="6.05174">
        <ele>171.8</ele>
        <time>2021-07-29T09:03:55Z</time>
      </trkpt>
      <trkpt lat="49.02339" lon="6.0517">
        <ele>171.8</ele>
        <time>2021-07-29T09:03:56Z</time>
      </trkpt>
      <trkpt lat="49.02335" lon="6.05166">
        <ele>171.8</ele>
        <time>2021-07-29T09:03:57Z</time>
      </trkpt>
      <trkpt lat="49.02332" lon="6.05162">
        <ele>171.8</ele>
        <time>2021-07-29T09:03:58Z</time>
      </trkpt>
      <trkpt lat="49.02329" lon="6.05158">
        <ele>171.9</ele>
        <time>2021-07-29T09:03:59Z</time>
      </trkpt>
      <trkpt lat="49.02325" lon="6.05155">
        <ele>171.9</ele>
        <time>2021-07-29T09:04:00Z</time>
      </trkpt>
      <trkpt lat="49.02322" lon="6.05151">
        <ele>171.9</ele>
        <time>2021-07-29T09:04:01Z</time>
      </trkpt>
      <trkpt lat="49.02315" lon="6.05144">
        <ele>172</ele>
        <time>2021-07-29T09:04:03Z</time>
      </trkpt>
      <trkpt lat="49.02309" lon="6.05137">
        <ele>172.1</ele>
        <time>2021-07-29T09:04:04Z</time>
      </trkpt>
      <trkpt lat="49.02305" lon="6.05133">
        <ele>172.2</ele>
        <time>2021-07-29T09:04:05Z</time>
      </trkpt>
      <trkpt lat="49.02301" lon="6.05131">
        <ele>172.2</ele>
        <time>2021-07-29T09:04:06Z</time>
      </trkpt>
      <trkpt lat="49.02297" lon="6.05128">
        <ele>172.3</ele>
        <time>2021-07-29T09:04:07Z</time>
      </trkpt>
      <trkpt lat="49.02293" lon="6.05126">
        <ele>172.3</ele>
        <time>2021-07-29T09:04:08Z</time>
      </trkpt>
      <trkpt lat="49.02289" lon="6.05124">
        <ele>172.4</ele>
        <time>2021-07-29T09:04:09Z</time>
      </trkpt>
      <trkpt lat="49.02286" lon="6.05122">
        <ele>172.4</ele>
        <time>2021-07-29T09:04:10Z</time>
      </trkpt>
      <trkpt lat="49.02282" lon="6.0512">
        <ele>172.4</ele>
        <time>2021-07-29T09:04:11Z</time>
      </trkpt>
      <trkpt lat="49.02279" lon="6.05117">
        <ele>172.5</ele>
        <time>2021-07-29T09:04:12Z</time>
      </trkpt>
      <trkpt lat="49.02276" lon="6.05113">
        <ele>172.5</ele>
        <time>2021-07-29T09:04:13Z</time>
      </trkpt>
      <trkpt lat="49.02273" lon="6.05109">
        <ele>172.5</ele>
        <time>2021-07-29T09:04:15Z</time>
      </trkpt>
      <trkpt lat="49.02267" lon="6.05103">
        <ele>172.6</ele>
        <time>2021-07-29T09:04:16Z</time>
      </trkpt>
      <trkpt lat="49.02264" lon="6.051">
        <ele>172.6</ele>
        <time>2021-07-29T09:04:17Z</time>
      </trkpt>
      <trkpt lat="49.02261" lon="6.05096">
        <ele>172.7</ele>
        <time>2021-07-29T09:04:19Z</time>
      </trkpt>
      <trkpt lat="49.02256" lon="6.05092">
        <ele>172.7</ele>
        <time>2021-07-29T09:04:20Z</time>
      </trkpt>
      <trkpt lat="49.02252" lon="6.05089">
        <ele>172.8</ele>
        <time>2021-07-29T09:04:21Z</time>
      </trkpt>
      <trkpt lat="49.02247" lon="6.05085">
        <ele>172.8</ele>
        <time>2021-07-29T09:04:22Z</time>
      </trkpt>
      <trkpt lat="49.02243" lon="6.05081">
        <ele>172.8</ele>
        <time>2021-07-29T09:04:23Z</time>
      </trkpt>
      <trkpt lat="49.0224" lon="6.05076">
        <ele>172.9</ele>
        <time>2021-07-29T09:04:24Z</time>
      </trkpt>
      <trkpt lat="49.02237" lon="6.05071">
        <ele>172.9</ele>
        <time>2021-07-29T09:04:25Z</time>
      </trkpt>
      <trkpt lat="49.02232" lon="6.05061">
        <ele>172.9</ele>
        <time>2021-07-29T09:04:27Z</time>
      </trkpt>
      <trkpt lat="49.02224" lon="6.05047">
        <ele>173</ele>
        <time>2021-07-29T09:04:29Z</time>
      </trkpt>
      <trkpt lat="49.0222" lon="6.05045">
        <ele>173.1</ele>
        <time>2021-07-29T09:04:30Z</time>
      </trkpt>
      <trkpt lat="49.0222" lon="6.05046">
        <ele>173.1</ele>
        <time>2021-07-29T09:04:32Z</time>
      </trkpt>
      <trkpt lat="49.02217" lon="6.05043">
        <ele>173.2</ele>
        <time>2021-07-29T09:04:33Z</time>
      </trkpt>
      <trkpt lat="49.02214" lon="6.05039">
        <ele>173.3</ele>
        <time>2021-07-29T09:04:34Z</time>
      </trkpt>
      <trkpt lat="49.02211" lon="6.05036">
        <ele>173.4</ele>
        <time>2021-07-29T09:04:35Z</time>
      </trkpt>
      <trkpt lat="49.02207" lon="6.05033">
        <ele>173.5</ele>
        <time>2021-07-29T09:04:36Z</time>
      </trkpt>
      <trkpt lat="49.02205" lon="6.05031">
        <ele>173.5</ele>
        <time>2021-07-29T09:04:37Z</time>
      </trkpt>
      <trkpt lat="49.02201" lon="6.05028">
        <ele>173.6</ele>
        <time>2021-07-29T09:04:38Z</time>
      </trkpt>
      <trkpt lat="49.02201" lon="6.05027">
        <ele>173.7</ele>
        <time>2021-07-29T09:04:39Z</time>
      </trkpt>
      <trkpt lat="49.02198" lon="6.05025">
        <ele>173.7</ele>
        <time>2021-07-29T09:04:40Z</time>
      </trkpt>
      <trkpt lat="49.02196" lon="6.05025">
        <ele>173.8</ele>
        <time>2021-07-29T09:04:41Z</time>
      </trkpt>
      <trkpt lat="49.02193" lon="6.05025">
        <ele>173.8</ele>
        <time>2021-07-29T09:04:42Z</time>
      </trkpt>
      <trkpt lat="49.02192" lon="6.05025">
        <ele>173.9</ele>
        <time>2021-07-29T09:04:43Z</time>
      </trkpt>
      <trkpt lat="49.02189" lon="6.05026">
        <ele>173.9</ele>
        <time>2021-07-29T09:04:45Z</time>
      </trkpt>
      <trkpt lat="49.02186" lon="6.05025">
        <ele>174</ele>
        <time>2021-07-29T09:04:46Z</time>
      </trkpt>
      <trkpt lat="49.02183" lon="6.05024">
        <ele>174</ele>
        <time>2021-07-29T09:04:47Z</time>
      </trkpt>
      <trkpt lat="49.02178" lon="6.0502">
        <ele>174.1</ele>
        <time>2021-07-29T09:04:48Z</time>
      </trkpt>
      <trkpt lat="49.02173" lon="6.05015">
        <ele>174.2</ele>
        <time>2021-07-29T09:04:50Z</time>
      </trkpt>
      <trkpt lat="49.02169" lon="6.05012">
        <ele>174.3</ele>
        <time>2021-07-29T09:04:52Z</time>
      </trkpt>
      <trkpt lat="49.02166" lon="6.0501">
        <ele>174.4</ele>
        <time>2021-07-29T09:04:53Z</time>
      </trkpt>
      <trkpt lat="49.02165" lon="6.05009">
        <ele>174.4</ele>
        <time>2021-07-29T09:04:54Z</time>
      </trkpt>
      <trkpt lat="49.02161" lon="6.0501">
        <ele>174.4</ele>
        <time>2021-07-29T09:04:55Z</time>
      </trkpt>
      <trkpt lat="49.02158" lon="6.05011">
        <ele>174.5</ele>
        <time>2021-07-29T09:04:56Z</time>
      </trkpt>
      <trkpt lat="49.02156" lon="6.05015">
        <ele>174.5</ele>
        <time>2021-07-29T09:04:58Z</time>
      </trkpt>
      <trkpt lat="49.02154" lon="6.05018">
        <ele>174.6</ele>
        <time>2021-07-29T09:04:59Z</time>
      </trkpt>
      <trkpt lat="49.02152" lon="6.05025">
        <ele>174.6</ele>
        <time>2021-07-29T09:05:01Z</time>
      </trkpt>
      <trkpt lat="49.0215" lon="6.05029">
        <ele>174.6</ele>
        <time>2021-07-29T09:05:02Z</time>
      </trkpt>
      <trkpt lat="49.02148" lon="6.05034">
        <ele>174.6</ele>
        <time>2021-07-29T09:05:03Z</time>
      </trkpt>
      <trkpt lat="49.02148" lon="6.05036">
        <ele>174.6</ele>
        <time>2021-07-29T09:05:04Z</time>
      </trkpt>
      <trkpt lat="49.02146" lon="6.05042">
        <ele>174.6</ele>
        <time>2021-07-29T09:05:06Z</time>
      </trkpt>
      <trkpt lat="49.02141" lon="6.05051">
        <ele>174.6</ele>
        <time>2021-07-29T09:05:08Z</time>
      </trkpt>
      <trkpt lat="49.02133" lon="6.05059">
        <ele>174.6</ele>
        <time>2021-07-29T09:05:10Z</time>
      </trkpt>
      <trkpt lat="49.02125" lon="6.05066">
        <ele>174.4</ele>
        <time>2021-07-29T09:05:12Z</time>
      </trkpt>
      <trkpt lat="49.02118" lon="6.05068">
        <ele>174.3</ele>
        <time>2021-07-29T09:05:14Z</time>
      </trkpt>
      <trkpt lat="49.02112" lon="6.05067">
        <ele>174.2</ele>
        <time>2021-07-29T09:05:16Z</time>
      </trkpt>
      <trkpt lat="49.02108" lon="6.05066">
        <ele>174.2</ele>
        <time>2021-07-29T09:05:17Z</time>
      </trkpt>
      <trkpt lat="49.02103" lon="6.05064">
        <ele>174.2</ele>
        <time>2021-07-29T09:05:18Z</time>
      </trkpt>
      <trkpt lat="49.02098" lon="6.05061">
        <ele>174.1</ele>
        <time>2021-07-29T09:05:20Z</time>
      </trkpt>
      <trkpt lat="49.02091" lon="6.05057">
        <ele>174.1</ele>
        <time>2021-07-29T09:05:22Z</time>
      </trkpt>
      <trkpt lat="49.02085" lon="6.05055">
        <ele>174.1</ele>
        <time>2021-07-29T09:05:24Z</time>
      </trkpt>
      <trkpt lat="49.0208" lon="6.05052">
        <ele>174.1</ele>
        <time>2021-07-29T09:05:25Z</time>
      </trkpt>
      <trkpt lat="49.02076" lon="6.0505">
        <ele>174.1</ele>
        <time>2021-07-29T09:05:26Z</time>
      </trkpt>
      <trkpt lat="49.02068" lon="6.05049">
        <ele>174</ele>
        <time>2021-07-29T09:05:28Z</time>
      </trkpt>
      <trkpt lat="49.02062" lon="6.05044">
        <ele>174</ele>
        <time>2021-07-29T09:05:29Z</time>
      </trkpt>
      <trkpt lat="49.02056" lon="6.05042">
        <ele>174</ele>
        <time>2021-07-29T09:05:31Z</time>
      </trkpt>
      <trkpt lat="49.02052" lon="6.0504">
        <ele>174</ele>
        <time>2021-07-29T09:05:32Z</time>
      </trkpt>
      <trkpt lat="49.02048" lon="6.05038">
        <ele>174.1</ele>
        <time>2021-07-29T09:05:33Z</time>
      </trkpt>
      <trkpt lat="49.0204" lon="6.05032">
        <ele>174.1</ele>
        <time>2021-07-29T09:05:34Z</time>
      </trkpt>
      <trkpt lat="49.02035" lon="6.05029">
        <ele>174.1</ele>
        <time>2021-07-29T09:05:36Z</time>
      </trkpt>
      <trkpt lat="49.02031" lon="6.05026">
        <ele>174.1</ele>
        <time>2021-07-29T09:05:37Z</time>
      </trkpt>
      <trkpt lat="49.02028" lon="6.05024">
        <ele>174.2</ele>
        <time>2021-07-29T09:05:38Z</time>
      </trkpt>
      <trkpt lat="49.02023" lon="6.05021">
        <ele>174.2</ele>
        <time>2021-07-29T09:05:40Z</time>
      </trkpt>
      <trkpt lat="49.02018" lon="6.05018">
        <ele>174.2</ele>
        <time>2021-07-29T09:05:41Z</time>
      </trkpt>
      <trkpt lat="49.02014" lon="6.05014">
        <ele>174.2</ele>
        <time>2021-07-29T09:05:43Z</time>
      </trkpt>
      <trkpt lat="49.02011" lon="6.05011">
        <ele>174.2</ele>
        <time>2021-07-29T09:05:44Z</time>
      </trkpt>
      <trkpt lat="49.02006" lon="6.05006">
        <ele>174.2</ele>
        <time>2021-07-29T09:05:45Z</time>
      </trkpt>
      <trkpt lat="49.02002" lon="6.04999">
        <ele>174.3</ele>
        <time>2021-07-29T09:05:47Z</time>
      </trkpt>
      <trkpt lat="49.01997" lon="6.0499">
        <ele>174.3</ele>
        <time>2021-07-29T09:05:49Z</time>
      </trkpt>
      <trkpt lat="49.01992" lon="6.04984">
        <ele>174.3</ele>
        <time>2021-07-29T09:05:50Z</time>
      </trkpt>
      <trkpt lat="49.01988" lon="6.0498">
        <ele>174.3</ele>
        <time>2021-07-29T09:05:51Z</time>
      </trkpt>
      <trkpt lat="49.01985" lon="6.04974">
        <ele>174.3</ele>
        <time>2021-07-29T09:05:53Z</time>
      </trkpt>
      <trkpt lat="49.01982" lon="6.04971">
        <ele>174.3</ele>
        <time>2021-07-29T09:05:54Z</time>
      </trkpt>
      <trkpt lat="49.01978" lon="6.04968">
        <ele>174.3</ele>
        <time>2021-07-29T09:05:56Z</time>
      </trkpt>
      <trkpt lat="49.01977" lon="6.04967">
        <ele>174.3</ele>
        <time>2021-07-29T09:05:57Z</time>
      </trkpt>
      <trkpt lat="49.01974" lon="6.04967">
        <ele>174.3</ele>
        <time>2021-07-29T09:05:59Z</time>
      </trkpt>
      <trkpt lat="49.01969" lon="6.04967">
        <ele>174.3</ele>
        <time>2021-07-29T09:06:00Z</time>
      </trkpt>
      <trkpt lat="49.01965" lon="6.04966">
        <ele>174.3</ele>
        <time>2021-07-29T09:06:02Z</time>
      </trkpt>
      <trkpt lat="49.01964" lon="6.04966">
        <ele>174.3</ele>
        <time>2021-07-29T09:06:03Z</time>
      </trkpt>
      <trkpt lat="49.01959" lon="6.04964">
        <ele>174.3</ele>
        <time>2021-07-29T09:06:05Z</time>
      </trkpt>
      <trkpt lat="49.01956" lon="6.04962">
        <ele>174.3</ele>
        <time>2021-07-29T09:06:06Z</time>
      </trkpt>
      <trkpt lat="49.01951" lon="6.04959">
        <ele>174.3</ele>
        <time>2021-07-29T09:06:07Z</time>
      </trkpt>
      <trkpt lat="49.01945" lon="6.04953">
        <ele>174.3</ele>
        <time>2021-07-29T09:06:09Z</time>
      </trkpt>
      <trkpt lat="49.0194" lon="6.04948">
        <ele>174.3</ele>
        <time>2021-07-29T09:06:11Z</time>
      </trkpt>
      <trkpt lat="49.01934" lon="6.04944">
        <ele>174.3</ele>
        <time>2021-07-29T09:06:13Z</time>
      </trkpt>
      <trkpt lat="49.0193" lon="6.04943">
        <ele>174.3</ele>
        <time>2021-07-29T09:06:14Z</time>
      </trkpt>
      <trkpt lat="49.01927" lon="6.04942">
        <ele>174.3</ele>
        <time>2021-07-29T09:06:15Z</time>
      </trkpt>
      <trkpt lat="49.01922" lon="6.0494">
        <ele>174.3</ele>
        <time>2021-07-29T09:06:17Z</time>
      </trkpt>
      <trkpt lat="49.01918" lon="6.04937">
        <ele>174.3</ele>
        <time>2021-07-29T09:06:18Z</time>
      </trkpt>
      <trkpt lat="49.01915" lon="6.04935">
        <ele>174.3</ele>
        <time>2021-07-29T09:06:19Z</time>
      </trkpt>
      <trkpt lat="49.01911" lon="6.04934">
        <ele>174.3</ele>
        <time>2021-07-29T09:06:21Z</time>
      </trkpt>
      <trkpt lat="49.01908" lon="6.04933">
        <ele>174.3</ele>
        <time>2021-07-29T09:06:22Z</time>
      </trkpt>
      <trkpt lat="49.01904" lon="6.04931">
        <ele>174.3</ele>
        <time>2021-07-29T09:06:23Z</time>
      </trkpt>
      <trkpt lat="49.01898" lon="6.04929">
        <ele>174.3</ele>
        <time>2021-07-29T09:06:25Z</time>
      </trkpt>
      <trkpt lat="49.01894" lon="6.04928">
        <ele>174.3</ele>
        <time>2021-07-29T09:06:26Z</time>
      </trkpt>
      <trkpt lat="49.01891" lon="6.04927">
        <ele>174.3</ele>
        <time>2021-07-29T09:06:27Z</time>
      </trkpt>
      <trkpt lat="49.01884" lon="6.04925">
        <ele>174.2</ele>
        <time>2021-07-29T09:06:28Z</time>
      </trkpt>
      <trkpt lat="49.01877" lon="6.04923">
        <ele>174.2</ele>
        <time>2021-07-29T09:06:30Z</time>
      </trkpt>
      <trkpt lat="49.01869" lon="6.04919">
        <ele>174.2</ele>
        <time>2021-07-29T09:06:31Z</time>
      </trkpt>
      <trkpt lat="49.01864" lon="6.04915">
        <ele>174.2</ele>
        <time>2021-07-29T09:06:33Z</time>
      </trkpt>
      <trkpt lat="49.01859" lon="6.04912">
        <ele>174.2</ele>
        <time>2021-07-29T09:06:34Z</time>
      </trkpt>
      <trkpt lat="49.01853" lon="6.04908">
        <ele>174.2</ele>
        <time>2021-07-29T09:06:35Z</time>
      </trkpt>
      <trkpt lat="49.01849" lon="6.04905">
        <ele>174.2</ele>
        <time>2021-07-29T09:06:37Z</time>
      </trkpt>
      <trkpt lat="49.01846" lon="6.04901">
        <ele>174.2</ele>
        <time>2021-07-29T09:06:38Z</time>
      </trkpt>
      <trkpt lat="49.01841" lon="6.04898">
        <ele>174.2</ele>
        <time>2021-07-29T09:06:39Z</time>
      </trkpt>
      <trkpt lat="49.01836" lon="6.04895">
        <ele>174.2</ele>
        <time>2021-07-29T09:06:41Z</time>
      </trkpt>
      <trkpt lat="49.01831" lon="6.04893">
        <ele>174.2</ele>
        <time>2021-07-29T09:06:42Z</time>
      </trkpt>
      <trkpt lat="49.01826" lon="6.0489">
        <ele>174.2</ele>
        <time>2021-07-29T09:06:44Z</time>
      </trkpt>
      <trkpt lat="49.0182" lon="6.04887">
        <ele>174.2</ele>
        <time>2021-07-29T09:06:46Z</time>
      </trkpt>
      <trkpt lat="49.01817" lon="6.04885">
        <ele>174.2</ele>
        <time>2021-07-29T09:06:47Z</time>
      </trkpt>
      <trkpt lat="49.01813" lon="6.04882">
        <ele>174.2</ele>
        <time>2021-07-29T09:06:48Z</time>
      </trkpt>
      <trkpt lat="49.01809" lon="6.04879">
        <ele>174.2</ele>
        <time>2021-07-29T09:06:49Z</time>
      </trkpt>
      <trkpt lat="49.01806" lon="6.04878">
        <ele>174.2</ele>
        <time>2021-07-29T09:06:50Z</time>
      </trkpt>
      <trkpt lat="49.01801" lon="6.04874">
        <ele>174.2</ele>
        <time>2021-07-29T09:06:52Z</time>
      </trkpt>
      <trkpt lat="49.01795" lon="6.04867">
        <ele>174.2</ele>
        <time>2021-07-29T09:06:54Z</time>
      </trkpt>
      <trkpt lat="49.01788" lon="6.04861">
        <ele>174.2</ele>
        <time>2021-07-29T09:06:56Z</time>
      </trkpt>
      <trkpt lat="49.01783" lon="6.04857">
        <ele>174.3</ele>
        <time>2021-07-29T09:06:57Z</time>
      </trkpt>
      <trkpt lat="49.01777" lon="6.04853">
        <ele>174.3</ele>
        <time>2021-07-29T09:06:59Z</time>
      </trkpt>
      <trkpt lat="49.01773" lon="6.04849">
        <ele>174.4</ele>
        <time>2021-07-29T09:07:00Z</time>
      </trkpt>
      <trkpt lat="49.01767" lon="6.04844">
        <ele>174.5</ele>
        <time>2021-07-29T09:07:01Z</time>
      </trkpt>
      <trkpt lat="49.01764" lon="6.04841">
        <ele>174.5</ele>
        <time>2021-07-29T09:07:02Z</time>
      </trkpt>
      <trkpt lat="49.0176" lon="6.04839">
        <ele>174.5</ele>
        <time>2021-07-29T09:07:03Z</time>
      </trkpt>
      <trkpt lat="49.01754" lon="6.04837">
        <ele>174.5</ele>
        <time>2021-07-29T09:07:05Z</time>
      </trkpt>
      <trkpt lat="49.0175" lon="6.04835">
        <ele>174.5</ele>
        <time>2021-07-29T09:07:06Z</time>
      </trkpt>
      <trkpt lat="49.01747" lon="6.04833">
        <ele>174.5</ele>
        <time>2021-07-29T09:07:07Z</time>
      </trkpt>
      <trkpt lat="49.01743" lon="6.0483">
        <ele>174.5</ele>
        <time>2021-07-29T09:07:08Z</time>
      </trkpt>
      <trkpt lat="49.01738" lon="6.04826">
        <ele>174.5</ele>
        <time>2021-07-29T09:07:09Z</time>
      </trkpt>
      <trkpt lat="49.01732" lon="6.04819">
        <ele>174.6</ele>
        <time>2021-07-29T09:07:11Z</time>
      </trkpt>
      <trkpt lat="49.01728" lon="6.04815">
        <ele>174.6</ele>
        <time>2021-07-29T09:07:12Z</time>
      </trkpt>
      <trkpt lat="49.0172" lon="6.04807">
        <ele>174.6</ele>
        <time>2021-07-29T09:07:14Z</time>
      </trkpt>
      <trkpt lat="49.01714" lon="6.048">
        <ele>174.6</ele>
        <time>2021-07-29T09:07:16Z</time>
      </trkpt>
      <trkpt lat="49.01712" lon="6.04797">
        <ele>174.6</ele>
        <time>2021-07-29T09:07:17Z</time>
      </trkpt>
      <trkpt lat="49.01709" lon="6.04793">
        <ele>174.6</ele>
        <time>2021-07-29T09:07:18Z</time>
      </trkpt>
      <trkpt lat="49.01706" lon="6.0479">
        <ele>174.6</ele>
        <time>2021-07-29T09:07:19Z</time>
      </trkpt>
      <trkpt lat="49.01703" lon="6.04786">
        <ele>174.5</ele>
        <time>2021-07-29T09:07:20Z</time>
      </trkpt>
      <trkpt lat="49.01697" lon="6.04781">
        <ele>174.5</ele>
        <time>2021-07-29T09:07:22Z</time>
      </trkpt>
      <trkpt lat="49.01694" lon="6.04778">
        <ele>174.5</ele>
        <time>2021-07-29T09:07:23Z</time>
      </trkpt>
      <trkpt lat="49.01689" lon="6.04775">
        <ele>174.5</ele>
        <time>2021-07-29T09:07:24Z</time>
      </trkpt>
      <trkpt lat="49.01685" lon="6.04771">
        <ele>174.5</ele>
        <time>2021-07-29T09:07:26Z</time>
      </trkpt>
      <trkpt lat="49.01682" lon="6.04766">
        <ele>174.5</ele>
        <time>2021-07-29T09:07:27Z</time>
      </trkpt>
      <trkpt lat="49.01678" lon="6.04763">
        <ele>174.5</ele>
        <time>2021-07-29T09:07:28Z</time>
      </trkpt>
      <trkpt lat="49.01675" lon="6.04761">
        <ele>174.5</ele>
        <time>2021-07-29T09:07:29Z</time>
      </trkpt>
      <trkpt lat="49.01672" lon="6.04758">
        <ele>174.4</ele>
        <time>2021-07-29T09:07:30Z</time>
      </trkpt>
      <trkpt lat="49.01669" lon="6.04754">
        <ele>174.4</ele>
        <time>2021-07-29T09:07:32Z</time>
      </trkpt>
      <trkpt lat="49.01664" lon="6.0475">
        <ele>174.4</ele>
        <time>2021-07-29T09:07:33Z</time>
      </trkpt>
      <trkpt lat="49.01661" lon="6.04746">
        <ele>174.4</ele>
        <time>2021-07-29T09:07:34Z</time>
      </trkpt>
      <trkpt lat="49.01657" lon="6.04742">
        <ele>174.4</ele>
        <time>2021-07-29T09:07:35Z</time>
      </trkpt>
      <trkpt lat="49.01654" lon="6.04739">
        <ele>174.5</ele>
        <time>2021-07-29T09:07:37Z</time>
      </trkpt>
      <trkpt lat="49.0165" lon="6.04733">
        <ele>174.5</ele>
        <time>2021-07-29T09:07:38Z</time>
      </trkpt>
      <trkpt lat="49.01646" lon="6.04729">
        <ele>174.5</ele>
        <time>2021-07-29T09:07:39Z</time>
      </trkpt>
      <trkpt lat="49.01642" lon="6.04726">
        <ele>174.5</ele>
        <time>2021-07-29T09:07:40Z</time>
      </trkpt>
      <trkpt lat="49.01637" lon="6.04721">
        <ele>174.5</ele>
        <time>2021-07-29T09:07:42Z</time>
      </trkpt>
      <trkpt lat="49.01634" lon="6.04717">
        <ele>174.5</ele>
        <time>2021-07-29T09:07:43Z</time>
      </trkpt>
      <trkpt lat="49.01631" lon="6.04714">
        <ele>174.5</ele>
        <time>2021-07-29T09:07:45Z</time>
      </trkpt>
      <trkpt lat="49.01626" lon="6.04708">
        <ele>174.5</ele>
        <time>2021-07-29T09:07:46Z</time>
      </trkpt>
      <trkpt lat="49.01621" lon="6.04704">
        <ele>174.5</ele>
        <time>2021-07-29T09:07:47Z</time>
      </trkpt>
      <trkpt lat="49.01617" lon="6.04701">
        <ele>174.5</ele>
        <time>2021-07-29T09:07:48Z</time>
      </trkpt>
      <trkpt lat="49.01611" lon="6.04696">
        <ele>174.5</ele>
        <time>2021-07-29T09:07:50Z</time>
      </trkpt>
      <trkpt lat="49.01602" lon="6.04688">
        <ele>174.5</ele>
        <time>2021-07-29T09:07:52Z</time>
      </trkpt>
      <trkpt lat="49.01594" lon="6.0468">
        <ele>174.5</ele>
        <time>2021-07-29T09:07:54Z</time>
      </trkpt>
      <trkpt lat="49.01587" lon="6.04674">
        <ele>174.5</ele>
        <time>2021-07-29T09:07:55Z</time>
      </trkpt>
      <trkpt lat="49.01583" lon="6.0467">
        <ele>174.5</ele>
        <time>2021-07-29T09:07:56Z</time>
      </trkpt>
      <trkpt lat="49.0158" lon="6.04667">
        <ele>174.5</ele>
        <time>2021-07-29T09:07:58Z</time>
      </trkpt>
      <trkpt lat="49.01577" lon="6.04663">
        <ele>174.5</ele>
        <time>2021-07-29T09:07:59Z</time>
      </trkpt>
      <trkpt lat="49.01575" lon="6.0466">
        <ele>174.5</ele>
        <time>2021-07-29T09:08:00Z</time>
      </trkpt>
      <trkpt lat="49.01569" lon="6.04651">
        <ele>174.5</ele>
        <time>2021-07-29T09:08:02Z</time>
      </trkpt>
      <trkpt lat="49.01564" lon="6.04643">
        <ele>174.5</ele>
        <time>2021-07-29T09:08:04Z</time>
      </trkpt>
      <trkpt lat="49.01561" lon="6.04639">
        <ele>174.5</ele>
        <time>2021-07-29T09:08:05Z</time>
      </trkpt>
      <trkpt lat="49.01556" lon="6.04633">
        <ele>174.5</ele>
        <time>2021-07-29T09:08:06Z</time>
      </trkpt>
      <trkpt lat="49.01553" lon="6.04629">
        <ele>174.5</ele>
        <time>2021-07-29T09:08:07Z</time>
      </trkpt>
      <trkpt lat="49.0155" lon="6.04626">
        <ele>174.5</ele>
        <time>2021-07-29T09:08:08Z</time>
      </trkpt>
      <trkpt lat="49.01548" lon="6.04622">
        <ele>174.5</ele>
        <time>2021-07-29T09:08:09Z</time>
      </trkpt>
      <trkpt lat="49.01543" lon="6.04618">
        <ele>174.5</ele>
        <time>2021-07-29T09:08:11Z</time>
      </trkpt>
      <trkpt lat="49.0154" lon="6.04614">
        <ele>174.5</ele>
        <time>2021-07-29T09:08:12Z</time>
      </trkpt>
      <trkpt lat="49.01535" lon="6.04609">
        <ele>174.5</ele>
        <time>2021-07-29T09:08:13Z</time>
      </trkpt>
      <trkpt lat="49.01531" lon="6.04605">
        <ele>174.4</ele>
        <time>2021-07-29T09:08:14Z</time>
      </trkpt>
      <trkpt lat="49.01526" lon="6.04599">
        <ele>174.4</ele>
        <time>2021-07-29T09:08:15Z</time>
      </trkpt>
      <trkpt lat="49.0152" lon="6.04593">
        <ele>174.4</ele>
        <time>2021-07-29T09:08:16Z</time>
      </trkpt>
      <trkpt lat="49.01514" lon="6.04586">
        <ele>174.4</ele>
        <time>2021-07-29T09:08:18Z</time>
      </trkpt>
      <trkpt lat="49.0151" lon="6.04582">
        <ele>174.4</ele>
        <time>2021-07-29T09:08:19Z</time>
      </trkpt>
      <trkpt lat="49.01506" lon="6.04578">
        <ele>174.4</ele>
        <time>2021-07-29T09:08:20Z</time>
      </trkpt>
      <trkpt lat="49.01501" lon="6.04572">
        <ele>174.4</ele>
        <time>2021-07-29T09:08:21Z</time>
      </trkpt>
      <trkpt lat="49.01496" lon="6.04564">
        <ele>174.4</ele>
        <time>2021-07-29T09:08:22Z</time>
      </trkpt>
      <trkpt lat="49.01491" lon="6.04557">
        <ele>174.4</ele>
        <time>2021-07-29T09:08:24Z</time>
      </trkpt>
      <trkpt lat="49.01485" lon="6.04549">
        <ele>174.4</ele>
        <time>2021-07-29T09:08:25Z</time>
      </trkpt>
      <trkpt lat="49.01479" lon="6.04543">
        <ele>174.4</ele>
        <time>2021-07-29T09:08:27Z</time>
      </trkpt>
      <trkpt lat="49.01471" lon="6.04536">
        <ele>174.5</ele>
        <time>2021-07-29T09:08:28Z</time>
      </trkpt>
      <trkpt lat="49.01466" lon="6.04532">
        <ele>174.5</ele>
        <time>2021-07-29T09:08:29Z</time>
      </trkpt>
      <trkpt lat="49.01461" lon="6.04527">
        <ele>174.5</ele>
        <time>2021-07-29T09:08:30Z</time>
      </trkpt>
      <trkpt lat="49.01457" lon="6.04522">
        <ele>174.5</ele>
        <time>2021-07-29T09:08:31Z</time>
      </trkpt>
      <trkpt lat="49.01453" lon="6.04518">
        <ele>174.5</ele>
        <time>2021-07-29T09:08:33Z</time>
      </trkpt>
      <trkpt lat="49.01449" lon="6.04513">
        <ele>174.6</ele>
        <time>2021-07-29T09:08:34Z</time>
      </trkpt>
      <trkpt lat="49.01445" lon="6.04506">
        <ele>174.6</ele>
        <time>2021-07-29T09:08:35Z</time>
      </trkpt>
      <trkpt lat="49.01439" lon="6.04496">
        <ele>174.6</ele>
        <time>2021-07-29T09:08:37Z</time>
      </trkpt>
      <trkpt lat="49.01436" lon="6.04491">
        <ele>174.6</ele>
        <time>2021-07-29T09:08:38Z</time>
      </trkpt>
      <trkpt lat="49.01431" lon="6.04486">
        <ele>174.6</ele>
        <time>2021-07-29T09:08:39Z</time>
      </trkpt>
      <trkpt lat="49.01424" lon="6.04474">
        <ele>174.6</ele>
        <time>2021-07-29T09:08:40Z</time>
      </trkpt>
      <trkpt lat="49.01419" lon="6.04467">
        <ele>174.6</ele>
        <time>2021-07-29T09:08:41Z</time>
      </trkpt>
      <trkpt lat="49.01415" lon="6.04462">
        <ele>174.6</ele>
        <time>2021-07-29T09:08:42Z</time>
      </trkpt>
      <trkpt lat="49.01412" lon="6.04451">
        <ele>174.6</ele>
        <time>2021-07-29T09:08:44Z</time>
      </trkpt>
      <trkpt lat="49.01408" lon="6.04447">
        <ele>174.7</ele>
        <time>2021-07-29T09:08:45Z</time>
      </trkpt>
      <trkpt lat="49.01405" lon="6.04443">
        <ele>174.7</ele>
        <time>2021-07-29T09:08:46Z</time>
      </trkpt>
      <trkpt lat="49.01402" lon="6.04439">
        <ele>174.7</ele>
        <time>2021-07-29T09:08:47Z</time>
      </trkpt>
      <trkpt lat="49.014" lon="6.04435">
        <ele>174.7</ele>
        <time>2021-07-29T09:08:48Z</time>
      </trkpt>
      <trkpt lat="49.01395" lon="6.0443">
        <ele>174.7</ele>
        <time>2021-07-29T09:08:49Z</time>
      </trkpt>
      <trkpt lat="49.01391" lon="6.04425">
        <ele>174.7</ele>
        <time>2021-07-29T09:08:50Z</time>
      </trkpt>
      <trkpt lat="49.01387" lon="6.0442">
        <ele>174.6</ele>
        <time>2021-07-29T09:08:51Z</time>
      </trkpt>
      <trkpt lat="49.01383" lon="6.04416">
        <ele>174.6</ele>
        <time>2021-07-29T09:08:52Z</time>
      </trkpt>
      <trkpt lat="49.0138" lon="6.04413">
        <ele>174.6</ele>
        <time>2021-07-29T09:08:53Z</time>
      </trkpt>
      <trkpt lat="49.01378" lon="6.04409">
        <ele>174.6</ele>
        <time>2021-07-29T09:08:54Z</time>
      </trkpt>
      <trkpt lat="49.01372" lon="6.04401">
        <ele>174.6</ele>
        <time>2021-07-29T09:08:56Z</time>
      </trkpt>
      <trkpt lat="49.01368" lon="6.04396">
        <ele>174.6</ele>
        <time>2021-07-29T09:08:57Z</time>
      </trkpt>
      <trkpt lat="49.01365" lon="6.0439">
        <ele>174.6</ele>
        <time>2021-07-29T09:08:58Z</time>
      </trkpt>
      <trkpt lat="49.01363" lon="6.04386">
        <ele>174.6</ele>
        <time>2021-07-29T09:08:59Z</time>
      </trkpt>
      <trkpt lat="49.0136" lon="6.04381">
        <ele>174.6</ele>
        <time>2021-07-29T09:09:00Z</time>
      </trkpt>
      <trkpt lat="49.01355" lon="6.04375">
        <ele>174.6</ele>
        <time>2021-07-29T09:09:02Z</time>
      </trkpt>
      <trkpt lat="49.01352" lon="6.04369">
        <ele>174.6</ele>
        <time>2021-07-29T09:09:03Z</time>
      </trkpt>
      <trkpt lat="49.01349" lon="6.04366">
        <ele>174.6</ele>
        <time>2021-07-29T09:09:04Z</time>
      </trkpt>
      <trkpt lat="49.01347" lon="6.04362">
        <ele>174.5</ele>
        <time>2021-07-29T09:09:05Z</time>
      </trkpt>
      <trkpt lat="49.01343" lon="6.04358">
        <ele>174.5</ele>
        <time>2021-07-29T09:09:06Z</time>
      </trkpt>
      <trkpt lat="49.0134" lon="6.04354">
        <ele>174.5</ele>
        <time>2021-07-29T09:09:07Z</time>
      </trkpt>
      <trkpt lat="49.01335" lon="6.04349">
        <ele>174.5</ele>
        <time>2021-07-29T09:09:09Z</time>
      </trkpt>
      <trkpt lat="49.01331" lon="6.04345">
        <ele>174.5</ele>
        <time>2021-07-29T09:09:10Z</time>
      </trkpt>
      <trkpt lat="49.01327" lon="6.04341">
        <ele>174.5</ele>
        <time>2021-07-29T09:09:11Z</time>
      </trkpt>
      <trkpt lat="49.01323" lon="6.04337">
        <ele>174.5</ele>
        <time>2021-07-29T09:09:12Z</time>
      </trkpt>
      <trkpt lat="49.01319" lon="6.04334">
        <ele>174.5</ele>
        <time>2021-07-29T09:09:13Z</time>
      </trkpt>
      <trkpt lat="49.01316" lon="6.0433">
        <ele>174.5</ele>
        <time>2021-07-29T09:09:14Z</time>
      </trkpt>
      <trkpt lat="49.01312" lon="6.04326">
        <ele>174.5</ele>
        <time>2021-07-29T09:09:15Z</time>
      </trkpt>
      <trkpt lat="49.01308" lon="6.04322">
        <ele>174.5</ele>
        <time>2021-07-29T09:09:17Z</time>
      </trkpt>
      <trkpt lat="49.01305" lon="6.04318">
        <ele>174.5</ele>
        <time>2021-07-29T09:09:18Z</time>
      </trkpt>
      <trkpt lat="49.01302" lon="6.04315">
        <ele>174.5</ele>
        <time>2021-07-29T09:09:19Z</time>
      </trkpt>
      <trkpt lat="49.01297" lon="6.0431">
        <ele>174.5</ele>
        <time>2021-07-29T09:09:21Z</time>
      </trkpt>
      <trkpt lat="49.01294" lon="6.04308">
        <ele>174.5</ele>
        <time>2021-07-29T09:09:22Z</time>
      </trkpt>
      <trkpt lat="49.01291" lon="6.04305">
        <ele>174.5</ele>
        <time>2021-07-29T09:09:23Z</time>
      </trkpt>
      <trkpt lat="49.01288" lon="6.04302">
        <ele>174.5</ele>
        <time>2021-07-29T09:09:24Z</time>
      </trkpt>
      <trkpt lat="49.01285" lon="6.04299">
        <ele>174.5</ele>
        <time>2021-07-29T09:09:25Z</time>
      </trkpt>
      <trkpt lat="49.01284" lon="6.04298">
        <ele>174.5</ele>
        <time>2021-07-29T09:09:26Z</time>
      </trkpt>
      <trkpt lat="49.0128" lon="6.04294">
        <ele>174.5</ele>
        <time>2021-07-29T09:09:28Z</time>
      </trkpt>
      <trkpt lat="49.01275" lon="6.04288">
        <ele>174.6</ele>
        <time>2021-07-29T09:09:30Z</time>
      </trkpt>
      <trkpt lat="49.0127" lon="6.04283">
        <ele>174.6</ele>
        <time>2021-07-29T09:09:32Z</time>
      </trkpt>
      <trkpt lat="49.01264" lon="6.04279">
        <ele>174.6</ele>
        <time>2021-07-29T09:09:34Z</time>
      </trkpt>
      <trkpt lat="49.01256" lon="6.04274">
        <ele>174.6</ele>
        <time>2021-07-29T09:09:35Z</time>
      </trkpt>
      <trkpt lat="49.01245" lon="6.04265">
        <ele>174.5</ele>
        <time>2021-07-29T09:09:37Z</time>
      </trkpt>
      <trkpt lat="49.01239" lon="6.04261">
        <ele>174.5</ele>
        <time>2021-07-29T09:09:38Z</time>
      </trkpt>
      <trkpt lat="49.01233" lon="6.04259">
        <ele>174.4</ele>
        <time>2021-07-29T09:09:39Z</time>
      </trkpt>
      <trkpt lat="49.01223" lon="6.0425">
        <ele>174.4</ele>
        <time>2021-07-29T09:09:41Z</time>
      </trkpt>
      <trkpt lat="49.01216" lon="6.04245">
        <ele>174.3</ele>
        <time>2021-07-29T09:09:42Z</time>
      </trkpt>
      <trkpt lat="49.01204" lon="6.04234">
        <ele>174.2</ele>
        <time>2021-07-29T09:09:44Z</time>
      </trkpt>
      <trkpt lat="49.01195" lon="6.04229">
        <ele>174.2</ele>
        <time>2021-07-29T09:09:46Z</time>
      </trkpt>
      <trkpt lat="49.01191" lon="6.04226">
        <ele>174.2</ele>
        <time>2021-07-29T09:09:47Z</time>
      </trkpt>
      <trkpt lat="49.0118" lon="6.04218">
        <ele>174.2</ele>
        <time>2021-07-29T09:09:49Z</time>
      </trkpt>
      <trkpt lat="49.01175" lon="6.04214">
        <ele>174.2</ele>
        <time>2021-07-29T09:09:50Z</time>
      </trkpt>
      <trkpt lat="49.01164" lon="6.04208">
        <ele>174.1</ele>
        <time>2021-07-29T09:09:52Z</time>
      </trkpt>
      <trkpt lat="49.01158" lon="6.04206">
        <ele>174.1</ele>
        <time>2021-07-29T09:09:53Z</time>
      </trkpt>
      <trkpt lat="49.01153" lon="6.04204">
        <ele>174.1</ele>
        <time>2021-07-29T09:09:54Z</time>
      </trkpt>
      <trkpt lat="49.0115" lon="6.04204">
        <ele>174.1</ele>
        <time>2021-07-29T09:09:55Z</time>
      </trkpt>
      <trkpt lat="49.01146" lon="6.04203">
        <ele>174.1</ele>
        <time>2021-07-29T09:09:56Z</time>
      </trkpt>
      <trkpt lat="49.01142" lon="6.042">
        <ele>174.1</ele>
        <time>2021-07-29T09:09:57Z</time>
      </trkpt>
      <trkpt lat="49.01137" lon="6.04197">
        <ele>174.1</ele>
        <time>2021-07-29T09:09:58Z</time>
      </trkpt>
      <trkpt lat="49.01133" lon="6.04193">
        <ele>174.1</ele>
        <time>2021-07-29T09:09:59Z</time>
      </trkpt>
      <trkpt lat="49.01128" lon="6.04189">
        <ele>174.1</ele>
        <time>2021-07-29T09:10:00Z</time>
      </trkpt>
      <trkpt lat="49.01124" lon="6.04186">
        <ele>174.1</ele>
        <time>2021-07-29T09:10:01Z</time>
      </trkpt>
      <trkpt lat="49.01119" lon="6.04183">
        <ele>174</ele>
        <time>2021-07-29T09:10:02Z</time>
      </trkpt>
      <trkpt lat="49.01114" lon="6.0418">
        <ele>174</ele>
        <time>2021-07-29T09:10:03Z</time>
      </trkpt>
      <trkpt lat="49.01109" lon="6.04178">
        <ele>174</ele>
        <time>2021-07-29T09:10:04Z</time>
      </trkpt>
      <trkpt lat="49.01102" lon="6.04177">
        <ele>174</ele>
        <time>2021-07-29T09:10:06Z</time>
      </trkpt>
      <trkpt lat="49.01096" lon="6.04178">
        <ele>174</ele>
        <time>2021-07-29T09:10:08Z</time>
      </trkpt>
      <trkpt lat="49.0109" lon="6.04177">
        <ele>174</ele>
        <time>2021-07-29T09:10:10Z</time>
      </trkpt>
      <trkpt lat="49.01084" lon="6.04178">
        <ele>174</ele>
        <time>2021-07-29T09:10:11Z</time>
      </trkpt>
      <trkpt lat="49.01078" lon="6.04175">
        <ele>173.9</ele>
        <time>2021-07-29T09:10:13Z</time>
      </trkpt>
      <trkpt lat="49.01073" lon="6.04172">
        <ele>173.9</ele>
        <time>2021-07-29T09:10:15Z</time>
      </trkpt>
      <trkpt lat="49.01068" lon="6.0417">
        <ele>173.9</ele>
        <time>2021-07-29T09:10:16Z</time>
      </trkpt>
      <trkpt lat="49.01062" lon="6.04169">
        <ele>173.9</ele>
        <time>2021-07-29T09:10:18Z</time>
      </trkpt>
      <trkpt lat="49.01056" lon="6.04168">
        <ele>173.9</ele>
        <time>2021-07-29T09:10:20Z</time>
      </trkpt>
      <trkpt lat="49.01049" lon="6.04167">
        <ele>174</ele>
        <time>2021-07-29T09:10:22Z</time>
      </trkpt>
      <trkpt lat="49.01044" lon="6.04165">
        <ele>174</ele>
        <time>2021-07-29T09:10:23Z</time>
      </trkpt>
      <trkpt lat="49.0104" lon="6.04165">
        <ele>174</ele>
        <time>2021-07-29T09:10:24Z</time>
      </trkpt>
      <trkpt lat="49.01036" lon="6.04166">
        <ele>174</ele>
        <time>2021-07-29T09:10:25Z</time>
      </trkpt>
      <trkpt lat="49.01033" lon="6.04165">
        <ele>174</ele>
        <time>2021-07-29T09:10:26Z</time>
      </trkpt>
      <trkpt lat="49.01029" lon="6.04164">
        <ele>174</ele>
        <time>2021-07-29T09:10:27Z</time>
      </trkpt>
      <trkpt lat="49.01024" lon="6.04163">
        <ele>174.1</ele>
        <time>2021-07-29T09:10:29Z</time>
      </trkpt>
      <trkpt lat="49.01021" lon="6.04163">
        <ele>174.1</ele>
        <time>2021-07-29T09:10:30Z</time>
      </trkpt>
      <trkpt lat="49.0102" lon="6.04162">
        <ele>174.1</ele>
        <time>2021-07-29T09:10:31Z</time>
      </trkpt>
      <trkpt lat="49.01019" lon="6.04159">
        <ele>174.1</ele>
        <time>2021-07-29T09:10:32Z</time>
      </trkpt>
      <trkpt lat="49.01019" lon="6.04155">
        <ele>174.1</ele>
        <time>2021-07-29T09:10:33Z</time>
      </trkpt>
      <trkpt lat="49.01019" lon="6.04153">
        <ele>174.1</ele>
        <time>2021-07-29T09:10:34Z</time>
      </trkpt>
      <trkpt lat="49.01018" lon="6.04149">
        <ele>174.1</ele>
        <time>2021-07-29T09:10:36Z</time>
      </trkpt>
      <trkpt lat="49.01016" lon="6.04142">
        <ele>174.1</ele>
        <time>2021-07-29T09:10:38Z</time>
      </trkpt>
      <trkpt lat="49.01012" lon="6.04129">
        <ele>174.2</ele>
        <time>2021-07-29T09:10:40Z</time>
      </trkpt>
      <trkpt lat="49.01009" lon="6.04121">
        <ele>174.3</ele>
        <time>2021-07-29T09:10:41Z</time>
      </trkpt>
      <trkpt lat="49.01005" lon="6.04113">
        <ele>174.3</ele>
        <time>2021-07-29T09:10:42Z</time>
      </trkpt>
      <trkpt lat="49.00991" lon="6.04082">
        <ele>174.8</ele>
        <time>2021-07-29T09:10:44Z</time>
      </trkpt>
      <trkpt lat="49.00987" lon="6.04071">
        <ele>174.3</ele>
        <time>2021-07-29T09:10:45Z</time>
      </trkpt>
      <trkpt lat="49.00984" lon="6.04053">
        <ele>173.7</ele>
        <time>2021-07-29T09:10:47Z</time>
      </trkpt>
      <trkpt lat="49.00982" lon="6.04045">
        <ele>173.3</ele>
        <time>2021-07-29T09:10:48Z</time>
      </trkpt>
      <trkpt lat="49.00979" lon="6.04032">
        <ele>172.7</ele>
        <time>2021-07-29T09:10:50Z</time>
      </trkpt>
      <trkpt lat="49.00976" lon="6.04023">
        <ele>172.3</ele>
        <time>2021-07-29T09:10:52Z</time>
      </trkpt>
      <trkpt lat="49.00976" lon="6.04018">
        <ele>172.3</ele>
        <time>2021-07-29T09:10:53Z</time>
      </trkpt>
      <trkpt lat="49.00975" lon="6.04008">
        <ele>172.2</ele>
        <time>2021-07-29T09:10:55Z</time>
      </trkpt>
      <trkpt lat="49.00974" lon="6.04001">
        <ele>172.1</ele>
        <time>2021-07-29T09:10:56Z</time>
      </trkpt>
      <trkpt lat="49.00973" lon="6.0399">
        <ele>172</ele>
        <time>2021-07-29T09:10:57Z</time>
      </trkpt>
      <trkpt lat="49.00972" lon="6.0398">
        <ele>171.9</ele>
        <time>2021-07-29T09:10:59Z</time>
      </trkpt>
      <trkpt lat="49.00972" lon="6.03973">
        <ele>171.7</ele>
        <time>2021-07-29T09:11:00Z</time>
      </trkpt>
      <trkpt lat="49.00971" lon="6.03964">
        <ele>171.7</ele>
        <time>2021-07-29T09:11:01Z</time>
      </trkpt>
      <trkpt lat="49.00969" lon="6.03951">
        <ele>171.6</ele>
        <time>2021-07-29T09:11:03Z</time>
      </trkpt>
      <trkpt lat="49.00965" lon="6.03931">
        <ele>171.6</ele>
        <time>2021-07-29T09:11:05Z</time>
      </trkpt>
      <trkpt lat="49.00966" lon="6.03915">
        <ele>171.7</ele>
        <time>2021-07-29T09:11:07Z</time>
      </trkpt>
      <trkpt lat="49.00969" lon="6.03907">
        <ele>171.8</ele>
        <time>2021-07-29T09:11:08Z</time>
      </trkpt>
      <trkpt lat="49.00975" lon="6.03894">
        <ele>172</ele>
        <time>2021-07-29T09:11:10Z</time>
      </trkpt>
      <trkpt lat="49.00978" lon="6.03886">
        <ele>172.1</ele>
        <time>2021-07-29T09:11:11Z</time>
      </trkpt>
      <trkpt lat="49.00981" lon="6.0388">
        <ele>172.2</ele>
        <time>2021-07-29T09:11:13Z</time>
      </trkpt>
      <trkpt lat="49.00984" lon="6.03874">
        <ele>172.2</ele>
        <time>2021-07-29T09:11:14Z</time>
      </trkpt>
      <trkpt lat="49.00986" lon="6.03868">
        <ele>172.3</ele>
        <time>2021-07-29T09:11:15Z</time>
      </trkpt>
      <trkpt lat="49.00989" lon="6.03855">
        <ele>172.5</ele>
        <time>2021-07-29T09:11:17Z</time>
      </trkpt>
      <trkpt lat="49.00993" lon="6.03843">
        <ele>172.6</ele>
        <time>2021-07-29T09:11:18Z</time>
      </trkpt>
      <trkpt lat="49.00994" lon="6.03833">
        <ele>172.7</ele>
        <time>2021-07-29T09:11:20Z</time>
      </trkpt>
      <trkpt lat="49.00996" lon="6.03824">
        <ele>172.8</ele>
        <time>2021-07-29T09:11:21Z</time>
      </trkpt>
      <trkpt lat="49.00998" lon="6.03813">
        <ele>172.8</ele>
        <time>2021-07-29T09:11:23Z</time>
      </trkpt>
      <trkpt lat="49.01" lon="6.03805">
        <ele>172.9</ele>
        <time>2021-07-29T09:11:24Z</time>
      </trkpt>
      <trkpt lat="49.01003" lon="6.03795">
        <ele>172.9</ele>
        <time>2021-07-29T09:11:26Z</time>
      </trkpt>
      <trkpt lat="49.01006" lon="6.03784">
        <ele>173</ele>
        <time>2021-07-29T09:11:28Z</time>
      </trkpt>
      <trkpt lat="49.01008" lon="6.03773">
        <ele>173.1</ele>
        <time>2021-07-29T09:11:30Z</time>
      </trkpt>
      <trkpt lat="49.0101" lon="6.03761">
        <ele>173.2</ele>
        <time>2021-07-29T09:11:31Z</time>
      </trkpt>
      <trkpt lat="49.01011" lon="6.03749">
        <ele>173.3</ele>
        <time>2021-07-29T09:11:33Z</time>
      </trkpt>
      <trkpt lat="49.01012" lon="6.03742">
        <ele>173.3</ele>
        <time>2021-07-29T09:11:35Z</time>
      </trkpt>
      <trkpt lat="49.01012" lon="6.03735">
        <ele>173.4</ele>
        <time>2021-07-29T09:11:36Z</time>
      </trkpt>
      <trkpt lat="49.01013" lon="6.03727">
        <ele>173.4</ele>
        <time>2021-07-29T09:11:38Z</time>
      </trkpt>
      <trkpt lat="49.01014" lon="6.03721">
        <ele>173.5</ele>
        <time>2021-07-29T09:11:39Z</time>
      </trkpt>
      <trkpt lat="49.01016" lon="6.03715">
        <ele>173.5</ele>
        <time>2021-07-29T09:11:40Z</time>
      </trkpt>
      <trkpt lat="49.01017" lon="6.0371">
        <ele>173.6</ele>
        <time>2021-07-29T09:11:41Z</time>
      </trkpt>
      <trkpt lat="49.01022" lon="6.03702">
        <ele>173.7</ele>
        <time>2021-07-29T09:11:43Z</time>
      </trkpt>
      <trkpt lat="49.01024" lon="6.03698">
        <ele>173.7</ele>
        <time>2021-07-29T09:11:44Z</time>
      </trkpt>
      <trkpt lat="49.01026" lon="6.03693">
        <ele>173.8</ele>
        <time>2021-07-29T09:11:46Z</time>
      </trkpt>
      <trkpt lat="49.01029" lon="6.0369">
        <ele>173.8</ele>
        <time>2021-07-29T09:11:47Z</time>
      </trkpt>
      <trkpt lat="49.01032" lon="6.03687">
        <ele>173.9</ele>
        <time>2021-07-29T09:11:48Z</time>
      </trkpt>
      <trkpt lat="49.01036" lon="6.03683">
        <ele>174</ele>
        <time>2021-07-29T09:11:50Z</time>
      </trkpt>
      <trkpt lat="49.01039" lon="6.03677">
        <ele>174</ele>
        <time>2021-07-29T09:11:52Z</time>
      </trkpt>
      <trkpt lat="49.01041" lon="6.03671">
        <ele>174</ele>
        <time>2021-07-29T09:11:53Z</time>
      </trkpt>
      <trkpt lat="49.01041" lon="6.03665">
        <ele>174</ele>
        <time>2021-07-29T09:11:54Z</time>
      </trkpt>
      <trkpt lat="49.0104" lon="6.03659">
        <ele>173.9</ele>
        <time>2021-07-29T09:11:56Z</time>
      </trkpt>
      <trkpt lat="49.0104" lon="6.03653">
        <ele>173.9</ele>
        <time>2021-07-29T09:11:57Z</time>
      </trkpt>
      <trkpt lat="49.0104" lon="6.03647">
        <ele>173.9</ele>
        <time>2021-07-29T09:11:58Z</time>
      </trkpt>
      <trkpt lat="49.01041" lon="6.03641">
        <ele>173.9</ele>
        <time>2021-07-29T09:11:59Z</time>
      </trkpt>
      <trkpt lat="49.01041" lon="6.03636">
        <ele>173.9</ele>
        <time>2021-07-29T09:12:00Z</time>
      </trkpt>
      <trkpt lat="49.0104" lon="6.03625">
        <ele>173.8</ele>
        <time>2021-07-29T09:12:02Z</time>
      </trkpt>
      <trkpt lat="49.01039" lon="6.0362">
        <ele>173.8</ele>
        <time>2021-07-29T09:12:03Z</time>
      </trkpt>
      <trkpt lat="49.01039" lon="6.03608">
        <ele>173.8</ele>
        <time>2021-07-29T09:12:05Z</time>
      </trkpt>
      <trkpt lat="49.01039" lon="6.03596">
        <ele>173.8</ele>
        <time>2021-07-29T09:12:07Z</time>
      </trkpt>
      <trkpt lat="49.01039" lon="6.03584">
        <ele>173.8</ele>
        <time>2021-07-29T09:12:09Z</time>
      </trkpt>
      <trkpt lat="49.01039" lon="6.03578">
        <ele>173.8</ele>
        <time>2021-07-29T09:12:10Z</time>
      </trkpt>
      <trkpt lat="49.01039" lon="6.03572">
        <ele>173.8</ele>
        <time>2021-07-29T09:12:11Z</time>
      </trkpt>
      <trkpt lat="49.01038" lon="6.03566">
        <ele>173.8</ele>
        <time>2021-07-29T09:12:12Z</time>
      </trkpt>
      <trkpt lat="49.01037" lon="6.0356">
        <ele>173.9</ele>
        <time>2021-07-29T09:12:13Z</time>
      </trkpt>
      <trkpt lat="49.01037" lon="6.03551">
        <ele>173.9</ele>
        <time>2021-07-29T09:12:15Z</time>
      </trkpt>
      <trkpt lat="49.01035" lon="6.0354">
        <ele>174</ele>
        <time>2021-07-29T09:12:17Z</time>
      </trkpt>
      <trkpt lat="49.01032" lon="6.03532">
        <ele>174.1</ele>
        <time>2021-07-29T09:12:19Z</time>
      </trkpt>
      <trkpt lat="49.01027" lon="6.03528">
        <ele>174.1</ele>
        <time>2021-07-29T09:12:20Z</time>
      </trkpt>
      <trkpt lat="49.01023" lon="6.03526">
        <ele>174.1</ele>
        <time>2021-07-29T09:12:21Z</time>
      </trkpt>
      <trkpt lat="49.01017" lon="6.03526">
        <ele>174.2</ele>
        <time>2021-07-29T09:12:23Z</time>
      </trkpt>
      <trkpt lat="49.01011" lon="6.03526">
        <ele>174.3</ele>
        <time>2021-07-29T09:12:24Z</time>
      </trkpt>
      <trkpt lat="49.01006" lon="6.03527">
        <ele>174.4</ele>
        <time>2021-07-29T09:12:26Z</time>
      </trkpt>
      <trkpt lat="49.01002" lon="6.03526">
        <ele>174.4</ele>
        <time>2021-07-29T09:12:27Z</time>
      </trkpt>
      <trkpt lat="49.00998" lon="6.03525">
        <ele>174.4</ele>
        <time>2021-07-29T09:12:28Z</time>
      </trkpt>
      <trkpt lat="49.00994" lon="6.03525">
        <ele>174.4</ele>
        <time>2021-07-29T09:12:29Z</time>
      </trkpt>
      <trkpt lat="49.00988" lon="6.03523">
        <ele>174.5</ele>
        <time>2021-07-29T09:12:31Z</time>
      </trkpt>
      <trkpt lat="49.00985" lon="6.03522">
        <ele>174.5</ele>
        <time>2021-07-29T09:12:32Z</time>
      </trkpt>
      <trkpt lat="49.00981" lon="6.03521">
        <ele>174.5</ele>
        <time>2021-07-29T09:12:33Z</time>
      </trkpt>
      <trkpt lat="49.00976" lon="6.03517">
        <ele>174.5</ele>
        <time>2021-07-29T09:12:35Z</time>
      </trkpt>
      <trkpt lat="49.00974" lon="6.03513">
        <ele>174.5</ele>
        <time>2021-07-29T09:12:36Z</time>
      </trkpt>
      <trkpt lat="49.00972" lon="6.03509">
        <ele>174.5</ele>
        <time>2021-07-29T09:12:37Z</time>
      </trkpt>
      <trkpt lat="49.00971" lon="6.03502">
        <ele>174.5</ele>
        <time>2021-07-29T09:12:39Z</time>
      </trkpt>
      <trkpt lat="49.0097" lon="6.03495">
        <ele>174.5</ele>
        <time>2021-07-29T09:12:41Z</time>
      </trkpt>
      <trkpt lat="49.0097" lon="6.03491">
        <ele>174.5</ele>
        <time>2021-07-29T09:12:42Z</time>
      </trkpt>
      <trkpt lat="49.00969" lon="6.03488">
        <ele>174.5</ele>
        <time>2021-07-29T09:12:44Z</time>
      </trkpt>
      <trkpt lat="49.00969" lon="6.03491">
        <ele>174.5</ele>
        <time>2021-07-29T09:12:46Z</time>
      </trkpt>
      <trkpt lat="49.00969" lon="6.03494">
        <ele>174.5</ele>
        <time>2021-07-29T09:12:47Z</time>
      </trkpt>
      <trkpt lat="49.00969" lon="6.03497">
        <ele>174.5</ele>
        <time>2021-07-29T09:12:48Z</time>
      </trkpt>
      <trkpt lat="49.00969" lon="6.035">
        <ele>174.5</ele>
        <time>2021-07-29T09:12:50Z</time>
      </trkpt>
      <trkpt lat="49.00969" lon="6.03503">
        <ele>174.5</ele>
        <time>2021-07-29T09:12:51Z</time>
      </trkpt>
      <trkpt lat="49.00969" lon="6.03505">
        <ele>174.5</ele>
        <time>2021-07-29T09:12:53Z</time>
      </trkpt>
      <trkpt lat="49.00969" lon="6.03508">
        <ele>174.5</ele>
        <time>2021-07-29T09:12:54Z</time>
      </trkpt>
      <trkpt lat="49.00969" lon="6.03511">
        <ele>174.6</ele>
        <time>2021-07-29T09:12:56Z</time>
      </trkpt>
      <trkpt lat="49.00969" lon="6.03514">
        <ele>174.6</ele>
        <time>2021-07-29T09:13:37Z</time>
      </trkpt>
      <trkpt lat="49.00969" lon="6.03517">
        <ele>174.6</ele>
        <time>2021-07-29T09:13:38Z</time>
      </trkpt>
      <trkpt lat="49.00968" lon="6.03519">
        <ele>174.6</ele>
        <time>2021-07-29T09:13:39Z</time>
      </trkpt>
      <trkpt lat="49.00967" lon="6.03522">
        <ele>174.6</ele>
        <time>2021-07-29T09:13:40Z</time>
      </trkpt>
      <trkpt lat="49.00967" lon="6.03523">
        <ele>174.6</ele>
        <time>2021-07-29T09:13:41Z</time>
      </trkpt>
      <trkpt lat="49.00966" lon="6.03524">
        <ele>174.6</ele>
        <time>2021-07-29T09:13:42Z</time>
      </trkpt>
      <trkpt lat="49.00964" lon="6.03527">
        <ele>174.6</ele>
        <time>2021-07-29T09:13:43Z</time>
      </trkpt>
      <trkpt lat="49.00962" lon="6.0353">
        <ele>174.6</ele>
        <time>2021-07-29T09:13:45Z</time>
      </trkpt>
      <trkpt lat="49.00959" lon="6.03535">
        <ele>174.6</ele>
        <time>2021-07-29T09:13:47Z</time>
      </trkpt>
      <trkpt lat="49.00956" lon="6.03537">
        <ele>174.6</ele>
        <time>2021-07-29T09:13:48Z</time>
      </trkpt>
      <trkpt lat="49.00955" lon="6.03538">
        <ele>174.6</ele>
        <time>2021-07-29T09:13:49Z</time>
      </trkpt>
      <trkpt lat="49.00953" lon="6.03537">
        <ele>174.6</ele>
        <time>2021-07-29T09:13:51Z</time>
      </trkpt>
      <trkpt lat="49.00952" lon="6.03537">
        <ele>174.6</ele>
        <time>2021-07-29T09:13:53Z</time>
      </trkpt>
      <trkpt lat="49.00951" lon="6.03537">
        <ele>174.7</ele>
        <time>2021-07-29T09:13:54Z</time>
      </trkpt>
      <trkpt lat="49.00948" lon="6.03536">
        <ele>174.7</ele>
        <time>2021-07-29T09:13:55Z</time>
      </trkpt>
      <trkpt lat="49.00944" lon="6.03536">
        <ele>174.7</ele>
        <time>2021-07-29T09:13:57Z</time>
      </trkpt>
      <trkpt lat="49.00942" lon="6.03537">
        <ele>174.7</ele>
        <time>2021-07-29T09:13:59Z</time>
      </trkpt>
      <trkpt lat="49.00941" lon="6.03538">
        <ele>174.7</ele>
        <time>2021-07-29T09:14:00Z</time>
      </trkpt>
      <trkpt lat="49.00936" lon="6.03539">
        <ele>174.8</ele>
        <time>2021-07-29T09:14:02Z</time>
      </trkpt>
      <trkpt lat="49.00933" lon="6.0354">
        <ele>174.8</ele>
        <time>2021-07-29T09:14:04Z</time>
      </trkpt>
      <trkpt lat="49.00927" lon="6.03542">
        <ele>174.8</ele>
        <time>2021-07-29T09:14:06Z</time>
      </trkpt>
      <trkpt lat="49.00921" lon="6.03545">
        <ele>174.9</ele>
        <time>2021-07-29T09:14:08Z</time>
      </trkpt>
      <trkpt lat="49.00918" lon="6.03547">
        <ele>174.9</ele>
        <time>2021-07-29T09:14:10Z</time>
      </trkpt>
      <trkpt lat="49.00915" lon="6.0355">
        <ele>174.9</ele>
        <time>2021-07-29T09:14:12Z</time>
      </trkpt>
      <trkpt lat="49.00915" lon="6.0355">
        <ele>174.9</ele>
        <time>2021-07-29T09:14:13Z</time>
      </trkpt>
      <trkpt lat="49.00912" lon="6.03553">
        <ele>174.9</ele>
        <time>2021-07-29T09:14:14Z</time>
      </trkpt>
      <trkpt lat="49.00908" lon="6.03556">
        <ele>175</ele>
        <time>2021-07-29T09:14:15Z</time>
      </trkpt>
      <trkpt lat="49.00906" lon="6.03558">
        <ele>175</ele>
        <time>2021-07-29T09:14:16Z</time>
      </trkpt>
      <trkpt lat="49.00902" lon="6.0356">
        <ele>175</ele>
        <time>2021-07-29T09:14:18Z</time>
      </trkpt>
      <trkpt lat="49.00898" lon="6.03564">
        <ele>175</ele>
        <time>2021-07-29T09:14:19Z</time>
      </trkpt>
      <trkpt lat="49.00895" lon="6.03568">
        <ele>175.1</ele>
        <time>2021-07-29T09:14:21Z</time>
      </trkpt>
      <trkpt lat="49.00891" lon="6.03573">
        <ele>175.1</ele>
        <time>2021-07-29T09:14:22Z</time>
      </trkpt>
      <trkpt lat="49.00886" lon="6.03578">
        <ele>175.1</ele>
        <time>2021-07-29T09:14:24Z</time>
      </trkpt>
      <trkpt lat="49.00882" lon="6.03584">
        <ele>175.2</ele>
        <time>2021-07-29T09:14:26Z</time>
      </trkpt>
      <trkpt lat="49.00878" lon="6.0359">
        <ele>175.2</ele>
        <time>2021-07-29T09:14:27Z</time>
      </trkpt>
      <trkpt lat="49.00875" lon="6.03596">
        <ele>175.2</ele>
        <time>2021-07-29T09:14:28Z</time>
      </trkpt>
      <trkpt lat="49.00873" lon="6.03603">
        <ele>175.2</ele>
        <time>2021-07-29T09:14:30Z</time>
      </trkpt>
      <trkpt lat="49.00871" lon="6.03607">
        <ele>175.2</ele>
        <time>2021-07-29T09:14:31Z</time>
      </trkpt>
      <trkpt lat="49.00867" lon="6.03616">
        <ele>175.2</ele>
        <time>2021-07-29T09:14:33Z</time>
      </trkpt>
      <trkpt lat="49.00865" lon="6.03622">
        <ele>175.2</ele>
        <time>2021-07-29T09:14:34Z</time>
      </trkpt>
      <trkpt lat="49.00867" lon="6.0363">
        <ele>175.2</ele>
        <time>2021-07-29T09:14:36Z</time>
      </trkpt>
      <trkpt lat="49.00868" lon="6.03634">
        <ele>175.2</ele>
        <time>2021-07-29T09:14:37Z</time>
      </trkpt>
      <trkpt lat="49.00871" lon="6.03642">
        <ele>175.2</ele>
        <time>2021-07-29T09:14:38Z</time>
      </trkpt>
      <trkpt lat="49.00873" lon="6.03648">
        <ele>175.2</ele>
        <time>2021-07-29T09:14:40Z</time>
      </trkpt>
      <trkpt lat="49.00875" lon="6.03652">
        <ele>175.2</ele>
        <time>2021-07-29T09:14:41Z</time>
      </trkpt>
      <trkpt lat="49.00876" lon="6.03657">
        <ele>175</ele>
        <time>2021-07-29T09:14:42Z</time>
      </trkpt>
      <trkpt lat="49.00878" lon="6.03666">
        <ele>174.7</ele>
        <time>2021-07-29T09:14:43Z</time>
      </trkpt>
      <trkpt lat="49.00874" lon="6.03683">
        <ele>174.2</ele>
        <time>2021-07-29T09:14:45Z</time>
      </trkpt>
      <trkpt lat="49.00867" lon="6.03701">
        <ele>173.7</ele>
        <time>2021-07-29T09:14:47Z</time>
      </trkpt>
      <trkpt lat="49.00861" lon="6.03716">
        <ele>173.4</ele>
        <time>2021-07-29T09:14:49Z</time>
      </trkpt>
      <trkpt lat="49.00859" lon="6.03723">
        <ele>173.4</ele>
        <time>2021-07-29T09:14:50Z</time>
      </trkpt>
      <trkpt lat="49.00854" lon="6.03738">
        <ele>173.3</ele>
        <time>2021-07-29T09:14:52Z</time>
      </trkpt>
      <trkpt lat="49.00847" lon="6.03751">
        <ele>173.2</ele>
        <time>2021-07-29T09:14:54Z</time>
      </trkpt>
      <trkpt lat="49.00839" lon="6.03763">
        <ele>173.2</ele>
        <time>2021-07-29T09:14:56Z</time>
      </trkpt>
      <trkpt lat="49.00835" lon="6.03767">
        <ele>173.2</ele>
        <time>2021-07-29T09:14:57Z</time>
      </trkpt>
      <trkpt lat="49.00832" lon="6.03769">
        <ele>173.3</ele>
        <time>2021-07-29T09:14:58Z</time>
      </trkpt>
      <trkpt lat="49.00828" lon="6.03772">
        <ele>173.3</ele>
        <time>2021-07-29T09:14:59Z</time>
      </trkpt>
      <trkpt lat="49.00823" lon="6.03777">
        <ele>173.4</ele>
        <time>2021-07-29T09:15:01Z</time>
      </trkpt>
      <trkpt lat="49.00821" lon="6.03781">
        <ele>173.5</ele>
        <time>2021-07-29T09:15:02Z</time>
      </trkpt>
      <trkpt lat="49.0082" lon="6.03792">
        <ele>173.9</ele>
        <time>2021-07-29T09:15:04Z</time>
      </trkpt>
      <trkpt lat="49.00821" lon="6.03799">
        <ele>173.7</ele>
        <time>2021-07-29T09:15:05Z</time>
      </trkpt>
      <trkpt lat="49.00823" lon="6.03804">
        <ele>173.6</ele>
        <time>2021-07-29T09:15:06Z</time>
      </trkpt>
      <trkpt lat="49.00831" lon="6.03825">
        <ele>173</ele>
        <time>2021-07-29T09:15:08Z</time>
      </trkpt>
      <trkpt lat="49.00834" lon="6.03833">
        <ele>172.8</ele>
        <time>2021-07-29T09:15:09Z</time>
      </trkpt>
      <trkpt lat="49.00841" lon="6.03849">
        <ele>172.3</ele>
        <time>2021-07-29T09:15:11Z</time>
      </trkpt>
      <trkpt lat="49.00844" lon="6.03856">
        <ele>172.1</ele>
        <time>2021-07-29T09:15:12Z</time>
      </trkpt>
      <trkpt lat="49.00849" lon="6.03874">
        <ele>171.7</ele>
        <time>2021-07-29T09:15:14Z</time>
      </trkpt>
      <trkpt lat="49.00852" lon="6.0389">
        <ele>171.5</ele>
        <time>2021-07-29T09:15:16Z</time>
      </trkpt>
      <trkpt lat="49.00854" lon="6.039">
        <ele>171.4</ele>
        <time>2021-07-29T09:15:17Z</time>
      </trkpt>
      <trkpt lat="49.00856" lon="6.0392">
        <ele>171.2</ele>
        <time>2021-07-29T09:15:19Z</time>
      </trkpt>
      <trkpt lat="49.00857" lon="6.03932">
        <ele>171.2</ele>
        <time>2021-07-29T09:15:20Z</time>
      </trkpt>
      <trkpt lat="49.00855" lon="6.03955">
        <ele>171.3</ele>
        <time>2021-07-29T09:15:22Z</time>
      </trkpt>
      <trkpt lat="49.00853" lon="6.03965">
        <ele>171.4</ele>
        <time>2021-07-29T09:15:23Z</time>
      </trkpt>
      <trkpt lat="49.0085" lon="6.03973">
        <ele>171.5</ele>
        <time>2021-07-29T09:15:24Z</time>
      </trkpt>
      <trkpt lat="49.00842" lon="6.03983">
        <ele>171.7</ele>
        <time>2021-07-29T09:15:26Z</time>
      </trkpt>
      <trkpt lat="49.00839" lon="6.03981">
        <ele>171.8</ele>
        <time>2021-07-29T09:15:27Z</time>
      </trkpt>
      <trkpt lat="49.0083" lon="6.03975">
        <ele>171.9</ele>
        <time>2021-07-29T09:15:29Z</time>
      </trkpt>
      <trkpt lat="49.00824" lon="6.03972">
        <ele>172</ele>
        <time>2021-07-29T09:15:30Z</time>
      </trkpt>
      <trkpt lat="49.00811" lon="6.03965">
        <ele>172.2</ele>
        <time>2021-07-29T09:15:32Z</time>
      </trkpt>
      <trkpt lat="49.00803" lon="6.03963">
        <ele>172.3</ele>
        <time>2021-07-29T09:15:33Z</time>
      </trkpt>
      <trkpt lat="49.00795" lon="6.03964">
        <ele>172.4</ele>
        <time>2021-07-29T09:15:35Z</time>
      </trkpt>
      <trkpt lat="49.0079" lon="6.03959">
        <ele>172.4</ele>
        <time>2021-07-29T09:15:36Z</time>
      </trkpt>
      <trkpt lat="49.00785" lon="6.03959">
        <ele>172.5</ele>
        <time>2021-07-29T09:15:37Z</time>
      </trkpt>
      <trkpt lat="49.0078" lon="6.0396">
        <ele>172.5</ele>
        <time>2021-07-29T09:15:38Z</time>
      </trkpt>
      <trkpt lat="49.00772" lon="6.03962">
        <ele>172.6</ele>
        <time>2021-07-29T09:15:40Z</time>
      </trkpt>
      <trkpt lat="49.00762" lon="6.03965">
        <ele>172.6</ele>
        <time>2021-07-29T09:15:42Z</time>
      </trkpt>
      <trkpt lat="49.00757" lon="6.03966">
        <ele>172.7</ele>
        <time>2021-07-29T09:15:43Z</time>
      </trkpt>
      <trkpt lat="49.00752" lon="6.03967">
        <ele>172.7</ele>
        <time>2021-07-29T09:15:44Z</time>
      </trkpt>
      <trkpt lat="49.00743" lon="6.03972">
        <ele>172.8</ele>
        <time>2021-07-29T09:15:46Z</time>
      </trkpt>
      <trkpt lat="49.00738" lon="6.03975">
        <ele>172.8</ele>
        <time>2021-07-29T09:15:47Z</time>
      </trkpt>
      <trkpt lat="49.00734" lon="6.03978">
        <ele>172.9</ele>
        <time>2021-07-29T09:15:48Z</time>
      </trkpt>
      <trkpt lat="49.00728" lon="6.03982">
        <ele>173.1</ele>
        <time>2021-07-29T09:15:50Z</time>
      </trkpt>
      <trkpt lat="49.00721" lon="6.03984">
        <ele>173.3</ele>
        <time>2021-07-29T09:15:51Z</time>
      </trkpt>
      <trkpt lat="49.00715" lon="6.03987">
        <ele>173.5</ele>
        <time>2021-07-29T09:15:53Z</time>
      </trkpt>
      <trkpt lat="49.00712" lon="6.0399">
        <ele>173.7</ele>
        <time>2021-07-29T09:15:54Z</time>
      </trkpt>
      <trkpt lat="49.00709" lon="6.03993">
        <ele>173.8</ele>
        <time>2021-07-29T09:15:55Z</time>
      </trkpt>
      <trkpt lat="49.00705" lon="6.04">
        <ele>174.1</ele>
        <time>2021-07-29T09:15:57Z</time>
      </trkpt>
      <trkpt lat="49.00701" lon="6.04008">
        <ele>174.3</ele>
        <time>2021-07-29T09:15:58Z</time>
      </trkpt>
      <trkpt lat="49.007" lon="6.04014">
        <ele>174.5</ele>
        <time>2021-07-29T09:16:00Z</time>
      </trkpt>
      <trkpt lat="49.00699" lon="6.04019">
        <ele>174.6</ele>
        <time>2021-07-29T09:16:01Z</time>
      </trkpt>
      <trkpt lat="49.00698" lon="6.04025">
        <ele>174.7</ele>
        <time>2021-07-29T09:16:02Z</time>
      </trkpt>
      <trkpt lat="49.00697" lon="6.04033">
        <ele>175</ele>
        <time>2021-07-29T09:16:04Z</time>
      </trkpt>
      <trkpt lat="49.00696" lon="6.04038">
        <ele>175.1</ele>
        <time>2021-07-29T09:16:05Z</time>
      </trkpt>
      <trkpt lat="49.00696" lon="6.04043">
        <ele>175.3</ele>
        <time>2021-07-29T09:16:06Z</time>
      </trkpt>
      <trkpt lat="49.00696" lon="6.0405">
        <ele>175.5</ele>
        <time>2021-07-29T09:16:07Z</time>
      </trkpt>
      <trkpt lat="49.00697" lon="6.04056">
        <ele>175.7</ele>
        <time>2021-07-29T09:16:09Z</time>
      </trkpt>
      <trkpt lat="49.00697" lon="6.04062">
        <ele>175.9</ele>
        <time>2021-07-29T09:16:10Z</time>
      </trkpt>
      <trkpt lat="49.00697" lon="6.0407">
        <ele>176.3</ele>
        <time>2021-07-29T09:16:12Z</time>
      </trkpt>
      <trkpt lat="49.00698" lon="6.04078">
        <ele>176.6</ele>
        <time>2021-07-29T09:16:13Z</time>
      </trkpt>
      <trkpt lat="49.00699" lon="6.04084">
        <ele>176.8</ele>
        <time>2021-07-29T09:16:15Z</time>
      </trkpt>
      <trkpt lat="49.00699" lon="6.04088">
        <ele>177</ele>
        <time>2021-07-29T09:16:16Z</time>
      </trkpt>
      <trkpt lat="49.00698" lon="6.04094">
        <ele>177.2</ele>
        <time>2021-07-29T09:16:18Z</time>
      </trkpt>
      <trkpt lat="49.00698" lon="6.04101">
        <ele>177.3</ele>
        <time>2021-07-29T09:16:20Z</time>
      </trkpt>
      <trkpt lat="49.00699" lon="6.04106">
        <ele>177.4</ele>
        <time>2021-07-29T09:16:21Z</time>
      </trkpt>
      <trkpt lat="49.00699" lon="6.04108">
        <ele>177.4</ele>
        <time>2021-07-29T09:16:22Z</time>
      </trkpt>
      <trkpt lat="49.00697" lon="6.04112">
        <ele>177.4</ele>
        <time>2021-07-29T09:16:23Z</time>
      </trkpt>
      <trkpt lat="49.00697" lon="6.04116">
        <ele>177.5</ele>
        <time>2021-07-29T09:16:24Z</time>
      </trkpt>
      <trkpt lat="49.00698" lon="6.04118">
        <ele>177.5</ele>
        <time>2021-07-29T09:16:26Z</time>
      </trkpt>
      <trkpt lat="49.00698" lon="6.04118">
        <ele>177.5</ele>
        <time>2021-07-29T09:16:27Z</time>
      </trkpt>
      <trkpt lat="49.00697" lon="6.04119">
        <ele>177.5</ele>
        <time>2021-07-29T09:16:28Z</time>
      </trkpt>
      <trkpt lat="49.00696" lon="6.04118">
        <ele>177.5</ele>
        <time>2021-07-29T09:16:30Z</time>
      </trkpt>
      <trkpt lat="49.00696" lon="6.04117">
        <ele>177.5</ele>
        <time>2021-07-29T09:16:31Z</time>
      </trkpt>
      <trkpt lat="49.00696" lon="6.04116">
        <ele>177.5</ele>
        <time>2021-07-29T09:16:32Z</time>
      </trkpt>
      <trkpt lat="49.00696" lon="6.04116">
        <ele>177.5</ele>
        <time>2021-07-29T09:16:33Z</time>
      </trkpt>
      <trkpt lat="49.00696" lon="6.04116">
        <ele>177.5</ele>
        <time>2021-07-29T09:16:35Z</time>
      </trkpt>
      <trkpt lat="49.00696" lon="6.04117">
        <ele>177.5</ele>
        <time>2021-07-29T09:16:37Z</time>
      </trkpt>
      <trkpt lat="49.00699" lon="6.04134">
        <ele>177.6</ele>
        <time>2021-07-29T09:18:20Z</time>
      </trkpt>
      <trkpt lat="49.007" lon="6.04137">
        <ele>177.6</ele>
        <time>2021-07-29T09:18:21Z</time>
      </trkpt>
      <trkpt lat="49.00702" lon="6.04147">
        <ele>177.7</ele>
        <time>2021-07-29T09:18:23Z</time>
      </trkpt>
      <trkpt lat="49.00704" lon="6.04155">
        <ele>177.7</ele>
        <time>2021-07-29T09:18:25Z</time>
      </trkpt>
      <trkpt lat="49.00705" lon="6.04157">
        <ele>177.7</ele>
        <time>2021-07-29T09:18:26Z</time>
      </trkpt>
      <trkpt lat="49.00704" lon="6.04161">
        <ele>177.6</ele>
        <time>2021-07-29T09:18:28Z</time>
      </trkpt>
      <trkpt lat="49.00704" lon="6.0416">
        <ele>177.6</ele>
        <time>2021-07-29T09:18:29Z</time>
      </trkpt>
      <trkpt lat="49.00704" lon="6.04159">
        <ele>177.6</ele>
        <time>2021-07-29T09:18:30Z</time>
      </trkpt>
      <trkpt lat="49.00705" lon="6.04155">
        <ele>177.6</ele>
        <time>2021-07-29T09:18:32Z</time>
      </trkpt>
      <trkpt lat="49.00704" lon="6.04152">
        <ele>177.5</ele>
        <time>2021-07-29T09:18:33Z</time>
      </trkpt>
      <trkpt lat="49.00703" lon="6.04147">
        <ele>177.5</ele>
        <time>2021-07-29T09:18:35Z</time>
      </trkpt>
      <trkpt lat="49.00699" lon="6.04145">
        <ele>177.4</ele>
        <time>2021-07-29T09:18:37Z</time>
      </trkpt>
      <trkpt lat="49.00698" lon="6.04145">
        <ele>177.4</ele>
        <time>2021-07-29T09:18:39Z</time>
      </trkpt>
      <trkpt lat="49.00698" lon="6.04145">
        <ele>177.4</ele>
        <time>2021-07-29T09:18:40Z</time>
      </trkpt>
      <trkpt lat="49.00698" lon="6.04145">
        <ele>177.4</ele>
        <time>2021-07-29T09:18:42Z</time>
      </trkpt>
      <trkpt lat="49.00697" lon="6.04145">
        <ele>177.4</ele>
        <time>2021-07-29T09:18:43Z</time>
      </trkpt>
      <trkpt lat="49.00697" lon="6.04145">
        <ele>177.4</ele>
        <time>2021-07-29T09:18:44Z</time>
      </trkpt>
      <trkpt lat="49.00697" lon="6.04147">
        <ele>177.4</ele>
        <time>2021-07-29T09:18:45Z</time>
      </trkpt>
      <trkpt lat="49.00698" lon="6.04162">
        <ele>177.2</ele>
        <time>2021-07-29T09:18:52Z</time>
      </trkpt>
      <trkpt lat="49.007" lon="6.04166">
        <ele>177.1</ele>
        <time>2021-07-29T09:18:53Z</time>
      </trkpt>
      <trkpt lat="49.00701" lon="6.04173">
        <ele>177</ele>
        <time>2021-07-29T09:18:55Z</time>
      </trkpt>
      <trkpt lat="49.00704" lon="6.0418">
        <ele>176.9</ele>
        <time>2021-07-29T09:18:57Z</time>
      </trkpt>
      <trkpt lat="49.00705" lon="6.04185">
        <ele>176.9</ele>
        <time>2021-07-29T09:18:58Z</time>
      </trkpt>
      <trkpt lat="49.00706" lon="6.04189">
        <ele>176.8</ele>
        <time>2021-07-29T09:18:59Z</time>
      </trkpt>
      <trkpt lat="49.00709" lon="6.04199">
        <ele>176.7</ele>
        <time>2021-07-29T09:19:01Z</time>
      </trkpt>
      <trkpt lat="49.0071" lon="6.04204">
        <ele>176.6</ele>
        <time>2021-07-29T09:19:02Z</time>
      </trkpt>
      <trkpt lat="49.00713" lon="6.04215">
        <ele>176.4</ele>
        <time>2021-07-29T09:19:04Z</time>
      </trkpt>
      <trkpt lat="49.00714" lon="6.04221">
        <ele>176.3</ele>
        <time>2021-07-29T09:19:05Z</time>
      </trkpt>
      <trkpt lat="49.00716" lon="6.04228">
        <ele>176.2</ele>
        <time>2021-07-29T09:19:06Z</time>
      </trkpt>
      <trkpt lat="49.00724" lon="6.04247">
        <ele>175.7</ele>
        <time>2021-07-29T09:19:08Z</time>
      </trkpt>
      <trkpt lat="49.00731" lon="6.04262">
        <ele>175.3</ele>
        <time>2021-07-29T09:19:10Z</time>
      </trkpt>
      <trkpt lat="49.00735" lon="6.04269">
        <ele>175.1</ele>
        <time>2021-07-29T09:19:11Z</time>
      </trkpt>
      <trkpt lat="49.00738" lon="6.04275">
        <ele>174.9</ele>
        <time>2021-07-29T09:19:12Z</time>
      </trkpt>
      <trkpt lat="49.00742" lon="6.04282">
        <ele>174.7</ele>
        <time>2021-07-29T09:19:13Z</time>
      </trkpt>
      <trkpt lat="49.00746" lon="6.04289">
        <ele>174.5</ele>
        <time>2021-07-29T09:19:14Z</time>
      </trkpt>
      <trkpt lat="49.00754" lon="6.04304">
        <ele>174.2</ele>
        <time>2021-07-29T09:19:16Z</time>
      </trkpt>
      <trkpt lat="49.00759" lon="6.0431">
        <ele>174</ele>
        <time>2021-07-29T09:19:17Z</time>
      </trkpt>
      <trkpt lat="49.0077" lon="6.04324">
        <ele>173.6</ele>
        <time>2021-07-29T09:19:19Z</time>
      </trkpt>
      <trkpt lat="49.00774" lon="6.04331">
        <ele>173.4</ele>
        <time>2021-07-29T09:19:20Z</time>
      </trkpt>
      <trkpt lat="49.00782" lon="6.04346">
        <ele>173.1</ele>
        <time>2021-07-29T09:19:22Z</time>
      </trkpt>
      <trkpt lat="49.00791" lon="6.04362">
        <ele>172.8</ele>
        <time>2021-07-29T09:19:24Z</time>
      </trkpt>
      <trkpt lat="49.00799" lon="6.04371">
        <ele>172.6</ele>
        <time>2021-07-29T09:19:26Z</time>
      </trkpt>
      <trkpt lat="49.00805" lon="6.04379">
        <ele>172.4</ele>
        <time>2021-07-29T09:19:28Z</time>
      </trkpt>
      <trkpt lat="49.00812" lon="6.04382">
        <ele>172.3</ele>
        <time>2021-07-29T09:19:30Z</time>
      </trkpt>
      <trkpt lat="49.00812" lon="6.04386">
        <ele>172.3</ele>
        <time>2021-07-29T09:19:31Z</time>
      </trkpt>
      <trkpt lat="49.00815" lon="6.04383">
        <ele>172.2</ele>
        <time>2021-07-29T09:19:33Z</time>
      </trkpt>
      <trkpt lat="49.00815" lon="6.04382">
        <ele>172.2</ele>
        <time>2021-07-29T09:19:34Z</time>
      </trkpt>
      <trkpt lat="49.00816" lon="6.04381">
        <ele>172.2</ele>
        <time>2021-07-29T09:19:35Z</time>
      </trkpt>
      <trkpt lat="49.00817" lon="6.0438">
        <ele>172.2</ele>
        <time>2021-07-29T09:19:36Z</time>
      </trkpt>
      <trkpt lat="49.00811" lon="6.04382">
        <ele>172</ele>
        <time>2021-07-29T09:19:38Z</time>
      </trkpt>
      <trkpt lat="49.00805" lon="6.04384">
        <ele>171.9</ele>
        <time>2021-07-29T09:19:39Z</time>
      </trkpt>
      <trkpt lat="49.00799" lon="6.04386">
        <ele>171.8</ele>
        <time>2021-07-29T09:19:41Z</time>
      </trkpt>
      <trkpt lat="49.00794" lon="6.04388">
        <ele>171.7</ele>
        <time>2021-07-29T09:19:42Z</time>
      </trkpt>
      <trkpt lat="49.00789" lon="6.04391">
        <ele>171.7</ele>
        <time>2021-07-29T09:19:44Z</time>
      </trkpt>
      <trkpt lat="49.00785" lon="6.04395">
        <ele>171.7</ele>
        <time>2021-07-29T09:19:46Z</time>
      </trkpt>
      <trkpt lat="49.00782" lon="6.04399">
        <ele>171.6</ele>
        <time>2021-07-29T09:19:47Z</time>
      </trkpt>
      <trkpt lat="49.0078" lon="6.044">
        <ele>171.6</ele>
        <time>2021-07-29T09:19:48Z</time>
      </trkpt>
      <trkpt lat="49.00777" lon="6.04401">
        <ele>171.6</ele>
        <time>2021-07-29T09:19:50Z</time>
      </trkpt>
      <trkpt lat="49.00774" lon="6.04402">
        <ele>171.6</ele>
        <time>2021-07-29T09:19:51Z</time>
      </trkpt>
      <trkpt lat="49.0077" lon="6.04403">
        <ele>171.5</ele>
        <time>2021-07-29T09:19:52Z</time>
      </trkpt>
      <trkpt lat="49.00766" lon="6.04405">
        <ele>171.5</ele>
        <time>2021-07-29T09:19:54Z</time>
      </trkpt>
      <trkpt lat="49.00762" lon="6.04406">
        <ele>171.5</ele>
        <time>2021-07-29T09:19:55Z</time>
      </trkpt>
      <trkpt lat="49.00757" lon="6.04407">
        <ele>171.5</ele>
        <time>2021-07-29T09:19:56Z</time>
      </trkpt>
      <trkpt lat="49.00753" lon="6.04408">
        <ele>171.5</ele>
        <time>2021-07-29T09:19:57Z</time>
      </trkpt>
      <trkpt lat="49.00746" lon="6.04408">
        <ele>171.4</ele>
        <time>2021-07-29T09:19:58Z</time>
      </trkpt>
      <trkpt lat="49.00741" lon="6.04407">
        <ele>171.4</ele>
        <time>2021-07-29T09:19:59Z</time>
      </trkpt>
      <trkpt lat="49.00734" lon="6.04405">
        <ele>171.4</ele>
        <time>2021-07-29T09:20:01Z</time>
      </trkpt>
      <trkpt lat="49.00729" lon="6.04403">
        <ele>171.4</ele>
        <time>2021-07-29T09:20:02Z</time>
      </trkpt>
      <trkpt lat="49.0072" lon="6.04399">
        <ele>171.5</ele>
        <time>2021-07-29T09:20:04Z</time>
      </trkpt>
      <trkpt lat="49.00713" lon="6.04395">
        <ele>171.5</ele>
        <time>2021-07-29T09:20:05Z</time>
      </trkpt>
      <trkpt lat="49.00708" lon="6.04393">
        <ele>171.6</ele>
        <time>2021-07-29T09:20:06Z</time>
      </trkpt>
      <trkpt lat="49.00704" lon="6.04392">
        <ele>171.6</ele>
        <time>2021-07-29T09:20:08Z</time>
      </trkpt>
      <trkpt lat="49.00699" lon="6.04393">
        <ele>171.6</ele>
        <time>2021-07-29T09:20:09Z</time>
      </trkpt>
      <trkpt lat="49.00695" lon="6.04393">
        <ele>171.7</ele>
        <time>2021-07-29T09:20:11Z</time>
      </trkpt>
      <trkpt lat="49.00692" lon="6.04393">
        <ele>171.7</ele>
        <time>2021-07-29T09:20:12Z</time>
      </trkpt>
      <trkpt lat="49.00689" lon="6.04393">
        <ele>171.7</ele>
        <time>2021-07-29T09:20:13Z</time>
      </trkpt>
      <trkpt lat="49.00685" lon="6.04393">
        <ele>171.7</ele>
        <time>2021-07-29T09:20:14Z</time>
      </trkpt>
      <trkpt lat="49.00681" lon="6.04397">
        <ele>171.7</ele>
        <time>2021-07-29T09:20:15Z</time>
      </trkpt>
      <trkpt lat="49.00676" lon="6.04401">
        <ele>171.8</ele>
        <time>2021-07-29T09:20:17Z</time>
      </trkpt>
      <trkpt lat="49.00671" lon="6.04403">
        <ele>171.7</ele>
        <time>2021-07-29T09:20:18Z</time>
      </trkpt>
      <trkpt lat="49.00666" lon="6.04405">
        <ele>171.7</ele>
        <time>2021-07-29T09:20:19Z</time>
      </trkpt>
      <trkpt lat="49.00658" lon="6.04406">
        <ele>171.6</ele>
        <time>2021-07-29T09:20:21Z</time>
      </trkpt>
      <trkpt lat="49.00645" lon="6.04406">
        <ele>171.4</ele>
        <time>2021-07-29T09:20:22Z</time>
      </trkpt>
      <trkpt lat="49.00637" lon="6.04407">
        <ele>171.2</ele>
        <time>2021-07-29T09:20:23Z</time>
      </trkpt>
      <trkpt lat="49.00629" lon="6.04408">
        <ele>171.1</ele>
        <time>2021-07-29T09:20:24Z</time>
      </trkpt>
      <trkpt lat="49.00615" lon="6.04409">
        <ele>171.2</ele>
        <time>2021-07-29T09:20:26Z</time>
      </trkpt>
      <trkpt lat="49.00601" lon="6.04407">
        <ele>171.4</ele>
        <time>2021-07-29T09:20:28Z</time>
      </trkpt>
      <trkpt lat="49.00591" lon="6.04405">
        <ele>171.6</ele>
        <time>2021-07-29T09:20:30Z</time>
      </trkpt>
      <trkpt lat="49.00582" lon="6.04405">
        <ele>171.7</ele>
        <time>2021-07-29T09:20:32Z</time>
      </trkpt>
      <trkpt lat="49.00573" lon="6.04408">
        <ele>171.8</ele>
        <time>2021-07-29T09:20:34Z</time>
      </trkpt>
      <trkpt lat="49.00566" lon="6.04407">
        <ele>171.8</ele>
        <time>2021-07-29T09:20:35Z</time>
      </trkpt>
      <trkpt lat="49.00564" lon="6.04402">
        <ele>171.8</ele>
        <time>2021-07-29T09:20:37Z</time>
      </trkpt>
      <trkpt lat="49.00557" lon="6.04409">
        <ele>171.8</ele>
        <time>2021-07-29T09:20:39Z</time>
      </trkpt>
      <trkpt lat="49.00553" lon="6.04412">
        <ele>171.9</ele>
        <time>2021-07-29T09:20:40Z</time>
      </trkpt>
      <trkpt lat="49.00545" lon="6.04416">
        <ele>171.9</ele>
        <time>2021-07-29T09:20:42Z</time>
      </trkpt>
      <trkpt lat="49.00537" lon="6.04418">
        <ele>171.9</ele>
        <time>2021-07-29T09:20:43Z</time>
      </trkpt>
      <trkpt lat="49.00532" lon="6.04419">
        <ele>171.8</ele>
        <time>2021-07-29T09:20:44Z</time>
      </trkpt>
      <trkpt lat="49.00524" lon="6.04419">
        <ele>171.8</ele>
        <time>2021-07-29T09:20:46Z</time>
      </trkpt>
      <trkpt lat="49.00516" lon="6.04418">
        <ele>171.8</ele>
        <time>2021-07-29T09:20:47Z</time>
      </trkpt>
      <trkpt lat="49.00512" lon="6.04418">
        <ele>171.8</ele>
        <time>2021-07-29T09:20:48Z</time>
      </trkpt>
      <trkpt lat="49.00505" lon="6.04417">
        <ele>171.8</ele>
        <time>2021-07-29T09:20:49Z</time>
      </trkpt>
      <trkpt lat="49.00499" lon="6.04416">
        <ele>171.8</ele>
        <time>2021-07-29T09:20:50Z</time>
      </trkpt>
      <trkpt lat="49.00488" lon="6.04417">
        <ele>171.8</ele>
        <time>2021-07-29T09:20:52Z</time>
      </trkpt>
      <trkpt lat="49.00483" lon="6.04418">
        <ele>171.8</ele>
        <time>2021-07-29T09:20:53Z</time>
      </trkpt>
      <trkpt lat="49.00478" lon="6.04419">
        <ele>171.8</ele>
        <time>2021-07-29T09:20:54Z</time>
      </trkpt>
      <trkpt lat="49.00474" lon="6.04421">
        <ele>171.8</ele>
        <time>2021-07-29T09:20:55Z</time>
      </trkpt>
      <trkpt lat="49.00469" lon="6.04422">
        <ele>171.8</ele>
        <time>2021-07-29T09:20:56Z</time>
      </trkpt>
      <trkpt lat="49.00458" lon="6.04424">
        <ele>171.8</ele>
        <time>2021-07-29T09:20:58Z</time>
      </trkpt>
      <trkpt lat="49.00453" lon="6.04425">
        <ele>171.8</ele>
        <time>2021-07-29T09:20:59Z</time>
      </trkpt>
      <trkpt lat="49.00443" lon="6.04431">
        <ele>171.8</ele>
        <time>2021-07-29T09:21:01Z</time>
      </trkpt>
      <trkpt lat="49.00438" lon="6.04434">
        <ele>171.9</ele>
        <time>2021-07-29T09:21:02Z</time>
      </trkpt>
      <trkpt lat="49.00434" lon="6.04437">
        <ele>171.9</ele>
        <time>2021-07-29T09:21:03Z</time>
      </trkpt>
      <trkpt lat="49.00426" lon="6.04441">
        <ele>171.9</ele>
        <time>2021-07-29T09:21:05Z</time>
      </trkpt>
      <trkpt lat="49.00421" lon="6.04443">
        <ele>171.9</ele>
        <time>2021-07-29T09:21:06Z</time>
      </trkpt>
      <trkpt lat="49.00418" lon="6.04445">
        <ele>171.9</ele>
        <time>2021-07-29T09:21:07Z</time>
      </trkpt>
      <trkpt lat="49.00415" lon="6.04447">
        <ele>172</ele>
        <time>2021-07-29T09:21:08Z</time>
      </trkpt>
      <trkpt lat="49.00407" lon="6.0445">
        <ele>172</ele>
        <time>2021-07-29T09:21:10Z</time>
      </trkpt>
      <trkpt lat="49.00401" lon="6.04455">
        <ele>172</ele>
        <time>2021-07-29T09:21:11Z</time>
      </trkpt>
      <trkpt lat="49.00395" lon="6.04458">
        <ele>172</ele>
        <time>2021-07-29T09:21:13Z</time>
      </trkpt>
      <trkpt lat="49.00387" lon="6.04458">
        <ele>172</ele>
        <time>2021-07-29T09:21:14Z</time>
      </trkpt>
      <trkpt lat="49.00379" lon="6.04457">
        <ele>172</ele>
        <time>2021-07-29T09:21:16Z</time>
      </trkpt>
      <trkpt lat="49.00374" lon="6.04457">
        <ele>172.1</ele>
        <time>2021-07-29T09:21:17Z</time>
      </trkpt>
      <trkpt lat="49.0037" lon="6.04458">
        <ele>172.1</ele>
        <time>2021-07-29T09:21:18Z</time>
      </trkpt>
      <trkpt lat="49.00364" lon="6.04456">
        <ele>172.1</ele>
        <time>2021-07-29T09:21:19Z</time>
      </trkpt>
      <trkpt lat="49.00359" lon="6.04456">
        <ele>172.1</ele>
        <time>2021-07-29T09:21:21Z</time>
      </trkpt>
      <trkpt lat="49.00353" lon="6.04456">
        <ele>172.2</ele>
        <time>2021-07-29T09:21:22Z</time>
      </trkpt>
      <trkpt lat="49.00348" lon="6.04456">
        <ele>172.2</ele>
        <time>2021-07-29T09:21:23Z</time>
      </trkpt>
      <trkpt lat="49.00344" lon="6.04457">
        <ele>172.2</ele>
        <time>2021-07-29T09:21:24Z</time>
      </trkpt>
      <trkpt lat="49.0034" lon="6.04458">
        <ele>172.3</ele>
        <time>2021-07-29T09:21:25Z</time>
      </trkpt>
      <trkpt lat="49.00334" lon="6.04459">
        <ele>172.3</ele>
        <time>2021-07-29T09:21:26Z</time>
      </trkpt>
      <trkpt lat="49.0033" lon="6.04459">
        <ele>172.3</ele>
        <time>2021-07-29T09:21:27Z</time>
      </trkpt>
      <trkpt lat="49.00324" lon="6.04459">
        <ele>172.4</ele>
        <time>2021-07-29T09:21:29Z</time>
      </trkpt>
      <trkpt lat="49.00318" lon="6.04459">
        <ele>172.4</ele>
        <time>2021-07-29T09:21:30Z</time>
      </trkpt>
      <trkpt lat="49.00312" lon="6.04459">
        <ele>172.5</ele>
        <time>2021-07-29T09:21:32Z</time>
      </trkpt>
      <trkpt lat="49.00306" lon="6.04459">
        <ele>172.5</ele>
        <time>2021-07-29T09:21:33Z</time>
      </trkpt>
      <trkpt lat="49.00302" lon="6.0446">
        <ele>172.5</ele>
        <time>2021-07-29T09:21:34Z</time>
      </trkpt>
      <trkpt lat="49.00297" lon="6.04461">
        <ele>172.6</ele>
        <time>2021-07-29T09:21:35Z</time>
      </trkpt>
      <trkpt lat="49.00292" lon="6.04463">
        <ele>172.6</ele>
        <time>2021-07-29T09:21:37Z</time>
      </trkpt>
      <trkpt lat="49.00288" lon="6.04464">
        <ele>172.6</ele>
        <time>2021-07-29T09:21:38Z</time>
      </trkpt>
      <trkpt lat="49.00283" lon="6.04465">
        <ele>172.6</ele>
        <time>2021-07-29T09:21:39Z</time>
      </trkpt>
      <trkpt lat="49.00277" lon="6.04466">
        <ele>172.6</ele>
        <time>2021-07-29T09:21:40Z</time>
      </trkpt>
      <trkpt lat="49.00273" lon="6.04468">
        <ele>172.6</ele>
        <time>2021-07-29T09:21:41Z</time>
      </trkpt>
      <trkpt lat="49.00269" lon="6.04469">
        <ele>172.7</ele>
        <time>2021-07-29T09:21:42Z</time>
      </trkpt>
      <trkpt lat="49.00263" lon="6.04471">
        <ele>172.7</ele>
        <time>2021-07-29T09:21:44Z</time>
      </trkpt>
      <trkpt lat="49.00256" lon="6.04475">
        <ele>172.7</ele>
        <time>2021-07-29T09:21:45Z</time>
      </trkpt>
      <trkpt lat="49.00246" lon="6.04475">
        <ele>172.7</ele>
        <time>2021-07-29T09:21:47Z</time>
      </trkpt>
      <trkpt lat="49.00241" lon="6.04476">
        <ele>172.7</ele>
        <time>2021-07-29T09:21:48Z</time>
      </trkpt>
      <trkpt lat="49.00236" lon="6.04477">
        <ele>172.7</ele>
        <time>2021-07-29T09:21:49Z</time>
      </trkpt>
      <trkpt lat="49.00232" lon="6.04475">
        <ele>172.7</ele>
        <time>2021-07-29T09:21:50Z</time>
      </trkpt>
      <trkpt lat="49.00225" lon="6.04475">
        <ele>172.7</ele>
        <time>2021-07-29T09:21:52Z</time>
      </trkpt>
      <trkpt lat="49.00221" lon="6.04476">
        <ele>172.7</ele>
        <time>2021-07-29T09:21:53Z</time>
      </trkpt>
      <trkpt lat="49.00217" lon="6.04477">
        <ele>172.7</ele>
        <time>2021-07-29T09:21:54Z</time>
      </trkpt>
      <trkpt lat="49.00213" lon="6.04477">
        <ele>172.7</ele>
        <time>2021-07-29T09:21:55Z</time>
      </trkpt>
      <trkpt lat="49.00208" lon="6.04478">
        <ele>172.7</ele>
        <time>2021-07-29T09:21:56Z</time>
      </trkpt>
      <trkpt lat="49.00203" lon="6.04481">
        <ele>172.7</ele>
        <time>2021-07-29T09:21:58Z</time>
      </trkpt>
      <trkpt lat="49.002" lon="6.04483">
        <ele>172.7</ele>
        <time>2021-07-29T09:21:59Z</time>
      </trkpt>
      <trkpt lat="49.00195" lon="6.04484">
        <ele>172.7</ele>
        <time>2021-07-29T09:22:00Z</time>
      </trkpt>
      <trkpt lat="49.00189" lon="6.04484">
        <ele>172.8</ele>
        <time>2021-07-29T09:22:02Z</time>
      </trkpt>
      <trkpt lat="49.00185" lon="6.04483">
        <ele>172.8</ele>
        <time>2021-07-29T09:22:03Z</time>
      </trkpt>
      <trkpt lat="49.0018" lon="6.04483">
        <ele>172.8</ele>
        <time>2021-07-29T09:22:04Z</time>
      </trkpt>
      <trkpt lat="49.00169" lon="6.04483">
        <ele>172.8</ele>
        <time>2021-07-29T09:22:06Z</time>
      </trkpt>
      <trkpt lat="49.00163" lon="6.04485">
        <ele>172.8</ele>
        <time>2021-07-29T09:22:07Z</time>
      </trkpt>
      <trkpt lat="49.00159" lon="6.04485">
        <ele>172.8</ele>
        <time>2021-07-29T09:22:08Z</time>
      </trkpt>
      <trkpt lat="49.00155" lon="6.04486">
        <ele>172.8</ele>
        <time>2021-07-29T09:22:09Z</time>
      </trkpt>
      <trkpt lat="49.00144" lon="6.04489">
        <ele>172.8</ele>
        <time>2021-07-29T09:22:11Z</time>
      </trkpt>
      <trkpt lat="49.00139" lon="6.04493">
        <ele>172.8</ele>
        <time>2021-07-29T09:22:12Z</time>
      </trkpt>
      <trkpt lat="49.00133" lon="6.04495">
        <ele>172.8</ele>
        <time>2021-07-29T09:22:14Z</time>
      </trkpt>
      <trkpt lat="49.00127" lon="6.04499">
        <ele>172.8</ele>
        <time>2021-07-29T09:22:15Z</time>
      </trkpt>
      <trkpt lat="49.00119" lon="6.04502">
        <ele>172.8</ele>
        <time>2021-07-29T09:22:17Z</time>
      </trkpt>
      <trkpt lat="49.00112" lon="6.04503">
        <ele>172.8</ele>
        <time>2021-07-29T09:22:18Z</time>
      </trkpt>
      <trkpt lat="49.00105" lon="6.04503">
        <ele>172.8</ele>
        <time>2021-07-29T09:22:20Z</time>
      </trkpt>
      <trkpt lat="49.00094" lon="6.04504">
        <ele>172.8</ele>
        <time>2021-07-29T09:22:22Z</time>
      </trkpt>
      <trkpt lat="49.00088" lon="6.04504">
        <ele>172.8</ele>
        <time>2021-07-29T09:22:23Z</time>
      </trkpt>
      <trkpt lat="49.00084" lon="6.04504">
        <ele>172.8</ele>
        <time>2021-07-29T09:22:24Z</time>
      </trkpt>
      <trkpt lat="49.00082" lon="6.04504">
        <ele>172.8</ele>
        <time>2021-07-29T09:22:25Z</time>
      </trkpt>
      <trkpt lat="49.00077" lon="6.04504">
        <ele>172.8</ele>
        <time>2021-07-29T09:22:27Z</time>
      </trkpt>
      <trkpt lat="49.00068" lon="6.04503">
        <ele>172.8</ele>
        <time>2021-07-29T09:22:29Z</time>
      </trkpt>
      <trkpt lat="49.0006" lon="6.045">
        <ele>172.9</ele>
        <time>2021-07-29T09:22:30Z</time>
      </trkpt>
      <trkpt lat="49.0005" lon="6.04497">
        <ele>172.9</ele>
        <time>2021-07-29T09:22:32Z</time>
      </trkpt>
      <trkpt lat="49.00045" lon="6.04493">
        <ele>172.9</ele>
        <time>2021-07-29T09:22:34Z</time>
      </trkpt>
      <trkpt lat="49.00043" lon="6.04492">
        <ele>172.9</ele>
        <time>2021-07-29T09:22:35Z</time>
      </trkpt>
      <trkpt lat="49.00037" lon="6.04489">
        <ele>172.9</ele>
        <time>2021-07-29T09:22:36Z</time>
      </trkpt>
      <trkpt lat="49.00029" lon="6.04484">
        <ele>172.9</ele>
        <time>2021-07-29T09:22:38Z</time>
      </trkpt>
      <trkpt lat="49.0002" lon="6.0448">
        <ele>172.9</ele>
        <time>2021-07-29T09:22:39Z</time>
      </trkpt>
      <trkpt lat="49.00014" lon="6.04478">
        <ele>172.9</ele>
        <time>2021-07-29T09:22:41Z</time>
      </trkpt>
      <trkpt lat="49.00009" lon="6.04475">
        <ele>172.9</ele>
        <time>2021-07-29T09:22:42Z</time>
      </trkpt>
      <trkpt lat="48.99999" lon="6.04469">
        <ele>172.9</ele>
        <time>2021-07-29T09:22:44Z</time>
      </trkpt>
      <trkpt lat="48.99989" lon="6.04464">
        <ele>172.9</ele>
        <time>2021-07-29T09:22:45Z</time>
      </trkpt>
      <trkpt lat="48.99982" lon="6.04459">
        <ele>172.9</ele>
        <time>2021-07-29T09:22:47Z</time>
      </trkpt>
      <trkpt lat="48.99976" lon="6.04455">
        <ele>172.9</ele>
        <time>2021-07-29T09:22:48Z</time>
      </trkpt>
      <trkpt lat="48.99969" lon="6.04451">
        <ele>172.9</ele>
        <time>2021-07-29T09:22:50Z</time>
      </trkpt>
      <trkpt lat="48.99963" lon="6.04447">
        <ele>172.9</ele>
        <time>2021-07-29T09:22:51Z</time>
      </trkpt>
      <trkpt lat="48.99957" lon="6.04444">
        <ele>172.9</ele>
        <time>2021-07-29T09:22:52Z</time>
      </trkpt>
      <trkpt lat="48.99949" lon="6.0444">
        <ele>172.9</ele>
        <time>2021-07-29T09:22:54Z</time>
      </trkpt>
      <trkpt lat="48.99941" lon="6.04436">
        <ele>172.9</ele>
        <time>2021-07-29T09:22:56Z</time>
      </trkpt>
      <trkpt lat="48.99935" lon="6.0443">
        <ele>172.9</ele>
        <time>2021-07-29T09:22:58Z</time>
      </trkpt>
      <trkpt lat="48.99932" lon="6.04428">
        <ele>172.9</ele>
        <time>2021-07-29T09:22:59Z</time>
      </trkpt>
      <trkpt lat="48.99925" lon="6.04424">
        <ele>172.9</ele>
        <time>2021-07-29T09:23:01Z</time>
      </trkpt>
      <trkpt lat="48.99918" lon="6.04419">
        <ele>172.9</ele>
        <time>2021-07-29T09:23:03Z</time>
      </trkpt>
      <trkpt lat="48.99914" lon="6.04416">
        <ele>172.8</ele>
        <time>2021-07-29T09:23:04Z</time>
      </trkpt>
      <trkpt lat="48.99908" lon="6.0441">
        <ele>172.8</ele>
        <time>2021-07-29T09:23:06Z</time>
      </trkpt>
      <trkpt lat="48.99904" lon="6.04405">
        <ele>172.8</ele>
        <time>2021-07-29T09:23:07Z</time>
      </trkpt>
      <trkpt lat="48.999" lon="6.044">
        <ele>172.8</ele>
        <time>2021-07-29T09:23:09Z</time>
      </trkpt>
      <trkpt lat="48.99895" lon="6.04394">
        <ele>172.8</ele>
        <time>2021-07-29T09:23:10Z</time>
      </trkpt>
      <trkpt lat="48.99891" lon="6.0439">
        <ele>172.8</ele>
        <time>2021-07-29T09:23:12Z</time>
      </trkpt>
      <trkpt lat="48.99886" lon="6.04383">
        <ele>172.8</ele>
        <time>2021-07-29T09:23:14Z</time>
      </trkpt>
      <trkpt lat="48.99879" lon="6.04378">
        <ele>172.8</ele>
        <time>2021-07-29T09:23:15Z</time>
      </trkpt>
      <trkpt lat="48.99875" lon="6.04375">
        <ele>172.8</ele>
        <time>2021-07-29T09:23:17Z</time>
      </trkpt>
      <trkpt lat="48.99871" lon="6.04372">
        <ele>172.8</ele>
        <time>2021-07-29T09:23:18Z</time>
      </trkpt>
      <trkpt lat="48.99868" lon="6.04369">
        <ele>172.8</ele>
        <time>2021-07-29T09:23:19Z</time>
      </trkpt>
      <trkpt lat="48.99863" lon="6.04366">
        <ele>172.8</ele>
        <time>2021-07-29T09:23:20Z</time>
      </trkpt>
      <trkpt lat="48.9986" lon="6.04363">
        <ele>172.8</ele>
        <time>2021-07-29T09:23:21Z</time>
      </trkpt>
      <trkpt lat="48.99857" lon="6.0436">
        <ele>172.8</ele>
        <time>2021-07-29T09:23:22Z</time>
      </trkpt>
      <trkpt lat="48.99854" lon="6.04358">
        <ele>172.8</ele>
        <time>2021-07-29T09:23:23Z</time>
      </trkpt>
      <trkpt lat="48.99851" lon="6.04354">
        <ele>172.8</ele>
        <time>2021-07-29T09:23:24Z</time>
      </trkpt>
      <trkpt lat="48.99848" lon="6.04352">
        <ele>172.8</ele>
        <time>2021-07-29T09:23:25Z</time>
      </trkpt>
      <trkpt lat="48.99845" lon="6.04349">
        <ele>172.8</ele>
        <time>2021-07-29T09:23:26Z</time>
      </trkpt>
      <trkpt lat="48.99841" lon="6.04346">
        <ele>172.8</ele>
        <time>2021-07-29T09:23:27Z</time>
      </trkpt>
      <trkpt lat="48.99837" lon="6.04342">
        <ele>172.8</ele>
        <time>2021-07-29T09:23:28Z</time>
      </trkpt>
      <trkpt lat="48.99834" lon="6.04339">
        <ele>172.8</ele>
        <time>2021-07-29T09:23:30Z</time>
      </trkpt>
      <trkpt lat="48.99832" lon="6.04335">
        <ele>172.8</ele>
        <time>2021-07-29T09:23:31Z</time>
      </trkpt>
      <trkpt lat="48.99829" lon="6.04331">
        <ele>172.8</ele>
        <time>2021-07-29T09:23:32Z</time>
      </trkpt>
      <trkpt lat="48.99826" lon="6.04328">
        <ele>172.9</ele>
        <time>2021-07-29T09:23:33Z</time>
      </trkpt>
      <trkpt lat="48.99824" lon="6.04324">
        <ele>172.9</ele>
        <time>2021-07-29T09:23:34Z</time>
      </trkpt>
      <trkpt lat="48.99822" lon="6.0432">
        <ele>172.9</ele>
        <time>2021-07-29T09:23:35Z</time>
      </trkpt>
      <trkpt lat="48.99819" lon="6.04316">
        <ele>172.9</ele>
        <time>2021-07-29T09:23:36Z</time>
      </trkpt>
      <trkpt lat="48.99814" lon="6.04308">
        <ele>172.9</ele>
        <time>2021-07-29T09:23:38Z</time>
      </trkpt>
      <trkpt lat="48.99811" lon="6.04304">
        <ele>172.9</ele>
        <time>2021-07-29T09:23:39Z</time>
      </trkpt>
      <trkpt lat="48.99808" lon="6.04301">
        <ele>172.9</ele>
        <time>2021-07-29T09:23:40Z</time>
      </trkpt>
      <trkpt lat="48.99802" lon="6.04294">
        <ele>173</ele>
        <time>2021-07-29T09:23:41Z</time>
      </trkpt>
      <trkpt lat="48.99798" lon="6.04288">
        <ele>173</ele>
        <time>2021-07-29T09:23:43Z</time>
      </trkpt>
      <trkpt lat="48.99795" lon="6.04284">
        <ele>173</ele>
        <time>2021-07-29T09:23:44Z</time>
      </trkpt>
      <trkpt lat="48.99789" lon="6.04275">
        <ele>173</ele>
        <time>2021-07-29T09:23:46Z</time>
      </trkpt>
      <trkpt lat="48.99786" lon="6.04271">
        <ele>173</ele>
        <time>2021-07-29T09:23:47Z</time>
      </trkpt>
      <trkpt lat="48.99783" lon="6.04267">
        <ele>173.1</ele>
        <time>2021-07-29T09:23:48Z</time>
      </trkpt>
      <trkpt lat="48.99777" lon="6.04261">
        <ele>173.1</ele>
        <time>2021-07-29T09:23:49Z</time>
      </trkpt>
      <trkpt lat="48.99774" lon="6.04257">
        <ele>173.2</ele>
        <time>2021-07-29T09:23:50Z</time>
      </trkpt>
      <trkpt lat="48.9977" lon="6.04253">
        <ele>173.2</ele>
        <time>2021-07-29T09:23:51Z</time>
      </trkpt>
      <trkpt lat="48.99767" lon="6.04249">
        <ele>173.2</ele>
        <time>2021-07-29T09:23:52Z</time>
      </trkpt>
      <trkpt lat="48.99764" lon="6.04246">
        <ele>173.2</ele>
        <time>2021-07-29T09:23:53Z</time>
      </trkpt>
      <trkpt lat="48.99761" lon="6.04242">
        <ele>173.2</ele>
        <time>2021-07-29T09:23:54Z</time>
      </trkpt>
      <trkpt lat="48.99758" lon="6.04238">
        <ele>173.2</ele>
        <time>2021-07-29T09:23:55Z</time>
      </trkpt>
      <trkpt lat="48.99753" lon="6.04231">
        <ele>173.2</ele>
        <time>2021-07-29T09:23:57Z</time>
      </trkpt>
      <trkpt lat="48.9975" lon="6.04224">
        <ele>173.2</ele>
        <time>2021-07-29T09:23:58Z</time>
      </trkpt>
      <trkpt lat="48.99745" lon="6.04217">
        <ele>173.3</ele>
        <time>2021-07-29T09:24:00Z</time>
      </trkpt>
      <trkpt lat="48.9974" lon="6.04212">
        <ele>173.3</ele>
        <time>2021-07-29T09:24:01Z</time>
      </trkpt>
      <trkpt lat="48.99737" lon="6.04208">
        <ele>173.3</ele>
        <time>2021-07-29T09:24:02Z</time>
      </trkpt>
      <trkpt lat="48.99732" lon="6.04202">
        <ele>173.3</ele>
        <time>2021-07-29T09:24:04Z</time>
      </trkpt>
      <trkpt lat="48.99728" lon="6.04198">
        <ele>173.2</ele>
        <time>2021-07-29T09:24:05Z</time>
      </trkpt>
      <trkpt lat="48.99726" lon="6.04193">
        <ele>173.2</ele>
        <time>2021-07-29T09:24:06Z</time>
      </trkpt>
      <trkpt lat="48.99723" lon="6.04187">
        <ele>173.2</ele>
        <time>2021-07-29T09:24:07Z</time>
      </trkpt>
      <trkpt lat="48.9972" lon="6.04181">
        <ele>173.2</ele>
        <time>2021-07-29T09:24:09Z</time>
      </trkpt>
      <trkpt lat="48.99717" lon="6.04175">
        <ele>173.2</ele>
        <time>2021-07-29T09:24:10Z</time>
      </trkpt>
      <trkpt lat="48.99714" lon="6.0417">
        <ele>173.2</ele>
        <time>2021-07-29T09:24:11Z</time>
      </trkpt>
      <trkpt lat="48.99711" lon="6.04166">
        <ele>173.2</ele>
        <time>2021-07-29T09:24:12Z</time>
      </trkpt>
      <trkpt lat="48.99707" lon="6.04161">
        <ele>173.2</ele>
        <time>2021-07-29T09:24:14Z</time>
      </trkpt>
      <trkpt lat="48.99703" lon="6.04155">
        <ele>173.2</ele>
        <time>2021-07-29T09:24:15Z</time>
      </trkpt>
      <trkpt lat="48.99698" lon="6.04149">
        <ele>173.3</ele>
        <time>2021-07-29T09:24:17Z</time>
      </trkpt>
      <trkpt lat="48.99695" lon="6.04145">
        <ele>173.3</ele>
        <time>2021-07-29T09:24:18Z</time>
      </trkpt>
      <trkpt lat="48.99692" lon="6.04141">
        <ele>173.3</ele>
        <time>2021-07-29T09:24:19Z</time>
      </trkpt>
      <trkpt lat="48.99688" lon="6.04136">
        <ele>173.3</ele>
        <time>2021-07-29T09:24:20Z</time>
      </trkpt>
      <trkpt lat="48.99684" lon="6.04129">
        <ele>173.3</ele>
        <time>2021-07-29T09:24:22Z</time>
      </trkpt>
      <trkpt lat="48.99682" lon="6.04123">
        <ele>173.3</ele>
        <time>2021-07-29T09:24:23Z</time>
      </trkpt>
      <trkpt lat="48.99679" lon="6.04119">
        <ele>173.3</ele>
        <time>2021-07-29T09:24:24Z</time>
      </trkpt>
      <trkpt lat="48.99675" lon="6.04113">
        <ele>173.3</ele>
        <time>2021-07-29T09:24:26Z</time>
      </trkpt>
      <trkpt lat="48.99671" lon="6.04108">
        <ele>173.3</ele>
        <time>2021-07-29T09:24:27Z</time>
      </trkpt>
      <trkpt lat="48.99666" lon="6.04101">
        <ele>173.3</ele>
        <time>2021-07-29T09:24:29Z</time>
      </trkpt>
      <trkpt lat="48.9966" lon="6.04093">
        <ele>173.3</ele>
        <time>2021-07-29T09:24:31Z</time>
      </trkpt>
      <trkpt lat="48.99657" lon="6.04089">
        <ele>173.3</ele>
        <time>2021-07-29T09:24:32Z</time>
      </trkpt>
      <trkpt lat="48.99652" lon="6.0408">
        <ele>173.3</ele>
        <time>2021-07-29T09:24:34Z</time>
      </trkpt>
      <trkpt lat="48.99648" lon="6.04072">
        <ele>173.3</ele>
        <time>2021-07-29T09:24:36Z</time>
      </trkpt>
      <trkpt lat="48.99645" lon="6.04065">
        <ele>173.3</ele>
        <time>2021-07-29T09:24:37Z</time>
      </trkpt>
      <trkpt lat="48.99643" lon="6.04058">
        <ele>173.3</ele>
        <time>2021-07-29T09:24:38Z</time>
      </trkpt>
      <trkpt lat="48.9964" lon="6.04052">
        <ele>173.4</ele>
        <time>2021-07-29T09:24:40Z</time>
      </trkpt>
      <trkpt lat="48.99637" lon="6.04047">
        <ele>173.4</ele>
        <time>2021-07-29T09:24:41Z</time>
      </trkpt>
      <trkpt lat="48.99633" lon="6.04041">
        <ele>173.4</ele>
        <time>2021-07-29T09:24:42Z</time>
      </trkpt>
      <trkpt lat="48.9963" lon="6.04035">
        <ele>173.5</ele>
        <time>2021-07-29T09:24:43Z</time>
      </trkpt>
      <trkpt lat="48.99628" lon="6.0403">
        <ele>173.5</ele>
        <time>2021-07-29T09:24:45Z</time>
      </trkpt>
      <trkpt lat="48.99625" lon="6.04023">
        <ele>173.5</ele>
        <time>2021-07-29T09:24:47Z</time>
      </trkpt>
      <trkpt lat="48.99621" lon="6.04018">
        <ele>173.5</ele>
        <time>2021-07-29T09:24:49Z</time>
      </trkpt>
      <trkpt lat="48.99621" lon="6.04016">
        <ele>173.5</ele>
        <time>2021-07-29T09:24:50Z</time>
      </trkpt>
      <trkpt lat="48.9962" lon="6.04012">
        <ele>173.5</ele>
        <time>2021-07-29T09:24:52Z</time>
      </trkpt>
      <trkpt lat="48.99619" lon="6.0401">
        <ele>173.5</ele>
        <time>2021-07-29T09:24:53Z</time>
      </trkpt>
      <trkpt lat="48.99617" lon="6.04009">
        <ele>173.5</ele>
        <time>2021-07-29T09:24:54Z</time>
      </trkpt>
      <trkpt lat="48.99616" lon="6.04008">
        <ele>173.5</ele>
        <time>2021-07-29T09:24:56Z</time>
      </trkpt>
      <trkpt lat="48.99614" lon="6.04007">
        <ele>173.5</ele>
        <time>2021-07-29T09:24:57Z</time>
      </trkpt>
      <trkpt lat="48.99613" lon="6.04006">
        <ele>173.5</ele>
        <time>2021-07-29T09:24:59Z</time>
      </trkpt>
      <trkpt lat="48.99612" lon="6.04005">
        <ele>173.5</ele>
        <time>2021-07-29T09:25:00Z</time>
      </trkpt>
      <trkpt lat="48.9961" lon="6.04004">
        <ele>173.5</ele>
        <time>2021-07-29T09:25:02Z</time>
      </trkpt>
      <trkpt lat="48.99609" lon="6.04004">
        <ele>173.5</ele>
        <time>2021-07-29T09:25:04Z</time>
      </trkpt>
      <trkpt lat="48.99607" lon="6.04003">
        <ele>173.5</ele>
        <time>2021-07-29T09:25:06Z</time>
      </trkpt>
      <trkpt lat="48.99606" lon="6.04002">
        <ele>173.5</ele>
        <time>2021-07-29T09:28:12Z</time>
      </trkpt>
      <trkpt lat="48.99605" lon="6.04001">
        <ele>173.5</ele>
        <time>2021-07-29T09:28:13Z</time>
      </trkpt>
      <trkpt lat="48.996" lon="6.03993">
        <ele>173.5</ele>
        <time>2021-07-29T09:28:15Z</time>
      </trkpt>
      <trkpt lat="48.99591" lon="6.03976">
        <ele>173.4</ele>
        <time>2021-07-29T09:28:17Z</time>
      </trkpt>
      <trkpt lat="48.99586" lon="6.03966">
        <ele>173.4</ele>
        <time>2021-07-29T09:28:18Z</time>
      </trkpt>
      <trkpt lat="48.99581" lon="6.0396">
        <ele>173.3</ele>
        <time>2021-07-29T09:28:20Z</time>
      </trkpt>
      <trkpt lat="48.99575" lon="6.0395">
        <ele>173.3</ele>
        <time>2021-07-29T09:28:22Z</time>
      </trkpt>
      <trkpt lat="48.99571" lon="6.03944">
        <ele>173.3</ele>
        <time>2021-07-29T09:28:23Z</time>
      </trkpt>
      <trkpt lat="48.99568" lon="6.03936">
        <ele>173.3</ele>
        <time>2021-07-29T09:28:25Z</time>
      </trkpt>
      <trkpt lat="48.99565" lon="6.0393">
        <ele>173.2</ele>
        <time>2021-07-29T09:28:26Z</time>
      </trkpt>
      <trkpt lat="48.99563" lon="6.03925">
        <ele>173.2</ele>
        <time>2021-07-29T09:28:27Z</time>
      </trkpt>
      <trkpt lat="48.99561" lon="6.03916">
        <ele>173.2</ele>
        <time>2021-07-29T09:28:29Z</time>
      </trkpt>
      <trkpt lat="48.9956" lon="6.0391">
        <ele>173.2</ele>
        <time>2021-07-29T09:28:30Z</time>
      </trkpt>
      <trkpt lat="48.9956" lon="6.03898">
        <ele>173.2</ele>
        <time>2021-07-29T09:28:32Z</time>
      </trkpt>
      <trkpt lat="48.99558" lon="6.03887">
        <ele>173.2</ele>
        <time>2021-07-29T09:28:34Z</time>
      </trkpt>
      <trkpt lat="48.99558" lon="6.03881">
        <ele>173.2</ele>
        <time>2021-07-29T09:28:35Z</time>
      </trkpt>
      <trkpt lat="48.99558" lon="6.03875">
        <ele>173.2</ele>
        <time>2021-07-29T09:28:36Z</time>
      </trkpt>
      <trkpt lat="48.99558" lon="6.03868">
        <ele>173.2</ele>
        <time>2021-07-29T09:28:37Z</time>
      </trkpt>
      <trkpt lat="48.99558" lon="6.03862">
        <ele>173.2</ele>
        <time>2021-07-29T09:28:38Z</time>
      </trkpt>
      <trkpt lat="48.99557" lon="6.03856">
        <ele>173.2</ele>
        <time>2021-07-29T09:28:39Z</time>
      </trkpt>
      <trkpt lat="48.99557" lon="6.03851">
        <ele>173.2</ele>
        <time>2021-07-29T09:28:40Z</time>
      </trkpt>
      <trkpt lat="48.99556" lon="6.03846">
        <ele>173.2</ele>
        <time>2021-07-29T09:28:41Z</time>
      </trkpt>
      <trkpt lat="48.99556" lon="6.03841">
        <ele>173.2</ele>
        <time>2021-07-29T09:28:42Z</time>
      </trkpt>
      <trkpt lat="48.99555" lon="6.03836">
        <ele>173.2</ele>
        <time>2021-07-29T09:28:43Z</time>
      </trkpt>
      <trkpt lat="48.99554" lon="6.03831">
        <ele>173.2</ele>
        <time>2021-07-29T09:28:44Z</time>
      </trkpt>
      <trkpt lat="48.99554" lon="6.03824">
        <ele>173.2</ele>
        <time>2021-07-29T09:28:46Z</time>
      </trkpt>
      <trkpt lat="48.99553" lon="6.03818">
        <ele>173.2</ele>
        <time>2021-07-29T09:28:47Z</time>
      </trkpt>
      <trkpt lat="48.99552" lon="6.03812">
        <ele>173.2</ele>
        <time>2021-07-29T09:28:48Z</time>
      </trkpt>
      <trkpt lat="48.99551" lon="6.03806">
        <ele>173.2</ele>
        <time>2021-07-29T09:28:49Z</time>
      </trkpt>
      <trkpt lat="48.99551" lon="6.03801">
        <ele>173.2</ele>
        <time>2021-07-29T09:28:50Z</time>
      </trkpt>
      <trkpt lat="48.99549" lon="6.03792">
        <ele>173.2</ele>
        <time>2021-07-29T09:28:51Z</time>
      </trkpt>
      <trkpt lat="48.99547" lon="6.03785">
        <ele>173.2</ele>
        <time>2021-07-29T09:28:53Z</time>
      </trkpt>
      <trkpt lat="48.99544" lon="6.03776">
        <ele>173.2</ele>
        <time>2021-07-29T09:28:54Z</time>
      </trkpt>
      <trkpt lat="48.99543" lon="6.03771">
        <ele>173.2</ele>
        <time>2021-07-29T09:28:55Z</time>
      </trkpt>
      <trkpt lat="48.99541" lon="6.03766">
        <ele>173.2</ele>
        <time>2021-07-29T09:28:56Z</time>
      </trkpt>
      <trkpt lat="48.99539" lon="6.03761">
        <ele>173.2</ele>
        <time>2021-07-29T09:28:57Z</time>
      </trkpt>
      <trkpt lat="48.99537" lon="6.03756">
        <ele>173.2</ele>
        <time>2021-07-29T09:28:58Z</time>
      </trkpt>
      <trkpt lat="48.99534" lon="6.03751">
        <ele>173.2</ele>
        <time>2021-07-29T09:28:59Z</time>
      </trkpt>
      <trkpt lat="48.99532" lon="6.03746">
        <ele>173.2</ele>
        <time>2021-07-29T09:29:00Z</time>
      </trkpt>
      <trkpt lat="48.9953" lon="6.03742">
        <ele>173.2</ele>
        <time>2021-07-29T09:29:01Z</time>
      </trkpt>
      <trkpt lat="48.99527" lon="6.03735">
        <ele>173.2</ele>
        <time>2021-07-29T09:29:03Z</time>
      </trkpt>
      <trkpt lat="48.99523" lon="6.03727">
        <ele>173.2</ele>
        <time>2021-07-29T09:29:04Z</time>
      </trkpt>
      <trkpt lat="48.99519" lon="6.0372">
        <ele>173.2</ele>
        <time>2021-07-29T09:29:06Z</time>
      </trkpt>
      <trkpt lat="48.99515" lon="6.03714">
        <ele>173.2</ele>
        <time>2021-07-29T09:29:07Z</time>
      </trkpt>
      <trkpt lat="48.99511" lon="6.03706">
        <ele>173.1</ele>
        <time>2021-07-29T09:29:09Z</time>
      </trkpt>
      <trkpt lat="48.99509" lon="6.037">
        <ele>173.1</ele>
        <time>2021-07-29T09:29:10Z</time>
      </trkpt>
      <trkpt lat="48.99505" lon="6.03689">
        <ele>173.1</ele>
        <time>2021-07-29T09:29:12Z</time>
      </trkpt>
      <trkpt lat="48.99501" lon="6.03679">
        <ele>173.1</ele>
        <time>2021-07-29T09:29:13Z</time>
      </trkpt>
      <trkpt lat="48.99499" lon="6.03671">
        <ele>173.1</ele>
        <time>2021-07-29T09:29:15Z</time>
      </trkpt>
      <trkpt lat="48.99496" lon="6.0366">
        <ele>173.1</ele>
        <time>2021-07-29T09:29:17Z</time>
      </trkpt>
      <trkpt lat="48.99495" lon="6.03654">
        <ele>173.1</ele>
        <time>2021-07-29T09:29:18Z</time>
      </trkpt>
      <trkpt lat="48.99494" lon="6.03647">
        <ele>173.1</ele>
        <time>2021-07-29T09:29:19Z</time>
      </trkpt>
      <trkpt lat="48.99491" lon="6.03636">
        <ele>173.1</ele>
        <time>2021-07-29T09:29:21Z</time>
      </trkpt>
      <trkpt lat="48.9949" lon="6.03628">
        <ele>173.1</ele>
        <time>2021-07-29T09:29:22Z</time>
      </trkpt>
      <trkpt lat="48.99487" lon="6.03615">
        <ele>173</ele>
        <time>2021-07-29T09:29:24Z</time>
      </trkpt>
      <trkpt lat="48.99483" lon="6.03607">
        <ele>173</ele>
        <time>2021-07-29T09:29:25Z</time>
      </trkpt>
      <trkpt lat="48.9948" lon="6.03599">
        <ele>173</ele>
        <time>2021-07-29T09:29:27Z</time>
      </trkpt>
      <trkpt lat="48.99477" lon="6.03585">
        <ele>173</ele>
        <time>2021-07-29T09:29:29Z</time>
      </trkpt>
      <trkpt lat="48.99475" lon="6.03579">
        <ele>173</ele>
        <time>2021-07-29T09:29:30Z</time>
      </trkpt>
      <trkpt lat="48.99477" lon="6.03571">
        <ele>172.9</ele>
        <time>2021-07-29T09:29:32Z</time>
      </trkpt>
      <trkpt lat="48.99471" lon="6.0356">
        <ele>172.9</ele>
        <time>2021-07-29T09:29:33Z</time>
      </trkpt>
      <trkpt lat="48.99467" lon="6.03554">
        <ele>172.9</ele>
        <time>2021-07-29T09:29:34Z</time>
      </trkpt>
      <trkpt lat="48.99464" lon="6.03548">
        <ele>172.9</ele>
        <time>2021-07-29T09:29:35Z</time>
      </trkpt>
      <trkpt lat="48.99458" lon="6.03537">
        <ele>172.9</ele>
        <time>2021-07-29T09:29:37Z</time>
      </trkpt>
      <trkpt lat="48.99456" lon="6.03531">
        <ele>172.9</ele>
        <time>2021-07-29T09:29:38Z</time>
      </trkpt>
      <trkpt lat="48.99452" lon="6.0352">
        <ele>172.9</ele>
        <time>2021-07-29T09:29:40Z</time>
      </trkpt>
      <trkpt lat="48.99449" lon="6.03514">
        <ele>172.9</ele>
        <time>2021-07-29T09:29:41Z</time>
      </trkpt>
      <trkpt lat="48.99446" lon="6.03509">
        <ele>172.9</ele>
        <time>2021-07-29T09:29:42Z</time>
      </trkpt>
      <trkpt lat="48.99443" lon="6.03504">
        <ele>172.9</ele>
        <time>2021-07-29T09:29:43Z</time>
      </trkpt>
      <trkpt lat="48.99441" lon="6.03499">
        <ele>172.9</ele>
        <time>2021-07-29T09:29:45Z</time>
      </trkpt>
      <trkpt lat="48.99438" lon="6.03494">
        <ele>172.9</ele>
        <time>2021-07-29T09:29:46Z</time>
      </trkpt>
      <trkpt lat="48.99435" lon="6.03489">
        <ele>172.9</ele>
        <time>2021-07-29T09:29:47Z</time>
      </trkpt>
      <trkpt lat="48.99432" lon="6.03484">
        <ele>172.9</ele>
        <time>2021-07-29T09:29:48Z</time>
      </trkpt>
      <trkpt lat="48.99429" lon="6.03472">
        <ele>172.9</ele>
        <time>2021-07-29T09:29:50Z</time>
      </trkpt>
      <trkpt lat="48.99427" lon="6.03467">
        <ele>172.9</ele>
        <time>2021-07-29T09:29:51Z</time>
      </trkpt>
      <trkpt lat="48.99425" lon="6.03462">
        <ele>173</ele>
        <time>2021-07-29T09:29:52Z</time>
      </trkpt>
      <trkpt lat="48.99421" lon="6.03452">
        <ele>173</ele>
        <time>2021-07-29T09:29:54Z</time>
      </trkpt>
      <trkpt lat="48.99419" lon="6.03445">
        <ele>173</ele>
        <time>2021-07-29T09:29:55Z</time>
      </trkpt>
      <trkpt lat="48.99417" lon="6.03433">
        <ele>173</ele>
        <time>2021-07-29T09:29:56Z</time>
      </trkpt>
      <trkpt lat="48.99414" lon="6.03425">
        <ele>173</ele>
        <time>2021-07-29T09:29:57Z</time>
      </trkpt>
      <trkpt lat="48.99411" lon="6.0342">
        <ele>173</ele>
        <time>2021-07-29T09:29:58Z</time>
      </trkpt>
      <trkpt lat="48.99408" lon="6.03414">
        <ele>173</ele>
        <time>2021-07-29T09:29:59Z</time>
      </trkpt>
      <trkpt lat="48.99405" lon="6.03405">
        <ele>173</ele>
        <time>2021-07-29T09:30:01Z</time>
      </trkpt>
      <trkpt lat="48.99403" lon="6.034">
        <ele>173.1</ele>
        <time>2021-07-29T09:30:02Z</time>
      </trkpt>
      <trkpt lat="48.994" lon="6.03392">
        <ele>173.1</ele>
        <time>2021-07-29T09:30:03Z</time>
      </trkpt>
      <trkpt lat="48.99397" lon="6.03387">
        <ele>173.1</ele>
        <time>2021-07-29T09:30:04Z</time>
      </trkpt>
      <trkpt lat="48.99395" lon="6.03381">
        <ele>173.1</ele>
        <time>2021-07-29T09:30:05Z</time>
      </trkpt>
      <trkpt lat="48.99393" lon="6.03375">
        <ele>173.2</ele>
        <time>2021-07-29T09:30:06Z</time>
      </trkpt>
      <trkpt lat="48.99391" lon="6.0337">
        <ele>173.2</ele>
        <time>2021-07-29T09:30:07Z</time>
      </trkpt>
      <trkpt lat="48.9939" lon="6.03364">
        <ele>173.2</ele>
        <time>2021-07-29T09:30:09Z</time>
      </trkpt>
      <trkpt lat="48.99388" lon="6.03359">
        <ele>173.3</ele>
        <time>2021-07-29T09:30:10Z</time>
      </trkpt>
      <trkpt lat="48.99387" lon="6.03352">
        <ele>173.3</ele>
        <time>2021-07-29T09:30:11Z</time>
      </trkpt>
      <trkpt lat="48.99385" lon="6.03344">
        <ele>173.4</ele>
        <time>2021-07-29T09:30:12Z</time>
      </trkpt>
      <trkpt lat="48.99383" lon="6.03337">
        <ele>173.4</ele>
        <time>2021-07-29T09:30:14Z</time>
      </trkpt>
      <trkpt lat="48.99382" lon="6.03332">
        <ele>173.5</ele>
        <time>2021-07-29T09:30:15Z</time>
      </trkpt>
      <trkpt lat="48.99378" lon="6.03325">
        <ele>173.5</ele>
        <time>2021-07-29T09:30:16Z</time>
      </trkpt>
      <trkpt lat="48.99374" lon="6.03319">
        <ele>173.6</ele>
        <time>2021-07-29T09:30:18Z</time>
      </trkpt>
      <trkpt lat="48.99372" lon="6.03314">
        <ele>173.7</ele>
        <time>2021-07-29T09:30:19Z</time>
      </trkpt>
      <trkpt lat="48.9937" lon="6.0331">
        <ele>173.7</ele>
        <time>2021-07-29T09:30:20Z</time>
      </trkpt>
      <trkpt lat="48.99367" lon="6.03305">
        <ele>173.8</ele>
        <time>2021-07-29T09:30:21Z</time>
      </trkpt>
      <trkpt lat="48.99365" lon="6.033">
        <ele>173.8</ele>
        <time>2021-07-29T09:30:22Z</time>
      </trkpt>
      <trkpt lat="48.99361" lon="6.0329">
        <ele>173.9</ele>
        <time>2021-07-29T09:30:24Z</time>
      </trkpt>
      <trkpt lat="48.99359" lon="6.03286">
        <ele>174</ele>
        <time>2021-07-29T09:30:25Z</time>
      </trkpt>
      <trkpt lat="48.99354" lon="6.03275">
        <ele>174.1</ele>
        <time>2021-07-29T09:30:27Z</time>
      </trkpt>
      <trkpt lat="48.99352" lon="6.0327">
        <ele>174.2</ele>
        <time>2021-07-29T09:30:28Z</time>
      </trkpt>
      <trkpt lat="48.99349" lon="6.03266">
        <ele>174.3</ele>
        <time>2021-07-29T09:30:29Z</time>
      </trkpt>
      <trkpt lat="48.99346" lon="6.03261">
        <ele>174.3</ele>
        <time>2021-07-29T09:30:30Z</time>
      </trkpt>
      <trkpt lat="48.99344" lon="6.03257">
        <ele>174.4</ele>
        <time>2021-07-29T09:30:31Z</time>
      </trkpt>
      <trkpt lat="48.99342" lon="6.03253">
        <ele>174.5</ele>
        <time>2021-07-29T09:30:32Z</time>
      </trkpt>
      <trkpt lat="48.9934" lon="6.03249">
        <ele>174.5</ele>
        <time>2021-07-29T09:30:33Z</time>
      </trkpt>
      <trkpt lat="48.99338" lon="6.03245">
        <ele>174.6</ele>
        <time>2021-07-29T09:30:35Z</time>
      </trkpt>
      <trkpt lat="48.99336" lon="6.03241">
        <ele>174.6</ele>
        <time>2021-07-29T09:30:36Z</time>
      </trkpt>
      <trkpt lat="48.99334" lon="6.03237">
        <ele>174.7</ele>
        <time>2021-07-29T09:30:37Z</time>
      </trkpt>
      <trkpt lat="48.99333" lon="6.03233">
        <ele>174.7</ele>
        <time>2021-07-29T09:30:38Z</time>
      </trkpt>
      <trkpt lat="48.99331" lon="6.03227">
        <ele>174.8</ele>
        <time>2021-07-29T09:30:39Z</time>
      </trkpt>
      <trkpt lat="48.99329" lon="6.0322">
        <ele>174.9</ele>
        <time>2021-07-29T09:30:41Z</time>
      </trkpt>
      <trkpt lat="48.99328" lon="6.03215">
        <ele>174.9</ele>
        <time>2021-07-29T09:30:42Z</time>
      </trkpt>
      <trkpt lat="48.99328" lon="6.03211">
        <ele>175</ele>
        <time>2021-07-29T09:30:43Z</time>
      </trkpt>
      <trkpt lat="48.99327" lon="6.03207">
        <ele>175</ele>
        <time>2021-07-29T09:30:44Z</time>
      </trkpt>
      <trkpt lat="48.99325" lon="6.03199">
        <ele>175.1</ele>
        <time>2021-07-29T09:30:46Z</time>
      </trkpt>
      <trkpt lat="48.99323" lon="6.03194">
        <ele>175.2</ele>
        <time>2021-07-29T09:30:47Z</time>
      </trkpt>
      <trkpt lat="48.99323" lon="6.03188">
        <ele>175.3</ele>
        <time>2021-07-29T09:30:48Z</time>
      </trkpt>
      <trkpt lat="48.99321" lon="6.03183">
        <ele>175.3</ele>
        <time>2021-07-29T09:30:49Z</time>
      </trkpt>
      <trkpt lat="48.9932" lon="6.03177">
        <ele>175.4</ele>
        <time>2021-07-29T09:30:50Z</time>
      </trkpt>
      <trkpt lat="48.99318" lon="6.0317">
        <ele>175.5</ele>
        <time>2021-07-29T09:30:52Z</time>
      </trkpt>
      <trkpt lat="48.99318" lon="6.03165">
        <ele>175.6</ele>
        <time>2021-07-29T09:30:53Z</time>
      </trkpt>
      <trkpt lat="48.99317" lon="6.03161">
        <ele>175.7</ele>
        <time>2021-07-29T09:30:54Z</time>
      </trkpt>
      <trkpt lat="48.99315" lon="6.03157">
        <ele>175.8</ele>
        <time>2021-07-29T09:30:55Z</time>
      </trkpt>
      <trkpt lat="48.99313" lon="6.03152">
        <ele>175.9</ele>
        <time>2021-07-29T09:30:56Z</time>
      </trkpt>
      <trkpt lat="48.99312" lon="6.03147">
        <ele>176</ele>
        <time>2021-07-29T09:30:57Z</time>
      </trkpt>
      <trkpt lat="48.99312" lon="6.03141">
        <ele>176.1</ele>
        <time>2021-07-29T09:30:58Z</time>
      </trkpt>
      <trkpt lat="48.99313" lon="6.03139">
        <ele>176.2</ele>
        <time>2021-07-29T09:30:59Z</time>
      </trkpt>
      <trkpt lat="48.99314" lon="6.03134">
        <ele>176.5</ele>
        <time>2021-07-29T09:31:00Z</time>
      </trkpt>
      <trkpt lat="48.99315" lon="6.03128">
        <ele>176.5</ele>
        <time>2021-07-29T09:31:02Z</time>
      </trkpt>
      <trkpt lat="48.99316" lon="6.03126">
        <ele>176.6</ele>
        <time>2021-07-29T09:31:03Z</time>
      </trkpt>
      <trkpt lat="48.99316" lon="6.03123">
        <ele>176.6</ele>
        <time>2021-07-29T09:31:04Z</time>
      </trkpt>
      <trkpt lat="48.99319" lon="6.03119">
        <ele>176.7</ele>
        <time>2021-07-29T09:31:05Z</time>
      </trkpt>
      <trkpt lat="48.99319" lon="6.03118">
        <ele>176.7</ele>
        <time>2021-07-29T09:31:06Z</time>
      </trkpt>
      <trkpt lat="48.9932" lon="6.03116">
        <ele>176.7</ele>
        <time>2021-07-29T09:31:07Z</time>
      </trkpt>
      <trkpt lat="48.9932" lon="6.03113">
        <ele>176.7</ele>
        <time>2021-07-29T09:31:08Z</time>
      </trkpt>
      <trkpt lat="48.99321" lon="6.03109">
        <ele>176.8</ele>
        <time>2021-07-29T09:31:10Z</time>
      </trkpt>
      <trkpt lat="48.9932" lon="6.03102">
        <ele>177</ele>
        <time>2021-07-29T09:31:12Z</time>
      </trkpt>
      <trkpt lat="48.99318" lon="6.03098">
        <ele>177</ele>
        <time>2021-07-29T09:31:13Z</time>
      </trkpt>
      <trkpt lat="48.99317" lon="6.03091">
        <ele>177</ele>
        <time>2021-07-29T09:31:15Z</time>
      </trkpt>
      <trkpt lat="48.99315" lon="6.03084">
        <ele>177</ele>
        <time>2021-07-29T09:31:16Z</time>
      </trkpt>
      <trkpt lat="48.99312" lon="6.03075">
        <ele>177</ele>
        <time>2021-07-29T09:31:18Z</time>
      </trkpt>
      <trkpt lat="48.9931" lon="6.03071">
        <ele>177.1</ele>
        <time>2021-07-29T09:31:19Z</time>
      </trkpt>
      <trkpt lat="48.99308" lon="6.03067">
        <ele>177.1</ele>
        <time>2021-07-29T09:31:20Z</time>
      </trkpt>
      <trkpt lat="48.99304" lon="6.03063">
        <ele>177.1</ele>
        <time>2021-07-29T09:31:21Z</time>
      </trkpt>
      <trkpt lat="48.99303" lon="6.03061">
        <ele>177.1</ele>
        <time>2021-07-29T09:31:22Z</time>
      </trkpt>
      <trkpt lat="48.993" lon="6.03059">
        <ele>177.1</ele>
        <time>2021-07-29T09:31:23Z</time>
      </trkpt>
      <trkpt lat="48.99298" lon="6.03057">
        <ele>177.1</ele>
        <time>2021-07-29T09:31:24Z</time>
      </trkpt>
      <trkpt lat="48.99294" lon="6.03054">
        <ele>177.1</ele>
        <time>2021-07-29T09:31:26Z</time>
      </trkpt>
      <trkpt lat="48.9929" lon="6.03051">
        <ele>177.1</ele>
        <time>2021-07-29T09:31:27Z</time>
      </trkpt>
      <trkpt lat="48.99285" lon="6.03046">
        <ele>177.2</ele>
        <time>2021-07-29T09:31:28Z</time>
      </trkpt>
      <trkpt lat="48.9928" lon="6.03041">
        <ele>177.2</ele>
        <time>2021-07-29T09:31:30Z</time>
      </trkpt>
      <trkpt lat="48.99275" lon="6.03038">
        <ele>177.2</ele>
        <time>2021-07-29T09:31:31Z</time>
      </trkpt>
      <trkpt lat="48.9927" lon="6.03035">
        <ele>177.2</ele>
        <time>2021-07-29T09:31:33Z</time>
      </trkpt>
      <trkpt lat="48.99264" lon="6.03031">
        <ele>177.2</ele>
        <time>2021-07-29T09:31:35Z</time>
      </trkpt>
      <trkpt lat="48.99261" lon="6.03029">
        <ele>177.2</ele>
        <time>2021-07-29T09:31:36Z</time>
      </trkpt>
      <trkpt lat="48.99255" lon="6.03023">
        <ele>177.2</ele>
        <time>2021-07-29T09:31:38Z</time>
      </trkpt>
      <trkpt lat="48.99247" lon="6.03017">
        <ele>177.2</ele>
        <time>2021-07-29T09:31:40Z</time>
      </trkpt>
      <trkpt lat="48.99242" lon="6.03015">
        <ele>177.2</ele>
        <time>2021-07-29T09:31:41Z</time>
      </trkpt>
      <trkpt lat="48.99239" lon="6.03012">
        <ele>177.2</ele>
        <time>2021-07-29T09:31:42Z</time>
      </trkpt>
      <trkpt lat="48.99235" lon="6.03008">
        <ele>177.2</ele>
        <time>2021-07-29T09:31:43Z</time>
      </trkpt>
      <trkpt lat="48.99232" lon="6.03004">
        <ele>177.2</ele>
        <time>2021-07-29T09:31:44Z</time>
      </trkpt>
      <trkpt lat="48.99227" lon="6.03">
        <ele>177.2</ele>
        <time>2021-07-29T09:31:45Z</time>
      </trkpt>
      <trkpt lat="48.99223" lon="6.02996">
        <ele>177.2</ele>
        <time>2021-07-29T09:31:47Z</time>
      </trkpt>
      <trkpt lat="48.9922" lon="6.02992">
        <ele>177.2</ele>
        <time>2021-07-29T09:31:48Z</time>
      </trkpt>
      <trkpt lat="48.99217" lon="6.02986">
        <ele>177.2</ele>
        <time>2021-07-29T09:31:49Z</time>
      </trkpt>
      <trkpt lat="48.99214" lon="6.02981">
        <ele>177.2</ele>
        <time>2021-07-29T09:31:51Z</time>
      </trkpt>
      <trkpt lat="48.99209" lon="6.02978">
        <ele>177.3</ele>
        <time>2021-07-29T09:31:52Z</time>
      </trkpt>
      <trkpt lat="48.99205" lon="6.02975">
        <ele>177.3</ele>
        <time>2021-07-29T09:31:53Z</time>
      </trkpt>
      <trkpt lat="48.99201" lon="6.02972">
        <ele>177.3</ele>
        <time>2021-07-29T09:31:54Z</time>
      </trkpt>
      <trkpt lat="48.99195" lon="6.02969">
        <ele>177.3</ele>
        <time>2021-07-29T09:31:55Z</time>
      </trkpt>
      <trkpt lat="48.99188" lon="6.02966">
        <ele>177.2</ele>
        <time>2021-07-29T09:31:57Z</time>
      </trkpt>
      <trkpt lat="48.99184" lon="6.02964">
        <ele>177.2</ele>
        <time>2021-07-29T09:31:58Z</time>
      </trkpt>
      <trkpt lat="48.9918" lon="6.02963">
        <ele>177.2</ele>
        <time>2021-07-29T09:31:59Z</time>
      </trkpt>
      <trkpt lat="48.99174" lon="6.0296">
        <ele>177.2</ele>
        <time>2021-07-29T09:32:00Z</time>
      </trkpt>
      <trkpt lat="48.99168" lon="6.02957">
        <ele>177.2</ele>
        <time>2021-07-29T09:32:02Z</time>
      </trkpt>
      <trkpt lat="48.99162" lon="6.02954">
        <ele>177.2</ele>
        <time>2021-07-29T09:32:03Z</time>
      </trkpt>
      <trkpt lat="48.99155" lon="6.02952">
        <ele>177.2</ele>
        <time>2021-07-29T09:32:05Z</time>
      </trkpt>
      <trkpt lat="48.99152" lon="6.02951">
        <ele>177.2</ele>
        <time>2021-07-29T09:32:06Z</time>
      </trkpt>
      <trkpt lat="48.99146" lon="6.02947">
        <ele>177.2</ele>
        <time>2021-07-29T09:32:08Z</time>
      </trkpt>
      <trkpt lat="48.9914" lon="6.02941">
        <ele>177.2</ele>
        <time>2021-07-29T09:32:09Z</time>
      </trkpt>
      <trkpt lat="48.99134" lon="6.02937">
        <ele>177.2</ele>
        <time>2021-07-29T09:32:11Z</time>
      </trkpt>
      <trkpt lat="48.9913" lon="6.02935">
        <ele>177.2</ele>
        <time>2021-07-29T09:32:12Z</time>
      </trkpt>
      <trkpt lat="48.99126" lon="6.02932">
        <ele>177.1</ele>
        <time>2021-07-29T09:32:13Z</time>
      </trkpt>
      <trkpt lat="48.99119" lon="6.02929">
        <ele>177.1</ele>
        <time>2021-07-29T09:32:15Z</time>
      </trkpt>
      <trkpt lat="48.99112" lon="6.02926">
        <ele>177.1</ele>
        <time>2021-07-29T09:32:16Z</time>
      </trkpt>
      <trkpt lat="48.99107" lon="6.02924">
        <ele>177.1</ele>
        <time>2021-07-29T09:32:18Z</time>
      </trkpt>
      <trkpt lat="48.991" lon="6.0292">
        <ele>177.1</ele>
        <time>2021-07-29T09:32:19Z</time>
      </trkpt>
      <trkpt lat="48.99096" lon="6.02917">
        <ele>177.1</ele>
        <time>2021-07-29T09:32:21Z</time>
      </trkpt>
      <trkpt lat="48.99092" lon="6.02914">
        <ele>177.2</ele>
        <time>2021-07-29T09:32:22Z</time>
      </trkpt>
      <trkpt lat="48.99087" lon="6.02909">
        <ele>177.2</ele>
        <time>2021-07-29T09:32:23Z</time>
      </trkpt>
      <trkpt lat="48.99082" lon="6.02905">
        <ele>177.3</ele>
        <time>2021-07-29T09:32:24Z</time>
      </trkpt>
      <trkpt lat="48.99073" lon="6.029">
        <ele>177.4</ele>
        <time>2021-07-29T09:32:26Z</time>
      </trkpt>
      <trkpt lat="48.99066" lon="6.02898">
        <ele>177.5</ele>
        <time>2021-07-29T09:32:27Z</time>
      </trkpt>
      <trkpt lat="48.9906" lon="6.02894">
        <ele>177.5</ele>
        <time>2021-07-29T09:32:29Z</time>
      </trkpt>
      <trkpt lat="48.99055" lon="6.02893">
        <ele>177.5</ele>
        <time>2021-07-29T09:32:30Z</time>
      </trkpt>
      <trkpt lat="48.9905" lon="6.02892">
        <ele>177.6</ele>
        <time>2021-07-29T09:32:31Z</time>
      </trkpt>
      <trkpt lat="48.99044" lon="6.0289">
        <ele>177.6</ele>
        <time>2021-07-29T09:32:33Z</time>
      </trkpt>
      <trkpt lat="48.99039" lon="6.02888">
        <ele>177.5</ele>
        <time>2021-07-29T09:32:34Z</time>
      </trkpt>
      <trkpt lat="48.99035" lon="6.02886">
        <ele>177.5</ele>
        <time>2021-07-29T09:32:35Z</time>
      </trkpt>
      <trkpt lat="48.9903" lon="6.02883">
        <ele>177.5</ele>
        <time>2021-07-29T09:32:37Z</time>
      </trkpt>
      <trkpt lat="48.99023" lon="6.0288">
        <ele>177.5</ele>
        <time>2021-07-29T09:32:38Z</time>
      </trkpt>
      <trkpt lat="48.99018" lon="6.02877">
        <ele>177.5</ele>
        <time>2021-07-29T09:32:40Z</time>
      </trkpt>
      <trkpt lat="48.99013" lon="6.02876">
        <ele>177.5</ele>
        <time>2021-07-29T09:32:41Z</time>
      </trkpt>
      <trkpt lat="48.99006" lon="6.02873">
        <ele>177.5</ele>
        <time>2021-07-29T09:32:43Z</time>
      </trkpt>
      <trkpt lat="48.99" lon="6.02871">
        <ele>177.5</ele>
        <time>2021-07-29T09:32:44Z</time>
      </trkpt>
      <trkpt lat="48.98994" lon="6.0287">
        <ele>177.5</ele>
        <time>2021-07-29T09:32:45Z</time>
      </trkpt>
      <trkpt lat="48.98989" lon="6.02869">
        <ele>177.5</ele>
        <time>2021-07-29T09:32:47Z</time>
      </trkpt>
      <trkpt lat="48.98982" lon="6.02867">
        <ele>177.5</ele>
        <time>2021-07-29T09:32:48Z</time>
      </trkpt>
      <trkpt lat="48.98972" lon="6.02864">
        <ele>177.5</ele>
        <time>2021-07-29T09:32:50Z</time>
      </trkpt>
      <trkpt lat="48.98966" lon="6.02866">
        <ele>177.5</ele>
        <time>2021-07-29T09:32:51Z</time>
      </trkpt>
      <trkpt lat="48.98961" lon="6.02865">
        <ele>177.5</ele>
        <time>2021-07-29T09:32:53Z</time>
      </trkpt>
      <trkpt lat="48.98957" lon="6.02863">
        <ele>177.5</ele>
        <time>2021-07-29T09:32:54Z</time>
      </trkpt>
      <trkpt lat="48.98951" lon="6.02862">
        <ele>177.4</ele>
        <time>2021-07-29T09:32:55Z</time>
      </trkpt>
      <trkpt lat="48.98946" lon="6.02861">
        <ele>177.4</ele>
        <time>2021-07-29T09:32:57Z</time>
      </trkpt>
      <trkpt lat="48.98939" lon="6.02859">
        <ele>177.3</ele>
        <time>2021-07-29T09:32:59Z</time>
      </trkpt>
      <trkpt lat="48.98932" lon="6.02857">
        <ele>177.3</ele>
        <time>2021-07-29T09:33:01Z</time>
      </trkpt>
      <trkpt lat="48.98926" lon="6.02856">
        <ele>177.2</ele>
        <time>2021-07-29T09:33:02Z</time>
      </trkpt>
      <trkpt lat="48.98917" lon="6.02853">
        <ele>177.1</ele>
        <time>2021-07-29T09:33:04Z</time>
      </trkpt>
      <trkpt lat="48.98909" lon="6.02853">
        <ele>177</ele>
        <time>2021-07-29T09:33:06Z</time>
      </trkpt>
      <trkpt lat="48.98898" lon="6.02852">
        <ele>177</ele>
        <time>2021-07-29T09:33:08Z</time>
      </trkpt>
      <trkpt lat="48.9889" lon="6.02852">
        <ele>177</ele>
        <time>2021-07-29T09:33:09Z</time>
      </trkpt>
      <trkpt lat="48.98885" lon="6.02853">
        <ele>177.1</ele>
        <time>2021-07-29T09:33:11Z</time>
      </trkpt>
      <trkpt lat="48.98881" lon="6.02853">
        <ele>177.1</ele>
        <time>2021-07-29T09:33:12Z</time>
      </trkpt>
      <trkpt lat="48.98875" lon="6.02854">
        <ele>177.1</ele>
        <time>2021-07-29T09:33:13Z</time>
      </trkpt>
      <trkpt lat="48.98865" lon="6.02859">
        <ele>177.2</ele>
        <time>2021-07-29T09:33:15Z</time>
      </trkpt>
      <trkpt lat="48.9886" lon="6.02862">
        <ele>177.2</ele>
        <time>2021-07-29T09:33:16Z</time>
      </trkpt>
      <trkpt lat="48.98855" lon="6.02865">
        <ele>177.3</ele>
        <time>2021-07-29T09:33:17Z</time>
      </trkpt>
      <trkpt lat="48.98847" lon="6.02867">
        <ele>177.3</ele>
        <time>2021-07-29T09:33:19Z</time>
      </trkpt>
      <trkpt lat="48.98841" lon="6.02868">
        <ele>177.3</ele>
        <time>2021-07-29T09:33:20Z</time>
      </trkpt>
      <trkpt lat="48.98834" lon="6.0287">
        <ele>177.3</ele>
        <time>2021-07-29T09:33:22Z</time>
      </trkpt>
      <trkpt lat="48.98828" lon="6.02871">
        <ele>177.3</ele>
        <time>2021-07-29T09:33:23Z</time>
      </trkpt>
      <trkpt lat="48.98816" lon="6.02871">
        <ele>177.4</ele>
        <time>2021-07-29T09:33:25Z</time>
      </trkpt>
      <trkpt lat="48.98811" lon="6.0287">
        <ele>177.4</ele>
        <time>2021-07-29T09:33:26Z</time>
      </trkpt>
      <trkpt lat="48.98806" lon="6.02871">
        <ele>177.4</ele>
        <time>2021-07-29T09:33:27Z</time>
      </trkpt>
      <trkpt lat="48.988" lon="6.02872">
        <ele>177.4</ele>
        <time>2021-07-29T09:33:29Z</time>
      </trkpt>
      <trkpt lat="48.98794" lon="6.0287">
        <ele>177.4</ele>
        <time>2021-07-29T09:33:30Z</time>
      </trkpt>
      <trkpt lat="48.98788" lon="6.02868">
        <ele>177.4</ele>
        <time>2021-07-29T09:33:31Z</time>
      </trkpt>
      <trkpt lat="48.98776" lon="6.02865">
        <ele>177.4</ele>
        <time>2021-07-29T09:33:33Z</time>
      </trkpt>
      <trkpt lat="48.9877" lon="6.02867">
        <ele>177.4</ele>
        <time>2021-07-29T09:33:34Z</time>
      </trkpt>
      <trkpt lat="48.98765" lon="6.0287">
        <ele>177.4</ele>
        <time>2021-07-29T09:33:36Z</time>
      </trkpt>
      <trkpt lat="48.98759" lon="6.02871">
        <ele>177.4</ele>
        <time>2021-07-29T09:33:37Z</time>
      </trkpt>
      <trkpt lat="48.98749" lon="6.0287">
        <ele>177.4</ele>
        <time>2021-07-29T09:33:39Z</time>
      </trkpt>
      <trkpt lat="48.98745" lon="6.02869">
        <ele>177.4</ele>
        <time>2021-07-29T09:33:40Z</time>
      </trkpt>
      <trkpt lat="48.98738" lon="6.02868">
        <ele>177.4</ele>
        <time>2021-07-29T09:33:42Z</time>
      </trkpt>
      <trkpt lat="48.9873" lon="6.02872">
        <ele>177.5</ele>
        <time>2021-07-29T09:33:44Z</time>
      </trkpt>
      <trkpt lat="48.98723" lon="6.02877">
        <ele>177.5</ele>
        <time>2021-07-29T09:33:45Z</time>
      </trkpt>
      <trkpt lat="48.98716" lon="6.02879">
        <ele>177.5</ele>
        <time>2021-07-29T09:33:47Z</time>
      </trkpt>
      <trkpt lat="48.9871" lon="6.02881">
        <ele>177.5</ele>
        <time>2021-07-29T09:33:48Z</time>
      </trkpt>
      <trkpt lat="48.98704" lon="6.02883">
        <ele>177.5</ele>
        <time>2021-07-29T09:33:49Z</time>
      </trkpt>
      <trkpt lat="48.98699" lon="6.02888">
        <ele>177.5</ele>
        <time>2021-07-29T09:33:51Z</time>
      </trkpt>
      <trkpt lat="48.98694" lon="6.02897">
        <ele>177.5</ele>
        <time>2021-07-29T09:33:52Z</time>
      </trkpt>
      <trkpt lat="48.9869" lon="6.02899">
        <ele>177.5</ele>
        <time>2021-07-29T09:33:53Z</time>
      </trkpt>
      <trkpt lat="48.98684" lon="6.02899">
        <ele>177.5</ele>
        <time>2021-07-29T09:33:55Z</time>
      </trkpt>
      <trkpt lat="48.98677" lon="6.02905">
        <ele>177.5</ele>
        <time>2021-07-29T09:33:56Z</time>
      </trkpt>
      <trkpt lat="48.98672" lon="6.02909">
        <ele>177.6</ele>
        <time>2021-07-29T09:33:57Z</time>
      </trkpt>
      <trkpt lat="48.98665" lon="6.02914">
        <ele>177.6</ele>
        <time>2021-07-29T09:33:58Z</time>
      </trkpt>
      <trkpt lat="48.98661" lon="6.02919">
        <ele>177.6</ele>
        <time>2021-07-29T09:34:00Z</time>
      </trkpt>
      <trkpt lat="48.98654" lon="6.02921">
        <ele>177.6</ele>
        <time>2021-07-29T09:34:01Z</time>
      </trkpt>
      <trkpt lat="48.98646" lon="6.02924">
        <ele>177.5</ele>
        <time>2021-07-29T09:34:03Z</time>
      </trkpt>
      <trkpt lat="48.9864" lon="6.02927">
        <ele>177.5</ele>
        <time>2021-07-29T09:34:05Z</time>
      </trkpt>
      <trkpt lat="48.98634" lon="6.0293">
        <ele>177.5</ele>
        <time>2021-07-29T09:34:06Z</time>
      </trkpt>
      <trkpt lat="48.98624" lon="6.02933">
        <ele>177.5</ele>
        <time>2021-07-29T09:34:08Z</time>
      </trkpt>
      <trkpt lat="48.98616" lon="6.02936">
        <ele>177.5</ele>
        <time>2021-07-29T09:34:10Z</time>
      </trkpt>
      <trkpt lat="48.98611" lon="6.02937">
        <ele>177.5</ele>
        <time>2021-07-29T09:34:11Z</time>
      </trkpt>
      <trkpt lat="48.98601" lon="6.02942">
        <ele>177.5</ele>
        <time>2021-07-29T09:34:13Z</time>
      </trkpt>
      <trkpt lat="48.98595" lon="6.02944">
        <ele>177.5</ele>
        <time>2021-07-29T09:34:15Z</time>
      </trkpt>
      <trkpt lat="48.98588" lon="6.02947">
        <ele>177.4</ele>
        <time>2021-07-29T09:34:16Z</time>
      </trkpt>
      <trkpt lat="48.98582" lon="6.0295">
        <ele>177.4</ele>
        <time>2021-07-29T09:34:18Z</time>
      </trkpt>
      <trkpt lat="48.98577" lon="6.02953">
        <ele>177.4</ele>
        <time>2021-07-29T09:34:19Z</time>
      </trkpt>
      <trkpt lat="48.98568" lon="6.02954">
        <ele>177.4</ele>
        <time>2021-07-29T09:34:21Z</time>
      </trkpt>
      <trkpt lat="48.98565" lon="6.02958">
        <ele>177.5</ele>
        <time>2021-07-29T09:34:23Z</time>
      </trkpt>
      <trkpt lat="48.98557" lon="6.0296">
        <ele>177.5</ele>
        <time>2021-07-29T09:34:24Z</time>
      </trkpt>
      <trkpt lat="48.98552" lon="6.02962">
        <ele>177.5</ele>
        <time>2021-07-29T09:34:25Z</time>
      </trkpt>
      <trkpt lat="48.98543" lon="6.02965">
        <ele>177.5</ele>
        <time>2021-07-29T09:34:27Z</time>
      </trkpt>
      <trkpt lat="48.98535" lon="6.02969">
        <ele>177.5</ele>
        <time>2021-07-29T09:34:29Z</time>
      </trkpt>
      <trkpt lat="48.98528" lon="6.02972">
        <ele>177.5</ele>
        <time>2021-07-29T09:34:30Z</time>
      </trkpt>
      <trkpt lat="48.98521" lon="6.02972">
        <ele>177.4</ele>
        <time>2021-07-29T09:34:32Z</time>
      </trkpt>
      <trkpt lat="48.98516" lon="6.02975">
        <ele>177.3</ele>
        <time>2021-07-29T09:34:33Z</time>
      </trkpt>
      <trkpt lat="48.9851" lon="6.0298">
        <ele>177.2</ele>
        <time>2021-07-29T09:34:35Z</time>
      </trkpt>
      <trkpt lat="48.98508" lon="6.02982">
        <ele>177.2</ele>
        <time>2021-07-29T09:34:36Z</time>
      </trkpt>
      <trkpt lat="48.98505" lon="6.02987">
        <ele>177.2</ele>
        <time>2021-07-29T09:34:37Z</time>
      </trkpt>
      <trkpt lat="48.98504" lon="6.02988">
        <ele>177.1</ele>
        <time>2021-07-29T09:34:38Z</time>
      </trkpt>
      <trkpt lat="48.985" lon="6.02994">
        <ele>177.1</ele>
        <time>2021-07-29T09:34:40Z</time>
      </trkpt>
      <trkpt lat="48.98496" lon="6.03001">
        <ele>177.2</ele>
        <time>2021-07-29T09:34:41Z</time>
      </trkpt>
      <trkpt lat="48.98491" lon="6.03008">
        <ele>177.3</ele>
        <time>2021-07-29T09:34:43Z</time>
      </trkpt>
      <trkpt lat="48.98485" lon="6.03016">
        <ele>177.6</ele>
        <time>2021-07-29T09:34:44Z</time>
      </trkpt>
      <trkpt lat="48.9848" lon="6.03021">
        <ele>177.7</ele>
        <time>2021-07-29T09:34:46Z</time>
      </trkpt>
      <trkpt lat="48.98477" lon="6.03023">
        <ele>177.7</ele>
        <time>2021-07-29T09:34:47Z</time>
      </trkpt>
      <trkpt lat="48.98474" lon="6.03024">
        <ele>177.8</ele>
        <time>2021-07-29T09:34:48Z</time>
      </trkpt>
      <trkpt lat="48.98469" lon="6.03026">
        <ele>177.9</ele>
        <time>2021-07-29T09:34:50Z</time>
      </trkpt>
      <trkpt lat="48.98465" lon="6.03028">
        <ele>177.9</ele>
        <time>2021-07-29T09:34:52Z</time>
      </trkpt>
      <trkpt lat="48.98462" lon="6.03028">
        <ele>177.9</ele>
        <time>2021-07-29T09:34:53Z</time>
      </trkpt>
      <trkpt lat="48.98461" lon="6.03028">
        <ele>178</ele>
        <time>2021-07-29T09:34:54Z</time>
      </trkpt>
      <trkpt lat="48.98457" lon="6.03028">
        <ele>178</ele>
        <time>2021-07-29T09:34:55Z</time>
      </trkpt>
      <trkpt lat="48.98455" lon="6.03028">
        <ele>178</ele>
        <time>2021-07-29T09:34:56Z</time>
      </trkpt>
      <trkpt lat="48.98452" lon="6.03027">
        <ele>178</ele>
        <time>2021-07-29T09:34:58Z</time>
      </trkpt>
      <trkpt lat="48.98449" lon="6.03027">
        <ele>178.1</ele>
        <time>2021-07-29T09:34:59Z</time>
      </trkpt>
      <trkpt lat="48.98446" lon="6.03026">
        <ele>178.1</ele>
        <time>2021-07-29T09:35:00Z</time>
      </trkpt>
      <trkpt lat="48.98443" lon="6.03026">
        <ele>178.1</ele>
        <time>2021-07-29T09:35:01Z</time>
      </trkpt>
      <trkpt lat="48.98439" lon="6.03026">
        <ele>178.1</ele>
        <time>2021-07-29T09:35:02Z</time>
      </trkpt>
      <trkpt lat="48.98436" lon="6.03027">
        <ele>178.1</ele>
        <time>2021-07-29T09:35:04Z</time>
      </trkpt>
      <trkpt lat="48.98432" lon="6.03028">
        <ele>178.1</ele>
        <time>2021-07-29T09:35:05Z</time>
      </trkpt>
      <trkpt lat="48.98428" lon="6.03032">
        <ele>178.1</ele>
        <time>2021-07-29T09:35:07Z</time>
      </trkpt>
      <trkpt lat="48.98426" lon="6.03034">
        <ele>178.1</ele>
        <time>2021-07-29T09:35:08Z</time>
      </trkpt>
      <trkpt lat="48.98425" lon="6.03035">
        <ele>178.1</ele>
        <time>2021-07-29T09:35:09Z</time>
      </trkpt>
      <trkpt lat="48.98424" lon="6.03039">
        <ele>178</ele>
        <time>2021-07-29T09:35:10Z</time>
      </trkpt>
      <trkpt lat="48.98423" lon="6.03042">
        <ele>178</ele>
        <time>2021-07-29T09:35:12Z</time>
      </trkpt>
      <trkpt lat="48.98424" lon="6.03048">
        <ele>178</ele>
        <time>2021-07-29T09:35:13Z</time>
      </trkpt>
      <trkpt lat="48.98424" lon="6.0305">
        <ele>178</ele>
        <time>2021-07-29T09:35:14Z</time>
      </trkpt>
      <trkpt lat="48.98425" lon="6.03058">
        <ele>178</ele>
        <time>2021-07-29T09:35:16Z</time>
      </trkpt>
      <trkpt lat="48.98425" lon="6.03064">
        <ele>178.1</ele>
        <time>2021-07-29T09:35:18Z</time>
      </trkpt>
      <trkpt lat="48.98425" lon="6.03069">
        <ele>178.1</ele>
        <time>2021-07-29T09:35:19Z</time>
      </trkpt>
      <trkpt lat="48.98425" lon="6.03071">
        <ele>178.1</ele>
        <time>2021-07-29T09:35:20Z</time>
      </trkpt>
      <trkpt lat="48.98425" lon="6.03077">
        <ele>178.1</ele>
        <time>2021-07-29T09:35:22Z</time>
      </trkpt>
      <trkpt lat="48.98425" lon="6.03079">
        <ele>178.1</ele>
        <time>2021-07-29T09:35:23Z</time>
      </trkpt>
      <trkpt lat="48.98425" lon="6.03081">
        <ele>178.1</ele>
        <time>2021-07-29T09:35:24Z</time>
      </trkpt>
      <trkpt lat="48.98426" lon="6.03081">
        <ele>178.1</ele>
        <time>2021-07-29T09:35:25Z</time>
      </trkpt>
      <trkpt lat="48.98426" lon="6.03081">
        <ele>178.1</ele>
        <time>2021-07-29T09:35:27Z</time>
      </trkpt>
      <trkpt lat="48.98426" lon="6.03081">
        <ele>178.1</ele>
        <time>2021-07-29T09:35:28Z</time>
      </trkpt>
      <trkpt lat="48.98426" lon="6.03081">
        <ele>178.1</ele>
        <time>2021-07-29T09:35:29Z</time>
      </trkpt>
      <trkpt lat="48.98426" lon="6.03082">
        <ele>178.1</ele>
        <time>2021-07-29T09:35:30Z</time>
      </trkpt>
      <trkpt lat="48.98426" lon="6.03082">
        <ele>178.1</ele>
        <time>2021-07-29T09:35:32Z</time>
      </trkpt>
      <trkpt lat="48.98426" lon="6.03083">
        <ele>178.1</ele>
        <time>2021-07-29T09:35:34Z</time>
      </trkpt>
      <trkpt lat="48.98428" lon="6.03067">
        <ele>178.1</ele>
        <time>2021-07-29T09:36:35Z</time>
      </trkpt>
      <trkpt lat="48.98424" lon="6.03053">
        <ele>178</ele>
        <time>2021-07-29T09:36:37Z</time>
      </trkpt>
      <trkpt lat="48.9842" lon="6.03046">
        <ele>178</ele>
        <time>2021-07-29T09:36:38Z</time>
      </trkpt>
      <trkpt lat="48.98416" lon="6.0304">
        <ele>178.1</ele>
        <time>2021-07-29T09:36:39Z</time>
      </trkpt>
      <trkpt lat="48.98411" lon="6.03036">
        <ele>178.1</ele>
        <time>2021-07-29T09:36:40Z</time>
      </trkpt>
      <trkpt lat="48.98404" lon="6.03034">
        <ele>178.1</ele>
        <time>2021-07-29T09:36:41Z</time>
      </trkpt>
      <trkpt lat="48.98399" lon="6.03033">
        <ele>178.2</ele>
        <time>2021-07-29T09:36:42Z</time>
      </trkpt>
      <trkpt lat="48.98392" lon="6.03036">
        <ele>178.2</ele>
        <time>2021-07-29T09:36:43Z</time>
      </trkpt>
      <trkpt lat="48.98385" lon="6.03038">
        <ele>178.3</ele>
        <time>2021-07-29T09:36:45Z</time>
      </trkpt>
      <trkpt lat="48.98384" lon="6.0304">
        <ele>178.3</ele>
        <time>2021-07-29T09:36:46Z</time>
      </trkpt>
      <trkpt lat="48.98372" lon="6.03042">
        <ele>178.4</ele>
        <time>2021-07-29T09:36:48Z</time>
      </trkpt>
      <trkpt lat="48.98363" lon="6.03045">
        <ele>178.6</ele>
        <time>2021-07-29T09:36:50Z</time>
      </trkpt>
      <trkpt lat="48.98359" lon="6.03046">
        <ele>178.7</ele>
        <time>2021-07-29T09:36:51Z</time>
      </trkpt>
      <trkpt lat="48.98354" lon="6.03045">
        <ele>178.9</ele>
        <time>2021-07-29T09:36:52Z</time>
      </trkpt>
      <trkpt lat="48.98349" lon="6.03044">
        <ele>179.1</ele>
        <time>2021-07-29T09:36:54Z</time>
      </trkpt>
      <trkpt lat="48.98344" lon="6.03042">
        <ele>179.4</ele>
        <time>2021-07-29T09:36:55Z</time>
      </trkpt>
      <trkpt lat="48.98339" lon="6.0304">
        <ele>179.6</ele>
        <time>2021-07-29T09:36:57Z</time>
      </trkpt>
      <trkpt lat="48.98336" lon="6.03038">
        <ele>179.8</ele>
        <time>2021-07-29T09:36:58Z</time>
      </trkpt>
      <trkpt lat="48.98333" lon="6.03034">
        <ele>179.9</ele>
        <time>2021-07-29T09:36:59Z</time>
      </trkpt>
      <trkpt lat="48.98331" lon="6.03028">
        <ele>180</ele>
        <time>2021-07-29T09:37:01Z</time>
      </trkpt>
      <trkpt lat="48.9833" lon="6.03023">
        <ele>180</ele>
        <time>2021-07-29T09:37:02Z</time>
      </trkpt>
      <trkpt lat="48.9833" lon="6.03018">
        <ele>180</ele>
        <time>2021-07-29T09:37:03Z</time>
      </trkpt>
      <trkpt lat="48.98328" lon="6.0301">
        <ele>179.9</ele>
        <time>2021-07-29T09:37:05Z</time>
      </trkpt>
      <trkpt lat="48.98326" lon="6.03004">
        <ele>179.8</ele>
        <time>2021-07-29T09:37:07Z</time>
      </trkpt>
      <trkpt lat="48.98324" lon="6.02996">
        <ele>179.6</ele>
        <time>2021-07-29T09:37:09Z</time>
      </trkpt>
      <trkpt lat="48.98322" lon="6.02991">
        <ele>179.4</ele>
        <time>2021-07-29T09:37:10Z</time>
      </trkpt>
      <trkpt lat="48.98319" lon="6.02976">
        <ele>178.8</ele>
        <time>2021-07-29T09:37:12Z</time>
      </trkpt>
      <trkpt lat="48.98313" lon="6.02962">
        <ele>178.2</ele>
        <time>2021-07-29T09:37:14Z</time>
      </trkpt>
      <trkpt lat="48.98302" lon="6.02952">
        <ele>177.7</ele>
        <time>2021-07-29T09:37:16Z</time>
      </trkpt>
      <trkpt lat="48.98296" lon="6.0295">
        <ele>177.6</ele>
        <time>2021-07-29T09:37:17Z</time>
      </trkpt>
      <trkpt lat="48.98291" lon="6.02947">
        <ele>177.4</ele>
        <time>2021-07-29T09:37:18Z</time>
      </trkpt>
      <trkpt lat="48.9828" lon="6.02942">
        <ele>177.2</ele>
        <time>2021-07-29T09:37:20Z</time>
      </trkpt>
      <trkpt lat="48.98272" lon="6.02936">
        <ele>177</ele>
        <time>2021-07-29T09:37:22Z</time>
      </trkpt>
      <trkpt lat="48.98268" lon="6.02934">
        <ele>176.9</ele>
        <time>2021-07-29T09:37:23Z</time>
      </trkpt>
      <trkpt lat="48.9826" lon="6.0293">
        <ele>176.8</ele>
        <time>2021-07-29T09:37:25Z</time>
      </trkpt>
      <trkpt lat="48.98251" lon="6.02926">
        <ele>176.7</ele>
        <time>2021-07-29T09:37:27Z</time>
      </trkpt>
      <trkpt lat="48.98241" lon="6.02921">
        <ele>176.6</ele>
        <time>2021-07-29T09:37:29Z</time>
      </trkpt>
      <trkpt lat="48.9823" lon="6.02917">
        <ele>176.6</ele>
        <time>2021-07-29T09:37:31Z</time>
      </trkpt>
      <trkpt lat="48.98225" lon="6.02914">
        <ele>176.7</ele>
        <time>2021-07-29T09:37:32Z</time>
      </trkpt>
      <trkpt lat="48.98216" lon="6.02909">
        <ele>176.7</ele>
        <time>2021-07-29T09:37:34Z</time>
      </trkpt>
      <trkpt lat="48.98208" lon="6.02906">
        <ele>176.8</ele>
        <time>2021-07-29T09:37:36Z</time>
      </trkpt>
      <trkpt lat="48.98203" lon="6.02904">
        <ele>176.8</ele>
        <time>2021-07-29T09:37:37Z</time>
      </trkpt>
      <trkpt lat="48.982" lon="6.02902">
        <ele>176.9</ele>
        <time>2021-07-29T09:37:38Z</time>
      </trkpt>
      <trkpt lat="48.98193" lon="6.02899">
        <ele>177</ele>
        <time>2021-07-29T09:37:40Z</time>
      </trkpt>
      <trkpt lat="48.98188" lon="6.02897">
        <ele>177</ele>
        <time>2021-07-29T09:37:41Z</time>
      </trkpt>
      <trkpt lat="48.98185" lon="6.02895">
        <ele>177.1</ele>
        <time>2021-07-29T09:37:42Z</time>
      </trkpt>
      <trkpt lat="48.98179" lon="6.02892">
        <ele>177.1</ele>
        <time>2021-07-29T09:37:44Z</time>
      </trkpt>
      <trkpt lat="48.98174" lon="6.02889">
        <ele>177.2</ele>
        <time>2021-07-29T09:37:45Z</time>
      </trkpt>
      <trkpt lat="48.98168" lon="6.02886">
        <ele>177.3</ele>
        <time>2021-07-29T09:37:47Z</time>
      </trkpt>
      <trkpt lat="48.98161" lon="6.02882">
        <ele>177.3</ele>
        <time>2021-07-29T09:37:49Z</time>
      </trkpt>
      <trkpt lat="48.98158" lon="6.02881">
        <ele>177.4</ele>
        <time>2021-07-29T09:37:50Z</time>
      </trkpt>
      <trkpt lat="48.98155" lon="6.02879">
        <ele>177.4</ele>
        <time>2021-07-29T09:37:52Z</time>
      </trkpt>
      <trkpt lat="48.98155" lon="6.02878">
        <ele>177.4</ele>
        <time>2021-07-29T09:37:54Z</time>
      </trkpt>
      <trkpt lat="48.98155" lon="6.02878">
        <ele>177.4</ele>
        <time>2021-07-29T09:37:55Z</time>
      </trkpt>
      <trkpt lat="48.98154" lon="6.02879">
        <ele>177.4</ele>
        <time>2021-07-29T09:37:56Z</time>
      </trkpt>
      <trkpt lat="48.98152" lon="6.02882">
        <ele>177.4</ele>
        <time>2021-07-29T09:37:58Z</time>
      </trkpt>
      <trkpt lat="48.98149" lon="6.02881">
        <ele>177.4</ele>
        <time>2021-07-29T09:37:59Z</time>
      </trkpt>
      <trkpt lat="48.98145" lon="6.0288">
        <ele>177.4</ele>
        <time>2021-07-29T09:38:00Z</time>
      </trkpt>
      <trkpt lat="48.9814" lon="6.02879">
        <ele>177.4</ele>
        <time>2021-07-29T09:38:02Z</time>
      </trkpt>
      <trkpt lat="48.98134" lon="6.02875">
        <ele>177.4</ele>
        <time>2021-07-29T09:38:03Z</time>
      </trkpt>
      <trkpt lat="48.98128" lon="6.02872">
        <ele>177.3</ele>
        <time>2021-07-29T09:38:05Z</time>
      </trkpt>
      <trkpt lat="48.98124" lon="6.0287">
        <ele>177.3</ele>
        <time>2021-07-29T09:38:06Z</time>
      </trkpt>
      <trkpt lat="48.98117" lon="6.02868">
        <ele>177.2</ele>
        <time>2021-07-29T09:38:07Z</time>
      </trkpt>
      <trkpt lat="48.98113" lon="6.02866">
        <ele>177.2</ele>
        <time>2021-07-29T09:38:08Z</time>
      </trkpt>
      <trkpt lat="48.98108" lon="6.02864">
        <ele>177.2</ele>
        <time>2021-07-29T09:38:10Z</time>
      </trkpt>
      <trkpt lat="48.98104" lon="6.02861">
        <ele>177.1</ele>
        <time>2021-07-29T09:38:11Z</time>
      </trkpt>
      <trkpt lat="48.981" lon="6.02859">
        <ele>177.1</ele>
        <time>2021-07-29T09:38:12Z</time>
      </trkpt>
      <trkpt lat="48.98096" lon="6.02858">
        <ele>177.1</ele>
        <time>2021-07-29T09:38:13Z</time>
      </trkpt>
      <trkpt lat="48.98091" lon="6.02856">
        <ele>177</ele>
        <time>2021-07-29T09:38:14Z</time>
      </trkpt>
      <trkpt lat="48.98085" lon="6.02854">
        <ele>177</ele>
        <time>2021-07-29T09:38:15Z</time>
      </trkpt>
      <trkpt lat="48.98081" lon="6.02853">
        <ele>177</ele>
        <time>2021-07-29T09:38:16Z</time>
      </trkpt>
      <trkpt lat="48.98077" lon="6.02853">
        <ele>177</ele>
        <time>2021-07-29T09:38:17Z</time>
      </trkpt>
      <trkpt lat="48.98072" lon="6.02852">
        <ele>176.9</ele>
        <time>2021-07-29T09:38:18Z</time>
      </trkpt>
      <trkpt lat="48.98067" lon="6.02851">
        <ele>176.9</ele>
        <time>2021-07-29T09:38:19Z</time>
      </trkpt>
      <trkpt lat="48.98057" lon="6.02851">
        <ele>176.8</ele>
        <time>2021-07-29T09:38:21Z</time>
      </trkpt>
      <trkpt lat="48.98049" lon="6.02853">
        <ele>176.8</ele>
        <time>2021-07-29T09:38:22Z</time>
      </trkpt>
      <trkpt lat="48.98046" lon="6.02858">
        <ele>176.7</ele>
        <time>2021-07-29T09:38:24Z</time>
      </trkpt>
      <trkpt lat="48.98039" lon="6.02851">
        <ele>176.7</ele>
        <time>2021-07-29T09:38:25Z</time>
      </trkpt>
      <trkpt lat="48.98033" lon="6.02847">
        <ele>176.6</ele>
        <time>2021-07-29T09:38:27Z</time>
      </trkpt>
      <trkpt lat="48.98025" lon="6.02845">
        <ele>176.6</ele>
        <time>2021-07-29T09:38:28Z</time>
      </trkpt>
      <trkpt lat="48.9802" lon="6.02845">
        <ele>176.5</ele>
        <time>2021-07-29T09:38:30Z</time>
      </trkpt>
      <trkpt lat="48.98014" lon="6.02846">
        <ele>176.5</ele>
        <time>2021-07-29T09:38:31Z</time>
      </trkpt>
      <trkpt lat="48.9801" lon="6.02847">
        <ele>176.5</ele>
        <time>2021-07-29T09:38:32Z</time>
      </trkpt>
      <trkpt lat="48.97998" lon="6.02849">
        <ele>176.4</ele>
        <time>2021-07-29T09:38:34Z</time>
      </trkpt>
      <trkpt lat="48.97993" lon="6.02849">
        <ele>176.4</ele>
        <time>2021-07-29T09:38:35Z</time>
      </trkpt>
      <trkpt lat="48.97989" lon="6.0285">
        <ele>176.4</ele>
        <time>2021-07-29T09:38:36Z</time>
      </trkpt>
      <trkpt lat="48.97984" lon="6.02851">
        <ele>176.3</ele>
        <time>2021-07-29T09:38:37Z</time>
      </trkpt>
      <trkpt lat="48.97981" lon="6.02853">
        <ele>176.3</ele>
        <time>2021-07-29T09:38:38Z</time>
      </trkpt>
      <trkpt lat="48.97975" lon="6.02854">
        <ele>176.3</ele>
        <time>2021-07-29T09:38:40Z</time>
      </trkpt>
      <trkpt lat="48.97967" lon="6.02853">
        <ele>176.3</ele>
        <time>2021-07-29T09:38:42Z</time>
      </trkpt>
      <trkpt lat="48.97963" lon="6.02851">
        <ele>176.3</ele>
        <time>2021-07-29T09:38:43Z</time>
      </trkpt>
      <trkpt lat="48.97958" lon="6.0285">
        <ele>176.3</ele>
        <time>2021-07-29T09:38:44Z</time>
      </trkpt>
      <trkpt lat="48.97954" lon="6.02849">
        <ele>176.3</ele>
        <time>2021-07-29T09:38:45Z</time>
      </trkpt>
      <trkpt lat="48.97947" lon="6.02847">
        <ele>176.3</ele>
        <time>2021-07-29T09:38:47Z</time>
      </trkpt>
      <trkpt lat="48.97944" lon="6.02846">
        <ele>176.3</ele>
        <time>2021-07-29T09:38:48Z</time>
      </trkpt>
      <trkpt lat="48.97938" lon="6.02845">
        <ele>176.3</ele>
        <time>2021-07-29T09:38:49Z</time>
      </trkpt>
      <trkpt lat="48.97933" lon="6.02844">
        <ele>176.3</ele>
        <time>2021-07-29T09:38:50Z</time>
      </trkpt>
      <trkpt lat="48.97928" lon="6.02843">
        <ele>176.3</ele>
        <time>2021-07-29T09:38:51Z</time>
      </trkpt>
      <trkpt lat="48.97922" lon="6.02841">
        <ele>176.3</ele>
        <time>2021-07-29T09:38:53Z</time>
      </trkpt>
      <trkpt lat="48.97916" lon="6.02838">
        <ele>176.3</ele>
        <time>2021-07-29T09:38:54Z</time>
      </trkpt>
      <trkpt lat="48.9791" lon="6.02837">
        <ele>176.3</ele>
        <time>2021-07-29T09:38:56Z</time>
      </trkpt>
      <trkpt lat="48.97906" lon="6.02836">
        <ele>176.4</ele>
        <time>2021-07-29T09:38:57Z</time>
      </trkpt>
      <trkpt lat="48.97901" lon="6.02835">
        <ele>176.4</ele>
        <time>2021-07-29T09:38:58Z</time>
      </trkpt>
      <trkpt lat="48.97897" lon="6.02834">
        <ele>176.4</ele>
        <time>2021-07-29T09:38:59Z</time>
      </trkpt>
      <trkpt lat="48.97891" lon="6.02834">
        <ele>176.4</ele>
        <time>2021-07-29T09:39:00Z</time>
      </trkpt>
      <trkpt lat="48.97884" lon="6.02834">
        <ele>176.5</ele>
        <time>2021-07-29T09:39:02Z</time>
      </trkpt>
      <trkpt lat="48.97879" lon="6.02834">
        <ele>176.5</ele>
        <time>2021-07-29T09:39:03Z</time>
      </trkpt>
      <trkpt lat="48.97875" lon="6.02834">
        <ele>176.5</ele>
        <time>2021-07-29T09:39:04Z</time>
      </trkpt>
      <trkpt lat="48.97871" lon="6.02834">
        <ele>176.5</ele>
        <time>2021-07-29T09:39:05Z</time>
      </trkpt>
      <trkpt lat="48.97866" lon="6.02835">
        <ele>176.5</ele>
        <time>2021-07-29T09:39:06Z</time>
      </trkpt>
      <trkpt lat="48.97861" lon="6.02836">
        <ele>176.6</ele>
        <time>2021-07-29T09:39:07Z</time>
      </trkpt>
      <trkpt lat="48.97856" lon="6.02839">
        <ele>176.6</ele>
        <time>2021-07-29T09:39:09Z</time>
      </trkpt>
      <trkpt lat="48.97852" lon="6.02841">
        <ele>176.6</ele>
        <time>2021-07-29T09:39:10Z</time>
      </trkpt>
      <trkpt lat="48.97847" lon="6.02843">
        <ele>176.6</ele>
        <time>2021-07-29T09:39:11Z</time>
      </trkpt>
      <trkpt lat="48.97843" lon="6.02845">
        <ele>176.6</ele>
        <time>2021-07-29T09:39:12Z</time>
      </trkpt>
      <trkpt lat="48.97834" lon="6.02849">
        <ele>176.6</ele>
        <time>2021-07-29T09:39:14Z</time>
      </trkpt>
      <trkpt lat="48.97828" lon="6.02852">
        <ele>176.6</ele>
        <time>2021-07-29T09:39:15Z</time>
      </trkpt>
      <trkpt lat="48.97824" lon="6.02856">
        <ele>176.6</ele>
        <time>2021-07-29T09:39:17Z</time>
      </trkpt>
      <trkpt lat="48.97819" lon="6.02859">
        <ele>176.7</ele>
        <time>2021-07-29T09:39:18Z</time>
      </trkpt>
      <trkpt lat="48.97813" lon="6.02862">
        <ele>176.7</ele>
        <time>2021-07-29T09:39:20Z</time>
      </trkpt>
      <trkpt lat="48.97809" lon="6.02864">
        <ele>176.8</ele>
        <time>2021-07-29T09:39:21Z</time>
      </trkpt>
      <trkpt lat="48.97804" lon="6.02869">
        <ele>176.8</ele>
        <time>2021-07-29T09:39:22Z</time>
      </trkpt>
      <trkpt lat="48.978" lon="6.02875">
        <ele>176.9</ele>
        <time>2021-07-29T09:39:24Z</time>
      </trkpt>
      <trkpt lat="48.97796" lon="6.02878">
        <ele>177</ele>
        <time>2021-07-29T09:39:26Z</time>
      </trkpt>
      <trkpt lat="48.9779" lon="6.02881">
        <ele>177.1</ele>
        <time>2021-07-29T09:39:27Z</time>
      </trkpt>
      <trkpt lat="48.97781" lon="6.02887">
        <ele>177.2</ele>
        <time>2021-07-29T09:39:29Z</time>
      </trkpt>
      <trkpt lat="48.97777" lon="6.02888">
        <ele>177.2</ele>
        <time>2021-07-29T09:39:30Z</time>
      </trkpt>
      <trkpt lat="48.97773" lon="6.02892">
        <ele>177.3</ele>
        <time>2021-07-29T09:39:31Z</time>
      </trkpt>
      <trkpt lat="48.97769" lon="6.02896">
        <ele>177.3</ele>
        <time>2021-07-29T09:39:33Z</time>
      </trkpt>
      <trkpt lat="48.97766" lon="6.02899">
        <ele>177.4</ele>
        <time>2021-07-29T09:39:34Z</time>
      </trkpt>
      <trkpt lat="48.97763" lon="6.02906">
        <ele>177.4</ele>
        <time>2021-07-29T09:39:35Z</time>
      </trkpt>
      <trkpt lat="48.9776" lon="6.02911">
        <ele>177.5</ele>
        <time>2021-07-29T09:39:37Z</time>
      </trkpt>
      <trkpt lat="48.97759" lon="6.02916">
        <ele>177.5</ele>
        <time>2021-07-29T09:39:38Z</time>
      </trkpt>
      <trkpt lat="48.97759" lon="6.02922">
        <ele>177.6</ele>
        <time>2021-07-29T09:39:39Z</time>
      </trkpt>
      <trkpt lat="48.97762" lon="6.02928">
        <ele>177.7</ele>
        <time>2021-07-29T09:39:41Z</time>
      </trkpt>
      <trkpt lat="48.97767" lon="6.02936">
        <ele>177.5</ele>
        <time>2021-07-29T09:39:42Z</time>
      </trkpt>
      <trkpt lat="48.9777" lon="6.02943">
        <ele>177.4</ele>
        <time>2021-07-29T09:39:44Z</time>
      </trkpt>
      <trkpt lat="48.97772" lon="6.0295">
        <ele>177.2</ele>
        <time>2021-07-29T09:39:45Z</time>
      </trkpt>
      <trkpt lat="48.97774" lon="6.02963">
        <ele>177.1</ele>
        <time>2021-07-29T09:39:47Z</time>
      </trkpt>
      <trkpt lat="48.97769" lon="6.02981">
        <ele>176.8</ele>
        <time>2021-07-29T09:39:49Z</time>
      </trkpt>
      <trkpt lat="48.97766" lon="6.02987">
        <ele>176.7</ele>
        <time>2021-07-29T09:39:50Z</time>
      </trkpt>
      <trkpt lat="48.9776" lon="6.02996">
        <ele>176.7</ele>
        <time>2021-07-29T09:39:52Z</time>
      </trkpt>
      <trkpt lat="48.97752" lon="6.03003">
        <ele>176.7</ele>
        <time>2021-07-29T09:39:54Z</time>
      </trkpt>
      <trkpt lat="48.97747" lon="6.03006">
        <ele>176.7</ele>
        <time>2021-07-29T09:39:55Z</time>
      </trkpt>
      <trkpt lat="48.97743" lon="6.03008">
        <ele>176.7</ele>
        <time>2021-07-29T09:39:56Z</time>
      </trkpt>
      <trkpt lat="48.97735" lon="6.03014">
        <ele>176.7</ele>
        <time>2021-07-29T09:39:58Z</time>
      </trkpt>
      <trkpt lat="48.97729" lon="6.03019">
        <ele>176.8</ele>
        <time>2021-07-29T09:40:00Z</time>
      </trkpt>
      <trkpt lat="48.97718" lon="6.03021">
        <ele>177</ele>
        <time>2021-07-29T09:40:02Z</time>
      </trkpt>
      <trkpt lat="48.97707" lon="6.0303">
        <ele>177.1</ele>
        <time>2021-07-29T09:40:04Z</time>
      </trkpt>
      <trkpt lat="48.97703" lon="6.03035">
        <ele>177.2</ele>
        <time>2021-07-29T09:40:05Z</time>
      </trkpt>
      <trkpt lat="48.97701" lon="6.0304">
        <ele>177.2</ele>
        <time>2021-07-29T09:40:06Z</time>
      </trkpt>
      <trkpt lat="48.97699" lon="6.03046">
        <ele>177.3</ele>
        <time>2021-07-29T09:40:07Z</time>
      </trkpt>
      <trkpt lat="48.97696" lon="6.03053">
        <ele>177.3</ele>
        <time>2021-07-29T09:40:09Z</time>
      </trkpt>
      <trkpt lat="48.97696" lon="6.03057">
        <ele>177.3</ele>
        <time>2021-07-29T09:40:10Z</time>
      </trkpt>
      <trkpt lat="48.97696" lon="6.03061">
        <ele>177.4</ele>
        <time>2021-07-29T09:40:12Z</time>
      </trkpt>
      <trkpt lat="48.97696" lon="6.03063">
        <ele>177.3</ele>
        <time>2021-07-29T09:40:13Z</time>
      </trkpt>
      <trkpt lat="48.97696" lon="6.03066">
        <ele>177.3</ele>
        <time>2021-07-29T09:40:14Z</time>
      </trkpt>
      <trkpt lat="48.97694" lon="6.0307">
        <ele>177.2</ele>
        <time>2021-07-29T09:40:16Z</time>
      </trkpt>
      <trkpt lat="48.97691" lon="6.03073">
        <ele>177.2</ele>
        <time>2021-07-29T09:40:17Z</time>
      </trkpt>
      <trkpt lat="48.97688" lon="6.03074">
        <ele>177.2</ele>
        <time>2021-07-29T09:40:18Z</time>
      </trkpt>
      <trkpt lat="48.97685" lon="6.03075">
        <ele>177.1</ele>
        <time>2021-07-29T09:40:19Z</time>
      </trkpt>
      <trkpt lat="48.97682" lon="6.03076">
        <ele>177.1</ele>
        <time>2021-07-29T09:40:20Z</time>
      </trkpt>
      <trkpt lat="48.97678" lon="6.03076">
        <ele>177.1</ele>
        <time>2021-07-29T09:40:22Z</time>
      </trkpt>
      <trkpt lat="48.97677" lon="6.03076">
        <ele>177.1</ele>
        <time>2021-07-29T09:40:23Z</time>
      </trkpt>
      <trkpt lat="48.97673" lon="6.03075">
        <ele>177.1</ele>
        <time>2021-07-29T09:40:24Z</time>
      </trkpt>
      <trkpt lat="48.97669" lon="6.03074">
        <ele>177</ele>
        <time>2021-07-29T09:40:25Z</time>
      </trkpt>
      <trkpt lat="48.97665" lon="6.03073">
        <ele>177</ele>
        <time>2021-07-29T09:40:26Z</time>
      </trkpt>
      <trkpt lat="48.9766" lon="6.03071">
        <ele>177</ele>
        <time>2021-07-29T09:40:27Z</time>
      </trkpt>
      <trkpt lat="48.97656" lon="6.03069">
        <ele>177</ele>
        <time>2021-07-29T09:40:28Z</time>
      </trkpt>
      <trkpt lat="48.97647" lon="6.03067">
        <ele>176.9</ele>
        <time>2021-07-29T09:40:30Z</time>
      </trkpt>
      <trkpt lat="48.97638" lon="6.03065">
        <ele>176.9</ele>
        <time>2021-07-29T09:40:32Z</time>
      </trkpt>
      <trkpt lat="48.97629" lon="6.03064">
        <ele>176.9</ele>
        <time>2021-07-29T09:40:34Z</time>
      </trkpt>
      <trkpt lat="48.97625" lon="6.03063">
        <ele>176.9</ele>
        <time>2021-07-29T09:40:35Z</time>
      </trkpt>
      <trkpt lat="48.97617" lon="6.03061">
        <ele>176.9</ele>
        <time>2021-07-29T09:40:37Z</time>
      </trkpt>
      <trkpt lat="48.9761" lon="6.03061">
        <ele>176.9</ele>
        <time>2021-07-29T09:40:38Z</time>
      </trkpt>
      <trkpt lat="48.97604" lon="6.03061">
        <ele>176.9</ele>
        <time>2021-07-29T09:40:40Z</time>
      </trkpt>
      <trkpt lat="48.97599" lon="6.0306">
        <ele>176.9</ele>
        <time>2021-07-29T09:40:41Z</time>
      </trkpt>
      <trkpt lat="48.97595" lon="6.0306">
        <ele>176.9</ele>
        <time>2021-07-29T09:40:42Z</time>
      </trkpt>
      <trkpt lat="48.97591" lon="6.0306">
        <ele>176.9</ele>
        <time>2021-07-29T09:40:43Z</time>
      </trkpt>
      <trkpt lat="48.97587" lon="6.03059">
        <ele>176.9</ele>
        <time>2021-07-29T09:40:44Z</time>
      </trkpt>
      <trkpt lat="48.97583" lon="6.0306">
        <ele>176.9</ele>
        <time>2021-07-29T09:40:45Z</time>
      </trkpt>
      <trkpt lat="48.9758" lon="6.0306">
        <ele>176.9</ele>
        <time>2021-07-29T09:40:46Z</time>
      </trkpt>
      <trkpt lat="48.9757" lon="6.03062">
        <ele>176.9</ele>
        <time>2021-07-29T09:40:48Z</time>
      </trkpt>
      <trkpt lat="48.97564" lon="6.03063">
        <ele>176.9</ele>
        <time>2021-07-29T09:40:49Z</time>
      </trkpt>
      <trkpt lat="48.97559" lon="6.03063">
        <ele>176.9</ele>
        <time>2021-07-29T09:40:51Z</time>
      </trkpt>
      <trkpt lat="48.97553" lon="6.03064">
        <ele>176.9</ele>
        <time>2021-07-29T09:40:52Z</time>
      </trkpt>
      <trkpt lat="48.97542" lon="6.03067">
        <ele>176.9</ele>
        <time>2021-07-29T09:40:54Z</time>
      </trkpt>
      <trkpt lat="48.97537" lon="6.03066">
        <ele>176.9</ele>
        <time>2021-07-29T09:40:55Z</time>
      </trkpt>
      <trkpt lat="48.9753" lon="6.03063">
        <ele>176.9</ele>
        <time>2021-07-29T09:40:56Z</time>
      </trkpt>
      <trkpt lat="48.97524" lon="6.03064">
        <ele>176.9</ele>
        <time>2021-07-29T09:40:58Z</time>
      </trkpt>
      <trkpt lat="48.9752" lon="6.03065">
        <ele>176.9</ele>
        <time>2021-07-29T09:40:59Z</time>
      </trkpt>
      <trkpt lat="48.97516" lon="6.03065">
        <ele>176.9</ele>
        <time>2021-07-29T09:41:00Z</time>
      </trkpt>
      <trkpt lat="48.97513" lon="6.03065">
        <ele>176.9</ele>
        <time>2021-07-29T09:41:01Z</time>
      </trkpt>
      <trkpt lat="48.97509" lon="6.03064">
        <ele>176.9</ele>
        <time>2021-07-29T09:41:02Z</time>
      </trkpt>
      <trkpt lat="48.97502" lon="6.03063">
        <ele>176.9</ele>
        <time>2021-07-29T09:41:04Z</time>
      </trkpt>
      <trkpt lat="48.97498" lon="6.03062">
        <ele>177</ele>
        <time>2021-07-29T09:41:05Z</time>
      </trkpt>
      <trkpt lat="48.97494" lon="6.0306">
        <ele>177</ele>
        <time>2021-07-29T09:41:06Z</time>
      </trkpt>
      <trkpt lat="48.97489" lon="6.03059">
        <ele>177</ele>
        <time>2021-07-29T09:41:07Z</time>
      </trkpt>
      <trkpt lat="48.97485" lon="6.03059">
        <ele>177</ele>
        <time>2021-07-29T09:41:08Z</time>
      </trkpt>
      <trkpt lat="48.97481" lon="6.03059">
        <ele>176.9</ele>
        <time>2021-07-29T09:41:09Z</time>
      </trkpt>
      <trkpt lat="48.97477" lon="6.0306">
        <ele>176.9</ele>
        <time>2021-07-29T09:41:10Z</time>
      </trkpt>
      <trkpt lat="48.97471" lon="6.0306">
        <ele>176.9</ele>
        <time>2021-07-29T09:41:12Z</time>
      </trkpt>
      <trkpt lat="48.97467" lon="6.0306">
        <ele>176.9</ele>
        <time>2021-07-29T09:41:13Z</time>
      </trkpt>
      <trkpt lat="48.97462" lon="6.03059">
        <ele>176.9</ele>
        <time>2021-07-29T09:41:14Z</time>
      </trkpt>
      <trkpt lat="48.97456" lon="6.03058">
        <ele>176.9</ele>
        <time>2021-07-29T09:41:15Z</time>
      </trkpt>
      <trkpt lat="48.97452" lon="6.03058">
        <ele>177</ele>
        <time>2021-07-29T09:41:16Z</time>
      </trkpt>
      <trkpt lat="48.97447" lon="6.03059">
        <ele>177</ele>
        <time>2021-07-29T09:41:17Z</time>
      </trkpt>
      <trkpt lat="48.97442" lon="6.03059">
        <ele>177</ele>
        <time>2021-07-29T09:41:18Z</time>
      </trkpt>
      <trkpt lat="48.97437" lon="6.03059">
        <ele>177</ele>
        <time>2021-07-29T09:41:19Z</time>
      </trkpt>
      <trkpt lat="48.97431" lon="6.03059">
        <ele>177</ele>
        <time>2021-07-29T09:41:21Z</time>
      </trkpt>
      <trkpt lat="48.97419" lon="6.03058">
        <ele>177</ele>
        <time>2021-07-29T09:41:22Z</time>
      </trkpt>
      <trkpt lat="48.97413" lon="6.03058">
        <ele>177</ele>
        <time>2021-07-29T09:41:23Z</time>
      </trkpt>
      <trkpt lat="48.97405" lon="6.03056">
        <ele>177</ele>
        <time>2021-07-29T09:41:25Z</time>
      </trkpt>
      <trkpt lat="48.97397" lon="6.03055">
        <ele>177</ele>
        <time>2021-07-29T09:41:27Z</time>
      </trkpt>
      <trkpt lat="48.97388" lon="6.03056">
        <ele>177</ele>
        <time>2021-07-29T09:41:29Z</time>
      </trkpt>
      <trkpt lat="48.97383" lon="6.03057">
        <ele>177.1</ele>
        <time>2021-07-29T09:41:30Z</time>
      </trkpt>
      <trkpt lat="48.97378" lon="6.03057">
        <ele>177.1</ele>
        <time>2021-07-29T09:41:31Z</time>
      </trkpt>
      <trkpt lat="48.97374" lon="6.03058">
        <ele>177.1</ele>
        <time>2021-07-29T09:41:32Z</time>
      </trkpt>
      <trkpt lat="48.97369" lon="6.0306">
        <ele>177.1</ele>
        <time>2021-07-29T09:41:33Z</time>
      </trkpt>
      <trkpt lat="48.97361" lon="6.03063">
        <ele>177.1</ele>
        <time>2021-07-29T09:41:35Z</time>
      </trkpt>
      <trkpt lat="48.97357" lon="6.03063">
        <ele>177.1</ele>
        <time>2021-07-29T09:41:36Z</time>
      </trkpt>
      <trkpt lat="48.97352" lon="6.03064">
        <ele>177.1</ele>
        <time>2021-07-29T09:41:38Z</time>
      </trkpt>
      <trkpt lat="48.97346" lon="6.03064">
        <ele>177.1</ele>
        <time>2021-07-29T09:41:39Z</time>
      </trkpt>
      <trkpt lat="48.97337" lon="6.03067">
        <ele>177.1</ele>
        <time>2021-07-29T09:41:41Z</time>
      </trkpt>
      <trkpt lat="48.97331" lon="6.03069">
        <ele>177.1</ele>
        <time>2021-07-29T09:41:42Z</time>
      </trkpt>
      <trkpt lat="48.97324" lon="6.03072">
        <ele>177.1</ele>
        <time>2021-07-29T09:41:44Z</time>
      </trkpt>
      <trkpt lat="48.97316" lon="6.03074">
        <ele>177</ele>
        <time>2021-07-29T09:41:46Z</time>
      </trkpt>
      <trkpt lat="48.97311" lon="6.03075">
        <ele>177</ele>
        <time>2021-07-29T09:41:47Z</time>
      </trkpt>
      <trkpt lat="48.97307" lon="6.03076">
        <ele>177</ele>
        <time>2021-07-29T09:41:48Z</time>
      </trkpt>
      <trkpt lat="48.97297" lon="6.03079">
        <ele>177</ele>
        <time>2021-07-29T09:41:50Z</time>
      </trkpt>
      <trkpt lat="48.97294" lon="6.03083">
        <ele>177</ele>
        <time>2021-07-29T09:41:51Z</time>
      </trkpt>
      <trkpt lat="48.97285" lon="6.03086">
        <ele>177</ele>
        <time>2021-07-29T09:41:53Z</time>
      </trkpt>
      <trkpt lat="48.97278" lon="6.0309">
        <ele>177</ele>
        <time>2021-07-29T09:41:55Z</time>
      </trkpt>
      <trkpt lat="48.97276" lon="6.03092">
        <ele>177</ele>
        <time>2021-07-29T09:41:56Z</time>
      </trkpt>
      <trkpt lat="48.97271" lon="6.03094">
        <ele>177</ele>
        <time>2021-07-29T09:41:57Z</time>
      </trkpt>
      <trkpt lat="48.97263" lon="6.03098">
        <ele>177</ele>
        <time>2021-07-29T09:41:59Z</time>
      </trkpt>
      <trkpt lat="48.97252" lon="6.03102">
        <ele>177</ele>
        <time>2021-07-29T09:42:01Z</time>
      </trkpt>
      <trkpt lat="48.97247" lon="6.03104">
        <ele>177</ele>
        <time>2021-07-29T09:42:02Z</time>
      </trkpt>
      <trkpt lat="48.97243" lon="6.03106">
        <ele>177</ele>
        <time>2021-07-29T09:42:03Z</time>
      </trkpt>
      <trkpt lat="48.97236" lon="6.03112">
        <ele>177</ele>
        <time>2021-07-29T09:42:05Z</time>
      </trkpt>
      <trkpt lat="48.97229" lon="6.03118">
        <ele>177</ele>
        <time>2021-07-29T09:42:07Z</time>
      </trkpt>
      <trkpt lat="48.97225" lon="6.0312">
        <ele>177</ele>
        <time>2021-07-29T09:42:08Z</time>
      </trkpt>
      <trkpt lat="48.97217" lon="6.03123">
        <ele>177</ele>
        <time>2021-07-29T09:42:10Z</time>
      </trkpt>
      <trkpt lat="48.97213" lon="6.03124">
        <ele>177</ele>
        <time>2021-07-29T09:42:11Z</time>
      </trkpt>
      <trkpt lat="48.97209" lon="6.03125">
        <ele>177</ele>
        <time>2021-07-29T09:42:12Z</time>
      </trkpt>
      <trkpt lat="48.97203" lon="6.03127">
        <ele>177</ele>
        <time>2021-07-29T09:42:13Z</time>
      </trkpt>
      <trkpt lat="48.97199" lon="6.03129">
        <ele>177</ele>
        <time>2021-07-29T09:42:14Z</time>
      </trkpt>
      <trkpt lat="48.97195" lon="6.03131">
        <ele>177</ele>
        <time>2021-07-29T09:42:15Z</time>
      </trkpt>
      <trkpt lat="48.97191" lon="6.03133">
        <ele>177</ele>
        <time>2021-07-29T09:42:16Z</time>
      </trkpt>
      <trkpt lat="48.97187" lon="6.03135">
        <ele>177</ele>
        <time>2021-07-29T09:42:17Z</time>
      </trkpt>
      <trkpt lat="48.97183" lon="6.03138">
        <ele>177</ele>
        <time>2021-07-29T09:42:18Z</time>
      </trkpt>
      <trkpt lat="48.97176" lon="6.03141">
        <ele>177.1</ele>
        <time>2021-07-29T09:42:20Z</time>
      </trkpt>
      <trkpt lat="48.9717" lon="6.03143">
        <ele>177.1</ele>
        <time>2021-07-29T09:42:21Z</time>
      </trkpt>
      <trkpt lat="48.97162" lon="6.03145">
        <ele>177.1</ele>
        <time>2021-07-29T09:42:23Z</time>
      </trkpt>
      <trkpt lat="48.97157" lon="6.03146">
        <ele>177.1</ele>
        <time>2021-07-29T09:42:24Z</time>
      </trkpt>
      <trkpt lat="48.97152" lon="6.03149">
        <ele>177.1</ele>
        <time>2021-07-29T09:42:25Z</time>
      </trkpt>
      <trkpt lat="48.97146" lon="6.03152">
        <ele>177.1</ele>
        <time>2021-07-29T09:42:27Z</time>
      </trkpt>
      <trkpt lat="48.97142" lon="6.03154">
        <ele>177.1</ele>
        <time>2021-07-29T09:42:28Z</time>
      </trkpt>
      <trkpt lat="48.97138" lon="6.03156">
        <ele>177.1</ele>
        <time>2021-07-29T09:42:29Z</time>
      </trkpt>
      <trkpt lat="48.97132" lon="6.03159">
        <ele>177</ele>
        <time>2021-07-29T09:42:30Z</time>
      </trkpt>
      <trkpt lat="48.97126" lon="6.03163">
        <ele>177</ele>
        <time>2021-07-29T09:42:32Z</time>
      </trkpt>
      <trkpt lat="48.9712" lon="6.03164">
        <ele>177</ele>
        <time>2021-07-29T09:42:33Z</time>
      </trkpt>
      <trkpt lat="48.97114" lon="6.03166">
        <ele>177</ele>
        <time>2021-07-29T09:42:34Z</time>
      </trkpt>
      <trkpt lat="48.97107" lon="6.03168">
        <ele>177</ele>
        <time>2021-07-29T09:42:36Z</time>
      </trkpt>
      <trkpt lat="48.97103" lon="6.03167">
        <ele>177</ele>
        <time>2021-07-29T09:42:37Z</time>
      </trkpt>
      <trkpt lat="48.97099" lon="6.03165">
        <ele>177</ele>
        <time>2021-07-29T09:42:39Z</time>
      </trkpt>
      <trkpt lat="48.97091" lon="6.0317">
        <ele>177.1</ele>
        <time>2021-07-29T09:42:40Z</time>
      </trkpt>
      <trkpt lat="48.97083" lon="6.03175">
        <ele>177.1</ele>
        <time>2021-07-29T09:42:42Z</time>
      </trkpt>
      <trkpt lat="48.9708" lon="6.03177">
        <ele>177.1</ele>
        <time>2021-07-29T09:42:43Z</time>
      </trkpt>
      <trkpt lat="48.97075" lon="6.03179">
        <ele>177.1</ele>
        <time>2021-07-29T09:42:44Z</time>
      </trkpt>
      <trkpt lat="48.97069" lon="6.03181">
        <ele>177.1</ele>
        <time>2021-07-29T09:42:45Z</time>
      </trkpt>
      <trkpt lat="48.97061" lon="6.03178">
        <ele>177.1</ele>
        <time>2021-07-29T09:42:47Z</time>
      </trkpt>
      <trkpt lat="48.97056" lon="6.03181">
        <ele>177.2</ele>
        <time>2021-07-29T09:42:48Z</time>
      </trkpt>
      <trkpt lat="48.97053" lon="6.03176">
        <ele>177.2</ele>
        <time>2021-07-29T09:42:50Z</time>
      </trkpt>
      <trkpt lat="48.97043" lon="6.03183">
        <ele>177.2</ele>
        <time>2021-07-29T09:42:51Z</time>
      </trkpt>
      <trkpt lat="48.97035" lon="6.03191">
        <ele>177.2</ele>
        <time>2021-07-29T09:42:53Z</time>
      </trkpt>
      <trkpt lat="48.9703" lon="6.03197">
        <ele>177.2</ele>
        <time>2021-07-29T09:42:54Z</time>
      </trkpt>
      <trkpt lat="48.97024" lon="6.032">
        <ele>177.2</ele>
        <time>2021-07-29T09:42:55Z</time>
      </trkpt>
      <trkpt lat="48.9702" lon="6.032">
        <ele>177.2</ele>
        <time>2021-07-29T09:42:56Z</time>
      </trkpt>
      <trkpt lat="48.97011" lon="6.03202">
        <ele>177.2</ele>
        <time>2021-07-29T09:42:58Z</time>
      </trkpt>
      <trkpt lat="48.97007" lon="6.03203">
        <ele>177.2</ele>
        <time>2021-07-29T09:42:59Z</time>
      </trkpt>
      <trkpt lat="48.97002" lon="6.03207">
        <ele>177.1</ele>
        <time>2021-07-29T09:43:00Z</time>
      </trkpt>
      <trkpt lat="48.96997" lon="6.0321">
        <ele>177.1</ele>
        <time>2021-07-29T09:43:01Z</time>
      </trkpt>
      <trkpt lat="48.96991" lon="6.03212">
        <ele>177.1</ele>
        <time>2021-07-29T09:43:03Z</time>
      </trkpt>
      <trkpt lat="48.96988" lon="6.03213">
        <ele>177.1</ele>
        <time>2021-07-29T09:43:04Z</time>
      </trkpt>
      <trkpt lat="48.96985" lon="6.03215">
        <ele>177.1</ele>
        <time>2021-07-29T09:43:05Z</time>
      </trkpt>
      <trkpt lat="48.96979" lon="6.03218">
        <ele>177.1</ele>
        <time>2021-07-29T09:43:06Z</time>
      </trkpt>
      <trkpt lat="48.96972" lon="6.03221">
        <ele>177.1</ele>
        <time>2021-07-29T09:43:08Z</time>
      </trkpt>
      <trkpt lat="48.96967" lon="6.03223">
        <ele>177.1</ele>
        <time>2021-07-29T09:43:09Z</time>
      </trkpt>
      <trkpt lat="48.9696" lon="6.03226">
        <ele>177.1</ele>
        <time>2021-07-29T09:43:10Z</time>
      </trkpt>
      <trkpt lat="48.96954" lon="6.0323">
        <ele>177.1</ele>
        <time>2021-07-29T09:43:11Z</time>
      </trkpt>
      <trkpt lat="48.9695" lon="6.03232">
        <ele>177.1</ele>
        <time>2021-07-29T09:43:12Z</time>
      </trkpt>
      <trkpt lat="48.96947" lon="6.03236">
        <ele>177.1</ele>
        <time>2021-07-29T09:43:13Z</time>
      </trkpt>
      <trkpt lat="48.96942" lon="6.0324">
        <ele>177.1</ele>
        <time>2021-07-29T09:43:15Z</time>
      </trkpt>
      <trkpt lat="48.96937" lon="6.03241">
        <ele>177.1</ele>
        <time>2021-07-29T09:43:16Z</time>
      </trkpt>
      <trkpt lat="48.96931" lon="6.03243">
        <ele>177.1</ele>
        <time>2021-07-29T09:43:17Z</time>
      </trkpt>
      <trkpt lat="48.96923" lon="6.03246">
        <ele>177.1</ele>
        <time>2021-07-29T09:43:19Z</time>
      </trkpt>
      <trkpt lat="48.96917" lon="6.03248">
        <ele>177.1</ele>
        <time>2021-07-29T09:43:20Z</time>
      </trkpt>
      <trkpt lat="48.96907" lon="6.03252">
        <ele>177.1</ele>
        <time>2021-07-29T09:43:22Z</time>
      </trkpt>
      <trkpt lat="48.96904" lon="6.03255">
        <ele>177.1</ele>
        <time>2021-07-29T09:43:23Z</time>
      </trkpt>
      <trkpt lat="48.96902" lon="6.03257">
        <ele>177.2</ele>
        <time>2021-07-29T09:43:24Z</time>
      </trkpt>
      <trkpt lat="48.96896" lon="6.03257">
        <ele>177.2</ele>
        <time>2021-07-29T09:43:26Z</time>
      </trkpt>
      <trkpt lat="48.96892" lon="6.03257">
        <ele>177.2</ele>
        <time>2021-07-29T09:43:27Z</time>
      </trkpt>
      <trkpt lat="48.96887" lon="6.0326">
        <ele>177.2</ele>
        <time>2021-07-29T09:43:28Z</time>
      </trkpt>
      <trkpt lat="48.9688" lon="6.03264">
        <ele>177.2</ele>
        <time>2021-07-29T09:43:30Z</time>
      </trkpt>
      <trkpt lat="48.96876" lon="6.03267">
        <ele>177.3</ele>
        <time>2021-07-29T09:43:31Z</time>
      </trkpt>
      <trkpt lat="48.96873" lon="6.03269">
        <ele>177.3</ele>
        <time>2021-07-29T09:43:32Z</time>
      </trkpt>
      <trkpt lat="48.96866" lon="6.03272">
        <ele>177.3</ele>
        <time>2021-07-29T09:43:34Z</time>
      </trkpt>
      <trkpt lat="48.96862" lon="6.03274">
        <ele>177.2</ele>
        <time>2021-07-29T09:43:35Z</time>
      </trkpt>
      <trkpt lat="48.96852" lon="6.03277">
        <ele>177.2</ele>
        <time>2021-07-29T09:43:37Z</time>
      </trkpt>
      <trkpt lat="48.96849" lon="6.03278">
        <ele>177.2</ele>
        <time>2021-07-29T09:43:38Z</time>
      </trkpt>
      <trkpt lat="48.96846" lon="6.03281">
        <ele>177.2</ele>
        <time>2021-07-29T09:43:40Z</time>
      </trkpt>
      <trkpt lat="48.96837" lon="6.03282">
        <ele>177.2</ele>
        <time>2021-07-29T09:43:42Z</time>
      </trkpt>
      <trkpt lat="48.96828" lon="6.03285">
        <ele>177.2</ele>
        <time>2021-07-29T09:43:44Z</time>
      </trkpt>
      <trkpt lat="48.9682" lon="6.03288">
        <ele>177.2</ele>
        <time>2021-07-29T09:43:45Z</time>
      </trkpt>
      <trkpt lat="48.96812" lon="6.03291">
        <ele>177.1</ele>
        <time>2021-07-29T09:43:47Z</time>
      </trkpt>
      <trkpt lat="48.96808" lon="6.03289">
        <ele>177.1</ele>
        <time>2021-07-29T09:43:48Z</time>
      </trkpt>
      <trkpt lat="48.96802" lon="6.03294">
        <ele>177.2</ele>
        <time>2021-07-29T09:43:49Z</time>
      </trkpt>
      <trkpt lat="48.96796" lon="6.03297">
        <ele>177.2</ele>
        <time>2021-07-29T09:43:50Z</time>
      </trkpt>
      <trkpt lat="48.96788" lon="6.03301">
        <ele>177.2</ele>
        <time>2021-07-29T09:43:52Z</time>
      </trkpt>
      <trkpt lat="48.96791" lon="6.03304">
        <ele>177.2</ele>
        <time>2021-07-29T09:43:53Z</time>
      </trkpt>
      <trkpt lat="48.96784" lon="6.03308">
        <ele>177.2</ele>
        <time>2021-07-29T09:43:54Z</time>
      </trkpt>
      <trkpt lat="48.96777" lon="6.03311">
        <ele>177.2</ele>
        <time>2021-07-29T09:43:55Z</time>
      </trkpt>
      <trkpt lat="48.9677" lon="6.03313">
        <ele>177.1</ele>
        <time>2021-07-29T09:43:56Z</time>
      </trkpt>
      <trkpt lat="48.96765" lon="6.03316">
        <ele>177.1</ele>
        <time>2021-07-29T09:43:58Z</time>
      </trkpt>
      <trkpt lat="48.96755" lon="6.0332">
        <ele>177.1</ele>
        <time>2021-07-29T09:44:00Z</time>
      </trkpt>
      <trkpt lat="48.96746" lon="6.03324">
        <ele>177.1</ele>
        <time>2021-07-29T09:44:01Z</time>
      </trkpt>
      <trkpt lat="48.96739" lon="6.03325">
        <ele>177.1</ele>
        <time>2021-07-29T09:44:02Z</time>
      </trkpt>
      <trkpt lat="48.96736" lon="6.03323">
        <ele>177.2</ele>
        <time>2021-07-29T09:44:04Z</time>
      </trkpt>
      <trkpt lat="48.96732" lon="6.03326">
        <ele>177.2</ele>
        <time>2021-07-29T09:44:05Z</time>
      </trkpt>
      <trkpt lat="48.96727" lon="6.03331">
        <ele>177.2</ele>
        <time>2021-07-29T09:44:06Z</time>
      </trkpt>
      <trkpt lat="48.96723" lon="6.03334">
        <ele>177.2</ele>
        <time>2021-07-29T09:44:07Z</time>
      </trkpt>
      <trkpt lat="48.96719" lon="6.03336">
        <ele>177.2</ele>
        <time>2021-07-29T09:44:08Z</time>
      </trkpt>
      <trkpt lat="48.96715" lon="6.03338">
        <ele>177.2</ele>
        <time>2021-07-29T09:44:09Z</time>
      </trkpt>
      <trkpt lat="48.96711" lon="6.03341">
        <ele>177.2</ele>
        <time>2021-07-29T09:44:10Z</time>
      </trkpt>
      <trkpt lat="48.96708" lon="6.03342">
        <ele>177.2</ele>
        <time>2021-07-29T09:44:11Z</time>
      </trkpt>
      <trkpt lat="48.96704" lon="6.03344">
        <ele>177.2</ele>
        <time>2021-07-29T09:44:13Z</time>
      </trkpt>
      <trkpt lat="48.967" lon="6.03346">
        <ele>177.2</ele>
        <time>2021-07-29T09:44:14Z</time>
      </trkpt>
      <trkpt lat="48.96695" lon="6.03348">
        <ele>177.2</ele>
        <time>2021-07-29T09:44:15Z</time>
      </trkpt>
      <trkpt lat="48.96691" lon="6.0335">
        <ele>177.2</ele>
        <time>2021-07-29T09:44:16Z</time>
      </trkpt>
      <trkpt lat="48.96687" lon="6.03351">
        <ele>177.2</ele>
        <time>2021-07-29T09:44:17Z</time>
      </trkpt>
      <trkpt lat="48.96683" lon="6.03353">
        <ele>177.2</ele>
        <time>2021-07-29T09:44:18Z</time>
      </trkpt>
      <trkpt lat="48.9668" lon="6.03354">
        <ele>177.2</ele>
        <time>2021-07-29T09:44:19Z</time>
      </trkpt>
      <trkpt lat="48.96676" lon="6.03355">
        <ele>177.2</ele>
        <time>2021-07-29T09:44:20Z</time>
      </trkpt>
      <trkpt lat="48.96671" lon="6.03357">
        <ele>177.2</ele>
        <time>2021-07-29T09:44:21Z</time>
      </trkpt>
      <trkpt lat="48.96667" lon="6.03358">
        <ele>177.2</ele>
        <time>2021-07-29T09:44:22Z</time>
      </trkpt>
      <trkpt lat="48.96663" lon="6.0336">
        <ele>177.3</ele>
        <time>2021-07-29T09:44:23Z</time>
      </trkpt>
      <trkpt lat="48.96659" lon="6.03363">
        <ele>177.3</ele>
        <time>2021-07-29T09:44:24Z</time>
      </trkpt>
      <trkpt lat="48.96655" lon="6.03365">
        <ele>177.3</ele>
        <time>2021-07-29T09:44:25Z</time>
      </trkpt>
      <trkpt lat="48.96652" lon="6.03368">
        <ele>177.3</ele>
        <time>2021-07-29T09:44:26Z</time>
      </trkpt>
      <trkpt lat="48.96647" lon="6.0337">
        <ele>177.3</ele>
        <time>2021-07-29T09:44:27Z</time>
      </trkpt>
      <trkpt lat="48.96642" lon="6.03372">
        <ele>177.3</ele>
        <time>2021-07-29T09:44:28Z</time>
      </trkpt>
      <trkpt lat="48.96638" lon="6.03374">
        <ele>177.3</ele>
        <time>2021-07-29T09:44:30Z</time>
      </trkpt>
      <trkpt lat="48.96635" lon="6.03375">
        <ele>177.3</ele>
        <time>2021-07-29T09:44:31Z</time>
      </trkpt>
      <trkpt lat="48.96631" lon="6.03377">
        <ele>177.3</ele>
        <time>2021-07-29T09:44:32Z</time>
      </trkpt>
      <trkpt lat="48.96627" lon="6.03377">
        <ele>177.3</ele>
        <time>2021-07-29T09:44:33Z</time>
      </trkpt>
      <trkpt lat="48.96622" lon="6.03379">
        <ele>177.3</ele>
        <time>2021-07-29T09:44:34Z</time>
      </trkpt>
      <trkpt lat="48.96618" lon="6.0338">
        <ele>177.3</ele>
        <time>2021-07-29T09:44:35Z</time>
      </trkpt>
      <trkpt lat="48.96608" lon="6.03384">
        <ele>177.3</ele>
        <time>2021-07-29T09:44:37Z</time>
      </trkpt>
      <trkpt lat="48.96604" lon="6.03386">
        <ele>177.3</ele>
        <time>2021-07-29T09:44:38Z</time>
      </trkpt>
      <trkpt lat="48.96599" lon="6.03389">
        <ele>177.3</ele>
        <time>2021-07-29T09:44:39Z</time>
      </trkpt>
      <trkpt lat="48.96595" lon="6.03391">
        <ele>177.3</ele>
        <time>2021-07-29T09:44:40Z</time>
      </trkpt>
      <trkpt lat="48.9659" lon="6.03393">
        <ele>177.3</ele>
        <time>2021-07-29T09:44:41Z</time>
      </trkpt>
      <trkpt lat="48.96586" lon="6.03394">
        <ele>177.3</ele>
        <time>2021-07-29T09:44:42Z</time>
      </trkpt>
      <trkpt lat="48.96578" lon="6.03398">
        <ele>177.3</ele>
        <time>2021-07-29T09:44:44Z</time>
      </trkpt>
      <trkpt lat="48.96569" lon="6.03403">
        <ele>177.3</ele>
        <time>2021-07-29T09:44:46Z</time>
      </trkpt>
      <trkpt lat="48.96565" lon="6.03406">
        <ele>177.3</ele>
        <time>2021-07-29T09:44:47Z</time>
      </trkpt>
      <trkpt lat="48.9656" lon="6.03408">
        <ele>177.3</ele>
        <time>2021-07-29T09:44:48Z</time>
      </trkpt>
      <trkpt lat="48.96555" lon="6.0341">
        <ele>177.3</ele>
        <time>2021-07-29T09:44:49Z</time>
      </trkpt>
      <trkpt lat="48.96551" lon="6.03411">
        <ele>177.3</ele>
        <time>2021-07-29T09:44:50Z</time>
      </trkpt>
      <trkpt lat="48.96547" lon="6.03413">
        <ele>177.3</ele>
        <time>2021-07-29T09:44:51Z</time>
      </trkpt>
      <trkpt lat="48.96542" lon="6.03415">
        <ele>177.3</ele>
        <time>2021-07-29T09:44:52Z</time>
      </trkpt>
      <trkpt lat="48.96538" lon="6.03416">
        <ele>177.3</ele>
        <time>2021-07-29T09:44:53Z</time>
      </trkpt>
      <trkpt lat="48.96533" lon="6.03418">
        <ele>177.4</ele>
        <time>2021-07-29T09:44:54Z</time>
      </trkpt>
      <trkpt lat="48.96528" lon="6.03421">
        <ele>177.4</ele>
        <time>2021-07-29T09:44:56Z</time>
      </trkpt>
      <trkpt lat="48.96524" lon="6.03423">
        <ele>177.4</ele>
        <time>2021-07-29T09:44:57Z</time>
      </trkpt>
      <trkpt lat="48.9652" lon="6.03425">
        <ele>177.4</ele>
        <time>2021-07-29T09:44:58Z</time>
      </trkpt>
      <trkpt lat="48.96516" lon="6.03427">
        <ele>177.4</ele>
        <time>2021-07-29T09:44:59Z</time>
      </trkpt>
      <trkpt lat="48.96508" lon="6.03432">
        <ele>177.4</ele>
        <time>2021-07-29T09:45:01Z</time>
      </trkpt>
      <trkpt lat="48.96501" lon="6.03436">
        <ele>177.4</ele>
        <time>2021-07-29T09:45:03Z</time>
      </trkpt>
      <trkpt lat="48.96495" lon="6.03438">
        <ele>177.5</ele>
        <time>2021-07-29T09:45:04Z</time>
      </trkpt>
      <trkpt lat="48.9649" lon="6.0344">
        <ele>177.5</ele>
        <time>2021-07-29T09:45:05Z</time>
      </trkpt>
      <trkpt lat="48.96485" lon="6.03443">
        <ele>177.5</ele>
        <time>2021-07-29T09:45:06Z</time>
      </trkpt>
      <trkpt lat="48.9648" lon="6.03446">
        <ele>177.5</ele>
        <time>2021-07-29T09:45:08Z</time>
      </trkpt>
      <trkpt lat="48.96474" lon="6.03449">
        <ele>177.5</ele>
        <time>2021-07-29T09:45:09Z</time>
      </trkpt>
      <trkpt lat="48.9647" lon="6.0345">
        <ele>177.5</ele>
        <time>2021-07-29T09:45:10Z</time>
      </trkpt>
      <trkpt lat="48.96466" lon="6.03452">
        <ele>177.5</ele>
        <time>2021-07-29T09:45:12Z</time>
      </trkpt>
      <trkpt lat="48.96462" lon="6.03454">
        <ele>177.5</ele>
        <time>2021-07-29T09:45:13Z</time>
      </trkpt>
      <trkpt lat="48.96458" lon="6.03456">
        <ele>177.5</ele>
        <time>2021-07-29T09:45:14Z</time>
      </trkpt>
      <trkpt lat="48.96454" lon="6.03458">
        <ele>177.5</ele>
        <time>2021-07-29T09:45:15Z</time>
      </trkpt>
      <trkpt lat="48.96449" lon="6.0346">
        <ele>177.5</ele>
        <time>2021-07-29T09:45:16Z</time>
      </trkpt>
      <trkpt lat="48.96442" lon="6.03463">
        <ele>177.5</ele>
        <time>2021-07-29T09:45:18Z</time>
      </trkpt>
      <trkpt lat="48.96432" lon="6.03468">
        <ele>177.5</ele>
        <time>2021-07-29T09:45:20Z</time>
      </trkpt>
      <trkpt lat="48.96428" lon="6.03471">
        <ele>177.5</ele>
        <time>2021-07-29T09:45:21Z</time>
      </trkpt>
      <trkpt lat="48.96424" lon="6.03474">
        <ele>177.5</ele>
        <time>2021-07-29T09:45:22Z</time>
      </trkpt>
      <trkpt lat="48.96418" lon="6.03478">
        <ele>177.5</ele>
        <time>2021-07-29T09:45:24Z</time>
      </trkpt>
      <trkpt lat="48.96414" lon="6.03481">
        <ele>177.5</ele>
        <time>2021-07-29T09:45:25Z</time>
      </trkpt>
      <trkpt lat="48.9641" lon="6.03482">
        <ele>177.5</ele>
        <time>2021-07-29T09:45:26Z</time>
      </trkpt>
      <trkpt lat="48.96405" lon="6.03484">
        <ele>177.5</ele>
        <time>2021-07-29T09:45:27Z</time>
      </trkpt>
      <trkpt lat="48.96401" lon="6.03486">
        <ele>177.5</ele>
        <time>2021-07-29T09:45:28Z</time>
      </trkpt>
      <trkpt lat="48.96397" lon="6.03488">
        <ele>177.5</ele>
        <time>2021-07-29T09:45:29Z</time>
      </trkpt>
      <trkpt lat="48.96389" lon="6.03492">
        <ele>177.5</ele>
        <time>2021-07-29T09:45:31Z</time>
      </trkpt>
      <trkpt lat="48.96384" lon="6.03494">
        <ele>177.4</ele>
        <time>2021-07-29T09:45:32Z</time>
      </trkpt>
      <trkpt lat="48.96379" lon="6.03497">
        <ele>177.4</ele>
        <time>2021-07-29T09:45:33Z</time>
      </trkpt>
      <trkpt lat="48.96375" lon="6.03499">
        <ele>177.4</ele>
        <time>2021-07-29T09:45:34Z</time>
      </trkpt>
      <trkpt lat="48.96366" lon="6.03503">
        <ele>177.4</ele>
        <time>2021-07-29T09:45:36Z</time>
      </trkpt>
      <trkpt lat="48.9636" lon="6.03505">
        <ele>177.4</ele>
        <time>2021-07-29T09:45:37Z</time>
      </trkpt>
      <trkpt lat="48.96354" lon="6.03508">
        <ele>177.4</ele>
        <time>2021-07-29T09:45:39Z</time>
      </trkpt>
      <trkpt lat="48.96346" lon="6.03512">
        <ele>177.4</ele>
        <time>2021-07-29T09:45:41Z</time>
      </trkpt>
      <trkpt lat="48.96341" lon="6.03514">
        <ele>177.4</ele>
        <time>2021-07-29T09:45:42Z</time>
      </trkpt>
      <trkpt lat="48.96331" lon="6.03519">
        <ele>177.4</ele>
        <time>2021-07-29T09:45:44Z</time>
      </trkpt>
      <trkpt lat="48.96322" lon="6.03523">
        <ele>177.4</ele>
        <time>2021-07-29T09:45:46Z</time>
      </trkpt>
      <trkpt lat="48.96313" lon="6.03526">
        <ele>177.4</ele>
        <time>2021-07-29T09:45:48Z</time>
      </trkpt>
      <trkpt lat="48.96306" lon="6.0353">
        <ele>177.4</ele>
        <time>2021-07-29T09:45:50Z</time>
      </trkpt>
      <trkpt lat="48.96304" lon="6.03533">
        <ele>177.4</ele>
        <time>2021-07-29T09:45:51Z</time>
      </trkpt>
      <trkpt lat="48.96299" lon="6.03535">
        <ele>177.5</ele>
        <time>2021-07-29T09:45:52Z</time>
      </trkpt>
      <trkpt lat="48.96288" lon="6.03536">
        <ele>177.5</ele>
        <time>2021-07-29T09:45:54Z</time>
      </trkpt>
      <trkpt lat="48.96283" lon="6.03538">
        <ele>177.5</ele>
        <time>2021-07-29T09:45:55Z</time>
      </trkpt>
      <trkpt lat="48.96278" lon="6.0354">
        <ele>177.5</ele>
        <time>2021-07-29T09:45:56Z</time>
      </trkpt>
      <trkpt lat="48.96269" lon="6.03542">
        <ele>177.6</ele>
        <time>2021-07-29T09:45:58Z</time>
      </trkpt>
      <trkpt lat="48.96262" lon="6.03542">
        <ele>177.6</ele>
        <time>2021-07-29T09:45:59Z</time>
      </trkpt>
      <trkpt lat="48.96256" lon="6.03543">
        <ele>177.6</ele>
        <time>2021-07-29T09:46:01Z</time>
      </trkpt>
      <trkpt lat="48.96252" lon="6.03543">
        <ele>177.6</ele>
        <time>2021-07-29T09:46:02Z</time>
      </trkpt>
      <trkpt lat="48.96249" lon="6.03542">
        <ele>177.6</ele>
        <time>2021-07-29T09:46:03Z</time>
      </trkpt>
      <trkpt lat="48.96245" lon="6.03542">
        <ele>177.6</ele>
        <time>2021-07-29T09:46:04Z</time>
      </trkpt>
      <trkpt lat="48.96239" lon="6.03547">
        <ele>177.5</ele>
        <time>2021-07-29T09:46:05Z</time>
      </trkpt>
      <trkpt lat="48.96234" lon="6.03551">
        <ele>177.5</ele>
        <time>2021-07-29T09:46:07Z</time>
      </trkpt>
      <trkpt lat="48.9623" lon="6.03553">
        <ele>177.5</ele>
        <time>2021-07-29T09:46:08Z</time>
      </trkpt>
      <trkpt lat="48.96222" lon="6.03558">
        <ele>177.4</ele>
        <time>2021-07-29T09:46:10Z</time>
      </trkpt>
      <trkpt lat="48.96218" lon="6.0356">
        <ele>177.4</ele>
        <time>2021-07-29T09:46:11Z</time>
      </trkpt>
      <trkpt lat="48.96214" lon="6.03562">
        <ele>177.4</ele>
        <time>2021-07-29T09:46:12Z</time>
      </trkpt>
      <trkpt lat="48.96208" lon="6.03564">
        <ele>177.4</ele>
        <time>2021-07-29T09:46:13Z</time>
      </trkpt>
      <trkpt lat="48.96202" lon="6.03566">
        <ele>177.3</ele>
        <time>2021-07-29T09:46:15Z</time>
      </trkpt>
      <trkpt lat="48.96197" lon="6.03568">
        <ele>177.4</ele>
        <time>2021-07-29T09:46:16Z</time>
      </trkpt>
      <trkpt lat="48.9619" lon="6.03571">
        <ele>177.4</ele>
        <time>2021-07-29T09:46:17Z</time>
      </trkpt>
      <trkpt lat="48.96184" lon="6.03573">
        <ele>177.4</ele>
        <time>2021-07-29T09:46:18Z</time>
      </trkpt>
      <trkpt lat="48.96174" lon="6.03577">
        <ele>177.4</ele>
        <time>2021-07-29T09:46:20Z</time>
      </trkpt>
      <trkpt lat="48.96168" lon="6.03579">
        <ele>177.5</ele>
        <time>2021-07-29T09:46:21Z</time>
      </trkpt>
      <trkpt lat="48.96164" lon="6.03581">
        <ele>177.5</ele>
        <time>2021-07-29T09:46:22Z</time>
      </trkpt>
      <trkpt lat="48.9616" lon="6.03584">
        <ele>177.5</ele>
        <time>2021-07-29T09:46:23Z</time>
      </trkpt>
      <trkpt lat="48.96157" lon="6.03587">
        <ele>177.5</ele>
        <time>2021-07-29T09:46:24Z</time>
      </trkpt>
      <trkpt lat="48.96151" lon="6.0359">
        <ele>177.5</ele>
        <time>2021-07-29T09:46:26Z</time>
      </trkpt>
      <trkpt lat="48.96145" lon="6.03593">
        <ele>177.4</ele>
        <time>2021-07-29T09:46:27Z</time>
      </trkpt>
      <trkpt lat="48.96138" lon="6.03596">
        <ele>177.4</ele>
        <time>2021-07-29T09:46:29Z</time>
      </trkpt>
      <trkpt lat="48.96133" lon="6.03599">
        <ele>177.4</ele>
        <time>2021-07-29T09:46:30Z</time>
      </trkpt>
      <trkpt lat="48.96128" lon="6.03602">
        <ele>177.4</ele>
        <time>2021-07-29T09:46:32Z</time>
      </trkpt>
      <trkpt lat="48.96122" lon="6.03605">
        <ele>177.4</ele>
        <time>2021-07-29T09:46:33Z</time>
      </trkpt>
      <trkpt lat="48.96117" lon="6.03607">
        <ele>177.5</ele>
        <time>2021-07-29T09:46:34Z</time>
      </trkpt>
      <trkpt lat="48.96114" lon="6.03609">
        <ele>177.5</ele>
        <time>2021-07-29T09:46:35Z</time>
      </trkpt>
      <trkpt lat="48.9611" lon="6.0361">
        <ele>177.5</ele>
        <time>2021-07-29T09:46:36Z</time>
      </trkpt>
      <trkpt lat="48.96106" lon="6.03611">
        <ele>177.5</ele>
        <time>2021-07-29T09:46:37Z</time>
      </trkpt>
      <trkpt lat="48.96102" lon="6.03613">
        <ele>177.5</ele>
        <time>2021-07-29T09:46:38Z</time>
      </trkpt>
      <trkpt lat="48.96093" lon="6.03616">
        <ele>177.5</ele>
        <time>2021-07-29T09:46:40Z</time>
      </trkpt>
      <trkpt lat="48.96088" lon="6.03618">
        <ele>177.5</ele>
        <time>2021-07-29T09:46:41Z</time>
      </trkpt>
      <trkpt lat="48.96079" lon="6.0362">
        <ele>177.5</ele>
        <time>2021-07-29T09:46:43Z</time>
      </trkpt>
      <trkpt lat="48.96076" lon="6.03618">
        <ele>177.5</ele>
        <time>2021-07-29T09:46:44Z</time>
      </trkpt>
      <trkpt lat="48.9607" lon="6.03619">
        <ele>177.5</ele>
        <time>2021-07-29T09:46:45Z</time>
      </trkpt>
      <trkpt lat="48.96063" lon="6.03621">
        <ele>177.6</ele>
        <time>2021-07-29T09:46:47Z</time>
      </trkpt>
      <trkpt lat="48.96058" lon="6.03624">
        <ele>177.6</ele>
        <time>2021-07-29T09:46:49Z</time>
      </trkpt>
      <trkpt lat="48.96054" lon="6.03625">
        <ele>177.6</ele>
        <time>2021-07-29T09:46:50Z</time>
      </trkpt>
      <trkpt lat="48.96051" lon="6.03626">
        <ele>177.6</ele>
        <time>2021-07-29T09:46:51Z</time>
      </trkpt>
      <trkpt lat="48.96046" lon="6.03627">
        <ele>177.6</ele>
        <time>2021-07-29T09:46:52Z</time>
      </trkpt>
      <trkpt lat="48.96042" lon="6.03628">
        <ele>177.6</ele>
        <time>2021-07-29T09:46:53Z</time>
      </trkpt>
      <trkpt lat="48.96035" lon="6.03631">
        <ele>177.6</ele>
        <time>2021-07-29T09:46:55Z</time>
      </trkpt>
      <trkpt lat="48.9603" lon="6.03632">
        <ele>177.6</ele>
        <time>2021-07-29T09:46:56Z</time>
      </trkpt>
      <trkpt lat="48.96024" lon="6.03635">
        <ele>177.6</ele>
        <time>2021-07-29T09:46:57Z</time>
      </trkpt>
      <trkpt lat="48.96017" lon="6.03638">
        <ele>177.5</ele>
        <time>2021-07-29T09:46:59Z</time>
      </trkpt>
      <trkpt lat="48.96011" lon="6.0364">
        <ele>177.5</ele>
        <time>2021-07-29T09:47:00Z</time>
      </trkpt>
      <trkpt lat="48.96002" lon="6.03643">
        <ele>177.5</ele>
        <time>2021-07-29T09:47:02Z</time>
      </trkpt>
      <trkpt lat="48.95998" lon="6.03642">
        <ele>177.5</ele>
        <time>2021-07-29T09:47:03Z</time>
      </trkpt>
      <trkpt lat="48.95993" lon="6.03641">
        <ele>177.5</ele>
        <time>2021-07-29T09:47:04Z</time>
      </trkpt>
      <trkpt lat="48.95986" lon="6.03644">
        <ele>177.5</ele>
        <time>2021-07-29T09:47:05Z</time>
      </trkpt>
      <trkpt lat="48.95977" lon="6.03651">
        <ele>177.4</ele>
        <time>2021-07-29T09:47:07Z</time>
      </trkpt>
      <trkpt lat="48.95971" lon="6.03654">
        <ele>177.4</ele>
        <time>2021-07-29T09:47:08Z</time>
      </trkpt>
      <trkpt lat="48.95961" lon="6.0366">
        <ele>177.4</ele>
        <time>2021-07-29T09:47:10Z</time>
      </trkpt>
      <trkpt lat="48.95957" lon="6.03662">
        <ele>177.4</ele>
        <time>2021-07-29T09:47:11Z</time>
      </trkpt>
      <trkpt lat="48.95952" lon="6.03664">
        <ele>177.4</ele>
        <time>2021-07-29T09:47:12Z</time>
      </trkpt>
      <trkpt lat="48.95945" lon="6.03666">
        <ele>177.4</ele>
        <time>2021-07-29T09:47:13Z</time>
      </trkpt>
      <trkpt lat="48.95941" lon="6.03668">
        <ele>177.4</ele>
        <time>2021-07-29T09:47:14Z</time>
      </trkpt>
      <trkpt lat="48.9593" lon="6.03671">
        <ele>177.3</ele>
        <time>2021-07-29T09:47:16Z</time>
      </trkpt>
      <trkpt lat="48.95925" lon="6.03674">
        <ele>177.3</ele>
        <time>2021-07-29T09:47:17Z</time>
      </trkpt>
      <trkpt lat="48.95914" lon="6.03678">
        <ele>177.3</ele>
        <time>2021-07-29T09:47:19Z</time>
      </trkpt>
      <trkpt lat="48.95909" lon="6.0368">
        <ele>177.3</ele>
        <time>2021-07-29T09:47:20Z</time>
      </trkpt>
      <trkpt lat="48.95899" lon="6.03684">
        <ele>177.2</ele>
        <time>2021-07-29T09:47:22Z</time>
      </trkpt>
      <trkpt lat="48.95895" lon="6.03687">
        <ele>177.2</ele>
        <time>2021-07-29T09:47:23Z</time>
      </trkpt>
      <trkpt lat="48.95887" lon="6.03693">
        <ele>177.3</ele>
        <time>2021-07-29T09:47:25Z</time>
      </trkpt>
      <trkpt lat="48.95883" lon="6.03696">
        <ele>177.3</ele>
        <time>2021-07-29T09:47:26Z</time>
      </trkpt>
      <trkpt lat="48.95881" lon="6.03697">
        <ele>177.3</ele>
        <time>2021-07-29T09:47:27Z</time>
      </trkpt>
      <trkpt lat="48.95877" lon="6.037">
        <ele>177.3</ele>
        <time>2021-07-29T09:47:28Z</time>
      </trkpt>
      <trkpt lat="48.95869" lon="6.03702">
        <ele>177.3</ele>
        <time>2021-07-29T09:47:30Z</time>
      </trkpt>
      <trkpt lat="48.95864" lon="6.03706">
        <ele>177.3</ele>
        <time>2021-07-29T09:47:31Z</time>
      </trkpt>
      <trkpt lat="48.9586" lon="6.03708">
        <ele>177.3</ele>
        <time>2021-07-29T09:47:32Z</time>
      </trkpt>
      <trkpt lat="48.95856" lon="6.0371">
        <ele>177.3</ele>
        <time>2021-07-29T09:47:33Z</time>
      </trkpt>
      <trkpt lat="48.95852" lon="6.03713">
        <ele>177.3</ele>
        <time>2021-07-29T09:47:34Z</time>
      </trkpt>
      <trkpt lat="48.95847" lon="6.03716">
        <ele>177.3</ele>
        <time>2021-07-29T09:47:35Z</time>
      </trkpt>
      <trkpt lat="48.95843" lon="6.03719">
        <ele>177.3</ele>
        <time>2021-07-29T09:47:37Z</time>
      </trkpt>
      <trkpt lat="48.95839" lon="6.03722">
        <ele>177.3</ele>
        <time>2021-07-29T09:47:38Z</time>
      </trkpt>
      <trkpt lat="48.95835" lon="6.03726">
        <ele>177.3</ele>
        <time>2021-07-29T09:47:39Z</time>
      </trkpt>
      <trkpt lat="48.95831" lon="6.03729">
        <ele>177.3</ele>
        <time>2021-07-29T09:47:40Z</time>
      </trkpt>
      <trkpt lat="48.95828" lon="6.03732">
        <ele>177.3</ele>
        <time>2021-07-29T09:47:41Z</time>
      </trkpt>
      <trkpt lat="48.95824" lon="6.03737">
        <ele>177.3</ele>
        <time>2021-07-29T09:47:42Z</time>
      </trkpt>
      <trkpt lat="48.95822" lon="6.0374">
        <ele>177.4</ele>
        <time>2021-07-29T09:47:43Z</time>
      </trkpt>
      <trkpt lat="48.95818" lon="6.03743">
        <ele>177.4</ele>
        <time>2021-07-29T09:47:44Z</time>
      </trkpt>
      <trkpt lat="48.95815" lon="6.03745">
        <ele>177.4</ele>
        <time>2021-07-29T09:47:45Z</time>
      </trkpt>
      <trkpt lat="48.95811" lon="6.03747">
        <ele>177.4</ele>
        <time>2021-07-29T09:47:46Z</time>
      </trkpt>
      <trkpt lat="48.95808" lon="6.03749">
        <ele>177.4</ele>
        <time>2021-07-29T09:47:47Z</time>
      </trkpt>
      <trkpt lat="48.95804" lon="6.0375">
        <ele>177.4</ele>
        <time>2021-07-29T09:47:48Z</time>
      </trkpt>
      <trkpt lat="48.95799" lon="6.03751">
        <ele>177.4</ele>
        <time>2021-07-29T09:47:50Z</time>
      </trkpt>
      <trkpt lat="48.95795" lon="6.03752">
        <ele>177.4</ele>
        <time>2021-07-29T09:47:51Z</time>
      </trkpt>
      <trkpt lat="48.95791" lon="6.03753">
        <ele>177.4</ele>
        <time>2021-07-29T09:47:52Z</time>
      </trkpt>
      <trkpt lat="48.95785" lon="6.03755">
        <ele>177.4</ele>
        <time>2021-07-29T09:47:53Z</time>
      </trkpt>
      <trkpt lat="48.9578" lon="6.03756">
        <ele>177.4</ele>
        <time>2021-07-29T09:47:54Z</time>
      </trkpt>
      <trkpt lat="48.95776" lon="6.03757">
        <ele>177.4</ele>
        <time>2021-07-29T09:47:55Z</time>
      </trkpt>
      <trkpt lat="48.95771" lon="6.03758">
        <ele>177.4</ele>
        <time>2021-07-29T09:47:56Z</time>
      </trkpt>
      <trkpt lat="48.95764" lon="6.03757">
        <ele>177.4</ele>
        <time>2021-07-29T09:47:58Z</time>
      </trkpt>
      <trkpt lat="48.95757" lon="6.03759">
        <ele>177.4</ele>
        <time>2021-07-29T09:48:00Z</time>
      </trkpt>
      <trkpt lat="48.95751" lon="6.03762">
        <ele>177.4</ele>
        <time>2021-07-29T09:48:01Z</time>
      </trkpt>
      <trkpt lat="48.95747" lon="6.03761">
        <ele>177.4</ele>
        <time>2021-07-29T09:48:02Z</time>
      </trkpt>
      <trkpt lat="48.95738" lon="6.03763">
        <ele>177.4</ele>
        <time>2021-07-29T09:48:04Z</time>
      </trkpt>
      <trkpt lat="48.95731" lon="6.0376">
        <ele>177.4</ele>
        <time>2021-07-29T09:48:05Z</time>
      </trkpt>
      <trkpt lat="48.95726" lon="6.0376">
        <ele>177.4</ele>
        <time>2021-07-29T09:48:06Z</time>
      </trkpt>
      <trkpt lat="48.95718" lon="6.03761">
        <ele>177.4</ele>
        <time>2021-07-29T09:48:08Z</time>
      </trkpt>
      <trkpt lat="48.95714" lon="6.03762">
        <ele>177.4</ele>
        <time>2021-07-29T09:48:09Z</time>
      </trkpt>
      <trkpt lat="48.95707" lon="6.03764">
        <ele>177.4</ele>
        <time>2021-07-29T09:48:11Z</time>
      </trkpt>
      <trkpt lat="48.95703" lon="6.03765">
        <ele>177.4</ele>
        <time>2021-07-29T09:48:12Z</time>
      </trkpt>
      <trkpt lat="48.95697" lon="6.03766">
        <ele>177.4</ele>
        <time>2021-07-29T09:48:13Z</time>
      </trkpt>
      <trkpt lat="48.95686" lon="6.0377">
        <ele>177.4</ele>
        <time>2021-07-29T09:48:15Z</time>
      </trkpt>
      <trkpt lat="48.95679" lon="6.0377">
        <ele>177.4</ele>
        <time>2021-07-29T09:48:16Z</time>
      </trkpt>
      <trkpt lat="48.95674" lon="6.0377">
        <ele>177.4</ele>
        <time>2021-07-29T09:48:18Z</time>
      </trkpt>
      <trkpt lat="48.95664" lon="6.03775">
        <ele>177.5</ele>
        <time>2021-07-29T09:48:20Z</time>
      </trkpt>
      <trkpt lat="48.95654" lon="6.03778">
        <ele>177.5</ele>
        <time>2021-07-29T09:48:22Z</time>
      </trkpt>
      <trkpt lat="48.95645" lon="6.03781">
        <ele>177.5</ele>
        <time>2021-07-29T09:48:24Z</time>
      </trkpt>
      <trkpt lat="48.95641" lon="6.03783">
        <ele>177.6</ele>
        <time>2021-07-29T09:48:25Z</time>
      </trkpt>
      <trkpt lat="48.95637" lon="6.03785">
        <ele>177.6</ele>
        <time>2021-07-29T09:48:26Z</time>
      </trkpt>
      <trkpt lat="48.95629" lon="6.03789">
        <ele>177.7</ele>
        <time>2021-07-29T09:48:28Z</time>
      </trkpt>
      <trkpt lat="48.95625" lon="6.03792">
        <ele>177.7</ele>
        <time>2021-07-29T09:48:29Z</time>
      </trkpt>
      <trkpt lat="48.95621" lon="6.03795">
        <ele>177.8</ele>
        <time>2021-07-29T09:48:30Z</time>
      </trkpt>
      <trkpt lat="48.95615" lon="6.03801">
        <ele>177.8</ele>
        <time>2021-07-29T09:48:31Z</time>
      </trkpt>
      <trkpt lat="48.9561" lon="6.03804">
        <ele>177.9</ele>
        <time>2021-07-29T09:48:32Z</time>
      </trkpt>
      <trkpt lat="48.95606" lon="6.03808">
        <ele>177.9</ele>
        <time>2021-07-29T09:48:34Z</time>
      </trkpt>
      <trkpt lat="48.95601" lon="6.03813">
        <ele>177.9</ele>
        <time>2021-07-29T09:48:35Z</time>
      </trkpt>
      <trkpt lat="48.95597" lon="6.03816">
        <ele>177.9</ele>
        <time>2021-07-29T09:48:36Z</time>
      </trkpt>
      <trkpt lat="48.95592" lon="6.03822">
        <ele>177.9</ele>
        <time>2021-07-29T09:48:37Z</time>
      </trkpt>
      <trkpt lat="48.95587" lon="6.03826">
        <ele>177.8</ele>
        <time>2021-07-29T09:48:38Z</time>
      </trkpt>
      <trkpt lat="48.95583" lon="6.0383">
        <ele>177.8</ele>
        <time>2021-07-29T09:48:39Z</time>
      </trkpt>
      <trkpt lat="48.95578" lon="6.03835">
        <ele>177.8</ele>
        <time>2021-07-29T09:48:40Z</time>
      </trkpt>
      <trkpt lat="48.95571" lon="6.03842">
        <ele>177.7</ele>
        <time>2021-07-29T09:48:42Z</time>
      </trkpt>
      <trkpt lat="48.95562" lon="6.03847">
        <ele>177.6</ele>
        <time>2021-07-29T09:48:44Z</time>
      </trkpt>
      <trkpt lat="48.95554" lon="6.03851">
        <ele>177.6</ele>
        <time>2021-07-29T09:48:46Z</time>
      </trkpt>
      <trkpt lat="48.95553" lon="6.03853">
        <ele>177.6</ele>
        <time>2021-07-29T09:48:47Z</time>
      </trkpt>
      <trkpt lat="48.95551" lon="6.03854">
        <ele>177.6</ele>
        <time>2021-07-29T09:48:48Z</time>
      </trkpt>
      <trkpt lat="48.95542" lon="6.03858">
        <ele>177.6</ele>
        <time>2021-07-29T09:48:50Z</time>
      </trkpt>
      <trkpt lat="48.95534" lon="6.03864">
        <ele>177.6</ele>
        <time>2021-07-29T09:48:52Z</time>
      </trkpt>
      <trkpt lat="48.95526" lon="6.03869">
        <ele>177.6</ele>
        <time>2021-07-29T09:48:54Z</time>
      </trkpt>
      <trkpt lat="48.9552" lon="6.03873">
        <ele>177.6</ele>
        <time>2021-07-29T09:48:55Z</time>
      </trkpt>
      <trkpt lat="48.95514" lon="6.03875">
        <ele>177.6</ele>
        <time>2021-07-29T09:48:56Z</time>
      </trkpt>
      <trkpt lat="48.95509" lon="6.03877">
        <ele>177.6</ele>
        <time>2021-07-29T09:48:58Z</time>
      </trkpt>
      <trkpt lat="48.95504" lon="6.03878">
        <ele>177.6</ele>
        <time>2021-07-29T09:48:59Z</time>
      </trkpt>
      <trkpt lat="48.95499" lon="6.03878">
        <ele>177.6</ele>
        <time>2021-07-29T09:49:01Z</time>
      </trkpt>
      <trkpt lat="48.95494" lon="6.03877">
        <ele>177.6</ele>
        <time>2021-07-29T09:49:02Z</time>
      </trkpt>
      <trkpt lat="48.95489" lon="6.03875">
        <ele>177.6</ele>
        <time>2021-07-29T09:49:04Z</time>
      </trkpt>
      <trkpt lat="48.95482" lon="6.03875">
        <ele>177.6</ele>
        <time>2021-07-29T09:49:05Z</time>
      </trkpt>
      <trkpt lat="48.95478" lon="6.03877">
        <ele>177.6</ele>
        <time>2021-07-29T09:49:06Z</time>
      </trkpt>
      <trkpt lat="48.9547" lon="6.03881">
        <ele>177.6</ele>
        <time>2021-07-29T09:49:08Z</time>
      </trkpt>
      <trkpt lat="48.95464" lon="6.03883">
        <ele>177.6</ele>
        <time>2021-07-29T09:49:09Z</time>
      </trkpt>
      <trkpt lat="48.95458" lon="6.03886">
        <ele>177.6</ele>
        <time>2021-07-29T09:49:11Z</time>
      </trkpt>
      <trkpt lat="48.95454" lon="6.03888">
        <ele>177.6</ele>
        <time>2021-07-29T09:49:12Z</time>
      </trkpt>
      <trkpt lat="48.95448" lon="6.03891">
        <ele>177.6</ele>
        <time>2021-07-29T09:49:13Z</time>
      </trkpt>
      <trkpt lat="48.95443" lon="6.03892">
        <ele>177.6</ele>
        <time>2021-07-29T09:49:14Z</time>
      </trkpt>
      <trkpt lat="48.9544" lon="6.03894">
        <ele>177.6</ele>
        <time>2021-07-29T09:49:15Z</time>
      </trkpt>
      <trkpt lat="48.95433" lon="6.03898">
        <ele>177.6</ele>
        <time>2021-07-29T09:49:17Z</time>
      </trkpt>
      <trkpt lat="48.9543" lon="6.039">
        <ele>177.6</ele>
        <time>2021-07-29T09:49:18Z</time>
      </trkpt>
      <trkpt lat="48.95424" lon="6.03904">
        <ele>177.6</ele>
        <time>2021-07-29T09:49:19Z</time>
      </trkpt>
      <trkpt lat="48.9542" lon="6.03907">
        <ele>177.6</ele>
        <time>2021-07-29T09:49:20Z</time>
      </trkpt>
      <trkpt lat="48.95416" lon="6.03909">
        <ele>177.6</ele>
        <time>2021-07-29T09:49:21Z</time>
      </trkpt>
      <trkpt lat="48.95411" lon="6.03913">
        <ele>177.6</ele>
        <time>2021-07-29T09:49:23Z</time>
      </trkpt>
      <trkpt lat="48.95407" lon="6.03915">
        <ele>177.6</ele>
        <time>2021-07-29T09:49:24Z</time>
      </trkpt>
      <trkpt lat="48.95402" lon="6.03918">
        <ele>177.6</ele>
        <time>2021-07-29T09:49:25Z</time>
      </trkpt>
      <trkpt lat="48.95397" lon="6.03921">
        <ele>177.5</ele>
        <time>2021-07-29T09:49:27Z</time>
      </trkpt>
      <trkpt lat="48.95393" lon="6.03923">
        <ele>177.5</ele>
        <time>2021-07-29T09:49:28Z</time>
      </trkpt>
      <trkpt lat="48.95388" lon="6.03926">
        <ele>177.5</ele>
        <time>2021-07-29T09:49:29Z</time>
      </trkpt>
      <trkpt lat="48.95383" lon="6.03929">
        <ele>177.5</ele>
        <time>2021-07-29T09:49:30Z</time>
      </trkpt>
      <trkpt lat="48.95377" lon="6.03932">
        <ele>177.5</ele>
        <time>2021-07-29T09:49:32Z</time>
      </trkpt>
      <trkpt lat="48.95371" lon="6.03935">
        <ele>177.5</ele>
        <time>2021-07-29T09:49:33Z</time>
      </trkpt>
      <trkpt lat="48.95364" lon="6.03938">
        <ele>177.5</ele>
        <time>2021-07-29T09:49:35Z</time>
      </trkpt>
      <trkpt lat="48.95357" lon="6.03941">
        <ele>177.5</ele>
        <time>2021-07-29T09:49:36Z</time>
      </trkpt>
      <trkpt lat="48.95352" lon="6.03943">
        <ele>177.5</ele>
        <time>2021-07-29T09:49:37Z</time>
      </trkpt>
      <trkpt lat="48.95348" lon="6.03946">
        <ele>177.5</ele>
        <time>2021-07-29T09:49:38Z</time>
      </trkpt>
      <trkpt lat="48.95343" lon="6.03948">
        <ele>177.5</ele>
        <time>2021-07-29T09:49:39Z</time>
      </trkpt>
      <trkpt lat="48.95335" lon="6.03952">
        <ele>177.5</ele>
        <time>2021-07-29T09:49:41Z</time>
      </trkpt>
      <trkpt lat="48.95331" lon="6.03954">
        <ele>177.5</ele>
        <time>2021-07-29T09:49:43Z</time>
      </trkpt>
      <trkpt lat="48.95327" lon="6.03955">
        <ele>177.5</ele>
        <time>2021-07-29T09:49:44Z</time>
      </trkpt>
      <trkpt lat="48.95318" lon="6.03959">
        <ele>177.5</ele>
        <time>2021-07-29T09:49:45Z</time>
      </trkpt>
      <trkpt lat="48.95313" lon="6.03961">
        <ele>177.5</ele>
        <time>2021-07-29T09:49:47Z</time>
      </trkpt>
      <trkpt lat="48.95304" lon="6.03964">
        <ele>177.5</ele>
        <time>2021-07-29T09:49:49Z</time>
      </trkpt>
      <trkpt lat="48.95299" lon="6.03965">
        <ele>177.6</ele>
        <time>2021-07-29T09:49:50Z</time>
      </trkpt>
      <trkpt lat="48.95294" lon="6.03964">
        <ele>177.6</ele>
        <time>2021-07-29T09:49:51Z</time>
      </trkpt>
      <trkpt lat="48.9529" lon="6.03964">
        <ele>177.6</ele>
        <time>2021-07-29T09:49:52Z</time>
      </trkpt>
      <trkpt lat="48.95285" lon="6.03963">
        <ele>177.6</ele>
        <time>2021-07-29T09:49:53Z</time>
      </trkpt>
      <trkpt lat="48.95279" lon="6.03961">
        <ele>177.7</ele>
        <time>2021-07-29T09:49:54Z</time>
      </trkpt>
      <trkpt lat="48.95275" lon="6.03961">
        <ele>177.7</ele>
        <time>2021-07-29T09:49:55Z</time>
      </trkpt>
      <trkpt lat="48.95269" lon="6.0396">
        <ele>177.6</ele>
        <time>2021-07-29T09:49:57Z</time>
      </trkpt>
      <trkpt lat="48.95265" lon="6.0396">
        <ele>177.6</ele>
        <time>2021-07-29T09:49:58Z</time>
      </trkpt>
      <trkpt lat="48.9526" lon="6.0396">
        <ele>177.6</ele>
        <time>2021-07-29T09:49:59Z</time>
      </trkpt>
      <trkpt lat="48.95255" lon="6.0396">
        <ele>177.6</ele>
        <time>2021-07-29T09:50:00Z</time>
      </trkpt>
      <trkpt lat="48.9525" lon="6.0396">
        <ele>177.5</ele>
        <time>2021-07-29T09:50:01Z</time>
      </trkpt>
      <trkpt lat="48.95246" lon="6.03961">
        <ele>177.5</ele>
        <time>2021-07-29T09:50:02Z</time>
      </trkpt>
      <trkpt lat="48.95242" lon="6.03962">
        <ele>177.5</ele>
        <time>2021-07-29T09:50:03Z</time>
      </trkpt>
      <trkpt lat="48.95238" lon="6.03963">
        <ele>177.5</ele>
        <time>2021-07-29T09:50:04Z</time>
      </trkpt>
      <trkpt lat="48.95234" lon="6.03965">
        <ele>177.5</ele>
        <time>2021-07-29T09:50:05Z</time>
      </trkpt>
      <trkpt lat="48.9523" lon="6.03966">
        <ele>177.5</ele>
        <time>2021-07-29T09:50:06Z</time>
      </trkpt>
      <trkpt lat="48.95226" lon="6.03967">
        <ele>177.4</ele>
        <time>2021-07-29T09:50:07Z</time>
      </trkpt>
      <trkpt lat="48.95222" lon="6.03968">
        <ele>177.4</ele>
        <time>2021-07-29T09:50:08Z</time>
      </trkpt>
      <trkpt lat="48.95218" lon="6.0397">
        <ele>177.4</ele>
        <time>2021-07-29T09:50:09Z</time>
      </trkpt>
      <trkpt lat="48.95212" lon="6.03972">
        <ele>177.4</ele>
        <time>2021-07-29T09:50:11Z</time>
      </trkpt>
      <trkpt lat="48.95208" lon="6.03973">
        <ele>177.4</ele>
        <time>2021-07-29T09:50:12Z</time>
      </trkpt>
      <trkpt lat="48.95202" lon="6.03974">
        <ele>177.4</ele>
        <time>2021-07-29T09:50:13Z</time>
      </trkpt>
      <trkpt lat="48.95197" lon="6.03976">
        <ele>177.4</ele>
        <time>2021-07-29T09:50:14Z</time>
      </trkpt>
      <trkpt lat="48.95193" lon="6.03977">
        <ele>177.4</ele>
        <time>2021-07-29T09:50:15Z</time>
      </trkpt>
      <trkpt lat="48.95189" lon="6.03978">
        <ele>177.4</ele>
        <time>2021-07-29T09:50:16Z</time>
      </trkpt>
      <trkpt lat="48.95183" lon="6.0398">
        <ele>177.4</ele>
        <time>2021-07-29T09:50:18Z</time>
      </trkpt>
      <trkpt lat="48.95177" lon="6.03982">
        <ele>177.4</ele>
        <time>2021-07-29T09:50:19Z</time>
      </trkpt>
      <trkpt lat="48.95174" lon="6.03984">
        <ele>177.4</ele>
        <time>2021-07-29T09:50:20Z</time>
      </trkpt>
      <trkpt lat="48.95169" lon="6.03986">
        <ele>177.4</ele>
        <time>2021-07-29T09:50:22Z</time>
      </trkpt>
      <trkpt lat="48.95165" lon="6.03988">
        <ele>177.4</ele>
        <time>2021-07-29T09:50:23Z</time>
      </trkpt>
      <trkpt lat="48.95161" lon="6.0399">
        <ele>177.4</ele>
        <time>2021-07-29T09:50:24Z</time>
      </trkpt>
      <trkpt lat="48.95155" lon="6.03993">
        <ele>177.4</ele>
        <time>2021-07-29T09:50:25Z</time>
      </trkpt>
      <trkpt lat="48.95147" lon="6.03996">
        <ele>177.4</ele>
        <time>2021-07-29T09:50:27Z</time>
      </trkpt>
      <trkpt lat="48.95143" lon="6.03996">
        <ele>177.4</ele>
        <time>2021-07-29T09:50:28Z</time>
      </trkpt>
      <trkpt lat="48.95138" lon="6.03999">
        <ele>177.4</ele>
        <time>2021-07-29T09:50:29Z</time>
      </trkpt>
      <trkpt lat="48.95131" lon="6.04004">
        <ele>177.4</ele>
        <time>2021-07-29T09:50:31Z</time>
      </trkpt>
      <trkpt lat="48.95128" lon="6.04011">
        <ele>177.4</ele>
        <time>2021-07-29T09:50:32Z</time>
      </trkpt>
      <trkpt lat="48.95122" lon="6.04019">
        <ele>177.4</ele>
        <time>2021-07-29T09:50:34Z</time>
      </trkpt>
      <trkpt lat="48.95118" lon="6.04024">
        <ele>177.4</ele>
        <time>2021-07-29T09:50:35Z</time>
      </trkpt>
      <trkpt lat="48.95115" lon="6.0403">
        <ele>177.4</ele>
        <time>2021-07-29T09:50:36Z</time>
      </trkpt>
      <trkpt lat="48.95111" lon="6.04039">
        <ele>177.4</ele>
        <time>2021-07-29T09:50:38Z</time>
      </trkpt>
      <trkpt lat="48.95108" lon="6.04044">
        <ele>177.4</ele>
        <time>2021-07-29T09:50:39Z</time>
      </trkpt>
      <trkpt lat="48.95105" lon="6.04049">
        <ele>177.4</ele>
        <time>2021-07-29T09:50:40Z</time>
      </trkpt>
      <trkpt lat="48.95102" lon="6.04052">
        <ele>177.4</ele>
        <time>2021-07-29T09:50:41Z</time>
      </trkpt>
      <trkpt lat="48.95098" lon="6.04055">
        <ele>177.4</ele>
        <time>2021-07-29T09:50:42Z</time>
      </trkpt>
      <trkpt lat="48.95095" lon="6.04057">
        <ele>177.4</ele>
        <time>2021-07-29T09:50:43Z</time>
      </trkpt>
      <trkpt lat="48.95092" lon="6.04058">
        <ele>177.4</ele>
        <time>2021-07-29T09:50:44Z</time>
      </trkpt>
      <trkpt lat="48.95089" lon="6.04059">
        <ele>177.4</ele>
        <time>2021-07-29T09:50:45Z</time>
      </trkpt>
      <trkpt lat="48.95085" lon="6.0406">
        <ele>177.4</ele>
        <time>2021-07-29T09:50:46Z</time>
      </trkpt>
      <trkpt lat="48.95081" lon="6.04061">
        <ele>177.4</ele>
        <time>2021-07-29T09:50:47Z</time>
      </trkpt>
      <trkpt lat="48.95075" lon="6.04063">
        <ele>177.5</ele>
        <time>2021-07-29T09:50:49Z</time>
      </trkpt>
      <trkpt lat="48.95071" lon="6.04064">
        <ele>177.5</ele>
        <time>2021-07-29T09:50:50Z</time>
      </trkpt>
      <trkpt lat="48.95064" lon="6.04068">
        <ele>177.5</ele>
        <time>2021-07-29T09:50:52Z</time>
      </trkpt>
      <trkpt lat="48.9506" lon="6.04071">
        <ele>177.5</ele>
        <time>2021-07-29T09:50:53Z</time>
      </trkpt>
      <trkpt lat="48.95055" lon="6.04073">
        <ele>177.5</ele>
        <time>2021-07-29T09:50:54Z</time>
      </trkpt>
      <trkpt lat="48.95047" lon="6.04077">
        <ele>177.4</ele>
        <time>2021-07-29T09:50:56Z</time>
      </trkpt>
      <trkpt lat="48.95042" lon="6.04079">
        <ele>177.4</ele>
        <time>2021-07-29T09:50:57Z</time>
      </trkpt>
      <trkpt lat="48.95034" lon="6.04082">
        <ele>177.4</ele>
        <time>2021-07-29T09:50:58Z</time>
      </trkpt>
      <trkpt lat="48.95028" lon="6.04084">
        <ele>177.4</ele>
        <time>2021-07-29T09:51:00Z</time>
      </trkpt>
      <trkpt lat="48.95019" lon="6.04089">
        <ele>177.4</ele>
        <time>2021-07-29T09:51:02Z</time>
      </trkpt>
      <trkpt lat="48.95007" lon="6.04094">
        <ele>177.4</ele>
        <time>2021-07-29T09:51:04Z</time>
      </trkpt>
      <trkpt lat="48.95001" lon="6.04097">
        <ele>177.4</ele>
        <time>2021-07-29T09:51:05Z</time>
      </trkpt>
      <trkpt lat="48.94996" lon="6.04099">
        <ele>177.4</ele>
        <time>2021-07-29T09:51:07Z</time>
      </trkpt>
      <trkpt lat="48.94989" lon="6.04101">
        <ele>177.4</ele>
        <time>2021-07-29T09:51:08Z</time>
      </trkpt>
      <trkpt lat="48.94982" lon="6.04105">
        <ele>177.4</ele>
        <time>2021-07-29T09:51:09Z</time>
      </trkpt>
      <trkpt lat="48.94976" lon="6.0411">
        <ele>177.4</ele>
        <time>2021-07-29T09:51:11Z</time>
      </trkpt>
      <trkpt lat="48.94965" lon="6.04112">
        <ele>177.4</ele>
        <time>2021-07-29T09:51:13Z</time>
      </trkpt>
      <trkpt lat="48.9496" lon="6.04113">
        <ele>177.4</ele>
        <time>2021-07-29T09:51:14Z</time>
      </trkpt>
      <trkpt lat="48.94951" lon="6.04116">
        <ele>177.4</ele>
        <time>2021-07-29T09:51:16Z</time>
      </trkpt>
      <trkpt lat="48.94948" lon="6.04118">
        <ele>177.4</ele>
        <time>2021-07-29T09:51:17Z</time>
      </trkpt>
      <trkpt lat="48.94944" lon="6.0412">
        <ele>177.4</ele>
        <time>2021-07-29T09:51:18Z</time>
      </trkpt>
      <trkpt lat="48.94938" lon="6.04123">
        <ele>177.4</ele>
        <time>2021-07-29T09:51:19Z</time>
      </trkpt>
      <trkpt lat="48.94929" lon="6.04127">
        <ele>177.4</ele>
        <time>2021-07-29T09:51:21Z</time>
      </trkpt>
      <trkpt lat="48.94921" lon="6.04128">
        <ele>177.4</ele>
        <time>2021-07-29T09:51:23Z</time>
      </trkpt>
      <trkpt lat="48.94913" lon="6.0413">
        <ele>177.4</ele>
        <time>2021-07-29T09:51:25Z</time>
      </trkpt>
      <trkpt lat="48.94907" lon="6.04133">
        <ele>177.4</ele>
        <time>2021-07-29T09:51:26Z</time>
      </trkpt>
      <trkpt lat="48.94897" lon="6.04137">
        <ele>177.4</ele>
        <time>2021-07-29T09:51:28Z</time>
      </trkpt>
      <trkpt lat="48.94892" lon="6.04139">
        <ele>177.4</ele>
        <time>2021-07-29T09:51:29Z</time>
      </trkpt>
      <trkpt lat="48.94889" lon="6.0414">
        <ele>177.4</ele>
        <time>2021-07-29T09:51:30Z</time>
      </trkpt>
      <trkpt lat="48.94884" lon="6.04143">
        <ele>177.4</ele>
        <time>2021-07-29T09:51:31Z</time>
      </trkpt>
      <trkpt lat="48.94878" lon="6.04145">
        <ele>177.4</ele>
        <time>2021-07-29T09:51:33Z</time>
      </trkpt>
      <trkpt lat="48.94873" lon="6.04146">
        <ele>177.4</ele>
        <time>2021-07-29T09:51:34Z</time>
      </trkpt>
      <trkpt lat="48.94863" lon="6.0415">
        <ele>177.4</ele>
        <time>2021-07-29T09:51:36Z</time>
      </trkpt>
      <trkpt lat="48.94861" lon="6.04153">
        <ele>177.4</ele>
        <time>2021-07-29T09:51:37Z</time>
      </trkpt>
      <trkpt lat="48.94856" lon="6.04156">
        <ele>177.4</ele>
        <time>2021-07-29T09:51:38Z</time>
      </trkpt>
      <trkpt lat="48.94847" lon="6.04158">
        <ele>177.4</ele>
        <time>2021-07-29T09:51:40Z</time>
      </trkpt>
      <trkpt lat="48.94842" lon="6.0416">
        <ele>177.4</ele>
        <time>2021-07-29T09:51:41Z</time>
      </trkpt>
      <trkpt lat="48.94837" lon="6.04164">
        <ele>177.4</ele>
        <time>2021-07-29T09:51:42Z</time>
      </trkpt>
      <trkpt lat="48.94831" lon="6.04167">
        <ele>177.4</ele>
        <time>2021-07-29T09:51:44Z</time>
      </trkpt>
      <trkpt lat="48.94826" lon="6.04168">
        <ele>177.4</ele>
        <time>2021-07-29T09:51:45Z</time>
      </trkpt>
      <trkpt lat="48.94819" lon="6.04171">
        <ele>177.5</ele>
        <time>2021-07-29T09:51:46Z</time>
      </trkpt>
      <trkpt lat="48.94814" lon="6.04172">
        <ele>177.5</ele>
        <time>2021-07-29T09:51:48Z</time>
      </trkpt>
      <trkpt lat="48.94808" lon="6.04174">
        <ele>177.5</ele>
        <time>2021-07-29T09:51:49Z</time>
      </trkpt>
      <trkpt lat="48.94802" lon="6.04175">
        <ele>177.5</ele>
        <time>2021-07-29T09:51:51Z</time>
      </trkpt>
      <trkpt lat="48.94793" lon="6.04177">
        <ele>177.5</ele>
        <time>2021-07-29T09:51:52Z</time>
      </trkpt>
      <trkpt lat="48.94786" lon="6.0418">
        <ele>177.6</ele>
        <time>2021-07-29T09:51:54Z</time>
      </trkpt>
      <trkpt lat="48.94779" lon="6.04183">
        <ele>177.6</ele>
        <time>2021-07-29T09:51:55Z</time>
      </trkpt>
      <trkpt lat="48.94773" lon="6.04185">
        <ele>177.6</ele>
        <time>2021-07-29T09:51:57Z</time>
      </trkpt>
      <trkpt lat="48.94766" lon="6.04188">
        <ele>177.6</ele>
        <time>2021-07-29T09:51:58Z</time>
      </trkpt>
      <trkpt lat="48.9476" lon="6.04191">
        <ele>177.6</ele>
        <time>2021-07-29T09:52:00Z</time>
      </trkpt>
      <trkpt lat="48.94755" lon="6.04194">
        <ele>177.6</ele>
        <time>2021-07-29T09:52:01Z</time>
      </trkpt>
      <trkpt lat="48.9475" lon="6.04196">
        <ele>177.7</ele>
        <time>2021-07-29T09:52:02Z</time>
      </trkpt>
      <trkpt lat="48.94744" lon="6.04198">
        <ele>177.7</ele>
        <time>2021-07-29T09:52:04Z</time>
      </trkpt>
      <trkpt lat="48.94736" lon="6.042">
        <ele>177.7</ele>
        <time>2021-07-29T09:52:06Z</time>
      </trkpt>
      <trkpt lat="48.94731" lon="6.04201">
        <ele>177.7</ele>
        <time>2021-07-29T09:52:07Z</time>
      </trkpt>
      <trkpt lat="48.94726" lon="6.04202">
        <ele>177.7</ele>
        <time>2021-07-29T09:52:08Z</time>
      </trkpt>
      <trkpt lat="48.94717" lon="6.04205">
        <ele>177.7</ele>
        <time>2021-07-29T09:52:10Z</time>
      </trkpt>
      <trkpt lat="48.9471" lon="6.04205">
        <ele>177.7</ele>
        <time>2021-07-29T09:52:11Z</time>
      </trkpt>
      <trkpt lat="48.94705" lon="6.04206">
        <ele>177.8</ele>
        <time>2021-07-29T09:52:12Z</time>
      </trkpt>
      <trkpt lat="48.94701" lon="6.04207">
        <ele>177.8</ele>
        <time>2021-07-29T09:52:13Z</time>
      </trkpt>
      <trkpt lat="48.94695" lon="6.0421">
        <ele>177.8</ele>
        <time>2021-07-29T09:52:15Z</time>
      </trkpt>
      <trkpt lat="48.94688" lon="6.04213">
        <ele>177.8</ele>
        <time>2021-07-29T09:52:16Z</time>
      </trkpt>
      <trkpt lat="48.94682" lon="6.04214">
        <ele>177.8</ele>
        <time>2021-07-29T09:52:18Z</time>
      </trkpt>
      <trkpt lat="48.94674" lon="6.04216">
        <ele>177.8</ele>
        <time>2021-07-29T09:52:20Z</time>
      </trkpt>
      <trkpt lat="48.94664" lon="6.0422">
        <ele>177.8</ele>
        <time>2021-07-29T09:52:22Z</time>
      </trkpt>
      <trkpt lat="48.94658" lon="6.04222">
        <ele>177.8</ele>
        <time>2021-07-29T09:52:23Z</time>
      </trkpt>
      <trkpt lat="48.94653" lon="6.04223">
        <ele>177.8</ele>
        <time>2021-07-29T09:52:24Z</time>
      </trkpt>
      <trkpt lat="48.94647" lon="6.04226">
        <ele>177.8</ele>
        <time>2021-07-29T09:52:25Z</time>
      </trkpt>
      <trkpt lat="48.9464" lon="6.04229">
        <ele>177.8</ele>
        <time>2021-07-29T09:52:27Z</time>
      </trkpt>
      <trkpt lat="48.94633" lon="6.04232">
        <ele>177.8</ele>
        <time>2021-07-29T09:52:29Z</time>
      </trkpt>
      <trkpt lat="48.94629" lon="6.04233">
        <ele>177.8</ele>
        <time>2021-07-29T09:52:30Z</time>
      </trkpt>
      <trkpt lat="48.94625" lon="6.04234">
        <ele>177.8</ele>
        <time>2021-07-29T09:52:31Z</time>
      </trkpt>
      <trkpt lat="48.94618" lon="6.04236">
        <ele>177.8</ele>
        <time>2021-07-29T09:52:32Z</time>
      </trkpt>
      <trkpt lat="48.94609" lon="6.04239">
        <ele>177.8</ele>
        <time>2021-07-29T09:52:34Z</time>
      </trkpt>
      <trkpt lat="48.94605" lon="6.04242">
        <ele>177.8</ele>
        <time>2021-07-29T09:52:35Z</time>
      </trkpt>
      <trkpt lat="48.94598" lon="6.04244">
        <ele>177.8</ele>
        <time>2021-07-29T09:52:37Z</time>
      </trkpt>
      <trkpt lat="48.94589" lon="6.04245">
        <ele>177.8</ele>
        <time>2021-07-29T09:52:38Z</time>
      </trkpt>
      <trkpt lat="48.94579" lon="6.04246">
        <ele>177.8</ele>
        <time>2021-07-29T09:52:40Z</time>
      </trkpt>
      <trkpt lat="48.94573" lon="6.04246">
        <ele>177.8</ele>
        <time>2021-07-29T09:52:41Z</time>
      </trkpt>
      <trkpt lat="48.94565" lon="6.04241">
        <ele>177.8</ele>
        <time>2021-07-29T09:52:43Z</time>
      </trkpt>
      <trkpt lat="48.94556" lon="6.04248">
        <ele>177.8</ele>
        <time>2021-07-29T09:52:44Z</time>
      </trkpt>
      <trkpt lat="48.9455" lon="6.0425">
        <ele>177.8</ele>
        <time>2021-07-29T09:52:46Z</time>
      </trkpt>
      <trkpt lat="48.94544" lon="6.04255">
        <ele>177.9</ele>
        <time>2021-07-29T09:52:47Z</time>
      </trkpt>
      <trkpt lat="48.94539" lon="6.04257">
        <ele>177.9</ele>
        <time>2021-07-29T09:52:48Z</time>
      </trkpt>
      <trkpt lat="48.9453" lon="6.04259">
        <ele>177.9</ele>
        <time>2021-07-29T09:52:50Z</time>
      </trkpt>
      <trkpt lat="48.94523" lon="6.04262">
        <ele>177.9</ele>
        <time>2021-07-29T09:52:51Z</time>
      </trkpt>
      <trkpt lat="48.94514" lon="6.04264">
        <ele>177.9</ele>
        <time>2021-07-29T09:52:53Z</time>
      </trkpt>
      <trkpt lat="48.94509" lon="6.04265">
        <ele>178</ele>
        <time>2021-07-29T09:52:54Z</time>
      </trkpt>
      <trkpt lat="48.94499" lon="6.04265">
        <ele>178</ele>
        <time>2021-07-29T09:52:56Z</time>
      </trkpt>
      <trkpt lat="48.94495" lon="6.04267">
        <ele>178</ele>
        <time>2021-07-29T09:52:57Z</time>
      </trkpt>
      <trkpt lat="48.9449" lon="6.04268">
        <ele>177.9</ele>
        <time>2021-07-29T09:52:58Z</time>
      </trkpt>
      <trkpt lat="48.94485" lon="6.04268">
        <ele>177.9</ele>
        <time>2021-07-29T09:53:00Z</time>
      </trkpt>
      <trkpt lat="48.94478" lon="6.04267">
        <ele>177.9</ele>
        <time>2021-07-29T09:53:01Z</time>
      </trkpt>
      <trkpt lat="48.94473" lon="6.04267">
        <ele>177.9</ele>
        <time>2021-07-29T09:53:02Z</time>
      </trkpt>
      <trkpt lat="48.94462" lon="6.04268">
        <ele>177.9</ele>
        <time>2021-07-29T09:53:04Z</time>
      </trkpt>
      <trkpt lat="48.94457" lon="6.04268">
        <ele>177.9</ele>
        <time>2021-07-29T09:53:05Z</time>
      </trkpt>
      <trkpt lat="48.94453" lon="6.0427">
        <ele>177.9</ele>
        <time>2021-07-29T09:53:06Z</time>
      </trkpt>
      <trkpt lat="48.94444" lon="6.0427">
        <ele>178</ele>
        <time>2021-07-29T09:53:08Z</time>
      </trkpt>
      <trkpt lat="48.94436" lon="6.04271">
        <ele>178</ele>
        <time>2021-07-29T09:53:10Z</time>
      </trkpt>
      <trkpt lat="48.94433" lon="6.04271">
        <ele>178</ele>
        <time>2021-07-29T09:53:11Z</time>
      </trkpt>
      <trkpt lat="48.9443" lon="6.04271">
        <ele>178</ele>
        <time>2021-07-29T09:53:12Z</time>
      </trkpt>
      <trkpt lat="48.94428" lon="6.04272">
        <ele>178</ele>
        <time>2021-07-29T09:53:13Z</time>
      </trkpt>
      <trkpt lat="48.94424" lon="6.04272">
        <ele>178</ele>
        <time>2021-07-29T09:53:15Z</time>
      </trkpt>
      <trkpt lat="48.9442" lon="6.04272">
        <ele>178</ele>
        <time>2021-07-29T09:53:16Z</time>
      </trkpt>
      <trkpt lat="48.94417" lon="6.04273">
        <ele>178</ele>
        <time>2021-07-29T09:53:17Z</time>
      </trkpt>
      <trkpt lat="48.94412" lon="6.04273">
        <ele>178</ele>
        <time>2021-07-29T09:53:19Z</time>
      </trkpt>
      <trkpt lat="48.94405" lon="6.04273">
        <ele>178</ele>
        <time>2021-07-29T09:53:20Z</time>
      </trkpt>
      <trkpt lat="48.944" lon="6.04273">
        <ele>178</ele>
        <time>2021-07-29T09:53:22Z</time>
      </trkpt>
      <trkpt lat="48.94395" lon="6.04274">
        <ele>178</ele>
        <time>2021-07-29T09:53:23Z</time>
      </trkpt>
      <trkpt lat="48.94392" lon="6.04274">
        <ele>177.9</ele>
        <time>2021-07-29T09:53:24Z</time>
      </trkpt>
      <trkpt lat="48.94387" lon="6.04274">
        <ele>177.9</ele>
        <time>2021-07-29T09:53:25Z</time>
      </trkpt>
      <trkpt lat="48.94381" lon="6.04275">
        <ele>177.9</ele>
        <time>2021-07-29T09:53:26Z</time>
      </trkpt>
      <trkpt lat="48.94376" lon="6.04275">
        <ele>177.9</ele>
        <time>2021-07-29T09:53:28Z</time>
      </trkpt>
      <trkpt lat="48.94371" lon="6.04276">
        <ele>177.9</ele>
        <time>2021-07-29T09:53:29Z</time>
      </trkpt>
      <trkpt lat="48.94366" lon="6.04276">
        <ele>177.9</ele>
        <time>2021-07-29T09:53:30Z</time>
      </trkpt>
      <trkpt lat="48.9436" lon="6.04277">
        <ele>177.9</ele>
        <time>2021-07-29T09:53:31Z</time>
      </trkpt>
      <trkpt lat="48.94354" lon="6.04276">
        <ele>177.9</ele>
        <time>2021-07-29T09:53:33Z</time>
      </trkpt>
      <trkpt lat="48.94348" lon="6.04276">
        <ele>177.9</ele>
        <time>2021-07-29T09:53:34Z</time>
      </trkpt>
      <trkpt lat="48.94343" lon="6.04277">
        <ele>177.9</ele>
        <time>2021-07-29T09:53:35Z</time>
      </trkpt>
      <trkpt lat="48.94336" lon="6.04277">
        <ele>177.9</ele>
        <time>2021-07-29T09:53:37Z</time>
      </trkpt>
      <trkpt lat="48.9433" lon="6.04278">
        <ele>177.9</ele>
        <time>2021-07-29T09:53:38Z</time>
      </trkpt>
      <trkpt lat="48.94325" lon="6.04274">
        <ele>177.9</ele>
        <time>2021-07-29T09:53:39Z</time>
      </trkpt>
      <trkpt lat="48.94318" lon="6.04273">
        <ele>177.9</ele>
        <time>2021-07-29T09:53:40Z</time>
      </trkpt>
      <trkpt lat="48.94313" lon="6.04276">
        <ele>177.9</ele>
        <time>2021-07-29T09:53:42Z</time>
      </trkpt>
      <trkpt lat="48.94306" lon="6.04279">
        <ele>177.9</ele>
        <time>2021-07-29T09:53:43Z</time>
      </trkpt>
      <trkpt lat="48.94301" lon="6.0428">
        <ele>177.9</ele>
        <time>2021-07-29T09:53:45Z</time>
      </trkpt>
      <trkpt lat="48.94296" lon="6.0428">
        <ele>177.9</ele>
        <time>2021-07-29T09:53:46Z</time>
      </trkpt>
      <trkpt lat="48.9429" lon="6.0428">
        <ele>177.9</ele>
        <time>2021-07-29T09:53:48Z</time>
      </trkpt>
      <trkpt lat="48.94278" lon="6.0428">
        <ele>177.9</ele>
        <time>2021-07-29T09:53:50Z</time>
      </trkpt>
      <trkpt lat="48.94266" lon="6.0428">
        <ele>177.8</ele>
        <time>2021-07-29T09:53:52Z</time>
      </trkpt>
      <trkpt lat="48.94255" lon="6.04281">
        <ele>177.8</ele>
        <time>2021-07-29T09:53:54Z</time>
      </trkpt>
      <trkpt lat="48.94249" lon="6.04281">
        <ele>177.8</ele>
        <time>2021-07-29T09:53:55Z</time>
      </trkpt>
      <trkpt lat="48.94243" lon="6.04282">
        <ele>177.8</ele>
        <time>2021-07-29T09:53:56Z</time>
      </trkpt>
      <trkpt lat="48.94232" lon="6.04282">
        <ele>177.8</ele>
        <time>2021-07-29T09:53:58Z</time>
      </trkpt>
      <trkpt lat="48.94227" lon="6.04283">
        <ele>177.8</ele>
        <time>2021-07-29T09:53:59Z</time>
      </trkpt>
      <trkpt lat="48.94217" lon="6.04282">
        <ele>177.8</ele>
        <time>2021-07-29T09:54:01Z</time>
      </trkpt>
      <trkpt lat="48.94212" lon="6.04281">
        <ele>177.8</ele>
        <time>2021-07-29T09:54:02Z</time>
      </trkpt>
      <trkpt lat="48.94202" lon="6.0428">
        <ele>177.8</ele>
        <time>2021-07-29T09:54:04Z</time>
      </trkpt>
      <trkpt lat="48.94196" lon="6.0428">
        <ele>177.8</ele>
        <time>2021-07-29T09:54:05Z</time>
      </trkpt>
      <trkpt lat="48.94191" lon="6.0428">
        <ele>177.7</ele>
        <time>2021-07-29T09:54:06Z</time>
      </trkpt>
      <trkpt lat="48.94181" lon="6.04279">
        <ele>177.7</ele>
        <time>2021-07-29T09:54:08Z</time>
      </trkpt>
      <trkpt lat="48.94171" lon="6.0428">
        <ele>177.7</ele>
        <time>2021-07-29T09:54:10Z</time>
      </trkpt>
      <trkpt lat="48.94167" lon="6.0428">
        <ele>177.7</ele>
        <time>2021-07-29T09:54:11Z</time>
      </trkpt>
      <trkpt lat="48.94162" lon="6.0428">
        <ele>177.7</ele>
        <time>2021-07-29T09:54:12Z</time>
      </trkpt>
      <trkpt lat="48.94155" lon="6.0428">
        <ele>177.6</ele>
        <time>2021-07-29T09:54:14Z</time>
      </trkpt>
      <trkpt lat="48.94146" lon="6.04278">
        <ele>177.6</ele>
        <time>2021-07-29T09:54:16Z</time>
      </trkpt>
      <trkpt lat="48.94136" lon="6.04277">
        <ele>177.6</ele>
        <time>2021-07-29T09:54:18Z</time>
      </trkpt>
      <trkpt lat="48.94131" lon="6.04277">
        <ele>177.6</ele>
        <time>2021-07-29T09:54:19Z</time>
      </trkpt>
      <trkpt lat="48.94126" lon="6.04275">
        <ele>177.6</ele>
        <time>2021-07-29T09:54:20Z</time>
      </trkpt>
      <trkpt lat="48.94123" lon="6.04274">
        <ele>177.6</ele>
        <time>2021-07-29T09:54:21Z</time>
      </trkpt>
      <trkpt lat="48.94112" lon="6.04274">
        <ele>177.6</ele>
        <time>2021-07-29T09:54:23Z</time>
      </trkpt>
      <trkpt lat="48.94108" lon="6.04273">
        <ele>177.6</ele>
        <time>2021-07-29T09:54:24Z</time>
      </trkpt>
      <trkpt lat="48.941" lon="6.04276">
        <ele>177.6</ele>
        <time>2021-07-29T09:54:26Z</time>
      </trkpt>
      <trkpt lat="48.94094" lon="6.04272">
        <ele>177.6</ele>
        <time>2021-07-29T09:54:27Z</time>
      </trkpt>
      <trkpt lat="48.94089" lon="6.04272">
        <ele>177.6</ele>
        <time>2021-07-29T09:54:28Z</time>
      </trkpt>
      <trkpt lat="48.94079" lon="6.04271">
        <ele>177.6</ele>
        <time>2021-07-29T09:54:30Z</time>
      </trkpt>
      <trkpt lat="48.94073" lon="6.04271">
        <ele>177.6</ele>
        <time>2021-07-29T09:54:31Z</time>
      </trkpt>
      <trkpt lat="48.94067" lon="6.04272">
        <ele>177.6</ele>
        <time>2021-07-29T09:54:33Z</time>
      </trkpt>
      <trkpt lat="48.94062" lon="6.04271">
        <ele>177.6</ele>
        <time>2021-07-29T09:54:34Z</time>
      </trkpt>
      <trkpt lat="48.94058" lon="6.04271">
        <ele>177.6</ele>
        <time>2021-07-29T09:54:35Z</time>
      </trkpt>
      <trkpt lat="48.94052" lon="6.04271">
        <ele>177.6</ele>
        <time>2021-07-29T09:54:36Z</time>
      </trkpt>
      <trkpt lat="48.94048" lon="6.04271">
        <ele>177.6</ele>
        <time>2021-07-29T09:54:37Z</time>
      </trkpt>
      <trkpt lat="48.94043" lon="6.04271">
        <ele>177.6</ele>
        <time>2021-07-29T09:54:38Z</time>
      </trkpt>
      <trkpt lat="48.94037" lon="6.04271">
        <ele>177.6</ele>
        <time>2021-07-29T09:54:40Z</time>
      </trkpt>
      <trkpt lat="48.94033" lon="6.0427">
        <ele>177.6</ele>
        <time>2021-07-29T09:54:41Z</time>
      </trkpt>
      <trkpt lat="48.9403" lon="6.0427">
        <ele>177.6</ele>
        <time>2021-07-29T09:54:42Z</time>
      </trkpt>
      <trkpt lat="48.94022" lon="6.04271">
        <ele>177.6</ele>
        <time>2021-07-29T09:54:44Z</time>
      </trkpt>
      <trkpt lat="48.94013" lon="6.04271">
        <ele>177.6</ele>
        <time>2021-07-29T09:54:46Z</time>
      </trkpt>
      <trkpt lat="48.94009" lon="6.04271">
        <ele>177.6</ele>
        <time>2021-07-29T09:54:47Z</time>
      </trkpt>
      <trkpt lat="48.94003" lon="6.04272">
        <ele>177.6</ele>
        <time>2021-07-29T09:54:48Z</time>
      </trkpt>
      <trkpt lat="48.93998" lon="6.04272">
        <ele>177.6</ele>
        <time>2021-07-29T09:54:49Z</time>
      </trkpt>
      <trkpt lat="48.93994" lon="6.04272">
        <ele>177.6</ele>
        <time>2021-07-29T09:54:50Z</time>
      </trkpt>
      <trkpt lat="48.93989" lon="6.04271">
        <ele>177.5</ele>
        <time>2021-07-29T09:54:51Z</time>
      </trkpt>
      <trkpt lat="48.93983" lon="6.04271">
        <ele>177.5</ele>
        <time>2021-07-29T09:54:53Z</time>
      </trkpt>
      <trkpt lat="48.93978" lon="6.0427">
        <ele>177.5</ele>
        <time>2021-07-29T09:54:54Z</time>
      </trkpt>
      <trkpt lat="48.93971" lon="6.04269">
        <ele>177.5</ele>
        <time>2021-07-29T09:54:55Z</time>
      </trkpt>
      <trkpt lat="48.93966" lon="6.04267">
        <ele>177.5</ele>
        <time>2021-07-29T09:54:57Z</time>
      </trkpt>
      <trkpt lat="48.9396" lon="6.04265">
        <ele>177.5</ele>
        <time>2021-07-29T09:54:58Z</time>
      </trkpt>
      <trkpt lat="48.93954" lon="6.04264">
        <ele>177.5</ele>
        <time>2021-07-29T09:54:59Z</time>
      </trkpt>
      <trkpt lat="48.9395" lon="6.04264">
        <ele>177.4</ele>
        <time>2021-07-29T09:55:01Z</time>
      </trkpt>
      <trkpt lat="48.93946" lon="6.04264">
        <ele>177.4</ele>
        <time>2021-07-29T09:55:02Z</time>
      </trkpt>
      <trkpt lat="48.93941" lon="6.04263">
        <ele>177.4</ele>
        <time>2021-07-29T09:55:03Z</time>
      </trkpt>
      <trkpt lat="48.93936" lon="6.04261">
        <ele>177.4</ele>
        <time>2021-07-29T09:55:05Z</time>
      </trkpt>
      <trkpt lat="48.93933" lon="6.04261">
        <ele>177.4</ele>
        <time>2021-07-29T09:55:06Z</time>
      </trkpt>
      <trkpt lat="48.93926" lon="6.04259">
        <ele>177.4</ele>
        <time>2021-07-29T09:55:08Z</time>
      </trkpt>
      <trkpt lat="48.93921" lon="6.04258">
        <ele>177.4</ele>
        <time>2021-07-29T09:55:09Z</time>
      </trkpt>
      <trkpt lat="48.93916" lon="6.04257">
        <ele>177.4</ele>
        <time>2021-07-29T09:55:11Z</time>
      </trkpt>
      <trkpt lat="48.9391" lon="6.04256">
        <ele>177.4</ele>
        <time>2021-07-29T09:55:12Z</time>
      </trkpt>
      <trkpt lat="48.93905" lon="6.04256">
        <ele>177.4</ele>
        <time>2021-07-29T09:55:14Z</time>
      </trkpt>
      <trkpt lat="48.93898" lon="6.04255">
        <ele>177.4</ele>
        <time>2021-07-29T09:55:16Z</time>
      </trkpt>
      <trkpt lat="48.93893" lon="6.04255">
        <ele>177.3</ele>
        <time>2021-07-29T09:55:17Z</time>
      </trkpt>
      <trkpt lat="48.93889" lon="6.04254">
        <ele>177.3</ele>
        <time>2021-07-29T09:55:19Z</time>
      </trkpt>
      <trkpt lat="48.93882" lon="6.04251">
        <ele>177.3</ele>
        <time>2021-07-29T09:55:21Z</time>
      </trkpt>
      <trkpt lat="48.93877" lon="6.0425">
        <ele>177.3</ele>
        <time>2021-07-29T09:55:22Z</time>
      </trkpt>
      <trkpt lat="48.93873" lon="6.04249">
        <ele>177.3</ele>
        <time>2021-07-29T09:55:23Z</time>
      </trkpt>
      <trkpt lat="48.93869" lon="6.04249">
        <ele>177.3</ele>
        <time>2021-07-29T09:55:24Z</time>
      </trkpt>
      <trkpt lat="48.93865" lon="6.04249">
        <ele>177.3</ele>
        <time>2021-07-29T09:55:25Z</time>
      </trkpt>
      <trkpt lat="48.93862" lon="6.04248">
        <ele>177.3</ele>
        <time>2021-07-29T09:55:26Z</time>
      </trkpt>
      <trkpt lat="48.93856" lon="6.04248">
        <ele>177.3</ele>
        <time>2021-07-29T09:55:27Z</time>
      </trkpt>
      <trkpt lat="48.93849" lon="6.04247">
        <ele>177.2</ele>
        <time>2021-07-29T09:55:29Z</time>
      </trkpt>
      <trkpt lat="48.93843" lon="6.04247">
        <ele>177.2</ele>
        <time>2021-07-29T09:55:30Z</time>
      </trkpt>
      <trkpt lat="48.93836" lon="6.04246">
        <ele>177.2</ele>
        <time>2021-07-29T09:55:32Z</time>
      </trkpt>
      <trkpt lat="48.93828" lon="6.04245">
        <ele>177.2</ele>
        <time>2021-07-29T09:55:34Z</time>
      </trkpt>
      <trkpt lat="48.93819" lon="6.04243">
        <ele>177.3</ele>
        <time>2021-07-29T09:55:36Z</time>
      </trkpt>
      <trkpt lat="48.93811" lon="6.04242">
        <ele>177.3</ele>
        <time>2021-07-29T09:55:38Z</time>
      </trkpt>
      <trkpt lat="48.93804" lon="6.0424">
        <ele>177.3</ele>
        <time>2021-07-29T09:55:40Z</time>
      </trkpt>
      <trkpt lat="48.93801" lon="6.0424">
        <ele>177.3</ele>
        <time>2021-07-29T09:55:41Z</time>
      </trkpt>
      <trkpt lat="48.93794" lon="6.04239">
        <ele>177.3</ele>
        <time>2021-07-29T09:55:43Z</time>
      </trkpt>
      <trkpt lat="48.93791" lon="6.04238">
        <ele>177.3</ele>
        <time>2021-07-29T09:55:44Z</time>
      </trkpt>
      <trkpt lat="48.93785" lon="6.04236">
        <ele>177.3</ele>
        <time>2021-07-29T09:55:46Z</time>
      </trkpt>
      <trkpt lat="48.93779" lon="6.04235">
        <ele>177.3</ele>
        <time>2021-07-29T09:55:48Z</time>
      </trkpt>
      <trkpt lat="48.93775" lon="6.04235">
        <ele>177.3</ele>
        <time>2021-07-29T09:55:49Z</time>
      </trkpt>
      <trkpt lat="48.93771" lon="6.04234">
        <ele>177.2</ele>
        <time>2021-07-29T09:55:51Z</time>
      </trkpt>
      <trkpt lat="48.93768" lon="6.04233">
        <ele>177.2</ele>
        <time>2021-07-29T09:55:52Z</time>
      </trkpt>
      <trkpt lat="48.93761" lon="6.04232">
        <ele>177.2</ele>
        <time>2021-07-29T09:55:53Z</time>
      </trkpt>
      <trkpt lat="48.93756" lon="6.04231">
        <ele>177.2</ele>
        <time>2021-07-29T09:55:55Z</time>
      </trkpt>
      <trkpt lat="48.93752" lon="6.0423">
        <ele>177.2</ele>
        <time>2021-07-29T09:55:56Z</time>
      </trkpt>
      <trkpt lat="48.93748" lon="6.04228">
        <ele>177.2</ele>
        <time>2021-07-29T09:55:57Z</time>
      </trkpt>
      <trkpt lat="48.93745" lon="6.04227">
        <ele>177.2</ele>
        <time>2021-07-29T09:55:58Z</time>
      </trkpt>
      <trkpt lat="48.93739" lon="6.04225">
        <ele>177.2</ele>
        <time>2021-07-29T09:55:59Z</time>
      </trkpt>
      <trkpt lat="48.93734" lon="6.04222">
        <ele>177.2</ele>
        <time>2021-07-29T09:56:01Z</time>
      </trkpt>
      <trkpt lat="48.9373" lon="6.0422">
        <ele>177.2</ele>
        <time>2021-07-29T09:56:02Z</time>
      </trkpt>
      <trkpt lat="48.93725" lon="6.04218">
        <ele>177.2</ele>
        <time>2021-07-29T09:56:03Z</time>
      </trkpt>
      <trkpt lat="48.93716" lon="6.04214">
        <ele>177.2</ele>
        <time>2021-07-29T09:56:05Z</time>
      </trkpt>
      <trkpt lat="48.93712" lon="6.04212">
        <ele>177.2</ele>
        <time>2021-07-29T09:56:06Z</time>
      </trkpt>
      <trkpt lat="48.93705" lon="6.04206">
        <ele>177.3</ele>
        <time>2021-07-29T09:56:08Z</time>
      </trkpt>
      <trkpt lat="48.93697" lon="6.04205">
        <ele>177.3</ele>
        <time>2021-07-29T09:56:10Z</time>
      </trkpt>
      <trkpt lat="48.93688" lon="6.04204">
        <ele>177.3</ele>
        <time>2021-07-29T09:56:12Z</time>
      </trkpt>
      <trkpt lat="48.93683" lon="6.04203">
        <ele>177.3</ele>
        <time>2021-07-29T09:56:13Z</time>
      </trkpt>
      <trkpt lat="48.9368" lon="6.04203">
        <ele>177.3</ele>
        <time>2021-07-29T09:56:14Z</time>
      </trkpt>
      <trkpt lat="48.93675" lon="6.04202">
        <ele>177.3</ele>
        <time>2021-07-29T09:56:15Z</time>
      </trkpt>
      <trkpt lat="48.93668" lon="6.042">
        <ele>177.3</ele>
        <time>2021-07-29T09:56:17Z</time>
      </trkpt>
      <trkpt lat="48.93662" lon="6.04197">
        <ele>177.3</ele>
        <time>2021-07-29T09:56:18Z</time>
      </trkpt>
      <trkpt lat="48.93655" lon="6.04194">
        <ele>177.3</ele>
        <time>2021-07-29T09:56:20Z</time>
      </trkpt>
      <trkpt lat="48.9365" lon="6.04192">
        <ele>177.3</ele>
        <time>2021-07-29T09:56:21Z</time>
      </trkpt>
      <trkpt lat="48.93645" lon="6.04189">
        <ele>177.3</ele>
        <time>2021-07-29T09:56:22Z</time>
      </trkpt>
      <trkpt lat="48.93634" lon="6.04182">
        <ele>177.3</ele>
        <time>2021-07-29T09:56:24Z</time>
      </trkpt>
      <trkpt lat="48.93624" lon="6.04176">
        <ele>177.3</ele>
        <time>2021-07-29T09:56:26Z</time>
      </trkpt>
      <trkpt lat="48.93619" lon="6.04173">
        <ele>177.3</ele>
        <time>2021-07-29T09:56:27Z</time>
      </trkpt>
      <trkpt lat="48.93615" lon="6.0417">
        <ele>177.4</ele>
        <time>2021-07-29T09:56:28Z</time>
      </trkpt>
      <trkpt lat="48.93606" lon="6.04163">
        <ele>177.7</ele>
        <time>2021-07-29T09:56:30Z</time>
      </trkpt>
      <trkpt lat="48.93602" lon="6.04159">
        <ele>177.8</ele>
        <time>2021-07-29T09:56:31Z</time>
      </trkpt>
      <trkpt lat="48.93597" lon="6.04154">
        <ele>178</ele>
        <time>2021-07-29T09:56:32Z</time>
      </trkpt>
      <trkpt lat="48.93593" lon="6.0415">
        <ele>178.2</ele>
        <time>2021-07-29T09:56:34Z</time>
      </trkpt>
      <trkpt lat="48.9359" lon="6.04148">
        <ele>178.4</ele>
        <time>2021-07-29T09:56:35Z</time>
      </trkpt>
      <trkpt lat="48.93585" lon="6.04145">
        <ele>178.7</ele>
        <time>2021-07-29T09:56:37Z</time>
      </trkpt>
      <trkpt lat="48.93582" lon="6.04142">
        <ele>178.9</ele>
        <time>2021-07-29T09:56:38Z</time>
      </trkpt>
      <trkpt lat="48.93578" lon="6.04138">
        <ele>179.2</ele>
        <time>2021-07-29T09:56:39Z</time>
      </trkpt>
      <trkpt lat="48.93576" lon="6.04136">
        <ele>179.3</ele>
        <time>2021-07-29T09:56:40Z</time>
      </trkpt>
      <trkpt lat="48.93572" lon="6.04135">
        <ele>179.6</ele>
        <time>2021-07-29T09:56:42Z</time>
      </trkpt>
      <trkpt lat="48.93569" lon="6.04134">
        <ele>179.8</ele>
        <time>2021-07-29T09:56:43Z</time>
      </trkpt>
      <trkpt lat="48.93566" lon="6.04132">
        <ele>180</ele>
        <time>2021-07-29T09:56:45Z</time>
      </trkpt>
      <trkpt lat="48.93565" lon="6.04131">
        <ele>180.1</ele>
        <time>2021-07-29T09:56:46Z</time>
      </trkpt>
      <trkpt lat="48.93562" lon="6.0413">
        <ele>180.3</ele>
        <time>2021-07-29T09:56:47Z</time>
      </trkpt>
      <trkpt lat="48.93561" lon="6.04129">
        <ele>180.4</ele>
        <time>2021-07-29T09:56:48Z</time>
      </trkpt>
      <trkpt lat="48.93558" lon="6.04127">
        <ele>180.6</ele>
        <time>2021-07-29T09:56:50Z</time>
      </trkpt>
      <trkpt lat="48.93555" lon="6.04126">
        <ele>180.8</ele>
        <time>2021-07-29T09:56:52Z</time>
      </trkpt>
      <trkpt lat="48.9355" lon="6.04125">
        <ele>181</ele>
        <time>2021-07-29T09:56:54Z</time>
      </trkpt>
      <trkpt lat="48.93549" lon="6.04126">
        <ele>181.1</ele>
        <time>2021-07-29T09:56:55Z</time>
      </trkpt>
      <trkpt lat="48.93548" lon="6.04127">
        <ele>181.5</ele>
        <time>2021-07-29T09:56:56Z</time>
      </trkpt>
      <trkpt lat="48.93547" lon="6.04128">
        <ele>181.7</ele>
        <time>2021-07-29T09:56:57Z</time>
      </trkpt>
      <trkpt lat="48.93546" lon="6.04129">
        <ele>181.9</ele>
        <time>2021-07-29T09:56:59Z</time>
      </trkpt>
      <trkpt lat="48.93546" lon="6.0413">
        <ele>182</ele>
        <time>2021-07-29T09:57:00Z</time>
      </trkpt>
      <trkpt lat="48.93544" lon="6.04132">
        <ele>182.4</ele>
        <time>2021-07-29T09:57:02Z</time>
      </trkpt>
      <trkpt lat="48.93543" lon="6.04135">
        <ele>182.7</ele>
        <time>2021-07-29T09:57:03Z</time>
      </trkpt>
      <trkpt lat="48.93542" lon="6.04137">
        <ele>183</ele>
        <time>2021-07-29T09:57:05Z</time>
      </trkpt>
      <trkpt lat="48.93536" lon="6.04148">
        <ele>184.1</ele>
        <time>2021-07-29T09:57:11Z</time>
      </trkpt>
      <trkpt lat="48.93535" lon="6.04151">
        <ele>184.1</ele>
        <time>2021-07-29T09:57:12Z</time>
      </trkpt>
      <trkpt lat="48.93534" lon="6.04157">
        <ele>184.2</ele>
        <time>2021-07-29T09:57:14Z</time>
      </trkpt>
      <trkpt lat="48.93532" lon="6.04164">
        <ele>184.3</ele>
        <time>2021-07-29T09:57:16Z</time>
      </trkpt>
      <trkpt lat="48.93531" lon="6.0417">
        <ele>184.3</ele>
        <time>2021-07-29T09:57:17Z</time>
      </trkpt>
      <trkpt lat="48.9353" lon="6.04174">
        <ele>184.3</ele>
        <time>2021-07-29T09:57:18Z</time>
      </trkpt>
      <trkpt lat="48.93529" lon="6.04176">
        <ele>184.4</ele>
        <time>2021-07-29T09:57:20Z</time>
      </trkpt>
      <trkpt lat="48.93527" lon="6.04177">
        <ele>184.4</ele>
        <time>2021-07-29T09:57:21Z</time>
      </trkpt>
      <trkpt lat="48.93526" lon="6.04181">
        <ele>184.4</ele>
        <time>2021-07-29T09:57:23Z</time>
      </trkpt>
      <trkpt lat="48.93525" lon="6.04183">
        <ele>184.4</ele>
        <time>2021-07-29T09:57:24Z</time>
      </trkpt>
      <trkpt lat="48.93524" lon="6.04186">
        <ele>184.4</ele>
        <time>2021-07-29T09:57:26Z</time>
      </trkpt>
      <trkpt lat="48.93524" lon="6.04188">
        <ele>184.4</ele>
        <time>2021-07-29T09:57:28Z</time>
      </trkpt>
      <trkpt lat="48.93524" lon="6.04189">
        <ele>184.4</ele>
        <time>2021-07-29T09:57:29Z</time>
      </trkpt>
      <trkpt lat="48.93522" lon="6.04192">
        <ele>184.4</ele>
        <time>2021-07-29T09:57:31Z</time>
      </trkpt>
      <trkpt lat="48.93522" lon="6.04194">
        <ele>184.4</ele>
        <time>2021-07-29T09:57:32Z</time>
      </trkpt>
      <trkpt lat="48.93521" lon="6.04198">
        <ele>184.4</ele>
        <time>2021-07-29T09:57:34Z</time>
      </trkpt>
      <trkpt lat="48.9352" lon="6.04203">
        <ele>184.4</ele>
        <time>2021-07-29T09:57:36Z</time>
      </trkpt>
      <trkpt lat="48.9352" lon="6.04204">
        <ele>184.4</ele>
        <time>2021-07-29T09:57:37Z</time>
      </trkpt>
      <trkpt lat="48.93519" lon="6.04206">
        <ele>184.4</ele>
        <time>2021-07-29T09:57:38Z</time>
      </trkpt>
      <trkpt lat="48.93519" lon="6.04207">
        <ele>184.4</ele>
        <time>2021-07-29T09:57:39Z</time>
      </trkpt>
      <trkpt lat="48.93519" lon="6.04208">
        <ele>184.3</ele>
        <time>2021-07-29T09:57:40Z</time>
      </trkpt>
      <trkpt lat="48.93519" lon="6.0421">
        <ele>184.3</ele>
        <time>2021-07-29T09:57:42Z</time>
      </trkpt>
      <trkpt lat="48.93519" lon="6.0421">
        <ele>184.3</ele>
        <time>2021-07-29T09:57:43Z</time>
      </trkpt>
      <trkpt lat="48.93519" lon="6.04213">
        <ele>184.3</ele>
        <time>2021-07-29T09:57:44Z</time>
      </trkpt>
      <trkpt lat="48.93518" lon="6.04217">
        <ele>184.3</ele>
        <time>2021-07-29T09:57:46Z</time>
      </trkpt>
      <trkpt lat="48.93519" lon="6.04219">
        <ele>184.3</ele>
        <time>2021-07-29T09:57:47Z</time>
      </trkpt>
      <trkpt lat="48.9352" lon="6.04222">
        <ele>184.2</ele>
        <time>2021-07-29T09:57:49Z</time>
      </trkpt>
      <trkpt lat="48.93521" lon="6.04223">
        <ele>184.2</ele>
        <time>2021-07-29T09:57:50Z</time>
      </trkpt>
      <trkpt lat="48.9352" lon="6.04223">
        <ele>184.2</ele>
        <time>2021-07-29T09:57:52Z</time>
      </trkpt>
      <trkpt lat="48.93521" lon="6.04223">
        <ele>184.2</ele>
        <time>2021-07-29T09:57:54Z</time>
      </trkpt>
      <trkpt lat="48.93521" lon="6.04223">
        <ele>184.2</ele>
        <time>2021-07-29T09:57:56Z</time>
      </trkpt>
      <trkpt lat="48.93521" lon="6.04223">
        <ele>184.2</ele>
        <time>2021-07-29T09:57:58Z</time>
      </trkpt>
      <trkpt lat="48.93521" lon="6.04223">
        <ele>184.2</ele>
        <time>2021-07-29T09:58:00Z</time>
      </trkpt>
      <trkpt lat="48.93516" lon="6.04217">
        <ele>184</ele>
        <time>2021-07-29T10:24:48Z</time>
      </trkpt>
      <trkpt lat="48.93518" lon="6.04214">
        <ele>184</ele>
        <time>2021-07-29T10:24:49Z</time>
      </trkpt>
      <trkpt lat="48.93518" lon="6.04212">
        <ele>184</ele>
        <time>2021-07-29T10:24:50Z</time>
      </trkpt>
      <trkpt lat="48.93518" lon="6.04212">
        <ele>183.9</ele>
        <time>2021-07-29T10:24:51Z</time>
      </trkpt>
      <trkpt lat="48.93518" lon="6.04211">
        <ele>183.9</ele>
        <time>2021-07-29T10:24:53Z</time>
      </trkpt>
      <trkpt lat="48.93518" lon="6.04211">
        <ele>183.9</ele>
        <time>2021-07-29T10:24:54Z</time>
      </trkpt>
      <trkpt lat="48.93518" lon="6.04211">
        <ele>183.9</ele>
        <time>2021-07-29T10:24:56Z</time>
      </trkpt>
      <trkpt lat="48.93518" lon="6.0421">
        <ele>183.9</ele>
        <time>2021-07-29T10:24:57Z</time>
      </trkpt>
      <trkpt lat="48.93518" lon="6.0421">
        <ele>183.9</ele>
        <time>2021-07-29T10:24:58Z</time>
      </trkpt>
      <trkpt lat="48.9352" lon="6.04208">
        <ele>183.9</ele>
        <time>2021-07-29T10:24:59Z</time>
      </trkpt>
      <trkpt lat="48.9352" lon="6.04207">
        <ele>184</ele>
        <time>2021-07-29T10:25:01Z</time>
      </trkpt>
      <trkpt lat="48.93521" lon="6.04204">
        <ele>184.1</ele>
        <time>2021-07-29T10:25:02Z</time>
      </trkpt>
      <trkpt lat="48.93523" lon="6.04201">
        <ele>184.2</ele>
        <time>2021-07-29T10:25:03Z</time>
      </trkpt>
      <trkpt lat="48.93525" lon="6.04194">
        <ele>184.3</ele>
        <time>2021-07-29T10:25:05Z</time>
      </trkpt>
      <trkpt lat="48.93525" lon="6.04194">
        <ele>184.3</ele>
        <time>2021-07-29T10:25:05Z</time>
      </trkpt>
      <trkpt lat="48.93528" lon="6.04185">
        <ele>184.4</ele>
        <time>2021-07-29T10:25:06Z</time>
      </trkpt>
      <trkpt lat="48.93529" lon="6.04179">
        <ele>184.4</ele>
        <time>2021-07-29T10:25:08Z</time>
      </trkpt>
      <trkpt lat="48.93531" lon="6.04171">
        <ele>184.4</ele>
        <time>2021-07-29T10:25:10Z</time>
      </trkpt>
      <trkpt lat="48.93532" lon="6.04168">
        <ele>184.4</ele>
        <time>2021-07-29T10:25:11Z</time>
      </trkpt>
      <trkpt lat="48.93533" lon="6.04161">
        <ele>184.3</ele>
        <time>2021-07-29T10:25:13Z</time>
      </trkpt>
      <trkpt lat="48.93534" lon="6.04157">
        <ele>184.2</ele>
        <time>2021-07-29T10:25:14Z</time>
      </trkpt>
      <trkpt lat="48.93535" lon="6.04148">
        <ele>184.1</ele>
        <time>2021-07-29T10:25:16Z</time>
      </trkpt>
      <trkpt lat="48.93536" lon="6.04143">
        <ele>184</ele>
        <time>2021-07-29T10:25:17Z</time>
      </trkpt>
      <trkpt lat="48.93538" lon="6.04134">
        <ele>182.9</ele>
        <time>2021-07-29T10:25:19Z</time>
      </trkpt>
      <trkpt lat="48.93537" lon="6.04121">
        <ele>181.4</ele>
        <time>2021-07-29T10:25:20Z</time>
      </trkpt>
      <trkpt lat="48.93535" lon="6.0411">
        <ele>181</ele>
        <time>2021-07-29T10:25:22Z</time>
      </trkpt>
      <trkpt lat="48.93525" lon="6.04105">
        <ele>180.4</ele>
        <time>2021-07-29T10:25:24Z</time>
      </trkpt>
      <trkpt lat="48.93513" lon="6.04098">
        <ele>179.6</ele>
        <time>2021-07-29T10:25:26Z</time>
      </trkpt>
      <trkpt lat="48.93501" lon="6.04089">
        <ele>178.9</ele>
        <time>2021-07-29T10:25:28Z</time>
      </trkpt>
      <trkpt lat="48.93493" lon="6.04084">
        <ele>178.5</ele>
        <time>2021-07-29T10:25:29Z</time>
      </trkpt>
      <trkpt lat="48.93477" lon="6.04075">
        <ele>177.9</ele>
        <time>2021-07-29T10:25:31Z</time>
      </trkpt>
      <trkpt lat="48.9347" lon="6.04072">
        <ele>177.7</ele>
        <time>2021-07-29T10:25:32Z</time>
      </trkpt>
      <trkpt lat="48.93455" lon="6.04065">
        <ele>177.5</ele>
        <time>2021-07-29T10:25:34Z</time>
      </trkpt>
      <trkpt lat="48.93448" lon="6.04062">
        <ele>177.5</ele>
        <time>2021-07-29T10:25:35Z</time>
      </trkpt>
      <trkpt lat="48.93443" lon="6.04059">
        <ele>177.5</ele>
        <time>2021-07-29T10:25:36Z</time>
      </trkpt>
      <trkpt lat="48.93437" lon="6.04056">
        <ele>177.5</ele>
        <time>2021-07-29T10:25:37Z</time>
      </trkpt>
      <trkpt lat="48.93432" lon="6.04054">
        <ele>177.5</ele>
        <time>2021-07-29T10:25:38Z</time>
      </trkpt>
      <trkpt lat="48.93422" lon="6.0405">
        <ele>177.6</ele>
        <time>2021-07-29T10:25:40Z</time>
      </trkpt>
      <trkpt lat="48.93417" lon="6.04047">
        <ele>177.6</ele>
        <time>2021-07-29T10:25:41Z</time>
      </trkpt>
      <trkpt lat="48.93407" lon="6.04042">
        <ele>177.7</ele>
        <time>2021-07-29T10:25:43Z</time>
      </trkpt>
      <trkpt lat="48.93402" lon="6.04039">
        <ele>177.7</ele>
        <time>2021-07-29T10:25:44Z</time>
      </trkpt>
      <trkpt lat="48.93392" lon="6.04033">
        <ele>177.7</ele>
        <time>2021-07-29T10:25:46Z</time>
      </trkpt>
      <trkpt lat="48.93387" lon="6.0403">
        <ele>177.8</ele>
        <time>2021-07-29T10:25:47Z</time>
      </trkpt>
      <trkpt lat="48.93382" lon="6.04028">
        <ele>177.8</ele>
        <time>2021-07-29T10:25:48Z</time>
      </trkpt>
      <trkpt lat="48.93374" lon="6.04024">
        <ele>177.8</ele>
        <time>2021-07-29T10:25:50Z</time>
      </trkpt>
      <trkpt lat="48.93363" lon="6.04021">
        <ele>177.9</ele>
        <time>2021-07-29T10:25:52Z</time>
      </trkpt>
      <trkpt lat="48.93359" lon="6.0402">
        <ele>177.9</ele>
        <time>2021-07-29T10:25:53Z</time>
      </trkpt>
      <trkpt lat="48.93353" lon="6.04019">
        <ele>177.9</ele>
        <time>2021-07-29T10:25:54Z</time>
      </trkpt>
      <trkpt lat="48.93343" lon="6.04016">
        <ele>177.9</ele>
        <time>2021-07-29T10:25:56Z</time>
      </trkpt>
      <trkpt lat="48.93334" lon="6.04013">
        <ele>178</ele>
        <time>2021-07-29T10:25:58Z</time>
      </trkpt>
      <trkpt lat="48.9333" lon="6.04009">
        <ele>178</ele>
        <time>2021-07-29T10:25:59Z</time>
      </trkpt>
      <trkpt lat="48.93324" lon="6.04008">
        <ele>178</ele>
        <time>2021-07-29T10:26:00Z</time>
      </trkpt>
      <trkpt lat="48.93317" lon="6.04003">
        <ele>178</ele>
        <time>2021-07-29T10:26:02Z</time>
      </trkpt>
      <trkpt lat="48.93313" lon="6.04">
        <ele>178</ele>
        <time>2021-07-29T10:26:03Z</time>
      </trkpt>
      <trkpt lat="48.93309" lon="6.04">
        <ele>178</ele>
        <time>2021-07-29T10:26:04Z</time>
      </trkpt>
      <trkpt lat="48.93304" lon="6.03998">
        <ele>178.1</ele>
        <time>2021-07-29T10:26:05Z</time>
      </trkpt>
      <trkpt lat="48.93297" lon="6.03995">
        <ele>178.1</ele>
        <time>2021-07-29T10:26:07Z</time>
      </trkpt>
      <trkpt lat="48.93293" lon="6.03993">
        <ele>178.1</ele>
        <time>2021-07-29T10:26:08Z</time>
      </trkpt>
      <trkpt lat="48.93288" lon="6.03991">
        <ele>178.2</ele>
        <time>2021-07-29T10:26:09Z</time>
      </trkpt>
      <trkpt lat="48.93281" lon="6.03989">
        <ele>178.2</ele>
        <time>2021-07-29T10:26:11Z</time>
      </trkpt>
      <trkpt lat="48.93274" lon="6.03988">
        <ele>178.2</ele>
        <time>2021-07-29T10:26:12Z</time>
      </trkpt>
      <trkpt lat="48.93269" lon="6.03988">
        <ele>178.2</ele>
        <time>2021-07-29T10:26:14Z</time>
      </trkpt>
      <trkpt lat="48.93263" lon="6.03987">
        <ele>178.2</ele>
        <time>2021-07-29T10:26:15Z</time>
      </trkpt>
      <trkpt lat="48.93258" lon="6.03986">
        <ele>178.2</ele>
        <time>2021-07-29T10:26:16Z</time>
      </trkpt>
      <trkpt lat="48.93254" lon="6.03985">
        <ele>178.2</ele>
        <time>2021-07-29T10:26:17Z</time>
      </trkpt>
      <trkpt lat="48.93248" lon="6.03984">
        <ele>178.2</ele>
        <time>2021-07-29T10:26:19Z</time>
      </trkpt>
      <trkpt lat="48.93244" lon="6.03982">
        <ele>178.2</ele>
        <time>2021-07-29T10:26:20Z</time>
      </trkpt>
      <trkpt lat="48.9324" lon="6.03981">
        <ele>178.2</ele>
        <time>2021-07-29T10:26:21Z</time>
      </trkpt>
      <trkpt lat="48.93235" lon="6.03978">
        <ele>178.2</ele>
        <time>2021-07-29T10:26:23Z</time>
      </trkpt>
      <trkpt lat="48.93232" lon="6.03976">
        <ele>178.2</ele>
        <time>2021-07-29T10:26:24Z</time>
      </trkpt>
      <trkpt lat="48.93228" lon="6.03975">
        <ele>178.2</ele>
        <time>2021-07-29T10:26:25Z</time>
      </trkpt>
      <trkpt lat="48.93223" lon="6.03972">
        <ele>178.2</ele>
        <time>2021-07-29T10:26:27Z</time>
      </trkpt>
      <trkpt lat="48.93218" lon="6.0397">
        <ele>178.2</ele>
        <time>2021-07-29T10:26:28Z</time>
      </trkpt>
      <trkpt lat="48.93213" lon="6.03967">
        <ele>178.2</ele>
        <time>2021-07-29T10:26:30Z</time>
      </trkpt>
      <trkpt lat="48.93207" lon="6.03967">
        <ele>178.2</ele>
        <time>2021-07-29T10:26:31Z</time>
      </trkpt>
      <trkpt lat="48.93201" lon="6.03968">
        <ele>178.1</ele>
        <time>2021-07-29T10:26:32Z</time>
      </trkpt>
      <trkpt lat="48.93195" lon="6.03967">
        <ele>178.1</ele>
        <time>2021-07-29T10:26:34Z</time>
      </trkpt>
      <trkpt lat="48.9319" lon="6.03965">
        <ele>178.1</ele>
        <time>2021-07-29T10:26:35Z</time>
      </trkpt>
      <trkpt lat="48.93184" lon="6.03965">
        <ele>178.1</ele>
        <time>2021-07-29T10:26:37Z</time>
      </trkpt>
      <trkpt lat="48.93179" lon="6.03965">
        <ele>178.1</ele>
        <time>2021-07-29T10:26:38Z</time>
      </trkpt>
      <trkpt lat="48.93174" lon="6.03965">
        <ele>178.1</ele>
        <time>2021-07-29T10:26:39Z</time>
      </trkpt>
      <trkpt lat="48.93166" lon="6.03964">
        <ele>178</ele>
        <time>2021-07-29T10:26:41Z</time>
      </trkpt>
      <trkpt lat="48.93158" lon="6.03963">
        <ele>178</ele>
        <time>2021-07-29T10:26:43Z</time>
      </trkpt>
      <trkpt lat="48.9315" lon="6.03963">
        <ele>178</ele>
        <time>2021-07-29T10:26:44Z</time>
      </trkpt>
      <trkpt lat="48.93144" lon="6.03964">
        <ele>178</ele>
        <time>2021-07-29T10:26:46Z</time>
      </trkpt>
      <trkpt lat="48.93138" lon="6.03963">
        <ele>178</ele>
        <time>2021-07-29T10:26:47Z</time>
      </trkpt>
      <trkpt lat="48.93134" lon="6.03962">
        <ele>178</ele>
        <time>2021-07-29T10:26:48Z</time>
      </trkpt>
      <trkpt lat="48.93129" lon="6.03961">
        <ele>178</ele>
        <time>2021-07-29T10:26:49Z</time>
      </trkpt>
      <trkpt lat="48.93124" lon="6.03961">
        <ele>178</ele>
        <time>2021-07-29T10:26:50Z</time>
      </trkpt>
      <trkpt lat="48.93119" lon="6.03959">
        <ele>178</ele>
        <time>2021-07-29T10:26:52Z</time>
      </trkpt>
      <trkpt lat="48.93114" lon="6.03957">
        <ele>178</ele>
        <time>2021-07-29T10:26:53Z</time>
      </trkpt>
      <trkpt lat="48.9311" lon="6.03956">
        <ele>178</ele>
        <time>2021-07-29T10:26:55Z</time>
      </trkpt>
      <trkpt lat="48.93104" lon="6.03957">
        <ele>178</ele>
        <time>2021-07-29T10:26:56Z</time>
      </trkpt>
      <trkpt lat="48.93099" lon="6.03956">
        <ele>178</ele>
        <time>2021-07-29T10:26:58Z</time>
      </trkpt>
      <trkpt lat="48.93094" lon="6.03956">
        <ele>178</ele>
        <time>2021-07-29T10:26:59Z</time>
      </trkpt>
      <trkpt lat="48.93087" lon="6.03956">
        <ele>178</ele>
        <time>2021-07-29T10:27:00Z</time>
      </trkpt>
      <trkpt lat="48.93079" lon="6.03957">
        <ele>178</ele>
        <time>2021-07-29T10:27:02Z</time>
      </trkpt>
      <trkpt lat="48.9307" lon="6.03957">
        <ele>178</ele>
        <time>2021-07-29T10:27:04Z</time>
      </trkpt>
      <trkpt lat="48.93066" lon="6.03957">
        <ele>178</ele>
        <time>2021-07-29T10:27:05Z</time>
      </trkpt>
      <trkpt lat="48.93061" lon="6.03956">
        <ele>178</ele>
        <time>2021-07-29T10:27:06Z</time>
      </trkpt>
      <trkpt lat="48.93054" lon="6.03955">
        <ele>178</ele>
        <time>2021-07-29T10:27:08Z</time>
      </trkpt>
      <trkpt lat="48.93049" lon="6.03953">
        <ele>178</ele>
        <time>2021-07-29T10:27:09Z</time>
      </trkpt>
      <trkpt lat="48.93044" lon="6.03952">
        <ele>178</ele>
        <time>2021-07-29T10:27:10Z</time>
      </trkpt>
      <trkpt lat="48.9304" lon="6.0395">
        <ele>178</ele>
        <time>2021-07-29T10:27:11Z</time>
      </trkpt>
      <trkpt lat="48.93036" lon="6.03949">
        <ele>178</ele>
        <time>2021-07-29T10:27:12Z</time>
      </trkpt>
      <trkpt lat="48.93032" lon="6.03949">
        <ele>178</ele>
        <time>2021-07-29T10:27:13Z</time>
      </trkpt>
      <trkpt lat="48.93027" lon="6.03949">
        <ele>178.1</ele>
        <time>2021-07-29T10:27:14Z</time>
      </trkpt>
      <trkpt lat="48.93023" lon="6.03949">
        <ele>178.1</ele>
        <time>2021-07-29T10:27:15Z</time>
      </trkpt>
      <trkpt lat="48.93019" lon="6.0395">
        <ele>178.1</ele>
        <time>2021-07-29T10:27:16Z</time>
      </trkpt>
      <trkpt lat="48.93014" lon="6.03951">
        <ele>178.1</ele>
        <time>2021-07-29T10:27:17Z</time>
      </trkpt>
      <trkpt lat="48.93007" lon="6.03952">
        <ele>178.1</ele>
        <time>2021-07-29T10:27:19Z</time>
      </trkpt>
      <trkpt lat="48.93003" lon="6.03954">
        <ele>178</ele>
        <time>2021-07-29T10:27:20Z</time>
      </trkpt>
      <trkpt lat="48.92998" lon="6.03956">
        <ele>178</ele>
        <time>2021-07-29T10:27:21Z</time>
      </trkpt>
      <trkpt lat="48.92988" lon="6.03957">
        <ele>178</ele>
        <time>2021-07-29T10:27:23Z</time>
      </trkpt>
      <trkpt lat="48.92983" lon="6.03957">
        <ele>178</ele>
        <time>2021-07-29T10:27:24Z</time>
      </trkpt>
      <trkpt lat="48.92975" lon="6.03957">
        <ele>178</ele>
        <time>2021-07-29T10:27:26Z</time>
      </trkpt>
      <trkpt lat="48.92971" lon="6.03958">
        <ele>178</ele>
        <time>2021-07-29T10:27:27Z</time>
      </trkpt>
      <trkpt lat="48.92967" lon="6.03958">
        <ele>178</ele>
        <time>2021-07-29T10:27:28Z</time>
      </trkpt>
      <trkpt lat="48.92963" lon="6.03958">
        <ele>178</ele>
        <time>2021-07-29T10:27:29Z</time>
      </trkpt>
      <trkpt lat="48.92959" lon="6.03958">
        <ele>178</ele>
        <time>2021-07-29T10:27:30Z</time>
      </trkpt>
      <trkpt lat="48.92955" lon="6.03959">
        <ele>178</ele>
        <time>2021-07-29T10:27:31Z</time>
      </trkpt>
      <trkpt lat="48.9295" lon="6.0396">
        <ele>178</ele>
        <time>2021-07-29T10:27:32Z</time>
      </trkpt>
      <trkpt lat="48.92946" lon="6.03959">
        <ele>178</ele>
        <time>2021-07-29T10:27:33Z</time>
      </trkpt>
      <trkpt lat="48.92938" lon="6.0396">
        <ele>178</ele>
        <time>2021-07-29T10:27:34Z</time>
      </trkpt>
      <trkpt lat="48.92933" lon="6.0396">
        <ele>178</ele>
        <time>2021-07-29T10:27:35Z</time>
      </trkpt>
      <trkpt lat="48.92926" lon="6.03957">
        <ele>178</ele>
        <time>2021-07-29T10:27:37Z</time>
      </trkpt>
      <trkpt lat="48.92921" lon="6.03959">
        <ele>178</ele>
        <time>2021-07-29T10:27:38Z</time>
      </trkpt>
      <trkpt lat="48.92916" lon="6.03961">
        <ele>178</ele>
        <time>2021-07-29T10:27:39Z</time>
      </trkpt>
      <trkpt lat="48.92912" lon="6.03963">
        <ele>178.1</ele>
        <time>2021-07-29T10:27:40Z</time>
      </trkpt>
      <trkpt lat="48.92908" lon="6.03963">
        <ele>178.1</ele>
        <time>2021-07-29T10:27:41Z</time>
      </trkpt>
      <trkpt lat="48.92904" lon="6.03963">
        <ele>178.1</ele>
        <time>2021-07-29T10:27:42Z</time>
      </trkpt>
      <trkpt lat="48.929" lon="6.03963">
        <ele>178.1</ele>
        <time>2021-07-29T10:27:43Z</time>
      </trkpt>
      <trkpt lat="48.92896" lon="6.03963">
        <ele>178.1</ele>
        <time>2021-07-29T10:27:44Z</time>
      </trkpt>
      <trkpt lat="48.92892" lon="6.03964">
        <ele>178.2</ele>
        <time>2021-07-29T10:27:45Z</time>
      </trkpt>
      <trkpt lat="48.92888" lon="6.03963">
        <ele>178.2</ele>
        <time>2021-07-29T10:27:46Z</time>
      </trkpt>
      <trkpt lat="48.92884" lon="6.03963">
        <ele>178.2</ele>
        <time>2021-07-29T10:27:48Z</time>
      </trkpt>
      <trkpt lat="48.9288" lon="6.03963">
        <ele>178.2</ele>
        <time>2021-07-29T10:27:49Z</time>
      </trkpt>
      <trkpt lat="48.92876" lon="6.03963">
        <ele>178.3</ele>
        <time>2021-07-29T10:27:50Z</time>
      </trkpt>
      <trkpt lat="48.92873" lon="6.03963">
        <ele>178.3</ele>
        <time>2021-07-29T10:27:51Z</time>
      </trkpt>
      <trkpt lat="48.92865" lon="6.03964">
        <ele>178.3</ele>
        <time>2021-07-29T10:27:53Z</time>
      </trkpt>
      <trkpt lat="48.92859" lon="6.03964">
        <ele>178.3</ele>
        <time>2021-07-29T10:27:54Z</time>
      </trkpt>
      <trkpt lat="48.92855" lon="6.03965">
        <ele>178.3</ele>
        <time>2021-07-29T10:27:55Z</time>
      </trkpt>
      <trkpt lat="48.9285" lon="6.03965">
        <ele>178.3</ele>
        <time>2021-07-29T10:27:56Z</time>
      </trkpt>
      <trkpt lat="48.92842" lon="6.03969">
        <ele>178.3</ele>
        <time>2021-07-29T10:27:58Z</time>
      </trkpt>
      <trkpt lat="48.92835" lon="6.03971">
        <ele>178.3</ele>
        <time>2021-07-29T10:28:00Z</time>
      </trkpt>
      <trkpt lat="48.92831" lon="6.03972">
        <ele>178.3</ele>
        <time>2021-07-29T10:28:01Z</time>
      </trkpt>
      <trkpt lat="48.92826" lon="6.03974">
        <ele>178.3</ele>
        <time>2021-07-29T10:28:02Z</time>
      </trkpt>
      <trkpt lat="48.92823" lon="6.03974">
        <ele>178.3</ele>
        <time>2021-07-29T10:28:03Z</time>
      </trkpt>
      <trkpt lat="48.92819" lon="6.03974">
        <ele>178.3</ele>
        <time>2021-07-29T10:28:04Z</time>
      </trkpt>
      <trkpt lat="48.92815" lon="6.03976">
        <ele>178.3</ele>
        <time>2021-07-29T10:28:06Z</time>
      </trkpt>
      <trkpt lat="48.92814" lon="6.03976">
        <ele>178.3</ele>
        <time>2021-07-29T10:28:07Z</time>
      </trkpt>
      <trkpt lat="48.92808" lon="6.03977">
        <ele>178.3</ele>
        <time>2021-07-29T10:28:08Z</time>
      </trkpt>
      <trkpt lat="48.92802" lon="6.03979">
        <ele>178.3</ele>
        <time>2021-07-29T10:28:10Z</time>
      </trkpt>
      <trkpt lat="48.92799" lon="6.03979">
        <ele>178.4</ele>
        <time>2021-07-29T10:28:11Z</time>
      </trkpt>
      <trkpt lat="48.92794" lon="6.03979">
        <ele>178.4</ele>
        <time>2021-07-29T10:28:12Z</time>
      </trkpt>
      <trkpt lat="48.92789" lon="6.0398">
        <ele>178.4</ele>
        <time>2021-07-29T10:28:14Z</time>
      </trkpt>
      <trkpt lat="48.92783" lon="6.03979">
        <ele>178.4</ele>
        <time>2021-07-29T10:28:15Z</time>
      </trkpt>
      <trkpt lat="48.92777" lon="6.03977">
        <ele>178.4</ele>
        <time>2021-07-29T10:28:17Z</time>
      </trkpt>
      <trkpt lat="48.92771" lon="6.03976">
        <ele>178.4</ele>
        <time>2021-07-29T10:28:18Z</time>
      </trkpt>
      <trkpt lat="48.92764" lon="6.03975">
        <ele>178.4</ele>
        <time>2021-07-29T10:28:20Z</time>
      </trkpt>
      <trkpt lat="48.92759" lon="6.03974">
        <ele>178.4</ele>
        <time>2021-07-29T10:28:21Z</time>
      </trkpt>
      <trkpt lat="48.92756" lon="6.03974">
        <ele>178.4</ele>
        <time>2021-07-29T10:28:22Z</time>
      </trkpt>
      <trkpt lat="48.92748" lon="6.03973">
        <ele>178.4</ele>
        <time>2021-07-29T10:28:24Z</time>
      </trkpt>
      <trkpt lat="48.92745" lon="6.03973">
        <ele>178.4</ele>
        <time>2021-07-29T10:28:25Z</time>
      </trkpt>
      <trkpt lat="48.92741" lon="6.03973">
        <ele>178.4</ele>
        <time>2021-07-29T10:28:26Z</time>
      </trkpt>
      <trkpt lat="48.92734" lon="6.03973">
        <ele>178.4</ele>
        <time>2021-07-29T10:28:28Z</time>
      </trkpt>
      <trkpt lat="48.92729" lon="6.03974">
        <ele>178.3</ele>
        <time>2021-07-29T10:28:29Z</time>
      </trkpt>
      <trkpt lat="48.92725" lon="6.03974">
        <ele>178.3</ele>
        <time>2021-07-29T10:28:30Z</time>
      </trkpt>
      <trkpt lat="48.92716" lon="6.03975">
        <ele>178.3</ele>
        <time>2021-07-29T10:28:32Z</time>
      </trkpt>
      <trkpt lat="48.92708" lon="6.03975">
        <ele>178.3</ele>
        <time>2021-07-29T10:28:34Z</time>
      </trkpt>
      <trkpt lat="48.92704" lon="6.03975">
        <ele>178.3</ele>
        <time>2021-07-29T10:28:35Z</time>
      </trkpt>
      <trkpt lat="48.92699" lon="6.03976">
        <ele>178.3</ele>
        <time>2021-07-29T10:28:36Z</time>
      </trkpt>
      <trkpt lat="48.92694" lon="6.03978">
        <ele>178.3</ele>
        <time>2021-07-29T10:28:38Z</time>
      </trkpt>
      <trkpt lat="48.92688" lon="6.03981">
        <ele>178.2</ele>
        <time>2021-07-29T10:28:39Z</time>
      </trkpt>
      <trkpt lat="48.92682" lon="6.03984">
        <ele>178.2</ele>
        <time>2021-07-29T10:28:41Z</time>
      </trkpt>
      <trkpt lat="48.92675" lon="6.03986">
        <ele>178.2</ele>
        <time>2021-07-29T10:28:42Z</time>
      </trkpt>
      <trkpt lat="48.92668" lon="6.03988">
        <ele>178.2</ele>
        <time>2021-07-29T10:28:44Z</time>
      </trkpt>
      <trkpt lat="48.92661" lon="6.03989">
        <ele>178.2</ele>
        <time>2021-07-29T10:28:46Z</time>
      </trkpt>
      <trkpt lat="48.92656" lon="6.03989">
        <ele>178.3</ele>
        <time>2021-07-29T10:28:47Z</time>
      </trkpt>
      <trkpt lat="48.92652" lon="6.03989">
        <ele>178.3</ele>
        <time>2021-07-29T10:28:48Z</time>
      </trkpt>
      <trkpt lat="48.92644" lon="6.03986">
        <ele>178.3</ele>
        <time>2021-07-29T10:28:50Z</time>
      </trkpt>
      <trkpt lat="48.9264" lon="6.03985">
        <ele>178.3</ele>
        <time>2021-07-29T10:28:51Z</time>
      </trkpt>
      <trkpt lat="48.92634" lon="6.03984">
        <ele>178.3</ele>
        <time>2021-07-29T10:28:53Z</time>
      </trkpt>
      <trkpt lat="48.9263" lon="6.03983">
        <ele>178.3</ele>
        <time>2021-07-29T10:28:54Z</time>
      </trkpt>
      <trkpt lat="48.92624" lon="6.03983">
        <ele>178.3</ele>
        <time>2021-07-29T10:28:55Z</time>
      </trkpt>
      <trkpt lat="48.9262" lon="6.03984">
        <ele>178.3</ele>
        <time>2021-07-29T10:28:56Z</time>
      </trkpt>
      <trkpt lat="48.92617" lon="6.03984">
        <ele>178.3</ele>
        <time>2021-07-29T10:28:57Z</time>
      </trkpt>
      <trkpt lat="48.92613" lon="6.03985">
        <ele>178.3</ele>
        <time>2021-07-29T10:28:59Z</time>
      </trkpt>
      <trkpt lat="48.9261" lon="6.03985">
        <ele>178.3</ele>
        <time>2021-07-29T10:29:00Z</time>
      </trkpt>
      <trkpt lat="48.92606" lon="6.03986">
        <ele>178.3</ele>
        <time>2021-07-29T10:29:01Z</time>
      </trkpt>
      <trkpt lat="48.92601" lon="6.03986">
        <ele>178.3</ele>
        <time>2021-07-29T10:29:03Z</time>
      </trkpt>
      <trkpt lat="48.92598" lon="6.03987">
        <ele>178.3</ele>
        <time>2021-07-29T10:29:04Z</time>
      </trkpt>
      <trkpt lat="48.92594" lon="6.03988">
        <ele>178.3</ele>
        <time>2021-07-29T10:29:05Z</time>
      </trkpt>
      <trkpt lat="48.9259" lon="6.03987">
        <ele>178.3</ele>
        <time>2021-07-29T10:29:07Z</time>
      </trkpt>
      <trkpt lat="48.92586" lon="6.03988">
        <ele>178.3</ele>
        <time>2021-07-29T10:29:08Z</time>
      </trkpt>
      <trkpt lat="48.92579" lon="6.03987">
        <ele>178.3</ele>
        <time>2021-07-29T10:29:10Z</time>
      </trkpt>
      <trkpt lat="48.92574" lon="6.03987">
        <ele>178.3</ele>
        <time>2021-07-29T10:29:11Z</time>
      </trkpt>
      <trkpt lat="48.92568" lon="6.03988">
        <ele>178.3</ele>
        <time>2021-07-29T10:29:13Z</time>
      </trkpt>
      <trkpt lat="48.92564" lon="6.03988">
        <ele>178.3</ele>
        <time>2021-07-29T10:29:14Z</time>
      </trkpt>
      <trkpt lat="48.92559" lon="6.03988">
        <ele>178.3</ele>
        <time>2021-07-29T10:29:15Z</time>
      </trkpt>
      <trkpt lat="48.92555" lon="6.03989">
        <ele>178.3</ele>
        <time>2021-07-29T10:29:16Z</time>
      </trkpt>
      <trkpt lat="48.92549" lon="6.03991">
        <ele>178.3</ele>
        <time>2021-07-29T10:29:17Z</time>
      </trkpt>
      <trkpt lat="48.92544" lon="6.03995">
        <ele>178.3</ele>
        <time>2021-07-29T10:29:19Z</time>
      </trkpt>
      <trkpt lat="48.9254" lon="6.03997">
        <ele>178.3</ele>
        <time>2021-07-29T10:29:20Z</time>
      </trkpt>
      <trkpt lat="48.92534" lon="6.03999">
        <ele>178.3</ele>
        <time>2021-07-29T10:29:21Z</time>
      </trkpt>
      <trkpt lat="48.92528" lon="6.03999">
        <ele>178.3</ele>
        <time>2021-07-29T10:29:23Z</time>
      </trkpt>
      <trkpt lat="48.9252" lon="6.03995">
        <ele>178.3</ele>
        <time>2021-07-29T10:29:25Z</time>
      </trkpt>
      <trkpt lat="48.92512" lon="6.03995">
        <ele>178.3</ele>
        <time>2021-07-29T10:29:27Z</time>
      </trkpt>
      <trkpt lat="48.92507" lon="6.03995">
        <ele>178.3</ele>
        <time>2021-07-29T10:29:28Z</time>
      </trkpt>
      <trkpt lat="48.92498" lon="6.03994">
        <ele>178.3</ele>
        <time>2021-07-29T10:29:30Z</time>
      </trkpt>
      <trkpt lat="48.92493" lon="6.03994">
        <ele>178.3</ele>
        <time>2021-07-29T10:29:31Z</time>
      </trkpt>
      <trkpt lat="48.92487" lon="6.03994">
        <ele>178.3</ele>
        <time>2021-07-29T10:29:32Z</time>
      </trkpt>
      <trkpt lat="48.92478" lon="6.03994">
        <ele>178.3</ele>
        <time>2021-07-29T10:29:34Z</time>
      </trkpt>
      <trkpt lat="48.92473" lon="6.03994">
        <ele>178.3</ele>
        <time>2021-07-29T10:29:35Z</time>
      </trkpt>
      <trkpt lat="48.92468" lon="6.03994">
        <ele>178.3</ele>
        <time>2021-07-29T10:29:36Z</time>
      </trkpt>
      <trkpt lat="48.92464" lon="6.03994">
        <ele>178.3</ele>
        <time>2021-07-29T10:29:37Z</time>
      </trkpt>
      <trkpt lat="48.92459" lon="6.03994">
        <ele>178.3</ele>
        <time>2021-07-29T10:29:38Z</time>
      </trkpt>
      <trkpt lat="48.92452" lon="6.03992">
        <ele>178.3</ele>
        <time>2021-07-29T10:29:40Z</time>
      </trkpt>
      <trkpt lat="48.92447" lon="6.03991">
        <ele>178.3</ele>
        <time>2021-07-29T10:29:41Z</time>
      </trkpt>
      <trkpt lat="48.92443" lon="6.0399">
        <ele>178.3</ele>
        <time>2021-07-29T10:29:42Z</time>
      </trkpt>
      <trkpt lat="48.92434" lon="6.0399">
        <ele>178.3</ele>
        <time>2021-07-29T10:29:44Z</time>
      </trkpt>
      <trkpt lat="48.92426" lon="6.03991">
        <ele>178.3</ele>
        <time>2021-07-29T10:29:45Z</time>
      </trkpt>
      <trkpt lat="48.9242" lon="6.03991">
        <ele>178.3</ele>
        <time>2021-07-29T10:29:47Z</time>
      </trkpt>
      <trkpt lat="48.92412" lon="6.03991">
        <ele>178.3</ele>
        <time>2021-07-29T10:29:49Z</time>
      </trkpt>
      <trkpt lat="48.92405" lon="6.0399">
        <ele>178.3</ele>
        <time>2021-07-29T10:29:50Z</time>
      </trkpt>
      <trkpt lat="48.92399" lon="6.0399">
        <ele>178.3</ele>
        <time>2021-07-29T10:29:52Z</time>
      </trkpt>
      <trkpt lat="48.92395" lon="6.0399">
        <ele>178.3</ele>
        <time>2021-07-29T10:29:53Z</time>
      </trkpt>
      <trkpt lat="48.92391" lon="6.03989">
        <ele>178.3</ele>
        <time>2021-07-29T10:29:54Z</time>
      </trkpt>
      <trkpt lat="48.92386" lon="6.03989">
        <ele>178.3</ele>
        <time>2021-07-29T10:29:55Z</time>
      </trkpt>
      <trkpt lat="48.92377" lon="6.03989">
        <ele>178.3</ele>
        <time>2021-07-29T10:29:57Z</time>
      </trkpt>
      <trkpt lat="48.92371" lon="6.03987">
        <ele>178.3</ele>
        <time>2021-07-29T10:29:59Z</time>
      </trkpt>
      <trkpt lat="48.92367" lon="6.03986">
        <ele>178.3</ele>
        <time>2021-07-29T10:30:00Z</time>
      </trkpt>
      <trkpt lat="48.92361" lon="6.03983">
        <ele>178.3</ele>
        <time>2021-07-29T10:30:02Z</time>
      </trkpt>
      <trkpt lat="48.92358" lon="6.03982">
        <ele>178.3</ele>
        <time>2021-07-29T10:30:03Z</time>
      </trkpt>
      <trkpt lat="48.92357" lon="6.03982">
        <ele>178.3</ele>
        <time>2021-07-29T10:30:04Z</time>
      </trkpt>
      <trkpt lat="48.92354" lon="6.03982">
        <ele>178.3</ele>
        <time>2021-07-29T10:30:05Z</time>
      </trkpt>
      <trkpt lat="48.92353" lon="6.03982">
        <ele>178.3</ele>
        <time>2021-07-29T10:30:06Z</time>
      </trkpt>
      <trkpt lat="48.9235" lon="6.03983">
        <ele>178.3</ele>
        <time>2021-07-29T10:30:07Z</time>
      </trkpt>
      <trkpt lat="48.92346" lon="6.03985">
        <ele>178.3</ele>
        <time>2021-07-29T10:30:08Z</time>
      </trkpt>
      <trkpt lat="48.9234" lon="6.03989">
        <ele>178.3</ele>
        <time>2021-07-29T10:30:09Z</time>
      </trkpt>
      <trkpt lat="48.92336" lon="6.0399">
        <ele>178.3</ele>
        <time>2021-07-29T10:30:10Z</time>
      </trkpt>
      <trkpt lat="48.92332" lon="6.03991">
        <ele>178.3</ele>
        <time>2021-07-29T10:30:11Z</time>
      </trkpt>
      <trkpt lat="48.92328" lon="6.03991">
        <ele>178.3</ele>
        <time>2021-07-29T10:30:12Z</time>
      </trkpt>
      <trkpt lat="48.92322" lon="6.03992">
        <ele>178.4</ele>
        <time>2021-07-29T10:30:14Z</time>
      </trkpt>
      <trkpt lat="48.92316" lon="6.03993">
        <ele>178.4</ele>
        <time>2021-07-29T10:30:15Z</time>
      </trkpt>
      <trkpt lat="48.92312" lon="6.03995">
        <ele>178.4</ele>
        <time>2021-07-29T10:30:16Z</time>
      </trkpt>
      <trkpt lat="48.92308" lon="6.03996">
        <ele>178.4</ele>
        <time>2021-07-29T10:30:18Z</time>
      </trkpt>
      <trkpt lat="48.923" lon="6.03999">
        <ele>178.4</ele>
        <time>2021-07-29T10:30:20Z</time>
      </trkpt>
      <trkpt lat="48.92292" lon="6.04002">
        <ele>178.4</ele>
        <time>2021-07-29T10:30:22Z</time>
      </trkpt>
      <trkpt lat="48.92288" lon="6.04003">
        <ele>178.4</ele>
        <time>2021-07-29T10:30:23Z</time>
      </trkpt>
      <trkpt lat="48.92284" lon="6.04003">
        <ele>178.4</ele>
        <time>2021-07-29T10:30:24Z</time>
      </trkpt>
      <trkpt lat="48.92277" lon="6.04004">
        <ele>178.4</ele>
        <time>2021-07-29T10:30:26Z</time>
      </trkpt>
      <trkpt lat="48.92273" lon="6.04004">
        <ele>178.4</ele>
        <time>2021-07-29T10:30:27Z</time>
      </trkpt>
      <trkpt lat="48.9227" lon="6.04003">
        <ele>178.4</ele>
        <time>2021-07-29T10:30:28Z</time>
      </trkpt>
      <trkpt lat="48.92266" lon="6.04003">
        <ele>178.4</ele>
        <time>2021-07-29T10:30:29Z</time>
      </trkpt>
      <trkpt lat="48.92263" lon="6.04003">
        <ele>178.4</ele>
        <time>2021-07-29T10:30:30Z</time>
      </trkpt>
      <trkpt lat="48.92258" lon="6.04004">
        <ele>178.4</ele>
        <time>2021-07-29T10:30:31Z</time>
      </trkpt>
      <trkpt lat="48.92255" lon="6.04005">
        <ele>178.4</ele>
        <time>2021-07-29T10:30:32Z</time>
      </trkpt>
      <trkpt lat="48.92251" lon="6.04006">
        <ele>178.4</ele>
        <time>2021-07-29T10:30:33Z</time>
      </trkpt>
      <trkpt lat="48.92247" lon="6.04007">
        <ele>178.4</ele>
        <time>2021-07-29T10:30:35Z</time>
      </trkpt>
      <trkpt lat="48.92242" lon="6.04007">
        <ele>178.4</ele>
        <time>2021-07-29T10:30:36Z</time>
      </trkpt>
      <trkpt lat="48.92238" lon="6.04007">
        <ele>178.4</ele>
        <time>2021-07-29T10:30:37Z</time>
      </trkpt>
      <trkpt lat="48.92233" lon="6.04007">
        <ele>178.4</ele>
        <time>2021-07-29T10:30:38Z</time>
      </trkpt>
      <trkpt lat="48.92229" lon="6.04008">
        <ele>178.4</ele>
        <time>2021-07-29T10:30:39Z</time>
      </trkpt>
      <trkpt lat="48.92225" lon="6.04007">
        <ele>178.4</ele>
        <time>2021-07-29T10:30:40Z</time>
      </trkpt>
      <trkpt lat="48.92221" lon="6.04007">
        <ele>178.4</ele>
        <time>2021-07-29T10:30:41Z</time>
      </trkpt>
      <trkpt lat="48.92213" lon="6.04007">
        <ele>178.5</ele>
        <time>2021-07-29T10:30:43Z</time>
      </trkpt>
      <trkpt lat="48.9221" lon="6.04008">
        <ele>178.5</ele>
        <time>2021-07-29T10:30:44Z</time>
      </trkpt>
      <trkpt lat="48.92206" lon="6.04009">
        <ele>178.5</ele>
        <time>2021-07-29T10:30:45Z</time>
      </trkpt>
      <trkpt lat="48.92203" lon="6.0401">
        <ele>178.5</ele>
        <time>2021-07-29T10:30:46Z</time>
      </trkpt>
      <trkpt lat="48.922" lon="6.04012">
        <ele>178.5</ele>
        <time>2021-07-29T10:30:47Z</time>
      </trkpt>
      <trkpt lat="48.92195" lon="6.04013">
        <ele>178.5</ele>
        <time>2021-07-29T10:30:48Z</time>
      </trkpt>
      <trkpt lat="48.92191" lon="6.04015">
        <ele>178.5</ele>
        <time>2021-07-29T10:30:49Z</time>
      </trkpt>
      <trkpt lat="48.92187" lon="6.04016">
        <ele>178.6</ele>
        <time>2021-07-29T10:30:50Z</time>
      </trkpt>
      <trkpt lat="48.92182" lon="6.04017">
        <ele>178.6</ele>
        <time>2021-07-29T10:30:52Z</time>
      </trkpt>
      <trkpt lat="48.92178" lon="6.04017">
        <ele>178.6</ele>
        <time>2021-07-29T10:30:53Z</time>
      </trkpt>
      <trkpt lat="48.92175" lon="6.04015">
        <ele>178.6</ele>
        <time>2021-07-29T10:30:54Z</time>
      </trkpt>
      <trkpt lat="48.92174" lon="6.04015">
        <ele>178.5</ele>
        <time>2021-07-29T10:30:55Z</time>
      </trkpt>
      <trkpt lat="48.92171" lon="6.04013">
        <ele>178.5</ele>
        <time>2021-07-29T10:30:56Z</time>
      </trkpt>
      <trkpt lat="48.9217" lon="6.04012">
        <ele>178.5</ele>
        <time>2021-07-29T10:30:57Z</time>
      </trkpt>
      <trkpt lat="48.92169" lon="6.04009">
        <ele>178.5</ele>
        <time>2021-07-29T10:30:58Z</time>
      </trkpt>
      <trkpt lat="48.92166" lon="6.04005">
        <ele>178.5</ele>
        <time>2021-07-29T10:31:00Z</time>
      </trkpt>
      <trkpt lat="48.92164" lon="6.04002">
        <ele>178.5</ele>
        <time>2021-07-29T10:31:01Z</time>
      </trkpt>
      <trkpt lat="48.9216" lon="6.03999">
        <ele>178.5</ele>
        <time>2021-07-29T10:31:02Z</time>
      </trkpt>
      <trkpt lat="48.92158" lon="6.03998">
        <ele>178.5</ele>
        <time>2021-07-29T10:31:03Z</time>
      </trkpt>
      <trkpt lat="48.92154" lon="6.03997">
        <ele>178.5</ele>
        <time>2021-07-29T10:31:05Z</time>
      </trkpt>
      <trkpt lat="48.92149" lon="6.03997">
        <ele>178.5</ele>
        <time>2021-07-29T10:31:06Z</time>
      </trkpt>
      <trkpt lat="48.92145" lon="6.03996">
        <ele>178.5</ele>
        <time>2021-07-29T10:31:07Z</time>
      </trkpt>
      <trkpt lat="48.92138" lon="6.03993">
        <ele>178.5</ele>
        <time>2021-07-29T10:31:09Z</time>
      </trkpt>
      <trkpt lat="48.92134" lon="6.03993">
        <ele>178.5</ele>
        <time>2021-07-29T10:31:10Z</time>
      </trkpt>
      <trkpt lat="48.92131" lon="6.03993">
        <ele>178.5</ele>
        <time>2021-07-29T10:31:11Z</time>
      </trkpt>
      <trkpt lat="48.92127" lon="6.03993">
        <ele>178.5</ele>
        <time>2021-07-29T10:31:12Z</time>
      </trkpt>
      <trkpt lat="48.92122" lon="6.03993">
        <ele>178.5</ele>
        <time>2021-07-29T10:31:13Z</time>
      </trkpt>
      <trkpt lat="48.92116" lon="6.03994">
        <ele>178.5</ele>
        <time>2021-07-29T10:31:14Z</time>
      </trkpt>
      <trkpt lat="48.9211" lon="6.03995">
        <ele>178.6</ele>
        <time>2021-07-29T10:31:15Z</time>
      </trkpt>
      <trkpt lat="48.92104" lon="6.03995">
        <ele>178.6</ele>
        <time>2021-07-29T10:31:17Z</time>
      </trkpt>
      <trkpt lat="48.92099" lon="6.03995">
        <ele>178.6</ele>
        <time>2021-07-29T10:31:18Z</time>
      </trkpt>
      <trkpt lat="48.9209" lon="6.03995">
        <ele>178.6</ele>
        <time>2021-07-29T10:31:20Z</time>
      </trkpt>
      <trkpt lat="48.92082" lon="6.03995">
        <ele>178.6</ele>
        <time>2021-07-29T10:31:21Z</time>
      </trkpt>
      <trkpt lat="48.92076" lon="6.0399">
        <ele>178.5</ele>
        <time>2021-07-29T10:31:23Z</time>
      </trkpt>
      <trkpt lat="48.92069" lon="6.03988">
        <ele>178.5</ele>
        <time>2021-07-29T10:31:25Z</time>
      </trkpt>
      <trkpt lat="48.92063" lon="6.03989">
        <ele>178.5</ele>
        <time>2021-07-29T10:31:26Z</time>
      </trkpt>
      <trkpt lat="48.92055" lon="6.0399">
        <ele>178.4</ele>
        <time>2021-07-29T10:31:28Z</time>
      </trkpt>
      <trkpt lat="48.92049" lon="6.03991">
        <ele>178.3</ele>
        <time>2021-07-29T10:31:29Z</time>
      </trkpt>
      <trkpt lat="48.92041" lon="6.03992">
        <ele>178.2</ele>
        <time>2021-07-29T10:31:31Z</time>
      </trkpt>
      <trkpt lat="48.92036" lon="6.03992">
        <ele>178.2</ele>
        <time>2021-07-29T10:31:32Z</time>
      </trkpt>
      <trkpt lat="48.92028" lon="6.03992">
        <ele>178.1</ele>
        <time>2021-07-29T10:31:33Z</time>
      </trkpt>
      <trkpt lat="48.92023" lon="6.03992">
        <ele>178.1</ele>
        <time>2021-07-29T10:31:35Z</time>
      </trkpt>
      <trkpt lat="48.92017" lon="6.03991">
        <ele>178.1</ele>
        <time>2021-07-29T10:31:36Z</time>
      </trkpt>
      <trkpt lat="48.9201" lon="6.03991">
        <ele>178</ele>
        <time>2021-07-29T10:31:37Z</time>
      </trkpt>
      <trkpt lat="48.92005" lon="6.03991">
        <ele>178</ele>
        <time>2021-07-29T10:31:38Z</time>
      </trkpt>
      <trkpt lat="48.92" lon="6.03991">
        <ele>178</ele>
        <time>2021-07-29T10:31:40Z</time>
      </trkpt>
      <trkpt lat="48.91996" lon="6.0399">
        <ele>178</ele>
        <time>2021-07-29T10:31:41Z</time>
      </trkpt>
      <trkpt lat="48.91993" lon="6.0399">
        <ele>178</ele>
        <time>2021-07-29T10:31:42Z</time>
      </trkpt>
      <trkpt lat="48.9199" lon="6.0399">
        <ele>178</ele>
        <time>2021-07-29T10:31:43Z</time>
      </trkpt>
      <trkpt lat="48.91987" lon="6.03991">
        <ele>178</ele>
        <time>2021-07-29T10:31:44Z</time>
      </trkpt>
      <trkpt lat="48.91982" lon="6.03991">
        <ele>178.1</ele>
        <time>2021-07-29T10:31:45Z</time>
      </trkpt>
      <trkpt lat="48.91981" lon="6.03991">
        <ele>178.1</ele>
        <time>2021-07-29T10:31:46Z</time>
      </trkpt>
      <trkpt lat="48.91977" lon="6.0399">
        <ele>178.1</ele>
        <time>2021-07-29T10:31:47Z</time>
      </trkpt>
      <trkpt lat="48.91973" lon="6.03991">
        <ele>178.1</ele>
        <time>2021-07-29T10:31:49Z</time>
      </trkpt>
      <trkpt lat="48.9197" lon="6.03991">
        <ele>178.1</ele>
        <time>2021-07-29T10:31:50Z</time>
      </trkpt>
      <trkpt lat="48.91968" lon="6.03992">
        <ele>178.1</ele>
        <time>2021-07-29T10:31:51Z</time>
      </trkpt>
      <trkpt lat="48.91965" lon="6.03994">
        <ele>178.1</ele>
        <time>2021-07-29T10:31:53Z</time>
      </trkpt>
      <trkpt lat="48.91961" lon="6.03996">
        <ele>178.2</ele>
        <time>2021-07-29T10:31:54Z</time>
      </trkpt>
      <trkpt lat="48.9196" lon="6.03997">
        <ele>178.2</ele>
        <time>2021-07-29T10:31:55Z</time>
      </trkpt>
      <trkpt lat="48.91957" lon="6.04">
        <ele>178.2</ele>
        <time>2021-07-29T10:31:56Z</time>
      </trkpt>
      <trkpt lat="48.91956" lon="6.04001">
        <ele>178.2</ele>
        <time>2021-07-29T10:31:57Z</time>
      </trkpt>
      <trkpt lat="48.91949" lon="6.04005">
        <ele>178.2</ele>
        <time>2021-07-29T10:31:59Z</time>
      </trkpt>
      <trkpt lat="48.91946" lon="6.04006">
        <ele>178.2</ele>
        <time>2021-07-29T10:32:00Z</time>
      </trkpt>
      <trkpt lat="48.91942" lon="6.04008">
        <ele>178.3</ele>
        <time>2021-07-29T10:32:01Z</time>
      </trkpt>
      <trkpt lat="48.91933" lon="6.04011">
        <ele>178.4</ele>
        <time>2021-07-29T10:32:03Z</time>
      </trkpt>
      <trkpt lat="48.91927" lon="6.04011">
        <ele>178.4</ele>
        <time>2021-07-29T10:32:04Z</time>
      </trkpt>
      <trkpt lat="48.91921" lon="6.04011">
        <ele>178.5</ele>
        <time>2021-07-29T10:32:05Z</time>
      </trkpt>
      <trkpt lat="48.91914" lon="6.04011">
        <ele>178.6</ele>
        <time>2021-07-29T10:32:06Z</time>
      </trkpt>
      <trkpt lat="48.91906" lon="6.0401">
        <ele>178.7</ele>
        <time>2021-07-29T10:32:07Z</time>
      </trkpt>
      <trkpt lat="48.91901" lon="6.0401">
        <ele>178.7</ele>
        <time>2021-07-29T10:32:08Z</time>
      </trkpt>
      <trkpt lat="48.91894" lon="6.04009">
        <ele>178.8</ele>
        <time>2021-07-29T10:32:10Z</time>
      </trkpt>
      <trkpt lat="48.91889" lon="6.04008">
        <ele>178.9</ele>
        <time>2021-07-29T10:32:11Z</time>
      </trkpt>
      <trkpt lat="48.91884" lon="6.04008">
        <ele>178.9</ele>
        <time>2021-07-29T10:32:12Z</time>
      </trkpt>
      <trkpt lat="48.91879" lon="6.04008">
        <ele>178.9</ele>
        <time>2021-07-29T10:32:13Z</time>
      </trkpt>
      <trkpt lat="48.91873" lon="6.04009">
        <ele>178.9</ele>
        <time>2021-07-29T10:32:14Z</time>
      </trkpt>
      <trkpt lat="48.91868" lon="6.0401">
        <ele>179</ele>
        <time>2021-07-29T10:32:16Z</time>
      </trkpt>
      <trkpt lat="48.91865" lon="6.0401">
        <ele>179</ele>
        <time>2021-07-29T10:32:17Z</time>
      </trkpt>
      <trkpt lat="48.91862" lon="6.0401">
        <ele>178.9</ele>
        <time>2021-07-29T10:32:18Z</time>
      </trkpt>
      <trkpt lat="48.91857" lon="6.04009">
        <ele>179</ele>
        <time>2021-07-29T10:32:20Z</time>
      </trkpt>
      <trkpt lat="48.91853" lon="6.04011">
        <ele>178.9</ele>
        <time>2021-07-29T10:32:21Z</time>
      </trkpt>
      <trkpt lat="48.91846" lon="6.04011">
        <ele>178.9</ele>
        <time>2021-07-29T10:32:22Z</time>
      </trkpt>
      <trkpt lat="48.91843" lon="6.04015">
        <ele>179</ele>
        <time>2021-07-29T10:32:23Z</time>
      </trkpt>
      <trkpt lat="48.91838" lon="6.04018">
        <ele>179</ele>
        <time>2021-07-29T10:32:24Z</time>
      </trkpt>
      <trkpt lat="48.91834" lon="6.0402">
        <ele>179</ele>
        <time>2021-07-29T10:32:25Z</time>
      </trkpt>
      <trkpt lat="48.9183" lon="6.04022">
        <ele>179</ele>
        <time>2021-07-29T10:32:26Z</time>
      </trkpt>
      <trkpt lat="48.91827" lon="6.04025">
        <ele>179</ele>
        <time>2021-07-29T10:32:28Z</time>
      </trkpt>
      <trkpt lat="48.91825" lon="6.04028">
        <ele>179</ele>
        <time>2021-07-29T10:32:29Z</time>
      </trkpt>
      <trkpt lat="48.91822" lon="6.04032">
        <ele>179</ele>
        <time>2021-07-29T10:32:30Z</time>
      </trkpt>
      <trkpt lat="48.91816" lon="6.04038">
        <ele>179</ele>
        <time>2021-07-29T10:32:32Z</time>
      </trkpt>
      <trkpt lat="48.91811" lon="6.04043">
        <ele>179.1</ele>
        <time>2021-07-29T10:32:33Z</time>
      </trkpt>
      <trkpt lat="48.91807" lon="6.04048">
        <ele>179.1</ele>
        <time>2021-07-29T10:32:35Z</time>
      </trkpt>
      <trkpt lat="48.91803" lon="6.04051">
        <ele>179.1</ele>
        <time>2021-07-29T10:32:36Z</time>
      </trkpt>
      <trkpt lat="48.91801" lon="6.04054">
        <ele>179.1</ele>
        <time>2021-07-29T10:32:37Z</time>
      </trkpt>
      <trkpt lat="48.91798" lon="6.04058">
        <ele>179.1</ele>
        <time>2021-07-29T10:32:38Z</time>
      </trkpt>
      <trkpt lat="48.91796" lon="6.04061">
        <ele>179.2</ele>
        <time>2021-07-29T10:32:40Z</time>
      </trkpt>
      <trkpt lat="48.91795" lon="6.04062">
        <ele>179.1</ele>
        <time>2021-07-29T10:32:41Z</time>
      </trkpt>
      <trkpt lat="48.91793" lon="6.04067">
        <ele>179.2</ele>
        <time>2021-07-29T10:32:42Z</time>
      </trkpt>
      <trkpt lat="48.91793" lon="6.04069">
        <ele>179.2</ele>
        <time>2021-07-29T10:32:43Z</time>
      </trkpt>
      <trkpt lat="48.91793" lon="6.04077">
        <ele>179.3</ele>
        <time>2021-07-29T10:32:45Z</time>
      </trkpt>
      <trkpt lat="48.91794" lon="6.04084">
        <ele>179.4</ele>
        <time>2021-07-29T10:32:46Z</time>
      </trkpt>
      <trkpt lat="48.91795" lon="6.0409">
        <ele>179.4</ele>
        <time>2021-07-29T10:32:47Z</time>
      </trkpt>
      <trkpt lat="48.91797" lon="6.04096">
        <ele>179.5</ele>
        <time>2021-07-29T10:32:49Z</time>
      </trkpt>
      <trkpt lat="48.91798" lon="6.041">
        <ele>179.5</ele>
        <time>2021-07-29T10:32:50Z</time>
      </trkpt>
      <trkpt lat="48.91801" lon="6.04106">
        <ele>179.6</ele>
        <time>2021-07-29T10:32:51Z</time>
      </trkpt>
      <trkpt lat="48.91803" lon="6.04111">
        <ele>179.7</ele>
        <time>2021-07-29T10:32:53Z</time>
      </trkpt>
      <trkpt lat="48.91805" lon="6.04115">
        <ele>179.7</ele>
        <time>2021-07-29T10:32:54Z</time>
      </trkpt>
      <trkpt lat="48.91807" lon="6.04119">
        <ele>179.8</ele>
        <time>2021-07-29T10:32:55Z</time>
      </trkpt>
      <trkpt lat="48.91809" lon="6.04122">
        <ele>179.8</ele>
        <time>2021-07-29T10:32:56Z</time>
      </trkpt>
      <trkpt lat="48.91812" lon="6.04127">
        <ele>179.9</ele>
        <time>2021-07-29T10:32:58Z</time>
      </trkpt>
      <trkpt lat="48.91814" lon="6.04131">
        <ele>180</ele>
        <time>2021-07-29T10:32:59Z</time>
      </trkpt>
      <trkpt lat="48.91814" lon="6.04133">
        <ele>180</ele>
        <time>2021-07-29T10:33:00Z</time>
      </trkpt>
      <trkpt lat="48.91817" lon="6.04138">
        <ele>180.1</ele>
        <time>2021-07-29T10:33:02Z</time>
      </trkpt>
      <trkpt lat="48.91818" lon="6.04144">
        <ele>180.1</ele>
        <time>2021-07-29T10:33:04Z</time>
      </trkpt>
      <trkpt lat="48.91817" lon="6.04147">
        <ele>180.2</ele>
        <time>2021-07-29T10:33:06Z</time>
      </trkpt>
      <trkpt lat="48.91816" lon="6.04149">
        <ele>180.2</ele>
        <time>2021-07-29T10:33:07Z</time>
      </trkpt>
      <trkpt lat="48.91816" lon="6.04148">
        <ele>180.2</ele>
        <time>2021-07-29T10:33:09Z</time>
      </trkpt>
      <trkpt lat="48.91816" lon="6.0415">
        <ele>180.2</ele>
        <time>2021-07-29T10:33:10Z</time>
      </trkpt>
      <trkpt lat="48.91815" lon="6.04155">
        <ele>180.2</ele>
        <time>2021-07-29T10:33:12Z</time>
      </trkpt>
      <trkpt lat="48.91816" lon="6.04159">
        <ele>180.3</ele>
        <time>2021-07-29T10:33:13Z</time>
      </trkpt>
      <trkpt lat="48.91816" lon="6.04161">
        <ele>180.3</ele>
        <time>2021-07-29T10:33:14Z</time>
      </trkpt>
      <trkpt lat="48.91816" lon="6.04167">
        <ele>180.4</ele>
        <time>2021-07-29T10:33:16Z</time>
      </trkpt>
      <trkpt lat="48.91816" lon="6.04175">
        <ele>180.5</ele>
        <time>2021-07-29T10:33:18Z</time>
      </trkpt>
      <trkpt lat="48.91815" lon="6.04179">
        <ele>180.5</ele>
        <time>2021-07-29T10:33:19Z</time>
      </trkpt>
      <trkpt lat="48.91813" lon="6.04185">
        <ele>180.5</ele>
        <time>2021-07-29T10:33:20Z</time>
      </trkpt>
      <trkpt lat="48.91811" lon="6.04189">
        <ele>180.4</ele>
        <time>2021-07-29T10:33:22Z</time>
      </trkpt>
      <trkpt lat="48.91807" lon="6.04196">
        <ele>180.3</ele>
        <time>2021-07-29T10:33:24Z</time>
      </trkpt>
      <trkpt lat="48.91805" lon="6.04201">
        <ele>180.2</ele>
        <time>2021-07-29T10:33:25Z</time>
      </trkpt>
      <trkpt lat="48.91803" lon="6.04203">
        <ele>180.2</ele>
        <time>2021-07-29T10:33:26Z</time>
      </trkpt>
      <trkpt lat="48.91799" lon="6.04209">
        <ele>180.1</ele>
        <time>2021-07-29T10:33:28Z</time>
      </trkpt>
      <trkpt lat="48.91796" lon="6.04211">
        <ele>180.1</ele>
        <time>2021-07-29T10:33:29Z</time>
      </trkpt>
      <trkpt lat="48.91792" lon="6.04213">
        <ele>180</ele>
        <time>2021-07-29T10:33:30Z</time>
      </trkpt>
      <trkpt lat="48.91787" lon="6.04214">
        <ele>180</ele>
        <time>2021-07-29T10:33:31Z</time>
      </trkpt>
      <trkpt lat="48.91783" lon="6.04214">
        <ele>179.9</ele>
        <time>2021-07-29T10:33:32Z</time>
      </trkpt>
      <trkpt lat="48.91779" lon="6.04215">
        <ele>179.9</ele>
        <time>2021-07-29T10:33:33Z</time>
      </trkpt>
      <trkpt lat="48.91775" lon="6.04216">
        <ele>179.9</ele>
        <time>2021-07-29T10:33:34Z</time>
      </trkpt>
      <trkpt lat="48.9177" lon="6.04216">
        <ele>179.8</ele>
        <time>2021-07-29T10:33:36Z</time>
      </trkpt>
      <trkpt lat="48.91767" lon="6.04218">
        <ele>179.8</ele>
        <time>2021-07-29T10:33:37Z</time>
      </trkpt>
      <trkpt lat="48.91764" lon="6.0422">
        <ele>179.8</ele>
        <time>2021-07-29T10:33:38Z</time>
      </trkpt>
      <trkpt lat="48.91761" lon="6.04221">
        <ele>179.8</ele>
        <time>2021-07-29T10:33:39Z</time>
      </trkpt>
      <trkpt lat="48.91757" lon="6.04223">
        <ele>179.8</ele>
        <time>2021-07-29T10:33:41Z</time>
      </trkpt>
      <trkpt lat="48.91752" lon="6.04226">
        <ele>179.8</ele>
        <time>2021-07-29T10:33:43Z</time>
      </trkpt>
      <trkpt lat="48.91749" lon="6.04227">
        <ele>179.8</ele>
        <time>2021-07-29T10:33:44Z</time>
      </trkpt>
      <trkpt lat="48.91747" lon="6.04229">
        <ele>179.8</ele>
        <time>2021-07-29T10:33:45Z</time>
      </trkpt>
      <trkpt lat="48.91744" lon="6.0423">
        <ele>179.8</ele>
        <time>2021-07-29T10:33:47Z</time>
      </trkpt>
      <trkpt lat="48.9174" lon="6.04232">
        <ele>179.8</ele>
        <time>2021-07-29T10:33:49Z</time>
      </trkpt>
      <trkpt lat="48.91736" lon="6.04233">
        <ele>179.8</ele>
        <time>2021-07-29T10:33:50Z</time>
      </trkpt>
      <trkpt lat="48.91734" lon="6.04234">
        <ele>179.8</ele>
        <time>2021-07-29T10:33:51Z</time>
      </trkpt>
      <trkpt lat="48.91728" lon="6.04236">
        <ele>179.8</ele>
        <time>2021-07-29T10:33:52Z</time>
      </trkpt>
      <trkpt lat="48.91723" lon="6.04237">
        <ele>179.8</ele>
        <time>2021-07-29T10:33:53Z</time>
      </trkpt>
      <trkpt lat="48.91716" lon="6.0424">
        <ele>179.7</ele>
        <time>2021-07-29T10:33:55Z</time>
      </trkpt>
      <trkpt lat="48.91708" lon="6.04243">
        <ele>179.7</ele>
        <time>2021-07-29T10:33:56Z</time>
      </trkpt>
      <trkpt lat="48.91702" lon="6.04247">
        <ele>179.7</ele>
        <time>2021-07-29T10:33:58Z</time>
      </trkpt>
      <trkpt lat="48.91696" lon="6.04249">
        <ele>179.7</ele>
        <time>2021-07-29T10:33:59Z</time>
      </trkpt>
      <trkpt lat="48.91685" lon="6.04255">
        <ele>179.7</ele>
        <time>2021-07-29T10:34:01Z</time>
      </trkpt>
      <trkpt lat="48.9168" lon="6.04258">
        <ele>179.7</ele>
        <time>2021-07-29T10:34:02Z</time>
      </trkpt>
      <trkpt lat="48.91671" lon="6.04265">
        <ele>179.6</ele>
        <time>2021-07-29T10:34:04Z</time>
      </trkpt>
      <trkpt lat="48.91666" lon="6.04271">
        <ele>179.6</ele>
        <time>2021-07-29T10:34:05Z</time>
      </trkpt>
      <trkpt lat="48.91661" lon="6.04277">
        <ele>179.6</ele>
        <time>2021-07-29T10:34:06Z</time>
      </trkpt>
      <trkpt lat="48.91655" lon="6.04282">
        <ele>179.6</ele>
        <time>2021-07-29T10:34:07Z</time>
      </trkpt>
      <trkpt lat="48.91648" lon="6.04288">
        <ele>179.7</ele>
        <time>2021-07-29T10:34:09Z</time>
      </trkpt>
      <trkpt lat="48.91645" lon="6.04292">
        <ele>179.7</ele>
        <time>2021-07-29T10:34:10Z</time>
      </trkpt>
      <trkpt lat="48.91642" lon="6.04295">
        <ele>179.7</ele>
        <time>2021-07-29T10:34:11Z</time>
      </trkpt>
      <trkpt lat="48.91635" lon="6.04301">
        <ele>179.7</ele>
        <time>2021-07-29T10:34:12Z</time>
      </trkpt>
      <trkpt lat="48.9163" lon="6.04304">
        <ele>179.7</ele>
        <time>2021-07-29T10:34:13Z</time>
      </trkpt>
      <trkpt lat="48.91619" lon="6.0431">
        <ele>179.7</ele>
        <time>2021-07-29T10:34:15Z</time>
      </trkpt>
      <trkpt lat="48.91613" lon="6.04315">
        <ele>179.8</ele>
        <time>2021-07-29T10:34:16Z</time>
      </trkpt>
      <trkpt lat="48.91606" lon="6.04322">
        <ele>179.8</ele>
        <time>2021-07-29T10:34:18Z</time>
      </trkpt>
      <trkpt lat="48.91603" lon="6.04326">
        <ele>179.8</ele>
        <time>2021-07-29T10:34:19Z</time>
      </trkpt>
      <trkpt lat="48.91595" lon="6.04335">
        <ele>179.8</ele>
        <time>2021-07-29T10:34:21Z</time>
      </trkpt>
      <trkpt lat="48.91592" lon="6.04341">
        <ele>179.8</ele>
        <time>2021-07-29T10:34:22Z</time>
      </trkpt>
      <trkpt lat="48.91587" lon="6.04347">
        <ele>179.8</ele>
        <time>2021-07-29T10:34:23Z</time>
      </trkpt>
      <trkpt lat="48.91582" lon="6.04351">
        <ele>179.8</ele>
        <time>2021-07-29T10:34:24Z</time>
      </trkpt>
      <trkpt lat="48.91576" lon="6.04357">
        <ele>179.8</ele>
        <time>2021-07-29T10:34:26Z</time>
      </trkpt>
      <trkpt lat="48.91572" lon="6.04361">
        <ele>179.8</ele>
        <time>2021-07-29T10:34:27Z</time>
      </trkpt>
      <trkpt lat="48.91568" lon="6.04364">
        <ele>179.8</ele>
        <time>2021-07-29T10:34:28Z</time>
      </trkpt>
      <trkpt lat="48.91562" lon="6.0437">
        <ele>179.8</ele>
        <time>2021-07-29T10:34:30Z</time>
      </trkpt>
      <trkpt lat="48.9156" lon="6.04374">
        <ele>179.8</ele>
        <time>2021-07-29T10:34:31Z</time>
      </trkpt>
      <trkpt lat="48.91559" lon="6.04378">
        <ele>179.8</ele>
        <time>2021-07-29T10:34:32Z</time>
      </trkpt>
      <trkpt lat="48.91557" lon="6.04383">
        <ele>179.8</ele>
        <time>2021-07-29T10:34:33Z</time>
      </trkpt>
      <trkpt lat="48.91557" lon="6.04385">
        <ele>179.8</ele>
        <time>2021-07-29T10:34:34Z</time>
      </trkpt>
      <trkpt lat="48.91555" lon="6.04388">
        <ele>179.8</ele>
        <time>2021-07-29T10:34:35Z</time>
      </trkpt>
      <trkpt lat="48.91553" lon="6.04392">
        <ele>179.8</ele>
        <time>2021-07-29T10:34:37Z</time>
      </trkpt>
      <trkpt lat="48.91551" lon="6.04394">
        <ele>179.8</ele>
        <time>2021-07-29T10:34:38Z</time>
      </trkpt>
      <trkpt lat="48.91545" lon="6.044">
        <ele>179.8</ele>
        <time>2021-07-29T10:34:40Z</time>
      </trkpt>
      <trkpt lat="48.91541" lon="6.04402">
        <ele>179.8</ele>
        <time>2021-07-29T10:34:41Z</time>
      </trkpt>
      <trkpt lat="48.91537" lon="6.04406">
        <ele>179.8</ele>
        <time>2021-07-29T10:34:42Z</time>
      </trkpt>
      <trkpt lat="48.91533" lon="6.0441">
        <ele>179.8</ele>
        <time>2021-07-29T10:34:44Z</time>
      </trkpt>
      <trkpt lat="48.9153" lon="6.04413">
        <ele>179.8</ele>
        <time>2021-07-29T10:34:45Z</time>
      </trkpt>
      <trkpt lat="48.91528" lon="6.04417">
        <ele>179.8</ele>
        <time>2021-07-29T10:34:46Z</time>
      </trkpt>
      <trkpt lat="48.91525" lon="6.04419">
        <ele>179.8</ele>
        <time>2021-07-29T10:34:47Z</time>
      </trkpt>
      <trkpt lat="48.91521" lon="6.04421">
        <ele>179.8</ele>
        <time>2021-07-29T10:34:48Z</time>
      </trkpt>
      <trkpt lat="48.91518" lon="6.04424">
        <ele>179.8</ele>
        <time>2021-07-29T10:34:49Z</time>
      </trkpt>
      <trkpt lat="48.91515" lon="6.04428">
        <ele>179.8</ele>
        <time>2021-07-29T10:34:51Z</time>
      </trkpt>
      <trkpt lat="48.91508" lon="6.04433">
        <ele>179.7</ele>
        <time>2021-07-29T10:34:53Z</time>
      </trkpt>
      <trkpt lat="48.91503" lon="6.04439">
        <ele>179.7</ele>
        <time>2021-07-29T10:34:54Z</time>
      </trkpt>
      <trkpt lat="48.91494" lon="6.04447">
        <ele>179.7</ele>
        <time>2021-07-29T10:34:56Z</time>
      </trkpt>
      <trkpt lat="48.91484" lon="6.04457">
        <ele>179.8</ele>
        <time>2021-07-29T10:34:58Z</time>
      </trkpt>
      <trkpt lat="48.9148" lon="6.04462">
        <ele>179.8</ele>
        <time>2021-07-29T10:34:59Z</time>
      </trkpt>
      <trkpt lat="48.91475" lon="6.04469">
        <ele>179.8</ele>
        <time>2021-07-29T10:35:00Z</time>
      </trkpt>
      <trkpt lat="48.91471" lon="6.04474">
        <ele>179.8</ele>
        <time>2021-07-29T10:35:01Z</time>
      </trkpt>
      <trkpt lat="48.91467" lon="6.04479">
        <ele>179.9</ele>
        <time>2021-07-29T10:35:02Z</time>
      </trkpt>
      <trkpt lat="48.91464" lon="6.04482">
        <ele>179.9</ele>
        <time>2021-07-29T10:35:03Z</time>
      </trkpt>
      <trkpt lat="48.91462" lon="6.04485">
        <ele>179.9</ele>
        <time>2021-07-29T10:35:05Z</time>
      </trkpt>
      <trkpt lat="48.91459" lon="6.04489">
        <ele>179.9</ele>
        <time>2021-07-29T10:35:06Z</time>
      </trkpt>
      <trkpt lat="48.91455" lon="6.04492">
        <ele>179.9</ele>
        <time>2021-07-29T10:35:07Z</time>
      </trkpt>
      <trkpt lat="48.91452" lon="6.04496">
        <ele>179.9</ele>
        <time>2021-07-29T10:35:08Z</time>
      </trkpt>
      <trkpt lat="48.91447" lon="6.04502">
        <ele>179.9</ele>
        <time>2021-07-29T10:35:10Z</time>
      </trkpt>
      <trkpt lat="48.91443" lon="6.04507">
        <ele>179.8</ele>
        <time>2021-07-29T10:35:11Z</time>
      </trkpt>
      <trkpt lat="48.9144" lon="6.0451">
        <ele>179.8</ele>
        <time>2021-07-29T10:35:12Z</time>
      </trkpt>
      <trkpt lat="48.91437" lon="6.04514">
        <ele>179.8</ele>
        <time>2021-07-29T10:35:13Z</time>
      </trkpt>
      <trkpt lat="48.91432" lon="6.04519">
        <ele>179.9</ele>
        <time>2021-07-29T10:35:15Z</time>
      </trkpt>
      <trkpt lat="48.91427" lon="6.04525">
        <ele>179.9</ele>
        <time>2021-07-29T10:35:17Z</time>
      </trkpt>
      <trkpt lat="48.91422" lon="6.04528">
        <ele>179.9</ele>
        <time>2021-07-29T10:35:18Z</time>
      </trkpt>
      <trkpt lat="48.91418" lon="6.04531">
        <ele>179.9</ele>
        <time>2021-07-29T10:35:19Z</time>
      </trkpt>
      <trkpt lat="48.91414" lon="6.04537">
        <ele>179.9</ele>
        <time>2021-07-29T10:35:20Z</time>
      </trkpt>
      <trkpt lat="48.91408" lon="6.04545">
        <ele>179.9</ele>
        <time>2021-07-29T10:35:22Z</time>
      </trkpt>
      <trkpt lat="48.91405" lon="6.04549">
        <ele>179.9</ele>
        <time>2021-07-29T10:35:23Z</time>
      </trkpt>
      <trkpt lat="48.91404" lon="6.0455">
        <ele>179.9</ele>
        <time>2021-07-29T10:35:24Z</time>
      </trkpt>
      <trkpt lat="48.91401" lon="6.04552">
        <ele>179.9</ele>
        <time>2021-07-29T10:35:25Z</time>
      </trkpt>
      <trkpt lat="48.914" lon="6.04553">
        <ele>179.9</ele>
        <time>2021-07-29T10:35:26Z</time>
      </trkpt>
      <trkpt lat="48.91397" lon="6.04556">
        <ele>179.9</ele>
        <time>2021-07-29T10:35:27Z</time>
      </trkpt>
      <trkpt lat="48.91394" lon="6.04559">
        <ele>179.9</ele>
        <time>2021-07-29T10:35:28Z</time>
      </trkpt>
      <trkpt lat="48.91391" lon="6.04563">
        <ele>179.9</ele>
        <time>2021-07-29T10:35:29Z</time>
      </trkpt>
      <trkpt lat="48.91387" lon="6.04569">
        <ele>179.8</ele>
        <time>2021-07-29T10:35:30Z</time>
      </trkpt>
      <trkpt lat="48.9138" lon="6.04574">
        <ele>179.8</ele>
        <time>2021-07-29T10:35:32Z</time>
      </trkpt>
      <trkpt lat="48.9137" lon="6.04583">
        <ele>179.8</ele>
        <time>2021-07-29T10:35:33Z</time>
      </trkpt>
      <trkpt lat="48.91361" lon="6.04585">
        <ele>179.7</ele>
        <time>2021-07-29T10:35:35Z</time>
      </trkpt>
      <trkpt lat="48.91357" lon="6.04589">
        <ele>179.7</ele>
        <time>2021-07-29T10:35:36Z</time>
      </trkpt>
      <trkpt lat="48.91343" lon="6.046">
        <ele>179.7</ele>
        <time>2021-07-29T10:35:37Z</time>
      </trkpt>
      <trkpt lat="48.91338" lon="6.04605">
        <ele>179.7</ele>
        <time>2021-07-29T10:35:38Z</time>
      </trkpt>
      <trkpt lat="48.91332" lon="6.04612">
        <ele>179.7</ele>
        <time>2021-07-29T10:35:40Z</time>
      </trkpt>
      <trkpt lat="48.91327" lon="6.04617">
        <ele>179.7</ele>
        <time>2021-07-29T10:35:41Z</time>
      </trkpt>
      <trkpt lat="48.91321" lon="6.04622">
        <ele>179.7</ele>
        <time>2021-07-29T10:35:42Z</time>
      </trkpt>
      <trkpt lat="48.91315" lon="6.04627">
        <ele>179.6</ele>
        <time>2021-07-29T10:35:43Z</time>
      </trkpt>
      <trkpt lat="48.9131" lon="6.04631">
        <ele>179.6</ele>
        <time>2021-07-29T10:35:44Z</time>
      </trkpt>
      <trkpt lat="48.91303" lon="6.04638">
        <ele>179.6</ele>
        <time>2021-07-29T10:35:45Z</time>
      </trkpt>
      <trkpt lat="48.91298" lon="6.04642">
        <ele>179.6</ele>
        <time>2021-07-29T10:35:46Z</time>
      </trkpt>
      <trkpt lat="48.91295" lon="6.04645">
        <ele>179.6</ele>
        <time>2021-07-29T10:35:47Z</time>
      </trkpt>
      <trkpt lat="48.91291" lon="6.04649">
        <ele>179.6</ele>
        <time>2021-07-29T10:35:48Z</time>
      </trkpt>
      <trkpt lat="48.91286" lon="6.04653">
        <ele>179.6</ele>
        <time>2021-07-29T10:35:49Z</time>
      </trkpt>
      <trkpt lat="48.91281" lon="6.04658">
        <ele>179.7</ele>
        <time>2021-07-29T10:35:50Z</time>
      </trkpt>
      <trkpt lat="48.91276" lon="6.04663">
        <ele>179.7</ele>
        <time>2021-07-29T10:35:52Z</time>
      </trkpt>
      <trkpt lat="48.91273" lon="6.04668">
        <ele>179.7</ele>
        <time>2021-07-29T10:35:53Z</time>
      </trkpt>
      <trkpt lat="48.9127" lon="6.04674">
        <ele>179.7</ele>
        <time>2021-07-29T10:35:54Z</time>
      </trkpt>
      <trkpt lat="48.91267" lon="6.04679">
        <ele>179.7</ele>
        <time>2021-07-29T10:35:55Z</time>
      </trkpt>
      <trkpt lat="48.9126" lon="6.04687">
        <ele>179.7</ele>
        <time>2021-07-29T10:35:57Z</time>
      </trkpt>
      <trkpt lat="48.91255" lon="6.04693">
        <ele>179.7</ele>
        <time>2021-07-29T10:35:58Z</time>
      </trkpt>
      <trkpt lat="48.9125" lon="6.04697">
        <ele>179.7</ele>
        <time>2021-07-29T10:35:59Z</time>
      </trkpt>
      <trkpt lat="48.91246" lon="6.04702">
        <ele>179.7</ele>
        <time>2021-07-29T10:36:00Z</time>
      </trkpt>
      <trkpt lat="48.91239" lon="6.04707">
        <ele>179.7</ele>
        <time>2021-07-29T10:36:02Z</time>
      </trkpt>
      <trkpt lat="48.91235" lon="6.04711">
        <ele>179.7</ele>
        <time>2021-07-29T10:36:03Z</time>
      </trkpt>
      <trkpt lat="48.91229" lon="6.04717">
        <ele>179.7</ele>
        <time>2021-07-29T10:36:05Z</time>
      </trkpt>
      <trkpt lat="48.91223" lon="6.04723">
        <ele>179.7</ele>
        <time>2021-07-29T10:36:06Z</time>
      </trkpt>
      <trkpt lat="48.91218" lon="6.04731">
        <ele>179.7</ele>
        <time>2021-07-29T10:36:08Z</time>
      </trkpt>
      <trkpt lat="48.91213" lon="6.04738">
        <ele>179.8</ele>
        <time>2021-07-29T10:36:09Z</time>
      </trkpt>
      <trkpt lat="48.9121" lon="6.04743">
        <ele>179.8</ele>
        <time>2021-07-29T10:36:10Z</time>
      </trkpt>
      <trkpt lat="48.91208" lon="6.04748">
        <ele>179.8</ele>
        <time>2021-07-29T10:36:11Z</time>
      </trkpt>
      <trkpt lat="48.91202" lon="6.04754">
        <ele>179.8</ele>
        <time>2021-07-29T10:36:13Z</time>
      </trkpt>
      <trkpt lat="48.91196" lon="6.04758">
        <ele>179.8</ele>
        <time>2021-07-29T10:36:15Z</time>
      </trkpt>
      <trkpt lat="48.9119" lon="6.04761">
        <ele>179.8</ele>
        <time>2021-07-29T10:36:16Z</time>
      </trkpt>
      <trkpt lat="48.91187" lon="6.04763">
        <ele>179.9</ele>
        <time>2021-07-29T10:36:17Z</time>
      </trkpt>
      <trkpt lat="48.91183" lon="6.04766">
        <ele>179.9</ele>
        <time>2021-07-29T10:36:19Z</time>
      </trkpt>
      <trkpt lat="48.9118" lon="6.04768">
        <ele>179.9</ele>
        <time>2021-07-29T10:36:20Z</time>
      </trkpt>
      <trkpt lat="48.91178" lon="6.04771">
        <ele>179.9</ele>
        <time>2021-07-29T10:36:21Z</time>
      </trkpt>
      <trkpt lat="48.91175" lon="6.04774">
        <ele>179.9</ele>
        <time>2021-07-29T10:36:22Z</time>
      </trkpt>
      <trkpt lat="48.91173" lon="6.04779">
        <ele>180</ele>
        <time>2021-07-29T10:36:23Z</time>
      </trkpt>
      <trkpt lat="48.91171" lon="6.04782">
        <ele>180</ele>
        <time>2021-07-29T10:36:24Z</time>
      </trkpt>
      <trkpt lat="48.9117" lon="6.04787">
        <ele>180</ele>
        <time>2021-07-29T10:36:25Z</time>
      </trkpt>
      <trkpt lat="48.91168" lon="6.04792">
        <ele>180</ele>
        <time>2021-07-29T10:36:27Z</time>
      </trkpt>
      <trkpt lat="48.91168" lon="6.04796">
        <ele>180</ele>
        <time>2021-07-29T10:36:28Z</time>
      </trkpt>
      <trkpt lat="48.91166" lon="6.048">
        <ele>180</ele>
        <time>2021-07-29T10:36:29Z</time>
      </trkpt>
      <trkpt lat="48.91164" lon="6.04803">
        <ele>180.1</ele>
        <time>2021-07-29T10:36:30Z</time>
      </trkpt>
      <trkpt lat="48.91161" lon="6.04807">
        <ele>180.1</ele>
        <time>2021-07-29T10:36:31Z</time>
      </trkpt>
      <trkpt lat="48.91159" lon="6.04811">
        <ele>180.1</ele>
        <time>2021-07-29T10:36:33Z</time>
      </trkpt>
      <trkpt lat="48.91156" lon="6.04813">
        <ele>180.1</ele>
        <time>2021-07-29T10:36:34Z</time>
      </trkpt>
      <trkpt lat="48.91152" lon="6.04815">
        <ele>180.1</ele>
        <time>2021-07-29T10:36:35Z</time>
      </trkpt>
      <trkpt lat="48.91148" lon="6.04816">
        <ele>180.1</ele>
        <time>2021-07-29T10:36:36Z</time>
      </trkpt>
      <trkpt lat="48.91145" lon="6.04818">
        <ele>180.1</ele>
        <time>2021-07-29T10:36:37Z</time>
      </trkpt>
      <trkpt lat="48.91141" lon="6.0482">
        <ele>180.1</ele>
        <time>2021-07-29T10:36:38Z</time>
      </trkpt>
      <trkpt lat="48.91135" lon="6.04823">
        <ele>180.1</ele>
        <time>2021-07-29T10:36:39Z</time>
      </trkpt>
      <trkpt lat="48.9113" lon="6.04826">
        <ele>180</ele>
        <time>2021-07-29T10:36:40Z</time>
      </trkpt>
      <trkpt lat="48.91122" lon="6.04833">
        <ele>180</ele>
        <time>2021-07-29T10:36:42Z</time>
      </trkpt>
      <trkpt lat="48.91118" lon="6.04836">
        <ele>180</ele>
        <time>2021-07-29T10:36:43Z</time>
      </trkpt>
      <trkpt lat="48.91116" lon="6.04842">
        <ele>180</ele>
        <time>2021-07-29T10:36:44Z</time>
      </trkpt>
      <trkpt lat="48.91109" lon="6.04852">
        <ele>180</ele>
        <time>2021-07-29T10:36:46Z</time>
      </trkpt>
      <trkpt lat="48.91106" lon="6.04853">
        <ele>180</ele>
        <time>2021-07-29T10:36:47Z</time>
      </trkpt>
      <trkpt lat="48.91097" lon="6.04856">
        <ele>179.9</ele>
        <time>2021-07-29T10:36:49Z</time>
      </trkpt>
      <trkpt lat="48.91096" lon="6.04859">
        <ele>179.9</ele>
        <time>2021-07-29T10:36:50Z</time>
      </trkpt>
      <trkpt lat="48.91094" lon="6.0486">
        <ele>179.9</ele>
        <time>2021-07-29T10:36:51Z</time>
      </trkpt>
      <trkpt lat="48.91088" lon="6.04865">
        <ele>179.9</ele>
        <time>2021-07-29T10:36:52Z</time>
      </trkpt>
      <trkpt lat="48.91082" lon="6.04871">
        <ele>179.9</ele>
        <time>2021-07-29T10:36:54Z</time>
      </trkpt>
      <trkpt lat="48.91071" lon="6.04878">
        <ele>179.8</ele>
        <time>2021-07-29T10:36:55Z</time>
      </trkpt>
      <trkpt lat="48.91063" lon="6.04883">
        <ele>179.7</ele>
        <time>2021-07-29T10:36:56Z</time>
      </trkpt>
      <trkpt lat="48.91047" lon="6.04894">
        <ele>179.6</ele>
        <time>2021-07-29T10:36:58Z</time>
      </trkpt>
      <trkpt lat="48.91031" lon="6.04911">
        <ele>179.6</ele>
        <time>2021-07-29T10:37:00Z</time>
      </trkpt>
      <trkpt lat="48.91025" lon="6.04917">
        <ele>179.5</ele>
        <time>2021-07-29T10:37:01Z</time>
      </trkpt>
      <trkpt lat="48.91014" lon="6.04926">
        <ele>179.5</ele>
        <time>2021-07-29T10:37:03Z</time>
      </trkpt>
      <trkpt lat="48.91007" lon="6.04931">
        <ele>179.5</ele>
        <time>2021-07-29T10:37:05Z</time>
      </trkpt>
      <trkpt lat="48.91009" lon="6.04932">
        <ele>179.5</ele>
        <time>2021-07-29T10:37:06Z</time>
      </trkpt>
      <trkpt lat="48.91007" lon="6.04935">
        <ele>179.5</ele>
        <time>2021-07-29T10:37:07Z</time>
      </trkpt>
      <trkpt lat="48.91007" lon="6.04937">
        <ele>179.5</ele>
        <time>2021-07-29T10:37:08Z</time>
      </trkpt>
      <trkpt lat="48.91006" lon="6.04941">
        <ele>179.5</ele>
        <time>2021-07-29T10:37:09Z</time>
      </trkpt>
      <trkpt lat="48.91004" lon="6.04944">
        <ele>179.5</ele>
        <time>2021-07-29T10:37:10Z</time>
      </trkpt>
      <trkpt lat="48.91004" lon="6.04945">
        <ele>179.5</ele>
        <time>2021-07-29T10:37:11Z</time>
      </trkpt>
      <trkpt lat="48.91003" lon="6.04949">
        <ele>179.5</ele>
        <time>2021-07-29T10:37:12Z</time>
      </trkpt>
      <trkpt lat="48.91" lon="6.04954">
        <ele>179.5</ele>
        <time>2021-07-29T10:37:14Z</time>
      </trkpt>
      <trkpt lat="48.90998" lon="6.04956">
        <ele>179.5</ele>
        <time>2021-07-29T10:37:15Z</time>
      </trkpt>
      <trkpt lat="48.90995" lon="6.04961">
        <ele>179.5</ele>
        <time>2021-07-29T10:37:16Z</time>
      </trkpt>
      <trkpt lat="48.90991" lon="6.04966">
        <ele>179.5</ele>
        <time>2021-07-29T10:37:17Z</time>
      </trkpt>
      <trkpt lat="48.90987" lon="6.04973">
        <ele>179.5</ele>
        <time>2021-07-29T10:37:18Z</time>
      </trkpt>
      <trkpt lat="48.90984" lon="6.04978">
        <ele>179.5</ele>
        <time>2021-07-29T10:37:19Z</time>
      </trkpt>
      <trkpt lat="48.9098" lon="6.04982">
        <ele>179.4</ele>
        <time>2021-07-29T10:37:20Z</time>
      </trkpt>
      <trkpt lat="48.90977" lon="6.04984">
        <ele>179.4</ele>
        <time>2021-07-29T10:37:21Z</time>
      </trkpt>
      <trkpt lat="48.90974" lon="6.04986">
        <ele>179.4</ele>
        <time>2021-07-29T10:37:22Z</time>
      </trkpt>
      <trkpt lat="48.9097" lon="6.04988">
        <ele>179.4</ele>
        <time>2021-07-29T10:37:23Z</time>
      </trkpt>
      <trkpt lat="48.90967" lon="6.0499">
        <ele>179.4</ele>
        <time>2021-07-29T10:37:24Z</time>
      </trkpt>
      <trkpt lat="48.90964" lon="6.04993">
        <ele>179.4</ele>
        <time>2021-07-29T10:37:25Z</time>
      </trkpt>
      <trkpt lat="48.9096" lon="6.04997">
        <ele>179.4</ele>
        <time>2021-07-29T10:37:26Z</time>
      </trkpt>
      <trkpt lat="48.90956" lon="6.05001">
        <ele>179.4</ele>
        <time>2021-07-29T10:37:27Z</time>
      </trkpt>
      <trkpt lat="48.90946" lon="6.05016">
        <ele>179.4</ele>
        <time>2021-07-29T10:37:29Z</time>
      </trkpt>
      <trkpt lat="48.90942" lon="6.05021">
        <ele>179.4</ele>
        <time>2021-07-29T10:37:30Z</time>
      </trkpt>
      <trkpt lat="48.90938" lon="6.05024">
        <ele>179.4</ele>
        <time>2021-07-29T10:37:31Z</time>
      </trkpt>
      <trkpt lat="48.90934" lon="6.05032">
        <ele>179.4</ele>
        <time>2021-07-29T10:37:33Z</time>
      </trkpt>
      <trkpt lat="48.90931" lon="6.05037">
        <ele>179.5</ele>
        <time>2021-07-29T10:37:34Z</time>
      </trkpt>
      <trkpt lat="48.90926" lon="6.05044">
        <ele>179.5</ele>
        <time>2021-07-29T10:37:35Z</time>
      </trkpt>
      <trkpt lat="48.90919" lon="6.05051">
        <ele>179.5</ele>
        <time>2021-07-29T10:37:37Z</time>
      </trkpt>
      <trkpt lat="48.90908" lon="6.05064">
        <ele>179.7</ele>
        <time>2021-07-29T10:37:38Z</time>
      </trkpt>
      <trkpt lat="48.90903" lon="6.05068">
        <ele>179.8</ele>
        <time>2021-07-29T10:37:39Z</time>
      </trkpt>
      <trkpt lat="48.90899" lon="6.05072">
        <ele>179.9</ele>
        <time>2021-07-29T10:37:40Z</time>
      </trkpt>
      <trkpt lat="48.90894" lon="6.05077">
        <ele>180</ele>
        <time>2021-07-29T10:37:42Z</time>
      </trkpt>
      <trkpt lat="48.9089" lon="6.05081">
        <ele>180.2</ele>
        <time>2021-07-29T10:37:43Z</time>
      </trkpt>
      <trkpt lat="48.90886" lon="6.05085">
        <ele>180.3</ele>
        <time>2021-07-29T10:37:44Z</time>
      </trkpt>
      <trkpt lat="48.90882" lon="6.05088">
        <ele>180.4</ele>
        <time>2021-07-29T10:37:45Z</time>
      </trkpt>
      <trkpt lat="48.90878" lon="6.0509">
        <ele>180.4</ele>
        <time>2021-07-29T10:37:46Z</time>
      </trkpt>
      <trkpt lat="48.90876" lon="6.05092">
        <ele>180.4</ele>
        <time>2021-07-29T10:37:48Z</time>
      </trkpt>
      <trkpt lat="48.90874" lon="6.05093">
        <ele>180.3</ele>
        <time>2021-07-29T10:37:49Z</time>
      </trkpt>
      <trkpt lat="48.90874" lon="6.05094">
        <ele>180.3</ele>
        <time>2021-07-29T10:37:50Z</time>
      </trkpt>
      <trkpt lat="48.9087" lon="6.05094">
        <ele>180.3</ele>
        <time>2021-07-29T10:37:52Z</time>
      </trkpt>
      <trkpt lat="48.90867" lon="6.05093">
        <ele>180.3</ele>
        <time>2021-07-29T10:37:53Z</time>
      </trkpt>
      <trkpt lat="48.90866" lon="6.05092">
        <ele>180.2</ele>
        <time>2021-07-29T10:37:54Z</time>
      </trkpt>
      <trkpt lat="48.90863" lon="6.05089">
        <ele>180</ele>
        <time>2021-07-29T10:37:56Z</time>
      </trkpt>
      <trkpt lat="48.90861" lon="6.05087">
        <ele>179.9</ele>
        <time>2021-07-29T10:37:57Z</time>
      </trkpt>
      <trkpt lat="48.90856" lon="6.05086">
        <ele>179.7</ele>
        <time>2021-07-29T10:37:59Z</time>
      </trkpt>
      <trkpt lat="48.90853" lon="6.05088">
        <ele>179.6</ele>
        <time>2021-07-29T10:38:00Z</time>
      </trkpt>
      <trkpt lat="48.9084" lon="6.05099">
        <ele>179.1</ele>
        <time>2021-07-29T10:38:02Z</time>
      </trkpt>
      <trkpt lat="48.9083" lon="6.05109">
        <ele>178.9</ele>
        <time>2021-07-29T10:38:04Z</time>
      </trkpt>
      <trkpt lat="48.90826" lon="6.05114">
        <ele>178.8</ele>
        <time>2021-07-29T10:38:05Z</time>
      </trkpt>
      <trkpt lat="48.90821" lon="6.0512">
        <ele>178.6</ele>
        <time>2021-07-29T10:38:06Z</time>
      </trkpt>
      <trkpt lat="48.90817" lon="6.05126">
        <ele>178.5</ele>
        <time>2021-07-29T10:38:07Z</time>
      </trkpt>
      <trkpt lat="48.90814" lon="6.05131">
        <ele>178.5</ele>
        <time>2021-07-29T10:38:08Z</time>
      </trkpt>
      <trkpt lat="48.90807" lon="6.05142">
        <ele>178.4</ele>
        <time>2021-07-29T10:38:10Z</time>
      </trkpt>
      <trkpt lat="48.90803" lon="6.05147">
        <ele>178.3</ele>
        <time>2021-07-29T10:38:11Z</time>
      </trkpt>
      <trkpt lat="48.90797" lon="6.05159">
        <ele>178.3</ele>
        <time>2021-07-29T10:38:13Z</time>
      </trkpt>
      <trkpt lat="48.90793" lon="6.05164">
        <ele>178.3</ele>
        <time>2021-07-29T10:38:14Z</time>
      </trkpt>
      <trkpt lat="48.90787" lon="6.05174">
        <ele>178.2</ele>
        <time>2021-07-29T10:38:16Z</time>
      </trkpt>
      <trkpt lat="48.90779" lon="6.05183">
        <ele>178.2</ele>
        <time>2021-07-29T10:38:18Z</time>
      </trkpt>
      <trkpt lat="48.90775" lon="6.05189">
        <ele>178.2</ele>
        <time>2021-07-29T10:38:19Z</time>
      </trkpt>
      <trkpt lat="48.90769" lon="6.05196">
        <ele>178.2</ele>
        <time>2021-07-29T10:38:20Z</time>
      </trkpt>
      <trkpt lat="48.90759" lon="6.05207">
        <ele>178.2</ele>
        <time>2021-07-29T10:38:22Z</time>
      </trkpt>
      <trkpt lat="48.90754" lon="6.05212">
        <ele>178.2</ele>
        <time>2021-07-29T10:38:23Z</time>
      </trkpt>
      <trkpt lat="48.90749" lon="6.05217">
        <ele>178.2</ele>
        <time>2021-07-29T10:38:24Z</time>
      </trkpt>
      <trkpt lat="48.90744" lon="6.05222">
        <ele>178.2</ele>
        <time>2021-07-29T10:38:25Z</time>
      </trkpt>
      <trkpt lat="48.90739" lon="6.05227">
        <ele>178.2</ele>
        <time>2021-07-29T10:38:26Z</time>
      </trkpt>
      <trkpt lat="48.90731" lon="6.05235">
        <ele>178.1</ele>
        <time>2021-07-29T10:38:28Z</time>
      </trkpt>
      <trkpt lat="48.90727" lon="6.05239">
        <ele>178.1</ele>
        <time>2021-07-29T10:38:29Z</time>
      </trkpt>
      <trkpt lat="48.90723" lon="6.05244">
        <ele>178.1</ele>
        <time>2021-07-29T10:38:30Z</time>
      </trkpt>
      <trkpt lat="48.90716" lon="6.05254">
        <ele>178.1</ele>
        <time>2021-07-29T10:38:32Z</time>
      </trkpt>
      <trkpt lat="48.90712" lon="6.05259">
        <ele>178.1</ele>
        <time>2021-07-29T10:38:33Z</time>
      </trkpt>
      <trkpt lat="48.90706" lon="6.05267">
        <ele>178.1</ele>
        <time>2021-07-29T10:38:35Z</time>
      </trkpt>
      <trkpt lat="48.907" lon="6.05273">
        <ele>178.1</ele>
        <time>2021-07-29T10:38:37Z</time>
      </trkpt>
      <trkpt lat="48.90698" lon="6.05278">
        <ele>178.1</ele>
        <time>2021-07-29T10:38:38Z</time>
      </trkpt>
      <trkpt lat="48.90693" lon="6.05285">
        <ele>178.1</ele>
        <time>2021-07-29T10:38:40Z</time>
      </trkpt>
      <trkpt lat="48.9069" lon="6.05289">
        <ele>178.1</ele>
        <time>2021-07-29T10:38:41Z</time>
      </trkpt>
      <trkpt lat="48.90688" lon="6.05292">
        <ele>178.2</ele>
        <time>2021-07-29T10:38:42Z</time>
      </trkpt>
      <trkpt lat="48.90681" lon="6.05306">
        <ele>178.2</ele>
        <time>2021-07-29T10:38:44Z</time>
      </trkpt>
      <trkpt lat="48.90675" lon="6.05308">
        <ele>178.2</ele>
        <time>2021-07-29T10:38:45Z</time>
      </trkpt>
      <trkpt lat="48.9067" lon="6.05312">
        <ele>178.2</ele>
        <time>2021-07-29T10:38:46Z</time>
      </trkpt>
      <trkpt lat="48.90665" lon="6.05317">
        <ele>178.2</ele>
        <time>2021-07-29T10:38:48Z</time>
      </trkpt>
      <trkpt lat="48.9066" lon="6.0532">
        <ele>178.2</ele>
        <time>2021-07-29T10:38:49Z</time>
      </trkpt>
      <trkpt lat="48.90657" lon="6.05321">
        <ele>178.2</ele>
        <time>2021-07-29T10:38:50Z</time>
      </trkpt>
      <trkpt lat="48.9065" lon="6.05324">
        <ele>178.2</ele>
        <time>2021-07-29T10:38:52Z</time>
      </trkpt>
      <trkpt lat="48.90645" lon="6.05326">
        <ele>178.2</ele>
        <time>2021-07-29T10:38:54Z</time>
      </trkpt>
      <trkpt lat="48.9064" lon="6.05331">
        <ele>178.2</ele>
        <time>2021-07-29T10:38:56Z</time>
      </trkpt>
      <trkpt lat="48.90637" lon="6.05335">
        <ele>178.3</ele>
        <time>2021-07-29T10:38:57Z</time>
      </trkpt>
      <trkpt lat="48.90633" lon="6.05339">
        <ele>178.3</ele>
        <time>2021-07-29T10:38:59Z</time>
      </trkpt>
      <trkpt lat="48.9063" lon="6.05343">
        <ele>178.3</ele>
        <time>2021-07-29T10:39:52Z</time>
      </trkpt>
      <trkpt lat="48.90626" lon="6.05347">
        <ele>178.3</ele>
        <time>2021-07-29T10:39:53Z</time>
      </trkpt>
      <trkpt lat="48.90621" lon="6.05356">
        <ele>178.3</ele>
        <time>2021-07-29T10:39:54Z</time>
      </trkpt>
      <trkpt lat="48.90617" lon="6.05364">
        <ele>178.3</ele>
        <time>2021-07-29T10:39:55Z</time>
      </trkpt>
      <trkpt lat="48.90612" lon="6.0537">
        <ele>178.3</ele>
        <time>2021-07-29T10:39:56Z</time>
      </trkpt>
      <trkpt lat="48.90604" lon="6.05382">
        <ele>178.2</ele>
        <time>2021-07-29T10:39:58Z</time>
      </trkpt>
      <trkpt lat="48.90599" lon="6.05388">
        <ele>178.2</ele>
        <time>2021-07-29T10:39:59Z</time>
      </trkpt>
      <trkpt lat="48.90592" lon="6.05401">
        <ele>178.2</ele>
        <time>2021-07-29T10:40:01Z</time>
      </trkpt>
      <trkpt lat="48.90585" lon="6.05415">
        <ele>178.2</ele>
        <time>2021-07-29T10:40:03Z</time>
      </trkpt>
      <trkpt lat="48.90578" lon="6.05431">
        <ele>178.2</ele>
        <time>2021-07-29T10:40:05Z</time>
      </trkpt>
      <trkpt lat="48.90571" lon="6.05447">
        <ele>178.2</ele>
        <time>2021-07-29T10:40:07Z</time>
      </trkpt>
      <trkpt lat="48.90567" lon="6.05453">
        <ele>178.2</ele>
        <time>2021-07-29T10:40:08Z</time>
      </trkpt>
      <trkpt lat="48.90562" lon="6.05459">
        <ele>178.2</ele>
        <time>2021-07-29T10:40:09Z</time>
      </trkpt>
      <trkpt lat="48.90553" lon="6.05468">
        <ele>178.2</ele>
        <time>2021-07-29T10:40:11Z</time>
      </trkpt>
      <trkpt lat="48.90548" lon="6.05472">
        <ele>178.2</ele>
        <time>2021-07-29T10:40:12Z</time>
      </trkpt>
      <trkpt lat="48.9054" lon="6.0548">
        <ele>178.3</ele>
        <time>2021-07-29T10:40:14Z</time>
      </trkpt>
      <trkpt lat="48.90532" lon="6.05493">
        <ele>178.3</ele>
        <time>2021-07-29T10:40:16Z</time>
      </trkpt>
      <trkpt lat="48.90526" lon="6.05498">
        <ele>178.3</ele>
        <time>2021-07-29T10:40:17Z</time>
      </trkpt>
      <trkpt lat="48.90521" lon="6.05501">
        <ele>178.3</ele>
        <time>2021-07-29T10:40:18Z</time>
      </trkpt>
      <trkpt lat="48.90511" lon="6.05504">
        <ele>178.3</ele>
        <time>2021-07-29T10:40:20Z</time>
      </trkpt>
      <trkpt lat="48.90504" lon="6.05508">
        <ele>178.4</ele>
        <time>2021-07-29T10:40:22Z</time>
      </trkpt>
      <trkpt lat="48.905" lon="6.05513">
        <ele>178.4</ele>
        <time>2021-07-29T10:40:23Z</time>
      </trkpt>
      <trkpt lat="48.90496" lon="6.05519">
        <ele>178.4</ele>
        <time>2021-07-29T10:40:24Z</time>
      </trkpt>
      <trkpt lat="48.9049" lon="6.05527">
        <ele>178.5</ele>
        <time>2021-07-29T10:40:26Z</time>
      </trkpt>
      <trkpt lat="48.90481" lon="6.05536">
        <ele>178.6</ele>
        <time>2021-07-29T10:40:28Z</time>
      </trkpt>
      <trkpt lat="48.90475" lon="6.05541">
        <ele>178.7</ele>
        <time>2021-07-29T10:40:29Z</time>
      </trkpt>
      <trkpt lat="48.90466" lon="6.05545">
        <ele>178.8</ele>
        <time>2021-07-29T10:40:31Z</time>
      </trkpt>
      <trkpt lat="48.90462" lon="6.05548">
        <ele>178.8</ele>
        <time>2021-07-29T10:40:32Z</time>
      </trkpt>
      <trkpt lat="48.90461" lon="6.05552">
        <ele>178.8</ele>
        <time>2021-07-29T10:40:33Z</time>
      </trkpt>
      <trkpt lat="48.90455" lon="6.05558">
        <ele>178.9</ele>
        <time>2021-07-29T10:40:35Z</time>
      </trkpt>
      <trkpt lat="48.90451" lon="6.05561">
        <ele>178.9</ele>
        <time>2021-07-29T10:40:36Z</time>
      </trkpt>
      <trkpt lat="48.90446" lon="6.05564">
        <ele>178.9</ele>
        <time>2021-07-29T10:40:37Z</time>
      </trkpt>
      <trkpt lat="48.90442" lon="6.05567">
        <ele>178.9</ele>
        <time>2021-07-29T10:40:38Z</time>
      </trkpt>
      <trkpt lat="48.90439" lon="6.05571">
        <ele>178.9</ele>
        <time>2021-07-29T10:40:39Z</time>
      </trkpt>
      <trkpt lat="48.90435" lon="6.05575">
        <ele>178.9</ele>
        <time>2021-07-29T10:40:41Z</time>
      </trkpt>
      <trkpt lat="48.90432" lon="6.0558">
        <ele>179</ele>
        <time>2021-07-29T10:40:42Z</time>
      </trkpt>
      <trkpt lat="48.90429" lon="6.05582">
        <ele>179</ele>
        <time>2021-07-29T10:40:43Z</time>
      </trkpt>
      <trkpt lat="48.90425" lon="6.05586">
        <ele>179</ele>
        <time>2021-07-29T10:40:45Z</time>
      </trkpt>
      <trkpt lat="48.90422" lon="6.05587">
        <ele>179</ele>
        <time>2021-07-29T10:40:47Z</time>
      </trkpt>
      <trkpt lat="48.9042" lon="6.05588">
        <ele>179</ele>
        <time>2021-07-29T10:40:49Z</time>
      </trkpt>
      <trkpt lat="48.90417" lon="6.0559">
        <ele>179</ele>
        <time>2021-07-29T10:40:51Z</time>
      </trkpt>
      <trkpt lat="48.90415" lon="6.05591">
        <ele>179</ele>
        <time>2021-07-29T10:40:53Z</time>
      </trkpt>
      <trkpt lat="48.90413" lon="6.05592">
        <ele>179</ele>
        <time>2021-07-29T10:40:54Z</time>
      </trkpt>
      <trkpt lat="48.9041" lon="6.05593">
        <ele>179</ele>
        <time>2021-07-29T10:40:56Z</time>
      </trkpt>
      <trkpt lat="48.90408" lon="6.05594">
        <ele>179</ele>
        <time>2021-07-29T10:42:49Z</time>
      </trkpt>
      <trkpt lat="48.90406" lon="6.05596">
        <ele>179</ele>
        <time>2021-07-29T10:42:50Z</time>
      </trkpt>
      <trkpt lat="48.90401" lon="6.05601">
        <ele>179.1</ele>
        <time>2021-07-29T10:42:52Z</time>
      </trkpt>
      <trkpt lat="48.90398" lon="6.05606">
        <ele>179.1</ele>
        <time>2021-07-29T10:42:53Z</time>
      </trkpt>
      <trkpt lat="48.90394" lon="6.0561">
        <ele>179.1</ele>
        <time>2021-07-29T10:42:54Z</time>
      </trkpt>
      <trkpt lat="48.90391" lon="6.05615">
        <ele>179.2</ele>
        <time>2021-07-29T10:42:55Z</time>
      </trkpt>
      <trkpt lat="48.90387" lon="6.05619">
        <ele>179.2</ele>
        <time>2021-07-29T10:42:56Z</time>
      </trkpt>
      <trkpt lat="48.90381" lon="6.05626">
        <ele>179.2</ele>
        <time>2021-07-29T10:42:58Z</time>
      </trkpt>
      <trkpt lat="48.90377" lon="6.05635">
        <ele>179.2</ele>
        <time>2021-07-29T10:43:00Z</time>
      </trkpt>
      <trkpt lat="48.90375" lon="6.0564">
        <ele>179.2</ele>
        <time>2021-07-29T10:43:01Z</time>
      </trkpt>
      <trkpt lat="48.90374" lon="6.05644">
        <ele>179.2</ele>
        <time>2021-07-29T10:43:02Z</time>
      </trkpt>
      <trkpt lat="48.90372" lon="6.05649">
        <ele>179.2</ele>
        <time>2021-07-29T10:43:03Z</time>
      </trkpt>
      <trkpt lat="48.9037" lon="6.05657">
        <ele>179.2</ele>
        <time>2021-07-29T10:43:05Z</time>
      </trkpt>
      <trkpt lat="48.90369" lon="6.05659">
        <ele>179.2</ele>
        <time>2021-07-29T10:43:06Z</time>
      </trkpt>
      <trkpt lat="48.90366" lon="6.05662">
        <ele>179.2</ele>
        <time>2021-07-29T10:43:08Z</time>
      </trkpt>
      <trkpt lat="48.9036" lon="6.05666">
        <ele>179.2</ele>
        <time>2021-07-29T10:43:10Z</time>
      </trkpt>
      <trkpt lat="48.90356" lon="6.05671">
        <ele>179.2</ele>
        <time>2021-07-29T10:43:12Z</time>
      </trkpt>
      <trkpt lat="48.90355" lon="6.05675">
        <ele>179.2</ele>
        <time>2021-07-29T10:43:13Z</time>
      </trkpt>
      <trkpt lat="48.90355" lon="6.05678">
        <ele>179.1</ele>
        <time>2021-07-29T10:43:15Z</time>
      </trkpt>
      <trkpt lat="48.90356" lon="6.0568">
        <ele>179.1</ele>
        <time>2021-07-29T10:43:16Z</time>
      </trkpt>
      <trkpt lat="48.90356" lon="6.0568">
        <ele>179.1</ele>
        <time>2021-07-29T10:43:18Z</time>
      </trkpt>
      <trkpt lat="48.90356" lon="6.05681">
        <ele>179.1</ele>
        <time>2021-07-29T10:43:19Z</time>
      </trkpt>
      <trkpt lat="48.90355" lon="6.05681">
        <ele>179.1</ele>
        <time>2021-07-29T10:43:20Z</time>
      </trkpt>
      <trkpt lat="48.90355" lon="6.05681">
        <ele>179.1</ele>
        <time>2021-07-29T10:43:22Z</time>
      </trkpt>
      <trkpt lat="48.90363" lon="6.05663">
        <ele>179</ele>
        <time>2021-07-29T10:43:53Z</time>
      </trkpt>
      <trkpt lat="48.90357" lon="6.05643">
        <ele>178.9</ele>
        <time>2021-07-29T10:43:55Z</time>
      </trkpt>
      <trkpt lat="48.90355" lon="6.05637">
        <ele>179</ele>
        <time>2021-07-29T10:43:56Z</time>
      </trkpt>
      <trkpt lat="48.90353" lon="6.0563">
        <ele>179.2</ele>
        <time>2021-07-29T10:43:58Z</time>
      </trkpt>
      <trkpt lat="48.90353" lon="6.05628">
        <ele>179.3</ele>
        <time>2021-07-29T10:43:59Z</time>
      </trkpt>
      <trkpt lat="48.90352" lon="6.05628">
        <ele>179.3</ele>
        <time>2021-07-29T10:44:00Z</time>
      </trkpt>
      <trkpt lat="48.90351" lon="6.05627">
        <ele>179.3</ele>
        <time>2021-07-29T10:44:01Z</time>
      </trkpt>
      <trkpt lat="48.90349" lon="6.05624">
        <ele>179.4</ele>
        <time>2021-07-29T10:44:03Z</time>
      </trkpt>
      <trkpt lat="48.90347" lon="6.05621">
        <ele>179.5</ele>
        <time>2021-07-29T10:44:05Z</time>
      </trkpt>
      <trkpt lat="48.90345" lon="6.0562">
        <ele>179.5</ele>
        <time>2021-07-29T10:44:06Z</time>
      </trkpt>
      <trkpt lat="48.90343" lon="6.05619">
        <ele>179.6</ele>
        <time>2021-07-29T10:44:08Z</time>
      </trkpt>
      <trkpt lat="48.9034" lon="6.05615">
        <ele>179.7</ele>
        <time>2021-07-29T10:44:10Z</time>
      </trkpt>
      <trkpt lat="48.90336" lon="6.05612">
        <ele>179.8</ele>
        <time>2021-07-29T10:44:12Z</time>
      </trkpt>
      <trkpt lat="48.90334" lon="6.05608">
        <ele>179.9</ele>
        <time>2021-07-29T10:44:13Z</time>
      </trkpt>
      <trkpt lat="48.90331" lon="6.05604">
        <ele>180</ele>
        <time>2021-07-29T10:44:15Z</time>
      </trkpt>
      <trkpt lat="48.90329" lon="6.05597">
        <ele>180.1</ele>
        <time>2021-07-29T10:44:17Z</time>
      </trkpt>
      <trkpt lat="48.90328" lon="6.05592">
        <ele>180.1</ele>
        <time>2021-07-29T10:44:18Z</time>
      </trkpt>
      <trkpt lat="48.90328" lon="6.05587">
        <ele>180.1</ele>
        <time>2021-07-29T10:44:19Z</time>
      </trkpt>
      <trkpt lat="48.90328" lon="6.05582">
        <ele>180</ele>
        <time>2021-07-29T10:44:20Z</time>
      </trkpt>
      <trkpt lat="48.90329" lon="6.05576">
        <ele>180</ele>
        <time>2021-07-29T10:44:22Z</time>
      </trkpt>
      <trkpt lat="48.90332" lon="6.05569">
        <ele>179.9</ele>
        <time>2021-07-29T10:44:24Z</time>
      </trkpt>
      <trkpt lat="48.90334" lon="6.05563">
        <ele>179.9</ele>
        <time>2021-07-29T10:44:26Z</time>
      </trkpt>
      <trkpt lat="48.90335" lon="6.05558">
        <ele>179.8</ele>
        <time>2021-07-29T10:44:27Z</time>
      </trkpt>
      <trkpt lat="48.90334" lon="6.05555">
        <ele>179.8</ele>
        <time>2021-07-29T10:44:29Z</time>
      </trkpt>
      <trkpt lat="48.90334" lon="6.05555">
        <ele>179.8</ele>
        <time>2021-07-29T10:44:30Z</time>
      </trkpt>
      <trkpt lat="48.90334" lon="6.05556">
        <ele>179.8</ele>
        <time>2021-07-29T10:44:31Z</time>
      </trkpt>
      <trkpt lat="48.90335" lon="6.05556">
        <ele>179.8</ele>
        <time>2021-07-29T10:44:32Z</time>
      </trkpt>
      <trkpt lat="48.90335" lon="6.05557">
        <ele>179.8</ele>
        <time>2021-07-29T10:44:34Z</time>
      </trkpt>
      <trkpt lat="48.90335" lon="6.05558">
        <ele>179.8</ele>
        <time>2021-07-29T10:44:36Z</time>
      </trkpt>
      <trkpt lat="48.90335" lon="6.05558">
        <ele>179.8</ele>
        <time>2021-07-29T10:44:37Z</time>
      </trkpt>
      <trkpt lat="48.90335" lon="6.05559">
        <ele>179.8</ele>
        <time>2021-07-29T10:45:32Z</time>
      </trkpt>
      <trkpt lat="48.90335" lon="6.05559">
        <ele>179.8</ele>
        <time>2021-07-29T10:45:38Z</time>
      </trkpt>
      <trkpt lat="48.90335" lon="6.0556">
        <ele>179.8</ele>
        <time>2021-07-29T10:45:45Z</time>
      </trkpt>
      <trkpt lat="48.90335" lon="6.0556">
        <ele>179.8</ele>
        <time>2021-07-29T10:45:51Z</time>
      </trkpt>
      <trkpt lat="48.90335" lon="6.05561">
        <ele>179.8</ele>
        <time>2021-07-29T10:45:58Z</time>
      </trkpt>
      <trkpt lat="48.90335" lon="6.05561">
        <ele>179.9</ele>
        <time>2021-07-29T10:46:04Z</time>
      </trkpt>
      <trkpt lat="48.90335" lon="6.05562">
        <ele>179.9</ele>
        <time>2021-07-29T10:46:11Z</time>
      </trkpt>
      <trkpt lat="48.90335" lon="6.05562">
        <ele>179.9</ele>
        <time>2021-07-29T10:46:17Z</time>
      </trkpt>
      <trkpt lat="48.90335" lon="6.05563">
        <ele>179.9</ele>
        <time>2021-07-29T10:46:30Z</time>
      </trkpt>
      <trkpt lat="48.90335" lon="6.05564">
        <ele>179.9</ele>
        <time>2021-07-29T10:46:37Z</time>
      </trkpt>
      <trkpt lat="48.90335" lon="6.05564">
        <ele>179.9</ele>
        <time>2021-07-29T10:46:43Z</time>
      </trkpt>
      <trkpt lat="48.90335" lon="6.05565">
        <ele>179.9</ele>
        <time>2021-07-29T10:46:50Z</time>
      </trkpt>
      <trkpt lat="48.90335" lon="6.05565">
        <ele>179.9</ele>
        <time>2021-07-29T10:46:56Z</time>
      </trkpt>
      <trkpt lat="48.90335" lon="6.05566">
        <ele>179.9</ele>
        <time>2021-07-29T10:47:03Z</time>
      </trkpt>
      <trkpt lat="48.90335" lon="6.05566">
        <ele>179.9</ele>
        <time>2021-07-29T10:47:09Z</time>
      </trkpt>
      <trkpt lat="48.90335" lon="6.05567">
        <ele>179.9</ele>
        <time>2021-07-29T10:47:16Z</time>
      </trkpt>
      <trkpt lat="48.90335" lon="6.05567">
        <ele>179.9</ele>
        <time>2021-07-29T10:47:22Z</time>
      </trkpt>
      <trkpt lat="48.90335" lon="6.05568">
        <ele>179.9</ele>
        <time>2021-07-29T10:47:29Z</time>
      </trkpt>
      <trkpt lat="48.90335" lon="6.05568">
        <ele>179.9</ele>
        <time>2021-07-29T10:47:35Z</time>
      </trkpt>
      <trkpt lat="48.90335" lon="6.05569">
        <ele>179.9</ele>
        <time>2021-07-29T10:47:48Z</time>
      </trkpt>
      <trkpt lat="48.90335" lon="6.0557">
        <ele>179.9</ele>
        <time>2021-07-29T10:47:54Z</time>
      </trkpt>
      <trkpt lat="48.90335" lon="6.0557">
        <ele>179.8</ele>
        <time>2021-07-29T10:48:01Z</time>
      </trkpt>
      <trkpt lat="48.90335" lon="6.05571">
        <ele>179.8</ele>
        <time>2021-07-29T10:48:07Z</time>
      </trkpt>
      <trkpt lat="48.90335" lon="6.05571">
        <ele>179.9</ele>
        <time>2021-07-29T10:48:14Z</time>
      </trkpt>
      <trkpt lat="48.90335" lon="6.05572">
        <ele>179.9</ele>
        <time>2021-07-29T10:48:20Z</time>
      </trkpt>
      <trkpt lat="48.90335" lon="6.05572">
        <ele>179.9</ele>
        <time>2021-07-29T10:48:27Z</time>
      </trkpt>
      <trkpt lat="48.90335" lon="6.05573">
        <ele>179.9</ele>
        <time>2021-07-29T10:48:33Z</time>
      </trkpt>
      <trkpt lat="48.90335" lon="6.05573">
        <ele>179.9</ele>
        <time>2021-07-29T10:48:40Z</time>
      </trkpt>
      <trkpt lat="48.90335" lon="6.05574">
        <ele>179.9</ele>
        <time>2021-07-29T10:48:46Z</time>
      </trkpt>
      <trkpt lat="48.90335" lon="6.05575">
        <ele>179.9</ele>
        <time>2021-07-29T10:48:53Z</time>
      </trkpt>
      <trkpt lat="48.90335" lon="6.05575">
        <ele>179.9</ele>
        <time>2021-07-29T10:48:59Z</time>
      </trkpt>
      <trkpt lat="48.90335" lon="6.05576">
        <ele>179.9</ele>
        <time>2021-07-29T10:49:06Z</time>
      </trkpt>
      <trkpt lat="48.90335" lon="6.05576">
        <ele>180</ele>
        <time>2021-07-29T10:49:12Z</time>
      </trkpt>
      <trkpt lat="48.90335" lon="6.05577">
        <ele>180</ele>
        <time>2021-07-29T10:49:19Z</time>
      </trkpt>
      <trkpt lat="48.90335" lon="6.05577">
        <ele>180</ele>
        <time>2021-07-29T10:49:38Z</time>
      </trkpt>
      <trkpt lat="48.90335" lon="6.05578">
        <ele>180</ele>
        <time>2021-07-29T10:49:45Z</time>
      </trkpt>
      <trkpt lat="48.90335" lon="6.05578">
        <ele>180</ele>
        <time>2021-07-29T10:49:51Z</time>
      </trkpt>
      <trkpt lat="48.90335" lon="6.05579">
        <ele>180</ele>
        <time>2021-07-29T10:49:58Z</time>
      </trkpt>
      <trkpt lat="48.90335" lon="6.05579">
        <ele>180</ele>
        <time>2021-07-29T10:50:04Z</time>
      </trkpt>
      <trkpt lat="48.90335" lon="6.0558">
        <ele>180</ele>
        <time>2021-07-29T10:50:10Z</time>
      </trkpt>
      <trkpt lat="48.90335" lon="6.05581">
        <ele>180</ele>
        <time>2021-07-29T10:50:17Z</time>
      </trkpt>
      <trkpt lat="48.90335" lon="6.05581">
        <ele>180.1</ele>
        <time>2021-07-29T10:50:23Z</time>
      </trkpt>
      <trkpt lat="48.90335" lon="6.05582">
        <ele>180.1</ele>
        <time>2021-07-29T10:50:30Z</time>
      </trkpt>
      <trkpt lat="48.90335" lon="6.05582">
        <ele>180.1</ele>
        <time>2021-07-29T10:50:36Z</time>
      </trkpt>
      <trkpt lat="48.90335" lon="6.05583">
        <ele>180.1</ele>
        <time>2021-07-29T10:50:43Z</time>
      </trkpt>
      <trkpt lat="48.90335" lon="6.05583">
        <ele>180.1</ele>
        <time>2021-07-29T10:50:49Z</time>
      </trkpt>
      <trkpt lat="48.90335" lon="6.05584">
        <ele>180.1</ele>
        <time>2021-07-29T10:50:56Z</time>
      </trkpt>
      <trkpt lat="48.90335" lon="6.05584">
        <ele>180.1</ele>
        <time>2021-07-29T10:53:57Z</time>
      </trkpt>
      <trkpt lat="48.90335" lon="6.05585">
        <ele>180.1</ele>
        <time>2021-07-29T10:54:01Z</time>
      </trkpt>
      <trkpt lat="48.90335" lon="6.05585">
        <ele>180.1</ele>
        <time>2021-07-29T10:54:02Z</time>
      </trkpt>
      <trkpt lat="48.90335" lon="6.05586">
        <ele>180.2</ele>
        <time>2021-07-29T10:54:04Z</time>
      </trkpt>
      <trkpt lat="48.90335" lon="6.05587">
        <ele>180.2</ele>
        <time>2021-07-29T10:54:05Z</time>
      </trkpt>
      <trkpt lat="48.90335" lon="6.05587">
        <ele>180.2</ele>
        <time>2021-07-29T10:54:09Z</time>
      </trkpt>
      <trkpt lat="48.90335" lon="6.05588">
        <ele>180.2</ele>
        <time>2021-07-29T10:54:10Z</time>
      </trkpt>
      <trkpt lat="48.90335" lon="6.05588">
        <ele>180.2</ele>
        <time>2021-07-29T10:54:12Z</time>
      </trkpt>
      <trkpt lat="48.90335" lon="6.05589">
        <ele>180.2</ele>
        <time>2021-07-29T10:55:35Z</time>
      </trkpt>
      <trkpt lat="48.90335" lon="6.05589">
        <ele>180.2</ele>
        <time>2021-07-29T10:55:42Z</time>
      </trkpt>
      <trkpt lat="48.90335" lon="6.0559">
        <ele>180.2</ele>
        <time>2021-07-29T10:55:49Z</time>
      </trkpt>
      <trkpt lat="48.90335" lon="6.0559">
        <ele>180.2</ele>
        <time>2021-07-29T10:55:55Z</time>
      </trkpt>
      <trkpt lat="48.90335" lon="6.05591">
        <ele>180.3</ele>
        <time>2021-07-29T10:56:01Z</time>
      </trkpt>
      <trkpt lat="48.90336" lon="6.05592">
        <ele>180.3</ele>
        <time>2021-07-29T10:56:08Z</time>
      </trkpt>
      <trkpt lat="48.90336" lon="6.05592">
        <ele>180.3</ele>
        <time>2021-07-29T10:56:14Z</time>
      </trkpt>
      <trkpt lat="48.90336" lon="6.05593">
        <ele>180.3</ele>
        <time>2021-07-29T10:56:21Z</time>
      </trkpt>
      <trkpt lat="48.90336" lon="6.05593">
        <ele>180.3</ele>
        <time>2021-07-29T10:56:27Z</time>
      </trkpt>
      <trkpt lat="48.90336" lon="6.05594">
        <ele>180.3</ele>
        <time>2021-07-29T10:56:33Z</time>
      </trkpt>
      <trkpt lat="48.90336" lon="6.05594">
        <ele>180.3</ele>
        <time>2021-07-29T10:56:40Z</time>
      </trkpt>
      <trkpt lat="48.90336" lon="6.05595">
        <ele>180.3</ele>
        <time>2021-07-29T10:56:46Z</time>
      </trkpt>
      <trkpt lat="48.90336" lon="6.05595">
        <ele>180.3</ele>
        <time>2021-07-29T10:56:53Z</time>
      </trkpt>
      <trkpt lat="48.90336" lon="6.05596">
        <ele>180.4</ele>
        <time>2021-07-29T10:56:59Z</time>
      </trkpt>
      <trkpt lat="48.90336" lon="6.05596">
        <ele>180.4</ele>
        <time>2021-07-29T10:56:59Z</time>
      </trkpt>
      <trkpt lat="48.90337" lon="6.05601">
        <ele>180.4</ele>
        <time>2021-07-29T10:57:06Z</time>
      </trkpt>
      <trkpt lat="48.90335" lon="6.056">
        <ele>180.4</ele>
        <time>2021-07-29T10:57:12Z</time>
      </trkpt>
      <trkpt lat="48.90335" lon="6.05598">
        <ele>180.4</ele>
        <time>2021-07-29T10:57:18Z</time>
      </trkpt>
      <trkpt lat="48.90329" lon="6.05598">
        <ele>180.5</ele>
        <time>2021-07-29T10:57:51Z</time>
      </trkpt>
      <trkpt lat="48.90331" lon="6.05595">
        <ele>180.5</ele>
        <time>2021-07-29T10:57:57Z</time>
      </trkpt>
      <trkpt lat="48.90331" lon="6.05593">
        <ele>180.5</ele>
        <time>2021-07-29T10:58:04Z</time>
      </trkpt>
      <trkpt lat="48.90329" lon="6.05592">
        <ele>180.6</ele>
        <time>2021-07-29T10:58:10Z</time>
      </trkpt>
      <trkpt lat="48.9033" lon="6.05592">
        <ele>180.5</ele>
        <time>2021-07-29T10:58:16Z</time>
      </trkpt>
      <trkpt lat="48.9033" lon="6.05594">
        <ele>180.6</ele>
        <time>2021-07-29T10:58:23Z</time>
      </trkpt>
      <trkpt lat="48.90329" lon="6.05592">
        <ele>180.6</ele>
        <time>2021-07-29T10:58:30Z</time>
      </trkpt>
      <trkpt lat="48.90329" lon="6.05593">
        <ele>180.7</ele>
        <time>2021-07-29T10:58:36Z</time>
      </trkpt>
      <trkpt lat="48.90329" lon="6.05592">
        <ele>180.7</ele>
        <time>2021-07-29T10:58:43Z</time>
      </trkpt>
      <trkpt lat="48.9033" lon="6.05593">
        <ele>180.6</ele>
        <time>2021-07-29T10:58:49Z</time>
      </trkpt>
      <trkpt lat="48.90329" lon="6.05593">
        <ele>180.7</ele>
        <time>2021-07-29T10:58:56Z</time>
      </trkpt>
      <trkpt lat="48.90329" lon="6.05593">
        <ele>180.7</ele>
        <time>2021-07-29T10:59:03Z</time>
      </trkpt>
      <trkpt lat="48.90329" lon="6.05592">
        <ele>180.7</ele>
        <time>2021-07-29T10:59:09Z</time>
      </trkpt>
      <trkpt lat="48.90329" lon="6.05593">
        <ele>180.7</ele>
        <time>2021-07-29T10:59:16Z</time>
      </trkpt>
      <trkpt lat="48.90329" lon="6.05592">
        <ele>180.7</ele>
        <time>2021-07-29T10:59:22Z</time>
      </trkpt>
      <trkpt lat="48.9033" lon="6.05593">
        <ele>180.7</ele>
        <time>2021-07-29T10:59:29Z</time>
      </trkpt>
      <trkpt lat="48.9033" lon="6.05593">
        <ele>180.7</ele>
        <time>2021-07-29T10:59:36Z</time>
      </trkpt>
      <trkpt lat="48.90329" lon="6.05592">
        <ele>180.7</ele>
        <time>2021-07-29T10:59:42Z</time>
      </trkpt>
      <trkpt lat="48.90329" lon="6.05591">
        <ele>180.8</ele>
        <time>2021-07-29T10:59:49Z</time>
      </trkpt>
      <trkpt lat="48.90329" lon="6.05592">
        <ele>180.8</ele>
        <time>2021-07-29T10:59:55Z</time>
      </trkpt>
      <trkpt lat="48.90329" lon="6.05592">
        <ele>180.8</ele>
        <time>2021-07-29T11:00:02Z</time>
      </trkpt>
      <trkpt lat="48.90329" lon="6.05593">
        <ele>180.8</ele>
        <time>2021-07-29T11:00:09Z</time>
      </trkpt>
      <trkpt lat="48.90329" lon="6.05592">
        <ele>180.8</ele>
        <time>2021-07-29T11:00:15Z</time>
      </trkpt>
      <trkpt lat="48.90329" lon="6.05591">
        <ele>180.8</ele>
        <time>2021-07-29T11:00:22Z</time>
      </trkpt>
      <trkpt lat="48.9033" lon="6.05593">
        <ele>180.8</ele>
        <time>2021-07-29T11:00:28Z</time>
      </trkpt>
      <trkpt lat="48.9033" lon="6.05593">
        <ele>180.8</ele>
        <time>2021-07-29T11:00:35Z</time>
      </trkpt>
      <trkpt lat="48.90329" lon="6.05593">
        <ele>180.8</ele>
        <time>2021-07-29T11:00:42Z</time>
      </trkpt>
      <trkpt lat="48.9033" lon="6.05594">
        <ele>180.8</ele>
        <time>2021-07-29T11:00:48Z</time>
      </trkpt>
      <trkpt lat="48.90329" lon="6.05593">
        <ele>180.8</ele>
        <time>2021-07-29T11:00:55Z</time>
      </trkpt>
      <trkpt lat="48.90328" lon="6.05591">
        <ele>180.9</ele>
        <time>2021-07-29T11:01:01Z</time>
      </trkpt>
      <trkpt lat="48.90329" lon="6.0559">
        <ele>180.9</ele>
        <time>2021-07-29T11:01:08Z</time>
      </trkpt>
      <trkpt lat="48.90329" lon="6.05594">
        <ele>180.9</ele>
        <time>2021-07-29T11:01:14Z</time>
      </trkpt>
      <trkpt lat="48.90328" lon="6.05592">
        <ele>180.9</ele>
        <time>2021-07-29T11:01:21Z</time>
      </trkpt>
      <trkpt lat="48.90328" lon="6.05592">
        <ele>180.9</ele>
        <time>2021-07-29T11:01:27Z</time>
      </trkpt>
      <trkpt lat="48.90329" lon="6.05594">
        <ele>180.9</ele>
        <time>2021-07-29T11:01:34Z</time>
      </trkpt>
      <trkpt lat="48.90328" lon="6.05593">
        <ele>180.9</ele>
        <time>2021-07-29T11:01:40Z</time>
      </trkpt>
      <trkpt lat="48.90328" lon="6.05592">
        <ele>180.9</ele>
        <time>2021-07-29T11:01:47Z</time>
      </trkpt>
      <trkpt lat="48.90328" lon="6.05591">
        <ele>180.9</ele>
        <time>2021-07-29T11:01:53Z</time>
      </trkpt>
      <trkpt lat="48.90328" lon="6.05591">
        <ele>180.9</ele>
        <time>2021-07-29T11:02:00Z</time>
      </trkpt>
      <trkpt lat="48.90328" lon="6.05592">
        <ele>180.9</ele>
        <time>2021-07-29T11:02:07Z</time>
      </trkpt>
      <trkpt lat="48.90329" lon="6.05593">
        <ele>181</ele>
        <time>2021-07-29T11:02:13Z</time>
      </trkpt>
      <trkpt lat="48.90328" lon="6.05592">
        <ele>181</ele>
        <time>2021-07-29T11:02:20Z</time>
      </trkpt>
      <trkpt lat="48.90329" lon="6.05593">
        <ele>181</ele>
        <time>2021-07-29T11:02:26Z</time>
      </trkpt>
      <trkpt lat="48.90328" lon="6.05592">
        <ele>181</ele>
        <time>2021-07-29T11:02:33Z</time>
      </trkpt>
      <trkpt lat="48.90331" lon="6.05591">
        <ele>181</ele>
        <time>2021-07-29T11:02:39Z</time>
      </trkpt>
      <trkpt lat="48.90329" lon="6.05593">
        <ele>181</ele>
        <time>2021-07-29T11:02:46Z</time>
      </trkpt>
      <trkpt lat="48.90329" lon="6.05593">
        <ele>181</ele>
        <time>2021-07-29T11:02:52Z</time>
      </trkpt>
      <trkpt lat="48.90332" lon="6.05595">
        <ele>181</ele>
        <time>2021-07-29T11:03:39Z</time>
      </trkpt>
      <trkpt lat="48.9033" lon="6.05593">
        <ele>181.1</ele>
        <time>2021-07-29T11:03:45Z</time>
      </trkpt>
      <trkpt lat="48.90329" lon="6.05591">
        <ele>181.1</ele>
        <time>2021-07-29T11:03:52Z</time>
      </trkpt>
      <trkpt lat="48.9033" lon="6.05593">
        <ele>181.1</ele>
        <time>2021-07-29T11:03:58Z</time>
      </trkpt>
      <trkpt lat="48.9033" lon="6.05593">
        <ele>181.1</ele>
        <time>2021-07-29T11:04:05Z</time>
      </trkpt>
      <trkpt lat="48.90329" lon="6.05592">
        <ele>181.1</ele>
        <time>2021-07-29T11:04:12Z</time>
      </trkpt>
      <trkpt lat="48.90329" lon="6.05592">
        <ele>181.1</ele>
        <time>2021-07-29T11:04:18Z</time>
      </trkpt>
      <trkpt lat="48.90328" lon="6.05591">
        <ele>181.1</ele>
        <time>2021-07-29T11:04:25Z</time>
      </trkpt>
      <trkpt lat="48.90329" lon="6.05593">
        <ele>181.1</ele>
        <time>2021-07-29T11:04:31Z</time>
      </trkpt>
      <trkpt lat="48.9033" lon="6.05594">
        <ele>181.1</ele>
        <time>2021-07-29T11:04:38Z</time>
      </trkpt>
      <trkpt lat="48.90329" lon="6.05591">
        <ele>181.1</ele>
        <time>2021-07-29T11:04:45Z</time>
      </trkpt>
      <trkpt lat="48.90329" lon="6.05592">
        <ele>181.1</ele>
        <time>2021-07-29T11:04:51Z</time>
      </trkpt>
      <trkpt lat="48.90329" lon="6.05593">
        <ele>181.1</ele>
        <time>2021-07-29T11:04:58Z</time>
      </trkpt>
      <trkpt lat="48.90329" lon="6.05593">
        <ele>181.1</ele>
        <time>2021-07-29T11:05:05Z</time>
      </trkpt>
      <trkpt lat="48.90328" lon="6.05591">
        <ele>181.1</ele>
        <time>2021-07-29T11:05:11Z</time>
      </trkpt>
      <trkpt lat="48.90328" lon="6.05592">
        <ele>181.1</ele>
        <time>2021-07-29T11:05:18Z</time>
      </trkpt>
      <trkpt lat="48.90329" lon="6.05593">
        <ele>181.1</ele>
        <time>2021-07-29T11:05:24Z</time>
      </trkpt>
      <trkpt lat="48.90329" lon="6.05592">
        <ele>181.1</ele>
        <time>2021-07-29T11:05:31Z</time>
      </trkpt>
      <trkpt lat="48.90329" lon="6.05592">
        <ele>181.1</ele>
        <time>2021-07-29T11:05:37Z</time>
      </trkpt>
      <trkpt lat="48.90329" lon="6.05592">
        <ele>181.1</ele>
        <time>2021-07-29T11:05:44Z</time>
      </trkpt>
      <trkpt lat="48.90332" lon="6.05592">
        <ele>181.1</ele>
        <time>2021-07-29T11:05:51Z</time>
      </trkpt>
      <trkpt lat="48.90331" lon="6.05592">
        <ele>181.1</ele>
        <time>2021-07-29T11:05:57Z</time>
      </trkpt>
      <trkpt lat="48.9033" lon="6.05592">
        <ele>181.1</ele>
        <time>2021-07-29T11:06:04Z</time>
      </trkpt>
      <trkpt lat="48.90331" lon="6.05594">
        <ele>181.1</ele>
        <time>2021-07-29T11:06:17Z</time>
      </trkpt>
      <trkpt lat="48.90329" lon="6.05592">
        <ele>181.1</ele>
        <time>2021-07-29T11:06:24Z</time>
      </trkpt>
      <trkpt lat="48.9033" lon="6.05592">
        <ele>181.1</ele>
        <time>2021-07-29T11:06:30Z</time>
      </trkpt>
      <trkpt lat="48.90329" lon="6.05592">
        <ele>181.1</ele>
        <time>2021-07-29T11:06:37Z</time>
      </trkpt>
      <trkpt lat="48.90329" lon="6.05593">
        <ele>181.1</ele>
        <time>2021-07-29T11:06:44Z</time>
      </trkpt>
      <trkpt lat="48.90329" lon="6.05592">
        <ele>181.1</ele>
        <time>2021-07-29T11:06:50Z</time>
      </trkpt>
      <trkpt lat="48.90329" lon="6.05594">
        <ele>181.1</ele>
        <time>2021-07-29T11:06:57Z</time>
      </trkpt>
      <trkpt lat="48.9033" lon="6.05593">
        <ele>181.1</ele>
        <time>2021-07-29T11:07:03Z</time>
      </trkpt>
      <trkpt lat="48.90331" lon="6.05594">
        <ele>181.1</ele>
        <time>2021-07-29T11:07:10Z</time>
      </trkpt>
      <trkpt lat="48.90331" lon="6.05595">
        <ele>181.1</ele>
        <time>2021-07-29T11:07:17Z</time>
      </trkpt>
      <trkpt lat="48.90337" lon="6.05605">
        <ele>181.2</ele>
        <time>2021-07-29T11:07:23Z</time>
      </trkpt>
      <trkpt lat="48.90335" lon="6.05602">
        <ele>181.2</ele>
        <time>2021-07-29T11:07:24Z</time>
      </trkpt>
      <trkpt lat="48.90333" lon="6.05598">
        <ele>181.2</ele>
        <time>2021-07-29T11:07:30Z</time>
      </trkpt>
      <trkpt lat="48.90332" lon="6.05597">
        <ele>181.2</ele>
        <time>2021-07-29T11:07:31Z</time>
      </trkpt>
      <trkpt lat="48.90332" lon="6.05597">
        <ele>181.2</ele>
        <time>2021-07-29T11:07:32Z</time>
      </trkpt>
      <trkpt lat="48.90332" lon="6.05597">
        <ele>181.2</ele>
        <time>2021-07-29T11:07:33Z</time>
      </trkpt>
      <trkpt lat="48.90332" lon="6.05598">
        <ele>181.2</ele>
        <time>2021-07-29T11:07:34Z</time>
      </trkpt>
      <trkpt lat="48.90332" lon="6.05598">
        <ele>181.2</ele>
        <time>2021-07-29T11:07:36Z</time>
      </trkpt>
      <trkpt lat="48.90332" lon="6.05598">
        <ele>181.2</ele>
        <time>2021-07-29T11:07:37Z</time>
      </trkpt>
      <trkpt lat="48.90332" lon="6.05598">
        <ele>181.2</ele>
        <time>2021-07-29T11:07:39Z</time>
      </trkpt>
      <trkpt lat="48.90332" lon="6.05599">
        <ele>181.2</ele>
        <time>2021-07-29T11:07:41Z</time>
      </trkpt>
      <trkpt lat="48.90337" lon="6.05599">
        <ele>181.2</ele>
        <time>2021-07-29T11:08:09Z</time>
      </trkpt>
      <trkpt lat="48.90336" lon="6.05599">
        <ele>181.2</ele>
        <time>2021-07-29T11:08:12Z</time>
      </trkpt>
      <trkpt lat="48.90333" lon="6.05598">
        <ele>181.2</ele>
        <time>2021-07-29T11:08:13Z</time>
      </trkpt>
      <trkpt lat="48.90332" lon="6.05598">
        <ele>181.2</ele>
        <time>2021-07-29T11:08:16Z</time>
      </trkpt>
      <trkpt lat="48.90332" lon="6.05598">
        <ele>181.2</ele>
        <time>2021-07-29T11:08:22Z</time>
      </trkpt>
      <trkpt lat="48.90332" lon="6.05598">
        <ele>181.2</ele>
        <time>2021-07-29T11:08:29Z</time>
      </trkpt>
      <trkpt lat="48.90332" lon="6.05598">
        <ele>181.2</ele>
        <time>2021-07-29T11:09:01Z</time>
      </trkpt>
      <trkpt lat="48.90332" lon="6.05598">
        <ele>181.2</ele>
        <time>2021-07-29T11:09:07Z</time>
      </trkpt>
      <trkpt lat="48.90332" lon="6.05598">
        <ele>181.2</ele>
        <time>2021-07-29T11:09:14Z</time>
      </trkpt>
      <trkpt lat="48.90332" lon="6.05597">
        <ele>181.2</ele>
        <time>2021-07-29T11:09:20Z</time>
      </trkpt>
      <trkpt lat="48.90332" lon="6.05597">
        <ele>181.2</ele>
        <time>2021-07-29T11:09:27Z</time>
      </trkpt>
      <trkpt lat="48.90332" lon="6.05597">
        <ele>181.2</ele>
        <time>2021-07-29T11:09:33Z</time>
      </trkpt>
      <trkpt lat="48.90332" lon="6.05597">
        <ele>181.2</ele>
        <time>2021-07-29T11:09:40Z</time>
      </trkpt>
      <trkpt lat="48.90332" lon="6.05597">
        <ele>181.2</ele>
        <time>2021-07-29T11:09:46Z</time>
      </trkpt>
      <trkpt lat="48.90332" lon="6.05597">
        <ele>181.2</ele>
        <time>2021-07-29T11:09:53Z</time>
      </trkpt>
      <trkpt lat="48.90332" lon="6.05597">
        <ele>181.2</ele>
        <time>2021-07-29T11:10:26Z</time>
      </trkpt>
      <trkpt lat="48.90332" lon="6.05596">
        <ele>181.2</ele>
        <time>2021-07-29T11:10:32Z</time>
      </trkpt>
      <trkpt lat="48.90332" lon="6.05596">
        <ele>181.2</ele>
        <time>2021-07-29T11:10:39Z</time>
      </trkpt>
      <trkpt lat="48.90332" lon="6.05596">
        <ele>181.2</ele>
        <time>2021-07-29T11:10:45Z</time>
      </trkpt>
      <trkpt lat="48.90332" lon="6.05596">
        <ele>181.2</ele>
        <time>2021-07-29T11:10:52Z</time>
      </trkpt>
      <trkpt lat="48.90332" lon="6.05596">
        <ele>181.2</ele>
        <time>2021-07-29T11:10:58Z</time>
      </trkpt>
      <trkpt lat="48.90332" lon="6.05596">
        <ele>181.2</ele>
        <time>2021-07-29T11:11:05Z</time>
      </trkpt>
      <trkpt lat="48.90332" lon="6.05596">
        <ele>181.2</ele>
        <time>2021-07-29T11:11:11Z</time>
      </trkpt>
      <trkpt lat="48.90332" lon="6.05595">
        <ele>181.2</ele>
        <time>2021-07-29T11:11:18Z</time>
      </trkpt>
      <trkpt lat="48.90332" lon="6.05595">
        <ele>181.2</ele>
        <time>2021-07-29T11:11:18Z</time>
      </trkpt>
      <trkpt lat="48.90329" lon="6.05594">
        <ele>181.2</ele>
        <time>2021-07-29T11:11:24Z</time>
      </trkpt>
      <trkpt lat="48.90329" lon="6.05594">
        <ele>181.2</ele>
        <time>2021-07-29T11:11:31Z</time>
      </trkpt>
      <trkpt lat="48.90329" lon="6.05595">
        <ele>181.2</ele>
        <time>2021-07-29T11:11:37Z</time>
      </trkpt>
      <trkpt lat="48.9033" lon="6.05595">
        <ele>181.2</ele>
        <time>2021-07-29T11:12:29Z</time>
      </trkpt>
      <trkpt lat="48.9033" lon="6.05596">
        <ele>181.2</ele>
        <time>2021-07-29T11:12:36Z</time>
      </trkpt>
      <trkpt lat="48.9033" lon="6.05596">
        <ele>181.2</ele>
        <time>2021-07-29T11:12:42Z</time>
      </trkpt>
      <trkpt lat="48.9033" lon="6.05597">
        <ele>181.2</ele>
        <time>2021-07-29T11:12:49Z</time>
      </trkpt>
      <trkpt lat="48.90331" lon="6.05598">
        <ele>181.2</ele>
        <time>2021-07-29T11:12:55Z</time>
      </trkpt>
      <trkpt lat="48.90331" lon="6.05598">
        <ele>181.2</ele>
        <time>2021-07-29T11:13:01Z</time>
      </trkpt>
      <trkpt lat="48.90331" lon="6.05599">
        <ele>181.2</ele>
        <time>2021-07-29T11:13:34Z</time>
      </trkpt>
      <trkpt lat="48.90331" lon="6.05599">
        <ele>181.2</ele>
        <time>2021-07-29T11:13:41Z</time>
      </trkpt>
      <trkpt lat="48.90332" lon="6.056">
        <ele>181.2</ele>
        <time>2021-07-29T11:13:47Z</time>
      </trkpt>
      <trkpt lat="48.90332" lon="6.056">
        <ele>181.2</ele>
        <time>2021-07-29T11:13:54Z</time>
      </trkpt>
      <trkpt lat="48.90332" lon="6.05601">
        <ele>181.2</ele>
        <time>2021-07-29T11:14:00Z</time>
      </trkpt>
      <trkpt lat="48.90332" lon="6.05601">
        <ele>181.2</ele>
        <time>2021-07-29T11:14:07Z</time>
      </trkpt>
      <trkpt lat="48.90333" lon="6.05602">
        <ele>181.2</ele>
        <time>2021-07-29T11:14:13Z</time>
      </trkpt>
      <trkpt lat="48.90333" lon="6.05602">
        <ele>181.2</ele>
        <time>2021-07-29T11:14:20Z</time>
      </trkpt>
      <trkpt lat="48.90333" lon="6.05603">
        <ele>181.2</ele>
        <time>2021-07-29T11:14:26Z</time>
      </trkpt>
      <trkpt lat="48.90333" lon="6.05603">
        <ele>181.2</ele>
        <time>2021-07-29T11:14:33Z</time>
      </trkpt>
      <trkpt lat="48.90334" lon="6.05604">
        <ele>181.2</ele>
        <time>2021-07-29T11:14:39Z</time>
      </trkpt>
      <trkpt lat="48.90334" lon="6.05604">
        <ele>181.2</ele>
        <time>2021-07-29T11:14:46Z</time>
      </trkpt>
      <trkpt lat="48.90334" lon="6.05605">
        <ele>181.2</ele>
        <time>2021-07-29T11:14:53Z</time>
      </trkpt>
      <trkpt lat="48.90334" lon="6.05605">
        <ele>181.2</ele>
        <time>2021-07-29T11:14:59Z</time>
      </trkpt>
      <trkpt lat="48.90335" lon="6.05606">
        <ele>181.2</ele>
        <time>2021-07-29T11:15:13Z</time>
      </trkpt>
      <trkpt lat="48.90335" lon="6.05606">
        <ele>181.2</ele>
        <time>2021-07-29T11:15:14Z</time>
      </trkpt>
      <trkpt lat="48.90335" lon="6.05607">
        <ele>181.2</ele>
        <time>2021-07-29T11:15:15Z</time>
      </trkpt>
      <trkpt lat="48.9033" lon="6.05597">
        <ele>181.3</ele>
        <time>2021-07-29T11:15:17Z</time>
      </trkpt>
      <trkpt lat="48.9033" lon="6.05596">
        <ele>181.3</ele>
        <time>2021-07-29T11:15:19Z</time>
      </trkpt>
      <trkpt lat="48.90329" lon="6.05596">
        <ele>181.3</ele>
        <time>2021-07-29T11:15:20Z</time>
      </trkpt>
      <trkpt lat="48.90329" lon="6.05596">
        <ele>181.3</ele>
        <time>2021-07-29T11:15:22Z</time>
      </trkpt>
      <trkpt lat="48.90329" lon="6.05596">
        <ele>181.3</ele>
        <time>2021-07-29T11:15:23Z</time>
      </trkpt>
      <trkpt lat="48.90329" lon="6.05596">
        <ele>181.3</ele>
        <time>2021-07-29T11:15:24Z</time>
      </trkpt>
      <trkpt lat="48.90329" lon="6.05596">
        <ele>181.3</ele>
        <time>2021-07-29T11:15:26Z</time>
      </trkpt>
      <trkpt lat="48.90329" lon="6.05596">
        <ele>181.3</ele>
        <time>2021-07-29T11:15:27Z</time>
      </trkpt>
      <trkpt lat="48.90329" lon="6.05596">
        <ele>181.3</ele>
        <time>2021-07-29T11:15:29Z</time>
      </trkpt>
      <trkpt lat="48.90329" lon="6.05596">
        <ele>181.3</ele>
        <time>2021-07-29T11:15:30Z</time>
      </trkpt>
      <trkpt lat="48.90329" lon="6.05596">
        <ele>181.3</ele>
        <time>2021-07-29T11:15:32Z</time>
      </trkpt>
      <trkpt lat="48.90329" lon="6.05596">
        <ele>181.3</ele>
        <time>2021-07-29T11:15:33Z</time>
      </trkpt>
      <trkpt lat="48.90329" lon="6.05596">
        <ele>181.3</ele>
        <time>2021-07-29T11:15:34Z</time>
      </trkpt>
      <trkpt lat="48.90329" lon="6.05596">
        <ele>181.3</ele>
        <time>2021-07-29T11:15:35Z</time>
      </trkpt>
      <trkpt lat="48.90329" lon="6.05596">
        <ele>181.3</ele>
        <time>2021-07-29T11:15:37Z</time>
      </trkpt>
      <trkpt lat="48.90329" lon="6.05596">
        <ele>181.3</ele>
        <time>2021-07-29T11:15:39Z</time>
      </trkpt>
      <trkpt lat="48.90329" lon="6.05596">
        <ele>181.3</ele>
        <time>2021-07-29T11:15:40Z</time>
      </trkpt>
      <trkpt lat="48.90329" lon="6.05596">
        <ele>181.3</ele>
        <time>2021-07-29T11:15:41Z</time>
      </trkpt>
      <trkpt lat="48.90329" lon="6.05596">
        <ele>181.3</ele>
        <time>2021-07-29T11:15:42Z</time>
      </trkpt>
      <trkpt lat="48.90329" lon="6.05596">
        <ele>181.3</ele>
        <time>2021-07-29T11:15:44Z</time>
      </trkpt>
      <trkpt lat="48.90329" lon="6.05596">
        <ele>181.3</ele>
        <time>2021-07-29T11:15:46Z</time>
      </trkpt>
      <trkpt lat="48.90329" lon="6.05596">
        <ele>181.3</ele>
        <time>2021-07-29T11:15:47Z</time>
      </trkpt>
      <trkpt lat="48.90329" lon="6.05596">
        <ele>181.3</ele>
        <time>2021-07-29T11:15:49Z</time>
      </trkpt>
      <trkpt lat="48.90329" lon="6.05596">
        <ele>181.3</ele>
        <time>2021-07-29T11:15:50Z</time>
      </trkpt>
      <trkpt lat="48.90329" lon="6.05596">
        <ele>181.3</ele>
        <time>2021-07-29T11:15:52Z</time>
      </trkpt>
      <trkpt lat="48.90329" lon="6.05596">
        <ele>181.3</ele>
        <time>2021-07-29T11:15:53Z</time>
      </trkpt>
      <trkpt lat="48.90329" lon="6.05596">
        <ele>181.3</ele>
        <time>2021-07-29T11:15:54Z</time>
      </trkpt>
      <trkpt lat="48.90329" lon="6.05596">
        <ele>181.3</ele>
        <time>2021-07-29T11:15:56Z</time>
      </trkpt>
      <trkpt lat="48.9033" lon="6.0559">
        <ele>181.3</ele>
        <time>2021-07-29T11:15:58Z</time>
      </trkpt>
      <trkpt lat="48.90331" lon="6.05585">
        <ele>181.3</ele>
        <time>2021-07-29T11:15:59Z</time>
      </trkpt>
      <trkpt lat="48.90331" lon="6.05584">
        <ele>181.3</ele>
        <time>2021-07-29T11:16:00Z</time>
      </trkpt>
      <trkpt lat="48.9033" lon="6.05583">
        <ele>181.3</ele>
        <time>2021-07-29T11:16:01Z</time>
      </trkpt>
      <trkpt lat="48.9033" lon="6.05583">
        <ele>181.3</ele>
        <time>2021-07-29T11:16:02Z</time>
      </trkpt>
      <trkpt lat="48.9033" lon="6.05583">
        <ele>181.3</ele>
        <time>2021-07-29T11:16:04Z</time>
      </trkpt>
      <trkpt lat="48.9033" lon="6.05583">
        <ele>181.3</ele>
        <time>2021-07-29T11:16:06Z</time>
      </trkpt>
      <trkpt lat="48.9033" lon="6.05583">
        <ele>181.3</ele>
        <time>2021-07-29T11:16:07Z</time>
      </trkpt>
      <trkpt lat="48.9033" lon="6.05583">
        <ele>181.3</ele>
        <time>2021-07-29T11:16:08Z</time>
      </trkpt>
      <trkpt lat="48.9033" lon="6.05583">
        <ele>181.3</ele>
        <time>2021-07-29T11:16:10Z</time>
      </trkpt>
      <trkpt lat="48.9033" lon="6.05583">
        <ele>181.3</ele>
        <time>2021-07-29T11:16:12Z</time>
      </trkpt>
      <trkpt lat="48.9033" lon="6.05583">
        <ele>181.3</ele>
        <time>2021-07-29T11:16:13Z</time>
      </trkpt>
      <trkpt lat="48.9033" lon="6.05583">
        <ele>181.3</ele>
        <time>2021-07-29T11:16:14Z</time>
      </trkpt>
      <trkpt lat="48.9033" lon="6.05583">
        <ele>181.3</ele>
        <time>2021-07-29T11:16:16Z</time>
      </trkpt>
      <trkpt lat="48.9033" lon="6.05583">
        <ele>181.3</ele>
        <time>2021-07-29T11:16:17Z</time>
      </trkpt>
      <trkpt lat="48.9033" lon="6.05583">
        <ele>181.3</ele>
        <time>2021-07-29T11:16:19Z</time>
      </trkpt>
      <trkpt lat="48.9033" lon="6.05583">
        <ele>181.3</ele>
        <time>2021-07-29T11:16:20Z</time>
      </trkpt>
      <trkpt lat="48.9033" lon="6.05583">
        <ele>181.3</ele>
        <time>2021-07-29T11:16:22Z</time>
      </trkpt>
      <trkpt lat="48.9033" lon="6.05583">
        <ele>181.3</ele>
        <time>2021-07-29T11:16:23Z</time>
      </trkpt>
      <trkpt lat="48.9033" lon="6.05583">
        <ele>181.3</ele>
        <time>2021-07-29T11:16:24Z</time>
      </trkpt>
      <trkpt lat="48.9033" lon="6.05583">
        <ele>181.3</ele>
        <time>2021-07-29T11:16:26Z</time>
      </trkpt>
      <trkpt lat="48.9033" lon="6.05583">
        <ele>181.3</ele>
        <time>2021-07-29T11:16:27Z</time>
      </trkpt>
      <trkpt lat="48.9033" lon="6.05583">
        <ele>181.3</ele>
        <time>2021-07-29T11:16:28Z</time>
      </trkpt>
      <trkpt lat="48.9033" lon="6.05583">
        <ele>181.3</ele>
        <time>2021-07-29T11:16:29Z</time>
      </trkpt>
      <trkpt lat="48.9033" lon="6.05583">
        <ele>181.3</ele>
        <time>2021-07-29T11:16:30Z</time>
      </trkpt>
      <trkpt lat="48.9033" lon="6.05583">
        <ele>181.3</ele>
        <time>2021-07-29T11:16:32Z</time>
      </trkpt>
      <trkpt lat="48.9033" lon="6.05583">
        <ele>181.3</ele>
        <time>2021-07-29T11:16:33Z</time>
      </trkpt>
      <trkpt lat="48.9033" lon="6.05583">
        <ele>181.3</ele>
        <time>2021-07-29T11:16:35Z</time>
      </trkpt>
      <trkpt lat="48.9033" lon="6.05583">
        <ele>181.3</ele>
        <time>2021-07-29T11:16:37Z</time>
      </trkpt>
      <trkpt lat="48.9033" lon="6.05583">
        <ele>181.3</ele>
        <time>2021-07-29T11:16:39Z</time>
      </trkpt>
      <trkpt lat="48.9033" lon="6.05583">
        <ele>181.3</ele>
        <time>2021-07-29T11:16:40Z</time>
      </trkpt>
      <trkpt lat="48.9033" lon="6.05583">
        <ele>181.3</ele>
        <time>2021-07-29T11:16:42Z</time>
      </trkpt>
      <trkpt lat="48.9033" lon="6.05583">
        <ele>181.3</ele>
        <time>2021-07-29T11:16:44Z</time>
      </trkpt>
      <trkpt lat="48.9033" lon="6.05583">
        <ele>181.3</ele>
        <time>2021-07-29T11:16:45Z</time>
      </trkpt>
      <trkpt lat="48.9033" lon="6.05583">
        <ele>181.3</ele>
        <time>2021-07-29T11:16:47Z</time>
      </trkpt>
      <trkpt lat="48.9033" lon="6.05583">
        <ele>181.3</ele>
        <time>2021-07-29T11:16:48Z</time>
      </trkpt>
      <trkpt lat="48.9033" lon="6.05583">
        <ele>181.3</ele>
        <time>2021-07-29T11:16:50Z</time>
      </trkpt>
      <trkpt lat="48.9033" lon="6.05583">
        <ele>181.3</ele>
        <time>2021-07-29T11:16:52Z</time>
      </trkpt>
      <trkpt lat="48.9033" lon="6.05583">
        <ele>181.3</ele>
        <time>2021-07-29T11:16:53Z</time>
      </trkpt>
      <trkpt lat="48.90333" lon="6.05586">
        <ele>181.3</ele>
        <time>2021-07-29T11:16:54Z</time>
      </trkpt>
      <trkpt lat="48.90336" lon="6.05589">
        <ele>181.3</ele>
        <time>2021-07-29T11:16:56Z</time>
      </trkpt>
      <trkpt lat="48.90337" lon="6.0559">
        <ele>181.3</ele>
        <time>2021-07-29T11:16:57Z</time>
      </trkpt>
      <trkpt lat="48.9034" lon="6.05592">
        <ele>181.3</ele>
        <time>2021-07-29T11:16:59Z</time>
      </trkpt>
      <trkpt lat="48.90344" lon="6.05596">
        <ele>181.3</ele>
        <time>2021-07-29T11:17:00Z</time>
      </trkpt>
      <trkpt lat="48.90345" lon="6.05602">
        <ele>181.3</ele>
        <time>2021-07-29T11:17:02Z</time>
      </trkpt>
      <trkpt lat="48.90346" lon="6.05604">
        <ele>181.3</ele>
        <time>2021-07-29T11:17:04Z</time>
      </trkpt>
      <trkpt lat="48.90346" lon="6.05605">
        <ele>181.3</ele>
        <time>2021-07-29T11:17:05Z</time>
      </trkpt>
      <trkpt lat="48.90346" lon="6.05605">
        <ele>181.3</ele>
        <time>2021-07-29T11:17:06Z</time>
      </trkpt>
      <trkpt lat="48.90346" lon="6.05605">
        <ele>181.3</ele>
        <time>2021-07-29T11:17:08Z</time>
      </trkpt>
      <trkpt lat="48.90346" lon="6.05605">
        <ele>181.3</ele>
        <time>2021-07-29T11:17:10Z</time>
      </trkpt>
      <trkpt lat="48.90346" lon="6.05605">
        <ele>181.3</ele>
        <time>2021-07-29T11:17:12Z</time>
      </trkpt>
      <trkpt lat="48.90346" lon="6.05605">
        <ele>181.3</ele>
        <time>2021-07-29T11:17:13Z</time>
      </trkpt>
      <trkpt lat="48.90346" lon="6.05606">
        <ele>181.3</ele>
        <time>2021-07-29T11:17:14Z</time>
      </trkpt>
      <trkpt lat="48.90353" lon="6.05604">
        <ele>181.2</ele>
        <time>2021-07-29T11:17:16Z</time>
      </trkpt>
      <trkpt lat="48.90362" lon="6.05594">
        <ele>181.1</ele>
        <time>2021-07-29T11:17:18Z</time>
      </trkpt>
      <trkpt lat="48.90367" lon="6.05588">
        <ele>181.1</ele>
        <time>2021-07-29T11:17:19Z</time>
      </trkpt>
      <trkpt lat="48.90369" lon="6.05585">
        <ele>181</ele>
        <time>2021-07-29T11:17:20Z</time>
      </trkpt>
      <trkpt lat="48.90375" lon="6.05583">
        <ele>180.9</ele>
        <time>2021-07-29T11:17:22Z</time>
      </trkpt>
      <trkpt lat="48.90379" lon="6.05587">
        <ele>180.6</ele>
        <time>2021-07-29T11:17:24Z</time>
      </trkpt>
      <trkpt lat="48.90384" lon="6.05591">
        <ele>180.4</ele>
        <time>2021-07-29T11:17:26Z</time>
      </trkpt>
      <trkpt lat="48.90389" lon="6.05595">
        <ele>180.1</ele>
        <time>2021-07-29T11:17:28Z</time>
      </trkpt>
      <trkpt lat="48.90391" lon="6.05597">
        <ele>180</ele>
        <time>2021-07-29T11:17:29Z</time>
      </trkpt>
      <trkpt lat="48.90394" lon="6.056">
        <ele>179.9</ele>
        <time>2021-07-29T11:17:30Z</time>
      </trkpt>
      <trkpt lat="48.90397" lon="6.05605">
        <ele>179.6</ele>
        <time>2021-07-29T11:17:32Z</time>
      </trkpt>
      <trkpt lat="48.904" lon="6.05613">
        <ele>179.4</ele>
        <time>2021-07-29T11:17:34Z</time>
      </trkpt>
      <trkpt lat="48.90398" lon="6.05624">
        <ele>179.2</ele>
        <time>2021-07-29T11:17:36Z</time>
      </trkpt>
      <trkpt lat="48.90393" lon="6.05635">
        <ele>179.2</ele>
        <time>2021-07-29T11:17:38Z</time>
      </trkpt>
      <trkpt lat="48.90386" lon="6.05646">
        <ele>179.2</ele>
        <time>2021-07-29T11:17:40Z</time>
      </trkpt>
      <trkpt lat="48.90377" lon="6.05658">
        <ele>179.2</ele>
        <time>2021-07-29T11:17:42Z</time>
      </trkpt>
      <trkpt lat="48.90373" lon="6.05663">
        <ele>179.2</ele>
        <time>2021-07-29T11:17:43Z</time>
      </trkpt>
      <trkpt lat="48.90369" lon="6.05667">
        <ele>179.2</ele>
        <time>2021-07-29T11:17:44Z</time>
      </trkpt>
      <trkpt lat="48.90361" lon="6.05672">
        <ele>179.2</ele>
        <time>2021-07-29T11:17:46Z</time>
      </trkpt>
      <trkpt lat="48.90356" lon="6.05675">
        <ele>179.3</ele>
        <time>2021-07-29T11:17:47Z</time>
      </trkpt>
      <trkpt lat="48.9035" lon="6.0568">
        <ele>179.3</ele>
        <time>2021-07-29T11:17:49Z</time>
      </trkpt>
      <trkpt lat="48.90347" lon="6.05683">
        <ele>179.4</ele>
        <time>2021-07-29T11:17:50Z</time>
      </trkpt>
      <trkpt lat="48.90342" lon="6.05693">
        <ele>179.4</ele>
        <time>2021-07-29T11:17:52Z</time>
      </trkpt>
      <trkpt lat="48.90339" lon="6.05698">
        <ele>179.4</ele>
        <time>2021-07-29T11:17:53Z</time>
      </trkpt>
      <trkpt lat="48.90336" lon="6.05703">
        <ele>179.5</ele>
        <time>2021-07-29T11:17:54Z</time>
      </trkpt>
      <trkpt lat="48.90332" lon="6.05709">
        <ele>179.5</ele>
        <time>2021-07-29T11:17:55Z</time>
      </trkpt>
      <trkpt lat="48.90328" lon="6.05715">
        <ele>179.5</ele>
        <time>2021-07-29T11:17:56Z</time>
      </trkpt>
      <trkpt lat="48.90323" lon="6.05724">
        <ele>179.6</ele>
        <time>2021-07-29T11:17:58Z</time>
      </trkpt>
      <trkpt lat="48.9032" lon="6.0573">
        <ele>179.6</ele>
        <time>2021-07-29T11:17:59Z</time>
      </trkpt>
      <trkpt lat="48.90318" lon="6.05736">
        <ele>179.7</ele>
        <time>2021-07-29T11:18:00Z</time>
      </trkpt>
      <trkpt lat="48.90315" lon="6.05743">
        <ele>179.7</ele>
        <time>2021-07-29T11:18:01Z</time>
      </trkpt>
      <trkpt lat="48.90312" lon="6.05748">
        <ele>179.8</ele>
        <time>2021-07-29T11:18:03Z</time>
      </trkpt>
      <trkpt lat="48.90309" lon="6.05753">
        <ele>179.8</ele>
        <time>2021-07-29T11:18:04Z</time>
      </trkpt>
      <trkpt lat="48.90307" lon="6.05758">
        <ele>179.8</ele>
        <time>2021-07-29T11:18:05Z</time>
      </trkpt>
      <trkpt lat="48.90302" lon="6.05766">
        <ele>179.9</ele>
        <time>2021-07-29T11:18:07Z</time>
      </trkpt>
      <trkpt lat="48.90297" lon="6.05776">
        <ele>179.9</ele>
        <time>2021-07-29T11:18:09Z</time>
      </trkpt>
      <trkpt lat="48.90293" lon="6.05783">
        <ele>180</ele>
        <time>2021-07-29T11:18:10Z</time>
      </trkpt>
      <trkpt lat="48.90291" lon="6.05788">
        <ele>180</ele>
        <time>2021-07-29T11:18:11Z</time>
      </trkpt>
      <trkpt lat="48.9029" lon="6.05793">
        <ele>180</ele>
        <time>2021-07-29T11:18:13Z</time>
      </trkpt>
      <trkpt lat="48.90288" lon="6.058">
        <ele>179.9</ele>
        <time>2021-07-29T11:18:14Z</time>
      </trkpt>
      <trkpt lat="48.90286" lon="6.05806">
        <ele>179.9</ele>
        <time>2021-07-29T11:18:15Z</time>
      </trkpt>
      <trkpt lat="48.90281" lon="6.05815">
        <ele>179.9</ele>
        <time>2021-07-29T11:18:17Z</time>
      </trkpt>
      <trkpt lat="48.90278" lon="6.05823">
        <ele>179.8</ele>
        <time>2021-07-29T11:18:18Z</time>
      </trkpt>
      <trkpt lat="48.90276" lon="6.05828">
        <ele>179.8</ele>
        <time>2021-07-29T11:18:19Z</time>
      </trkpt>
      <trkpt lat="48.90272" lon="6.05837">
        <ele>179.7</ele>
        <time>2021-07-29T11:18:21Z</time>
      </trkpt>
      <trkpt lat="48.90263" lon="6.0585">
        <ele>179.6</ele>
        <time>2021-07-29T11:18:23Z</time>
      </trkpt>
      <trkpt lat="48.90259" lon="6.05855">
        <ele>179.5</ele>
        <time>2021-07-29T11:18:24Z</time>
      </trkpt>
      <trkpt lat="48.90255" lon="6.0586">
        <ele>179.5</ele>
        <time>2021-07-29T11:18:25Z</time>
      </trkpt>
      <trkpt lat="48.90251" lon="6.05865">
        <ele>179.5</ele>
        <time>2021-07-29T11:18:26Z</time>
      </trkpt>
      <trkpt lat="48.90244" lon="6.05874">
        <ele>179.4</ele>
        <time>2021-07-29T11:18:28Z</time>
      </trkpt>
      <trkpt lat="48.9024" lon="6.05874">
        <ele>179.4</ele>
        <time>2021-07-29T11:18:29Z</time>
      </trkpt>
      <trkpt lat="48.90239" lon="6.05873">
        <ele>179.4</ele>
        <time>2021-07-29T11:18:30Z</time>
      </trkpt>
      <trkpt lat="48.90233" lon="6.05883">
        <ele>179.4</ele>
        <time>2021-07-29T11:18:32Z</time>
      </trkpt>
      <trkpt lat="48.90226" lon="6.05892">
        <ele>179.4</ele>
        <time>2021-07-29T11:18:34Z</time>
      </trkpt>
      <trkpt lat="48.90221" lon="6.05898">
        <ele>179.5</ele>
        <time>2021-07-29T11:18:36Z</time>
      </trkpt>
      <trkpt lat="48.90217" lon="6.059">
        <ele>179.7</ele>
        <time>2021-07-29T11:18:38Z</time>
      </trkpt>
      <trkpt lat="48.90214" lon="6.05902">
        <ele>179.7</ele>
        <time>2021-07-29T11:18:39Z</time>
      </trkpt>
      <trkpt lat="48.90213" lon="6.05902">
        <ele>179.7</ele>
        <time>2021-07-29T11:18:40Z</time>
      </trkpt>
      <trkpt lat="48.90211" lon="6.05906">
        <ele>179.7</ele>
        <time>2021-07-29T11:18:41Z</time>
      </trkpt>
      <trkpt lat="48.90209" lon="6.0591">
        <ele>179.6</ele>
        <time>2021-07-29T11:18:42Z</time>
      </trkpt>
      <trkpt lat="48.90205" lon="6.05917">
        <ele>179.5</ele>
        <time>2021-07-29T11:18:43Z</time>
      </trkpt>
      <trkpt lat="48.90201" lon="6.05925">
        <ele>179.4</ele>
        <time>2021-07-29T11:18:45Z</time>
      </trkpt>
      <trkpt lat="48.90195" lon="6.05931">
        <ele>179.4</ele>
        <time>2021-07-29T11:18:46Z</time>
      </trkpt>
      <trkpt lat="48.90192" lon="6.05935">
        <ele>179.3</ele>
        <time>2021-07-29T11:18:47Z</time>
      </trkpt>
      <trkpt lat="48.90188" lon="6.05938">
        <ele>179.3</ele>
        <time>2021-07-29T11:18:48Z</time>
      </trkpt>
      <trkpt lat="48.90185" lon="6.0594">
        <ele>179.3</ele>
        <time>2021-07-29T11:18:49Z</time>
      </trkpt>
      <trkpt lat="48.90179" lon="6.05941">
        <ele>179.3</ele>
        <time>2021-07-29T11:18:51Z</time>
      </trkpt>
      <trkpt lat="48.90172" lon="6.05939">
        <ele>179.3</ele>
        <time>2021-07-29T11:18:53Z</time>
      </trkpt>
      <trkpt lat="48.90168" lon="6.05938">
        <ele>179.3</ele>
        <time>2021-07-29T11:18:54Z</time>
      </trkpt>
      <trkpt lat="48.90163" lon="6.05935">
        <ele>179.2</ele>
        <time>2021-07-29T11:18:55Z</time>
      </trkpt>
      <trkpt lat="48.90155" lon="6.05929">
        <ele>179.2</ele>
        <time>2021-07-29T11:18:57Z</time>
      </trkpt>
      <trkpt lat="48.90151" lon="6.05928">
        <ele>179.2</ele>
        <time>2021-07-29T11:18:58Z</time>
      </trkpt>
      <trkpt lat="48.90146" lon="6.05926">
        <ele>179.2</ele>
        <time>2021-07-29T11:18:59Z</time>
      </trkpt>
      <trkpt lat="48.90141" lon="6.05924">
        <ele>179.2</ele>
        <time>2021-07-29T11:19:00Z</time>
      </trkpt>
      <trkpt lat="48.90137" lon="6.05921">
        <ele>179.2</ele>
        <time>2021-07-29T11:19:01Z</time>
      </trkpt>
      <trkpt lat="48.90133" lon="6.05921">
        <ele>179.2</ele>
        <time>2021-07-29T11:19:02Z</time>
      </trkpt>
      <trkpt lat="48.90128" lon="6.0592">
        <ele>179.2</ele>
        <time>2021-07-29T11:19:03Z</time>
      </trkpt>
      <trkpt lat="48.90124" lon="6.05919">
        <ele>179.2</ele>
        <time>2021-07-29T11:19:04Z</time>
      </trkpt>
      <trkpt lat="48.9012" lon="6.05917">
        <ele>179.1</ele>
        <time>2021-07-29T11:19:05Z</time>
      </trkpt>
      <trkpt lat="48.90116" lon="6.05916">
        <ele>179.1</ele>
        <time>2021-07-29T11:19:06Z</time>
      </trkpt>
      <trkpt lat="48.90109" lon="6.05912">
        <ele>179</ele>
        <time>2021-07-29T11:19:08Z</time>
      </trkpt>
      <trkpt lat="48.90104" lon="6.05909">
        <ele>179</ele>
        <time>2021-07-29T11:19:09Z</time>
      </trkpt>
      <trkpt lat="48.90099" lon="6.05908">
        <ele>179</ele>
        <time>2021-07-29T11:19:10Z</time>
      </trkpt>
      <trkpt lat="48.90092" lon="6.05906">
        <ele>178.9</ele>
        <time>2021-07-29T11:19:12Z</time>
      </trkpt>
      <trkpt lat="48.90087" lon="6.05904">
        <ele>178.9</ele>
        <time>2021-07-29T11:19:13Z</time>
      </trkpt>
      <trkpt lat="48.90083" lon="6.05903">
        <ele>178.9</ele>
        <time>2021-07-29T11:19:14Z</time>
      </trkpt>
      <trkpt lat="48.90077" lon="6.059">
        <ele>178.8</ele>
        <time>2021-07-29T11:19:16Z</time>
      </trkpt>
      <trkpt lat="48.90073" lon="6.05898">
        <ele>178.8</ele>
        <time>2021-07-29T11:19:17Z</time>
      </trkpt>
      <trkpt lat="48.90065" lon="6.05896">
        <ele>178.8</ele>
        <time>2021-07-29T11:19:19Z</time>
      </trkpt>
      <trkpt lat="48.90057" lon="6.05894">
        <ele>178.8</ele>
        <time>2021-07-29T11:19:21Z</time>
      </trkpt>
      <trkpt lat="48.90051" lon="6.05893">
        <ele>178.8</ele>
        <time>2021-07-29T11:19:22Z</time>
      </trkpt>
      <trkpt lat="48.90047" lon="6.05893">
        <ele>178.8</ele>
        <time>2021-07-29T11:19:23Z</time>
      </trkpt>
      <trkpt lat="48.90041" lon="6.05893">
        <ele>178.8</ele>
        <time>2021-07-29T11:19:24Z</time>
      </trkpt>
      <trkpt lat="48.90034" lon="6.05892">
        <ele>178.9</ele>
        <time>2021-07-29T11:19:26Z</time>
      </trkpt>
      <trkpt lat="48.9003" lon="6.05891">
        <ele>178.9</ele>
        <time>2021-07-29T11:19:27Z</time>
      </trkpt>
      <trkpt lat="48.90023" lon="6.05889">
        <ele>179</ele>
        <time>2021-07-29T11:19:29Z</time>
      </trkpt>
      <trkpt lat="48.90019" lon="6.05887">
        <ele>179</ele>
        <time>2021-07-29T11:19:30Z</time>
      </trkpt>
      <trkpt lat="48.90015" lon="6.05886">
        <ele>179.1</ele>
        <time>2021-07-29T11:19:31Z</time>
      </trkpt>
      <trkpt lat="48.90012" lon="6.05888">
        <ele>179.1</ele>
        <time>2021-07-29T11:19:32Z</time>
      </trkpt>
      <trkpt lat="48.90008" lon="6.05892">
        <ele>179.2</ele>
        <time>2021-07-29T11:19:34Z</time>
      </trkpt>
      <trkpt lat="48.90006" lon="6.05895">
        <ele>179.3</ele>
        <time>2021-07-29T11:19:35Z</time>
      </trkpt>
      <trkpt lat="48.90005" lon="6.05896">
        <ele>179.3</ele>
        <time>2021-07-29T11:19:36Z</time>
      </trkpt>
      <trkpt lat="48.90003" lon="6.05898">
        <ele>179.4</ele>
        <time>2021-07-29T11:19:38Z</time>
      </trkpt>
      <trkpt lat="48.90002" lon="6.05899">
        <ele>179.4</ele>
        <time>2021-07-29T11:19:39Z</time>
      </trkpt>
      <trkpt lat="48.90001" lon="6.05899">
        <ele>179.4</ele>
        <time>2021-07-29T11:19:40Z</time>
      </trkpt>
      <trkpt lat="48.89999" lon="6.05899">
        <ele>179.5</ele>
        <time>2021-07-29T11:19:41Z</time>
      </trkpt>
      <trkpt lat="48.89997" lon="6.05899">
        <ele>179.5</ele>
        <time>2021-07-29T11:19:42Z</time>
      </trkpt>
      <trkpt lat="48.89996" lon="6.05897">
        <ele>179.5</ele>
        <time>2021-07-29T11:19:43Z</time>
      </trkpt>
      <trkpt lat="48.89996" lon="6.05896">
        <ele>179.6</ele>
        <time>2021-07-29T11:19:45Z</time>
      </trkpt>
      <trkpt lat="48.89996" lon="6.05895">
        <ele>179.6</ele>
        <time>2021-07-29T11:19:46Z</time>
      </trkpt>
      <trkpt lat="48.89995" lon="6.05895">
        <ele>179.6</ele>
        <time>2021-07-29T11:19:48Z</time>
      </trkpt>
      <trkpt lat="48.89995" lon="6.05895">
        <ele>179.6</ele>
        <time>2021-07-29T11:19:50Z</time>
      </trkpt>
      <trkpt lat="48.89995" lon="6.05895">
        <ele>179.6</ele>
        <time>2021-07-29T11:19:51Z</time>
      </trkpt>
      <trkpt lat="48.89995" lon="6.05895">
        <ele>179.6</ele>
        <time>2021-07-29T11:19:53Z</time>
      </trkpt>
      <trkpt lat="48.8998" lon="6.0588">
        <ele>179.9</ele>
        <time>2021-07-29T11:34:28Z</time>
      </trkpt>
      <trkpt lat="48.89978" lon="6.05875">
        <ele>180</ele>
        <time>2021-07-29T11:34:30Z</time>
      </trkpt>
      <trkpt lat="48.89975" lon="6.05872">
        <ele>180</ele>
        <time>2021-07-29T11:34:31Z</time>
      </trkpt>
      <trkpt lat="48.89971" lon="6.05866">
        <ele>180</ele>
        <time>2021-07-29T11:34:32Z</time>
      </trkpt>
      <trkpt lat="48.89963" lon="6.05858">
        <ele>179.7</ele>
        <time>2021-07-29T11:34:34Z</time>
      </trkpt>
      <trkpt lat="48.89957" lon="6.05852">
        <ele>179.6</ele>
        <time>2021-07-29T11:34:35Z</time>
      </trkpt>
      <trkpt lat="48.89952" lon="6.05845">
        <ele>179.3</ele>
        <time>2021-07-29T11:34:36Z</time>
      </trkpt>
      <trkpt lat="48.89946" lon="6.05839">
        <ele>179.1</ele>
        <time>2021-07-29T11:34:37Z</time>
      </trkpt>
      <trkpt lat="48.89936" lon="6.05828">
        <ele>178.8</ele>
        <time>2021-07-29T11:34:39Z</time>
      </trkpt>
      <trkpt lat="48.89927" lon="6.05817">
        <ele>178.7</ele>
        <time>2021-07-29T11:34:41Z</time>
      </trkpt>
      <trkpt lat="48.8992" lon="6.05805">
        <ele>178.7</ele>
        <time>2021-07-29T11:34:43Z</time>
      </trkpt>
      <trkpt lat="48.89916" lon="6.058">
        <ele>178.7</ele>
        <time>2021-07-29T11:34:44Z</time>
      </trkpt>
      <trkpt lat="48.89909" lon="6.05791">
        <ele>178.8</ele>
        <time>2021-07-29T11:34:46Z</time>
      </trkpt>
      <trkpt lat="48.89907" lon="6.05788">
        <ele>178.8</ele>
        <time>2021-07-29T11:34:47Z</time>
      </trkpt>
      <trkpt lat="48.89905" lon="6.05783">
        <ele>178.9</ele>
        <time>2021-07-29T11:34:48Z</time>
      </trkpt>
      <trkpt lat="48.899" lon="6.05774">
        <ele>179.1</ele>
        <time>2021-07-29T11:34:50Z</time>
      </trkpt>
      <trkpt lat="48.89898" lon="6.05769">
        <ele>179.2</ele>
        <time>2021-07-29T11:34:51Z</time>
      </trkpt>
      <trkpt lat="48.89894" lon="6.05764">
        <ele>179.4</ele>
        <time>2021-07-29T11:34:53Z</time>
      </trkpt>
      <trkpt lat="48.89892" lon="6.05761">
        <ele>179.4</ele>
        <time>2021-07-29T11:34:54Z</time>
      </trkpt>
      <trkpt lat="48.89889" lon="6.05757">
        <ele>179.5</ele>
        <time>2021-07-29T11:34:55Z</time>
      </trkpt>
      <trkpt lat="48.89888" lon="6.05756">
        <ele>179.5</ele>
        <time>2021-07-29T11:34:56Z</time>
      </trkpt>
      <trkpt lat="48.89887" lon="6.05755">
        <ele>179.5</ele>
        <time>2021-07-29T11:34:57Z</time>
      </trkpt>
      <trkpt lat="48.89887" lon="6.05756">
        <ele>179.5</ele>
        <time>2021-07-29T11:34:59Z</time>
      </trkpt>
      <trkpt lat="48.89885" lon="6.05756">
        <ele>179.5</ele>
        <time>2021-07-29T11:35:00Z</time>
      </trkpt>
      <trkpt lat="48.89882" lon="6.05758">
        <ele>179.5</ele>
        <time>2021-07-29T11:35:02Z</time>
      </trkpt>
      <trkpt lat="48.89881" lon="6.05759">
        <ele>179.6</ele>
        <time>2021-07-29T11:35:03Z</time>
      </trkpt>
      <trkpt lat="48.89878" lon="6.05764">
        <ele>179.6</ele>
        <time>2021-07-29T11:35:04Z</time>
      </trkpt>
      <trkpt lat="48.89875" lon="6.05767">
        <ele>179.7</ele>
        <time>2021-07-29T11:35:06Z</time>
      </trkpt>
      <trkpt lat="48.89871" lon="6.05772">
        <ele>179.7</ele>
        <time>2021-07-29T11:35:08Z</time>
      </trkpt>
      <trkpt lat="48.89869" lon="6.05775">
        <ele>179.8</ele>
        <time>2021-07-29T11:35:09Z</time>
      </trkpt>
      <trkpt lat="48.89869" lon="6.0578">
        <ele>179.8</ele>
        <time>2021-07-29T11:35:10Z</time>
      </trkpt>
      <trkpt lat="48.89868" lon="6.05781">
        <ele>179.9</ele>
        <time>2021-07-29T11:35:11Z</time>
      </trkpt>
      <trkpt lat="48.89865" lon="6.05785">
        <ele>179.9</ele>
        <time>2021-07-29T11:35:13Z</time>
      </trkpt>
      <trkpt lat="48.89859" lon="6.05791">
        <ele>180.1</ele>
        <time>2021-07-29T11:35:15Z</time>
      </trkpt>
      <trkpt lat="48.89856" lon="6.05792">
        <ele>180.2</ele>
        <time>2021-07-29T11:35:16Z</time>
      </trkpt>
      <trkpt lat="48.89852" lon="6.05793">
        <ele>180.3</ele>
        <time>2021-07-29T11:35:17Z</time>
      </trkpt>
      <trkpt lat="48.89849" lon="6.05795">
        <ele>180.4</ele>
        <time>2021-07-29T11:35:18Z</time>
      </trkpt>
      <trkpt lat="48.89847" lon="6.05797">
        <ele>180.4</ele>
        <time>2021-07-29T11:35:20Z</time>
      </trkpt>
      <trkpt lat="48.89842" lon="6.058">
        <ele>180.4</ele>
        <time>2021-07-29T11:35:22Z</time>
      </trkpt>
      <trkpt lat="48.89839" lon="6.058">
        <ele>180.5</ele>
        <time>2021-07-29T11:35:23Z</time>
      </trkpt>
      <trkpt lat="48.89835" lon="6.05801">
        <ele>180.5</ele>
        <time>2021-07-29T11:35:24Z</time>
      </trkpt>
      <trkpt lat="48.89831" lon="6.05803">
        <ele>180.5</ele>
        <time>2021-07-29T11:35:26Z</time>
      </trkpt>
      <trkpt lat="48.89827" lon="6.05805">
        <ele>180</ele>
        <time>2021-07-29T11:35:27Z</time>
      </trkpt>
      <trkpt lat="48.89822" lon="6.05806">
        <ele>179.9</ele>
        <time>2021-07-29T11:35:28Z</time>
      </trkpt>
      <trkpt lat="48.89816" lon="6.05809">
        <ele>179.6</ele>
        <time>2021-07-29T11:35:30Z</time>
      </trkpt>
      <trkpt lat="48.89809" lon="6.05807">
        <ele>179.5</ele>
        <time>2021-07-29T11:35:32Z</time>
      </trkpt>
      <trkpt lat="48.89805" lon="6.05806">
        <ele>179.4</ele>
        <time>2021-07-29T11:35:33Z</time>
      </trkpt>
      <trkpt lat="48.89805" lon="6.05804">
        <ele>179.4</ele>
        <time>2021-07-29T11:35:34Z</time>
      </trkpt>
      <trkpt lat="48.89807" lon="6.05798">
        <ele>179.3</ele>
        <time>2021-07-29T11:35:36Z</time>
      </trkpt>
      <trkpt lat="48.89807" lon="6.05796">
        <ele>179.3</ele>
        <time>2021-07-29T11:35:37Z</time>
      </trkpt>
      <trkpt lat="48.89805" lon="6.05794">
        <ele>179.3</ele>
        <time>2021-07-29T11:35:39Z</time>
      </trkpt>
      <trkpt lat="48.89803" lon="6.05791">
        <ele>179.3</ele>
        <time>2021-07-29T11:35:40Z</time>
      </trkpt>
      <trkpt lat="48.89801" lon="6.05789">
        <ele>179.2</ele>
        <time>2021-07-29T11:35:41Z</time>
      </trkpt>
      <trkpt lat="48.89798" lon="6.05785">
        <ele>179.2</ele>
        <time>2021-07-29T11:35:43Z</time>
      </trkpt>
      <trkpt lat="48.89793" lon="6.05778">
        <ele>179.2</ele>
        <time>2021-07-29T11:35:44Z</time>
      </trkpt>
      <trkpt lat="48.89787" lon="6.0577">
        <ele>179.2</ele>
        <time>2021-07-29T11:35:45Z</time>
      </trkpt>
      <trkpt lat="48.89782" lon="6.05765">
        <ele>179.2</ele>
        <time>2021-07-29T11:35:46Z</time>
      </trkpt>
      <trkpt lat="48.89778" lon="6.0576">
        <ele>179.2</ele>
        <time>2021-07-29T11:35:47Z</time>
      </trkpt>
      <trkpt lat="48.89773" lon="6.05753">
        <ele>179.2</ele>
        <time>2021-07-29T11:35:49Z</time>
      </trkpt>
      <trkpt lat="48.89769" lon="6.05745">
        <ele>179.2</ele>
        <time>2021-07-29T11:35:50Z</time>
      </trkpt>
      <trkpt lat="48.89766" lon="6.05737">
        <ele>179.2</ele>
        <time>2021-07-29T11:35:52Z</time>
      </trkpt>
      <trkpt lat="48.89763" lon="6.05734">
        <ele>179.2</ele>
        <time>2021-07-29T11:35:53Z</time>
      </trkpt>
      <trkpt lat="48.89762" lon="6.05729">
        <ele>179.2</ele>
        <time>2021-07-29T11:35:54Z</time>
      </trkpt>
      <trkpt lat="48.89759" lon="6.05721">
        <ele>179.2</ele>
        <time>2021-07-29T11:35:56Z</time>
      </trkpt>
      <trkpt lat="48.89757" lon="6.05716">
        <ele>179.2</ele>
        <time>2021-07-29T11:35:57Z</time>
      </trkpt>
      <trkpt lat="48.89754" lon="6.05712">
        <ele>179.2</ele>
        <time>2021-07-29T11:35:58Z</time>
      </trkpt>
      <trkpt lat="48.89752" lon="6.05708">
        <ele>179.2</ele>
        <time>2021-07-29T11:35:59Z</time>
      </trkpt>
      <trkpt lat="48.8975" lon="6.05702">
        <ele>179.2</ele>
        <time>2021-07-29T11:36:00Z</time>
      </trkpt>
      <trkpt lat="48.89749" lon="6.05696">
        <ele>179.1</ele>
        <time>2021-07-29T11:36:01Z</time>
      </trkpt>
      <trkpt lat="48.89746" lon="6.05691">
        <ele>179.1</ele>
        <time>2021-07-29T11:36:03Z</time>
      </trkpt>
      <trkpt lat="48.89744" lon="6.05686">
        <ele>179.1</ele>
        <time>2021-07-29T11:36:04Z</time>
      </trkpt>
      <trkpt lat="48.8974" lon="6.05682">
        <ele>179.1</ele>
        <time>2021-07-29T11:36:05Z</time>
      </trkpt>
      <trkpt lat="48.89738" lon="6.05678">
        <ele>179.1</ele>
        <time>2021-07-29T11:36:06Z</time>
      </trkpt>
      <trkpt lat="48.89735" lon="6.05676">
        <ele>179.1</ele>
        <time>2021-07-29T11:36:07Z</time>
      </trkpt>
      <trkpt lat="48.89732" lon="6.05673">
        <ele>179.1</ele>
        <time>2021-07-29T11:36:08Z</time>
      </trkpt>
      <trkpt lat="48.89727" lon="6.05671">
        <ele>179.1</ele>
        <time>2021-07-29T11:36:09Z</time>
      </trkpt>
      <trkpt lat="48.89721" lon="6.0567">
        <ele>179.1</ele>
        <time>2021-07-29T11:36:10Z</time>
      </trkpt>
      <trkpt lat="48.89713" lon="6.05666">
        <ele>179.1</ele>
        <time>2021-07-29T11:36:12Z</time>
      </trkpt>
      <trkpt lat="48.89709" lon="6.05667">
        <ele>179.1</ele>
        <time>2021-07-29T11:36:13Z</time>
      </trkpt>
      <trkpt lat="48.89707" lon="6.05667">
        <ele>179.1</ele>
        <time>2021-07-29T11:36:14Z</time>
      </trkpt>
      <trkpt lat="48.8968" lon="6.05666">
        <ele>179.1</ele>
        <time>2021-07-29T11:36:16Z</time>
      </trkpt>
      <trkpt lat="48.89672" lon="6.05664">
        <ele>179.1</ele>
        <time>2021-07-29T11:36:17Z</time>
      </trkpt>
      <trkpt lat="48.89667" lon="6.05663">
        <ele>179.1</ele>
        <time>2021-07-29T11:36:18Z</time>
      </trkpt>
      <trkpt lat="48.89663" lon="6.05662">
        <ele>179</ele>
        <time>2021-07-29T11:36:19Z</time>
      </trkpt>
      <trkpt lat="48.89661" lon="6.05662">
        <ele>179</ele>
        <time>2021-07-29T11:36:20Z</time>
      </trkpt>
      <trkpt lat="48.89641" lon="6.05666">
        <ele>179</ele>
        <time>2021-07-29T11:36:22Z</time>
      </trkpt>
      <trkpt lat="48.89634" lon="6.05667">
        <ele>179</ele>
        <time>2021-07-29T11:36:23Z</time>
      </trkpt>
      <trkpt lat="48.89628" lon="6.05668">
        <ele>179</ele>
        <time>2021-07-29T11:36:24Z</time>
      </trkpt>
      <trkpt lat="48.89616" lon="6.05672">
        <ele>179</ele>
        <time>2021-07-29T11:36:26Z</time>
      </trkpt>
      <trkpt lat="48.8961" lon="6.05675">
        <ele>179</ele>
        <time>2021-07-29T11:36:27Z</time>
      </trkpt>
      <trkpt lat="48.8961" lon="6.05675">
        <ele>179</ele>
        <time>2021-07-29T11:36:28Z</time>
      </trkpt>
      <trkpt lat="48.89609" lon="6.05677">
        <ele>179</ele>
        <time>2021-07-29T11:36:29Z</time>
      </trkpt>
      <trkpt lat="48.89608" lon="6.05679">
        <ele>179</ele>
        <time>2021-07-29T11:36:31Z</time>
      </trkpt>
      <trkpt lat="48.89607" lon="6.0568">
        <ele>179</ele>
        <time>2021-07-29T11:36:32Z</time>
      </trkpt>
      <trkpt lat="48.89606" lon="6.05681">
        <ele>179</ele>
        <time>2021-07-29T11:36:33Z</time>
      </trkpt>
      <trkpt lat="48.89604" lon="6.05682">
        <ele>179</ele>
        <time>2021-07-29T11:36:34Z</time>
      </trkpt>
      <trkpt lat="48.89599" lon="6.05685">
        <ele>178.9</ele>
        <time>2021-07-29T11:36:36Z</time>
      </trkpt>
      <trkpt lat="48.89597" lon="6.05686">
        <ele>178.9</ele>
        <time>2021-07-29T11:36:37Z</time>
      </trkpt>
      <trkpt lat="48.89566" lon="6.05709">
        <ele>178.8</ele>
        <time>2021-07-29T11:36:52Z</time>
      </trkpt>
      <trkpt lat="48.8956" lon="6.05714">
        <ele>178.8</ele>
        <time>2021-07-29T11:36:54Z</time>
      </trkpt>
      <trkpt lat="48.89548" lon="6.05726">
        <ele>178.8</ele>
        <time>2021-07-29T11:36:56Z</time>
      </trkpt>
      <trkpt lat="48.89539" lon="6.05735">
        <ele>178.8</ele>
        <time>2021-07-29T11:36:57Z</time>
      </trkpt>
      <trkpt lat="48.89534" lon="6.05741">
        <ele>178.8</ele>
        <time>2021-07-29T11:36:59Z</time>
      </trkpt>
      <trkpt lat="48.89529" lon="6.05745">
        <ele>178.8</ele>
        <time>2021-07-29T11:37:00Z</time>
      </trkpt>
      <trkpt lat="48.89523" lon="6.0575">
        <ele>178.8</ele>
        <time>2021-07-29T11:37:01Z</time>
      </trkpt>
      <trkpt lat="48.89518" lon="6.05755">
        <ele>178.8</ele>
        <time>2021-07-29T11:37:02Z</time>
      </trkpt>
      <trkpt lat="48.89511" lon="6.05758">
        <ele>178.9</ele>
        <time>2021-07-29T11:37:03Z</time>
      </trkpt>
      <trkpt lat="48.89507" lon="6.05757">
        <ele>178.9</ele>
        <time>2021-07-29T11:37:05Z</time>
      </trkpt>
      <trkpt lat="48.89502" lon="6.05756">
        <ele>178.9</ele>
        <time>2021-07-29T11:37:06Z</time>
      </trkpt>
      <trkpt lat="48.89495" lon="6.05754">
        <ele>178.9</ele>
        <time>2021-07-29T11:37:07Z</time>
      </trkpt>
      <trkpt lat="48.8949" lon="6.05753">
        <ele>179</ele>
        <time>2021-07-29T11:37:08Z</time>
      </trkpt>
      <trkpt lat="48.89485" lon="6.05754">
        <ele>179</ele>
        <time>2021-07-29T11:37:09Z</time>
      </trkpt>
      <trkpt lat="48.89479" lon="6.05759">
        <ele>179</ele>
        <time>2021-07-29T11:37:10Z</time>
      </trkpt>
      <trkpt lat="48.89474" lon="6.05762">
        <ele>179</ele>
        <time>2021-07-29T11:37:11Z</time>
      </trkpt>
      <trkpt lat="48.8947" lon="6.05764">
        <ele>179</ele>
        <time>2021-07-29T11:37:13Z</time>
      </trkpt>
      <trkpt lat="48.89466" lon="6.05766">
        <ele>179</ele>
        <time>2021-07-29T11:37:14Z</time>
      </trkpt>
      <trkpt lat="48.89462" lon="6.05768">
        <ele>179</ele>
        <time>2021-07-29T11:37:15Z</time>
      </trkpt>
      <trkpt lat="48.89454" lon="6.05772">
        <ele>179</ele>
        <time>2021-07-29T11:37:17Z</time>
      </trkpt>
      <trkpt lat="48.89451" lon="6.05777">
        <ele>179</ele>
        <time>2021-07-29T11:37:18Z</time>
      </trkpt>
      <trkpt lat="48.89446" lon="6.05784">
        <ele>179.1</ele>
        <time>2021-07-29T11:37:19Z</time>
      </trkpt>
      <trkpt lat="48.89441" lon="6.05788">
        <ele>179.1</ele>
        <time>2021-07-29T11:37:21Z</time>
      </trkpt>
      <trkpt lat="48.89437" lon="6.05792">
        <ele>179.1</ele>
        <time>2021-07-29T11:37:22Z</time>
      </trkpt>
      <trkpt lat="48.89436" lon="6.0579">
        <ele>179.1</ele>
        <time>2021-07-29T11:37:23Z</time>
      </trkpt>
      <trkpt lat="48.89434" lon="6.05789">
        <ele>179.1</ele>
        <time>2021-07-29T11:37:24Z</time>
      </trkpt>
      <trkpt lat="48.89433" lon="6.05789">
        <ele>179.1</ele>
        <time>2021-07-29T11:37:25Z</time>
      </trkpt>
      <trkpt lat="48.89429" lon="6.0579">
        <ele>179.1</ele>
        <time>2021-07-29T11:37:27Z</time>
      </trkpt>
      <trkpt lat="48.89425" lon="6.05792">
        <ele>179.2</ele>
        <time>2021-07-29T11:37:29Z</time>
      </trkpt>
      <trkpt lat="48.89422" lon="6.05794">
        <ele>179.2</ele>
        <time>2021-07-29T11:37:30Z</time>
      </trkpt>
      <trkpt lat="48.89419" lon="6.05797">
        <ele>179.2</ele>
        <time>2021-07-29T11:37:32Z</time>
      </trkpt>
      <trkpt lat="48.89417" lon="6.058">
        <ele>179.2</ele>
        <time>2021-07-29T11:37:33Z</time>
      </trkpt>
      <trkpt lat="48.89415" lon="6.05802">
        <ele>179.2</ele>
        <time>2021-07-29T11:37:34Z</time>
      </trkpt>
      <trkpt lat="48.8941" lon="6.05806">
        <ele>179.3</ele>
        <time>2021-07-29T11:37:36Z</time>
      </trkpt>
      <trkpt lat="48.89405" lon="6.05809">
        <ele>179.3</ele>
        <time>2021-07-29T11:37:37Z</time>
      </trkpt>
      <trkpt lat="48.89401" lon="6.05812">
        <ele>179.3</ele>
        <time>2021-07-29T11:37:38Z</time>
      </trkpt>
      <trkpt lat="48.89396" lon="6.05818">
        <ele>179.3</ele>
        <time>2021-07-29T11:37:39Z</time>
      </trkpt>
      <trkpt lat="48.89392" lon="6.05823">
        <ele>179.4</ele>
        <time>2021-07-29T11:37:40Z</time>
      </trkpt>
      <trkpt lat="48.89386" lon="6.05828">
        <ele>179.3</ele>
        <time>2021-07-29T11:37:42Z</time>
      </trkpt>
      <trkpt lat="48.89382" lon="6.05832">
        <ele>179.3</ele>
        <time>2021-07-29T11:37:43Z</time>
      </trkpt>
      <trkpt lat="48.89382" lon="6.05835">
        <ele>179.3</ele>
        <time>2021-07-29T11:37:44Z</time>
      </trkpt>
      <trkpt lat="48.89378" lon="6.05839">
        <ele>179.3</ele>
        <time>2021-07-29T11:37:46Z</time>
      </trkpt>
      <trkpt lat="48.89373" lon="6.05842">
        <ele>179.3</ele>
        <time>2021-07-29T11:37:47Z</time>
      </trkpt>
      <trkpt lat="48.89362" lon="6.05847">
        <ele>179</ele>
        <time>2021-07-29T11:37:49Z</time>
      </trkpt>
      <trkpt lat="48.89358" lon="6.05848">
        <ele>179</ele>
        <time>2021-07-29T11:37:50Z</time>
      </trkpt>
      <trkpt lat="48.89352" lon="6.0585">
        <ele>178.9</ele>
        <time>2021-07-29T11:37:51Z</time>
      </trkpt>
      <trkpt lat="48.89347" lon="6.05852">
        <ele>178.9</ele>
        <time>2021-07-29T11:37:52Z</time>
      </trkpt>
      <trkpt lat="48.89342" lon="6.05855">
        <ele>178.8</ele>
        <time>2021-07-29T11:37:54Z</time>
      </trkpt>
      <trkpt lat="48.89337" lon="6.05859">
        <ele>178.8</ele>
        <time>2021-07-29T11:37:55Z</time>
      </trkpt>
      <trkpt lat="48.8933" lon="6.05866">
        <ele>178.7</ele>
        <time>2021-07-29T11:37:57Z</time>
      </trkpt>
      <trkpt lat="48.89326" lon="6.05868">
        <ele>178.7</ele>
        <time>2021-07-29T11:37:58Z</time>
      </trkpt>
      <trkpt lat="48.89319" lon="6.05874">
        <ele>178.7</ele>
        <time>2021-07-29T11:38:00Z</time>
      </trkpt>
      <trkpt lat="48.8931" lon="6.05886">
        <ele>178.6</ele>
        <time>2021-07-29T11:38:01Z</time>
      </trkpt>
      <trkpt lat="48.89306" lon="6.05889">
        <ele>178.6</ele>
        <time>2021-07-29T11:38:02Z</time>
      </trkpt>
      <trkpt lat="48.89299" lon="6.05889">
        <ele>178.6</ele>
        <time>2021-07-29T11:38:04Z</time>
      </trkpt>
      <trkpt lat="48.89297" lon="6.0589">
        <ele>178.6</ele>
        <time>2021-07-29T11:38:05Z</time>
      </trkpt>
      <trkpt lat="48.89295" lon="6.0589">
        <ele>178.6</ele>
        <time>2021-07-29T11:38:06Z</time>
      </trkpt>
      <trkpt lat="48.89291" lon="6.05882">
        <ele>178.6</ele>
        <time>2021-07-29T11:38:07Z</time>
      </trkpt>
      <trkpt lat="48.89285" lon="6.05873">
        <ele>178.6</ele>
        <time>2021-07-29T11:38:09Z</time>
      </trkpt>
      <trkpt lat="48.8928" lon="6.05872">
        <ele>178.6</ele>
        <time>2021-07-29T11:38:11Z</time>
      </trkpt>
      <trkpt lat="48.89278" lon="6.05871">
        <ele>178.7</ele>
        <time>2021-07-29T11:38:12Z</time>
      </trkpt>
      <trkpt lat="48.89271" lon="6.05871">
        <ele>178.7</ele>
        <time>2021-07-29T11:38:14Z</time>
      </trkpt>
      <trkpt lat="48.89264" lon="6.05869">
        <ele>178.8</ele>
        <time>2021-07-29T11:38:15Z</time>
      </trkpt>
      <trkpt lat="48.89253" lon="6.05863">
        <ele>178.9</ele>
        <time>2021-07-29T11:38:17Z</time>
      </trkpt>
      <trkpt lat="48.89247" lon="6.05858">
        <ele>179</ele>
        <time>2021-07-29T11:38:18Z</time>
      </trkpt>
      <trkpt lat="48.89238" lon="6.05854">
        <ele>179</ele>
        <time>2021-07-29T11:38:20Z</time>
      </trkpt>
      <trkpt lat="48.89234" lon="6.05849">
        <ele>179.1</ele>
        <time>2021-07-29T11:38:21Z</time>
      </trkpt>
      <trkpt lat="48.89232" lon="6.05844">
        <ele>179.1</ele>
        <time>2021-07-29T11:38:23Z</time>
      </trkpt>
      <trkpt lat="48.8923" lon="6.05839">
        <ele>179.1</ele>
        <time>2021-07-29T11:38:24Z</time>
      </trkpt>
      <trkpt lat="48.89228" lon="6.05833">
        <ele>179.1</ele>
        <time>2021-07-29T11:38:25Z</time>
      </trkpt>
      <trkpt lat="48.89225" lon="6.05826">
        <ele>179.1</ele>
        <time>2021-07-29T11:38:27Z</time>
      </trkpt>
      <trkpt lat="48.89224" lon="6.05817">
        <ele>179.1</ele>
        <time>2021-07-29T11:38:29Z</time>
      </trkpt>
      <trkpt lat="48.89223" lon="6.05811">
        <ele>179.1</ele>
        <time>2021-07-29T11:38:30Z</time>
      </trkpt>
      <trkpt lat="48.89221" lon="6.05803">
        <ele>179.2</ele>
        <time>2021-07-29T11:38:32Z</time>
      </trkpt>
      <trkpt lat="48.8922" lon="6.05797">
        <ele>179.2</ele>
        <time>2021-07-29T11:38:33Z</time>
      </trkpt>
      <trkpt lat="48.89218" lon="6.05792">
        <ele>179.2</ele>
        <time>2021-07-29T11:38:34Z</time>
      </trkpt>
      <trkpt lat="48.89217" lon="6.05784">
        <ele>179.2</ele>
        <time>2021-07-29T11:38:35Z</time>
      </trkpt>
      <trkpt lat="48.89216" lon="6.0578">
        <ele>179.2</ele>
        <time>2021-07-29T11:38:37Z</time>
      </trkpt>
      <trkpt lat="48.89215" lon="6.05777">
        <ele>179.2</ele>
        <time>2021-07-29T11:38:38Z</time>
      </trkpt>
      <trkpt lat="48.89212" lon="6.05769">
        <ele>179.3</ele>
        <time>2021-07-29T11:38:39Z</time>
      </trkpt>
      <trkpt lat="48.89209" lon="6.05762">
        <ele>179.3</ele>
        <time>2021-07-29T11:38:40Z</time>
      </trkpt>
      <trkpt lat="48.89206" lon="6.05757">
        <ele>179.3</ele>
        <time>2021-07-29T11:38:42Z</time>
      </trkpt>
      <trkpt lat="48.89202" lon="6.05751">
        <ele>179.4</ele>
        <time>2021-07-29T11:38:43Z</time>
      </trkpt>
      <trkpt lat="48.89199" lon="6.05746">
        <ele>179.4</ele>
        <time>2021-07-29T11:38:44Z</time>
      </trkpt>
      <trkpt lat="48.89197" lon="6.05738">
        <ele>179.4</ele>
        <time>2021-07-29T11:38:45Z</time>
      </trkpt>
      <trkpt lat="48.89194" lon="6.05731">
        <ele>179.5</ele>
        <time>2021-07-29T11:38:47Z</time>
      </trkpt>
      <trkpt lat="48.89191" lon="6.05726">
        <ele>179.5</ele>
        <time>2021-07-29T11:38:48Z</time>
      </trkpt>
      <trkpt lat="48.89187" lon="6.05716">
        <ele>179.6</ele>
        <time>2021-07-29T11:38:49Z</time>
      </trkpt>
      <trkpt lat="48.89184" lon="6.05709">
        <ele>179.6</ele>
        <time>2021-07-29T11:38:51Z</time>
      </trkpt>
      <trkpt lat="48.8918" lon="6.05701">
        <ele>179.7</ele>
        <time>2021-07-29T11:38:53Z</time>
      </trkpt>
      <trkpt lat="48.89177" lon="6.05693">
        <ele>179.8</ele>
        <time>2021-07-29T11:38:54Z</time>
      </trkpt>
      <trkpt lat="48.89176" lon="6.05687">
        <ele>179.8</ele>
        <time>2021-07-29T11:38:55Z</time>
      </trkpt>
      <trkpt lat="48.89172" lon="6.05676">
        <ele>179.9</ele>
        <time>2021-07-29T11:38:57Z</time>
      </trkpt>
      <trkpt lat="48.8917" lon="6.05671">
        <ele>179.9</ele>
        <time>2021-07-29T11:38:58Z</time>
      </trkpt>
      <trkpt lat="48.89168" lon="6.05666">
        <ele>179.9</ele>
        <time>2021-07-29T11:38:59Z</time>
      </trkpt>
      <trkpt lat="48.89167" lon="6.05662">
        <ele>179.9</ele>
        <time>2021-07-29T11:39:00Z</time>
      </trkpt>
      <trkpt lat="48.89165" lon="6.05655">
        <ele>179.9</ele>
        <time>2021-07-29T11:39:02Z</time>
      </trkpt>
      <trkpt lat="48.89169" lon="6.05654">
        <ele>179.9</ele>
        <time>2021-07-29T11:39:04Z</time>
      </trkpt>
      <trkpt lat="48.89172" lon="6.05653">
        <ele>179.9</ele>
        <time>2021-07-29T11:39:05Z</time>
      </trkpt>
      <trkpt lat="48.89174" lon="6.05653">
        <ele>179.9</ele>
        <time>2021-07-29T11:39:06Z</time>
      </trkpt>
      <trkpt lat="48.89174" lon="6.05652">
        <ele>179.9</ele>
        <time>2021-07-29T11:39:07Z</time>
      </trkpt>
      <trkpt lat="48.89174" lon="6.05652">
        <ele>179.9</ele>
        <time>2021-07-29T11:39:09Z</time>
      </trkpt>
      <trkpt lat="48.89174" lon="6.05652">
        <ele>179.9</ele>
        <time>2021-07-29T11:39:10Z</time>
      </trkpt>
      <trkpt lat="48.89173" lon="6.05651">
        <ele>179.9</ele>
        <time>2021-07-29T11:39:11Z</time>
      </trkpt>
      <trkpt lat="48.89172" lon="6.0565">
        <ele>179.9</ele>
        <time>2021-07-29T11:39:12Z</time>
      </trkpt>
      <trkpt lat="48.89085" lon="6.05665">
        <ele>180.9</ele>
        <time>2021-07-29T11:39:36Z</time>
      </trkpt>
      <trkpt lat="48.89081" lon="6.0567">
        <ele>180.9</ele>
        <time>2021-07-29T11:39:37Z</time>
      </trkpt>
      <trkpt lat="48.89077" lon="6.05673">
        <ele>180.9</ele>
        <time>2021-07-29T11:39:38Z</time>
      </trkpt>
      <trkpt lat="48.89073" lon="6.05678">
        <ele>180.9</ele>
        <time>2021-07-29T11:39:39Z</time>
      </trkpt>
      <trkpt lat="48.89068" lon="6.05684">
        <ele>181</ele>
        <time>2021-07-29T11:39:40Z</time>
      </trkpt>
      <trkpt lat="48.89064" lon="6.05689">
        <ele>181</ele>
        <time>2021-07-29T11:39:41Z</time>
      </trkpt>
      <trkpt lat="48.89061" lon="6.05693">
        <ele>181</ele>
        <time>2021-07-29T11:39:43Z</time>
      </trkpt>
      <trkpt lat="48.89058" lon="6.05698">
        <ele>181.1</ele>
        <time>2021-07-29T11:39:44Z</time>
      </trkpt>
      <trkpt lat="48.89056" lon="6.05703">
        <ele>181.1</ele>
        <time>2021-07-29T11:39:45Z</time>
      </trkpt>
      <trkpt lat="48.89056" lon="6.05703">
        <ele>181.1</ele>
        <time>2021-07-29T11:39:46Z</time>
      </trkpt>
      <trkpt lat="48.89055" lon="6.05705">
        <ele>181.1</ele>
        <time>2021-07-29T11:39:47Z</time>
      </trkpt>
      <trkpt lat="48.89049" lon="6.05715">
        <ele>181.2</ele>
        <time>2021-07-29T11:39:49Z</time>
      </trkpt>
      <trkpt lat="48.89046" lon="6.05717">
        <ele>181.2</ele>
        <time>2021-07-29T11:39:50Z</time>
      </trkpt>
      <trkpt lat="48.89042" lon="6.05721">
        <ele>181.2</ele>
        <time>2021-07-29T11:39:52Z</time>
      </trkpt>
      <trkpt lat="48.89036" lon="6.05727">
        <ele>181.3</ele>
        <time>2021-07-29T11:39:53Z</time>
      </trkpt>
      <trkpt lat="48.8903" lon="6.0573">
        <ele>181.3</ele>
        <time>2021-07-29T11:39:55Z</time>
      </trkpt>
      <trkpt lat="48.89024" lon="6.05733">
        <ele>181.3</ele>
        <time>2021-07-29T11:39:56Z</time>
      </trkpt>
      <trkpt lat="48.89009" lon="6.05751">
        <ele>181.3</ele>
        <time>2021-07-29T11:39:57Z</time>
      </trkpt>
      <trkpt lat="48.88998" lon="6.05761">
        <ele>181.3</ele>
        <time>2021-07-29T11:39:59Z</time>
      </trkpt>
      <trkpt lat="48.88994" lon="6.05764">
        <ele>181.3</ele>
        <time>2021-07-29T11:40:01Z</time>
      </trkpt>
      <trkpt lat="48.88992" lon="6.05766">
        <ele>181.3</ele>
        <time>2021-07-29T11:40:02Z</time>
      </trkpt>
      <trkpt lat="48.88988" lon="6.05767">
        <ele>181.3</ele>
        <time>2021-07-29T11:40:03Z</time>
      </trkpt>
      <trkpt lat="48.88985" lon="6.05767">
        <ele>181.4</ele>
        <time>2021-07-29T11:40:04Z</time>
      </trkpt>
      <trkpt lat="48.88983" lon="6.05767">
        <ele>181.4</ele>
        <time>2021-07-29T11:40:06Z</time>
      </trkpt>
      <trkpt lat="48.88981" lon="6.05767">
        <ele>181.4</ele>
        <time>2021-07-29T11:40:07Z</time>
      </trkpt>
      <trkpt lat="48.8898" lon="6.05768">
        <ele>181.4</ele>
        <time>2021-07-29T11:40:08Z</time>
      </trkpt>
      <trkpt lat="48.88972" lon="6.05772">
        <ele>181.4</ele>
        <time>2021-07-29T11:40:09Z</time>
      </trkpt>
      <trkpt lat="48.8891" lon="6.05778">
        <ele>181.5</ele>
        <time>2021-07-29T11:40:24Z</time>
      </trkpt>
      <trkpt lat="48.88891" lon="6.05818">
        <ele>181.5</ele>
        <time>2021-07-29T11:40:26Z</time>
      </trkpt>
      <trkpt lat="48.88879" lon="6.05842">
        <ele>181.5</ele>
        <time>2021-07-29T11:40:28Z</time>
      </trkpt>
      <trkpt lat="48.88874" lon="6.05849">
        <ele>181.5</ele>
        <time>2021-07-29T11:40:29Z</time>
      </trkpt>
      <trkpt lat="48.8887" lon="6.05852">
        <ele>181.5</ele>
        <time>2021-07-29T11:40:30Z</time>
      </trkpt>
      <trkpt lat="48.88866" lon="6.05856">
        <ele>181.5</ele>
        <time>2021-07-29T11:40:31Z</time>
      </trkpt>
      <trkpt lat="48.88861" lon="6.05861">
        <ele>181.5</ele>
        <time>2021-07-29T11:40:33Z</time>
      </trkpt>
      <trkpt lat="48.88853" lon="6.05868">
        <ele>181.5</ele>
        <time>2021-07-29T11:40:34Z</time>
      </trkpt>
      <trkpt lat="48.88848" lon="6.0587">
        <ele>181.4</ele>
        <time>2021-07-29T11:40:35Z</time>
      </trkpt>
      <trkpt lat="48.88842" lon="6.05874">
        <ele>181.4</ele>
        <time>2021-07-29T11:40:36Z</time>
      </trkpt>
      <trkpt lat="48.8883" lon="6.05881">
        <ele>181.3</ele>
        <time>2021-07-29T11:40:38Z</time>
      </trkpt>
      <trkpt lat="48.88819" lon="6.05884">
        <ele>181.1</ele>
        <time>2021-07-29T11:40:40Z</time>
      </trkpt>
      <trkpt lat="48.88815" lon="6.05886">
        <ele>181.1</ele>
        <time>2021-07-29T11:40:41Z</time>
      </trkpt>
      <trkpt lat="48.88809" lon="6.05893">
        <ele>180.9</ele>
        <time>2021-07-29T11:40:43Z</time>
      </trkpt>
      <trkpt lat="48.88805" lon="6.05897">
        <ele>180.9</ele>
        <time>2021-07-29T11:40:44Z</time>
      </trkpt>
      <trkpt lat="48.88797" lon="6.05902">
        <ele>180.7</ele>
        <time>2021-07-29T11:40:46Z</time>
      </trkpt>
      <trkpt lat="48.88792" lon="6.05904">
        <ele>180.6</ele>
        <time>2021-07-29T11:40:47Z</time>
      </trkpt>
      <trkpt lat="48.88787" lon="6.05907">
        <ele>180.6</ele>
        <time>2021-07-29T11:40:48Z</time>
      </trkpt>
      <trkpt lat="48.88783" lon="6.05911">
        <ele>180.5</ele>
        <time>2021-07-29T11:40:49Z</time>
      </trkpt>
      <trkpt lat="48.88778" lon="6.05913">
        <ele>180.4</ele>
        <time>2021-07-29T11:40:50Z</time>
      </trkpt>
      <trkpt lat="48.88768" lon="6.05917">
        <ele>180.3</ele>
        <time>2021-07-29T11:40:52Z</time>
      </trkpt>
      <trkpt lat="48.88764" lon="6.0592">
        <ele>180.2</ele>
        <time>2021-07-29T11:40:53Z</time>
      </trkpt>
      <trkpt lat="48.8876" lon="6.05924">
        <ele>180.2</ele>
        <time>2021-07-29T11:40:54Z</time>
      </trkpt>
      <trkpt lat="48.88751" lon="6.0593">
        <ele>180.1</ele>
        <time>2021-07-29T11:40:56Z</time>
      </trkpt>
      <trkpt lat="48.88739" lon="6.05933">
        <ele>180.1</ele>
        <time>2021-07-29T11:40:58Z</time>
      </trkpt>
      <trkpt lat="48.88728" lon="6.05937">
        <ele>180.1</ele>
        <time>2021-07-29T11:41:00Z</time>
      </trkpt>
      <trkpt lat="48.88719" lon="6.05942">
        <ele>180.1</ele>
        <time>2021-07-29T11:41:02Z</time>
      </trkpt>
      <trkpt lat="48.88705" lon="6.05947">
        <ele>180</ele>
        <time>2021-07-29T11:41:04Z</time>
      </trkpt>
      <trkpt lat="48.88691" lon="6.05951">
        <ele>180</ele>
        <time>2021-07-29T11:41:06Z</time>
      </trkpt>
      <trkpt lat="48.8868" lon="6.05956">
        <ele>180.1</ele>
        <time>2021-07-29T11:41:08Z</time>
      </trkpt>
      <trkpt lat="48.88671" lon="6.05963">
        <ele>180.1</ele>
        <time>2021-07-29T11:41:10Z</time>
      </trkpt>
      <trkpt lat="48.8866" lon="6.05968">
        <ele>180.2</ele>
        <time>2021-07-29T11:41:12Z</time>
      </trkpt>
      <trkpt lat="48.88655" lon="6.0597">
        <ele>180.2</ele>
        <time>2021-07-29T11:41:13Z</time>
      </trkpt>
      <trkpt lat="48.88649" lon="6.05973">
        <ele>180.3</ele>
        <time>2021-07-29T11:41:14Z</time>
      </trkpt>
      <trkpt lat="48.88641" lon="6.05979">
        <ele>180.3</ele>
        <time>2021-07-29T11:41:16Z</time>
      </trkpt>
      <trkpt lat="48.88636" lon="6.05987">
        <ele>180.3</ele>
        <time>2021-07-29T11:41:18Z</time>
      </trkpt>
      <trkpt lat="48.8863" lon="6.05995">
        <ele>180.4</ele>
        <time>2021-07-29T11:41:20Z</time>
      </trkpt>
      <trkpt lat="48.88621" lon="6.06005">
        <ele>180.4</ele>
        <time>2021-07-29T11:41:22Z</time>
      </trkpt>
      <trkpt lat="48.88616" lon="6.06008">
        <ele>180.4</ele>
        <time>2021-07-29T11:41:23Z</time>
      </trkpt>
      <trkpt lat="48.88611" lon="6.0601">
        <ele>180.4</ele>
        <time>2021-07-29T11:41:24Z</time>
      </trkpt>
      <trkpt lat="48.88605" lon="6.06015">
        <ele>180.4</ele>
        <time>2021-07-29T11:41:26Z</time>
      </trkpt>
      <trkpt lat="48.88602" lon="6.06019">
        <ele>180.4</ele>
        <time>2021-07-29T11:41:27Z</time>
      </trkpt>
      <trkpt lat="48.88599" lon="6.06023">
        <ele>180.5</ele>
        <time>2021-07-29T11:41:29Z</time>
      </trkpt>
      <trkpt lat="48.88599" lon="6.06026">
        <ele>180.5</ele>
        <time>2021-07-29T11:41:31Z</time>
      </trkpt>
      <trkpt lat="48.88599" lon="6.06027">
        <ele>180.5</ele>
        <time>2021-07-29T11:41:32Z</time>
      </trkpt>
      <trkpt lat="48.88598" lon="6.06028">
        <ele>180.5</ele>
        <time>2021-07-29T11:41:33Z</time>
      </trkpt>
      <trkpt lat="48.88598" lon="6.0603">
        <ele>180.5</ele>
        <time>2021-07-29T11:41:34Z</time>
      </trkpt>
      <trkpt lat="48.88596" lon="6.06035">
        <ele>180.5</ele>
        <time>2021-07-29T11:41:36Z</time>
      </trkpt>
      <trkpt lat="48.88595" lon="6.06037">
        <ele>180.5</ele>
        <time>2021-07-29T11:41:37Z</time>
      </trkpt>
      <trkpt lat="48.88592" lon="6.0604">
        <ele>180.5</ele>
        <time>2021-07-29T11:41:38Z</time>
      </trkpt>
      <trkpt lat="48.88591" lon="6.06042">
        <ele>180.5</ele>
        <time>2021-07-29T11:41:39Z</time>
      </trkpt>
      <trkpt lat="48.88586" lon="6.06045">
        <ele>180.6</ele>
        <time>2021-07-29T11:41:41Z</time>
      </trkpt>
      <trkpt lat="48.88584" lon="6.06046">
        <ele>180.6</ele>
        <time>2021-07-29T11:41:42Z</time>
      </trkpt>
      <trkpt lat="48.88584" lon="6.06046">
        <ele>180.6</ele>
        <time>2021-07-29T11:41:43Z</time>
      </trkpt>
      <trkpt lat="48.8858" lon="6.06047">
        <ele>180.6</ele>
        <time>2021-07-29T11:41:44Z</time>
      </trkpt>
      <trkpt lat="48.88578" lon="6.06048">
        <ele>180.6</ele>
        <time>2021-07-29T11:41:45Z</time>
      </trkpt>
      <trkpt lat="48.88577" lon="6.06049">
        <ele>180.6</ele>
        <time>2021-07-29T11:41:47Z</time>
      </trkpt>
      <trkpt lat="48.88576" lon="6.06049">
        <ele>180.6</ele>
        <time>2021-07-29T11:41:48Z</time>
      </trkpt>
      <trkpt lat="48.88573" lon="6.0605">
        <ele>180.6</ele>
        <time>2021-07-29T11:41:50Z</time>
      </trkpt>
      <trkpt lat="48.88571" lon="6.0605">
        <ele>180.6</ele>
        <time>2021-07-29T11:41:52Z</time>
      </trkpt>
      <trkpt lat="48.88562" lon="6.06053">
        <ele>180.6</ele>
        <time>2021-07-29T11:41:55Z</time>
      </trkpt>
      <trkpt lat="48.88557" lon="6.06055">
        <ele>180.6</ele>
        <time>2021-07-29T11:41:57Z</time>
      </trkpt>
      <trkpt lat="48.88553" lon="6.06055">
        <ele>180.7</ele>
        <time>2021-07-29T11:41:58Z</time>
      </trkpt>
      <trkpt lat="48.88548" lon="6.06055">
        <ele>180.7</ele>
        <time>2021-07-29T11:41:59Z</time>
      </trkpt>
      <trkpt lat="48.88547" lon="6.06054">
        <ele>180.7</ele>
        <time>2021-07-29T11:42:00Z</time>
      </trkpt>
      <trkpt lat="48.88545" lon="6.06054">
        <ele>180.7</ele>
        <time>2021-07-29T11:42:02Z</time>
      </trkpt>
      <trkpt lat="48.88542" lon="6.06055">
        <ele>180.7</ele>
        <time>2021-07-29T11:42:04Z</time>
      </trkpt>
      <trkpt lat="48.88541" lon="6.06055">
        <ele>180.7</ele>
        <time>2021-07-29T11:42:05Z</time>
      </trkpt>
      <trkpt lat="48.88541" lon="6.06055">
        <ele>180.7</ele>
        <time>2021-07-29T11:42:06Z</time>
      </trkpt>
      <trkpt lat="48.8854" lon="6.06055">
        <ele>180.7</ele>
        <time>2021-07-29T11:42:07Z</time>
      </trkpt>
      <trkpt lat="48.88539" lon="6.06056">
        <ele>180.7</ele>
        <time>2021-07-29T11:42:09Z</time>
      </trkpt>
      <trkpt lat="48.88341" lon="6.06138">
        <ele>180.9</ele>
        <time>2021-07-29T11:42:48Z</time>
      </trkpt>
      <trkpt lat="48.88325" lon="6.06146">
        <ele>180.3</ele>
        <time>2021-07-29T11:42:50Z</time>
      </trkpt>
      <trkpt lat="48.88313" lon="6.06155">
        <ele>179.9</ele>
        <time>2021-07-29T11:42:52Z</time>
      </trkpt>
      <trkpt lat="48.883" lon="6.06174">
        <ele>179.5</ele>
        <time>2021-07-29T11:42:54Z</time>
      </trkpt>
      <trkpt lat="48.88287" lon="6.06197">
        <ele>179.3</ele>
        <time>2021-07-29T11:42:56Z</time>
      </trkpt>
      <trkpt lat="48.88281" lon="6.06213">
        <ele>179.2</ele>
        <time>2021-07-29T11:42:57Z</time>
      </trkpt>
      <trkpt lat="48.8827" lon="6.06237">
        <ele>179.2</ele>
        <time>2021-07-29T11:42:59Z</time>
      </trkpt>
      <trkpt lat="48.88264" lon="6.06246">
        <ele>179.1</ele>
        <time>2021-07-29T11:43:00Z</time>
      </trkpt>
      <trkpt lat="48.88256" lon="6.06255">
        <ele>179.1</ele>
        <time>2021-07-29T11:43:02Z</time>
      </trkpt>
      <trkpt lat="48.88247" lon="6.06263">
        <ele>179.1</ele>
        <time>2021-07-29T11:43:04Z</time>
      </trkpt>
      <trkpt lat="48.88238" lon="6.0627">
        <ele>179.1</ele>
        <time>2021-07-29T11:43:06Z</time>
      </trkpt>
      <trkpt lat="48.88229" lon="6.06276">
        <ele>179.1</ele>
        <time>2021-07-29T11:43:08Z</time>
      </trkpt>
      <trkpt lat="48.88224" lon="6.06281">
        <ele>179.1</ele>
        <time>2021-07-29T11:43:10Z</time>
      </trkpt>
      <trkpt lat="48.88218" lon="6.06283">
        <ele>179.1</ele>
        <time>2021-07-29T11:43:12Z</time>
      </trkpt>
      <trkpt lat="48.88212" lon="6.06284">
        <ele>179.1</ele>
        <time>2021-07-29T11:43:14Z</time>
      </trkpt>
      <trkpt lat="48.88208" lon="6.06288">
        <ele>179</ele>
        <time>2021-07-29T11:43:15Z</time>
      </trkpt>
      <trkpt lat="48.88206" lon="6.06295">
        <ele>179</ele>
        <time>2021-07-29T11:43:17Z</time>
      </trkpt>
      <trkpt lat="48.882" lon="6.06299">
        <ele>179</ele>
        <time>2021-07-29T11:43:19Z</time>
      </trkpt>
      <trkpt lat="48.88196" lon="6.06302">
        <ele>179</ele>
        <time>2021-07-29T11:43:20Z</time>
      </trkpt>
      <trkpt lat="48.88188" lon="6.06309">
        <ele>179.1</ele>
        <time>2021-07-29T11:43:22Z</time>
      </trkpt>
      <trkpt lat="48.88184" lon="6.06312">
        <ele>179.1</ele>
        <time>2021-07-29T11:43:23Z</time>
      </trkpt>
      <trkpt lat="48.8818" lon="6.06314">
        <ele>179.1</ele>
        <time>2021-07-29T11:43:24Z</time>
      </trkpt>
      <trkpt lat="48.88173" lon="6.06318">
        <ele>179.1</ele>
        <time>2021-07-29T11:43:26Z</time>
      </trkpt>
      <trkpt lat="48.88168" lon="6.0632">
        <ele>179.1</ele>
        <time>2021-07-29T11:43:27Z</time>
      </trkpt>
      <trkpt lat="48.88164" lon="6.06322">
        <ele>179.1</ele>
        <time>2021-07-29T11:43:28Z</time>
      </trkpt>
      <trkpt lat="48.88158" lon="6.06327">
        <ele>179.1</ele>
        <time>2021-07-29T11:43:30Z</time>
      </trkpt>
      <trkpt lat="48.88153" lon="6.06332">
        <ele>179.1</ele>
        <time>2021-07-29T11:43:31Z</time>
      </trkpt>
      <trkpt lat="48.88151" lon="6.06332">
        <ele>179.1</ele>
        <time>2021-07-29T11:43:33Z</time>
      </trkpt>
      <trkpt lat="48.8815" lon="6.06333">
        <ele>179.1</ele>
        <time>2021-07-29T11:43:34Z</time>
      </trkpt>
      <trkpt lat="48.88149" lon="6.06334">
        <ele>179.1</ele>
        <time>2021-07-29T11:43:35Z</time>
      </trkpt>
      <trkpt lat="48.88147" lon="6.06335">
        <ele>179.1</ele>
        <time>2021-07-29T11:43:36Z</time>
      </trkpt>
      <trkpt lat="48.88144" lon="6.06336">
        <ele>179.1</ele>
        <time>2021-07-29T11:43:38Z</time>
      </trkpt>
      <trkpt lat="48.88143" lon="6.06336">
        <ele>179.1</ele>
        <time>2021-07-29T11:43:39Z</time>
      </trkpt>
      <trkpt lat="48.88142" lon="6.06336">
        <ele>179.1</ele>
        <time>2021-07-29T11:43:40Z</time>
      </trkpt>
      <trkpt lat="48.88141" lon="6.06336">
        <ele>179.1</ele>
        <time>2021-07-29T11:43:41Z</time>
      </trkpt>
      <trkpt lat="48.88122" lon="6.06347">
        <ele>179.1</ele>
        <time>2021-07-29T11:43:53Z</time>
      </trkpt>
      <trkpt lat="48.88119" lon="6.06348">
        <ele>179.2</ele>
        <time>2021-07-29T11:43:54Z</time>
      </trkpt>
      <trkpt lat="48.88117" lon="6.06351">
        <ele>179.2</ele>
        <time>2021-07-29T11:43:56Z</time>
      </trkpt>
      <trkpt lat="48.88115" lon="6.06355">
        <ele>179.2</ele>
        <time>2021-07-29T11:43:58Z</time>
      </trkpt>
      <trkpt lat="48.8811" lon="6.06366">
        <ele>179.3</ele>
        <time>2021-07-29T11:44:00Z</time>
      </trkpt>
      <trkpt lat="48.88108" lon="6.06371">
        <ele>179.3</ele>
        <time>2021-07-29T11:44:01Z</time>
      </trkpt>
      <trkpt lat="48.88106" lon="6.06376">
        <ele>179.3</ele>
        <time>2021-07-29T11:44:02Z</time>
      </trkpt>
      <trkpt lat="48.88103" lon="6.06382">
        <ele>179.4</ele>
        <time>2021-07-29T11:44:04Z</time>
      </trkpt>
      <trkpt lat="48.881" lon="6.06385">
        <ele>179.4</ele>
        <time>2021-07-29T11:44:06Z</time>
      </trkpt>
      <trkpt lat="48.88098" lon="6.06385">
        <ele>179.4</ele>
        <time>2021-07-29T11:44:07Z</time>
      </trkpt>
      <trkpt lat="48.88095" lon="6.06387">
        <ele>179.4</ele>
        <time>2021-07-29T11:44:08Z</time>
      </trkpt>
      <trkpt lat="48.88088" lon="6.06389">
        <ele>179.5</ele>
        <time>2021-07-29T11:44:09Z</time>
      </trkpt>
      <trkpt lat="48.88084" lon="6.0639">
        <ele>179.5</ele>
        <time>2021-07-29T11:44:11Z</time>
      </trkpt>
      <trkpt lat="48.88066" lon="6.06395">
        <ele>179.5</ele>
        <time>2021-07-29T11:44:12Z</time>
      </trkpt>
      <trkpt lat="48.88061" lon="6.06397">
        <ele>179.5</ele>
        <time>2021-07-29T11:44:13Z</time>
      </trkpt>
      <trkpt lat="48.88055" lon="6.06401">
        <ele>179.5</ele>
        <time>2021-07-29T11:44:15Z</time>
      </trkpt>
      <trkpt lat="48.88048" lon="6.06406">
        <ele>179.4</ele>
        <time>2021-07-29T11:44:16Z</time>
      </trkpt>
      <trkpt lat="48.88025" lon="6.0642">
        <ele>179.4</ele>
        <time>2021-07-29T11:44:17Z</time>
      </trkpt>
      <trkpt lat="48.88017" lon="6.06425">
        <ele>179.4</ele>
        <time>2021-07-29T11:44:19Z</time>
      </trkpt>
      <trkpt lat="48.88009" lon="6.06428">
        <ele>179.5</ele>
        <time>2021-07-29T11:44:20Z</time>
      </trkpt>
      <trkpt lat="48.87993" lon="6.06436">
        <ele>179.5</ele>
        <time>2021-07-29T11:44:22Z</time>
      </trkpt>
      <trkpt lat="48.87984" lon="6.06439">
        <ele>179.5</ele>
        <time>2021-07-29T11:44:23Z</time>
      </trkpt>
      <trkpt lat="48.87976" lon="6.06442">
        <ele>179.4</ele>
        <time>2021-07-29T11:44:24Z</time>
      </trkpt>
      <trkpt lat="48.87962" lon="6.06446">
        <ele>179.4</ele>
        <time>2021-07-29T11:44:26Z</time>
      </trkpt>
      <trkpt lat="48.87951" lon="6.06451">
        <ele>179.4</ele>
        <time>2021-07-29T11:44:28Z</time>
      </trkpt>
      <trkpt lat="48.87944" lon="6.06454">
        <ele>179.4</ele>
        <time>2021-07-29T11:44:30Z</time>
      </trkpt>
      <trkpt lat="48.87938" lon="6.06457">
        <ele>179.4</ele>
        <time>2021-07-29T11:44:32Z</time>
      </trkpt>
      <trkpt lat="48.87929" lon="6.06462">
        <ele>179.4</ele>
        <time>2021-07-29T11:44:34Z</time>
      </trkpt>
      <trkpt lat="48.87924" lon="6.06465">
        <ele>179.4</ele>
        <time>2021-07-29T11:44:35Z</time>
      </trkpt>
      <trkpt lat="48.87923" lon="6.06465">
        <ele>179.4</ele>
        <time>2021-07-29T11:44:36Z</time>
      </trkpt>
      <trkpt lat="48.87922" lon="6.06466">
        <ele>179.4</ele>
        <time>2021-07-29T11:44:38Z</time>
      </trkpt>
      <trkpt lat="48.87463" lon="6.06745">
        <ele>181</ele>
        <time>2021-07-29T11:46:25Z</time>
      </trkpt>
      <trkpt lat="48.87448" lon="6.06751">
        <ele>181.1</ele>
        <time>2021-07-29T11:46:26Z</time>
      </trkpt>
      <trkpt lat="48.87431" lon="6.06755">
        <ele>181.2</ele>
        <time>2021-07-29T11:46:28Z</time>
      </trkpt>
      <trkpt lat="48.87425" lon="6.0676">
        <ele>181.2</ele>
        <time>2021-07-29T11:46:30Z</time>
      </trkpt>
      <trkpt lat="48.87421" lon="6.06763">
        <ele>181.2</ele>
        <time>2021-07-29T11:46:32Z</time>
      </trkpt>
      <trkpt lat="48.87418" lon="6.06765">
        <ele>181.2</ele>
        <time>2021-07-29T11:46:33Z</time>
      </trkpt>
      <trkpt lat="48.87412" lon="6.06771">
        <ele>181.3</ele>
        <time>2021-07-29T11:46:34Z</time>
      </trkpt>
      <trkpt lat="48.8741" lon="6.06772">
        <ele>181.3</ele>
        <time>2021-07-29T11:46:36Z</time>
      </trkpt>
      <trkpt lat="48.87348" lon="6.06828">
        <ele>181.6</ele>
        <time>2021-07-29T11:47:04Z</time>
      </trkpt>
      <trkpt lat="48.87345" lon="6.0683">
        <ele>181.7</ele>
        <time>2021-07-29T11:47:06Z</time>
      </trkpt>
      <trkpt lat="48.87344" lon="6.0683">
        <ele>181.7</ele>
        <time>2021-07-29T11:47:07Z</time>
      </trkpt>
      <trkpt lat="48.87343" lon="6.0683">
        <ele>181.7</ele>
        <time>2021-07-29T11:47:08Z</time>
      </trkpt>
      <trkpt lat="48.87342" lon="6.0683">
        <ele>181.7</ele>
        <time>2021-07-29T11:47:09Z</time>
      </trkpt>
      <trkpt lat="48.8734" lon="6.0683">
        <ele>181.7</ele>
        <time>2021-07-29T11:47:11Z</time>
      </trkpt>
      <trkpt lat="48.87339" lon="6.06832">
        <ele>181.8</ele>
        <time>2021-07-29T11:47:12Z</time>
      </trkpt>
      <trkpt lat="48.87336" lon="6.06837">
        <ele>181.8</ele>
        <time>2021-07-29T11:47:13Z</time>
      </trkpt>
      <trkpt lat="48.87333" lon="6.0684">
        <ele>181.8</ele>
        <time>2021-07-29T11:47:15Z</time>
      </trkpt>
      <trkpt lat="48.87329" lon="6.06842">
        <ele>181.9</ele>
        <time>2021-07-29T11:47:16Z</time>
      </trkpt>
      <trkpt lat="48.87325" lon="6.06845">
        <ele>181.9</ele>
        <time>2021-07-29T11:47:17Z</time>
      </trkpt>
      <trkpt lat="48.87324" lon="6.06847">
        <ele>182</ele>
        <time>2021-07-29T11:47:19Z</time>
      </trkpt>
      <trkpt lat="48.87326" lon="6.0685">
        <ele>182</ele>
        <time>2021-07-29T11:47:20Z</time>
      </trkpt>
      <trkpt lat="48.87324" lon="6.06855">
        <ele>182</ele>
        <time>2021-07-29T11:47:21Z</time>
      </trkpt>
      <trkpt lat="48.87321" lon="6.06859">
        <ele>182.1</ele>
        <time>2021-07-29T11:47:23Z</time>
      </trkpt>
      <trkpt lat="48.8732" lon="6.06859">
        <ele>182.1</ele>
        <time>2021-07-29T11:47:24Z</time>
      </trkpt>
      <trkpt lat="48.87318" lon="6.06861">
        <ele>182.1</ele>
        <time>2021-07-29T11:47:25Z</time>
      </trkpt>
      <trkpt lat="48.87314" lon="6.06863">
        <ele>182.2</ele>
        <time>2021-07-29T11:47:26Z</time>
      </trkpt>
      <trkpt lat="48.87311" lon="6.06865">
        <ele>182.2</ele>
        <time>2021-07-29T11:47:27Z</time>
      </trkpt>
      <trkpt lat="48.87307" lon="6.06867">
        <ele>182.3</ele>
        <time>2021-07-29T11:47:28Z</time>
      </trkpt>
      <trkpt lat="48.87303" lon="6.06868">
        <ele>182.3</ele>
        <time>2021-07-29T11:47:30Z</time>
      </trkpt>
      <trkpt lat="48.87299" lon="6.06869">
        <ele>182.4</ele>
        <time>2021-07-29T11:47:31Z</time>
      </trkpt>
      <trkpt lat="48.87296" lon="6.0687">
        <ele>182.4</ele>
        <time>2021-07-29T11:47:32Z</time>
      </trkpt>
      <trkpt lat="48.87292" lon="6.06874">
        <ele>182.5</ele>
        <time>2021-07-29T11:47:34Z</time>
      </trkpt>
      <trkpt lat="48.87289" lon="6.06874">
        <ele>182.5</ele>
        <time>2021-07-29T11:47:35Z</time>
      </trkpt>
      <trkpt lat="48.87287" lon="6.06875">
        <ele>182.5</ele>
        <time>2021-07-29T11:47:36Z</time>
      </trkpt>
      <trkpt lat="48.8728" lon="6.0688">
        <ele>182.6</ele>
        <time>2021-07-29T11:47:38Z</time>
      </trkpt>
      <trkpt lat="48.87275" lon="6.06881">
        <ele>182.7</ele>
        <time>2021-07-29T11:47:39Z</time>
      </trkpt>
      <trkpt lat="48.87269" lon="6.06884">
        <ele>182.7</ele>
        <time>2021-07-29T11:47:41Z</time>
      </trkpt>
      <trkpt lat="48.87266" lon="6.06885">
        <ele>182.8</ele>
        <time>2021-07-29T11:47:42Z</time>
      </trkpt>
      <trkpt lat="48.87261" lon="6.06885">
        <ele>182.8</ele>
        <time>2021-07-29T11:47:44Z</time>
      </trkpt>
      <trkpt lat="48.87258" lon="6.06888">
        <ele>182.8</ele>
        <time>2021-07-29T11:47:46Z</time>
      </trkpt>
      <trkpt lat="48.87257" lon="6.06888">
        <ele>182.8</ele>
        <time>2021-07-29T11:47:47Z</time>
      </trkpt>
      <trkpt lat="48.87255" lon="6.06888">
        <ele>182.8</ele>
        <time>2021-07-29T11:47:48Z</time>
      </trkpt>
      <trkpt lat="48.87253" lon="6.06889">
        <ele>182.8</ele>
        <time>2021-07-29T11:47:50Z</time>
      </trkpt>
      <trkpt lat="48.87248" lon="6.06887">
        <ele>182.8</ele>
        <time>2021-07-29T11:47:52Z</time>
      </trkpt>
      <trkpt lat="48.87246" lon="6.06887">
        <ele>182.8</ele>
        <time>2021-07-29T11:47:53Z</time>
      </trkpt>
      <trkpt lat="48.87241" lon="6.06888">
        <ele>182.8</ele>
        <time>2021-07-29T11:47:55Z</time>
      </trkpt>
      <trkpt lat="48.87236" lon="6.06889">
        <ele>182.8</ele>
        <time>2021-07-29T11:47:56Z</time>
      </trkpt>
      <trkpt lat="48.87232" lon="6.06891">
        <ele>182.9</ele>
        <time>2021-07-29T11:47:58Z</time>
      </trkpt>
      <trkpt lat="48.87228" lon="6.06894">
        <ele>182.9</ele>
        <time>2021-07-29T11:47:59Z</time>
      </trkpt>
      <trkpt lat="48.87225" lon="6.06895">
        <ele>182.9</ele>
        <time>2021-07-29T11:48:00Z</time>
      </trkpt>
      <trkpt lat="48.87222" lon="6.06898">
        <ele>182.9</ele>
        <time>2021-07-29T11:48:01Z</time>
      </trkpt>
      <trkpt lat="48.8722" lon="6.06902">
        <ele>182.9</ele>
        <time>2021-07-29T11:48:02Z</time>
      </trkpt>
      <trkpt lat="48.87215" lon="6.0691">
        <ele>182.9</ele>
        <time>2021-07-29T11:48:04Z</time>
      </trkpt>
      <trkpt lat="48.87212" lon="6.06914">
        <ele>183</ele>
        <time>2021-07-29T11:48:05Z</time>
      </trkpt>
      <trkpt lat="48.87207" lon="6.06921">
        <ele>183</ele>
        <time>2021-07-29T11:48:06Z</time>
      </trkpt>
      <trkpt lat="48.87202" lon="6.06926">
        <ele>183</ele>
        <time>2021-07-29T11:48:07Z</time>
      </trkpt>
      <trkpt lat="48.87197" lon="6.06929">
        <ele>183</ele>
        <time>2021-07-29T11:48:09Z</time>
      </trkpt>
      <trkpt lat="48.87194" lon="6.06933">
        <ele>183.1</ele>
        <time>2021-07-29T11:48:10Z</time>
      </trkpt>
      <trkpt lat="48.8719" lon="6.06937">
        <ele>183.1</ele>
        <time>2021-07-29T11:48:12Z</time>
      </trkpt>
      <trkpt lat="48.87187" lon="6.06939">
        <ele>183.1</ele>
        <time>2021-07-29T11:48:13Z</time>
      </trkpt>
      <trkpt lat="48.87184" lon="6.06942">
        <ele>183.1</ele>
        <time>2021-07-29T11:48:14Z</time>
      </trkpt>
      <trkpt lat="48.87178" lon="6.06947">
        <ele>183.1</ele>
        <time>2021-07-29T11:48:15Z</time>
      </trkpt>
      <trkpt lat="48.87174" lon="6.06953">
        <ele>183.2</ele>
        <time>2021-07-29T11:48:17Z</time>
      </trkpt>
      <trkpt lat="48.87172" lon="6.06962">
        <ele>183.2</ele>
        <time>2021-07-29T11:48:19Z</time>
      </trkpt>
      <trkpt lat="48.87173" lon="6.06966">
        <ele>183.2</ele>
        <time>2021-07-29T11:48:20Z</time>
      </trkpt>
      <trkpt lat="48.87172" lon="6.0697">
        <ele>183.2</ele>
        <time>2021-07-29T11:48:22Z</time>
      </trkpt>
      <trkpt lat="48.87172" lon="6.06971">
        <ele>183.3</ele>
        <time>2021-07-29T11:48:23Z</time>
      </trkpt>
      <trkpt lat="48.8717" lon="6.0697">
        <ele>183.3</ele>
        <time>2021-07-29T11:48:24Z</time>
      </trkpt>
      <trkpt lat="48.87167" lon="6.06969">
        <ele>183.3</ele>
        <time>2021-07-29T11:48:26Z</time>
      </trkpt>
      <trkpt lat="48.87166" lon="6.06968">
        <ele>183.3</ele>
        <time>2021-07-29T11:48:27Z</time>
      </trkpt>
      <trkpt lat="48.8716" lon="6.06964">
        <ele>183.4</ele>
        <time>2021-07-29T11:48:29Z</time>
      </trkpt>
      <trkpt lat="48.87157" lon="6.06963">
        <ele>183.4</ele>
        <time>2021-07-29T11:48:30Z</time>
      </trkpt>
      <trkpt lat="48.87152" lon="6.06962">
        <ele>183.4</ele>
        <time>2021-07-29T11:48:32Z</time>
      </trkpt>
      <trkpt lat="48.87149" lon="6.06963">
        <ele>183.5</ele>
        <time>2021-07-29T11:48:34Z</time>
      </trkpt>
      <trkpt lat="48.87148" lon="6.06965">
        <ele>183.5</ele>
        <time>2021-07-29T11:48:36Z</time>
      </trkpt>
      <trkpt lat="48.87148" lon="6.06967">
        <ele>183.5</ele>
        <time>2021-07-29T11:48:37Z</time>
      </trkpt>
      <trkpt lat="48.87151" lon="6.06969">
        <ele>183.5</ele>
        <time>2021-07-29T11:48:39Z</time>
      </trkpt>
      <trkpt lat="48.87153" lon="6.06969">
        <ele>183.5</ele>
        <time>2021-07-29T11:48:40Z</time>
      </trkpt>
      <trkpt lat="48.87153" lon="6.06969">
        <ele>183.5</ele>
        <time>2021-07-29T11:48:41Z</time>
      </trkpt>
      <trkpt lat="48.87153" lon="6.06969">
        <ele>183.5</ele>
        <time>2021-07-29T11:48:42Z</time>
      </trkpt>
      <trkpt lat="48.87154" lon="6.06969">
        <ele>183.5</ele>
        <time>2021-07-29T11:48:44Z</time>
      </trkpt>
      <trkpt lat="48.87154" lon="6.06969">
        <ele>183.5</ele>
        <time>2021-07-29T11:48:46Z</time>
      </trkpt>
      <trkpt lat="48.87154" lon="6.06969">
        <ele>183.5</ele>
        <time>2021-07-29T11:48:47Z</time>
      </trkpt>
      <trkpt lat="48.87168" lon="6.06955">
        <ele>183.6</ele>
        <time>2021-07-29T11:56:46Z</time>
      </trkpt>
      <trkpt lat="48.87167" lon="6.06951">
        <ele>183.6</ele>
        <time>2021-07-29T11:56:48Z</time>
      </trkpt>
      <trkpt lat="48.87166" lon="6.0695">
        <ele>183.6</ele>
        <time>2021-07-29T11:56:50Z</time>
      </trkpt>
      <trkpt lat="48.87165" lon="6.06949">
        <ele>183.6</ele>
        <time>2021-07-29T11:56:52Z</time>
      </trkpt>
      <trkpt lat="48.87165" lon="6.06949">
        <ele>183.6</ele>
        <time>2021-07-29T11:56:54Z</time>
      </trkpt>
      <trkpt lat="48.87165" lon="6.06949">
        <ele>183.6</ele>
        <time>2021-07-29T11:56:56Z</time>
      </trkpt>
      <trkpt lat="48.87165" lon="6.06949">
        <ele>183.6</ele>
        <time>2021-07-29T11:56:58Z</time>
      </trkpt>
      <trkpt lat="48.87165" lon="6.06949">
        <ele>183.6</ele>
        <time>2021-07-29T11:57:00Z</time>
      </trkpt>
      <trkpt lat="48.87166" lon="6.0695">
        <ele>183.6</ele>
        <time>2021-07-29T11:57:01Z</time>
      </trkpt>
      <trkpt lat="48.87166" lon="6.0695">
        <ele>183.6</ele>
        <time>2021-07-29T11:57:02Z</time>
      </trkpt>
      <trkpt lat="48.87166" lon="6.06949">
        <ele>183.6</ele>
        <time>2021-07-29T11:57:03Z</time>
      </trkpt>
      <trkpt lat="48.87166" lon="6.06949">
        <ele>183.6</ele>
        <time>2021-07-29T11:57:05Z</time>
      </trkpt>
      <trkpt lat="48.87166" lon="6.06949">
        <ele>183.6</ele>
        <time>2021-07-29T11:57:06Z</time>
      </trkpt>
      <trkpt lat="48.87166" lon="6.06949">
        <ele>183.6</ele>
        <time>2021-07-29T11:57:08Z</time>
      </trkpt>
      <trkpt lat="48.87166" lon="6.06949">
        <ele>183.6</ele>
        <time>2021-07-29T11:57:10Z</time>
      </trkpt>
      <trkpt lat="48.87166" lon="6.06949">
        <ele>183.6</ele>
        <time>2021-07-29T11:57:11Z</time>
      </trkpt>
      <trkpt lat="48.87165" lon="6.06948">
        <ele>183.6</ele>
        <time>2021-07-29T11:57:13Z</time>
      </trkpt>
      <trkpt lat="48.87165" lon="6.06948">
        <ele>183.6</ele>
        <time>2021-07-29T11:57:14Z</time>
      </trkpt>
      <trkpt lat="48.87165" lon="6.06948">
        <ele>183.6</ele>
        <time>2021-07-29T11:57:16Z</time>
      </trkpt>
      <trkpt lat="48.87165" lon="6.06948">
        <ele>183.6</ele>
        <time>2021-07-29T11:57:17Z</time>
      </trkpt>
      <trkpt lat="48.87165" lon="6.06948">
        <ele>183.6</ele>
        <time>2021-07-29T11:57:19Z</time>
      </trkpt>
      <trkpt lat="48.87165" lon="6.06949">
        <ele>183.6</ele>
        <time>2021-07-29T11:57:20Z</time>
      </trkpt>
      <trkpt lat="48.87165" lon="6.06949">
        <ele>183.6</ele>
        <time>2021-07-29T11:57:22Z</time>
      </trkpt>
      <trkpt lat="48.87165" lon="6.06949">
        <ele>183.6</ele>
        <time>2021-07-29T11:57:23Z</time>
      </trkpt>
      <trkpt lat="48.87165" lon="6.06949">
        <ele>183.6</ele>
        <time>2021-07-29T11:57:25Z</time>
      </trkpt>
      <trkpt lat="48.87165" lon="6.06949">
        <ele>183.6</ele>
        <time>2021-07-29T11:57:26Z</time>
      </trkpt>
      <trkpt lat="48.87165" lon="6.06949">
        <ele>183.6</ele>
        <time>2021-07-29T11:57:28Z</time>
      </trkpt>
      <trkpt lat="48.87165" lon="6.06949">
        <ele>183.6</ele>
        <time>2021-07-29T11:57:29Z</time>
      </trkpt>
      <trkpt lat="48.87165" lon="6.06949">
        <ele>183.6</ele>
        <time>2021-07-29T11:57:31Z</time>
      </trkpt>
      <trkpt lat="48.87165" lon="6.06949">
        <ele>183.6</ele>
        <time>2021-07-29T11:57:32Z</time>
      </trkpt>
      <trkpt lat="48.87165" lon="6.06949">
        <ele>183.6</ele>
        <time>2021-07-29T11:57:34Z</time>
      </trkpt>
      <trkpt lat="48.87165" lon="6.06949">
        <ele>183.6</ele>
        <time>2021-07-29T11:57:35Z</time>
      </trkpt>
      <trkpt lat="48.87165" lon="6.06949">
        <ele>183.6</ele>
        <time>2021-07-29T11:57:37Z</time>
      </trkpt>
      <trkpt lat="48.87165" lon="6.06949">
        <ele>183.6</ele>
        <time>2021-07-29T11:57:38Z</time>
      </trkpt>
      <trkpt lat="48.87165" lon="6.06949">
        <ele>183.6</ele>
        <time>2021-07-29T11:57:40Z</time>
      </trkpt>
      <trkpt lat="48.87165" lon="6.06949">
        <ele>183.6</ele>
        <time>2021-07-29T11:57:41Z</time>
      </trkpt>
      <trkpt lat="48.87165" lon="6.06949">
        <ele>183.6</ele>
        <time>2021-07-29T11:57:43Z</time>
      </trkpt>
      <trkpt lat="48.87165" lon="6.06949">
        <ele>183.6</ele>
        <time>2021-07-29T11:57:44Z</time>
      </trkpt>
      <trkpt lat="48.87165" lon="6.06949">
        <ele>183.6</ele>
        <time>2021-07-29T11:57:45Z</time>
      </trkpt>
      <trkpt lat="48.87165" lon="6.06949">
        <ele>183.6</ele>
        <time>2021-07-29T11:57:47Z</time>
      </trkpt>
      <trkpt lat="48.87165" lon="6.06949">
        <ele>183.6</ele>
        <time>2021-07-29T11:57:48Z</time>
      </trkpt>
      <trkpt lat="48.87165" lon="6.06949">
        <ele>183.6</ele>
        <time>2021-07-29T11:57:50Z</time>
      </trkpt>
      <trkpt lat="48.87165" lon="6.06949">
        <ele>183.6</ele>
        <time>2021-07-29T11:57:52Z</time>
      </trkpt>
      <trkpt lat="48.87165" lon="6.06949">
        <ele>183.6</ele>
        <time>2021-07-29T11:57:53Z</time>
      </trkpt>
      <trkpt lat="48.87165" lon="6.06949">
        <ele>183.6</ele>
        <time>2021-07-29T11:57:54Z</time>
      </trkpt>
      <trkpt lat="48.87165" lon="6.06949">
        <ele>183.6</ele>
        <time>2021-07-29T11:57:56Z</time>
      </trkpt>
      <trkpt lat="48.87165" lon="6.06949">
        <ele>183.6</ele>
        <time>2021-07-29T11:57:58Z</time>
      </trkpt>
      <trkpt lat="48.87165" lon="6.06949">
        <ele>183.6</ele>
        <time>2021-07-29T11:58:00Z</time>
      </trkpt>
      <trkpt lat="48.87165" lon="6.06949">
        <ele>183.6</ele>
        <time>2021-07-29T11:58:02Z</time>
      </trkpt>
      <trkpt lat="48.87165" lon="6.06949">
        <ele>183.6</ele>
        <time>2021-07-29T11:58:04Z</time>
      </trkpt>
      <trkpt lat="48.87165" lon="6.06949">
        <ele>183.6</ele>
        <time>2021-07-29T11:58:05Z</time>
      </trkpt>
      <trkpt lat="48.87165" lon="6.06949">
        <ele>183.6</ele>
        <time>2021-07-29T11:58:06Z</time>
      </trkpt>
      <trkpt lat="48.87165" lon="6.06949">
        <ele>183.6</ele>
        <time>2021-07-29T11:58:08Z</time>
      </trkpt>
      <trkpt lat="48.87165" lon="6.06949">
        <ele>183.6</ele>
        <time>2021-07-29T11:58:10Z</time>
      </trkpt>
      <trkpt lat="48.87165" lon="6.06949">
        <ele>183.6</ele>
        <time>2021-07-29T11:58:11Z</time>
      </trkpt>
      <trkpt lat="48.87165" lon="6.06949">
        <ele>183.6</ele>
        <time>2021-07-29T11:58:12Z</time>
      </trkpt>
      <trkpt lat="48.87165" lon="6.06949">
        <ele>183.6</ele>
        <time>2021-07-29T11:58:14Z</time>
      </trkpt>
      <trkpt lat="48.87165" lon="6.06949">
        <ele>183.6</ele>
        <time>2021-07-29T11:58:16Z</time>
      </trkpt>
      <trkpt lat="48.87165" lon="6.06949">
        <ele>183.6</ele>
        <time>2021-07-29T11:58:17Z</time>
      </trkpt>
      <trkpt lat="48.87165" lon="6.06949">
        <ele>183.6</ele>
        <time>2021-07-29T11:58:18Z</time>
      </trkpt>
      <trkpt lat="48.87165" lon="6.06949">
        <ele>183.6</ele>
        <time>2021-07-29T11:58:20Z</time>
      </trkpt>
      <trkpt lat="48.87165" lon="6.06949">
        <ele>183.6</ele>
        <time>2021-07-29T11:58:22Z</time>
      </trkpt>
      <trkpt lat="48.87165" lon="6.06949">
        <ele>183.6</ele>
        <time>2021-07-29T11:58:23Z</time>
      </trkpt>
      <trkpt lat="48.87165" lon="6.06949">
        <ele>183.6</ele>
        <time>2021-07-29T11:58:24Z</time>
      </trkpt>
      <trkpt lat="48.87165" lon="6.06949">
        <ele>183.6</ele>
        <time>2021-07-29T11:58:26Z</time>
      </trkpt>
      <trkpt lat="48.87165" lon="6.06949">
        <ele>183.6</ele>
        <time>2021-07-29T11:58:27Z</time>
      </trkpt>
      <trkpt lat="48.87165" lon="6.06949">
        <ele>183.6</ele>
        <time>2021-07-29T11:58:28Z</time>
      </trkpt>
      <trkpt lat="48.87165" lon="6.06949">
        <ele>183.6</ele>
        <time>2021-07-29T11:58:29Z</time>
      </trkpt>
      <trkpt lat="48.87165" lon="6.06949">
        <ele>183.6</ele>
        <time>2021-07-29T11:58:30Z</time>
      </trkpt>
      <trkpt lat="48.87165" lon="6.06949">
        <ele>183.6</ele>
        <time>2021-07-29T11:58:32Z</time>
      </trkpt>
      <trkpt lat="48.87165" lon="6.06949">
        <ele>183.6</ele>
        <time>2021-07-29T11:58:33Z</time>
      </trkpt>
      <trkpt lat="48.87165" lon="6.06949">
        <ele>183.6</ele>
        <time>2021-07-29T11:58:35Z</time>
      </trkpt>
      <trkpt lat="48.87165" lon="6.06949">
        <ele>183.6</ele>
        <time>2021-07-29T11:58:37Z</time>
      </trkpt>
      <trkpt lat="48.87165" lon="6.06949">
        <ele>183.6</ele>
        <time>2021-07-29T11:58:39Z</time>
      </trkpt>
      <trkpt lat="48.87165" lon="6.06949">
        <ele>183.6</ele>
        <time>2021-07-29T11:58:41Z</time>
      </trkpt>
      <trkpt lat="48.87165" lon="6.06949">
        <ele>183.6</ele>
        <time>2021-07-29T11:58:42Z</time>
      </trkpt>
      <trkpt lat="48.87165" lon="6.06949">
        <ele>183.6</ele>
        <time>2021-07-29T11:58:44Z</time>
      </trkpt>
      <trkpt lat="48.87165" lon="6.06949">
        <ele>183.6</ele>
        <time>2021-07-29T11:58:45Z</time>
      </trkpt>
      <trkpt lat="48.87165" lon="6.06949">
        <ele>183.6</ele>
        <time>2021-07-29T11:58:46Z</time>
      </trkpt>
      <trkpt lat="48.87165" lon="6.06949">
        <ele>183.6</ele>
        <time>2021-07-29T11:58:47Z</time>
      </trkpt>
      <trkpt lat="48.87165" lon="6.06949">
        <ele>183.6</ele>
        <time>2021-07-29T11:58:48Z</time>
      </trkpt>
      <trkpt lat="48.87165" lon="6.06949">
        <ele>183.6</ele>
        <time>2021-07-29T11:58:50Z</time>
      </trkpt>
      <trkpt lat="48.87165" lon="6.06949">
        <ele>183.6</ele>
        <time>2021-07-29T11:58:51Z</time>
      </trkpt>
      <trkpt lat="48.87165" lon="6.06949">
        <ele>183.6</ele>
        <time>2021-07-29T11:58:53Z</time>
      </trkpt>
      <trkpt lat="48.87165" lon="6.06949">
        <ele>183.6</ele>
        <time>2021-07-29T11:58:54Z</time>
      </trkpt>
      <trkpt lat="48.87165" lon="6.06949">
        <ele>183.6</ele>
        <time>2021-07-29T11:58:56Z</time>
      </trkpt>
      <trkpt lat="48.87165" lon="6.06949">
        <ele>183.6</ele>
        <time>2021-07-29T11:58:58Z</time>
      </trkpt>
      <trkpt lat="48.87165" lon="6.06949">
        <ele>183.6</ele>
        <time>2021-07-29T11:58:59Z</time>
      </trkpt>
      <trkpt lat="48.87165" lon="6.06949">
        <ele>183.6</ele>
        <time>2021-07-29T11:59:00Z</time>
      </trkpt>
      <trkpt lat="48.87165" lon="6.06949">
        <ele>183.6</ele>
        <time>2021-07-29T11:59:01Z</time>
      </trkpt>
      <trkpt lat="48.87165" lon="6.06949">
        <ele>183.6</ele>
        <time>2021-07-29T11:59:04Z</time>
      </trkpt>
      <trkpt lat="48.87165" lon="6.06949">
        <ele>183.6</ele>
        <time>2021-07-29T11:59:05Z</time>
      </trkpt>
      <trkpt lat="48.87165" lon="6.06949">
        <ele>183.6</ele>
        <time>2021-07-29T11:59:06Z</time>
      </trkpt>
      <trkpt lat="48.87165" lon="6.06949">
        <ele>183.6</ele>
        <time>2021-07-29T11:59:08Z</time>
      </trkpt>
      <trkpt lat="48.87165" lon="6.06949">
        <ele>183.6</ele>
        <time>2021-07-29T11:59:10Z</time>
      </trkpt>
      <trkpt lat="48.87165" lon="6.06949">
        <ele>183.6</ele>
        <time>2021-07-29T11:59:12Z</time>
      </trkpt>
      <trkpt lat="48.87165" lon="6.06949">
        <ele>183.6</ele>
        <time>2021-07-29T11:59:14Z</time>
      </trkpt>
      <trkpt lat="48.87165" lon="6.06949">
        <ele>183.6</ele>
        <time>2021-07-29T11:59:16Z</time>
      </trkpt>
      <trkpt lat="48.87165" lon="6.06949">
        <ele>183.6</ele>
        <time>2021-07-29T11:59:17Z</time>
      </trkpt>
      <trkpt lat="48.87165" lon="6.06949">
        <ele>183.6</ele>
        <time>2021-07-29T11:59:18Z</time>
      </trkpt>
      <trkpt lat="48.87165" lon="6.06949">
        <ele>183.6</ele>
        <time>2021-07-29T11:59:20Z</time>
      </trkpt>
      <trkpt lat="48.87165" lon="6.06949">
        <ele>183.6</ele>
        <time>2021-07-29T11:59:22Z</time>
      </trkpt>
      <trkpt lat="48.87165" lon="6.06949">
        <ele>183.6</ele>
        <time>2021-07-29T11:59:23Z</time>
      </trkpt>
      <trkpt lat="48.87165" lon="6.06949">
        <ele>183.6</ele>
        <time>2021-07-29T11:59:24Z</time>
      </trkpt>
      <trkpt lat="48.87165" lon="6.06949">
        <ele>183.6</ele>
        <time>2021-07-29T11:59:25Z</time>
      </trkpt>
      <trkpt lat="48.87165" lon="6.06949">
        <ele>183.6</ele>
        <time>2021-07-29T11:59:27Z</time>
      </trkpt>
      <trkpt lat="48.87165" lon="6.06949">
        <ele>183.6</ele>
        <time>2021-07-29T11:59:28Z</time>
      </trkpt>
      <trkpt lat="48.87165" lon="6.06949">
        <ele>183.6</ele>
        <time>2021-07-29T11:59:29Z</time>
      </trkpt>
      <trkpt lat="48.87165" lon="6.06949">
        <ele>183.6</ele>
        <time>2021-07-29T11:59:30Z</time>
      </trkpt>
      <trkpt lat="48.87165" lon="6.06949">
        <ele>183.6</ele>
        <time>2021-07-29T11:59:31Z</time>
      </trkpt>
      <trkpt lat="48.87165" lon="6.06949">
        <ele>183.6</ele>
        <time>2021-07-29T11:59:32Z</time>
      </trkpt>
      <trkpt lat="48.87165" lon="6.06949">
        <ele>183.6</ele>
        <time>2021-07-29T11:59:34Z</time>
      </trkpt>
      <trkpt lat="48.87165" lon="6.06949">
        <ele>183.6</ele>
        <time>2021-07-29T11:59:36Z</time>
      </trkpt>
      <trkpt lat="48.87165" lon="6.06949">
        <ele>183.6</ele>
        <time>2021-07-29T11:59:38Z</time>
      </trkpt>
      <trkpt lat="48.87165" lon="6.06949">
        <ele>183.6</ele>
        <time>2021-07-29T11:59:40Z</time>
      </trkpt>
      <trkpt lat="48.87165" lon="6.06949">
        <ele>183.6</ele>
        <time>2021-07-29T11:59:41Z</time>
      </trkpt>
      <trkpt lat="48.87165" lon="6.06949">
        <ele>183.6</ele>
        <time>2021-07-29T11:59:42Z</time>
      </trkpt>
      <trkpt lat="48.87165" lon="6.06949">
        <ele>183.6</ele>
        <time>2021-07-29T11:59:44Z</time>
      </trkpt>
      <trkpt lat="48.87165" lon="6.06949">
        <ele>183.6</ele>
        <time>2021-07-29T11:59:46Z</time>
      </trkpt>
      <trkpt lat="48.87165" lon="6.06949">
        <ele>183.6</ele>
        <time>2021-07-29T11:59:47Z</time>
      </trkpt>
      <trkpt lat="48.87165" lon="6.06949">
        <ele>183.6</ele>
        <time>2021-07-29T11:59:48Z</time>
      </trkpt>
      <trkpt lat="48.87165" lon="6.06949">
        <ele>183.6</ele>
        <time>2021-07-29T11:59:50Z</time>
      </trkpt>
      <trkpt lat="48.87165" lon="6.06949">
        <ele>183.6</ele>
        <time>2021-07-29T11:59:51Z</time>
      </trkpt>
      <trkpt lat="48.87165" lon="6.06949">
        <ele>183.6</ele>
        <time>2021-07-29T11:59:53Z</time>
      </trkpt>
      <trkpt lat="48.87165" lon="6.06949">
        <ele>183.6</ele>
        <time>2021-07-29T11:59:54Z</time>
      </trkpt>
      <trkpt lat="48.87165" lon="6.06949">
        <ele>183.6</ele>
        <time>2021-07-29T11:59:56Z</time>
      </trkpt>
      <trkpt lat="48.87165" lon="6.06949">
        <ele>183.6</ele>
        <time>2021-07-29T11:59:58Z</time>
      </trkpt>
      <trkpt lat="48.87165" lon="6.06949">
        <ele>183.6</ele>
        <time>2021-07-29T11:59:59Z</time>
      </trkpt>
      <trkpt lat="48.87165" lon="6.06949">
        <ele>183.6</ele>
        <time>2021-07-29T12:00:01Z</time>
      </trkpt>
      <trkpt lat="48.87165" lon="6.06949">
        <ele>183.6</ele>
        <time>2021-07-29T12:00:02Z</time>
      </trkpt>
      <trkpt lat="48.87165" lon="6.06949">
        <ele>183.6</ele>
        <time>2021-07-29T12:00:04Z</time>
      </trkpt>
      <trkpt lat="48.87165" lon="6.06949">
        <ele>183.6</ele>
        <time>2021-07-29T12:00:05Z</time>
      </trkpt>
      <trkpt lat="48.87165" lon="6.06949">
        <ele>183.6</ele>
        <time>2021-07-29T12:00:06Z</time>
      </trkpt>
      <trkpt lat="48.87165" lon="6.06949">
        <ele>183.6</ele>
        <time>2021-07-29T12:00:08Z</time>
      </trkpt>
      <trkpt lat="48.87165" lon="6.06949">
        <ele>183.6</ele>
        <time>2021-07-29T12:00:10Z</time>
      </trkpt>
      <trkpt lat="48.87165" lon="6.06949">
        <ele>183.6</ele>
        <time>2021-07-29T12:00:11Z</time>
      </trkpt>
      <trkpt lat="48.87165" lon="6.06949">
        <ele>183.6</ele>
        <time>2021-07-29T12:00:12Z</time>
      </trkpt>
      <trkpt lat="48.87165" lon="6.06949">
        <ele>183.6</ele>
        <time>2021-07-29T12:00:14Z</time>
      </trkpt>
      <trkpt lat="48.87165" lon="6.06949">
        <ele>183.6</ele>
        <time>2021-07-29T12:00:15Z</time>
      </trkpt>
      <trkpt lat="48.87165" lon="6.06949">
        <ele>183.6</ele>
        <time>2021-07-29T12:00:16Z</time>
      </trkpt>
      <trkpt lat="48.87165" lon="6.06949">
        <ele>183.6</ele>
        <time>2021-07-29T12:00:18Z</time>
      </trkpt>
      <trkpt lat="48.87165" lon="6.06949">
        <ele>183.6</ele>
        <time>2021-07-29T12:00:20Z</time>
      </trkpt>
      <trkpt lat="48.87165" lon="6.06949">
        <ele>183.6</ele>
        <time>2021-07-29T12:00:22Z</time>
      </trkpt>
      <trkpt lat="48.87165" lon="6.06949">
        <ele>183.6</ele>
        <time>2021-07-29T12:00:24Z</time>
      </trkpt>
      <trkpt lat="48.87165" lon="6.06949">
        <ele>183.6</ele>
        <time>2021-07-29T12:00:26Z</time>
      </trkpt>
      <trkpt lat="48.87165" lon="6.06949">
        <ele>183.6</ele>
        <time>2021-07-29T12:00:28Z</time>
      </trkpt>
      <trkpt lat="48.87165" lon="6.06949">
        <ele>183.6</ele>
        <time>2021-07-29T12:00:30Z</time>
      </trkpt>
      <trkpt lat="48.87165" lon="6.06949">
        <ele>183.6</ele>
        <time>2021-07-29T12:00:32Z</time>
      </trkpt>
      <trkpt lat="48.87165" lon="6.06949">
        <ele>183.6</ele>
        <time>2021-07-29T12:00:34Z</time>
      </trkpt>
      <trkpt lat="48.87165" lon="6.06949">
        <ele>183.6</ele>
        <time>2021-07-29T12:00:36Z</time>
      </trkpt>
      <trkpt lat="48.87165" lon="6.06949">
        <ele>183.6</ele>
        <time>2021-07-29T12:00:38Z</time>
      </trkpt>
      <trkpt lat="48.87165" lon="6.06949">
        <ele>183.6</ele>
        <time>2021-07-29T12:00:40Z</time>
      </trkpt>
      <trkpt lat="48.87165" lon="6.06949">
        <ele>183.6</ele>
        <time>2021-07-29T12:00:42Z</time>
      </trkpt>
      <trkpt lat="48.87165" lon="6.06949">
        <ele>183.6</ele>
        <time>2021-07-29T12:00:44Z</time>
      </trkpt>
      <trkpt lat="48.87165" lon="6.06949">
        <ele>183.6</ele>
        <time>2021-07-29T12:00:46Z</time>
      </trkpt>
      <trkpt lat="48.87165" lon="6.06949">
        <ele>183.6</ele>
        <time>2021-07-29T12:00:48Z</time>
      </trkpt>
      <trkpt lat="48.87165" lon="6.06949">
        <ele>183.6</ele>
        <time>2021-07-29T12:00:49Z</time>
      </trkpt>
      <trkpt lat="48.87165" lon="6.06949">
        <ele>183.6</ele>
        <time>2021-07-29T12:00:50Z</time>
      </trkpt>
      <trkpt lat="48.87165" lon="6.06949">
        <ele>183.6</ele>
        <time>2021-07-29T12:00:52Z</time>
      </trkpt>
      <trkpt lat="48.87165" lon="6.06949">
        <ele>183.6</ele>
        <time>2021-07-29T12:00:54Z</time>
      </trkpt>
      <trkpt lat="48.87165" lon="6.06949">
        <ele>183.6</ele>
        <time>2021-07-29T12:00:55Z</time>
      </trkpt>
      <trkpt lat="48.87165" lon="6.06949">
        <ele>183.6</ele>
        <time>2021-07-29T12:00:56Z</time>
      </trkpt>
      <trkpt lat="48.87165" lon="6.06949">
        <ele>183.6</ele>
        <time>2021-07-29T12:00:58Z</time>
      </trkpt>
      <trkpt lat="48.87165" lon="6.06949">
        <ele>183.6</ele>
        <time>2021-07-29T12:00:59Z</time>
      </trkpt>
      <trkpt lat="48.87165" lon="6.06949">
        <ele>183.6</ele>
        <time>2021-07-29T12:01:01Z</time>
      </trkpt>
      <trkpt lat="48.87165" lon="6.06949">
        <ele>183.6</ele>
        <time>2021-07-29T12:01:02Z</time>
      </trkpt>
      <trkpt lat="48.87165" lon="6.06949">
        <ele>183.6</ele>
        <time>2021-07-29T12:01:04Z</time>
      </trkpt>
      <trkpt lat="48.87165" lon="6.06949">
        <ele>183.6</ele>
        <time>2021-07-29T12:01:06Z</time>
      </trkpt>
      <trkpt lat="48.87165" lon="6.06949">
        <ele>183.6</ele>
        <time>2021-07-29T12:01:07Z</time>
      </trkpt>
      <trkpt lat="48.87165" lon="6.06949">
        <ele>183.6</ele>
        <time>2021-07-29T12:01:08Z</time>
      </trkpt>
      <trkpt lat="48.87165" lon="6.06949">
        <ele>183.6</ele>
        <time>2021-07-29T12:01:10Z</time>
      </trkpt>
      <trkpt lat="48.87165" lon="6.06949">
        <ele>183.6</ele>
        <time>2021-07-29T12:01:11Z</time>
      </trkpt>
      <trkpt lat="48.87165" lon="6.06949">
        <ele>183.6</ele>
        <time>2021-07-29T12:01:13Z</time>
      </trkpt>
      <trkpt lat="48.87165" lon="6.06949">
        <ele>183.6</ele>
        <time>2021-07-29T12:01:14Z</time>
      </trkpt>
      <trkpt lat="48.87165" lon="6.06949">
        <ele>183.6</ele>
        <time>2021-07-29T12:01:16Z</time>
      </trkpt>
      <trkpt lat="48.87165" lon="6.06949">
        <ele>183.6</ele>
        <time>2021-07-29T12:01:17Z</time>
      </trkpt>
      <trkpt lat="48.87165" lon="6.06949">
        <ele>183.6</ele>
        <time>2021-07-29T12:01:19Z</time>
      </trkpt>
      <trkpt lat="48.87165" lon="6.06949">
        <ele>183.6</ele>
        <time>2021-07-29T12:01:20Z</time>
      </trkpt>
      <trkpt lat="48.87165" lon="6.06949">
        <ele>183.6</ele>
        <time>2021-07-29T12:01:22Z</time>
      </trkpt>
      <trkpt lat="48.87165" lon="6.06949">
        <ele>183.6</ele>
        <time>2021-07-29T12:01:24Z</time>
      </trkpt>
      <trkpt lat="48.87165" lon="6.06949">
        <ele>183.6</ele>
        <time>2021-07-29T12:01:25Z</time>
      </trkpt>
      <trkpt lat="48.87165" lon="6.06949">
        <ele>183.6</ele>
        <time>2021-07-29T12:01:26Z</time>
      </trkpt>
      <trkpt lat="48.87165" lon="6.06949">
        <ele>183.6</ele>
        <time>2021-07-29T12:01:28Z</time>
      </trkpt>
      <trkpt lat="48.87165" lon="6.06949">
        <ele>183.6</ele>
        <time>2021-07-29T12:01:29Z</time>
      </trkpt>
      <trkpt lat="48.87165" lon="6.06949">
        <ele>183.6</ele>
        <time>2021-07-29T12:01:31Z</time>
      </trkpt>
      <trkpt lat="48.87165" lon="6.06949">
        <ele>183.6</ele>
        <time>2021-07-29T12:01:32Z</time>
      </trkpt>
      <trkpt lat="48.87165" lon="6.06949">
        <ele>183.6</ele>
        <time>2021-07-29T12:01:34Z</time>
      </trkpt>
      <trkpt lat="48.87164" lon="6.06955">
        <ele>183.6</ele>
        <time>2021-07-29T12:01:36Z</time>
      </trkpt>
      <trkpt lat="48.87162" lon="6.06961">
        <ele>183.6</ele>
        <time>2021-07-29T12:01:38Z</time>
      </trkpt>
      <trkpt lat="48.87162" lon="6.06962">
        <ele>183.6</ele>
        <time>2021-07-29T12:01:40Z</time>
      </trkpt>
      <trkpt lat="48.87162" lon="6.06962">
        <ele>183.6</ele>
        <time>2021-07-29T12:01:41Z</time>
      </trkpt>
      <trkpt lat="48.87162" lon="6.06962">
        <ele>183.6</ele>
        <time>2021-07-29T12:01:42Z</time>
      </trkpt>
      <trkpt lat="48.87162" lon="6.06962">
        <ele>183.6</ele>
        <time>2021-07-29T12:01:44Z</time>
      </trkpt>
      <trkpt lat="48.87162" lon="6.06963">
        <ele>183.6</ele>
        <time>2021-07-29T12:01:45Z</time>
      </trkpt>
      <trkpt lat="48.87162" lon="6.06963">
        <ele>183.6</ele>
        <time>2021-07-29T12:01:47Z</time>
      </trkpt>
      <trkpt lat="48.87162" lon="6.06963">
        <ele>183.6</ele>
        <time>2021-07-29T12:01:48Z</time>
      </trkpt>
      <trkpt lat="48.87162" lon="6.06963">
        <ele>183.6</ele>
        <time>2021-07-29T12:01:50Z</time>
      </trkpt>
      <trkpt lat="48.87162" lon="6.06963">
        <ele>183.6</ele>
        <time>2021-07-29T12:01:52Z</time>
      </trkpt>
      <trkpt lat="48.87162" lon="6.06963">
        <ele>183.6</ele>
        <time>2021-07-29T12:01:54Z</time>
      </trkpt>
      <trkpt lat="48.87162" lon="6.06963">
        <ele>183.6</ele>
        <time>2021-07-29T12:01:56Z</time>
      </trkpt>
      <trkpt lat="48.87162" lon="6.06963">
        <ele>183.6</ele>
        <time>2021-07-29T12:01:58Z</time>
      </trkpt>
      <trkpt lat="48.87162" lon="6.06963">
        <ele>183.6</ele>
        <time>2021-07-29T12:01:59Z</time>
      </trkpt>
      <trkpt lat="48.87162" lon="6.06963">
        <ele>183.6</ele>
        <time>2021-07-29T12:02:00Z</time>
      </trkpt>
      <trkpt lat="48.87162" lon="6.06963">
        <ele>183.6</ele>
        <time>2021-07-29T12:02:02Z</time>
      </trkpt>
      <trkpt lat="48.87162" lon="6.06963">
        <ele>183.6</ele>
        <time>2021-07-29T12:02:04Z</time>
      </trkpt>
      <trkpt lat="48.87162" lon="6.06963">
        <ele>183.6</ele>
        <time>2021-07-29T12:02:05Z</time>
      </trkpt>
      <trkpt lat="48.87162" lon="6.06963">
        <ele>183.6</ele>
        <time>2021-07-29T12:02:06Z</time>
      </trkpt>
      <trkpt lat="48.87162" lon="6.06963">
        <ele>183.6</ele>
        <time>2021-07-29T12:02:08Z</time>
      </trkpt>
      <trkpt lat="48.87162" lon="6.06963">
        <ele>183.6</ele>
        <time>2021-07-29T12:02:09Z</time>
      </trkpt>
      <trkpt lat="48.87162" lon="6.06963">
        <ele>183.6</ele>
        <time>2021-07-29T12:02:10Z</time>
      </trkpt>
      <trkpt lat="48.87163" lon="6.06963">
        <ele>183.6</ele>
        <time>2021-07-29T12:02:11Z</time>
      </trkpt>
      <trkpt lat="48.87163" lon="6.06963">
        <ele>183.6</ele>
        <time>2021-07-29T12:02:12Z</time>
      </trkpt>
      <trkpt lat="48.87163" lon="6.06963">
        <ele>183.6</ele>
        <time>2021-07-29T12:02:14Z</time>
      </trkpt>
      <trkpt lat="48.87163" lon="6.06963">
        <ele>183.6</ele>
        <time>2021-07-29T12:02:15Z</time>
      </trkpt>
      <trkpt lat="48.87163" lon="6.06963">
        <ele>183.6</ele>
        <time>2021-07-29T12:02:17Z</time>
      </trkpt>
      <trkpt lat="48.87163" lon="6.06963">
        <ele>183.6</ele>
        <time>2021-07-29T12:02:18Z</time>
      </trkpt>
      <trkpt lat="48.87163" lon="6.06963">
        <ele>183.6</ele>
        <time>2021-07-29T12:02:19Z</time>
      </trkpt>
      <trkpt lat="48.87163" lon="6.06963">
        <ele>183.6</ele>
        <time>2021-07-29T12:02:21Z</time>
      </trkpt>
      <trkpt lat="48.87163" lon="6.06963">
        <ele>183.6</ele>
        <time>2021-07-29T12:02:22Z</time>
      </trkpt>
      <trkpt lat="48.87163" lon="6.06963">
        <ele>183.6</ele>
        <time>2021-07-29T12:02:23Z</time>
      </trkpt>
      <trkpt lat="48.87163" lon="6.06963">
        <ele>183.6</ele>
        <time>2021-07-29T12:02:24Z</time>
      </trkpt>
      <trkpt lat="48.87163" lon="6.06963">
        <ele>183.6</ele>
        <time>2021-07-29T12:02:26Z</time>
      </trkpt>
      <trkpt lat="48.87163" lon="6.06963">
        <ele>183.6</ele>
        <time>2021-07-29T12:02:27Z</time>
      </trkpt>
      <trkpt lat="48.87163" lon="6.06963">
        <ele>183.6</ele>
        <time>2021-07-29T12:02:28Z</time>
      </trkpt>
      <trkpt lat="48.87163" lon="6.06963">
        <ele>183.6</ele>
        <time>2021-07-29T12:02:30Z</time>
      </trkpt>
      <trkpt lat="48.87163" lon="6.06963">
        <ele>183.6</ele>
        <time>2021-07-29T12:02:31Z</time>
      </trkpt>
      <trkpt lat="48.87163" lon="6.06964">
        <ele>183.6</ele>
        <time>2021-07-29T12:02:33Z</time>
      </trkpt>
      <trkpt lat="48.87163" lon="6.06964">
        <ele>183.6</ele>
        <time>2021-07-29T12:02:34Z</time>
      </trkpt>
      <trkpt lat="48.87163" lon="6.06964">
        <ele>183.6</ele>
        <time>2021-07-29T12:02:35Z</time>
      </trkpt>
      <trkpt lat="48.87163" lon="6.06964">
        <ele>183.6</ele>
        <time>2021-07-29T12:02:36Z</time>
      </trkpt>
      <trkpt lat="48.87163" lon="6.06964">
        <ele>183.6</ele>
        <time>2021-07-29T12:02:38Z</time>
      </trkpt>
      <trkpt lat="48.87163" lon="6.06964">
        <ele>183.6</ele>
        <time>2021-07-29T12:02:39Z</time>
      </trkpt>
      <trkpt lat="48.87163" lon="6.06964">
        <ele>183.6</ele>
        <time>2021-07-29T12:02:41Z</time>
      </trkpt>
      <trkpt lat="48.87163" lon="6.06964">
        <ele>183.6</ele>
        <time>2021-07-29T12:02:42Z</time>
      </trkpt>
      <trkpt lat="48.87163" lon="6.06964">
        <ele>183.6</ele>
        <time>2021-07-29T12:02:44Z</time>
      </trkpt>
      <trkpt lat="48.87163" lon="6.06964">
        <ele>183.6</ele>
        <time>2021-07-29T12:02:45Z</time>
      </trkpt>
      <trkpt lat="48.87163" lon="6.06964">
        <ele>183.6</ele>
        <time>2021-07-29T12:02:46Z</time>
      </trkpt>
      <trkpt lat="48.87163" lon="6.06964">
        <ele>183.6</ele>
        <time>2021-07-29T12:02:47Z</time>
      </trkpt>
      <trkpt lat="48.87163" lon="6.06964">
        <ele>183.6</ele>
        <time>2021-07-29T12:02:48Z</time>
      </trkpt>
      <trkpt lat="48.87163" lon="6.06964">
        <ele>183.6</ele>
        <time>2021-07-29T12:02:49Z</time>
      </trkpt>
      <trkpt lat="48.87163" lon="6.06964">
        <ele>183.6</ele>
        <time>2021-07-29T12:02:51Z</time>
      </trkpt>
      <trkpt lat="48.87163" lon="6.06964">
        <ele>183.6</ele>
        <time>2021-07-29T12:02:52Z</time>
      </trkpt>
      <trkpt lat="48.87164" lon="6.06964">
        <ele>183.6</ele>
        <time>2021-07-29T12:02:53Z</time>
      </trkpt>
      <trkpt lat="48.87164" lon="6.06964">
        <ele>183.6</ele>
        <time>2021-07-29T12:02:55Z</time>
      </trkpt>
      <trkpt lat="48.87164" lon="6.06964">
        <ele>183.6</ele>
        <time>2021-07-29T12:02:57Z</time>
      </trkpt>
      <trkpt lat="48.87164" lon="6.06964">
        <ele>183.6</ele>
        <time>2021-07-29T12:02:58Z</time>
      </trkpt>
      <trkpt lat="48.87164" lon="6.06964">
        <ele>183.6</ele>
        <time>2021-07-29T12:02:59Z</time>
      </trkpt>
      <trkpt lat="48.87164" lon="6.06964">
        <ele>183.6</ele>
        <time>2021-07-29T12:03:00Z</time>
      </trkpt>
      <trkpt lat="48.87164" lon="6.06964">
        <ele>183.6</ele>
        <time>2021-07-29T12:03:02Z</time>
      </trkpt>
      <trkpt lat="48.87164" lon="6.06964">
        <ele>183.6</ele>
        <time>2021-07-29T12:03:04Z</time>
      </trkpt>
      <trkpt lat="48.87164" lon="6.06964">
        <ele>183.6</ele>
        <time>2021-07-29T12:03:05Z</time>
      </trkpt>
      <trkpt lat="48.87164" lon="6.06964">
        <ele>183.6</ele>
        <time>2021-07-29T12:03:06Z</time>
      </trkpt>
      <trkpt lat="48.87164" lon="6.06964">
        <ele>183.6</ele>
        <time>2021-07-29T12:03:07Z</time>
      </trkpt>
      <trkpt lat="48.87164" lon="6.06964">
        <ele>183.6</ele>
        <time>2021-07-29T12:03:08Z</time>
      </trkpt>
      <trkpt lat="48.87164" lon="6.06964">
        <ele>183.6</ele>
        <time>2021-07-29T12:03:10Z</time>
      </trkpt>
      <trkpt lat="48.87164" lon="6.06964">
        <ele>183.6</ele>
        <time>2021-07-29T12:03:11Z</time>
      </trkpt>
      <trkpt lat="48.87164" lon="6.06964">
        <ele>183.6</ele>
        <time>2021-07-29T12:03:12Z</time>
      </trkpt>
      <trkpt lat="48.87164" lon="6.06964">
        <ele>183.6</ele>
        <time>2021-07-29T12:03:14Z</time>
      </trkpt>
      <trkpt lat="48.87164" lon="6.06964">
        <ele>183.6</ele>
        <time>2021-07-29T12:03:15Z</time>
      </trkpt>
      <trkpt lat="48.87164" lon="6.06965">
        <ele>183.6</ele>
        <time>2021-07-29T12:03:17Z</time>
      </trkpt>
      <trkpt lat="48.87164" lon="6.06965">
        <ele>183.6</ele>
        <time>2021-07-29T12:03:18Z</time>
      </trkpt>
      <trkpt lat="48.87164" lon="6.06965">
        <ele>183.6</ele>
        <time>2021-07-29T12:03:20Z</time>
      </trkpt>
      <trkpt lat="48.87164" lon="6.06965">
        <ele>183.6</ele>
        <time>2021-07-29T12:03:21Z</time>
      </trkpt>
      <trkpt lat="48.87164" lon="6.06965">
        <ele>183.6</ele>
        <time>2021-07-29T12:03:23Z</time>
      </trkpt>
      <trkpt lat="48.87164" lon="6.06965">
        <ele>183.6</ele>
        <time>2021-07-29T12:03:25Z</time>
      </trkpt>
      <trkpt lat="48.87164" lon="6.06965">
        <ele>183.6</ele>
        <time>2021-07-29T12:03:26Z</time>
      </trkpt>
      <trkpt lat="48.87164" lon="6.06965">
        <ele>183.6</ele>
        <time>2021-07-29T12:03:29Z</time>
      </trkpt>
      <trkpt lat="48.87164" lon="6.06965">
        <ele>183.6</ele>
        <time>2021-07-29T12:03:31Z</time>
      </trkpt>
      <trkpt lat="48.87164" lon="6.06965">
        <ele>183.6</ele>
        <time>2021-07-29T12:03:32Z</time>
      </trkpt>
      <trkpt lat="48.87164" lon="6.06965">
        <ele>183.6</ele>
        <time>2021-07-29T12:03:35Z</time>
      </trkpt>
      <trkpt lat="48.87164" lon="6.06965">
        <ele>183.6</ele>
        <time>2021-07-29T12:03:36Z</time>
      </trkpt>
      <trkpt lat="48.87164" lon="6.06965">
        <ele>183.6</ele>
        <time>2021-07-29T12:03:38Z</time>
      </trkpt>
      <trkpt lat="48.87164" lon="6.06965">
        <ele>183.6</ele>
        <time>2021-07-29T12:03:40Z</time>
      </trkpt>
      <trkpt lat="48.87164" lon="6.06965">
        <ele>183.6</ele>
        <time>2021-07-29T12:03:41Z</time>
      </trkpt>
      <trkpt lat="48.87164" lon="6.06965">
        <ele>183.6</ele>
        <time>2021-07-29T12:03:42Z</time>
      </trkpt>
      <trkpt lat="48.87165" lon="6.06965">
        <ele>183.6</ele>
        <time>2021-07-29T12:03:43Z</time>
      </trkpt>
      <trkpt lat="48.87165" lon="6.06965">
        <ele>183.6</ele>
        <time>2021-07-29T12:03:45Z</time>
      </trkpt>
      <trkpt lat="48.87165" lon="6.06965">
        <ele>183.6</ele>
        <time>2021-07-29T12:03:47Z</time>
      </trkpt>
      <trkpt lat="48.87165" lon="6.06965">
        <ele>183.6</ele>
        <time>2021-07-29T12:03:48Z</time>
      </trkpt>
      <trkpt lat="48.87165" lon="6.06965">
        <ele>183.6</ele>
        <time>2021-07-29T12:03:49Z</time>
      </trkpt>
      <trkpt lat="48.87165" lon="6.06965">
        <ele>183.6</ele>
        <time>2021-07-29T12:03:51Z</time>
      </trkpt>
      <trkpt lat="48.87165" lon="6.06965">
        <ele>183.6</ele>
        <time>2021-07-29T12:03:53Z</time>
      </trkpt>
      <trkpt lat="48.87165" lon="6.06965">
        <ele>183.6</ele>
        <time>2021-07-29T12:03:54Z</time>
      </trkpt>
      <trkpt lat="48.87165" lon="6.06965">
        <ele>183.6</ele>
        <time>2021-07-29T12:03:55Z</time>
      </trkpt>
      <trkpt lat="48.87165" lon="6.06965">
        <ele>183.6</ele>
        <time>2021-07-29T12:03:56Z</time>
      </trkpt>
      <trkpt lat="48.87165" lon="6.06965">
        <ele>183.6</ele>
        <time>2021-07-29T12:03:58Z</time>
      </trkpt>
      <trkpt lat="48.87165" lon="6.06965">
        <ele>183.6</ele>
        <time>2021-07-29T12:03:59Z</time>
      </trkpt>
      <trkpt lat="48.87165" lon="6.06965">
        <ele>183.6</ele>
        <time>2021-07-29T12:04:00Z</time>
      </trkpt>
      <trkpt lat="48.87165" lon="6.06965">
        <ele>183.6</ele>
        <time>2021-07-29T12:04:02Z</time>
      </trkpt>
      <trkpt lat="48.87165" lon="6.06965">
        <ele>183.6</ele>
        <time>2021-07-29T12:04:03Z</time>
      </trkpt>
      <trkpt lat="48.87166" lon="6.06966">
        <ele>183.6</ele>
        <time>2021-07-29T12:04:05Z</time>
      </trkpt>
      <trkpt lat="48.87166" lon="6.06967">
        <ele>183.6</ele>
        <time>2021-07-29T12:04:06Z</time>
      </trkpt>
      <trkpt lat="48.87167" lon="6.06967">
        <ele>183.6</ele>
        <time>2021-07-29T12:04:08Z</time>
      </trkpt>
      <trkpt lat="48.87167" lon="6.06967">
        <ele>183.6</ele>
        <time>2021-07-29T12:04:09Z</time>
      </trkpt>
      <trkpt lat="48.87168" lon="6.06967">
        <ele>183.6</ele>
        <time>2021-07-29T12:04:10Z</time>
      </trkpt>
      <trkpt lat="48.87169" lon="6.06967">
        <ele>183.6</ele>
        <time>2021-07-29T12:04:12Z</time>
      </trkpt>
      <trkpt lat="48.87169" lon="6.06968">
        <ele>183.6</ele>
        <time>2021-07-29T12:04:13Z</time>
      </trkpt>
      <trkpt lat="48.8717" lon="6.06968">
        <ele>183.6</ele>
        <time>2021-07-29T12:04:14Z</time>
      </trkpt>
      <trkpt lat="48.8717" lon="6.06968">
        <ele>183.6</ele>
        <time>2021-07-29T12:04:16Z</time>
      </trkpt>
      <trkpt lat="48.8717" lon="6.06968">
        <ele>183.6</ele>
        <time>2021-07-29T12:04:18Z</time>
      </trkpt>
      <trkpt lat="48.87171" lon="6.06968">
        <ele>183.6</ele>
        <time>2021-07-29T12:04:20Z</time>
      </trkpt>
      <trkpt lat="48.87171" lon="6.06969">
        <ele>183.6</ele>
        <time>2021-07-29T12:04:21Z</time>
      </trkpt>
      <trkpt lat="48.87172" lon="6.06969">
        <ele>183.6</ele>
        <time>2021-07-29T12:04:23Z</time>
      </trkpt>
      <trkpt lat="48.87172" lon="6.06969">
        <ele>183.6</ele>
        <time>2021-07-29T12:04:24Z</time>
      </trkpt>
      <trkpt lat="48.87172" lon="6.06969">
        <ele>183.6</ele>
        <time>2021-07-29T12:04:26Z</time>
      </trkpt>
      <trkpt lat="48.87173" lon="6.0697">
        <ele>183.6</ele>
        <time>2021-07-29T12:04:27Z</time>
      </trkpt>
      <trkpt lat="48.87173" lon="6.0697">
        <ele>183.6</ele>
        <time>2021-07-29T12:04:29Z</time>
      </trkpt>
      <trkpt lat="48.87174" lon="6.0697">
        <ele>183.6</ele>
        <time>2021-07-29T12:04:31Z</time>
      </trkpt>
      <trkpt lat="48.87174" lon="6.0697">
        <ele>183.6</ele>
        <time>2021-07-29T12:04:32Z</time>
      </trkpt>
      <trkpt lat="48.87174" lon="6.06971">
        <ele>183.6</ele>
        <time>2021-07-29T12:04:33Z</time>
      </trkpt>
      <trkpt lat="48.87175" lon="6.06971">
        <ele>183.6</ele>
        <time>2021-07-29T12:04:34Z</time>
      </trkpt>
      <trkpt lat="48.87175" lon="6.06971">
        <ele>183.6</ele>
        <time>2021-07-29T12:04:36Z</time>
      </trkpt>
      <trkpt lat="48.87176" lon="6.06971">
        <ele>183.6</ele>
        <time>2021-07-29T12:04:37Z</time>
      </trkpt>
      <trkpt lat="48.87176" lon="6.06972">
        <ele>183.6</ele>
        <time>2021-07-29T12:04:39Z</time>
      </trkpt>
      <trkpt lat="48.87176" lon="6.06972">
        <ele>183.6</ele>
        <time>2021-07-29T12:04:40Z</time>
      </trkpt>
      <trkpt lat="48.87177" lon="6.06972">
        <ele>183.6</ele>
        <time>2021-07-29T12:04:42Z</time>
      </trkpt>
      <trkpt lat="48.87177" lon="6.06972">
        <ele>183.6</ele>
        <time>2021-07-29T12:04:43Z</time>
      </trkpt>
      <trkpt lat="48.87177" lon="6.06973">
        <ele>183.6</ele>
        <time>2021-07-29T12:04:44Z</time>
      </trkpt>
      <trkpt lat="48.87178" lon="6.06973">
        <ele>183.6</ele>
        <time>2021-07-29T12:04:45Z</time>
      </trkpt>
      <trkpt lat="48.87184" lon="6.06976">
        <ele>183.7</ele>
        <time>2021-07-29T12:04:47Z</time>
      </trkpt>
      <trkpt lat="48.87189" lon="6.06978">
        <ele>183.7</ele>
        <time>2021-07-29T12:04:48Z</time>
      </trkpt>
      <trkpt lat="48.87194" lon="6.0698">
        <ele>183.8</ele>
        <time>2021-07-29T12:04:49Z</time>
      </trkpt>
      <trkpt lat="48.87199" lon="6.06982">
        <ele>183.9</ele>
        <time>2021-07-29T12:04:51Z</time>
      </trkpt>
      <trkpt lat="48.87203" lon="6.06983">
        <ele>183.9</ele>
        <time>2021-07-29T12:04:52Z</time>
      </trkpt>
      <trkpt lat="48.87208" lon="6.06984">
        <ele>184</ele>
        <time>2021-07-29T12:04:54Z</time>
      </trkpt>
      <trkpt lat="48.87212" lon="6.06986">
        <ele>184.1</ele>
        <time>2021-07-29T12:04:55Z</time>
      </trkpt>
      <trkpt lat="48.87215" lon="6.06987">
        <ele>184.2</ele>
        <time>2021-07-29T12:04:56Z</time>
      </trkpt>
      <trkpt lat="48.8722" lon="6.06989">
        <ele>184.2</ele>
        <time>2021-07-29T12:04:58Z</time>
      </trkpt>
      <trkpt lat="48.87223" lon="6.0699">
        <ele>184.3</ele>
        <time>2021-07-29T12:04:59Z</time>
      </trkpt>
      <trkpt lat="48.87227" lon="6.06992">
        <ele>184.4</ele>
        <time>2021-07-29T12:05:00Z</time>
      </trkpt>
      <trkpt lat="48.87229" lon="6.06993">
        <ele>184.4</ele>
        <time>2021-07-29T12:05:01Z</time>
      </trkpt>
      <trkpt lat="48.87232" lon="6.06995">
        <ele>184.5</ele>
        <time>2021-07-29T12:05:02Z</time>
      </trkpt>
      <trkpt lat="48.87235" lon="6.06997">
        <ele>184.5</ele>
        <time>2021-07-29T12:05:04Z</time>
      </trkpt>
      <trkpt lat="48.87238" lon="6.06998">
        <ele>184.6</ele>
        <time>2021-07-29T12:05:05Z</time>
      </trkpt>
      <trkpt lat="48.87241" lon="6.06999">
        <ele>184.7</ele>
        <time>2021-07-29T12:05:06Z</time>
      </trkpt>
      <trkpt lat="48.87246" lon="6.07">
        <ele>184.8</ele>
        <time>2021-07-29T12:05:07Z</time>
      </trkpt>
      <trkpt lat="48.87249" lon="6.07001">
        <ele>184.9</ele>
        <time>2021-07-29T12:05:08Z</time>
      </trkpt>
      <trkpt lat="48.87252" lon="6.07003">
        <ele>185</ele>
        <time>2021-07-29T12:05:10Z</time>
      </trkpt>
      <trkpt lat="48.87256" lon="6.07008">
        <ele>185.1</ele>
        <time>2021-07-29T12:05:11Z</time>
      </trkpt>
      <trkpt lat="48.87259" lon="6.07013">
        <ele>185.3</ele>
        <time>2021-07-29T12:05:13Z</time>
      </trkpt>
      <trkpt lat="48.8726" lon="6.07015">
        <ele>185.3</ele>
        <time>2021-07-29T12:05:14Z</time>
      </trkpt>
      <trkpt lat="48.87262" lon="6.07017">
        <ele>185.4</ele>
        <time>2021-07-29T12:05:15Z</time>
      </trkpt>
      <trkpt lat="48.87264" lon="6.0702">
        <ele>185.5</ele>
        <time>2021-07-29T12:05:17Z</time>
      </trkpt>
      <trkpt lat="48.87265" lon="6.07021">
        <ele>185.5</ele>
        <time>2021-07-29T12:05:18Z</time>
      </trkpt>
      <trkpt lat="48.87267" lon="6.07024">
        <ele>185.6</ele>
        <time>2021-07-29T12:05:19Z</time>
      </trkpt>
      <trkpt lat="48.87268" lon="6.07029">
        <ele>185.7</ele>
        <time>2021-07-29T12:05:20Z</time>
      </trkpt>
      <trkpt lat="48.87269" lon="6.07031">
        <ele>185.8</ele>
        <time>2021-07-29T12:05:21Z</time>
      </trkpt>
      <trkpt lat="48.87271" lon="6.07037">
        <ele>185.9</ele>
        <time>2021-07-29T12:05:23Z</time>
      </trkpt>
      <trkpt lat="48.87271" lon="6.0704">
        <ele>185.9</ele>
        <time>2021-07-29T12:05:24Z</time>
      </trkpt>
      <trkpt lat="48.87272" lon="6.07042">
        <ele>186</ele>
        <time>2021-07-29T12:05:25Z</time>
      </trkpt>
      <trkpt lat="48.87274" lon="6.07049">
        <ele>186.1</ele>
        <time>2021-07-29T12:05:27Z</time>
      </trkpt>
      <trkpt lat="48.87275" lon="6.07051">
        <ele>186.2</ele>
        <time>2021-07-29T12:05:28Z</time>
      </trkpt>
      <trkpt lat="48.87275" lon="6.07053">
        <ele>186.2</ele>
        <time>2021-07-29T12:05:29Z</time>
      </trkpt>
      <trkpt lat="48.87276" lon="6.07057">
        <ele>186.3</ele>
        <time>2021-07-29T12:05:30Z</time>
      </trkpt>
      <trkpt lat="48.87277" lon="6.07063">
        <ele>186.4</ele>
        <time>2021-07-29T12:05:32Z</time>
      </trkpt>
      <trkpt lat="48.87279" lon="6.0707">
        <ele>186.5</ele>
        <time>2021-07-29T12:05:34Z</time>
      </trkpt>
      <trkpt lat="48.87279" lon="6.07076">
        <ele>186.6</ele>
        <time>2021-07-29T12:05:36Z</time>
      </trkpt>
      <trkpt lat="48.8728" lon="6.0708">
        <ele>186.7</ele>
        <time>2021-07-29T12:05:37Z</time>
      </trkpt>
      <trkpt lat="48.8728" lon="6.07082">
        <ele>186.7</ele>
        <time>2021-07-29T12:05:38Z</time>
      </trkpt>
      <trkpt lat="48.8728" lon="6.07088">
        <ele>186.7</ele>
        <time>2021-07-29T12:05:40Z</time>
      </trkpt>
      <trkpt lat="48.8728" lon="6.07093">
        <ele>186.8</ele>
        <time>2021-07-29T12:05:41Z</time>
      </trkpt>
      <trkpt lat="48.8728" lon="6.07094">
        <ele>186.8</ele>
        <time>2021-07-29T12:05:42Z</time>
      </trkpt>
      <trkpt lat="48.8728" lon="6.07099">
        <ele>186.8</ele>
        <time>2021-07-29T12:05:43Z</time>
      </trkpt>
      <trkpt lat="48.8728" lon="6.07102">
        <ele>186.8</ele>
        <time>2021-07-29T12:05:44Z</time>
      </trkpt>
      <trkpt lat="48.8728" lon="6.07106">
        <ele>186.8</ele>
        <time>2021-07-29T12:05:46Z</time>
      </trkpt>
      <trkpt lat="48.8728" lon="6.07112">
        <ele>186.8</ele>
        <time>2021-07-29T12:05:47Z</time>
      </trkpt>
      <trkpt lat="48.87281" lon="6.07116">
        <ele>186.8</ele>
        <time>2021-07-29T12:05:48Z</time>
      </trkpt>
      <trkpt lat="48.87282" lon="6.0712">
        <ele>186.7</ele>
        <time>2021-07-29T12:05:49Z</time>
      </trkpt>
      <trkpt lat="48.87283" lon="6.07124">
        <ele>186.7</ele>
        <time>2021-07-29T12:05:51Z</time>
      </trkpt>
      <trkpt lat="48.87283" lon="6.07128">
        <ele>186.6</ele>
        <time>2021-07-29T12:05:52Z</time>
      </trkpt>
      <trkpt lat="48.87284" lon="6.07133">
        <ele>186.6</ele>
        <time>2021-07-29T12:05:53Z</time>
      </trkpt>
      <trkpt lat="48.87283" lon="6.07137">
        <ele>186.5</ele>
        <time>2021-07-29T12:05:54Z</time>
      </trkpt>
      <trkpt lat="48.87281" lon="6.07141">
        <ele>186.4</ele>
        <time>2021-07-29T12:05:55Z</time>
      </trkpt>
      <trkpt lat="48.87278" lon="6.07145">
        <ele>186</ele>
        <time>2021-07-29T12:05:56Z</time>
      </trkpt>
      <trkpt lat="48.87267" lon="6.0715">
        <ele>185.3</ele>
        <time>2021-07-29T12:05:58Z</time>
      </trkpt>
      <trkpt lat="48.87261" lon="6.07152">
        <ele>184.8</ele>
        <time>2021-07-29T12:05:59Z</time>
      </trkpt>
      <trkpt lat="48.87254" lon="6.07153">
        <ele>184.4</ele>
        <time>2021-07-29T12:06:00Z</time>
      </trkpt>
      <trkpt lat="48.87241" lon="6.07159">
        <ele>183.7</ele>
        <time>2021-07-29T12:06:02Z</time>
      </trkpt>
      <trkpt lat="48.87228" lon="6.07165">
        <ele>183.1</ele>
        <time>2021-07-29T12:06:04Z</time>
      </trkpt>
      <trkpt lat="48.87222" lon="6.07168">
        <ele>182.7</ele>
        <time>2021-07-29T12:06:05Z</time>
      </trkpt>
      <trkpt lat="48.87216" lon="6.07172">
        <ele>182.3</ele>
        <time>2021-07-29T12:06:06Z</time>
      </trkpt>
      <trkpt lat="48.8721" lon="6.07176">
        <ele>181.9</ele>
        <time>2021-07-29T12:06:07Z</time>
      </trkpt>
      <trkpt lat="48.87203" lon="6.0718">
        <ele>181.6</ele>
        <time>2021-07-29T12:06:08Z</time>
      </trkpt>
      <trkpt lat="48.8719" lon="6.07185">
        <ele>181.1</ele>
        <time>2021-07-29T12:06:10Z</time>
      </trkpt>
      <trkpt lat="48.87184" lon="6.07186">
        <ele>181</ele>
        <time>2021-07-29T12:06:11Z</time>
      </trkpt>
      <trkpt lat="48.87178" lon="6.07187">
        <ele>180.9</ele>
        <time>2021-07-29T12:06:12Z</time>
      </trkpt>
      <trkpt lat="48.87167" lon="6.07188">
        <ele>180.8</ele>
        <time>2021-07-29T12:06:14Z</time>
      </trkpt>
      <trkpt lat="48.87156" lon="6.0719">
        <ele>180.8</ele>
        <time>2021-07-29T12:06:16Z</time>
      </trkpt>
      <trkpt lat="48.87151" lon="6.0719">
        <ele>180.9</ele>
        <time>2021-07-29T12:06:17Z</time>
      </trkpt>
      <trkpt lat="48.87145" lon="6.0719">
        <ele>180.9</ele>
        <time>2021-07-29T12:06:18Z</time>
      </trkpt>
      <trkpt lat="48.87134" lon="6.07189">
        <ele>181</ele>
        <time>2021-07-29T12:06:20Z</time>
      </trkpt>
      <trkpt lat="48.87126" lon="6.07191">
        <ele>181.1</ele>
        <time>2021-07-29T12:06:22Z</time>
      </trkpt>
      <trkpt lat="48.87122" lon="6.07192">
        <ele>181.1</ele>
        <time>2021-07-29T12:06:23Z</time>
      </trkpt>
      <trkpt lat="48.87117" lon="6.07193">
        <ele>181.1</ele>
        <time>2021-07-29T12:06:24Z</time>
      </trkpt>
      <trkpt lat="48.87113" lon="6.07199">
        <ele>181.2</ele>
        <time>2021-07-29T12:06:25Z</time>
      </trkpt>
      <trkpt lat="48.87107" lon="6.072">
        <ele>181.2</ele>
        <time>2021-07-29T12:06:27Z</time>
      </trkpt>
      <trkpt lat="48.87102" lon="6.07198">
        <ele>181.2</ele>
        <time>2021-07-29T12:06:28Z</time>
      </trkpt>
      <trkpt lat="48.87097" lon="6.07198">
        <ele>181.2</ele>
        <time>2021-07-29T12:06:29Z</time>
      </trkpt>
      <trkpt lat="48.87094" lon="6.07198">
        <ele>181.2</ele>
        <time>2021-07-29T12:06:30Z</time>
      </trkpt>
      <trkpt lat="48.8709" lon="6.07198">
        <ele>181.2</ele>
        <time>2021-07-29T12:06:31Z</time>
      </trkpt>
      <trkpt lat="48.87085" lon="6.07198">
        <ele>181.2</ele>
        <time>2021-07-29T12:06:32Z</time>
      </trkpt>
      <trkpt lat="48.87082" lon="6.07198">
        <ele>181.2</ele>
        <time>2021-07-29T12:06:33Z</time>
      </trkpt>
      <trkpt lat="48.87078" lon="6.07199">
        <ele>181.2</ele>
        <time>2021-07-29T12:06:34Z</time>
      </trkpt>
      <trkpt lat="48.87074" lon="6.07201">
        <ele>181.2</ele>
        <time>2021-07-29T12:06:35Z</time>
      </trkpt>
      <trkpt lat="48.8707" lon="6.07202">
        <ele>181.2</ele>
        <time>2021-07-29T12:06:36Z</time>
      </trkpt>
      <trkpt lat="48.87065" lon="6.07204">
        <ele>181.2</ele>
        <time>2021-07-29T12:06:37Z</time>
      </trkpt>
      <trkpt lat="48.87059" lon="6.07206">
        <ele>181.2</ele>
        <time>2021-07-29T12:06:39Z</time>
      </trkpt>
      <trkpt lat="48.87055" lon="6.07207">
        <ele>181.3</ele>
        <time>2021-07-29T12:06:40Z</time>
      </trkpt>
      <trkpt lat="48.8705" lon="6.07208">
        <ele>181.3</ele>
        <time>2021-07-29T12:06:42Z</time>
      </trkpt>
      <trkpt lat="48.87044" lon="6.0721">
        <ele>181.3</ele>
        <time>2021-07-29T12:06:43Z</time>
      </trkpt>
      <trkpt lat="48.87039" lon="6.07212">
        <ele>181.3</ele>
        <time>2021-07-29T12:06:45Z</time>
      </trkpt>
      <trkpt lat="48.87033" lon="6.07212">
        <ele>181.3</ele>
        <time>2021-07-29T12:06:46Z</time>
      </trkpt>
      <trkpt lat="48.87028" lon="6.07212">
        <ele>181.3</ele>
        <time>2021-07-29T12:06:48Z</time>
      </trkpt>
      <trkpt lat="48.87024" lon="6.07212">
        <ele>181.3</ele>
        <time>2021-07-29T12:06:49Z</time>
      </trkpt>
      <trkpt lat="48.8702" lon="6.07212">
        <ele>181.3</ele>
        <time>2021-07-29T12:06:50Z</time>
      </trkpt>
      <trkpt lat="48.87016" lon="6.07213">
        <ele>181.3</ele>
        <time>2021-07-29T12:06:51Z</time>
      </trkpt>
      <trkpt lat="48.87009" lon="6.07216">
        <ele>181.4</ele>
        <time>2021-07-29T12:06:53Z</time>
      </trkpt>
      <trkpt lat="48.87002" lon="6.07217">
        <ele>181.4</ele>
        <time>2021-07-29T12:06:55Z</time>
      </trkpt>
      <trkpt lat="48.86998" lon="6.07218">
        <ele>181.4</ele>
        <time>2021-07-29T12:06:56Z</time>
      </trkpt>
      <trkpt lat="48.86991" lon="6.07219">
        <ele>181.4</ele>
        <time>2021-07-29T12:06:58Z</time>
      </trkpt>
      <trkpt lat="48.86985" lon="6.0722">
        <ele>181.4</ele>
        <time>2021-07-29T12:07:00Z</time>
      </trkpt>
      <trkpt lat="48.86978" lon="6.07222">
        <ele>181.5</ele>
        <time>2021-07-29T12:07:02Z</time>
      </trkpt>
      <trkpt lat="48.86975" lon="6.07222">
        <ele>181.5</ele>
        <time>2021-07-29T12:07:03Z</time>
      </trkpt>
      <trkpt lat="48.86972" lon="6.07223">
        <ele>181.5</ele>
        <time>2021-07-29T12:07:04Z</time>
      </trkpt>
      <trkpt lat="48.86969" lon="6.07224">
        <ele>181.5</ele>
        <time>2021-07-29T12:07:05Z</time>
      </trkpt>
      <trkpt lat="48.86963" lon="6.07225">
        <ele>181.6</ele>
        <time>2021-07-29T12:07:06Z</time>
      </trkpt>
      <trkpt lat="48.8696" lon="6.07225">
        <ele>181.6</ele>
        <time>2021-07-29T12:07:08Z</time>
      </trkpt>
      <trkpt lat="48.86956" lon="6.07226">
        <ele>181.7</ele>
        <time>2021-07-29T12:07:09Z</time>
      </trkpt>
      <trkpt lat="48.86952" lon="6.07227">
        <ele>181.7</ele>
        <time>2021-07-29T12:07:10Z</time>
      </trkpt>
      <trkpt lat="48.86945" lon="6.07229">
        <ele>181.8</ele>
        <time>2021-07-29T12:07:12Z</time>
      </trkpt>
      <trkpt lat="48.86939" lon="6.0723">
        <ele>181.9</ele>
        <time>2021-07-29T12:07:14Z</time>
      </trkpt>
      <trkpt lat="48.86931" lon="6.0723">
        <ele>181.9</ele>
        <time>2021-07-29T12:07:16Z</time>
      </trkpt>
      <trkpt lat="48.86927" lon="6.07231">
        <ele>182</ele>
        <time>2021-07-29T12:07:17Z</time>
      </trkpt>
      <trkpt lat="48.86923" lon="6.0723">
        <ele>182</ele>
        <time>2021-07-29T12:07:18Z</time>
      </trkpt>
      <trkpt lat="48.86919" lon="6.0723">
        <ele>182</ele>
        <time>2021-07-29T12:07:19Z</time>
      </trkpt>
      <trkpt lat="48.86912" lon="6.07227">
        <ele>182.1</ele>
        <time>2021-07-29T12:07:21Z</time>
      </trkpt>
      <trkpt lat="48.86908" lon="6.07225">
        <ele>182.2</ele>
        <time>2021-07-29T12:07:22Z</time>
      </trkpt>
      <trkpt lat="48.86903" lon="6.07222">
        <ele>182.2</ele>
        <time>2021-07-29T12:07:23Z</time>
      </trkpt>
      <trkpt lat="48.869" lon="6.07222">
        <ele>182.2</ele>
        <time>2021-07-29T12:07:25Z</time>
      </trkpt>
      <trkpt lat="48.86897" lon="6.07223">
        <ele>182.3</ele>
        <time>2021-07-29T12:07:26Z</time>
      </trkpt>
      <trkpt lat="48.86894" lon="6.07223">
        <ele>182.4</ele>
        <time>2021-07-29T12:07:27Z</time>
      </trkpt>
      <trkpt lat="48.86891" lon="6.07223">
        <ele>182.5</ele>
        <time>2021-07-29T12:07:28Z</time>
      </trkpt>
      <trkpt lat="48.86885" lon="6.07223">
        <ele>182.6</ele>
        <time>2021-07-29T12:07:30Z</time>
      </trkpt>
      <trkpt lat="48.86878" lon="6.07224">
        <ele>182.7</ele>
        <time>2021-07-29T12:07:32Z</time>
      </trkpt>
      <trkpt lat="48.86873" lon="6.07225">
        <ele>182.8</ele>
        <time>2021-07-29T12:07:33Z</time>
      </trkpt>
      <trkpt lat="48.8687" lon="6.07226">
        <ele>182.8</ele>
        <time>2021-07-29T12:07:35Z</time>
      </trkpt>
      <trkpt lat="48.86866" lon="6.07225">
        <ele>182.9</ele>
        <time>2021-07-29T12:07:36Z</time>
      </trkpt>
      <trkpt lat="48.86862" lon="6.07226">
        <ele>182.9</ele>
        <time>2021-07-29T12:07:37Z</time>
      </trkpt>
      <trkpt lat="48.86859" lon="6.07226">
        <ele>182.9</ele>
        <time>2021-07-29T12:07:38Z</time>
      </trkpt>
      <trkpt lat="48.86855" lon="6.07227">
        <ele>183</ele>
        <time>2021-07-29T12:07:39Z</time>
      </trkpt>
      <trkpt lat="48.8685" lon="6.07227">
        <ele>183</ele>
        <time>2021-07-29T12:07:41Z</time>
      </trkpt>
      <trkpt lat="48.86845" lon="6.07228">
        <ele>183</ele>
        <time>2021-07-29T12:07:42Z</time>
      </trkpt>
      <trkpt lat="48.86839" lon="6.07229">
        <ele>183</ele>
        <time>2021-07-29T12:07:43Z</time>
      </trkpt>
      <trkpt lat="48.86835" lon="6.0723">
        <ele>183</ele>
        <time>2021-07-29T12:07:45Z</time>
      </trkpt>
      <trkpt lat="48.8683" lon="6.07231">
        <ele>183.1</ele>
        <time>2021-07-29T12:07:46Z</time>
      </trkpt>
      <trkpt lat="48.86826" lon="6.07232">
        <ele>183.1</ele>
        <time>2021-07-29T12:07:47Z</time>
      </trkpt>
      <trkpt lat="48.86822" lon="6.07233">
        <ele>183.1</ele>
        <time>2021-07-29T12:07:48Z</time>
      </trkpt>
      <trkpt lat="48.86819" lon="6.07233">
        <ele>183.1</ele>
        <time>2021-07-29T12:07:49Z</time>
      </trkpt>
      <trkpt lat="48.86815" lon="6.07234">
        <ele>183.1</ele>
        <time>2021-07-29T12:07:50Z</time>
      </trkpt>
      <trkpt lat="48.86809" lon="6.07235">
        <ele>183</ele>
        <time>2021-07-29T12:07:52Z</time>
      </trkpt>
      <trkpt lat="48.86802" lon="6.07237">
        <ele>183</ele>
        <time>2021-07-29T12:07:53Z</time>
      </trkpt>
      <trkpt lat="48.86796" lon="6.07239">
        <ele>183</ele>
        <time>2021-07-29T12:07:55Z</time>
      </trkpt>
      <trkpt lat="48.86791" lon="6.0724">
        <ele>183</ele>
        <time>2021-07-29T12:07:56Z</time>
      </trkpt>
      <trkpt lat="48.86785" lon="6.07242">
        <ele>183</ele>
        <time>2021-07-29T12:07:57Z</time>
      </trkpt>
      <trkpt lat="48.86779" lon="6.07244">
        <ele>183</ele>
        <time>2021-07-29T12:07:59Z</time>
      </trkpt>
      <trkpt lat="48.86775" lon="6.07245">
        <ele>183</ele>
        <time>2021-07-29T12:08:00Z</time>
      </trkpt>
      <trkpt lat="48.86767" lon="6.07248">
        <ele>183</ele>
        <time>2021-07-29T12:08:02Z</time>
      </trkpt>
      <trkpt lat="48.86763" lon="6.07249">
        <ele>183</ele>
        <time>2021-07-29T12:08:03Z</time>
      </trkpt>
      <trkpt lat="48.8676" lon="6.07251">
        <ele>183</ele>
        <time>2021-07-29T12:08:04Z</time>
      </trkpt>
      <trkpt lat="48.86753" lon="6.07255">
        <ele>183</ele>
        <time>2021-07-29T12:08:06Z</time>
      </trkpt>
      <trkpt lat="48.86749" lon="6.07258">
        <ele>183</ele>
        <time>2021-07-29T12:08:07Z</time>
      </trkpt>
      <trkpt lat="48.86746" lon="6.0726">
        <ele>183</ele>
        <time>2021-07-29T12:08:08Z</time>
      </trkpt>
      <trkpt lat="48.86743" lon="6.07263">
        <ele>183</ele>
        <time>2021-07-29T12:08:09Z</time>
      </trkpt>
      <trkpt lat="48.86739" lon="6.07266">
        <ele>183</ele>
        <time>2021-07-29T12:08:10Z</time>
      </trkpt>
      <trkpt lat="48.86735" lon="6.07269">
        <ele>182.9</ele>
        <time>2021-07-29T12:08:11Z</time>
      </trkpt>
      <trkpt lat="48.8673" lon="6.07274">
        <ele>182.9</ele>
        <time>2021-07-29T12:08:13Z</time>
      </trkpt>
      <trkpt lat="48.86726" lon="6.07277">
        <ele>182.9</ele>
        <time>2021-07-29T12:08:14Z</time>
      </trkpt>
      <trkpt lat="48.86722" lon="6.0728">
        <ele>182.9</ele>
        <time>2021-07-29T12:08:15Z</time>
      </trkpt>
      <trkpt lat="48.86719" lon="6.07282">
        <ele>182.9</ele>
        <time>2021-07-29T12:08:16Z</time>
      </trkpt>
      <trkpt lat="48.86715" lon="6.07284">
        <ele>182.9</ele>
        <time>2021-07-29T12:08:17Z</time>
      </trkpt>
      <trkpt lat="48.86712" lon="6.07286">
        <ele>182.9</ele>
        <time>2021-07-29T12:08:18Z</time>
      </trkpt>
      <trkpt lat="48.86708" lon="6.07288">
        <ele>182.9</ele>
        <time>2021-07-29T12:08:19Z</time>
      </trkpt>
      <trkpt lat="48.86704" lon="6.07289">
        <ele>182.9</ele>
        <time>2021-07-29T12:08:20Z</time>
      </trkpt>
      <trkpt lat="48.86701" lon="6.0729">
        <ele>182.9</ele>
        <time>2021-07-29T12:08:21Z</time>
      </trkpt>
      <trkpt lat="48.86697" lon="6.07292">
        <ele>182.9</ele>
        <time>2021-07-29T12:08:22Z</time>
      </trkpt>
      <trkpt lat="48.86693" lon="6.07293">
        <ele>182.9</ele>
        <time>2021-07-29T12:08:24Z</time>
      </trkpt>
      <trkpt lat="48.8669" lon="6.07295">
        <ele>183</ele>
        <time>2021-07-29T12:08:25Z</time>
      </trkpt>
      <trkpt lat="48.86686" lon="6.07297">
        <ele>183</ele>
        <time>2021-07-29T12:08:26Z</time>
      </trkpt>
      <trkpt lat="48.86682" lon="6.073">
        <ele>183</ele>
        <time>2021-07-29T12:08:27Z</time>
      </trkpt>
      <trkpt lat="48.86678" lon="6.07302">
        <ele>183</ele>
        <time>2021-07-29T12:08:29Z</time>
      </trkpt>
      <trkpt lat="48.86675" lon="6.07305">
        <ele>183</ele>
        <time>2021-07-29T12:08:30Z</time>
      </trkpt>
      <trkpt lat="48.86671" lon="6.07306">
        <ele>183</ele>
        <time>2021-07-29T12:08:31Z</time>
      </trkpt>
      <trkpt lat="48.86668" lon="6.07308">
        <ele>183</ele>
        <time>2021-07-29T12:08:32Z</time>
      </trkpt>
      <trkpt lat="48.86664" lon="6.07311">
        <ele>183</ele>
        <time>2021-07-29T12:08:33Z</time>
      </trkpt>
      <trkpt lat="48.86661" lon="6.07313">
        <ele>183</ele>
        <time>2021-07-29T12:08:35Z</time>
      </trkpt>
      <trkpt lat="48.86657" lon="6.07315">
        <ele>183</ele>
        <time>2021-07-29T12:08:36Z</time>
      </trkpt>
      <trkpt lat="48.86651" lon="6.07319">
        <ele>183</ele>
        <time>2021-07-29T12:08:38Z</time>
      </trkpt>
      <trkpt lat="48.86647" lon="6.07321">
        <ele>183</ele>
        <time>2021-07-29T12:08:39Z</time>
      </trkpt>
      <trkpt lat="48.86644" lon="6.07323">
        <ele>182.9</ele>
        <time>2021-07-29T12:08:40Z</time>
      </trkpt>
      <trkpt lat="48.8664" lon="6.07325">
        <ele>182.9</ele>
        <time>2021-07-29T12:08:41Z</time>
      </trkpt>
      <trkpt lat="48.86637" lon="6.07326">
        <ele>182.9</ele>
        <time>2021-07-29T12:08:42Z</time>
      </trkpt>
      <trkpt lat="48.86632" lon="6.07328">
        <ele>182.9</ele>
        <time>2021-07-29T12:08:44Z</time>
      </trkpt>
      <trkpt lat="48.86626" lon="6.07331">
        <ele>182.9</ele>
        <time>2021-07-29T12:08:46Z</time>
      </trkpt>
      <trkpt lat="48.86622" lon="6.07333">
        <ele>182.9</ele>
        <time>2021-07-29T12:08:47Z</time>
      </trkpt>
      <trkpt lat="48.86618" lon="6.07335">
        <ele>182.9</ele>
        <time>2021-07-29T12:08:48Z</time>
      </trkpt>
      <trkpt lat="48.86611" lon="6.0734">
        <ele>182.9</ele>
        <time>2021-07-29T12:08:50Z</time>
      </trkpt>
      <trkpt lat="48.86606" lon="6.07346">
        <ele>182.9</ele>
        <time>2021-07-29T12:08:51Z</time>
      </trkpt>
      <trkpt lat="48.86601" lon="6.0735">
        <ele>183</ele>
        <time>2021-07-29T12:08:53Z</time>
      </trkpt>
      <trkpt lat="48.86597" lon="6.07352">
        <ele>183</ele>
        <time>2021-07-29T12:08:54Z</time>
      </trkpt>
      <trkpt lat="48.86593" lon="6.07354">
        <ele>183</ele>
        <time>2021-07-29T12:08:55Z</time>
      </trkpt>
      <trkpt lat="48.86589" lon="6.07356">
        <ele>183</ele>
        <time>2021-07-29T12:08:56Z</time>
      </trkpt>
      <trkpt lat="48.86586" lon="6.07357">
        <ele>183</ele>
        <time>2021-07-29T12:08:57Z</time>
      </trkpt>
      <trkpt lat="48.86579" lon="6.07361">
        <ele>183</ele>
        <time>2021-07-29T12:08:59Z</time>
      </trkpt>
      <trkpt lat="48.86575" lon="6.07362">
        <ele>183</ele>
        <time>2021-07-29T12:09:00Z</time>
      </trkpt>
      <trkpt lat="48.86568" lon="6.07366">
        <ele>183</ele>
        <time>2021-07-29T12:09:02Z</time>
      </trkpt>
      <trkpt lat="48.86561" lon="6.07372">
        <ele>183</ele>
        <time>2021-07-29T12:09:04Z</time>
      </trkpt>
      <trkpt lat="48.86558" lon="6.07374">
        <ele>183</ele>
        <time>2021-07-29T12:09:05Z</time>
      </trkpt>
      <trkpt lat="48.86554" lon="6.07376">
        <ele>183.1</ele>
        <time>2021-07-29T12:09:06Z</time>
      </trkpt>
      <trkpt lat="48.86548" lon="6.07378">
        <ele>183.1</ele>
        <time>2021-07-29T12:09:07Z</time>
      </trkpt>
      <trkpt lat="48.86542" lon="6.07379">
        <ele>183.1</ele>
        <time>2021-07-29T12:09:09Z</time>
      </trkpt>
      <trkpt lat="48.86536" lon="6.07379">
        <ele>183.1</ele>
        <time>2021-07-29T12:09:10Z</time>
      </trkpt>
      <trkpt lat="48.8653" lon="6.07379">
        <ele>183.1</ele>
        <time>2021-07-29T12:09:11Z</time>
      </trkpt>
      <trkpt lat="48.86524" lon="6.07381">
        <ele>183.2</ele>
        <time>2021-07-29T12:09:13Z</time>
      </trkpt>
      <trkpt lat="48.86518" lon="6.07383">
        <ele>183.2</ele>
        <time>2021-07-29T12:09:15Z</time>
      </trkpt>
      <trkpt lat="48.86514" lon="6.07385">
        <ele>183.2</ele>
        <time>2021-07-29T12:09:16Z</time>
      </trkpt>
      <trkpt lat="48.86509" lon="6.07386">
        <ele>183.2</ele>
        <time>2021-07-29T12:09:17Z</time>
      </trkpt>
      <trkpt lat="48.86504" lon="6.07387">
        <ele>183.2</ele>
        <time>2021-07-29T12:09:18Z</time>
      </trkpt>
      <trkpt lat="48.865" lon="6.0739">
        <ele>183.2</ele>
        <time>2021-07-29T12:09:20Z</time>
      </trkpt>
      <trkpt lat="48.86493" lon="6.07396">
        <ele>183.2</ele>
        <time>2021-07-29T12:09:22Z</time>
      </trkpt>
      <trkpt lat="48.86487" lon="6.07405">
        <ele>183.1</ele>
        <time>2021-07-29T12:09:24Z</time>
      </trkpt>
      <trkpt lat="48.86481" lon="6.07417">
        <ele>183</ele>
        <time>2021-07-29T12:09:25Z</time>
      </trkpt>
      <trkpt lat="48.86478" lon="6.07427">
        <ele>182.9</ele>
        <time>2021-07-29T12:09:27Z</time>
      </trkpt>
      <trkpt lat="48.86477" lon="6.07434">
        <ele>182.9</ele>
        <time>2021-07-29T12:09:28Z</time>
      </trkpt>
      <trkpt lat="48.86476" lon="6.07441">
        <ele>182.9</ele>
        <time>2021-07-29T12:09:29Z</time>
      </trkpt>
      <trkpt lat="48.86472" lon="6.0745">
        <ele>182.9</ele>
        <time>2021-07-29T12:09:31Z</time>
      </trkpt>
      <trkpt lat="48.8647" lon="6.07454">
        <ele>182.9</ele>
        <time>2021-07-29T12:09:32Z</time>
      </trkpt>
      <trkpt lat="48.86463" lon="6.07463">
        <ele>183</ele>
        <time>2021-07-29T12:09:34Z</time>
      </trkpt>
      <trkpt lat="48.86457" lon="6.0747">
        <ele>183</ele>
        <time>2021-07-29T12:09:36Z</time>
      </trkpt>
      <trkpt lat="48.86451" lon="6.07476">
        <ele>183.1</ele>
        <time>2021-07-29T12:09:37Z</time>
      </trkpt>
      <trkpt lat="48.86444" lon="6.07482">
        <ele>183.1</ele>
        <time>2021-07-29T12:09:39Z</time>
      </trkpt>
      <trkpt lat="48.86437" lon="6.07487">
        <ele>183.1</ele>
        <time>2021-07-29T12:09:41Z</time>
      </trkpt>
      <trkpt lat="48.86432" lon="6.07492">
        <ele>183.1</ele>
        <time>2021-07-29T12:09:43Z</time>
      </trkpt>
      <trkpt lat="48.86428" lon="6.07495">
        <ele>183.2</ele>
        <time>2021-07-29T12:09:44Z</time>
      </trkpt>
      <trkpt lat="48.86423" lon="6.07499">
        <ele>183.2</ele>
        <time>2021-07-29T12:09:45Z</time>
      </trkpt>
      <trkpt lat="48.86416" lon="6.07504">
        <ele>183.3</ele>
        <time>2021-07-29T12:09:47Z</time>
      </trkpt>
      <trkpt lat="48.86409" lon="6.07508">
        <ele>183.3</ele>
        <time>2021-07-29T12:09:49Z</time>
      </trkpt>
      <trkpt lat="48.86402" lon="6.07512">
        <ele>183.4</ele>
        <time>2021-07-29T12:09:50Z</time>
      </trkpt>
      <trkpt lat="48.86396" lon="6.07509">
        <ele>183.4</ele>
        <time>2021-07-29T12:09:52Z</time>
      </trkpt>
      <trkpt lat="48.86392" lon="6.07505">
        <ele>183.4</ele>
        <time>2021-07-29T12:09:54Z</time>
      </trkpt>
      <trkpt lat="48.86388" lon="6.07502">
        <ele>183.4</ele>
        <time>2021-07-29T12:09:55Z</time>
      </trkpt>
      <trkpt lat="48.86384" lon="6.07503">
        <ele>183.4</ele>
        <time>2021-07-29T12:09:56Z</time>
      </trkpt>
      <trkpt lat="48.86379" lon="6.07506">
        <ele>183.4</ele>
        <time>2021-07-29T12:09:58Z</time>
      </trkpt>
      <trkpt lat="48.86374" lon="6.0751">
        <ele>183.3</ele>
        <time>2021-07-29T12:09:59Z</time>
      </trkpt>
      <trkpt lat="48.86367" lon="6.07515">
        <ele>183.3</ele>
        <time>2021-07-29T12:10:01Z</time>
      </trkpt>
      <trkpt lat="48.86363" lon="6.07518">
        <ele>183.3</ele>
        <time>2021-07-29T12:10:02Z</time>
      </trkpt>
      <trkpt lat="48.86357" lon="6.0752">
        <ele>183.3</ele>
        <time>2021-07-29T12:10:03Z</time>
      </trkpt>
      <trkpt lat="48.86351" lon="6.07522">
        <ele>183.3</ele>
        <time>2021-07-29T12:10:05Z</time>
      </trkpt>
      <trkpt lat="48.86343" lon="6.07524">
        <ele>183.2</ele>
        <time>2021-07-29T12:10:06Z</time>
      </trkpt>
      <trkpt lat="48.86336" lon="6.07527">
        <ele>183.2</ele>
        <time>2021-07-29T12:10:08Z</time>
      </trkpt>
      <trkpt lat="48.86332" lon="6.07529">
        <ele>183.2</ele>
        <time>2021-07-29T12:10:09Z</time>
      </trkpt>
      <trkpt lat="48.86325" lon="6.07532">
        <ele>183.1</ele>
        <time>2021-07-29T12:10:10Z</time>
      </trkpt>
      <trkpt lat="48.86318" lon="6.07538">
        <ele>183.1</ele>
        <time>2021-07-29T12:10:12Z</time>
      </trkpt>
      <trkpt lat="48.86313" lon="6.07542">
        <ele>183.1</ele>
        <time>2021-07-29T12:10:13Z</time>
      </trkpt>
      <trkpt lat="48.86309" lon="6.07545">
        <ele>183.1</ele>
        <time>2021-07-29T12:10:14Z</time>
      </trkpt>
      <trkpt lat="48.863" lon="6.07551">
        <ele>183</ele>
        <time>2021-07-29T12:10:16Z</time>
      </trkpt>
      <trkpt lat="48.8629" lon="6.07557">
        <ele>183</ele>
        <time>2021-07-29T12:10:18Z</time>
      </trkpt>
      <trkpt lat="48.86286" lon="6.07559">
        <ele>183</ele>
        <time>2021-07-29T12:10:19Z</time>
      </trkpt>
      <trkpt lat="48.86281" lon="6.07562">
        <ele>183</ele>
        <time>2021-07-29T12:10:20Z</time>
      </trkpt>
      <trkpt lat="48.86272" lon="6.07566">
        <ele>183.1</ele>
        <time>2021-07-29T12:10:22Z</time>
      </trkpt>
      <trkpt lat="48.86267" lon="6.0757">
        <ele>183.1</ele>
        <time>2021-07-29T12:10:23Z</time>
      </trkpt>
      <trkpt lat="48.86261" lon="6.07574">
        <ele>183.1</ele>
        <time>2021-07-29T12:10:25Z</time>
      </trkpt>
      <trkpt lat="48.86257" lon="6.07576">
        <ele>183.1</ele>
        <time>2021-07-29T12:10:26Z</time>
      </trkpt>
      <trkpt lat="48.86252" lon="6.07579">
        <ele>183.2</ele>
        <time>2021-07-29T12:10:27Z</time>
      </trkpt>
      <trkpt lat="48.86248" lon="6.07582">
        <ele>183.2</ele>
        <time>2021-07-29T12:10:28Z</time>
      </trkpt>
      <trkpt lat="48.86244" lon="6.07585">
        <ele>183.2</ele>
        <time>2021-07-29T12:10:29Z</time>
      </trkpt>
      <trkpt lat="48.8624" lon="6.07588">
        <ele>183.2</ele>
        <time>2021-07-29T12:10:30Z</time>
      </trkpt>
      <trkpt lat="48.86235" lon="6.07591">
        <ele>183.2</ele>
        <time>2021-07-29T12:10:31Z</time>
      </trkpt>
      <trkpt lat="48.86229" lon="6.07595">
        <ele>183.2</ele>
        <time>2021-07-29T12:10:33Z</time>
      </trkpt>
      <trkpt lat="48.86224" lon="6.076">
        <ele>183.2</ele>
        <time>2021-07-29T12:10:34Z</time>
      </trkpt>
      <trkpt lat="48.86217" lon="6.07604">
        <ele>183.2</ele>
        <time>2021-07-29T12:10:36Z</time>
      </trkpt>
      <trkpt lat="48.86211" lon="6.07608">
        <ele>183.2</ele>
        <time>2021-07-29T12:10:37Z</time>
      </trkpt>
      <trkpt lat="48.86207" lon="6.0761">
        <ele>183.2</ele>
        <time>2021-07-29T12:10:38Z</time>
      </trkpt>
      <trkpt lat="48.86198" lon="6.07615">
        <ele>183.1</ele>
        <time>2021-07-29T12:10:40Z</time>
      </trkpt>
      <trkpt lat="48.86194" lon="6.07617">
        <ele>183.1</ele>
        <time>2021-07-29T12:10:41Z</time>
      </trkpt>
      <trkpt lat="48.86189" lon="6.0762">
        <ele>183.1</ele>
        <time>2021-07-29T12:10:42Z</time>
      </trkpt>
      <trkpt lat="48.8618" lon="6.07624">
        <ele>183.1</ele>
        <time>2021-07-29T12:10:44Z</time>
      </trkpt>
      <trkpt lat="48.86171" lon="6.07629">
        <ele>183.1</ele>
        <time>2021-07-29T12:10:46Z</time>
      </trkpt>
      <trkpt lat="48.86167" lon="6.07632">
        <ele>183.1</ele>
        <time>2021-07-29T12:10:47Z</time>
      </trkpt>
      <trkpt lat="48.86163" lon="6.07635">
        <ele>183.2</ele>
        <time>2021-07-29T12:10:48Z</time>
      </trkpt>
      <trkpt lat="48.86158" lon="6.07637">
        <ele>183.2</ele>
        <time>2021-07-29T12:10:49Z</time>
      </trkpt>
      <trkpt lat="48.86154" lon="6.0764">
        <ele>183.2</ele>
        <time>2021-07-29T12:10:50Z</time>
      </trkpt>
      <trkpt lat="48.86146" lon="6.07645">
        <ele>183.2</ele>
        <time>2021-07-29T12:10:52Z</time>
      </trkpt>
      <trkpt lat="48.86142" lon="6.07639">
        <ele>183.2</ele>
        <time>2021-07-29T12:10:53Z</time>
      </trkpt>
      <trkpt lat="48.86136" lon="6.07642">
        <ele>183.2</ele>
        <time>2021-07-29T12:10:55Z</time>
      </trkpt>
      <trkpt lat="48.86131" lon="6.07646">
        <ele>183.2</ele>
        <time>2021-07-29T12:10:56Z</time>
      </trkpt>
      <trkpt lat="48.86126" lon="6.07651">
        <ele>183.2</ele>
        <time>2021-07-29T12:10:57Z</time>
      </trkpt>
      <trkpt lat="48.86117" lon="6.07656">
        <ele>183.2</ele>
        <time>2021-07-29T12:10:59Z</time>
      </trkpt>
      <trkpt lat="48.86112" lon="6.07658">
        <ele>183.2</ele>
        <time>2021-07-29T12:11:00Z</time>
      </trkpt>
      <trkpt lat="48.86108" lon="6.0766">
        <ele>183.2</ele>
        <time>2021-07-29T12:11:01Z</time>
      </trkpt>
      <trkpt lat="48.86105" lon="6.07659">
        <ele>183.2</ele>
        <time>2021-07-29T12:11:02Z</time>
      </trkpt>
      <trkpt lat="48.86099" lon="6.0766">
        <ele>183.2</ele>
        <time>2021-07-29T12:11:03Z</time>
      </trkpt>
      <trkpt lat="48.86095" lon="6.07662">
        <ele>183.2</ele>
        <time>2021-07-29T12:11:04Z</time>
      </trkpt>
      <trkpt lat="48.86087" lon="6.07663">
        <ele>183.2</ele>
        <time>2021-07-29T12:11:06Z</time>
      </trkpt>
      <trkpt lat="48.86077" lon="6.07663">
        <ele>183.2</ele>
        <time>2021-07-29T12:11:08Z</time>
      </trkpt>
      <trkpt lat="48.86067" lon="6.07662">
        <ele>183.2</ele>
        <time>2021-07-29T12:11:10Z</time>
      </trkpt>
      <trkpt lat="48.86058" lon="6.07663">
        <ele>183.2</ele>
        <time>2021-07-29T12:11:12Z</time>
      </trkpt>
      <trkpt lat="48.8605" lon="6.07664">
        <ele>183.2</ele>
        <time>2021-07-29T12:11:14Z</time>
      </trkpt>
      <trkpt lat="48.86046" lon="6.07665">
        <ele>183.2</ele>
        <time>2021-07-29T12:11:15Z</time>
      </trkpt>
      <trkpt lat="48.86042" lon="6.07666">
        <ele>183.2</ele>
        <time>2021-07-29T12:11:16Z</time>
      </trkpt>
      <trkpt lat="48.86033" lon="6.07669">
        <ele>183.2</ele>
        <time>2021-07-29T12:11:18Z</time>
      </trkpt>
      <trkpt lat="48.86024" lon="6.07673">
        <ele>183.2</ele>
        <time>2021-07-29T12:11:20Z</time>
      </trkpt>
      <trkpt lat="48.86019" lon="6.07676">
        <ele>183.2</ele>
        <time>2021-07-29T12:11:21Z</time>
      </trkpt>
      <trkpt lat="48.86014" lon="6.07678">
        <ele>183.2</ele>
        <time>2021-07-29T12:11:22Z</time>
      </trkpt>
      <trkpt lat="48.86004" lon="6.07679">
        <ele>183.2</ele>
        <time>2021-07-29T12:11:24Z</time>
      </trkpt>
      <trkpt lat="48.86" lon="6.07679">
        <ele>183.2</ele>
        <time>2021-07-29T12:11:25Z</time>
      </trkpt>
      <trkpt lat="48.85995" lon="6.07678">
        <ele>183.2</ele>
        <time>2021-07-29T12:11:26Z</time>
      </trkpt>
      <trkpt lat="48.85991" lon="6.07678">
        <ele>183.2</ele>
        <time>2021-07-29T12:11:27Z</time>
      </trkpt>
      <trkpt lat="48.85987" lon="6.07679">
        <ele>183.2</ele>
        <time>2021-07-29T12:11:28Z</time>
      </trkpt>
      <trkpt lat="48.85983" lon="6.0768">
        <ele>183.2</ele>
        <time>2021-07-29T12:11:29Z</time>
      </trkpt>
      <trkpt lat="48.85979" lon="6.07681">
        <ele>183.2</ele>
        <time>2021-07-29T12:11:30Z</time>
      </trkpt>
      <trkpt lat="48.85975" lon="6.07681">
        <ele>183.2</ele>
        <time>2021-07-29T12:11:31Z</time>
      </trkpt>
      <trkpt lat="48.85971" lon="6.07681">
        <ele>183.2</ele>
        <time>2021-07-29T12:11:32Z</time>
      </trkpt>
      <trkpt lat="48.85966" lon="6.07681">
        <ele>183.3</ele>
        <time>2021-07-29T12:11:33Z</time>
      </trkpt>
      <trkpt lat="48.85961" lon="6.07682">
        <ele>183.3</ele>
        <time>2021-07-29T12:11:35Z</time>
      </trkpt>
      <trkpt lat="48.85957" lon="6.07683">
        <ele>183.3</ele>
        <time>2021-07-29T12:11:36Z</time>
      </trkpt>
      <trkpt lat="48.85952" lon="6.07682">
        <ele>183.3</ele>
        <time>2021-07-29T12:11:37Z</time>
      </trkpt>
      <trkpt lat="48.85948" lon="6.07681">
        <ele>183.3</ele>
        <time>2021-07-29T12:11:38Z</time>
      </trkpt>
      <trkpt lat="48.85944" lon="6.07681">
        <ele>183.3</ele>
        <time>2021-07-29T12:11:40Z</time>
      </trkpt>
      <trkpt lat="48.8594" lon="6.07682">
        <ele>183.3</ele>
        <time>2021-07-29T12:11:41Z</time>
      </trkpt>
      <trkpt lat="48.85937" lon="6.07684">
        <ele>183.3</ele>
        <time>2021-07-29T12:11:42Z</time>
      </trkpt>
      <trkpt lat="48.85933" lon="6.07685">
        <ele>183.3</ele>
        <time>2021-07-29T12:11:43Z</time>
      </trkpt>
      <trkpt lat="48.85927" lon="6.07687">
        <ele>183.3</ele>
        <time>2021-07-29T12:11:45Z</time>
      </trkpt>
      <trkpt lat="48.85921" lon="6.07689">
        <ele>183.3</ele>
        <time>2021-07-29T12:11:46Z</time>
      </trkpt>
      <trkpt lat="48.85917" lon="6.07689">
        <ele>183.3</ele>
        <time>2021-07-29T12:11:48Z</time>
      </trkpt>
      <trkpt lat="48.85914" lon="6.0769">
        <ele>183.3</ele>
        <time>2021-07-29T12:11:49Z</time>
      </trkpt>
      <trkpt lat="48.85911" lon="6.07691">
        <ele>183.3</ele>
        <time>2021-07-29T12:11:50Z</time>
      </trkpt>
      <trkpt lat="48.85905" lon="6.07691">
        <ele>183.2</ele>
        <time>2021-07-29T12:11:51Z</time>
      </trkpt>
      <trkpt lat="48.85901" lon="6.07692">
        <ele>183.2</ele>
        <time>2021-07-29T12:11:53Z</time>
      </trkpt>
      <trkpt lat="48.85898" lon="6.07692">
        <ele>183.2</ele>
        <time>2021-07-29T12:11:54Z</time>
      </trkpt>
      <trkpt lat="48.85892" lon="6.07693">
        <ele>183.2</ele>
        <time>2021-07-29T12:11:55Z</time>
      </trkpt>
      <trkpt lat="48.85887" lon="6.07693">
        <ele>183.2</ele>
        <time>2021-07-29T12:11:57Z</time>
      </trkpt>
      <trkpt lat="48.85884" lon="6.07695">
        <ele>183.2</ele>
        <time>2021-07-29T12:11:58Z</time>
      </trkpt>
      <trkpt lat="48.85881" lon="6.07695">
        <ele>183.2</ele>
        <time>2021-07-29T12:11:59Z</time>
      </trkpt>
      <trkpt lat="48.85874" lon="6.07698">
        <ele>183.2</ele>
        <time>2021-07-29T12:12:01Z</time>
      </trkpt>
      <trkpt lat="48.85871" lon="6.07699">
        <ele>183.2</ele>
        <time>2021-07-29T12:12:02Z</time>
      </trkpt>
      <trkpt lat="48.85866" lon="6.07699">
        <ele>183.2</ele>
        <time>2021-07-29T12:12:04Z</time>
      </trkpt>
      <trkpt lat="48.85863" lon="6.07699">
        <ele>183.2</ele>
        <time>2021-07-29T12:12:05Z</time>
      </trkpt>
      <trkpt lat="48.85857" lon="6.07702">
        <ele>183.3</ele>
        <time>2021-07-29T12:12:07Z</time>
      </trkpt>
      <trkpt lat="48.85855" lon="6.07702">
        <ele>183.3</ele>
        <time>2021-07-29T12:12:08Z</time>
      </trkpt>
      <trkpt lat="48.8585" lon="6.07703">
        <ele>183.3</ele>
        <time>2021-07-29T12:12:10Z</time>
      </trkpt>
      <trkpt lat="48.85845" lon="6.07704">
        <ele>183.3</ele>
        <time>2021-07-29T12:12:11Z</time>
      </trkpt>
      <trkpt lat="48.85842" lon="6.07705">
        <ele>183.3</ele>
        <time>2021-07-29T12:12:13Z</time>
      </trkpt>
      <trkpt lat="48.85838" lon="6.07706">
        <ele>183.3</ele>
        <time>2021-07-29T12:12:14Z</time>
      </trkpt>
      <trkpt lat="48.85833" lon="6.07705">
        <ele>183.3</ele>
        <time>2021-07-29T12:12:15Z</time>
      </trkpt>
      <trkpt lat="48.85829" lon="6.07705">
        <ele>183.3</ele>
        <time>2021-07-29T12:12:17Z</time>
      </trkpt>
      <trkpt lat="48.85824" lon="6.07704">
        <ele>183.3</ele>
        <time>2021-07-29T12:12:18Z</time>
      </trkpt>
      <trkpt lat="48.8582" lon="6.07705">
        <ele>183.2</ele>
        <time>2021-07-29T12:12:19Z</time>
      </trkpt>
      <trkpt lat="48.85816" lon="6.07705">
        <ele>183.2</ele>
        <time>2021-07-29T12:12:21Z</time>
      </trkpt>
      <trkpt lat="48.85812" lon="6.07706">
        <ele>183.2</ele>
        <time>2021-07-29T12:12:22Z</time>
      </trkpt>
      <trkpt lat="48.85809" lon="6.07706">
        <ele>183.2</ele>
        <time>2021-07-29T12:12:23Z</time>
      </trkpt>
      <trkpt lat="48.85805" lon="6.07707">
        <ele>183.2</ele>
        <time>2021-07-29T12:12:24Z</time>
      </trkpt>
      <trkpt lat="48.85798" lon="6.07708">
        <ele>183.2</ele>
        <time>2021-07-29T12:12:26Z</time>
      </trkpt>
      <trkpt lat="48.85793" lon="6.07708">
        <ele>183.2</ele>
        <time>2021-07-29T12:12:27Z</time>
      </trkpt>
      <trkpt lat="48.85788" lon="6.07708">
        <ele>183.2</ele>
        <time>2021-07-29T12:12:28Z</time>
      </trkpt>
      <trkpt lat="48.85784" lon="6.07708">
        <ele>183.2</ele>
        <time>2021-07-29T12:12:30Z</time>
      </trkpt>
      <trkpt lat="48.85781" lon="6.07708">
        <ele>183.3</ele>
        <time>2021-07-29T12:12:31Z</time>
      </trkpt>
      <trkpt lat="48.85778" lon="6.07708">
        <ele>183.3</ele>
        <time>2021-07-29T12:12:32Z</time>
      </trkpt>
      <trkpt lat="48.85772" lon="6.07705">
        <ele>183.3</ele>
        <time>2021-07-29T12:12:34Z</time>
      </trkpt>
      <trkpt lat="48.85769" lon="6.07705">
        <ele>183.3</ele>
        <time>2021-07-29T12:12:35Z</time>
      </trkpt>
      <trkpt lat="48.85763" lon="6.07705">
        <ele>183.3</ele>
        <time>2021-07-29T12:12:37Z</time>
      </trkpt>
      <trkpt lat="48.8576" lon="6.07704">
        <ele>183.3</ele>
        <time>2021-07-29T12:12:38Z</time>
      </trkpt>
      <trkpt lat="48.85754" lon="6.07703">
        <ele>183.3</ele>
        <time>2021-07-29T12:12:39Z</time>
      </trkpt>
      <trkpt lat="48.8575" lon="6.07703">
        <ele>183.3</ele>
        <time>2021-07-29T12:12:41Z</time>
      </trkpt>
      <trkpt lat="48.85746" lon="6.07702">
        <ele>183.3</ele>
        <time>2021-07-29T12:12:42Z</time>
      </trkpt>
      <trkpt lat="48.8574" lon="6.07702">
        <ele>183.3</ele>
        <time>2021-07-29T12:12:44Z</time>
      </trkpt>
      <trkpt lat="48.85732" lon="6.07702">
        <ele>183.3</ele>
        <time>2021-07-29T12:12:46Z</time>
      </trkpt>
      <trkpt lat="48.85728" lon="6.07702">
        <ele>183.3</ele>
        <time>2021-07-29T12:12:47Z</time>
      </trkpt>
      <trkpt lat="48.85725" lon="6.07703">
        <ele>183.3</ele>
        <time>2021-07-29T12:12:48Z</time>
      </trkpt>
      <trkpt lat="48.85718" lon="6.07702">
        <ele>183.3</ele>
        <time>2021-07-29T12:12:50Z</time>
      </trkpt>
      <trkpt lat="48.85714" lon="6.07702">
        <ele>183.3</ele>
        <time>2021-07-29T12:12:51Z</time>
      </trkpt>
      <trkpt lat="48.8571" lon="6.07701">
        <ele>183.3</ele>
        <time>2021-07-29T12:12:52Z</time>
      </trkpt>
      <trkpt lat="48.85706" lon="6.077">
        <ele>183.3</ele>
        <time>2021-07-29T12:12:53Z</time>
      </trkpt>
      <trkpt lat="48.85702" lon="6.077">
        <ele>183.3</ele>
        <time>2021-07-29T12:12:54Z</time>
      </trkpt>
      <trkpt lat="48.85697" lon="6.077">
        <ele>183.3</ele>
        <time>2021-07-29T12:12:56Z</time>
      </trkpt>
      <trkpt lat="48.85693" lon="6.07701">
        <ele>183.3</ele>
        <time>2021-07-29T12:12:57Z</time>
      </trkpt>
      <trkpt lat="48.85689" lon="6.07701">
        <ele>183.3</ele>
        <time>2021-07-29T12:12:58Z</time>
      </trkpt>
      <trkpt lat="48.85685" lon="6.07702">
        <ele>183.3</ele>
        <time>2021-07-29T12:12:59Z</time>
      </trkpt>
      <trkpt lat="48.85679" lon="6.07703">
        <ele>183.3</ele>
        <time>2021-07-29T12:13:00Z</time>
      </trkpt>
      <trkpt lat="48.85675" lon="6.07704">
        <ele>183.3</ele>
        <time>2021-07-29T12:13:01Z</time>
      </trkpt>
      <trkpt lat="48.85671" lon="6.07705">
        <ele>183.3</ele>
        <time>2021-07-29T12:13:02Z</time>
      </trkpt>
      <trkpt lat="48.85667" lon="6.07705">
        <ele>183.3</ele>
        <time>2021-07-29T12:13:03Z</time>
      </trkpt>
      <trkpt lat="48.85662" lon="6.07705">
        <ele>183.3</ele>
        <time>2021-07-29T12:13:04Z</time>
      </trkpt>
      <trkpt lat="48.85657" lon="6.07706">
        <ele>183.3</ele>
        <time>2021-07-29T12:13:06Z</time>
      </trkpt>
      <trkpt lat="48.85653" lon="6.07707">
        <ele>183.3</ele>
        <time>2021-07-29T12:13:07Z</time>
      </trkpt>
      <trkpt lat="48.85647" lon="6.07708">
        <ele>183.3</ele>
        <time>2021-07-29T12:13:08Z</time>
      </trkpt>
      <trkpt lat="48.85643" lon="6.07708">
        <ele>183.3</ele>
        <time>2021-07-29T12:13:09Z</time>
      </trkpt>
      <trkpt lat="48.85639" lon="6.07709">
        <ele>183.3</ele>
        <time>2021-07-29T12:13:10Z</time>
      </trkpt>
      <trkpt lat="48.85634" lon="6.07709">
        <ele>183.2</ele>
        <time>2021-07-29T12:13:11Z</time>
      </trkpt>
      <trkpt lat="48.8563" lon="6.07709">
        <ele>183.2</ele>
        <time>2021-07-29T12:13:13Z</time>
      </trkpt>
      <trkpt lat="48.85626" lon="6.0771">
        <ele>183.2</ele>
        <time>2021-07-29T12:13:14Z</time>
      </trkpt>
      <trkpt lat="48.85622" lon="6.07711">
        <ele>183.2</ele>
        <time>2021-07-29T12:13:15Z</time>
      </trkpt>
      <trkpt lat="48.85617" lon="6.07712">
        <ele>183.2</ele>
        <time>2021-07-29T12:13:16Z</time>
      </trkpt>
      <trkpt lat="48.85613" lon="6.07713">
        <ele>183.2</ele>
        <time>2021-07-29T12:13:18Z</time>
      </trkpt>
      <trkpt lat="48.85609" lon="6.07714">
        <ele>183.2</ele>
        <time>2021-07-29T12:13:19Z</time>
      </trkpt>
      <trkpt lat="48.85606" lon="6.07714">
        <ele>183.3</ele>
        <time>2021-07-29T12:13:20Z</time>
      </trkpt>
      <trkpt lat="48.85601" lon="6.07714">
        <ele>183.3</ele>
        <time>2021-07-29T12:13:21Z</time>
      </trkpt>
      <trkpt lat="48.85597" lon="6.07715">
        <ele>183.3</ele>
        <time>2021-07-29T12:13:22Z</time>
      </trkpt>
      <trkpt lat="48.85593" lon="6.07716">
        <ele>183.3</ele>
        <time>2021-07-29T12:13:24Z</time>
      </trkpt>
      <trkpt lat="48.85588" lon="6.07719">
        <ele>183.3</ele>
        <time>2021-07-29T12:13:25Z</time>
      </trkpt>
      <trkpt lat="48.85584" lon="6.07721">
        <ele>183.4</ele>
        <time>2021-07-29T12:13:26Z</time>
      </trkpt>
      <trkpt lat="48.8558" lon="6.07722">
        <ele>183.4</ele>
        <time>2021-07-29T12:13:27Z</time>
      </trkpt>
      <trkpt lat="48.85576" lon="6.07724">
        <ele>183.4</ele>
        <time>2021-07-29T12:13:29Z</time>
      </trkpt>
      <trkpt lat="48.85571" lon="6.07725">
        <ele>183.4</ele>
        <time>2021-07-29T12:13:30Z</time>
      </trkpt>
      <trkpt lat="48.85567" lon="6.07726">
        <ele>183.4</ele>
        <time>2021-07-29T12:13:31Z</time>
      </trkpt>
      <trkpt lat="48.85563" lon="6.07727">
        <ele>183.4</ele>
        <time>2021-07-29T12:13:33Z</time>
      </trkpt>
      <trkpt lat="48.85559" lon="6.07728">
        <ele>183.4</ele>
        <time>2021-07-29T12:13:34Z</time>
      </trkpt>
      <trkpt lat="48.85556" lon="6.07728">
        <ele>183.4</ele>
        <time>2021-07-29T12:13:35Z</time>
      </trkpt>
      <trkpt lat="48.85553" lon="6.07728">
        <ele>183.4</ele>
        <time>2021-07-29T12:13:36Z</time>
      </trkpt>
      <trkpt lat="48.85548" lon="6.0773">
        <ele>183.4</ele>
        <time>2021-07-29T12:13:37Z</time>
      </trkpt>
      <trkpt lat="48.85545" lon="6.07732">
        <ele>183.4</ele>
        <time>2021-07-29T12:13:39Z</time>
      </trkpt>
      <trkpt lat="48.85542" lon="6.07734">
        <ele>183.4</ele>
        <time>2021-07-29T12:13:40Z</time>
      </trkpt>
      <trkpt lat="48.85539" lon="6.07735">
        <ele>183.4</ele>
        <time>2021-07-29T12:13:41Z</time>
      </trkpt>
      <trkpt lat="48.85536" lon="6.07737">
        <ele>183.4</ele>
        <time>2021-07-29T12:13:42Z</time>
      </trkpt>
      <trkpt lat="48.85533" lon="6.0774">
        <ele>183.4</ele>
        <time>2021-07-29T12:13:43Z</time>
      </trkpt>
      <trkpt lat="48.85529" lon="6.07742">
        <ele>183.4</ele>
        <time>2021-07-29T12:13:45Z</time>
      </trkpt>
      <trkpt lat="48.85524" lon="6.07742">
        <ele>183.4</ele>
        <time>2021-07-29T12:13:46Z</time>
      </trkpt>
      <trkpt lat="48.8552" lon="6.07742">
        <ele>183.4</ele>
        <time>2021-07-29T12:13:47Z</time>
      </trkpt>
      <trkpt lat="48.85515" lon="6.07743">
        <ele>183.3</ele>
        <time>2021-07-29T12:13:49Z</time>
      </trkpt>
      <trkpt lat="48.85512" lon="6.07744">
        <ele>183.3</ele>
        <time>2021-07-29T12:13:50Z</time>
      </trkpt>
      <trkpt lat="48.85507" lon="6.07747">
        <ele>183.3</ele>
        <time>2021-07-29T12:13:51Z</time>
      </trkpt>
      <trkpt lat="48.85503" lon="6.07748">
        <ele>183.4</ele>
        <time>2021-07-29T12:13:53Z</time>
      </trkpt>
      <trkpt lat="48.85499" lon="6.07749">
        <ele>183.4</ele>
        <time>2021-07-29T12:13:54Z</time>
      </trkpt>
      <trkpt lat="48.85494" lon="6.0775">
        <ele>183.4</ele>
        <time>2021-07-29T12:13:55Z</time>
      </trkpt>
      <trkpt lat="48.85489" lon="6.0775">
        <ele>183.4</ele>
        <time>2021-07-29T12:13:57Z</time>
      </trkpt>
      <trkpt lat="48.85486" lon="6.0775">
        <ele>183.4</ele>
        <time>2021-07-29T12:13:58Z</time>
      </trkpt>
      <trkpt lat="48.85482" lon="6.0775">
        <ele>183.4</ele>
        <time>2021-07-29T12:13:59Z</time>
      </trkpt>
      <trkpt lat="48.85479" lon="6.07749">
        <ele>183.4</ele>
        <time>2021-07-29T12:14:00Z</time>
      </trkpt>
      <trkpt lat="48.85473" lon="6.07749">
        <ele>183.5</ele>
        <time>2021-07-29T12:14:01Z</time>
      </trkpt>
      <trkpt lat="48.85468" lon="6.07748">
        <ele>183.5</ele>
        <time>2021-07-29T12:14:03Z</time>
      </trkpt>
      <trkpt lat="48.85462" lon="6.07747">
        <ele>183.5</ele>
        <time>2021-07-29T12:14:04Z</time>
      </trkpt>
      <trkpt lat="48.85458" lon="6.07747">
        <ele>183.5</ele>
        <time>2021-07-29T12:14:06Z</time>
      </trkpt>
      <trkpt lat="48.85454" lon="6.07748">
        <ele>183.5</ele>
        <time>2021-07-29T12:14:07Z</time>
      </trkpt>
      <trkpt lat="48.85451" lon="6.07748">
        <ele>183.5</ele>
        <time>2021-07-29T12:14:08Z</time>
      </trkpt>
      <trkpt lat="48.85445" lon="6.0775">
        <ele>183.5</ele>
        <time>2021-07-29T12:14:10Z</time>
      </trkpt>
      <trkpt lat="48.85441" lon="6.0775">
        <ele>183.5</ele>
        <time>2021-07-29T12:14:11Z</time>
      </trkpt>
      <trkpt lat="48.85438" lon="6.07749">
        <ele>183.5</ele>
        <time>2021-07-29T12:14:12Z</time>
      </trkpt>
      <trkpt lat="48.85431" lon="6.07748">
        <ele>183.5</ele>
        <time>2021-07-29T12:14:14Z</time>
      </trkpt>
      <trkpt lat="48.85428" lon="6.07749">
        <ele>183.5</ele>
        <time>2021-07-29T12:14:15Z</time>
      </trkpt>
      <trkpt lat="48.85422" lon="6.0775">
        <ele>183.5</ele>
        <time>2021-07-29T12:14:16Z</time>
      </trkpt>
      <trkpt lat="48.85417" lon="6.07749">
        <ele>183.5</ele>
        <time>2021-07-29T12:14:18Z</time>
      </trkpt>
      <trkpt lat="48.85413" lon="6.07749">
        <ele>183.5</ele>
        <time>2021-07-29T12:14:19Z</time>
      </trkpt>
      <trkpt lat="48.85408" lon="6.07749">
        <ele>183.5</ele>
        <time>2021-07-29T12:14:20Z</time>
      </trkpt>
      <trkpt lat="48.85404" lon="6.07749">
        <ele>183.5</ele>
        <time>2021-07-29T12:14:22Z</time>
      </trkpt>
      <trkpt lat="48.85401" lon="6.07749">
        <ele>183.5</ele>
        <time>2021-07-29T12:14:23Z</time>
      </trkpt>
      <trkpt lat="48.85398" lon="6.07748">
        <ele>183.5</ele>
        <time>2021-07-29T12:14:24Z</time>
      </trkpt>
      <trkpt lat="48.85393" lon="6.07747">
        <ele>183.5</ele>
        <time>2021-07-29T12:14:25Z</time>
      </trkpt>
      <trkpt lat="48.8539" lon="6.07746">
        <ele>183.5</ele>
        <time>2021-07-29T12:14:27Z</time>
      </trkpt>
      <trkpt lat="48.85383" lon="6.07745">
        <ele>183.5</ele>
        <time>2021-07-29T12:14:29Z</time>
      </trkpt>
      <trkpt lat="48.85378" lon="6.07745">
        <ele>183.5</ele>
        <time>2021-07-29T12:14:30Z</time>
      </trkpt>
      <trkpt lat="48.85374" lon="6.07745">
        <ele>183.5</ele>
        <time>2021-07-29T12:14:31Z</time>
      </trkpt>
      <trkpt lat="48.8537" lon="6.07744">
        <ele>183.5</ele>
        <time>2021-07-29T12:14:33Z</time>
      </trkpt>
      <trkpt lat="48.85365" lon="6.07744">
        <ele>183.6</ele>
        <time>2021-07-29T12:14:34Z</time>
      </trkpt>
      <trkpt lat="48.85361" lon="6.07745">
        <ele>183.6</ele>
        <time>2021-07-29T12:14:35Z</time>
      </trkpt>
      <trkpt lat="48.85357" lon="6.07746">
        <ele>183.6</ele>
        <time>2021-07-29T12:14:37Z</time>
      </trkpt>
      <trkpt lat="48.85354" lon="6.07746">
        <ele>183.6</ele>
        <time>2021-07-29T12:14:38Z</time>
      </trkpt>
      <trkpt lat="48.85348" lon="6.07747">
        <ele>183.6</ele>
        <time>2021-07-29T12:14:40Z</time>
      </trkpt>
      <trkpt lat="48.85344" lon="6.07748">
        <ele>183.6</ele>
        <time>2021-07-29T12:14:41Z</time>
      </trkpt>
      <trkpt lat="48.8534" lon="6.0775">
        <ele>183.6</ele>
        <time>2021-07-29T12:14:42Z</time>
      </trkpt>
      <trkpt lat="48.85336" lon="6.0775">
        <ele>183.6</ele>
        <time>2021-07-29T12:14:43Z</time>
      </trkpt>
      <trkpt lat="48.85331" lon="6.0775">
        <ele>183.6</ele>
        <time>2021-07-29T12:14:45Z</time>
      </trkpt>
      <trkpt lat="48.85327" lon="6.0775">
        <ele>183.6</ele>
        <time>2021-07-29T12:14:46Z</time>
      </trkpt>
      <trkpt lat="48.85323" lon="6.07749">
        <ele>183.6</ele>
        <time>2021-07-29T12:14:47Z</time>
      </trkpt>
      <trkpt lat="48.85319" lon="6.0775">
        <ele>183.6</ele>
        <time>2021-07-29T12:14:48Z</time>
      </trkpt>
      <trkpt lat="48.85315" lon="6.07751">
        <ele>183.6</ele>
        <time>2021-07-29T12:14:49Z</time>
      </trkpt>
      <trkpt lat="48.8531" lon="6.07752">
        <ele>183.6</ele>
        <time>2021-07-29T12:14:51Z</time>
      </trkpt>
      <trkpt lat="48.85307" lon="6.07753">
        <ele>183.6</ele>
        <time>2021-07-29T12:14:52Z</time>
      </trkpt>
      <trkpt lat="48.85303" lon="6.07753">
        <ele>183.6</ele>
        <time>2021-07-29T12:14:53Z</time>
      </trkpt>
      <trkpt lat="48.85298" lon="6.07753">
        <ele>183.6</ele>
        <time>2021-07-29T12:14:54Z</time>
      </trkpt>
      <trkpt lat="48.85293" lon="6.07753">
        <ele>183.6</ele>
        <time>2021-07-29T12:14:55Z</time>
      </trkpt>
      <trkpt lat="48.85289" lon="6.07753">
        <ele>183.6</ele>
        <time>2021-07-29T12:14:57Z</time>
      </trkpt>
      <trkpt lat="48.85285" lon="6.07754">
        <ele>183.6</ele>
        <time>2021-07-29T12:14:58Z</time>
      </trkpt>
      <trkpt lat="48.85279" lon="6.07754">
        <ele>183.6</ele>
        <time>2021-07-29T12:14:59Z</time>
      </trkpt>
      <trkpt lat="48.85275" lon="6.07754">
        <ele>183.6</ele>
        <time>2021-07-29T12:15:00Z</time>
      </trkpt>
      <trkpt lat="48.85271" lon="6.07754">
        <ele>183.6</ele>
        <time>2021-07-29T12:15:02Z</time>
      </trkpt>
      <trkpt lat="48.85264" lon="6.07756">
        <ele>183.6</ele>
        <time>2021-07-29T12:15:04Z</time>
      </trkpt>
      <trkpt lat="48.85261" lon="6.07756">
        <ele>183.6</ele>
        <time>2021-07-29T12:15:05Z</time>
      </trkpt>
      <trkpt lat="48.85258" lon="6.07756">
        <ele>183.6</ele>
        <time>2021-07-29T12:15:06Z</time>
      </trkpt>
      <trkpt lat="48.85253" lon="6.07757">
        <ele>183.6</ele>
        <time>2021-07-29T12:15:07Z</time>
      </trkpt>
      <trkpt lat="48.85249" lon="6.07755">
        <ele>183.6</ele>
        <time>2021-07-29T12:15:09Z</time>
      </trkpt>
      <trkpt lat="48.85245" lon="6.07754">
        <ele>183.6</ele>
        <time>2021-07-29T12:15:10Z</time>
      </trkpt>
      <trkpt lat="48.8524" lon="6.07753">
        <ele>183.7</ele>
        <time>2021-07-29T12:15:12Z</time>
      </trkpt>
      <trkpt lat="48.85233" lon="6.07754">
        <ele>183.7</ele>
        <time>2021-07-29T12:15:14Z</time>
      </trkpt>
      <trkpt lat="48.85229" lon="6.07754">
        <ele>183.7</ele>
        <time>2021-07-29T12:15:15Z</time>
      </trkpt>
      <trkpt lat="48.85224" lon="6.07754">
        <ele>183.7</ele>
        <time>2021-07-29T12:15:16Z</time>
      </trkpt>
      <trkpt lat="48.8522" lon="6.07754">
        <ele>183.7</ele>
        <time>2021-07-29T12:15:17Z</time>
      </trkpt>
      <trkpt lat="48.85215" lon="6.07753">
        <ele>183.8</ele>
        <time>2021-07-29T12:15:19Z</time>
      </trkpt>
      <trkpt lat="48.85212" lon="6.07753">
        <ele>183.8</ele>
        <time>2021-07-29T12:15:20Z</time>
      </trkpt>
      <trkpt lat="48.85206" lon="6.07753">
        <ele>183.8</ele>
        <time>2021-07-29T12:15:21Z</time>
      </trkpt>
      <trkpt lat="48.85202" lon="6.07753">
        <ele>183.8</ele>
        <time>2021-07-29T12:15:22Z</time>
      </trkpt>
      <trkpt lat="48.85197" lon="6.07754">
        <ele>183.8</ele>
        <time>2021-07-29T12:15:24Z</time>
      </trkpt>
      <trkpt lat="48.85188" lon="6.07754">
        <ele>183.9</ele>
        <time>2021-07-29T12:15:26Z</time>
      </trkpt>
      <trkpt lat="48.85182" lon="6.07754">
        <ele>183.9</ele>
        <time>2021-07-29T12:15:27Z</time>
      </trkpt>
      <trkpt lat="48.85178" lon="6.07754">
        <ele>183.9</ele>
        <time>2021-07-29T12:15:28Z</time>
      </trkpt>
      <trkpt lat="48.85173" lon="6.07755">
        <ele>183.9</ele>
        <time>2021-07-29T12:15:30Z</time>
      </trkpt>
      <trkpt lat="48.85165" lon="6.07757">
        <ele>183.9</ele>
        <time>2021-07-29T12:15:32Z</time>
      </trkpt>
      <trkpt lat="48.85159" lon="6.0776">
        <ele>183.9</ele>
        <time>2021-07-29T12:15:33Z</time>
      </trkpt>
      <trkpt lat="48.85155" lon="6.07762">
        <ele>183.9</ele>
        <time>2021-07-29T12:15:34Z</time>
      </trkpt>
      <trkpt lat="48.85151" lon="6.07763">
        <ele>183.9</ele>
        <time>2021-07-29T12:15:36Z</time>
      </trkpt>
      <trkpt lat="48.85147" lon="6.07764">
        <ele>183.9</ele>
        <time>2021-07-29T12:15:37Z</time>
      </trkpt>
      <trkpt lat="48.85144" lon="6.07766">
        <ele>183.9</ele>
        <time>2021-07-29T12:15:38Z</time>
      </trkpt>
      <trkpt lat="48.85136" lon="6.07768">
        <ele>183.9</ele>
        <time>2021-07-29T12:15:40Z</time>
      </trkpt>
      <trkpt lat="48.85132" lon="6.07769">
        <ele>183.9</ele>
        <time>2021-07-29T12:15:41Z</time>
      </trkpt>
      <trkpt lat="48.85126" lon="6.07771">
        <ele>183.9</ele>
        <time>2021-07-29T12:15:42Z</time>
      </trkpt>
      <trkpt lat="48.85122" lon="6.07771">
        <ele>183.9</ele>
        <time>2021-07-29T12:15:43Z</time>
      </trkpt>
      <trkpt lat="48.85117" lon="6.07771">
        <ele>183.9</ele>
        <time>2021-07-29T12:15:44Z</time>
      </trkpt>
      <trkpt lat="48.85113" lon="6.0777">
        <ele>183.9</ele>
        <time>2021-07-29T12:15:45Z</time>
      </trkpt>
      <trkpt lat="48.85108" lon="6.0777">
        <ele>183.9</ele>
        <time>2021-07-29T12:15:47Z</time>
      </trkpt>
      <trkpt lat="48.85104" lon="6.07769">
        <ele>183.9</ele>
        <time>2021-07-29T12:15:48Z</time>
      </trkpt>
      <trkpt lat="48.85099" lon="6.07768">
        <ele>183.9</ele>
        <time>2021-07-29T12:15:49Z</time>
      </trkpt>
      <trkpt lat="48.85095" lon="6.07769">
        <ele>183.9</ele>
        <time>2021-07-29T12:15:50Z</time>
      </trkpt>
      <trkpt lat="48.85088" lon="6.07772">
        <ele>183.9</ele>
        <time>2021-07-29T12:15:52Z</time>
      </trkpt>
      <trkpt lat="48.85084" lon="6.07773">
        <ele>183.9</ele>
        <time>2021-07-29T12:15:53Z</time>
      </trkpt>
      <trkpt lat="48.8508" lon="6.07774">
        <ele>183.9</ele>
        <time>2021-07-29T12:15:54Z</time>
      </trkpt>
      <trkpt lat="48.85076" lon="6.07775">
        <ele>183.9</ele>
        <time>2021-07-29T12:15:55Z</time>
      </trkpt>
      <trkpt lat="48.85072" lon="6.07776">
        <ele>183.9</ele>
        <time>2021-07-29T12:15:56Z</time>
      </trkpt>
      <trkpt lat="48.85066" lon="6.07777">
        <ele>183.9</ele>
        <time>2021-07-29T12:15:58Z</time>
      </trkpt>
      <trkpt lat="48.85062" lon="6.07779">
        <ele>183.9</ele>
        <time>2021-07-29T12:15:59Z</time>
      </trkpt>
      <trkpt lat="48.85057" lon="6.07779">
        <ele>183.9</ele>
        <time>2021-07-29T12:16:00Z</time>
      </trkpt>
      <trkpt lat="48.85053" lon="6.0778">
        <ele>183.9</ele>
        <time>2021-07-29T12:16:01Z</time>
      </trkpt>
      <trkpt lat="48.85049" lon="6.07781">
        <ele>183.9</ele>
        <time>2021-07-29T12:16:02Z</time>
      </trkpt>
      <trkpt lat="48.85045" lon="6.07782">
        <ele>183.9</ele>
        <time>2021-07-29T12:16:03Z</time>
      </trkpt>
      <trkpt lat="48.8504" lon="6.07783">
        <ele>183.9</ele>
        <time>2021-07-29T12:16:04Z</time>
      </trkpt>
      <trkpt lat="48.85036" lon="6.07783">
        <ele>183.9</ele>
        <time>2021-07-29T12:16:05Z</time>
      </trkpt>
      <trkpt lat="48.85032" lon="6.07785">
        <ele>184</ele>
        <time>2021-07-29T12:16:06Z</time>
      </trkpt>
      <trkpt lat="48.85028" lon="6.07786">
        <ele>184</ele>
        <time>2021-07-29T12:16:07Z</time>
      </trkpt>
      <trkpt lat="48.85024" lon="6.07787">
        <ele>184.1</ele>
        <time>2021-07-29T12:16:08Z</time>
      </trkpt>
      <trkpt lat="48.8502" lon="6.07788">
        <ele>184.1</ele>
        <time>2021-07-29T12:16:09Z</time>
      </trkpt>
      <trkpt lat="48.85016" lon="6.0779">
        <ele>184.2</ele>
        <time>2021-07-29T12:16:10Z</time>
      </trkpt>
      <trkpt lat="48.85011" lon="6.07792">
        <ele>184.4</ele>
        <time>2021-07-29T12:16:11Z</time>
      </trkpt>
      <trkpt lat="48.85006" lon="6.07795">
        <ele>184.6</ele>
        <time>2021-07-29T12:16:13Z</time>
      </trkpt>
      <trkpt lat="48.85002" lon="6.07797">
        <ele>184.7</ele>
        <time>2021-07-29T12:16:14Z</time>
      </trkpt>
      <trkpt lat="48.84997" lon="6.078">
        <ele>184.9</ele>
        <time>2021-07-29T12:16:15Z</time>
      </trkpt>
      <trkpt lat="48.84992" lon="6.07803">
        <ele>185.2</ele>
        <time>2021-07-29T12:16:17Z</time>
      </trkpt>
      <trkpt lat="48.84989" lon="6.07803">
        <ele>185.2</ele>
        <time>2021-07-29T12:16:18Z</time>
      </trkpt>
      <trkpt lat="48.84985" lon="6.07803">
        <ele>185.3</ele>
        <time>2021-07-29T12:16:19Z</time>
      </trkpt>
      <trkpt lat="48.84981" lon="6.07803">
        <ele>185.3</ele>
        <time>2021-07-29T12:16:21Z</time>
      </trkpt>
      <trkpt lat="48.84977" lon="6.07803">
        <ele>185.4</ele>
        <time>2021-07-29T12:16:22Z</time>
      </trkpt>
      <trkpt lat="48.84973" lon="6.07804">
        <ele>185.5</ele>
        <time>2021-07-29T12:16:23Z</time>
      </trkpt>
      <trkpt lat="48.84968" lon="6.07804">
        <ele>185.6</ele>
        <time>2021-07-29T12:16:25Z</time>
      </trkpt>
      <trkpt lat="48.84964" lon="6.07805">
        <ele>185.7</ele>
        <time>2021-07-29T12:16:26Z</time>
      </trkpt>
      <trkpt lat="48.84959" lon="6.07806">
        <ele>185.9</ele>
        <time>2021-07-29T12:16:28Z</time>
      </trkpt>
      <trkpt lat="48.84957" lon="6.07807">
        <ele>186</ele>
        <time>2021-07-29T12:16:29Z</time>
      </trkpt>
      <trkpt lat="48.84956" lon="6.07808">
        <ele>186.1</ele>
        <time>2021-07-29T12:16:30Z</time>
      </trkpt>
      <trkpt lat="48.84952" lon="6.07808">
        <ele>186.2</ele>
        <time>2021-07-29T12:16:31Z</time>
      </trkpt>
      <trkpt lat="48.84951" lon="6.07808">
        <ele>186.3</ele>
        <time>2021-07-29T12:16:32Z</time>
      </trkpt>
      <trkpt lat="48.84947" lon="6.07808">
        <ele>186.5</ele>
        <time>2021-07-29T12:16:33Z</time>
      </trkpt>
      <trkpt lat="48.84945" lon="6.07808">
        <ele>186.6</ele>
        <time>2021-07-29T12:16:34Z</time>
      </trkpt>
      <trkpt lat="48.84942" lon="6.07808">
        <ele>186.8</ele>
        <time>2021-07-29T12:16:35Z</time>
      </trkpt>
      <trkpt lat="48.84939" lon="6.07807">
        <ele>186.9</ele>
        <time>2021-07-29T12:16:36Z</time>
      </trkpt>
      <trkpt lat="48.84937" lon="6.07806">
        <ele>187.1</ele>
        <time>2021-07-29T12:16:38Z</time>
      </trkpt>
      <trkpt lat="48.84932" lon="6.07804">
        <ele>187.4</ele>
        <time>2021-07-29T12:16:39Z</time>
      </trkpt>
      <trkpt lat="48.84928" lon="6.07805">
        <ele>187.6</ele>
        <time>2021-07-29T12:16:40Z</time>
      </trkpt>
      <trkpt lat="48.84927" lon="6.07805">
        <ele>187.7</ele>
        <time>2021-07-29T12:16:41Z</time>
      </trkpt>
      <trkpt lat="48.84923" lon="6.07804">
        <ele>188</ele>
        <time>2021-07-29T12:16:43Z</time>
      </trkpt>
      <trkpt lat="48.8492" lon="6.07805">
        <ele>188.2</ele>
        <time>2021-07-29T12:16:44Z</time>
      </trkpt>
      <trkpt lat="48.84917" lon="6.07806">
        <ele>188.5</ele>
        <time>2021-07-29T12:16:45Z</time>
      </trkpt>
      <trkpt lat="48.84915" lon="6.07806">
        <ele>188.6</ele>
        <time>2021-07-29T12:16:46Z</time>
      </trkpt>
      <trkpt lat="48.84912" lon="6.07807">
        <ele>188.8</ele>
        <time>2021-07-29T12:16:47Z</time>
      </trkpt>
      <trkpt lat="48.8491" lon="6.07808">
        <ele>188.9</ele>
        <time>2021-07-29T12:16:48Z</time>
      </trkpt>
      <trkpt lat="48.84907" lon="6.07808">
        <ele>189.2</ele>
        <time>2021-07-29T12:16:50Z</time>
      </trkpt>
      <trkpt lat="48.84906" lon="6.07808">
        <ele>189.2</ele>
        <time>2021-07-29T12:16:51Z</time>
      </trkpt>
      <trkpt lat="48.84903" lon="6.07808">
        <ele>189.4</ele>
        <time>2021-07-29T12:16:53Z</time>
      </trkpt>
      <trkpt lat="48.84903" lon="6.07808">
        <ele>189.4</ele>
        <time>2021-07-29T12:16:54Z</time>
      </trkpt>
      <trkpt lat="48.849" lon="6.07813">
        <ele>189.4</ele>
        <time>2021-07-29T12:16:56Z</time>
      </trkpt>
      <trkpt lat="48.84899" lon="6.07815">
        <ele>189.4</ele>
        <time>2021-07-29T12:16:58Z</time>
      </trkpt>
      <trkpt lat="48.84899" lon="6.07817">
        <ele>189.4</ele>
        <time>2021-07-29T12:16:59Z</time>
      </trkpt>
      <trkpt lat="48.84899" lon="6.07819">
        <ele>189.3</ele>
        <time>2021-07-29T12:17:00Z</time>
      </trkpt>
      <trkpt lat="48.849" lon="6.07823">
        <ele>189.3</ele>
        <time>2021-07-29T12:17:01Z</time>
      </trkpt>
      <trkpt lat="48.849" lon="6.07828">
        <ele>189.3</ele>
        <time>2021-07-29T12:17:03Z</time>
      </trkpt>
      <trkpt lat="48.849" lon="6.07832">
        <ele>189.2</ele>
        <time>2021-07-29T12:17:04Z</time>
      </trkpt>
      <trkpt lat="48.84899" lon="6.07836">
        <ele>189.2</ele>
        <time>2021-07-29T12:17:05Z</time>
      </trkpt>
      <trkpt lat="48.84899" lon="6.07841">
        <ele>189</ele>
        <time>2021-07-29T12:17:07Z</time>
      </trkpt>
      <trkpt lat="48.84899" lon="6.07845">
        <ele>188.9</ele>
        <time>2021-07-29T12:17:08Z</time>
      </trkpt>
      <trkpt lat="48.84898" lon="6.07855">
        <ele>188.6</ele>
        <time>2021-07-29T12:17:10Z</time>
      </trkpt>
      <trkpt lat="48.84896" lon="6.07863">
        <ele>188.3</ele>
        <time>2021-07-29T12:17:11Z</time>
      </trkpt>
      <trkpt lat="48.84894" lon="6.07877">
        <ele>187.9</ele>
        <time>2021-07-29T12:17:13Z</time>
      </trkpt>
      <trkpt lat="48.84893" lon="6.07884">
        <ele>187.6</ele>
        <time>2021-07-29T12:17:14Z</time>
      </trkpt>
      <trkpt lat="48.84892" lon="6.07901">
        <ele>187.1</ele>
        <time>2021-07-29T12:17:16Z</time>
      </trkpt>
      <trkpt lat="48.84891" lon="6.07919">
        <ele>186.5</ele>
        <time>2021-07-29T12:17:18Z</time>
      </trkpt>
      <trkpt lat="48.8489" lon="6.07929">
        <ele>186.1</ele>
        <time>2021-07-29T12:17:19Z</time>
      </trkpt>
      <trkpt lat="48.84888" lon="6.07939">
        <ele>185.8</ele>
        <time>2021-07-29T12:17:20Z</time>
      </trkpt>
      <trkpt lat="48.84885" lon="6.07962">
        <ele>185</ele>
        <time>2021-07-29T12:17:22Z</time>
      </trkpt>
      <trkpt lat="48.84884" lon="6.07973">
        <ele>184.6</ele>
        <time>2021-07-29T12:17:23Z</time>
      </trkpt>
      <trkpt lat="48.84883" lon="6.07984">
        <ele>184.3</ele>
        <time>2021-07-29T12:17:24Z</time>
      </trkpt>
      <trkpt lat="48.84882" lon="6.07993">
        <ele>184.1</ele>
        <time>2021-07-29T12:17:25Z</time>
      </trkpt>
      <trkpt lat="48.84881" lon="6.08002">
        <ele>183.8</ele>
        <time>2021-07-29T12:17:26Z</time>
      </trkpt>
      <trkpt lat="48.84881" lon="6.08017">
        <ele>183.5</ele>
        <time>2021-07-29T12:17:28Z</time>
      </trkpt>
      <trkpt lat="48.8488" lon="6.08023">
        <ele>183.3</ele>
        <time>2021-07-29T12:17:29Z</time>
      </trkpt>
      <trkpt lat="48.84877" lon="6.08031">
        <ele>183.2</ele>
        <time>2021-07-29T12:17:31Z</time>
      </trkpt>
      <trkpt lat="48.84876" lon="6.08035">
        <ele>183.2</ele>
        <time>2021-07-29T12:17:32Z</time>
      </trkpt>
      <trkpt lat="48.84875" lon="6.08044">
        <ele>183.1</ele>
        <time>2021-07-29T12:17:34Z</time>
      </trkpt>
      <trkpt lat="48.84873" lon="6.08052">
        <ele>183</ele>
        <time>2021-07-29T12:17:35Z</time>
      </trkpt>
      <trkpt lat="48.8487" lon="6.08065">
        <ele>182.9</ele>
        <time>2021-07-29T12:17:37Z</time>
      </trkpt>
      <trkpt lat="48.8487" lon="6.08072">
        <ele>182.8</ele>
        <time>2021-07-29T12:17:38Z</time>
      </trkpt>
      <trkpt lat="48.84867" lon="6.08081">
        <ele>182.8</ele>
        <time>2021-07-29T12:17:40Z</time>
      </trkpt>
      <trkpt lat="48.84864" lon="6.08079">
        <ele>182.6</ele>
        <time>2021-07-29T12:17:41Z</time>
      </trkpt>
      <trkpt lat="48.84862" lon="6.08078">
        <ele>182.6</ele>
        <time>2021-07-29T12:17:42Z</time>
      </trkpt>
      <trkpt lat="48.84856" lon="6.08076">
        <ele>182.6</ele>
        <time>2021-07-29T12:17:43Z</time>
      </trkpt>
      <trkpt lat="48.84851" lon="6.08072">
        <ele>182.5</ele>
        <time>2021-07-29T12:17:45Z</time>
      </trkpt>
      <trkpt lat="48.84846" lon="6.08064">
        <ele>182.4</ele>
        <time>2021-07-29T12:17:46Z</time>
      </trkpt>
      <trkpt lat="48.84842" lon="6.08059">
        <ele>182.4</ele>
        <time>2021-07-29T12:17:47Z</time>
      </trkpt>
      <trkpt lat="48.8484" lon="6.08056">
        <ele>182.4</ele>
        <time>2021-07-29T12:17:48Z</time>
      </trkpt>
      <trkpt lat="48.84829" lon="6.08046">
        <ele>182.2</ele>
        <time>2021-07-29T12:17:50Z</time>
      </trkpt>
      <trkpt lat="48.84819" lon="6.08039">
        <ele>182.1</ele>
        <time>2021-07-29T12:17:52Z</time>
      </trkpt>
      <trkpt lat="48.84815" lon="6.08036">
        <ele>182.1</ele>
        <time>2021-07-29T12:17:53Z</time>
      </trkpt>
      <trkpt lat="48.84812" lon="6.08035">
        <ele>182.1</ele>
        <time>2021-07-29T12:17:54Z</time>
      </trkpt>
      <trkpt lat="48.84809" lon="6.08035">
        <ele>182.1</ele>
        <time>2021-07-29T12:17:55Z</time>
      </trkpt>
      <trkpt lat="48.84804" lon="6.08032">
        <ele>182.1</ele>
        <time>2021-07-29T12:17:56Z</time>
      </trkpt>
      <trkpt lat="48.84798" lon="6.08029">
        <ele>182.1</ele>
        <time>2021-07-29T12:17:57Z</time>
      </trkpt>
      <trkpt lat="48.84793" lon="6.08027">
        <ele>182.1</ele>
        <time>2021-07-29T12:17:59Z</time>
      </trkpt>
      <trkpt lat="48.84789" lon="6.08026">
        <ele>182.1</ele>
        <time>2021-07-29T12:18:00Z</time>
      </trkpt>
      <trkpt lat="48.84777" lon="6.08023">
        <ele>182.1</ele>
        <time>2021-07-29T12:18:02Z</time>
      </trkpt>
      <trkpt lat="48.84768" lon="6.0802">
        <ele>182.1</ele>
        <time>2021-07-29T12:18:04Z</time>
      </trkpt>
      <trkpt lat="48.84764" lon="6.08024">
        <ele>182</ele>
        <time>2021-07-29T12:18:05Z</time>
      </trkpt>
      <trkpt lat="48.8476" lon="6.08025">
        <ele>182</ele>
        <time>2021-07-29T12:18:06Z</time>
      </trkpt>
      <trkpt lat="48.84756" lon="6.08024">
        <ele>182</ele>
        <time>2021-07-29T12:18:07Z</time>
      </trkpt>
      <trkpt lat="48.84752" lon="6.08022">
        <ele>182</ele>
        <time>2021-07-29T12:18:08Z</time>
      </trkpt>
      <trkpt lat="48.84749" lon="6.0802">
        <ele>182</ele>
        <time>2021-07-29T12:18:09Z</time>
      </trkpt>
      <trkpt lat="48.84745" lon="6.08018">
        <ele>182</ele>
        <time>2021-07-29T12:18:10Z</time>
      </trkpt>
      <trkpt lat="48.84741" lon="6.08018">
        <ele>182</ele>
        <time>2021-07-29T12:18:11Z</time>
      </trkpt>
      <trkpt lat="48.84734" lon="6.08015">
        <ele>181.9</ele>
        <time>2021-07-29T12:18:13Z</time>
      </trkpt>
      <trkpt lat="48.8473" lon="6.08013">
        <ele>181.9</ele>
        <time>2021-07-29T12:18:14Z</time>
      </trkpt>
      <trkpt lat="48.84725" lon="6.0801">
        <ele>181.9</ele>
        <time>2021-07-29T12:18:15Z</time>
      </trkpt>
      <trkpt lat="48.8472" lon="6.08008">
        <ele>181.9</ele>
        <time>2021-07-29T12:18:16Z</time>
      </trkpt>
      <trkpt lat="48.84716" lon="6.08006">
        <ele>181.9</ele>
        <time>2021-07-29T12:18:17Z</time>
      </trkpt>
      <trkpt lat="48.84712" lon="6.08006">
        <ele>181.9</ele>
        <time>2021-07-29T12:18:18Z</time>
      </trkpt>
      <trkpt lat="48.84706" lon="6.08008">
        <ele>181.9</ele>
        <time>2021-07-29T12:18:20Z</time>
      </trkpt>
      <trkpt lat="48.847" lon="6.08009">
        <ele>181.8</ele>
        <time>2021-07-29T12:18:21Z</time>
      </trkpt>
      <trkpt lat="48.84693" lon="6.08011">
        <ele>181.8</ele>
        <time>2021-07-29T12:18:23Z</time>
      </trkpt>
      <trkpt lat="48.84686" lon="6.08012">
        <ele>181.7</ele>
        <time>2021-07-29T12:18:24Z</time>
      </trkpt>
      <trkpt lat="48.84683" lon="6.0801">
        <ele>181.7</ele>
        <time>2021-07-29T12:18:25Z</time>
      </trkpt>
      <trkpt lat="48.84676" lon="6.08013">
        <ele>181.7</ele>
        <time>2021-07-29T12:18:27Z</time>
      </trkpt>
      <trkpt lat="48.8467" lon="6.08018">
        <ele>181.6</ele>
        <time>2021-07-29T12:18:28Z</time>
      </trkpt>
      <trkpt lat="48.84666" lon="6.08021">
        <ele>181.5</ele>
        <time>2021-07-29T12:18:29Z</time>
      </trkpt>
      <trkpt lat="48.84661" lon="6.08023">
        <ele>181.4</ele>
        <time>2021-07-29T12:18:30Z</time>
      </trkpt>
      <trkpt lat="48.8465" lon="6.08028">
        <ele>181.2</ele>
        <time>2021-07-29T12:18:32Z</time>
      </trkpt>
      <trkpt lat="48.84637" lon="6.08034">
        <ele>181</ele>
        <time>2021-07-29T12:18:34Z</time>
      </trkpt>
      <trkpt lat="48.84632" lon="6.08037">
        <ele>180.9</ele>
        <time>2021-07-29T12:18:35Z</time>
      </trkpt>
      <trkpt lat="48.84621" lon="6.08043">
        <ele>181</ele>
        <time>2021-07-29T12:18:37Z</time>
      </trkpt>
      <trkpt lat="48.84616" lon="6.08045">
        <ele>181.1</ele>
        <time>2021-07-29T12:18:38Z</time>
      </trkpt>
      <trkpt lat="48.8461" lon="6.08047">
        <ele>181.2</ele>
        <time>2021-07-29T12:18:39Z</time>
      </trkpt>
      <trkpt lat="48.84603" lon="6.08049">
        <ele>181.3</ele>
        <time>2021-07-29T12:18:41Z</time>
      </trkpt>
      <trkpt lat="48.846" lon="6.08051">
        <ele>181.4</ele>
        <time>2021-07-29T12:18:42Z</time>
      </trkpt>
      <trkpt lat="48.84597" lon="6.08056">
        <ele>181.5</ele>
        <time>2021-07-29T12:18:43Z</time>
      </trkpt>
      <trkpt lat="48.84594" lon="6.08059">
        <ele>181.6</ele>
        <time>2021-07-29T12:18:44Z</time>
      </trkpt>
      <trkpt lat="48.8459" lon="6.08061">
        <ele>181.7</ele>
        <time>2021-07-29T12:18:45Z</time>
      </trkpt>
      <trkpt lat="48.84586" lon="6.08064">
        <ele>181.8</ele>
        <time>2021-07-29T12:18:47Z</time>
      </trkpt>
      <trkpt lat="48.84583" lon="6.08066">
        <ele>181.8</ele>
        <time>2021-07-29T12:18:48Z</time>
      </trkpt>
      <trkpt lat="48.84579" lon="6.08068">
        <ele>181.9</ele>
        <time>2021-07-29T12:18:49Z</time>
      </trkpt>
      <trkpt lat="48.84575" lon="6.0807">
        <ele>181.9</ele>
        <time>2021-07-29T12:18:50Z</time>
      </trkpt>
      <trkpt lat="48.8457" lon="6.08074">
        <ele>181.9</ele>
        <time>2021-07-29T12:18:51Z</time>
      </trkpt>
      <trkpt lat="48.84566" lon="6.08076">
        <ele>182</ele>
        <time>2021-07-29T12:18:52Z</time>
      </trkpt>
      <trkpt lat="48.84562" lon="6.08078">
        <ele>182</ele>
        <time>2021-07-29T12:18:54Z</time>
      </trkpt>
      <trkpt lat="48.84559" lon="6.0808">
        <ele>182</ele>
        <time>2021-07-29T12:18:55Z</time>
      </trkpt>
      <trkpt lat="48.84556" lon="6.08082">
        <ele>182</ele>
        <time>2021-07-29T12:18:56Z</time>
      </trkpt>
      <trkpt lat="48.84551" lon="6.08085">
        <ele>182</ele>
        <time>2021-07-29T12:18:57Z</time>
      </trkpt>
      <trkpt lat="48.84547" lon="6.08087">
        <ele>182</ele>
        <time>2021-07-29T12:18:58Z</time>
      </trkpt>
      <trkpt lat="48.84543" lon="6.0809">
        <ele>182</ele>
        <time>2021-07-29T12:18:59Z</time>
      </trkpt>
      <trkpt lat="48.8454" lon="6.08094">
        <ele>182</ele>
        <time>2021-07-29T12:19:00Z</time>
      </trkpt>
      <trkpt lat="48.84537" lon="6.08097">
        <ele>182</ele>
        <time>2021-07-29T12:19:02Z</time>
      </trkpt>
      <trkpt lat="48.84534" lon="6.08099">
        <ele>182.1</ele>
        <time>2021-07-29T12:19:03Z</time>
      </trkpt>
      <trkpt lat="48.84531" lon="6.081">
        <ele>182.1</ele>
        <time>2021-07-29T12:19:04Z</time>
      </trkpt>
      <trkpt lat="48.84528" lon="6.08103">
        <ele>182.1</ele>
        <time>2021-07-29T12:19:05Z</time>
      </trkpt>
      <trkpt lat="48.84526" lon="6.08106">
        <ele>182.1</ele>
        <time>2021-07-29T12:19:06Z</time>
      </trkpt>
      <trkpt lat="48.84519" lon="6.0811">
        <ele>182.1</ele>
        <time>2021-07-29T12:19:07Z</time>
      </trkpt>
      <trkpt lat="48.84515" lon="6.08114">
        <ele>182.1</ele>
        <time>2021-07-29T12:19:08Z</time>
      </trkpt>
      <trkpt lat="48.84511" lon="6.08117">
        <ele>182.1</ele>
        <time>2021-07-29T12:19:09Z</time>
      </trkpt>
      <trkpt lat="48.84508" lon="6.0812">
        <ele>182.1</ele>
        <time>2021-07-29T12:19:10Z</time>
      </trkpt>
      <trkpt lat="48.84503" lon="6.08123">
        <ele>182.1</ele>
        <time>2021-07-29T12:19:12Z</time>
      </trkpt>
      <trkpt lat="48.84499" lon="6.08127">
        <ele>182.1</ele>
        <time>2021-07-29T12:19:13Z</time>
      </trkpt>
      <trkpt lat="48.84495" lon="6.08131">
        <ele>182.1</ele>
        <time>2021-07-29T12:19:14Z</time>
      </trkpt>
      <trkpt lat="48.8449" lon="6.08137">
        <ele>182.1</ele>
        <time>2021-07-29T12:19:15Z</time>
      </trkpt>
      <trkpt lat="48.84486" lon="6.08141">
        <ele>182</ele>
        <time>2021-07-29T12:19:16Z</time>
      </trkpt>
      <trkpt lat="48.84482" lon="6.08146">
        <ele>182</ele>
        <time>2021-07-29T12:19:17Z</time>
      </trkpt>
      <trkpt lat="48.84478" lon="6.0815">
        <ele>182</ele>
        <time>2021-07-29T12:19:18Z</time>
      </trkpt>
      <trkpt lat="48.84475" lon="6.08155">
        <ele>182.1</ele>
        <time>2021-07-29T12:19:19Z</time>
      </trkpt>
      <trkpt lat="48.84471" lon="6.08159">
        <ele>182.1</ele>
        <time>2021-07-29T12:19:20Z</time>
      </trkpt>
      <trkpt lat="48.84468" lon="6.08164">
        <ele>182.1</ele>
        <time>2021-07-29T12:19:21Z</time>
      </trkpt>
      <trkpt lat="48.84465" lon="6.08167">
        <ele>182.1</ele>
        <time>2021-07-29T12:19:22Z</time>
      </trkpt>
      <trkpt lat="48.84462" lon="6.0817">
        <ele>182.1</ele>
        <time>2021-07-29T12:19:24Z</time>
      </trkpt>
      <trkpt lat="48.84458" lon="6.08175">
        <ele>182.1</ele>
        <time>2021-07-29T12:19:25Z</time>
      </trkpt>
      <trkpt lat="48.84455" lon="6.08179">
        <ele>182.1</ele>
        <time>2021-07-29T12:19:26Z</time>
      </trkpt>
      <trkpt lat="48.84452" lon="6.08184">
        <ele>182</ele>
        <time>2021-07-29T12:19:27Z</time>
      </trkpt>
      <trkpt lat="48.84448" lon="6.08189">
        <ele>182</ele>
        <time>2021-07-29T12:19:28Z</time>
      </trkpt>
      <trkpt lat="48.84446" lon="6.08194">
        <ele>182</ele>
        <time>2021-07-29T12:19:29Z</time>
      </trkpt>
      <trkpt lat="48.84443" lon="6.08199">
        <ele>182</ele>
        <time>2021-07-29T12:19:30Z</time>
      </trkpt>
      <trkpt lat="48.8444" lon="6.08204">
        <ele>182</ele>
        <time>2021-07-29T12:19:31Z</time>
      </trkpt>
      <trkpt lat="48.84437" lon="6.08209">
        <ele>181.9</ele>
        <time>2021-07-29T12:19:32Z</time>
      </trkpt>
      <trkpt lat="48.84436" lon="6.08214">
        <ele>181.9</ele>
        <time>2021-07-29T12:19:33Z</time>
      </trkpt>
      <trkpt lat="48.84435" lon="6.08219">
        <ele>181.9</ele>
        <time>2021-07-29T12:19:34Z</time>
      </trkpt>
      <trkpt lat="48.84433" lon="6.08225">
        <ele>181.8</ele>
        <time>2021-07-29T12:19:35Z</time>
      </trkpt>
      <trkpt lat="48.8443" lon="6.0823">
        <ele>181.8</ele>
        <time>2021-07-29T12:19:36Z</time>
      </trkpt>
      <trkpt lat="48.84428" lon="6.08235">
        <ele>181.8</ele>
        <time>2021-07-29T12:19:37Z</time>
      </trkpt>
      <trkpt lat="48.84425" lon="6.08239">
        <ele>181.7</ele>
        <time>2021-07-29T12:19:39Z</time>
      </trkpt>
      <trkpt lat="48.84418" lon="6.08252">
        <ele>181.5</ele>
        <time>2021-07-29T12:19:41Z</time>
      </trkpt>
      <trkpt lat="48.84412" lon="6.08268">
        <ele>181.4</ele>
        <time>2021-07-29T12:19:43Z</time>
      </trkpt>
      <trkpt lat="48.84408" lon="6.08274">
        <ele>181.4</ele>
        <time>2021-07-29T12:19:44Z</time>
      </trkpt>
      <trkpt lat="48.84404" lon="6.08283">
        <ele>181.4</ele>
        <time>2021-07-29T12:19:45Z</time>
      </trkpt>
      <trkpt lat="48.84401" lon="6.08288">
        <ele>181.5</ele>
        <time>2021-07-29T12:19:46Z</time>
      </trkpt>
      <trkpt lat="48.84398" lon="6.08293">
        <ele>181.6</ele>
        <time>2021-07-29T12:19:48Z</time>
      </trkpt>
      <trkpt lat="48.84394" lon="6.08298">
        <ele>181.7</ele>
        <time>2021-07-29T12:19:49Z</time>
      </trkpt>
      <trkpt lat="48.84391" lon="6.08302">
        <ele>181.8</ele>
        <time>2021-07-29T12:19:50Z</time>
      </trkpt>
      <trkpt lat="48.84388" lon="6.08306">
        <ele>181.8</ele>
        <time>2021-07-29T12:19:51Z</time>
      </trkpt>
      <trkpt lat="48.84385" lon="6.08311">
        <ele>181.9</ele>
        <time>2021-07-29T12:19:53Z</time>
      </trkpt>
      <trkpt lat="48.84382" lon="6.08315">
        <ele>181.9</ele>
        <time>2021-07-29T12:19:54Z</time>
      </trkpt>
      <trkpt lat="48.84378" lon="6.0832">
        <ele>182</ele>
        <time>2021-07-29T12:19:55Z</time>
      </trkpt>
      <trkpt lat="48.84374" lon="6.08325">
        <ele>182</ele>
        <time>2021-07-29T12:19:56Z</time>
      </trkpt>
      <trkpt lat="48.8437" lon="6.0833">
        <ele>182</ele>
        <time>2021-07-29T12:19:57Z</time>
      </trkpt>
      <trkpt lat="48.84366" lon="6.08335">
        <ele>182.1</ele>
        <time>2021-07-29T12:19:59Z</time>
      </trkpt>
      <trkpt lat="48.84363" lon="6.08338">
        <ele>182.1</ele>
        <time>2021-07-29T12:20:00Z</time>
      </trkpt>
      <trkpt lat="48.84358" lon="6.08344">
        <ele>182.1</ele>
        <time>2021-07-29T12:20:01Z</time>
      </trkpt>
      <trkpt lat="48.84354" lon="6.08351">
        <ele>182.1</ele>
        <time>2021-07-29T12:20:03Z</time>
      </trkpt>
      <trkpt lat="48.84352" lon="6.08355">
        <ele>182.1</ele>
        <time>2021-07-29T12:20:04Z</time>
      </trkpt>
      <trkpt lat="48.84349" lon="6.08358">
        <ele>182.1</ele>
        <time>2021-07-29T12:20:06Z</time>
      </trkpt>
      <trkpt lat="48.84345" lon="6.08364">
        <ele>182.2</ele>
        <time>2021-07-29T12:20:07Z</time>
      </trkpt>
      <trkpt lat="48.84343" lon="6.0837">
        <ele>182.2</ele>
        <time>2021-07-29T12:20:09Z</time>
      </trkpt>
      <trkpt lat="48.84341" lon="6.08375">
        <ele>182.2</ele>
        <time>2021-07-29T12:20:10Z</time>
      </trkpt>
      <trkpt lat="48.84338" lon="6.08384">
        <ele>182.2</ele>
        <time>2021-07-29T12:20:12Z</time>
      </trkpt>
      <trkpt lat="48.84337" lon="6.08388">
        <ele>182.2</ele>
        <time>2021-07-29T12:20:13Z</time>
      </trkpt>
      <trkpt lat="48.84333" lon="6.08394">
        <ele>182.3</ele>
        <time>2021-07-29T12:20:15Z</time>
      </trkpt>
      <trkpt lat="48.84331" lon="6.08399">
        <ele>182.3</ele>
        <time>2021-07-29T12:20:16Z</time>
      </trkpt>
      <trkpt lat="48.84327" lon="6.08404">
        <ele>182.3</ele>
        <time>2021-07-29T12:20:18Z</time>
      </trkpt>
      <trkpt lat="48.84325" lon="6.08411">
        <ele>182.4</ele>
        <time>2021-07-29T12:20:19Z</time>
      </trkpt>
      <trkpt lat="48.84324" lon="6.08416">
        <ele>182.4</ele>
        <time>2021-07-29T12:20:21Z</time>
      </trkpt>
      <trkpt lat="48.84321" lon="6.0842">
        <ele>182.4</ele>
        <time>2021-07-29T12:20:22Z</time>
      </trkpt>
      <trkpt lat="48.84319" lon="6.08424">
        <ele>182.4</ele>
        <time>2021-07-29T12:20:23Z</time>
      </trkpt>
      <trkpt lat="48.84317" lon="6.0843">
        <ele>182.4</ele>
        <time>2021-07-29T12:20:24Z</time>
      </trkpt>
      <trkpt lat="48.84314" lon="6.08436">
        <ele>182.4</ele>
        <time>2021-07-29T12:20:25Z</time>
      </trkpt>
      <trkpt lat="48.84311" lon="6.08439">
        <ele>182.5</ele>
        <time>2021-07-29T12:20:27Z</time>
      </trkpt>
      <trkpt lat="48.84309" lon="6.08443">
        <ele>182.5</ele>
        <time>2021-07-29T12:20:28Z</time>
      </trkpt>
      <trkpt lat="48.84309" lon="6.08444">
        <ele>182.5</ele>
        <time>2021-07-29T12:20:29Z</time>
      </trkpt>
      <trkpt lat="48.84308" lon="6.08449">
        <ele>182.5</ele>
        <time>2021-07-29T12:20:30Z</time>
      </trkpt>
      <trkpt lat="48.84308" lon="6.08452">
        <ele>182.5</ele>
        <time>2021-07-29T12:20:32Z</time>
      </trkpt>
      <trkpt lat="48.84308" lon="6.08452">
        <ele>182.5</ele>
        <time>2021-07-29T12:20:33Z</time>
      </trkpt>
      <trkpt lat="48.84309" lon="6.08452">
        <ele>182.5</ele>
        <time>2021-07-29T12:20:34Z</time>
      </trkpt>
      <trkpt lat="48.8431" lon="6.08452">
        <ele>182.5</ele>
        <time>2021-07-29T12:20:35Z</time>
      </trkpt>
      <trkpt lat="48.8431" lon="6.08452">
        <ele>182.5</ele>
        <time>2021-07-29T12:20:36Z</time>
      </trkpt>
      <trkpt lat="48.8431" lon="6.08451">
        <ele>182.5</ele>
        <time>2021-07-29T12:20:38Z</time>
      </trkpt>
      <trkpt lat="48.8431" lon="6.08451">
        <ele>182.5</ele>
        <time>2021-07-29T12:20:40Z</time>
      </trkpt>
      <trkpt lat="48.8431" lon="6.08451">
        <ele>182.5</ele>
        <time>2021-07-29T12:20:41Z</time>
      </trkpt>
      <trkpt lat="48.8431" lon="6.08451">
        <ele>182.5</ele>
        <time>2021-07-29T12:20:43Z</time>
      </trkpt>
      <trkpt lat="48.84306" lon="6.08454">
        <ele>182.5</ele>
        <time>2021-07-29T12:21:12Z</time>
      </trkpt>
      <trkpt lat="48.843" lon="6.08464">
        <ele>182.5</ele>
        <time>2021-07-29T12:21:14Z</time>
      </trkpt>
      <trkpt lat="48.84295" lon="6.08473">
        <ele>182.6</ele>
        <time>2021-07-29T12:21:15Z</time>
      </trkpt>
      <trkpt lat="48.8429" lon="6.08482">
        <ele>182.6</ele>
        <time>2021-07-29T12:21:17Z</time>
      </trkpt>
      <trkpt lat="48.84285" lon="6.08495">
        <ele>182.7</ele>
        <time>2021-07-29T12:21:19Z</time>
      </trkpt>
      <trkpt lat="48.84282" lon="6.08501">
        <ele>182.7</ele>
        <time>2021-07-29T12:21:20Z</time>
      </trkpt>
      <trkpt lat="48.84277" lon="6.08512">
        <ele>182.7</ele>
        <time>2021-07-29T12:21:22Z</time>
      </trkpt>
      <trkpt lat="48.84275" lon="6.08518">
        <ele>182.7</ele>
        <time>2021-07-29T12:21:23Z</time>
      </trkpt>
      <trkpt lat="48.84273" lon="6.08524">
        <ele>182.7</ele>
        <time>2021-07-29T12:21:24Z</time>
      </trkpt>
      <trkpt lat="48.84271" lon="6.08529">
        <ele>182.7</ele>
        <time>2021-07-29T12:21:25Z</time>
      </trkpt>
      <trkpt lat="48.84269" lon="6.08533">
        <ele>182.7</ele>
        <time>2021-07-29T12:21:26Z</time>
      </trkpt>
      <trkpt lat="48.84264" lon="6.08543">
        <ele>182.7</ele>
        <time>2021-07-29T12:21:28Z</time>
      </trkpt>
      <trkpt lat="48.84261" lon="6.08548">
        <ele>182.7</ele>
        <time>2021-07-29T12:21:29Z</time>
      </trkpt>
      <trkpt lat="48.8426" lon="6.08553">
        <ele>182.7</ele>
        <time>2021-07-29T12:21:30Z</time>
      </trkpt>
      <trkpt lat="48.84257" lon="6.08561">
        <ele>182.7</ele>
        <time>2021-07-29T12:21:31Z</time>
      </trkpt>
      <trkpt lat="48.84255" lon="6.08567">
        <ele>182.7</ele>
        <time>2021-07-29T12:21:33Z</time>
      </trkpt>
      <trkpt lat="48.84253" lon="6.08573">
        <ele>182.7</ele>
        <time>2021-07-29T12:21:34Z</time>
      </trkpt>
      <trkpt lat="48.84252" lon="6.08578">
        <ele>182.7</ele>
        <time>2021-07-29T12:21:35Z</time>
      </trkpt>
      <trkpt lat="48.84251" lon="6.08586">
        <ele>182.7</ele>
        <time>2021-07-29T12:21:36Z</time>
      </trkpt>
      <trkpt lat="48.84248" lon="6.08591">
        <ele>182.6</ele>
        <time>2021-07-29T12:21:38Z</time>
      </trkpt>
      <trkpt lat="48.84245" lon="6.08598">
        <ele>182.6</ele>
        <time>2021-07-29T12:21:40Z</time>
      </trkpt>
      <trkpt lat="48.8424" lon="6.08605">
        <ele>182.6</ele>
        <time>2021-07-29T12:21:41Z</time>
      </trkpt>
      <trkpt lat="48.84237" lon="6.08615">
        <ele>182.6</ele>
        <time>2021-07-29T12:21:43Z</time>
      </trkpt>
      <trkpt lat="48.84236" lon="6.0862">
        <ele>182.6</ele>
        <time>2021-07-29T12:21:45Z</time>
      </trkpt>
      <trkpt lat="48.84236" lon="6.08624">
        <ele>182.6</ele>
        <time>2021-07-29T12:21:46Z</time>
      </trkpt>
      <trkpt lat="48.84236" lon="6.08628">
        <ele>182.6</ele>
        <time>2021-07-29T12:21:47Z</time>
      </trkpt>
      <trkpt lat="48.84234" lon="6.08638">
        <ele>182.6</ele>
        <time>2021-07-29T12:21:49Z</time>
      </trkpt>
      <trkpt lat="48.84232" lon="6.08648">
        <ele>182.7</ele>
        <time>2021-07-29T12:21:51Z</time>
      </trkpt>
      <trkpt lat="48.8423" lon="6.08657">
        <ele>182.7</ele>
        <time>2021-07-29T12:21:52Z</time>
      </trkpt>
      <trkpt lat="48.84227" lon="6.08664">
        <ele>182.7</ele>
        <time>2021-07-29T12:21:53Z</time>
      </trkpt>
      <trkpt lat="48.84225" lon="6.08672">
        <ele>182.8</ele>
        <time>2021-07-29T12:21:55Z</time>
      </trkpt>
      <trkpt lat="48.84222" lon="6.08679">
        <ele>182.8</ele>
        <time>2021-07-29T12:21:56Z</time>
      </trkpt>
      <trkpt lat="48.84218" lon="6.08689">
        <ele>182.9</ele>
        <time>2021-07-29T12:21:58Z</time>
      </trkpt>
      <trkpt lat="48.84215" lon="6.08694">
        <ele>182.9</ele>
        <time>2021-07-29T12:21:59Z</time>
      </trkpt>
      <trkpt lat="48.84212" lon="6.08702">
        <ele>182.9</ele>
        <time>2021-07-29T12:22:00Z</time>
      </trkpt>
      <trkpt lat="48.8421" lon="6.08708">
        <ele>183</ele>
        <time>2021-07-29T12:22:01Z</time>
      </trkpt>
      <trkpt lat="48.84207" lon="6.08714">
        <ele>183</ele>
        <time>2021-07-29T12:22:02Z</time>
      </trkpt>
      <trkpt lat="48.84205" lon="6.0872">
        <ele>183.1</ele>
        <time>2021-07-29T12:22:04Z</time>
      </trkpt>
      <trkpt lat="48.84203" lon="6.08725">
        <ele>183.1</ele>
        <time>2021-07-29T12:22:05Z</time>
      </trkpt>
      <trkpt lat="48.84201" lon="6.08732">
        <ele>183.1</ele>
        <time>2021-07-29T12:22:06Z</time>
      </trkpt>
      <trkpt lat="48.84199" lon="6.08739">
        <ele>183.2</ele>
        <time>2021-07-29T12:22:07Z</time>
      </trkpt>
      <trkpt lat="48.84196" lon="6.08747">
        <ele>183.2</ele>
        <time>2021-07-29T12:22:09Z</time>
      </trkpt>
      <trkpt lat="48.84193" lon="6.08753">
        <ele>183.2</ele>
        <time>2021-07-29T12:22:10Z</time>
      </trkpt>
      <trkpt lat="48.84189" lon="6.08759">
        <ele>183.2</ele>
        <time>2021-07-29T12:22:12Z</time>
      </trkpt>
      <trkpt lat="48.84185" lon="6.08763">
        <ele>183.2</ele>
        <time>2021-07-29T12:22:13Z</time>
      </trkpt>
      <trkpt lat="48.8418" lon="6.08769">
        <ele>183.1</ele>
        <time>2021-07-29T12:22:15Z</time>
      </trkpt>
      <trkpt lat="48.84174" lon="6.08775">
        <ele>183.1</ele>
        <time>2021-07-29T12:22:16Z</time>
      </trkpt>
      <trkpt lat="48.84171" lon="6.08779">
        <ele>183.1</ele>
        <time>2021-07-29T12:22:17Z</time>
      </trkpt>
      <trkpt lat="48.84167" lon="6.08784">
        <ele>183</ele>
        <time>2021-07-29T12:22:19Z</time>
      </trkpt>
      <trkpt lat="48.84161" lon="6.0879">
        <ele>183</ele>
        <time>2021-07-29T12:22:20Z</time>
      </trkpt>
      <trkpt lat="48.84157" lon="6.08794">
        <ele>183</ele>
        <time>2021-07-29T12:22:22Z</time>
      </trkpt>
      <trkpt lat="48.84155" lon="6.08799">
        <ele>183</ele>
        <time>2021-07-29T12:22:23Z</time>
      </trkpt>
      <trkpt lat="48.84153" lon="6.08803">
        <ele>182.9</ele>
        <time>2021-07-29T12:22:24Z</time>
      </trkpt>
      <trkpt lat="48.8415" lon="6.08807">
        <ele>182.9</ele>
        <time>2021-07-29T12:22:25Z</time>
      </trkpt>
      <trkpt lat="48.84147" lon="6.08811">
        <ele>182.9</ele>
        <time>2021-07-29T12:22:26Z</time>
      </trkpt>
      <trkpt lat="48.84142" lon="6.08817">
        <ele>182.9</ele>
        <time>2021-07-29T12:22:28Z</time>
      </trkpt>
      <trkpt lat="48.8414" lon="6.0882">
        <ele>182.9</ele>
        <time>2021-07-29T12:22:29Z</time>
      </trkpt>
      <trkpt lat="48.84137" lon="6.08825">
        <ele>182.8</ele>
        <time>2021-07-29T12:22:31Z</time>
      </trkpt>
      <trkpt lat="48.84132" lon="6.08833">
        <ele>182.8</ele>
        <time>2021-07-29T12:22:32Z</time>
      </trkpt>
      <trkpt lat="48.84129" lon="6.08839">
        <ele>182.8</ele>
        <time>2021-07-29T12:22:34Z</time>
      </trkpt>
      <trkpt lat="48.84126" lon="6.08844">
        <ele>182.8</ele>
        <time>2021-07-29T12:22:35Z</time>
      </trkpt>
      <trkpt lat="48.84123" lon="6.08849">
        <ele>182.8</ele>
        <time>2021-07-29T12:22:36Z</time>
      </trkpt>
      <trkpt lat="48.8412" lon="6.08854">
        <ele>182.9</ele>
        <time>2021-07-29T12:22:37Z</time>
      </trkpt>
      <trkpt lat="48.84115" lon="6.08862">
        <ele>182.9</ele>
        <time>2021-07-29T12:22:38Z</time>
      </trkpt>
      <trkpt lat="48.84112" lon="6.08868">
        <ele>182.9</ele>
        <time>2021-07-29T12:22:40Z</time>
      </trkpt>
      <trkpt lat="48.84109" lon="6.08878">
        <ele>182.9</ele>
        <time>2021-07-29T12:22:41Z</time>
      </trkpt>
      <trkpt lat="48.84108" lon="6.08884">
        <ele>182.9</ele>
        <time>2021-07-29T12:22:42Z</time>
      </trkpt>
      <trkpt lat="48.84105" lon="6.08889">
        <ele>182.9</ele>
        <time>2021-07-29T12:22:44Z</time>
      </trkpt>
      <trkpt lat="48.84103" lon="6.08895">
        <ele>182.9</ele>
        <time>2021-07-29T12:22:45Z</time>
      </trkpt>
      <trkpt lat="48.84099" lon="6.08905">
        <ele>182.8</ele>
        <time>2021-07-29T12:22:47Z</time>
      </trkpt>
      <trkpt lat="48.84096" lon="6.08915">
        <ele>182.8</ele>
        <time>2021-07-29T12:22:49Z</time>
      </trkpt>
      <trkpt lat="48.84094" lon="6.0892">
        <ele>182.8</ele>
        <time>2021-07-29T12:22:50Z</time>
      </trkpt>
      <trkpt lat="48.84094" lon="6.08926">
        <ele>182.8</ele>
        <time>2021-07-29T12:22:51Z</time>
      </trkpt>
      <trkpt lat="48.84093" lon="6.0893">
        <ele>182.8</ele>
        <time>2021-07-29T12:22:52Z</time>
      </trkpt>
      <trkpt lat="48.84092" lon="6.08935">
        <ele>182.7</ele>
        <time>2021-07-29T12:22:53Z</time>
      </trkpt>
      <trkpt lat="48.84091" lon="6.08939">
        <ele>182.7</ele>
        <time>2021-07-29T12:22:55Z</time>
      </trkpt>
      <trkpt lat="48.84089" lon="6.08943">
        <ele>182.7</ele>
        <time>2021-07-29T12:22:56Z</time>
      </trkpt>
      <trkpt lat="48.84085" lon="6.08949">
        <ele>182.7</ele>
        <time>2021-07-29T12:22:57Z</time>
      </trkpt>
      <trkpt lat="48.84082" lon="6.08953">
        <ele>182.7</ele>
        <time>2021-07-29T12:22:58Z</time>
      </trkpt>
      <trkpt lat="48.84078" lon="6.08957">
        <ele>182.7</ele>
        <time>2021-07-29T12:22:59Z</time>
      </trkpt>
      <trkpt lat="48.84074" lon="6.08961">
        <ele>182.7</ele>
        <time>2021-07-29T12:23:00Z</time>
      </trkpt>
      <trkpt lat="48.84071" lon="6.08965">
        <ele>182.7</ele>
        <time>2021-07-29T12:23:01Z</time>
      </trkpt>
      <trkpt lat="48.84066" lon="6.0897">
        <ele>182.7</ele>
        <time>2021-07-29T12:23:02Z</time>
      </trkpt>
      <trkpt lat="48.84062" lon="6.08975">
        <ele>182.8</ele>
        <time>2021-07-29T12:23:04Z</time>
      </trkpt>
      <trkpt lat="48.84059" lon="6.08979">
        <ele>182.8</ele>
        <time>2021-07-29T12:23:05Z</time>
      </trkpt>
      <trkpt lat="48.84056" lon="6.08984">
        <ele>182.8</ele>
        <time>2021-07-29T12:23:06Z</time>
      </trkpt>
      <trkpt lat="48.8405" lon="6.08991">
        <ele>182.8</ele>
        <time>2021-07-29T12:23:07Z</time>
      </trkpt>
      <trkpt lat="48.84048" lon="6.08995">
        <ele>182.8</ele>
        <time>2021-07-29T12:23:09Z</time>
      </trkpt>
      <trkpt lat="48.84044" lon="6.09001">
        <ele>182.8</ele>
        <time>2021-07-29T12:23:10Z</time>
      </trkpt>
      <trkpt lat="48.84042" lon="6.09005">
        <ele>182.8</ele>
        <time>2021-07-29T12:23:11Z</time>
      </trkpt>
      <trkpt lat="48.84039" lon="6.09009">
        <ele>182.8</ele>
        <time>2021-07-29T12:23:12Z</time>
      </trkpt>
      <trkpt lat="48.84036" lon="6.09013">
        <ele>182.8</ele>
        <time>2021-07-29T12:23:13Z</time>
      </trkpt>
      <trkpt lat="48.84032" lon="6.09016">
        <ele>182.7</ele>
        <time>2021-07-29T12:23:14Z</time>
      </trkpt>
      <trkpt lat="48.84027" lon="6.0902">
        <ele>182.7</ele>
        <time>2021-07-29T12:23:15Z</time>
      </trkpt>
      <trkpt lat="48.84024" lon="6.09023">
        <ele>182.7</ele>
        <time>2021-07-29T12:23:17Z</time>
      </trkpt>
      <trkpt lat="48.8402" lon="6.09026">
        <ele>182.7</ele>
        <time>2021-07-29T12:23:18Z</time>
      </trkpt>
      <trkpt lat="48.84016" lon="6.09028">
        <ele>182.7</ele>
        <time>2021-07-29T12:23:19Z</time>
      </trkpt>
      <trkpt lat="48.84013" lon="6.09031">
        <ele>182.7</ele>
        <time>2021-07-29T12:23:20Z</time>
      </trkpt>
      <trkpt lat="48.84006" lon="6.09035">
        <ele>182.7</ele>
        <time>2021-07-29T12:23:21Z</time>
      </trkpt>
      <trkpt lat="48.84001" lon="6.09038">
        <ele>182.7</ele>
        <time>2021-07-29T12:23:23Z</time>
      </trkpt>
      <trkpt lat="48.83998" lon="6.0904">
        <ele>182.7</ele>
        <time>2021-07-29T12:23:24Z</time>
      </trkpt>
      <trkpt lat="48.83993" lon="6.09043">
        <ele>182.7</ele>
        <time>2021-07-29T12:23:25Z</time>
      </trkpt>
      <trkpt lat="48.83989" lon="6.09044">
        <ele>182.6</ele>
        <time>2021-07-29T12:23:26Z</time>
      </trkpt>
      <trkpt lat="48.83985" lon="6.09046">
        <ele>182.6</ele>
        <time>2021-07-29T12:23:27Z</time>
      </trkpt>
      <trkpt lat="48.8398" lon="6.09048">
        <ele>182.6</ele>
        <time>2021-07-29T12:23:29Z</time>
      </trkpt>
      <trkpt lat="48.83977" lon="6.09049">
        <ele>182.6</ele>
        <time>2021-07-29T12:23:30Z</time>
      </trkpt>
      <trkpt lat="48.83971" lon="6.0905">
        <ele>182.6</ele>
        <time>2021-07-29T12:23:32Z</time>
      </trkpt>
      <trkpt lat="48.83968" lon="6.0905">
        <ele>182.6</ele>
        <time>2021-07-29T12:23:33Z</time>
      </trkpt>
      <trkpt lat="48.83964" lon="6.0905">
        <ele>182.6</ele>
        <time>2021-07-29T12:23:34Z</time>
      </trkpt>
      <trkpt lat="48.83962" lon="6.0905">
        <ele>182.6</ele>
        <time>2021-07-29T12:23:35Z</time>
      </trkpt>
      <trkpt lat="48.83959" lon="6.09049">
        <ele>182.6</ele>
        <time>2021-07-29T12:23:36Z</time>
      </trkpt>
      <trkpt lat="48.83951" lon="6.09048">
        <ele>182.6</ele>
        <time>2021-07-29T12:23:38Z</time>
      </trkpt>
      <trkpt lat="48.83944" lon="6.09047">
        <ele>182.6</ele>
        <time>2021-07-29T12:23:40Z</time>
      </trkpt>
      <trkpt lat="48.8394" lon="6.09046">
        <ele>182.5</ele>
        <time>2021-07-29T12:23:41Z</time>
      </trkpt>
      <trkpt lat="48.83932" lon="6.09047">
        <ele>182.5</ele>
        <time>2021-07-29T12:23:43Z</time>
      </trkpt>
      <trkpt lat="48.83929" lon="6.09047">
        <ele>182.5</ele>
        <time>2021-07-29T12:23:44Z</time>
      </trkpt>
      <trkpt lat="48.83924" lon="6.09048">
        <ele>182.5</ele>
        <time>2021-07-29T12:23:45Z</time>
      </trkpt>
      <trkpt lat="48.83918" lon="6.09049">
        <ele>182.5</ele>
        <time>2021-07-29T12:23:46Z</time>
      </trkpt>
      <trkpt lat="48.83913" lon="6.0905">
        <ele>182.5</ele>
        <time>2021-07-29T12:23:47Z</time>
      </trkpt>
      <trkpt lat="48.83908" lon="6.09051">
        <ele>182.5</ele>
        <time>2021-07-29T12:23:48Z</time>
      </trkpt>
      <trkpt lat="48.83903" lon="6.09052">
        <ele>182.4</ele>
        <time>2021-07-29T12:23:49Z</time>
      </trkpt>
      <trkpt lat="48.83897" lon="6.09053">
        <ele>182.4</ele>
        <time>2021-07-29T12:23:51Z</time>
      </trkpt>
      <trkpt lat="48.83888" lon="6.09054">
        <ele>182.3</ele>
        <time>2021-07-29T12:23:53Z</time>
      </trkpt>
      <trkpt lat="48.83882" lon="6.09055">
        <ele>182.3</ele>
        <time>2021-07-29T12:23:54Z</time>
      </trkpt>
      <trkpt lat="48.83877" lon="6.09056">
        <ele>182.3</ele>
        <time>2021-07-29T12:23:55Z</time>
      </trkpt>
      <trkpt lat="48.83873" lon="6.09056">
        <ele>182.3</ele>
        <time>2021-07-29T12:23:56Z</time>
      </trkpt>
      <trkpt lat="48.83868" lon="6.09057">
        <ele>182.3</ele>
        <time>2021-07-29T12:23:57Z</time>
      </trkpt>
      <trkpt lat="48.83864" lon="6.09058">
        <ele>182.3</ele>
        <time>2021-07-29T12:23:58Z</time>
      </trkpt>
      <trkpt lat="48.8386" lon="6.09059">
        <ele>182.3</ele>
        <time>2021-07-29T12:23:59Z</time>
      </trkpt>
      <trkpt lat="48.83855" lon="6.0906">
        <ele>182.2</ele>
        <time>2021-07-29T12:24:00Z</time>
      </trkpt>
      <trkpt lat="48.8385" lon="6.09061">
        <ele>182.2</ele>
        <time>2021-07-29T12:24:01Z</time>
      </trkpt>
      <trkpt lat="48.83844" lon="6.09062">
        <ele>182.2</ele>
        <time>2021-07-29T12:24:02Z</time>
      </trkpt>
      <trkpt lat="48.83839" lon="6.09062">
        <ele>182.2</ele>
        <time>2021-07-29T12:24:03Z</time>
      </trkpt>
      <trkpt lat="48.83835" lon="6.09063">
        <ele>182.2</ele>
        <time>2021-07-29T12:24:04Z</time>
      </trkpt>
      <trkpt lat="48.83831" lon="6.09065">
        <ele>182.1</ele>
        <time>2021-07-29T12:24:06Z</time>
      </trkpt>
      <trkpt lat="48.83827" lon="6.09065">
        <ele>182.1</ele>
        <time>2021-07-29T12:24:07Z</time>
      </trkpt>
      <trkpt lat="48.83823" lon="6.09066">
        <ele>182.1</ele>
        <time>2021-07-29T12:24:08Z</time>
      </trkpt>
      <trkpt lat="48.83816" lon="6.09067">
        <ele>182.1</ele>
        <time>2021-07-29T12:24:09Z</time>
      </trkpt>
      <trkpt lat="48.83812" lon="6.09068">
        <ele>182.1</ele>
        <time>2021-07-29T12:24:11Z</time>
      </trkpt>
      <trkpt lat="48.83805" lon="6.09069">
        <ele>182.1</ele>
        <time>2021-07-29T12:24:12Z</time>
      </trkpt>
      <trkpt lat="48.838" lon="6.09069">
        <ele>182.1</ele>
        <time>2021-07-29T12:24:13Z</time>
      </trkpt>
      <trkpt lat="48.83796" lon="6.0907">
        <ele>182.1</ele>
        <time>2021-07-29T12:24:14Z</time>
      </trkpt>
      <trkpt lat="48.83791" lon="6.09071">
        <ele>182</ele>
        <time>2021-07-29T12:24:15Z</time>
      </trkpt>
      <trkpt lat="48.83787" lon="6.09071">
        <ele>182</ele>
        <time>2021-07-29T12:24:16Z</time>
      </trkpt>
      <trkpt lat="48.83782" lon="6.09071">
        <ele>182</ele>
        <time>2021-07-29T12:24:17Z</time>
      </trkpt>
      <trkpt lat="48.83778" lon="6.09071">
        <ele>182</ele>
        <time>2021-07-29T12:24:18Z</time>
      </trkpt>
      <trkpt lat="48.83773" lon="6.09071">
        <ele>182</ele>
        <time>2021-07-29T12:24:19Z</time>
      </trkpt>
      <trkpt lat="48.83769" lon="6.09072">
        <ele>182</ele>
        <time>2021-07-29T12:24:20Z</time>
      </trkpt>
      <trkpt lat="48.83763" lon="6.09072">
        <ele>182</ele>
        <time>2021-07-29T12:24:22Z</time>
      </trkpt>
      <trkpt lat="48.83756" lon="6.09072">
        <ele>182</ele>
        <time>2021-07-29T12:24:23Z</time>
      </trkpt>
      <trkpt lat="48.83751" lon="6.09073">
        <ele>182</ele>
        <time>2021-07-29T12:24:24Z</time>
      </trkpt>
      <trkpt lat="48.83745" lon="6.09074">
        <ele>182</ele>
        <time>2021-07-29T12:24:26Z</time>
      </trkpt>
      <trkpt lat="48.83739" lon="6.09074">
        <ele>182</ele>
        <time>2021-07-29T12:24:27Z</time>
      </trkpt>
      <trkpt lat="48.83735" lon="6.09075">
        <ele>182</ele>
        <time>2021-07-29T12:24:28Z</time>
      </trkpt>
      <trkpt lat="48.8373" lon="6.09077">
        <ele>182</ele>
        <time>2021-07-29T12:24:29Z</time>
      </trkpt>
      <trkpt lat="48.83725" lon="6.09077">
        <ele>181.9</ele>
        <time>2021-07-29T12:24:30Z</time>
      </trkpt>
      <trkpt lat="48.8372" lon="6.09077">
        <ele>181.9</ele>
        <time>2021-07-29T12:24:32Z</time>
      </trkpt>
      <trkpt lat="48.83713" lon="6.09075">
        <ele>181.9</ele>
        <time>2021-07-29T12:24:33Z</time>
      </trkpt>
      <trkpt lat="48.83708" lon="6.09073">
        <ele>181.8</ele>
        <time>2021-07-29T12:24:35Z</time>
      </trkpt>
      <trkpt lat="48.83704" lon="6.09073">
        <ele>181.8</ele>
        <time>2021-07-29T12:24:36Z</time>
      </trkpt>
      <trkpt lat="48.83697" lon="6.09075">
        <ele>181.7</ele>
        <time>2021-07-29T12:24:37Z</time>
      </trkpt>
      <trkpt lat="48.83693" lon="6.09075">
        <ele>181.7</ele>
        <time>2021-07-29T12:24:38Z</time>
      </trkpt>
      <trkpt lat="48.83687" lon="6.09076">
        <ele>181.6</ele>
        <time>2021-07-29T12:24:40Z</time>
      </trkpt>
      <trkpt lat="48.83683" lon="6.09076">
        <ele>181.6</ele>
        <time>2021-07-29T12:24:41Z</time>
      </trkpt>
      <trkpt lat="48.83678" lon="6.09075">
        <ele>181.6</ele>
        <time>2021-07-29T12:24:42Z</time>
      </trkpt>
      <trkpt lat="48.83668" lon="6.09077">
        <ele>181.5</ele>
        <time>2021-07-29T12:24:44Z</time>
      </trkpt>
      <trkpt lat="48.83664" lon="6.09079">
        <ele>181.5</ele>
        <time>2021-07-29T12:24:45Z</time>
      </trkpt>
      <trkpt lat="48.83658" lon="6.0908">
        <ele>181.5</ele>
        <time>2021-07-29T12:24:46Z</time>
      </trkpt>
      <trkpt lat="48.83654" lon="6.09081">
        <ele>181.5</ele>
        <time>2021-07-29T12:24:47Z</time>
      </trkpt>
      <trkpt lat="48.83649" lon="6.0908">
        <ele>181.5</ele>
        <time>2021-07-29T12:24:48Z</time>
      </trkpt>
      <trkpt lat="48.83645" lon="6.0908">
        <ele>181.5</ele>
        <time>2021-07-29T12:24:50Z</time>
      </trkpt>
      <trkpt lat="48.83641" lon="6.09082">
        <ele>181.5</ele>
        <time>2021-07-29T12:24:51Z</time>
      </trkpt>
      <trkpt lat="48.83636" lon="6.09085">
        <ele>181.5</ele>
        <time>2021-07-29T12:24:52Z</time>
      </trkpt>
      <trkpt lat="48.83631" lon="6.09089">
        <ele>181.5</ele>
        <time>2021-07-29T12:24:54Z</time>
      </trkpt>
      <trkpt lat="48.83628" lon="6.09091">
        <ele>181.5</ele>
        <time>2021-07-29T12:24:55Z</time>
      </trkpt>
      <trkpt lat="48.83624" lon="6.09093">
        <ele>181.4</ele>
        <time>2021-07-29T12:24:56Z</time>
      </trkpt>
      <trkpt lat="48.83617" lon="6.09097">
        <ele>181.4</ele>
        <time>2021-07-29T12:24:58Z</time>
      </trkpt>
      <trkpt lat="48.83613" lon="6.091">
        <ele>181.3</ele>
        <time>2021-07-29T12:24:59Z</time>
      </trkpt>
      <trkpt lat="48.83606" lon="6.09104">
        <ele>181.2</ele>
        <time>2021-07-29T12:25:00Z</time>
      </trkpt>
      <trkpt lat="48.836" lon="6.09106">
        <ele>181.2</ele>
        <time>2021-07-29T12:25:02Z</time>
      </trkpt>
      <trkpt lat="48.83592" lon="6.09109">
        <ele>181.1</ele>
        <time>2021-07-29T12:25:04Z</time>
      </trkpt>
      <trkpt lat="48.83589" lon="6.0911">
        <ele>181.1</ele>
        <time>2021-07-29T12:25:05Z</time>
      </trkpt>
      <trkpt lat="48.83585" lon="6.09112">
        <ele>181</ele>
        <time>2021-07-29T12:25:06Z</time>
      </trkpt>
      <trkpt lat="48.83579" lon="6.09116">
        <ele>181</ele>
        <time>2021-07-29T12:25:08Z</time>
      </trkpt>
      <trkpt lat="48.83575" lon="6.09119">
        <ele>181</ele>
        <time>2021-07-29T12:25:09Z</time>
      </trkpt>
      <trkpt lat="48.83566" lon="6.09123">
        <ele>181</ele>
        <time>2021-07-29T12:25:11Z</time>
      </trkpt>
      <trkpt lat="48.83561" lon="6.09126">
        <ele>181</ele>
        <time>2021-07-29T12:25:12Z</time>
      </trkpt>
      <trkpt lat="48.83552" lon="6.09129">
        <ele>181</ele>
        <time>2021-07-29T12:25:14Z</time>
      </trkpt>
      <trkpt lat="48.83542" lon="6.09133">
        <ele>181</ele>
        <time>2021-07-29T12:25:16Z</time>
      </trkpt>
      <trkpt lat="48.83537" lon="6.09136">
        <ele>181</ele>
        <time>2021-07-29T12:25:17Z</time>
      </trkpt>
      <trkpt lat="48.83531" lon="6.09138">
        <ele>181</ele>
        <time>2021-07-29T12:25:18Z</time>
      </trkpt>
      <trkpt lat="48.83524" lon="6.0914">
        <ele>181.1</ele>
        <time>2021-07-29T12:25:20Z</time>
      </trkpt>
      <trkpt lat="48.83517" lon="6.09142">
        <ele>181.2</ele>
        <time>2021-07-29T12:25:22Z</time>
      </trkpt>
      <trkpt lat="48.83513" lon="6.09142">
        <ele>181.3</ele>
        <time>2021-07-29T12:25:23Z</time>
      </trkpt>
      <trkpt lat="48.8351" lon="6.09142">
        <ele>181.4</ele>
        <time>2021-07-29T12:25:24Z</time>
      </trkpt>
      <trkpt lat="48.83505" lon="6.09139">
        <ele>181.5</ele>
        <time>2021-07-29T12:25:25Z</time>
      </trkpt>
      <trkpt lat="48.83502" lon="6.09134">
        <ele>181.5</ele>
        <time>2021-07-29T12:25:26Z</time>
      </trkpt>
      <trkpt lat="48.83499" lon="6.09127">
        <ele>181.6</ele>
        <time>2021-07-29T12:25:27Z</time>
      </trkpt>
      <trkpt lat="48.83496" lon="6.09119">
        <ele>181.6</ele>
        <time>2021-07-29T12:25:28Z</time>
      </trkpt>
      <trkpt lat="48.83493" lon="6.09111">
        <ele>181.7</ele>
        <time>2021-07-29T12:25:29Z</time>
      </trkpt>
      <trkpt lat="48.8349" lon="6.09104">
        <ele>181.7</ele>
        <time>2021-07-29T12:25:31Z</time>
      </trkpt>
      <trkpt lat="48.83488" lon="6.09097">
        <ele>181.7</ele>
        <time>2021-07-29T12:25:32Z</time>
      </trkpt>
      <trkpt lat="48.83486" lon="6.09091">
        <ele>181.7</ele>
        <time>2021-07-29T12:25:33Z</time>
      </trkpt>
      <trkpt lat="48.83484" lon="6.09083">
        <ele>181.8</ele>
        <time>2021-07-29T12:25:34Z</time>
      </trkpt>
      <trkpt lat="48.83482" lon="6.09077">
        <ele>181.8</ele>
        <time>2021-07-29T12:25:35Z</time>
      </trkpt>
      <trkpt lat="48.83479" lon="6.09073">
        <ele>181.9</ele>
        <time>2021-07-29T12:25:36Z</time>
      </trkpt>
      <trkpt lat="48.83475" lon="6.0907">
        <ele>181.9</ele>
        <time>2021-07-29T12:25:37Z</time>
      </trkpt>
      <trkpt lat="48.83471" lon="6.09068">
        <ele>182.1</ele>
        <time>2021-07-29T12:25:38Z</time>
      </trkpt>
      <trkpt lat="48.83468" lon="6.09068">
        <ele>182</ele>
        <time>2021-07-29T12:25:40Z</time>
      </trkpt>
      <trkpt lat="48.83465" lon="6.09068">
        <ele>182</ele>
        <time>2021-07-29T12:25:41Z</time>
      </trkpt>
      <trkpt lat="48.83461" lon="6.09068">
        <ele>182</ele>
        <time>2021-07-29T12:25:42Z</time>
      </trkpt>
      <trkpt lat="48.83457" lon="6.09068">
        <ele>181.9</ele>
        <time>2021-07-29T12:25:43Z</time>
      </trkpt>
      <trkpt lat="48.83453" lon="6.09069">
        <ele>181.9</ele>
        <time>2021-07-29T12:25:44Z</time>
      </trkpt>
      <trkpt lat="48.83449" lon="6.09071">
        <ele>181.9</ele>
        <time>2021-07-29T12:25:45Z</time>
      </trkpt>
      <trkpt lat="48.83445" lon="6.09075">
        <ele>181.8</ele>
        <time>2021-07-29T12:25:46Z</time>
      </trkpt>
      <trkpt lat="48.83443" lon="6.0908">
        <ele>181.8</ele>
        <time>2021-07-29T12:25:47Z</time>
      </trkpt>
      <trkpt lat="48.83441" lon="6.09085">
        <ele>181.8</ele>
        <time>2021-07-29T12:25:49Z</time>
      </trkpt>
      <trkpt lat="48.83438" lon="6.09091">
        <ele>181.8</ele>
        <time>2021-07-29T12:25:50Z</time>
      </trkpt>
      <trkpt lat="48.83436" lon="6.09096">
        <ele>181.8</ele>
        <time>2021-07-29T12:25:51Z</time>
      </trkpt>
      <trkpt lat="48.83433" lon="6.09101">
        <ele>181.8</ele>
        <time>2021-07-29T12:25:52Z</time>
      </trkpt>
      <trkpt lat="48.83429" lon="6.09105">
        <ele>181.8</ele>
        <time>2021-07-29T12:25:53Z</time>
      </trkpt>
      <trkpt lat="48.83426" lon="6.0911">
        <ele>181.9</ele>
        <time>2021-07-29T12:25:54Z</time>
      </trkpt>
      <trkpt lat="48.83422" lon="6.09115">
        <ele>181.9</ele>
        <time>2021-07-29T12:25:56Z</time>
      </trkpt>
      <trkpt lat="48.83417" lon="6.0912">
        <ele>181.9</ele>
        <time>2021-07-29T12:25:57Z</time>
      </trkpt>
      <trkpt lat="48.83412" lon="6.09125">
        <ele>182</ele>
        <time>2021-07-29T12:25:58Z</time>
      </trkpt>
      <trkpt lat="48.83408" lon="6.09129">
        <ele>182</ele>
        <time>2021-07-29T12:26:00Z</time>
      </trkpt>
      <trkpt lat="48.83403" lon="6.09133">
        <ele>182</ele>
        <time>2021-07-29T12:26:01Z</time>
      </trkpt>
      <trkpt lat="48.83399" lon="6.09136">
        <ele>182.1</ele>
        <time>2021-07-29T12:26:02Z</time>
      </trkpt>
      <trkpt lat="48.83395" lon="6.09139">
        <ele>182.1</ele>
        <time>2021-07-29T12:26:03Z</time>
      </trkpt>
      <trkpt lat="48.83391" lon="6.09142">
        <ele>182.1</ele>
        <time>2021-07-29T12:26:05Z</time>
      </trkpt>
      <trkpt lat="48.83387" lon="6.09144">
        <ele>182.2</ele>
        <time>2021-07-29T12:26:06Z</time>
      </trkpt>
      <trkpt lat="48.83383" lon="6.09144">
        <ele>182.2</ele>
        <time>2021-07-29T12:26:07Z</time>
      </trkpt>
      <trkpt lat="48.83376" lon="6.09145">
        <ele>182.3</ele>
        <time>2021-07-29T12:26:08Z</time>
      </trkpt>
      <trkpt lat="48.83371" lon="6.09147">
        <ele>182.3</ele>
        <time>2021-07-29T12:26:10Z</time>
      </trkpt>
      <trkpt lat="48.83368" lon="6.09149">
        <ele>182.3</ele>
        <time>2021-07-29T12:26:11Z</time>
      </trkpt>
      <trkpt lat="48.83364" lon="6.09153">
        <ele>182.4</ele>
        <time>2021-07-29T12:26:12Z</time>
      </trkpt>
      <trkpt lat="48.8336" lon="6.09156">
        <ele>182.4</ele>
        <time>2021-07-29T12:26:13Z</time>
      </trkpt>
      <trkpt lat="48.83358" lon="6.09159">
        <ele>182.4</ele>
        <time>2021-07-29T12:26:15Z</time>
      </trkpt>
      <trkpt lat="48.83355" lon="6.09162">
        <ele>182.4</ele>
        <time>2021-07-29T12:26:16Z</time>
      </trkpt>
      <trkpt lat="48.83353" lon="6.09167">
        <ele>182.5</ele>
        <time>2021-07-29T12:26:17Z</time>
      </trkpt>
      <trkpt lat="48.83351" lon="6.09172">
        <ele>182.5</ele>
        <time>2021-07-29T12:26:18Z</time>
      </trkpt>
      <trkpt lat="48.83348" lon="6.09175">
        <ele>182.5</ele>
        <time>2021-07-29T12:26:19Z</time>
      </trkpt>
      <trkpt lat="48.83345" lon="6.09177">
        <ele>182.5</ele>
        <time>2021-07-29T12:26:21Z</time>
      </trkpt>
      <trkpt lat="48.83341" lon="6.09178">
        <ele>182.6</ele>
        <time>2021-07-29T12:26:22Z</time>
      </trkpt>
      <trkpt lat="48.83337" lon="6.09178">
        <ele>182.6</ele>
        <time>2021-07-29T12:26:23Z</time>
      </trkpt>
      <trkpt lat="48.83333" lon="6.09176">
        <ele>182.6</ele>
        <time>2021-07-29T12:26:24Z</time>
      </trkpt>
      <trkpt lat="48.8333" lon="6.09174">
        <ele>182.6</ele>
        <time>2021-07-29T12:26:26Z</time>
      </trkpt>
      <trkpt lat="48.83326" lon="6.09172">
        <ele>182.7</ele>
        <time>2021-07-29T12:26:27Z</time>
      </trkpt>
      <trkpt lat="48.83322" lon="6.09169">
        <ele>182.7</ele>
        <time>2021-07-29T12:26:28Z</time>
      </trkpt>
      <trkpt lat="48.83317" lon="6.09164">
        <ele>182.7</ele>
        <time>2021-07-29T12:26:30Z</time>
      </trkpt>
      <trkpt lat="48.83315" lon="6.09158">
        <ele>182.7</ele>
        <time>2021-07-29T12:26:31Z</time>
      </trkpt>
      <trkpt lat="48.83312" lon="6.09155">
        <ele>182.8</ele>
        <time>2021-07-29T12:26:32Z</time>
      </trkpt>
      <trkpt lat="48.83309" lon="6.0915">
        <ele>182.8</ele>
        <time>2021-07-29T12:26:33Z</time>
      </trkpt>
      <trkpt lat="48.83307" lon="6.09146">
        <ele>182.8</ele>
        <time>2021-07-29T12:26:35Z</time>
      </trkpt>
      <trkpt lat="48.83304" lon="6.09143">
        <ele>182.8</ele>
        <time>2021-07-29T12:26:36Z</time>
      </trkpt>
      <trkpt lat="48.833" lon="6.09137">
        <ele>182.9</ele>
        <time>2021-07-29T12:26:37Z</time>
      </trkpt>
      <trkpt lat="48.83297" lon="6.09133">
        <ele>182.9</ele>
        <time>2021-07-29T12:26:39Z</time>
      </trkpt>
      <trkpt lat="48.83294" lon="6.09129">
        <ele>182.9</ele>
        <time>2021-07-29T12:26:40Z</time>
      </trkpt>
      <trkpt lat="48.8329" lon="6.09121">
        <ele>182.9</ele>
        <time>2021-07-29T12:26:41Z</time>
      </trkpt>
      <trkpt lat="48.83287" lon="6.09117">
        <ele>182.9</ele>
        <time>2021-07-29T12:26:42Z</time>
      </trkpt>
      <trkpt lat="48.83283" lon="6.09112">
        <ele>182.9</ele>
        <time>2021-07-29T12:26:44Z</time>
      </trkpt>
      <trkpt lat="48.83279" lon="6.09108">
        <ele>182.9</ele>
        <time>2021-07-29T12:26:45Z</time>
      </trkpt>
      <trkpt lat="48.83275" lon="6.09102">
        <ele>183</ele>
        <time>2021-07-29T12:26:46Z</time>
      </trkpt>
      <trkpt lat="48.83271" lon="6.09097">
        <ele>183</ele>
        <time>2021-07-29T12:26:47Z</time>
      </trkpt>
      <trkpt lat="48.83267" lon="6.09092">
        <ele>183</ele>
        <time>2021-07-29T12:26:48Z</time>
      </trkpt>
      <trkpt lat="48.83264" lon="6.09087">
        <ele>183</ele>
        <time>2021-07-29T12:26:50Z</time>
      </trkpt>
      <trkpt lat="48.8326" lon="6.09082">
        <ele>183</ele>
        <time>2021-07-29T12:26:51Z</time>
      </trkpt>
      <trkpt lat="48.83256" lon="6.0908">
        <ele>183</ele>
        <time>2021-07-29T12:26:52Z</time>
      </trkpt>
      <trkpt lat="48.83252" lon="6.09078">
        <ele>183</ele>
        <time>2021-07-29T12:26:53Z</time>
      </trkpt>
      <trkpt lat="48.83248" lon="6.09075">
        <ele>183</ele>
        <time>2021-07-29T12:26:55Z</time>
      </trkpt>
      <trkpt lat="48.83244" lon="6.09071">
        <ele>183.1</ele>
        <time>2021-07-29T12:26:56Z</time>
      </trkpt>
      <trkpt lat="48.83242" lon="6.09067">
        <ele>183.1</ele>
        <time>2021-07-29T12:26:57Z</time>
      </trkpt>
      <trkpt lat="48.8324" lon="6.09063">
        <ele>183.1</ele>
        <time>2021-07-29T12:26:58Z</time>
      </trkpt>
      <trkpt lat="48.83237" lon="6.09058">
        <ele>183.1</ele>
        <time>2021-07-29T12:26:59Z</time>
      </trkpt>
      <trkpt lat="48.83234" lon="6.09055">
        <ele>183.1</ele>
        <time>2021-07-29T12:27:00Z</time>
      </trkpt>
      <trkpt lat="48.83231" lon="6.0905">
        <ele>183.1</ele>
        <time>2021-07-29T12:27:01Z</time>
      </trkpt>
      <trkpt lat="48.83228" lon="6.09045">
        <ele>183.1</ele>
        <time>2021-07-29T12:27:02Z</time>
      </trkpt>
      <trkpt lat="48.83226" lon="6.0904">
        <ele>183.1</ele>
        <time>2021-07-29T12:27:04Z</time>
      </trkpt>
      <trkpt lat="48.83224" lon="6.09034">
        <ele>183.1</ele>
        <time>2021-07-29T12:27:05Z</time>
      </trkpt>
      <trkpt lat="48.83222" lon="6.09029">
        <ele>183.1</ele>
        <time>2021-07-29T12:27:06Z</time>
      </trkpt>
      <trkpt lat="48.8322" lon="6.09022">
        <ele>183.1</ele>
        <time>2021-07-29T12:27:07Z</time>
      </trkpt>
      <trkpt lat="48.83218" lon="6.09015">
        <ele>183.1</ele>
        <time>2021-07-29T12:27:09Z</time>
      </trkpt>
      <trkpt lat="48.83215" lon="6.09008">
        <ele>183</ele>
        <time>2021-07-29T12:27:10Z</time>
      </trkpt>
      <trkpt lat="48.83214" lon="6.09002">
        <ele>183</ele>
        <time>2021-07-29T12:27:11Z</time>
      </trkpt>
      <trkpt lat="48.83212" lon="6.08997">
        <ele>183</ele>
        <time>2021-07-29T12:27:12Z</time>
      </trkpt>
      <trkpt lat="48.8321" lon="6.08992">
        <ele>183</ele>
        <time>2021-07-29T12:27:13Z</time>
      </trkpt>
      <trkpt lat="48.83207" lon="6.08987">
        <ele>183</ele>
        <time>2021-07-29T12:27:14Z</time>
      </trkpt>
      <trkpt lat="48.83204" lon="6.08982">
        <ele>183</ele>
        <time>2021-07-29T12:27:15Z</time>
      </trkpt>
      <trkpt lat="48.83201" lon="6.08975">
        <ele>183</ele>
        <time>2021-07-29T12:27:17Z</time>
      </trkpt>
      <trkpt lat="48.832" lon="6.08971">
        <ele>183</ele>
        <time>2021-07-29T12:27:18Z</time>
      </trkpt>
      <trkpt lat="48.83199" lon="6.08963">
        <ele>183</ele>
        <time>2021-07-29T12:27:19Z</time>
      </trkpt>
      <trkpt lat="48.83198" lon="6.08958">
        <ele>182.9</ele>
        <time>2021-07-29T12:27:21Z</time>
      </trkpt>
      <trkpt lat="48.83199" lon="6.08951">
        <ele>182.9</ele>
        <time>2021-07-29T12:27:22Z</time>
      </trkpt>
      <trkpt lat="48.832" lon="6.08943">
        <ele>182.9</ele>
        <time>2021-07-29T12:27:24Z</time>
      </trkpt>
      <trkpt lat="48.832" lon="6.08938">
        <ele>182.9</ele>
        <time>2021-07-29T12:27:25Z</time>
      </trkpt>
      <trkpt lat="48.832" lon="6.08933">
        <ele>182.9</ele>
        <time>2021-07-29T12:27:26Z</time>
      </trkpt>
      <trkpt lat="48.83197" lon="6.08926">
        <ele>182.9</ele>
        <time>2021-07-29T12:27:27Z</time>
      </trkpt>
      <trkpt lat="48.83194" lon="6.0892">
        <ele>182.9</ele>
        <time>2021-07-29T12:27:29Z</time>
      </trkpt>
      <trkpt lat="48.83191" lon="6.08917">
        <ele>182.9</ele>
        <time>2021-07-29T12:27:30Z</time>
      </trkpt>
      <trkpt lat="48.8319" lon="6.08914">
        <ele>182.9</ele>
        <time>2021-07-29T12:27:31Z</time>
      </trkpt>
      <trkpt lat="48.83187" lon="6.08908">
        <ele>182.8</ele>
        <time>2021-07-29T12:27:33Z</time>
      </trkpt>
      <trkpt lat="48.83179" lon="6.08903">
        <ele>182.7</ele>
        <time>2021-07-29T12:27:35Z</time>
      </trkpt>
      <trkpt lat="48.83171" lon="6.08899">
        <ele>182.5</ele>
        <time>2021-07-29T12:27:37Z</time>
      </trkpt>
      <trkpt lat="48.83166" lon="6.08898">
        <ele>182.5</ele>
        <time>2021-07-29T12:27:38Z</time>
      </trkpt>
      <trkpt lat="48.8316" lon="6.08898">
        <ele>182.4</ele>
        <time>2021-07-29T12:27:39Z</time>
      </trkpt>
      <trkpt lat="48.83156" lon="6.08896">
        <ele>182.3</ele>
        <time>2021-07-29T12:27:41Z</time>
      </trkpt>
      <trkpt lat="48.8315" lon="6.08891">
        <ele>182.2</ele>
        <time>2021-07-29T12:27:42Z</time>
      </trkpt>
      <trkpt lat="48.83143" lon="6.08885">
        <ele>182.2</ele>
        <time>2021-07-29T12:27:43Z</time>
      </trkpt>
      <trkpt lat="48.83139" lon="6.08882">
        <ele>182.1</ele>
        <time>2021-07-29T12:27:44Z</time>
      </trkpt>
      <trkpt lat="48.83134" lon="6.08879">
        <ele>182.1</ele>
        <time>2021-07-29T12:27:45Z</time>
      </trkpt>
      <trkpt lat="48.8313" lon="6.08875">
        <ele>182.1</ele>
        <time>2021-07-29T12:27:46Z</time>
      </trkpt>
      <trkpt lat="48.83127" lon="6.08872">
        <ele>182.1</ele>
        <time>2021-07-29T12:27:47Z</time>
      </trkpt>
      <trkpt lat="48.83124" lon="6.08869">
        <ele>182.1</ele>
        <time>2021-07-29T12:27:48Z</time>
      </trkpt>
      <trkpt lat="48.83119" lon="6.08864">
        <ele>182.1</ele>
        <time>2021-07-29T12:27:50Z</time>
      </trkpt>
      <trkpt lat="48.83115" lon="6.08861">
        <ele>182.1</ele>
        <time>2021-07-29T12:27:51Z</time>
      </trkpt>
      <trkpt lat="48.83109" lon="6.08857">
        <ele>182.1</ele>
        <time>2021-07-29T12:27:53Z</time>
      </trkpt>
      <trkpt lat="48.83104" lon="6.08854">
        <ele>182</ele>
        <time>2021-07-29T12:27:54Z</time>
      </trkpt>
      <trkpt lat="48.83097" lon="6.08851">
        <ele>182</ele>
        <time>2021-07-29T12:27:55Z</time>
      </trkpt>
      <trkpt lat="48.83092" lon="6.08848">
        <ele>182</ele>
        <time>2021-07-29T12:27:57Z</time>
      </trkpt>
      <trkpt lat="48.83089" lon="6.08847">
        <ele>182</ele>
        <time>2021-07-29T12:27:58Z</time>
      </trkpt>
      <trkpt lat="48.83086" lon="6.08846">
        <ele>182</ele>
        <time>2021-07-29T12:27:59Z</time>
      </trkpt>
      <trkpt lat="48.83075" lon="6.08839">
        <ele>181.9</ele>
        <time>2021-07-29T12:28:01Z</time>
      </trkpt>
      <trkpt lat="48.83069" lon="6.08832">
        <ele>182</ele>
        <time>2021-07-29T12:28:02Z</time>
      </trkpt>
      <trkpt lat="48.83061" lon="6.08826">
        <ele>182</ele>
        <time>2021-07-29T12:28:04Z</time>
      </trkpt>
      <trkpt lat="48.83055" lon="6.08825">
        <ele>182</ele>
        <time>2021-07-29T12:28:05Z</time>
      </trkpt>
      <trkpt lat="48.83049" lon="6.08821">
        <ele>182</ele>
        <time>2021-07-29T12:28:06Z</time>
      </trkpt>
      <trkpt lat="48.83039" lon="6.08816">
        <ele>182.1</ele>
        <time>2021-07-29T12:28:08Z</time>
      </trkpt>
      <trkpt lat="48.83033" lon="6.08813">
        <ele>182.1</ele>
        <time>2021-07-29T12:28:09Z</time>
      </trkpt>
      <trkpt lat="48.83027" lon="6.08813">
        <ele>182.1</ele>
        <time>2021-07-29T12:28:10Z</time>
      </trkpt>
      <trkpt lat="48.83024" lon="6.08813">
        <ele>182.1</ele>
        <time>2021-07-29T12:28:11Z</time>
      </trkpt>
      <trkpt lat="48.83022" lon="6.08813">
        <ele>182.1</ele>
        <time>2021-07-29T12:28:12Z</time>
      </trkpt>
      <trkpt lat="48.83019" lon="6.08813">
        <ele>182.1</ele>
        <time>2021-07-29T12:28:13Z</time>
      </trkpt>
      <trkpt lat="48.83016" lon="6.08814">
        <ele>182.1</ele>
        <time>2021-07-29T12:28:15Z</time>
      </trkpt>
      <trkpt lat="48.83014" lon="6.08814">
        <ele>182.1</ele>
        <time>2021-07-29T12:28:17Z</time>
      </trkpt>
      <trkpt lat="48.8301" lon="6.0881">
        <ele>182.1</ele>
        <time>2021-07-29T12:28:19Z</time>
      </trkpt>
      <trkpt lat="48.83009" lon="6.08809">
        <ele>182.1</ele>
        <time>2021-07-29T12:28:20Z</time>
      </trkpt>
      <trkpt lat="48.82972" lon="6.08782">
        <ele>182.4</ele>
        <time>2021-07-29T12:28:31Z</time>
      </trkpt>
      <trkpt lat="48.82967" lon="6.08778">
        <ele>182.5</ele>
        <time>2021-07-29T12:28:32Z</time>
      </trkpt>
      <trkpt lat="48.82961" lon="6.08773">
        <ele>182.6</ele>
        <time>2021-07-29T12:28:33Z</time>
      </trkpt>
      <trkpt lat="48.82955" lon="6.08767">
        <ele>182.7</ele>
        <time>2021-07-29T12:28:35Z</time>
      </trkpt>
      <trkpt lat="48.82949" lon="6.08762">
        <ele>182.8</ele>
        <time>2021-07-29T12:28:36Z</time>
      </trkpt>
      <trkpt lat="48.82943" lon="6.08754">
        <ele>182.8</ele>
        <time>2021-07-29T12:28:37Z</time>
      </trkpt>
      <trkpt lat="48.82939" lon="6.08748">
        <ele>182.9</ele>
        <time>2021-07-29T12:28:38Z</time>
      </trkpt>
      <trkpt lat="48.82936" lon="6.08743">
        <ele>182.9</ele>
        <time>2021-07-29T12:28:39Z</time>
      </trkpt>
      <trkpt lat="48.82933" lon="6.08738">
        <ele>183</ele>
        <time>2021-07-29T12:28:40Z</time>
      </trkpt>
      <trkpt lat="48.8293" lon="6.08731">
        <ele>183</ele>
        <time>2021-07-29T12:28:41Z</time>
      </trkpt>
      <trkpt lat="48.82928" lon="6.08726">
        <ele>183</ele>
        <time>2021-07-29T12:28:43Z</time>
      </trkpt>
      <trkpt lat="48.82926" lon="6.08721">
        <ele>183</ele>
        <time>2021-07-29T12:28:44Z</time>
      </trkpt>
      <trkpt lat="48.82923" lon="6.08713">
        <ele>183.1</ele>
        <time>2021-07-29T12:28:45Z</time>
      </trkpt>
      <trkpt lat="48.82921" lon="6.08708">
        <ele>183.1</ele>
        <time>2021-07-29T12:28:47Z</time>
      </trkpt>
      <trkpt lat="48.82918" lon="6.08704">
        <ele>183.1</ele>
        <time>2021-07-29T12:28:48Z</time>
      </trkpt>
      <trkpt lat="48.82916" lon="6.08701">
        <ele>183.1</ele>
        <time>2021-07-29T12:28:49Z</time>
      </trkpt>
      <trkpt lat="48.82913" lon="6.08698">
        <ele>183.1</ele>
        <time>2021-07-29T12:28:50Z</time>
      </trkpt>
      <trkpt lat="48.82908" lon="6.08695">
        <ele>183.1</ele>
        <time>2021-07-29T12:28:52Z</time>
      </trkpt>
      <trkpt lat="48.82905" lon="6.08693">
        <ele>183.1</ele>
        <time>2021-07-29T12:28:53Z</time>
      </trkpt>
      <trkpt lat="48.82901" lon="6.0869">
        <ele>183.2</ele>
        <time>2021-07-29T12:28:55Z</time>
      </trkpt>
      <trkpt lat="48.82896" lon="6.08691">
        <ele>183.2</ele>
        <time>2021-07-29T12:28:56Z</time>
      </trkpt>
      <trkpt lat="48.8289" lon="6.08692">
        <ele>183.2</ele>
        <time>2021-07-29T12:28:58Z</time>
      </trkpt>
      <trkpt lat="48.82886" lon="6.08691">
        <ele>183.2</ele>
        <time>2021-07-29T12:28:59Z</time>
      </trkpt>
      <trkpt lat="48.82878" lon="6.08691">
        <ele>183.2</ele>
        <time>2021-07-29T12:29:01Z</time>
      </trkpt>
      <trkpt lat="48.82873" lon="6.08691">
        <ele>183.2</ele>
        <time>2021-07-29T12:29:02Z</time>
      </trkpt>
      <trkpt lat="48.82868" lon="6.08691">
        <ele>183.2</ele>
        <time>2021-07-29T12:29:04Z</time>
      </trkpt>
      <trkpt lat="48.82865" lon="6.08691">
        <ele>183.2</ele>
        <time>2021-07-29T12:29:05Z</time>
      </trkpt>
      <trkpt lat="48.82861" lon="6.08692">
        <ele>183.3</ele>
        <time>2021-07-29T12:29:06Z</time>
      </trkpt>
      <trkpt lat="48.82859" lon="6.08693">
        <ele>183.3</ele>
        <time>2021-07-29T12:29:07Z</time>
      </trkpt>
      <trkpt lat="48.82855" lon="6.08693">
        <ele>183.3</ele>
        <time>2021-07-29T12:29:08Z</time>
      </trkpt>
      <trkpt lat="48.8285" lon="6.08693">
        <ele>183.3</ele>
        <time>2021-07-29T12:29:10Z</time>
      </trkpt>
      <trkpt lat="48.82848" lon="6.08694">
        <ele>183.3</ele>
        <time>2021-07-29T12:29:11Z</time>
      </trkpt>
      <trkpt lat="48.82847" lon="6.08694">
        <ele>183.3</ele>
        <time>2021-07-29T12:29:12Z</time>
      </trkpt>
      <trkpt lat="48.82843" lon="6.08696">
        <ele>183.3</ele>
        <time>2021-07-29T12:29:13Z</time>
      </trkpt>
      <trkpt lat="48.82839" lon="6.08698">
        <ele>183.3</ele>
        <time>2021-07-29T12:29:15Z</time>
      </trkpt>
      <trkpt lat="48.82835" lon="6.087">
        <ele>183.3</ele>
        <time>2021-07-29T12:29:16Z</time>
      </trkpt>
      <trkpt lat="48.82834" lon="6.08701">
        <ele>183.4</ele>
        <time>2021-07-29T12:29:17Z</time>
      </trkpt>
      <trkpt lat="48.8283" lon="6.08704">
        <ele>183.4</ele>
        <time>2021-07-29T12:29:18Z</time>
      </trkpt>
      <trkpt lat="48.82826" lon="6.08706">
        <ele>183.4</ele>
        <time>2021-07-29T12:29:19Z</time>
      </trkpt>
      <trkpt lat="48.82823" lon="6.08709">
        <ele>183.4</ele>
        <time>2021-07-29T12:29:20Z</time>
      </trkpt>
      <trkpt lat="48.8282" lon="6.0871">
        <ele>183.4</ele>
        <time>2021-07-29T12:29:21Z</time>
      </trkpt>
      <trkpt lat="48.82815" lon="6.08711">
        <ele>183.4</ele>
        <time>2021-07-29T12:29:23Z</time>
      </trkpt>
      <trkpt lat="48.82811" lon="6.08712">
        <ele>183.4</ele>
        <time>2021-07-29T12:29:24Z</time>
      </trkpt>
      <trkpt lat="48.82805" lon="6.08713">
        <ele>183.5</ele>
        <time>2021-07-29T12:29:25Z</time>
      </trkpt>
      <trkpt lat="48.82801" lon="6.08714">
        <ele>183.5</ele>
        <time>2021-07-29T12:29:26Z</time>
      </trkpt>
      <trkpt lat="48.82797" lon="6.08715">
        <ele>183.5</ele>
        <time>2021-07-29T12:29:27Z</time>
      </trkpt>
      <trkpt lat="48.82793" lon="6.08717">
        <ele>183.5</ele>
        <time>2021-07-29T12:29:29Z</time>
      </trkpt>
      <trkpt lat="48.8279" lon="6.08719">
        <ele>183.5</ele>
        <time>2021-07-29T12:29:30Z</time>
      </trkpt>
      <trkpt lat="48.82787" lon="6.08722">
        <ele>183.5</ele>
        <time>2021-07-29T12:29:31Z</time>
      </trkpt>
      <trkpt lat="48.82783" lon="6.08725">
        <ele>183.6</ele>
        <time>2021-07-29T12:29:32Z</time>
      </trkpt>
      <trkpt lat="48.82778" lon="6.08733">
        <ele>183.6</ele>
        <time>2021-07-29T12:29:33Z</time>
      </trkpt>
      <trkpt lat="48.82775" lon="6.08738">
        <ele>183.6</ele>
        <time>2021-07-29T12:29:35Z</time>
      </trkpt>
      <trkpt lat="48.82772" lon="6.08744">
        <ele>183.7</ele>
        <time>2021-07-29T12:29:36Z</time>
      </trkpt>
      <trkpt lat="48.82771" lon="6.08749">
        <ele>183.7</ele>
        <time>2021-07-29T12:29:37Z</time>
      </trkpt>
      <trkpt lat="48.82769" lon="6.08754">
        <ele>183.7</ele>
        <time>2021-07-29T12:29:38Z</time>
      </trkpt>
      <trkpt lat="48.82767" lon="6.08761">
        <ele>183.8</ele>
        <time>2021-07-29T12:29:39Z</time>
      </trkpt>
      <trkpt lat="48.82764" lon="6.08765">
        <ele>183.8</ele>
        <time>2021-07-29T12:29:40Z</time>
      </trkpt>
      <trkpt lat="48.82761" lon="6.08767">
        <ele>183.8</ele>
        <time>2021-07-29T12:29:42Z</time>
      </trkpt>
      <trkpt lat="48.82759" lon="6.0877">
        <ele>183.8</ele>
        <time>2021-07-29T12:29:43Z</time>
      </trkpt>
      <trkpt lat="48.82757" lon="6.08774">
        <ele>183.9</ele>
        <time>2021-07-29T12:29:44Z</time>
      </trkpt>
      <trkpt lat="48.82752" lon="6.0878">
        <ele>183.9</ele>
        <time>2021-07-29T12:29:46Z</time>
      </trkpt>
      <trkpt lat="48.82749" lon="6.08781">
        <ele>183.9</ele>
        <time>2021-07-29T12:29:47Z</time>
      </trkpt>
      <trkpt lat="48.82746" lon="6.08783">
        <ele>184</ele>
        <time>2021-07-29T12:29:48Z</time>
      </trkpt>
      <trkpt lat="48.82741" lon="6.08787">
        <ele>184</ele>
        <time>2021-07-29T12:29:49Z</time>
      </trkpt>
      <trkpt lat="48.82739" lon="6.0879">
        <ele>184</ele>
        <time>2021-07-29T12:29:50Z</time>
      </trkpt>
      <trkpt lat="48.82736" lon="6.08794">
        <ele>184.1</ele>
        <time>2021-07-29T12:29:52Z</time>
      </trkpt>
      <trkpt lat="48.82733" lon="6.08798">
        <ele>184.1</ele>
        <time>2021-07-29T12:29:53Z</time>
      </trkpt>
      <trkpt lat="48.82729" lon="6.08801">
        <ele>184.1</ele>
        <time>2021-07-29T12:29:54Z</time>
      </trkpt>
      <trkpt lat="48.82726" lon="6.08807">
        <ele>184.2</ele>
        <time>2021-07-29T12:29:55Z</time>
      </trkpt>
      <trkpt lat="48.82722" lon="6.08813">
        <ele>184.2</ele>
        <time>2021-07-29T12:29:57Z</time>
      </trkpt>
      <trkpt lat="48.82719" lon="6.08819">
        <ele>184.2</ele>
        <time>2021-07-29T12:29:58Z</time>
      </trkpt>
      <trkpt lat="48.82716" lon="6.08823">
        <ele>184.2</ele>
        <time>2021-07-29T12:29:59Z</time>
      </trkpt>
      <trkpt lat="48.82713" lon="6.08828">
        <ele>184.2</ele>
        <time>2021-07-29T12:30:00Z</time>
      </trkpt>
      <trkpt lat="48.82709" lon="6.08832">
        <ele>184.2</ele>
        <time>2021-07-29T12:30:01Z</time>
      </trkpt>
      <trkpt lat="48.82705" lon="6.08837">
        <ele>184.2</ele>
        <time>2021-07-29T12:30:03Z</time>
      </trkpt>
      <trkpt lat="48.827" lon="6.08843">
        <ele>184.2</ele>
        <time>2021-07-29T12:30:04Z</time>
      </trkpt>
      <trkpt lat="48.82698" lon="6.08847">
        <ele>184.2</ele>
        <time>2021-07-29T12:30:05Z</time>
      </trkpt>
      <trkpt lat="48.82696" lon="6.08851">
        <ele>184.2</ele>
        <time>2021-07-29T12:30:06Z</time>
      </trkpt>
      <trkpt lat="48.82693" lon="6.08855">
        <ele>184.2</ele>
        <time>2021-07-29T12:30:07Z</time>
      </trkpt>
      <trkpt lat="48.82689" lon="6.0886">
        <ele>184.2</ele>
        <time>2021-07-29T12:30:09Z</time>
      </trkpt>
      <trkpt lat="48.82685" lon="6.08866">
        <ele>184.2</ele>
        <time>2021-07-29T12:30:10Z</time>
      </trkpt>
      <trkpt lat="48.82682" lon="6.08871">
        <ele>184.2</ele>
        <time>2021-07-29T12:30:12Z</time>
      </trkpt>
      <trkpt lat="48.82679" lon="6.0888">
        <ele>184.2</ele>
        <time>2021-07-29T12:30:14Z</time>
      </trkpt>
      <trkpt lat="48.82677" lon="6.08887">
        <ele>184.2</ele>
        <time>2021-07-29T12:30:15Z</time>
      </trkpt>
      <trkpt lat="48.82673" lon="6.08899">
        <ele>184.2</ele>
        <time>2021-07-29T12:30:17Z</time>
      </trkpt>
      <trkpt lat="48.82672" lon="6.08904">
        <ele>184.2</ele>
        <time>2021-07-29T12:30:18Z</time>
      </trkpt>
      <trkpt lat="48.82668" lon="6.08916">
        <ele>184.2</ele>
        <time>2021-07-29T12:30:20Z</time>
      </trkpt>
      <trkpt lat="48.82664" lon="6.08929">
        <ele>184.2</ele>
        <time>2021-07-29T12:30:22Z</time>
      </trkpt>
      <trkpt lat="48.82662" lon="6.08937">
        <ele>184.2</ele>
        <time>2021-07-29T12:30:23Z</time>
      </trkpt>
      <trkpt lat="48.8266" lon="6.08942">
        <ele>184.2</ele>
        <time>2021-07-29T12:30:24Z</time>
      </trkpt>
      <trkpt lat="48.82654" lon="6.08948">
        <ele>184.2</ele>
        <time>2021-07-29T12:30:25Z</time>
      </trkpt>
      <trkpt lat="48.8265" lon="6.08952">
        <ele>184.2</ele>
        <time>2021-07-29T12:30:27Z</time>
      </trkpt>
      <trkpt lat="48.82647" lon="6.08955">
        <ele>184.2</ele>
        <time>2021-07-29T12:30:28Z</time>
      </trkpt>
      <trkpt lat="48.82645" lon="6.08958">
        <ele>184.2</ele>
        <time>2021-07-29T12:30:29Z</time>
      </trkpt>
      <trkpt lat="48.82642" lon="6.08963">
        <ele>184.2</ele>
        <time>2021-07-29T12:30:30Z</time>
      </trkpt>
      <trkpt lat="48.82641" lon="6.08964">
        <ele>184.2</ele>
        <time>2021-07-29T12:30:31Z</time>
      </trkpt>
      <trkpt lat="48.8264" lon="6.08968">
        <ele>184.2</ele>
        <time>2021-07-29T12:30:32Z</time>
      </trkpt>
      <trkpt lat="48.82639" lon="6.08969">
        <ele>184.2</ele>
        <time>2021-07-29T12:30:33Z</time>
      </trkpt>
      <trkpt lat="48.82637" lon="6.08973">
        <ele>184.2</ele>
        <time>2021-07-29T12:30:34Z</time>
      </trkpt>
      <trkpt lat="48.82636" lon="6.08975">
        <ele>184.2</ele>
        <time>2021-07-29T12:30:35Z</time>
      </trkpt>
      <trkpt lat="48.82634" lon="6.08979">
        <ele>184.2</ele>
        <time>2021-07-29T12:30:36Z</time>
      </trkpt>
      <trkpt lat="48.82632" lon="6.08982">
        <ele>184.2</ele>
        <time>2021-07-29T12:30:38Z</time>
      </trkpt>
      <trkpt lat="48.82629" lon="6.08986">
        <ele>184.2</ele>
        <time>2021-07-29T12:30:39Z</time>
      </trkpt>
      <trkpt lat="48.82628" lon="6.08989">
        <ele>184.2</ele>
        <time>2021-07-29T12:30:40Z</time>
      </trkpt>
      <trkpt lat="48.82624" lon="6.08994">
        <ele>184.2</ele>
        <time>2021-07-29T12:30:42Z</time>
      </trkpt>
      <trkpt lat="48.82622" lon="6.08998">
        <ele>184.2</ele>
        <time>2021-07-29T12:30:43Z</time>
      </trkpt>
      <trkpt lat="48.82621" lon="6.09">
        <ele>184.2</ele>
        <time>2021-07-29T12:30:44Z</time>
      </trkpt>
      <trkpt lat="48.82618" lon="6.09006">
        <ele>184.2</ele>
        <time>2021-07-29T12:30:45Z</time>
      </trkpt>
      <trkpt lat="48.82617" lon="6.09011">
        <ele>184.2</ele>
        <time>2021-07-29T12:30:46Z</time>
      </trkpt>
      <trkpt lat="48.82615" lon="6.09017">
        <ele>184.2</ele>
        <time>2021-07-29T12:30:47Z</time>
      </trkpt>
      <trkpt lat="48.82614" lon="6.09024">
        <ele>184.2</ele>
        <time>2021-07-29T12:30:48Z</time>
      </trkpt>
      <trkpt lat="48.82613" lon="6.0903">
        <ele>184.2</ele>
        <time>2021-07-29T12:30:49Z</time>
      </trkpt>
      <trkpt lat="48.82613" lon="6.09036">
        <ele>184.2</ele>
        <time>2021-07-29T12:30:50Z</time>
      </trkpt>
      <trkpt lat="48.82613" lon="6.09041">
        <ele>184.2</ele>
        <time>2021-07-29T12:30:52Z</time>
      </trkpt>
      <trkpt lat="48.82613" lon="6.09046">
        <ele>184.2</ele>
        <time>2021-07-29T12:30:53Z</time>
      </trkpt>
      <trkpt lat="48.82613" lon="6.09052">
        <ele>184.2</ele>
        <time>2021-07-29T12:30:54Z</time>
      </trkpt>
      <trkpt lat="48.82613" lon="6.09062">
        <ele>184.2</ele>
        <time>2021-07-29T12:30:55Z</time>
      </trkpt>
      <trkpt lat="48.82612" lon="6.0907">
        <ele>184.2</ele>
        <time>2021-07-29T12:30:56Z</time>
      </trkpt>
      <trkpt lat="48.82612" lon="6.09078">
        <ele>184.2</ele>
        <time>2021-07-29T12:30:57Z</time>
      </trkpt>
      <trkpt lat="48.82611" lon="6.09085">
        <ele>184.1</ele>
        <time>2021-07-29T12:30:58Z</time>
      </trkpt>
      <trkpt lat="48.8261" lon="6.09091">
        <ele>184.1</ele>
        <time>2021-07-29T12:30:59Z</time>
      </trkpt>
      <trkpt lat="48.82609" lon="6.09098">
        <ele>184.1</ele>
        <time>2021-07-29T12:31:00Z</time>
      </trkpt>
      <trkpt lat="48.82607" lon="6.09106">
        <ele>184.1</ele>
        <time>2021-07-29T12:31:01Z</time>
      </trkpt>
      <trkpt lat="48.82605" lon="6.09112">
        <ele>184.1</ele>
        <time>2021-07-29T12:31:03Z</time>
      </trkpt>
      <trkpt lat="48.82601" lon="6.09119">
        <ele>184.1</ele>
        <time>2021-07-29T12:31:04Z</time>
      </trkpt>
      <trkpt lat="48.82598" lon="6.09125">
        <ele>184.1</ele>
        <time>2021-07-29T12:31:05Z</time>
      </trkpt>
      <trkpt lat="48.82596" lon="6.0913">
        <ele>184</ele>
        <time>2021-07-29T12:31:06Z</time>
      </trkpt>
      <trkpt lat="48.82593" lon="6.09135">
        <ele>184</ele>
        <time>2021-07-29T12:31:07Z</time>
      </trkpt>
      <trkpt lat="48.8259" lon="6.09139">
        <ele>184</ele>
        <time>2021-07-29T12:31:08Z</time>
      </trkpt>
      <trkpt lat="48.82587" lon="6.09144">
        <ele>184</ele>
        <time>2021-07-29T12:31:10Z</time>
      </trkpt>
      <trkpt lat="48.82583" lon="6.09148">
        <ele>184</ele>
        <time>2021-07-29T12:31:11Z</time>
      </trkpt>
      <trkpt lat="48.8258" lon="6.09152">
        <ele>184</ele>
        <time>2021-07-29T12:31:12Z</time>
      </trkpt>
      <trkpt lat="48.82576" lon="6.09158">
        <ele>184</ele>
        <time>2021-07-29T12:31:13Z</time>
      </trkpt>
      <trkpt lat="48.82574" lon="6.09164">
        <ele>184</ele>
        <time>2021-07-29T12:31:14Z</time>
      </trkpt>
      <trkpt lat="48.8257" lon="6.09174">
        <ele>184</ele>
        <time>2021-07-29T12:31:15Z</time>
      </trkpt>
      <trkpt lat="48.82569" lon="6.09182">
        <ele>184</ele>
        <time>2021-07-29T12:31:17Z</time>
      </trkpt>
      <trkpt lat="48.82566" lon="6.09193">
        <ele>184</ele>
        <time>2021-07-29T12:31:19Z</time>
      </trkpt>
      <trkpt lat="48.82564" lon="6.09198">
        <ele>184</ele>
        <time>2021-07-29T12:31:20Z</time>
      </trkpt>
      <trkpt lat="48.82561" lon="6.09205">
        <ele>184</ele>
        <time>2021-07-29T12:31:21Z</time>
      </trkpt>
      <trkpt lat="48.82558" lon="6.0921">
        <ele>184</ele>
        <time>2021-07-29T12:31:22Z</time>
      </trkpt>
      <trkpt lat="48.82554" lon="6.09216">
        <ele>184</ele>
        <time>2021-07-29T12:31:24Z</time>
      </trkpt>
      <trkpt lat="48.8255" lon="6.09222">
        <ele>183.9</ele>
        <time>2021-07-29T12:31:25Z</time>
      </trkpt>
      <trkpt lat="48.82548" lon="6.09227">
        <ele>183.9</ele>
        <time>2021-07-29T12:31:26Z</time>
      </trkpt>
      <trkpt lat="48.82546" lon="6.09232">
        <ele>183.9</ele>
        <time>2021-07-29T12:31:27Z</time>
      </trkpt>
      <trkpt lat="48.82545" lon="6.09236">
        <ele>183.9</ele>
        <time>2021-07-29T12:31:28Z</time>
      </trkpt>
      <trkpt lat="48.82543" lon="6.09243">
        <ele>183.9</ele>
        <time>2021-07-29T12:31:29Z</time>
      </trkpt>
      <trkpt lat="48.82541" lon="6.09249">
        <ele>183.9</ele>
        <time>2021-07-29T12:31:30Z</time>
      </trkpt>
      <trkpt lat="48.82539" lon="6.09255">
        <ele>183.9</ele>
        <time>2021-07-29T12:31:31Z</time>
      </trkpt>
      <trkpt lat="48.82536" lon="6.09261">
        <ele>184</ele>
        <time>2021-07-29T12:31:33Z</time>
      </trkpt>
      <trkpt lat="48.82533" lon="6.09265">
        <ele>184</ele>
        <time>2021-07-29T12:31:34Z</time>
      </trkpt>
      <trkpt lat="48.82531" lon="6.09269">
        <ele>184</ele>
        <time>2021-07-29T12:31:35Z</time>
      </trkpt>
      <trkpt lat="48.8253" lon="6.09273">
        <ele>184</ele>
        <time>2021-07-29T12:31:36Z</time>
      </trkpt>
      <trkpt lat="48.82527" lon="6.09279">
        <ele>184</ele>
        <time>2021-07-29T12:31:37Z</time>
      </trkpt>
      <trkpt lat="48.82524" lon="6.09283">
        <ele>184</ele>
        <time>2021-07-29T12:31:38Z</time>
      </trkpt>
      <trkpt lat="48.82522" lon="6.09287">
        <ele>184</ele>
        <time>2021-07-29T12:31:39Z</time>
      </trkpt>
      <trkpt lat="48.82519" lon="6.09292">
        <ele>184</ele>
        <time>2021-07-29T12:31:41Z</time>
      </trkpt>
      <trkpt lat="48.82517" lon="6.09296">
        <ele>184</ele>
        <time>2021-07-29T12:31:42Z</time>
      </trkpt>
      <trkpt lat="48.82512" lon="6.09304">
        <ele>184</ele>
        <time>2021-07-29T12:31:44Z</time>
      </trkpt>
      <trkpt lat="48.8251" lon="6.09306">
        <ele>184</ele>
        <time>2021-07-29T12:31:45Z</time>
      </trkpt>
      <trkpt lat="48.82505" lon="6.0931">
        <ele>184</ele>
        <time>2021-07-29T12:31:46Z</time>
      </trkpt>
      <trkpt lat="48.82502" lon="6.09312">
        <ele>184.1</ele>
        <time>2021-07-29T12:31:47Z</time>
      </trkpt>
      <trkpt lat="48.82499" lon="6.09315">
        <ele>184.1</ele>
        <time>2021-07-29T12:31:49Z</time>
      </trkpt>
      <trkpt lat="48.82496" lon="6.09317">
        <ele>184.1</ele>
        <time>2021-07-29T12:31:50Z</time>
      </trkpt>
      <trkpt lat="48.82493" lon="6.09317">
        <ele>184.1</ele>
        <time>2021-07-29T12:31:51Z</time>
      </trkpt>
      <trkpt lat="48.82488" lon="6.09315">
        <ele>184.1</ele>
        <time>2021-07-29T12:31:52Z</time>
      </trkpt>
      <trkpt lat="48.82484" lon="6.09316">
        <ele>184.1</ele>
        <time>2021-07-29T12:31:53Z</time>
      </trkpt>
      <trkpt lat="48.82479" lon="6.09318">
        <ele>184.2</ele>
        <time>2021-07-29T12:31:55Z</time>
      </trkpt>
      <trkpt lat="48.82469" lon="6.09323">
        <ele>184.2</ele>
        <time>2021-07-29T12:31:57Z</time>
      </trkpt>
      <trkpt lat="48.82465" lon="6.09324">
        <ele>184.2</ele>
        <time>2021-07-29T12:31:58Z</time>
      </trkpt>
      <trkpt lat="48.82462" lon="6.09326">
        <ele>184.2</ele>
        <time>2021-07-29T12:31:59Z</time>
      </trkpt>
      <trkpt lat="48.8246" lon="6.09327">
        <ele>184.3</ele>
        <time>2021-07-29T12:32:01Z</time>
      </trkpt>
      <trkpt lat="48.82457" lon="6.09328">
        <ele>184.3</ele>
        <time>2021-07-29T12:32:02Z</time>
      </trkpt>
      <trkpt lat="48.82454" lon="6.0933">
        <ele>184.3</ele>
        <time>2021-07-29T12:32:04Z</time>
      </trkpt>
      <trkpt lat="48.82452" lon="6.09333">
        <ele>184.3</ele>
        <time>2021-07-29T12:32:05Z</time>
      </trkpt>
      <trkpt lat="48.82451" lon="6.09334">
        <ele>184.3</ele>
        <time>2021-07-29T12:32:06Z</time>
      </trkpt>
      <trkpt lat="48.82449" lon="6.09337">
        <ele>184.3</ele>
        <time>2021-07-29T12:32:08Z</time>
      </trkpt>
      <trkpt lat="48.82445" lon="6.09341">
        <ele>184.3</ele>
        <time>2021-07-29T12:32:09Z</time>
      </trkpt>
      <trkpt lat="48.8244" lon="6.09344">
        <ele>184.3</ele>
        <time>2021-07-29T12:32:10Z</time>
      </trkpt>
      <trkpt lat="48.82434" lon="6.09347">
        <ele>184.3</ele>
        <time>2021-07-29T12:32:12Z</time>
      </trkpt>
      <trkpt lat="48.82428" lon="6.09351">
        <ele>184.3</ele>
        <time>2021-07-29T12:32:13Z</time>
      </trkpt>
      <trkpt lat="48.82424" lon="6.09357">
        <ele>184.3</ele>
        <time>2021-07-29T12:32:14Z</time>
      </trkpt>
      <trkpt lat="48.8242" lon="6.09366">
        <ele>184.3</ele>
        <time>2021-07-29T12:32:15Z</time>
      </trkpt>
      <trkpt lat="48.82417" lon="6.09374">
        <ele>184.3</ele>
        <time>2021-07-29T12:32:16Z</time>
      </trkpt>
      <trkpt lat="48.82414" lon="6.09383">
        <ele>184.4</ele>
        <time>2021-07-29T12:32:18Z</time>
      </trkpt>
      <trkpt lat="48.82411" lon="6.0939">
        <ele>184.4</ele>
        <time>2021-07-29T12:32:19Z</time>
      </trkpt>
      <trkpt lat="48.82407" lon="6.09399">
        <ele>184.4</ele>
        <time>2021-07-29T12:32:20Z</time>
      </trkpt>
      <trkpt lat="48.82402" lon="6.09412">
        <ele>184.4</ele>
        <time>2021-07-29T12:32:22Z</time>
      </trkpt>
      <trkpt lat="48.82399" lon="6.09413">
        <ele>184.4</ele>
        <time>2021-07-29T12:32:23Z</time>
      </trkpt>
      <trkpt lat="48.82398" lon="6.09415">
        <ele>184.4</ele>
        <time>2021-07-29T12:32:24Z</time>
      </trkpt>
      <trkpt lat="48.82397" lon="6.09423">
        <ele>184.4</ele>
        <time>2021-07-29T12:32:26Z</time>
      </trkpt>
      <trkpt lat="48.82397" lon="6.09433">
        <ele>184.4</ele>
        <time>2021-07-29T12:32:27Z</time>
      </trkpt>
      <trkpt lat="48.82402" lon="6.09449">
        <ele>184.4</ele>
        <time>2021-07-29T12:32:28Z</time>
      </trkpt>
      <trkpt lat="48.82402" lon="6.09455">
        <ele>184.4</ele>
        <time>2021-07-29T12:32:29Z</time>
      </trkpt>
      <trkpt lat="48.82404" lon="6.09459">
        <ele>184.4</ele>
        <time>2021-07-29T12:32:30Z</time>
      </trkpt>
      <trkpt lat="48.82406" lon="6.09466">
        <ele>184.3</ele>
        <time>2021-07-29T12:32:31Z</time>
      </trkpt>
      <trkpt lat="48.82407" lon="6.09473">
        <ele>184.3</ele>
        <time>2021-07-29T12:32:32Z</time>
      </trkpt>
      <trkpt lat="48.82408" lon="6.09479">
        <ele>184.3</ele>
        <time>2021-07-29T12:32:33Z</time>
      </trkpt>
      <trkpt lat="48.82408" lon="6.09491">
        <ele>184.3</ele>
        <time>2021-07-29T12:32:35Z</time>
      </trkpt>
      <trkpt lat="48.82409" lon="6.09502">
        <ele>184.2</ele>
        <time>2021-07-29T12:32:37Z</time>
      </trkpt>
      <trkpt lat="48.82409" lon="6.09507">
        <ele>184.2</ele>
        <time>2021-07-29T12:32:38Z</time>
      </trkpt>
      <trkpt lat="48.82409" lon="6.09513">
        <ele>184.2</ele>
        <time>2021-07-29T12:32:40Z</time>
      </trkpt>
      <trkpt lat="48.82409" lon="6.09519">
        <ele>184.2</ele>
        <time>2021-07-29T12:32:41Z</time>
      </trkpt>
      <trkpt lat="48.82409" lon="6.09523">
        <ele>184.3</ele>
        <time>2021-07-29T12:32:42Z</time>
      </trkpt>
      <trkpt lat="48.82409" lon="6.09528">
        <ele>184.3</ele>
        <time>2021-07-29T12:32:43Z</time>
      </trkpt>
      <trkpt lat="48.82409" lon="6.09533">
        <ele>184.3</ele>
        <time>2021-07-29T12:32:45Z</time>
      </trkpt>
      <trkpt lat="48.82409" lon="6.09537">
        <ele>184.3</ele>
        <time>2021-07-29T12:32:46Z</time>
      </trkpt>
      <trkpt lat="48.82409" lon="6.09541">
        <ele>184.3</ele>
        <time>2021-07-29T12:32:48Z</time>
      </trkpt>
      <trkpt lat="48.82408" lon="6.09545">
        <ele>184.4</ele>
        <time>2021-07-29T12:32:49Z</time>
      </trkpt>
      <trkpt lat="48.82408" lon="6.09547">
        <ele>184.4</ele>
        <time>2021-07-29T12:32:50Z</time>
      </trkpt>
      <trkpt lat="48.82409" lon="6.09553">
        <ele>184.4</ele>
        <time>2021-07-29T12:32:51Z</time>
      </trkpt>
      <trkpt lat="48.82409" lon="6.09558">
        <ele>184.5</ele>
        <time>2021-07-29T12:32:52Z</time>
      </trkpt>
      <trkpt lat="48.8241" lon="6.09563">
        <ele>184.5</ele>
        <time>2021-07-29T12:32:54Z</time>
      </trkpt>
      <trkpt lat="48.8241" lon="6.09567">
        <ele>184.5</ele>
        <time>2021-07-29T12:32:55Z</time>
      </trkpt>
      <trkpt lat="48.82411" lon="6.09571">
        <ele>184.6</ele>
        <time>2021-07-29T12:32:56Z</time>
      </trkpt>
      <trkpt lat="48.82413" lon="6.09581">
        <ele>184.6</ele>
        <time>2021-07-29T12:32:58Z</time>
      </trkpt>
      <trkpt lat="48.82414" lon="6.09586">
        <ele>184.6</ele>
        <time>2021-07-29T12:32:59Z</time>
      </trkpt>
      <trkpt lat="48.82419" lon="6.09598">
        <ele>184.7</ele>
        <time>2021-07-29T12:33:01Z</time>
      </trkpt>
      <trkpt lat="48.82422" lon="6.09604">
        <ele>184.7</ele>
        <time>2021-07-29T12:33:02Z</time>
      </trkpt>
      <trkpt lat="48.8243" lon="6.09618">
        <ele>184.6</ele>
        <time>2021-07-29T12:33:04Z</time>
      </trkpt>
      <trkpt lat="48.82434" lon="6.09625">
        <ele>184.6</ele>
        <time>2021-07-29T12:33:05Z</time>
      </trkpt>
      <trkpt lat="48.82439" lon="6.09636">
        <ele>184.5</ele>
        <time>2021-07-29T12:33:07Z</time>
      </trkpt>
      <trkpt lat="48.82442" lon="6.09641">
        <ele>184.5</ele>
        <time>2021-07-29T12:33:08Z</time>
      </trkpt>
      <trkpt lat="48.82445" lon="6.09652">
        <ele>184.3</ele>
        <time>2021-07-29T12:33:10Z</time>
      </trkpt>
      <trkpt lat="48.82447" lon="6.09659">
        <ele>184.3</ele>
        <time>2021-07-29T12:33:11Z</time>
      </trkpt>
      <trkpt lat="48.82448" lon="6.09664">
        <ele>184.2</ele>
        <time>2021-07-29T12:33:12Z</time>
      </trkpt>
      <trkpt lat="48.82451" lon="6.09678">
        <ele>184.1</ele>
        <time>2021-07-29T12:33:14Z</time>
      </trkpt>
      <trkpt lat="48.82454" lon="6.09688">
        <ele>184</ele>
        <time>2021-07-29T12:33:16Z</time>
      </trkpt>
      <trkpt lat="48.82455" lon="6.09692">
        <ele>184</ele>
        <time>2021-07-29T12:33:17Z</time>
      </trkpt>
      <trkpt lat="48.82457" lon="6.09697">
        <ele>184</ele>
        <time>2021-07-29T12:33:18Z</time>
      </trkpt>
      <trkpt lat="48.82461" lon="6.09705">
        <ele>183.9</ele>
        <time>2021-07-29T12:33:20Z</time>
      </trkpt>
      <trkpt lat="48.82463" lon="6.09713">
        <ele>183.8</ele>
        <time>2021-07-29T12:33:22Z</time>
      </trkpt>
      <trkpt lat="48.82465" lon="6.09718">
        <ele>183.8</ele>
        <time>2021-07-29T12:33:23Z</time>
      </trkpt>
      <trkpt lat="48.82466" lon="6.09723">
        <ele>183.8</ele>
        <time>2021-07-29T12:33:24Z</time>
      </trkpt>
      <trkpt lat="48.82469" lon="6.09734">
        <ele>183.7</ele>
        <time>2021-07-29T12:33:26Z</time>
      </trkpt>
      <trkpt lat="48.82472" lon="6.09745">
        <ele>183.6</ele>
        <time>2021-07-29T12:33:28Z</time>
      </trkpt>
      <trkpt lat="48.82474" lon="6.09751">
        <ele>183.5</ele>
        <time>2021-07-29T12:33:30Z</time>
      </trkpt>
      <trkpt lat="48.82475" lon="6.09756">
        <ele>183.5</ele>
        <time>2021-07-29T12:33:31Z</time>
      </trkpt>
      <trkpt lat="48.82476" lon="6.0976">
        <ele>183.5</ele>
        <time>2021-07-29T12:33:32Z</time>
      </trkpt>
      <trkpt lat="48.82478" lon="6.09766">
        <ele>183.5</ele>
        <time>2021-07-29T12:33:33Z</time>
      </trkpt>
      <trkpt lat="48.82481" lon="6.09775">
        <ele>183.5</ele>
        <time>2021-07-29T12:33:35Z</time>
      </trkpt>
      <trkpt lat="48.82482" lon="6.09781">
        <ele>183.5</ele>
        <time>2021-07-29T12:33:36Z</time>
      </trkpt>
      <trkpt lat="48.82483" lon="6.09787">
        <ele>183.5</ele>
        <time>2021-07-29T12:33:37Z</time>
      </trkpt>
      <trkpt lat="48.82485" lon="6.09791">
        <ele>183.5</ele>
        <time>2021-07-29T12:33:38Z</time>
      </trkpt>
      <trkpt lat="48.82486" lon="6.09797">
        <ele>183.5</ele>
        <time>2021-07-29T12:33:39Z</time>
      </trkpt>
      <trkpt lat="48.82487" lon="6.09802">
        <ele>183.5</ele>
        <time>2021-07-29T12:33:40Z</time>
      </trkpt>
      <trkpt lat="48.82488" lon="6.09807">
        <ele>183.5</ele>
        <time>2021-07-29T12:33:41Z</time>
      </trkpt>
      <trkpt lat="48.8249" lon="6.09816">
        <ele>183.5</ele>
        <time>2021-07-29T12:33:43Z</time>
      </trkpt>
      <trkpt lat="48.82496" lon="6.09828">
        <ele>183.4</ele>
        <time>2021-07-29T12:33:44Z</time>
      </trkpt>
      <trkpt lat="48.82497" lon="6.09836">
        <ele>183.4</ele>
        <time>2021-07-29T12:33:45Z</time>
      </trkpt>
      <trkpt lat="48.82495" lon="6.09851">
        <ele>183.4</ele>
        <time>2021-07-29T12:33:47Z</time>
      </trkpt>
      <trkpt lat="48.82496" lon="6.09858">
        <ele>183.4</ele>
        <time>2021-07-29T12:33:48Z</time>
      </trkpt>
      <trkpt lat="48.82496" lon="6.09863">
        <ele>183.4</ele>
        <time>2021-07-29T12:33:49Z</time>
      </trkpt>
      <trkpt lat="48.82496" lon="6.09869">
        <ele>183.4</ele>
        <time>2021-07-29T12:33:50Z</time>
      </trkpt>
      <trkpt lat="48.82497" lon="6.09873">
        <ele>183.4</ele>
        <time>2021-07-29T12:33:51Z</time>
      </trkpt>
      <trkpt lat="48.82497" lon="6.09882">
        <ele>183.4</ele>
        <time>2021-07-29T12:33:53Z</time>
      </trkpt>
      <trkpt lat="48.82499" lon="6.09889">
        <ele>183.4</ele>
        <time>2021-07-29T12:33:54Z</time>
      </trkpt>
      <trkpt lat="48.82504" lon="6.09903">
        <ele>183.5</ele>
        <time>2021-07-29T12:33:56Z</time>
      </trkpt>
      <trkpt lat="48.82502" lon="6.09909">
        <ele>183.5</ele>
        <time>2021-07-29T12:33:57Z</time>
      </trkpt>
      <trkpt lat="48.82501" lon="6.09914">
        <ele>183.5</ele>
        <time>2021-07-29T12:33:58Z</time>
      </trkpt>
      <trkpt lat="48.82501" lon="6.09921">
        <ele>183.6</ele>
        <time>2021-07-29T12:33:59Z</time>
      </trkpt>
      <trkpt lat="48.82501" lon="6.09925">
        <ele>183.6</ele>
        <time>2021-07-29T12:34:00Z</time>
      </trkpt>
      <trkpt lat="48.82504" lon="6.09933">
        <ele>183.7</ele>
        <time>2021-07-29T12:34:02Z</time>
      </trkpt>
      <trkpt lat="48.82506" lon="6.09938">
        <ele>183.8</ele>
        <time>2021-07-29T12:34:03Z</time>
      </trkpt>
      <trkpt lat="48.8251" lon="6.09944">
        <ele>183.9</ele>
        <time>2021-07-29T12:34:05Z</time>
      </trkpt>
      <trkpt lat="48.82513" lon="6.09947">
        <ele>183.9</ele>
        <time>2021-07-29T12:34:06Z</time>
      </trkpt>
      <trkpt lat="48.82516" lon="6.09951">
        <ele>184</ele>
        <time>2021-07-29T12:34:07Z</time>
      </trkpt>
      <trkpt lat="48.82517" lon="6.09955">
        <ele>184</ele>
        <time>2021-07-29T12:34:08Z</time>
      </trkpt>
      <trkpt lat="48.82518" lon="6.09961">
        <ele>184.1</ele>
        <time>2021-07-29T12:34:10Z</time>
      </trkpt>
      <trkpt lat="48.82518" lon="6.09968">
        <ele>184.2</ele>
        <time>2021-07-29T12:34:11Z</time>
      </trkpt>
      <trkpt lat="48.82519" lon="6.09974">
        <ele>184.3</ele>
        <time>2021-07-29T12:34:12Z</time>
      </trkpt>
      <trkpt lat="48.82517" lon="6.09979">
        <ele>184.3</ele>
        <time>2021-07-29T12:34:13Z</time>
      </trkpt>
      <trkpt lat="48.82516" lon="6.09984">
        <ele>184.4</ele>
        <time>2021-07-29T12:34:15Z</time>
      </trkpt>
      <trkpt lat="48.82514" lon="6.09989">
        <ele>184.4</ele>
        <time>2021-07-29T12:34:16Z</time>
      </trkpt>
      <trkpt lat="48.82512" lon="6.09995">
        <ele>184.4</ele>
        <time>2021-07-29T12:34:17Z</time>
      </trkpt>
      <trkpt lat="48.82509" lon="6.10002">
        <ele>184.5</ele>
        <time>2021-07-29T12:34:18Z</time>
      </trkpt>
      <trkpt lat="48.82504" lon="6.1001">
        <ele>184.5</ele>
        <time>2021-07-29T12:34:19Z</time>
      </trkpt>
      <trkpt lat="48.82501" lon="6.10015">
        <ele>184.5</ele>
        <time>2021-07-29T12:34:20Z</time>
      </trkpt>
      <trkpt lat="48.82495" lon="6.10026">
        <ele>184.6</ele>
        <time>2021-07-29T12:34:22Z</time>
      </trkpt>
      <trkpt lat="48.82493" lon="6.10034">
        <ele>184.6</ele>
        <time>2021-07-29T12:34:23Z</time>
      </trkpt>
      <trkpt lat="48.82489" lon="6.10043">
        <ele>184.6</ele>
        <time>2021-07-29T12:34:25Z</time>
      </trkpt>
      <trkpt lat="48.82487" lon="6.1005">
        <ele>184.5</ele>
        <time>2021-07-29T12:34:26Z</time>
      </trkpt>
      <trkpt lat="48.82484" lon="6.10073">
        <ele>184.3</ele>
        <time>2021-07-29T12:34:28Z</time>
      </trkpt>
      <trkpt lat="48.82487" lon="6.1008">
        <ele>184.3</ele>
        <time>2021-07-29T12:34:29Z</time>
      </trkpt>
      <trkpt lat="48.82488" lon="6.10085">
        <ele>184.3</ele>
        <time>2021-07-29T12:34:31Z</time>
      </trkpt>
      <trkpt lat="48.82489" lon="6.10088">
        <ele>184.3</ele>
        <time>2021-07-29T12:34:32Z</time>
      </trkpt>
      <trkpt lat="48.82493" lon="6.10102">
        <ele>184.2</ele>
        <time>2021-07-29T12:34:34Z</time>
      </trkpt>
      <trkpt lat="48.82496" lon="6.10115">
        <ele>184.2</ele>
        <time>2021-07-29T12:34:36Z</time>
      </trkpt>
      <trkpt lat="48.825" lon="6.10127">
        <ele>184.2</ele>
        <time>2021-07-29T12:34:38Z</time>
      </trkpt>
      <trkpt lat="48.82502" lon="6.10135">
        <ele>184.1</ele>
        <time>2021-07-29T12:34:40Z</time>
      </trkpt>
      <trkpt lat="48.82504" lon="6.10138">
        <ele>184.1</ele>
        <time>2021-07-29T12:34:41Z</time>
      </trkpt>
      <trkpt lat="48.82505" lon="6.10139">
        <ele>184.1</ele>
        <time>2021-07-29T12:34:42Z</time>
      </trkpt>
      <trkpt lat="48.82508" lon="6.1014">
        <ele>184.1</ele>
        <time>2021-07-29T12:34:44Z</time>
      </trkpt>
      <trkpt lat="48.82508" lon="6.1014">
        <ele>184.1</ele>
        <time>2021-07-29T12:34:45Z</time>
      </trkpt>
      <trkpt lat="48.82509" lon="6.1014">
        <ele>184.1</ele>
        <time>2021-07-29T12:34:47Z</time>
      </trkpt>
      <trkpt lat="48.82509" lon="6.1014">
        <ele>184.1</ele>
        <time>2021-07-29T12:34:48Z</time>
      </trkpt>
      <trkpt lat="48.82508" lon="6.10141">
        <ele>184.1</ele>
        <time>2021-07-29T12:34:49Z</time>
      </trkpt>
      <trkpt lat="48.82508" lon="6.10141">
        <ele>184.1</ele>
        <time>2021-07-29T12:34:51Z</time>
      </trkpt>
      <trkpt lat="48.82507" lon="6.10154">
        <ele>184.2</ele>
        <time>2021-07-29T12:34:57Z</time>
      </trkpt>
      <trkpt lat="48.82506" lon="6.10166">
        <ele>184.2</ele>
        <time>2021-07-29T12:34:59Z</time>
      </trkpt>
      <trkpt lat="48.82507" lon="6.10184">
        <ele>184.3</ele>
        <time>2021-07-29T12:35:00Z</time>
      </trkpt>
      <trkpt lat="48.82505" lon="6.1019">
        <ele>184.3</ele>
        <time>2021-07-29T12:35:02Z</time>
      </trkpt>
      <trkpt lat="48.82505" lon="6.102">
        <ele>184.4</ele>
        <time>2021-07-29T12:35:03Z</time>
      </trkpt>
      <trkpt lat="48.82505" lon="6.10215">
        <ele>184.4</ele>
        <time>2021-07-29T12:35:04Z</time>
      </trkpt>
      <trkpt lat="48.82506" lon="6.10224">
        <ele>184.4</ele>
        <time>2021-07-29T12:35:05Z</time>
      </trkpt>
      <trkpt lat="48.82506" lon="6.10232">
        <ele>184.4</ele>
        <time>2021-07-29T12:35:07Z</time>
      </trkpt>
      <trkpt lat="48.82505" lon="6.10246">
        <ele>184.4</ele>
        <time>2021-07-29T12:35:08Z</time>
      </trkpt>
      <trkpt lat="48.82503" lon="6.1026">
        <ele>184.3</ele>
        <time>2021-07-29T12:35:10Z</time>
      </trkpt>
      <trkpt lat="48.825" lon="6.10274">
        <ele>184.2</ele>
        <time>2021-07-29T12:35:12Z</time>
      </trkpt>
      <trkpt lat="48.82499" lon="6.10289">
        <ele>184.1</ele>
        <time>2021-07-29T12:35:14Z</time>
      </trkpt>
      <trkpt lat="48.82499" lon="6.10306">
        <ele>184</ele>
        <time>2021-07-29T12:35:16Z</time>
      </trkpt>
      <trkpt lat="48.82499" lon="6.10322">
        <ele>184</ele>
        <time>2021-07-29T12:35:18Z</time>
      </trkpt>
      <trkpt lat="48.82499" lon="6.1033">
        <ele>184</ele>
        <time>2021-07-29T12:35:19Z</time>
      </trkpt>
      <trkpt lat="48.82498" lon="6.10338">
        <ele>183.9</ele>
        <time>2021-07-29T12:35:20Z</time>
      </trkpt>
      <trkpt lat="48.82497" lon="6.10354">
        <ele>183.9</ele>
        <time>2021-07-29T12:35:22Z</time>
      </trkpt>
      <trkpt lat="48.82497" lon="6.10362">
        <ele>183.9</ele>
        <time>2021-07-29T12:35:23Z</time>
      </trkpt>
      <trkpt lat="48.82497" lon="6.10369">
        <ele>183.9</ele>
        <time>2021-07-29T12:35:24Z</time>
      </trkpt>
      <trkpt lat="48.82496" lon="6.10385">
        <ele>183.9</ele>
        <time>2021-07-29T12:35:26Z</time>
      </trkpt>
      <trkpt lat="48.82494" lon="6.10402">
        <ele>183.8</ele>
        <time>2021-07-29T12:35:28Z</time>
      </trkpt>
      <trkpt lat="48.82492" lon="6.10411">
        <ele>183.8</ele>
        <time>2021-07-29T12:35:29Z</time>
      </trkpt>
      <trkpt lat="48.82491" lon="6.10419">
        <ele>183.8</ele>
        <time>2021-07-29T12:35:30Z</time>
      </trkpt>
      <trkpt lat="48.8249" lon="6.10427">
        <ele>183.8</ele>
        <time>2021-07-29T12:35:31Z</time>
      </trkpt>
      <trkpt lat="48.82488" lon="6.10436">
        <ele>183.8</ele>
        <time>2021-07-29T12:35:32Z</time>
      </trkpt>
      <trkpt lat="48.82486" lon="6.10452">
        <ele>183.8</ele>
        <time>2021-07-29T12:35:34Z</time>
      </trkpt>
      <trkpt lat="48.82485" lon="6.1046">
        <ele>183.9</ele>
        <time>2021-07-29T12:35:35Z</time>
      </trkpt>
      <trkpt lat="48.82482" lon="6.10475">
        <ele>183.9</ele>
        <time>2021-07-29T12:35:37Z</time>
      </trkpt>
      <trkpt lat="48.82482" lon="6.10482">
        <ele>183.9</ele>
        <time>2021-07-29T12:35:38Z</time>
      </trkpt>
      <trkpt lat="48.82481" lon="6.10489">
        <ele>183.9</ele>
        <time>2021-07-29T12:35:39Z</time>
      </trkpt>
      <trkpt lat="48.82478" lon="6.10502">
        <ele>183.8</ele>
        <time>2021-07-29T12:35:41Z</time>
      </trkpt>
      <trkpt lat="48.82477" lon="6.10509">
        <ele>183.8</ele>
        <time>2021-07-29T12:35:42Z</time>
      </trkpt>
      <trkpt lat="48.82475" lon="6.10524">
        <ele>183.8</ele>
        <time>2021-07-29T12:35:44Z</time>
      </trkpt>
      <trkpt lat="48.82474" lon="6.10538">
        <ele>183.7</ele>
        <time>2021-07-29T12:35:46Z</time>
      </trkpt>
      <trkpt lat="48.82472" lon="6.10546">
        <ele>183.7</ele>
        <time>2021-07-29T12:35:47Z</time>
      </trkpt>
      <trkpt lat="48.82469" lon="6.10561">
        <ele>183.6</ele>
        <time>2021-07-29T12:35:49Z</time>
      </trkpt>
      <trkpt lat="48.82468" lon="6.10568">
        <ele>183.6</ele>
        <time>2021-07-29T12:35:50Z</time>
      </trkpt>
      <trkpt lat="48.82465" lon="6.10582">
        <ele>183.6</ele>
        <time>2021-07-29T12:35:52Z</time>
      </trkpt>
      <trkpt lat="48.82464" lon="6.10589">
        <ele>183.5</ele>
        <time>2021-07-29T12:35:53Z</time>
      </trkpt>
      <trkpt lat="48.82463" lon="6.10595">
        <ele>183.5</ele>
        <time>2021-07-29T12:35:54Z</time>
      </trkpt>
      <trkpt lat="48.8246" lon="6.10607">
        <ele>183.5</ele>
        <time>2021-07-29T12:35:56Z</time>
      </trkpt>
      <trkpt lat="48.82457" lon="6.1062">
        <ele>183.6</ele>
        <time>2021-07-29T12:35:58Z</time>
      </trkpt>
      <trkpt lat="48.82455" lon="6.10627">
        <ele>183.6</ele>
        <time>2021-07-29T12:35:59Z</time>
      </trkpt>
      <trkpt lat="48.82453" lon="6.10634">
        <ele>183.6</ele>
        <time>2021-07-29T12:36:00Z</time>
      </trkpt>
      <trkpt lat="48.82451" lon="6.10643">
        <ele>183.6</ele>
        <time>2021-07-29T12:36:01Z</time>
      </trkpt>
      <trkpt lat="48.82447" lon="6.10652">
        <ele>183.6</ele>
        <time>2021-07-29T12:36:03Z</time>
      </trkpt>
      <trkpt lat="48.82445" lon="6.10658">
        <ele>183.6</ele>
        <time>2021-07-29T12:36:04Z</time>
      </trkpt>
      <trkpt lat="48.82444" lon="6.10669">
        <ele>183.7</ele>
        <time>2021-07-29T12:36:05Z</time>
      </trkpt>
      <trkpt lat="48.82444" lon="6.10679">
        <ele>183.7</ele>
        <time>2021-07-29T12:36:07Z</time>
      </trkpt>
      <trkpt lat="48.82443" lon="6.10685">
        <ele>183.7</ele>
        <time>2021-07-29T12:36:08Z</time>
      </trkpt>
      <trkpt lat="48.82441" lon="6.10691">
        <ele>183.7</ele>
        <time>2021-07-29T12:36:09Z</time>
      </trkpt>
      <trkpt lat="48.82439" lon="6.107">
        <ele>183.7</ele>
        <time>2021-07-29T12:36:11Z</time>
      </trkpt>
      <trkpt lat="48.82437" lon="6.10705">
        <ele>183.7</ele>
        <time>2021-07-29T12:36:12Z</time>
      </trkpt>
      <trkpt lat="48.82435" lon="6.10712">
        <ele>183.7</ele>
        <time>2021-07-29T12:36:13Z</time>
      </trkpt>
      <trkpt lat="48.82433" lon="6.10718">
        <ele>183.8</ele>
        <time>2021-07-29T12:36:14Z</time>
      </trkpt>
      <trkpt lat="48.8243" lon="6.10728">
        <ele>183.8</ele>
        <time>2021-07-29T12:36:16Z</time>
      </trkpt>
      <trkpt lat="48.82428" lon="6.10735">
        <ele>183.8</ele>
        <time>2021-07-29T12:36:17Z</time>
      </trkpt>
      <trkpt lat="48.82426" lon="6.10741">
        <ele>183.8</ele>
        <time>2021-07-29T12:36:18Z</time>
      </trkpt>
      <trkpt lat="48.82424" lon="6.10747">
        <ele>183.8</ele>
        <time>2021-07-29T12:36:19Z</time>
      </trkpt>
      <trkpt lat="48.82423" lon="6.10753">
        <ele>183.8</ele>
        <time>2021-07-29T12:36:20Z</time>
      </trkpt>
      <trkpt lat="48.82422" lon="6.1076">
        <ele>183.8</ele>
        <time>2021-07-29T12:36:21Z</time>
      </trkpt>
      <trkpt lat="48.82421" lon="6.10766">
        <ele>183.8</ele>
        <time>2021-07-29T12:36:22Z</time>
      </trkpt>
      <trkpt lat="48.82418" lon="6.10779">
        <ele>183.8</ele>
        <time>2021-07-29T12:36:24Z</time>
      </trkpt>
      <trkpt lat="48.82415" lon="6.10786">
        <ele>183.8</ele>
        <time>2021-07-29T12:36:25Z</time>
      </trkpt>
      <trkpt lat="48.82414" lon="6.10792">
        <ele>183.9</ele>
        <time>2021-07-29T12:36:26Z</time>
      </trkpt>
      <trkpt lat="48.82413" lon="6.10798">
        <ele>183.9</ele>
        <time>2021-07-29T12:36:27Z</time>
      </trkpt>
      <trkpt lat="48.82411" lon="6.10805">
        <ele>183.9</ele>
        <time>2021-07-29T12:36:28Z</time>
      </trkpt>
      <trkpt lat="48.8241" lon="6.10811">
        <ele>183.9</ele>
        <time>2021-07-29T12:36:29Z</time>
      </trkpt>
      <trkpt lat="48.82408" lon="6.10817">
        <ele>183.9</ele>
        <time>2021-07-29T12:36:30Z</time>
      </trkpt>
      <trkpt lat="48.82406" lon="6.10822">
        <ele>184</ele>
        <time>2021-07-29T12:36:31Z</time>
      </trkpt>
      <trkpt lat="48.82405" lon="6.10828">
        <ele>184</ele>
        <time>2021-07-29T12:36:32Z</time>
      </trkpt>
      <trkpt lat="48.82403" lon="6.10835">
        <ele>184</ele>
        <time>2021-07-29T12:36:33Z</time>
      </trkpt>
      <trkpt lat="48.82401" lon="6.10841">
        <ele>184.1</ele>
        <time>2021-07-29T12:36:34Z</time>
      </trkpt>
      <trkpt lat="48.82399" lon="6.10846">
        <ele>184.1</ele>
        <time>2021-07-29T12:36:35Z</time>
      </trkpt>
      <trkpt lat="48.82398" lon="6.10851">
        <ele>184.1</ele>
        <time>2021-07-29T12:36:37Z</time>
      </trkpt>
      <trkpt lat="48.82396" lon="6.10855">
        <ele>184.1</ele>
        <time>2021-07-29T12:36:38Z</time>
      </trkpt>
      <trkpt lat="48.82393" lon="6.10859">
        <ele>184.1</ele>
        <time>2021-07-29T12:36:39Z</time>
      </trkpt>
      <trkpt lat="48.82391" lon="6.10862">
        <ele>184.1</ele>
        <time>2021-07-29T12:36:40Z</time>
      </trkpt>
      <trkpt lat="48.82389" lon="6.10866">
        <ele>184.2</ele>
        <time>2021-07-29T12:36:41Z</time>
      </trkpt>
      <trkpt lat="48.82387" lon="6.1087">
        <ele>184.2</ele>
        <time>2021-07-29T12:36:42Z</time>
      </trkpt>
      <trkpt lat="48.82386" lon="6.10874">
        <ele>184.2</ele>
        <time>2021-07-29T12:36:43Z</time>
      </trkpt>
      <trkpt lat="48.82385" lon="6.10879">
        <ele>184.2</ele>
        <time>2021-07-29T12:36:44Z</time>
      </trkpt>
      <trkpt lat="48.82383" lon="6.10883">
        <ele>184.2</ele>
        <time>2021-07-29T12:36:45Z</time>
      </trkpt>
      <trkpt lat="48.82381" lon="6.10889">
        <ele>184.1</ele>
        <time>2021-07-29T12:36:46Z</time>
      </trkpt>
      <trkpt lat="48.82379" lon="6.10895">
        <ele>184.1</ele>
        <time>2021-07-29T12:36:47Z</time>
      </trkpt>
      <trkpt lat="48.82378" lon="6.10901">
        <ele>184.1</ele>
        <time>2021-07-29T12:36:48Z</time>
      </trkpt>
      <trkpt lat="48.82376" lon="6.10908">
        <ele>184.1</ele>
        <time>2021-07-29T12:36:49Z</time>
      </trkpt>
      <trkpt lat="48.82375" lon="6.10915">
        <ele>184</ele>
        <time>2021-07-29T12:36:50Z</time>
      </trkpt>
      <trkpt lat="48.82373" lon="6.10922">
        <ele>184</ele>
        <time>2021-07-29T12:36:51Z</time>
      </trkpt>
      <trkpt lat="48.82371" lon="6.10929">
        <ele>184</ele>
        <time>2021-07-29T12:36:52Z</time>
      </trkpt>
      <trkpt lat="48.8237" lon="6.10936">
        <ele>184</ele>
        <time>2021-07-29T12:36:53Z</time>
      </trkpt>
      <trkpt lat="48.82369" lon="6.10943">
        <ele>184</ele>
        <time>2021-07-29T12:36:55Z</time>
      </trkpt>
      <trkpt lat="48.82368" lon="6.10951">
        <ele>184</ele>
        <time>2021-07-29T12:36:56Z</time>
      </trkpt>
      <trkpt lat="48.82366" lon="6.10959">
        <ele>184</ele>
        <time>2021-07-29T12:36:57Z</time>
      </trkpt>
      <trkpt lat="48.82365" lon="6.10966">
        <ele>184</ele>
        <time>2021-07-29T12:36:58Z</time>
      </trkpt>
      <trkpt lat="48.8236" lon="6.10985">
        <ele>183.9</ele>
        <time>2021-07-29T12:37:00Z</time>
      </trkpt>
      <trkpt lat="48.82357" lon="6.11">
        <ele>183.9</ele>
        <time>2021-07-29T12:37:02Z</time>
      </trkpt>
      <trkpt lat="48.82357" lon="6.11006">
        <ele>183.9</ele>
        <time>2021-07-29T12:37:03Z</time>
      </trkpt>
      <trkpt lat="48.82357" lon="6.11012">
        <ele>183.9</ele>
        <time>2021-07-29T12:37:04Z</time>
      </trkpt>
      <trkpt lat="48.82355" lon="6.11022">
        <ele>183.8</ele>
        <time>2021-07-29T12:37:06Z</time>
      </trkpt>
      <trkpt lat="48.82353" lon="6.11028">
        <ele>183.8</ele>
        <time>2021-07-29T12:37:07Z</time>
      </trkpt>
      <trkpt lat="48.82349" lon="6.11035">
        <ele>183.8</ele>
        <time>2021-07-29T12:37:08Z</time>
      </trkpt>
      <trkpt lat="48.82348" lon="6.11044">
        <ele>183.8</ele>
        <time>2021-07-29T12:37:09Z</time>
      </trkpt>
      <trkpt lat="48.82351" lon="6.11048">
        <ele>183.8</ele>
        <time>2021-07-29T12:37:11Z</time>
      </trkpt>
      <trkpt lat="48.82345" lon="6.11061">
        <ele>183.8</ele>
        <time>2021-07-29T12:37:13Z</time>
      </trkpt>
      <trkpt lat="48.82342" lon="6.11067">
        <ele>183.8</ele>
        <time>2021-07-29T12:37:14Z</time>
      </trkpt>
      <trkpt lat="48.82335" lon="6.11078">
        <ele>183.8</ele>
        <time>2021-07-29T12:37:16Z</time>
      </trkpt>
      <trkpt lat="48.82332" lon="6.11084">
        <ele>183.8</ele>
        <time>2021-07-29T12:37:17Z</time>
      </trkpt>
      <trkpt lat="48.82329" lon="6.1109">
        <ele>183.9</ele>
        <time>2021-07-29T12:37:18Z</time>
      </trkpt>
      <trkpt lat="48.82327" lon="6.11095">
        <ele>183.9</ele>
        <time>2021-07-29T12:37:19Z</time>
      </trkpt>
      <trkpt lat="48.82325" lon="6.111">
        <ele>183.9</ele>
        <time>2021-07-29T12:37:20Z</time>
      </trkpt>
      <trkpt lat="48.82323" lon="6.11107">
        <ele>183.9</ele>
        <time>2021-07-29T12:37:21Z</time>
      </trkpt>
      <trkpt lat="48.82321" lon="6.11113">
        <ele>184</ele>
        <time>2021-07-29T12:37:22Z</time>
      </trkpt>
      <trkpt lat="48.8232" lon="6.11119">
        <ele>184</ele>
        <time>2021-07-29T12:37:23Z</time>
      </trkpt>
      <trkpt lat="48.82319" lon="6.11125">
        <ele>184.1</ele>
        <time>2021-07-29T12:37:24Z</time>
      </trkpt>
      <trkpt lat="48.82318" lon="6.11132">
        <ele>184.1</ele>
        <time>2021-07-29T12:37:25Z</time>
      </trkpt>
      <trkpt lat="48.82316" lon="6.11138">
        <ele>184.2</ele>
        <time>2021-07-29T12:37:26Z</time>
      </trkpt>
      <trkpt lat="48.82314" lon="6.11145">
        <ele>184.2</ele>
        <time>2021-07-29T12:37:28Z</time>
      </trkpt>
      <trkpt lat="48.82313" lon="6.11153">
        <ele>184.3</ele>
        <time>2021-07-29T12:37:29Z</time>
      </trkpt>
      <trkpt lat="48.82311" lon="6.11159">
        <ele>184.3</ele>
        <time>2021-07-29T12:37:30Z</time>
      </trkpt>
      <trkpt lat="48.8231" lon="6.11165">
        <ele>184.4</ele>
        <time>2021-07-29T12:37:31Z</time>
      </trkpt>
      <trkpt lat="48.82309" lon="6.1117">
        <ele>184.4</ele>
        <time>2021-07-29T12:37:33Z</time>
      </trkpt>
      <trkpt lat="48.82308" lon="6.11174">
        <ele>184.4</ele>
        <time>2021-07-29T12:37:34Z</time>
      </trkpt>
      <trkpt lat="48.82308" lon="6.11179">
        <ele>184.5</ele>
        <time>2021-07-29T12:37:35Z</time>
      </trkpt>
      <trkpt lat="48.82305" lon="6.11188">
        <ele>184.5</ele>
        <time>2021-07-29T12:37:37Z</time>
      </trkpt>
      <trkpt lat="48.82304" lon="6.11192">
        <ele>184.5</ele>
        <time>2021-07-29T12:37:38Z</time>
      </trkpt>
      <trkpt lat="48.82303" lon="6.112">
        <ele>184.6</ele>
        <time>2021-07-29T12:37:40Z</time>
      </trkpt>
      <trkpt lat="48.82302" lon="6.11204">
        <ele>184.6</ele>
        <time>2021-07-29T12:37:41Z</time>
      </trkpt>
      <trkpt lat="48.823" lon="6.11213">
        <ele>184.6</ele>
        <time>2021-07-29T12:37:43Z</time>
      </trkpt>
      <trkpt lat="48.82299" lon="6.11218">
        <ele>184.6</ele>
        <time>2021-07-29T12:37:44Z</time>
      </trkpt>
      <trkpt lat="48.82297" lon="6.11228">
        <ele>184.6</ele>
        <time>2021-07-29T12:37:46Z</time>
      </trkpt>
      <trkpt lat="48.82295" lon="6.11233">
        <ele>184.6</ele>
        <time>2021-07-29T12:37:47Z</time>
      </trkpt>
      <trkpt lat="48.82291" lon="6.11245">
        <ele>184.5</ele>
        <time>2021-07-29T12:37:49Z</time>
      </trkpt>
      <trkpt lat="48.82289" lon="6.11251">
        <ele>184.4</ele>
        <time>2021-07-29T12:37:50Z</time>
      </trkpt>
      <trkpt lat="48.82286" lon="6.1126">
        <ele>184.4</ele>
        <time>2021-07-29T12:37:51Z</time>
      </trkpt>
      <trkpt lat="48.82282" lon="6.1127">
        <ele>184.3</ele>
        <time>2021-07-29T12:37:53Z</time>
      </trkpt>
      <trkpt lat="48.8228" lon="6.11276">
        <ele>184.2</ele>
        <time>2021-07-29T12:37:54Z</time>
      </trkpt>
      <trkpt lat="48.82276" lon="6.11286">
        <ele>184.2</ele>
        <time>2021-07-29T12:37:56Z</time>
      </trkpt>
      <trkpt lat="48.82274" lon="6.11292">
        <ele>184.1</ele>
        <time>2021-07-29T12:37:57Z</time>
      </trkpt>
      <trkpt lat="48.82267" lon="6.11308">
        <ele>184</ele>
        <time>2021-07-29T12:37:59Z</time>
      </trkpt>
      <trkpt lat="48.82262" lon="6.11321">
        <ele>184</ele>
        <time>2021-07-29T12:38:01Z</time>
      </trkpt>
      <trkpt lat="48.82259" lon="6.11327">
        <ele>184</ele>
        <time>2021-07-29T12:38:02Z</time>
      </trkpt>
      <trkpt lat="48.82253" lon="6.11337">
        <ele>184</ele>
        <time>2021-07-29T12:38:04Z</time>
      </trkpt>
      <trkpt lat="48.82251" lon="6.11344">
        <ele>184</ele>
        <time>2021-07-29T12:38:05Z</time>
      </trkpt>
      <trkpt lat="48.8225" lon="6.11353">
        <ele>184</ele>
        <time>2021-07-29T12:38:06Z</time>
      </trkpt>
      <trkpt lat="48.82247" lon="6.11359">
        <ele>184</ele>
        <time>2021-07-29T12:38:07Z</time>
      </trkpt>
      <trkpt lat="48.82245" lon="6.11363">
        <ele>184</ele>
        <time>2021-07-29T12:38:08Z</time>
      </trkpt>
      <trkpt lat="48.82239" lon="6.1137">
        <ele>184.1</ele>
        <time>2021-07-29T12:38:10Z</time>
      </trkpt>
      <trkpt lat="48.82237" lon="6.11373">
        <ele>184.1</ele>
        <time>2021-07-29T12:38:11Z</time>
      </trkpt>
      <trkpt lat="48.82234" lon="6.11377">
        <ele>184.1</ele>
        <time>2021-07-29T12:38:12Z</time>
      </trkpt>
      <trkpt lat="48.82233" lon="6.11379">
        <ele>184.1</ele>
        <time>2021-07-29T12:38:13Z</time>
      </trkpt>
      <trkpt lat="48.8223" lon="6.11386">
        <ele>184.2</ele>
        <time>2021-07-29T12:38:15Z</time>
      </trkpt>
      <trkpt lat="48.82228" lon="6.1139">
        <ele>184.2</ele>
        <time>2021-07-29T12:38:16Z</time>
      </trkpt>
      <trkpt lat="48.82225" lon="6.11394">
        <ele>184.2</ele>
        <time>2021-07-29T12:38:17Z</time>
      </trkpt>
      <trkpt lat="48.82221" lon="6.11403">
        <ele>184.3</ele>
        <time>2021-07-29T12:38:19Z</time>
      </trkpt>
      <trkpt lat="48.82218" lon="6.11407">
        <ele>184.3</ele>
        <time>2021-07-29T12:38:20Z</time>
      </trkpt>
      <trkpt lat="48.82214" lon="6.11413">
        <ele>184.4</ele>
        <time>2021-07-29T12:38:21Z</time>
      </trkpt>
      <trkpt lat="48.82212" lon="6.11419">
        <ele>184.4</ele>
        <time>2021-07-29T12:38:23Z</time>
      </trkpt>
      <trkpt lat="48.8221" lon="6.11424">
        <ele>184.4</ele>
        <time>2021-07-29T12:38:24Z</time>
      </trkpt>
      <trkpt lat="48.82208" lon="6.11427">
        <ele>184.4</ele>
        <time>2021-07-29T12:38:26Z</time>
      </trkpt>
      <trkpt lat="48.82205" lon="6.11431">
        <ele>184.5</ele>
        <time>2021-07-29T12:38:27Z</time>
      </trkpt>
      <trkpt lat="48.82203" lon="6.11434">
        <ele>184.5</ele>
        <time>2021-07-29T12:38:29Z</time>
      </trkpt>
      <trkpt lat="48.82202" lon="6.11435">
        <ele>184.5</ele>
        <time>2021-07-29T12:38:30Z</time>
      </trkpt>
      <trkpt lat="48.82201" lon="6.11438">
        <ele>184.5</ele>
        <time>2021-07-29T12:38:32Z</time>
      </trkpt>
      <trkpt lat="48.82199" lon="6.11442">
        <ele>184.5</ele>
        <time>2021-07-29T12:38:34Z</time>
      </trkpt>
      <trkpt lat="48.82198" lon="6.11446">
        <ele>184.5</ele>
        <time>2021-07-29T12:38:35Z</time>
      </trkpt>
      <trkpt lat="48.82198" lon="6.11447">
        <ele>184.6</ele>
        <time>2021-07-29T12:38:36Z</time>
      </trkpt>
      <trkpt lat="48.82195" lon="6.11452">
        <ele>184.6</ele>
        <time>2021-07-29T12:38:37Z</time>
      </trkpt>
      <trkpt lat="48.82195" lon="6.11454">
        <ele>184.6</ele>
        <time>2021-07-29T12:38:38Z</time>
      </trkpt>
      <trkpt lat="48.8219" lon="6.11464">
        <ele>184.6</ele>
        <time>2021-07-29T12:38:40Z</time>
      </trkpt>
      <trkpt lat="48.82186" lon="6.1147">
        <ele>184.6</ele>
        <time>2021-07-29T12:38:41Z</time>
      </trkpt>
      <trkpt lat="48.82182" lon="6.11479">
        <ele>184.5</ele>
        <time>2021-07-29T12:38:43Z</time>
      </trkpt>
      <trkpt lat="48.8218" lon="6.11485">
        <ele>184.5</ele>
        <time>2021-07-29T12:38:44Z</time>
      </trkpt>
      <trkpt lat="48.82179" lon="6.11492">
        <ele>184.5</ele>
        <time>2021-07-29T12:38:45Z</time>
      </trkpt>
      <trkpt lat="48.82181" lon="6.11501">
        <ele>184.5</ele>
        <time>2021-07-29T12:38:47Z</time>
      </trkpt>
      <trkpt lat="48.82181" lon="6.11509">
        <ele>184.4</ele>
        <time>2021-07-29T12:38:49Z</time>
      </trkpt>
      <trkpt lat="48.82181" lon="6.11512">
        <ele>184.4</ele>
        <time>2021-07-29T12:38:50Z</time>
      </trkpt>
      <trkpt lat="48.82183" lon="6.11514">
        <ele>184.4</ele>
        <time>2021-07-29T12:38:52Z</time>
      </trkpt>
      <trkpt lat="48.82185" lon="6.11512">
        <ele>184.4</ele>
        <time>2021-07-29T12:38:53Z</time>
      </trkpt>
      <trkpt lat="48.82185" lon="6.1151">
        <ele>184.4</ele>
        <time>2021-07-29T12:38:55Z</time>
      </trkpt>
      <trkpt lat="48.82186" lon="6.11509">
        <ele>184.4</ele>
        <time>2021-07-29T12:38:56Z</time>
      </trkpt>
      <trkpt lat="48.82186" lon="6.11509">
        <ele>184.4</ele>
        <time>2021-07-29T12:38:57Z</time>
      </trkpt>
      <trkpt lat="48.82187" lon="6.11508">
        <ele>184.4</ele>
        <time>2021-07-29T12:38:59Z</time>
      </trkpt>
      <trkpt lat="48.82186" lon="6.11506">
        <ele>184.4</ele>
        <time>2021-07-29T12:39:00Z</time>
      </trkpt>
      <trkpt lat="48.82186" lon="6.11502">
        <ele>184.4</ele>
        <time>2021-07-29T12:39:02Z</time>
      </trkpt>
      <trkpt lat="48.82183" lon="6.11493">
        <ele>184.3</ele>
        <time>2021-07-29T12:39:07Z</time>
      </trkpt>
      <trkpt lat="48.82181" lon="6.11491">
        <ele>184.3</ele>
        <time>2021-07-29T12:39:08Z</time>
      </trkpt>
      <trkpt lat="48.82178" lon="6.1149">
        <ele>184.3</ele>
        <time>2021-07-29T12:39:10Z</time>
      </trkpt>
      <trkpt lat="48.82175" lon="6.11489">
        <ele>184.3</ele>
        <time>2021-07-29T12:39:12Z</time>
      </trkpt>
      <trkpt lat="48.82175" lon="6.11488">
        <ele>184.3</ele>
        <time>2021-07-29T12:39:13Z</time>
      </trkpt>
      <trkpt lat="48.82174" lon="6.11488">
        <ele>184.3</ele>
        <time>2021-07-29T12:39:15Z</time>
      </trkpt>
      <trkpt lat="48.82174" lon="6.11488">
        <ele>184.3</ele>
        <time>2021-07-29T12:39:16Z</time>
      </trkpt>
      <trkpt lat="48.82174" lon="6.11488">
        <ele>184.3</ele>
        <time>2021-07-29T12:39:18Z</time>
      </trkpt>
      <trkpt lat="48.82174" lon="6.11488">
        <ele>184.3</ele>
        <time>2021-07-29T12:39:19Z</time>
      </trkpt>
      <trkpt lat="48.82174" lon="6.11488">
        <ele>184.3</ele>
        <time>2021-07-29T12:39:21Z</time>
      </trkpt>
      <trkpt lat="48.82161" lon="6.11516">
        <ele>184.3</ele>
        <time>2021-07-29T12:40:13Z</time>
      </trkpt>
      <trkpt lat="48.82159" lon="6.11521">
        <ele>184.3</ele>
        <time>2021-07-29T12:40:14Z</time>
      </trkpt>
      <trkpt lat="48.82158" lon="6.11527">
        <ele>184.4</ele>
        <time>2021-07-29T12:40:16Z</time>
      </trkpt>
      <trkpt lat="48.82157" lon="6.11533">
        <ele>184.4</ele>
        <time>2021-07-29T12:40:17Z</time>
      </trkpt>
      <trkpt lat="48.82157" lon="6.11534">
        <ele>184.4</ele>
        <time>2021-07-29T12:40:18Z</time>
      </trkpt>
      <trkpt lat="48.82156" lon="6.11541">
        <ele>184.4</ele>
        <time>2021-07-29T12:40:19Z</time>
      </trkpt>
      <trkpt lat="48.82154" lon="6.11546">
        <ele>184.4</ele>
        <time>2021-07-29T12:40:21Z</time>
      </trkpt>
      <trkpt lat="48.82152" lon="6.11549">
        <ele>184.4</ele>
        <time>2021-07-29T12:40:22Z</time>
      </trkpt>
      <trkpt lat="48.8215" lon="6.11553">
        <ele>184.4</ele>
        <time>2021-07-29T12:40:23Z</time>
      </trkpt>
      <trkpt lat="48.82147" lon="6.11563">
        <ele>184.4</ele>
        <time>2021-07-29T12:40:25Z</time>
      </trkpt>
      <trkpt lat="48.82145" lon="6.11573">
        <ele>184.5</ele>
        <time>2021-07-29T12:40:26Z</time>
      </trkpt>
      <trkpt lat="48.82143" lon="6.11579">
        <ele>184.5</ele>
        <time>2021-07-29T12:40:28Z</time>
      </trkpt>
      <trkpt lat="48.8214" lon="6.11589">
        <ele>184.5</ele>
        <time>2021-07-29T12:40:30Z</time>
      </trkpt>
      <trkpt lat="48.82139" lon="6.11594">
        <ele>184.5</ele>
        <time>2021-07-29T12:40:31Z</time>
      </trkpt>
      <trkpt lat="48.82137" lon="6.11599">
        <ele>184.5</ele>
        <time>2021-07-29T12:40:32Z</time>
      </trkpt>
      <trkpt lat="48.82134" lon="6.11607">
        <ele>184.4</ele>
        <time>2021-07-29T12:40:33Z</time>
      </trkpt>
      <trkpt lat="48.82134" lon="6.11612">
        <ele>184.4</ele>
        <time>2021-07-29T12:40:34Z</time>
      </trkpt>
      <trkpt lat="48.82133" lon="6.11619">
        <ele>184.4</ele>
        <time>2021-07-29T12:40:36Z</time>
      </trkpt>
      <trkpt lat="48.82131" lon="6.11627">
        <ele>184.4</ele>
        <time>2021-07-29T12:40:37Z</time>
      </trkpt>
      <trkpt lat="48.82129" lon="6.11634">
        <ele>184.4</ele>
        <time>2021-07-29T12:40:39Z</time>
      </trkpt>
      <trkpt lat="48.82126" lon="6.11642">
        <ele>184.3</ele>
        <time>2021-07-29T12:40:40Z</time>
      </trkpt>
      <trkpt lat="48.82125" lon="6.11649">
        <ele>184.3</ele>
        <time>2021-07-29T12:40:42Z</time>
      </trkpt>
      <trkpt lat="48.82123" lon="6.11654">
        <ele>184.3</ele>
        <time>2021-07-29T12:40:43Z</time>
      </trkpt>
      <trkpt lat="48.82122" lon="6.11659">
        <ele>184.3</ele>
        <time>2021-07-29T12:40:44Z</time>
      </trkpt>
      <trkpt lat="48.8212" lon="6.11671">
        <ele>184.4</ele>
        <time>2021-07-29T12:40:46Z</time>
      </trkpt>
      <trkpt lat="48.8212" lon="6.11676">
        <ele>184.4</ele>
        <time>2021-07-29T12:40:47Z</time>
      </trkpt>
      <trkpt lat="48.82119" lon="6.11681">
        <ele>184.4</ele>
        <time>2021-07-29T12:40:48Z</time>
      </trkpt>
      <trkpt lat="48.82118" lon="6.1169">
        <ele>184.4</ele>
        <time>2021-07-29T12:40:49Z</time>
      </trkpt>
      <trkpt lat="48.82116" lon="6.11702">
        <ele>184.5</ele>
        <time>2021-07-29T12:40:51Z</time>
      </trkpt>
      <trkpt lat="48.82116" lon="6.11709">
        <ele>184.5</ele>
        <time>2021-07-29T12:40:52Z</time>
      </trkpt>
      <trkpt lat="48.82116" lon="6.11714">
        <ele>184.5</ele>
        <time>2021-07-29T12:40:53Z</time>
      </trkpt>
      <trkpt lat="48.82115" lon="6.11724">
        <ele>184.5</ele>
        <time>2021-07-29T12:40:55Z</time>
      </trkpt>
      <trkpt lat="48.82115" lon="6.1173">
        <ele>184.5</ele>
        <time>2021-07-29T12:40:56Z</time>
      </trkpt>
      <trkpt lat="48.82113" lon="6.11739">
        <ele>184.5</ele>
        <time>2021-07-29T12:40:57Z</time>
      </trkpt>
      <trkpt lat="48.82112" lon="6.11749">
        <ele>184.5</ele>
        <time>2021-07-29T12:40:59Z</time>
      </trkpt>
      <trkpt lat="48.82111" lon="6.11758">
        <ele>184.5</ele>
        <time>2021-07-29T12:41:00Z</time>
      </trkpt>
      <trkpt lat="48.8211" lon="6.1177">
        <ele>184.5</ele>
        <time>2021-07-29T12:41:02Z</time>
      </trkpt>
      <trkpt lat="48.82109" lon="6.11779">
        <ele>184.5</ele>
        <time>2021-07-29T12:41:03Z</time>
      </trkpt>
      <trkpt lat="48.82108" lon="6.1179">
        <ele>184.5</ele>
        <time>2021-07-29T12:41:05Z</time>
      </trkpt>
      <trkpt lat="48.82108" lon="6.118">
        <ele>184.5</ele>
        <time>2021-07-29T12:41:07Z</time>
      </trkpt>
      <trkpt lat="48.82107" lon="6.1181">
        <ele>184.5</ele>
        <time>2021-07-29T12:41:08Z</time>
      </trkpt>
      <trkpt lat="48.82107" lon="6.11823">
        <ele>184.6</ele>
        <time>2021-07-29T12:41:10Z</time>
      </trkpt>
      <trkpt lat="48.82107" lon="6.1183">
        <ele>184.6</ele>
        <time>2021-07-29T12:41:12Z</time>
      </trkpt>
      <trkpt lat="48.82106" lon="6.11836">
        <ele>184.6</ele>
        <time>2021-07-29T12:41:13Z</time>
      </trkpt>
      <trkpt lat="48.82106" lon="6.11843">
        <ele>184.6</ele>
        <time>2021-07-29T12:41:14Z</time>
      </trkpt>
      <trkpt lat="48.82106" lon="6.11849">
        <ele>184.7</ele>
        <time>2021-07-29T12:41:15Z</time>
      </trkpt>
      <trkpt lat="48.82106" lon="6.11857">
        <ele>184.7</ele>
        <time>2021-07-29T12:41:16Z</time>
      </trkpt>
      <trkpt lat="48.82106" lon="6.11871">
        <ele>184.7</ele>
        <time>2021-07-29T12:41:18Z</time>
      </trkpt>
      <trkpt lat="48.82107" lon="6.11883">
        <ele>184.8</ele>
        <time>2021-07-29T12:41:20Z</time>
      </trkpt>
      <trkpt lat="48.82107" lon="6.11888">
        <ele>184.9</ele>
        <time>2021-07-29T12:41:21Z</time>
      </trkpt>
      <trkpt lat="48.82108" lon="6.11895">
        <ele>184.9</ele>
        <time>2021-07-29T12:41:22Z</time>
      </trkpt>
      <trkpt lat="48.82108" lon="6.11908">
        <ele>185</ele>
        <time>2021-07-29T12:41:24Z</time>
      </trkpt>
      <trkpt lat="48.82108" lon="6.1192">
        <ele>185.1</ele>
        <time>2021-07-29T12:41:26Z</time>
      </trkpt>
      <trkpt lat="48.82108" lon="6.11932">
        <ele>185.1</ele>
        <time>2021-07-29T12:41:27Z</time>
      </trkpt>
      <trkpt lat="48.82107" lon="6.11944">
        <ele>185.2</ele>
        <time>2021-07-29T12:41:29Z</time>
      </trkpt>
      <trkpt lat="48.82107" lon="6.1195">
        <ele>185.2</ele>
        <time>2021-07-29T12:41:30Z</time>
      </trkpt>
      <trkpt lat="48.82106" lon="6.11964">
        <ele>185.3</ele>
        <time>2021-07-29T12:41:32Z</time>
      </trkpt>
      <trkpt lat="48.82105" lon="6.11971">
        <ele>185.3</ele>
        <time>2021-07-29T12:41:33Z</time>
      </trkpt>
      <trkpt lat="48.82105" lon="6.11978">
        <ele>185.4</ele>
        <time>2021-07-29T12:41:34Z</time>
      </trkpt>
      <trkpt lat="48.82104" lon="6.1199">
        <ele>185.4</ele>
        <time>2021-07-29T12:41:36Z</time>
      </trkpt>
      <trkpt lat="48.82103" lon="6.12">
        <ele>185.4</ele>
        <time>2021-07-29T12:41:38Z</time>
      </trkpt>
      <trkpt lat="48.82103" lon="6.12007">
        <ele>185.4</ele>
        <time>2021-07-29T12:41:39Z</time>
      </trkpt>
      <trkpt lat="48.82102" lon="6.12015">
        <ele>185.4</ele>
        <time>2021-07-29T12:41:41Z</time>
      </trkpt>
      <trkpt lat="48.82101" lon="6.12024">
        <ele>185.4</ele>
        <time>2021-07-29T12:41:42Z</time>
      </trkpt>
      <trkpt lat="48.821" lon="6.1203">
        <ele>185.4</ele>
        <time>2021-07-29T12:41:43Z</time>
      </trkpt>
      <trkpt lat="48.82099" lon="6.12036">
        <ele>185.4</ele>
        <time>2021-07-29T12:41:44Z</time>
      </trkpt>
      <trkpt lat="48.82098" lon="6.12042">
        <ele>185.4</ele>
        <time>2021-07-29T12:41:45Z</time>
      </trkpt>
      <trkpt lat="48.82097" lon="6.1205">
        <ele>185.4</ele>
        <time>2021-07-29T12:41:47Z</time>
      </trkpt>
      <trkpt lat="48.82096" lon="6.12057">
        <ele>185.4</ele>
        <time>2021-07-29T12:41:48Z</time>
      </trkpt>
      <trkpt lat="48.82095" lon="6.12064">
        <ele>185.4</ele>
        <time>2021-07-29T12:41:49Z</time>
      </trkpt>
      <trkpt lat="48.82094" lon="6.1207">
        <ele>185.4</ele>
        <time>2021-07-29T12:41:50Z</time>
      </trkpt>
      <trkpt lat="48.82094" lon="6.12081">
        <ele>185.3</ele>
        <time>2021-07-29T12:41:51Z</time>
      </trkpt>
      <trkpt lat="48.82093" lon="6.12089">
        <ele>185.3</ele>
        <time>2021-07-29T12:41:53Z</time>
      </trkpt>
      <trkpt lat="48.82092" lon="6.12095">
        <ele>185.3</ele>
        <time>2021-07-29T12:41:54Z</time>
      </trkpt>
      <trkpt lat="48.8209" lon="6.12107">
        <ele>185.4</ele>
        <time>2021-07-29T12:41:55Z</time>
      </trkpt>
      <trkpt lat="48.82089" lon="6.12115">
        <ele>185.4</ele>
        <time>2021-07-29T12:41:57Z</time>
      </trkpt>
      <trkpt lat="48.82086" lon="6.1213">
        <ele>185.5</ele>
        <time>2021-07-29T12:41:59Z</time>
      </trkpt>
      <trkpt lat="48.82085" lon="6.12137">
        <ele>185.5</ele>
        <time>2021-07-29T12:42:00Z</time>
      </trkpt>
      <trkpt lat="48.82083" lon="6.12141">
        <ele>185.5</ele>
        <time>2021-07-29T12:42:01Z</time>
      </trkpt>
      <trkpt lat="48.82083" lon="6.12146">
        <ele>185.5</ele>
        <time>2021-07-29T12:42:02Z</time>
      </trkpt>
      <trkpt lat="48.82082" lon="6.12153">
        <ele>185.6</ele>
        <time>2021-07-29T12:42:03Z</time>
      </trkpt>
      <trkpt lat="48.82083" lon="6.12163">
        <ele>185.6</ele>
        <time>2021-07-29T12:42:04Z</time>
      </trkpt>
      <trkpt lat="48.82083" lon="6.12172">
        <ele>185.7</ele>
        <time>2021-07-29T12:42:06Z</time>
      </trkpt>
      <trkpt lat="48.82083" lon="6.12181">
        <ele>185.7</ele>
        <time>2021-07-29T12:42:07Z</time>
      </trkpt>
      <trkpt lat="48.82083" lon="6.12188">
        <ele>185.7</ele>
        <time>2021-07-29T12:42:08Z</time>
      </trkpt>
      <trkpt lat="48.82086" lon="6.12194">
        <ele>185.7</ele>
        <time>2021-07-29T12:42:09Z</time>
      </trkpt>
      <trkpt lat="48.82086" lon="6.12201">
        <ele>185.7</ele>
        <time>2021-07-29T12:42:10Z</time>
      </trkpt>
      <trkpt lat="48.82084" lon="6.12211">
        <ele>185.7</ele>
        <time>2021-07-29T12:42:12Z</time>
      </trkpt>
      <trkpt lat="48.82082" lon="6.12217">
        <ele>185.7</ele>
        <time>2021-07-29T12:42:13Z</time>
      </trkpt>
      <trkpt lat="48.8208" lon="6.12225">
        <ele>185.7</ele>
        <time>2021-07-29T12:42:14Z</time>
      </trkpt>
      <trkpt lat="48.82078" lon="6.12235">
        <ele>185.7</ele>
        <time>2021-07-29T12:42:16Z</time>
      </trkpt>
      <trkpt lat="48.82075" lon="6.12242">
        <ele>185.6</ele>
        <time>2021-07-29T12:42:17Z</time>
      </trkpt>
      <trkpt lat="48.82074" lon="6.12248">
        <ele>185.6</ele>
        <time>2021-07-29T12:42:18Z</time>
      </trkpt>
      <trkpt lat="48.82072" lon="6.12253">
        <ele>185.6</ele>
        <time>2021-07-29T12:42:19Z</time>
      </trkpt>
      <trkpt lat="48.82069" lon="6.12258">
        <ele>185.6</ele>
        <time>2021-07-29T12:42:20Z</time>
      </trkpt>
      <trkpt lat="48.82067" lon="6.1227">
        <ele>185.6</ele>
        <time>2021-07-29T12:42:21Z</time>
      </trkpt>
      <trkpt lat="48.82065" lon="6.12278">
        <ele>185.5</ele>
        <time>2021-07-29T12:42:23Z</time>
      </trkpt>
      <trkpt lat="48.82063" lon="6.12288">
        <ele>185.5</ele>
        <time>2021-07-29T12:42:24Z</time>
      </trkpt>
      <trkpt lat="48.8206" lon="6.12298">
        <ele>185.5</ele>
        <time>2021-07-29T12:42:26Z</time>
      </trkpt>
      <trkpt lat="48.82059" lon="6.12304">
        <ele>185.5</ele>
        <time>2021-07-29T12:42:27Z</time>
      </trkpt>
      <trkpt lat="48.82056" lon="6.1231">
        <ele>185.5</ele>
        <time>2021-07-29T12:42:28Z</time>
      </trkpt>
      <trkpt lat="48.82053" lon="6.12317">
        <ele>185.5</ele>
        <time>2021-07-29T12:42:29Z</time>
      </trkpt>
      <trkpt lat="48.82052" lon="6.12324">
        <ele>185.6</ele>
        <time>2021-07-29T12:42:31Z</time>
      </trkpt>
      <trkpt lat="48.8205" lon="6.12331">
        <ele>185.6</ele>
        <time>2021-07-29T12:42:32Z</time>
      </trkpt>
      <trkpt lat="48.82047" lon="6.12339">
        <ele>185.6</ele>
        <time>2021-07-29T12:42:33Z</time>
      </trkpt>
      <trkpt lat="48.82045" lon="6.12345">
        <ele>185.5</ele>
        <time>2021-07-29T12:42:34Z</time>
      </trkpt>
      <trkpt lat="48.82043" lon="6.12352">
        <ele>185.5</ele>
        <time>2021-07-29T12:42:36Z</time>
      </trkpt>
      <trkpt lat="48.82042" lon="6.12358">
        <ele>185.5</ele>
        <time>2021-07-29T12:42:37Z</time>
      </trkpt>
      <trkpt lat="48.82041" lon="6.12366">
        <ele>185.5</ele>
        <time>2021-07-29T12:42:38Z</time>
      </trkpt>
      <trkpt lat="48.82039" lon="6.12374">
        <ele>185.5</ele>
        <time>2021-07-29T12:42:40Z</time>
      </trkpt>
      <trkpt lat="48.82037" lon="6.12379">
        <ele>185.5</ele>
        <time>2021-07-29T12:42:41Z</time>
      </trkpt>
      <trkpt lat="48.82035" lon="6.12384">
        <ele>185.5</ele>
        <time>2021-07-29T12:42:42Z</time>
      </trkpt>
      <trkpt lat="48.82031" lon="6.12393">
        <ele>185.5</ele>
        <time>2021-07-29T12:42:43Z</time>
      </trkpt>
      <trkpt lat="48.82027" lon="6.12404">
        <ele>185.5</ele>
        <time>2021-07-29T12:42:45Z</time>
      </trkpt>
      <trkpt lat="48.82024" lon="6.1241">
        <ele>185.5</ele>
        <time>2021-07-29T12:42:46Z</time>
      </trkpt>
      <trkpt lat="48.82023" lon="6.12418">
        <ele>185.5</ele>
        <time>2021-07-29T12:42:47Z</time>
      </trkpt>
      <trkpt lat="48.82021" lon="6.12424">
        <ele>185.5</ele>
        <time>2021-07-29T12:42:48Z</time>
      </trkpt>
      <trkpt lat="48.82016" lon="6.12432">
        <ele>185.5</ele>
        <time>2021-07-29T12:42:50Z</time>
      </trkpt>
      <trkpt lat="48.82012" lon="6.12441">
        <ele>185.5</ele>
        <time>2021-07-29T12:42:51Z</time>
      </trkpt>
      <trkpt lat="48.82008" lon="6.12448">
        <ele>185.5</ele>
        <time>2021-07-29T12:42:53Z</time>
      </trkpt>
      <trkpt lat="48.82005" lon="6.12456">
        <ele>185.5</ele>
        <time>2021-07-29T12:42:54Z</time>
      </trkpt>
      <trkpt lat="48.82003" lon="6.1246">
        <ele>185.5</ele>
        <time>2021-07-29T12:42:55Z</time>
      </trkpt>
      <trkpt lat="48.82001" lon="6.12469">
        <ele>185.5</ele>
        <time>2021-07-29T12:42:57Z</time>
      </trkpt>
      <trkpt lat="48.82" lon="6.12481">
        <ele>185.5</ele>
        <time>2021-07-29T12:42:59Z</time>
      </trkpt>
      <trkpt lat="48.81999" lon="6.12487">
        <ele>185.5</ele>
        <time>2021-07-29T12:43:00Z</time>
      </trkpt>
      <trkpt lat="48.82" lon="6.12493">
        <ele>185.5</ele>
        <time>2021-07-29T12:43:01Z</time>
      </trkpt>
      <trkpt lat="48.81994" lon="6.12503">
        <ele>185.5</ele>
        <time>2021-07-29T12:43:03Z</time>
      </trkpt>
      <trkpt lat="48.81992" lon="6.1251">
        <ele>185.4</ele>
        <time>2021-07-29T12:43:04Z</time>
      </trkpt>
      <trkpt lat="48.81992" lon="6.12517">
        <ele>185.4</ele>
        <time>2021-07-29T12:43:05Z</time>
      </trkpt>
      <trkpt lat="48.81991" lon="6.12531">
        <ele>185.4</ele>
        <time>2021-07-29T12:43:07Z</time>
      </trkpt>
      <trkpt lat="48.81988" lon="6.12543">
        <ele>185.3</ele>
        <time>2021-07-29T12:43:09Z</time>
      </trkpt>
      <trkpt lat="48.81986" lon="6.1255">
        <ele>185.3</ele>
        <time>2021-07-29T12:43:10Z</time>
      </trkpt>
      <trkpt lat="48.81984" lon="6.12557">
        <ele>185.3</ele>
        <time>2021-07-29T12:43:11Z</time>
      </trkpt>
      <trkpt lat="48.81981" lon="6.12563">
        <ele>185.3</ele>
        <time>2021-07-29T12:43:12Z</time>
      </trkpt>
      <trkpt lat="48.81978" lon="6.12568">
        <ele>185.3</ele>
        <time>2021-07-29T12:43:14Z</time>
      </trkpt>
      <trkpt lat="48.81975" lon="6.12574">
        <ele>185.3</ele>
        <time>2021-07-29T12:43:15Z</time>
      </trkpt>
      <trkpt lat="48.81971" lon="6.12579">
        <ele>185.3</ele>
        <time>2021-07-29T12:43:16Z</time>
      </trkpt>
      <trkpt lat="48.81967" lon="6.12584">
        <ele>185.3</ele>
        <time>2021-07-29T12:43:17Z</time>
      </trkpt>
      <trkpt lat="48.81961" lon="6.12589">
        <ele>185.3</ele>
        <time>2021-07-29T12:43:19Z</time>
      </trkpt>
      <trkpt lat="48.8196" lon="6.12593">
        <ele>185.3</ele>
        <time>2021-07-29T12:43:20Z</time>
      </trkpt>
      <trkpt lat="48.81957" lon="6.12598">
        <ele>185.3</ele>
        <time>2021-07-29T12:43:21Z</time>
      </trkpt>
      <trkpt lat="48.81953" lon="6.12603">
        <ele>185.3</ele>
        <time>2021-07-29T12:43:22Z</time>
      </trkpt>
      <trkpt lat="48.81949" lon="6.12608">
        <ele>185.2</ele>
        <time>2021-07-29T12:43:24Z</time>
      </trkpt>
      <trkpt lat="48.81945" lon="6.12611">
        <ele>185.2</ele>
        <time>2021-07-29T12:43:25Z</time>
      </trkpt>
      <trkpt lat="48.81939" lon="6.12617">
        <ele>185.2</ele>
        <time>2021-07-29T12:43:26Z</time>
      </trkpt>
      <trkpt lat="48.81936" lon="6.12622">
        <ele>185.2</ele>
        <time>2021-07-29T12:43:27Z</time>
      </trkpt>
      <trkpt lat="48.81933" lon="6.12626">
        <ele>185.2</ele>
        <time>2021-07-29T12:43:29Z</time>
      </trkpt>
      <trkpt lat="48.8193" lon="6.1263">
        <ele>185.2</ele>
        <time>2021-07-29T12:43:30Z</time>
      </trkpt>
      <trkpt lat="48.81925" lon="6.12634">
        <ele>185.2</ele>
        <time>2021-07-29T12:43:32Z</time>
      </trkpt>
      <trkpt lat="48.8192" lon="6.12637">
        <ele>185.2</ele>
        <time>2021-07-29T12:43:33Z</time>
      </trkpt>
      <trkpt lat="48.81916" lon="6.12639">
        <ele>185.2</ele>
        <time>2021-07-29T12:43:34Z</time>
      </trkpt>
      <trkpt lat="48.8191" lon="6.12643">
        <ele>185.2</ele>
        <time>2021-07-29T12:43:36Z</time>
      </trkpt>
      <trkpt lat="48.81904" lon="6.12646">
        <ele>185.2</ele>
        <time>2021-07-29T12:43:37Z</time>
      </trkpt>
      <trkpt lat="48.819" lon="6.12649">
        <ele>185.2</ele>
        <time>2021-07-29T12:43:38Z</time>
      </trkpt>
      <trkpt lat="48.81895" lon="6.12652">
        <ele>185.2</ele>
        <time>2021-07-29T12:43:39Z</time>
      </trkpt>
      <trkpt lat="48.8189" lon="6.12655">
        <ele>185.2</ele>
        <time>2021-07-29T12:43:41Z</time>
      </trkpt>
      <trkpt lat="48.81886" lon="6.12657">
        <ele>185.2</ele>
        <time>2021-07-29T12:43:42Z</time>
      </trkpt>
      <trkpt lat="48.81879" lon="6.12662">
        <ele>185.2</ele>
        <time>2021-07-29T12:43:43Z</time>
      </trkpt>
      <trkpt lat="48.81874" lon="6.12665">
        <ele>185.2</ele>
        <time>2021-07-29T12:43:45Z</time>
      </trkpt>
      <trkpt lat="48.81869" lon="6.12668">
        <ele>185.2</ele>
        <time>2021-07-29T12:43:46Z</time>
      </trkpt>
      <trkpt lat="48.81864" lon="6.12672">
        <ele>185.2</ele>
        <time>2021-07-29T12:43:47Z</time>
      </trkpt>
      <trkpt lat="48.81859" lon="6.12675">
        <ele>185.2</ele>
        <time>2021-07-29T12:43:48Z</time>
      </trkpt>
      <trkpt lat="48.81855" lon="6.12677">
        <ele>185.2</ele>
        <time>2021-07-29T12:43:50Z</time>
      </trkpt>
      <trkpt lat="48.81851" lon="6.12679">
        <ele>185.2</ele>
        <time>2021-07-29T12:43:51Z</time>
      </trkpt>
      <trkpt lat="48.81847" lon="6.12681">
        <ele>185.2</ele>
        <time>2021-07-29T12:43:52Z</time>
      </trkpt>
      <trkpt lat="48.81842" lon="6.12684">
        <ele>185.2</ele>
        <time>2021-07-29T12:43:54Z</time>
      </trkpt>
      <trkpt lat="48.81838" lon="6.12685">
        <ele>185.2</ele>
        <time>2021-07-29T12:43:55Z</time>
      </trkpt>
      <trkpt lat="48.81833" lon="6.12686">
        <ele>185.2</ele>
        <time>2021-07-29T12:43:56Z</time>
      </trkpt>
      <trkpt lat="48.81829" lon="6.12686">
        <ele>185.3</ele>
        <time>2021-07-29T12:43:57Z</time>
      </trkpt>
      <trkpt lat="48.81825" lon="6.12687">
        <ele>185.3</ele>
        <time>2021-07-29T12:43:58Z</time>
      </trkpt>
      <trkpt lat="48.81821" lon="6.12688">
        <ele>185.3</ele>
        <time>2021-07-29T12:44:00Z</time>
      </trkpt>
      <trkpt lat="48.81815" lon="6.1269">
        <ele>185.3</ele>
        <time>2021-07-29T12:44:01Z</time>
      </trkpt>
      <trkpt lat="48.81809" lon="6.12691">
        <ele>185.3</ele>
        <time>2021-07-29T12:44:03Z</time>
      </trkpt>
      <trkpt lat="48.818" lon="6.12693">
        <ele>185.3</ele>
        <time>2021-07-29T12:44:05Z</time>
      </trkpt>
      <trkpt lat="48.81795" lon="6.12695">
        <ele>185.3</ele>
        <time>2021-07-29T12:44:06Z</time>
      </trkpt>
      <trkpt lat="48.81787" lon="6.12698">
        <ele>185.3</ele>
        <time>2021-07-29T12:44:07Z</time>
      </trkpt>
      <trkpt lat="48.8178" lon="6.127">
        <ele>185.3</ele>
        <time>2021-07-29T12:44:09Z</time>
      </trkpt>
      <trkpt lat="48.81776" lon="6.12701">
        <ele>185.3</ele>
        <time>2021-07-29T12:44:10Z</time>
      </trkpt>
      <trkpt lat="48.81767" lon="6.12704">
        <ele>185.2</ele>
        <time>2021-07-29T12:44:11Z</time>
      </trkpt>
      <trkpt lat="48.81759" lon="6.12707">
        <ele>185.2</ele>
        <time>2021-07-29T12:44:13Z</time>
      </trkpt>
      <trkpt lat="48.8175" lon="6.12711">
        <ele>185.2</ele>
        <time>2021-07-29T12:44:15Z</time>
      </trkpt>
      <trkpt lat="48.81738" lon="6.12714">
        <ele>185.2</ele>
        <time>2021-07-29T12:44:17Z</time>
      </trkpt>
      <trkpt lat="48.81733" lon="6.12714">
        <ele>185.3</ele>
        <time>2021-07-29T12:44:18Z</time>
      </trkpt>
      <trkpt lat="48.81728" lon="6.12715">
        <ele>185.3</ele>
        <time>2021-07-29T12:44:19Z</time>
      </trkpt>
      <trkpt lat="48.81723" lon="6.12715">
        <ele>185.3</ele>
        <time>2021-07-29T12:44:20Z</time>
      </trkpt>
      <trkpt lat="48.81717" lon="6.12715">
        <ele>185.4</ele>
        <time>2021-07-29T12:44:21Z</time>
      </trkpt>
      <trkpt lat="48.81713" lon="6.12715">
        <ele>185.4</ele>
        <time>2021-07-29T12:44:22Z</time>
      </trkpt>
      <trkpt lat="48.81709" lon="6.12716">
        <ele>185.4</ele>
        <time>2021-07-29T12:44:23Z</time>
      </trkpt>
      <trkpt lat="48.81705" lon="6.12717">
        <ele>185.5</ele>
        <time>2021-07-29T12:44:24Z</time>
      </trkpt>
      <trkpt lat="48.81701" lon="6.12718">
        <ele>185.5</ele>
        <time>2021-07-29T12:44:25Z</time>
      </trkpt>
      <trkpt lat="48.81698" lon="6.12718">
        <ele>185.5</ele>
        <time>2021-07-29T12:44:26Z</time>
      </trkpt>
      <trkpt lat="48.81694" lon="6.12719">
        <ele>185.5</ele>
        <time>2021-07-29T12:44:28Z</time>
      </trkpt>
      <trkpt lat="48.81691" lon="6.1272">
        <ele>185.6</ele>
        <time>2021-07-29T12:44:29Z</time>
      </trkpt>
      <trkpt lat="48.81687" lon="6.12721">
        <ele>185.6</ele>
        <time>2021-07-29T12:44:30Z</time>
      </trkpt>
      <trkpt lat="48.81681" lon="6.12722">
        <ele>185.6</ele>
        <time>2021-07-29T12:44:31Z</time>
      </trkpt>
      <trkpt lat="48.81677" lon="6.12725">
        <ele>185.7</ele>
        <time>2021-07-29T12:44:33Z</time>
      </trkpt>
      <trkpt lat="48.81673" lon="6.12727">
        <ele>185.7</ele>
        <time>2021-07-29T12:44:34Z</time>
      </trkpt>
      <trkpt lat="48.81668" lon="6.12729">
        <ele>185.7</ele>
        <time>2021-07-29T12:44:35Z</time>
      </trkpt>
      <trkpt lat="48.81664" lon="6.12731">
        <ele>185.8</ele>
        <time>2021-07-29T12:44:37Z</time>
      </trkpt>
      <trkpt lat="48.81661" lon="6.12731">
        <ele>185.8</ele>
        <time>2021-07-29T12:44:38Z</time>
      </trkpt>
      <trkpt lat="48.81653" lon="6.12734">
        <ele>185.8</ele>
        <time>2021-07-29T12:44:40Z</time>
      </trkpt>
      <trkpt lat="48.81647" lon="6.12739">
        <ele>185.8</ele>
        <time>2021-07-29T12:44:42Z</time>
      </trkpt>
      <trkpt lat="48.8164" lon="6.12743">
        <ele>185.8</ele>
        <time>2021-07-29T12:44:44Z</time>
      </trkpt>
      <trkpt lat="48.81631" lon="6.12743">
        <ele>185.7</ele>
        <time>2021-07-29T12:44:46Z</time>
      </trkpt>
      <trkpt lat="48.81627" lon="6.12744">
        <ele>185.7</ele>
        <time>2021-07-29T12:44:47Z</time>
      </trkpt>
      <trkpt lat="48.81623" lon="6.12744">
        <ele>185.6</ele>
        <time>2021-07-29T12:44:48Z</time>
      </trkpt>
      <trkpt lat="48.81616" lon="6.12744">
        <ele>185.6</ele>
        <time>2021-07-29T12:44:50Z</time>
      </trkpt>
      <trkpt lat="48.81613" lon="6.12744">
        <ele>185.6</ele>
        <time>2021-07-29T12:44:51Z</time>
      </trkpt>
      <trkpt lat="48.81608" lon="6.12746">
        <ele>185.6</ele>
        <time>2021-07-29T12:44:53Z</time>
      </trkpt>
      <trkpt lat="48.81605" lon="6.12747">
        <ele>185.5</ele>
        <time>2021-07-29T12:44:54Z</time>
      </trkpt>
      <trkpt lat="48.81601" lon="6.12747">
        <ele>185.5</ele>
        <time>2021-07-29T12:44:55Z</time>
      </trkpt>
      <trkpt lat="48.81599" lon="6.12746">
        <ele>185.5</ele>
        <time>2021-07-29T12:44:56Z</time>
      </trkpt>
      <trkpt lat="48.81597" lon="6.12742">
        <ele>185.5</ele>
        <time>2021-07-29T12:44:58Z</time>
      </trkpt>
      <trkpt lat="48.81596" lon="6.12737">
        <ele>185.5</ele>
        <time>2021-07-29T12:44:59Z</time>
      </trkpt>
      <trkpt lat="48.81597" lon="6.12731">
        <ele>185.5</ele>
        <time>2021-07-29T12:45:01Z</time>
      </trkpt>
      <trkpt lat="48.81598" lon="6.12727">
        <ele>185.5</ele>
        <time>2021-07-29T12:45:02Z</time>
      </trkpt>
      <trkpt lat="48.81598" lon="6.12721">
        <ele>185.5</ele>
        <time>2021-07-29T12:45:04Z</time>
      </trkpt>
      <trkpt lat="48.81597" lon="6.1272">
        <ele>185.5</ele>
        <time>2021-07-29T12:45:05Z</time>
      </trkpt>
      <trkpt lat="48.81596" lon="6.12718">
        <ele>185.5</ele>
        <time>2021-07-29T12:45:06Z</time>
      </trkpt>
      <trkpt lat="48.81594" lon="6.12715">
        <ele>185.5</ele>
        <time>2021-07-29T12:45:08Z</time>
      </trkpt>
      <trkpt lat="48.81589" lon="6.12714">
        <ele>185.5</ele>
        <time>2021-07-29T12:45:09Z</time>
      </trkpt>
      <trkpt lat="48.81586" lon="6.12714">
        <ele>185.5</ele>
        <time>2021-07-29T12:45:10Z</time>
      </trkpt>
      <trkpt lat="48.81583" lon="6.12715">
        <ele>185.5</ele>
        <time>2021-07-29T12:45:11Z</time>
      </trkpt>
      <trkpt lat="48.8158" lon="6.12717">
        <ele>185.4</ele>
        <time>2021-07-29T12:45:13Z</time>
      </trkpt>
      <trkpt lat="48.81577" lon="6.12718">
        <ele>185.4</ele>
        <time>2021-07-29T12:45:14Z</time>
      </trkpt>
      <trkpt lat="48.81572" lon="6.1272">
        <ele>185.4</ele>
        <time>2021-07-29T12:45:15Z</time>
      </trkpt>
      <trkpt lat="48.81567" lon="6.12721">
        <ele>185.4</ele>
        <time>2021-07-29T12:45:16Z</time>
      </trkpt>
      <trkpt lat="48.81562" lon="6.12722">
        <ele>185.4</ele>
        <time>2021-07-29T12:45:17Z</time>
      </trkpt>
      <trkpt lat="48.81557" lon="6.12722">
        <ele>185.4</ele>
        <time>2021-07-29T12:45:19Z</time>
      </trkpt>
      <trkpt lat="48.81551" lon="6.12723">
        <ele>185.4</ele>
        <time>2021-07-29T12:45:20Z</time>
      </trkpt>
      <trkpt lat="48.81545" lon="6.12725">
        <ele>185.4</ele>
        <time>2021-07-29T12:45:22Z</time>
      </trkpt>
      <trkpt lat="48.81542" lon="6.12725">
        <ele>185.4</ele>
        <time>2021-07-29T12:45:23Z</time>
      </trkpt>
      <trkpt lat="48.8154" lon="6.12724">
        <ele>185.4</ele>
        <time>2021-07-29T12:45:24Z</time>
      </trkpt>
      <trkpt lat="48.81534" lon="6.12723">
        <ele>185.4</ele>
        <time>2021-07-29T12:45:26Z</time>
      </trkpt>
      <trkpt lat="48.81528" lon="6.12723">
        <ele>185.4</ele>
        <time>2021-07-29T12:45:28Z</time>
      </trkpt>
      <trkpt lat="48.81522" lon="6.12723">
        <ele>185.4</ele>
        <time>2021-07-29T12:45:29Z</time>
      </trkpt>
      <trkpt lat="48.81517" lon="6.12723">
        <ele>185.4</ele>
        <time>2021-07-29T12:45:31Z</time>
      </trkpt>
      <trkpt lat="48.81513" lon="6.12723">
        <ele>185.4</ele>
        <time>2021-07-29T12:45:32Z</time>
      </trkpt>
      <trkpt lat="48.81507" lon="6.12723">
        <ele>185.4</ele>
        <time>2021-07-29T12:45:34Z</time>
      </trkpt>
      <trkpt lat="48.81503" lon="6.12721">
        <ele>185.4</ele>
        <time>2021-07-29T12:45:35Z</time>
      </trkpt>
      <trkpt lat="48.81499" lon="6.12721">
        <ele>185.4</ele>
        <time>2021-07-29T12:45:36Z</time>
      </trkpt>
      <trkpt lat="48.81494" lon="6.12721">
        <ele>185.4</ele>
        <time>2021-07-29T12:45:37Z</time>
      </trkpt>
      <trkpt lat="48.81489" lon="6.12721">
        <ele>185.4</ele>
        <time>2021-07-29T12:45:39Z</time>
      </trkpt>
      <trkpt lat="48.81485" lon="6.1272">
        <ele>185.4</ele>
        <time>2021-07-29T12:45:40Z</time>
      </trkpt>
      <trkpt lat="48.8148" lon="6.12718">
        <ele>185.4</ele>
        <time>2021-07-29T12:45:41Z</time>
      </trkpt>
      <trkpt lat="48.81476" lon="6.12717">
        <ele>185.4</ele>
        <time>2021-07-29T12:45:42Z</time>
      </trkpt>
      <trkpt lat="48.81471" lon="6.12716">
        <ele>185.4</ele>
        <time>2021-07-29T12:45:43Z</time>
      </trkpt>
      <trkpt lat="48.81466" lon="6.12715">
        <ele>185.4</ele>
        <time>2021-07-29T12:45:45Z</time>
      </trkpt>
      <trkpt lat="48.81462" lon="6.12715">
        <ele>185.4</ele>
        <time>2021-07-29T12:45:46Z</time>
      </trkpt>
      <trkpt lat="48.81457" lon="6.12714">
        <ele>185.5</ele>
        <time>2021-07-29T12:45:48Z</time>
      </trkpt>
      <trkpt lat="48.81454" lon="6.12712">
        <ele>185.5</ele>
        <time>2021-07-29T12:45:49Z</time>
      </trkpt>
      <trkpt lat="48.81452" lon="6.12712">
        <ele>185.5</ele>
        <time>2021-07-29T12:45:50Z</time>
      </trkpt>
      <trkpt lat="48.81449" lon="6.1271">
        <ele>185.5</ele>
        <time>2021-07-29T12:45:51Z</time>
      </trkpt>
      <trkpt lat="48.81445" lon="6.12707">
        <ele>185.5</ele>
        <time>2021-07-29T12:45:52Z</time>
      </trkpt>
      <trkpt lat="48.81444" lon="6.12706">
        <ele>185.5</ele>
        <time>2021-07-29T12:45:53Z</time>
      </trkpt>
      <trkpt lat="48.81441" lon="6.12703">
        <ele>185.5</ele>
        <time>2021-07-29T12:45:54Z</time>
      </trkpt>
      <trkpt lat="48.8144" lon="6.12701">
        <ele>185.5</ele>
        <time>2021-07-29T12:45:55Z</time>
      </trkpt>
      <trkpt lat="48.81437" lon="6.12698">
        <ele>185.5</ele>
        <time>2021-07-29T12:45:57Z</time>
      </trkpt>
      <trkpt lat="48.81434" lon="6.12696">
        <ele>185.6</ele>
        <time>2021-07-29T12:45:58Z</time>
      </trkpt>
      <trkpt lat="48.8143" lon="6.12694">
        <ele>185.7</ele>
        <time>2021-07-29T12:45:59Z</time>
      </trkpt>
      <trkpt lat="48.81426" lon="6.12691">
        <ele>185.7</ele>
        <time>2021-07-29T12:46:00Z</time>
      </trkpt>
      <trkpt lat="48.81422" lon="6.12689">
        <ele>185.8</ele>
        <time>2021-07-29T12:46:02Z</time>
      </trkpt>
      <trkpt lat="48.81418" lon="6.12689">
        <ele>185.8</ele>
        <time>2021-07-29T12:46:03Z</time>
      </trkpt>
      <trkpt lat="48.81413" lon="6.12688">
        <ele>185.8</ele>
        <time>2021-07-29T12:46:05Z</time>
      </trkpt>
      <trkpt lat="48.81409" lon="6.12687">
        <ele>185.9</ele>
        <time>2021-07-29T12:46:06Z</time>
      </trkpt>
      <trkpt lat="48.81405" lon="6.12686">
        <ele>185.9</ele>
        <time>2021-07-29T12:46:07Z</time>
      </trkpt>
      <trkpt lat="48.81402" lon="6.12685">
        <ele>185.9</ele>
        <time>2021-07-29T12:46:08Z</time>
      </trkpt>
      <trkpt lat="48.81396" lon="6.12684">
        <ele>186</ele>
        <time>2021-07-29T12:46:09Z</time>
      </trkpt>
      <trkpt lat="48.81392" lon="6.12683">
        <ele>186.1</ele>
        <time>2021-07-29T12:46:11Z</time>
      </trkpt>
      <trkpt lat="48.81388" lon="6.12681">
        <ele>186.1</ele>
        <time>2021-07-29T12:46:12Z</time>
      </trkpt>
      <trkpt lat="48.81383" lon="6.1268">
        <ele>186.2</ele>
        <time>2021-07-29T12:46:13Z</time>
      </trkpt>
      <trkpt lat="48.81379" lon="6.12678">
        <ele>186.3</ele>
        <time>2021-07-29T12:46:14Z</time>
      </trkpt>
      <trkpt lat="48.81375" lon="6.12676">
        <ele>186.4</ele>
        <time>2021-07-29T12:46:15Z</time>
      </trkpt>
      <trkpt lat="48.81372" lon="6.12674">
        <ele>186.4</ele>
        <time>2021-07-29T12:46:17Z</time>
      </trkpt>
      <trkpt lat="48.81369" lon="6.12673">
        <ele>186.5</ele>
        <time>2021-07-29T12:46:18Z</time>
      </trkpt>
      <trkpt lat="48.81366" lon="6.12672">
        <ele>186.6</ele>
        <time>2021-07-29T12:46:19Z</time>
      </trkpt>
      <trkpt lat="48.81362" lon="6.12671">
        <ele>186.7</ele>
        <time>2021-07-29T12:46:21Z</time>
      </trkpt>
      <trkpt lat="48.81355" lon="6.1267">
        <ele>186.9</ele>
        <time>2021-07-29T12:46:23Z</time>
      </trkpt>
      <trkpt lat="48.81352" lon="6.12669">
        <ele>186.9</ele>
        <time>2021-07-29T12:46:24Z</time>
      </trkpt>
      <trkpt lat="48.81347" lon="6.12669">
        <ele>187.1</ele>
        <time>2021-07-29T12:46:26Z</time>
      </trkpt>
      <trkpt lat="48.81344" lon="6.12667">
        <ele>187.1</ele>
        <time>2021-07-29T12:46:27Z</time>
      </trkpt>
      <trkpt lat="48.81341" lon="6.12666">
        <ele>187.2</ele>
        <time>2021-07-29T12:46:28Z</time>
      </trkpt>
      <trkpt lat="48.81338" lon="6.12664">
        <ele>187.3</ele>
        <time>2021-07-29T12:46:30Z</time>
      </trkpt>
      <trkpt lat="48.81337" lon="6.12664">
        <ele>187.3</ele>
        <time>2021-07-29T12:46:31Z</time>
      </trkpt>
      <trkpt lat="48.81333" lon="6.12662">
        <ele>187.4</ele>
        <time>2021-07-29T12:46:32Z</time>
      </trkpt>
      <trkpt lat="48.81331" lon="6.12662">
        <ele>187.5</ele>
        <time>2021-07-29T12:46:33Z</time>
      </trkpt>
      <trkpt lat="48.81329" lon="6.12661">
        <ele>187.5</ele>
        <time>2021-07-29T12:46:34Z</time>
      </trkpt>
      <trkpt lat="48.81326" lon="6.1266">
        <ele>187.6</ele>
        <time>2021-07-29T12:46:36Z</time>
      </trkpt>
      <trkpt lat="48.81323" lon="6.1266">
        <ele>187.7</ele>
        <time>2021-07-29T12:46:37Z</time>
      </trkpt>
      <trkpt lat="48.8132" lon="6.12659">
        <ele>187.8</ele>
        <time>2021-07-29T12:46:38Z</time>
      </trkpt>
      <trkpt lat="48.81315" lon="6.12657">
        <ele>187.9</ele>
        <time>2021-07-29T12:46:39Z</time>
      </trkpt>
      <trkpt lat="48.81313" lon="6.12654">
        <ele>188</ele>
        <time>2021-07-29T12:46:40Z</time>
      </trkpt>
      <trkpt lat="48.8131" lon="6.1265">
        <ele>188.1</ele>
        <time>2021-07-29T12:46:42Z</time>
      </trkpt>
      <trkpt lat="48.81307" lon="6.12644">
        <ele>188.2</ele>
        <time>2021-07-29T12:46:44Z</time>
      </trkpt>
      <trkpt lat="48.81305" lon="6.12641">
        <ele>188.3</ele>
        <time>2021-07-29T12:46:45Z</time>
      </trkpt>
      <trkpt lat="48.81302" lon="6.12639">
        <ele>188.4</ele>
        <time>2021-07-29T12:46:46Z</time>
      </trkpt>
      <trkpt lat="48.813" lon="6.12638">
        <ele>188.5</ele>
        <time>2021-07-29T12:46:47Z</time>
      </trkpt>
      <trkpt lat="48.81298" lon="6.12637">
        <ele>188.5</ele>
        <time>2021-07-29T12:46:49Z</time>
      </trkpt>
      <trkpt lat="48.81297" lon="6.12636">
        <ele>188.6</ele>
        <time>2021-07-29T12:46:50Z</time>
      </trkpt>
      <trkpt lat="48.81294" lon="6.12635">
        <ele>188.7</ele>
        <time>2021-07-29T12:46:52Z</time>
      </trkpt>
      <trkpt lat="48.81293" lon="6.12636">
        <ele>188.7</ele>
        <time>2021-07-29T12:46:53Z</time>
      </trkpt>
      <trkpt lat="48.81292" lon="6.12636">
        <ele>188.8</ele>
        <time>2021-07-29T12:46:55Z</time>
      </trkpt>
      <trkpt lat="48.81291" lon="6.12635">
        <ele>188.8</ele>
        <time>2021-07-29T12:46:56Z</time>
      </trkpt>
      <trkpt lat="48.8129" lon="6.12635">
        <ele>188.9</ele>
        <time>2021-07-29T12:46:57Z</time>
      </trkpt>
      <trkpt lat="48.81288" lon="6.12634">
        <ele>188.9</ele>
        <time>2021-07-29T12:46:58Z</time>
      </trkpt>
      <trkpt lat="48.81284" lon="6.12633">
        <ele>189.1</ele>
        <time>2021-07-29T12:47:00Z</time>
      </trkpt>
      <trkpt lat="48.81281" lon="6.12633">
        <ele>189.2</ele>
        <time>2021-07-29T12:47:01Z</time>
      </trkpt>
      <trkpt lat="48.81278" lon="6.12632">
        <ele>189.3</ele>
        <time>2021-07-29T12:47:02Z</time>
      </trkpt>
      <trkpt lat="48.81273" lon="6.12632">
        <ele>189.5</ele>
        <time>2021-07-29T12:47:04Z</time>
      </trkpt>
      <trkpt lat="48.81272" lon="6.12632">
        <ele>189.5</ele>
        <time>2021-07-29T12:47:05Z</time>
      </trkpt>
      <trkpt lat="48.81269" lon="6.12631">
        <ele>189.6</ele>
        <time>2021-07-29T12:47:07Z</time>
      </trkpt>
      <trkpt lat="48.81265" lon="6.12632">
        <ele>189.7</ele>
        <time>2021-07-29T12:47:08Z</time>
      </trkpt>
      <trkpt lat="48.81263" lon="6.12632">
        <ele>189.8</ele>
        <time>2021-07-29T12:47:09Z</time>
      </trkpt>
      <trkpt lat="48.81259" lon="6.12632">
        <ele>189.9</ele>
        <time>2021-07-29T12:47:11Z</time>
      </trkpt>
      <trkpt lat="48.81256" lon="6.12632">
        <ele>190.1</ele>
        <time>2021-07-29T12:47:12Z</time>
      </trkpt>
      <trkpt lat="48.81252" lon="6.12632">
        <ele>190.2</ele>
        <time>2021-07-29T12:47:13Z</time>
      </trkpt>
      <trkpt lat="48.8125" lon="6.1263">
        <ele>190.3</ele>
        <time>2021-07-29T12:47:15Z</time>
      </trkpt>
      <trkpt lat="48.8125" lon="6.12631">
        <ele>190.3</ele>
        <time>2021-07-29T12:47:16Z</time>
      </trkpt>
      <trkpt lat="48.81249" lon="6.12631">
        <ele>190.3</ele>
        <time>2021-07-29T12:47:17Z</time>
      </trkpt>
      <trkpt lat="48.81247" lon="6.12631">
        <ele>190.4</ele>
        <time>2021-07-29T12:47:18Z</time>
      </trkpt>
      <trkpt lat="48.81246" lon="6.12631">
        <ele>190.4</ele>
        <time>2021-07-29T12:47:20Z</time>
      </trkpt>
      <trkpt lat="48.81245" lon="6.12631">
        <ele>190.4</ele>
        <time>2021-07-29T12:47:21Z</time>
      </trkpt>
      <trkpt lat="48.81242" lon="6.12631">
        <ele>190.5</ele>
        <time>2021-07-29T12:47:22Z</time>
      </trkpt>
      <trkpt lat="48.81241" lon="6.1263">
        <ele>190.6</ele>
        <time>2021-07-29T12:47:23Z</time>
      </trkpt>
      <trkpt lat="48.81234" lon="6.12629">
        <ele>190.8</ele>
        <time>2021-07-29T12:47:27Z</time>
      </trkpt>
      <trkpt lat="48.81231" lon="6.12628">
        <ele>190.9</ele>
        <time>2021-07-29T12:47:28Z</time>
      </trkpt>
      <trkpt lat="48.81227" lon="6.12628">
        <ele>191</ele>
        <time>2021-07-29T12:47:30Z</time>
      </trkpt>
      <trkpt lat="48.81223" lon="6.12627">
        <ele>191.2</ele>
        <time>2021-07-29T12:47:31Z</time>
      </trkpt>
      <trkpt lat="48.81219" lon="6.12627">
        <ele>191.3</ele>
        <time>2021-07-29T12:47:32Z</time>
      </trkpt>
      <trkpt lat="48.81215" lon="6.12626">
        <ele>191.5</ele>
        <time>2021-07-29T12:47:33Z</time>
      </trkpt>
      <trkpt lat="48.81213" lon="6.12626">
        <ele>191.5</ele>
        <time>2021-07-29T12:47:34Z</time>
      </trkpt>
      <trkpt lat="48.8121" lon="6.12625">
        <ele>191.6</ele>
        <time>2021-07-29T12:47:36Z</time>
      </trkpt>
      <trkpt lat="48.81207" lon="6.12623">
        <ele>191.7</ele>
        <time>2021-07-29T12:47:37Z</time>
      </trkpt>
      <trkpt lat="48.81204" lon="6.12622">
        <ele>191.8</ele>
        <time>2021-07-29T12:47:39Z</time>
      </trkpt>
      <trkpt lat="48.81203" lon="6.12623">
        <ele>191.9</ele>
        <time>2021-07-29T12:47:40Z</time>
      </trkpt>
      <trkpt lat="48.81198" lon="6.12622">
        <ele>192</ele>
        <time>2021-07-29T12:47:41Z</time>
      </trkpt>
      <trkpt lat="48.81196" lon="6.12622">
        <ele>192.1</ele>
        <time>2021-07-29T12:47:42Z</time>
      </trkpt>
      <trkpt lat="48.81193" lon="6.12622">
        <ele>192.2</ele>
        <time>2021-07-29T12:47:43Z</time>
      </trkpt>
      <trkpt lat="48.8119" lon="6.12622">
        <ele>192.3</ele>
        <time>2021-07-29T12:47:44Z</time>
      </trkpt>
      <trkpt lat="48.81186" lon="6.12622">
        <ele>192.5</ele>
        <time>2021-07-29T12:47:45Z</time>
      </trkpt>
      <trkpt lat="48.81182" lon="6.12622">
        <ele>192.6</ele>
        <time>2021-07-29T12:47:47Z</time>
      </trkpt>
      <trkpt lat="48.8118" lon="6.12622">
        <ele>192.7</ele>
        <time>2021-07-29T12:47:48Z</time>
      </trkpt>
      <trkpt lat="48.81178" lon="6.12622">
        <ele>192.7</ele>
        <time>2021-07-29T12:47:49Z</time>
      </trkpt>
      <trkpt lat="48.81175" lon="6.12621">
        <ele>192.9</ele>
        <time>2021-07-29T12:47:50Z</time>
      </trkpt>
      <trkpt lat="48.81171" lon="6.1262">
        <ele>193</ele>
        <time>2021-07-29T12:47:51Z</time>
      </trkpt>
      <trkpt lat="48.81167" lon="6.12621">
        <ele>193.1</ele>
        <time>2021-07-29T12:47:52Z</time>
      </trkpt>
      <trkpt lat="48.81164" lon="6.1262">
        <ele>193.2</ele>
        <time>2021-07-29T12:47:53Z</time>
      </trkpt>
      <trkpt lat="48.81161" lon="6.12619">
        <ele>193.3</ele>
        <time>2021-07-29T12:47:54Z</time>
      </trkpt>
      <trkpt lat="48.81161" lon="6.12619">
        <ele>193.4</ele>
        <time>2021-07-29T12:47:55Z</time>
      </trkpt>
      <trkpt lat="48.81157" lon="6.12617">
        <ele>193.5</ele>
        <time>2021-07-29T12:47:57Z</time>
      </trkpt>
      <trkpt lat="48.81156" lon="6.12617">
        <ele>193.5</ele>
        <time>2021-07-29T12:47:58Z</time>
      </trkpt>
      <trkpt lat="48.81153" lon="6.12614">
        <ele>193.7</ele>
        <time>2021-07-29T12:47:59Z</time>
      </trkpt>
      <trkpt lat="48.81153" lon="6.12613">
        <ele>193.7</ele>
        <time>2021-07-29T12:48:00Z</time>
      </trkpt>
      <trkpt lat="48.8115" lon="6.12611">
        <ele>193.8</ele>
        <time>2021-07-29T12:48:01Z</time>
      </trkpt>
      <trkpt lat="48.81149" lon="6.1261">
        <ele>193.9</ele>
        <time>2021-07-29T12:48:02Z</time>
      </trkpt>
      <trkpt lat="48.81146" lon="6.12609">
        <ele>194</ele>
        <time>2021-07-29T12:48:03Z</time>
      </trkpt>
      <trkpt lat="48.81143" lon="6.12608">
        <ele>194.1</ele>
        <time>2021-07-29T12:48:04Z</time>
      </trkpt>
      <trkpt lat="48.81139" lon="6.12605">
        <ele>194.3</ele>
        <time>2021-07-29T12:48:06Z</time>
      </trkpt>
      <trkpt lat="48.81138" lon="6.12604">
        <ele>194.3</ele>
        <time>2021-07-29T12:48:07Z</time>
      </trkpt>
      <trkpt lat="48.81134" lon="6.12602">
        <ele>194.4</ele>
        <time>2021-07-29T12:48:08Z</time>
      </trkpt>
      <trkpt lat="48.81132" lon="6.126">
        <ele>194.4</ele>
        <time>2021-07-29T12:48:09Z</time>
      </trkpt>
      <trkpt lat="48.8113" lon="6.12595">
        <ele>194.4</ele>
        <time>2021-07-29T12:48:11Z</time>
      </trkpt>
      <trkpt lat="48.81127" lon="6.12592">
        <ele>194.4</ele>
        <time>2021-07-29T12:48:12Z</time>
      </trkpt>
      <trkpt lat="48.81126" lon="6.12591">
        <ele>194.4</ele>
        <time>2021-07-29T12:48:13Z</time>
      </trkpt>
      <trkpt lat="48.81123" lon="6.12589">
        <ele>194.3</ele>
        <time>2021-07-29T12:48:14Z</time>
      </trkpt>
      <trkpt lat="48.81115" lon="6.12585">
        <ele>194.2</ele>
        <time>2021-07-29T12:48:16Z</time>
      </trkpt>
      <trkpt lat="48.81111" lon="6.12583">
        <ele>194.1</ele>
        <time>2021-07-29T12:48:17Z</time>
      </trkpt>
      <trkpt lat="48.81107" lon="6.1258">
        <ele>194.1</ele>
        <time>2021-07-29T12:48:18Z</time>
      </trkpt>
      <trkpt lat="48.81104" lon="6.12578">
        <ele>194</ele>
        <time>2021-07-29T12:48:19Z</time>
      </trkpt>
      <trkpt lat="48.81099" lon="6.12575">
        <ele>194</ele>
        <time>2021-07-29T12:48:20Z</time>
      </trkpt>
      <trkpt lat="48.81089" lon="6.12572">
        <ele>193.9</ele>
        <time>2021-07-29T12:48:22Z</time>
      </trkpt>
      <trkpt lat="48.81085" lon="6.1257">
        <ele>193.9</ele>
        <time>2021-07-29T12:48:23Z</time>
      </trkpt>
      <trkpt lat="48.81078" lon="6.12565">
        <ele>193.9</ele>
        <time>2021-07-29T12:48:25Z</time>
      </trkpt>
      <trkpt lat="48.81075" lon="6.12563">
        <ele>193.9</ele>
        <time>2021-07-29T12:48:26Z</time>
      </trkpt>
      <trkpt lat="48.81068" lon="6.12558">
        <ele>194</ele>
        <time>2021-07-29T12:48:28Z</time>
      </trkpt>
      <trkpt lat="48.81058" lon="6.12553">
        <ele>194</ele>
        <time>2021-07-29T12:48:29Z</time>
      </trkpt>
      <trkpt lat="48.81053" lon="6.1255">
        <ele>194</ele>
        <time>2021-07-29T12:48:30Z</time>
      </trkpt>
      <trkpt lat="48.81045" lon="6.12546">
        <ele>194.1</ele>
        <time>2021-07-29T12:48:32Z</time>
      </trkpt>
      <trkpt lat="48.81041" lon="6.12543">
        <ele>194.1</ele>
        <time>2021-07-29T12:48:33Z</time>
      </trkpt>
      <trkpt lat="48.81037" lon="6.12539">
        <ele>194.1</ele>
        <time>2021-07-29T12:48:35Z</time>
      </trkpt>
      <trkpt lat="48.81031" lon="6.12536">
        <ele>194.1</ele>
        <time>2021-07-29T12:48:36Z</time>
      </trkpt>
      <trkpt lat="48.81026" lon="6.12533">
        <ele>194.1</ele>
        <time>2021-07-29T12:48:38Z</time>
      </trkpt>
      <trkpt lat="48.8102" lon="6.12531">
        <ele>194.2</ele>
        <time>2021-07-29T12:48:40Z</time>
      </trkpt>
      <trkpt lat="48.81017" lon="6.12529">
        <ele>194.1</ele>
        <time>2021-07-29T12:48:41Z</time>
      </trkpt>
      <trkpt lat="48.81012" lon="6.12525">
        <ele>194.1</ele>
        <time>2021-07-29T12:48:42Z</time>
      </trkpt>
      <trkpt lat="48.81008" lon="6.12523">
        <ele>194</ele>
        <time>2021-07-29T12:48:44Z</time>
      </trkpt>
      <trkpt lat="48.81004" lon="6.12522">
        <ele>193.9</ele>
        <time>2021-07-29T12:48:45Z</time>
      </trkpt>
      <trkpt lat="48.80999" lon="6.12519">
        <ele>193.8</ele>
        <time>2021-07-29T12:48:46Z</time>
      </trkpt>
      <trkpt lat="48.80993" lon="6.12515">
        <ele>193.5</ele>
        <time>2021-07-29T12:48:47Z</time>
      </trkpt>
      <trkpt lat="48.80987" lon="6.12512">
        <ele>193.3</ele>
        <time>2021-07-29T12:48:48Z</time>
      </trkpt>
      <trkpt lat="48.80976" lon="6.12503">
        <ele>192.5</ele>
        <time>2021-07-29T12:48:50Z</time>
      </trkpt>
      <trkpt lat="48.80966" lon="6.12492">
        <ele>191.3</ele>
        <time>2021-07-29T12:48:52Z</time>
      </trkpt>
      <trkpt lat="48.80959" lon="6.12486">
        <ele>190.6</ele>
        <time>2021-07-29T12:48:53Z</time>
      </trkpt>
      <trkpt lat="48.80946" lon="6.12472">
        <ele>189</ele>
        <time>2021-07-29T12:48:55Z</time>
      </trkpt>
      <trkpt lat="48.80941" lon="6.12465">
        <ele>188.4</ele>
        <time>2021-07-29T12:48:56Z</time>
      </trkpt>
      <trkpt lat="48.80931" lon="6.12448">
        <ele>187.3</ele>
        <time>2021-07-29T12:48:58Z</time>
      </trkpt>
      <trkpt lat="48.8092" lon="6.12432">
        <ele>186.4</ele>
        <time>2021-07-29T12:49:00Z</time>
      </trkpt>
      <trkpt lat="48.80916" lon="6.12423">
        <ele>186.1</ele>
        <time>2021-07-29T12:49:01Z</time>
      </trkpt>
      <trkpt lat="48.80911" lon="6.12416">
        <ele>185.8</ele>
        <time>2021-07-29T12:49:02Z</time>
      </trkpt>
      <trkpt lat="48.80903" lon="6.12403">
        <ele>185.5</ele>
        <time>2021-07-29T12:49:04Z</time>
      </trkpt>
      <trkpt lat="48.809" lon="6.12396">
        <ele>185.4</ele>
        <time>2021-07-29T12:49:05Z</time>
      </trkpt>
      <trkpt lat="48.80896" lon="6.12384">
        <ele>185.2</ele>
        <time>2021-07-29T12:49:07Z</time>
      </trkpt>
      <trkpt lat="48.80894" lon="6.12379">
        <ele>185.1</ele>
        <time>2021-07-29T12:49:08Z</time>
      </trkpt>
      <trkpt lat="48.80889" lon="6.12369">
        <ele>184.9</ele>
        <time>2021-07-29T12:49:10Z</time>
      </trkpt>
      <trkpt lat="48.80883" lon="6.12357">
        <ele>184.8</ele>
        <time>2021-07-29T12:49:12Z</time>
      </trkpt>
      <trkpt lat="48.80878" lon="6.12347">
        <ele>184.6</ele>
        <time>2021-07-29T12:49:14Z</time>
      </trkpt>
      <trkpt lat="48.80869" lon="6.12343">
        <ele>184.5</ele>
        <time>2021-07-29T12:49:16Z</time>
      </trkpt>
      <trkpt lat="48.80865" lon="6.12336">
        <ele>184.5</ele>
        <time>2021-07-29T12:49:17Z</time>
      </trkpt>
      <trkpt lat="48.80858" lon="6.12325">
        <ele>184.4</ele>
        <time>2021-07-29T12:49:19Z</time>
      </trkpt>
      <trkpt lat="48.80857" lon="6.1232">
        <ele>184.4</ele>
        <time>2021-07-29T12:49:20Z</time>
      </trkpt>
      <trkpt lat="48.80852" lon="6.1231">
        <ele>184.3</ele>
        <time>2021-07-29T12:49:22Z</time>
      </trkpt>
      <trkpt lat="48.80848" lon="6.12302">
        <ele>184.3</ele>
        <time>2021-07-29T12:49:23Z</time>
      </trkpt>
      <trkpt lat="48.80844" lon="6.12296">
        <ele>184.3</ele>
        <time>2021-07-29T12:49:24Z</time>
      </trkpt>
      <trkpt lat="48.80839" lon="6.12284">
        <ele>184.3</ele>
        <time>2021-07-29T12:49:26Z</time>
      </trkpt>
      <trkpt lat="48.80832" lon="6.12272">
        <ele>184.4</ele>
        <time>2021-07-29T12:49:28Z</time>
      </trkpt>
      <trkpt lat="48.80828" lon="6.12267">
        <ele>184.4</ele>
        <time>2021-07-29T12:49:29Z</time>
      </trkpt>
      <trkpt lat="48.80822" lon="6.12257">
        <ele>184.5</ele>
        <time>2021-07-29T12:49:31Z</time>
      </trkpt>
      <trkpt lat="48.80819" lon="6.12252">
        <ele>184.5</ele>
        <time>2021-07-29T12:49:32Z</time>
      </trkpt>
      <trkpt lat="48.80816" lon="6.12245">
        <ele>184.6</ele>
        <time>2021-07-29T12:49:33Z</time>
      </trkpt>
      <trkpt lat="48.80814" lon="6.12238">
        <ele>184.6</ele>
        <time>2021-07-29T12:49:35Z</time>
      </trkpt>
      <trkpt lat="48.80811" lon="6.12234">
        <ele>184.7</ele>
        <time>2021-07-29T12:49:36Z</time>
      </trkpt>
      <trkpt lat="48.808" lon="6.1222">
        <ele>184.7</ele>
        <time>2021-07-29T12:49:38Z</time>
      </trkpt>
      <trkpt lat="48.80792" lon="6.12211">
        <ele>184.8</ele>
        <time>2021-07-29T12:49:40Z</time>
      </trkpt>
      <trkpt lat="48.80787" lon="6.12206">
        <ele>184.8</ele>
        <time>2021-07-29T12:49:41Z</time>
      </trkpt>
      <trkpt lat="48.80784" lon="6.122">
        <ele>184.9</ele>
        <time>2021-07-29T12:49:43Z</time>
      </trkpt>
      <trkpt lat="48.80781" lon="6.12192">
        <ele>184.9</ele>
        <time>2021-07-29T12:49:44Z</time>
      </trkpt>
      <trkpt lat="48.80778" lon="6.12185">
        <ele>184.9</ele>
        <time>2021-07-29T12:49:46Z</time>
      </trkpt>
      <trkpt lat="48.80777" lon="6.1218">
        <ele>185</ele>
        <time>2021-07-29T12:49:47Z</time>
      </trkpt>
      <trkpt lat="48.80775" lon="6.12171">
        <ele>185</ele>
        <time>2021-07-29T12:49:48Z</time>
      </trkpt>
      <trkpt lat="48.80773" lon="6.12162">
        <ele>185</ele>
        <time>2021-07-29T12:49:49Z</time>
      </trkpt>
      <trkpt lat="48.80771" lon="6.12152">
        <ele>185</ele>
        <time>2021-07-29T12:49:51Z</time>
      </trkpt>
      <trkpt lat="48.80767" lon="6.1214">
        <ele>185</ele>
        <time>2021-07-29T12:49:53Z</time>
      </trkpt>
      <trkpt lat="48.80764" lon="6.12133">
        <ele>185</ele>
        <time>2021-07-29T12:49:54Z</time>
      </trkpt>
      <trkpt lat="48.80761" lon="6.12128">
        <ele>185</ele>
        <time>2021-07-29T12:49:55Z</time>
      </trkpt>
      <trkpt lat="48.80759" lon="6.12123">
        <ele>185</ele>
        <time>2021-07-29T12:49:56Z</time>
      </trkpt>
      <trkpt lat="48.80756" lon="6.12117">
        <ele>185.1</ele>
        <time>2021-07-29T12:49:57Z</time>
      </trkpt>
      <trkpt lat="48.80755" lon="6.12112">
        <ele>185.1</ele>
        <time>2021-07-29T12:49:59Z</time>
      </trkpt>
      <trkpt lat="48.80754" lon="6.12105">
        <ele>185.2</ele>
        <time>2021-07-29T12:50:00Z</time>
      </trkpt>
      <trkpt lat="48.80752" lon="6.12099">
        <ele>185.2</ele>
        <time>2021-07-29T12:50:01Z</time>
      </trkpt>
      <trkpt lat="48.80751" lon="6.12095">
        <ele>185.2</ele>
        <time>2021-07-29T12:50:02Z</time>
      </trkpt>
      <trkpt lat="48.80749" lon="6.12091">
        <ele>185.3</ele>
        <time>2021-07-29T12:50:03Z</time>
      </trkpt>
      <trkpt lat="48.80747" lon="6.12087">
        <ele>185.3</ele>
        <time>2021-07-29T12:50:04Z</time>
      </trkpt>
      <trkpt lat="48.80743" lon="6.1208">
        <ele>185.3</ele>
        <time>2021-07-29T12:50:06Z</time>
      </trkpt>
      <trkpt lat="48.8074" lon="6.12076">
        <ele>185.4</ele>
        <time>2021-07-29T12:50:07Z</time>
      </trkpt>
      <trkpt lat="48.80738" lon="6.12071">
        <ele>185.4</ele>
        <time>2021-07-29T12:50:08Z</time>
      </trkpt>
      <trkpt lat="48.80735" lon="6.12065">
        <ele>185.5</ele>
        <time>2021-07-29T12:50:09Z</time>
      </trkpt>
      <trkpt lat="48.80731" lon="6.12061">
        <ele>185.5</ele>
        <time>2021-07-29T12:50:11Z</time>
      </trkpt>
      <trkpt lat="48.80728" lon="6.12058">
        <ele>185.6</ele>
        <time>2021-07-29T12:50:12Z</time>
      </trkpt>
      <trkpt lat="48.80727" lon="6.12056">
        <ele>185.6</ele>
        <time>2021-07-29T12:50:13Z</time>
      </trkpt>
      <trkpt lat="48.80724" lon="6.12053">
        <ele>185.6</ele>
        <time>2021-07-29T12:50:15Z</time>
      </trkpt>
      <trkpt lat="48.80722" lon="6.1205">
        <ele>185.7</ele>
        <time>2021-07-29T12:50:16Z</time>
      </trkpt>
      <trkpt lat="48.8072" lon="6.12046">
        <ele>185.8</ele>
        <time>2021-07-29T12:50:17Z</time>
      </trkpt>
      <trkpt lat="48.80717" lon="6.12042">
        <ele>185.9</ele>
        <time>2021-07-29T12:50:19Z</time>
      </trkpt>
      <trkpt lat="48.80716" lon="6.12041">
        <ele>185.9</ele>
        <time>2021-07-29T12:50:20Z</time>
      </trkpt>
      <trkpt lat="48.80714" lon="6.12039">
        <ele>186</ele>
        <time>2021-07-29T12:50:21Z</time>
      </trkpt>
      <trkpt lat="48.80711" lon="6.12036">
        <ele>186.1</ele>
        <time>2021-07-29T12:50:23Z</time>
      </trkpt>
      <trkpt lat="48.80708" lon="6.12033">
        <ele>186.2</ele>
        <time>2021-07-29T12:50:24Z</time>
      </trkpt>
      <trkpt lat="48.80707" lon="6.12031">
        <ele>186.3</ele>
        <time>2021-07-29T12:50:25Z</time>
      </trkpt>
      <trkpt lat="48.80703" lon="6.1203">
        <ele>186.4</ele>
        <time>2021-07-29T12:50:27Z</time>
      </trkpt>
      <trkpt lat="48.80701" lon="6.1203">
        <ele>186.4</ele>
        <time>2021-07-29T12:50:28Z</time>
      </trkpt>
      <trkpt lat="48.80696" lon="6.1203">
        <ele>186.5</ele>
        <time>2021-07-29T12:50:30Z</time>
      </trkpt>
      <trkpt lat="48.80695" lon="6.12031">
        <ele>186.4</ele>
        <time>2021-07-29T12:50:31Z</time>
      </trkpt>
      <trkpt lat="48.80693" lon="6.12031">
        <ele>186.4</ele>
        <time>2021-07-29T12:50:32Z</time>
      </trkpt>
      <trkpt lat="48.80688" lon="6.12033">
        <ele>186.3</ele>
        <time>2021-07-29T12:50:33Z</time>
      </trkpt>
      <trkpt lat="48.80684" lon="6.12032">
        <ele>186.3</ele>
        <time>2021-07-29T12:50:34Z</time>
      </trkpt>
      <trkpt lat="48.80677" lon="6.1203">
        <ele>185.9</ele>
        <time>2021-07-29T12:50:36Z</time>
      </trkpt>
      <trkpt lat="48.80671" lon="6.12025">
        <ele>185.8</ele>
        <time>2021-07-29T12:50:37Z</time>
      </trkpt>
      <trkpt lat="48.80666" lon="6.12017">
        <ele>185.8</ele>
        <time>2021-07-29T12:50:39Z</time>
      </trkpt>
      <trkpt lat="48.80664" lon="6.12009">
        <ele>185.7</ele>
        <time>2021-07-29T12:50:41Z</time>
      </trkpt>
      <trkpt lat="48.80662" lon="6.12003">
        <ele>185.7</ele>
        <time>2021-07-29T12:50:42Z</time>
      </trkpt>
      <trkpt lat="48.8066" lon="6.11997">
        <ele>185.7</ele>
        <time>2021-07-29T12:50:43Z</time>
      </trkpt>
      <trkpt lat="48.80657" lon="6.1199">
        <ele>185.7</ele>
        <time>2021-07-29T12:50:44Z</time>
      </trkpt>
      <trkpt lat="48.80653" lon="6.11982">
        <ele>185.6</ele>
        <time>2021-07-29T12:50:46Z</time>
      </trkpt>
      <trkpt lat="48.80651" lon="6.11973">
        <ele>185.6</ele>
        <time>2021-07-29T12:50:47Z</time>
      </trkpt>
      <trkpt lat="48.80649" lon="6.11964">
        <ele>185.6</ele>
        <time>2021-07-29T12:50:48Z</time>
      </trkpt>
      <trkpt lat="48.80648" lon="6.11956">
        <ele>185.6</ele>
        <time>2021-07-29T12:50:50Z</time>
      </trkpt>
      <trkpt lat="48.80647" lon="6.11944">
        <ele>185.5</ele>
        <time>2021-07-29T12:50:52Z</time>
      </trkpt>
      <trkpt lat="48.80645" lon="6.11939">
        <ele>185.5</ele>
        <time>2021-07-29T12:50:53Z</time>
      </trkpt>
      <trkpt lat="48.8064" lon="6.11933">
        <ele>185.5</ele>
        <time>2021-07-29T12:50:54Z</time>
      </trkpt>
      <trkpt lat="48.80636" lon="6.11928">
        <ele>185.5</ele>
        <time>2021-07-29T12:50:55Z</time>
      </trkpt>
      <trkpt lat="48.80633" lon="6.1192">
        <ele>185.4</ele>
        <time>2021-07-29T12:50:56Z</time>
      </trkpt>
      <trkpt lat="48.80627" lon="6.1191">
        <ele>185.4</ele>
        <time>2021-07-29T12:50:58Z</time>
      </trkpt>
      <trkpt lat="48.80625" lon="6.11905">
        <ele>185.4</ele>
        <time>2021-07-29T12:51:00Z</time>
      </trkpt>
      <trkpt lat="48.8062" lon="6.11898">
        <ele>185.4</ele>
        <time>2021-07-29T12:51:01Z</time>
      </trkpt>
      <trkpt lat="48.80616" lon="6.11894">
        <ele>185.4</ele>
        <time>2021-07-29T12:51:03Z</time>
      </trkpt>
      <trkpt lat="48.8061" lon="6.11889">
        <ele>185.3</ele>
        <time>2021-07-29T12:51:04Z</time>
      </trkpt>
      <trkpt lat="48.80605" lon="6.11883">
        <ele>185.3</ele>
        <time>2021-07-29T12:51:06Z</time>
      </trkpt>
      <trkpt lat="48.806" lon="6.11877">
        <ele>185.4</ele>
        <time>2021-07-29T12:51:07Z</time>
      </trkpt>
      <trkpt lat="48.80595" lon="6.11871">
        <ele>185.4</ele>
        <time>2021-07-29T12:51:09Z</time>
      </trkpt>
      <trkpt lat="48.8059" lon="6.11867">
        <ele>185.4</ele>
        <time>2021-07-29T12:51:10Z</time>
      </trkpt>
      <trkpt lat="48.80587" lon="6.11864">
        <ele>185.4</ele>
        <time>2021-07-29T12:51:11Z</time>
      </trkpt>
      <trkpt lat="48.80583" lon="6.11857">
        <ele>185.5</ele>
        <time>2021-07-29T12:51:13Z</time>
      </trkpt>
      <trkpt lat="48.80579" lon="6.11852">
        <ele>185.5</ele>
        <time>2021-07-29T12:51:14Z</time>
      </trkpt>
      <trkpt lat="48.80575" lon="6.11846">
        <ele>185.5</ele>
        <time>2021-07-29T12:51:15Z</time>
      </trkpt>
      <trkpt lat="48.80571" lon="6.1184">
        <ele>185.5</ele>
        <time>2021-07-29T12:51:16Z</time>
      </trkpt>
      <trkpt lat="48.80568" lon="6.11833">
        <ele>185.6</ele>
        <time>2021-07-29T12:51:18Z</time>
      </trkpt>
      <trkpt lat="48.80565" lon="6.11828">
        <ele>185.6</ele>
        <time>2021-07-29T12:51:19Z</time>
      </trkpt>
      <trkpt lat="48.80563" lon="6.11825">
        <ele>185.6</ele>
        <time>2021-07-29T12:51:20Z</time>
      </trkpt>
      <trkpt lat="48.80558" lon="6.1182">
        <ele>185.7</ele>
        <time>2021-07-29T12:51:21Z</time>
      </trkpt>
      <trkpt lat="48.80554" lon="6.11817">
        <ele>185.7</ele>
        <time>2021-07-29T12:51:22Z</time>
      </trkpt>
      <trkpt lat="48.80551" lon="6.11814">
        <ele>185.7</ele>
        <time>2021-07-29T12:51:23Z</time>
      </trkpt>
      <trkpt lat="48.80548" lon="6.1181">
        <ele>185.8</ele>
        <time>2021-07-29T12:51:24Z</time>
      </trkpt>
      <trkpt lat="48.80544" lon="6.11806">
        <ele>185.8</ele>
        <time>2021-07-29T12:51:26Z</time>
      </trkpt>
      <trkpt lat="48.80539" lon="6.11797">
        <ele>185.9</ele>
        <time>2021-07-29T12:51:28Z</time>
      </trkpt>
      <trkpt lat="48.80536" lon="6.11792">
        <ele>185.9</ele>
        <time>2021-07-29T12:51:29Z</time>
      </trkpt>
      <trkpt lat="48.80532" lon="6.11786">
        <ele>186</ele>
        <time>2021-07-29T12:51:31Z</time>
      </trkpt>
      <trkpt lat="48.80531" lon="6.11782">
        <ele>186</ele>
        <time>2021-07-29T12:51:32Z</time>
      </trkpt>
      <trkpt lat="48.80529" lon="6.11775">
        <ele>186.1</ele>
        <time>2021-07-29T12:51:33Z</time>
      </trkpt>
      <trkpt lat="48.80526" lon="6.1177">
        <ele>186.1</ele>
        <time>2021-07-29T12:51:35Z</time>
      </trkpt>
      <trkpt lat="48.80524" lon="6.11766">
        <ele>186.1</ele>
        <time>2021-07-29T12:51:36Z</time>
      </trkpt>
      <trkpt lat="48.80521" lon="6.11758">
        <ele>186.1</ele>
        <time>2021-07-29T12:51:38Z</time>
      </trkpt>
      <trkpt lat="48.8052" lon="6.11752">
        <ele>186.2</ele>
        <time>2021-07-29T12:51:39Z</time>
      </trkpt>
      <trkpt lat="48.80518" lon="6.11749">
        <ele>186.2</ele>
        <time>2021-07-29T12:51:40Z</time>
      </trkpt>
      <trkpt lat="48.80517" lon="6.11745">
        <ele>186.2</ele>
        <time>2021-07-29T12:51:42Z</time>
      </trkpt>
      <trkpt lat="48.80516" lon="6.11742">
        <ele>186.2</ele>
        <time>2021-07-29T12:51:43Z</time>
      </trkpt>
      <trkpt lat="48.80513" lon="6.11738">
        <ele>186.2</ele>
        <time>2021-07-29T12:51:44Z</time>
      </trkpt>
      <trkpt lat="48.8051" lon="6.11732">
        <ele>186.2</ele>
        <time>2021-07-29T12:51:45Z</time>
      </trkpt>
      <trkpt lat="48.80508" lon="6.11727">
        <ele>186.2</ele>
        <time>2021-07-29T12:51:47Z</time>
      </trkpt>
      <trkpt lat="48.80505" lon="6.11723">
        <ele>186.2</ele>
        <time>2021-07-29T12:51:48Z</time>
      </trkpt>
      <trkpt lat="48.80501" lon="6.11717">
        <ele>186.2</ele>
        <time>2021-07-29T12:51:49Z</time>
      </trkpt>
      <trkpt lat="48.80498" lon="6.11715">
        <ele>186.2</ele>
        <time>2021-07-29T12:51:50Z</time>
      </trkpt>
      <trkpt lat="48.80494" lon="6.11712">
        <ele>186.3</ele>
        <time>2021-07-29T12:51:52Z</time>
      </trkpt>
      <trkpt lat="48.80491" lon="6.11709">
        <ele>186.3</ele>
        <time>2021-07-29T12:51:53Z</time>
      </trkpt>
      <trkpt lat="48.80487" lon="6.11705">
        <ele>186.3</ele>
        <time>2021-07-29T12:51:54Z</time>
      </trkpt>
      <trkpt lat="48.80483" lon="6.11701">
        <ele>186.3</ele>
        <time>2021-07-29T12:51:55Z</time>
      </trkpt>
      <trkpt lat="48.8048" lon="6.11698">
        <ele>186.3</ele>
        <time>2021-07-29T12:51:56Z</time>
      </trkpt>
      <trkpt lat="48.80476" lon="6.11696">
        <ele>186.3</ele>
        <time>2021-07-29T12:51:58Z</time>
      </trkpt>
      <trkpt lat="48.8047" lon="6.11692">
        <ele>186.3</ele>
        <time>2021-07-29T12:52:00Z</time>
      </trkpt>
      <trkpt lat="48.80464" lon="6.11688">
        <ele>186.4</ele>
        <time>2021-07-29T12:52:01Z</time>
      </trkpt>
      <trkpt lat="48.80461" lon="6.11684">
        <ele>186.4</ele>
        <time>2021-07-29T12:52:03Z</time>
      </trkpt>
      <trkpt lat="48.80458" lon="6.11679">
        <ele>186.4</ele>
        <time>2021-07-29T12:52:04Z</time>
      </trkpt>
      <trkpt lat="48.80455" lon="6.11675">
        <ele>186.4</ele>
        <time>2021-07-29T12:52:05Z</time>
      </trkpt>
      <trkpt lat="48.80452" lon="6.11671">
        <ele>186.4</ele>
        <time>2021-07-29T12:52:06Z</time>
      </trkpt>
      <trkpt lat="48.80444" lon="6.11666">
        <ele>186.4</ele>
        <time>2021-07-29T12:52:08Z</time>
      </trkpt>
      <trkpt lat="48.80439" lon="6.11661">
        <ele>186.4</ele>
        <time>2021-07-29T12:52:09Z</time>
      </trkpt>
      <trkpt lat="48.80436" lon="6.11657">
        <ele>186.4</ele>
        <time>2021-07-29T12:52:10Z</time>
      </trkpt>
      <trkpt lat="48.80433" lon="6.11653">
        <ele>186.4</ele>
        <time>2021-07-29T12:52:11Z</time>
      </trkpt>
      <trkpt lat="48.80431" lon="6.11649">
        <ele>186.4</ele>
        <time>2021-07-29T12:52:12Z</time>
      </trkpt>
      <trkpt lat="48.80429" lon="6.11644">
        <ele>186.4</ele>
        <time>2021-07-29T12:52:14Z</time>
      </trkpt>
      <trkpt lat="48.80428" lon="6.11639">
        <ele>186.4</ele>
        <time>2021-07-29T12:52:15Z</time>
      </trkpt>
      <trkpt lat="48.80425" lon="6.11629">
        <ele>186.4</ele>
        <time>2021-07-29T12:52:17Z</time>
      </trkpt>
      <trkpt lat="48.80422" lon="6.11624">
        <ele>186.4</ele>
        <time>2021-07-29T12:52:18Z</time>
      </trkpt>
      <trkpt lat="48.80421" lon="6.11622">
        <ele>186.4</ele>
        <time>2021-07-29T12:52:19Z</time>
      </trkpt>
      <trkpt lat="48.80418" lon="6.11619">
        <ele>186.4</ele>
        <time>2021-07-29T12:52:20Z</time>
      </trkpt>
      <trkpt lat="48.80415" lon="6.11615">
        <ele>186.4</ele>
        <time>2021-07-29T12:52:22Z</time>
      </trkpt>
      <trkpt lat="48.80414" lon="6.11609">
        <ele>186.4</ele>
        <time>2021-07-29T12:52:23Z</time>
      </trkpt>
      <trkpt lat="48.80412" lon="6.11605">
        <ele>186.4</ele>
        <time>2021-07-29T12:52:24Z</time>
      </trkpt>
      <trkpt lat="48.80408" lon="6.11598">
        <ele>186.3</ele>
        <time>2021-07-29T12:52:26Z</time>
      </trkpt>
      <trkpt lat="48.80403" lon="6.11589">
        <ele>186.3</ele>
        <time>2021-07-29T12:52:28Z</time>
      </trkpt>
      <trkpt lat="48.804" lon="6.11585">
        <ele>186.3</ele>
        <time>2021-07-29T12:52:29Z</time>
      </trkpt>
      <trkpt lat="48.80397" lon="6.11579">
        <ele>186.2</ele>
        <time>2021-07-29T12:52:30Z</time>
      </trkpt>
      <trkpt lat="48.80393" lon="6.11568">
        <ele>186.1</ele>
        <time>2021-07-29T12:52:32Z</time>
      </trkpt>
      <trkpt lat="48.80388" lon="6.11557">
        <ele>186</ele>
        <time>2021-07-29T12:52:34Z</time>
      </trkpt>
      <trkpt lat="48.80385" lon="6.11551">
        <ele>186</ele>
        <time>2021-07-29T12:52:35Z</time>
      </trkpt>
      <trkpt lat="48.80381" lon="6.11541">
        <ele>185.9</ele>
        <time>2021-07-29T12:52:37Z</time>
      </trkpt>
      <trkpt lat="48.80379" lon="6.11536">
        <ele>185.9</ele>
        <time>2021-07-29T12:52:38Z</time>
      </trkpt>
      <trkpt lat="48.80374" lon="6.11528">
        <ele>185.8</ele>
        <time>2021-07-29T12:52:39Z</time>
      </trkpt>
      <trkpt lat="48.80372" lon="6.11523">
        <ele>185.8</ele>
        <time>2021-07-29T12:52:41Z</time>
      </trkpt>
      <trkpt lat="48.8037" lon="6.11517">
        <ele>185.8</ele>
        <time>2021-07-29T12:52:42Z</time>
      </trkpt>
      <trkpt lat="48.80368" lon="6.11512">
        <ele>185.7</ele>
        <time>2021-07-29T12:52:43Z</time>
      </trkpt>
      <trkpt lat="48.80366" lon="6.11506">
        <ele>185.7</ele>
        <time>2021-07-29T12:52:44Z</time>
      </trkpt>
      <trkpt lat="48.80365" lon="6.11501">
        <ele>185.7</ele>
        <time>2021-07-29T12:52:45Z</time>
      </trkpt>
      <trkpt lat="48.80364" lon="6.11496">
        <ele>185.6</ele>
        <time>2021-07-29T12:52:46Z</time>
      </trkpt>
      <trkpt lat="48.8036" lon="6.11488">
        <ele>185.6</ele>
        <time>2021-07-29T12:52:48Z</time>
      </trkpt>
      <trkpt lat="48.80357" lon="6.11484">
        <ele>185.6</ele>
        <time>2021-07-29T12:52:49Z</time>
      </trkpt>
      <trkpt lat="48.80354" lon="6.11481">
        <ele>185.5</ele>
        <time>2021-07-29T12:52:50Z</time>
      </trkpt>
      <trkpt lat="48.80351" lon="6.11478">
        <ele>185.5</ele>
        <time>2021-07-29T12:52:51Z</time>
      </trkpt>
      <trkpt lat="48.80347" lon="6.11475">
        <ele>185.5</ele>
        <time>2021-07-29T12:52:52Z</time>
      </trkpt>
      <trkpt lat="48.80343" lon="6.11471">
        <ele>185.5</ele>
        <time>2021-07-29T12:52:53Z</time>
      </trkpt>
      <trkpt lat="48.8034" lon="6.11467">
        <ele>185.5</ele>
        <time>2021-07-29T12:52:55Z</time>
      </trkpt>
      <trkpt lat="48.80338" lon="6.11461">
        <ele>185.5</ele>
        <time>2021-07-29T12:52:56Z</time>
      </trkpt>
      <trkpt lat="48.80336" lon="6.11456">
        <ele>185.5</ele>
        <time>2021-07-29T12:52:57Z</time>
      </trkpt>
      <trkpt lat="48.80332" lon="6.11445">
        <ele>185.5</ele>
        <time>2021-07-29T12:52:59Z</time>
      </trkpt>
      <trkpt lat="48.80331" lon="6.1144">
        <ele>185.5</ele>
        <time>2021-07-29T12:53:00Z</time>
      </trkpt>
      <trkpt lat="48.8033" lon="6.11434">
        <ele>185.5</ele>
        <time>2021-07-29T12:53:01Z</time>
      </trkpt>
      <trkpt lat="48.80329" lon="6.11427">
        <ele>185.5</ele>
        <time>2021-07-29T12:53:02Z</time>
      </trkpt>
      <trkpt lat="48.80328" lon="6.11421">
        <ele>185.5</ele>
        <time>2021-07-29T12:53:03Z</time>
      </trkpt>
      <trkpt lat="48.80327" lon="6.11414">
        <ele>185.5</ele>
        <time>2021-07-29T12:53:04Z</time>
      </trkpt>
      <trkpt lat="48.80326" lon="6.11408">
        <ele>185.5</ele>
        <time>2021-07-29T12:53:05Z</time>
      </trkpt>
      <trkpt lat="48.80325" lon="6.11401">
        <ele>185.5</ele>
        <time>2021-07-29T12:53:06Z</time>
      </trkpt>
      <trkpt lat="48.80324" lon="6.11394">
        <ele>185.6</ele>
        <time>2021-07-29T12:53:07Z</time>
      </trkpt>
      <trkpt lat="48.80323" lon="6.11388">
        <ele>185.6</ele>
        <time>2021-07-29T12:53:08Z</time>
      </trkpt>
      <trkpt lat="48.80322" lon="6.11382">
        <ele>185.6</ele>
        <time>2021-07-29T12:53:09Z</time>
      </trkpt>
      <trkpt lat="48.80319" lon="6.11376">
        <ele>185.6</ele>
        <time>2021-07-29T12:53:11Z</time>
      </trkpt>
      <trkpt lat="48.80315" lon="6.11367">
        <ele>185.6</ele>
        <time>2021-07-29T12:53:13Z</time>
      </trkpt>
      <trkpt lat="48.80312" lon="6.11361">
        <ele>185.6</ele>
        <time>2021-07-29T12:53:14Z</time>
      </trkpt>
      <trkpt lat="48.80309" lon="6.11357">
        <ele>185.7</ele>
        <time>2021-07-29T12:53:15Z</time>
      </trkpt>
      <trkpt lat="48.80306" lon="6.11355">
        <ele>185.7</ele>
        <time>2021-07-29T12:53:16Z</time>
      </trkpt>
      <trkpt lat="48.80303" lon="6.11351">
        <ele>185.7</ele>
        <time>2021-07-29T12:53:17Z</time>
      </trkpt>
      <trkpt lat="48.803" lon="6.11348">
        <ele>185.7</ele>
        <time>2021-07-29T12:53:19Z</time>
      </trkpt>
      <trkpt lat="48.80296" lon="6.11345">
        <ele>185.7</ele>
        <time>2021-07-29T12:53:20Z</time>
      </trkpt>
      <trkpt lat="48.80291" lon="6.11342">
        <ele>185.7</ele>
        <time>2021-07-29T12:53:21Z</time>
      </trkpt>
      <trkpt lat="48.80286" lon="6.11339">
        <ele>185.7</ele>
        <time>2021-07-29T12:53:22Z</time>
      </trkpt>
      <trkpt lat="48.80282" lon="6.11336">
        <ele>185.7</ele>
        <time>2021-07-29T12:53:23Z</time>
      </trkpt>
      <trkpt lat="48.80278" lon="6.11335">
        <ele>185.7</ele>
        <time>2021-07-29T12:53:24Z</time>
      </trkpt>
      <trkpt lat="48.80273" lon="6.11333">
        <ele>185.7</ele>
        <time>2021-07-29T12:53:25Z</time>
      </trkpt>
      <trkpt lat="48.8027" lon="6.11329">
        <ele>185.6</ele>
        <time>2021-07-29T12:53:26Z</time>
      </trkpt>
      <trkpt lat="48.80266" lon="6.11325">
        <ele>185.6</ele>
        <time>2021-07-29T12:53:27Z</time>
      </trkpt>
      <trkpt lat="48.80262" lon="6.11321">
        <ele>185.6</ele>
        <time>2021-07-29T12:53:28Z</time>
      </trkpt>
      <trkpt lat="48.80258" lon="6.11318">
        <ele>185.6</ele>
        <time>2021-07-29T12:53:29Z</time>
      </trkpt>
      <trkpt lat="48.80254" lon="6.11314">
        <ele>185.6</ele>
        <time>2021-07-29T12:53:31Z</time>
      </trkpt>
      <trkpt lat="48.80251" lon="6.11302">
        <ele>185.5</ele>
        <time>2021-07-29T12:53:33Z</time>
      </trkpt>
      <trkpt lat="48.80251" lon="6.11287">
        <ele>185.4</ele>
        <time>2021-07-29T12:53:35Z</time>
      </trkpt>
      <trkpt lat="48.80249" lon="6.11279">
        <ele>185.4</ele>
        <time>2021-07-29T12:53:36Z</time>
      </trkpt>
      <trkpt lat="48.80243" lon="6.11267">
        <ele>185.3</ele>
        <time>2021-07-29T12:53:38Z</time>
      </trkpt>
      <trkpt lat="48.80237" lon="6.11256">
        <ele>185.3</ele>
        <time>2021-07-29T12:53:40Z</time>
      </trkpt>
      <trkpt lat="48.80234" lon="6.11249">
        <ele>185.3</ele>
        <time>2021-07-29T12:53:41Z</time>
      </trkpt>
      <trkpt lat="48.80232" lon="6.11244">
        <ele>185.3</ele>
        <time>2021-07-29T12:53:42Z</time>
      </trkpt>
      <trkpt lat="48.80228" lon="6.1124">
        <ele>185.3</ele>
        <time>2021-07-29T12:53:43Z</time>
      </trkpt>
      <trkpt lat="48.80226" lon="6.11238">
        <ele>185.3</ele>
        <time>2021-07-29T12:53:44Z</time>
      </trkpt>
      <trkpt lat="48.80223" lon="6.11233">
        <ele>185.3</ele>
        <time>2021-07-29T12:53:46Z</time>
      </trkpt>
      <trkpt lat="48.80215" lon="6.11225">
        <ele>185.4</ele>
        <time>2021-07-29T12:53:48Z</time>
      </trkpt>
      <trkpt lat="48.80211" lon="6.11221">
        <ele>185.4</ele>
        <time>2021-07-29T12:53:49Z</time>
      </trkpt>
      <trkpt lat="48.80206" lon="6.11216">
        <ele>185.4</ele>
        <time>2021-07-29T12:53:50Z</time>
      </trkpt>
      <trkpt lat="48.80197" lon="6.11206">
        <ele>185.5</ele>
        <time>2021-07-29T12:53:52Z</time>
      </trkpt>
      <trkpt lat="48.80193" lon="6.11201">
        <ele>185.5</ele>
        <time>2021-07-29T12:53:53Z</time>
      </trkpt>
      <trkpt lat="48.80189" lon="6.11196">
        <ele>185.5</ele>
        <time>2021-07-29T12:53:54Z</time>
      </trkpt>
      <trkpt lat="48.80185" lon="6.11191">
        <ele>185.5</ele>
        <time>2021-07-29T12:53:55Z</time>
      </trkpt>
      <trkpt lat="48.80185" lon="6.11187">
        <ele>185.5</ele>
        <time>2021-07-29T12:53:56Z</time>
      </trkpt>
      <trkpt lat="48.80181" lon="6.1118">
        <ele>185.5</ele>
        <time>2021-07-29T12:53:58Z</time>
      </trkpt>
      <trkpt lat="48.80177" lon="6.11177">
        <ele>185.5</ele>
        <time>2021-07-29T12:53:59Z</time>
      </trkpt>
      <trkpt lat="48.80171" lon="6.11173">
        <ele>185.5</ele>
        <time>2021-07-29T12:54:00Z</time>
      </trkpt>
      <trkpt lat="48.80164" lon="6.11169">
        <ele>185.5</ele>
        <time>2021-07-29T12:54:02Z</time>
      </trkpt>
      <trkpt lat="48.8016" lon="6.11166">
        <ele>185.5</ele>
        <time>2021-07-29T12:54:03Z</time>
      </trkpt>
      <trkpt lat="48.80154" lon="6.11158">
        <ele>185.5</ele>
        <time>2021-07-29T12:54:05Z</time>
      </trkpt>
      <trkpt lat="48.80151" lon="6.11156">
        <ele>185.5</ele>
        <time>2021-07-29T12:54:06Z</time>
      </trkpt>
      <trkpt lat="48.80147" lon="6.11152">
        <ele>185.5</ele>
        <time>2021-07-29T12:54:07Z</time>
      </trkpt>
      <trkpt lat="48.80142" lon="6.11148">
        <ele>185.5</ele>
        <time>2021-07-29T12:54:09Z</time>
      </trkpt>
      <trkpt lat="48.80139" lon="6.11145">
        <ele>185.5</ele>
        <time>2021-07-29T12:54:10Z</time>
      </trkpt>
      <trkpt lat="48.80136" lon="6.11143">
        <ele>185.5</ele>
        <time>2021-07-29T12:54:11Z</time>
      </trkpt>
      <trkpt lat="48.80134" lon="6.11141">
        <ele>185.5</ele>
        <time>2021-07-29T12:54:12Z</time>
      </trkpt>
      <trkpt lat="48.80128" lon="6.11137">
        <ele>185.4</ele>
        <time>2021-07-29T12:54:13Z</time>
      </trkpt>
      <trkpt lat="48.80123" lon="6.11134">
        <ele>185.4</ele>
        <time>2021-07-29T12:54:15Z</time>
      </trkpt>
      <trkpt lat="48.80115" lon="6.11131">
        <ele>185.4</ele>
        <time>2021-07-29T12:54:17Z</time>
      </trkpt>
      <trkpt lat="48.80111" lon="6.1113">
        <ele>185.4</ele>
        <time>2021-07-29T12:54:18Z</time>
      </trkpt>
      <trkpt lat="48.80104" lon="6.11128">
        <ele>185.5</ele>
        <time>2021-07-29T12:54:19Z</time>
      </trkpt>
      <trkpt lat="48.80098" lon="6.11127">
        <ele>185.5</ele>
        <time>2021-07-29T12:54:21Z</time>
      </trkpt>
      <trkpt lat="48.80092" lon="6.11124">
        <ele>185.5</ele>
        <time>2021-07-29T12:54:22Z</time>
      </trkpt>
      <trkpt lat="48.80088" lon="6.11123">
        <ele>185.5</ele>
        <time>2021-07-29T12:54:24Z</time>
      </trkpt>
      <trkpt lat="48.80085" lon="6.11122">
        <ele>185.5</ele>
        <time>2021-07-29T12:54:25Z</time>
      </trkpt>
      <trkpt lat="48.80082" lon="6.11122">
        <ele>185.5</ele>
        <time>2021-07-29T12:54:26Z</time>
      </trkpt>
      <trkpt lat="48.80078" lon="6.11119">
        <ele>185.5</ele>
        <time>2021-07-29T12:54:27Z</time>
      </trkpt>
      <trkpt lat="48.80076" lon="6.11115">
        <ele>185.5</ele>
        <time>2021-07-29T12:54:28Z</time>
      </trkpt>
      <trkpt lat="48.80072" lon="6.11112">
        <ele>185.5</ele>
        <time>2021-07-29T12:54:30Z</time>
      </trkpt>
      <trkpt lat="48.80069" lon="6.11109">
        <ele>185.5</ele>
        <time>2021-07-29T12:54:31Z</time>
      </trkpt>
      <trkpt lat="48.80066" lon="6.11107">
        <ele>185.5</ele>
        <time>2021-07-29T12:54:33Z</time>
      </trkpt>
      <trkpt lat="48.80065" lon="6.11106">
        <ele>185.5</ele>
        <time>2021-07-29T12:54:35Z</time>
      </trkpt>
      <trkpt lat="48.80061" lon="6.11105">
        <ele>185.5</ele>
        <time>2021-07-29T12:54:37Z</time>
      </trkpt>
      <trkpt lat="48.8006" lon="6.11105">
        <ele>185.5</ele>
        <time>2021-07-29T12:54:38Z</time>
      </trkpt>
      <trkpt lat="48.80055" lon="6.11105">
        <ele>185.6</ele>
        <time>2021-07-29T12:54:40Z</time>
      </trkpt>
      <trkpt lat="48.80052" lon="6.11103">
        <ele>185.6</ele>
        <time>2021-07-29T12:54:41Z</time>
      </trkpt>
      <trkpt lat="48.80047" lon="6.11098">
        <ele>185.6</ele>
        <time>2021-07-29T12:54:43Z</time>
      </trkpt>
      <trkpt lat="48.80041" lon="6.11096">
        <ele>185.6</ele>
        <time>2021-07-29T12:54:45Z</time>
      </trkpt>
      <trkpt lat="48.80038" lon="6.11094">
        <ele>185.6</ele>
        <time>2021-07-29T12:54:46Z</time>
      </trkpt>
      <trkpt lat="48.80031" lon="6.11092">
        <ele>185.7</ele>
        <time>2021-07-29T12:54:48Z</time>
      </trkpt>
      <trkpt lat="48.80028" lon="6.11092">
        <ele>185.7</ele>
        <time>2021-07-29T12:54:49Z</time>
      </trkpt>
      <trkpt lat="48.80025" lon="6.11092">
        <ele>185.7</ele>
        <time>2021-07-29T12:54:50Z</time>
      </trkpt>
      <trkpt lat="48.80019" lon="6.11091">
        <ele>185.7</ele>
        <time>2021-07-29T12:54:52Z</time>
      </trkpt>
      <trkpt lat="48.80016" lon="6.11089">
        <ele>185.8</ele>
        <time>2021-07-29T12:54:53Z</time>
      </trkpt>
      <trkpt lat="48.80013" lon="6.11088">
        <ele>185.8</ele>
        <time>2021-07-29T12:54:54Z</time>
      </trkpt>
      <trkpt lat="48.80006" lon="6.11086">
        <ele>185.8</ele>
        <time>2021-07-29T12:54:56Z</time>
      </trkpt>
      <trkpt lat="48.80003" lon="6.11086">
        <ele>185.8</ele>
        <time>2021-07-29T12:54:57Z</time>
      </trkpt>
      <trkpt lat="48.8" lon="6.11085">
        <ele>185.8</ele>
        <time>2021-07-29T12:54:58Z</time>
      </trkpt>
      <trkpt lat="48.79993" lon="6.11085">
        <ele>185.8</ele>
        <time>2021-07-29T12:55:00Z</time>
      </trkpt>
      <trkpt lat="48.79988" lon="6.11086">
        <ele>185.8</ele>
        <time>2021-07-29T12:55:01Z</time>
      </trkpt>
      <trkpt lat="48.79984" lon="6.11083">
        <ele>185.8</ele>
        <time>2021-07-29T12:55:03Z</time>
      </trkpt>
      <trkpt lat="48.79981" lon="6.11082">
        <ele>185.8</ele>
        <time>2021-07-29T12:55:04Z</time>
      </trkpt>
      <trkpt lat="48.79978" lon="6.11079">
        <ele>185.9</ele>
        <time>2021-07-29T12:55:05Z</time>
      </trkpt>
      <trkpt lat="48.79974" lon="6.11077">
        <ele>185.9</ele>
        <time>2021-07-29T12:55:07Z</time>
      </trkpt>
      <trkpt lat="48.79971" lon="6.11075">
        <ele>185.9</ele>
        <time>2021-07-29T12:55:08Z</time>
      </trkpt>
      <trkpt lat="48.79965" lon="6.11074">
        <ele>185.9</ele>
        <time>2021-07-29T12:55:10Z</time>
      </trkpt>
      <trkpt lat="48.79958" lon="6.11074">
        <ele>185.9</ele>
        <time>2021-07-29T12:55:12Z</time>
      </trkpt>
      <trkpt lat="48.79953" lon="6.11075">
        <ele>185.9</ele>
        <time>2021-07-29T12:55:13Z</time>
      </trkpt>
      <trkpt lat="48.7995" lon="6.11074">
        <ele>185.9</ele>
        <time>2021-07-29T12:55:14Z</time>
      </trkpt>
      <trkpt lat="48.79947" lon="6.11074">
        <ele>185.9</ele>
        <time>2021-07-29T12:55:15Z</time>
      </trkpt>
      <trkpt lat="48.79943" lon="6.11073">
        <ele>185.9</ele>
        <time>2021-07-29T12:55:16Z</time>
      </trkpt>
      <trkpt lat="48.79938" lon="6.11071">
        <ele>185.9</ele>
        <time>2021-07-29T12:55:18Z</time>
      </trkpt>
      <trkpt lat="48.79932" lon="6.1107">
        <ele>186</ele>
        <time>2021-07-29T12:55:19Z</time>
      </trkpt>
      <trkpt lat="48.79928" lon="6.1107">
        <ele>186</ele>
        <time>2021-07-29T12:55:21Z</time>
      </trkpt>
      <trkpt lat="48.79923" lon="6.11068">
        <ele>186</ele>
        <time>2021-07-29T12:55:22Z</time>
      </trkpt>
      <trkpt lat="48.79917" lon="6.11067">
        <ele>185.9</ele>
        <time>2021-07-29T12:55:24Z</time>
      </trkpt>
      <trkpt lat="48.79913" lon="6.11064">
        <ele>185.9</ele>
        <time>2021-07-29T12:55:25Z</time>
      </trkpt>
      <trkpt lat="48.79906" lon="6.11062">
        <ele>185.9</ele>
        <time>2021-07-29T12:55:27Z</time>
      </trkpt>
      <trkpt lat="48.79903" lon="6.11062">
        <ele>185.9</ele>
        <time>2021-07-29T12:55:28Z</time>
      </trkpt>
      <trkpt lat="48.79898" lon="6.1106">
        <ele>185.9</ele>
        <time>2021-07-29T12:55:29Z</time>
      </trkpt>
      <trkpt lat="48.79896" lon="6.11061">
        <ele>185.9</ele>
        <time>2021-07-29T12:55:30Z</time>
      </trkpt>
      <trkpt lat="48.79893" lon="6.11064">
        <ele>185.9</ele>
        <time>2021-07-29T12:55:31Z</time>
      </trkpt>
      <trkpt lat="48.79889" lon="6.11063">
        <ele>185.9</ele>
        <time>2021-07-29T12:55:33Z</time>
      </trkpt>
      <trkpt lat="48.79882" lon="6.11061">
        <ele>185.9</ele>
        <time>2021-07-29T12:55:34Z</time>
      </trkpt>
      <trkpt lat="48.79876" lon="6.11062">
        <ele>185.9</ele>
        <time>2021-07-29T12:55:36Z</time>
      </trkpt>
      <trkpt lat="48.79869" lon="6.11063">
        <ele>185.9</ele>
        <time>2021-07-29T12:55:37Z</time>
      </trkpt>
      <trkpt lat="48.79864" lon="6.11064">
        <ele>185.9</ele>
        <time>2021-07-29T12:55:39Z</time>
      </trkpt>
      <trkpt lat="48.79858" lon="6.11065">
        <ele>185.9</ele>
        <time>2021-07-29T12:55:40Z</time>
      </trkpt>
      <trkpt lat="48.79853" lon="6.11066">
        <ele>185.9</ele>
        <time>2021-07-29T12:55:42Z</time>
      </trkpt>
      <trkpt lat="48.79847" lon="6.11068">
        <ele>185.9</ele>
        <time>2021-07-29T12:55:43Z</time>
      </trkpt>
      <trkpt lat="48.79843" lon="6.11068">
        <ele>185.9</ele>
        <time>2021-07-29T12:55:45Z</time>
      </trkpt>
      <trkpt lat="48.79839" lon="6.11066">
        <ele>185.9</ele>
        <time>2021-07-29T12:55:46Z</time>
      </trkpt>
      <trkpt lat="48.79832" lon="6.11066">
        <ele>186</ele>
        <time>2021-07-29T12:55:47Z</time>
      </trkpt>
      <trkpt lat="48.79828" lon="6.11067">
        <ele>186</ele>
        <time>2021-07-29T12:55:49Z</time>
      </trkpt>
      <trkpt lat="48.79825" lon="6.11068">
        <ele>186</ele>
        <time>2021-07-29T12:55:50Z</time>
      </trkpt>
      <trkpt lat="48.7982" lon="6.1107">
        <ele>186</ele>
        <time>2021-07-29T12:55:51Z</time>
      </trkpt>
      <trkpt lat="48.79815" lon="6.11073">
        <ele>186.1</ele>
        <time>2021-07-29T12:55:53Z</time>
      </trkpt>
      <trkpt lat="48.79811" lon="6.11076">
        <ele>186.1</ele>
        <time>2021-07-29T12:55:54Z</time>
      </trkpt>
      <trkpt lat="48.79807" lon="6.11078">
        <ele>186.1</ele>
        <time>2021-07-29T12:55:55Z</time>
      </trkpt>
      <trkpt lat="48.79801" lon="6.11081">
        <ele>186.1</ele>
        <time>2021-07-29T12:55:56Z</time>
      </trkpt>
      <trkpt lat="48.79796" lon="6.11083">
        <ele>186.1</ele>
        <time>2021-07-29T12:55:57Z</time>
      </trkpt>
      <trkpt lat="48.79793" lon="6.11087">
        <ele>186.1</ele>
        <time>2021-07-29T12:55:59Z</time>
      </trkpt>
      <trkpt lat="48.7979" lon="6.11085">
        <ele>186.2</ele>
        <time>2021-07-29T12:56:00Z</time>
      </trkpt>
      <trkpt lat="48.79787" lon="6.11083">
        <ele>186.2</ele>
        <time>2021-07-29T12:56:01Z</time>
      </trkpt>
      <trkpt lat="48.79782" lon="6.11083">
        <ele>186.2</ele>
        <time>2021-07-29T12:56:02Z</time>
      </trkpt>
      <trkpt lat="48.79778" lon="6.11085">
        <ele>186.2</ele>
        <time>2021-07-29T12:56:03Z</time>
      </trkpt>
      <trkpt lat="48.79774" lon="6.11089">
        <ele>186.2</ele>
        <time>2021-07-29T12:56:05Z</time>
      </trkpt>
      <trkpt lat="48.79769" lon="6.11093">
        <ele>186.2</ele>
        <time>2021-07-29T12:56:06Z</time>
      </trkpt>
      <trkpt lat="48.79766" lon="6.11096">
        <ele>186.2</ele>
        <time>2021-07-29T12:56:07Z</time>
      </trkpt>
      <trkpt lat="48.79762" lon="6.111">
        <ele>186.2</ele>
        <time>2021-07-29T12:56:09Z</time>
      </trkpt>
      <trkpt lat="48.79756" lon="6.11106">
        <ele>186.2</ele>
        <time>2021-07-29T12:56:11Z</time>
      </trkpt>
      <trkpt lat="48.79753" lon="6.11106">
        <ele>186.1</ele>
        <time>2021-07-29T12:56:12Z</time>
      </trkpt>
      <trkpt lat="48.79747" lon="6.11105">
        <ele>186.1</ele>
        <time>2021-07-29T12:56:14Z</time>
      </trkpt>
      <trkpt lat="48.79742" lon="6.11107">
        <ele>186.1</ele>
        <time>2021-07-29T12:56:15Z</time>
      </trkpt>
      <trkpt lat="48.79738" lon="6.11109">
        <ele>186.1</ele>
        <time>2021-07-29T12:56:17Z</time>
      </trkpt>
      <trkpt lat="48.79729" lon="6.11113">
        <ele>186</ele>
        <time>2021-07-29T12:56:19Z</time>
      </trkpt>
      <trkpt lat="48.79724" lon="6.11114">
        <ele>186</ele>
        <time>2021-07-29T12:56:20Z</time>
      </trkpt>
      <trkpt lat="48.79714" lon="6.11117">
        <ele>186</ele>
        <time>2021-07-29T12:56:22Z</time>
      </trkpt>
      <trkpt lat="48.79707" lon="6.11118">
        <ele>186</ele>
        <time>2021-07-29T12:56:24Z</time>
      </trkpt>
      <trkpt lat="48.79703" lon="6.11117">
        <ele>186</ele>
        <time>2021-07-29T12:56:25Z</time>
      </trkpt>
      <trkpt lat="48.797" lon="6.11117">
        <ele>186</ele>
        <time>2021-07-29T12:56:26Z</time>
      </trkpt>
      <trkpt lat="48.79697" lon="6.11119">
        <ele>186</ele>
        <time>2021-07-29T12:56:27Z</time>
      </trkpt>
      <trkpt lat="48.79696" lon="6.1112">
        <ele>186</ele>
        <time>2021-07-29T12:56:29Z</time>
      </trkpt>
      <trkpt lat="48.79694" lon="6.11121">
        <ele>186</ele>
        <time>2021-07-29T12:56:30Z</time>
      </trkpt>
      <trkpt lat="48.7969" lon="6.11124">
        <ele>186</ele>
        <time>2021-07-29T12:56:31Z</time>
      </trkpt>
      <trkpt lat="48.79686" lon="6.11128">
        <ele>186</ele>
        <time>2021-07-29T12:56:32Z</time>
      </trkpt>
      <trkpt lat="48.79683" lon="6.11131">
        <ele>186</ele>
        <time>2021-07-29T12:56:34Z</time>
      </trkpt>
      <trkpt lat="48.79679" lon="6.11133">
        <ele>186.1</ele>
        <time>2021-07-29T12:56:35Z</time>
      </trkpt>
      <trkpt lat="48.79676" lon="6.11135">
        <ele>186.1</ele>
        <time>2021-07-29T12:56:36Z</time>
      </trkpt>
      <trkpt lat="48.79671" lon="6.11138">
        <ele>186.1</ele>
        <time>2021-07-29T12:56:38Z</time>
      </trkpt>
      <trkpt lat="48.79668" lon="6.11141">
        <ele>186.2</ele>
        <time>2021-07-29T12:56:40Z</time>
      </trkpt>
      <trkpt lat="48.79667" lon="6.11144">
        <ele>186.2</ele>
        <time>2021-07-29T12:56:41Z</time>
      </trkpt>
      <trkpt lat="48.79664" lon="6.11147">
        <ele>186.2</ele>
        <time>2021-07-29T12:56:43Z</time>
      </trkpt>
      <trkpt lat="48.79661" lon="6.1115">
        <ele>186.2</ele>
        <time>2021-07-29T12:56:44Z</time>
      </trkpt>
      <trkpt lat="48.79659" lon="6.11152">
        <ele>186.2</ele>
        <time>2021-07-29T12:56:45Z</time>
      </trkpt>
      <trkpt lat="48.79658" lon="6.11154">
        <ele>186.2</ele>
        <time>2021-07-29T12:56:47Z</time>
      </trkpt>
      <trkpt lat="48.79657" lon="6.11155">
        <ele>186.3</ele>
        <time>2021-07-29T12:56:48Z</time>
      </trkpt>
      <trkpt lat="48.79656" lon="6.11157">
        <ele>186.3</ele>
        <time>2021-07-29T12:56:49Z</time>
      </trkpt>
      <trkpt lat="48.79655" lon="6.11158">
        <ele>186.3</ele>
        <time>2021-07-29T12:56:50Z</time>
      </trkpt>
      <trkpt lat="48.79651" lon="6.11164">
        <ele>186.3</ele>
        <time>2021-07-29T12:56:52Z</time>
      </trkpt>
      <trkpt lat="48.79645" lon="6.11171">
        <ele>186.4</ele>
        <time>2021-07-29T12:56:54Z</time>
      </trkpt>
      <trkpt lat="48.79637" lon="6.11177">
        <ele>186.4</ele>
        <time>2021-07-29T12:56:56Z</time>
      </trkpt>
      <trkpt lat="48.7963" lon="6.11182">
        <ele>186.5</ele>
        <time>2021-07-29T12:56:57Z</time>
      </trkpt>
      <trkpt lat="48.79626" lon="6.11186">
        <ele>186.5</ele>
        <time>2021-07-29T12:56:59Z</time>
      </trkpt>
      <trkpt lat="48.79621" lon="6.11189">
        <ele>186.5</ele>
        <time>2021-07-29T12:57:00Z</time>
      </trkpt>
      <trkpt lat="48.79614" lon="6.11193">
        <ele>186.6</ele>
        <time>2021-07-29T12:57:01Z</time>
      </trkpt>
      <trkpt lat="48.79608" lon="6.11196">
        <ele>186.6</ele>
        <time>2021-07-29T12:57:03Z</time>
      </trkpt>
      <trkpt lat="48.79599" lon="6.11202">
        <ele>186.6</ele>
        <time>2021-07-29T12:57:05Z</time>
      </trkpt>
      <trkpt lat="48.79596" lon="6.11203">
        <ele>186.7</ele>
        <time>2021-07-29T12:57:06Z</time>
      </trkpt>
      <trkpt lat="48.79592" lon="6.11204">
        <ele>186.7</ele>
        <time>2021-07-29T12:57:07Z</time>
      </trkpt>
      <trkpt lat="48.79589" lon="6.11204">
        <ele>186.7</ele>
        <time>2021-07-29T12:57:09Z</time>
      </trkpt>
      <trkpt lat="48.79587" lon="6.11205">
        <ele>186.7</ele>
        <time>2021-07-29T12:57:10Z</time>
      </trkpt>
      <trkpt lat="48.79585" lon="6.11206">
        <ele>186.7</ele>
        <time>2021-07-29T12:57:11Z</time>
      </trkpt>
      <trkpt lat="48.79582" lon="6.11207">
        <ele>186.7</ele>
        <time>2021-07-29T12:57:13Z</time>
      </trkpt>
      <trkpt lat="48.7958" lon="6.11208">
        <ele>186.7</ele>
        <time>2021-07-29T12:57:14Z</time>
      </trkpt>
      <trkpt lat="48.79575" lon="6.1121">
        <ele>186.7</ele>
        <time>2021-07-29T12:57:15Z</time>
      </trkpt>
      <trkpt lat="48.7957" lon="6.11215">
        <ele>186.7</ele>
        <time>2021-07-29T12:57:17Z</time>
      </trkpt>
      <trkpt lat="48.79566" lon="6.11219">
        <ele>186.7</ele>
        <time>2021-07-29T12:57:18Z</time>
      </trkpt>
      <trkpt lat="48.79561" lon="6.11223">
        <ele>186.7</ele>
        <time>2021-07-29T12:57:19Z</time>
      </trkpt>
      <trkpt lat="48.79553" lon="6.11231">
        <ele>186.6</ele>
        <time>2021-07-29T12:57:21Z</time>
      </trkpt>
      <trkpt lat="48.79546" lon="6.11237">
        <ele>186.6</ele>
        <time>2021-07-29T12:57:22Z</time>
      </trkpt>
      <trkpt lat="48.79542" lon="6.11242">
        <ele>186.5</ele>
        <time>2021-07-29T12:57:24Z</time>
      </trkpt>
      <trkpt lat="48.79538" lon="6.11246">
        <ele>186.5</ele>
        <time>2021-07-29T12:57:25Z</time>
      </trkpt>
      <trkpt lat="48.79534" lon="6.11251">
        <ele>186.4</ele>
        <time>2021-07-29T12:57:26Z</time>
      </trkpt>
      <trkpt lat="48.7953" lon="6.11257">
        <ele>186.4</ele>
        <time>2021-07-29T12:57:27Z</time>
      </trkpt>
      <trkpt lat="48.79526" lon="6.11261">
        <ele>186.3</ele>
        <time>2021-07-29T12:57:28Z</time>
      </trkpt>
      <trkpt lat="48.79521" lon="6.11267">
        <ele>186.3</ele>
        <time>2021-07-29T12:57:29Z</time>
      </trkpt>
      <trkpt lat="48.79518" lon="6.11271">
        <ele>186.3</ele>
        <time>2021-07-29T12:57:31Z</time>
      </trkpt>
      <trkpt lat="48.79514" lon="6.11275">
        <ele>186.3</ele>
        <time>2021-07-29T12:57:32Z</time>
      </trkpt>
      <trkpt lat="48.79509" lon="6.11281">
        <ele>186.3</ele>
        <time>2021-07-29T12:57:34Z</time>
      </trkpt>
      <trkpt lat="48.79505" lon="6.11284">
        <ele>186.3</ele>
        <time>2021-07-29T12:57:35Z</time>
      </trkpt>
      <trkpt lat="48.79502" lon="6.11288">
        <ele>186.3</ele>
        <time>2021-07-29T12:57:36Z</time>
      </trkpt>
      <trkpt lat="48.79498" lon="6.11292">
        <ele>186.3</ele>
        <time>2021-07-29T12:57:37Z</time>
      </trkpt>
      <trkpt lat="48.79494" lon="6.11297">
        <ele>186.3</ele>
        <time>2021-07-29T12:57:38Z</time>
      </trkpt>
      <trkpt lat="48.79487" lon="6.11306">
        <ele>186.3</ele>
        <time>2021-07-29T12:57:40Z</time>
      </trkpt>
      <trkpt lat="48.79483" lon="6.11311">
        <ele>186.2</ele>
        <time>2021-07-29T12:57:41Z</time>
      </trkpt>
      <trkpt lat="48.79479" lon="6.11319">
        <ele>186.2</ele>
        <time>2021-07-29T12:57:42Z</time>
      </trkpt>
      <trkpt lat="48.79476" lon="6.11326">
        <ele>186.2</ele>
        <time>2021-07-29T12:57:44Z</time>
      </trkpt>
      <trkpt lat="48.79472" lon="6.11332">
        <ele>186.1</ele>
        <time>2021-07-29T12:57:45Z</time>
      </trkpt>
      <trkpt lat="48.79469" lon="6.11336">
        <ele>186.1</ele>
        <time>2021-07-29T12:57:46Z</time>
      </trkpt>
      <trkpt lat="48.79466" lon="6.11341">
        <ele>186.1</ele>
        <time>2021-07-29T12:57:47Z</time>
      </trkpt>
      <trkpt lat="48.79461" lon="6.11346">
        <ele>186.1</ele>
        <time>2021-07-29T12:57:48Z</time>
      </trkpt>
      <trkpt lat="48.79456" lon="6.11353">
        <ele>186</ele>
        <time>2021-07-29T12:57:50Z</time>
      </trkpt>
      <trkpt lat="48.79445" lon="6.11366">
        <ele>186</ele>
        <time>2021-07-29T12:57:52Z</time>
      </trkpt>
      <trkpt lat="48.79442" lon="6.1137">
        <ele>185.9</ele>
        <time>2021-07-29T12:57:53Z</time>
      </trkpt>
      <trkpt lat="48.79435" lon="6.11378">
        <ele>185.9</ele>
        <time>2021-07-29T12:57:55Z</time>
      </trkpt>
      <trkpt lat="48.79431" lon="6.11383">
        <ele>185.9</ele>
        <time>2021-07-29T12:57:56Z</time>
      </trkpt>
      <trkpt lat="48.79426" lon="6.11393">
        <ele>185.9</ele>
        <time>2021-07-29T12:57:58Z</time>
      </trkpt>
      <trkpt lat="48.79424" lon="6.11397">
        <ele>185.9</ele>
        <time>2021-07-29T12:57:59Z</time>
      </trkpt>
      <trkpt lat="48.79421" lon="6.114">
        <ele>185.9</ele>
        <time>2021-07-29T12:58:00Z</time>
      </trkpt>
      <trkpt lat="48.79417" lon="6.11406">
        <ele>186</ele>
        <time>2021-07-29T12:58:02Z</time>
      </trkpt>
      <trkpt lat="48.79412" lon="6.11413">
        <ele>186</ele>
        <time>2021-07-29T12:58:03Z</time>
      </trkpt>
      <trkpt lat="48.79409" lon="6.11418">
        <ele>186</ele>
        <time>2021-07-29T12:58:05Z</time>
      </trkpt>
      <trkpt lat="48.79406" lon="6.11422">
        <ele>186</ele>
        <time>2021-07-29T12:58:06Z</time>
      </trkpt>
      <trkpt lat="48.79404" lon="6.11427">
        <ele>186</ele>
        <time>2021-07-29T12:58:08Z</time>
      </trkpt>
      <trkpt lat="48.79399" lon="6.11433">
        <ele>186</ele>
        <time>2021-07-29T12:58:10Z</time>
      </trkpt>
      <trkpt lat="48.79397" lon="6.11437">
        <ele>186</ele>
        <time>2021-07-29T12:58:11Z</time>
      </trkpt>
      <trkpt lat="48.79394" lon="6.11441">
        <ele>186</ele>
        <time>2021-07-29T12:58:12Z</time>
      </trkpt>
      <trkpt lat="48.7939" lon="6.11448">
        <ele>186</ele>
        <time>2021-07-29T12:58:13Z</time>
      </trkpt>
      <trkpt lat="48.79387" lon="6.11453">
        <ele>186</ele>
        <time>2021-07-29T12:58:15Z</time>
      </trkpt>
      <trkpt lat="48.79384" lon="6.11458">
        <ele>186</ele>
        <time>2021-07-29T12:58:16Z</time>
      </trkpt>
      <trkpt lat="48.79378" lon="6.11468">
        <ele>186</ele>
        <time>2021-07-29T12:58:18Z</time>
      </trkpt>
      <trkpt lat="48.79374" lon="6.11476">
        <ele>186</ele>
        <time>2021-07-29T12:58:19Z</time>
      </trkpt>
      <trkpt lat="48.7937" lon="6.11484">
        <ele>186</ele>
        <time>2021-07-29T12:58:20Z</time>
      </trkpt>
      <trkpt lat="48.79365" lon="6.11492">
        <ele>185.9</ele>
        <time>2021-07-29T12:58:22Z</time>
      </trkpt>
      <trkpt lat="48.7936" lon="6.11499">
        <ele>185.9</ele>
        <time>2021-07-29T12:58:23Z</time>
      </trkpt>
      <trkpt lat="48.79357" lon="6.11504">
        <ele>185.9</ele>
        <time>2021-07-29T12:58:24Z</time>
      </trkpt>
      <trkpt lat="48.79354" lon="6.1151">
        <ele>185.9</ele>
        <time>2021-07-29T12:58:25Z</time>
      </trkpt>
      <trkpt lat="48.79349" lon="6.11519">
        <ele>185.9</ele>
        <time>2021-07-29T12:58:27Z</time>
      </trkpt>
      <trkpt lat="48.79345" lon="6.11529">
        <ele>185.9</ele>
        <time>2021-07-29T12:58:28Z</time>
      </trkpt>
      <trkpt lat="48.79342" lon="6.11535">
        <ele>185.9</ele>
        <time>2021-07-29T12:58:29Z</time>
      </trkpt>
      <trkpt lat="48.7934" lon="6.1154">
        <ele>186</ele>
        <time>2021-07-29T12:58:31Z</time>
      </trkpt>
      <trkpt lat="48.79338" lon="6.11545">
        <ele>186</ele>
        <time>2021-07-29T12:58:32Z</time>
      </trkpt>
      <trkpt lat="48.79333" lon="6.11552">
        <ele>186</ele>
        <time>2021-07-29T12:58:34Z</time>
      </trkpt>
      <trkpt lat="48.79328" lon="6.11561">
        <ele>186</ele>
        <time>2021-07-29T12:58:36Z</time>
      </trkpt>
      <trkpt lat="48.79323" lon="6.11571">
        <ele>186</ele>
        <time>2021-07-29T12:58:38Z</time>
      </trkpt>
      <trkpt lat="48.79319" lon="6.11578">
        <ele>186</ele>
        <time>2021-07-29T12:58:39Z</time>
      </trkpt>
      <trkpt lat="48.79317" lon="6.11583">
        <ele>186</ele>
        <time>2021-07-29T12:58:40Z</time>
      </trkpt>
      <trkpt lat="48.79314" lon="6.11594">
        <ele>185.9</ele>
        <time>2021-07-29T12:58:43Z</time>
      </trkpt>
      <trkpt lat="48.79311" lon="6.11601">
        <ele>185.8</ele>
        <time>2021-07-29T12:58:44Z</time>
      </trkpt>
      <trkpt lat="48.79308" lon="6.11607">
        <ele>185.8</ele>
        <time>2021-07-29T12:58:45Z</time>
      </trkpt>
      <trkpt lat="48.79303" lon="6.11617">
        <ele>185.7</ele>
        <time>2021-07-29T12:58:46Z</time>
      </trkpt>
      <trkpt lat="48.793" lon="6.11623">
        <ele>185.6</ele>
        <time>2021-07-29T12:58:48Z</time>
      </trkpt>
      <trkpt lat="48.79295" lon="6.11634">
        <ele>185.6</ele>
        <time>2021-07-29T12:58:50Z</time>
      </trkpt>
      <trkpt lat="48.79292" lon="6.11641">
        <ele>185.5</ele>
        <time>2021-07-29T12:58:51Z</time>
      </trkpt>
      <trkpt lat="48.79289" lon="6.11646">
        <ele>185.5</ele>
        <time>2021-07-29T12:58:53Z</time>
      </trkpt>
      <trkpt lat="48.79286" lon="6.11651">
        <ele>185.5</ele>
        <time>2021-07-29T12:58:54Z</time>
      </trkpt>
      <trkpt lat="48.79283" lon="6.11657">
        <ele>185.5</ele>
        <time>2021-07-29T12:58:55Z</time>
      </trkpt>
      <trkpt lat="48.7928" lon="6.11664">
        <ele>185.5</ele>
        <time>2021-07-29T12:58:57Z</time>
      </trkpt>
      <trkpt lat="48.79278" lon="6.11669">
        <ele>185.5</ele>
        <time>2021-07-29T12:58:58Z</time>
      </trkpt>
      <trkpt lat="48.79276" lon="6.11675">
        <ele>185.5</ele>
        <time>2021-07-29T12:58:59Z</time>
      </trkpt>
      <trkpt lat="48.79273" lon="6.11684">
        <ele>185.5</ele>
        <time>2021-07-29T12:59:00Z</time>
      </trkpt>
      <trkpt lat="48.7927" lon="6.11691">
        <ele>185.5</ele>
        <time>2021-07-29T12:59:02Z</time>
      </trkpt>
      <trkpt lat="48.79268" lon="6.11698">
        <ele>185.4</ele>
        <time>2021-07-29T12:59:03Z</time>
      </trkpt>
      <trkpt lat="48.79265" lon="6.11706">
        <ele>185.4</ele>
        <time>2021-07-29T12:59:05Z</time>
      </trkpt>
      <trkpt lat="48.79263" lon="6.11713">
        <ele>185.3</ele>
        <time>2021-07-29T12:59:06Z</time>
      </trkpt>
      <trkpt lat="48.79261" lon="6.11718">
        <ele>185.3</ele>
        <time>2021-07-29T12:59:08Z</time>
      </trkpt>
      <trkpt lat="48.79258" lon="6.11722">
        <ele>185.3</ele>
        <time>2021-07-29T12:59:09Z</time>
      </trkpt>
      <trkpt lat="48.79253" lon="6.11732">
        <ele>185.3</ele>
        <time>2021-07-29T12:59:11Z</time>
      </trkpt>
      <trkpt lat="48.79251" lon="6.11738">
        <ele>185.3</ele>
        <time>2021-07-29T12:59:12Z</time>
      </trkpt>
      <trkpt lat="48.79247" lon="6.11749">
        <ele>185.3</ele>
        <time>2021-07-29T12:59:14Z</time>
      </trkpt>
      <trkpt lat="48.79244" lon="6.11758">
        <ele>185.4</ele>
        <time>2021-07-29T12:59:16Z</time>
      </trkpt>
      <trkpt lat="48.79242" lon="6.11762">
        <ele>185.4</ele>
        <time>2021-07-29T12:59:17Z</time>
      </trkpt>
      <trkpt lat="48.79241" lon="6.11766">
        <ele>185.4</ele>
        <time>2021-07-29T12:59:18Z</time>
      </trkpt>
      <trkpt lat="48.79237" lon="6.11773">
        <ele>185.4</ele>
        <time>2021-07-29T12:59:20Z</time>
      </trkpt>
      <trkpt lat="48.79232" lon="6.11783">
        <ele>185.4</ele>
        <time>2021-07-29T12:59:22Z</time>
      </trkpt>
      <trkpt lat="48.79229" lon="6.11788">
        <ele>185.4</ele>
        <time>2021-07-29T12:59:23Z</time>
      </trkpt>
      <trkpt lat="48.79223" lon="6.11798">
        <ele>185.4</ele>
        <time>2021-07-29T12:59:25Z</time>
      </trkpt>
      <trkpt lat="48.79221" lon="6.11803">
        <ele>185.4</ele>
        <time>2021-07-29T12:59:26Z</time>
      </trkpt>
      <trkpt lat="48.79214" lon="6.11812">
        <ele>185.3</ele>
        <time>2021-07-29T12:59:28Z</time>
      </trkpt>
      <trkpt lat="48.79212" lon="6.11816">
        <ele>185.3</ele>
        <time>2021-07-29T12:59:29Z</time>
      </trkpt>
      <trkpt lat="48.7921" lon="6.11821">
        <ele>185.3</ele>
        <time>2021-07-29T12:59:30Z</time>
      </trkpt>
      <trkpt lat="48.79207" lon="6.11829">
        <ele>185.3</ele>
        <time>2021-07-29T12:59:31Z</time>
      </trkpt>
      <trkpt lat="48.79203" lon="6.11836">
        <ele>185.3</ele>
        <time>2021-07-29T12:59:33Z</time>
      </trkpt>
      <trkpt lat="48.79199" lon="6.11843">
        <ele>185.3</ele>
        <time>2021-07-29T12:59:34Z</time>
      </trkpt>
      <trkpt lat="48.79192" lon="6.11856">
        <ele>185.4</ele>
        <time>2021-07-29T12:59:36Z</time>
      </trkpt>
      <trkpt lat="48.79186" lon="6.11867">
        <ele>185.5</ele>
        <time>2021-07-29T12:59:38Z</time>
      </trkpt>
      <trkpt lat="48.79183" lon="6.11871">
        <ele>185.5</ele>
        <time>2021-07-29T12:59:39Z</time>
      </trkpt>
      <trkpt lat="48.79181" lon="6.11873">
        <ele>185.5</ele>
        <time>2021-07-29T12:59:40Z</time>
      </trkpt>
      <trkpt lat="48.79177" lon="6.1188">
        <ele>185.6</ele>
        <time>2021-07-29T12:59:41Z</time>
      </trkpt>
      <trkpt lat="48.79174" lon="6.11887">
        <ele>185.6</ele>
        <time>2021-07-29T12:59:42Z</time>
      </trkpt>
      <trkpt lat="48.79172" lon="6.11893">
        <ele>185.7</ele>
        <time>2021-07-29T12:59:43Z</time>
      </trkpt>
      <trkpt lat="48.79169" lon="6.11899">
        <ele>185.7</ele>
        <time>2021-07-29T12:59:45Z</time>
      </trkpt>
      <trkpt lat="48.79164" lon="6.1191">
        <ele>185.8</ele>
        <time>2021-07-29T12:59:46Z</time>
      </trkpt>
      <trkpt lat="48.79161" lon="6.11917">
        <ele>185.8</ele>
        <time>2021-07-29T12:59:47Z</time>
      </trkpt>
      <trkpt lat="48.79155" lon="6.11936">
        <ele>185.9</ele>
        <time>2021-07-29T12:59:50Z</time>
      </trkpt>
      <trkpt lat="48.79151" lon="6.11948">
        <ele>185.9</ele>
        <time>2021-07-29T12:59:52Z</time>
      </trkpt>
      <trkpt lat="48.79148" lon="6.11961">
        <ele>186</ele>
        <time>2021-07-29T12:59:54Z</time>
      </trkpt>
      <trkpt lat="48.79145" lon="6.11972">
        <ele>186</ele>
        <time>2021-07-29T12:59:56Z</time>
      </trkpt>
      <trkpt lat="48.79142" lon="6.11978">
        <ele>186.1</ele>
        <time>2021-07-29T12:59:58Z</time>
      </trkpt>
      <trkpt lat="48.7914" lon="6.11984">
        <ele>186.1</ele>
        <time>2021-07-29T12:59:59Z</time>
      </trkpt>
      <trkpt lat="48.79138" lon="6.11989">
        <ele>186.1</ele>
        <time>2021-07-29T13:00:00Z</time>
      </trkpt>
      <trkpt lat="48.79135" lon="6.11996">
        <ele>186.1</ele>
        <time>2021-07-29T13:00:01Z</time>
      </trkpt>
      <trkpt lat="48.79133" lon="6.12001">
        <ele>186.2</ele>
        <time>2021-07-29T13:00:03Z</time>
      </trkpt>
      <trkpt lat="48.79132" lon="6.12005">
        <ele>186.2</ele>
        <time>2021-07-29T13:00:04Z</time>
      </trkpt>
      <trkpt lat="48.7913" lon="6.12009">
        <ele>186.2</ele>
        <time>2021-07-29T13:00:05Z</time>
      </trkpt>
      <trkpt lat="48.79127" lon="6.12013">
        <ele>186.2</ele>
        <time>2021-07-29T13:00:07Z</time>
      </trkpt>
      <trkpt lat="48.79124" lon="6.12016">
        <ele>186.3</ele>
        <time>2021-07-29T13:00:08Z</time>
      </trkpt>
      <trkpt lat="48.79121" lon="6.12022">
        <ele>186.3</ele>
        <time>2021-07-29T13:00:09Z</time>
      </trkpt>
      <trkpt lat="48.79119" lon="6.12027">
        <ele>186.3</ele>
        <time>2021-07-29T13:00:10Z</time>
      </trkpt>
      <trkpt lat="48.79117" lon="6.12032">
        <ele>186.3</ele>
        <time>2021-07-29T13:00:12Z</time>
      </trkpt>
      <trkpt lat="48.79113" lon="6.12037">
        <ele>186.3</ele>
        <time>2021-07-29T13:00:13Z</time>
      </trkpt>
      <trkpt lat="48.7911" lon="6.12042">
        <ele>186.3</ele>
        <time>2021-07-29T13:00:14Z</time>
      </trkpt>
      <trkpt lat="48.79105" lon="6.12047">
        <ele>186.2</ele>
        <time>2021-07-29T13:00:15Z</time>
      </trkpt>
      <trkpt lat="48.79102" lon="6.12053">
        <ele>186.2</ele>
        <time>2021-07-29T13:00:16Z</time>
      </trkpt>
      <trkpt lat="48.79099" lon="6.12058">
        <ele>186.2</ele>
        <time>2021-07-29T13:00:17Z</time>
      </trkpt>
      <trkpt lat="48.79097" lon="6.12064">
        <ele>186.2</ele>
        <time>2021-07-29T13:00:19Z</time>
      </trkpt>
      <trkpt lat="48.79094" lon="6.12069">
        <ele>186.1</ele>
        <time>2021-07-29T13:00:20Z</time>
      </trkpt>
      <trkpt lat="48.79091" lon="6.12076">
        <ele>186.1</ele>
        <time>2021-07-29T13:00:21Z</time>
      </trkpt>
      <trkpt lat="48.79088" lon="6.12083">
        <ele>186.1</ele>
        <time>2021-07-29T13:00:22Z</time>
      </trkpt>
      <trkpt lat="48.79084" lon="6.12089">
        <ele>186.1</ele>
        <time>2021-07-29T13:00:23Z</time>
      </trkpt>
      <trkpt lat="48.79081" lon="6.12094">
        <ele>186.2</ele>
        <time>2021-07-29T13:00:24Z</time>
      </trkpt>
      <trkpt lat="48.79077" lon="6.121">
        <ele>186.2</ele>
        <time>2021-07-29T13:00:25Z</time>
      </trkpt>
      <trkpt lat="48.79074" lon="6.12105">
        <ele>186.2</ele>
        <time>2021-07-29T13:00:26Z</time>
      </trkpt>
      <trkpt lat="48.79071" lon="6.12109">
        <ele>186.1</ele>
        <time>2021-07-29T13:00:28Z</time>
      </trkpt>
      <trkpt lat="48.79067" lon="6.12113">
        <ele>186.1</ele>
        <time>2021-07-29T13:00:29Z</time>
      </trkpt>
      <trkpt lat="48.79064" lon="6.12117">
        <ele>186.1</ele>
        <time>2021-07-29T13:00:30Z</time>
      </trkpt>
      <trkpt lat="48.7906" lon="6.12127">
        <ele>186</ele>
        <time>2021-07-29T13:00:31Z</time>
      </trkpt>
      <trkpt lat="48.79056" lon="6.12135">
        <ele>186</ele>
        <time>2021-07-29T13:00:32Z</time>
      </trkpt>
      <trkpt lat="48.79052" lon="6.12147">
        <ele>186</ele>
        <time>2021-07-29T13:00:34Z</time>
      </trkpt>
      <trkpt lat="48.79049" lon="6.1215">
        <ele>185.9</ele>
        <time>2021-07-29T13:00:36Z</time>
      </trkpt>
      <trkpt lat="48.79048" lon="6.12161">
        <ele>185.9</ele>
        <time>2021-07-29T13:00:38Z</time>
      </trkpt>
      <trkpt lat="48.79049" lon="6.12174">
        <ele>185.9</ele>
        <time>2021-07-29T13:00:40Z</time>
      </trkpt>
      <trkpt lat="48.79048" lon="6.12195">
        <ele>185.9</ele>
        <time>2021-07-29T13:00:42Z</time>
      </trkpt>
      <trkpt lat="48.79048" lon="6.12205">
        <ele>185.9</ele>
        <time>2021-07-29T13:00:43Z</time>
      </trkpt>
      <trkpt lat="48.79047" lon="6.12216">
        <ele>185.8</ele>
        <time>2021-07-29T13:00:44Z</time>
      </trkpt>
      <trkpt lat="48.79045" lon="6.12234">
        <ele>185.8</ele>
        <time>2021-07-29T13:00:46Z</time>
      </trkpt>
      <trkpt lat="48.79044" lon="6.12242">
        <ele>185.8</ele>
        <time>2021-07-29T13:00:47Z</time>
      </trkpt>
      <trkpt lat="48.79044" lon="6.1225">
        <ele>185.8</ele>
        <time>2021-07-29T13:00:48Z</time>
      </trkpt>
      <trkpt lat="48.79044" lon="6.12262">
        <ele>185.8</ele>
        <time>2021-07-29T13:00:49Z</time>
      </trkpt>
      <trkpt lat="48.79043" lon="6.12269">
        <ele>185.8</ele>
        <time>2021-07-29T13:00:51Z</time>
      </trkpt>
      <trkpt lat="48.79042" lon="6.12278">
        <ele>185.8</ele>
        <time>2021-07-29T13:00:52Z</time>
      </trkpt>
      <trkpt lat="48.79041" lon="6.12285">
        <ele>185.8</ele>
        <time>2021-07-29T13:00:53Z</time>
      </trkpt>
      <trkpt lat="48.7904" lon="6.12292">
        <ele>185.8</ele>
        <time>2021-07-29T13:00:55Z</time>
      </trkpt>
      <trkpt lat="48.7904" lon="6.12298">
        <ele>185.9</ele>
        <time>2021-07-29T13:00:56Z</time>
      </trkpt>
      <trkpt lat="48.79038" lon="6.12309">
        <ele>185.9</ele>
        <time>2021-07-29T13:00:58Z</time>
      </trkpt>
      <trkpt lat="48.79038" lon="6.12314">
        <ele>185.9</ele>
        <time>2021-07-29T13:00:59Z</time>
      </trkpt>
      <trkpt lat="48.79037" lon="6.1232">
        <ele>186</ele>
        <time>2021-07-29T13:01:00Z</time>
      </trkpt>
      <trkpt lat="48.79036" lon="6.12329">
        <ele>186.1</ele>
        <time>2021-07-29T13:01:01Z</time>
      </trkpt>
      <trkpt lat="48.79035" lon="6.12337">
        <ele>186.1</ele>
        <time>2021-07-29T13:01:02Z</time>
      </trkpt>
      <trkpt lat="48.79033" lon="6.12346">
        <ele>186.3</ele>
        <time>2021-07-29T13:01:04Z</time>
      </trkpt>
      <trkpt lat="48.79033" lon="6.12356">
        <ele>186.4</ele>
        <time>2021-07-29T13:01:05Z</time>
      </trkpt>
      <trkpt lat="48.79034" lon="6.12363">
        <ele>186.5</ele>
        <time>2021-07-29T13:01:07Z</time>
      </trkpt>
      <trkpt lat="48.79035" lon="6.12367">
        <ele>186.6</ele>
        <time>2021-07-29T13:01:08Z</time>
      </trkpt>
      <trkpt lat="48.79038" lon="6.12371">
        <ele>186.7</ele>
        <time>2021-07-29T13:01:09Z</time>
      </trkpt>
      <trkpt lat="48.79042" lon="6.12372">
        <ele>186.8</ele>
        <time>2021-07-29T13:01:11Z</time>
      </trkpt>
      <trkpt lat="48.79044" lon="6.12373">
        <ele>186.8</ele>
        <time>2021-07-29T13:01:12Z</time>
      </trkpt>
      <trkpt lat="48.79046" lon="6.12373">
        <ele>186.8</ele>
        <time>2021-07-29T13:01:13Z</time>
      </trkpt>
      <trkpt lat="48.79049" lon="6.12375">
        <ele>186.9</ele>
        <time>2021-07-29T13:01:15Z</time>
      </trkpt>
      <trkpt lat="48.7905" lon="6.12375">
        <ele>186.9</ele>
        <time>2021-07-29T13:01:16Z</time>
      </trkpt>
      <trkpt lat="48.79055" lon="6.12377">
        <ele>187</ele>
        <time>2021-07-29T13:01:17Z</time>
      </trkpt>
      <trkpt lat="48.79061" lon="6.12379">
        <ele>187</ele>
        <time>2021-07-29T13:01:18Z</time>
      </trkpt>
      <trkpt lat="48.79065" lon="6.12381">
        <ele>187.1</ele>
        <time>2021-07-29T13:01:20Z</time>
      </trkpt>
      <trkpt lat="48.79069" lon="6.12384">
        <ele>187.2</ele>
        <time>2021-07-29T13:01:22Z</time>
      </trkpt>
      <trkpt lat="48.79072" lon="6.12386">
        <ele>187.2</ele>
        <time>2021-07-29T13:01:23Z</time>
      </trkpt>
      <trkpt lat="48.79075" lon="6.12392">
        <ele>187.2</ele>
        <time>2021-07-29T13:01:25Z</time>
      </trkpt>
      <trkpt lat="48.79077" lon="6.12397">
        <ele>187.3</ele>
        <time>2021-07-29T13:01:26Z</time>
      </trkpt>
      <trkpt lat="48.79092" lon="6.12409">
        <ele>187.1</ele>
        <time>2021-07-29T13:01:28Z</time>
      </trkpt>
      <trkpt lat="48.79099" lon="6.12412">
        <ele>186.9</ele>
        <time>2021-07-29T13:01:29Z</time>
      </trkpt>
      <trkpt lat="48.7911" lon="6.12415">
        <ele>186.9</ele>
        <time>2021-07-29T13:01:31Z</time>
      </trkpt>
      <trkpt lat="48.79114" lon="6.12414">
        <ele>186.9</ele>
        <time>2021-07-29T13:01:32Z</time>
      </trkpt>
      <trkpt lat="48.79119" lon="6.12412">
        <ele>186.9</ele>
        <time>2021-07-29T13:01:33Z</time>
      </trkpt>
      <trkpt lat="48.79124" lon="6.12409">
        <ele>187</ele>
        <time>2021-07-29T13:01:34Z</time>
      </trkpt>
      <trkpt lat="48.79129" lon="6.12415">
        <ele>187.1</ele>
        <time>2021-07-29T13:01:36Z</time>
      </trkpt>
      <trkpt lat="48.79131" lon="6.12419">
        <ele>187.1</ele>
        <time>2021-07-29T13:01:37Z</time>
      </trkpt>
      <trkpt lat="48.79134" lon="6.12423">
        <ele>187.1</ele>
        <time>2021-07-29T13:01:39Z</time>
      </trkpt>
      <trkpt lat="48.79136" lon="6.12423">
        <ele>187.2</ele>
        <time>2021-07-29T13:01:40Z</time>
      </trkpt>
      <trkpt lat="48.79138" lon="6.12422">
        <ele>187.2</ele>
        <time>2021-07-29T13:01:42Z</time>
      </trkpt>
      <trkpt lat="48.79139" lon="6.12422">
        <ele>187.2</ele>
        <time>2021-07-29T13:01:43Z</time>
      </trkpt>
      <trkpt lat="48.79137" lon="6.12428">
        <ele>187.2</ele>
        <time>2021-07-29T13:01:45Z</time>
      </trkpt>
      <trkpt lat="48.79132" lon="6.12511">
        <ele>187.8</ele>
        <time>2021-07-29T13:02:01Z</time>
      </trkpt>
      <trkpt lat="48.7913" lon="6.12525">
        <ele>187.8</ele>
        <time>2021-07-29T13:02:02Z</time>
      </trkpt>
      <trkpt lat="48.79128" lon="6.12531">
        <ele>187.9</ele>
        <time>2021-07-29T13:02:04Z</time>
      </trkpt>
      <trkpt lat="48.79128" lon="6.12532">
        <ele>187.9</ele>
        <time>2021-07-29T13:02:05Z</time>
      </trkpt>
      <trkpt lat="48.79128" lon="6.1254">
        <ele>187.9</ele>
        <time>2021-07-29T13:02:07Z</time>
      </trkpt>
      <trkpt lat="48.79128" lon="6.12543">
        <ele>187.9</ele>
        <time>2021-07-29T13:02:08Z</time>
      </trkpt>
      <trkpt lat="48.79128" lon="6.12548">
        <ele>188</ele>
        <time>2021-07-29T13:02:10Z</time>
      </trkpt>
      <trkpt lat="48.79127" lon="6.12554">
        <ele>188</ele>
        <time>2021-07-29T13:02:11Z</time>
      </trkpt>
      <trkpt lat="48.79127" lon="6.12559">
        <ele>188</ele>
        <time>2021-07-29T13:02:12Z</time>
      </trkpt>
      <trkpt lat="48.79127" lon="6.12563">
        <ele>188.1</ele>
        <time>2021-07-29T13:02:13Z</time>
      </trkpt>
      <trkpt lat="48.79127" lon="6.12576">
        <ele>188.2</ele>
        <time>2021-07-29T13:02:14Z</time>
      </trkpt>
      <trkpt lat="48.79127" lon="6.12586">
        <ele>188.2</ele>
        <time>2021-07-29T13:02:16Z</time>
      </trkpt>
      <trkpt lat="48.79126" lon="6.12594">
        <ele>188.3</ele>
        <time>2021-07-29T13:02:17Z</time>
      </trkpt>
      <trkpt lat="48.79126" lon="6.12603">
        <ele>188.4</ele>
        <time>2021-07-29T13:02:18Z</time>
      </trkpt>
      <trkpt lat="48.79126" lon="6.12618">
        <ele>188.5</ele>
        <time>2021-07-29T13:02:19Z</time>
      </trkpt>
      <trkpt lat="48.79128" lon="6.12633">
        <ele>188.6</ele>
        <time>2021-07-29T13:02:21Z</time>
      </trkpt>
      <trkpt lat="48.79128" lon="6.12641">
        <ele>188.7</ele>
        <time>2021-07-29T13:02:22Z</time>
      </trkpt>
      <trkpt lat="48.79128" lon="6.12647">
        <ele>188.8</ele>
        <time>2021-07-29T13:02:23Z</time>
      </trkpt>
      <trkpt lat="48.79128" lon="6.12653">
        <ele>188.9</ele>
        <time>2021-07-29T13:02:24Z</time>
      </trkpt>
      <trkpt lat="48.79128" lon="6.12661">
        <ele>189</ele>
        <time>2021-07-29T13:02:25Z</time>
      </trkpt>
      <trkpt lat="48.79127" lon="6.12665">
        <ele>189</ele>
        <time>2021-07-29T13:02:26Z</time>
      </trkpt>
      <trkpt lat="48.79126" lon="6.12669">
        <ele>189.1</ele>
        <time>2021-07-29T13:02:28Z</time>
      </trkpt>
      <trkpt lat="48.79126" lon="6.12676">
        <ele>189.2</ele>
        <time>2021-07-29T13:02:30Z</time>
      </trkpt>
      <trkpt lat="48.79126" lon="6.12681">
        <ele>189.2</ele>
        <time>2021-07-29T13:02:31Z</time>
      </trkpt>
      <trkpt lat="48.79126" lon="6.12686">
        <ele>189.3</ele>
        <time>2021-07-29T13:02:32Z</time>
      </trkpt>
      <trkpt lat="48.79126" lon="6.12698">
        <ele>189.5</ele>
        <time>2021-07-29T13:02:34Z</time>
      </trkpt>
      <trkpt lat="48.79128" lon="6.12708">
        <ele>189.7</ele>
        <time>2021-07-29T13:02:36Z</time>
      </trkpt>
      <trkpt lat="48.79127" lon="6.12716">
        <ele>189.8</ele>
        <time>2021-07-29T13:02:37Z</time>
      </trkpt>
      <trkpt lat="48.79128" lon="6.12722">
        <ele>189.9</ele>
        <time>2021-07-29T13:02:38Z</time>
      </trkpt>
      <trkpt lat="48.79128" lon="6.12725">
        <ele>190</ele>
        <time>2021-07-29T13:02:39Z</time>
      </trkpt>
      <trkpt lat="48.79128" lon="6.12729">
        <ele>190</ele>
        <time>2021-07-29T13:02:41Z</time>
      </trkpt>
      <trkpt lat="48.79128" lon="6.12733">
        <ele>190.1</ele>
        <time>2021-07-29T13:02:42Z</time>
      </trkpt>
      <trkpt lat="48.7913" lon="6.1274">
        <ele>190.3</ele>
        <time>2021-07-29T13:02:44Z</time>
      </trkpt>
      <trkpt lat="48.7913" lon="6.12744">
        <ele>190.4</ele>
        <time>2021-07-29T13:02:45Z</time>
      </trkpt>
      <trkpt lat="48.79131" lon="6.12752">
        <ele>190.5</ele>
        <time>2021-07-29T13:02:47Z</time>
      </trkpt>
      <trkpt lat="48.79132" lon="6.12756">
        <ele>190.6</ele>
        <time>2021-07-29T13:02:48Z</time>
      </trkpt>
      <trkpt lat="48.79133" lon="6.12761">
        <ele>190.7</ele>
        <time>2021-07-29T13:02:49Z</time>
      </trkpt>
      <trkpt lat="48.79133" lon="6.12767">
        <ele>190.8</ele>
        <time>2021-07-29T13:02:50Z</time>
      </trkpt>
      <trkpt lat="48.79133" lon="6.12769">
        <ele>190.8</ele>
        <time>2021-07-29T13:02:51Z</time>
      </trkpt>
      <trkpt lat="48.79133" lon="6.12775">
        <ele>191</ele>
        <time>2021-07-29T13:02:53Z</time>
      </trkpt>
      <trkpt lat="48.79133" lon="6.12779">
        <ele>191.1</ele>
        <time>2021-07-29T13:02:54Z</time>
      </trkpt>
      <trkpt lat="48.79134" lon="6.12786">
        <ele>191.2</ele>
        <time>2021-07-29T13:02:55Z</time>
      </trkpt>
      <trkpt lat="48.79134" lon="6.12791">
        <ele>191.4</ele>
        <time>2021-07-29T13:02:57Z</time>
      </trkpt>
      <trkpt lat="48.79134" lon="6.12792">
        <ele>191.4</ele>
        <time>2021-07-29T13:02:58Z</time>
      </trkpt>
      <trkpt lat="48.79134" lon="6.12796">
        <ele>191.5</ele>
        <time>2021-07-29T13:02:59Z</time>
      </trkpt>
      <trkpt lat="48.79135" lon="6.12803">
        <ele>191.7</ele>
        <time>2021-07-29T13:03:01Z</time>
      </trkpt>
      <trkpt lat="48.79135" lon="6.12808">
        <ele>191.8</ele>
        <time>2021-07-29T13:03:02Z</time>
      </trkpt>
      <trkpt lat="48.79136" lon="6.12816">
        <ele>192</ele>
        <time>2021-07-29T13:03:04Z</time>
      </trkpt>
      <trkpt lat="48.79136" lon="6.12821">
        <ele>192.1</ele>
        <time>2021-07-29T13:03:05Z</time>
      </trkpt>
      <trkpt lat="48.79136" lon="6.12823">
        <ele>192.2</ele>
        <time>2021-07-29T13:03:06Z</time>
      </trkpt>
      <trkpt lat="48.79135" lon="6.12827">
        <ele>192.3</ele>
        <time>2021-07-29T13:03:07Z</time>
      </trkpt>
      <trkpt lat="48.79135" lon="6.12829">
        <ele>192.3</ele>
        <time>2021-07-29T13:03:08Z</time>
      </trkpt>
      <trkpt lat="48.79134" lon="6.12832">
        <ele>192.4</ele>
        <time>2021-07-29T13:03:09Z</time>
      </trkpt>
      <trkpt lat="48.79134" lon="6.12836">
        <ele>192.5</ele>
        <time>2021-07-29T13:03:11Z</time>
      </trkpt>
      <trkpt lat="48.79133" lon="6.12843">
        <ele>192.7</ele>
        <time>2021-07-29T13:03:13Z</time>
      </trkpt>
      <trkpt lat="48.79135" lon="6.12848">
        <ele>192.8</ele>
        <time>2021-07-29T13:03:14Z</time>
      </trkpt>
      <trkpt lat="48.79137" lon="6.12852">
        <ele>192.9</ele>
        <time>2021-07-29T13:03:15Z</time>
      </trkpt>
      <trkpt lat="48.79139" lon="6.1286">
        <ele>193.1</ele>
        <time>2021-07-29T13:03:17Z</time>
      </trkpt>
      <trkpt lat="48.79142" lon="6.12866">
        <ele>193.2</ele>
        <time>2021-07-29T13:03:18Z</time>
      </trkpt>
      <trkpt lat="48.79143" lon="6.12871">
        <ele>193.3</ele>
        <time>2021-07-29T13:03:19Z</time>
      </trkpt>
      <trkpt lat="48.79145" lon="6.12877">
        <ele>193.5</ele>
        <time>2021-07-29T13:03:20Z</time>
      </trkpt>
      <trkpt lat="48.79147" lon="6.12881">
        <ele>193.5</ele>
        <time>2021-07-29T13:03:21Z</time>
      </trkpt>
      <trkpt lat="48.7915" lon="6.1289">
        <ele>193.7</ele>
        <time>2021-07-29T13:03:23Z</time>
      </trkpt>
      <trkpt lat="48.79152" lon="6.12894">
        <ele>193.8</ele>
        <time>2021-07-29T13:03:25Z</time>
      </trkpt>
      <trkpt lat="48.79153" lon="6.12898">
        <ele>193.9</ele>
        <time>2021-07-29T13:03:26Z</time>
      </trkpt>
      <trkpt lat="48.79157" lon="6.12905">
        <ele>194</ele>
        <time>2021-07-29T13:03:27Z</time>
      </trkpt>
      <trkpt lat="48.79159" lon="6.1291">
        <ele>194.1</ele>
        <time>2021-07-29T13:03:28Z</time>
      </trkpt>
      <trkpt lat="48.79161" lon="6.12916">
        <ele>194.2</ele>
        <time>2021-07-29T13:03:29Z</time>
      </trkpt>
      <trkpt lat="48.79162" lon="6.12921">
        <ele>194.2</ele>
        <time>2021-07-29T13:03:30Z</time>
      </trkpt>
      <trkpt lat="48.79164" lon="6.12928">
        <ele>194.3</ele>
        <time>2021-07-29T13:03:31Z</time>
      </trkpt>
      <trkpt lat="48.79165" lon="6.12938">
        <ele>194.3</ele>
        <time>2021-07-29T13:03:33Z</time>
      </trkpt>
      <trkpt lat="48.79165" lon="6.12944">
        <ele>194.4</ele>
        <time>2021-07-29T13:03:34Z</time>
      </trkpt>
      <trkpt lat="48.79166" lon="6.1295">
        <ele>194.4</ele>
        <time>2021-07-29T13:03:35Z</time>
      </trkpt>
      <trkpt lat="48.79168" lon="6.12955">
        <ele>194.4</ele>
        <time>2021-07-29T13:03:36Z</time>
      </trkpt>
      <trkpt lat="48.79168" lon="6.12962">
        <ele>194.4</ele>
        <time>2021-07-29T13:03:38Z</time>
      </trkpt>
      <trkpt lat="48.79168" lon="6.1297">
        <ele>194.4</ele>
        <time>2021-07-29T13:03:39Z</time>
      </trkpt>
      <trkpt lat="48.79168" lon="6.12984">
        <ele>194.3</ele>
        <time>2021-07-29T13:03:40Z</time>
      </trkpt>
      <trkpt lat="48.79169" lon="6.12995">
        <ele>194.3</ele>
        <time>2021-07-29T13:03:41Z</time>
      </trkpt>
      <trkpt lat="48.7917" lon="6.13005">
        <ele>194.2</ele>
        <time>2021-07-29T13:03:42Z</time>
      </trkpt>
      <trkpt lat="48.79174" lon="6.1302">
        <ele>194</ele>
        <time>2021-07-29T13:03:44Z</time>
      </trkpt>
      <trkpt lat="48.79177" lon="6.13036">
        <ele>193.8</ele>
        <time>2021-07-29T13:03:46Z</time>
      </trkpt>
      <trkpt lat="48.79178" lon="6.13043">
        <ele>193.7</ele>
        <time>2021-07-29T13:03:47Z</time>
      </trkpt>
      <trkpt lat="48.79183" lon="6.13057">
        <ele>193.4</ele>
        <time>2021-07-29T13:03:49Z</time>
      </trkpt>
      <trkpt lat="48.79186" lon="6.13065">
        <ele>193.2</ele>
        <time>2021-07-29T13:03:50Z</time>
      </trkpt>
      <trkpt lat="48.7919" lon="6.13081">
        <ele>192.8</ele>
        <time>2021-07-29T13:03:52Z</time>
      </trkpt>
      <trkpt lat="48.79193" lon="6.13099">
        <ele>192.4</ele>
        <time>2021-07-29T13:03:54Z</time>
      </trkpt>
      <trkpt lat="48.79195" lon="6.1312">
        <ele>191.9</ele>
        <time>2021-07-29T13:03:56Z</time>
      </trkpt>
      <trkpt lat="48.79197" lon="6.13139">
        <ele>191.3</ele>
        <time>2021-07-29T13:03:58Z</time>
      </trkpt>
      <trkpt lat="48.79198" lon="6.13149">
        <ele>191.1</ele>
        <time>2021-07-29T13:03:59Z</time>
      </trkpt>
      <trkpt lat="48.79199" lon="6.1316">
        <ele>190.8</ele>
        <time>2021-07-29T13:04:00Z</time>
      </trkpt>
      <trkpt lat="48.792" lon="6.13183">
        <ele>190.3</ele>
        <time>2021-07-29T13:04:02Z</time>
      </trkpt>
      <trkpt lat="48.79201" lon="6.13206">
        <ele>189.8</ele>
        <time>2021-07-29T13:04:04Z</time>
      </trkpt>
      <trkpt lat="48.79202" lon="6.13215">
        <ele>189.6</ele>
        <time>2021-07-29T13:04:05Z</time>
      </trkpt>
      <trkpt lat="48.79204" lon="6.13224">
        <ele>189.5</ele>
        <time>2021-07-29T13:04:06Z</time>
      </trkpt>
      <trkpt lat="48.79207" lon="6.13232">
        <ele>189.3</ele>
        <time>2021-07-29T13:04:07Z</time>
      </trkpt>
      <trkpt lat="48.79209" lon="6.13241">
        <ele>189.2</ele>
        <time>2021-07-29T13:04:08Z</time>
      </trkpt>
      <trkpt lat="48.79213" lon="6.1326">
        <ele>188.9</ele>
        <time>2021-07-29T13:04:10Z</time>
      </trkpt>
      <trkpt lat="48.79216" lon="6.13279">
        <ele>188.7</ele>
        <time>2021-07-29T13:04:12Z</time>
      </trkpt>
      <trkpt lat="48.79218" lon="6.13288">
        <ele>188.6</ele>
        <time>2021-07-29T13:04:13Z</time>
      </trkpt>
      <trkpt lat="48.79219" lon="6.13297">
        <ele>188.5</ele>
        <time>2021-07-29T13:04:14Z</time>
      </trkpt>
      <trkpt lat="48.79223" lon="6.13317">
        <ele>188.4</ele>
        <time>2021-07-29T13:04:16Z</time>
      </trkpt>
      <trkpt lat="48.79225" lon="6.13328">
        <ele>188.4</ele>
        <time>2021-07-29T13:04:17Z</time>
      </trkpt>
      <trkpt lat="48.79226" lon="6.13338">
        <ele>188.4</ele>
        <time>2021-07-29T13:04:18Z</time>
      </trkpt>
      <trkpt lat="48.79229" lon="6.13347">
        <ele>188.4</ele>
        <time>2021-07-29T13:04:20Z</time>
      </trkpt>
      <trkpt lat="48.7923" lon="6.13355">
        <ele>188.4</ele>
        <time>2021-07-29T13:04:21Z</time>
      </trkpt>
      <trkpt lat="48.79233" lon="6.13379">
        <ele>188.3</ele>
        <time>2021-07-29T13:04:23Z</time>
      </trkpt>
      <trkpt lat="48.79235" lon="6.13388">
        <ele>188.3</ele>
        <time>2021-07-29T13:04:24Z</time>
      </trkpt>
      <trkpt lat="48.79235" lon="6.13393">
        <ele>188.3</ele>
        <time>2021-07-29T13:04:25Z</time>
      </trkpt>
      <trkpt lat="48.79236" lon="6.13397">
        <ele>188.3</ele>
        <time>2021-07-29T13:04:26Z</time>
      </trkpt>
      <trkpt lat="48.79236" lon="6.134">
        <ele>188.3</ele>
        <time>2021-07-29T13:04:27Z</time>
      </trkpt>
      <trkpt lat="48.79237" lon="6.13411">
        <ele>188.3</ele>
        <time>2021-07-29T13:04:29Z</time>
      </trkpt>
      <trkpt lat="48.79237" lon="6.13419">
        <ele>188.3</ele>
        <time>2021-07-29T13:04:31Z</time>
      </trkpt>
      <trkpt lat="48.7923" lon="6.13468">
        <ele>188.2</ele>
        <time>2021-07-29T13:04:32Z</time>
      </trkpt>
      <trkpt lat="48.7923" lon="6.13477">
        <ele>188.2</ele>
        <time>2021-07-29T13:04:33Z</time>
      </trkpt>
      <trkpt lat="48.7923" lon="6.13502">
        <ele>188.1</ele>
        <time>2021-07-29T13:04:35Z</time>
      </trkpt>
      <trkpt lat="48.79228" lon="6.13524">
        <ele>188</ele>
        <time>2021-07-29T13:04:37Z</time>
      </trkpt>
      <trkpt lat="48.79228" lon="6.13534">
        <ele>188</ele>
        <time>2021-07-29T13:04:38Z</time>
      </trkpt>
      <trkpt lat="48.79228" lon="6.13552">
        <ele>187.9</ele>
        <time>2021-07-29T13:04:40Z</time>
      </trkpt>
      <trkpt lat="48.79229" lon="6.1356">
        <ele>187.9</ele>
        <time>2021-07-29T13:04:41Z</time>
      </trkpt>
      <trkpt lat="48.7923" lon="6.13569">
        <ele>187.8</ele>
        <time>2021-07-29T13:04:42Z</time>
      </trkpt>
      <trkpt lat="48.79229" lon="6.13588">
        <ele>187.7</ele>
        <time>2021-07-29T13:04:44Z</time>
      </trkpt>
      <trkpt lat="48.79228" lon="6.13608">
        <ele>187.6</ele>
        <time>2021-07-29T13:04:46Z</time>
      </trkpt>
      <trkpt lat="48.79225" lon="6.13623">
        <ele>187.6</ele>
        <time>2021-07-29T13:04:48Z</time>
      </trkpt>
      <trkpt lat="48.79223" lon="6.1363">
        <ele>187.5</ele>
        <time>2021-07-29T13:04:49Z</time>
      </trkpt>
      <trkpt lat="48.79222" lon="6.13637">
        <ele>187.5</ele>
        <time>2021-07-29T13:04:50Z</time>
      </trkpt>
      <trkpt lat="48.79218" lon="6.13651">
        <ele>187.5</ele>
        <time>2021-07-29T13:04:52Z</time>
      </trkpt>
      <trkpt lat="48.79216" lon="6.13658">
        <ele>187.5</ele>
        <time>2021-07-29T13:04:53Z</time>
      </trkpt>
      <trkpt lat="48.79213" lon="6.13672">
        <ele>187.4</ele>
        <time>2021-07-29T13:04:55Z</time>
      </trkpt>
      <trkpt lat="48.79212" lon="6.13677">
        <ele>187.3</ele>
        <time>2021-07-29T13:04:56Z</time>
      </trkpt>
      <trkpt lat="48.7921" lon="6.13684">
        <ele>187.3</ele>
        <time>2021-07-29T13:04:57Z</time>
      </trkpt>
      <trkpt lat="48.79206" lon="6.13698">
        <ele>187.2</ele>
        <time>2021-07-29T13:04:59Z</time>
      </trkpt>
      <trkpt lat="48.792" lon="6.13714">
        <ele>187.1</ele>
        <time>2021-07-29T13:05:01Z</time>
      </trkpt>
      <trkpt lat="48.79197" lon="6.13722">
        <ele>187.1</ele>
        <time>2021-07-29T13:05:02Z</time>
      </trkpt>
      <trkpt lat="48.79192" lon="6.13736">
        <ele>187</ele>
        <time>2021-07-29T13:05:04Z</time>
      </trkpt>
      <trkpt lat="48.7919" lon="6.13743">
        <ele>187</ele>
        <time>2021-07-29T13:05:05Z</time>
      </trkpt>
      <trkpt lat="48.79188" lon="6.13752">
        <ele>187</ele>
        <time>2021-07-29T13:05:07Z</time>
      </trkpt>
      <trkpt lat="48.79188" lon="6.13761">
        <ele>187</ele>
        <time>2021-07-29T13:05:08Z</time>
      </trkpt>
      <trkpt lat="48.79183" lon="6.13766">
        <ele>187</ele>
        <time>2021-07-29T13:05:09Z</time>
      </trkpt>
      <trkpt lat="48.79183" lon="6.13773">
        <ele>186.9</ele>
        <time>2021-07-29T13:05:10Z</time>
      </trkpt>
      <trkpt lat="48.7918" lon="6.13782">
        <ele>186.9</ele>
        <time>2021-07-29T13:05:12Z</time>
      </trkpt>
      <trkpt lat="48.79177" lon="6.13789">
        <ele>186.9</ele>
        <time>2021-07-29T13:05:14Z</time>
      </trkpt>
      <trkpt lat="48.7917" lon="6.13803">
        <ele>186.9</ele>
        <time>2021-07-29T13:05:16Z</time>
      </trkpt>
      <trkpt lat="48.79167" lon="6.1381">
        <ele>186.9</ele>
        <time>2021-07-29T13:05:17Z</time>
      </trkpt>
      <trkpt lat="48.79159" lon="6.13822">
        <ele>186.9</ele>
        <time>2021-07-29T13:05:19Z</time>
      </trkpt>
      <trkpt lat="48.79156" lon="6.13832">
        <ele>186.9</ele>
        <time>2021-07-29T13:05:20Z</time>
      </trkpt>
      <trkpt lat="48.79149" lon="6.13851">
        <ele>187</ele>
        <time>2021-07-29T13:05:22Z</time>
      </trkpt>
      <trkpt lat="48.79146" lon="6.1386">
        <ele>187.1</ele>
        <time>2021-07-29T13:05:23Z</time>
      </trkpt>
      <trkpt lat="48.79143" lon="6.13869">
        <ele>187.2</ele>
        <time>2021-07-29T13:05:24Z</time>
      </trkpt>
      <trkpt lat="48.79137" lon="6.13885">
        <ele>187.3</ele>
        <time>2021-07-29T13:05:26Z</time>
      </trkpt>
      <trkpt lat="48.79134" lon="6.13902">
        <ele>187.4</ele>
        <time>2021-07-29T13:05:28Z</time>
      </trkpt>
      <trkpt lat="48.79134" lon="6.13913">
        <ele>187.5</ele>
        <time>2021-07-29T13:05:29Z</time>
      </trkpt>
      <trkpt lat="48.79132" lon="6.13922">
        <ele>187.6</ele>
        <time>2021-07-29T13:05:30Z</time>
      </trkpt>
      <trkpt lat="48.7913" lon="6.13929">
        <ele>187.7</ele>
        <time>2021-07-29T13:05:31Z</time>
      </trkpt>
      <trkpt lat="48.79122" lon="6.13943">
        <ele>187.9</ele>
        <time>2021-07-29T13:05:33Z</time>
      </trkpt>
      <trkpt lat="48.79116" lon="6.13956">
        <ele>188.1</ele>
        <time>2021-07-29T13:05:35Z</time>
      </trkpt>
      <trkpt lat="48.79114" lon="6.1396">
        <ele>188.2</ele>
        <time>2021-07-29T13:05:36Z</time>
      </trkpt>
      <trkpt lat="48.79109" lon="6.1397">
        <ele>188.4</ele>
        <time>2021-07-29T13:05:38Z</time>
      </trkpt>
      <trkpt lat="48.79105" lon="6.1398">
        <ele>188.5</ele>
        <time>2021-07-29T13:05:40Z</time>
      </trkpt>
      <trkpt lat="48.79102" lon="6.13986">
        <ele>188.7</ele>
        <time>2021-07-29T13:05:41Z</time>
      </trkpt>
      <trkpt lat="48.79101" lon="6.13991">
        <ele>188.7</ele>
        <time>2021-07-29T13:05:42Z</time>
      </trkpt>
      <trkpt lat="48.79097" lon="6.13998">
        <ele>188.9</ele>
        <time>2021-07-29T13:05:43Z</time>
      </trkpt>
      <trkpt lat="48.79093" lon="6.14004">
        <ele>189</ele>
        <time>2021-07-29T13:05:45Z</time>
      </trkpt>
      <trkpt lat="48.79091" lon="6.1401">
        <ele>189.1</ele>
        <time>2021-07-29T13:05:46Z</time>
      </trkpt>
      <trkpt lat="48.79092" lon="6.14015">
        <ele>189.2</ele>
        <time>2021-07-29T13:05:47Z</time>
      </trkpt>
      <trkpt lat="48.79092" lon="6.14016">
        <ele>189.2</ele>
        <time>2021-07-29T13:05:48Z</time>
      </trkpt>
      <trkpt lat="48.79092" lon="6.14016">
        <ele>189.2</ele>
        <time>2021-07-29T13:05:51Z</time>
      </trkpt>
      <trkpt lat="48.79091" lon="6.14021">
        <ele>189.3</ele>
        <time>2021-07-29T13:05:52Z</time>
      </trkpt>
      <trkpt lat="48.7909" lon="6.14023">
        <ele>189.4</ele>
        <time>2021-07-29T13:05:53Z</time>
      </trkpt>
      <trkpt lat="48.79087" lon="6.1403">
        <ele>189.5</ele>
        <time>2021-07-29T13:05:55Z</time>
      </trkpt>
      <trkpt lat="48.79086" lon="6.14033">
        <ele>189.6</ele>
        <time>2021-07-29T13:05:56Z</time>
      </trkpt>
      <trkpt lat="48.79086" lon="6.14039">
        <ele>189.7</ele>
        <time>2021-07-29T13:05:58Z</time>
      </trkpt>
      <trkpt lat="48.79086" lon="6.14046">
        <ele>189.9</ele>
        <time>2021-07-29T13:05:59Z</time>
      </trkpt>
      <trkpt lat="48.79084" lon="6.14051">
        <ele>190</ele>
        <time>2021-07-29T13:06:01Z</time>
      </trkpt>
      <trkpt lat="48.79082" lon="6.14055">
        <ele>190.1</ele>
        <time>2021-07-29T13:06:02Z</time>
      </trkpt>
      <trkpt lat="48.79081" lon="6.14059">
        <ele>190.1</ele>
        <time>2021-07-29T13:06:03Z</time>
      </trkpt>
      <trkpt lat="48.79081" lon="6.14061">
        <ele>190.2</ele>
        <time>2021-07-29T13:06:05Z</time>
      </trkpt>
      <trkpt lat="48.7908" lon="6.14065">
        <ele>190.2</ele>
        <time>2021-07-29T13:06:07Z</time>
      </trkpt>
      <trkpt lat="48.79079" lon="6.14066">
        <ele>190.3</ele>
        <time>2021-07-29T13:06:08Z</time>
      </trkpt>
      <trkpt lat="48.79078" lon="6.14069">
        <ele>190.3</ele>
        <time>2021-07-29T13:06:09Z</time>
      </trkpt>
      <trkpt lat="48.79078" lon="6.14073">
        <ele>190.4</ele>
        <time>2021-07-29T13:06:11Z</time>
      </trkpt>
      <trkpt lat="48.79077" lon="6.14077">
        <ele>190.5</ele>
        <time>2021-07-29T13:06:13Z</time>
      </trkpt>
      <trkpt lat="48.79074" lon="6.14084">
        <ele>190.6</ele>
        <time>2021-07-29T13:06:15Z</time>
      </trkpt>
      <trkpt lat="48.79073" lon="6.14088">
        <ele>190.6</ele>
        <time>2021-07-29T13:06:16Z</time>
      </trkpt>
      <trkpt lat="48.79069" lon="6.14105">
        <ele>190.6</ele>
        <time>2021-07-29T13:06:18Z</time>
      </trkpt>
      <trkpt lat="48.79068" lon="6.14109">
        <ele>190.6</ele>
        <time>2021-07-29T13:06:19Z</time>
      </trkpt>
      <trkpt lat="48.79067" lon="6.14115">
        <ele>190.6</ele>
        <time>2021-07-29T13:06:20Z</time>
      </trkpt>
      <trkpt lat="48.79065" lon="6.14124">
        <ele>190.6</ele>
        <time>2021-07-29T13:06:22Z</time>
      </trkpt>
      <trkpt lat="48.79062" lon="6.14133">
        <ele>190.6</ele>
        <time>2021-07-29T13:06:24Z</time>
      </trkpt>
      <trkpt lat="48.7906" lon="6.14137">
        <ele>190.6</ele>
        <time>2021-07-29T13:06:25Z</time>
      </trkpt>
      <trkpt lat="48.79059" lon="6.14142">
        <ele>190.6</ele>
        <time>2021-07-29T13:06:26Z</time>
      </trkpt>
      <trkpt lat="48.79058" lon="6.14145">
        <ele>190.6</ele>
        <time>2021-07-29T13:06:27Z</time>
      </trkpt>
      <trkpt lat="48.79057" lon="6.14151">
        <ele>190.6</ele>
        <time>2021-07-29T13:06:29Z</time>
      </trkpt>
      <trkpt lat="48.79055" lon="6.14156">
        <ele>190.6</ele>
        <time>2021-07-29T13:06:31Z</time>
      </trkpt>
      <trkpt lat="48.79054" lon="6.14159">
        <ele>190.5</ele>
        <time>2021-07-29T13:06:32Z</time>
      </trkpt>
      <trkpt lat="48.79052" lon="6.14165">
        <ele>190.5</ele>
        <time>2021-07-29T13:06:34Z</time>
      </trkpt>
      <trkpt lat="48.79052" lon="6.14172">
        <ele>190.5</ele>
        <time>2021-07-29T13:06:35Z</time>
      </trkpt>
      <trkpt lat="48.79052" lon="6.14175">
        <ele>190.5</ele>
        <time>2021-07-29T13:06:36Z</time>
      </trkpt>
      <trkpt lat="48.79052" lon="6.14182">
        <ele>190.5</ele>
        <time>2021-07-29T13:06:38Z</time>
      </trkpt>
      <trkpt lat="48.79052" lon="6.14184">
        <ele>190.4</ele>
        <time>2021-07-29T13:06:40Z</time>
      </trkpt>
      <trkpt lat="48.79052" lon="6.14186">
        <ele>190.4</ele>
        <time>2021-07-29T13:06:42Z</time>
      </trkpt>
      <trkpt lat="48.79052" lon="6.14188">
        <ele>190.4</ele>
        <time>2021-07-29T13:06:44Z</time>
      </trkpt>
      <trkpt lat="48.79052" lon="6.1419">
        <ele>190.4</ele>
        <time>2021-07-29T13:06:45Z</time>
      </trkpt>
      <trkpt lat="48.79049" lon="6.14196">
        <ele>190.4</ele>
        <time>2021-07-29T13:06:47Z</time>
      </trkpt>
      <trkpt lat="48.79044" lon="6.14206">
        <ele>190.3</ele>
        <time>2021-07-29T13:06:49Z</time>
      </trkpt>
      <trkpt lat="48.7904" lon="6.14212">
        <ele>190.3</ele>
        <time>2021-07-29T13:06:50Z</time>
      </trkpt>
      <trkpt lat="48.79037" lon="6.14218">
        <ele>190.3</ele>
        <time>2021-07-29T13:06:51Z</time>
      </trkpt>
      <trkpt lat="48.79034" lon="6.14224">
        <ele>190.3</ele>
        <time>2021-07-29T13:06:53Z</time>
      </trkpt>
      <trkpt lat="48.79032" lon="6.14227">
        <ele>190.3</ele>
        <time>2021-07-29T13:06:54Z</time>
      </trkpt>
      <trkpt lat="48.7903" lon="6.14229">
        <ele>190.2</ele>
        <time>2021-07-29T13:06:55Z</time>
      </trkpt>
      <trkpt lat="48.79029" lon="6.1423">
        <ele>190.2</ele>
        <time>2021-07-29T13:06:56Z</time>
      </trkpt>
      <trkpt lat="48.79026" lon="6.14235">
        <ele>190.2</ele>
        <time>2021-07-29T13:06:58Z</time>
      </trkpt>
      <trkpt lat="48.79025" lon="6.14237">
        <ele>190.2</ele>
        <time>2021-07-29T13:06:59Z</time>
      </trkpt>
      <trkpt lat="48.79023" lon="6.14241">
        <ele>190.2</ele>
        <time>2021-07-29T13:07:00Z</time>
      </trkpt>
      <trkpt lat="48.79018" lon="6.14248">
        <ele>190.2</ele>
        <time>2021-07-29T13:07:02Z</time>
      </trkpt>
      <trkpt lat="48.79014" lon="6.14253">
        <ele>190.3</ele>
        <time>2021-07-29T13:07:04Z</time>
      </trkpt>
      <trkpt lat="48.79012" lon="6.14255">
        <ele>190.3</ele>
        <time>2021-07-29T13:07:05Z</time>
      </trkpt>
      <trkpt lat="48.79011" lon="6.14257">
        <ele>190.3</ele>
        <time>2021-07-29T13:07:07Z</time>
      </trkpt>
      <trkpt lat="48.79009" lon="6.1426">
        <ele>190.3</ele>
        <time>2021-07-29T13:07:08Z</time>
      </trkpt>
      <trkpt lat="48.79007" lon="6.14264">
        <ele>190.3</ele>
        <time>2021-07-29T13:07:09Z</time>
      </trkpt>
      <trkpt lat="48.79004" lon="6.14268">
        <ele>190.3</ele>
        <time>2021-07-29T13:07:10Z</time>
      </trkpt>
      <trkpt lat="48.79001" lon="6.14269">
        <ele>190.4</ele>
        <time>2021-07-29T13:07:11Z</time>
      </trkpt>
      <trkpt lat="48.79" lon="6.14268">
        <ele>190.4</ele>
        <time>2021-07-29T13:07:13Z</time>
      </trkpt>
      <trkpt lat="48.78999" lon="6.14267">
        <ele>190.4</ele>
        <time>2021-07-29T13:07:14Z</time>
      </trkpt>
      <trkpt lat="48.78999" lon="6.14267">
        <ele>190.4</ele>
        <time>2021-07-29T13:07:14Z</time>
      </trkpt>
      <trkpt lat="48.78996" lon="6.14264">
        <ele>190.4</ele>
        <time>2021-07-29T13:07:16Z</time>
      </trkpt>
      <trkpt lat="48.78999" lon="6.14266">
        <ele>190.4</ele>
        <time>2021-07-29T13:07:22Z</time>
      </trkpt>
      <trkpt lat="48.78998" lon="6.14265">
        <ele>190.4</ele>
        <time>2021-07-29T13:07:23Z</time>
      </trkpt>
      <trkpt lat="48.78997" lon="6.14264">
        <ele>190.4</ele>
        <time>2021-07-29T13:07:25Z</time>
      </trkpt>
      <trkpt lat="48.78997" lon="6.14264">
        <ele>190.4</ele>
        <time>2021-07-29T13:07:26Z</time>
      </trkpt>
      <trkpt lat="48.78997" lon="6.14263">
        <ele>190.4</ele>
        <time>2021-07-29T13:07:27Z</time>
      </trkpt>
      <trkpt lat="48.78997" lon="6.14262">
        <ele>190.4</ele>
        <time>2021-07-29T13:07:28Z</time>
      </trkpt>
      <trkpt lat="48.78996" lon="6.14259">
        <ele>190.4</ele>
        <time>2021-07-29T13:07:29Z</time>
      </trkpt>
      <trkpt lat="48.78996" lon="6.14257">
        <ele>190.4</ele>
        <time>2021-07-29T13:07:30Z</time>
      </trkpt>
      <trkpt lat="48.78996" lon="6.14256">
        <ele>190.4</ele>
        <time>2021-07-29T13:07:32Z</time>
      </trkpt>
      <trkpt lat="48.78996" lon="6.14248">
        <ele>190.4</ele>
        <time>2021-07-29T13:08:43Z</time>
      </trkpt>
      <trkpt lat="48.78994" lon="6.14259">
        <ele>190.5</ele>
        <time>2021-07-29T13:08:45Z</time>
      </trkpt>
      <trkpt lat="48.7899" lon="6.14273">
        <ele>190.5</ele>
        <time>2021-07-29T13:08:46Z</time>
      </trkpt>
      <trkpt lat="48.78985" lon="6.14291">
        <ele>190.6</ele>
        <time>2021-07-29T13:08:48Z</time>
      </trkpt>
      <trkpt lat="48.7898" lon="6.14304">
        <ele>190.7</ele>
        <time>2021-07-29T13:08:49Z</time>
      </trkpt>
      <trkpt lat="48.78979" lon="6.14308">
        <ele>190.8</ele>
        <time>2021-07-29T13:08:50Z</time>
      </trkpt>
      <trkpt lat="48.78975" lon="6.14315">
        <ele>190.9</ele>
        <time>2021-07-29T13:08:52Z</time>
      </trkpt>
      <trkpt lat="48.78973" lon="6.14318">
        <ele>191.1</ele>
        <time>2021-07-29T13:08:53Z</time>
      </trkpt>
      <trkpt lat="48.78967" lon="6.14326">
        <ele>191.7</ele>
        <time>2021-07-29T13:08:55Z</time>
      </trkpt>
      <trkpt lat="48.78962" lon="6.1433">
        <ele>192</ele>
        <time>2021-07-29T13:08:57Z</time>
      </trkpt>
      <trkpt lat="48.78956" lon="6.14336">
        <ele>192.3</ele>
        <time>2021-07-29T13:08:58Z</time>
      </trkpt>
      <trkpt lat="48.78952" lon="6.1434">
        <ele>192.6</ele>
        <time>2021-07-29T13:09:00Z</time>
      </trkpt>
      <trkpt lat="48.78948" lon="6.14343">
        <ele>192.8</ele>
        <time>2021-07-29T13:09:01Z</time>
      </trkpt>
      <trkpt lat="48.78945" lon="6.14344">
        <ele>192.9</ele>
        <time>2021-07-29T13:09:03Z</time>
      </trkpt>
      <trkpt lat="48.78944" lon="6.14343">
        <ele>192.9</ele>
        <time>2021-07-29T13:09:04Z</time>
      </trkpt>
      <trkpt lat="48.78943" lon="6.14341">
        <ele>193</ele>
        <time>2021-07-29T13:09:05Z</time>
      </trkpt>
      <trkpt lat="48.7894" lon="6.1434">
        <ele>193.2</ele>
        <time>2021-07-29T13:09:07Z</time>
      </trkpt>
      <trkpt lat="48.78939" lon="6.14339">
        <ele>193.2</ele>
        <time>2021-07-29T13:09:08Z</time>
      </trkpt>
      <trkpt lat="48.78937" lon="6.14339">
        <ele>193.3</ele>
        <time>2021-07-29T13:09:09Z</time>
      </trkpt>
      <trkpt lat="48.78935" lon="6.14339">
        <ele>193.4</ele>
        <time>2021-07-29T13:09:10Z</time>
      </trkpt>
      <trkpt lat="48.78934" lon="6.1434">
        <ele>193.4</ele>
        <time>2021-07-29T13:09:11Z</time>
      </trkpt>
      <trkpt lat="48.78932" lon="6.1434">
        <ele>193.5</ele>
        <time>2021-07-29T13:09:12Z</time>
      </trkpt>
      <trkpt lat="48.78929" lon="6.1434">
        <ele>193.6</ele>
        <time>2021-07-29T13:09:14Z</time>
      </trkpt>
      <trkpt lat="48.78925" lon="6.14341">
        <ele>193.7</ele>
        <time>2021-07-29T13:09:16Z</time>
      </trkpt>
      <trkpt lat="48.78924" lon="6.14342">
        <ele>193.7</ele>
        <time>2021-07-29T13:09:17Z</time>
      </trkpt>
      <trkpt lat="48.78921" lon="6.14344">
        <ele>193.8</ele>
        <time>2021-07-29T13:09:18Z</time>
      </trkpt>
      <trkpt lat="48.78919" lon="6.14347">
        <ele>193.9</ele>
        <time>2021-07-29T13:09:20Z</time>
      </trkpt>
      <trkpt lat="48.78916" lon="6.1435">
        <ele>194</ele>
        <time>2021-07-29T13:09:22Z</time>
      </trkpt>
      <trkpt lat="48.78913" lon="6.14354">
        <ele>194.2</ele>
        <time>2021-07-29T13:09:23Z</time>
      </trkpt>
      <trkpt lat="48.7891" lon="6.14356">
        <ele>194.3</ele>
        <time>2021-07-29T13:09:24Z</time>
      </trkpt>
      <trkpt lat="48.78908" lon="6.14357">
        <ele>194.5</ele>
        <time>2021-07-29T13:09:32Z</time>
      </trkpt>
      <trkpt lat="48.78906" lon="6.14359">
        <ele>194.6</ele>
        <time>2021-07-29T13:09:33Z</time>
      </trkpt>
      <trkpt lat="48.78902" lon="6.14361">
        <ele>194.8</ele>
        <time>2021-07-29T13:09:34Z</time>
      </trkpt>
      <trkpt lat="48.78898" lon="6.14364">
        <ele>195</ele>
        <time>2021-07-29T13:09:35Z</time>
      </trkpt>
      <trkpt lat="48.78894" lon="6.14367">
        <ele>195.3</ele>
        <time>2021-07-29T13:09:36Z</time>
      </trkpt>
      <trkpt lat="48.78891" lon="6.14372">
        <ele>195.5</ele>
        <time>2021-07-29T13:09:38Z</time>
      </trkpt>
      <trkpt lat="48.78888" lon="6.14377">
        <ele>195.7</ele>
        <time>2021-07-29T13:09:39Z</time>
      </trkpt>
      <trkpt lat="48.78885" lon="6.14382">
        <ele>196</ele>
        <time>2021-07-29T13:09:40Z</time>
      </trkpt>
      <trkpt lat="48.78882" lon="6.14385">
        <ele>196.2</ele>
        <time>2021-07-29T13:09:41Z</time>
      </trkpt>
      <trkpt lat="48.7888" lon="6.14387">
        <ele>196.3</ele>
        <time>2021-07-29T13:09:43Z</time>
      </trkpt>
      <trkpt lat="48.78875" lon="6.1439">
        <ele>196.5</ele>
        <time>2021-07-29T13:09:44Z</time>
      </trkpt>
      <trkpt lat="48.78871" lon="6.1439">
        <ele>196.7</ele>
        <time>2021-07-29T13:09:46Z</time>
      </trkpt>
      <trkpt lat="48.78869" lon="6.14389">
        <ele>196.8</ele>
        <time>2021-07-29T13:09:47Z</time>
      </trkpt>
      <trkpt lat="48.78868" lon="6.14388">
        <ele>196.9</ele>
        <time>2021-07-29T13:09:48Z</time>
      </trkpt>
      <trkpt lat="48.78864" lon="6.14386">
        <ele>197.1</ele>
        <time>2021-07-29T13:09:49Z</time>
      </trkpt>
      <trkpt lat="48.78861" lon="6.14386">
        <ele>197.3</ele>
        <time>2021-07-29T13:09:50Z</time>
      </trkpt>
      <trkpt lat="48.78859" lon="6.14385">
        <ele>197.3</ele>
        <time>2021-07-29T13:09:52Z</time>
      </trkpt>
      <trkpt lat="48.78856" lon="6.14384">
        <ele>197.4</ele>
        <time>2021-07-29T13:09:53Z</time>
      </trkpt>
      <trkpt lat="48.78854" lon="6.14384">
        <ele>197.4</ele>
        <time>2021-07-29T13:09:54Z</time>
      </trkpt>
      <trkpt lat="48.78851" lon="6.14383">
        <ele>197.5</ele>
        <time>2021-07-29T13:09:56Z</time>
      </trkpt>
      <trkpt lat="48.78848" lon="6.14383">
        <ele>197.6</ele>
        <time>2021-07-29T13:10:10Z</time>
      </trkpt>
      <trkpt lat="48.78846" lon="6.14382">
        <ele>197.7</ele>
        <time>2021-07-29T13:10:11Z</time>
      </trkpt>
      <trkpt lat="48.7884" lon="6.14384">
        <ele>197.8</ele>
        <time>2021-07-29T13:10:13Z</time>
      </trkpt>
      <trkpt lat="48.78834" lon="6.14386">
        <ele>198</ele>
        <time>2021-07-29T13:10:14Z</time>
      </trkpt>
      <trkpt lat="48.78829" lon="6.14389">
        <ele>198.2</ele>
        <time>2021-07-29T13:10:15Z</time>
      </trkpt>
      <trkpt lat="48.78824" lon="6.14393">
        <ele>198.3</ele>
        <time>2021-07-29T13:10:17Z</time>
      </trkpt>
      <trkpt lat="48.7882" lon="6.14395">
        <ele>198.4</ele>
        <time>2021-07-29T13:10:18Z</time>
      </trkpt>
      <trkpt lat="48.78815" lon="6.14399">
        <ele>198.5</ele>
        <time>2021-07-29T13:10:19Z</time>
      </trkpt>
      <trkpt lat="48.78811" lon="6.14403">
        <ele>198.6</ele>
        <time>2021-07-29T13:10:21Z</time>
      </trkpt>
      <trkpt lat="48.78807" lon="6.14404">
        <ele>198.7</ele>
        <time>2021-07-29T13:10:22Z</time>
      </trkpt>
      <trkpt lat="48.78804" lon="6.14402">
        <ele>198.8</ele>
        <time>2021-07-29T13:10:24Z</time>
      </trkpt>
      <trkpt lat="48.788" lon="6.14401">
        <ele>198.8</ele>
        <time>2021-07-29T13:10:25Z</time>
      </trkpt>
      <trkpt lat="48.78796" lon="6.14402">
        <ele>198.9</ele>
        <time>2021-07-29T13:10:27Z</time>
      </trkpt>
      <trkpt lat="48.78793" lon="6.14403">
        <ele>198.9</ele>
        <time>2021-07-29T13:10:28Z</time>
      </trkpt>
      <trkpt lat="48.78787" lon="6.14407">
        <ele>199</ele>
        <time>2021-07-29T13:10:30Z</time>
      </trkpt>
      <trkpt lat="48.78779" lon="6.14406">
        <ele>199.1</ele>
        <time>2021-07-29T13:10:32Z</time>
      </trkpt>
      <trkpt lat="48.7877" lon="6.14402">
        <ele>199.2</ele>
        <time>2021-07-29T13:10:34Z</time>
      </trkpt>
      <trkpt lat="48.78766" lon="6.144">
        <ele>199.2</ele>
        <time>2021-07-29T13:10:35Z</time>
      </trkpt>
      <trkpt lat="48.78764" lon="6.144">
        <ele>199.2</ele>
        <time>2021-07-29T13:10:36Z</time>
      </trkpt>
      <trkpt lat="48.7876" lon="6.144">
        <ele>199.3</ele>
        <time>2021-07-29T13:10:38Z</time>
      </trkpt>
      <trkpt lat="48.78758" lon="6.14401">
        <ele>199.3</ele>
        <time>2021-07-29T13:10:39Z</time>
      </trkpt>
      <trkpt lat="48.78756" lon="6.144">
        <ele>199.3</ele>
        <time>2021-07-29T13:10:40Z</time>
      </trkpt>
      <trkpt lat="48.78752" lon="6.144">
        <ele>199.3</ele>
        <time>2021-07-29T13:10:41Z</time>
      </trkpt>
      <trkpt lat="48.78748" lon="6.14401">
        <ele>199.3</ele>
        <time>2021-07-29T13:10:42Z</time>
      </trkpt>
      <trkpt lat="48.78745" lon="6.14402">
        <ele>199.3</ele>
        <time>2021-07-29T13:10:43Z</time>
      </trkpt>
      <trkpt lat="48.78742" lon="6.14404">
        <ele>199.3</ele>
        <time>2021-07-29T13:10:44Z</time>
      </trkpt>
      <trkpt lat="48.78739" lon="6.14405">
        <ele>199.3</ele>
        <time>2021-07-29T13:10:45Z</time>
      </trkpt>
      <trkpt lat="48.78736" lon="6.14405">
        <ele>199.3</ele>
        <time>2021-07-29T13:10:46Z</time>
      </trkpt>
      <trkpt lat="48.78732" lon="6.14408">
        <ele>199.3</ele>
        <time>2021-07-29T13:10:48Z</time>
      </trkpt>
      <trkpt lat="48.78728" lon="6.1441">
        <ele>199.2</ele>
        <time>2021-07-29T13:10:49Z</time>
      </trkpt>
      <trkpt lat="48.78722" lon="6.14414">
        <ele>199.2</ele>
        <time>2021-07-29T13:10:51Z</time>
      </trkpt>
      <trkpt lat="48.78719" lon="6.14415">
        <ele>199.2</ele>
        <time>2021-07-29T13:10:52Z</time>
      </trkpt>
      <trkpt lat="48.78713" lon="6.14417">
        <ele>199.2</ele>
        <time>2021-07-29T13:10:54Z</time>
      </trkpt>
      <trkpt lat="48.78706" lon="6.14416">
        <ele>199.1</ele>
        <time>2021-07-29T13:10:56Z</time>
      </trkpt>
      <trkpt lat="48.78699" lon="6.14415">
        <ele>199</ele>
        <time>2021-07-29T13:10:58Z</time>
      </trkpt>
      <trkpt lat="48.78695" lon="6.14414">
        <ele>199</ele>
        <time>2021-07-29T13:10:59Z</time>
      </trkpt>
      <trkpt lat="48.78691" lon="6.14414">
        <ele>199</ele>
        <time>2021-07-29T13:11:00Z</time>
      </trkpt>
      <trkpt lat="48.78684" lon="6.14418">
        <ele>198.9</ele>
        <time>2021-07-29T13:11:01Z</time>
      </trkpt>
      <trkpt lat="48.78679" lon="6.1442">
        <ele>198.8</ele>
        <time>2021-07-29T13:11:03Z</time>
      </trkpt>
      <trkpt lat="48.78672" lon="6.14419">
        <ele>198.7</ele>
        <time>2021-07-29T13:11:05Z</time>
      </trkpt>
      <trkpt lat="48.78667" lon="6.14416">
        <ele>198.6</ele>
        <time>2021-07-29T13:11:06Z</time>
      </trkpt>
      <trkpt lat="48.78663" lon="6.14415">
        <ele>198.6</ele>
        <time>2021-07-29T13:11:08Z</time>
      </trkpt>
      <trkpt lat="48.7866" lon="6.14414">
        <ele>198.5</ele>
        <time>2021-07-29T13:11:09Z</time>
      </trkpt>
      <trkpt lat="48.78654" lon="6.14413">
        <ele>198.4</ele>
        <time>2021-07-29T13:11:11Z</time>
      </trkpt>
      <trkpt lat="48.7865" lon="6.14412">
        <ele>198.3</ele>
        <time>2021-07-29T13:11:12Z</time>
      </trkpt>
      <trkpt lat="48.78647" lon="6.14411">
        <ele>198.3</ele>
        <time>2021-07-29T13:11:13Z</time>
      </trkpt>
      <trkpt lat="48.78644" lon="6.1441">
        <ele>198.2</ele>
        <time>2021-07-29T13:11:14Z</time>
      </trkpt>
      <trkpt lat="48.7864" lon="6.14408">
        <ele>198.1</ele>
        <time>2021-07-29T13:11:15Z</time>
      </trkpt>
      <trkpt lat="48.78639" lon="6.14407">
        <ele>198.1</ele>
        <time>2021-07-29T13:11:16Z</time>
      </trkpt>
      <trkpt lat="48.78634" lon="6.14405">
        <ele>198</ele>
        <time>2021-07-29T13:11:18Z</time>
      </trkpt>
      <trkpt lat="48.78632" lon="6.14405">
        <ele>198</ele>
        <time>2021-07-29T13:11:19Z</time>
      </trkpt>
      <trkpt lat="48.7863" lon="6.14405">
        <ele>197.9</ele>
        <time>2021-07-29T13:11:20Z</time>
      </trkpt>
      <trkpt lat="48.78628" lon="6.14404">
        <ele>197.9</ele>
        <time>2021-07-29T13:11:21Z</time>
      </trkpt>
      <trkpt lat="48.78627" lon="6.14403">
        <ele>197.8</ele>
        <time>2021-07-29T13:11:23Z</time>
      </trkpt>
      <trkpt lat="48.78619" lon="6.14402">
        <ele>197.7</ele>
        <time>2021-07-29T13:11:25Z</time>
      </trkpt>
      <trkpt lat="48.78619" lon="6.14402">
        <ele>197.7</ele>
        <time>2021-07-29T13:11:25Z</time>
      </trkpt>
      <trkpt lat="48.78614" lon="6.144">
        <ele>197.6</ele>
        <time>2021-07-29T13:11:26Z</time>
      </trkpt>
      <trkpt lat="48.78606" lon="6.14394">
        <ele>197.3</ele>
        <time>2021-07-29T13:11:28Z</time>
      </trkpt>
      <trkpt lat="48.786" lon="6.14392">
        <ele>197.2</ele>
        <time>2021-07-29T13:11:29Z</time>
      </trkpt>
      <trkpt lat="48.78597" lon="6.1439">
        <ele>197.1</ele>
        <time>2021-07-29T13:11:30Z</time>
      </trkpt>
      <trkpt lat="48.78589" lon="6.14388">
        <ele>196.9</ele>
        <time>2021-07-29T13:11:32Z</time>
      </trkpt>
      <trkpt lat="48.78582" lon="6.14384">
        <ele>196.7</ele>
        <time>2021-07-29T13:11:34Z</time>
      </trkpt>
      <trkpt lat="48.78576" lon="6.1438">
        <ele>196.5</ele>
        <time>2021-07-29T13:11:36Z</time>
      </trkpt>
      <trkpt lat="48.78572" lon="6.14378">
        <ele>196.4</ele>
        <time>2021-07-29T13:11:37Z</time>
      </trkpt>
      <trkpt lat="48.78567" lon="6.14376">
        <ele>196.3</ele>
        <time>2021-07-29T13:11:38Z</time>
      </trkpt>
      <trkpt lat="48.78558" lon="6.14374">
        <ele>196</ele>
        <time>2021-07-29T13:11:39Z</time>
      </trkpt>
      <trkpt lat="48.78552" lon="6.14373">
        <ele>196</ele>
        <time>2021-07-29T13:11:41Z</time>
      </trkpt>
      <trkpt lat="48.78548" lon="6.14371">
        <ele>195.9</ele>
        <time>2021-07-29T13:11:42Z</time>
      </trkpt>
      <trkpt lat="48.78543" lon="6.14371">
        <ele>195.8</ele>
        <time>2021-07-29T13:11:43Z</time>
      </trkpt>
      <trkpt lat="48.78539" lon="6.14371">
        <ele>195.8</ele>
        <time>2021-07-29T13:11:45Z</time>
      </trkpt>
      <trkpt lat="48.78535" lon="6.14371">
        <ele>195.7</ele>
        <time>2021-07-29T13:11:46Z</time>
      </trkpt>
      <trkpt lat="48.78534" lon="6.14371">
        <ele>195.7</ele>
        <time>2021-07-29T13:11:47Z</time>
      </trkpt>
      <trkpt lat="48.78531" lon="6.14368">
        <ele>195.7</ele>
        <time>2021-07-29T13:11:49Z</time>
      </trkpt>
      <trkpt lat="48.7853" lon="6.14367">
        <ele>195.7</ele>
        <time>2021-07-29T13:11:50Z</time>
      </trkpt>
      <trkpt lat="48.7853" lon="6.14365">
        <ele>195.7</ele>
        <time>2021-07-29T13:11:52Z</time>
      </trkpt>
      <trkpt lat="48.7853" lon="6.14364">
        <ele>195.7</ele>
        <time>2021-07-29T13:11:53Z</time>
      </trkpt>
      <trkpt lat="48.78531" lon="6.14364">
        <ele>195.7</ele>
        <time>2021-07-29T13:11:54Z</time>
      </trkpt>
      <trkpt lat="48.7853" lon="6.14363">
        <ele>195.6</ele>
        <time>2021-07-29T13:11:55Z</time>
      </trkpt>
      <trkpt lat="48.78528" lon="6.1436">
        <ele>195.6</ele>
        <time>2021-07-29T13:11:57Z</time>
      </trkpt>
      <trkpt lat="48.78526" lon="6.14359">
        <ele>195.6</ele>
        <time>2021-07-29T13:11:58Z</time>
      </trkpt>
      <trkpt lat="48.78525" lon="6.14359">
        <ele>195.6</ele>
        <time>2021-07-29T13:11:59Z</time>
      </trkpt>
      <trkpt lat="48.78525" lon="6.14359">
        <ele>195.6</ele>
        <time>2021-07-29T13:12:00Z</time>
      </trkpt>
      <trkpt lat="48.78522" lon="6.1436">
        <ele>195.6</ele>
        <time>2021-07-29T13:12:02Z</time>
      </trkpt>
      <trkpt lat="48.78518" lon="6.14361">
        <ele>195.6</ele>
        <time>2021-07-29T13:12:03Z</time>
      </trkpt>
      <trkpt lat="48.78515" lon="6.1436">
        <ele>195.6</ele>
        <time>2021-07-29T13:12:05Z</time>
      </trkpt>
      <trkpt lat="48.78514" lon="6.1436">
        <ele>195.6</ele>
        <time>2021-07-29T13:12:06Z</time>
      </trkpt>
      <trkpt lat="48.7851" lon="6.14359">
        <ele>195.6</ele>
        <time>2021-07-29T13:12:07Z</time>
      </trkpt>
      <trkpt lat="48.78505" lon="6.14358">
        <ele>195.6</ele>
        <time>2021-07-29T13:12:08Z</time>
      </trkpt>
      <trkpt lat="48.785" lon="6.14358">
        <ele>195.6</ele>
        <time>2021-07-29T13:12:10Z</time>
      </trkpt>
      <trkpt lat="48.78496" lon="6.14355">
        <ele>195.6</ele>
        <time>2021-07-29T13:12:11Z</time>
      </trkpt>
      <trkpt lat="48.78492" lon="6.1435">
        <ele>195.6</ele>
        <time>2021-07-29T13:12:12Z</time>
      </trkpt>
      <trkpt lat="48.78488" lon="6.14347">
        <ele>195.6</ele>
        <time>2021-07-29T13:12:13Z</time>
      </trkpt>
      <trkpt lat="48.78485" lon="6.14347">
        <ele>195.6</ele>
        <time>2021-07-29T13:12:14Z</time>
      </trkpt>
      <trkpt lat="48.78481" lon="6.14347">
        <ele>195.6</ele>
        <time>2021-07-29T13:12:15Z</time>
      </trkpt>
      <trkpt lat="48.78477" lon="6.14347">
        <ele>195.6</ele>
        <time>2021-07-29T13:12:16Z</time>
      </trkpt>
      <trkpt lat="48.78474" lon="6.14348">
        <ele>195.7</ele>
        <time>2021-07-29T13:12:17Z</time>
      </trkpt>
      <trkpt lat="48.78472" lon="6.14348">
        <ele>195.7</ele>
        <time>2021-07-29T13:12:19Z</time>
      </trkpt>
      <trkpt lat="48.7847" lon="6.14348">
        <ele>195.7</ele>
        <time>2021-07-29T13:12:20Z</time>
      </trkpt>
      <trkpt lat="48.78366" lon="6.14398">
        <ele>197.5</ele>
        <time>2021-07-29T13:12:59Z</time>
      </trkpt>
      <trkpt lat="48.78362" lon="6.144">
        <ele>197.6</ele>
        <time>2021-07-29T13:13:00Z</time>
      </trkpt>
      <trkpt lat="48.78356" lon="6.14405">
        <ele>197.7</ele>
        <time>2021-07-29T13:13:01Z</time>
      </trkpt>
      <trkpt lat="48.78352" lon="6.14409">
        <ele>197.8</ele>
        <time>2021-07-29T13:13:02Z</time>
      </trkpt>
      <trkpt lat="48.78347" lon="6.14413">
        <ele>197.8</ele>
        <time>2021-07-29T13:13:04Z</time>
      </trkpt>
      <trkpt lat="48.78343" lon="6.14418">
        <ele>197.9</ele>
        <time>2021-07-29T13:13:05Z</time>
      </trkpt>
      <trkpt lat="48.78339" lon="6.14421">
        <ele>198</ele>
        <time>2021-07-29T13:13:06Z</time>
      </trkpt>
      <trkpt lat="48.78335" lon="6.14423">
        <ele>198</ele>
        <time>2021-07-29T13:13:07Z</time>
      </trkpt>
      <trkpt lat="48.78331" lon="6.14424">
        <ele>198.1</ele>
        <time>2021-07-29T13:13:09Z</time>
      </trkpt>
      <trkpt lat="48.78328" lon="6.14425">
        <ele>198.1</ele>
        <time>2021-07-29T13:13:10Z</time>
      </trkpt>
      <trkpt lat="48.78325" lon="6.14426">
        <ele>198.2</ele>
        <time>2021-07-29T13:13:11Z</time>
      </trkpt>
      <trkpt lat="48.78322" lon="6.14428">
        <ele>198.2</ele>
        <time>2021-07-29T13:13:12Z</time>
      </trkpt>
      <trkpt lat="48.78319" lon="6.14431">
        <ele>198.3</ele>
        <time>2021-07-29T13:13:13Z</time>
      </trkpt>
      <trkpt lat="48.78315" lon="6.14435">
        <ele>198.3</ele>
        <time>2021-07-29T13:13:14Z</time>
      </trkpt>
      <trkpt lat="48.78311" lon="6.14438">
        <ele>198.4</ele>
        <time>2021-07-29T13:13:15Z</time>
      </trkpt>
      <trkpt lat="48.78306" lon="6.14442">
        <ele>198.5</ele>
        <time>2021-07-29T13:13:17Z</time>
      </trkpt>
      <trkpt lat="48.78301" lon="6.14447">
        <ele>198.5</ele>
        <time>2021-07-29T13:13:18Z</time>
      </trkpt>
      <trkpt lat="48.78296" lon="6.14451">
        <ele>198.6</ele>
        <time>2021-07-29T13:13:19Z</time>
      </trkpt>
      <trkpt lat="48.78291" lon="6.14456">
        <ele>198.6</ele>
        <time>2021-07-29T13:13:21Z</time>
      </trkpt>
      <trkpt lat="48.78287" lon="6.1446">
        <ele>198.6</ele>
        <time>2021-07-29T13:13:22Z</time>
      </trkpt>
      <trkpt lat="48.78284" lon="6.14464">
        <ele>198.6</ele>
        <time>2021-07-29T13:13:23Z</time>
      </trkpt>
      <trkpt lat="48.78279" lon="6.14473">
        <ele>198.6</ele>
        <time>2021-07-29T13:13:24Z</time>
      </trkpt>
      <trkpt lat="48.78278" lon="6.14477">
        <ele>198.6</ele>
        <time>2021-07-29T13:13:25Z</time>
      </trkpt>
      <trkpt lat="48.78276" lon="6.14482">
        <ele>198.7</ele>
        <time>2021-07-29T13:13:27Z</time>
      </trkpt>
      <trkpt lat="48.78275" lon="6.14486">
        <ele>198.7</ele>
        <time>2021-07-29T13:13:28Z</time>
      </trkpt>
      <trkpt lat="48.78273" lon="6.14489">
        <ele>198.7</ele>
        <time>2021-07-29T13:13:29Z</time>
      </trkpt>
      <trkpt lat="48.78268" lon="6.14496">
        <ele>198.7</ele>
        <time>2021-07-29T13:13:31Z</time>
      </trkpt>
      <trkpt lat="48.78266" lon="6.145">
        <ele>198.7</ele>
        <time>2021-07-29T13:13:32Z</time>
      </trkpt>
      <trkpt lat="48.78265" lon="6.145">
        <ele>198.7</ele>
        <time>2021-07-29T13:13:33Z</time>
      </trkpt>
      <trkpt lat="48.78264" lon="6.14496">
        <ele>198.8</ele>
        <time>2021-07-29T13:13:35Z</time>
      </trkpt>
      <trkpt lat="48.78262" lon="6.14492">
        <ele>198.8</ele>
        <time>2021-07-29T13:13:36Z</time>
      </trkpt>
      <trkpt lat="48.78259" lon="6.14489">
        <ele>198.8</ele>
        <time>2021-07-29T13:13:37Z</time>
      </trkpt>
      <trkpt lat="48.78258" lon="6.14488">
        <ele>198.8</ele>
        <time>2021-07-29T13:13:38Z</time>
      </trkpt>
      <trkpt lat="48.78257" lon="6.14487">
        <ele>198.8</ele>
        <time>2021-07-29T13:13:40Z</time>
      </trkpt>
      <trkpt lat="48.78255" lon="6.14487">
        <ele>198.8</ele>
        <time>2021-07-29T13:13:41Z</time>
      </trkpt>
      <trkpt lat="48.78254" lon="6.14487">
        <ele>198.8</ele>
        <time>2021-07-29T13:13:42Z</time>
      </trkpt>
      <trkpt lat="48.78138" lon="6.14516">
        <ele>198.4</ele>
        <time>2021-07-29T13:15:08Z</time>
      </trkpt>
      <trkpt lat="48.78141" lon="6.14515">
        <ele>198.4</ele>
        <time>2021-07-29T13:15:09Z</time>
      </trkpt>
      <trkpt lat="48.78142" lon="6.14514">
        <ele>198.4</ele>
        <time>2021-07-29T13:15:10Z</time>
      </trkpt>
      <trkpt lat="48.78142" lon="6.14512">
        <ele>198.4</ele>
        <time>2021-07-29T13:15:12Z</time>
      </trkpt>
      <trkpt lat="48.7814" lon="6.14512">
        <ele>198.4</ele>
        <time>2021-07-29T13:15:13Z</time>
      </trkpt>
      <trkpt lat="48.78139" lon="6.14513">
        <ele>198.4</ele>
        <time>2021-07-29T13:15:14Z</time>
      </trkpt>
      <trkpt lat="48.78134" lon="6.14518">
        <ele>198.3</ele>
        <time>2021-07-29T13:15:16Z</time>
      </trkpt>
      <trkpt lat="48.78131" lon="6.14522">
        <ele>198.3</ele>
        <time>2021-07-29T13:15:17Z</time>
      </trkpt>
      <trkpt lat="48.78127" lon="6.14525">
        <ele>198.3</ele>
        <time>2021-07-29T13:15:18Z</time>
      </trkpt>
      <trkpt lat="48.7812" lon="6.14534">
        <ele>198.2</ele>
        <time>2021-07-29T13:15:19Z</time>
      </trkpt>
      <trkpt lat="48.78116" lon="6.1454">
        <ele>198.1</ele>
        <time>2021-07-29T13:15:20Z</time>
      </trkpt>
      <trkpt lat="48.7811" lon="6.14548">
        <ele>198.1</ele>
        <time>2021-07-29T13:15:22Z</time>
      </trkpt>
      <trkpt lat="48.78105" lon="6.1455">
        <ele>198</ele>
        <time>2021-07-29T13:15:23Z</time>
      </trkpt>
      <trkpt lat="48.78101" lon="6.14552">
        <ele>198</ele>
        <time>2021-07-29T13:15:24Z</time>
      </trkpt>
      <trkpt lat="48.78096" lon="6.14554">
        <ele>197.9</ele>
        <time>2021-07-29T13:15:25Z</time>
      </trkpt>
      <trkpt lat="48.78088" lon="6.14558">
        <ele>197.8</ele>
        <time>2021-07-29T13:15:27Z</time>
      </trkpt>
      <trkpt lat="48.78085" lon="6.14559">
        <ele>197.8</ele>
        <time>2021-07-29T13:15:28Z</time>
      </trkpt>
      <trkpt lat="48.78083" lon="6.14559">
        <ele>197.8</ele>
        <time>2021-07-29T13:15:29Z</time>
      </trkpt>
      <trkpt lat="48.78078" lon="6.1456">
        <ele>197.7</ele>
        <time>2021-07-29T13:15:30Z</time>
      </trkpt>
      <trkpt lat="48.78072" lon="6.1456">
        <ele>197.7</ele>
        <time>2021-07-29T13:15:31Z</time>
      </trkpt>
      <trkpt lat="48.78067" lon="6.1456">
        <ele>197.7</ele>
        <time>2021-07-29T13:15:32Z</time>
      </trkpt>
      <trkpt lat="48.78061" lon="6.14558">
        <ele>197.6</ele>
        <time>2021-07-29T13:15:34Z</time>
      </trkpt>
      <trkpt lat="48.78058" lon="6.14558">
        <ele>197.6</ele>
        <time>2021-07-29T13:15:36Z</time>
      </trkpt>
      <trkpt lat="48.78055" lon="6.14559">
        <ele>197.6</ele>
        <time>2021-07-29T13:15:38Z</time>
      </trkpt>
      <trkpt lat="48.78004" lon="6.14633">
        <ele>202.5</ele>
        <time>2021-07-29T13:16:07Z</time>
      </trkpt>
      <trkpt lat="48.78006" lon="6.14638">
        <ele>202.8</ele>
        <time>2021-07-29T13:16:09Z</time>
      </trkpt>
      <trkpt lat="48.78007" lon="6.14644">
        <ele>203.1</ele>
        <time>2021-07-29T13:16:10Z</time>
      </trkpt>
      <trkpt lat="48.78007" lon="6.1465">
        <ele>203.4</ele>
        <time>2021-07-29T13:16:12Z</time>
      </trkpt>
      <trkpt lat="48.78007" lon="6.14652">
        <ele>203.5</ele>
        <time>2021-07-29T13:16:13Z</time>
      </trkpt>
      <trkpt lat="48.78007" lon="6.14659">
        <ele>203.8</ele>
        <time>2021-07-29T13:16:15Z</time>
      </trkpt>
      <trkpt lat="48.78007" lon="6.14661">
        <ele>203.9</ele>
        <time>2021-07-29T13:16:16Z</time>
      </trkpt>
      <trkpt lat="48.78008" lon="6.14663">
        <ele>204</ele>
        <time>2021-07-29T13:16:17Z</time>
      </trkpt>
      <trkpt lat="48.78007" lon="6.14665">
        <ele>204.2</ele>
        <time>2021-07-29T13:16:18Z</time>
      </trkpt>
      <trkpt lat="48.78007" lon="6.14667">
        <ele>204.2</ele>
        <time>2021-07-29T13:16:20Z</time>
      </trkpt>
      <trkpt lat="48.78008" lon="6.14667">
        <ele>204.2</ele>
        <time>2021-07-29T13:16:21Z</time>
      </trkpt>
      <trkpt lat="48.78008" lon="6.14668">
        <ele>204.4</ele>
        <time>2021-07-29T13:16:22Z</time>
      </trkpt>
      <trkpt lat="48.78008" lon="6.14668">
        <ele>204.4</ele>
        <time>2021-07-29T13:16:24Z</time>
      </trkpt>
      <trkpt lat="48.78007" lon="6.14671">
        <ele>204.4</ele>
        <time>2021-07-29T13:16:26Z</time>
      </trkpt>
      <trkpt lat="48.78008" lon="6.14706">
        <ele>206.3</ele>
        <time>2021-07-29T13:18:56Z</time>
      </trkpt>
      <trkpt lat="48.78006" lon="6.1471">
        <ele>206.5</ele>
        <time>2021-07-29T13:18:57Z</time>
      </trkpt>
      <trkpt lat="48.78007" lon="6.14718">
        <ele>206.9</ele>
        <time>2021-07-29T13:18:59Z</time>
      </trkpt>
      <trkpt lat="48.78006" lon="6.14723">
        <ele>206.8</ele>
        <time>2021-07-29T13:19:00Z</time>
      </trkpt>
      <trkpt lat="48.78006" lon="6.14731">
        <ele>207.1</ele>
        <time>2021-07-29T13:19:01Z</time>
      </trkpt>
      <trkpt lat="48.78005" lon="6.14737">
        <ele>207.4</ele>
        <time>2021-07-29T13:19:03Z</time>
      </trkpt>
      <trkpt lat="48.78004" lon="6.14742">
        <ele>207.5</ele>
        <time>2021-07-29T13:19:04Z</time>
      </trkpt>
      <trkpt lat="48.78002" lon="6.14744">
        <ele>207.2</ele>
        <time>2021-07-29T13:19:05Z</time>
      </trkpt>
      <trkpt lat="48.78002" lon="6.14746">
        <ele>207.4</ele>
        <time>2021-07-29T13:19:06Z</time>
      </trkpt>
      <trkpt lat="48.78001" lon="6.14749">
        <ele>207.4</ele>
        <time>2021-07-29T13:19:07Z</time>
      </trkpt>
      <trkpt lat="48.78001" lon="6.1475">
        <ele>207.5</ele>
        <time>2021-07-29T13:19:08Z</time>
      </trkpt>
      <trkpt lat="48.78001" lon="6.14751">
        <ele>207.3</ele>
        <time>2021-07-29T13:19:10Z</time>
      </trkpt>
      <trkpt lat="48.78001" lon="6.14753">
        <ele>207.3</ele>
        <time>2021-07-29T13:19:11Z</time>
      </trkpt>
      <trkpt lat="48.78001" lon="6.14754">
        <ele>207.5</ele>
        <time>2021-07-29T13:19:12Z</time>
      </trkpt>
      <trkpt lat="48.78" lon="6.14755">
        <ele>207.5</ele>
        <time>2021-07-29T13:19:13Z</time>
      </trkpt>
      <trkpt lat="48.78" lon="6.14756">
        <ele>207.5</ele>
        <time>2021-07-29T13:19:15Z</time>
      </trkpt>
      <trkpt lat="48.78" lon="6.1477">
        <ele>207.9</ele>
        <time>2021-07-29T13:19:23Z</time>
      </trkpt>
      <trkpt lat="48.78" lon="6.14772">
        <ele>208.1</ele>
        <time>2021-07-29T13:19:25Z</time>
      </trkpt>
      <trkpt lat="48.78" lon="6.14773">
        <ele>208.1</ele>
        <time>2021-07-29T13:19:26Z</time>
      </trkpt>
      <trkpt lat="48.78001" lon="6.14774">
        <ele>208.3</ele>
        <time>2021-07-29T13:19:27Z</time>
      </trkpt>
      <trkpt lat="48.78001" lon="6.14775">
        <ele>208.3</ele>
        <time>2021-07-29T13:19:28Z</time>
      </trkpt>
      <trkpt lat="48.78002" lon="6.14775">
        <ele>208.4</ele>
        <time>2021-07-29T13:19:30Z</time>
      </trkpt>
      <trkpt lat="48.78002" lon="6.14776">
        <ele>208.4</ele>
        <time>2021-07-29T13:19:31Z</time>
      </trkpt>
      <trkpt lat="48.78001" lon="6.14777">
        <ele>208.4</ele>
        <time>2021-07-29T13:19:33Z</time>
      </trkpt>
      <trkpt lat="48.78" lon="6.14779">
        <ele>208.2</ele>
        <time>2021-07-29T13:19:35Z</time>
      </trkpt>
      <trkpt lat="48.77997" lon="6.14783">
        <ele>208.2</ele>
        <time>2021-07-29T13:19:37Z</time>
      </trkpt>
      <trkpt lat="48.77996" lon="6.14785">
        <ele>208.4</ele>
        <time>2021-07-29T13:19:38Z</time>
      </trkpt>
      <trkpt lat="48.77994" lon="6.14787">
        <ele>208.2</ele>
        <time>2021-07-29T13:19:40Z</time>
      </trkpt>
      <trkpt lat="48.77993" lon="6.14788">
        <ele>208.4</ele>
        <time>2021-07-29T13:19:41Z</time>
      </trkpt>
      <trkpt lat="48.77991" lon="6.1479">
        <ele>208.2</ele>
        <time>2021-07-29T13:19:43Z</time>
      </trkpt>
      <trkpt lat="48.7799" lon="6.14791">
        <ele>208.2</ele>
        <time>2021-07-29T13:19:44Z</time>
      </trkpt>
      <trkpt lat="48.77989" lon="6.14791">
        <ele>208.1</ele>
        <time>2021-07-29T13:19:45Z</time>
      </trkpt>
      <trkpt lat="48.77988" lon="6.14792">
        <ele>208.1</ele>
        <time>2021-07-29T13:19:47Z</time>
      </trkpt>
      <trkpt lat="48.77987" lon="6.1479">
        <ele>208.1</ele>
        <time>2021-07-29T13:19:48Z</time>
      </trkpt>
      <trkpt lat="48.77986" lon="6.14789">
        <ele>208</ele>
        <time>2021-07-29T13:19:50Z</time>
      </trkpt>
      <trkpt lat="48.77986" lon="6.14788">
        <ele>207.9</ele>
        <time>2021-07-29T13:19:51Z</time>
      </trkpt>
      <trkpt lat="48.77986" lon="6.14786">
        <ele>207.9</ele>
        <time>2021-07-29T13:19:53Z</time>
      </trkpt>
      <trkpt lat="48.77986" lon="6.14784">
        <ele>207.7</ele>
        <time>2021-07-29T13:19:54Z</time>
      </trkpt>
      <trkpt lat="48.77987" lon="6.14779">
        <ele>207.7</ele>
        <time>2021-07-29T13:19:56Z</time>
      </trkpt>
      <trkpt lat="48.77988" lon="6.14772">
        <ele>207.6</ele>
        <time>2021-07-29T13:19:57Z</time>
      </trkpt>
      <trkpt lat="48.77989" lon="6.14765">
        <ele>207.4</ele>
        <time>2021-07-29T13:19:58Z</time>
      </trkpt>
      <trkpt lat="48.77992" lon="6.14754">
        <ele>206.9</ele>
        <time>2021-07-29T13:19:59Z</time>
      </trkpt>
      <trkpt lat="48.77994" lon="6.14745">
        <ele>206.7</ele>
        <time>2021-07-29T13:20:01Z</time>
      </trkpt>
      <trkpt lat="48.77997" lon="6.14736">
        <ele>206.7</ele>
        <time>2021-07-29T13:20:02Z</time>
      </trkpt>
      <trkpt lat="48.78003" lon="6.14716">
        <ele>206.7</ele>
        <time>2021-07-29T13:20:04Z</time>
      </trkpt>
      <trkpt lat="48.78005" lon="6.14706">
        <ele>206.4</ele>
        <time>2021-07-29T13:20:05Z</time>
      </trkpt>
      <trkpt lat="48.78007" lon="6.14696">
        <ele>206.2</ele>
        <time>2021-07-29T13:20:06Z</time>
      </trkpt>
      <trkpt lat="48.7801" lon="6.14679">
        <ele>205.4</ele>
        <time>2021-07-29T13:20:08Z</time>
      </trkpt>
      <trkpt lat="48.78011" lon="6.14659">
        <ele>204.1</ele>
        <time>2021-07-29T13:20:10Z</time>
      </trkpt>
      <trkpt lat="48.78011" lon="6.14639">
        <ele>203</ele>
        <time>2021-07-29T13:20:12Z</time>
      </trkpt>
      <trkpt lat="48.78012" lon="6.14628">
        <ele>202.3</ele>
        <time>2021-07-29T13:20:13Z</time>
      </trkpt>
      <trkpt lat="48.78013" lon="6.14619">
        <ele>201.8</ele>
        <time>2021-07-29T13:20:14Z</time>
      </trkpt>
      <trkpt lat="48.78015" lon="6.14604">
        <ele>200.4</ele>
        <time>2021-07-29T13:20:16Z</time>
      </trkpt>
      <trkpt lat="48.78017" lon="6.14598">
        <ele>200.1</ele>
        <time>2021-07-29T13:20:17Z</time>
      </trkpt>
      <trkpt lat="48.7802" lon="6.14587">
        <ele>197.6</ele>
        <time>2021-07-29T13:20:19Z</time>
      </trkpt>
      <trkpt lat="48.78019" lon="6.14583">
        <ele>197.6</ele>
        <time>2021-07-29T13:20:20Z</time>
      </trkpt>
      <trkpt lat="48.78016" lon="6.14584">
        <ele>197.6</ele>
        <time>2021-07-29T13:20:22Z</time>
      </trkpt>
      <trkpt lat="48.78013" lon="6.14585">
        <ele>197.6</ele>
        <time>2021-07-29T13:20:23Z</time>
      </trkpt>
      <trkpt lat="48.78011" lon="6.14586">
        <ele>197.6</ele>
        <time>2021-07-29T13:20:25Z</time>
      </trkpt>
      <trkpt lat="48.78009" lon="6.14586">
        <ele>197.6</ele>
        <time>2021-07-29T13:20:26Z</time>
      </trkpt>
      <trkpt lat="48.78001" lon="6.14588">
        <ele>197.7</ele>
        <time>2021-07-29T13:20:27Z</time>
      </trkpt>
      <trkpt lat="48.77996" lon="6.14589">
        <ele>197.8</ele>
        <time>2021-07-29T13:20:28Z</time>
      </trkpt>
      <trkpt lat="48.77993" lon="6.14589">
        <ele>197.8</ele>
        <time>2021-07-29T13:20:29Z</time>
      </trkpt>
      <trkpt lat="48.77991" lon="6.14588">
        <ele>197.9</ele>
        <time>2021-07-29T13:20:30Z</time>
      </trkpt>
      <trkpt lat="48.77987" lon="6.14585">
        <ele>198</ele>
        <time>2021-07-29T13:20:32Z</time>
      </trkpt>
      <trkpt lat="48.77983" lon="6.14586">
        <ele>198</ele>
        <time>2021-07-29T13:20:33Z</time>
      </trkpt>
      <trkpt lat="48.77976" lon="6.14587">
        <ele>198.2</ele>
        <time>2021-07-29T13:20:34Z</time>
      </trkpt>
      <trkpt lat="48.7797" lon="6.14589">
        <ele>198.3</ele>
        <time>2021-07-29T13:20:35Z</time>
      </trkpt>
      <trkpt lat="48.77965" lon="6.14591">
        <ele>198.4</ele>
        <time>2021-07-29T13:20:36Z</time>
      </trkpt>
      <trkpt lat="48.7796" lon="6.14592">
        <ele>198.5</ele>
        <time>2021-07-29T13:20:37Z</time>
      </trkpt>
      <trkpt lat="48.77954" lon="6.14594">
        <ele>198.7</ele>
        <time>2021-07-29T13:20:39Z</time>
      </trkpt>
      <trkpt lat="48.77949" lon="6.14595">
        <ele>198.8</ele>
        <time>2021-07-29T13:20:40Z</time>
      </trkpt>
      <trkpt lat="48.77943" lon="6.14597">
        <ele>198.9</ele>
        <time>2021-07-29T13:20:41Z</time>
      </trkpt>
      <trkpt lat="48.77939" lon="6.14599">
        <ele>199</ele>
        <time>2021-07-29T13:20:43Z</time>
      </trkpt>
      <trkpt lat="48.77934" lon="6.14602">
        <ele>199.2</ele>
        <time>2021-07-29T13:20:44Z</time>
      </trkpt>
      <trkpt lat="48.77928" lon="6.14604">
        <ele>199.4</ele>
        <time>2021-07-29T13:20:46Z</time>
      </trkpt>
      <trkpt lat="48.77922" lon="6.14607">
        <ele>199.5</ele>
        <time>2021-07-29T13:20:47Z</time>
      </trkpt>
      <trkpt lat="48.77916" lon="6.1461">
        <ele>199.7</ele>
        <time>2021-07-29T13:20:49Z</time>
      </trkpt>
      <trkpt lat="48.77913" lon="6.14611">
        <ele>199.8</ele>
        <time>2021-07-29T13:20:50Z</time>
      </trkpt>
      <trkpt lat="48.7791" lon="6.14611">
        <ele>199.8</ele>
        <time>2021-07-29T13:20:51Z</time>
      </trkpt>
      <trkpt lat="48.77907" lon="6.14612">
        <ele>199.9</ele>
        <time>2021-07-29T13:20:52Z</time>
      </trkpt>
      <trkpt lat="48.77904" lon="6.14612">
        <ele>200</ele>
        <time>2021-07-29T13:20:53Z</time>
      </trkpt>
      <trkpt lat="48.77902" lon="6.14613">
        <ele>200</ele>
        <time>2021-07-29T13:20:54Z</time>
      </trkpt>
      <trkpt lat="48.779" lon="6.14613">
        <ele>200.1</ele>
        <time>2021-07-29T13:20:55Z</time>
      </trkpt>
      <trkpt lat="48.77896" lon="6.14615">
        <ele>200.2</ele>
        <time>2021-07-29T13:20:57Z</time>
      </trkpt>
      <trkpt lat="48.7789" lon="6.14616">
        <ele>200.4</ele>
        <time>2021-07-29T13:20:59Z</time>
      </trkpt>
      <trkpt lat="48.77887" lon="6.14621">
        <ele>200.5</ele>
        <time>2021-07-29T13:21:00Z</time>
      </trkpt>
      <trkpt lat="48.77885" lon="6.14625">
        <ele>200.6</ele>
        <time>2021-07-29T13:21:02Z</time>
      </trkpt>
      <trkpt lat="48.77884" lon="6.14631">
        <ele>200.6</ele>
        <time>2021-07-29T13:21:03Z</time>
      </trkpt>
      <trkpt lat="48.77884" lon="6.14633">
        <ele>200.5</ele>
        <time>2021-07-29T13:21:05Z</time>
      </trkpt>
      <trkpt lat="48.77884" lon="6.14636">
        <ele>200.5</ele>
        <time>2021-07-29T13:21:06Z</time>
      </trkpt>
      <trkpt lat="48.77884" lon="6.1464">
        <ele>200.4</ele>
        <time>2021-07-29T13:21:07Z</time>
      </trkpt>
      <trkpt lat="48.77884" lon="6.14642">
        <ele>200.1</ele>
        <time>2021-07-29T13:21:08Z</time>
      </trkpt>
      <trkpt lat="48.77886" lon="6.14647">
        <ele>200.3</ele>
        <time>2021-07-29T13:21:10Z</time>
      </trkpt>
      <trkpt lat="48.77887" lon="6.14649">
        <ele>200.4</ele>
        <time>2021-07-29T13:21:11Z</time>
      </trkpt>
      <trkpt lat="48.77887" lon="6.1465">
        <ele>200.4</ele>
        <time>2021-07-29T13:21:12Z</time>
      </trkpt>
      <trkpt lat="48.77889" lon="6.14655">
        <ele>200.6</ele>
        <time>2021-07-29T13:21:13Z</time>
      </trkpt>
      <trkpt lat="48.7789" lon="6.14662">
        <ele>200.9</ele>
        <time>2021-07-29T13:21:14Z</time>
      </trkpt>
      <trkpt lat="48.7789" lon="6.14664">
        <ele>201</ele>
        <time>2021-07-29T13:21:15Z</time>
      </trkpt>
      <trkpt lat="48.77891" lon="6.14669">
        <ele>201.2</ele>
        <time>2021-07-29T13:21:16Z</time>
      </trkpt>
      <trkpt lat="48.77892" lon="6.14672">
        <ele>201.3</ele>
        <time>2021-07-29T13:21:18Z</time>
      </trkpt>
      <trkpt lat="48.77893" lon="6.14673">
        <ele>201.4</ele>
        <time>2021-07-29T13:21:19Z</time>
      </trkpt>
      <trkpt lat="48.77893" lon="6.14674">
        <ele>201.5</ele>
        <time>2021-07-29T13:21:21Z</time>
      </trkpt>
      <trkpt lat="48.77893" lon="6.14676">
        <ele>201.5</ele>
        <time>2021-07-29T13:21:22Z</time>
      </trkpt>
      <trkpt lat="48.77893" lon="6.14678">
        <ele>201.6</ele>
        <time>2021-07-29T13:21:23Z</time>
      </trkpt>
      <trkpt lat="48.77893" lon="6.14678">
        <ele>201.6</ele>
        <time>2021-07-29T13:21:25Z</time>
      </trkpt>
      <trkpt lat="48.77893" lon="6.14678">
        <ele>201.7</ele>
        <time>2021-07-29T13:21:26Z</time>
      </trkpt>
      <trkpt lat="48.77893" lon="6.14678">
        <ele>201.7</ele>
        <time>2021-07-29T13:21:27Z</time>
      </trkpt>
      <trkpt lat="48.77893" lon="6.14679">
        <ele>201.7</ele>
        <time>2021-07-29T13:21:28Z</time>
      </trkpt>
      <trkpt lat="48.77893" lon="6.1468">
        <ele>201.7</ele>
        <time>2021-07-29T13:21:29Z</time>
      </trkpt>
      <trkpt lat="48.77893" lon="6.14681">
        <ele>201.8</ele>
        <time>2021-07-29T13:21:30Z</time>
      </trkpt>
      <trkpt lat="48.77893" lon="6.14682">
        <ele>201.9</ele>
        <time>2021-07-29T13:21:31Z</time>
      </trkpt>
      <trkpt lat="48.77893" lon="6.14684">
        <ele>201.9</ele>
        <time>2021-07-29T13:21:33Z</time>
      </trkpt>
      <trkpt lat="48.77894" lon="6.14689">
        <ele>202.2</ele>
        <time>2021-07-29T13:21:35Z</time>
      </trkpt>
      <trkpt lat="48.77894" lon="6.14696">
        <ele>202.5</ele>
        <time>2021-07-29T13:21:36Z</time>
      </trkpt>
      <trkpt lat="48.77895" lon="6.14697">
        <ele>202.5</ele>
        <time>2021-07-29T13:21:38Z</time>
      </trkpt>
      <trkpt lat="48.77896" lon="6.14699">
        <ele>202.6</ele>
        <time>2021-07-29T13:21:39Z</time>
      </trkpt>
      <trkpt lat="48.77896" lon="6.147">
        <ele>202.7</ele>
        <time>2021-07-29T13:21:40Z</time>
      </trkpt>
      <trkpt lat="48.77896" lon="6.14702">
        <ele>202.8</ele>
        <time>2021-07-29T13:21:42Z</time>
      </trkpt>
      <trkpt lat="48.77896" lon="6.14705">
        <ele>203</ele>
        <time>2021-07-29T13:21:44Z</time>
      </trkpt>
      <trkpt lat="48.77896" lon="6.14707">
        <ele>203.1</ele>
        <time>2021-07-29T13:21:46Z</time>
      </trkpt>
      <trkpt lat="48.77896" lon="6.14708">
        <ele>203.1</ele>
        <time>2021-07-29T13:21:47Z</time>
      </trkpt>
      <trkpt lat="48.77896" lon="6.14709">
        <ele>203.2</ele>
        <time>2021-07-29T13:21:48Z</time>
      </trkpt>
      <trkpt lat="48.77896" lon="6.14712">
        <ele>203.4</ele>
        <time>2021-07-29T13:21:49Z</time>
      </trkpt>
      <trkpt lat="48.77896" lon="6.14714">
        <ele>203.4</ele>
        <time>2021-07-29T13:21:50Z</time>
      </trkpt>
      <trkpt lat="48.77897" lon="6.14717">
        <ele>203.6</ele>
        <time>2021-07-29T13:21:51Z</time>
      </trkpt>
      <trkpt lat="48.77897" lon="6.14718">
        <ele>203.7</ele>
        <time>2021-07-29T13:21:53Z</time>
      </trkpt>
      <trkpt lat="48.77897" lon="6.1472">
        <ele>203.8</ele>
        <time>2021-07-29T13:21:54Z</time>
      </trkpt>
      <trkpt lat="48.77897" lon="6.14721">
        <ele>203.9</ele>
        <time>2021-07-29T13:21:56Z</time>
      </trkpt>
      <trkpt lat="48.77898" lon="6.14723">
        <ele>204</ele>
        <time>2021-07-29T13:21:57Z</time>
      </trkpt>
      <trkpt lat="48.77898" lon="6.14724">
        <ele>204.1</ele>
        <time>2021-07-29T13:21:58Z</time>
      </trkpt>
      <trkpt lat="48.77899" lon="6.14728">
        <ele>204.3</ele>
        <time>2021-07-29T13:21:59Z</time>
      </trkpt>
      <trkpt lat="48.77899" lon="6.1473">
        <ele>204.4</ele>
        <time>2021-07-29T13:22:00Z</time>
      </trkpt>
      <trkpt lat="48.77899" lon="6.14735">
        <ele>204.7</ele>
        <time>2021-07-29T13:22:02Z</time>
      </trkpt>
      <trkpt lat="48.77899" lon="6.14738">
        <ele>204.9</ele>
        <time>2021-07-29T13:22:03Z</time>
      </trkpt>
      <trkpt lat="48.77899" lon="6.14743">
        <ele>205.3</ele>
        <time>2021-07-29T13:22:05Z</time>
      </trkpt>
      <trkpt lat="48.77899" lon="6.14748">
        <ele>205.6</ele>
        <time>2021-07-29T13:22:06Z</time>
      </trkpt>
      <trkpt lat="48.77899" lon="6.14753">
        <ele>205.9</ele>
        <time>2021-07-29T13:22:07Z</time>
      </trkpt>
      <trkpt lat="48.779" lon="6.14754">
        <ele>206</ele>
        <time>2021-07-29T13:22:08Z</time>
      </trkpt>
      <trkpt lat="48.77901" lon="6.1476">
        <ele>206.4</ele>
        <time>2021-07-29T13:22:09Z</time>
      </trkpt>
      <trkpt lat="48.77901" lon="6.14762">
        <ele>206.6</ele>
        <time>2021-07-29T13:22:11Z</time>
      </trkpt>
      <trkpt lat="48.77901" lon="6.14768">
        <ele>207</ele>
        <time>2021-07-29T13:22:13Z</time>
      </trkpt>
      <trkpt lat="48.779" lon="6.14769">
        <ele>207</ele>
        <time>2021-07-29T13:22:14Z</time>
      </trkpt>
      <trkpt lat="48.779" lon="6.1477">
        <ele>207.1</ele>
        <time>2021-07-29T13:22:16Z</time>
      </trkpt>
      <trkpt lat="48.77899" lon="6.14771">
        <ele>207.2</ele>
        <time>2021-07-29T13:22:17Z</time>
      </trkpt>
      <trkpt lat="48.77899" lon="6.14772">
        <ele>207.3</ele>
        <time>2021-07-29T13:22:18Z</time>
      </trkpt>
      <trkpt lat="48.77898" lon="6.14774">
        <ele>207.4</ele>
        <time>2021-07-29T13:22:19Z</time>
      </trkpt>
      <trkpt lat="48.77898" lon="6.14775">
        <ele>207.5</ele>
        <time>2021-07-29T13:22:21Z</time>
      </trkpt>
      <trkpt lat="48.77897" lon="6.14777">
        <ele>207.6</ele>
        <time>2021-07-29T13:22:22Z</time>
      </trkpt>
      <trkpt lat="48.77897" lon="6.14778">
        <ele>207.6</ele>
        <time>2021-07-29T13:22:24Z</time>
      </trkpt>
      <trkpt lat="48.77894" lon="6.14797">
        <ele>208.7</ele>
        <time>2021-07-29T13:22:35Z</time>
      </trkpt>
      <trkpt lat="48.77893" lon="6.14804">
        <ele>209</ele>
        <time>2021-07-29T13:22:36Z</time>
      </trkpt>
      <trkpt lat="48.77893" lon="6.14808">
        <ele>209.3</ele>
        <time>2021-07-29T13:22:38Z</time>
      </trkpt>
      <trkpt lat="48.77894" lon="6.14811">
        <ele>209.5</ele>
        <time>2021-07-29T13:22:39Z</time>
      </trkpt>
      <trkpt lat="48.77894" lon="6.1481">
        <ele>209.5</ele>
        <time>2021-07-29T13:22:41Z</time>
      </trkpt>
      <trkpt lat="48.77893" lon="6.1481">
        <ele>209.6</ele>
        <time>2021-07-29T13:22:43Z</time>
      </trkpt>
      <trkpt lat="48.77893" lon="6.1481">
        <ele>209.6</ele>
        <time>2021-07-29T13:22:44Z</time>
      </trkpt>
      <trkpt lat="48.77893" lon="6.1481">
        <ele>209.6</ele>
        <time>2021-07-29T13:22:45Z</time>
      </trkpt>
      <trkpt lat="48.77892" lon="6.14811">
        <ele>209.6</ele>
        <time>2021-07-29T13:22:46Z</time>
      </trkpt>
      <trkpt lat="48.77892" lon="6.14812">
        <ele>209.7</ele>
        <time>2021-07-29T13:22:47Z</time>
      </trkpt>
      <trkpt lat="48.77891" lon="6.14813">
        <ele>209.8</ele>
        <time>2021-07-29T13:22:49Z</time>
      </trkpt>
      <trkpt lat="48.77888" lon="6.14827">
        <ele>210.5</ele>
        <time>2021-07-29T13:22:57Z</time>
      </trkpt>
      <trkpt lat="48.77887" lon="6.14829">
        <ele>210.6</ele>
        <time>2021-07-29T13:22:59Z</time>
      </trkpt>
      <trkpt lat="48.77886" lon="6.1483">
        <ele>210.7</ele>
        <time>2021-07-29T13:23:01Z</time>
      </trkpt>
      <trkpt lat="48.77886" lon="6.14831">
        <ele>210.7</ele>
        <time>2021-07-29T13:23:02Z</time>
      </trkpt>
      <trkpt lat="48.77886" lon="6.14831">
        <ele>210.8</ele>
        <time>2021-07-29T13:23:03Z</time>
      </trkpt>
      <trkpt lat="48.77885" lon="6.14831">
        <ele>210.8</ele>
        <time>2021-07-29T13:23:05Z</time>
      </trkpt>
      <trkpt lat="48.77885" lon="6.14832">
        <ele>210.8</ele>
        <time>2021-07-29T13:23:06Z</time>
      </trkpt>
      <trkpt lat="48.77885" lon="6.14833">
        <ele>210.9</ele>
        <time>2021-07-29T13:23:07Z</time>
      </trkpt>
      <trkpt lat="48.77678" lon="6.15145">
        <ele>261</ele>
        <time>2021-07-29T13:33:28Z</time>
      </trkpt>
      <trkpt lat="48.77678" lon="6.15149">
        <ele>261.6</ele>
        <time>2021-07-29T13:33:29Z</time>
      </trkpt>
      <trkpt lat="48.77678" lon="6.1515">
        <ele>262</ele>
        <time>2021-07-29T13:33:30Z</time>
      </trkpt>
      <trkpt lat="48.77678" lon="6.15152">
        <ele>262.3</ele>
        <time>2021-07-29T13:33:31Z</time>
      </trkpt>
      <trkpt lat="48.77677" lon="6.15153">
        <ele>262.9</ele>
        <time>2021-07-29T13:33:33Z</time>
      </trkpt>
      <trkpt lat="48.77677" lon="6.15155">
        <ele>263.3</ele>
        <time>2021-07-29T13:33:34Z</time>
      </trkpt>
      <trkpt lat="48.77677" lon="6.15156">
        <ele>263.6</ele>
        <time>2021-07-29T13:33:35Z</time>
      </trkpt>
      <trkpt lat="48.77677" lon="6.15157">
        <ele>264.3</ele>
        <time>2021-07-29T13:33:36Z</time>
      </trkpt>
      <trkpt lat="48.77676" lon="6.15159">
        <ele>264.6</ele>
        <time>2021-07-29T13:33:37Z</time>
      </trkpt>
      <trkpt lat="48.77676" lon="6.15161">
        <ele>264.9</ele>
        <time>2021-07-29T13:33:39Z</time>
      </trkpt>
      <trkpt lat="48.77676" lon="6.15162">
        <ele>265.7</ele>
        <time>2021-07-29T13:33:40Z</time>
      </trkpt>
      <trkpt lat="48.77613" lon="6.15312">
        <ele>275.1</ele>
        <time>2021-07-29T13:37:47Z</time>
      </trkpt>
      <trkpt lat="48.77612" lon="6.15316">
        <ele>275.4</ele>
        <time>2021-07-29T13:37:48Z</time>
      </trkpt>
      <trkpt lat="48.77612" lon="6.15317">
        <ele>276</ele>
        <time>2021-07-29T13:37:49Z</time>
      </trkpt>
      <trkpt lat="48.77612" lon="6.15318">
        <ele>276.4</ele>
        <time>2021-07-29T13:37:51Z</time>
      </trkpt>
      <trkpt lat="48.77612" lon="6.1532">
        <ele>276.7</ele>
        <time>2021-07-29T13:37:52Z</time>
      </trkpt>
      <trkpt lat="48.77612" lon="6.15321">
        <ele>277.3</ele>
        <time>2021-07-29T13:37:53Z</time>
      </trkpt>
      <trkpt lat="48.77612" lon="6.15321">
        <ele>277.7</ele>
        <time>2021-07-29T13:37:55Z</time>
      </trkpt>
      <trkpt lat="48.77612" lon="6.15322">
        <ele>278</ele>
        <time>2021-07-29T13:37:56Z</time>
      </trkpt>
      <trkpt lat="48.77612" lon="6.15322">
        <ele>278.3</ele>
        <time>2021-07-29T13:37:58Z</time>
      </trkpt>
      <trkpt lat="48.77583" lon="6.15412">
        <ele>290.4</ele>
        <time>2021-07-29T13:39:11Z</time>
      </trkpt>
      <trkpt lat="48.7758" lon="6.15419">
        <ele>292.1</ele>
        <time>2021-07-29T13:39:13Z</time>
      </trkpt>
      <trkpt lat="48.77578" lon="6.15426">
        <ele>293.5</ele>
        <time>2021-07-29T13:39:14Z</time>
      </trkpt>
      <trkpt lat="48.77577" lon="6.1543">
        <ele>293.2</ele>
        <time>2021-07-29T13:39:15Z</time>
      </trkpt>
      <trkpt lat="48.77579" lon="6.15434">
        <ele>292.9</ele>
        <time>2021-07-29T13:39:17Z</time>
      </trkpt>
      <trkpt lat="48.77581" lon="6.15437">
        <ele>292.7</ele>
        <time>2021-07-29T13:39:18Z</time>
      </trkpt>
      <trkpt lat="48.77583" lon="6.15441">
        <ele>292.4</ele>
        <time>2021-07-29T13:39:19Z</time>
      </trkpt>
      <trkpt lat="48.77585" lon="6.15444">
        <ele>292.1</ele>
        <time>2021-07-29T13:39:21Z</time>
      </trkpt>
      <trkpt lat="48.77587" lon="6.15447">
        <ele>291.8</ele>
        <time>2021-07-29T13:39:22Z</time>
      </trkpt>
      <trkpt lat="48.7759" lon="6.1545">
        <ele>291.5</ele>
        <time>2021-07-29T13:39:24Z</time>
      </trkpt>
      <trkpt lat="48.77592" lon="6.15454">
        <ele>291.2</ele>
        <time>2021-07-29T13:39:25Z</time>
      </trkpt>
      <trkpt lat="48.77594" lon="6.15457">
        <ele>290.9</ele>
        <time>2021-07-29T13:41:16Z</time>
      </trkpt>
      <trkpt lat="48.77596" lon="6.1546">
        <ele>290.6</ele>
        <time>2021-07-29T13:41:17Z</time>
      </trkpt>
      <trkpt lat="48.77601" lon="6.15466">
        <ele>289.9</ele>
        <time>2021-07-29T13:41:18Z</time>
      </trkpt>
      <trkpt lat="48.77607" lon="6.15474">
        <ele>289.2</ele>
        <time>2021-07-29T13:41:20Z</time>
      </trkpt>
      <trkpt lat="48.77612" lon="6.15481">
        <ele>288.7</ele>
        <time>2021-07-29T13:41:21Z</time>
      </trkpt>
      <trkpt lat="48.77616" lon="6.15486">
        <ele>288.4</ele>
        <time>2021-07-29T13:41:22Z</time>
      </trkpt>
      <trkpt lat="48.77623" lon="6.15495">
        <ele>288.2</ele>
        <time>2021-07-29T13:41:23Z</time>
      </trkpt>
      <trkpt lat="48.77626" lon="6.15502">
        <ele>288.2</ele>
        <time>2021-07-29T13:41:25Z</time>
      </trkpt>
      <trkpt lat="48.77628" lon="6.1551">
        <ele>288.2</ele>
        <time>2021-07-29T13:41:26Z</time>
      </trkpt>
      <trkpt lat="48.77628" lon="6.15515">
        <ele>288.2</ele>
        <time>2021-07-29T13:41:27Z</time>
      </trkpt>
      <trkpt lat="48.77628" lon="6.15529">
        <ele>288.3</ele>
        <time>2021-07-29T13:41:29Z</time>
      </trkpt>
      <trkpt lat="48.77628" lon="6.15531">
        <ele>288.4</ele>
        <time>2021-07-29T13:41:30Z</time>
      </trkpt>
      <trkpt lat="48.77628" lon="6.15533">
        <ele>288.4</ele>
        <time>2021-07-29T13:41:31Z</time>
      </trkpt>
      <trkpt lat="48.77628" lon="6.15535">
        <ele>288.5</ele>
        <time>2021-07-29T13:41:33Z</time>
      </trkpt>
      <trkpt lat="48.77628" lon="6.15538">
        <ele>288.5</ele>
        <time>2021-07-29T13:41:34Z</time>
      </trkpt>
      <trkpt lat="48.77627" lon="6.15544">
        <ele>288.7</ele>
        <time>2021-07-29T13:41:35Z</time>
      </trkpt>
      <trkpt lat="48.77627" lon="6.15551">
        <ele>289</ele>
        <time>2021-07-29T13:41:37Z</time>
      </trkpt>
      <trkpt lat="48.77628" lon="6.15554">
        <ele>289.1</ele>
        <time>2021-07-29T13:41:38Z</time>
      </trkpt>
      <trkpt lat="48.7763" lon="6.15557">
        <ele>289.4</ele>
        <time>2021-07-29T13:41:40Z</time>
      </trkpt>
      <trkpt lat="48.77632" lon="6.15562">
        <ele>289.7</ele>
        <time>2021-07-29T13:41:41Z</time>
      </trkpt>
      <trkpt lat="48.77634" lon="6.15568">
        <ele>290.1</ele>
        <time>2021-07-29T13:41:43Z</time>
      </trkpt>
      <trkpt lat="48.77634" lon="6.1557">
        <ele>290.2</ele>
        <time>2021-07-29T13:41:44Z</time>
      </trkpt>
      <trkpt lat="48.77634" lon="6.15572">
        <ele>290.4</ele>
        <time>2021-07-29T13:41:45Z</time>
      </trkpt>
      <trkpt lat="48.77634" lon="6.15573">
        <ele>290.4</ele>
        <time>2021-07-29T13:41:46Z</time>
      </trkpt>
      <trkpt lat="48.77634" lon="6.15574">
        <ele>290.5</ele>
        <time>2021-07-29T13:41:48Z</time>
      </trkpt>
      <trkpt lat="48.77633" lon="6.15574">
        <ele>290.5</ele>
        <time>2021-07-29T13:41:49Z</time>
      </trkpt>
      <trkpt lat="48.77633" lon="6.15575">
        <ele>290.6</ele>
        <time>2021-07-29T13:41:51Z</time>
      </trkpt>
      <trkpt lat="48.77633" lon="6.15576">
        <ele>290.7</ele>
        <time>2021-07-29T13:41:52Z</time>
      </trkpt>
      <trkpt lat="48.77633" lon="6.15577">
        <ele>290.7</ele>
        <time>2021-07-29T13:41:53Z</time>
      </trkpt>
      <trkpt lat="48.77633" lon="6.15577">
        <ele>290.8</ele>
        <time>2021-07-29T13:41:55Z</time>
      </trkpt>
      <trkpt lat="48.77651" lon="6.15839">
        <ele>307</ele>
        <time>2021-07-29T13:44:46Z</time>
      </trkpt>
      <trkpt lat="48.77651" lon="6.15844">
        <ele>307.2</ele>
        <time>2021-07-29T13:44:47Z</time>
      </trkpt>
      <trkpt lat="48.77652" lon="6.15848">
        <ele>307.3</ele>
        <time>2021-07-29T13:44:48Z</time>
      </trkpt>
      <trkpt lat="48.77652" lon="6.1585">
        <ele>307.4</ele>
        <time>2021-07-29T13:44:49Z</time>
      </trkpt>
      <trkpt lat="48.77653" lon="6.15853">
        <ele>307.5</ele>
        <time>2021-07-29T13:44:51Z</time>
      </trkpt>
      <trkpt lat="48.77653" lon="6.15855">
        <ele>307.6</ele>
        <time>2021-07-29T13:44:53Z</time>
      </trkpt>
      <trkpt lat="48.77653" lon="6.15856">
        <ele>307.6</ele>
        <time>2021-07-29T13:44:54Z</time>
      </trkpt>
      <trkpt lat="48.77653" lon="6.15856">
        <ele>307.7</ele>
        <time>2021-07-29T13:44:55Z</time>
      </trkpt>
      <trkpt lat="48.77653" lon="6.15857">
        <ele>307.7</ele>
        <time>2021-07-29T13:44:56Z</time>
      </trkpt>
      <trkpt lat="48.77653" lon="6.15857">
        <ele>307.7</ele>
        <time>2021-07-29T13:44:58Z</time>
      </trkpt>
      <trkpt lat="48.77653" lon="6.15858">
        <ele>307.7</ele>
        <time>2021-07-29T13:44:59Z</time>
      </trkpt>
      <trkpt lat="48.77654" lon="6.15859">
        <ele>307.8</ele>
        <time>2021-07-29T13:45:00Z</time>
      </trkpt>
      <trkpt lat="48.77655" lon="6.15861">
        <ele>307.9</ele>
        <time>2021-07-29T13:45:01Z</time>
      </trkpt>
      <trkpt lat="48.77583" lon="6.16258">
        <ele>350.1</ele>
        <time>2021-07-29T13:53:12Z</time>
      </trkpt>
      <trkpt lat="48.77578" lon="6.16261">
        <ele>350.5</ele>
        <time>2021-07-29T13:53:13Z</time>
      </trkpt>
      <trkpt lat="48.77574" lon="6.16262">
        <ele>350.8</ele>
        <time>2021-07-29T13:53:14Z</time>
      </trkpt>
      <trkpt lat="48.77569" lon="6.16263">
        <ele>351.2</ele>
        <time>2021-07-29T13:53:16Z</time>
      </trkpt>
      <trkpt lat="48.77566" lon="6.16264">
        <ele>351.4</ele>
        <time>2021-07-29T13:53:17Z</time>
      </trkpt>
      <trkpt lat="48.77563" lon="6.16266">
        <ele>351.6</ele>
        <time>2021-07-29T13:53:18Z</time>
      </trkpt>
      <trkpt lat="48.7756" lon="6.16267">
        <ele>351.8</ele>
        <time>2021-07-29T13:53:19Z</time>
      </trkpt>
      <trkpt lat="48.77558" lon="6.16268">
        <ele>351.9</ele>
        <time>2021-07-29T13:53:21Z</time>
      </trkpt>
      <trkpt lat="48.77555" lon="6.16267">
        <ele>352.1</ele>
        <time>2021-07-29T13:53:22Z</time>
      </trkpt>
      <trkpt lat="48.77554" lon="6.16267">
        <ele>352.2</ele>
        <time>2021-07-29T13:53:23Z</time>
      </trkpt>
      <trkpt lat="48.77552" lon="6.16266">
        <ele>352.3</ele>
        <time>2021-07-29T13:53:24Z</time>
      </trkpt>
      <trkpt lat="48.77551" lon="6.16266">
        <ele>352.3</ele>
        <time>2021-07-29T13:53:25Z</time>
      </trkpt>
      <trkpt lat="48.7755" lon="6.16266">
        <ele>352.4</ele>
        <time>2021-07-29T13:53:26Z</time>
      </trkpt>
      <trkpt lat="48.77549" lon="6.16266">
        <ele>352.4</ele>
        <time>2021-07-29T13:53:28Z</time>
      </trkpt>
      <trkpt lat="48.77549" lon="6.16267">
        <ele>352.4</ele>
        <time>2021-07-29T13:53:29Z</time>
      </trkpt>
      <trkpt lat="48.77549" lon="6.16268">
        <ele>352.5</ele>
        <time>2021-07-29T13:53:30Z</time>
      </trkpt>
      <trkpt lat="48.77548" lon="6.16271">
        <ele>352.6</ele>
        <time>2021-07-29T13:53:32Z</time>
      </trkpt>
      <trkpt lat="48.77544" lon="6.16275">
        <ele>352.7</ele>
        <time>2021-07-29T13:53:34Z</time>
      </trkpt>
      <trkpt lat="48.77542" lon="6.16276">
        <ele>353.5</ele>
        <time>2021-07-29T13:53:35Z</time>
      </trkpt>
      <trkpt lat="48.77536" lon="6.1628">
        <ele>353.9</ele>
        <time>2021-07-29T13:53:37Z</time>
      </trkpt>
      <trkpt lat="48.77532" lon="6.16283">
        <ele>354.2</ele>
        <time>2021-07-29T13:53:38Z</time>
      </trkpt>
      <trkpt lat="48.77529" lon="6.16285">
        <ele>354.4</ele>
        <time>2021-07-29T13:53:39Z</time>
      </trkpt>
      <trkpt lat="48.77526" lon="6.16287">
        <ele>354.6</ele>
        <time>2021-07-29T13:53:40Z</time>
      </trkpt>
      <trkpt lat="48.77528" lon="6.16286">
        <ele>354.7</ele>
        <time>2021-07-29T13:53:41Z</time>
      </trkpt>
      <trkpt lat="48.77534" lon="6.16282">
        <ele>355.1</ele>
        <time>2021-07-29T13:53:43Z</time>
      </trkpt>
      <trkpt lat="48.77534" lon="6.16283">
        <ele>355.2</ele>
        <time>2021-07-29T13:53:45Z</time>
      </trkpt>
      <trkpt lat="48.77533" lon="6.16284">
        <ele>355.2</ele>
        <time>2021-07-29T13:53:46Z</time>
      </trkpt>
      <trkpt lat="48.77532" lon="6.16286">
        <ele>355.3</ele>
        <time>2021-07-29T13:53:47Z</time>
      </trkpt>
      <trkpt lat="48.7753" lon="6.16293">
        <ele>355.6</ele>
        <time>2021-07-29T13:53:49Z</time>
      </trkpt>
      <trkpt lat="48.77529" lon="6.16295">
        <ele>355.7</ele>
        <time>2021-07-29T13:53:50Z</time>
      </trkpt>
      <trkpt lat="48.77529" lon="6.163">
        <ele>355.9</ele>
        <time>2021-07-29T13:53:51Z</time>
      </trkpt>
      <trkpt lat="48.77526" lon="6.16307">
        <ele>356.2</ele>
        <time>2021-07-29T13:53:53Z</time>
      </trkpt>
      <trkpt lat="48.77523" lon="6.16312">
        <ele>356.4</ele>
        <time>2021-07-29T13:53:55Z</time>
      </trkpt>
      <trkpt lat="48.77521" lon="6.16315">
        <ele>356.5</ele>
        <time>2021-07-29T13:53:56Z</time>
      </trkpt>
      <trkpt lat="48.77519" lon="6.16319">
        <ele>356.7</ele>
        <time>2021-07-29T13:53:57Z</time>
      </trkpt>
      <trkpt lat="48.77517" lon="6.1632">
        <ele>356.8</ele>
        <time>2021-07-29T13:53:58Z</time>
      </trkpt>
      <trkpt lat="48.77515" lon="6.16322">
        <ele>356.9</ele>
        <time>2021-07-29T13:54:00Z</time>
      </trkpt>
      <trkpt lat="48.77516" lon="6.16324">
        <ele>357</ele>
        <time>2021-07-29T13:54:01Z</time>
      </trkpt>
      <trkpt lat="48.77516" lon="6.16326">
        <ele>357.1</ele>
        <time>2021-07-29T13:54:03Z</time>
      </trkpt>
      <trkpt lat="48.77516" lon="6.16328">
        <ele>357.1</ele>
        <time>2021-07-29T13:54:04Z</time>
      </trkpt>
      <trkpt lat="48.77517" lon="6.16333">
        <ele>357.3</ele>
        <time>2021-07-29T13:54:06Z</time>
      </trkpt>
      <trkpt lat="48.77516" lon="6.16336">
        <ele>357.4</ele>
        <time>2021-07-29T13:54:07Z</time>
      </trkpt>
      <trkpt lat="48.77517" lon="6.16342">
        <ele>357.6</ele>
        <time>2021-07-29T13:54:09Z</time>
      </trkpt>
      <trkpt lat="48.77519" lon="6.16346">
        <ele>357.8</ele>
        <time>2021-07-29T13:54:10Z</time>
      </trkpt>
      <trkpt lat="48.7752" lon="6.16349">
        <ele>357.9</ele>
        <time>2021-07-29T13:54:11Z</time>
      </trkpt>
      <trkpt lat="48.77523" lon="6.16354">
        <ele>358.2</ele>
        <time>2021-07-29T13:54:13Z</time>
      </trkpt>
      <trkpt lat="48.77523" lon="6.16357">
        <ele>358.3</ele>
        <time>2021-07-29T13:54:15Z</time>
      </trkpt>
      <trkpt lat="48.77523" lon="6.16358">
        <ele>358.3</ele>
        <time>2021-07-29T13:54:16Z</time>
      </trkpt>
      <trkpt lat="48.77524" lon="6.16361">
        <ele>358.4</ele>
        <time>2021-07-29T13:54:17Z</time>
      </trkpt>
      <trkpt lat="48.77524" lon="6.16365">
        <ele>358.6</ele>
        <time>2021-07-29T13:54:19Z</time>
      </trkpt>
      <trkpt lat="48.77524" lon="6.1637">
        <ele>358.7</ele>
        <time>2021-07-29T13:54:21Z</time>
      </trkpt>
      <trkpt lat="48.77524" lon="6.16372">
        <ele>358.8</ele>
        <time>2021-07-29T13:54:22Z</time>
      </trkpt>
      <trkpt lat="48.77524" lon="6.16375">
        <ele>358.9</ele>
        <time>2021-07-29T13:54:23Z</time>
      </trkpt>
      <trkpt lat="48.77523" lon="6.1638">
        <ele>359</ele>
        <time>2021-07-29T13:54:25Z</time>
      </trkpt>
      <trkpt lat="48.77523" lon="6.16384">
        <ele>359.1</ele>
        <time>2021-07-29T13:54:26Z</time>
      </trkpt>
      <trkpt lat="48.77521" lon="6.16388">
        <ele>359.3</ele>
        <time>2021-07-29T13:54:28Z</time>
      </trkpt>
      <trkpt lat="48.7752" lon="6.1639">
        <ele>359.3</ele>
        <time>2021-07-29T13:54:29Z</time>
      </trkpt>
      <trkpt lat="48.77519" lon="6.16392">
        <ele>359.4</ele>
        <time>2021-07-29T13:54:30Z</time>
      </trkpt>
      <trkpt lat="48.77519" lon="6.16394">
        <ele>359.4</ele>
        <time>2021-07-29T13:54:31Z</time>
      </trkpt>
      <trkpt lat="48.77517" lon="6.16399">
        <ele>359.5</ele>
        <time>2021-07-29T13:54:33Z</time>
      </trkpt>
      <trkpt lat="48.77515" lon="6.16401">
        <ele>359.6</ele>
        <time>2021-07-29T13:54:35Z</time>
      </trkpt>
      <trkpt lat="48.77515" lon="6.16402">
        <ele>359.6</ele>
        <time>2021-07-29T13:54:36Z</time>
      </trkpt>
      <trkpt lat="48.77514" lon="6.16404">
        <ele>359.6</ele>
        <time>2021-07-29T13:54:38Z</time>
      </trkpt>
      <trkpt lat="48.77514" lon="6.16404">
        <ele>359.7</ele>
        <time>2021-07-29T13:54:39Z</time>
      </trkpt>
      <trkpt lat="48.77515" lon="6.16405">
        <ele>359.7</ele>
        <time>2021-07-29T13:54:40Z</time>
      </trkpt>
      <trkpt lat="48.77516" lon="6.16408">
        <ele>359.7</ele>
        <time>2021-07-29T13:54:42Z</time>
      </trkpt>
      <trkpt lat="48.77517" lon="6.1641">
        <ele>359.8</ele>
        <time>2021-07-29T13:54:43Z</time>
      </trkpt>
      <trkpt lat="48.77533" lon="6.1644">
        <ele>360.6</ele>
        <time>2021-07-29T13:54:51Z</time>
      </trkpt>
      <trkpt lat="48.77535" lon="6.16444">
        <ele>360.8</ele>
        <time>2021-07-29T13:54:52Z</time>
      </trkpt>
      <trkpt lat="48.77539" lon="6.16449">
        <ele>361</ele>
        <time>2021-07-29T13:54:54Z</time>
      </trkpt>
      <trkpt lat="48.77542" lon="6.16452">
        <ele>361.2</ele>
        <time>2021-07-29T13:54:55Z</time>
      </trkpt>
      <trkpt lat="48.77545" lon="6.16455">
        <ele>361.4</ele>
        <time>2021-07-29T13:54:57Z</time>
      </trkpt>
      <trkpt lat="48.77548" lon="6.16457">
        <ele>361.5</ele>
        <time>2021-07-29T13:54:58Z</time>
      </trkpt>
      <trkpt lat="48.77549" lon="6.16458">
        <ele>361.6</ele>
        <time>2021-07-29T13:54:59Z</time>
      </trkpt>
      <trkpt lat="48.77549" lon="6.16458">
        <ele>361.6</ele>
        <time>2021-07-29T13:55:00Z</time>
      </trkpt>
      <trkpt lat="48.77549" lon="6.16457">
        <ele>361.7</ele>
        <time>2021-07-29T13:55:01Z</time>
      </trkpt>
      <trkpt lat="48.77549" lon="6.16458">
        <ele>361.7</ele>
        <time>2021-07-29T13:55:03Z</time>
      </trkpt>
      <trkpt lat="48.7755" lon="6.16459">
        <ele>361.7</ele>
        <time>2021-07-29T13:55:04Z</time>
      </trkpt>
      <trkpt lat="48.77551" lon="6.16459">
        <ele>361.8</ele>
        <time>2021-07-29T13:55:05Z</time>
      </trkpt>
      <trkpt lat="48.77552" lon="6.16461">
        <ele>361.9</ele>
        <time>2021-07-29T13:55:07Z</time>
      </trkpt>
      <trkpt lat="48.77553" lon="6.16463">
        <ele>362</ele>
        <time>2021-07-29T13:55:09Z</time>
      </trkpt>
      <trkpt lat="48.77553" lon="6.16463">
        <ele>362</ele>
        <time>2021-07-29T13:55:09Z</time>
      </trkpt>
      <trkpt lat="48.77555" lon="6.16468">
        <ele>362.2</ele>
        <time>2021-07-29T13:55:10Z</time>
      </trkpt>
      <trkpt lat="48.77555" lon="6.16469">
        <ele>362.2</ele>
        <time>2021-07-29T13:55:11Z</time>
      </trkpt>
      <trkpt lat="48.77556" lon="6.16474">
        <ele>362.4</ele>
        <time>2021-07-29T13:55:12Z</time>
      </trkpt>
      <trkpt lat="48.77557" lon="6.16479">
        <ele>362.6</ele>
        <time>2021-07-29T13:55:13Z</time>
      </trkpt>
      <trkpt lat="48.77559" lon="6.16485">
        <ele>362.9</ele>
        <time>2021-07-29T13:55:15Z</time>
      </trkpt>
      <trkpt lat="48.77559" lon="6.16487">
        <ele>362.9</ele>
        <time>2021-07-29T13:55:16Z</time>
      </trkpt>
      <trkpt lat="48.77558" lon="6.1649">
        <ele>363.1</ele>
        <time>2021-07-29T13:55:18Z</time>
      </trkpt>
      <trkpt lat="48.77557" lon="6.16492">
        <ele>363.2</ele>
        <time>2021-07-29T13:55:19Z</time>
      </trkpt>
      <trkpt lat="48.77557" lon="6.16494">
        <ele>363.2</ele>
        <time>2021-07-29T13:55:20Z</time>
      </trkpt>
      <trkpt lat="48.77556" lon="6.16495">
        <ele>363.3</ele>
        <time>2021-07-29T13:55:21Z</time>
      </trkpt>
      <trkpt lat="48.77553" lon="6.16497">
        <ele>363.5</ele>
        <time>2021-07-29T13:55:23Z</time>
      </trkpt>
      <trkpt lat="48.77553" lon="6.16498">
        <ele>363.5</ele>
        <time>2021-07-29T13:55:24Z</time>
      </trkpt>
      <trkpt lat="48.77551" lon="6.16499">
        <ele>363.6</ele>
        <time>2021-07-29T13:55:25Z</time>
      </trkpt>
      <trkpt lat="48.7755" lon="6.16503">
        <ele>363.8</ele>
        <time>2021-07-29T13:55:27Z</time>
      </trkpt>
      <trkpt lat="48.77546" lon="6.16507">
        <ele>364.1</ele>
        <time>2021-07-29T13:55:28Z</time>
      </trkpt>
      <trkpt lat="48.7754" lon="6.16514">
        <ele>364.6</ele>
        <time>2021-07-29T13:55:30Z</time>
      </trkpt>
      <trkpt lat="48.77532" lon="6.16522">
        <ele>365.2</ele>
        <time>2021-07-29T13:55:31Z</time>
      </trkpt>
      <trkpt lat="48.77527" lon="6.16529">
        <ele>365.3</ele>
        <time>2021-07-29T13:55:32Z</time>
      </trkpt>
      <trkpt lat="48.77528" lon="6.16531">
        <ele>365.3</ele>
        <time>2021-07-29T13:55:34Z</time>
      </trkpt>
      <trkpt lat="48.77529" lon="6.16532">
        <ele>365.4</ele>
        <time>2021-07-29T13:55:35Z</time>
      </trkpt>
      <trkpt lat="48.77532" lon="6.16531">
        <ele>365.4</ele>
        <time>2021-07-29T13:55:37Z</time>
      </trkpt>
      <trkpt lat="48.77533" lon="6.16531">
        <ele>365.5</ele>
        <time>2021-07-29T13:55:38Z</time>
      </trkpt>
      <trkpt lat="48.77449" lon="6.16564">
        <ele>367.9</ele>
        <time>2021-07-29T13:56:24Z</time>
      </trkpt>
      <trkpt lat="48.77446" lon="6.16563">
        <ele>368</ele>
        <time>2021-07-29T13:56:25Z</time>
      </trkpt>
      <trkpt lat="48.77441" lon="6.1656">
        <ele>368</ele>
        <time>2021-07-29T13:56:26Z</time>
      </trkpt>
      <trkpt lat="48.77439" lon="6.16561">
        <ele>368.1</ele>
        <time>2021-07-29T13:56:27Z</time>
      </trkpt>
      <trkpt lat="48.77438" lon="6.16561">
        <ele>368.1</ele>
        <time>2021-07-29T13:56:28Z</time>
      </trkpt>
      <trkpt lat="48.77433" lon="6.16565">
        <ele>368.2</ele>
        <time>2021-07-29T13:56:30Z</time>
      </trkpt>
      <trkpt lat="48.77431" lon="6.16565">
        <ele>368.2</ele>
        <time>2021-07-29T13:56:31Z</time>
      </trkpt>
      <trkpt lat="48.77429" lon="6.16565">
        <ele>368.2</ele>
        <time>2021-07-29T13:56:33Z</time>
      </trkpt>
      <trkpt lat="48.77426" lon="6.16564">
        <ele>368.3</ele>
        <time>2021-07-29T13:56:34Z</time>
      </trkpt>
      <trkpt lat="48.77422" lon="6.16566">
        <ele>368.3</ele>
        <time>2021-07-29T13:56:36Z</time>
      </trkpt>
      <trkpt lat="48.77343" lon="6.16571">
        <ele>369</ele>
        <time>2021-07-29T13:57:18Z</time>
      </trkpt>
      <trkpt lat="48.77337" lon="6.16569">
        <ele>369</ele>
        <time>2021-07-29T13:57:19Z</time>
      </trkpt>
      <trkpt lat="48.77329" lon="6.16568">
        <ele>369</ele>
        <time>2021-07-29T13:57:21Z</time>
      </trkpt>
      <trkpt lat="48.7732" lon="6.16568">
        <ele>368.9</ele>
        <time>2021-07-29T13:57:22Z</time>
      </trkpt>
      <trkpt lat="48.77314" lon="6.16568">
        <ele>368.9</ele>
        <time>2021-07-29T13:57:23Z</time>
      </trkpt>
      <trkpt lat="48.77289" lon="6.16568">
        <ele>368.1</ele>
        <time>2021-07-29T13:57:25Z</time>
      </trkpt>
      <trkpt lat="48.77286" lon="6.16569">
        <ele>368</ele>
        <time>2021-07-29T13:57:26Z</time>
      </trkpt>
      <trkpt lat="48.77285" lon="6.16569">
        <ele>367.9</ele>
        <time>2021-07-29T13:57:27Z</time>
      </trkpt>
      <trkpt lat="48.77281" lon="6.16571">
        <ele>367.8</ele>
        <time>2021-07-29T13:57:29Z</time>
      </trkpt>
      <trkpt lat="48.77277" lon="6.16572">
        <ele>367.6</ele>
        <time>2021-07-29T13:57:31Z</time>
      </trkpt>
      <trkpt lat="48.77275" lon="6.16573">
        <ele>367.5</ele>
        <time>2021-07-29T13:57:32Z</time>
      </trkpt>
      <trkpt lat="48.77243" lon="6.1659">
        <ele>365.3</ele>
        <time>2021-07-29T13:57:53Z</time>
      </trkpt>
      <trkpt lat="48.77226" lon="6.16596">
        <ele>364.1</ele>
        <time>2021-07-29T13:57:55Z</time>
      </trkpt>
      <trkpt lat="48.77211" lon="6.16598">
        <ele>363.3</ele>
        <time>2021-07-29T13:57:57Z</time>
      </trkpt>
      <trkpt lat="48.77204" lon="6.16599">
        <ele>362.9</ele>
        <time>2021-07-29T13:57:58Z</time>
      </trkpt>
      <trkpt lat="48.77199" lon="6.16601">
        <ele>362.6</ele>
        <time>2021-07-29T13:57:59Z</time>
      </trkpt>
      <trkpt lat="48.77192" lon="6.166">
        <ele>362.2</ele>
        <time>2021-07-29T13:58:00Z</time>
      </trkpt>
      <trkpt lat="48.77187" lon="6.166">
        <ele>361.9</ele>
        <time>2021-07-29T13:58:01Z</time>
      </trkpt>
      <trkpt lat="48.77177" lon="6.16608">
        <ele>361.3</ele>
        <time>2021-07-29T13:58:03Z</time>
      </trkpt>
      <trkpt lat="48.77167" lon="6.16613">
        <ele>360.7</ele>
        <time>2021-07-29T13:58:05Z</time>
      </trkpt>
      <trkpt lat="48.77158" lon="6.16618">
        <ele>360.1</ele>
        <time>2021-07-29T13:58:07Z</time>
      </trkpt>
      <trkpt lat="48.77143" lon="6.16625">
        <ele>359.1</ele>
        <time>2021-07-29T13:58:10Z</time>
      </trkpt>
      <trkpt lat="48.77139" lon="6.16626">
        <ele>358.8</ele>
        <time>2021-07-29T13:58:11Z</time>
      </trkpt>
      <trkpt lat="48.77134" lon="6.16627">
        <ele>358.5</ele>
        <time>2021-07-29T13:58:13Z</time>
      </trkpt>
      <trkpt lat="48.77128" lon="6.16628">
        <ele>358.1</ele>
        <time>2021-07-29T13:58:14Z</time>
      </trkpt>
      <trkpt lat="48.77124" lon="6.1663">
        <ele>357.8</ele>
        <time>2021-07-29T13:58:15Z</time>
      </trkpt>
      <trkpt lat="48.7712" lon="6.16633">
        <ele>357.4</ele>
        <time>2021-07-29T13:58:16Z</time>
      </trkpt>
      <trkpt lat="48.77114" lon="6.16636">
        <ele>356.8</ele>
        <time>2021-07-29T13:58:17Z</time>
      </trkpt>
      <trkpt lat="48.77109" lon="6.1664">
        <ele>356.3</ele>
        <time>2021-07-29T13:58:19Z</time>
      </trkpt>
      <trkpt lat="48.77106" lon="6.16643">
        <ele>356.1</ele>
        <time>2021-07-29T13:58:20Z</time>
      </trkpt>
      <trkpt lat="48.77099" lon="6.16648">
        <ele>355.5</ele>
        <time>2021-07-29T13:58:22Z</time>
      </trkpt>
      <trkpt lat="48.77096" lon="6.16651">
        <ele>355.2</ele>
        <time>2021-07-29T13:58:23Z</time>
      </trkpt>
      <trkpt lat="48.77091" lon="6.16655">
        <ele>354.8</ele>
        <time>2021-07-29T13:58:24Z</time>
      </trkpt>
      <trkpt lat="48.77086" lon="6.16659">
        <ele>354.5</ele>
        <time>2021-07-29T13:58:26Z</time>
      </trkpt>
      <trkpt lat="48.77083" lon="6.16662">
        <ele>354.1</ele>
        <time>2021-07-29T13:58:27Z</time>
      </trkpt>
      <trkpt lat="48.77081" lon="6.16665">
        <ele>353.9</ele>
        <time>2021-07-29T13:58:28Z</time>
      </trkpt>
      <trkpt lat="48.77079" lon="6.16668">
        <ele>353.7</ele>
        <time>2021-07-29T13:58:30Z</time>
      </trkpt>
      <trkpt lat="48.77078" lon="6.16669">
        <ele>353.6</ele>
        <time>2021-07-29T13:58:31Z</time>
      </trkpt>
      <trkpt lat="48.77077" lon="6.16671">
        <ele>353.5</ele>
        <time>2021-07-29T13:58:33Z</time>
      </trkpt>
      <trkpt lat="48.77075" lon="6.16672">
        <ele>353.3</ele>
        <time>2021-07-29T13:58:34Z</time>
      </trkpt>
      <trkpt lat="48.77073" lon="6.16676">
        <ele>353.5</ele>
        <time>2021-07-29T13:58:36Z</time>
      </trkpt>
      <trkpt lat="48.77073" lon="6.16678">
        <ele>353.6</ele>
        <time>2021-07-29T13:58:37Z</time>
      </trkpt>
      <trkpt lat="48.77074" lon="6.16679">
        <ele>353.7</ele>
        <time>2021-07-29T13:58:38Z</time>
      </trkpt>
      <trkpt lat="48.77074" lon="6.16681">
        <ele>353.7</ele>
        <time>2021-07-29T13:58:39Z</time>
      </trkpt>
      <trkpt lat="48.77076" lon="6.1668">
        <ele>353.8</ele>
        <time>2021-07-29T13:58:40Z</time>
      </trkpt>
      <trkpt lat="48.77077" lon="6.16678">
        <ele>353.9</ele>
        <time>2021-07-29T13:58:41Z</time>
      </trkpt>
      <trkpt lat="48.77078" lon="6.16677">
        <ele>354</ele>
        <time>2021-07-29T13:58:42Z</time>
      </trkpt>
      <trkpt lat="48.77079" lon="6.16675">
        <ele>354.1</ele>
        <time>2021-07-29T13:58:43Z</time>
      </trkpt>
      <trkpt lat="48.77082" lon="6.16672">
        <ele>354.3</ele>
        <time>2021-07-29T13:58:45Z</time>
      </trkpt>
      <trkpt lat="48.77084" lon="6.16669">
        <ele>354.4</ele>
        <time>2021-07-29T13:58:46Z</time>
      </trkpt>
      <trkpt lat="48.77087" lon="6.16666">
        <ele>354.6</ele>
        <time>2021-07-29T13:58:47Z</time>
      </trkpt>
      <trkpt lat="48.77089" lon="6.16664">
        <ele>354.7</ele>
        <time>2021-07-29T13:58:48Z</time>
      </trkpt>
      <trkpt lat="48.77092" lon="6.16661">
        <ele>354.9</ele>
        <time>2021-07-29T13:58:49Z</time>
      </trkpt>
      <trkpt lat="48.77095" lon="6.16657">
        <ele>355</ele>
        <time>2021-07-29T13:58:50Z</time>
      </trkpt>
      <trkpt lat="48.77098" lon="6.16653">
        <ele>355.2</ele>
        <time>2021-07-29T13:58:52Z</time>
      </trkpt>
      <trkpt lat="48.77099" lon="6.16652">
        <ele>355.3</ele>
        <time>2021-07-29T13:58:53Z</time>
      </trkpt>
      <trkpt lat="48.77101" lon="6.16651">
        <ele>355.4</ele>
        <time>2021-07-29T13:58:54Z</time>
      </trkpt>
      <trkpt lat="48.77104" lon="6.16649">
        <ele>355.5</ele>
        <time>2021-07-29T13:58:55Z</time>
      </trkpt>
      <trkpt lat="48.77105" lon="6.16649">
        <ele>355.6</ele>
        <time>2021-07-29T13:58:56Z</time>
      </trkpt>
      <trkpt lat="48.7711" lon="6.16646">
        <ele>355.9</ele>
        <time>2021-07-29T13:58:58Z</time>
      </trkpt>
      <trkpt lat="48.77114" lon="6.16643">
        <ele>356.1</ele>
        <time>2021-07-29T13:58:59Z</time>
      </trkpt>
      <trkpt lat="48.77117" lon="6.1664">
        <ele>356.3</ele>
        <time>2021-07-29T13:59:00Z</time>
      </trkpt>
      <trkpt lat="48.77119" lon="6.16638">
        <ele>356.5</ele>
        <time>2021-07-29T13:59:01Z</time>
      </trkpt>
      <trkpt lat="48.77122" lon="6.16633">
        <ele>356.7</ele>
        <time>2021-07-29T13:59:03Z</time>
      </trkpt>
      <trkpt lat="48.77122" lon="6.16628">
        <ele>356.9</ele>
        <time>2021-07-29T13:59:04Z</time>
      </trkpt>
      <trkpt lat="48.77123" lon="6.16626">
        <ele>357</ele>
        <time>2021-07-29T13:59:05Z</time>
      </trkpt>
      <trkpt lat="48.77121" lon="6.16624">
        <ele>357.1</ele>
        <time>2021-07-29T13:59:06Z</time>
      </trkpt>
      <trkpt lat="48.77121" lon="6.16622">
        <ele>357.1</ele>
        <time>2021-07-29T13:59:08Z</time>
      </trkpt>
      <trkpt lat="48.77121" lon="6.16621">
        <ele>357.2</ele>
        <time>2021-07-29T13:59:10Z</time>
      </trkpt>
      <trkpt lat="48.77121" lon="6.16619">
        <ele>357.3</ele>
        <time>2021-07-29T13:59:11Z</time>
      </trkpt>
      <trkpt lat="48.7712" lon="6.16614">
        <ele>357.5</ele>
        <time>2021-07-29T13:59:12Z</time>
      </trkpt>
      <trkpt lat="48.77118" lon="6.16606">
        <ele>357.8</ele>
        <time>2021-07-29T13:59:14Z</time>
      </trkpt>
      <trkpt lat="48.77115" lon="6.16601">
        <ele>357.6</ele>
        <time>2021-07-29T13:59:15Z</time>
      </trkpt>
      <trkpt lat="48.77109" lon="6.16595">
        <ele>357.3</ele>
        <time>2021-07-29T13:59:17Z</time>
      </trkpt>
      <trkpt lat="48.77106" lon="6.16589">
        <ele>357.1</ele>
        <time>2021-07-29T13:59:18Z</time>
      </trkpt>
      <trkpt lat="48.77104" lon="6.16584">
        <ele>356.9</ele>
        <time>2021-07-29T13:59:19Z</time>
      </trkpt>
      <trkpt lat="48.77102" lon="6.16576">
        <ele>356.7</ele>
        <time>2021-07-29T13:59:21Z</time>
      </trkpt>
      <trkpt lat="48.771" lon="6.16571">
        <ele>356.5</ele>
        <time>2021-07-29T13:59:22Z</time>
      </trkpt>
      <trkpt lat="48.77098" lon="6.16566">
        <ele>356.4</ele>
        <time>2021-07-29T13:59:23Z</time>
      </trkpt>
      <trkpt lat="48.77096" lon="6.16558">
        <ele>356.1</ele>
        <time>2021-07-29T13:59:25Z</time>
      </trkpt>
      <trkpt lat="48.77095" lon="6.16552">
        <ele>356</ele>
        <time>2021-07-29T13:59:26Z</time>
      </trkpt>
      <trkpt lat="48.77093" lon="6.16549">
        <ele>355.9</ele>
        <time>2021-07-29T13:59:27Z</time>
      </trkpt>
      <trkpt lat="48.7709" lon="6.16548">
        <ele>355.7</ele>
        <time>2021-07-29T13:59:29Z</time>
      </trkpt>
      <trkpt lat="48.77087" lon="6.16548">
        <ele>355.6</ele>
        <time>2021-07-29T13:59:30Z</time>
      </trkpt>
      <trkpt lat="48.77083" lon="6.16546">
        <ele>355.5</ele>
        <time>2021-07-29T13:59:31Z</time>
      </trkpt>
      <trkpt lat="48.77081" lon="6.16545">
        <ele>355.4</ele>
        <time>2021-07-29T13:59:32Z</time>
      </trkpt>
      <trkpt lat="48.77079" lon="6.16545">
        <ele>355.3</ele>
        <time>2021-07-29T13:59:34Z</time>
      </trkpt>
      <trkpt lat="48.77078" lon="6.16545">
        <ele>355.3</ele>
        <time>2021-07-29T13:59:35Z</time>
      </trkpt>
      <trkpt lat="48.77077" lon="6.16546">
        <ele>355.3</ele>
        <time>2021-07-29T13:59:37Z</time>
      </trkpt>
      <trkpt lat="48.77076" lon="6.16546">
        <ele>355.2</ele>
        <time>2021-07-29T13:59:38Z</time>
      </trkpt>
      <trkpt lat="48.77075" lon="6.16547">
        <ele>355.2</ele>
        <time>2021-07-29T13:59:39Z</time>
      </trkpt>
      <trkpt lat="48.77063" lon="6.16553">
        <ele>354.8</ele>
        <time>2021-07-29T14:29:47Z</time>
      </trkpt>
      <trkpt lat="48.77064" lon="6.16557">
        <ele>354.7</ele>
        <time>2021-07-29T14:29:49Z</time>
      </trkpt>
      <trkpt lat="48.77066" lon="6.1656">
        <ele>354.6</ele>
        <time>2021-07-29T14:29:51Z</time>
      </trkpt>
      <trkpt lat="48.77067" lon="6.16565">
        <ele>354.4</ele>
        <time>2021-07-29T14:29:53Z</time>
      </trkpt>
      <trkpt lat="48.77067" lon="6.1657">
        <ele>354.3</ele>
        <time>2021-07-29T14:29:54Z</time>
      </trkpt>
      <trkpt lat="48.77067" lon="6.16572">
        <ele>354.2</ele>
        <time>2021-07-29T14:29:55Z</time>
      </trkpt>
      <trkpt lat="48.77068" lon="6.16579">
        <ele>354.1</ele>
        <time>2021-07-29T14:29:57Z</time>
      </trkpt>
      <trkpt lat="48.77068" lon="6.16581">
        <ele>354</ele>
        <time>2021-07-29T14:29:58Z</time>
      </trkpt>
      <trkpt lat="48.77068" lon="6.16583">
        <ele>353.9</ele>
        <time>2021-07-29T14:29:59Z</time>
      </trkpt>
      <trkpt lat="48.77069" lon="6.16587">
        <ele>353.8</ele>
        <time>2021-07-29T14:30:01Z</time>
      </trkpt>
      <trkpt lat="48.77068" lon="6.16592">
        <ele>353.7</ele>
        <time>2021-07-29T14:30:03Z</time>
      </trkpt>
      <trkpt lat="48.77067" lon="6.16597">
        <ele>353.5</ele>
        <time>2021-07-29T14:30:05Z</time>
      </trkpt>
      <trkpt lat="48.77065" lon="6.16602">
        <ele>353.4</ele>
        <time>2021-07-29T14:30:06Z</time>
      </trkpt>
      <trkpt lat="48.77064" lon="6.16604">
        <ele>353.3</ele>
        <time>2021-07-29T14:30:07Z</time>
      </trkpt>
      <trkpt lat="48.77063" lon="6.16611">
        <ele>353.1</ele>
        <time>2021-07-29T14:30:09Z</time>
      </trkpt>
      <trkpt lat="48.77062" lon="6.16617">
        <ele>352.9</ele>
        <time>2021-07-29T14:30:10Z</time>
      </trkpt>
      <trkpt lat="48.77061" lon="6.16619">
        <ele>352.9</ele>
        <time>2021-07-29T14:30:11Z</time>
      </trkpt>
      <trkpt lat="48.7706" lon="6.16625">
        <ele>352.7</ele>
        <time>2021-07-29T14:30:12Z</time>
      </trkpt>
      <trkpt lat="48.77059" lon="6.16631">
        <ele>352.6</ele>
        <time>2021-07-29T14:30:13Z</time>
      </trkpt>
      <trkpt lat="48.77058" lon="6.1664">
        <ele>352.3</ele>
        <time>2021-07-29T14:30:15Z</time>
      </trkpt>
      <trkpt lat="48.77056" lon="6.16651">
        <ele>352.1</ele>
        <time>2021-07-29T14:30:17Z</time>
      </trkpt>
      <trkpt lat="48.77054" lon="6.16659">
        <ele>351.9</ele>
        <time>2021-07-29T14:30:18Z</time>
      </trkpt>
      <trkpt lat="48.77053" lon="6.16664">
        <ele>351.8</ele>
        <time>2021-07-29T14:30:19Z</time>
      </trkpt>
      <trkpt lat="48.7705" lon="6.16672">
        <ele>351.6</ele>
        <time>2021-07-29T14:30:21Z</time>
      </trkpt>
      <trkpt lat="48.77049" lon="6.16676">
        <ele>351.6</ele>
        <time>2021-07-29T14:30:22Z</time>
      </trkpt>
      <trkpt lat="48.77048" lon="6.1668">
        <ele>351.6</ele>
        <time>2021-07-29T14:30:23Z</time>
      </trkpt>
      <trkpt lat="48.77045" lon="6.16686">
        <ele>351.5</ele>
        <time>2021-07-29T14:30:25Z</time>
      </trkpt>
      <trkpt lat="48.77041" lon="6.1669">
        <ele>351.4</ele>
        <time>2021-07-29T14:30:27Z</time>
      </trkpt>
      <trkpt lat="48.77038" lon="6.16691">
        <ele>351.4</ele>
        <time>2021-07-29T14:30:28Z</time>
      </trkpt>
      <trkpt lat="48.77037" lon="6.16692">
        <ele>351.4</ele>
        <time>2021-07-29T14:30:29Z</time>
      </trkpt>
      <trkpt lat="48.77033" lon="6.16694">
        <ele>351.4</ele>
        <time>2021-07-29T14:30:31Z</time>
      </trkpt>
      <trkpt lat="48.77029" lon="6.16696">
        <ele>351.3</ele>
        <time>2021-07-29T14:30:33Z</time>
      </trkpt>
      <trkpt lat="48.77025" lon="6.16698">
        <ele>351.3</ele>
        <time>2021-07-29T14:30:34Z</time>
      </trkpt>
      <trkpt lat="48.77024" lon="6.16698">
        <ele>351.2</ele>
        <time>2021-07-29T14:30:35Z</time>
      </trkpt>
      <trkpt lat="48.77019" lon="6.167">
        <ele>351.1</ele>
        <time>2021-07-29T14:30:37Z</time>
      </trkpt>
      <trkpt lat="48.77015" lon="6.16702">
        <ele>351</ele>
        <time>2021-07-29T14:30:39Z</time>
      </trkpt>
      <trkpt lat="48.7701" lon="6.16705">
        <ele>350.9</ele>
        <time>2021-07-29T14:30:40Z</time>
      </trkpt>
      <trkpt lat="48.77006" lon="6.16707">
        <ele>350.7</ele>
        <time>2021-07-29T14:30:41Z</time>
      </trkpt>
      <trkpt lat="48.76995" lon="6.16712">
        <ele>350.4</ele>
        <time>2021-07-29T14:30:43Z</time>
      </trkpt>
      <trkpt lat="48.76984" lon="6.16716">
        <ele>350.1</ele>
        <time>2021-07-29T14:30:45Z</time>
      </trkpt>
      <trkpt lat="48.76979" lon="6.16719">
        <ele>350</ele>
        <time>2021-07-29T14:30:46Z</time>
      </trkpt>
      <trkpt lat="48.76974" lon="6.16721">
        <ele>350</ele>
        <time>2021-07-29T14:30:47Z</time>
      </trkpt>
      <trkpt lat="48.76964" lon="6.16726">
        <ele>349.9</ele>
        <time>2021-07-29T14:30:49Z</time>
      </trkpt>
      <trkpt lat="48.76954" lon="6.16729">
        <ele>349.1</ele>
        <time>2021-07-29T14:30:51Z</time>
      </trkpt>
      <trkpt lat="48.76949" lon="6.16729">
        <ele>348.6</ele>
        <time>2021-07-29T14:30:52Z</time>
      </trkpt>
      <trkpt lat="48.76944" lon="6.16729">
        <ele>348.1</ele>
        <time>2021-07-29T14:30:53Z</time>
      </trkpt>
      <trkpt lat="48.76934" lon="6.16729">
        <ele>347.1</ele>
        <time>2021-07-29T14:30:55Z</time>
      </trkpt>
      <trkpt lat="48.76926" lon="6.16728">
        <ele>346.3</ele>
        <time>2021-07-29T14:30:57Z</time>
      </trkpt>
      <trkpt lat="48.76922" lon="6.16728">
        <ele>345.9</ele>
        <time>2021-07-29T14:30:58Z</time>
      </trkpt>
      <trkpt lat="48.76918" lon="6.16728">
        <ele>345.5</ele>
        <time>2021-07-29T14:30:59Z</time>
      </trkpt>
      <trkpt lat="48.7691" lon="6.16733">
        <ele>344.6</ele>
        <time>2021-07-29T14:31:01Z</time>
      </trkpt>
      <trkpt lat="48.76903" lon="6.16744">
        <ele>343.6</ele>
        <time>2021-07-29T14:31:03Z</time>
      </trkpt>
      <trkpt lat="48.76899" lon="6.16757">
        <ele>343</ele>
        <time>2021-07-29T14:31:05Z</time>
      </trkpt>
      <trkpt lat="48.76896" lon="6.16761">
        <ele>342.9</ele>
        <time>2021-07-29T14:31:07Z</time>
      </trkpt>
      <trkpt lat="48.76893" lon="6.16765">
        <ele>342.8</ele>
        <time>2021-07-29T14:31:08Z</time>
      </trkpt>
      <trkpt lat="48.7689" lon="6.16774">
        <ele>342.7</ele>
        <time>2021-07-29T14:31:09Z</time>
      </trkpt>
      <trkpt lat="48.7689" lon="6.16781">
        <ele>342.6</ele>
        <time>2021-07-29T14:31:10Z</time>
      </trkpt>
      <trkpt lat="48.7689" lon="6.16791">
        <ele>342.4</ele>
        <time>2021-07-29T14:31:12Z</time>
      </trkpt>
      <trkpt lat="48.76892" lon="6.16807">
        <ele>342.3</ele>
        <time>2021-07-29T14:31:13Z</time>
      </trkpt>
      <trkpt lat="48.76894" lon="6.16821">
        <ele>342.2</ele>
        <time>2021-07-29T14:31:15Z</time>
      </trkpt>
      <trkpt lat="48.76894" lon="6.16827">
        <ele>342.2</ele>
        <time>2021-07-29T14:31:16Z</time>
      </trkpt>
      <trkpt lat="48.76895" lon="6.16838">
        <ele>342.2</ele>
        <time>2021-07-29T14:31:17Z</time>
      </trkpt>
      <trkpt lat="48.76896" lon="6.16856">
        <ele>342.1</ele>
        <time>2021-07-29T14:31:19Z</time>
      </trkpt>
      <trkpt lat="48.76896" lon="6.16864">
        <ele>342.1</ele>
        <time>2021-07-29T14:31:20Z</time>
      </trkpt>
      <trkpt lat="48.76895" lon="6.16879">
        <ele>342</ele>
        <time>2021-07-29T14:31:22Z</time>
      </trkpt>
      <trkpt lat="48.76893" lon="6.16883">
        <ele>342</ele>
        <time>2021-07-29T14:31:23Z</time>
      </trkpt>
      <trkpt lat="48.76889" lon="6.16885">
        <ele>341.9</ele>
        <time>2021-07-29T14:31:25Z</time>
      </trkpt>
      <trkpt lat="48.76886" lon="6.16893">
        <ele>341.9</ele>
        <time>2021-07-29T14:31:26Z</time>
      </trkpt>
      <trkpt lat="48.76881" lon="6.169">
        <ele>341.8</ele>
        <time>2021-07-29T14:31:28Z</time>
      </trkpt>
      <trkpt lat="48.76875" lon="6.16905">
        <ele>341.8</ele>
        <time>2021-07-29T14:31:29Z</time>
      </trkpt>
      <trkpt lat="48.7687" lon="6.16909">
        <ele>341.7</ele>
        <time>2021-07-29T14:31:30Z</time>
      </trkpt>
      <trkpt lat="48.76865" lon="6.16914">
        <ele>341.8</ele>
        <time>2021-07-29T14:31:31Z</time>
      </trkpt>
      <trkpt lat="48.76856" lon="6.16918">
        <ele>341.5</ele>
        <time>2021-07-29T14:31:33Z</time>
      </trkpt>
      <trkpt lat="48.76851" lon="6.16914">
        <ele>341.3</ele>
        <time>2021-07-29T14:31:34Z</time>
      </trkpt>
      <trkpt lat="48.76845" lon="6.16911">
        <ele>341.1</ele>
        <time>2021-07-29T14:31:36Z</time>
      </trkpt>
      <trkpt lat="48.7684" lon="6.16907">
        <ele>340.9</ele>
        <time>2021-07-29T14:31:37Z</time>
      </trkpt>
      <trkpt lat="48.76835" lon="6.16903">
        <ele>340.7</ele>
        <time>2021-07-29T14:31:38Z</time>
      </trkpt>
      <trkpt lat="48.76831" lon="6.169">
        <ele>340.6</ele>
        <time>2021-07-29T14:31:39Z</time>
      </trkpt>
      <trkpt lat="48.76823" lon="6.16897">
        <ele>340.4</ele>
        <time>2021-07-29T14:31:41Z</time>
      </trkpt>
      <trkpt lat="48.76817" lon="6.16898">
        <ele>340.3</ele>
        <time>2021-07-29T14:31:43Z</time>
      </trkpt>
      <trkpt lat="48.76816" lon="6.169">
        <ele>340.2</ele>
        <time>2021-07-29T14:31:44Z</time>
      </trkpt>
      <trkpt lat="48.76812" lon="6.16905">
        <ele>340.1</ele>
        <time>2021-07-29T14:31:46Z</time>
      </trkpt>
      <trkpt lat="48.7681" lon="6.16905">
        <ele>340.1</ele>
        <time>2021-07-29T14:31:47Z</time>
      </trkpt>
      <trkpt lat="48.768" lon="6.16903">
        <ele>340</ele>
        <time>2021-07-29T14:31:49Z</time>
      </trkpt>
      <trkpt lat="48.76792" lon="6.16902">
        <ele>339.9</ele>
        <time>2021-07-29T14:31:51Z</time>
      </trkpt>
      <trkpt lat="48.76784" lon="6.169">
        <ele>339.9</ele>
        <time>2021-07-29T14:31:52Z</time>
      </trkpt>
      <trkpt lat="48.76774" lon="6.16896">
        <ele>339.8</ele>
        <time>2021-07-29T14:31:53Z</time>
      </trkpt>
      <trkpt lat="48.7677" lon="6.16894">
        <ele>339.7</ele>
        <time>2021-07-29T14:31:54Z</time>
      </trkpt>
      <trkpt lat="48.76766" lon="6.16892">
        <ele>339.6</ele>
        <time>2021-07-29T14:31:55Z</time>
      </trkpt>
      <trkpt lat="48.76762" lon="6.16891">
        <ele>339.6</ele>
        <time>2021-07-29T14:31:57Z</time>
      </trkpt>
      <trkpt lat="48.76757" lon="6.16889">
        <ele>339.4</ele>
        <time>2021-07-29T14:31:58Z</time>
      </trkpt>
      <trkpt lat="48.76752" lon="6.16887">
        <ele>339.3</ele>
        <time>2021-07-29T14:31:59Z</time>
      </trkpt>
      <trkpt lat="48.76748" lon="6.16885">
        <ele>339.2</ele>
        <time>2021-07-29T14:32:00Z</time>
      </trkpt>
      <trkpt lat="48.76742" lon="6.16882">
        <ele>339</ele>
        <time>2021-07-29T14:32:02Z</time>
      </trkpt>
      <trkpt lat="48.76737" lon="6.16878">
        <ele>338.8</ele>
        <time>2021-07-29T14:32:03Z</time>
      </trkpt>
      <trkpt lat="48.76732" lon="6.16873">
        <ele>338.6</ele>
        <time>2021-07-29T14:32:04Z</time>
      </trkpt>
      <trkpt lat="48.76725" lon="6.16867">
        <ele>338.4</ele>
        <time>2021-07-29T14:32:06Z</time>
      </trkpt>
      <trkpt lat="48.76721" lon="6.16863">
        <ele>338.2</ele>
        <time>2021-07-29T14:32:07Z</time>
      </trkpt>
      <trkpt lat="48.76711" lon="6.16853">
        <ele>337.8</ele>
        <time>2021-07-29T14:32:08Z</time>
      </trkpt>
      <trkpt lat="48.76708" lon="6.1685">
        <ele>337.6</ele>
        <time>2021-07-29T14:32:10Z</time>
      </trkpt>
      <trkpt lat="48.76696" lon="6.16844">
        <ele>337.2</ele>
        <time>2021-07-29T14:32:11Z</time>
      </trkpt>
      <trkpt lat="48.76684" lon="6.16838">
        <ele>336.7</ele>
        <time>2021-07-29T14:32:13Z</time>
      </trkpt>
      <trkpt lat="48.76674" lon="6.16832">
        <ele>336.2</ele>
        <time>2021-07-29T14:32:15Z</time>
      </trkpt>
      <trkpt lat="48.76669" lon="6.16829">
        <ele>335.9</ele>
        <time>2021-07-29T14:32:16Z</time>
      </trkpt>
      <trkpt lat="48.76663" lon="6.16826">
        <ele>335.6</ele>
        <time>2021-07-29T14:32:17Z</time>
      </trkpt>
      <trkpt lat="48.76658" lon="6.16824">
        <ele>335.4</ele>
        <time>2021-07-29T14:32:18Z</time>
      </trkpt>
      <trkpt lat="48.76653" lon="6.16822">
        <ele>335.1</ele>
        <time>2021-07-29T14:32:19Z</time>
      </trkpt>
      <trkpt lat="48.76643" lon="6.16818">
        <ele>334.7</ele>
        <time>2021-07-29T14:32:21Z</time>
      </trkpt>
      <trkpt lat="48.76637" lon="6.16816">
        <ele>334.5</ele>
        <time>2021-07-29T14:32:22Z</time>
      </trkpt>
      <trkpt lat="48.76632" lon="6.16814">
        <ele>334.3</ele>
        <time>2021-07-29T14:32:23Z</time>
      </trkpt>
      <trkpt lat="48.76627" lon="6.16812">
        <ele>334.1</ele>
        <time>2021-07-29T14:32:24Z</time>
      </trkpt>
      <trkpt lat="48.76622" lon="6.16809">
        <ele>333.9</ele>
        <time>2021-07-29T14:32:25Z</time>
      </trkpt>
      <trkpt lat="48.7661" lon="6.16802">
        <ele>333.6</ele>
        <time>2021-07-29T14:32:27Z</time>
      </trkpt>
      <trkpt lat="48.76604" lon="6.16799">
        <ele>333.3</ele>
        <time>2021-07-29T14:32:28Z</time>
      </trkpt>
      <trkpt lat="48.76597" lon="6.16796">
        <ele>332.9</ele>
        <time>2021-07-29T14:32:29Z</time>
      </trkpt>
      <trkpt lat="48.76585" lon="6.16791">
        <ele>332.3</ele>
        <time>2021-07-29T14:32:31Z</time>
      </trkpt>
      <trkpt lat="48.76574" lon="6.16786">
        <ele>331.7</ele>
        <time>2021-07-29T14:32:33Z</time>
      </trkpt>
      <trkpt lat="48.76567" lon="6.16782">
        <ele>331.4</ele>
        <time>2021-07-29T14:32:34Z</time>
      </trkpt>
      <trkpt lat="48.76561" lon="6.16778">
        <ele>331.1</ele>
        <time>2021-07-29T14:32:35Z</time>
      </trkpt>
      <trkpt lat="48.7655" lon="6.16772">
        <ele>330.5</ele>
        <time>2021-07-29T14:32:37Z</time>
      </trkpt>
      <trkpt lat="48.76542" lon="6.16769">
        <ele>330.1</ele>
        <time>2021-07-29T14:32:39Z</time>
      </trkpt>
      <trkpt lat="48.76538" lon="6.16767">
        <ele>329.9</ele>
        <time>2021-07-29T14:32:40Z</time>
      </trkpt>
      <trkpt lat="48.76537" lon="6.16766">
        <ele>329.8</ele>
        <time>2021-07-29T14:32:41Z</time>
      </trkpt>
      <trkpt lat="48.76528" lon="6.16761">
        <ele>329.2</ele>
        <time>2021-07-29T14:32:43Z</time>
      </trkpt>
      <trkpt lat="48.76516" lon="6.16755">
        <ele>328.4</ele>
        <time>2021-07-29T14:32:45Z</time>
      </trkpt>
      <trkpt lat="48.76511" lon="6.16752">
        <ele>327.9</ele>
        <time>2021-07-29T14:32:46Z</time>
      </trkpt>
      <trkpt lat="48.76506" lon="6.1675">
        <ele>327.5</ele>
        <time>2021-07-29T14:32:47Z</time>
      </trkpt>
      <trkpt lat="48.76497" lon="6.16747">
        <ele>326.7</ele>
        <time>2021-07-29T14:32:49Z</time>
      </trkpt>
      <trkpt lat="48.76493" lon="6.16745">
        <ele>326.3</ele>
        <time>2021-07-29T14:32:50Z</time>
      </trkpt>
      <trkpt lat="48.76488" lon="6.16739">
        <ele>325.7</ele>
        <time>2021-07-29T14:32:52Z</time>
      </trkpt>
      <trkpt lat="48.76485" lon="6.16737">
        <ele>325.4</ele>
        <time>2021-07-29T14:32:53Z</time>
      </trkpt>
      <trkpt lat="48.76479" lon="6.16741">
        <ele>324.8</ele>
        <time>2021-07-29T14:32:55Z</time>
      </trkpt>
      <trkpt lat="48.76475" lon="6.16742">
        <ele>324.4</ele>
        <time>2021-07-29T14:32:56Z</time>
      </trkpt>
      <trkpt lat="48.76472" lon="6.16742">
        <ele>324.2</ele>
        <time>2021-07-29T14:32:57Z</time>
      </trkpt>
      <trkpt lat="48.76466" lon="6.16739">
        <ele>323.6</ele>
        <time>2021-07-29T14:32:59Z</time>
      </trkpt>
      <trkpt lat="48.76462" lon="6.16735">
        <ele>323.1</ele>
        <time>2021-07-29T14:33:00Z</time>
      </trkpt>
      <trkpt lat="48.7646" lon="6.16733">
        <ele>322.9</ele>
        <time>2021-07-29T14:33:01Z</time>
      </trkpt>
      <trkpt lat="48.76451" lon="6.16727">
        <ele>321.8</ele>
        <time>2021-07-29T14:33:03Z</time>
      </trkpt>
      <trkpt lat="48.76437" lon="6.16717">
        <ele>320.2</ele>
        <time>2021-07-29T14:33:04Z</time>
      </trkpt>
      <trkpt lat="48.76429" lon="6.16713">
        <ele>319.4</ele>
        <time>2021-07-29T14:33:05Z</time>
      </trkpt>
      <trkpt lat="48.7639" lon="6.16707">
        <ele>316.2</ele>
        <time>2021-07-29T14:33:09Z</time>
      </trkpt>
      <trkpt lat="48.7637" lon="6.16708">
        <ele>315.2</ele>
        <time>2021-07-29T14:33:11Z</time>
      </trkpt>
      <trkpt lat="48.76357" lon="6.16706">
        <ele>314.4</ele>
        <time>2021-07-29T14:33:13Z</time>
      </trkpt>
      <trkpt lat="48.76348" lon="6.16701">
        <ele>312.8</ele>
        <time>2021-07-29T14:33:15Z</time>
      </trkpt>
      <trkpt lat="48.76345" lon="6.16697">
        <ele>311.9</ele>
        <time>2021-07-29T14:33:16Z</time>
      </trkpt>
      <trkpt lat="48.76341" lon="6.16695">
        <ele>311.3</ele>
        <time>2021-07-29T14:33:17Z</time>
      </trkpt>
      <trkpt lat="48.76338" lon="6.16675">
        <ele>308.5</ele>
        <time>2021-07-29T14:33:19Z</time>
      </trkpt>
      <trkpt lat="48.76334" lon="6.16672">
        <ele>307.4</ele>
        <time>2021-07-29T14:33:21Z</time>
      </trkpt>
      <trkpt lat="48.76336" lon="6.16671">
        <ele>307.3</ele>
        <time>2021-07-29T14:33:22Z</time>
      </trkpt>
      <trkpt lat="48.76339" lon="6.16668">
        <ele>307.3</ele>
        <time>2021-07-29T14:33:24Z</time>
      </trkpt>
      <trkpt lat="48.76342" lon="6.16652">
        <ele>305.4</ele>
        <time>2021-07-29T14:33:25Z</time>
      </trkpt>
      <trkpt lat="48.76345" lon="6.16633">
        <ele>302.8</ele>
        <time>2021-07-29T14:33:26Z</time>
      </trkpt>
      <trkpt lat="48.76345" lon="6.16625">
        <ele>302.1</ele>
        <time>2021-07-29T14:33:27Z</time>
      </trkpt>
      <trkpt lat="48.76344" lon="6.16618">
        <ele>300.9</ele>
        <time>2021-07-29T14:33:29Z</time>
      </trkpt>
      <trkpt lat="48.76343" lon="6.16615">
        <ele>299.9</ele>
        <time>2021-07-29T14:33:30Z</time>
      </trkpt>
      <trkpt lat="48.76342" lon="6.16614">
        <ele>299.6</ele>
        <time>2021-07-29T14:33:31Z</time>
      </trkpt>
      <trkpt lat="48.76311" lon="6.16508">
        <ele>284.7</ele>
        <time>2021-07-29T14:33:49Z</time>
      </trkpt>
      <trkpt lat="48.76311" lon="6.16497">
        <ele>283.4</ele>
        <time>2021-07-29T14:33:51Z</time>
      </trkpt>
      <trkpt lat="48.7631" lon="6.1649">
        <ele>282.2</ele>
        <time>2021-07-29T14:33:52Z</time>
      </trkpt>
      <trkpt lat="48.76308" lon="6.1648">
        <ele>280.8</ele>
        <time>2021-07-29T14:33:53Z</time>
      </trkpt>
      <trkpt lat="48.76307" lon="6.16474">
        <ele>279.5</ele>
        <time>2021-07-29T14:33:54Z</time>
      </trkpt>
      <trkpt lat="48.76305" lon="6.16468">
        <ele>278.5</ele>
        <time>2021-07-29T14:33:55Z</time>
      </trkpt>
      <trkpt lat="48.76301" lon="6.16466">
        <ele>277.5</ele>
        <time>2021-07-29T14:33:57Z</time>
      </trkpt>
      <trkpt lat="48.763" lon="6.16466">
        <ele>277.1</ele>
        <time>2021-07-29T14:33:58Z</time>
      </trkpt>
      <trkpt lat="48.76299" lon="6.16466">
        <ele>276.8</ele>
        <time>2021-07-29T14:33:59Z</time>
      </trkpt>
      <trkpt lat="48.76295" lon="6.16467">
        <ele>276.7</ele>
        <time>2021-07-29T14:34:00Z</time>
      </trkpt>
      <trkpt lat="48.76292" lon="6.16468">
        <ele>276.2</ele>
        <time>2021-07-29T14:34:01Z</time>
      </trkpt>
      <trkpt lat="48.76284" lon="6.16472">
        <ele>275.9</ele>
        <time>2021-07-29T14:34:03Z</time>
      </trkpt>
      <trkpt lat="48.76277" lon="6.16476">
        <ele>275.3</ele>
        <time>2021-07-29T14:34:04Z</time>
      </trkpt>
      <trkpt lat="48.76269" lon="6.16478">
        <ele>274.5</ele>
        <time>2021-07-29T14:34:05Z</time>
      </trkpt>
      <trkpt lat="48.76262" lon="6.16478">
        <ele>274</ele>
        <time>2021-07-29T14:34:06Z</time>
      </trkpt>
      <trkpt lat="48.76255" lon="6.16479">
        <ele>273.6</ele>
        <time>2021-07-29T14:34:07Z</time>
      </trkpt>
      <trkpt lat="48.76246" lon="6.1648">
        <ele>273.7</ele>
        <time>2021-07-29T14:34:09Z</time>
      </trkpt>
      <trkpt lat="48.7624" lon="6.16481">
        <ele>273.8</ele>
        <time>2021-07-29T14:34:10Z</time>
      </trkpt>
      <trkpt lat="48.76234" lon="6.16483">
        <ele>273.8</ele>
        <time>2021-07-29T14:34:11Z</time>
      </trkpt>
      <trkpt lat="48.76229" lon="6.16485">
        <ele>273.8</ele>
        <time>2021-07-29T14:34:13Z</time>
      </trkpt>
      <trkpt lat="48.76226" lon="6.16488">
        <ele>273.8</ele>
        <time>2021-07-29T14:34:14Z</time>
      </trkpt>
      <trkpt lat="48.76223" lon="6.1649">
        <ele>273.9</ele>
        <time>2021-07-29T14:34:15Z</time>
      </trkpt>
      <trkpt lat="48.76219" lon="6.16492">
        <ele>273.9</ele>
        <time>2021-07-29T14:34:17Z</time>
      </trkpt>
      <trkpt lat="48.76215" lon="6.16493">
        <ele>273.9</ele>
        <time>2021-07-29T14:34:18Z</time>
      </trkpt>
      <trkpt lat="48.76213" lon="6.16494">
        <ele>273.9</ele>
        <time>2021-07-29T14:34:19Z</time>
      </trkpt>
      <trkpt lat="48.7621" lon="6.16498">
        <ele>273.9</ele>
        <time>2021-07-29T14:34:21Z</time>
      </trkpt>
      <trkpt lat="48.76207" lon="6.165">
        <ele>273.9</ele>
        <time>2021-07-29T14:34:22Z</time>
      </trkpt>
      <trkpt lat="48.76204" lon="6.16503">
        <ele>274</ele>
        <time>2021-07-29T14:34:23Z</time>
      </trkpt>
      <trkpt lat="48.76202" lon="6.16506">
        <ele>274</ele>
        <time>2021-07-29T14:34:24Z</time>
      </trkpt>
      <trkpt lat="48.76198" lon="6.16509">
        <ele>274</ele>
        <time>2021-07-29T14:34:26Z</time>
      </trkpt>
      <trkpt lat="48.76195" lon="6.16513">
        <ele>273.9</ele>
        <time>2021-07-29T14:34:27Z</time>
      </trkpt>
      <trkpt lat="48.76192" lon="6.16515">
        <ele>273.9</ele>
        <time>2021-07-29T14:34:28Z</time>
      </trkpt>
      <trkpt lat="48.76187" lon="6.16517">
        <ele>273.8</ele>
        <time>2021-07-29T14:34:30Z</time>
      </trkpt>
      <trkpt lat="48.76184" lon="6.16519">
        <ele>273.8</ele>
        <time>2021-07-29T14:34:31Z</time>
      </trkpt>
      <trkpt lat="48.76181" lon="6.16521">
        <ele>273.7</ele>
        <time>2021-07-29T14:34:32Z</time>
      </trkpt>
      <trkpt lat="48.76174" lon="6.16523">
        <ele>273.7</ele>
        <time>2021-07-29T14:34:34Z</time>
      </trkpt>
      <trkpt lat="48.7617" lon="6.16524">
        <ele>274.2</ele>
        <time>2021-07-29T14:34:35Z</time>
      </trkpt>
      <trkpt lat="48.76165" lon="6.16526">
        <ele>274.3</ele>
        <time>2021-07-29T14:34:36Z</time>
      </trkpt>
      <trkpt lat="48.76161" lon="6.16527">
        <ele>274.3</ele>
        <time>2021-07-29T14:34:37Z</time>
      </trkpt>
      <trkpt lat="48.76154" lon="6.16528">
        <ele>274.5</ele>
        <time>2021-07-29T14:34:39Z</time>
      </trkpt>
      <trkpt lat="48.76151" lon="6.1653">
        <ele>274.6</ele>
        <time>2021-07-29T14:34:40Z</time>
      </trkpt>
      <trkpt lat="48.76148" lon="6.16532">
        <ele>274.6</ele>
        <time>2021-07-29T14:34:41Z</time>
      </trkpt>
      <trkpt lat="48.76143" lon="6.16533">
        <ele>274.7</ele>
        <time>2021-07-29T14:34:43Z</time>
      </trkpt>
      <trkpt lat="48.76138" lon="6.16533">
        <ele>274.8</ele>
        <time>2021-07-29T14:34:44Z</time>
      </trkpt>
      <trkpt lat="48.76134" lon="6.16534">
        <ele>274.9</ele>
        <time>2021-07-29T14:34:45Z</time>
      </trkpt>
      <trkpt lat="48.76131" lon="6.16534">
        <ele>274.9</ele>
        <time>2021-07-29T14:34:46Z</time>
      </trkpt>
      <trkpt lat="48.76127" lon="6.16536">
        <ele>275</ele>
        <time>2021-07-29T14:34:48Z</time>
      </trkpt>
      <trkpt lat="48.76124" lon="6.16537">
        <ele>275</ele>
        <time>2021-07-29T14:34:49Z</time>
      </trkpt>
      <trkpt lat="48.7612" lon="6.16535">
        <ele>275.1</ele>
        <time>2021-07-29T14:34:51Z</time>
      </trkpt>
      <trkpt lat="48.76118" lon="6.16535">
        <ele>275.1</ele>
        <time>2021-07-29T14:34:52Z</time>
      </trkpt>
      <trkpt lat="48.76118" lon="6.16535">
        <ele>275.1</ele>
        <time>2021-07-29T14:34:54Z</time>
      </trkpt>
      <trkpt lat="48.76119" lon="6.16534">
        <ele>275.1</ele>
        <time>2021-07-29T14:34:55Z</time>
      </trkpt>
      <trkpt lat="48.7612" lon="6.16534">
        <ele>275.1</ele>
        <time>2021-07-29T14:34:57Z</time>
      </trkpt>
      <trkpt lat="48.7612" lon="6.16533">
        <ele>275.1</ele>
        <time>2021-07-29T14:34:58Z</time>
      </trkpt>
      <trkpt lat="48.76121" lon="6.16533">
        <ele>275.1</ele>
        <time>2021-07-29T14:35:00Z</time>
      </trkpt>
      <trkpt lat="48.76122" lon="6.16533">
        <ele>275.1</ele>
        <time>2021-07-29T14:35:01Z</time>
      </trkpt>
      <trkpt lat="48.76123" lon="6.16533">
        <ele>275.1</ele>
        <time>2021-07-29T14:35:03Z</time>
      </trkpt>
      <trkpt lat="48.76129" lon="6.16485">
        <ele>275</ele>
        <time>2021-07-29T14:36:16Z</time>
      </trkpt>
      <trkpt lat="48.76133" lon="6.16485">
        <ele>274.8</ele>
        <time>2021-07-29T14:36:18Z</time>
      </trkpt>
      <trkpt lat="48.76139" lon="6.16485">
        <ele>274.6</ele>
        <time>2021-07-29T14:36:19Z</time>
      </trkpt>
      <trkpt lat="48.76145" lon="6.16482">
        <ele>274.4</ele>
        <time>2021-07-29T14:36:20Z</time>
      </trkpt>
      <trkpt lat="48.76151" lon="6.16478">
        <ele>274.1</ele>
        <time>2021-07-29T14:36:21Z</time>
      </trkpt>
      <trkpt lat="48.76156" lon="6.16475">
        <ele>273.9</ele>
        <time>2021-07-29T14:36:22Z</time>
      </trkpt>
      <trkpt lat="48.76161" lon="6.16473">
        <ele>273.7</ele>
        <time>2021-07-29T14:36:23Z</time>
      </trkpt>
      <trkpt lat="48.76169" lon="6.16469">
        <ele>273.6</ele>
        <time>2021-07-29T14:36:25Z</time>
      </trkpt>
      <trkpt lat="48.76173" lon="6.16467">
        <ele>273.6</ele>
        <time>2021-07-29T14:36:26Z</time>
      </trkpt>
      <trkpt lat="48.76177" lon="6.16466">
        <ele>273.7</ele>
        <time>2021-07-29T14:36:27Z</time>
      </trkpt>
      <trkpt lat="48.7618" lon="6.16465">
        <ele>273.7</ele>
        <time>2021-07-29T14:36:28Z</time>
      </trkpt>
      <trkpt lat="48.76183" lon="6.16466">
        <ele>273.7</ele>
        <time>2021-07-29T14:36:29Z</time>
      </trkpt>
      <trkpt lat="48.76188" lon="6.16467">
        <ele>273.7</ele>
        <time>2021-07-29T14:36:31Z</time>
      </trkpt>
      <trkpt lat="48.76192" lon="6.16468">
        <ele>273.8</ele>
        <time>2021-07-29T14:36:32Z</time>
      </trkpt>
      <trkpt lat="48.76195" lon="6.16468">
        <ele>273.8</ele>
        <time>2021-07-29T14:36:33Z</time>
      </trkpt>
      <trkpt lat="48.76196" lon="6.16469">
        <ele>273.8</ele>
        <time>2021-07-29T14:36:34Z</time>
      </trkpt>
      <trkpt lat="48.76202" lon="6.1647">
        <ele>273.8</ele>
        <time>2021-07-29T14:36:36Z</time>
      </trkpt>
      <trkpt lat="48.76203" lon="6.16471">
        <ele>273.9</ele>
        <time>2021-07-29T14:36:37Z</time>
      </trkpt>
      <trkpt lat="48.76206" lon="6.16471">
        <ele>273.9</ele>
        <time>2021-07-29T14:36:39Z</time>
      </trkpt>
      <trkpt lat="48.76211" lon="6.16469">
        <ele>273.9</ele>
        <time>2021-07-29T14:36:40Z</time>
      </trkpt>
      <trkpt lat="48.76218" lon="6.16468">
        <ele>273.9</ele>
        <time>2021-07-29T14:36:42Z</time>
      </trkpt>
      <trkpt lat="48.7622" lon="6.16468">
        <ele>274</ele>
        <time>2021-07-29T14:36:43Z</time>
      </trkpt>
      <trkpt lat="48.76225" lon="6.16466">
        <ele>274</ele>
        <time>2021-07-29T14:36:45Z</time>
      </trkpt>
      <trkpt lat="48.76228" lon="6.16464">
        <ele>274</ele>
        <time>2021-07-29T14:36:46Z</time>
      </trkpt>
      <trkpt lat="48.76231" lon="6.16462">
        <ele>274</ele>
        <time>2021-07-29T14:36:47Z</time>
      </trkpt>
      <trkpt lat="48.76236" lon="6.1646">
        <ele>274</ele>
        <time>2021-07-29T14:36:49Z</time>
      </trkpt>
      <trkpt lat="48.7624" lon="6.1646">
        <ele>273.9</ele>
        <time>2021-07-29T14:36:50Z</time>
      </trkpt>
      <trkpt lat="48.76244" lon="6.16459">
        <ele>273.9</ele>
        <time>2021-07-29T14:36:51Z</time>
      </trkpt>
      <trkpt lat="48.76246" lon="6.16456">
        <ele>273.9</ele>
        <time>2021-07-29T14:36:52Z</time>
      </trkpt>
      <trkpt lat="48.76247" lon="6.16453">
        <ele>273.9</ele>
        <time>2021-07-29T14:36:53Z</time>
      </trkpt>
      <trkpt lat="48.76245" lon="6.1645">
        <ele>273.9</ele>
        <time>2021-07-29T14:36:55Z</time>
      </trkpt>
      <trkpt lat="48.76245" lon="6.16446">
        <ele>273.9</ele>
        <time>2021-07-29T14:36:56Z</time>
      </trkpt>
      <trkpt lat="48.76245" lon="6.16445">
        <ele>273.9</ele>
        <time>2021-07-29T14:36:57Z</time>
      </trkpt>
      <trkpt lat="48.76246" lon="6.1644">
        <ele>273.9</ele>
        <time>2021-07-29T14:36:59Z</time>
      </trkpt>
      <trkpt lat="48.76247" lon="6.16437">
        <ele>273.9</ele>
        <time>2021-07-29T14:37:00Z</time>
      </trkpt>
      <trkpt lat="48.7625" lon="6.16433">
        <ele>273.9</ele>
        <time>2021-07-29T14:37:02Z</time>
      </trkpt>
      <trkpt lat="48.76253" lon="6.16429">
        <ele>273.9</ele>
        <time>2021-07-29T14:37:03Z</time>
      </trkpt>
      <trkpt lat="48.76256" lon="6.16425">
        <ele>273.8</ele>
        <time>2021-07-29T14:37:04Z</time>
      </trkpt>
      <trkpt lat="48.76258" lon="6.16422">
        <ele>273.8</ele>
        <time>2021-07-29T14:37:05Z</time>
      </trkpt>
      <trkpt lat="48.76262" lon="6.16418">
        <ele>273.8</ele>
        <time>2021-07-29T14:37:07Z</time>
      </trkpt>
      <trkpt lat="48.76265" lon="6.16416">
        <ele>273.8</ele>
        <time>2021-07-29T14:37:08Z</time>
      </trkpt>
      <trkpt lat="48.76268" lon="6.16415">
        <ele>273.8</ele>
        <time>2021-07-29T14:37:09Z</time>
      </trkpt>
      <trkpt lat="48.7627" lon="6.16413">
        <ele>273.8</ele>
        <time>2021-07-29T14:37:11Z</time>
      </trkpt>
      <trkpt lat="48.76272" lon="6.1641">
        <ele>273.8</ele>
        <time>2021-07-29T14:37:12Z</time>
      </trkpt>
      <trkpt lat="48.76272" lon="6.16407">
        <ele>273.8</ele>
        <time>2021-07-29T14:37:13Z</time>
      </trkpt>
      <trkpt lat="48.76271" lon="6.16404">
        <ele>273.8</ele>
        <time>2021-07-29T14:37:15Z</time>
      </trkpt>
      <trkpt lat="48.76266" lon="6.16404">
        <ele>273.8</ele>
        <time>2021-07-29T14:37:17Z</time>
      </trkpt>
      <trkpt lat="48.76261" lon="6.16405">
        <ele>273.7</ele>
        <time>2021-07-29T14:37:18Z</time>
      </trkpt>
      <trkpt lat="48.76259" lon="6.16406">
        <ele>273.7</ele>
        <time>2021-07-29T14:37:19Z</time>
      </trkpt>
      <trkpt lat="48.76256" lon="6.16411">
        <ele>273.7</ele>
        <time>2021-07-29T14:37:21Z</time>
      </trkpt>
      <trkpt lat="48.76254" lon="6.16415">
        <ele>273.7</ele>
        <time>2021-07-29T14:37:22Z</time>
      </trkpt>
      <trkpt lat="48.76252" lon="6.16418">
        <ele>273.7</ele>
        <time>2021-07-29T14:37:23Z</time>
      </trkpt>
      <trkpt lat="48.76249" lon="6.16423">
        <ele>273.6</ele>
        <time>2021-07-29T14:37:25Z</time>
      </trkpt>
      <trkpt lat="48.76247" lon="6.16427">
        <ele>273.6</ele>
        <time>2021-07-29T14:37:26Z</time>
      </trkpt>
      <trkpt lat="48.76247" lon="6.16428">
        <ele>273.6</ele>
        <time>2021-07-29T14:37:27Z</time>
      </trkpt>
      <trkpt lat="48.76246" lon="6.16431">
        <ele>273.6</ele>
        <time>2021-07-29T14:37:28Z</time>
      </trkpt>
      <trkpt lat="48.76243" lon="6.16436">
        <ele>273.5</ele>
        <time>2021-07-29T14:37:30Z</time>
      </trkpt>
      <trkpt lat="48.76243" lon="6.16435">
        <ele>273.5</ele>
        <time>2021-07-29T14:37:31Z</time>
      </trkpt>
      <trkpt lat="48.76243" lon="6.16435">
        <ele>273.5</ele>
        <time>2021-07-29T14:37:32Z</time>
      </trkpt>
      <trkpt lat="48.76243" lon="6.16435">
        <ele>273.5</ele>
        <time>2021-07-29T14:37:33Z</time>
      </trkpt>
      <trkpt lat="48.76243" lon="6.16435">
        <ele>273.5</ele>
        <time>2021-07-29T14:37:35Z</time>
      </trkpt>
      <trkpt lat="48.76243" lon="6.16436">
        <ele>273.5</ele>
        <time>2021-07-29T14:37:37Z</time>
      </trkpt>
      <trkpt lat="48.76243" lon="6.16436">
        <ele>273.5</ele>
        <time>2021-07-29T14:37:39Z</time>
      </trkpt>
      <trkpt lat="48.76243" lon="6.16435">
        <ele>273.5</ele>
        <time>2021-07-29T14:37:40Z</time>
      </trkpt>
      <trkpt lat="48.76239" lon="6.16412">
        <ele>273.4</ele>
        <time>2021-07-29T14:48:01Z</time>
      </trkpt>
      <trkpt lat="48.76241" lon="6.16415">
        <ele>273.8</ele>
        <time>2021-07-29T14:48:07Z</time>
      </trkpt>
      <trkpt lat="48.76243" lon="6.16418">
        <ele>273.8</ele>
        <time>2021-07-29T14:49:03Z</time>
      </trkpt>
      <trkpt lat="48.76243" lon="6.16419">
        <ele>274.3</ele>
        <time>2021-07-29T14:49:09Z</time>
      </trkpt>
      <trkpt lat="48.76244" lon="6.1642">
        <ele>274.3</ele>
        <time>2021-07-29T14:49:16Z</time>
      </trkpt>
      <trkpt lat="48.76243" lon="6.16418">
        <ele>273.8</ele>
        <time>2021-07-29T14:49:53Z</time>
      </trkpt>
      <trkpt lat="48.76243" lon="6.16418">
        <ele>273.8</ele>
        <time>2021-07-29T14:50:11Z</time>
      </trkpt>
      <trkpt lat="48.76243" lon="6.16419">
        <ele>273.8</ele>
        <time>2021-07-29T14:50:18Z</time>
      </trkpt>
      <trkpt lat="48.76244" lon="6.16419">
        <ele>274.3</ele>
        <time>2021-07-29T14:50:24Z</time>
      </trkpt>
      <trkpt lat="48.76252" lon="6.16456">
        <ele>277.6</ele>
        <time>2021-07-29T14:50:35Z</time>
      </trkpt>
      <trkpt lat="48.76252" lon="6.16463">
        <ele>278.5</ele>
        <time>2021-07-29T14:50:36Z</time>
      </trkpt>
      <trkpt lat="48.76253" lon="6.16471">
        <ele>279.5</ele>
        <time>2021-07-29T14:50:38Z</time>
      </trkpt>
      <trkpt lat="48.76254" lon="6.16476">
        <ele>280</ele>
        <time>2021-07-29T14:50:39Z</time>
      </trkpt>
      <trkpt lat="48.76256" lon="6.1648">
        <ele>280.4</ele>
        <time>2021-07-29T14:50:40Z</time>
      </trkpt>
      <trkpt lat="48.76257" lon="6.16482">
        <ele>280.4</ele>
        <time>2021-07-29T14:50:41Z</time>
      </trkpt>
      <trkpt lat="48.76257" lon="6.16483">
        <ele>280.4</ele>
        <time>2021-07-29T14:50:42Z</time>
      </trkpt>
      <trkpt lat="48.76258" lon="6.16483">
        <ele>280.4</ele>
        <time>2021-07-29T14:50:44Z</time>
      </trkpt>
      <trkpt lat="48.76258" lon="6.16482">
        <ele>280.4</ele>
        <time>2021-07-29T14:50:45Z</time>
      </trkpt>
      <trkpt lat="48.76249" lon="6.1643">
        <ele>275.2</ele>
        <time>2021-07-29T15:22:43Z</time>
      </trkpt>
      <trkpt lat="48.76239" lon="6.16413">
        <ele>273.4</ele>
        <time>2021-07-29T15:24:29Z</time>
      </trkpt>
      <trkpt lat="48.76239" lon="6.16413">
        <ele>273.4</ele>
        <time>2021-07-29T15:24:35Z</time>
      </trkpt>
      <trkpt lat="48.7624" lon="6.16415">
        <ele>273.8</ele>
        <time>2021-07-29T15:24:41Z</time>
      </trkpt>
      <trkpt lat="48.76242" lon="6.16416">
        <ele>273.8</ele>
        <time>2021-07-29T15:24:47Z</time>
      </trkpt>
      <trkpt lat="48.76238" lon="6.1641">
        <ele>272.9</ele>
        <time>2021-07-29T15:24:54Z</time>
      </trkpt>
      <trkpt lat="48.76241" lon="6.16415">
        <ele>273.8</ele>
        <time>2021-07-29T15:25:00Z</time>
      </trkpt>
      <trkpt lat="48.76243" lon="6.16418">
        <ele>273.8</ele>
        <time>2021-07-29T15:25:06Z</time>
      </trkpt>
      <trkpt lat="48.76244" lon="6.16419">
        <ele>274.3</ele>
        <time>2021-07-29T15:25:13Z</time>
      </trkpt>
      <trkpt lat="48.76244" lon="6.1642">
        <ele>274.3</ele>
        <time>2021-07-29T15:25:19Z</time>
      </trkpt>
      <trkpt lat="48.76244" lon="6.1642">
        <ele>274.3</ele>
        <time>2021-07-29T15:25:38Z</time>
      </trkpt>
      <trkpt lat="48.76288" lon="6.16516">
        <ele>285.8</ele>
        <time>2021-07-29T15:28:10Z</time>
      </trkpt>
      <trkpt lat="48.76286" lon="6.16522">
        <ele>286</ele>
        <time>2021-07-29T15:28:12Z</time>
      </trkpt>
      <trkpt lat="48.76285" lon="6.16525">
        <ele>286.5</ele>
        <time>2021-07-29T15:28:13Z</time>
      </trkpt>
      <trkpt lat="48.76284" lon="6.16528">
        <ele>286.9</ele>
        <time>2021-07-29T15:28:15Z</time>
      </trkpt>
      <trkpt lat="48.76284" lon="6.1653">
        <ele>286.9</ele>
        <time>2021-07-29T15:28:16Z</time>
      </trkpt>
      <trkpt lat="48.76284" lon="6.16535">
        <ele>287.8</ele>
        <time>2021-07-29T15:28:18Z</time>
      </trkpt>
      <trkpt lat="48.76284" lon="6.16538">
        <ele>287.8</ele>
        <time>2021-07-29T15:28:19Z</time>
      </trkpt>
      <trkpt lat="48.76284" lon="6.16539">
        <ele>287.8</ele>
        <time>2021-07-29T15:28:20Z</time>
      </trkpt>
      <trkpt lat="48.76284" lon="6.16541">
        <ele>288.3</ele>
        <time>2021-07-29T15:28:22Z</time>
      </trkpt>
      <trkpt lat="48.76284" lon="6.16543">
        <ele>288.3</ele>
        <time>2021-07-29T15:28:23Z</time>
      </trkpt>
      <trkpt lat="48.76285" lon="6.16546">
        <ele>288.8</ele>
        <time>2021-07-29T15:28:24Z</time>
      </trkpt>
      <trkpt lat="48.76286" lon="6.16551">
        <ele>289.3</ele>
        <time>2021-07-29T15:28:26Z</time>
      </trkpt>
      <trkpt lat="48.76287" lon="6.16553">
        <ele>289.9</ele>
        <time>2021-07-29T15:28:27Z</time>
      </trkpt>
      <trkpt lat="48.76287" lon="6.16554">
        <ele>290.2</ele>
        <time>2021-07-29T15:28:28Z</time>
      </trkpt>
      <trkpt lat="48.76287" lon="6.16555">
        <ele>290.2</ele>
        <time>2021-07-29T15:28:30Z</time>
      </trkpt>
      <trkpt lat="48.76287" lon="6.16555">
        <ele>290.2</ele>
        <time>2021-07-29T15:28:31Z</time>
      </trkpt>
      <trkpt lat="48.76287" lon="6.16557">
        <ele>290.8</ele>
        <time>2021-07-29T15:28:32Z</time>
      </trkpt>
      <trkpt lat="48.76287" lon="6.16559">
        <ele>290.8</ele>
        <time>2021-07-29T15:28:33Z</time>
      </trkpt>
      <trkpt lat="48.76287" lon="6.16562">
        <ele>291.4</ele>
        <time>2021-07-29T15:28:35Z</time>
      </trkpt>
      <trkpt lat="48.76286" lon="6.16564">
        <ele>291.1</ele>
        <time>2021-07-29T15:28:36Z</time>
      </trkpt>
      <trkpt lat="48.76286" lon="6.16565">
        <ele>291.7</ele>
        <time>2021-07-29T15:28:38Z</time>
      </trkpt>
      <trkpt lat="48.76286" lon="6.16566">
        <ele>291.7</ele>
        <time>2021-07-29T15:28:39Z</time>
      </trkpt>
      <trkpt lat="48.76285" lon="6.16567">
        <ele>291.7</ele>
        <time>2021-07-29T15:28:40Z</time>
      </trkpt>
      <trkpt lat="48.76285" lon="6.16568">
        <ele>291.7</ele>
        <time>2021-07-29T15:28:41Z</time>
      </trkpt>
      <trkpt lat="48.76284" lon="6.16572">
        <ele>292.2</ele>
        <time>2021-07-29T15:28:43Z</time>
      </trkpt>
      <trkpt lat="48.76284" lon="6.16575">
        <ele>292.8</ele>
        <time>2021-07-29T15:28:44Z</time>
      </trkpt>
      <trkpt lat="48.76284" lon="6.1658">
        <ele>293</ele>
        <time>2021-07-29T15:28:46Z</time>
      </trkpt>
      <trkpt lat="48.76284" lon="6.16582">
        <ele>293.5</ele>
        <time>2021-07-29T15:28:47Z</time>
      </trkpt>
      <trkpt lat="48.76283" lon="6.16586">
        <ele>294</ele>
        <time>2021-07-29T15:28:49Z</time>
      </trkpt>
      <trkpt lat="48.76283" lon="6.16589">
        <ele>294</ele>
        <time>2021-07-29T15:28:50Z</time>
      </trkpt>
      <trkpt lat="48.76281" lon="6.16592">
        <ele>294.5</ele>
        <time>2021-07-29T15:28:52Z</time>
      </trkpt>
      <trkpt lat="48.76282" lon="6.1659">
        <ele>294</ele>
        <time>2021-07-29T15:28:53Z</time>
      </trkpt>
      <trkpt lat="48.76283" lon="6.16586">
        <ele>293.5</ele>
        <time>2021-07-29T15:28:55Z</time>
      </trkpt>
      <trkpt lat="48.76284" lon="6.16583">
        <ele>293.8</ele>
        <time>2021-07-29T15:28:56Z</time>
      </trkpt>
      <trkpt lat="48.76286" lon="6.16579">
        <ele>293.3</ele>
        <time>2021-07-29T15:28:58Z</time>
      </trkpt>
      <trkpt lat="48.76287" lon="6.16576">
        <ele>293.1</ele>
        <time>2021-07-29T15:28:59Z</time>
      </trkpt>
      <trkpt lat="48.76288" lon="6.16573">
        <ele>292.5</ele>
        <time>2021-07-29T15:29:00Z</time>
      </trkpt>
      <trkpt lat="48.7629" lon="6.16569">
        <ele>292.8</ele>
        <time>2021-07-29T15:29:02Z</time>
      </trkpt>
      <trkpt lat="48.76291" lon="6.16566">
        <ele>292.3</ele>
        <time>2021-07-29T15:29:03Z</time>
      </trkpt>
      <trkpt lat="48.76292" lon="6.16563">
        <ele>292</ele>
        <time>2021-07-29T15:31:33Z</time>
      </trkpt>
      <trkpt lat="48.76294" lon="6.16559">
        <ele>291.4</ele>
        <time>2021-07-29T15:31:34Z</time>
      </trkpt>
      <trkpt lat="48.76295" lon="6.16556">
        <ele>290.7</ele>
        <time>2021-07-29T15:31:35Z</time>
      </trkpt>
      <trkpt lat="48.76294" lon="6.16554">
        <ele>290.7</ele>
        <time>2021-07-29T15:31:36Z</time>
      </trkpt>
      <trkpt lat="48.76294" lon="6.16551">
        <ele>290.1</ele>
        <time>2021-07-29T15:31:37Z</time>
      </trkpt>
      <trkpt lat="48.76293" lon="6.16549">
        <ele>290.1</ele>
        <time>2021-07-29T15:31:38Z</time>
      </trkpt>
      <trkpt lat="48.76293" lon="6.16546">
        <ele>289.5</ele>
        <time>2021-07-29T15:31:39Z</time>
      </trkpt>
      <trkpt lat="48.76293" lon="6.16545">
        <ele>289.5</ele>
        <time>2021-07-29T15:31:40Z</time>
      </trkpt>
      <trkpt lat="48.76293" lon="6.16545">
        <ele>289.5</ele>
        <time>2021-07-29T15:31:41Z</time>
      </trkpt>
      <trkpt lat="48.76293" lon="6.16543">
        <ele>288.9</ele>
        <time>2021-07-29T15:31:42Z</time>
      </trkpt>
      <trkpt lat="48.76292" lon="6.16541">
        <ele>288.9</ele>
        <time>2021-07-29T15:31:44Z</time>
      </trkpt>
      <trkpt lat="48.76292" lon="6.16539">
        <ele>288.2</ele>
        <time>2021-07-29T15:31:45Z</time>
      </trkpt>
      <trkpt lat="48.76291" lon="6.16537">
        <ele>288.2</ele>
        <time>2021-07-29T15:31:46Z</time>
      </trkpt>
      <trkpt lat="48.7629" lon="6.16533">
        <ele>287.8</ele>
        <time>2021-07-29T15:31:47Z</time>
      </trkpt>
      <trkpt lat="48.7629" lon="6.16532">
        <ele>287.8</ele>
        <time>2021-07-29T15:31:48Z</time>
      </trkpt>
      <trkpt lat="48.7629" lon="6.16531">
        <ele>287.8</ele>
        <time>2021-07-29T15:31:49Z</time>
      </trkpt>
      <trkpt lat="48.7629" lon="6.1653">
        <ele>287.3</ele>
        <time>2021-07-29T15:31:51Z</time>
      </trkpt>
      <trkpt lat="48.76289" lon="6.16528">
        <ele>287.3</ele>
        <time>2021-07-29T15:31:52Z</time>
      </trkpt>
      <trkpt lat="48.76289" lon="6.16524">
        <ele>286.9</ele>
        <time>2021-07-29T15:31:54Z</time>
      </trkpt>
      <trkpt lat="48.76289" lon="6.16519">
        <ele>286.3</ele>
        <time>2021-07-29T15:31:55Z</time>
      </trkpt>
      <trkpt lat="48.76289" lon="6.16518">
        <ele>286.3</ele>
        <time>2021-07-29T15:31:56Z</time>
      </trkpt>
      <trkpt lat="48.7629" lon="6.16513">
        <ele>285.6</ele>
        <time>2021-07-29T15:31:58Z</time>
      </trkpt>
      <trkpt lat="48.7629" lon="6.16512">
        <ele>285.6</ele>
        <time>2021-07-29T15:31:59Z</time>
      </trkpt>
      <trkpt lat="48.7629" lon="6.1651">
        <ele>285.6</ele>
        <time>2021-07-29T15:32:00Z</time>
      </trkpt>
      <trkpt lat="48.7629" lon="6.16507">
        <ele>285.1</ele>
        <time>2021-07-29T15:32:02Z</time>
      </trkpt>
      <trkpt lat="48.76289" lon="6.16505">
        <ele>284.4</ele>
        <time>2021-07-29T15:32:03Z</time>
      </trkpt>
      <trkpt lat="48.76289" lon="6.16502">
        <ele>284.4</ele>
        <time>2021-07-29T15:32:04Z</time>
      </trkpt>
      <trkpt lat="48.76288" lon="6.16497">
        <ele>284</ele>
        <time>2021-07-29T15:32:05Z</time>
      </trkpt>
      <trkpt lat="48.76288" lon="6.16496">
        <ele>284</ele>
        <time>2021-07-29T15:32:06Z</time>
      </trkpt>
      <trkpt lat="48.76287" lon="6.16494">
        <ele>283.5</ele>
        <time>2021-07-29T15:32:07Z</time>
      </trkpt>
      <trkpt lat="48.76286" lon="6.16491">
        <ele>282.9</ele>
        <time>2021-07-29T15:32:09Z</time>
      </trkpt>
      <trkpt lat="48.76284" lon="6.16487">
        <ele>282.5</ele>
        <time>2021-07-29T15:32:10Z</time>
      </trkpt>
      <trkpt lat="48.76284" lon="6.16486">
        <ele>282.5</ele>
        <time>2021-07-29T15:32:11Z</time>
      </trkpt>
      <trkpt lat="48.76283" lon="6.16484">
        <ele>282.2</ele>
        <time>2021-07-29T15:32:13Z</time>
      </trkpt>
      <trkpt lat="48.76282" lon="6.16482">
        <ele>281.8</ele>
        <time>2021-07-29T15:32:15Z</time>
      </trkpt>
      <trkpt lat="48.76281" lon="6.1648">
        <ele>281.8</ele>
        <time>2021-07-29T15:32:16Z</time>
      </trkpt>
      <trkpt lat="48.76281" lon="6.1648">
        <ele>281.5</ele>
        <time>2021-07-29T15:32:17Z</time>
      </trkpt>
      <trkpt lat="48.7628" lon="6.1648">
        <ele>281.5</ele>
        <time>2021-07-29T15:32:19Z</time>
      </trkpt>
      <trkpt lat="48.7628" lon="6.16481">
        <ele>281.5</ele>
        <time>2021-07-29T15:32:21Z</time>
      </trkpt>
      <trkpt lat="48.76281" lon="6.16481">
        <ele>281.5</ele>
        <time>2021-07-29T15:32:23Z</time>
      </trkpt>
      <trkpt lat="48.76281" lon="6.16481">
        <ele>281.5</ele>
        <time>2021-07-29T15:32:24Z</time>
      </trkpt>
      <trkpt lat="48.76281" lon="6.16481">
        <ele>281.5</ele>
        <time>2021-07-29T15:32:25Z</time>
      </trkpt>
      <trkpt lat="48.76281" lon="6.1648">
        <ele>281.5</ele>
        <time>2021-07-29T15:32:27Z</time>
      </trkpt>
      <trkpt lat="48.76281" lon="6.1648">
        <ele>281.8</ele>
        <time>2021-07-29T15:32:28Z</time>
      </trkpt>
      <trkpt lat="48.76281" lon="6.16479">
        <ele>281.8</ele>
        <time>2021-07-29T15:32:29Z</time>
      </trkpt>
      <trkpt lat="48.76281" lon="6.16479">
        <ele>281.8</ele>
        <time>2021-07-29T15:32:31Z</time>
      </trkpt>
      <trkpt lat="48.76259" lon="6.16468">
        <ele>279.1</ele>
        <time>2021-07-29T15:32:51Z</time>
      </trkpt>
      <trkpt lat="48.76259" lon="6.1647">
        <ele>279.1</ele>
        <time>2021-07-29T15:32:52Z</time>
      </trkpt>
      <trkpt lat="48.76258" lon="6.16471">
        <ele>279.5</ele>
        <time>2021-07-29T15:32:53Z</time>
      </trkpt>
      <trkpt lat="48.76258" lon="6.16471">
        <ele>279.5</ele>
        <time>2021-07-29T15:32:54Z</time>
      </trkpt>
      <trkpt lat="48.76258" lon="6.16471">
        <ele>279.5</ele>
        <time>2021-07-29T15:32:55Z</time>
      </trkpt>
      <trkpt lat="48.76258" lon="6.16472">
        <ele>279.5</ele>
        <time>2021-07-29T15:32:56Z</time>
      </trkpt>
      <trkpt lat="48.76258" lon="6.16472">
        <ele>279.5</ele>
        <time>2021-07-29T15:32:57Z</time>
      </trkpt>
      <trkpt lat="48.76259" lon="6.16472">
        <ele>279.6</ele>
        <time>2021-07-29T15:32:59Z</time>
      </trkpt>
      <trkpt lat="48.76259" lon="6.16471">
        <ele>279.6</ele>
        <time>2021-07-29T15:33:01Z</time>
      </trkpt>
      <trkpt lat="48.76259" lon="6.16471">
        <ele>279.6</ele>
        <time>2021-07-29T15:33:02Z</time>
      </trkpt>
      <trkpt lat="48.76237" lon="6.16407">
        <ele>272.9</ele>
        <time>2021-07-29T15:34:09Z</time>
      </trkpt>
      <trkpt lat="48.76244" lon="6.16423">
        <ele>274.7</ele>
        <time>2021-07-29T15:35:53Z</time>
      </trkpt>
      <trkpt lat="48.76246" lon="6.16427">
        <ele>274.8</ele>
        <time>2021-07-29T15:35:55Z</time>
      </trkpt>
      <trkpt lat="48.76248" lon="6.16431">
        <ele>275.2</ele>
        <time>2021-07-29T15:35:56Z</time>
      </trkpt>
      <trkpt lat="48.7625" lon="6.16433">
        <ele>275.6</ele>
        <time>2021-07-29T15:35:58Z</time>
      </trkpt>
      <trkpt lat="48.7625" lon="6.16434">
        <ele>275.6</ele>
        <time>2021-07-29T15:35:59Z</time>
      </trkpt>
      <trkpt lat="48.76251" lon="6.16437">
        <ele>276</ele>
        <time>2021-07-29T15:36:01Z</time>
      </trkpt>
      <trkpt lat="48.76251" lon="6.16438">
        <ele>276</ele>
        <time>2021-07-29T15:36:02Z</time>
      </trkpt>
      <trkpt lat="48.76251" lon="6.16438">
        <ele>276</ele>
        <time>2021-07-29T15:36:03Z</time>
      </trkpt>
      <trkpt lat="48.76251" lon="6.16438">
        <ele>276</ele>
        <time>2021-07-29T15:36:04Z</time>
      </trkpt>
      <trkpt lat="48.76251" lon="6.16438">
        <ele>276</ele>
        <time>2021-07-29T15:36:06Z</time>
      </trkpt>
      <trkpt lat="48.76251" lon="6.16438">
        <ele>276</ele>
        <time>2021-07-29T15:36:08Z</time>
      </trkpt>
      <trkpt lat="48.76252" lon="6.16438">
        <ele>276</ele>
        <time>2021-07-29T15:36:09Z</time>
      </trkpt>
      <trkpt lat="48.76252" lon="6.16438">
        <ele>276</ele>
        <time>2021-07-29T15:36:10Z</time>
      </trkpt>
      <trkpt lat="48.76252" lon="6.16438">
        <ele>276</ele>
        <time>2021-07-29T15:36:11Z</time>
      </trkpt>
      <trkpt lat="48.76252" lon="6.16439">
        <ele>276</ele>
        <time>2021-07-29T15:36:13Z</time>
      </trkpt>
      <trkpt lat="48.76252" lon="6.16439">
        <ele>276</ele>
        <time>2021-07-29T15:36:14Z</time>
      </trkpt>
      <trkpt lat="48.76252" lon="6.16439">
        <ele>276</ele>
        <time>2021-07-29T15:36:15Z</time>
      </trkpt>
      <trkpt lat="48.76252" lon="6.16439">
        <ele>276</ele>
        <time>2021-07-29T15:36:17Z</time>
      </trkpt>
      <trkpt lat="48.76252" lon="6.16439">
        <ele>276</ele>
        <time>2021-07-29T15:36:19Z</time>
      </trkpt>
      <trkpt lat="48.76252" lon="6.16439">
        <ele>276</ele>
        <time>2021-07-29T15:36:20Z</time>
      </trkpt>
      <trkpt lat="48.76252" lon="6.16439">
        <ele>276</ele>
        <time>2021-07-29T15:36:21Z</time>
      </trkpt>
      <trkpt lat="48.76252" lon="6.16439">
        <ele>276</ele>
        <time>2021-07-29T15:36:23Z</time>
      </trkpt>
      <trkpt lat="48.76252" lon="6.16439">
        <ele>276</ele>
        <time>2021-07-29T15:36:25Z</time>
      </trkpt>
      <trkpt lat="48.76252" lon="6.16439">
        <ele>276</ele>
        <time>2021-07-29T15:36:26Z</time>
      </trkpt>
      <trkpt lat="48.76252" lon="6.16439">
        <ele>276</ele>
        <time>2021-07-29T15:36:28Z</time>
      </trkpt>
      <trkpt lat="48.76252" lon="6.16439">
        <ele>276</ele>
        <time>2021-07-29T15:36:29Z</time>
      </trkpt>
      <trkpt lat="48.76252" lon="6.16439">
        <ele>276</ele>
        <time>2021-07-29T15:36:31Z</time>
      </trkpt>
      <trkpt lat="48.76252" lon="6.16439">
        <ele>276</ele>
        <time>2021-07-29T15:36:32Z</time>
      </trkpt>
      <trkpt lat="48.76252" lon="6.16439">
        <ele>276</ele>
        <time>2021-07-29T15:36:33Z</time>
      </trkpt>
      <trkpt lat="48.76252" lon="6.16439">
        <ele>276</ele>
        <time>2021-07-29T15:36:34Z</time>
      </trkpt>
      <trkpt lat="48.76252" lon="6.16439">
        <ele>276</ele>
        <time>2021-07-29T15:36:35Z</time>
      </trkpt>
      <trkpt lat="48.76252" lon="6.16439">
        <ele>276</ele>
        <time>2021-07-29T15:36:37Z</time>
      </trkpt>
      <trkpt lat="48.76252" lon="6.16439">
        <ele>276</ele>
        <time>2021-07-29T15:36:38Z</time>
      </trkpt>
      <trkpt lat="48.76252" lon="6.16438">
        <ele>276</ele>
        <time>2021-07-29T15:36:40Z</time>
      </trkpt>
      <trkpt lat="48.76251" lon="6.16438">
        <ele>276</ele>
        <time>2021-07-29T15:36:41Z</time>
      </trkpt>
      <trkpt lat="48.76251" lon="6.16438">
        <ele>276</ele>
        <time>2021-07-29T15:36:43Z</time>
      </trkpt>
      <trkpt lat="48.76252" lon="6.16438">
        <ele>276</ele>
        <time>2021-07-29T15:36:45Z</time>
      </trkpt>
      <trkpt lat="48.76252" lon="6.16439">
        <ele>276</ele>
        <time>2021-07-29T15:36:46Z</time>
      </trkpt>
      <trkpt lat="48.76252" lon="6.16439">
        <ele>276</ele>
        <time>2021-07-29T15:36:47Z</time>
      </trkpt>
      <trkpt lat="48.76252" lon="6.16439">
        <ele>276</ele>
        <time>2021-07-29T15:36:49Z</time>
      </trkpt>
      <trkpt lat="48.76252" lon="6.16439">
        <ele>276</ele>
        <time>2021-07-29T15:36:51Z</time>
      </trkpt>
      <trkpt lat="48.7625" lon="6.16443">
        <ele>276.4</ele>
        <time>2021-07-29T15:36:53Z</time>
      </trkpt>
      <trkpt lat="48.76249" lon="6.16443">
        <ele>276.4</ele>
        <time>2021-07-29T15:36:55Z</time>
      </trkpt>
      <trkpt lat="48.76249" lon="6.16444">
        <ele>276.4</ele>
        <time>2021-07-29T15:36:56Z</time>
      </trkpt>
      <trkpt lat="48.76249" lon="6.16444">
        <ele>276.4</ele>
        <time>2021-07-29T15:36:58Z</time>
      </trkpt>
      <trkpt lat="48.76249" lon="6.16445">
        <ele>276.8</ele>
        <time>2021-07-29T15:37:01Z</time>
      </trkpt>
      <trkpt lat="48.76248" lon="6.16446">
        <ele>276.8</ele>
        <time>2021-07-29T15:37:09Z</time>
      </trkpt>
      <trkpt lat="48.76247" lon="6.16446">
        <ele>276.8</ele>
        <time>2021-07-29T15:37:12Z</time>
      </trkpt>
      <trkpt lat="48.76247" lon="6.16446">
        <ele>276.8</ele>
        <time>2021-07-29T15:37:16Z</time>
      </trkpt>
      <trkpt lat="48.76247" lon="6.16447">
        <ele>276.8</ele>
        <time>2021-07-29T15:37:22Z</time>
      </trkpt>
      <trkpt lat="48.76245" lon="6.16448">
        <ele>276.8</ele>
        <time>2021-07-29T15:37:27Z</time>
      </trkpt>
      <trkpt lat="48.76244" lon="6.16448">
        <ele>276.8</ele>
        <time>2021-07-29T15:37:29Z</time>
      </trkpt>
      <trkpt lat="48.76244" lon="6.16447">
        <ele>276.8</ele>
        <time>2021-07-29T15:37:31Z</time>
      </trkpt>
      <trkpt lat="48.76244" lon="6.16447">
        <ele>276.8</ele>
        <time>2021-07-29T15:37:34Z</time>
      </trkpt>
      <trkpt lat="48.76244" lon="6.16447">
        <ele>276.8</ele>
        <time>2021-07-29T15:37:40Z</time>
      </trkpt>
      <trkpt lat="48.76244" lon="6.16447">
        <ele>276.8</ele>
        <time>2021-07-29T15:37:42Z</time>
      </trkpt>
      <trkpt lat="48.76243" lon="6.16446">
        <ele>276.8</ele>
        <time>2021-07-29T15:37:46Z</time>
      </trkpt>
      <trkpt lat="48.76243" lon="6.16418">
        <ele>273.8</ele>
        <time>2021-07-29T15:51:41Z</time>
      </trkpt>
      <trkpt lat="48.76258" lon="6.1643">
        <ele>275.3</ele>
        <time>2021-07-29T15:51:48Z</time>
      </trkpt>
      <trkpt lat="48.76255" lon="6.16188">
        <ele>260</ele>
        <time>2021-07-29T15:51:51Z</time>
      </trkpt>
      <trkpt lat="48.76255" lon="6.16188">
        <ele>260</ele>
        <time>2021-07-29T15:51:52Z</time>
      </trkpt>
      <trkpt lat="48.76255" lon="6.16188">
        <ele>260</ele>
        <time>2021-07-29T15:51:54Z</time>
      </trkpt>
      <trkpt lat="48.76255" lon="6.16189">
        <ele>260</ele>
        <time>2021-07-29T15:51:55Z</time>
      </trkpt>
      <trkpt lat="48.76255" lon="6.1619">
        <ele>260</ele>
        <time>2021-07-29T15:51:57Z</time>
      </trkpt>
      <trkpt lat="48.76255" lon="6.16191">
        <ele>260</ele>
        <time>2021-07-29T15:51:58Z</time>
      </trkpt>
      <trkpt lat="48.76255" lon="6.16193">
        <ele>260.1</ele>
        <time>2021-07-29T15:52:00Z</time>
      </trkpt>
      <trkpt lat="48.76255" lon="6.16195">
        <ele>260.1</ele>
        <time>2021-07-29T15:52:01Z</time>
      </trkpt>
      <trkpt lat="48.76255" lon="6.16199">
        <ele>260.3</ele>
        <time>2021-07-29T15:52:03Z</time>
      </trkpt>
      <trkpt lat="48.76255" lon="6.16209">
        <ele>260.7</ele>
        <time>2021-07-29T15:52:05Z</time>
      </trkpt>
      <trkpt lat="48.76256" lon="6.16216">
        <ele>261</ele>
        <time>2021-07-29T15:52:07Z</time>
      </trkpt>
      <trkpt lat="48.76256" lon="6.16223">
        <ele>261.2</ele>
        <time>2021-07-29T15:52:08Z</time>
      </trkpt>
      <trkpt lat="48.76256" lon="6.1623">
        <ele>261.6</ele>
        <time>2021-07-29T15:52:09Z</time>
      </trkpt>
      <trkpt lat="48.76256" lon="6.16238">
        <ele>261.8</ele>
        <time>2021-07-29T15:52:10Z</time>
      </trkpt>
      <trkpt lat="48.76257" lon="6.16255">
        <ele>262.9</ele>
        <time>2021-07-29T15:52:11Z</time>
      </trkpt>
      <trkpt lat="48.76257" lon="6.16272">
        <ele>263.8</ele>
        <time>2021-07-29T15:52:13Z</time>
      </trkpt>
      <trkpt lat="48.76258" lon="6.1629">
        <ele>264.3</ele>
        <time>2021-07-29T15:52:14Z</time>
      </trkpt>
      <trkpt lat="48.76258" lon="6.16307">
        <ele>264.6</ele>
        <time>2021-07-29T15:52:16Z</time>
      </trkpt>
      <trkpt lat="48.76259" lon="6.16324">
        <ele>265.3</ele>
        <time>2021-07-29T15:52:17Z</time>
      </trkpt>
      <trkpt lat="48.76259" lon="6.16341">
        <ele>267.1</ele>
        <time>2021-07-29T15:52:19Z</time>
      </trkpt>
      <trkpt lat="48.76259" lon="6.1638">
        <ele>270.2</ele>
        <time>2021-07-29T15:52:20Z</time>
      </trkpt>
      <trkpt lat="48.76259" lon="6.164">
        <ele>272.2</ele>
        <time>2021-07-29T15:52:21Z</time>
      </trkpt>
      <trkpt lat="48.76259" lon="6.16428">
        <ele>275.3</ele>
        <time>2021-07-29T15:52:23Z</time>
      </trkpt>
      <trkpt lat="48.7626" lon="6.16446">
        <ele>276.9</ele>
        <time>2021-07-29T15:52:25Z</time>
      </trkpt>
      <trkpt lat="48.7626" lon="6.16456">
        <ele>277.7</ele>
        <time>2021-07-29T15:52:26Z</time>
      </trkpt>
      <trkpt lat="48.7626" lon="6.1646">
        <ele>278.1</ele>
        <time>2021-07-29T15:52:27Z</time>
      </trkpt>
      <trkpt lat="48.7626" lon="6.16466">
        <ele>278.6</ele>
        <time>2021-07-29T15:52:28Z</time>
      </trkpt>
      <trkpt lat="48.7626" lon="6.16468">
        <ele>279.1</ele>
        <time>2021-07-29T15:52:29Z</time>
      </trkpt>
      <trkpt lat="48.76261" lon="6.1647">
        <ele>279.1</ele>
        <time>2021-07-29T15:52:30Z</time>
      </trkpt>
      <trkpt lat="48.76262" lon="6.16475">
        <ele>280.1</ele>
        <time>2021-07-29T15:52:32Z</time>
      </trkpt>
      <trkpt lat="48.76264" lon="6.16478">
        <ele>280.1</ele>
        <time>2021-07-29T15:52:33Z</time>
      </trkpt>
      <trkpt lat="48.76264" lon="6.16478">
        <ele>280.1</ele>
        <time>2021-07-29T15:52:35Z</time>
      </trkpt>
      <trkpt lat="48.76264" lon="6.16479">
        <ele>280.1</ele>
        <time>2021-07-29T15:52:36Z</time>
      </trkpt>
      <trkpt lat="48.76265" lon="6.1648">
        <ele>280.6</ele>
        <time>2021-07-29T15:52:38Z</time>
      </trkpt>
      <trkpt lat="48.76266" lon="6.16481">
        <ele>280.6</ele>
        <time>2021-07-29T15:52:39Z</time>
      </trkpt>
      <trkpt lat="48.76266" lon="6.16481">
        <ele>280.6</ele>
        <time>2021-07-29T15:52:40Z</time>
      </trkpt>
      <trkpt lat="48.76267" lon="6.16481">
        <ele>280.6</ele>
        <time>2021-07-29T15:52:41Z</time>
      </trkpt>
      <trkpt lat="48.76267" lon="6.1648">
        <ele>280.6</ele>
        <time>2021-07-29T15:52:42Z</time>
      </trkpt>
      <trkpt lat="48.76267" lon="6.1648">
        <ele>280.6</ele>
        <time>2021-07-29T15:52:43Z</time>
      </trkpt>
      <trkpt lat="48.76267" lon="6.1648">
        <ele>280.6</ele>
        <time>2021-07-29T15:52:45Z</time>
      </trkpt>
      <trkpt lat="48.76267" lon="6.16479">
        <ele>280.6</ele>
        <time>2021-07-29T15:52:46Z</time>
      </trkpt>
      <trkpt lat="48.76267" lon="6.16479">
        <ele>280.1</ele>
        <time>2021-07-29T15:52:47Z</time>
      </trkpt>
      <trkpt lat="48.76267" lon="6.16479">
        <ele>280.1</ele>
        <time>2021-07-29T15:52:49Z</time>
      </trkpt>
      <trkpt lat="48.76267" lon="6.16478">
        <ele>280.1</ele>
        <time>2021-07-29T15:52:51Z</time>
      </trkpt>
      <trkpt lat="48.76267" lon="6.16478">
        <ele>280.1</ele>
        <time>2021-07-29T15:52:53Z</time>
      </trkpt>
      <trkpt lat="48.76267" lon="6.16478">
        <ele>280.1</ele>
        <time>2021-07-29T15:52:54Z</time>
      </trkpt>
      <trkpt lat="48.76267" lon="6.16477">
        <ele>280.1</ele>
        <time>2021-07-29T15:52:55Z</time>
      </trkpt>
      <trkpt lat="48.76267" lon="6.16477">
        <ele>280.1</ele>
        <time>2021-07-29T15:52:57Z</time>
      </trkpt>
      <trkpt lat="48.76267" lon="6.16477">
        <ele>280.1</ele>
        <time>2021-07-29T15:52:58Z</time>
      </trkpt>
      <trkpt lat="48.76267" lon="6.16476">
        <ele>280.1</ele>
        <time>2021-07-29T15:52:59Z</time>
      </trkpt>
      <trkpt lat="48.76267" lon="6.16476">
        <ele>280.1</ele>
        <time>2021-07-29T15:53:03Z</time>
      </trkpt>
      <trkpt lat="48.76267" lon="6.16476">
        <ele>280.1</ele>
        <time>2021-07-29T15:53:07Z</time>
      </trkpt>
      <trkpt lat="48.76266" lon="6.16475">
        <ele>280.1</ele>
        <time>2021-07-29T15:53:09Z</time>
      </trkpt>
      <trkpt lat="48.76266" lon="6.16475">
        <ele>280.1</ele>
        <time>2021-07-29T15:53:10Z</time>
      </trkpt>
      <trkpt lat="48.76266" lon="6.16475">
        <ele>280.1</ele>
        <time>2021-07-29T15:53:12Z</time>
      </trkpt>
      <trkpt lat="48.76266" lon="6.16474">
        <ele>279.7</ele>
        <time>2021-07-29T15:53:13Z</time>
      </trkpt>
      <trkpt lat="48.76263" lon="6.16469">
        <ele>279.1</ele>
        <time>2021-07-29T15:53:15Z</time>
      </trkpt>
      <trkpt lat="48.76261" lon="6.16467">
        <ele>279.1</ele>
        <time>2021-07-29T15:53:16Z</time>
      </trkpt>
      <trkpt lat="48.76261" lon="6.16467">
        <ele>279.1</ele>
        <time>2021-07-29T15:53:17Z</time>
      </trkpt>
      <trkpt lat="48.76262" lon="6.16467">
        <ele>279.1</ele>
        <time>2021-07-29T15:53:19Z</time>
      </trkpt>
      <trkpt lat="48.76261" lon="6.16467">
        <ele>279.1</ele>
        <time>2021-07-29T15:53:21Z</time>
      </trkpt>
      <trkpt lat="48.76261" lon="6.16467">
        <ele>279.1</ele>
        <time>2021-07-29T15:53:22Z</time>
      </trkpt>
      <trkpt lat="48.76261" lon="6.16468">
        <ele>279.1</ele>
        <time>2021-07-29T15:53:24Z</time>
      </trkpt>
      <trkpt lat="48.76261" lon="6.16468">
        <ele>279.1</ele>
        <time>2021-07-29T15:53:25Z</time>
      </trkpt>
      <trkpt lat="48.7626" lon="6.16468">
        <ele>279.1</ele>
        <time>2021-07-29T15:53:27Z</time>
      </trkpt>
      <trkpt lat="48.7626" lon="6.16468">
        <ele>279.1</ele>
        <time>2021-07-29T15:53:28Z</time>
      </trkpt>
      <trkpt lat="48.76259" lon="6.16468">
        <ele>279.1</ele>
        <time>2021-07-29T15:53:29Z</time>
      </trkpt>
      <trkpt lat="48.76259" lon="6.16468">
        <ele>279.1</ele>
        <time>2021-07-29T15:53:30Z</time>
      </trkpt>
      <trkpt lat="48.76259" lon="6.16468">
        <ele>279.1</ele>
        <time>2021-07-29T15:53:31Z</time>
      </trkpt>
      <trkpt lat="48.76259" lon="6.16467">
        <ele>279.1</ele>
        <time>2021-07-29T15:53:33Z</time>
      </trkpt>
      <trkpt lat="48.76258" lon="6.16467">
        <ele>279</ele>
        <time>2021-07-29T15:53:34Z</time>
      </trkpt>
      <trkpt lat="48.76258" lon="6.16467">
        <ele>279</ele>
        <time>2021-07-29T15:53:35Z</time>
      </trkpt>
      <trkpt lat="48.76257" lon="6.16467">
        <ele>279</ele>
        <time>2021-07-29T15:53:37Z</time>
      </trkpt>
      <trkpt lat="48.76257" lon="6.16467">
        <ele>279</ele>
        <time>2021-07-29T15:53:39Z</time>
      </trkpt>
      <trkpt lat="48.76257" lon="6.16467">
        <ele>279</ele>
        <time>2021-07-29T15:53:40Z</time>
      </trkpt>
      <trkpt lat="48.76257" lon="6.16467">
        <ele>279</ele>
        <time>2021-07-29T15:53:42Z</time>
      </trkpt>
      <trkpt lat="48.76257" lon="6.16467">
        <ele>279</ele>
        <time>2021-07-29T15:53:43Z</time>
      </trkpt>
      <trkpt lat="48.76257" lon="6.16467">
        <ele>279</ele>
        <time>2021-07-29T15:53:44Z</time>
      </trkpt>
      <trkpt lat="48.76257" lon="6.16467">
        <ele>279</ele>
        <time>2021-07-29T15:53:46Z</time>
      </trkpt>
      <trkpt lat="48.76257" lon="6.16467">
        <ele>279</ele>
        <time>2021-07-29T15:53:47Z</time>
      </trkpt>
      <trkpt lat="48.76258" lon="6.1646">
        <ele>278.1</ele>
        <time>2021-07-29T15:53:49Z</time>
      </trkpt>
      <trkpt lat="48.76261" lon="6.16455">
        <ele>277.8</ele>
        <time>2021-07-29T15:53:51Z</time>
      </trkpt>
      <trkpt lat="48.76264" lon="6.16452">
        <ele>277.4</ele>
        <time>2021-07-29T15:53:53Z</time>
      </trkpt>
      <trkpt lat="48.76264" lon="6.16452">
        <ele>277.4</ele>
        <time>2021-07-29T15:53:54Z</time>
      </trkpt>
      <trkpt lat="48.76264" lon="6.16451">
        <ele>277.4</ele>
        <time>2021-07-29T15:53:55Z</time>
      </trkpt>
      <trkpt lat="48.76264" lon="6.16451">
        <ele>277.4</ele>
        <time>2021-07-29T15:53:57Z</time>
      </trkpt>
      <trkpt lat="48.76264" lon="6.16452">
        <ele>277.4</ele>
        <time>2021-07-29T15:53:59Z</time>
      </trkpt>
      <trkpt lat="48.76264" lon="6.16452">
        <ele>277.4</ele>
        <time>2021-07-29T15:54:00Z</time>
      </trkpt>
      <trkpt lat="48.76264" lon="6.16452">
        <ele>277.4</ele>
        <time>2021-07-29T15:54:01Z</time>
      </trkpt>
      <trkpt lat="48.76264" lon="6.16452">
        <ele>277.4</ele>
        <time>2021-07-29T15:54:03Z</time>
      </trkpt>
      <trkpt lat="48.76264" lon="6.16452">
        <ele>277.4</ele>
        <time>2021-07-29T15:54:05Z</time>
      </trkpt>
      <trkpt lat="48.76264" lon="6.16452">
        <ele>277.4</ele>
        <time>2021-07-29T15:54:06Z</time>
      </trkpt>
      <trkpt lat="48.76264" lon="6.16452">
        <ele>277.4</ele>
        <time>2021-07-29T15:54:07Z</time>
      </trkpt>
      <trkpt lat="48.76264" lon="6.16452">
        <ele>277.4</ele>
        <time>2021-07-29T15:54:09Z</time>
      </trkpt>
      <trkpt lat="48.76264" lon="6.16452">
        <ele>277.4</ele>
        <time>2021-07-29T15:54:10Z</time>
      </trkpt>
      <trkpt lat="48.76263" lon="6.16452">
        <ele>277.4</ele>
        <time>2021-07-29T15:54:12Z</time>
      </trkpt>
      <trkpt lat="48.76263" lon="6.16452">
        <ele>277.4</ele>
        <time>2021-07-29T15:54:13Z</time>
      </trkpt>
      <trkpt lat="48.76263" lon="6.16452">
        <ele>277.4</ele>
        <time>2021-07-29T15:54:15Z</time>
      </trkpt>
      <trkpt lat="48.76263" lon="6.16452">
        <ele>277.4</ele>
        <time>2021-07-29T15:54:17Z</time>
      </trkpt>
      <trkpt lat="48.76263" lon="6.16452">
        <ele>277.4</ele>
        <time>2021-07-29T15:54:18Z</time>
      </trkpt>
      <trkpt lat="48.76263" lon="6.16452">
        <ele>277.4</ele>
        <time>2021-07-29T15:54:19Z</time>
      </trkpt>
      <trkpt lat="48.76263" lon="6.16453">
        <ele>277.4</ele>
        <time>2021-07-29T15:54:21Z</time>
      </trkpt>
      <trkpt lat="48.76263" lon="6.16453">
        <ele>277.4</ele>
        <time>2021-07-29T15:54:22Z</time>
      </trkpt>
      <trkpt lat="48.76263" lon="6.16453">
        <ele>277.4</ele>
        <time>2021-07-29T15:54:24Z</time>
      </trkpt>
      <trkpt lat="48.76263" lon="6.16453">
        <ele>277.4</ele>
        <time>2021-07-29T15:54:25Z</time>
      </trkpt>
      <trkpt lat="48.76263" lon="6.16453">
        <ele>277.4</ele>
        <time>2021-07-29T15:54:27Z</time>
      </trkpt>
      <trkpt lat="48.76263" lon="6.16453">
        <ele>277.4</ele>
        <time>2021-07-29T15:54:29Z</time>
      </trkpt>
      <trkpt lat="48.76262" lon="6.16453">
        <ele>277.4</ele>
        <time>2021-07-29T15:54:30Z</time>
      </trkpt>
      <trkpt lat="48.76262" lon="6.16453">
        <ele>277.4</ele>
        <time>2021-07-29T15:54:31Z</time>
      </trkpt>
      <trkpt lat="48.76262" lon="6.16453">
        <ele>277.4</ele>
        <time>2021-07-29T15:54:32Z</time>
      </trkpt>
      <trkpt lat="48.76262" lon="6.16453">
        <ele>277.4</ele>
        <time>2021-07-29T15:54:34Z</time>
      </trkpt>
      <trkpt lat="48.76262" lon="6.16453">
        <ele>277.4</ele>
        <time>2021-07-29T15:54:35Z</time>
      </trkpt>
      <trkpt lat="48.76262" lon="6.16453">
        <ele>277.8</ele>
        <time>2021-07-29T15:54:37Z</time>
      </trkpt>
      <trkpt lat="48.76262" lon="6.16453">
        <ele>277.8</ele>
        <time>2021-07-29T15:54:38Z</time>
      </trkpt>
      <trkpt lat="48.76262" lon="6.16453">
        <ele>277.8</ele>
        <time>2021-07-29T15:54:39Z</time>
      </trkpt>
      <trkpt lat="48.76262" lon="6.16453">
        <ele>277.8</ele>
        <time>2021-07-29T15:54:41Z</time>
      </trkpt>
      <trkpt lat="48.76262" lon="6.16453">
        <ele>277.8</ele>
        <time>2021-07-29T15:54:43Z</time>
      </trkpt>
      <trkpt lat="48.76262" lon="6.16454">
        <ele>277.8</ele>
        <time>2021-07-29T15:54:45Z</time>
      </trkpt>
      <trkpt lat="48.76262" lon="6.16454">
        <ele>277.8</ele>
        <time>2021-07-29T15:54:46Z</time>
      </trkpt>
      <trkpt lat="48.76262" lon="6.16454">
        <ele>277.8</ele>
        <time>2021-07-29T15:54:48Z</time>
      </trkpt>
      <trkpt lat="48.76261" lon="6.16454">
        <ele>277.8</ele>
        <time>2021-07-29T15:54:49Z</time>
      </trkpt>
      <trkpt lat="48.76261" lon="6.16454">
        <ele>277.8</ele>
        <time>2021-07-29T15:54:51Z</time>
      </trkpt>
      <trkpt lat="48.76261" lon="6.16454">
        <ele>277.8</ele>
        <time>2021-07-29T15:54:53Z</time>
      </trkpt>
      <trkpt lat="48.76261" lon="6.16454">
        <ele>277.8</ele>
        <time>2021-07-29T15:54:55Z</time>
      </trkpt>
      <trkpt lat="48.76261" lon="6.16454">
        <ele>277.8</ele>
        <time>2021-07-29T15:54:56Z</time>
      </trkpt>
      <trkpt lat="48.76261" lon="6.16454">
        <ele>277.7</ele>
        <time>2021-07-29T15:54:57Z</time>
      </trkpt>
      <trkpt lat="48.76261" lon="6.16454">
        <ele>277.7</ele>
        <time>2021-07-29T15:54:59Z</time>
      </trkpt>
      <trkpt lat="48.76261" lon="6.16454">
        <ele>277.7</ele>
        <time>2021-07-29T15:55:01Z</time>
      </trkpt>
      <trkpt lat="48.76261" lon="6.16454">
        <ele>277.7</ele>
        <time>2021-07-29T15:55:02Z</time>
      </trkpt>
      <trkpt lat="48.76261" lon="6.16454">
        <ele>277.7</ele>
        <time>2021-07-29T15:55:04Z</time>
      </trkpt>
      <trkpt lat="48.76261" lon="6.16454">
        <ele>277.7</ele>
        <time>2021-07-29T15:55:05Z</time>
      </trkpt>
      <trkpt lat="48.76261" lon="6.16454">
        <ele>277.7</ele>
        <time>2021-07-29T15:55:07Z</time>
      </trkpt>
      <trkpt lat="48.7626" lon="6.16454">
        <ele>277.7</ele>
        <time>2021-07-29T15:55:08Z</time>
      </trkpt>
      <trkpt lat="48.7626" lon="6.16455">
        <ele>277.7</ele>
        <time>2021-07-29T15:55:09Z</time>
      </trkpt>
      <trkpt lat="48.7626" lon="6.16455">
        <ele>277.7</ele>
        <time>2021-07-29T15:55:11Z</time>
      </trkpt>
      <trkpt lat="48.7626" lon="6.16455">
        <ele>277.7</ele>
        <time>2021-07-29T15:55:13Z</time>
      </trkpt>
      <trkpt lat="48.7626" lon="6.16455">
        <ele>277.7</ele>
        <time>2021-07-29T15:55:14Z</time>
      </trkpt>
      <trkpt lat="48.7626" lon="6.16455">
        <ele>277.7</ele>
        <time>2021-07-29T15:55:15Z</time>
      </trkpt>
      <trkpt lat="48.7626" lon="6.16455">
        <ele>277.7</ele>
        <time>2021-07-29T15:55:17Z</time>
      </trkpt>
      <trkpt lat="48.7626" lon="6.16455">
        <ele>277.7</ele>
        <time>2021-07-29T15:55:19Z</time>
      </trkpt>
      <trkpt lat="48.7626" lon="6.16455">
        <ele>277.7</ele>
        <time>2021-07-29T15:55:20Z</time>
      </trkpt>
      <trkpt lat="48.7626" lon="6.16455">
        <ele>277.7</ele>
        <time>2021-07-29T15:55:22Z</time>
      </trkpt>
      <trkpt lat="48.7626" lon="6.16455">
        <ele>277.7</ele>
        <time>2021-07-29T15:55:23Z</time>
      </trkpt>
      <trkpt lat="48.7626" lon="6.16455">
        <ele>277.7</ele>
        <time>2021-07-29T15:55:25Z</time>
      </trkpt>
      <trkpt lat="48.76259" lon="6.16455">
        <ele>277.7</ele>
        <time>2021-07-29T15:55:26Z</time>
      </trkpt>
      <trkpt lat="48.76259" lon="6.16455">
        <ele>277.7</ele>
        <time>2021-07-29T15:55:28Z</time>
      </trkpt>
      <trkpt lat="48.76259" lon="6.16455">
        <ele>277.7</ele>
        <time>2021-07-29T15:55:29Z</time>
      </trkpt>
      <trkpt lat="48.76259" lon="6.16455">
        <ele>277.7</ele>
        <time>2021-07-29T15:55:30Z</time>
      </trkpt>
      <trkpt lat="48.76259" lon="6.16456">
        <ele>277.7</ele>
        <time>2021-07-29T15:55:31Z</time>
      </trkpt>
      <trkpt lat="48.76259" lon="6.16456">
        <ele>277.7</ele>
        <time>2021-07-29T15:55:33Z</time>
      </trkpt>
      <trkpt lat="48.76259" lon="6.16456">
        <ele>277.7</ele>
        <time>2021-07-29T15:55:34Z</time>
      </trkpt>
      <trkpt lat="48.76259" lon="6.16456">
        <ele>277.7</ele>
        <time>2021-07-29T15:55:35Z</time>
      </trkpt>
      <trkpt lat="48.76259" lon="6.16456">
        <ele>277.7</ele>
        <time>2021-07-29T15:55:37Z</time>
      </trkpt>
      <trkpt lat="48.76259" lon="6.16456">
        <ele>277.7</ele>
        <time>2021-07-29T15:55:39Z</time>
      </trkpt>
      <trkpt lat="48.76259" lon="6.16456">
        <ele>277.7</ele>
        <time>2021-07-29T15:55:40Z</time>
      </trkpt>
      <trkpt lat="48.76259" lon="6.16456">
        <ele>277.7</ele>
        <time>2021-07-29T15:55:41Z</time>
      </trkpt>
      <trkpt lat="48.76259" lon="6.16456">
        <ele>277.7</ele>
        <time>2021-07-29T15:55:43Z</time>
      </trkpt>
      <trkpt lat="48.76258" lon="6.16456">
        <ele>277.7</ele>
        <time>2021-07-29T15:55:45Z</time>
      </trkpt>
      <trkpt lat="48.76258" lon="6.16456">
        <ele>277.7</ele>
        <time>2021-07-29T15:55:46Z</time>
      </trkpt>
      <trkpt lat="48.76258" lon="6.16458">
        <ele>278.1</ele>
        <time>2021-07-29T15:55:47Z</time>
      </trkpt>
      <trkpt lat="48.76257" lon="6.1646">
        <ele>278.1</ele>
        <time>2021-07-29T15:55:49Z</time>
      </trkpt>
      <trkpt lat="48.76257" lon="6.16461">
        <ele>278.1</ele>
        <time>2021-07-29T15:55:51Z</time>
      </trkpt>
      <trkpt lat="48.76257" lon="6.16461">
        <ele>278.1</ele>
        <time>2021-07-29T15:55:52Z</time>
      </trkpt>
      <trkpt lat="48.76256" lon="6.1646">
        <ele>278.1</ele>
        <time>2021-07-29T15:55:53Z</time>
      </trkpt>
      <trkpt lat="48.76254" lon="6.16459">
        <ele>278.1</ele>
        <time>2021-07-29T15:55:54Z</time>
      </trkpt>
      <trkpt lat="48.76253" lon="6.16458">
        <ele>278.1</ele>
        <time>2021-07-29T15:55:56Z</time>
      </trkpt>
      <trkpt lat="48.76252" lon="6.16458">
        <ele>278.1</ele>
        <time>2021-07-29T15:55:58Z</time>
      </trkpt>
      <trkpt lat="48.7625" lon="6.16457">
        <ele>277.6</ele>
        <time>2021-07-29T15:55:59Z</time>
      </trkpt>
      <trkpt lat="48.7625" lon="6.16457">
        <ele>277.6</ele>
        <time>2021-07-29T15:56:00Z</time>
      </trkpt>
      <trkpt lat="48.76249" lon="6.16457">
        <ele>277.6</ele>
        <time>2021-07-29T15:56:01Z</time>
      </trkpt>
      <trkpt lat="48.76248" lon="6.16457">
        <ele>277.6</ele>
        <time>2021-07-29T15:56:03Z</time>
      </trkpt>
      <trkpt lat="48.76248" lon="6.16457">
        <ele>277.6</ele>
        <time>2021-07-29T15:56:04Z</time>
      </trkpt>
      <trkpt lat="48.76248" lon="6.16457">
        <ele>277.6</ele>
        <time>2021-07-29T15:56:05Z</time>
      </trkpt>
      <trkpt lat="48.76248" lon="6.16457">
        <ele>277.6</ele>
        <time>2021-07-29T15:56:07Z</time>
      </trkpt>
      <trkpt lat="48.76248" lon="6.16457">
        <ele>277.6</ele>
        <time>2021-07-29T15:56:09Z</time>
      </trkpt>
      <trkpt lat="48.76248" lon="6.16457">
        <ele>277.6</ele>
        <time>2021-07-29T15:56:10Z</time>
      </trkpt>
      <trkpt lat="48.76248" lon="6.16457">
        <ele>277.6</ele>
        <time>2021-07-29T15:56:11Z</time>
      </trkpt>
      <trkpt lat="48.76248" lon="6.16457">
        <ele>277.6</ele>
        <time>2021-07-29T15:56:12Z</time>
      </trkpt>
      <trkpt lat="48.76248" lon="6.16457">
        <ele>277.6</ele>
        <time>2021-07-29T15:56:13Z</time>
      </trkpt>
      <trkpt lat="48.76248" lon="6.16457">
        <ele>277.6</ele>
        <time>2021-07-29T15:56:15Z</time>
      </trkpt>
      <trkpt lat="48.76248" lon="6.16457">
        <ele>277.6</ele>
        <time>2021-07-29T15:56:16Z</time>
      </trkpt>
      <trkpt lat="48.76248" lon="6.16457">
        <ele>277.6</ele>
        <time>2021-07-29T15:56:18Z</time>
      </trkpt>
      <trkpt lat="48.76248" lon="6.16457">
        <ele>277.6</ele>
        <time>2021-07-29T15:56:19Z</time>
      </trkpt>
      <trkpt lat="48.76248" lon="6.16457">
        <ele>277.6</ele>
        <time>2021-07-29T15:56:21Z</time>
      </trkpt>
      <trkpt lat="48.76248" lon="6.16456">
        <ele>277.6</ele>
        <time>2021-07-29T15:56:23Z</time>
      </trkpt>
      <trkpt lat="48.76248" lon="6.16456">
        <ele>277.6</ele>
        <time>2021-07-29T15:56:25Z</time>
      </trkpt>
      <trkpt lat="48.76249" lon="6.16456">
        <ele>277.6</ele>
        <time>2021-07-29T15:56:27Z</time>
      </trkpt>
      <trkpt lat="48.76249" lon="6.16455">
        <ele>277.6</ele>
        <time>2021-07-29T15:56:29Z</time>
      </trkpt>
      <trkpt lat="48.76249" lon="6.16455">
        <ele>277.6</ele>
        <time>2021-07-29T15:56:31Z</time>
      </trkpt>
      <trkpt lat="48.76249" lon="6.16455">
        <ele>277.6</ele>
        <time>2021-07-29T15:56:33Z</time>
      </trkpt>
      <trkpt lat="48.7625" lon="6.16455">
        <ele>277.6</ele>
        <time>2021-07-29T15:56:35Z</time>
      </trkpt>
      <trkpt lat="48.7625" lon="6.16454">
        <ele>277.6</ele>
        <time>2021-07-29T15:56:36Z</time>
      </trkpt>
      <trkpt lat="48.7625" lon="6.16454">
        <ele>277.6</ele>
        <time>2021-07-29T15:56:37Z</time>
      </trkpt>
      <trkpt lat="48.7625" lon="6.16454">
        <ele>277.6</ele>
        <time>2021-07-29T15:56:39Z</time>
      </trkpt>
      <trkpt lat="48.7625" lon="6.16453">
        <ele>277.6</ele>
        <time>2021-07-29T15:56:41Z</time>
      </trkpt>
      <trkpt lat="48.76251" lon="6.16453">
        <ele>277.2</ele>
        <time>2021-07-29T15:56:42Z</time>
      </trkpt>
      <trkpt lat="48.76251" lon="6.16453">
        <ele>277.2</ele>
        <time>2021-07-29T15:56:43Z</time>
      </trkpt>
      <trkpt lat="48.76251" lon="6.16453">
        <ele>277.2</ele>
        <time>2021-07-29T15:56:45Z</time>
      </trkpt>
      <trkpt lat="48.76251" lon="6.16453">
        <ele>277.2</ele>
        <time>2021-07-29T15:56:47Z</time>
      </trkpt>
      <trkpt lat="48.76254" lon="6.16449">
        <ele>276.8</ele>
        <time>2021-07-29T15:56:52Z</time>
      </trkpt>
      <trkpt lat="48.76247" lon="6.1643">
        <ele>275.2</ele>
        <time>2021-07-29T15:56:54Z</time>
      </trkpt>
      <trkpt lat="48.76239" lon="6.16417">
        <ele>273.8</ele>
        <time>2021-07-29T15:56:55Z</time>
      </trkpt>
      <trkpt lat="48.76237" lon="6.16411">
        <ele>273.3</ele>
        <time>2021-07-29T15:56:57Z</time>
      </trkpt>
      <trkpt lat="48.76235" lon="6.16409">
        <ele>272.9</ele>
        <time>2021-07-29T15:56:58Z</time>
      </trkpt>
      <trkpt lat="48.76234" lon="6.16408">
        <ele>272.9</ele>
        <time>2021-07-29T15:57:00Z</time>
      </trkpt>
      <trkpt lat="48.76234" lon="6.16407">
        <ele>272.9</ele>
        <time>2021-07-29T15:57:01Z</time>
      </trkpt>
      <trkpt lat="48.76233" lon="6.16407">
        <ele>272.9</ele>
        <time>2021-07-29T15:57:03Z</time>
      </trkpt>
      <trkpt lat="48.76233" lon="6.16407">
        <ele>272.9</ele>
        <time>2021-07-29T15:57:05Z</time>
      </trkpt>
      <trkpt lat="48.76233" lon="6.16407">
        <ele>272.9</ele>
        <time>2021-07-29T15:57:06Z</time>
      </trkpt>
      <trkpt lat="48.76233" lon="6.16407">
        <ele>272.9</ele>
        <time>2021-07-29T15:57:07Z</time>
      </trkpt>
      <trkpt lat="48.76231" lon="6.16407">
        <ele>272.8</ele>
        <time>2021-07-29T15:57:09Z</time>
      </trkpt>
      <trkpt lat="48.7623" lon="6.16407">
        <ele>272.8</ele>
        <time>2021-07-29T15:57:10Z</time>
      </trkpt>
      <trkpt lat="48.7623" lon="6.16407">
        <ele>272.8</ele>
        <time>2021-07-29T15:57:11Z</time>
      </trkpt>
      <trkpt lat="48.76229" lon="6.16408">
        <ele>272.8</ele>
        <time>2021-07-29T15:57:12Z</time>
      </trkpt>
      <trkpt lat="48.76228" lon="6.16408">
        <ele>272.8</ele>
        <time>2021-07-29T15:57:14Z</time>
      </trkpt>
      <trkpt lat="48.76227" lon="6.16408">
        <ele>272.7</ele>
        <time>2021-07-29T15:57:15Z</time>
      </trkpt>
      <trkpt lat="48.76225" lon="6.16408">
        <ele>272.7</ele>
        <time>2021-07-29T15:57:16Z</time>
      </trkpt>
      <trkpt lat="48.76223" lon="6.16408">
        <ele>272.6</ele>
        <time>2021-07-29T15:57:18Z</time>
      </trkpt>
      <trkpt lat="48.76222" lon="6.16408">
        <ele>272.6</ele>
        <time>2021-07-29T15:57:19Z</time>
      </trkpt>
      <trkpt lat="48.76222" lon="6.16408">
        <ele>272.6</ele>
        <time>2021-07-29T15:57:21Z</time>
      </trkpt>
      <trkpt lat="48.76222" lon="6.16408">
        <ele>272.6</ele>
        <time>2021-07-29T15:57:22Z</time>
      </trkpt>
      <trkpt lat="48.76222" lon="6.16409">
        <ele>272.6</ele>
        <time>2021-07-29T15:57:24Z</time>
      </trkpt>
      <trkpt lat="48.76222" lon="6.16409">
        <ele>272.6</ele>
        <time>2021-07-29T15:57:25Z</time>
      </trkpt>
      <trkpt lat="48.76222" lon="6.16409">
        <ele>272.6</ele>
        <time>2021-07-29T15:57:27Z</time>
      </trkpt>
      <trkpt lat="48.76222" lon="6.16409">
        <ele>272.6</ele>
        <time>2021-07-29T15:57:28Z</time>
      </trkpt>
      <trkpt lat="48.76222" lon="6.16409">
        <ele>272.6</ele>
        <time>2021-07-29T15:57:30Z</time>
      </trkpt>
      <trkpt lat="48.76223" lon="6.16409">
        <ele>272.6</ele>
        <time>2021-07-29T15:57:31Z</time>
      </trkpt>
      <trkpt lat="48.76223" lon="6.16409">
        <ele>272.6</ele>
        <time>2021-07-29T15:57:32Z</time>
      </trkpt>
      <trkpt lat="48.76224" lon="6.16412">
        <ele>273</ele>
        <time>2021-07-29T15:57:34Z</time>
      </trkpt>
      <trkpt lat="48.76225" lon="6.16412">
        <ele>273.1</ele>
        <time>2021-07-29T15:57:35Z</time>
      </trkpt>
      <trkpt lat="48.76229" lon="6.16417">
        <ele>273.7</ele>
        <time>2021-07-29T15:57:37Z</time>
      </trkpt>
      <trkpt lat="48.76231" lon="6.1642">
        <ele>274.2</ele>
        <time>2021-07-29T15:57:38Z</time>
      </trkpt>
      <trkpt lat="48.76231" lon="6.16421">
        <ele>274.2</ele>
        <time>2021-07-29T15:57:39Z</time>
      </trkpt>
      <trkpt lat="48.76232" lon="6.16422">
        <ele>274.2</ele>
        <time>2021-07-29T15:57:41Z</time>
      </trkpt>
      <trkpt lat="48.76232" lon="6.16422">
        <ele>274.2</ele>
        <time>2021-07-29T15:57:42Z</time>
      </trkpt>
      <trkpt lat="48.76232" lon="6.16422">
        <ele>274.2</ele>
        <time>2021-07-29T15:57:44Z</time>
      </trkpt>
      <trkpt lat="48.76232" lon="6.16423">
        <ele>274.2</ele>
        <time>2021-07-29T15:57:45Z</time>
      </trkpt>
      <trkpt lat="48.76232" lon="6.16423">
        <ele>274.2</ele>
        <time>2021-07-29T15:57:47Z</time>
      </trkpt>
      <trkpt lat="48.76232" lon="6.16423">
        <ele>274.2</ele>
        <time>2021-07-29T15:57:48Z</time>
      </trkpt>
      <trkpt lat="48.76232" lon="6.16423">
        <ele>274.2</ele>
        <time>2021-07-29T15:57:50Z</time>
      </trkpt>
      <trkpt lat="48.76232" lon="6.16423">
        <ele>274.2</ele>
        <time>2021-07-29T15:57:52Z</time>
      </trkpt>
      <trkpt lat="48.76232" lon="6.16423">
        <ele>274.2</ele>
        <time>2021-07-29T15:57:53Z</time>
      </trkpt>
      <trkpt lat="48.76231" lon="6.16415">
        <ele>273.7</ele>
        <time>2021-07-29T15:57:55Z</time>
      </trkpt>
      <trkpt lat="48.7623" lon="6.16412">
        <ele>273.2</ele>
        <time>2021-07-29T15:57:56Z</time>
      </trkpt>
      <trkpt lat="48.76229" lon="6.16409">
        <ele>272.8</ele>
        <time>2021-07-29T15:57:58Z</time>
      </trkpt>
      <trkpt lat="48.76229" lon="6.16409">
        <ele>272.8</ele>
        <time>2021-07-29T15:57:59Z</time>
      </trkpt>
      <trkpt lat="48.76229" lon="6.16408">
        <ele>272.8</ele>
        <time>2021-07-29T15:58:00Z</time>
      </trkpt>
      <trkpt lat="48.76229" lon="6.16408">
        <ele>272.8</ele>
        <time>2021-07-29T15:58:02Z</time>
      </trkpt>
      <trkpt lat="48.76229" lon="6.16408">
        <ele>272.8</ele>
        <time>2021-07-29T15:58:03Z</time>
      </trkpt>
      <trkpt lat="48.76229" lon="6.16408">
        <ele>272.8</ele>
        <time>2021-07-29T15:58:04Z</time>
      </trkpt>
      <trkpt lat="48.76229" lon="6.16408">
        <ele>272.8</ele>
        <time>2021-07-29T15:58:06Z</time>
      </trkpt>
      <trkpt lat="48.76229" lon="6.16408">
        <ele>272.8</ele>
        <time>2021-07-29T15:58:07Z</time>
      </trkpt>
      <trkpt lat="48.76237" lon="6.16404">
        <ele>272.5</ele>
        <time>2021-07-29T15:58:09Z</time>
      </trkpt>
      <trkpt lat="48.7624" lon="6.16403">
        <ele>272.5</ele>
        <time>2021-07-29T15:58:10Z</time>
      </trkpt>
      <trkpt lat="48.7624" lon="6.16403">
        <ele>272.5</ele>
        <time>2021-07-29T15:58:11Z</time>
      </trkpt>
      <trkpt lat="48.7624" lon="6.16404">
        <ele>272.5</ele>
        <time>2021-07-29T15:58:13Z</time>
      </trkpt>
      <trkpt lat="48.7624" lon="6.16404">
        <ele>272.5</ele>
        <time>2021-07-29T15:58:15Z</time>
      </trkpt>
      <trkpt lat="48.7624" lon="6.16404">
        <ele>272.5</ele>
        <time>2021-07-29T15:58:16Z</time>
      </trkpt>
      <trkpt lat="48.7624" lon="6.16404">
        <ele>272.5</ele>
        <time>2021-07-29T15:58:17Z</time>
      </trkpt>
      <trkpt lat="48.7624" lon="6.16404">
        <ele>272.5</ele>
        <time>2021-07-29T15:58:19Z</time>
      </trkpt>
      <trkpt lat="48.76241" lon="6.16404">
        <ele>272.5</ele>
        <time>2021-07-29T15:58:21Z</time>
      </trkpt>
      <trkpt lat="48.7624" lon="6.16404">
        <ele>272.5</ele>
        <time>2021-07-29T15:58:22Z</time>
      </trkpt>
      <trkpt lat="48.7624" lon="6.16404">
        <ele>272.5</ele>
        <time>2021-07-29T15:58:24Z</time>
      </trkpt>
      <trkpt lat="48.7624" lon="6.16404">
        <ele>272.5</ele>
        <time>2021-07-29T15:58:25Z</time>
      </trkpt>
      <trkpt lat="48.7624" lon="6.16404">
        <ele>272.5</ele>
        <time>2021-07-29T15:58:27Z</time>
      </trkpt>
      <trkpt lat="48.7624" lon="6.16404">
        <ele>272.5</ele>
        <time>2021-07-29T15:58:28Z</time>
      </trkpt>
      <trkpt lat="48.7624" lon="6.16404">
        <ele>272.5</ele>
        <time>2021-07-29T15:58:29Z</time>
      </trkpt>
      <trkpt lat="48.7624" lon="6.16404">
        <ele>272.5</ele>
        <time>2021-07-29T15:58:31Z</time>
      </trkpt>
      <trkpt lat="48.7624" lon="6.16404">
        <ele>272.5</ele>
        <time>2021-07-29T15:58:33Z</time>
      </trkpt>
      <trkpt lat="48.7624" lon="6.16404">
        <ele>272.5</ele>
        <time>2021-07-29T15:58:34Z</time>
      </trkpt>
      <trkpt lat="48.7624" lon="6.16404">
        <ele>272.5</ele>
        <time>2021-07-29T15:58:35Z</time>
      </trkpt>
      <trkpt lat="48.7624" lon="6.16404">
        <ele>272.5</ele>
        <time>2021-07-29T15:58:37Z</time>
      </trkpt>
      <trkpt lat="48.7624" lon="6.16404">
        <ele>272.5</ele>
        <time>2021-07-29T15:58:39Z</time>
      </trkpt>
      <trkpt lat="48.7624" lon="6.16404">
        <ele>272.5</ele>
        <time>2021-07-29T15:58:40Z</time>
      </trkpt>
      <trkpt lat="48.7624" lon="6.16404">
        <ele>272.5</ele>
        <time>2021-07-29T15:58:41Z</time>
      </trkpt>
      <trkpt lat="48.7624" lon="6.16404">
        <ele>272.5</ele>
        <time>2021-07-29T15:58:43Z</time>
      </trkpt>
      <trkpt lat="48.7624" lon="6.16404">
        <ele>272.5</ele>
        <time>2021-07-29T15:58:45Z</time>
      </trkpt>
      <trkpt lat="48.7624" lon="6.16404">
        <ele>272.5</ele>
        <time>2021-07-29T15:58:46Z</time>
      </trkpt>
      <trkpt lat="48.7624" lon="6.16404">
        <ele>272.5</ele>
        <time>2021-07-29T15:58:48Z</time>
      </trkpt>
      <trkpt lat="48.7624" lon="6.16404">
        <ele>272.5</ele>
        <time>2021-07-29T15:58:49Z</time>
      </trkpt>
      <trkpt lat="48.7624" lon="6.16404">
        <ele>272.5</ele>
        <time>2021-07-29T15:58:51Z</time>
      </trkpt>
      <trkpt lat="48.7624" lon="6.16404">
        <ele>272.5</ele>
        <time>2021-07-29T15:58:52Z</time>
      </trkpt>
      <trkpt lat="48.7624" lon="6.16404">
        <ele>272.5</ele>
        <time>2021-07-29T15:58:53Z</time>
      </trkpt>
      <trkpt lat="48.7624" lon="6.16404">
        <ele>272.5</ele>
        <time>2021-07-29T15:58:55Z</time>
      </trkpt>
      <trkpt lat="48.7624" lon="6.16404">
        <ele>272.5</ele>
        <time>2021-07-29T15:58:57Z</time>
      </trkpt>
      <trkpt lat="48.7624" lon="6.16404">
        <ele>272.5</ele>
        <time>2021-07-29T15:58:58Z</time>
      </trkpt>
      <trkpt lat="48.7624" lon="6.16403">
        <ele>272.5</ele>
        <time>2021-07-29T15:59:00Z</time>
      </trkpt>
      <trkpt lat="48.7624" lon="6.16403">
        <ele>272.5</ele>
        <time>2021-07-29T15:59:01Z</time>
      </trkpt>
      <trkpt lat="48.76241" lon="6.16403">
        <ele>272.5</ele>
        <time>2021-07-29T15:59:02Z</time>
      </trkpt>
      <trkpt lat="48.76241" lon="6.16403">
        <ele>272.5</ele>
        <time>2021-07-29T15:59:05Z</time>
      </trkpt>
      <trkpt lat="48.76259" lon="6.16414">
        <ele>273.5</ele>
        <time>2021-07-29T15:59:29Z</time>
      </trkpt>
      <trkpt lat="48.76259" lon="6.16415">
        <ele>273.5</ele>
        <time>2021-07-29T15:59:30Z</time>
      </trkpt>
      <trkpt lat="48.76259" lon="6.16415">
        <ele>273.5</ele>
        <time>2021-07-29T15:59:31Z</time>
      </trkpt>
      <trkpt lat="48.76259" lon="6.16415">
        <ele>273.5</ele>
        <time>2021-07-29T15:59:33Z</time>
      </trkpt>
      <trkpt lat="48.76257" lon="6.1642">
        <ele>274.4</ele>
        <time>2021-07-29T15:59:35Z</time>
      </trkpt>
      <trkpt lat="48.76256" lon="6.16421">
        <ele>274.4</ele>
        <time>2021-07-29T15:59:36Z</time>
      </trkpt>
      <trkpt lat="48.76255" lon="6.16423">
        <ele>274.4</ele>
        <time>2021-07-29T15:59:37Z</time>
      </trkpt>
      <trkpt lat="48.76255" lon="6.16424">
        <ele>274.8</ele>
        <time>2021-07-29T15:59:39Z</time>
      </trkpt>
      <trkpt lat="48.76255" lon="6.16425">
        <ele>274.8</ele>
        <time>2021-07-29T15:59:40Z</time>
      </trkpt>
      <trkpt lat="48.76255" lon="6.16426">
        <ele>274.8</ele>
        <time>2021-07-29T15:59:42Z</time>
      </trkpt>
      <trkpt lat="48.76255" lon="6.16426">
        <ele>274.8</ele>
        <time>2021-07-29T15:59:43Z</time>
      </trkpt>
      <trkpt lat="48.76255" lon="6.16426">
        <ele>274.8</ele>
        <time>2021-07-29T15:59:44Z</time>
      </trkpt>
      <trkpt lat="48.76255" lon="6.16426">
        <ele>274.8</ele>
        <time>2021-07-29T15:59:46Z</time>
      </trkpt>
      <trkpt lat="48.76255" lon="6.16426">
        <ele>274.8</ele>
        <time>2021-07-29T15:59:48Z</time>
      </trkpt>
      <trkpt lat="48.76255" lon="6.16425">
        <ele>274.8</ele>
        <time>2021-07-29T15:59:49Z</time>
      </trkpt>
      <trkpt lat="48.76253" lon="6.16424">
        <ele>274.8</ele>
        <time>2021-07-29T15:59:51Z</time>
      </trkpt>
      <trkpt lat="48.76253" lon="6.16424">
        <ele>274.8</ele>
        <time>2021-07-29T15:59:52Z</time>
      </trkpt>
      <trkpt lat="48.76253" lon="6.16424">
        <ele>274.8</ele>
        <time>2021-07-29T15:59:53Z</time>
      </trkpt>
      <trkpt lat="48.76253" lon="6.16425">
        <ele>274.8</ele>
        <time>2021-07-29T15:59:55Z</time>
      </trkpt>
      <trkpt lat="48.76253" lon="6.16425">
        <ele>274.8</ele>
        <time>2021-07-29T15:59:56Z</time>
      </trkpt>
      <trkpt lat="48.76253" lon="6.16425">
        <ele>274.8</ele>
        <time>2021-07-29T15:59:58Z</time>
      </trkpt>
      <trkpt lat="48.76253" lon="6.16425">
        <ele>274.8</ele>
        <time>2021-07-29T15:59:59Z</time>
      </trkpt>
      <trkpt lat="48.76253" lon="6.16425">
        <ele>274.8</ele>
        <time>2021-07-29T16:00:01Z</time>
      </trkpt>
      <trkpt lat="48.76253" lon="6.16425">
        <ele>274.8</ele>
        <time>2021-07-29T16:00:02Z</time>
      </trkpt>
      <trkpt lat="48.76253" lon="6.16425">
        <ele>274.8</ele>
        <time>2021-07-29T16:00:03Z</time>
      </trkpt>
      <trkpt lat="48.76253" lon="6.16425">
        <ele>274.8</ele>
        <time>2021-07-29T16:00:04Z</time>
      </trkpt>
      <trkpt lat="48.76253" lon="6.16425">
        <ele>274.8</ele>
        <time>2021-07-29T16:00:06Z</time>
      </trkpt>
      <trkpt lat="48.76253" lon="6.16425">
        <ele>274.8</ele>
        <time>2021-07-29T16:00:07Z</time>
      </trkpt>
      <trkpt lat="48.76253" lon="6.16425">
        <ele>274.8</ele>
        <time>2021-07-29T16:00:09Z</time>
      </trkpt>
      <trkpt lat="48.76253" lon="6.16425">
        <ele>274.8</ele>
        <time>2021-07-29T16:00:10Z</time>
      </trkpt>
      <trkpt lat="48.76253" lon="6.16426">
        <ele>274.8</ele>
        <time>2021-07-29T16:00:12Z</time>
      </trkpt>
      <trkpt lat="48.76254" lon="6.16428">
        <ele>275.2</ele>
        <time>2021-07-29T16:00:13Z</time>
      </trkpt>
      <trkpt lat="48.76254" lon="6.16429">
        <ele>275.2</ele>
        <time>2021-07-29T16:00:14Z</time>
      </trkpt>
      <trkpt lat="48.76254" lon="6.16432">
        <ele>275.7</ele>
        <time>2021-07-29T16:00:16Z</time>
      </trkpt>
      <trkpt lat="48.76254" lon="6.16434">
        <ele>275.7</ele>
        <time>2021-07-29T16:00:17Z</time>
      </trkpt>
      <trkpt lat="48.76255" lon="6.16435">
        <ele>275.7</ele>
        <time>2021-07-29T16:00:18Z</time>
      </trkpt>
      <trkpt lat="48.76256" lon="6.16438">
        <ele>276.1</ele>
        <time>2021-07-29T16:00:20Z</time>
      </trkpt>
      <trkpt lat="48.76258" lon="6.16443">
        <ele>276.5</ele>
        <time>2021-07-29T16:00:21Z</time>
      </trkpt>
      <trkpt lat="48.76259" lon="6.16441">
        <ele>276.5</ele>
        <time>2021-07-29T16:00:22Z</time>
      </trkpt>
      <trkpt lat="48.76259" lon="6.16441">
        <ele>276.5</ele>
        <time>2021-07-29T16:00:23Z</time>
      </trkpt>
      <trkpt lat="48.76259" lon="6.16441">
        <ele>276.5</ele>
        <time>2021-07-29T16:00:25Z</time>
      </trkpt>
      <trkpt lat="48.7626" lon="6.16442">
        <ele>276.5</ele>
        <time>2021-07-29T16:00:26Z</time>
      </trkpt>
      <trkpt lat="48.7626" lon="6.16442">
        <ele>276.5</ele>
        <time>2021-07-29T16:00:27Z</time>
      </trkpt>
      <trkpt lat="48.7626" lon="6.16442">
        <ele>276.5</ele>
        <time>2021-07-29T16:00:28Z</time>
      </trkpt>
      <trkpt lat="48.7626" lon="6.16443">
        <ele>276.5</ele>
        <time>2021-07-29T16:00:29Z</time>
      </trkpt>
      <trkpt lat="48.7626" lon="6.16444">
        <ele>276.5</ele>
        <time>2021-07-29T16:00:31Z</time>
      </trkpt>
      <trkpt lat="48.7626" lon="6.16444">
        <ele>276.5</ele>
        <time>2021-07-29T16:00:32Z</time>
      </trkpt>
      <trkpt lat="48.7626" lon="6.16445">
        <ele>276.9</ele>
        <time>2021-07-29T16:00:33Z</time>
      </trkpt>
      <trkpt lat="48.76261" lon="6.16447">
        <ele>276.9</ele>
        <time>2021-07-29T16:00:34Z</time>
      </trkpt>
      <trkpt lat="48.76261" lon="6.16448">
        <ele>276.9</ele>
        <time>2021-07-29T16:00:35Z</time>
      </trkpt>
      <trkpt lat="48.76261" lon="6.16449">
        <ele>277.4</ele>
        <time>2021-07-29T16:00:37Z</time>
      </trkpt>
      <trkpt lat="48.76261" lon="6.1645">
        <ele>277.4</ele>
        <time>2021-07-29T16:00:38Z</time>
      </trkpt>
      <trkpt lat="48.76262" lon="6.16451">
        <ele>277.4</ele>
        <time>2021-07-29T16:00:39Z</time>
      </trkpt>
      <trkpt lat="48.76263" lon="6.16455">
        <ele>277.8</ele>
        <time>2021-07-29T16:00:40Z</time>
      </trkpt>
      <trkpt lat="48.76263" lon="6.16457">
        <ele>277.8</ele>
        <time>2021-07-29T16:00:41Z</time>
      </trkpt>
      <trkpt lat="48.76263" lon="6.16462">
        <ele>278.2</ele>
        <time>2021-07-29T16:00:43Z</time>
      </trkpt>
      <trkpt lat="48.76265" lon="6.16466">
        <ele>278.7</ele>
        <time>2021-07-29T16:00:45Z</time>
      </trkpt>
      <trkpt lat="48.76266" lon="6.16467">
        <ele>279.2</ele>
        <time>2021-07-29T16:00:46Z</time>
      </trkpt>
      <trkpt lat="48.76267" lon="6.16469">
        <ele>279.2</ele>
        <time>2021-07-29T16:00:47Z</time>
      </trkpt>
      <trkpt lat="48.76268" lon="6.16471">
        <ele>279.8</ele>
        <time>2021-07-29T16:00:49Z</time>
      </trkpt>
      <trkpt lat="48.76268" lon="6.16472">
        <ele>279.8</ele>
        <time>2021-07-29T16:00:50Z</time>
      </trkpt>
      <trkpt lat="48.76268" lon="6.16473">
        <ele>279.8</ele>
        <time>2021-07-29T16:00:51Z</time>
      </trkpt>
      <trkpt lat="48.76269" lon="6.16474">
        <ele>279.8</ele>
        <time>2021-07-29T16:00:52Z</time>
      </trkpt>
      <trkpt lat="48.76269" lon="6.16474">
        <ele>279.8</ele>
        <time>2021-07-29T16:00:53Z</time>
      </trkpt>
      <trkpt lat="48.76269" lon="6.16475">
        <ele>280.3</ele>
        <time>2021-07-29T16:00:54Z</time>
      </trkpt>
      <trkpt lat="48.76269" lon="6.16475">
        <ele>280.3</ele>
        <time>2021-07-29T16:00:55Z</time>
      </trkpt>
      <trkpt lat="48.7627" lon="6.16475">
        <ele>280.4</ele>
        <time>2021-07-29T16:00:56Z</time>
      </trkpt>
      <trkpt lat="48.76273" lon="6.16476">
        <ele>280.6</ele>
        <time>2021-07-29T16:00:58Z</time>
      </trkpt>
      <trkpt lat="48.76275" lon="6.16476">
        <ele>280.6</ele>
        <time>2021-07-29T16:00:59Z</time>
      </trkpt>
      <trkpt lat="48.76276" lon="6.16476">
        <ele>280.9</ele>
        <time>2021-07-29T16:01:00Z</time>
      </trkpt>
      <trkpt lat="48.76276" lon="6.16476">
        <ele>280.9</ele>
        <time>2021-07-29T16:01:01Z</time>
      </trkpt>
      <trkpt lat="48.76278" lon="6.16476">
        <ele>280.9</ele>
        <time>2021-07-29T16:01:03Z</time>
      </trkpt>
      <trkpt lat="48.76278" lon="6.16476">
        <ele>280.9</ele>
        <time>2021-07-29T16:01:04Z</time>
      </trkpt>
      <trkpt lat="48.76279" lon="6.16477">
        <ele>281.1</ele>
        <time>2021-07-29T16:01:05Z</time>
      </trkpt>
      <trkpt lat="48.76279" lon="6.16477">
        <ele>281.1</ele>
        <time>2021-07-29T16:01:07Z</time>
      </trkpt>
      <trkpt lat="48.7628" lon="6.16478">
        <ele>281.1</ele>
        <time>2021-07-29T16:01:08Z</time>
      </trkpt>
      <trkpt lat="48.7628" lon="6.16478">
        <ele>281.1</ele>
        <time>2021-07-29T16:01:10Z</time>
      </trkpt>
      <trkpt lat="48.76281" lon="6.16479">
        <ele>281.1</ele>
        <time>2021-07-29T16:01:11Z</time>
      </trkpt>
      <trkpt lat="48.76281" lon="6.16479">
        <ele>281.8</ele>
        <time>2021-07-29T16:01:12Z</time>
      </trkpt>
      <trkpt lat="48.76282" lon="6.1648">
        <ele>281.8</ele>
        <time>2021-07-29T16:01:14Z</time>
      </trkpt>
      <trkpt lat="48.76282" lon="6.1648">
        <ele>281.8</ele>
        <time>2021-07-29T16:01:15Z</time>
      </trkpt>
      <trkpt lat="48.76284" lon="6.16485">
        <ele>282.5</ele>
        <time>2021-07-29T16:01:17Z</time>
      </trkpt>
      <trkpt lat="48.76284" lon="6.16486">
        <ele>282.5</ele>
        <time>2021-07-29T16:01:18Z</time>
      </trkpt>
      <trkpt lat="48.76285" lon="6.16488">
        <ele>282.9</ele>
        <time>2021-07-29T16:01:19Z</time>
      </trkpt>
      <trkpt lat="48.76285" lon="6.1649">
        <ele>282.9</ele>
        <time>2021-07-29T16:01:21Z</time>
      </trkpt>
      <trkpt lat="48.76286" lon="6.16491">
        <ele>282.9</ele>
        <time>2021-07-29T16:01:22Z</time>
      </trkpt>
      <trkpt lat="48.76286" lon="6.16492">
        <ele>282.9</ele>
        <time>2021-07-29T16:01:23Z</time>
      </trkpt>
      <trkpt lat="48.76286" lon="6.16492">
        <ele>283.3</ele>
        <time>2021-07-29T16:01:25Z</time>
      </trkpt>
      <trkpt lat="48.76286" lon="6.16492">
        <ele>283.3</ele>
        <time>2021-07-29T16:01:26Z</time>
      </trkpt>
      <trkpt lat="48.76286" lon="6.16493">
        <ele>283.3</ele>
        <time>2021-07-29T16:01:27Z</time>
      </trkpt>
      <trkpt lat="48.76286" lon="6.16493">
        <ele>283.3</ele>
        <time>2021-07-29T16:01:29Z</time>
      </trkpt>
      <trkpt lat="48.76286" lon="6.16494">
        <ele>283.3</ele>
        <time>2021-07-29T16:01:30Z</time>
      </trkpt>
      <trkpt lat="48.76288" lon="6.16496">
        <ele>283.5</ele>
        <time>2021-07-29T16:01:31Z</time>
      </trkpt>
      <trkpt lat="48.76288" lon="6.16498">
        <ele>284</ele>
        <time>2021-07-29T16:01:32Z</time>
      </trkpt>
      <trkpt lat="48.76289" lon="6.165">
        <ele>284.4</ele>
        <time>2021-07-29T16:01:34Z</time>
      </trkpt>
      <trkpt lat="48.7629" lon="6.16502">
        <ele>284.7</ele>
        <time>2021-07-29T16:01:35Z</time>
      </trkpt>
      <trkpt lat="48.7629" lon="6.16504">
        <ele>284.7</ele>
        <time>2021-07-29T16:01:36Z</time>
      </trkpt>
      <trkpt lat="48.7629" lon="6.16505">
        <ele>285.1</ele>
        <time>2021-07-29T16:01:38Z</time>
      </trkpt>
      <trkpt lat="48.7629" lon="6.16506">
        <ele>285.1</ele>
        <time>2021-07-29T16:01:39Z</time>
      </trkpt>
      <trkpt lat="48.76291" lon="6.16506">
        <ele>285.1</ele>
        <time>2021-07-29T16:01:40Z</time>
      </trkpt>
      <trkpt lat="48.76291" lon="6.16508">
        <ele>285.1</ele>
        <time>2021-07-29T16:01:41Z</time>
      </trkpt>
      <trkpt lat="48.76291" lon="6.16511">
        <ele>285.6</ele>
        <time>2021-07-29T16:01:42Z</time>
      </trkpt>
      <trkpt lat="48.76292" lon="6.16515">
        <ele>286.1</ele>
        <time>2021-07-29T16:01:43Z</time>
      </trkpt>
      <trkpt lat="48.76293" lon="6.1652">
        <ele>286.7</ele>
        <time>2021-07-29T16:01:45Z</time>
      </trkpt>
      <trkpt lat="48.76293" lon="6.16521">
        <ele>286.7</ele>
        <time>2021-07-29T16:01:46Z</time>
      </trkpt>
      <trkpt lat="48.76295" lon="6.16526">
        <ele>287.4</ele>
        <time>2021-07-29T16:01:47Z</time>
      </trkpt>
      <trkpt lat="48.76296" lon="6.16528">
        <ele>287.8</ele>
        <time>2021-07-29T16:01:48Z</time>
      </trkpt>
      <trkpt lat="48.76298" lon="6.16533">
        <ele>288.2</ele>
        <time>2021-07-29T16:01:50Z</time>
      </trkpt>
      <trkpt lat="48.76298" lon="6.16537">
        <ele>288.9</ele>
        <time>2021-07-29T16:01:52Z</time>
      </trkpt>
      <trkpt lat="48.76299" lon="6.16538">
        <ele>288.9</ele>
        <time>2021-07-29T16:01:53Z</time>
      </trkpt>
      <trkpt lat="48.763" lon="6.16542">
        <ele>289.4</ele>
        <time>2021-07-29T16:01:55Z</time>
      </trkpt>
      <trkpt lat="48.76299" lon="6.16545">
        <ele>289.9</ele>
        <time>2021-07-29T16:01:56Z</time>
      </trkpt>
      <trkpt lat="48.763" lon="6.16548">
        <ele>290.5</ele>
        <time>2021-07-29T16:01:58Z</time>
      </trkpt>
      <trkpt lat="48.763" lon="6.1655">
        <ele>290.5</ele>
        <time>2021-07-29T16:01:59Z</time>
      </trkpt>
      <trkpt lat="48.763" lon="6.16553">
        <ele>291.2</ele>
        <time>2021-07-29T16:02:01Z</time>
      </trkpt>
      <trkpt lat="48.763" lon="6.16554">
        <ele>291.2</ele>
        <time>2021-07-29T16:02:02Z</time>
      </trkpt>
      <trkpt lat="48.763" lon="6.16555">
        <ele>291.2</ele>
        <time>2021-07-29T16:02:03Z</time>
      </trkpt>
      <trkpt lat="48.763" lon="6.16555">
        <ele>291.2</ele>
        <time>2021-07-29T16:02:05Z</time>
      </trkpt>
      <trkpt lat="48.76301" lon="6.16556">
        <ele>291.2</ele>
        <time>2021-07-29T16:02:06Z</time>
      </trkpt>
      <trkpt lat="48.76301" lon="6.16556">
        <ele>291.2</ele>
        <time>2021-07-29T16:02:07Z</time>
      </trkpt>
      <trkpt lat="48.763" lon="6.16557">
        <ele>291.9</ele>
        <time>2021-07-29T16:02:09Z</time>
      </trkpt>
      <trkpt lat="48.76301" lon="6.16557">
        <ele>291.9</ele>
        <time>2021-07-29T16:02:10Z</time>
      </trkpt>
      <trkpt lat="48.76297" lon="6.16564">
        <ele>292.3</ele>
        <time>2021-07-29T16:02:11Z</time>
      </trkpt>
      <trkpt lat="48.76294" lon="6.16572">
        <ele>293.1</ele>
        <time>2021-07-29T16:02:13Z</time>
      </trkpt>
      <trkpt lat="48.76291" lon="6.16579">
        <ele>293.8</ele>
        <time>2021-07-29T16:02:15Z</time>
      </trkpt>
      <trkpt lat="48.76288" lon="6.16586">
        <ele>294</ele>
        <time>2021-07-29T16:13:24Z</time>
      </trkpt>
      <trkpt lat="48.76285" lon="6.16593">
        <ele>294.7</ele>
        <time>2021-07-29T16:13:25Z</time>
      </trkpt>
      <trkpt lat="48.76283" lon="6.16589">
        <ele>294</ele>
        <time>2021-07-29T16:13:27Z</time>
      </trkpt>
      <trkpt lat="48.76283" lon="6.16588">
        <ele>294</ele>
        <time>2021-07-29T16:13:28Z</time>
      </trkpt>
      <trkpt lat="48.76281" lon="6.16584">
        <ele>293.5</ele>
        <time>2021-07-29T16:13:29Z</time>
      </trkpt>
      <trkpt lat="48.76279" lon="6.16577">
        <ele>292.1</ele>
        <time>2021-07-29T16:13:31Z</time>
      </trkpt>
      <trkpt lat="48.76276" lon="6.16578">
        <ele>292.3</ele>
        <time>2021-07-29T16:13:33Z</time>
      </trkpt>
      <trkpt lat="48.76275" lon="6.16578">
        <ele>292</ele>
        <time>2021-07-29T16:13:34Z</time>
      </trkpt>
      <trkpt lat="48.76274" lon="6.16581">
        <ele>292</ele>
        <time>2021-07-29T16:13:36Z</time>
      </trkpt>
      <trkpt lat="48.76274" lon="6.16581">
        <ele>292</ele>
        <time>2021-07-29T16:13:38Z</time>
      </trkpt>
      <trkpt lat="48.76274" lon="6.16582">
        <ele>292</ele>
        <time>2021-07-29T16:13:39Z</time>
      </trkpt>
      <trkpt lat="48.76274" lon="6.16582">
        <ele>292</ele>
        <time>2021-07-29T16:13:41Z</time>
      </trkpt>
      <trkpt lat="48.76274" lon="6.16582">
        <ele>292.5</ele>
        <time>2021-07-29T16:13:42Z</time>
      </trkpt>
      <trkpt lat="48.76275" lon="6.16584">
        <ele>292.5</ele>
        <time>2021-07-29T16:13:44Z</time>
      </trkpt>
      <trkpt lat="48.76247" lon="6.16446">
        <ele>274.5</ele>
        <time>2021-07-30T07:32:13Z</time>
      </trkpt>
      <trkpt lat="48.76247" lon="6.16446">
        <ele>274.5</ele>
        <time>2021-07-30T07:32:13Z</time>
      </trkpt>
      <trkpt lat="48.7627" lon="6.16472">
        <ele>277.7</ele>
        <time>2021-07-30T07:32:19Z</time>
      </trkpt>
      <trkpt lat="48.76292" lon="6.16491">
        <ele>281.1</ele>
        <time>2021-07-30T07:32:20Z</time>
      </trkpt>
      <trkpt lat="48.76314" lon="6.1651">
        <ele>285.2</ele>
        <time>2021-07-30T07:32:22Z</time>
      </trkpt>
      <trkpt lat="48.76318" lon="6.16511">
        <ele>285.5</ele>
        <time>2021-07-30T07:32:24Z</time>
      </trkpt>
      <trkpt lat="48.7632" lon="6.16575">
        <ele>293.3</ele>
        <time>2021-07-30T07:32:25Z</time>
      </trkpt>
      <trkpt lat="48.76321" lon="6.16594">
        <ele>295.2</ele>
        <time>2021-07-30T07:32:26Z</time>
      </trkpt>
      <trkpt lat="48.76322" lon="6.16629">
        <ele>299.6</ele>
        <time>2021-07-30T07:32:27Z</time>
      </trkpt>
      <trkpt lat="48.76322" lon="6.16658">
        <ele>303.1</ele>
        <time>2021-07-30T07:32:28Z</time>
      </trkpt>
      <trkpt lat="48.7632" lon="6.16647">
        <ele>302</ele>
        <time>2021-07-30T07:32:32Z</time>
      </trkpt>
      <trkpt lat="48.76318" lon="6.16643">
        <ele>301.4</ele>
        <time>2021-07-30T07:32:35Z</time>
      </trkpt>
      <trkpt lat="48.76316" lon="6.16638">
        <ele>299.9</ele>
        <time>2021-07-30T07:32:38Z</time>
      </trkpt>
      <trkpt lat="48.76259" lon="6.16447">
        <ele>274.6</ele>
        <time>2021-07-30T07:33:19Z</time>
      </trkpt>
      <trkpt lat="48.76262" lon="6.16441">
        <ele>274.2</ele>
        <time>2021-07-30T07:33:20Z</time>
      </trkpt>
      <trkpt lat="48.76266" lon="6.16431">
        <ele>273</ele>
        <time>2021-07-30T07:33:22Z</time>
      </trkpt>
      <trkpt lat="48.76269" lon="6.16423">
        <ele>272.8</ele>
        <time>2021-07-30T07:33:23Z</time>
      </trkpt>
      <trkpt lat="48.76272" lon="6.16417">
        <ele>272.6</ele>
        <time>2021-07-30T07:33:24Z</time>
      </trkpt>
      <trkpt lat="48.76275" lon="6.16413">
        <ele>272.4</ele>
        <time>2021-07-30T07:33:26Z</time>
      </trkpt>
      <trkpt lat="48.76277" lon="6.1641">
        <ele>272.2</ele>
        <time>2021-07-30T07:33:27Z</time>
      </trkpt>
      <trkpt lat="48.76279" lon="6.16408">
        <ele>272</ele>
        <time>2021-07-30T07:33:28Z</time>
      </trkpt>
      <trkpt lat="48.76284" lon="6.16405">
        <ele>271.5</ele>
        <time>2021-07-30T07:33:30Z</time>
      </trkpt>
      <trkpt lat="48.76287" lon="6.16402">
        <ele>271.5</ele>
        <time>2021-07-30T07:33:31Z</time>
      </trkpt>
      <trkpt lat="48.76291" lon="6.16399">
        <ele>271.5</ele>
        <time>2021-07-30T07:33:32Z</time>
      </trkpt>
      <trkpt lat="48.76296" lon="6.16395">
        <ele>271.5</ele>
        <time>2021-07-30T07:33:34Z</time>
      </trkpt>
      <trkpt lat="48.763" lon="6.16392">
        <ele>271.6</ele>
        <time>2021-07-30T07:33:35Z</time>
      </trkpt>
      <trkpt lat="48.76305" lon="6.16386">
        <ele>271.6</ele>
        <time>2021-07-30T07:33:36Z</time>
      </trkpt>
      <trkpt lat="48.76309" lon="6.16383">
        <ele>271.6</ele>
        <time>2021-07-30T07:33:37Z</time>
      </trkpt>
      <trkpt lat="48.76314" lon="6.16377">
        <ele>271.7</ele>
        <time>2021-07-30T07:33:39Z</time>
      </trkpt>
      <trkpt lat="48.7632" lon="6.16372">
        <ele>271.7</ele>
        <time>2021-07-30T07:33:40Z</time>
      </trkpt>
      <trkpt lat="48.76325" lon="6.16368">
        <ele>271.9</ele>
        <time>2021-07-30T07:33:41Z</time>
      </trkpt>
      <trkpt lat="48.76331" lon="6.16366">
        <ele>272.4</ele>
        <time>2021-07-30T07:33:42Z</time>
      </trkpt>
      <trkpt lat="48.76337" lon="6.16364">
        <ele>273</ele>
        <time>2021-07-30T07:33:43Z</time>
      </trkpt>
      <trkpt lat="48.76343" lon="6.16365">
        <ele>273.5</ele>
        <time>2021-07-30T07:33:44Z</time>
      </trkpt>
      <trkpt lat="48.76351" lon="6.1637">
        <ele>274.4</ele>
        <time>2021-07-30T07:33:45Z</time>
      </trkpt>
      <trkpt lat="48.76357" lon="6.16373">
        <ele>275.2</ele>
        <time>2021-07-30T07:33:46Z</time>
      </trkpt>
      <trkpt lat="48.76361" lon="6.16375">
        <ele>275.8</ele>
        <time>2021-07-30T07:33:47Z</time>
      </trkpt>
      <trkpt lat="48.76363" lon="6.16378">
        <ele>276.1</ele>
        <time>2021-07-30T07:33:48Z</time>
      </trkpt>
      <trkpt lat="48.76368" lon="6.16381">
        <ele>276.7</ele>
        <time>2021-07-30T07:33:50Z</time>
      </trkpt>
      <trkpt lat="48.76371" lon="6.16382">
        <ele>277.1</ele>
        <time>2021-07-30T07:33:51Z</time>
      </trkpt>
      <trkpt lat="48.76376" lon="6.16382">
        <ele>277.7</ele>
        <time>2021-07-30T07:33:52Z</time>
      </trkpt>
      <trkpt lat="48.7638" lon="6.16382">
        <ele>278.1</ele>
        <time>2021-07-30T07:33:53Z</time>
      </trkpt>
      <trkpt lat="48.76386" lon="6.16382">
        <ele>278.8</ele>
        <time>2021-07-30T07:33:55Z</time>
      </trkpt>
      <trkpt lat="48.76386" lon="6.16378">
        <ele>278.8</ele>
        <time>2021-07-30T07:33:57Z</time>
      </trkpt>
      <trkpt lat="48.76385" lon="6.16377">
        <ele>278.6</ele>
        <time>2021-07-30T07:33:58Z</time>
      </trkpt>
      <trkpt lat="48.76383" lon="6.16376">
        <ele>278.3</ele>
        <time>2021-07-30T07:33:59Z</time>
      </trkpt>
      <trkpt lat="48.76382" lon="6.16375">
        <ele>278.1</ele>
        <time>2021-07-30T07:34:00Z</time>
      </trkpt>
      <trkpt lat="48.76374" lon="6.1637">
        <ele>276.9</ele>
        <time>2021-07-30T07:34:02Z</time>
      </trkpt>
      <trkpt lat="48.76365" lon="6.16366">
        <ele>275.9</ele>
        <time>2021-07-30T07:34:04Z</time>
      </trkpt>
      <trkpt lat="48.76358" lon="6.16364">
        <ele>275.1</ele>
        <time>2021-07-30T07:34:05Z</time>
      </trkpt>
      <trkpt lat="48.76336" lon="6.16361">
        <ele>272.9</ele>
        <time>2021-07-30T07:34:06Z</time>
      </trkpt>
      <trkpt lat="48.76327" lon="6.16361">
        <ele>272.1</ele>
        <time>2021-07-30T07:34:07Z</time>
      </trkpt>
      <trkpt lat="48.76314" lon="6.16367">
        <ele>271.7</ele>
        <time>2021-07-30T07:34:09Z</time>
      </trkpt>
      <trkpt lat="48.76308" lon="6.1637">
        <ele>271.6</ele>
        <time>2021-07-30T07:34:11Z</time>
      </trkpt>
      <trkpt lat="48.76304" lon="6.16372">
        <ele>271.6</ele>
        <time>2021-07-30T07:34:12Z</time>
      </trkpt>
      <trkpt lat="48.76301" lon="6.16375">
        <ele>271.6</ele>
        <time>2021-07-30T07:34:13Z</time>
      </trkpt>
      <trkpt lat="48.76297" lon="6.16378">
        <ele>271.6</ele>
        <time>2021-07-30T07:34:15Z</time>
      </trkpt>
      <trkpt lat="48.76294" lon="6.1638">
        <ele>271.6</ele>
        <time>2021-07-30T07:34:16Z</time>
      </trkpt>
      <trkpt lat="48.76292" lon="6.16382">
        <ele>271.5</ele>
        <time>2021-07-30T07:34:17Z</time>
      </trkpt>
      <trkpt lat="48.76291" lon="6.16385">
        <ele>271.5</ele>
        <time>2021-07-30T07:34:19Z</time>
      </trkpt>
      <trkpt lat="48.76288" lon="6.16388">
        <ele>271.5</ele>
        <time>2021-07-30T07:34:20Z</time>
      </trkpt>
      <trkpt lat="48.76286" lon="6.16391">
        <ele>271.5</ele>
        <time>2021-07-30T07:34:21Z</time>
      </trkpt>
      <trkpt lat="48.76284" lon="6.16394">
        <ele>271.5</ele>
        <time>2021-07-30T07:34:22Z</time>
      </trkpt>
      <trkpt lat="48.7628" lon="6.16397">
        <ele>271.5</ele>
        <time>2021-07-30T07:34:23Z</time>
      </trkpt>
      <trkpt lat="48.76279" lon="6.16398">
        <ele>271.6</ele>
        <time>2021-07-30T07:34:24Z</time>
      </trkpt>
      <trkpt lat="48.76276" lon="6.16401">
        <ele>271.9</ele>
        <time>2021-07-30T07:34:26Z</time>
      </trkpt>
      <trkpt lat="48.76276" lon="6.16402">
        <ele>272</ele>
        <time>2021-07-30T07:34:27Z</time>
      </trkpt>
      <trkpt lat="48.76273" lon="6.16405">
        <ele>272.3</ele>
        <time>2021-07-30T07:34:28Z</time>
      </trkpt>
      <trkpt lat="48.76272" lon="6.16407">
        <ele>272.4</ele>
        <time>2021-07-30T07:34:29Z</time>
      </trkpt>
      <trkpt lat="48.7627" lon="6.1641">
        <ele>272.5</ele>
        <time>2021-07-30T07:34:30Z</time>
      </trkpt>
      <trkpt lat="48.76267" lon="6.16414">
        <ele>272.7</ele>
        <time>2021-07-30T07:34:32Z</time>
      </trkpt>
      <trkpt lat="48.76266" lon="6.16416">
        <ele>272.7</ele>
        <time>2021-07-30T07:34:33Z</time>
      </trkpt>
      <trkpt lat="48.76264" lon="6.16419">
        <ele>272.8</ele>
        <time>2021-07-30T07:34:34Z</time>
      </trkpt>
      <trkpt lat="48.76262" lon="6.16423">
        <ele>272.9</ele>
        <time>2021-07-30T07:34:35Z</time>
      </trkpt>
      <trkpt lat="48.76261" lon="6.16426">
        <ele>273</ele>
        <time>2021-07-30T07:34:37Z</time>
      </trkpt>
      <trkpt lat="48.76258" lon="6.16429">
        <ele>273.1</ele>
        <time>2021-07-30T07:34:38Z</time>
      </trkpt>
      <trkpt lat="48.76256" lon="6.1643">
        <ele>273.2</ele>
        <time>2021-07-30T07:34:39Z</time>
      </trkpt>
      <trkpt lat="48.76254" lon="6.16432">
        <ele>273.2</ele>
        <time>2021-07-30T07:34:41Z</time>
      </trkpt>
      <trkpt lat="48.76252" lon="6.16435">
        <ele>273.3</ele>
        <time>2021-07-30T07:34:42Z</time>
      </trkpt>
      <trkpt lat="48.76251" lon="6.1644">
        <ele>273.4</ele>
        <time>2021-07-30T07:34:44Z</time>
      </trkpt>
      <trkpt lat="48.7625" lon="6.16441">
        <ele>273.4</ele>
        <time>2021-07-30T07:34:45Z</time>
      </trkpt>
      <trkpt lat="48.76249" lon="6.16444">
        <ele>273.4</ele>
        <time>2021-07-30T07:34:47Z</time>
      </trkpt>
      <trkpt lat="48.76249" lon="6.16446">
        <ele>273.5</ele>
        <time>2021-07-30T07:34:48Z</time>
      </trkpt>
      <trkpt lat="48.76249" lon="6.16448">
        <ele>273.5</ele>
        <time>2021-07-30T07:34:49Z</time>
      </trkpt>
      <trkpt lat="48.7625" lon="6.16448">
        <ele>273.5</ele>
        <time>2021-07-30T07:34:50Z</time>
      </trkpt>
      <trkpt lat="48.7625" lon="6.16448">
        <ele>273.5</ele>
        <time>2021-07-30T07:34:52Z</time>
      </trkpt>
      <trkpt lat="48.7625" lon="6.16448">
        <ele>273.5</ele>
        <time>2021-07-30T07:34:53Z</time>
      </trkpt>
      <trkpt lat="48.7625" lon="6.16448">
        <ele>273.5</ele>
        <time>2021-07-30T07:34:54Z</time>
      </trkpt>
      <trkpt lat="48.76249" lon="6.1645">
        <ele>273.5</ele>
        <time>2021-07-30T07:34:56Z</time>
      </trkpt>
      <trkpt lat="48.76248" lon="6.16451">
        <ele>273.6</ele>
        <time>2021-07-30T07:34:57Z</time>
      </trkpt>
      <trkpt lat="48.76247" lon="6.16453">
        <ele>273.6</ele>
        <time>2021-07-30T07:34:59Z</time>
      </trkpt>
      <trkpt lat="48.76245" lon="6.16454">
        <ele>273.6</ele>
        <time>2021-07-30T07:38:21Z</time>
      </trkpt>
      <trkpt lat="48.76244" lon="6.16456">
        <ele>273.7</ele>
        <time>2021-07-30T07:38:22Z</time>
      </trkpt>
      <trkpt lat="48.7624" lon="6.16458">
        <ele>273.7</ele>
        <time>2021-07-30T07:38:23Z</time>
      </trkpt>
      <trkpt lat="48.76232" lon="6.16461">
        <ele>273.8</ele>
        <time>2021-07-30T07:38:25Z</time>
      </trkpt>
      <trkpt lat="48.76224" lon="6.16463">
        <ele>273.8</ele>
        <time>2021-07-30T07:38:27Z</time>
      </trkpt>
      <trkpt lat="48.76216" lon="6.16466">
        <ele>273.9</ele>
        <time>2021-07-30T07:38:29Z</time>
      </trkpt>
      <trkpt lat="48.76208" lon="6.16468">
        <ele>273.9</ele>
        <time>2021-07-30T07:38:31Z</time>
      </trkpt>
      <trkpt lat="48.762" lon="6.16469">
        <ele>274</ele>
        <time>2021-07-30T07:38:33Z</time>
      </trkpt>
      <trkpt lat="48.76194" lon="6.1647">
        <ele>274</ele>
        <time>2021-07-30T07:38:35Z</time>
      </trkpt>
      <trkpt lat="48.7619" lon="6.1647">
        <ele>273.9</ele>
        <time>2021-07-30T07:38:36Z</time>
      </trkpt>
      <trkpt lat="48.76187" lon="6.16471">
        <ele>273.9</ele>
        <time>2021-07-30T07:38:37Z</time>
      </trkpt>
      <trkpt lat="48.76184" lon="6.16471">
        <ele>273.8</ele>
        <time>2021-07-30T07:38:38Z</time>
      </trkpt>
      <trkpt lat="48.76179" lon="6.16472">
        <ele>273.8</ele>
        <time>2021-07-30T07:38:40Z</time>
      </trkpt>
      <trkpt lat="48.76175" lon="6.16473">
        <ele>273.7</ele>
        <time>2021-07-30T07:38:41Z</time>
      </trkpt>
      <trkpt lat="48.76169" lon="6.16476">
        <ele>273.6</ele>
        <time>2021-07-30T07:38:43Z</time>
      </trkpt>
      <trkpt lat="48.76166" lon="6.16477">
        <ele>273.6</ele>
        <time>2021-07-30T07:38:44Z</time>
      </trkpt>
      <trkpt lat="48.76162" lon="6.16479">
        <ele>273.7</ele>
        <time>2021-07-30T07:38:45Z</time>
      </trkpt>
      <trkpt lat="48.76155" lon="6.16482">
        <ele>274</ele>
        <time>2021-07-30T07:38:47Z</time>
      </trkpt>
      <trkpt lat="48.7615" lon="6.16485">
        <ele>274.2</ele>
        <time>2021-07-30T07:38:48Z</time>
      </trkpt>
      <trkpt lat="48.76142" lon="6.1649">
        <ele>274.5</ele>
        <time>2021-07-30T07:38:50Z</time>
      </trkpt>
      <trkpt lat="48.76139" lon="6.16492">
        <ele>274.6</ele>
        <time>2021-07-30T07:38:51Z</time>
      </trkpt>
      <trkpt lat="48.76136" lon="6.16495">
        <ele>274.7</ele>
        <time>2021-07-30T07:38:52Z</time>
      </trkpt>
      <trkpt lat="48.76136" lon="6.16502">
        <ele>274.9</ele>
        <time>2021-07-30T07:38:54Z</time>
      </trkpt>
      <trkpt lat="48.76137" lon="6.16501">
        <ele>274.9</ele>
        <time>2021-07-30T07:38:56Z</time>
      </trkpt>
      <trkpt lat="48.76138" lon="6.165">
        <ele>274.4</ele>
        <time>2021-07-30T07:38:57Z</time>
      </trkpt>
      <trkpt lat="48.76138" lon="6.16499">
        <ele>274.5</ele>
        <time>2021-07-30T07:38:58Z</time>
      </trkpt>
      <trkpt lat="48.76138" lon="6.16504">
        <ele>275</ele>
        <time>2021-07-30T07:39:00Z</time>
      </trkpt>
      <trkpt lat="48.76138" lon="6.16509">
        <ele>275.9</ele>
        <time>2021-07-30T07:39:01Z</time>
      </trkpt>
      <trkpt lat="48.76138" lon="6.16515">
        <ele>276.4</ele>
        <time>2021-07-30T07:39:02Z</time>
      </trkpt>
      <trkpt lat="48.76137" lon="6.1652">
        <ele>277</ele>
        <time>2021-07-30T07:39:03Z</time>
      </trkpt>
      <trkpt lat="48.76137" lon="6.16525">
        <ele>277.5</ele>
        <time>2021-07-30T07:39:05Z</time>
      </trkpt>
      <trkpt lat="48.76136" lon="6.16531">
        <ele>278.5</ele>
        <time>2021-07-30T07:40:02Z</time>
      </trkpt>
      <trkpt lat="48.76136" lon="6.16536">
        <ele>279</ele>
        <time>2021-07-30T07:40:03Z</time>
      </trkpt>
      <trkpt lat="48.7613" lon="6.1654">
        <ele>279.4</ele>
        <time>2021-07-30T07:40:04Z</time>
      </trkpt>
      <trkpt lat="48.76126" lon="6.16544">
        <ele>279.9</ele>
        <time>2021-07-30T07:40:05Z</time>
      </trkpt>
      <trkpt lat="48.76119" lon="6.1655">
        <ele>280.2</ele>
        <time>2021-07-30T07:40:07Z</time>
      </trkpt>
      <trkpt lat="48.76116" lon="6.16554">
        <ele>280.7</ele>
        <time>2021-07-30T07:40:08Z</time>
      </trkpt>
      <trkpt lat="48.76111" lon="6.16557">
        <ele>281.1</ele>
        <time>2021-07-30T07:40:10Z</time>
      </trkpt>
      <trkpt lat="48.76107" lon="6.16558">
        <ele>280.8</ele>
        <time>2021-07-30T07:40:11Z</time>
      </trkpt>
      <trkpt lat="48.76104" lon="6.16558">
        <ele>280.7</ele>
        <time>2021-07-30T07:40:12Z</time>
      </trkpt>
      <trkpt lat="48.761" lon="6.16559">
        <ele>280.4</ele>
        <time>2021-07-30T07:40:14Z</time>
      </trkpt>
      <trkpt lat="48.76097" lon="6.1656">
        <ele>280.3</ele>
        <time>2021-07-30T07:40:15Z</time>
      </trkpt>
      <trkpt lat="48.76093" lon="6.16562">
        <ele>280.7</ele>
        <time>2021-07-30T07:40:17Z</time>
      </trkpt>
      <trkpt lat="48.7609" lon="6.16563">
        <ele>280.6</ele>
        <time>2021-07-30T07:40:18Z</time>
      </trkpt>
      <trkpt lat="48.76086" lon="6.16566">
        <ele>281</ele>
        <time>2021-07-30T07:40:19Z</time>
      </trkpt>
      <trkpt lat="48.76083" lon="6.16568">
        <ele>281</ele>
        <time>2021-07-30T07:40:20Z</time>
      </trkpt>
      <trkpt lat="48.76077" lon="6.16569">
        <ele>281.3</ele>
        <time>2021-07-30T07:40:22Z</time>
      </trkpt>
      <trkpt lat="48.76073" lon="6.16568">
        <ele>280.7</ele>
        <time>2021-07-30T07:40:23Z</time>
      </trkpt>
      <trkpt lat="48.76068" lon="6.16567">
        <ele>280.7</ele>
        <time>2021-07-30T07:40:25Z</time>
      </trkpt>
      <trkpt lat="48.76064" lon="6.16566">
        <ele>280.6</ele>
        <time>2021-07-30T07:40:26Z</time>
      </trkpt>
      <trkpt lat="48.76059" lon="6.16563">
        <ele>280.1</ele>
        <time>2021-07-30T07:40:27Z</time>
      </trkpt>
      <trkpt lat="48.76054" lon="6.1656">
        <ele>279.6</ele>
        <time>2021-07-30T07:40:29Z</time>
      </trkpt>
      <trkpt lat="48.7605" lon="6.16558">
        <ele>279.6</ele>
        <time>2021-07-30T07:40:30Z</time>
      </trkpt>
      <trkpt lat="48.76045" lon="6.16555">
        <ele>279.2</ele>
        <time>2021-07-30T07:40:32Z</time>
      </trkpt>
      <trkpt lat="48.76042" lon="6.16552">
        <ele>279.2</ele>
        <time>2021-07-30T07:40:33Z</time>
      </trkpt>
      <trkpt lat="48.7604" lon="6.16551">
        <ele>278.8</ele>
        <time>2021-07-30T07:40:34Z</time>
      </trkpt>
      <trkpt lat="48.7604" lon="6.16551">
        <ele>278.9</ele>
        <time>2021-07-30T07:40:36Z</time>
      </trkpt>
      <trkpt lat="48.7604" lon="6.16554">
        <ele>279.4</ele>
        <time>2021-07-30T07:40:37Z</time>
      </trkpt>
      <trkpt lat="48.7604" lon="6.16555">
        <ele>279.4</ele>
        <time>2021-07-30T07:40:38Z</time>
      </trkpt>
      <trkpt lat="48.76039" lon="6.16556">
        <ele>279.4</ele>
        <time>2021-07-30T07:40:39Z</time>
      </trkpt>
      <trkpt lat="48.76035" lon="6.16557">
        <ele>280</ele>
        <time>2021-07-30T07:40:41Z</time>
      </trkpt>
      <trkpt lat="48.76031" lon="6.16558">
        <ele>280.1</ele>
        <time>2021-07-30T07:40:42Z</time>
      </trkpt>
      <trkpt lat="48.76027" lon="6.16558">
        <ele>280.1</ele>
        <time>2021-07-30T07:40:44Z</time>
      </trkpt>
      <trkpt lat="48.76023" lon="6.16559">
        <ele>280.1</ele>
        <time>2021-07-30T07:42:59Z</time>
      </trkpt>
      <trkpt lat="48.76019" lon="6.16559">
        <ele>280.1</ele>
        <time>2021-07-30T07:43:00Z</time>
      </trkpt>
      <trkpt lat="48.76013" lon="6.16559">
        <ele>280.1</ele>
        <time>2021-07-30T07:43:01Z</time>
      </trkpt>
      <trkpt lat="48.76005" lon="6.16557">
        <ele>280.1</ele>
        <time>2021-07-30T07:43:03Z</time>
      </trkpt>
      <trkpt lat="48.75998" lon="6.16557">
        <ele>280</ele>
        <time>2021-07-30T07:43:04Z</time>
      </trkpt>
      <trkpt lat="48.75989" lon="6.16556">
        <ele>280</ele>
        <time>2021-07-30T07:43:05Z</time>
      </trkpt>
      <trkpt lat="48.75979" lon="6.16557">
        <ele>280</ele>
        <time>2021-07-30T07:43:07Z</time>
      </trkpt>
      <trkpt lat="48.75973" lon="6.16557">
        <ele>280.1</ele>
        <time>2021-07-30T07:43:08Z</time>
      </trkpt>
      <trkpt lat="48.75966" lon="6.16556">
        <ele>280.1</ele>
        <time>2021-07-30T07:43:10Z</time>
      </trkpt>
      <trkpt lat="48.7596" lon="6.16557">
        <ele>280.2</ele>
        <time>2021-07-30T07:43:11Z</time>
      </trkpt>
      <trkpt lat="48.75956" lon="6.16559">
        <ele>280.3</ele>
        <time>2021-07-30T07:43:12Z</time>
      </trkpt>
      <trkpt lat="48.75951" lon="6.16561">
        <ele>280.3</ele>
        <time>2021-07-30T07:43:14Z</time>
      </trkpt>
      <trkpt lat="48.75945" lon="6.16561">
        <ele>280.3</ele>
        <time>2021-07-30T07:43:15Z</time>
      </trkpt>
      <trkpt lat="48.75941" lon="6.16563">
        <ele>280.3</ele>
        <time>2021-07-30T07:43:17Z</time>
      </trkpt>
      <trkpt lat="48.75936" lon="6.16566">
        <ele>280.3</ele>
        <time>2021-07-30T07:43:18Z</time>
      </trkpt>
      <trkpt lat="48.75932" lon="6.16567">
        <ele>280.3</ele>
        <time>2021-07-30T07:43:19Z</time>
      </trkpt>
      <trkpt lat="48.75928" lon="6.16568">
        <ele>280.4</ele>
        <time>2021-07-30T07:43:20Z</time>
      </trkpt>
      <trkpt lat="48.75923" lon="6.16569">
        <ele>280.4</ele>
        <time>2021-07-30T07:43:22Z</time>
      </trkpt>
      <trkpt lat="48.75921" lon="6.16568">
        <ele>280.4</ele>
        <time>2021-07-30T07:43:23Z</time>
      </trkpt>
      <trkpt lat="48.75915" lon="6.16565">
        <ele>280.4</ele>
        <time>2021-07-30T07:43:25Z</time>
      </trkpt>
      <trkpt lat="48.75912" lon="6.16565">
        <ele>280.3</ele>
        <time>2021-07-30T07:43:26Z</time>
      </trkpt>
      <trkpt lat="48.75905" lon="6.16564">
        <ele>280.3</ele>
        <time>2021-07-30T07:43:28Z</time>
      </trkpt>
      <trkpt lat="48.75897" lon="6.16564">
        <ele>280.8</ele>
        <time>2021-07-30T07:43:30Z</time>
      </trkpt>
      <trkpt lat="48.7589" lon="6.16567">
        <ele>281.5</ele>
        <time>2021-07-30T07:43:32Z</time>
      </trkpt>
      <trkpt lat="48.75887" lon="6.16569">
        <ele>281.7</ele>
        <time>2021-07-30T07:43:33Z</time>
      </trkpt>
      <trkpt lat="48.75883" lon="6.1657">
        <ele>282</ele>
        <time>2021-07-30T07:43:34Z</time>
      </trkpt>
      <trkpt lat="48.75879" lon="6.1657">
        <ele>282.3</ele>
        <time>2021-07-30T07:43:36Z</time>
      </trkpt>
      <trkpt lat="48.75876" lon="6.16569">
        <ele>282.6</ele>
        <time>2021-07-30T07:43:37Z</time>
      </trkpt>
      <trkpt lat="48.75874" lon="6.1657">
        <ele>282.7</ele>
        <time>2021-07-30T07:43:38Z</time>
      </trkpt>
      <trkpt lat="48.75869" lon="6.16571">
        <ele>283.1</ele>
        <time>2021-07-30T07:43:40Z</time>
      </trkpt>
      <trkpt lat="48.75866" lon="6.1657">
        <ele>283.3</ele>
        <time>2021-07-30T07:43:41Z</time>
      </trkpt>
      <trkpt lat="48.7586" lon="6.16569">
        <ele>283.7</ele>
        <time>2021-07-30T07:43:43Z</time>
      </trkpt>
      <trkpt lat="48.75858" lon="6.16569">
        <ele>283.9</ele>
        <time>2021-07-30T07:43:44Z</time>
      </trkpt>
      <trkpt lat="48.75857" lon="6.16569">
        <ele>283.9</ele>
        <time>2021-07-30T07:43:45Z</time>
      </trkpt>
      <trkpt lat="48.75852" lon="6.1657">
        <ele>284.3</ele>
        <time>2021-07-30T07:43:47Z</time>
      </trkpt>
      <trkpt lat="48.75851" lon="6.16573">
        <ele>284.4</ele>
        <time>2021-07-30T07:43:48Z</time>
      </trkpt>
      <trkpt lat="48.75849" lon="6.16574">
        <ele>284.5</ele>
        <time>2021-07-30T07:43:49Z</time>
      </trkpt>
      <trkpt lat="48.75847" lon="6.16577">
        <ele>284.7</ele>
        <time>2021-07-30T07:43:51Z</time>
      </trkpt>
      <trkpt lat="48.75846" lon="6.16577">
        <ele>284.8</ele>
        <time>2021-07-30T07:43:52Z</time>
      </trkpt>
      <trkpt lat="48.75845" lon="6.16578">
        <ele>284.9</ele>
        <time>2021-07-30T07:43:53Z</time>
      </trkpt>
      <trkpt lat="48.75842" lon="6.1658">
        <ele>285.1</ele>
        <time>2021-07-30T07:43:55Z</time>
      </trkpt>
      <trkpt lat="48.75841" lon="6.16581">
        <ele>285.1</ele>
        <time>2021-07-30T07:43:56Z</time>
      </trkpt>
      <trkpt lat="48.75841" lon="6.16583">
        <ele>285.2</ele>
        <time>2021-07-30T07:43:58Z</time>
      </trkpt>
      <trkpt lat="48.7584" lon="6.16584">
        <ele>285.3</ele>
        <time>2021-07-30T07:43:59Z</time>
      </trkpt>
      <trkpt lat="48.75839" lon="6.16584">
        <ele>285.4</ele>
        <time>2021-07-30T07:44:00Z</time>
      </trkpt>
      <trkpt lat="48.75838" lon="6.16584">
        <ele>285.5</ele>
        <time>2021-07-30T07:44:02Z</time>
      </trkpt>
      <trkpt lat="48.75837" lon="6.16585">
        <ele>285.6</ele>
        <time>2021-07-30T07:44:04Z</time>
      </trkpt>
      <trkpt lat="48.75834" lon="6.16585">
        <ele>285.7</ele>
        <time>2021-07-30T07:44:05Z</time>
      </trkpt>
      <trkpt lat="48.75834" lon="6.16587">
        <ele>285.8</ele>
        <time>2021-07-30T07:44:07Z</time>
      </trkpt>
      <trkpt lat="48.75834" lon="6.16587">
        <ele>285.8</ele>
        <time>2021-07-30T07:44:08Z</time>
      </trkpt>
      <trkpt lat="48.75834" lon="6.16588">
        <ele>285.9</ele>
        <time>2021-07-30T07:44:09Z</time>
      </trkpt>
      <trkpt lat="48.75833" lon="6.16589">
        <ele>285.9</ele>
        <time>2021-07-30T07:44:10Z</time>
      </trkpt>
      <trkpt lat="48.75833" lon="6.1659">
        <ele>286</ele>
        <time>2021-07-30T07:44:11Z</time>
      </trkpt>
      <trkpt lat="48.75832" lon="6.1659">
        <ele>286</ele>
        <time>2021-07-30T07:44:13Z</time>
      </trkpt>
      <trkpt lat="48.75832" lon="6.1659">
        <ele>286</ele>
        <time>2021-07-30T07:44:14Z</time>
      </trkpt>
      <trkpt lat="48.75831" lon="6.1659">
        <ele>286.1</ele>
        <time>2021-07-30T07:44:15Z</time>
      </trkpt>
      <trkpt lat="48.75829" lon="6.1659">
        <ele>286.2</ele>
        <time>2021-07-30T07:44:16Z</time>
      </trkpt>
      <trkpt lat="48.75827" lon="6.1659">
        <ele>286.2</ele>
        <time>2021-07-30T07:44:17Z</time>
      </trkpt>
      <trkpt lat="48.75824" lon="6.1659">
        <ele>286.1</ele>
        <time>2021-07-30T07:44:18Z</time>
      </trkpt>
      <trkpt lat="48.75816" lon="6.16589">
        <ele>285.8</ele>
        <time>2021-07-30T07:44:20Z</time>
      </trkpt>
      <trkpt lat="48.75812" lon="6.16589">
        <ele>285.7</ele>
        <time>2021-07-30T07:44:21Z</time>
      </trkpt>
      <trkpt lat="48.75803" lon="6.16589">
        <ele>285.4</ele>
        <time>2021-07-30T07:44:23Z</time>
      </trkpt>
      <trkpt lat="48.75794" lon="6.16586">
        <ele>285.1</ele>
        <time>2021-07-30T07:44:25Z</time>
      </trkpt>
      <trkpt lat="48.75786" lon="6.16583">
        <ele>284.7</ele>
        <time>2021-07-30T07:44:27Z</time>
      </trkpt>
      <trkpt lat="48.75781" lon="6.1658">
        <ele>284.5</ele>
        <time>2021-07-30T07:44:28Z</time>
      </trkpt>
      <trkpt lat="48.75778" lon="6.16577">
        <ele>284.3</ele>
        <time>2021-07-30T07:44:29Z</time>
      </trkpt>
      <trkpt lat="48.7577" lon="6.16573">
        <ele>283.8</ele>
        <time>2021-07-30T07:44:31Z</time>
      </trkpt>
      <trkpt lat="48.75762" lon="6.16572">
        <ele>283.2</ele>
        <time>2021-07-30T07:44:32Z</time>
      </trkpt>
      <trkpt lat="48.75753" lon="6.16571">
        <ele>282.5</ele>
        <time>2021-07-30T07:44:34Z</time>
      </trkpt>
      <trkpt lat="48.75741" lon="6.16572">
        <ele>281.5</ele>
        <time>2021-07-30T07:44:36Z</time>
      </trkpt>
      <trkpt lat="48.7573" lon="6.16571">
        <ele>280.5</ele>
        <time>2021-07-30T07:44:38Z</time>
      </trkpt>
      <trkpt lat="48.75723" lon="6.16571">
        <ele>279.8</ele>
        <time>2021-07-30T07:44:39Z</time>
      </trkpt>
      <trkpt lat="48.75717" lon="6.1657">
        <ele>279.1</ele>
        <time>2021-07-30T07:44:40Z</time>
      </trkpt>
      <trkpt lat="48.7571" lon="6.16568">
        <ele>278.5</ele>
        <time>2021-07-30T07:44:41Z</time>
      </trkpt>
      <trkpt lat="48.75704" lon="6.16566">
        <ele>277.8</ele>
        <time>2021-07-30T07:44:42Z</time>
      </trkpt>
      <trkpt lat="48.7569" lon="6.16558">
        <ele>276.2</ele>
        <time>2021-07-30T07:44:44Z</time>
      </trkpt>
      <trkpt lat="48.75683" lon="6.16551">
        <ele>275.4</ele>
        <time>2021-07-30T07:44:45Z</time>
      </trkpt>
      <trkpt lat="48.75677" lon="6.16543">
        <ele>274.7</ele>
        <time>2021-07-30T07:44:46Z</time>
      </trkpt>
      <trkpt lat="48.75666" lon="6.16527">
        <ele>273.3</ele>
        <time>2021-07-30T07:44:48Z</time>
      </trkpt>
      <trkpt lat="48.75654" lon="6.16512">
        <ele>272.1</ele>
        <time>2021-07-30T07:44:50Z</time>
      </trkpt>
      <trkpt lat="48.75642" lon="6.16498">
        <ele>271</ele>
        <time>2021-07-30T07:44:52Z</time>
      </trkpt>
      <trkpt lat="48.75637" lon="6.1649">
        <ele>270.4</ele>
        <time>2021-07-30T07:44:53Z</time>
      </trkpt>
      <trkpt lat="48.75632" lon="6.16486">
        <ele>270</ele>
        <time>2021-07-30T07:44:54Z</time>
      </trkpt>
      <trkpt lat="48.7563" lon="6.16484">
        <ele>269.8</ele>
        <time>2021-07-30T07:44:55Z</time>
      </trkpt>
      <trkpt lat="48.75626" lon="6.16481">
        <ele>269.4</ele>
        <time>2021-07-30T07:44:56Z</time>
      </trkpt>
      <trkpt lat="48.75617" lon="6.16473">
        <ele>268.7</ele>
        <time>2021-07-30T07:44:58Z</time>
      </trkpt>
      <trkpt lat="48.75613" lon="6.1647">
        <ele>268.3</ele>
        <time>2021-07-30T07:44:59Z</time>
      </trkpt>
      <trkpt lat="48.75608" lon="6.16468">
        <ele>267.8</ele>
        <time>2021-07-30T07:45:01Z</time>
      </trkpt>
      <trkpt lat="48.75602" lon="6.16463">
        <ele>267.3</ele>
        <time>2021-07-30T07:45:03Z</time>
      </trkpt>
      <trkpt lat="48.75598" lon="6.1646">
        <ele>266.9</ele>
        <time>2021-07-30T07:45:04Z</time>
      </trkpt>
      <trkpt lat="48.75591" lon="6.16456">
        <ele>266.2</ele>
        <time>2021-07-30T07:45:06Z</time>
      </trkpt>
      <trkpt lat="48.75574" lon="6.16453">
        <ele>265.1</ele>
        <time>2021-07-30T07:45:07Z</time>
      </trkpt>
      <trkpt lat="48.75561" lon="6.16451">
        <ele>263.8</ele>
        <time>2021-07-30T07:45:09Z</time>
      </trkpt>
      <trkpt lat="48.75556" lon="6.1645">
        <ele>263.3</ele>
        <time>2021-07-30T07:45:10Z</time>
      </trkpt>
      <trkpt lat="48.75553" lon="6.1645">
        <ele>263</ele>
        <time>2021-07-30T07:45:11Z</time>
      </trkpt>
      <trkpt lat="48.75543" lon="6.16445">
        <ele>262</ele>
        <time>2021-07-30T07:45:13Z</time>
      </trkpt>
      <trkpt lat="48.75538" lon="6.16441">
        <ele>261.3</ele>
        <time>2021-07-30T07:45:14Z</time>
      </trkpt>
      <trkpt lat="48.75533" lon="6.16439">
        <ele>260.8</ele>
        <time>2021-07-30T07:45:15Z</time>
      </trkpt>
      <trkpt lat="48.75529" lon="6.16427">
        <ele>260</ele>
        <time>2021-07-30T07:45:17Z</time>
      </trkpt>
      <trkpt lat="48.75523" lon="6.16419">
        <ele>259.3</ele>
        <time>2021-07-30T07:45:18Z</time>
      </trkpt>
      <trkpt lat="48.75514" lon="6.16405">
        <ele>258.1</ele>
        <time>2021-07-30T07:45:20Z</time>
      </trkpt>
      <trkpt lat="48.75507" lon="6.16401">
        <ele>257.4</ele>
        <time>2021-07-30T07:45:21Z</time>
      </trkpt>
      <trkpt lat="48.75498" lon="6.16399">
        <ele>256.5</ele>
        <time>2021-07-30T07:45:22Z</time>
      </trkpt>
      <trkpt lat="48.7549" lon="6.16397">
        <ele>255.7</ele>
        <time>2021-07-30T07:45:23Z</time>
      </trkpt>
      <trkpt lat="48.75473" lon="6.16394">
        <ele>254.1</ele>
        <time>2021-07-30T07:45:25Z</time>
      </trkpt>
      <trkpt lat="48.75464" lon="6.16394">
        <ele>253.5</ele>
        <time>2021-07-30T07:45:26Z</time>
      </trkpt>
      <trkpt lat="48.75445" lon="6.16397">
        <ele>252.2</ele>
        <time>2021-07-30T07:45:28Z</time>
      </trkpt>
      <trkpt lat="48.75425" lon="6.16401">
        <ele>250</ele>
        <time>2021-07-30T07:45:30Z</time>
      </trkpt>
      <trkpt lat="48.75417" lon="6.16402">
        <ele>249</ele>
        <time>2021-07-30T07:45:31Z</time>
      </trkpt>
      <trkpt lat="48.75402" lon="6.16405">
        <ele>247.3</ele>
        <time>2021-07-30T07:45:33Z</time>
      </trkpt>
      <trkpt lat="48.75394" lon="6.16407">
        <ele>246.3</ele>
        <time>2021-07-30T07:45:34Z</time>
      </trkpt>
      <trkpt lat="48.7538" lon="6.16412">
        <ele>245.1</ele>
        <time>2021-07-30T07:45:36Z</time>
      </trkpt>
      <trkpt lat="48.75366" lon="6.16414">
        <ele>244</ele>
        <time>2021-07-30T07:45:38Z</time>
      </trkpt>
      <trkpt lat="48.75351" lon="6.16412">
        <ele>243.1</ele>
        <time>2021-07-30T07:45:40Z</time>
      </trkpt>
      <trkpt lat="48.75335" lon="6.16411">
        <ele>242.2</ele>
        <time>2021-07-30T07:45:42Z</time>
      </trkpt>
      <trkpt lat="48.75324" lon="6.16405">
        <ele>241.9</ele>
        <time>2021-07-30T07:45:44Z</time>
      </trkpt>
      <trkpt lat="48.7532" lon="6.16402">
        <ele>241.2</ele>
        <time>2021-07-30T07:45:45Z</time>
      </trkpt>
      <trkpt lat="48.75317" lon="6.16398">
        <ele>240.5</ele>
        <time>2021-07-30T07:45:47Z</time>
      </trkpt>
      <trkpt lat="48.75315" lon="6.16395">
        <ele>240</ele>
        <time>2021-07-30T07:45:48Z</time>
      </trkpt>
      <trkpt lat="48.75308" lon="6.16387">
        <ele>238.6</ele>
        <time>2021-07-30T07:45:50Z</time>
      </trkpt>
      <trkpt lat="48.75305" lon="6.16372">
        <ele>237.1</ele>
        <time>2021-07-30T07:45:52Z</time>
      </trkpt>
      <trkpt lat="48.75304" lon="6.16368">
        <ele>236.7</ele>
        <time>2021-07-30T07:45:53Z</time>
      </trkpt>
      <trkpt lat="48.75302" lon="6.16361">
        <ele>236</ele>
        <time>2021-07-30T07:45:54Z</time>
      </trkpt>
      <trkpt lat="48.75296" lon="6.16341">
        <ele>234.2</ele>
        <time>2021-07-30T07:45:55Z</time>
      </trkpt>
      <trkpt lat="48.75292" lon="6.16329">
        <ele>233.2</ele>
        <time>2021-07-30T07:45:56Z</time>
      </trkpt>
      <trkpt lat="48.75283" lon="6.16309">
        <ele>231.3</ele>
        <time>2021-07-30T07:45:58Z</time>
      </trkpt>
      <trkpt lat="48.75279" lon="6.163">
        <ele>230.5</ele>
        <time>2021-07-30T07:45:59Z</time>
      </trkpt>
      <trkpt lat="48.75277" lon="6.16292">
        <ele>229.9</ele>
        <time>2021-07-30T07:46:00Z</time>
      </trkpt>
      <trkpt lat="48.75274" lon="6.16276">
        <ele>228.6</ele>
        <time>2021-07-30T07:46:02Z</time>
      </trkpt>
      <trkpt lat="48.75271" lon="6.16258">
        <ele>227.2</ele>
        <time>2021-07-30T07:46:04Z</time>
      </trkpt>
      <trkpt lat="48.75269" lon="6.16249">
        <ele>226.5</ele>
        <time>2021-07-30T07:46:05Z</time>
      </trkpt>
      <trkpt lat="48.75266" lon="6.16233">
        <ele>225.3</ele>
        <time>2021-07-30T07:46:07Z</time>
      </trkpt>
      <trkpt lat="48.75264" lon="6.16226">
        <ele>224.8</ele>
        <time>2021-07-30T07:46:08Z</time>
      </trkpt>
      <trkpt lat="48.75266" lon="6.16211">
        <ele>223.7</ele>
        <time>2021-07-30T07:46:10Z</time>
      </trkpt>
      <trkpt lat="48.75266" lon="6.16202">
        <ele>222.9</ele>
        <time>2021-07-30T07:46:12Z</time>
      </trkpt>
      <trkpt lat="48.75266" lon="6.16197">
        <ele>222.3</ele>
        <time>2021-07-30T07:46:13Z</time>
      </trkpt>
      <trkpt lat="48.75263" lon="6.16195">
        <ele>222.2</ele>
        <time>2021-07-30T07:46:15Z</time>
      </trkpt>
      <trkpt lat="48.7526" lon="6.16196">
        <ele>222.2</ele>
        <time>2021-07-30T07:46:16Z</time>
      </trkpt>
      <trkpt lat="48.75257" lon="6.16196">
        <ele>222.1</ele>
        <time>2021-07-30T07:46:18Z</time>
      </trkpt>
      <trkpt lat="48.75253" lon="6.16198">
        <ele>222</ele>
        <time>2021-07-30T07:46:19Z</time>
      </trkpt>
      <trkpt lat="48.75244" lon="6.16205">
        <ele>221.7</ele>
        <time>2021-07-30T07:46:21Z</time>
      </trkpt>
      <trkpt lat="48.75236" lon="6.16215">
        <ele>221.4</ele>
        <time>2021-07-30T07:46:22Z</time>
      </trkpt>
      <trkpt lat="48.75222" lon="6.16236">
        <ele>220.3</ele>
        <time>2021-07-30T07:46:24Z</time>
      </trkpt>
      <trkpt lat="48.75222" lon="6.16236">
        <ele>220.3</ele>
        <time>2021-07-30T07:46:24Z</time>
      </trkpt>
      <trkpt lat="48.75216" lon="6.16246">
        <ele>219.9</ele>
        <time>2021-07-30T07:46:25Z</time>
      </trkpt>
      <trkpt lat="48.75209" lon="6.16255">
        <ele>219.6</ele>
        <time>2021-07-30T07:46:27Z</time>
      </trkpt>
      <trkpt lat="48.75202" lon="6.16263">
        <ele>219.2</ele>
        <time>2021-07-30T07:46:28Z</time>
      </trkpt>
      <trkpt lat="48.75199" lon="6.16267">
        <ele>218.9</ele>
        <time>2021-07-30T07:46:29Z</time>
      </trkpt>
      <trkpt lat="48.75191" lon="6.16277">
        <ele>218.4</ele>
        <time>2021-07-30T07:46:31Z</time>
      </trkpt>
      <trkpt lat="48.75187" lon="6.16283">
        <ele>218.2</ele>
        <time>2021-07-30T07:46:32Z</time>
      </trkpt>
      <trkpt lat="48.75181" lon="6.16289">
        <ele>217.8</ele>
        <time>2021-07-30T07:46:34Z</time>
      </trkpt>
      <trkpt lat="48.75178" lon="6.16292">
        <ele>217.6</ele>
        <time>2021-07-30T07:46:35Z</time>
      </trkpt>
      <trkpt lat="48.75174" lon="6.16297">
        <ele>217.4</ele>
        <time>2021-07-30T07:46:37Z</time>
      </trkpt>
      <trkpt lat="48.75171" lon="6.16301">
        <ele>217.1</ele>
        <time>2021-07-30T07:46:38Z</time>
      </trkpt>
      <trkpt lat="48.75166" lon="6.16308">
        <ele>216.8</ele>
        <time>2021-07-30T07:46:40Z</time>
      </trkpt>
      <trkpt lat="48.75161" lon="6.16314">
        <ele>216.4</ele>
        <time>2021-07-30T07:46:42Z</time>
      </trkpt>
      <trkpt lat="48.75157" lon="6.1632">
        <ele>216.1</ele>
        <time>2021-07-30T07:46:43Z</time>
      </trkpt>
      <trkpt lat="48.75154" lon="6.16324">
        <ele>215.8</ele>
        <time>2021-07-30T07:46:44Z</time>
      </trkpt>
      <trkpt lat="48.75149" lon="6.16329">
        <ele>215.4</ele>
        <time>2021-07-30T07:46:45Z</time>
      </trkpt>
      <trkpt lat="48.75141" lon="6.16334">
        <ele>214.6</ele>
        <time>2021-07-30T07:46:47Z</time>
      </trkpt>
      <trkpt lat="48.75134" lon="6.16337">
        <ele>214</ele>
        <time>2021-07-30T07:46:48Z</time>
      </trkpt>
      <trkpt lat="48.75127" lon="6.16339">
        <ele>213.2</ele>
        <time>2021-07-30T07:46:50Z</time>
      </trkpt>
      <trkpt lat="48.75122" lon="6.16344">
        <ele>212.9</ele>
        <time>2021-07-30T07:46:52Z</time>
      </trkpt>
      <trkpt lat="48.75118" lon="6.16348">
        <ele>212.8</ele>
        <time>2021-07-30T07:46:53Z</time>
      </trkpt>
      <trkpt lat="48.75115" lon="6.16353">
        <ele>213.4</ele>
        <time>2021-07-30T07:46:55Z</time>
      </trkpt>
      <trkpt lat="48.75113" lon="6.16357">
        <ele>213.8</ele>
        <time>2021-07-30T07:46:56Z</time>
      </trkpt>
      <trkpt lat="48.7511" lon="6.1636">
        <ele>214.1</ele>
        <time>2021-07-30T07:46:57Z</time>
      </trkpt>
      <trkpt lat="48.7511" lon="6.16361">
        <ele>214.2</ele>
        <time>2021-07-30T07:46:58Z</time>
      </trkpt>
      <trkpt lat="48.7511" lon="6.16361">
        <ele>214.3</ele>
        <time>2021-07-30T07:46:59Z</time>
      </trkpt>
      <trkpt lat="48.75111" lon="6.16361">
        <ele>214.4</ele>
        <time>2021-07-30T07:47:00Z</time>
      </trkpt>
      <trkpt lat="48.75111" lon="6.16361">
        <ele>214.5</ele>
        <time>2021-07-30T07:47:02Z</time>
      </trkpt>
      <trkpt lat="48.75111" lon="6.16361">
        <ele>214.5</ele>
        <time>2021-07-30T07:47:04Z</time>
      </trkpt>
      <trkpt lat="48.75111" lon="6.16361">
        <ele>214.5</ele>
        <time>2021-07-30T07:47:06Z</time>
      </trkpt>
      <trkpt lat="48.75111" lon="6.16361">
        <ele>214.5</ele>
        <time>2021-07-30T07:47:07Z</time>
      </trkpt>
      <trkpt lat="48.75117" lon="6.16372">
        <ele>215.8</ele>
        <time>2021-07-30T07:47:37Z</time>
      </trkpt>
      <trkpt lat="48.75119" lon="6.16377">
        <ele>216.1</ele>
        <time>2021-07-30T07:47:38Z</time>
      </trkpt>
      <trkpt lat="48.75116" lon="6.16388">
        <ele>216.9</ele>
        <time>2021-07-30T07:47:39Z</time>
      </trkpt>
      <trkpt lat="48.75115" lon="6.16394">
        <ele>217.2</ele>
        <time>2021-07-30T07:47:40Z</time>
      </trkpt>
      <trkpt lat="48.75112" lon="6.16399">
        <ele>217.6</ele>
        <time>2021-07-30T07:47:42Z</time>
      </trkpt>
      <trkpt lat="48.75111" lon="6.16403">
        <ele>217.8</ele>
        <time>2021-07-30T07:47:43Z</time>
      </trkpt>
      <trkpt lat="48.75112" lon="6.16405">
        <ele>217.9</ele>
        <time>2021-07-30T07:47:45Z</time>
      </trkpt>
      <trkpt lat="48.75112" lon="6.16405">
        <ele>217.9</ele>
        <time>2021-07-30T07:47:46Z</time>
      </trkpt>
      <trkpt lat="48.75113" lon="6.16405">
        <ele>218</ele>
        <time>2021-07-30T07:47:47Z</time>
      </trkpt>
      <trkpt lat="48.75114" lon="6.16405">
        <ele>218</ele>
        <time>2021-07-30T07:47:48Z</time>
      </trkpt>
      <trkpt lat="48.75114" lon="6.16406">
        <ele>218.1</ele>
        <time>2021-07-30T07:47:50Z</time>
      </trkpt>
      <trkpt lat="48.75114" lon="6.16406">
        <ele>218.1</ele>
        <time>2021-07-30T07:47:50Z</time>
      </trkpt>
      <trkpt lat="48.75116" lon="6.16408">
        <ele>218.3</ele>
        <time>2021-07-30T07:47:51Z</time>
      </trkpt>
      <trkpt lat="48.75117" lon="6.1641">
        <ele>218.4</ele>
        <time>2021-07-30T07:47:52Z</time>
      </trkpt>
      <trkpt lat="48.75118" lon="6.16409">
        <ele>218.4</ele>
        <time>2021-07-30T07:47:53Z</time>
      </trkpt>
      <trkpt lat="48.75118" lon="6.1641">
        <ele>218.5</ele>
        <time>2021-07-30T07:47:55Z</time>
      </trkpt>
      <trkpt lat="48.75117" lon="6.16411">
        <ele>218.6</ele>
        <time>2021-07-30T07:47:56Z</time>
      </trkpt>
      <trkpt lat="48.75119" lon="6.16413">
        <ele>218.7</ele>
        <time>2021-07-30T07:47:57Z</time>
      </trkpt>
      <trkpt lat="48.75125" lon="6.16419">
        <ele>219.2</ele>
        <time>2021-07-30T07:47:59Z</time>
      </trkpt>
      <trkpt lat="48.75133" lon="6.16428">
        <ele>219.9</ele>
        <time>2021-07-30T07:48:01Z</time>
      </trkpt>
      <trkpt lat="48.75137" lon="6.16434">
        <ele>220.4</ele>
        <time>2021-07-30T07:48:03Z</time>
      </trkpt>
      <trkpt lat="48.7514" lon="6.16438">
        <ele>221.2</ele>
        <time>2021-07-30T07:48:04Z</time>
      </trkpt>
      <trkpt lat="48.75143" lon="6.16441">
        <ele>222.6</ele>
        <time>2021-07-30T07:48:05Z</time>
      </trkpt>
      <trkpt lat="48.75144" lon="6.16445">
        <ele>223.8</ele>
        <time>2021-07-30T07:48:06Z</time>
      </trkpt>
      <trkpt lat="48.75146" lon="6.16451">
        <ele>224.9</ele>
        <time>2021-07-30T07:48:08Z</time>
      </trkpt>
      <trkpt lat="48.75148" lon="6.16456">
        <ele>225.2</ele>
        <time>2021-07-30T07:48:09Z</time>
      </trkpt>
      <trkpt lat="48.7515" lon="6.16462">
        <ele>225.7</ele>
        <time>2021-07-30T07:48:11Z</time>
      </trkpt>
      <trkpt lat="48.75152" lon="6.16464">
        <ele>226</ele>
        <time>2021-07-30T07:48:12Z</time>
      </trkpt>
      <trkpt lat="48.75154" lon="6.16467">
        <ele>226.4</ele>
        <time>2021-07-30T07:48:14Z</time>
      </trkpt>
      <trkpt lat="48.75154" lon="6.16469">
        <ele>226.6</ele>
        <time>2021-07-30T07:48:15Z</time>
      </trkpt>
      <trkpt lat="48.75155" lon="6.16471">
        <ele>226.8</ele>
        <time>2021-07-30T07:48:16Z</time>
      </trkpt>
      <trkpt lat="48.75156" lon="6.16475">
        <ele>227.3</ele>
        <time>2021-07-30T07:48:18Z</time>
      </trkpt>
      <trkpt lat="48.75157" lon="6.16476">
        <ele>227.5</ele>
        <time>2021-07-30T07:48:19Z</time>
      </trkpt>
      <trkpt lat="48.75159" lon="6.16478">
        <ele>227.8</ele>
        <time>2021-07-30T07:48:21Z</time>
      </trkpt>
      <trkpt lat="48.75159" lon="6.16477">
        <ele>227.9</ele>
        <time>2021-07-30T07:48:22Z</time>
      </trkpt>
      <trkpt lat="48.7516" lon="6.16477">
        <ele>228</ele>
        <time>2021-07-30T07:48:23Z</time>
      </trkpt>
      <trkpt lat="48.7516" lon="6.16478">
        <ele>228.2</ele>
        <time>2021-07-30T07:48:25Z</time>
      </trkpt>
      <trkpt lat="48.75161" lon="6.16479">
        <ele>228.3</ele>
        <time>2021-07-30T07:48:26Z</time>
      </trkpt>
      <trkpt lat="48.75162" lon="6.16482">
        <ele>228.6</ele>
        <time>2021-07-30T07:48:28Z</time>
      </trkpt>
      <trkpt lat="48.75162" lon="6.16484">
        <ele>228.8</ele>
        <time>2021-07-30T07:48:29Z</time>
      </trkpt>
      <trkpt lat="48.75163" lon="6.16485">
        <ele>229</ele>
        <time>2021-07-30T07:48:31Z</time>
      </trkpt>
      <trkpt lat="48.75164" lon="6.16486">
        <ele>229.2</ele>
        <time>2021-07-30T07:48:33Z</time>
      </trkpt>
      <trkpt lat="48.75165" lon="6.16487">
        <ele>229.3</ele>
        <time>2021-07-30T07:48:35Z</time>
      </trkpt>
      <trkpt lat="48.75165" lon="6.16487">
        <ele>229.4</ele>
        <time>2021-07-30T07:48:36Z</time>
      </trkpt>
      <trkpt lat="48.75165" lon="6.16487">
        <ele>229.4</ele>
        <time>2021-07-30T07:48:37Z</time>
      </trkpt>
      <trkpt lat="48.75166" lon="6.16487">
        <ele>229.5</ele>
        <time>2021-07-30T07:48:39Z</time>
      </trkpt>
      <trkpt lat="48.75166" lon="6.16488">
        <ele>229.6</ele>
        <time>2021-07-30T07:48:41Z</time>
      </trkpt>
      <trkpt lat="48.75167" lon="6.16488">
        <ele>229.6</ele>
        <time>2021-07-30T07:48:42Z</time>
      </trkpt>
      <trkpt lat="48.75167" lon="6.16488">
        <ele>229.7</ele>
        <time>2021-07-30T07:48:43Z</time>
      </trkpt>
      <trkpt lat="48.75168" lon="6.16488">
        <ele>229.7</ele>
        <time>2021-07-30T07:48:44Z</time>
      </trkpt>
      <trkpt lat="48.75168" lon="6.16488">
        <ele>229.8</ele>
        <time>2021-07-30T07:48:45Z</time>
      </trkpt>
      <trkpt lat="48.75169" lon="6.16489">
        <ele>229.9</ele>
        <time>2021-07-30T07:48:47Z</time>
      </trkpt>
      <trkpt lat="48.7517" lon="6.16491">
        <ele>230.1</ele>
        <time>2021-07-30T07:48:48Z</time>
      </trkpt>
      <trkpt lat="48.75172" lon="6.16492">
        <ele>230.4</ele>
        <time>2021-07-30T07:48:49Z</time>
      </trkpt>
      <trkpt lat="48.75173" lon="6.16493">
        <ele>230.5</ele>
        <time>2021-07-30T07:48:50Z</time>
      </trkpt>
      <trkpt lat="48.75175" lon="6.16495">
        <ele>230.7</ele>
        <time>2021-07-30T07:48:52Z</time>
      </trkpt>
      <trkpt lat="48.75178" lon="6.16496">
        <ele>231</ele>
        <time>2021-07-30T07:48:54Z</time>
      </trkpt>
      <trkpt lat="48.75178" lon="6.16497">
        <ele>231.1</ele>
        <time>2021-07-30T07:48:55Z</time>
      </trkpt>
      <trkpt lat="48.75182" lon="6.16501">
        <ele>231.5</ele>
        <time>2021-07-30T07:48:57Z</time>
      </trkpt>
      <trkpt lat="48.75184" lon="6.16503">
        <ele>231.6</ele>
        <time>2021-07-30T07:48:58Z</time>
      </trkpt>
      <trkpt lat="48.75185" lon="6.16504">
        <ele>231.8</ele>
        <time>2021-07-30T07:48:59Z</time>
      </trkpt>
      <trkpt lat="48.75188" lon="6.16508">
        <ele>232</ele>
        <time>2021-07-30T07:49:01Z</time>
      </trkpt>
      <trkpt lat="48.75189" lon="6.16509">
        <ele>232.1</ele>
        <time>2021-07-30T07:49:02Z</time>
      </trkpt>
      <trkpt lat="48.75192" lon="6.16511">
        <ele>232.3</ele>
        <time>2021-07-30T07:49:04Z</time>
      </trkpt>
      <trkpt lat="48.75192" lon="6.16512">
        <ele>232.4</ele>
        <time>2021-07-30T07:49:05Z</time>
      </trkpt>
      <trkpt lat="48.75197" lon="6.16517">
        <ele>232.6</ele>
        <time>2021-07-30T07:49:06Z</time>
      </trkpt>
      <trkpt lat="48.752" lon="6.1652">
        <ele>232.7</ele>
        <time>2021-07-30T07:49:08Z</time>
      </trkpt>
      <trkpt lat="48.75202" lon="6.16524">
        <ele>232.8</ele>
        <time>2021-07-30T07:49:09Z</time>
      </trkpt>
      <trkpt lat="48.75203" lon="6.16525">
        <ele>232.8</ele>
        <time>2021-07-30T07:49:10Z</time>
      </trkpt>
      <trkpt lat="48.75204" lon="6.16526">
        <ele>232.8</ele>
        <time>2021-07-30T07:49:11Z</time>
      </trkpt>
      <trkpt lat="48.75205" lon="6.16527">
        <ele>232.9</ele>
        <time>2021-07-30T07:49:13Z</time>
      </trkpt>
      <trkpt lat="48.75205" lon="6.16528">
        <ele>232.9</ele>
        <time>2021-07-30T07:49:14Z</time>
      </trkpt>
      <trkpt lat="48.75205" lon="6.16542">
        <ele>233.6</ele>
        <time>2021-07-30T07:49:16Z</time>
      </trkpt>
      <trkpt lat="48.75204" lon="6.16555">
        <ele>234.8</ele>
        <time>2021-07-30T07:49:39Z</time>
      </trkpt>
      <trkpt lat="48.75202" lon="6.16568">
        <ele>235.7</ele>
        <time>2021-07-30T07:49:40Z</time>
      </trkpt>
      <trkpt lat="48.752" lon="6.16575">
        <ele>235.5</ele>
        <time>2021-07-30T07:49:41Z</time>
      </trkpt>
      <trkpt lat="48.75196" lon="6.16586">
        <ele>235.3</ele>
        <time>2021-07-30T07:49:42Z</time>
      </trkpt>
      <trkpt lat="48.7519" lon="6.166">
        <ele>234.9</ele>
        <time>2021-07-30T07:49:44Z</time>
      </trkpt>
      <trkpt lat="48.75186" lon="6.16614">
        <ele>234.6</ele>
        <time>2021-07-30T07:49:46Z</time>
      </trkpt>
      <trkpt lat="48.75181" lon="6.1663">
        <ele>234.2</ele>
        <time>2021-07-30T07:49:48Z</time>
      </trkpt>
      <trkpt lat="48.75178" lon="6.16637">
        <ele>234</ele>
        <time>2021-07-30T07:49:49Z</time>
      </trkpt>
      <trkpt lat="48.75176" lon="6.16645">
        <ele>233.8</ele>
        <time>2021-07-30T07:49:50Z</time>
      </trkpt>
      <trkpt lat="48.75171" lon="6.1666">
        <ele>233.3</ele>
        <time>2021-07-30T07:49:52Z</time>
      </trkpt>
      <trkpt lat="48.75169" lon="6.16667">
        <ele>233.1</ele>
        <time>2021-07-30T07:49:53Z</time>
      </trkpt>
      <trkpt lat="48.75164" lon="6.16682">
        <ele>232.7</ele>
        <time>2021-07-30T07:49:55Z</time>
      </trkpt>
      <trkpt lat="48.75158" lon="6.16699">
        <ele>232.4</ele>
        <time>2021-07-30T07:49:57Z</time>
      </trkpt>
      <trkpt lat="48.75154" lon="6.16707">
        <ele>232.2</ele>
        <time>2021-07-30T07:49:58Z</time>
      </trkpt>
      <trkpt lat="48.75145" lon="6.16724">
        <ele>231.9</ele>
        <time>2021-07-30T07:50:00Z</time>
      </trkpt>
      <trkpt lat="48.75138" lon="6.16742">
        <ele>231.5</ele>
        <time>2021-07-30T07:50:02Z</time>
      </trkpt>
      <trkpt lat="48.75135" lon="6.16751">
        <ele>231.4</ele>
        <time>2021-07-30T07:50:03Z</time>
      </trkpt>
      <trkpt lat="48.75127" lon="6.16768">
        <ele>231.1</ele>
        <time>2021-07-30T07:50:05Z</time>
      </trkpt>
      <trkpt lat="48.75123" lon="6.16776">
        <ele>231</ele>
        <time>2021-07-30T07:50:06Z</time>
      </trkpt>
      <trkpt lat="48.75116" lon="6.16791">
        <ele>230.8</ele>
        <time>2021-07-30T07:50:08Z</time>
      </trkpt>
      <trkpt lat="48.75111" lon="6.16807">
        <ele>230.5</ele>
        <time>2021-07-30T07:50:10Z</time>
      </trkpt>
      <trkpt lat="48.7511" lon="6.16815">
        <ele>230.3</ele>
        <time>2021-07-30T07:50:11Z</time>
      </trkpt>
      <trkpt lat="48.75107" lon="6.1683">
        <ele>230</ele>
        <time>2021-07-30T07:50:13Z</time>
      </trkpt>
      <trkpt lat="48.75104" lon="6.16843">
        <ele>229.7</ele>
        <time>2021-07-30T07:50:15Z</time>
      </trkpt>
      <trkpt lat="48.75102" lon="6.16856">
        <ele>229.4</ele>
        <time>2021-07-30T07:50:17Z</time>
      </trkpt>
      <trkpt lat="48.751" lon="6.16872">
        <ele>229.1</ele>
        <time>2021-07-30T07:50:19Z</time>
      </trkpt>
      <trkpt lat="48.75097" lon="6.16887">
        <ele>228.8</ele>
        <time>2021-07-30T07:50:21Z</time>
      </trkpt>
      <trkpt lat="48.75094" lon="6.16898">
        <ele>228.6</ele>
        <time>2021-07-30T07:50:23Z</time>
      </trkpt>
      <trkpt lat="48.75089" lon="6.16916">
        <ele>228.4</ele>
        <time>2021-07-30T07:50:25Z</time>
      </trkpt>
      <trkpt lat="48.75085" lon="6.16932">
        <ele>228</ele>
        <time>2021-07-30T07:50:27Z</time>
      </trkpt>
      <trkpt lat="48.75084" lon="6.16939">
        <ele>227.8</ele>
        <time>2021-07-30T07:50:28Z</time>
      </trkpt>
      <trkpt lat="48.7508" lon="6.16953">
        <ele>227.3</ele>
        <time>2021-07-30T07:50:30Z</time>
      </trkpt>
      <trkpt lat="48.75079" lon="6.16962">
        <ele>227.1</ele>
        <time>2021-07-30T07:50:31Z</time>
      </trkpt>
      <trkpt lat="48.75077" lon="6.16979">
        <ele>226.6</ele>
        <time>2021-07-30T07:50:33Z</time>
      </trkpt>
      <trkpt lat="48.75075" lon="6.16987">
        <ele>226.4</ele>
        <time>2021-07-30T07:50:34Z</time>
      </trkpt>
      <trkpt lat="48.75073" lon="6.16995">
        <ele>226.2</ele>
        <time>2021-07-30T07:50:35Z</time>
      </trkpt>
      <trkpt lat="48.75068" lon="6.17007">
        <ele>225.8</ele>
        <time>2021-07-30T07:50:37Z</time>
      </trkpt>
      <trkpt lat="48.75065" lon="6.17015">
        <ele>225.6</ele>
        <time>2021-07-30T07:50:38Z</time>
      </trkpt>
      <trkpt lat="48.7506" lon="6.17033">
        <ele>225</ele>
        <time>2021-07-30T07:50:40Z</time>
      </trkpt>
      <trkpt lat="48.75058" lon="6.17043">
        <ele>224.8</ele>
        <time>2021-07-30T07:50:41Z</time>
      </trkpt>
      <trkpt lat="48.75055" lon="6.17061">
        <ele>224.2</ele>
        <time>2021-07-30T07:50:43Z</time>
      </trkpt>
      <trkpt lat="48.75053" lon="6.17071">
        <ele>223.9</ele>
        <time>2021-07-30T07:50:44Z</time>
      </trkpt>
      <trkpt lat="48.75046" lon="6.17087">
        <ele>223.2</ele>
        <time>2021-07-30T07:50:46Z</time>
      </trkpt>
      <trkpt lat="48.75042" lon="6.17095">
        <ele>223.3</ele>
        <time>2021-07-30T07:50:47Z</time>
      </trkpt>
      <trkpt lat="48.75029" lon="6.17112">
        <ele>221.9</ele>
        <time>2021-07-30T07:50:49Z</time>
      </trkpt>
      <trkpt lat="48.75023" lon="6.1712">
        <ele>221.2</ele>
        <time>2021-07-30T07:50:50Z</time>
      </trkpt>
      <trkpt lat="48.75019" lon="6.17126">
        <ele>220.7</ele>
        <time>2021-07-30T07:50:51Z</time>
      </trkpt>
      <trkpt lat="48.75013" lon="6.17137">
        <ele>219.9</ele>
        <time>2021-07-30T07:50:53Z</time>
      </trkpt>
      <trkpt lat="48.7501" lon="6.17148">
        <ele>219.2</ele>
        <time>2021-07-30T07:50:55Z</time>
      </trkpt>
      <trkpt lat="48.75007" lon="6.17152">
        <ele>218.8</ele>
        <time>2021-07-30T07:50:56Z</time>
      </trkpt>
      <trkpt lat="48.75003" lon="6.17161">
        <ele>218.1</ele>
        <time>2021-07-30T07:50:58Z</time>
      </trkpt>
      <trkpt lat="48.75002" lon="6.17166">
        <ele>217.9</ele>
        <time>2021-07-30T07:50:59Z</time>
      </trkpt>
      <trkpt lat="48.75002" lon="6.17167">
        <ele>217.8</ele>
        <time>2021-07-30T07:51:01Z</time>
      </trkpt>
      <trkpt lat="48.75003" lon="6.17168">
        <ele>217.7</ele>
        <time>2021-07-30T07:51:03Z</time>
      </trkpt>
      <trkpt lat="48.75003" lon="6.1717">
        <ele>217.6</ele>
        <time>2021-07-30T07:51:04Z</time>
      </trkpt>
      <trkpt lat="48.75004" lon="6.17171">
        <ele>217.5</ele>
        <time>2021-07-30T07:51:05Z</time>
      </trkpt>
      <trkpt lat="48.75005" lon="6.17172">
        <ele>217.4</ele>
        <time>2021-07-30T07:51:07Z</time>
      </trkpt>
      <trkpt lat="48.75005" lon="6.17174">
        <ele>217.3</ele>
        <time>2021-07-30T07:51:08Z</time>
      </trkpt>
      <trkpt lat="48.75006" lon="6.17175">
        <ele>217.2</ele>
        <time>2021-07-30T07:51:09Z</time>
      </trkpt>
      <trkpt lat="48.75006" lon="6.17177">
        <ele>217.1</ele>
        <time>2021-07-30T07:51:11Z</time>
      </trkpt>
      <trkpt lat="48.75007" lon="6.17178">
        <ele>217</ele>
        <time>2021-07-30T07:51:29Z</time>
      </trkpt>
      <trkpt lat="48.75007" lon="6.17179">
        <ele>216.9</ele>
        <time>2021-07-30T07:51:30Z</time>
      </trkpt>
      <trkpt lat="48.75003" lon="6.17197">
        <ele>215.7</ele>
        <time>2021-07-30T07:51:32Z</time>
      </trkpt>
      <trkpt lat="48.75" lon="6.17206">
        <ele>215.1</ele>
        <time>2021-07-30T07:51:33Z</time>
      </trkpt>
      <trkpt lat="48.74994" lon="6.17226">
        <ele>213.8</ele>
        <time>2021-07-30T07:51:35Z</time>
      </trkpt>
      <trkpt lat="48.74986" lon="6.17246">
        <ele>212.4</ele>
        <time>2021-07-30T07:51:37Z</time>
      </trkpt>
      <trkpt lat="48.74978" lon="6.17263">
        <ele>211.3</ele>
        <time>2021-07-30T07:51:39Z</time>
      </trkpt>
      <trkpt lat="48.74969" lon="6.17273">
        <ele>210.4</ele>
        <time>2021-07-30T07:51:41Z</time>
      </trkpt>
      <trkpt lat="48.7496" lon="6.17277">
        <ele>209.8</ele>
        <time>2021-07-30T07:51:43Z</time>
      </trkpt>
      <trkpt lat="48.74955" lon="6.17278">
        <ele>209.5</ele>
        <time>2021-07-30T07:51:44Z</time>
      </trkpt>
      <trkpt lat="48.74947" lon="6.17287">
        <ele>208.9</ele>
        <time>2021-07-30T07:51:46Z</time>
      </trkpt>
      <trkpt lat="48.74944" lon="6.17295">
        <ele>209</ele>
        <time>2021-07-30T07:51:47Z</time>
      </trkpt>
      <trkpt lat="48.74939" lon="6.17311">
        <ele>209.4</ele>
        <time>2021-07-30T07:51:49Z</time>
      </trkpt>
      <trkpt lat="48.74934" lon="6.17325">
        <ele>209.8</ele>
        <time>2021-07-30T07:51:51Z</time>
      </trkpt>
      <trkpt lat="48.7493" lon="6.17331">
        <ele>210</ele>
        <time>2021-07-30T07:51:52Z</time>
      </trkpt>
      <trkpt lat="48.74925" lon="6.17336">
        <ele>210.3</ele>
        <time>2021-07-30T07:51:53Z</time>
      </trkpt>
      <trkpt lat="48.7492" lon="6.17341">
        <ele>210.5</ele>
        <time>2021-07-30T07:51:54Z</time>
      </trkpt>
      <trkpt lat="48.74911" lon="6.17351">
        <ele>211.1</ele>
        <time>2021-07-30T07:51:56Z</time>
      </trkpt>
      <trkpt lat="48.74907" lon="6.17356">
        <ele>211.4</ele>
        <time>2021-07-30T07:51:57Z</time>
      </trkpt>
      <trkpt lat="48.74903" lon="6.17361">
        <ele>211.7</ele>
        <time>2021-07-30T07:51:58Z</time>
      </trkpt>
      <trkpt lat="48.749" lon="6.17365">
        <ele>212</ele>
        <time>2021-07-30T07:51:59Z</time>
      </trkpt>
      <trkpt lat="48.74893" lon="6.17369">
        <ele>212.6</ele>
        <time>2021-07-30T07:52:01Z</time>
      </trkpt>
      <trkpt lat="48.74883" lon="6.17378">
        <ele>213.6</ele>
        <time>2021-07-30T07:52:03Z</time>
      </trkpt>
      <trkpt lat="48.74877" lon="6.17385">
        <ele>214.2</ele>
        <time>2021-07-30T07:52:05Z</time>
      </trkpt>
      <trkpt lat="48.74874" lon="6.17391">
        <ele>214.4</ele>
        <time>2021-07-30T07:52:07Z</time>
      </trkpt>
      <trkpt lat="48.74872" lon="6.17393">
        <ele>214.5</ele>
        <time>2021-07-30T07:52:08Z</time>
      </trkpt>
      <trkpt lat="48.7487" lon="6.17395">
        <ele>214.5</ele>
        <time>2021-07-30T07:52:10Z</time>
      </trkpt>
      <trkpt lat="48.74867" lon="6.17394">
        <ele>214.6</ele>
        <time>2021-07-30T07:52:11Z</time>
      </trkpt>
      <trkpt lat="48.74863" lon="6.17396">
        <ele>215</ele>
        <time>2021-07-30T07:52:13Z</time>
      </trkpt>
      <trkpt lat="48.74859" lon="6.174">
        <ele>215.4</ele>
        <time>2021-07-30T07:52:14Z</time>
      </trkpt>
      <trkpt lat="48.74854" lon="6.17406">
        <ele>216</ele>
        <time>2021-07-30T07:52:16Z</time>
      </trkpt>
      <trkpt lat="48.74852" lon="6.17412">
        <ele>216.3</ele>
        <time>2021-07-30T07:52:18Z</time>
      </trkpt>
      <trkpt lat="48.74851" lon="6.17415">
        <ele>216.6</ele>
        <time>2021-07-30T07:52:19Z</time>
      </trkpt>
      <trkpt lat="48.7485" lon="6.1742">
        <ele>216.9</ele>
        <time>2021-07-30T07:52:20Z</time>
      </trkpt>
      <trkpt lat="48.7485" lon="6.17422">
        <ele>217</ele>
        <time>2021-07-30T07:52:21Z</time>
      </trkpt>
      <trkpt lat="48.74848" lon="6.17427">
        <ele>217.3</ele>
        <time>2021-07-30T07:52:23Z</time>
      </trkpt>
      <trkpt lat="48.74845" lon="6.17432">
        <ele>217.7</ele>
        <time>2021-07-30T07:52:24Z</time>
      </trkpt>
      <trkpt lat="48.74843" lon="6.17436">
        <ele>217.9</ele>
        <time>2021-07-30T07:52:25Z</time>
      </trkpt>
      <trkpt lat="48.74843" lon="6.1744">
        <ele>218.2</ele>
        <time>2021-07-30T07:52:27Z</time>
      </trkpt>
      <trkpt lat="48.74842" lon="6.17441">
        <ele>218.3</ele>
        <time>2021-07-30T07:52:28Z</time>
      </trkpt>
      <trkpt lat="48.74842" lon="6.17445">
        <ele>218.5</ele>
        <time>2021-07-30T07:52:29Z</time>
      </trkpt>
      <trkpt lat="48.74841" lon="6.17448">
        <ele>218.7</ele>
        <time>2021-07-30T07:52:31Z</time>
      </trkpt>
      <trkpt lat="48.74839" lon="6.17451">
        <ele>219</ele>
        <time>2021-07-30T07:52:32Z</time>
      </trkpt>
      <trkpt lat="48.74837" lon="6.17455">
        <ele>219.2</ele>
        <time>2021-07-30T07:52:33Z</time>
      </trkpt>
      <trkpt lat="48.74835" lon="6.17456">
        <ele>219.4</ele>
        <time>2021-07-30T07:52:34Z</time>
      </trkpt>
      <trkpt lat="48.74832" lon="6.17458">
        <ele>219.7</ele>
        <time>2021-07-30T07:52:36Z</time>
      </trkpt>
      <trkpt lat="48.74829" lon="6.17461">
        <ele>220.1</ele>
        <time>2021-07-30T07:52:37Z</time>
      </trkpt>
      <trkpt lat="48.74827" lon="6.17462">
        <ele>220.2</ele>
        <time>2021-07-30T07:52:38Z</time>
      </trkpt>
      <trkpt lat="48.74825" lon="6.17466">
        <ele>220.5</ele>
        <time>2021-07-30T07:52:40Z</time>
      </trkpt>
      <trkpt lat="48.74822" lon="6.17471">
        <ele>220.9</ele>
        <time>2021-07-30T07:52:41Z</time>
      </trkpt>
      <trkpt lat="48.74821" lon="6.17473">
        <ele>221</ele>
        <time>2021-07-30T07:52:42Z</time>
      </trkpt>
      <trkpt lat="48.74819" lon="6.17476">
        <ele>221.3</ele>
        <time>2021-07-30T07:52:43Z</time>
      </trkpt>
      <trkpt lat="48.74818" lon="6.17478">
        <ele>221.4</ele>
        <time>2021-07-30T07:52:45Z</time>
      </trkpt>
      <trkpt lat="48.74817" lon="6.1748">
        <ele>221.6</ele>
        <time>2021-07-30T07:52:46Z</time>
      </trkpt>
      <trkpt lat="48.74816" lon="6.17481">
        <ele>221.7</ele>
        <time>2021-07-30T07:52:47Z</time>
      </trkpt>
      <trkpt lat="48.74814" lon="6.17484">
        <ele>221.8</ele>
        <time>2021-07-30T07:52:48Z</time>
      </trkpt>
      <trkpt lat="48.74813" lon="6.17485">
        <ele>221.8</ele>
        <time>2021-07-30T07:52:50Z</time>
      </trkpt>
      <trkpt lat="48.74813" lon="6.17486">
        <ele>221.9</ele>
        <time>2021-07-30T07:52:51Z</time>
      </trkpt>
      <trkpt lat="48.74812" lon="6.17488">
        <ele>221.9</ele>
        <time>2021-07-30T07:52:52Z</time>
      </trkpt>
      <trkpt lat="48.74811" lon="6.17489">
        <ele>221.9</ele>
        <time>2021-07-30T07:52:53Z</time>
      </trkpt>
      <trkpt lat="48.74811" lon="6.17491">
        <ele>221.9</ele>
        <time>2021-07-30T07:52:55Z</time>
      </trkpt>
      <trkpt lat="48.7481" lon="6.17492">
        <ele>222</ele>
        <time>2021-07-30T07:52:56Z</time>
      </trkpt>
      <trkpt lat="48.74809" lon="6.17493">
        <ele>222</ele>
        <time>2021-07-30T07:52:57Z</time>
      </trkpt>
      <trkpt lat="48.7481" lon="6.17495">
        <ele>222</ele>
        <time>2021-07-30T07:52:58Z</time>
      </trkpt>
      <trkpt lat="48.74809" lon="6.17498">
        <ele>222.1</ele>
        <time>2021-07-30T07:52:59Z</time>
      </trkpt>
      <trkpt lat="48.74808" lon="6.17502">
        <ele>222.1</ele>
        <time>2021-07-30T07:53:01Z</time>
      </trkpt>
      <trkpt lat="48.74807" lon="6.17503">
        <ele>222.2</ele>
        <time>2021-07-30T07:53:02Z</time>
      </trkpt>
      <trkpt lat="48.74807" lon="6.17508">
        <ele>222.2</ele>
        <time>2021-07-30T07:53:03Z</time>
      </trkpt>
      <trkpt lat="48.74806" lon="6.17509">
        <ele>222.3</ele>
        <time>2021-07-30T07:53:04Z</time>
      </trkpt>
      <trkpt lat="48.74806" lon="6.17513">
        <ele>222.5</ele>
        <time>2021-07-30T07:53:06Z</time>
      </trkpt>
      <trkpt lat="48.74806" lon="6.17518">
        <ele>222.7</ele>
        <time>2021-07-30T07:53:07Z</time>
      </trkpt>
      <trkpt lat="48.74806" lon="6.17522">
        <ele>222.9</ele>
        <time>2021-07-30T07:53:08Z</time>
      </trkpt>
      <trkpt lat="48.74805" lon="6.17528">
        <ele>223.2</ele>
        <time>2021-07-30T07:53:10Z</time>
      </trkpt>
      <trkpt lat="48.74803" lon="6.17533">
        <ele>223.4</ele>
        <time>2021-07-30T07:53:11Z</time>
      </trkpt>
      <trkpt lat="48.74803" lon="6.17536">
        <ele>223.6</ele>
        <time>2021-07-30T07:53:12Z</time>
      </trkpt>
      <trkpt lat="48.74802" lon="6.17539">
        <ele>223.7</ele>
        <time>2021-07-30T07:53:13Z</time>
      </trkpt>
      <trkpt lat="48.748" lon="6.17542">
        <ele>223.9</ele>
        <time>2021-07-30T07:53:15Z</time>
      </trkpt>
      <trkpt lat="48.74799" lon="6.17547">
        <ele>224.2</ele>
        <time>2021-07-30T07:53:16Z</time>
      </trkpt>
      <trkpt lat="48.74796" lon="6.17551">
        <ele>224.4</ele>
        <time>2021-07-30T07:53:18Z</time>
      </trkpt>
      <trkpt lat="48.74795" lon="6.17553">
        <ele>224.6</ele>
        <time>2021-07-30T07:53:19Z</time>
      </trkpt>
      <trkpt lat="48.74794" lon="6.17557">
        <ele>224.8</ele>
        <time>2021-07-30T07:53:21Z</time>
      </trkpt>
      <trkpt lat="48.74792" lon="6.1756">
        <ele>224.9</ele>
        <time>2021-07-30T07:53:22Z</time>
      </trkpt>
      <trkpt lat="48.74791" lon="6.17561">
        <ele>225</ele>
        <time>2021-07-30T07:53:23Z</time>
      </trkpt>
      <trkpt lat="48.7479" lon="6.17565">
        <ele>225.2</ele>
        <time>2021-07-30T07:53:25Z</time>
      </trkpt>
      <trkpt lat="48.7479" lon="6.17567">
        <ele>225.3</ele>
        <time>2021-07-30T07:53:26Z</time>
      </trkpt>
      <trkpt lat="48.7479" lon="6.17569">
        <ele>225.4</ele>
        <time>2021-07-30T07:53:27Z</time>
      </trkpt>
      <trkpt lat="48.74789" lon="6.17571">
        <ele>225.5</ele>
        <time>2021-07-30T07:53:28Z</time>
      </trkpt>
      <trkpt lat="48.74789" lon="6.17577">
        <ele>225.7</ele>
        <time>2021-07-30T07:53:30Z</time>
      </trkpt>
      <trkpt lat="48.74788" lon="6.17581">
        <ele>225.8</ele>
        <time>2021-07-30T07:53:31Z</time>
      </trkpt>
      <trkpt lat="48.74788" lon="6.17585">
        <ele>226</ele>
        <time>2021-07-30T07:53:33Z</time>
      </trkpt>
      <trkpt lat="48.74786" lon="6.17589">
        <ele>226.2</ele>
        <time>2021-07-30T07:53:34Z</time>
      </trkpt>
      <trkpt lat="48.74785" lon="6.1759">
        <ele>226.3</ele>
        <time>2021-07-30T07:53:35Z</time>
      </trkpt>
      <trkpt lat="48.74781" lon="6.17592">
        <ele>226.5</ele>
        <time>2021-07-30T07:53:37Z</time>
      </trkpt>
      <trkpt lat="48.74779" lon="6.17596">
        <ele>226.7</ele>
        <time>2021-07-30T07:53:38Z</time>
      </trkpt>
      <trkpt lat="48.74779" lon="6.176">
        <ele>226.9</ele>
        <time>2021-07-30T07:53:39Z</time>
      </trkpt>
      <trkpt lat="48.74778" lon="6.17605">
        <ele>227.1</ele>
        <time>2021-07-30T07:53:40Z</time>
      </trkpt>
      <trkpt lat="48.74777" lon="6.1761">
        <ele>227.3</ele>
        <time>2021-07-30T07:53:41Z</time>
      </trkpt>
      <trkpt lat="48.74777" lon="6.17612">
        <ele>227.4</ele>
        <time>2021-07-30T07:53:42Z</time>
      </trkpt>
      <trkpt lat="48.74777" lon="6.17616">
        <ele>227.5</ele>
        <time>2021-07-30T07:53:43Z</time>
      </trkpt>
      <trkpt lat="48.74775" lon="6.17622">
        <ele>227.8</ele>
        <time>2021-07-30T07:53:45Z</time>
      </trkpt>
      <trkpt lat="48.74774" lon="6.17626">
        <ele>227.9</ele>
        <time>2021-07-30T07:53:47Z</time>
      </trkpt>
      <trkpt lat="48.74773" lon="6.17628">
        <ele>228</ele>
        <time>2021-07-30T07:53:48Z</time>
      </trkpt>
      <trkpt lat="48.74772" lon="6.1763">
        <ele>228.1</ele>
        <time>2021-07-30T07:53:49Z</time>
      </trkpt>
      <trkpt lat="48.7477" lon="6.17636">
        <ele>228.3</ele>
        <time>2021-07-30T07:53:51Z</time>
      </trkpt>
      <trkpt lat="48.7477" lon="6.17638">
        <ele>228.4</ele>
        <time>2021-07-30T07:53:52Z</time>
      </trkpt>
      <trkpt lat="48.74769" lon="6.17641">
        <ele>228.5</ele>
        <time>2021-07-30T07:53:53Z</time>
      </trkpt>
      <trkpt lat="48.74769" lon="6.17647">
        <ele>228.7</ele>
        <time>2021-07-30T07:53:55Z</time>
      </trkpt>
      <trkpt lat="48.74769" lon="6.17654">
        <ele>228.9</ele>
        <time>2021-07-30T07:53:57Z</time>
      </trkpt>
      <trkpt lat="48.74769" lon="6.17657">
        <ele>229</ele>
        <time>2021-07-30T07:53:58Z</time>
      </trkpt>
      <trkpt lat="48.74768" lon="6.17661">
        <ele>229.1</ele>
        <time>2021-07-30T07:54:00Z</time>
      </trkpt>
      <trkpt lat="48.74765" lon="6.17664">
        <ele>229.3</ele>
        <time>2021-07-30T07:54:01Z</time>
      </trkpt>
      <trkpt lat="48.74765" lon="6.17665">
        <ele>229.3</ele>
        <time>2021-07-30T07:54:02Z</time>
      </trkpt>
      <trkpt lat="48.74763" lon="6.17669">
        <ele>229.4</ele>
        <time>2021-07-30T07:54:03Z</time>
      </trkpt>
      <trkpt lat="48.74763" lon="6.17671">
        <ele>229.5</ele>
        <time>2021-07-30T07:54:04Z</time>
      </trkpt>
      <trkpt lat="48.74763" lon="6.17674">
        <ele>229.6</ele>
        <time>2021-07-30T07:54:05Z</time>
      </trkpt>
      <trkpt lat="48.74761" lon="6.17681">
        <ele>229.7</ele>
        <time>2021-07-30T07:54:07Z</time>
      </trkpt>
      <trkpt lat="48.74759" lon="6.17686">
        <ele>229.9</ele>
        <time>2021-07-30T07:54:09Z</time>
      </trkpt>
      <trkpt lat="48.74756" lon="6.17689">
        <ele>229.9</ele>
        <time>2021-07-30T07:54:10Z</time>
      </trkpt>
      <trkpt lat="48.74754" lon="6.17693">
        <ele>230</ele>
        <time>2021-07-30T07:54:12Z</time>
      </trkpt>
      <trkpt lat="48.74752" lon="6.17699">
        <ele>230.1</ele>
        <time>2021-07-30T07:54:13Z</time>
      </trkpt>
      <trkpt lat="48.7475" lon="6.17704">
        <ele>230.2</ele>
        <time>2021-07-30T07:54:15Z</time>
      </trkpt>
      <trkpt lat="48.74748" lon="6.17708">
        <ele>230.2</ele>
        <time>2021-07-30T07:54:16Z</time>
      </trkpt>
      <trkpt lat="48.74747" lon="6.17712">
        <ele>230.2</ele>
        <time>2021-07-30T07:54:17Z</time>
      </trkpt>
      <trkpt lat="48.74745" lon="6.17716">
        <ele>230.2</ele>
        <time>2021-07-30T07:54:19Z</time>
      </trkpt>
      <trkpt lat="48.74743" lon="6.1772">
        <ele>230.2</ele>
        <time>2021-07-30T07:54:20Z</time>
      </trkpt>
      <trkpt lat="48.74741" lon="6.17724">
        <ele>230.2</ele>
        <time>2021-07-30T07:54:21Z</time>
      </trkpt>
      <trkpt lat="48.74739" lon="6.17729">
        <ele>230.1</ele>
        <time>2021-07-30T07:54:22Z</time>
      </trkpt>
      <trkpt lat="48.74737" lon="6.17733">
        <ele>230.1</ele>
        <time>2021-07-30T07:54:23Z</time>
      </trkpt>
      <trkpt lat="48.74735" lon="6.17737">
        <ele>230</ele>
        <time>2021-07-30T07:54:24Z</time>
      </trkpt>
      <trkpt lat="48.74734" lon="6.17741">
        <ele>230</ele>
        <time>2021-07-30T07:54:25Z</time>
      </trkpt>
      <trkpt lat="48.74733" lon="6.17746">
        <ele>229.9</ele>
        <time>2021-07-30T07:54:26Z</time>
      </trkpt>
      <trkpt lat="48.74732" lon="6.17753">
        <ele>229.8</ele>
        <time>2021-07-30T07:54:27Z</time>
      </trkpt>
      <trkpt lat="48.7473" lon="6.17766">
        <ele>229.5</ele>
        <time>2021-07-30T07:54:29Z</time>
      </trkpt>
      <trkpt lat="48.74728" lon="6.17774">
        <ele>229.4</ele>
        <time>2021-07-30T07:54:30Z</time>
      </trkpt>
      <trkpt lat="48.74726" lon="6.17789">
        <ele>229</ele>
        <time>2021-07-30T07:54:32Z</time>
      </trkpt>
      <trkpt lat="48.74724" lon="6.17795">
        <ele>228.9</ele>
        <time>2021-07-30T07:54:33Z</time>
      </trkpt>
      <trkpt lat="48.74725" lon="6.17802">
        <ele>228.7</ele>
        <time>2021-07-30T07:54:35Z</time>
      </trkpt>
      <trkpt lat="48.74719" lon="6.17813">
        <ele>228.4</ele>
        <time>2021-07-30T07:54:36Z</time>
      </trkpt>
      <trkpt lat="48.74717" lon="6.1782">
        <ele>228.2</ele>
        <time>2021-07-30T07:54:37Z</time>
      </trkpt>
      <trkpt lat="48.74713" lon="6.17836">
        <ele>227.8</ele>
        <time>2021-07-30T07:54:39Z</time>
      </trkpt>
      <trkpt lat="48.74712" lon="6.17844">
        <ele>227.6</ele>
        <time>2021-07-30T07:54:40Z</time>
      </trkpt>
      <trkpt lat="48.74711" lon="6.17862">
        <ele>227.1</ele>
        <time>2021-07-30T07:54:42Z</time>
      </trkpt>
      <trkpt lat="48.74711" lon="6.17869">
        <ele>226.9</ele>
        <time>2021-07-30T07:54:43Z</time>
      </trkpt>
      <trkpt lat="48.74709" lon="6.17883">
        <ele>226.7</ele>
        <time>2021-07-30T07:54:45Z</time>
      </trkpt>
      <trkpt lat="48.74709" lon="6.1789">
        <ele>226.6</ele>
        <time>2021-07-30T07:54:46Z</time>
      </trkpt>
      <trkpt lat="48.74708" lon="6.17898">
        <ele>226.5</ele>
        <time>2021-07-30T07:54:47Z</time>
      </trkpt>
      <trkpt lat="48.74709" lon="6.17915">
        <ele>226.1</ele>
        <time>2021-07-30T07:54:49Z</time>
      </trkpt>
      <trkpt lat="48.74709" lon="6.17933">
        <ele>225.8</ele>
        <time>2021-07-30T07:54:51Z</time>
      </trkpt>
      <trkpt lat="48.74711" lon="6.17943">
        <ele>225.6</ele>
        <time>2021-07-30T07:54:52Z</time>
      </trkpt>
      <trkpt lat="48.74713" lon="6.17963">
        <ele>225.2</ele>
        <time>2021-07-30T07:54:54Z</time>
      </trkpt>
      <trkpt lat="48.74713" lon="6.17972">
        <ele>225</ele>
        <time>2021-07-30T07:54:55Z</time>
      </trkpt>
      <trkpt lat="48.74713" lon="6.17988">
        <ele>224.7</ele>
        <time>2021-07-30T07:54:57Z</time>
      </trkpt>
      <trkpt lat="48.74712" lon="6.17996">
        <ele>224.6</ele>
        <time>2021-07-30T07:54:58Z</time>
      </trkpt>
      <trkpt lat="48.74712" lon="6.18012">
        <ele>224.2</ele>
        <time>2021-07-30T07:55:00Z</time>
      </trkpt>
      <trkpt lat="48.74712" lon="6.1802">
        <ele>224.1</ele>
        <time>2021-07-30T07:55:01Z</time>
      </trkpt>
      <trkpt lat="48.74712" lon="6.18035">
        <ele>223.8</ele>
        <time>2021-07-30T07:55:03Z</time>
      </trkpt>
      <trkpt lat="48.74712" lon="6.18051">
        <ele>223.4</ele>
        <time>2021-07-30T07:55:05Z</time>
      </trkpt>
      <trkpt lat="48.74712" lon="6.18068">
        <ele>223</ele>
        <time>2021-07-30T07:55:07Z</time>
      </trkpt>
      <trkpt lat="48.74711" lon="6.18085">
        <ele>222.4</ele>
        <time>2021-07-30T07:55:09Z</time>
      </trkpt>
      <trkpt lat="48.74711" lon="6.18093">
        <ele>222.2</ele>
        <time>2021-07-30T07:55:10Z</time>
      </trkpt>
      <trkpt lat="48.74708" lon="6.18111">
        <ele>221.5</ele>
        <time>2021-07-30T07:55:12Z</time>
      </trkpt>
      <trkpt lat="48.74706" lon="6.1812">
        <ele>221.2</ele>
        <time>2021-07-30T07:55:13Z</time>
      </trkpt>
      <trkpt lat="48.74702" lon="6.18139">
        <ele>220.4</ele>
        <time>2021-07-30T07:55:15Z</time>
      </trkpt>
      <trkpt lat="48.74699" lon="6.18149">
        <ele>220</ele>
        <time>2021-07-30T07:55:16Z</time>
      </trkpt>
      <trkpt lat="48.74696" lon="6.18159">
        <ele>219.6</ele>
        <time>2021-07-30T07:55:17Z</time>
      </trkpt>
      <trkpt lat="48.74689" lon="6.18179">
        <ele>218.8</ele>
        <time>2021-07-30T07:55:19Z</time>
      </trkpt>
      <trkpt lat="48.74683" lon="6.182">
        <ele>217.9</ele>
        <time>2021-07-30T07:55:21Z</time>
      </trkpt>
      <trkpt lat="48.74679" lon="6.18211">
        <ele>217.4</ele>
        <time>2021-07-30T07:55:22Z</time>
      </trkpt>
      <trkpt lat="48.74676" lon="6.18222">
        <ele>216.9</ele>
        <time>2021-07-30T07:55:23Z</time>
      </trkpt>
      <trkpt lat="48.7467" lon="6.18246">
        <ele>215.9</ele>
        <time>2021-07-30T07:55:25Z</time>
      </trkpt>
      <trkpt lat="48.74664" lon="6.18269">
        <ele>215</ele>
        <time>2021-07-30T07:55:27Z</time>
      </trkpt>
      <trkpt lat="48.74661" lon="6.18282">
        <ele>214.6</ele>
        <time>2021-07-30T07:55:28Z</time>
      </trkpt>
      <trkpt lat="48.74659" lon="6.18295">
        <ele>214.1</ele>
        <time>2021-07-30T07:55:29Z</time>
      </trkpt>
      <trkpt lat="48.74658" lon="6.18323">
        <ele>213.2</ele>
        <time>2021-07-30T07:55:31Z</time>
      </trkpt>
      <trkpt lat="48.74658" lon="6.18349">
        <ele>212.4</ele>
        <time>2021-07-30T07:55:33Z</time>
      </trkpt>
      <trkpt lat="48.7466" lon="6.18362">
        <ele>211.9</ele>
        <time>2021-07-30T07:55:34Z</time>
      </trkpt>
      <trkpt lat="48.74662" lon="6.18387">
        <ele>211.2</ele>
        <time>2021-07-30T07:55:36Z</time>
      </trkpt>
      <trkpt lat="48.74664" lon="6.18399">
        <ele>210.8</ele>
        <time>2021-07-30T07:55:37Z</time>
      </trkpt>
      <trkpt lat="48.74668" lon="6.18426">
        <ele>210.4</ele>
        <time>2021-07-30T07:55:39Z</time>
      </trkpt>
      <trkpt lat="48.74669" lon="6.1844">
        <ele>210.2</ele>
        <time>2021-07-30T07:55:40Z</time>
      </trkpt>
      <trkpt lat="48.74672" lon="6.18467">
        <ele>210.1</ele>
        <time>2021-07-30T07:55:42Z</time>
      </trkpt>
      <trkpt lat="48.74672" lon="6.18481">
        <ele>210.1</ele>
        <time>2021-07-30T07:55:43Z</time>
      </trkpt>
      <trkpt lat="48.74671" lon="6.18509">
        <ele>210</ele>
        <time>2021-07-30T07:55:45Z</time>
      </trkpt>
      <trkpt lat="48.74668" lon="6.18534">
        <ele>209.7</ele>
        <time>2021-07-30T07:55:47Z</time>
      </trkpt>
      <trkpt lat="48.74663" lon="6.1856">
        <ele>209.1</ele>
        <time>2021-07-30T07:55:49Z</time>
      </trkpt>
      <trkpt lat="48.74659" lon="6.18583">
        <ele>208.4</ele>
        <time>2021-07-30T07:55:51Z</time>
      </trkpt>
      <trkpt lat="48.74658" lon="6.18594">
        <ele>208</ele>
        <time>2021-07-30T07:55:52Z</time>
      </trkpt>
      <trkpt lat="48.74654" lon="6.18612">
        <ele>207.4</ele>
        <time>2021-07-30T07:55:54Z</time>
      </trkpt>
      <trkpt lat="48.74652" lon="6.18621">
        <ele>207</ele>
        <time>2021-07-30T07:55:55Z</time>
      </trkpt>
      <trkpt lat="48.74645" lon="6.18639">
        <ele>206.3</ele>
        <time>2021-07-30T07:55:57Z</time>
      </trkpt>
      <trkpt lat="48.74641" lon="6.18649">
        <ele>205.9</ele>
        <time>2021-07-30T07:55:58Z</time>
      </trkpt>
      <trkpt lat="48.74637" lon="6.18659">
        <ele>205.5</ele>
        <time>2021-07-30T07:55:59Z</time>
      </trkpt>
      <trkpt lat="48.7463" lon="6.1868">
        <ele>204.8</ele>
        <time>2021-07-30T07:56:01Z</time>
      </trkpt>
      <trkpt lat="48.74623" lon="6.18701">
        <ele>204.3</ele>
        <time>2021-07-30T07:56:03Z</time>
      </trkpt>
      <trkpt lat="48.74619" lon="6.18721">
        <ele>204.1</ele>
        <time>2021-07-30T07:56:05Z</time>
      </trkpt>
      <trkpt lat="48.74618" lon="6.18731">
        <ele>204</ele>
        <time>2021-07-30T07:56:06Z</time>
      </trkpt>
      <trkpt lat="48.74617" lon="6.18741">
        <ele>203.9</ele>
        <time>2021-07-30T07:56:07Z</time>
      </trkpt>
      <trkpt lat="48.74619" lon="6.1876">
        <ele>204.3</ele>
        <time>2021-07-30T07:56:09Z</time>
      </trkpt>
      <trkpt lat="48.74625" lon="6.18775">
        <ele>205.2</ele>
        <time>2021-07-30T07:56:11Z</time>
      </trkpt>
      <trkpt lat="48.74634" lon="6.18781">
        <ele>205.7</ele>
        <time>2021-07-30T07:56:13Z</time>
      </trkpt>
      <trkpt lat="48.74639" lon="6.18777">
        <ele>206.1</ele>
        <time>2021-07-30T07:56:15Z</time>
      </trkpt>
      <trkpt lat="48.74642" lon="6.18775">
        <ele>206.3</ele>
        <time>2021-07-30T07:56:16Z</time>
      </trkpt>
      <trkpt lat="48.74644" lon="6.18773">
        <ele>206.2</ele>
        <time>2021-07-30T07:56:18Z</time>
      </trkpt>
      <trkpt lat="48.74643" lon="6.18773">
        <ele>206.1</ele>
        <time>2021-07-30T07:56:20Z</time>
      </trkpt>
      <trkpt lat="48.74643" lon="6.18773">
        <ele>206.1</ele>
        <time>2021-07-30T07:56:21Z</time>
      </trkpt>
      <trkpt lat="48.74642" lon="6.18773">
        <ele>206.1</ele>
        <time>2021-07-30T07:56:23Z</time>
      </trkpt>
      <trkpt lat="48.74641" lon="6.18772">
        <ele>206</ele>
        <time>2021-07-30T07:56:25Z</time>
      </trkpt>
      <trkpt lat="48.74641" lon="6.18772">
        <ele>206</ele>
        <time>2021-07-30T07:56:26Z</time>
      </trkpt>
      <trkpt lat="48.7464" lon="6.18772">
        <ele>205.9</ele>
        <time>2021-07-30T07:56:28Z</time>
      </trkpt>
      <trkpt lat="48.74639" lon="6.18772">
        <ele>205.9</ele>
        <time>2021-07-30T07:56:29Z</time>
      </trkpt>
      <trkpt lat="48.74639" lon="6.18772">
        <ele>205.8</ele>
        <time>2021-07-30T07:56:30Z</time>
      </trkpt>
      <trkpt lat="48.74638" lon="6.18771">
        <ele>205.8</ele>
        <time>2021-07-30T07:56:32Z</time>
      </trkpt>
      <trkpt lat="48.74638" lon="6.18771">
        <ele>205.8</ele>
        <time>2021-07-30T07:56:33Z</time>
      </trkpt>
      <trkpt lat="48.74637" lon="6.18771">
        <ele>205.7</ele>
        <time>2021-07-30T07:56:35Z</time>
      </trkpt>
      <trkpt lat="48.74636" lon="6.18771">
        <ele>205.7</ele>
        <time>2021-07-30T07:56:37Z</time>
      </trkpt>
      <trkpt lat="48.74636" lon="6.18771">
        <ele>205.6</ele>
        <time>2021-07-30T07:58:12Z</time>
      </trkpt>
      <trkpt lat="48.74635" lon="6.18771">
        <ele>205.6</ele>
        <time>2021-07-30T07:58:13Z</time>
      </trkpt>
      <trkpt lat="48.74627" lon="6.18772">
        <ele>205</ele>
        <time>2021-07-30T07:58:14Z</time>
      </trkpt>
      <trkpt lat="48.74621" lon="6.18774">
        <ele>204.6</ele>
        <time>2021-07-30T07:58:15Z</time>
      </trkpt>
      <trkpt lat="48.74614" lon="6.18781">
        <ele>203.1</ele>
        <time>2021-07-30T07:58:17Z</time>
      </trkpt>
      <trkpt lat="48.7461" lon="6.18786">
        <ele>202.9</ele>
        <time>2021-07-30T07:58:18Z</time>
      </trkpt>
      <trkpt lat="48.74608" lon="6.18793">
        <ele>202.4</ele>
        <time>2021-07-30T07:58:19Z</time>
      </trkpt>
      <trkpt lat="48.74609" lon="6.18797">
        <ele>202.4</ele>
        <time>2021-07-30T07:58:20Z</time>
      </trkpt>
      <trkpt lat="48.74608" lon="6.18807">
        <ele>202.4</ele>
        <time>2021-07-30T07:58:22Z</time>
      </trkpt>
      <trkpt lat="48.74608" lon="6.18817">
        <ele>202.5</ele>
        <time>2021-07-30T07:58:24Z</time>
      </trkpt>
      <trkpt lat="48.7461" lon="6.18821">
        <ele>202.5</ele>
        <time>2021-07-30T07:58:25Z</time>
      </trkpt>
      <trkpt lat="48.74611" lon="6.18824">
        <ele>202.5</ele>
        <time>2021-07-30T07:58:26Z</time>
      </trkpt>
      <trkpt lat="48.74613" lon="6.18829">
        <ele>202.6</ele>
        <time>2021-07-30T07:58:28Z</time>
      </trkpt>
      <trkpt lat="48.74615" lon="6.18833">
        <ele>202.6</ele>
        <time>2021-07-30T07:58:29Z</time>
      </trkpt>
      <trkpt lat="48.74616" lon="6.18835">
        <ele>202.6</ele>
        <time>2021-07-30T07:58:30Z</time>
      </trkpt>
      <trkpt lat="48.74616" lon="6.18837">
        <ele>202.6</ele>
        <time>2021-07-30T07:58:31Z</time>
      </trkpt>
      <trkpt lat="48.74615" lon="6.18842">
        <ele>202.7</ele>
        <time>2021-07-30T07:58:33Z</time>
      </trkpt>
      <trkpt lat="48.74616" lon="6.18843">
        <ele>202.7</ele>
        <time>2021-07-30T07:58:34Z</time>
      </trkpt>
      <trkpt lat="48.74617" lon="6.18843">
        <ele>202.7</ele>
        <time>2021-07-30T07:58:36Z</time>
      </trkpt>
      <trkpt lat="48.74617" lon="6.18842">
        <ele>202.7</ele>
        <time>2021-07-30T07:58:37Z</time>
      </trkpt>
      <trkpt lat="48.74617" lon="6.18842">
        <ele>202.7</ele>
        <time>2021-07-30T07:58:39Z</time>
      </trkpt>
      <trkpt lat="48.74617" lon="6.18842">
        <ele>202.7</ele>
        <time>2021-07-30T07:58:40Z</time>
      </trkpt>
      <trkpt lat="48.74617" lon="6.18843">
        <ele>202.7</ele>
        <time>2021-07-30T07:58:42Z</time>
      </trkpt>
      <trkpt lat="48.74617" lon="6.18843">
        <ele>202.7</ele>
        <time>2021-07-30T07:58:43Z</time>
      </trkpt>
      <trkpt lat="48.74618" lon="6.18843">
        <ele>202.7</ele>
        <time>2021-07-30T07:58:44Z</time>
      </trkpt>
      <trkpt lat="48.74611" lon="6.18875">
        <ele>202.9</ele>
        <time>2021-07-30T07:58:51Z</time>
      </trkpt>
      <trkpt lat="48.74612" lon="6.18898">
        <ele>203.1</ele>
        <time>2021-07-30T07:58:52Z</time>
      </trkpt>
      <trkpt lat="48.74613" lon="6.18908">
        <ele>203.2</ele>
        <time>2021-07-30T07:58:53Z</time>
      </trkpt>
      <trkpt lat="48.74616" lon="6.18924">
        <ele>203.4</ele>
        <time>2021-07-30T07:58:55Z</time>
      </trkpt>
      <trkpt lat="48.74618" lon="6.18935">
        <ele>203.5</ele>
        <time>2021-07-30T07:58:57Z</time>
      </trkpt>
      <trkpt lat="48.74622" lon="6.18944">
        <ele>203.5</ele>
        <time>2021-07-30T07:58:59Z</time>
      </trkpt>
      <trkpt lat="48.74624" lon="6.18946">
        <ele>203.5</ele>
        <time>2021-07-30T07:59:00Z</time>
      </trkpt>
      <trkpt lat="48.74628" lon="6.18957">
        <ele>203.5</ele>
        <time>2021-07-30T07:59:02Z</time>
      </trkpt>
      <trkpt lat="48.74632" lon="6.18963">
        <ele>203.4</ele>
        <time>2021-07-30T07:59:03Z</time>
      </trkpt>
      <trkpt lat="48.74635" lon="6.1897">
        <ele>203.3</ele>
        <time>2021-07-30T07:59:05Z</time>
      </trkpt>
      <trkpt lat="48.74638" lon="6.18976">
        <ele>203.2</ele>
        <time>2021-07-30T07:59:06Z</time>
      </trkpt>
      <trkpt lat="48.74641" lon="6.18981">
        <ele>203.1</ele>
        <time>2021-07-30T07:59:07Z</time>
      </trkpt>
      <trkpt lat="48.74643" lon="6.18986">
        <ele>203</ele>
        <time>2021-07-30T07:59:08Z</time>
      </trkpt>
      <trkpt lat="48.74646" lon="6.1899">
        <ele>202.8</ele>
        <time>2021-07-30T07:59:09Z</time>
      </trkpt>
      <trkpt lat="48.74649" lon="6.19">
        <ele>202.6</ele>
        <time>2021-07-30T07:59:10Z</time>
      </trkpt>
      <trkpt lat="48.74655" lon="6.19014">
        <ele>202</ele>
        <time>2021-07-30T07:59:12Z</time>
      </trkpt>
      <trkpt lat="48.74658" lon="6.19022">
        <ele>201.6</ele>
        <time>2021-07-30T07:59:13Z</time>
      </trkpt>
      <trkpt lat="48.74663" lon="6.19041">
        <ele>200.9</ele>
        <time>2021-07-30T07:59:15Z</time>
      </trkpt>
      <trkpt lat="48.74668" lon="6.1906">
        <ele>200.2</ele>
        <time>2021-07-30T07:59:17Z</time>
      </trkpt>
      <trkpt lat="48.74672" lon="6.19071">
        <ele>199.8</ele>
        <time>2021-07-30T07:59:18Z</time>
      </trkpt>
      <trkpt lat="48.74675" lon="6.19082">
        <ele>199.5</ele>
        <time>2021-07-30T07:59:19Z</time>
      </trkpt>
      <trkpt lat="48.74683" lon="6.19104">
        <ele>198.8</ele>
        <time>2021-07-30T07:59:21Z</time>
      </trkpt>
      <trkpt lat="48.74688" lon="6.19114">
        <ele>198.6</ele>
        <time>2021-07-30T07:59:22Z</time>
      </trkpt>
      <trkpt lat="48.74695" lon="6.19132">
        <ele>198.2</ele>
        <time>2021-07-30T07:59:24Z</time>
      </trkpt>
      <trkpt lat="48.74703" lon="6.19151">
        <ele>197.8</ele>
        <time>2021-07-30T07:59:26Z</time>
      </trkpt>
      <trkpt lat="48.74709" lon="6.19172">
        <ele>197.6</ele>
        <time>2021-07-30T07:59:28Z</time>
      </trkpt>
      <trkpt lat="48.74712" lon="6.1918">
        <ele>197.5</ele>
        <time>2021-07-30T07:59:29Z</time>
      </trkpt>
      <trkpt lat="48.74719" lon="6.19196">
        <ele>197.5</ele>
        <time>2021-07-30T07:59:31Z</time>
      </trkpt>
      <trkpt lat="48.74725" lon="6.19215">
        <ele>197.5</ele>
        <time>2021-07-30T07:59:33Z</time>
      </trkpt>
      <trkpt lat="48.74728" lon="6.19224">
        <ele>197.5</ele>
        <time>2021-07-30T07:59:34Z</time>
      </trkpt>
      <trkpt lat="48.74731" lon="6.19235">
        <ele>197.5</ele>
        <time>2021-07-30T07:59:35Z</time>
      </trkpt>
      <trkpt lat="48.74738" lon="6.19241">
        <ele>197.5</ele>
        <time>2021-07-30T07:59:37Z</time>
      </trkpt>
      <trkpt lat="48.74742" lon="6.19255">
        <ele>197.5</ele>
        <time>2021-07-30T07:59:39Z</time>
      </trkpt>
      <trkpt lat="48.74744" lon="6.19263">
        <ele>197.5</ele>
        <time>2021-07-30T07:59:40Z</time>
      </trkpt>
      <trkpt lat="48.74747" lon="6.1928">
        <ele>197.5</ele>
        <time>2021-07-30T07:59:42Z</time>
      </trkpt>
      <trkpt lat="48.74748" lon="6.19289">
        <ele>197.5</ele>
        <time>2021-07-30T07:59:43Z</time>
      </trkpt>
      <trkpt lat="48.7475" lon="6.19309">
        <ele>197.5</ele>
        <time>2021-07-30T07:59:45Z</time>
      </trkpt>
      <trkpt lat="48.74752" lon="6.19327">
        <ele>197.5</ele>
        <time>2021-07-30T07:59:47Z</time>
      </trkpt>
      <trkpt lat="48.74753" lon="6.19345">
        <ele>197.4</ele>
        <time>2021-07-30T07:59:49Z</time>
      </trkpt>
      <trkpt lat="48.74753" lon="6.19354">
        <ele>197.4</ele>
        <time>2021-07-30T07:59:50Z</time>
      </trkpt>
      <trkpt lat="48.74752" lon="6.19374">
        <ele>197.4</ele>
        <time>2021-07-30T07:59:52Z</time>
      </trkpt>
      <trkpt lat="48.74751" lon="6.19393">
        <ele>197.4</ele>
        <time>2021-07-30T07:59:54Z</time>
      </trkpt>
      <trkpt lat="48.7475" lon="6.19402">
        <ele>197.4</ele>
        <time>2021-07-30T07:59:55Z</time>
      </trkpt>
      <trkpt lat="48.7475" lon="6.19421">
        <ele>197.4</ele>
        <time>2021-07-30T07:59:57Z</time>
      </trkpt>
      <trkpt lat="48.74749" lon="6.1944">
        <ele>197.3</ele>
        <time>2021-07-30T07:59:59Z</time>
      </trkpt>
      <trkpt lat="48.74749" lon="6.19449">
        <ele>197.3</ele>
        <time>2021-07-30T08:00:00Z</time>
      </trkpt>
      <trkpt lat="48.74748" lon="6.19457">
        <ele>197.3</ele>
        <time>2021-07-30T08:00:01Z</time>
      </trkpt>
      <trkpt lat="48.74748" lon="6.19465">
        <ele>197.3</ele>
        <time>2021-07-30T08:00:02Z</time>
      </trkpt>
      <trkpt lat="48.74747" lon="6.19484">
        <ele>197.3</ele>
        <time>2021-07-30T08:00:04Z</time>
      </trkpt>
      <trkpt lat="48.74746" lon="6.19501">
        <ele>197.4</ele>
        <time>2021-07-30T08:00:06Z</time>
      </trkpt>
      <trkpt lat="48.74746" lon="6.1951">
        <ele>197.4</ele>
        <time>2021-07-30T08:00:07Z</time>
      </trkpt>
      <trkpt lat="48.74747" lon="6.19528">
        <ele>197.5</ele>
        <time>2021-07-30T08:00:09Z</time>
      </trkpt>
      <trkpt lat="48.74746" lon="6.19536">
        <ele>197.5</ele>
        <time>2021-07-30T08:00:10Z</time>
      </trkpt>
      <trkpt lat="48.74746" lon="6.19545">
        <ele>197.6</ele>
        <time>2021-07-30T08:00:11Z</time>
      </trkpt>
      <trkpt lat="48.74747" lon="6.19561">
        <ele>197.6</ele>
        <time>2021-07-30T08:00:13Z</time>
      </trkpt>
      <trkpt lat="48.74746" lon="6.19569">
        <ele>197.6</ele>
        <time>2021-07-30T08:00:14Z</time>
      </trkpt>
      <trkpt lat="48.74746" lon="6.19585">
        <ele>197.7</ele>
        <time>2021-07-30T08:00:16Z</time>
      </trkpt>
      <trkpt lat="48.74746" lon="6.19593">
        <ele>197.8</ele>
        <time>2021-07-30T08:00:17Z</time>
      </trkpt>
      <trkpt lat="48.74746" lon="6.19607">
        <ele>197.9</ele>
        <time>2021-07-30T08:00:19Z</time>
      </trkpt>
      <trkpt lat="48.74746" lon="6.19621">
        <ele>198</ele>
        <time>2021-07-30T08:00:21Z</time>
      </trkpt>
      <trkpt lat="48.74747" lon="6.19635">
        <ele>198.1</ele>
        <time>2021-07-30T08:00:23Z</time>
      </trkpt>
      <trkpt lat="48.74748" lon="6.19642">
        <ele>198.1</ele>
        <time>2021-07-30T08:00:24Z</time>
      </trkpt>
      <trkpt lat="48.74749" lon="6.19649">
        <ele>198.2</ele>
        <time>2021-07-30T08:00:25Z</time>
      </trkpt>
      <trkpt lat="48.74751" lon="6.19663">
        <ele>198.3</ele>
        <time>2021-07-30T08:00:27Z</time>
      </trkpt>
      <trkpt lat="48.74754" lon="6.19677">
        <ele>198.4</ele>
        <time>2021-07-30T08:00:29Z</time>
      </trkpt>
      <trkpt lat="48.74757" lon="6.19688">
        <ele>198.5</ele>
        <time>2021-07-30T08:00:31Z</time>
      </trkpt>
      <trkpt lat="48.7476" lon="6.19699">
        <ele>198.6</ele>
        <time>2021-07-30T08:00:33Z</time>
      </trkpt>
      <trkpt lat="48.74765" lon="6.19712">
        <ele>198.7</ele>
        <time>2021-07-30T08:00:35Z</time>
      </trkpt>
      <trkpt lat="48.7477" lon="6.19724">
        <ele>198.7</ele>
        <time>2021-07-30T08:00:37Z</time>
      </trkpt>
      <trkpt lat="48.74772" lon="6.19729">
        <ele>198.8</ele>
        <time>2021-07-30T08:00:38Z</time>
      </trkpt>
      <trkpt lat="48.74773" lon="6.19735">
        <ele>198.8</ele>
        <time>2021-07-30T08:00:39Z</time>
      </trkpt>
      <trkpt lat="48.74775" lon="6.19741">
        <ele>198.9</ele>
        <time>2021-07-30T08:00:40Z</time>
      </trkpt>
      <trkpt lat="48.74777" lon="6.19749">
        <ele>199</ele>
        <time>2021-07-30T08:00:42Z</time>
      </trkpt>
      <trkpt lat="48.74776" lon="6.19756">
        <ele>199.1</ele>
        <time>2021-07-30T08:00:43Z</time>
      </trkpt>
      <trkpt lat="48.74774" lon="6.19767">
        <ele>199.2</ele>
        <time>2021-07-30T08:00:45Z</time>
      </trkpt>
      <trkpt lat="48.74774" lon="6.19776">
        <ele>199.3</ele>
        <time>2021-07-30T08:00:46Z</time>
      </trkpt>
      <trkpt lat="48.74773" lon="6.19783">
        <ele>199.4</ele>
        <time>2021-07-30T08:00:47Z</time>
      </trkpt>
      <trkpt lat="48.74773" lon="6.19788">
        <ele>199.5</ele>
        <time>2021-07-30T08:00:48Z</time>
      </trkpt>
      <trkpt lat="48.74775" lon="6.19793">
        <ele>199.6</ele>
        <time>2021-07-30T08:00:50Z</time>
      </trkpt>
      <trkpt lat="48.74776" lon="6.19799">
        <ele>199.7</ele>
        <time>2021-07-30T08:00:51Z</time>
      </trkpt>
      <trkpt lat="48.74776" lon="6.19802">
        <ele>199.7</ele>
        <time>2021-07-30T08:00:52Z</time>
      </trkpt>
      <trkpt lat="48.74777" lon="6.19806">
        <ele>199.8</ele>
        <time>2021-07-30T08:00:54Z</time>
      </trkpt>
      <trkpt lat="48.74778" lon="6.1981">
        <ele>199.9</ele>
        <time>2021-07-30T08:00:55Z</time>
      </trkpt>
      <trkpt lat="48.74781" lon="6.19813">
        <ele>200</ele>
        <time>2021-07-30T08:00:56Z</time>
      </trkpt>
      <trkpt lat="48.74783" lon="6.19817">
        <ele>200</ele>
        <time>2021-07-30T08:00:58Z</time>
      </trkpt>
      <trkpt lat="48.74787" lon="6.19819">
        <ele>200.1</ele>
        <time>2021-07-30T08:00:59Z</time>
      </trkpt>
      <trkpt lat="48.74789" lon="6.19819">
        <ele>200.1</ele>
        <time>2021-07-30T08:01:01Z</time>
      </trkpt>
      <trkpt lat="48.74793" lon="6.19818">
        <ele>200.2</ele>
        <time>2021-07-30T08:01:03Z</time>
      </trkpt>
      <trkpt lat="48.74795" lon="6.19817">
        <ele>200.2</ele>
        <time>2021-07-30T08:01:04Z</time>
      </trkpt>
      <trkpt lat="48.74796" lon="6.19817">
        <ele>200.2</ele>
        <time>2021-07-30T08:01:05Z</time>
      </trkpt>
      <trkpt lat="48.74798" lon="6.19817">
        <ele>200.2</ele>
        <time>2021-07-30T08:01:07Z</time>
      </trkpt>
      <trkpt lat="48.748" lon="6.19816">
        <ele>200.3</ele>
        <time>2021-07-30T08:01:08Z</time>
      </trkpt>
      <trkpt lat="48.74823" lon="6.19825">
        <ele>200.7</ele>
        <time>2021-07-30T08:01:09Z</time>
      </trkpt>
      <trkpt lat="48.74845" lon="6.19834">
        <ele>201.2</ele>
        <time>2021-07-30T08:04:04Z</time>
      </trkpt>
      <trkpt lat="48.74866" lon="6.19843">
        <ele>201</ele>
        <time>2021-07-30T08:04:05Z</time>
      </trkpt>
      <trkpt lat="48.74867" lon="6.19856">
        <ele>201</ele>
        <time>2021-07-30T08:04:06Z</time>
      </trkpt>
      <trkpt lat="48.74869" lon="6.19876">
        <ele>200.9</ele>
        <time>2021-07-30T08:04:08Z</time>
      </trkpt>
      <trkpt lat="48.74872" lon="6.19892">
        <ele>200.8</ele>
        <time>2021-07-30T08:04:10Z</time>
      </trkpt>
      <trkpt lat="48.74873" lon="6.19899">
        <ele>200.8</ele>
        <time>2021-07-30T08:04:11Z</time>
      </trkpt>
      <trkpt lat="48.74874" lon="6.19906">
        <ele>200.8</ele>
        <time>2021-07-30T08:04:13Z</time>
      </trkpt>
      <trkpt lat="48.74873" lon="6.19915">
        <ele>200.8</ele>
        <time>2021-07-30T08:04:14Z</time>
      </trkpt>
      <trkpt lat="48.7487" lon="6.1992">
        <ele>200.8</ele>
        <time>2021-07-30T08:04:15Z</time>
      </trkpt>
      <trkpt lat="48.74864" lon="6.19927">
        <ele>200.7</ele>
        <time>2021-07-30T08:04:17Z</time>
      </trkpt>
      <trkpt lat="48.74849" lon="6.19936">
        <ele>200.7</ele>
        <time>2021-07-30T08:04:18Z</time>
      </trkpt>
      <trkpt lat="48.74845" lon="6.19942">
        <ele>200.7</ele>
        <time>2021-07-30T08:04:19Z</time>
      </trkpt>
      <trkpt lat="48.74841" lon="6.19948">
        <ele>200.7</ele>
        <time>2021-07-30T08:04:20Z</time>
      </trkpt>
      <trkpt lat="48.74834" lon="6.1996">
        <ele>200.8</ele>
        <time>2021-07-30T08:04:22Z</time>
      </trkpt>
      <trkpt lat="48.74831" lon="6.19967">
        <ele>200.8</ele>
        <time>2021-07-30T08:04:23Z</time>
      </trkpt>
      <trkpt lat="48.74828" lon="6.19973">
        <ele>200.9</ele>
        <time>2021-07-30T08:04:24Z</time>
      </trkpt>
      <trkpt lat="48.74828" lon="6.19979">
        <ele>200.9</ele>
        <time>2021-07-30T08:04:26Z</time>
      </trkpt>
      <trkpt lat="48.74827" lon="6.19989">
        <ele>201</ele>
        <time>2021-07-30T08:04:27Z</time>
      </trkpt>
      <trkpt lat="48.74822" lon="6.19995">
        <ele>201.1</ele>
        <time>2021-07-30T08:04:28Z</time>
      </trkpt>
      <trkpt lat="48.74818" lon="6.20003">
        <ele>201.2</ele>
        <time>2021-07-30T08:04:30Z</time>
      </trkpt>
      <trkpt lat="48.74815" lon="6.20009">
        <ele>201.3</ele>
        <time>2021-07-30T08:04:31Z</time>
      </trkpt>
      <trkpt lat="48.74813" lon="6.20017">
        <ele>201.4</ele>
        <time>2021-07-30T08:04:32Z</time>
      </trkpt>
      <trkpt lat="48.74811" lon="6.20022">
        <ele>201.5</ele>
        <time>2021-07-30T08:04:33Z</time>
      </trkpt>
      <trkpt lat="48.7481" lon="6.20031">
        <ele>201.6</ele>
        <time>2021-07-30T08:04:35Z</time>
      </trkpt>
      <trkpt lat="48.74809" lon="6.2004">
        <ele>201.8</ele>
        <time>2021-07-30T08:04:37Z</time>
      </trkpt>
      <trkpt lat="48.74808" lon="6.20046">
        <ele>201.9</ele>
        <time>2021-07-30T08:04:38Z</time>
      </trkpt>
      <trkpt lat="48.74807" lon="6.20052">
        <ele>202</ele>
        <time>2021-07-30T08:04:40Z</time>
      </trkpt>
      <trkpt lat="48.74806" lon="6.20059">
        <ele>202.1</ele>
        <time>2021-07-30T08:04:41Z</time>
      </trkpt>
      <trkpt lat="48.74804" lon="6.20066">
        <ele>202.2</ele>
        <time>2021-07-30T08:04:43Z</time>
      </trkpt>
      <trkpt lat="48.74804" lon="6.20071">
        <ele>202.3</ele>
        <time>2021-07-30T08:04:44Z</time>
      </trkpt>
      <trkpt lat="48.74804" lon="6.20077">
        <ele>202.4</ele>
        <time>2021-07-30T08:04:46Z</time>
      </trkpt>
      <trkpt lat="48.74802" lon="6.2008">
        <ele>202.4</ele>
        <time>2021-07-30T08:04:47Z</time>
      </trkpt>
      <trkpt lat="48.74799" lon="6.20083">
        <ele>202.5</ele>
        <time>2021-07-30T08:04:48Z</time>
      </trkpt>
      <trkpt lat="48.74798" lon="6.2009">
        <ele>202.6</ele>
        <time>2021-07-30T08:04:50Z</time>
      </trkpt>
      <trkpt lat="48.74798" lon="6.20096">
        <ele>202.6</ele>
        <time>2021-07-30T08:04:51Z</time>
      </trkpt>
      <trkpt lat="48.74798" lon="6.20101">
        <ele>202.7</ele>
        <time>2021-07-30T08:04:52Z</time>
      </trkpt>
      <trkpt lat="48.74797" lon="6.20108">
        <ele>202.7</ele>
        <time>2021-07-30T08:04:54Z</time>
      </trkpt>
      <trkpt lat="48.74797" lon="6.20112">
        <ele>202.8</ele>
        <time>2021-07-30T08:04:55Z</time>
      </trkpt>
      <trkpt lat="48.74797" lon="6.20117">
        <ele>202.9</ele>
        <time>2021-07-30T08:04:56Z</time>
      </trkpt>
      <trkpt lat="48.74796" lon="6.20122">
        <ele>202.9</ele>
        <time>2021-07-30T08:04:57Z</time>
      </trkpt>
      <trkpt lat="48.74796" lon="6.20123">
        <ele>202.9</ele>
        <time>2021-07-30T08:04:58Z</time>
      </trkpt>
      <trkpt lat="48.74795" lon="6.20129">
        <ele>203</ele>
        <time>2021-07-30T08:05:00Z</time>
      </trkpt>
      <trkpt lat="48.74795" lon="6.20134">
        <ele>203</ele>
        <time>2021-07-30T08:05:02Z</time>
      </trkpt>
      <trkpt lat="48.74794" lon="6.20136">
        <ele>203.1</ele>
        <time>2021-07-30T08:05:03Z</time>
      </trkpt>
      <trkpt lat="48.74792" lon="6.2014">
        <ele>203.2</ele>
        <time>2021-07-30T08:05:05Z</time>
      </trkpt>
      <trkpt lat="48.74791" lon="6.20146">
        <ele>203.3</ele>
        <time>2021-07-30T08:05:06Z</time>
      </trkpt>
      <trkpt lat="48.74791" lon="6.20151">
        <ele>203.4</ele>
        <time>2021-07-30T08:05:07Z</time>
      </trkpt>
      <trkpt lat="48.7479" lon="6.20157">
        <ele>203.5</ele>
        <time>2021-07-30T08:05:09Z</time>
      </trkpt>
      <trkpt lat="48.74789" lon="6.20162">
        <ele>203.6</ele>
        <time>2021-07-30T08:05:10Z</time>
      </trkpt>
      <trkpt lat="48.74789" lon="6.20165">
        <ele>203.7</ele>
        <time>2021-07-30T08:05:11Z</time>
      </trkpt>
      <trkpt lat="48.7479" lon="6.20171">
        <ele>203.8</ele>
        <time>2021-07-30T08:05:13Z</time>
      </trkpt>
      <trkpt lat="48.74789" lon="6.20176">
        <ele>203.9</ele>
        <time>2021-07-30T08:05:14Z</time>
      </trkpt>
      <trkpt lat="48.74787" lon="6.20181">
        <ele>204</ele>
        <time>2021-07-30T08:05:15Z</time>
      </trkpt>
      <trkpt lat="48.74786" lon="6.20186">
        <ele>204.1</ele>
        <time>2021-07-30T08:05:16Z</time>
      </trkpt>
      <trkpt lat="48.74785" lon="6.20191">
        <ele>204.2</ele>
        <time>2021-07-30T08:05:17Z</time>
      </trkpt>
      <trkpt lat="48.74783" lon="6.20196">
        <ele>204.3</ele>
        <time>2021-07-30T08:05:18Z</time>
      </trkpt>
      <trkpt lat="48.74781" lon="6.20203">
        <ele>204.4</ele>
        <time>2021-07-30T08:05:20Z</time>
      </trkpt>
      <trkpt lat="48.74781" lon="6.20208">
        <ele>204.7</ele>
        <time>2021-07-30T08:05:21Z</time>
      </trkpt>
      <trkpt lat="48.74781" lon="6.20212">
        <ele>204.9</ele>
        <time>2021-07-30T08:05:22Z</time>
      </trkpt>
      <trkpt lat="48.74781" lon="6.20218">
        <ele>205.1</ele>
        <time>2021-07-30T08:05:23Z</time>
      </trkpt>
      <trkpt lat="48.74781" lon="6.20224">
        <ele>205.4</ele>
        <time>2021-07-30T08:05:24Z</time>
      </trkpt>
      <trkpt lat="48.74781" lon="6.20227">
        <ele>205.5</ele>
        <time>2021-07-30T08:05:25Z</time>
      </trkpt>
      <trkpt lat="48.74782" lon="6.20233">
        <ele>205.9</ele>
        <time>2021-07-30T08:05:27Z</time>
      </trkpt>
      <trkpt lat="48.74784" lon="6.20237">
        <ele>206.1</ele>
        <time>2021-07-30T08:05:28Z</time>
      </trkpt>
      <trkpt lat="48.74787" lon="6.20242">
        <ele>206.3</ele>
        <time>2021-07-30T08:05:29Z</time>
      </trkpt>
      <trkpt lat="48.74788" lon="6.20249">
        <ele>206.7</ele>
        <time>2021-07-30T08:05:30Z</time>
      </trkpt>
      <trkpt lat="48.74789" lon="6.20254">
        <ele>206.9</ele>
        <time>2021-07-30T08:05:31Z</time>
      </trkpt>
      <trkpt lat="48.74791" lon="6.20259">
        <ele>207.1</ele>
        <time>2021-07-30T08:05:33Z</time>
      </trkpt>
      <trkpt lat="48.74793" lon="6.20265">
        <ele>207.3</ele>
        <time>2021-07-30T08:05:34Z</time>
      </trkpt>
      <trkpt lat="48.74796" lon="6.20271">
        <ele>207.4</ele>
        <time>2021-07-30T08:05:35Z</time>
      </trkpt>
      <trkpt lat="48.74799" lon="6.20277">
        <ele>207.4</ele>
        <time>2021-07-30T08:05:37Z</time>
      </trkpt>
      <trkpt lat="48.74802" lon="6.2028">
        <ele>207.5</ele>
        <time>2021-07-30T08:05:38Z</time>
      </trkpt>
      <trkpt lat="48.74805" lon="6.20285">
        <ele>207.5</ele>
        <time>2021-07-30T08:05:40Z</time>
      </trkpt>
      <trkpt lat="48.74807" lon="6.20289">
        <ele>207.6</ele>
        <time>2021-07-30T08:05:41Z</time>
      </trkpt>
      <trkpt lat="48.7481" lon="6.20296">
        <ele>207.6</ele>
        <time>2021-07-30T08:05:43Z</time>
      </trkpt>
      <trkpt lat="48.74812" lon="6.20303">
        <ele>207.7</ele>
        <time>2021-07-30T08:05:45Z</time>
      </trkpt>
      <trkpt lat="48.74814" lon="6.20307">
        <ele>207.7</ele>
        <time>2021-07-30T08:05:46Z</time>
      </trkpt>
      <trkpt lat="48.74817" lon="6.2031">
        <ele>207.7</ele>
        <time>2021-07-30T08:05:47Z</time>
      </trkpt>
      <trkpt lat="48.7482" lon="6.20315">
        <ele>207.8</ele>
        <time>2021-07-30T08:05:49Z</time>
      </trkpt>
      <trkpt lat="48.74821" lon="6.20317">
        <ele>207.8</ele>
        <time>2021-07-30T08:05:50Z</time>
      </trkpt>
      <trkpt lat="48.74819" lon="6.20322">
        <ele>207.8</ele>
        <time>2021-07-30T08:05:52Z</time>
      </trkpt>
      <trkpt lat="48.74817" lon="6.20327">
        <ele>207.8</ele>
        <time>2021-07-30T08:05:53Z</time>
      </trkpt>
      <trkpt lat="48.74818" lon="6.20331">
        <ele>207.8</ele>
        <time>2021-07-30T08:05:54Z</time>
      </trkpt>
      <trkpt lat="48.74818" lon="6.20336">
        <ele>207.8</ele>
        <time>2021-07-30T08:05:55Z</time>
      </trkpt>
      <trkpt lat="48.74815" lon="6.20346">
        <ele>207.8</ele>
        <time>2021-07-30T08:05:57Z</time>
      </trkpt>
      <trkpt lat="48.74815" lon="6.20353">
        <ele>207.8</ele>
        <time>2021-07-30T08:05:59Z</time>
      </trkpt>
      <trkpt lat="48.74815" lon="6.20359">
        <ele>208.2</ele>
        <time>2021-07-30T08:06:00Z</time>
      </trkpt>
      <trkpt lat="48.74816" lon="6.20365">
        <ele>208.6</ele>
        <time>2021-07-30T08:06:02Z</time>
      </trkpt>
      <trkpt lat="48.74816" lon="6.20371">
        <ele>209.1</ele>
        <time>2021-07-30T08:06:03Z</time>
      </trkpt>
      <trkpt lat="48.74816" lon="6.20373">
        <ele>209.2</ele>
        <time>2021-07-30T08:06:04Z</time>
      </trkpt>
      <trkpt lat="48.74818" lon="6.20375">
        <ele>209.4</ele>
        <time>2021-07-30T08:06:05Z</time>
      </trkpt>
      <trkpt lat="48.74823" lon="6.20378">
        <ele>210</ele>
        <time>2021-07-30T08:06:07Z</time>
      </trkpt>
      <trkpt lat="48.74826" lon="6.20381">
        <ele>210.2</ele>
        <time>2021-07-30T08:06:09Z</time>
      </trkpt>
      <trkpt lat="48.74828" lon="6.20384">
        <ele>210.2</ele>
        <time>2021-07-30T08:06:10Z</time>
      </trkpt>
      <trkpt lat="48.74829" lon="6.20385">
        <ele>210.2</ele>
        <time>2021-07-30T08:06:11Z</time>
      </trkpt>
      <trkpt lat="48.74833" lon="6.20386">
        <ele>210.2</ele>
        <time>2021-07-30T08:06:13Z</time>
      </trkpt>
      <trkpt lat="48.74835" lon="6.20386">
        <ele>210.4</ele>
        <time>2021-07-30T08:06:14Z</time>
      </trkpt>
      <trkpt lat="48.74839" lon="6.20388">
        <ele>210.6</ele>
        <time>2021-07-30T08:06:16Z</time>
      </trkpt>
      <trkpt lat="48.7484" lon="6.20385">
        <ele>210.7</ele>
        <time>2021-07-30T08:06:17Z</time>
      </trkpt>
      <trkpt lat="48.7484" lon="6.20383">
        <ele>210.8</ele>
        <time>2021-07-30T08:06:19Z</time>
      </trkpt>
      <trkpt lat="48.7484" lon="6.2038">
        <ele>210.9</ele>
        <time>2021-07-30T08:06:21Z</time>
      </trkpt>
      <trkpt lat="48.74841" lon="6.20377">
        <ele>211</ele>
        <time>2021-07-30T08:06:23Z</time>
      </trkpt>
      <trkpt lat="48.74841" lon="6.20374">
        <ele>211.1</ele>
        <time>2021-07-30T08:06:24Z</time>
      </trkpt>
      <trkpt lat="48.74841" lon="6.20372">
        <ele>211.2</ele>
        <time>2021-07-30T08:06:25Z</time>
      </trkpt>
      <trkpt lat="48.74839" lon="6.20371">
        <ele>211.3</ele>
        <time>2021-07-30T08:06:27Z</time>
      </trkpt>
      <trkpt lat="48.74838" lon="6.20373">
        <ele>211.4</ele>
        <time>2021-07-30T08:06:28Z</time>
      </trkpt>
      <trkpt lat="48.74837" lon="6.20376">
        <ele>211.6</ele>
        <time>2021-07-30T08:06:29Z</time>
      </trkpt>
      <trkpt lat="48.74835" lon="6.20379">
        <ele>211.7</ele>
        <time>2021-07-30T08:06:31Z</time>
      </trkpt>
      <trkpt lat="48.74835" lon="6.20379">
        <ele>211.7</ele>
        <time>2021-07-30T08:06:32Z</time>
      </trkpt>
      <trkpt lat="48.74835" lon="6.20377">
        <ele>211.8</ele>
        <time>2021-07-30T08:06:34Z</time>
      </trkpt>
      <trkpt lat="48.74831" lon="6.20387">
        <ele>212.2</ele>
        <time>2021-07-30T08:06:36Z</time>
      </trkpt>
      <trkpt lat="48.74829" lon="6.20395">
        <ele>212.6</ele>
        <time>2021-07-30T08:06:37Z</time>
      </trkpt>
      <trkpt lat="48.74826" lon="6.20403">
        <ele>212.9</ele>
        <time>2021-07-30T08:06:39Z</time>
      </trkpt>
      <trkpt lat="48.74822" lon="6.2041">
        <ele>213.2</ele>
        <time>2021-07-30T08:06:40Z</time>
      </trkpt>
      <trkpt lat="48.74819" lon="6.20414">
        <ele>213.4</ele>
        <time>2021-07-30T08:06:41Z</time>
      </trkpt>
      <trkpt lat="48.74816" lon="6.20419">
        <ele>213.6</ele>
        <time>2021-07-30T08:06:42Z</time>
      </trkpt>
      <trkpt lat="48.74812" lon="6.20423">
        <ele>213.8</ele>
        <time>2021-07-30T08:06:44Z</time>
      </trkpt>
      <trkpt lat="48.74806" lon="6.20428">
        <ele>214.1</ele>
        <time>2021-07-30T08:06:45Z</time>
      </trkpt>
      <trkpt lat="48.74802" lon="6.20433">
        <ele>214.3</ele>
        <time>2021-07-30T08:06:46Z</time>
      </trkpt>
      <trkpt lat="48.74796" lon="6.2044">
        <ele>214.7</ele>
        <time>2021-07-30T08:06:48Z</time>
      </trkpt>
      <trkpt lat="48.74793" lon="6.20447">
        <ele>214.8</ele>
        <time>2021-07-30T08:06:49Z</time>
      </trkpt>
      <trkpt lat="48.74791" lon="6.20453">
        <ele>215</ele>
        <time>2021-07-30T08:06:51Z</time>
      </trkpt>
      <trkpt lat="48.74788" lon="6.20458">
        <ele>215.2</ele>
        <time>2021-07-30T08:06:52Z</time>
      </trkpt>
      <trkpt lat="48.74784" lon="6.20463">
        <ele>215.3</ele>
        <time>2021-07-30T08:06:54Z</time>
      </trkpt>
      <trkpt lat="48.74782" lon="6.20466">
        <ele>215.4</ele>
        <time>2021-07-30T08:06:55Z</time>
      </trkpt>
      <trkpt lat="48.7478" lon="6.2047">
        <ele>215.5</ele>
        <time>2021-07-30T08:06:56Z</time>
      </trkpt>
      <trkpt lat="48.74777" lon="6.20476">
        <ele>215.7</ele>
        <time>2021-07-30T08:06:58Z</time>
      </trkpt>
      <trkpt lat="48.74777" lon="6.20482">
        <ele>215.8</ele>
        <time>2021-07-30T08:06:59Z</time>
      </trkpt>
      <trkpt lat="48.74776" lon="6.20487">
        <ele>216</ele>
        <time>2021-07-30T08:07:01Z</time>
      </trkpt>
      <trkpt lat="48.74774" lon="6.20493">
        <ele>216.1</ele>
        <time>2021-07-30T08:07:02Z</time>
      </trkpt>
      <trkpt lat="48.74772" lon="6.20498">
        <ele>216.3</ele>
        <time>2021-07-30T08:07:04Z</time>
      </trkpt>
      <trkpt lat="48.7477" lon="6.20501">
        <ele>216.4</ele>
        <time>2021-07-30T08:07:05Z</time>
      </trkpt>
      <trkpt lat="48.74769" lon="6.20506">
        <ele>216.6</ele>
        <time>2021-07-30T08:07:07Z</time>
      </trkpt>
      <trkpt lat="48.74767" lon="6.20511">
        <ele>216.8</ele>
        <time>2021-07-30T08:07:08Z</time>
      </trkpt>
      <trkpt lat="48.74766" lon="6.20516">
        <ele>217</ele>
        <time>2021-07-30T08:07:10Z</time>
      </trkpt>
      <trkpt lat="48.74766" lon="6.2052">
        <ele>217.1</ele>
        <time>2021-07-30T08:07:11Z</time>
      </trkpt>
      <trkpt lat="48.74765" lon="6.20522">
        <ele>217.2</ele>
        <time>2021-07-30T08:07:13Z</time>
      </trkpt>
      <trkpt lat="48.74764" lon="6.20528">
        <ele>217.5</ele>
        <time>2021-07-30T08:07:14Z</time>
      </trkpt>
      <trkpt lat="48.74765" lon="6.20532">
        <ele>217.6</ele>
        <time>2021-07-30T08:07:16Z</time>
      </trkpt>
      <trkpt lat="48.74766" lon="6.20534">
        <ele>217.8</ele>
        <time>2021-07-30T08:07:17Z</time>
      </trkpt>
      <trkpt lat="48.74768" lon="6.20535">
        <ele>217.9</ele>
        <time>2021-07-30T08:07:19Z</time>
      </trkpt>
      <trkpt lat="48.74771" lon="6.20536">
        <ele>218.1</ele>
        <time>2021-07-30T08:07:20Z</time>
      </trkpt>
      <trkpt lat="48.74772" lon="6.20536">
        <ele>218.2</ele>
        <time>2021-07-30T08:07:21Z</time>
      </trkpt>
      <trkpt lat="48.74772" lon="6.20537">
        <ele>218.2</ele>
        <time>2021-07-30T08:07:22Z</time>
      </trkpt>
      <trkpt lat="48.74773" lon="6.20538">
        <ele>218.3</ele>
        <time>2021-07-30T08:07:23Z</time>
      </trkpt>
      <trkpt lat="48.74775" lon="6.2054">
        <ele>218.4</ele>
        <time>2021-07-30T08:07:25Z</time>
      </trkpt>
      <trkpt lat="48.74777" lon="6.2054">
        <ele>218.6</ele>
        <time>2021-07-30T08:07:27Z</time>
      </trkpt>
      <trkpt lat="48.74778" lon="6.2054">
        <ele>218.7</ele>
        <time>2021-07-30T08:07:29Z</time>
      </trkpt>
      <trkpt lat="48.74779" lon="6.20539">
        <ele>218.8</ele>
        <time>2021-07-30T08:07:30Z</time>
      </trkpt>
      <trkpt lat="48.74782" lon="6.20539">
        <ele>219.1</ele>
        <time>2021-07-30T08:07:32Z</time>
      </trkpt>
      <trkpt lat="48.74783" lon="6.2054">
        <ele>219.2</ele>
        <time>2021-07-30T08:07:33Z</time>
      </trkpt>
      <trkpt lat="48.74785" lon="6.20543">
        <ele>219.4</ele>
        <time>2021-07-30T08:07:34Z</time>
      </trkpt>
      <trkpt lat="48.74785" lon="6.20544">
        <ele>219.5</ele>
        <time>2021-07-30T08:07:35Z</time>
      </trkpt>
      <trkpt lat="48.74787" lon="6.20546">
        <ele>219.7</ele>
        <time>2021-07-30T08:07:36Z</time>
      </trkpt>
      <trkpt lat="48.7479" lon="6.20546">
        <ele>220</ele>
        <time>2021-07-30T08:07:38Z</time>
      </trkpt>
      <trkpt lat="48.74793" lon="6.20547">
        <ele>220.3</ele>
        <time>2021-07-30T08:07:39Z</time>
      </trkpt>
      <trkpt lat="48.74794" lon="6.20547">
        <ele>220.4</ele>
        <time>2021-07-30T08:07:40Z</time>
      </trkpt>
      <trkpt lat="48.74798" lon="6.20547">
        <ele>220.8</ele>
        <time>2021-07-30T08:07:42Z</time>
      </trkpt>
      <trkpt lat="48.748" lon="6.20547">
        <ele>221</ele>
        <time>2021-07-30T08:07:43Z</time>
      </trkpt>
      <trkpt lat="48.74804" lon="6.20547">
        <ele>221.4</ele>
        <time>2021-07-30T08:07:45Z</time>
      </trkpt>
      <trkpt lat="48.74807" lon="6.20547">
        <ele>221.7</ele>
        <time>2021-07-30T08:07:46Z</time>
      </trkpt>
      <trkpt lat="48.74808" lon="6.20548">
        <ele>221.8</ele>
        <time>2021-07-30T08:07:47Z</time>
      </trkpt>
      <trkpt lat="48.74812" lon="6.20548">
        <ele>222.3</ele>
        <time>2021-07-30T08:07:49Z</time>
      </trkpt>
      <trkpt lat="48.74815" lon="6.20549">
        <ele>222.7</ele>
        <time>2021-07-30T08:07:51Z</time>
      </trkpt>
      <trkpt lat="48.74818" lon="6.20553">
        <ele>223.2</ele>
        <time>2021-07-30T08:07:52Z</time>
      </trkpt>
      <trkpt lat="48.74818" lon="6.20555">
        <ele>223.4</ele>
        <time>2021-07-30T08:07:54Z</time>
      </trkpt>
      <trkpt lat="48.74817" lon="6.20555">
        <ele>223.6</ele>
        <time>2021-07-30T08:07:55Z</time>
      </trkpt>
      <trkpt lat="48.74816" lon="6.20555">
        <ele>223.6</ele>
        <time>2021-07-30T08:07:56Z</time>
      </trkpt>
      <trkpt lat="48.74816" lon="6.20555">
        <ele>223.7</ele>
        <time>2021-07-30T08:07:58Z</time>
      </trkpt>
      <trkpt lat="48.74816" lon="6.20554">
        <ele>223.7</ele>
        <time>2021-07-30T08:07:59Z</time>
      </trkpt>
      <trkpt lat="48.74816" lon="6.20554">
        <ele>223.7</ele>
        <time>2021-07-30T08:08:00Z</time>
      </trkpt>
      <trkpt lat="48.74816" lon="6.20554">
        <ele>223.7</ele>
        <time>2021-07-30T08:08:01Z</time>
      </trkpt>
      <trkpt lat="48.74816" lon="6.20554">
        <ele>223.7</ele>
        <time>2021-07-30T08:08:03Z</time>
      </trkpt>
      <trkpt lat="48.74821" lon="6.20577">
        <ele>225.8</ele>
        <time>2021-07-30T08:09:03Z</time>
      </trkpt>
      <trkpt lat="48.74822" lon="6.20578">
        <ele>226.1</ele>
        <time>2021-07-30T08:09:04Z</time>
      </trkpt>
      <trkpt lat="48.74824" lon="6.20579">
        <ele>226.3</ele>
        <time>2021-07-30T08:09:05Z</time>
      </trkpt>
      <trkpt lat="48.74825" lon="6.2058">
        <ele>226.5</ele>
        <time>2021-07-30T08:09:07Z</time>
      </trkpt>
      <trkpt lat="48.74826" lon="6.20581">
        <ele>226.7</ele>
        <time>2021-07-30T08:09:08Z</time>
      </trkpt>
      <trkpt lat="48.74827" lon="6.20582">
        <ele>226.8</ele>
        <time>2021-07-30T08:09:09Z</time>
      </trkpt>
      <trkpt lat="48.74827" lon="6.20582">
        <ele>226.8</ele>
        <time>2021-07-30T08:09:10Z</time>
      </trkpt>
      <trkpt lat="48.74828" lon="6.20583">
        <ele>227</ele>
        <time>2021-07-30T08:09:12Z</time>
      </trkpt>
      <trkpt lat="48.74829" lon="6.20584">
        <ele>227.1</ele>
        <time>2021-07-30T08:09:13Z</time>
      </trkpt>
      <trkpt lat="48.7483" lon="6.20585">
        <ele>227.3</ele>
        <time>2021-07-30T08:09:14Z</time>
      </trkpt>
      <trkpt lat="48.7483" lon="6.20586">
        <ele>227.4</ele>
        <time>2021-07-30T08:09:15Z</time>
      </trkpt>
      <trkpt lat="48.74831" lon="6.20587">
        <ele>227.5</ele>
        <time>2021-07-30T08:09:16Z</time>
      </trkpt>
      <trkpt lat="48.74832" lon="6.20589">
        <ele>227.7</ele>
        <time>2021-07-30T08:09:17Z</time>
      </trkpt>
      <trkpt lat="48.74832" lon="6.2059">
        <ele>227.9</ele>
        <time>2021-07-30T08:09:19Z</time>
      </trkpt>
      <trkpt lat="48.74833" lon="6.20591">
        <ele>228</ele>
        <time>2021-07-30T08:09:20Z</time>
      </trkpt>
      <trkpt lat="48.74833" lon="6.20592">
        <ele>228.1</ele>
        <time>2021-07-30T08:09:21Z</time>
      </trkpt>
      <trkpt lat="48.74836" lon="6.20594">
        <ele>228.6</ele>
        <time>2021-07-30T08:09:22Z</time>
      </trkpt>
      <trkpt lat="48.74837" lon="6.20595">
        <ele>228.7</ele>
        <time>2021-07-30T08:09:23Z</time>
      </trkpt>
      <trkpt lat="48.74841" lon="6.20596">
        <ele>229.4</ele>
        <time>2021-07-30T08:09:25Z</time>
      </trkpt>
      <trkpt lat="48.74843" lon="6.20597">
        <ele>229.6</ele>
        <time>2021-07-30T08:09:26Z</time>
      </trkpt>
      <trkpt lat="48.74845" lon="6.20597">
        <ele>229.9</ele>
        <time>2021-07-30T08:09:27Z</time>
      </trkpt>
      <trkpt lat="48.74848" lon="6.20598">
        <ele>230.3</ele>
        <time>2021-07-30T08:09:28Z</time>
      </trkpt>
      <trkpt lat="48.74848" lon="6.20598">
        <ele>230.4</ele>
        <time>2021-07-30T08:09:29Z</time>
      </trkpt>
      <trkpt lat="48.74851" lon="6.206">
        <ele>230.8</ele>
        <time>2021-07-30T08:09:31Z</time>
      </trkpt>
      <trkpt lat="48.74852" lon="6.206">
        <ele>230.9</ele>
        <time>2021-07-30T08:09:32Z</time>
      </trkpt>
      <trkpt lat="48.74853" lon="6.206">
        <ele>231.1</ele>
        <time>2021-07-30T08:09:33Z</time>
      </trkpt>
      <trkpt lat="48.74853" lon="6.20599">
        <ele>231.2</ele>
        <time>2021-07-30T08:09:34Z</time>
      </trkpt>
      <trkpt lat="48.74854" lon="6.20599">
        <ele>231.2</ele>
        <time>2021-07-30T08:09:35Z</time>
      </trkpt>
      <trkpt lat="48.74854" lon="6.20599">
        <ele>231.3</ele>
        <time>2021-07-30T08:09:37Z</time>
      </trkpt>
      <trkpt lat="48.74854" lon="6.20599">
        <ele>231.3</ele>
        <time>2021-07-30T08:09:38Z</time>
      </trkpt>
      <trkpt lat="48.74854" lon="6.20598">
        <ele>231.4</ele>
        <time>2021-07-30T08:09:40Z</time>
      </trkpt>
      <trkpt lat="48.74855" lon="6.20598">
        <ele>231.4</ele>
        <time>2021-07-30T08:09:41Z</time>
      </trkpt>
      <trkpt lat="48.74855" lon="6.20598">
        <ele>231.4</ele>
        <time>2021-07-30T08:09:43Z</time>
      </trkpt>
      <trkpt lat="48.74928" lon="6.20639">
        <ele>241.3</ele>
        <time>2021-07-30T08:11:06Z</time>
      </trkpt>
      <trkpt lat="48.7493" lon="6.20641">
        <ele>241.6</ele>
        <time>2021-07-30T08:11:07Z</time>
      </trkpt>
      <trkpt lat="48.74931" lon="6.20641">
        <ele>241.7</ele>
        <time>2021-07-30T08:11:08Z</time>
      </trkpt>
      <trkpt lat="48.74933" lon="6.20642">
        <ele>241.9</ele>
        <time>2021-07-30T08:11:09Z</time>
      </trkpt>
      <trkpt lat="48.74935" lon="6.20642">
        <ele>242.1</ele>
        <time>2021-07-30T08:11:10Z</time>
      </trkpt>
      <trkpt lat="48.74938" lon="6.20643">
        <ele>242.5</ele>
        <time>2021-07-30T08:11:12Z</time>
      </trkpt>
      <trkpt lat="48.74939" lon="6.20643">
        <ele>242.6</ele>
        <time>2021-07-30T08:11:13Z</time>
      </trkpt>
      <trkpt lat="48.7494" lon="6.20644">
        <ele>242.8</ele>
        <time>2021-07-30T08:11:14Z</time>
      </trkpt>
      <trkpt lat="48.74942" lon="6.20644">
        <ele>243</ele>
        <time>2021-07-30T08:11:15Z</time>
      </trkpt>
      <trkpt lat="48.74943" lon="6.20644">
        <ele>243.1</ele>
        <time>2021-07-30T08:11:16Z</time>
      </trkpt>
      <trkpt lat="48.74945" lon="6.20645">
        <ele>243.4</ele>
        <time>2021-07-30T08:11:18Z</time>
      </trkpt>
      <trkpt lat="48.74947" lon="6.20646">
        <ele>243.6</ele>
        <time>2021-07-30T08:11:19Z</time>
      </trkpt>
      <trkpt lat="48.74948" lon="6.20647">
        <ele>243.7</ele>
        <time>2021-07-30T08:11:20Z</time>
      </trkpt>
      <trkpt lat="48.74949" lon="6.20649">
        <ele>243.9</ele>
        <time>2021-07-30T08:11:22Z</time>
      </trkpt>
      <trkpt lat="48.74951" lon="6.2065">
        <ele>244.1</ele>
        <time>2021-07-30T08:11:24Z</time>
      </trkpt>
      <trkpt lat="48.74952" lon="6.20651">
        <ele>244.2</ele>
        <time>2021-07-30T08:11:25Z</time>
      </trkpt>
      <trkpt lat="48.74953" lon="6.20652">
        <ele>244.4</ele>
        <time>2021-07-30T08:11:26Z</time>
      </trkpt>
      <trkpt lat="48.74954" lon="6.20653">
        <ele>244.6</ele>
        <time>2021-07-30T08:11:28Z</time>
      </trkpt>
      <trkpt lat="48.74955" lon="6.20654">
        <ele>244.7</ele>
        <time>2021-07-30T08:11:29Z</time>
      </trkpt>
      <trkpt lat="48.74956" lon="6.20654">
        <ele>244.8</ele>
        <time>2021-07-30T08:11:30Z</time>
      </trkpt>
      <trkpt lat="48.74957" lon="6.20655">
        <ele>244.9</ele>
        <time>2021-07-30T08:11:31Z</time>
      </trkpt>
      <trkpt lat="48.74957" lon="6.20655">
        <ele>244.9</ele>
        <time>2021-07-30T08:11:33Z</time>
      </trkpt>
      <trkpt lat="48.74959" lon="6.20656">
        <ele>245</ele>
        <time>2021-07-30T08:11:34Z</time>
      </trkpt>
      <trkpt lat="48.7496" lon="6.20657">
        <ele>245.2</ele>
        <time>2021-07-30T08:11:35Z</time>
      </trkpt>
      <trkpt lat="48.74961" lon="6.20658">
        <ele>245.3</ele>
        <time>2021-07-30T08:11:37Z</time>
      </trkpt>
      <trkpt lat="48.74961" lon="6.20659">
        <ele>245.4</ele>
        <time>2021-07-30T08:11:38Z</time>
      </trkpt>
      <trkpt lat="48.74961" lon="6.2066">
        <ele>245.5</ele>
        <time>2021-07-30T08:11:39Z</time>
      </trkpt>
      <trkpt lat="48.74962" lon="6.20663">
        <ele>245.6</ele>
        <time>2021-07-30T08:11:41Z</time>
      </trkpt>
      <trkpt lat="48.74962" lon="6.20665">
        <ele>245.8</ele>
        <time>2021-07-30T08:11:42Z</time>
      </trkpt>
      <trkpt lat="48.74963" lon="6.20667">
        <ele>245.9</ele>
        <time>2021-07-30T08:11:43Z</time>
      </trkpt>
      <trkpt lat="48.74964" lon="6.20669">
        <ele>246</ele>
        <time>2021-07-30T08:11:44Z</time>
      </trkpt>
      <trkpt lat="48.74965" lon="6.2067">
        <ele>246.2</ele>
        <time>2021-07-30T08:11:45Z</time>
      </trkpt>
      <trkpt lat="48.74966" lon="6.20672">
        <ele>246.3</ele>
        <time>2021-07-30T08:11:47Z</time>
      </trkpt>
      <trkpt lat="48.74967" lon="6.20673">
        <ele>246.5</ele>
        <time>2021-07-30T08:11:48Z</time>
      </trkpt>
      <trkpt lat="48.74968" lon="6.20674">
        <ele>246.6</ele>
        <time>2021-07-30T08:11:49Z</time>
      </trkpt>
      <trkpt lat="48.74969" lon="6.20676">
        <ele>246.6</ele>
        <time>2021-07-30T08:11:51Z</time>
      </trkpt>
      <trkpt lat="48.74969" lon="6.20677">
        <ele>246.7</ele>
        <time>2021-07-30T08:11:53Z</time>
      </trkpt>
      <trkpt lat="48.74969" lon="6.20678">
        <ele>246.8</ele>
        <time>2021-07-30T08:11:54Z</time>
      </trkpt>
      <trkpt lat="48.7497" lon="6.20679">
        <ele>246.9</ele>
        <time>2021-07-30T08:11:55Z</time>
      </trkpt>
      <trkpt lat="48.7497" lon="6.2068">
        <ele>246.9</ele>
        <time>2021-07-30T08:11:57Z</time>
      </trkpt>
      <trkpt lat="48.74971" lon="6.20681">
        <ele>247</ele>
        <time>2021-07-30T08:11:58Z</time>
      </trkpt>
      <trkpt lat="48.74971" lon="6.20682">
        <ele>247.1</ele>
        <time>2021-07-30T08:11:59Z</time>
      </trkpt>
      <trkpt lat="48.74971" lon="6.20684">
        <ele>247.2</ele>
        <time>2021-07-30T08:12:16Z</time>
      </trkpt>
      <trkpt lat="48.74972" lon="6.20685">
        <ele>247.2</ele>
        <time>2021-07-30T08:12:17Z</time>
      </trkpt>
      <trkpt lat="48.74975" lon="6.20688">
        <ele>247.5</ele>
        <time>2021-07-30T08:12:18Z</time>
      </trkpt>
      <trkpt lat="48.7498" lon="6.20694">
        <ele>248.1</ele>
        <time>2021-07-30T08:12:20Z</time>
      </trkpt>
      <trkpt lat="48.74985" lon="6.207">
        <ele>248.4</ele>
        <time>2021-07-30T08:12:22Z</time>
      </trkpt>
      <trkpt lat="48.74988" lon="6.20701">
        <ele>248.7</ele>
        <time>2021-07-30T08:12:23Z</time>
      </trkpt>
      <trkpt lat="48.74991" lon="6.20703">
        <ele>248.9</ele>
        <time>2021-07-30T08:12:25Z</time>
      </trkpt>
      <trkpt lat="48.74991" lon="6.20704">
        <ele>248.9</ele>
        <time>2021-07-30T08:12:26Z</time>
      </trkpt>
      <trkpt lat="48.74993" lon="6.20706">
        <ele>249.1</ele>
        <time>2021-07-30T08:12:28Z</time>
      </trkpt>
      <trkpt lat="48.74994" lon="6.20707">
        <ele>249.1</ele>
        <time>2021-07-30T08:12:29Z</time>
      </trkpt>
      <trkpt lat="48.75" lon="6.2071">
        <ele>249.5</ele>
        <time>2021-07-30T08:12:31Z</time>
      </trkpt>
      <trkpt lat="48.75002" lon="6.20711">
        <ele>249.6</ele>
        <time>2021-07-30T08:12:33Z</time>
      </trkpt>
      <trkpt lat="48.75004" lon="6.20712">
        <ele>249.7</ele>
        <time>2021-07-30T08:12:34Z</time>
      </trkpt>
      <trkpt lat="48.75006" lon="6.20713">
        <ele>249.9</ele>
        <time>2021-07-30T08:12:35Z</time>
      </trkpt>
      <trkpt lat="48.75009" lon="6.20715">
        <ele>250.1</ele>
        <time>2021-07-30T08:12:37Z</time>
      </trkpt>
      <trkpt lat="48.75011" lon="6.20717">
        <ele>250.2</ele>
        <time>2021-07-30T08:12:38Z</time>
      </trkpt>
      <trkpt lat="48.75013" lon="6.20718">
        <ele>250.3</ele>
        <time>2021-07-30T08:12:39Z</time>
      </trkpt>
      <trkpt lat="48.75015" lon="6.20719">
        <ele>250.5</ele>
        <time>2021-07-30T08:12:41Z</time>
      </trkpt>
      <trkpt lat="48.75017" lon="6.20721">
        <ele>250.6</ele>
        <time>2021-07-30T08:12:42Z</time>
      </trkpt>
      <trkpt lat="48.75017" lon="6.20723">
        <ele>250.7</ele>
        <time>2021-07-30T08:12:44Z</time>
      </trkpt>
      <trkpt lat="48.75017" lon="6.20724">
        <ele>250.8</ele>
        <time>2021-07-30T08:12:45Z</time>
      </trkpt>
      <trkpt lat="48.75017" lon="6.20725">
        <ele>250.8</ele>
        <time>2021-07-30T08:12:47Z</time>
      </trkpt>
      <trkpt lat="48.75017" lon="6.20725">
        <ele>250.8</ele>
        <time>2021-07-30T08:12:48Z</time>
      </trkpt>
      <trkpt lat="48.75018" lon="6.20725">
        <ele>250.9</ele>
        <time>2021-07-30T08:12:49Z</time>
      </trkpt>
      <trkpt lat="48.75019" lon="6.20726">
        <ele>250.9</ele>
        <time>2021-07-30T08:12:51Z</time>
      </trkpt>
      <trkpt lat="48.75019" lon="6.20727">
        <ele>251</ele>
        <time>2021-07-30T08:12:52Z</time>
      </trkpt>
      <trkpt lat="48.7502" lon="6.20728">
        <ele>251</ele>
        <time>2021-07-30T08:12:54Z</time>
      </trkpt>
      <trkpt lat="48.7502" lon="6.20728">
        <ele>251.1</ele>
        <time>2021-07-30T08:12:55Z</time>
      </trkpt>
      <trkpt lat="48.75024" lon="6.20731">
        <ele>251.4</ele>
        <time>2021-07-30T08:12:57Z</time>
      </trkpt>
      <trkpt lat="48.75028" lon="6.20734">
        <ele>251.7</ele>
        <time>2021-07-30T08:12:58Z</time>
      </trkpt>
      <trkpt lat="48.75031" lon="6.20737">
        <ele>251.9</ele>
        <time>2021-07-30T08:12:59Z</time>
      </trkpt>
      <trkpt lat="48.75032" lon="6.20739">
        <ele>252</ele>
        <time>2021-07-30T08:13:00Z</time>
      </trkpt>
      <trkpt lat="48.75035" lon="6.20743">
        <ele>252.3</ele>
        <time>2021-07-30T08:13:01Z</time>
      </trkpt>
      <trkpt lat="48.7504" lon="6.20749">
        <ele>252.7</ele>
        <time>2021-07-30T08:13:03Z</time>
      </trkpt>
      <trkpt lat="48.75041" lon="6.20753">
        <ele>253</ele>
        <time>2021-07-30T08:13:04Z</time>
      </trkpt>
      <trkpt lat="48.75042" lon="6.20756">
        <ele>253.1</ele>
        <time>2021-07-30T08:13:05Z</time>
      </trkpt>
      <trkpt lat="48.75045" lon="6.2076">
        <ele>253.3</ele>
        <time>2021-07-30T08:13:07Z</time>
      </trkpt>
      <trkpt lat="48.75046" lon="6.20762">
        <ele>253.5</ele>
        <time>2021-07-30T08:13:08Z</time>
      </trkpt>
      <trkpt lat="48.75046" lon="6.20763">
        <ele>253.5</ele>
        <time>2021-07-30T08:13:09Z</time>
      </trkpt>
      <trkpt lat="48.75049" lon="6.20764">
        <ele>253.7</ele>
        <time>2021-07-30T08:13:11Z</time>
      </trkpt>
      <trkpt lat="48.7505" lon="6.20763">
        <ele>253.8</ele>
        <time>2021-07-30T08:13:12Z</time>
      </trkpt>
      <trkpt lat="48.75052" lon="6.20764">
        <ele>253.9</ele>
        <time>2021-07-30T08:13:14Z</time>
      </trkpt>
      <trkpt lat="48.75054" lon="6.20765">
        <ele>254</ele>
        <time>2021-07-30T08:13:15Z</time>
      </trkpt>
      <trkpt lat="48.75056" lon="6.20767">
        <ele>254.2</ele>
        <time>2021-07-30T08:13:17Z</time>
      </trkpt>
      <trkpt lat="48.7506" lon="6.20768">
        <ele>254.4</ele>
        <time>2021-07-30T08:13:18Z</time>
      </trkpt>
      <trkpt lat="48.75061" lon="6.20768">
        <ele>254.5</ele>
        <time>2021-07-30T08:13:19Z</time>
      </trkpt>
      <trkpt lat="48.75064" lon="6.20769">
        <ele>254.6</ele>
        <time>2021-07-30T08:13:21Z</time>
      </trkpt>
      <trkpt lat="48.75066" lon="6.2077">
        <ele>254.8</ele>
        <time>2021-07-30T08:13:22Z</time>
      </trkpt>
      <trkpt lat="48.75068" lon="6.20768">
        <ele>254.9</ele>
        <time>2021-07-30T08:13:24Z</time>
      </trkpt>
      <trkpt lat="48.75071" lon="6.20768">
        <ele>255</ele>
        <time>2021-07-30T08:13:25Z</time>
      </trkpt>
      <trkpt lat="48.75072" lon="6.20768">
        <ele>255.1</ele>
        <time>2021-07-30T08:13:26Z</time>
      </trkpt>
      <trkpt lat="48.75073" lon="6.20768">
        <ele>255.2</ele>
        <time>2021-07-30T08:13:28Z</time>
      </trkpt>
      <trkpt lat="48.75074" lon="6.20768">
        <ele>255.2</ele>
        <time>2021-07-30T08:13:29Z</time>
      </trkpt>
      <trkpt lat="48.75078" lon="6.2077">
        <ele>255.4</ele>
        <time>2021-07-30T08:13:31Z</time>
      </trkpt>
      <trkpt lat="48.75082" lon="6.20769">
        <ele>255.6</ele>
        <time>2021-07-30T08:13:33Z</time>
      </trkpt>
      <trkpt lat="48.75083" lon="6.20769">
        <ele>255.6</ele>
        <time>2021-07-30T08:13:34Z</time>
      </trkpt>
      <trkpt lat="48.75086" lon="6.20768">
        <ele>255.7</ele>
        <time>2021-07-30T08:13:35Z</time>
      </trkpt>
      <trkpt lat="48.75086" lon="6.20768">
        <ele>255.8</ele>
        <time>2021-07-30T08:13:36Z</time>
      </trkpt>
      <trkpt lat="48.7509" lon="6.20768">
        <ele>255.9</ele>
        <time>2021-07-30T08:13:38Z</time>
      </trkpt>
      <trkpt lat="48.75093" lon="6.20768">
        <ele>256</ele>
        <time>2021-07-30T08:13:40Z</time>
      </trkpt>
      <trkpt lat="48.75096" lon="6.20769">
        <ele>256.1</ele>
        <time>2021-07-30T08:13:41Z</time>
      </trkpt>
      <trkpt lat="48.75098" lon="6.2077">
        <ele>256.2</ele>
        <time>2021-07-30T08:13:43Z</time>
      </trkpt>
      <trkpt lat="48.75102" lon="6.20771">
        <ele>256.3</ele>
        <time>2021-07-30T08:13:44Z</time>
      </trkpt>
      <trkpt lat="48.75104" lon="6.20771">
        <ele>256.3</ele>
        <time>2021-07-30T08:13:45Z</time>
      </trkpt>
      <trkpt lat="48.75108" lon="6.20773">
        <ele>256.4</ele>
        <time>2021-07-30T08:13:47Z</time>
      </trkpt>
      <trkpt lat="48.75111" lon="6.20773">
        <ele>256.5</ele>
        <time>2021-07-30T08:13:48Z</time>
      </trkpt>
      <trkpt lat="48.75115" lon="6.20775">
        <ele>256.6</ele>
        <time>2021-07-30T08:13:50Z</time>
      </trkpt>
      <trkpt lat="48.7512" lon="6.20776">
        <ele>256.6</ele>
        <time>2021-07-30T08:13:52Z</time>
      </trkpt>
      <trkpt lat="48.75122" lon="6.20776">
        <ele>256.6</ele>
        <time>2021-07-30T08:13:53Z</time>
      </trkpt>
      <trkpt lat="48.75125" lon="6.20776">
        <ele>256.7</ele>
        <time>2021-07-30T08:13:55Z</time>
      </trkpt>
      <trkpt lat="48.75128" lon="6.20777">
        <ele>256.7</ele>
        <time>2021-07-30T08:13:57Z</time>
      </trkpt>
      <trkpt lat="48.7513" lon="6.20778">
        <ele>256.7</ele>
        <time>2021-07-30T08:13:58Z</time>
      </trkpt>
      <trkpt lat="48.75132" lon="6.20779">
        <ele>256.7</ele>
        <time>2021-07-30T08:13:59Z</time>
      </trkpt>
      <trkpt lat="48.75134" lon="6.20779">
        <ele>256.7</ele>
        <time>2021-07-30T08:14:01Z</time>
      </trkpt>
      <trkpt lat="48.75135" lon="6.20777">
        <ele>256.7</ele>
        <time>2021-07-30T08:14:03Z</time>
      </trkpt>
      <trkpt lat="48.75134" lon="6.20777">
        <ele>256.6</ele>
        <time>2021-07-30T08:14:04Z</time>
      </trkpt>
      <trkpt lat="48.75134" lon="6.20776">
        <ele>256.6</ele>
        <time>2021-07-30T08:14:05Z</time>
      </trkpt>
      <trkpt lat="48.75135" lon="6.20776">
        <ele>256.6</ele>
        <time>2021-07-30T08:14:07Z</time>
      </trkpt>
      <trkpt lat="48.75135" lon="6.20776">
        <ele>256.6</ele>
        <time>2021-07-30T08:14:08Z</time>
      </trkpt>
      <trkpt lat="48.75135" lon="6.20776">
        <ele>256.6</ele>
        <time>2021-07-30T08:14:09Z</time>
      </trkpt>
      <trkpt lat="48.75135" lon="6.20776">
        <ele>256.6</ele>
        <time>2021-07-30T08:14:11Z</time>
      </trkpt>
      <trkpt lat="48.75139" lon="6.20742">
        <ele>255.4</ele>
        <time>2021-07-30T08:15:58Z</time>
      </trkpt>
      <trkpt lat="48.75139" lon="6.20737">
        <ele>255.3</ele>
        <time>2021-07-30T08:15:59Z</time>
      </trkpt>
      <trkpt lat="48.7514" lon="6.20735">
        <ele>255.2</ele>
        <time>2021-07-30T08:16:00Z</time>
      </trkpt>
      <trkpt lat="48.7514" lon="6.20732">
        <ele>255.1</ele>
        <time>2021-07-30T08:16:02Z</time>
      </trkpt>
      <trkpt lat="48.7514" lon="6.20731">
        <ele>255</ele>
        <time>2021-07-30T08:16:04Z</time>
      </trkpt>
      <trkpt lat="48.75139" lon="6.2073">
        <ele>255</ele>
        <time>2021-07-30T08:16:05Z</time>
      </trkpt>
      <trkpt lat="48.75139" lon="6.2073">
        <ele>255</ele>
        <time>2021-07-30T08:16:07Z</time>
      </trkpt>
      <trkpt lat="48.75139" lon="6.2073">
        <ele>255</ele>
        <time>2021-07-30T08:16:09Z</time>
      </trkpt>
      <trkpt lat="48.75138" lon="6.20738">
        <ele>254.7</ele>
        <time>2021-07-30T08:16:11Z</time>
      </trkpt>
      <trkpt lat="48.75138" lon="6.2074">
        <ele>254.6</ele>
        <time>2021-07-30T08:16:12Z</time>
      </trkpt>
      <trkpt lat="48.75138" lon="6.2074">
        <ele>254.6</ele>
        <time>2021-07-30T08:16:13Z</time>
      </trkpt>
      <trkpt lat="48.75138" lon="6.20739">
        <ele>254.6</ele>
        <time>2021-07-30T08:16:15Z</time>
      </trkpt>
      <trkpt lat="48.75138" lon="6.20738">
        <ele>254.6</ele>
        <time>2021-07-30T08:16:16Z</time>
      </trkpt>
      <trkpt lat="48.75139" lon="6.20736">
        <ele>254.5</ele>
        <time>2021-07-30T08:16:17Z</time>
      </trkpt>
      <trkpt lat="48.75139" lon="6.20734">
        <ele>254.4</ele>
        <time>2021-07-30T08:16:18Z</time>
      </trkpt>
      <trkpt lat="48.75139" lon="6.20734">
        <ele>254.4</ele>
        <time>2021-07-30T08:16:20Z</time>
      </trkpt>
      <trkpt lat="48.75138" lon="6.20733">
        <ele>254.4</ele>
        <time>2021-07-30T08:16:21Z</time>
      </trkpt>
      <trkpt lat="48.75138" lon="6.20733">
        <ele>254.3</ele>
        <time>2021-07-30T08:16:23Z</time>
      </trkpt>
      <trkpt lat="48.75138" lon="6.20732">
        <ele>254.3</ele>
        <time>2021-07-30T08:16:24Z</time>
      </trkpt>
      <trkpt lat="48.75137" lon="6.20731">
        <ele>254.3</ele>
        <time>2021-07-30T08:16:25Z</time>
      </trkpt>
      <trkpt lat="48.75137" lon="6.20731">
        <ele>254.3</ele>
        <time>2021-07-30T08:16:26Z</time>
      </trkpt>
      <trkpt lat="48.75136" lon="6.20731">
        <ele>254.2</ele>
        <time>2021-07-30T08:16:28Z</time>
      </trkpt>
      <trkpt lat="48.75136" lon="6.20731">
        <ele>254.2</ele>
        <time>2021-07-30T08:16:30Z</time>
      </trkpt>
      <trkpt lat="48.75136" lon="6.20731">
        <ele>254.2</ele>
        <time>2021-07-30T08:16:31Z</time>
      </trkpt>
      <trkpt lat="48.75135" lon="6.20731">
        <ele>254.2</ele>
        <time>2021-07-30T08:16:32Z</time>
      </trkpt>
      <trkpt lat="48.75135" lon="6.20731">
        <ele>254.2</ele>
        <time>2021-07-30T08:16:33Z</time>
      </trkpt>
      <trkpt lat="48.75135" lon="6.20731">
        <ele>254.2</ele>
        <time>2021-07-30T08:16:35Z</time>
      </trkpt>
      <trkpt lat="48.75135" lon="6.20731">
        <ele>254.1</ele>
        <time>2021-07-30T08:16:36Z</time>
      </trkpt>
      <trkpt lat="48.75135" lon="6.20731">
        <ele>254.1</ele>
        <time>2021-07-30T08:16:37Z</time>
      </trkpt>
      <trkpt lat="48.75134" lon="6.2073">
        <ele>254.1</ele>
        <time>2021-07-30T08:16:39Z</time>
      </trkpt>
      <trkpt lat="48.75134" lon="6.20729">
        <ele>254</ele>
        <time>2021-07-30T08:16:41Z</time>
      </trkpt>
      <trkpt lat="48.75133" lon="6.20727">
        <ele>254</ele>
        <time>2021-07-30T08:16:43Z</time>
      </trkpt>
      <trkpt lat="48.75133" lon="6.20727">
        <ele>253.9</ele>
        <time>2021-07-30T08:16:44Z</time>
      </trkpt>
      <trkpt lat="48.75132" lon="6.20726">
        <ele>253.9</ele>
        <time>2021-07-30T08:16:45Z</time>
      </trkpt>
      <trkpt lat="48.75132" lon="6.20726">
        <ele>253.9</ele>
        <time>2021-07-30T08:16:47Z</time>
      </trkpt>
      <trkpt lat="48.75132" lon="6.20725">
        <ele>253.9</ele>
        <time>2021-07-30T08:16:49Z</time>
      </trkpt>
      <trkpt lat="48.75132" lon="6.20725">
        <ele>253.9</ele>
        <time>2021-07-30T08:16:50Z</time>
      </trkpt>
      <trkpt lat="48.75131" lon="6.20724">
        <ele>253.8</ele>
        <time>2021-07-30T08:16:51Z</time>
      </trkpt>
      <trkpt lat="48.7513" lon="6.20723">
        <ele>253.7</ele>
        <time>2021-07-30T08:16:52Z</time>
      </trkpt>
      <trkpt lat="48.7513" lon="6.20723">
        <ele>253.7</ele>
        <time>2021-07-30T08:16:54Z</time>
      </trkpt>
      <trkpt lat="48.7513" lon="6.20723">
        <ele>253.7</ele>
        <time>2021-07-30T08:16:55Z</time>
      </trkpt>
      <trkpt lat="48.7513" lon="6.20724">
        <ele>253.7</ele>
        <time>2021-07-30T08:16:56Z</time>
      </trkpt>
      <trkpt lat="48.75129" lon="6.20724">
        <ele>253.7</ele>
        <time>2021-07-30T08:16:57Z</time>
      </trkpt>
      <trkpt lat="48.75129" lon="6.20724">
        <ele>253.7</ele>
        <time>2021-07-30T08:16:58Z</time>
      </trkpt>
      <trkpt lat="48.75129" lon="6.20725">
        <ele>253.6</ele>
        <time>2021-07-30T08:17:00Z</time>
      </trkpt>
      <trkpt lat="48.75129" lon="6.20725">
        <ele>253.6</ele>
        <time>2021-07-30T08:17:01Z</time>
      </trkpt>
      <trkpt lat="48.75129" lon="6.20725">
        <ele>253.6</ele>
        <time>2021-07-30T08:17:02Z</time>
      </trkpt>
      <trkpt lat="48.75128" lon="6.20725">
        <ele>253.6</ele>
        <time>2021-07-30T08:17:04Z</time>
      </trkpt>
      <trkpt lat="48.75128" lon="6.20726">
        <ele>253.6</ele>
        <time>2021-07-30T08:17:05Z</time>
      </trkpt>
      <trkpt lat="48.75128" lon="6.20726">
        <ele>253.6</ele>
        <time>2021-07-30T08:17:07Z</time>
      </trkpt>
      <trkpt lat="48.75128" lon="6.20726">
        <ele>253.6</ele>
        <time>2021-07-30T08:17:08Z</time>
      </trkpt>
      <trkpt lat="48.75128" lon="6.20727">
        <ele>253.5</ele>
        <time>2021-07-30T08:17:09Z</time>
      </trkpt>
      <trkpt lat="48.75127" lon="6.20729">
        <ele>253.4</ele>
        <time>2021-07-30T08:17:10Z</time>
      </trkpt>
      <trkpt lat="48.75127" lon="6.20732">
        <ele>253.3</ele>
        <time>2021-07-30T08:17:12Z</time>
      </trkpt>
      <trkpt lat="48.75128" lon="6.20727">
        <ele>253.1</ele>
        <time>2021-07-30T08:17:14Z</time>
      </trkpt>
      <trkpt lat="48.75128" lon="6.20725">
        <ele>253</ele>
        <time>2021-07-30T08:17:15Z</time>
      </trkpt>
      <trkpt lat="48.75129" lon="6.20724">
        <ele>253</ele>
        <time>2021-07-30T08:17:16Z</time>
      </trkpt>
      <trkpt lat="48.75128" lon="6.20724">
        <ele>253</ele>
        <time>2021-07-30T08:17:18Z</time>
      </trkpt>
      <trkpt lat="48.75128" lon="6.20724">
        <ele>253</ele>
        <time>2021-07-30T08:17:19Z</time>
      </trkpt>
      <trkpt lat="48.75128" lon="6.20724">
        <ele>253</ele>
        <time>2021-07-30T08:17:21Z</time>
      </trkpt>
      <trkpt lat="48.75129" lon="6.20723">
        <ele>253</ele>
        <time>2021-07-30T08:17:23Z</time>
      </trkpt>
      <trkpt lat="48.75129" lon="6.20723">
        <ele>253</ele>
        <time>2021-07-30T08:17:24Z</time>
      </trkpt>
      <trkpt lat="48.75129" lon="6.20723">
        <ele>253</ele>
        <time>2021-07-30T08:17:25Z</time>
      </trkpt>
      <trkpt lat="48.75129" lon="6.20723">
        <ele>253</ele>
        <time>2021-07-30T08:17:27Z</time>
      </trkpt>
      <trkpt lat="48.75129" lon="6.20723">
        <ele>253</ele>
        <time>2021-07-30T08:17:28Z</time>
      </trkpt>
      <trkpt lat="48.75129" lon="6.20723">
        <ele>253</ele>
        <time>2021-07-30T08:17:30Z</time>
      </trkpt>
      <trkpt lat="48.75129" lon="6.20723">
        <ele>252.9</ele>
        <time>2021-07-30T08:17:31Z</time>
      </trkpt>
      <trkpt lat="48.75129" lon="6.20722">
        <ele>252.9</ele>
        <time>2021-07-30T08:17:33Z</time>
      </trkpt>
      <trkpt lat="48.75129" lon="6.20722">
        <ele>252.9</ele>
        <time>2021-07-30T08:17:34Z</time>
      </trkpt>
      <trkpt lat="48.75129" lon="6.20722">
        <ele>252.9</ele>
        <time>2021-07-30T08:17:37Z</time>
      </trkpt>
      <trkpt lat="48.75129" lon="6.20722">
        <ele>252.9</ele>
        <time>2021-07-30T08:17:39Z</time>
      </trkpt>
      <trkpt lat="48.75129" lon="6.20722">
        <ele>252.9</ele>
        <time>2021-07-30T08:17:46Z</time>
      </trkpt>
      <trkpt lat="48.75133" lon="6.20711">
        <ele>252.4</ele>
        <time>2021-07-30T08:17:52Z</time>
      </trkpt>
      <trkpt lat="48.75134" lon="6.20708">
        <ele>252.3</ele>
        <time>2021-07-30T08:17:58Z</time>
      </trkpt>
      <trkpt lat="48.75129" lon="6.20716">
        <ele>251.8</ele>
        <time>2021-07-30T08:18:04Z</time>
      </trkpt>
      <trkpt lat="48.75127" lon="6.2072">
        <ele>251.7</ele>
        <time>2021-07-30T08:18:05Z</time>
      </trkpt>
      <trkpt lat="48.75126" lon="6.20721">
        <ele>251.6</ele>
        <time>2021-07-30T08:18:06Z</time>
      </trkpt>
      <trkpt lat="48.75126" lon="6.20721">
        <ele>251.6</ele>
        <time>2021-07-30T08:18:08Z</time>
      </trkpt>
      <trkpt lat="48.75126" lon="6.2072">
        <ele>251.7</ele>
        <time>2021-07-30T08:18:10Z</time>
      </trkpt>
      <trkpt lat="48.75126" lon="6.2072">
        <ele>251.7</ele>
        <time>2021-07-30T08:18:12Z</time>
      </trkpt>
      <trkpt lat="48.75126" lon="6.20719">
        <ele>251.7</ele>
        <time>2021-07-30T08:18:13Z</time>
      </trkpt>
      <trkpt lat="48.75127" lon="6.2072">
        <ele>251.8</ele>
        <time>2021-07-30T08:18:15Z</time>
      </trkpt>
      <trkpt lat="48.75127" lon="6.2072">
        <ele>251.8</ele>
        <time>2021-07-30T08:18:17Z</time>
      </trkpt>
      <trkpt lat="48.75127" lon="6.20721">
        <ele>251.8</ele>
        <time>2021-07-30T08:18:18Z</time>
      </trkpt>
      <trkpt lat="48.75129" lon="6.20721">
        <ele>251.9</ele>
        <time>2021-07-30T08:18:20Z</time>
      </trkpt>
      <trkpt lat="48.7514" lon="6.20702">
        <ele>253.1</ele>
        <time>2021-07-30T08:19:15Z</time>
      </trkpt>
      <trkpt lat="48.75136" lon="6.20706">
        <ele>253.5</ele>
        <time>2021-07-30T08:19:22Z</time>
      </trkpt>
      <trkpt lat="48.75133" lon="6.20713">
        <ele>253.8</ele>
        <time>2021-07-30T08:19:28Z</time>
      </trkpt>
      <trkpt lat="48.75133" lon="6.20711">
        <ele>253.9</ele>
        <time>2021-07-30T08:19:34Z</time>
      </trkpt>
      <trkpt lat="48.75141" lon="6.20722">
        <ele>254.7</ele>
        <time>2021-07-30T08:19:36Z</time>
      </trkpt>
      <trkpt lat="48.75142" lon="6.20723">
        <ele>254.8</ele>
        <time>2021-07-30T08:19:37Z</time>
      </trkpt>
      <trkpt lat="48.75142" lon="6.20723">
        <ele>254.8</ele>
        <time>2021-07-30T08:19:38Z</time>
      </trkpt>
      <trkpt lat="48.75141" lon="6.2075">
        <ele>255.9</ele>
        <time>2021-07-30T08:30:51Z</time>
      </trkpt>
      <trkpt lat="48.75141" lon="6.20754">
        <ele>256.1</ele>
        <time>2021-07-30T08:30:52Z</time>
      </trkpt>
      <trkpt lat="48.7514" lon="6.20761">
        <ele>256.4</ele>
        <time>2021-07-30T08:30:54Z</time>
      </trkpt>
      <trkpt lat="48.7514" lon="6.20764">
        <ele>256.5</ele>
        <time>2021-07-30T08:30:55Z</time>
      </trkpt>
      <trkpt lat="48.7514" lon="6.20766">
        <ele>256.6</ele>
        <time>2021-07-30T08:30:56Z</time>
      </trkpt>
      <trkpt lat="48.75139" lon="6.20772">
        <ele>257.2</ele>
        <time>2021-07-30T08:30:58Z</time>
      </trkpt>
      <trkpt lat="48.75139" lon="6.20777">
        <ele>257.4</ele>
        <time>2021-07-30T08:30:59Z</time>
      </trkpt>
      <trkpt lat="48.7514" lon="6.20782">
        <ele>257.6</ele>
        <time>2021-07-30T08:31:00Z</time>
      </trkpt>
      <trkpt lat="48.7514" lon="6.20784">
        <ele>257.7</ele>
        <time>2021-07-30T08:31:01Z</time>
      </trkpt>
      <trkpt lat="48.75139" lon="6.20787">
        <ele>257.9</ele>
        <time>2021-07-30T08:31:02Z</time>
      </trkpt>
      <trkpt lat="48.75138" lon="6.20792">
        <ele>258.1</ele>
        <time>2021-07-30T08:31:04Z</time>
      </trkpt>
      <trkpt lat="48.75138" lon="6.20796">
        <ele>258.3</ele>
        <time>2021-07-30T08:31:05Z</time>
      </trkpt>
      <trkpt lat="48.75137" lon="6.20797">
        <ele>258.4</ele>
        <time>2021-07-30T08:31:06Z</time>
      </trkpt>
      <trkpt lat="48.75136" lon="6.20798">
        <ele>258.5</ele>
        <time>2021-07-30T08:31:07Z</time>
      </trkpt>
      <trkpt lat="48.75134" lon="6.20798">
        <ele>258.6</ele>
        <time>2021-07-30T08:31:08Z</time>
      </trkpt>
      <trkpt lat="48.75132" lon="6.20799">
        <ele>258.8</ele>
        <time>2021-07-30T08:31:10Z</time>
      </trkpt>
      <trkpt lat="48.75131" lon="6.20801">
        <ele>258.9</ele>
        <time>2021-07-30T08:31:11Z</time>
      </trkpt>
      <trkpt lat="48.75131" lon="6.20803">
        <ele>259</ele>
        <time>2021-07-30T08:31:13Z</time>
      </trkpt>
      <trkpt lat="48.75131" lon="6.20804">
        <ele>259.1</ele>
        <time>2021-07-30T08:31:14Z</time>
      </trkpt>
      <trkpt lat="48.75131" lon="6.20805">
        <ele>259.1</ele>
        <time>2021-07-30T08:31:16Z</time>
      </trkpt>
      <trkpt lat="48.75141" lon="6.20831">
        <ele>260.6</ele>
        <time>2021-07-30T08:36:18Z</time>
      </trkpt>
      <trkpt lat="48.75154" lon="6.20888">
        <ele>263</ele>
        <time>2021-07-30T08:36:25Z</time>
      </trkpt>
      <trkpt lat="48.75154" lon="6.20888">
        <ele>263</ele>
        <time>2021-07-30T08:36:26Z</time>
      </trkpt>
      <trkpt lat="48.75158" lon="6.20892">
        <ele>263</ele>
        <time>2021-07-30T08:36:28Z</time>
      </trkpt>
      <trkpt lat="48.75158" lon="6.20884">
        <ele>263</ele>
        <time>2021-07-30T08:36:29Z</time>
      </trkpt>
      <trkpt lat="48.75157" lon="6.20876">
        <ele>263</ele>
        <time>2021-07-30T08:36:31Z</time>
      </trkpt>
      <trkpt lat="48.75156" lon="6.20868">
        <ele>262.3</ele>
        <time>2021-07-30T08:36:33Z</time>
      </trkpt>
      <trkpt lat="48.75155" lon="6.2086">
        <ele>262.1</ele>
        <time>2021-07-30T08:36:34Z</time>
      </trkpt>
      <trkpt lat="48.75155" lon="6.20851">
        <ele>262</ele>
        <time>2021-07-30T08:36:35Z</time>
      </trkpt>
      <trkpt lat="48.75154" lon="6.20843">
        <ele>261.8</ele>
        <time>2021-07-30T08:38:08Z</time>
      </trkpt>
      <trkpt lat="48.75153" lon="6.20835">
        <ele>261.7</ele>
        <time>2021-07-30T08:38:13Z</time>
      </trkpt>
      <trkpt lat="48.75152" lon="6.20827">
        <ele>261.6</ele>
        <time>2021-07-30T08:38:14Z</time>
      </trkpt>
      <trkpt lat="48.75152" lon="6.20824">
        <ele>261.5</ele>
        <time>2021-07-30T08:38:19Z</time>
      </trkpt>
      <trkpt lat="48.75151" lon="6.20821">
        <ele>261.5</ele>
        <time>2021-07-30T08:38:21Z</time>
      </trkpt>
      <trkpt lat="48.7515" lon="6.20817">
        <ele>261.4</ele>
        <time>2021-07-30T08:38:26Z</time>
      </trkpt>
      <trkpt lat="48.7515" lon="6.20814">
        <ele>261.4</ele>
        <time>2021-07-30T08:38:27Z</time>
      </trkpt>
      <trkpt lat="48.7515" lon="6.20814">
        <ele>261.4</ele>
        <time>2021-07-30T08:38:32Z</time>
      </trkpt>
      <trkpt lat="48.75157" lon="6.20821">
        <ele>261.1</ele>
        <time>2021-07-30T08:38:34Z</time>
      </trkpt>
      <trkpt lat="48.75155" lon="6.20819">
        <ele>261.1</ele>
        <time>2021-07-30T08:38:39Z</time>
      </trkpt>
      <trkpt lat="48.75154" lon="6.20818">
        <ele>261.1</ele>
        <time>2021-07-30T08:38:40Z</time>
      </trkpt>
      <trkpt lat="48.75153" lon="6.20816">
        <ele>261</ele>
        <time>2021-07-30T08:38:45Z</time>
      </trkpt>
      <trkpt lat="48.75152" lon="6.20814">
        <ele>261</ele>
        <time>2021-07-30T08:38:46Z</time>
      </trkpt>
      <trkpt lat="48.75153" lon="6.20814">
        <ele>260.9</ele>
        <time>2021-07-30T08:38:51Z</time>
      </trkpt>
      <trkpt lat="48.75154" lon="6.20815">
        <ele>260.9</ele>
        <time>2021-07-30T08:38:53Z</time>
      </trkpt>
      <trkpt lat="48.75155" lon="6.20815">
        <ele>260.9</ele>
        <time>2021-07-30T08:38:58Z</time>
      </trkpt>
      <trkpt lat="48.75156" lon="6.20815">
        <ele>260.9</ele>
        <time>2021-07-30T08:38:59Z</time>
      </trkpt>
      <trkpt lat="48.75153" lon="6.20814">
        <ele>260.8</ele>
        <time>2021-07-30T08:39:04Z</time>
      </trkpt>
      <trkpt lat="48.7515" lon="6.20812">
        <ele>260.7</ele>
        <time>2021-07-30T08:39:05Z</time>
      </trkpt>
      <trkpt lat="48.75151" lon="6.2081">
        <ele>260.7</ele>
        <time>2021-07-30T08:39:10Z</time>
      </trkpt>
      <trkpt lat="48.75152" lon="6.20809">
        <ele>260.6</ele>
        <time>2021-07-30T08:39:12Z</time>
      </trkpt>
      <trkpt lat="48.75153" lon="6.20807">
        <ele>260.6</ele>
        <time>2021-07-30T08:39:17Z</time>
      </trkpt>
      <trkpt lat="48.75154" lon="6.20805">
        <ele>260.7</ele>
        <time>2021-07-30T08:39:18Z</time>
      </trkpt>
      <trkpt lat="48.75154" lon="6.20805">
        <ele>260.7</ele>
        <time>2021-07-30T08:39:23Z</time>
      </trkpt>
      <trkpt lat="48.75155" lon="6.208">
        <ele>260.7</ele>
        <time>2021-07-30T08:39:24Z</time>
      </trkpt>
      <trkpt lat="48.75155" lon="6.208">
        <ele>260.7</ele>
        <time>2021-07-30T08:39:29Z</time>
      </trkpt>
      <trkpt lat="48.75148" lon="6.20807">
        <ele>260.9</ele>
        <time>2021-07-30T08:39:31Z</time>
      </trkpt>
      <trkpt lat="48.75152" lon="6.20813">
        <ele>261.1</ele>
        <time>2021-07-30T08:39:36Z</time>
      </trkpt>
      <trkpt lat="48.75155" lon="6.2082">
        <ele>261.2</ele>
        <time>2021-07-30T08:39:37Z</time>
      </trkpt>
      <trkpt lat="48.75154" lon="6.20817">
        <ele>261.3</ele>
        <time>2021-07-30T08:39:42Z</time>
      </trkpt>
      <trkpt lat="48.75152" lon="6.20815">
        <ele>261.3</ele>
        <time>2021-07-30T08:39:43Z</time>
      </trkpt>
      <trkpt lat="48.75149" lon="6.20809">
        <ele>261.4</ele>
        <time>2021-07-30T08:39:50Z</time>
      </trkpt>
      <trkpt lat="48.75143" lon="6.20824">
        <ele>261.7</ele>
        <time>2021-07-30T08:39:56Z</time>
      </trkpt>
      <trkpt lat="48.75122" lon="6.20886">
        <ele>266.1</ele>
        <time>2021-07-30T08:39:57Z</time>
      </trkpt>
      <trkpt lat="48.75119" lon="6.20893">
        <ele>266.6</ele>
        <time>2021-07-30T08:39:58Z</time>
      </trkpt>
      <trkpt lat="48.75116" lon="6.20891">
        <ele>266.8</ele>
        <time>2021-07-30T08:40:00Z</time>
      </trkpt>
      <trkpt lat="48.75116" lon="6.20883">
        <ele>267.2</ele>
        <time>2021-07-30T08:40:02Z</time>
      </trkpt>
      <trkpt lat="48.75115" lon="6.20878">
        <ele>267.5</ele>
        <time>2021-07-30T08:40:03Z</time>
      </trkpt>
      <trkpt lat="48.75115" lon="6.20876">
        <ele>267.6</ele>
        <time>2021-07-30T08:40:04Z</time>
      </trkpt>
      <trkpt lat="48.75116" lon="6.20874">
        <ele>267.7</ele>
        <time>2021-07-30T08:40:05Z</time>
      </trkpt>
      <trkpt lat="48.75116" lon="6.20873">
        <ele>267.7</ele>
        <time>2021-07-30T08:40:06Z</time>
      </trkpt>
      <trkpt lat="48.75112" lon="6.20869">
        <ele>268.1</ele>
        <time>2021-07-30T08:42:27Z</time>
      </trkpt>
      <trkpt lat="48.75111" lon="6.20872">
        <ele>268.2</ele>
        <time>2021-07-30T08:42:28Z</time>
      </trkpt>
      <trkpt lat="48.75111" lon="6.20874">
        <ele>268.3</ele>
        <time>2021-07-30T08:42:29Z</time>
      </trkpt>
      <trkpt lat="48.75111" lon="6.20875">
        <ele>268.4</ele>
        <time>2021-07-30T08:42:31Z</time>
      </trkpt>
      <trkpt lat="48.75111" lon="6.20876">
        <ele>268.4</ele>
        <time>2021-07-30T08:42:32Z</time>
      </trkpt>
      <trkpt lat="48.75111" lon="6.20878">
        <ele>268.5</ele>
        <time>2021-07-30T08:42:34Z</time>
      </trkpt>
      <trkpt lat="48.75111" lon="6.20878">
        <ele>268.6</ele>
        <time>2021-07-30T08:42:35Z</time>
      </trkpt>
      <trkpt lat="48.7511" lon="6.20879">
        <ele>268.6</ele>
        <time>2021-07-30T08:42:36Z</time>
      </trkpt>
      <trkpt lat="48.7511" lon="6.2088">
        <ele>268.7</ele>
        <time>2021-07-30T08:42:37Z</time>
      </trkpt>
      <trkpt lat="48.7511" lon="6.20881">
        <ele>268.7</ele>
        <time>2021-07-30T08:42:38Z</time>
      </trkpt>
      <trkpt lat="48.75109" lon="6.20884">
        <ele>268.8</ele>
        <time>2021-07-30T08:42:40Z</time>
      </trkpt>
      <trkpt lat="48.75109" lon="6.20885">
        <ele>268.9</ele>
        <time>2021-07-30T08:42:41Z</time>
      </trkpt>
      <trkpt lat="48.75108" lon="6.20887">
        <ele>269</ele>
        <time>2021-07-30T08:42:42Z</time>
      </trkpt>
      <trkpt lat="48.75099" lon="6.20902">
        <ele>270</ele>
        <time>2021-07-30T08:42:52Z</time>
      </trkpt>
      <trkpt lat="48.75096" lon="6.20906">
        <ele>270.2</ele>
        <time>2021-07-30T08:42:54Z</time>
      </trkpt>
      <trkpt lat="48.75094" lon="6.20909">
        <ele>270.4</ele>
        <time>2021-07-30T08:42:55Z</time>
      </trkpt>
      <trkpt lat="48.75093" lon="6.20915">
        <ele>270.7</ele>
        <time>2021-07-30T08:42:57Z</time>
      </trkpt>
      <trkpt lat="48.75093" lon="6.20919">
        <ele>270.9</ele>
        <time>2021-07-30T08:42:58Z</time>
      </trkpt>
      <trkpt lat="48.75093" lon="6.20926">
        <ele>271.2</ele>
        <time>2021-07-30T08:43:00Z</time>
      </trkpt>
      <trkpt lat="48.75093" lon="6.20927">
        <ele>271.3</ele>
        <time>2021-07-30T08:43:01Z</time>
      </trkpt>
      <trkpt lat="48.75093" lon="6.20929">
        <ele>271.4</ele>
        <time>2021-07-30T08:43:02Z</time>
      </trkpt>
      <trkpt lat="48.75093" lon="6.20931">
        <ele>271.4</ele>
        <time>2021-07-30T08:43:03Z</time>
      </trkpt>
      <trkpt lat="48.75093" lon="6.20932">
        <ele>271.5</ele>
        <time>2021-07-30T08:43:04Z</time>
      </trkpt>
      <trkpt lat="48.75093" lon="6.20934">
        <ele>271.6</ele>
        <time>2021-07-30T08:43:05Z</time>
      </trkpt>
      <trkpt lat="48.75092" lon="6.20937">
        <ele>271.7</ele>
        <time>2021-07-30T08:43:07Z</time>
      </trkpt>
      <trkpt lat="48.75091" lon="6.20938">
        <ele>271.8</ele>
        <time>2021-07-30T08:43:08Z</time>
      </trkpt>
      <trkpt lat="48.7509" lon="6.20939">
        <ele>271.9</ele>
        <time>2021-07-30T08:43:09Z</time>
      </trkpt>
      <trkpt lat="48.7509" lon="6.20941">
        <ele>272</ele>
        <time>2021-07-30T08:43:10Z</time>
      </trkpt>
      <trkpt lat="48.75089" lon="6.20943">
        <ele>272.1</ele>
        <time>2021-07-30T08:43:11Z</time>
      </trkpt>
      <trkpt lat="48.75087" lon="6.20945">
        <ele>272.2</ele>
        <time>2021-07-30T08:43:13Z</time>
      </trkpt>
      <trkpt lat="48.75084" lon="6.20947">
        <ele>272.4</ele>
        <time>2021-07-30T08:43:14Z</time>
      </trkpt>
      <trkpt lat="48.75083" lon="6.20948">
        <ele>272.5</ele>
        <time>2021-07-30T08:43:15Z</time>
      </trkpt>
      <trkpt lat="48.75082" lon="6.20949">
        <ele>272.6</ele>
        <time>2021-07-30T08:43:17Z</time>
      </trkpt>
      <trkpt lat="48.75082" lon="6.20949">
        <ele>272.6</ele>
        <time>2021-07-30T08:43:18Z</time>
      </trkpt>
      <trkpt lat="48.75082" lon="6.2095">
        <ele>272.6</ele>
        <time>2021-07-30T08:43:19Z</time>
      </trkpt>
      <trkpt lat="48.75082" lon="6.20951">
        <ele>272.7</ele>
        <time>2021-07-30T08:43:21Z</time>
      </trkpt>
      <trkpt lat="48.75081" lon="6.20952">
        <ele>272.8</ele>
        <time>2021-07-30T08:43:22Z</time>
      </trkpt>
      <trkpt lat="48.7508" lon="6.20954">
        <ele>272.9</ele>
        <time>2021-07-30T08:43:23Z</time>
      </trkpt>
      <trkpt lat="48.7508" lon="6.20956">
        <ele>273</ele>
        <time>2021-07-30T08:43:24Z</time>
      </trkpt>
      <trkpt lat="48.75079" lon="6.20957">
        <ele>273</ele>
        <time>2021-07-30T08:43:25Z</time>
      </trkpt>
      <trkpt lat="48.75078" lon="6.2096">
        <ele>273.2</ele>
        <time>2021-07-30T08:43:27Z</time>
      </trkpt>
      <trkpt lat="48.75073" lon="6.20992">
        <ele>274.1</ele>
        <time>2021-07-30T08:45:56Z</time>
      </trkpt>
      <trkpt lat="48.75067" lon="6.20992">
        <ele>274.3</ele>
        <time>2021-07-30T08:45:58Z</time>
      </trkpt>
      <trkpt lat="48.75064" lon="6.20991">
        <ele>274.4</ele>
        <time>2021-07-30T08:45:59Z</time>
      </trkpt>
      <trkpt lat="48.75059" lon="6.2099">
        <ele>274.6</ele>
        <time>2021-07-30T08:46:01Z</time>
      </trkpt>
      <trkpt lat="48.75048" lon="6.20987">
        <ele>275</ele>
        <time>2021-07-30T08:46:03Z</time>
      </trkpt>
      <trkpt lat="48.75041" lon="6.20986">
        <ele>275.2</ele>
        <time>2021-07-30T08:46:05Z</time>
      </trkpt>
      <trkpt lat="48.75035" lon="6.20991">
        <ele>275.4</ele>
        <time>2021-07-30T08:46:07Z</time>
      </trkpt>
      <trkpt lat="48.75033" lon="6.20996">
        <ele>275.5</ele>
        <time>2021-07-30T08:46:08Z</time>
      </trkpt>
      <trkpt lat="48.75031" lon="6.21005">
        <ele>275.6</ele>
        <time>2021-07-30T08:46:10Z</time>
      </trkpt>
      <trkpt lat="48.75032" lon="6.21013">
        <ele>275.7</ele>
        <time>2021-07-30T08:46:12Z</time>
      </trkpt>
      <trkpt lat="48.75031" lon="6.21019">
        <ele>275.7</ele>
        <time>2021-07-30T08:46:13Z</time>
      </trkpt>
      <trkpt lat="48.75029" lon="6.2102">
        <ele>275.8</ele>
        <time>2021-07-30T08:46:14Z</time>
      </trkpt>
      <trkpt lat="48.75027" lon="6.2102">
        <ele>275.8</ele>
        <time>2021-07-30T08:46:15Z</time>
      </trkpt>
      <trkpt lat="48.75023" lon="6.2102">
        <ele>275.9</ele>
        <time>2021-07-30T08:46:17Z</time>
      </trkpt>
      <trkpt lat="48.7502" lon="6.21021">
        <ele>275.9</ele>
        <time>2021-07-30T08:46:18Z</time>
      </trkpt>
      <trkpt lat="48.75016" lon="6.21019">
        <ele>276</ele>
        <time>2021-07-30T08:46:20Z</time>
      </trkpt>
      <trkpt lat="48.75014" lon="6.21019">
        <ele>276</ele>
        <time>2021-07-30T08:46:21Z</time>
      </trkpt>
      <trkpt lat="48.75012" lon="6.2102">
        <ele>276</ele>
        <time>2021-07-30T08:46:22Z</time>
      </trkpt>
      <trkpt lat="48.75011" lon="6.21022">
        <ele>276</ele>
        <time>2021-07-30T08:46:24Z</time>
      </trkpt>
      <trkpt lat="48.75009" lon="6.21025">
        <ele>276.1</ele>
        <time>2021-07-30T08:46:26Z</time>
      </trkpt>
      <trkpt lat="48.75009" lon="6.2103">
        <ele>276.1</ele>
        <time>2021-07-30T08:46:28Z</time>
      </trkpt>
      <trkpt lat="48.75009" lon="6.21032">
        <ele>276.1</ele>
        <time>2021-07-30T08:46:30Z</time>
      </trkpt>
      <trkpt lat="48.75007" lon="6.21033">
        <ele>276</ele>
        <time>2021-07-30T08:46:31Z</time>
      </trkpt>
      <trkpt lat="48.75003" lon="6.21034">
        <ele>275.7</ele>
        <time>2021-07-30T08:46:32Z</time>
      </trkpt>
      <trkpt lat="48.74992" lon="6.21037">
        <ele>274.5</ele>
        <time>2021-07-30T08:46:34Z</time>
      </trkpt>
      <trkpt lat="48.74987" lon="6.21038">
        <ele>273.9</ele>
        <time>2021-07-30T08:46:36Z</time>
      </trkpt>
      <trkpt lat="48.74976" lon="6.21041">
        <ele>272.7</ele>
        <time>2021-07-30T08:46:37Z</time>
      </trkpt>
      <trkpt lat="48.74963" lon="6.21041">
        <ele>271.4</ele>
        <time>2021-07-30T08:46:39Z</time>
      </trkpt>
      <trkpt lat="48.7495" lon="6.21043">
        <ele>270.2</ele>
        <time>2021-07-30T08:46:41Z</time>
      </trkpt>
      <trkpt lat="48.74943" lon="6.21044">
        <ele>269.7</ele>
        <time>2021-07-30T08:46:42Z</time>
      </trkpt>
      <trkpt lat="48.74935" lon="6.21043">
        <ele>269.2</ele>
        <time>2021-07-30T08:46:43Z</time>
      </trkpt>
      <trkpt lat="48.7492" lon="6.21049">
        <ele>268.7</ele>
        <time>2021-07-30T08:46:45Z</time>
      </trkpt>
      <trkpt lat="48.74908" lon="6.21059">
        <ele>268.6</ele>
        <time>2021-07-30T08:46:47Z</time>
      </trkpt>
      <trkpt lat="48.74904" lon="6.21065">
        <ele>268.6</ele>
        <time>2021-07-30T08:46:48Z</time>
      </trkpt>
      <trkpt lat="48.74897" lon="6.21078">
        <ele>268.7</ele>
        <time>2021-07-30T08:46:50Z</time>
      </trkpt>
      <trkpt lat="48.7489" lon="6.21089">
        <ele>269</ele>
        <time>2021-07-30T08:46:52Z</time>
      </trkpt>
      <trkpt lat="48.74881" lon="6.211">
        <ele>269.3</ele>
        <time>2021-07-30T08:46:54Z</time>
      </trkpt>
      <trkpt lat="48.74876" lon="6.21108">
        <ele>269.4</ele>
        <time>2021-07-30T08:46:56Z</time>
      </trkpt>
      <trkpt lat="48.7487" lon="6.21115">
        <ele>269.5</ele>
        <time>2021-07-30T08:46:58Z</time>
      </trkpt>
      <trkpt lat="48.74864" lon="6.21123">
        <ele>269.3</ele>
        <time>2021-07-30T08:47:00Z</time>
      </trkpt>
      <trkpt lat="48.7486" lon="6.2113">
        <ele>269.1</ele>
        <time>2021-07-30T08:47:02Z</time>
      </trkpt>
      <trkpt lat="48.74858" lon="6.21138">
        <ele>268.7</ele>
        <time>2021-07-30T08:47:04Z</time>
      </trkpt>
      <trkpt lat="48.74854" lon="6.21143">
        <ele>268.3</ele>
        <time>2021-07-30T08:47:05Z</time>
      </trkpt>
      <trkpt lat="48.74849" lon="6.2115">
        <ele>267.7</ele>
        <time>2021-07-30T08:47:07Z</time>
      </trkpt>
      <trkpt lat="48.74844" lon="6.21155">
        <ele>267.2</ele>
        <time>2021-07-30T08:47:08Z</time>
      </trkpt>
      <trkpt lat="48.74838" lon="6.21158">
        <ele>266.7</ele>
        <time>2021-07-30T08:47:09Z</time>
      </trkpt>
      <trkpt lat="48.74831" lon="6.21174">
        <ele>265.7</ele>
        <time>2021-07-30T08:47:11Z</time>
      </trkpt>
      <trkpt lat="48.74825" lon="6.21198">
        <ele>264.9</ele>
        <time>2021-07-30T08:47:13Z</time>
      </trkpt>
      <trkpt lat="48.74821" lon="6.21221">
        <ele>264.4</ele>
        <time>2021-07-30T08:47:15Z</time>
      </trkpt>
      <trkpt lat="48.74816" lon="6.2124">
        <ele>264.1</ele>
        <time>2021-07-30T08:47:17Z</time>
      </trkpt>
      <trkpt lat="48.74814" lon="6.21249">
        <ele>264</ele>
        <time>2021-07-30T08:47:18Z</time>
      </trkpt>
      <trkpt lat="48.74812" lon="6.21258">
        <ele>264</ele>
        <time>2021-07-30T08:47:19Z</time>
      </trkpt>
      <trkpt lat="48.74808" lon="6.21274">
        <ele>263.8</ele>
        <time>2021-07-30T08:47:21Z</time>
      </trkpt>
      <trkpt lat="48.74806" lon="6.21281">
        <ele>263.8</ele>
        <time>2021-07-30T08:47:22Z</time>
      </trkpt>
      <trkpt lat="48.74801" lon="6.2129">
        <ele>263.8</ele>
        <time>2021-07-30T08:47:24Z</time>
      </trkpt>
      <trkpt lat="48.74797" lon="6.213">
        <ele>263.9</ele>
        <time>2021-07-30T08:47:26Z</time>
      </trkpt>
      <trkpt lat="48.74789" lon="6.21312">
        <ele>264.2</ele>
        <time>2021-07-30T08:47:28Z</time>
      </trkpt>
      <trkpt lat="48.74784" lon="6.21317">
        <ele>264.4</ele>
        <time>2021-07-30T08:47:29Z</time>
      </trkpt>
      <trkpt lat="48.74781" lon="6.21322">
        <ele>264.5</ele>
        <time>2021-07-30T08:47:30Z</time>
      </trkpt>
      <trkpt lat="48.74773" lon="6.2133">
        <ele>264.7</ele>
        <time>2021-07-30T08:47:32Z</time>
      </trkpt>
      <trkpt lat="48.7477" lon="6.21335">
        <ele>264.8</ele>
        <time>2021-07-30T08:47:33Z</time>
      </trkpt>
      <trkpt lat="48.7477" lon="6.21339">
        <ele>264.8</ele>
        <time>2021-07-30T08:47:34Z</time>
      </trkpt>
      <trkpt lat="48.74768" lon="6.21352">
        <ele>264.8</ele>
        <time>2021-07-30T08:47:36Z</time>
      </trkpt>
      <trkpt lat="48.74767" lon="6.21358">
        <ele>264.8</ele>
        <time>2021-07-30T08:47:37Z</time>
      </trkpt>
      <trkpt lat="48.74767" lon="6.21364">
        <ele>264.8</ele>
        <time>2021-07-30T08:47:39Z</time>
      </trkpt>
      <trkpt lat="48.74766" lon="6.2137">
        <ele>264.7</ele>
        <time>2021-07-30T08:47:40Z</time>
      </trkpt>
      <trkpt lat="48.74767" lon="6.21373">
        <ele>264.7</ele>
        <time>2021-07-30T08:47:41Z</time>
      </trkpt>
      <trkpt lat="48.74768" lon="6.21383">
        <ele>264.7</ele>
        <time>2021-07-30T08:47:43Z</time>
      </trkpt>
      <trkpt lat="48.74768" lon="6.21394">
        <ele>264.7</ele>
        <time>2021-07-30T08:47:44Z</time>
      </trkpt>
      <trkpt lat="48.74768" lon="6.21408">
        <ele>264.7</ele>
        <time>2021-07-30T08:47:45Z</time>
      </trkpt>
      <trkpt lat="48.7477" lon="6.2142">
        <ele>264.7</ele>
        <time>2021-07-30T08:47:47Z</time>
      </trkpt>
      <trkpt lat="48.7477" lon="6.21426">
        <ele>264.7</ele>
        <time>2021-07-30T08:47:48Z</time>
      </trkpt>
      <trkpt lat="48.7477" lon="6.21433">
        <ele>264.6</ele>
        <time>2021-07-30T08:47:49Z</time>
      </trkpt>
      <trkpt lat="48.7477" lon="6.21441">
        <ele>264.6</ele>
        <time>2021-07-30T08:47:50Z</time>
      </trkpt>
      <trkpt lat="48.74768" lon="6.21448">
        <ele>264.6</ele>
        <time>2021-07-30T08:47:51Z</time>
      </trkpt>
      <trkpt lat="48.74768" lon="6.21457">
        <ele>264.5</ele>
        <time>2021-07-30T08:47:53Z</time>
      </trkpt>
      <trkpt lat="48.74768" lon="6.21472">
        <ele>264.5</ele>
        <time>2021-07-30T08:47:54Z</time>
      </trkpt>
      <trkpt lat="48.74767" lon="6.21487">
        <ele>264.6</ele>
        <time>2021-07-30T08:47:56Z</time>
      </trkpt>
      <trkpt lat="48.74768" lon="6.21495">
        <ele>264.7</ele>
        <time>2021-07-30T08:47:57Z</time>
      </trkpt>
      <trkpt lat="48.74768" lon="6.21504">
        <ele>264.7</ele>
        <time>2021-07-30T08:47:58Z</time>
      </trkpt>
      <trkpt lat="48.74769" lon="6.21513">
        <ele>264.7</ele>
        <time>2021-07-30T08:48:00Z</time>
      </trkpt>
      <trkpt lat="48.7477" lon="6.21521">
        <ele>264.7</ele>
        <time>2021-07-30T08:48:01Z</time>
      </trkpt>
      <trkpt lat="48.74771" lon="6.21529">
        <ele>264.7</ele>
        <time>2021-07-30T08:48:02Z</time>
      </trkpt>
      <trkpt lat="48.74771" lon="6.21537">
        <ele>264.7</ele>
        <time>2021-07-30T08:48:03Z</time>
      </trkpt>
      <trkpt lat="48.7477" lon="6.21545">
        <ele>264.7</ele>
        <time>2021-07-30T08:48:04Z</time>
      </trkpt>
      <trkpt lat="48.74769" lon="6.21555">
        <ele>264.7</ele>
        <time>2021-07-30T08:48:05Z</time>
      </trkpt>
      <trkpt lat="48.74768" lon="6.21562">
        <ele>264.7</ele>
        <time>2021-07-30T08:48:06Z</time>
      </trkpt>
      <trkpt lat="48.74767" lon="6.21569">
        <ele>264.7</ele>
        <time>2021-07-30T08:48:07Z</time>
      </trkpt>
      <trkpt lat="48.74767" lon="6.21575">
        <ele>264.6</ele>
        <time>2021-07-30T08:48:09Z</time>
      </trkpt>
      <trkpt lat="48.74767" lon="6.21581">
        <ele>264.5</ele>
        <time>2021-07-30T08:48:10Z</time>
      </trkpt>
      <trkpt lat="48.74767" lon="6.21583">
        <ele>264.5</ele>
        <time>2021-07-30T08:48:11Z</time>
      </trkpt>
      <trkpt lat="48.74766" lon="6.2159">
        <ele>264.4</ele>
        <time>2021-07-30T08:48:12Z</time>
      </trkpt>
      <trkpt lat="48.74765" lon="6.21594">
        <ele>264.3</ele>
        <time>2021-07-30T08:48:13Z</time>
      </trkpt>
      <trkpt lat="48.74765" lon="6.21603">
        <ele>264.1</ele>
        <time>2021-07-30T08:48:15Z</time>
      </trkpt>
      <trkpt lat="48.74763" lon="6.21611">
        <ele>263.9</ele>
        <time>2021-07-30T08:48:17Z</time>
      </trkpt>
      <trkpt lat="48.74762" lon="6.21619">
        <ele>263.6</ele>
        <time>2021-07-30T08:48:18Z</time>
      </trkpt>
      <trkpt lat="48.74761" lon="6.21627">
        <ele>263.3</ele>
        <time>2021-07-30T08:48:19Z</time>
      </trkpt>
      <trkpt lat="48.7476" lon="6.21635">
        <ele>263</ele>
        <time>2021-07-30T08:48:21Z</time>
      </trkpt>
      <trkpt lat="48.74759" lon="6.21651">
        <ele>262.2</ele>
        <time>2021-07-30T08:48:22Z</time>
      </trkpt>
      <trkpt lat="48.74759" lon="6.21659">
        <ele>261.8</ele>
        <time>2021-07-30T08:48:23Z</time>
      </trkpt>
      <trkpt lat="48.74759" lon="6.21675">
        <ele>260.8</ele>
        <time>2021-07-30T08:48:25Z</time>
      </trkpt>
      <trkpt lat="48.7476" lon="6.21683">
        <ele>260.2</ele>
        <time>2021-07-30T08:48:26Z</time>
      </trkpt>
      <trkpt lat="48.74762" lon="6.21701">
        <ele>259</ele>
        <time>2021-07-30T08:48:28Z</time>
      </trkpt>
      <trkpt lat="48.74763" lon="6.21711">
        <ele>258.3</ele>
        <time>2021-07-30T08:48:29Z</time>
      </trkpt>
      <trkpt lat="48.74766" lon="6.21733">
        <ele>256.8</ele>
        <time>2021-07-30T08:48:31Z</time>
      </trkpt>
      <trkpt lat="48.74768" lon="6.21753">
        <ele>255.4</ele>
        <time>2021-07-30T08:48:33Z</time>
      </trkpt>
      <trkpt lat="48.74769" lon="6.21763">
        <ele>254.8</ele>
        <time>2021-07-30T08:48:34Z</time>
      </trkpt>
      <trkpt lat="48.74776" lon="6.21782">
        <ele>253.7</ele>
        <time>2021-07-30T08:48:36Z</time>
      </trkpt>
      <trkpt lat="48.74778" lon="6.21791">
        <ele>253.3</ele>
        <time>2021-07-30T08:48:37Z</time>
      </trkpt>
      <trkpt lat="48.7478" lon="6.21811">
        <ele>252.6</ele>
        <time>2021-07-30T08:48:39Z</time>
      </trkpt>
      <trkpt lat="48.74782" lon="6.21829">
        <ele>252.2</ele>
        <time>2021-07-30T08:48:41Z</time>
      </trkpt>
      <trkpt lat="48.74783" lon="6.21838">
        <ele>252</ele>
        <time>2021-07-30T08:48:42Z</time>
      </trkpt>
      <trkpt lat="48.74783" lon="6.21847">
        <ele>251.8</ele>
        <time>2021-07-30T08:48:43Z</time>
      </trkpt>
      <trkpt lat="48.74783" lon="6.21866">
        <ele>251.4</ele>
        <time>2021-07-30T08:48:45Z</time>
      </trkpt>
      <trkpt lat="48.74783" lon="6.21874">
        <ele>251.3</ele>
        <time>2021-07-30T08:48:46Z</time>
      </trkpt>
      <trkpt lat="48.74784" lon="6.21882">
        <ele>251.1</ele>
        <time>2021-07-30T08:48:47Z</time>
      </trkpt>
      <trkpt lat="48.74785" lon="6.2189">
        <ele>251</ele>
        <time>2021-07-30T08:48:48Z</time>
      </trkpt>
      <trkpt lat="48.74786" lon="6.21905">
        <ele>250.7</ele>
        <time>2021-07-30T08:48:50Z</time>
      </trkpt>
      <trkpt lat="48.74787" lon="6.21912">
        <ele>250.6</ele>
        <time>2021-07-30T08:48:51Z</time>
      </trkpt>
      <trkpt lat="48.74788" lon="6.21919">
        <ele>250.4</ele>
        <time>2021-07-30T08:48:52Z</time>
      </trkpt>
      <trkpt lat="48.7479" lon="6.21932">
        <ele>250</ele>
        <time>2021-07-30T08:48:54Z</time>
      </trkpt>
      <trkpt lat="48.7479" lon="6.21938">
        <ele>249.8</ele>
        <time>2021-07-30T08:48:55Z</time>
      </trkpt>
      <trkpt lat="48.74791" lon="6.21944">
        <ele>249.6</ele>
        <time>2021-07-30T08:48:56Z</time>
      </trkpt>
      <trkpt lat="48.74791" lon="6.21946">
        <ele>249.5</ele>
        <time>2021-07-30T08:48:57Z</time>
      </trkpt>
      <trkpt lat="48.74792" lon="6.2195">
        <ele>249.4</ele>
        <time>2021-07-30T08:48:58Z</time>
      </trkpt>
      <trkpt lat="48.74792" lon="6.21954">
        <ele>249.2</ele>
        <time>2021-07-30T08:48:59Z</time>
      </trkpt>
      <trkpt lat="48.74792" lon="6.21958">
        <ele>249.1</ele>
        <time>2021-07-30T08:49:00Z</time>
      </trkpt>
      <trkpt lat="48.74794" lon="6.21961">
        <ele>248.9</ele>
        <time>2021-07-30T08:49:02Z</time>
      </trkpt>
      <trkpt lat="48.74796" lon="6.21962">
        <ele>248.7</ele>
        <time>2021-07-30T08:49:03Z</time>
      </trkpt>
      <trkpt lat="48.74797" lon="6.21962">
        <ele>248.7</ele>
        <time>2021-07-30T08:49:04Z</time>
      </trkpt>
      <trkpt lat="48.74797" lon="6.21969">
        <ele>248.3</ele>
        <time>2021-07-30T08:49:06Z</time>
      </trkpt>
      <trkpt lat="48.74796" lon="6.21976">
        <ele>248</ele>
        <time>2021-07-30T08:49:07Z</time>
      </trkpt>
      <trkpt lat="48.74796" lon="6.21983">
        <ele>247.6</ele>
        <time>2021-07-30T08:49:09Z</time>
      </trkpt>
      <trkpt lat="48.74795" lon="6.2199">
        <ele>247.3</ele>
        <time>2021-07-30T08:49:10Z</time>
      </trkpt>
      <trkpt lat="48.74794" lon="6.21997">
        <ele>246.9</ele>
        <time>2021-07-30T08:49:12Z</time>
      </trkpt>
      <trkpt lat="48.74794" lon="6.22004">
        <ele>246.5</ele>
        <time>2021-07-30T08:49:13Z</time>
      </trkpt>
      <trkpt lat="48.74793" lon="6.2201">
        <ele>246.1</ele>
        <time>2021-07-30T08:50:09Z</time>
      </trkpt>
      <trkpt lat="48.74793" lon="6.22017">
        <ele>245.8</ele>
        <time>2021-07-30T08:50:11Z</time>
      </trkpt>
      <trkpt lat="48.74796" lon="6.22029">
        <ele>245.1</ele>
        <time>2021-07-30T08:50:12Z</time>
      </trkpt>
      <trkpt lat="48.74802" lon="6.22051">
        <ele>244</ele>
        <time>2021-07-30T08:50:14Z</time>
      </trkpt>
      <trkpt lat="48.74809" lon="6.22073">
        <ele>243</ele>
        <time>2021-07-30T08:50:16Z</time>
      </trkpt>
      <trkpt lat="48.74812" lon="6.22084">
        <ele>242.5</ele>
        <time>2021-07-30T08:50:17Z</time>
      </trkpt>
      <trkpt lat="48.74814" lon="6.22094">
        <ele>242.1</ele>
        <time>2021-07-30T08:50:18Z</time>
      </trkpt>
      <trkpt lat="48.74815" lon="6.22104">
        <ele>241.7</ele>
        <time>2021-07-30T08:50:19Z</time>
      </trkpt>
      <trkpt lat="48.74817" lon="6.22113">
        <ele>241.4</ele>
        <time>2021-07-30T08:50:20Z</time>
      </trkpt>
      <trkpt lat="48.74819" lon="6.22129">
        <ele>241.1</ele>
        <time>2021-07-30T08:50:22Z</time>
      </trkpt>
      <trkpt lat="48.74819" lon="6.22136">
        <ele>241</ele>
        <time>2021-07-30T08:50:23Z</time>
      </trkpt>
      <trkpt lat="48.74817" lon="6.2215">
        <ele>239.9</ele>
        <time>2021-07-30T08:50:25Z</time>
      </trkpt>
      <trkpt lat="48.74814" lon="6.22167">
        <ele>238.7</ele>
        <time>2021-07-30T08:50:27Z</time>
      </trkpt>
      <trkpt lat="48.74812" lon="6.22175">
        <ele>238.1</ele>
        <time>2021-07-30T08:50:28Z</time>
      </trkpt>
      <trkpt lat="48.74811" lon="6.22185">
        <ele>237.4</ele>
        <time>2021-07-30T08:50:29Z</time>
      </trkpt>
      <trkpt lat="48.74811" lon="6.22204">
        <ele>236.9</ele>
        <time>2021-07-30T08:50:31Z</time>
      </trkpt>
      <trkpt lat="48.74811" lon="6.22222">
        <ele>236.5</ele>
        <time>2021-07-30T08:50:33Z</time>
      </trkpt>
      <trkpt lat="48.74812" lon="6.2223">
        <ele>236.3</ele>
        <time>2021-07-30T08:50:34Z</time>
      </trkpt>
      <trkpt lat="48.74812" lon="6.22237">
        <ele>236</ele>
        <time>2021-07-30T08:50:35Z</time>
      </trkpt>
      <trkpt lat="48.74814" lon="6.22254">
        <ele>235.4</ele>
        <time>2021-07-30T08:50:37Z</time>
      </trkpt>
      <trkpt lat="48.74816" lon="6.22268">
        <ele>234.7</ele>
        <time>2021-07-30T08:50:39Z</time>
      </trkpt>
      <trkpt lat="48.74817" lon="6.22276">
        <ele>234.3</ele>
        <time>2021-07-30T08:50:40Z</time>
      </trkpt>
      <trkpt lat="48.74819" lon="6.22294">
        <ele>233.5</ele>
        <time>2021-07-30T08:50:42Z</time>
      </trkpt>
      <trkpt lat="48.7482" lon="6.22303">
        <ele>233.1</ele>
        <time>2021-07-30T08:50:43Z</time>
      </trkpt>
      <trkpt lat="48.74821" lon="6.2232">
        <ele>232.4</ele>
        <time>2021-07-30T08:50:45Z</time>
      </trkpt>
      <trkpt lat="48.74822" lon="6.22328">
        <ele>232.1</ele>
        <time>2021-07-30T08:50:46Z</time>
      </trkpt>
      <trkpt lat="48.74824" lon="6.22341">
        <ele>231.6</ele>
        <time>2021-07-30T08:50:48Z</time>
      </trkpt>
      <trkpt lat="48.74824" lon="6.22347">
        <ele>231.3</ele>
        <time>2021-07-30T08:50:49Z</time>
      </trkpt>
      <trkpt lat="48.74821" lon="6.22354">
        <ele>231</ele>
        <time>2021-07-30T08:50:51Z</time>
      </trkpt>
      <trkpt lat="48.74818" lon="6.22357">
        <ele>230.8</ele>
        <time>2021-07-30T08:50:52Z</time>
      </trkpt>
      <trkpt lat="48.74812" lon="6.22358">
        <ele>230</ele>
        <time>2021-07-30T08:50:54Z</time>
      </trkpt>
      <trkpt lat="48.74804" lon="6.22358">
        <ele>229.5</ele>
        <time>2021-07-30T08:50:55Z</time>
      </trkpt>
      <trkpt lat="48.74791" lon="6.22356">
        <ele>228.7</ele>
        <time>2021-07-30T08:50:57Z</time>
      </trkpt>
      <trkpt lat="48.74785" lon="6.22356">
        <ele>228.4</ele>
        <time>2021-07-30T08:50:58Z</time>
      </trkpt>
      <trkpt lat="48.74774" lon="6.22355">
        <ele>227.9</ele>
        <time>2021-07-30T08:51:00Z</time>
      </trkpt>
      <trkpt lat="48.74769" lon="6.22355">
        <ele>227.6</ele>
        <time>2021-07-30T08:51:01Z</time>
      </trkpt>
      <trkpt lat="48.74758" lon="6.22352">
        <ele>227.1</ele>
        <time>2021-07-30T08:51:03Z</time>
      </trkpt>
      <trkpt lat="48.74753" lon="6.22351">
        <ele>226.9</ele>
        <time>2021-07-30T08:51:04Z</time>
      </trkpt>
      <trkpt lat="48.74742" lon="6.22347">
        <ele>226.5</ele>
        <time>2021-07-30T08:51:06Z</time>
      </trkpt>
      <trkpt lat="48.74736" lon="6.22346">
        <ele>226.2</ele>
        <time>2021-07-30T08:51:07Z</time>
      </trkpt>
      <trkpt lat="48.74727" lon="6.22343">
        <ele>225.9</ele>
        <time>2021-07-30T08:51:09Z</time>
      </trkpt>
      <trkpt lat="48.74723" lon="6.22342">
        <ele>225.8</ele>
        <time>2021-07-30T08:51:10Z</time>
      </trkpt>
      <trkpt lat="48.7472" lon="6.22341">
        <ele>225.7</ele>
        <time>2021-07-30T08:51:12Z</time>
      </trkpt>
      <trkpt lat="48.74716" lon="6.2234">
        <ele>225.6</ele>
        <time>2021-07-30T08:51:13Z</time>
      </trkpt>
      <trkpt lat="48.74713" lon="6.22335">
        <ele>225.5</ele>
        <time>2021-07-30T08:51:15Z</time>
      </trkpt>
      <trkpt lat="48.74711" lon="6.22332">
        <ele>225.4</ele>
        <time>2021-07-30T08:51:16Z</time>
      </trkpt>
      <trkpt lat="48.74708" lon="6.22331">
        <ele>225.4</ele>
        <time>2021-07-30T08:51:18Z</time>
      </trkpt>
      <trkpt lat="48.74707" lon="6.2233">
        <ele>225.4</ele>
        <time>2021-07-30T08:51:19Z</time>
      </trkpt>
      <trkpt lat="48.74706" lon="6.22327">
        <ele>225.3</ele>
        <time>2021-07-30T08:51:20Z</time>
      </trkpt>
      <trkpt lat="48.74704" lon="6.22324">
        <ele>225.3</ele>
        <time>2021-07-30T08:51:22Z</time>
      </trkpt>
      <trkpt lat="48.74703" lon="6.2232">
        <ele>225.2</ele>
        <time>2021-07-30T08:51:23Z</time>
      </trkpt>
      <trkpt lat="48.74701" lon="6.22317">
        <ele>225.1</ele>
        <time>2021-07-30T08:51:25Z</time>
      </trkpt>
      <trkpt lat="48.74701" lon="6.22314">
        <ele>225.1</ele>
        <time>2021-07-30T08:51:26Z</time>
      </trkpt>
      <trkpt lat="48.74701" lon="6.22313">
        <ele>225.1</ele>
        <time>2021-07-30T08:51:27Z</time>
      </trkpt>
      <trkpt lat="48.74701" lon="6.22311">
        <ele>225.1</ele>
        <time>2021-07-30T08:51:29Z</time>
      </trkpt>
      <trkpt lat="48.74701" lon="6.22309">
        <ele>225.1</ele>
        <time>2021-07-30T08:51:31Z</time>
      </trkpt>
      <trkpt lat="48.74702" lon="6.22308">
        <ele>225.1</ele>
        <time>2021-07-30T08:51:33Z</time>
      </trkpt>
      <trkpt lat="48.74702" lon="6.22306">
        <ele>225.1</ele>
        <time>2021-07-30T08:51:34Z</time>
      </trkpt>
      <trkpt lat="48.74702" lon="6.22304">
        <ele>225.1</ele>
        <time>2021-07-30T08:51:36Z</time>
      </trkpt>
      <trkpt lat="48.74702" lon="6.22303">
        <ele>225.1</ele>
        <time>2021-07-30T08:52:01Z</time>
      </trkpt>
      <trkpt lat="48.74702" lon="6.22301">
        <ele>225.1</ele>
        <time>2021-07-30T08:52:02Z</time>
      </trkpt>
      <trkpt lat="48.74701" lon="6.22289">
        <ele>225.2</ele>
        <time>2021-07-30T08:52:03Z</time>
      </trkpt>
      <trkpt lat="48.74697" lon="6.22275">
        <ele>225.2</ele>
        <time>2021-07-30T08:52:05Z</time>
      </trkpt>
      <trkpt lat="48.74694" lon="6.22269">
        <ele>225.1</ele>
        <time>2021-07-30T08:52:06Z</time>
      </trkpt>
      <trkpt lat="48.74689" lon="6.22261">
        <ele>225.1</ele>
        <time>2021-07-30T08:52:08Z</time>
      </trkpt>
      <trkpt lat="48.74686" lon="6.22251">
        <ele>225.1</ele>
        <time>2021-07-30T08:52:09Z</time>
      </trkpt>
      <trkpt lat="48.74683" lon="6.22243">
        <ele>225.1</ele>
        <time>2021-07-30T08:52:11Z</time>
      </trkpt>
      <trkpt lat="48.7468" lon="6.22235">
        <ele>225.1</ele>
        <time>2021-07-30T08:52:12Z</time>
      </trkpt>
      <trkpt lat="48.74678" lon="6.22228">
        <ele>225.1</ele>
        <time>2021-07-30T08:52:13Z</time>
      </trkpt>
      <trkpt lat="48.74676" lon="6.2222">
        <ele>225.1</ele>
        <time>2021-07-30T08:52:14Z</time>
      </trkpt>
      <trkpt lat="48.74675" lon="6.22209">
        <ele>225.1</ele>
        <time>2021-07-30T08:52:16Z</time>
      </trkpt>
      <trkpt lat="48.74675" lon="6.22204">
        <ele>225.1</ele>
        <time>2021-07-30T08:52:17Z</time>
      </trkpt>
      <trkpt lat="48.74675" lon="6.22193">
        <ele>225.2</ele>
        <time>2021-07-30T08:52:19Z</time>
      </trkpt>
      <trkpt lat="48.74674" lon="6.22186">
        <ele>224.9</ele>
        <time>2021-07-30T08:52:21Z</time>
      </trkpt>
      <trkpt lat="48.74671" lon="6.22183">
        <ele>224.7</ele>
        <time>2021-07-30T08:52:23Z</time>
      </trkpt>
      <trkpt lat="48.74669" lon="6.22183">
        <ele>224.7</ele>
        <time>2021-07-30T08:52:24Z</time>
      </trkpt>
      <trkpt lat="48.74666" lon="6.22182">
        <ele>224.5</ele>
        <time>2021-07-30T08:52:26Z</time>
      </trkpt>
      <trkpt lat="48.74663" lon="6.22181">
        <ele>224.4</ele>
        <time>2021-07-30T08:52:27Z</time>
      </trkpt>
      <trkpt lat="48.74659" lon="6.22179">
        <ele>224.3</ele>
        <time>2021-07-30T08:52:28Z</time>
      </trkpt>
      <trkpt lat="48.74654" lon="6.22177">
        <ele>224</ele>
        <time>2021-07-30T08:52:29Z</time>
      </trkpt>
      <trkpt lat="48.74647" lon="6.22175">
        <ele>223.7</ele>
        <time>2021-07-30T08:52:30Z</time>
      </trkpt>
      <trkpt lat="48.74642" lon="6.22172">
        <ele>223.4</ele>
        <time>2021-07-30T08:52:31Z</time>
      </trkpt>
      <trkpt lat="48.7463" lon="6.22167">
        <ele>222.7</ele>
        <time>2021-07-30T08:52:33Z</time>
      </trkpt>
      <trkpt lat="48.74624" lon="6.22166">
        <ele>222.4</ele>
        <time>2021-07-30T08:52:34Z</time>
      </trkpt>
      <trkpt lat="48.74618" lon="6.22166">
        <ele>222.1</ele>
        <time>2021-07-30T08:52:35Z</time>
      </trkpt>
      <trkpt lat="48.74605" lon="6.22162">
        <ele>221.3</ele>
        <time>2021-07-30T08:52:37Z</time>
      </trkpt>
      <trkpt lat="48.74593" lon="6.2216">
        <ele>220.7</ele>
        <time>2021-07-30T08:52:39Z</time>
      </trkpt>
      <trkpt lat="48.74587" lon="6.22159">
        <ele>220.4</ele>
        <time>2021-07-30T08:52:40Z</time>
      </trkpt>
      <trkpt lat="48.74582" lon="6.22157">
        <ele>220.2</ele>
        <time>2021-07-30T08:52:41Z</time>
      </trkpt>
      <trkpt lat="48.74577" lon="6.22155">
        <ele>220</ele>
        <time>2021-07-30T08:52:42Z</time>
      </trkpt>
      <trkpt lat="48.7457" lon="6.22148">
        <ele>219.7</ele>
        <time>2021-07-30T08:52:44Z</time>
      </trkpt>
      <trkpt lat="48.74564" lon="6.22136">
        <ele>219.4</ele>
        <time>2021-07-30T08:52:46Z</time>
      </trkpt>
      <trkpt lat="48.7456" lon="6.22122">
        <ele>219.2</ele>
        <time>2021-07-30T08:52:48Z</time>
      </trkpt>
      <trkpt lat="48.74555" lon="6.22108">
        <ele>219</ele>
        <time>2021-07-30T08:52:50Z</time>
      </trkpt>
      <trkpt lat="48.7455" lon="6.22105">
        <ele>218.9</ele>
        <time>2021-07-30T08:52:52Z</time>
      </trkpt>
      <trkpt lat="48.74548" lon="6.22101">
        <ele>218.8</ele>
        <time>2021-07-30T08:52:53Z</time>
      </trkpt>
      <trkpt lat="48.74543" lon="6.2209">
        <ele>218.7</ele>
        <time>2021-07-30T08:52:55Z</time>
      </trkpt>
      <trkpt lat="48.74538" lon="6.22078">
        <ele>218.6</ele>
        <time>2021-07-30T08:52:56Z</time>
      </trkpt>
      <trkpt lat="48.74531" lon="6.22066">
        <ele>218.4</ele>
        <time>2021-07-30T08:52:58Z</time>
      </trkpt>
      <trkpt lat="48.74528" lon="6.22061">
        <ele>218.3</ele>
        <time>2021-07-30T08:52:59Z</time>
      </trkpt>
      <trkpt lat="48.7452" lon="6.22052">
        <ele>218</ele>
        <time>2021-07-30T08:53:01Z</time>
      </trkpt>
      <trkpt lat="48.74512" lon="6.22046">
        <ele>217.8</ele>
        <time>2021-07-30T08:53:03Z</time>
      </trkpt>
      <trkpt lat="48.74509" lon="6.22045">
        <ele>217.7</ele>
        <time>2021-07-30T08:53:04Z</time>
      </trkpt>
      <trkpt lat="48.74503" lon="6.2204">
        <ele>217.5</ele>
        <time>2021-07-30T08:53:06Z</time>
      </trkpt>
      <trkpt lat="48.74497" lon="6.22033">
        <ele>217.2</ele>
        <time>2021-07-30T08:53:08Z</time>
      </trkpt>
      <trkpt lat="48.74493" lon="6.2203">
        <ele>217</ele>
        <time>2021-07-30T08:53:09Z</time>
      </trkpt>
      <trkpt lat="48.74488" lon="6.22028">
        <ele>216.8</ele>
        <time>2021-07-30T08:53:10Z</time>
      </trkpt>
      <trkpt lat="48.74484" lon="6.22026">
        <ele>216.6</ele>
        <time>2021-07-30T08:53:12Z</time>
      </trkpt>
      <trkpt lat="48.7448" lon="6.22023">
        <ele>216.3</ele>
        <time>2021-07-30T08:53:13Z</time>
      </trkpt>
      <trkpt lat="48.74472" lon="6.22017">
        <ele>215.9</ele>
        <time>2021-07-30T08:53:14Z</time>
      </trkpt>
      <trkpt lat="48.74462" lon="6.22011">
        <ele>215.3</ele>
        <time>2021-07-30T08:53:16Z</time>
      </trkpt>
      <trkpt lat="48.7445" lon="6.22007">
        <ele>214.8</ele>
        <time>2021-07-30T08:53:18Z</time>
      </trkpt>
      <trkpt lat="48.74438" lon="6.22">
        <ele>214.3</ele>
        <time>2021-07-30T08:53:20Z</time>
      </trkpt>
      <trkpt lat="48.74432" lon="6.21998">
        <ele>214</ele>
        <time>2021-07-30T08:53:21Z</time>
      </trkpt>
      <trkpt lat="48.74427" lon="6.21995">
        <ele>213.7</ele>
        <time>2021-07-30T08:53:22Z</time>
      </trkpt>
      <trkpt lat="48.74417" lon="6.21988">
        <ele>213.1</ele>
        <time>2021-07-30T08:53:24Z</time>
      </trkpt>
      <trkpt lat="48.74411" lon="6.21984">
        <ele>212.8</ele>
        <time>2021-07-30T08:53:25Z</time>
      </trkpt>
      <trkpt lat="48.744" lon="6.21976">
        <ele>212</ele>
        <time>2021-07-30T08:53:27Z</time>
      </trkpt>
      <trkpt lat="48.74394" lon="6.21971">
        <ele>211.5</ele>
        <time>2021-07-30T08:53:28Z</time>
      </trkpt>
      <trkpt lat="48.74388" lon="6.21967">
        <ele>211.1</ele>
        <time>2021-07-30T08:53:29Z</time>
      </trkpt>
      <trkpt lat="48.74376" lon="6.21961">
        <ele>210.3</ele>
        <time>2021-07-30T08:53:31Z</time>
      </trkpt>
      <trkpt lat="48.74364" lon="6.21954">
        <ele>209.7</ele>
        <time>2021-07-30T08:53:33Z</time>
      </trkpt>
      <trkpt lat="48.74358" lon="6.2195">
        <ele>209.4</ele>
        <time>2021-07-30T08:53:34Z</time>
      </trkpt>
      <trkpt lat="48.74352" lon="6.21945">
        <ele>209.1</ele>
        <time>2021-07-30T08:53:35Z</time>
      </trkpt>
      <trkpt lat="48.7434" lon="6.21939">
        <ele>208.6</ele>
        <time>2021-07-30T08:53:37Z</time>
      </trkpt>
      <trkpt lat="48.74329" lon="6.21932">
        <ele>208.1</ele>
        <time>2021-07-30T08:53:39Z</time>
      </trkpt>
      <trkpt lat="48.74317" lon="6.21926">
        <ele>207.8</ele>
        <time>2021-07-30T08:53:41Z</time>
      </trkpt>
      <trkpt lat="48.74312" lon="6.21924">
        <ele>207.6</ele>
        <time>2021-07-30T08:53:42Z</time>
      </trkpt>
      <trkpt lat="48.74308" lon="6.21921">
        <ele>207.5</ele>
        <time>2021-07-30T08:53:43Z</time>
      </trkpt>
      <trkpt lat="48.743" lon="6.21915">
        <ele>207.1</ele>
        <time>2021-07-30T08:53:45Z</time>
      </trkpt>
      <trkpt lat="48.74297" lon="6.21914">
        <ele>207</ele>
        <time>2021-07-30T08:53:46Z</time>
      </trkpt>
      <trkpt lat="48.74288" lon="6.21911">
        <ele>206.6</ele>
        <time>2021-07-30T08:53:48Z</time>
      </trkpt>
      <trkpt lat="48.74283" lon="6.21909">
        <ele>206.3</ele>
        <time>2021-07-30T08:53:49Z</time>
      </trkpt>
      <trkpt lat="48.74277" lon="6.21908">
        <ele>205.8</ele>
        <time>2021-07-30T08:53:51Z</time>
      </trkpt>
      <trkpt lat="48.74273" lon="6.21909">
        <ele>205.5</ele>
        <time>2021-07-30T08:53:52Z</time>
      </trkpt>
      <trkpt lat="48.74266" lon="6.21917">
        <ele>205.6</ele>
        <time>2021-07-30T08:53:54Z</time>
      </trkpt>
      <trkpt lat="48.74265" lon="6.21921">
        <ele>205.6</ele>
        <time>2021-07-30T08:53:55Z</time>
      </trkpt>
      <trkpt lat="48.74262" lon="6.21932">
        <ele>205.6</ele>
        <time>2021-07-30T08:53:57Z</time>
      </trkpt>
      <trkpt lat="48.7426" lon="6.21939">
        <ele>205.5</ele>
        <time>2021-07-30T08:53:58Z</time>
      </trkpt>
      <trkpt lat="48.74258" lon="6.21952">
        <ele>205.4</ele>
        <time>2021-07-30T08:54:00Z</time>
      </trkpt>
      <trkpt lat="48.74257" lon="6.2196">
        <ele>205.3</ele>
        <time>2021-07-30T08:54:01Z</time>
      </trkpt>
      <trkpt lat="48.74255" lon="6.21975">
        <ele>205.2</ele>
        <time>2021-07-30T08:54:03Z</time>
      </trkpt>
      <trkpt lat="48.74254" lon="6.21982">
        <ele>205.2</ele>
        <time>2021-07-30T08:54:04Z</time>
      </trkpt>
      <trkpt lat="48.74253" lon="6.2199">
        <ele>205.1</ele>
        <time>2021-07-30T08:54:05Z</time>
      </trkpt>
      <trkpt lat="48.74251" lon="6.22006">
        <ele>205</ele>
        <time>2021-07-30T08:54:07Z</time>
      </trkpt>
      <trkpt lat="48.74248" lon="6.22022">
        <ele>205</ele>
        <time>2021-07-30T08:54:09Z</time>
      </trkpt>
      <trkpt lat="48.74246" lon="6.2203">
        <ele>204.9</ele>
        <time>2021-07-30T08:54:10Z</time>
      </trkpt>
      <trkpt lat="48.74244" lon="6.22037">
        <ele>204.9</ele>
        <time>2021-07-30T08:54:11Z</time>
      </trkpt>
      <trkpt lat="48.74241" lon="6.22053">
        <ele>204.8</ele>
        <time>2021-07-30T08:54:13Z</time>
      </trkpt>
      <trkpt lat="48.74239" lon="6.22069">
        <ele>204.8</ele>
        <time>2021-07-30T08:54:15Z</time>
      </trkpt>
      <trkpt lat="48.74238" lon="6.22077">
        <ele>204.7</ele>
        <time>2021-07-30T08:54:16Z</time>
      </trkpt>
      <trkpt lat="48.74235" lon="6.22094">
        <ele>204.7</ele>
        <time>2021-07-30T08:54:18Z</time>
      </trkpt>
      <trkpt lat="48.74232" lon="6.22101">
        <ele>204.5</ele>
        <time>2021-07-30T08:54:19Z</time>
      </trkpt>
      <trkpt lat="48.74223" lon="6.22114">
        <ele>204.1</ele>
        <time>2021-07-30T08:54:21Z</time>
      </trkpt>
      <trkpt lat="48.74218" lon="6.2212">
        <ele>204</ele>
        <time>2021-07-30T08:54:22Z</time>
      </trkpt>
      <trkpt lat="48.74212" lon="6.22125">
        <ele>203.8</ele>
        <time>2021-07-30T08:54:23Z</time>
      </trkpt>
      <trkpt lat="48.74206" lon="6.22129">
        <ele>203.6</ele>
        <time>2021-07-30T08:54:24Z</time>
      </trkpt>
      <trkpt lat="48.74201" lon="6.22133">
        <ele>203.4</ele>
        <time>2021-07-30T08:54:25Z</time>
      </trkpt>
      <trkpt lat="48.74191" lon="6.22144">
        <ele>203.1</ele>
        <time>2021-07-30T08:54:27Z</time>
      </trkpt>
      <trkpt lat="48.74185" lon="6.22149">
        <ele>203</ele>
        <time>2021-07-30T08:54:28Z</time>
      </trkpt>
      <trkpt lat="48.74175" lon="6.22159">
        <ele>202.7</ele>
        <time>2021-07-30T08:54:30Z</time>
      </trkpt>
      <trkpt lat="48.74169" lon="6.22163">
        <ele>202.7</ele>
        <time>2021-07-30T08:54:31Z</time>
      </trkpt>
      <trkpt lat="48.74163" lon="6.22167">
        <ele>202.6</ele>
        <time>2021-07-30T08:54:32Z</time>
      </trkpt>
      <trkpt lat="48.74151" lon="6.22173">
        <ele>202.5</ele>
        <time>2021-07-30T08:54:34Z</time>
      </trkpt>
      <trkpt lat="48.74145" lon="6.22175">
        <ele>202.5</ele>
        <time>2021-07-30T08:54:35Z</time>
      </trkpt>
      <trkpt lat="48.74139" lon="6.22177">
        <ele>202.4</ele>
        <time>2021-07-30T08:54:36Z</time>
      </trkpt>
      <trkpt lat="48.74128" lon="6.22183">
        <ele>202.5</ele>
        <time>2021-07-30T08:54:38Z</time>
      </trkpt>
      <trkpt lat="48.74122" lon="6.22186">
        <ele>202.5</ele>
        <time>2021-07-30T08:54:39Z</time>
      </trkpt>
      <trkpt lat="48.74111" lon="6.22191">
        <ele>202.6</ele>
        <time>2021-07-30T08:54:41Z</time>
      </trkpt>
      <trkpt lat="48.74106" lon="6.22194">
        <ele>202.6</ele>
        <time>2021-07-30T08:54:42Z</time>
      </trkpt>
      <trkpt lat="48.74101" lon="6.22199">
        <ele>202.7</ele>
        <time>2021-07-30T08:54:43Z</time>
      </trkpt>
      <trkpt lat="48.74095" lon="6.22209">
        <ele>202.7</ele>
        <time>2021-07-30T08:54:45Z</time>
      </trkpt>
      <trkpt lat="48.74094" lon="6.22214">
        <ele>202.7</ele>
        <time>2021-07-30T08:54:46Z</time>
      </trkpt>
      <trkpt lat="48.74093" lon="6.22224">
        <ele>202.7</ele>
        <time>2021-07-30T08:54:48Z</time>
      </trkpt>
      <trkpt lat="48.74091" lon="6.22236">
        <ele>202.7</ele>
        <time>2021-07-30T08:54:50Z</time>
      </trkpt>
      <trkpt lat="48.7409" lon="6.22251">
        <ele>202.7</ele>
        <time>2021-07-30T08:54:52Z</time>
      </trkpt>
      <trkpt lat="48.74091" lon="6.22253">
        <ele>202.7</ele>
        <time>2021-07-30T08:54:54Z</time>
      </trkpt>
      <trkpt lat="48.74092" lon="6.22254">
        <ele>202.7</ele>
        <time>2021-07-30T08:54:55Z</time>
      </trkpt>
      <trkpt lat="48.74093" lon="6.22255">
        <ele>202.7</ele>
        <time>2021-07-30T08:54:56Z</time>
      </trkpt>
      <trkpt lat="48.74098" lon="6.22262">
        <ele>202.7</ele>
        <time>2021-07-30T08:54:57Z</time>
      </trkpt>
      <trkpt lat="48.74105" lon="6.22271">
        <ele>202.7</ele>
        <time>2021-07-30T08:54:58Z</time>
      </trkpt>
      <trkpt lat="48.74112" lon="6.22278">
        <ele>202.7</ele>
        <time>2021-07-30T08:54:59Z</time>
      </trkpt>
      <trkpt lat="48.74123" lon="6.22288">
        <ele>202.8</ele>
        <time>2021-07-30T08:55:00Z</time>
      </trkpt>
      <trkpt lat="48.74132" lon="6.22306">
        <ele>202.8</ele>
        <time>2021-07-30T08:55:02Z</time>
      </trkpt>
      <trkpt lat="48.74135" lon="6.22312">
        <ele>202.9</ele>
        <time>2021-07-30T08:55:03Z</time>
      </trkpt>
      <trkpt lat="48.74134" lon="6.2232">
        <ele>202.9</ele>
        <time>2021-07-30T08:55:04Z</time>
      </trkpt>
      <trkpt lat="48.74133" lon="6.22326">
        <ele>202.9</ele>
        <time>2021-07-30T08:55:06Z</time>
      </trkpt>
      <trkpt lat="48.74131" lon="6.22336">
        <ele>202.9</ele>
        <time>2021-07-30T08:55:07Z</time>
      </trkpt>
      <trkpt lat="48.7413" lon="6.22345">
        <ele>203</ele>
        <time>2021-07-30T08:55:08Z</time>
      </trkpt>
      <trkpt lat="48.7413" lon="6.22355">
        <ele>203</ele>
        <time>2021-07-30T08:55:10Z</time>
      </trkpt>
      <trkpt lat="48.74128" lon="6.22365">
        <ele>203.1</ele>
        <time>2021-07-30T08:55:11Z</time>
      </trkpt>
      <trkpt lat="48.74126" lon="6.22375">
        <ele>203.1</ele>
        <time>2021-07-30T08:55:13Z</time>
      </trkpt>
      <trkpt lat="48.74125" lon="6.2238">
        <ele>203.1</ele>
        <time>2021-07-30T08:55:14Z</time>
      </trkpt>
      <trkpt lat="48.74124" lon="6.22387">
        <ele>203.1</ele>
        <time>2021-07-30T08:55:15Z</time>
      </trkpt>
      <trkpt lat="48.74122" lon="6.22393">
        <ele>203.2</ele>
        <time>2021-07-30T08:55:16Z</time>
      </trkpt>
      <trkpt lat="48.7412" lon="6.22398">
        <ele>203.2</ele>
        <time>2021-07-30T08:55:17Z</time>
      </trkpt>
      <trkpt lat="48.74117" lon="6.22403">
        <ele>203.2</ele>
        <time>2021-07-30T08:55:18Z</time>
      </trkpt>
      <trkpt lat="48.7411" lon="6.2241">
        <ele>203.2</ele>
        <time>2021-07-30T08:55:19Z</time>
      </trkpt>
      <trkpt lat="48.74103" lon="6.22418">
        <ele>203.2</ele>
        <time>2021-07-30T08:55:21Z</time>
      </trkpt>
      <trkpt lat="48.74099" lon="6.22419">
        <ele>203.2</ele>
        <time>2021-07-30T08:55:23Z</time>
      </trkpt>
      <trkpt lat="48.74096" lon="6.22422">
        <ele>203.2</ele>
        <time>2021-07-30T08:55:24Z</time>
      </trkpt>
      <trkpt lat="48.74093" lon="6.22428">
        <ele>203.2</ele>
        <time>2021-07-30T08:55:25Z</time>
      </trkpt>
      <trkpt lat="48.74091" lon="6.22435">
        <ele>203.2</ele>
        <time>2021-07-30T08:55:26Z</time>
      </trkpt>
      <trkpt lat="48.74089" lon="6.22442">
        <ele>203.2</ele>
        <time>2021-07-30T08:55:27Z</time>
      </trkpt>
      <trkpt lat="48.74089" lon="6.22455">
        <ele>203.2</ele>
        <time>2021-07-30T08:55:28Z</time>
      </trkpt>
      <trkpt lat="48.74088" lon="6.22462">
        <ele>203.2</ele>
        <time>2021-07-30T08:55:29Z</time>
      </trkpt>
      <trkpt lat="48.7409" lon="6.22469">
        <ele>203.2</ele>
        <time>2021-07-30T08:55:30Z</time>
      </trkpt>
      <trkpt lat="48.74092" lon="6.22477">
        <ele>203.2</ele>
        <time>2021-07-30T08:55:31Z</time>
      </trkpt>
      <trkpt lat="48.74093" lon="6.22494">
        <ele>203.2</ele>
        <time>2021-07-30T08:55:33Z</time>
      </trkpt>
      <trkpt lat="48.74095" lon="6.225">
        <ele>203.3</ele>
        <time>2021-07-30T08:55:34Z</time>
      </trkpt>
      <trkpt lat="48.74096" lon="6.22507">
        <ele>203.3</ele>
        <time>2021-07-30T08:55:36Z</time>
      </trkpt>
      <trkpt lat="48.74096" lon="6.22513">
        <ele>203.3</ele>
        <time>2021-07-30T08:55:37Z</time>
      </trkpt>
      <trkpt lat="48.74097" lon="6.22518">
        <ele>203.4</ele>
        <time>2021-07-30T08:55:38Z</time>
      </trkpt>
      <trkpt lat="48.74098" lon="6.22532">
        <ele>203.4</ele>
        <time>2021-07-30T08:55:39Z</time>
      </trkpt>
      <trkpt lat="48.741" lon="6.22544">
        <ele>203.3</ele>
        <time>2021-07-30T08:55:41Z</time>
      </trkpt>
      <trkpt lat="48.741" lon="6.22552">
        <ele>203.3</ele>
        <time>2021-07-30T08:55:42Z</time>
      </trkpt>
      <trkpt lat="48.74101" lon="6.22563">
        <ele>203.3</ele>
        <time>2021-07-30T08:55:44Z</time>
      </trkpt>
      <trkpt lat="48.74105" lon="6.22575">
        <ele>203.3</ele>
        <time>2021-07-30T08:55:45Z</time>
      </trkpt>
      <trkpt lat="48.74108" lon="6.22582">
        <ele>203.2</ele>
        <time>2021-07-30T08:55:46Z</time>
      </trkpt>
      <trkpt lat="48.74113" lon="6.22594">
        <ele>203.2</ele>
        <time>2021-07-30T08:55:48Z</time>
      </trkpt>
      <trkpt lat="48.74116" lon="6.22601">
        <ele>203.2</ele>
        <time>2021-07-30T08:55:49Z</time>
      </trkpt>
      <trkpt lat="48.74124" lon="6.22614">
        <ele>203.2</ele>
        <time>2021-07-30T08:55:51Z</time>
      </trkpt>
      <trkpt lat="48.74127" lon="6.2262">
        <ele>203.2</ele>
        <time>2021-07-30T08:55:52Z</time>
      </trkpt>
      <trkpt lat="48.74131" lon="6.22625">
        <ele>203.3</ele>
        <time>2021-07-30T08:55:53Z</time>
      </trkpt>
      <trkpt lat="48.74134" lon="6.22629">
        <ele>203.3</ele>
        <time>2021-07-30T08:55:54Z</time>
      </trkpt>
      <trkpt lat="48.74138" lon="6.22633">
        <ele>203.3</ele>
        <time>2021-07-30T08:55:55Z</time>
      </trkpt>
      <trkpt lat="48.74147" lon="6.22644">
        <ele>203.5</ele>
        <time>2021-07-30T08:55:57Z</time>
      </trkpt>
      <trkpt lat="48.74151" lon="6.22649">
        <ele>203.6</ele>
        <time>2021-07-30T08:55:58Z</time>
      </trkpt>
      <trkpt lat="48.74155" lon="6.22655">
        <ele>203.7</ele>
        <time>2021-07-30T08:55:59Z</time>
      </trkpt>
      <trkpt lat="48.7416" lon="6.22661">
        <ele>203.9</ele>
        <time>2021-07-30T08:56:01Z</time>
      </trkpt>
      <trkpt lat="48.74164" lon="6.22663">
        <ele>204</ele>
        <time>2021-07-30T08:56:03Z</time>
      </trkpt>
      <trkpt lat="48.74167" lon="6.22669">
        <ele>204.1</ele>
        <time>2021-07-30T08:56:04Z</time>
      </trkpt>
      <trkpt lat="48.74172" lon="6.22677">
        <ele>204.3</ele>
        <time>2021-07-30T08:56:05Z</time>
      </trkpt>
      <trkpt lat="48.74175" lon="6.22681">
        <ele>204.4</ele>
        <time>2021-07-30T08:56:06Z</time>
      </trkpt>
      <trkpt lat="48.7418" lon="6.22686">
        <ele>204.6</ele>
        <time>2021-07-30T08:56:08Z</time>
      </trkpt>
      <trkpt lat="48.74182" lon="6.22691">
        <ele>204.6</ele>
        <time>2021-07-30T08:56:10Z</time>
      </trkpt>
      <trkpt lat="48.74184" lon="6.22697">
        <ele>204.6</ele>
        <time>2021-07-30T08:56:11Z</time>
      </trkpt>
      <trkpt lat="48.74185" lon="6.22706">
        <ele>204.6</ele>
        <time>2021-07-30T08:56:12Z</time>
      </trkpt>
      <trkpt lat="48.74185" lon="6.22716">
        <ele>204.6</ele>
        <time>2021-07-30T08:56:14Z</time>
      </trkpt>
      <trkpt lat="48.74187" lon="6.22731">
        <ele>204.6</ele>
        <time>2021-07-30T08:56:15Z</time>
      </trkpt>
      <trkpt lat="48.7419" lon="6.22737">
        <ele>204.5</ele>
        <time>2021-07-30T08:56:17Z</time>
      </trkpt>
      <trkpt lat="48.74191" lon="6.22745">
        <ele>204.5</ele>
        <time>2021-07-30T08:56:18Z</time>
      </trkpt>
      <trkpt lat="48.74187" lon="6.22753">
        <ele>204.5</ele>
        <time>2021-07-30T08:56:20Z</time>
      </trkpt>
      <trkpt lat="48.74184" lon="6.2276">
        <ele>204.5</ele>
        <time>2021-07-30T08:56:21Z</time>
      </trkpt>
      <trkpt lat="48.7418" lon="6.22774">
        <ele>204.5</ele>
        <time>2021-07-30T08:56:22Z</time>
      </trkpt>
      <trkpt lat="48.74178" lon="6.22784">
        <ele>204.5</ele>
        <time>2021-07-30T08:56:24Z</time>
      </trkpt>
      <trkpt lat="48.74176" lon="6.22794">
        <ele>204.9</ele>
        <time>2021-07-30T08:56:25Z</time>
      </trkpt>
      <trkpt lat="48.74174" lon="6.22802">
        <ele>204.9</ele>
        <time>2021-07-30T08:56:26Z</time>
      </trkpt>
      <trkpt lat="48.74172" lon="6.22811">
        <ele>205</ele>
        <time>2021-07-30T08:56:27Z</time>
      </trkpt>
      <trkpt lat="48.7417" lon="6.2282">
        <ele>205</ele>
        <time>2021-07-30T08:56:28Z</time>
      </trkpt>
      <trkpt lat="48.74167" lon="6.22828">
        <ele>205</ele>
        <time>2021-07-30T08:56:29Z</time>
      </trkpt>
      <trkpt lat="48.74165" lon="6.22839">
        <ele>205</ele>
        <time>2021-07-30T08:56:30Z</time>
      </trkpt>
      <trkpt lat="48.74161" lon="6.22851">
        <ele>205</ele>
        <time>2021-07-30T08:56:32Z</time>
      </trkpt>
      <trkpt lat="48.74159" lon="6.22859">
        <ele>205</ele>
        <time>2021-07-30T08:56:33Z</time>
      </trkpt>
      <trkpt lat="48.74152" lon="6.22877">
        <ele>204.9</ele>
        <time>2021-07-30T08:56:34Z</time>
      </trkpt>
      <trkpt lat="48.74151" lon="6.22884">
        <ele>204.9</ele>
        <time>2021-07-30T08:56:35Z</time>
      </trkpt>
      <trkpt lat="48.74149" lon="6.22896">
        <ele>204.9</ele>
        <time>2021-07-30T08:56:37Z</time>
      </trkpt>
      <trkpt lat="48.74144" lon="6.22907">
        <ele>204.9</ele>
        <time>2021-07-30T08:56:38Z</time>
      </trkpt>
      <trkpt lat="48.74143" lon="6.22914">
        <ele>204.9</ele>
        <time>2021-07-30T08:56:39Z</time>
      </trkpt>
      <trkpt lat="48.74143" lon="6.2292">
        <ele>204.9</ele>
        <time>2021-07-30T08:56:40Z</time>
      </trkpt>
      <trkpt lat="48.74143" lon="6.22925">
        <ele>204.9</ele>
        <time>2021-07-30T08:56:41Z</time>
      </trkpt>
      <trkpt lat="48.74139" lon="6.22942">
        <ele>204.9</ele>
        <time>2021-07-30T08:56:43Z</time>
      </trkpt>
      <trkpt lat="48.74137" lon="6.22947">
        <ele>204.9</ele>
        <time>2021-07-30T08:56:45Z</time>
      </trkpt>
      <trkpt lat="48.7414" lon="6.22952">
        <ele>204.9</ele>
        <time>2021-07-30T08:56:46Z</time>
      </trkpt>
      <trkpt lat="48.74137" lon="6.22966">
        <ele>205</ele>
        <time>2021-07-30T08:56:48Z</time>
      </trkpt>
      <trkpt lat="48.74133" lon="6.22983">
        <ele>205</ele>
        <time>2021-07-30T08:56:49Z</time>
      </trkpt>
      <trkpt lat="48.74126" lon="6.23">
        <ele>205.1</ele>
        <time>2021-07-30T08:56:51Z</time>
      </trkpt>
      <trkpt lat="48.74125" lon="6.23007">
        <ele>205.1</ele>
        <time>2021-07-30T08:56:52Z</time>
      </trkpt>
      <trkpt lat="48.74121" lon="6.23021">
        <ele>205.2</ele>
        <time>2021-07-30T08:56:54Z</time>
      </trkpt>
      <trkpt lat="48.74119" lon="6.23025">
        <ele>205.2</ele>
        <time>2021-07-30T08:56:56Z</time>
      </trkpt>
      <trkpt lat="48.74116" lon="6.23037">
        <ele>205.2</ele>
        <time>2021-07-30T08:56:57Z</time>
      </trkpt>
      <trkpt lat="48.74114" lon="6.23051">
        <ele>205.3</ele>
        <time>2021-07-30T08:56:59Z</time>
      </trkpt>
      <trkpt lat="48.74109" lon="6.23056">
        <ele>205.3</ele>
        <time>2021-07-30T08:57:01Z</time>
      </trkpt>
      <trkpt lat="48.74111" lon="6.23063">
        <ele>205.4</ele>
        <time>2021-07-30T08:57:03Z</time>
      </trkpt>
      <trkpt lat="48.74107" lon="6.23083">
        <ele>205.5</ele>
        <time>2021-07-30T08:57:04Z</time>
      </trkpt>
      <trkpt lat="48.74104" lon="6.23095">
        <ele>205.6</ele>
        <time>2021-07-30T08:57:06Z</time>
      </trkpt>
      <trkpt lat="48.74103" lon="6.23101">
        <ele>205.6</ele>
        <time>2021-07-30T08:57:07Z</time>
      </trkpt>
      <trkpt lat="48.741" lon="6.23112">
        <ele>205.7</ele>
        <time>2021-07-30T08:57:09Z</time>
      </trkpt>
      <trkpt lat="48.74098" lon="6.23118">
        <ele>205.8</ele>
        <time>2021-07-30T08:57:10Z</time>
      </trkpt>
      <trkpt lat="48.74095" lon="6.23126">
        <ele>205.8</ele>
        <time>2021-07-30T08:57:12Z</time>
      </trkpt>
      <trkpt lat="48.74093" lon="6.23133">
        <ele>205.9</ele>
        <time>2021-07-30T08:57:13Z</time>
      </trkpt>
      <trkpt lat="48.74092" lon="6.23141">
        <ele>205.9</ele>
        <time>2021-07-30T08:57:14Z</time>
      </trkpt>
      <trkpt lat="48.74091" lon="6.23148">
        <ele>206</ele>
        <time>2021-07-30T08:57:15Z</time>
      </trkpt>
      <trkpt lat="48.74089" lon="6.23156">
        <ele>206</ele>
        <time>2021-07-30T08:57:16Z</time>
      </trkpt>
      <trkpt lat="48.74088" lon="6.23162">
        <ele>206.1</ele>
        <time>2021-07-30T08:57:17Z</time>
      </trkpt>
      <trkpt lat="48.74086" lon="6.23171">
        <ele>206.1</ele>
        <time>2021-07-30T08:57:19Z</time>
      </trkpt>
      <trkpt lat="48.74084" lon="6.23178">
        <ele>206.2</ele>
        <time>2021-07-30T08:57:20Z</time>
      </trkpt>
      <trkpt lat="48.74083" lon="6.23187">
        <ele>206.2</ele>
        <time>2021-07-30T08:57:21Z</time>
      </trkpt>
      <trkpt lat="48.74081" lon="6.23196">
        <ele>206.3</ele>
        <time>2021-07-30T08:57:23Z</time>
      </trkpt>
      <trkpt lat="48.74079" lon="6.23207">
        <ele>206.4</ele>
        <time>2021-07-30T08:57:24Z</time>
      </trkpt>
      <trkpt lat="48.74078" lon="6.23214">
        <ele>206.4</ele>
        <time>2021-07-30T08:57:25Z</time>
      </trkpt>
      <trkpt lat="48.74075" lon="6.23224">
        <ele>206.4</ele>
        <time>2021-07-30T08:57:27Z</time>
      </trkpt>
      <trkpt lat="48.74074" lon="6.23233">
        <ele>206.5</ele>
        <time>2021-07-30T08:57:28Z</time>
      </trkpt>
      <trkpt lat="48.74074" lon="6.2324">
        <ele>206.5</ele>
        <time>2021-07-30T08:57:29Z</time>
      </trkpt>
      <trkpt lat="48.74072" lon="6.23254">
        <ele>206.6</ele>
        <time>2021-07-30T08:57:31Z</time>
      </trkpt>
      <trkpt lat="48.74074" lon="6.23265">
        <ele>206.6</ele>
        <time>2021-07-30T08:57:33Z</time>
      </trkpt>
      <trkpt lat="48.74071" lon="6.23269">
        <ele>206.7</ele>
        <time>2021-07-30T08:57:35Z</time>
      </trkpt>
      <trkpt lat="48.74071" lon="6.23272">
        <ele>206.7</ele>
        <time>2021-07-30T08:57:36Z</time>
      </trkpt>
      <trkpt lat="48.7407" lon="6.23279">
        <ele>206.7</ele>
        <time>2021-07-30T08:57:37Z</time>
      </trkpt>
      <trkpt lat="48.74069" lon="6.23287">
        <ele>206.8</ele>
        <time>2021-07-30T08:57:38Z</time>
      </trkpt>
      <trkpt lat="48.74068" lon="6.23294">
        <ele>206.9</ele>
        <time>2021-07-30T08:57:39Z</time>
      </trkpt>
      <trkpt lat="48.74066" lon="6.23301">
        <ele>206.9</ele>
        <time>2021-07-30T08:57:40Z</time>
      </trkpt>
      <trkpt lat="48.74065" lon="6.23307">
        <ele>207</ele>
        <time>2021-07-30T08:57:41Z</time>
      </trkpt>
      <trkpt lat="48.74063" lon="6.23317">
        <ele>207.1</ele>
        <time>2021-07-30T08:57:43Z</time>
      </trkpt>
      <trkpt lat="48.74062" lon="6.23323">
        <ele>207.1</ele>
        <time>2021-07-30T08:57:44Z</time>
      </trkpt>
      <trkpt lat="48.74061" lon="6.23329">
        <ele>207.1</ele>
        <time>2021-07-30T08:57:45Z</time>
      </trkpt>
      <trkpt lat="48.7406" lon="6.23336">
        <ele>207.2</ele>
        <time>2021-07-30T08:57:47Z</time>
      </trkpt>
      <trkpt lat="48.74059" lon="6.2334">
        <ele>207.2</ele>
        <time>2021-07-30T08:57:48Z</time>
      </trkpt>
      <trkpt lat="48.74059" lon="6.23345">
        <ele>207.2</ele>
        <time>2021-07-30T08:57:49Z</time>
      </trkpt>
      <trkpt lat="48.74058" lon="6.23353">
        <ele>207.3</ele>
        <time>2021-07-30T08:57:51Z</time>
      </trkpt>
      <trkpt lat="48.74057" lon="6.2336">
        <ele>207.3</ele>
        <time>2021-07-30T08:57:52Z</time>
      </trkpt>
      <trkpt lat="48.74056" lon="6.23367">
        <ele>207.3</ele>
        <time>2021-07-30T08:57:53Z</time>
      </trkpt>
      <trkpt lat="48.74056" lon="6.23372">
        <ele>207.4</ele>
        <time>2021-07-30T08:57:55Z</time>
      </trkpt>
      <trkpt lat="48.74055" lon="6.23378">
        <ele>207.4</ele>
        <time>2021-07-30T08:57:56Z</time>
      </trkpt>
      <trkpt lat="48.74053" lon="6.23383">
        <ele>207.4</ele>
        <time>2021-07-30T08:57:57Z</time>
      </trkpt>
      <trkpt lat="48.74051" lon="6.23389">
        <ele>207.4</ele>
        <time>2021-07-30T08:57:58Z</time>
      </trkpt>
      <trkpt lat="48.7405" lon="6.23396">
        <ele>207.5</ele>
        <time>2021-07-30T08:57:59Z</time>
      </trkpt>
      <trkpt lat="48.7405" lon="6.23402">
        <ele>207.5</ele>
        <time>2021-07-30T08:58:00Z</time>
      </trkpt>
      <trkpt lat="48.74049" lon="6.2341">
        <ele>207.5</ele>
        <time>2021-07-30T08:58:02Z</time>
      </trkpt>
      <trkpt lat="48.74048" lon="6.23416">
        <ele>207.6</ele>
        <time>2021-07-30T08:58:03Z</time>
      </trkpt>
      <trkpt lat="48.74048" lon="6.23423">
        <ele>207.6</ele>
        <time>2021-07-30T08:58:04Z</time>
      </trkpt>
      <trkpt lat="48.74049" lon="6.23429">
        <ele>207.6</ele>
        <time>2021-07-30T08:58:05Z</time>
      </trkpt>
      <trkpt lat="48.74049" lon="6.23435">
        <ele>207.7</ele>
        <time>2021-07-30T08:58:06Z</time>
      </trkpt>
      <trkpt lat="48.74048" lon="6.23442">
        <ele>207.7</ele>
        <time>2021-07-30T08:58:07Z</time>
      </trkpt>
      <trkpt lat="48.74048" lon="6.23448">
        <ele>207.7</ele>
        <time>2021-07-30T08:58:09Z</time>
      </trkpt>
      <trkpt lat="48.74048" lon="6.23454">
        <ele>207.8</ele>
        <time>2021-07-30T08:58:10Z</time>
      </trkpt>
      <trkpt lat="48.74049" lon="6.23461">
        <ele>207.8</ele>
        <time>2021-07-30T08:58:11Z</time>
      </trkpt>
      <trkpt lat="48.7405" lon="6.23467">
        <ele>207.8</ele>
        <time>2021-07-30T08:58:12Z</time>
      </trkpt>
      <trkpt lat="48.7405" lon="6.2348">
        <ele>207.9</ele>
        <time>2021-07-30T08:58:14Z</time>
      </trkpt>
      <trkpt lat="48.7405" lon="6.23485">
        <ele>207.9</ele>
        <time>2021-07-30T08:58:15Z</time>
      </trkpt>
      <trkpt lat="48.7405" lon="6.2349">
        <ele>207.9</ele>
        <time>2021-07-30T08:58:16Z</time>
      </trkpt>
      <trkpt lat="48.74051" lon="6.23495">
        <ele>207.9</ele>
        <time>2021-07-30T08:58:18Z</time>
      </trkpt>
      <trkpt lat="48.74051" lon="6.23502">
        <ele>207.9</ele>
        <time>2021-07-30T08:58:19Z</time>
      </trkpt>
      <trkpt lat="48.74052" lon="6.23511">
        <ele>208</ele>
        <time>2021-07-30T08:58:21Z</time>
      </trkpt>
      <trkpt lat="48.74052" lon="6.23516">
        <ele>208</ele>
        <time>2021-07-30T08:58:22Z</time>
      </trkpt>
      <trkpt lat="48.74052" lon="6.23525">
        <ele>208.1</ele>
        <time>2021-07-30T08:58:24Z</time>
      </trkpt>
      <trkpt lat="48.74052" lon="6.23535">
        <ele>208.1</ele>
        <time>2021-07-30T08:58:25Z</time>
      </trkpt>
      <trkpt lat="48.74053" lon="6.23541">
        <ele>208.1</ele>
        <time>2021-07-30T08:58:26Z</time>
      </trkpt>
      <trkpt lat="48.74053" lon="6.23547">
        <ele>208.1</ele>
        <time>2021-07-30T08:58:27Z</time>
      </trkpt>
      <trkpt lat="48.74053" lon="6.23557">
        <ele>208.2</ele>
        <time>2021-07-30T08:58:29Z</time>
      </trkpt>
      <trkpt lat="48.74054" lon="6.23567">
        <ele>208.2</ele>
        <time>2021-07-30T08:58:30Z</time>
      </trkpt>
      <trkpt lat="48.74054" lon="6.23575">
        <ele>208.2</ele>
        <time>2021-07-30T08:58:31Z</time>
      </trkpt>
      <trkpt lat="48.74054" lon="6.23587">
        <ele>208.3</ele>
        <time>2021-07-30T08:58:33Z</time>
      </trkpt>
      <trkpt lat="48.74054" lon="6.23596">
        <ele>208.3</ele>
        <time>2021-07-30T08:58:35Z</time>
      </trkpt>
      <trkpt lat="48.74054" lon="6.23605">
        <ele>208.4</ele>
        <time>2021-07-30T08:58:36Z</time>
      </trkpt>
      <trkpt lat="48.74054" lon="6.23617">
        <ele>208.5</ele>
        <time>2021-07-30T08:58:38Z</time>
      </trkpt>
      <trkpt lat="48.74054" lon="6.23623">
        <ele>208.5</ele>
        <time>2021-07-30T08:58:39Z</time>
      </trkpt>
      <trkpt lat="48.74054" lon="6.23629">
        <ele>208.6</ele>
        <time>2021-07-30T08:58:40Z</time>
      </trkpt>
      <trkpt lat="48.74055" lon="6.23637">
        <ele>208.6</ele>
        <time>2021-07-30T08:58:42Z</time>
      </trkpt>
      <trkpt lat="48.74056" lon="6.23642">
        <ele>208.7</ele>
        <time>2021-07-30T08:58:43Z</time>
      </trkpt>
      <trkpt lat="48.74057" lon="6.23652">
        <ele>208.8</ele>
        <time>2021-07-30T08:58:45Z</time>
      </trkpt>
      <trkpt lat="48.74058" lon="6.23662">
        <ele>208.9</ele>
        <time>2021-07-30T08:58:47Z</time>
      </trkpt>
      <trkpt lat="48.74058" lon="6.23667">
        <ele>209</ele>
        <time>2021-07-30T08:58:48Z</time>
      </trkpt>
      <trkpt lat="48.74059" lon="6.23671">
        <ele>209</ele>
        <time>2021-07-30T08:58:49Z</time>
      </trkpt>
      <trkpt lat="48.74059" lon="6.23678">
        <ele>209.1</ele>
        <time>2021-07-30T08:58:51Z</time>
      </trkpt>
      <trkpt lat="48.74058" lon="6.23686">
        <ele>209.2</ele>
        <time>2021-07-30T08:58:52Z</time>
      </trkpt>
      <trkpt lat="48.74059" lon="6.23695">
        <ele>209.3</ele>
        <time>2021-07-30T08:58:54Z</time>
      </trkpt>
      <trkpt lat="48.7406" lon="6.23699">
        <ele>209.4</ele>
        <time>2021-07-30T08:58:55Z</time>
      </trkpt>
      <trkpt lat="48.74062" lon="6.23705">
        <ele>209.5</ele>
        <time>2021-07-30T08:58:57Z</time>
      </trkpt>
      <trkpt lat="48.74063" lon="6.2371">
        <ele>209.6</ele>
        <time>2021-07-30T08:58:58Z</time>
      </trkpt>
      <trkpt lat="48.74064" lon="6.23715">
        <ele>209.7</ele>
        <time>2021-07-30T08:58:59Z</time>
      </trkpt>
      <trkpt lat="48.74064" lon="6.23717">
        <ele>209.8</ele>
        <time>2021-07-30T08:59:00Z</time>
      </trkpt>
      <trkpt lat="48.74066" lon="6.23721">
        <ele>209.9</ele>
        <time>2021-07-30T08:59:02Z</time>
      </trkpt>
      <trkpt lat="48.74068" lon="6.23724">
        <ele>210</ele>
        <time>2021-07-30T08:59:03Z</time>
      </trkpt>
      <trkpt lat="48.74071" lon="6.23727">
        <ele>210.1</ele>
        <time>2021-07-30T08:59:04Z</time>
      </trkpt>
      <trkpt lat="48.74072" lon="6.23729">
        <ele>210.2</ele>
        <time>2021-07-30T08:59:05Z</time>
      </trkpt>
      <trkpt lat="48.74074" lon="6.23735">
        <ele>210.4</ele>
        <time>2021-07-30T08:59:07Z</time>
      </trkpt>
      <trkpt lat="48.74074" lon="6.23742">
        <ele>210.6</ele>
        <time>2021-07-30T08:59:08Z</time>
      </trkpt>
      <trkpt lat="48.74074" lon="6.23748">
        <ele>210.7</ele>
        <time>2021-07-30T08:59:09Z</time>
      </trkpt>
      <trkpt lat="48.74075" lon="6.23758">
        <ele>210.9</ele>
        <time>2021-07-30T08:59:11Z</time>
      </trkpt>
      <trkpt lat="48.74076" lon="6.23766">
        <ele>211.2</ele>
        <time>2021-07-30T08:59:12Z</time>
      </trkpt>
      <trkpt lat="48.74078" lon="6.23772">
        <ele>211.1</ele>
        <time>2021-07-30T08:59:13Z</time>
      </trkpt>
      <trkpt lat="48.74079" lon="6.2378">
        <ele>211.1</ele>
        <time>2021-07-30T08:59:15Z</time>
      </trkpt>
      <trkpt lat="48.7408" lon="6.23786">
        <ele>211.1</ele>
        <time>2021-07-30T08:59:16Z</time>
      </trkpt>
      <trkpt lat="48.74081" lon="6.23793">
        <ele>211</ele>
        <time>2021-07-30T08:59:17Z</time>
      </trkpt>
      <trkpt lat="48.74081" lon="6.23799">
        <ele>211</ele>
        <time>2021-07-30T08:59:18Z</time>
      </trkpt>
      <trkpt lat="48.74082" lon="6.23804">
        <ele>211</ele>
        <time>2021-07-30T08:59:19Z</time>
      </trkpt>
      <trkpt lat="48.74083" lon="6.23811">
        <ele>211</ele>
        <time>2021-07-30T08:59:21Z</time>
      </trkpt>
      <trkpt lat="48.74083" lon="6.23817">
        <ele>210.9</ele>
        <time>2021-07-30T08:59:22Z</time>
      </trkpt>
      <trkpt lat="48.74084" lon="6.23823">
        <ele>210.9</ele>
        <time>2021-07-30T08:59:23Z</time>
      </trkpt>
      <trkpt lat="48.74084" lon="6.2383">
        <ele>210.9</ele>
        <time>2021-07-30T08:59:24Z</time>
      </trkpt>
      <trkpt lat="48.74085" lon="6.2384">
        <ele>210.8</ele>
        <time>2021-07-30T08:59:25Z</time>
      </trkpt>
      <trkpt lat="48.74086" lon="6.23849">
        <ele>210.8</ele>
        <time>2021-07-30T08:59:27Z</time>
      </trkpt>
      <trkpt lat="48.74087" lon="6.2386">
        <ele>210.8</ele>
        <time>2021-07-30T08:59:28Z</time>
      </trkpt>
      <trkpt lat="48.74088" lon="6.23868">
        <ele>210.8</ele>
        <time>2021-07-30T08:59:29Z</time>
      </trkpt>
      <trkpt lat="48.74088" lon="6.23883">
        <ele>210.8</ele>
        <time>2021-07-30T08:59:31Z</time>
      </trkpt>
      <trkpt lat="48.7409" lon="6.23887">
        <ele>210.8</ele>
        <time>2021-07-30T08:59:32Z</time>
      </trkpt>
      <trkpt lat="48.74093" lon="6.23901">
        <ele>210.8</ele>
        <time>2021-07-30T08:59:34Z</time>
      </trkpt>
      <trkpt lat="48.74094" lon="6.23909">
        <ele>210.8</ele>
        <time>2021-07-30T08:59:36Z</time>
      </trkpt>
      <trkpt lat="48.74095" lon="6.23917">
        <ele>210.8</ele>
        <time>2021-07-30T08:59:37Z</time>
      </trkpt>
      <trkpt lat="48.74095" lon="6.23925">
        <ele>210.8</ele>
        <time>2021-07-30T08:59:38Z</time>
      </trkpt>
      <trkpt lat="48.74097" lon="6.23937">
        <ele>210.8</ele>
        <time>2021-07-30T08:59:40Z</time>
      </trkpt>
      <trkpt lat="48.741" lon="6.2394">
        <ele>210.8</ele>
        <time>2021-07-30T08:59:42Z</time>
      </trkpt>
      <trkpt lat="48.741" lon="6.23946">
        <ele>210.8</ele>
        <time>2021-07-30T08:59:43Z</time>
      </trkpt>
      <trkpt lat="48.74101" lon="6.23953">
        <ele>210.8</ele>
        <time>2021-07-30T08:59:45Z</time>
      </trkpt>
      <trkpt lat="48.74102" lon="6.23965">
        <ele>210.9</ele>
        <time>2021-07-30T08:59:47Z</time>
      </trkpt>
      <trkpt lat="48.74103" lon="6.23973">
        <ele>210.9</ele>
        <time>2021-07-30T08:59:48Z</time>
      </trkpt>
      <trkpt lat="48.74104" lon="6.23979">
        <ele>210.9</ele>
        <time>2021-07-30T08:59:49Z</time>
      </trkpt>
      <trkpt lat="48.74105" lon="6.23988">
        <ele>211</ele>
        <time>2021-07-30T08:59:51Z</time>
      </trkpt>
      <trkpt lat="48.74106" lon="6.24005">
        <ele>211</ele>
        <time>2021-07-30T08:59:52Z</time>
      </trkpt>
      <trkpt lat="48.74107" lon="6.24012">
        <ele>211</ele>
        <time>2021-07-30T08:59:53Z</time>
      </trkpt>
      <trkpt lat="48.74109" lon="6.24018">
        <ele>211.1</ele>
        <time>2021-07-30T08:59:54Z</time>
      </trkpt>
      <trkpt lat="48.74111" lon="6.24023">
        <ele>211.1</ele>
        <time>2021-07-30T08:59:55Z</time>
      </trkpt>
      <trkpt lat="48.74114" lon="6.24041">
        <ele>211.1</ele>
        <time>2021-07-30T08:59:57Z</time>
      </trkpt>
      <trkpt lat="48.74116" lon="6.24057">
        <ele>211.1</ele>
        <time>2021-07-30T08:59:59Z</time>
      </trkpt>
      <trkpt lat="48.74118" lon="6.24073">
        <ele>211</ele>
        <time>2021-07-30T09:00:01Z</time>
      </trkpt>
      <trkpt lat="48.74118" lon="6.24082">
        <ele>211</ele>
        <time>2021-07-30T09:00:02Z</time>
      </trkpt>
      <trkpt lat="48.74116" lon="6.241">
        <ele>211</ele>
        <time>2021-07-30T09:00:04Z</time>
      </trkpt>
      <trkpt lat="48.74114" lon="6.24108">
        <ele>211</ele>
        <time>2021-07-30T09:00:05Z</time>
      </trkpt>
      <trkpt lat="48.74113" lon="6.24117">
        <ele>211</ele>
        <time>2021-07-30T09:00:06Z</time>
      </trkpt>
      <trkpt lat="48.74112" lon="6.24125">
        <ele>211</ele>
        <time>2021-07-30T09:00:07Z</time>
      </trkpt>
      <trkpt lat="48.74112" lon="6.24143">
        <ele>211</ele>
        <time>2021-07-30T09:00:09Z</time>
      </trkpt>
      <trkpt lat="48.74113" lon="6.24152">
        <ele>211</ele>
        <time>2021-07-30T09:00:10Z</time>
      </trkpt>
      <trkpt lat="48.74116" lon="6.24168">
        <ele>210.9</ele>
        <time>2021-07-30T09:00:12Z</time>
      </trkpt>
      <trkpt lat="48.74117" lon="6.24176">
        <ele>210.9</ele>
        <time>2021-07-30T09:00:13Z</time>
      </trkpt>
      <trkpt lat="48.7412" lon="6.24193">
        <ele>210.8</ele>
        <time>2021-07-30T09:00:15Z</time>
      </trkpt>
      <trkpt lat="48.74121" lon="6.24202">
        <ele>210.8</ele>
        <time>2021-07-30T09:00:16Z</time>
      </trkpt>
      <trkpt lat="48.74121" lon="6.2421">
        <ele>210.8</ele>
        <time>2021-07-30T09:00:17Z</time>
      </trkpt>
      <trkpt lat="48.74122" lon="6.24227">
        <ele>210.8</ele>
        <time>2021-07-30T09:00:19Z</time>
      </trkpt>
      <trkpt lat="48.74123" lon="6.24244">
        <ele>210.8</ele>
        <time>2021-07-30T09:00:21Z</time>
      </trkpt>
      <trkpt lat="48.74125" lon="6.24261">
        <ele>210.8</ele>
        <time>2021-07-30T09:00:23Z</time>
      </trkpt>
      <trkpt lat="48.74128" lon="6.24278">
        <ele>210.8</ele>
        <time>2021-07-30T09:00:25Z</time>
      </trkpt>
      <trkpt lat="48.74129" lon="6.24296">
        <ele>210.8</ele>
        <time>2021-07-30T09:00:27Z</time>
      </trkpt>
      <trkpt lat="48.74129" lon="6.24304">
        <ele>210.9</ele>
        <time>2021-07-30T09:00:28Z</time>
      </trkpt>
      <trkpt lat="48.7413" lon="6.24312">
        <ele>210.9</ele>
        <time>2021-07-30T09:00:29Z</time>
      </trkpt>
      <trkpt lat="48.74131" lon="6.24319">
        <ele>210.9</ele>
        <time>2021-07-30T09:00:30Z</time>
      </trkpt>
      <trkpt lat="48.74132" lon="6.24334">
        <ele>210.9</ele>
        <time>2021-07-30T09:00:32Z</time>
      </trkpt>
      <trkpt lat="48.74132" lon="6.24348">
        <ele>211</ele>
        <time>2021-07-30T09:00:34Z</time>
      </trkpt>
      <trkpt lat="48.74132" lon="6.24357">
        <ele>211</ele>
        <time>2021-07-30T09:00:35Z</time>
      </trkpt>
      <trkpt lat="48.74132" lon="6.24372">
        <ele>211</ele>
        <time>2021-07-30T09:00:37Z</time>
      </trkpt>
      <trkpt lat="48.74134" lon="6.24387">
        <ele>211</ele>
        <time>2021-07-30T09:00:39Z</time>
      </trkpt>
      <trkpt lat="48.74136" lon="6.24404">
        <ele>211.1</ele>
        <time>2021-07-30T09:00:41Z</time>
      </trkpt>
      <trkpt lat="48.74138" lon="6.24419">
        <ele>211.1</ele>
        <time>2021-07-30T09:00:43Z</time>
      </trkpt>
      <trkpt lat="48.74138" lon="6.24427">
        <ele>211.1</ele>
        <time>2021-07-30T09:00:44Z</time>
      </trkpt>
      <trkpt lat="48.74138" lon="6.24445">
        <ele>211.1</ele>
        <time>2021-07-30T09:00:46Z</time>
      </trkpt>
      <trkpt lat="48.74138" lon="6.24453">
        <ele>211.1</ele>
        <time>2021-07-30T09:00:47Z</time>
      </trkpt>
      <trkpt lat="48.74138" lon="6.24471">
        <ele>211.1</ele>
        <time>2021-07-30T09:00:49Z</time>
      </trkpt>
      <trkpt lat="48.74138" lon="6.24491">
        <ele>211.1</ele>
        <time>2021-07-30T09:00:51Z</time>
      </trkpt>
      <trkpt lat="48.74137" lon="6.24509">
        <ele>211.1</ele>
        <time>2021-07-30T09:00:53Z</time>
      </trkpt>
      <trkpt lat="48.74136" lon="6.24518">
        <ele>211.1</ele>
        <time>2021-07-30T09:00:54Z</time>
      </trkpt>
      <trkpt lat="48.74136" lon="6.24527">
        <ele>211.1</ele>
        <time>2021-07-30T09:00:55Z</time>
      </trkpt>
      <trkpt lat="48.74135" lon="6.24544">
        <ele>211.1</ele>
        <time>2021-07-30T09:00:57Z</time>
      </trkpt>
      <trkpt lat="48.74134" lon="6.24552">
        <ele>211.1</ele>
        <time>2021-07-30T09:00:58Z</time>
      </trkpt>
      <trkpt lat="48.74133" lon="6.2456">
        <ele>211.1</ele>
        <time>2021-07-30T09:00:59Z</time>
      </trkpt>
      <trkpt lat="48.74132" lon="6.24577">
        <ele>211.1</ele>
        <time>2021-07-30T09:01:01Z</time>
      </trkpt>
      <trkpt lat="48.74129" lon="6.24595">
        <ele>211.2</ele>
        <time>2021-07-30T09:01:03Z</time>
      </trkpt>
      <trkpt lat="48.74127" lon="6.24613">
        <ele>211.2</ele>
        <time>2021-07-30T09:01:05Z</time>
      </trkpt>
      <trkpt lat="48.74126" lon="6.24629">
        <ele>211.3</ele>
        <time>2021-07-30T09:01:07Z</time>
      </trkpt>
      <trkpt lat="48.74125" lon="6.24635">
        <ele>211.3</ele>
        <time>2021-07-30T09:01:08Z</time>
      </trkpt>
      <trkpt lat="48.74121" lon="6.2465">
        <ele>211.3</ele>
        <time>2021-07-30T09:01:10Z</time>
      </trkpt>
      <trkpt lat="48.74119" lon="6.24658">
        <ele>211.3</ele>
        <time>2021-07-30T09:01:11Z</time>
      </trkpt>
      <trkpt lat="48.74115" lon="6.24674">
        <ele>211.3</ele>
        <time>2021-07-30T09:01:13Z</time>
      </trkpt>
      <trkpt lat="48.74112" lon="6.2469">
        <ele>211.3</ele>
        <time>2021-07-30T09:01:15Z</time>
      </trkpt>
      <trkpt lat="48.74109" lon="6.24707">
        <ele>211.4</ele>
        <time>2021-07-30T09:01:17Z</time>
      </trkpt>
      <trkpt lat="48.74104" lon="6.24723">
        <ele>211.4</ele>
        <time>2021-07-30T09:01:19Z</time>
      </trkpt>
      <trkpt lat="48.74097" lon="6.24739">
        <ele>211.4</ele>
        <time>2021-07-30T09:01:21Z</time>
      </trkpt>
      <trkpt lat="48.74094" lon="6.24747">
        <ele>211.4</ele>
        <time>2021-07-30T09:01:22Z</time>
      </trkpt>
      <trkpt lat="48.74091" lon="6.24756">
        <ele>211.4</ele>
        <time>2021-07-30T09:01:23Z</time>
      </trkpt>
      <trkpt lat="48.74085" lon="6.2477">
        <ele>211.5</ele>
        <time>2021-07-30T09:01:25Z</time>
      </trkpt>
      <trkpt lat="48.74078" lon="6.24788">
        <ele>211.5</ele>
        <time>2021-07-30T09:01:27Z</time>
      </trkpt>
      <trkpt lat="48.7407" lon="6.24803">
        <ele>211.6</ele>
        <time>2021-07-30T09:01:29Z</time>
      </trkpt>
      <trkpt lat="48.74064" lon="6.24817">
        <ele>211.6</ele>
        <time>2021-07-30T09:01:31Z</time>
      </trkpt>
      <trkpt lat="48.74061" lon="6.24824">
        <ele>211.6</ele>
        <time>2021-07-30T09:01:32Z</time>
      </trkpt>
      <trkpt lat="48.74058" lon="6.24831">
        <ele>211.7</ele>
        <time>2021-07-30T09:01:33Z</time>
      </trkpt>
      <trkpt lat="48.74055" lon="6.24842">
        <ele>211.7</ele>
        <time>2021-07-30T09:01:35Z</time>
      </trkpt>
      <trkpt lat="48.74053" lon="6.24849">
        <ele>211.7</ele>
        <time>2021-07-30T09:01:36Z</time>
      </trkpt>
      <trkpt lat="48.74052" lon="6.24853">
        <ele>211.7</ele>
        <time>2021-07-30T09:01:37Z</time>
      </trkpt>
      <trkpt lat="48.74048" lon="6.24865">
        <ele>211.8</ele>
        <time>2021-07-30T09:01:39Z</time>
      </trkpt>
      <trkpt lat="48.74048" lon="6.24872">
        <ele>211.8</ele>
        <time>2021-07-30T09:01:40Z</time>
      </trkpt>
      <trkpt lat="48.74048" lon="6.24879">
        <ele>211.8</ele>
        <time>2021-07-30T09:01:41Z</time>
      </trkpt>
      <trkpt lat="48.74046" lon="6.24892">
        <ele>211.9</ele>
        <time>2021-07-30T09:01:43Z</time>
      </trkpt>
      <trkpt lat="48.74042" lon="6.24905">
        <ele>211.9</ele>
        <time>2021-07-30T09:01:44Z</time>
      </trkpt>
      <trkpt lat="48.74039" lon="6.24912">
        <ele>211.9</ele>
        <time>2021-07-30T09:01:45Z</time>
      </trkpt>
      <trkpt lat="48.74036" lon="6.24926">
        <ele>211.9</ele>
        <time>2021-07-30T09:01:46Z</time>
      </trkpt>
      <trkpt lat="48.74033" lon="6.24933">
        <ele>212</ele>
        <time>2021-07-30T09:01:47Z</time>
      </trkpt>
      <trkpt lat="48.74031" lon="6.24941">
        <ele>212</ele>
        <time>2021-07-30T09:01:48Z</time>
      </trkpt>
      <trkpt lat="48.74029" lon="6.24947">
        <ele>212</ele>
        <time>2021-07-30T09:01:49Z</time>
      </trkpt>
      <trkpt lat="48.74027" lon="6.24952">
        <ele>212</ele>
        <time>2021-07-30T09:01:50Z</time>
      </trkpt>
      <trkpt lat="48.74023" lon="6.24962">
        <ele>212.1</ele>
        <time>2021-07-30T09:01:52Z</time>
      </trkpt>
      <trkpt lat="48.74017" lon="6.24969">
        <ele>212.1</ele>
        <time>2021-07-30T09:01:53Z</time>
      </trkpt>
      <trkpt lat="48.74015" lon="6.24975">
        <ele>212.1</ele>
        <time>2021-07-30T09:01:54Z</time>
      </trkpt>
      <trkpt lat="48.74014" lon="6.2498">
        <ele>212.1</ele>
        <time>2021-07-30T09:01:55Z</time>
      </trkpt>
      <trkpt lat="48.74009" lon="6.24992">
        <ele>212.2</ele>
        <time>2021-07-30T09:01:57Z</time>
      </trkpt>
      <trkpt lat="48.74006" lon="6.24998">
        <ele>212.2</ele>
        <time>2021-07-30T09:01:58Z</time>
      </trkpt>
      <trkpt lat="48.74" lon="6.25012">
        <ele>212.2</ele>
        <time>2021-07-30T09:02:00Z</time>
      </trkpt>
      <trkpt lat="48.73997" lon="6.25017">
        <ele>212.2</ele>
        <time>2021-07-30T09:02:01Z</time>
      </trkpt>
      <trkpt lat="48.73994" lon="6.25019">
        <ele>212.2</ele>
        <time>2021-07-30T09:02:02Z</time>
      </trkpt>
      <trkpt lat="48.73991" lon="6.25022">
        <ele>212.2</ele>
        <time>2021-07-30T09:02:03Z</time>
      </trkpt>
      <trkpt lat="48.73988" lon="6.25029">
        <ele>212.2</ele>
        <time>2021-07-30T09:02:05Z</time>
      </trkpt>
      <trkpt lat="48.73987" lon="6.25035">
        <ele>212.2</ele>
        <time>2021-07-30T09:02:06Z</time>
      </trkpt>
      <trkpt lat="48.73984" lon="6.2504">
        <ele>212.2</ele>
        <time>2021-07-30T09:02:07Z</time>
      </trkpt>
      <trkpt lat="48.73981" lon="6.25041">
        <ele>212.2</ele>
        <time>2021-07-30T09:02:09Z</time>
      </trkpt>
      <trkpt lat="48.7398" lon="6.25041">
        <ele>212.3</ele>
        <time>2021-07-30T09:02:10Z</time>
      </trkpt>
      <trkpt lat="48.73978" lon="6.25043">
        <ele>212.3</ele>
        <time>2021-07-30T09:02:11Z</time>
      </trkpt>
      <trkpt lat="48.73976" lon="6.25045">
        <ele>212.3</ele>
        <time>2021-07-30T09:02:12Z</time>
      </trkpt>
      <trkpt lat="48.73972" lon="6.25048">
        <ele>212.3</ele>
        <time>2021-07-30T09:02:13Z</time>
      </trkpt>
      <trkpt lat="48.73969" lon="6.25051">
        <ele>212.3</ele>
        <time>2021-07-30T09:02:14Z</time>
      </trkpt>
      <trkpt lat="48.73967" lon="6.25054">
        <ele>212.3</ele>
        <time>2021-07-30T09:02:16Z</time>
      </trkpt>
      <trkpt lat="48.73966" lon="6.2506">
        <ele>212.3</ele>
        <time>2021-07-30T09:02:17Z</time>
      </trkpt>
      <trkpt lat="48.73959" lon="6.25083">
        <ele>212.3</ele>
        <time>2021-07-30T09:02:18Z</time>
      </trkpt>
      <trkpt lat="48.73953" lon="6.25103">
        <ele>212.4</ele>
        <time>2021-07-30T09:02:20Z</time>
      </trkpt>
      <trkpt lat="48.7395" lon="6.2511">
        <ele>212.4</ele>
        <time>2021-07-30T09:02:21Z</time>
      </trkpt>
      <trkpt lat="48.73948" lon="6.25117">
        <ele>212.4</ele>
        <time>2021-07-30T09:02:22Z</time>
      </trkpt>
      <trkpt lat="48.73947" lon="6.25129">
        <ele>212.4</ele>
        <time>2021-07-30T09:02:23Z</time>
      </trkpt>
      <trkpt lat="48.73945" lon="6.25136">
        <ele>212.4</ele>
        <time>2021-07-30T09:02:24Z</time>
      </trkpt>
      <trkpt lat="48.73943" lon="6.25145">
        <ele>212.5</ele>
        <time>2021-07-30T09:02:25Z</time>
      </trkpt>
      <trkpt lat="48.73939" lon="6.25161">
        <ele>212.5</ele>
        <time>2021-07-30T09:02:27Z</time>
      </trkpt>
      <trkpt lat="48.73936" lon="6.25168">
        <ele>212.5</ele>
        <time>2021-07-30T09:02:29Z</time>
      </trkpt>
      <trkpt lat="48.73931" lon="6.25174">
        <ele>212.5</ele>
        <time>2021-07-30T09:02:30Z</time>
      </trkpt>
      <trkpt lat="48.73928" lon="6.25178">
        <ele>212.6</ele>
        <time>2021-07-30T09:02:31Z</time>
      </trkpt>
      <trkpt lat="48.73925" lon="6.25182">
        <ele>212.6</ele>
        <time>2021-07-30T09:02:32Z</time>
      </trkpt>
      <trkpt lat="48.73918" lon="6.25192">
        <ele>212.6</ele>
        <time>2021-07-30T09:02:34Z</time>
      </trkpt>
      <trkpt lat="48.73914" lon="6.252">
        <ele>212.6</ele>
        <time>2021-07-30T09:02:36Z</time>
      </trkpt>
      <trkpt lat="48.73911" lon="6.2521">
        <ele>212.6</ele>
        <time>2021-07-30T09:02:37Z</time>
      </trkpt>
      <trkpt lat="48.73907" lon="6.25222">
        <ele>212.6</ele>
        <time>2021-07-30T09:02:39Z</time>
      </trkpt>
      <trkpt lat="48.73905" lon="6.25227">
        <ele>212.7</ele>
        <time>2021-07-30T09:02:40Z</time>
      </trkpt>
      <trkpt lat="48.73903" lon="6.25231">
        <ele>212.7</ele>
        <time>2021-07-30T09:02:41Z</time>
      </trkpt>
      <trkpt lat="48.73893" lon="6.25241">
        <ele>212.7</ele>
        <time>2021-07-30T09:02:43Z</time>
      </trkpt>
      <trkpt lat="48.7389" lon="6.25247">
        <ele>212.7</ele>
        <time>2021-07-30T09:02:44Z</time>
      </trkpt>
      <trkpt lat="48.73886" lon="6.25258">
        <ele>212.7</ele>
        <time>2021-07-30T09:02:46Z</time>
      </trkpt>
      <trkpt lat="48.73886" lon="6.25258">
        <ele>212.7</ele>
        <time>2021-07-30T09:02:47Z</time>
      </trkpt>
      <trkpt lat="48.73882" lon="6.25272">
        <ele>212.8</ele>
        <time>2021-07-30T09:02:49Z</time>
      </trkpt>
      <trkpt lat="48.73877" lon="6.2528">
        <ele>212.8</ele>
        <time>2021-07-30T09:02:50Z</time>
      </trkpt>
      <trkpt lat="48.73873" lon="6.25289">
        <ele>212.8</ele>
        <time>2021-07-30T09:02:52Z</time>
      </trkpt>
      <trkpt lat="48.73868" lon="6.25293">
        <ele>212.8</ele>
        <time>2021-07-30T09:02:53Z</time>
      </trkpt>
      <trkpt lat="48.73866" lon="6.253">
        <ele>212.9</ele>
        <time>2021-07-30T09:02:54Z</time>
      </trkpt>
      <trkpt lat="48.73864" lon="6.2531">
        <ele>212.8</ele>
        <time>2021-07-30T09:02:55Z</time>
      </trkpt>
      <trkpt lat="48.73862" lon="6.25316">
        <ele>212.8</ele>
        <time>2021-07-30T09:02:56Z</time>
      </trkpt>
      <trkpt lat="48.73861" lon="6.25322">
        <ele>212.8</ele>
        <time>2021-07-30T09:02:58Z</time>
      </trkpt>
      <trkpt lat="48.7386" lon="6.25327">
        <ele>212.8</ele>
        <time>2021-07-30T09:02:59Z</time>
      </trkpt>
      <trkpt lat="48.73856" lon="6.25334">
        <ele>212.7</ele>
        <time>2021-07-30T09:03:00Z</time>
      </trkpt>
      <trkpt lat="48.73853" lon="6.25341">
        <ele>212.7</ele>
        <time>2021-07-30T09:03:01Z</time>
      </trkpt>
      <trkpt lat="48.7385" lon="6.25347">
        <ele>212.7</ele>
        <time>2021-07-30T09:03:02Z</time>
      </trkpt>
      <trkpt lat="48.73847" lon="6.25355">
        <ele>212.7</ele>
        <time>2021-07-30T09:03:03Z</time>
      </trkpt>
      <trkpt lat="48.73845" lon="6.2536">
        <ele>212.7</ele>
        <time>2021-07-30T09:03:04Z</time>
      </trkpt>
      <trkpt lat="48.73846" lon="6.25367">
        <ele>212.7</ele>
        <time>2021-07-30T09:03:06Z</time>
      </trkpt>
      <trkpt lat="48.73841" lon="6.25386">
        <ele>212.7</ele>
        <time>2021-07-30T09:03:07Z</time>
      </trkpt>
      <trkpt lat="48.73839" lon="6.25394">
        <ele>212.7</ele>
        <time>2021-07-30T09:03:08Z</time>
      </trkpt>
      <trkpt lat="48.73834" lon="6.25407">
        <ele>212.7</ele>
        <time>2021-07-30T09:03:10Z</time>
      </trkpt>
      <trkpt lat="48.73831" lon="6.25414">
        <ele>212.7</ele>
        <time>2021-07-30T09:03:11Z</time>
      </trkpt>
      <trkpt lat="48.73829" lon="6.25421">
        <ele>212.7</ele>
        <time>2021-07-30T09:03:12Z</time>
      </trkpt>
      <trkpt lat="48.73824" lon="6.2543">
        <ele>212.7</ele>
        <time>2021-07-30T09:03:14Z</time>
      </trkpt>
      <trkpt lat="48.73822" lon="6.25436">
        <ele>212.7</ele>
        <time>2021-07-30T09:03:15Z</time>
      </trkpt>
      <trkpt lat="48.73819" lon="6.2545">
        <ele>212.7</ele>
        <time>2021-07-30T09:03:17Z</time>
      </trkpt>
      <trkpt lat="48.73818" lon="6.25456">
        <ele>212.7</ele>
        <time>2021-07-30T09:03:18Z</time>
      </trkpt>
      <trkpt lat="48.73815" lon="6.25463">
        <ele>212.6</ele>
        <time>2021-07-30T09:03:20Z</time>
      </trkpt>
      <trkpt lat="48.73813" lon="6.2547">
        <ele>212.6</ele>
        <time>2021-07-30T09:03:21Z</time>
      </trkpt>
      <trkpt lat="48.73813" lon="6.25476">
        <ele>212.6</ele>
        <time>2021-07-30T09:03:22Z</time>
      </trkpt>
      <trkpt lat="48.73814" lon="6.25485">
        <ele>212.5</ele>
        <time>2021-07-30T09:03:24Z</time>
      </trkpt>
      <trkpt lat="48.73815" lon="6.25494">
        <ele>212.5</ele>
        <time>2021-07-30T09:03:25Z</time>
      </trkpt>
      <trkpt lat="48.73816" lon="6.25503">
        <ele>212.4</ele>
        <time>2021-07-30T09:03:27Z</time>
      </trkpt>
      <trkpt lat="48.73817" lon="6.25512">
        <ele>212.4</ele>
        <time>2021-07-30T09:03:28Z</time>
      </trkpt>
      <trkpt lat="48.73817" lon="6.2552">
        <ele>212.4</ele>
        <time>2021-07-30T09:03:30Z</time>
      </trkpt>
      <trkpt lat="48.73816" lon="6.2553">
        <ele>212.4</ele>
        <time>2021-07-30T09:03:31Z</time>
      </trkpt>
      <trkpt lat="48.73815" lon="6.25538">
        <ele>212.4</ele>
        <time>2021-07-30T09:03:33Z</time>
      </trkpt>
      <trkpt lat="48.73812" lon="6.25549">
        <ele>212.4</ele>
        <time>2021-07-30T09:03:34Z</time>
      </trkpt>
      <trkpt lat="48.73811" lon="6.25555">
        <ele>212.4</ele>
        <time>2021-07-30T09:03:35Z</time>
      </trkpt>
      <trkpt lat="48.7381" lon="6.25562">
        <ele>212.5</ele>
        <time>2021-07-30T09:03:36Z</time>
      </trkpt>
      <trkpt lat="48.73807" lon="6.2557">
        <ele>212.4</ele>
        <time>2021-07-30T09:03:38Z</time>
      </trkpt>
      <trkpt lat="48.73805" lon="6.25577">
        <ele>212.4</ele>
        <time>2021-07-30T09:03:39Z</time>
      </trkpt>
      <trkpt lat="48.73804" lon="6.25583">
        <ele>212.4</ele>
        <time>2021-07-30T09:03:40Z</time>
      </trkpt>
      <trkpt lat="48.73803" lon="6.25591">
        <ele>212.4</ele>
        <time>2021-07-30T09:03:41Z</time>
      </trkpt>
      <trkpt lat="48.73802" lon="6.25601">
        <ele>212.4</ele>
        <time>2021-07-30T09:03:42Z</time>
      </trkpt>
      <trkpt lat="48.738" lon="6.25611">
        <ele>212.4</ele>
        <time>2021-07-30T09:03:43Z</time>
      </trkpt>
      <trkpt lat="48.73799" lon="6.25618">
        <ele>212.4</ele>
        <time>2021-07-30T09:03:44Z</time>
      </trkpt>
      <trkpt lat="48.73799" lon="6.25629">
        <ele>212.4</ele>
        <time>2021-07-30T09:03:46Z</time>
      </trkpt>
      <trkpt lat="48.73798" lon="6.25642">
        <ele>212.4</ele>
        <time>2021-07-30T09:03:47Z</time>
      </trkpt>
      <trkpt lat="48.73798" lon="6.2565">
        <ele>212.4</ele>
        <time>2021-07-30T09:03:48Z</time>
      </trkpt>
      <trkpt lat="48.73797" lon="6.25658">
        <ele>212.4</ele>
        <time>2021-07-30T09:03:49Z</time>
      </trkpt>
      <trkpt lat="48.73796" lon="6.25675">
        <ele>212.4</ele>
        <time>2021-07-30T09:03:51Z</time>
      </trkpt>
      <trkpt lat="48.73795" lon="6.25691">
        <ele>212.5</ele>
        <time>2021-07-30T09:03:53Z</time>
      </trkpt>
      <trkpt lat="48.73794" lon="6.25699">
        <ele>212.5</ele>
        <time>2021-07-30T09:03:54Z</time>
      </trkpt>
      <trkpt lat="48.73794" lon="6.25708">
        <ele>212.6</ele>
        <time>2021-07-30T09:03:55Z</time>
      </trkpt>
      <trkpt lat="48.73793" lon="6.25724">
        <ele>212.6</ele>
        <time>2021-07-30T09:03:57Z</time>
      </trkpt>
      <trkpt lat="48.73793" lon="6.25732">
        <ele>212.7</ele>
        <time>2021-07-30T09:03:58Z</time>
      </trkpt>
      <trkpt lat="48.73792" lon="6.25748">
        <ele>212.7</ele>
        <time>2021-07-30T09:04:00Z</time>
      </trkpt>
      <trkpt lat="48.73792" lon="6.25756">
        <ele>212.7</ele>
        <time>2021-07-30T09:04:01Z</time>
      </trkpt>
      <trkpt lat="48.73793" lon="6.25769">
        <ele>212.6</ele>
        <time>2021-07-30T09:04:03Z</time>
      </trkpt>
      <trkpt lat="48.73793" lon="6.25777">
        <ele>212.6</ele>
        <time>2021-07-30T09:04:04Z</time>
      </trkpt>
      <trkpt lat="48.73794" lon="6.25794">
        <ele>212.6</ele>
        <time>2021-07-30T09:04:06Z</time>
      </trkpt>
      <trkpt lat="48.73794" lon="6.25802">
        <ele>212.6</ele>
        <time>2021-07-30T09:04:07Z</time>
      </trkpt>
      <trkpt lat="48.73795" lon="6.25817">
        <ele>212.6</ele>
        <time>2021-07-30T09:04:09Z</time>
      </trkpt>
      <trkpt lat="48.73797" lon="6.25832">
        <ele>212.6</ele>
        <time>2021-07-30T09:04:11Z</time>
      </trkpt>
      <trkpt lat="48.73797" lon="6.25847">
        <ele>212.6</ele>
        <time>2021-07-30T09:04:13Z</time>
      </trkpt>
      <trkpt lat="48.73799" lon="6.25862">
        <ele>212.6</ele>
        <time>2021-07-30T09:04:15Z</time>
      </trkpt>
      <trkpt lat="48.73799" lon="6.2587">
        <ele>212.6</ele>
        <time>2021-07-30T09:04:16Z</time>
      </trkpt>
      <trkpt lat="48.73799" lon="6.25877">
        <ele>212.6</ele>
        <time>2021-07-30T09:04:17Z</time>
      </trkpt>
      <trkpt lat="48.73799" lon="6.25889">
        <ele>212.6</ele>
        <time>2021-07-30T09:04:19Z</time>
      </trkpt>
      <trkpt lat="48.73799" lon="6.25897">
        <ele>212.6</ele>
        <time>2021-07-30T09:04:20Z</time>
      </trkpt>
      <trkpt lat="48.73799" lon="6.25905">
        <ele>212.6</ele>
        <time>2021-07-30T09:04:21Z</time>
      </trkpt>
      <trkpt lat="48.73799" lon="6.2592">
        <ele>212.6</ele>
        <time>2021-07-30T09:04:23Z</time>
      </trkpt>
      <trkpt lat="48.738" lon="6.25927">
        <ele>212.6</ele>
        <time>2021-07-30T09:04:25Z</time>
      </trkpt>
      <trkpt lat="48.73801" lon="6.25939">
        <ele>212.6</ele>
        <time>2021-07-30T09:04:26Z</time>
      </trkpt>
      <trkpt lat="48.73801" lon="6.25952">
        <ele>212.7</ele>
        <time>2021-07-30T09:04:28Z</time>
      </trkpt>
      <trkpt lat="48.73802" lon="6.25961">
        <ele>212.7</ele>
        <time>2021-07-30T09:04:29Z</time>
      </trkpt>
      <trkpt lat="48.73803" lon="6.25978">
        <ele>212.7</ele>
        <time>2021-07-30T09:04:31Z</time>
      </trkpt>
      <trkpt lat="48.73803" lon="6.25986">
        <ele>212.7</ele>
        <time>2021-07-30T09:04:32Z</time>
      </trkpt>
      <trkpt lat="48.73802" lon="6.25994">
        <ele>212.7</ele>
        <time>2021-07-30T09:04:33Z</time>
      </trkpt>
      <trkpt lat="48.73802" lon="6.26009">
        <ele>212.7</ele>
        <time>2021-07-30T09:04:35Z</time>
      </trkpt>
      <trkpt lat="48.73801" lon="6.26016">
        <ele>212.7</ele>
        <time>2021-07-30T09:04:36Z</time>
      </trkpt>
      <trkpt lat="48.73801" lon="6.26022">
        <ele>212.7</ele>
        <time>2021-07-30T09:04:37Z</time>
      </trkpt>
      <trkpt lat="48.73802" lon="6.26036">
        <ele>212.7</ele>
        <time>2021-07-30T09:04:39Z</time>
      </trkpt>
      <trkpt lat="48.73803" lon="6.26044">
        <ele>212.8</ele>
        <time>2021-07-30T09:04:40Z</time>
      </trkpt>
      <trkpt lat="48.73804" lon="6.26052">
        <ele>212.8</ele>
        <time>2021-07-30T09:04:41Z</time>
      </trkpt>
      <trkpt lat="48.73805" lon="6.26067">
        <ele>212.8</ele>
        <time>2021-07-30T09:04:43Z</time>
      </trkpt>
      <trkpt lat="48.73806" lon="6.26075">
        <ele>212.8</ele>
        <time>2021-07-30T09:04:44Z</time>
      </trkpt>
      <trkpt lat="48.73807" lon="6.2609">
        <ele>212.8</ele>
        <time>2021-07-30T09:04:46Z</time>
      </trkpt>
      <trkpt lat="48.73807" lon="6.26098">
        <ele>212.7</ele>
        <time>2021-07-30T09:04:47Z</time>
      </trkpt>
      <trkpt lat="48.73806" lon="6.26114">
        <ele>212.7</ele>
        <time>2021-07-30T09:04:49Z</time>
      </trkpt>
      <trkpt lat="48.73806" lon="6.26129">
        <ele>212.7</ele>
        <time>2021-07-30T09:04:51Z</time>
      </trkpt>
      <trkpt lat="48.73805" lon="6.26145">
        <ele>212.7</ele>
        <time>2021-07-30T09:04:53Z</time>
      </trkpt>
      <trkpt lat="48.73805" lon="6.26162">
        <ele>212.6</ele>
        <time>2021-07-30T09:04:55Z</time>
      </trkpt>
      <trkpt lat="48.73806" lon="6.26177">
        <ele>212.6</ele>
        <time>2021-07-30T09:04:57Z</time>
      </trkpt>
      <trkpt lat="48.73806" lon="6.26185">
        <ele>212.6</ele>
        <time>2021-07-30T09:04:58Z</time>
      </trkpt>
      <trkpt lat="48.73805" lon="6.262">
        <ele>212.5</ele>
        <time>2021-07-30T09:05:00Z</time>
      </trkpt>
      <trkpt lat="48.73806" lon="6.26217">
        <ele>212.5</ele>
        <time>2021-07-30T09:05:02Z</time>
      </trkpt>
      <trkpt lat="48.73807" lon="6.26234">
        <ele>212.4</ele>
        <time>2021-07-30T09:05:04Z</time>
      </trkpt>
      <trkpt lat="48.73807" lon="6.26252">
        <ele>212.4</ele>
        <time>2021-07-30T09:05:06Z</time>
      </trkpt>
      <trkpt lat="48.73807" lon="6.26261">
        <ele>212.4</ele>
        <time>2021-07-30T09:05:07Z</time>
      </trkpt>
      <trkpt lat="48.73808" lon="6.26279">
        <ele>212.3</ele>
        <time>2021-07-30T09:05:09Z</time>
      </trkpt>
      <trkpt lat="48.7381" lon="6.26289">
        <ele>212.3</ele>
        <time>2021-07-30T09:05:10Z</time>
      </trkpt>
      <trkpt lat="48.7381" lon="6.26298">
        <ele>212.3</ele>
        <time>2021-07-30T09:05:11Z</time>
      </trkpt>
      <trkpt lat="48.73811" lon="6.26317">
        <ele>212.2</ele>
        <time>2021-07-30T09:05:13Z</time>
      </trkpt>
      <trkpt lat="48.73811" lon="6.26336">
        <ele>212.2</ele>
        <time>2021-07-30T09:05:15Z</time>
      </trkpt>
      <trkpt lat="48.73812" lon="6.26345">
        <ele>212.1</ele>
        <time>2021-07-30T09:05:16Z</time>
      </trkpt>
      <trkpt lat="48.73813" lon="6.26355">
        <ele>212.1</ele>
        <time>2021-07-30T09:05:17Z</time>
      </trkpt>
      <trkpt lat="48.73814" lon="6.26373">
        <ele>212.1</ele>
        <time>2021-07-30T09:05:19Z</time>
      </trkpt>
      <trkpt lat="48.73814" lon="6.2639">
        <ele>212</ele>
        <time>2021-07-30T09:05:21Z</time>
      </trkpt>
      <trkpt lat="48.73815" lon="6.264">
        <ele>212</ele>
        <time>2021-07-30T09:05:22Z</time>
      </trkpt>
      <trkpt lat="48.73817" lon="6.26409">
        <ele>212</ele>
        <time>2021-07-30T09:05:23Z</time>
      </trkpt>
      <trkpt lat="48.73818" lon="6.26428">
        <ele>212</ele>
        <time>2021-07-30T09:05:25Z</time>
      </trkpt>
      <trkpt lat="48.73819" lon="6.26446">
        <ele>212</ele>
        <time>2021-07-30T09:05:27Z</time>
      </trkpt>
      <trkpt lat="48.73821" lon="6.26456">
        <ele>212</ele>
        <time>2021-07-30T09:05:28Z</time>
      </trkpt>
      <trkpt lat="48.73826" lon="6.26474">
        <ele>212</ele>
        <time>2021-07-30T09:05:30Z</time>
      </trkpt>
      <trkpt lat="48.73827" lon="6.26482">
        <ele>212</ele>
        <time>2021-07-30T09:05:31Z</time>
      </trkpt>
      <trkpt lat="48.7383" lon="6.26499">
        <ele>212</ele>
        <time>2021-07-30T09:05:33Z</time>
      </trkpt>
      <trkpt lat="48.73832" lon="6.26508">
        <ele>212</ele>
        <time>2021-07-30T09:05:34Z</time>
      </trkpt>
      <trkpt lat="48.73836" lon="6.26525">
        <ele>212.1</ele>
        <time>2021-07-30T09:05:36Z</time>
      </trkpt>
      <trkpt lat="48.73837" lon="6.26533">
        <ele>212.1</ele>
        <time>2021-07-30T09:05:37Z</time>
      </trkpt>
      <trkpt lat="48.7384" lon="6.26548">
        <ele>212.1</ele>
        <time>2021-07-30T09:05:39Z</time>
      </trkpt>
      <trkpt lat="48.73842" lon="6.26555">
        <ele>212.1</ele>
        <time>2021-07-30T09:05:40Z</time>
      </trkpt>
      <trkpt lat="48.73845" lon="6.26564">
        <ele>212.2</ele>
        <time>2021-07-30T09:05:41Z</time>
      </trkpt>
      <trkpt lat="48.73849" lon="6.26581">
        <ele>212.2</ele>
        <time>2021-07-30T09:05:43Z</time>
      </trkpt>
      <trkpt lat="48.73853" lon="6.26597">
        <ele>212.2</ele>
        <time>2021-07-30T09:05:45Z</time>
      </trkpt>
      <trkpt lat="48.73854" lon="6.26605">
        <ele>212.2</ele>
        <time>2021-07-30T09:05:46Z</time>
      </trkpt>
      <trkpt lat="48.73855" lon="6.26613">
        <ele>212.2</ele>
        <time>2021-07-30T09:05:47Z</time>
      </trkpt>
      <trkpt lat="48.73857" lon="6.26622">
        <ele>212.2</ele>
        <time>2021-07-30T09:05:48Z</time>
      </trkpt>
      <trkpt lat="48.73861" lon="6.26639">
        <ele>212.2</ele>
        <time>2021-07-30T09:05:50Z</time>
      </trkpt>
      <trkpt lat="48.73863" lon="6.26656">
        <ele>212.3</ele>
        <time>2021-07-30T09:05:52Z</time>
      </trkpt>
      <trkpt lat="48.73865" lon="6.26664">
        <ele>212.3</ele>
        <time>2021-07-30T09:05:53Z</time>
      </trkpt>
      <trkpt lat="48.73869" lon="6.26679">
        <ele>212.3</ele>
        <time>2021-07-30T09:05:55Z</time>
      </trkpt>
      <trkpt lat="48.73872" lon="6.26687">
        <ele>212.3</ele>
        <time>2021-07-30T09:05:56Z</time>
      </trkpt>
      <trkpt lat="48.73875" lon="6.26695">
        <ele>212.3</ele>
        <time>2021-07-30T09:05:57Z</time>
      </trkpt>
      <trkpt lat="48.73878" lon="6.26702">
        <ele>212.3</ele>
        <time>2021-07-30T09:05:58Z</time>
      </trkpt>
      <trkpt lat="48.73881" lon="6.26709">
        <ele>212.3</ele>
        <time>2021-07-30T09:05:59Z</time>
      </trkpt>
      <trkpt lat="48.73889" lon="6.26723">
        <ele>212.3</ele>
        <time>2021-07-30T09:06:01Z</time>
      </trkpt>
      <trkpt lat="48.73893" lon="6.2673">
        <ele>212.3</ele>
        <time>2021-07-30T09:06:02Z</time>
      </trkpt>
      <trkpt lat="48.73896" lon="6.26737">
        <ele>212.3</ele>
        <time>2021-07-30T09:06:03Z</time>
      </trkpt>
      <trkpt lat="48.739" lon="6.26743">
        <ele>212.3</ele>
        <time>2021-07-30T09:06:04Z</time>
      </trkpt>
      <trkpt lat="48.73909" lon="6.26757">
        <ele>212.3</ele>
        <time>2021-07-30T09:06:06Z</time>
      </trkpt>
      <trkpt lat="48.73913" lon="6.26764">
        <ele>212.3</ele>
        <time>2021-07-30T09:06:07Z</time>
      </trkpt>
      <trkpt lat="48.73916" lon="6.26784">
        <ele>212.3</ele>
        <time>2021-07-30T09:06:09Z</time>
      </trkpt>
      <trkpt lat="48.73921" lon="6.26799">
        <ele>212.4</ele>
        <time>2021-07-30T09:06:11Z</time>
      </trkpt>
      <trkpt lat="48.73923" lon="6.26807">
        <ele>212.4</ele>
        <time>2021-07-30T09:06:12Z</time>
      </trkpt>
      <trkpt lat="48.73926" lon="6.26813">
        <ele>212.4</ele>
        <time>2021-07-30T09:06:13Z</time>
      </trkpt>
      <trkpt lat="48.73933" lon="6.26825">
        <ele>212.5</ele>
        <time>2021-07-30T09:06:15Z</time>
      </trkpt>
      <trkpt lat="48.73936" lon="6.26831">
        <ele>212.6</ele>
        <time>2021-07-30T09:06:16Z</time>
      </trkpt>
      <trkpt lat="48.7394" lon="6.26837">
        <ele>212.6</ele>
        <time>2021-07-30T09:06:17Z</time>
      </trkpt>
      <trkpt lat="48.73942" lon="6.26842">
        <ele>212.7</ele>
        <time>2021-07-30T09:06:18Z</time>
      </trkpt>
      <trkpt lat="48.73945" lon="6.26848">
        <ele>212.7</ele>
        <time>2021-07-30T09:06:19Z</time>
      </trkpt>
      <trkpt lat="48.73949" lon="6.26861">
        <ele>212.8</ele>
        <time>2021-07-30T09:06:21Z</time>
      </trkpt>
      <trkpt lat="48.73953" lon="6.26872">
        <ele>212.9</ele>
        <time>2021-07-30T09:06:23Z</time>
      </trkpt>
      <trkpt lat="48.73956" lon="6.26879">
        <ele>212.9</ele>
        <time>2021-07-30T09:06:24Z</time>
      </trkpt>
      <trkpt lat="48.73963" lon="6.26891">
        <ele>212.9</ele>
        <time>2021-07-30T09:06:26Z</time>
      </trkpt>
      <trkpt lat="48.73966" lon="6.26899">
        <ele>212.9</ele>
        <time>2021-07-30T09:06:27Z</time>
      </trkpt>
      <trkpt lat="48.7397" lon="6.26913">
        <ele>212.9</ele>
        <time>2021-07-30T09:06:29Z</time>
      </trkpt>
      <trkpt lat="48.73975" lon="6.26928">
        <ele>212.9</ele>
        <time>2021-07-30T09:06:31Z</time>
      </trkpt>
      <trkpt lat="48.73981" lon="6.26943">
        <ele>212.9</ele>
        <time>2021-07-30T09:06:33Z</time>
      </trkpt>
      <trkpt lat="48.73983" lon="6.2695">
        <ele>212.9</ele>
        <time>2021-07-30T09:06:34Z</time>
      </trkpt>
      <trkpt lat="48.73988" lon="6.26964">
        <ele>212.9</ele>
        <time>2021-07-30T09:06:36Z</time>
      </trkpt>
      <trkpt lat="48.73991" lon="6.2697">
        <ele>212.9</ele>
        <time>2021-07-30T09:06:37Z</time>
      </trkpt>
      <trkpt lat="48.73998" lon="6.26982">
        <ele>213</ele>
        <time>2021-07-30T09:06:39Z</time>
      </trkpt>
      <trkpt lat="48.74002" lon="6.26987">
        <ele>213</ele>
        <time>2021-07-30T09:06:40Z</time>
      </trkpt>
      <trkpt lat="48.7401" lon="6.26999">
        <ele>213</ele>
        <time>2021-07-30T09:06:42Z</time>
      </trkpt>
      <trkpt lat="48.74014" lon="6.27006">
        <ele>213.1</ele>
        <time>2021-07-30T09:06:43Z</time>
      </trkpt>
      <trkpt lat="48.74021" lon="6.27019">
        <ele>213.1</ele>
        <time>2021-07-30T09:06:45Z</time>
      </trkpt>
      <trkpt lat="48.74025" lon="6.27026">
        <ele>213.2</ele>
        <time>2021-07-30T09:06:46Z</time>
      </trkpt>
      <trkpt lat="48.74029" lon="6.27033">
        <ele>213.2</ele>
        <time>2021-07-30T09:06:47Z</time>
      </trkpt>
      <trkpt lat="48.74037" lon="6.27047">
        <ele>213.3</ele>
        <time>2021-07-30T09:06:49Z</time>
      </trkpt>
      <trkpt lat="48.74044" lon="6.27061">
        <ele>213.4</ele>
        <time>2021-07-30T09:06:51Z</time>
      </trkpt>
      <trkpt lat="48.74051" lon="6.27073">
        <ele>213.6</ele>
        <time>2021-07-30T09:06:53Z</time>
      </trkpt>
      <trkpt lat="48.74059" lon="6.2708">
        <ele>213.8</ele>
        <time>2021-07-30T09:06:55Z</time>
      </trkpt>
      <trkpt lat="48.74063" lon="6.27081">
        <ele>213.9</ele>
        <time>2021-07-30T09:06:56Z</time>
      </trkpt>
      <trkpt lat="48.74069" lon="6.27084">
        <ele>214</ele>
        <time>2021-07-30T09:06:58Z</time>
      </trkpt>
      <trkpt lat="48.74071" lon="6.27084">
        <ele>214</ele>
        <time>2021-07-30T09:06:59Z</time>
      </trkpt>
      <trkpt lat="48.74076" lon="6.27088">
        <ele>214.2</ele>
        <time>2021-07-30T09:07:01Z</time>
      </trkpt>
      <trkpt lat="48.74078" lon="6.27093">
        <ele>214.3</ele>
        <time>2021-07-30T09:07:02Z</time>
      </trkpt>
      <trkpt lat="48.74083" lon="6.27099">
        <ele>214.4</ele>
        <time>2021-07-30T09:07:04Z</time>
      </trkpt>
      <trkpt lat="48.74085" lon="6.27103">
        <ele>214.4</ele>
        <time>2021-07-30T09:07:05Z</time>
      </trkpt>
      <trkpt lat="48.7409" lon="6.27117">
        <ele>214.5</ele>
        <time>2021-07-30T09:07:06Z</time>
      </trkpt>
      <trkpt lat="48.74094" lon="6.27121">
        <ele>214.5</ele>
        <time>2021-07-30T09:07:07Z</time>
      </trkpt>
      <trkpt lat="48.74101" lon="6.27132">
        <ele>214.4</ele>
        <time>2021-07-30T09:07:09Z</time>
      </trkpt>
      <trkpt lat="48.74104" lon="6.27138">
        <ele>214.4</ele>
        <time>2021-07-30T09:07:10Z</time>
      </trkpt>
      <trkpt lat="48.74105" lon="6.27145">
        <ele>214.3</ele>
        <time>2021-07-30T09:07:11Z</time>
      </trkpt>
      <trkpt lat="48.74108" lon="6.27158">
        <ele>214.3</ele>
        <time>2021-07-30T09:07:13Z</time>
      </trkpt>
      <trkpt lat="48.74112" lon="6.27173">
        <ele>214.2</ele>
        <time>2021-07-30T09:07:15Z</time>
      </trkpt>
      <trkpt lat="48.74114" lon="6.2718">
        <ele>214.2</ele>
        <time>2021-07-30T09:07:16Z</time>
      </trkpt>
      <trkpt lat="48.74116" lon="6.27198">
        <ele>214.1</ele>
        <time>2021-07-30T09:07:18Z</time>
      </trkpt>
      <trkpt lat="48.74117" lon="6.27209">
        <ele>214</ele>
        <time>2021-07-30T09:07:19Z</time>
      </trkpt>
      <trkpt lat="48.74118" lon="6.27228">
        <ele>213.8</ele>
        <time>2021-07-30T09:07:21Z</time>
      </trkpt>
      <trkpt lat="48.74118" lon="6.27239">
        <ele>213.7</ele>
        <time>2021-07-30T09:07:22Z</time>
      </trkpt>
      <trkpt lat="48.74119" lon="6.2725">
        <ele>213.7</ele>
        <time>2021-07-30T09:07:23Z</time>
      </trkpt>
      <trkpt lat="48.74122" lon="6.27272">
        <ele>213.6</ele>
        <time>2021-07-30T09:07:25Z</time>
      </trkpt>
      <trkpt lat="48.74127" lon="6.27291">
        <ele>213.6</ele>
        <time>2021-07-30T09:07:27Z</time>
      </trkpt>
      <trkpt lat="48.7413" lon="6.273">
        <ele>213.6</ele>
        <time>2021-07-30T09:07:28Z</time>
      </trkpt>
      <trkpt lat="48.74136" lon="6.27312">
        <ele>213.6</ele>
        <time>2021-07-30T09:07:30Z</time>
      </trkpt>
      <trkpt lat="48.7414" lon="6.27318">
        <ele>213.6</ele>
        <time>2021-07-30T09:07:31Z</time>
      </trkpt>
      <trkpt lat="48.74147" lon="6.27333">
        <ele>213.5</ele>
        <time>2021-07-30T09:07:33Z</time>
      </trkpt>
      <trkpt lat="48.7415" lon="6.27341">
        <ele>213.5</ele>
        <time>2021-07-30T09:07:34Z</time>
      </trkpt>
      <trkpt lat="48.74153" lon="6.27349">
        <ele>213.5</ele>
        <time>2021-07-30T09:07:35Z</time>
      </trkpt>
      <trkpt lat="48.7416" lon="6.27364">
        <ele>213.5</ele>
        <time>2021-07-30T09:07:37Z</time>
      </trkpt>
      <trkpt lat="48.74168" lon="6.27379">
        <ele>213.6</ele>
        <time>2021-07-30T09:07:39Z</time>
      </trkpt>
      <trkpt lat="48.74172" lon="6.27387">
        <ele>213.6</ele>
        <time>2021-07-30T09:07:40Z</time>
      </trkpt>
      <trkpt lat="48.74175" lon="6.27394">
        <ele>213.6</ele>
        <time>2021-07-30T09:07:41Z</time>
      </trkpt>
      <trkpt lat="48.74181" lon="6.27411">
        <ele>213.6</ele>
        <time>2021-07-30T09:07:43Z</time>
      </trkpt>
      <trkpt lat="48.74187" lon="6.27428">
        <ele>213.5</ele>
        <time>2021-07-30T09:07:45Z</time>
      </trkpt>
      <trkpt lat="48.74189" lon="6.27438">
        <ele>213.5</ele>
        <time>2021-07-30T09:07:46Z</time>
      </trkpt>
      <trkpt lat="48.74192" lon="6.27446">
        <ele>213.5</ele>
        <time>2021-07-30T09:07:47Z</time>
      </trkpt>
      <trkpt lat="48.74198" lon="6.27461">
        <ele>213.6</ele>
        <time>2021-07-30T09:07:49Z</time>
      </trkpt>
      <trkpt lat="48.74204" lon="6.27478">
        <ele>213.6</ele>
        <time>2021-07-30T09:07:51Z</time>
      </trkpt>
      <trkpt lat="48.74208" lon="6.27485">
        <ele>213.6</ele>
        <time>2021-07-30T09:07:52Z</time>
      </trkpt>
      <trkpt lat="48.74214" lon="6.27501">
        <ele>213.6</ele>
        <time>2021-07-30T09:07:54Z</time>
      </trkpt>
      <trkpt lat="48.74218" lon="6.27509">
        <ele>213.6</ele>
        <time>2021-07-30T09:07:55Z</time>
      </trkpt>
      <trkpt lat="48.74221" lon="6.27516">
        <ele>213.6</ele>
        <time>2021-07-30T09:07:56Z</time>
      </trkpt>
      <trkpt lat="48.74227" lon="6.2753">
        <ele>213.7</ele>
        <time>2021-07-30T09:07:58Z</time>
      </trkpt>
      <trkpt lat="48.74231" lon="6.27546">
        <ele>213.7</ele>
        <time>2021-07-30T09:08:00Z</time>
      </trkpt>
      <trkpt lat="48.74233" lon="6.27553">
        <ele>213.7</ele>
        <time>2021-07-30T09:08:01Z</time>
      </trkpt>
      <trkpt lat="48.74238" lon="6.27567">
        <ele>213.7</ele>
        <time>2021-07-30T09:08:03Z</time>
      </trkpt>
      <trkpt lat="48.74243" lon="6.27582">
        <ele>213.7</ele>
        <time>2021-07-30T09:08:05Z</time>
      </trkpt>
      <trkpt lat="48.74247" lon="6.27598">
        <ele>213.7</ele>
        <time>2021-07-30T09:08:07Z</time>
      </trkpt>
      <trkpt lat="48.7425" lon="6.27612">
        <ele>213.7</ele>
        <time>2021-07-30T09:08:09Z</time>
      </trkpt>
      <trkpt lat="48.74254" lon="6.27628">
        <ele>213.8</ele>
        <time>2021-07-30T09:08:11Z</time>
      </trkpt>
      <trkpt lat="48.74255" lon="6.27635">
        <ele>213.8</ele>
        <time>2021-07-30T09:08:12Z</time>
      </trkpt>
      <trkpt lat="48.74257" lon="6.27642">
        <ele>213.8</ele>
        <time>2021-07-30T09:08:13Z</time>
      </trkpt>
      <trkpt lat="48.74261" lon="6.27656">
        <ele>213.8</ele>
        <time>2021-07-30T09:08:15Z</time>
      </trkpt>
      <trkpt lat="48.74265" lon="6.27672">
        <ele>213.9</ele>
        <time>2021-07-30T09:08:17Z</time>
      </trkpt>
      <trkpt lat="48.74268" lon="6.2768">
        <ele>213.9</ele>
        <time>2021-07-30T09:08:18Z</time>
      </trkpt>
      <trkpt lat="48.74271" lon="6.27688">
        <ele>213.9</ele>
        <time>2021-07-30T09:08:19Z</time>
      </trkpt>
      <trkpt lat="48.74275" lon="6.27703">
        <ele>213.9</ele>
        <time>2021-07-30T09:08:21Z</time>
      </trkpt>
      <trkpt lat="48.74278" lon="6.27711">
        <ele>214</ele>
        <time>2021-07-30T09:08:22Z</time>
      </trkpt>
      <trkpt lat="48.74283" lon="6.27727">
        <ele>214</ele>
        <time>2021-07-30T09:08:24Z</time>
      </trkpt>
      <trkpt lat="48.74289" lon="6.27742">
        <ele>214</ele>
        <time>2021-07-30T09:08:26Z</time>
      </trkpt>
      <trkpt lat="48.74293" lon="6.27756">
        <ele>214</ele>
        <time>2021-07-30T09:08:28Z</time>
      </trkpt>
      <trkpt lat="48.74298" lon="6.27769">
        <ele>214</ele>
        <time>2021-07-30T09:08:30Z</time>
      </trkpt>
      <trkpt lat="48.743" lon="6.27776">
        <ele>214</ele>
        <time>2021-07-30T09:08:31Z</time>
      </trkpt>
      <trkpt lat="48.74302" lon="6.2779">
        <ele>214.1</ele>
        <time>2021-07-30T09:08:33Z</time>
      </trkpt>
      <trkpt lat="48.74303" lon="6.27798">
        <ele>214.1</ele>
        <time>2021-07-30T09:08:34Z</time>
      </trkpt>
      <trkpt lat="48.74304" lon="6.27805">
        <ele>214.1</ele>
        <time>2021-07-30T09:08:35Z</time>
      </trkpt>
      <trkpt lat="48.74305" lon="6.27813">
        <ele>214.1</ele>
        <time>2021-07-30T09:08:36Z</time>
      </trkpt>
      <trkpt lat="48.74308" lon="6.2782">
        <ele>214.1</ele>
        <time>2021-07-30T09:08:37Z</time>
      </trkpt>
      <trkpt lat="48.74312" lon="6.27835">
        <ele>214.1</ele>
        <time>2021-07-30T09:08:39Z</time>
      </trkpt>
      <trkpt lat="48.74315" lon="6.27851">
        <ele>214.1</ele>
        <time>2021-07-30T09:08:41Z</time>
      </trkpt>
      <trkpt lat="48.74316" lon="6.27864">
        <ele>214.1</ele>
        <time>2021-07-30T09:08:43Z</time>
      </trkpt>
      <trkpt lat="48.74319" lon="6.27878">
        <ele>214.1</ele>
        <time>2021-07-30T09:08:45Z</time>
      </trkpt>
      <trkpt lat="48.7432" lon="6.27885">
        <ele>214.1</ele>
        <time>2021-07-30T09:08:46Z</time>
      </trkpt>
      <trkpt lat="48.7432" lon="6.27892">
        <ele>214.2</ele>
        <time>2021-07-30T09:08:47Z</time>
      </trkpt>
      <trkpt lat="48.74323" lon="6.27904">
        <ele>214.2</ele>
        <time>2021-07-30T09:08:49Z</time>
      </trkpt>
      <trkpt lat="48.74326" lon="6.27918">
        <ele>214.2</ele>
        <time>2021-07-30T09:08:51Z</time>
      </trkpt>
      <trkpt lat="48.74331" lon="6.27934">
        <ele>214.2</ele>
        <time>2021-07-30T09:08:53Z</time>
      </trkpt>
      <trkpt lat="48.74334" lon="6.27949">
        <ele>214.2</ele>
        <time>2021-07-30T09:08:55Z</time>
      </trkpt>
      <trkpt lat="48.74333" lon="6.27962">
        <ele>214.2</ele>
        <time>2021-07-30T09:08:57Z</time>
      </trkpt>
      <trkpt lat="48.74333" lon="6.27971">
        <ele>214.2</ele>
        <time>2021-07-30T09:08:58Z</time>
      </trkpt>
      <trkpt lat="48.74335" lon="6.27987">
        <ele>214.3</ele>
        <time>2021-07-30T09:09:00Z</time>
      </trkpt>
      <trkpt lat="48.74335" lon="6.27995">
        <ele>214.3</ele>
        <time>2021-07-30T09:09:01Z</time>
      </trkpt>
      <trkpt lat="48.74336" lon="6.28008">
        <ele>214.4</ele>
        <time>2021-07-30T09:09:03Z</time>
      </trkpt>
      <trkpt lat="48.74336" lon="6.28014">
        <ele>214.4</ele>
        <time>2021-07-30T09:09:04Z</time>
      </trkpt>
      <trkpt lat="48.74337" lon="6.2802">
        <ele>214.4</ele>
        <time>2021-07-30T09:09:05Z</time>
      </trkpt>
      <trkpt lat="48.74337" lon="6.28035">
        <ele>214.5</ele>
        <time>2021-07-30T09:09:07Z</time>
      </trkpt>
      <trkpt lat="48.74338" lon="6.28042">
        <ele>214.5</ele>
        <time>2021-07-30T09:09:08Z</time>
      </trkpt>
      <trkpt lat="48.74336" lon="6.28048">
        <ele>214.5</ele>
        <time>2021-07-30T09:09:10Z</time>
      </trkpt>
      <trkpt lat="48.74335" lon="6.28061">
        <ele>214.6</ele>
        <time>2021-07-30T09:09:11Z</time>
      </trkpt>
      <trkpt lat="48.74335" lon="6.28076">
        <ele>214.6</ele>
        <time>2021-07-30T09:09:13Z</time>
      </trkpt>
      <trkpt lat="48.74334" lon="6.2809">
        <ele>214.6</ele>
        <time>2021-07-30T09:09:15Z</time>
      </trkpt>
      <trkpt lat="48.74332" lon="6.28103">
        <ele>214.6</ele>
        <time>2021-07-30T09:09:17Z</time>
      </trkpt>
      <trkpt lat="48.7433" lon="6.28118">
        <ele>214.7</ele>
        <time>2021-07-30T09:09:19Z</time>
      </trkpt>
      <trkpt lat="48.74328" lon="6.28134">
        <ele>214.7</ele>
        <time>2021-07-30T09:09:21Z</time>
      </trkpt>
      <trkpt lat="48.74327" lon="6.28141">
        <ele>214.7</ele>
        <time>2021-07-30T09:09:22Z</time>
      </trkpt>
      <trkpt lat="48.74325" lon="6.28156">
        <ele>214.7</ele>
        <time>2021-07-30T09:09:24Z</time>
      </trkpt>
      <trkpt lat="48.74325" lon="6.28164">
        <ele>214.7</ele>
        <time>2021-07-30T09:09:25Z</time>
      </trkpt>
      <trkpt lat="48.74325" lon="6.2818">
        <ele>214.7</ele>
        <time>2021-07-30T09:09:27Z</time>
      </trkpt>
      <trkpt lat="48.74324" lon="6.28188">
        <ele>214.7</ele>
        <time>2021-07-30T09:09:28Z</time>
      </trkpt>
      <trkpt lat="48.74324" lon="6.28196">
        <ele>214.7</ele>
        <time>2021-07-30T09:09:29Z</time>
      </trkpt>
      <trkpt lat="48.74324" lon="6.28203">
        <ele>214.7</ele>
        <time>2021-07-30T09:09:30Z</time>
      </trkpt>
      <trkpt lat="48.74323" lon="6.28207">
        <ele>214.7</ele>
        <time>2021-07-30T09:09:31Z</time>
      </trkpt>
      <trkpt lat="48.74322" lon="6.28223">
        <ele>214.7</ele>
        <time>2021-07-30T09:09:33Z</time>
      </trkpt>
      <trkpt lat="48.74321" lon="6.2824">
        <ele>214.6</ele>
        <time>2021-07-30T09:09:35Z</time>
      </trkpt>
      <trkpt lat="48.74321" lon="6.28254">
        <ele>214.6</ele>
        <time>2021-07-30T09:09:37Z</time>
      </trkpt>
      <trkpt lat="48.74321" lon="6.28269">
        <ele>214.6</ele>
        <time>2021-07-30T09:09:39Z</time>
      </trkpt>
      <trkpt lat="48.7432" lon="6.28285">
        <ele>214.6</ele>
        <time>2021-07-30T09:09:41Z</time>
      </trkpt>
      <trkpt lat="48.74319" lon="6.28293">
        <ele>214.6</ele>
        <time>2021-07-30T09:09:42Z</time>
      </trkpt>
      <trkpt lat="48.74318" lon="6.28301">
        <ele>214.6</ele>
        <time>2021-07-30T09:09:43Z</time>
      </trkpt>
      <trkpt lat="48.74315" lon="6.28315">
        <ele>214.5</ele>
        <time>2021-07-30T09:09:45Z</time>
      </trkpt>
      <trkpt lat="48.74313" lon="6.28323">
        <ele>214.5</ele>
        <time>2021-07-30T09:09:46Z</time>
      </trkpt>
      <trkpt lat="48.74312" lon="6.28331">
        <ele>214.5</ele>
        <time>2021-07-30T09:09:47Z</time>
      </trkpt>
      <trkpt lat="48.74312" lon="6.28338">
        <ele>214.5</ele>
        <time>2021-07-30T09:09:48Z</time>
      </trkpt>
      <trkpt lat="48.74311" lon="6.28343">
        <ele>214.5</ele>
        <time>2021-07-30T09:09:49Z</time>
      </trkpt>
      <trkpt lat="48.7431" lon="6.2835">
        <ele>214.5</ele>
        <time>2021-07-30T09:09:50Z</time>
      </trkpt>
      <trkpt lat="48.74307" lon="6.28363">
        <ele>214.5</ele>
        <time>2021-07-30T09:09:52Z</time>
      </trkpt>
      <trkpt lat="48.74302" lon="6.28377">
        <ele>214.5</ele>
        <time>2021-07-30T09:09:54Z</time>
      </trkpt>
      <trkpt lat="48.74299" lon="6.28384">
        <ele>214.5</ele>
        <time>2021-07-30T09:09:55Z</time>
      </trkpt>
      <trkpt lat="48.74294" lon="6.28396">
        <ele>214.5</ele>
        <time>2021-07-30T09:09:57Z</time>
      </trkpt>
      <trkpt lat="48.74288" lon="6.28409">
        <ele>214.5</ele>
        <time>2021-07-30T09:09:59Z</time>
      </trkpt>
      <trkpt lat="48.74287" lon="6.28413">
        <ele>214.5</ele>
        <time>2021-07-30T09:10:00Z</time>
      </trkpt>
      <trkpt lat="48.74284" lon="6.28419">
        <ele>214.5</ele>
        <time>2021-07-30T09:10:01Z</time>
      </trkpt>
      <trkpt lat="48.74278" lon="6.28432">
        <ele>214.4</ele>
        <time>2021-07-30T09:10:03Z</time>
      </trkpt>
      <trkpt lat="48.74271" lon="6.28445">
        <ele>214.4</ele>
        <time>2021-07-30T09:10:05Z</time>
      </trkpt>
      <trkpt lat="48.74268" lon="6.2845">
        <ele>214.4</ele>
        <time>2021-07-30T09:10:06Z</time>
      </trkpt>
      <trkpt lat="48.74263" lon="6.28461">
        <ele>214.3</ele>
        <time>2021-07-30T09:10:08Z</time>
      </trkpt>
      <trkpt lat="48.74259" lon="6.28471">
        <ele>214.3</ele>
        <time>2021-07-30T09:10:10Z</time>
      </trkpt>
      <trkpt lat="48.74256" lon="6.28475">
        <ele>214.3</ele>
        <time>2021-07-30T09:10:11Z</time>
      </trkpt>
      <trkpt lat="48.74254" lon="6.28481">
        <ele>214.3</ele>
        <time>2021-07-30T09:10:12Z</time>
      </trkpt>
      <trkpt lat="48.74251" lon="6.28489">
        <ele>214.3</ele>
        <time>2021-07-30T09:10:14Z</time>
      </trkpt>
      <trkpt lat="48.74247" lon="6.28499">
        <ele>214.3</ele>
        <time>2021-07-30T09:10:15Z</time>
      </trkpt>
      <trkpt lat="48.74243" lon="6.28504">
        <ele>214.3</ele>
        <time>2021-07-30T09:10:16Z</time>
      </trkpt>
      <trkpt lat="48.74238" lon="6.28512">
        <ele>214.3</ele>
        <time>2021-07-30T09:10:18Z</time>
      </trkpt>
      <trkpt lat="48.74235" lon="6.2852">
        <ele>214.3</ele>
        <time>2021-07-30T09:10:19Z</time>
      </trkpt>
      <trkpt lat="48.74229" lon="6.28532">
        <ele>214.3</ele>
        <time>2021-07-30T09:10:21Z</time>
      </trkpt>
      <trkpt lat="48.74228" lon="6.28536">
        <ele>214.3</ele>
        <time>2021-07-30T09:10:22Z</time>
      </trkpt>
      <trkpt lat="48.74226" lon="6.28541">
        <ele>214.3</ele>
        <time>2021-07-30T09:10:23Z</time>
      </trkpt>
      <trkpt lat="48.74226" lon="6.28543">
        <ele>214.3</ele>
        <time>2021-07-30T09:10:24Z</time>
      </trkpt>
      <trkpt lat="48.74218" lon="6.28552">
        <ele>214.3</ele>
        <time>2021-07-30T09:10:26Z</time>
      </trkpt>
      <trkpt lat="48.74214" lon="6.28557">
        <ele>214.3</ele>
        <time>2021-07-30T09:10:27Z</time>
      </trkpt>
      <trkpt lat="48.7421" lon="6.28563">
        <ele>214.3</ele>
        <time>2021-07-30T09:10:29Z</time>
      </trkpt>
      <trkpt lat="48.74206" lon="6.28569">
        <ele>214.3</ele>
        <time>2021-07-30T09:10:30Z</time>
      </trkpt>
      <trkpt lat="48.74203" lon="6.28575">
        <ele>214.3</ele>
        <time>2021-07-30T09:10:31Z</time>
      </trkpt>
      <trkpt lat="48.742" lon="6.28581">
        <ele>214.3</ele>
        <time>2021-07-30T09:10:32Z</time>
      </trkpt>
      <trkpt lat="48.74197" lon="6.28586">
        <ele>214.2</ele>
        <time>2021-07-30T09:10:33Z</time>
      </trkpt>
      <trkpt lat="48.74195" lon="6.28591">
        <ele>214.2</ele>
        <time>2021-07-30T09:10:34Z</time>
      </trkpt>
      <trkpt lat="48.74191" lon="6.28601">
        <ele>214.2</ele>
        <time>2021-07-30T09:10:36Z</time>
      </trkpt>
      <trkpt lat="48.74188" lon="6.28607">
        <ele>214.2</ele>
        <time>2021-07-30T09:10:37Z</time>
      </trkpt>
      <trkpt lat="48.74185" lon="6.28615">
        <ele>214.2</ele>
        <time>2021-07-30T09:10:39Z</time>
      </trkpt>
      <trkpt lat="48.74182" lon="6.2862">
        <ele>214.2</ele>
        <time>2021-07-30T09:10:40Z</time>
      </trkpt>
      <trkpt lat="48.7418" lon="6.28626">
        <ele>214.2</ele>
        <time>2021-07-30T09:10:41Z</time>
      </trkpt>
      <trkpt lat="48.74178" lon="6.28633">
        <ele>214.2</ele>
        <time>2021-07-30T09:10:42Z</time>
      </trkpt>
      <trkpt lat="48.74175" lon="6.28639">
        <ele>214.2</ele>
        <time>2021-07-30T09:10:43Z</time>
      </trkpt>
      <trkpt lat="48.74171" lon="6.28647">
        <ele>214.2</ele>
        <time>2021-07-30T09:10:45Z</time>
      </trkpt>
      <trkpt lat="48.74168" lon="6.28653">
        <ele>214.3</ele>
        <time>2021-07-30T09:10:46Z</time>
      </trkpt>
      <trkpt lat="48.74165" lon="6.2866">
        <ele>214.3</ele>
        <time>2021-07-30T09:10:47Z</time>
      </trkpt>
      <trkpt lat="48.74163" lon="6.28667">
        <ele>214.4</ele>
        <time>2021-07-30T09:10:48Z</time>
      </trkpt>
      <trkpt lat="48.7416" lon="6.28676">
        <ele>214.5</ele>
        <time>2021-07-30T09:10:50Z</time>
      </trkpt>
      <trkpt lat="48.74157" lon="6.28686">
        <ele>214.6</ele>
        <time>2021-07-30T09:10:52Z</time>
      </trkpt>
      <trkpt lat="48.74152" lon="6.28692">
        <ele>214.7</ele>
        <time>2021-07-30T09:10:54Z</time>
      </trkpt>
      <trkpt lat="48.74147" lon="6.28698">
        <ele>214.8</ele>
        <time>2021-07-30T09:10:55Z</time>
      </trkpt>
      <trkpt lat="48.74142" lon="6.28703">
        <ele>214.9</ele>
        <time>2021-07-30T09:10:56Z</time>
      </trkpt>
      <trkpt lat="48.74137" lon="6.28709">
        <ele>215</ele>
        <time>2021-07-30T09:10:57Z</time>
      </trkpt>
      <trkpt lat="48.74134" lon="6.28712">
        <ele>215</ele>
        <time>2021-07-30T09:10:59Z</time>
      </trkpt>
      <trkpt lat="48.74132" lon="6.28718">
        <ele>215</ele>
        <time>2021-07-30T09:11:00Z</time>
      </trkpt>
      <trkpt lat="48.74131" lon="6.28725">
        <ele>215</ele>
        <time>2021-07-30T09:11:01Z</time>
      </trkpt>
      <trkpt lat="48.74129" lon="6.28731">
        <ele>214.9</ele>
        <time>2021-07-30T09:11:03Z</time>
      </trkpt>
      <trkpt lat="48.74127" lon="6.28737">
        <ele>214.9</ele>
        <time>2021-07-30T09:11:04Z</time>
      </trkpt>
      <trkpt lat="48.74125" lon="6.28744">
        <ele>214.8</ele>
        <time>2021-07-30T09:11:05Z</time>
      </trkpt>
      <trkpt lat="48.74123" lon="6.2875">
        <ele>214.8</ele>
        <time>2021-07-30T09:11:06Z</time>
      </trkpt>
      <trkpt lat="48.7412" lon="6.28757">
        <ele>214.7</ele>
        <time>2021-07-30T09:11:07Z</time>
      </trkpt>
      <trkpt lat="48.74117" lon="6.28763">
        <ele>214.7</ele>
        <time>2021-07-30T09:11:08Z</time>
      </trkpt>
      <trkpt lat="48.74114" lon="6.28772">
        <ele>214.7</ele>
        <time>2021-07-30T09:11:09Z</time>
      </trkpt>
      <trkpt lat="48.74112" lon="6.28779">
        <ele>214.7</ele>
        <time>2021-07-30T09:11:10Z</time>
      </trkpt>
      <trkpt lat="48.74107" lon="6.28789">
        <ele>214.7</ele>
        <time>2021-07-30T09:11:12Z</time>
      </trkpt>
      <trkpt lat="48.74104" lon="6.28795">
        <ele>214.7</ele>
        <time>2021-07-30T09:11:14Z</time>
      </trkpt>
      <trkpt lat="48.74101" lon="6.28801">
        <ele>214.7</ele>
        <time>2021-07-30T09:11:15Z</time>
      </trkpt>
      <trkpt lat="48.74097" lon="6.28808">
        <ele>214.7</ele>
        <time>2021-07-30T09:11:16Z</time>
      </trkpt>
      <trkpt lat="48.74094" lon="6.28814">
        <ele>214.7</ele>
        <time>2021-07-30T09:11:17Z</time>
      </trkpt>
      <trkpt lat="48.74091" lon="6.28819">
        <ele>214.7</ele>
        <time>2021-07-30T09:11:18Z</time>
      </trkpt>
      <trkpt lat="48.74089" lon="6.28824">
        <ele>214.7</ele>
        <time>2021-07-30T09:11:19Z</time>
      </trkpt>
      <trkpt lat="48.74085" lon="6.28833">
        <ele>214.8</ele>
        <time>2021-07-30T09:11:21Z</time>
      </trkpt>
      <trkpt lat="48.74083" lon="6.2884">
        <ele>214.8</ele>
        <time>2021-07-30T09:11:23Z</time>
      </trkpt>
      <trkpt lat="48.7408" lon="6.28847">
        <ele>214.8</ele>
        <time>2021-07-30T09:11:24Z</time>
      </trkpt>
      <trkpt lat="48.74077" lon="6.28854">
        <ele>214.9</ele>
        <time>2021-07-30T09:11:25Z</time>
      </trkpt>
      <trkpt lat="48.74072" lon="6.28863">
        <ele>214.9</ele>
        <time>2021-07-30T09:11:27Z</time>
      </trkpt>
      <trkpt lat="48.7407" lon="6.28868">
        <ele>215</ele>
        <time>2021-07-30T09:11:28Z</time>
      </trkpt>
      <trkpt lat="48.74067" lon="6.28872">
        <ele>215</ele>
        <time>2021-07-30T09:11:29Z</time>
      </trkpt>
      <trkpt lat="48.74065" lon="6.28878">
        <ele>215.1</ele>
        <time>2021-07-30T09:11:31Z</time>
      </trkpt>
      <trkpt lat="48.74063" lon="6.28883">
        <ele>215.1</ele>
        <time>2021-07-30T09:11:32Z</time>
      </trkpt>
      <trkpt lat="48.74061" lon="6.28888">
        <ele>215.1</ele>
        <time>2021-07-30T09:11:33Z</time>
      </trkpt>
      <trkpt lat="48.74059" lon="6.28893">
        <ele>215.2</ele>
        <time>2021-07-30T09:11:34Z</time>
      </trkpt>
      <trkpt lat="48.74056" lon="6.28899">
        <ele>215.2</ele>
        <time>2021-07-30T09:11:35Z</time>
      </trkpt>
      <trkpt lat="48.74054" lon="6.28906">
        <ele>215.3</ele>
        <time>2021-07-30T09:11:36Z</time>
      </trkpt>
      <trkpt lat="48.74052" lon="6.28911">
        <ele>215.3</ele>
        <time>2021-07-30T09:11:37Z</time>
      </trkpt>
      <trkpt lat="48.74051" lon="6.28916">
        <ele>215.4</ele>
        <time>2021-07-30T09:11:39Z</time>
      </trkpt>
      <trkpt lat="48.7405" lon="6.2892">
        <ele>215.4</ele>
        <time>2021-07-30T09:11:40Z</time>
      </trkpt>
      <trkpt lat="48.74049" lon="6.28925">
        <ele>215.5</ele>
        <time>2021-07-30T09:11:41Z</time>
      </trkpt>
      <trkpt lat="48.74047" lon="6.28928">
        <ele>215.5</ele>
        <time>2021-07-30T09:11:42Z</time>
      </trkpt>
      <trkpt lat="48.74045" lon="6.28933">
        <ele>215.5</ele>
        <time>2021-07-30T09:11:43Z</time>
      </trkpt>
      <trkpt lat="48.74044" lon="6.28935">
        <ele>215.6</ele>
        <time>2021-07-30T09:11:44Z</time>
      </trkpt>
      <trkpt lat="48.74042" lon="6.2894">
        <ele>215.6</ele>
        <time>2021-07-30T09:11:45Z</time>
      </trkpt>
      <trkpt lat="48.74037" lon="6.28949">
        <ele>215.7</ele>
        <time>2021-07-30T09:11:47Z</time>
      </trkpt>
      <trkpt lat="48.74032" lon="6.28957">
        <ele>215.8</ele>
        <time>2021-07-30T09:11:49Z</time>
      </trkpt>
      <trkpt lat="48.74029" lon="6.28966">
        <ele>215.9</ele>
        <time>2021-07-30T09:11:50Z</time>
      </trkpt>
      <trkpt lat="48.74028" lon="6.28971">
        <ele>215.9</ele>
        <time>2021-07-30T09:11:51Z</time>
      </trkpt>
      <trkpt lat="48.74025" lon="6.28984">
        <ele>216</ele>
        <time>2021-07-30T09:11:53Z</time>
      </trkpt>
      <trkpt lat="48.74023" lon="6.28991">
        <ele>216.1</ele>
        <time>2021-07-30T09:11:54Z</time>
      </trkpt>
      <trkpt lat="48.74022" lon="6.29002">
        <ele>216.1</ele>
        <time>2021-07-30T09:11:56Z</time>
      </trkpt>
      <trkpt lat="48.74021" lon="6.29011">
        <ele>216.1</ele>
        <time>2021-07-30T09:11:57Z</time>
      </trkpt>
      <trkpt lat="48.74021" lon="6.29024">
        <ele>216.1</ele>
        <time>2021-07-30T09:11:58Z</time>
      </trkpt>
      <trkpt lat="48.74021" lon="6.29033">
        <ele>216.1</ele>
        <time>2021-07-30T09:12:00Z</time>
      </trkpt>
      <trkpt lat="48.74021" lon="6.29045">
        <ele>216.1</ele>
        <time>2021-07-30T09:12:01Z</time>
      </trkpt>
      <trkpt lat="48.74021" lon="6.29052">
        <ele>216.1</ele>
        <time>2021-07-30T09:12:02Z</time>
      </trkpt>
      <trkpt lat="48.74022" lon="6.29057">
        <ele>216</ele>
        <time>2021-07-30T09:12:03Z</time>
      </trkpt>
      <trkpt lat="48.74019" lon="6.2907">
        <ele>216</ele>
        <time>2021-07-30T09:12:05Z</time>
      </trkpt>
      <trkpt lat="48.74018" lon="6.29087">
        <ele>216</ele>
        <time>2021-07-30T09:12:07Z</time>
      </trkpt>
      <trkpt lat="48.74019" lon="6.29103">
        <ele>216</ele>
        <time>2021-07-30T09:12:09Z</time>
      </trkpt>
      <trkpt lat="48.74019" lon="6.29119">
        <ele>216</ele>
        <time>2021-07-30T09:12:11Z</time>
      </trkpt>
      <trkpt lat="48.7402" lon="6.29127">
        <ele>216</ele>
        <time>2021-07-30T09:12:12Z</time>
      </trkpt>
      <trkpt lat="48.74023" lon="6.29144">
        <ele>216</ele>
        <time>2021-07-30T09:12:14Z</time>
      </trkpt>
      <trkpt lat="48.74025" lon="6.29159">
        <ele>216</ele>
        <time>2021-07-30T09:12:16Z</time>
      </trkpt>
      <trkpt lat="48.74027" lon="6.29175">
        <ele>216</ele>
        <time>2021-07-30T09:12:18Z</time>
      </trkpt>
      <trkpt lat="48.74028" lon="6.29184">
        <ele>216</ele>
        <time>2021-07-30T09:12:19Z</time>
      </trkpt>
      <trkpt lat="48.74029" lon="6.29201">
        <ele>216</ele>
        <time>2021-07-30T09:12:21Z</time>
      </trkpt>
      <trkpt lat="48.74031" lon="6.29219">
        <ele>216</ele>
        <time>2021-07-30T09:12:23Z</time>
      </trkpt>
      <trkpt lat="48.74032" lon="6.29234">
        <ele>215.9</ele>
        <time>2021-07-30T09:12:25Z</time>
      </trkpt>
      <trkpt lat="48.74033" lon="6.29249">
        <ele>215.9</ele>
        <time>2021-07-30T09:12:27Z</time>
      </trkpt>
      <trkpt lat="48.74034" lon="6.29263">
        <ele>215.9</ele>
        <time>2021-07-30T09:12:29Z</time>
      </trkpt>
      <trkpt lat="48.74036" lon="6.2927">
        <ele>215.9</ele>
        <time>2021-07-30T09:12:30Z</time>
      </trkpt>
      <trkpt lat="48.74039" lon="6.29284">
        <ele>215.9</ele>
        <time>2021-07-30T09:12:32Z</time>
      </trkpt>
      <trkpt lat="48.74041" lon="6.293">
        <ele>215.9</ele>
        <time>2021-07-30T09:12:34Z</time>
      </trkpt>
      <trkpt lat="48.74043" lon="6.29317">
        <ele>215.9</ele>
        <time>2021-07-30T09:12:36Z</time>
      </trkpt>
      <trkpt lat="48.74044" lon="6.29334">
        <ele>215.9</ele>
        <time>2021-07-30T09:12:38Z</time>
      </trkpt>
      <trkpt lat="48.74045" lon="6.29352">
        <ele>215.9</ele>
        <time>2021-07-30T09:12:40Z</time>
      </trkpt>
      <trkpt lat="48.74046" lon="6.29361">
        <ele>215.9</ele>
        <time>2021-07-30T09:12:41Z</time>
      </trkpt>
      <trkpt lat="48.74049" lon="6.29377">
        <ele>215.9</ele>
        <time>2021-07-30T09:12:43Z</time>
      </trkpt>
      <trkpt lat="48.74052" lon="6.29393">
        <ele>215.9</ele>
        <time>2021-07-30T09:12:45Z</time>
      </trkpt>
      <trkpt lat="48.74053" lon="6.29401">
        <ele>215.9</ele>
        <time>2021-07-30T09:12:46Z</time>
      </trkpt>
      <trkpt lat="48.74057" lon="6.29415">
        <ele>215.9</ele>
        <time>2021-07-30T09:12:48Z</time>
      </trkpt>
      <trkpt lat="48.74058" lon="6.29422">
        <ele>215.9</ele>
        <time>2021-07-30T09:12:49Z</time>
      </trkpt>
      <trkpt lat="48.74061" lon="6.29434">
        <ele>215.9</ele>
        <time>2021-07-30T09:12:51Z</time>
      </trkpt>
      <trkpt lat="48.74063" lon="6.29441">
        <ele>215.9</ele>
        <time>2021-07-30T09:12:52Z</time>
      </trkpt>
      <trkpt lat="48.74065" lon="6.29447">
        <ele>215.9</ele>
        <time>2021-07-30T09:12:53Z</time>
      </trkpt>
      <trkpt lat="48.74067" lon="6.29459">
        <ele>215.8</ele>
        <time>2021-07-30T09:12:55Z</time>
      </trkpt>
      <trkpt lat="48.74068" lon="6.29466">
        <ele>215.8</ele>
        <time>2021-07-30T09:12:56Z</time>
      </trkpt>
      <trkpt lat="48.74071" lon="6.29481">
        <ele>215.8</ele>
        <time>2021-07-30T09:12:58Z</time>
      </trkpt>
      <trkpt lat="48.74072" lon="6.29488">
        <ele>215.8</ele>
        <time>2021-07-30T09:12:59Z</time>
      </trkpt>
      <trkpt lat="48.74075" lon="6.29502">
        <ele>215.8</ele>
        <time>2021-07-30T09:13:01Z</time>
      </trkpt>
      <trkpt lat="48.74078" lon="6.2951">
        <ele>215.8</ele>
        <time>2021-07-30T09:13:02Z</time>
      </trkpt>
      <trkpt lat="48.7408" lon="6.29517">
        <ele>215.8</ele>
        <time>2021-07-30T09:13:03Z</time>
      </trkpt>
      <trkpt lat="48.74084" lon="6.29531">
        <ele>215.8</ele>
        <time>2021-07-30T09:13:05Z</time>
      </trkpt>
      <trkpt lat="48.74088" lon="6.29545">
        <ele>215.8</ele>
        <time>2021-07-30T09:13:07Z</time>
      </trkpt>
      <trkpt lat="48.74092" lon="6.29557">
        <ele>215.8</ele>
        <time>2021-07-30T09:13:09Z</time>
      </trkpt>
      <trkpt lat="48.74095" lon="6.29564">
        <ele>215.8</ele>
        <time>2021-07-30T09:13:10Z</time>
      </trkpt>
      <trkpt lat="48.74098" lon="6.29569">
        <ele>215.9</ele>
        <time>2021-07-30T09:13:11Z</time>
      </trkpt>
      <trkpt lat="48.741" lon="6.29575">
        <ele>215.9</ele>
        <time>2021-07-30T09:13:12Z</time>
      </trkpt>
      <trkpt lat="48.74103" lon="6.29582">
        <ele>215.9</ele>
        <time>2021-07-30T09:13:13Z</time>
      </trkpt>
      <trkpt lat="48.74106" lon="6.29593">
        <ele>215.9</ele>
        <time>2021-07-30T09:13:15Z</time>
      </trkpt>
      <trkpt lat="48.74107" lon="6.29596">
        <ele>215.8</ele>
        <time>2021-07-30T09:13:16Z</time>
      </trkpt>
      <trkpt lat="48.74109" lon="6.29603">
        <ele>215.8</ele>
        <time>2021-07-30T09:13:17Z</time>
      </trkpt>
      <trkpt lat="48.74114" lon="6.29611">
        <ele>215.8</ele>
        <time>2021-07-30T09:13:19Z</time>
      </trkpt>
      <trkpt lat="48.74116" lon="6.29619">
        <ele>215.8</ele>
        <time>2021-07-30T09:13:20Z</time>
      </trkpt>
      <trkpt lat="48.7412" lon="6.29632">
        <ele>215.8</ele>
        <time>2021-07-30T09:13:21Z</time>
      </trkpt>
      <trkpt lat="48.74123" lon="6.2964">
        <ele>215.8</ele>
        <time>2021-07-30T09:13:22Z</time>
      </trkpt>
      <trkpt lat="48.74126" lon="6.29651">
        <ele>215.8</ele>
        <time>2021-07-30T09:13:24Z</time>
      </trkpt>
      <trkpt lat="48.7413" lon="6.29657">
        <ele>215.8</ele>
        <time>2021-07-30T09:13:25Z</time>
      </trkpt>
      <trkpt lat="48.74133" lon="6.29665">
        <ele>215.8</ele>
        <time>2021-07-30T09:13:26Z</time>
      </trkpt>
      <trkpt lat="48.74135" lon="6.29672">
        <ele>215.8</ele>
        <time>2021-07-30T09:13:27Z</time>
      </trkpt>
      <trkpt lat="48.74137" lon="6.29679">
        <ele>215.8</ele>
        <time>2021-07-30T09:13:28Z</time>
      </trkpt>
      <trkpt lat="48.74137" lon="6.2969">
        <ele>215.8</ele>
        <time>2021-07-30T09:13:30Z</time>
      </trkpt>
      <trkpt lat="48.74141" lon="6.29697">
        <ele>215.8</ele>
        <time>2021-07-30T09:13:31Z</time>
      </trkpt>
      <trkpt lat="48.74146" lon="6.29711">
        <ele>215.8</ele>
        <time>2021-07-30T09:13:33Z</time>
      </trkpt>
      <trkpt lat="48.7415" lon="6.29724">
        <ele>215.8</ele>
        <time>2021-07-30T09:13:35Z</time>
      </trkpt>
      <trkpt lat="48.74155" lon="6.29736">
        <ele>215.8</ele>
        <time>2021-07-30T09:13:37Z</time>
      </trkpt>
      <trkpt lat="48.74157" lon="6.29743">
        <ele>215.8</ele>
        <time>2021-07-30T09:13:38Z</time>
      </trkpt>
      <trkpt lat="48.74161" lon="6.29757">
        <ele>215.8</ele>
        <time>2021-07-30T09:13:40Z</time>
      </trkpt>
      <trkpt lat="48.74165" lon="6.29771">
        <ele>215.8</ele>
        <time>2021-07-30T09:13:42Z</time>
      </trkpt>
      <trkpt lat="48.74167" lon="6.29778">
        <ele>215.8</ele>
        <time>2021-07-30T09:13:43Z</time>
      </trkpt>
      <trkpt lat="48.74171" lon="6.29792">
        <ele>215.8</ele>
        <time>2021-07-30T09:13:45Z</time>
      </trkpt>
      <trkpt lat="48.74173" lon="6.29799">
        <ele>215.8</ele>
        <time>2021-07-30T09:13:46Z</time>
      </trkpt>
      <trkpt lat="48.74175" lon="6.29806">
        <ele>215.8</ele>
        <time>2021-07-30T09:13:47Z</time>
      </trkpt>
      <trkpt lat="48.74178" lon="6.29821">
        <ele>215.8</ele>
        <time>2021-07-30T09:13:49Z</time>
      </trkpt>
      <trkpt lat="48.74181" lon="6.29837">
        <ele>215.8</ele>
        <time>2021-07-30T09:13:51Z</time>
      </trkpt>
      <trkpt lat="48.74183" lon="6.29845">
        <ele>215.8</ele>
        <time>2021-07-30T09:13:52Z</time>
      </trkpt>
      <trkpt lat="48.74185" lon="6.29853">
        <ele>215.8</ele>
        <time>2021-07-30T09:13:53Z</time>
      </trkpt>
      <trkpt lat="48.74188" lon="6.29868">
        <ele>215.8</ele>
        <time>2021-07-30T09:13:55Z</time>
      </trkpt>
      <trkpt lat="48.74189" lon="6.29876">
        <ele>215.8</ele>
        <time>2021-07-30T09:13:56Z</time>
      </trkpt>
      <trkpt lat="48.74193" lon="6.29892">
        <ele>215.9</ele>
        <time>2021-07-30T09:13:58Z</time>
      </trkpt>
      <trkpt lat="48.74194" lon="6.299">
        <ele>215.9</ele>
        <time>2021-07-30T09:13:59Z</time>
      </trkpt>
      <trkpt lat="48.74196" lon="6.29915">
        <ele>216</ele>
        <time>2021-07-30T09:14:01Z</time>
      </trkpt>
      <trkpt lat="48.74198" lon="6.2993">
        <ele>216</ele>
        <time>2021-07-30T09:14:03Z</time>
      </trkpt>
      <trkpt lat="48.742" lon="6.29944">
        <ele>216</ele>
        <time>2021-07-30T09:14:05Z</time>
      </trkpt>
      <trkpt lat="48.74201" lon="6.29959">
        <ele>216.1</ele>
        <time>2021-07-30T09:14:07Z</time>
      </trkpt>
      <trkpt lat="48.74201" lon="6.29973">
        <ele>216.1</ele>
        <time>2021-07-30T09:14:09Z</time>
      </trkpt>
      <trkpt lat="48.74201" lon="6.2998">
        <ele>216.1</ele>
        <time>2021-07-30T09:14:10Z</time>
      </trkpt>
      <trkpt lat="48.74202" lon="6.29987">
        <ele>216.1</ele>
        <time>2021-07-30T09:14:11Z</time>
      </trkpt>
      <trkpt lat="48.74201" lon="6.30004">
        <ele>216.2</ele>
        <time>2021-07-30T09:14:13Z</time>
      </trkpt>
      <trkpt lat="48.74201" lon="6.30017">
        <ele>216.2</ele>
        <time>2021-07-30T09:14:15Z</time>
      </trkpt>
      <trkpt lat="48.74201" lon="6.3003">
        <ele>216.2</ele>
        <time>2021-07-30T09:14:17Z</time>
      </trkpt>
      <trkpt lat="48.74201" lon="6.30046">
        <ele>216.3</ele>
        <time>2021-07-30T09:14:19Z</time>
      </trkpt>
      <trkpt lat="48.74201" lon="6.30061">
        <ele>216.3</ele>
        <time>2021-07-30T09:14:21Z</time>
      </trkpt>
      <trkpt lat="48.742" lon="6.30076">
        <ele>216.4</ele>
        <time>2021-07-30T09:14:23Z</time>
      </trkpt>
      <trkpt lat="48.742" lon="6.30084">
        <ele>216.4</ele>
        <time>2021-07-30T09:14:24Z</time>
      </trkpt>
      <trkpt lat="48.742" lon="6.30092">
        <ele>216.4</ele>
        <time>2021-07-30T09:14:25Z</time>
      </trkpt>
      <trkpt lat="48.74199" lon="6.30106">
        <ele>216.5</ele>
        <time>2021-07-30T09:14:27Z</time>
      </trkpt>
      <trkpt lat="48.74199" lon="6.30112">
        <ele>216.5</ele>
        <time>2021-07-30T09:14:28Z</time>
      </trkpt>
      <trkpt lat="48.74197" lon="6.30128">
        <ele>216.5</ele>
        <time>2021-07-30T09:14:30Z</time>
      </trkpt>
      <trkpt lat="48.74197" lon="6.30143">
        <ele>216.5</ele>
        <time>2021-07-30T09:14:32Z</time>
      </trkpt>
      <trkpt lat="48.74197" lon="6.30157">
        <ele>216.5</ele>
        <time>2021-07-30T09:14:34Z</time>
      </trkpt>
      <trkpt lat="48.74196" lon="6.30169">
        <ele>216.5</ele>
        <time>2021-07-30T09:14:36Z</time>
      </trkpt>
      <trkpt lat="48.74195" lon="6.30176">
        <ele>216.5</ele>
        <time>2021-07-30T09:14:37Z</time>
      </trkpt>
      <trkpt lat="48.74193" lon="6.30187">
        <ele>216.5</ele>
        <time>2021-07-30T09:14:39Z</time>
      </trkpt>
      <trkpt lat="48.74192" lon="6.30195">
        <ele>216.5</ele>
        <time>2021-07-30T09:14:40Z</time>
      </trkpt>
      <trkpt lat="48.74192" lon="6.30203">
        <ele>216.5</ele>
        <time>2021-07-30T09:14:41Z</time>
      </trkpt>
      <trkpt lat="48.7419" lon="6.30217">
        <ele>216.5</ele>
        <time>2021-07-30T09:14:43Z</time>
      </trkpt>
      <trkpt lat="48.74187" lon="6.30231">
        <ele>216.5</ele>
        <time>2021-07-30T09:14:45Z</time>
      </trkpt>
      <trkpt lat="48.74186" lon="6.30238">
        <ele>216.5</ele>
        <time>2021-07-30T09:14:46Z</time>
      </trkpt>
      <trkpt lat="48.74185" lon="6.30246">
        <ele>216.5</ele>
        <time>2021-07-30T09:14:47Z</time>
      </trkpt>
      <trkpt lat="48.74183" lon="6.30259">
        <ele>216.5</ele>
        <time>2021-07-30T09:14:49Z</time>
      </trkpt>
      <trkpt lat="48.74182" lon="6.30265">
        <ele>216.6</ele>
        <time>2021-07-30T09:14:50Z</time>
      </trkpt>
      <trkpt lat="48.74181" lon="6.30272">
        <ele>216.6</ele>
        <time>2021-07-30T09:14:51Z</time>
      </trkpt>
      <trkpt lat="48.74179" lon="6.30279">
        <ele>216.6</ele>
        <time>2021-07-30T09:14:52Z</time>
      </trkpt>
      <trkpt lat="48.74176" lon="6.30294">
        <ele>216.7</ele>
        <time>2021-07-30T09:14:54Z</time>
      </trkpt>
      <trkpt lat="48.74174" lon="6.303">
        <ele>216.7</ele>
        <time>2021-07-30T09:14:55Z</time>
      </trkpt>
      <trkpt lat="48.74171" lon="6.30312">
        <ele>216.7</ele>
        <time>2021-07-30T09:14:57Z</time>
      </trkpt>
      <trkpt lat="48.74169" lon="6.30316">
        <ele>216.7</ele>
        <time>2021-07-30T09:14:58Z</time>
      </trkpt>
      <trkpt lat="48.74169" lon="6.30322">
        <ele>216.8</ele>
        <time>2021-07-30T09:15:00Z</time>
      </trkpt>
      <trkpt lat="48.74166" lon="6.30335">
        <ele>216.8</ele>
        <time>2021-07-30T09:15:01Z</time>
      </trkpt>
      <trkpt lat="48.74164" lon="6.30348">
        <ele>216.8</ele>
        <time>2021-07-30T09:15:03Z</time>
      </trkpt>
      <trkpt lat="48.74163" lon="6.30354">
        <ele>216.8</ele>
        <time>2021-07-30T09:15:04Z</time>
      </trkpt>
      <trkpt lat="48.74161" lon="6.30359">
        <ele>216.8</ele>
        <time>2021-07-30T09:15:05Z</time>
      </trkpt>
      <trkpt lat="48.7416" lon="6.30367">
        <ele>216.8</ele>
        <time>2021-07-30T09:15:07Z</time>
      </trkpt>
      <trkpt lat="48.74158" lon="6.30373">
        <ele>216.9</ele>
        <time>2021-07-30T09:15:08Z</time>
      </trkpt>
      <trkpt lat="48.74155" lon="6.30385">
        <ele>216.9</ele>
        <time>2021-07-30T09:15:09Z</time>
      </trkpt>
      <trkpt lat="48.74156" lon="6.30395">
        <ele>216.9</ele>
        <time>2021-07-30T09:15:11Z</time>
      </trkpt>
      <trkpt lat="48.74152" lon="6.30401">
        <ele>217</ele>
        <time>2021-07-30T09:15:13Z</time>
      </trkpt>
      <trkpt lat="48.74144" lon="6.30414">
        <ele>217</ele>
        <time>2021-07-30T09:15:14Z</time>
      </trkpt>
      <trkpt lat="48.74141" lon="6.3042">
        <ele>217</ele>
        <time>2021-07-30T09:15:16Z</time>
      </trkpt>
      <trkpt lat="48.74138" lon="6.30425">
        <ele>217.1</ele>
        <time>2021-07-30T09:15:17Z</time>
      </trkpt>
      <trkpt lat="48.74135" lon="6.30432">
        <ele>217.1</ele>
        <time>2021-07-30T09:15:18Z</time>
      </trkpt>
      <trkpt lat="48.74133" lon="6.30438">
        <ele>217.1</ele>
        <time>2021-07-30T09:15:19Z</time>
      </trkpt>
      <trkpt lat="48.7413" lon="6.30444">
        <ele>217.1</ele>
        <time>2021-07-30T09:15:20Z</time>
      </trkpt>
      <trkpt lat="48.74127" lon="6.3045">
        <ele>217.2</ele>
        <time>2021-07-30T09:15:21Z</time>
      </trkpt>
      <trkpt lat="48.74123" lon="6.30459">
        <ele>217.2</ele>
        <time>2021-07-30T09:15:23Z</time>
      </trkpt>
      <trkpt lat="48.7412" lon="6.30466">
        <ele>217.2</ele>
        <time>2021-07-30T09:15:25Z</time>
      </trkpt>
      <trkpt lat="48.74118" lon="6.30472">
        <ele>217.3</ele>
        <time>2021-07-30T09:15:26Z</time>
      </trkpt>
      <trkpt lat="48.74116" lon="6.30479">
        <ele>217.3</ele>
        <time>2021-07-30T09:15:27Z</time>
      </trkpt>
      <trkpt lat="48.74114" lon="6.30485">
        <ele>217.3</ele>
        <time>2021-07-30T09:15:28Z</time>
      </trkpt>
      <trkpt lat="48.74112" lon="6.30492">
        <ele>217.3</ele>
        <time>2021-07-30T09:15:29Z</time>
      </trkpt>
      <trkpt lat="48.7411" lon="6.30498">
        <ele>217.3</ele>
        <time>2021-07-30T09:15:30Z</time>
      </trkpt>
      <trkpt lat="48.74107" lon="6.30504">
        <ele>217.3</ele>
        <time>2021-07-30T09:15:32Z</time>
      </trkpt>
      <trkpt lat="48.74105" lon="6.30507">
        <ele>217.3</ele>
        <time>2021-07-30T09:15:33Z</time>
      </trkpt>
      <trkpt lat="48.74101" lon="6.30511">
        <ele>217.3</ele>
        <time>2021-07-30T09:15:34Z</time>
      </trkpt>
      <trkpt lat="48.74098" lon="6.30517">
        <ele>217.4</ele>
        <time>2021-07-30T09:15:35Z</time>
      </trkpt>
      <trkpt lat="48.74096" lon="6.30523">
        <ele>217.4</ele>
        <time>2021-07-30T09:15:36Z</time>
      </trkpt>
      <trkpt lat="48.74095" lon="6.3053">
        <ele>217.4</ele>
        <time>2021-07-30T09:15:37Z</time>
      </trkpt>
      <trkpt lat="48.74092" lon="6.30536">
        <ele>217.4</ele>
        <time>2021-07-30T09:15:38Z</time>
      </trkpt>
      <trkpt lat="48.7409" lon="6.30539">
        <ele>217.4</ele>
        <time>2021-07-30T09:15:39Z</time>
      </trkpt>
      <trkpt lat="48.74087" lon="6.30543">
        <ele>217.4</ele>
        <time>2021-07-30T09:15:40Z</time>
      </trkpt>
      <trkpt lat="48.74085" lon="6.30548">
        <ele>217.4</ele>
        <time>2021-07-30T09:15:41Z</time>
      </trkpt>
      <trkpt lat="48.74085" lon="6.30548">
        <ele>217.4</ele>
        <time>2021-07-30T09:15:42Z</time>
      </trkpt>
      <trkpt lat="48.74084" lon="6.30549">
        <ele>217.4</ele>
        <time>2021-07-30T09:15:43Z</time>
      </trkpt>
      <trkpt lat="48.74078" lon="6.30555">
        <ele>217.3</ele>
        <time>2021-07-30T09:15:45Z</time>
      </trkpt>
      <trkpt lat="48.74076" lon="6.30558">
        <ele>217.3</ele>
        <time>2021-07-30T09:15:46Z</time>
      </trkpt>
      <trkpt lat="48.74073" lon="6.30562">
        <ele>217.3</ele>
        <time>2021-07-30T09:15:48Z</time>
      </trkpt>
      <trkpt lat="48.74072" lon="6.30564">
        <ele>217.3</ele>
        <time>2021-07-30T09:15:49Z</time>
      </trkpt>
      <trkpt lat="48.74069" lon="6.30572">
        <ele>217.4</ele>
        <time>2021-07-30T09:15:50Z</time>
      </trkpt>
      <trkpt lat="48.74068" lon="6.30572">
        <ele>217.4</ele>
        <time>2021-07-30T09:15:51Z</time>
      </trkpt>
      <trkpt lat="48.74063" lon="6.3058">
        <ele>217.4</ele>
        <time>2021-07-30T09:15:53Z</time>
      </trkpt>
      <trkpt lat="48.74057" lon="6.30595">
        <ele>217.4</ele>
        <time>2021-07-30T09:15:54Z</time>
      </trkpt>
      <trkpt lat="48.74054" lon="6.30607">
        <ele>217.4</ele>
        <time>2021-07-30T09:15:56Z</time>
      </trkpt>
      <trkpt lat="48.7405" lon="6.30618">
        <ele>217.5</ele>
        <time>2021-07-30T09:15:57Z</time>
      </trkpt>
      <trkpt lat="48.74047" lon="6.30625">
        <ele>217.5</ele>
        <time>2021-07-30T09:15:58Z</time>
      </trkpt>
      <trkpt lat="48.74045" lon="6.30634">
        <ele>217.5</ele>
        <time>2021-07-30T09:15:59Z</time>
      </trkpt>
      <trkpt lat="48.74005" lon="6.30723">
        <ele>217.6</ele>
        <time>2021-07-30T09:16:15Z</time>
      </trkpt>
      <trkpt lat="48.74003" lon="6.30729">
        <ele>217.6</ele>
        <time>2021-07-30T09:16:16Z</time>
      </trkpt>
      <trkpt lat="48.74002" lon="6.30731">
        <ele>217.6</ele>
        <time>2021-07-30T09:16:17Z</time>
      </trkpt>
      <trkpt lat="48.74002" lon="6.30737">
        <ele>217.6</ele>
        <time>2021-07-30T09:16:19Z</time>
      </trkpt>
      <trkpt lat="48.74" lon="6.30746">
        <ele>217.7</ele>
        <time>2021-07-30T09:16:20Z</time>
      </trkpt>
      <trkpt lat="48.73997" lon="6.30755">
        <ele>217.7</ele>
        <time>2021-07-30T09:16:21Z</time>
      </trkpt>
      <trkpt lat="48.73994" lon="6.30764">
        <ele>217.7</ele>
        <time>2021-07-30T09:16:22Z</time>
      </trkpt>
      <trkpt lat="48.73992" lon="6.30773">
        <ele>217.7</ele>
        <time>2021-07-30T09:16:23Z</time>
      </trkpt>
      <trkpt lat="48.7399" lon="6.30781">
        <ele>217.7</ele>
        <time>2021-07-30T09:16:24Z</time>
      </trkpt>
      <trkpt lat="48.73989" lon="6.30788">
        <ele>217.8</ele>
        <time>2021-07-30T09:16:25Z</time>
      </trkpt>
      <trkpt lat="48.73987" lon="6.30794">
        <ele>217.8</ele>
        <time>2021-07-30T09:16:26Z</time>
      </trkpt>
      <trkpt lat="48.73985" lon="6.30799">
        <ele>217.8</ele>
        <time>2021-07-30T09:16:27Z</time>
      </trkpt>
      <trkpt lat="48.73982" lon="6.30804">
        <ele>217.8</ele>
        <time>2021-07-30T09:16:28Z</time>
      </trkpt>
      <trkpt lat="48.7398" lon="6.3081">
        <ele>217.9</ele>
        <time>2021-07-30T09:16:29Z</time>
      </trkpt>
      <trkpt lat="48.73978" lon="6.30816">
        <ele>217.9</ele>
        <time>2021-07-30T09:16:30Z</time>
      </trkpt>
      <trkpt lat="48.73976" lon="6.30822">
        <ele>217.9</ele>
        <time>2021-07-30T09:16:31Z</time>
      </trkpt>
      <trkpt lat="48.73974" lon="6.30828">
        <ele>217.9</ele>
        <time>2021-07-30T09:16:32Z</time>
      </trkpt>
      <trkpt lat="48.73972" lon="6.30833">
        <ele>218</ele>
        <time>2021-07-30T09:16:33Z</time>
      </trkpt>
      <trkpt lat="48.7397" lon="6.30838">
        <ele>218</ele>
        <time>2021-07-30T09:16:34Z</time>
      </trkpt>
      <trkpt lat="48.73968" lon="6.30842">
        <ele>218</ele>
        <time>2021-07-30T09:16:35Z</time>
      </trkpt>
      <trkpt lat="48.73965" lon="6.30846">
        <ele>218</ele>
        <time>2021-07-30T09:16:36Z</time>
      </trkpt>
      <trkpt lat="48.73963" lon="6.30851">
        <ele>218.1</ele>
        <time>2021-07-30T09:16:37Z</time>
      </trkpt>
      <trkpt lat="48.73961" lon="6.30856">
        <ele>218.1</ele>
        <time>2021-07-30T09:16:38Z</time>
      </trkpt>
      <trkpt lat="48.73961" lon="6.30858">
        <ele>218.1</ele>
        <time>2021-07-30T09:16:39Z</time>
      </trkpt>
      <trkpt lat="48.73961" lon="6.30859">
        <ele>218.1</ele>
        <time>2021-07-30T09:16:40Z</time>
      </trkpt>
      <trkpt lat="48.73957" lon="6.30865">
        <ele>218.2</ele>
        <time>2021-07-30T09:16:42Z</time>
      </trkpt>
      <trkpt lat="48.73955" lon="6.30869">
        <ele>218.2</ele>
        <time>2021-07-30T09:16:43Z</time>
      </trkpt>
      <trkpt lat="48.73954" lon="6.30873">
        <ele>218.3</ele>
        <time>2021-07-30T09:16:44Z</time>
      </trkpt>
      <trkpt lat="48.73953" lon="6.30877">
        <ele>218.3</ele>
        <time>2021-07-30T09:16:45Z</time>
      </trkpt>
      <trkpt lat="48.73952" lon="6.30882">
        <ele>218.3</ele>
        <time>2021-07-30T09:16:46Z</time>
      </trkpt>
      <trkpt lat="48.73951" lon="6.30884">
        <ele>218.3</ele>
        <time>2021-07-30T09:16:47Z</time>
      </trkpt>
      <trkpt lat="48.73952" lon="6.30885">
        <ele>218.3</ele>
        <time>2021-07-30T09:16:48Z</time>
      </trkpt>
      <trkpt lat="48.73952" lon="6.30887">
        <ele>218.4</ele>
        <time>2021-07-30T09:16:49Z</time>
      </trkpt>
      <trkpt lat="48.73952" lon="6.30889">
        <ele>218.4</ele>
        <time>2021-07-30T09:16:51Z</time>
      </trkpt>
      <trkpt lat="48.73957" lon="6.30918">
        <ele>218.6</ele>
        <time>2021-07-30T09:16:53Z</time>
      </trkpt>
      <trkpt lat="48.7396" lon="6.30921">
        <ele>218.6</ele>
        <time>2021-07-30T09:16:54Z</time>
      </trkpt>
      <trkpt lat="48.7396" lon="6.30929">
        <ele>218.6</ele>
        <time>2021-07-30T09:16:55Z</time>
      </trkpt>
      <trkpt lat="48.73958" lon="6.3095">
        <ele>218.8</ele>
        <time>2021-07-30T09:16:57Z</time>
      </trkpt>
      <trkpt lat="48.73957" lon="6.3096">
        <ele>218.8</ele>
        <time>2021-07-30T09:16:58Z</time>
      </trkpt>
      <trkpt lat="48.73956" lon="6.30971">
        <ele>218.9</ele>
        <time>2021-07-30T09:17:00Z</time>
      </trkpt>
      <trkpt lat="48.73955" lon="6.30979">
        <ele>219</ele>
        <time>2021-07-30T09:17:01Z</time>
      </trkpt>
      <trkpt lat="48.73954" lon="6.30985">
        <ele>219.1</ele>
        <time>2021-07-30T09:17:02Z</time>
      </trkpt>
      <trkpt lat="48.73953" lon="6.3099">
        <ele>219.1</ele>
        <time>2021-07-30T09:17:03Z</time>
      </trkpt>
      <trkpt lat="48.73951" lon="6.30993">
        <ele>219.2</ele>
        <time>2021-07-30T09:17:04Z</time>
      </trkpt>
      <trkpt lat="48.73949" lon="6.30998">
        <ele>219.2</ele>
        <time>2021-07-30T09:17:05Z</time>
      </trkpt>
      <trkpt lat="48.73945" lon="6.31007">
        <ele>219.4</ele>
        <time>2021-07-30T09:17:07Z</time>
      </trkpt>
      <trkpt lat="48.73943" lon="6.31012">
        <ele>219.4</ele>
        <time>2021-07-30T09:17:08Z</time>
      </trkpt>
      <trkpt lat="48.73942" lon="6.31021">
        <ele>219.6</ele>
        <time>2021-07-30T09:17:10Z</time>
      </trkpt>
      <trkpt lat="48.73942" lon="6.31029">
        <ele>219.6</ele>
        <time>2021-07-30T09:17:11Z</time>
      </trkpt>
      <trkpt lat="48.73944" lon="6.31044">
        <ele>219.8</ele>
        <time>2021-07-30T09:17:12Z</time>
      </trkpt>
      <trkpt lat="48.73947" lon="6.31049">
        <ele>219.9</ele>
        <time>2021-07-30T09:17:13Z</time>
      </trkpt>
      <trkpt lat="48.73949" lon="6.31052">
        <ele>220</ele>
        <time>2021-07-30T09:17:15Z</time>
      </trkpt>
      <trkpt lat="48.73949" lon="6.31054">
        <ele>220</ele>
        <time>2021-07-30T09:17:16Z</time>
      </trkpt>
      <trkpt lat="48.73951" lon="6.31057">
        <ele>220</ele>
        <time>2021-07-30T09:17:17Z</time>
      </trkpt>
      <trkpt lat="48.73951" lon="6.31059">
        <ele>220.1</ele>
        <time>2021-07-30T09:17:19Z</time>
      </trkpt>
      <trkpt lat="48.73952" lon="6.31062">
        <ele>220.1</ele>
        <time>2021-07-30T09:17:20Z</time>
      </trkpt>
      <trkpt lat="48.73953" lon="6.31064">
        <ele>220.1</ele>
        <time>2021-07-30T09:17:21Z</time>
      </trkpt>
      <trkpt lat="48.73954" lon="6.31067">
        <ele>220.2</ele>
        <time>2021-07-30T09:17:22Z</time>
      </trkpt>
      <trkpt lat="48.73955" lon="6.31071">
        <ele>220.3</ele>
        <time>2021-07-30T09:17:24Z</time>
      </trkpt>
      <trkpt lat="48.73957" lon="6.31079">
        <ele>220.4</ele>
        <time>2021-07-30T09:17:25Z</time>
      </trkpt>
      <trkpt lat="48.73958" lon="6.31087">
        <ele>220.5</ele>
        <time>2021-07-30T09:17:26Z</time>
      </trkpt>
      <trkpt lat="48.73959" lon="6.31101">
        <ele>220.7</ele>
        <time>2021-07-30T09:17:28Z</time>
      </trkpt>
      <trkpt lat="48.7396" lon="6.31108">
        <ele>220.8</ele>
        <time>2021-07-30T09:17:29Z</time>
      </trkpt>
      <trkpt lat="48.73961" lon="6.31118">
        <ele>220.9</ele>
        <time>2021-07-30T09:17:31Z</time>
      </trkpt>
      <trkpt lat="48.73962" lon="6.31129">
        <ele>221.1</ele>
        <time>2021-07-30T09:17:32Z</time>
      </trkpt>
      <trkpt lat="48.73963" lon="6.31137">
        <ele>221.2</ele>
        <time>2021-07-30T09:17:33Z</time>
      </trkpt>
      <trkpt lat="48.73965" lon="6.31148">
        <ele>221.3</ele>
        <time>2021-07-30T09:17:35Z</time>
      </trkpt>
      <trkpt lat="48.73967" lon="6.31153">
        <ele>221.4</ele>
        <time>2021-07-30T09:17:36Z</time>
      </trkpt>
      <trkpt lat="48.73969" lon="6.31157">
        <ele>221.4</ele>
        <time>2021-07-30T09:17:37Z</time>
      </trkpt>
      <trkpt lat="48.73972" lon="6.31166">
        <ele>221.5</ele>
        <time>2021-07-30T09:17:39Z</time>
      </trkpt>
      <trkpt lat="48.73974" lon="6.31174">
        <ele>221.6</ele>
        <time>2021-07-30T09:17:40Z</time>
      </trkpt>
      <trkpt lat="48.73976" lon="6.3118">
        <ele>221.6</ele>
        <time>2021-07-30T09:17:41Z</time>
      </trkpt>
      <trkpt lat="48.73978" lon="6.31189">
        <ele>221.7</ele>
        <time>2021-07-30T09:17:43Z</time>
      </trkpt>
      <trkpt lat="48.7398" lon="6.31196">
        <ele>221.7</ele>
        <time>2021-07-30T09:17:44Z</time>
      </trkpt>
      <trkpt lat="48.73982" lon="6.31202">
        <ele>221.8</ele>
        <time>2021-07-30T09:17:45Z</time>
      </trkpt>
      <trkpt lat="48.73983" lon="6.31209">
        <ele>221.8</ele>
        <time>2021-07-30T09:17:47Z</time>
      </trkpt>
      <trkpt lat="48.73984" lon="6.31215">
        <ele>221.8</ele>
        <time>2021-07-30T09:17:48Z</time>
      </trkpt>
      <trkpt lat="48.73985" lon="6.3122">
        <ele>221.9</ele>
        <time>2021-07-30T09:17:49Z</time>
      </trkpt>
      <trkpt lat="48.73987" lon="6.31225">
        <ele>221.9</ele>
        <time>2021-07-30T09:17:50Z</time>
      </trkpt>
      <trkpt lat="48.73988" lon="6.31231">
        <ele>221.9</ele>
        <time>2021-07-30T09:17:51Z</time>
      </trkpt>
      <trkpt lat="48.7399" lon="6.31236">
        <ele>221.9</ele>
        <time>2021-07-30T09:17:52Z</time>
      </trkpt>
      <trkpt lat="48.73993" lon="6.31248">
        <ele>221.9</ele>
        <time>2021-07-30T09:17:54Z</time>
      </trkpt>
      <trkpt lat="48.73994" lon="6.31254">
        <ele>222</ele>
        <time>2021-07-30T09:17:55Z</time>
      </trkpt>
      <trkpt lat="48.73996" lon="6.31259">
        <ele>222</ele>
        <time>2021-07-30T09:17:57Z</time>
      </trkpt>
      <trkpt lat="48.73999" lon="6.31265">
        <ele>222</ele>
        <time>2021-07-30T09:17:58Z</time>
      </trkpt>
      <trkpt lat="48.74001" lon="6.31272">
        <ele>222</ele>
        <time>2021-07-30T09:17:59Z</time>
      </trkpt>
      <trkpt lat="48.74002" lon="6.31278">
        <ele>222.1</ele>
        <time>2021-07-30T09:18:01Z</time>
      </trkpt>
      <trkpt lat="48.74003" lon="6.31284">
        <ele>222.1</ele>
        <time>2021-07-30T09:18:02Z</time>
      </trkpt>
      <trkpt lat="48.74004" lon="6.3129">
        <ele>222.1</ele>
        <time>2021-07-30T09:18:03Z</time>
      </trkpt>
      <trkpt lat="48.74005" lon="6.31296">
        <ele>222.1</ele>
        <time>2021-07-30T09:18:04Z</time>
      </trkpt>
      <trkpt lat="48.74007" lon="6.31301">
        <ele>222.2</ele>
        <time>2021-07-30T09:18:05Z</time>
      </trkpt>
      <trkpt lat="48.74008" lon="6.31306">
        <ele>222.2</ele>
        <time>2021-07-30T09:18:06Z</time>
      </trkpt>
      <trkpt lat="48.7401" lon="6.31313">
        <ele>222.2</ele>
        <time>2021-07-30T09:18:08Z</time>
      </trkpt>
      <trkpt lat="48.74011" lon="6.31318">
        <ele>222.3</ele>
        <time>2021-07-30T09:18:09Z</time>
      </trkpt>
      <trkpt lat="48.74013" lon="6.31324">
        <ele>222.3</ele>
        <time>2021-07-30T09:18:10Z</time>
      </trkpt>
      <trkpt lat="48.74015" lon="6.31329">
        <ele>222.3</ele>
        <time>2021-07-30T09:18:11Z</time>
      </trkpt>
      <trkpt lat="48.74018" lon="6.31335">
        <ele>222.4</ele>
        <time>2021-07-30T09:18:12Z</time>
      </trkpt>
      <trkpt lat="48.7402" lon="6.31341">
        <ele>222.4</ele>
        <time>2021-07-30T09:18:13Z</time>
      </trkpt>
      <trkpt lat="48.74023" lon="6.3135">
        <ele>222.5</ele>
        <time>2021-07-30T09:18:15Z</time>
      </trkpt>
      <trkpt lat="48.74025" lon="6.31355">
        <ele>222.5</ele>
        <time>2021-07-30T09:18:16Z</time>
      </trkpt>
      <trkpt lat="48.74027" lon="6.31359">
        <ele>222.5</ele>
        <time>2021-07-30T09:18:17Z</time>
      </trkpt>
      <trkpt lat="48.74029" lon="6.31365">
        <ele>222.6</ele>
        <time>2021-07-30T09:18:19Z</time>
      </trkpt>
      <trkpt lat="48.74032" lon="6.31371">
        <ele>222.6</ele>
        <time>2021-07-30T09:18:20Z</time>
      </trkpt>
      <trkpt lat="48.74034" lon="6.31377">
        <ele>222.7</ele>
        <time>2021-07-30T09:18:22Z</time>
      </trkpt>
      <trkpt lat="48.74036" lon="6.31382">
        <ele>222.7</ele>
        <time>2021-07-30T09:18:23Z</time>
      </trkpt>
      <trkpt lat="48.74038" lon="6.31387">
        <ele>222.7</ele>
        <time>2021-07-30T09:18:24Z</time>
      </trkpt>
      <trkpt lat="48.74039" lon="6.31392">
        <ele>222.8</ele>
        <time>2021-07-30T09:18:25Z</time>
      </trkpt>
      <trkpt lat="48.74041" lon="6.31396">
        <ele>222.8</ele>
        <time>2021-07-30T09:18:26Z</time>
      </trkpt>
      <trkpt lat="48.74042" lon="6.31401">
        <ele>222.8</ele>
        <time>2021-07-30T09:18:27Z</time>
      </trkpt>
      <trkpt lat="48.74045" lon="6.3141">
        <ele>222.9</ele>
        <time>2021-07-30T09:18:29Z</time>
      </trkpt>
      <trkpt lat="48.74046" lon="6.31414">
        <ele>223</ele>
        <time>2021-07-30T09:18:30Z</time>
      </trkpt>
      <trkpt lat="48.7405" lon="6.31419">
        <ele>223</ele>
        <time>2021-07-30T09:18:32Z</time>
      </trkpt>
      <trkpt lat="48.74053" lon="6.31423">
        <ele>223.1</ele>
        <time>2021-07-30T09:18:33Z</time>
      </trkpt>
      <trkpt lat="48.74056" lon="6.31428">
        <ele>223.1</ele>
        <time>2021-07-30T09:18:34Z</time>
      </trkpt>
      <trkpt lat="48.74059" lon="6.31434">
        <ele>223.2</ele>
        <time>2021-07-30T09:18:35Z</time>
      </trkpt>
      <trkpt lat="48.74062" lon="6.31444">
        <ele>223.2</ele>
        <time>2021-07-30T09:18:37Z</time>
      </trkpt>
      <trkpt lat="48.74064" lon="6.31449">
        <ele>223.3</ele>
        <time>2021-07-30T09:18:38Z</time>
      </trkpt>
      <trkpt lat="48.74066" lon="6.31454">
        <ele>223.3</ele>
        <time>2021-07-30T09:18:39Z</time>
      </trkpt>
      <trkpt lat="48.74069" lon="6.31459">
        <ele>223.4</ele>
        <time>2021-07-30T09:18:41Z</time>
      </trkpt>
      <trkpt lat="48.7407" lon="6.31461">
        <ele>223.4</ele>
        <time>2021-07-30T09:18:42Z</time>
      </trkpt>
      <trkpt lat="48.74071" lon="6.31463">
        <ele>223.4</ele>
        <time>2021-07-30T09:18:43Z</time>
      </trkpt>
      <trkpt lat="48.74074" lon="6.31469">
        <ele>223.5</ele>
        <time>2021-07-30T09:18:44Z</time>
      </trkpt>
      <trkpt lat="48.74075" lon="6.31472">
        <ele>223.6</ele>
        <time>2021-07-30T09:18:45Z</time>
      </trkpt>
      <trkpt lat="48.74077" lon="6.31476">
        <ele>223.6</ele>
        <time>2021-07-30T09:18:46Z</time>
      </trkpt>
      <trkpt lat="48.74078" lon="6.31477">
        <ele>223.6</ele>
        <time>2021-07-30T09:18:47Z</time>
      </trkpt>
      <trkpt lat="48.7408" lon="6.3148">
        <ele>223.7</ele>
        <time>2021-07-30T09:18:48Z</time>
      </trkpt>
      <trkpt lat="48.74083" lon="6.31484">
        <ele>223.7</ele>
        <time>2021-07-30T09:18:49Z</time>
      </trkpt>
      <trkpt lat="48.7409" lon="6.31492">
        <ele>223.9</ele>
        <time>2021-07-30T09:18:51Z</time>
      </trkpt>
      <trkpt lat="48.74092" lon="6.31495">
        <ele>224</ele>
        <time>2021-07-30T09:18:52Z</time>
      </trkpt>
      <trkpt lat="48.74096" lon="6.31504">
        <ele>224.1</ele>
        <time>2021-07-30T09:18:54Z</time>
      </trkpt>
      <trkpt lat="48.74098" lon="6.3151">
        <ele>224.2</ele>
        <time>2021-07-30T09:18:55Z</time>
      </trkpt>
      <trkpt lat="48.74101" lon="6.31515">
        <ele>224.3</ele>
        <time>2021-07-30T09:18:56Z</time>
      </trkpt>
      <trkpt lat="48.74104" lon="6.31522">
        <ele>224.4</ele>
        <time>2021-07-30T09:18:58Z</time>
      </trkpt>
      <trkpt lat="48.74106" lon="6.31525">
        <ele>224.5</ele>
        <time>2021-07-30T09:18:59Z</time>
      </trkpt>
      <trkpt lat="48.74107" lon="6.31527">
        <ele>224.5</ele>
        <time>2021-07-30T09:19:00Z</time>
      </trkpt>
      <trkpt lat="48.74108" lon="6.31529">
        <ele>224.5</ele>
        <time>2021-07-30T09:19:01Z</time>
      </trkpt>
      <trkpt lat="48.74112" lon="6.31535">
        <ele>224.7</ele>
        <time>2021-07-30T09:19:03Z</time>
      </trkpt>
      <trkpt lat="48.74115" lon="6.31537">
        <ele>224.8</ele>
        <time>2021-07-30T09:19:04Z</time>
      </trkpt>
      <trkpt lat="48.74117" lon="6.31538">
        <ele>224.8</ele>
        <time>2021-07-30T09:19:05Z</time>
      </trkpt>
      <trkpt lat="48.74122" lon="6.31544">
        <ele>224.9</ele>
        <time>2021-07-30T09:19:07Z</time>
      </trkpt>
      <trkpt lat="48.74127" lon="6.31549">
        <ele>224.9</ele>
        <time>2021-07-30T09:19:08Z</time>
      </trkpt>
      <trkpt lat="48.74133" lon="6.31556">
        <ele>225</ele>
        <time>2021-07-30T09:19:10Z</time>
      </trkpt>
      <trkpt lat="48.74136" lon="6.31559">
        <ele>225.1</ele>
        <time>2021-07-30T09:19:11Z</time>
      </trkpt>
      <trkpt lat="48.74142" lon="6.31566">
        <ele>225.1</ele>
        <time>2021-07-30T09:19:13Z</time>
      </trkpt>
      <trkpt lat="48.74148" lon="6.31575">
        <ele>225.2</ele>
        <time>2021-07-30T09:19:15Z</time>
      </trkpt>
      <trkpt lat="48.74152" lon="6.31579">
        <ele>225.2</ele>
        <time>2021-07-30T09:19:17Z</time>
      </trkpt>
      <trkpt lat="48.74155" lon="6.31582">
        <ele>225.2</ele>
        <time>2021-07-30T09:19:18Z</time>
      </trkpt>
      <trkpt lat="48.74158" lon="6.31584">
        <ele>225.2</ele>
        <time>2021-07-30T09:19:19Z</time>
      </trkpt>
      <trkpt lat="48.74159" lon="6.31585">
        <ele>225.2</ele>
        <time>2021-07-30T09:19:20Z</time>
      </trkpt>
      <trkpt lat="48.74161" lon="6.31587">
        <ele>225.2</ele>
        <time>2021-07-30T09:19:21Z</time>
      </trkpt>
      <trkpt lat="48.74164" lon="6.3159">
        <ele>225.3</ele>
        <time>2021-07-30T09:19:22Z</time>
      </trkpt>
      <trkpt lat="48.74168" lon="6.31595">
        <ele>225.3</ele>
        <time>2021-07-30T09:19:24Z</time>
      </trkpt>
      <trkpt lat="48.7417" lon="6.31598">
        <ele>225.3</ele>
        <time>2021-07-30T09:19:25Z</time>
      </trkpt>
      <trkpt lat="48.74173" lon="6.31603">
        <ele>225.3</ele>
        <time>2021-07-30T09:19:27Z</time>
      </trkpt>
      <trkpt lat="48.74174" lon="6.31605">
        <ele>225.3</ele>
        <time>2021-07-30T09:19:28Z</time>
      </trkpt>
      <trkpt lat="48.74175" lon="6.31607">
        <ele>225.3</ele>
        <time>2021-07-30T09:19:29Z</time>
      </trkpt>
      <trkpt lat="48.74175" lon="6.31608">
        <ele>225.3</ele>
        <time>2021-07-30T09:19:30Z</time>
      </trkpt>
      <trkpt lat="48.74177" lon="6.31612">
        <ele>225.3</ele>
        <time>2021-07-30T09:19:32Z</time>
      </trkpt>
      <trkpt lat="48.74179" lon="6.31615">
        <ele>225.3</ele>
        <time>2021-07-30T09:19:33Z</time>
      </trkpt>
      <trkpt lat="48.74182" lon="6.3162">
        <ele>225.3</ele>
        <time>2021-07-30T09:19:35Z</time>
      </trkpt>
      <trkpt lat="48.75518" lon="6.3298">
        <ele>236.5</ele>
        <time>2021-07-30T09:26:18Z</time>
      </trkpt>
      <trkpt lat="48.75523" lon="6.33">
        <ele>236.4</ele>
        <time>2021-07-30T09:26:19Z</time>
      </trkpt>
      <trkpt lat="48.75527" lon="6.33015">
        <ele>236.2</ele>
        <time>2021-07-30T09:26:21Z</time>
      </trkpt>
      <trkpt lat="48.7553" lon="6.33021">
        <ele>236.2</ele>
        <time>2021-07-30T09:26:22Z</time>
      </trkpt>
      <trkpt lat="48.75533" lon="6.33027">
        <ele>236.1</ele>
        <time>2021-07-30T09:26:23Z</time>
      </trkpt>
      <trkpt lat="48.75536" lon="6.33033">
        <ele>236.1</ele>
        <time>2021-07-30T09:26:24Z</time>
      </trkpt>
      <trkpt lat="48.75539" lon="6.33039">
        <ele>236</ele>
        <time>2021-07-30T09:26:25Z</time>
      </trkpt>
      <trkpt lat="48.75542" lon="6.33044">
        <ele>236</ele>
        <time>2021-07-30T09:26:26Z</time>
      </trkpt>
      <trkpt lat="48.75547" lon="6.33056">
        <ele>235.9</ele>
        <time>2021-07-30T09:26:28Z</time>
      </trkpt>
      <trkpt lat="48.7555" lon="6.33062">
        <ele>235.8</ele>
        <time>2021-07-30T09:26:29Z</time>
      </trkpt>
      <trkpt lat="48.75555" lon="6.33074">
        <ele>235.7</ele>
        <time>2021-07-30T09:26:31Z</time>
      </trkpt>
      <trkpt lat="48.75557" lon="6.33081">
        <ele>235.6</ele>
        <time>2021-07-30T09:26:32Z</time>
      </trkpt>
      <trkpt lat="48.75564" lon="6.3309">
        <ele>235.5</ele>
        <time>2021-07-30T09:26:34Z</time>
      </trkpt>
      <trkpt lat="48.75568" lon="6.33096">
        <ele>235.5</ele>
        <time>2021-07-30T09:26:35Z</time>
      </trkpt>
      <trkpt lat="48.75571" lon="6.33101">
        <ele>235.4</ele>
        <time>2021-07-30T09:26:36Z</time>
      </trkpt>
      <trkpt lat="48.75574" lon="6.33106">
        <ele>235.4</ele>
        <time>2021-07-30T09:26:37Z</time>
      </trkpt>
      <trkpt lat="48.75575" lon="6.33114">
        <ele>235.3</ele>
        <time>2021-07-30T09:26:38Z</time>
      </trkpt>
      <trkpt lat="48.75578" lon="6.33131">
        <ele>235.3</ele>
        <time>2021-07-30T09:26:40Z</time>
      </trkpt>
      <trkpt lat="48.7558" lon="6.33141">
        <ele>235.2</ele>
        <time>2021-07-30T09:26:41Z</time>
      </trkpt>
      <trkpt lat="48.75585" lon="6.33154">
        <ele>235.2</ele>
        <time>2021-07-30T09:26:43Z</time>
      </trkpt>
      <trkpt lat="48.75591" lon="6.33165">
        <ele>235.1</ele>
        <time>2021-07-30T09:26:45Z</time>
      </trkpt>
      <trkpt lat="48.75598" lon="6.33176">
        <ele>234.9</ele>
        <time>2021-07-30T09:26:47Z</time>
      </trkpt>
      <trkpt lat="48.75605" lon="6.33186">
        <ele>234.7</ele>
        <time>2021-07-30T09:26:49Z</time>
      </trkpt>
      <trkpt lat="48.75612" lon="6.33194">
        <ele>234.5</ele>
        <time>2021-07-30T09:26:51Z</time>
      </trkpt>
      <trkpt lat="48.75615" lon="6.332">
        <ele>234.4</ele>
        <time>2021-07-30T09:26:52Z</time>
      </trkpt>
      <trkpt lat="48.75619" lon="6.33204">
        <ele>234.3</ele>
        <time>2021-07-30T09:26:53Z</time>
      </trkpt>
      <trkpt lat="48.75622" lon="6.33208">
        <ele>234.2</ele>
        <time>2021-07-30T09:26:54Z</time>
      </trkpt>
      <trkpt lat="48.75627" lon="6.33213">
        <ele>234.1</ele>
        <time>2021-07-30T09:26:55Z</time>
      </trkpt>
      <trkpt lat="48.75639" lon="6.33223">
        <ele>233.9</ele>
        <time>2021-07-30T09:26:57Z</time>
      </trkpt>
      <trkpt lat="48.75643" lon="6.33229">
        <ele>233.8</ele>
        <time>2021-07-30T09:26:58Z</time>
      </trkpt>
      <trkpt lat="48.75647" lon="6.33236">
        <ele>233.7</ele>
        <time>2021-07-30T09:26:59Z</time>
      </trkpt>
      <trkpt lat="48.75654" lon="6.33252">
        <ele>233.6</ele>
        <time>2021-07-30T09:27:01Z</time>
      </trkpt>
      <trkpt lat="48.7566" lon="6.33268">
        <ele>233.4</ele>
        <time>2021-07-30T09:27:03Z</time>
      </trkpt>
      <trkpt lat="48.75667" lon="6.33282">
        <ele>233.3</ele>
        <time>2021-07-30T09:27:05Z</time>
      </trkpt>
      <trkpt lat="48.75671" lon="6.3329">
        <ele>233.2</ele>
        <time>2021-07-30T09:27:07Z</time>
      </trkpt>
      <trkpt lat="48.75678" lon="6.33303">
        <ele>233.1</ele>
        <time>2021-07-30T09:27:09Z</time>
      </trkpt>
      <trkpt lat="48.75684" lon="6.33315">
        <ele>233</ele>
        <time>2021-07-30T09:27:11Z</time>
      </trkpt>
      <trkpt lat="48.75687" lon="6.33324">
        <ele>232.9</ele>
        <time>2021-07-30T09:27:12Z</time>
      </trkpt>
      <trkpt lat="48.7569" lon="6.33331">
        <ele>232.8</ele>
        <time>2021-07-30T09:27:13Z</time>
      </trkpt>
      <trkpt lat="48.7569" lon="6.33331">
        <ele>232.8</ele>
        <time>2021-07-30T09:27:13Z</time>
      </trkpt>
      <trkpt lat="48.757" lon="6.33352">
        <ele>232.5</ele>
        <time>2021-07-30T09:27:15Z</time>
      </trkpt>
      <trkpt lat="48.75705" lon="6.3336">
        <ele>232.4</ele>
        <time>2021-07-30T09:27:16Z</time>
      </trkpt>
      <trkpt lat="48.75707" lon="6.33366">
        <ele>232.3</ele>
        <time>2021-07-30T09:27:17Z</time>
      </trkpt>
      <trkpt lat="48.75708" lon="6.33369">
        <ele>232.2</ele>
        <time>2021-07-30T09:27:18Z</time>
      </trkpt>
      <trkpt lat="48.75711" lon="6.33375">
        <ele>232.1</ele>
        <time>2021-07-30T09:27:20Z</time>
      </trkpt>
      <trkpt lat="48.75715" lon="6.33384">
        <ele>232</ele>
        <time>2021-07-30T09:27:22Z</time>
      </trkpt>
      <trkpt lat="48.75724" lon="6.33403">
        <ele>231.7</ele>
        <time>2021-07-30T09:27:24Z</time>
      </trkpt>
      <trkpt lat="48.75732" lon="6.33418">
        <ele>231.4</ele>
        <time>2021-07-30T09:27:26Z</time>
      </trkpt>
      <trkpt lat="48.75763" lon="6.3348">
        <ele>230.6</ele>
        <time>2021-07-30T09:27:32Z</time>
      </trkpt>
      <trkpt lat="48.75771" lon="6.33494">
        <ele>230.4</ele>
        <time>2021-07-30T09:27:33Z</time>
      </trkpt>
      <trkpt lat="48.75774" lon="6.335">
        <ele>230.3</ele>
        <time>2021-07-30T09:27:34Z</time>
      </trkpt>
      <trkpt lat="48.75779" lon="6.33511">
        <ele>230.2</ele>
        <time>2021-07-30T09:27:35Z</time>
      </trkpt>
      <trkpt lat="48.75782" lon="6.33517">
        <ele>230.1</ele>
        <time>2021-07-30T09:27:37Z</time>
      </trkpt>
      <trkpt lat="48.75784" lon="6.33521">
        <ele>230</ele>
        <time>2021-07-30T09:27:38Z</time>
      </trkpt>
      <trkpt lat="48.7579" lon="6.33532">
        <ele>229.9</ele>
        <time>2021-07-30T09:27:40Z</time>
      </trkpt>
      <trkpt lat="48.75795" lon="6.33542">
        <ele>229.7</ele>
        <time>2021-07-30T09:27:41Z</time>
      </trkpt>
      <trkpt lat="48.75801" lon="6.33552">
        <ele>229.6</ele>
        <time>2021-07-30T09:27:42Z</time>
      </trkpt>
      <trkpt lat="48.75808" lon="6.33563">
        <ele>229.4</ele>
        <time>2021-07-30T09:27:44Z</time>
      </trkpt>
      <trkpt lat="48.76011" lon="6.34076">
        <ele>225.5</ele>
        <time>2021-07-30T09:28:48Z</time>
      </trkpt>
      <trkpt lat="48.76015" lon="6.34088">
        <ele>225.4</ele>
        <time>2021-07-30T09:28:49Z</time>
      </trkpt>
      <trkpt lat="48.76018" lon="6.34108">
        <ele>225.2</ele>
        <time>2021-07-30T09:28:51Z</time>
      </trkpt>
      <trkpt lat="48.76019" lon="6.34117">
        <ele>225.1</ele>
        <time>2021-07-30T09:28:52Z</time>
      </trkpt>
      <trkpt lat="48.7602" lon="6.34126">
        <ele>225</ele>
        <time>2021-07-30T09:28:53Z</time>
      </trkpt>
      <trkpt lat="48.76027" lon="6.34145">
        <ele>224.8</ele>
        <time>2021-07-30T09:28:55Z</time>
      </trkpt>
      <trkpt lat="48.76035" lon="6.34161">
        <ele>224.6</ele>
        <time>2021-07-30T09:28:57Z</time>
      </trkpt>
      <trkpt lat="48.76043" lon="6.34177">
        <ele>224.4</ele>
        <time>2021-07-30T09:28:59Z</time>
      </trkpt>
      <trkpt lat="48.76048" lon="6.34183">
        <ele>224.3</ele>
        <time>2021-07-30T09:29:00Z</time>
      </trkpt>
      <trkpt lat="48.76053" lon="6.34188">
        <ele>224.2</ele>
        <time>2021-07-30T09:29:01Z</time>
      </trkpt>
      <trkpt lat="48.76058" lon="6.34191">
        <ele>224.1</ele>
        <time>2021-07-30T09:29:02Z</time>
      </trkpt>
      <trkpt lat="48.76067" lon="6.34197">
        <ele>224</ele>
        <time>2021-07-30T09:29:04Z</time>
      </trkpt>
      <trkpt lat="48.76072" lon="6.34201">
        <ele>223.9</ele>
        <time>2021-07-30T09:29:05Z</time>
      </trkpt>
      <trkpt lat="48.76077" lon="6.34206">
        <ele>223.8</ele>
        <time>2021-07-30T09:29:06Z</time>
      </trkpt>
      <trkpt lat="48.76086" lon="6.34216">
        <ele>223.6</ele>
        <time>2021-07-30T09:29:08Z</time>
      </trkpt>
      <trkpt lat="48.76091" lon="6.34229">
        <ele>223.5</ele>
        <time>2021-07-30T09:29:10Z</time>
      </trkpt>
      <trkpt lat="48.76094" lon="6.34234">
        <ele>223.4</ele>
        <time>2021-07-30T09:29:11Z</time>
      </trkpt>
      <trkpt lat="48.761" lon="6.34247">
        <ele>223.3</ele>
        <time>2021-07-30T09:29:13Z</time>
      </trkpt>
      <trkpt lat="48.76103" lon="6.34253">
        <ele>223.3</ele>
        <time>2021-07-30T09:29:14Z</time>
      </trkpt>
      <trkpt lat="48.7611" lon="6.34265">
        <ele>223.1</ele>
        <time>2021-07-30T09:29:16Z</time>
      </trkpt>
      <trkpt lat="48.76118" lon="6.34277">
        <ele>222.9</ele>
        <time>2021-07-30T09:29:18Z</time>
      </trkpt>
      <trkpt lat="48.76123" lon="6.34282">
        <ele>222.8</ele>
        <time>2021-07-30T09:29:19Z</time>
      </trkpt>
      <trkpt lat="48.76128" lon="6.34286">
        <ele>222.7</ele>
        <time>2021-07-30T09:29:20Z</time>
      </trkpt>
      <trkpt lat="48.76137" lon="6.34297">
        <ele>222.5</ele>
        <time>2021-07-30T09:29:22Z</time>
      </trkpt>
      <trkpt lat="48.76142" lon="6.34303">
        <ele>222.5</ele>
        <time>2021-07-30T09:29:23Z</time>
      </trkpt>
      <trkpt lat="48.76152" lon="6.34311">
        <ele>222.4</ele>
        <time>2021-07-30T09:29:25Z</time>
      </trkpt>
      <trkpt lat="48.76157" lon="6.34316">
        <ele>222.3</ele>
        <time>2021-07-30T09:29:26Z</time>
      </trkpt>
      <trkpt lat="48.76162" lon="6.34322">
        <ele>222.2</ele>
        <time>2021-07-30T09:29:27Z</time>
      </trkpt>
      <trkpt lat="48.76166" lon="6.34328">
        <ele>222.2</ele>
        <time>2021-07-30T09:29:28Z</time>
      </trkpt>
      <trkpt lat="48.76174" lon="6.34338">
        <ele>222.1</ele>
        <time>2021-07-30T09:29:30Z</time>
      </trkpt>
      <trkpt lat="48.76178" lon="6.34344">
        <ele>222</ele>
        <time>2021-07-30T09:29:31Z</time>
      </trkpt>
      <trkpt lat="48.76186" lon="6.34354">
        <ele>221.9</ele>
        <time>2021-07-30T09:29:33Z</time>
      </trkpt>
      <trkpt lat="48.76191" lon="6.34359">
        <ele>221.8</ele>
        <time>2021-07-30T09:29:34Z</time>
      </trkpt>
      <trkpt lat="48.76196" lon="6.34364">
        <ele>221.7</ele>
        <time>2021-07-30T09:29:35Z</time>
      </trkpt>
      <trkpt lat="48.76201" lon="6.34369">
        <ele>221.7</ele>
        <time>2021-07-30T09:29:36Z</time>
      </trkpt>
      <trkpt lat="48.7621" lon="6.34379">
        <ele>221.5</ele>
        <time>2021-07-30T09:29:38Z</time>
      </trkpt>
      <trkpt lat="48.76214" lon="6.34384">
        <ele>221.4</ele>
        <time>2021-07-30T09:29:39Z</time>
      </trkpt>
      <trkpt lat="48.76223" lon="6.34392">
        <ele>221.3</ele>
        <time>2021-07-30T09:29:41Z</time>
      </trkpt>
      <trkpt lat="48.76228" lon="6.34396">
        <ele>221.2</ele>
        <time>2021-07-30T09:29:42Z</time>
      </trkpt>
      <trkpt lat="48.76236" lon="6.34404">
        <ele>221.1</ele>
        <time>2021-07-30T09:29:44Z</time>
      </trkpt>
      <trkpt lat="48.76242" lon="6.34408">
        <ele>221.1</ele>
        <time>2021-07-30T09:29:45Z</time>
      </trkpt>
      <trkpt lat="48.76247" lon="6.34411">
        <ele>221</ele>
        <time>2021-07-30T09:29:46Z</time>
      </trkpt>
      <trkpt lat="48.76255" lon="6.34421">
        <ele>220.8</ele>
        <time>2021-07-30T09:29:48Z</time>
      </trkpt>
      <trkpt lat="48.76259" lon="6.34427">
        <ele>220.8</ele>
        <time>2021-07-30T09:29:49Z</time>
      </trkpt>
      <trkpt lat="48.76263" lon="6.34433">
        <ele>220.7</ele>
        <time>2021-07-30T09:29:50Z</time>
      </trkpt>
      <trkpt lat="48.76269" lon="6.34447">
        <ele>220.6</ele>
        <time>2021-07-30T09:29:52Z</time>
      </trkpt>
      <trkpt lat="48.76272" lon="6.34453">
        <ele>220.5</ele>
        <time>2021-07-30T09:29:53Z</time>
      </trkpt>
      <trkpt lat="48.76279" lon="6.34465">
        <ele>220.4</ele>
        <time>2021-07-30T09:29:55Z</time>
      </trkpt>
      <trkpt lat="48.76286" lon="6.34474">
        <ele>220.3</ele>
        <time>2021-07-30T09:29:57Z</time>
      </trkpt>
      <trkpt lat="48.76291" lon="6.34478">
        <ele>220.3</ele>
        <time>2021-07-30T09:29:58Z</time>
      </trkpt>
      <trkpt lat="48.76296" lon="6.34482">
        <ele>220.2</ele>
        <time>2021-07-30T09:29:59Z</time>
      </trkpt>
      <trkpt lat="48.76306" lon="6.34492">
        <ele>220.1</ele>
        <time>2021-07-30T09:30:01Z</time>
      </trkpt>
      <trkpt lat="48.76311" lon="6.34497">
        <ele>220</ele>
        <time>2021-07-30T09:30:02Z</time>
      </trkpt>
      <trkpt lat="48.7632" lon="6.34506">
        <ele>219.9</ele>
        <time>2021-07-30T09:30:04Z</time>
      </trkpt>
      <trkpt lat="48.76329" lon="6.34517">
        <ele>219.8</ele>
        <time>2021-07-30T09:30:06Z</time>
      </trkpt>
      <trkpt lat="48.76333" lon="6.34524">
        <ele>219.7</ele>
        <time>2021-07-30T09:30:07Z</time>
      </trkpt>
      <trkpt lat="48.76342" lon="6.34536">
        <ele>219.6</ele>
        <time>2021-07-30T09:30:09Z</time>
      </trkpt>
      <trkpt lat="48.7635" lon="6.34547">
        <ele>219.5</ele>
        <time>2021-07-30T09:30:11Z</time>
      </trkpt>
      <trkpt lat="48.76354" lon="6.34552">
        <ele>219.4</ele>
        <time>2021-07-30T09:30:12Z</time>
      </trkpt>
      <trkpt lat="48.76358" lon="6.34556">
        <ele>219.4</ele>
        <time>2021-07-30T09:30:13Z</time>
      </trkpt>
      <trkpt lat="48.76367" lon="6.34561">
        <ele>219.3</ele>
        <time>2021-07-30T09:30:15Z</time>
      </trkpt>
      <trkpt lat="48.76371" lon="6.34564">
        <ele>219.3</ele>
        <time>2021-07-30T09:30:16Z</time>
      </trkpt>
      <trkpt lat="48.7638" lon="6.3457">
        <ele>219.2</ele>
        <time>2021-07-30T09:30:18Z</time>
      </trkpt>
      <trkpt lat="48.76385" lon="6.34572">
        <ele>219.1</ele>
        <time>2021-07-30T09:30:19Z</time>
      </trkpt>
      <trkpt lat="48.76397" lon="6.34578">
        <ele>219</ele>
        <time>2021-07-30T09:30:21Z</time>
      </trkpt>
      <trkpt lat="48.76408" lon="6.34584">
        <ele>218.9</ele>
        <time>2021-07-30T09:30:23Z</time>
      </trkpt>
      <trkpt lat="48.76415" lon="6.34593">
        <ele>218.8</ele>
        <time>2021-07-30T09:30:25Z</time>
      </trkpt>
      <trkpt lat="48.76423" lon="6.34606">
        <ele>218.9</ele>
        <time>2021-07-30T09:30:27Z</time>
      </trkpt>
      <trkpt lat="48.76427" lon="6.34613">
        <ele>219</ele>
        <time>2021-07-30T09:30:28Z</time>
      </trkpt>
      <trkpt lat="48.76432" lon="6.34618">
        <ele>219</ele>
        <time>2021-07-30T09:30:29Z</time>
      </trkpt>
      <trkpt lat="48.7644" lon="6.34629">
        <ele>219.1</ele>
        <time>2021-07-30T09:30:31Z</time>
      </trkpt>
      <trkpt lat="48.76447" lon="6.34643">
        <ele>219.1</ele>
        <time>2021-07-30T09:30:33Z</time>
      </trkpt>
      <trkpt lat="48.7645" lon="6.34649">
        <ele>219.1</ele>
        <time>2021-07-30T09:30:34Z</time>
      </trkpt>
      <trkpt lat="48.76454" lon="6.34658">
        <ele>219.1</ele>
        <time>2021-07-30T09:30:36Z</time>
      </trkpt>
      <trkpt lat="48.76457" lon="6.34665">
        <ele>219.1</ele>
        <time>2021-07-30T09:30:37Z</time>
      </trkpt>
      <trkpt lat="48.76465" lon="6.34677">
        <ele>219.1</ele>
        <time>2021-07-30T09:30:39Z</time>
      </trkpt>
      <trkpt lat="48.76469" lon="6.34683">
        <ele>219.1</ele>
        <time>2021-07-30T09:30:40Z</time>
      </trkpt>
      <trkpt lat="48.76474" lon="6.34688">
        <ele>219.1</ele>
        <time>2021-07-30T09:30:41Z</time>
      </trkpt>
      <trkpt lat="48.76484" lon="6.347">
        <ele>219.1</ele>
        <time>2021-07-30T09:30:43Z</time>
      </trkpt>
      <trkpt lat="48.76505" lon="6.34726">
        <ele>218.8</ele>
        <time>2021-07-30T09:30:47Z</time>
      </trkpt>
      <trkpt lat="48.76512" lon="6.34734">
        <ele>218.7</ele>
        <time>2021-07-30T09:30:48Z</time>
      </trkpt>
      <trkpt lat="48.76518" lon="6.34741">
        <ele>218.7</ele>
        <time>2021-07-30T09:30:49Z</time>
      </trkpt>
      <trkpt lat="48.76531" lon="6.34749">
        <ele>218.5</ele>
        <time>2021-07-30T09:30:51Z</time>
      </trkpt>
      <trkpt lat="48.76537" lon="6.34754">
        <ele>218.4</ele>
        <time>2021-07-30T09:30:52Z</time>
      </trkpt>
      <trkpt lat="48.76548" lon="6.34764">
        <ele>218.3</ele>
        <time>2021-07-30T09:30:54Z</time>
      </trkpt>
      <trkpt lat="48.76553" lon="6.34768">
        <ele>218.2</ele>
        <time>2021-07-30T09:30:55Z</time>
      </trkpt>
      <trkpt lat="48.76563" lon="6.34776">
        <ele>218.1</ele>
        <time>2021-07-30T09:30:57Z</time>
      </trkpt>
      <trkpt lat="48.76567" lon="6.34781">
        <ele>218.1</ele>
        <time>2021-07-30T09:30:58Z</time>
      </trkpt>
      <trkpt lat="48.76568" lon="6.34781">
        <ele>218.1</ele>
        <time>2021-07-30T09:30:59Z</time>
      </trkpt>
      <trkpt lat="48.76569" lon="6.34783">
        <ele>218.1</ele>
        <time>2021-07-30T09:31:01Z</time>
      </trkpt>
      <trkpt lat="48.76575" lon="6.34787">
        <ele>218</ele>
        <time>2021-07-30T09:31:03Z</time>
      </trkpt>
      <trkpt lat="48.76586" lon="6.34806">
        <ele>218</ele>
        <time>2021-07-30T09:31:05Z</time>
      </trkpt>
      <trkpt lat="48.76598" lon="6.34825">
        <ele>217.9</ele>
        <time>2021-07-30T09:31:06Z</time>
      </trkpt>
      <trkpt lat="48.76605" lon="6.34834">
        <ele>217.8</ele>
        <time>2021-07-30T09:31:07Z</time>
      </trkpt>
      <trkpt lat="48.76621" lon="6.34853">
        <ele>217.4</ele>
        <time>2021-07-30T09:31:09Z</time>
      </trkpt>
      <trkpt lat="48.76629" lon="6.3486">
        <ele>217.1</ele>
        <time>2021-07-30T09:31:10Z</time>
      </trkpt>
      <trkpt lat="48.76635" lon="6.34867">
        <ele>216.9</ele>
        <time>2021-07-30T09:31:11Z</time>
      </trkpt>
      <trkpt lat="48.76647" lon="6.34879">
        <ele>216.5</ele>
        <time>2021-07-30T09:31:13Z</time>
      </trkpt>
      <trkpt lat="48.76656" lon="6.34894">
        <ele>216</ele>
        <time>2021-07-30T09:31:15Z</time>
      </trkpt>
      <trkpt lat="48.7666" lon="6.34902">
        <ele>215.8</ele>
        <time>2021-07-30T09:31:16Z</time>
      </trkpt>
      <trkpt lat="48.76663" lon="6.34908">
        <ele>215.6</ele>
        <time>2021-07-30T09:31:18Z</time>
      </trkpt>
      <trkpt lat="48.7667" lon="6.34922">
        <ele>215.3</ele>
        <time>2021-07-30T09:31:19Z</time>
      </trkpt>
      <trkpt lat="48.76683" lon="6.34945">
        <ele>214.7</ele>
        <time>2021-07-30T09:31:21Z</time>
      </trkpt>
      <trkpt lat="48.76687" lon="6.3495">
        <ele>214.6</ele>
        <time>2021-07-30T09:31:22Z</time>
      </trkpt>
      <trkpt lat="48.7669" lon="6.34954">
        <ele>214.5</ele>
        <time>2021-07-30T09:31:24Z</time>
      </trkpt>
      <trkpt lat="48.76702" lon="6.34984">
        <ele>213.9</ele>
        <time>2021-07-30T09:31:25Z</time>
      </trkpt>
      <trkpt lat="48.76706" lon="6.34999">
        <ele>213.7</ele>
        <time>2021-07-30T09:31:27Z</time>
      </trkpt>
      <trkpt lat="48.76712" lon="6.35015">
        <ele>213.5</ele>
        <time>2021-07-30T09:31:28Z</time>
      </trkpt>
      <trkpt lat="48.76723" lon="6.35041">
        <ele>213</ele>
        <time>2021-07-30T09:31:30Z</time>
      </trkpt>
      <trkpt lat="48.76729" lon="6.35051">
        <ele>212.8</ele>
        <time>2021-07-30T09:31:31Z</time>
      </trkpt>
      <trkpt lat="48.76738" lon="6.35066">
        <ele>212.5</ele>
        <time>2021-07-30T09:31:33Z</time>
      </trkpt>
      <trkpt lat="48.76748" lon="6.35081">
        <ele>212.2</ele>
        <time>2021-07-30T09:31:35Z</time>
      </trkpt>
      <trkpt lat="48.76759" lon="6.35096">
        <ele>211.9</ele>
        <time>2021-07-30T09:31:37Z</time>
      </trkpt>
      <trkpt lat="48.7677" lon="6.35111">
        <ele>211.8</ele>
        <time>2021-07-30T09:31:39Z</time>
      </trkpt>
      <trkpt lat="48.76781" lon="6.35128">
        <ele>211.7</ele>
        <time>2021-07-30T09:31:41Z</time>
      </trkpt>
      <trkpt lat="48.76794" lon="6.35146">
        <ele>211.6</ele>
        <time>2021-07-30T09:31:43Z</time>
      </trkpt>
      <trkpt lat="48.76808" lon="6.3516">
        <ele>211.5</ele>
        <time>2021-07-30T09:31:45Z</time>
      </trkpt>
      <trkpt lat="48.76813" lon="6.35169">
        <ele>211.4</ele>
        <time>2021-07-30T09:31:46Z</time>
      </trkpt>
      <trkpt lat="48.76818" lon="6.35179">
        <ele>211.4</ele>
        <time>2021-07-30T09:31:47Z</time>
      </trkpt>
      <trkpt lat="48.76829" lon="6.35205">
        <ele>211.4</ele>
        <time>2021-07-30T09:31:49Z</time>
      </trkpt>
      <trkpt lat="48.76839" lon="6.35233">
        <ele>211.4</ele>
        <time>2021-07-30T09:31:51Z</time>
      </trkpt>
      <trkpt lat="48.76845" lon="6.35246">
        <ele>211.4</ele>
        <time>2021-07-30T09:31:52Z</time>
      </trkpt>
      <trkpt lat="48.7685" lon="6.35258">
        <ele>211.5</ele>
        <time>2021-07-30T09:31:53Z</time>
      </trkpt>
      <trkpt lat="48.76855" lon="6.35271">
        <ele>211.6</ele>
        <time>2021-07-30T09:31:54Z</time>
      </trkpt>
      <trkpt lat="48.76863" lon="6.35296">
        <ele>211.6</ele>
        <time>2021-07-30T09:31:56Z</time>
      </trkpt>
      <trkpt lat="48.76867" lon="6.35308">
        <ele>211.5</ele>
        <time>2021-07-30T09:31:57Z</time>
      </trkpt>
      <trkpt lat="48.76869" lon="6.3532">
        <ele>211.5</ele>
        <time>2021-07-30T09:31:58Z</time>
      </trkpt>
      <trkpt lat="48.76869" lon="6.35334">
        <ele>211.4</ele>
        <time>2021-07-30T09:31:59Z</time>
      </trkpt>
      <trkpt lat="48.76871" lon="6.35357">
        <ele>211.1</ele>
        <time>2021-07-30T09:32:01Z</time>
      </trkpt>
      <trkpt lat="48.76874" lon="6.35368">
        <ele>210.9</ele>
        <time>2021-07-30T09:32:02Z</time>
      </trkpt>
      <trkpt lat="48.76887" lon="6.35384">
        <ele>210.1</ele>
        <time>2021-07-30T09:32:04Z</time>
      </trkpt>
      <trkpt lat="48.76892" lon="6.35394">
        <ele>209.8</ele>
        <time>2021-07-30T09:32:05Z</time>
      </trkpt>
      <trkpt lat="48.76898" lon="6.35413">
        <ele>209.1</ele>
        <time>2021-07-30T09:32:07Z</time>
      </trkpt>
      <trkpt lat="48.76901" lon="6.35423">
        <ele>208.9</ele>
        <time>2021-07-30T09:32:08Z</time>
      </trkpt>
      <trkpt lat="48.76908" lon="6.35443">
        <ele>208.6</ele>
        <time>2021-07-30T09:32:10Z</time>
      </trkpt>
      <trkpt lat="48.76911" lon="6.35453">
        <ele>208.5</ele>
        <time>2021-07-30T09:32:11Z</time>
      </trkpt>
      <trkpt lat="48.76919" lon="6.35471">
        <ele>208.5</ele>
        <time>2021-07-30T09:32:13Z</time>
      </trkpt>
      <trkpt lat="48.76929" lon="6.35485">
        <ele>208.6</ele>
        <time>2021-07-30T09:32:15Z</time>
      </trkpt>
      <trkpt lat="48.76933" lon="6.35492">
        <ele>208.5</ele>
        <time>2021-07-30T09:32:16Z</time>
      </trkpt>
      <trkpt lat="48.76938" lon="6.35499">
        <ele>208.4</ele>
        <time>2021-07-30T09:32:17Z</time>
      </trkpt>
      <trkpt lat="48.76944" lon="6.35507">
        <ele>208.4</ele>
        <time>2021-07-30T09:32:18Z</time>
      </trkpt>
      <trkpt lat="48.76949" lon="6.35516">
        <ele>208.3</ele>
        <time>2021-07-30T09:32:19Z</time>
      </trkpt>
      <trkpt lat="48.76958" lon="6.35532">
        <ele>208.1</ele>
        <time>2021-07-30T09:32:21Z</time>
      </trkpt>
      <trkpt lat="48.76963" lon="6.35539">
        <ele>208</ele>
        <time>2021-07-30T09:32:22Z</time>
      </trkpt>
      <trkpt lat="48.76967" lon="6.35545">
        <ele>207.9</ele>
        <time>2021-07-30T09:32:23Z</time>
      </trkpt>
      <trkpt lat="48.76977" lon="6.35561">
        <ele>207.6</ele>
        <time>2021-07-30T09:32:25Z</time>
      </trkpt>
      <trkpt lat="48.76985" lon="6.35578">
        <ele>207.4</ele>
        <time>2021-07-30T09:32:27Z</time>
      </trkpt>
      <trkpt lat="48.76989" lon="6.35585">
        <ele>207.4</ele>
        <time>2021-07-30T09:32:28Z</time>
      </trkpt>
      <trkpt lat="48.76992" lon="6.3559">
        <ele>207.3</ele>
        <time>2021-07-30T09:32:29Z</time>
      </trkpt>
      <trkpt lat="48.76997" lon="6.35596">
        <ele>207.2</ele>
        <time>2021-07-30T09:32:31Z</time>
      </trkpt>
      <trkpt lat="48.77" lon="6.35601">
        <ele>207.2</ele>
        <time>2021-07-30T09:32:32Z</time>
      </trkpt>
      <trkpt lat="48.77008" lon="6.35612">
        <ele>207</ele>
        <time>2021-07-30T09:32:34Z</time>
      </trkpt>
      <trkpt lat="48.77017" lon="6.35625">
        <ele>206.9</ele>
        <time>2021-07-30T09:32:36Z</time>
      </trkpt>
      <trkpt lat="48.77017" lon="6.35625">
        <ele>206.9</ele>
        <time>2021-07-30T09:32:37Z</time>
      </trkpt>
      <trkpt lat="48.77022" lon="6.35632">
        <ele>206.8</ele>
        <time>2021-07-30T09:32:38Z</time>
      </trkpt>
      <trkpt lat="48.77069" lon="6.35708">
        <ele>205.8</ele>
        <time>2021-07-30T09:32:48Z</time>
      </trkpt>
      <trkpt lat="48.7708" lon="6.3573">
        <ele>205.6</ele>
        <time>2021-07-30T09:32:49Z</time>
      </trkpt>
      <trkpt lat="48.77095" lon="6.35762">
        <ele>205.3</ele>
        <time>2021-07-30T09:32:51Z</time>
      </trkpt>
      <trkpt lat="48.77099" lon="6.35767">
        <ele>205.3</ele>
        <time>2021-07-30T09:32:52Z</time>
      </trkpt>
      <trkpt lat="48.77099" lon="6.35771">
        <ele>205.2</ele>
        <time>2021-07-30T09:32:54Z</time>
      </trkpt>
      <trkpt lat="48.771" lon="6.35776">
        <ele>205.2</ele>
        <time>2021-07-30T09:32:55Z</time>
      </trkpt>
      <trkpt lat="48.77102" lon="6.35781">
        <ele>205.2</ele>
        <time>2021-07-30T09:32:56Z</time>
      </trkpt>
      <trkpt lat="48.77106" lon="6.35788">
        <ele>205.1</ele>
        <time>2021-07-30T09:32:57Z</time>
      </trkpt>
      <trkpt lat="48.77111" lon="6.35794">
        <ele>205</ele>
        <time>2021-07-30T09:32:59Z</time>
      </trkpt>
      <trkpt lat="48.77113" lon="6.35796">
        <ele>205</ele>
        <time>2021-07-30T09:33:00Z</time>
      </trkpt>
      <trkpt lat="48.7712" lon="6.35808">
        <ele>204.8</ele>
        <time>2021-07-30T09:33:02Z</time>
      </trkpt>
      <trkpt lat="48.77313" lon="6.3615">
        <ele>201.6</ele>
        <time>2021-07-30T09:34:13Z</time>
      </trkpt>
      <trkpt lat="48.77311" lon="6.3615">
        <ele>201.7</ele>
        <time>2021-07-30T09:34:14Z</time>
      </trkpt>
      <trkpt lat="48.77303" lon="6.36143">
        <ele>201.8</ele>
        <time>2021-07-30T09:34:16Z</time>
      </trkpt>
      <trkpt lat="48.77296" lon="6.36136">
        <ele>202</ele>
        <time>2021-07-30T09:34:18Z</time>
      </trkpt>
      <trkpt lat="48.77293" lon="6.36133">
        <ele>202.1</ele>
        <time>2021-07-30T09:34:19Z</time>
      </trkpt>
      <trkpt lat="48.7729" lon="6.3613">
        <ele>202.2</ele>
        <time>2021-07-30T09:34:20Z</time>
      </trkpt>
      <trkpt lat="48.77287" lon="6.36127">
        <ele>202.2</ele>
        <time>2021-07-30T09:34:21Z</time>
      </trkpt>
      <trkpt lat="48.77286" lon="6.36121">
        <ele>202.1</ele>
        <time>2021-07-30T09:34:22Z</time>
      </trkpt>
      <trkpt lat="48.77284" lon="6.36116">
        <ele>202.1</ele>
        <time>2021-07-30T09:34:24Z</time>
      </trkpt>
      <trkpt lat="48.77283" lon="6.36114">
        <ele>202.1</ele>
        <time>2021-07-30T09:34:25Z</time>
      </trkpt>
      <trkpt lat="48.77282" lon="6.36109">
        <ele>202.1</ele>
        <time>2021-07-30T09:34:26Z</time>
      </trkpt>
      <trkpt lat="48.77282" lon="6.36106">
        <ele>202.1</ele>
        <time>2021-07-30T09:34:28Z</time>
      </trkpt>
      <trkpt lat="48.77283" lon="6.36107">
        <ele>202.1</ele>
        <time>2021-07-30T09:34:29Z</time>
      </trkpt>
      <trkpt lat="48.77283" lon="6.36108">
        <ele>202.1</ele>
        <time>2021-07-30T09:34:30Z</time>
      </trkpt>
      <trkpt lat="48.77284" lon="6.36109">
        <ele>202.1</ele>
        <time>2021-07-30T09:34:31Z</time>
      </trkpt>
      <trkpt lat="48.77285" lon="6.3611">
        <ele>202.1</ele>
        <time>2021-07-30T09:34:32Z</time>
      </trkpt>
      <trkpt lat="48.77286" lon="6.36112">
        <ele>202.1</ele>
        <time>2021-07-30T09:34:34Z</time>
      </trkpt>
      <trkpt lat="48.77286" lon="6.36113">
        <ele>202.1</ele>
        <time>2021-07-30T09:34:36Z</time>
      </trkpt>
      <trkpt lat="48.77287" lon="6.36114">
        <ele>202.1</ele>
        <time>2021-07-30T09:34:38Z</time>
      </trkpt>
      <trkpt lat="48.77288" lon="6.36115">
        <ele>202.1</ele>
        <time>2021-07-30T09:37:04Z</time>
      </trkpt>
      <trkpt lat="48.77288" lon="6.36116">
        <ele>202.1</ele>
        <time>2021-07-30T09:37:05Z</time>
      </trkpt>
      <trkpt lat="48.77292" lon="6.36127">
        <ele>202.2</ele>
        <time>2021-07-30T09:37:07Z</time>
      </trkpt>
      <trkpt lat="48.77295" lon="6.3614">
        <ele>202</ele>
        <time>2021-07-30T09:37:08Z</time>
      </trkpt>
      <trkpt lat="48.77299" lon="6.36153">
        <ele>201.6</ele>
        <time>2021-07-30T09:37:10Z</time>
      </trkpt>
      <trkpt lat="48.77302" lon="6.36163">
        <ele>201.6</ele>
        <time>2021-07-30T09:37:11Z</time>
      </trkpt>
      <trkpt lat="48.77305" lon="6.36167">
        <ele>202.2</ele>
        <time>2021-07-30T09:37:13Z</time>
      </trkpt>
      <trkpt lat="48.77308" lon="6.36174">
        <ele>202.2</ele>
        <time>2021-07-30T09:37:14Z</time>
      </trkpt>
      <trkpt lat="48.77311" lon="6.36179">
        <ele>202.1</ele>
        <time>2021-07-30T09:37:15Z</time>
      </trkpt>
      <trkpt lat="48.77313" lon="6.36182">
        <ele>202</ele>
        <time>2021-07-30T09:37:16Z</time>
      </trkpt>
      <trkpt lat="48.77316" lon="6.36189">
        <ele>201.7</ele>
        <time>2021-07-30T09:37:18Z</time>
      </trkpt>
      <trkpt lat="48.7732" lon="6.36194">
        <ele>201.5</ele>
        <time>2021-07-30T09:37:19Z</time>
      </trkpt>
      <trkpt lat="48.77324" lon="6.36198">
        <ele>201.3</ele>
        <time>2021-07-30T09:37:20Z</time>
      </trkpt>
      <trkpt lat="48.77329" lon="6.36205">
        <ele>201</ele>
        <time>2021-07-30T09:37:22Z</time>
      </trkpt>
      <trkpt lat="48.77334" lon="6.36209">
        <ele>200.7</ele>
        <time>2021-07-30T09:37:23Z</time>
      </trkpt>
      <trkpt lat="48.77341" lon="6.36216">
        <ele>200.5</ele>
        <time>2021-07-30T09:37:25Z</time>
      </trkpt>
      <trkpt lat="48.77344" lon="6.36224">
        <ele>200.3</ele>
        <time>2021-07-30T09:37:26Z</time>
      </trkpt>
      <trkpt lat="48.7735" lon="6.36238">
        <ele>199.9</ele>
        <time>2021-07-30T09:37:28Z</time>
      </trkpt>
      <trkpt lat="48.77353" lon="6.36244">
        <ele>199.7</ele>
        <time>2021-07-30T09:37:29Z</time>
      </trkpt>
      <trkpt lat="48.77357" lon="6.36251">
        <ele>199.6</ele>
        <time>2021-07-30T09:37:30Z</time>
      </trkpt>
      <trkpt lat="48.77364" lon="6.36264">
        <ele>199.3</ele>
        <time>2021-07-30T09:37:32Z</time>
      </trkpt>
      <trkpt lat="48.77366" lon="6.36271">
        <ele>199.2</ele>
        <time>2021-07-30T09:37:33Z</time>
      </trkpt>
      <trkpt lat="48.77369" lon="6.36288">
        <ele>199</ele>
        <time>2021-07-30T09:37:35Z</time>
      </trkpt>
      <trkpt lat="48.7737" lon="6.36296">
        <ele>198.9</ele>
        <time>2021-07-30T09:37:36Z</time>
      </trkpt>
      <trkpt lat="48.77373" lon="6.36308">
        <ele>198.8</ele>
        <time>2021-07-30T09:37:38Z</time>
      </trkpt>
      <trkpt lat="48.77378" lon="6.36321">
        <ele>198.6</ele>
        <time>2021-07-30T09:37:40Z</time>
      </trkpt>
      <trkpt lat="48.7738" lon="6.36325">
        <ele>198.6</ele>
        <time>2021-07-30T09:37:41Z</time>
      </trkpt>
      <trkpt lat="48.77387" lon="6.36336">
        <ele>198.4</ele>
        <time>2021-07-30T09:37:43Z</time>
      </trkpt>
      <trkpt lat="48.77391" lon="6.36345">
        <ele>198.3</ele>
        <time>2021-07-30T09:37:44Z</time>
      </trkpt>
      <trkpt lat="48.77396" lon="6.36354">
        <ele>198.1</ele>
        <time>2021-07-30T09:37:46Z</time>
      </trkpt>
      <trkpt lat="48.77399" lon="6.36359">
        <ele>198</ele>
        <time>2021-07-30T09:37:47Z</time>
      </trkpt>
      <trkpt lat="48.77401" lon="6.36366">
        <ele>197.9</ele>
        <time>2021-07-30T09:37:48Z</time>
      </trkpt>
      <trkpt lat="48.77405" lon="6.3638">
        <ele>197.7</ele>
        <time>2021-07-30T09:37:50Z</time>
      </trkpt>
      <trkpt lat="48.77408" lon="6.36387">
        <ele>197.6</ele>
        <time>2021-07-30T09:37:51Z</time>
      </trkpt>
      <trkpt lat="48.77413" lon="6.364">
        <ele>197.5</ele>
        <time>2021-07-30T09:37:53Z</time>
      </trkpt>
      <trkpt lat="48.77415" lon="6.36406">
        <ele>197.4</ele>
        <time>2021-07-30T09:37:54Z</time>
      </trkpt>
      <trkpt lat="48.77418" lon="6.36421">
        <ele>197.3</ele>
        <time>2021-07-30T09:37:56Z</time>
      </trkpt>
      <trkpt lat="48.77422" lon="6.36435">
        <ele>197.1</ele>
        <time>2021-07-30T09:37:58Z</time>
      </trkpt>
      <trkpt lat="48.77425" lon="6.36441">
        <ele>197.1</ele>
        <time>2021-07-30T09:37:59Z</time>
      </trkpt>
      <trkpt lat="48.77432" lon="6.36449">
        <ele>197</ele>
        <time>2021-07-30T09:38:01Z</time>
      </trkpt>
      <trkpt lat="48.77435" lon="6.36452">
        <ele>197</ele>
        <time>2021-07-30T09:38:02Z</time>
      </trkpt>
      <trkpt lat="48.77437" lon="6.36457">
        <ele>197</ele>
        <time>2021-07-30T09:38:03Z</time>
      </trkpt>
      <trkpt lat="48.7744" lon="6.36462">
        <ele>197</ele>
        <time>2021-07-30T09:38:04Z</time>
      </trkpt>
      <trkpt lat="48.77446" lon="6.36473">
        <ele>196.9</ele>
        <time>2021-07-30T09:38:06Z</time>
      </trkpt>
      <trkpt lat="48.77449" lon="6.36481">
        <ele>196.8</ele>
        <time>2021-07-30T09:38:08Z</time>
      </trkpt>
      <trkpt lat="48.77453" lon="6.3649">
        <ele>196.6</ele>
        <time>2021-07-30T09:38:10Z</time>
      </trkpt>
      <trkpt lat="48.77456" lon="6.36497">
        <ele>196.6</ele>
        <time>2021-07-30T09:38:11Z</time>
      </trkpt>
      <trkpt lat="48.77459" lon="6.36502">
        <ele>196.6</ele>
        <time>2021-07-30T09:38:12Z</time>
      </trkpt>
      <trkpt lat="48.77463" lon="6.36511">
        <ele>196.7</ele>
        <time>2021-07-30T09:38:13Z</time>
      </trkpt>
      <trkpt lat="48.77467" lon="6.3652">
        <ele>196.9</ele>
        <time>2021-07-30T09:38:15Z</time>
      </trkpt>
      <trkpt lat="48.7747" lon="6.36526">
        <ele>196.9</ele>
        <time>2021-07-30T09:38:16Z</time>
      </trkpt>
      <trkpt lat="48.77473" lon="6.36532">
        <ele>197</ele>
        <time>2021-07-30T09:38:17Z</time>
      </trkpt>
      <trkpt lat="48.77476" lon="6.36537">
        <ele>197.1</ele>
        <time>2021-07-30T09:38:19Z</time>
      </trkpt>
      <trkpt lat="48.77478" lon="6.36542">
        <ele>197.3</ele>
        <time>2021-07-30T09:38:20Z</time>
      </trkpt>
      <trkpt lat="48.7748" lon="6.36548">
        <ele>197.4</ele>
        <time>2021-07-30T09:38:21Z</time>
      </trkpt>
      <trkpt lat="48.77485" lon="6.36558">
        <ele>197.6</ele>
        <time>2021-07-30T09:38:23Z</time>
      </trkpt>
      <trkpt lat="48.77487" lon="6.36562">
        <ele>197.7</ele>
        <time>2021-07-30T09:38:24Z</time>
      </trkpt>
      <trkpt lat="48.7749" lon="6.36567">
        <ele>197.8</ele>
        <time>2021-07-30T09:38:25Z</time>
      </trkpt>
      <trkpt lat="48.77493" lon="6.3657">
        <ele>197.9</ele>
        <time>2021-07-30T09:38:27Z</time>
      </trkpt>
      <trkpt lat="48.77497" lon="6.36573">
        <ele>198</ele>
        <time>2021-07-30T09:38:28Z</time>
      </trkpt>
      <trkpt lat="48.77498" lon="6.36575">
        <ele>198</ele>
        <time>2021-07-30T09:38:29Z</time>
      </trkpt>
      <trkpt lat="48.77499" lon="6.36576">
        <ele>198</ele>
        <time>2021-07-30T09:38:30Z</time>
      </trkpt>
      <trkpt lat="48.775" lon="6.36576">
        <ele>198</ele>
        <time>2021-07-30T09:38:32Z</time>
      </trkpt>
      <trkpt lat="48.77501" lon="6.36577">
        <ele>198</ele>
        <time>2021-07-30T09:38:33Z</time>
      </trkpt>
      <trkpt lat="48.77504" lon="6.3658">
        <ele>198</ele>
        <time>2021-07-30T09:38:34Z</time>
      </trkpt>
      <trkpt lat="48.77511" lon="6.36581">
        <ele>197.9</ele>
        <time>2021-07-30T09:38:36Z</time>
      </trkpt>
      <trkpt lat="48.77514" lon="6.36583">
        <ele>197.8</ele>
        <time>2021-07-30T09:38:37Z</time>
      </trkpt>
      <trkpt lat="48.77518" lon="6.36584">
        <ele>197.8</ele>
        <time>2021-07-30T09:38:38Z</time>
      </trkpt>
      <trkpt lat="48.77525" lon="6.36587">
        <ele>197.7</ele>
        <time>2021-07-30T09:38:40Z</time>
      </trkpt>
      <trkpt lat="48.77528" lon="6.36589">
        <ele>197.6</ele>
        <time>2021-07-30T09:38:41Z</time>
      </trkpt>
      <trkpt lat="48.77531" lon="6.36591">
        <ele>197.6</ele>
        <time>2021-07-30T09:38:42Z</time>
      </trkpt>
      <trkpt lat="48.77535" lon="6.36595">
        <ele>197.4</ele>
        <time>2021-07-30T09:38:43Z</time>
      </trkpt>
      <trkpt lat="48.77539" lon="6.366">
        <ele>197.4</ele>
        <time>2021-07-30T09:38:45Z</time>
      </trkpt>
      <trkpt lat="48.77542" lon="6.36604">
        <ele>197.3</ele>
        <time>2021-07-30T09:38:46Z</time>
      </trkpt>
      <trkpt lat="48.77544" lon="6.3661">
        <ele>197.3</ele>
        <time>2021-07-30T09:38:47Z</time>
      </trkpt>
      <trkpt lat="48.77545" lon="6.36613">
        <ele>197.3</ele>
        <time>2021-07-30T09:38:48Z</time>
      </trkpt>
      <trkpt lat="48.77547" lon="6.36618">
        <ele>197.2</ele>
        <time>2021-07-30T09:38:50Z</time>
      </trkpt>
      <trkpt lat="48.7755" lon="6.36622">
        <ele>197</ele>
        <time>2021-07-30T09:38:52Z</time>
      </trkpt>
      <trkpt lat="48.77553" lon="6.36626">
        <ele>196.9</ele>
        <time>2021-07-30T09:38:54Z</time>
      </trkpt>
      <trkpt lat="48.77555" lon="6.3663">
        <ele>196.8</ele>
        <time>2021-07-30T09:38:55Z</time>
      </trkpt>
      <trkpt lat="48.77556" lon="6.36632">
        <ele>196.8</ele>
        <time>2021-07-30T09:38:56Z</time>
      </trkpt>
      <trkpt lat="48.77557" lon="6.36637">
        <ele>196.7</ele>
        <time>2021-07-30T09:38:57Z</time>
      </trkpt>
      <trkpt lat="48.77559" lon="6.36641">
        <ele>196.7</ele>
        <time>2021-07-30T09:38:58Z</time>
      </trkpt>
      <trkpt lat="48.7756" lon="6.36646">
        <ele>196.6</ele>
        <time>2021-07-30T09:38:59Z</time>
      </trkpt>
      <trkpt lat="48.77561" lon="6.3665">
        <ele>196.6</ele>
        <time>2021-07-30T09:39:00Z</time>
      </trkpt>
      <trkpt lat="48.77563" lon="6.36656">
        <ele>196.5</ele>
        <time>2021-07-30T09:39:02Z</time>
      </trkpt>
      <trkpt lat="48.77566" lon="6.3666">
        <ele>196.5</ele>
        <time>2021-07-30T09:39:03Z</time>
      </trkpt>
      <trkpt lat="48.77568" lon="6.36663">
        <ele>196.5</ele>
        <time>2021-07-30T09:39:04Z</time>
      </trkpt>
      <trkpt lat="48.77573" lon="6.36667">
        <ele>196.4</ele>
        <time>2021-07-30T09:39:06Z</time>
      </trkpt>
      <trkpt lat="48.77576" lon="6.36673">
        <ele>196.4</ele>
        <time>2021-07-30T09:39:08Z</time>
      </trkpt>
      <trkpt lat="48.77578" lon="6.36677">
        <ele>196.3</ele>
        <time>2021-07-30T09:39:09Z</time>
      </trkpt>
      <trkpt lat="48.77581" lon="6.36681">
        <ele>196.3</ele>
        <time>2021-07-30T09:39:10Z</time>
      </trkpt>
      <trkpt lat="48.77584" lon="6.36684">
        <ele>196.3</ele>
        <time>2021-07-30T09:39:11Z</time>
      </trkpt>
      <trkpt lat="48.77586" lon="6.36687">
        <ele>196.3</ele>
        <time>2021-07-30T09:39:12Z</time>
      </trkpt>
      <trkpt lat="48.77591" lon="6.36695">
        <ele>196.3</ele>
        <time>2021-07-30T09:39:14Z</time>
      </trkpt>
      <trkpt lat="48.77594" lon="6.36699">
        <ele>196.4</ele>
        <time>2021-07-30T09:39:15Z</time>
      </trkpt>
      <trkpt lat="48.77596" lon="6.36703">
        <ele>196.4</ele>
        <time>2021-07-30T09:39:17Z</time>
      </trkpt>
      <trkpt lat="48.77598" lon="6.36707">
        <ele>196.5</ele>
        <time>2021-07-30T09:39:18Z</time>
      </trkpt>
      <trkpt lat="48.776" lon="6.36712">
        <ele>196.5</ele>
        <time>2021-07-30T09:39:19Z</time>
      </trkpt>
      <trkpt lat="48.77603" lon="6.3672">
        <ele>196.6</ele>
        <time>2021-07-30T09:39:21Z</time>
      </trkpt>
      <trkpt lat="48.77606" lon="6.36725">
        <ele>196.6</ele>
        <time>2021-07-30T09:39:22Z</time>
      </trkpt>
      <trkpt lat="48.77608" lon="6.3673">
        <ele>196.6</ele>
        <time>2021-07-30T09:39:23Z</time>
      </trkpt>
      <trkpt lat="48.77612" lon="6.36734">
        <ele>196.6</ele>
        <time>2021-07-30T09:39:24Z</time>
      </trkpt>
      <trkpt lat="48.77617" lon="6.3674">
        <ele>196.6</ele>
        <time>2021-07-30T09:39:25Z</time>
      </trkpt>
      <trkpt lat="48.77624" lon="6.36747">
        <ele>196.5</ele>
        <time>2021-07-30T09:39:27Z</time>
      </trkpt>
      <trkpt lat="48.77627" lon="6.36752">
        <ele>196.4</ele>
        <time>2021-07-30T09:39:28Z</time>
      </trkpt>
      <trkpt lat="48.7763" lon="6.36756">
        <ele>196.4</ele>
        <time>2021-07-30T09:39:29Z</time>
      </trkpt>
      <trkpt lat="48.77634" lon="6.36758">
        <ele>196.3</ele>
        <time>2021-07-30T09:39:30Z</time>
      </trkpt>
      <trkpt lat="48.77638" lon="6.36762">
        <ele>196.3</ele>
        <time>2021-07-30T09:39:32Z</time>
      </trkpt>
      <trkpt lat="48.77642" lon="6.36764">
        <ele>196.1</ele>
        <time>2021-07-30T09:39:33Z</time>
      </trkpt>
      <trkpt lat="48.77645" lon="6.36765">
        <ele>196.1</ele>
        <time>2021-07-30T09:39:34Z</time>
      </trkpt>
      <trkpt lat="48.77648" lon="6.36768">
        <ele>196</ele>
        <time>2021-07-30T09:39:36Z</time>
      </trkpt>
      <trkpt lat="48.77651" lon="6.36772">
        <ele>196</ele>
        <time>2021-07-30T09:39:37Z</time>
      </trkpt>
      <trkpt lat="48.77652" lon="6.36778">
        <ele>196.1</ele>
        <time>2021-07-30T09:39:38Z</time>
      </trkpt>
      <trkpt lat="48.77654" lon="6.36782">
        <ele>196.3</ele>
        <time>2021-07-30T09:39:39Z</time>
      </trkpt>
      <trkpt lat="48.77656" lon="6.36787">
        <ele>196.3</ele>
        <time>2021-07-30T09:39:41Z</time>
      </trkpt>
      <trkpt lat="48.7766" lon="6.36791">
        <ele>196.4</ele>
        <time>2021-07-30T09:39:42Z</time>
      </trkpt>
      <trkpt lat="48.77663" lon="6.36793">
        <ele>196.4</ele>
        <time>2021-07-30T09:39:43Z</time>
      </trkpt>
      <trkpt lat="48.77664" lon="6.36793">
        <ele>196.4</ele>
        <time>2021-07-30T09:39:44Z</time>
      </trkpt>
      <trkpt lat="48.77664" lon="6.36795">
        <ele>196.3</ele>
        <time>2021-07-30T09:39:45Z</time>
      </trkpt>
      <trkpt lat="48.77665" lon="6.36797">
        <ele>196.4</ele>
        <time>2021-07-30T09:39:47Z</time>
      </trkpt>
      <trkpt lat="48.77665" lon="6.36799">
        <ele>196.4</ele>
        <time>2021-07-30T09:39:48Z</time>
      </trkpt>
      <trkpt lat="48.77665" lon="6.36807">
        <ele>196.7</ele>
        <time>2021-07-30T09:39:50Z</time>
      </trkpt>
      <trkpt lat="48.77665" lon="6.36809">
        <ele>196.9</ele>
        <time>2021-07-30T09:39:51Z</time>
      </trkpt>
      <trkpt lat="48.77665" lon="6.36812">
        <ele>196.9</ele>
        <time>2021-07-30T09:39:52Z</time>
      </trkpt>
      <trkpt lat="48.77665" lon="6.36818">
        <ele>197.2</ele>
        <time>2021-07-30T09:39:54Z</time>
      </trkpt>
      <trkpt lat="48.77666" lon="6.36822">
        <ele>197.3</ele>
        <time>2021-07-30T09:39:55Z</time>
      </trkpt>
      <trkpt lat="48.77667" lon="6.36827">
        <ele>197.3</ele>
        <time>2021-07-30T09:39:56Z</time>
      </trkpt>
      <trkpt lat="48.77668" lon="6.36831">
        <ele>197.5</ele>
        <time>2021-07-30T09:39:57Z</time>
      </trkpt>
      <trkpt lat="48.77671" lon="6.36836">
        <ele>197.5</ele>
        <time>2021-07-30T09:39:59Z</time>
      </trkpt>
      <trkpt lat="48.77674" lon="6.36841">
        <ele>197.6</ele>
        <time>2021-07-30T09:40:00Z</time>
      </trkpt>
      <trkpt lat="48.77677" lon="6.36846">
        <ele>197.6</ele>
        <time>2021-07-30T09:40:01Z</time>
      </trkpt>
      <trkpt lat="48.77679" lon="6.36852">
        <ele>197.8</ele>
        <time>2021-07-30T09:40:02Z</time>
      </trkpt>
      <trkpt lat="48.77681" lon="6.3686">
        <ele>198</ele>
        <time>2021-07-30T09:40:03Z</time>
      </trkpt>
      <trkpt lat="48.77682" lon="6.36866">
        <ele>198.1</ele>
        <time>2021-07-30T09:40:05Z</time>
      </trkpt>
      <trkpt lat="48.77685" lon="6.36872">
        <ele>198.2</ele>
        <time>2021-07-30T09:40:06Z</time>
      </trkpt>
      <trkpt lat="48.77687" lon="6.36878">
        <ele>198.3</ele>
        <time>2021-07-30T09:40:07Z</time>
      </trkpt>
      <trkpt lat="48.77688" lon="6.36883">
        <ele>198.4</ele>
        <time>2021-07-30T09:40:08Z</time>
      </trkpt>
      <trkpt lat="48.77692" lon="6.36892">
        <ele>198.4</ele>
        <time>2021-07-30T09:40:10Z</time>
      </trkpt>
      <trkpt lat="48.77696" lon="6.36896">
        <ele>198.4</ele>
        <time>2021-07-30T09:40:12Z</time>
      </trkpt>
      <trkpt lat="48.77699" lon="6.369">
        <ele>198.4</ele>
        <time>2021-07-30T09:40:13Z</time>
      </trkpt>
      <trkpt lat="48.77702" lon="6.36903">
        <ele>198.5</ele>
        <time>2021-07-30T09:40:14Z</time>
      </trkpt>
      <trkpt lat="48.77705" lon="6.36907">
        <ele>198.5</ele>
        <time>2021-07-30T09:40:15Z</time>
      </trkpt>
      <trkpt lat="48.77709" lon="6.36912">
        <ele>198.5</ele>
        <time>2021-07-30T09:40:16Z</time>
      </trkpt>
      <trkpt lat="48.77713" lon="6.36916">
        <ele>198.5</ele>
        <time>2021-07-30T09:40:17Z</time>
      </trkpt>
      <trkpt lat="48.77719" lon="6.3692">
        <ele>198.4</ele>
        <time>2021-07-30T09:40:19Z</time>
      </trkpt>
      <trkpt lat="48.77725" lon="6.36924">
        <ele>198.3</ele>
        <time>2021-07-30T09:40:20Z</time>
      </trkpt>
      <trkpt lat="48.7773" lon="6.36929">
        <ele>198.3</ele>
        <time>2021-07-30T09:40:22Z</time>
      </trkpt>
      <trkpt lat="48.77733" lon="6.36932">
        <ele>198.2</ele>
        <time>2021-07-30T09:40:23Z</time>
      </trkpt>
      <trkpt lat="48.77736" lon="6.36936">
        <ele>198.2</ele>
        <time>2021-07-30T09:40:24Z</time>
      </trkpt>
      <trkpt lat="48.77738" lon="6.36942">
        <ele>198.4</ele>
        <time>2021-07-30T09:40:26Z</time>
      </trkpt>
      <trkpt lat="48.77739" lon="6.36946">
        <ele>198.4</ele>
        <time>2021-07-30T09:40:27Z</time>
      </trkpt>
      <trkpt lat="48.77741" lon="6.3695">
        <ele>198.5</ele>
        <time>2021-07-30T09:40:28Z</time>
      </trkpt>
      <trkpt lat="48.77745" lon="6.36954">
        <ele>198.6</ele>
        <time>2021-07-30T09:40:29Z</time>
      </trkpt>
      <trkpt lat="48.77747" lon="6.36958">
        <ele>198.7</ele>
        <time>2021-07-30T09:40:30Z</time>
      </trkpt>
      <trkpt lat="48.77749" lon="6.36967">
        <ele>198.8</ele>
        <time>2021-07-30T09:40:32Z</time>
      </trkpt>
      <trkpt lat="48.77752" lon="6.3697">
        <ele>198.8</ele>
        <time>2021-07-30T09:40:33Z</time>
      </trkpt>
      <trkpt lat="48.77755" lon="6.36972">
        <ele>198.8</ele>
        <time>2021-07-30T09:40:34Z</time>
      </trkpt>
      <trkpt lat="48.77759" lon="6.3698">
        <ele>198.9</ele>
        <time>2021-07-30T09:40:36Z</time>
      </trkpt>
      <trkpt lat="48.77766" lon="6.36987">
        <ele>199</ele>
        <time>2021-07-30T09:40:38Z</time>
      </trkpt>
      <trkpt lat="48.77768" lon="6.3699">
        <ele>199.1</ele>
        <time>2021-07-30T09:40:39Z</time>
      </trkpt>
      <trkpt lat="48.7777" lon="6.36994">
        <ele>199.1</ele>
        <time>2021-07-30T09:40:40Z</time>
      </trkpt>
      <trkpt lat="48.77775" lon="6.36999">
        <ele>199.2</ele>
        <time>2021-07-30T09:40:42Z</time>
      </trkpt>
      <trkpt lat="48.77781" lon="6.37004">
        <ele>199.3</ele>
        <time>2021-07-30T09:40:44Z</time>
      </trkpt>
      <trkpt lat="48.77785" lon="6.3701">
        <ele>199.4</ele>
        <time>2021-07-30T09:40:46Z</time>
      </trkpt>
      <trkpt lat="48.77789" lon="6.37016">
        <ele>199.5</ele>
        <time>2021-07-30T09:40:48Z</time>
      </trkpt>
      <trkpt lat="48.77792" lon="6.37019">
        <ele>199.6</ele>
        <time>2021-07-30T09:40:49Z</time>
      </trkpt>
      <trkpt lat="48.77794" lon="6.37024">
        <ele>199.6</ele>
        <time>2021-07-30T09:40:51Z</time>
      </trkpt>
      <trkpt lat="48.77798" lon="6.3703">
        <ele>199.7</ele>
        <time>2021-07-30T09:40:52Z</time>
      </trkpt>
      <trkpt lat="48.778" lon="6.37037">
        <ele>199.8</ele>
        <time>2021-07-30T09:40:54Z</time>
      </trkpt>
      <trkpt lat="48.77801" lon="6.3704">
        <ele>199.8</ele>
        <time>2021-07-30T09:40:55Z</time>
      </trkpt>
      <trkpt lat="48.77803" lon="6.37044">
        <ele>199.9</ele>
        <time>2021-07-30T09:40:56Z</time>
      </trkpt>
      <trkpt lat="48.77806" lon="6.37047">
        <ele>199.9</ele>
        <time>2021-07-30T09:40:57Z</time>
      </trkpt>
      <trkpt lat="48.77809" lon="6.37053">
        <ele>200</ele>
        <time>2021-07-30T09:40:59Z</time>
      </trkpt>
      <trkpt lat="48.77812" lon="6.37056">
        <ele>200</ele>
        <time>2021-07-30T09:41:00Z</time>
      </trkpt>
      <trkpt lat="48.77815" lon="6.37062">
        <ele>200.1</ele>
        <time>2021-07-30T09:41:02Z</time>
      </trkpt>
      <trkpt lat="48.77817" lon="6.37064">
        <ele>200.1</ele>
        <time>2021-07-30T09:41:03Z</time>
      </trkpt>
      <trkpt lat="48.77819" lon="6.37069">
        <ele>200.1</ele>
        <time>2021-07-30T09:41:05Z</time>
      </trkpt>
      <trkpt lat="48.7782" lon="6.37071">
        <ele>200.2</ele>
        <time>2021-07-30T09:41:06Z</time>
      </trkpt>
      <trkpt lat="48.77825" lon="6.37078">
        <ele>200.2</ele>
        <time>2021-07-30T09:41:08Z</time>
      </trkpt>
      <trkpt lat="48.77829" lon="6.37085">
        <ele>200.3</ele>
        <time>2021-07-30T09:41:10Z</time>
      </trkpt>
      <trkpt lat="48.7783" lon="6.37088">
        <ele>200.3</ele>
        <time>2021-07-30T09:41:11Z</time>
      </trkpt>
      <trkpt lat="48.77832" lon="6.37095">
        <ele>200.3</ele>
        <time>2021-07-30T09:41:13Z</time>
      </trkpt>
      <trkpt lat="48.77833" lon="6.37098">
        <ele>200.3</ele>
        <time>2021-07-30T09:41:14Z</time>
      </trkpt>
      <trkpt lat="48.77837" lon="6.37107">
        <ele>200.4</ele>
        <time>2021-07-30T09:41:16Z</time>
      </trkpt>
      <trkpt lat="48.7784" lon="6.37111">
        <ele>200.5</ele>
        <time>2021-07-30T09:41:17Z</time>
      </trkpt>
      <trkpt lat="48.77843" lon="6.37116">
        <ele>200.5</ele>
        <time>2021-07-30T09:41:18Z</time>
      </trkpt>
      <trkpt lat="48.77847" lon="6.37123">
        <ele>200.6</ele>
        <time>2021-07-30T09:41:20Z</time>
      </trkpt>
      <trkpt lat="48.7785" lon="6.37127">
        <ele>200.6</ele>
        <time>2021-07-30T09:41:21Z</time>
      </trkpt>
      <trkpt lat="48.77853" lon="6.37134">
        <ele>200.7</ele>
        <time>2021-07-30T09:41:23Z</time>
      </trkpt>
      <trkpt lat="48.77855" lon="6.37138">
        <ele>200.7</ele>
        <time>2021-07-30T09:41:24Z</time>
      </trkpt>
      <trkpt lat="48.77856" lon="6.37141">
        <ele>200.7</ele>
        <time>2021-07-30T09:41:25Z</time>
      </trkpt>
      <trkpt lat="48.77857" lon="6.37143">
        <ele>200.7</ele>
        <time>2021-07-30T09:41:26Z</time>
      </trkpt>
      <trkpt lat="48.77856" lon="6.37149">
        <ele>200.8</ele>
        <time>2021-07-30T09:41:28Z</time>
      </trkpt>
      <trkpt lat="48.77856" lon="6.37155">
        <ele>200.8</ele>
        <time>2021-07-30T09:41:29Z</time>
      </trkpt>
      <trkpt lat="48.77856" lon="6.37157">
        <ele>200.8</ele>
        <time>2021-07-30T09:41:30Z</time>
      </trkpt>
      <trkpt lat="48.77858" lon="6.37163">
        <ele>200.9</ele>
        <time>2021-07-30T09:41:32Z</time>
      </trkpt>
      <trkpt lat="48.7786" lon="6.37166">
        <ele>200.9</ele>
        <time>2021-07-30T09:41:33Z</time>
      </trkpt>
      <trkpt lat="48.77863" lon="6.37171">
        <ele>201</ele>
        <time>2021-07-30T09:41:34Z</time>
      </trkpt>
      <trkpt lat="48.77867" lon="6.37175">
        <ele>201.1</ele>
        <time>2021-07-30T09:41:35Z</time>
      </trkpt>
      <trkpt lat="48.77869" lon="6.37179">
        <ele>201.1</ele>
        <time>2021-07-30T09:41:36Z</time>
      </trkpt>
      <trkpt lat="48.77873" lon="6.37187">
        <ele>201.1</ele>
        <time>2021-07-30T09:41:38Z</time>
      </trkpt>
      <trkpt lat="48.77875" lon="6.37193">
        <ele>201.2</ele>
        <time>2021-07-30T09:41:39Z</time>
      </trkpt>
      <trkpt lat="48.77877" lon="6.37199">
        <ele>201.2</ele>
        <time>2021-07-30T09:41:40Z</time>
      </trkpt>
      <trkpt lat="48.7788" lon="6.37207">
        <ele>201.3</ele>
        <time>2021-07-30T09:41:42Z</time>
      </trkpt>
      <trkpt lat="48.77882" lon="6.37213">
        <ele>201.3</ele>
        <time>2021-07-30T09:41:43Z</time>
      </trkpt>
      <trkpt lat="48.77882" lon="6.37225">
        <ele>201.4</ele>
        <time>2021-07-30T09:41:45Z</time>
      </trkpt>
      <trkpt lat="48.77882" lon="6.37231">
        <ele>201.5</ele>
        <time>2021-07-30T09:41:46Z</time>
      </trkpt>
      <trkpt lat="48.77883" lon="6.37238">
        <ele>201.6</ele>
        <time>2021-07-30T09:41:47Z</time>
      </trkpt>
      <trkpt lat="48.77886" lon="6.37243">
        <ele>201.6</ele>
        <time>2021-07-30T09:41:48Z</time>
      </trkpt>
      <trkpt lat="48.77888" lon="6.3725">
        <ele>201.7</ele>
        <time>2021-07-30T09:41:50Z</time>
      </trkpt>
      <trkpt lat="48.77889" lon="6.37257">
        <ele>201.8</ele>
        <time>2021-07-30T09:41:51Z</time>
      </trkpt>
      <trkpt lat="48.77891" lon="6.37267">
        <ele>201.9</ele>
        <time>2021-07-30T09:41:53Z</time>
      </trkpt>
      <trkpt lat="48.77893" lon="6.37272">
        <ele>201.9</ele>
        <time>2021-07-30T09:41:54Z</time>
      </trkpt>
      <trkpt lat="48.77897" lon="6.37283">
        <ele>202</ele>
        <time>2021-07-30T09:41:56Z</time>
      </trkpt>
      <trkpt lat="48.77898" lon="6.37289">
        <ele>202.1</ele>
        <time>2021-07-30T09:41:57Z</time>
      </trkpt>
      <trkpt lat="48.779" lon="6.37296">
        <ele>202.1</ele>
        <time>2021-07-30T09:41:58Z</time>
      </trkpt>
      <trkpt lat="48.77901" lon="6.37306">
        <ele>202.2</ele>
        <time>2021-07-30T09:42:00Z</time>
      </trkpt>
      <trkpt lat="48.77902" lon="6.37315">
        <ele>202.3</ele>
        <time>2021-07-30T09:42:01Z</time>
      </trkpt>
      <trkpt lat="48.77902" lon="6.37324">
        <ele>202.3</ele>
        <time>2021-07-30T09:42:03Z</time>
      </trkpt>
      <trkpt lat="48.77902" lon="6.37329">
        <ele>202.4</ele>
        <time>2021-07-30T09:42:04Z</time>
      </trkpt>
      <trkpt lat="48.77903" lon="6.37334">
        <ele>202.4</ele>
        <time>2021-07-30T09:42:05Z</time>
      </trkpt>
      <trkpt lat="48.77905" lon="6.3734">
        <ele>202.4</ele>
        <time>2021-07-30T09:42:06Z</time>
      </trkpt>
      <trkpt lat="48.77907" lon="6.37349">
        <ele>202.5</ele>
        <time>2021-07-30T09:42:08Z</time>
      </trkpt>
      <trkpt lat="48.77908" lon="6.37354">
        <ele>202.5</ele>
        <time>2021-07-30T09:42:09Z</time>
      </trkpt>
      <trkpt lat="48.77909" lon="6.37362">
        <ele>202.6</ele>
        <time>2021-07-30T09:42:11Z</time>
      </trkpt>
      <trkpt lat="48.7791" lon="6.37367">
        <ele>202.6</ele>
        <time>2021-07-30T09:42:12Z</time>
      </trkpt>
      <trkpt lat="48.77911" lon="6.37371">
        <ele>202.7</ele>
        <time>2021-07-30T09:42:13Z</time>
      </trkpt>
      <trkpt lat="48.77912" lon="6.37375">
        <ele>202.7</ele>
        <time>2021-07-30T09:42:14Z</time>
      </trkpt>
      <trkpt lat="48.77913" lon="6.37379">
        <ele>202.8</ele>
        <time>2021-07-30T09:42:15Z</time>
      </trkpt>
      <trkpt lat="48.77915" lon="6.37383">
        <ele>202.8</ele>
        <time>2021-07-30T09:42:17Z</time>
      </trkpt>
      <trkpt lat="48.77917" lon="6.37388">
        <ele>202.9</ele>
        <time>2021-07-30T09:42:18Z</time>
      </trkpt>
      <trkpt lat="48.77917" lon="6.3739">
        <ele>202.9</ele>
        <time>2021-07-30T09:42:19Z</time>
      </trkpt>
      <trkpt lat="48.77919" lon="6.37395">
        <ele>202.9</ele>
        <time>2021-07-30T09:42:20Z</time>
      </trkpt>
      <trkpt lat="48.77919" lon="6.37397">
        <ele>202.9</ele>
        <time>2021-07-30T09:42:21Z</time>
      </trkpt>
      <trkpt lat="48.77921" lon="6.37399">
        <ele>203</ele>
        <time>2021-07-30T09:42:22Z</time>
      </trkpt>
      <trkpt lat="48.77925" lon="6.37403">
        <ele>203</ele>
        <time>2021-07-30T09:42:24Z</time>
      </trkpt>
      <trkpt lat="48.77926" lon="6.37407">
        <ele>203</ele>
        <time>2021-07-30T09:42:25Z</time>
      </trkpt>
      <trkpt lat="48.77927" lon="6.37409">
        <ele>203.1</ele>
        <time>2021-07-30T09:42:26Z</time>
      </trkpt>
      <trkpt lat="48.77928" lon="6.37415">
        <ele>203.1</ele>
        <time>2021-07-30T09:42:28Z</time>
      </trkpt>
      <trkpt lat="48.7793" lon="6.3742">
        <ele>203.2</ele>
        <time>2021-07-30T09:42:29Z</time>
      </trkpt>
      <trkpt lat="48.77931" lon="6.37425">
        <ele>203.2</ele>
        <time>2021-07-30T09:42:30Z</time>
      </trkpt>
      <trkpt lat="48.77929" lon="6.37435">
        <ele>203.3</ele>
        <time>2021-07-30T09:42:32Z</time>
      </trkpt>
      <trkpt lat="48.77925" lon="6.37443">
        <ele>203.4</ele>
        <time>2021-07-30T09:42:33Z</time>
      </trkpt>
      <trkpt lat="48.77919" lon="6.37457">
        <ele>203.6</ele>
        <time>2021-07-30T09:42:35Z</time>
      </trkpt>
      <trkpt lat="48.77916" lon="6.37464">
        <ele>203.6</ele>
        <time>2021-07-30T09:42:36Z</time>
      </trkpt>
      <trkpt lat="48.77913" lon="6.37472">
        <ele>203.7</ele>
        <time>2021-07-30T09:42:37Z</time>
      </trkpt>
      <trkpt lat="48.7791" lon="6.37477">
        <ele>203.7</ele>
        <time>2021-07-30T09:42:38Z</time>
      </trkpt>
      <trkpt lat="48.77906" lon="6.37485">
        <ele>203.8</ele>
        <time>2021-07-30T09:42:40Z</time>
      </trkpt>
      <trkpt lat="48.77904" lon="6.37489">
        <ele>203.8</ele>
        <time>2021-07-30T09:42:41Z</time>
      </trkpt>
      <trkpt lat="48.77902" lon="6.37497">
        <ele>203.9</ele>
        <time>2021-07-30T09:42:42Z</time>
      </trkpt>
      <trkpt lat="48.779" lon="6.37509">
        <ele>204</ele>
        <time>2021-07-30T09:42:44Z</time>
      </trkpt>
      <trkpt lat="48.779" lon="6.37517">
        <ele>204</ele>
        <time>2021-07-30T09:42:45Z</time>
      </trkpt>
      <trkpt lat="48.779" lon="6.37524">
        <ele>204.1</ele>
        <time>2021-07-30T09:42:46Z</time>
      </trkpt>
      <trkpt lat="48.77901" lon="6.37533">
        <ele>204.1</ele>
        <time>2021-07-30T09:42:47Z</time>
      </trkpt>
      <trkpt lat="48.77903" lon="6.37543">
        <ele>204.2</ele>
        <time>2021-07-30T09:42:48Z</time>
      </trkpt>
      <trkpt lat="48.77904" lon="6.37551">
        <ele>204.2</ele>
        <time>2021-07-30T09:42:49Z</time>
      </trkpt>
      <trkpt lat="48.77904" lon="6.37558">
        <ele>204.3</ele>
        <time>2021-07-30T09:42:51Z</time>
      </trkpt>
      <trkpt lat="48.77903" lon="6.37565">
        <ele>204.3</ele>
        <time>2021-07-30T09:42:52Z</time>
      </trkpt>
      <trkpt lat="48.77903" lon="6.37572">
        <ele>204.4</ele>
        <time>2021-07-30T09:42:53Z</time>
      </trkpt>
      <trkpt lat="48.77902" lon="6.37577">
        <ele>204.4</ele>
        <time>2021-07-30T09:42:54Z</time>
      </trkpt>
      <trkpt lat="48.77903" lon="6.37584">
        <ele>204.4</ele>
        <time>2021-07-30T09:42:55Z</time>
      </trkpt>
      <trkpt lat="48.77903" lon="6.37593">
        <ele>204.4</ele>
        <time>2021-07-30T09:42:57Z</time>
      </trkpt>
      <trkpt lat="48.77902" lon="6.37598">
        <ele>204.5</ele>
        <time>2021-07-30T09:42:58Z</time>
      </trkpt>
      <trkpt lat="48.77902" lon="6.37603">
        <ele>204.5</ele>
        <time>2021-07-30T09:42:59Z</time>
      </trkpt>
      <trkpt lat="48.77902" lon="6.37609">
        <ele>204.5</ele>
        <time>2021-07-30T09:43:00Z</time>
      </trkpt>
      <trkpt lat="48.77901" lon="6.37617">
        <ele>204.5</ele>
        <time>2021-07-30T09:43:02Z</time>
      </trkpt>
      <trkpt lat="48.77899" lon="6.37626">
        <ele>204.6</ele>
        <time>2021-07-30T09:43:04Z</time>
      </trkpt>
      <trkpt lat="48.77898" lon="6.37632">
        <ele>204.6</ele>
        <time>2021-07-30T09:43:06Z</time>
      </trkpt>
      <trkpt lat="48.77897" lon="6.37638">
        <ele>204.6</ele>
        <time>2021-07-30T09:43:07Z</time>
      </trkpt>
      <trkpt lat="48.77897" lon="6.37642">
        <ele>204.7</ele>
        <time>2021-07-30T09:43:08Z</time>
      </trkpt>
      <trkpt lat="48.77897" lon="6.37649">
        <ele>204.7</ele>
        <time>2021-07-30T09:43:10Z</time>
      </trkpt>
      <trkpt lat="48.77897" lon="6.37654">
        <ele>204.7</ele>
        <time>2021-07-30T09:43:11Z</time>
      </trkpt>
      <trkpt lat="48.77897" lon="6.3766">
        <ele>204.8</ele>
        <time>2021-07-30T09:43:12Z</time>
      </trkpt>
      <trkpt lat="48.77897" lon="6.37665">
        <ele>204.8</ele>
        <time>2021-07-30T09:43:13Z</time>
      </trkpt>
      <trkpt lat="48.77897" lon="6.37671">
        <ele>204.8</ele>
        <time>2021-07-30T09:43:14Z</time>
      </trkpt>
      <trkpt lat="48.77897" lon="6.37677">
        <ele>204.9</ele>
        <time>2021-07-30T09:43:15Z</time>
      </trkpt>
      <trkpt lat="48.77897" lon="6.37685">
        <ele>205</ele>
        <time>2021-07-30T09:43:17Z</time>
      </trkpt>
      <trkpt lat="48.77897" lon="6.37691">
        <ele>205</ele>
        <time>2021-07-30T09:43:18Z</time>
      </trkpt>
      <trkpt lat="48.77896" lon="6.37698">
        <ele>205.1</ele>
        <time>2021-07-30T09:43:19Z</time>
      </trkpt>
      <trkpt lat="48.77895" lon="6.37705">
        <ele>205.2</ele>
        <time>2021-07-30T09:43:20Z</time>
      </trkpt>
      <trkpt lat="48.77895" lon="6.3771">
        <ele>205.2</ele>
        <time>2021-07-30T09:43:22Z</time>
      </trkpt>
      <trkpt lat="48.77894" lon="6.37716">
        <ele>205.2</ele>
        <time>2021-07-30T09:43:23Z</time>
      </trkpt>
      <trkpt lat="48.77893" lon="6.37722">
        <ele>205.2</ele>
        <time>2021-07-30T09:43:24Z</time>
      </trkpt>
      <trkpt lat="48.77891" lon="6.37727">
        <ele>205.2</ele>
        <time>2021-07-30T09:43:25Z</time>
      </trkpt>
      <trkpt lat="48.77891" lon="6.37732">
        <ele>205.2</ele>
        <time>2021-07-30T09:43:26Z</time>
      </trkpt>
      <trkpt lat="48.7789" lon="6.37741">
        <ele>205.1</ele>
        <time>2021-07-30T09:43:28Z</time>
      </trkpt>
      <trkpt lat="48.77889" lon="6.37747">
        <ele>205.1</ele>
        <time>2021-07-30T09:43:30Z</time>
      </trkpt>
      <trkpt lat="48.77888" lon="6.37755">
        <ele>205</ele>
        <time>2021-07-30T09:43:31Z</time>
      </trkpt>
      <trkpt lat="48.77887" lon="6.37761">
        <ele>205</ele>
        <time>2021-07-30T09:43:32Z</time>
      </trkpt>
      <trkpt lat="48.77888" lon="6.37767">
        <ele>204.9</ele>
        <time>2021-07-30T09:43:33Z</time>
      </trkpt>
      <trkpt lat="48.77887" lon="6.37777">
        <ele>204.9</ele>
        <time>2021-07-30T09:43:35Z</time>
      </trkpt>
      <trkpt lat="48.77888" lon="6.37785">
        <ele>204.9</ele>
        <time>2021-07-30T09:43:36Z</time>
      </trkpt>
      <trkpt lat="48.77888" lon="6.37791">
        <ele>204.8</ele>
        <time>2021-07-30T09:43:37Z</time>
      </trkpt>
      <trkpt lat="48.77887" lon="6.37803">
        <ele>204.8</ele>
        <time>2021-07-30T09:43:39Z</time>
      </trkpt>
      <trkpt lat="48.77887" lon="6.3781">
        <ele>204.7</ele>
        <time>2021-07-30T09:43:41Z</time>
      </trkpt>
      <trkpt lat="48.77887" lon="6.37816">
        <ele>204.7</ele>
        <time>2021-07-30T09:43:42Z</time>
      </trkpt>
      <trkpt lat="48.77887" lon="6.37822">
        <ele>204.6</ele>
        <time>2021-07-30T09:43:44Z</time>
      </trkpt>
      <trkpt lat="48.77887" lon="6.37824">
        <ele>204.6</ele>
        <time>2021-07-30T09:43:45Z</time>
      </trkpt>
      <trkpt lat="48.77885" lon="6.37831">
        <ele>204.6</ele>
        <time>2021-07-30T09:43:47Z</time>
      </trkpt>
      <trkpt lat="48.77884" lon="6.37833">
        <ele>204.6</ele>
        <time>2021-07-30T09:43:48Z</time>
      </trkpt>
      <trkpt lat="48.77883" lon="6.37836">
        <ele>204.6</ele>
        <time>2021-07-30T09:43:49Z</time>
      </trkpt>
      <trkpt lat="48.77881" lon="6.37839">
        <ele>204.5</ele>
        <time>2021-07-30T09:43:50Z</time>
      </trkpt>
      <trkpt lat="48.77878" lon="6.37845">
        <ele>204.5</ele>
        <time>2021-07-30T09:43:51Z</time>
      </trkpt>
      <trkpt lat="48.77876" lon="6.3785">
        <ele>204.5</ele>
        <time>2021-07-30T09:43:52Z</time>
      </trkpt>
      <trkpt lat="48.77874" lon="6.37859">
        <ele>204.4</ele>
        <time>2021-07-30T09:43:54Z</time>
      </trkpt>
      <trkpt lat="48.77873" lon="6.37865">
        <ele>204.4</ele>
        <time>2021-07-30T09:43:55Z</time>
      </trkpt>
      <trkpt lat="48.77871" lon="6.37871">
        <ele>204.3</ele>
        <time>2021-07-30T09:43:57Z</time>
      </trkpt>
      <trkpt lat="48.7787" lon="6.37877">
        <ele>204.3</ele>
        <time>2021-07-30T09:43:58Z</time>
      </trkpt>
      <trkpt lat="48.77868" lon="6.37882">
        <ele>204.2</ele>
        <time>2021-07-30T09:43:59Z</time>
      </trkpt>
      <trkpt lat="48.77865" lon="6.37889">
        <ele>204.1</ele>
        <time>2021-07-30T09:44:01Z</time>
      </trkpt>
      <trkpt lat="48.77863" lon="6.37898">
        <ele>204.1</ele>
        <time>2021-07-30T09:44:02Z</time>
      </trkpt>
      <trkpt lat="48.7786" lon="6.37907">
        <ele>203.9</ele>
        <time>2021-07-30T09:44:04Z</time>
      </trkpt>
      <trkpt lat="48.77857" lon="6.37912">
        <ele>203.9</ele>
        <time>2021-07-30T09:44:05Z</time>
      </trkpt>
      <trkpt lat="48.77853" lon="6.37919">
        <ele>203.8</ele>
        <time>2021-07-30T09:44:07Z</time>
      </trkpt>
      <trkpt lat="48.77849" lon="6.37926">
        <ele>203.8</ele>
        <time>2021-07-30T09:44:08Z</time>
      </trkpt>
      <trkpt lat="48.77846" lon="6.37934">
        <ele>203.7</ele>
        <time>2021-07-30T09:44:10Z</time>
      </trkpt>
      <trkpt lat="48.77843" lon="6.37938">
        <ele>203.7</ele>
        <time>2021-07-30T09:44:11Z</time>
      </trkpt>
      <trkpt lat="48.7784" lon="6.37943">
        <ele>203.7</ele>
        <time>2021-07-30T09:44:12Z</time>
      </trkpt>
      <trkpt lat="48.77836" lon="6.37952">
        <ele>203.6</ele>
        <time>2021-07-30T09:44:14Z</time>
      </trkpt>
      <trkpt lat="48.77834" lon="6.37958">
        <ele>203.6</ele>
        <time>2021-07-30T09:44:15Z</time>
      </trkpt>
      <trkpt lat="48.77832" lon="6.37963">
        <ele>203.5</ele>
        <time>2021-07-30T09:44:16Z</time>
      </trkpt>
      <trkpt lat="48.7783" lon="6.37969">
        <ele>203.5</ele>
        <time>2021-07-30T09:44:17Z</time>
      </trkpt>
      <trkpt lat="48.77828" lon="6.37975">
        <ele>203.5</ele>
        <time>2021-07-30T09:44:18Z</time>
      </trkpt>
      <trkpt lat="48.77826" lon="6.3798">
        <ele>203.4</ele>
        <time>2021-07-30T09:44:19Z</time>
      </trkpt>
      <trkpt lat="48.77825" lon="6.37986">
        <ele>203.4</ele>
        <time>2021-07-30T09:44:20Z</time>
      </trkpt>
      <trkpt lat="48.77822" lon="6.37994">
        <ele>203.3</ele>
        <time>2021-07-30T09:44:22Z</time>
      </trkpt>
      <trkpt lat="48.7782" lon="6.38">
        <ele>203.2</ele>
        <time>2021-07-30T09:44:23Z</time>
      </trkpt>
      <trkpt lat="48.77817" lon="6.38005">
        <ele>203.2</ele>
        <time>2021-07-30T09:44:24Z</time>
      </trkpt>
      <trkpt lat="48.77814" lon="6.38013">
        <ele>203.1</ele>
        <time>2021-07-30T09:44:26Z</time>
      </trkpt>
      <trkpt lat="48.77813" lon="6.38018">
        <ele>203.1</ele>
        <time>2021-07-30T09:44:27Z</time>
      </trkpt>
      <trkpt lat="48.77813" lon="6.38023">
        <ele>203.1</ele>
        <time>2021-07-30T09:44:28Z</time>
      </trkpt>
      <trkpt lat="48.77813" lon="6.38031">
        <ele>203.1</ele>
        <time>2021-07-30T09:44:30Z</time>
      </trkpt>
      <trkpt lat="48.77814" lon="6.38035">
        <ele>203.1</ele>
        <time>2021-07-30T09:44:31Z</time>
      </trkpt>
      <trkpt lat="48.77814" lon="6.38041">
        <ele>203.1</ele>
        <time>2021-07-30T09:44:32Z</time>
      </trkpt>
      <trkpt lat="48.77813" lon="6.38046">
        <ele>203</ele>
        <time>2021-07-30T09:44:33Z</time>
      </trkpt>
      <trkpt lat="48.77813" lon="6.38048">
        <ele>203</ele>
        <time>2021-07-30T09:44:34Z</time>
      </trkpt>
      <trkpt lat="48.7781" lon="6.38055">
        <ele>203</ele>
        <time>2021-07-30T09:44:36Z</time>
      </trkpt>
      <trkpt lat="48.77808" lon="6.3806">
        <ele>203</ele>
        <time>2021-07-30T09:44:37Z</time>
      </trkpt>
      <trkpt lat="48.77807" lon="6.38064">
        <ele>203</ele>
        <time>2021-07-30T09:44:38Z</time>
      </trkpt>
      <trkpt lat="48.77805" lon="6.38068">
        <ele>203</ele>
        <time>2021-07-30T09:44:39Z</time>
      </trkpt>
      <trkpt lat="48.77802" lon="6.38072">
        <ele>202.9</ele>
        <time>2021-07-30T09:44:40Z</time>
      </trkpt>
      <trkpt lat="48.778" lon="6.38077">
        <ele>202.9</ele>
        <time>2021-07-30T09:44:41Z</time>
      </trkpt>
      <trkpt lat="48.77797" lon="6.38084">
        <ele>202.9</ele>
        <time>2021-07-30T09:44:42Z</time>
      </trkpt>
      <trkpt lat="48.77796" lon="6.38089">
        <ele>202.9</ele>
        <time>2021-07-30T09:44:43Z</time>
      </trkpt>
      <trkpt lat="48.77796" lon="6.38093">
        <ele>202.9</ele>
        <time>2021-07-30T09:44:44Z</time>
      </trkpt>
      <trkpt lat="48.77795" lon="6.38098">
        <ele>202.9</ele>
        <time>2021-07-30T09:44:45Z</time>
      </trkpt>
      <trkpt lat="48.77792" lon="6.38105">
        <ele>202.9</ele>
        <time>2021-07-30T09:44:47Z</time>
      </trkpt>
      <trkpt lat="48.7779" lon="6.3811">
        <ele>202.9</ele>
        <time>2021-07-30T09:44:48Z</time>
      </trkpt>
      <trkpt lat="48.77788" lon="6.38117">
        <ele>202.8</ele>
        <time>2021-07-30T09:44:49Z</time>
      </trkpt>
      <trkpt lat="48.77786" lon="6.38122">
        <ele>202.8</ele>
        <time>2021-07-30T09:44:50Z</time>
      </trkpt>
      <trkpt lat="48.77782" lon="6.38127">
        <ele>202.8</ele>
        <time>2021-07-30T09:44:52Z</time>
      </trkpt>
      <trkpt lat="48.77777" lon="6.38131">
        <ele>202.8</ele>
        <time>2021-07-30T09:44:53Z</time>
      </trkpt>
      <trkpt lat="48.77773" lon="6.38135">
        <ele>202.8</ele>
        <time>2021-07-30T09:44:54Z</time>
      </trkpt>
      <trkpt lat="48.77769" lon="6.38139">
        <ele>202.8</ele>
        <time>2021-07-30T09:44:55Z</time>
      </trkpt>
      <trkpt lat="48.77766" lon="6.38143">
        <ele>202.8</ele>
        <time>2021-07-30T09:44:56Z</time>
      </trkpt>
      <trkpt lat="48.7776" lon="6.38152">
        <ele>202.8</ele>
        <time>2021-07-30T09:44:58Z</time>
      </trkpt>
      <trkpt lat="48.77758" lon="6.38159">
        <ele>202.8</ele>
        <time>2021-07-30T09:44:59Z</time>
      </trkpt>
      <trkpt lat="48.77755" lon="6.38166">
        <ele>202.8</ele>
        <time>2021-07-30T09:45:00Z</time>
      </trkpt>
      <trkpt lat="48.77751" lon="6.38177">
        <ele>202.8</ele>
        <time>2021-07-30T09:45:02Z</time>
      </trkpt>
      <trkpt lat="48.77749" lon="6.38183">
        <ele>202.7</ele>
        <time>2021-07-30T09:45:03Z</time>
      </trkpt>
      <trkpt lat="48.77747" lon="6.38194">
        <ele>202.7</ele>
        <time>2021-07-30T09:45:05Z</time>
      </trkpt>
      <trkpt lat="48.77743" lon="6.38204">
        <ele>202.7</ele>
        <time>2021-07-30T09:45:07Z</time>
      </trkpt>
      <trkpt lat="48.7774" lon="6.38214">
        <ele>202.6</ele>
        <time>2021-07-30T09:45:09Z</time>
      </trkpt>
      <trkpt lat="48.77738" lon="6.38219">
        <ele>202.6</ele>
        <time>2021-07-30T09:45:10Z</time>
      </trkpt>
      <trkpt lat="48.77737" lon="6.38224">
        <ele>202.6</ele>
        <time>2021-07-30T09:45:11Z</time>
      </trkpt>
      <trkpt lat="48.77735" lon="6.38233">
        <ele>202.6</ele>
        <time>2021-07-30T09:45:13Z</time>
      </trkpt>
      <trkpt lat="48.77733" lon="6.38241">
        <ele>202.6</ele>
        <time>2021-07-30T09:45:14Z</time>
      </trkpt>
      <trkpt lat="48.77731" lon="6.38253">
        <ele>202.6</ele>
        <time>2021-07-30T09:45:16Z</time>
      </trkpt>
      <trkpt lat="48.77728" lon="6.38258">
        <ele>202.5</ele>
        <time>2021-07-30T09:45:17Z</time>
      </trkpt>
      <trkpt lat="48.77726" lon="6.38262">
        <ele>202.5</ele>
        <time>2021-07-30T09:45:18Z</time>
      </trkpt>
      <trkpt lat="48.77723" lon="6.38266">
        <ele>202.5</ele>
        <time>2021-07-30T09:45:19Z</time>
      </trkpt>
      <trkpt lat="48.77717" lon="6.38273">
        <ele>202.5</ele>
        <time>2021-07-30T09:45:21Z</time>
      </trkpt>
      <trkpt lat="48.77712" lon="6.38278">
        <ele>202.5</ele>
        <time>2021-07-30T09:45:22Z</time>
      </trkpt>
      <trkpt lat="48.77708" lon="6.38285">
        <ele>202.5</ele>
        <time>2021-07-30T09:45:24Z</time>
      </trkpt>
      <trkpt lat="48.77705" lon="6.38289">
        <ele>202.5</ele>
        <time>2021-07-30T09:45:25Z</time>
      </trkpt>
      <trkpt lat="48.77702" lon="6.38293">
        <ele>202.5</ele>
        <time>2021-07-30T09:45:26Z</time>
      </trkpt>
      <trkpt lat="48.777" lon="6.38299">
        <ele>202.5</ele>
        <time>2021-07-30T09:45:27Z</time>
      </trkpt>
      <trkpt lat="48.77697" lon="6.38304">
        <ele>202.5</ele>
        <time>2021-07-30T09:45:28Z</time>
      </trkpt>
      <trkpt lat="48.77695" lon="6.38309">
        <ele>202.4</ele>
        <time>2021-07-30T09:45:29Z</time>
      </trkpt>
      <trkpt lat="48.77693" lon="6.38318">
        <ele>202.4</ele>
        <time>2021-07-30T09:45:31Z</time>
      </trkpt>
      <trkpt lat="48.77692" lon="6.38325">
        <ele>202.4</ele>
        <time>2021-07-30T09:45:32Z</time>
      </trkpt>
      <trkpt lat="48.7769" lon="6.38334">
        <ele>202.4</ele>
        <time>2021-07-30T09:45:33Z</time>
      </trkpt>
      <trkpt lat="48.77688" lon="6.3834">
        <ele>202.4</ele>
        <time>2021-07-30T09:45:34Z</time>
      </trkpt>
      <trkpt lat="48.77685" lon="6.38345">
        <ele>202.4</ele>
        <time>2021-07-30T09:45:36Z</time>
      </trkpt>
      <trkpt lat="48.77683" lon="6.3835">
        <ele>202.4</ele>
        <time>2021-07-30T09:45:37Z</time>
      </trkpt>
      <trkpt lat="48.77683" lon="6.38356">
        <ele>202.4</ele>
        <time>2021-07-30T09:45:38Z</time>
      </trkpt>
      <trkpt lat="48.77681" lon="6.38364">
        <ele>202.4</ele>
        <time>2021-07-30T09:45:39Z</time>
      </trkpt>
      <trkpt lat="48.77679" lon="6.38372">
        <ele>202.4</ele>
        <time>2021-07-30T09:45:41Z</time>
      </trkpt>
      <trkpt lat="48.77677" lon="6.38379">
        <ele>202.4</ele>
        <time>2021-07-30T09:45:42Z</time>
      </trkpt>
      <trkpt lat="48.77676" lon="6.38385">
        <ele>202.4</ele>
        <time>2021-07-30T09:45:43Z</time>
      </trkpt>
      <trkpt lat="48.77675" lon="6.38395">
        <ele>202.4</ele>
        <time>2021-07-30T09:45:45Z</time>
      </trkpt>
      <trkpt lat="48.77674" lon="6.38402">
        <ele>202.3</ele>
        <time>2021-07-30T09:45:46Z</time>
      </trkpt>
      <trkpt lat="48.77673" lon="6.38407">
        <ele>202.3</ele>
        <time>2021-07-30T09:45:48Z</time>
      </trkpt>
      <trkpt lat="48.77671" lon="6.38412">
        <ele>202.3</ele>
        <time>2021-07-30T09:45:49Z</time>
      </trkpt>
      <trkpt lat="48.77668" lon="6.3842">
        <ele>202.3</ele>
        <time>2021-07-30T09:45:50Z</time>
      </trkpt>
      <trkpt lat="48.77667" lon="6.38427">
        <ele>202.2</ele>
        <time>2021-07-30T09:45:52Z</time>
      </trkpt>
      <trkpt lat="48.77665" lon="6.38433">
        <ele>202.2</ele>
        <time>2021-07-30T09:45:53Z</time>
      </trkpt>
      <trkpt lat="48.77663" lon="6.38441">
        <ele>202.1</ele>
        <time>2021-07-30T09:45:54Z</time>
      </trkpt>
      <trkpt lat="48.77661" lon="6.38449">
        <ele>202.1</ele>
        <time>2021-07-30T09:45:56Z</time>
      </trkpt>
      <trkpt lat="48.77661" lon="6.38457">
        <ele>202.1</ele>
        <time>2021-07-30T09:45:57Z</time>
      </trkpt>
      <trkpt lat="48.77661" lon="6.38462">
        <ele>202.1</ele>
        <time>2021-07-30T09:45:58Z</time>
      </trkpt>
      <trkpt lat="48.7766" lon="6.38468">
        <ele>202</ele>
        <time>2021-07-30T09:45:59Z</time>
      </trkpt>
      <trkpt lat="48.77659" lon="6.38474">
        <ele>202</ele>
        <time>2021-07-30T09:46:00Z</time>
      </trkpt>
      <trkpt lat="48.77658" lon="6.38483">
        <ele>202</ele>
        <time>2021-07-30T09:46:02Z</time>
      </trkpt>
      <trkpt lat="48.77655" lon="6.38491">
        <ele>202</ele>
        <time>2021-07-30T09:46:03Z</time>
      </trkpt>
      <trkpt lat="48.77654" lon="6.38496">
        <ele>202</ele>
        <time>2021-07-30T09:46:04Z</time>
      </trkpt>
      <trkpt lat="48.77651" lon="6.38505">
        <ele>201.9</ele>
        <time>2021-07-30T09:46:06Z</time>
      </trkpt>
      <trkpt lat="48.77649" lon="6.38511">
        <ele>201.9</ele>
        <time>2021-07-30T09:46:07Z</time>
      </trkpt>
      <trkpt lat="48.77646" lon="6.38518">
        <ele>201.9</ele>
        <time>2021-07-30T09:46:09Z</time>
      </trkpt>
      <trkpt lat="48.77644" lon="6.38525">
        <ele>201.9</ele>
        <time>2021-07-30T09:46:10Z</time>
      </trkpt>
      <trkpt lat="48.77643" lon="6.38529">
        <ele>202</ele>
        <time>2021-07-30T09:46:11Z</time>
      </trkpt>
      <trkpt lat="48.77641" lon="6.38534">
        <ele>202</ele>
        <time>2021-07-30T09:46:13Z</time>
      </trkpt>
      <trkpt lat="48.77637" lon="6.38538">
        <ele>202</ele>
        <time>2021-07-30T09:46:14Z</time>
      </trkpt>
      <trkpt lat="48.77634" lon="6.38539">
        <ele>202</ele>
        <time>2021-07-30T09:46:15Z</time>
      </trkpt>
      <trkpt lat="48.77632" lon="6.38539">
        <ele>202</ele>
        <time>2021-07-30T09:46:16Z</time>
      </trkpt>
      <trkpt lat="48.77631" lon="6.38539">
        <ele>202</ele>
        <time>2021-07-30T09:46:17Z</time>
      </trkpt>
      <trkpt lat="48.77628" lon="6.38539">
        <ele>202</ele>
        <time>2021-07-30T09:46:19Z</time>
      </trkpt>
      <trkpt lat="48.77627" lon="6.38539">
        <ele>202</ele>
        <time>2021-07-30T09:46:20Z</time>
      </trkpt>
      <trkpt lat="48.77626" lon="6.38539">
        <ele>202</ele>
        <time>2021-07-30T09:46:21Z</time>
      </trkpt>
      <trkpt lat="48.77623" lon="6.38537">
        <ele>202</ele>
        <time>2021-07-30T09:46:22Z</time>
      </trkpt>
      <trkpt lat="48.77622" lon="6.38536">
        <ele>202</ele>
        <time>2021-07-30T09:46:23Z</time>
      </trkpt>
      <trkpt lat="48.77622" lon="6.38535">
        <ele>202</ele>
        <time>2021-07-30T09:46:24Z</time>
      </trkpt>
      <trkpt lat="48.77619" lon="6.38534">
        <ele>202</ele>
        <time>2021-07-30T09:46:27Z</time>
      </trkpt>
      <trkpt lat="48.77619" lon="6.38534">
        <ele>202</ele>
        <time>2021-07-30T09:46:28Z</time>
      </trkpt>
      <trkpt lat="48.7762" lon="6.38534">
        <ele>202</ele>
        <time>2021-07-30T09:46:30Z</time>
      </trkpt>
      <trkpt lat="48.77619" lon="6.38534">
        <ele>202</ele>
        <time>2021-07-30T09:46:33Z</time>
      </trkpt>
      <trkpt lat="48.77619" lon="6.38534">
        <ele>202</ele>
        <time>2021-07-30T09:46:35Z</time>
      </trkpt>
      <trkpt lat="48.77619" lon="6.38533">
        <ele>202</ele>
        <time>2021-07-30T09:46:37Z</time>
      </trkpt>
      <trkpt lat="48.77626" lon="6.38548">
        <ele>201.9</ele>
        <time>2021-07-30T09:53:10Z</time>
      </trkpt>
      <trkpt lat="48.77626" lon="6.38553">
        <ele>201.9</ele>
        <time>2021-07-30T09:53:11Z</time>
      </trkpt>
      <trkpt lat="48.77624" lon="6.38562">
        <ele>201.9</ele>
        <time>2021-07-30T09:53:13Z</time>
      </trkpt>
      <trkpt lat="48.77623" lon="6.38566">
        <ele>201.8</ele>
        <time>2021-07-30T09:53:14Z</time>
      </trkpt>
      <trkpt lat="48.7762" lon="6.3857">
        <ele>201.8</ele>
        <time>2021-07-30T09:53:15Z</time>
      </trkpt>
      <trkpt lat="48.77619" lon="6.38575">
        <ele>201.8</ele>
        <time>2021-07-30T09:53:16Z</time>
      </trkpt>
      <trkpt lat="48.77617" lon="6.38578">
        <ele>201.8</ele>
        <time>2021-07-30T09:53:17Z</time>
      </trkpt>
      <trkpt lat="48.77615" lon="6.38582">
        <ele>201.8</ele>
        <time>2021-07-30T09:53:19Z</time>
      </trkpt>
      <trkpt lat="48.77613" lon="6.38586">
        <ele>201.8</ele>
        <time>2021-07-30T09:53:20Z</time>
      </trkpt>
      <trkpt lat="48.77611" lon="6.38591">
        <ele>201.8</ele>
        <time>2021-07-30T09:53:21Z</time>
      </trkpt>
      <trkpt lat="48.77611" lon="6.38593">
        <ele>201.8</ele>
        <time>2021-07-30T09:53:22Z</time>
      </trkpt>
      <trkpt lat="48.77608" lon="6.38598">
        <ele>201.8</ele>
        <time>2021-07-30T09:53:23Z</time>
      </trkpt>
      <trkpt lat="48.77608" lon="6.38599">
        <ele>201.8</ele>
        <time>2021-07-30T09:53:24Z</time>
      </trkpt>
      <trkpt lat="48.77606" lon="6.38602">
        <ele>201.8</ele>
        <time>2021-07-30T09:53:25Z</time>
      </trkpt>
      <trkpt lat="48.77604" lon="6.38608">
        <ele>201.8</ele>
        <time>2021-07-30T09:53:27Z</time>
      </trkpt>
      <trkpt lat="48.77602" lon="6.38611">
        <ele>201.8</ele>
        <time>2021-07-30T09:53:28Z</time>
      </trkpt>
      <trkpt lat="48.776" lon="6.38615">
        <ele>201.8</ele>
        <time>2021-07-30T09:53:29Z</time>
      </trkpt>
      <trkpt lat="48.77597" lon="6.3862">
        <ele>201.8</ele>
        <time>2021-07-30T09:53:31Z</time>
      </trkpt>
      <trkpt lat="48.77595" lon="6.38625">
        <ele>201.8</ele>
        <time>2021-07-30T09:53:33Z</time>
      </trkpt>
      <trkpt lat="48.77592" lon="6.3863">
        <ele>201.8</ele>
        <time>2021-07-30T09:53:34Z</time>
      </trkpt>
      <trkpt lat="48.77591" lon="6.38631">
        <ele>201.8</ele>
        <time>2021-07-30T09:53:35Z</time>
      </trkpt>
      <trkpt lat="48.77589" lon="6.38636">
        <ele>201.8</ele>
        <time>2021-07-30T09:53:36Z</time>
      </trkpt>
      <trkpt lat="48.77588" lon="6.38638">
        <ele>201.8</ele>
        <time>2021-07-30T09:53:37Z</time>
      </trkpt>
      <trkpt lat="48.77585" lon="6.3864">
        <ele>201.8</ele>
        <time>2021-07-30T09:53:39Z</time>
      </trkpt>
      <trkpt lat="48.77583" lon="6.38643">
        <ele>201.8</ele>
        <time>2021-07-30T09:53:40Z</time>
      </trkpt>
      <trkpt lat="48.7758" lon="6.38646">
        <ele>201.8</ele>
        <time>2021-07-30T09:53:42Z</time>
      </trkpt>
      <trkpt lat="48.77578" lon="6.38649">
        <ele>201.8</ele>
        <time>2021-07-30T09:53:43Z</time>
      </trkpt>
      <trkpt lat="48.77575" lon="6.38653">
        <ele>201.9</ele>
        <time>2021-07-30T09:53:45Z</time>
      </trkpt>
      <trkpt lat="48.77573" lon="6.38656">
        <ele>201.9</ele>
        <time>2021-07-30T09:53:46Z</time>
      </trkpt>
      <trkpt lat="48.77572" lon="6.38657">
        <ele>201.9</ele>
        <time>2021-07-30T09:53:47Z</time>
      </trkpt>
      <trkpt lat="48.7757" lon="6.3866">
        <ele>201.9</ele>
        <time>2021-07-30T09:53:49Z</time>
      </trkpt>
      <trkpt lat="48.77568" lon="6.38664">
        <ele>201.9</ele>
        <time>2021-07-30T09:53:50Z</time>
      </trkpt>
      <trkpt lat="48.77566" lon="6.38668">
        <ele>201.9</ele>
        <time>2021-07-30T09:53:51Z</time>
      </trkpt>
      <trkpt lat="48.77565" lon="6.38669">
        <ele>201.9</ele>
        <time>2021-07-30T09:53:52Z</time>
      </trkpt>
      <trkpt lat="48.77562" lon="6.38672">
        <ele>201.9</ele>
        <time>2021-07-30T09:53:54Z</time>
      </trkpt>
      <trkpt lat="48.7756" lon="6.38674">
        <ele>201.9</ele>
        <time>2021-07-30T09:53:55Z</time>
      </trkpt>
      <trkpt lat="48.77557" lon="6.38677">
        <ele>201.9</ele>
        <time>2021-07-30T09:53:56Z</time>
      </trkpt>
      <trkpt lat="48.77556" lon="6.38681">
        <ele>201.9</ele>
        <time>2021-07-30T09:53:58Z</time>
      </trkpt>
      <trkpt lat="48.77556" lon="6.38685">
        <ele>201.9</ele>
        <time>2021-07-30T09:53:59Z</time>
      </trkpt>
      <trkpt lat="48.77556" lon="6.38687">
        <ele>201.9</ele>
        <time>2021-07-30T09:54:00Z</time>
      </trkpt>
      <trkpt lat="48.77556" lon="6.3869">
        <ele>201.9</ele>
        <time>2021-07-30T09:54:01Z</time>
      </trkpt>
      <trkpt lat="48.77554" lon="6.38694">
        <ele>201.9</ele>
        <time>2021-07-30T09:54:03Z</time>
      </trkpt>
      <trkpt lat="48.77552" lon="6.38697">
        <ele>201.9</ele>
        <time>2021-07-30T09:54:04Z</time>
      </trkpt>
      <trkpt lat="48.77551" lon="6.38702">
        <ele>201.9</ele>
        <time>2021-07-30T09:54:06Z</time>
      </trkpt>
      <trkpt lat="48.77549" lon="6.38706">
        <ele>201.9</ele>
        <time>2021-07-30T09:54:07Z</time>
      </trkpt>
      <trkpt lat="48.77546" lon="6.3871">
        <ele>201.9</ele>
        <time>2021-07-30T09:54:09Z</time>
      </trkpt>
      <trkpt lat="48.77543" lon="6.38715">
        <ele>201.9</ele>
        <time>2021-07-30T09:54:10Z</time>
      </trkpt>
      <trkpt lat="48.77541" lon="6.3872">
        <ele>201.9</ele>
        <time>2021-07-30T09:54:11Z</time>
      </trkpt>
      <trkpt lat="48.7754" lon="6.38722">
        <ele>201.9</ele>
        <time>2021-07-30T09:54:12Z</time>
      </trkpt>
      <trkpt lat="48.77538" lon="6.38726">
        <ele>201.8</ele>
        <time>2021-07-30T09:54:14Z</time>
      </trkpt>
      <trkpt lat="48.77535" lon="6.3873">
        <ele>201.8</ele>
        <time>2021-07-30T09:54:15Z</time>
      </trkpt>
      <trkpt lat="48.77533" lon="6.38732">
        <ele>201.7</ele>
        <time>2021-07-30T09:54:16Z</time>
      </trkpt>
      <trkpt lat="48.7753" lon="6.38735">
        <ele>201.7</ele>
        <time>2021-07-30T09:54:17Z</time>
      </trkpt>
      <trkpt lat="48.77527" lon="6.38739">
        <ele>201.7</ele>
        <time>2021-07-30T09:54:19Z</time>
      </trkpt>
      <trkpt lat="48.77524" lon="6.38742">
        <ele>201.6</ele>
        <time>2021-07-30T09:54:20Z</time>
      </trkpt>
      <trkpt lat="48.77522" lon="6.38745">
        <ele>201.6</ele>
        <time>2021-07-30T09:54:21Z</time>
      </trkpt>
      <trkpt lat="48.7752" lon="6.38748">
        <ele>201.6</ele>
        <time>2021-07-30T09:54:23Z</time>
      </trkpt>
      <trkpt lat="48.77517" lon="6.38752">
        <ele>201.5</ele>
        <time>2021-07-30T09:54:24Z</time>
      </trkpt>
      <trkpt lat="48.77516" lon="6.38753">
        <ele>201.5</ele>
        <time>2021-07-30T09:54:25Z</time>
      </trkpt>
      <trkpt lat="48.77513" lon="6.38757">
        <ele>201.5</ele>
        <time>2021-07-30T09:54:27Z</time>
      </trkpt>
      <trkpt lat="48.77511" lon="6.3876">
        <ele>201.5</ele>
        <time>2021-07-30T09:54:28Z</time>
      </trkpt>
      <trkpt lat="48.7751" lon="6.38763">
        <ele>201.5</ele>
        <time>2021-07-30T09:54:29Z</time>
      </trkpt>
      <trkpt lat="48.77508" lon="6.3877">
        <ele>201.5</ele>
        <time>2021-07-30T09:54:31Z</time>
      </trkpt>
      <trkpt lat="48.77507" lon="6.38776">
        <ele>201.5</ele>
        <time>2021-07-30T09:54:33Z</time>
      </trkpt>
      <trkpt lat="48.77506" lon="6.38781">
        <ele>201.5</ele>
        <time>2021-07-30T09:54:34Z</time>
      </trkpt>
      <trkpt lat="48.77504" lon="6.38785">
        <ele>201.5</ele>
        <time>2021-07-30T09:54:35Z</time>
      </trkpt>
      <trkpt lat="48.77503" lon="6.38789">
        <ele>201.5</ele>
        <time>2021-07-30T09:54:36Z</time>
      </trkpt>
      <trkpt lat="48.775" lon="6.38797">
        <ele>201.5</ele>
        <time>2021-07-30T09:54:38Z</time>
      </trkpt>
      <trkpt lat="48.77499" lon="6.38801">
        <ele>201.5</ele>
        <time>2021-07-30T09:54:39Z</time>
      </trkpt>
      <trkpt lat="48.77497" lon="6.38807">
        <ele>201.5</ele>
        <time>2021-07-30T09:54:41Z</time>
      </trkpt>
      <trkpt lat="48.77496" lon="6.38811">
        <ele>201.5</ele>
        <time>2021-07-30T09:54:43Z</time>
      </trkpt>
      <trkpt lat="48.77495" lon="6.38814">
        <ele>201.5</ele>
        <time>2021-07-30T09:54:44Z</time>
      </trkpt>
      <trkpt lat="48.77494" lon="6.38817">
        <ele>201.6</ele>
        <time>2021-07-30T09:54:46Z</time>
      </trkpt>
      <trkpt lat="48.77492" lon="6.3882">
        <ele>201.6</ele>
        <time>2021-07-30T09:54:47Z</time>
      </trkpt>
      <trkpt lat="48.77491" lon="6.38823">
        <ele>201.6</ele>
        <time>2021-07-30T09:54:49Z</time>
      </trkpt>
      <trkpt lat="48.7749" lon="6.38825">
        <ele>201.6</ele>
        <time>2021-07-30T09:54:50Z</time>
      </trkpt>
      <trkpt lat="48.77488" lon="6.3883">
        <ele>201.6</ele>
        <time>2021-07-30T09:54:52Z</time>
      </trkpt>
      <trkpt lat="48.77485" lon="6.38833">
        <ele>201.6</ele>
        <time>2021-07-30T09:54:53Z</time>
      </trkpt>
      <trkpt lat="48.77484" lon="6.38835">
        <ele>201.6</ele>
        <time>2021-07-30T09:54:54Z</time>
      </trkpt>
      <trkpt lat="48.77481" lon="6.3884">
        <ele>201.6</ele>
        <time>2021-07-30T09:54:56Z</time>
      </trkpt>
      <trkpt lat="48.7748" lon="6.38844">
        <ele>201.6</ele>
        <time>2021-07-30T09:54:57Z</time>
      </trkpt>
      <trkpt lat="48.77479" lon="6.38849">
        <ele>201.5</ele>
        <time>2021-07-30T09:54:59Z</time>
      </trkpt>
      <trkpt lat="48.77477" lon="6.38853">
        <ele>201.5</ele>
        <time>2021-07-30T09:55:01Z</time>
      </trkpt>
      <trkpt lat="48.77476" lon="6.38857">
        <ele>201.4</ele>
        <time>2021-07-30T09:55:02Z</time>
      </trkpt>
      <trkpt lat="48.77474" lon="6.38863">
        <ele>201.4</ele>
        <time>2021-07-30T09:55:03Z</time>
      </trkpt>
      <trkpt lat="48.77474" lon="6.3887">
        <ele>201.3</ele>
        <time>2021-07-30T09:55:05Z</time>
      </trkpt>
      <trkpt lat="48.77473" lon="6.38872">
        <ele>201.3</ele>
        <time>2021-07-30T09:55:06Z</time>
      </trkpt>
      <trkpt lat="48.77473" lon="6.38874">
        <ele>201.3</ele>
        <time>2021-07-30T09:55:07Z</time>
      </trkpt>
      <trkpt lat="48.77472" lon="6.38878">
        <ele>201.3</ele>
        <time>2021-07-30T09:55:08Z</time>
      </trkpt>
      <trkpt lat="48.77471" lon="6.38881">
        <ele>201.3</ele>
        <time>2021-07-30T09:55:10Z</time>
      </trkpt>
      <trkpt lat="48.7747" lon="6.38882">
        <ele>201.3</ele>
        <time>2021-07-30T09:55:11Z</time>
      </trkpt>
      <trkpt lat="48.77468" lon="6.38882">
        <ele>201.3</ele>
        <time>2021-07-30T09:55:13Z</time>
      </trkpt>
      <trkpt lat="48.77468" lon="6.38882">
        <ele>201.3</ele>
        <time>2021-07-30T09:55:14Z</time>
      </trkpt>
      <trkpt lat="48.77466" lon="6.38889">
        <ele>201.3</ele>
        <time>2021-07-30T09:55:16Z</time>
      </trkpt>
      <trkpt lat="48.77463" lon="6.38897">
        <ele>201.3</ele>
        <time>2021-07-30T09:55:17Z</time>
      </trkpt>
      <trkpt lat="48.77461" lon="6.38904">
        <ele>201.3</ele>
        <time>2021-07-30T09:55:19Z</time>
      </trkpt>
      <trkpt lat="48.77458" lon="6.38912">
        <ele>201.4</ele>
        <time>2021-07-30T09:55:20Z</time>
      </trkpt>
      <trkpt lat="48.77456" lon="6.38919">
        <ele>201.4</ele>
        <time>2021-07-30T09:55:53Z</time>
      </trkpt>
      <trkpt lat="48.77454" lon="6.38926">
        <ele>201.5</ele>
        <time>2021-07-30T09:55:54Z</time>
      </trkpt>
      <trkpt lat="48.7745" lon="6.38932">
        <ele>201.5</ele>
        <time>2021-07-30T09:55:55Z</time>
      </trkpt>
      <trkpt lat="48.77446" lon="6.3894">
        <ele>201.5</ele>
        <time>2021-07-30T09:55:57Z</time>
      </trkpt>
      <trkpt lat="48.77442" lon="6.38947">
        <ele>201.5</ele>
        <time>2021-07-30T09:55:58Z</time>
      </trkpt>
      <trkpt lat="48.77439" lon="6.38952">
        <ele>201.5</ele>
        <time>2021-07-30T09:55:59Z</time>
      </trkpt>
      <trkpt lat="48.77436" lon="6.38955">
        <ele>201.5</ele>
        <time>2021-07-30T09:56:00Z</time>
      </trkpt>
      <trkpt lat="48.77433" lon="6.38959">
        <ele>201.5</ele>
        <time>2021-07-30T09:56:02Z</time>
      </trkpt>
      <trkpt lat="48.77428" lon="6.38962">
        <ele>201.5</ele>
        <time>2021-07-30T09:56:03Z</time>
      </trkpt>
      <trkpt lat="48.77422" lon="6.38966">
        <ele>201.5</ele>
        <time>2021-07-30T09:56:05Z</time>
      </trkpt>
      <trkpt lat="48.77418" lon="6.38972">
        <ele>201.4</ele>
        <time>2021-07-30T09:56:07Z</time>
      </trkpt>
      <trkpt lat="48.77416" lon="6.3898">
        <ele>201.4</ele>
        <time>2021-07-30T09:56:09Z</time>
      </trkpt>
      <trkpt lat="48.77416" lon="6.38985">
        <ele>201.4</ele>
        <time>2021-07-30T09:56:10Z</time>
      </trkpt>
      <trkpt lat="48.77416" lon="6.3899">
        <ele>201.4</ele>
        <time>2021-07-30T09:56:11Z</time>
      </trkpt>
      <trkpt lat="48.77414" lon="6.38996">
        <ele>201.3</ele>
        <time>2021-07-30T09:56:12Z</time>
      </trkpt>
      <trkpt lat="48.7741" lon="6.39002">
        <ele>201.3</ele>
        <time>2021-07-30T09:56:14Z</time>
      </trkpt>
      <trkpt lat="48.77407" lon="6.39004">
        <ele>201.3</ele>
        <time>2021-07-30T09:56:15Z</time>
      </trkpt>
      <trkpt lat="48.77405" lon="6.39008">
        <ele>201.3</ele>
        <time>2021-07-30T09:56:16Z</time>
      </trkpt>
      <trkpt lat="48.77404" lon="6.39011">
        <ele>201.3</ele>
        <time>2021-07-30T09:56:17Z</time>
      </trkpt>
      <trkpt lat="48.77402" lon="6.39014">
        <ele>201.3</ele>
        <time>2021-07-30T09:56:19Z</time>
      </trkpt>
      <trkpt lat="48.774" lon="6.39019">
        <ele>201.3</ele>
        <time>2021-07-30T09:56:20Z</time>
      </trkpt>
      <trkpt lat="48.774" lon="6.39021">
        <ele>201.3</ele>
        <time>2021-07-30T09:56:21Z</time>
      </trkpt>
      <trkpt lat="48.77399" lon="6.39024">
        <ele>201.2</ele>
        <time>2021-07-30T09:56:23Z</time>
      </trkpt>
      <trkpt lat="48.77398" lon="6.39027">
        <ele>201.2</ele>
        <time>2021-07-30T09:56:25Z</time>
      </trkpt>
      <trkpt lat="48.77398" lon="6.39029">
        <ele>201.2</ele>
        <time>2021-07-30T09:56:27Z</time>
      </trkpt>
      <trkpt lat="48.77399" lon="6.39029">
        <ele>201.2</ele>
        <time>2021-07-30T09:56:28Z</time>
      </trkpt>
      <trkpt lat="48.77399" lon="6.39029">
        <ele>201.2</ele>
        <time>2021-07-30T09:56:29Z</time>
      </trkpt>
      <trkpt lat="48.77399" lon="6.39028">
        <ele>201.2</ele>
        <time>2021-07-30T09:56:31Z</time>
      </trkpt>
      <trkpt lat="48.77398" lon="6.39028">
        <ele>201.2</ele>
        <time>2021-07-30T09:56:32Z</time>
      </trkpt>
      <trkpt lat="48.77396" lon="6.39028">
        <ele>201.2</ele>
        <time>2021-07-30T09:56:33Z</time>
      </trkpt>
      <trkpt lat="48.77394" lon="6.39027">
        <ele>201.2</ele>
        <time>2021-07-30T09:56:35Z</time>
      </trkpt>
      <trkpt lat="48.77384" lon="6.3903">
        <ele>201.1</ele>
        <time>2021-07-30T09:56:40Z</time>
      </trkpt>
      <trkpt lat="48.77381" lon="6.39029">
        <ele>201</ele>
        <time>2021-07-30T09:56:42Z</time>
      </trkpt>
      <trkpt lat="48.7738" lon="6.3903">
        <ele>201</ele>
        <time>2021-07-30T09:56:44Z</time>
      </trkpt>
      <trkpt lat="48.77379" lon="6.39031">
        <ele>201</ele>
        <time>2021-07-30T09:56:45Z</time>
      </trkpt>
      <trkpt lat="48.77379" lon="6.39032">
        <ele>201</ele>
        <time>2021-07-30T09:56:47Z</time>
      </trkpt>
      <trkpt lat="48.77379" lon="6.39033">
        <ele>201</ele>
        <time>2021-07-30T09:56:48Z</time>
      </trkpt>
      <trkpt lat="48.77379" lon="6.39033">
        <ele>201</ele>
        <time>2021-07-30T09:56:49Z</time>
      </trkpt>
      <trkpt lat="48.77379" lon="6.39034">
        <ele>201</ele>
        <time>2021-07-30T09:56:51Z</time>
      </trkpt>
      <trkpt lat="48.77379" lon="6.39034">
        <ele>201</ele>
        <time>2021-07-30T09:56:52Z</time>
      </trkpt>
      <trkpt lat="48.77379" lon="6.39035">
        <ele>201</ele>
        <time>2021-07-30T09:56:53Z</time>
      </trkpt>
      <trkpt lat="48.77379" lon="6.39037">
        <ele>201</ele>
        <time>2021-07-30T09:56:54Z</time>
      </trkpt>
      <trkpt lat="48.77379" lon="6.39039">
        <ele>201</ele>
        <time>2021-07-30T09:56:56Z</time>
      </trkpt>
      <trkpt lat="48.77379" lon="6.39042">
        <ele>201</ele>
        <time>2021-07-30T09:56:58Z</time>
      </trkpt>
      <trkpt lat="48.77378" lon="6.39044">
        <ele>201</ele>
        <time>2021-07-30T09:56:59Z</time>
      </trkpt>
      <trkpt lat="48.77377" lon="6.39052">
        <ele>200.9</ele>
        <time>2021-07-30T09:57:00Z</time>
      </trkpt>
      <trkpt lat="48.77375" lon="6.39056">
        <ele>200.9</ele>
        <time>2021-07-30T09:57:01Z</time>
      </trkpt>
      <trkpt lat="48.77373" lon="6.39064">
        <ele>200.9</ele>
        <time>2021-07-30T09:57:03Z</time>
      </trkpt>
      <trkpt lat="48.77371" lon="6.3907">
        <ele>200.9</ele>
        <time>2021-07-30T09:57:04Z</time>
      </trkpt>
      <trkpt lat="48.77369" lon="6.39075">
        <ele>200.9</ele>
        <time>2021-07-30T09:57:06Z</time>
      </trkpt>
      <trkpt lat="48.77367" lon="6.3908">
        <ele>200.8</ele>
        <time>2021-07-30T09:57:07Z</time>
      </trkpt>
      <trkpt lat="48.77364" lon="6.39084">
        <ele>200.8</ele>
        <time>2021-07-30T09:57:09Z</time>
      </trkpt>
      <trkpt lat="48.77362" lon="6.39087">
        <ele>200.8</ele>
        <time>2021-07-30T09:57:10Z</time>
      </trkpt>
      <trkpt lat="48.7736" lon="6.39092">
        <ele>200.8</ele>
        <time>2021-07-30T09:57:12Z</time>
      </trkpt>
      <trkpt lat="48.7736" lon="6.39094">
        <ele>200.8</ele>
        <time>2021-07-30T09:57:13Z</time>
      </trkpt>
      <trkpt lat="48.77357" lon="6.391">
        <ele>200.8</ele>
        <time>2021-07-30T09:57:14Z</time>
      </trkpt>
      <trkpt lat="48.77352" lon="6.39103">
        <ele>200.8</ele>
        <time>2021-07-30T09:57:16Z</time>
      </trkpt>
      <trkpt lat="48.77349" lon="6.39105">
        <ele>200.7</ele>
        <time>2021-07-30T09:57:17Z</time>
      </trkpt>
      <trkpt lat="48.77344" lon="6.3911">
        <ele>200.7</ele>
        <time>2021-07-30T09:57:18Z</time>
      </trkpt>
      <trkpt lat="48.77341" lon="6.39115">
        <ele>200.7</ele>
        <time>2021-07-30T09:57:20Z</time>
      </trkpt>
      <trkpt lat="48.77338" lon="6.3912">
        <ele>200.7</ele>
        <time>2021-07-30T09:57:21Z</time>
      </trkpt>
      <trkpt lat="48.77334" lon="6.39126">
        <ele>200.7</ele>
        <time>2021-07-30T09:57:23Z</time>
      </trkpt>
      <trkpt lat="48.77332" lon="6.39131">
        <ele>200.7</ele>
        <time>2021-07-30T09:57:24Z</time>
      </trkpt>
      <trkpt lat="48.7733" lon="6.39135">
        <ele>200.6</ele>
        <time>2021-07-30T09:57:25Z</time>
      </trkpt>
      <trkpt lat="48.77328" lon="6.39143">
        <ele>200.6</ele>
        <time>2021-07-30T09:57:27Z</time>
      </trkpt>
      <trkpt lat="48.77327" lon="6.39148">
        <ele>200.6</ele>
        <time>2021-07-30T09:57:28Z</time>
      </trkpt>
      <trkpt lat="48.77327" lon="6.39154">
        <ele>200.6</ele>
        <time>2021-07-30T09:57:30Z</time>
      </trkpt>
      <trkpt lat="48.77326" lon="6.39156">
        <ele>200.6</ele>
        <time>2021-07-30T09:57:31Z</time>
      </trkpt>
      <trkpt lat="48.77324" lon="6.39163">
        <ele>200.6</ele>
        <time>2021-07-30T09:57:33Z</time>
      </trkpt>
      <trkpt lat="48.7732" lon="6.3917">
        <ele>200.5</ele>
        <time>2021-07-30T09:57:35Z</time>
      </trkpt>
      <trkpt lat="48.77319" lon="6.39173">
        <ele>200.5</ele>
        <time>2021-07-30T09:57:36Z</time>
      </trkpt>
      <trkpt lat="48.77315" lon="6.39178">
        <ele>200.5</ele>
        <time>2021-07-30T09:57:38Z</time>
      </trkpt>
      <trkpt lat="48.77312" lon="6.39182">
        <ele>200.4</ele>
        <time>2021-07-30T09:57:39Z</time>
      </trkpt>
      <trkpt lat="48.77308" lon="6.39184">
        <ele>200.4</ele>
        <time>2021-07-30T09:57:41Z</time>
      </trkpt>
      <trkpt lat="48.77307" lon="6.39186">
        <ele>200.4</ele>
        <time>2021-07-30T09:57:42Z</time>
      </trkpt>
      <trkpt lat="48.77305" lon="6.39189">
        <ele>200.4</ele>
        <time>2021-07-30T09:57:43Z</time>
      </trkpt>
      <trkpt lat="48.77305" lon="6.39194">
        <ele>200.4</ele>
        <time>2021-07-30T09:57:44Z</time>
      </trkpt>
      <trkpt lat="48.77304" lon="6.392">
        <ele>200.3</ele>
        <time>2021-07-30T09:57:45Z</time>
      </trkpt>
      <trkpt lat="48.77303" lon="6.39206">
        <ele>200.3</ele>
        <time>2021-07-30T09:57:47Z</time>
      </trkpt>
      <trkpt lat="48.773" lon="6.39212">
        <ele>200.3</ele>
        <time>2021-07-30T09:57:49Z</time>
      </trkpt>
      <trkpt lat="48.77297" lon="6.39218">
        <ele>200.2</ele>
        <time>2021-07-30T09:57:51Z</time>
      </trkpt>
      <trkpt lat="48.77296" lon="6.39223">
        <ele>200.2</ele>
        <time>2021-07-30T09:57:52Z</time>
      </trkpt>
      <trkpt lat="48.77295" lon="6.39224">
        <ele>200.2</ele>
        <time>2021-07-30T09:57:53Z</time>
      </trkpt>
      <trkpt lat="48.77292" lon="6.39227">
        <ele>200.1</ele>
        <time>2021-07-30T09:57:54Z</time>
      </trkpt>
      <trkpt lat="48.77288" lon="6.3923">
        <ele>200.1</ele>
        <time>2021-07-30T09:57:55Z</time>
      </trkpt>
      <trkpt lat="48.77287" lon="6.39231">
        <ele>200.1</ele>
        <time>2021-07-30T09:57:56Z</time>
      </trkpt>
      <trkpt lat="48.77284" lon="6.39234">
        <ele>200</ele>
        <time>2021-07-30T09:57:58Z</time>
      </trkpt>
      <trkpt lat="48.77281" lon="6.39237">
        <ele>200</ele>
        <time>2021-07-30T09:57:59Z</time>
      </trkpt>
      <trkpt lat="48.77279" lon="6.39241">
        <ele>200</ele>
        <time>2021-07-30T09:58:00Z</time>
      </trkpt>
      <trkpt lat="48.77277" lon="6.39245">
        <ele>200</ele>
        <time>2021-07-30T09:58:01Z</time>
      </trkpt>
      <trkpt lat="48.77276" lon="6.3925">
        <ele>199.9</ele>
        <time>2021-07-30T09:58:03Z</time>
      </trkpt>
      <trkpt lat="48.77275" lon="6.39254">
        <ele>199.9</ele>
        <time>2021-07-30T09:58:04Z</time>
      </trkpt>
      <trkpt lat="48.77273" lon="6.3926">
        <ele>199.9</ele>
        <time>2021-07-30T09:58:06Z</time>
      </trkpt>
      <trkpt lat="48.77271" lon="6.39264">
        <ele>199.9</ele>
        <time>2021-07-30T09:58:07Z</time>
      </trkpt>
      <trkpt lat="48.7727" lon="6.39269">
        <ele>199.9</ele>
        <time>2021-07-30T09:58:09Z</time>
      </trkpt>
      <trkpt lat="48.77271" lon="6.39272">
        <ele>199.9</ele>
        <time>2021-07-30T09:58:10Z</time>
      </trkpt>
      <trkpt lat="48.77271" lon="6.39274">
        <ele>199.8</ele>
        <time>2021-07-30T09:58:11Z</time>
      </trkpt>
      <trkpt lat="48.77273" lon="6.39281">
        <ele>199.9</ele>
        <time>2021-07-30T09:58:12Z</time>
      </trkpt>
      <trkpt lat="48.77273" lon="6.39286">
        <ele>199.9</ele>
        <time>2021-07-30T09:58:14Z</time>
      </trkpt>
      <trkpt lat="48.77273" lon="6.39292">
        <ele>199.9</ele>
        <time>2021-07-30T09:58:15Z</time>
      </trkpt>
      <trkpt lat="48.77273" lon="6.39298">
        <ele>200</ele>
        <time>2021-07-30T09:58:17Z</time>
      </trkpt>
      <trkpt lat="48.77273" lon="6.39304">
        <ele>200.1</ele>
        <time>2021-07-30T09:58:18Z</time>
      </trkpt>
      <trkpt lat="48.77273" lon="6.3931">
        <ele>200.2</ele>
        <time>2021-07-30T09:58:20Z</time>
      </trkpt>
      <trkpt lat="48.77273" lon="6.39316">
        <ele>200.2</ele>
        <time>2021-07-30T09:58:21Z</time>
      </trkpt>
      <trkpt lat="48.77273" lon="6.39322">
        <ele>200.2</ele>
        <time>2021-07-30T09:58:56Z</time>
      </trkpt>
      <trkpt lat="48.77273" lon="6.39328">
        <ele>200</ele>
        <time>2021-07-30T09:58:57Z</time>
      </trkpt>
      <trkpt lat="48.7727" lon="6.39337">
        <ele>199.9</ele>
        <time>2021-07-30T09:58:58Z</time>
      </trkpt>
      <trkpt lat="48.77267" lon="6.39344">
        <ele>199.7</ele>
        <time>2021-07-30T09:59:00Z</time>
      </trkpt>
      <trkpt lat="48.77266" lon="6.39353">
        <ele>199.7</ele>
        <time>2021-07-30T09:59:01Z</time>
      </trkpt>
      <trkpt lat="48.77265" lon="6.3936">
        <ele>199.7</ele>
        <time>2021-07-30T09:59:03Z</time>
      </trkpt>
      <trkpt lat="48.77265" lon="6.39368">
        <ele>199.7</ele>
        <time>2021-07-30T09:59:05Z</time>
      </trkpt>
      <trkpt lat="48.77263" lon="6.39377">
        <ele>199.6</ele>
        <time>2021-07-30T09:59:06Z</time>
      </trkpt>
      <trkpt lat="48.7726" lon="6.39382">
        <ele>199.4</ele>
        <time>2021-07-30T09:59:08Z</time>
      </trkpt>
      <trkpt lat="48.77256" lon="6.39387">
        <ele>199.2</ele>
        <time>2021-07-30T09:59:09Z</time>
      </trkpt>
      <trkpt lat="48.77253" lon="6.39391">
        <ele>199</ele>
        <time>2021-07-30T09:59:11Z</time>
      </trkpt>
      <trkpt lat="48.77251" lon="6.39395">
        <ele>199</ele>
        <time>2021-07-30T09:59:12Z</time>
      </trkpt>
      <trkpt lat="48.77249" lon="6.39401">
        <ele>198.6</ele>
        <time>2021-07-30T09:59:14Z</time>
      </trkpt>
      <trkpt lat="48.77248" lon="6.39402">
        <ele>198.8</ele>
        <time>2021-07-30T09:59:15Z</time>
      </trkpt>
      <trkpt lat="48.77248" lon="6.39404">
        <ele>198.8</ele>
        <time>2021-07-30T09:59:16Z</time>
      </trkpt>
      <trkpt lat="48.77246" lon="6.39404">
        <ele>198.6</ele>
        <time>2021-07-30T09:59:17Z</time>
      </trkpt>
      <trkpt lat="48.77245" lon="6.39405">
        <ele>198.9</ele>
        <time>2021-07-30T09:59:19Z</time>
      </trkpt>
      <trkpt lat="48.77245" lon="6.39405">
        <ele>198.9</ele>
        <time>2021-07-30T09:59:21Z</time>
      </trkpt>
      <trkpt lat="48.77245" lon="6.39405">
        <ele>198.9</ele>
        <time>2021-07-30T09:59:22Z</time>
      </trkpt>
      <trkpt lat="48.77245" lon="6.39405">
        <ele>198.9</ele>
        <time>2021-07-30T09:59:24Z</time>
      </trkpt>
      <trkpt lat="48.77245" lon="6.39406">
        <ele>198.9</ele>
        <time>2021-07-30T09:59:25Z</time>
      </trkpt>
      <trkpt lat="48.77244" lon="6.39408">
        <ele>198.9</ele>
        <time>2021-07-30T09:59:27Z</time>
      </trkpt>
      <trkpt lat="48.77225" lon="6.39466">
        <ele>199.3</ele>
        <time>2021-07-30T09:59:42Z</time>
      </trkpt>
      <trkpt lat="48.77224" lon="6.3947">
        <ele>198.9</ele>
        <time>2021-07-30T09:59:43Z</time>
      </trkpt>
      <trkpt lat="48.77224" lon="6.39476">
        <ele>198.6</ele>
        <time>2021-07-30T09:59:45Z</time>
      </trkpt>
      <trkpt lat="48.77224" lon="6.3948">
        <ele>198.2</ele>
        <time>2021-07-30T09:59:46Z</time>
      </trkpt>
      <trkpt lat="48.77223" lon="6.39487">
        <ele>197.6</ele>
        <time>2021-07-30T09:59:48Z</time>
      </trkpt>
      <trkpt lat="48.77224" lon="6.39488">
        <ele>197.6</ele>
        <time>2021-07-30T09:59:49Z</time>
      </trkpt>
      <trkpt lat="48.77224" lon="6.39489">
        <ele>197.6</ele>
        <time>2021-07-30T09:59:50Z</time>
      </trkpt>
      <trkpt lat="48.77224" lon="6.39489">
        <ele>197.6</ele>
        <time>2021-07-30T09:59:52Z</time>
      </trkpt>
      <trkpt lat="48.77224" lon="6.39489">
        <ele>197.6</ele>
        <time>2021-07-30T09:59:53Z</time>
      </trkpt>
      <trkpt lat="48.77224" lon="6.3949">
        <ele>197.6</ele>
        <time>2021-07-30T09:59:55Z</time>
      </trkpt>
      <trkpt lat="48.77225" lon="6.3949">
        <ele>197.6</ele>
        <time>2021-07-30T09:59:56Z</time>
      </trkpt>
      <trkpt lat="48.77171" lon="6.39545">
        <ele>207.5</ele>
        <time>2021-07-30T10:02:51Z</time>
      </trkpt>
      <trkpt lat="48.77172" lon="6.39544">
        <ele>206.6</ele>
        <time>2021-07-30T10:02:52Z</time>
      </trkpt>
      <trkpt lat="48.77174" lon="6.39544">
        <ele>206.6</ele>
        <time>2021-07-30T10:02:54Z</time>
      </trkpt>
      <trkpt lat="48.77175" lon="6.39544">
        <ele>205.7</ele>
        <time>2021-07-30T10:02:55Z</time>
      </trkpt>
      <trkpt lat="48.77175" lon="6.39544">
        <ele>205.7</ele>
        <time>2021-07-30T10:02:57Z</time>
      </trkpt>
      <trkpt lat="48.77176" lon="6.39544">
        <ele>205.7</ele>
        <time>2021-07-30T10:02:58Z</time>
      </trkpt>
      <trkpt lat="48.77176" lon="6.39544">
        <ele>205.7</ele>
        <time>2021-07-30T10:02:59Z</time>
      </trkpt>
      <trkpt lat="48.77177" lon="6.39543">
        <ele>205.7</ele>
        <time>2021-07-30T10:03:01Z</time>
      </trkpt>
      <trkpt lat="48.77177" lon="6.39543">
        <ele>205.7</ele>
        <time>2021-07-30T10:03:03Z</time>
      </trkpt>
      <trkpt lat="48.77177" lon="6.39543">
        <ele>205.7</ele>
        <time>2021-07-30T10:03:05Z</time>
      </trkpt>
      <trkpt lat="48.77177" lon="6.39543">
        <ele>205.7</ele>
        <time>2021-07-30T10:03:06Z</time>
      </trkpt>
      <trkpt lat="48.77177" lon="6.39543">
        <ele>205.7</ele>
        <time>2021-07-30T10:03:07Z</time>
      </trkpt>
      <trkpt lat="48.77176" lon="6.39543">
        <ele>205.7</ele>
        <time>2021-07-30T10:03:08Z</time>
      </trkpt>
      <trkpt lat="48.77174" lon="6.39545">
        <ele>206.6</ele>
        <time>2021-07-30T10:03:10Z</time>
      </trkpt>
      <trkpt lat="48.77173" lon="6.39547">
        <ele>206.3</ele>
        <time>2021-07-30T10:03:11Z</time>
      </trkpt>
      <trkpt lat="48.77173" lon="6.39549">
        <ele>206.3</ele>
        <time>2021-07-30T10:03:12Z</time>
      </trkpt>
      <trkpt lat="48.77171" lon="6.39554">
        <ele>206.8</ele>
        <time>2021-07-30T10:03:14Z</time>
      </trkpt>
      <trkpt lat="48.77171" lon="6.39556">
        <ele>206.5</ele>
        <time>2021-07-30T10:03:15Z</time>
      </trkpt>
      <trkpt lat="48.77169" lon="6.3956">
        <ele>207</ele>
        <time>2021-07-30T10:03:16Z</time>
      </trkpt>
      <trkpt lat="48.77168" lon="6.39564">
        <ele>206.7</ele>
        <time>2021-07-30T10:03:18Z</time>
      </trkpt>
      <trkpt lat="48.77168" lon="6.39563">
        <ele>207</ele>
        <time>2021-07-30T10:03:19Z</time>
      </trkpt>
      <trkpt lat="48.77169" lon="6.39563">
        <ele>207</ele>
        <time>2021-07-30T10:03:20Z</time>
      </trkpt>
      <trkpt lat="48.77169" lon="6.39563">
        <ele>207</ele>
        <time>2021-07-30T10:03:22Z</time>
      </trkpt>
      <trkpt lat="48.77169" lon="6.39563">
        <ele>206.7</ele>
        <time>2021-07-30T10:03:23Z</time>
      </trkpt>
      <trkpt lat="48.77169" lon="6.39563">
        <ele>206.7</ele>
        <time>2021-07-30T10:03:24Z</time>
      </trkpt>
      <trkpt lat="48.77169" lon="6.39563">
        <ele>207</ele>
        <time>2021-07-30T10:03:25Z</time>
      </trkpt>
      <trkpt lat="48.77169" lon="6.39563">
        <ele>206.1</ele>
        <time>2021-07-30T10:03:26Z</time>
      </trkpt>
      <trkpt lat="48.77174" lon="6.39716">
        <ele>192.4</ele>
        <time>2021-07-30T10:06:20Z</time>
      </trkpt>
      <trkpt lat="48.77174" lon="6.39726">
        <ele>192.5</ele>
        <time>2021-07-30T10:06:22Z</time>
      </trkpt>
      <trkpt lat="48.77174" lon="6.39738">
        <ele>192.5</ele>
        <time>2021-07-30T10:06:24Z</time>
      </trkpt>
      <trkpt lat="48.77175" lon="6.39743">
        <ele>192.2</ele>
        <time>2021-07-30T10:06:25Z</time>
      </trkpt>
      <trkpt lat="48.77175" lon="6.39746">
        <ele>192.2</ele>
        <time>2021-07-30T10:06:26Z</time>
      </trkpt>
      <trkpt lat="48.77176" lon="6.39749">
        <ele>192.2</ele>
        <time>2021-07-30T10:06:27Z</time>
      </trkpt>
      <trkpt lat="48.77176" lon="6.39753">
        <ele>192.2</ele>
        <time>2021-07-30T10:06:29Z</time>
      </trkpt>
      <trkpt lat="48.77176" lon="6.39758">
        <ele>192.3</ele>
        <time>2021-07-30T10:06:30Z</time>
      </trkpt>
      <trkpt lat="48.77176" lon="6.3976">
        <ele>192.3</ele>
        <time>2021-07-30T10:06:31Z</time>
      </trkpt>
      <trkpt lat="48.77175" lon="6.39759">
        <ele>192.3</ele>
        <time>2021-07-30T10:06:32Z</time>
      </trkpt>
      <trkpt lat="48.77175" lon="6.39759">
        <ele>192.3</ele>
        <time>2021-07-30T10:06:34Z</time>
      </trkpt>
      <trkpt lat="48.77174" lon="6.39764">
        <ele>192.6</ele>
        <time>2021-07-30T10:06:36Z</time>
      </trkpt>
      <trkpt lat="48.77173" lon="6.39768">
        <ele>192.7</ele>
        <time>2021-07-30T10:06:37Z</time>
      </trkpt>
      <trkpt lat="48.77172" lon="6.39771">
        <ele>192.8</ele>
        <time>2021-07-30T10:06:38Z</time>
      </trkpt>
      <trkpt lat="48.77172" lon="6.39772">
        <ele>193.2</ele>
        <time>2021-07-30T10:06:39Z</time>
      </trkpt>
      <trkpt lat="48.77171" lon="6.39773">
        <ele>193.2</ele>
        <time>2021-07-30T10:06:40Z</time>
      </trkpt>
      <trkpt lat="48.77171" lon="6.39778">
        <ele>193.5</ele>
        <time>2021-07-30T10:06:42Z</time>
      </trkpt>
      <trkpt lat="48.77171" lon="6.39779">
        <ele>193.5</ele>
        <time>2021-07-30T10:06:43Z</time>
      </trkpt>
      <trkpt lat="48.7717" lon="6.39782">
        <ele>193.5</ele>
        <time>2021-07-30T10:06:44Z</time>
      </trkpt>
      <trkpt lat="48.77169" lon="6.39784">
        <ele>194.1</ele>
        <time>2021-07-30T10:06:45Z</time>
      </trkpt>
      <trkpt lat="48.77168" lon="6.39788">
        <ele>194.2</ele>
        <time>2021-07-30T10:06:47Z</time>
      </trkpt>
      <trkpt lat="48.77167" lon="6.39792">
        <ele>194.3</ele>
        <time>2021-07-30T10:06:48Z</time>
      </trkpt>
      <trkpt lat="48.77166" lon="6.39795">
        <ele>194.3</ele>
        <time>2021-07-30T10:06:50Z</time>
      </trkpt>
      <trkpt lat="48.77165" lon="6.39797">
        <ele>194.9</ele>
        <time>2021-07-30T10:06:51Z</time>
      </trkpt>
      <trkpt lat="48.7716" lon="6.39802">
        <ele>195.9</ele>
        <time>2021-07-30T10:06:53Z</time>
      </trkpt>
      <trkpt lat="48.77158" lon="6.39806">
        <ele>196.5</ele>
        <time>2021-07-30T10:06:55Z</time>
      </trkpt>
      <trkpt lat="48.77153" lon="6.3981">
        <ele>197</ele>
        <time>2021-07-30T10:06:57Z</time>
      </trkpt>
      <trkpt lat="48.77153" lon="6.39813">
        <ele>197</ele>
        <time>2021-07-30T10:06:58Z</time>
      </trkpt>
      <trkpt lat="48.77152" lon="6.39816">
        <ele>197.5</ele>
        <time>2021-07-30T10:07:00Z</time>
      </trkpt>
      <trkpt lat="48.77152" lon="6.39819">
        <ele>197</ele>
        <time>2021-07-30T10:07:01Z</time>
      </trkpt>
      <trkpt lat="48.77153" lon="6.39822">
        <ele>197.1</ele>
        <time>2021-07-30T10:07:03Z</time>
      </trkpt>
      <trkpt lat="48.77153" lon="6.39825">
        <ele>197.1</ele>
        <time>2021-07-30T10:07:04Z</time>
      </trkpt>
      <trkpt lat="48.77153" lon="6.39827">
        <ele>197.1</ele>
        <time>2021-07-30T10:07:05Z</time>
      </trkpt>
      <trkpt lat="48.77153" lon="6.39831">
        <ele>197.2</ele>
        <time>2021-07-30T10:07:06Z</time>
      </trkpt>
      <trkpt lat="48.77156" lon="6.39835">
        <ele>196.8</ele>
        <time>2021-07-30T10:07:08Z</time>
      </trkpt>
      <trkpt lat="48.77156" lon="6.3984">
        <ele>196.8</ele>
        <time>2021-07-30T10:07:09Z</time>
      </trkpt>
      <trkpt lat="48.77158" lon="6.39844">
        <ele>196.8</ele>
        <time>2021-07-30T10:07:10Z</time>
      </trkpt>
      <trkpt lat="48.77158" lon="6.39845">
        <ele>196.5</ele>
        <time>2021-07-30T10:07:11Z</time>
      </trkpt>
      <trkpt lat="48.77158" lon="6.39847">
        <ele>196.5</ele>
        <time>2021-07-30T10:07:12Z</time>
      </trkpt>
      <trkpt lat="48.77159" lon="6.39851">
        <ele>196.5</ele>
        <time>2021-07-30T10:07:14Z</time>
      </trkpt>
      <trkpt lat="48.77158" lon="6.39857">
        <ele>196.5</ele>
        <time>2021-07-30T10:07:15Z</time>
      </trkpt>
      <trkpt lat="48.77158" lon="6.39859">
        <ele>196.5</ele>
        <time>2021-07-30T10:07:16Z</time>
      </trkpt>
      <trkpt lat="48.7716" lon="6.39863">
        <ele>196.5</ele>
        <time>2021-07-30T10:07:18Z</time>
      </trkpt>
      <trkpt lat="48.77164" lon="6.39865">
        <ele>196</ele>
        <time>2021-07-30T10:07:19Z</time>
      </trkpt>
      <trkpt lat="48.77167" lon="6.39868">
        <ele>195.8</ele>
        <time>2021-07-30T10:07:21Z</time>
      </trkpt>
      <trkpt lat="48.77167" lon="6.39869">
        <ele>195.8</ele>
        <time>2021-07-30T10:07:22Z</time>
      </trkpt>
      <trkpt lat="48.77169" lon="6.39873">
        <ele>196</ele>
        <time>2021-07-30T10:07:23Z</time>
      </trkpt>
      <trkpt lat="48.7717" lon="6.39877">
        <ele>196.1</ele>
        <time>2021-07-30T10:07:24Z</time>
      </trkpt>
      <trkpt lat="48.77171" lon="6.39878">
        <ele>196.1</ele>
        <time>2021-07-30T10:07:25Z</time>
      </trkpt>
      <trkpt lat="48.77171" lon="6.39882">
        <ele>196.4</ele>
        <time>2021-07-30T10:07:27Z</time>
      </trkpt>
      <trkpt lat="48.77169" lon="6.39884">
        <ele>196.4</ele>
        <time>2021-07-30T10:07:29Z</time>
      </trkpt>
      <trkpt lat="48.77169" lon="6.39883">
        <ele>196.5</ele>
        <time>2021-07-30T10:07:30Z</time>
      </trkpt>
      <trkpt lat="48.77168" lon="6.39883">
        <ele>196.5</ele>
        <time>2021-07-30T10:07:31Z</time>
      </trkpt>
      <trkpt lat="48.77168" lon="6.39883">
        <ele>196.5</ele>
        <time>2021-07-30T10:07:33Z</time>
      </trkpt>
      <trkpt lat="48.77168" lon="6.39883">
        <ele>196.5</ele>
        <time>2021-07-30T10:07:34Z</time>
      </trkpt>
      <trkpt lat="48.77168" lon="6.39883">
        <ele>196.5</ele>
        <time>2021-07-30T10:07:36Z</time>
      </trkpt>
      <trkpt lat="48.77168" lon="6.39884">
        <ele>196.5</ele>
        <time>2021-07-30T10:07:37Z</time>
      </trkpt>
      <trkpt lat="48.77172" lon="6.3991">
        <ele>198.2</ele>
        <time>2021-07-30T10:07:58Z</time>
      </trkpt>
      <trkpt lat="48.77172" lon="6.39912">
        <ele>198.4</ele>
        <time>2021-07-30T10:08:00Z</time>
      </trkpt>
      <trkpt lat="48.77172" lon="6.39915">
        <ele>198.4</ele>
        <time>2021-07-30T10:08:01Z</time>
      </trkpt>
      <trkpt lat="48.77172" lon="6.39917">
        <ele>198.6</ele>
        <time>2021-07-30T10:08:02Z</time>
      </trkpt>
      <trkpt lat="48.77172" lon="6.39917">
        <ele>198.6</ele>
        <time>2021-07-30T10:08:04Z</time>
      </trkpt>
      <trkpt lat="48.77171" lon="6.39918">
        <ele>198.5</ele>
        <time>2021-07-30T10:08:05Z</time>
      </trkpt>
      <trkpt lat="48.77171" lon="6.39919">
        <ele>198.5</ele>
        <time>2021-07-30T10:08:06Z</time>
      </trkpt>
      <trkpt lat="48.7717" lon="6.3992">
        <ele>198.7</ele>
        <time>2021-07-30T10:08:08Z</time>
      </trkpt>
      <trkpt lat="48.7717" lon="6.39921">
        <ele>198.7</ele>
        <time>2021-07-30T10:08:09Z</time>
      </trkpt>
      <trkpt lat="48.77169" lon="6.39923">
        <ele>198.7</ele>
        <time>2021-07-30T10:08:10Z</time>
      </trkpt>
      <trkpt lat="48.77169" lon="6.39938">
        <ele>199.3</ele>
        <time>2021-07-30T10:08:11Z</time>
      </trkpt>
      <trkpt lat="48.77169" lon="6.39952">
        <ele>199.4</ele>
        <time>2021-07-30T10:09:46Z</time>
      </trkpt>
      <trkpt lat="48.77169" lon="6.39966">
        <ele>199.7</ele>
        <time>2021-07-30T10:09:47Z</time>
      </trkpt>
      <trkpt lat="48.77169" lon="6.39979">
        <ele>200.1</ele>
        <time>2021-07-30T10:09:48Z</time>
      </trkpt>
      <trkpt lat="48.77169" lon="6.39983">
        <ele>200.2</ele>
        <time>2021-07-30T10:09:49Z</time>
      </trkpt>
      <trkpt lat="48.77168" lon="6.39986">
        <ele>200.4</ele>
        <time>2021-07-30T10:09:51Z</time>
      </trkpt>
      <trkpt lat="48.77168" lon="6.39989">
        <ele>200.5</ele>
        <time>2021-07-30T10:09:52Z</time>
      </trkpt>
      <trkpt lat="48.77169" lon="6.39991">
        <ele>200.2</ele>
        <time>2021-07-30T10:09:53Z</time>
      </trkpt>
      <trkpt lat="48.7717" lon="6.39993">
        <ele>200.3</ele>
        <time>2021-07-30T10:09:54Z</time>
      </trkpt>
      <trkpt lat="48.77172" lon="6.39997">
        <ele>200</ele>
        <time>2021-07-30T10:09:56Z</time>
      </trkpt>
      <trkpt lat="48.77171" lon="6.40002">
        <ele>200.4</ele>
        <time>2021-07-30T10:09:57Z</time>
      </trkpt>
      <trkpt lat="48.77171" lon="6.40003">
        <ele>200.4</ele>
        <time>2021-07-30T10:09:58Z</time>
      </trkpt>
      <trkpt lat="48.77171" lon="6.40006">
        <ele>200.5</ele>
        <time>2021-07-30T10:09:59Z</time>
      </trkpt>
      <trkpt lat="48.77171" lon="6.40012">
        <ele>200.6</ele>
        <time>2021-07-30T10:10:01Z</time>
      </trkpt>
      <trkpt lat="48.77173" lon="6.40016">
        <ele>200.3</ele>
        <time>2021-07-30T10:10:02Z</time>
      </trkpt>
      <trkpt lat="48.77173" lon="6.40017">
        <ele>200.3</ele>
        <time>2021-07-30T10:10:03Z</time>
      </trkpt>
      <trkpt lat="48.77174" lon="6.40019">
        <ele>200.3</ele>
        <time>2021-07-30T10:10:04Z</time>
      </trkpt>
      <trkpt lat="48.77175" lon="6.40022">
        <ele>200</ele>
        <time>2021-07-30T10:10:05Z</time>
      </trkpt>
      <trkpt lat="48.77176" lon="6.40026">
        <ele>200</ele>
        <time>2021-07-30T10:10:06Z</time>
      </trkpt>
      <trkpt lat="48.77176" lon="6.40028">
        <ele>200</ele>
        <time>2021-07-30T10:10:08Z</time>
      </trkpt>
      <trkpt lat="48.77176" lon="6.40031">
        <ele>199.9</ele>
        <time>2021-07-30T10:10:09Z</time>
      </trkpt>
      <trkpt lat="48.77176" lon="6.40033">
        <ele>199.9</ele>
        <time>2021-07-30T10:10:10Z</time>
      </trkpt>
      <trkpt lat="48.77176" lon="6.40035">
        <ele>199.9</ele>
        <time>2021-07-30T10:10:11Z</time>
      </trkpt>
      <trkpt lat="48.77175" lon="6.40041">
        <ele>199.8</ele>
        <time>2021-07-30T10:10:13Z</time>
      </trkpt>
      <trkpt lat="48.77175" lon="6.40046">
        <ele>199.7</ele>
        <time>2021-07-30T10:10:14Z</time>
      </trkpt>
      <trkpt lat="48.77175" lon="6.40047">
        <ele>199.7</ele>
        <time>2021-07-30T10:10:15Z</time>
      </trkpt>
      <trkpt lat="48.77175" lon="6.40052">
        <ele>200</ele>
        <time>2021-07-30T10:10:16Z</time>
      </trkpt>
      <trkpt lat="48.77174" lon="6.40053">
        <ele>199.9</ele>
        <time>2021-07-30T10:10:17Z</time>
      </trkpt>
      <trkpt lat="48.77172" lon="6.40057">
        <ele>199.9</ele>
        <time>2021-07-30T10:10:18Z</time>
      </trkpt>
      <trkpt lat="48.77171" lon="6.40059">
        <ele>200.2</ele>
        <time>2021-07-30T10:10:19Z</time>
      </trkpt>
      <trkpt lat="48.7717" lon="6.40062">
        <ele>200</ele>
        <time>2021-07-30T10:10:21Z</time>
      </trkpt>
      <trkpt lat="48.77166" lon="6.40068">
        <ele>200.9</ele>
        <time>2021-07-30T10:10:23Z</time>
      </trkpt>
      <trkpt lat="48.77162" lon="6.40074">
        <ele>200.9</ele>
        <time>2021-07-30T10:10:24Z</time>
      </trkpt>
      <trkpt lat="48.77158" lon="6.40079">
        <ele>201.1</ele>
        <time>2021-07-30T10:10:26Z</time>
      </trkpt>
      <trkpt lat="48.77154" lon="6.40085">
        <ele>201.6</ele>
        <time>2021-07-30T10:10:28Z</time>
      </trkpt>
      <trkpt lat="48.77151" lon="6.4009">
        <ele>201.7</ele>
        <time>2021-07-30T10:11:25Z</time>
      </trkpt>
      <trkpt lat="48.77147" lon="6.40096">
        <ele>201.5</ele>
        <time>2021-07-30T10:11:27Z</time>
      </trkpt>
      <trkpt lat="48.77143" lon="6.40101">
        <ele>201.8</ele>
        <time>2021-07-30T10:11:28Z</time>
      </trkpt>
      <trkpt lat="48.77142" lon="6.40107">
        <ele>201.6</ele>
        <time>2021-07-30T10:11:29Z</time>
      </trkpt>
      <trkpt lat="48.77143" lon="6.40109">
        <ele>201.4</ele>
        <time>2021-07-30T10:11:30Z</time>
      </trkpt>
      <trkpt lat="48.77141" lon="6.40116">
        <ele>201.2</ele>
        <time>2021-07-30T10:11:31Z</time>
      </trkpt>
      <trkpt lat="48.77139" lon="6.40121">
        <ele>200.9</ele>
        <time>2021-07-30T10:11:32Z</time>
      </trkpt>
      <trkpt lat="48.77138" lon="6.40126">
        <ele>200.9</ele>
        <time>2021-07-30T10:11:34Z</time>
      </trkpt>
      <trkpt lat="48.77137" lon="6.40131">
        <ele>200.8</ele>
        <time>2021-07-30T10:11:35Z</time>
      </trkpt>
      <trkpt lat="48.77133" lon="6.40139">
        <ele>200.7</ele>
        <time>2021-07-30T10:11:37Z</time>
      </trkpt>
      <trkpt lat="48.77132" lon="6.40143">
        <ele>200.7</ele>
        <time>2021-07-30T10:11:38Z</time>
      </trkpt>
      <trkpt lat="48.77131" lon="6.40146">
        <ele>200.7</ele>
        <time>2021-07-30T10:11:39Z</time>
      </trkpt>
      <trkpt lat="48.7713" lon="6.4015">
        <ele>200.6</ele>
        <time>2021-07-30T10:11:41Z</time>
      </trkpt>
      <trkpt lat="48.77131" lon="6.40152">
        <ele>200.5</ele>
        <time>2021-07-30T10:11:42Z</time>
      </trkpt>
      <trkpt lat="48.77131" lon="6.40153">
        <ele>200.5</ele>
        <time>2021-07-30T10:11:44Z</time>
      </trkpt>
      <trkpt lat="48.77131" lon="6.40154">
        <ele>200.5</ele>
        <time>2021-07-30T10:11:45Z</time>
      </trkpt>
      <trkpt lat="48.77132" lon="6.40155">
        <ele>200.5</ele>
        <time>2021-07-30T10:11:46Z</time>
      </trkpt>
      <trkpt lat="48.77132" lon="6.40157">
        <ele>200.4</ele>
        <time>2021-07-30T10:11:48Z</time>
      </trkpt>
      <trkpt lat="48.77135" lon="6.40157">
        <ele>200.3</ele>
        <time>2021-07-30T10:11:50Z</time>
      </trkpt>
      <trkpt lat="48.77136" lon="6.40157">
        <ele>200.2</ele>
        <time>2021-07-30T10:11:51Z</time>
      </trkpt>
      <trkpt lat="48.77136" lon="6.40157">
        <ele>200.2</ele>
        <time>2021-07-30T10:11:52Z</time>
      </trkpt>
      <trkpt lat="48.77136" lon="6.40157">
        <ele>200.2</ele>
        <time>2021-07-30T10:11:53Z</time>
      </trkpt>
      <trkpt lat="48.77136" lon="6.40157">
        <ele>200.2</ele>
        <time>2021-07-30T10:11:55Z</time>
      </trkpt>
      <trkpt lat="48.77136" lon="6.40157">
        <ele>200.2</ele>
        <time>2021-07-30T10:11:56Z</time>
      </trkpt>
      <trkpt lat="48.77137" lon="6.40158">
        <ele>200.2</ele>
        <time>2021-07-30T10:11:57Z</time>
      </trkpt>
      <trkpt lat="48.77137" lon="6.40159">
        <ele>200.2</ele>
        <time>2021-07-30T10:11:59Z</time>
      </trkpt>
      <trkpt lat="48.77139" lon="6.40175">
        <ele>199.7</ele>
        <time>2021-07-30T10:12:06Z</time>
      </trkpt>
      <trkpt lat="48.77141" lon="6.40182">
        <ele>199.5</ele>
        <time>2021-07-30T10:12:08Z</time>
      </trkpt>
      <trkpt lat="48.77142" lon="6.40186">
        <ele>199.4</ele>
        <time>2021-07-30T10:12:09Z</time>
      </trkpt>
      <trkpt lat="48.77142" lon="6.40192">
        <ele>199.3</ele>
        <time>2021-07-30T10:12:11Z</time>
      </trkpt>
      <trkpt lat="48.77144" lon="6.40197">
        <ele>199.2</ele>
        <time>2021-07-30T10:12:13Z</time>
      </trkpt>
      <trkpt lat="48.77144" lon="6.402">
        <ele>199</ele>
        <time>2021-07-30T10:12:14Z</time>
      </trkpt>
      <trkpt lat="48.77144" lon="6.40205">
        <ele>199</ele>
        <time>2021-07-30T10:12:16Z</time>
      </trkpt>
      <trkpt lat="48.77145" lon="6.40207">
        <ele>199</ele>
        <time>2021-07-30T10:12:17Z</time>
      </trkpt>
      <trkpt lat="48.77145" lon="6.40213">
        <ele>198.8</ele>
        <time>2021-07-30T10:12:19Z</time>
      </trkpt>
      <trkpt lat="48.77145" lon="6.40217">
        <ele>198.7</ele>
        <time>2021-07-30T10:12:20Z</time>
      </trkpt>
      <trkpt lat="48.77145" lon="6.4022">
        <ele>198.6</ele>
        <time>2021-07-30T10:12:22Z</time>
      </trkpt>
      <trkpt lat="48.77145" lon="6.40222">
        <ele>198.6</ele>
        <time>2021-07-30T10:12:24Z</time>
      </trkpt>
      <trkpt lat="48.77144" lon="6.40226">
        <ele>198.5</ele>
        <time>2021-07-30T10:12:25Z</time>
      </trkpt>
      <trkpt lat="48.77144" lon="6.40229">
        <ele>198.4</ele>
        <time>2021-07-30T10:12:26Z</time>
      </trkpt>
      <trkpt lat="48.77144" lon="6.40231">
        <ele>198.4</ele>
        <time>2021-07-30T10:12:28Z</time>
      </trkpt>
      <trkpt lat="48.77144" lon="6.40233">
        <ele>198.3</ele>
        <time>2021-07-30T10:12:29Z</time>
      </trkpt>
      <trkpt lat="48.77145" lon="6.4024">
        <ele>198.3</ele>
        <time>2021-07-30T10:12:31Z</time>
      </trkpt>
      <trkpt lat="48.77146" lon="6.40245">
        <ele>198.2</ele>
        <time>2021-07-30T10:12:33Z</time>
      </trkpt>
      <trkpt lat="48.77146" lon="6.40246">
        <ele>198.1</ele>
        <time>2021-07-30T10:12:34Z</time>
      </trkpt>
      <trkpt lat="48.77146" lon="6.40247">
        <ele>198.1</ele>
        <time>2021-07-30T10:12:35Z</time>
      </trkpt>
      <trkpt lat="48.77148" lon="6.40246">
        <ele>198.1</ele>
        <time>2021-07-30T10:12:36Z</time>
      </trkpt>
      <trkpt lat="48.77149" lon="6.40248">
        <ele>198</ele>
        <time>2021-07-30T10:12:38Z</time>
      </trkpt>
      <trkpt lat="48.77149" lon="6.40248">
        <ele>198</ele>
        <time>2021-07-30T10:12:39Z</time>
      </trkpt>
      <trkpt lat="48.7715" lon="6.40248">
        <ele>198</ele>
        <time>2021-07-30T10:12:40Z</time>
      </trkpt>
      <trkpt lat="48.77151" lon="6.40251">
        <ele>197.9</ele>
        <time>2021-07-30T10:12:41Z</time>
      </trkpt>
      <trkpt lat="48.77153" lon="6.40254">
        <ele>197.9</ele>
        <time>2021-07-30T10:12:43Z</time>
      </trkpt>
      <trkpt lat="48.77155" lon="6.40258">
        <ele>197.9</ele>
        <time>2021-07-30T10:12:45Z</time>
      </trkpt>
      <trkpt lat="48.77157" lon="6.4026">
        <ele>197.8</ele>
        <time>2021-07-30T10:12:47Z</time>
      </trkpt>
      <trkpt lat="48.77158" lon="6.40261">
        <ele>197.8</ele>
        <time>2021-07-30T10:12:48Z</time>
      </trkpt>
      <trkpt lat="48.77158" lon="6.40266">
        <ele>197.7</ele>
        <time>2021-07-30T10:12:50Z</time>
      </trkpt>
      <trkpt lat="48.77158" lon="6.4027">
        <ele>197.7</ele>
        <time>2021-07-30T10:12:51Z</time>
      </trkpt>
      <trkpt lat="48.77158" lon="6.40271">
        <ele>197.7</ele>
        <time>2021-07-30T10:12:52Z</time>
      </trkpt>
      <trkpt lat="48.77157" lon="6.40274">
        <ele>197.7</ele>
        <time>2021-07-30T10:12:53Z</time>
      </trkpt>
      <trkpt lat="48.77158" lon="6.40276">
        <ele>197.6</ele>
        <time>2021-07-30T10:12:54Z</time>
      </trkpt>
      <trkpt lat="48.77158" lon="6.40279">
        <ele>197.6</ele>
        <time>2021-07-30T10:12:55Z</time>
      </trkpt>
      <trkpt lat="48.77158" lon="6.4028">
        <ele>197.6</ele>
        <time>2021-07-30T10:12:56Z</time>
      </trkpt>
      <trkpt lat="48.77158" lon="6.40281">
        <ele>197.6</ele>
        <time>2021-07-30T10:12:57Z</time>
      </trkpt>
      <trkpt lat="48.7716" lon="6.40285">
        <ele>197.5</ele>
        <time>2021-07-30T10:12:59Z</time>
      </trkpt>
      <trkpt lat="48.7716" lon="6.40287">
        <ele>197.5</ele>
        <time>2021-07-30T10:13:00Z</time>
      </trkpt>
      <trkpt lat="48.77161" lon="6.40289">
        <ele>197.4</ele>
        <time>2021-07-30T10:13:02Z</time>
      </trkpt>
      <trkpt lat="48.77161" lon="6.40289">
        <ele>197.4</ele>
        <time>2021-07-30T10:13:03Z</time>
      </trkpt>
      <trkpt lat="48.77161" lon="6.40289">
        <ele>197.4</ele>
        <time>2021-07-30T10:13:04Z</time>
      </trkpt>
      <trkpt lat="48.77164" lon="6.40293">
        <ele>197.3</ele>
        <time>2021-07-30T10:13:06Z</time>
      </trkpt>
      <trkpt lat="48.77165" lon="6.40294">
        <ele>197.3</ele>
        <time>2021-07-30T10:13:07Z</time>
      </trkpt>
      <trkpt lat="48.77166" lon="6.40296">
        <ele>197.3</ele>
        <time>2021-07-30T10:13:09Z</time>
      </trkpt>
      <trkpt lat="48.77167" lon="6.40299">
        <ele>197.2</ele>
        <time>2021-07-30T10:13:10Z</time>
      </trkpt>
      <trkpt lat="48.77167" lon="6.40302">
        <ele>197.2</ele>
        <time>2021-07-30T10:13:12Z</time>
      </trkpt>
      <trkpt lat="48.7717" lon="6.40307">
        <ele>197.1</ele>
        <time>2021-07-30T10:13:14Z</time>
      </trkpt>
      <trkpt lat="48.7717" lon="6.40309">
        <ele>197.1</ele>
        <time>2021-07-30T10:13:15Z</time>
      </trkpt>
      <trkpt lat="48.77171" lon="6.4031">
        <ele>197.1</ele>
        <time>2021-07-30T10:13:16Z</time>
      </trkpt>
      <trkpt lat="48.77172" lon="6.40312">
        <ele>197.1</ele>
        <time>2021-07-30T10:13:18Z</time>
      </trkpt>
      <trkpt lat="48.77173" lon="6.40314">
        <ele>197</ele>
        <time>2021-07-30T10:13:19Z</time>
      </trkpt>
      <trkpt lat="48.77173" lon="6.40316">
        <ele>197</ele>
        <time>2021-07-30T10:13:20Z</time>
      </trkpt>
      <trkpt lat="48.77174" lon="6.40318">
        <ele>197</ele>
        <time>2021-07-30T10:13:21Z</time>
      </trkpt>
      <trkpt lat="48.77174" lon="6.40321">
        <ele>197</ele>
        <time>2021-07-30T10:13:23Z</time>
      </trkpt>
      <trkpt lat="48.77176" lon="6.40324">
        <ele>196.9</ele>
        <time>2021-07-30T10:13:24Z</time>
      </trkpt>
      <trkpt lat="48.77176" lon="6.40326">
        <ele>196.9</ele>
        <time>2021-07-30T10:13:26Z</time>
      </trkpt>
      <trkpt lat="48.77177" lon="6.40328">
        <ele>196.8</ele>
        <time>2021-07-30T10:13:28Z</time>
      </trkpt>
      <trkpt lat="48.77178" lon="6.40329">
        <ele>196.8</ele>
        <time>2021-07-30T10:13:30Z</time>
      </trkpt>
      <trkpt lat="48.77178" lon="6.40331">
        <ele>196.8</ele>
        <time>2021-07-30T10:13:31Z</time>
      </trkpt>
      <trkpt lat="48.77179" lon="6.40333">
        <ele>196.8</ele>
        <time>2021-07-30T10:13:32Z</time>
      </trkpt>
      <trkpt lat="48.7718" lon="6.40335">
        <ele>196.8</ele>
        <time>2021-07-30T10:13:33Z</time>
      </trkpt>
      <trkpt lat="48.7718" lon="6.40337">
        <ele>196.7</ele>
        <time>2021-07-30T10:13:34Z</time>
      </trkpt>
      <trkpt lat="48.77181" lon="6.40341">
        <ele>196.7</ele>
        <time>2021-07-30T10:13:35Z</time>
      </trkpt>
      <trkpt lat="48.77181" lon="6.40344">
        <ele>196.7</ele>
        <time>2021-07-30T10:13:36Z</time>
      </trkpt>
      <trkpt lat="48.77181" lon="6.4035">
        <ele>196.6</ele>
        <time>2021-07-30T10:13:38Z</time>
      </trkpt>
      <trkpt lat="48.77182" lon="6.40356">
        <ele>196.6</ele>
        <time>2021-07-30T10:13:39Z</time>
      </trkpt>
      <trkpt lat="48.77182" lon="6.40358">
        <ele>196.6</ele>
        <time>2021-07-30T10:13:40Z</time>
      </trkpt>
      <trkpt lat="48.77182" lon="6.40365">
        <ele>196.6</ele>
        <time>2021-07-30T10:13:42Z</time>
      </trkpt>
      <trkpt lat="48.77183" lon="6.4037">
        <ele>196.6</ele>
        <time>2021-07-30T10:13:43Z</time>
      </trkpt>
      <trkpt lat="48.77183" lon="6.40371">
        <ele>196.6</ele>
        <time>2021-07-30T10:13:44Z</time>
      </trkpt>
      <trkpt lat="48.77183" lon="6.40373">
        <ele>196.6</ele>
        <time>2021-07-30T10:13:45Z</time>
      </trkpt>
      <trkpt lat="48.77183" lon="6.40371">
        <ele>196.6</ele>
        <time>2021-07-30T10:13:47Z</time>
      </trkpt>
      <trkpt lat="48.77183" lon="6.4037">
        <ele>196.6</ele>
        <time>2021-07-30T10:13:48Z</time>
      </trkpt>
      <trkpt lat="48.77183" lon="6.4037">
        <ele>196.6</ele>
        <time>2021-07-30T10:13:49Z</time>
      </trkpt>
      <trkpt lat="48.77183" lon="6.40369">
        <ele>196.6</ele>
        <time>2021-07-30T10:13:51Z</time>
      </trkpt>
      <trkpt lat="48.77183" lon="6.40369">
        <ele>196.5</ele>
        <time>2021-07-30T10:13:52Z</time>
      </trkpt>
      <trkpt lat="48.77183" lon="6.40369">
        <ele>196.5</ele>
        <time>2021-07-30T10:13:53Z</time>
      </trkpt>
      <trkpt lat="48.77183" lon="6.40369">
        <ele>196.5</ele>
        <time>2021-07-30T10:13:55Z</time>
      </trkpt>
      <trkpt lat="48.77191" lon="6.40382">
        <ele>196.4</ele>
        <time>2021-07-30T10:14:50Z</time>
      </trkpt>
      <trkpt lat="48.77191" lon="6.40386">
        <ele>196.4</ele>
        <time>2021-07-30T10:14:51Z</time>
      </trkpt>
      <trkpt lat="48.77191" lon="6.40395">
        <ele>196.4</ele>
        <time>2021-07-30T10:14:53Z</time>
      </trkpt>
      <trkpt lat="48.77192" lon="6.40401">
        <ele>196.4</ele>
        <time>2021-07-30T10:14:54Z</time>
      </trkpt>
      <trkpt lat="48.77192" lon="6.40407">
        <ele>196.4</ele>
        <time>2021-07-30T10:14:55Z</time>
      </trkpt>
      <trkpt lat="48.77192" lon="6.4041">
        <ele>196.5</ele>
        <time>2021-07-30T10:14:56Z</time>
      </trkpt>
      <trkpt lat="48.77191" lon="6.40416">
        <ele>196.5</ele>
        <time>2021-07-30T10:14:58Z</time>
      </trkpt>
      <trkpt lat="48.77191" lon="6.40418">
        <ele>196.6</ele>
        <time>2021-07-30T10:14:59Z</time>
      </trkpt>
      <trkpt lat="48.77191" lon="6.4042">
        <ele>196.6</ele>
        <time>2021-07-30T10:15:00Z</time>
      </trkpt>
      <trkpt lat="48.77192" lon="6.40423">
        <ele>196.5</ele>
        <time>2021-07-30T10:15:01Z</time>
      </trkpt>
      <trkpt lat="48.77193" lon="6.40426">
        <ele>196.6</ele>
        <time>2021-07-30T10:15:03Z</time>
      </trkpt>
      <trkpt lat="48.77193" lon="6.40429">
        <ele>196.6</ele>
        <time>2021-07-30T10:15:04Z</time>
      </trkpt>
      <trkpt lat="48.77192" lon="6.40431">
        <ele>196.6</ele>
        <time>2021-07-30T10:15:05Z</time>
      </trkpt>
      <trkpt lat="48.77191" lon="6.40436">
        <ele>196.7</ele>
        <time>2021-07-30T10:15:07Z</time>
      </trkpt>
      <trkpt lat="48.77191" lon="6.40438">
        <ele>196.7</ele>
        <time>2021-07-30T10:15:09Z</time>
      </trkpt>
      <trkpt lat="48.77191" lon="6.40441">
        <ele>196.7</ele>
        <time>2021-07-30T10:15:10Z</time>
      </trkpt>
      <trkpt lat="48.77191" lon="6.40444">
        <ele>196.8</ele>
        <time>2021-07-30T10:15:11Z</time>
      </trkpt>
      <trkpt lat="48.7719" lon="6.40447">
        <ele>196.8</ele>
        <time>2021-07-30T10:15:12Z</time>
      </trkpt>
      <trkpt lat="48.7719" lon="6.40451">
        <ele>196.8</ele>
        <time>2021-07-30T10:15:13Z</time>
      </trkpt>
      <trkpt lat="48.7719" lon="6.40453">
        <ele>196.8</ele>
        <time>2021-07-30T10:15:14Z</time>
      </trkpt>
      <trkpt lat="48.7719" lon="6.40457">
        <ele>196.9</ele>
        <time>2021-07-30T10:15:15Z</time>
      </trkpt>
      <trkpt lat="48.7719" lon="6.40459">
        <ele>196.9</ele>
        <time>2021-07-30T10:15:16Z</time>
      </trkpt>
      <trkpt lat="48.77191" lon="6.40463">
        <ele>196.9</ele>
        <time>2021-07-30T10:15:17Z</time>
      </trkpt>
      <trkpt lat="48.7719" lon="6.40465">
        <ele>197</ele>
        <time>2021-07-30T10:15:18Z</time>
      </trkpt>
      <trkpt lat="48.7719" lon="6.40469">
        <ele>197</ele>
        <time>2021-07-30T10:15:19Z</time>
      </trkpt>
      <trkpt lat="48.7719" lon="6.40471">
        <ele>197</ele>
        <time>2021-07-30T10:15:21Z</time>
      </trkpt>
      <trkpt lat="48.7719" lon="6.40473">
        <ele>197.1</ele>
        <time>2021-07-30T10:15:22Z</time>
      </trkpt>
      <trkpt lat="48.7719" lon="6.40475">
        <ele>197</ele>
        <time>2021-07-30T10:15:23Z</time>
      </trkpt>
      <trkpt lat="48.7719" lon="6.40479">
        <ele>197.1</ele>
        <time>2021-07-30T10:15:24Z</time>
      </trkpt>
      <trkpt lat="48.77191" lon="6.40484">
        <ele>197.1</ele>
        <time>2021-07-30T10:15:26Z</time>
      </trkpt>
      <trkpt lat="48.77191" lon="6.40487">
        <ele>197.2</ele>
        <time>2021-07-30T10:15:27Z</time>
      </trkpt>
      <trkpt lat="48.77191" lon="6.40489">
        <ele>197.2</ele>
        <time>2021-07-30T10:15:28Z</time>
      </trkpt>
      <trkpt lat="48.77191" lon="6.40492">
        <ele>197.2</ele>
        <time>2021-07-30T10:15:29Z</time>
      </trkpt>
      <trkpt lat="48.77191" lon="6.40494">
        <ele>197.2</ele>
        <time>2021-07-30T10:15:30Z</time>
      </trkpt>
      <trkpt lat="48.77191" lon="6.40495">
        <ele>197.2</ele>
        <time>2021-07-30T10:15:31Z</time>
      </trkpt>
      <trkpt lat="48.77191" lon="6.405">
        <ele>197.2</ele>
        <time>2021-07-30T10:15:33Z</time>
      </trkpt>
      <trkpt lat="48.77191" lon="6.40502">
        <ele>197.2</ele>
        <time>2021-07-30T10:15:34Z</time>
      </trkpt>
      <trkpt lat="48.77191" lon="6.40505">
        <ele>197.3</ele>
        <time>2021-07-30T10:15:35Z</time>
      </trkpt>
      <trkpt lat="48.77191" lon="6.4051">
        <ele>197.3</ele>
        <time>2021-07-30T10:15:37Z</time>
      </trkpt>
      <trkpt lat="48.77191" lon="6.40515">
        <ele>197.3</ele>
        <time>2021-07-30T10:15:38Z</time>
      </trkpt>
      <trkpt lat="48.77191" lon="6.40516">
        <ele>197.3</ele>
        <time>2021-07-30T10:15:39Z</time>
      </trkpt>
      <trkpt lat="48.77192" lon="6.4052">
        <ele>197.3</ele>
        <time>2021-07-30T10:15:40Z</time>
      </trkpt>
      <trkpt lat="48.77192" lon="6.40524">
        <ele>197.3</ele>
        <time>2021-07-30T10:15:42Z</time>
      </trkpt>
      <trkpt lat="48.77192" lon="6.40529">
        <ele>197.2</ele>
        <time>2021-07-30T10:15:43Z</time>
      </trkpt>
      <trkpt lat="48.77193" lon="6.40532">
        <ele>197.2</ele>
        <time>2021-07-30T10:15:44Z</time>
      </trkpt>
      <trkpt lat="48.77194" lon="6.40536">
        <ele>197.2</ele>
        <time>2021-07-30T10:15:46Z</time>
      </trkpt>
      <trkpt lat="48.77195" lon="6.40541">
        <ele>197.1</ele>
        <time>2021-07-30T10:15:47Z</time>
      </trkpt>
      <trkpt lat="48.77195" lon="6.40542">
        <ele>197.1</ele>
        <time>2021-07-30T10:15:48Z</time>
      </trkpt>
      <trkpt lat="48.77196" lon="6.40546">
        <ele>197.1</ele>
        <time>2021-07-30T10:15:49Z</time>
      </trkpt>
      <trkpt lat="48.77196" lon="6.40552">
        <ele>197</ele>
        <time>2021-07-30T10:15:51Z</time>
      </trkpt>
      <trkpt lat="48.77197" lon="6.40558">
        <ele>197</ele>
        <time>2021-07-30T10:15:53Z</time>
      </trkpt>
      <trkpt lat="48.77197" lon="6.40563">
        <ele>196.9</ele>
        <time>2021-07-30T10:15:54Z</time>
      </trkpt>
      <trkpt lat="48.77197" lon="6.40564">
        <ele>196.8</ele>
        <time>2021-07-30T10:15:55Z</time>
      </trkpt>
      <trkpt lat="48.77198" lon="6.40569">
        <ele>196.7</ele>
        <time>2021-07-30T10:15:56Z</time>
      </trkpt>
      <trkpt lat="48.77199" lon="6.4057">
        <ele>196.7</ele>
        <time>2021-07-30T10:15:57Z</time>
      </trkpt>
      <trkpt lat="48.77199" lon="6.40572">
        <ele>196.7</ele>
        <time>2021-07-30T10:15:58Z</time>
      </trkpt>
      <trkpt lat="48.772" lon="6.40575">
        <ele>196.7</ele>
        <time>2021-07-30T10:15:59Z</time>
      </trkpt>
      <trkpt lat="48.772" lon="6.40577">
        <ele>196.6</ele>
        <time>2021-07-30T10:16:00Z</time>
      </trkpt>
      <trkpt lat="48.77201" lon="6.4058">
        <ele>196.5</ele>
        <time>2021-07-30T10:16:01Z</time>
      </trkpt>
      <trkpt lat="48.77201" lon="6.40582">
        <ele>196.5</ele>
        <time>2021-07-30T10:16:02Z</time>
      </trkpt>
      <trkpt lat="48.77202" lon="6.40585">
        <ele>196.4</ele>
        <time>2021-07-30T10:16:03Z</time>
      </trkpt>
      <trkpt lat="48.77203" lon="6.4059">
        <ele>196.4</ele>
        <time>2021-07-30T10:16:05Z</time>
      </trkpt>
      <trkpt lat="48.77203" lon="6.40592">
        <ele>196.3</ele>
        <time>2021-07-30T10:16:06Z</time>
      </trkpt>
      <trkpt lat="48.77204" lon="6.40596">
        <ele>196.3</ele>
        <time>2021-07-30T10:16:07Z</time>
      </trkpt>
      <trkpt lat="48.77204" lon="6.40597">
        <ele>196.3</ele>
        <time>2021-07-30T10:16:08Z</time>
      </trkpt>
      <trkpt lat="48.77205" lon="6.40602">
        <ele>196.2</ele>
        <time>2021-07-30T10:16:09Z</time>
      </trkpt>
      <trkpt lat="48.77205" lon="6.40603">
        <ele>196.2</ele>
        <time>2021-07-30T10:16:10Z</time>
      </trkpt>
      <trkpt lat="48.77206" lon="6.40609">
        <ele>196.1</ele>
        <time>2021-07-30T10:16:12Z</time>
      </trkpt>
      <trkpt lat="48.77206" lon="6.4061">
        <ele>196.1</ele>
        <time>2021-07-30T10:16:13Z</time>
      </trkpt>
      <trkpt lat="48.77207" lon="6.40615">
        <ele>196.1</ele>
        <time>2021-07-30T10:16:14Z</time>
      </trkpt>
      <trkpt lat="48.77207" lon="6.40616">
        <ele>196.1</ele>
        <time>2021-07-30T10:16:15Z</time>
      </trkpt>
      <trkpt lat="48.77207" lon="6.40619">
        <ele>196.1</ele>
        <time>2021-07-30T10:16:16Z</time>
      </trkpt>
      <trkpt lat="48.77208" lon="6.40621">
        <ele>196</ele>
        <time>2021-07-30T10:16:17Z</time>
      </trkpt>
      <trkpt lat="48.77208" lon="6.40624">
        <ele>196</ele>
        <time>2021-07-30T10:16:18Z</time>
      </trkpt>
      <trkpt lat="48.77208" lon="6.40628">
        <ele>196.1</ele>
        <time>2021-07-30T10:16:20Z</time>
      </trkpt>
      <trkpt lat="48.77208" lon="6.4063">
        <ele>196</ele>
        <time>2021-07-30T10:16:21Z</time>
      </trkpt>
      <trkpt lat="48.77208" lon="6.40633">
        <ele>196.1</ele>
        <time>2021-07-30T10:16:22Z</time>
      </trkpt>
      <trkpt lat="48.77209" lon="6.40637">
        <ele>196.1</ele>
        <time>2021-07-30T10:16:23Z</time>
      </trkpt>
      <trkpt lat="48.7721" lon="6.4064">
        <ele>196.1</ele>
        <time>2021-07-30T10:16:24Z</time>
      </trkpt>
      <trkpt lat="48.7721" lon="6.40645">
        <ele>196.1</ele>
        <time>2021-07-30T10:16:26Z</time>
      </trkpt>
      <trkpt lat="48.77211" lon="6.40649">
        <ele>196.2</ele>
        <time>2021-07-30T10:16:27Z</time>
      </trkpt>
      <trkpt lat="48.77211" lon="6.40651">
        <ele>196.2</ele>
        <time>2021-07-30T10:16:28Z</time>
      </trkpt>
      <trkpt lat="48.77212" lon="6.40654">
        <ele>196.2</ele>
        <time>2021-07-30T10:16:29Z</time>
      </trkpt>
      <trkpt lat="48.77213" lon="6.40657">
        <ele>196.2</ele>
        <time>2021-07-30T10:16:31Z</time>
      </trkpt>
      <trkpt lat="48.77214" lon="6.40661">
        <ele>196.2</ele>
        <time>2021-07-30T10:16:32Z</time>
      </trkpt>
      <trkpt lat="48.77214" lon="6.40662">
        <ele>196.3</ele>
        <time>2021-07-30T10:16:33Z</time>
      </trkpt>
      <trkpt lat="48.77215" lon="6.40666">
        <ele>196.3</ele>
        <time>2021-07-30T10:16:34Z</time>
      </trkpt>
      <trkpt lat="48.77216" lon="6.40667">
        <ele>196.3</ele>
        <time>2021-07-30T10:16:35Z</time>
      </trkpt>
      <trkpt lat="48.77216" lon="6.40669">
        <ele>196.3</ele>
        <time>2021-07-30T10:16:36Z</time>
      </trkpt>
      <trkpt lat="48.77217" lon="6.40672">
        <ele>196.3</ele>
        <time>2021-07-30T10:16:38Z</time>
      </trkpt>
      <trkpt lat="48.77217" lon="6.40673">
        <ele>196.3</ele>
        <time>2021-07-30T10:16:39Z</time>
      </trkpt>
      <trkpt lat="48.77217" lon="6.40675">
        <ele>196.4</ele>
        <time>2021-07-30T10:16:40Z</time>
      </trkpt>
      <trkpt lat="48.77218" lon="6.40677">
        <ele>196.4</ele>
        <time>2021-07-30T10:16:41Z</time>
      </trkpt>
      <trkpt lat="48.77219" lon="6.40679">
        <ele>196.4</ele>
        <time>2021-07-30T10:16:42Z</time>
      </trkpt>
      <trkpt lat="48.77219" lon="6.40681">
        <ele>196.4</ele>
        <time>2021-07-30T10:16:43Z</time>
      </trkpt>
      <trkpt lat="48.7722" lon="6.40684">
        <ele>196.5</ele>
        <time>2021-07-30T10:16:44Z</time>
      </trkpt>
      <trkpt lat="48.77221" lon="6.40687">
        <ele>196.5</ele>
        <time>2021-07-30T10:16:46Z</time>
      </trkpt>
      <trkpt lat="48.77223" lon="6.4069">
        <ele>196.5</ele>
        <time>2021-07-30T10:16:47Z</time>
      </trkpt>
      <trkpt lat="48.77224" lon="6.40692">
        <ele>196.5</ele>
        <time>2021-07-30T10:16:48Z</time>
      </trkpt>
      <trkpt lat="48.77224" lon="6.40694">
        <ele>196.6</ele>
        <time>2021-07-30T10:16:50Z</time>
      </trkpt>
      <trkpt lat="48.77225" lon="6.40697">
        <ele>196.6</ele>
        <time>2021-07-30T10:16:51Z</time>
      </trkpt>
      <trkpt lat="48.77225" lon="6.40699">
        <ele>196.6</ele>
        <time>2021-07-30T10:16:52Z</time>
      </trkpt>
      <trkpt lat="48.77226" lon="6.40702">
        <ele>196.6</ele>
        <time>2021-07-30T10:16:54Z</time>
      </trkpt>
      <trkpt lat="48.77226" lon="6.40704">
        <ele>196.6</ele>
        <time>2021-07-30T10:16:55Z</time>
      </trkpt>
      <trkpt lat="48.77226" lon="6.40707">
        <ele>196.7</ele>
        <time>2021-07-30T10:16:56Z</time>
      </trkpt>
      <trkpt lat="48.77226" lon="6.40709">
        <ele>196.7</ele>
        <time>2021-07-30T10:16:58Z</time>
      </trkpt>
      <trkpt lat="48.77226" lon="6.4071">
        <ele>196.7</ele>
        <time>2021-07-30T10:16:59Z</time>
      </trkpt>
      <trkpt lat="48.77226" lon="6.4071">
        <ele>196.7</ele>
        <time>2021-07-30T10:17:00Z</time>
      </trkpt>
      <trkpt lat="48.77226" lon="6.40711">
        <ele>196.7</ele>
        <time>2021-07-30T10:17:02Z</time>
      </trkpt>
      <trkpt lat="48.77226" lon="6.40711">
        <ele>196.7</ele>
        <time>2021-07-30T10:17:03Z</time>
      </trkpt>
      <trkpt lat="48.77226" lon="6.40712">
        <ele>196.7</ele>
        <time>2021-07-30T10:17:05Z</time>
      </trkpt>
      <trkpt lat="48.77226" lon="6.40712">
        <ele>196.7</ele>
        <time>2021-07-30T10:17:07Z</time>
      </trkpt>
      <trkpt lat="48.77226" lon="6.40712">
        <ele>196.7</ele>
        <time>2021-07-30T10:17:08Z</time>
      </trkpt>
      <trkpt lat="48.77232" lon="6.4071">
        <ele>196.6</ele>
        <time>2021-07-30T10:19:41Z</time>
      </trkpt>
      <trkpt lat="48.77234" lon="6.40714">
        <ele>196.6</ele>
        <time>2021-07-30T10:19:42Z</time>
      </trkpt>
      <trkpt lat="48.77236" lon="6.40717">
        <ele>196.6</ele>
        <time>2021-07-30T10:19:43Z</time>
      </trkpt>
      <trkpt lat="48.77238" lon="6.40722">
        <ele>196.7</ele>
        <time>2021-07-30T10:19:45Z</time>
      </trkpt>
      <trkpt lat="48.7724" lon="6.40726">
        <ele>196.7</ele>
        <time>2021-07-30T10:19:46Z</time>
      </trkpt>
      <trkpt lat="48.7724" lon="6.40727">
        <ele>196.7</ele>
        <time>2021-07-30T10:19:47Z</time>
      </trkpt>
      <trkpt lat="48.77243" lon="6.40733">
        <ele>196.7</ele>
        <time>2021-07-30T10:19:49Z</time>
      </trkpt>
      <trkpt lat="48.77245" lon="6.40736">
        <ele>196.8</ele>
        <time>2021-07-30T10:19:50Z</time>
      </trkpt>
      <trkpt lat="48.77248" lon="6.4074">
        <ele>196.8</ele>
        <time>2021-07-30T10:19:52Z</time>
      </trkpt>
      <trkpt lat="48.7725" lon="6.40745">
        <ele>196.8</ele>
        <time>2021-07-30T10:19:53Z</time>
      </trkpt>
      <trkpt lat="48.7725" lon="6.40747">
        <ele>196.8</ele>
        <time>2021-07-30T10:19:54Z</time>
      </trkpt>
      <trkpt lat="48.77254" lon="6.40749">
        <ele>196.7</ele>
        <time>2021-07-30T10:19:55Z</time>
      </trkpt>
      <trkpt lat="48.77256" lon="6.4075">
        <ele>196.7</ele>
        <time>2021-07-30T10:19:56Z</time>
      </trkpt>
      <trkpt lat="48.77259" lon="6.40749">
        <ele>196.7</ele>
        <time>2021-07-30T10:19:58Z</time>
      </trkpt>
      <trkpt lat="48.77262" lon="6.40746">
        <ele>196.7</ele>
        <time>2021-07-30T10:19:59Z</time>
      </trkpt>
      <trkpt lat="48.77267" lon="6.40741">
        <ele>196.7</ele>
        <time>2021-07-30T10:20:00Z</time>
      </trkpt>
      <trkpt lat="48.7727" lon="6.40737">
        <ele>196.7</ele>
        <time>2021-07-30T10:20:02Z</time>
      </trkpt>
      <trkpt lat="48.77272" lon="6.40735">
        <ele>196.7</ele>
        <time>2021-07-30T10:20:03Z</time>
      </trkpt>
      <trkpt lat="48.77273" lon="6.40727">
        <ele>196.8</ele>
        <time>2021-07-30T10:20:05Z</time>
      </trkpt>
      <trkpt lat="48.77274" lon="6.40723">
        <ele>196.9</ele>
        <time>2021-07-30T10:20:06Z</time>
      </trkpt>
      <trkpt lat="48.77275" lon="6.40719">
        <ele>196.9</ele>
        <time>2021-07-30T10:20:07Z</time>
      </trkpt>
      <trkpt lat="48.77278" lon="6.40713">
        <ele>197</ele>
        <time>2021-07-30T10:20:09Z</time>
      </trkpt>
      <trkpt lat="48.77281" lon="6.40709">
        <ele>197.1</ele>
        <time>2021-07-30T10:20:10Z</time>
      </trkpt>
      <trkpt lat="48.77284" lon="6.40706">
        <ele>197.2</ele>
        <time>2021-07-30T10:20:11Z</time>
      </trkpt>
      <trkpt lat="48.77287" lon="6.40703">
        <ele>197.3</ele>
        <time>2021-07-30T10:20:12Z</time>
      </trkpt>
      <trkpt lat="48.77292" lon="6.40697">
        <ele>197.4</ele>
        <time>2021-07-30T10:20:14Z</time>
      </trkpt>
      <trkpt lat="48.77297" lon="6.40691">
        <ele>197.6</ele>
        <time>2021-07-30T10:20:16Z</time>
      </trkpt>
      <trkpt lat="48.77301" lon="6.40684">
        <ele>197.6</ele>
        <time>2021-07-30T10:20:17Z</time>
      </trkpt>
      <trkpt lat="48.77304" lon="6.40679">
        <ele>197.7</ele>
        <time>2021-07-30T10:20:19Z</time>
      </trkpt>
      <trkpt lat="48.77307" lon="6.40676">
        <ele>197.7</ele>
        <time>2021-07-30T10:20:20Z</time>
      </trkpt>
      <trkpt lat="48.7731" lon="6.40671">
        <ele>197.7</ele>
        <time>2021-07-30T10:20:21Z</time>
      </trkpt>
      <trkpt lat="48.77312" lon="6.40667">
        <ele>197.7</ele>
        <time>2021-07-30T10:20:22Z</time>
      </trkpt>
      <trkpt lat="48.77314" lon="6.40664">
        <ele>197.6</ele>
        <time>2021-07-30T10:20:23Z</time>
      </trkpt>
      <trkpt lat="48.77317" lon="6.40659">
        <ele>197.6</ele>
        <time>2021-07-30T10:20:25Z</time>
      </trkpt>
      <trkpt lat="48.77321" lon="6.40655">
        <ele>197.5</ele>
        <time>2021-07-30T10:20:26Z</time>
      </trkpt>
      <trkpt lat="48.77325" lon="6.40651">
        <ele>197.4</ele>
        <time>2021-07-30T10:20:28Z</time>
      </trkpt>
      <trkpt lat="48.77327" lon="6.40648">
        <ele>197.4</ele>
        <time>2021-07-30T10:20:29Z</time>
      </trkpt>
      <trkpt lat="48.7733" lon="6.40644">
        <ele>197.3</ele>
        <time>2021-07-30T10:20:30Z</time>
      </trkpt>
      <trkpt lat="48.77332" lon="6.40639">
        <ele>197.3</ele>
        <time>2021-07-30T10:20:32Z</time>
      </trkpt>
      <trkpt lat="48.77335" lon="6.40631">
        <ele>197.2</ele>
        <time>2021-07-30T10:20:34Z</time>
      </trkpt>
      <trkpt lat="48.77336" lon="6.40626">
        <ele>197.2</ele>
        <time>2021-07-30T10:20:35Z</time>
      </trkpt>
      <trkpt lat="48.77337" lon="6.40622">
        <ele>197.2</ele>
        <time>2021-07-30T10:20:37Z</time>
      </trkpt>
      <trkpt lat="48.77338" lon="6.4062">
        <ele>197.2</ele>
        <time>2021-07-30T10:20:39Z</time>
      </trkpt>
      <trkpt lat="48.77338" lon="6.40622">
        <ele>197.2</ele>
        <time>2021-07-30T10:20:40Z</time>
      </trkpt>
      <trkpt lat="48.77339" lon="6.40626">
        <ele>197.2</ele>
        <time>2021-07-30T10:20:41Z</time>
      </trkpt>
      <trkpt lat="48.7734" lon="6.40635">
        <ele>197.2</ele>
        <time>2021-07-30T10:20:42Z</time>
      </trkpt>
      <trkpt lat="48.77342" lon="6.40641">
        <ele>197.2</ele>
        <time>2021-07-30T10:20:44Z</time>
      </trkpt>
      <trkpt lat="48.77344" lon="6.40645">
        <ele>197.2</ele>
        <time>2021-07-30T10:20:45Z</time>
      </trkpt>
      <trkpt lat="48.77347" lon="6.40653">
        <ele>197.3</ele>
        <time>2021-07-30T10:20:47Z</time>
      </trkpt>
      <trkpt lat="48.77349" lon="6.40657">
        <ele>197.3</ele>
        <time>2021-07-30T10:20:48Z</time>
      </trkpt>
      <trkpt lat="48.7735" lon="6.40662">
        <ele>197.3</ele>
        <time>2021-07-30T10:20:49Z</time>
      </trkpt>
      <trkpt lat="48.77351" lon="6.4067">
        <ele>197.3</ele>
        <time>2021-07-30T10:20:50Z</time>
      </trkpt>
      <trkpt lat="48.77352" lon="6.40676">
        <ele>197.3</ele>
        <time>2021-07-30T10:20:52Z</time>
      </trkpt>
      <trkpt lat="48.77353" lon="6.40681">
        <ele>197.3</ele>
        <time>2021-07-30T10:20:53Z</time>
      </trkpt>
      <trkpt lat="48.77355" lon="6.40686">
        <ele>197.3</ele>
        <time>2021-07-30T10:20:54Z</time>
      </trkpt>
      <trkpt lat="48.77357" lon="6.40693">
        <ele>197.3</ele>
        <time>2021-07-30T10:20:55Z</time>
      </trkpt>
      <trkpt lat="48.77359" lon="6.40699">
        <ele>197.3</ele>
        <time>2021-07-30T10:20:56Z</time>
      </trkpt>
      <trkpt lat="48.77362" lon="6.40704">
        <ele>197.3</ele>
        <time>2021-07-30T10:20:58Z</time>
      </trkpt>
      <trkpt lat="48.77364" lon="6.4071">
        <ele>197.3</ele>
        <time>2021-07-30T10:20:59Z</time>
      </trkpt>
      <trkpt lat="48.77368" lon="6.40718">
        <ele>197.3</ele>
        <time>2021-07-30T10:21:00Z</time>
      </trkpt>
      <trkpt lat="48.7737" lon="6.40723">
        <ele>197.4</ele>
        <time>2021-07-30T10:21:02Z</time>
      </trkpt>
      <trkpt lat="48.77371" lon="6.40727">
        <ele>197.4</ele>
        <time>2021-07-30T10:21:03Z</time>
      </trkpt>
      <trkpt lat="48.77373" lon="6.40731">
        <ele>197.4</ele>
        <time>2021-07-30T10:21:04Z</time>
      </trkpt>
      <trkpt lat="48.77375" lon="6.40736">
        <ele>197.4</ele>
        <time>2021-07-30T10:21:05Z</time>
      </trkpt>
      <trkpt lat="48.77377" lon="6.40742">
        <ele>197.4</ele>
        <time>2021-07-30T10:21:06Z</time>
      </trkpt>
      <trkpt lat="48.77379" lon="6.40748">
        <ele>197.4</ele>
        <time>2021-07-30T10:21:07Z</time>
      </trkpt>
      <trkpt lat="48.77381" lon="6.40756">
        <ele>197.4</ele>
        <time>2021-07-30T10:21:09Z</time>
      </trkpt>
      <trkpt lat="48.77383" lon="6.4076">
        <ele>197.4</ele>
        <time>2021-07-30T10:21:10Z</time>
      </trkpt>
      <trkpt lat="48.77385" lon="6.40765">
        <ele>197.4</ele>
        <time>2021-07-30T10:21:11Z</time>
      </trkpt>
      <trkpt lat="48.77388" lon="6.40771">
        <ele>197.4</ele>
        <time>2021-07-30T10:21:12Z</time>
      </trkpt>
      <trkpt lat="48.77391" lon="6.40776">
        <ele>197.4</ele>
        <time>2021-07-30T10:21:14Z</time>
      </trkpt>
      <trkpt lat="48.77393" lon="6.40781">
        <ele>197.4</ele>
        <time>2021-07-30T10:21:15Z</time>
      </trkpt>
      <trkpt lat="48.77395" lon="6.40785">
        <ele>197.4</ele>
        <time>2021-07-30T10:21:16Z</time>
      </trkpt>
      <trkpt lat="48.77396" lon="6.4079">
        <ele>197.5</ele>
        <time>2021-07-30T10:21:17Z</time>
      </trkpt>
      <trkpt lat="48.77399" lon="6.40797">
        <ele>197.5</ele>
        <time>2021-07-30T10:21:19Z</time>
      </trkpt>
      <trkpt lat="48.77402" lon="6.40802">
        <ele>197.5</ele>
        <time>2021-07-30T10:21:20Z</time>
      </trkpt>
      <trkpt lat="48.77404" lon="6.40806">
        <ele>197.5</ele>
        <time>2021-07-30T10:21:21Z</time>
      </trkpt>
      <trkpt lat="48.77409" lon="6.40813">
        <ele>197.5</ele>
        <time>2021-07-30T10:21:23Z</time>
      </trkpt>
      <trkpt lat="48.77412" lon="6.40818">
        <ele>197.5</ele>
        <time>2021-07-30T10:21:24Z</time>
      </trkpt>
      <trkpt lat="48.77416" lon="6.40822">
        <ele>197.5</ele>
        <time>2021-07-30T10:21:25Z</time>
      </trkpt>
      <trkpt lat="48.77419" lon="6.40826">
        <ele>197.5</ele>
        <time>2021-07-30T10:21:26Z</time>
      </trkpt>
      <trkpt lat="48.77421" lon="6.4083">
        <ele>197.5</ele>
        <time>2021-07-30T10:21:27Z</time>
      </trkpt>
      <trkpt lat="48.77423" lon="6.40834">
        <ele>197.5</ele>
        <time>2021-07-30T10:21:28Z</time>
      </trkpt>
      <trkpt lat="48.77425" lon="6.40839">
        <ele>197.5</ele>
        <time>2021-07-30T10:21:29Z</time>
      </trkpt>
      <trkpt lat="48.77429" lon="6.40848">
        <ele>197.6</ele>
        <time>2021-07-30T10:21:31Z</time>
      </trkpt>
      <trkpt lat="48.77432" lon="6.40854">
        <ele>197.6</ele>
        <time>2021-07-30T10:21:32Z</time>
      </trkpt>
      <trkpt lat="48.77434" lon="6.40859">
        <ele>197.6</ele>
        <time>2021-07-30T10:21:33Z</time>
      </trkpt>
      <trkpt lat="48.77437" lon="6.40865">
        <ele>197.6</ele>
        <time>2021-07-30T10:21:34Z</time>
      </trkpt>
      <trkpt lat="48.7744" lon="6.40872">
        <ele>197.6</ele>
        <time>2021-07-30T10:21:36Z</time>
      </trkpt>
      <trkpt lat="48.77442" lon="6.40876">
        <ele>197.6</ele>
        <time>2021-07-30T10:21:37Z</time>
      </trkpt>
      <trkpt lat="48.77444" lon="6.40884">
        <ele>197.6</ele>
        <time>2021-07-30T10:21:39Z</time>
      </trkpt>
      <trkpt lat="48.77446" lon="6.40891">
        <ele>197.6</ele>
        <time>2021-07-30T10:21:40Z</time>
      </trkpt>
      <trkpt lat="48.7745" lon="6.40899">
        <ele>197.6</ele>
        <time>2021-07-30T10:21:42Z</time>
      </trkpt>
      <trkpt lat="48.77451" lon="6.40905">
        <ele>197.6</ele>
        <time>2021-07-30T10:21:43Z</time>
      </trkpt>
      <trkpt lat="48.77453" lon="6.40911">
        <ele>197.6</ele>
        <time>2021-07-30T10:21:44Z</time>
      </trkpt>
      <trkpt lat="48.77456" lon="6.40918">
        <ele>197.7</ele>
        <time>2021-07-30T10:21:46Z</time>
      </trkpt>
      <trkpt lat="48.77457" lon="6.40923">
        <ele>197.7</ele>
        <time>2021-07-30T10:21:47Z</time>
      </trkpt>
      <trkpt lat="48.7746" lon="6.40932">
        <ele>197.7</ele>
        <time>2021-07-30T10:21:49Z</time>
      </trkpt>
      <trkpt lat="48.77464" lon="6.40939">
        <ele>197.7</ele>
        <time>2021-07-30T10:21:51Z</time>
      </trkpt>
      <trkpt lat="48.77468" lon="6.40948">
        <ele>197.7</ele>
        <time>2021-07-30T10:21:53Z</time>
      </trkpt>
      <trkpt lat="48.7747" lon="6.40953">
        <ele>197.7</ele>
        <time>2021-07-30T10:21:54Z</time>
      </trkpt>
      <trkpt lat="48.77472" lon="6.40957">
        <ele>197.7</ele>
        <time>2021-07-30T10:21:55Z</time>
      </trkpt>
      <trkpt lat="48.77475" lon="6.40963">
        <ele>197.7</ele>
        <time>2021-07-30T10:21:56Z</time>
      </trkpt>
      <trkpt lat="48.77477" lon="6.40967">
        <ele>197.7</ele>
        <time>2021-07-30T10:21:57Z</time>
      </trkpt>
      <trkpt lat="48.77481" lon="6.40974">
        <ele>197.7</ele>
        <time>2021-07-30T10:21:59Z</time>
      </trkpt>
      <trkpt lat="48.77484" lon="6.40981">
        <ele>197.7</ele>
        <time>2021-07-30T10:22:00Z</time>
      </trkpt>
      <trkpt lat="48.77487" lon="6.40988">
        <ele>197.8</ele>
        <time>2021-07-30T10:22:02Z</time>
      </trkpt>
      <trkpt lat="48.7749" lon="6.40993">
        <ele>197.8</ele>
        <time>2021-07-30T10:22:03Z</time>
      </trkpt>
      <trkpt lat="48.77494" lon="6.41001">
        <ele>197.8</ele>
        <time>2021-07-30T10:22:05Z</time>
      </trkpt>
      <trkpt lat="48.77498" lon="6.41007">
        <ele>197.8</ele>
        <time>2021-07-30T10:22:06Z</time>
      </trkpt>
      <trkpt lat="48.77501" lon="6.41012">
        <ele>197.8</ele>
        <time>2021-07-30T10:22:08Z</time>
      </trkpt>
      <trkpt lat="48.77504" lon="6.41016">
        <ele>197.8</ele>
        <time>2021-07-30T10:22:09Z</time>
      </trkpt>
      <trkpt lat="48.77509" lon="6.41024">
        <ele>197.8</ele>
        <time>2021-07-30T10:22:11Z</time>
      </trkpt>
      <trkpt lat="48.77512" lon="6.41029">
        <ele>197.8</ele>
        <time>2021-07-30T10:22:12Z</time>
      </trkpt>
      <trkpt lat="48.77516" lon="6.41038">
        <ele>197.8</ele>
        <time>2021-07-30T10:22:14Z</time>
      </trkpt>
      <trkpt lat="48.77518" lon="6.41043">
        <ele>197.9</ele>
        <time>2021-07-30T10:22:15Z</time>
      </trkpt>
      <trkpt lat="48.7752" lon="6.41047">
        <ele>197.9</ele>
        <time>2021-07-30T10:22:16Z</time>
      </trkpt>
      <trkpt lat="48.77522" lon="6.41051">
        <ele>197.9</ele>
        <time>2021-07-30T10:22:17Z</time>
      </trkpt>
      <trkpt lat="48.77524" lon="6.41055">
        <ele>197.9</ele>
        <time>2021-07-30T10:22:18Z</time>
      </trkpt>
      <trkpt lat="48.77527" lon="6.4106">
        <ele>197.9</ele>
        <time>2021-07-30T10:22:19Z</time>
      </trkpt>
      <trkpt lat="48.7753" lon="6.41066">
        <ele>197.9</ele>
        <time>2021-07-30T10:22:20Z</time>
      </trkpt>
      <trkpt lat="48.77532" lon="6.41072">
        <ele>197.9</ele>
        <time>2021-07-30T10:22:22Z</time>
      </trkpt>
      <trkpt lat="48.77535" lon="6.41076">
        <ele>197.9</ele>
        <time>2021-07-30T10:22:23Z</time>
      </trkpt>
      <trkpt lat="48.77538" lon="6.41081">
        <ele>197.9</ele>
        <time>2021-07-30T10:22:24Z</time>
      </trkpt>
      <trkpt lat="48.77543" lon="6.41085">
        <ele>197.9</ele>
        <time>2021-07-30T10:22:26Z</time>
      </trkpt>
      <trkpt lat="48.77546" lon="6.41089">
        <ele>197.9</ele>
        <time>2021-07-30T10:22:27Z</time>
      </trkpt>
      <trkpt lat="48.77548" lon="6.41094">
        <ele>197.9</ele>
        <time>2021-07-30T10:22:28Z</time>
      </trkpt>
      <trkpt lat="48.7755" lon="6.41098">
        <ele>197.9</ele>
        <time>2021-07-30T10:22:29Z</time>
      </trkpt>
      <trkpt lat="48.77553" lon="6.41104">
        <ele>198</ele>
        <time>2021-07-30T10:22:30Z</time>
      </trkpt>
      <trkpt lat="48.77556" lon="6.41109">
        <ele>198</ele>
        <time>2021-07-30T10:22:32Z</time>
      </trkpt>
      <trkpt lat="48.77559" lon="6.41114">
        <ele>198</ele>
        <time>2021-07-30T10:22:33Z</time>
      </trkpt>
      <trkpt lat="48.77562" lon="6.41118">
        <ele>198</ele>
        <time>2021-07-30T10:22:35Z</time>
      </trkpt>
      <trkpt lat="48.77564" lon="6.41121">
        <ele>198</ele>
        <time>2021-07-30T10:22:36Z</time>
      </trkpt>
      <trkpt lat="48.77565" lon="6.41125">
        <ele>198</ele>
        <time>2021-07-30T10:22:37Z</time>
      </trkpt>
      <trkpt lat="48.77567" lon="6.41131">
        <ele>198</ele>
        <time>2021-07-30T10:22:39Z</time>
      </trkpt>
      <trkpt lat="48.77567" lon="6.41136">
        <ele>198</ele>
        <time>2021-07-30T10:22:40Z</time>
      </trkpt>
      <trkpt lat="48.77567" lon="6.41138">
        <ele>198</ele>
        <time>2021-07-30T10:22:41Z</time>
      </trkpt>
      <trkpt lat="48.77567" lon="6.41142">
        <ele>198</ele>
        <time>2021-07-30T10:22:42Z</time>
      </trkpt>
      <trkpt lat="48.77567" lon="6.41144">
        <ele>198</ele>
        <time>2021-07-30T10:22:44Z</time>
      </trkpt>
      <trkpt lat="48.77567" lon="6.41148">
        <ele>198</ele>
        <time>2021-07-30T10:22:45Z</time>
      </trkpt>
      <trkpt lat="48.77567" lon="6.41154">
        <ele>198</ele>
        <time>2021-07-30T10:22:47Z</time>
      </trkpt>
      <trkpt lat="48.77568" lon="6.41158">
        <ele>198</ele>
        <time>2021-07-30T10:22:48Z</time>
      </trkpt>
      <trkpt lat="48.77569" lon="6.41162">
        <ele>198</ele>
        <time>2021-07-30T10:22:50Z</time>
      </trkpt>
      <trkpt lat="48.77571" lon="6.41165">
        <ele>198</ele>
        <time>2021-07-30T10:22:52Z</time>
      </trkpt>
      <trkpt lat="48.77572" lon="6.41167">
        <ele>198</ele>
        <time>2021-07-30T10:22:53Z</time>
      </trkpt>
      <trkpt lat="48.77573" lon="6.4117">
        <ele>198.1</ele>
        <time>2021-07-30T10:22:54Z</time>
      </trkpt>
      <trkpt lat="48.77573" lon="6.41174">
        <ele>198.1</ele>
        <time>2021-07-30T10:22:55Z</time>
      </trkpt>
      <trkpt lat="48.77573" lon="6.41176">
        <ele>198.1</ele>
        <time>2021-07-30T10:22:56Z</time>
      </trkpt>
      <trkpt lat="48.77572" lon="6.41179">
        <ele>198.1</ele>
        <time>2021-07-30T10:22:58Z</time>
      </trkpt>
      <trkpt lat="48.77571" lon="6.41181">
        <ele>198.1</ele>
        <time>2021-07-30T10:22:59Z</time>
      </trkpt>
      <trkpt lat="48.77571" lon="6.41183">
        <ele>198.1</ele>
        <time>2021-07-30T10:23:00Z</time>
      </trkpt>
      <trkpt lat="48.77571" lon="6.41185">
        <ele>198.1</ele>
        <time>2021-07-30T10:23:02Z</time>
      </trkpt>
      <trkpt lat="48.77572" lon="6.41187">
        <ele>198.1</ele>
        <time>2021-07-30T10:23:03Z</time>
      </trkpt>
      <trkpt lat="48.77572" lon="6.41189">
        <ele>198.1</ele>
        <time>2021-07-30T10:23:05Z</time>
      </trkpt>
      <trkpt lat="48.77572" lon="6.41191">
        <ele>198.1</ele>
        <time>2021-07-30T10:23:07Z</time>
      </trkpt>
      <trkpt lat="48.77573" lon="6.41193">
        <ele>198.1</ele>
        <time>2021-07-30T10:23:09Z</time>
      </trkpt>
      <trkpt lat="48.77573" lon="6.41195">
        <ele>198.2</ele>
        <time>2021-07-30T10:23:47Z</time>
      </trkpt>
      <trkpt lat="48.77574" lon="6.41197">
        <ele>198.2</ele>
        <time>2021-07-30T10:23:48Z</time>
      </trkpt>
      <trkpt lat="48.77576" lon="6.41203">
        <ele>198.2</ele>
        <time>2021-07-30T10:23:49Z</time>
      </trkpt>
      <trkpt lat="48.77578" lon="6.41209">
        <ele>198.2</ele>
        <time>2021-07-30T10:23:51Z</time>
      </trkpt>
      <trkpt lat="48.77581" lon="6.41214">
        <ele>198.2</ele>
        <time>2021-07-30T10:23:52Z</time>
      </trkpt>
      <trkpt lat="48.77584" lon="6.4122">
        <ele>198.3</ele>
        <time>2021-07-30T10:23:53Z</time>
      </trkpt>
      <trkpt lat="48.77587" lon="6.41226">
        <ele>198.3</ele>
        <time>2021-07-30T10:23:54Z</time>
      </trkpt>
      <trkpt lat="48.7759" lon="6.41232">
        <ele>198.3</ele>
        <time>2021-07-30T10:23:55Z</time>
      </trkpt>
      <trkpt lat="48.77592" lon="6.41236">
        <ele>198.3</ele>
        <time>2021-07-30T10:23:56Z</time>
      </trkpt>
      <trkpt lat="48.77595" lon="6.4124">
        <ele>198.4</ele>
        <time>2021-07-30T10:23:57Z</time>
      </trkpt>
      <trkpt lat="48.77598" lon="6.41244">
        <ele>198.4</ele>
        <time>2021-07-30T10:23:59Z</time>
      </trkpt>
      <trkpt lat="48.776" lon="6.41248">
        <ele>198.4</ele>
        <time>2021-07-30T10:24:00Z</time>
      </trkpt>
      <trkpt lat="48.77604" lon="6.41252">
        <ele>198.5</ele>
        <time>2021-07-30T10:24:01Z</time>
      </trkpt>
      <trkpt lat="48.77608" lon="6.41257">
        <ele>198.5</ele>
        <time>2021-07-30T10:24:03Z</time>
      </trkpt>
      <trkpt lat="48.77611" lon="6.41261">
        <ele>198.5</ele>
        <time>2021-07-30T10:24:04Z</time>
      </trkpt>
      <trkpt lat="48.77612" lon="6.41262">
        <ele>198.5</ele>
        <time>2021-07-30T10:24:05Z</time>
      </trkpt>
      <trkpt lat="48.77615" lon="6.41266">
        <ele>198.6</ele>
        <time>2021-07-30T10:24:07Z</time>
      </trkpt>
      <trkpt lat="48.77618" lon="6.41269">
        <ele>198.6</ele>
        <time>2021-07-30T10:24:08Z</time>
      </trkpt>
      <trkpt lat="48.7762" lon="6.41272">
        <ele>198.6</ele>
        <time>2021-07-30T10:24:09Z</time>
      </trkpt>
      <trkpt lat="48.77622" lon="6.41278">
        <ele>198.6</ele>
        <time>2021-07-30T10:24:10Z</time>
      </trkpt>
      <trkpt lat="48.77624" lon="6.41282">
        <ele>198.7</ele>
        <time>2021-07-30T10:24:11Z</time>
      </trkpt>
      <trkpt lat="48.77625" lon="6.41286">
        <ele>198.7</ele>
        <time>2021-07-30T10:24:12Z</time>
      </trkpt>
      <trkpt lat="48.77628" lon="6.41292">
        <ele>198.7</ele>
        <time>2021-07-30T10:24:14Z</time>
      </trkpt>
      <trkpt lat="48.77631" lon="6.41299">
        <ele>198.7</ele>
        <time>2021-07-30T10:24:16Z</time>
      </trkpt>
      <trkpt lat="48.77632" lon="6.41302">
        <ele>198.7</ele>
        <time>2021-07-30T10:24:17Z</time>
      </trkpt>
      <trkpt lat="48.77634" lon="6.41309">
        <ele>198.8</ele>
        <time>2021-07-30T10:24:19Z</time>
      </trkpt>
      <trkpt lat="48.77636" lon="6.41313">
        <ele>198.7</ele>
        <time>2021-07-30T10:24:20Z</time>
      </trkpt>
      <trkpt lat="48.77638" lon="6.41316">
        <ele>198.7</ele>
        <time>2021-07-30T10:24:21Z</time>
      </trkpt>
      <trkpt lat="48.77641" lon="6.41319">
        <ele>198.7</ele>
        <time>2021-07-30T10:24:22Z</time>
      </trkpt>
      <trkpt lat="48.77643" lon="6.41323">
        <ele>198.7</ele>
        <time>2021-07-30T10:24:23Z</time>
      </trkpt>
      <trkpt lat="48.77645" lon="6.41326">
        <ele>198.7</ele>
        <time>2021-07-30T10:24:24Z</time>
      </trkpt>
      <trkpt lat="48.77647" lon="6.41329">
        <ele>198.6</ele>
        <time>2021-07-30T10:24:25Z</time>
      </trkpt>
      <trkpt lat="48.77649" lon="6.41332">
        <ele>198.6</ele>
        <time>2021-07-30T10:24:26Z</time>
      </trkpt>
      <trkpt lat="48.77652" lon="6.41339">
        <ele>198.6</ele>
        <time>2021-07-30T10:24:28Z</time>
      </trkpt>
      <trkpt lat="48.77653" lon="6.41344">
        <ele>198.6</ele>
        <time>2021-07-30T10:24:29Z</time>
      </trkpt>
      <trkpt lat="48.77655" lon="6.41347">
        <ele>198.6</ele>
        <time>2021-07-30T10:24:30Z</time>
      </trkpt>
      <trkpt lat="48.77658" lon="6.41351">
        <ele>198.6</ele>
        <time>2021-07-30T10:24:32Z</time>
      </trkpt>
      <trkpt lat="48.77659" lon="6.41351">
        <ele>198.6</ele>
        <time>2021-07-30T10:24:33Z</time>
      </trkpt>
      <trkpt lat="48.77661" lon="6.41355">
        <ele>198.6</ele>
        <time>2021-07-30T10:24:35Z</time>
      </trkpt>
      <trkpt lat="48.77667" lon="6.41364">
        <ele>198.6</ele>
        <time>2021-07-30T10:24:36Z</time>
      </trkpt>
      <trkpt lat="48.7767" lon="6.41369">
        <ele>198.6</ele>
        <time>2021-07-30T10:24:38Z</time>
      </trkpt>
      <trkpt lat="48.77675" lon="6.41378">
        <ele>198.7</ele>
        <time>2021-07-30T10:24:40Z</time>
      </trkpt>
      <trkpt lat="48.77677" lon="6.41385">
        <ele>198.7</ele>
        <time>2021-07-30T10:24:41Z</time>
      </trkpt>
      <trkpt lat="48.77678" lon="6.41393">
        <ele>198.7</ele>
        <time>2021-07-30T10:24:42Z</time>
      </trkpt>
      <trkpt lat="48.77679" lon="6.41402">
        <ele>198.7</ele>
        <time>2021-07-30T10:24:43Z</time>
      </trkpt>
      <trkpt lat="48.77681" lon="6.41411">
        <ele>198.7</ele>
        <time>2021-07-30T10:24:45Z</time>
      </trkpt>
      <trkpt lat="48.77683" lon="6.41415">
        <ele>198.7</ele>
        <time>2021-07-30T10:24:46Z</time>
      </trkpt>
      <trkpt lat="48.77688" lon="6.41414">
        <ele>198.7</ele>
        <time>2021-07-30T10:24:48Z</time>
      </trkpt>
      <trkpt lat="48.7769" lon="6.41416">
        <ele>198.7</ele>
        <time>2021-07-30T10:24:49Z</time>
      </trkpt>
      <trkpt lat="48.77691" lon="6.41417">
        <ele>198.8</ele>
        <time>2021-07-30T10:24:50Z</time>
      </trkpt>
      <trkpt lat="48.77693" lon="6.4142">
        <ele>198.8</ele>
        <time>2021-07-30T10:24:51Z</time>
      </trkpt>
      <trkpt lat="48.77697" lon="6.41425">
        <ele>198.8</ele>
        <time>2021-07-30T10:24:53Z</time>
      </trkpt>
      <trkpt lat="48.777" lon="6.41433">
        <ele>198.8</ele>
        <time>2021-07-30T10:24:54Z</time>
      </trkpt>
      <trkpt lat="48.77703" lon="6.41438">
        <ele>198.8</ele>
        <time>2021-07-30T10:24:55Z</time>
      </trkpt>
      <trkpt lat="48.77704" lon="6.41443">
        <ele>198.8</ele>
        <time>2021-07-30T10:24:56Z</time>
      </trkpt>
      <trkpt lat="48.77705" lon="6.41454">
        <ele>198.9</ele>
        <time>2021-07-30T10:24:58Z</time>
      </trkpt>
      <trkpt lat="48.77708" lon="6.41458">
        <ele>198.9</ele>
        <time>2021-07-30T10:25:00Z</time>
      </trkpt>
      <trkpt lat="48.7771" lon="6.41462">
        <ele>198.9</ele>
        <time>2021-07-30T10:25:01Z</time>
      </trkpt>
      <trkpt lat="48.77715" lon="6.41467">
        <ele>198.9</ele>
        <time>2021-07-30T10:25:02Z</time>
      </trkpt>
      <trkpt lat="48.77719" lon="6.41466">
        <ele>198.9</ele>
        <time>2021-07-30T10:25:04Z</time>
      </trkpt>
      <trkpt lat="48.77722" lon="6.41465">
        <ele>198.9</ele>
        <time>2021-07-30T10:25:05Z</time>
      </trkpt>
      <trkpt lat="48.77725" lon="6.41466">
        <ele>198.9</ele>
        <time>2021-07-30T10:25:07Z</time>
      </trkpt>
      <trkpt lat="48.77729" lon="6.41469">
        <ele>199</ele>
        <time>2021-07-30T10:25:08Z</time>
      </trkpt>
      <trkpt lat="48.7773" lon="6.41474">
        <ele>199</ele>
        <time>2021-07-30T10:25:10Z</time>
      </trkpt>
      <trkpt lat="48.77731" lon="6.41477">
        <ele>199</ele>
        <time>2021-07-30T10:25:11Z</time>
      </trkpt>
      <trkpt lat="48.77737" lon="6.41492">
        <ele>199</ele>
        <time>2021-07-30T10:25:16Z</time>
      </trkpt>
      <trkpt lat="48.77741" lon="6.41499">
        <ele>199</ele>
        <time>2021-07-30T10:25:18Z</time>
      </trkpt>
      <trkpt lat="48.77744" lon="6.41504">
        <ele>199</ele>
        <time>2021-07-30T10:25:19Z</time>
      </trkpt>
      <trkpt lat="48.77749" lon="6.41512">
        <ele>199</ele>
        <time>2021-07-30T10:25:20Z</time>
      </trkpt>
      <trkpt lat="48.77755" lon="6.41517">
        <ele>199</ele>
        <time>2021-07-30T10:25:21Z</time>
      </trkpt>
      <trkpt lat="48.77762" lon="6.41522">
        <ele>199</ele>
        <time>2021-07-30T10:25:23Z</time>
      </trkpt>
      <trkpt lat="48.77769" lon="6.41527">
        <ele>199.1</ele>
        <time>2021-07-30T10:25:24Z</time>
      </trkpt>
      <trkpt lat="48.77777" lon="6.41533">
        <ele>199.1</ele>
        <time>2021-07-30T10:25:26Z</time>
      </trkpt>
      <trkpt lat="48.77783" lon="6.41535">
        <ele>199.1</ele>
        <time>2021-07-30T10:25:27Z</time>
      </trkpt>
      <trkpt lat="48.77788" lon="6.4154">
        <ele>199.1</ele>
        <time>2021-07-30T10:25:28Z</time>
      </trkpt>
      <trkpt lat="48.77792" lon="6.41544">
        <ele>199.1</ele>
        <time>2021-07-30T10:25:29Z</time>
      </trkpt>
      <trkpt lat="48.77795" lon="6.41548">
        <ele>199.1</ele>
        <time>2021-07-30T10:25:30Z</time>
      </trkpt>
      <trkpt lat="48.77797" lon="6.41552">
        <ele>199.1</ele>
        <time>2021-07-30T10:25:31Z</time>
      </trkpt>
      <trkpt lat="48.778" lon="6.41555">
        <ele>199.1</ele>
        <time>2021-07-30T10:25:32Z</time>
      </trkpt>
      <trkpt lat="48.77803" lon="6.41558">
        <ele>199.1</ele>
        <time>2021-07-30T10:25:33Z</time>
      </trkpt>
      <trkpt lat="48.77806" lon="6.41561">
        <ele>199.1</ele>
        <time>2021-07-30T10:25:34Z</time>
      </trkpt>
      <trkpt lat="48.7781" lon="6.41566">
        <ele>199.1</ele>
        <time>2021-07-30T10:25:36Z</time>
      </trkpt>
      <trkpt lat="48.77813" lon="6.41572">
        <ele>199.1</ele>
        <time>2021-07-30T10:25:37Z</time>
      </trkpt>
      <trkpt lat="48.77814" lon="6.41575">
        <ele>199.1</ele>
        <time>2021-07-30T10:25:38Z</time>
      </trkpt>
      <trkpt lat="48.77817" lon="6.41582">
        <ele>199.1</ele>
        <time>2021-07-30T10:25:40Z</time>
      </trkpt>
      <trkpt lat="48.7782" lon="6.41587">
        <ele>199.1</ele>
        <time>2021-07-30T10:25:41Z</time>
      </trkpt>
      <trkpt lat="48.77824" lon="6.41592">
        <ele>199.2</ele>
        <time>2021-07-30T10:25:42Z</time>
      </trkpt>
      <trkpt lat="48.77829" lon="6.41597">
        <ele>199.2</ele>
        <time>2021-07-30T10:25:43Z</time>
      </trkpt>
      <trkpt lat="48.77835" lon="6.41601">
        <ele>199.2</ele>
        <time>2021-07-30T10:25:45Z</time>
      </trkpt>
      <trkpt lat="48.77842" lon="6.41603">
        <ele>199.2</ele>
        <time>2021-07-30T10:25:46Z</time>
      </trkpt>
      <trkpt lat="48.77845" lon="6.41605">
        <ele>199.2</ele>
        <time>2021-07-30T10:25:47Z</time>
      </trkpt>
      <trkpt lat="48.77848" lon="6.41607">
        <ele>199.2</ele>
        <time>2021-07-30T10:25:48Z</time>
      </trkpt>
      <trkpt lat="48.77852" lon="6.41608">
        <ele>199.3</ele>
        <time>2021-07-30T10:25:50Z</time>
      </trkpt>
      <trkpt lat="48.77855" lon="6.41608">
        <ele>199.3</ele>
        <time>2021-07-30T10:25:51Z</time>
      </trkpt>
      <trkpt lat="48.77861" lon="6.41607">
        <ele>199.3</ele>
        <time>2021-07-30T10:25:52Z</time>
      </trkpt>
      <trkpt lat="48.77864" lon="6.41606">
        <ele>199.3</ele>
        <time>2021-07-30T10:25:54Z</time>
      </trkpt>
      <trkpt lat="48.77865" lon="6.41606">
        <ele>199.3</ele>
        <time>2021-07-30T10:25:55Z</time>
      </trkpt>
      <trkpt lat="48.77867" lon="6.41612">
        <ele>199.3</ele>
        <time>2021-07-30T10:25:57Z</time>
      </trkpt>
      <trkpt lat="48.77868" lon="6.41621">
        <ele>199.3</ele>
        <time>2021-07-30T10:25:58Z</time>
      </trkpt>
      <trkpt lat="48.77869" lon="6.41626">
        <ele>199.4</ele>
        <time>2021-07-30T10:25:59Z</time>
      </trkpt>
      <trkpt lat="48.77871" lon="6.41633">
        <ele>199.4</ele>
        <time>2021-07-30T10:26:00Z</time>
      </trkpt>
      <trkpt lat="48.77874" lon="6.41641">
        <ele>199.4</ele>
        <time>2021-07-30T10:26:02Z</time>
      </trkpt>
      <trkpt lat="48.77877" lon="6.41648">
        <ele>199.4</ele>
        <time>2021-07-30T10:26:03Z</time>
      </trkpt>
      <trkpt lat="48.77879" lon="6.41654">
        <ele>199.4</ele>
        <time>2021-07-30T10:26:04Z</time>
      </trkpt>
      <trkpt lat="48.7788" lon="6.41658">
        <ele>199.4</ele>
        <time>2021-07-30T10:26:05Z</time>
      </trkpt>
      <trkpt lat="48.77883" lon="6.41668">
        <ele>199.4</ele>
        <time>2021-07-30T10:26:07Z</time>
      </trkpt>
      <trkpt lat="48.77885" lon="6.41672">
        <ele>199.4</ele>
        <time>2021-07-30T10:26:08Z</time>
      </trkpt>
      <trkpt lat="48.77885" lon="6.41673">
        <ele>199.4</ele>
        <time>2021-07-30T10:26:09Z</time>
      </trkpt>
      <trkpt lat="48.77888" lon="6.41678">
        <ele>199.4</ele>
        <time>2021-07-30T10:26:11Z</time>
      </trkpt>
      <trkpt lat="48.77894" lon="6.41682">
        <ele>199.5</ele>
        <time>2021-07-30T10:26:13Z</time>
      </trkpt>
      <trkpt lat="48.77902" lon="6.41688">
        <ele>199.5</ele>
        <time>2021-07-30T10:26:15Z</time>
      </trkpt>
      <trkpt lat="48.77906" lon="6.41691">
        <ele>199.5</ele>
        <time>2021-07-30T10:26:16Z</time>
      </trkpt>
      <trkpt lat="48.7791" lon="6.41695">
        <ele>199.5</ele>
        <time>2021-07-30T10:26:17Z</time>
      </trkpt>
      <trkpt lat="48.77912" lon="6.41698">
        <ele>199.5</ele>
        <time>2021-07-30T10:26:18Z</time>
      </trkpt>
      <trkpt lat="48.77913" lon="6.417">
        <ele>199.5</ele>
        <time>2021-07-30T10:26:19Z</time>
      </trkpt>
      <trkpt lat="48.77914" lon="6.41707">
        <ele>199.5</ele>
        <time>2021-07-30T10:26:21Z</time>
      </trkpt>
      <trkpt lat="48.77915" lon="6.41711">
        <ele>199.5</ele>
        <time>2021-07-30T10:26:22Z</time>
      </trkpt>
      <trkpt lat="48.77915" lon="6.41712">
        <ele>199.5</ele>
        <time>2021-07-30T10:26:23Z</time>
      </trkpt>
      <trkpt lat="48.77917" lon="6.41715">
        <ele>199.5</ele>
        <time>2021-07-30T10:26:24Z</time>
      </trkpt>
      <trkpt lat="48.77918" lon="6.41716">
        <ele>199.5</ele>
        <time>2021-07-30T10:26:25Z</time>
      </trkpt>
      <trkpt lat="48.77921" lon="6.41719">
        <ele>199.5</ele>
        <time>2021-07-30T10:26:27Z</time>
      </trkpt>
      <trkpt lat="48.77948" lon="6.41751">
        <ele>199.6</ele>
        <time>2021-07-30T10:26:38Z</time>
      </trkpt>
      <trkpt lat="48.77959" lon="6.41762">
        <ele>199.6</ele>
        <time>2021-07-30T10:26:40Z</time>
      </trkpt>
      <trkpt lat="48.77967" lon="6.41767">
        <ele>199.6</ele>
        <time>2021-07-30T10:26:41Z</time>
      </trkpt>
      <trkpt lat="48.77973" lon="6.41771">
        <ele>199.6</ele>
        <time>2021-07-30T10:26:42Z</time>
      </trkpt>
      <trkpt lat="48.77981" lon="6.41774">
        <ele>199.6</ele>
        <time>2021-07-30T10:26:43Z</time>
      </trkpt>
      <trkpt lat="48.77985" lon="6.41778">
        <ele>199.6</ele>
        <time>2021-07-30T10:26:44Z</time>
      </trkpt>
      <trkpt lat="48.77989" lon="6.4178">
        <ele>199.6</ele>
        <time>2021-07-30T10:26:45Z</time>
      </trkpt>
      <trkpt lat="48.77993" lon="6.41783">
        <ele>199.6</ele>
        <time>2021-07-30T10:26:46Z</time>
      </trkpt>
      <trkpt lat="48.77996" lon="6.41787">
        <ele>199.6</ele>
        <time>2021-07-30T10:26:47Z</time>
      </trkpt>
      <trkpt lat="48.78003" lon="6.41795">
        <ele>199.6</ele>
        <time>2021-07-30T10:26:49Z</time>
      </trkpt>
      <trkpt lat="48.7801" lon="6.41801">
        <ele>199.6</ele>
        <time>2021-07-30T10:26:51Z</time>
      </trkpt>
      <trkpt lat="48.78013" lon="6.41804">
        <ele>199.6</ele>
        <time>2021-07-30T10:26:52Z</time>
      </trkpt>
      <trkpt lat="48.78018" lon="6.4181">
        <ele>199.6</ele>
        <time>2021-07-30T10:26:53Z</time>
      </trkpt>
      <trkpt lat="48.78021" lon="6.41813">
        <ele>199.6</ele>
        <time>2021-07-30T10:26:54Z</time>
      </trkpt>
      <trkpt lat="48.78025" lon="6.41817">
        <ele>199.6</ele>
        <time>2021-07-30T10:26:56Z</time>
      </trkpt>
      <trkpt lat="48.78028" lon="6.4182">
        <ele>199.5</ele>
        <time>2021-07-30T10:26:57Z</time>
      </trkpt>
      <trkpt lat="48.78029" lon="6.41821">
        <ele>199.5</ele>
        <time>2021-07-30T10:26:58Z</time>
      </trkpt>
      <trkpt lat="48.78034" lon="6.41826">
        <ele>199.5</ele>
        <time>2021-07-30T10:27:00Z</time>
      </trkpt>
      <trkpt lat="48.78037" lon="6.4183">
        <ele>199.5</ele>
        <time>2021-07-30T10:27:01Z</time>
      </trkpt>
      <trkpt lat="48.78041" lon="6.41833">
        <ele>199.5</ele>
        <time>2021-07-30T10:27:02Z</time>
      </trkpt>
      <trkpt lat="48.78045" lon="6.41836">
        <ele>199.5</ele>
        <time>2021-07-30T10:27:03Z</time>
      </trkpt>
      <trkpt lat="48.78052" lon="6.41842">
        <ele>199.4</ele>
        <time>2021-07-30T10:27:05Z</time>
      </trkpt>
      <trkpt lat="48.78059" lon="6.41849">
        <ele>199.4</ele>
        <time>2021-07-30T10:27:07Z</time>
      </trkpt>
      <trkpt lat="48.78065" lon="6.41856">
        <ele>199.3</ele>
        <time>2021-07-30T10:27:09Z</time>
      </trkpt>
      <trkpt lat="48.78068" lon="6.41861">
        <ele>199.3</ele>
        <time>2021-07-30T10:27:10Z</time>
      </trkpt>
      <trkpt lat="48.78069" lon="6.41865">
        <ele>199.3</ele>
        <time>2021-07-30T10:27:11Z</time>
      </trkpt>
      <trkpt lat="48.78073" lon="6.41871">
        <ele>199.3</ele>
        <time>2021-07-30T10:27:13Z</time>
      </trkpt>
      <trkpt lat="48.78076" lon="6.41876">
        <ele>199.3</ele>
        <time>2021-07-30T10:27:14Z</time>
      </trkpt>
      <trkpt lat="48.78078" lon="6.41882">
        <ele>199.3</ele>
        <time>2021-07-30T10:27:15Z</time>
      </trkpt>
      <trkpt lat="48.78084" lon="6.4189">
        <ele>199.3</ele>
        <time>2021-07-30T10:27:17Z</time>
      </trkpt>
      <trkpt lat="48.78088" lon="6.41895">
        <ele>199.2</ele>
        <time>2021-07-30T10:27:18Z</time>
      </trkpt>
      <trkpt lat="48.78091" lon="6.41898">
        <ele>199.2</ele>
        <time>2021-07-30T10:27:19Z</time>
      </trkpt>
      <trkpt lat="48.78093" lon="6.41904">
        <ele>199.2</ele>
        <time>2021-07-30T10:27:20Z</time>
      </trkpt>
      <trkpt lat="48.78094" lon="6.41908">
        <ele>199.2</ele>
        <time>2021-07-30T10:27:21Z</time>
      </trkpt>
      <trkpt lat="48.78097" lon="6.41912">
        <ele>199.2</ele>
        <time>2021-07-30T10:27:23Z</time>
      </trkpt>
      <trkpt lat="48.78101" lon="6.41915">
        <ele>199.2</ele>
        <time>2021-07-30T10:27:24Z</time>
      </trkpt>
      <trkpt lat="48.78106" lon="6.41918">
        <ele>199.2</ele>
        <time>2021-07-30T10:27:25Z</time>
      </trkpt>
      <trkpt lat="48.78109" lon="6.41922">
        <ele>199.2</ele>
        <time>2021-07-30T10:27:26Z</time>
      </trkpt>
      <trkpt lat="48.78115" lon="6.41927">
        <ele>199.2</ele>
        <time>2021-07-30T10:27:28Z</time>
      </trkpt>
      <trkpt lat="48.7812" lon="6.41932">
        <ele>199.2</ele>
        <time>2021-07-30T10:27:29Z</time>
      </trkpt>
      <trkpt lat="48.78127" lon="6.41937">
        <ele>199.2</ele>
        <time>2021-07-30T10:27:30Z</time>
      </trkpt>
      <trkpt lat="48.78132" lon="6.41941">
        <ele>199.2</ele>
        <time>2021-07-30T10:27:32Z</time>
      </trkpt>
      <trkpt lat="48.78134" lon="6.41944">
        <ele>199.2</ele>
        <time>2021-07-30T10:27:33Z</time>
      </trkpt>
      <trkpt lat="48.78136" lon="6.41948">
        <ele>199.2</ele>
        <time>2021-07-30T10:27:34Z</time>
      </trkpt>
      <trkpt lat="48.7814" lon="6.41952">
        <ele>199.2</ele>
        <time>2021-07-30T10:27:35Z</time>
      </trkpt>
      <trkpt lat="48.78145" lon="6.41954">
        <ele>199.2</ele>
        <time>2021-07-30T10:27:36Z</time>
      </trkpt>
      <trkpt lat="48.7815" lon="6.41958">
        <ele>199.2</ele>
        <time>2021-07-30T10:27:38Z</time>
      </trkpt>
      <trkpt lat="48.78154" lon="6.41962">
        <ele>199.2</ele>
        <time>2021-07-30T10:27:40Z</time>
      </trkpt>
      <trkpt lat="48.78157" lon="6.41965">
        <ele>199.2</ele>
        <time>2021-07-30T10:27:41Z</time>
      </trkpt>
      <trkpt lat="48.78163" lon="6.41969">
        <ele>199.2</ele>
        <time>2021-07-30T10:27:43Z</time>
      </trkpt>
      <trkpt lat="48.78167" lon="6.41972">
        <ele>199.2</ele>
        <time>2021-07-30T10:27:44Z</time>
      </trkpt>
      <trkpt lat="48.7817" lon="6.41976">
        <ele>199.2</ele>
        <time>2021-07-30T10:27:45Z</time>
      </trkpt>
      <trkpt lat="48.78176" lon="6.41982">
        <ele>199.2</ele>
        <time>2021-07-30T10:27:47Z</time>
      </trkpt>
      <trkpt lat="48.78181" lon="6.4199">
        <ele>199.1</ele>
        <time>2021-07-30T10:27:49Z</time>
      </trkpt>
      <trkpt lat="48.78183" lon="6.41995">
        <ele>199.1</ele>
        <time>2021-07-30T10:27:50Z</time>
      </trkpt>
      <trkpt lat="48.78187" lon="6.42002">
        <ele>199.1</ele>
        <time>2021-07-30T10:27:51Z</time>
      </trkpt>
      <trkpt lat="48.7819" lon="6.42007">
        <ele>199.1</ele>
        <time>2021-07-30T10:27:52Z</time>
      </trkpt>
      <trkpt lat="48.78194" lon="6.42012">
        <ele>199.1</ele>
        <time>2021-07-30T10:27:54Z</time>
      </trkpt>
      <trkpt lat="48.78197" lon="6.42016">
        <ele>199.1</ele>
        <time>2021-07-30T10:27:55Z</time>
      </trkpt>
      <trkpt lat="48.782" lon="6.42021">
        <ele>199.1</ele>
        <time>2021-07-30T10:27:56Z</time>
      </trkpt>
      <trkpt lat="48.78204" lon="6.42028">
        <ele>199</ele>
        <time>2021-07-30T10:27:58Z</time>
      </trkpt>
      <trkpt lat="48.78207" lon="6.42034">
        <ele>199</ele>
        <time>2021-07-30T10:27:59Z</time>
      </trkpt>
      <trkpt lat="48.78209" lon="6.4204">
        <ele>199</ele>
        <time>2021-07-30T10:28:00Z</time>
      </trkpt>
      <trkpt lat="48.78212" lon="6.42045">
        <ele>199</ele>
        <time>2021-07-30T10:28:01Z</time>
      </trkpt>
      <trkpt lat="48.78216" lon="6.42052">
        <ele>199</ele>
        <time>2021-07-30T10:28:02Z</time>
      </trkpt>
      <trkpt lat="48.78219" lon="6.42055">
        <ele>199</ele>
        <time>2021-07-30T10:28:03Z</time>
      </trkpt>
      <trkpt lat="48.78222" lon="6.42061">
        <ele>198.9</ele>
        <time>2021-07-30T10:28:05Z</time>
      </trkpt>
      <trkpt lat="48.78227" lon="6.42068">
        <ele>198.9</ele>
        <time>2021-07-30T10:28:06Z</time>
      </trkpt>
      <trkpt lat="48.78228" lon="6.42074">
        <ele>198.9</ele>
        <time>2021-07-30T10:28:08Z</time>
      </trkpt>
      <trkpt lat="48.7823" lon="6.42078">
        <ele>198.9</ele>
        <time>2021-07-30T10:28:09Z</time>
      </trkpt>
      <trkpt lat="48.78231" lon="6.42085">
        <ele>198.8</ele>
        <time>2021-07-30T10:28:10Z</time>
      </trkpt>
      <trkpt lat="48.78233" lon="6.4209">
        <ele>198.8</ele>
        <time>2021-07-30T10:28:11Z</time>
      </trkpt>
      <trkpt lat="48.78236" lon="6.42097">
        <ele>198.8</ele>
        <time>2021-07-30T10:28:12Z</time>
      </trkpt>
      <trkpt lat="48.78238" lon="6.42102">
        <ele>198.7</ele>
        <time>2021-07-30T10:28:14Z</time>
      </trkpt>
      <trkpt lat="48.78241" lon="6.42105">
        <ele>198.7</ele>
        <time>2021-07-30T10:28:15Z</time>
      </trkpt>
      <trkpt lat="48.78246" lon="6.42111">
        <ele>198.7</ele>
        <time>2021-07-30T10:28:16Z</time>
      </trkpt>
      <trkpt lat="48.78249" lon="6.42117">
        <ele>198.7</ele>
        <time>2021-07-30T10:28:18Z</time>
      </trkpt>
      <trkpt lat="48.7825" lon="6.42121">
        <ele>198.7</ele>
        <time>2021-07-30T10:28:19Z</time>
      </trkpt>
      <trkpt lat="48.78254" lon="6.42129">
        <ele>198.7</ele>
        <time>2021-07-30T10:28:21Z</time>
      </trkpt>
      <trkpt lat="48.78257" lon="6.42135">
        <ele>198.7</ele>
        <time>2021-07-30T10:28:22Z</time>
      </trkpt>
      <trkpt lat="48.78259" lon="6.4214">
        <ele>198.7</ele>
        <time>2021-07-30T10:28:23Z</time>
      </trkpt>
      <trkpt lat="48.78263" lon="6.42147">
        <ele>198.7</ele>
        <time>2021-07-30T10:28:24Z</time>
      </trkpt>
      <trkpt lat="48.78266" lon="6.42154">
        <ele>198.7</ele>
        <time>2021-07-30T10:28:26Z</time>
      </trkpt>
      <trkpt lat="48.78269" lon="6.42163">
        <ele>198.7</ele>
        <time>2021-07-30T10:28:28Z</time>
      </trkpt>
      <trkpt lat="48.78271" lon="6.42169">
        <ele>198.7</ele>
        <time>2021-07-30T10:28:29Z</time>
      </trkpt>
      <trkpt lat="48.78274" lon="6.42175">
        <ele>198.7</ele>
        <time>2021-07-30T10:28:30Z</time>
      </trkpt>
      <trkpt lat="48.78278" lon="6.42185">
        <ele>198.7</ele>
        <time>2021-07-30T10:28:32Z</time>
      </trkpt>
      <trkpt lat="48.78281" lon="6.42195">
        <ele>198.6</ele>
        <time>2021-07-30T10:28:34Z</time>
      </trkpt>
      <trkpt lat="48.78283" lon="6.42201">
        <ele>198.6</ele>
        <time>2021-07-30T10:28:35Z</time>
      </trkpt>
      <trkpt lat="48.78285" lon="6.42212">
        <ele>198.6</ele>
        <time>2021-07-30T10:28:37Z</time>
      </trkpt>
      <trkpt lat="48.78287" lon="6.42217">
        <ele>198.6</ele>
        <time>2021-07-30T10:28:38Z</time>
      </trkpt>
      <trkpt lat="48.78289" lon="6.42221">
        <ele>198.6</ele>
        <time>2021-07-30T10:28:39Z</time>
      </trkpt>
      <trkpt lat="48.78292" lon="6.4223">
        <ele>198.6</ele>
        <time>2021-07-30T10:28:41Z</time>
      </trkpt>
      <trkpt lat="48.78294" lon="6.42237">
        <ele>198.6</ele>
        <time>2021-07-30T10:28:42Z</time>
      </trkpt>
      <trkpt lat="48.78295" lon="6.42244">
        <ele>198.6</ele>
        <time>2021-07-30T10:28:43Z</time>
      </trkpt>
      <trkpt lat="48.78296" lon="6.42252">
        <ele>198.5</ele>
        <time>2021-07-30T10:28:44Z</time>
      </trkpt>
      <trkpt lat="48.78297" lon="6.42258">
        <ele>198.5</ele>
        <time>2021-07-30T10:28:45Z</time>
      </trkpt>
      <trkpt lat="48.78298" lon="6.42264">
        <ele>198.5</ele>
        <time>2021-07-30T10:28:46Z</time>
      </trkpt>
      <trkpt lat="48.78298" lon="6.42269">
        <ele>198.5</ele>
        <time>2021-07-30T10:28:47Z</time>
      </trkpt>
      <trkpt lat="48.78299" lon="6.42275">
        <ele>198.5</ele>
        <time>2021-07-30T10:28:48Z</time>
      </trkpt>
      <trkpt lat="48.78299" lon="6.4228">
        <ele>198.5</ele>
        <time>2021-07-30T10:28:49Z</time>
      </trkpt>
      <trkpt lat="48.783" lon="6.42287">
        <ele>198.5</ele>
        <time>2021-07-30T10:28:51Z</time>
      </trkpt>
      <trkpt lat="48.78301" lon="6.42291">
        <ele>198.5</ele>
        <time>2021-07-30T10:28:52Z</time>
      </trkpt>
      <trkpt lat="48.78301" lon="6.42296">
        <ele>198.5</ele>
        <time>2021-07-30T10:28:53Z</time>
      </trkpt>
      <trkpt lat="48.783" lon="6.42305">
        <ele>198.5</ele>
        <time>2021-07-30T10:28:54Z</time>
      </trkpt>
      <trkpt lat="48.78299" lon="6.42312">
        <ele>198.5</ele>
        <time>2021-07-30T10:28:56Z</time>
      </trkpt>
      <trkpt lat="48.783" lon="6.42321">
        <ele>198.5</ele>
        <time>2021-07-30T10:28:58Z</time>
      </trkpt>
      <trkpt lat="48.783" lon="6.42329">
        <ele>198.5</ele>
        <time>2021-07-30T10:28:59Z</time>
      </trkpt>
      <trkpt lat="48.78302" lon="6.42338">
        <ele>198.5</ele>
        <time>2021-07-30T10:29:01Z</time>
      </trkpt>
      <trkpt lat="48.78304" lon="6.42346">
        <ele>198.5</ele>
        <time>2021-07-30T10:29:02Z</time>
      </trkpt>
      <trkpt lat="48.78306" lon="6.42351">
        <ele>198.5</ele>
        <time>2021-07-30T10:29:03Z</time>
      </trkpt>
      <trkpt lat="48.78306" lon="6.42357">
        <ele>198.5</ele>
        <time>2021-07-30T10:29:04Z</time>
      </trkpt>
      <trkpt lat="48.78307" lon="6.42366">
        <ele>198.5</ele>
        <time>2021-07-30T10:29:06Z</time>
      </trkpt>
      <trkpt lat="48.78307" lon="6.42372">
        <ele>198.5</ele>
        <time>2021-07-30T10:29:07Z</time>
      </trkpt>
      <trkpt lat="48.78306" lon="6.4238">
        <ele>198.5</ele>
        <time>2021-07-30T10:29:08Z</time>
      </trkpt>
      <trkpt lat="48.78306" lon="6.42388">
        <ele>198.6</ele>
        <time>2021-07-30T10:29:10Z</time>
      </trkpt>
      <trkpt lat="48.78307" lon="6.42397">
        <ele>198.6</ele>
        <time>2021-07-30T10:29:11Z</time>
      </trkpt>
      <trkpt lat="48.78307" lon="6.42402">
        <ele>198.6</ele>
        <time>2021-07-30T10:29:13Z</time>
      </trkpt>
      <trkpt lat="48.78307" lon="6.42407">
        <ele>198.6</ele>
        <time>2021-07-30T10:29:14Z</time>
      </trkpt>
      <trkpt lat="48.78306" lon="6.42414">
        <ele>198.6</ele>
        <time>2021-07-30T10:29:16Z</time>
      </trkpt>
      <trkpt lat="48.78305" lon="6.42419">
        <ele>198.6</ele>
        <time>2021-07-30T10:29:17Z</time>
      </trkpt>
      <trkpt lat="48.78305" lon="6.42421">
        <ele>198.6</ele>
        <time>2021-07-30T10:29:18Z</time>
      </trkpt>
      <trkpt lat="48.78304" lon="6.42429">
        <ele>198.6</ele>
        <time>2021-07-30T10:29:19Z</time>
      </trkpt>
      <trkpt lat="48.78304" lon="6.42437">
        <ele>198.6</ele>
        <time>2021-07-30T10:29:21Z</time>
      </trkpt>
      <trkpt lat="48.78305" lon="6.42446">
        <ele>198.6</ele>
        <time>2021-07-30T10:29:23Z</time>
      </trkpt>
      <trkpt lat="48.78305" lon="6.42452">
        <ele>198.6</ele>
        <time>2021-07-30T10:29:24Z</time>
      </trkpt>
      <trkpt lat="48.78305" lon="6.42457">
        <ele>198.6</ele>
        <time>2021-07-30T10:29:25Z</time>
      </trkpt>
      <trkpt lat="48.78305" lon="6.42463">
        <ele>198.6</ele>
        <time>2021-07-30T10:29:26Z</time>
      </trkpt>
      <trkpt lat="48.78305" lon="6.42469">
        <ele>198.6</ele>
        <time>2021-07-30T10:29:27Z</time>
      </trkpt>
      <trkpt lat="48.78305" lon="6.42475">
        <ele>198.6</ele>
        <time>2021-07-30T10:29:28Z</time>
      </trkpt>
      <trkpt lat="48.78305" lon="6.42484">
        <ele>198.6</ele>
        <time>2021-07-30T10:29:30Z</time>
      </trkpt>
      <trkpt lat="48.78305" lon="6.4249">
        <ele>198.6</ele>
        <time>2021-07-30T10:29:31Z</time>
      </trkpt>
      <trkpt lat="48.78306" lon="6.42497">
        <ele>198.6</ele>
        <time>2021-07-30T10:29:32Z</time>
      </trkpt>
      <trkpt lat="48.78307" lon="6.42506">
        <ele>198.6</ele>
        <time>2021-07-30T10:29:34Z</time>
      </trkpt>
      <trkpt lat="48.78307" lon="6.42511">
        <ele>198.6</ele>
        <time>2021-07-30T10:29:35Z</time>
      </trkpt>
      <trkpt lat="48.78308" lon="6.42517">
        <ele>198.6</ele>
        <time>2021-07-30T10:29:36Z</time>
      </trkpt>
      <trkpt lat="48.78308" lon="6.42524">
        <ele>198.6</ele>
        <time>2021-07-30T10:29:37Z</time>
      </trkpt>
      <trkpt lat="48.78308" lon="6.4253">
        <ele>198.6</ele>
        <time>2021-07-30T10:29:38Z</time>
      </trkpt>
      <trkpt lat="48.78307" lon="6.42536">
        <ele>198.6</ele>
        <time>2021-07-30T10:29:40Z</time>
      </trkpt>
      <trkpt lat="48.78307" lon="6.42539">
        <ele>198.6</ele>
        <time>2021-07-30T10:29:41Z</time>
      </trkpt>
      <trkpt lat="48.78306" lon="6.42544">
        <ele>198.6</ele>
        <time>2021-07-30T10:29:42Z</time>
      </trkpt>
      <trkpt lat="48.78306" lon="6.42546">
        <ele>198.6</ele>
        <time>2021-07-30T10:29:43Z</time>
      </trkpt>
      <trkpt lat="48.78305" lon="6.42569">
        <ele>198.6</ele>
        <time>2021-07-30T10:29:45Z</time>
      </trkpt>
      <trkpt lat="48.78306" lon="6.42579">
        <ele>198.6</ele>
        <time>2021-07-30T10:29:46Z</time>
      </trkpt>
      <trkpt lat="48.78306" lon="6.42589">
        <ele>198.6</ele>
        <time>2021-07-30T10:29:48Z</time>
      </trkpt>
      <trkpt lat="48.78306" lon="6.426">
        <ele>198.6</ele>
        <time>2021-07-30T10:29:49Z</time>
      </trkpt>
      <trkpt lat="48.78305" lon="6.42607">
        <ele>198.6</ele>
        <time>2021-07-30T10:29:50Z</time>
      </trkpt>
      <trkpt lat="48.78305" lon="6.42618">
        <ele>198.6</ele>
        <time>2021-07-30T10:29:52Z</time>
      </trkpt>
      <trkpt lat="48.78305" lon="6.42626">
        <ele>198.7</ele>
        <time>2021-07-30T10:29:53Z</time>
      </trkpt>
      <trkpt lat="48.78304" lon="6.42633">
        <ele>198.7</ele>
        <time>2021-07-30T10:29:54Z</time>
      </trkpt>
      <trkpt lat="48.78302" lon="6.42639">
        <ele>198.7</ele>
        <time>2021-07-30T10:29:55Z</time>
      </trkpt>
      <trkpt lat="48.78301" lon="6.42644">
        <ele>198.7</ele>
        <time>2021-07-30T10:29:56Z</time>
      </trkpt>
      <trkpt lat="48.783" lon="6.4265">
        <ele>198.7</ele>
        <time>2021-07-30T10:29:57Z</time>
      </trkpt>
      <trkpt lat="48.78298" lon="6.42656">
        <ele>198.7</ele>
        <time>2021-07-30T10:29:59Z</time>
      </trkpt>
      <trkpt lat="48.78296" lon="6.42659">
        <ele>198.7</ele>
        <time>2021-07-30T10:30:00Z</time>
      </trkpt>
      <trkpt lat="48.78293" lon="6.42659">
        <ele>198.7</ele>
        <time>2021-07-30T10:30:02Z</time>
      </trkpt>
      <trkpt lat="48.78291" lon="6.42664">
        <ele>198.7</ele>
        <time>2021-07-30T10:30:03Z</time>
      </trkpt>
      <trkpt lat="48.78288" lon="6.42671">
        <ele>198.8</ele>
        <time>2021-07-30T10:30:05Z</time>
      </trkpt>
      <trkpt lat="48.78287" lon="6.42678">
        <ele>198.8</ele>
        <time>2021-07-30T10:30:06Z</time>
      </trkpt>
      <trkpt lat="48.78285" lon="6.42685">
        <ele>198.8</ele>
        <time>2021-07-30T10:30:07Z</time>
      </trkpt>
      <trkpt lat="48.78283" lon="6.42697">
        <ele>198.8</ele>
        <time>2021-07-30T10:30:08Z</time>
      </trkpt>
      <trkpt lat="48.78282" lon="6.42705">
        <ele>198.8</ele>
        <time>2021-07-30T10:30:10Z</time>
      </trkpt>
      <trkpt lat="48.78281" lon="6.42712">
        <ele>198.8</ele>
        <time>2021-07-30T10:30:11Z</time>
      </trkpt>
      <trkpt lat="48.78279" lon="6.42724">
        <ele>198.8</ele>
        <time>2021-07-30T10:30:13Z</time>
      </trkpt>
      <trkpt lat="48.78276" lon="6.42738">
        <ele>198.8</ele>
        <time>2021-07-30T10:30:15Z</time>
      </trkpt>
      <trkpt lat="48.78275" lon="6.4275">
        <ele>198.8</ele>
        <time>2021-07-30T10:30:17Z</time>
      </trkpt>
      <trkpt lat="48.78272" lon="6.4276">
        <ele>198.9</ele>
        <time>2021-07-30T10:30:18Z</time>
      </trkpt>
      <trkpt lat="48.78271" lon="6.42767">
        <ele>198.9</ele>
        <time>2021-07-30T10:30:20Z</time>
      </trkpt>
      <trkpt lat="48.78269" lon="6.42774">
        <ele>198.9</ele>
        <time>2021-07-30T10:30:21Z</time>
      </trkpt>
      <trkpt lat="48.78266" lon="6.42785">
        <ele>198.9</ele>
        <time>2021-07-30T10:30:23Z</time>
      </trkpt>
      <trkpt lat="48.78265" lon="6.42793">
        <ele>198.9</ele>
        <time>2021-07-30T10:30:24Z</time>
      </trkpt>
      <trkpt lat="48.78264" lon="6.42802">
        <ele>198.9</ele>
        <time>2021-07-30T10:30:26Z</time>
      </trkpt>
      <trkpt lat="48.78264" lon="6.42809">
        <ele>198.9</ele>
        <time>2021-07-30T10:30:27Z</time>
      </trkpt>
      <trkpt lat="48.78264" lon="6.42816">
        <ele>198.9</ele>
        <time>2021-07-30T10:30:29Z</time>
      </trkpt>
      <trkpt lat="48.78263" lon="6.42821">
        <ele>199</ele>
        <time>2021-07-30T10:30:30Z</time>
      </trkpt>
      <trkpt lat="48.78262" lon="6.42826">
        <ele>199</ele>
        <time>2021-07-30T10:30:31Z</time>
      </trkpt>
      <trkpt lat="48.7826" lon="6.42834">
        <ele>199</ele>
        <time>2021-07-30T10:30:32Z</time>
      </trkpt>
      <trkpt lat="48.7826" lon="6.4284">
        <ele>199</ele>
        <time>2021-07-30T10:30:33Z</time>
      </trkpt>
      <trkpt lat="48.78259" lon="6.42845">
        <ele>199</ele>
        <time>2021-07-30T10:30:34Z</time>
      </trkpt>
      <trkpt lat="48.78258" lon="6.4285">
        <ele>199</ele>
        <time>2021-07-30T10:30:35Z</time>
      </trkpt>
      <trkpt lat="48.78256" lon="6.42855">
        <ele>199.1</ele>
        <time>2021-07-30T10:30:36Z</time>
      </trkpt>
      <trkpt lat="48.78254" lon="6.42859">
        <ele>199.1</ele>
        <time>2021-07-30T10:30:38Z</time>
      </trkpt>
      <trkpt lat="48.78252" lon="6.42864">
        <ele>199.1</ele>
        <time>2021-07-30T10:30:39Z</time>
      </trkpt>
      <trkpt lat="48.78251" lon="6.42869">
        <ele>199.1</ele>
        <time>2021-07-30T10:30:40Z</time>
      </trkpt>
      <trkpt lat="48.7825" lon="6.42876">
        <ele>199.1</ele>
        <time>2021-07-30T10:30:41Z</time>
      </trkpt>
      <trkpt lat="48.78247" lon="6.42887">
        <ele>199.2</ele>
        <time>2021-07-30T10:30:43Z</time>
      </trkpt>
      <trkpt lat="48.78245" lon="6.42897">
        <ele>199.2</ele>
        <time>2021-07-30T10:30:45Z</time>
      </trkpt>
      <trkpt lat="48.78244" lon="6.42904">
        <ele>199.2</ele>
        <time>2021-07-30T10:30:46Z</time>
      </trkpt>
      <trkpt lat="48.78243" lon="6.42913">
        <ele>199.3</ele>
        <time>2021-07-30T10:30:47Z</time>
      </trkpt>
      <trkpt lat="48.78242" lon="6.42919">
        <ele>199.3</ele>
        <time>2021-07-30T10:30:48Z</time>
      </trkpt>
      <trkpt lat="48.78241" lon="6.42927">
        <ele>199.3</ele>
        <time>2021-07-30T10:30:50Z</time>
      </trkpt>
      <trkpt lat="48.7824" lon="6.42933">
        <ele>199.4</ele>
        <time>2021-07-30T10:30:51Z</time>
      </trkpt>
      <trkpt lat="48.78239" lon="6.42938">
        <ele>199.4</ele>
        <time>2021-07-30T10:30:52Z</time>
      </trkpt>
      <trkpt lat="48.78237" lon="6.42944">
        <ele>199.4</ele>
        <time>2021-07-30T10:30:53Z</time>
      </trkpt>
      <trkpt lat="48.78236" lon="6.42951">
        <ele>199.4</ele>
        <time>2021-07-30T10:30:54Z</time>
      </trkpt>
      <trkpt lat="48.78235" lon="6.42959">
        <ele>199.5</ele>
        <time>2021-07-30T10:30:56Z</time>
      </trkpt>
      <trkpt lat="48.78232" lon="6.42967">
        <ele>199.5</ele>
        <time>2021-07-30T10:30:57Z</time>
      </trkpt>
      <trkpt lat="48.7823" lon="6.42976">
        <ele>199.5</ele>
        <time>2021-07-30T10:30:59Z</time>
      </trkpt>
      <trkpt lat="48.78227" lon="6.42988">
        <ele>199.5</ele>
        <time>2021-07-30T10:31:01Z</time>
      </trkpt>
      <trkpt lat="48.78226" lon="6.42995">
        <ele>199.5</ele>
        <time>2021-07-30T10:31:02Z</time>
      </trkpt>
      <trkpt lat="48.78222" lon="6.43009">
        <ele>199.6</ele>
        <time>2021-07-30T10:31:04Z</time>
      </trkpt>
      <trkpt lat="48.78222" lon="6.43016">
        <ele>199.6</ele>
        <time>2021-07-30T10:31:05Z</time>
      </trkpt>
      <trkpt lat="48.7822" lon="6.43021">
        <ele>199.7</ele>
        <time>2021-07-30T10:31:06Z</time>
      </trkpt>
      <trkpt lat="48.78218" lon="6.43031">
        <ele>199.7</ele>
        <time>2021-07-30T10:31:08Z</time>
      </trkpt>
      <trkpt lat="48.78216" lon="6.43038">
        <ele>199.7</ele>
        <time>2021-07-30T10:31:09Z</time>
      </trkpt>
      <trkpt lat="48.78215" lon="6.43045">
        <ele>199.8</ele>
        <time>2021-07-30T10:31:10Z</time>
      </trkpt>
      <trkpt lat="48.78213" lon="6.43056">
        <ele>199.8</ele>
        <time>2021-07-30T10:31:12Z</time>
      </trkpt>
      <trkpt lat="48.78211" lon="6.43066">
        <ele>199.9</ele>
        <time>2021-07-30T10:31:13Z</time>
      </trkpt>
      <trkpt lat="48.78209" lon="6.43074">
        <ele>199.9</ele>
        <time>2021-07-30T10:31:15Z</time>
      </trkpt>
      <trkpt lat="48.78208" lon="6.4308">
        <ele>199.9</ele>
        <time>2021-07-30T10:31:16Z</time>
      </trkpt>
      <trkpt lat="48.78205" lon="6.4309">
        <ele>200</ele>
        <time>2021-07-30T10:31:17Z</time>
      </trkpt>
      <trkpt lat="48.78203" lon="6.43098">
        <ele>200</ele>
        <time>2021-07-30T10:31:18Z</time>
      </trkpt>
      <trkpt lat="48.78201" lon="6.43104">
        <ele>200</ele>
        <time>2021-07-30T10:31:20Z</time>
      </trkpt>
      <trkpt lat="48.782" lon="6.4311">
        <ele>200.1</ele>
        <time>2021-07-30T10:31:21Z</time>
      </trkpt>
      <trkpt lat="48.78199" lon="6.43115">
        <ele>200.1</ele>
        <time>2021-07-30T10:31:22Z</time>
      </trkpt>
      <trkpt lat="48.78198" lon="6.43121">
        <ele>200.1</ele>
        <time>2021-07-30T10:31:23Z</time>
      </trkpt>
      <trkpt lat="48.78197" lon="6.43126">
        <ele>200.1</ele>
        <time>2021-07-30T10:31:24Z</time>
      </trkpt>
      <trkpt lat="48.78196" lon="6.43132">
        <ele>200.2</ele>
        <time>2021-07-30T10:31:25Z</time>
      </trkpt>
      <trkpt lat="48.78196" lon="6.43137">
        <ele>200.2</ele>
        <time>2021-07-30T10:31:26Z</time>
      </trkpt>
      <trkpt lat="48.78195" lon="6.43143">
        <ele>200.2</ele>
        <time>2021-07-30T10:31:27Z</time>
      </trkpt>
      <trkpt lat="48.78193" lon="6.43148">
        <ele>200.2</ele>
        <time>2021-07-30T10:31:28Z</time>
      </trkpt>
      <trkpt lat="48.78192" lon="6.43153">
        <ele>200.3</ele>
        <time>2021-07-30T10:31:29Z</time>
      </trkpt>
      <trkpt lat="48.78191" lon="6.4316">
        <ele>200.3</ele>
        <time>2021-07-30T10:31:30Z</time>
      </trkpt>
      <trkpt lat="48.7819" lon="6.43165">
        <ele>200.3</ele>
        <time>2021-07-30T10:31:31Z</time>
      </trkpt>
      <trkpt lat="48.78188" lon="6.4317">
        <ele>200.4</ele>
        <time>2021-07-30T10:31:32Z</time>
      </trkpt>
      <trkpt lat="48.78187" lon="6.43175">
        <ele>200.4</ele>
        <time>2021-07-30T10:31:34Z</time>
      </trkpt>
      <trkpt lat="48.78185" lon="6.43181">
        <ele>200.4</ele>
        <time>2021-07-30T10:31:35Z</time>
      </trkpt>
      <trkpt lat="48.78184" lon="6.43186">
        <ele>200.4</ele>
        <time>2021-07-30T10:31:36Z</time>
      </trkpt>
      <trkpt lat="48.78182" lon="6.43192">
        <ele>200.5</ele>
        <time>2021-07-30T10:31:37Z</time>
      </trkpt>
      <trkpt lat="48.78181" lon="6.43202">
        <ele>200.5</ele>
        <time>2021-07-30T10:31:39Z</time>
      </trkpt>
      <trkpt lat="48.78181" lon="6.43207">
        <ele>200.5</ele>
        <time>2021-07-30T10:31:40Z</time>
      </trkpt>
      <trkpt lat="48.7818" lon="6.43217">
        <ele>200.6</ele>
        <time>2021-07-30T10:31:41Z</time>
      </trkpt>
      <trkpt lat="48.78179" lon="6.43226">
        <ele>200.6</ele>
        <time>2021-07-30T10:31:43Z</time>
      </trkpt>
      <trkpt lat="48.78177" lon="6.43233">
        <ele>200.6</ele>
        <time>2021-07-30T10:31:44Z</time>
      </trkpt>
      <trkpt lat="48.78176" lon="6.4324">
        <ele>200.6</ele>
        <time>2021-07-30T10:31:45Z</time>
      </trkpt>
      <trkpt lat="48.78176" lon="6.43246">
        <ele>200.7</ele>
        <time>2021-07-30T10:31:46Z</time>
      </trkpt>
      <trkpt lat="48.78175" lon="6.43252">
        <ele>200.7</ele>
        <time>2021-07-30T10:31:48Z</time>
      </trkpt>
      <trkpt lat="48.78174" lon="6.43257">
        <ele>200.7</ele>
        <time>2021-07-30T10:31:49Z</time>
      </trkpt>
      <trkpt lat="48.78173" lon="6.43265">
        <ele>200.7</ele>
        <time>2021-07-30T10:31:50Z</time>
      </trkpt>
      <trkpt lat="48.78171" lon="6.43272">
        <ele>200.7</ele>
        <time>2021-07-30T10:31:52Z</time>
      </trkpt>
      <trkpt lat="48.7817" lon="6.43277">
        <ele>200.8</ele>
        <time>2021-07-30T10:31:53Z</time>
      </trkpt>
      <trkpt lat="48.78169" lon="6.43284">
        <ele>200.8</ele>
        <time>2021-07-30T10:31:54Z</time>
      </trkpt>
      <trkpt lat="48.78168" lon="6.43291">
        <ele>200.8</ele>
        <time>2021-07-30T10:31:55Z</time>
      </trkpt>
      <trkpt lat="48.78168" lon="6.43296">
        <ele>200.8</ele>
        <time>2021-07-30T10:31:56Z</time>
      </trkpt>
      <trkpt lat="48.78167" lon="6.43302">
        <ele>200.8</ele>
        <time>2021-07-30T10:31:58Z</time>
      </trkpt>
      <trkpt lat="48.78165" lon="6.43307">
        <ele>200.9</ele>
        <time>2021-07-30T10:31:59Z</time>
      </trkpt>
      <trkpt lat="48.78162" lon="6.4331">
        <ele>200.9</ele>
        <time>2021-07-30T10:32:00Z</time>
      </trkpt>
      <trkpt lat="48.78157" lon="6.43316">
        <ele>200.9</ele>
        <time>2021-07-30T10:32:01Z</time>
      </trkpt>
      <trkpt lat="48.78152" lon="6.43321">
        <ele>201</ele>
        <time>2021-07-30T10:32:03Z</time>
      </trkpt>
      <trkpt lat="48.78151" lon="6.43326">
        <ele>201</ele>
        <time>2021-07-30T10:32:04Z</time>
      </trkpt>
      <trkpt lat="48.78147" lon="6.43335">
        <ele>201</ele>
        <time>2021-07-30T10:32:06Z</time>
      </trkpt>
      <trkpt lat="48.78145" lon="6.4334">
        <ele>201.1</ele>
        <time>2021-07-30T10:32:07Z</time>
      </trkpt>
      <trkpt lat="48.78144" lon="6.43345">
        <ele>201.1</ele>
        <time>2021-07-30T10:32:08Z</time>
      </trkpt>
      <trkpt lat="48.78142" lon="6.43352">
        <ele>201.1</ele>
        <time>2021-07-30T10:32:09Z</time>
      </trkpt>
      <trkpt lat="48.78141" lon="6.43358">
        <ele>201.2</ele>
        <time>2021-07-30T10:32:10Z</time>
      </trkpt>
      <trkpt lat="48.7814" lon="6.43364">
        <ele>201.2</ele>
        <time>2021-07-30T10:32:11Z</time>
      </trkpt>
      <trkpt lat="48.78139" lon="6.4337">
        <ele>201.2</ele>
        <time>2021-07-30T10:32:13Z</time>
      </trkpt>
      <trkpt lat="48.78136" lon="6.43375">
        <ele>201.3</ele>
        <time>2021-07-30T10:32:14Z</time>
      </trkpt>
      <trkpt lat="48.78134" lon="6.43381">
        <ele>201.3</ele>
        <time>2021-07-30T10:32:15Z</time>
      </trkpt>
      <trkpt lat="48.78132" lon="6.43387">
        <ele>201.3</ele>
        <time>2021-07-30T10:32:16Z</time>
      </trkpt>
      <trkpt lat="48.78131" lon="6.43393">
        <ele>201.4</ele>
        <time>2021-07-30T10:32:18Z</time>
      </trkpt>
      <trkpt lat="48.78131" lon="6.43398">
        <ele>201.4</ele>
        <time>2021-07-30T10:32:19Z</time>
      </trkpt>
      <trkpt lat="48.78132" lon="6.43405">
        <ele>201.4</ele>
        <time>2021-07-30T10:32:20Z</time>
      </trkpt>
      <trkpt lat="48.78133" lon="6.43411">
        <ele>201.5</ele>
        <time>2021-07-30T10:32:22Z</time>
      </trkpt>
      <trkpt lat="48.78134" lon="6.43419">
        <ele>201.5</ele>
        <time>2021-07-30T10:32:24Z</time>
      </trkpt>
      <trkpt lat="48.78133" lon="6.43424">
        <ele>201.6</ele>
        <time>2021-07-30T10:32:25Z</time>
      </trkpt>
      <trkpt lat="48.78133" lon="6.43429">
        <ele>201.6</ele>
        <time>2021-07-30T10:32:26Z</time>
      </trkpt>
      <trkpt lat="48.78133" lon="6.43433">
        <ele>201.6</ele>
        <time>2021-07-30T10:32:27Z</time>
      </trkpt>
      <trkpt lat="48.78134" lon="6.43437">
        <ele>201.7</ele>
        <time>2021-07-30T10:32:28Z</time>
      </trkpt>
      <trkpt lat="48.78133" lon="6.43441">
        <ele>201.7</ele>
        <time>2021-07-30T10:32:30Z</time>
      </trkpt>
      <trkpt lat="48.78132" lon="6.43446">
        <ele>201.7</ele>
        <time>2021-07-30T10:32:31Z</time>
      </trkpt>
      <trkpt lat="48.78131" lon="6.43449">
        <ele>201.7</ele>
        <time>2021-07-30T10:32:32Z</time>
      </trkpt>
      <trkpt lat="48.7813" lon="6.43453">
        <ele>201.8</ele>
        <time>2021-07-30T10:32:33Z</time>
      </trkpt>
      <trkpt lat="48.78129" lon="6.43457">
        <ele>201.8</ele>
        <time>2021-07-30T10:32:35Z</time>
      </trkpt>
      <trkpt lat="48.78127" lon="6.43465">
        <ele>201.8</ele>
        <time>2021-07-30T10:32:37Z</time>
      </trkpt>
      <trkpt lat="48.78126" lon="6.43469">
        <ele>201.8</ele>
        <time>2021-07-30T10:32:38Z</time>
      </trkpt>
      <trkpt lat="48.78124" lon="6.43473">
        <ele>201.8</ele>
        <time>2021-07-30T10:32:39Z</time>
      </trkpt>
      <trkpt lat="48.78122" lon="6.43477">
        <ele>201.8</ele>
        <time>2021-07-30T10:32:40Z</time>
      </trkpt>
      <trkpt lat="48.7812" lon="6.43482">
        <ele>201.8</ele>
        <time>2021-07-30T10:32:41Z</time>
      </trkpt>
      <trkpt lat="48.78119" lon="6.43486">
        <ele>201.8</ele>
        <time>2021-07-30T10:32:42Z</time>
      </trkpt>
      <trkpt lat="48.78119" lon="6.4349">
        <ele>201.8</ele>
        <time>2021-07-30T10:32:43Z</time>
      </trkpt>
      <trkpt lat="48.78118" lon="6.43496">
        <ele>201.8</ele>
        <time>2021-07-30T10:32:44Z</time>
      </trkpt>
      <trkpt lat="48.78117" lon="6.43503">
        <ele>201.8</ele>
        <time>2021-07-30T10:32:45Z</time>
      </trkpt>
      <trkpt lat="48.78117" lon="6.43508">
        <ele>201.8</ele>
        <time>2021-07-30T10:32:47Z</time>
      </trkpt>
      <trkpt lat="48.78116" lon="6.43512">
        <ele>201.8</ele>
        <time>2021-07-30T10:32:48Z</time>
      </trkpt>
      <trkpt lat="48.78116" lon="6.43516">
        <ele>201.8</ele>
        <time>2021-07-30T10:32:49Z</time>
      </trkpt>
      <trkpt lat="48.78114" lon="6.43524">
        <ele>201.8</ele>
        <time>2021-07-30T10:32:51Z</time>
      </trkpt>
      <trkpt lat="48.78112" lon="6.43529">
        <ele>201.8</ele>
        <time>2021-07-30T10:32:52Z</time>
      </trkpt>
      <trkpt lat="48.78112" lon="6.43531">
        <ele>201.8</ele>
        <time>2021-07-30T10:32:53Z</time>
      </trkpt>
      <trkpt lat="48.7811" lon="6.43536">
        <ele>201.8</ele>
        <time>2021-07-30T10:32:55Z</time>
      </trkpt>
      <trkpt lat="48.78109" lon="6.43541">
        <ele>201.8</ele>
        <time>2021-07-30T10:32:56Z</time>
      </trkpt>
      <trkpt lat="48.78109" lon="6.43544">
        <ele>201.8</ele>
        <time>2021-07-30T10:32:57Z</time>
      </trkpt>
      <trkpt lat="48.78107" lon="6.43551">
        <ele>201.8</ele>
        <time>2021-07-30T10:32:59Z</time>
      </trkpt>
      <trkpt lat="48.78106" lon="6.43555">
        <ele>201.8</ele>
        <time>2021-07-30T10:33:00Z</time>
      </trkpt>
      <trkpt lat="48.78103" lon="6.4356">
        <ele>201.8</ele>
        <time>2021-07-30T10:33:01Z</time>
      </trkpt>
      <trkpt lat="48.78102" lon="6.43562">
        <ele>201.8</ele>
        <time>2021-07-30T10:33:02Z</time>
      </trkpt>
      <trkpt lat="48.781" lon="6.43565">
        <ele>201.8</ele>
        <time>2021-07-30T10:33:04Z</time>
      </trkpt>
      <trkpt lat="48.78098" lon="6.43568">
        <ele>201.9</ele>
        <time>2021-07-30T10:33:05Z</time>
      </trkpt>
      <trkpt lat="48.78097" lon="6.43569">
        <ele>201.9</ele>
        <time>2021-07-30T10:33:06Z</time>
      </trkpt>
      <trkpt lat="48.78095" lon="6.4357">
        <ele>201.9</ele>
        <time>2021-07-30T10:33:08Z</time>
      </trkpt>
      <trkpt lat="48.78095" lon="6.43572">
        <ele>201.9</ele>
        <time>2021-07-30T10:33:09Z</time>
      </trkpt>
      <trkpt lat="48.78093" lon="6.43576">
        <ele>201.9</ele>
        <time>2021-07-30T10:33:10Z</time>
      </trkpt>
      <trkpt lat="48.78089" lon="6.43577">
        <ele>201.9</ele>
        <time>2021-07-30T10:33:11Z</time>
      </trkpt>
      <trkpt lat="48.78087" lon="6.43577">
        <ele>201.9</ele>
        <time>2021-07-30T10:33:12Z</time>
      </trkpt>
      <trkpt lat="48.78083" lon="6.4358">
        <ele>201.9</ele>
        <time>2021-07-30T10:33:14Z</time>
      </trkpt>
      <trkpt lat="48.7808" lon="6.43586">
        <ele>201.9</ele>
        <time>2021-07-30T10:33:15Z</time>
      </trkpt>
      <trkpt lat="48.78077" lon="6.43589">
        <ele>201.9</ele>
        <time>2021-07-30T10:33:17Z</time>
      </trkpt>
      <trkpt lat="48.78071" lon="6.43594">
        <ele>201.9</ele>
        <time>2021-07-30T10:33:18Z</time>
      </trkpt>
      <trkpt lat="48.78067" lon="6.43598">
        <ele>202</ele>
        <time>2021-07-30T10:33:20Z</time>
      </trkpt>
      <trkpt lat="48.78063" lon="6.43607">
        <ele>202</ele>
        <time>2021-07-30T10:33:22Z</time>
      </trkpt>
      <trkpt lat="48.78064" lon="6.43615">
        <ele>202</ele>
        <time>2021-07-30T10:33:23Z</time>
      </trkpt>
      <trkpt lat="48.78065" lon="6.43616">
        <ele>202</ele>
        <time>2021-07-30T10:33:24Z</time>
      </trkpt>
      <trkpt lat="48.78069" lon="6.43627">
        <ele>202</ele>
        <time>2021-07-30T10:33:26Z</time>
      </trkpt>
      <trkpt lat="48.7807" lon="6.43632">
        <ele>202</ele>
        <time>2021-07-30T10:33:27Z</time>
      </trkpt>
      <trkpt lat="48.78071" lon="6.43639">
        <ele>202</ele>
        <time>2021-07-30T10:33:28Z</time>
      </trkpt>
      <trkpt lat="48.78071" lon="6.43642">
        <ele>202</ele>
        <time>2021-07-30T10:33:29Z</time>
      </trkpt>
      <trkpt lat="48.78072" lon="6.43643">
        <ele>202</ele>
        <time>2021-07-30T10:33:31Z</time>
      </trkpt>
      <trkpt lat="48.78073" lon="6.43647">
        <ele>202</ele>
        <time>2021-07-30T10:33:32Z</time>
      </trkpt>
      <trkpt lat="48.78056" lon="6.43758">
        <ele>201.7</ele>
        <time>2021-07-30T10:34:02Z</time>
      </trkpt>
      <trkpt lat="48.78054" lon="6.43767">
        <ele>201.7</ele>
        <time>2021-07-30T10:34:04Z</time>
      </trkpt>
      <trkpt lat="48.78051" lon="6.4378">
        <ele>201.6</ele>
        <time>2021-07-30T10:34:06Z</time>
      </trkpt>
      <trkpt lat="48.78048" lon="6.43793">
        <ele>201.5</ele>
        <time>2021-07-30T10:34:08Z</time>
      </trkpt>
      <trkpt lat="48.78046" lon="6.43799">
        <ele>201.5</ele>
        <time>2021-07-30T10:34:09Z</time>
      </trkpt>
      <trkpt lat="48.78044" lon="6.43806">
        <ele>201.4</ele>
        <time>2021-07-30T10:34:10Z</time>
      </trkpt>
      <trkpt lat="48.78043" lon="6.43811">
        <ele>201.4</ele>
        <time>2021-07-30T10:34:11Z</time>
      </trkpt>
      <trkpt lat="48.78042" lon="6.43818">
        <ele>201.4</ele>
        <time>2021-07-30T10:34:12Z</time>
      </trkpt>
      <trkpt lat="48.78043" lon="6.43822">
        <ele>201.3</ele>
        <time>2021-07-30T10:34:14Z</time>
      </trkpt>
      <trkpt lat="48.78044" lon="6.43824">
        <ele>201.3</ele>
        <time>2021-07-30T10:34:15Z</time>
      </trkpt>
      <trkpt lat="48.78044" lon="6.43826">
        <ele>201.3</ele>
        <time>2021-07-30T10:34:16Z</time>
      </trkpt>
      <trkpt lat="48.78043" lon="6.43829">
        <ele>201.3</ele>
        <time>2021-07-30T10:34:17Z</time>
      </trkpt>
      <trkpt lat="48.78042" lon="6.43831">
        <ele>201.3</ele>
        <time>2021-07-30T10:34:18Z</time>
      </trkpt>
      <trkpt lat="48.78042" lon="6.43835">
        <ele>201.3</ele>
        <time>2021-07-30T10:34:20Z</time>
      </trkpt>
      <trkpt lat="48.78041" lon="6.4384">
        <ele>201.3</ele>
        <time>2021-07-30T10:34:21Z</time>
      </trkpt>
      <trkpt lat="48.78041" lon="6.43843">
        <ele>201.3</ele>
        <time>2021-07-30T10:34:22Z</time>
      </trkpt>
      <trkpt lat="48.7804" lon="6.43848">
        <ele>201.2</ele>
        <time>2021-07-30T10:34:23Z</time>
      </trkpt>
      <trkpt lat="48.78039" lon="6.43853">
        <ele>201.2</ele>
        <time>2021-07-30T10:34:24Z</time>
      </trkpt>
      <trkpt lat="48.78039" lon="6.43858">
        <ele>201.2</ele>
        <time>2021-07-30T10:34:25Z</time>
      </trkpt>
      <trkpt lat="48.78039" lon="6.43864">
        <ele>201.2</ele>
        <time>2021-07-30T10:34:27Z</time>
      </trkpt>
      <trkpt lat="48.78038" lon="6.43869">
        <ele>201.2</ele>
        <time>2021-07-30T10:34:28Z</time>
      </trkpt>
      <trkpt lat="48.78038" lon="6.43875">
        <ele>201.1</ele>
        <time>2021-07-30T10:34:29Z</time>
      </trkpt>
      <trkpt lat="48.78035" lon="6.43885">
        <ele>201.1</ele>
        <time>2021-07-30T10:34:31Z</time>
      </trkpt>
      <trkpt lat="48.78033" lon="6.43892">
        <ele>201</ele>
        <time>2021-07-30T10:34:32Z</time>
      </trkpt>
      <trkpt lat="48.7803" lon="6.43899">
        <ele>201</ele>
        <time>2021-07-30T10:34:34Z</time>
      </trkpt>
      <trkpt lat="48.78028" lon="6.43906">
        <ele>201</ele>
        <time>2021-07-30T10:34:35Z</time>
      </trkpt>
      <trkpt lat="48.78026" lon="6.43914">
        <ele>200.9</ele>
        <time>2021-07-30T10:34:36Z</time>
      </trkpt>
      <trkpt lat="48.78025" lon="6.43921">
        <ele>200.9</ele>
        <time>2021-07-30T10:34:38Z</time>
      </trkpt>
      <trkpt lat="48.78024" lon="6.43926">
        <ele>200.9</ele>
        <time>2021-07-30T10:34:39Z</time>
      </trkpt>
      <trkpt lat="48.78023" lon="6.43934">
        <ele>200.9</ele>
        <time>2021-07-30T10:34:41Z</time>
      </trkpt>
      <trkpt lat="48.78022" lon="6.43939">
        <ele>200.9</ele>
        <time>2021-07-30T10:34:42Z</time>
      </trkpt>
      <trkpt lat="48.78022" lon="6.43945">
        <ele>200.9</ele>
        <time>2021-07-30T10:34:43Z</time>
      </trkpt>
      <trkpt lat="48.78021" lon="6.43953">
        <ele>200.8</ele>
        <time>2021-07-30T10:34:45Z</time>
      </trkpt>
      <trkpt lat="48.78019" lon="6.43959">
        <ele>200.8</ele>
        <time>2021-07-30T10:34:46Z</time>
      </trkpt>
      <trkpt lat="48.78019" lon="6.43963">
        <ele>200.8</ele>
        <time>2021-07-30T10:34:47Z</time>
      </trkpt>
      <trkpt lat="48.7802" lon="6.43968">
        <ele>200.8</ele>
        <time>2021-07-30T10:34:49Z</time>
      </trkpt>
      <trkpt lat="48.7802" lon="6.43973">
        <ele>200.8</ele>
        <time>2021-07-30T10:34:50Z</time>
      </trkpt>
      <trkpt lat="48.78018" lon="6.43979">
        <ele>200.8</ele>
        <time>2021-07-30T10:34:51Z</time>
      </trkpt>
      <trkpt lat="48.78015" lon="6.43986">
        <ele>200.7</ele>
        <time>2021-07-30T10:34:53Z</time>
      </trkpt>
      <trkpt lat="48.78014" lon="6.43988">
        <ele>200.7</ele>
        <time>2021-07-30T10:34:54Z</time>
      </trkpt>
      <trkpt lat="48.78013" lon="6.4399">
        <ele>200.7</ele>
        <time>2021-07-30T10:34:55Z</time>
      </trkpt>
      <trkpt lat="48.78012" lon="6.43995">
        <ele>200.7</ele>
        <time>2021-07-30T10:34:56Z</time>
      </trkpt>
      <trkpt lat="48.78009" lon="6.43999">
        <ele>200.7</ele>
        <time>2021-07-30T10:34:58Z</time>
      </trkpt>
      <trkpt lat="48.78007" lon="6.44002">
        <ele>200.7</ele>
        <time>2021-07-30T10:34:59Z</time>
      </trkpt>
      <trkpt lat="48.78" lon="6.44008">
        <ele>200.6</ele>
        <time>2021-07-30T10:35:01Z</time>
      </trkpt>
      <trkpt lat="48.77996" lon="6.44011">
        <ele>200.6</ele>
        <time>2021-07-30T10:35:02Z</time>
      </trkpt>
      <trkpt lat="48.77995" lon="6.44013">
        <ele>200.6</ele>
        <time>2021-07-30T10:35:04Z</time>
      </trkpt>
      <trkpt lat="48.77992" lon="6.44017">
        <ele>200.6</ele>
        <time>2021-07-30T10:35:06Z</time>
      </trkpt>
      <trkpt lat="48.77992" lon="6.4402">
        <ele>200.6</ele>
        <time>2021-07-30T10:35:07Z</time>
      </trkpt>
      <trkpt lat="48.77991" lon="6.44025">
        <ele>200.5</ele>
        <time>2021-07-30T10:35:09Z</time>
      </trkpt>
      <trkpt lat="48.7799" lon="6.44028">
        <ele>200.5</ele>
        <time>2021-07-30T10:35:10Z</time>
      </trkpt>
      <trkpt lat="48.7799" lon="6.44031">
        <ele>200.5</ele>
        <time>2021-07-30T10:35:12Z</time>
      </trkpt>
      <trkpt lat="48.7794" lon="6.44347">
        <ele>199.6</ele>
        <time>2021-07-30T10:37:28Z</time>
      </trkpt>
      <trkpt lat="48.77943" lon="6.44362">
        <ele>199.6</ele>
        <time>2021-07-30T10:37:30Z</time>
      </trkpt>
      <trkpt lat="48.77943" lon="6.44375">
        <ele>199.6</ele>
        <time>2021-07-30T10:37:31Z</time>
      </trkpt>
      <trkpt lat="48.77942" lon="6.44382">
        <ele>199.6</ele>
        <time>2021-07-30T10:37:32Z</time>
      </trkpt>
      <trkpt lat="48.77941" lon="6.4439">
        <ele>199.7</ele>
        <time>2021-07-30T10:37:34Z</time>
      </trkpt>
      <trkpt lat="48.77938" lon="6.444">
        <ele>199.7</ele>
        <time>2021-07-30T10:37:36Z</time>
      </trkpt>
      <trkpt lat="48.77936" lon="6.44405">
        <ele>199.7</ele>
        <time>2021-07-30T10:37:37Z</time>
      </trkpt>
      <trkpt lat="48.77935" lon="6.44413">
        <ele>199.7</ele>
        <time>2021-07-30T10:37:39Z</time>
      </trkpt>
      <trkpt lat="48.77933" lon="6.44424">
        <ele>199.7</ele>
        <time>2021-07-30T10:37:41Z</time>
      </trkpt>
      <trkpt lat="48.77933" lon="6.44427">
        <ele>199.6</ele>
        <time>2021-07-30T10:37:42Z</time>
      </trkpt>
      <trkpt lat="48.77932" lon="6.4443">
        <ele>199.6</ele>
        <time>2021-07-30T10:37:44Z</time>
      </trkpt>
      <trkpt lat="48.77931" lon="6.44433">
        <ele>199.6</ele>
        <time>2021-07-30T10:37:45Z</time>
      </trkpt>
      <trkpt lat="48.77931" lon="6.44435">
        <ele>199.6</ele>
        <time>2021-07-30T10:37:47Z</time>
      </trkpt>
      <trkpt lat="48.77943" lon="6.44746">
        <ele>199.6</ele>
        <time>2021-07-30T10:38:42Z</time>
      </trkpt>
      <trkpt lat="48.77947" lon="6.44752">
        <ele>199.6</ele>
        <time>2021-07-30T10:38:43Z</time>
      </trkpt>
      <trkpt lat="48.77953" lon="6.44761">
        <ele>199.6</ele>
        <time>2021-07-30T10:38:44Z</time>
      </trkpt>
      <trkpt lat="48.77955" lon="6.44765">
        <ele>199.6</ele>
        <time>2021-07-30T10:38:46Z</time>
      </trkpt>
      <trkpt lat="48.77955" lon="6.44765">
        <ele>199.6</ele>
        <time>2021-07-30T10:38:47Z</time>
      </trkpt>
      <trkpt lat="48.77955" lon="6.44766">
        <ele>199.6</ele>
        <time>2021-07-30T10:38:49Z</time>
      </trkpt>
      <trkpt lat="48.77955" lon="6.44766">
        <ele>199.6</ele>
        <time>2021-07-30T10:38:51Z</time>
      </trkpt>
      <trkpt lat="48.77955" lon="6.44766">
        <ele>199.6</ele>
        <time>2021-07-30T10:38:52Z</time>
      </trkpt>
      <trkpt lat="48.77955" lon="6.44766">
        <ele>199.6</ele>
        <time>2021-07-30T10:38:54Z</time>
      </trkpt>
      <trkpt lat="48.77961" lon="6.44768">
        <ele>199.5</ele>
        <time>2021-07-30T10:42:44Z</time>
      </trkpt>
      <trkpt lat="48.77966" lon="6.44774">
        <ele>199.4</ele>
        <time>2021-07-30T10:42:46Z</time>
      </trkpt>
      <trkpt lat="48.77968" lon="6.44776">
        <ele>199.3</ele>
        <time>2021-07-30T10:42:47Z</time>
      </trkpt>
      <trkpt lat="48.77969" lon="6.44783">
        <ele>199.2</ele>
        <time>2021-07-30T10:42:49Z</time>
      </trkpt>
      <trkpt lat="48.7797" lon="6.44789">
        <ele>199.2</ele>
        <time>2021-07-30T10:42:51Z</time>
      </trkpt>
      <trkpt lat="48.77971" lon="6.44792">
        <ele>199.1</ele>
        <time>2021-07-30T10:42:52Z</time>
      </trkpt>
      <trkpt lat="48.77974" lon="6.448">
        <ele>199.1</ele>
        <time>2021-07-30T10:42:54Z</time>
      </trkpt>
      <trkpt lat="48.77975" lon="6.44804">
        <ele>199.1</ele>
        <time>2021-07-30T10:42:55Z</time>
      </trkpt>
      <trkpt lat="48.77978" lon="6.44809">
        <ele>199.1</ele>
        <time>2021-07-30T10:42:56Z</time>
      </trkpt>
      <trkpt lat="48.77978" lon="6.44813">
        <ele>199.1</ele>
        <time>2021-07-30T10:42:58Z</time>
      </trkpt>
      <trkpt lat="48.7798" lon="6.44819">
        <ele>199</ele>
        <time>2021-07-30T10:42:59Z</time>
      </trkpt>
      <trkpt lat="48.77982" lon="6.44824">
        <ele>199</ele>
        <time>2021-07-30T10:43:00Z</time>
      </trkpt>
      <trkpt lat="48.77984" lon="6.44831">
        <ele>199</ele>
        <time>2021-07-30T10:43:02Z</time>
      </trkpt>
      <trkpt lat="48.77986" lon="6.44836">
        <ele>199</ele>
        <time>2021-07-30T10:43:03Z</time>
      </trkpt>
      <trkpt lat="48.77987" lon="6.4484">
        <ele>199</ele>
        <time>2021-07-30T10:43:04Z</time>
      </trkpt>
      <trkpt lat="48.77991" lon="6.44848">
        <ele>199.1</ele>
        <time>2021-07-30T10:43:05Z</time>
      </trkpt>
      <trkpt lat="48.77993" lon="6.44855">
        <ele>199.1</ele>
        <time>2021-07-30T10:43:07Z</time>
      </trkpt>
      <trkpt lat="48.77995" lon="6.44862">
        <ele>199.2</ele>
        <time>2021-07-30T10:43:08Z</time>
      </trkpt>
      <trkpt lat="48.77997" lon="6.44867">
        <ele>199.2</ele>
        <time>2021-07-30T10:43:10Z</time>
      </trkpt>
      <trkpt lat="48.77998" lon="6.44871">
        <ele>199.2</ele>
        <time>2021-07-30T10:43:11Z</time>
      </trkpt>
      <trkpt lat="48.78" lon="6.44876">
        <ele>199.3</ele>
        <time>2021-07-30T10:43:13Z</time>
      </trkpt>
      <trkpt lat="48.78001" lon="6.4488">
        <ele>199.3</ele>
        <time>2021-07-30T10:43:14Z</time>
      </trkpt>
      <trkpt lat="48.78004" lon="6.44883">
        <ele>199.4</ele>
        <time>2021-07-30T10:43:15Z</time>
      </trkpt>
      <trkpt lat="48.78008" lon="6.44888">
        <ele>199.5</ele>
        <time>2021-07-30T10:43:17Z</time>
      </trkpt>
      <trkpt lat="48.78013" lon="6.44893">
        <ele>199.7</ele>
        <time>2021-07-30T10:43:18Z</time>
      </trkpt>
      <trkpt lat="48.78017" lon="6.44896">
        <ele>199.7</ele>
        <time>2021-07-30T10:43:20Z</time>
      </trkpt>
      <trkpt lat="48.7802" lon="6.44901">
        <ele>199.8</ele>
        <time>2021-07-30T10:43:22Z</time>
      </trkpt>
      <trkpt lat="48.78022" lon="6.44903">
        <ele>199.9</ele>
        <time>2021-07-30T10:43:23Z</time>
      </trkpt>
      <trkpt lat="48.78025" lon="6.44905">
        <ele>199.9</ele>
        <time>2021-07-30T10:43:25Z</time>
      </trkpt>
      <trkpt lat="48.78023" lon="6.44909">
        <ele>200</ele>
        <time>2021-07-30T10:43:26Z</time>
      </trkpt>
      <trkpt lat="48.78023" lon="6.4491">
        <ele>200</ele>
        <time>2021-07-30T10:43:27Z</time>
      </trkpt>
      <trkpt lat="48.78022" lon="6.44914">
        <ele>200.1</ele>
        <time>2021-07-30T10:43:28Z</time>
      </trkpt>
      <trkpt lat="48.78023" lon="6.44916">
        <ele>200.1</ele>
        <time>2021-07-30T10:43:29Z</time>
      </trkpt>
      <trkpt lat="48.78026" lon="6.44921">
        <ele>200.2</ele>
        <time>2021-07-30T10:43:31Z</time>
      </trkpt>
      <trkpt lat="48.78027" lon="6.44923">
        <ele>200.2</ele>
        <time>2021-07-30T10:43:32Z</time>
      </trkpt>
      <trkpt lat="48.78027" lon="6.44925">
        <ele>200.3</ele>
        <time>2021-07-30T10:43:33Z</time>
      </trkpt>
      <trkpt lat="48.78027" lon="6.44931">
        <ele>200.3</ele>
        <time>2021-07-30T10:43:34Z</time>
      </trkpt>
      <trkpt lat="48.78025" lon="6.44934">
        <ele>200.4</ele>
        <time>2021-07-30T10:43:36Z</time>
      </trkpt>
      <trkpt lat="48.78021" lon="6.4494">
        <ele>200.5</ele>
        <time>2021-07-30T10:43:38Z</time>
      </trkpt>
      <trkpt lat="48.78021" lon="6.44945">
        <ele>200.5</ele>
        <time>2021-07-30T10:43:40Z</time>
      </trkpt>
      <trkpt lat="48.78022" lon="6.44946">
        <ele>200.5</ele>
        <time>2021-07-30T10:43:41Z</time>
      </trkpt>
      <trkpt lat="48.78024" lon="6.44949">
        <ele>200.6</ele>
        <time>2021-07-30T10:43:43Z</time>
      </trkpt>
      <trkpt lat="48.78025" lon="6.44951">
        <ele>200.6</ele>
        <time>2021-07-30T10:43:45Z</time>
      </trkpt>
      <trkpt lat="48.78037" lon="6.44967">
        <ele>200.9</ele>
        <time>2021-07-30T10:43:52Z</time>
      </trkpt>
      <trkpt lat="48.78042" lon="6.44974">
        <ele>200.9</ele>
        <time>2021-07-30T10:43:54Z</time>
      </trkpt>
      <trkpt lat="48.78046" lon="6.44982">
        <ele>201</ele>
        <time>2021-07-30T10:43:56Z</time>
      </trkpt>
      <trkpt lat="48.78051" lon="6.44992">
        <ele>201.1</ele>
        <time>2021-07-30T10:43:58Z</time>
      </trkpt>
      <trkpt lat="48.78055" lon="6.44998">
        <ele>201.1</ele>
        <time>2021-07-30T10:44:00Z</time>
      </trkpt>
      <trkpt lat="48.78057" lon="6.45001">
        <ele>201.1</ele>
        <time>2021-07-30T10:44:01Z</time>
      </trkpt>
      <trkpt lat="48.78062" lon="6.45007">
        <ele>201.2</ele>
        <time>2021-07-30T10:44:02Z</time>
      </trkpt>
      <trkpt lat="48.78065" lon="6.45012">
        <ele>201.1</ele>
        <time>2021-07-30T10:44:04Z</time>
      </trkpt>
      <trkpt lat="48.78071" lon="6.45017">
        <ele>201.1</ele>
        <time>2021-07-30T10:44:06Z</time>
      </trkpt>
      <trkpt lat="48.78072" lon="6.45021">
        <ele>201.1</ele>
        <time>2021-07-30T10:44:07Z</time>
      </trkpt>
      <trkpt lat="48.78076" lon="6.45032">
        <ele>201</ele>
        <time>2021-07-30T10:44:09Z</time>
      </trkpt>
      <trkpt lat="48.78077" lon="6.45036">
        <ele>201</ele>
        <time>2021-07-30T10:44:10Z</time>
      </trkpt>
      <trkpt lat="48.78079" lon="6.45044">
        <ele>200.9</ele>
        <time>2021-07-30T10:44:12Z</time>
      </trkpt>
      <trkpt lat="48.78081" lon="6.45048">
        <ele>200.8</ele>
        <time>2021-07-30T10:44:13Z</time>
      </trkpt>
      <trkpt lat="48.78084" lon="6.45055">
        <ele>200.7</ele>
        <time>2021-07-30T10:44:15Z</time>
      </trkpt>
      <trkpt lat="48.78086" lon="6.45063">
        <ele>200.6</ele>
        <time>2021-07-30T10:44:17Z</time>
      </trkpt>
      <trkpt lat="48.7809" lon="6.45069">
        <ele>200.5</ele>
        <time>2021-07-30T10:44:19Z</time>
      </trkpt>
      <trkpt lat="48.78093" lon="6.45076">
        <ele>200.4</ele>
        <time>2021-07-30T10:44:21Z</time>
      </trkpt>
      <trkpt lat="48.78095" lon="6.45079">
        <ele>200.3</ele>
        <time>2021-07-30T10:44:22Z</time>
      </trkpt>
      <trkpt lat="48.78098" lon="6.45083">
        <ele>200.3</ele>
        <time>2021-07-30T10:44:23Z</time>
      </trkpt>
      <trkpt lat="48.78102" lon="6.45088">
        <ele>200.2</ele>
        <time>2021-07-30T10:44:24Z</time>
      </trkpt>
      <trkpt lat="48.78105" lon="6.45093">
        <ele>200.1</ele>
        <time>2021-07-30T10:44:25Z</time>
      </trkpt>
      <trkpt lat="48.7811" lon="6.45104">
        <ele>200</ele>
        <time>2021-07-30T10:44:27Z</time>
      </trkpt>
      <trkpt lat="48.78113" lon="6.4511">
        <ele>200</ele>
        <time>2021-07-30T10:44:28Z</time>
      </trkpt>
      <trkpt lat="48.78114" lon="6.45118">
        <ele>199.9</ele>
        <time>2021-07-30T10:44:29Z</time>
      </trkpt>
      <trkpt lat="48.78114" lon="6.45139">
        <ele>199.8</ele>
        <time>2021-07-30T10:44:31Z</time>
      </trkpt>
      <trkpt lat="48.78116" lon="6.45157">
        <ele>199.8</ele>
        <time>2021-07-30T10:44:33Z</time>
      </trkpt>
      <trkpt lat="48.78119" lon="6.45167">
        <ele>199.7</ele>
        <time>2021-07-30T10:44:34Z</time>
      </trkpt>
      <trkpt lat="48.78123" lon="6.45184">
        <ele>199.8</ele>
        <time>2021-07-30T10:44:36Z</time>
      </trkpt>
      <trkpt lat="48.78123" lon="6.45189">
        <ele>199.8</ele>
        <time>2021-07-30T10:44:37Z</time>
      </trkpt>
      <trkpt lat="48.78131" lon="6.45204">
        <ele>199.9</ele>
        <time>2021-07-30T10:44:39Z</time>
      </trkpt>
      <trkpt lat="48.78136" lon="6.45206">
        <ele>200</ele>
        <time>2021-07-30T10:44:40Z</time>
      </trkpt>
      <trkpt lat="48.78141" lon="6.45215">
        <ele>200</ele>
        <time>2021-07-30T10:44:42Z</time>
      </trkpt>
      <trkpt lat="48.78141" lon="6.4522">
        <ele>200.1</ele>
        <time>2021-07-30T10:44:43Z</time>
      </trkpt>
      <trkpt lat="48.78142" lon="6.45226">
        <ele>200.2</ele>
        <time>2021-07-30T10:44:45Z</time>
      </trkpt>
      <trkpt lat="48.78144" lon="6.45228">
        <ele>200.2</ele>
        <time>2021-07-30T10:44:46Z</time>
      </trkpt>
      <trkpt lat="48.78143" lon="6.4523">
        <ele>200.2</ele>
        <time>2021-07-30T10:44:48Z</time>
      </trkpt>
      <trkpt lat="48.78142" lon="6.45231">
        <ele>200.2</ele>
        <time>2021-07-30T10:44:49Z</time>
      </trkpt>
      <trkpt lat="48.78146" lon="6.45303">
        <ele>201.3</ele>
        <time>2021-07-30T10:45:10Z</time>
      </trkpt>
      <trkpt lat="48.78147" lon="6.45313">
        <ele>201.5</ele>
        <time>2021-07-30T10:45:12Z</time>
      </trkpt>
      <trkpt lat="48.78148" lon="6.4532">
        <ele>201.7</ele>
        <time>2021-07-30T10:45:13Z</time>
      </trkpt>
      <trkpt lat="48.7815" lon="6.45329">
        <ele>201.8</ele>
        <time>2021-07-30T10:45:15Z</time>
      </trkpt>
      <trkpt lat="48.78151" lon="6.45334">
        <ele>201.9</ele>
        <time>2021-07-30T10:45:16Z</time>
      </trkpt>
      <trkpt lat="48.78151" lon="6.45336">
        <ele>201.9</ele>
        <time>2021-07-30T10:45:17Z</time>
      </trkpt>
      <trkpt lat="48.78151" lon="6.45344">
        <ele>202.1</ele>
        <time>2021-07-30T10:45:18Z</time>
      </trkpt>
      <trkpt lat="48.78151" lon="6.45349">
        <ele>202.1</ele>
        <time>2021-07-30T10:45:19Z</time>
      </trkpt>
      <trkpt lat="48.78151" lon="6.4535">
        <ele>202.2</ele>
        <time>2021-07-30T10:45:20Z</time>
      </trkpt>
      <trkpt lat="48.78151" lon="6.45355">
        <ele>202.2</ele>
        <time>2021-07-30T10:45:22Z</time>
      </trkpt>
      <trkpt lat="48.78151" lon="6.4536">
        <ele>202.3</ele>
        <time>2021-07-30T10:45:23Z</time>
      </trkpt>
      <trkpt lat="48.78151" lon="6.45364">
        <ele>202.4</ele>
        <time>2021-07-30T10:45:24Z</time>
      </trkpt>
      <trkpt lat="48.78151" lon="6.45371">
        <ele>202.5</ele>
        <time>2021-07-30T10:45:25Z</time>
      </trkpt>
      <trkpt lat="48.78152" lon="6.45375">
        <ele>202.5</ele>
        <time>2021-07-30T10:45:26Z</time>
      </trkpt>
      <trkpt lat="48.78152" lon="6.4538">
        <ele>202.6</ele>
        <time>2021-07-30T10:45:27Z</time>
      </trkpt>
      <trkpt lat="48.78153" lon="6.45384">
        <ele>202.6</ele>
        <time>2021-07-30T10:45:29Z</time>
      </trkpt>
      <trkpt lat="48.78154" lon="6.45389">
        <ele>202.7</ele>
        <time>2021-07-30T10:45:30Z</time>
      </trkpt>
      <trkpt lat="48.78154" lon="6.45394">
        <ele>202.7</ele>
        <time>2021-07-30T10:45:31Z</time>
      </trkpt>
      <trkpt lat="48.78154" lon="6.45401">
        <ele>202.8</ele>
        <time>2021-07-30T10:45:33Z</time>
      </trkpt>
      <trkpt lat="48.78155" lon="6.45407">
        <ele>202.8</ele>
        <time>2021-07-30T10:45:34Z</time>
      </trkpt>
      <trkpt lat="48.78157" lon="6.45415">
        <ele>202.8</ele>
        <time>2021-07-30T10:45:35Z</time>
      </trkpt>
      <trkpt lat="48.78159" lon="6.45422">
        <ele>202.9</ele>
        <time>2021-07-30T10:45:36Z</time>
      </trkpt>
      <trkpt lat="48.78159" lon="6.45428">
        <ele>202.9</ele>
        <time>2021-07-30T10:45:37Z</time>
      </trkpt>
      <trkpt lat="48.7816" lon="6.45434">
        <ele>202.9</ele>
        <time>2021-07-30T10:45:38Z</time>
      </trkpt>
      <trkpt lat="48.7816" lon="6.45442">
        <ele>202.9</ele>
        <time>2021-07-30T10:45:40Z</time>
      </trkpt>
      <trkpt lat="48.78161" lon="6.45451">
        <ele>202.9</ele>
        <time>2021-07-30T10:45:42Z</time>
      </trkpt>
      <trkpt lat="48.7816" lon="6.45455">
        <ele>202.9</ele>
        <time>2021-07-30T10:45:43Z</time>
      </trkpt>
      <trkpt lat="48.78161" lon="6.45463">
        <ele>202.9</ele>
        <time>2021-07-30T10:45:45Z</time>
      </trkpt>
      <trkpt lat="48.7816" lon="6.45468">
        <ele>202.9</ele>
        <time>2021-07-30T10:45:46Z</time>
      </trkpt>
      <trkpt lat="48.78161" lon="6.45472">
        <ele>202.9</ele>
        <time>2021-07-30T10:45:47Z</time>
      </trkpt>
      <trkpt lat="48.7816" lon="6.45481">
        <ele>202.9</ele>
        <time>2021-07-30T10:45:49Z</time>
      </trkpt>
      <trkpt lat="48.78159" lon="6.45488">
        <ele>202.8</ele>
        <time>2021-07-30T10:45:50Z</time>
      </trkpt>
      <trkpt lat="48.78157" lon="6.45494">
        <ele>202.8</ele>
        <time>2021-07-30T10:45:52Z</time>
      </trkpt>
      <trkpt lat="48.78157" lon="6.45498">
        <ele>202.8</ele>
        <time>2021-07-30T10:45:53Z</time>
      </trkpt>
      <trkpt lat="48.78156" lon="6.45507">
        <ele>202.8</ele>
        <time>2021-07-30T10:45:55Z</time>
      </trkpt>
      <trkpt lat="48.78155" lon="6.45515">
        <ele>202.8</ele>
        <time>2021-07-30T10:45:56Z</time>
      </trkpt>
      <trkpt lat="48.78156" lon="6.45522">
        <ele>202.8</ele>
        <time>2021-07-30T10:45:58Z</time>
      </trkpt>
      <trkpt lat="48.78155" lon="6.45527">
        <ele>202.8</ele>
        <time>2021-07-30T10:45:59Z</time>
      </trkpt>
      <trkpt lat="48.78156" lon="6.45531">
        <ele>202.8</ele>
        <time>2021-07-30T10:46:00Z</time>
      </trkpt>
      <trkpt lat="48.78155" lon="6.4554">
        <ele>202.8</ele>
        <time>2021-07-30T10:46:02Z</time>
      </trkpt>
      <trkpt lat="48.78153" lon="6.45544">
        <ele>202.7</ele>
        <time>2021-07-30T10:46:03Z</time>
      </trkpt>
      <trkpt lat="48.7815" lon="6.45548">
        <ele>202.7</ele>
        <time>2021-07-30T10:46:04Z</time>
      </trkpt>
      <trkpt lat="48.78148" lon="6.45551">
        <ele>202.7</ele>
        <time>2021-07-30T10:46:05Z</time>
      </trkpt>
      <trkpt lat="48.78148" lon="6.4556">
        <ele>202.7</ele>
        <time>2021-07-30T10:46:07Z</time>
      </trkpt>
      <trkpt lat="48.78146" lon="6.45564">
        <ele>202.7</ele>
        <time>2021-07-30T10:46:08Z</time>
      </trkpt>
      <trkpt lat="48.78146" lon="6.45571">
        <ele>202.7</ele>
        <time>2021-07-30T10:46:09Z</time>
      </trkpt>
      <trkpt lat="48.78146" lon="6.45581">
        <ele>202.6</ele>
        <time>2021-07-30T10:46:11Z</time>
      </trkpt>
      <trkpt lat="48.78146" lon="6.45586">
        <ele>202.6</ele>
        <time>2021-07-30T10:46:12Z</time>
      </trkpt>
      <trkpt lat="48.78145" lon="6.4559">
        <ele>202.6</ele>
        <time>2021-07-30T10:46:13Z</time>
      </trkpt>
      <trkpt lat="48.78145" lon="6.456">
        <ele>202.6</ele>
        <time>2021-07-30T10:46:15Z</time>
      </trkpt>
      <trkpt lat="48.78145" lon="6.45604">
        <ele>202.5</ele>
        <time>2021-07-30T10:46:16Z</time>
      </trkpt>
      <trkpt lat="48.78144" lon="6.45609">
        <ele>202.5</ele>
        <time>2021-07-30T10:46:17Z</time>
      </trkpt>
      <trkpt lat="48.78144" lon="6.45617">
        <ele>202.5</ele>
        <time>2021-07-30T10:46:18Z</time>
      </trkpt>
      <trkpt lat="48.78144" lon="6.45623">
        <ele>202.5</ele>
        <time>2021-07-30T10:46:20Z</time>
      </trkpt>
      <trkpt lat="48.78143" lon="6.4563">
        <ele>202.5</ele>
        <time>2021-07-30T10:46:21Z</time>
      </trkpt>
      <trkpt lat="48.78143" lon="6.45636">
        <ele>202.4</ele>
        <time>2021-07-30T10:46:23Z</time>
      </trkpt>
      <trkpt lat="48.78143" lon="6.4564">
        <ele>202.4</ele>
        <time>2021-07-30T10:46:24Z</time>
      </trkpt>
      <trkpt lat="48.78142" lon="6.45645">
        <ele>202.4</ele>
        <time>2021-07-30T10:46:25Z</time>
      </trkpt>
      <trkpt lat="48.78141" lon="6.45653">
        <ele>202.4</ele>
        <time>2021-07-30T10:46:27Z</time>
      </trkpt>
      <trkpt lat="48.78141" lon="6.45657">
        <ele>202.3</ele>
        <time>2021-07-30T10:46:28Z</time>
      </trkpt>
      <trkpt lat="48.7814" lon="6.45662">
        <ele>202.3</ele>
        <time>2021-07-30T10:46:29Z</time>
      </trkpt>
      <trkpt lat="48.78138" lon="6.4567">
        <ele>202.3</ele>
        <time>2021-07-30T10:46:30Z</time>
      </trkpt>
      <trkpt lat="48.78136" lon="6.45676">
        <ele>202.2</ele>
        <time>2021-07-30T10:46:32Z</time>
      </trkpt>
      <trkpt lat="48.78134" lon="6.45681">
        <ele>202.2</ele>
        <time>2021-07-30T10:46:33Z</time>
      </trkpt>
      <trkpt lat="48.78137" lon="6.45687">
        <ele>202.1</ele>
        <time>2021-07-30T10:46:34Z</time>
      </trkpt>
      <trkpt lat="48.7814" lon="6.4569">
        <ele>201.9</ele>
        <time>2021-07-30T10:46:36Z</time>
      </trkpt>
      <trkpt lat="48.78142" lon="6.45691">
        <ele>201.9</ele>
        <time>2021-07-30T10:46:37Z</time>
      </trkpt>
      <trkpt lat="48.78143" lon="6.45692">
        <ele>201.9</ele>
        <time>2021-07-30T10:46:39Z</time>
      </trkpt>
      <trkpt lat="48.78145" lon="6.45693">
        <ele>201.9</ele>
        <time>2021-07-30T10:46:40Z</time>
      </trkpt>
      <trkpt lat="48.78147" lon="6.45693">
        <ele>201.8</ele>
        <time>2021-07-30T10:46:41Z</time>
      </trkpt>
      <trkpt lat="48.78148" lon="6.45694">
        <ele>201.8</ele>
        <time>2021-07-30T10:46:42Z</time>
      </trkpt>
      <trkpt lat="48.7815" lon="6.45695">
        <ele>201.8</ele>
        <time>2021-07-30T10:46:44Z</time>
      </trkpt>
      <trkpt lat="48.78151" lon="6.45696">
        <ele>201.8</ele>
        <time>2021-07-30T10:47:55Z</time>
      </trkpt>
      <trkpt lat="48.78153" lon="6.45696">
        <ele>201.8</ele>
        <time>2021-07-30T10:47:56Z</time>
      </trkpt>
      <trkpt lat="48.78158" lon="6.45696">
        <ele>201.7</ele>
        <time>2021-07-30T10:47:57Z</time>
      </trkpt>
      <trkpt lat="48.78163" lon="6.45695">
        <ele>201.7</ele>
        <time>2021-07-30T10:47:58Z</time>
      </trkpt>
      <trkpt lat="48.78177" lon="6.45693">
        <ele>201.6</ele>
        <time>2021-07-30T10:48:00Z</time>
      </trkpt>
      <trkpt lat="48.78183" lon="6.45693">
        <ele>201.5</ele>
        <time>2021-07-30T10:48:01Z</time>
      </trkpt>
      <trkpt lat="48.78189" lon="6.45693">
        <ele>201.5</ele>
        <time>2021-07-30T10:48:02Z</time>
      </trkpt>
      <trkpt lat="48.78197" lon="6.45691">
        <ele>201.4</ele>
        <time>2021-07-30T10:48:04Z</time>
      </trkpt>
      <trkpt lat="48.78204" lon="6.45691">
        <ele>201.4</ele>
        <time>2021-07-30T10:48:05Z</time>
      </trkpt>
      <trkpt lat="48.7821" lon="6.45688">
        <ele>201.3</ele>
        <time>2021-07-30T10:48:06Z</time>
      </trkpt>
      <trkpt lat="48.78219" lon="6.45687">
        <ele>201.2</ele>
        <time>2021-07-30T10:48:08Z</time>
      </trkpt>
      <trkpt lat="48.78229" lon="6.45688">
        <ele>201.2</ele>
        <time>2021-07-30T10:48:10Z</time>
      </trkpt>
      <trkpt lat="48.78235" lon="6.45693">
        <ele>201.2</ele>
        <time>2021-07-30T10:48:11Z</time>
      </trkpt>
      <trkpt lat="48.78242" lon="6.45694">
        <ele>201.1</ele>
        <time>2021-07-30T10:48:13Z</time>
      </trkpt>
      <trkpt lat="48.78252" lon="6.45694">
        <ele>201.1</ele>
        <time>2021-07-30T10:48:15Z</time>
      </trkpt>
      <trkpt lat="48.78257" lon="6.45694">
        <ele>201.1</ele>
        <time>2021-07-30T10:48:16Z</time>
      </trkpt>
      <trkpt lat="48.78263" lon="6.45695">
        <ele>201.1</ele>
        <time>2021-07-30T10:48:17Z</time>
      </trkpt>
      <trkpt lat="48.78274" lon="6.45696">
        <ele>201</ele>
        <time>2021-07-30T10:48:19Z</time>
      </trkpt>
      <trkpt lat="48.78284" lon="6.45698">
        <ele>201</ele>
        <time>2021-07-30T10:48:21Z</time>
      </trkpt>
      <trkpt lat="48.7829" lon="6.45699">
        <ele>201</ele>
        <time>2021-07-30T10:48:22Z</time>
      </trkpt>
      <trkpt lat="48.78302" lon="6.457">
        <ele>201</ele>
        <time>2021-07-30T10:48:24Z</time>
      </trkpt>
      <trkpt lat="48.78307" lon="6.457">
        <ele>201</ele>
        <time>2021-07-30T10:48:25Z</time>
      </trkpt>
      <trkpt lat="48.78318" lon="6.45702">
        <ele>201</ele>
        <time>2021-07-30T10:48:27Z</time>
      </trkpt>
      <trkpt lat="48.78324" lon="6.45703">
        <ele>200.9</ele>
        <time>2021-07-30T10:48:28Z</time>
      </trkpt>
      <trkpt lat="48.7833" lon="6.45704">
        <ele>200.9</ele>
        <time>2021-07-30T10:48:29Z</time>
      </trkpt>
      <trkpt lat="48.78341" lon="6.45706">
        <ele>200.8</ele>
        <time>2021-07-30T10:48:31Z</time>
      </trkpt>
      <trkpt lat="48.78352" lon="6.45707">
        <ele>200.6</ele>
        <time>2021-07-30T10:48:33Z</time>
      </trkpt>
      <trkpt lat="48.78358" lon="6.45708">
        <ele>200.6</ele>
        <time>2021-07-30T10:48:34Z</time>
      </trkpt>
      <trkpt lat="48.78363" lon="6.45709">
        <ele>200.5</ele>
        <time>2021-07-30T10:48:35Z</time>
      </trkpt>
      <trkpt lat="48.78372" lon="6.45714">
        <ele>200.4</ele>
        <time>2021-07-30T10:48:37Z</time>
      </trkpt>
      <trkpt lat="48.78377" lon="6.45717">
        <ele>200.4</ele>
        <time>2021-07-30T10:48:38Z</time>
      </trkpt>
      <trkpt lat="48.78382" lon="6.45719">
        <ele>200.4</ele>
        <time>2021-07-30T10:48:39Z</time>
      </trkpt>
      <trkpt lat="48.78388" lon="6.45721">
        <ele>200.4</ele>
        <time>2021-07-30T10:48:40Z</time>
      </trkpt>
      <trkpt lat="48.78393" lon="6.45724">
        <ele>200.3</ele>
        <time>2021-07-30T10:48:41Z</time>
      </trkpt>
      <trkpt lat="48.78402" lon="6.4573">
        <ele>200.3</ele>
        <time>2021-07-30T10:48:43Z</time>
      </trkpt>
      <trkpt lat="48.78411" lon="6.45736">
        <ele>200.3</ele>
        <time>2021-07-30T10:48:45Z</time>
      </trkpt>
      <trkpt lat="48.78416" lon="6.4574">
        <ele>200.2</ele>
        <time>2021-07-30T10:48:46Z</time>
      </trkpt>
      <trkpt lat="48.78421" lon="6.45743">
        <ele>200.2</ele>
        <time>2021-07-30T10:48:47Z</time>
      </trkpt>
      <trkpt lat="48.78426" lon="6.45747">
        <ele>200.1</ele>
        <time>2021-07-30T10:48:48Z</time>
      </trkpt>
      <trkpt lat="48.78435" lon="6.45755">
        <ele>200</ele>
        <time>2021-07-30T10:48:50Z</time>
      </trkpt>
      <trkpt lat="48.78444" lon="6.45763">
        <ele>199.8</ele>
        <time>2021-07-30T10:48:52Z</time>
      </trkpt>
      <trkpt lat="48.78449" lon="6.45766">
        <ele>199.8</ele>
        <time>2021-07-30T10:48:53Z</time>
      </trkpt>
      <trkpt lat="48.78457" lon="6.45774">
        <ele>199.6</ele>
        <time>2021-07-30T10:48:55Z</time>
      </trkpt>
      <trkpt lat="48.78465" lon="6.45782">
        <ele>199.5</ele>
        <time>2021-07-30T10:48:57Z</time>
      </trkpt>
      <trkpt lat="48.7847" lon="6.45785">
        <ele>199.4</ele>
        <time>2021-07-30T10:48:58Z</time>
      </trkpt>
      <trkpt lat="48.78475" lon="6.45789">
        <ele>199.4</ele>
        <time>2021-07-30T10:48:59Z</time>
      </trkpt>
      <trkpt lat="48.78485" lon="6.45796">
        <ele>199.3</ele>
        <time>2021-07-30T10:49:01Z</time>
      </trkpt>
      <trkpt lat="48.7849" lon="6.45799">
        <ele>199.2</ele>
        <time>2021-07-30T10:49:02Z</time>
      </trkpt>
      <trkpt lat="48.785" lon="6.45805">
        <ele>199.1</ele>
        <time>2021-07-30T10:49:04Z</time>
      </trkpt>
      <trkpt lat="48.78506" lon="6.45809">
        <ele>199.1</ele>
        <time>2021-07-30T10:49:05Z</time>
      </trkpt>
      <trkpt lat="48.78517" lon="6.45816">
        <ele>199</ele>
        <time>2021-07-30T10:49:07Z</time>
      </trkpt>
      <trkpt lat="48.78527" lon="6.45825">
        <ele>198.9</ele>
        <time>2021-07-30T10:49:09Z</time>
      </trkpt>
      <trkpt lat="48.78532" lon="6.45829">
        <ele>198.8</ele>
        <time>2021-07-30T10:49:10Z</time>
      </trkpt>
      <trkpt lat="48.78537" lon="6.45833">
        <ele>198.8</ele>
        <time>2021-07-30T10:49:11Z</time>
      </trkpt>
      <trkpt lat="48.78546" lon="6.45843">
        <ele>198.8</ele>
        <time>2021-07-30T10:49:13Z</time>
      </trkpt>
      <trkpt lat="48.78554" lon="6.45853">
        <ele>198.7</ele>
        <time>2021-07-30T10:49:15Z</time>
      </trkpt>
      <trkpt lat="48.78559" lon="6.45857">
        <ele>198.7</ele>
        <time>2021-07-30T10:49:16Z</time>
      </trkpt>
      <trkpt lat="48.78564" lon="6.4586">
        <ele>198.8</ele>
        <time>2021-07-30T10:49:17Z</time>
      </trkpt>
      <trkpt lat="48.78569" lon="6.45863">
        <ele>198.8</ele>
        <time>2021-07-30T10:49:18Z</time>
      </trkpt>
      <trkpt lat="48.78574" lon="6.45865">
        <ele>198.8</ele>
        <time>2021-07-30T10:49:19Z</time>
      </trkpt>
      <trkpt lat="48.78585" lon="6.45871">
        <ele>199</ele>
        <time>2021-07-30T10:49:21Z</time>
      </trkpt>
      <trkpt lat="48.78591" lon="6.45874">
        <ele>199</ele>
        <time>2021-07-30T10:49:22Z</time>
      </trkpt>
      <trkpt lat="48.78596" lon="6.45877">
        <ele>199.1</ele>
        <time>2021-07-30T10:49:23Z</time>
      </trkpt>
      <trkpt lat="48.786" lon="6.4588">
        <ele>199.2</ele>
        <time>2021-07-30T10:49:24Z</time>
      </trkpt>
      <trkpt lat="48.78604" lon="6.45883">
        <ele>199.2</ele>
        <time>2021-07-30T10:49:25Z</time>
      </trkpt>
      <trkpt lat="48.78613" lon="6.45886">
        <ele>199.4</ele>
        <time>2021-07-30T10:49:27Z</time>
      </trkpt>
      <trkpt lat="48.78618" lon="6.45889">
        <ele>199.5</ele>
        <time>2021-07-30T10:49:28Z</time>
      </trkpt>
      <trkpt lat="48.78627" lon="6.45894">
        <ele>199.7</ele>
        <time>2021-07-30T10:49:30Z</time>
      </trkpt>
      <trkpt lat="48.78631" lon="6.45897">
        <ele>199.8</ele>
        <time>2021-07-30T10:49:31Z</time>
      </trkpt>
      <trkpt lat="48.78639" lon="6.45903">
        <ele>200.1</ele>
        <time>2021-07-30T10:49:33Z</time>
      </trkpt>
      <trkpt lat="48.78642" lon="6.45906">
        <ele>200.2</ele>
        <time>2021-07-30T10:49:34Z</time>
      </trkpt>
      <trkpt lat="48.78649" lon="6.45915">
        <ele>200.4</ele>
        <time>2021-07-30T10:49:36Z</time>
      </trkpt>
      <trkpt lat="48.78651" lon="6.45921">
        <ele>200.5</ele>
        <time>2021-07-30T10:49:37Z</time>
      </trkpt>
      <trkpt lat="48.78655" lon="6.45931">
        <ele>200.8</ele>
        <time>2021-07-30T10:49:39Z</time>
      </trkpt>
      <trkpt lat="48.78657" lon="6.45934">
        <ele>200.9</ele>
        <time>2021-07-30T10:49:40Z</time>
      </trkpt>
      <trkpt lat="48.7866" lon="6.45935">
        <ele>201.1</ele>
        <time>2021-07-30T10:49:41Z</time>
      </trkpt>
      <trkpt lat="48.78662" lon="6.45939">
        <ele>201.2</ele>
        <time>2021-07-30T10:49:42Z</time>
      </trkpt>
      <trkpt lat="48.78666" lon="6.45943">
        <ele>201.4</ele>
        <time>2021-07-30T10:49:43Z</time>
      </trkpt>
      <trkpt lat="48.78671" lon="6.45947">
        <ele>201.7</ele>
        <time>2021-07-30T10:49:44Z</time>
      </trkpt>
      <trkpt lat="48.78675" lon="6.45952">
        <ele>202</ele>
        <time>2021-07-30T10:49:46Z</time>
      </trkpt>
      <trkpt lat="48.78675" lon="6.45955">
        <ele>202.1</ele>
        <time>2021-07-30T10:49:47Z</time>
      </trkpt>
      <trkpt lat="48.78676" lon="6.45956">
        <ele>202.1</ele>
        <time>2021-07-30T10:49:48Z</time>
      </trkpt>
      <trkpt lat="48.78677" lon="6.45957">
        <ele>202.2</ele>
        <time>2021-07-30T10:49:49Z</time>
      </trkpt>
      <trkpt lat="48.7868" lon="6.45961">
        <ele>202.4</ele>
        <time>2021-07-30T10:49:50Z</time>
      </trkpt>
      <trkpt lat="48.78681" lon="6.45963">
        <ele>202.5</ele>
        <time>2021-07-30T10:49:51Z</time>
      </trkpt>
      <trkpt lat="48.78684" lon="6.45967">
        <ele>202.7</ele>
        <time>2021-07-30T10:49:52Z</time>
      </trkpt>
      <trkpt lat="48.78687" lon="6.4597">
        <ele>202.9</ele>
        <time>2021-07-30T10:49:53Z</time>
      </trkpt>
      <trkpt lat="48.78691" lon="6.4597">
        <ele>203.1</ele>
        <time>2021-07-30T10:49:54Z</time>
      </trkpt>
      <trkpt lat="48.78693" lon="6.4597">
        <ele>203.2</ele>
        <time>2021-07-30T10:49:55Z</time>
      </trkpt>
      <trkpt lat="48.78695" lon="6.4597">
        <ele>203.3</ele>
        <time>2021-07-30T10:49:57Z</time>
      </trkpt>
      <trkpt lat="48.78696" lon="6.4597">
        <ele>203.4</ele>
        <time>2021-07-30T10:49:58Z</time>
      </trkpt>
      <trkpt lat="48.78697" lon="6.45971">
        <ele>203.4</ele>
        <time>2021-07-30T10:49:59Z</time>
      </trkpt>
      <trkpt lat="48.78697" lon="6.45971">
        <ele>203.5</ele>
        <time>2021-07-30T10:50:00Z</time>
      </trkpt>
      <trkpt lat="48.78698" lon="6.45971">
        <ele>203.5</ele>
        <time>2021-07-30T10:50:01Z</time>
      </trkpt>
      <trkpt lat="48.787" lon="6.45982">
        <ele>204</ele>
        <time>2021-07-30T10:50:03Z</time>
      </trkpt>
      <trkpt lat="48.78704" lon="6.45994">
        <ele>204.6</ele>
        <time>2021-07-30T10:50:04Z</time>
      </trkpt>
      <trkpt lat="48.78705" lon="6.46003">
        <ele>206.5</ele>
        <time>2021-07-30T10:50:06Z</time>
      </trkpt>
      <trkpt lat="48.78705" lon="6.46009">
        <ele>206.7</ele>
        <time>2021-07-30T10:50:07Z</time>
      </trkpt>
      <trkpt lat="48.78705" lon="6.46016">
        <ele>206.9</ele>
        <time>2021-07-30T10:50:08Z</time>
      </trkpt>
      <trkpt lat="48.78704" lon="6.46024">
        <ele>207.2</ele>
        <time>2021-07-30T10:50:10Z</time>
      </trkpt>
      <trkpt lat="48.78704" lon="6.46028">
        <ele>207.4</ele>
        <time>2021-07-30T10:50:11Z</time>
      </trkpt>
      <trkpt lat="48.78703" lon="6.46033">
        <ele>207.6</ele>
        <time>2021-07-30T10:50:12Z</time>
      </trkpt>
      <trkpt lat="48.78701" lon="6.46039">
        <ele>207.8</ele>
        <time>2021-07-30T10:50:14Z</time>
      </trkpt>
      <trkpt lat="48.787" lon="6.46043">
        <ele>208.1</ele>
        <time>2021-07-30T10:50:16Z</time>
      </trkpt>
      <trkpt lat="48.78698" lon="6.46044">
        <ele>208.2</ele>
        <time>2021-07-30T10:50:17Z</time>
      </trkpt>
      <trkpt lat="48.78695" lon="6.4605">
        <ele>208.5</ele>
        <time>2021-07-30T10:50:19Z</time>
      </trkpt>
      <trkpt lat="48.78691" lon="6.46055">
        <ele>208.9</ele>
        <time>2021-07-30T10:50:21Z</time>
      </trkpt>
      <trkpt lat="48.78689" lon="6.46059">
        <ele>209.2</ele>
        <time>2021-07-30T10:50:22Z</time>
      </trkpt>
      <trkpt lat="48.78688" lon="6.4606">
        <ele>209.2</ele>
        <time>2021-07-30T10:50:23Z</time>
      </trkpt>
      <trkpt lat="48.78686" lon="6.46064">
        <ele>209.5</ele>
        <time>2021-07-30T10:50:24Z</time>
      </trkpt>
      <trkpt lat="48.78685" lon="6.46065">
        <ele>209.6</ele>
        <time>2021-07-30T10:50:25Z</time>
      </trkpt>
      <trkpt lat="48.78683" lon="6.46068">
        <ele>209.8</ele>
        <time>2021-07-30T10:50:26Z</time>
      </trkpt>
      <trkpt lat="48.78682" lon="6.46071">
        <ele>210</ele>
        <time>2021-07-30T10:50:28Z</time>
      </trkpt>
      <trkpt lat="48.78681" lon="6.46074">
        <ele>210.1</ele>
        <time>2021-07-30T10:50:29Z</time>
      </trkpt>
      <trkpt lat="48.78678" lon="6.46079">
        <ele>210.5</ele>
        <time>2021-07-30T10:50:31Z</time>
      </trkpt>
      <trkpt lat="48.78675" lon="6.46084">
        <ele>210.8</ele>
        <time>2021-07-30T10:50:33Z</time>
      </trkpt>
      <trkpt lat="48.78674" lon="6.46086">
        <ele>210.9</ele>
        <time>2021-07-30T10:50:34Z</time>
      </trkpt>
      <trkpt lat="48.78673" lon="6.46088">
        <ele>211</ele>
        <time>2021-07-30T10:50:35Z</time>
      </trkpt>
      <trkpt lat="48.7867" lon="6.46092">
        <ele>211.3</ele>
        <time>2021-07-30T10:50:36Z</time>
      </trkpt>
      <trkpt lat="48.78666" lon="6.46098">
        <ele>211.7</ele>
        <time>2021-07-30T10:50:38Z</time>
      </trkpt>
      <trkpt lat="48.78665" lon="6.461">
        <ele>211.8</ele>
        <time>2021-07-30T10:50:39Z</time>
      </trkpt>
      <trkpt lat="48.78664" lon="6.46102">
        <ele>211.9</ele>
        <time>2021-07-30T10:50:40Z</time>
      </trkpt>
      <trkpt lat="48.78661" lon="6.46105">
        <ele>212.2</ele>
        <time>2021-07-30T10:50:42Z</time>
      </trkpt>
      <trkpt lat="48.78659" lon="6.46106">
        <ele>212.3</ele>
        <time>2021-07-30T10:50:43Z</time>
      </trkpt>
      <trkpt lat="48.78658" lon="6.46105">
        <ele>212.3</ele>
        <time>2021-07-30T10:50:45Z</time>
      </trkpt>
      <trkpt lat="48.78657" lon="6.46105">
        <ele>212.4</ele>
        <time>2021-07-30T10:50:46Z</time>
      </trkpt>
      <trkpt lat="48.78657" lon="6.46106">
        <ele>212.5</ele>
        <time>2021-07-30T10:50:47Z</time>
      </trkpt>
      <trkpt lat="48.78656" lon="6.46108">
        <ele>212.6</ele>
        <time>2021-07-30T10:50:48Z</time>
      </trkpt>
      <trkpt lat="48.78656" lon="6.46111">
        <ele>212.7</ele>
        <time>2021-07-30T10:50:50Z</time>
      </trkpt>
      <trkpt lat="48.78655" lon="6.46112">
        <ele>212.8</ele>
        <time>2021-07-30T10:50:51Z</time>
      </trkpt>
      <trkpt lat="48.78655" lon="6.46113">
        <ele>212.8</ele>
        <time>2021-07-30T10:50:52Z</time>
      </trkpt>
      <trkpt lat="48.78651" lon="6.46121">
        <ele>213.2</ele>
        <time>2021-07-30T10:50:57Z</time>
      </trkpt>
      <trkpt lat="48.78649" lon="6.46127">
        <ele>213.4</ele>
        <time>2021-07-30T10:50:59Z</time>
      </trkpt>
      <trkpt lat="48.78647" lon="6.46132">
        <ele>213.6</ele>
        <time>2021-07-30T10:51:00Z</time>
      </trkpt>
      <trkpt lat="48.78643" lon="6.46138">
        <ele>213.9</ele>
        <time>2021-07-30T10:51:02Z</time>
      </trkpt>
      <trkpt lat="48.7864" lon="6.46143">
        <ele>214.1</ele>
        <time>2021-07-30T10:51:03Z</time>
      </trkpt>
      <trkpt lat="48.78639" lon="6.46147">
        <ele>214.2</ele>
        <time>2021-07-30T10:51:04Z</time>
      </trkpt>
      <trkpt lat="48.78637" lon="6.46151">
        <ele>214.3</ele>
        <time>2021-07-30T10:51:06Z</time>
      </trkpt>
      <trkpt lat="48.78636" lon="6.46154">
        <ele>214.3</ele>
        <time>2021-07-30T10:51:07Z</time>
      </trkpt>
      <trkpt lat="48.78633" lon="6.46158">
        <ele>214.4</ele>
        <time>2021-07-30T10:51:09Z</time>
      </trkpt>
      <trkpt lat="48.7863" lon="6.46162">
        <ele>214.5</ele>
        <time>2021-07-30T10:51:10Z</time>
      </trkpt>
      <trkpt lat="48.7863" lon="6.46164">
        <ele>214.5</ele>
        <time>2021-07-30T10:51:12Z</time>
      </trkpt>
      <trkpt lat="48.7863" lon="6.46164">
        <ele>214.5</ele>
        <time>2021-07-30T10:51:13Z</time>
      </trkpt>
      <trkpt lat="48.78631" lon="6.46165">
        <ele>214.5</ele>
        <time>2021-07-30T10:51:14Z</time>
      </trkpt>
      <trkpt lat="48.78632" lon="6.46166">
        <ele>214.5</ele>
        <time>2021-07-30T10:51:15Z</time>
      </trkpt>
      <trkpt lat="48.78631" lon="6.46169">
        <ele>214.5</ele>
        <time>2021-07-30T10:51:17Z</time>
      </trkpt>
      <trkpt lat="48.78631" lon="6.4617">
        <ele>214.6</ele>
        <time>2021-07-30T10:51:18Z</time>
      </trkpt>
      <trkpt lat="48.78631" lon="6.46172">
        <ele>214.6</ele>
        <time>2021-07-30T10:51:19Z</time>
      </trkpt>
      <trkpt lat="48.7863" lon="6.46174">
        <ele>214.6</ele>
        <time>2021-07-30T10:51:20Z</time>
      </trkpt>
      <trkpt lat="48.78629" lon="6.46181">
        <ele>214.6</ele>
        <time>2021-07-30T10:51:22Z</time>
      </trkpt>
      <trkpt lat="48.78629" lon="6.46187">
        <ele>214.6</ele>
        <time>2021-07-30T10:51:23Z</time>
      </trkpt>
      <trkpt lat="48.78628" lon="6.46203">
        <ele>214.6</ele>
        <time>2021-07-30T10:51:24Z</time>
      </trkpt>
      <trkpt lat="48.78627" lon="6.46226">
        <ele>214.6</ele>
        <time>2021-07-30T10:51:26Z</time>
      </trkpt>
      <trkpt lat="48.78627" lon="6.46235">
        <ele>214.5</ele>
        <time>2021-07-30T10:51:27Z</time>
      </trkpt>
      <trkpt lat="48.78628" lon="6.46253">
        <ele>214</ele>
        <time>2021-07-30T10:51:29Z</time>
      </trkpt>
      <trkpt lat="48.78629" lon="6.46262">
        <ele>213.9</ele>
        <time>2021-07-30T10:51:30Z</time>
      </trkpt>
      <trkpt lat="48.78629" lon="6.46271">
        <ele>213.7</ele>
        <time>2021-07-30T10:51:31Z</time>
      </trkpt>
      <trkpt lat="48.78629" lon="6.4629">
        <ele>213.4</ele>
        <time>2021-07-30T10:51:33Z</time>
      </trkpt>
      <trkpt lat="48.78629" lon="6.463">
        <ele>213.4</ele>
        <time>2021-07-30T10:51:34Z</time>
      </trkpt>
      <trkpt lat="48.78628" lon="6.4631">
        <ele>213.3</ele>
        <time>2021-07-30T10:51:35Z</time>
      </trkpt>
      <trkpt lat="48.78627" lon="6.46328">
        <ele>213.2</ele>
        <time>2021-07-30T10:51:37Z</time>
      </trkpt>
      <trkpt lat="48.78627" lon="6.46336">
        <ele>213.2</ele>
        <time>2021-07-30T10:51:38Z</time>
      </trkpt>
      <trkpt lat="48.78629" lon="6.46354">
        <ele>213.1</ele>
        <time>2021-07-30T10:51:40Z</time>
      </trkpt>
      <trkpt lat="48.7863" lon="6.46363">
        <ele>213.1</ele>
        <time>2021-07-30T10:51:41Z</time>
      </trkpt>
      <trkpt lat="48.78631" lon="6.4638">
        <ele>213</ele>
        <time>2021-07-30T10:51:43Z</time>
      </trkpt>
      <trkpt lat="48.78631" lon="6.46388">
        <ele>212.9</ele>
        <time>2021-07-30T10:51:44Z</time>
      </trkpt>
      <trkpt lat="48.78631" lon="6.46403">
        <ele>212.8</ele>
        <time>2021-07-30T10:51:46Z</time>
      </trkpt>
      <trkpt lat="48.78631" lon="6.4642">
        <ele>212.7</ele>
        <time>2021-07-30T10:51:48Z</time>
      </trkpt>
      <trkpt lat="48.78631" lon="6.46429">
        <ele>212.6</ele>
        <time>2021-07-30T10:51:49Z</time>
      </trkpt>
      <trkpt lat="48.78633" lon="6.46444">
        <ele>212.4</ele>
        <time>2021-07-30T10:51:51Z</time>
      </trkpt>
      <trkpt lat="48.78633" lon="6.46452">
        <ele>212.3</ele>
        <time>2021-07-30T10:51:52Z</time>
      </trkpt>
      <trkpt lat="48.78633" lon="6.46461">
        <ele>212.2</ele>
        <time>2021-07-30T10:51:53Z</time>
      </trkpt>
      <trkpt lat="48.78634" lon="6.46478">
        <ele>211.9</ele>
        <time>2021-07-30T10:51:55Z</time>
      </trkpt>
      <trkpt lat="48.78635" lon="6.46496">
        <ele>211.5</ele>
        <time>2021-07-30T10:51:57Z</time>
      </trkpt>
      <trkpt lat="48.78635" lon="6.46505">
        <ele>211.3</ele>
        <time>2021-07-30T10:51:58Z</time>
      </trkpt>
      <trkpt lat="48.78635" lon="6.46514">
        <ele>211.1</ele>
        <time>2021-07-30T10:51:59Z</time>
      </trkpt>
      <trkpt lat="48.78634" lon="6.46533">
        <ele>210.7</ele>
        <time>2021-07-30T10:52:01Z</time>
      </trkpt>
      <trkpt lat="48.78633" lon="6.46552">
        <ele>210.3</ele>
        <time>2021-07-30T10:52:03Z</time>
      </trkpt>
      <trkpt lat="48.78632" lon="6.46562">
        <ele>210</ele>
        <time>2021-07-30T10:52:04Z</time>
      </trkpt>
      <trkpt lat="48.78632" lon="6.46571">
        <ele>209.8</ele>
        <time>2021-07-30T10:52:05Z</time>
      </trkpt>
      <trkpt lat="48.78632" lon="6.46591">
        <ele>209.3</ele>
        <time>2021-07-30T10:52:07Z</time>
      </trkpt>
      <trkpt lat="48.78632" lon="6.46611">
        <ele>208.8</ele>
        <time>2021-07-30T10:52:09Z</time>
      </trkpt>
      <trkpt lat="48.78631" lon="6.46621">
        <ele>208.6</ele>
        <time>2021-07-30T10:52:10Z</time>
      </trkpt>
      <trkpt lat="48.78631" lon="6.4663">
        <ele>208.3</ele>
        <time>2021-07-30T10:52:11Z</time>
      </trkpt>
      <trkpt lat="48.7863" lon="6.4665">
        <ele>207.9</ele>
        <time>2021-07-30T10:52:13Z</time>
      </trkpt>
      <trkpt lat="48.78629" lon="6.4667">
        <ele>207.6</ele>
        <time>2021-07-30T10:52:15Z</time>
      </trkpt>
      <trkpt lat="48.78628" lon="6.4668">
        <ele>207.5</ele>
        <time>2021-07-30T10:52:16Z</time>
      </trkpt>
      <trkpt lat="48.78627" lon="6.46701">
        <ele>207.3</ele>
        <time>2021-07-30T10:52:18Z</time>
      </trkpt>
      <trkpt lat="48.78626" lon="6.46711">
        <ele>207.2</ele>
        <time>2021-07-30T10:52:19Z</time>
      </trkpt>
      <trkpt lat="48.78625" lon="6.46731">
        <ele>207</ele>
        <time>2021-07-30T10:52:21Z</time>
      </trkpt>
      <trkpt lat="48.78623" lon="6.46749">
        <ele>206.9</ele>
        <time>2021-07-30T10:52:23Z</time>
      </trkpt>
      <trkpt lat="48.78621" lon="6.46767">
        <ele>206.8</ele>
        <time>2021-07-30T10:52:25Z</time>
      </trkpt>
      <trkpt lat="48.78618" lon="6.46785">
        <ele>206.6</ele>
        <time>2021-07-30T10:52:27Z</time>
      </trkpt>
      <trkpt lat="48.78615" lon="6.46804">
        <ele>206.5</ele>
        <time>2021-07-30T10:52:29Z</time>
      </trkpt>
      <trkpt lat="48.78613" lon="6.46824">
        <ele>206.4</ele>
        <time>2021-07-30T10:52:31Z</time>
      </trkpt>
      <trkpt lat="48.78612" lon="6.46842">
        <ele>206.3</ele>
        <time>2021-07-30T10:52:33Z</time>
      </trkpt>
      <trkpt lat="48.78609" lon="6.46859">
        <ele>206.2</ele>
        <time>2021-07-30T10:52:35Z</time>
      </trkpt>
      <trkpt lat="48.78607" lon="6.46876">
        <ele>206.2</ele>
        <time>2021-07-30T10:52:37Z</time>
      </trkpt>
      <trkpt lat="48.78606" lon="6.46895">
        <ele>206.2</ele>
        <time>2021-07-30T10:52:39Z</time>
      </trkpt>
      <trkpt lat="48.78605" lon="6.46903">
        <ele>206.2</ele>
        <time>2021-07-30T10:52:40Z</time>
      </trkpt>
      <trkpt lat="48.78603" lon="6.4692">
        <ele>206.2</ele>
        <time>2021-07-30T10:52:42Z</time>
      </trkpt>
      <trkpt lat="48.78602" lon="6.46929">
        <ele>206.2</ele>
        <time>2021-07-30T10:52:43Z</time>
      </trkpt>
      <trkpt lat="48.78601" lon="6.46948">
        <ele>206.3</ele>
        <time>2021-07-30T10:52:45Z</time>
      </trkpt>
      <trkpt lat="48.78602" lon="6.46957">
        <ele>206.3</ele>
        <time>2021-07-30T10:52:46Z</time>
      </trkpt>
      <trkpt lat="48.78602" lon="6.46975">
        <ele>206.3</ele>
        <time>2021-07-30T10:52:48Z</time>
      </trkpt>
      <trkpt lat="48.78602" lon="6.46983">
        <ele>206.3</ele>
        <time>2021-07-30T10:52:49Z</time>
      </trkpt>
      <trkpt lat="48.78602" lon="6.47">
        <ele>206.3</ele>
        <time>2021-07-30T10:52:51Z</time>
      </trkpt>
      <trkpt lat="48.78603" lon="6.47008">
        <ele>206.4</ele>
        <time>2021-07-30T10:52:52Z</time>
      </trkpt>
      <trkpt lat="48.78604" lon="6.47016">
        <ele>206.4</ele>
        <time>2021-07-30T10:52:53Z</time>
      </trkpt>
      <trkpt lat="48.78605" lon="6.47031">
        <ele>206.3</ele>
        <time>2021-07-30T10:52:55Z</time>
      </trkpt>
      <trkpt lat="48.78606" lon="6.47039">
        <ele>206.3</ele>
        <time>2021-07-30T10:52:56Z</time>
      </trkpt>
      <trkpt lat="48.78608" lon="6.47055">
        <ele>206.3</ele>
        <time>2021-07-30T10:52:58Z</time>
      </trkpt>
      <trkpt lat="48.78609" lon="6.47063">
        <ele>206.2</ele>
        <time>2021-07-30T10:52:59Z</time>
      </trkpt>
      <trkpt lat="48.78611" lon="6.47078">
        <ele>206.1</ele>
        <time>2021-07-30T10:53:01Z</time>
      </trkpt>
      <trkpt lat="48.78613" lon="6.47093">
        <ele>205.9</ele>
        <time>2021-07-30T10:53:03Z</time>
      </trkpt>
      <trkpt lat="48.78615" lon="6.4711">
        <ele>205.7</ele>
        <time>2021-07-30T10:53:05Z</time>
      </trkpt>
      <trkpt lat="48.78616" lon="6.47117">
        <ele>205.5</ele>
        <time>2021-07-30T10:53:06Z</time>
      </trkpt>
      <trkpt lat="48.78617" lon="6.47125">
        <ele>205.3</ele>
        <time>2021-07-30T10:53:07Z</time>
      </trkpt>
      <trkpt lat="48.78619" lon="6.47142">
        <ele>204.9</ele>
        <time>2021-07-30T10:53:09Z</time>
      </trkpt>
      <trkpt lat="48.78622" lon="6.47159">
        <ele>204.5</ele>
        <time>2021-07-30T10:53:11Z</time>
      </trkpt>
      <trkpt lat="48.78625" lon="6.47176">
        <ele>204</ele>
        <time>2021-07-30T10:53:13Z</time>
      </trkpt>
      <trkpt lat="48.78628" lon="6.47195">
        <ele>203.4</ele>
        <time>2021-07-30T10:53:15Z</time>
      </trkpt>
      <trkpt lat="48.78629" lon="6.47205">
        <ele>203.1</ele>
        <time>2021-07-30T10:53:16Z</time>
      </trkpt>
      <trkpt lat="48.7863" lon="6.47227">
        <ele>202.4</ele>
        <time>2021-07-30T10:53:18Z</time>
      </trkpt>
      <trkpt lat="48.78631" lon="6.47239">
        <ele>202.1</ele>
        <time>2021-07-30T10:53:19Z</time>
      </trkpt>
      <trkpt lat="48.78633" lon="6.47263">
        <ele>201.7</ele>
        <time>2021-07-30T10:53:21Z</time>
      </trkpt>
      <trkpt lat="48.78635" lon="6.47276">
        <ele>201.6</ele>
        <time>2021-07-30T10:53:22Z</time>
      </trkpt>
      <trkpt lat="48.78636" lon="6.47299">
        <ele>201.4</ele>
        <time>2021-07-30T10:53:24Z</time>
      </trkpt>
      <trkpt lat="48.78638" lon="6.47311">
        <ele>201.3</ele>
        <time>2021-07-30T10:53:25Z</time>
      </trkpt>
      <trkpt lat="48.78641" lon="6.47332">
        <ele>201.2</ele>
        <time>2021-07-30T10:53:27Z</time>
      </trkpt>
      <trkpt lat="48.78643" lon="6.47344">
        <ele>201.2</ele>
        <time>2021-07-30T10:53:28Z</time>
      </trkpt>
      <trkpt lat="48.78644" lon="6.47356">
        <ele>201.3</ele>
        <time>2021-07-30T10:53:29Z</time>
      </trkpt>
      <trkpt lat="48.78648" lon="6.47378">
        <ele>201.4</ele>
        <time>2021-07-30T10:53:31Z</time>
      </trkpt>
      <trkpt lat="48.78651" lon="6.474">
        <ele>201.5</ele>
        <time>2021-07-30T10:53:33Z</time>
      </trkpt>
      <trkpt lat="48.78653" lon="6.47421">
        <ele>201.6</ele>
        <time>2021-07-30T10:53:35Z</time>
      </trkpt>
      <trkpt lat="48.78654" lon="6.47431">
        <ele>201.7</ele>
        <time>2021-07-30T10:53:36Z</time>
      </trkpt>
      <trkpt lat="48.78655" lon="6.47441">
        <ele>201.9</ele>
        <time>2021-07-30T10:53:37Z</time>
      </trkpt>
      <trkpt lat="48.78657" lon="6.47461">
        <ele>202.1</ele>
        <time>2021-07-30T10:53:39Z</time>
      </trkpt>
      <trkpt lat="48.78658" lon="6.4748">
        <ele>202.4</ele>
        <time>2021-07-30T10:53:41Z</time>
      </trkpt>
      <trkpt lat="48.78659" lon="6.47489">
        <ele>202.5</ele>
        <time>2021-07-30T10:53:42Z</time>
      </trkpt>
      <trkpt lat="48.78659" lon="6.47498">
        <ele>202.7</ele>
        <time>2021-07-30T10:53:43Z</time>
      </trkpt>
      <trkpt lat="48.78661" lon="6.47514">
        <ele>203</ele>
        <time>2021-07-30T10:53:45Z</time>
      </trkpt>
      <trkpt lat="48.78662" lon="6.47523">
        <ele>203.2</ele>
        <time>2021-07-30T10:53:46Z</time>
      </trkpt>
      <trkpt lat="48.78662" lon="6.4753">
        <ele>203.3</ele>
        <time>2021-07-30T10:53:47Z</time>
      </trkpt>
      <trkpt lat="48.78663" lon="6.47546">
        <ele>203.7</ele>
        <time>2021-07-30T10:53:49Z</time>
      </trkpt>
      <trkpt lat="48.78665" lon="6.47561">
        <ele>204.1</ele>
        <time>2021-07-30T10:53:51Z</time>
      </trkpt>
      <trkpt lat="48.78665" lon="6.47568">
        <ele>204.3</ele>
        <time>2021-07-30T10:53:52Z</time>
      </trkpt>
      <trkpt lat="48.78666" lon="6.47572">
        <ele>204.4</ele>
        <time>2021-07-30T10:53:53Z</time>
      </trkpt>
      <trkpt lat="48.78667" lon="6.47584">
        <ele>204.7</ele>
        <time>2021-07-30T10:53:55Z</time>
      </trkpt>
      <trkpt lat="48.78669" lon="6.47597">
        <ele>205.1</ele>
        <time>2021-07-30T10:53:57Z</time>
      </trkpt>
      <trkpt lat="48.7867" lon="6.47609">
        <ele>205.5</ele>
        <time>2021-07-30T10:53:59Z</time>
      </trkpt>
      <trkpt lat="48.78672" lon="6.47612">
        <ele>205.6</ele>
        <time>2021-07-30T10:54:00Z</time>
      </trkpt>
      <trkpt lat="48.78674" lon="6.47617">
        <ele>205.8</ele>
        <time>2021-07-30T10:54:01Z</time>
      </trkpt>
      <trkpt lat="48.78674" lon="6.47626">
        <ele>206</ele>
        <time>2021-07-30T10:54:02Z</time>
      </trkpt>
      <trkpt lat="48.78674" lon="6.47633">
        <ele>206.2</ele>
        <time>2021-07-30T10:54:04Z</time>
      </trkpt>
      <trkpt lat="48.78674" lon="6.47641">
        <ele>206.4</ele>
        <time>2021-07-30T10:54:05Z</time>
      </trkpt>
      <trkpt lat="48.78674" lon="6.47647">
        <ele>206.5</ele>
        <time>2021-07-30T10:54:06Z</time>
      </trkpt>
      <trkpt lat="48.78675" lon="6.47653">
        <ele>206.6</ele>
        <time>2021-07-30T10:54:07Z</time>
      </trkpt>
      <trkpt lat="48.78675" lon="6.4766">
        <ele>206.7</ele>
        <time>2021-07-30T10:54:08Z</time>
      </trkpt>
      <trkpt lat="48.78676" lon="6.47672">
        <ele>207</ele>
        <time>2021-07-30T10:54:10Z</time>
      </trkpt>
      <trkpt lat="48.78676" lon="6.47679">
        <ele>207.2</ele>
        <time>2021-07-30T10:54:12Z</time>
      </trkpt>
      <trkpt lat="48.78676" lon="6.47685">
        <ele>207.3</ele>
        <time>2021-07-30T10:54:13Z</time>
      </trkpt>
      <trkpt lat="48.78675" lon="6.47696">
        <ele>207.5</ele>
        <time>2021-07-30T10:54:15Z</time>
      </trkpt>
      <trkpt lat="48.78675" lon="6.47702">
        <ele>207.6</ele>
        <time>2021-07-30T10:54:16Z</time>
      </trkpt>
      <trkpt lat="48.78676" lon="6.47708">
        <ele>207.7</ele>
        <time>2021-07-30T10:54:17Z</time>
      </trkpt>
      <trkpt lat="48.78677" lon="6.47718">
        <ele>207.9</ele>
        <time>2021-07-30T10:54:18Z</time>
      </trkpt>
      <trkpt lat="48.78677" lon="6.47726">
        <ele>208</ele>
        <time>2021-07-30T10:54:20Z</time>
      </trkpt>
      <trkpt lat="48.78677" lon="6.47732">
        <ele>208</ele>
        <time>2021-07-30T10:54:21Z</time>
      </trkpt>
      <trkpt lat="48.78678" lon="6.47743">
        <ele>208.1</ele>
        <time>2021-07-30T10:54:23Z</time>
      </trkpt>
      <trkpt lat="48.78678" lon="6.47749">
        <ele>208.2</ele>
        <time>2021-07-30T10:54:24Z</time>
      </trkpt>
      <trkpt lat="48.78677" lon="6.47756">
        <ele>208.2</ele>
        <time>2021-07-30T10:54:25Z</time>
      </trkpt>
      <trkpt lat="48.78676" lon="6.47763">
        <ele>208.2</ele>
        <time>2021-07-30T10:54:26Z</time>
      </trkpt>
      <trkpt lat="48.78676" lon="6.4777">
        <ele>208.3</ele>
        <time>2021-07-30T10:54:28Z</time>
      </trkpt>
      <trkpt lat="48.78677" lon="6.47776">
        <ele>208.3</ele>
        <time>2021-07-30T10:54:29Z</time>
      </trkpt>
      <trkpt lat="48.78677" lon="6.47785">
        <ele>208.3</ele>
        <time>2021-07-30T10:54:30Z</time>
      </trkpt>
      <trkpt lat="48.78678" lon="6.47794">
        <ele>208.4</ele>
        <time>2021-07-30T10:54:32Z</time>
      </trkpt>
      <trkpt lat="48.78678" lon="6.47807">
        <ele>208.4</ele>
        <time>2021-07-30T10:54:34Z</time>
      </trkpt>
      <trkpt lat="48.78678" lon="6.47814">
        <ele>208.5</ele>
        <time>2021-07-30T10:54:35Z</time>
      </trkpt>
      <trkpt lat="48.78679" lon="6.47822">
        <ele>208.5</ele>
        <time>2021-07-30T10:54:36Z</time>
      </trkpt>
      <trkpt lat="48.78678" lon="6.47831">
        <ele>208.6</ele>
        <time>2021-07-30T10:54:38Z</time>
      </trkpt>
      <trkpt lat="48.78678" lon="6.47837">
        <ele>208.6</ele>
        <time>2021-07-30T10:54:39Z</time>
      </trkpt>
      <trkpt lat="48.78678" lon="6.47843">
        <ele>208.6</ele>
        <time>2021-07-30T10:54:40Z</time>
      </trkpt>
      <trkpt lat="48.78678" lon="6.47856">
        <ele>208.7</ele>
        <time>2021-07-30T10:54:42Z</time>
      </trkpt>
      <trkpt lat="48.78678" lon="6.47862">
        <ele>208.7</ele>
        <time>2021-07-30T10:54:43Z</time>
      </trkpt>
      <trkpt lat="48.78677" lon="6.47869">
        <ele>208.7</ele>
        <time>2021-07-30T10:54:44Z</time>
      </trkpt>
      <trkpt lat="48.78677" lon="6.47876">
        <ele>208.7</ele>
        <time>2021-07-30T10:54:45Z</time>
      </trkpt>
      <trkpt lat="48.78677" lon="6.47882">
        <ele>208.7</ele>
        <time>2021-07-30T10:54:46Z</time>
      </trkpt>
      <trkpt lat="48.78677" lon="6.47889">
        <ele>208.8</ele>
        <time>2021-07-30T10:54:47Z</time>
      </trkpt>
      <trkpt lat="48.78676" lon="6.47896">
        <ele>208.8</ele>
        <time>2021-07-30T10:54:48Z</time>
      </trkpt>
      <trkpt lat="48.78675" lon="6.47905">
        <ele>208.8</ele>
        <time>2021-07-30T10:54:50Z</time>
      </trkpt>
      <trkpt lat="48.78675" lon="6.47913">
        <ele>208.8</ele>
        <time>2021-07-30T10:54:51Z</time>
      </trkpt>
      <trkpt lat="48.78674" lon="6.47923">
        <ele>208.8</ele>
        <time>2021-07-30T10:54:52Z</time>
      </trkpt>
      <trkpt lat="48.78673" lon="6.47934">
        <ele>208.8</ele>
        <time>2021-07-30T10:54:54Z</time>
      </trkpt>
      <trkpt lat="48.78673" lon="6.47941">
        <ele>208.8</ele>
        <time>2021-07-30T10:54:55Z</time>
      </trkpt>
      <trkpt lat="48.78672" lon="6.47955">
        <ele>208.8</ele>
        <time>2021-07-30T10:54:57Z</time>
      </trkpt>
      <trkpt lat="48.78672" lon="6.47962">
        <ele>208.8</ele>
        <time>2021-07-30T10:54:58Z</time>
      </trkpt>
      <trkpt lat="48.78672" lon="6.47969">
        <ele>208.7</ele>
        <time>2021-07-30T10:54:59Z</time>
      </trkpt>
      <trkpt lat="48.78671" lon="6.47971">
        <ele>208.7</ele>
        <time>2021-07-30T10:55:00Z</time>
      </trkpt>
      <trkpt lat="48.78671" lon="6.47989">
        <ele>208.6</ele>
        <time>2021-07-30T10:55:02Z</time>
      </trkpt>
      <trkpt lat="48.78671" lon="6.47998">
        <ele>208.6</ele>
        <time>2021-07-30T10:55:03Z</time>
      </trkpt>
      <trkpt lat="48.78671" lon="6.48013">
        <ele>208.5</ele>
        <time>2021-07-30T10:55:05Z</time>
      </trkpt>
      <trkpt lat="48.78671" lon="6.48021">
        <ele>208.5</ele>
        <time>2021-07-30T10:55:06Z</time>
      </trkpt>
      <trkpt lat="48.78671" lon="6.48029">
        <ele>208.5</ele>
        <time>2021-07-30T10:55:07Z</time>
      </trkpt>
      <trkpt lat="48.78671" lon="6.48044">
        <ele>208.5</ele>
        <time>2021-07-30T10:55:09Z</time>
      </trkpt>
      <trkpt lat="48.78671" lon="6.4806">
        <ele>208.5</ele>
        <time>2021-07-30T10:55:11Z</time>
      </trkpt>
      <trkpt lat="48.78671" lon="6.48068">
        <ele>208.5</ele>
        <time>2021-07-30T10:55:12Z</time>
      </trkpt>
      <trkpt lat="48.78671" lon="6.48075">
        <ele>208.5</ele>
        <time>2021-07-30T10:55:13Z</time>
      </trkpt>
      <trkpt lat="48.78671" lon="6.48083">
        <ele>208.5</ele>
        <time>2021-07-30T10:55:14Z</time>
      </trkpt>
      <trkpt lat="48.78671" lon="6.48098">
        <ele>208.5</ele>
        <time>2021-07-30T10:55:16Z</time>
      </trkpt>
      <trkpt lat="48.78671" lon="6.48106">
        <ele>208.5</ele>
        <time>2021-07-30T10:55:17Z</time>
      </trkpt>
      <trkpt lat="48.78672" lon="6.48121">
        <ele>208.5</ele>
        <time>2021-07-30T10:55:19Z</time>
      </trkpt>
      <trkpt lat="48.78673" lon="6.48137">
        <ele>208.5</ele>
        <time>2021-07-30T10:55:21Z</time>
      </trkpt>
      <trkpt lat="48.78673" lon="6.48152">
        <ele>208.6</ele>
        <time>2021-07-30T10:55:23Z</time>
      </trkpt>
      <trkpt lat="48.78674" lon="6.48166">
        <ele>208.5</ele>
        <time>2021-07-30T10:55:25Z</time>
      </trkpt>
      <trkpt lat="48.78675" lon="6.4818">
        <ele>208.4</ele>
        <time>2021-07-30T10:55:27Z</time>
      </trkpt>
      <trkpt lat="48.78677" lon="6.48192">
        <ele>208.3</ele>
        <time>2021-07-30T10:55:29Z</time>
      </trkpt>
      <trkpt lat="48.78678" lon="6.48205">
        <ele>208.1</ele>
        <time>2021-07-30T10:55:31Z</time>
      </trkpt>
      <trkpt lat="48.7868" lon="6.48218">
        <ele>207.9</ele>
        <time>2021-07-30T10:55:33Z</time>
      </trkpt>
      <trkpt lat="48.7868" lon="6.48225">
        <ele>207.8</ele>
        <time>2021-07-30T10:55:34Z</time>
      </trkpt>
      <trkpt lat="48.78681" lon="6.48239">
        <ele>207.5</ele>
        <time>2021-07-30T10:55:36Z</time>
      </trkpt>
      <trkpt lat="48.78681" lon="6.48255">
        <ele>207.2</ele>
        <time>2021-07-30T10:55:38Z</time>
      </trkpt>
      <trkpt lat="48.78681" lon="6.48272">
        <ele>206.7</ele>
        <time>2021-07-30T10:55:40Z</time>
      </trkpt>
      <trkpt lat="48.78681" lon="6.4828">
        <ele>206.5</ele>
        <time>2021-07-30T10:55:41Z</time>
      </trkpt>
      <trkpt lat="48.78683" lon="6.48298">
        <ele>205.9</ele>
        <time>2021-07-30T10:55:43Z</time>
      </trkpt>
      <trkpt lat="48.78683" lon="6.48307">
        <ele>205.6</ele>
        <time>2021-07-30T10:55:44Z</time>
      </trkpt>
      <trkpt lat="48.78685" lon="6.48326">
        <ele>205</ele>
        <time>2021-07-30T10:55:46Z</time>
      </trkpt>
      <trkpt lat="48.78686" lon="6.48336">
        <ele>204.7</ele>
        <time>2021-07-30T10:55:47Z</time>
      </trkpt>
      <trkpt lat="48.78687" lon="6.48357">
        <ele>204.1</ele>
        <time>2021-07-30T10:55:49Z</time>
      </trkpt>
      <trkpt lat="48.78689" lon="6.48379">
        <ele>203.5</ele>
        <time>2021-07-30T10:55:51Z</time>
      </trkpt>
      <trkpt lat="48.78689" lon="6.48391">
        <ele>203.3</ele>
        <time>2021-07-30T10:55:52Z</time>
      </trkpt>
      <trkpt lat="48.78691" lon="6.48402">
        <ele>203</ele>
        <time>2021-07-30T10:55:53Z</time>
      </trkpt>
      <trkpt lat="48.78694" lon="6.48425">
        <ele>202.7</ele>
        <time>2021-07-30T10:55:55Z</time>
      </trkpt>
      <trkpt lat="48.78694" lon="6.48437">
        <ele>202.6</ele>
        <time>2021-07-30T10:55:56Z</time>
      </trkpt>
      <trkpt lat="48.78695" lon="6.4846">
        <ele>202.5</ele>
        <time>2021-07-30T10:55:58Z</time>
      </trkpt>
      <trkpt lat="48.78696" lon="6.48483">
        <ele>202.6</ele>
        <time>2021-07-30T10:56:00Z</time>
      </trkpt>
      <trkpt lat="48.78696" lon="6.48504">
        <ele>202.7</ele>
        <time>2021-07-30T10:56:02Z</time>
      </trkpt>
      <trkpt lat="48.78695" lon="6.48523">
        <ele>202.9</ele>
        <time>2021-07-30T10:56:04Z</time>
      </trkpt>
      <trkpt lat="48.78695" lon="6.48532">
        <ele>203</ele>
        <time>2021-07-30T10:56:05Z</time>
      </trkpt>
      <trkpt lat="48.78695" lon="6.4854">
        <ele>203.2</ele>
        <time>2021-07-30T10:56:06Z</time>
      </trkpt>
      <trkpt lat="48.78696" lon="6.48547">
        <ele>203.2</ele>
        <time>2021-07-30T10:56:07Z</time>
      </trkpt>
      <trkpt lat="48.78697" lon="6.48553">
        <ele>203.2</ele>
        <time>2021-07-30T10:56:08Z</time>
      </trkpt>
      <trkpt lat="48.78702" lon="6.48566">
        <ele>203.2</ele>
        <time>2021-07-30T10:56:10Z</time>
      </trkpt>
      <trkpt lat="48.78705" lon="6.48574">
        <ele>203.3</ele>
        <time>2021-07-30T10:56:11Z</time>
      </trkpt>
      <trkpt lat="48.78709" lon="6.48582">
        <ele>203.4</ele>
        <time>2021-07-30T10:56:12Z</time>
      </trkpt>
      <trkpt lat="48.78712" lon="6.48588">
        <ele>203.5</ele>
        <time>2021-07-30T10:56:13Z</time>
      </trkpt>
      <trkpt lat="48.78717" lon="6.48603">
        <ele>203.8</ele>
        <time>2021-07-30T10:56:15Z</time>
      </trkpt>
      <trkpt lat="48.7872" lon="6.4861">
        <ele>204</ele>
        <time>2021-07-30T10:56:16Z</time>
      </trkpt>
      <trkpt lat="48.78724" lon="6.48624">
        <ele>204.3</ele>
        <time>2021-07-30T10:56:18Z</time>
      </trkpt>
      <trkpt lat="48.78726" lon="6.4863">
        <ele>204.5</ele>
        <time>2021-07-30T10:56:19Z</time>
      </trkpt>
      <trkpt lat="48.7873" lon="6.4864">
        <ele>204.9</ele>
        <time>2021-07-30T10:56:21Z</time>
      </trkpt>
      <trkpt lat="48.78732" lon="6.48644">
        <ele>205</ele>
        <time>2021-07-30T10:56:22Z</time>
      </trkpt>
      <trkpt lat="48.78735" lon="6.4865">
        <ele>205.2</ele>
        <time>2021-07-30T10:56:23Z</time>
      </trkpt>
      <trkpt lat="48.78738" lon="6.48654">
        <ele>205.4</ele>
        <time>2021-07-30T10:56:24Z</time>
      </trkpt>
      <trkpt lat="48.78743" lon="6.48664">
        <ele>205.7</ele>
        <time>2021-07-30T10:56:26Z</time>
      </trkpt>
      <trkpt lat="48.78745" lon="6.48668">
        <ele>205.8</ele>
        <time>2021-07-30T10:56:27Z</time>
      </trkpt>
      <trkpt lat="48.78749" lon="6.48676">
        <ele>206.1</ele>
        <time>2021-07-30T10:56:29Z</time>
      </trkpt>
      <trkpt lat="48.78751" lon="6.48681">
        <ele>206.2</ele>
        <time>2021-07-30T10:56:30Z</time>
      </trkpt>
      <trkpt lat="48.78753" lon="6.48687">
        <ele>206.3</ele>
        <time>2021-07-30T10:56:31Z</time>
      </trkpt>
      <trkpt lat="48.78757" lon="6.48696">
        <ele>206.5</ele>
        <time>2021-07-30T10:56:33Z</time>
      </trkpt>
      <trkpt lat="48.78758" lon="6.48701">
        <ele>206.6</ele>
        <time>2021-07-30T10:56:34Z</time>
      </trkpt>
      <trkpt lat="48.78761" lon="6.48706">
        <ele>206.7</ele>
        <time>2021-07-30T10:56:35Z</time>
      </trkpt>
      <trkpt lat="48.78763" lon="6.48711">
        <ele>206.8</ele>
        <time>2021-07-30T10:56:36Z</time>
      </trkpt>
      <trkpt lat="48.78768" lon="6.48721">
        <ele>207</ele>
        <time>2021-07-30T10:56:38Z</time>
      </trkpt>
      <trkpt lat="48.78771" lon="6.4873">
        <ele>207.1</ele>
        <time>2021-07-30T10:56:40Z</time>
      </trkpt>
      <trkpt lat="48.78776" lon="6.48739">
        <ele>207.3</ele>
        <time>2021-07-30T10:56:42Z</time>
      </trkpt>
      <trkpt lat="48.78777" lon="6.48743">
        <ele>207.3</ele>
        <time>2021-07-30T10:56:43Z</time>
      </trkpt>
      <trkpt lat="48.78781" lon="6.48752">
        <ele>207.4</ele>
        <time>2021-07-30T10:56:45Z</time>
      </trkpt>
      <trkpt lat="48.78784" lon="6.48757">
        <ele>207.5</ele>
        <time>2021-07-30T10:56:46Z</time>
      </trkpt>
      <trkpt lat="48.78787" lon="6.48762">
        <ele>207.6</ele>
        <time>2021-07-30T10:56:47Z</time>
      </trkpt>
      <trkpt lat="48.78789" lon="6.48767">
        <ele>207.7</ele>
        <time>2021-07-30T10:56:48Z</time>
      </trkpt>
      <trkpt lat="48.78791" lon="6.48773">
        <ele>207.7</ele>
        <time>2021-07-30T10:56:49Z</time>
      </trkpt>
      <trkpt lat="48.78795" lon="6.48782">
        <ele>207.8</ele>
        <time>2021-07-30T10:56:51Z</time>
      </trkpt>
      <trkpt lat="48.78797" lon="6.48786">
        <ele>207.9</ele>
        <time>2021-07-30T10:56:52Z</time>
      </trkpt>
      <trkpt lat="48.78802" lon="6.48795">
        <ele>208.1</ele>
        <time>2021-07-30T10:56:54Z</time>
      </trkpt>
      <trkpt lat="48.78804" lon="6.488">
        <ele>208.1</ele>
        <time>2021-07-30T10:56:55Z</time>
      </trkpt>
      <trkpt lat="48.78808" lon="6.48808">
        <ele>208.2</ele>
        <time>2021-07-30T10:56:57Z</time>
      </trkpt>
      <trkpt lat="48.78813" lon="6.48816">
        <ele>208.4</ele>
        <time>2021-07-30T10:56:58Z</time>
      </trkpt>
      <trkpt lat="48.78815" lon="6.48822">
        <ele>208.4</ele>
        <time>2021-07-30T10:57:00Z</time>
      </trkpt>
      <trkpt lat="48.78818" lon="6.48826">
        <ele>208.5</ele>
        <time>2021-07-30T10:57:01Z</time>
      </trkpt>
      <trkpt lat="48.7882" lon="6.48831">
        <ele>208.6</ele>
        <time>2021-07-30T10:57:02Z</time>
      </trkpt>
      <trkpt lat="48.78824" lon="6.48842">
        <ele>208.7</ele>
        <time>2021-07-30T10:57:04Z</time>
      </trkpt>
      <trkpt lat="48.78827" lon="6.48846">
        <ele>208.8</ele>
        <time>2021-07-30T10:57:05Z</time>
      </trkpt>
      <trkpt lat="48.78831" lon="6.48852">
        <ele>208.9</ele>
        <time>2021-07-30T10:57:06Z</time>
      </trkpt>
      <trkpt lat="48.78834" lon="6.48857">
        <ele>208.9</ele>
        <time>2021-07-30T10:57:07Z</time>
      </trkpt>
      <trkpt lat="48.78837" lon="6.48862">
        <ele>209</ele>
        <time>2021-07-30T10:57:08Z</time>
      </trkpt>
      <trkpt lat="48.78839" lon="6.48867">
        <ele>209.1</ele>
        <time>2021-07-30T10:57:10Z</time>
      </trkpt>
      <trkpt lat="48.78842" lon="6.48873">
        <ele>209.1</ele>
        <time>2021-07-30T10:57:11Z</time>
      </trkpt>
      <trkpt lat="48.78848" lon="6.48883">
        <ele>209.3</ele>
        <time>2021-07-30T10:57:13Z</time>
      </trkpt>
      <trkpt lat="48.78851" lon="6.4889">
        <ele>209.4</ele>
        <time>2021-07-30T10:57:14Z</time>
      </trkpt>
      <trkpt lat="48.78854" lon="6.48895">
        <ele>209.4</ele>
        <time>2021-07-30T10:57:15Z</time>
      </trkpt>
      <trkpt lat="48.78857" lon="6.48901">
        <ele>209.5</ele>
        <time>2021-07-30T10:57:17Z</time>
      </trkpt>
      <trkpt lat="48.7886" lon="6.48909">
        <ele>209.6</ele>
        <time>2021-07-30T10:57:18Z</time>
      </trkpt>
      <trkpt lat="48.78865" lon="6.48916">
        <ele>209.7</ele>
        <time>2021-07-30T10:57:20Z</time>
      </trkpt>
      <trkpt lat="48.78868" lon="6.48922">
        <ele>209.8</ele>
        <time>2021-07-30T10:57:21Z</time>
      </trkpt>
      <trkpt lat="48.7887" lon="6.48926">
        <ele>209.9</ele>
        <time>2021-07-30T10:57:22Z</time>
      </trkpt>
      <trkpt lat="48.78873" lon="6.48931">
        <ele>209.9</ele>
        <time>2021-07-30T10:57:24Z</time>
      </trkpt>
      <trkpt lat="48.78876" lon="6.48935">
        <ele>210</ele>
        <time>2021-07-30T10:57:25Z</time>
      </trkpt>
      <trkpt lat="48.78879" lon="6.4894">
        <ele>210</ele>
        <time>2021-07-30T10:57:26Z</time>
      </trkpt>
      <trkpt lat="48.78882" lon="6.48945">
        <ele>210</ele>
        <time>2021-07-30T10:57:27Z</time>
      </trkpt>
      <trkpt lat="48.78885" lon="6.48949">
        <ele>210.1</ele>
        <time>2021-07-30T10:57:28Z</time>
      </trkpt>
      <trkpt lat="48.78887" lon="6.48954">
        <ele>210.1</ele>
        <time>2021-07-30T10:57:30Z</time>
      </trkpt>
      <trkpt lat="48.7889" lon="6.48959">
        <ele>210</ele>
        <time>2021-07-30T10:57:31Z</time>
      </trkpt>
      <trkpt lat="48.78892" lon="6.48964">
        <ele>210</ele>
        <time>2021-07-30T10:57:32Z</time>
      </trkpt>
      <trkpt lat="48.78895" lon="6.4897">
        <ele>210</ele>
        <time>2021-07-30T10:57:33Z</time>
      </trkpt>
      <trkpt lat="48.78897" lon="6.48975">
        <ele>209.9</ele>
        <time>2021-07-30T10:57:34Z</time>
      </trkpt>
      <trkpt lat="48.78899" lon="6.4898">
        <ele>209.9</ele>
        <time>2021-07-30T10:57:35Z</time>
      </trkpt>
      <trkpt lat="48.78902" lon="6.48984">
        <ele>209.9</ele>
        <time>2021-07-30T10:57:36Z</time>
      </trkpt>
      <trkpt lat="48.78905" lon="6.4899">
        <ele>209.8</ele>
        <time>2021-07-30T10:57:38Z</time>
      </trkpt>
      <trkpt lat="48.78909" lon="6.48997">
        <ele>209.8</ele>
        <time>2021-07-30T10:57:39Z</time>
      </trkpt>
      <trkpt lat="48.78913" lon="6.49003">
        <ele>209.7</ele>
        <time>2021-07-30T10:57:41Z</time>
      </trkpt>
      <trkpt lat="48.78918" lon="6.49014">
        <ele>209.6</ele>
        <time>2021-07-30T10:57:43Z</time>
      </trkpt>
      <trkpt lat="48.78921" lon="6.49021">
        <ele>209.5</ele>
        <time>2021-07-30T10:57:44Z</time>
      </trkpt>
      <trkpt lat="48.78926" lon="6.49034">
        <ele>209.3</ele>
        <time>2021-07-30T10:57:46Z</time>
      </trkpt>
      <trkpt lat="48.78928" lon="6.49042">
        <ele>209.2</ele>
        <time>2021-07-30T10:57:47Z</time>
      </trkpt>
      <trkpt lat="48.78931" lon="6.49049">
        <ele>209.1</ele>
        <time>2021-07-30T10:57:48Z</time>
      </trkpt>
      <trkpt lat="48.78934" lon="6.49056">
        <ele>209</ele>
        <time>2021-07-30T10:57:49Z</time>
      </trkpt>
      <trkpt lat="48.7894" lon="6.4907">
        <ele>208.8</ele>
        <time>2021-07-30T10:57:51Z</time>
      </trkpt>
      <trkpt lat="48.78944" lon="6.49085">
        <ele>208.7</ele>
        <time>2021-07-30T10:57:53Z</time>
      </trkpt>
      <trkpt lat="48.78947" lon="6.49102">
        <ele>208.5</ele>
        <time>2021-07-30T10:57:55Z</time>
      </trkpt>
      <trkpt lat="48.78949" lon="6.49118">
        <ele>208.3</ele>
        <time>2021-07-30T10:57:57Z</time>
      </trkpt>
      <trkpt lat="48.7895" lon="6.49126">
        <ele>208.2</ele>
        <time>2021-07-30T10:57:58Z</time>
      </trkpt>
      <trkpt lat="48.78952" lon="6.49133">
        <ele>208</ele>
        <time>2021-07-30T10:57:59Z</time>
      </trkpt>
      <trkpt lat="48.78954" lon="6.49149">
        <ele>207.6</ele>
        <time>2021-07-30T10:58:01Z</time>
      </trkpt>
      <trkpt lat="48.78955" lon="6.49157">
        <ele>207.4</ele>
        <time>2021-07-30T10:58:02Z</time>
      </trkpt>
      <trkpt lat="48.78958" lon="6.49173">
        <ele>206.8</ele>
        <time>2021-07-30T10:58:04Z</time>
      </trkpt>
      <trkpt lat="48.7896" lon="6.49181">
        <ele>206.4</ele>
        <time>2021-07-30T10:58:05Z</time>
      </trkpt>
      <trkpt lat="48.78963" lon="6.4919">
        <ele>206</ele>
        <time>2021-07-30T10:58:06Z</time>
      </trkpt>
      <trkpt lat="48.78966" lon="6.49198">
        <ele>205.6</ele>
        <time>2021-07-30T10:58:07Z</time>
      </trkpt>
      <trkpt lat="48.78972" lon="6.49216">
        <ele>204.9</ele>
        <time>2021-07-30T10:58:09Z</time>
      </trkpt>
      <trkpt lat="48.7898" lon="6.49237">
        <ele>204.1</ele>
        <time>2021-07-30T10:58:11Z</time>
      </trkpt>
      <trkpt lat="48.78985" lon="6.49247">
        <ele>203.8</ele>
        <time>2021-07-30T10:58:12Z</time>
      </trkpt>
      <trkpt lat="48.78989" lon="6.49257">
        <ele>203.5</ele>
        <time>2021-07-30T10:58:13Z</time>
      </trkpt>
      <trkpt lat="48.78995" lon="6.49277">
        <ele>203</ele>
        <time>2021-07-30T10:58:15Z</time>
      </trkpt>
      <trkpt lat="48.79002" lon="6.49296">
        <ele>202.7</ele>
        <time>2021-07-30T10:58:17Z</time>
      </trkpt>
      <trkpt lat="48.79006" lon="6.49304">
        <ele>202.5</ele>
        <time>2021-07-30T10:58:18Z</time>
      </trkpt>
      <trkpt lat="48.79009" lon="6.49313">
        <ele>202.4</ele>
        <time>2021-07-30T10:58:19Z</time>
      </trkpt>
      <trkpt lat="48.79014" lon="6.49329">
        <ele>202</ele>
        <time>2021-07-30T10:58:21Z</time>
      </trkpt>
      <trkpt lat="48.79018" lon="6.49337">
        <ele>201.9</ele>
        <time>2021-07-30T10:58:22Z</time>
      </trkpt>
      <trkpt lat="48.79021" lon="6.49344">
        <ele>201.8</ele>
        <time>2021-07-30T10:58:23Z</time>
      </trkpt>
      <trkpt lat="48.79028" lon="6.49359">
        <ele>201.6</ele>
        <time>2021-07-30T10:58:25Z</time>
      </trkpt>
      <trkpt lat="48.7903" lon="6.49366">
        <ele>201.6</ele>
        <time>2021-07-30T10:58:26Z</time>
      </trkpt>
      <trkpt lat="48.79032" lon="6.49378">
        <ele>201.5</ele>
        <time>2021-07-30T10:58:28Z</time>
      </trkpt>
      <trkpt lat="48.79031" lon="6.49384">
        <ele>201.5</ele>
        <time>2021-07-30T10:58:29Z</time>
      </trkpt>
      <trkpt lat="48.79026" lon="6.49396">
        <ele>201.3</ele>
        <time>2021-07-30T10:58:31Z</time>
      </trkpt>
      <trkpt lat="48.79023" lon="6.49403">
        <ele>201.2</ele>
        <time>2021-07-30T10:58:32Z</time>
      </trkpt>
      <trkpt lat="48.79018" lon="6.49422">
        <ele>201.1</ele>
        <time>2021-07-30T10:58:34Z</time>
      </trkpt>
      <trkpt lat="48.79017" lon="6.49431">
        <ele>201</ele>
        <time>2021-07-30T10:58:35Z</time>
      </trkpt>
      <trkpt lat="48.79014" lon="6.49451">
        <ele>200.9</ele>
        <time>2021-07-30T10:58:37Z</time>
      </trkpt>
      <trkpt lat="48.79014" lon="6.49461">
        <ele>200.9</ele>
        <time>2021-07-30T10:58:38Z</time>
      </trkpt>
      <trkpt lat="48.79015" lon="6.49468">
        <ele>200.9</ele>
        <time>2021-07-30T10:58:39Z</time>
      </trkpt>
      <trkpt lat="48.79016" lon="6.49473">
        <ele>200.9</ele>
        <time>2021-07-30T10:58:40Z</time>
      </trkpt>
      <trkpt lat="48.79019" lon="6.49481">
        <ele>200.9</ele>
        <time>2021-07-30T10:58:41Z</time>
      </trkpt>
      <trkpt lat="48.7903" lon="6.49495">
        <ele>201</ele>
        <time>2021-07-30T10:58:43Z</time>
      </trkpt>
      <trkpt lat="48.79042" lon="6.49506">
        <ele>201.1</ele>
        <time>2021-07-30T10:58:45Z</time>
      </trkpt>
      <trkpt lat="48.79052" lon="6.49517">
        <ele>201.1</ele>
        <time>2021-07-30T10:58:47Z</time>
      </trkpt>
      <trkpt lat="48.7906" lon="6.4953">
        <ele>201.1</ele>
        <time>2021-07-30T10:58:49Z</time>
      </trkpt>
      <trkpt lat="48.79067" lon="6.49545">
        <ele>201.1</ele>
        <time>2021-07-30T10:58:51Z</time>
      </trkpt>
      <trkpt lat="48.7907" lon="6.49553">
        <ele>201.1</ele>
        <time>2021-07-30T10:58:52Z</time>
      </trkpt>
      <trkpt lat="48.79076" lon="6.49567">
        <ele>201.1</ele>
        <time>2021-07-30T10:58:54Z</time>
      </trkpt>
      <trkpt lat="48.79076" lon="6.49583">
        <ele>201.1</ele>
        <time>2021-07-30T10:58:56Z</time>
      </trkpt>
      <trkpt lat="48.79076" lon="6.49593">
        <ele>201.2</ele>
        <time>2021-07-30T10:58:57Z</time>
      </trkpt>
      <trkpt lat="48.79077" lon="6.49608">
        <ele>201.1</ele>
        <time>2021-07-30T10:58:59Z</time>
      </trkpt>
      <trkpt lat="48.79076" lon="6.49614">
        <ele>201.1</ele>
        <time>2021-07-30T10:59:00Z</time>
      </trkpt>
      <trkpt lat="48.79076" lon="6.4962">
        <ele>201.1</ele>
        <time>2021-07-30T10:59:01Z</time>
      </trkpt>
      <trkpt lat="48.79076" lon="6.49627">
        <ele>201.1</ele>
        <time>2021-07-30T10:59:03Z</time>
      </trkpt>
      <trkpt lat="48.79077" lon="6.49632">
        <ele>201.1</ele>
        <time>2021-07-30T10:59:05Z</time>
      </trkpt>
      <trkpt lat="48.79078" lon="6.49634">
        <ele>201.1</ele>
        <time>2021-07-30T10:59:06Z</time>
      </trkpt>
      <trkpt lat="48.79079" lon="6.49634">
        <ele>201.1</ele>
        <time>2021-07-30T10:59:07Z</time>
      </trkpt>
      <trkpt lat="48.79082" lon="6.49631">
        <ele>201</ele>
        <time>2021-07-30T10:59:09Z</time>
      </trkpt>
      <trkpt lat="48.79084" lon="6.49629">
        <ele>201</ele>
        <time>2021-07-30T10:59:11Z</time>
      </trkpt>
      <trkpt lat="48.79084" lon="6.49629">
        <ele>201</ele>
        <time>2021-07-30T10:59:12Z</time>
      </trkpt>
      <trkpt lat="48.79084" lon="6.49628">
        <ele>201</ele>
        <time>2021-07-30T10:59:13Z</time>
      </trkpt>
      <trkpt lat="48.79083" lon="6.49628">
        <ele>201</ele>
        <time>2021-07-30T10:59:14Z</time>
      </trkpt>
      <trkpt lat="48.79083" lon="6.49627">
        <ele>201</ele>
        <time>2021-07-30T10:59:16Z</time>
      </trkpt>
      <trkpt lat="48.79082" lon="6.49626">
        <ele>201</ele>
        <time>2021-07-30T10:59:17Z</time>
      </trkpt>
      <trkpt lat="48.79081" lon="6.49626">
        <ele>201</ele>
        <time>2021-07-30T10:59:19Z</time>
      </trkpt>
      <trkpt lat="48.79081" lon="6.49626">
        <ele>201</ele>
        <time>2021-07-30T10:59:21Z</time>
      </trkpt>
      <trkpt lat="48.79096" lon="6.49616">
        <ele>200.9</ele>
        <time>2021-07-30T11:00:36Z</time>
      </trkpt>
      <trkpt lat="48.79093" lon="6.49614">
        <ele>200.9</ele>
        <time>2021-07-30T11:00:37Z</time>
      </trkpt>
      <trkpt lat="48.79092" lon="6.49614">
        <ele>200.9</ele>
        <time>2021-07-30T11:00:38Z</time>
      </trkpt>
      <trkpt lat="48.79087" lon="6.49614">
        <ele>200.8</ele>
        <time>2021-07-30T11:00:40Z</time>
      </trkpt>
      <trkpt lat="48.79086" lon="6.49613">
        <ele>200.8</ele>
        <time>2021-07-30T11:00:41Z</time>
      </trkpt>
      <trkpt lat="48.79084" lon="6.49613">
        <ele>200.8</ele>
        <time>2021-07-30T11:00:42Z</time>
      </trkpt>
      <trkpt lat="48.79083" lon="6.49613">
        <ele>200.8</ele>
        <time>2021-07-30T11:00:43Z</time>
      </trkpt>
      <trkpt lat="48.79079" lon="6.49612">
        <ele>200.8</ele>
        <time>2021-07-30T11:00:45Z</time>
      </trkpt>
      <trkpt lat="48.79077" lon="6.49612">
        <ele>200.8</ele>
        <time>2021-07-30T11:00:47Z</time>
      </trkpt>
      <trkpt lat="48.79075" lon="6.49613">
        <ele>200.8</ele>
        <time>2021-07-30T11:00:49Z</time>
      </trkpt>
      <trkpt lat="48.79077" lon="6.49615">
        <ele>200.7</ele>
        <time>2021-07-30T11:00:51Z</time>
      </trkpt>
      <trkpt lat="48.79078" lon="6.49616">
        <ele>200.7</ele>
        <time>2021-07-30T11:00:53Z</time>
      </trkpt>
      <trkpt lat="48.79079" lon="6.49616">
        <ele>200.7</ele>
        <time>2021-07-30T11:00:54Z</time>
      </trkpt>
      <trkpt lat="48.79089" lon="6.49623">
        <ele>200.7</ele>
        <time>2021-07-30T11:00:56Z</time>
      </trkpt>
      <trkpt lat="48.79102" lon="6.49631">
        <ele>200.6</ele>
        <time>2021-07-30T11:00:58Z</time>
      </trkpt>
      <trkpt lat="48.79102" lon="6.49632">
        <ele>200.6</ele>
        <time>2021-07-30T11:00:59Z</time>
      </trkpt>
      <trkpt lat="48.79101" lon="6.49632">
        <ele>200.6</ele>
        <time>2021-07-30T11:01:01Z</time>
      </trkpt>
      <trkpt lat="48.79101" lon="6.49632">
        <ele>200.6</ele>
        <time>2021-07-30T11:01:03Z</time>
      </trkpt>
      <trkpt lat="48.791" lon="6.49632">
        <ele>200.6</ele>
        <time>2021-07-30T11:01:04Z</time>
      </trkpt>
      <trkpt lat="48.791" lon="6.49632">
        <ele>200.6</ele>
        <time>2021-07-30T11:01:06Z</time>
      </trkpt>
      <trkpt lat="48.79099" lon="6.49632">
        <ele>200.6</ele>
        <time>2021-07-30T11:01:07Z</time>
      </trkpt>
      <trkpt lat="48.79098" lon="6.49632">
        <ele>200.6</ele>
        <time>2021-07-30T11:01:09Z</time>
      </trkpt>
      <trkpt lat="48.79097" lon="6.49632">
        <ele>200.6</ele>
        <time>2021-07-30T11:01:10Z</time>
      </trkpt>
      <trkpt lat="48.79095" lon="6.49632">
        <ele>200.6</ele>
        <time>2021-07-30T11:01:12Z</time>
      </trkpt>
      <trkpt lat="48.79095" lon="6.49632">
        <ele>200.6</ele>
        <time>2021-07-30T11:01:13Z</time>
      </trkpt>
      <trkpt lat="48.79093" lon="6.49632">
        <ele>200.6</ele>
        <time>2021-07-30T11:01:15Z</time>
      </trkpt>
      <trkpt lat="48.79093" lon="6.49632">
        <ele>200.6</ele>
        <time>2021-07-30T11:01:16Z</time>
      </trkpt>
      <trkpt lat="48.79092" lon="6.49633">
        <ele>200.6</ele>
        <time>2021-07-30T11:01:17Z</time>
      </trkpt>
      <trkpt lat="48.79091" lon="6.49634">
        <ele>200.6</ele>
        <time>2021-07-30T11:01:19Z</time>
      </trkpt>
      <trkpt lat="48.79091" lon="6.49635">
        <ele>200.6</ele>
        <time>2021-07-30T11:01:20Z</time>
      </trkpt>
      <trkpt lat="48.79091" lon="6.49636">
        <ele>200.6</ele>
        <time>2021-07-30T11:01:21Z</time>
      </trkpt>
      <trkpt lat="48.79091" lon="6.49637">
        <ele>200.6</ele>
        <time>2021-07-30T11:01:23Z</time>
      </trkpt>
      <trkpt lat="48.7909" lon="6.49637">
        <ele>200.6</ele>
        <time>2021-07-30T11:01:24Z</time>
      </trkpt>
      <trkpt lat="48.7909" lon="6.49638">
        <ele>200.6</ele>
        <time>2021-07-30T11:01:25Z</time>
      </trkpt>
      <trkpt lat="48.7909" lon="6.49639">
        <ele>200.6</ele>
        <time>2021-07-30T11:01:27Z</time>
      </trkpt>
      <trkpt lat="48.7909" lon="6.4964">
        <ele>200.6</ele>
        <time>2021-07-30T11:01:29Z</time>
      </trkpt>
      <trkpt lat="48.7909" lon="6.49641">
        <ele>200.6</ele>
        <time>2021-07-30T11:01:30Z</time>
      </trkpt>
      <trkpt lat="48.79089" lon="6.49642">
        <ele>200.6</ele>
        <time>2021-07-30T11:01:31Z</time>
      </trkpt>
      <trkpt lat="48.79089" lon="6.49643">
        <ele>200.6</ele>
        <time>2021-07-30T11:01:32Z</time>
      </trkpt>
      <trkpt lat="48.7909" lon="6.49652">
        <ele>200.5</ele>
        <time>2021-07-30T11:01:33Z</time>
      </trkpt>
      <trkpt lat="48.79091" lon="6.49662">
        <ele>200.5</ele>
        <time>2021-07-30T11:01:35Z</time>
      </trkpt>
      <trkpt lat="48.79094" lon="6.49672">
        <ele>200.5</ele>
        <time>2021-07-30T11:01:36Z</time>
      </trkpt>
      <trkpt lat="48.79098" lon="6.49682">
        <ele>200.6</ele>
        <time>2021-07-30T11:01:38Z</time>
      </trkpt>
      <trkpt lat="48.791" lon="6.49688">
        <ele>200.6</ele>
        <time>2021-07-30T11:01:39Z</time>
      </trkpt>
      <trkpt lat="48.79103" lon="6.49694">
        <ele>200.6</ele>
        <time>2021-07-30T11:01:40Z</time>
      </trkpt>
      <trkpt lat="48.79105" lon="6.49698">
        <ele>200.7</ele>
        <time>2021-07-30T11:01:41Z</time>
      </trkpt>
      <trkpt lat="48.79107" lon="6.49703">
        <ele>200.7</ele>
        <time>2021-07-30T11:01:42Z</time>
      </trkpt>
      <trkpt lat="48.7911" lon="6.49707">
        <ele>200.7</ele>
        <time>2021-07-30T11:01:43Z</time>
      </trkpt>
      <trkpt lat="48.79113" lon="6.49713">
        <ele>200.8</ele>
        <time>2021-07-30T11:01:44Z</time>
      </trkpt>
      <trkpt lat="48.79115" lon="6.49717">
        <ele>200.8</ele>
        <time>2021-07-30T11:01:45Z</time>
      </trkpt>
      <trkpt lat="48.79119" lon="6.49721">
        <ele>200.9</ele>
        <time>2021-07-30T11:01:47Z</time>
      </trkpt>
      <trkpt lat="48.79123" lon="6.49724">
        <ele>200.9</ele>
        <time>2021-07-30T11:01:49Z</time>
      </trkpt>
      <trkpt lat="48.79129" lon="6.49728">
        <ele>201.1</ele>
        <time>2021-07-30T11:01:51Z</time>
      </trkpt>
      <trkpt lat="48.79131" lon="6.49732">
        <ele>201.1</ele>
        <time>2021-07-30T11:01:52Z</time>
      </trkpt>
      <trkpt lat="48.79133" lon="6.49743">
        <ele>201.1</ele>
        <time>2021-07-30T11:01:54Z</time>
      </trkpt>
      <trkpt lat="48.79134" lon="6.49748">
        <ele>201.1</ele>
        <time>2021-07-30T11:01:55Z</time>
      </trkpt>
      <trkpt lat="48.79138" lon="6.49754">
        <ele>201.1</ele>
        <time>2021-07-30T11:01:57Z</time>
      </trkpt>
      <trkpt lat="48.79142" lon="6.49758">
        <ele>201</ele>
        <time>2021-07-30T11:01:58Z</time>
      </trkpt>
      <trkpt lat="48.79145" lon="6.49762">
        <ele>200.9</ele>
        <time>2021-07-30T11:02:00Z</time>
      </trkpt>
      <trkpt lat="48.79149" lon="6.49765">
        <ele>200.8</ele>
        <time>2021-07-30T11:02:01Z</time>
      </trkpt>
      <trkpt lat="48.79155" lon="6.49768">
        <ele>200.7</ele>
        <time>2021-07-30T11:02:02Z</time>
      </trkpt>
      <trkpt lat="48.79159" lon="6.4977">
        <ele>200.6</ele>
        <time>2021-07-30T11:02:03Z</time>
      </trkpt>
      <trkpt lat="48.79164" lon="6.49772">
        <ele>200.6</ele>
        <time>2021-07-30T11:02:05Z</time>
      </trkpt>
      <trkpt lat="48.79171" lon="6.49776">
        <ele>200.5</ele>
        <time>2021-07-30T11:02:07Z</time>
      </trkpt>
      <trkpt lat="48.79178" lon="6.49778">
        <ele>200.4</ele>
        <time>2021-07-30T11:02:09Z</time>
      </trkpt>
      <trkpt lat="48.79183" lon="6.49779">
        <ele>200.4</ele>
        <time>2021-07-30T11:02:10Z</time>
      </trkpt>
      <trkpt lat="48.79189" lon="6.4978">
        <ele>200.4</ele>
        <time>2021-07-30T11:02:11Z</time>
      </trkpt>
      <trkpt lat="48.79199" lon="6.49785">
        <ele>200.4</ele>
        <time>2021-07-30T11:02:13Z</time>
      </trkpt>
      <trkpt lat="48.79209" lon="6.4979">
        <ele>200.5</ele>
        <time>2021-07-30T11:02:15Z</time>
      </trkpt>
      <trkpt lat="48.79213" lon="6.49793">
        <ele>200.5</ele>
        <time>2021-07-30T11:02:16Z</time>
      </trkpt>
      <trkpt lat="48.79215" lon="6.49799">
        <ele>200.5</ele>
        <time>2021-07-30T11:02:17Z</time>
      </trkpt>
      <trkpt lat="48.7922" lon="6.49803">
        <ele>200.6</ele>
        <time>2021-07-30T11:02:18Z</time>
      </trkpt>
      <trkpt lat="48.79226" lon="6.49806">
        <ele>200.6</ele>
        <time>2021-07-30T11:02:20Z</time>
      </trkpt>
      <trkpt lat="48.79231" lon="6.49808">
        <ele>200.7</ele>
        <time>2021-07-30T11:02:21Z</time>
      </trkpt>
      <trkpt lat="48.79237" lon="6.49813">
        <ele>200.8</ele>
        <time>2021-07-30T11:02:22Z</time>
      </trkpt>
      <trkpt lat="48.79241" lon="6.49824">
        <ele>200.9</ele>
        <time>2021-07-30T11:02:24Z</time>
      </trkpt>
      <trkpt lat="48.79243" lon="6.4983">
        <ele>201</ele>
        <time>2021-07-30T11:02:25Z</time>
      </trkpt>
      <trkpt lat="48.79247" lon="6.49843">
        <ele>201.1</ele>
        <time>2021-07-30T11:02:27Z</time>
      </trkpt>
      <trkpt lat="48.79252" lon="6.49852">
        <ele>201.2</ele>
        <time>2021-07-30T11:02:29Z</time>
      </trkpt>
      <trkpt lat="48.79256" lon="6.49862">
        <ele>201.2</ele>
        <time>2021-07-30T11:02:31Z</time>
      </trkpt>
      <trkpt lat="48.79258" lon="6.49867">
        <ele>201.3</ele>
        <time>2021-07-30T11:02:32Z</time>
      </trkpt>
      <trkpt lat="48.79264" lon="6.49872">
        <ele>201.3</ele>
        <time>2021-07-30T11:02:33Z</time>
      </trkpt>
      <trkpt lat="48.79267" lon="6.49875">
        <ele>201.3</ele>
        <time>2021-07-30T11:02:35Z</time>
      </trkpt>
      <trkpt lat="48.79269" lon="6.49882">
        <ele>201.3</ele>
        <time>2021-07-30T11:02:36Z</time>
      </trkpt>
      <trkpt lat="48.79271" lon="6.49886">
        <ele>201.3</ele>
        <time>2021-07-30T11:02:37Z</time>
      </trkpt>
      <trkpt lat="48.79274" lon="6.49894">
        <ele>201.2</ele>
        <time>2021-07-30T11:02:40Z</time>
      </trkpt>
      <trkpt lat="48.79275" lon="6.49898">
        <ele>201.2</ele>
        <time>2021-07-30T11:02:41Z</time>
      </trkpt>
      <trkpt lat="48.79277" lon="6.49902">
        <ele>201.2</ele>
        <time>2021-07-30T11:02:42Z</time>
      </trkpt>
      <trkpt lat="48.79282" lon="6.4991">
        <ele>201.1</ele>
        <time>2021-07-30T11:02:44Z</time>
      </trkpt>
      <trkpt lat="48.79283" lon="6.49914">
        <ele>201</ele>
        <time>2021-07-30T11:02:45Z</time>
      </trkpt>
      <trkpt lat="48.79285" lon="6.4992">
        <ele>201</ele>
        <time>2021-07-30T11:02:46Z</time>
      </trkpt>
      <trkpt lat="48.79288" lon="6.49924">
        <ele>200.9</ele>
        <time>2021-07-30T11:02:47Z</time>
      </trkpt>
      <trkpt lat="48.79289" lon="6.49929">
        <ele>200.9</ele>
        <time>2021-07-30T11:02:48Z</time>
      </trkpt>
      <trkpt lat="48.79291" lon="6.49934">
        <ele>200.9</ele>
        <time>2021-07-30T11:02:49Z</time>
      </trkpt>
      <trkpt lat="48.79293" lon="6.4994">
        <ele>200.9</ele>
        <time>2021-07-30T11:02:50Z</time>
      </trkpt>
      <trkpt lat="48.79297" lon="6.4995">
        <ele>201</ele>
        <time>2021-07-30T11:02:52Z</time>
      </trkpt>
      <trkpt lat="48.79301" lon="6.4996">
        <ele>201</ele>
        <time>2021-07-30T11:02:53Z</time>
      </trkpt>
      <trkpt lat="48.79303" lon="6.49966">
        <ele>201.1</ele>
        <time>2021-07-30T11:02:54Z</time>
      </trkpt>
      <trkpt lat="48.79304" lon="6.49972">
        <ele>201.2</ele>
        <time>2021-07-30T11:02:56Z</time>
      </trkpt>
      <trkpt lat="48.79304" lon="6.49977">
        <ele>201.2</ele>
        <time>2021-07-30T11:02:57Z</time>
      </trkpt>
      <trkpt lat="48.79306" lon="6.49985">
        <ele>201.3</ele>
        <time>2021-07-30T11:02:58Z</time>
      </trkpt>
      <trkpt lat="48.79308" lon="6.4999">
        <ele>201.4</ele>
        <time>2021-07-30T11:02:59Z</time>
      </trkpt>
      <trkpt lat="48.7931" lon="6.49996">
        <ele>201.5</ele>
        <time>2021-07-30T11:03:00Z</time>
      </trkpt>
      <trkpt lat="48.79311" lon="6.49999">
        <ele>201.5</ele>
        <time>2021-07-30T11:03:02Z</time>
      </trkpt>
      <trkpt lat="48.79313" lon="6.50006">
        <ele>201.6</ele>
        <time>2021-07-30T11:03:03Z</time>
      </trkpt>
      <trkpt lat="48.79315" lon="6.50011">
        <ele>201.7</ele>
        <time>2021-07-30T11:03:05Z</time>
      </trkpt>
      <trkpt lat="48.79316" lon="6.50013">
        <ele>201.7</ele>
        <time>2021-07-30T11:03:06Z</time>
      </trkpt>
      <trkpt lat="48.79317" lon="6.50015">
        <ele>201.8</ele>
        <time>2021-07-30T11:03:07Z</time>
      </trkpt>
      <trkpt lat="48.79319" lon="6.50018">
        <ele>201.9</ele>
        <time>2021-07-30T11:03:09Z</time>
      </trkpt>
      <trkpt lat="48.79322" lon="6.5002">
        <ele>202</ele>
        <time>2021-07-30T11:03:10Z</time>
      </trkpt>
      <trkpt lat="48.79324" lon="6.50022">
        <ele>202.1</ele>
        <time>2021-07-30T11:03:11Z</time>
      </trkpt>
      <trkpt lat="48.79327" lon="6.50024">
        <ele>202.2</ele>
        <time>2021-07-30T11:03:13Z</time>
      </trkpt>
      <trkpt lat="48.7933" lon="6.50029">
        <ele>202.3</ele>
        <time>2021-07-30T11:03:14Z</time>
      </trkpt>
      <trkpt lat="48.79332" lon="6.50034">
        <ele>202.4</ele>
        <time>2021-07-30T11:03:15Z</time>
      </trkpt>
      <trkpt lat="48.79333" lon="6.50038">
        <ele>202.6</ele>
        <time>2021-07-30T11:03:16Z</time>
      </trkpt>
      <trkpt lat="48.79334" lon="6.50044">
        <ele>202.8</ele>
        <time>2021-07-30T11:03:18Z</time>
      </trkpt>
      <trkpt lat="48.79334" lon="6.50046">
        <ele>202.8</ele>
        <time>2021-07-30T11:03:19Z</time>
      </trkpt>
      <trkpt lat="48.79336" lon="6.5005">
        <ele>203</ele>
        <time>2021-07-30T11:03:21Z</time>
      </trkpt>
      <trkpt lat="48.79338" lon="6.50053">
        <ele>203.1</ele>
        <time>2021-07-30T11:03:22Z</time>
      </trkpt>
      <trkpt lat="48.79338" lon="6.50054">
        <ele>203.2</ele>
        <time>2021-07-30T11:03:24Z</time>
      </trkpt>
      <trkpt lat="48.79332" lon="6.50057">
        <ele>203.6</ele>
        <time>2021-07-30T11:03:26Z</time>
      </trkpt>
      <trkpt lat="48.79329" lon="6.50062">
        <ele>203.9</ele>
        <time>2021-07-30T11:03:28Z</time>
      </trkpt>
      <trkpt lat="48.79325" lon="6.50065">
        <ele>204.2</ele>
        <time>2021-07-30T11:03:30Z</time>
      </trkpt>
      <trkpt lat="48.79323" lon="6.5007">
        <ele>204.5</ele>
        <time>2021-07-30T11:03:32Z</time>
      </trkpt>
      <trkpt lat="48.79323" lon="6.50071">
        <ele>204.5</ele>
        <time>2021-07-30T11:03:33Z</time>
      </trkpt>
      <trkpt lat="48.79322" lon="6.50072">
        <ele>204.6</ele>
        <time>2021-07-30T11:03:34Z</time>
      </trkpt>
      <trkpt lat="48.79322" lon="6.50073">
        <ele>204.7</ele>
        <time>2021-07-30T11:03:35Z</time>
      </trkpt>
      <trkpt lat="48.79322" lon="6.50074">
        <ele>204.7</ele>
        <time>2021-07-30T11:03:37Z</time>
      </trkpt>
      <trkpt lat="48.79321" lon="6.50075">
        <ele>204.8</ele>
        <time>2021-07-30T11:03:38Z</time>
      </trkpt>
      <trkpt lat="48.79321" lon="6.50077">
        <ele>204.9</ele>
        <time>2021-07-30T11:03:39Z</time>
      </trkpt>
      <trkpt lat="48.79321" lon="6.50078">
        <ele>204.9</ele>
        <time>2021-07-30T11:03:40Z</time>
      </trkpt>
      <trkpt lat="48.79315" lon="6.50086">
        <ele>205.5</ele>
        <time>2021-07-30T11:03:41Z</time>
      </trkpt>
      <trkpt lat="48.79311" lon="6.50092">
        <ele>206</ele>
        <time>2021-07-30T11:03:43Z</time>
      </trkpt>
      <trkpt lat="48.79309" lon="6.50096">
        <ele>206.2</ele>
        <time>2021-07-30T11:03:44Z</time>
      </trkpt>
      <trkpt lat="48.79307" lon="6.50103">
        <ele>206.6</ele>
        <time>2021-07-30T11:03:46Z</time>
      </trkpt>
      <trkpt lat="48.79302" lon="6.50112">
        <ele>207.1</ele>
        <time>2021-07-30T11:03:47Z</time>
      </trkpt>
      <trkpt lat="48.79301" lon="6.50115">
        <ele>207.3</ele>
        <time>2021-07-30T11:03:49Z</time>
      </trkpt>
      <trkpt lat="48.79301" lon="6.50121">
        <ele>207.6</ele>
        <time>2021-07-30T11:03:51Z</time>
      </trkpt>
      <trkpt lat="48.79302" lon="6.50123">
        <ele>207.7</ele>
        <time>2021-07-30T11:03:52Z</time>
      </trkpt>
      <trkpt lat="48.79303" lon="6.50125">
        <ele>207.8</ele>
        <time>2021-07-30T11:03:53Z</time>
      </trkpt>
      <trkpt lat="48.79304" lon="6.50125">
        <ele>207.8</ele>
        <time>2021-07-30T11:03:54Z</time>
      </trkpt>
      <trkpt lat="48.79305" lon="6.50125">
        <ele>207.8</ele>
        <time>2021-07-30T11:03:55Z</time>
      </trkpt>
      <trkpt lat="48.79306" lon="6.50126">
        <ele>207.9</ele>
        <time>2021-07-30T11:03:56Z</time>
      </trkpt>
      <trkpt lat="48.79306" lon="6.50128">
        <ele>208</ele>
        <time>2021-07-30T11:03:57Z</time>
      </trkpt>
      <trkpt lat="48.79307" lon="6.5013">
        <ele>208.1</ele>
        <time>2021-07-30T11:03:58Z</time>
      </trkpt>
      <trkpt lat="48.79308" lon="6.50131">
        <ele>208.2</ele>
        <time>2021-07-30T11:03:59Z</time>
      </trkpt>
      <trkpt lat="48.79309" lon="6.50131">
        <ele>208.2</ele>
        <time>2021-07-30T11:04:00Z</time>
      </trkpt>
      <trkpt lat="48.79312" lon="6.50134">
        <ele>208.4</ele>
        <time>2021-07-30T11:04:02Z</time>
      </trkpt>
      <trkpt lat="48.79313" lon="6.50135">
        <ele>208.5</ele>
        <time>2021-07-30T11:04:03Z</time>
      </trkpt>
      <trkpt lat="48.79315" lon="6.50138">
        <ele>208.6</ele>
        <time>2021-07-30T11:04:04Z</time>
      </trkpt>
      <trkpt lat="48.79319" lon="6.50141">
        <ele>208.9</ele>
        <time>2021-07-30T11:04:06Z</time>
      </trkpt>
      <trkpt lat="48.79321" lon="6.50142">
        <ele>208.9</ele>
        <time>2021-07-30T11:04:07Z</time>
      </trkpt>
      <trkpt lat="48.79326" lon="6.50147">
        <ele>209.2</ele>
        <time>2021-07-30T11:04:09Z</time>
      </trkpt>
      <trkpt lat="48.7933" lon="6.50148">
        <ele>209.3</ele>
        <time>2021-07-30T11:04:10Z</time>
      </trkpt>
      <trkpt lat="48.79332" lon="6.50151">
        <ele>209.4</ele>
        <time>2021-07-30T11:04:12Z</time>
      </trkpt>
      <trkpt lat="48.79334" lon="6.50155">
        <ele>209.5</ele>
        <time>2021-07-30T11:04:13Z</time>
      </trkpt>
      <trkpt lat="48.79335" lon="6.50157">
        <ele>209.6</ele>
        <time>2021-07-30T11:04:14Z</time>
      </trkpt>
      <trkpt lat="48.79336" lon="6.50159">
        <ele>209.6</ele>
        <time>2021-07-30T11:04:16Z</time>
      </trkpt>
      <trkpt lat="48.79338" lon="6.50162">
        <ele>209.7</ele>
        <time>2021-07-30T11:04:18Z</time>
      </trkpt>
      <trkpt lat="48.7934" lon="6.50164">
        <ele>209.8</ele>
        <time>2021-07-30T11:04:19Z</time>
      </trkpt>
      <trkpt lat="48.79342" lon="6.50168">
        <ele>209.9</ele>
        <time>2021-07-30T11:04:21Z</time>
      </trkpt>
      <trkpt lat="48.79345" lon="6.50172">
        <ele>210.1</ele>
        <time>2021-07-30T11:04:23Z</time>
      </trkpt>
      <trkpt lat="48.79346" lon="6.50176">
        <ele>210.1</ele>
        <time>2021-07-30T11:04:24Z</time>
      </trkpt>
      <trkpt lat="48.79347" lon="6.50178">
        <ele>210.2</ele>
        <time>2021-07-30T11:04:26Z</time>
      </trkpt>
      <trkpt lat="48.79347" lon="6.5018">
        <ele>210.3</ele>
        <time>2021-07-30T11:04:27Z</time>
      </trkpt>
      <trkpt lat="48.79347" lon="6.50187">
        <ele>210.4</ele>
        <time>2021-07-30T11:04:29Z</time>
      </trkpt>
      <trkpt lat="48.79347" lon="6.50194">
        <ele>210.5</ele>
        <time>2021-07-30T11:04:30Z</time>
      </trkpt>
      <trkpt lat="48.79348" lon="6.50196">
        <ele>210.6</ele>
        <time>2021-07-30T11:04:31Z</time>
      </trkpt>
      <trkpt lat="48.79348" lon="6.50202">
        <ele>210.7</ele>
        <time>2021-07-30T11:04:32Z</time>
      </trkpt>
      <trkpt lat="48.7935" lon="6.50209">
        <ele>210.8</ele>
        <time>2021-07-30T11:04:34Z</time>
      </trkpt>
      <trkpt lat="48.79351" lon="6.50213">
        <ele>210.9</ele>
        <time>2021-07-30T11:04:35Z</time>
      </trkpt>
      <trkpt lat="48.79352" lon="6.50219">
        <ele>211.1</ele>
        <time>2021-07-30T11:04:37Z</time>
      </trkpt>
      <trkpt lat="48.79353" lon="6.50221">
        <ele>211.1</ele>
        <time>2021-07-30T11:04:38Z</time>
      </trkpt>
      <trkpt lat="48.79353" lon="6.50226">
        <ele>211.2</ele>
        <time>2021-07-30T11:04:40Z</time>
      </trkpt>
      <trkpt lat="48.79352" lon="6.50227">
        <ele>211.2</ele>
        <time>2021-07-30T11:04:41Z</time>
      </trkpt>
      <trkpt lat="48.79351" lon="6.50231">
        <ele>211.3</ele>
        <time>2021-07-30T11:04:42Z</time>
      </trkpt>
      <trkpt lat="48.79349" lon="6.50233">
        <ele>211.4</ele>
        <time>2021-07-30T11:04:44Z</time>
      </trkpt>
      <trkpt lat="48.79349" lon="6.50237">
        <ele>211.4</ele>
        <time>2021-07-30T11:04:45Z</time>
      </trkpt>
      <trkpt lat="48.79349" lon="6.50238">
        <ele>211.5</ele>
        <time>2021-07-30T11:04:46Z</time>
      </trkpt>
      <trkpt lat="48.79348" lon="6.5024">
        <ele>211.5</ele>
        <time>2021-07-30T11:04:47Z</time>
      </trkpt>
      <trkpt lat="48.79347" lon="6.50243">
        <ele>211.5</ele>
        <time>2021-07-30T11:04:49Z</time>
      </trkpt>
      <trkpt lat="48.79346" lon="6.50245">
        <ele>211.6</ele>
        <time>2021-07-30T11:04:50Z</time>
      </trkpt>
      <trkpt lat="48.79345" lon="6.50247">
        <ele>211.6</ele>
        <time>2021-07-30T11:04:52Z</time>
      </trkpt>
      <trkpt lat="48.79344" lon="6.50248">
        <ele>211.7</ele>
        <time>2021-07-30T11:04:53Z</time>
      </trkpt>
      <trkpt lat="48.79346" lon="6.50251">
        <ele>211.7</ele>
        <time>2021-07-30T11:04:54Z</time>
      </trkpt>
      <trkpt lat="48.79347" lon="6.50254">
        <ele>211.8</ele>
        <time>2021-07-30T11:04:56Z</time>
      </trkpt>
      <trkpt lat="48.79347" lon="6.50254">
        <ele>211.8</ele>
        <time>2021-07-30T11:04:57Z</time>
      </trkpt>
      <trkpt lat="48.79347" lon="6.50255">
        <ele>211.8</ele>
        <time>2021-07-30T11:04:58Z</time>
      </trkpt>
      <trkpt lat="48.79347" lon="6.50255">
        <ele>211.8</ele>
        <time>2021-07-30T11:04:59Z</time>
      </trkpt>
      <trkpt lat="48.79348" lon="6.50256">
        <ele>211.8</ele>
        <time>2021-07-30T11:05:00Z</time>
      </trkpt>
      <trkpt lat="48.79348" lon="6.50259">
        <ele>211.9</ele>
        <time>2021-07-30T11:05:02Z</time>
      </trkpt>
      <trkpt lat="48.79349" lon="6.50263">
        <ele>211.9</ele>
        <time>2021-07-30T11:05:04Z</time>
      </trkpt>
      <trkpt lat="48.7935" lon="6.50265">
        <ele>212</ele>
        <time>2021-07-30T11:05:05Z</time>
      </trkpt>
      <trkpt lat="48.79351" lon="6.5027">
        <ele>212.1</ele>
        <time>2021-07-30T11:05:07Z</time>
      </trkpt>
      <trkpt lat="48.79351" lon="6.50272">
        <ele>212.1</ele>
        <time>2021-07-30T11:05:08Z</time>
      </trkpt>
      <trkpt lat="48.79352" lon="6.50276">
        <ele>212.2</ele>
        <time>2021-07-30T11:05:10Z</time>
      </trkpt>
      <trkpt lat="48.79354" lon="6.50281">
        <ele>212.4</ele>
        <time>2021-07-30T11:05:11Z</time>
      </trkpt>
      <trkpt lat="48.79356" lon="6.50283">
        <ele>212.5</ele>
        <time>2021-07-30T11:05:12Z</time>
      </trkpt>
      <trkpt lat="48.79357" lon="6.50285">
        <ele>212.5</ele>
        <time>2021-07-30T11:05:14Z</time>
      </trkpt>
      <trkpt lat="48.79358" lon="6.50287">
        <ele>212.6</ele>
        <time>2021-07-30T11:05:15Z</time>
      </trkpt>
      <trkpt lat="48.79359" lon="6.50289">
        <ele>212.5</ele>
        <time>2021-07-30T11:05:16Z</time>
      </trkpt>
      <trkpt lat="48.79359" lon="6.50291">
        <ele>212.4</ele>
        <time>2021-07-30T11:05:17Z</time>
      </trkpt>
      <trkpt lat="48.79358" lon="6.50293">
        <ele>212.3</ele>
        <time>2021-07-30T11:05:18Z</time>
      </trkpt>
      <trkpt lat="48.79358" lon="6.50299">
        <ele>212.3</ele>
        <time>2021-07-30T11:05:20Z</time>
      </trkpt>
      <trkpt lat="48.79359" lon="6.50304">
        <ele>212.3</ele>
        <time>2021-07-30T11:05:21Z</time>
      </trkpt>
      <trkpt lat="48.79359" lon="6.50306">
        <ele>212.3</ele>
        <time>2021-07-30T11:05:22Z</time>
      </trkpt>
      <trkpt lat="48.79359" lon="6.50312">
        <ele>212.5</ele>
        <time>2021-07-30T11:05:23Z</time>
      </trkpt>
      <trkpt lat="48.79359" lon="6.50313">
        <ele>212.6</ele>
        <time>2021-07-30T11:05:24Z</time>
      </trkpt>
      <trkpt lat="48.79359" lon="6.50318">
        <ele>212.8</ele>
        <time>2021-07-30T11:05:26Z</time>
      </trkpt>
      <trkpt lat="48.79359" lon="6.5032">
        <ele>212.9</ele>
        <time>2021-07-30T11:05:27Z</time>
      </trkpt>
      <trkpt lat="48.7936" lon="6.50323">
        <ele>213.1</ele>
        <time>2021-07-30T11:05:29Z</time>
      </trkpt>
      <trkpt lat="48.79362" lon="6.50323">
        <ele>213.2</ele>
        <time>2021-07-30T11:05:30Z</time>
      </trkpt>
      <trkpt lat="48.79363" lon="6.50323">
        <ele>213.4</ele>
        <time>2021-07-30T11:05:31Z</time>
      </trkpt>
      <trkpt lat="48.79364" lon="6.50325">
        <ele>213.5</ele>
        <time>2021-07-30T11:05:32Z</time>
      </trkpt>
      <trkpt lat="48.79365" lon="6.50326">
        <ele>213.6</ele>
        <time>2021-07-30T11:05:33Z</time>
      </trkpt>
      <trkpt lat="48.79365" lon="6.50327">
        <ele>213.6</ele>
        <time>2021-07-30T11:05:34Z</time>
      </trkpt>
      <trkpt lat="48.79365" lon="6.50327">
        <ele>213.6</ele>
        <time>2021-07-30T11:05:35Z</time>
      </trkpt>
      <trkpt lat="48.79364" lon="6.50329">
        <ele>213.7</ele>
        <time>2021-07-30T11:05:36Z</time>
      </trkpt>
      <trkpt lat="48.79364" lon="6.5033">
        <ele>213.8</ele>
        <time>2021-07-30T11:05:38Z</time>
      </trkpt>
      <trkpt lat="48.79364" lon="6.50331">
        <ele>213.8</ele>
        <time>2021-07-30T11:05:39Z</time>
      </trkpt>
      <trkpt lat="48.79364" lon="6.50332">
        <ele>213.9</ele>
        <time>2021-07-30T11:05:40Z</time>
      </trkpt>
      <trkpt lat="48.79364" lon="6.50333">
        <ele>213.9</ele>
        <time>2021-07-30T11:05:41Z</time>
      </trkpt>
      <trkpt lat="48.79363" lon="6.50334">
        <ele>214.1</ele>
        <time>2021-07-30T11:05:42Z</time>
      </trkpt>
      <trkpt lat="48.79369" lon="6.50389">
        <ele>218</ele>
        <time>2021-07-30T11:06:10Z</time>
      </trkpt>
      <trkpt lat="48.79369" lon="6.50393">
        <ele>218.3</ele>
        <time>2021-07-30T11:06:11Z</time>
      </trkpt>
      <trkpt lat="48.79368" lon="6.50396">
        <ele>218.5</ele>
        <time>2021-07-30T11:06:12Z</time>
      </trkpt>
      <trkpt lat="48.79367" lon="6.50398">
        <ele>218.6</ele>
        <time>2021-07-30T11:06:13Z</time>
      </trkpt>
      <trkpt lat="48.79368" lon="6.50402">
        <ele>219</ele>
        <time>2021-07-30T11:06:14Z</time>
      </trkpt>
      <trkpt lat="48.7937" lon="6.50404">
        <ele>219.2</ele>
        <time>2021-07-30T11:06:15Z</time>
      </trkpt>
      <trkpt lat="48.79372" lon="6.50406">
        <ele>219.4</ele>
        <time>2021-07-30T11:06:17Z</time>
      </trkpt>
      <trkpt lat="48.79373" lon="6.50409">
        <ele>219.7</ele>
        <time>2021-07-30T11:06:18Z</time>
      </trkpt>
      <trkpt lat="48.79375" lon="6.50411">
        <ele>219.9</ele>
        <time>2021-07-30T11:06:19Z</time>
      </trkpt>
      <trkpt lat="48.79383" lon="6.50421">
        <ele>221</ele>
        <time>2021-07-30T11:06:21Z</time>
      </trkpt>
      <trkpt lat="48.79385" lon="6.50425">
        <ele>221.3</ele>
        <time>2021-07-30T11:06:22Z</time>
      </trkpt>
      <trkpt lat="48.79387" lon="6.50431">
        <ele>221.6</ele>
        <time>2021-07-30T11:06:24Z</time>
      </trkpt>
      <trkpt lat="48.79388" lon="6.50432">
        <ele>221.8</ele>
        <time>2021-07-30T11:06:25Z</time>
      </trkpt>
      <trkpt lat="48.79388" lon="6.50434">
        <ele>221.9</ele>
        <time>2021-07-30T11:06:26Z</time>
      </trkpt>
      <trkpt lat="48.79389" lon="6.50437">
        <ele>222.1</ele>
        <time>2021-07-30T11:06:28Z</time>
      </trkpt>
      <trkpt lat="48.79388" lon="6.50439">
        <ele>222.2</ele>
        <time>2021-07-30T11:06:29Z</time>
      </trkpt>
      <trkpt lat="48.79384" lon="6.50443">
        <ele>222.6</ele>
        <time>2021-07-30T11:06:30Z</time>
      </trkpt>
      <trkpt lat="48.79381" lon="6.50445">
        <ele>222.9</ele>
        <time>2021-07-30T11:06:31Z</time>
      </trkpt>
      <trkpt lat="48.79374" lon="6.50447">
        <ele>223.6</ele>
        <time>2021-07-30T11:06:33Z</time>
      </trkpt>
      <trkpt lat="48.7937" lon="6.50448">
        <ele>224</ele>
        <time>2021-07-30T11:06:34Z</time>
      </trkpt>
      <trkpt lat="48.79366" lon="6.50452">
        <ele>224.4</ele>
        <time>2021-07-30T11:06:36Z</time>
      </trkpt>
      <trkpt lat="48.79365" lon="6.50453">
        <ele>224.5</ele>
        <time>2021-07-30T11:06:37Z</time>
      </trkpt>
      <trkpt lat="48.79364" lon="6.50453">
        <ele>224.7</ele>
        <time>2021-07-30T11:06:38Z</time>
      </trkpt>
      <trkpt lat="48.79363" lon="6.50454">
        <ele>224.8</ele>
        <time>2021-07-30T11:06:39Z</time>
      </trkpt>
      <trkpt lat="48.79362" lon="6.50456">
        <ele>225</ele>
        <time>2021-07-30T11:06:41Z</time>
      </trkpt>
      <trkpt lat="48.79361" lon="6.50458">
        <ele>225.1</ele>
        <time>2021-07-30T11:06:42Z</time>
      </trkpt>
      <trkpt lat="48.79361" lon="6.50459">
        <ele>225.1</ele>
        <time>2021-07-30T11:06:44Z</time>
      </trkpt>
      <trkpt lat="48.7936" lon="6.5046">
        <ele>225.2</ele>
        <time>2021-07-30T11:06:46Z</time>
      </trkpt>
      <trkpt lat="48.7936" lon="6.50462">
        <ele>225.3</ele>
        <time>2021-07-30T11:06:48Z</time>
      </trkpt>
      <trkpt lat="48.7936" lon="6.50463">
        <ele>225.5</ele>
        <time>2021-07-30T11:06:49Z</time>
      </trkpt>
      <trkpt lat="48.79362" lon="6.50485">
        <ele>226.8</ele>
        <time>2021-07-30T11:06:59Z</time>
      </trkpt>
      <trkpt lat="48.79366" lon="6.50489">
        <ele>227.2</ele>
        <time>2021-07-30T11:07:00Z</time>
      </trkpt>
      <trkpt lat="48.79369" lon="6.50493">
        <ele>227.6</ele>
        <time>2021-07-30T11:07:02Z</time>
      </trkpt>
      <trkpt lat="48.79372" lon="6.50497">
        <ele>228</ele>
        <time>2021-07-30T11:07:03Z</time>
      </trkpt>
      <trkpt lat="48.79374" lon="6.505">
        <ele>228.2</ele>
        <time>2021-07-30T11:07:04Z</time>
      </trkpt>
      <trkpt lat="48.79375" lon="6.50505">
        <ele>228.5</ele>
        <time>2021-07-30T11:07:05Z</time>
      </trkpt>
      <trkpt lat="48.79375" lon="6.50507">
        <ele>228.7</ele>
        <time>2021-07-30T11:07:07Z</time>
      </trkpt>
      <trkpt lat="48.79375" lon="6.50509">
        <ele>228.8</ele>
        <time>2021-07-30T11:07:08Z</time>
      </trkpt>
      <trkpt lat="48.79375" lon="6.50512">
        <ele>229</ele>
        <time>2021-07-30T11:07:09Z</time>
      </trkpt>
      <trkpt lat="48.79375" lon="6.50514">
        <ele>229.1</ele>
        <time>2021-07-30T11:07:11Z</time>
      </trkpt>
      <trkpt lat="48.79375" lon="6.50514">
        <ele>229.2</ele>
        <time>2021-07-30T11:07:12Z</time>
      </trkpt>
      <trkpt lat="48.79376" lon="6.50513">
        <ele>229.2</ele>
        <time>2021-07-30T11:07:13Z</time>
      </trkpt>
      <trkpt lat="48.79376" lon="6.50513">
        <ele>229.2</ele>
        <time>2021-07-30T11:07:15Z</time>
      </trkpt>
      <trkpt lat="48.79376" lon="6.50512">
        <ele>229.3</ele>
        <time>2021-07-30T11:07:17Z</time>
      </trkpt>
      <trkpt lat="48.79376" lon="6.50512">
        <ele>229.3</ele>
        <time>2021-07-30T11:07:19Z</time>
      </trkpt>
      <trkpt lat="48.79377" lon="6.5054">
        <ele>231.7</ele>
        <time>2021-07-30T11:07:44Z</time>
      </trkpt>
      <trkpt lat="48.79377" lon="6.50544">
        <ele>232.1</ele>
        <time>2021-07-30T11:07:46Z</time>
      </trkpt>
      <trkpt lat="48.79377" lon="6.50546">
        <ele>232.3</ele>
        <time>2021-07-30T11:07:47Z</time>
      </trkpt>
      <trkpt lat="48.79376" lon="6.50547">
        <ele>232.4</ele>
        <time>2021-07-30T11:07:49Z</time>
      </trkpt>
      <trkpt lat="48.79376" lon="6.50548">
        <ele>232.6</ele>
        <time>2021-07-30T11:07:50Z</time>
      </trkpt>
      <trkpt lat="48.79375" lon="6.50548">
        <ele>232.7</ele>
        <time>2021-07-30T11:07:52Z</time>
      </trkpt>
      <trkpt lat="48.79375" lon="6.50549">
        <ele>232.8</ele>
        <time>2021-07-30T11:07:53Z</time>
      </trkpt>
      <trkpt lat="48.79375" lon="6.50549">
        <ele>232.8</ele>
        <time>2021-07-30T11:07:55Z</time>
      </trkpt>
      <trkpt lat="48.79374" lon="6.5055">
        <ele>232.9</ele>
        <time>2021-07-30T11:07:56Z</time>
      </trkpt>
      <trkpt lat="48.79374" lon="6.5055">
        <ele>232.9</ele>
        <time>2021-07-30T11:07:58Z</time>
      </trkpt>
      <trkpt lat="48.79374" lon="6.5055">
        <ele>232.9</ele>
        <time>2021-07-30T11:07:59Z</time>
      </trkpt>
      <trkpt lat="48.79374" lon="6.5055">
        <ele>233</ele>
        <time>2021-07-30T11:08:00Z</time>
      </trkpt>
      <trkpt lat="48.79374" lon="6.50551">
        <ele>233</ele>
        <time>2021-07-30T11:08:02Z</time>
      </trkpt>
      <trkpt lat="48.79373" lon="6.50552">
        <ele>233.2</ele>
        <time>2021-07-30T11:08:03Z</time>
      </trkpt>
      <trkpt lat="48.79372" lon="6.50553">
        <ele>233.4</ele>
        <time>2021-07-30T11:08:05Z</time>
      </trkpt>
      <trkpt lat="48.79372" lon="6.50555">
        <ele>233.6</ele>
        <time>2021-07-30T11:08:06Z</time>
      </trkpt>
      <trkpt lat="48.79372" lon="6.50556">
        <ele>233.7</ele>
        <time>2021-07-30T11:08:07Z</time>
      </trkpt>
      <trkpt lat="48.79373" lon="6.50558">
        <ele>234</ele>
        <time>2021-07-30T11:08:09Z</time>
      </trkpt>
      <trkpt lat="48.79373" lon="6.5056">
        <ele>234.2</ele>
        <time>2021-07-30T11:08:10Z</time>
      </trkpt>
      <trkpt lat="48.79374" lon="6.50564">
        <ele>234.5</ele>
        <time>2021-07-30T11:08:12Z</time>
      </trkpt>
      <trkpt lat="48.79375" lon="6.50565">
        <ele>234.7</ele>
        <time>2021-07-30T11:08:13Z</time>
      </trkpt>
      <trkpt lat="48.79376" lon="6.5057">
        <ele>235.2</ele>
        <time>2021-07-30T11:08:14Z</time>
      </trkpt>
      <trkpt lat="48.79377" lon="6.50572">
        <ele>235.4</ele>
        <time>2021-07-30T11:08:16Z</time>
      </trkpt>
      <trkpt lat="48.79378" lon="6.50574">
        <ele>235.7</ele>
        <time>2021-07-30T11:08:17Z</time>
      </trkpt>
      <trkpt lat="48.79378" lon="6.50575">
        <ele>235.8</ele>
        <time>2021-07-30T11:08:18Z</time>
      </trkpt>
      <trkpt lat="48.79379" lon="6.50576">
        <ele>235.9</ele>
        <time>2021-07-30T11:08:20Z</time>
      </trkpt>
      <trkpt lat="48.79379" lon="6.50577">
        <ele>235.9</ele>
        <time>2021-07-30T11:08:21Z</time>
      </trkpt>
      <trkpt lat="48.79379" lon="6.50577">
        <ele>236</ele>
        <time>2021-07-30T11:08:22Z</time>
      </trkpt>
      <trkpt lat="48.7938" lon="6.50578">
        <ele>236.1</ele>
        <time>2021-07-30T11:08:24Z</time>
      </trkpt>
      <trkpt lat="48.7938" lon="6.50578">
        <ele>236.1</ele>
        <time>2021-07-30T11:08:25Z</time>
      </trkpt>
      <trkpt lat="48.79381" lon="6.50582">
        <ele>236.5</ele>
        <time>2021-07-30T11:08:27Z</time>
      </trkpt>
      <trkpt lat="48.79382" lon="6.50587">
        <ele>237</ele>
        <time>2021-07-30T11:08:28Z</time>
      </trkpt>
      <trkpt lat="48.79383" lon="6.50591">
        <ele>237.4</ele>
        <time>2021-07-30T11:08:29Z</time>
      </trkpt>
      <trkpt lat="48.79383" lon="6.50594">
        <ele>237.6</ele>
        <time>2021-07-30T11:08:31Z</time>
      </trkpt>
      <trkpt lat="48.79383" lon="6.50596">
        <ele>237.8</ele>
        <time>2021-07-30T11:08:32Z</time>
      </trkpt>
      <trkpt lat="48.79382" lon="6.50599">
        <ele>238.2</ele>
        <time>2021-07-30T11:08:33Z</time>
      </trkpt>
      <trkpt lat="48.79381" lon="6.50602">
        <ele>238.5</ele>
        <time>2021-07-30T11:08:35Z</time>
      </trkpt>
      <trkpt lat="48.7938" lon="6.50609">
        <ele>239.2</ele>
        <time>2021-07-30T11:08:37Z</time>
      </trkpt>
      <trkpt lat="48.79379" lon="6.50613">
        <ele>239.7</ele>
        <time>2021-07-30T11:08:38Z</time>
      </trkpt>
      <trkpt lat="48.79381" lon="6.50617">
        <ele>240.1</ele>
        <time>2021-07-30T11:08:39Z</time>
      </trkpt>
      <trkpt lat="48.79383" lon="6.50621">
        <ele>240.6</ele>
        <time>2021-07-30T11:08:42Z</time>
      </trkpt>
      <trkpt lat="48.79383" lon="6.50623">
        <ele>240.8</ele>
        <time>2021-07-30T11:08:43Z</time>
      </trkpt>
      <trkpt lat="48.79383" lon="6.50623">
        <ele>240.8</ele>
        <time>2021-07-30T11:08:44Z</time>
      </trkpt>
      <trkpt lat="48.79384" lon="6.50624">
        <ele>240.9</ele>
        <time>2021-07-30T11:08:46Z</time>
      </trkpt>
      <trkpt lat="48.79384" lon="6.50625">
        <ele>241</ele>
        <time>2021-07-30T11:08:47Z</time>
      </trkpt>
      <trkpt lat="48.79385" lon="6.50625">
        <ele>241.2</ele>
        <time>2021-07-30T11:08:48Z</time>
      </trkpt>
      <trkpt lat="48.79386" lon="6.50628">
        <ele>241.4</ele>
        <time>2021-07-30T11:08:49Z</time>
      </trkpt>
      <trkpt lat="48.7937" lon="6.5073">
        <ele>251.7</ele>
        <time>2021-07-30T11:10:04Z</time>
      </trkpt>
      <trkpt lat="48.79367" lon="6.50734">
        <ele>252.3</ele>
        <time>2021-07-30T11:10:06Z</time>
      </trkpt>
      <trkpt lat="48.79366" lon="6.50737">
        <ele>252.4</ele>
        <time>2021-07-30T11:10:07Z</time>
      </trkpt>
      <trkpt lat="48.79366" lon="6.50738">
        <ele>252.4</ele>
        <time>2021-07-30T11:10:08Z</time>
      </trkpt>
      <trkpt lat="48.79365" lon="6.50743">
        <ele>252.5</ele>
        <time>2021-07-30T11:10:10Z</time>
      </trkpt>
      <trkpt lat="48.79366" lon="6.50745">
        <ele>252.5</ele>
        <time>2021-07-30T11:10:11Z</time>
      </trkpt>
      <trkpt lat="48.79367" lon="6.5075">
        <ele>252.5</ele>
        <time>2021-07-30T11:10:13Z</time>
      </trkpt>
      <trkpt lat="48.79367" lon="6.50752">
        <ele>252.6</ele>
        <time>2021-07-30T11:10:14Z</time>
      </trkpt>
      <trkpt lat="48.79368" lon="6.50757">
        <ele>252.6</ele>
        <time>2021-07-30T11:10:16Z</time>
      </trkpt>
      <trkpt lat="48.79369" lon="6.50758">
        <ele>252.6</ele>
        <time>2021-07-30T11:10:17Z</time>
      </trkpt>
      <trkpt lat="48.7937" lon="6.50758">
        <ele>252.6</ele>
        <time>2021-07-30T11:10:18Z</time>
      </trkpt>
      <trkpt lat="48.7937" lon="6.50758">
        <ele>252.7</ele>
        <time>2021-07-30T11:10:19Z</time>
      </trkpt>
      <trkpt lat="48.79371" lon="6.50759">
        <ele>252.7</ele>
        <time>2021-07-30T11:10:21Z</time>
      </trkpt>
      <trkpt lat="48.79371" lon="6.50759">
        <ele>252.7</ele>
        <time>2021-07-30T11:10:23Z</time>
      </trkpt>
      <trkpt lat="48.79371" lon="6.50759">
        <ele>252.7</ele>
        <time>2021-07-30T11:10:24Z</time>
      </trkpt>
      <trkpt lat="48.79371" lon="6.50759">
        <ele>252.7</ele>
        <time>2021-07-30T11:10:25Z</time>
      </trkpt>
      <trkpt lat="48.79372" lon="6.50759">
        <ele>252.7</ele>
        <time>2021-07-30T11:10:27Z</time>
      </trkpt>
      <trkpt lat="48.79352" lon="6.51088">
        <ele>256.3</ele>
        <time>2021-07-30T11:21:56Z</time>
      </trkpt>
      <trkpt lat="48.79351" lon="6.5109">
        <ele>256.3</ele>
        <time>2021-07-30T11:21:57Z</time>
      </trkpt>
      <trkpt lat="48.7935" lon="6.51092">
        <ele>256.4</ele>
        <time>2021-07-30T11:21:58Z</time>
      </trkpt>
      <trkpt lat="48.79348" lon="6.51095">
        <ele>256.4</ele>
        <time>2021-07-30T11:22:00Z</time>
      </trkpt>
      <trkpt lat="48.79348" lon="6.51096">
        <ele>256.4</ele>
        <time>2021-07-30T11:22:01Z</time>
      </trkpt>
      <trkpt lat="48.79347" lon="6.51098">
        <ele>256.4</ele>
        <time>2021-07-30T11:22:02Z</time>
      </trkpt>
      <trkpt lat="48.79347" lon="6.51098">
        <ele>256.5</ele>
        <time>2021-07-30T11:22:04Z</time>
      </trkpt>
      <trkpt lat="48.79347" lon="6.51099">
        <ele>256.5</ele>
        <time>2021-07-30T11:22:05Z</time>
      </trkpt>
      <trkpt lat="48.79347" lon="6.51099">
        <ele>256.5</ele>
        <time>2021-07-30T11:22:06Z</time>
      </trkpt>
      <trkpt lat="48.79347" lon="6.51099">
        <ele>256.5</ele>
        <time>2021-07-30T11:22:07Z</time>
      </trkpt>
      <trkpt lat="48.79346" lon="6.511">
        <ele>256.5</ele>
        <time>2021-07-30T11:22:08Z</time>
      </trkpt>
      <trkpt lat="48.79346" lon="6.51101">
        <ele>256.5</ele>
        <time>2021-07-30T11:22:09Z</time>
      </trkpt>
      <trkpt lat="48.79345" lon="6.51102">
        <ele>256.5</ele>
        <time>2021-07-30T11:22:11Z</time>
      </trkpt>
      <trkpt lat="48.79343" lon="6.51104">
        <ele>256.5</ele>
        <time>2021-07-30T11:22:12Z</time>
      </trkpt>
      <trkpt lat="48.79342" lon="6.51105">
        <ele>256.6</ele>
        <time>2021-07-30T11:22:13Z</time>
      </trkpt>
      <trkpt lat="48.79342" lon="6.51106">
        <ele>256.6</ele>
        <time>2021-07-30T11:22:14Z</time>
      </trkpt>
      <trkpt lat="48.7934" lon="6.51108">
        <ele>256.6</ele>
        <time>2021-07-30T11:22:15Z</time>
      </trkpt>
      <trkpt lat="48.79338" lon="6.5111">
        <ele>256.7</ele>
        <time>2021-07-30T11:22:17Z</time>
      </trkpt>
      <trkpt lat="48.79336" lon="6.51114">
        <ele>256.7</ele>
        <time>2021-07-30T11:22:18Z</time>
      </trkpt>
      <trkpt lat="48.79335" lon="6.51115">
        <ele>256.7</ele>
        <time>2021-07-30T11:22:19Z</time>
      </trkpt>
      <trkpt lat="48.79335" lon="6.51118">
        <ele>256.8</ele>
        <time>2021-07-30T11:22:20Z</time>
      </trkpt>
      <trkpt lat="48.79335" lon="6.51119">
        <ele>256.8</ele>
        <time>2021-07-30T11:22:22Z</time>
      </trkpt>
      <trkpt lat="48.79335" lon="6.5112">
        <ele>256.8</ele>
        <time>2021-07-30T11:22:23Z</time>
      </trkpt>
      <trkpt lat="48.79335" lon="6.51121">
        <ele>256.8</ele>
        <time>2021-07-30T11:22:24Z</time>
      </trkpt>
      <trkpt lat="48.79335" lon="6.51122">
        <ele>256.8</ele>
        <time>2021-07-30T11:22:26Z</time>
      </trkpt>
      <trkpt lat="48.79334" lon="6.51123">
        <ele>256.8</ele>
        <time>2021-07-30T11:22:27Z</time>
      </trkpt>
      <trkpt lat="48.79322" lon="6.51167">
        <ele>257.3</ele>
        <time>2021-07-30T11:22:54Z</time>
      </trkpt>
      <trkpt lat="48.7932" lon="6.51168">
        <ele>257.4</ele>
        <time>2021-07-30T11:22:56Z</time>
      </trkpt>
      <trkpt lat="48.79319" lon="6.51169">
        <ele>257.4</ele>
        <time>2021-07-30T11:22:57Z</time>
      </trkpt>
      <trkpt lat="48.79316" lon="6.51172">
        <ele>257.5</ele>
        <time>2021-07-30T11:22:58Z</time>
      </trkpt>
      <trkpt lat="48.79315" lon="6.51173">
        <ele>257.5</ele>
        <time>2021-07-30T11:22:59Z</time>
      </trkpt>
      <trkpt lat="48.79313" lon="6.51175">
        <ele>257.5</ele>
        <time>2021-07-30T11:23:01Z</time>
      </trkpt>
      <trkpt lat="48.79312" lon="6.51175">
        <ele>257.5</ele>
        <time>2021-07-30T11:23:02Z</time>
      </trkpt>
      <trkpt lat="48.79312" lon="6.51176">
        <ele>257.5</ele>
        <time>2021-07-30T11:23:03Z</time>
      </trkpt>
      <trkpt lat="48.79311" lon="6.51177">
        <ele>257.6</ele>
        <time>2021-07-30T11:23:05Z</time>
      </trkpt>
      <trkpt lat="48.79311" lon="6.51177">
        <ele>257.6</ele>
        <time>2021-07-30T11:23:06Z</time>
      </trkpt>
      <trkpt lat="48.7931" lon="6.51177">
        <ele>257.6</ele>
        <time>2021-07-30T11:23:08Z</time>
      </trkpt>
      <trkpt lat="48.7931" lon="6.51177">
        <ele>257.6</ele>
        <time>2021-07-30T11:23:09Z</time>
      </trkpt>
      <trkpt lat="48.7931" lon="6.51177">
        <ele>257.6</ele>
        <time>2021-07-30T11:23:10Z</time>
      </trkpt>
      <trkpt lat="48.7931" lon="6.51177">
        <ele>257.6</ele>
        <time>2021-07-30T11:23:12Z</time>
      </trkpt>
      <trkpt lat="48.7931" lon="6.51178">
        <ele>257.6</ele>
        <time>2021-07-30T11:23:13Z</time>
      </trkpt>
      <trkpt lat="48.7931" lon="6.51178">
        <ele>257.6</ele>
        <time>2021-07-30T11:23:14Z</time>
      </trkpt>
      <trkpt lat="48.7931" lon="6.51178">
        <ele>257.6</ele>
        <time>2021-07-30T11:23:16Z</time>
      </trkpt>
      <trkpt lat="48.79298" lon="6.5121">
        <ele>258</ele>
        <time>2021-07-30T11:23:35Z</time>
      </trkpt>
      <trkpt lat="48.79296" lon="6.51214">
        <ele>258</ele>
        <time>2021-07-30T11:23:36Z</time>
      </trkpt>
      <trkpt lat="48.79295" lon="6.51216">
        <ele>258.1</ele>
        <time>2021-07-30T11:23:37Z</time>
      </trkpt>
      <trkpt lat="48.79293" lon="6.51219">
        <ele>258.1</ele>
        <time>2021-07-30T11:23:39Z</time>
      </trkpt>
      <trkpt lat="48.79292" lon="6.51222">
        <ele>258.2</ele>
        <time>2021-07-30T11:23:40Z</time>
      </trkpt>
      <trkpt lat="48.79291" lon="6.51224">
        <ele>258.2</ele>
        <time>2021-07-30T11:23:41Z</time>
      </trkpt>
      <trkpt lat="48.79289" lon="6.51227">
        <ele>258.2</ele>
        <time>2021-07-30T11:23:43Z</time>
      </trkpt>
      <trkpt lat="48.79289" lon="6.51229">
        <ele>258.2</ele>
        <time>2021-07-30T11:23:44Z</time>
      </trkpt>
      <trkpt lat="48.79288" lon="6.5123">
        <ele>258.3</ele>
        <time>2021-07-30T11:23:45Z</time>
      </trkpt>
      <trkpt lat="48.79287" lon="6.51231">
        <ele>258.3</ele>
        <time>2021-07-30T11:23:47Z</time>
      </trkpt>
      <trkpt lat="48.79287" lon="6.51231">
        <ele>258.3</ele>
        <time>2021-07-30T11:23:49Z</time>
      </trkpt>
      <trkpt lat="48.79286" lon="6.51232">
        <ele>258.3</ele>
        <time>2021-07-30T11:23:50Z</time>
      </trkpt>
      <trkpt lat="48.79286" lon="6.51233">
        <ele>258.3</ele>
        <time>2021-07-30T11:23:52Z</time>
      </trkpt>
      <trkpt lat="48.79285" lon="6.51234">
        <ele>258.3</ele>
        <time>2021-07-30T11:23:53Z</time>
      </trkpt>
      <trkpt lat="48.79284" lon="6.51234">
        <ele>258.3</ele>
        <time>2021-07-30T11:23:55Z</time>
      </trkpt>
      <trkpt lat="48.79284" lon="6.51235">
        <ele>258.4</ele>
        <time>2021-07-30T11:23:57Z</time>
      </trkpt>
      <trkpt lat="48.79283" lon="6.51236">
        <ele>258.4</ele>
        <time>2021-07-30T11:23:58Z</time>
      </trkpt>
      <trkpt lat="48.79282" lon="6.51237">
        <ele>258.4</ele>
        <time>2021-07-30T11:23:59Z</time>
      </trkpt>
      <trkpt lat="48.7928" lon="6.51242">
        <ele>258.5</ele>
        <time>2021-07-30T11:24:01Z</time>
      </trkpt>
      <trkpt lat="48.79278" lon="6.51246">
        <ele>258.5</ele>
        <time>2021-07-30T11:24:03Z</time>
      </trkpt>
      <trkpt lat="48.79277" lon="6.51248">
        <ele>258.5</ele>
        <time>2021-07-30T11:24:04Z</time>
      </trkpt>
      <trkpt lat="48.79276" lon="6.5125">
        <ele>258.6</ele>
        <time>2021-07-30T11:24:05Z</time>
      </trkpt>
      <trkpt lat="48.79275" lon="6.51254">
        <ele>258.6</ele>
        <time>2021-07-30T11:24:06Z</time>
      </trkpt>
      <trkpt lat="48.79274" lon="6.51259">
        <ele>258.7</ele>
        <time>2021-07-30T11:24:07Z</time>
      </trkpt>
      <trkpt lat="48.79274" lon="6.51261">
        <ele>258.7</ele>
        <time>2021-07-30T11:24:08Z</time>
      </trkpt>
      <trkpt lat="48.79273" lon="6.51266">
        <ele>258.7</ele>
        <time>2021-07-30T11:24:10Z</time>
      </trkpt>
      <trkpt lat="48.79273" lon="6.51268">
        <ele>258.8</ele>
        <time>2021-07-30T11:24:11Z</time>
      </trkpt>
      <trkpt lat="48.79272" lon="6.5127">
        <ele>258.8</ele>
        <time>2021-07-30T11:24:12Z</time>
      </trkpt>
      <trkpt lat="48.79272" lon="6.51273">
        <ele>258.8</ele>
        <time>2021-07-30T11:24:13Z</time>
      </trkpt>
      <trkpt lat="48.79272" lon="6.51276">
        <ele>258.9</ele>
        <time>2021-07-30T11:24:14Z</time>
      </trkpt>
      <trkpt lat="48.79272" lon="6.51279">
        <ele>258.9</ele>
        <time>2021-07-30T11:24:16Z</time>
      </trkpt>
      <trkpt lat="48.79271" lon="6.51282">
        <ele>258.9</ele>
        <time>2021-07-30T11:24:17Z</time>
      </trkpt>
      <trkpt lat="48.7927" lon="6.51283">
        <ele>258.9</ele>
        <time>2021-07-30T11:24:18Z</time>
      </trkpt>
      <trkpt lat="48.7927" lon="6.51283">
        <ele>258.9</ele>
        <time>2021-07-30T11:24:19Z</time>
      </trkpt>
      <trkpt lat="48.7927" lon="6.51287">
        <ele>259</ele>
        <time>2021-07-30T11:24:20Z</time>
      </trkpt>
      <trkpt lat="48.7927" lon="6.51289">
        <ele>259</ele>
        <time>2021-07-30T11:24:21Z</time>
      </trkpt>
      <trkpt lat="48.7927" lon="6.51291">
        <ele>259</ele>
        <time>2021-07-30T11:24:22Z</time>
      </trkpt>
      <trkpt lat="48.79269" lon="6.51294">
        <ele>259.1</ele>
        <time>2021-07-30T11:24:23Z</time>
      </trkpt>
      <trkpt lat="48.79269" lon="6.51296">
        <ele>259.1</ele>
        <time>2021-07-30T11:24:25Z</time>
      </trkpt>
      <trkpt lat="48.79268" lon="6.51299">
        <ele>259.1</ele>
        <time>2021-07-30T11:24:26Z</time>
      </trkpt>
      <trkpt lat="48.79267" lon="6.51301">
        <ele>259.1</ele>
        <time>2021-07-30T11:24:27Z</time>
      </trkpt>
      <trkpt lat="48.79266" lon="6.51305">
        <ele>259.2</ele>
        <time>2021-07-30T11:24:29Z</time>
      </trkpt>
      <trkpt lat="48.79265" lon="6.51309">
        <ele>259.2</ele>
        <time>2021-07-30T11:24:30Z</time>
      </trkpt>
      <trkpt lat="48.79264" lon="6.5131">
        <ele>259.3</ele>
        <time>2021-07-30T11:24:31Z</time>
      </trkpt>
      <trkpt lat="48.79263" lon="6.51312">
        <ele>259.3</ele>
        <time>2021-07-30T11:24:32Z</time>
      </trkpt>
      <trkpt lat="48.79261" lon="6.51314">
        <ele>259.3</ele>
        <time>2021-07-30T11:24:33Z</time>
      </trkpt>
      <trkpt lat="48.79259" lon="6.51315">
        <ele>259.4</ele>
        <time>2021-07-30T11:24:34Z</time>
      </trkpt>
      <trkpt lat="48.79256" lon="6.51317">
        <ele>259.4</ele>
        <time>2021-07-30T11:24:36Z</time>
      </trkpt>
      <trkpt lat="48.79254" lon="6.51319">
        <ele>259.5</ele>
        <time>2021-07-30T11:24:37Z</time>
      </trkpt>
      <trkpt lat="48.79252" lon="6.51321">
        <ele>259.5</ele>
        <time>2021-07-30T11:24:38Z</time>
      </trkpt>
      <trkpt lat="48.79251" lon="6.51322">
        <ele>259.5</ele>
        <time>2021-07-30T11:24:39Z</time>
      </trkpt>
      <trkpt lat="48.79248" lon="6.51325">
        <ele>259.6</ele>
        <time>2021-07-30T11:24:40Z</time>
      </trkpt>
      <trkpt lat="48.79247" lon="6.51326">
        <ele>259.6</ele>
        <time>2021-07-30T11:24:41Z</time>
      </trkpt>
      <trkpt lat="48.79245" lon="6.51329">
        <ele>259.6</ele>
        <time>2021-07-30T11:24:42Z</time>
      </trkpt>
      <trkpt lat="48.79244" lon="6.5133">
        <ele>259.7</ele>
        <time>2021-07-30T11:24:43Z</time>
      </trkpt>
      <trkpt lat="48.79241" lon="6.51334">
        <ele>259.7</ele>
        <time>2021-07-30T11:24:44Z</time>
      </trkpt>
      <trkpt lat="48.7924" lon="6.51335">
        <ele>259.7</ele>
        <time>2021-07-30T11:24:45Z</time>
      </trkpt>
      <trkpt lat="48.7924" lon="6.51337">
        <ele>259.8</ele>
        <time>2021-07-30T11:24:47Z</time>
      </trkpt>
      <trkpt lat="48.79237" lon="6.51341">
        <ele>259.8</ele>
        <time>2021-07-30T11:24:49Z</time>
      </trkpt>
      <trkpt lat="48.79232" lon="6.51344">
        <ele>259.9</ele>
        <time>2021-07-30T11:24:51Z</time>
      </trkpt>
      <trkpt lat="48.79229" lon="6.51347">
        <ele>260</ele>
        <time>2021-07-30T11:24:52Z</time>
      </trkpt>
      <trkpt lat="48.79228" lon="6.51347">
        <ele>260</ele>
        <time>2021-07-30T11:24:53Z</time>
      </trkpt>
      <trkpt lat="48.79225" lon="6.5135">
        <ele>260.1</ele>
        <time>2021-07-30T11:24:54Z</time>
      </trkpt>
      <trkpt lat="48.79221" lon="6.51352">
        <ele>260.1</ele>
        <time>2021-07-30T11:24:55Z</time>
      </trkpt>
      <trkpt lat="48.79219" lon="6.51354">
        <ele>260.2</ele>
        <time>2021-07-30T11:24:56Z</time>
      </trkpt>
      <trkpt lat="48.79216" lon="6.51356">
        <ele>260.2</ele>
        <time>2021-07-30T11:24:58Z</time>
      </trkpt>
      <trkpt lat="48.79214" lon="6.51359">
        <ele>260.3</ele>
        <time>2021-07-30T11:24:59Z</time>
      </trkpt>
      <trkpt lat="48.79209" lon="6.51362">
        <ele>260.4</ele>
        <time>2021-07-30T11:25:00Z</time>
      </trkpt>
      <trkpt lat="48.79204" lon="6.51364">
        <ele>260.4</ele>
        <time>2021-07-30T11:25:02Z</time>
      </trkpt>
      <trkpt lat="48.792" lon="6.51365">
        <ele>260.5</ele>
        <time>2021-07-30T11:25:03Z</time>
      </trkpt>
      <trkpt lat="48.79197" lon="6.51367">
        <ele>260.6</ele>
        <time>2021-07-30T11:25:04Z</time>
      </trkpt>
      <trkpt lat="48.79194" lon="6.5137">
        <ele>260.6</ele>
        <time>2021-07-30T11:25:06Z</time>
      </trkpt>
      <trkpt lat="48.79192" lon="6.51372">
        <ele>260.7</ele>
        <time>2021-07-30T11:25:07Z</time>
      </trkpt>
      <trkpt lat="48.79187" lon="6.51376">
        <ele>260.8</ele>
        <time>2021-07-30T11:25:09Z</time>
      </trkpt>
      <trkpt lat="48.79183" lon="6.5138">
        <ele>260.8</ele>
        <time>2021-07-30T11:25:10Z</time>
      </trkpt>
      <trkpt lat="48.7918" lon="6.51384">
        <ele>260.9</ele>
        <time>2021-07-30T11:25:11Z</time>
      </trkpt>
      <trkpt lat="48.79176" lon="6.51388">
        <ele>261</ele>
        <time>2021-07-30T11:25:13Z</time>
      </trkpt>
      <trkpt lat="48.7917" lon="6.51394">
        <ele>261.1</ele>
        <time>2021-07-30T11:25:14Z</time>
      </trkpt>
      <trkpt lat="48.79165" lon="6.51396">
        <ele>261.2</ele>
        <time>2021-07-30T11:25:16Z</time>
      </trkpt>
      <trkpt lat="48.7916" lon="6.51399">
        <ele>261.3</ele>
        <time>2021-07-30T11:25:17Z</time>
      </trkpt>
      <trkpt lat="48.79156" lon="6.51404">
        <ele>261.4</ele>
        <time>2021-07-30T11:25:18Z</time>
      </trkpt>
      <trkpt lat="48.79152" lon="6.51408">
        <ele>261.5</ele>
        <time>2021-07-30T11:25:20Z</time>
      </trkpt>
      <trkpt lat="48.79146" lon="6.51415">
        <ele>261.6</ele>
        <time>2021-07-30T11:25:21Z</time>
      </trkpt>
      <trkpt lat="48.7914" lon="6.5142">
        <ele>261.7</ele>
        <time>2021-07-30T11:25:23Z</time>
      </trkpt>
      <trkpt lat="48.79137" lon="6.51425">
        <ele>261.8</ele>
        <time>2021-07-30T11:25:24Z</time>
      </trkpt>
      <trkpt lat="48.79131" lon="6.51429">
        <ele>261.9</ele>
        <time>2021-07-30T11:25:26Z</time>
      </trkpt>
      <trkpt lat="48.79127" lon="6.5143">
        <ele>261.9</ele>
        <time>2021-07-30T11:25:27Z</time>
      </trkpt>
      <trkpt lat="48.79125" lon="6.51432">
        <ele>262</ele>
        <time>2021-07-30T11:25:28Z</time>
      </trkpt>
      <trkpt lat="48.79123" lon="6.51433">
        <ele>262</ele>
        <time>2021-07-30T11:25:30Z</time>
      </trkpt>
      <trkpt lat="48.79122" lon="6.51433">
        <ele>262</ele>
        <time>2021-07-30T11:25:31Z</time>
      </trkpt>
      <trkpt lat="48.79123" lon="6.51431">
        <ele>262.1</ele>
        <time>2021-07-30T11:25:33Z</time>
      </trkpt>
      <trkpt lat="48.79123" lon="6.51431">
        <ele>262.1</ele>
        <time>2021-07-30T11:25:34Z</time>
      </trkpt>
      <trkpt lat="48.79123" lon="6.51431">
        <ele>262.1</ele>
        <time>2021-07-30T11:25:35Z</time>
      </trkpt>
      <trkpt lat="48.79124" lon="6.51431">
        <ele>262.1</ele>
        <time>2021-07-30T11:25:36Z</time>
      </trkpt>
      <trkpt lat="48.79124" lon="6.51431">
        <ele>262.1</ele>
        <time>2021-07-30T11:25:38Z</time>
      </trkpt>
      <trkpt lat="48.79124" lon="6.51431">
        <ele>262.1</ele>
        <time>2021-07-30T11:25:39Z</time>
      </trkpt>
      <trkpt lat="48.79124" lon="6.51431">
        <ele>262.1</ele>
        <time>2021-07-30T11:25:40Z</time>
      </trkpt>
      <trkpt lat="48.7912" lon="6.51443">
        <ele>262.2</ele>
        <time>2021-07-30T11:26:14Z</time>
      </trkpt>
      <trkpt lat="48.79118" lon="6.51446">
        <ele>262.3</ele>
        <time>2021-07-30T11:26:16Z</time>
      </trkpt>
      <trkpt lat="48.79114" lon="6.51449">
        <ele>262.3</ele>
        <time>2021-07-30T11:26:17Z</time>
      </trkpt>
      <trkpt lat="48.7911" lon="6.51452">
        <ele>262.4</ele>
        <time>2021-07-30T11:26:18Z</time>
      </trkpt>
      <trkpt lat="48.79104" lon="6.51456">
        <ele>262.5</ele>
        <time>2021-07-30T11:26:20Z</time>
      </trkpt>
      <trkpt lat="48.791" lon="6.5146">
        <ele>262.6</ele>
        <time>2021-07-30T11:26:21Z</time>
      </trkpt>
      <trkpt lat="48.79097" lon="6.51465">
        <ele>262.7</ele>
        <time>2021-07-30T11:26:22Z</time>
      </trkpt>
      <trkpt lat="48.79095" lon="6.51469">
        <ele>262.7</ele>
        <time>2021-07-30T11:26:24Z</time>
      </trkpt>
      <trkpt lat="48.79091" lon="6.51475">
        <ele>262.8</ele>
        <time>2021-07-30T11:26:25Z</time>
      </trkpt>
      <trkpt lat="48.79087" lon="6.5148">
        <ele>262.9</ele>
        <time>2021-07-30T11:26:27Z</time>
      </trkpt>
      <trkpt lat="48.79082" lon="6.51484">
        <ele>263</ele>
        <time>2021-07-30T11:26:28Z</time>
      </trkpt>
      <trkpt lat="48.79078" lon="6.51488">
        <ele>263.1</ele>
        <time>2021-07-30T11:26:29Z</time>
      </trkpt>
      <trkpt lat="48.79073" lon="6.51491">
        <ele>263.2</ele>
        <time>2021-07-30T11:26:30Z</time>
      </trkpt>
      <trkpt lat="48.79069" lon="6.51495">
        <ele>263.3</ele>
        <time>2021-07-30T11:26:32Z</time>
      </trkpt>
      <trkpt lat="48.79064" lon="6.51499">
        <ele>263.3</ele>
        <time>2021-07-30T11:26:34Z</time>
      </trkpt>
      <trkpt lat="48.79059" lon="6.51503">
        <ele>263.4</ele>
        <time>2021-07-30T11:26:35Z</time>
      </trkpt>
      <trkpt lat="48.79055" lon="6.51505">
        <ele>263.5</ele>
        <time>2021-07-30T11:26:37Z</time>
      </trkpt>
      <trkpt lat="48.79051" lon="6.51507">
        <ele>263.6</ele>
        <time>2021-07-30T11:26:39Z</time>
      </trkpt>
      <trkpt lat="48.7905" lon="6.51509">
        <ele>263.6</ele>
        <time>2021-07-30T11:26:40Z</time>
      </trkpt>
      <trkpt lat="48.79048" lon="6.51513">
        <ele>263.7</ele>
        <time>2021-07-30T11:26:42Z</time>
      </trkpt>
      <trkpt lat="48.79048" lon="6.51514">
        <ele>263.7</ele>
        <time>2021-07-30T11:26:43Z</time>
      </trkpt>
      <trkpt lat="48.79048" lon="6.51517">
        <ele>263.7</ele>
        <time>2021-07-30T11:26:44Z</time>
      </trkpt>
      <trkpt lat="48.79048" lon="6.51521">
        <ele>263.7</ele>
        <time>2021-07-30T11:26:45Z</time>
      </trkpt>
      <trkpt lat="48.79047" lon="6.51523">
        <ele>263.8</ele>
        <time>2021-07-30T11:26:47Z</time>
      </trkpt>
      <trkpt lat="48.79045" lon="6.51527">
        <ele>263.8</ele>
        <time>2021-07-30T11:26:48Z</time>
      </trkpt>
      <trkpt lat="48.79042" lon="6.5153">
        <ele>263.9</ele>
        <time>2021-07-30T11:26:50Z</time>
      </trkpt>
      <trkpt lat="48.79039" lon="6.51533">
        <ele>264</ele>
        <time>2021-07-30T11:26:51Z</time>
      </trkpt>
      <trkpt lat="48.79036" lon="6.51536">
        <ele>264</ele>
        <time>2021-07-30T11:26:52Z</time>
      </trkpt>
      <trkpt lat="48.7903" lon="6.51542">
        <ele>264.1</ele>
        <time>2021-07-30T11:26:53Z</time>
      </trkpt>
      <trkpt lat="48.79026" lon="6.51546">
        <ele>264.2</ele>
        <time>2021-07-30T11:26:55Z</time>
      </trkpt>
      <trkpt lat="48.79022" lon="6.51552">
        <ele>264.3</ele>
        <time>2021-07-30T11:26:56Z</time>
      </trkpt>
      <trkpt lat="48.7902" lon="6.51557">
        <ele>264.4</ele>
        <time>2021-07-30T11:26:58Z</time>
      </trkpt>
      <trkpt lat="48.79018" lon="6.51561">
        <ele>264.4</ele>
        <time>2021-07-30T11:26:59Z</time>
      </trkpt>
      <trkpt lat="48.79017" lon="6.51562">
        <ele>264.4</ele>
        <time>2021-07-30T11:27:00Z</time>
      </trkpt>
      <trkpt lat="48.79016" lon="6.51566">
        <ele>264.5</ele>
        <time>2021-07-30T11:27:01Z</time>
      </trkpt>
      <trkpt lat="48.79016" lon="6.51567">
        <ele>264.3</ele>
        <time>2021-07-30T11:27:03Z</time>
      </trkpt>
      <trkpt lat="48.79016" lon="6.51569">
        <ele>264.1</ele>
        <time>2021-07-30T11:27:04Z</time>
      </trkpt>
      <trkpt lat="48.79016" lon="6.51573">
        <ele>263.7</ele>
        <time>2021-07-30T11:27:06Z</time>
      </trkpt>
      <trkpt lat="48.79016" lon="6.51577">
        <ele>263.4</ele>
        <time>2021-07-30T11:27:07Z</time>
      </trkpt>
      <trkpt lat="48.79016" lon="6.51582">
        <ele>262.8</ele>
        <time>2021-07-30T11:27:09Z</time>
      </trkpt>
      <trkpt lat="48.79015" lon="6.51586">
        <ele>262.4</ele>
        <time>2021-07-30T11:27:10Z</time>
      </trkpt>
      <trkpt lat="48.79015" lon="6.51587">
        <ele>262.2</ele>
        <time>2021-07-30T11:27:11Z</time>
      </trkpt>
      <trkpt lat="48.79014" lon="6.51591">
        <ele>261.8</ele>
        <time>2021-07-30T11:27:12Z</time>
      </trkpt>
      <trkpt lat="48.79011" lon="6.51597">
        <ele>261</ele>
        <time>2021-07-30T11:27:13Z</time>
      </trkpt>
      <trkpt lat="48.79007" lon="6.51609">
        <ele>259.3</ele>
        <time>2021-07-30T11:27:14Z</time>
      </trkpt>
      <trkpt lat="48.79004" lon="6.51617">
        <ele>258.3</ele>
        <time>2021-07-30T11:27:16Z</time>
      </trkpt>
      <trkpt lat="48.79001" lon="6.51622">
        <ele>257.4</ele>
        <time>2021-07-30T11:27:17Z</time>
      </trkpt>
      <trkpt lat="48.78995" lon="6.51631">
        <ele>255.9</ele>
        <time>2021-07-30T11:27:18Z</time>
      </trkpt>
      <trkpt lat="48.7899" lon="6.51637">
        <ele>254.9</ele>
        <time>2021-07-30T11:27:20Z</time>
      </trkpt>
      <trkpt lat="48.78981" lon="6.51649">
        <ele>253</ele>
        <time>2021-07-30T11:27:22Z</time>
      </trkpt>
      <trkpt lat="48.7898" lon="6.51654">
        <ele>252.5</ele>
        <time>2021-07-30T11:27:23Z</time>
      </trkpt>
      <trkpt lat="48.78977" lon="6.51659">
        <ele>251.9</ele>
        <time>2021-07-30T11:27:24Z</time>
      </trkpt>
      <trkpt lat="48.78974" lon="6.51664">
        <ele>251.2</ele>
        <time>2021-07-30T11:27:25Z</time>
      </trkpt>
      <trkpt lat="48.7897" lon="6.51669">
        <ele>250.4</ele>
        <time>2021-07-30T11:27:26Z</time>
      </trkpt>
      <trkpt lat="48.78965" lon="6.51676">
        <ele>249.6</ele>
        <time>2021-07-30T11:27:27Z</time>
      </trkpt>
      <trkpt lat="48.78962" lon="6.51681">
        <ele>248.9</ele>
        <time>2021-07-30T11:27:28Z</time>
      </trkpt>
      <trkpt lat="48.78959" lon="6.51687">
        <ele>248.1</ele>
        <time>2021-07-30T11:27:30Z</time>
      </trkpt>
      <trkpt lat="48.78958" lon="6.5169">
        <ele>247.8</ele>
        <time>2021-07-30T11:27:31Z</time>
      </trkpt>
      <trkpt lat="48.78957" lon="6.51692">
        <ele>247.5</ele>
        <time>2021-07-30T11:27:32Z</time>
      </trkpt>
      <trkpt lat="48.78956" lon="6.51696">
        <ele>247.1</ele>
        <time>2021-07-30T11:27:33Z</time>
      </trkpt>
      <trkpt lat="48.78954" lon="6.51701">
        <ele>246.5</ele>
        <time>2021-07-30T11:27:35Z</time>
      </trkpt>
      <trkpt lat="48.78951" lon="6.51705">
        <ele>246</ele>
        <time>2021-07-30T11:27:36Z</time>
      </trkpt>
      <trkpt lat="48.78944" lon="6.51714">
        <ele>244.7</ele>
        <time>2021-07-30T11:27:38Z</time>
      </trkpt>
      <trkpt lat="48.78937" lon="6.51723">
        <ele>243.4</ele>
        <time>2021-07-30T11:27:40Z</time>
      </trkpt>
      <trkpt lat="48.78934" lon="6.51728">
        <ele>242.7</ele>
        <time>2021-07-30T11:27:41Z</time>
      </trkpt>
      <trkpt lat="48.78927" lon="6.51737">
        <ele>241.4</ele>
        <time>2021-07-30T11:27:43Z</time>
      </trkpt>
      <trkpt lat="48.78919" lon="6.51747">
        <ele>239.9</ele>
        <time>2021-07-30T11:27:45Z</time>
      </trkpt>
      <trkpt lat="48.78911" lon="6.51758">
        <ele>238.5</ele>
        <time>2021-07-30T11:27:47Z</time>
      </trkpt>
      <trkpt lat="48.78902" lon="6.51768">
        <ele>237.2</ele>
        <time>2021-07-30T11:27:49Z</time>
      </trkpt>
      <trkpt lat="48.7889" lon="6.51777">
        <ele>235.8</ele>
        <time>2021-07-30T11:27:51Z</time>
      </trkpt>
      <trkpt lat="48.78879" lon="6.51787">
        <ele>234.7</ele>
        <time>2021-07-30T11:27:53Z</time>
      </trkpt>
      <trkpt lat="48.78868" lon="6.51796">
        <ele>233.5</ele>
        <time>2021-07-30T11:27:55Z</time>
      </trkpt>
      <trkpt lat="48.78857" lon="6.51808">
        <ele>232.4</ele>
        <time>2021-07-30T11:27:57Z</time>
      </trkpt>
      <trkpt lat="48.78851" lon="6.51814">
        <ele>231.9</ele>
        <time>2021-07-30T11:27:58Z</time>
      </trkpt>
      <trkpt lat="48.78845" lon="6.51819">
        <ele>231.5</ele>
        <time>2021-07-30T11:27:59Z</time>
      </trkpt>
      <trkpt lat="48.78834" lon="6.51829">
        <ele>230.6</ele>
        <time>2021-07-30T11:28:01Z</time>
      </trkpt>
      <trkpt lat="48.78824" lon="6.51838">
        <ele>229.6</ele>
        <time>2021-07-30T11:28:03Z</time>
      </trkpt>
      <trkpt lat="48.78819" lon="6.51843">
        <ele>229.1</ele>
        <time>2021-07-30T11:28:04Z</time>
      </trkpt>
      <trkpt lat="48.78809" lon="6.51854">
        <ele>228</ele>
        <time>2021-07-30T11:28:06Z</time>
      </trkpt>
      <trkpt lat="48.78805" lon="6.51859">
        <ele>227.5</ele>
        <time>2021-07-30T11:28:07Z</time>
      </trkpt>
      <trkpt lat="48.78796" lon="6.51869">
        <ele>226.6</ele>
        <time>2021-07-30T11:28:09Z</time>
      </trkpt>
      <trkpt lat="48.78787" lon="6.51875">
        <ele>225.9</ele>
        <time>2021-07-30T11:28:11Z</time>
      </trkpt>
      <trkpt lat="48.78779" lon="6.51876">
        <ele>225.2</ele>
        <time>2021-07-30T11:28:13Z</time>
      </trkpt>
      <trkpt lat="48.78773" lon="6.51868">
        <ele>224.7</ele>
        <time>2021-07-30T11:28:15Z</time>
      </trkpt>
      <trkpt lat="48.7877" lon="6.51861">
        <ele>224.2</ele>
        <time>2021-07-30T11:28:17Z</time>
      </trkpt>
      <trkpt lat="48.78767" lon="6.51858">
        <ele>223.5</ele>
        <time>2021-07-30T11:28:19Z</time>
      </trkpt>
      <trkpt lat="48.78765" lon="6.51859">
        <ele>223.4</ele>
        <time>2021-07-30T11:28:21Z</time>
      </trkpt>
      <trkpt lat="48.78763" lon="6.5186">
        <ele>223.2</ele>
        <time>2021-07-30T11:28:22Z</time>
      </trkpt>
      <trkpt lat="48.78761" lon="6.51861">
        <ele>223.1</ele>
        <time>2021-07-30T11:28:23Z</time>
      </trkpt>
      <trkpt lat="48.78758" lon="6.5187">
        <ele>222.6</ele>
        <time>2021-07-30T11:28:25Z</time>
      </trkpt>
      <trkpt lat="48.78753" lon="6.51881">
        <ele>222</ele>
        <time>2021-07-30T11:28:27Z</time>
      </trkpt>
      <trkpt lat="48.7875" lon="6.51888">
        <ele>221.5</ele>
        <time>2021-07-30T11:28:28Z</time>
      </trkpt>
      <trkpt lat="48.78746" lon="6.51895">
        <ele>221</ele>
        <time>2021-07-30T11:28:29Z</time>
      </trkpt>
      <trkpt lat="48.78738" lon="6.5191">
        <ele>220</ele>
        <time>2021-07-30T11:28:31Z</time>
      </trkpt>
      <trkpt lat="48.78734" lon="6.51918">
        <ele>219.3</ele>
        <time>2021-07-30T11:28:32Z</time>
      </trkpt>
      <trkpt lat="48.78731" lon="6.51927">
        <ele>218.7</ele>
        <time>2021-07-30T11:28:33Z</time>
      </trkpt>
      <trkpt lat="48.78724" lon="6.51945">
        <ele>217.4</ele>
        <time>2021-07-30T11:28:35Z</time>
      </trkpt>
      <trkpt lat="48.78719" lon="6.51955">
        <ele>216.6</ele>
        <time>2021-07-30T11:28:36Z</time>
      </trkpt>
      <trkpt lat="48.78715" lon="6.51966">
        <ele>215.7</ele>
        <time>2021-07-30T11:28:37Z</time>
      </trkpt>
      <trkpt lat="48.78704" lon="6.51988">
        <ele>213.6</ele>
        <time>2021-07-30T11:28:39Z</time>
      </trkpt>
      <trkpt lat="48.78698" lon="6.52">
        <ele>212.5</ele>
        <time>2021-07-30T11:28:40Z</time>
      </trkpt>
      <trkpt lat="48.78693" lon="6.52012">
        <ele>211.4</ele>
        <time>2021-07-30T11:28:41Z</time>
      </trkpt>
      <trkpt lat="48.78687" lon="6.52024">
        <ele>210.4</ele>
        <time>2021-07-30T11:28:42Z</time>
      </trkpt>
      <trkpt lat="48.78682" lon="6.52037">
        <ele>209.5</ele>
        <time>2021-07-30T11:28:43Z</time>
      </trkpt>
      <trkpt lat="48.78673" lon="6.52064">
        <ele>208</ele>
        <time>2021-07-30T11:28:45Z</time>
      </trkpt>
      <trkpt lat="48.78669" lon="6.52079">
        <ele>207.4</ele>
        <time>2021-07-30T11:28:46Z</time>
      </trkpt>
      <trkpt lat="48.78665" lon="6.52093">
        <ele>206.9</ele>
        <time>2021-07-30T11:28:47Z</time>
      </trkpt>
      <trkpt lat="48.7866" lon="6.52122">
        <ele>206.3</ele>
        <time>2021-07-30T11:28:49Z</time>
      </trkpt>
      <trkpt lat="48.78658" lon="6.52152">
        <ele>206.2</ele>
        <time>2021-07-30T11:28:51Z</time>
      </trkpt>
      <trkpt lat="48.78657" lon="6.52167">
        <ele>206.5</ele>
        <time>2021-07-30T11:28:52Z</time>
      </trkpt>
      <trkpt lat="48.78658" lon="6.52181">
        <ele>206.8</ele>
        <time>2021-07-30T11:28:53Z</time>
      </trkpt>
      <trkpt lat="48.7866" lon="6.52208">
        <ele>207.8</ele>
        <time>2021-07-30T11:28:55Z</time>
      </trkpt>
      <trkpt lat="48.78663" lon="6.52234">
        <ele>209</ele>
        <time>2021-07-30T11:28:57Z</time>
      </trkpt>
      <trkpt lat="48.78665" lon="6.52245">
        <ele>209.6</ele>
        <time>2021-07-30T11:28:58Z</time>
      </trkpt>
      <trkpt lat="48.78666" lon="6.52255">
        <ele>210.2</ele>
        <time>2021-07-30T11:28:59Z</time>
      </trkpt>
      <trkpt lat="48.78668" lon="6.52272">
        <ele>211.4</ele>
        <time>2021-07-30T11:29:01Z</time>
      </trkpt>
      <trkpt lat="48.78667" lon="6.52287">
        <ele>212.4</ele>
        <time>2021-07-30T11:29:03Z</time>
      </trkpt>
      <trkpt lat="48.78667" lon="6.52294">
        <ele>212.9</ele>
        <time>2021-07-30T11:29:04Z</time>
      </trkpt>
      <trkpt lat="48.78665" lon="6.52305">
        <ele>213.8</ele>
        <time>2021-07-30T11:29:06Z</time>
      </trkpt>
      <trkpt lat="48.78664" lon="6.52311">
        <ele>214.3</ele>
        <time>2021-07-30T11:29:07Z</time>
      </trkpt>
      <trkpt lat="48.7866" lon="6.52318">
        <ele>214.9</ele>
        <time>2021-07-30T11:29:09Z</time>
      </trkpt>
      <trkpt lat="48.78658" lon="6.52327">
        <ele>215.7</ele>
        <time>2021-07-30T11:29:11Z</time>
      </trkpt>
      <trkpt lat="48.78656" lon="6.52331">
        <ele>216.1</ele>
        <time>2021-07-30T11:29:12Z</time>
      </trkpt>
      <trkpt lat="48.78657" lon="6.52332">
        <ele>216.2</ele>
        <time>2021-07-30T11:29:13Z</time>
      </trkpt>
      <trkpt lat="48.78655" lon="6.52336">
        <ele>216.6</ele>
        <time>2021-07-30T11:29:14Z</time>
      </trkpt>
      <trkpt lat="48.78653" lon="6.52341">
        <ele>217.1</ele>
        <time>2021-07-30T11:29:15Z</time>
      </trkpt>
      <trkpt lat="48.78652" lon="6.52346">
        <ele>217.5</ele>
        <time>2021-07-30T11:29:17Z</time>
      </trkpt>
      <trkpt lat="48.78651" lon="6.52353">
        <ele>218</ele>
        <time>2021-07-30T11:29:19Z</time>
      </trkpt>
      <trkpt lat="48.7865" lon="6.52357">
        <ele>218.2</ele>
        <time>2021-07-30T11:29:20Z</time>
      </trkpt>
      <trkpt lat="48.78649" lon="6.52363">
        <ele>218.7</ele>
        <time>2021-07-30T11:29:22Z</time>
      </trkpt>
      <trkpt lat="48.78648" lon="6.52366">
        <ele>218.8</ele>
        <time>2021-07-30T11:29:23Z</time>
      </trkpt>
      <trkpt lat="48.78649" lon="6.52371">
        <ele>219.2</ele>
        <time>2021-07-30T11:29:25Z</time>
      </trkpt>
      <trkpt lat="48.78652" lon="6.52377">
        <ele>219.6</ele>
        <time>2021-07-30T11:29:27Z</time>
      </trkpt>
      <trkpt lat="48.78653" lon="6.52379">
        <ele>219.8</ele>
        <time>2021-07-30T11:29:29Z</time>
      </trkpt>
      <trkpt lat="48.78654" lon="6.52381">
        <ele>219.9</ele>
        <time>2021-07-30T11:29:30Z</time>
      </trkpt>
      <trkpt lat="48.78654" lon="6.52384">
        <ele>220.1</ele>
        <time>2021-07-30T11:29:31Z</time>
      </trkpt>
      <trkpt lat="48.78656" lon="6.52388">
        <ele>220.4</ele>
        <time>2021-07-30T11:29:33Z</time>
      </trkpt>
      <trkpt lat="48.78656" lon="6.52389">
        <ele>220.4</ele>
        <time>2021-07-30T11:29:34Z</time>
      </trkpt>
      <trkpt lat="48.78657" lon="6.5239">
        <ele>220.5</ele>
        <time>2021-07-30T11:29:35Z</time>
      </trkpt>
      <trkpt lat="48.78657" lon="6.52394">
        <ele>220.7</ele>
        <time>2021-07-30T11:29:37Z</time>
      </trkpt>
      <trkpt lat="48.78656" lon="6.52396">
        <ele>220.8</ele>
        <time>2021-07-30T11:29:39Z</time>
      </trkpt>
      <trkpt lat="48.78654" lon="6.524">
        <ele>221</ele>
        <time>2021-07-30T11:29:41Z</time>
      </trkpt>
      <trkpt lat="48.78653" lon="6.52406">
        <ele>221.3</ele>
        <time>2021-07-30T11:29:43Z</time>
      </trkpt>
      <trkpt lat="48.78654" lon="6.52408">
        <ele>221.4</ele>
        <time>2021-07-30T11:29:44Z</time>
      </trkpt>
      <trkpt lat="48.78654" lon="6.5241">
        <ele>221.5</ele>
        <time>2021-07-30T11:29:45Z</time>
      </trkpt>
      <trkpt lat="48.78653" lon="6.52414">
        <ele>221.7</ele>
        <time>2021-07-30T11:29:47Z</time>
      </trkpt>
      <trkpt lat="48.78652" lon="6.52416">
        <ele>221.8</ele>
        <time>2021-07-30T11:29:48Z</time>
      </trkpt>
      <trkpt lat="48.78651" lon="6.52418">
        <ele>221.9</ele>
        <time>2021-07-30T11:29:49Z</time>
      </trkpt>
      <trkpt lat="48.78649" lon="6.52419">
        <ele>222</ele>
        <time>2021-07-30T11:29:51Z</time>
      </trkpt>
      <trkpt lat="48.78648" lon="6.52421">
        <ele>222.1</ele>
        <time>2021-07-30T11:29:52Z</time>
      </trkpt>
      <trkpt lat="48.78647" lon="6.52423">
        <ele>222.2</ele>
        <time>2021-07-30T11:29:53Z</time>
      </trkpt>
      <trkpt lat="48.78646" lon="6.52425">
        <ele>222.3</ele>
        <time>2021-07-30T11:29:54Z</time>
      </trkpt>
      <trkpt lat="48.78645" lon="6.52427">
        <ele>222.4</ele>
        <time>2021-07-30T11:29:55Z</time>
      </trkpt>
      <trkpt lat="48.78643" lon="6.5243">
        <ele>222.6</ele>
        <time>2021-07-30T11:29:57Z</time>
      </trkpt>
      <trkpt lat="48.78641" lon="6.52434">
        <ele>222.7</ele>
        <time>2021-07-30T11:29:58Z</time>
      </trkpt>
      <trkpt lat="48.78639" lon="6.52437">
        <ele>222.9</ele>
        <time>2021-07-30T11:30:00Z</time>
      </trkpt>
      <trkpt lat="48.78638" lon="6.52438">
        <ele>222.9</ele>
        <time>2021-07-30T11:30:01Z</time>
      </trkpt>
      <trkpt lat="48.78637" lon="6.52441">
        <ele>223</ele>
        <time>2021-07-30T11:30:02Z</time>
      </trkpt>
      <trkpt lat="48.78637" lon="6.52444">
        <ele>223.1</ele>
        <time>2021-07-30T11:30:03Z</time>
      </trkpt>
      <trkpt lat="48.78636" lon="6.52449">
        <ele>223.3</ele>
        <time>2021-07-30T11:30:05Z</time>
      </trkpt>
      <trkpt lat="48.78636" lon="6.52451">
        <ele>223.3</ele>
        <time>2021-07-30T11:30:06Z</time>
      </trkpt>
      <trkpt lat="48.78635" lon="6.52454">
        <ele>223.4</ele>
        <time>2021-07-30T11:30:07Z</time>
      </trkpt>
      <trkpt lat="48.78634" lon="6.52456">
        <ele>223.5</ele>
        <time>2021-07-30T11:30:08Z</time>
      </trkpt>
      <trkpt lat="48.78632" lon="6.52459">
        <ele>223.6</ele>
        <time>2021-07-30T11:30:10Z</time>
      </trkpt>
      <trkpt lat="48.78631" lon="6.52462">
        <ele>223.8</ele>
        <time>2021-07-30T11:30:11Z</time>
      </trkpt>
      <trkpt lat="48.78629" lon="6.52467">
        <ele>223.9</ele>
        <time>2021-07-30T11:30:13Z</time>
      </trkpt>
      <trkpt lat="48.78629" lon="6.52469">
        <ele>224</ele>
        <time>2021-07-30T11:30:14Z</time>
      </trkpt>
      <trkpt lat="48.78629" lon="6.52473">
        <ele>224</ele>
        <time>2021-07-30T11:30:16Z</time>
      </trkpt>
      <trkpt lat="48.7863" lon="6.52476">
        <ele>224.1</ele>
        <time>2021-07-30T11:30:17Z</time>
      </trkpt>
      <trkpt lat="48.78629" lon="6.52478">
        <ele>224.2</ele>
        <time>2021-07-30T11:30:18Z</time>
      </trkpt>
      <trkpt lat="48.78629" lon="6.5248">
        <ele>224.2</ele>
        <time>2021-07-30T11:30:20Z</time>
      </trkpt>
      <trkpt lat="48.78628" lon="6.52483">
        <ele>224.3</ele>
        <time>2021-07-30T11:30:21Z</time>
      </trkpt>
      <trkpt lat="48.78628" lon="6.52486">
        <ele>224.4</ele>
        <time>2021-07-30T11:30:22Z</time>
      </trkpt>
      <trkpt lat="48.78627" lon="6.52488">
        <ele>224.4</ele>
        <time>2021-07-30T11:30:23Z</time>
      </trkpt>
      <trkpt lat="48.78627" lon="6.52489">
        <ele>224.4</ele>
        <time>2021-07-30T11:30:24Z</time>
      </trkpt>
      <trkpt lat="48.78625" lon="6.52493">
        <ele>224.5</ele>
        <time>2021-07-30T11:30:26Z</time>
      </trkpt>
      <trkpt lat="48.78625" lon="6.52494">
        <ele>224.5</ele>
        <time>2021-07-30T11:30:27Z</time>
      </trkpt>
      <trkpt lat="48.78624" lon="6.52496">
        <ele>224.6</ele>
        <time>2021-07-30T11:30:29Z</time>
      </trkpt>
      <trkpt lat="48.78624" lon="6.52499">
        <ele>224.6</ele>
        <time>2021-07-30T11:30:30Z</time>
      </trkpt>
      <trkpt lat="48.78623" lon="6.52505">
        <ele>224.7</ele>
        <time>2021-07-30T11:30:32Z</time>
      </trkpt>
      <trkpt lat="48.78624" lon="6.52509">
        <ele>224.8</ele>
        <time>2021-07-30T11:30:33Z</time>
      </trkpt>
      <trkpt lat="48.78624" lon="6.5251">
        <ele>224.8</ele>
        <time>2021-07-30T11:30:34Z</time>
      </trkpt>
      <trkpt lat="48.78625" lon="6.52514">
        <ele>224.9</ele>
        <time>2021-07-30T11:30:35Z</time>
      </trkpt>
      <trkpt lat="48.78624" lon="6.5252">
        <ele>225</ele>
        <time>2021-07-30T11:30:36Z</time>
      </trkpt>
      <trkpt lat="48.78624" lon="6.52521">
        <ele>225</ele>
        <time>2021-07-30T11:30:37Z</time>
      </trkpt>
      <trkpt lat="48.78624" lon="6.52526">
        <ele>225</ele>
        <time>2021-07-30T11:30:39Z</time>
      </trkpt>
      <trkpt lat="48.78624" lon="6.52531">
        <ele>225.1</ele>
        <time>2021-07-30T11:30:40Z</time>
      </trkpt>
      <trkpt lat="48.78624" lon="6.52538">
        <ele>225.2</ele>
        <time>2021-07-30T11:30:42Z</time>
      </trkpt>
      <trkpt lat="48.78622" lon="6.52546">
        <ele>225.2</ele>
        <time>2021-07-30T11:30:44Z</time>
      </trkpt>
      <trkpt lat="48.78622" lon="6.52553">
        <ele>225.3</ele>
        <time>2021-07-30T11:30:46Z</time>
      </trkpt>
      <trkpt lat="48.78623" lon="6.52557">
        <ele>225.3</ele>
        <time>2021-07-30T11:30:47Z</time>
      </trkpt>
      <trkpt lat="48.78622" lon="6.52565">
        <ele>225.4</ele>
        <time>2021-07-30T11:30:49Z</time>
      </trkpt>
      <trkpt lat="48.78622" lon="6.52572">
        <ele>225.4</ele>
        <time>2021-07-30T11:30:51Z</time>
      </trkpt>
      <trkpt lat="48.78622" lon="6.52576">
        <ele>225.4</ele>
        <time>2021-07-30T11:30:52Z</time>
      </trkpt>
      <trkpt lat="48.78621" lon="6.52584">
        <ele>225.4</ele>
        <time>2021-07-30T11:30:54Z</time>
      </trkpt>
      <trkpt lat="48.78621" lon="6.52588">
        <ele>225.4</ele>
        <time>2021-07-30T11:30:55Z</time>
      </trkpt>
      <trkpt lat="48.78621" lon="6.52596">
        <ele>225.3</ele>
        <time>2021-07-30T11:30:57Z</time>
      </trkpt>
      <trkpt lat="48.7862" lon="6.52601">
        <ele>225.2</ele>
        <time>2021-07-30T11:30:58Z</time>
      </trkpt>
      <trkpt lat="48.7862" lon="6.52606">
        <ele>225.2</ele>
        <time>2021-07-30T11:30:59Z</time>
      </trkpt>
      <trkpt lat="48.78619" lon="6.52614">
        <ele>225</ele>
        <time>2021-07-30T11:31:01Z</time>
      </trkpt>
      <trkpt lat="48.78617" lon="6.52622">
        <ele>224.8</ele>
        <time>2021-07-30T11:31:02Z</time>
      </trkpt>
      <trkpt lat="48.78616" lon="6.52627">
        <ele>224.7</ele>
        <time>2021-07-30T11:31:04Z</time>
      </trkpt>
      <trkpt lat="48.78615" lon="6.52631">
        <ele>224.6</ele>
        <time>2021-07-30T11:31:05Z</time>
      </trkpt>
      <trkpt lat="48.78612" lon="6.52632">
        <ele>224.4</ele>
        <time>2021-07-30T11:31:07Z</time>
      </trkpt>
      <trkpt lat="48.78611" lon="6.52641">
        <ele>224</ele>
        <time>2021-07-30T11:31:08Z</time>
      </trkpt>
      <trkpt lat="48.7861" lon="6.52646">
        <ele>223.8</ele>
        <time>2021-07-30T11:31:10Z</time>
      </trkpt>
      <trkpt lat="48.7861" lon="6.52651">
        <ele>223.3</ele>
        <time>2021-07-30T11:31:11Z</time>
      </trkpt>
      <trkpt lat="48.78609" lon="6.52656">
        <ele>223</ele>
        <time>2021-07-30T11:31:12Z</time>
      </trkpt>
      <trkpt lat="48.78608" lon="6.52661">
        <ele>222.7</ele>
        <time>2021-07-30T11:31:13Z</time>
      </trkpt>
      <trkpt lat="48.78607" lon="6.52666">
        <ele>222.4</ele>
        <time>2021-07-30T11:31:15Z</time>
      </trkpt>
      <trkpt lat="48.78607" lon="6.52671">
        <ele>222</ele>
        <time>2021-07-30T11:31:16Z</time>
      </trkpt>
      <trkpt lat="48.78606" lon="6.52676">
        <ele>221.7</ele>
        <time>2021-07-30T11:31:18Z</time>
      </trkpt>
      <trkpt lat="48.78605" lon="6.52681">
        <ele>221.3</ele>
        <time>2021-07-30T11:32:10Z</time>
      </trkpt>
      <trkpt lat="48.78604" lon="6.52686">
        <ele>221</ele>
        <time>2021-07-30T11:32:12Z</time>
      </trkpt>
      <trkpt lat="48.78596" lon="6.52706">
        <ele>219.4</ele>
        <time>2021-07-30T11:32:14Z</time>
      </trkpt>
      <trkpt lat="48.78592" lon="6.52714">
        <ele>218.8</ele>
        <time>2021-07-30T11:32:15Z</time>
      </trkpt>
      <trkpt lat="48.78588" lon="6.52721">
        <ele>218.2</ele>
        <time>2021-07-30T11:32:16Z</time>
      </trkpt>
      <trkpt lat="48.78582" lon="6.52731">
        <ele>217.5</ele>
        <time>2021-07-30T11:32:18Z</time>
      </trkpt>
      <trkpt lat="48.78579" lon="6.52742">
        <ele>216.9</ele>
        <time>2021-07-30T11:32:20Z</time>
      </trkpt>
      <trkpt lat="48.78577" lon="6.52748">
        <ele>216.5</ele>
        <time>2021-07-30T11:32:21Z</time>
      </trkpt>
      <trkpt lat="48.78577" lon="6.52757">
        <ele>216.1</ele>
        <time>2021-07-30T11:32:23Z</time>
      </trkpt>
      <trkpt lat="48.78579" lon="6.52762">
        <ele>216.7</ele>
        <time>2021-07-30T11:32:24Z</time>
      </trkpt>
      <trkpt lat="48.78582" lon="6.52765">
        <ele>217.1</ele>
        <time>2021-07-30T11:32:26Z</time>
      </trkpt>
      <trkpt lat="48.78588" lon="6.52763">
        <ele>217.8</ele>
        <time>2021-07-30T11:32:28Z</time>
      </trkpt>
      <trkpt lat="48.78592" lon="6.5276">
        <ele>218.2</ele>
        <time>2021-07-30T11:32:29Z</time>
      </trkpt>
      <trkpt lat="48.78595" lon="6.52758">
        <ele>218.6</ele>
        <time>2021-07-30T11:32:30Z</time>
      </trkpt>
      <trkpt lat="48.78597" lon="6.52756">
        <ele>219</ele>
        <time>2021-07-30T11:32:32Z</time>
      </trkpt>
      <trkpt lat="48.786" lon="6.52753">
        <ele>219.4</ele>
        <time>2021-07-30T11:32:34Z</time>
      </trkpt>
      <trkpt lat="48.78603" lon="6.5275">
        <ele>219.8</ele>
        <time>2021-07-30T11:32:35Z</time>
      </trkpt>
      <trkpt lat="48.78604" lon="6.52748">
        <ele>219.9</ele>
        <time>2021-07-30T11:32:36Z</time>
      </trkpt>
      <trkpt lat="48.78604" lon="6.52747">
        <ele>220.1</ele>
        <time>2021-07-30T11:32:38Z</time>
      </trkpt>
      <trkpt lat="48.78605" lon="6.52746">
        <ele>220.2</ele>
        <time>2021-07-30T11:32:39Z</time>
      </trkpt>
      <trkpt lat="48.78607" lon="6.52746">
        <ele>220.4</ele>
        <time>2021-07-30T11:32:40Z</time>
      </trkpt>
      <trkpt lat="48.78609" lon="6.52745">
        <ele>220.6</ele>
        <time>2021-07-30T11:32:41Z</time>
      </trkpt>
      <trkpt lat="48.78611" lon="6.52744">
        <ele>220.9</ele>
        <time>2021-07-30T11:32:43Z</time>
      </trkpt>
      <trkpt lat="48.78612" lon="6.52744">
        <ele>221.1</ele>
        <time>2021-07-30T11:32:44Z</time>
      </trkpt>
      <trkpt lat="48.78613" lon="6.52744">
        <ele>221.3</ele>
        <time>2021-07-30T11:32:45Z</time>
      </trkpt>
      <trkpt lat="48.78615" lon="6.52744">
        <ele>221.5</ele>
        <time>2021-07-30T11:32:46Z</time>
      </trkpt>
      <trkpt lat="48.78617" lon="6.52742">
        <ele>221.7</ele>
        <time>2021-07-30T11:32:48Z</time>
      </trkpt>
      <trkpt lat="48.7862" lon="6.52741">
        <ele>222.2</ele>
        <time>2021-07-30T11:32:49Z</time>
      </trkpt>
      <trkpt lat="48.78621" lon="6.5274">
        <ele>222.3</ele>
        <time>2021-07-30T11:32:50Z</time>
      </trkpt>
      <trkpt lat="48.78622" lon="6.52741">
        <ele>222.4</ele>
        <time>2021-07-30T11:32:51Z</time>
      </trkpt>
      <trkpt lat="48.78622" lon="6.52741">
        <ele>222.5</ele>
        <time>2021-07-30T11:32:53Z</time>
      </trkpt>
      <trkpt lat="48.78623" lon="6.52741">
        <ele>222.5</ele>
        <time>2021-07-30T11:32:54Z</time>
      </trkpt>
      <trkpt lat="48.78623" lon="6.52741">
        <ele>222.6</ele>
        <time>2021-07-30T11:32:55Z</time>
      </trkpt>
      <trkpt lat="48.78624" lon="6.52741">
        <ele>222.7</ele>
        <time>2021-07-30T11:32:56Z</time>
      </trkpt>
      <trkpt lat="48.78624" lon="6.52741">
        <ele>222.7</ele>
        <time>2021-07-30T11:32:57Z</time>
      </trkpt>
      <trkpt lat="48.78625" lon="6.52741">
        <ele>222.9</ele>
        <time>2021-07-30T11:32:59Z</time>
      </trkpt>
      <trkpt lat="48.78627" lon="6.52741">
        <ele>223.1</ele>
        <time>2021-07-30T11:33:01Z</time>
      </trkpt>
      <trkpt lat="48.78539" lon="6.52773">
        <ele>212.6</ele>
        <time>2021-07-30T11:35:04Z</time>
      </trkpt>
      <trkpt lat="48.7853" lon="6.52781">
        <ele>211.6</ele>
        <time>2021-07-30T11:35:05Z</time>
      </trkpt>
      <trkpt lat="48.78526" lon="6.52792">
        <ele>211.2</ele>
        <time>2021-07-30T11:35:06Z</time>
      </trkpt>
      <trkpt lat="48.78525" lon="6.52802">
        <ele>210.8</ele>
        <time>2021-07-30T11:35:08Z</time>
      </trkpt>
      <trkpt lat="48.7852" lon="6.52812">
        <ele>210.3</ele>
        <time>2021-07-30T11:35:10Z</time>
      </trkpt>
      <trkpt lat="48.78518" lon="6.52821">
        <ele>209.9</ele>
        <time>2021-07-30T11:35:12Z</time>
      </trkpt>
      <trkpt lat="48.78512" lon="6.52842">
        <ele>208</ele>
        <time>2021-07-30T11:35:14Z</time>
      </trkpt>
      <trkpt lat="48.78506" lon="6.52857">
        <ele>206.6</ele>
        <time>2021-07-30T11:35:16Z</time>
      </trkpt>
      <trkpt lat="48.78496" lon="6.5287">
        <ele>206.1</ele>
        <time>2021-07-30T11:35:18Z</time>
      </trkpt>
      <trkpt lat="48.78486" lon="6.52883">
        <ele>205.8</ele>
        <time>2021-07-30T11:35:20Z</time>
      </trkpt>
      <trkpt lat="48.78481" lon="6.5289">
        <ele>205.6</ele>
        <time>2021-07-30T11:35:21Z</time>
      </trkpt>
      <trkpt lat="48.78475" lon="6.52893">
        <ele>205.6</ele>
        <time>2021-07-30T11:35:22Z</time>
      </trkpt>
      <trkpt lat="48.7847" lon="6.52898">
        <ele>205.5</ele>
        <time>2021-07-30T11:35:23Z</time>
      </trkpt>
      <trkpt lat="48.78463" lon="6.52906">
        <ele>205.4</ele>
        <time>2021-07-30T11:35:24Z</time>
      </trkpt>
      <trkpt lat="48.78446" lon="6.52923">
        <ele>205.1</ele>
        <time>2021-07-30T11:35:26Z</time>
      </trkpt>
      <trkpt lat="48.78439" lon="6.52929">
        <ele>204.9</ele>
        <time>2021-07-30T11:35:27Z</time>
      </trkpt>
      <trkpt lat="48.78433" lon="6.52934">
        <ele>204.8</ele>
        <time>2021-07-30T11:35:28Z</time>
      </trkpt>
      <trkpt lat="48.78425" lon="6.52945">
        <ele>204.5</ele>
        <time>2021-07-30T11:35:30Z</time>
      </trkpt>
      <trkpt lat="48.78416" lon="6.52955">
        <ele>204.2</ele>
        <time>2021-07-30T11:35:32Z</time>
      </trkpt>
      <trkpt lat="48.78412" lon="6.52961">
        <ele>204</ele>
        <time>2021-07-30T11:35:33Z</time>
      </trkpt>
      <trkpt lat="48.78406" lon="6.52964">
        <ele>203.9</ele>
        <time>2021-07-30T11:35:34Z</time>
      </trkpt>
      <trkpt lat="48.78395" lon="6.52972">
        <ele>203.6</ele>
        <time>2021-07-30T11:35:36Z</time>
      </trkpt>
      <trkpt lat="48.7839" lon="6.52976">
        <ele>203.5</ele>
        <time>2021-07-30T11:35:37Z</time>
      </trkpt>
      <trkpt lat="48.7838" lon="6.52983">
        <ele>203.3</ele>
        <time>2021-07-30T11:35:39Z</time>
      </trkpt>
      <trkpt lat="48.78377" lon="6.52984">
        <ele>203.2</ele>
        <time>2021-07-30T11:35:40Z</time>
      </trkpt>
      <trkpt lat="48.78375" lon="6.52985">
        <ele>203.2</ele>
        <time>2021-07-30T11:35:41Z</time>
      </trkpt>
      <trkpt lat="48.78371" lon="6.52989">
        <ele>203.1</ele>
        <time>2021-07-30T11:35:42Z</time>
      </trkpt>
      <trkpt lat="48.78363" lon="6.52994">
        <ele>203.1</ele>
        <time>2021-07-30T11:35:44Z</time>
      </trkpt>
      <trkpt lat="48.78357" lon="6.52998">
        <ele>203.1</ele>
        <time>2021-07-30T11:35:46Z</time>
      </trkpt>
      <trkpt lat="48.78354" lon="6.53001">
        <ele>203.1</ele>
        <time>2021-07-30T11:35:47Z</time>
      </trkpt>
      <trkpt lat="48.78357" lon="6.53052">
        <ele>203</ele>
        <time>2021-07-30T11:36:00Z</time>
      </trkpt>
      <trkpt lat="48.78356" lon="6.5306">
        <ele>203</ele>
        <time>2021-07-30T11:36:01Z</time>
      </trkpt>
      <trkpt lat="48.78357" lon="6.53073">
        <ele>203</ele>
        <time>2021-07-30T11:36:03Z</time>
      </trkpt>
      <trkpt lat="48.78358" lon="6.5308">
        <ele>203</ele>
        <time>2021-07-30T11:36:04Z</time>
      </trkpt>
      <trkpt lat="48.78359" lon="6.53086">
        <ele>203</ele>
        <time>2021-07-30T11:36:05Z</time>
      </trkpt>
      <trkpt lat="48.78361" lon="6.53093">
        <ele>203</ele>
        <time>2021-07-30T11:36:07Z</time>
      </trkpt>
      <trkpt lat="48.78363" lon="6.53104">
        <ele>203</ele>
        <time>2021-07-30T11:36:08Z</time>
      </trkpt>
      <trkpt lat="48.78365" lon="6.53109">
        <ele>203</ele>
        <time>2021-07-30T11:36:09Z</time>
      </trkpt>
      <trkpt lat="48.78367" lon="6.53117">
        <ele>202.9</ele>
        <time>2021-07-30T11:36:11Z</time>
      </trkpt>
      <trkpt lat="48.78369" lon="6.53123">
        <ele>202.9</ele>
        <time>2021-07-30T11:36:12Z</time>
      </trkpt>
      <trkpt lat="48.7837" lon="6.5313">
        <ele>202.9</ele>
        <time>2021-07-30T11:36:13Z</time>
      </trkpt>
      <trkpt lat="48.78372" lon="6.53138">
        <ele>202.9</ele>
        <time>2021-07-30T11:36:14Z</time>
      </trkpt>
      <trkpt lat="48.78374" lon="6.53145">
        <ele>202.8</ele>
        <time>2021-07-30T11:36:15Z</time>
      </trkpt>
      <trkpt lat="48.78378" lon="6.53158">
        <ele>202.8</ele>
        <time>2021-07-30T11:36:17Z</time>
      </trkpt>
      <trkpt lat="48.7838" lon="6.53163">
        <ele>202.8</ele>
        <time>2021-07-30T11:36:18Z</time>
      </trkpt>
      <trkpt lat="48.78383" lon="6.53169">
        <ele>202.8</ele>
        <time>2021-07-30T11:36:20Z</time>
      </trkpt>
      <trkpt lat="48.78386" lon="6.53175">
        <ele>202.8</ele>
        <time>2021-07-30T11:36:21Z</time>
      </trkpt>
      <trkpt lat="48.78388" lon="6.53181">
        <ele>202.8</ele>
        <time>2021-07-30T11:36:22Z</time>
      </trkpt>
      <trkpt lat="48.7839" lon="6.53185">
        <ele>202.8</ele>
        <time>2021-07-30T11:36:23Z</time>
      </trkpt>
      <trkpt lat="48.78395" lon="6.53195">
        <ele>202.8</ele>
        <time>2021-07-30T11:36:25Z</time>
      </trkpt>
      <trkpt lat="48.78399" lon="6.53207">
        <ele>202.8</ele>
        <time>2021-07-30T11:36:27Z</time>
      </trkpt>
      <trkpt lat="48.78402" lon="6.5322">
        <ele>202.9</ele>
        <time>2021-07-30T11:36:29Z</time>
      </trkpt>
      <trkpt lat="48.78403" lon="6.53225">
        <ele>202.9</ele>
        <time>2021-07-30T11:36:30Z</time>
      </trkpt>
      <trkpt lat="48.78406" lon="6.53238">
        <ele>202.9</ele>
        <time>2021-07-30T11:36:32Z</time>
      </trkpt>
      <trkpt lat="48.78407" lon="6.53244">
        <ele>203</ele>
        <time>2021-07-30T11:36:33Z</time>
      </trkpt>
      <trkpt lat="48.78409" lon="6.53249">
        <ele>203</ele>
        <time>2021-07-30T11:36:34Z</time>
      </trkpt>
      <trkpt lat="48.78411" lon="6.53253">
        <ele>203</ele>
        <time>2021-07-30T11:36:35Z</time>
      </trkpt>
      <trkpt lat="48.78414" lon="6.53256">
        <ele>203</ele>
        <time>2021-07-30T11:36:36Z</time>
      </trkpt>
      <trkpt lat="48.78419" lon="6.53262">
        <ele>203.4</ele>
        <time>2021-07-30T11:36:38Z</time>
      </trkpt>
      <trkpt lat="48.78423" lon="6.53264">
        <ele>203.4</ele>
        <time>2021-07-30T11:36:39Z</time>
      </trkpt>
      <trkpt lat="48.78431" lon="6.53267">
        <ele>203.6</ele>
        <time>2021-07-30T11:36:41Z</time>
      </trkpt>
      <trkpt lat="48.78435" lon="6.53267">
        <ele>203.7</ele>
        <time>2021-07-30T11:36:42Z</time>
      </trkpt>
      <trkpt lat="48.78439" lon="6.53267">
        <ele>203.8</ele>
        <time>2021-07-30T11:36:44Z</time>
      </trkpt>
      <trkpt lat="48.78441" lon="6.53266">
        <ele>203.9</ele>
        <time>2021-07-30T11:36:45Z</time>
      </trkpt>
      <trkpt lat="48.78442" lon="6.53265">
        <ele>203.9</ele>
        <time>2021-07-30T11:36:46Z</time>
      </trkpt>
      <trkpt lat="48.78444" lon="6.53264">
        <ele>203.9</ele>
        <time>2021-07-30T11:36:47Z</time>
      </trkpt>
      <trkpt lat="48.78446" lon="6.53263">
        <ele>204.3</ele>
        <time>2021-07-30T11:36:48Z</time>
      </trkpt>
      <trkpt lat="48.78451" lon="6.53258">
        <ele>204.4</ele>
        <time>2021-07-30T11:36:50Z</time>
      </trkpt>
      <trkpt lat="48.7845" lon="6.53257">
        <ele>204.5</ele>
        <time>2021-07-30T11:36:51Z</time>
      </trkpt>
      <trkpt lat="48.78449" lon="6.53258">
        <ele>204.5</ele>
        <time>2021-07-30T11:36:53Z</time>
      </trkpt>
      <trkpt lat="48.78448" lon="6.53259">
        <ele>204.5</ele>
        <time>2021-07-30T11:36:54Z</time>
      </trkpt>
      <trkpt lat="48.78448" lon="6.53261">
        <ele>204.5</ele>
        <time>2021-07-30T11:36:55Z</time>
      </trkpt>
      <trkpt lat="48.78449" lon="6.53265">
        <ele>204.6</ele>
        <time>2021-07-30T11:36:56Z</time>
      </trkpt>
      <trkpt lat="48.7845" lon="6.53267">
        <ele>204.6</ele>
        <time>2021-07-30T11:36:57Z</time>
      </trkpt>
      <trkpt lat="48.7845" lon="6.53267">
        <ele>204.6</ele>
        <time>2021-07-30T11:36:57Z</time>
      </trkpt>
      <trkpt lat="48.78452" lon="6.53272">
        <ele>204.7</ele>
        <time>2021-07-30T11:36:58Z</time>
      </trkpt>
      <trkpt lat="48.78456" lon="6.53279">
        <ele>204.8</ele>
        <time>2021-07-30T11:37:00Z</time>
      </trkpt>
      <trkpt lat="48.78459" lon="6.53283">
        <ele>204.9</ele>
        <time>2021-07-30T11:37:01Z</time>
      </trkpt>
      <trkpt lat="48.78462" lon="6.53286">
        <ele>205</ele>
        <time>2021-07-30T11:37:02Z</time>
      </trkpt>
      <trkpt lat="48.78465" lon="6.53288">
        <ele>205</ele>
        <time>2021-07-30T11:37:03Z</time>
      </trkpt>
      <trkpt lat="48.78469" lon="6.53289">
        <ele>205.1</ele>
        <time>2021-07-30T11:37:04Z</time>
      </trkpt>
      <trkpt lat="48.78472" lon="6.53289">
        <ele>205.1</ele>
        <time>2021-07-30T11:37:05Z</time>
      </trkpt>
      <trkpt lat="48.78475" lon="6.53289">
        <ele>205.2</ele>
        <time>2021-07-30T11:37:06Z</time>
      </trkpt>
      <trkpt lat="48.78479" lon="6.5329">
        <ele>205.2</ele>
        <time>2021-07-30T11:37:08Z</time>
      </trkpt>
      <trkpt lat="48.78482" lon="6.5329">
        <ele>205.3</ele>
        <time>2021-07-30T11:37:09Z</time>
      </trkpt>
      <trkpt lat="48.78485" lon="6.53291">
        <ele>205.3</ele>
        <time>2021-07-30T11:37:10Z</time>
      </trkpt>
      <trkpt lat="48.78489" lon="6.53293">
        <ele>205.3</ele>
        <time>2021-07-30T11:37:11Z</time>
      </trkpt>
      <trkpt lat="48.78493" lon="6.53296">
        <ele>205.4</ele>
        <time>2021-07-30T11:37:12Z</time>
      </trkpt>
      <trkpt lat="48.78495" lon="6.53297">
        <ele>205.4</ele>
        <time>2021-07-30T11:37:13Z</time>
      </trkpt>
      <trkpt lat="48.785" lon="6.53299">
        <ele>205.5</ele>
        <time>2021-07-30T11:37:15Z</time>
      </trkpt>
      <trkpt lat="48.78503" lon="6.53301">
        <ele>205.6</ele>
        <time>2021-07-30T11:37:16Z</time>
      </trkpt>
      <trkpt lat="48.78508" lon="6.53305">
        <ele>205.7</ele>
        <time>2021-07-30T11:37:18Z</time>
      </trkpt>
      <trkpt lat="48.7851" lon="6.53308">
        <ele>205.8</ele>
        <time>2021-07-30T11:37:19Z</time>
      </trkpt>
      <trkpt lat="48.78513" lon="6.5331">
        <ele>205.8</ele>
        <time>2021-07-30T11:37:20Z</time>
      </trkpt>
      <trkpt lat="48.78517" lon="6.53314">
        <ele>206</ele>
        <time>2021-07-30T11:37:22Z</time>
      </trkpt>
      <trkpt lat="48.78518" lon="6.53315">
        <ele>206</ele>
        <time>2021-07-30T11:37:23Z</time>
      </trkpt>
      <trkpt lat="48.78519" lon="6.53316">
        <ele>206</ele>
        <time>2021-07-30T11:37:24Z</time>
      </trkpt>
      <trkpt lat="48.78522" lon="6.5332">
        <ele>206.2</ele>
        <time>2021-07-30T11:37:25Z</time>
      </trkpt>
      <trkpt lat="48.78523" lon="6.53321">
        <ele>206.2</ele>
        <time>2021-07-30T11:37:26Z</time>
      </trkpt>
      <trkpt lat="48.78526" lon="6.53324">
        <ele>206.2</ele>
        <time>2021-07-30T11:37:27Z</time>
      </trkpt>
      <trkpt lat="48.78527" lon="6.53325">
        <ele>206.2</ele>
        <time>2021-07-30T11:37:28Z</time>
      </trkpt>
      <trkpt lat="48.78529" lon="6.53329">
        <ele>206.3</ele>
        <time>2021-07-30T11:37:30Z</time>
      </trkpt>
      <trkpt lat="48.78532" lon="6.53333">
        <ele>206.3</ele>
        <time>2021-07-30T11:37:31Z</time>
      </trkpt>
      <trkpt lat="48.78534" lon="6.53337">
        <ele>206.4</ele>
        <time>2021-07-30T11:37:32Z</time>
      </trkpt>
      <trkpt lat="48.78535" lon="6.53339">
        <ele>206.4</ele>
        <time>2021-07-30T11:37:33Z</time>
      </trkpt>
      <trkpt lat="48.78537" lon="6.53348">
        <ele>206.6</ele>
        <time>2021-07-30T11:37:35Z</time>
      </trkpt>
      <trkpt lat="48.78537" lon="6.53352">
        <ele>206.6</ele>
        <time>2021-07-30T11:37:36Z</time>
      </trkpt>
      <trkpt lat="48.78538" lon="6.53361">
        <ele>206.8</ele>
        <time>2021-07-30T11:37:38Z</time>
      </trkpt>
      <trkpt lat="48.78539" lon="6.53369">
        <ele>207</ele>
        <time>2021-07-30T11:37:40Z</time>
      </trkpt>
      <trkpt lat="48.78541" lon="6.53374">
        <ele>207.1</ele>
        <time>2021-07-30T11:37:41Z</time>
      </trkpt>
      <trkpt lat="48.78541" lon="6.53375">
        <ele>207.1</ele>
        <time>2021-07-30T11:37:42Z</time>
      </trkpt>
      <trkpt lat="48.78542" lon="6.53379">
        <ele>207.2</ele>
        <time>2021-07-30T11:37:43Z</time>
      </trkpt>
      <trkpt lat="48.78543" lon="6.5338">
        <ele>207.2</ele>
        <time>2021-07-30T11:37:44Z</time>
      </trkpt>
      <trkpt lat="48.78544" lon="6.53387">
        <ele>207.4</ele>
        <time>2021-07-30T11:37:46Z</time>
      </trkpt>
      <trkpt lat="48.78546" lon="6.53389">
        <ele>207.5</ele>
        <time>2021-07-30T11:37:48Z</time>
      </trkpt>
      <trkpt lat="48.78549" lon="6.5339">
        <ele>207.6</ele>
        <time>2021-07-30T11:37:49Z</time>
      </trkpt>
      <trkpt lat="48.7855" lon="6.5339">
        <ele>207.7</ele>
        <time>2021-07-30T11:37:50Z</time>
      </trkpt>
      <trkpt lat="48.78551" lon="6.5339">
        <ele>207.7</ele>
        <time>2021-07-30T11:37:52Z</time>
      </trkpt>
      <trkpt lat="48.78551" lon="6.53391">
        <ele>207.8</ele>
        <time>2021-07-30T11:37:53Z</time>
      </trkpt>
      <trkpt lat="48.78552" lon="6.53393">
        <ele>207.8</ele>
        <time>2021-07-30T11:37:54Z</time>
      </trkpt>
      <trkpt lat="48.78553" lon="6.53397">
        <ele>207.9</ele>
        <time>2021-07-30T11:37:55Z</time>
      </trkpt>
      <trkpt lat="48.78553" lon="6.53403">
        <ele>208.1</ele>
        <time>2021-07-30T11:37:56Z</time>
      </trkpt>
      <trkpt lat="48.78553" lon="6.5341">
        <ele>208.3</ele>
        <time>2021-07-30T11:37:57Z</time>
      </trkpt>
      <trkpt lat="48.78553" lon="6.53417">
        <ele>208.6</ele>
        <time>2021-07-30T11:37:59Z</time>
      </trkpt>
      <trkpt lat="48.78556" lon="6.53422">
        <ele>208.7</ele>
        <time>2021-07-30T11:38:00Z</time>
      </trkpt>
      <trkpt lat="48.78559" lon="6.53426">
        <ele>209</ele>
        <time>2021-07-30T11:38:02Z</time>
      </trkpt>
      <trkpt lat="48.78561" lon="6.5343">
        <ele>209.1</ele>
        <time>2021-07-30T11:38:03Z</time>
      </trkpt>
      <trkpt lat="48.78562" lon="6.53435">
        <ele>209.3</ele>
        <time>2021-07-30T11:38:04Z</time>
      </trkpt>
      <trkpt lat="48.78563" lon="6.53437">
        <ele>209.3</ele>
        <time>2021-07-30T11:38:05Z</time>
      </trkpt>
      <trkpt lat="48.78564" lon="6.5344">
        <ele>209.4</ele>
        <time>2021-07-30T11:38:06Z</time>
      </trkpt>
      <trkpt lat="48.78566" lon="6.53443">
        <ele>209.5</ele>
        <time>2021-07-30T11:38:08Z</time>
      </trkpt>
      <trkpt lat="48.78567" lon="6.53447">
        <ele>209.6</ele>
        <time>2021-07-30T11:38:09Z</time>
      </trkpt>
      <trkpt lat="48.78568" lon="6.53449">
        <ele>209.7</ele>
        <time>2021-07-30T11:38:10Z</time>
      </trkpt>
      <trkpt lat="48.78571" lon="6.53452">
        <ele>209.8</ele>
        <time>2021-07-30T11:38:12Z</time>
      </trkpt>
      <trkpt lat="48.78573" lon="6.53455">
        <ele>209.9</ele>
        <time>2021-07-30T11:38:13Z</time>
      </trkpt>
      <trkpt lat="48.78575" lon="6.53459">
        <ele>210</ele>
        <time>2021-07-30T11:38:15Z</time>
      </trkpt>
      <trkpt lat="48.78577" lon="6.53463">
        <ele>210.1</ele>
        <time>2021-07-30T11:38:17Z</time>
      </trkpt>
      <trkpt lat="48.7858" lon="6.53467">
        <ele>210.2</ele>
        <time>2021-07-30T11:38:18Z</time>
      </trkpt>
      <trkpt lat="48.78582" lon="6.53472">
        <ele>210.3</ele>
        <time>2021-07-30T11:38:20Z</time>
      </trkpt>
      <trkpt lat="48.78584" lon="6.53476">
        <ele>210.3</ele>
        <time>2021-07-30T11:38:21Z</time>
      </trkpt>
      <trkpt lat="48.78585" lon="6.5348">
        <ele>210.3</ele>
        <time>2021-07-30T11:38:22Z</time>
      </trkpt>
      <trkpt lat="48.78585" lon="6.53484">
        <ele>210.4</ele>
        <time>2021-07-30T11:38:23Z</time>
      </trkpt>
      <trkpt lat="48.78587" lon="6.53488">
        <ele>210.4</ele>
        <time>2021-07-30T11:38:24Z</time>
      </trkpt>
      <trkpt lat="48.78589" lon="6.53494">
        <ele>210.4</ele>
        <time>2021-07-30T11:38:26Z</time>
      </trkpt>
      <trkpt lat="48.7859" lon="6.53498">
        <ele>210.4</ele>
        <time>2021-07-30T11:38:27Z</time>
      </trkpt>
      <trkpt lat="48.78594" lon="6.53503">
        <ele>210.4</ele>
        <time>2021-07-30T11:38:28Z</time>
      </trkpt>
      <trkpt lat="48.78597" lon="6.53506">
        <ele>210.4</ele>
        <time>2021-07-30T11:38:30Z</time>
      </trkpt>
      <trkpt lat="48.786" lon="6.53512">
        <ele>210.4</ele>
        <time>2021-07-30T11:38:31Z</time>
      </trkpt>
      <trkpt lat="48.78603" lon="6.5352">
        <ele>210.4</ele>
        <time>2021-07-30T11:38:33Z</time>
      </trkpt>
      <trkpt lat="48.78604" lon="6.53526">
        <ele>210.4</ele>
        <time>2021-07-30T11:38:34Z</time>
      </trkpt>
      <trkpt lat="48.78605" lon="6.53534">
        <ele>210.4</ele>
        <time>2021-07-30T11:38:36Z</time>
      </trkpt>
      <trkpt lat="48.78606" lon="6.53542">
        <ele>210.4</ele>
        <time>2021-07-30T11:38:37Z</time>
      </trkpt>
      <trkpt lat="48.78608" lon="6.53551">
        <ele>210.4</ele>
        <time>2021-07-30T11:38:39Z</time>
      </trkpt>
      <trkpt lat="48.78609" lon="6.53556">
        <ele>210.4</ele>
        <time>2021-07-30T11:38:40Z</time>
      </trkpt>
      <trkpt lat="48.7861" lon="6.53561">
        <ele>210.4</ele>
        <time>2021-07-30T11:38:42Z</time>
      </trkpt>
      <trkpt lat="48.78612" lon="6.53569">
        <ele>210.4</ele>
        <time>2021-07-30T11:38:43Z</time>
      </trkpt>
      <trkpt lat="48.78613" lon="6.53574">
        <ele>210.4</ele>
        <time>2021-07-30T11:38:45Z</time>
      </trkpt>
      <trkpt lat="48.78614" lon="6.53583">
        <ele>210.4</ele>
        <time>2021-07-30T11:38:46Z</time>
      </trkpt>
      <trkpt lat="48.78615" lon="6.53593">
        <ele>210.3</ele>
        <time>2021-07-30T11:38:48Z</time>
      </trkpt>
      <trkpt lat="48.78615" lon="6.53599">
        <ele>210.3</ele>
        <time>2021-07-30T11:38:49Z</time>
      </trkpt>
      <trkpt lat="48.78616" lon="6.53606">
        <ele>210.3</ele>
        <time>2021-07-30T11:38:51Z</time>
      </trkpt>
      <trkpt lat="48.78617" lon="6.53614">
        <ele>210.4</ele>
        <time>2021-07-30T11:38:52Z</time>
      </trkpt>
      <trkpt lat="48.78619" lon="6.53623">
        <ele>210.4</ele>
        <time>2021-07-30T11:38:54Z</time>
      </trkpt>
      <trkpt lat="48.7862" lon="6.53632">
        <ele>210.4</ele>
        <time>2021-07-30T11:38:55Z</time>
      </trkpt>
      <trkpt lat="48.78621" lon="6.53648">
        <ele>210.3</ele>
        <time>2021-07-30T11:38:57Z</time>
      </trkpt>
      <trkpt lat="48.78622" lon="6.53664">
        <ele>210.2</ele>
        <time>2021-07-30T11:38:59Z</time>
      </trkpt>
      <trkpt lat="48.78621" lon="6.53673">
        <ele>210.1</ele>
        <time>2021-07-30T11:39:00Z</time>
      </trkpt>
      <trkpt lat="48.78622" lon="6.5369">
        <ele>210.1</ele>
        <time>2021-07-30T11:39:02Z</time>
      </trkpt>
      <trkpt lat="48.78623" lon="6.53699">
        <ele>210.1</ele>
        <time>2021-07-30T11:39:03Z</time>
      </trkpt>
      <trkpt lat="48.78623" lon="6.53706">
        <ele>210.1</ele>
        <time>2021-07-30T11:39:04Z</time>
      </trkpt>
      <trkpt lat="48.78624" lon="6.53711">
        <ele>210.1</ele>
        <time>2021-07-30T11:39:05Z</time>
      </trkpt>
      <trkpt lat="48.78625" lon="6.53729">
        <ele>210.1</ele>
        <time>2021-07-30T11:39:07Z</time>
      </trkpt>
      <trkpt lat="48.78625" lon="6.53745">
        <ele>210.2</ele>
        <time>2021-07-30T11:39:09Z</time>
      </trkpt>
      <trkpt lat="48.78625" lon="6.53753">
        <ele>210.2</ele>
        <time>2021-07-30T11:39:10Z</time>
      </trkpt>
      <trkpt lat="48.78626" lon="6.53759">
        <ele>210.2</ele>
        <time>2021-07-30T11:39:11Z</time>
      </trkpt>
      <trkpt lat="48.78627" lon="6.53772">
        <ele>210.2</ele>
        <time>2021-07-30T11:39:13Z</time>
      </trkpt>
      <trkpt lat="48.78628" lon="6.53778">
        <ele>210.1</ele>
        <time>2021-07-30T11:39:14Z</time>
      </trkpt>
      <trkpt lat="48.78628" lon="6.53784">
        <ele>210.1</ele>
        <time>2021-07-30T11:39:15Z</time>
      </trkpt>
      <trkpt lat="48.78629" lon="6.53802">
        <ele>210.1</ele>
        <time>2021-07-30T11:39:17Z</time>
      </trkpt>
      <trkpt lat="48.7863" lon="6.5381">
        <ele>210.1</ele>
        <time>2021-07-30T11:39:18Z</time>
      </trkpt>
      <trkpt lat="48.78633" lon="6.53823">
        <ele>210.1</ele>
        <time>2021-07-30T11:39:20Z</time>
      </trkpt>
      <trkpt lat="48.78636" lon="6.53829">
        <ele>210.1</ele>
        <time>2021-07-30T11:39:21Z</time>
      </trkpt>
      <trkpt lat="48.78635" lon="6.53836">
        <ele>210.1</ele>
        <time>2021-07-30T11:39:22Z</time>
      </trkpt>
      <trkpt lat="48.78638" lon="6.53854">
        <ele>210</ele>
        <time>2021-07-30T11:39:24Z</time>
      </trkpt>
      <trkpt lat="48.78639" lon="6.53869">
        <ele>209.9</ele>
        <time>2021-07-30T11:39:26Z</time>
      </trkpt>
      <trkpt lat="48.78639" lon="6.53877">
        <ele>209.9</ele>
        <time>2021-07-30T11:39:27Z</time>
      </trkpt>
      <trkpt lat="48.7864" lon="6.53892">
        <ele>209.9</ele>
        <time>2021-07-30T11:39:29Z</time>
      </trkpt>
      <trkpt lat="48.78641" lon="6.53899">
        <ele>209.9</ele>
        <time>2021-07-30T11:39:30Z</time>
      </trkpt>
      <trkpt lat="48.78643" lon="6.53914">
        <ele>209.8</ele>
        <time>2021-07-30T11:39:32Z</time>
      </trkpt>
      <trkpt lat="48.78643" lon="6.53922">
        <ele>209.8</ele>
        <time>2021-07-30T11:39:33Z</time>
      </trkpt>
      <trkpt lat="48.78646" lon="6.53933">
        <ele>209.9</ele>
        <time>2021-07-30T11:39:35Z</time>
      </trkpt>
      <trkpt lat="48.78648" lon="6.53939">
        <ele>209.9</ele>
        <time>2021-07-30T11:39:36Z</time>
      </trkpt>
      <trkpt lat="48.78651" lon="6.53948">
        <ele>210</ele>
        <time>2021-07-30T11:39:38Z</time>
      </trkpt>
      <trkpt lat="48.78652" lon="6.53954">
        <ele>210</ele>
        <time>2021-07-30T11:39:39Z</time>
      </trkpt>
      <trkpt lat="48.78655" lon="6.53958">
        <ele>210</ele>
        <time>2021-07-30T11:39:40Z</time>
      </trkpt>
      <trkpt lat="48.78658" lon="6.5397">
        <ele>210.1</ele>
        <time>2021-07-30T11:39:42Z</time>
      </trkpt>
      <trkpt lat="48.78662" lon="6.53976">
        <ele>210.1</ele>
        <time>2021-07-30T11:39:44Z</time>
      </trkpt>
      <trkpt lat="48.78669" lon="6.53983">
        <ele>210.3</ele>
        <time>2021-07-30T11:39:45Z</time>
      </trkpt>
      <trkpt lat="48.78671" lon="6.53991">
        <ele>210.4</ele>
        <time>2021-07-30T11:39:46Z</time>
      </trkpt>
      <trkpt lat="48.78672" lon="6.53997">
        <ele>210.4</ele>
        <time>2021-07-30T11:39:48Z</time>
      </trkpt>
      <trkpt lat="48.78675" lon="6.54006">
        <ele>210.6</ele>
        <time>2021-07-30T11:39:49Z</time>
      </trkpt>
      <trkpt lat="48.78677" lon="6.54011">
        <ele>210.7</ele>
        <time>2021-07-30T11:39:50Z</time>
      </trkpt>
      <trkpt lat="48.78679" lon="6.54023">
        <ele>211</ele>
        <time>2021-07-30T11:39:52Z</time>
      </trkpt>
      <trkpt lat="48.78682" lon="6.54034">
        <ele>211.1</ele>
        <time>2021-07-30T11:39:54Z</time>
      </trkpt>
      <trkpt lat="48.78684" lon="6.54044">
        <ele>211.3</ele>
        <time>2021-07-30T11:39:56Z</time>
      </trkpt>
      <trkpt lat="48.78685" lon="6.54049">
        <ele>211.3</ele>
        <time>2021-07-30T11:39:57Z</time>
      </trkpt>
      <trkpt lat="48.78686" lon="6.54054">
        <ele>211.4</ele>
        <time>2021-07-30T11:39:58Z</time>
      </trkpt>
      <trkpt lat="48.78687" lon="6.54061">
        <ele>211.5</ele>
        <time>2021-07-30T11:40:00Z</time>
      </trkpt>
      <trkpt lat="48.78689" lon="6.54067">
        <ele>211.6</ele>
        <time>2021-07-30T11:40:01Z</time>
      </trkpt>
      <trkpt lat="48.78691" lon="6.54072">
        <ele>211.6</ele>
        <time>2021-07-30T11:40:03Z</time>
      </trkpt>
      <trkpt lat="48.78692" lon="6.54076">
        <ele>211.7</ele>
        <time>2021-07-30T11:40:04Z</time>
      </trkpt>
      <trkpt lat="48.78693" lon="6.54081">
        <ele>211.7</ele>
        <time>2021-07-30T11:40:05Z</time>
      </trkpt>
      <trkpt lat="48.78694" lon="6.54087">
        <ele>211.7</ele>
        <time>2021-07-30T11:40:06Z</time>
      </trkpt>
      <trkpt lat="48.78696" lon="6.54092">
        <ele>211.8</ele>
        <time>2021-07-30T11:40:07Z</time>
      </trkpt>
      <trkpt lat="48.78698" lon="6.54096">
        <ele>211.8</ele>
        <time>2021-07-30T11:40:09Z</time>
      </trkpt>
      <trkpt lat="48.78699" lon="6.541">
        <ele>211.9</ele>
        <time>2021-07-30T11:40:10Z</time>
      </trkpt>
      <trkpt lat="48.78701" lon="6.54104">
        <ele>211.9</ele>
        <time>2021-07-30T11:40:11Z</time>
      </trkpt>
      <trkpt lat="48.78703" lon="6.54109">
        <ele>211.9</ele>
        <time>2021-07-30T11:40:12Z</time>
      </trkpt>
      <trkpt lat="48.78705" lon="6.54114">
        <ele>211.9</ele>
        <time>2021-07-30T11:40:13Z</time>
      </trkpt>
      <trkpt lat="48.78707" lon="6.54118">
        <ele>212</ele>
        <time>2021-07-30T11:40:14Z</time>
      </trkpt>
      <trkpt lat="48.78709" lon="6.54125">
        <ele>212</ele>
        <time>2021-07-30T11:40:16Z</time>
      </trkpt>
      <trkpt lat="48.78713" lon="6.54133">
        <ele>212</ele>
        <time>2021-07-30T11:40:17Z</time>
      </trkpt>
      <trkpt lat="48.78715" lon="6.54137">
        <ele>212</ele>
        <time>2021-07-30T11:40:18Z</time>
      </trkpt>
      <trkpt lat="48.78721" lon="6.54144">
        <ele>212</ele>
        <time>2021-07-30T11:40:20Z</time>
      </trkpt>
      <trkpt lat="48.78724" lon="6.54148">
        <ele>212</ele>
        <time>2021-07-30T11:40:21Z</time>
      </trkpt>
      <trkpt lat="48.78726" lon="6.54153">
        <ele>212</ele>
        <time>2021-07-30T11:40:22Z</time>
      </trkpt>
      <trkpt lat="48.78728" lon="6.54161">
        <ele>212</ele>
        <time>2021-07-30T11:40:23Z</time>
      </trkpt>
      <trkpt lat="48.7873" lon="6.54168">
        <ele>212</ele>
        <time>2021-07-30T11:40:24Z</time>
      </trkpt>
      <trkpt lat="48.78731" lon="6.54181">
        <ele>212</ele>
        <time>2021-07-30T11:40:26Z</time>
      </trkpt>
      <trkpt lat="48.78732" lon="6.54188">
        <ele>212</ele>
        <time>2021-07-30T11:40:27Z</time>
      </trkpt>
      <trkpt lat="48.78734" lon="6.54195">
        <ele>212.1</ele>
        <time>2021-07-30T11:40:29Z</time>
      </trkpt>
      <trkpt lat="48.78735" lon="6.54201">
        <ele>212.1</ele>
        <time>2021-07-30T11:40:30Z</time>
      </trkpt>
      <trkpt lat="48.78735" lon="6.54214">
        <ele>212.1</ele>
        <time>2021-07-30T11:40:32Z</time>
      </trkpt>
      <trkpt lat="48.78736" lon="6.54237">
        <ele>212.2</ele>
        <time>2021-07-30T11:40:33Z</time>
      </trkpt>
      <trkpt lat="48.78737" lon="6.54244">
        <ele>212.2</ele>
        <time>2021-07-30T11:40:34Z</time>
      </trkpt>
      <trkpt lat="48.78738" lon="6.54253">
        <ele>212.3</ele>
        <time>2021-07-30T11:40:36Z</time>
      </trkpt>
      <trkpt lat="48.78741" lon="6.54259">
        <ele>212.3</ele>
        <time>2021-07-30T11:40:37Z</time>
      </trkpt>
      <trkpt lat="48.78743" lon="6.54264">
        <ele>212.3</ele>
        <time>2021-07-30T11:40:38Z</time>
      </trkpt>
      <trkpt lat="48.78745" lon="6.54274">
        <ele>212.3</ele>
        <time>2021-07-30T11:40:40Z</time>
      </trkpt>
      <trkpt lat="48.78746" lon="6.5428">
        <ele>212.3</ele>
        <time>2021-07-30T11:40:41Z</time>
      </trkpt>
      <trkpt lat="48.78749" lon="6.54289">
        <ele>212.3</ele>
        <time>2021-07-30T11:40:43Z</time>
      </trkpt>
      <trkpt lat="48.78751" lon="6.54295">
        <ele>212.3</ele>
        <time>2021-07-30T11:40:45Z</time>
      </trkpt>
      <trkpt lat="48.78753" lon="6.54301">
        <ele>212.3</ele>
        <time>2021-07-30T11:40:46Z</time>
      </trkpt>
      <trkpt lat="48.78754" lon="6.54308">
        <ele>212.2</ele>
        <time>2021-07-30T11:40:47Z</time>
      </trkpt>
      <trkpt lat="48.78756" lon="6.54317">
        <ele>212.2</ele>
        <time>2021-07-30T11:40:48Z</time>
      </trkpt>
      <trkpt lat="48.78757" lon="6.54326">
        <ele>212.1</ele>
        <time>2021-07-30T11:40:49Z</time>
      </trkpt>
      <trkpt lat="48.78758" lon="6.54332">
        <ele>212</ele>
        <time>2021-07-30T11:40:50Z</time>
      </trkpt>
      <trkpt lat="48.7876" lon="6.54339">
        <ele>212</ele>
        <time>2021-07-30T11:40:51Z</time>
      </trkpt>
      <trkpt lat="48.78765" lon="6.54349">
        <ele>212</ele>
        <time>2021-07-30T11:40:53Z</time>
      </trkpt>
      <trkpt lat="48.78767" lon="6.54355">
        <ele>211.9</ele>
        <time>2021-07-30T11:40:54Z</time>
      </trkpt>
      <trkpt lat="48.78769" lon="6.5436">
        <ele>211.9</ele>
        <time>2021-07-30T11:40:56Z</time>
      </trkpt>
      <trkpt lat="48.78771" lon="6.54365">
        <ele>211.9</ele>
        <time>2021-07-30T11:40:57Z</time>
      </trkpt>
      <trkpt lat="48.78773" lon="6.54371">
        <ele>211.9</ele>
        <time>2021-07-30T11:40:58Z</time>
      </trkpt>
      <trkpt lat="48.78777" lon="6.5438">
        <ele>211.9</ele>
        <time>2021-07-30T11:40:59Z</time>
      </trkpt>
      <trkpt lat="48.78779" lon="6.54388">
        <ele>211.9</ele>
        <time>2021-07-30T11:41:01Z</time>
      </trkpt>
      <trkpt lat="48.78782" lon="6.54396">
        <ele>211.9</ele>
        <time>2021-07-30T11:41:02Z</time>
      </trkpt>
      <trkpt lat="48.78784" lon="6.54404">
        <ele>211.9</ele>
        <time>2021-07-30T11:41:03Z</time>
      </trkpt>
      <trkpt lat="48.78786" lon="6.54412">
        <ele>211.8</ele>
        <time>2021-07-30T11:41:04Z</time>
      </trkpt>
      <trkpt lat="48.78788" lon="6.5442">
        <ele>211.8</ele>
        <time>2021-07-30T11:41:05Z</time>
      </trkpt>
      <trkpt lat="48.78792" lon="6.54431">
        <ele>211.8</ele>
        <time>2021-07-30T11:41:07Z</time>
      </trkpt>
      <trkpt lat="48.78797" lon="6.54443">
        <ele>211.8</ele>
        <time>2021-07-30T11:41:09Z</time>
      </trkpt>
      <trkpt lat="48.78803" lon="6.54451">
        <ele>211.7</ele>
        <time>2021-07-30T11:41:11Z</time>
      </trkpt>
      <trkpt lat="48.78804" lon="6.54458">
        <ele>211.7</ele>
        <time>2021-07-30T11:41:12Z</time>
      </trkpt>
      <trkpt lat="48.78809" lon="6.5447">
        <ele>211.7</ele>
        <time>2021-07-30T11:41:14Z</time>
      </trkpt>
      <trkpt lat="48.7881" lon="6.54477">
        <ele>211.7</ele>
        <time>2021-07-30T11:41:15Z</time>
      </trkpt>
      <trkpt lat="48.78811" lon="6.54484">
        <ele>211.6</ele>
        <time>2021-07-30T11:41:16Z</time>
      </trkpt>
      <trkpt lat="48.78813" lon="6.54499">
        <ele>211.6</ele>
        <time>2021-07-30T11:41:18Z</time>
      </trkpt>
      <trkpt lat="48.78815" lon="6.54514">
        <ele>211.5</ele>
        <time>2021-07-30T11:41:20Z</time>
      </trkpt>
      <trkpt lat="48.78816" lon="6.54522">
        <ele>211.5</ele>
        <time>2021-07-30T11:41:21Z</time>
      </trkpt>
      <trkpt lat="48.78818" lon="6.54529">
        <ele>211.4</ele>
        <time>2021-07-30T11:41:22Z</time>
      </trkpt>
      <trkpt lat="48.78822" lon="6.54543">
        <ele>211.4</ele>
        <time>2021-07-30T11:41:24Z</time>
      </trkpt>
      <trkpt lat="48.78824" lon="6.54559">
        <ele>211.3</ele>
        <time>2021-07-30T11:41:26Z</time>
      </trkpt>
      <trkpt lat="48.78828" lon="6.54573">
        <ele>211.2</ele>
        <time>2021-07-30T11:41:28Z</time>
      </trkpt>
      <trkpt lat="48.78833" lon="6.54586">
        <ele>211.1</ele>
        <time>2021-07-30T11:41:30Z</time>
      </trkpt>
      <trkpt lat="48.78836" lon="6.54601">
        <ele>211</ele>
        <time>2021-07-30T11:41:32Z</time>
      </trkpt>
      <trkpt lat="48.78838" lon="6.54609">
        <ele>210.9</ele>
        <time>2021-07-30T11:41:33Z</time>
      </trkpt>
      <trkpt lat="48.78843" lon="6.54623">
        <ele>210.8</ele>
        <time>2021-07-30T11:41:35Z</time>
      </trkpt>
      <trkpt lat="48.78844" lon="6.54631">
        <ele>210.7</ele>
        <time>2021-07-30T11:41:36Z</time>
      </trkpt>
      <trkpt lat="48.78847" lon="6.54646">
        <ele>210.6</ele>
        <time>2021-07-30T11:41:38Z</time>
      </trkpt>
      <trkpt lat="48.78849" lon="6.54653">
        <ele>210.5</ele>
        <time>2021-07-30T11:41:39Z</time>
      </trkpt>
      <trkpt lat="48.78853" lon="6.54667">
        <ele>210.5</ele>
        <time>2021-07-30T11:41:41Z</time>
      </trkpt>
      <trkpt lat="48.78856" lon="6.54674">
        <ele>210.4</ele>
        <time>2021-07-30T11:41:42Z</time>
      </trkpt>
      <trkpt lat="48.78858" lon="6.54693">
        <ele>210.4</ele>
        <time>2021-07-30T11:41:44Z</time>
      </trkpt>
      <trkpt lat="48.78859" lon="6.54704">
        <ele>210.4</ele>
        <time>2021-07-30T11:41:45Z</time>
      </trkpt>
      <trkpt lat="48.78861" lon="6.54712">
        <ele>210.4</ele>
        <time>2021-07-30T11:41:46Z</time>
      </trkpt>
      <trkpt lat="48.78863" lon="6.54718">
        <ele>210.4</ele>
        <time>2021-07-30T11:41:47Z</time>
      </trkpt>
      <trkpt lat="48.78865" lon="6.54726">
        <ele>210.3</ele>
        <time>2021-07-30T11:41:48Z</time>
      </trkpt>
      <trkpt lat="48.7887" lon="6.54742">
        <ele>210.3</ele>
        <time>2021-07-30T11:41:50Z</time>
      </trkpt>
      <trkpt lat="48.78875" lon="6.54755">
        <ele>210.3</ele>
        <time>2021-07-30T11:41:52Z</time>
      </trkpt>
      <trkpt lat="48.78878" lon="6.54761">
        <ele>210.4</ele>
        <time>2021-07-30T11:41:53Z</time>
      </trkpt>
      <trkpt lat="48.78881" lon="6.54767">
        <ele>210.4</ele>
        <time>2021-07-30T11:41:54Z</time>
      </trkpt>
      <trkpt lat="48.78886" lon="6.54781">
        <ele>210.4</ele>
        <time>2021-07-30T11:41:56Z</time>
      </trkpt>
      <trkpt lat="48.78891" lon="6.54794">
        <ele>210.5</ele>
        <time>2021-07-30T11:41:58Z</time>
      </trkpt>
      <trkpt lat="48.789" lon="6.54798">
        <ele>210.6</ele>
        <time>2021-07-30T11:42:00Z</time>
      </trkpt>
      <trkpt lat="48.78906" lon="6.54806">
        <ele>210.7</ele>
        <time>2021-07-30T11:42:02Z</time>
      </trkpt>
      <trkpt lat="48.78909" lon="6.54812">
        <ele>210.7</ele>
        <time>2021-07-30T11:42:03Z</time>
      </trkpt>
      <trkpt lat="48.78911" lon="6.54818">
        <ele>210.8</ele>
        <time>2021-07-30T11:42:04Z</time>
      </trkpt>
      <trkpt lat="48.78914" lon="6.5483">
        <ele>210.9</ele>
        <time>2021-07-30T11:42:06Z</time>
      </trkpt>
      <trkpt lat="48.78917" lon="6.54841">
        <ele>211</ele>
        <time>2021-07-30T11:42:08Z</time>
      </trkpt>
      <trkpt lat="48.78919" lon="6.54846">
        <ele>211.1</ele>
        <time>2021-07-30T11:42:09Z</time>
      </trkpt>
      <trkpt lat="48.7892" lon="6.54848">
        <ele>211.1</ele>
        <time>2021-07-30T11:42:10Z</time>
      </trkpt>
      <trkpt lat="48.78928" lon="6.54856">
        <ele>211.4</ele>
        <time>2021-07-30T11:42:12Z</time>
      </trkpt>
      <trkpt lat="48.78931" lon="6.54864">
        <ele>211.5</ele>
        <time>2021-07-30T11:42:14Z</time>
      </trkpt>
      <trkpt lat="48.78932" lon="6.54869">
        <ele>211.6</ele>
        <time>2021-07-30T11:42:15Z</time>
      </trkpt>
      <trkpt lat="48.78932" lon="6.54878">
        <ele>211.7</ele>
        <time>2021-07-30T11:42:17Z</time>
      </trkpt>
      <trkpt lat="48.78933" lon="6.54883">
        <ele>211.7</ele>
        <time>2021-07-30T11:42:19Z</time>
      </trkpt>
      <trkpt lat="48.78934" lon="6.54887">
        <ele>211.8</ele>
        <time>2021-07-30T11:42:20Z</time>
      </trkpt>
      <trkpt lat="48.78935" lon="6.54892">
        <ele>211.8</ele>
        <time>2021-07-30T11:42:21Z</time>
      </trkpt>
      <trkpt lat="48.78936" lon="6.54896">
        <ele>211.8</ele>
        <time>2021-07-30T11:42:22Z</time>
      </trkpt>
      <trkpt lat="48.78937" lon="6.54899">
        <ele>211.9</ele>
        <time>2021-07-30T11:42:23Z</time>
      </trkpt>
      <trkpt lat="48.78938" lon="6.54909">
        <ele>211.9</ele>
        <time>2021-07-30T11:42:25Z</time>
      </trkpt>
      <trkpt lat="48.78939" lon="6.54913">
        <ele>212</ele>
        <time>2021-07-30T11:42:26Z</time>
      </trkpt>
      <trkpt lat="48.78941" lon="6.54918">
        <ele>212</ele>
        <time>2021-07-30T11:42:27Z</time>
      </trkpt>
      <trkpt lat="48.78941" lon="6.54925">
        <ele>212</ele>
        <time>2021-07-30T11:42:29Z</time>
      </trkpt>
      <trkpt lat="48.78941" lon="6.5493">
        <ele>212.1</ele>
        <time>2021-07-30T11:42:30Z</time>
      </trkpt>
      <trkpt lat="48.78942" lon="6.54935">
        <ele>212.1</ele>
        <time>2021-07-30T11:42:31Z</time>
      </trkpt>
      <trkpt lat="48.78943" lon="6.54939">
        <ele>212.1</ele>
        <time>2021-07-30T11:42:32Z</time>
      </trkpt>
      <trkpt lat="48.78946" lon="6.54943">
        <ele>212.2</ele>
        <time>2021-07-30T11:42:33Z</time>
      </trkpt>
      <trkpt lat="48.78947" lon="6.54945">
        <ele>212.2</ele>
        <time>2021-07-30T11:42:34Z</time>
      </trkpt>
      <trkpt lat="48.78949" lon="6.54952">
        <ele>212.3</ele>
        <time>2021-07-30T11:42:36Z</time>
      </trkpt>
      <trkpt lat="48.7895" lon="6.54957">
        <ele>212.3</ele>
        <time>2021-07-30T11:42:37Z</time>
      </trkpt>
      <trkpt lat="48.78951" lon="6.54964">
        <ele>212.4</ele>
        <time>2021-07-30T11:42:39Z</time>
      </trkpt>
      <trkpt lat="48.78952" lon="6.54967">
        <ele>212.4</ele>
        <time>2021-07-30T11:42:40Z</time>
      </trkpt>
      <trkpt lat="48.78954" lon="6.54975">
        <ele>212.5</ele>
        <time>2021-07-30T11:42:41Z</time>
      </trkpt>
      <trkpt lat="48.78955" lon="6.5498">
        <ele>212.6</ele>
        <time>2021-07-30T11:42:42Z</time>
      </trkpt>
      <trkpt lat="48.78956" lon="6.5499">
        <ele>212.7</ele>
        <time>2021-07-30T11:42:44Z</time>
      </trkpt>
      <trkpt lat="48.78958" lon="6.55">
        <ele>212.7</ele>
        <time>2021-07-30T11:42:46Z</time>
      </trkpt>
      <trkpt lat="48.7896" lon="6.5501">
        <ele>212.8</ele>
        <time>2021-07-30T11:42:48Z</time>
      </trkpt>
      <trkpt lat="48.7896" lon="6.55015">
        <ele>212.9</ele>
        <time>2021-07-30T11:42:49Z</time>
      </trkpt>
      <trkpt lat="48.78961" lon="6.55021">
        <ele>213</ele>
        <time>2021-07-30T11:42:51Z</time>
      </trkpt>
      <trkpt lat="48.78961" lon="6.55027">
        <ele>213.1</ele>
        <time>2021-07-30T11:42:52Z</time>
      </trkpt>
      <trkpt lat="48.7896" lon="6.55035">
        <ele>213.2</ele>
        <time>2021-07-30T11:42:53Z</time>
      </trkpt>
      <trkpt lat="48.78961" lon="6.5504">
        <ele>213.3</ele>
        <time>2021-07-30T11:42:54Z</time>
      </trkpt>
      <trkpt lat="48.78961" lon="6.55045">
        <ele>213.3</ele>
        <time>2021-07-30T11:42:55Z</time>
      </trkpt>
      <trkpt lat="48.78963" lon="6.55052">
        <ele>213.5</ele>
        <time>2021-07-30T11:42:57Z</time>
      </trkpt>
      <trkpt lat="48.78963" lon="6.55054">
        <ele>213.5</ele>
        <time>2021-07-30T11:42:58Z</time>
      </trkpt>
      <trkpt lat="48.78964" lon="6.55056">
        <ele>213.6</ele>
        <time>2021-07-30T11:42:59Z</time>
      </trkpt>
      <trkpt lat="48.78965" lon="6.55063">
        <ele>213.7</ele>
        <time>2021-07-30T11:43:00Z</time>
      </trkpt>
      <trkpt lat="48.78965" lon="6.55065">
        <ele>213.7</ele>
        <time>2021-07-30T11:43:01Z</time>
      </trkpt>
      <trkpt lat="48.78966" lon="6.5507">
        <ele>213.8</ele>
        <time>2021-07-30T11:43:02Z</time>
      </trkpt>
      <trkpt lat="48.78966" lon="6.55072">
        <ele>213.9</ele>
        <time>2021-07-30T11:43:03Z</time>
      </trkpt>
      <trkpt lat="48.78966" lon="6.55077">
        <ele>214</ele>
        <time>2021-07-30T11:43:05Z</time>
      </trkpt>
      <trkpt lat="48.78967" lon="6.55081">
        <ele>214.1</ele>
        <time>2021-07-30T11:43:06Z</time>
      </trkpt>
      <trkpt lat="48.78967" lon="6.55086">
        <ele>214.2</ele>
        <time>2021-07-30T11:43:08Z</time>
      </trkpt>
      <trkpt lat="48.78966" lon="6.55091">
        <ele>214.3</ele>
        <time>2021-07-30T11:43:09Z</time>
      </trkpt>
      <trkpt lat="48.78967" lon="6.55096">
        <ele>214.4</ele>
        <time>2021-07-30T11:43:10Z</time>
      </trkpt>
      <trkpt lat="48.78967" lon="6.55098">
        <ele>214.4</ele>
        <time>2021-07-30T11:43:12Z</time>
      </trkpt>
      <trkpt lat="48.78967" lon="6.551">
        <ele>214.5</ele>
        <time>2021-07-30T11:43:13Z</time>
      </trkpt>
      <trkpt lat="48.78968" lon="6.55102">
        <ele>214.6</ele>
        <time>2021-07-30T11:43:14Z</time>
      </trkpt>
      <trkpt lat="48.78968" lon="6.55101">
        <ele>214.6</ele>
        <time>2021-07-30T11:43:16Z</time>
      </trkpt>
      <trkpt lat="48.78968" lon="6.551">
        <ele>214.6</ele>
        <time>2021-07-30T11:43:17Z</time>
      </trkpt>
      <trkpt lat="48.78968" lon="6.551">
        <ele>214.6</ele>
        <time>2021-07-30T11:43:18Z</time>
      </trkpt>
      <trkpt lat="48.78969" lon="6.551">
        <ele>214.6</ele>
        <time>2021-07-30T11:43:20Z</time>
      </trkpt>
      <trkpt lat="48.78969" lon="6.55099">
        <ele>214.6</ele>
        <time>2021-07-30T11:43:22Z</time>
      </trkpt>
      <trkpt lat="48.78969" lon="6.55099">
        <ele>214.6</ele>
        <time>2021-07-30T11:43:24Z</time>
      </trkpt>
      <trkpt lat="48.78979" lon="6.55094">
        <ele>215.1</ele>
        <time>2021-07-30T11:44:28Z</time>
      </trkpt>
      <trkpt lat="48.78985" lon="6.55099">
        <ele>215.4</ele>
        <time>2021-07-30T11:44:30Z</time>
      </trkpt>
      <trkpt lat="48.78987" lon="6.55104">
        <ele>215.5</ele>
        <time>2021-07-30T11:44:31Z</time>
      </trkpt>
      <trkpt lat="48.78989" lon="6.55108">
        <ele>215.7</ele>
        <time>2021-07-30T11:44:32Z</time>
      </trkpt>
      <trkpt lat="48.78991" lon="6.55112">
        <ele>215.9</ele>
        <time>2021-07-30T11:44:33Z</time>
      </trkpt>
      <trkpt lat="48.78994" lon="6.55116">
        <ele>216.1</ele>
        <time>2021-07-30T11:44:34Z</time>
      </trkpt>
      <trkpt lat="48.78997" lon="6.55123">
        <ele>216.4</ele>
        <time>2021-07-30T11:44:36Z</time>
      </trkpt>
      <trkpt lat="48.79001" lon="6.55126">
        <ele>216.6</ele>
        <time>2021-07-30T11:44:37Z</time>
      </trkpt>
      <trkpt lat="48.79003" lon="6.55129">
        <ele>216.8</ele>
        <time>2021-07-30T11:44:38Z</time>
      </trkpt>
      <trkpt lat="48.79008" lon="6.55136">
        <ele>217.1</ele>
        <time>2021-07-30T11:44:40Z</time>
      </trkpt>
      <trkpt lat="48.79012" lon="6.55141">
        <ele>217.4</ele>
        <time>2021-07-30T11:44:42Z</time>
      </trkpt>
      <trkpt lat="48.79016" lon="6.55143">
        <ele>217.7</ele>
        <time>2021-07-30T11:44:44Z</time>
      </trkpt>
      <trkpt lat="48.7902" lon="6.55145">
        <ele>218</ele>
        <time>2021-07-30T11:44:45Z</time>
      </trkpt>
      <trkpt lat="48.79022" lon="6.55147">
        <ele>218.1</ele>
        <time>2021-07-30T11:44:46Z</time>
      </trkpt>
      <trkpt lat="48.79024" lon="6.5515">
        <ele>218.3</ele>
        <time>2021-07-30T11:44:48Z</time>
      </trkpt>
      <trkpt lat="48.79024" lon="6.55152">
        <ele>218.4</ele>
        <time>2021-07-30T11:44:49Z</time>
      </trkpt>
      <trkpt lat="48.79025" lon="6.55154">
        <ele>218.5</ele>
        <time>2021-07-30T11:44:50Z</time>
      </trkpt>
      <trkpt lat="48.79027" lon="6.55156">
        <ele>218.6</ele>
        <time>2021-07-30T11:44:51Z</time>
      </trkpt>
      <trkpt lat="48.79029" lon="6.55158">
        <ele>218.8</ele>
        <time>2021-07-30T11:44:53Z</time>
      </trkpt>
      <trkpt lat="48.79031" lon="6.5516">
        <ele>219</ele>
        <time>2021-07-30T11:44:54Z</time>
      </trkpt>
      <trkpt lat="48.79032" lon="6.55161">
        <ele>219</ele>
        <time>2021-07-30T11:44:55Z</time>
      </trkpt>
      <trkpt lat="48.79035" lon="6.55164">
        <ele>219.3</ele>
        <time>2021-07-30T11:44:56Z</time>
      </trkpt>
      <trkpt lat="48.79036" lon="6.55165">
        <ele>219.3</ele>
        <time>2021-07-30T11:44:57Z</time>
      </trkpt>
      <trkpt lat="48.79038" lon="6.55166">
        <ele>219.4</ele>
        <time>2021-07-30T11:44:58Z</time>
      </trkpt>
      <trkpt lat="48.79039" lon="6.55167">
        <ele>219.6</ele>
        <time>2021-07-30T11:44:59Z</time>
      </trkpt>
      <trkpt lat="48.7904" lon="6.55169">
        <ele>219.7</ele>
        <time>2021-07-30T11:45:00Z</time>
      </trkpt>
      <trkpt lat="48.79042" lon="6.55171">
        <ele>219.8</ele>
        <time>2021-07-30T11:45:02Z</time>
      </trkpt>
      <trkpt lat="48.79044" lon="6.55172">
        <ele>220</ele>
        <time>2021-07-30T11:45:03Z</time>
      </trkpt>
      <trkpt lat="48.79045" lon="6.55174">
        <ele>220.1</ele>
        <time>2021-07-30T11:45:04Z</time>
      </trkpt>
      <trkpt lat="48.79046" lon="6.55176">
        <ele>220.2</ele>
        <time>2021-07-30T11:45:05Z</time>
      </trkpt>
      <trkpt lat="48.79047" lon="6.55179">
        <ele>220.4</ele>
        <time>2021-07-30T11:45:06Z</time>
      </trkpt>
      <trkpt lat="48.79049" lon="6.55182">
        <ele>220.6</ele>
        <time>2021-07-30T11:45:08Z</time>
      </trkpt>
      <trkpt lat="48.7905" lon="6.55183">
        <ele>220.7</ele>
        <time>2021-07-30T11:45:09Z</time>
      </trkpt>
      <trkpt lat="48.79051" lon="6.55184">
        <ele>220.7</ele>
        <time>2021-07-30T11:45:10Z</time>
      </trkpt>
      <trkpt lat="48.79053" lon="6.55187">
        <ele>221</ele>
        <time>2021-07-30T11:45:12Z</time>
      </trkpt>
      <trkpt lat="48.79055" lon="6.5519">
        <ele>221.2</ele>
        <time>2021-07-30T11:45:14Z</time>
      </trkpt>
      <trkpt lat="48.79056" lon="6.55191">
        <ele>221.2</ele>
        <time>2021-07-30T11:45:15Z</time>
      </trkpt>
      <trkpt lat="48.79059" lon="6.55192">
        <ele>221.5</ele>
        <time>2021-07-30T11:45:17Z</time>
      </trkpt>
      <trkpt lat="48.79062" lon="6.55191">
        <ele>221.6</ele>
        <time>2021-07-30T11:45:18Z</time>
      </trkpt>
      <trkpt lat="48.79065" lon="6.55189">
        <ele>221.9</ele>
        <time>2021-07-30T11:45:20Z</time>
      </trkpt>
      <trkpt lat="48.79068" lon="6.55189">
        <ele>222.1</ele>
        <time>2021-07-30T11:45:21Z</time>
      </trkpt>
      <trkpt lat="48.7907" lon="6.55189">
        <ele>222.2</ele>
        <time>2021-07-30T11:45:22Z</time>
      </trkpt>
      <trkpt lat="48.79073" lon="6.55191">
        <ele>222.4</ele>
        <time>2021-07-30T11:45:24Z</time>
      </trkpt>
      <trkpt lat="48.79074" lon="6.55192">
        <ele>222.5</ele>
        <time>2021-07-30T11:45:25Z</time>
      </trkpt>
      <trkpt lat="48.79076" lon="6.55193">
        <ele>222.7</ele>
        <time>2021-07-30T11:45:27Z</time>
      </trkpt>
      <trkpt lat="48.79078" lon="6.55194">
        <ele>222.8</ele>
        <time>2021-07-30T11:45:28Z</time>
      </trkpt>
      <trkpt lat="48.79082" lon="6.55197">
        <ele>223.1</ele>
        <time>2021-07-30T11:45:30Z</time>
      </trkpt>
      <trkpt lat="48.79085" lon="6.55199">
        <ele>223.3</ele>
        <time>2021-07-30T11:45:32Z</time>
      </trkpt>
      <trkpt lat="48.79087" lon="6.552">
        <ele>223.4</ele>
        <time>2021-07-30T11:45:33Z</time>
      </trkpt>
      <trkpt lat="48.79089" lon="6.552">
        <ele>223.6</ele>
        <time>2021-07-30T11:45:35Z</time>
      </trkpt>
      <trkpt lat="48.7909" lon="6.552">
        <ele>223.7</ele>
        <time>2021-07-30T11:45:36Z</time>
      </trkpt>
      <trkpt lat="48.79092" lon="6.55201">
        <ele>223.8</ele>
        <time>2021-07-30T11:45:37Z</time>
      </trkpt>
      <trkpt lat="48.79094" lon="6.55202">
        <ele>223.9</ele>
        <time>2021-07-30T11:45:39Z</time>
      </trkpt>
      <trkpt lat="48.79095" lon="6.55203">
        <ele>224</ele>
        <time>2021-07-30T11:45:40Z</time>
      </trkpt>
      <trkpt lat="48.79096" lon="6.55203">
        <ele>224.1</ele>
        <time>2021-07-30T11:45:41Z</time>
      </trkpt>
      <trkpt lat="48.79098" lon="6.55204">
        <ele>224.2</ele>
        <time>2021-07-30T11:45:42Z</time>
      </trkpt>
      <trkpt lat="48.79101" lon="6.55207">
        <ele>224.4</ele>
        <time>2021-07-30T11:45:44Z</time>
      </trkpt>
      <trkpt lat="48.79102" lon="6.55209">
        <ele>224.5</ele>
        <time>2021-07-30T11:45:45Z</time>
      </trkpt>
      <trkpt lat="48.79103" lon="6.55211">
        <ele>224.6</ele>
        <time>2021-07-30T11:45:46Z</time>
      </trkpt>
      <trkpt lat="48.79105" lon="6.55216">
        <ele>224.7</ele>
        <time>2021-07-30T11:45:48Z</time>
      </trkpt>
      <trkpt lat="48.79108" lon="6.55221">
        <ele>225</ele>
        <time>2021-07-30T11:45:50Z</time>
      </trkpt>
      <trkpt lat="48.79108" lon="6.55223">
        <ele>225.1</ele>
        <time>2021-07-30T11:45:51Z</time>
      </trkpt>
      <trkpt lat="48.79109" lon="6.55225">
        <ele>225.1</ele>
        <time>2021-07-30T11:45:53Z</time>
      </trkpt>
      <trkpt lat="48.7911" lon="6.55227">
        <ele>225.2</ele>
        <time>2021-07-30T11:45:54Z</time>
      </trkpt>
      <trkpt lat="48.79111" lon="6.55229">
        <ele>225.3</ele>
        <time>2021-07-30T11:45:56Z</time>
      </trkpt>
      <trkpt lat="48.79112" lon="6.55231">
        <ele>225.4</ele>
        <time>2021-07-30T11:45:57Z</time>
      </trkpt>
      <trkpt lat="48.79113" lon="6.55233">
        <ele>225.4</ele>
        <time>2021-07-30T11:45:58Z</time>
      </trkpt>
      <trkpt lat="48.79116" lon="6.55236">
        <ele>225.6</ele>
        <time>2021-07-30T11:46:00Z</time>
      </trkpt>
      <trkpt lat="48.79118" lon="6.55237">
        <ele>225.7</ele>
        <time>2021-07-30T11:46:01Z</time>
      </trkpt>
      <trkpt lat="48.79119" lon="6.55239">
        <ele>225.8</ele>
        <time>2021-07-30T11:46:02Z</time>
      </trkpt>
      <trkpt lat="48.79121" lon="6.55242">
        <ele>225.9</ele>
        <time>2021-07-30T11:46:04Z</time>
      </trkpt>
      <trkpt lat="48.79123" lon="6.55247">
        <ele>226.1</ele>
        <time>2021-07-30T11:46:05Z</time>
      </trkpt>
      <trkpt lat="48.79124" lon="6.55249">
        <ele>226.1</ele>
        <time>2021-07-30T11:46:06Z</time>
      </trkpt>
      <trkpt lat="48.79125" lon="6.55253">
        <ele>226.2</ele>
        <time>2021-07-30T11:46:07Z</time>
      </trkpt>
      <trkpt lat="48.79127" lon="6.55257">
        <ele>226.4</ele>
        <time>2021-07-30T11:46:09Z</time>
      </trkpt>
      <trkpt lat="48.79129" lon="6.55262">
        <ele>226.5</ele>
        <time>2021-07-30T11:46:10Z</time>
      </trkpt>
      <trkpt lat="48.79131" lon="6.55267">
        <ele>226.6</ele>
        <time>2021-07-30T11:46:11Z</time>
      </trkpt>
      <trkpt lat="48.79131" lon="6.55269">
        <ele>226.7</ele>
        <time>2021-07-30T11:46:12Z</time>
      </trkpt>
      <trkpt lat="48.79133" lon="6.55276">
        <ele>226.8</ele>
        <time>2021-07-30T11:46:14Z</time>
      </trkpt>
      <trkpt lat="48.79134" lon="6.55279">
        <ele>226.9</ele>
        <time>2021-07-30T11:46:15Z</time>
      </trkpt>
      <trkpt lat="48.79135" lon="6.55282">
        <ele>226.9</ele>
        <time>2021-07-30T11:46:16Z</time>
      </trkpt>
      <trkpt lat="48.79136" lon="6.55287">
        <ele>227</ele>
        <time>2021-07-30T11:46:17Z</time>
      </trkpt>
      <trkpt lat="48.79137" lon="6.55289">
        <ele>227.1</ele>
        <time>2021-07-30T11:46:18Z</time>
      </trkpt>
      <trkpt lat="48.79139" lon="6.55296">
        <ele>227.2</ele>
        <time>2021-07-30T11:46:20Z</time>
      </trkpt>
      <trkpt lat="48.79141" lon="6.55304">
        <ele>227.3</ele>
        <time>2021-07-30T11:46:22Z</time>
      </trkpt>
      <trkpt lat="48.79143" lon="6.55312">
        <ele>227.4</ele>
        <time>2021-07-30T11:46:24Z</time>
      </trkpt>
      <trkpt lat="48.79145" lon="6.5532">
        <ele>227.5</ele>
        <time>2021-07-30T11:46:26Z</time>
      </trkpt>
      <trkpt lat="48.79146" lon="6.55329">
        <ele>227.6</ele>
        <time>2021-07-30T11:46:28Z</time>
      </trkpt>
      <trkpt lat="48.79148" lon="6.55337">
        <ele>227.7</ele>
        <time>2021-07-30T11:46:30Z</time>
      </trkpt>
      <trkpt lat="48.79149" lon="6.55345">
        <ele>227.7</ele>
        <time>2021-07-30T11:46:32Z</time>
      </trkpt>
      <trkpt lat="48.7915" lon="6.5535">
        <ele>227.8</ele>
        <time>2021-07-30T11:46:33Z</time>
      </trkpt>
      <trkpt lat="48.79151" lon="6.55359">
        <ele>227.9</ele>
        <time>2021-07-30T11:46:35Z</time>
      </trkpt>
      <trkpt lat="48.79152" lon="6.55365">
        <ele>227.9</ele>
        <time>2021-07-30T11:46:36Z</time>
      </trkpt>
      <trkpt lat="48.79152" lon="6.5537">
        <ele>227.9</ele>
        <time>2021-07-30T11:46:37Z</time>
      </trkpt>
      <trkpt lat="48.79153" lon="6.5538">
        <ele>227.9</ele>
        <time>2021-07-30T11:46:39Z</time>
      </trkpt>
      <trkpt lat="48.79154" lon="6.55385">
        <ele>228</ele>
        <time>2021-07-30T11:46:40Z</time>
      </trkpt>
      <trkpt lat="48.79155" lon="6.55395">
        <ele>228</ele>
        <time>2021-07-30T11:46:42Z</time>
      </trkpt>
      <trkpt lat="48.79156" lon="6.55407">
        <ele>228</ele>
        <time>2021-07-30T11:46:44Z</time>
      </trkpt>
      <trkpt lat="48.79157" lon="6.55415">
        <ele>228.1</ele>
        <time>2021-07-30T11:46:45Z</time>
      </trkpt>
      <trkpt lat="48.79157" lon="6.55421">
        <ele>228.1</ele>
        <time>2021-07-30T11:46:46Z</time>
      </trkpt>
      <trkpt lat="48.79158" lon="6.55426">
        <ele>228.1</ele>
        <time>2021-07-30T11:46:47Z</time>
      </trkpt>
      <trkpt lat="48.79158" lon="6.55432">
        <ele>228.1</ele>
        <time>2021-07-30T11:46:48Z</time>
      </trkpt>
      <trkpt lat="48.7916" lon="6.55441">
        <ele>228.1</ele>
        <time>2021-07-30T11:46:50Z</time>
      </trkpt>
      <trkpt lat="48.79161" lon="6.55447">
        <ele>228.1</ele>
        <time>2021-07-30T11:46:51Z</time>
      </trkpt>
      <trkpt lat="48.79162" lon="6.55455">
        <ele>228.1</ele>
        <time>2021-07-30T11:46:52Z</time>
      </trkpt>
      <trkpt lat="48.79163" lon="6.55461">
        <ele>228.1</ele>
        <time>2021-07-30T11:46:53Z</time>
      </trkpt>
      <trkpt lat="48.79165" lon="6.55473">
        <ele>228.1</ele>
        <time>2021-07-30T11:46:55Z</time>
      </trkpt>
      <trkpt lat="48.79166" lon="6.55479">
        <ele>228.1</ele>
        <time>2021-07-30T11:46:56Z</time>
      </trkpt>
      <trkpt lat="48.79167" lon="6.55485">
        <ele>228.1</ele>
        <time>2021-07-30T11:46:57Z</time>
      </trkpt>
      <trkpt lat="48.79169" lon="6.55498">
        <ele>228.1</ele>
        <time>2021-07-30T11:46:59Z</time>
      </trkpt>
      <trkpt lat="48.7917" lon="6.55506">
        <ele>228</ele>
        <time>2021-07-30T11:47:00Z</time>
      </trkpt>
      <trkpt lat="48.79173" lon="6.55521">
        <ele>228</ele>
        <time>2021-07-30T11:47:02Z</time>
      </trkpt>
      <trkpt lat="48.79174" lon="6.55529">
        <ele>228</ele>
        <time>2021-07-30T11:47:03Z</time>
      </trkpt>
      <trkpt lat="48.79175" lon="6.55537">
        <ele>227.9</ele>
        <time>2021-07-30T11:47:04Z</time>
      </trkpt>
      <trkpt lat="48.79178" lon="6.55553">
        <ele>227.9</ele>
        <time>2021-07-30T11:47:06Z</time>
      </trkpt>
      <trkpt lat="48.79181" lon="6.55571">
        <ele>227.8</ele>
        <time>2021-07-30T11:47:08Z</time>
      </trkpt>
      <trkpt lat="48.79184" lon="6.55579">
        <ele>227.8</ele>
        <time>2021-07-30T11:47:09Z</time>
      </trkpt>
      <trkpt lat="48.79186" lon="6.55586">
        <ele>227.8</ele>
        <time>2021-07-30T11:47:10Z</time>
      </trkpt>
      <trkpt lat="48.79189" lon="6.55594">
        <ele>227.8</ele>
        <time>2021-07-30T11:47:11Z</time>
      </trkpt>
      <trkpt lat="48.79192" lon="6.55602">
        <ele>227.7</ele>
        <time>2021-07-30T11:47:12Z</time>
      </trkpt>
      <trkpt lat="48.79197" lon="6.55618">
        <ele>227.6</ele>
        <time>2021-07-30T11:47:14Z</time>
      </trkpt>
      <trkpt lat="48.79199" lon="6.55627">
        <ele>227.5</ele>
        <time>2021-07-30T11:47:15Z</time>
      </trkpt>
      <trkpt lat="48.79202" lon="6.55636">
        <ele>227.4</ele>
        <time>2021-07-30T11:47:16Z</time>
      </trkpt>
      <trkpt lat="48.79205" lon="6.55645">
        <ele>227.2</ele>
        <time>2021-07-30T11:47:17Z</time>
      </trkpt>
      <trkpt lat="48.79208" lon="6.55654">
        <ele>227</ele>
        <time>2021-07-30T11:47:18Z</time>
      </trkpt>
      <trkpt lat="48.79215" lon="6.55672">
        <ele>226.4</ele>
        <time>2021-07-30T11:47:20Z</time>
      </trkpt>
      <trkpt lat="48.79218" lon="6.55682">
        <ele>226</ele>
        <time>2021-07-30T11:47:21Z</time>
      </trkpt>
      <trkpt lat="48.79222" lon="6.55692">
        <ele>225.6</ele>
        <time>2021-07-30T11:47:22Z</time>
      </trkpt>
      <trkpt lat="48.79228" lon="6.55714">
        <ele>224.7</ele>
        <time>2021-07-30T11:47:24Z</time>
      </trkpt>
      <trkpt lat="48.79236" lon="6.55737">
        <ele>223.8</ele>
        <time>2021-07-30T11:47:26Z</time>
      </trkpt>
      <trkpt lat="48.7924" lon="6.55749">
        <ele>223.4</ele>
        <time>2021-07-30T11:47:27Z</time>
      </trkpt>
      <trkpt lat="48.79243" lon="6.55761">
        <ele>223</ele>
        <time>2021-07-30T11:47:28Z</time>
      </trkpt>
      <trkpt lat="48.79251" lon="6.55786">
        <ele>222.4</ele>
        <time>2021-07-30T11:47:30Z</time>
      </trkpt>
      <trkpt lat="48.79257" lon="6.55811">
        <ele>222</ele>
        <time>2021-07-30T11:47:32Z</time>
      </trkpt>
      <trkpt lat="48.7926" lon="6.55822">
        <ele>221.8</ele>
        <time>2021-07-30T11:47:33Z</time>
      </trkpt>
      <trkpt lat="48.79263" lon="6.55834">
        <ele>221.7</ele>
        <time>2021-07-30T11:47:34Z</time>
      </trkpt>
      <trkpt lat="48.7927" lon="6.55857">
        <ele>221.4</ele>
        <time>2021-07-30T11:47:36Z</time>
      </trkpt>
      <trkpt lat="48.79276" lon="6.55879">
        <ele>221.3</ele>
        <time>2021-07-30T11:47:38Z</time>
      </trkpt>
      <trkpt lat="48.79278" lon="6.55889">
        <ele>221.2</ele>
        <time>2021-07-30T11:47:39Z</time>
      </trkpt>
      <trkpt lat="48.7928" lon="6.55899">
        <ele>221.1</ele>
        <time>2021-07-30T11:47:40Z</time>
      </trkpt>
      <trkpt lat="48.79282" lon="6.55908">
        <ele>221.1</ele>
        <time>2021-07-30T11:47:41Z</time>
      </trkpt>
      <trkpt lat="48.79283" lon="6.55918">
        <ele>221.1</ele>
        <time>2021-07-30T11:47:42Z</time>
      </trkpt>
      <trkpt lat="48.79287" lon="6.55936">
        <ele>221.1</ele>
        <time>2021-07-30T11:47:44Z</time>
      </trkpt>
      <trkpt lat="48.79288" lon="6.55945">
        <ele>221.1</ele>
        <time>2021-07-30T11:47:45Z</time>
      </trkpt>
      <trkpt lat="48.79289" lon="6.55954">
        <ele>221</ele>
        <time>2021-07-30T11:47:46Z</time>
      </trkpt>
      <trkpt lat="48.79291" lon="6.55973">
        <ele>221</ele>
        <time>2021-07-30T11:47:48Z</time>
      </trkpt>
      <trkpt lat="48.79292" lon="6.55992">
        <ele>221.1</ele>
        <time>2021-07-30T11:47:50Z</time>
      </trkpt>
      <trkpt lat="48.79293" lon="6.56001">
        <ele>221.1</ele>
        <time>2021-07-30T11:47:51Z</time>
      </trkpt>
      <trkpt lat="48.79294" lon="6.56019">
        <ele>221.1</ele>
        <time>2021-07-30T11:47:53Z</time>
      </trkpt>
      <trkpt lat="48.79294" lon="6.56027">
        <ele>221.2</ele>
        <time>2021-07-30T11:47:54Z</time>
      </trkpt>
      <trkpt lat="48.79293" lon="6.56044">
        <ele>221.2</ele>
        <time>2021-07-30T11:47:56Z</time>
      </trkpt>
      <trkpt lat="48.79292" lon="6.56059">
        <ele>221.3</ele>
        <time>2021-07-30T11:47:58Z</time>
      </trkpt>
      <trkpt lat="48.79292" lon="6.56075">
        <ele>221.4</ele>
        <time>2021-07-30T11:48:00Z</time>
      </trkpt>
      <trkpt lat="48.79292" lon="6.56092">
        <ele>221.4</ele>
        <time>2021-07-30T11:48:02Z</time>
      </trkpt>
      <trkpt lat="48.79292" lon="6.56101">
        <ele>221.4</ele>
        <time>2021-07-30T11:48:03Z</time>
      </trkpt>
      <trkpt lat="48.79291" lon="6.56118">
        <ele>221.4</ele>
        <time>2021-07-30T11:48:05Z</time>
      </trkpt>
      <trkpt lat="48.79291" lon="6.56126">
        <ele>221.3</ele>
        <time>2021-07-30T11:48:06Z</time>
      </trkpt>
      <trkpt lat="48.79289" lon="6.56139">
        <ele>221.2</ele>
        <time>2021-07-30T11:48:08Z</time>
      </trkpt>
      <trkpt lat="48.79287" lon="6.56149">
        <ele>220.8</ele>
        <time>2021-07-30T11:48:10Z</time>
      </trkpt>
      <trkpt lat="48.79287" lon="6.56155">
        <ele>220.7</ele>
        <time>2021-07-30T11:48:12Z</time>
      </trkpt>
      <trkpt lat="48.79287" lon="6.56159">
        <ele>220.7</ele>
        <time>2021-07-30T11:48:14Z</time>
      </trkpt>
      <trkpt lat="48.79287" lon="6.56161">
        <ele>220.7</ele>
        <time>2021-07-30T11:48:16Z</time>
      </trkpt>
      <trkpt lat="48.79286" lon="6.56166">
        <ele>220.6</ele>
        <time>2021-07-30T11:48:17Z</time>
      </trkpt>
      <trkpt lat="48.79284" lon="6.56171">
        <ele>220.5</ele>
        <time>2021-07-30T11:48:18Z</time>
      </trkpt>
      <trkpt lat="48.79277" lon="6.56175">
        <ele>220.4</ele>
        <time>2021-07-30T11:48:20Z</time>
      </trkpt>
      <trkpt lat="48.79274" lon="6.56176">
        <ele>220.4</ele>
        <time>2021-07-30T11:48:22Z</time>
      </trkpt>
      <trkpt lat="48.79274" lon="6.56176">
        <ele>220.3</ele>
        <time>2021-07-30T11:48:23Z</time>
      </trkpt>
      <trkpt lat="48.79274" lon="6.56174">
        <ele>220.3</ele>
        <time>2021-07-30T11:48:25Z</time>
      </trkpt>
      <trkpt lat="48.79274" lon="6.56174">
        <ele>220.3</ele>
        <time>2021-07-30T11:48:27Z</time>
      </trkpt>
      <trkpt lat="48.79274" lon="6.56174">
        <ele>220.3</ele>
        <time>2021-07-30T11:48:29Z</time>
      </trkpt>
      <trkpt lat="48.79274" lon="6.56174">
        <ele>220.3</ele>
        <time>2021-07-30T11:48:31Z</time>
      </trkpt>
      <trkpt lat="48.79274" lon="6.56173">
        <ele>220.3</ele>
        <time>2021-07-30T11:48:32Z</time>
      </trkpt>
      <trkpt lat="48.79268" lon="6.56198">
        <ele>220.3</ele>
        <time>2021-07-30T11:49:08Z</time>
      </trkpt>
      <trkpt lat="48.79266" lon="6.56202">
        <ele>220.3</ele>
        <time>2021-07-30T11:49:09Z</time>
      </trkpt>
      <trkpt lat="48.79265" lon="6.56206">
        <ele>220.3</ele>
        <time>2021-07-30T11:49:10Z</time>
      </trkpt>
      <trkpt lat="48.79265" lon="6.56209">
        <ele>220.3</ele>
        <time>2021-07-30T11:49:11Z</time>
      </trkpt>
      <trkpt lat="48.79265" lon="6.56211">
        <ele>220.3</ele>
        <time>2021-07-30T11:49:12Z</time>
      </trkpt>
      <trkpt lat="48.79264" lon="6.56217">
        <ele>220.4</ele>
        <time>2021-07-30T11:49:14Z</time>
      </trkpt>
      <trkpt lat="48.79264" lon="6.56218">
        <ele>220.4</ele>
        <time>2021-07-30T11:49:15Z</time>
      </trkpt>
      <trkpt lat="48.79264" lon="6.56221">
        <ele>220.4</ele>
        <time>2021-07-30T11:49:16Z</time>
      </trkpt>
      <trkpt lat="48.79263" lon="6.56224">
        <ele>220.5</ele>
        <time>2021-07-30T11:49:18Z</time>
      </trkpt>
      <trkpt lat="48.79263" lon="6.56225">
        <ele>220.5</ele>
        <time>2021-07-30T11:49:19Z</time>
      </trkpt>
      <trkpt lat="48.79262" lon="6.56226">
        <ele>220.5</ele>
        <time>2021-07-30T11:49:20Z</time>
      </trkpt>
      <trkpt lat="48.79262" lon="6.56226">
        <ele>220.5</ele>
        <time>2021-07-30T11:49:21Z</time>
      </trkpt>
      <trkpt lat="48.79262" lon="6.56226">
        <ele>220.5</ele>
        <time>2021-07-30T11:49:22Z</time>
      </trkpt>
      <trkpt lat="48.79261" lon="6.56229">
        <ele>220.5</ele>
        <time>2021-07-30T11:49:24Z</time>
      </trkpt>
      <trkpt lat="48.79261" lon="6.56231">
        <ele>220.6</ele>
        <time>2021-07-30T11:49:25Z</time>
      </trkpt>
      <trkpt lat="48.79262" lon="6.56233">
        <ele>220.6</ele>
        <time>2021-07-30T11:49:26Z</time>
      </trkpt>
      <trkpt lat="48.79263" lon="6.56241">
        <ele>220.6</ele>
        <time>2021-07-30T11:49:27Z</time>
      </trkpt>
      <trkpt lat="48.79264" lon="6.56248">
        <ele>220.5</ele>
        <time>2021-07-30T11:49:29Z</time>
      </trkpt>
      <trkpt lat="48.79264" lon="6.56255">
        <ele>220.5</ele>
        <time>2021-07-30T11:49:31Z</time>
      </trkpt>
      <trkpt lat="48.79265" lon="6.56262">
        <ele>220.4</ele>
        <time>2021-07-30T11:49:32Z</time>
      </trkpt>
      <trkpt lat="48.79266" lon="6.5627">
        <ele>220.3</ele>
        <time>2021-07-30T11:49:34Z</time>
      </trkpt>
      <trkpt lat="48.79267" lon="6.56277">
        <ele>220.3</ele>
        <time>2021-07-30T11:49:35Z</time>
      </trkpt>
      <trkpt lat="48.79268" lon="6.56284">
        <ele>220.1</ele>
        <time>2021-07-30T11:49:36Z</time>
      </trkpt>
      <trkpt lat="48.79269" lon="6.56291">
        <ele>219.9</ele>
        <time>2021-07-30T11:49:38Z</time>
      </trkpt>
      <trkpt lat="48.7927" lon="6.56298">
        <ele>219.7</ele>
        <time>2021-07-30T11:49:40Z</time>
      </trkpt>
      <trkpt lat="48.79271" lon="6.56305">
        <ele>219.3</ele>
        <time>2021-07-30T11:50:47Z</time>
      </trkpt>
      <trkpt lat="48.79271" lon="6.56312">
        <ele>219</ele>
        <time>2021-07-30T11:50:48Z</time>
      </trkpt>
      <trkpt lat="48.79272" lon="6.56319">
        <ele>218.6</ele>
        <time>2021-07-30T11:50:50Z</time>
      </trkpt>
      <trkpt lat="48.79277" lon="6.56329">
        <ele>218</ele>
        <time>2021-07-30T11:50:51Z</time>
      </trkpt>
      <trkpt lat="48.79277" lon="6.56339">
        <ele>217.5</ele>
        <time>2021-07-30T11:50:53Z</time>
      </trkpt>
      <trkpt lat="48.79278" lon="6.56348">
        <ele>217.2</ele>
        <time>2021-07-30T11:50:54Z</time>
      </trkpt>
      <trkpt lat="48.79279" lon="6.56357">
        <ele>216.9</ele>
        <time>2021-07-30T11:50:55Z</time>
      </trkpt>
      <trkpt lat="48.79279" lon="6.56364">
        <ele>216.6</ele>
        <time>2021-07-30T11:50:56Z</time>
      </trkpt>
      <trkpt lat="48.79279" lon="6.56372">
        <ele>216.3</ele>
        <time>2021-07-30T11:50:57Z</time>
      </trkpt>
      <trkpt lat="48.79279" lon="6.56382">
        <ele>215.8</ele>
        <time>2021-07-30T11:50:58Z</time>
      </trkpt>
      <trkpt lat="48.7928" lon="6.56389">
        <ele>215.5</ele>
        <time>2021-07-30T11:50:59Z</time>
      </trkpt>
      <trkpt lat="48.7928" lon="6.56396">
        <ele>215.2</ele>
        <time>2021-07-30T11:51:00Z</time>
      </trkpt>
      <trkpt lat="48.79281" lon="6.5641">
        <ele>214.5</ele>
        <time>2021-07-30T11:51:02Z</time>
      </trkpt>
      <trkpt lat="48.79284" lon="6.56421">
        <ele>213.9</ele>
        <time>2021-07-30T11:51:04Z</time>
      </trkpt>
      <trkpt lat="48.79284" lon="6.56427">
        <ele>213.6</ele>
        <time>2021-07-30T11:51:05Z</time>
      </trkpt>
      <trkpt lat="48.79284" lon="6.56435">
        <ele>213.3</ele>
        <time>2021-07-30T11:51:06Z</time>
      </trkpt>
      <trkpt lat="48.79285" lon="6.5645">
        <ele>212.7</ele>
        <time>2021-07-30T11:51:08Z</time>
      </trkpt>
      <trkpt lat="48.79284" lon="6.56467">
        <ele>212</ele>
        <time>2021-07-30T11:51:10Z</time>
      </trkpt>
      <trkpt lat="48.79282" lon="6.56482">
        <ele>211.1</ele>
        <time>2021-07-30T11:51:12Z</time>
      </trkpt>
      <trkpt lat="48.79279" lon="6.56497">
        <ele>210.5</ele>
        <time>2021-07-30T11:51:14Z</time>
      </trkpt>
      <trkpt lat="48.79278" lon="6.56505">
        <ele>210.3</ele>
        <time>2021-07-30T11:51:15Z</time>
      </trkpt>
      <trkpt lat="48.79276" lon="6.56514">
        <ele>210</ele>
        <time>2021-07-30T11:51:16Z</time>
      </trkpt>
      <trkpt lat="48.79272" lon="6.56531">
        <ele>209.5</ele>
        <time>2021-07-30T11:51:18Z</time>
      </trkpt>
      <trkpt lat="48.79269" lon="6.56548">
        <ele>208.9</ele>
        <time>2021-07-30T11:51:20Z</time>
      </trkpt>
      <trkpt lat="48.79267" lon="6.56555">
        <ele>208.7</ele>
        <time>2021-07-30T11:51:21Z</time>
      </trkpt>
      <trkpt lat="48.79269" lon="6.5656">
        <ele>208.6</ele>
        <time>2021-07-30T11:51:23Z</time>
      </trkpt>
      <trkpt lat="48.79267" lon="6.56566">
        <ele>208.5</ele>
        <time>2021-07-30T11:51:24Z</time>
      </trkpt>
      <trkpt lat="48.79261" lon="6.56571">
        <ele>208.3</ele>
        <time>2021-07-30T11:51:25Z</time>
      </trkpt>
      <trkpt lat="48.79254" lon="6.56575">
        <ele>208.2</ele>
        <time>2021-07-30T11:51:27Z</time>
      </trkpt>
      <trkpt lat="48.7925" lon="6.56579">
        <ele>208.3</ele>
        <time>2021-07-30T11:51:29Z</time>
      </trkpt>
      <trkpt lat="48.79248" lon="6.56582">
        <ele>208.4</ele>
        <time>2021-07-30T11:51:30Z</time>
      </trkpt>
      <trkpt lat="48.79246" lon="6.56587">
        <ele>208.5</ele>
        <time>2021-07-30T11:51:32Z</time>
      </trkpt>
      <trkpt lat="48.79246" lon="6.56588">
        <ele>208.5</ele>
        <time>2021-07-30T11:51:33Z</time>
      </trkpt>
      <trkpt lat="48.79246" lon="6.56589">
        <ele>208.5</ele>
        <time>2021-07-30T11:51:34Z</time>
      </trkpt>
      <trkpt lat="48.79246" lon="6.5659">
        <ele>208.6</ele>
        <time>2021-07-30T11:51:35Z</time>
      </trkpt>
      <trkpt lat="48.79246" lon="6.56591">
        <ele>208.6</ele>
        <time>2021-07-30T11:51:37Z</time>
      </trkpt>
      <trkpt lat="48.79246" lon="6.56592">
        <ele>208.6</ele>
        <time>2021-07-30T11:51:38Z</time>
      </trkpt>
      <trkpt lat="48.79245" lon="6.56593">
        <ele>208.7</ele>
        <time>2021-07-30T11:51:39Z</time>
      </trkpt>
      <trkpt lat="48.79243" lon="6.56594">
        <ele>208.8</ele>
        <time>2021-07-30T11:51:41Z</time>
      </trkpt>
      <trkpt lat="48.79243" lon="6.56599">
        <ele>208.9</ele>
        <time>2021-07-30T11:51:42Z</time>
      </trkpt>
      <trkpt lat="48.79243" lon="6.56605">
        <ele>209.1</ele>
        <time>2021-07-30T11:51:44Z</time>
      </trkpt>
      <trkpt lat="48.79244" lon="6.5661">
        <ele>209.2</ele>
        <time>2021-07-30T11:51:45Z</time>
      </trkpt>
      <trkpt lat="48.79244" lon="6.56612">
        <ele>209.3</ele>
        <time>2021-07-30T11:51:46Z</time>
      </trkpt>
      <trkpt lat="48.79244" lon="6.56618">
        <ele>209.3</ele>
        <time>2021-07-30T11:51:47Z</time>
      </trkpt>
      <trkpt lat="48.79245" lon="6.56619">
        <ele>209.3</ele>
        <time>2021-07-30T11:51:48Z</time>
      </trkpt>
      <trkpt lat="48.79245" lon="6.56624">
        <ele>209.2</ele>
        <time>2021-07-30T11:51:50Z</time>
      </trkpt>
      <trkpt lat="48.79244" lon="6.56626">
        <ele>209.2</ele>
        <time>2021-07-30T11:51:51Z</time>
      </trkpt>
      <trkpt lat="48.79243" lon="6.5663">
        <ele>209.2</ele>
        <time>2021-07-30T11:51:52Z</time>
      </trkpt>
      <trkpt lat="48.79243" lon="6.56631">
        <ele>209.2</ele>
        <time>2021-07-30T11:51:53Z</time>
      </trkpt>
      <trkpt lat="48.79242" lon="6.56634">
        <ele>209.1</ele>
        <time>2021-07-30T11:51:54Z</time>
      </trkpt>
      <trkpt lat="48.79241" lon="6.5664">
        <ele>209.1</ele>
        <time>2021-07-30T11:51:56Z</time>
      </trkpt>
      <trkpt lat="48.79241" lon="6.56642">
        <ele>209.1</ele>
        <time>2021-07-30T11:51:57Z</time>
      </trkpt>
      <trkpt lat="48.79241" lon="6.56644">
        <ele>209.1</ele>
        <time>2021-07-30T11:51:58Z</time>
      </trkpt>
      <trkpt lat="48.79241" lon="6.56647">
        <ele>209.1</ele>
        <time>2021-07-30T11:51:59Z</time>
      </trkpt>
      <trkpt lat="48.79241" lon="6.5665">
        <ele>209.1</ele>
        <time>2021-07-30T11:52:01Z</time>
      </trkpt>
      <trkpt lat="48.7924" lon="6.56655">
        <ele>209.2</ele>
        <time>2021-07-30T11:52:02Z</time>
      </trkpt>
      <trkpt lat="48.7924" lon="6.56656">
        <ele>209.2</ele>
        <time>2021-07-30T11:52:03Z</time>
      </trkpt>
      <trkpt lat="48.7924" lon="6.56659">
        <ele>209.2</ele>
        <time>2021-07-30T11:52:04Z</time>
      </trkpt>
      <trkpt lat="48.7924" lon="6.56663">
        <ele>209.3</ele>
        <time>2021-07-30T11:52:06Z</time>
      </trkpt>
      <trkpt lat="48.79239" lon="6.56668">
        <ele>209.4</ele>
        <time>2021-07-30T11:52:07Z</time>
      </trkpt>
      <trkpt lat="48.79239" lon="6.56669">
        <ele>209.4</ele>
        <time>2021-07-30T11:52:08Z</time>
      </trkpt>
      <trkpt lat="48.79238" lon="6.56671">
        <ele>209.4</ele>
        <time>2021-07-30T11:52:09Z</time>
      </trkpt>
      <trkpt lat="48.79238" lon="6.56676">
        <ele>209.5</ele>
        <time>2021-07-30T11:52:11Z</time>
      </trkpt>
      <trkpt lat="48.79237" lon="6.5668">
        <ele>209.6</ele>
        <time>2021-07-30T11:52:12Z</time>
      </trkpt>
      <trkpt lat="48.79236" lon="6.56686">
        <ele>209.8</ele>
        <time>2021-07-30T11:52:14Z</time>
      </trkpt>
      <trkpt lat="48.79235" lon="6.56688">
        <ele>209.8</ele>
        <time>2021-07-30T11:52:15Z</time>
      </trkpt>
      <trkpt lat="48.79235" lon="6.5669">
        <ele>209.9</ele>
        <time>2021-07-30T11:52:16Z</time>
      </trkpt>
      <trkpt lat="48.79234" lon="6.56692">
        <ele>210</ele>
        <time>2021-07-30T11:52:18Z</time>
      </trkpt>
      <trkpt lat="48.79234" lon="6.56693">
        <ele>210</ele>
        <time>2021-07-30T11:52:19Z</time>
      </trkpt>
      <trkpt lat="48.79234" lon="6.56693">
        <ele>210</ele>
        <time>2021-07-30T11:52:20Z</time>
      </trkpt>
      <trkpt lat="48.79234" lon="6.56693">
        <ele>210</ele>
        <time>2021-07-30T11:52:21Z</time>
      </trkpt>
      <trkpt lat="48.79234" lon="6.56694">
        <ele>210</ele>
        <time>2021-07-30T11:52:23Z</time>
      </trkpt>
      <trkpt lat="48.79234" lon="6.56694">
        <ele>210.1</ele>
        <time>2021-07-30T11:52:24Z</time>
      </trkpt>
      <trkpt lat="48.79234" lon="6.56695">
        <ele>210.1</ele>
        <time>2021-07-30T11:52:25Z</time>
      </trkpt>
      <trkpt lat="48.79234" lon="6.56695">
        <ele>210.1</ele>
        <time>2021-07-30T11:52:26Z</time>
      </trkpt>
      <trkpt lat="48.79234" lon="6.56696">
        <ele>210.1</ele>
        <time>2021-07-30T11:52:28Z</time>
      </trkpt>
      <trkpt lat="48.79234" lon="6.56712">
        <ele>210.6</ele>
        <time>2021-07-30T11:52:36Z</time>
      </trkpt>
      <trkpt lat="48.79234" lon="6.56717">
        <ele>210.8</ele>
        <time>2021-07-30T11:52:37Z</time>
      </trkpt>
      <trkpt lat="48.79234" lon="6.56719">
        <ele>210.9</ele>
        <time>2021-07-30T11:52:38Z</time>
      </trkpt>
      <trkpt lat="48.79234" lon="6.56721">
        <ele>211</ele>
        <time>2021-07-30T11:52:39Z</time>
      </trkpt>
      <trkpt lat="48.79234" lon="6.56726">
        <ele>211.1</ele>
        <time>2021-07-30T11:52:41Z</time>
      </trkpt>
      <trkpt lat="48.79233" lon="6.56729">
        <ele>211.2</ele>
        <time>2021-07-30T11:52:42Z</time>
      </trkpt>
      <trkpt lat="48.79233" lon="6.56733">
        <ele>211.3</ele>
        <time>2021-07-30T11:52:44Z</time>
      </trkpt>
      <trkpt lat="48.79233" lon="6.56736">
        <ele>211.5</ele>
        <time>2021-07-30T11:52:45Z</time>
      </trkpt>
      <trkpt lat="48.79233" lon="6.56737">
        <ele>211.5</ele>
        <time>2021-07-30T11:52:46Z</time>
      </trkpt>
      <trkpt lat="48.79233" lon="6.56738">
        <ele>211.6</ele>
        <time>2021-07-30T11:52:47Z</time>
      </trkpt>
      <trkpt lat="48.79233" lon="6.56741">
        <ele>211.7</ele>
        <time>2021-07-30T11:52:49Z</time>
      </trkpt>
      <trkpt lat="48.79233" lon="6.56744">
        <ele>211.8</ele>
        <time>2021-07-30T11:52:50Z</time>
      </trkpt>
      <trkpt lat="48.79233" lon="6.56745">
        <ele>211.8</ele>
        <time>2021-07-30T11:52:51Z</time>
      </trkpt>
      <trkpt lat="48.79233" lon="6.56746">
        <ele>211.9</ele>
        <time>2021-07-30T11:52:52Z</time>
      </trkpt>
      <trkpt lat="48.79233" lon="6.56748">
        <ele>211.9</ele>
        <time>2021-07-30T11:52:53Z</time>
      </trkpt>
      <trkpt lat="48.79232" lon="6.56753">
        <ele>212.2</ele>
        <time>2021-07-30T11:52:55Z</time>
      </trkpt>
      <trkpt lat="48.79232" lon="6.56754">
        <ele>212.2</ele>
        <time>2021-07-30T11:52:56Z</time>
      </trkpt>
      <trkpt lat="48.79232" lon="6.56756">
        <ele>212.3</ele>
        <time>2021-07-30T11:52:58Z</time>
      </trkpt>
      <trkpt lat="48.79232" lon="6.56759">
        <ele>212.4</ele>
        <time>2021-07-30T11:52:59Z</time>
      </trkpt>
      <trkpt lat="48.79232" lon="6.5676">
        <ele>212.5</ele>
        <time>2021-07-30T11:53:00Z</time>
      </trkpt>
      <trkpt lat="48.79232" lon="6.56762">
        <ele>212.6</ele>
        <time>2021-07-30T11:53:02Z</time>
      </trkpt>
      <trkpt lat="48.79232" lon="6.56761">
        <ele>212.6</ele>
        <time>2021-07-30T11:53:03Z</time>
      </trkpt>
      <trkpt lat="48.79232" lon="6.56761">
        <ele>212.6</ele>
        <time>2021-07-30T11:53:04Z</time>
      </trkpt>
      <trkpt lat="48.79233" lon="6.56761">
        <ele>212.6</ele>
        <time>2021-07-30T11:53:05Z</time>
      </trkpt>
      <trkpt lat="48.79233" lon="6.56762">
        <ele>212.7</ele>
        <time>2021-07-30T11:53:06Z</time>
      </trkpt>
      <trkpt lat="48.79233" lon="6.56763">
        <ele>212.7</ele>
        <time>2021-07-30T11:53:08Z</time>
      </trkpt>
      <trkpt lat="48.79232" lon="6.56764">
        <ele>212.8</ele>
        <time>2021-07-30T11:53:09Z</time>
      </trkpt>
      <trkpt lat="48.79232" lon="6.56766">
        <ele>212.9</ele>
        <time>2021-07-30T11:53:11Z</time>
      </trkpt>
      <trkpt lat="48.79231" lon="6.56805">
        <ele>215.4</ele>
        <time>2021-07-30T11:54:08Z</time>
      </trkpt>
      <trkpt lat="48.79231" lon="6.56807">
        <ele>215.6</ele>
        <time>2021-07-30T11:54:09Z</time>
      </trkpt>
      <trkpt lat="48.79231" lon="6.56809">
        <ele>215.7</ele>
        <time>2021-07-30T11:54:10Z</time>
      </trkpt>
      <trkpt lat="48.7923" lon="6.56811">
        <ele>215.8</ele>
        <time>2021-07-30T11:54:12Z</time>
      </trkpt>
      <trkpt lat="48.7923" lon="6.56813">
        <ele>216</ele>
        <time>2021-07-30T11:54:14Z</time>
      </trkpt>
      <trkpt lat="48.7923" lon="6.56814">
        <ele>216.1</ele>
        <time>2021-07-30T11:54:15Z</time>
      </trkpt>
      <trkpt lat="48.79229" lon="6.56816">
        <ele>216.3</ele>
        <time>2021-07-30T11:54:17Z</time>
      </trkpt>
      <trkpt lat="48.79229" lon="6.56817">
        <ele>216.4</ele>
        <time>2021-07-30T11:54:18Z</time>
      </trkpt>
      <trkpt lat="48.79229" lon="6.56818">
        <ele>216.5</ele>
        <time>2021-07-30T11:54:20Z</time>
      </trkpt>
      <trkpt lat="48.79229" lon="6.56819">
        <ele>216.5</ele>
        <time>2021-07-30T11:54:21Z</time>
      </trkpt>
      <trkpt lat="48.79229" lon="6.5682">
        <ele>216.6</ele>
        <time>2021-07-30T11:54:22Z</time>
      </trkpt>
      <trkpt lat="48.79229" lon="6.5682">
        <ele>216.6</ele>
        <time>2021-07-30T11:54:23Z</time>
      </trkpt>
      <trkpt lat="48.79228" lon="6.56821">
        <ele>216.7</ele>
        <time>2021-07-30T11:54:25Z</time>
      </trkpt>
      <trkpt lat="48.79228" lon="6.56821">
        <ele>216.8</ele>
        <time>2021-07-30T11:54:26Z</time>
      </trkpt>
      <trkpt lat="48.79228" lon="6.56822">
        <ele>216.8</ele>
        <time>2021-07-30T11:54:28Z</time>
      </trkpt>
      <trkpt lat="48.79224" lon="6.56888">
        <ele>221.7</ele>
        <time>2021-07-30T11:57:14Z</time>
      </trkpt>
      <trkpt lat="48.79223" lon="6.5689">
        <ele>221.8</ele>
        <time>2021-07-30T11:57:16Z</time>
      </trkpt>
      <trkpt lat="48.79223" lon="6.56891">
        <ele>221.9</ele>
        <time>2021-07-30T11:57:17Z</time>
      </trkpt>
      <trkpt lat="48.79223" lon="6.56892">
        <ele>221.9</ele>
        <time>2021-07-30T11:57:18Z</time>
      </trkpt>
      <trkpt lat="48.79223" lon="6.56893">
        <ele>222</ele>
        <time>2021-07-30T11:57:21Z</time>
      </trkpt>
      <trkpt lat="48.79222" lon="6.56894">
        <ele>222.1</ele>
        <time>2021-07-30T11:57:22Z</time>
      </trkpt>
      <trkpt lat="48.79222" lon="6.56894">
        <ele>222.1</ele>
        <time>2021-07-30T11:57:24Z</time>
      </trkpt>
      <trkpt lat="48.79222" lon="6.56895">
        <ele>222.1</ele>
        <time>2021-07-30T11:57:26Z</time>
      </trkpt>
      <trkpt lat="48.79222" lon="6.56896">
        <ele>222.3</ele>
        <time>2021-07-30T11:57:28Z</time>
      </trkpt>
      <trkpt lat="48.79221" lon="6.56897">
        <ele>222.3</ele>
        <time>2021-07-30T11:57:29Z</time>
      </trkpt>
      <trkpt lat="48.79221" lon="6.56898">
        <ele>222.4</ele>
        <time>2021-07-30T11:57:30Z</time>
      </trkpt>
      <trkpt lat="48.7922" lon="6.569">
        <ele>222.4</ele>
        <time>2021-07-30T11:57:32Z</time>
      </trkpt>
      <trkpt lat="48.7922" lon="6.56902">
        <ele>222.5</ele>
        <time>2021-07-30T11:57:33Z</time>
      </trkpt>
      <trkpt lat="48.79218" lon="6.56908">
        <ele>222.8</ele>
        <time>2021-07-30T11:57:34Z</time>
      </trkpt>
      <trkpt lat="48.79217" lon="6.56912">
        <ele>222.9</ele>
        <time>2021-07-30T11:57:35Z</time>
      </trkpt>
      <trkpt lat="48.79217" lon="6.56914">
        <ele>223</ele>
        <time>2021-07-30T11:57:36Z</time>
      </trkpt>
      <trkpt lat="48.79215" lon="6.56919">
        <ele>223.2</ele>
        <time>2021-07-30T11:57:38Z</time>
      </trkpt>
      <trkpt lat="48.79214" lon="6.56924">
        <ele>223.4</ele>
        <time>2021-07-30T11:57:39Z</time>
      </trkpt>
      <trkpt lat="48.79213" lon="6.56927">
        <ele>223.4</ele>
        <time>2021-07-30T11:57:40Z</time>
      </trkpt>
      <trkpt lat="48.79212" lon="6.56928">
        <ele>223.5</ele>
        <time>2021-07-30T11:57:41Z</time>
      </trkpt>
      <trkpt lat="48.79212" lon="6.56929">
        <ele>223.5</ele>
        <time>2021-07-30T11:57:42Z</time>
      </trkpt>
      <trkpt lat="48.79211" lon="6.56932">
        <ele>223.6</ele>
        <time>2021-07-30T11:57:44Z</time>
      </trkpt>
      <trkpt lat="48.79211" lon="6.56933">
        <ele>223.6</ele>
        <time>2021-07-30T11:57:45Z</time>
      </trkpt>
      <trkpt lat="48.7921" lon="6.56936">
        <ele>223.7</ele>
        <time>2021-07-30T11:57:46Z</time>
      </trkpt>
      <trkpt lat="48.79209" lon="6.56938">
        <ele>223.8</ele>
        <time>2021-07-30T11:57:48Z</time>
      </trkpt>
      <trkpt lat="48.79208" lon="6.5694">
        <ele>223.9</ele>
        <time>2021-07-30T11:57:49Z</time>
      </trkpt>
      <trkpt lat="48.79207" lon="6.56942">
        <ele>223.9</ele>
        <time>2021-07-30T11:57:50Z</time>
      </trkpt>
      <trkpt lat="48.79205" lon="6.56947">
        <ele>224.1</ele>
        <time>2021-07-30T11:57:52Z</time>
      </trkpt>
      <trkpt lat="48.79205" lon="6.56949">
        <ele>224.2</ele>
        <time>2021-07-30T11:57:53Z</time>
      </trkpt>
      <trkpt lat="48.79204" lon="6.56953">
        <ele>224.3</ele>
        <time>2021-07-30T11:57:55Z</time>
      </trkpt>
      <trkpt lat="48.79202" lon="6.56956">
        <ele>224.5</ele>
        <time>2021-07-30T11:57:56Z</time>
      </trkpt>
      <trkpt lat="48.79202" lon="6.56957">
        <ele>224.5</ele>
        <time>2021-07-30T11:57:57Z</time>
      </trkpt>
      <trkpt lat="48.79201" lon="6.56957">
        <ele>224.6</ele>
        <time>2021-07-30T11:57:58Z</time>
      </trkpt>
      <trkpt lat="48.792" lon="6.56959">
        <ele>224.6</ele>
        <time>2021-07-30T11:57:59Z</time>
      </trkpt>
      <trkpt lat="48.792" lon="6.5696">
        <ele>224.7</ele>
        <time>2021-07-30T11:58:00Z</time>
      </trkpt>
      <trkpt lat="48.792" lon="6.56961">
        <ele>224.7</ele>
        <time>2021-07-30T11:58:02Z</time>
      </trkpt>
      <trkpt lat="48.792" lon="6.56961">
        <ele>224.7</ele>
        <time>2021-07-30T11:58:03Z</time>
      </trkpt>
      <trkpt lat="48.79198" lon="6.56965">
        <ele>224.8</ele>
        <time>2021-07-30T11:58:04Z</time>
      </trkpt>
      <trkpt lat="48.79198" lon="6.56966">
        <ele>224.9</ele>
        <time>2021-07-30T11:58:05Z</time>
      </trkpt>
      <trkpt lat="48.79197" lon="6.5697">
        <ele>225</ele>
        <time>2021-07-30T11:58:07Z</time>
      </trkpt>
      <trkpt lat="48.79196" lon="6.56974">
        <ele>225.1</ele>
        <time>2021-07-30T11:58:09Z</time>
      </trkpt>
      <trkpt lat="48.79196" lon="6.56978">
        <ele>225.2</ele>
        <time>2021-07-30T11:58:11Z</time>
      </trkpt>
      <trkpt lat="48.79195" lon="6.56981">
        <ele>225.3</ele>
        <time>2021-07-30T11:58:12Z</time>
      </trkpt>
      <trkpt lat="48.79195" lon="6.56984">
        <ele>225.3</ele>
        <time>2021-07-30T11:58:14Z</time>
      </trkpt>
      <trkpt lat="48.79195" lon="6.56984">
        <ele>225.4</ele>
        <time>2021-07-30T11:58:15Z</time>
      </trkpt>
      <trkpt lat="48.79195" lon="6.56986">
        <ele>225.4</ele>
        <time>2021-07-30T11:58:16Z</time>
      </trkpt>
      <trkpt lat="48.79195" lon="6.56988">
        <ele>225.5</ele>
        <time>2021-07-30T11:58:18Z</time>
      </trkpt>
      <trkpt lat="48.79195" lon="6.56988">
        <ele>225.5</ele>
        <time>2021-07-30T11:58:19Z</time>
      </trkpt>
      <trkpt lat="48.79195" lon="6.56989">
        <ele>225.5</ele>
        <time>2021-07-30T11:58:20Z</time>
      </trkpt>
      <trkpt lat="48.79195" lon="6.5699">
        <ele>225.6</ele>
        <time>2021-07-30T11:58:22Z</time>
      </trkpt>
      <trkpt lat="48.79195" lon="6.56991">
        <ele>225.6</ele>
        <time>2021-07-30T11:58:23Z</time>
      </trkpt>
      <trkpt lat="48.79195" lon="6.56992">
        <ele>225.6</ele>
        <time>2021-07-30T11:58:24Z</time>
      </trkpt>
      <trkpt lat="48.79194" lon="6.56996">
        <ele>225.8</ele>
        <time>2021-07-30T11:58:25Z</time>
      </trkpt>
      <trkpt lat="48.79194" lon="6.56999">
        <ele>225.9</ele>
        <time>2021-07-30T11:58:26Z</time>
      </trkpt>
      <trkpt lat="48.79193" lon="6.57003">
        <ele>226</ele>
        <time>2021-07-30T11:58:28Z</time>
      </trkpt>
      <trkpt lat="48.79191" lon="6.57007">
        <ele>226.1</ele>
        <time>2021-07-30T11:58:29Z</time>
      </trkpt>
      <trkpt lat="48.79191" lon="6.57008">
        <ele>226.2</ele>
        <time>2021-07-30T11:58:30Z</time>
      </trkpt>
      <trkpt lat="48.7919" lon="6.57012">
        <ele>226.3</ele>
        <time>2021-07-30T11:58:32Z</time>
      </trkpt>
      <trkpt lat="48.79189" lon="6.57013">
        <ele>226.3</ele>
        <time>2021-07-30T11:58:33Z</time>
      </trkpt>
      <trkpt lat="48.79187" lon="6.57017">
        <ele>226.5</ele>
        <time>2021-07-30T11:58:34Z</time>
      </trkpt>
      <trkpt lat="48.79185" lon="6.57021">
        <ele>226.6</ele>
        <time>2021-07-30T11:58:36Z</time>
      </trkpt>
      <trkpt lat="48.79184" lon="6.57023">
        <ele>226.7</ele>
        <time>2021-07-30T11:58:37Z</time>
      </trkpt>
      <trkpt lat="48.79184" lon="6.57027">
        <ele>226.8</ele>
        <time>2021-07-30T11:58:39Z</time>
      </trkpt>
      <trkpt lat="48.79184" lon="6.57028">
        <ele>226.9</ele>
        <time>2021-07-30T11:58:40Z</time>
      </trkpt>
      <trkpt lat="48.79184" lon="6.57029">
        <ele>226.9</ele>
        <time>2021-07-30T11:58:41Z</time>
      </trkpt>
      <trkpt lat="48.79183" lon="6.57032">
        <ele>227</ele>
        <time>2021-07-30T11:58:42Z</time>
      </trkpt>
      <trkpt lat="48.79182" lon="6.57034">
        <ele>227</ele>
        <time>2021-07-30T11:58:43Z</time>
      </trkpt>
      <trkpt lat="48.79182" lon="6.57036">
        <ele>227.1</ele>
        <time>2021-07-30T11:58:45Z</time>
      </trkpt>
      <trkpt lat="48.79181" lon="6.57038">
        <ele>227.2</ele>
        <time>2021-07-30T11:58:46Z</time>
      </trkpt>
      <trkpt lat="48.79181" lon="6.57039">
        <ele>227.2</ele>
        <time>2021-07-30T11:58:47Z</time>
      </trkpt>
      <trkpt lat="48.7918" lon="6.57041">
        <ele>227.3</ele>
        <time>2021-07-30T11:58:48Z</time>
      </trkpt>
      <trkpt lat="48.79179" lon="6.57043">
        <ele>227.4</ele>
        <time>2021-07-30T11:58:50Z</time>
      </trkpt>
      <trkpt lat="48.79178" lon="6.57045">
        <ele>227.5</ele>
        <time>2021-07-30T11:58:51Z</time>
      </trkpt>
      <trkpt lat="48.79177" lon="6.57047">
        <ele>227.6</ele>
        <time>2021-07-30T11:58:52Z</time>
      </trkpt>
      <trkpt lat="48.79175" lon="6.5705">
        <ele>227.7</ele>
        <time>2021-07-30T11:58:53Z</time>
      </trkpt>
      <trkpt lat="48.79174" lon="6.57051">
        <ele>227.8</ele>
        <time>2021-07-30T11:58:54Z</time>
      </trkpt>
      <trkpt lat="48.79171" lon="6.57057">
        <ele>228.2</ele>
        <time>2021-07-30T11:58:56Z</time>
      </trkpt>
      <trkpt lat="48.7917" lon="6.5706">
        <ele>228.3</ele>
        <time>2021-07-30T11:58:58Z</time>
      </trkpt>
      <trkpt lat="48.79169" lon="6.57063">
        <ele>228.5</ele>
        <time>2021-07-30T11:59:00Z</time>
      </trkpt>
      <trkpt lat="48.79167" lon="6.57066">
        <ele>228.6</ele>
        <time>2021-07-30T11:59:02Z</time>
      </trkpt>
      <trkpt lat="48.79166" lon="6.57068">
        <ele>228.8</ele>
        <time>2021-07-30T11:59:03Z</time>
      </trkpt>
      <trkpt lat="48.79165" lon="6.5707">
        <ele>228.9</ele>
        <time>2021-07-30T11:59:04Z</time>
      </trkpt>
      <trkpt lat="48.79163" lon="6.57074">
        <ele>229.1</ele>
        <time>2021-07-30T11:59:06Z</time>
      </trkpt>
      <trkpt lat="48.79161" lon="6.57079">
        <ele>229.2</ele>
        <time>2021-07-30T11:59:08Z</time>
      </trkpt>
      <trkpt lat="48.79161" lon="6.5708">
        <ele>229.2</ele>
        <time>2021-07-30T11:59:09Z</time>
      </trkpt>
      <trkpt lat="48.79159" lon="6.57082">
        <ele>229.3</ele>
        <time>2021-07-30T11:59:10Z</time>
      </trkpt>
      <trkpt lat="48.79158" lon="6.57084">
        <ele>229.4</ele>
        <time>2021-07-30T11:59:12Z</time>
      </trkpt>
      <trkpt lat="48.79157" lon="6.57086">
        <ele>229.5</ele>
        <time>2021-07-30T11:59:13Z</time>
      </trkpt>
      <trkpt lat="48.79156" lon="6.57087">
        <ele>229.5</ele>
        <time>2021-07-30T11:59:14Z</time>
      </trkpt>
      <trkpt lat="48.79152" lon="6.57093">
        <ele>229.7</ele>
        <time>2021-07-30T11:59:16Z</time>
      </trkpt>
      <trkpt lat="48.79151" lon="6.57095">
        <ele>229.8</ele>
        <time>2021-07-30T11:59:18Z</time>
      </trkpt>
      <trkpt lat="48.79149" lon="6.57097">
        <ele>229.9</ele>
        <time>2021-07-30T11:59:20Z</time>
      </trkpt>
      <trkpt lat="48.79148" lon="6.57099">
        <ele>230</ele>
        <time>2021-07-30T11:59:22Z</time>
      </trkpt>
      <trkpt lat="48.79147" lon="6.57101">
        <ele>230</ele>
        <time>2021-07-30T11:59:23Z</time>
      </trkpt>
      <trkpt lat="48.79146" lon="6.57103">
        <ele>230.1</ele>
        <time>2021-07-30T11:59:24Z</time>
      </trkpt>
      <trkpt lat="48.79144" lon="6.57106">
        <ele>230.2</ele>
        <time>2021-07-30T11:59:26Z</time>
      </trkpt>
      <trkpt lat="48.79143" lon="6.57108">
        <ele>230.3</ele>
        <time>2021-07-30T11:59:27Z</time>
      </trkpt>
      <trkpt lat="48.79142" lon="6.5711">
        <ele>230.4</ele>
        <time>2021-07-30T11:59:28Z</time>
      </trkpt>
      <trkpt lat="48.79141" lon="6.57112">
        <ele>230.4</ele>
        <time>2021-07-30T11:59:29Z</time>
      </trkpt>
      <trkpt lat="48.7914" lon="6.57115">
        <ele>230.6</ele>
        <time>2021-07-30T11:59:31Z</time>
      </trkpt>
      <trkpt lat="48.79138" lon="6.57119">
        <ele>230.7</ele>
        <time>2021-07-30T11:59:33Z</time>
      </trkpt>
      <trkpt lat="48.79137" lon="6.57121">
        <ele>230.8</ele>
        <time>2021-07-30T11:59:34Z</time>
      </trkpt>
      <trkpt lat="48.79134" lon="6.57124">
        <ele>230.9</ele>
        <time>2021-07-30T11:59:36Z</time>
      </trkpt>
      <trkpt lat="48.79132" lon="6.57127">
        <ele>231</ele>
        <time>2021-07-30T11:59:37Z</time>
      </trkpt>
      <trkpt lat="48.79131" lon="6.57128">
        <ele>231.1</ele>
        <time>2021-07-30T11:59:38Z</time>
      </trkpt>
      <trkpt lat="48.7913" lon="6.57131">
        <ele>231.2</ele>
        <time>2021-07-30T11:59:40Z</time>
      </trkpt>
      <trkpt lat="48.79129" lon="6.57133">
        <ele>231.2</ele>
        <time>2021-07-30T11:59:41Z</time>
      </trkpt>
      <trkpt lat="48.79128" lon="6.57135">
        <ele>231.3</ele>
        <time>2021-07-30T11:59:43Z</time>
      </trkpt>
      <trkpt lat="48.79127" lon="6.57138">
        <ele>231.4</ele>
        <time>2021-07-30T11:59:44Z</time>
      </trkpt>
      <trkpt lat="48.79126" lon="6.57141">
        <ele>231.5</ele>
        <time>2021-07-30T11:59:46Z</time>
      </trkpt>
      <trkpt lat="48.79125" lon="6.57143">
        <ele>231.6</ele>
        <time>2021-07-30T11:59:47Z</time>
      </trkpt>
      <trkpt lat="48.79123" lon="6.57146">
        <ele>231.7</ele>
        <time>2021-07-30T11:59:49Z</time>
      </trkpt>
      <trkpt lat="48.79122" lon="6.57147">
        <ele>231.8</ele>
        <time>2021-07-30T11:59:50Z</time>
      </trkpt>
      <trkpt lat="48.79121" lon="6.57149">
        <ele>231.8</ele>
        <time>2021-07-30T11:59:51Z</time>
      </trkpt>
      <trkpt lat="48.7912" lon="6.5715">
        <ele>231.9</ele>
        <time>2021-07-30T11:59:52Z</time>
      </trkpt>
      <trkpt lat="48.79119" lon="6.57152">
        <ele>232</ele>
        <time>2021-07-30T11:59:53Z</time>
      </trkpt>
      <trkpt lat="48.79118" lon="6.57153">
        <ele>232</ele>
        <time>2021-07-30T11:59:54Z</time>
      </trkpt>
      <trkpt lat="48.79117" lon="6.57156">
        <ele>232.2</ele>
        <time>2021-07-30T11:59:56Z</time>
      </trkpt>
      <trkpt lat="48.79116" lon="6.57158">
        <ele>232.2</ele>
        <time>2021-07-30T11:59:57Z</time>
      </trkpt>
      <trkpt lat="48.79113" lon="6.57161">
        <ele>232.4</ele>
        <time>2021-07-30T11:59:59Z</time>
      </trkpt>
      <trkpt lat="48.79112" lon="6.57164">
        <ele>232.5</ele>
        <time>2021-07-30T12:00:00Z</time>
      </trkpt>
      <trkpt lat="48.79112" lon="6.57165">
        <ele>232.6</ele>
        <time>2021-07-30T12:00:01Z</time>
      </trkpt>
      <trkpt lat="48.79111" lon="6.57167">
        <ele>232.6</ele>
        <time>2021-07-30T12:00:02Z</time>
      </trkpt>
      <trkpt lat="48.79108" lon="6.5717">
        <ele>232.8</ele>
        <time>2021-07-30T12:00:04Z</time>
      </trkpt>
      <trkpt lat="48.79107" lon="6.57174">
        <ele>232.9</ele>
        <time>2021-07-30T12:00:06Z</time>
      </trkpt>
      <trkpt lat="48.79107" lon="6.57176">
        <ele>233</ele>
        <time>2021-07-30T12:00:07Z</time>
      </trkpt>
      <trkpt lat="48.79106" lon="6.57178">
        <ele>233.1</ele>
        <time>2021-07-30T12:00:08Z</time>
      </trkpt>
      <trkpt lat="48.79104" lon="6.57182">
        <ele>233.3</ele>
        <time>2021-07-30T12:00:10Z</time>
      </trkpt>
      <trkpt lat="48.79104" lon="6.57183">
        <ele>233.3</ele>
        <time>2021-07-30T12:00:11Z</time>
      </trkpt>
      <trkpt lat="48.79103" lon="6.57186">
        <ele>233.4</ele>
        <time>2021-07-30T12:00:12Z</time>
      </trkpt>
      <trkpt lat="48.79102" lon="6.57188">
        <ele>233.5</ele>
        <time>2021-07-30T12:00:13Z</time>
      </trkpt>
      <trkpt lat="48.79102" lon="6.5719">
        <ele>233.5</ele>
        <time>2021-07-30T12:00:14Z</time>
      </trkpt>
      <trkpt lat="48.791" lon="6.57193">
        <ele>233.7</ele>
        <time>2021-07-30T12:00:16Z</time>
      </trkpt>
      <trkpt lat="48.79099" lon="6.57196">
        <ele>233.8</ele>
        <time>2021-07-30T12:00:17Z</time>
      </trkpt>
      <trkpt lat="48.79098" lon="6.57197">
        <ele>233.8</ele>
        <time>2021-07-30T12:00:18Z</time>
      </trkpt>
      <trkpt lat="48.79097" lon="6.57201">
        <ele>234</ele>
        <time>2021-07-30T12:00:20Z</time>
      </trkpt>
      <trkpt lat="48.79097" lon="6.57205">
        <ele>234.1</ele>
        <time>2021-07-30T12:00:22Z</time>
      </trkpt>
      <trkpt lat="48.79096" lon="6.57207">
        <ele>234.2</ele>
        <time>2021-07-30T12:00:23Z</time>
      </trkpt>
      <trkpt lat="48.79095" lon="6.57209">
        <ele>234.2</ele>
        <time>2021-07-30T12:00:24Z</time>
      </trkpt>
      <trkpt lat="48.79095" lon="6.5721">
        <ele>234.3</ele>
        <time>2021-07-30T12:00:26Z</time>
      </trkpt>
      <trkpt lat="48.79094" lon="6.57212">
        <ele>234.3</ele>
        <time>2021-07-30T12:00:27Z</time>
      </trkpt>
      <trkpt lat="48.79093" lon="6.57214">
        <ele>234.4</ele>
        <time>2021-07-30T12:00:28Z</time>
      </trkpt>
      <trkpt lat="48.79091" lon="6.57217">
        <ele>234.5</ele>
        <time>2021-07-30T12:00:30Z</time>
      </trkpt>
      <trkpt lat="48.79091" lon="6.57219">
        <ele>234.6</ele>
        <time>2021-07-30T12:00:31Z</time>
      </trkpt>
      <trkpt lat="48.79089" lon="6.57223">
        <ele>234.7</ele>
        <time>2021-07-30T12:00:33Z</time>
      </trkpt>
      <trkpt lat="48.79088" lon="6.57225">
        <ele>234.8</ele>
        <time>2021-07-30T12:00:34Z</time>
      </trkpt>
      <trkpt lat="48.79087" lon="6.57228">
        <ele>234.8</ele>
        <time>2021-07-30T12:00:36Z</time>
      </trkpt>
      <trkpt lat="48.79086" lon="6.57229">
        <ele>234.9</ele>
        <time>2021-07-30T12:00:37Z</time>
      </trkpt>
      <trkpt lat="48.79085" lon="6.57232">
        <ele>235</ele>
        <time>2021-07-30T12:00:38Z</time>
      </trkpt>
      <trkpt lat="48.79085" lon="6.57235">
        <ele>235</ele>
        <time>2021-07-30T12:00:39Z</time>
      </trkpt>
      <trkpt lat="48.79084" lon="6.57235">
        <ele>235.1</ele>
        <time>2021-07-30T12:00:40Z</time>
      </trkpt>
      <trkpt lat="48.79084" lon="6.57236">
        <ele>235.1</ele>
        <time>2021-07-30T12:00:41Z</time>
      </trkpt>
      <trkpt lat="48.79084" lon="6.57237">
        <ele>235.1</ele>
        <time>2021-07-30T12:00:42Z</time>
      </trkpt>
      <trkpt lat="48.79082" lon="6.57241">
        <ele>235.2</ele>
        <time>2021-07-30T12:00:43Z</time>
      </trkpt>
      <trkpt lat="48.79082" lon="6.57242">
        <ele>235.3</ele>
        <time>2021-07-30T12:00:44Z</time>
      </trkpt>
      <trkpt lat="48.79081" lon="6.57244">
        <ele>235.3</ele>
        <time>2021-07-30T12:00:45Z</time>
      </trkpt>
      <trkpt lat="48.7908" lon="6.57246">
        <ele>235.4</ele>
        <time>2021-07-30T12:00:46Z</time>
      </trkpt>
      <trkpt lat="48.79078" lon="6.5725">
        <ele>235.6</ele>
        <time>2021-07-30T12:00:47Z</time>
      </trkpt>
      <trkpt lat="48.79078" lon="6.57251">
        <ele>235.6</ele>
        <time>2021-07-30T12:00:48Z</time>
      </trkpt>
      <trkpt lat="48.79077" lon="6.57256">
        <ele>235.8</ele>
        <time>2021-07-30T12:00:50Z</time>
      </trkpt>
      <trkpt lat="48.79076" lon="6.57257">
        <ele>235.8</ele>
        <time>2021-07-30T12:00:51Z</time>
      </trkpt>
      <trkpt lat="48.79076" lon="6.57259">
        <ele>235.9</ele>
        <time>2021-07-30T12:00:52Z</time>
      </trkpt>
      <trkpt lat="48.79076" lon="6.5726">
        <ele>235.9</ele>
        <time>2021-07-30T12:00:54Z</time>
      </trkpt>
      <trkpt lat="48.79075" lon="6.57264">
        <ele>236</ele>
        <time>2021-07-30T12:00:56Z</time>
      </trkpt>
      <trkpt lat="48.79074" lon="6.57267">
        <ele>236.2</ele>
        <time>2021-07-30T12:00:57Z</time>
      </trkpt>
      <trkpt lat="48.79073" lon="6.57268">
        <ele>236.2</ele>
        <time>2021-07-30T12:00:58Z</time>
      </trkpt>
      <trkpt lat="48.79072" lon="6.5727">
        <ele>236.3</ele>
        <time>2021-07-30T12:00:59Z</time>
      </trkpt>
      <trkpt lat="48.79071" lon="6.57272">
        <ele>236.3</ele>
        <time>2021-07-30T12:01:00Z</time>
      </trkpt>
      <trkpt lat="48.7907" lon="6.57274">
        <ele>236.4</ele>
        <time>2021-07-30T12:01:01Z</time>
      </trkpt>
      <trkpt lat="48.79069" lon="6.57276">
        <ele>236.5</ele>
        <time>2021-07-30T12:01:02Z</time>
      </trkpt>
      <trkpt lat="48.79068" lon="6.5728">
        <ele>236.6</ele>
        <time>2021-07-30T12:01:04Z</time>
      </trkpt>
      <trkpt lat="48.79067" lon="6.57281">
        <ele>236.6</ele>
        <time>2021-07-30T12:01:05Z</time>
      </trkpt>
      <trkpt lat="48.79066" lon="6.57282">
        <ele>236.7</ele>
        <time>2021-07-30T12:01:06Z</time>
      </trkpt>
      <trkpt lat="48.79066" lon="6.57284">
        <ele>236.7</ele>
        <time>2021-07-30T12:01:07Z</time>
      </trkpt>
      <trkpt lat="48.79065" lon="6.57287">
        <ele>236.8</ele>
        <time>2021-07-30T12:01:09Z</time>
      </trkpt>
      <trkpt lat="48.79064" lon="6.57289">
        <ele>236.9</ele>
        <time>2021-07-30T12:01:10Z</time>
      </trkpt>
      <trkpt lat="48.79063" lon="6.57293">
        <ele>237</ele>
        <time>2021-07-30T12:01:12Z</time>
      </trkpt>
      <trkpt lat="48.79063" lon="6.57295">
        <ele>237</ele>
        <time>2021-07-30T12:01:13Z</time>
      </trkpt>
      <trkpt lat="48.79062" lon="6.57298">
        <ele>237.1</ele>
        <time>2021-07-30T12:01:15Z</time>
      </trkpt>
      <trkpt lat="48.79062" lon="6.57301">
        <ele>237.2</ele>
        <time>2021-07-30T12:01:17Z</time>
      </trkpt>
      <trkpt lat="48.79062" lon="6.57302">
        <ele>237.2</ele>
        <time>2021-07-30T12:01:18Z</time>
      </trkpt>
      <trkpt lat="48.79062" lon="6.57302">
        <ele>237.2</ele>
        <time>2021-07-30T12:01:20Z</time>
      </trkpt>
      <trkpt lat="48.79061" lon="6.57307">
        <ele>237.4</ele>
        <time>2021-07-30T12:01:21Z</time>
      </trkpt>
      <trkpt lat="48.7906" lon="6.57308">
        <ele>237.5</ele>
        <time>2021-07-30T12:01:22Z</time>
      </trkpt>
      <trkpt lat="48.7906" lon="6.5731">
        <ele>237.5</ele>
        <time>2021-07-30T12:01:24Z</time>
      </trkpt>
      <trkpt lat="48.7906" lon="6.5731">
        <ele>237.5</ele>
        <time>2021-07-30T12:01:25Z</time>
      </trkpt>
      <trkpt lat="48.79061" lon="6.5731">
        <ele>237.5</ele>
        <time>2021-07-30T12:01:26Z</time>
      </trkpt>
      <trkpt lat="48.79061" lon="6.5731">
        <ele>237.6</ele>
        <time>2021-07-30T12:01:27Z</time>
      </trkpt>
      <trkpt lat="48.79061" lon="6.57311">
        <ele>237.6</ele>
        <time>2021-07-30T12:01:28Z</time>
      </trkpt>
      <trkpt lat="48.79061" lon="6.57312">
        <ele>237.6</ele>
        <time>2021-07-30T12:01:29Z</time>
      </trkpt>
      <trkpt lat="48.79061" lon="6.57314">
        <ele>237.7</ele>
        <time>2021-07-30T12:01:30Z</time>
      </trkpt>
      <trkpt lat="48.79061" lon="6.57315">
        <ele>237.7</ele>
        <time>2021-07-30T12:01:32Z</time>
      </trkpt>
      <trkpt lat="48.7906" lon="6.57316">
        <ele>237.8</ele>
        <time>2021-07-30T12:01:33Z</time>
      </trkpt>
      <trkpt lat="48.79059" lon="6.57326">
        <ele>238.1</ele>
        <time>2021-07-30T12:01:35Z</time>
      </trkpt>
      <trkpt lat="48.79058" lon="6.57333">
        <ele>238.4</ele>
        <time>2021-07-30T12:01:36Z</time>
      </trkpt>
      <trkpt lat="48.79056" lon="6.5734">
        <ele>238.7</ele>
        <time>2021-07-30T12:01:38Z</time>
      </trkpt>
      <trkpt lat="48.79055" lon="6.57348">
        <ele>239</ele>
        <time>2021-07-30T12:01:39Z</time>
      </trkpt>
      <trkpt lat="48.79054" lon="6.57355">
        <ele>239.3</ele>
        <time>2021-07-30T12:02:02Z</time>
      </trkpt>
      <trkpt lat="48.79053" lon="6.57363">
        <ele>239.6</ele>
        <time>2021-07-30T12:02:03Z</time>
      </trkpt>
      <trkpt lat="48.79051" lon="6.5737">
        <ele>239.9</ele>
        <time>2021-07-30T12:02:04Z</time>
      </trkpt>
      <trkpt lat="48.79051" lon="6.57375">
        <ele>240.1</ele>
        <time>2021-07-30T12:02:06Z</time>
      </trkpt>
      <trkpt lat="48.7905" lon="6.57376">
        <ele>240.2</ele>
        <time>2021-07-30T12:02:07Z</time>
      </trkpt>
      <trkpt lat="48.7905" lon="6.5738">
        <ele>240.3</ele>
        <time>2021-07-30T12:02:08Z</time>
      </trkpt>
      <trkpt lat="48.7905" lon="6.57381">
        <ele>240.4</ele>
        <time>2021-07-30T12:02:09Z</time>
      </trkpt>
      <trkpt lat="48.7905" lon="6.57382">
        <ele>240.4</ele>
        <time>2021-07-30T12:02:10Z</time>
      </trkpt>
      <trkpt lat="48.79049" lon="6.57384">
        <ele>240.5</ele>
        <time>2021-07-30T12:02:12Z</time>
      </trkpt>
      <trkpt lat="48.79049" lon="6.57386">
        <ele>240.6</ele>
        <time>2021-07-30T12:02:13Z</time>
      </trkpt>
      <trkpt lat="48.79049" lon="6.57388">
        <ele>240.7</ele>
        <time>2021-07-30T12:02:14Z</time>
      </trkpt>
      <trkpt lat="48.79049" lon="6.5739">
        <ele>240.8</ele>
        <time>2021-07-30T12:02:15Z</time>
      </trkpt>
      <trkpt lat="48.79049" lon="6.57392">
        <ele>240.8</ele>
        <time>2021-07-30T12:02:17Z</time>
      </trkpt>
      <trkpt lat="48.79049" lon="6.57393">
        <ele>240.9</ele>
        <time>2021-07-30T12:02:18Z</time>
      </trkpt>
      <trkpt lat="48.79049" lon="6.57396">
        <ele>241.1</ele>
        <time>2021-07-30T12:02:19Z</time>
      </trkpt>
      <trkpt lat="48.79049" lon="6.57398">
        <ele>241.1</ele>
        <time>2021-07-30T12:02:20Z</time>
      </trkpt>
      <trkpt lat="48.79049" lon="6.574">
        <ele>241.2</ele>
        <time>2021-07-30T12:02:22Z</time>
      </trkpt>
      <trkpt lat="48.79049" lon="6.57401">
        <ele>241.3</ele>
        <time>2021-07-30T12:02:23Z</time>
      </trkpt>
      <trkpt lat="48.79049" lon="6.57403">
        <ele>241.4</ele>
        <time>2021-07-30T12:02:24Z</time>
      </trkpt>
      <trkpt lat="48.7905" lon="6.57404">
        <ele>241.4</ele>
        <time>2021-07-30T12:02:25Z</time>
      </trkpt>
      <trkpt lat="48.7905" lon="6.57406">
        <ele>241.5</ele>
        <time>2021-07-30T12:02:26Z</time>
      </trkpt>
      <trkpt lat="48.7905" lon="6.57408">
        <ele>241.6</ele>
        <time>2021-07-30T12:02:27Z</time>
      </trkpt>
      <trkpt lat="48.7905" lon="6.57412">
        <ele>241.8</ele>
        <time>2021-07-30T12:02:29Z</time>
      </trkpt>
      <trkpt lat="48.7905" lon="6.57412">
        <ele>241.8</ele>
        <time>2021-07-30T12:02:30Z</time>
      </trkpt>
      <trkpt lat="48.79049" lon="6.57413">
        <ele>241.9</ele>
        <time>2021-07-30T12:02:31Z</time>
      </trkpt>
      <trkpt lat="48.79049" lon="6.57414">
        <ele>241.9</ele>
        <time>2021-07-30T12:02:32Z</time>
      </trkpt>
      <trkpt lat="48.79049" lon="6.57416">
        <ele>242</ele>
        <time>2021-07-30T12:02:33Z</time>
      </trkpt>
      <trkpt lat="48.79049" lon="6.57418">
        <ele>242.1</ele>
        <time>2021-07-30T12:02:35Z</time>
      </trkpt>
      <trkpt lat="48.79049" lon="6.57418">
        <ele>242.1</ele>
        <time>2021-07-30T12:02:36Z</time>
      </trkpt>
      <trkpt lat="48.79049" lon="6.57418">
        <ele>242.1</ele>
        <time>2021-07-30T12:02:38Z</time>
      </trkpt>
      <trkpt lat="48.79049" lon="6.57418">
        <ele>242.1</ele>
        <time>2021-07-30T12:02:40Z</time>
      </trkpt>
      <trkpt lat="48.79049" lon="6.57418">
        <ele>242.1</ele>
        <time>2021-07-30T12:02:41Z</time>
      </trkpt>
      <trkpt lat="48.79049" lon="6.57419">
        <ele>242.1</ele>
        <time>2021-07-30T12:02:42Z</time>
      </trkpt>
      <trkpt lat="48.79049" lon="6.57422">
        <ele>242.2</ele>
        <time>2021-07-30T12:02:44Z</time>
      </trkpt>
      <trkpt lat="48.7905" lon="6.57426">
        <ele>242.3</ele>
        <time>2021-07-30T12:02:45Z</time>
      </trkpt>
      <trkpt lat="48.79051" lon="6.57428">
        <ele>242.4</ele>
        <time>2021-07-30T12:02:46Z</time>
      </trkpt>
      <trkpt lat="48.79052" lon="6.57433">
        <ele>242.4</ele>
        <time>2021-07-30T12:02:48Z</time>
      </trkpt>
      <trkpt lat="48.79051" lon="6.57441">
        <ele>241.9</ele>
        <time>2021-07-30T12:02:51Z</time>
      </trkpt>
      <trkpt lat="48.79051" lon="6.57446">
        <ele>241.7</ele>
        <time>2021-07-30T12:02:52Z</time>
      </trkpt>
      <trkpt lat="48.79051" lon="6.57454">
        <ele>241.3</ele>
        <time>2021-07-30T12:02:53Z</time>
      </trkpt>
      <trkpt lat="48.79051" lon="6.57463">
        <ele>241.1</ele>
        <time>2021-07-30T12:02:55Z</time>
      </trkpt>
      <trkpt lat="48.79051" lon="6.57471">
        <ele>240.9</ele>
        <time>2021-07-30T12:02:56Z</time>
      </trkpt>
      <trkpt lat="48.79051" lon="6.57477">
        <ele>240.9</ele>
        <time>2021-07-30T12:02:57Z</time>
      </trkpt>
      <trkpt lat="48.79051" lon="6.57484">
        <ele>240.8</ele>
        <time>2021-07-30T12:02:59Z</time>
      </trkpt>
      <trkpt lat="48.79051" lon="6.57491">
        <ele>240.7</ele>
        <time>2021-07-30T12:03:00Z</time>
      </trkpt>
      <trkpt lat="48.79051" lon="6.57499">
        <ele>240.5</ele>
        <time>2021-07-30T12:03:02Z</time>
      </trkpt>
      <trkpt lat="48.79051" lon="6.57505">
        <ele>240.4</ele>
        <time>2021-07-30T12:03:03Z</time>
      </trkpt>
      <trkpt lat="48.7905" lon="6.57511">
        <ele>240.3</ele>
        <time>2021-07-30T12:03:04Z</time>
      </trkpt>
      <trkpt lat="48.79049" lon="6.57518">
        <ele>240.1</ele>
        <time>2021-07-30T12:03:05Z</time>
      </trkpt>
      <trkpt lat="48.7905" lon="6.57527">
        <ele>240</ele>
        <time>2021-07-30T12:03:07Z</time>
      </trkpt>
      <trkpt lat="48.79049" lon="6.57535">
        <ele>239.9</ele>
        <time>2021-07-30T12:03:08Z</time>
      </trkpt>
      <trkpt lat="48.79047" lon="6.57542">
        <ele>239.7</ele>
        <time>2021-07-30T12:03:10Z</time>
      </trkpt>
      <trkpt lat="48.79048" lon="6.57548">
        <ele>239.6</ele>
        <time>2021-07-30T12:03:11Z</time>
      </trkpt>
      <trkpt lat="48.79047" lon="6.57554">
        <ele>239.4</ele>
        <time>2021-07-30T12:03:12Z</time>
      </trkpt>
      <trkpt lat="48.79048" lon="6.57572">
        <ele>238.8</ele>
        <time>2021-07-30T12:03:14Z</time>
      </trkpt>
      <trkpt lat="48.79048" lon="6.5758">
        <ele>238.5</ele>
        <time>2021-07-30T12:03:15Z</time>
      </trkpt>
      <trkpt lat="48.79049" lon="6.57595">
        <ele>237.8</ele>
        <time>2021-07-30T12:03:17Z</time>
      </trkpt>
      <trkpt lat="48.79048" lon="6.57604">
        <ele>237.4</ele>
        <time>2021-07-30T12:03:18Z</time>
      </trkpt>
      <trkpt lat="48.79047" lon="6.57613">
        <ele>237.1</ele>
        <time>2021-07-30T12:03:19Z</time>
      </trkpt>
      <trkpt lat="48.79046" lon="6.57623">
        <ele>236.6</ele>
        <time>2021-07-30T12:03:21Z</time>
      </trkpt>
      <trkpt lat="48.79046" lon="6.57633">
        <ele>236.1</ele>
        <time>2021-07-30T12:03:22Z</time>
      </trkpt>
      <trkpt lat="48.79046" lon="6.57651">
        <ele>234.9</ele>
        <time>2021-07-30T12:03:24Z</time>
      </trkpt>
      <trkpt lat="48.79046" lon="6.57661">
        <ele>234.4</ele>
        <time>2021-07-30T12:03:25Z</time>
      </trkpt>
      <trkpt lat="48.79045" lon="6.57682">
        <ele>234</ele>
        <time>2021-07-30T12:03:27Z</time>
      </trkpt>
      <trkpt lat="48.79045" lon="6.57692">
        <ele>234</ele>
        <time>2021-07-30T12:03:28Z</time>
      </trkpt>
      <trkpt lat="48.79045" lon="6.57701">
        <ele>234</ele>
        <time>2021-07-30T12:03:29Z</time>
      </trkpt>
      <trkpt lat="48.79044" lon="6.5772">
        <ele>234</ele>
        <time>2021-07-30T12:03:31Z</time>
      </trkpt>
      <trkpt lat="48.79042" lon="6.5774">
        <ele>233.9</ele>
        <time>2021-07-30T12:03:33Z</time>
      </trkpt>
      <trkpt lat="48.79042" lon="6.57749">
        <ele>233.8</ele>
        <time>2021-07-30T12:03:34Z</time>
      </trkpt>
      <trkpt lat="48.79041" lon="6.57758">
        <ele>233.8</ele>
        <time>2021-07-30T12:03:35Z</time>
      </trkpt>
      <trkpt lat="48.79041" lon="6.57766">
        <ele>233.8</ele>
        <time>2021-07-30T12:03:36Z</time>
      </trkpt>
      <trkpt lat="48.79038" lon="6.57781">
        <ele>233.7</ele>
        <time>2021-07-30T12:03:38Z</time>
      </trkpt>
      <trkpt lat="48.79038" lon="6.5779">
        <ele>233.5</ele>
        <time>2021-07-30T12:03:40Z</time>
      </trkpt>
      <trkpt lat="48.79037" lon="6.57801">
        <ele>233.3</ele>
        <time>2021-07-30T12:03:42Z</time>
      </trkpt>
      <trkpt lat="48.79036" lon="6.57813">
        <ele>233.2</ele>
        <time>2021-07-30T12:03:44Z</time>
      </trkpt>
      <trkpt lat="48.79036" lon="6.57819">
        <ele>233.1</ele>
        <time>2021-07-30T12:03:46Z</time>
      </trkpt>
      <trkpt lat="48.79039" lon="6.57824">
        <ele>233</ele>
        <time>2021-07-30T12:03:47Z</time>
      </trkpt>
      <trkpt lat="48.79038" lon="6.57835">
        <ele>233</ele>
        <time>2021-07-30T12:03:49Z</time>
      </trkpt>
      <trkpt lat="48.79036" lon="6.57843">
        <ele>233.1</ele>
        <time>2021-07-30T12:03:50Z</time>
      </trkpt>
      <trkpt lat="48.79034" lon="6.57851">
        <ele>233.3</ele>
        <time>2021-07-30T12:03:52Z</time>
      </trkpt>
      <trkpt lat="48.79033" lon="6.57855">
        <ele>233.4</ele>
        <time>2021-07-30T12:03:53Z</time>
      </trkpt>
      <trkpt lat="48.79031" lon="6.57861">
        <ele>233.5</ele>
        <time>2021-07-30T12:03:54Z</time>
      </trkpt>
      <trkpt lat="48.79029" lon="6.57867">
        <ele>233.6</ele>
        <time>2021-07-30T12:03:56Z</time>
      </trkpt>
      <trkpt lat="48.79028" lon="6.57872">
        <ele>233.6</ele>
        <time>2021-07-30T12:03:57Z</time>
      </trkpt>
      <trkpt lat="48.79026" lon="6.57877">
        <ele>233.6</ele>
        <time>2021-07-30T12:03:58Z</time>
      </trkpt>
      <trkpt lat="48.79025" lon="6.57884">
        <ele>233.6</ele>
        <time>2021-07-30T12:04:00Z</time>
      </trkpt>
      <trkpt lat="48.79024" lon="6.57889">
        <ele>233.7</ele>
        <time>2021-07-30T12:04:01Z</time>
      </trkpt>
      <trkpt lat="48.79024" lon="6.57891">
        <ele>233.7</ele>
        <time>2021-07-30T12:04:02Z</time>
      </trkpt>
      <trkpt lat="48.79023" lon="6.57898">
        <ele>233.9</ele>
        <time>2021-07-30T12:04:04Z</time>
      </trkpt>
      <trkpt lat="48.79022" lon="6.579">
        <ele>233.9</ele>
        <time>2021-07-30T12:04:05Z</time>
      </trkpt>
      <trkpt lat="48.79022" lon="6.57903">
        <ele>234</ele>
        <time>2021-07-30T12:04:06Z</time>
      </trkpt>
      <trkpt lat="48.7902" lon="6.57908">
        <ele>234.1</ele>
        <time>2021-07-30T12:04:08Z</time>
      </trkpt>
      <trkpt lat="48.79019" lon="6.57912">
        <ele>234.2</ele>
        <time>2021-07-30T12:04:09Z</time>
      </trkpt>
      <trkpt lat="48.79017" lon="6.57915">
        <ele>234.3</ele>
        <time>2021-07-30T12:04:10Z</time>
      </trkpt>
      <trkpt lat="48.79015" lon="6.5792">
        <ele>234.5</ele>
        <time>2021-07-30T12:04:12Z</time>
      </trkpt>
      <trkpt lat="48.79014" lon="6.57925">
        <ele>234.7</ele>
        <time>2021-07-30T12:04:13Z</time>
      </trkpt>
      <trkpt lat="48.79013" lon="6.57927">
        <ele>234.8</ele>
        <time>2021-07-30T12:04:14Z</time>
      </trkpt>
      <trkpt lat="48.79013" lon="6.57931">
        <ele>234.9</ele>
        <time>2021-07-30T12:04:15Z</time>
      </trkpt>
      <trkpt lat="48.79013" lon="6.57933">
        <ele>234.9</ele>
        <time>2021-07-30T12:04:16Z</time>
      </trkpt>
      <trkpt lat="48.79013" lon="6.57935">
        <ele>235</ele>
        <time>2021-07-30T12:04:17Z</time>
      </trkpt>
      <trkpt lat="48.79013" lon="6.57937">
        <ele>235</ele>
        <time>2021-07-30T12:04:18Z</time>
      </trkpt>
      <trkpt lat="48.79014" lon="6.57942">
        <ele>235.1</ele>
        <time>2021-07-30T12:04:20Z</time>
      </trkpt>
      <trkpt lat="48.79014" lon="6.57943">
        <ele>235.1</ele>
        <time>2021-07-30T12:04:21Z</time>
      </trkpt>
      <trkpt lat="48.79015" lon="6.57949">
        <ele>235.1</ele>
        <time>2021-07-30T12:04:23Z</time>
      </trkpt>
      <trkpt lat="48.79015" lon="6.57957">
        <ele>235.1</ele>
        <time>2021-07-30T12:04:25Z</time>
      </trkpt>
      <trkpt lat="48.79015" lon="6.57962">
        <ele>235.1</ele>
        <time>2021-07-30T12:04:26Z</time>
      </trkpt>
      <trkpt lat="48.79014" lon="6.57967">
        <ele>235.1</ele>
        <time>2021-07-30T12:04:27Z</time>
      </trkpt>
      <trkpt lat="48.79014" lon="6.57972">
        <ele>235.1</ele>
        <time>2021-07-30T12:04:28Z</time>
      </trkpt>
      <trkpt lat="48.79015" lon="6.57979">
        <ele>235.1</ele>
        <time>2021-07-30T12:04:30Z</time>
      </trkpt>
      <trkpt lat="48.79015" lon="6.57985">
        <ele>235.1</ele>
        <time>2021-07-30T12:04:31Z</time>
      </trkpt>
      <trkpt lat="48.79015" lon="6.57987">
        <ele>235.1</ele>
        <time>2021-07-30T12:04:32Z</time>
      </trkpt>
      <trkpt lat="48.79015" lon="6.57991">
        <ele>235</ele>
        <time>2021-07-30T12:04:33Z</time>
      </trkpt>
      <trkpt lat="48.79015" lon="6.57998">
        <ele>235</ele>
        <time>2021-07-30T12:04:35Z</time>
      </trkpt>
      <trkpt lat="48.79016" lon="6.58002">
        <ele>234.9</ele>
        <time>2021-07-30T12:04:36Z</time>
      </trkpt>
      <trkpt lat="48.79015" lon="6.5801">
        <ele>234.8</ele>
        <time>2021-07-30T12:04:38Z</time>
      </trkpt>
      <trkpt lat="48.79014" lon="6.5802">
        <ele>234.6</ele>
        <time>2021-07-30T12:04:40Z</time>
      </trkpt>
      <trkpt lat="48.79014" lon="6.58024">
        <ele>234.5</ele>
        <time>2021-07-30T12:04:41Z</time>
      </trkpt>
      <trkpt lat="48.79013" lon="6.58029">
        <ele>234.4</ele>
        <time>2021-07-30T12:04:42Z</time>
      </trkpt>
      <trkpt lat="48.79011" lon="6.58037">
        <ele>234.3</ele>
        <time>2021-07-30T12:04:44Z</time>
      </trkpt>
      <trkpt lat="48.7901" lon="6.58041">
        <ele>234.2</ele>
        <time>2021-07-30T12:04:45Z</time>
      </trkpt>
      <trkpt lat="48.79009" lon="6.58044">
        <ele>234.1</ele>
        <time>2021-07-30T12:04:46Z</time>
      </trkpt>
      <trkpt lat="48.79007" lon="6.5805">
        <ele>234</ele>
        <time>2021-07-30T12:04:48Z</time>
      </trkpt>
      <trkpt lat="48.79005" lon="6.58053">
        <ele>233.9</ele>
        <time>2021-07-30T12:04:49Z</time>
      </trkpt>
      <trkpt lat="48.79004" lon="6.58055">
        <ele>233.9</ele>
        <time>2021-07-30T12:04:50Z</time>
      </trkpt>
      <trkpt lat="48.79" lon="6.58058">
        <ele>233.8</ele>
        <time>2021-07-30T12:04:52Z</time>
      </trkpt>
      <trkpt lat="48.78998" lon="6.58061">
        <ele>233.7</ele>
        <time>2021-07-30T12:04:53Z</time>
      </trkpt>
      <trkpt lat="48.78997" lon="6.58068">
        <ele>233.6</ele>
        <time>2021-07-30T12:04:55Z</time>
      </trkpt>
      <trkpt lat="48.78995" lon="6.58072">
        <ele>233.5</ele>
        <time>2021-07-30T12:04:56Z</time>
      </trkpt>
      <trkpt lat="48.78993" lon="6.58078">
        <ele>233.4</ele>
        <time>2021-07-30T12:04:58Z</time>
      </trkpt>
      <trkpt lat="48.78992" lon="6.58081">
        <ele>233.3</ele>
        <time>2021-07-30T12:04:59Z</time>
      </trkpt>
      <trkpt lat="48.78992" lon="6.58083">
        <ele>233.3</ele>
        <time>2021-07-30T12:05:00Z</time>
      </trkpt>
      <trkpt lat="48.7899" lon="6.58088">
        <ele>233.2</ele>
        <time>2021-07-30T12:05:01Z</time>
      </trkpt>
      <trkpt lat="48.78989" lon="6.58094">
        <ele>233</ele>
        <time>2021-07-30T12:05:03Z</time>
      </trkpt>
      <trkpt lat="48.78988" lon="6.58098">
        <ele>232.9</ele>
        <time>2021-07-30T12:05:04Z</time>
      </trkpt>
      <trkpt lat="48.78986" lon="6.58103">
        <ele>232.8</ele>
        <time>2021-07-30T12:05:06Z</time>
      </trkpt>
      <trkpt lat="48.78984" lon="6.58107">
        <ele>232.7</ele>
        <time>2021-07-30T12:05:07Z</time>
      </trkpt>
      <trkpt lat="48.78983" lon="6.58113">
        <ele>232.4</ele>
        <time>2021-07-30T12:05:08Z</time>
      </trkpt>
      <trkpt lat="48.78981" lon="6.58118">
        <ele>232.2</ele>
        <time>2021-07-30T12:05:09Z</time>
      </trkpt>
      <trkpt lat="48.7898" lon="6.58124">
        <ele>232</ele>
        <time>2021-07-30T12:05:10Z</time>
      </trkpt>
      <trkpt lat="48.78977" lon="6.58135">
        <ele>231.5</ele>
        <time>2021-07-30T12:05:12Z</time>
      </trkpt>
      <trkpt lat="48.78973" lon="6.58144">
        <ele>231.2</ele>
        <time>2021-07-30T12:05:13Z</time>
      </trkpt>
      <trkpt lat="48.78972" lon="6.5815">
        <ele>231</ele>
        <time>2021-07-30T12:05:14Z</time>
      </trkpt>
      <trkpt lat="48.78969" lon="6.58159">
        <ele>230.8</ele>
        <time>2021-07-30T12:05:16Z</time>
      </trkpt>
      <trkpt lat="48.78968" lon="6.58165">
        <ele>230.6</ele>
        <time>2021-07-30T12:05:17Z</time>
      </trkpt>
      <trkpt lat="48.78968" lon="6.58172">
        <ele>230.4</ele>
        <time>2021-07-30T12:05:18Z</time>
      </trkpt>
      <trkpt lat="48.78968" lon="6.58177">
        <ele>230.2</ele>
        <time>2021-07-30T12:05:20Z</time>
      </trkpt>
      <trkpt lat="48.78967" lon="6.58178">
        <ele>230.1</ele>
        <time>2021-07-30T12:05:21Z</time>
      </trkpt>
      <trkpt lat="48.78967" lon="6.5818">
        <ele>230</ele>
        <time>2021-07-30T12:05:22Z</time>
      </trkpt>
      <trkpt lat="48.78966" lon="6.58183">
        <ele>229.9</ele>
        <time>2021-07-30T12:05:24Z</time>
      </trkpt>
      <trkpt lat="48.78966" lon="6.58186">
        <ele>229.8</ele>
        <time>2021-07-30T12:05:25Z</time>
      </trkpt>
      <trkpt lat="48.78965" lon="6.58189">
        <ele>229.6</ele>
        <time>2021-07-30T12:05:27Z</time>
      </trkpt>
      <trkpt lat="48.78964" lon="6.58192">
        <ele>229.5</ele>
        <time>2021-07-30T12:05:29Z</time>
      </trkpt>
      <trkpt lat="48.78964" lon="6.58195">
        <ele>229.3</ele>
        <time>2021-07-30T12:05:30Z</time>
      </trkpt>
      <trkpt lat="48.78963" lon="6.58198">
        <ele>229.2</ele>
        <time>2021-07-30T12:06:30Z</time>
      </trkpt>
      <trkpt lat="48.78963" lon="6.58201">
        <ele>229.1</ele>
        <time>2021-07-30T12:06:31Z</time>
      </trkpt>
      <trkpt lat="48.78962" lon="6.58209">
        <ele>228.7</ele>
        <time>2021-07-30T12:06:32Z</time>
      </trkpt>
      <trkpt lat="48.78961" lon="6.58221">
        <ele>228.2</ele>
        <time>2021-07-30T12:06:34Z</time>
      </trkpt>
      <trkpt lat="48.78961" lon="6.58229">
        <ele>227.8</ele>
        <time>2021-07-30T12:06:35Z</time>
      </trkpt>
      <trkpt lat="48.7896" lon="6.58244">
        <ele>227.2</ele>
        <time>2021-07-30T12:06:36Z</time>
      </trkpt>
      <trkpt lat="48.7896" lon="6.5826">
        <ele>226.5</ele>
        <time>2021-07-30T12:06:38Z</time>
      </trkpt>
      <trkpt lat="48.7896" lon="6.58268">
        <ele>226.1</ele>
        <time>2021-07-30T12:06:39Z</time>
      </trkpt>
      <trkpt lat="48.78959" lon="6.58276">
        <ele>225.7</ele>
        <time>2021-07-30T12:06:40Z</time>
      </trkpt>
      <trkpt lat="48.78958" lon="6.58292">
        <ele>224.8</ele>
        <time>2021-07-30T12:06:42Z</time>
      </trkpt>
      <trkpt lat="48.78961" lon="6.58297">
        <ele>224.5</ele>
        <time>2021-07-30T12:06:44Z</time>
      </trkpt>
      <trkpt lat="48.78961" lon="6.58305">
        <ele>224.2</ele>
        <time>2021-07-30T12:06:45Z</time>
      </trkpt>
      <trkpt lat="48.78961" lon="6.58311">
        <ele>224</ele>
        <time>2021-07-30T12:06:46Z</time>
      </trkpt>
      <trkpt lat="48.78962" lon="6.58319">
        <ele>223.9</ele>
        <time>2021-07-30T12:06:48Z</time>
      </trkpt>
      <trkpt lat="48.78963" lon="6.58326">
        <ele>223.7</ele>
        <time>2021-07-30T12:06:49Z</time>
      </trkpt>
      <trkpt lat="48.78964" lon="6.58332">
        <ele>223.6</ele>
        <time>2021-07-30T12:06:50Z</time>
      </trkpt>
      <trkpt lat="48.78964" lon="6.58338">
        <ele>223.5</ele>
        <time>2021-07-30T12:06:51Z</time>
      </trkpt>
      <trkpt lat="48.78966" lon="6.58346">
        <ele>223.4</ele>
        <time>2021-07-30T12:06:52Z</time>
      </trkpt>
      <trkpt lat="48.78967" lon="6.58348">
        <ele>223.4</ele>
        <time>2021-07-30T12:06:53Z</time>
      </trkpt>
      <trkpt lat="48.78967" lon="6.5835">
        <ele>223.4</ele>
        <time>2021-07-30T12:06:55Z</time>
      </trkpt>
      <trkpt lat="48.78967" lon="6.58359">
        <ele>223.4</ele>
        <time>2021-07-30T12:06:57Z</time>
      </trkpt>
      <trkpt lat="48.78968" lon="6.58366">
        <ele>223.4</ele>
        <time>2021-07-30T12:06:58Z</time>
      </trkpt>
      <trkpt lat="48.78969" lon="6.58374">
        <ele>223.4</ele>
        <time>2021-07-30T12:07:00Z</time>
      </trkpt>
      <trkpt lat="48.7897" lon="6.5838">
        <ele>223.4</ele>
        <time>2021-07-30T12:07:01Z</time>
      </trkpt>
      <trkpt lat="48.7897" lon="6.58382">
        <ele>223.5</ele>
        <time>2021-07-30T12:07:02Z</time>
      </trkpt>
      <trkpt lat="48.78971" lon="6.58387">
        <ele>223.5</ele>
        <time>2021-07-30T12:07:03Z</time>
      </trkpt>
      <trkpt lat="48.78971" lon="6.58391">
        <ele>223.6</ele>
        <time>2021-07-30T12:07:04Z</time>
      </trkpt>
      <trkpt lat="48.7897" lon="6.58401">
        <ele>223.7</ele>
        <time>2021-07-30T12:07:06Z</time>
      </trkpt>
      <trkpt lat="48.7897" lon="6.58407">
        <ele>223.7</ele>
        <time>2021-07-30T12:07:07Z</time>
      </trkpt>
      <trkpt lat="48.78971" lon="6.58411">
        <ele>223.8</ele>
        <time>2021-07-30T12:07:08Z</time>
      </trkpt>
      <trkpt lat="48.78971" lon="6.58417">
        <ele>223.8</ele>
        <time>2021-07-30T12:07:10Z</time>
      </trkpt>
      <trkpt lat="48.78971" lon="6.58424">
        <ele>223.7</ele>
        <time>2021-07-30T12:07:12Z</time>
      </trkpt>
      <trkpt lat="48.78971" lon="6.58428">
        <ele>223.7</ele>
        <time>2021-07-30T12:07:13Z</time>
      </trkpt>
      <trkpt lat="48.78971" lon="6.58433">
        <ele>223.7</ele>
        <time>2021-07-30T12:07:14Z</time>
      </trkpt>
      <trkpt lat="48.78971" lon="6.58435">
        <ele>223.7</ele>
        <time>2021-07-30T12:07:15Z</time>
      </trkpt>
      <trkpt lat="48.7897" lon="6.58441">
        <ele>223.7</ele>
        <time>2021-07-30T12:07:17Z</time>
      </trkpt>
      <trkpt lat="48.78969" lon="6.58445">
        <ele>223.7</ele>
        <time>2021-07-30T12:07:18Z</time>
      </trkpt>
      <trkpt lat="48.78967" lon="6.58454">
        <ele>223.7</ele>
        <time>2021-07-30T12:07:20Z</time>
      </trkpt>
      <trkpt lat="48.78965" lon="6.5846">
        <ele>223.7</ele>
        <time>2021-07-30T12:07:21Z</time>
      </trkpt>
      <trkpt lat="48.78964" lon="6.58466">
        <ele>223.6</ele>
        <time>2021-07-30T12:07:22Z</time>
      </trkpt>
      <trkpt lat="48.78962" lon="6.58475">
        <ele>223.4</ele>
        <time>2021-07-30T12:07:24Z</time>
      </trkpt>
      <trkpt lat="48.78961" lon="6.58482">
        <ele>223.3</ele>
        <time>2021-07-30T12:07:25Z</time>
      </trkpt>
      <trkpt lat="48.7896" lon="6.58495">
        <ele>223.1</ele>
        <time>2021-07-30T12:07:27Z</time>
      </trkpt>
      <trkpt lat="48.7896" lon="6.58503">
        <ele>223</ele>
        <time>2021-07-30T12:07:29Z</time>
      </trkpt>
      <trkpt lat="48.7896" lon="6.58511">
        <ele>222.9</ele>
        <time>2021-07-30T12:07:30Z</time>
      </trkpt>
      <trkpt lat="48.78959" lon="6.58519">
        <ele>222.8</ele>
        <time>2021-07-30T12:07:31Z</time>
      </trkpt>
      <trkpt lat="48.78959" lon="6.58526">
        <ele>222.7</ele>
        <time>2021-07-30T12:07:32Z</time>
      </trkpt>
      <trkpt lat="48.78958" lon="6.58536">
        <ele>222.5</ele>
        <time>2021-07-30T12:07:33Z</time>
      </trkpt>
      <trkpt lat="48.78956" lon="6.58545">
        <ele>222.3</ele>
        <time>2021-07-30T12:07:34Z</time>
      </trkpt>
      <trkpt lat="48.78955" lon="6.58563">
        <ele>221.9</ele>
        <time>2021-07-30T12:07:36Z</time>
      </trkpt>
      <trkpt lat="48.78953" lon="6.58581">
        <ele>221.5</ele>
        <time>2021-07-30T12:07:38Z</time>
      </trkpt>
      <trkpt lat="48.78952" lon="6.58597">
        <ele>221.1</ele>
        <time>2021-07-30T12:07:40Z</time>
      </trkpt>
      <trkpt lat="48.7895" lon="6.58615">
        <ele>220.7</ele>
        <time>2021-07-30T12:07:42Z</time>
      </trkpt>
      <trkpt lat="48.78948" lon="6.58633">
        <ele>220.3</ele>
        <time>2021-07-30T12:07:44Z</time>
      </trkpt>
      <trkpt lat="48.78948" lon="6.58642">
        <ele>220.1</ele>
        <time>2021-07-30T12:07:45Z</time>
      </trkpt>
      <trkpt lat="48.78948" lon="6.58651">
        <ele>219.9</ele>
        <time>2021-07-30T12:07:46Z</time>
      </trkpt>
      <trkpt lat="48.78948" lon="6.58668">
        <ele>219.5</ele>
        <time>2021-07-30T12:07:48Z</time>
      </trkpt>
      <trkpt lat="48.78949" lon="6.58684">
        <ele>219.4</ele>
        <time>2021-07-30T12:07:50Z</time>
      </trkpt>
      <trkpt lat="48.78949" lon="6.58691">
        <ele>219.3</ele>
        <time>2021-07-30T12:07:51Z</time>
      </trkpt>
      <trkpt lat="48.78951" lon="6.58705">
        <ele>219.3</ele>
        <time>2021-07-30T12:07:53Z</time>
      </trkpt>
      <trkpt lat="48.78951" lon="6.58712">
        <ele>219.4</ele>
        <time>2021-07-30T12:07:54Z</time>
      </trkpt>
      <trkpt lat="48.78953" lon="6.58723">
        <ele>219.5</ele>
        <time>2021-07-30T12:07:56Z</time>
      </trkpt>
      <trkpt lat="48.78955" lon="6.58737">
        <ele>219.5</ele>
        <time>2021-07-30T12:07:58Z</time>
      </trkpt>
      <trkpt lat="48.78956" lon="6.58744">
        <ele>219.5</ele>
        <time>2021-07-30T12:07:59Z</time>
      </trkpt>
      <trkpt lat="48.78957" lon="6.58751">
        <ele>219.4</ele>
        <time>2021-07-30T12:08:00Z</time>
      </trkpt>
      <trkpt lat="48.78959" lon="6.58765">
        <ele>219.2</ele>
        <time>2021-07-30T12:08:02Z</time>
      </trkpt>
      <trkpt lat="48.7896" lon="6.58771">
        <ele>219.1</ele>
        <time>2021-07-30T12:08:03Z</time>
      </trkpt>
      <trkpt lat="48.78962" lon="6.58785">
        <ele>218.9</ele>
        <time>2021-07-30T12:08:05Z</time>
      </trkpt>
      <trkpt lat="48.78962" lon="6.58791">
        <ele>218.8</ele>
        <time>2021-07-30T12:08:06Z</time>
      </trkpt>
      <trkpt lat="48.78965" lon="6.588">
        <ele>218.7</ele>
        <time>2021-07-30T12:08:08Z</time>
      </trkpt>
      <trkpt lat="48.78966" lon="6.58804">
        <ele>218.6</ele>
        <time>2021-07-30T12:08:09Z</time>
      </trkpt>
      <trkpt lat="48.78966" lon="6.58813">
        <ele>218.5</ele>
        <time>2021-07-30T12:08:11Z</time>
      </trkpt>
      <trkpt lat="48.78966" lon="6.58826">
        <ele>218.4</ele>
        <time>2021-07-30T12:08:12Z</time>
      </trkpt>
      <trkpt lat="48.78967" lon="6.58832">
        <ele>218.3</ele>
        <time>2021-07-30T12:08:13Z</time>
      </trkpt>
      <trkpt lat="48.78967" lon="6.58845">
        <ele>218.1</ele>
        <time>2021-07-30T12:08:15Z</time>
      </trkpt>
      <trkpt lat="48.78968" lon="6.5885">
        <ele>218</ele>
        <time>2021-07-30T12:08:16Z</time>
      </trkpt>
      <trkpt lat="48.78971" lon="6.5886">
        <ele>217.8</ele>
        <time>2021-07-30T12:08:18Z</time>
      </trkpt>
      <trkpt lat="48.78972" lon="6.58865">
        <ele>217.7</ele>
        <time>2021-07-30T12:08:19Z</time>
      </trkpt>
      <trkpt lat="48.78972" lon="6.58873">
        <ele>217.6</ele>
        <time>2021-07-30T12:08:21Z</time>
      </trkpt>
      <trkpt lat="48.78972" lon="6.58879">
        <ele>217.5</ele>
        <time>2021-07-30T12:08:22Z</time>
      </trkpt>
      <trkpt lat="48.78973" lon="6.58885">
        <ele>217.4</ele>
        <time>2021-07-30T12:08:23Z</time>
      </trkpt>
      <trkpt lat="48.78975" lon="6.58889">
        <ele>217.4</ele>
        <time>2021-07-30T12:08:24Z</time>
      </trkpt>
      <trkpt lat="48.78977" lon="6.58893">
        <ele>217.4</ele>
        <time>2021-07-30T12:08:25Z</time>
      </trkpt>
      <trkpt lat="48.78979" lon="6.58897">
        <ele>217.3</ele>
        <time>2021-07-30T12:08:26Z</time>
      </trkpt>
      <trkpt lat="48.7898" lon="6.589">
        <ele>217.3</ele>
        <time>2021-07-30T12:08:27Z</time>
      </trkpt>
      <trkpt lat="48.78981" lon="6.58906">
        <ele>217.2</ele>
        <time>2021-07-30T12:08:29Z</time>
      </trkpt>
      <trkpt lat="48.78981" lon="6.5891">
        <ele>217.1</ele>
        <time>2021-07-30T12:08:31Z</time>
      </trkpt>
      <trkpt lat="48.7898" lon="6.58915">
        <ele>217.1</ele>
        <time>2021-07-30T12:08:32Z</time>
      </trkpt>
      <trkpt lat="48.78981" lon="6.58922">
        <ele>217</ele>
        <time>2021-07-30T12:08:34Z</time>
      </trkpt>
      <trkpt lat="48.78983" lon="6.58927">
        <ele>216.9</ele>
        <time>2021-07-30T12:08:35Z</time>
      </trkpt>
      <trkpt lat="48.78983" lon="6.58928">
        <ele>216.9</ele>
        <time>2021-07-30T12:08:36Z</time>
      </trkpt>
      <trkpt lat="48.78983" lon="6.58934">
        <ele>216.8</ele>
        <time>2021-07-30T12:08:38Z</time>
      </trkpt>
      <trkpt lat="48.78983" lon="6.58938">
        <ele>216.7</ele>
        <time>2021-07-30T12:08:39Z</time>
      </trkpt>
      <trkpt lat="48.78983" lon="6.58944">
        <ele>216.6</ele>
        <time>2021-07-30T12:08:41Z</time>
      </trkpt>
      <trkpt lat="48.78983" lon="6.58951">
        <ele>216.4</ele>
        <time>2021-07-30T12:08:42Z</time>
      </trkpt>
      <trkpt lat="48.78983" lon="6.58961">
        <ele>216.1</ele>
        <time>2021-07-30T12:08:43Z</time>
      </trkpt>
      <trkpt lat="48.78982" lon="6.5897">
        <ele>215.8</ele>
        <time>2021-07-30T12:08:45Z</time>
      </trkpt>
      <trkpt lat="48.78981" lon="6.58973">
        <ele>215.7</ele>
        <time>2021-07-30T12:08:46Z</time>
      </trkpt>
      <trkpt lat="48.78977" lon="6.58976">
        <ele>215.4</ele>
        <time>2021-07-30T12:08:48Z</time>
      </trkpt>
      <trkpt lat="48.78973" lon="6.58981">
        <ele>215.1</ele>
        <time>2021-07-30T12:08:50Z</time>
      </trkpt>
      <trkpt lat="48.78969" lon="6.58984">
        <ele>214.8</ele>
        <time>2021-07-30T12:08:51Z</time>
      </trkpt>
      <trkpt lat="48.78966" lon="6.58988">
        <ele>214.4</ele>
        <time>2021-07-30T12:08:53Z</time>
      </trkpt>
      <trkpt lat="48.78962" lon="6.58993">
        <ele>214</ele>
        <time>2021-07-30T12:08:54Z</time>
      </trkpt>
      <trkpt lat="48.78961" lon="6.58997">
        <ele>213.8</ele>
        <time>2021-07-30T12:08:56Z</time>
      </trkpt>
      <trkpt lat="48.7896" lon="6.58998">
        <ele>213.7</ele>
        <time>2021-07-30T12:08:57Z</time>
      </trkpt>
      <trkpt lat="48.78958" lon="6.58996">
        <ele>213.5</ele>
        <time>2021-07-30T12:08:59Z</time>
      </trkpt>
      <trkpt lat="48.78958" lon="6.58995">
        <ele>213.4</ele>
        <time>2021-07-30T12:09:00Z</time>
      </trkpt>
      <trkpt lat="48.78957" lon="6.58995">
        <ele>213.3</ele>
        <time>2021-07-30T12:09:01Z</time>
      </trkpt>
      <trkpt lat="48.78953" lon="6.58995">
        <ele>213</ele>
        <time>2021-07-30T12:09:03Z</time>
      </trkpt>
      <trkpt lat="48.78952" lon="6.59">
        <ele>212.7</ele>
        <time>2021-07-30T12:09:04Z</time>
      </trkpt>
      <trkpt lat="48.7895" lon="6.59005">
        <ele>212.5</ele>
        <time>2021-07-30T12:09:05Z</time>
      </trkpt>
      <trkpt lat="48.78949" lon="6.5901">
        <ele>212.2</ele>
        <time>2021-07-30T12:09:07Z</time>
      </trkpt>
      <trkpt lat="48.78947" lon="6.59015">
        <ele>212</ele>
        <time>2021-07-30T12:09:09Z</time>
      </trkpt>
      <trkpt lat="48.78946" lon="6.5902">
        <ele>211.8</ele>
        <time>2021-07-30T12:09:10Z</time>
      </trkpt>
      <trkpt lat="48.78944" lon="6.59024">
        <ele>211.5</ele>
        <time>2021-07-30T12:09:11Z</time>
      </trkpt>
      <trkpt lat="48.78943" lon="6.59029">
        <ele>211.3</ele>
        <time>2021-07-30T12:09:18Z</time>
      </trkpt>
      <trkpt lat="48.78941" lon="6.59034">
        <ele>211</ele>
        <time>2021-07-30T12:09:20Z</time>
      </trkpt>
      <trkpt lat="48.78935" lon="6.59054">
        <ele>209.5</ele>
        <time>2021-07-30T12:09:22Z</time>
      </trkpt>
      <trkpt lat="48.78932" lon="6.59064">
        <ele>208.9</ele>
        <time>2021-07-30T12:09:23Z</time>
      </trkpt>
      <trkpt lat="48.78926" lon="6.59083">
        <ele>208</ele>
        <time>2021-07-30T12:09:25Z</time>
      </trkpt>
      <trkpt lat="48.78924" lon="6.59092">
        <ele>207.8</ele>
        <time>2021-07-30T12:09:26Z</time>
      </trkpt>
      <trkpt lat="48.78921" lon="6.59105">
        <ele>207.7</ele>
        <time>2021-07-30T12:09:28Z</time>
      </trkpt>
      <trkpt lat="48.78918" lon="6.59111">
        <ele>207.7</ele>
        <time>2021-07-30T12:09:30Z</time>
      </trkpt>
      <trkpt lat="48.78917" lon="6.59116">
        <ele>207.7</ele>
        <time>2021-07-30T12:09:31Z</time>
      </trkpt>
      <trkpt lat="48.78916" lon="6.59127">
        <ele>207.7</ele>
        <time>2021-07-30T12:09:33Z</time>
      </trkpt>
      <trkpt lat="48.78916" lon="6.59131">
        <ele>207.6</ele>
        <time>2021-07-30T12:09:34Z</time>
      </trkpt>
      <trkpt lat="48.78916" lon="6.59139">
        <ele>207.6</ele>
        <time>2021-07-30T12:09:36Z</time>
      </trkpt>
      <trkpt lat="48.78914" lon="6.59145">
        <ele>207.6</ele>
        <time>2021-07-30T12:09:38Z</time>
      </trkpt>
      <trkpt lat="48.78913" lon="6.59152">
        <ele>207.5</ele>
        <time>2021-07-30T12:09:39Z</time>
      </trkpt>
      <trkpt lat="48.78913" lon="6.59157">
        <ele>207.5</ele>
        <time>2021-07-30T12:09:40Z</time>
      </trkpt>
      <trkpt lat="48.78913" lon="6.59164">
        <ele>207.5</ele>
        <time>2021-07-30T12:09:42Z</time>
      </trkpt>
      <trkpt lat="48.78913" lon="6.5917">
        <ele>207.5</ele>
        <time>2021-07-30T12:09:43Z</time>
      </trkpt>
      <trkpt lat="48.78912" lon="6.59179">
        <ele>207.5</ele>
        <time>2021-07-30T12:09:44Z</time>
      </trkpt>
      <trkpt lat="48.78915" lon="6.59194">
        <ele>207.4</ele>
        <time>2021-07-30T12:09:46Z</time>
      </trkpt>
      <trkpt lat="48.78919" lon="6.59209">
        <ele>207.3</ele>
        <time>2021-07-30T12:09:48Z</time>
      </trkpt>
      <trkpt lat="48.78924" lon="6.59223">
        <ele>207.3</ele>
        <time>2021-07-30T12:09:50Z</time>
      </trkpt>
      <trkpt lat="48.7893" lon="6.59238">
        <ele>207.2</ele>
        <time>2021-07-30T12:09:52Z</time>
      </trkpt>
      <trkpt lat="48.78932" lon="6.59245">
        <ele>207.2</ele>
        <time>2021-07-30T12:09:53Z</time>
      </trkpt>
      <trkpt lat="48.78934" lon="6.59253">
        <ele>207.2</ele>
        <time>2021-07-30T12:09:54Z</time>
      </trkpt>
      <trkpt lat="48.78938" lon="6.59268">
        <ele>207.2</ele>
        <time>2021-07-30T12:09:56Z</time>
      </trkpt>
      <trkpt lat="48.78941" lon="6.59282">
        <ele>207.3</ele>
        <time>2021-07-30T12:09:58Z</time>
      </trkpt>
      <trkpt lat="48.78946" lon="6.59295">
        <ele>207.4</ele>
        <time>2021-07-30T12:10:00Z</time>
      </trkpt>
      <trkpt lat="48.7895" lon="6.59308">
        <ele>207.5</ele>
        <time>2021-07-30T12:10:02Z</time>
      </trkpt>
      <trkpt lat="48.78952" lon="6.59314">
        <ele>207.5</ele>
        <time>2021-07-30T12:10:03Z</time>
      </trkpt>
      <trkpt lat="48.78953" lon="6.5932">
        <ele>207.5</ele>
        <time>2021-07-30T12:10:04Z</time>
      </trkpt>
      <trkpt lat="48.78956" lon="6.59334">
        <ele>207.6</ele>
        <time>2021-07-30T12:10:06Z</time>
      </trkpt>
      <trkpt lat="48.78958" lon="6.59348">
        <ele>207.7</ele>
        <time>2021-07-30T12:10:08Z</time>
      </trkpt>
      <trkpt lat="48.7896" lon="6.59355">
        <ele>207.7</ele>
        <time>2021-07-30T12:10:09Z</time>
      </trkpt>
      <trkpt lat="48.78961" lon="6.59362">
        <ele>207.7</ele>
        <time>2021-07-30T12:10:10Z</time>
      </trkpt>
      <trkpt lat="48.78964" lon="6.59374">
        <ele>207.7</ele>
        <time>2021-07-30T12:10:12Z</time>
      </trkpt>
      <trkpt lat="48.78965" lon="6.5938">
        <ele>207.7</ele>
        <time>2021-07-30T12:10:14Z</time>
      </trkpt>
      <trkpt lat="48.78967" lon="6.59387">
        <ele>207.6</ele>
        <time>2021-07-30T12:10:15Z</time>
      </trkpt>
      <trkpt lat="48.78968" lon="6.59393">
        <ele>207.6</ele>
        <time>2021-07-30T12:10:16Z</time>
      </trkpt>
      <trkpt lat="48.7897" lon="6.594">
        <ele>207.6</ele>
        <time>2021-07-30T12:10:17Z</time>
      </trkpt>
      <trkpt lat="48.78972" lon="6.59406">
        <ele>207.5</ele>
        <time>2021-07-30T12:10:18Z</time>
      </trkpt>
      <trkpt lat="48.78974" lon="6.59418">
        <ele>207.4</ele>
        <time>2021-07-30T12:10:19Z</time>
      </trkpt>
      <trkpt lat="48.78975" lon="6.59424">
        <ele>207.4</ele>
        <time>2021-07-30T12:10:20Z</time>
      </trkpt>
      <trkpt lat="48.78979" lon="6.59438">
        <ele>207.3</ele>
        <time>2021-07-30T12:10:22Z</time>
      </trkpt>
      <trkpt lat="48.78981" lon="6.59445">
        <ele>207.2</ele>
        <time>2021-07-30T12:10:23Z</time>
      </trkpt>
      <trkpt lat="48.78983" lon="6.59453">
        <ele>207.1</ele>
        <time>2021-07-30T12:10:24Z</time>
      </trkpt>
      <trkpt lat="48.78987" lon="6.59466">
        <ele>206.9</ele>
        <time>2021-07-30T12:10:26Z</time>
      </trkpt>
      <trkpt lat="48.78993" lon="6.5948">
        <ele>206.8</ele>
        <time>2021-07-30T12:10:28Z</time>
      </trkpt>
      <trkpt lat="48.78996" lon="6.59488">
        <ele>206.7</ele>
        <time>2021-07-30T12:10:29Z</time>
      </trkpt>
      <trkpt lat="48.78999" lon="6.59495">
        <ele>206.7</ele>
        <time>2021-07-30T12:10:30Z</time>
      </trkpt>
      <trkpt lat="48.79006" lon="6.5951">
        <ele>206.5</ele>
        <time>2021-07-30T12:10:32Z</time>
      </trkpt>
      <trkpt lat="48.79009" lon="6.59517">
        <ele>206.4</ele>
        <time>2021-07-30T12:10:33Z</time>
      </trkpt>
      <trkpt lat="48.79012" lon="6.59525">
        <ele>206.4</ele>
        <time>2021-07-30T12:10:34Z</time>
      </trkpt>
      <trkpt lat="48.79018" lon="6.5954">
        <ele>206.3</ele>
        <time>2021-07-30T12:10:36Z</time>
      </trkpt>
      <trkpt lat="48.79025" lon="6.59556">
        <ele>206.2</ele>
        <time>2021-07-30T12:10:38Z</time>
      </trkpt>
      <trkpt lat="48.79029" lon="6.59563">
        <ele>206.2</ele>
        <time>2021-07-30T12:10:39Z</time>
      </trkpt>
      <trkpt lat="48.79033" lon="6.59569">
        <ele>206.2</ele>
        <time>2021-07-30T12:10:40Z</time>
      </trkpt>
      <trkpt lat="48.79041" lon="6.59582">
        <ele>206.2</ele>
        <time>2021-07-30T12:10:42Z</time>
      </trkpt>
      <trkpt lat="48.79049" lon="6.59594">
        <ele>206.3</ele>
        <time>2021-07-30T12:10:44Z</time>
      </trkpt>
      <trkpt lat="48.79056" lon="6.59603">
        <ele>206.4</ele>
        <time>2021-07-30T12:10:46Z</time>
      </trkpt>
      <trkpt lat="48.79063" lon="6.5961">
        <ele>206.5</ele>
        <time>2021-07-30T12:10:48Z</time>
      </trkpt>
      <trkpt lat="48.79069" lon="6.59618">
        <ele>206.6</ele>
        <time>2021-07-30T12:10:50Z</time>
      </trkpt>
      <trkpt lat="48.79072" lon="6.59623">
        <ele>206.6</ele>
        <time>2021-07-30T12:10:51Z</time>
      </trkpt>
      <trkpt lat="48.79075" lon="6.59627">
        <ele>206.7</ele>
        <time>2021-07-30T12:10:52Z</time>
      </trkpt>
      <trkpt lat="48.79078" lon="6.59632">
        <ele>206.7</ele>
        <time>2021-07-30T12:10:53Z</time>
      </trkpt>
      <trkpt lat="48.7908" lon="6.59636">
        <ele>206.7</ele>
        <time>2021-07-30T12:10:54Z</time>
      </trkpt>
      <trkpt lat="48.79085" lon="6.59645">
        <ele>206.8</ele>
        <time>2021-07-30T12:10:56Z</time>
      </trkpt>
      <trkpt lat="48.79087" lon="6.59659">
        <ele>206.8</ele>
        <time>2021-07-30T12:10:58Z</time>
      </trkpt>
      <trkpt lat="48.79087" lon="6.59675">
        <ele>206.3</ele>
        <time>2021-07-30T12:11:00Z</time>
      </trkpt>
      <trkpt lat="48.79083" lon="6.59691">
        <ele>205.8</ele>
        <time>2021-07-30T12:11:02Z</time>
      </trkpt>
      <trkpt lat="48.79078" lon="6.59707">
        <ele>205.4</ele>
        <time>2021-07-30T12:11:04Z</time>
      </trkpt>
      <trkpt lat="48.79071" lon="6.59723">
        <ele>204.9</ele>
        <time>2021-07-30T12:11:06Z</time>
      </trkpt>
      <trkpt lat="48.79064" lon="6.59741">
        <ele>204.4</ele>
        <time>2021-07-30T12:11:08Z</time>
      </trkpt>
      <trkpt lat="48.7906" lon="6.5975">
        <ele>204.2</ele>
        <time>2021-07-30T12:11:09Z</time>
      </trkpt>
      <trkpt lat="48.79056" lon="6.59758">
        <ele>204.1</ele>
        <time>2021-07-30T12:11:10Z</time>
      </trkpt>
      <trkpt lat="48.79049" lon="6.59776">
        <ele>203.9</ele>
        <time>2021-07-30T12:11:12Z</time>
      </trkpt>
      <trkpt lat="48.79041" lon="6.59794">
        <ele>203.7</ele>
        <time>2021-07-30T12:11:14Z</time>
      </trkpt>
      <trkpt lat="48.79034" lon="6.59813">
        <ele>203.4</ele>
        <time>2021-07-30T12:11:16Z</time>
      </trkpt>
      <trkpt lat="48.79027" lon="6.59832">
        <ele>203.2</ele>
        <time>2021-07-30T12:11:18Z</time>
      </trkpt>
      <trkpt lat="48.7902" lon="6.5985">
        <ele>203</ele>
        <time>2021-07-30T12:11:20Z</time>
      </trkpt>
      <trkpt lat="48.79013" lon="6.59867">
        <ele>202.8</ele>
        <time>2021-07-30T12:11:22Z</time>
      </trkpt>
      <trkpt lat="48.7901" lon="6.59875">
        <ele>202.7</ele>
        <time>2021-07-30T12:11:23Z</time>
      </trkpt>
      <trkpt lat="48.79006" lon="6.59883">
        <ele>202.7</ele>
        <time>2021-07-30T12:11:24Z</time>
      </trkpt>
      <trkpt lat="48.78999" lon="6.59901">
        <ele>202.6</ele>
        <time>2021-07-30T12:11:26Z</time>
      </trkpt>
      <trkpt lat="48.78991" lon="6.5992">
        <ele>202.6</ele>
        <time>2021-07-30T12:11:28Z</time>
      </trkpt>
      <trkpt lat="48.78983" lon="6.59939">
        <ele>202.6</ele>
        <time>2021-07-30T12:11:30Z</time>
      </trkpt>
      <trkpt lat="48.78977" lon="6.59956">
        <ele>202.7</ele>
        <time>2021-07-30T12:11:32Z</time>
      </trkpt>
      <trkpt lat="48.78973" lon="6.59973">
        <ele>202.7</ele>
        <time>2021-07-30T12:11:34Z</time>
      </trkpt>
      <trkpt lat="48.78971" lon="6.59981">
        <ele>202.7</ele>
        <time>2021-07-30T12:11:35Z</time>
      </trkpt>
      <trkpt lat="48.78968" lon="6.5999">
        <ele>202.7</ele>
        <time>2021-07-30T12:11:36Z</time>
      </trkpt>
      <trkpt lat="48.78964" lon="6.60005">
        <ele>202.7</ele>
        <time>2021-07-30T12:11:38Z</time>
      </trkpt>
      <trkpt lat="48.78962" lon="6.60013">
        <ele>202.8</ele>
        <time>2021-07-30T12:11:39Z</time>
      </trkpt>
      <trkpt lat="48.7896" lon="6.60021">
        <ele>202.8</ele>
        <time>2021-07-30T12:11:40Z</time>
      </trkpt>
      <trkpt lat="48.78958" lon="6.60028">
        <ele>202.8</ele>
        <time>2021-07-30T12:11:41Z</time>
      </trkpt>
      <trkpt lat="48.78956" lon="6.60036">
        <ele>202.9</ele>
        <time>2021-07-30T12:11:42Z</time>
      </trkpt>
      <trkpt lat="48.7895" lon="6.60051">
        <ele>203</ele>
        <time>2021-07-30T12:11:44Z</time>
      </trkpt>
      <trkpt lat="48.78948" lon="6.60059">
        <ele>203</ele>
        <time>2021-07-30T12:11:45Z</time>
      </trkpt>
      <trkpt lat="48.78946" lon="6.60066">
        <ele>203</ele>
        <time>2021-07-30T12:11:46Z</time>
      </trkpt>
      <trkpt lat="48.78941" lon="6.60081">
        <ele>203.1</ele>
        <time>2021-07-30T12:11:48Z</time>
      </trkpt>
      <trkpt lat="48.7894" lon="6.60088">
        <ele>203.2</ele>
        <time>2021-07-30T12:11:49Z</time>
      </trkpt>
      <trkpt lat="48.78936" lon="6.60103">
        <ele>203.2</ele>
        <time>2021-07-30T12:11:51Z</time>
      </trkpt>
      <trkpt lat="48.78932" lon="6.60117">
        <ele>203.2</ele>
        <time>2021-07-30T12:11:53Z</time>
      </trkpt>
      <trkpt lat="48.78928" lon="6.60131">
        <ele>203.2</ele>
        <time>2021-07-30T12:11:55Z</time>
      </trkpt>
      <trkpt lat="48.78925" lon="6.60144">
        <ele>203.2</ele>
        <time>2021-07-30T12:11:57Z</time>
      </trkpt>
      <trkpt lat="48.78923" lon="6.6015">
        <ele>203.2</ele>
        <time>2021-07-30T12:11:58Z</time>
      </trkpt>
      <trkpt lat="48.78922" lon="6.60154">
        <ele>203.2</ele>
        <time>2021-07-30T12:11:59Z</time>
      </trkpt>
      <trkpt lat="48.78919" lon="6.60161">
        <ele>203.2</ele>
        <time>2021-07-30T12:12:00Z</time>
      </trkpt>
      <trkpt lat="48.78915" lon="6.60175">
        <ele>203.2</ele>
        <time>2021-07-30T12:12:02Z</time>
      </trkpt>
      <trkpt lat="48.78913" lon="6.60181">
        <ele>203.2</ele>
        <time>2021-07-30T12:12:03Z</time>
      </trkpt>
      <trkpt lat="48.78909" lon="6.60193">
        <ele>203.2</ele>
        <time>2021-07-30T12:12:05Z</time>
      </trkpt>
      <trkpt lat="48.78907" lon="6.602">
        <ele>203.2</ele>
        <time>2021-07-30T12:12:06Z</time>
      </trkpt>
      <trkpt lat="48.78904" lon="6.60212">
        <ele>203.2</ele>
        <time>2021-07-30T12:12:08Z</time>
      </trkpt>
      <trkpt lat="48.78902" lon="6.6022">
        <ele>203.2</ele>
        <time>2021-07-30T12:12:09Z</time>
      </trkpt>
      <trkpt lat="48.789" lon="6.60226">
        <ele>203.2</ele>
        <time>2021-07-30T12:12:10Z</time>
      </trkpt>
      <trkpt lat="48.78897" lon="6.60236">
        <ele>203.2</ele>
        <time>2021-07-30T12:12:12Z</time>
      </trkpt>
      <trkpt lat="48.78893" lon="6.60251">
        <ele>203.3</ele>
        <time>2021-07-30T12:12:14Z</time>
      </trkpt>
      <trkpt lat="48.78894" lon="6.60262">
        <ele>203.3</ele>
        <time>2021-07-30T12:12:16Z</time>
      </trkpt>
      <trkpt lat="48.78887" lon="6.60279">
        <ele>203.4</ele>
        <time>2021-07-30T12:12:18Z</time>
      </trkpt>
      <trkpt lat="48.78883" lon="6.60288">
        <ele>203.4</ele>
        <time>2021-07-30T12:12:19Z</time>
      </trkpt>
      <trkpt lat="48.78881" lon="6.60293">
        <ele>203.4</ele>
        <time>2021-07-30T12:12:20Z</time>
      </trkpt>
      <trkpt lat="48.7888" lon="6.60298">
        <ele>203.4</ele>
        <time>2021-07-30T12:12:21Z</time>
      </trkpt>
      <trkpt lat="48.78879" lon="6.60304">
        <ele>203.4</ele>
        <time>2021-07-30T12:12:22Z</time>
      </trkpt>
      <trkpt lat="48.78877" lon="6.60308">
        <ele>203.4</ele>
        <time>2021-07-30T12:12:23Z</time>
      </trkpt>
      <trkpt lat="48.78875" lon="6.60315">
        <ele>203.5</ele>
        <time>2021-07-30T12:12:24Z</time>
      </trkpt>
      <trkpt lat="48.78871" lon="6.60328">
        <ele>203.5</ele>
        <time>2021-07-30T12:12:26Z</time>
      </trkpt>
      <trkpt lat="48.78868" lon="6.60333">
        <ele>203.5</ele>
        <time>2021-07-30T12:12:28Z</time>
      </trkpt>
      <trkpt lat="48.78864" lon="6.60337">
        <ele>203.5</ele>
        <time>2021-07-30T12:12:29Z</time>
      </trkpt>
      <trkpt lat="48.78863" lon="6.60345">
        <ele>203.5</ele>
        <time>2021-07-30T12:12:30Z</time>
      </trkpt>
      <trkpt lat="48.78862" lon="6.60353">
        <ele>203.6</ele>
        <time>2021-07-30T12:12:31Z</time>
      </trkpt>
      <trkpt lat="48.7886" lon="6.60362">
        <ele>203.6</ele>
        <time>2021-07-30T12:12:33Z</time>
      </trkpt>
      <trkpt lat="48.78858" lon="6.6037">
        <ele>203.6</ele>
        <time>2021-07-30T12:12:34Z</time>
      </trkpt>
      <trkpt lat="48.78856" lon="6.60377">
        <ele>203.6</ele>
        <time>2021-07-30T12:12:35Z</time>
      </trkpt>
      <trkpt lat="48.78853" lon="6.60386">
        <ele>203.7</ele>
        <time>2021-07-30T12:12:36Z</time>
      </trkpt>
      <trkpt lat="48.78849" lon="6.60393">
        <ele>203.7</ele>
        <time>2021-07-30T12:12:38Z</time>
      </trkpt>
      <trkpt lat="48.78846" lon="6.60399">
        <ele>203.7</ele>
        <time>2021-07-30T12:12:39Z</time>
      </trkpt>
      <trkpt lat="48.78844" lon="6.60407">
        <ele>203.7</ele>
        <time>2021-07-30T12:12:40Z</time>
      </trkpt>
      <trkpt lat="48.78841" lon="6.60414">
        <ele>203.8</ele>
        <time>2021-07-30T12:12:42Z</time>
      </trkpt>
      <trkpt lat="48.78839" lon="6.60422">
        <ele>203.8</ele>
        <time>2021-07-30T12:12:43Z</time>
      </trkpt>
      <trkpt lat="48.78836" lon="6.6043">
        <ele>203.8</ele>
        <time>2021-07-30T12:12:44Z</time>
      </trkpt>
      <trkpt lat="48.78829" lon="6.60444">
        <ele>203.8</ele>
        <time>2021-07-30T12:12:46Z</time>
      </trkpt>
      <trkpt lat="48.78823" lon="6.60456">
        <ele>203.8</ele>
        <time>2021-07-30T12:12:48Z</time>
      </trkpt>
      <trkpt lat="48.7882" lon="6.60459">
        <ele>203.8</ele>
        <time>2021-07-30T12:12:49Z</time>
      </trkpt>
      <trkpt lat="48.78818" lon="6.60462">
        <ele>203.8</ele>
        <time>2021-07-30T12:12:50Z</time>
      </trkpt>
      <trkpt lat="48.78816" lon="6.60468">
        <ele>203.8</ele>
        <time>2021-07-30T12:12:52Z</time>
      </trkpt>
      <trkpt lat="48.78814" lon="6.60473">
        <ele>203.8</ele>
        <time>2021-07-30T12:12:53Z</time>
      </trkpt>
      <trkpt lat="48.78812" lon="6.6048">
        <ele>203.8</ele>
        <time>2021-07-30T12:12:54Z</time>
      </trkpt>
      <trkpt lat="48.7881" lon="6.60491">
        <ele>203.9</ele>
        <time>2021-07-30T12:12:56Z</time>
      </trkpt>
      <trkpt lat="48.78809" lon="6.60496">
        <ele>203.9</ele>
        <time>2021-07-30T12:12:57Z</time>
      </trkpt>
      <trkpt lat="48.78808" lon="6.605">
        <ele>203.9</ele>
        <time>2021-07-30T12:12:58Z</time>
      </trkpt>
      <trkpt lat="48.7881" lon="6.60511">
        <ele>203.9</ele>
        <time>2021-07-30T12:13:00Z</time>
      </trkpt>
      <trkpt lat="48.78812" lon="6.60517">
        <ele>203.9</ele>
        <time>2021-07-30T12:13:01Z</time>
      </trkpt>
      <trkpt lat="48.78816" lon="6.60528">
        <ele>203.9</ele>
        <time>2021-07-30T12:13:03Z</time>
      </trkpt>
      <trkpt lat="48.78817" lon="6.60535">
        <ele>203.9</ele>
        <time>2021-07-30T12:13:04Z</time>
      </trkpt>
      <trkpt lat="48.78819" lon="6.60541">
        <ele>203.9</ele>
        <time>2021-07-30T12:13:06Z</time>
      </trkpt>
      <trkpt lat="48.78819" lon="6.60544">
        <ele>203.9</ele>
        <time>2021-07-30T12:13:07Z</time>
      </trkpt>
      <trkpt lat="48.78819" lon="6.60545">
        <ele>203.9</ele>
        <time>2021-07-30T12:13:08Z</time>
      </trkpt>
      <trkpt lat="48.78819" lon="6.60544">
        <ele>203.9</ele>
        <time>2021-07-30T12:13:09Z</time>
      </trkpt>
      <trkpt lat="48.78818" lon="6.60542">
        <ele>203.9</ele>
        <time>2021-07-30T12:13:11Z</time>
      </trkpt>
      <trkpt lat="48.78815" lon="6.60537">
        <ele>203.9</ele>
        <time>2021-07-30T12:13:12Z</time>
      </trkpt>
      <trkpt lat="48.78815" lon="6.60531">
        <ele>203.8</ele>
        <time>2021-07-30T12:13:14Z</time>
      </trkpt>
      <trkpt lat="48.78815" lon="6.60524">
        <ele>203.8</ele>
        <time>2021-07-30T12:13:15Z</time>
      </trkpt>
      <trkpt lat="48.78815" lon="6.6052">
        <ele>203.8</ele>
        <time>2021-07-30T12:13:16Z</time>
      </trkpt>
      <trkpt lat="48.78815" lon="6.60517">
        <ele>203.8</ele>
        <time>2021-07-30T12:13:18Z</time>
      </trkpt>
      <trkpt lat="48.78816" lon="6.60519">
        <ele>203.8</ele>
        <time>2021-07-30T12:13:19Z</time>
      </trkpt>
      <trkpt lat="48.78817" lon="6.60521">
        <ele>203.8</ele>
        <time>2021-07-30T12:13:20Z</time>
      </trkpt>
      <trkpt lat="48.78818" lon="6.60523">
        <ele>203.8</ele>
        <time>2021-07-30T12:13:22Z</time>
      </trkpt>
      <trkpt lat="48.78819" lon="6.60525">
        <ele>203.8</ele>
        <time>2021-07-30T12:13:24Z</time>
      </trkpt>
      <trkpt lat="48.7882" lon="6.60527">
        <ele>203.8</ele>
        <time>2021-07-30T12:13:26Z</time>
      </trkpt>
      <trkpt lat="48.78821" lon="6.60529">
        <ele>203.8</ele>
        <time>2021-07-30T12:14:07Z</time>
      </trkpt>
      <trkpt lat="48.78822" lon="6.60531">
        <ele>203.7</ele>
        <time>2021-07-30T12:14:08Z</time>
      </trkpt>
      <trkpt lat="48.78825" lon="6.60536">
        <ele>203.7</ele>
        <time>2021-07-30T12:14:09Z</time>
      </trkpt>
      <trkpt lat="48.78831" lon="6.60542">
        <ele>203.7</ele>
        <time>2021-07-30T12:14:11Z</time>
      </trkpt>
      <trkpt lat="48.78835" lon="6.60548">
        <ele>203.7</ele>
        <time>2021-07-30T12:14:12Z</time>
      </trkpt>
      <trkpt lat="48.78839" lon="6.60553">
        <ele>203.8</ele>
        <time>2021-07-30T12:14:14Z</time>
      </trkpt>
      <trkpt lat="48.78844" lon="6.6056">
        <ele>203.8</ele>
        <time>2021-07-30T12:14:15Z</time>
      </trkpt>
      <trkpt lat="48.78847" lon="6.60564">
        <ele>203.9</ele>
        <time>2021-07-30T12:14:16Z</time>
      </trkpt>
      <trkpt lat="48.7885" lon="6.60568">
        <ele>203.9</ele>
        <time>2021-07-30T12:14:18Z</time>
      </trkpt>
      <trkpt lat="48.78854" lon="6.60571">
        <ele>204</ele>
        <time>2021-07-30T12:14:19Z</time>
      </trkpt>
      <trkpt lat="48.78856" lon="6.60574">
        <ele>204</ele>
        <time>2021-07-30T12:14:20Z</time>
      </trkpt>
      <trkpt lat="48.78855" lon="6.60574">
        <ele>204</ele>
        <time>2021-07-30T12:14:21Z</time>
      </trkpt>
      <trkpt lat="48.78853" lon="6.60576">
        <ele>204</ele>
        <time>2021-07-30T12:14:22Z</time>
      </trkpt>
      <trkpt lat="48.78852" lon="6.60578">
        <ele>204.1</ele>
        <time>2021-07-30T12:14:23Z</time>
      </trkpt>
      <trkpt lat="48.78852" lon="6.60581">
        <ele>204.1</ele>
        <time>2021-07-30T12:14:24Z</time>
      </trkpt>
      <trkpt lat="48.78852" lon="6.60586">
        <ele>204.1</ele>
        <time>2021-07-30T12:14:26Z</time>
      </trkpt>
      <trkpt lat="48.78852" lon="6.60588">
        <ele>204.1</ele>
        <time>2021-07-30T12:14:27Z</time>
      </trkpt>
      <trkpt lat="48.78852" lon="6.60598">
        <ele>204.2</ele>
        <time>2021-07-30T12:14:28Z</time>
      </trkpt>
      <trkpt lat="48.78852" lon="6.6061">
        <ele>204.3</ele>
        <time>2021-07-30T12:14:29Z</time>
      </trkpt>
      <trkpt lat="48.78852" lon="6.60619">
        <ele>204.4</ele>
        <time>2021-07-30T12:14:30Z</time>
      </trkpt>
      <trkpt lat="48.78851" lon="6.6063">
        <ele>204.5</ele>
        <time>2021-07-30T12:14:31Z</time>
      </trkpt>
      <trkpt lat="48.78851" lon="6.60639">
        <ele>204.5</ele>
        <time>2021-07-30T12:14:32Z</time>
      </trkpt>
      <trkpt lat="48.78849" lon="6.60651">
        <ele>204.6</ele>
        <time>2021-07-30T12:14:34Z</time>
      </trkpt>
      <trkpt lat="48.78849" lon="6.60656">
        <ele>204.7</ele>
        <time>2021-07-30T12:14:35Z</time>
      </trkpt>
      <trkpt lat="48.78848" lon="6.6066">
        <ele>204.7</ele>
        <time>2021-07-30T12:14:36Z</time>
      </trkpt>
      <trkpt lat="48.78849" lon="6.6066">
        <ele>204.7</ele>
        <time>2021-07-30T12:14:38Z</time>
      </trkpt>
      <trkpt lat="48.7885" lon="6.6066">
        <ele>204.7</ele>
        <time>2021-07-30T12:14:40Z</time>
      </trkpt>
      <trkpt lat="48.78853" lon="6.60659">
        <ele>204.7</ele>
        <time>2021-07-30T12:14:41Z</time>
      </trkpt>
      <trkpt lat="48.78855" lon="6.6066">
        <ele>204.7</ele>
        <time>2021-07-30T12:14:44Z</time>
      </trkpt>
      <trkpt lat="48.78854" lon="6.60662">
        <ele>204.7</ele>
        <time>2021-07-30T12:14:45Z</time>
      </trkpt>
      <trkpt lat="48.78853" lon="6.60665">
        <ele>204.7</ele>
        <time>2021-07-30T12:14:47Z</time>
      </trkpt>
      <trkpt lat="48.78851" lon="6.60668">
        <ele>204.8</ele>
        <time>2021-07-30T12:14:48Z</time>
      </trkpt>
      <trkpt lat="48.7885" lon="6.60668">
        <ele>204.8</ele>
        <time>2021-07-30T12:14:49Z</time>
      </trkpt>
      <trkpt lat="48.78845" lon="6.60669">
        <ele>204.9</ele>
        <time>2021-07-30T12:14:51Z</time>
      </trkpt>
      <trkpt lat="48.7884" lon="6.60669">
        <ele>204.9</ele>
        <time>2021-07-30T12:14:53Z</time>
      </trkpt>
      <trkpt lat="48.78838" lon="6.60669">
        <ele>205</ele>
        <time>2021-07-30T12:14:54Z</time>
      </trkpt>
      <trkpt lat="48.78837" lon="6.60668">
        <ele>205</ele>
        <time>2021-07-30T12:14:55Z</time>
      </trkpt>
      <trkpt lat="48.78836" lon="6.60668">
        <ele>205</ele>
        <time>2021-07-30T12:14:56Z</time>
      </trkpt>
      <trkpt lat="48.78836" lon="6.60668">
        <ele>205</ele>
        <time>2021-07-30T12:14:58Z</time>
      </trkpt>
      <trkpt lat="48.78836" lon="6.60668">
        <ele>205</ele>
        <time>2021-07-30T12:14:59Z</time>
      </trkpt>
      <trkpt lat="48.78835" lon="6.60669">
        <ele>205</ele>
        <time>2021-07-30T12:15:01Z</time>
      </trkpt>
      <trkpt lat="48.78835" lon="6.60671">
        <ele>205.1</ele>
        <time>2021-07-30T12:15:02Z</time>
      </trkpt>
      <trkpt lat="48.78836" lon="6.60674">
        <ele>205.1</ele>
        <time>2021-07-30T12:15:04Z</time>
      </trkpt>
      <trkpt lat="48.78848" lon="6.6068">
        <ele>205.2</ele>
        <time>2021-07-30T12:15:06Z</time>
      </trkpt>
      <trkpt lat="48.78858" lon="6.60686">
        <ele>205.3</ele>
        <time>2021-07-30T12:15:57Z</time>
      </trkpt>
      <trkpt lat="48.78869" lon="6.60692">
        <ele>205.4</ele>
        <time>2021-07-30T12:15:58Z</time>
      </trkpt>
      <trkpt lat="48.78873" lon="6.6071">
        <ele>205.5</ele>
        <time>2021-07-30T12:15:59Z</time>
      </trkpt>
      <trkpt lat="48.78876" lon="6.60722">
        <ele>205.6</ele>
        <time>2021-07-30T12:16:01Z</time>
      </trkpt>
      <trkpt lat="48.7888" lon="6.60737">
        <ele>205.7</ele>
        <time>2021-07-30T12:16:02Z</time>
      </trkpt>
      <trkpt lat="48.78882" lon="6.60743">
        <ele>205.7</ele>
        <time>2021-07-30T12:16:04Z</time>
      </trkpt>
      <trkpt lat="48.78885" lon="6.60752">
        <ele>205.8</ele>
        <time>2021-07-30T12:16:05Z</time>
      </trkpt>
      <trkpt lat="48.78888" lon="6.6076">
        <ele>205.9</ele>
        <time>2021-07-30T12:16:06Z</time>
      </trkpt>
      <trkpt lat="48.7889" lon="6.60765">
        <ele>206</ele>
        <time>2021-07-30T12:16:07Z</time>
      </trkpt>
      <trkpt lat="48.78894" lon="6.60771">
        <ele>206</ele>
        <time>2021-07-30T12:16:09Z</time>
      </trkpt>
      <trkpt lat="48.78896" lon="6.60774">
        <ele>206.1</ele>
        <time>2021-07-30T12:16:10Z</time>
      </trkpt>
      <trkpt lat="48.78898" lon="6.60778">
        <ele>206.1</ele>
        <time>2021-07-30T12:16:11Z</time>
      </trkpt>
      <trkpt lat="48.789" lon="6.60782">
        <ele>206.1</ele>
        <time>2021-07-30T12:16:12Z</time>
      </trkpt>
      <trkpt lat="48.789" lon="6.60787">
        <ele>206.1</ele>
        <time>2021-07-30T12:16:13Z</time>
      </trkpt>
      <trkpt lat="48.78902" lon="6.60792">
        <ele>206.1</ele>
        <time>2021-07-30T12:16:15Z</time>
      </trkpt>
      <trkpt lat="48.78902" lon="6.60797">
        <ele>206.1</ele>
        <time>2021-07-30T12:16:16Z</time>
      </trkpt>
      <trkpt lat="48.78902" lon="6.60803">
        <ele>206.1</ele>
        <time>2021-07-30T12:16:17Z</time>
      </trkpt>
      <trkpt lat="48.789" lon="6.60808">
        <ele>206.1</ele>
        <time>2021-07-30T12:16:18Z</time>
      </trkpt>
      <trkpt lat="48.78899" lon="6.6081">
        <ele>206.1</ele>
        <time>2021-07-30T12:16:19Z</time>
      </trkpt>
      <trkpt lat="48.78898" lon="6.60813">
        <ele>206.1</ele>
        <time>2021-07-30T12:16:20Z</time>
      </trkpt>
      <trkpt lat="48.78895" lon="6.60817">
        <ele>206.1</ele>
        <time>2021-07-30T12:16:21Z</time>
      </trkpt>
      <trkpt lat="48.78893" lon="6.6082">
        <ele>206.1</ele>
        <time>2021-07-30T12:16:22Z</time>
      </trkpt>
      <trkpt lat="48.78887" lon="6.60824">
        <ele>206.1</ele>
        <time>2021-07-30T12:16:23Z</time>
      </trkpt>
      <trkpt lat="48.78883" lon="6.60826">
        <ele>206</ele>
        <time>2021-07-30T12:16:24Z</time>
      </trkpt>
      <trkpt lat="48.78881" lon="6.60826">
        <ele>206</ele>
        <time>2021-07-30T12:16:25Z</time>
      </trkpt>
      <trkpt lat="48.78876" lon="6.60829">
        <ele>206</ele>
        <time>2021-07-30T12:16:27Z</time>
      </trkpt>
      <trkpt lat="48.78873" lon="6.60831">
        <ele>206</ele>
        <time>2021-07-30T12:16:28Z</time>
      </trkpt>
      <trkpt lat="48.78872" lon="6.60831">
        <ele>206</ele>
        <time>2021-07-30T12:16:29Z</time>
      </trkpt>
      <trkpt lat="48.78871" lon="6.60832">
        <ele>206</ele>
        <time>2021-07-30T12:16:30Z</time>
      </trkpt>
      <trkpt lat="48.78871" lon="6.60833">
        <ele>206</ele>
        <time>2021-07-30T12:16:31Z</time>
      </trkpt>
      <trkpt lat="48.78869" lon="6.60835">
        <ele>206</ele>
        <time>2021-07-30T12:16:32Z</time>
      </trkpt>
      <trkpt lat="48.78866" lon="6.60847">
        <ele>206</ele>
        <time>2021-07-30T12:16:33Z</time>
      </trkpt>
      <trkpt lat="48.78863" lon="6.60858">
        <ele>205.9</ele>
        <time>2021-07-30T12:16:46Z</time>
      </trkpt>
      <trkpt lat="48.78861" lon="6.60868">
        <ele>205.9</ele>
        <time>2021-07-30T12:16:47Z</time>
      </trkpt>
      <trkpt lat="48.78859" lon="6.60885">
        <ele>205.6</ele>
        <time>2021-07-30T12:16:48Z</time>
      </trkpt>
      <trkpt lat="48.78857" lon="6.60897">
        <ele>205.5</ele>
        <time>2021-07-30T12:16:49Z</time>
      </trkpt>
      <trkpt lat="48.78854" lon="6.60917">
        <ele>205.2</ele>
        <time>2021-07-30T12:16:51Z</time>
      </trkpt>
      <trkpt lat="48.78852" lon="6.60933">
        <ele>204.9</ele>
        <time>2021-07-30T12:16:52Z</time>
      </trkpt>
      <trkpt lat="48.78851" lon="6.60941">
        <ele>204.8</ele>
        <time>2021-07-30T12:16:53Z</time>
      </trkpt>
      <trkpt lat="48.78852" lon="6.60955">
        <ele>204.7</ele>
        <time>2021-07-30T12:16:55Z</time>
      </trkpt>
      <trkpt lat="48.78852" lon="6.60965">
        <ele>204.6</ele>
        <time>2021-07-30T12:16:57Z</time>
      </trkpt>
      <trkpt lat="48.78853" lon="6.60973">
        <ele>204.6</ele>
        <time>2021-07-30T12:16:58Z</time>
      </trkpt>
      <trkpt lat="48.78853" lon="6.60979">
        <ele>204.5</ele>
        <time>2021-07-30T12:16:59Z</time>
      </trkpt>
      <trkpt lat="48.78855" lon="6.60987">
        <ele>204.5</ele>
        <time>2021-07-30T12:17:01Z</time>
      </trkpt>
      <trkpt lat="48.78857" lon="6.60992">
        <ele>204.4</ele>
        <time>2021-07-30T12:17:02Z</time>
      </trkpt>
      <trkpt lat="48.78859" lon="6.60997">
        <ele>204.4</ele>
        <time>2021-07-30T12:17:03Z</time>
      </trkpt>
      <trkpt lat="48.78861" lon="6.61005">
        <ele>204.3</ele>
        <time>2021-07-30T12:17:05Z</time>
      </trkpt>
      <trkpt lat="48.78866" lon="6.61023">
        <ele>204.3</ele>
        <time>2021-07-30T12:17:06Z</time>
      </trkpt>
      <trkpt lat="48.78868" lon="6.61032">
        <ele>204.3</ele>
        <time>2021-07-30T12:17:08Z</time>
      </trkpt>
      <trkpt lat="48.7887" lon="6.6105">
        <ele>204.1</ele>
        <time>2021-07-30T12:17:09Z</time>
      </trkpt>
      <trkpt lat="48.78872" lon="6.61059">
        <ele>204.1</ele>
        <time>2021-07-30T12:17:10Z</time>
      </trkpt>
      <trkpt lat="48.78872" lon="6.61068">
        <ele>204</ele>
        <time>2021-07-30T12:17:11Z</time>
      </trkpt>
      <trkpt lat="48.78872" lon="6.61081">
        <ele>203.9</ele>
        <time>2021-07-30T12:17:13Z</time>
      </trkpt>
      <trkpt lat="48.78872" lon="6.61095">
        <ele>203.8</ele>
        <time>2021-07-30T12:17:15Z</time>
      </trkpt>
      <trkpt lat="48.78874" lon="6.61105">
        <ele>203.8</ele>
        <time>2021-07-30T12:17:17Z</time>
      </trkpt>
      <trkpt lat="48.78875" lon="6.61114">
        <ele>203.8</ele>
        <time>2021-07-30T12:17:18Z</time>
      </trkpt>
      <trkpt lat="48.78876" lon="6.6112">
        <ele>203.7</ele>
        <time>2021-07-30T12:17:19Z</time>
      </trkpt>
      <trkpt lat="48.78876" lon="6.61129">
        <ele>203.7</ele>
        <time>2021-07-30T12:17:21Z</time>
      </trkpt>
      <trkpt lat="48.78875" lon="6.61136">
        <ele>203.7</ele>
        <time>2021-07-30T12:17:22Z</time>
      </trkpt>
      <trkpt lat="48.78872" lon="6.61143">
        <ele>203.6</ele>
        <time>2021-07-30T12:17:24Z</time>
      </trkpt>
      <trkpt lat="48.7887" lon="6.61153">
        <ele>203.6</ele>
        <time>2021-07-30T12:17:25Z</time>
      </trkpt>
      <trkpt lat="48.78869" lon="6.61164">
        <ele>203.5</ele>
        <time>2021-07-30T12:17:26Z</time>
      </trkpt>
      <trkpt lat="48.78868" lon="6.61173">
        <ele>203.4</ele>
        <time>2021-07-30T12:17:27Z</time>
      </trkpt>
      <trkpt lat="48.78867" lon="6.6118">
        <ele>203.3</ele>
        <time>2021-07-30T12:17:28Z</time>
      </trkpt>
      <trkpt lat="48.78866" lon="6.61189">
        <ele>203.3</ele>
        <time>2021-07-30T12:17:29Z</time>
      </trkpt>
      <trkpt lat="48.78864" lon="6.61195">
        <ele>203.2</ele>
        <time>2021-07-30T12:17:30Z</time>
      </trkpt>
      <trkpt lat="48.78861" lon="6.61206">
        <ele>203.2</ele>
        <time>2021-07-30T12:17:31Z</time>
      </trkpt>
      <trkpt lat="48.78859" lon="6.61224">
        <ele>203.1</ele>
        <time>2021-07-30T12:17:33Z</time>
      </trkpt>
      <trkpt lat="48.78859" lon="6.6123">
        <ele>203.1</ele>
        <time>2021-07-30T12:17:34Z</time>
      </trkpt>
      <trkpt lat="48.78859" lon="6.61235">
        <ele>203.1</ele>
        <time>2021-07-30T12:17:35Z</time>
      </trkpt>
      <trkpt lat="48.78858" lon="6.61243">
        <ele>203.1</ele>
        <time>2021-07-30T12:17:36Z</time>
      </trkpt>
      <trkpt lat="48.7886" lon="6.61248">
        <ele>203.1</ele>
        <time>2021-07-30T12:17:38Z</time>
      </trkpt>
      <trkpt lat="48.7886" lon="6.61252">
        <ele>203.2</ele>
        <time>2021-07-30T12:17:39Z</time>
      </trkpt>
      <trkpt lat="48.78859" lon="6.61261">
        <ele>203.2</ele>
        <time>2021-07-30T12:17:40Z</time>
      </trkpt>
      <trkpt lat="48.78863" lon="6.61274">
        <ele>203.2</ele>
        <time>2021-07-30T12:17:41Z</time>
      </trkpt>
      <trkpt lat="48.78866" lon="6.61284">
        <ele>203.3</ele>
        <time>2021-07-30T12:17:43Z</time>
      </trkpt>
      <trkpt lat="48.78866" lon="6.6129">
        <ele>203.3</ele>
        <time>2021-07-30T12:17:44Z</time>
      </trkpt>
      <trkpt lat="48.78866" lon="6.61296">
        <ele>203.3</ele>
        <time>2021-07-30T12:17:45Z</time>
      </trkpt>
      <trkpt lat="48.78865" lon="6.61307">
        <ele>203.3</ele>
        <time>2021-07-30T12:17:47Z</time>
      </trkpt>
      <trkpt lat="48.78864" lon="6.61315">
        <ele>203.4</ele>
        <time>2021-07-30T12:17:48Z</time>
      </trkpt>
      <trkpt lat="48.78862" lon="6.61322">
        <ele>203.4</ele>
        <time>2021-07-30T12:17:49Z</time>
      </trkpt>
      <trkpt lat="48.78862" lon="6.61328">
        <ele>203.3</ele>
        <time>2021-07-30T12:17:50Z</time>
      </trkpt>
      <trkpt lat="48.7886" lon="6.61333">
        <ele>203.3</ele>
        <time>2021-07-30T12:17:52Z</time>
      </trkpt>
      <trkpt lat="48.78858" lon="6.61335">
        <ele>203.3</ele>
        <time>2021-07-30T12:17:53Z</time>
      </trkpt>
      <trkpt lat="48.78856" lon="6.61339">
        <ele>203.3</ele>
        <time>2021-07-30T12:17:54Z</time>
      </trkpt>
      <trkpt lat="48.78854" lon="6.61342">
        <ele>203.3</ele>
        <time>2021-07-30T12:17:55Z</time>
      </trkpt>
      <trkpt lat="48.78848" lon="6.61345">
        <ele>203.2</ele>
        <time>2021-07-30T12:17:57Z</time>
      </trkpt>
      <trkpt lat="48.78841" lon="6.61346">
        <ele>203.2</ele>
        <time>2021-07-30T12:17:59Z</time>
      </trkpt>
      <trkpt lat="48.78834" lon="6.61348">
        <ele>203.2</ele>
        <time>2021-07-30T12:18:00Z</time>
      </trkpt>
      <trkpt lat="48.78827" lon="6.61348">
        <ele>203.2</ele>
        <time>2021-07-30T12:18:02Z</time>
      </trkpt>
      <trkpt lat="48.78822" lon="6.61349">
        <ele>203.2</ele>
        <time>2021-07-30T12:18:03Z</time>
      </trkpt>
      <trkpt lat="48.78818" lon="6.61348">
        <ele>203.2</ele>
        <time>2021-07-30T12:18:05Z</time>
      </trkpt>
      <trkpt lat="48.78814" lon="6.61349">
        <ele>203.3</ele>
        <time>2021-07-30T12:18:06Z</time>
      </trkpt>
      <trkpt lat="48.78813" lon="6.61349">
        <ele>203.3</ele>
        <time>2021-07-30T12:18:07Z</time>
      </trkpt>
      <trkpt lat="48.78809" lon="6.61349">
        <ele>203.3</ele>
        <time>2021-07-30T12:18:09Z</time>
      </trkpt>
      <trkpt lat="48.78806" lon="6.61349">
        <ele>203.3</ele>
        <time>2021-07-30T12:18:10Z</time>
      </trkpt>
      <trkpt lat="48.78803" lon="6.6135">
        <ele>203.3</ele>
        <time>2021-07-30T12:18:11Z</time>
      </trkpt>
      <trkpt lat="48.78799" lon="6.61351">
        <ele>203.4</ele>
        <time>2021-07-30T12:18:13Z</time>
      </trkpt>
      <trkpt lat="48.78796" lon="6.61352">
        <ele>203.4</ele>
        <time>2021-07-30T12:18:14Z</time>
      </trkpt>
      <trkpt lat="48.78794" lon="6.61355">
        <ele>203.4</ele>
        <time>2021-07-30T12:18:15Z</time>
      </trkpt>
      <trkpt lat="48.78791" lon="6.61357">
        <ele>203.5</ele>
        <time>2021-07-30T12:18:16Z</time>
      </trkpt>
      <trkpt lat="48.78789" lon="6.61357">
        <ele>203.5</ele>
        <time>2021-07-30T12:18:17Z</time>
      </trkpt>
      <trkpt lat="48.78789" lon="6.61355">
        <ele>203.5</ele>
        <time>2021-07-30T12:18:18Z</time>
      </trkpt>
      <trkpt lat="48.7879" lon="6.61354">
        <ele>203.5</ele>
        <time>2021-07-30T12:18:19Z</time>
      </trkpt>
      <trkpt lat="48.78789" lon="6.61354">
        <ele>203.5</ele>
        <time>2021-07-30T12:18:20Z</time>
      </trkpt>
      <trkpt lat="48.78788" lon="6.61354">
        <ele>203.5</ele>
        <time>2021-07-30T12:18:21Z</time>
      </trkpt>
      <trkpt lat="48.78787" lon="6.61354">
        <ele>203.5</ele>
        <time>2021-07-30T12:18:22Z</time>
      </trkpt>
      <trkpt lat="48.78785" lon="6.61355">
        <ele>203.6</ele>
        <time>2021-07-30T12:18:23Z</time>
      </trkpt>
      <trkpt lat="48.78783" lon="6.61356">
        <ele>203.6</ele>
        <time>2021-07-30T12:18:24Z</time>
      </trkpt>
      <trkpt lat="48.78777" lon="6.61358">
        <ele>203.7</ele>
        <time>2021-07-30T12:18:26Z</time>
      </trkpt>
      <trkpt lat="48.78773" lon="6.6136">
        <ele>203.7</ele>
        <time>2021-07-30T12:18:27Z</time>
      </trkpt>
      <trkpt lat="48.78768" lon="6.61362">
        <ele>203.8</ele>
        <time>2021-07-30T12:18:28Z</time>
      </trkpt>
      <trkpt lat="48.78759" lon="6.61369">
        <ele>203.9</ele>
        <time>2021-07-30T12:18:30Z</time>
      </trkpt>
      <trkpt lat="48.78752" lon="6.61375">
        <ele>203.9</ele>
        <time>2021-07-30T12:18:31Z</time>
      </trkpt>
      <trkpt lat="48.78747" lon="6.61379">
        <ele>203.9</ele>
        <time>2021-07-30T12:18:32Z</time>
      </trkpt>
      <trkpt lat="48.78746" lon="6.6138">
        <ele>203.9</ele>
        <time>2021-07-30T12:18:33Z</time>
      </trkpt>
      <trkpt lat="48.78738" lon="6.61385">
        <ele>203.9</ele>
        <time>2021-07-30T12:18:35Z</time>
      </trkpt>
      <trkpt lat="48.78733" lon="6.61387">
        <ele>203.9</ele>
        <time>2021-07-30T12:18:36Z</time>
      </trkpt>
      <trkpt lat="48.78729" lon="6.61387">
        <ele>203.9</ele>
        <time>2021-07-30T12:18:37Z</time>
      </trkpt>
      <trkpt lat="48.78724" lon="6.61387">
        <ele>204</ele>
        <time>2021-07-30T12:18:38Z</time>
      </trkpt>
      <trkpt lat="48.78719" lon="6.61388">
        <ele>204</ele>
        <time>2021-07-30T12:18:39Z</time>
      </trkpt>
      <trkpt lat="48.78709" lon="6.61389">
        <ele>204</ele>
        <time>2021-07-30T12:18:41Z</time>
      </trkpt>
      <trkpt lat="48.78706" lon="6.61383">
        <ele>204</ele>
        <time>2021-07-30T12:18:42Z</time>
      </trkpt>
      <trkpt lat="48.78706" lon="6.61376">
        <ele>204</ele>
        <time>2021-07-30T12:18:43Z</time>
      </trkpt>
      <trkpt lat="48.78703" lon="6.61374">
        <ele>204</ele>
        <time>2021-07-30T12:18:45Z</time>
      </trkpt>
      <trkpt lat="48.78699" lon="6.61375">
        <ele>204</ele>
        <time>2021-07-30T12:18:46Z</time>
      </trkpt>
      <trkpt lat="48.78696" lon="6.61376">
        <ele>204</ele>
        <time>2021-07-30T12:18:47Z</time>
      </trkpt>
      <trkpt lat="48.78691" lon="6.61377">
        <ele>204</ele>
        <time>2021-07-30T12:18:49Z</time>
      </trkpt>
      <trkpt lat="48.78686" lon="6.61379">
        <ele>204</ele>
        <time>2021-07-30T12:18:51Z</time>
      </trkpt>
      <trkpt lat="48.78682" lon="6.61381">
        <ele>204</ele>
        <time>2021-07-30T12:18:52Z</time>
      </trkpt>
      <trkpt lat="48.78674" lon="6.61386">
        <ele>204</ele>
        <time>2021-07-30T12:18:54Z</time>
      </trkpt>
      <trkpt lat="48.78666" lon="6.61391">
        <ele>204</ele>
        <time>2021-07-30T12:18:56Z</time>
      </trkpt>
      <trkpt lat="48.78661" lon="6.61393">
        <ele>203.9</ele>
        <time>2021-07-30T12:18:57Z</time>
      </trkpt>
      <trkpt lat="48.78656" lon="6.61395">
        <ele>203.8</ele>
        <time>2021-07-30T12:18:58Z</time>
      </trkpt>
      <trkpt lat="48.78652" lon="6.61396">
        <ele>203.8</ele>
        <time>2021-07-30T12:18:59Z</time>
      </trkpt>
      <trkpt lat="48.78646" lon="6.61399">
        <ele>203.7</ele>
        <time>2021-07-30T12:19:01Z</time>
      </trkpt>
      <trkpt lat="48.78639" lon="6.61403">
        <ele>203.6</ele>
        <time>2021-07-30T12:19:02Z</time>
      </trkpt>
      <trkpt lat="48.78634" lon="6.61404">
        <ele>203.6</ele>
        <time>2021-07-30T12:19:03Z</time>
      </trkpt>
      <trkpt lat="48.78629" lon="6.61405">
        <ele>203.6</ele>
        <time>2021-07-30T12:19:04Z</time>
      </trkpt>
      <trkpt lat="48.7862" lon="6.61408">
        <ele>203.6</ele>
        <time>2021-07-30T12:19:06Z</time>
      </trkpt>
      <trkpt lat="48.78616" lon="6.61409">
        <ele>203.7</ele>
        <time>2021-07-30T12:19:07Z</time>
      </trkpt>
      <trkpt lat="48.78609" lon="6.61411">
        <ele>203.7</ele>
        <time>2021-07-30T12:19:09Z</time>
      </trkpt>
      <trkpt lat="48.78603" lon="6.61415">
        <ele>203.9</ele>
        <time>2021-07-30T12:19:11Z</time>
      </trkpt>
      <trkpt lat="48.78601" lon="6.61418">
        <ele>203.9</ele>
        <time>2021-07-30T12:19:12Z</time>
      </trkpt>
      <trkpt lat="48.78598" lon="6.6142">
        <ele>204</ele>
        <time>2021-07-30T12:19:13Z</time>
      </trkpt>
      <trkpt lat="48.78593" lon="6.61422">
        <ele>204.1</ele>
        <time>2021-07-30T12:19:15Z</time>
      </trkpt>
      <trkpt lat="48.7859" lon="6.61423">
        <ele>204.1</ele>
        <time>2021-07-30T12:19:16Z</time>
      </trkpt>
      <trkpt lat="48.78586" lon="6.61426">
        <ele>204.2</ele>
        <time>2021-07-30T12:19:17Z</time>
      </trkpt>
      <trkpt lat="48.78582" lon="6.6143">
        <ele>204.3</ele>
        <time>2021-07-30T12:19:18Z</time>
      </trkpt>
      <trkpt lat="48.78577" lon="6.61432">
        <ele>204.4</ele>
        <time>2021-07-30T12:19:19Z</time>
      </trkpt>
      <trkpt lat="48.78574" lon="6.61434">
        <ele>204.5</ele>
        <time>2021-07-30T12:19:20Z</time>
      </trkpt>
      <trkpt lat="48.78571" lon="6.61438">
        <ele>204.6</ele>
        <time>2021-07-30T12:19:21Z</time>
      </trkpt>
      <trkpt lat="48.78568" lon="6.61441">
        <ele>204.7</ele>
        <time>2021-07-30T12:19:22Z</time>
      </trkpt>
      <trkpt lat="48.78564" lon="6.61444">
        <ele>204.9</ele>
        <time>2021-07-30T12:19:23Z</time>
      </trkpt>
      <trkpt lat="48.7856" lon="6.61446">
        <ele>205</ele>
        <time>2021-07-30T12:19:24Z</time>
      </trkpt>
      <trkpt lat="48.78556" lon="6.61449">
        <ele>205.1</ele>
        <time>2021-07-30T12:19:25Z</time>
      </trkpt>
      <trkpt lat="48.78552" lon="6.61452">
        <ele>205.2</ele>
        <time>2021-07-30T12:19:26Z</time>
      </trkpt>
      <trkpt lat="48.78544" lon="6.61458">
        <ele>205.3</ele>
        <time>2021-07-30T12:19:28Z</time>
      </trkpt>
      <trkpt lat="48.78541" lon="6.6146">
        <ele>205.4</ele>
        <time>2021-07-30T12:19:29Z</time>
      </trkpt>
      <trkpt lat="48.78536" lon="6.61464">
        <ele>205.4</ele>
        <time>2021-07-30T12:19:31Z</time>
      </trkpt>
      <trkpt lat="48.78531" lon="6.61468">
        <ele>205.5</ele>
        <time>2021-07-30T12:19:32Z</time>
      </trkpt>
      <trkpt lat="48.78526" lon="6.61473">
        <ele>205.6</ele>
        <time>2021-07-30T12:19:33Z</time>
      </trkpt>
      <trkpt lat="48.78521" lon="6.61477">
        <ele>205.7</ele>
        <time>2021-07-30T12:19:34Z</time>
      </trkpt>
      <trkpt lat="48.78516" lon="6.61481">
        <ele>205.8</ele>
        <time>2021-07-30T12:19:35Z</time>
      </trkpt>
      <trkpt lat="48.78507" lon="6.61484">
        <ele>206</ele>
        <time>2021-07-30T12:19:37Z</time>
      </trkpt>
      <trkpt lat="48.78504" lon="6.61484">
        <ele>206</ele>
        <time>2021-07-30T12:19:38Z</time>
      </trkpt>
      <trkpt lat="48.78501" lon="6.61485">
        <ele>206.1</ele>
        <time>2021-07-30T12:19:39Z</time>
      </trkpt>
      <trkpt lat="48.78498" lon="6.61487">
        <ele>206.1</ele>
        <time>2021-07-30T12:19:40Z</time>
      </trkpt>
      <trkpt lat="48.78495" lon="6.61489">
        <ele>206.2</ele>
        <time>2021-07-30T12:19:41Z</time>
      </trkpt>
      <trkpt lat="48.78491" lon="6.6149">
        <ele>206.3</ele>
        <time>2021-07-30T12:19:42Z</time>
      </trkpt>
      <trkpt lat="48.7849" lon="6.6149">
        <ele>206.3</ele>
        <time>2021-07-30T12:19:43Z</time>
      </trkpt>
      <trkpt lat="48.78484" lon="6.61494">
        <ele>206.5</ele>
        <time>2021-07-30T12:19:45Z</time>
      </trkpt>
      <trkpt lat="48.7848" lon="6.61495">
        <ele>206.6</ele>
        <time>2021-07-30T12:19:47Z</time>
      </trkpt>
      <trkpt lat="48.78475" lon="6.61497">
        <ele>206.7</ele>
        <time>2021-07-30T12:19:48Z</time>
      </trkpt>
      <trkpt lat="48.78472" lon="6.615">
        <ele>206.8</ele>
        <time>2021-07-30T12:19:49Z</time>
      </trkpt>
      <trkpt lat="48.78471" lon="6.61501">
        <ele>206.8</ele>
        <time>2021-07-30T12:19:50Z</time>
      </trkpt>
      <trkpt lat="48.78468" lon="6.61505">
        <ele>207</ele>
        <time>2021-07-30T12:19:51Z</time>
      </trkpt>
      <trkpt lat="48.78466" lon="6.61506">
        <ele>207</ele>
        <time>2021-07-30T12:19:52Z</time>
      </trkpt>
      <trkpt lat="48.78462" lon="6.61513">
        <ele>207.2</ele>
        <time>2021-07-30T12:19:54Z</time>
      </trkpt>
      <trkpt lat="48.7846" lon="6.61522">
        <ele>207.4</ele>
        <time>2021-07-30T12:19:56Z</time>
      </trkpt>
      <trkpt lat="48.7846" lon="6.61527">
        <ele>207.7</ele>
        <time>2021-07-30T12:19:57Z</time>
      </trkpt>
      <trkpt lat="48.78461" lon="6.61531">
        <ele>207.7</ele>
        <time>2021-07-30T12:19:58Z</time>
      </trkpt>
      <trkpt lat="48.78461" lon="6.61537">
        <ele>207.7</ele>
        <time>2021-07-30T12:19:59Z</time>
      </trkpt>
      <trkpt lat="48.78462" lon="6.61543">
        <ele>207.7</ele>
        <time>2021-07-30T12:20:01Z</time>
      </trkpt>
      <trkpt lat="48.78463" lon="6.6155">
        <ele>207.7</ele>
        <time>2021-07-30T12:20:02Z</time>
      </trkpt>
      <trkpt lat="48.78463" lon="6.61556">
        <ele>207.7</ele>
        <time>2021-07-30T12:20:03Z</time>
      </trkpt>
      <trkpt lat="48.78464" lon="6.61569">
        <ele>207.7</ele>
        <time>2021-07-30T12:20:05Z</time>
      </trkpt>
      <trkpt lat="48.78464" lon="6.61576">
        <ele>207.7</ele>
        <time>2021-07-30T12:20:06Z</time>
      </trkpt>
      <trkpt lat="48.78464" lon="6.61583">
        <ele>207.7</ele>
        <time>2021-07-30T12:20:07Z</time>
      </trkpt>
      <trkpt lat="48.78463" lon="6.61589">
        <ele>207.8</ele>
        <time>2021-07-30T12:20:08Z</time>
      </trkpt>
      <trkpt lat="48.78462" lon="6.61599">
        <ele>207.8</ele>
        <time>2021-07-30T12:20:10Z</time>
      </trkpt>
      <trkpt lat="48.78461" lon="6.61605">
        <ele>207.9</ele>
        <time>2021-07-30T12:20:11Z</time>
      </trkpt>
      <trkpt lat="48.7846" lon="6.61611">
        <ele>207.9</ele>
        <time>2021-07-30T12:20:12Z</time>
      </trkpt>
      <trkpt lat="48.78459" lon="6.61617">
        <ele>208</ele>
        <time>2021-07-30T12:20:13Z</time>
      </trkpt>
      <trkpt lat="48.78459" lon="6.6163">
        <ele>208.1</ele>
        <time>2021-07-30T12:20:15Z</time>
      </trkpt>
      <trkpt lat="48.78458" lon="6.61638">
        <ele>208.1</ele>
        <time>2021-07-30T12:20:16Z</time>
      </trkpt>
      <trkpt lat="48.78457" lon="6.61644">
        <ele>208.1</ele>
        <time>2021-07-30T12:20:17Z</time>
      </trkpt>
      <trkpt lat="48.78454" lon="6.61658">
        <ele>208.2</ele>
        <time>2021-07-30T12:20:19Z</time>
      </trkpt>
      <trkpt lat="48.7845" lon="6.61668">
        <ele>208.3</ele>
        <time>2021-07-30T12:20:21Z</time>
      </trkpt>
      <trkpt lat="48.78448" lon="6.61681">
        <ele>208.4</ele>
        <time>2021-07-30T12:20:23Z</time>
      </trkpt>
      <trkpt lat="48.78446" lon="6.61693">
        <ele>208.5</ele>
        <time>2021-07-30T12:20:25Z</time>
      </trkpt>
      <trkpt lat="48.78446" lon="6.61701">
        <ele>208.6</ele>
        <time>2021-07-30T12:20:27Z</time>
      </trkpt>
      <trkpt lat="48.78445" lon="6.61707">
        <ele>208.7</ele>
        <time>2021-07-30T12:20:28Z</time>
      </trkpt>
      <trkpt lat="48.78445" lon="6.61711">
        <ele>208.7</ele>
        <time>2021-07-30T12:20:29Z</time>
      </trkpt>
      <trkpt lat="48.78445" lon="6.61717">
        <ele>208.8</ele>
        <time>2021-07-30T12:20:31Z</time>
      </trkpt>
      <trkpt lat="48.78444" lon="6.61726">
        <ele>208.9</ele>
        <time>2021-07-30T12:20:32Z</time>
      </trkpt>
      <trkpt lat="48.78445" lon="6.61735">
        <ele>208.9</ele>
        <time>2021-07-30T12:20:34Z</time>
      </trkpt>
      <trkpt lat="48.78445" lon="6.61745">
        <ele>209</ele>
        <time>2021-07-30T12:20:35Z</time>
      </trkpt>
      <trkpt lat="48.78447" lon="6.61756">
        <ele>209.2</ele>
        <time>2021-07-30T12:20:36Z</time>
      </trkpt>
      <trkpt lat="48.78448" lon="6.61761">
        <ele>209.2</ele>
        <time>2021-07-30T12:20:37Z</time>
      </trkpt>
      <trkpt lat="48.78448" lon="6.61768">
        <ele>209.3</ele>
        <time>2021-07-30T12:20:39Z</time>
      </trkpt>
      <trkpt lat="48.78448" lon="6.61774">
        <ele>209.4</ele>
        <time>2021-07-30T12:20:40Z</time>
      </trkpt>
      <trkpt lat="48.78448" lon="6.6178">
        <ele>209.5</ele>
        <time>2021-07-30T12:20:41Z</time>
      </trkpt>
      <trkpt lat="48.78448" lon="6.61789">
        <ele>209.6</ele>
        <time>2021-07-30T12:20:42Z</time>
      </trkpt>
      <trkpt lat="48.78448" lon="6.61794">
        <ele>209.7</ele>
        <time>2021-07-30T12:20:43Z</time>
      </trkpt>
      <trkpt lat="48.78448" lon="6.618">
        <ele>209.8</ele>
        <time>2021-07-30T12:20:44Z</time>
      </trkpt>
      <trkpt lat="48.7845" lon="6.61808">
        <ele>209.9</ele>
        <time>2021-07-30T12:20:46Z</time>
      </trkpt>
      <trkpt lat="48.78451" lon="6.61815">
        <ele>209.9</ele>
        <time>2021-07-30T12:20:47Z</time>
      </trkpt>
      <trkpt lat="48.78452" lon="6.61823">
        <ele>210</ele>
        <time>2021-07-30T12:20:49Z</time>
      </trkpt>
      <trkpt lat="48.78452" lon="6.61828">
        <ele>210</ele>
        <time>2021-07-30T12:20:50Z</time>
      </trkpt>
      <trkpt lat="48.78454" lon="6.61836">
        <ele>210</ele>
        <time>2021-07-30T12:20:52Z</time>
      </trkpt>
      <trkpt lat="48.78456" lon="6.6184">
        <ele>209.9</ele>
        <time>2021-07-30T12:20:53Z</time>
      </trkpt>
      <trkpt lat="48.78457" lon="6.61846">
        <ele>209.9</ele>
        <time>2021-07-30T12:20:54Z</time>
      </trkpt>
      <trkpt lat="48.7846" lon="6.61859">
        <ele>209.7</ele>
        <time>2021-07-30T12:20:56Z</time>
      </trkpt>
      <trkpt lat="48.78464" lon="6.61876">
        <ele>209.2</ele>
        <time>2021-07-30T12:20:58Z</time>
      </trkpt>
      <trkpt lat="48.78466" lon="6.61884">
        <ele>209</ele>
        <time>2021-07-30T12:20:59Z</time>
      </trkpt>
      <trkpt lat="48.7847" lon="6.61901">
        <ele>208.6</ele>
        <time>2021-07-30T12:21:01Z</time>
      </trkpt>
      <trkpt lat="48.78473" lon="6.6192">
        <ele>208.2</ele>
        <time>2021-07-30T12:21:03Z</time>
      </trkpt>
      <trkpt lat="48.78475" lon="6.61929">
        <ele>208</ele>
        <time>2021-07-30T12:21:04Z</time>
      </trkpt>
      <trkpt lat="48.78479" lon="6.61948">
        <ele>207.6</ele>
        <time>2021-07-30T12:21:06Z</time>
      </trkpt>
      <trkpt lat="48.7848" lon="6.61959">
        <ele>207.4</ele>
        <time>2021-07-30T12:21:07Z</time>
      </trkpt>
      <trkpt lat="48.78484" lon="6.6198">
        <ele>206.9</ele>
        <time>2021-07-30T12:21:09Z</time>
      </trkpt>
      <trkpt lat="48.78487" lon="6.61991">
        <ele>206.7</ele>
        <time>2021-07-30T12:21:10Z</time>
      </trkpt>
      <trkpt lat="48.78493" lon="6.62011">
        <ele>206.4</ele>
        <time>2021-07-30T12:21:12Z</time>
      </trkpt>
      <trkpt lat="48.78494" lon="6.62022">
        <ele>206.2</ele>
        <time>2021-07-30T12:21:13Z</time>
      </trkpt>
      <trkpt lat="48.78497" lon="6.62041">
        <ele>205.9</ele>
        <time>2021-07-30T12:21:15Z</time>
      </trkpt>
      <trkpt lat="48.78502" lon="6.6206">
        <ele>205.5</ele>
        <time>2021-07-30T12:21:17Z</time>
      </trkpt>
      <trkpt lat="48.78508" lon="6.62081">
        <ele>205.2</ele>
        <time>2021-07-30T12:21:19Z</time>
      </trkpt>
      <trkpt lat="48.78512" lon="6.62091">
        <ele>205</ele>
        <time>2021-07-30T12:21:20Z</time>
      </trkpt>
      <trkpt lat="48.78516" lon="6.62112">
        <ele>204.8</ele>
        <time>2021-07-30T12:21:22Z</time>
      </trkpt>
      <trkpt lat="48.78519" lon="6.62122">
        <ele>204.6</ele>
        <time>2021-07-30T12:21:24Z</time>
      </trkpt>
      <trkpt lat="48.78525" lon="6.62143">
        <ele>204.4</ele>
        <time>2021-07-30T12:21:25Z</time>
      </trkpt>
      <trkpt lat="48.78529" lon="6.62164">
        <ele>204.2</ele>
        <time>2021-07-30T12:21:27Z</time>
      </trkpt>
      <trkpt lat="48.78533" lon="6.62182">
        <ele>204.1</ele>
        <time>2021-07-30T12:21:29Z</time>
      </trkpt>
      <trkpt lat="48.78535" lon="6.62191">
        <ele>204.1</ele>
        <time>2021-07-30T12:21:30Z</time>
      </trkpt>
      <trkpt lat="48.78536" lon="6.622">
        <ele>204</ele>
        <time>2021-07-30T12:21:31Z</time>
      </trkpt>
      <trkpt lat="48.78539" lon="6.62217">
        <ele>204</ele>
        <time>2021-07-30T12:21:33Z</time>
      </trkpt>
      <trkpt lat="48.78543" lon="6.62232">
        <ele>203.8</ele>
        <time>2021-07-30T12:21:35Z</time>
      </trkpt>
      <trkpt lat="48.78547" lon="6.62247">
        <ele>203.7</ele>
        <time>2021-07-30T12:21:38Z</time>
      </trkpt>
      <trkpt lat="48.78551" lon="6.62261">
        <ele>203.6</ele>
        <time>2021-07-30T12:21:39Z</time>
      </trkpt>
      <trkpt lat="48.78553" lon="6.62269">
        <ele>203.5</ele>
        <time>2021-07-30T12:21:40Z</time>
      </trkpt>
      <trkpt lat="48.78555" lon="6.62276">
        <ele>203.4</ele>
        <time>2021-07-30T12:21:41Z</time>
      </trkpt>
      <trkpt lat="48.78557" lon="6.62283">
        <ele>203.4</ele>
        <time>2021-07-30T12:21:42Z</time>
      </trkpt>
      <trkpt lat="48.78559" lon="6.6229">
        <ele>203.3</ele>
        <time>2021-07-30T12:21:43Z</time>
      </trkpt>
      <trkpt lat="48.78563" lon="6.62305">
        <ele>203.2</ele>
        <time>2021-07-30T12:21:46Z</time>
      </trkpt>
      <trkpt lat="48.78565" lon="6.62319">
        <ele>203.1</ele>
        <time>2021-07-30T12:21:47Z</time>
      </trkpt>
      <trkpt lat="48.78567" lon="6.62326">
        <ele>203.1</ele>
        <time>2021-07-30T12:21:48Z</time>
      </trkpt>
      <trkpt lat="48.78569" lon="6.62333">
        <ele>203</ele>
        <time>2021-07-30T12:21:49Z</time>
      </trkpt>
      <trkpt lat="48.78571" lon="6.62344">
        <ele>203</ele>
        <time>2021-07-30T12:21:51Z</time>
      </trkpt>
      <trkpt lat="48.78572" lon="6.62352">
        <ele>203</ele>
        <time>2021-07-30T12:21:52Z</time>
      </trkpt>
      <trkpt lat="48.78573" lon="6.62357">
        <ele>202.9</ele>
        <time>2021-07-30T12:21:53Z</time>
      </trkpt>
      <trkpt lat="48.78575" lon="6.62364">
        <ele>202.9</ele>
        <time>2021-07-30T12:21:54Z</time>
      </trkpt>
      <trkpt lat="48.78578" lon="6.6237">
        <ele>202.8</ele>
        <time>2021-07-30T12:21:55Z</time>
      </trkpt>
      <trkpt lat="48.78584" lon="6.62384">
        <ele>202.6</ele>
        <time>2021-07-30T12:21:57Z</time>
      </trkpt>
      <trkpt lat="48.78587" lon="6.62392">
        <ele>202.4</ele>
        <time>2021-07-30T12:21:58Z</time>
      </trkpt>
      <trkpt lat="48.78589" lon="6.62401">
        <ele>202.3</ele>
        <time>2021-07-30T12:21:59Z</time>
      </trkpt>
      <trkpt lat="48.7859" lon="6.62419">
        <ele>202.2</ele>
        <time>2021-07-30T12:22:01Z</time>
      </trkpt>
      <trkpt lat="48.78589" lon="6.62429">
        <ele>202.2</ele>
        <time>2021-07-30T12:22:02Z</time>
      </trkpt>
      <trkpt lat="48.78588" lon="6.62439">
        <ele>202.2</ele>
        <time>2021-07-30T12:22:03Z</time>
      </trkpt>
      <trkpt lat="48.78587" lon="6.62454">
        <ele>202.1</ele>
        <time>2021-07-30T12:22:05Z</time>
      </trkpt>
      <trkpt lat="48.78587" lon="6.62462">
        <ele>202.1</ele>
        <time>2021-07-30T12:22:06Z</time>
      </trkpt>
      <trkpt lat="48.78586" lon="6.6247">
        <ele>202.1</ele>
        <time>2021-07-30T12:22:07Z</time>
      </trkpt>
      <trkpt lat="48.78585" lon="6.62487">
        <ele>202</ele>
        <time>2021-07-30T12:22:09Z</time>
      </trkpt>
      <trkpt lat="48.78585" lon="6.62502">
        <ele>202</ele>
        <time>2021-07-30T12:22:11Z</time>
      </trkpt>
      <trkpt lat="48.78582" lon="6.62512">
        <ele>202</ele>
        <time>2021-07-30T12:22:12Z</time>
      </trkpt>
      <trkpt lat="48.78579" lon="6.62522">
        <ele>202</ele>
        <time>2021-07-30T12:22:13Z</time>
      </trkpt>
      <trkpt lat="48.78577" lon="6.62532">
        <ele>201.9</ele>
        <time>2021-07-30T12:22:15Z</time>
      </trkpt>
      <trkpt lat="48.78573" lon="6.62551">
        <ele>202</ele>
        <time>2021-07-30T12:22:16Z</time>
      </trkpt>
      <trkpt lat="48.78572" lon="6.6256">
        <ele>202</ele>
        <time>2021-07-30T12:22:17Z</time>
      </trkpt>
      <trkpt lat="48.78571" lon="6.62568">
        <ele>202.1</ele>
        <time>2021-07-30T12:22:18Z</time>
      </trkpt>
      <trkpt lat="48.7857" lon="6.62577">
        <ele>202.1</ele>
        <time>2021-07-30T12:22:19Z</time>
      </trkpt>
      <trkpt lat="48.78569" lon="6.62595">
        <ele>202.2</ele>
        <time>2021-07-30T12:22:21Z</time>
      </trkpt>
      <trkpt lat="48.78569" lon="6.62615">
        <ele>202.4</ele>
        <time>2021-07-30T12:22:23Z</time>
      </trkpt>
      <trkpt lat="48.78567" lon="6.62634">
        <ele>202.5</ele>
        <time>2021-07-30T12:22:25Z</time>
      </trkpt>
      <trkpt lat="48.78567" lon="6.62652">
        <ele>202.8</ele>
        <time>2021-07-30T12:22:27Z</time>
      </trkpt>
      <trkpt lat="48.78566" lon="6.62663">
        <ele>203</ele>
        <time>2021-07-30T12:22:28Z</time>
      </trkpt>
      <trkpt lat="48.78565" lon="6.6268">
        <ele>203.3</ele>
        <time>2021-07-30T12:22:30Z</time>
      </trkpt>
      <trkpt lat="48.78566" lon="6.62689">
        <ele>203.5</ele>
        <time>2021-07-30T12:22:31Z</time>
      </trkpt>
      <trkpt lat="48.78564" lon="6.62705">
        <ele>203.9</ele>
        <time>2021-07-30T12:22:33Z</time>
      </trkpt>
      <trkpt lat="48.78563" lon="6.62712">
        <ele>204.1</ele>
        <time>2021-07-30T12:22:34Z</time>
      </trkpt>
      <trkpt lat="48.78564" lon="6.62722">
        <ele>204.4</ele>
        <time>2021-07-30T12:22:36Z</time>
      </trkpt>
      <trkpt lat="48.78566" lon="6.62729">
        <ele>204.6</ele>
        <time>2021-07-30T12:22:37Z</time>
      </trkpt>
      <trkpt lat="48.78567" lon="6.62743">
        <ele>205</ele>
        <time>2021-07-30T12:22:39Z</time>
      </trkpt>
      <trkpt lat="48.78567" lon="6.62751">
        <ele>205.3</ele>
        <time>2021-07-30T12:22:41Z</time>
      </trkpt>
      <trkpt lat="48.78569" lon="6.62758">
        <ele>205.5</ele>
        <time>2021-07-30T12:22:42Z</time>
      </trkpt>
      <trkpt lat="48.78568" lon="6.62764">
        <ele>205.7</ele>
        <time>2021-07-30T12:22:43Z</time>
      </trkpt>
      <trkpt lat="48.78566" lon="6.62774">
        <ele>206.1</ele>
        <time>2021-07-30T12:22:45Z</time>
      </trkpt>
      <trkpt lat="48.78565" lon="6.62782">
        <ele>206.3</ele>
        <time>2021-07-30T12:22:46Z</time>
      </trkpt>
      <trkpt lat="48.78564" lon="6.62789">
        <ele>206.6</ele>
        <time>2021-07-30T12:22:47Z</time>
      </trkpt>
      <trkpt lat="48.78562" lon="6.62795">
        <ele>206.8</ele>
        <time>2021-07-30T12:22:48Z</time>
      </trkpt>
      <trkpt lat="48.7856" lon="6.62801">
        <ele>207</ele>
        <time>2021-07-30T12:22:49Z</time>
      </trkpt>
      <trkpt lat="48.78558" lon="6.62808">
        <ele>207.2</ele>
        <time>2021-07-30T12:22:51Z</time>
      </trkpt>
      <trkpt lat="48.78557" lon="6.62813">
        <ele>207.3</ele>
        <time>2021-07-30T12:22:52Z</time>
      </trkpt>
      <trkpt lat="48.78557" lon="6.62818">
        <ele>207.4</ele>
        <time>2021-07-30T12:22:53Z</time>
      </trkpt>
      <trkpt lat="48.78556" lon="6.62823">
        <ele>207.5</ele>
        <time>2021-07-30T12:22:54Z</time>
      </trkpt>
      <trkpt lat="48.78555" lon="6.62827">
        <ele>207.6</ele>
        <time>2021-07-30T12:22:55Z</time>
      </trkpt>
      <trkpt lat="48.78554" lon="6.62833">
        <ele>207.7</ele>
        <time>2021-07-30T12:22:57Z</time>
      </trkpt>
      <trkpt lat="48.78553" lon="6.62837">
        <ele>207.8</ele>
        <time>2021-07-30T12:22:58Z</time>
      </trkpt>
      <trkpt lat="48.78552" lon="6.62841">
        <ele>207.9</ele>
        <time>2021-07-30T12:22:59Z</time>
      </trkpt>
      <trkpt lat="48.78551" lon="6.62846">
        <ele>208</ele>
        <time>2021-07-30T12:23:00Z</time>
      </trkpt>
      <trkpt lat="48.7855" lon="6.62856">
        <ele>208.2</ele>
        <time>2021-07-30T12:23:02Z</time>
      </trkpt>
      <trkpt lat="48.78549" lon="6.62862">
        <ele>208.3</ele>
        <time>2021-07-30T12:23:04Z</time>
      </trkpt>
      <trkpt lat="48.78548" lon="6.62867">
        <ele>208.5</ele>
        <time>2021-07-30T12:23:05Z</time>
      </trkpt>
      <trkpt lat="48.78547" lon="6.62873">
        <ele>208.6</ele>
        <time>2021-07-30T12:23:06Z</time>
      </trkpt>
      <trkpt lat="48.78546" lon="6.62879">
        <ele>208.7</ele>
        <time>2021-07-30T12:23:07Z</time>
      </trkpt>
      <trkpt lat="48.78546" lon="6.62884">
        <ele>208.8</ele>
        <time>2021-07-30T12:23:08Z</time>
      </trkpt>
      <trkpt lat="48.78545" lon="6.62888">
        <ele>208.8</ele>
        <time>2021-07-30T12:23:09Z</time>
      </trkpt>
      <trkpt lat="48.78544" lon="6.62894">
        <ele>208.9</ele>
        <time>2021-07-30T12:23:10Z</time>
      </trkpt>
      <trkpt lat="48.78544" lon="6.62898">
        <ele>208.9</ele>
        <time>2021-07-30T12:23:11Z</time>
      </trkpt>
      <trkpt lat="48.78545" lon="6.62904">
        <ele>209</ele>
        <time>2021-07-30T12:23:13Z</time>
      </trkpt>
      <trkpt lat="48.78544" lon="6.6291">
        <ele>209</ele>
        <time>2021-07-30T12:23:14Z</time>
      </trkpt>
      <trkpt lat="48.78542" lon="6.62915">
        <ele>209.1</ele>
        <time>2021-07-30T12:23:15Z</time>
      </trkpt>
      <trkpt lat="48.78539" lon="6.62922">
        <ele>209.1</ele>
        <time>2021-07-30T12:23:17Z</time>
      </trkpt>
      <trkpt lat="48.78537" lon="6.6293">
        <ele>209.2</ele>
        <time>2021-07-30T12:23:18Z</time>
      </trkpt>
      <trkpt lat="48.78536" lon="6.62937">
        <ele>209.2</ele>
        <time>2021-07-30T12:23:19Z</time>
      </trkpt>
      <trkpt lat="48.78534" lon="6.62941">
        <ele>209.3</ele>
        <time>2021-07-30T12:23:20Z</time>
      </trkpt>
      <trkpt lat="48.78533" lon="6.62946">
        <ele>209.3</ele>
        <time>2021-07-30T12:23:21Z</time>
      </trkpt>
      <trkpt lat="48.78532" lon="6.62951">
        <ele>209.3</ele>
        <time>2021-07-30T12:23:22Z</time>
      </trkpt>
      <trkpt lat="48.78531" lon="6.62961">
        <ele>209.3</ele>
        <time>2021-07-30T12:23:24Z</time>
      </trkpt>
      <trkpt lat="48.78529" lon="6.62967">
        <ele>209.4</ele>
        <time>2021-07-30T12:23:25Z</time>
      </trkpt>
      <trkpt lat="48.78528" lon="6.62973">
        <ele>209.4</ele>
        <time>2021-07-30T12:23:26Z</time>
      </trkpt>
      <trkpt lat="48.78527" lon="6.62978">
        <ele>209.4</ele>
        <time>2021-07-30T12:23:27Z</time>
      </trkpt>
      <trkpt lat="48.78527" lon="6.62982">
        <ele>209.4</ele>
        <time>2021-07-30T12:23:28Z</time>
      </trkpt>
      <trkpt lat="48.78527" lon="6.62986">
        <ele>209.5</ele>
        <time>2021-07-30T12:23:29Z</time>
      </trkpt>
      <trkpt lat="48.78527" lon="6.62993">
        <ele>209.5</ele>
        <time>2021-07-30T12:23:30Z</time>
      </trkpt>
      <trkpt lat="48.78527" lon="6.62997">
        <ele>209.5</ele>
        <time>2021-07-30T12:23:31Z</time>
      </trkpt>
      <trkpt lat="48.78526" lon="6.63007">
        <ele>209.5</ele>
        <time>2021-07-30T12:23:34Z</time>
      </trkpt>
      <trkpt lat="48.78527" lon="6.63017">
        <ele>209.5</ele>
        <time>2021-07-30T12:23:35Z</time>
      </trkpt>
      <trkpt lat="48.78528" lon="6.63023">
        <ele>209.4</ele>
        <time>2021-07-30T12:23:36Z</time>
      </trkpt>
      <trkpt lat="48.78531" lon="6.63032">
        <ele>209.4</ele>
        <time>2021-07-30T12:23:37Z</time>
      </trkpt>
      <trkpt lat="48.78533" lon="6.63042">
        <ele>209.3</ele>
        <time>2021-07-30T12:23:39Z</time>
      </trkpt>
      <trkpt lat="48.78534" lon="6.6305">
        <ele>209.3</ele>
        <time>2021-07-30T12:23:40Z</time>
      </trkpt>
      <trkpt lat="48.78535" lon="6.63057">
        <ele>209.2</ele>
        <time>2021-07-30T12:23:41Z</time>
      </trkpt>
      <trkpt lat="48.78536" lon="6.63065">
        <ele>209.1</ele>
        <time>2021-07-30T12:23:42Z</time>
      </trkpt>
      <trkpt lat="48.78538" lon="6.63074">
        <ele>209</ele>
        <time>2021-07-30T12:23:44Z</time>
      </trkpt>
      <trkpt lat="48.78542" lon="6.63089">
        <ele>208.7</ele>
        <time>2021-07-30T12:23:45Z</time>
      </trkpt>
      <trkpt lat="48.78546" lon="6.63105">
        <ele>208.4</ele>
        <time>2021-07-30T12:23:47Z</time>
      </trkpt>
      <trkpt lat="48.78548" lon="6.63114">
        <ele>208.3</ele>
        <time>2021-07-30T12:23:48Z</time>
      </trkpt>
      <trkpt lat="48.7855" lon="6.63122">
        <ele>208.1</ele>
        <time>2021-07-30T12:23:50Z</time>
      </trkpt>
      <trkpt lat="48.78555" lon="6.63139">
        <ele>207.8</ele>
        <time>2021-07-30T12:23:51Z</time>
      </trkpt>
      <trkpt lat="48.78557" lon="6.63147">
        <ele>207.6</ele>
        <time>2021-07-30T12:23:52Z</time>
      </trkpt>
      <trkpt lat="48.7856" lon="6.63157">
        <ele>207.3</ele>
        <time>2021-07-30T12:23:53Z</time>
      </trkpt>
      <trkpt lat="48.78565" lon="6.63176">
        <ele>206.9</ele>
        <time>2021-07-30T12:23:56Z</time>
      </trkpt>
      <trkpt lat="48.78571" lon="6.63197">
        <ele>206.5</ele>
        <time>2021-07-30T12:23:57Z</time>
      </trkpt>
      <trkpt lat="48.78574" lon="6.63207">
        <ele>206.3</ele>
        <time>2021-07-30T12:23:58Z</time>
      </trkpt>
      <trkpt lat="48.78581" lon="6.63227">
        <ele>206</ele>
        <time>2021-07-30T12:24:00Z</time>
      </trkpt>
      <trkpt lat="48.78585" lon="6.63237">
        <ele>205.9</ele>
        <time>2021-07-30T12:24:01Z</time>
      </trkpt>
      <trkpt lat="48.78592" lon="6.63255">
        <ele>205.7</ele>
        <time>2021-07-30T12:24:03Z</time>
      </trkpt>
      <trkpt lat="48.78595" lon="6.63263">
        <ele>205.6</ele>
        <time>2021-07-30T12:24:04Z</time>
      </trkpt>
      <trkpt lat="48.78599" lon="6.63271">
        <ele>205.5</ele>
        <time>2021-07-30T12:24:05Z</time>
      </trkpt>
      <trkpt lat="48.78605" lon="6.63287">
        <ele>205.4</ele>
        <time>2021-07-30T12:24:07Z</time>
      </trkpt>
      <trkpt lat="48.78611" lon="6.63302">
        <ele>205.3</ele>
        <time>2021-07-30T12:24:09Z</time>
      </trkpt>
      <trkpt lat="48.78614" lon="6.63309">
        <ele>205.2</ele>
        <time>2021-07-30T12:24:10Z</time>
      </trkpt>
      <trkpt lat="48.78617" lon="6.63316">
        <ele>205.2</ele>
        <time>2021-07-30T12:24:11Z</time>
      </trkpt>
      <trkpt lat="48.78621" lon="6.6333">
        <ele>205</ele>
        <time>2021-07-30T12:24:13Z</time>
      </trkpt>
      <trkpt lat="48.78626" lon="6.63344">
        <ele>204.9</ele>
        <time>2021-07-30T12:24:15Z</time>
      </trkpt>
      <trkpt lat="48.78631" lon="6.63358">
        <ele>204.8</ele>
        <time>2021-07-30T12:24:17Z</time>
      </trkpt>
      <trkpt lat="48.78638" lon="6.63371">
        <ele>204.7</ele>
        <time>2021-07-30T12:24:19Z</time>
      </trkpt>
      <trkpt lat="48.78644" lon="6.63384">
        <ele>204.6</ele>
        <time>2021-07-30T12:24:21Z</time>
      </trkpt>
      <trkpt lat="48.7865" lon="6.63396">
        <ele>204.4</ele>
        <time>2021-07-30T12:24:23Z</time>
      </trkpt>
      <trkpt lat="48.78656" lon="6.63409">
        <ele>204.3</ele>
        <time>2021-07-30T12:24:25Z</time>
      </trkpt>
      <trkpt lat="48.7866" lon="6.63419">
        <ele>204.2</ele>
        <time>2021-07-30T12:24:27Z</time>
      </trkpt>
      <trkpt lat="48.78662" lon="6.63427">
        <ele>204.1</ele>
        <time>2021-07-30T12:24:28Z</time>
      </trkpt>
      <trkpt lat="48.78666" lon="6.63441">
        <ele>204</ele>
        <time>2021-07-30T12:24:30Z</time>
      </trkpt>
      <trkpt lat="48.78668" lon="6.63448">
        <ele>203.9</ele>
        <time>2021-07-30T12:24:31Z</time>
      </trkpt>
      <trkpt lat="48.7867" lon="6.63462">
        <ele>203.9</ele>
        <time>2021-07-30T12:24:33Z</time>
      </trkpt>
      <trkpt lat="48.78671" lon="6.6347">
        <ele>203.8</ele>
        <time>2021-07-30T12:24:34Z</time>
      </trkpt>
      <trkpt lat="48.78673" lon="6.63485">
        <ele>203.8</ele>
        <time>2021-07-30T12:24:36Z</time>
      </trkpt>
      <trkpt lat="48.78674" lon="6.63492">
        <ele>203.7</ele>
        <time>2021-07-30T12:24:37Z</time>
      </trkpt>
      <trkpt lat="48.78675" lon="6.63499">
        <ele>203.7</ele>
        <time>2021-07-30T12:24:38Z</time>
      </trkpt>
      <trkpt lat="48.78678" lon="6.63515">
        <ele>203.6</ele>
        <time>2021-07-30T12:24:40Z</time>
      </trkpt>
      <trkpt lat="48.78681" lon="6.63532">
        <ele>203.5</ele>
        <time>2021-07-30T12:24:42Z</time>
      </trkpt>
      <trkpt lat="48.78683" lon="6.63542">
        <ele>203.5</ele>
        <time>2021-07-30T12:24:43Z</time>
      </trkpt>
      <trkpt lat="48.78686" lon="6.6356">
        <ele>203.4</ele>
        <time>2021-07-30T12:24:45Z</time>
      </trkpt>
      <trkpt lat="48.78689" lon="6.63569">
        <ele>203.3</ele>
        <time>2021-07-30T12:24:46Z</time>
      </trkpt>
      <trkpt lat="48.78691" lon="6.63578">
        <ele>203.3</ele>
        <time>2021-07-30T12:24:47Z</time>
      </trkpt>
      <trkpt lat="48.78695" lon="6.63594">
        <ele>203.2</ele>
        <time>2021-07-30T12:24:49Z</time>
      </trkpt>
      <trkpt lat="48.78699" lon="6.63607">
        <ele>203.2</ele>
        <time>2021-07-30T12:24:51Z</time>
      </trkpt>
      <trkpt lat="48.78702" lon="6.63614">
        <ele>203.2</ele>
        <time>2021-07-30T12:24:52Z</time>
      </trkpt>
      <trkpt lat="48.78707" lon="6.6363">
        <ele>203.2</ele>
        <time>2021-07-30T12:24:54Z</time>
      </trkpt>
      <trkpt lat="48.78709" lon="6.63638">
        <ele>203.2</ele>
        <time>2021-07-30T12:24:55Z</time>
      </trkpt>
      <trkpt lat="48.78712" lon="6.63654">
        <ele>203.2</ele>
        <time>2021-07-30T12:24:57Z</time>
      </trkpt>
      <trkpt lat="48.78714" lon="6.63663">
        <ele>203.2</ele>
        <time>2021-07-30T12:24:58Z</time>
      </trkpt>
      <trkpt lat="48.78715" lon="6.63672">
        <ele>203.2</ele>
        <time>2021-07-30T12:24:59Z</time>
      </trkpt>
      <trkpt lat="48.7872" lon="6.63694">
        <ele>203.1</ele>
        <time>2021-07-30T12:25:02Z</time>
      </trkpt>
      <trkpt lat="48.78724" lon="6.63716">
        <ele>203</ele>
        <time>2021-07-30T12:25:03Z</time>
      </trkpt>
      <trkpt lat="48.78729" lon="6.6374">
        <ele>202.9</ele>
        <time>2021-07-30T12:25:05Z</time>
      </trkpt>
      <trkpt lat="48.78732" lon="6.63762">
        <ele>202.8</ele>
        <time>2021-07-30T12:25:07Z</time>
      </trkpt>
      <trkpt lat="48.78734" lon="6.63782">
        <ele>202.9</ele>
        <time>2021-07-30T12:25:09Z</time>
      </trkpt>
      <trkpt lat="48.78736" lon="6.63802">
        <ele>203</ele>
        <time>2021-07-30T12:25:11Z</time>
      </trkpt>
      <trkpt lat="48.78738" lon="6.63822">
        <ele>203.1</ele>
        <time>2021-07-30T12:25:13Z</time>
      </trkpt>
      <trkpt lat="48.7874" lon="6.63843">
        <ele>203.2</ele>
        <time>2021-07-30T12:25:15Z</time>
      </trkpt>
      <trkpt lat="48.78741" lon="6.63854">
        <ele>203.2</ele>
        <time>2021-07-30T12:25:16Z</time>
      </trkpt>
      <trkpt lat="48.78742" lon="6.63875">
        <ele>203.3</ele>
        <time>2021-07-30T12:25:18Z</time>
      </trkpt>
      <trkpt lat="48.78743" lon="6.63886">
        <ele>203.3</ele>
        <time>2021-07-30T12:25:19Z</time>
      </trkpt>
      <trkpt lat="48.78744" lon="6.63896">
        <ele>203.3</ele>
        <time>2021-07-30T12:25:20Z</time>
      </trkpt>
      <trkpt lat="48.78745" lon="6.63914">
        <ele>203.4</ele>
        <time>2021-07-30T12:25:22Z</time>
      </trkpt>
      <trkpt lat="48.78747" lon="6.63925">
        <ele>203.5</ele>
        <time>2021-07-30T12:25:24Z</time>
      </trkpt>
      <trkpt lat="48.78747" lon="6.63945">
        <ele>203.7</ele>
        <time>2021-07-30T12:25:25Z</time>
      </trkpt>
      <trkpt lat="48.78749" lon="6.63964">
        <ele>204</ele>
        <time>2021-07-30T12:25:27Z</time>
      </trkpt>
      <trkpt lat="48.7875" lon="6.63974">
        <ele>204.2</ele>
        <time>2021-07-30T12:25:28Z</time>
      </trkpt>
      <trkpt lat="48.78751" lon="6.63982">
        <ele>204.4</ele>
        <time>2021-07-30T12:25:29Z</time>
      </trkpt>
      <trkpt lat="48.78752" lon="6.6399">
        <ele>204.5</ele>
        <time>2021-07-30T12:25:30Z</time>
      </trkpt>
      <trkpt lat="48.78753" lon="6.63998">
        <ele>204.6</ele>
        <time>2021-07-30T12:25:31Z</time>
      </trkpt>
      <trkpt lat="48.78754" lon="6.64014">
        <ele>204.8</ele>
        <time>2021-07-30T12:25:33Z</time>
      </trkpt>
      <trkpt lat="48.78755" lon="6.64021">
        <ele>204.9</ele>
        <time>2021-07-30T12:25:35Z</time>
      </trkpt>
      <trkpt lat="48.78757" lon="6.64037">
        <ele>205</ele>
        <time>2021-07-30T12:25:36Z</time>
      </trkpt>
      <trkpt lat="48.78758" lon="6.64045">
        <ele>205</ele>
        <time>2021-07-30T12:25:37Z</time>
      </trkpt>
      <trkpt lat="48.78761" lon="6.64062">
        <ele>205</ele>
        <time>2021-07-30T12:25:39Z</time>
      </trkpt>
      <trkpt lat="48.78763" lon="6.64077">
        <ele>205</ele>
        <time>2021-07-30T12:25:41Z</time>
      </trkpt>
      <trkpt lat="48.78763" lon="6.64084">
        <ele>205</ele>
        <time>2021-07-30T12:25:42Z</time>
      </trkpt>
      <trkpt lat="48.78764" lon="6.64092">
        <ele>205</ele>
        <time>2021-07-30T12:25:43Z</time>
      </trkpt>
      <trkpt lat="48.78765" lon="6.64109">
        <ele>205</ele>
        <time>2021-07-30T12:25:46Z</time>
      </trkpt>
      <trkpt lat="48.78765" lon="6.64127">
        <ele>205</ele>
        <time>2021-07-30T12:25:47Z</time>
      </trkpt>
      <trkpt lat="48.78765" lon="6.64135">
        <ele>205</ele>
        <time>2021-07-30T12:25:48Z</time>
      </trkpt>
      <trkpt lat="48.78765" lon="6.64152">
        <ele>204.9</ele>
        <time>2021-07-30T12:25:50Z</time>
      </trkpt>
      <trkpt lat="48.78767" lon="6.64167">
        <ele>204.9</ele>
        <time>2021-07-30T12:25:52Z</time>
      </trkpt>
      <trkpt lat="48.78768" lon="6.64175">
        <ele>204.9</ele>
        <time>2021-07-30T12:25:53Z</time>
      </trkpt>
      <trkpt lat="48.7877" lon="6.64191">
        <ele>205</ele>
        <time>2021-07-30T12:25:55Z</time>
      </trkpt>
      <trkpt lat="48.78771" lon="6.64199">
        <ele>205.1</ele>
        <time>2021-07-30T12:25:57Z</time>
      </trkpt>
      <trkpt lat="48.78774" lon="6.64216">
        <ele>205.2</ele>
        <time>2021-07-30T12:25:58Z</time>
      </trkpt>
      <trkpt lat="48.78775" lon="6.64231">
        <ele>205.2</ele>
        <time>2021-07-30T12:26:00Z</time>
      </trkpt>
      <trkpt lat="48.78775" lon="6.6424">
        <ele>205.2</ele>
        <time>2021-07-30T12:26:02Z</time>
      </trkpt>
      <trkpt lat="48.78774" lon="6.64258">
        <ele>205.3</ele>
        <time>2021-07-30T12:26:03Z</time>
      </trkpt>
      <trkpt lat="48.78774" lon="6.64266">
        <ele>205.3</ele>
        <time>2021-07-30T12:26:04Z</time>
      </trkpt>
      <trkpt lat="48.78774" lon="6.64282">
        <ele>205.4</ele>
        <time>2021-07-30T12:26:06Z</time>
      </trkpt>
      <trkpt lat="48.78775" lon="6.64289">
        <ele>205.4</ele>
        <time>2021-07-30T12:26:08Z</time>
      </trkpt>
      <trkpt lat="48.78775" lon="6.64303">
        <ele>205.4</ele>
        <time>2021-07-30T12:26:09Z</time>
      </trkpt>
      <trkpt lat="48.78776" lon="6.64311">
        <ele>205.5</ele>
        <time>2021-07-30T12:26:10Z</time>
      </trkpt>
      <trkpt lat="48.78776" lon="6.64317">
        <ele>205.6</ele>
        <time>2021-07-30T12:26:11Z</time>
      </trkpt>
      <trkpt lat="48.78776" lon="6.64332">
        <ele>205.7</ele>
        <time>2021-07-30T12:26:13Z</time>
      </trkpt>
      <trkpt lat="48.78776" lon="6.64345">
        <ele>205.7</ele>
        <time>2021-07-30T12:26:15Z</time>
      </trkpt>
      <trkpt lat="48.78776" lon="6.64354">
        <ele>205.7</ele>
        <time>2021-07-30T12:26:16Z</time>
      </trkpt>
      <trkpt lat="48.78775" lon="6.64362">
        <ele>205.7</ele>
        <time>2021-07-30T12:26:17Z</time>
      </trkpt>
      <trkpt lat="48.78775" lon="6.64369">
        <ele>205.8</ele>
        <time>2021-07-30T12:26:19Z</time>
      </trkpt>
      <trkpt lat="48.78775" lon="6.64383">
        <ele>205.7</ele>
        <time>2021-07-30T12:26:20Z</time>
      </trkpt>
      <trkpt lat="48.78776" lon="6.6439">
        <ele>205.7</ele>
        <time>2021-07-30T12:26:22Z</time>
      </trkpt>
      <trkpt lat="48.78777" lon="6.64403">
        <ele>205.7</ele>
        <time>2021-07-30T12:26:24Z</time>
      </trkpt>
      <trkpt lat="48.78778" lon="6.64422">
        <ele>205.5</ele>
        <time>2021-07-30T12:26:26Z</time>
      </trkpt>
      <trkpt lat="48.78779" lon="6.6444">
        <ele>205.5</ele>
        <time>2021-07-30T12:26:28Z</time>
      </trkpt>
      <trkpt lat="48.7878" lon="6.64448">
        <ele>205.4</ele>
        <time>2021-07-30T12:26:29Z</time>
      </trkpt>
      <trkpt lat="48.7878" lon="6.64456">
        <ele>205.4</ele>
        <time>2021-07-30T12:26:30Z</time>
      </trkpt>
      <trkpt lat="48.7878" lon="6.64464">
        <ele>205.3</ele>
        <time>2021-07-30T12:26:31Z</time>
      </trkpt>
      <trkpt lat="48.78781" lon="6.64479">
        <ele>205.3</ele>
        <time>2021-07-30T12:26:33Z</time>
      </trkpt>
      <trkpt lat="48.78781" lon="6.64486">
        <ele>205.2</ele>
        <time>2021-07-30T12:26:34Z</time>
      </trkpt>
      <trkpt lat="48.78782" lon="6.64494">
        <ele>205.2</ele>
        <time>2021-07-30T12:26:35Z</time>
      </trkpt>
      <trkpt lat="48.78783" lon="6.64511">
        <ele>205.1</ele>
        <time>2021-07-30T12:26:37Z</time>
      </trkpt>
      <trkpt lat="48.78785" lon="6.64528">
        <ele>204.9</ele>
        <time>2021-07-30T12:26:39Z</time>
      </trkpt>
      <trkpt lat="48.78786" lon="6.64537">
        <ele>204.8</ele>
        <time>2021-07-30T12:26:40Z</time>
      </trkpt>
      <trkpt lat="48.78786" lon="6.64556">
        <ele>204.7</ele>
        <time>2021-07-30T12:26:42Z</time>
      </trkpt>
      <trkpt lat="48.78787" lon="6.64566">
        <ele>204.7</ele>
        <time>2021-07-30T12:26:43Z</time>
      </trkpt>
      <trkpt lat="48.78788" lon="6.64583">
        <ele>204.6</ele>
        <time>2021-07-30T12:26:45Z</time>
      </trkpt>
      <trkpt lat="48.78788" lon="6.64592">
        <ele>204.6</ele>
        <time>2021-07-30T12:26:46Z</time>
      </trkpt>
      <trkpt lat="48.78788" lon="6.64601">
        <ele>204.5</ele>
        <time>2021-07-30T12:26:47Z</time>
      </trkpt>
      <trkpt lat="48.78789" lon="6.64611">
        <ele>204.5</ele>
        <time>2021-07-30T12:26:48Z</time>
      </trkpt>
      <trkpt lat="48.78789" lon="6.64621">
        <ele>204.4</ele>
        <time>2021-07-30T12:26:49Z</time>
      </trkpt>
      <trkpt lat="48.78791" lon="6.64641">
        <ele>204.3</ele>
        <time>2021-07-30T12:26:52Z</time>
      </trkpt>
      <trkpt lat="48.78792" lon="6.6466">
        <ele>204.3</ele>
        <time>2021-07-30T12:26:53Z</time>
      </trkpt>
      <trkpt lat="48.78793" lon="6.64669">
        <ele>204.2</ele>
        <time>2021-07-30T12:26:54Z</time>
      </trkpt>
      <trkpt lat="48.78795" lon="6.64689">
        <ele>204.1</ele>
        <time>2021-07-30T12:26:56Z</time>
      </trkpt>
      <trkpt lat="48.78796" lon="6.647">
        <ele>204.1</ele>
        <time>2021-07-30T12:26:57Z</time>
      </trkpt>
      <trkpt lat="48.78797" lon="6.64711">
        <ele>204</ele>
        <time>2021-07-30T12:26:58Z</time>
      </trkpt>
      <trkpt lat="48.78799" lon="6.64721">
        <ele>204</ele>
        <time>2021-07-30T12:26:59Z</time>
      </trkpt>
      <trkpt lat="48.78802" lon="6.64741">
        <ele>203.9</ele>
        <time>2021-07-30T12:27:01Z</time>
      </trkpt>
      <trkpt lat="48.78805" lon="6.6476">
        <ele>203.9</ele>
        <time>2021-07-30T12:27:03Z</time>
      </trkpt>
      <trkpt lat="48.78806" lon="6.6477">
        <ele>203.9</ele>
        <time>2021-07-30T12:27:04Z</time>
      </trkpt>
      <trkpt lat="48.78807" lon="6.6478">
        <ele>203.9</ele>
        <time>2021-07-30T12:27:05Z</time>
      </trkpt>
      <trkpt lat="48.78809" lon="6.648">
        <ele>203.9</ele>
        <time>2021-07-30T12:27:07Z</time>
      </trkpt>
      <trkpt lat="48.78812" lon="6.6482">
        <ele>204</ele>
        <time>2021-07-30T12:27:09Z</time>
      </trkpt>
      <trkpt lat="48.78814" lon="6.64829">
        <ele>204</ele>
        <time>2021-07-30T12:27:10Z</time>
      </trkpt>
      <trkpt lat="48.78815" lon="6.64839">
        <ele>204</ele>
        <time>2021-07-30T12:27:11Z</time>
      </trkpt>
      <trkpt lat="48.78818" lon="6.64858">
        <ele>204.1</ele>
        <time>2021-07-30T12:27:13Z</time>
      </trkpt>
      <trkpt lat="48.78821" lon="6.64877">
        <ele>204.3</ele>
        <time>2021-07-30T12:27:15Z</time>
      </trkpt>
      <trkpt lat="48.78822" lon="6.64892">
        <ele>204.4</ele>
        <time>2021-07-30T12:27:17Z</time>
      </trkpt>
      <trkpt lat="48.78821" lon="6.649">
        <ele>204.5</ele>
        <time>2021-07-30T12:27:18Z</time>
      </trkpt>
      <trkpt lat="48.78821" lon="6.64907">
        <ele>204.5</ele>
        <time>2021-07-30T12:27:19Z</time>
      </trkpt>
      <trkpt lat="48.78821" lon="6.64922">
        <ele>204.6</ele>
        <time>2021-07-30T12:27:21Z</time>
      </trkpt>
      <trkpt lat="48.78821" lon="6.64927">
        <ele>204.6</ele>
        <time>2021-07-30T12:27:22Z</time>
      </trkpt>
      <trkpt lat="48.7882" lon="6.64939">
        <ele>204.6</ele>
        <time>2021-07-30T12:27:24Z</time>
      </trkpt>
      <trkpt lat="48.78819" lon="6.64945">
        <ele>204.6</ele>
        <time>2021-07-30T12:27:25Z</time>
      </trkpt>
      <trkpt lat="48.78819" lon="6.64951">
        <ele>204.6</ele>
        <time>2021-07-30T12:27:26Z</time>
      </trkpt>
      <trkpt lat="48.7882" lon="6.64958">
        <ele>204.5</ele>
        <time>2021-07-30T12:27:28Z</time>
      </trkpt>
      <trkpt lat="48.78821" lon="6.64966">
        <ele>204.5</ele>
        <time>2021-07-30T12:27:30Z</time>
      </trkpt>
      <trkpt lat="48.78821" lon="6.64968">
        <ele>204.5</ele>
        <time>2021-07-30T12:27:31Z</time>
      </trkpt>
      <trkpt lat="48.78821" lon="6.64981">
        <ele>204.3</ele>
        <time>2021-07-30T12:27:33Z</time>
      </trkpt>
      <trkpt lat="48.78821" lon="6.64985">
        <ele>204.2</ele>
        <time>2021-07-30T12:27:34Z</time>
      </trkpt>
      <trkpt lat="48.78822" lon="6.6499">
        <ele>204.1</ele>
        <time>2021-07-30T12:27:35Z</time>
      </trkpt>
      <trkpt lat="48.78822" lon="6.64991">
        <ele>204.1</ele>
        <time>2021-07-30T12:27:36Z</time>
      </trkpt>
      <trkpt lat="48.78822" lon="6.64995">
        <ele>204</ele>
        <time>2021-07-30T12:27:37Z</time>
      </trkpt>
      <trkpt lat="48.78824" lon="6.65023">
        <ele>203.5</ele>
        <time>2021-07-30T12:27:39Z</time>
      </trkpt>
      <trkpt lat="48.78824" lon="6.65034">
        <ele>203.4</ele>
        <time>2021-07-30T12:27:40Z</time>
      </trkpt>
      <trkpt lat="48.7883" lon="6.65139">
        <ele>202.9</ele>
        <time>2021-07-30T12:27:49Z</time>
      </trkpt>
      <trkpt lat="48.78832" lon="6.65165">
        <ele>203.1</ele>
        <time>2021-07-30T12:27:51Z</time>
      </trkpt>
      <trkpt lat="48.78833" lon="6.65175">
        <ele>203.1</ele>
        <time>2021-07-30T12:27:52Z</time>
      </trkpt>
      <trkpt lat="48.78834" lon="6.65194">
        <ele>203.2</ele>
        <time>2021-07-30T12:27:54Z</time>
      </trkpt>
      <trkpt lat="48.78835" lon="6.65203">
        <ele>203.3</ele>
        <time>2021-07-30T12:27:55Z</time>
      </trkpt>
      <trkpt lat="48.78837" lon="6.65218">
        <ele>203.4</ele>
        <time>2021-07-30T12:27:57Z</time>
      </trkpt>
      <trkpt lat="48.78844" lon="6.65236">
        <ele>203.5</ele>
        <time>2021-07-30T12:27:59Z</time>
      </trkpt>
      <trkpt lat="48.7885" lon="6.65258">
        <ele>203.7</ele>
        <time>2021-07-30T12:28:01Z</time>
      </trkpt>
      <trkpt lat="48.78853" lon="6.65282">
        <ele>204</ele>
        <time>2021-07-30T12:28:03Z</time>
      </trkpt>
      <trkpt lat="48.78853" lon="6.65292">
        <ele>204.1</ele>
        <time>2021-07-30T12:28:04Z</time>
      </trkpt>
      <trkpt lat="48.78853" lon="6.65308">
        <ele>204.3</ele>
        <time>2021-07-30T12:28:06Z</time>
      </trkpt>
      <trkpt lat="48.78853" lon="6.65321">
        <ele>204.4</ele>
        <time>2021-07-30T12:28:08Z</time>
      </trkpt>
      <trkpt lat="48.78854" lon="6.65336">
        <ele>204.5</ele>
        <time>2021-07-30T12:28:10Z</time>
      </trkpt>
      <trkpt lat="48.78853" lon="6.65341">
        <ele>204.6</ele>
        <time>2021-07-30T12:28:11Z</time>
      </trkpt>
      <trkpt lat="48.78853" lon="6.65346">
        <ele>204.6</ele>
        <time>2021-07-30T12:28:12Z</time>
      </trkpt>
      <trkpt lat="48.78853" lon="6.65352">
        <ele>204.6</ele>
        <time>2021-07-30T12:28:13Z</time>
      </trkpt>
      <trkpt lat="48.78854" lon="6.65365">
        <ele>204.7</ele>
        <time>2021-07-30T12:28:15Z</time>
      </trkpt>
      <trkpt lat="48.78854" lon="6.65371">
        <ele>204.7</ele>
        <time>2021-07-30T12:28:16Z</time>
      </trkpt>
      <trkpt lat="48.78853" lon="6.65388">
        <ele>204.8</ele>
        <time>2021-07-30T12:28:18Z</time>
      </trkpt>
      <trkpt lat="48.78853" lon="6.65395">
        <ele>204.8</ele>
        <time>2021-07-30T12:28:20Z</time>
      </trkpt>
      <trkpt lat="48.78852" lon="6.6541">
        <ele>204.9</ele>
        <time>2021-07-30T12:28:21Z</time>
      </trkpt>
      <trkpt lat="48.7885" lon="6.65417">
        <ele>204.9</ele>
        <time>2021-07-30T12:28:23Z</time>
      </trkpt>
      <trkpt lat="48.78854" lon="6.65436">
        <ele>205</ele>
        <time>2021-07-30T12:28:25Z</time>
      </trkpt>
      <trkpt lat="48.78854" lon="6.6545">
        <ele>205</ele>
        <time>2021-07-30T12:28:27Z</time>
      </trkpt>
      <trkpt lat="48.78854" lon="6.65461">
        <ele>205.1</ele>
        <time>2021-07-30T12:28:29Z</time>
      </trkpt>
      <trkpt lat="48.78854" lon="6.65467">
        <ele>205.1</ele>
        <time>2021-07-30T12:28:30Z</time>
      </trkpt>
      <trkpt lat="48.78854" lon="6.65473">
        <ele>205.1</ele>
        <time>2021-07-30T12:28:31Z</time>
      </trkpt>
      <trkpt lat="48.78855" lon="6.65487">
        <ele>205.2</ele>
        <time>2021-07-30T12:28:33Z</time>
      </trkpt>
      <trkpt lat="48.78855" lon="6.65495">
        <ele>205.3</ele>
        <time>2021-07-30T12:28:34Z</time>
      </trkpt>
      <trkpt lat="48.78855" lon="6.65507">
        <ele>205.3</ele>
        <time>2021-07-30T12:28:36Z</time>
      </trkpt>
      <trkpt lat="48.78854" lon="6.65515">
        <ele>205.3</ele>
        <time>2021-07-30T12:28:38Z</time>
      </trkpt>
      <trkpt lat="48.78856" lon="6.65521">
        <ele>205.4</ele>
        <time>2021-07-30T12:28:39Z</time>
      </trkpt>
      <trkpt lat="48.78856" lon="6.6554">
        <ele>205.5</ele>
        <time>2021-07-30T12:28:41Z</time>
      </trkpt>
      <trkpt lat="48.78857" lon="6.65554">
        <ele>205.6</ele>
        <time>2021-07-30T12:28:43Z</time>
      </trkpt>
      <trkpt lat="48.78859" lon="6.65569">
        <ele>205.8</ele>
        <time>2021-07-30T12:28:45Z</time>
      </trkpt>
      <trkpt lat="48.7886" lon="6.65586">
        <ele>205.9</ele>
        <time>2021-07-30T12:28:47Z</time>
      </trkpt>
      <trkpt lat="48.78862" lon="6.65603">
        <ele>206</ele>
        <time>2021-07-30T12:28:49Z</time>
      </trkpt>
      <trkpt lat="48.78868" lon="6.65618">
        <ele>206.1</ele>
        <time>2021-07-30T12:28:51Z</time>
      </trkpt>
      <trkpt lat="48.78869" lon="6.65624">
        <ele>206.1</ele>
        <time>2021-07-30T12:28:52Z</time>
      </trkpt>
      <trkpt lat="48.78871" lon="6.65632">
        <ele>206.2</ele>
        <time>2021-07-30T12:28:53Z</time>
      </trkpt>
      <trkpt lat="48.78872" lon="6.65648">
        <ele>206.4</ele>
        <time>2021-07-30T12:28:55Z</time>
      </trkpt>
      <trkpt lat="48.78872" lon="6.65655">
        <ele>206.5</ele>
        <time>2021-07-30T12:28:57Z</time>
      </trkpt>
      <trkpt lat="48.78874" lon="6.65669">
        <ele>206.6</ele>
        <time>2021-07-30T12:28:58Z</time>
      </trkpt>
      <trkpt lat="48.78874" lon="6.65676">
        <ele>206.7</ele>
        <time>2021-07-30T12:28:59Z</time>
      </trkpt>
      <trkpt lat="48.78874" lon="6.65683">
        <ele>206.8</ele>
        <time>2021-07-30T12:29:00Z</time>
      </trkpt>
      <trkpt lat="48.78875" lon="6.65691">
        <ele>206.8</ele>
        <time>2021-07-30T12:29:01Z</time>
      </trkpt>
      <trkpt lat="48.78874" lon="6.65698">
        <ele>206.9</ele>
        <time>2021-07-30T12:29:03Z</time>
      </trkpt>
      <trkpt lat="48.78873" lon="6.65711">
        <ele>207.1</ele>
        <time>2021-07-30T12:29:04Z</time>
      </trkpt>
      <trkpt lat="48.78871" lon="6.65723">
        <ele>207.3</ele>
        <time>2021-07-30T12:29:06Z</time>
      </trkpt>
      <trkpt lat="48.78871" lon="6.65729">
        <ele>207.4</ele>
        <time>2021-07-30T12:29:07Z</time>
      </trkpt>
      <trkpt lat="48.78875" lon="6.65742">
        <ele>207.6</ele>
        <time>2021-07-30T12:29:09Z</time>
      </trkpt>
      <trkpt lat="48.78873" lon="6.65749">
        <ele>207.7</ele>
        <time>2021-07-30T12:29:10Z</time>
      </trkpt>
      <trkpt lat="48.78871" lon="6.65756">
        <ele>207.9</ele>
        <time>2021-07-30T12:29:11Z</time>
      </trkpt>
      <trkpt lat="48.7887" lon="6.65771">
        <ele>208.1</ele>
        <time>2021-07-30T12:29:13Z</time>
      </trkpt>
      <trkpt lat="48.78872" lon="6.65784">
        <ele>208.3</ele>
        <time>2021-07-30T12:29:15Z</time>
      </trkpt>
      <trkpt lat="48.78873" lon="6.65791">
        <ele>208.3</ele>
        <time>2021-07-30T12:29:17Z</time>
      </trkpt>
      <trkpt lat="48.78875" lon="6.65805">
        <ele>208.5</ele>
        <time>2021-07-30T12:29:18Z</time>
      </trkpt>
      <trkpt lat="48.78875" lon="6.65812">
        <ele>208.6</ele>
        <time>2021-07-30T12:29:20Z</time>
      </trkpt>
      <trkpt lat="48.78877" lon="6.65819">
        <ele>208.7</ele>
        <time>2021-07-30T12:29:21Z</time>
      </trkpt>
      <trkpt lat="48.78878" lon="6.65829">
        <ele>208.9</ele>
        <time>2021-07-30T12:29:22Z</time>
      </trkpt>
      <trkpt lat="48.78879" lon="6.65835">
        <ele>209</ele>
        <time>2021-07-30T12:29:23Z</time>
      </trkpt>
      <trkpt lat="48.78879" lon="6.65844">
        <ele>209.2</ele>
        <time>2021-07-30T12:29:25Z</time>
      </trkpt>
      <trkpt lat="48.7888" lon="6.65853">
        <ele>209.4</ele>
        <time>2021-07-30T12:29:26Z</time>
      </trkpt>
      <trkpt lat="48.78881" lon="6.6586">
        <ele>209.5</ele>
        <time>2021-07-30T12:29:27Z</time>
      </trkpt>
      <trkpt lat="48.78882" lon="6.65865">
        <ele>209.6</ele>
        <time>2021-07-30T12:29:28Z</time>
      </trkpt>
      <trkpt lat="48.78882" lon="6.6587">
        <ele>209.7</ele>
        <time>2021-07-30T12:29:29Z</time>
      </trkpt>
      <trkpt lat="48.78883" lon="6.65876">
        <ele>209.8</ele>
        <time>2021-07-30T12:29:30Z</time>
      </trkpt>
      <trkpt lat="48.78884" lon="6.65882">
        <ele>209.9</ele>
        <time>2021-07-30T12:29:32Z</time>
      </trkpt>
      <trkpt lat="48.78884" lon="6.65887">
        <ele>210</ele>
        <time>2021-07-30T12:29:33Z</time>
      </trkpt>
      <trkpt lat="48.78885" lon="6.65893">
        <ele>210.1</ele>
        <time>2021-07-30T12:29:34Z</time>
      </trkpt>
      <trkpt lat="48.78885" lon="6.659">
        <ele>210.2</ele>
        <time>2021-07-30T12:29:35Z</time>
      </trkpt>
      <trkpt lat="48.78885" lon="6.65908">
        <ele>210.3</ele>
        <time>2021-07-30T12:29:36Z</time>
      </trkpt>
      <trkpt lat="48.78885" lon="6.65914">
        <ele>210.4</ele>
        <time>2021-07-30T12:29:38Z</time>
      </trkpt>
      <trkpt lat="48.78886" lon="6.65924">
        <ele>210.5</ele>
        <time>2021-07-30T12:29:39Z</time>
      </trkpt>
      <trkpt lat="48.78886" lon="6.65928">
        <ele>210.5</ele>
        <time>2021-07-30T12:29:40Z</time>
      </trkpt>
      <trkpt lat="48.78887" lon="6.65932">
        <ele>210.5</ele>
        <time>2021-07-30T12:29:41Z</time>
      </trkpt>
      <trkpt lat="48.78887" lon="6.65938">
        <ele>210.5</ele>
        <time>2021-07-30T12:29:44Z</time>
      </trkpt>
      <trkpt lat="48.78888" lon="6.65945">
        <ele>210.5</ele>
        <time>2021-07-30T12:29:45Z</time>
      </trkpt>
      <trkpt lat="48.7889" lon="6.65949">
        <ele>210.5</ele>
        <time>2021-07-30T12:29:46Z</time>
      </trkpt>
      <trkpt lat="48.78891" lon="6.65952">
        <ele>210.5</ele>
        <time>2021-07-30T12:29:47Z</time>
      </trkpt>
      <trkpt lat="48.78892" lon="6.65962">
        <ele>210.5</ele>
        <time>2021-07-30T12:29:49Z</time>
      </trkpt>
      <trkpt lat="48.78893" lon="6.65974">
        <ele>210.4</ele>
        <time>2021-07-30T12:29:51Z</time>
      </trkpt>
      <trkpt lat="48.78894" lon="6.6598">
        <ele>210.4</ele>
        <time>2021-07-30T12:29:52Z</time>
      </trkpt>
      <trkpt lat="48.78895" lon="6.6599">
        <ele>210.3</ele>
        <time>2021-07-30T12:29:54Z</time>
      </trkpt>
      <trkpt lat="48.78895" lon="6.65996">
        <ele>210.2</ele>
        <time>2021-07-30T12:29:55Z</time>
      </trkpt>
      <trkpt lat="48.78896" lon="6.66007">
        <ele>210.2</ele>
        <time>2021-07-30T12:29:57Z</time>
      </trkpt>
      <trkpt lat="48.78895" lon="6.66016">
        <ele>210.1</ele>
        <time>2021-07-30T12:29:58Z</time>
      </trkpt>
      <trkpt lat="48.78896" lon="6.66022">
        <ele>210</ele>
        <time>2021-07-30T12:29:59Z</time>
      </trkpt>
      <trkpt lat="48.78897" lon="6.66028">
        <ele>210</ele>
        <time>2021-07-30T12:30:00Z</time>
      </trkpt>
      <trkpt lat="48.78898" lon="6.66034">
        <ele>209.9</ele>
        <time>2021-07-30T12:30:02Z</time>
      </trkpt>
      <trkpt lat="48.78896" lon="6.66049">
        <ele>209.7</ele>
        <time>2021-07-30T12:30:03Z</time>
      </trkpt>
      <trkpt lat="48.78896" lon="6.66055">
        <ele>209.6</ele>
        <time>2021-07-30T12:30:04Z</time>
      </trkpt>
      <trkpt lat="48.78897" lon="6.66057">
        <ele>209.6</ele>
        <time>2021-07-30T12:30:05Z</time>
      </trkpt>
      <trkpt lat="48.78898" lon="6.66064">
        <ele>209.5</ele>
        <time>2021-07-30T12:30:07Z</time>
      </trkpt>
      <trkpt lat="48.78898" lon="6.66066">
        <ele>209.4</ele>
        <time>2021-07-30T12:30:09Z</time>
      </trkpt>
      <trkpt lat="48.78898" lon="6.66068">
        <ele>209.4</ele>
        <time>2021-07-30T12:30:10Z</time>
      </trkpt>
      <trkpt lat="48.78898" lon="6.66072">
        <ele>209.3</ele>
        <time>2021-07-30T12:30:11Z</time>
      </trkpt>
      <trkpt lat="48.78897" lon="6.66075">
        <ele>209.3</ele>
        <time>2021-07-30T12:30:13Z</time>
      </trkpt>
      <trkpt lat="48.78896" lon="6.66075">
        <ele>209.2</ele>
        <time>2021-07-30T12:30:14Z</time>
      </trkpt>
      <trkpt lat="48.78895" lon="6.66076">
        <ele>209.2</ele>
        <time>2021-07-30T12:30:15Z</time>
      </trkpt>
      <trkpt lat="48.78895" lon="6.66078">
        <ele>209.2</ele>
        <time>2021-07-30T12:30:16Z</time>
      </trkpt>
      <trkpt lat="48.78895" lon="6.66083">
        <ele>209.1</ele>
        <time>2021-07-30T12:30:18Z</time>
      </trkpt>
      <trkpt lat="48.78895" lon="6.6609">
        <ele>209</ele>
        <time>2021-07-30T12:30:20Z</time>
      </trkpt>
      <trkpt lat="48.78894" lon="6.66098">
        <ele>208.9</ele>
        <time>2021-07-30T12:30:21Z</time>
      </trkpt>
      <trkpt lat="48.78893" lon="6.66105">
        <ele>208.8</ele>
        <time>2021-07-30T12:30:22Z</time>
      </trkpt>
      <trkpt lat="48.78892" lon="6.66111">
        <ele>208.7</ele>
        <time>2021-07-30T12:30:23Z</time>
      </trkpt>
      <trkpt lat="48.78892" lon="6.66125">
        <ele>208.5</ele>
        <time>2021-07-30T12:30:25Z</time>
      </trkpt>
      <trkpt lat="48.78893" lon="6.66139">
        <ele>208.3</ele>
        <time>2021-07-30T12:30:27Z</time>
      </trkpt>
      <trkpt lat="48.78897" lon="6.66155">
        <ele>208.1</ele>
        <time>2021-07-30T12:30:29Z</time>
      </trkpt>
      <trkpt lat="48.78901" lon="6.66159">
        <ele>207.9</ele>
        <time>2021-07-30T12:30:31Z</time>
      </trkpt>
      <trkpt lat="48.78903" lon="6.66167">
        <ele>207.8</ele>
        <time>2021-07-30T12:30:32Z</time>
      </trkpt>
      <trkpt lat="48.78906" lon="6.66178">
        <ele>207.7</ele>
        <time>2021-07-30T12:30:33Z</time>
      </trkpt>
      <trkpt lat="48.78907" lon="6.66188">
        <ele>207.6</ele>
        <time>2021-07-30T12:30:34Z</time>
      </trkpt>
      <trkpt lat="48.78908" lon="6.66197">
        <ele>207.5</ele>
        <time>2021-07-30T12:30:35Z</time>
      </trkpt>
      <trkpt lat="48.78909" lon="6.66206">
        <ele>207.4</ele>
        <time>2021-07-30T12:30:36Z</time>
      </trkpt>
      <trkpt lat="48.7891" lon="6.66214">
        <ele>207.3</ele>
        <time>2021-07-30T12:30:37Z</time>
      </trkpt>
      <trkpt lat="48.7891" lon="6.66229">
        <ele>207.1</ele>
        <time>2021-07-30T12:30:39Z</time>
      </trkpt>
      <trkpt lat="48.7891" lon="6.66238">
        <ele>207</ele>
        <time>2021-07-30T12:30:40Z</time>
      </trkpt>
      <trkpt lat="48.7891" lon="6.66257">
        <ele>206.7</ele>
        <time>2021-07-30T12:30:42Z</time>
      </trkpt>
      <trkpt lat="48.78912" lon="6.66266">
        <ele>206.6</ele>
        <time>2021-07-30T12:30:43Z</time>
      </trkpt>
      <trkpt lat="48.78915" lon="6.66283">
        <ele>206.4</ele>
        <time>2021-07-30T12:30:45Z</time>
      </trkpt>
      <trkpt lat="48.78917" lon="6.66292">
        <ele>206.2</ele>
        <time>2021-07-30T12:30:46Z</time>
      </trkpt>
      <trkpt lat="48.78918" lon="6.66302">
        <ele>206.1</ele>
        <time>2021-07-30T12:30:47Z</time>
      </trkpt>
      <trkpt lat="48.78919" lon="6.66325">
        <ele>205.9</ele>
        <time>2021-07-30T12:30:49Z</time>
      </trkpt>
      <trkpt lat="48.78921" lon="6.66347">
        <ele>205.7</ele>
        <time>2021-07-30T12:30:51Z</time>
      </trkpt>
      <trkpt lat="48.78922" lon="6.66371">
        <ele>205.6</ele>
        <time>2021-07-30T12:30:54Z</time>
      </trkpt>
      <trkpt lat="48.78925" lon="6.66393">
        <ele>205.5</ele>
        <time>2021-07-30T12:30:55Z</time>
      </trkpt>
      <trkpt lat="48.78927" lon="6.66416">
        <ele>205.5</ele>
        <time>2021-07-30T12:30:57Z</time>
      </trkpt>
      <trkpt lat="48.7893" lon="6.66426">
        <ele>205.6</ele>
        <time>2021-07-30T12:30:58Z</time>
      </trkpt>
      <trkpt lat="48.78938" lon="6.66442">
        <ele>205.6</ele>
        <time>2021-07-30T12:31:00Z</time>
      </trkpt>
      <trkpt lat="48.78943" lon="6.66447">
        <ele>205.6</ele>
        <time>2021-07-30T12:31:01Z</time>
      </trkpt>
      <trkpt lat="48.78955" lon="6.66451">
        <ele>205.6</ele>
        <time>2021-07-30T12:31:03Z</time>
      </trkpt>
      <trkpt lat="48.78966" lon="6.66452">
        <ele>205.6</ele>
        <time>2021-07-30T12:31:05Z</time>
      </trkpt>
      <trkpt lat="48.78971" lon="6.66454">
        <ele>205.6</ele>
        <time>2021-07-30T12:31:06Z</time>
      </trkpt>
      <trkpt lat="48.78977" lon="6.66456">
        <ele>205.6</ele>
        <time>2021-07-30T12:31:07Z</time>
      </trkpt>
      <trkpt lat="48.78989" lon="6.66459">
        <ele>205.6</ele>
        <time>2021-07-30T12:31:09Z</time>
      </trkpt>
      <trkpt lat="48.79002" lon="6.66461">
        <ele>205.6</ele>
        <time>2021-07-30T12:31:11Z</time>
      </trkpt>
      <trkpt lat="48.79015" lon="6.66463">
        <ele>205.5</ele>
        <time>2021-07-30T12:31:13Z</time>
      </trkpt>
      <trkpt lat="48.79027" lon="6.66464">
        <ele>205.5</ele>
        <time>2021-07-30T12:31:15Z</time>
      </trkpt>
      <trkpt lat="48.79033" lon="6.66466">
        <ele>205.5</ele>
        <time>2021-07-30T12:31:16Z</time>
      </trkpt>
      <trkpt lat="48.79044" lon="6.6647">
        <ele>205.7</ele>
        <time>2021-07-30T12:31:18Z</time>
      </trkpt>
      <trkpt lat="48.7905" lon="6.66471">
        <ele>205.8</ele>
        <time>2021-07-30T12:31:19Z</time>
      </trkpt>
      <trkpt lat="48.79061" lon="6.66477">
        <ele>206</ele>
        <time>2021-07-30T12:31:21Z</time>
      </trkpt>
      <trkpt lat="48.79066" lon="6.66481">
        <ele>206.1</ele>
        <time>2021-07-30T12:31:22Z</time>
      </trkpt>
      <trkpt lat="48.79074" lon="6.66489">
        <ele>206.3</ele>
        <time>2021-07-30T12:31:24Z</time>
      </trkpt>
      <trkpt lat="48.79076" lon="6.66493">
        <ele>206.4</ele>
        <time>2021-07-30T12:31:25Z</time>
      </trkpt>
      <trkpt lat="48.79083" lon="6.66504">
        <ele>206.6</ele>
        <time>2021-07-30T12:31:27Z</time>
      </trkpt>
      <trkpt lat="48.79087" lon="6.66509">
        <ele>206.7</ele>
        <time>2021-07-30T12:31:28Z</time>
      </trkpt>
      <trkpt lat="48.7909" lon="6.66515">
        <ele>206.9</ele>
        <time>2021-07-30T12:31:29Z</time>
      </trkpt>
      <trkpt lat="48.79096" lon="6.66523">
        <ele>207.1</ele>
        <time>2021-07-30T12:31:31Z</time>
      </trkpt>
      <trkpt lat="48.791" lon="6.66529">
        <ele>207.3</ele>
        <time>2021-07-30T12:31:32Z</time>
      </trkpt>
      <trkpt lat="48.79105" lon="6.66538">
        <ele>207.6</ele>
        <time>2021-07-30T12:31:34Z</time>
      </trkpt>
      <trkpt lat="48.79108" lon="6.66545">
        <ele>207.7</ele>
        <time>2021-07-30T12:31:35Z</time>
      </trkpt>
      <trkpt lat="48.79109" lon="6.6655">
        <ele>207.8</ele>
        <time>2021-07-30T12:31:36Z</time>
      </trkpt>
      <trkpt lat="48.79109" lon="6.66555">
        <ele>207.9</ele>
        <time>2021-07-30T12:31:38Z</time>
      </trkpt>
      <trkpt lat="48.79111" lon="6.6656">
        <ele>208</ele>
        <time>2021-07-30T12:31:39Z</time>
      </trkpt>
      <trkpt lat="48.79113" lon="6.66565">
        <ele>208.1</ele>
        <time>2021-07-30T12:31:40Z</time>
      </trkpt>
      <trkpt lat="48.79115" lon="6.66572">
        <ele>208.2</ele>
        <time>2021-07-30T12:31:41Z</time>
      </trkpt>
      <trkpt lat="48.79118" lon="6.66579">
        <ele>208.3</ele>
        <time>2021-07-30T12:31:43Z</time>
      </trkpt>
      <trkpt lat="48.79119" lon="6.66585">
        <ele>208.4</ele>
        <time>2021-07-30T12:31:44Z</time>
      </trkpt>
      <trkpt lat="48.7912" lon="6.66591">
        <ele>208.5</ele>
        <time>2021-07-30T12:31:45Z</time>
      </trkpt>
      <trkpt lat="48.79122" lon="6.66597">
        <ele>208.5</ele>
        <time>2021-07-30T12:31:46Z</time>
      </trkpt>
      <trkpt lat="48.79123" lon="6.66602">
        <ele>208.6</ele>
        <time>2021-07-30T12:31:47Z</time>
      </trkpt>
      <trkpt lat="48.79124" lon="6.66611">
        <ele>208.7</ele>
        <time>2021-07-30T12:31:49Z</time>
      </trkpt>
      <trkpt lat="48.79124" lon="6.66618">
        <ele>208.8</ele>
        <time>2021-07-30T12:31:50Z</time>
      </trkpt>
      <trkpt lat="48.79123" lon="6.66627">
        <ele>208.9</ele>
        <time>2021-07-30T12:31:52Z</time>
      </trkpt>
      <trkpt lat="48.79122" lon="6.66634">
        <ele>208.9</ele>
        <time>2021-07-30T12:31:53Z</time>
      </trkpt>
      <trkpt lat="48.79122" lon="6.66642">
        <ele>209</ele>
        <time>2021-07-30T12:31:54Z</time>
      </trkpt>
      <trkpt lat="48.79122" lon="6.66648">
        <ele>209.1</ele>
        <time>2021-07-30T12:31:55Z</time>
      </trkpt>
      <trkpt lat="48.79122" lon="6.6666">
        <ele>209.2</ele>
        <time>2021-07-30T12:31:57Z</time>
      </trkpt>
      <trkpt lat="48.79122" lon="6.66668">
        <ele>209.3</ele>
        <time>2021-07-30T12:31:59Z</time>
      </trkpt>
      <trkpt lat="48.79123" lon="6.66673">
        <ele>209.4</ele>
        <time>2021-07-30T12:32:00Z</time>
      </trkpt>
      <trkpt lat="48.79125" lon="6.66678">
        <ele>209.4</ele>
        <time>2021-07-30T12:32:01Z</time>
      </trkpt>
      <trkpt lat="48.79126" lon="6.66682">
        <ele>209.5</ele>
        <time>2021-07-30T12:32:02Z</time>
      </trkpt>
      <trkpt lat="48.79128" lon="6.66686">
        <ele>209.5</ele>
        <time>2021-07-30T12:32:03Z</time>
      </trkpt>
      <trkpt lat="48.79129" lon="6.66692">
        <ele>209.6</ele>
        <time>2021-07-30T12:32:05Z</time>
      </trkpt>
      <trkpt lat="48.79133" lon="6.66699">
        <ele>209.7</ele>
        <time>2021-07-30T12:32:06Z</time>
      </trkpt>
      <trkpt lat="48.79136" lon="6.66706">
        <ele>209.7</ele>
        <time>2021-07-30T12:32:08Z</time>
      </trkpt>
      <trkpt lat="48.79137" lon="6.66712">
        <ele>209.8</ele>
        <time>2021-07-30T12:32:09Z</time>
      </trkpt>
      <trkpt lat="48.79139" lon="6.66719">
        <ele>209.8</ele>
        <time>2021-07-30T12:32:10Z</time>
      </trkpt>
      <trkpt lat="48.79142" lon="6.66728">
        <ele>209.8</ele>
        <time>2021-07-30T12:32:12Z</time>
      </trkpt>
      <trkpt lat="48.79144" lon="6.66733">
        <ele>209.8</ele>
        <time>2021-07-30T12:32:13Z</time>
      </trkpt>
      <trkpt lat="48.79146" lon="6.6674">
        <ele>209.8</ele>
        <time>2021-07-30T12:32:16Z</time>
      </trkpt>
      <trkpt lat="48.79146" lon="6.66748">
        <ele>209.8</ele>
        <time>2021-07-30T12:32:17Z</time>
      </trkpt>
      <trkpt lat="48.79146" lon="6.66753">
        <ele>209.8</ele>
        <time>2021-07-30T12:32:18Z</time>
      </trkpt>
      <trkpt lat="48.79147" lon="6.66759">
        <ele>209.8</ele>
        <time>2021-07-30T12:32:19Z</time>
      </trkpt>
      <trkpt lat="48.79148" lon="6.6677">
        <ele>209.8</ele>
        <time>2021-07-30T12:32:21Z</time>
      </trkpt>
      <trkpt lat="48.79149" lon="6.66774">
        <ele>209.8</ele>
        <time>2021-07-30T12:32:22Z</time>
      </trkpt>
      <trkpt lat="48.79151" lon="6.66778">
        <ele>209.8</ele>
        <time>2021-07-30T12:32:23Z</time>
      </trkpt>
      <trkpt lat="48.79153" lon="6.66786">
        <ele>209.8</ele>
        <time>2021-07-30T12:32:25Z</time>
      </trkpt>
      <trkpt lat="48.79155" lon="6.66793">
        <ele>209.9</ele>
        <time>2021-07-30T12:32:26Z</time>
      </trkpt>
      <trkpt lat="48.79157" lon="6.66799">
        <ele>209.9</ele>
        <time>2021-07-30T12:32:27Z</time>
      </trkpt>
      <trkpt lat="48.79159" lon="6.66805">
        <ele>209.8</ele>
        <time>2021-07-30T12:32:28Z</time>
      </trkpt>
      <trkpt lat="48.7916" lon="6.66809">
        <ele>209.8</ele>
        <time>2021-07-30T12:32:29Z</time>
      </trkpt>
      <trkpt lat="48.79162" lon="6.66812">
        <ele>209.8</ele>
        <time>2021-07-30T12:32:31Z</time>
      </trkpt>
      <trkpt lat="48.79163" lon="6.66814">
        <ele>209.8</ele>
        <time>2021-07-30T12:32:32Z</time>
      </trkpt>
      <trkpt lat="48.79165" lon="6.66819">
        <ele>209.8</ele>
        <time>2021-07-30T12:32:34Z</time>
      </trkpt>
      <trkpt lat="48.79165" lon="6.66824">
        <ele>209.8</ele>
        <time>2021-07-30T12:32:35Z</time>
      </trkpt>
      <trkpt lat="48.79165" lon="6.66825">
        <ele>209.8</ele>
        <time>2021-07-30T12:32:36Z</time>
      </trkpt>
      <trkpt lat="48.79166" lon="6.6683">
        <ele>209.8</ele>
        <time>2021-07-30T12:32:38Z</time>
      </trkpt>
      <trkpt lat="48.79167" lon="6.66833">
        <ele>209.7</ele>
        <time>2021-07-30T12:32:40Z</time>
      </trkpt>
      <trkpt lat="48.7917" lon="6.66917">
        <ele>209.3</ele>
        <time>2021-07-30T12:32:49Z</time>
      </trkpt>
      <trkpt lat="48.79169" lon="6.66934">
        <ele>209.3</ele>
        <time>2021-07-30T12:32:51Z</time>
      </trkpt>
      <trkpt lat="48.79171" lon="6.66943">
        <ele>209.3</ele>
        <time>2021-07-30T12:32:53Z</time>
      </trkpt>
      <trkpt lat="48.79173" lon="6.66946">
        <ele>209.3</ele>
        <time>2021-07-30T12:32:54Z</time>
      </trkpt>
      <trkpt lat="48.79174" lon="6.66956">
        <ele>209.1</ele>
        <time>2021-07-30T12:32:55Z</time>
      </trkpt>
      <trkpt lat="48.79174" lon="6.66982">
        <ele>208.8</ele>
        <time>2021-07-30T12:32:57Z</time>
      </trkpt>
      <trkpt lat="48.79175" lon="6.67001">
        <ele>208.7</ele>
        <time>2021-07-30T12:32:59Z</time>
      </trkpt>
      <trkpt lat="48.79174" lon="6.6702">
        <ele>208.5</ele>
        <time>2021-07-30T12:33:01Z</time>
      </trkpt>
      <trkpt lat="48.79175" lon="6.67037">
        <ele>208.4</ele>
        <time>2021-07-30T12:33:03Z</time>
      </trkpt>
      <trkpt lat="48.79178" lon="6.67045">
        <ele>208.4</ele>
        <time>2021-07-30T12:33:04Z</time>
      </trkpt>
      <trkpt lat="48.79182" lon="6.67058">
        <ele>208.3</ele>
        <time>2021-07-30T12:33:06Z</time>
      </trkpt>
      <trkpt lat="48.79184" lon="6.67066">
        <ele>208.2</ele>
        <time>2021-07-30T12:33:07Z</time>
      </trkpt>
      <trkpt lat="48.79188" lon="6.67079">
        <ele>208.2</ele>
        <time>2021-07-30T12:33:09Z</time>
      </trkpt>
      <trkpt lat="48.79188" lon="6.67086">
        <ele>208.2</ele>
        <time>2021-07-30T12:33:10Z</time>
      </trkpt>
      <trkpt lat="48.79189" lon="6.67093">
        <ele>208.2</ele>
        <time>2021-07-30T12:33:11Z</time>
      </trkpt>
      <trkpt lat="48.79193" lon="6.67106">
        <ele>208.2</ele>
        <time>2021-07-30T12:33:13Z</time>
      </trkpt>
      <trkpt lat="48.79195" lon="6.67117">
        <ele>208.2</ele>
        <time>2021-07-30T12:33:15Z</time>
      </trkpt>
      <trkpt lat="48.79197" lon="6.67124">
        <ele>208.2</ele>
        <time>2021-07-30T12:33:16Z</time>
      </trkpt>
      <trkpt lat="48.79198" lon="6.67131">
        <ele>208.2</ele>
        <time>2021-07-30T12:33:17Z</time>
      </trkpt>
      <trkpt lat="48.79199" lon="6.67144">
        <ele>208.2</ele>
        <time>2021-07-30T12:33:19Z</time>
      </trkpt>
      <trkpt lat="48.79199" lon="6.67157">
        <ele>208.1</ele>
        <time>2021-07-30T12:33:21Z</time>
      </trkpt>
      <trkpt lat="48.79202" lon="6.67162">
        <ele>208.1</ele>
        <time>2021-07-30T12:33:22Z</time>
      </trkpt>
      <trkpt lat="48.79203" lon="6.67166">
        <ele>208.1</ele>
        <time>2021-07-30T12:33:23Z</time>
      </trkpt>
      <trkpt lat="48.79205" lon="6.67172">
        <ele>208.1</ele>
        <time>2021-07-30T12:33:24Z</time>
      </trkpt>
      <trkpt lat="48.79205" lon="6.67175">
        <ele>208.1</ele>
        <time>2021-07-30T12:33:25Z</time>
      </trkpt>
      <trkpt lat="48.79206" lon="6.67182">
        <ele>208.1</ele>
        <time>2021-07-30T12:33:26Z</time>
      </trkpt>
      <trkpt lat="48.79208" lon="6.67194">
        <ele>208.1</ele>
        <time>2021-07-30T12:33:28Z</time>
      </trkpt>
      <trkpt lat="48.79209" lon="6.67199">
        <ele>208.1</ele>
        <time>2021-07-30T12:33:29Z</time>
      </trkpt>
      <trkpt lat="48.79211" lon="6.67211">
        <ele>208.1</ele>
        <time>2021-07-30T12:33:31Z</time>
      </trkpt>
      <trkpt lat="48.79212" lon="6.67221">
        <ele>208</ele>
        <time>2021-07-30T12:33:33Z</time>
      </trkpt>
      <trkpt lat="48.79214" lon="6.6723">
        <ele>208</ele>
        <time>2021-07-30T12:33:34Z</time>
      </trkpt>
      <trkpt lat="48.79215" lon="6.67237">
        <ele>208</ele>
        <time>2021-07-30T12:33:35Z</time>
      </trkpt>
      <trkpt lat="48.79218" lon="6.67253">
        <ele>208</ele>
        <time>2021-07-30T12:33:37Z</time>
      </trkpt>
      <trkpt lat="48.79221" lon="6.67268">
        <ele>208</ele>
        <time>2021-07-30T12:33:39Z</time>
      </trkpt>
      <trkpt lat="48.79225" lon="6.67284">
        <ele>208</ele>
        <time>2021-07-30T12:33:41Z</time>
      </trkpt>
      <trkpt lat="48.79231" lon="6.67298">
        <ele>208</ele>
        <time>2021-07-30T12:33:43Z</time>
      </trkpt>
      <trkpt lat="48.79235" lon="6.67313">
        <ele>208</ele>
        <time>2021-07-30T12:33:45Z</time>
      </trkpt>
      <trkpt lat="48.79238" lon="6.67321">
        <ele>207.9</ele>
        <time>2021-07-30T12:33:46Z</time>
      </trkpt>
      <trkpt lat="48.79239" lon="6.67329">
        <ele>207.9</ele>
        <time>2021-07-30T12:33:47Z</time>
      </trkpt>
      <trkpt lat="48.79241" lon="6.67345">
        <ele>207.7</ele>
        <time>2021-07-30T12:33:49Z</time>
      </trkpt>
      <trkpt lat="48.79242" lon="6.67362">
        <ele>207.4</ele>
        <time>2021-07-30T12:33:51Z</time>
      </trkpt>
      <trkpt lat="48.79243" lon="6.6737">
        <ele>207.3</ele>
        <time>2021-07-30T12:33:52Z</time>
      </trkpt>
      <trkpt lat="48.79244" lon="6.67378">
        <ele>207.2</ele>
        <time>2021-07-30T12:33:53Z</time>
      </trkpt>
      <trkpt lat="48.79245" lon="6.67394">
        <ele>206.9</ele>
        <time>2021-07-30T12:33:55Z</time>
      </trkpt>
      <trkpt lat="48.79247" lon="6.67411">
        <ele>206.7</ele>
        <time>2021-07-30T12:33:57Z</time>
      </trkpt>
      <trkpt lat="48.79248" lon="6.67428">
        <ele>206.4</ele>
        <time>2021-07-30T12:33:59Z</time>
      </trkpt>
      <trkpt lat="48.79248" lon="6.67438">
        <ele>206.2</ele>
        <time>2021-07-30T12:34:00Z</time>
      </trkpt>
      <trkpt lat="48.79249" lon="6.67448">
        <ele>206.1</ele>
        <time>2021-07-30T12:34:01Z</time>
      </trkpt>
      <trkpt lat="48.79248" lon="6.67466">
        <ele>205.8</ele>
        <time>2021-07-30T12:34:03Z</time>
      </trkpt>
      <trkpt lat="48.79248" lon="6.67477">
        <ele>205.7</ele>
        <time>2021-07-30T12:34:04Z</time>
      </trkpt>
      <trkpt lat="48.79248" lon="6.67495">
        <ele>205.6</ele>
        <time>2021-07-30T12:34:06Z</time>
      </trkpt>
      <trkpt lat="48.79248" lon="6.67505">
        <ele>205.5</ele>
        <time>2021-07-30T12:34:07Z</time>
      </trkpt>
      <trkpt lat="48.79248" lon="6.67523">
        <ele>205.3</ele>
        <time>2021-07-30T12:34:09Z</time>
      </trkpt>
      <trkpt lat="48.79248" lon="6.67541">
        <ele>205.1</ele>
        <time>2021-07-30T12:34:11Z</time>
      </trkpt>
      <trkpt lat="48.79248" lon="6.6756">
        <ele>204.9</ele>
        <time>2021-07-30T12:34:13Z</time>
      </trkpt>
      <trkpt lat="48.79248" lon="6.67579">
        <ele>204.8</ele>
        <time>2021-07-30T12:34:15Z</time>
      </trkpt>
      <trkpt lat="48.79247" lon="6.67598">
        <ele>204.8</ele>
        <time>2021-07-30T12:34:17Z</time>
      </trkpt>
      <trkpt lat="48.79246" lon="6.67621">
        <ele>204.8</ele>
        <time>2021-07-30T12:34:19Z</time>
      </trkpt>
      <trkpt lat="48.79245" lon="6.67644">
        <ele>204.8</ele>
        <time>2021-07-30T12:34:21Z</time>
      </trkpt>
      <trkpt lat="48.79245" lon="6.67656">
        <ele>204.9</ele>
        <time>2021-07-30T12:34:22Z</time>
      </trkpt>
      <trkpt lat="48.79245" lon="6.67667">
        <ele>205</ele>
        <time>2021-07-30T12:34:23Z</time>
      </trkpt>
      <trkpt lat="48.79245" lon="6.67685">
        <ele>205.1</ele>
        <time>2021-07-30T12:34:25Z</time>
      </trkpt>
      <trkpt lat="48.79243" lon="6.67693">
        <ele>205.1</ele>
        <time>2021-07-30T12:34:26Z</time>
      </trkpt>
      <trkpt lat="48.79241" lon="6.67707">
        <ele>205.2</ele>
        <time>2021-07-30T12:34:28Z</time>
      </trkpt>
      <trkpt lat="48.79241" lon="6.67721">
        <ele>205.3</ele>
        <time>2021-07-30T12:34:30Z</time>
      </trkpt>
      <trkpt lat="48.7924" lon="6.67729">
        <ele>205.2</ele>
        <time>2021-07-30T12:34:31Z</time>
      </trkpt>
      <trkpt lat="48.79239" lon="6.67736">
        <ele>205.2</ele>
        <time>2021-07-30T12:34:32Z</time>
      </trkpt>
      <trkpt lat="48.79237" lon="6.67752">
        <ele>205.1</ele>
        <time>2021-07-30T12:34:34Z</time>
      </trkpt>
      <trkpt lat="48.79236" lon="6.67767">
        <ele>205.1</ele>
        <time>2021-07-30T12:34:36Z</time>
      </trkpt>
      <trkpt lat="48.79236" lon="6.67774">
        <ele>205.1</ele>
        <time>2021-07-30T12:34:37Z</time>
      </trkpt>
      <trkpt lat="48.79237" lon="6.67787">
        <ele>205.1</ele>
        <time>2021-07-30T12:34:39Z</time>
      </trkpt>
      <trkpt lat="48.7924" lon="6.67798">
        <ele>205.1</ele>
        <time>2021-07-30T12:34:41Z</time>
      </trkpt>
      <trkpt lat="48.79242" lon="6.67805">
        <ele>205.2</ele>
        <time>2021-07-30T12:34:43Z</time>
      </trkpt>
      <trkpt lat="48.79242" lon="6.67815">
        <ele>205.3</ele>
        <time>2021-07-30T12:34:45Z</time>
      </trkpt>
      <trkpt lat="48.79243" lon="6.67819">
        <ele>205.3</ele>
        <time>2021-07-30T12:34:46Z</time>
      </trkpt>
      <trkpt lat="48.79242" lon="6.67831">
        <ele>205.4</ele>
        <time>2021-07-30T12:34:48Z</time>
      </trkpt>
      <trkpt lat="48.79241" lon="6.67834">
        <ele>205.4</ele>
        <time>2021-07-30T12:34:49Z</time>
      </trkpt>
      <trkpt lat="48.79243" lon="6.67841">
        <ele>205.5</ele>
        <time>2021-07-30T12:34:51Z</time>
      </trkpt>
      <trkpt lat="48.79247" lon="6.67846">
        <ele>205.5</ele>
        <time>2021-07-30T12:34:53Z</time>
      </trkpt>
      <trkpt lat="48.79249" lon="6.67853">
        <ele>205.5</ele>
        <time>2021-07-30T12:34:54Z</time>
      </trkpt>
      <trkpt lat="48.7925" lon="6.67857">
        <ele>205.5</ele>
        <time>2021-07-30T12:34:55Z</time>
      </trkpt>
      <trkpt lat="48.79253" lon="6.67865">
        <ele>205.4</ele>
        <time>2021-07-30T12:34:57Z</time>
      </trkpt>
      <trkpt lat="48.79255" lon="6.67869">
        <ele>205.4</ele>
        <time>2021-07-30T12:34:58Z</time>
      </trkpt>
      <trkpt lat="48.79258" lon="6.67877">
        <ele>205.3</ele>
        <time>2021-07-30T12:35:00Z</time>
      </trkpt>
      <trkpt lat="48.7926" lon="6.67887">
        <ele>205.2</ele>
        <time>2021-07-30T12:35:02Z</time>
      </trkpt>
      <trkpt lat="48.79261" lon="6.67893">
        <ele>205.1</ele>
        <time>2021-07-30T12:35:03Z</time>
      </trkpt>
      <trkpt lat="48.79263" lon="6.67903">
        <ele>205</ele>
        <time>2021-07-30T12:35:05Z</time>
      </trkpt>
      <trkpt lat="48.79264" lon="6.67912">
        <ele>204.9</ele>
        <time>2021-07-30T12:35:06Z</time>
      </trkpt>
      <trkpt lat="48.79266" lon="6.67918">
        <ele>204.8</ele>
        <time>2021-07-30T12:35:07Z</time>
      </trkpt>
      <trkpt lat="48.7927" lon="6.67929">
        <ele>204.7</ele>
        <time>2021-07-30T12:35:09Z</time>
      </trkpt>
      <trkpt lat="48.79273" lon="6.67936">
        <ele>204.6</ele>
        <time>2021-07-30T12:35:10Z</time>
      </trkpt>
      <trkpt lat="48.79276" lon="6.67943">
        <ele>204.5</ele>
        <time>2021-07-30T12:35:11Z</time>
      </trkpt>
      <trkpt lat="48.79282" lon="6.67957">
        <ele>204.3</ele>
        <time>2021-07-30T12:35:13Z</time>
      </trkpt>
      <trkpt lat="48.79286" lon="6.67971">
        <ele>204.2</ele>
        <time>2021-07-30T12:35:15Z</time>
      </trkpt>
      <trkpt lat="48.79288" lon="6.67986">
        <ele>204</ele>
        <time>2021-07-30T12:35:17Z</time>
      </trkpt>
      <trkpt lat="48.79292" lon="6.68002">
        <ele>203.8</ele>
        <time>2021-07-30T12:35:19Z</time>
      </trkpt>
      <trkpt lat="48.79295" lon="6.68018">
        <ele>203.6</ele>
        <time>2021-07-30T12:35:21Z</time>
      </trkpt>
      <trkpt lat="48.79297" lon="6.68037">
        <ele>203.5</ele>
        <time>2021-07-30T12:35:23Z</time>
      </trkpt>
      <trkpt lat="48.79298" lon="6.68047">
        <ele>203.4</ele>
        <time>2021-07-30T12:35:24Z</time>
      </trkpt>
      <trkpt lat="48.79299" lon="6.68057">
        <ele>203.4</ele>
        <time>2021-07-30T12:35:25Z</time>
      </trkpt>
      <trkpt lat="48.79301" lon="6.68077">
        <ele>203.3</ele>
        <time>2021-07-30T12:35:27Z</time>
      </trkpt>
      <trkpt lat="48.79302" lon="6.68086">
        <ele>203.3</ele>
        <time>2021-07-30T12:35:28Z</time>
      </trkpt>
      <trkpt lat="48.79303" lon="6.68095">
        <ele>203.3</ele>
        <time>2021-07-30T12:35:29Z</time>
      </trkpt>
      <trkpt lat="48.79303" lon="6.68105">
        <ele>203.3</ele>
        <time>2021-07-30T12:35:30Z</time>
      </trkpt>
      <trkpt lat="48.79304" lon="6.68115">
        <ele>203.3</ele>
        <time>2021-07-30T12:35:31Z</time>
      </trkpt>
      <trkpt lat="48.79306" lon="6.68133">
        <ele>203.3</ele>
        <time>2021-07-30T12:35:33Z</time>
      </trkpt>
      <trkpt lat="48.79307" lon="6.68142">
        <ele>203.3</ele>
        <time>2021-07-30T12:35:34Z</time>
      </trkpt>
      <trkpt lat="48.79308" lon="6.6815">
        <ele>203.3</ele>
        <time>2021-07-30T12:35:35Z</time>
      </trkpt>
      <trkpt lat="48.79309" lon="6.68166">
        <ele>203.3</ele>
        <time>2021-07-30T12:35:37Z</time>
      </trkpt>
      <trkpt lat="48.7931" lon="6.68181">
        <ele>203.4</ele>
        <time>2021-07-30T12:35:39Z</time>
      </trkpt>
      <trkpt lat="48.79309" lon="6.68197">
        <ele>203.4</ele>
        <time>2021-07-30T12:35:41Z</time>
      </trkpt>
      <trkpt lat="48.7931" lon="6.68213">
        <ele>203.4</ele>
        <time>2021-07-30T12:35:43Z</time>
      </trkpt>
      <trkpt lat="48.79312" lon="6.68229">
        <ele>203.5</ele>
        <time>2021-07-30T12:35:45Z</time>
      </trkpt>
      <trkpt lat="48.79313" lon="6.68237">
        <ele>203.5</ele>
        <time>2021-07-30T12:35:46Z</time>
      </trkpt>
      <trkpt lat="48.79314" lon="6.68244">
        <ele>203.5</ele>
        <time>2021-07-30T12:35:47Z</time>
      </trkpt>
      <trkpt lat="48.79317" lon="6.68259">
        <ele>203.6</ele>
        <time>2021-07-30T12:35:49Z</time>
      </trkpt>
      <trkpt lat="48.7932" lon="6.68272">
        <ele>203.6</ele>
        <time>2021-07-30T12:35:51Z</time>
      </trkpt>
      <trkpt lat="48.79324" lon="6.68286">
        <ele>203.6</ele>
        <time>2021-07-30T12:35:53Z</time>
      </trkpt>
      <trkpt lat="48.79328" lon="6.68299">
        <ele>203.6</ele>
        <time>2021-07-30T12:35:55Z</time>
      </trkpt>
      <trkpt lat="48.79332" lon="6.68312">
        <ele>203.6</ele>
        <time>2021-07-30T12:35:57Z</time>
      </trkpt>
      <trkpt lat="48.79335" lon="6.68325">
        <ele>203.5</ele>
        <time>2021-07-30T12:35:59Z</time>
      </trkpt>
      <trkpt lat="48.79337" lon="6.68331">
        <ele>203.5</ele>
        <time>2021-07-30T12:36:00Z</time>
      </trkpt>
      <trkpt lat="48.79339" lon="6.68336">
        <ele>203.5</ele>
        <time>2021-07-30T12:36:01Z</time>
      </trkpt>
      <trkpt lat="48.79343" lon="6.68347">
        <ele>203.5</ele>
        <time>2021-07-30T12:36:03Z</time>
      </trkpt>
      <trkpt lat="48.79347" lon="6.68359">
        <ele>203.5</ele>
        <time>2021-07-30T12:36:05Z</time>
      </trkpt>
      <trkpt lat="48.79351" lon="6.68374">
        <ele>203.6</ele>
        <time>2021-07-30T12:36:07Z</time>
      </trkpt>
      <trkpt lat="48.79351" lon="6.68383">
        <ele>203.6</ele>
        <time>2021-07-30T12:36:09Z</time>
      </trkpt>
      <trkpt lat="48.79348" lon="6.68388">
        <ele>203.6</ele>
        <time>2021-07-30T12:36:10Z</time>
      </trkpt>
      <trkpt lat="48.79351" lon="6.68397">
        <ele>203.7</ele>
        <time>2021-07-30T12:36:12Z</time>
      </trkpt>
      <trkpt lat="48.79354" lon="6.68406">
        <ele>203.8</ele>
        <time>2021-07-30T12:36:13Z</time>
      </trkpt>
      <trkpt lat="48.79357" lon="6.68413">
        <ele>203.8</ele>
        <time>2021-07-30T12:36:14Z</time>
      </trkpt>
      <trkpt lat="48.79359" lon="6.68419">
        <ele>203.9</ele>
        <time>2021-07-30T12:36:15Z</time>
      </trkpt>
      <trkpt lat="48.7936" lon="6.6843">
        <ele>204</ele>
        <time>2021-07-30T12:36:16Z</time>
      </trkpt>
      <trkpt lat="48.79361" lon="6.68439">
        <ele>204</ele>
        <time>2021-07-30T12:36:18Z</time>
      </trkpt>
      <trkpt lat="48.79363" lon="6.68447">
        <ele>204.1</ele>
        <time>2021-07-30T12:36:19Z</time>
      </trkpt>
      <trkpt lat="48.79363" lon="6.68453">
        <ele>204.2</ele>
        <time>2021-07-30T12:36:20Z</time>
      </trkpt>
      <trkpt lat="48.79364" lon="6.68461">
        <ele>204.3</ele>
        <time>2021-07-30T12:36:22Z</time>
      </trkpt>
      <trkpt lat="48.79365" lon="6.68467">
        <ele>204.4</ele>
        <time>2021-07-30T12:36:23Z</time>
      </trkpt>
      <trkpt lat="48.79367" lon="6.68478">
        <ele>204.6</ele>
        <time>2021-07-30T12:36:24Z</time>
      </trkpt>
      <trkpt lat="48.79367" lon="6.68483">
        <ele>204.6</ele>
        <time>2021-07-30T12:36:25Z</time>
      </trkpt>
      <trkpt lat="48.79367" lon="6.68487">
        <ele>204.7</ele>
        <time>2021-07-30T12:36:26Z</time>
      </trkpt>
      <trkpt lat="48.79369" lon="6.68492">
        <ele>204.8</ele>
        <time>2021-07-30T12:36:27Z</time>
      </trkpt>
      <trkpt lat="48.7937" lon="6.68499">
        <ele>205</ele>
        <time>2021-07-30T12:36:29Z</time>
      </trkpt>
      <trkpt lat="48.79371" lon="6.68505">
        <ele>205.1</ele>
        <time>2021-07-30T12:36:30Z</time>
      </trkpt>
      <trkpt lat="48.79373" lon="6.6851">
        <ele>205.2</ele>
        <time>2021-07-30T12:36:31Z</time>
      </trkpt>
      <trkpt lat="48.79374" lon="6.68516">
        <ele>205.4</ele>
        <time>2021-07-30T12:36:32Z</time>
      </trkpt>
      <trkpt lat="48.79375" lon="6.68522">
        <ele>205.6</ele>
        <time>2021-07-30T12:36:33Z</time>
      </trkpt>
      <trkpt lat="48.79376" lon="6.68528">
        <ele>205.8</ele>
        <time>2021-07-30T12:36:34Z</time>
      </trkpt>
      <trkpt lat="48.79377" lon="6.68532">
        <ele>206</ele>
        <time>2021-07-30T12:36:35Z</time>
      </trkpt>
      <trkpt lat="48.79378" lon="6.68537">
        <ele>206.2</ele>
        <time>2021-07-30T12:36:36Z</time>
      </trkpt>
      <trkpt lat="48.79379" lon="6.68541">
        <ele>206.4</ele>
        <time>2021-07-30T12:36:37Z</time>
      </trkpt>
      <trkpt lat="48.79381" lon="6.68549">
        <ele>206.7</ele>
        <time>2021-07-30T12:36:39Z</time>
      </trkpt>
      <trkpt lat="48.79381" lon="6.68552">
        <ele>206.8</ele>
        <time>2021-07-30T12:36:40Z</time>
      </trkpt>
      <trkpt lat="48.79382" lon="6.68555">
        <ele>206.9</ele>
        <time>2021-07-30T12:36:41Z</time>
      </trkpt>
      <trkpt lat="48.79384" lon="6.68561">
        <ele>207.2</ele>
        <time>2021-07-30T12:36:42Z</time>
      </trkpt>
      <trkpt lat="48.79384" lon="6.68563">
        <ele>207.3</ele>
        <time>2021-07-30T12:36:43Z</time>
      </trkpt>
      <trkpt lat="48.79388" lon="6.68569">
        <ele>207.5</ele>
        <time>2021-07-30T12:36:45Z</time>
      </trkpt>
      <trkpt lat="48.7939" lon="6.68571">
        <ele>207.7</ele>
        <time>2021-07-30T12:36:46Z</time>
      </trkpt>
      <trkpt lat="48.79393" lon="6.68574">
        <ele>207.9</ele>
        <time>2021-07-30T12:36:47Z</time>
      </trkpt>
      <trkpt lat="48.79395" lon="6.68577">
        <ele>208</ele>
        <time>2021-07-30T12:36:48Z</time>
      </trkpt>
      <trkpt lat="48.79398" lon="6.68581">
        <ele>208.2</ele>
        <time>2021-07-30T12:36:49Z</time>
      </trkpt>
      <trkpt lat="48.794" lon="6.68585">
        <ele>208.4</ele>
        <time>2021-07-30T12:36:50Z</time>
      </trkpt>
      <trkpt lat="48.79402" lon="6.68591">
        <ele>208.6</ele>
        <time>2021-07-30T12:36:52Z</time>
      </trkpt>
      <trkpt lat="48.79403" lon="6.68595">
        <ele>208.8</ele>
        <time>2021-07-30T12:36:53Z</time>
      </trkpt>
      <trkpt lat="48.79404" lon="6.686">
        <ele>208.9</ele>
        <time>2021-07-30T12:36:54Z</time>
      </trkpt>
      <trkpt lat="48.79405" lon="6.68604">
        <ele>209</ele>
        <time>2021-07-30T12:36:55Z</time>
      </trkpt>
      <trkpt lat="48.79407" lon="6.68609">
        <ele>209.2</ele>
        <time>2021-07-30T12:36:57Z</time>
      </trkpt>
      <trkpt lat="48.79408" lon="6.68614">
        <ele>209.3</ele>
        <time>2021-07-30T12:36:58Z</time>
      </trkpt>
      <trkpt lat="48.79409" lon="6.68618">
        <ele>209.5</ele>
        <time>2021-07-30T12:36:59Z</time>
      </trkpt>
      <trkpt lat="48.79411" lon="6.68623">
        <ele>209.6</ele>
        <time>2021-07-30T12:37:00Z</time>
      </trkpt>
      <trkpt lat="48.79412" lon="6.68628">
        <ele>209.8</ele>
        <time>2021-07-30T12:37:01Z</time>
      </trkpt>
      <trkpt lat="48.79413" lon="6.68633">
        <ele>209.9</ele>
        <time>2021-07-30T12:37:02Z</time>
      </trkpt>
      <trkpt lat="48.79413" lon="6.68635">
        <ele>209.9</ele>
        <time>2021-07-30T12:37:03Z</time>
      </trkpt>
      <trkpt lat="48.79413" lon="6.68639">
        <ele>210</ele>
        <time>2021-07-30T12:37:04Z</time>
      </trkpt>
      <trkpt lat="48.79413" lon="6.68645">
        <ele>210.1</ele>
        <time>2021-07-30T12:37:06Z</time>
      </trkpt>
      <trkpt lat="48.79413" lon="6.68647">
        <ele>210.2</ele>
        <time>2021-07-30T12:37:07Z</time>
      </trkpt>
      <trkpt lat="48.79413" lon="6.68651">
        <ele>210.3</ele>
        <time>2021-07-30T12:37:08Z</time>
      </trkpt>
      <trkpt lat="48.79413" lon="6.68656">
        <ele>210.3</ele>
        <time>2021-07-30T12:37:09Z</time>
      </trkpt>
      <trkpt lat="48.79413" lon="6.68662">
        <ele>210.4</ele>
        <time>2021-07-30T12:37:10Z</time>
      </trkpt>
      <trkpt lat="48.79412" lon="6.68665">
        <ele>210.5</ele>
        <time>2021-07-30T12:37:11Z</time>
      </trkpt>
      <trkpt lat="48.79412" lon="6.68672">
        <ele>210.6</ele>
        <time>2021-07-30T12:37:13Z</time>
      </trkpt>
      <trkpt lat="48.79413" lon="6.68675">
        <ele>210.6</ele>
        <time>2021-07-30T12:37:14Z</time>
      </trkpt>
      <trkpt lat="48.79413" lon="6.68683">
        <ele>210.7</ele>
        <time>2021-07-30T12:37:16Z</time>
      </trkpt>
      <trkpt lat="48.79413" lon="6.68685">
        <ele>210.8</ele>
        <time>2021-07-30T12:37:17Z</time>
      </trkpt>
      <trkpt lat="48.79413" lon="6.68688">
        <ele>210.8</ele>
        <time>2021-07-30T12:37:18Z</time>
      </trkpt>
      <trkpt lat="48.79414" lon="6.68692">
        <ele>210.9</ele>
        <time>2021-07-30T12:37:19Z</time>
      </trkpt>
      <trkpt lat="48.79415" lon="6.68697">
        <ele>210.9</ele>
        <time>2021-07-30T12:37:20Z</time>
      </trkpt>
      <trkpt lat="48.79416" lon="6.68703">
        <ele>211</ele>
        <time>2021-07-30T12:37:21Z</time>
      </trkpt>
      <trkpt lat="48.79416" lon="6.68705">
        <ele>211</ele>
        <time>2021-07-30T12:37:22Z</time>
      </trkpt>
      <trkpt lat="48.79416" lon="6.68714">
        <ele>211.1</ele>
        <time>2021-07-30T12:37:24Z</time>
      </trkpt>
      <trkpt lat="48.79416" lon="6.6872">
        <ele>211.2</ele>
        <time>2021-07-30T12:37:25Z</time>
      </trkpt>
      <trkpt lat="48.79417" lon="6.68725">
        <ele>211.3</ele>
        <time>2021-07-30T12:37:26Z</time>
      </trkpt>
      <trkpt lat="48.79417" lon="6.68727">
        <ele>211.3</ele>
        <time>2021-07-30T12:37:27Z</time>
      </trkpt>
      <trkpt lat="48.79418" lon="6.68733">
        <ele>211.4</ele>
        <time>2021-07-30T12:37:28Z</time>
      </trkpt>
      <trkpt lat="48.79419" lon="6.68735">
        <ele>211.4</ele>
        <time>2021-07-30T12:37:29Z</time>
      </trkpt>
      <trkpt lat="48.79421" lon="6.68741">
        <ele>211.5</ele>
        <time>2021-07-30T12:37:31Z</time>
      </trkpt>
      <trkpt lat="48.79423" lon="6.68746">
        <ele>211.5</ele>
        <time>2021-07-30T12:37:32Z</time>
      </trkpt>
      <trkpt lat="48.79424" lon="6.68751">
        <ele>211.6</ele>
        <time>2021-07-30T12:37:33Z</time>
      </trkpt>
      <trkpt lat="48.79425" lon="6.68756">
        <ele>211.7</ele>
        <time>2021-07-30T12:37:35Z</time>
      </trkpt>
      <trkpt lat="48.79426" lon="6.68761">
        <ele>211.8</ele>
        <time>2021-07-30T12:37:36Z</time>
      </trkpt>
      <trkpt lat="48.79426" lon="6.68765">
        <ele>211.8</ele>
        <time>2021-07-30T12:37:37Z</time>
      </trkpt>
      <trkpt lat="48.79427" lon="6.68771">
        <ele>211.9</ele>
        <time>2021-07-30T12:37:39Z</time>
      </trkpt>
      <trkpt lat="48.79429" lon="6.68778">
        <ele>212</ele>
        <time>2021-07-30T12:37:40Z</time>
      </trkpt>
      <trkpt lat="48.7943" lon="6.68782">
        <ele>212</ele>
        <time>2021-07-30T12:37:41Z</time>
      </trkpt>
      <trkpt lat="48.79432" lon="6.68788">
        <ele>212.1</ele>
        <time>2021-07-30T12:37:43Z</time>
      </trkpt>
      <trkpt lat="48.79433" lon="6.68792">
        <ele>212.2</ele>
        <time>2021-07-30T12:37:44Z</time>
      </trkpt>
      <trkpt lat="48.79435" lon="6.68795">
        <ele>212.3</ele>
        <time>2021-07-30T12:37:45Z</time>
      </trkpt>
      <trkpt lat="48.79437" lon="6.688">
        <ele>212.3</ele>
        <time>2021-07-30T12:37:46Z</time>
      </trkpt>
      <trkpt lat="48.79439" lon="6.68805">
        <ele>212.4</ele>
        <time>2021-07-30T12:37:47Z</time>
      </trkpt>
      <trkpt lat="48.7944" lon="6.68811">
        <ele>212.5</ele>
        <time>2021-07-30T12:37:48Z</time>
      </trkpt>
      <trkpt lat="48.79441" lon="6.68816">
        <ele>212.6</ele>
        <time>2021-07-30T12:37:49Z</time>
      </trkpt>
      <trkpt lat="48.79445" lon="6.68821">
        <ele>212.7</ele>
        <time>2021-07-30T12:37:51Z</time>
      </trkpt>
      <trkpt lat="48.79447" lon="6.68826">
        <ele>212.8</ele>
        <time>2021-07-30T12:37:52Z</time>
      </trkpt>
      <trkpt lat="48.7945" lon="6.68831">
        <ele>212.9</ele>
        <time>2021-07-30T12:37:53Z</time>
      </trkpt>
      <trkpt lat="48.79453" lon="6.68836">
        <ele>213</ele>
        <time>2021-07-30T12:37:54Z</time>
      </trkpt>
      <trkpt lat="48.79456" lon="6.68839">
        <ele>213</ele>
        <time>2021-07-30T12:37:55Z</time>
      </trkpt>
      <trkpt lat="48.79459" lon="6.68843">
        <ele>213.1</ele>
        <time>2021-07-30T12:37:57Z</time>
      </trkpt>
      <trkpt lat="48.79461" lon="6.68849">
        <ele>213.2</ele>
        <time>2021-07-30T12:37:58Z</time>
      </trkpt>
      <trkpt lat="48.79461" lon="6.68852">
        <ele>213.2</ele>
        <time>2021-07-30T12:37:59Z</time>
      </trkpt>
      <trkpt lat="48.79461" lon="6.68857">
        <ele>213.3</ele>
        <time>2021-07-30T12:38:00Z</time>
      </trkpt>
      <trkpt lat="48.79461" lon="6.68861">
        <ele>213.3</ele>
        <time>2021-07-30T12:38:01Z</time>
      </trkpt>
      <trkpt lat="48.79463" lon="6.68865">
        <ele>213.4</ele>
        <time>2021-07-30T12:38:03Z</time>
      </trkpt>
      <trkpt lat="48.79464" lon="6.68869">
        <ele>213.4</ele>
        <time>2021-07-30T12:38:04Z</time>
      </trkpt>
      <trkpt lat="48.79466" lon="6.68871">
        <ele>213.4</ele>
        <time>2021-07-30T12:38:05Z</time>
      </trkpt>
      <trkpt lat="48.79469" lon="6.68878">
        <ele>213.5</ele>
        <time>2021-07-30T12:38:07Z</time>
      </trkpt>
      <trkpt lat="48.79471" lon="6.68884">
        <ele>213.6</ele>
        <time>2021-07-30T12:38:08Z</time>
      </trkpt>
      <trkpt lat="48.79472" lon="6.68889">
        <ele>213.6</ele>
        <time>2021-07-30T12:38:09Z</time>
      </trkpt>
      <trkpt lat="48.79473" lon="6.68893">
        <ele>213.7</ele>
        <time>2021-07-30T12:38:10Z</time>
      </trkpt>
      <trkpt lat="48.79476" lon="6.68898">
        <ele>213.7</ele>
        <time>2021-07-30T12:38:12Z</time>
      </trkpt>
      <trkpt lat="48.79478" lon="6.68903">
        <ele>213.8</ele>
        <time>2021-07-30T12:38:13Z</time>
      </trkpt>
      <trkpt lat="48.79479" lon="6.68908">
        <ele>213.8</ele>
        <time>2021-07-30T12:38:14Z</time>
      </trkpt>
      <trkpt lat="48.79481" lon="6.68911">
        <ele>213.8</ele>
        <time>2021-07-30T12:38:15Z</time>
      </trkpt>
      <trkpt lat="48.79482" lon="6.68916">
        <ele>213.9</ele>
        <time>2021-07-30T12:38:16Z</time>
      </trkpt>
      <trkpt lat="48.79482" lon="6.6892">
        <ele>213.9</ele>
        <time>2021-07-30T12:38:17Z</time>
      </trkpt>
      <trkpt lat="48.79483" lon="6.68924">
        <ele>213.9</ele>
        <time>2021-07-30T12:38:18Z</time>
      </trkpt>
      <trkpt lat="48.79484" lon="6.68928">
        <ele>214</ele>
        <time>2021-07-30T12:38:19Z</time>
      </trkpt>
      <trkpt lat="48.79486" lon="6.68936">
        <ele>214</ele>
        <time>2021-07-30T12:38:21Z</time>
      </trkpt>
      <trkpt lat="48.79488" lon="6.6894">
        <ele>214.1</ele>
        <time>2021-07-30T12:38:22Z</time>
      </trkpt>
      <trkpt lat="48.79489" lon="6.68944">
        <ele>214.1</ele>
        <time>2021-07-30T12:38:23Z</time>
      </trkpt>
      <trkpt lat="48.79489" lon="6.6895">
        <ele>214.1</ele>
        <time>2021-07-30T12:38:24Z</time>
      </trkpt>
      <trkpt lat="48.7949" lon="6.68952">
        <ele>214.2</ele>
        <time>2021-07-30T12:38:25Z</time>
      </trkpt>
      <trkpt lat="48.79492" lon="6.68961">
        <ele>214.2</ele>
        <time>2021-07-30T12:38:27Z</time>
      </trkpt>
      <trkpt lat="48.79494" lon="6.68965">
        <ele>214.2</ele>
        <time>2021-07-30T12:38:28Z</time>
      </trkpt>
      <trkpt lat="48.79495" lon="6.68969">
        <ele>214.3</ele>
        <time>2021-07-30T12:38:29Z</time>
      </trkpt>
      <trkpt lat="48.79496" lon="6.68977">
        <ele>214.3</ele>
        <time>2021-07-30T12:38:31Z</time>
      </trkpt>
      <trkpt lat="48.79497" lon="6.68981">
        <ele>214.3</ele>
        <time>2021-07-30T12:38:32Z</time>
      </trkpt>
      <trkpt lat="48.79499" lon="6.68986">
        <ele>214.3</ele>
        <time>2021-07-30T12:38:33Z</time>
      </trkpt>
      <trkpt lat="48.795" lon="6.68991">
        <ele>214.4</ele>
        <time>2021-07-30T12:38:34Z</time>
      </trkpt>
      <trkpt lat="48.79501" lon="6.68996">
        <ele>214.4</ele>
        <time>2021-07-30T12:38:35Z</time>
      </trkpt>
      <trkpt lat="48.79503" lon="6.69006">
        <ele>214.5</ele>
        <time>2021-07-30T12:38:37Z</time>
      </trkpt>
      <trkpt lat="48.79505" lon="6.69013">
        <ele>214.5</ele>
        <time>2021-07-30T12:38:38Z</time>
      </trkpt>
      <trkpt lat="48.79506" lon="6.69018">
        <ele>214.6</ele>
        <time>2021-07-30T12:38:39Z</time>
      </trkpt>
      <trkpt lat="48.79508" lon="6.69023">
        <ele>214.6</ele>
        <time>2021-07-30T12:38:40Z</time>
      </trkpt>
      <trkpt lat="48.79509" lon="6.69028">
        <ele>214.7</ele>
        <time>2021-07-30T12:38:41Z</time>
      </trkpt>
      <trkpt lat="48.79511" lon="6.69038">
        <ele>214.8</ele>
        <time>2021-07-30T12:38:43Z</time>
      </trkpt>
      <trkpt lat="48.79513" lon="6.69045">
        <ele>214.8</ele>
        <time>2021-07-30T12:38:44Z</time>
      </trkpt>
      <trkpt lat="48.79515" lon="6.69055">
        <ele>214.9</ele>
        <time>2021-07-30T12:38:46Z</time>
      </trkpt>
      <trkpt lat="48.79516" lon="6.69061">
        <ele>215</ele>
        <time>2021-07-30T12:38:47Z</time>
      </trkpt>
      <trkpt lat="48.79518" lon="6.69067">
        <ele>215.1</ele>
        <time>2021-07-30T12:38:48Z</time>
      </trkpt>
      <trkpt lat="48.79519" lon="6.69073">
        <ele>215.2</ele>
        <time>2021-07-30T12:38:49Z</time>
      </trkpt>
      <trkpt lat="48.79522" lon="6.69082">
        <ele>215.3</ele>
        <time>2021-07-30T12:38:51Z</time>
      </trkpt>
      <trkpt lat="48.79523" lon="6.69089">
        <ele>215.4</ele>
        <time>2021-07-30T12:38:52Z</time>
      </trkpt>
      <trkpt lat="48.79526" lon="6.69097">
        <ele>215.5</ele>
        <time>2021-07-30T12:38:54Z</time>
      </trkpt>
      <trkpt lat="48.79527" lon="6.69101">
        <ele>215.5</ele>
        <time>2021-07-30T12:38:55Z</time>
      </trkpt>
      <trkpt lat="48.79528" lon="6.69105">
        <ele>215.6</ele>
        <time>2021-07-30T12:38:56Z</time>
      </trkpt>
      <trkpt lat="48.79529" lon="6.69109">
        <ele>215.6</ele>
        <time>2021-07-30T12:38:57Z</time>
      </trkpt>
      <trkpt lat="48.79531" lon="6.69115">
        <ele>215.7</ele>
        <time>2021-07-30T12:38:59Z</time>
      </trkpt>
      <trkpt lat="48.79532" lon="6.69122">
        <ele>215.8</ele>
        <time>2021-07-30T12:39:00Z</time>
      </trkpt>
      <trkpt lat="48.79533" lon="6.69128">
        <ele>215.8</ele>
        <time>2021-07-30T12:39:01Z</time>
      </trkpt>
      <trkpt lat="48.79533" lon="6.69135">
        <ele>215.9</ele>
        <time>2021-07-30T12:39:03Z</time>
      </trkpt>
      <trkpt lat="48.79534" lon="6.69141">
        <ele>216</ele>
        <time>2021-07-30T12:39:04Z</time>
      </trkpt>
      <trkpt lat="48.79535" lon="6.6915">
        <ele>216.1</ele>
        <time>2021-07-30T12:39:06Z</time>
      </trkpt>
      <trkpt lat="48.79536" lon="6.69157">
        <ele>216.2</ele>
        <time>2021-07-30T12:39:08Z</time>
      </trkpt>
      <trkpt lat="48.79536" lon="6.69161">
        <ele>216.3</ele>
        <time>2021-07-30T12:39:09Z</time>
      </trkpt>
      <trkpt lat="48.79536" lon="6.69169">
        <ele>216.4</ele>
        <time>2021-07-30T12:39:11Z</time>
      </trkpt>
      <trkpt lat="48.79538" lon="6.69175">
        <ele>216.5</ele>
        <time>2021-07-30T12:39:12Z</time>
      </trkpt>
      <trkpt lat="48.79538" lon="6.69176">
        <ele>216.5</ele>
        <time>2021-07-30T12:39:13Z</time>
      </trkpt>
      <trkpt lat="48.79538" lon="6.69179">
        <ele>216.6</ele>
        <time>2021-07-30T12:39:14Z</time>
      </trkpt>
      <trkpt lat="48.79539" lon="6.69185">
        <ele>216.7</ele>
        <time>2021-07-30T12:39:16Z</time>
      </trkpt>
      <trkpt lat="48.7954" lon="6.69189">
        <ele>216.7</ele>
        <time>2021-07-30T12:39:17Z</time>
      </trkpt>
      <trkpt lat="48.79543" lon="6.69195">
        <ele>216.8</ele>
        <time>2021-07-30T12:39:19Z</time>
      </trkpt>
      <trkpt lat="48.79545" lon="6.692">
        <ele>216.9</ele>
        <time>2021-07-30T12:39:20Z</time>
      </trkpt>
      <trkpt lat="48.79548" lon="6.69202">
        <ele>217</ele>
        <time>2021-07-30T12:39:21Z</time>
      </trkpt>
      <trkpt lat="48.79551" lon="6.69206">
        <ele>217.1</ele>
        <time>2021-07-30T12:39:22Z</time>
      </trkpt>
      <trkpt lat="48.79551" lon="6.69207">
        <ele>217.1</ele>
        <time>2021-07-30T12:39:23Z</time>
      </trkpt>
      <trkpt lat="48.79553" lon="6.6921">
        <ele>217.1</ele>
        <time>2021-07-30T12:39:24Z</time>
      </trkpt>
      <trkpt lat="48.79555" lon="6.69215">
        <ele>217.2</ele>
        <time>2021-07-30T12:39:26Z</time>
      </trkpt>
      <trkpt lat="48.79556" lon="6.69219">
        <ele>217.2</ele>
        <time>2021-07-30T12:39:27Z</time>
      </trkpt>
      <trkpt lat="48.79556" lon="6.69221">
        <ele>217.3</ele>
        <time>2021-07-30T12:39:28Z</time>
      </trkpt>
      <trkpt lat="48.79555" lon="6.69224">
        <ele>217.3</ele>
        <time>2021-07-30T12:39:30Z</time>
      </trkpt>
      <trkpt lat="48.79555" lon="6.69225">
        <ele>217.3</ele>
        <time>2021-07-30T12:39:31Z</time>
      </trkpt>
      <trkpt lat="48.79555" lon="6.69229">
        <ele>217.4</ele>
        <time>2021-07-30T12:39:33Z</time>
      </trkpt>
      <trkpt lat="48.79555" lon="6.69234">
        <ele>217.4</ele>
        <time>2021-07-30T12:39:34Z</time>
      </trkpt>
      <trkpt lat="48.79556" lon="6.69238">
        <ele>217.4</ele>
        <time>2021-07-30T12:39:35Z</time>
      </trkpt>
      <trkpt lat="48.79556" lon="6.69245">
        <ele>217.5</ele>
        <time>2021-07-30T12:39:37Z</time>
      </trkpt>
      <trkpt lat="48.79557" lon="6.69252">
        <ele>217.6</ele>
        <time>2021-07-30T12:39:38Z</time>
      </trkpt>
      <trkpt lat="48.79559" lon="6.69261">
        <ele>217.7</ele>
        <time>2021-07-30T12:39:40Z</time>
      </trkpt>
      <trkpt lat="48.7956" lon="6.69265">
        <ele>217.7</ele>
        <time>2021-07-30T12:39:41Z</time>
      </trkpt>
      <trkpt lat="48.79561" lon="6.69269">
        <ele>217.8</ele>
        <time>2021-07-30T12:39:42Z</time>
      </trkpt>
      <trkpt lat="48.79562" lon="6.69276">
        <ele>217.8</ele>
        <time>2021-07-30T12:39:44Z</time>
      </trkpt>
      <trkpt lat="48.79563" lon="6.69281">
        <ele>217.9</ele>
        <time>2021-07-30T12:39:45Z</time>
      </trkpt>
      <trkpt lat="48.79564" lon="6.69286">
        <ele>217.9</ele>
        <time>2021-07-30T12:39:47Z</time>
      </trkpt>
      <trkpt lat="48.79565" lon="6.69291">
        <ele>218</ele>
        <time>2021-07-30T12:39:48Z</time>
      </trkpt>
      <trkpt lat="48.79565" lon="6.69295">
        <ele>218</ele>
        <time>2021-07-30T12:39:50Z</time>
      </trkpt>
      <trkpt lat="48.79566" lon="6.69301">
        <ele>218</ele>
        <time>2021-07-30T12:39:51Z</time>
      </trkpt>
      <trkpt lat="48.79568" lon="6.69308">
        <ele>218.1</ele>
        <time>2021-07-30T12:39:52Z</time>
      </trkpt>
      <trkpt lat="48.7957" lon="6.69313">
        <ele>218.1</ele>
        <time>2021-07-30T12:39:53Z</time>
      </trkpt>
      <trkpt lat="48.79573" lon="6.69321">
        <ele>218.1</ele>
        <time>2021-07-30T12:39:55Z</time>
      </trkpt>
      <trkpt lat="48.79575" lon="6.69327">
        <ele>218.1</ele>
        <time>2021-07-30T12:39:56Z</time>
      </trkpt>
      <trkpt lat="48.79577" lon="6.69337">
        <ele>218</ele>
        <time>2021-07-30T12:39:57Z</time>
      </trkpt>
      <trkpt lat="48.79579" lon="6.69348">
        <ele>217.9</ele>
        <time>2021-07-30T12:39:59Z</time>
      </trkpt>
      <trkpt lat="48.79579" lon="6.69356">
        <ele>217.8</ele>
        <time>2021-07-30T12:40:00Z</time>
      </trkpt>
      <trkpt lat="48.79579" lon="6.69368">
        <ele>217.6</ele>
        <time>2021-07-30T12:40:02Z</time>
      </trkpt>
      <trkpt lat="48.79577" lon="6.69384">
        <ele>217.4</ele>
        <time>2021-07-30T12:40:03Z</time>
      </trkpt>
      <trkpt lat="48.79575" lon="6.69399">
        <ele>217.2</ele>
        <time>2021-07-30T12:40:05Z</time>
      </trkpt>
      <trkpt lat="48.79576" lon="6.69418">
        <ele>216.9</ele>
        <time>2021-07-30T12:40:07Z</time>
      </trkpt>
      <trkpt lat="48.79578" lon="6.69436">
        <ele>216.6</ele>
        <time>2021-07-30T12:40:09Z</time>
      </trkpt>
      <trkpt lat="48.79582" lon="6.69451">
        <ele>216.3</ele>
        <time>2021-07-30T12:40:11Z</time>
      </trkpt>
      <trkpt lat="48.79587" lon="6.69466">
        <ele>216.1</ele>
        <time>2021-07-30T12:40:13Z</time>
      </trkpt>
      <trkpt lat="48.79592" lon="6.69482">
        <ele>215.9</ele>
        <time>2021-07-30T12:40:15Z</time>
      </trkpt>
      <trkpt lat="48.79594" lon="6.69489">
        <ele>215.8</ele>
        <time>2021-07-30T12:40:16Z</time>
      </trkpt>
      <trkpt lat="48.79597" lon="6.69496">
        <ele>215.7</ele>
        <time>2021-07-30T12:40:17Z</time>
      </trkpt>
      <trkpt lat="48.79603" lon="6.6951">
        <ele>215.6</ele>
        <time>2021-07-30T12:40:19Z</time>
      </trkpt>
      <trkpt lat="48.79609" lon="6.69525">
        <ele>215.5</ele>
        <time>2021-07-30T12:40:21Z</time>
      </trkpt>
      <trkpt lat="48.79612" lon="6.69533">
        <ele>215.4</ele>
        <time>2021-07-30T12:40:22Z</time>
      </trkpt>
      <trkpt lat="48.79619" lon="6.69548">
        <ele>215.3</ele>
        <time>2021-07-30T12:40:24Z</time>
      </trkpt>
      <trkpt lat="48.79622" lon="6.69556">
        <ele>215.3</ele>
        <time>2021-07-30T12:40:25Z</time>
      </trkpt>
      <trkpt lat="48.79624" lon="6.69569">
        <ele>215.2</ele>
        <time>2021-07-30T12:40:27Z</time>
      </trkpt>
      <trkpt lat="48.79627" lon="6.69577">
        <ele>215.1</ele>
        <time>2021-07-30T12:40:28Z</time>
      </trkpt>
      <trkpt lat="48.7963" lon="6.69586">
        <ele>215</ele>
        <time>2021-07-30T12:40:29Z</time>
      </trkpt>
      <trkpt lat="48.79636" lon="6.696">
        <ele>214.8</ele>
        <time>2021-07-30T12:40:31Z</time>
      </trkpt>
      <trkpt lat="48.79643" lon="6.69613">
        <ele>214.7</ele>
        <time>2021-07-30T12:40:33Z</time>
      </trkpt>
      <trkpt lat="48.79651" lon="6.69629">
        <ele>214.5</ele>
        <time>2021-07-30T12:40:35Z</time>
      </trkpt>
      <trkpt lat="48.79658" lon="6.69645">
        <ele>214.5</ele>
        <time>2021-07-30T12:40:37Z</time>
      </trkpt>
      <trkpt lat="48.79663" lon="6.6966">
        <ele>214.5</ele>
        <time>2021-07-30T12:40:39Z</time>
      </trkpt>
      <trkpt lat="48.79669" lon="6.69672">
        <ele>214.5</ele>
        <time>2021-07-30T12:40:41Z</time>
      </trkpt>
      <trkpt lat="48.79672" lon="6.69678">
        <ele>214.5</ele>
        <time>2021-07-30T12:40:42Z</time>
      </trkpt>
      <trkpt lat="48.79677" lon="6.69687">
        <ele>214.5</ele>
        <time>2021-07-30T12:40:44Z</time>
      </trkpt>
      <trkpt lat="48.7968" lon="6.69694">
        <ele>214.5</ele>
        <time>2021-07-30T12:40:45Z</time>
      </trkpt>
      <trkpt lat="48.79684" lon="6.697">
        <ele>214.5</ele>
        <time>2021-07-30T12:40:46Z</time>
      </trkpt>
      <trkpt lat="48.79689" lon="6.69707">
        <ele>214.6</ele>
        <time>2021-07-30T12:40:47Z</time>
      </trkpt>
      <trkpt lat="48.79697" lon="6.69723">
        <ele>214.7</ele>
        <time>2021-07-30T12:40:49Z</time>
      </trkpt>
      <trkpt lat="48.79705" lon="6.69737">
        <ele>214.8</ele>
        <time>2021-07-30T12:40:51Z</time>
      </trkpt>
      <trkpt lat="48.79708" lon="6.69744">
        <ele>214.9</ele>
        <time>2021-07-30T12:40:52Z</time>
      </trkpt>
      <trkpt lat="48.79712" lon="6.69751">
        <ele>215</ele>
        <time>2021-07-30T12:40:53Z</time>
      </trkpt>
      <trkpt lat="48.79718" lon="6.69764">
        <ele>215.1</ele>
        <time>2021-07-30T12:40:55Z</time>
      </trkpt>
      <trkpt lat="48.79722" lon="6.69776">
        <ele>215.2</ele>
        <time>2021-07-30T12:40:57Z</time>
      </trkpt>
      <trkpt lat="48.79723" lon="6.6978">
        <ele>215.3</ele>
        <time>2021-07-30T12:40:58Z</time>
      </trkpt>
      <trkpt lat="48.79725" lon="6.69785">
        <ele>215.3</ele>
        <time>2021-07-30T12:40:59Z</time>
      </trkpt>
      <trkpt lat="48.7973" lon="6.69793">
        <ele>215.4</ele>
        <time>2021-07-30T12:41:01Z</time>
      </trkpt>
      <trkpt lat="48.79737" lon="6.69803">
        <ele>215.5</ele>
        <time>2021-07-30T12:41:03Z</time>
      </trkpt>
      <trkpt lat="48.79737" lon="6.69812">
        <ele>215.5</ele>
        <time>2021-07-30T12:41:04Z</time>
      </trkpt>
      <trkpt lat="48.79738" lon="6.69817">
        <ele>215.5</ele>
        <time>2021-07-30T12:41:05Z</time>
      </trkpt>
      <trkpt lat="48.79743" lon="6.69823">
        <ele>215.5</ele>
        <time>2021-07-30T12:41:07Z</time>
      </trkpt>
      <trkpt lat="48.79748" lon="6.6983">
        <ele>215.5</ele>
        <time>2021-07-30T12:41:08Z</time>
      </trkpt>
      <trkpt lat="48.79752" lon="6.69835">
        <ele>215.5</ele>
        <time>2021-07-30T12:41:09Z</time>
      </trkpt>
      <trkpt lat="48.79759" lon="6.69841">
        <ele>215.5</ele>
        <time>2021-07-30T12:41:10Z</time>
      </trkpt>
      <trkpt lat="48.79763" lon="6.69849">
        <ele>215.5</ele>
        <time>2021-07-30T12:41:12Z</time>
      </trkpt>
      <trkpt lat="48.79768" lon="6.69858">
        <ele>215.5</ele>
        <time>2021-07-30T12:41:13Z</time>
      </trkpt>
      <trkpt lat="48.79775" lon="6.6987">
        <ele>215.4</ele>
        <time>2021-07-30T12:41:15Z</time>
      </trkpt>
      <trkpt lat="48.79778" lon="6.69875">
        <ele>215.3</ele>
        <time>2021-07-30T12:41:16Z</time>
      </trkpt>
      <trkpt lat="48.79783" lon="6.69887">
        <ele>215.1</ele>
        <time>2021-07-30T12:41:18Z</time>
      </trkpt>
      <trkpt lat="48.79784" lon="6.69896">
        <ele>215</ele>
        <time>2021-07-30T12:41:19Z</time>
      </trkpt>
      <trkpt lat="48.79789" lon="6.69912">
        <ele>214.8</ele>
        <time>2021-07-30T12:41:21Z</time>
      </trkpt>
      <trkpt lat="48.79792" lon="6.69921">
        <ele>214.7</ele>
        <time>2021-07-30T12:41:22Z</time>
      </trkpt>
      <trkpt lat="48.79796" lon="6.69941">
        <ele>214.6</ele>
        <time>2021-07-30T12:41:24Z</time>
      </trkpt>
      <trkpt lat="48.798" lon="6.69951">
        <ele>214.7</ele>
        <time>2021-07-30T12:41:25Z</time>
      </trkpt>
      <trkpt lat="48.79805" lon="6.69969">
        <ele>214.8</ele>
        <time>2021-07-30T12:41:27Z</time>
      </trkpt>
      <trkpt lat="48.79807" lon="6.69977">
        <ele>214.9</ele>
        <time>2021-07-30T12:41:28Z</time>
      </trkpt>
      <trkpt lat="48.7981" lon="6.69986">
        <ele>215</ele>
        <time>2021-07-30T12:41:29Z</time>
      </trkpt>
      <trkpt lat="48.79814" lon="6.70001">
        <ele>215.3</ele>
        <time>2021-07-30T12:41:31Z</time>
      </trkpt>
      <trkpt lat="48.79817" lon="6.70008">
        <ele>215.5</ele>
        <time>2021-07-30T12:41:32Z</time>
      </trkpt>
      <trkpt lat="48.79822" lon="6.70018">
        <ele>215.9</ele>
        <time>2021-07-30T12:41:34Z</time>
      </trkpt>
      <trkpt lat="48.79824" lon="6.70025">
        <ele>216</ele>
        <time>2021-07-30T12:41:35Z</time>
      </trkpt>
      <trkpt lat="48.79827" lon="6.70036">
        <ele>216.3</ele>
        <time>2021-07-30T12:41:37Z</time>
      </trkpt>
      <trkpt lat="48.79833" lon="6.70044">
        <ele>216.5</ele>
        <time>2021-07-30T12:41:39Z</time>
      </trkpt>
      <trkpt lat="48.79839" lon="6.70049">
        <ele>216.6</ele>
        <time>2021-07-30T12:41:40Z</time>
      </trkpt>
      <trkpt lat="48.79842" lon="6.70055">
        <ele>216.7</ele>
        <time>2021-07-30T12:41:42Z</time>
      </trkpt>
      <trkpt lat="48.79846" lon="6.70059">
        <ele>216.7</ele>
        <time>2021-07-30T12:41:43Z</time>
      </trkpt>
      <trkpt lat="48.7985" lon="6.70064">
        <ele>216.8</ele>
        <time>2021-07-30T12:41:45Z</time>
      </trkpt>
      <trkpt lat="48.79854" lon="6.7007">
        <ele>216.9</ele>
        <time>2021-07-30T12:41:47Z</time>
      </trkpt>
      <trkpt lat="48.79857" lon="6.70078">
        <ele>216.9</ele>
        <time>2021-07-30T12:41:48Z</time>
      </trkpt>
      <trkpt lat="48.7986" lon="6.70085">
        <ele>216.9</ele>
        <time>2021-07-30T12:41:50Z</time>
      </trkpt>
      <trkpt lat="48.79864" lon="6.70092">
        <ele>216.9</ele>
        <time>2021-07-30T12:41:51Z</time>
      </trkpt>
      <trkpt lat="48.79866" lon="6.70098">
        <ele>216.9</ele>
        <time>2021-07-30T12:41:52Z</time>
      </trkpt>
      <trkpt lat="48.79867" lon="6.70105">
        <ele>217</ele>
        <time>2021-07-30T12:41:53Z</time>
      </trkpt>
      <trkpt lat="48.79868" lon="6.70112">
        <ele>217</ele>
        <time>2021-07-30T12:41:54Z</time>
      </trkpt>
      <trkpt lat="48.79868" lon="6.70119">
        <ele>217</ele>
        <time>2021-07-30T12:41:55Z</time>
      </trkpt>
      <trkpt lat="48.79869" lon="6.70127">
        <ele>217</ele>
        <time>2021-07-30T12:41:56Z</time>
      </trkpt>
      <trkpt lat="48.7987" lon="6.70138">
        <ele>217</ele>
        <time>2021-07-30T12:41:58Z</time>
      </trkpt>
      <trkpt lat="48.79873" lon="6.7015">
        <ele>217.1</ele>
        <time>2021-07-30T12:42:00Z</time>
      </trkpt>
      <trkpt lat="48.79877" lon="6.70158">
        <ele>217.1</ele>
        <time>2021-07-30T12:42:01Z</time>
      </trkpt>
      <trkpt lat="48.7988" lon="6.70165">
        <ele>217.1</ele>
        <time>2021-07-30T12:42:03Z</time>
      </trkpt>
      <trkpt lat="48.79885" lon="6.70177">
        <ele>217.1</ele>
        <time>2021-07-30T12:42:04Z</time>
      </trkpt>
      <trkpt lat="48.79886" lon="6.70186">
        <ele>217.1</ele>
        <time>2021-07-30T12:42:05Z</time>
      </trkpt>
      <trkpt lat="48.79888" lon="6.70198">
        <ele>217.2</ele>
        <time>2021-07-30T12:42:07Z</time>
      </trkpt>
      <trkpt lat="48.7989" lon="6.70206">
        <ele>217.2</ele>
        <time>2021-07-30T12:42:09Z</time>
      </trkpt>
      <trkpt lat="48.79892" lon="6.70216">
        <ele>217.2</ele>
        <time>2021-07-30T12:42:10Z</time>
      </trkpt>
      <trkpt lat="48.79894" lon="6.70228">
        <ele>217.3</ele>
        <time>2021-07-30T12:42:12Z</time>
      </trkpt>
      <trkpt lat="48.79896" lon="6.70235">
        <ele>217.3</ele>
        <time>2021-07-30T12:42:13Z</time>
      </trkpt>
      <trkpt lat="48.79898" lon="6.70242">
        <ele>217.4</ele>
        <time>2021-07-30T12:42:14Z</time>
      </trkpt>
      <trkpt lat="48.799" lon="6.70249">
        <ele>217.4</ele>
        <time>2021-07-30T12:42:15Z</time>
      </trkpt>
      <trkpt lat="48.79903" lon="6.70257">
        <ele>217.5</ele>
        <time>2021-07-30T12:42:16Z</time>
      </trkpt>
      <trkpt lat="48.79906" lon="6.70262">
        <ele>217.6</ele>
        <time>2021-07-30T12:42:17Z</time>
      </trkpt>
      <trkpt lat="48.79915" lon="6.70278">
        <ele>217.7</ele>
        <time>2021-07-30T12:42:19Z</time>
      </trkpt>
      <trkpt lat="48.79918" lon="6.70287">
        <ele>217.8</ele>
        <time>2021-07-30T12:42:21Z</time>
      </trkpt>
      <trkpt lat="48.7992" lon="6.70294">
        <ele>217.8</ele>
        <time>2021-07-30T12:42:22Z</time>
      </trkpt>
      <trkpt lat="48.79922" lon="6.70299">
        <ele>217.8</ele>
        <time>2021-07-30T12:42:23Z</time>
      </trkpt>
      <trkpt lat="48.79924" lon="6.70306">
        <ele>217.8</ele>
        <time>2021-07-30T12:42:24Z</time>
      </trkpt>
      <trkpt lat="48.79927" lon="6.70312">
        <ele>217.8</ele>
        <time>2021-07-30T12:42:25Z</time>
      </trkpt>
      <trkpt lat="48.7993" lon="6.70319">
        <ele>217.8</ele>
        <time>2021-07-30T12:42:26Z</time>
      </trkpt>
      <trkpt lat="48.79934" lon="6.70325">
        <ele>217.8</ele>
        <time>2021-07-30T12:42:27Z</time>
      </trkpt>
      <trkpt lat="48.79937" lon="6.70332">
        <ele>217.7</ele>
        <time>2021-07-30T12:42:29Z</time>
      </trkpt>
      <trkpt lat="48.79946" lon="6.70348">
        <ele>217.6</ele>
        <time>2021-07-30T12:42:30Z</time>
      </trkpt>
      <trkpt lat="48.79952" lon="6.70357">
        <ele>217.5</ele>
        <time>2021-07-30T12:42:31Z</time>
      </trkpt>
      <trkpt lat="48.79958" lon="6.70372">
        <ele>217.4</ele>
        <time>2021-07-30T12:42:33Z</time>
      </trkpt>
      <trkpt lat="48.79961" lon="6.7038">
        <ele>217.4</ele>
        <time>2021-07-30T12:42:34Z</time>
      </trkpt>
      <trkpt lat="48.79963" lon="6.70386">
        <ele>217.3</ele>
        <time>2021-07-30T12:42:35Z</time>
      </trkpt>
      <trkpt lat="48.79965" lon="6.70392">
        <ele>217.3</ele>
        <time>2021-07-30T12:42:36Z</time>
      </trkpt>
      <trkpt lat="48.79968" lon="6.70399">
        <ele>217.3</ele>
        <time>2021-07-30T12:42:37Z</time>
      </trkpt>
      <trkpt lat="48.79975" lon="6.70413">
        <ele>217.2</ele>
        <time>2021-07-30T12:42:39Z</time>
      </trkpt>
      <trkpt lat="48.79977" lon="6.70421">
        <ele>217.1</ele>
        <time>2021-07-30T12:42:40Z</time>
      </trkpt>
      <trkpt lat="48.79979" lon="6.70429">
        <ele>217.1</ele>
        <time>2021-07-30T12:42:41Z</time>
      </trkpt>
      <trkpt lat="48.79981" lon="6.70435">
        <ele>217</ele>
        <time>2021-07-30T12:42:42Z</time>
      </trkpt>
      <trkpt lat="48.79983" lon="6.70438">
        <ele>217</ele>
        <time>2021-07-30T12:42:43Z</time>
      </trkpt>
      <trkpt lat="48.79989" lon="6.7045">
        <ele>216.9</ele>
        <time>2021-07-30T12:42:45Z</time>
      </trkpt>
      <trkpt lat="48.7999" lon="6.7046">
        <ele>216.8</ele>
        <time>2021-07-30T12:42:46Z</time>
      </trkpt>
      <trkpt lat="48.79994" lon="6.70471">
        <ele>216.7</ele>
        <time>2021-07-30T12:42:48Z</time>
      </trkpt>
      <trkpt lat="48.79995" lon="6.70477">
        <ele>216.7</ele>
        <time>2021-07-30T12:42:49Z</time>
      </trkpt>
      <trkpt lat="48.79999" lon="6.70487">
        <ele>216.6</ele>
        <time>2021-07-30T12:42:51Z</time>
      </trkpt>
      <trkpt lat="48.80002" lon="6.70489">
        <ele>216.5</ele>
        <time>2021-07-30T12:42:52Z</time>
      </trkpt>
      <trkpt lat="48.80005" lon="6.70492">
        <ele>216.5</ele>
        <time>2021-07-30T12:42:53Z</time>
      </trkpt>
      <trkpt lat="48.8001" lon="6.70496">
        <ele>216.4</ele>
        <time>2021-07-30T12:42:55Z</time>
      </trkpt>
      <trkpt lat="48.80012" lon="6.70501">
        <ele>216.4</ele>
        <time>2021-07-30T12:42:56Z</time>
      </trkpt>
      <trkpt lat="48.80016" lon="6.70507">
        <ele>216.4</ele>
        <time>2021-07-30T12:42:58Z</time>
      </trkpt>
      <trkpt lat="48.80018" lon="6.70509">
        <ele>216.3</ele>
        <time>2021-07-30T12:42:59Z</time>
      </trkpt>
      <trkpt lat="48.80023" lon="6.70511">
        <ele>216.3</ele>
        <time>2021-07-30T12:43:01Z</time>
      </trkpt>
      <trkpt lat="48.80028" lon="6.70514">
        <ele>216.2</ele>
        <time>2021-07-30T12:43:03Z</time>
      </trkpt>
      <trkpt lat="48.80034" lon="6.70515">
        <ele>216</ele>
        <time>2021-07-30T12:43:05Z</time>
      </trkpt>
      <trkpt lat="48.80038" lon="6.70512">
        <ele>215.9</ele>
        <time>2021-07-30T12:43:06Z</time>
      </trkpt>
      <trkpt lat="48.8004" lon="6.70512">
        <ele>215.8</ele>
        <time>2021-07-30T12:43:08Z</time>
      </trkpt>
      <trkpt lat="48.80042" lon="6.70511">
        <ele>215.7</ele>
        <time>2021-07-30T12:43:09Z</time>
      </trkpt>
      <trkpt lat="48.80047" lon="6.70509">
        <ele>215.5</ele>
        <time>2021-07-30T12:43:11Z</time>
      </trkpt>
      <trkpt lat="48.8005" lon="6.70508">
        <ele>215.4</ele>
        <time>2021-07-30T12:43:12Z</time>
      </trkpt>
      <trkpt lat="48.80057" lon="6.7051">
        <ele>215.1</ele>
        <time>2021-07-30T12:43:13Z</time>
      </trkpt>
      <trkpt lat="48.80074" lon="6.70515">
        <ele>214.4</ele>
        <time>2021-07-30T12:43:15Z</time>
      </trkpt>
      <trkpt lat="48.80088" lon="6.7052">
        <ele>213.9</ele>
        <time>2021-07-30T12:43:17Z</time>
      </trkpt>
      <trkpt lat="48.80095" lon="6.70521">
        <ele>213.7</ele>
        <time>2021-07-30T12:43:18Z</time>
      </trkpt>
      <trkpt lat="48.80101" lon="6.70522">
        <ele>213.5</ele>
        <time>2021-07-30T12:43:19Z</time>
      </trkpt>
      <trkpt lat="48.80107" lon="6.70527">
        <ele>213.3</ele>
        <time>2021-07-30T12:43:20Z</time>
      </trkpt>
      <trkpt lat="48.80118" lon="6.70535">
        <ele>213</ele>
        <time>2021-07-30T12:43:22Z</time>
      </trkpt>
      <trkpt lat="48.80124" lon="6.70537">
        <ele>212.9</ele>
        <time>2021-07-30T12:43:23Z</time>
      </trkpt>
      <trkpt lat="48.8013" lon="6.7054">
        <ele>212.8</ele>
        <time>2021-07-30T12:43:24Z</time>
      </trkpt>
      <trkpt lat="48.80137" lon="6.70543">
        <ele>212.8</ele>
        <time>2021-07-30T12:43:25Z</time>
      </trkpt>
      <trkpt lat="48.80141" lon="6.70547">
        <ele>212.8</ele>
        <time>2021-07-30T12:43:26Z</time>
      </trkpt>
      <trkpt lat="48.80147" lon="6.70553">
        <ele>212.7</ele>
        <time>2021-07-30T12:43:28Z</time>
      </trkpt>
      <trkpt lat="48.80153" lon="6.70555">
        <ele>212.7</ele>
        <time>2021-07-30T12:43:29Z</time>
      </trkpt>
      <trkpt lat="48.80167" lon="6.70557">
        <ele>212.6</ele>
        <time>2021-07-30T12:43:31Z</time>
      </trkpt>
      <trkpt lat="48.80185" lon="6.70554">
        <ele>212.4</ele>
        <time>2021-07-30T12:43:33Z</time>
      </trkpt>
      <trkpt lat="48.80195" lon="6.70552">
        <ele>212.3</ele>
        <time>2021-07-30T12:43:34Z</time>
      </trkpt>
      <trkpt lat="48.80206" lon="6.7055">
        <ele>212.2</ele>
        <time>2021-07-30T12:43:35Z</time>
      </trkpt>
      <trkpt lat="48.80223" lon="6.70547">
        <ele>212</ele>
        <time>2021-07-30T12:43:37Z</time>
      </trkpt>
      <trkpt lat="48.80229" lon="6.7055">
        <ele>211.9</ele>
        <time>2021-07-30T12:43:38Z</time>
      </trkpt>
      <trkpt lat="48.8023" lon="6.70551">
        <ele>211.9</ele>
        <time>2021-07-30T12:43:40Z</time>
      </trkpt>
      <trkpt lat="48.80231" lon="6.70553">
        <ele>211.8</ele>
        <time>2021-07-30T12:43:41Z</time>
      </trkpt>
      <trkpt lat="48.80234" lon="6.70555">
        <ele>211.8</ele>
        <time>2021-07-30T12:43:42Z</time>
      </trkpt>
      <trkpt lat="48.80236" lon="6.70557">
        <ele>211.8</ele>
        <time>2021-07-30T12:43:43Z</time>
      </trkpt>
      <trkpt lat="48.8024" lon="6.7056">
        <ele>211.7</ele>
        <time>2021-07-30T12:43:44Z</time>
      </trkpt>
      <trkpt lat="48.80241" lon="6.7056">
        <ele>211.7</ele>
        <time>2021-07-30T12:43:45Z</time>
      </trkpt>
      <trkpt lat="48.80242" lon="6.70561">
        <ele>211.7</ele>
        <time>2021-07-30T12:43:47Z</time>
      </trkpt>
      <trkpt lat="48.80406" lon="6.70719">
        <ele>209.6</ele>
        <time>2021-07-30T12:44:17Z</time>
      </trkpt>
      <trkpt lat="48.80424" lon="6.70734">
        <ele>209.6</ele>
        <time>2021-07-30T12:44:19Z</time>
      </trkpt>
      <trkpt lat="48.80431" lon="6.70748">
        <ele>209.6</ele>
        <time>2021-07-30T12:44:21Z</time>
      </trkpt>
      <trkpt lat="48.80439" lon="6.70761">
        <ele>209.6</ele>
        <time>2021-07-30T12:44:23Z</time>
      </trkpt>
      <trkpt lat="48.80445" lon="6.70773">
        <ele>209.6</ele>
        <time>2021-07-30T12:44:25Z</time>
      </trkpt>
      <trkpt lat="48.80447" lon="6.70786">
        <ele>209.6</ele>
        <time>2021-07-30T12:44:27Z</time>
      </trkpt>
      <trkpt lat="48.80448" lon="6.70792">
        <ele>209.6</ele>
        <time>2021-07-30T12:44:28Z</time>
      </trkpt>
      <trkpt lat="48.80449" lon="6.70796">
        <ele>209.6</ele>
        <time>2021-07-30T12:44:29Z</time>
      </trkpt>
      <trkpt lat="48.80455" lon="6.70804">
        <ele>209.6</ele>
        <time>2021-07-30T12:44:31Z</time>
      </trkpt>
      <trkpt lat="48.80465" lon="6.70808">
        <ele>209.2</ele>
        <time>2021-07-30T12:44:33Z</time>
      </trkpt>
      <trkpt lat="48.80471" lon="6.70808">
        <ele>209</ele>
        <time>2021-07-30T12:44:34Z</time>
      </trkpt>
      <trkpt lat="48.80481" lon="6.70807">
        <ele>208.7</ele>
        <time>2021-07-30T12:44:36Z</time>
      </trkpt>
      <trkpt lat="48.80488" lon="6.70807">
        <ele>208.5</ele>
        <time>2021-07-30T12:44:37Z</time>
      </trkpt>
      <trkpt lat="48.80499" lon="6.70812">
        <ele>208.2</ele>
        <time>2021-07-30T12:44:39Z</time>
      </trkpt>
      <trkpt lat="48.80504" lon="6.70814">
        <ele>208.1</ele>
        <time>2021-07-30T12:44:40Z</time>
      </trkpt>
      <trkpt lat="48.80515" lon="6.7082">
        <ele>207.8</ele>
        <time>2021-07-30T12:44:42Z</time>
      </trkpt>
      <trkpt lat="48.8052" lon="6.70823">
        <ele>207.7</ele>
        <time>2021-07-30T12:44:43Z</time>
      </trkpt>
      <trkpt lat="48.80531" lon="6.70832">
        <ele>207.5</ele>
        <time>2021-07-30T12:44:45Z</time>
      </trkpt>
      <trkpt lat="48.80537" lon="6.70837">
        <ele>207.4</ele>
        <time>2021-07-30T12:44:46Z</time>
      </trkpt>
      <trkpt lat="48.80547" lon="6.70848">
        <ele>207.3</ele>
        <time>2021-07-30T12:44:48Z</time>
      </trkpt>
      <trkpt lat="48.80551" lon="6.70856">
        <ele>207.3</ele>
        <time>2021-07-30T12:44:49Z</time>
      </trkpt>
      <trkpt lat="48.8056" lon="6.70873">
        <ele>207.4</ele>
        <time>2021-07-30T12:44:51Z</time>
      </trkpt>
      <trkpt lat="48.80568" lon="6.7089">
        <ele>207.6</ele>
        <time>2021-07-30T12:44:53Z</time>
      </trkpt>
      <trkpt lat="48.80572" lon="6.709">
        <ele>207.7</ele>
        <time>2021-07-30T12:44:54Z</time>
      </trkpt>
      <trkpt lat="48.80575" lon="6.7091">
        <ele>207.8</ele>
        <time>2021-07-30T12:44:55Z</time>
      </trkpt>
      <trkpt lat="48.80577" lon="6.7093">
        <ele>208.1</ele>
        <time>2021-07-30T12:44:57Z</time>
      </trkpt>
      <trkpt lat="48.80578" lon="6.70949">
        <ele>208.5</ele>
        <time>2021-07-30T12:44:59Z</time>
      </trkpt>
      <trkpt lat="48.80579" lon="6.70966">
        <ele>208.8</ele>
        <time>2021-07-30T12:45:01Z</time>
      </trkpt>
      <trkpt lat="48.8058" lon="6.7098">
        <ele>209.2</ele>
        <time>2021-07-30T12:45:03Z</time>
      </trkpt>
      <trkpt lat="48.80583" lon="6.70985">
        <ele>209.3</ele>
        <time>2021-07-30T12:45:04Z</time>
      </trkpt>
      <trkpt lat="48.80584" lon="6.70988">
        <ele>209.4</ele>
        <time>2021-07-30T12:45:05Z</time>
      </trkpt>
      <trkpt lat="48.80588" lon="6.70999">
        <ele>209.7</ele>
        <time>2021-07-30T12:45:07Z</time>
      </trkpt>
      <trkpt lat="48.80594" lon="6.71006">
        <ele>209.9</ele>
        <time>2021-07-30T12:45:09Z</time>
      </trkpt>
      <trkpt lat="48.80596" lon="6.71009">
        <ele>210</ele>
        <time>2021-07-30T12:45:10Z</time>
      </trkpt>
      <trkpt lat="48.80598" lon="6.71013">
        <ele>210.1</ele>
        <time>2021-07-30T12:45:11Z</time>
      </trkpt>
      <trkpt lat="48.806" lon="6.71016">
        <ele>210.2</ele>
        <time>2021-07-30T12:45:12Z</time>
      </trkpt>
      <trkpt lat="48.80602" lon="6.71017">
        <ele>210.2</ele>
        <time>2021-07-30T12:45:14Z</time>
      </trkpt>
      <trkpt lat="48.80602" lon="6.7102">
        <ele>210.3</ele>
        <time>2021-07-30T12:45:15Z</time>
      </trkpt>
      <trkpt lat="48.80604" lon="6.7103">
        <ele>210.4</ele>
        <time>2021-07-30T12:45:16Z</time>
      </trkpt>
      <trkpt lat="48.80607" lon="6.71042">
        <ele>210.6</ele>
        <time>2021-07-30T12:45:18Z</time>
      </trkpt>
      <trkpt lat="48.80609" lon="6.71048">
        <ele>210.6</ele>
        <time>2021-07-30T12:45:19Z</time>
      </trkpt>
      <trkpt lat="48.80611" lon="6.71053">
        <ele>210.7</ele>
        <time>2021-07-30T12:45:20Z</time>
      </trkpt>
      <trkpt lat="48.80617" lon="6.71063">
        <ele>210.7</ele>
        <time>2021-07-30T12:45:22Z</time>
      </trkpt>
      <trkpt lat="48.8062" lon="6.71068">
        <ele>210.7</ele>
        <time>2021-07-30T12:45:23Z</time>
      </trkpt>
      <trkpt lat="48.80626" lon="6.71078">
        <ele>210.6</ele>
        <time>2021-07-30T12:45:25Z</time>
      </trkpt>
      <trkpt lat="48.8063" lon="6.71083">
        <ele>210.6</ele>
        <time>2021-07-30T12:45:26Z</time>
      </trkpt>
      <trkpt lat="48.80634" lon="6.71094">
        <ele>210.5</ele>
        <time>2021-07-30T12:45:28Z</time>
      </trkpt>
      <trkpt lat="48.80637" lon="6.71107">
        <ele>210.4</ele>
        <time>2021-07-30T12:45:30Z</time>
      </trkpt>
      <trkpt lat="48.80641" lon="6.71121">
        <ele>210.2</ele>
        <time>2021-07-30T12:45:32Z</time>
      </trkpt>
      <trkpt lat="48.80644" lon="6.71129">
        <ele>210.1</ele>
        <time>2021-07-30T12:45:33Z</time>
      </trkpt>
      <trkpt lat="48.80646" lon="6.71138">
        <ele>210</ele>
        <time>2021-07-30T12:45:35Z</time>
      </trkpt>
      <trkpt lat="48.80647" lon="6.71144">
        <ele>210</ele>
        <time>2021-07-30T12:45:36Z</time>
      </trkpt>
      <trkpt lat="48.80649" lon="6.71154">
        <ele>209.8</ele>
        <time>2021-07-30T12:45:37Z</time>
      </trkpt>
      <trkpt lat="48.8065" lon="6.71165">
        <ele>209.7</ele>
        <time>2021-07-30T12:45:39Z</time>
      </trkpt>
      <trkpt lat="48.80652" lon="6.71171">
        <ele>209.7</ele>
        <time>2021-07-30T12:45:40Z</time>
      </trkpt>
      <trkpt lat="48.80653" lon="6.71178">
        <ele>209.6</ele>
        <time>2021-07-30T12:45:41Z</time>
      </trkpt>
      <trkpt lat="48.80655" lon="6.71194">
        <ele>209.5</ele>
        <time>2021-07-30T12:45:43Z</time>
      </trkpt>
      <trkpt lat="48.80657" lon="6.71209">
        <ele>209.4</ele>
        <time>2021-07-30T12:45:45Z</time>
      </trkpt>
      <trkpt lat="48.8066" lon="6.71223">
        <ele>209.4</ele>
        <time>2021-07-30T12:45:47Z</time>
      </trkpt>
      <trkpt lat="48.80664" lon="6.71236">
        <ele>209.3</ele>
        <time>2021-07-30T12:45:49Z</time>
      </trkpt>
      <trkpt lat="48.80668" lon="6.71251">
        <ele>209.2</ele>
        <time>2021-07-30T12:45:51Z</time>
      </trkpt>
      <trkpt lat="48.80671" lon="6.71258">
        <ele>209.1</ele>
        <time>2021-07-30T12:45:52Z</time>
      </trkpt>
      <trkpt lat="48.80675" lon="6.71272">
        <ele>209</ele>
        <time>2021-07-30T12:45:54Z</time>
      </trkpt>
      <trkpt lat="48.80678" lon="6.71278">
        <ele>209</ele>
        <time>2021-07-30T12:45:55Z</time>
      </trkpt>
      <trkpt lat="48.80683" lon="6.71291">
        <ele>208.9</ele>
        <time>2021-07-30T12:45:57Z</time>
      </trkpt>
      <trkpt lat="48.80684" lon="6.71298">
        <ele>208.9</ele>
        <time>2021-07-30T12:45:58Z</time>
      </trkpt>
      <trkpt lat="48.80687" lon="6.71312">
        <ele>208.9</ele>
        <time>2021-07-30T12:46:00Z</time>
      </trkpt>
      <trkpt lat="48.80688" lon="6.71316">
        <ele>208.8</ele>
        <time>2021-07-30T12:46:01Z</time>
      </trkpt>
      <trkpt lat="48.8069" lon="6.7132">
        <ele>208.8</ele>
        <time>2021-07-30T12:46:02Z</time>
      </trkpt>
      <trkpt lat="48.80693" lon="6.71329">
        <ele>208.7</ele>
        <time>2021-07-30T12:46:04Z</time>
      </trkpt>
      <trkpt lat="48.80694" lon="6.71335">
        <ele>208.7</ele>
        <time>2021-07-30T12:46:05Z</time>
      </trkpt>
      <trkpt lat="48.80695" lon="6.71346">
        <ele>208.7</ele>
        <time>2021-07-30T12:46:07Z</time>
      </trkpt>
      <trkpt lat="48.80693" lon="6.71343">
        <ele>208.6</ele>
        <time>2021-07-30T12:46:08Z</time>
      </trkpt>
      <trkpt lat="48.80696" lon="6.71359">
        <ele>208.6</ele>
        <time>2021-07-30T12:46:09Z</time>
      </trkpt>
      <trkpt lat="48.80698" lon="6.71366">
        <ele>208.6</ele>
        <time>2021-07-30T12:46:11Z</time>
      </trkpt>
      <trkpt lat="48.80703" lon="6.71376">
        <ele>208.6</ele>
        <time>2021-07-30T12:46:12Z</time>
      </trkpt>
      <trkpt lat="48.80704" lon="6.71382">
        <ele>208.6</ele>
        <time>2021-07-30T12:46:14Z</time>
      </trkpt>
      <trkpt lat="48.80705" lon="6.71388">
        <ele>208.6</ele>
        <time>2021-07-30T12:46:15Z</time>
      </trkpt>
      <trkpt lat="48.80705" lon="6.71397">
        <ele>208.6</ele>
        <time>2021-07-30T12:46:17Z</time>
      </trkpt>
      <trkpt lat="48.80707" lon="6.71405">
        <ele>208.6</ele>
        <time>2021-07-30T12:46:18Z</time>
      </trkpt>
      <trkpt lat="48.80708" lon="6.71413">
        <ele>208.6</ele>
        <time>2021-07-30T12:46:20Z</time>
      </trkpt>
      <trkpt lat="48.80707" lon="6.71418">
        <ele>208.6</ele>
        <time>2021-07-30T12:46:21Z</time>
      </trkpt>
      <trkpt lat="48.8071" lon="6.71423">
        <ele>208.5</ele>
        <time>2021-07-30T12:46:22Z</time>
      </trkpt>
      <trkpt lat="48.80713" lon="6.71427">
        <ele>208.5</ele>
        <time>2021-07-30T12:46:24Z</time>
      </trkpt>
      <trkpt lat="48.80714" lon="6.71424">
        <ele>208.5</ele>
        <time>2021-07-30T12:46:25Z</time>
      </trkpt>
      <trkpt lat="48.80714" lon="6.71421">
        <ele>208.5</ele>
        <time>2021-07-30T12:46:26Z</time>
      </trkpt>
      <trkpt lat="48.80714" lon="6.71412">
        <ele>208.4</ele>
        <time>2021-07-30T12:46:28Z</time>
      </trkpt>
      <trkpt lat="48.80714" lon="6.71408">
        <ele>208.4</ele>
        <time>2021-07-30T12:46:29Z</time>
      </trkpt>
      <trkpt lat="48.80711" lon="6.71398">
        <ele>208.4</ele>
        <time>2021-07-30T12:46:31Z</time>
      </trkpt>
      <trkpt lat="48.80709" lon="6.71393">
        <ele>208.3</ele>
        <time>2021-07-30T12:46:32Z</time>
      </trkpt>
      <trkpt lat="48.80707" lon="6.71391">
        <ele>208.3</ele>
        <time>2021-07-30T12:46:33Z</time>
      </trkpt>
      <trkpt lat="48.80705" lon="6.71391">
        <ele>208.3</ele>
        <time>2021-07-30T12:46:35Z</time>
      </trkpt>
      <trkpt lat="48.80705" lon="6.71391">
        <ele>208.3</ele>
        <time>2021-07-30T12:46:36Z</time>
      </trkpt>
      <trkpt lat="48.80705" lon="6.71392">
        <ele>208.3</ele>
        <time>2021-07-30T12:46:37Z</time>
      </trkpt>
      <trkpt lat="48.80705" lon="6.71392">
        <ele>208.3</ele>
        <time>2021-07-30T12:46:38Z</time>
      </trkpt>
      <trkpt lat="48.80705" lon="6.71392">
        <ele>208.3</ele>
        <time>2021-07-30T12:46:40Z</time>
      </trkpt>
      <trkpt lat="48.80705" lon="6.71392">
        <ele>208.3</ele>
        <time>2021-07-30T12:46:42Z</time>
      </trkpt>
      <trkpt lat="48.80705" lon="6.71393">
        <ele>208.3</ele>
        <time>2021-07-30T12:46:44Z</time>
      </trkpt>
      <trkpt lat="48.80712" lon="6.71408">
        <ele>208.2</ele>
        <time>2021-07-30T12:47:00Z</time>
      </trkpt>
      <trkpt lat="48.80715" lon="6.71418">
        <ele>208.1</ele>
        <time>2021-07-30T12:47:02Z</time>
      </trkpt>
      <trkpt lat="48.80718" lon="6.71441">
        <ele>208</ele>
        <time>2021-07-30T12:47:03Z</time>
      </trkpt>
      <trkpt lat="48.80719" lon="6.71448">
        <ele>208</ele>
        <time>2021-07-30T12:47:04Z</time>
      </trkpt>
      <trkpt lat="48.80723" lon="6.71462">
        <ele>207.9</ele>
        <time>2021-07-30T12:47:06Z</time>
      </trkpt>
      <trkpt lat="48.80725" lon="6.71469">
        <ele>207.9</ele>
        <time>2021-07-30T12:47:07Z</time>
      </trkpt>
      <trkpt lat="48.80728" lon="6.71479">
        <ele>207.9</ele>
        <time>2021-07-30T12:47:08Z</time>
      </trkpt>
      <trkpt lat="48.80732" lon="6.71495">
        <ele>207.8</ele>
        <time>2021-07-30T12:47:10Z</time>
      </trkpt>
      <trkpt lat="48.80734" lon="6.71503">
        <ele>207.8</ele>
        <time>2021-07-30T12:47:11Z</time>
      </trkpt>
      <trkpt lat="48.8074" lon="6.71518">
        <ele>207.7</ele>
        <time>2021-07-30T12:47:13Z</time>
      </trkpt>
      <trkpt lat="48.80743" lon="6.71534">
        <ele>207.6</ele>
        <time>2021-07-30T12:47:15Z</time>
      </trkpt>
      <trkpt lat="48.80745" lon="6.71551">
        <ele>207.6</ele>
        <time>2021-07-30T12:47:17Z</time>
      </trkpt>
      <trkpt lat="48.80746" lon="6.71573">
        <ele>207.4</ele>
        <time>2021-07-30T12:47:19Z</time>
      </trkpt>
      <trkpt lat="48.80748" lon="6.71594">
        <ele>207.2</ele>
        <time>2021-07-30T12:47:21Z</time>
      </trkpt>
      <trkpt lat="48.80749" lon="6.71602">
        <ele>207</ele>
        <time>2021-07-30T12:47:22Z</time>
      </trkpt>
      <trkpt lat="48.80749" lon="6.71611">
        <ele>206.9</ele>
        <time>2021-07-30T12:47:23Z</time>
      </trkpt>
      <trkpt lat="48.8075" lon="6.7163">
        <ele>206.6</ele>
        <time>2021-07-30T12:47:25Z</time>
      </trkpt>
      <trkpt lat="48.8075" lon="6.71648">
        <ele>206.3</ele>
        <time>2021-07-30T12:47:27Z</time>
      </trkpt>
      <trkpt lat="48.80751" lon="6.71657">
        <ele>206.2</ele>
        <time>2021-07-30T12:47:28Z</time>
      </trkpt>
      <trkpt lat="48.80753" lon="6.71665">
        <ele>206.1</ele>
        <time>2021-07-30T12:47:29Z</time>
      </trkpt>
      <trkpt lat="48.80758" lon="6.7168">
        <ele>206</ele>
        <time>2021-07-30T12:47:31Z</time>
      </trkpt>
      <trkpt lat="48.80764" lon="6.7169">
        <ele>206</ele>
        <time>2021-07-30T12:47:33Z</time>
      </trkpt>
      <trkpt lat="48.80771" lon="6.71697">
        <ele>205.9</ele>
        <time>2021-07-30T12:47:35Z</time>
      </trkpt>
      <trkpt lat="48.80779" lon="6.71701">
        <ele>205.9</ele>
        <time>2021-07-30T12:47:37Z</time>
      </trkpt>
      <trkpt lat="48.80786" lon="6.71705">
        <ele>205.8</ele>
        <time>2021-07-30T12:47:39Z</time>
      </trkpt>
      <trkpt lat="48.80793" lon="6.7171">
        <ele>205.7</ele>
        <time>2021-07-30T12:47:41Z</time>
      </trkpt>
      <trkpt lat="48.80798" lon="6.71709">
        <ele>205.7</ele>
        <time>2021-07-30T12:47:42Z</time>
      </trkpt>
      <trkpt lat="48.80808" lon="6.71714">
        <ele>205.5</ele>
        <time>2021-07-30T12:47:44Z</time>
      </trkpt>
      <trkpt lat="48.80813" lon="6.71714">
        <ele>205.5</ele>
        <time>2021-07-30T12:47:45Z</time>
      </trkpt>
      <trkpt lat="48.80817" lon="6.71713">
        <ele>205.6</ele>
        <time>2021-07-30T12:47:47Z</time>
      </trkpt>
      <trkpt lat="48.80822" lon="6.71717">
        <ele>205.6</ele>
        <time>2021-07-30T12:47:48Z</time>
      </trkpt>
      <trkpt lat="48.80826" lon="6.71718">
        <ele>205.6</ele>
        <time>2021-07-30T12:47:49Z</time>
      </trkpt>
      <trkpt lat="48.80831" lon="6.71719">
        <ele>205.6</ele>
        <time>2021-07-30T12:47:50Z</time>
      </trkpt>
      <trkpt lat="48.80834" lon="6.7172">
        <ele>205.6</ele>
        <time>2021-07-30T12:47:51Z</time>
      </trkpt>
      <trkpt lat="48.80836" lon="6.71722">
        <ele>205.6</ele>
        <time>2021-07-30T12:47:53Z</time>
      </trkpt>
      <trkpt lat="48.80833" lon="6.71729">
        <ele>205.7</ele>
        <time>2021-07-30T12:47:55Z</time>
      </trkpt>
      <trkpt lat="48.80833" lon="6.71733">
        <ele>205.7</ele>
        <time>2021-07-30T12:47:56Z</time>
      </trkpt>
      <trkpt lat="48.80835" lon="6.71739">
        <ele>205.7</ele>
        <time>2021-07-30T12:47:57Z</time>
      </trkpt>
      <trkpt lat="48.80836" lon="6.71741">
        <ele>205.7</ele>
        <time>2021-07-30T12:47:58Z</time>
      </trkpt>
      <trkpt lat="48.80839" lon="6.71746">
        <ele>205.8</ele>
        <time>2021-07-30T12:48:00Z</time>
      </trkpt>
      <trkpt lat="48.80842" lon="6.71751">
        <ele>205.8</ele>
        <time>2021-07-30T12:48:01Z</time>
      </trkpt>
      <trkpt lat="48.80842" lon="6.71756">
        <ele>205.8</ele>
        <time>2021-07-30T12:48:03Z</time>
      </trkpt>
      <trkpt lat="48.80844" lon="6.71765">
        <ele>205.9</ele>
        <time>2021-07-30T12:48:05Z</time>
      </trkpt>
      <trkpt lat="48.80844" lon="6.71776">
        <ele>205.9</ele>
        <time>2021-07-30T12:48:06Z</time>
      </trkpt>
      <trkpt lat="48.80844" lon="6.71782">
        <ele>205.9</ele>
        <time>2021-07-30T12:48:07Z</time>
      </trkpt>
      <trkpt lat="48.80845" lon="6.71787">
        <ele>205.9</ele>
        <time>2021-07-30T12:48:09Z</time>
      </trkpt>
      <trkpt lat="48.80846" lon="6.71788">
        <ele>205.9</ele>
        <time>2021-07-30T12:48:10Z</time>
      </trkpt>
      <trkpt lat="48.80847" lon="6.71791">
        <ele>205.9</ele>
        <time>2021-07-30T12:48:11Z</time>
      </trkpt>
      <trkpt lat="48.80848" lon="6.71796">
        <ele>205.9</ele>
        <time>2021-07-30T12:48:13Z</time>
      </trkpt>
      <trkpt lat="48.80836" lon="6.71816">
        <ele>205.4</ele>
        <time>2021-07-30T12:48:25Z</time>
      </trkpt>
      <trkpt lat="48.80823" lon="6.71824">
        <ele>205.2</ele>
        <time>2021-07-30T12:48:27Z</time>
      </trkpt>
      <trkpt lat="48.80818" lon="6.71827">
        <ele>205.1</ele>
        <time>2021-07-30T12:48:28Z</time>
      </trkpt>
      <trkpt lat="48.80809" lon="6.71836">
        <ele>205.1</ele>
        <time>2021-07-30T12:48:29Z</time>
      </trkpt>
      <trkpt lat="48.80803" lon="6.71843">
        <ele>205.1</ele>
        <time>2021-07-30T12:48:30Z</time>
      </trkpt>
      <trkpt lat="48.808" lon="6.71845">
        <ele>205.1</ele>
        <time>2021-07-30T12:48:32Z</time>
      </trkpt>
      <trkpt lat="48.80797" lon="6.71848">
        <ele>205.1</ele>
        <time>2021-07-30T12:48:34Z</time>
      </trkpt>
      <trkpt lat="48.80794" lon="6.7185">
        <ele>205.1</ele>
        <time>2021-07-30T12:48:35Z</time>
      </trkpt>
      <trkpt lat="48.8079" lon="6.71851">
        <ele>205.1</ele>
        <time>2021-07-30T12:48:36Z</time>
      </trkpt>
      <trkpt lat="48.80786" lon="6.71853">
        <ele>205.2</ele>
        <time>2021-07-30T12:48:37Z</time>
      </trkpt>
      <trkpt lat="48.80777" lon="6.71856">
        <ele>205.2</ele>
        <time>2021-07-30T12:48:38Z</time>
      </trkpt>
      <trkpt lat="48.80772" lon="6.71858">
        <ele>205.2</ele>
        <time>2021-07-30T12:48:40Z</time>
      </trkpt>
      <trkpt lat="48.80765" lon="6.71859">
        <ele>205.2</ele>
        <time>2021-07-30T12:48:42Z</time>
      </trkpt>
      <trkpt lat="48.8076" lon="6.7186">
        <ele>205.2</ele>
        <time>2021-07-30T12:48:44Z</time>
      </trkpt>
      <trkpt lat="48.80756" lon="6.71862">
        <ele>205.2</ele>
        <time>2021-07-30T12:48:45Z</time>
      </trkpt>
      <trkpt lat="48.80755" lon="6.71862">
        <ele>205.3</ele>
        <time>2021-07-30T12:48:46Z</time>
      </trkpt>
      <trkpt lat="48.8075" lon="6.71864">
        <ele>205.3</ele>
        <time>2021-07-30T12:48:48Z</time>
      </trkpt>
      <trkpt lat="48.80744" lon="6.71864">
        <ele>205.3</ele>
        <time>2021-07-30T12:48:50Z</time>
      </trkpt>
      <trkpt lat="48.80742" lon="6.71864">
        <ele>205.4</ele>
        <time>2021-07-30T12:48:51Z</time>
      </trkpt>
      <trkpt lat="48.80741" lon="6.71864">
        <ele>205.4</ele>
        <time>2021-07-30T12:48:52Z</time>
      </trkpt>
      <trkpt lat="48.80739" lon="6.71862">
        <ele>205.4</ele>
        <time>2021-07-30T12:48:54Z</time>
      </trkpt>
      <trkpt lat="48.80738" lon="6.71861">
        <ele>205.4</ele>
        <time>2021-07-30T12:48:55Z</time>
      </trkpt>
      <trkpt lat="48.80735" lon="6.71863">
        <ele>205.4</ele>
        <time>2021-07-30T12:48:57Z</time>
      </trkpt>
      <trkpt lat="48.80733" lon="6.71865">
        <ele>205.4</ele>
        <time>2021-07-30T12:48:58Z</time>
      </trkpt>
      <trkpt lat="48.80732" lon="6.71866">
        <ele>205.5</ele>
        <time>2021-07-30T12:48:59Z</time>
      </trkpt>
      <trkpt lat="48.80728" lon="6.71872">
        <ele>205.5</ele>
        <time>2021-07-30T12:49:01Z</time>
      </trkpt>
      <trkpt lat="48.80727" lon="6.71875">
        <ele>205.5</ele>
        <time>2021-07-30T12:49:02Z</time>
      </trkpt>
      <trkpt lat="48.80726" lon="6.7188">
        <ele>205.5</ele>
        <time>2021-07-30T12:49:04Z</time>
      </trkpt>
      <trkpt lat="48.80724" lon="6.71885">
        <ele>205.6</ele>
        <time>2021-07-30T12:49:06Z</time>
      </trkpt>
      <trkpt lat="48.80722" lon="6.71888">
        <ele>205.6</ele>
        <time>2021-07-30T12:49:07Z</time>
      </trkpt>
      <trkpt lat="48.80721" lon="6.71889">
        <ele>205.6</ele>
        <time>2021-07-30T12:49:08Z</time>
      </trkpt>
      <trkpt lat="48.80721" lon="6.71895">
        <ele>205.7</ele>
        <time>2021-07-30T12:49:10Z</time>
      </trkpt>
      <trkpt lat="48.80721" lon="6.71898">
        <ele>205.7</ele>
        <time>2021-07-30T12:49:11Z</time>
      </trkpt>
      <trkpt lat="48.80719" lon="6.71904">
        <ele>205.8</ele>
        <time>2021-07-30T12:49:13Z</time>
      </trkpt>
      <trkpt lat="48.80718" lon="6.71906">
        <ele>205.8</ele>
        <time>2021-07-30T12:49:14Z</time>
      </trkpt>
      <trkpt lat="48.80714" lon="6.7191">
        <ele>206</ele>
        <time>2021-07-30T12:49:16Z</time>
      </trkpt>
      <trkpt lat="48.80712" lon="6.71912">
        <ele>206.1</ele>
        <time>2021-07-30T12:49:17Z</time>
      </trkpt>
      <trkpt lat="48.80709" lon="6.71916">
        <ele>206.2</ele>
        <time>2021-07-30T12:49:19Z</time>
      </trkpt>
      <trkpt lat="48.80707" lon="6.71919">
        <ele>206.9</ele>
        <time>2021-07-30T12:49:21Z</time>
      </trkpt>
      <trkpt lat="48.80706" lon="6.7192">
        <ele>207</ele>
        <time>2021-07-30T12:49:22Z</time>
      </trkpt>
      <trkpt lat="48.80706" lon="6.71922">
        <ele>207</ele>
        <time>2021-07-30T12:49:23Z</time>
      </trkpt>
      <trkpt lat="48.80706" lon="6.71921">
        <ele>207</ele>
        <time>2021-07-30T12:49:24Z</time>
      </trkpt>
      <trkpt lat="48.80706" lon="6.71921">
        <ele>207</ele>
        <time>2021-07-30T12:49:26Z</time>
      </trkpt>
      <trkpt lat="48.80706" lon="6.7192">
        <ele>207</ele>
        <time>2021-07-30T12:49:28Z</time>
      </trkpt>
      <trkpt lat="48.80706" lon="6.7192">
        <ele>207</ele>
        <time>2021-07-30T12:49:29Z</time>
      </trkpt>
      <trkpt lat="48.80706" lon="6.7192">
        <ele>207</ele>
        <time>2021-07-30T12:49:31Z</time>
      </trkpt>
      <trkpt lat="48.80706" lon="6.7192">
        <ele>207</ele>
        <time>2021-07-30T12:49:32Z</time>
      </trkpt>
      <trkpt lat="48.80714" lon="6.71927">
        <ele>207.3</ele>
        <time>2021-07-30T12:53:28Z</time>
      </trkpt>
      <trkpt lat="48.80716" lon="6.71929">
        <ele>207.4</ele>
        <time>2021-07-30T12:53:29Z</time>
      </trkpt>
      <trkpt lat="48.8072" lon="6.71934">
        <ele>207.6</ele>
        <time>2021-07-30T12:53:30Z</time>
      </trkpt>
      <trkpt lat="48.80725" lon="6.7194">
        <ele>207.8</ele>
        <time>2021-07-30T12:53:32Z</time>
      </trkpt>
      <trkpt lat="48.80731" lon="6.71947">
        <ele>208.2</ele>
        <time>2021-07-30T12:53:34Z</time>
      </trkpt>
      <trkpt lat="48.80733" lon="6.71951">
        <ele>208.4</ele>
        <time>2021-07-30T12:53:35Z</time>
      </trkpt>
      <trkpt lat="48.80738" lon="6.71957">
        <ele>208.8</ele>
        <time>2021-07-30T12:53:36Z</time>
      </trkpt>
      <trkpt lat="48.80741" lon="6.71962">
        <ele>209.1</ele>
        <time>2021-07-30T12:53:38Z</time>
      </trkpt>
      <trkpt lat="48.80745" lon="6.71965">
        <ele>209.4</ele>
        <time>2021-07-30T12:53:39Z</time>
      </trkpt>
      <trkpt lat="48.80748" lon="6.71967">
        <ele>209.6</ele>
        <time>2021-07-30T12:53:41Z</time>
      </trkpt>
      <trkpt lat="48.80751" lon="6.71969">
        <ele>209.8</ele>
        <time>2021-07-30T12:53:42Z</time>
      </trkpt>
      <trkpt lat="48.80754" lon="6.71972">
        <ele>210</ele>
        <time>2021-07-30T12:53:43Z</time>
      </trkpt>
      <trkpt lat="48.80755" lon="6.71974">
        <ele>210.1</ele>
        <time>2021-07-30T12:53:44Z</time>
      </trkpt>
      <trkpt lat="48.80759" lon="6.71977">
        <ele>210.4</ele>
        <time>2021-07-30T12:53:46Z</time>
      </trkpt>
      <trkpt lat="48.80761" lon="6.71978">
        <ele>210.5</ele>
        <time>2021-07-30T12:53:47Z</time>
      </trkpt>
      <trkpt lat="48.80762" lon="6.71979">
        <ele>210.6</ele>
        <time>2021-07-30T12:53:48Z</time>
      </trkpt>
      <trkpt lat="48.80763" lon="6.7198">
        <ele>210.7</ele>
        <time>2021-07-30T12:53:49Z</time>
      </trkpt>
      <trkpt lat="48.80765" lon="6.71982">
        <ele>210.8</ele>
        <time>2021-07-30T12:53:50Z</time>
      </trkpt>
      <trkpt lat="48.80766" lon="6.71983">
        <ele>210.9</ele>
        <time>2021-07-30T12:53:52Z</time>
      </trkpt>
      <trkpt lat="48.80768" lon="6.71984">
        <ele>211</ele>
        <time>2021-07-30T12:53:53Z</time>
      </trkpt>
      <trkpt lat="48.80769" lon="6.71986">
        <ele>211</ele>
        <time>2021-07-30T12:53:54Z</time>
      </trkpt>
      <trkpt lat="48.80771" lon="6.71987">
        <ele>211.1</ele>
        <time>2021-07-30T12:53:55Z</time>
      </trkpt>
      <trkpt lat="48.80774" lon="6.71989">
        <ele>211.3</ele>
        <time>2021-07-30T12:53:56Z</time>
      </trkpt>
      <trkpt lat="48.80775" lon="6.7199">
        <ele>211.3</ele>
        <time>2021-07-30T12:53:57Z</time>
      </trkpt>
      <trkpt lat="48.80778" lon="6.71991">
        <ele>211.4</ele>
        <time>2021-07-30T12:53:58Z</time>
      </trkpt>
      <trkpt lat="48.80779" lon="6.71992">
        <ele>211.5</ele>
        <time>2021-07-30T12:53:59Z</time>
      </trkpt>
      <trkpt lat="48.80782" lon="6.71994">
        <ele>211.6</ele>
        <time>2021-07-30T12:54:00Z</time>
      </trkpt>
      <trkpt lat="48.80786" lon="6.71997">
        <ele>211.7</ele>
        <time>2021-07-30T12:54:02Z</time>
      </trkpt>
      <trkpt lat="48.80787" lon="6.71998">
        <ele>211.8</ele>
        <time>2021-07-30T12:54:03Z</time>
      </trkpt>
      <trkpt lat="48.80788" lon="6.71999">
        <ele>211.8</ele>
        <time>2021-07-30T12:54:04Z</time>
      </trkpt>
      <trkpt lat="48.80789" lon="6.72001">
        <ele>211.8</ele>
        <time>2021-07-30T12:54:05Z</time>
      </trkpt>
      <trkpt lat="48.80791" lon="6.72003">
        <ele>211.9</ele>
        <time>2021-07-30T12:54:07Z</time>
      </trkpt>
      <trkpt lat="48.80791" lon="6.72004">
        <ele>211.9</ele>
        <time>2021-07-30T12:54:08Z</time>
      </trkpt>
      <trkpt lat="48.80792" lon="6.72006">
        <ele>211.9</ele>
        <time>2021-07-30T12:54:09Z</time>
      </trkpt>
      <trkpt lat="48.80794" lon="6.72008">
        <ele>212</ele>
        <time>2021-07-30T12:54:11Z</time>
      </trkpt>
      <trkpt lat="48.80797" lon="6.72011">
        <ele>212.1</ele>
        <time>2021-07-30T12:54:12Z</time>
      </trkpt>
      <trkpt lat="48.80798" lon="6.72012">
        <ele>212.1</ele>
        <time>2021-07-30T12:54:13Z</time>
      </trkpt>
      <trkpt lat="48.80801" lon="6.72015">
        <ele>212.1</ele>
        <time>2021-07-30T12:54:14Z</time>
      </trkpt>
      <trkpt lat="48.80803" lon="6.72017">
        <ele>212.2</ele>
        <time>2021-07-30T12:54:15Z</time>
      </trkpt>
      <trkpt lat="48.80805" lon="6.72019">
        <ele>212.2</ele>
        <time>2021-07-30T12:54:16Z</time>
      </trkpt>
      <trkpt lat="48.80808" lon="6.72023">
        <ele>212.2</ele>
        <time>2021-07-30T12:54:18Z</time>
      </trkpt>
      <trkpt lat="48.80811" lon="6.72025">
        <ele>212.2</ele>
        <time>2021-07-30T12:54:19Z</time>
      </trkpt>
      <trkpt lat="48.80814" lon="6.72029">
        <ele>212.2</ele>
        <time>2021-07-30T12:54:20Z</time>
      </trkpt>
      <trkpt lat="48.80817" lon="6.72032">
        <ele>212.2</ele>
        <time>2021-07-30T12:54:21Z</time>
      </trkpt>
      <trkpt lat="48.8082" lon="6.72037">
        <ele>212.2</ele>
        <time>2021-07-30T12:54:23Z</time>
      </trkpt>
      <trkpt lat="48.80823" lon="6.72042">
        <ele>212.2</ele>
        <time>2021-07-30T12:54:24Z</time>
      </trkpt>
      <trkpt lat="48.80826" lon="6.72046">
        <ele>212.1</ele>
        <time>2021-07-30T12:54:25Z</time>
      </trkpt>
      <trkpt lat="48.80829" lon="6.7205">
        <ele>212.1</ele>
        <time>2021-07-30T12:54:27Z</time>
      </trkpt>
      <trkpt lat="48.80832" lon="6.72056">
        <ele>212</ele>
        <time>2021-07-30T12:54:28Z</time>
      </trkpt>
      <trkpt lat="48.80836" lon="6.72061">
        <ele>211.9</ele>
        <time>2021-07-30T12:54:30Z</time>
      </trkpt>
      <trkpt lat="48.80839" lon="6.72064">
        <ele>211.8</ele>
        <time>2021-07-30T12:54:31Z</time>
      </trkpt>
      <trkpt lat="48.80845" lon="6.7207">
        <ele>211.7</ele>
        <time>2021-07-30T12:54:32Z</time>
      </trkpt>
      <trkpt lat="48.80849" lon="6.72075">
        <ele>211.5</ele>
        <time>2021-07-30T12:54:34Z</time>
      </trkpt>
      <trkpt lat="48.80852" lon="6.72078">
        <ele>211.4</ele>
        <time>2021-07-30T12:54:35Z</time>
      </trkpt>
      <trkpt lat="48.80856" lon="6.72083">
        <ele>211.3</ele>
        <time>2021-07-30T12:54:36Z</time>
      </trkpt>
      <trkpt lat="48.80859" lon="6.72086">
        <ele>211.1</ele>
        <time>2021-07-30T12:54:38Z</time>
      </trkpt>
      <trkpt lat="48.80863" lon="6.72088">
        <ele>211</ele>
        <time>2021-07-30T12:54:39Z</time>
      </trkpt>
      <trkpt lat="48.80867" lon="6.7209">
        <ele>210.9</ele>
        <time>2021-07-30T12:54:40Z</time>
      </trkpt>
      <trkpt lat="48.80871" lon="6.72092">
        <ele>210.8</ele>
        <time>2021-07-30T12:54:41Z</time>
      </trkpt>
      <trkpt lat="48.80876" lon="6.72092">
        <ele>210.6</ele>
        <time>2021-07-30T12:54:42Z</time>
      </trkpt>
      <trkpt lat="48.80883" lon="6.7209">
        <ele>210.4</ele>
        <time>2021-07-30T12:54:44Z</time>
      </trkpt>
      <trkpt lat="48.80889" lon="6.72088">
        <ele>210.1</ele>
        <time>2021-07-30T12:54:45Z</time>
      </trkpt>
      <trkpt lat="48.80894" lon="6.72087">
        <ele>209.9</ele>
        <time>2021-07-30T12:54:47Z</time>
      </trkpt>
      <trkpt lat="48.80899" lon="6.72089">
        <ele>209.7</ele>
        <time>2021-07-30T12:54:48Z</time>
      </trkpt>
      <trkpt lat="48.80903" lon="6.72091">
        <ele>209.6</ele>
        <time>2021-07-30T12:54:50Z</time>
      </trkpt>
      <trkpt lat="48.80905" lon="6.72095">
        <ele>209.5</ele>
        <time>2021-07-30T12:54:51Z</time>
      </trkpt>
      <trkpt lat="48.80906" lon="6.72099">
        <ele>209.3</ele>
        <time>2021-07-30T12:54:52Z</time>
      </trkpt>
      <trkpt lat="48.80909" lon="6.72107">
        <ele>209.4</ele>
        <time>2021-07-30T12:54:53Z</time>
      </trkpt>
      <trkpt lat="48.80913" lon="6.72118">
        <ele>209.6</ele>
        <time>2021-07-30T12:54:55Z</time>
      </trkpt>
      <trkpt lat="48.80914" lon="6.72129">
        <ele>209.6</ele>
        <time>2021-07-30T12:54:56Z</time>
      </trkpt>
      <trkpt lat="48.80914" lon="6.72139">
        <ele>209.4</ele>
        <time>2021-07-30T12:54:57Z</time>
      </trkpt>
      <trkpt lat="48.80913" lon="6.72149">
        <ele>209.2</ele>
        <time>2021-07-30T12:54:59Z</time>
      </trkpt>
      <trkpt lat="48.80912" lon="6.72159">
        <ele>209.1</ele>
        <time>2021-07-30T12:55:00Z</time>
      </trkpt>
      <trkpt lat="48.80913" lon="6.72165">
        <ele>209</ele>
        <time>2021-07-30T12:55:01Z</time>
      </trkpt>
      <trkpt lat="48.80913" lon="6.72171">
        <ele>209</ele>
        <time>2021-07-30T12:55:02Z</time>
      </trkpt>
      <trkpt lat="48.80911" lon="6.72179">
        <ele>208.9</ele>
        <time>2021-07-30T12:55:04Z</time>
      </trkpt>
      <trkpt lat="48.8091" lon="6.72187">
        <ele>209</ele>
        <time>2021-07-30T12:55:05Z</time>
      </trkpt>
      <trkpt lat="48.8091" lon="6.72192">
        <ele>209</ele>
        <time>2021-07-30T12:55:06Z</time>
      </trkpt>
      <trkpt lat="48.80909" lon="6.72198">
        <ele>209.1</ele>
        <time>2021-07-30T12:55:08Z</time>
      </trkpt>
      <trkpt lat="48.80909" lon="6.72204">
        <ele>209.1</ele>
        <time>2021-07-30T12:55:09Z</time>
      </trkpt>
      <trkpt lat="48.8091" lon="6.72212">
        <ele>209.2</ele>
        <time>2021-07-30T12:55:11Z</time>
      </trkpt>
      <trkpt lat="48.8091" lon="6.72216">
        <ele>209.2</ele>
        <time>2021-07-30T12:55:12Z</time>
      </trkpt>
      <trkpt lat="48.8091" lon="6.72223">
        <ele>209.3</ele>
        <time>2021-07-30T12:55:14Z</time>
      </trkpt>
      <trkpt lat="48.80909" lon="6.72229">
        <ele>209.4</ele>
        <time>2021-07-30T12:55:15Z</time>
      </trkpt>
      <trkpt lat="48.80909" lon="6.72231">
        <ele>209.4</ele>
        <time>2021-07-30T12:55:16Z</time>
      </trkpt>
      <trkpt lat="48.8091" lon="6.72236">
        <ele>209.4</ele>
        <time>2021-07-30T12:55:18Z</time>
      </trkpt>
      <trkpt lat="48.80911" lon="6.72238">
        <ele>209.5</ele>
        <time>2021-07-30T12:55:19Z</time>
      </trkpt>
      <trkpt lat="48.80913" lon="6.7224">
        <ele>209.5</ele>
        <time>2021-07-30T12:55:20Z</time>
      </trkpt>
      <trkpt lat="48.80914" lon="6.72242">
        <ele>209.5</ele>
        <time>2021-07-30T12:55:21Z</time>
      </trkpt>
      <trkpt lat="48.80915" lon="6.72244">
        <ele>209.5</ele>
        <time>2021-07-30T12:55:23Z</time>
      </trkpt>
      <trkpt lat="48.80914" lon="6.72246">
        <ele>209.5</ele>
        <time>2021-07-30T12:55:24Z</time>
      </trkpt>
      <trkpt lat="48.80915" lon="6.72245">
        <ele>209.5</ele>
        <time>2021-07-30T12:55:26Z</time>
      </trkpt>
      <trkpt lat="48.80915" lon="6.72243">
        <ele>209.5</ele>
        <time>2021-07-30T12:55:28Z</time>
      </trkpt>
      <trkpt lat="48.80916" lon="6.72242">
        <ele>209.4</ele>
        <time>2021-07-30T12:55:30Z</time>
      </trkpt>
      <trkpt lat="48.80917" lon="6.7224">
        <ele>209.4</ele>
        <time>2021-07-30T12:55:31Z</time>
      </trkpt>
      <trkpt lat="48.80917" lon="6.72234">
        <ele>209.4</ele>
        <time>2021-07-30T12:55:32Z</time>
      </trkpt>
      <trkpt lat="48.80916" lon="6.7223">
        <ele>209.3</ele>
        <time>2021-07-30T12:55:33Z</time>
      </trkpt>
      <trkpt lat="48.80916" lon="6.72226">
        <ele>209.3</ele>
        <time>2021-07-30T12:55:35Z</time>
      </trkpt>
      <trkpt lat="48.80915" lon="6.72223">
        <ele>209.3</ele>
        <time>2021-07-30T12:56:02Z</time>
      </trkpt>
      <trkpt lat="48.80915" lon="6.72219">
        <ele>209.2</ele>
        <time>2021-07-30T12:56:03Z</time>
      </trkpt>
      <trkpt lat="48.80914" lon="6.72209">
        <ele>209.1</ele>
        <time>2021-07-30T12:56:05Z</time>
      </trkpt>
      <trkpt lat="48.80913" lon="6.72201">
        <ele>209.1</ele>
        <time>2021-07-30T12:56:07Z</time>
      </trkpt>
      <trkpt lat="48.80913" lon="6.72191">
        <ele>209</ele>
        <time>2021-07-30T12:56:09Z</time>
      </trkpt>
      <trkpt lat="48.80914" lon="6.72188">
        <ele>209</ele>
        <time>2021-07-30T12:56:10Z</time>
      </trkpt>
      <trkpt lat="48.80915" lon="6.72187">
        <ele>209</ele>
        <time>2021-07-30T12:56:12Z</time>
      </trkpt>
      <trkpt lat="48.80916" lon="6.72186">
        <ele>208.9</ele>
        <time>2021-07-30T12:56:13Z</time>
      </trkpt>
      <trkpt lat="48.80917" lon="6.72181">
        <ele>208.9</ele>
        <time>2021-07-30T12:56:14Z</time>
      </trkpt>
      <trkpt lat="48.80918" lon="6.72176">
        <ele>208.9</ele>
        <time>2021-07-30T12:56:15Z</time>
      </trkpt>
      <trkpt lat="48.80919" lon="6.72171">
        <ele>209</ele>
        <time>2021-07-30T12:56:21Z</time>
      </trkpt>
      <trkpt lat="48.80919" lon="6.72166">
        <ele>209</ele>
        <time>2021-07-30T12:56:22Z</time>
      </trkpt>
      <trkpt lat="48.80917" lon="6.72161">
        <ele>210.1</ele>
        <time>2021-07-30T12:56:23Z</time>
      </trkpt>
      <trkpt lat="48.80915" lon="6.72158">
        <ele>210.1</ele>
        <time>2021-07-30T12:56:24Z</time>
      </trkpt>
      <trkpt lat="48.80913" lon="6.72157">
        <ele>210.1</ele>
        <time>2021-07-30T12:56:25Z</time>
      </trkpt>
      <trkpt lat="48.80909" lon="6.72156">
        <ele>210.2</ele>
        <time>2021-07-30T12:56:27Z</time>
      </trkpt>
      <trkpt lat="48.80905" lon="6.72156">
        <ele>210.4</ele>
        <time>2021-07-30T12:56:28Z</time>
      </trkpt>
      <trkpt lat="48.80904" lon="6.72156">
        <ele>210.4</ele>
        <time>2021-07-30T12:56:29Z</time>
      </trkpt>
      <trkpt lat="48.80902" lon="6.72157">
        <ele>210.5</ele>
        <time>2021-07-30T12:56:30Z</time>
      </trkpt>
      <trkpt lat="48.809" lon="6.72158">
        <ele>210.5</ele>
        <time>2021-07-30T12:56:32Z</time>
      </trkpt>
      <trkpt lat="48.80898" lon="6.7216">
        <ele>210.6</ele>
        <time>2021-07-30T12:56:33Z</time>
      </trkpt>
      <trkpt lat="48.80897" lon="6.72162">
        <ele>210.7</ele>
        <time>2021-07-30T12:56:35Z</time>
      </trkpt>
      <trkpt lat="48.80894" lon="6.72166">
        <ele>210.8</ele>
        <time>2021-07-30T12:56:36Z</time>
      </trkpt>
      <trkpt lat="48.80891" lon="6.72169">
        <ele>211</ele>
        <time>2021-07-30T12:56:37Z</time>
      </trkpt>
      <trkpt lat="48.80887" lon="6.72171">
        <ele>211.1</ele>
        <time>2021-07-30T12:56:38Z</time>
      </trkpt>
      <trkpt lat="48.80884" lon="6.72173">
        <ele>211.3</ele>
        <time>2021-07-30T12:56:39Z</time>
      </trkpt>
      <trkpt lat="48.80881" lon="6.72174">
        <ele>211.4</ele>
        <time>2021-07-30T12:56:40Z</time>
      </trkpt>
      <trkpt lat="48.80877" lon="6.72174">
        <ele>211.6</ele>
        <time>2021-07-30T12:56:41Z</time>
      </trkpt>
      <trkpt lat="48.80872" lon="6.72174">
        <ele>211.8</ele>
        <time>2021-07-30T12:56:42Z</time>
      </trkpt>
      <trkpt lat="48.80868" lon="6.72174">
        <ele>211.9</ele>
        <time>2021-07-30T12:56:43Z</time>
      </trkpt>
      <trkpt lat="48.80865" lon="6.72175">
        <ele>212.1</ele>
        <time>2021-07-30T12:56:44Z</time>
      </trkpt>
      <trkpt lat="48.80863" lon="6.72177">
        <ele>212.2</ele>
        <time>2021-07-30T12:56:45Z</time>
      </trkpt>
      <trkpt lat="48.80862" lon="6.72178">
        <ele>212.3</ele>
        <time>2021-07-30T12:56:46Z</time>
      </trkpt>
      <trkpt lat="48.80862" lon="6.72179">
        <ele>212.3</ele>
        <time>2021-07-30T12:56:47Z</time>
      </trkpt>
      <trkpt lat="48.80862" lon="6.72184">
        <ele>212.4</ele>
        <time>2021-07-30T12:56:49Z</time>
      </trkpt>
      <trkpt lat="48.80861" lon="6.72187">
        <ele>212.5</ele>
        <time>2021-07-30T12:56:50Z</time>
      </trkpt>
      <trkpt lat="48.80861" lon="6.72189">
        <ele>212.6</ele>
        <time>2021-07-30T12:56:52Z</time>
      </trkpt>
      <trkpt lat="48.8086" lon="6.7219">
        <ele>212.7</ele>
        <time>2021-07-30T12:56:53Z</time>
      </trkpt>
      <trkpt lat="48.80859" lon="6.72193">
        <ele>212.8</ele>
        <time>2021-07-30T12:56:54Z</time>
      </trkpt>
      <trkpt lat="48.80858" lon="6.72195">
        <ele>212.8</ele>
        <time>2021-07-30T12:56:55Z</time>
      </trkpt>
      <trkpt lat="48.80856" lon="6.72198">
        <ele>213</ele>
        <time>2021-07-30T12:56:57Z</time>
      </trkpt>
      <trkpt lat="48.80853" lon="6.72201">
        <ele>213.1</ele>
        <time>2021-07-30T12:56:58Z</time>
      </trkpt>
      <trkpt lat="48.80852" lon="6.72202">
        <ele>213.2</ele>
        <time>2021-07-30T12:56:59Z</time>
      </trkpt>
      <trkpt lat="48.80849" lon="6.72204">
        <ele>213.4</ele>
        <time>2021-07-30T12:57:00Z</time>
      </trkpt>
      <trkpt lat="48.80848" lon="6.72204">
        <ele>213.4</ele>
        <time>2021-07-30T12:57:01Z</time>
      </trkpt>
      <trkpt lat="48.80844" lon="6.72207">
        <ele>213.6</ele>
        <time>2021-07-30T12:57:02Z</time>
      </trkpt>
      <trkpt lat="48.80843" lon="6.72208">
        <ele>213.7</ele>
        <time>2021-07-30T12:57:03Z</time>
      </trkpt>
      <trkpt lat="48.8084" lon="6.72211">
        <ele>213.9</ele>
        <time>2021-07-30T12:57:04Z</time>
      </trkpt>
      <trkpt lat="48.80838" lon="6.72212">
        <ele>214</ele>
        <time>2021-07-30T12:57:05Z</time>
      </trkpt>
      <trkpt lat="48.80835" lon="6.72212">
        <ele>214.1</ele>
        <time>2021-07-30T12:57:07Z</time>
      </trkpt>
      <trkpt lat="48.80831" lon="6.72212">
        <ele>214.3</ele>
        <time>2021-07-30T12:57:09Z</time>
      </trkpt>
      <trkpt lat="48.8083" lon="6.72212">
        <ele>214.4</ele>
        <time>2021-07-30T12:57:10Z</time>
      </trkpt>
      <trkpt lat="48.80829" lon="6.72214">
        <ele>214.4</ele>
        <time>2021-07-30T12:57:11Z</time>
      </trkpt>
      <trkpt lat="48.80828" lon="6.72215">
        <ele>214.5</ele>
        <time>2021-07-30T12:57:12Z</time>
      </trkpt>
      <trkpt lat="48.80828" lon="6.72217">
        <ele>214.6</ele>
        <time>2021-07-30T12:57:13Z</time>
      </trkpt>
      <trkpt lat="48.80826" lon="6.7222">
        <ele>214.7</ele>
        <time>2021-07-30T12:57:15Z</time>
      </trkpt>
      <trkpt lat="48.80824" lon="6.72224">
        <ele>214.8</ele>
        <time>2021-07-30T12:57:17Z</time>
      </trkpt>
      <trkpt lat="48.80751" lon="6.72338">
        <ele>218.9</ele>
        <time>2021-07-30T12:58:15Z</time>
      </trkpt>
      <trkpt lat="48.80746" lon="6.72343">
        <ele>218.9</ele>
        <time>2021-07-30T12:58:16Z</time>
      </trkpt>
      <trkpt lat="48.8074" lon="6.72343">
        <ele>219</ele>
        <time>2021-07-30T12:58:18Z</time>
      </trkpt>
      <trkpt lat="48.80737" lon="6.72345">
        <ele>219</ele>
        <time>2021-07-30T12:58:19Z</time>
      </trkpt>
      <trkpt lat="48.8073" lon="6.72348">
        <ele>219</ele>
        <time>2021-07-30T12:58:21Z</time>
      </trkpt>
      <trkpt lat="48.80727" lon="6.7235">
        <ele>219</ele>
        <time>2021-07-30T12:58:22Z</time>
      </trkpt>
      <trkpt lat="48.80724" lon="6.72353">
        <ele>219</ele>
        <time>2021-07-30T12:58:23Z</time>
      </trkpt>
      <trkpt lat="48.80722" lon="6.72356">
        <ele>218.9</ele>
        <time>2021-07-30T12:58:24Z</time>
      </trkpt>
      <trkpt lat="48.80719" lon="6.72359">
        <ele>218.9</ele>
        <time>2021-07-30T12:58:25Z</time>
      </trkpt>
      <trkpt lat="48.80712" lon="6.72365">
        <ele>218.8</ele>
        <time>2021-07-30T12:58:27Z</time>
      </trkpt>
      <trkpt lat="48.80707" lon="6.72371">
        <ele>218.6</ele>
        <time>2021-07-30T12:58:29Z</time>
      </trkpt>
      <trkpt lat="48.80703" lon="6.72377">
        <ele>218.5</ele>
        <time>2021-07-30T12:58:31Z</time>
      </trkpt>
      <trkpt lat="48.80698" lon="6.72383">
        <ele>218.3</ele>
        <time>2021-07-30T12:58:33Z</time>
      </trkpt>
      <trkpt lat="48.80695" lon="6.72386">
        <ele>218.2</ele>
        <time>2021-07-30T12:58:34Z</time>
      </trkpt>
      <trkpt lat="48.80689" lon="6.72391">
        <ele>218</ele>
        <time>2021-07-30T12:58:36Z</time>
      </trkpt>
      <trkpt lat="48.80684" lon="6.72394">
        <ele>217.8</ele>
        <time>2021-07-30T12:58:37Z</time>
      </trkpt>
      <trkpt lat="48.80676" lon="6.72405">
        <ele>217.5</ele>
        <time>2021-07-30T12:58:39Z</time>
      </trkpt>
      <trkpt lat="48.8067" lon="6.72417">
        <ele>217.3</ele>
        <time>2021-07-30T12:58:41Z</time>
      </trkpt>
      <trkpt lat="48.80664" lon="6.7243">
        <ele>217.1</ele>
        <time>2021-07-30T12:58:43Z</time>
      </trkpt>
      <trkpt lat="48.80662" lon="6.72436">
        <ele>217</ele>
        <time>2021-07-30T12:58:44Z</time>
      </trkpt>
      <trkpt lat="48.8066" lon="6.72443">
        <ele>216.9</ele>
        <time>2021-07-30T12:58:45Z</time>
      </trkpt>
      <trkpt lat="48.80656" lon="6.72457">
        <ele>216.8</ele>
        <time>2021-07-30T12:58:47Z</time>
      </trkpt>
      <trkpt lat="48.80652" lon="6.72469">
        <ele>216.7</ele>
        <time>2021-07-30T12:58:49Z</time>
      </trkpt>
      <trkpt lat="48.80648" lon="6.7248">
        <ele>216.5</ele>
        <time>2021-07-30T12:58:51Z</time>
      </trkpt>
      <trkpt lat="48.80645" lon="6.72485">
        <ele>216.5</ele>
        <time>2021-07-30T12:58:52Z</time>
      </trkpt>
      <trkpt lat="48.80643" lon="6.72491">
        <ele>216.5</ele>
        <time>2021-07-30T12:58:53Z</time>
      </trkpt>
      <trkpt lat="48.80639" lon="6.725">
        <ele>216.5</ele>
        <time>2021-07-30T12:58:55Z</time>
      </trkpt>
      <trkpt lat="48.8064" lon="6.72507">
        <ele>216.4</ele>
        <time>2021-07-30T12:58:57Z</time>
      </trkpt>
      <trkpt lat="48.80639" lon="6.72512">
        <ele>216.4</ele>
        <time>2021-07-30T12:58:58Z</time>
      </trkpt>
      <trkpt lat="48.80637" lon="6.72518">
        <ele>216.4</ele>
        <time>2021-07-30T12:58:59Z</time>
      </trkpt>
      <trkpt lat="48.80632" lon="6.7253">
        <ele>216.4</ele>
        <time>2021-07-30T12:59:01Z</time>
      </trkpt>
      <trkpt lat="48.8063" lon="6.72535">
        <ele>216.4</ele>
        <time>2021-07-30T12:59:02Z</time>
      </trkpt>
      <trkpt lat="48.80628" lon="6.72538">
        <ele>216.4</ele>
        <time>2021-07-30T12:59:03Z</time>
      </trkpt>
      <trkpt lat="48.80626" lon="6.72545">
        <ele>216.3</ele>
        <time>2021-07-30T12:59:05Z</time>
      </trkpt>
      <trkpt lat="48.80623" lon="6.72554">
        <ele>216.3</ele>
        <time>2021-07-30T12:59:07Z</time>
      </trkpt>
      <trkpt lat="48.8062" lon="6.72562">
        <ele>216.2</ele>
        <time>2021-07-30T12:59:09Z</time>
      </trkpt>
      <trkpt lat="48.80614" lon="6.72572">
        <ele>216</ele>
        <time>2021-07-30T12:59:10Z</time>
      </trkpt>
      <trkpt lat="48.80607" lon="6.72584">
        <ele>215.8</ele>
        <time>2021-07-30T12:59:12Z</time>
      </trkpt>
      <trkpt lat="48.80603" lon="6.72591">
        <ele>215.7</ele>
        <time>2021-07-30T12:59:13Z</time>
      </trkpt>
      <trkpt lat="48.80595" lon="6.72603">
        <ele>215.4</ele>
        <time>2021-07-30T12:59:15Z</time>
      </trkpt>
      <trkpt lat="48.80591" lon="6.72607">
        <ele>215.3</ele>
        <time>2021-07-30T12:59:16Z</time>
      </trkpt>
      <trkpt lat="48.80587" lon="6.72612">
        <ele>215.2</ele>
        <time>2021-07-30T12:59:18Z</time>
      </trkpt>
      <trkpt lat="48.80584" lon="6.72616">
        <ele>215.1</ele>
        <time>2021-07-30T12:59:19Z</time>
      </trkpt>
      <trkpt lat="48.80579" lon="6.72626">
        <ele>215</ele>
        <time>2021-07-30T12:59:21Z</time>
      </trkpt>
      <trkpt lat="48.80574" lon="6.72634">
        <ele>214.8</ele>
        <time>2021-07-30T12:59:23Z</time>
      </trkpt>
      <trkpt lat="48.80568" lon="6.72643">
        <ele>214.6</ele>
        <time>2021-07-30T12:59:24Z</time>
      </trkpt>
      <trkpt lat="48.80564" lon="6.72649">
        <ele>214.5</ele>
        <time>2021-07-30T12:59:26Z</time>
      </trkpt>
      <trkpt lat="48.8056" lon="6.72653">
        <ele>214.4</ele>
        <time>2021-07-30T12:59:27Z</time>
      </trkpt>
      <trkpt lat="48.80553" lon="6.72661">
        <ele>214.2</ele>
        <time>2021-07-30T12:59:29Z</time>
      </trkpt>
      <trkpt lat="48.80543" lon="6.7267">
        <ele>213.9</ele>
        <time>2021-07-30T12:59:31Z</time>
      </trkpt>
      <trkpt lat="48.80535" lon="6.7268">
        <ele>213.7</ele>
        <time>2021-07-30T12:59:33Z</time>
      </trkpt>
      <trkpt lat="48.80532" lon="6.72685">
        <ele>213.6</ele>
        <time>2021-07-30T12:59:34Z</time>
      </trkpt>
      <trkpt lat="48.80528" lon="6.7269">
        <ele>213.4</ele>
        <time>2021-07-30T12:59:35Z</time>
      </trkpt>
      <trkpt lat="48.80522" lon="6.72698">
        <ele>213.2</ele>
        <time>2021-07-30T12:59:37Z</time>
      </trkpt>
      <trkpt lat="48.80514" lon="6.72707">
        <ele>213</ele>
        <time>2021-07-30T12:59:39Z</time>
      </trkpt>
      <trkpt lat="48.8051" lon="6.72712">
        <ele>212.9</ele>
        <time>2021-07-30T12:59:40Z</time>
      </trkpt>
      <trkpt lat="48.80502" lon="6.72721">
        <ele>212.7</ele>
        <time>2021-07-30T12:59:42Z</time>
      </trkpt>
      <trkpt lat="48.805" lon="6.72724">
        <ele>212.6</ele>
        <time>2021-07-30T12:59:43Z</time>
      </trkpt>
      <trkpt lat="48.80494" lon="6.72734">
        <ele>212.3</ele>
        <time>2021-07-30T12:59:45Z</time>
      </trkpt>
      <trkpt lat="48.80486" lon="6.72744">
        <ele>212</ele>
        <time>2021-07-30T12:59:47Z</time>
      </trkpt>
      <trkpt lat="48.80482" lon="6.72749">
        <ele>211.8</ele>
        <time>2021-07-30T12:59:48Z</time>
      </trkpt>
      <trkpt lat="48.80477" lon="6.72754">
        <ele>211.6</ele>
        <time>2021-07-30T12:59:49Z</time>
      </trkpt>
      <trkpt lat="48.80469" lon="6.72765">
        <ele>211.1</ele>
        <time>2021-07-30T12:59:51Z</time>
      </trkpt>
      <trkpt lat="48.8046" lon="6.72777">
        <ele>210.6</ele>
        <time>2021-07-30T12:59:53Z</time>
      </trkpt>
      <trkpt lat="48.80452" lon="6.72788">
        <ele>210.1</ele>
        <time>2021-07-30T12:59:55Z</time>
      </trkpt>
      <trkpt lat="48.80441" lon="6.72799">
        <ele>209.6</ele>
        <time>2021-07-30T12:59:57Z</time>
      </trkpt>
      <trkpt lat="48.80436" lon="6.72805">
        <ele>209.3</ele>
        <time>2021-07-30T12:59:58Z</time>
      </trkpt>
      <trkpt lat="48.80431" lon="6.72811">
        <ele>209</ele>
        <time>2021-07-30T12:59:59Z</time>
      </trkpt>
      <trkpt lat="48.8042" lon="6.72823">
        <ele>208.5</ele>
        <time>2021-07-30T13:00:01Z</time>
      </trkpt>
      <trkpt lat="48.80409" lon="6.72835">
        <ele>208.2</ele>
        <time>2021-07-30T13:00:03Z</time>
      </trkpt>
      <trkpt lat="48.80404" lon="6.72841">
        <ele>208.1</ele>
        <time>2021-07-30T13:00:04Z</time>
      </trkpt>
      <trkpt lat="48.80399" lon="6.72847">
        <ele>208</ele>
        <time>2021-07-30T13:00:05Z</time>
      </trkpt>
      <trkpt lat="48.80394" lon="6.72852">
        <ele>207.8</ele>
        <time>2021-07-30T13:00:06Z</time>
      </trkpt>
      <trkpt lat="48.8039" lon="6.72858">
        <ele>207.8</ele>
        <time>2021-07-30T13:00:07Z</time>
      </trkpt>
      <trkpt lat="48.80383" lon="6.72872">
        <ele>207.6</ele>
        <time>2021-07-30T13:00:09Z</time>
      </trkpt>
      <trkpt lat="48.80383" lon="6.7288">
        <ele>207.6</ele>
        <time>2021-07-30T13:00:10Z</time>
      </trkpt>
      <trkpt lat="48.80386" lon="6.72895">
        <ele>207.5</ele>
        <time>2021-07-30T13:00:12Z</time>
      </trkpt>
      <trkpt lat="48.80389" lon="6.72902">
        <ele>207.6</ele>
        <time>2021-07-30T13:00:13Z</time>
      </trkpt>
      <trkpt lat="48.80396" lon="6.72914">
        <ele>207.5</ele>
        <time>2021-07-30T13:00:15Z</time>
      </trkpt>
      <trkpt lat="48.80398" lon="6.72925">
        <ele>207.4</ele>
        <time>2021-07-30T13:00:17Z</time>
      </trkpt>
      <trkpt lat="48.80398" lon="6.72934">
        <ele>207.4</ele>
        <time>2021-07-30T13:00:19Z</time>
      </trkpt>
      <trkpt lat="48.80397" lon="6.72949">
        <ele>207.3</ele>
        <time>2021-07-30T13:00:21Z</time>
      </trkpt>
      <trkpt lat="48.80396" lon="6.72965">
        <ele>207.2</ele>
        <time>2021-07-30T13:00:23Z</time>
      </trkpt>
      <trkpt lat="48.80395" lon="6.72973">
        <ele>207.1</ele>
        <time>2021-07-30T13:00:24Z</time>
      </trkpt>
      <trkpt lat="48.80394" lon="6.72982">
        <ele>207.1</ele>
        <time>2021-07-30T13:00:25Z</time>
      </trkpt>
      <trkpt lat="48.80392" lon="6.73002">
        <ele>207</ele>
        <time>2021-07-30T13:00:27Z</time>
      </trkpt>
      <trkpt lat="48.80391" lon="6.73013">
        <ele>206.9</ele>
        <time>2021-07-30T13:00:28Z</time>
      </trkpt>
      <trkpt lat="48.8039" lon="6.73023">
        <ele>206.9</ele>
        <time>2021-07-30T13:00:29Z</time>
      </trkpt>
      <trkpt lat="48.80388" lon="6.73043">
        <ele>206.8</ele>
        <time>2021-07-30T13:00:31Z</time>
      </trkpt>
      <trkpt lat="48.80386" lon="6.73064">
        <ele>206.8</ele>
        <time>2021-07-30T13:00:33Z</time>
      </trkpt>
      <trkpt lat="48.80384" lon="6.73073">
        <ele>206.8</ele>
        <time>2021-07-30T13:00:34Z</time>
      </trkpt>
      <trkpt lat="48.80383" lon="6.73083">
        <ele>206.8</ele>
        <time>2021-07-30T13:00:35Z</time>
      </trkpt>
      <trkpt lat="48.80383" lon="6.73102">
        <ele>206.8</ele>
        <time>2021-07-30T13:00:37Z</time>
      </trkpt>
      <trkpt lat="48.80382" lon="6.73121">
        <ele>206.7</ele>
        <time>2021-07-30T13:00:39Z</time>
      </trkpt>
      <trkpt lat="48.80382" lon="6.73131">
        <ele>206.7</ele>
        <time>2021-07-30T13:00:40Z</time>
      </trkpt>
      <trkpt lat="48.80382" lon="6.73141">
        <ele>206.7</ele>
        <time>2021-07-30T13:00:41Z</time>
      </trkpt>
      <trkpt lat="48.80381" lon="6.7316">
        <ele>206.7</ele>
        <time>2021-07-30T13:00:43Z</time>
      </trkpt>
      <trkpt lat="48.8038" lon="6.73181">
        <ele>206.7</ele>
        <time>2021-07-30T13:00:45Z</time>
      </trkpt>
      <trkpt lat="48.80379" lon="6.73191">
        <ele>206.8</ele>
        <time>2021-07-30T13:00:46Z</time>
      </trkpt>
      <trkpt lat="48.80378" lon="6.73201">
        <ele>206.8</ele>
        <time>2021-07-30T13:00:47Z</time>
      </trkpt>
      <trkpt lat="48.80376" lon="6.73223">
        <ele>207</ele>
        <time>2021-07-30T13:00:49Z</time>
      </trkpt>
      <trkpt lat="48.80374" lon="6.73243">
        <ele>207.1</ele>
        <time>2021-07-30T13:00:51Z</time>
      </trkpt>
      <trkpt lat="48.80371" lon="6.7326">
        <ele>207.2</ele>
        <time>2021-07-30T13:00:53Z</time>
      </trkpt>
      <trkpt lat="48.80367" lon="6.73278">
        <ele>207.4</ele>
        <time>2021-07-30T13:00:55Z</time>
      </trkpt>
      <trkpt lat="48.80362" lon="6.73294">
        <ele>207.5</ele>
        <time>2021-07-30T13:00:57Z</time>
      </trkpt>
      <trkpt lat="48.80359" lon="6.73303">
        <ele>207.6</ele>
        <time>2021-07-30T13:00:58Z</time>
      </trkpt>
      <trkpt lat="48.80356" lon="6.73312">
        <ele>207.6</ele>
        <time>2021-07-30T13:00:59Z</time>
      </trkpt>
      <trkpt lat="48.80349" lon="6.7333">
        <ele>207.7</ele>
        <time>2021-07-30T13:01:01Z</time>
      </trkpt>
      <trkpt lat="48.80343" lon="6.73348">
        <ele>207.8</ele>
        <time>2021-07-30T13:01:03Z</time>
      </trkpt>
      <trkpt lat="48.80337" lon="6.73363">
        <ele>207.9</ele>
        <time>2021-07-30T13:01:05Z</time>
      </trkpt>
      <trkpt lat="48.8033" lon="6.73377">
        <ele>208</ele>
        <time>2021-07-30T13:01:07Z</time>
      </trkpt>
      <trkpt lat="48.80323" lon="6.73389">
        <ele>208.1</ele>
        <time>2021-07-30T13:01:09Z</time>
      </trkpt>
      <trkpt lat="48.80317" lon="6.73402">
        <ele>208.1</ele>
        <time>2021-07-30T13:01:11Z</time>
      </trkpt>
      <trkpt lat="48.80314" lon="6.73408">
        <ele>208.1</ele>
        <time>2021-07-30T13:01:12Z</time>
      </trkpt>
      <trkpt lat="48.80309" lon="6.7342">
        <ele>208.1</ele>
        <time>2021-07-30T13:01:14Z</time>
      </trkpt>
      <trkpt lat="48.80305" lon="6.73431">
        <ele>208.1</ele>
        <time>2021-07-30T13:01:16Z</time>
      </trkpt>
      <trkpt lat="48.80303" lon="6.73436">
        <ele>208</ele>
        <time>2021-07-30T13:01:17Z</time>
      </trkpt>
      <trkpt lat="48.80301" lon="6.73447">
        <ele>208</ele>
        <time>2021-07-30T13:01:19Z</time>
      </trkpt>
      <trkpt lat="48.80297" lon="6.73459">
        <ele>207.9</ele>
        <time>2021-07-30T13:01:21Z</time>
      </trkpt>
      <trkpt lat="48.80296" lon="6.73465">
        <ele>207.9</ele>
        <time>2021-07-30T13:01:22Z</time>
      </trkpt>
      <trkpt lat="48.80294" lon="6.73481">
        <ele>207.8</ele>
        <time>2021-07-30T13:01:24Z</time>
      </trkpt>
      <trkpt lat="48.80293" lon="6.73489">
        <ele>207.8</ele>
        <time>2021-07-30T13:01:25Z</time>
      </trkpt>
      <trkpt lat="48.8029" lon="6.73506">
        <ele>207.7</ele>
        <time>2021-07-30T13:01:27Z</time>
      </trkpt>
      <trkpt lat="48.80288" lon="6.73515">
        <ele>207.5</ele>
        <time>2021-07-30T13:01:29Z</time>
      </trkpt>
      <trkpt lat="48.80286" lon="6.7352">
        <ele>207.4</ele>
        <time>2021-07-30T13:01:30Z</time>
      </trkpt>
      <trkpt lat="48.80284" lon="6.73523">
        <ele>207.3</ele>
        <time>2021-07-30T13:01:31Z</time>
      </trkpt>
      <trkpt lat="48.80276" lon="6.73527">
        <ele>207</ele>
        <time>2021-07-30T13:01:33Z</time>
      </trkpt>
      <trkpt lat="48.8027" lon="6.73524">
        <ele>206.8</ele>
        <time>2021-07-30T13:01:34Z</time>
      </trkpt>
      <trkpt lat="48.80259" lon="6.73519">
        <ele>206.5</ele>
        <time>2021-07-30T13:01:36Z</time>
      </trkpt>
      <trkpt lat="48.80254" lon="6.73517">
        <ele>206.5</ele>
        <time>2021-07-30T13:01:37Z</time>
      </trkpt>
      <trkpt lat="48.80246" lon="6.7352">
        <ele>206.3</ele>
        <time>2021-07-30T13:01:38Z</time>
      </trkpt>
      <trkpt lat="48.80241" lon="6.73523">
        <ele>206.2</ele>
        <time>2021-07-30T13:01:39Z</time>
      </trkpt>
      <trkpt lat="48.80236" lon="6.73526">
        <ele>206</ele>
        <time>2021-07-30T13:01:40Z</time>
      </trkpt>
      <trkpt lat="48.80231" lon="6.73528">
        <ele>205.9</ele>
        <time>2021-07-30T13:01:42Z</time>
      </trkpt>
      <trkpt lat="48.80228" lon="6.7353">
        <ele>205.9</ele>
        <time>2021-07-30T13:01:43Z</time>
      </trkpt>
      <trkpt lat="48.80227" lon="6.73533">
        <ele>205.9</ele>
        <time>2021-07-30T13:01:44Z</time>
      </trkpt>
      <trkpt lat="48.80228" lon="6.73536">
        <ele>205.9</ele>
        <time>2021-07-30T13:01:45Z</time>
      </trkpt>
      <trkpt lat="48.8023" lon="6.73542">
        <ele>205.9</ele>
        <time>2021-07-30T13:01:46Z</time>
      </trkpt>
      <trkpt lat="48.80231" lon="6.7355">
        <ele>205.9</ele>
        <time>2021-07-30T13:01:48Z</time>
      </trkpt>
      <trkpt lat="48.80232" lon="6.73556">
        <ele>205.9</ele>
        <time>2021-07-30T13:01:49Z</time>
      </trkpt>
      <trkpt lat="48.80232" lon="6.73564">
        <ele>205.9</ele>
        <time>2021-07-30T13:01:51Z</time>
      </trkpt>
      <trkpt lat="48.80232" lon="6.7357">
        <ele>205.9</ele>
        <time>2021-07-30T13:01:52Z</time>
      </trkpt>
      <trkpt lat="48.80233" lon="6.7358">
        <ele>205.9</ele>
        <time>2021-07-30T13:01:53Z</time>
      </trkpt>
      <trkpt lat="48.80229" lon="6.73639">
        <ele>205.6</ele>
        <time>2021-07-30T13:01:59Z</time>
      </trkpt>
      <trkpt lat="48.80225" lon="6.73668">
        <ele>205.5</ele>
        <time>2021-07-30T13:02:01Z</time>
      </trkpt>
      <trkpt lat="48.80224" lon="6.73688">
        <ele>205.6</ele>
        <time>2021-07-30T13:02:03Z</time>
      </trkpt>
      <trkpt lat="48.80223" lon="6.73695">
        <ele>205.6</ele>
        <time>2021-07-30T13:02:04Z</time>
      </trkpt>
      <trkpt lat="48.80226" lon="6.737">
        <ele>205.6</ele>
        <time>2021-07-30T13:02:05Z</time>
      </trkpt>
      <trkpt lat="48.80227" lon="6.73709">
        <ele>205.7</ele>
        <time>2021-07-30T13:02:07Z</time>
      </trkpt>
      <trkpt lat="48.80225" lon="6.73716">
        <ele>205.7</ele>
        <time>2021-07-30T13:02:08Z</time>
      </trkpt>
      <trkpt lat="48.80222" lon="6.73727">
        <ele>205.7</ele>
        <time>2021-07-30T13:02:10Z</time>
      </trkpt>
      <trkpt lat="48.80218" lon="6.73739">
        <ele>205.8</ele>
        <time>2021-07-30T13:02:11Z</time>
      </trkpt>
      <trkpt lat="48.80216" lon="6.73748">
        <ele>205.8</ele>
        <time>2021-07-30T13:02:12Z</time>
      </trkpt>
      <trkpt lat="48.80215" lon="6.73758">
        <ele>205.9</ele>
        <time>2021-07-30T13:02:13Z</time>
      </trkpt>
      <trkpt lat="48.80213" lon="6.73775">
        <ele>205.9</ele>
        <time>2021-07-30T13:02:15Z</time>
      </trkpt>
      <trkpt lat="48.80214" lon="6.7378">
        <ele>205.9</ele>
        <time>2021-07-30T13:02:16Z</time>
      </trkpt>
      <trkpt lat="48.80212" lon="6.73786">
        <ele>205.9</ele>
        <time>2021-07-30T13:02:17Z</time>
      </trkpt>
      <trkpt lat="48.80211" lon="6.73789">
        <ele>205.9</ele>
        <time>2021-07-30T13:02:18Z</time>
      </trkpt>
      <trkpt lat="48.80208" lon="6.73803">
        <ele>205.8</ele>
        <time>2021-07-30T13:02:20Z</time>
      </trkpt>
      <trkpt lat="48.80206" lon="6.73811">
        <ele>205.8</ele>
        <time>2021-07-30T13:02:21Z</time>
      </trkpt>
      <trkpt lat="48.80206" lon="6.73818">
        <ele>205.7</ele>
        <time>2021-07-30T13:02:23Z</time>
      </trkpt>
      <trkpt lat="48.80204" lon="6.73824">
        <ele>205.7</ele>
        <time>2021-07-30T13:02:24Z</time>
      </trkpt>
      <trkpt lat="48.80202" lon="6.73829">
        <ele>205.7</ele>
        <time>2021-07-30T13:02:25Z</time>
      </trkpt>
      <trkpt lat="48.80201" lon="6.73837">
        <ele>205.7</ele>
        <time>2021-07-30T13:02:26Z</time>
      </trkpt>
      <trkpt lat="48.802" lon="6.73845">
        <ele>205.6</ele>
        <time>2021-07-30T13:02:27Z</time>
      </trkpt>
      <trkpt lat="48.80199" lon="6.73854">
        <ele>205.6</ele>
        <time>2021-07-30T13:02:29Z</time>
      </trkpt>
      <trkpt lat="48.80199" lon="6.73859">
        <ele>205.6</ele>
        <time>2021-07-30T13:02:30Z</time>
      </trkpt>
      <trkpt lat="48.80197" lon="6.73869">
        <ele>205.6</ele>
        <time>2021-07-30T13:02:31Z</time>
      </trkpt>
      <trkpt lat="48.80196" lon="6.73877">
        <ele>205.6</ele>
        <time>2021-07-30T13:02:32Z</time>
      </trkpt>
      <trkpt lat="48.80193" lon="6.73886">
        <ele>205.7</ele>
        <time>2021-07-30T13:02:34Z</time>
      </trkpt>
      <trkpt lat="48.80191" lon="6.73894">
        <ele>205.7</ele>
        <time>2021-07-30T13:02:35Z</time>
      </trkpt>
      <trkpt lat="48.80189" lon="6.73901">
        <ele>205.7</ele>
        <time>2021-07-30T13:02:36Z</time>
      </trkpt>
      <trkpt lat="48.80182" lon="6.73916">
        <ele>205.7</ele>
        <time>2021-07-30T13:02:38Z</time>
      </trkpt>
      <trkpt lat="48.80184" lon="6.73923">
        <ele>205.7</ele>
        <time>2021-07-30T13:02:40Z</time>
      </trkpt>
      <trkpt lat="48.80182" lon="6.7393">
        <ele>205.6</ele>
        <time>2021-07-30T13:02:41Z</time>
      </trkpt>
      <trkpt lat="48.80179" lon="6.73938">
        <ele>205.6</ele>
        <time>2021-07-30T13:02:42Z</time>
      </trkpt>
      <trkpt lat="48.80175" lon="6.73948">
        <ele>205.5</ele>
        <time>2021-07-30T13:02:43Z</time>
      </trkpt>
      <trkpt lat="48.80172" lon="6.73957">
        <ele>205.5</ele>
        <time>2021-07-30T13:02:45Z</time>
      </trkpt>
      <trkpt lat="48.80169" lon="6.73965">
        <ele>205.5</ele>
        <time>2021-07-30T13:02:46Z</time>
      </trkpt>
      <trkpt lat="48.80167" lon="6.73971">
        <ele>205.5</ele>
        <time>2021-07-30T13:02:47Z</time>
      </trkpt>
      <trkpt lat="48.80166" lon="6.73981">
        <ele>205.5</ele>
        <time>2021-07-30T13:02:48Z</time>
      </trkpt>
      <trkpt lat="48.80164" lon="6.73989">
        <ele>205.5</ele>
        <time>2021-07-30T13:02:50Z</time>
      </trkpt>
      <trkpt lat="48.80162" lon="6.73997">
        <ele>205.5</ele>
        <time>2021-07-30T13:02:51Z</time>
      </trkpt>
      <trkpt lat="48.8016" lon="6.74016">
        <ele>205.6</ele>
        <time>2021-07-30T13:02:53Z</time>
      </trkpt>
      <trkpt lat="48.80158" lon="6.74023">
        <ele>205.6</ele>
        <time>2021-07-30T13:02:54Z</time>
      </trkpt>
      <trkpt lat="48.80154" lon="6.74037">
        <ele>205.7</ele>
        <time>2021-07-30T13:02:56Z</time>
      </trkpt>
      <trkpt lat="48.8015" lon="6.74046">
        <ele>205.7</ele>
        <time>2021-07-30T13:02:58Z</time>
      </trkpt>
      <trkpt lat="48.8015" lon="6.7405">
        <ele>205.7</ele>
        <time>2021-07-30T13:02:59Z</time>
      </trkpt>
      <trkpt lat="48.80149" lon="6.74056">
        <ele>205.7</ele>
        <time>2021-07-30T13:03:00Z</time>
      </trkpt>
      <trkpt lat="48.80147" lon="6.74068">
        <ele>205.8</ele>
        <time>2021-07-30T13:03:02Z</time>
      </trkpt>
      <trkpt lat="48.80145" lon="6.74076">
        <ele>205.8</ele>
        <time>2021-07-30T13:03:04Z</time>
      </trkpt>
      <trkpt lat="48.80138" lon="6.74087">
        <ele>205.8</ele>
        <time>2021-07-30T13:03:06Z</time>
      </trkpt>
      <trkpt lat="48.80135" lon="6.74092">
        <ele>205.8</ele>
        <time>2021-07-30T13:03:07Z</time>
      </trkpt>
      <trkpt lat="48.80132" lon="6.74097">
        <ele>205.8</ele>
        <time>2021-07-30T13:03:09Z</time>
      </trkpt>
      <trkpt lat="48.80129" lon="6.74102">
        <ele>205.8</ele>
        <time>2021-07-30T13:03:10Z</time>
      </trkpt>
      <trkpt lat="48.80125" lon="6.74107">
        <ele>205.8</ele>
        <time>2021-07-30T13:03:11Z</time>
      </trkpt>
      <trkpt lat="48.8012" lon="6.74112">
        <ele>205.8</ele>
        <time>2021-07-30T13:03:13Z</time>
      </trkpt>
      <trkpt lat="48.80114" lon="6.74119">
        <ele>205.8</ele>
        <time>2021-07-30T13:03:14Z</time>
      </trkpt>
      <trkpt lat="48.80109" lon="6.74122">
        <ele>205.8</ele>
        <time>2021-07-30T13:03:15Z</time>
      </trkpt>
      <trkpt lat="48.80105" lon="6.74126">
        <ele>205.8</ele>
        <time>2021-07-30T13:03:17Z</time>
      </trkpt>
      <trkpt lat="48.80101" lon="6.74131">
        <ele>205.8</ele>
        <time>2021-07-30T13:03:18Z</time>
      </trkpt>
      <trkpt lat="48.80097" lon="6.74135">
        <ele>205.8</ele>
        <time>2021-07-30T13:03:19Z</time>
      </trkpt>
      <trkpt lat="48.80092" lon="6.74138">
        <ele>205.9</ele>
        <time>2021-07-30T13:03:21Z</time>
      </trkpt>
      <trkpt lat="48.80088" lon="6.7414">
        <ele>205.9</ele>
        <time>2021-07-30T13:03:22Z</time>
      </trkpt>
      <trkpt lat="48.80083" lon="6.74141">
        <ele>205.9</ele>
        <time>2021-07-30T13:03:23Z</time>
      </trkpt>
      <trkpt lat="48.80078" lon="6.74144">
        <ele>206</ele>
        <time>2021-07-30T13:03:25Z</time>
      </trkpt>
      <trkpt lat="48.80074" lon="6.74146">
        <ele>206</ele>
        <time>2021-07-30T13:03:26Z</time>
      </trkpt>
      <trkpt lat="48.8007" lon="6.74149">
        <ele>206</ele>
        <time>2021-07-30T13:03:27Z</time>
      </trkpt>
      <trkpt lat="48.80067" lon="6.74152">
        <ele>206</ele>
        <time>2021-07-30T13:03:28Z</time>
      </trkpt>
      <trkpt lat="48.80062" lon="6.74157">
        <ele>206</ele>
        <time>2021-07-30T13:03:30Z</time>
      </trkpt>
      <trkpt lat="48.80058" lon="6.74161">
        <ele>206</ele>
        <time>2021-07-30T13:03:31Z</time>
      </trkpt>
      <trkpt lat="48.80055" lon="6.74164">
        <ele>206</ele>
        <time>2021-07-30T13:03:32Z</time>
      </trkpt>
      <trkpt lat="48.80049" lon="6.7417">
        <ele>206</ele>
        <time>2021-07-30T13:03:34Z</time>
      </trkpt>
      <trkpt lat="48.80045" lon="6.74174">
        <ele>206</ele>
        <time>2021-07-30T13:03:35Z</time>
      </trkpt>
      <trkpt lat="48.80042" lon="6.74177">
        <ele>206</ele>
        <time>2021-07-30T13:03:36Z</time>
      </trkpt>
      <trkpt lat="48.80038" lon="6.74183">
        <ele>205.9</ele>
        <time>2021-07-30T13:03:38Z</time>
      </trkpt>
      <trkpt lat="48.80035" lon="6.74184">
        <ele>205.9</ele>
        <time>2021-07-30T13:03:39Z</time>
      </trkpt>
      <trkpt lat="48.80034" lon="6.74184">
        <ele>205.9</ele>
        <time>2021-07-30T13:03:40Z</time>
      </trkpt>
      <trkpt lat="48.8003" lon="6.74185">
        <ele>205.9</ele>
        <time>2021-07-30T13:03:41Z</time>
      </trkpt>
      <trkpt lat="48.80025" lon="6.74187">
        <ele>205.9</ele>
        <time>2021-07-30T13:03:43Z</time>
      </trkpt>
      <trkpt lat="48.80022" lon="6.7419">
        <ele>205.9</ele>
        <time>2021-07-30T13:03:44Z</time>
      </trkpt>
      <trkpt lat="48.80019" lon="6.74193">
        <ele>205.8</ele>
        <time>2021-07-30T13:03:45Z</time>
      </trkpt>
      <trkpt lat="48.80017" lon="6.74195">
        <ele>205.8</ele>
        <time>2021-07-30T13:03:46Z</time>
      </trkpt>
      <trkpt lat="48.80016" lon="6.74196">
        <ele>205.8</ele>
        <time>2021-07-30T13:03:48Z</time>
      </trkpt>
      <trkpt lat="48.79986" lon="6.74218">
        <ele>205.8</ele>
        <time>2021-07-30T13:03:55Z</time>
      </trkpt>
      <trkpt lat="48.7998" lon="6.74221">
        <ele>205.7</ele>
        <time>2021-07-30T13:03:56Z</time>
      </trkpt>
      <trkpt lat="48.79974" lon="6.74227">
        <ele>205.7</ele>
        <time>2021-07-30T13:03:57Z</time>
      </trkpt>
      <trkpt lat="48.7997" lon="6.74237">
        <ele>205.7</ele>
        <time>2021-07-30T13:03:58Z</time>
      </trkpt>
      <trkpt lat="48.79964" lon="6.74245">
        <ele>205.7</ele>
        <time>2021-07-30T13:04:00Z</time>
      </trkpt>
      <trkpt lat="48.79957" lon="6.74255">
        <ele>205.8</ele>
        <time>2021-07-30T13:04:01Z</time>
      </trkpt>
      <trkpt lat="48.79954" lon="6.74259">
        <ele>205.8</ele>
        <time>2021-07-30T13:04:02Z</time>
      </trkpt>
      <trkpt lat="48.79952" lon="6.74264">
        <ele>205.8</ele>
        <time>2021-07-30T13:04:03Z</time>
      </trkpt>
      <trkpt lat="48.79946" lon="6.7427">
        <ele>205.8</ele>
        <time>2021-07-30T13:04:05Z</time>
      </trkpt>
      <trkpt lat="48.79942" lon="6.74273">
        <ele>205.9</ele>
        <time>2021-07-30T13:04:06Z</time>
      </trkpt>
      <trkpt lat="48.79939" lon="6.74276">
        <ele>205.9</ele>
        <time>2021-07-30T13:04:07Z</time>
      </trkpt>
      <trkpt lat="48.79931" lon="6.74286">
        <ele>206</ele>
        <time>2021-07-30T13:04:09Z</time>
      </trkpt>
      <trkpt lat="48.79929" lon="6.74286">
        <ele>206</ele>
        <time>2021-07-30T13:04:10Z</time>
      </trkpt>
      <trkpt lat="48.79924" lon="6.7429">
        <ele>206.1</ele>
        <time>2021-07-30T13:04:12Z</time>
      </trkpt>
      <trkpt lat="48.79918" lon="6.74295">
        <ele>206.2</ele>
        <time>2021-07-30T13:04:13Z</time>
      </trkpt>
      <trkpt lat="48.79914" lon="6.74298">
        <ele>206.2</ele>
        <time>2021-07-30T13:04:15Z</time>
      </trkpt>
      <trkpt lat="48.7991" lon="6.74299">
        <ele>206.2</ele>
        <time>2021-07-30T13:04:16Z</time>
      </trkpt>
      <trkpt lat="48.79906" lon="6.74301">
        <ele>206.3</ele>
        <time>2021-07-30T13:04:17Z</time>
      </trkpt>
      <trkpt lat="48.79902" lon="6.74304">
        <ele>206.3</ele>
        <time>2021-07-30T13:04:18Z</time>
      </trkpt>
      <trkpt lat="48.79895" lon="6.74307">
        <ele>206.4</ele>
        <time>2021-07-30T13:04:20Z</time>
      </trkpt>
      <trkpt lat="48.79892" lon="6.74309">
        <ele>206.4</ele>
        <time>2021-07-30T13:04:21Z</time>
      </trkpt>
      <trkpt lat="48.79888" lon="6.74309">
        <ele>206.5</ele>
        <time>2021-07-30T13:04:22Z</time>
      </trkpt>
      <trkpt lat="48.79885" lon="6.7431">
        <ele>206.5</ele>
        <time>2021-07-30T13:04:23Z</time>
      </trkpt>
      <trkpt lat="48.79879" lon="6.74311">
        <ele>206.6</ele>
        <time>2021-07-30T13:04:25Z</time>
      </trkpt>
      <trkpt lat="48.79875" lon="6.74312">
        <ele>206.7</ele>
        <time>2021-07-30T13:04:26Z</time>
      </trkpt>
      <trkpt lat="48.79873" lon="6.74314">
        <ele>206.8</ele>
        <time>2021-07-30T13:04:27Z</time>
      </trkpt>
      <trkpt lat="48.79869" lon="6.74315">
        <ele>206.9</ele>
        <time>2021-07-30T13:04:28Z</time>
      </trkpt>
      <trkpt lat="48.79865" lon="6.74316">
        <ele>207</ele>
        <time>2021-07-30T13:04:30Z</time>
      </trkpt>
      <trkpt lat="48.7986" lon="6.74316">
        <ele>207.1</ele>
        <time>2021-07-30T13:04:32Z</time>
      </trkpt>
      <trkpt lat="48.79857" lon="6.74317">
        <ele>207.2</ele>
        <time>2021-07-30T13:04:33Z</time>
      </trkpt>
      <trkpt lat="48.79854" lon="6.74319">
        <ele>207.3</ele>
        <time>2021-07-30T13:04:34Z</time>
      </trkpt>
      <trkpt lat="48.7985" lon="6.74321">
        <ele>207.4</ele>
        <time>2021-07-30T13:04:36Z</time>
      </trkpt>
      <trkpt lat="48.79846" lon="6.74322">
        <ele>207.5</ele>
        <time>2021-07-30T13:04:37Z</time>
      </trkpt>
      <trkpt lat="48.79845" lon="6.74322">
        <ele>207.5</ele>
        <time>2021-07-30T13:04:38Z</time>
      </trkpt>
      <trkpt lat="48.79842" lon="6.74325">
        <ele>207.7</ele>
        <time>2021-07-30T13:04:40Z</time>
      </trkpt>
      <trkpt lat="48.79839" lon="6.74326">
        <ele>207.8</ele>
        <time>2021-07-30T13:04:41Z</time>
      </trkpt>
      <trkpt lat="48.79836" lon="6.74326">
        <ele>207.9</ele>
        <time>2021-07-30T13:04:42Z</time>
      </trkpt>
      <trkpt lat="48.79832" lon="6.74327">
        <ele>208</ele>
        <time>2021-07-30T13:04:43Z</time>
      </trkpt>
      <trkpt lat="48.79831" lon="6.74328">
        <ele>208.1</ele>
        <time>2021-07-30T13:04:44Z</time>
      </trkpt>
      <trkpt lat="48.79825" lon="6.74331">
        <ele>208.3</ele>
        <time>2021-07-30T13:04:46Z</time>
      </trkpt>
      <trkpt lat="48.79822" lon="6.74333">
        <ele>208.4</ele>
        <time>2021-07-30T13:04:47Z</time>
      </trkpt>
      <trkpt lat="48.79821" lon="6.74334">
        <ele>208.4</ele>
        <time>2021-07-30T13:04:48Z</time>
      </trkpt>
      <trkpt lat="48.79817" lon="6.74338">
        <ele>208.6</ele>
        <time>2021-07-30T13:04:49Z</time>
      </trkpt>
      <trkpt lat="48.79813" lon="6.7434">
        <ele>208.8</ele>
        <time>2021-07-30T13:04:51Z</time>
      </trkpt>
      <trkpt lat="48.7981" lon="6.74341">
        <ele>208.9</ele>
        <time>2021-07-30T13:04:52Z</time>
      </trkpt>
      <trkpt lat="48.79804" lon="6.74344">
        <ele>209.1</ele>
        <time>2021-07-30T13:04:54Z</time>
      </trkpt>
      <trkpt lat="48.79799" lon="6.74346">
        <ele>209.2</ele>
        <time>2021-07-30T13:04:56Z</time>
      </trkpt>
      <trkpt lat="48.79797" lon="6.74346">
        <ele>209.3</ele>
        <time>2021-07-30T13:04:57Z</time>
      </trkpt>
      <trkpt lat="48.79794" lon="6.74345">
        <ele>209.4</ele>
        <time>2021-07-30T13:04:58Z</time>
      </trkpt>
      <trkpt lat="48.79787" lon="6.74348">
        <ele>209.6</ele>
        <time>2021-07-30T13:05:00Z</time>
      </trkpt>
      <trkpt lat="48.79782" lon="6.74349">
        <ele>209.8</ele>
        <time>2021-07-30T13:05:01Z</time>
      </trkpt>
      <trkpt lat="48.79777" lon="6.74351">
        <ele>209.9</ele>
        <time>2021-07-30T13:05:02Z</time>
      </trkpt>
      <trkpt lat="48.79773" lon="6.74351">
        <ele>210</ele>
        <time>2021-07-30T13:05:03Z</time>
      </trkpt>
      <trkpt lat="48.79769" lon="6.74353">
        <ele>210.2</ele>
        <time>2021-07-30T13:05:04Z</time>
      </trkpt>
      <trkpt lat="48.79765" lon="6.74356">
        <ele>210.3</ele>
        <time>2021-07-30T13:05:05Z</time>
      </trkpt>
      <trkpt lat="48.7976" lon="6.74358">
        <ele>210.4</ele>
        <time>2021-07-30T13:05:06Z</time>
      </trkpt>
      <trkpt lat="48.79756" lon="6.74363">
        <ele>210.5</ele>
        <time>2021-07-30T13:05:08Z</time>
      </trkpt>
      <trkpt lat="48.79753" lon="6.74367">
        <ele>210.6</ele>
        <time>2021-07-30T13:05:09Z</time>
      </trkpt>
      <trkpt lat="48.7975" lon="6.7437">
        <ele>210.7</ele>
        <time>2021-07-30T13:05:10Z</time>
      </trkpt>
      <trkpt lat="48.79748" lon="6.74372">
        <ele>210.8</ele>
        <time>2021-07-30T13:05:11Z</time>
      </trkpt>
      <trkpt lat="48.79747" lon="6.74373">
        <ele>210.8</ele>
        <time>2021-07-30T13:05:12Z</time>
      </trkpt>
      <trkpt lat="48.79745" lon="6.74375">
        <ele>210.9</ele>
        <time>2021-07-30T13:05:14Z</time>
      </trkpt>
      <trkpt lat="48.79744" lon="6.74376">
        <ele>210.9</ele>
        <time>2021-07-30T13:05:15Z</time>
      </trkpt>
      <trkpt lat="48.79742" lon="6.74377">
        <ele>210.9</ele>
        <time>2021-07-30T13:05:16Z</time>
      </trkpt>
      <trkpt lat="48.79739" lon="6.74378">
        <ele>211</ele>
        <time>2021-07-30T13:05:18Z</time>
      </trkpt>
      <trkpt lat="48.79737" lon="6.74378">
        <ele>211</ele>
        <time>2021-07-30T13:05:19Z</time>
      </trkpt>
      <trkpt lat="48.79736" lon="6.74379">
        <ele>211</ele>
        <time>2021-07-30T13:05:21Z</time>
      </trkpt>
      <trkpt lat="48.79719" lon="6.74385">
        <ele>211.3</ele>
        <time>2021-07-30T13:05:28Z</time>
      </trkpt>
      <trkpt lat="48.79714" lon="6.74385">
        <ele>211.3</ele>
        <time>2021-07-30T13:05:30Z</time>
      </trkpt>
      <trkpt lat="48.79711" lon="6.74385">
        <ele>211.3</ele>
        <time>2021-07-30T13:05:31Z</time>
      </trkpt>
      <trkpt lat="48.79707" lon="6.74383">
        <ele>211.3</ele>
        <time>2021-07-30T13:05:32Z</time>
      </trkpt>
      <trkpt lat="48.79701" lon="6.74379">
        <ele>211.2</ele>
        <time>2021-07-30T13:05:34Z</time>
      </trkpt>
      <trkpt lat="48.79696" lon="6.74378">
        <ele>211.1</ele>
        <time>2021-07-30T13:05:35Z</time>
      </trkpt>
      <trkpt lat="48.79689" lon="6.74378">
        <ele>210.9</ele>
        <time>2021-07-30T13:05:37Z</time>
      </trkpt>
      <trkpt lat="48.79687" lon="6.74379">
        <ele>210.8</ele>
        <time>2021-07-30T13:05:38Z</time>
      </trkpt>
      <trkpt lat="48.79685" lon="6.74382">
        <ele>210.7</ele>
        <time>2021-07-30T13:05:40Z</time>
      </trkpt>
      <trkpt lat="48.79685" lon="6.74385">
        <ele>210.6</ele>
        <time>2021-07-30T13:05:41Z</time>
      </trkpt>
      <trkpt lat="48.79685" lon="6.74391">
        <ele>210.5</ele>
        <time>2021-07-30T13:05:43Z</time>
      </trkpt>
      <trkpt lat="48.79683" lon="6.74397">
        <ele>210.5</ele>
        <time>2021-07-30T13:05:45Z</time>
      </trkpt>
      <trkpt lat="48.79682" lon="6.74401">
        <ele>210.5</ele>
        <time>2021-07-30T13:05:46Z</time>
      </trkpt>
      <trkpt lat="48.79682" lon="6.74403">
        <ele>210.5</ele>
        <time>2021-07-30T13:05:47Z</time>
      </trkpt>
      <trkpt lat="48.79683" lon="6.74406">
        <ele>210.5</ele>
        <time>2021-07-30T13:05:48Z</time>
      </trkpt>
      <trkpt lat="48.79685" lon="6.74408">
        <ele>210.4</ele>
        <time>2021-07-30T13:05:50Z</time>
      </trkpt>
      <trkpt lat="48.79687" lon="6.74413">
        <ele>210.4</ele>
        <time>2021-07-30T13:05:51Z</time>
      </trkpt>
      <trkpt lat="48.79691" lon="6.74415">
        <ele>210.4</ele>
        <time>2021-07-30T13:05:53Z</time>
      </trkpt>
      <trkpt lat="48.79696" lon="6.74419">
        <ele>210.3</ele>
        <time>2021-07-30T13:05:55Z</time>
      </trkpt>
      <trkpt lat="48.79696" lon="6.74425">
        <ele>210.3</ele>
        <time>2021-07-30T13:05:57Z</time>
      </trkpt>
      <trkpt lat="48.79697" lon="6.74429">
        <ele>210.3</ele>
        <time>2021-07-30T13:05:58Z</time>
      </trkpt>
      <trkpt lat="48.79698" lon="6.74434">
        <ele>210.2</ele>
        <time>2021-07-30T13:06:00Z</time>
      </trkpt>
      <trkpt lat="48.79698" lon="6.74435">
        <ele>210.2</ele>
        <time>2021-07-30T13:06:01Z</time>
      </trkpt>
      <trkpt lat="48.79698" lon="6.74438">
        <ele>210.2</ele>
        <time>2021-07-30T13:06:03Z</time>
      </trkpt>
      <trkpt lat="48.79698" lon="6.74439">
        <ele>210.1</ele>
        <time>2021-07-30T13:06:04Z</time>
      </trkpt>
      <trkpt lat="48.79698" lon="6.7444">
        <ele>210.1</ele>
        <time>2021-07-30T13:06:06Z</time>
      </trkpt>
      <trkpt lat="48.79698" lon="6.7444">
        <ele>210.1</ele>
        <time>2021-07-30T13:06:07Z</time>
      </trkpt>
      <trkpt lat="48.79698" lon="6.74441">
        <ele>210.1</ele>
        <time>2021-07-30T13:06:08Z</time>
      </trkpt>
      <trkpt lat="48.79698" lon="6.74445">
        <ele>210.1</ele>
        <time>2021-07-30T13:06:10Z</time>
      </trkpt>
      <trkpt lat="48.79698" lon="6.74447">
        <ele>210</ele>
        <time>2021-07-30T13:06:11Z</time>
      </trkpt>
      <trkpt lat="48.79698" lon="6.74447">
        <ele>210</ele>
        <time>2021-07-30T13:06:12Z</time>
      </trkpt>
      <trkpt lat="48.79697" lon="6.74447">
        <ele>210</ele>
        <time>2021-07-30T13:06:14Z</time>
      </trkpt>
      <trkpt lat="48.79697" lon="6.74447">
        <ele>210</ele>
        <time>2021-07-30T13:06:15Z</time>
      </trkpt>
      <trkpt lat="48.79696" lon="6.74448">
        <ele>210</ele>
        <time>2021-07-30T13:06:17Z</time>
      </trkpt>
      <trkpt lat="48.79696" lon="6.74448">
        <ele>210</ele>
        <time>2021-07-30T13:06:19Z</time>
      </trkpt>
      <trkpt lat="48.79696" lon="6.74449">
        <ele>210</ele>
        <time>2021-07-30T13:06:20Z</time>
      </trkpt>
      <trkpt lat="48.79703" lon="6.74441">
        <ele>210.1</ele>
        <time>2021-07-30T13:07:15Z</time>
      </trkpt>
      <trkpt lat="48.79704" lon="6.74431">
        <ele>210.2</ele>
        <time>2021-07-30T13:07:17Z</time>
      </trkpt>
      <trkpt lat="48.79704" lon="6.74423">
        <ele>210.3</ele>
        <time>2021-07-30T13:07:18Z</time>
      </trkpt>
      <trkpt lat="48.79701" lon="6.74409">
        <ele>210.3</ele>
        <time>2021-07-30T13:07:20Z</time>
      </trkpt>
      <trkpt lat="48.79699" lon="6.74398">
        <ele>210.4</ele>
        <time>2021-07-30T13:07:22Z</time>
      </trkpt>
      <trkpt lat="48.79697" lon="6.7439">
        <ele>210.4</ele>
        <time>2021-07-30T13:07:23Z</time>
      </trkpt>
      <trkpt lat="48.79695" lon="6.74386">
        <ele>210.4</ele>
        <time>2021-07-30T13:07:24Z</time>
      </trkpt>
      <trkpt lat="48.79693" lon="6.7438">
        <ele>210.5</ele>
        <time>2021-07-30T13:07:26Z</time>
      </trkpt>
      <trkpt lat="48.79694" lon="6.74376">
        <ele>210.5</ele>
        <time>2021-07-30T13:07:27Z</time>
      </trkpt>
      <trkpt lat="48.79694" lon="6.74374">
        <ele>210.5</ele>
        <time>2021-07-30T13:07:28Z</time>
      </trkpt>
      <trkpt lat="48.79695" lon="6.74375">
        <ele>210.5</ele>
        <time>2021-07-30T13:07:30Z</time>
      </trkpt>
      <trkpt lat="48.79696" lon="6.74376">
        <ele>210.5</ele>
        <time>2021-07-30T13:07:31Z</time>
      </trkpt>
      <trkpt lat="48.79696" lon="6.74376">
        <ele>210.5</ele>
        <time>2021-07-30T13:07:32Z</time>
      </trkpt>
      <trkpt lat="48.79697" lon="6.74377">
        <ele>210.5</ele>
        <time>2021-07-30T13:07:33Z</time>
      </trkpt>
      <trkpt lat="48.79697" lon="6.74378">
        <ele>210.5</ele>
        <time>2021-07-30T13:07:35Z</time>
      </trkpt>
      <trkpt lat="48.79697" lon="6.7438">
        <ele>210.5</ele>
        <time>2021-07-30T13:07:36Z</time>
      </trkpt>
      <trkpt lat="48.79696" lon="6.74381">
        <ele>210.5</ele>
        <time>2021-07-30T13:07:38Z</time>
      </trkpt>
      <trkpt lat="48.79685" lon="6.74378">
        <ele>210.6</ele>
        <time>2021-07-30T13:07:47Z</time>
      </trkpt>
      <trkpt lat="48.79684" lon="6.74376">
        <ele>210.6</ele>
        <time>2021-07-30T13:07:48Z</time>
      </trkpt>
      <trkpt lat="48.79684" lon="6.74373">
        <ele>210.6</ele>
        <time>2021-07-30T13:07:50Z</time>
      </trkpt>
      <trkpt lat="48.79682" lon="6.7437">
        <ele>210.7</ele>
        <time>2021-07-30T13:07:51Z</time>
      </trkpt>
      <trkpt lat="48.79682" lon="6.74364">
        <ele>210.7</ele>
        <time>2021-07-30T13:07:53Z</time>
      </trkpt>
      <trkpt lat="48.79682" lon="6.7436">
        <ele>210.8</ele>
        <time>2021-07-30T13:07:54Z</time>
      </trkpt>
      <trkpt lat="48.79683" lon="6.74353">
        <ele>210.9</ele>
        <time>2021-07-30T13:07:56Z</time>
      </trkpt>
      <trkpt lat="48.79683" lon="6.74346">
        <ele>211</ele>
        <time>2021-07-30T13:07:57Z</time>
      </trkpt>
      <trkpt lat="48.79682" lon="6.74341">
        <ele>211.1</ele>
        <time>2021-07-30T13:07:58Z</time>
      </trkpt>
      <trkpt lat="48.79681" lon="6.74339">
        <ele>211.1</ele>
        <time>2021-07-30T13:07:59Z</time>
      </trkpt>
      <trkpt lat="48.79678" lon="6.74338">
        <ele>211.2</ele>
        <time>2021-07-30T13:08:00Z</time>
      </trkpt>
      <trkpt lat="48.79672" lon="6.74332">
        <ele>211.3</ele>
        <time>2021-07-30T13:08:02Z</time>
      </trkpt>
      <trkpt lat="48.79668" lon="6.74328">
        <ele>211.4</ele>
        <time>2021-07-30T13:08:03Z</time>
      </trkpt>
      <trkpt lat="48.79663" lon="6.74326">
        <ele>211.5</ele>
        <time>2021-07-30T13:08:04Z</time>
      </trkpt>
      <trkpt lat="48.79658" lon="6.74323">
        <ele>211.6</ele>
        <time>2021-07-30T13:08:05Z</time>
      </trkpt>
      <trkpt lat="48.79654" lon="6.7432">
        <ele>211.7</ele>
        <time>2021-07-30T13:08:06Z</time>
      </trkpt>
      <trkpt lat="48.7965" lon="6.74314">
        <ele>211.8</ele>
        <time>2021-07-30T13:08:08Z</time>
      </trkpt>
      <trkpt lat="48.79647" lon="6.74312">
        <ele>211.8</ele>
        <time>2021-07-30T13:08:09Z</time>
      </trkpt>
      <trkpt lat="48.79642" lon="6.74308">
        <ele>211.9</ele>
        <time>2021-07-30T13:08:11Z</time>
      </trkpt>
      <trkpt lat="48.79638" lon="6.74304">
        <ele>212</ele>
        <time>2021-07-30T13:08:12Z</time>
      </trkpt>
      <trkpt lat="48.79634" lon="6.743">
        <ele>212.1</ele>
        <time>2021-07-30T13:08:14Z</time>
      </trkpt>
      <trkpt lat="48.79631" lon="6.74299">
        <ele>212.1</ele>
        <time>2021-07-30T13:08:15Z</time>
      </trkpt>
      <trkpt lat="48.79626" lon="6.74297">
        <ele>212.2</ele>
        <time>2021-07-30T13:08:17Z</time>
      </trkpt>
      <trkpt lat="48.79624" lon="6.74295">
        <ele>212.3</ele>
        <time>2021-07-30T13:08:18Z</time>
      </trkpt>
      <trkpt lat="48.7962" lon="6.74293">
        <ele>212.4</ele>
        <time>2021-07-30T13:08:20Z</time>
      </trkpt>
      <trkpt lat="48.79616" lon="6.74291">
        <ele>212.5</ele>
        <time>2021-07-30T13:08:21Z</time>
      </trkpt>
      <trkpt lat="48.7961" lon="6.74286">
        <ele>212.7</ele>
        <time>2021-07-30T13:08:23Z</time>
      </trkpt>
      <trkpt lat="48.79607" lon="6.74283">
        <ele>212.8</ele>
        <time>2021-07-30T13:08:24Z</time>
      </trkpt>
      <trkpt lat="48.79604" lon="6.74278">
        <ele>212.9</ele>
        <time>2021-07-30T13:08:26Z</time>
      </trkpt>
      <trkpt lat="48.79602" lon="6.74275">
        <ele>213</ele>
        <time>2021-07-30T13:08:28Z</time>
      </trkpt>
      <trkpt lat="48.79601" lon="6.74273">
        <ele>213.1</ele>
        <time>2021-07-30T13:08:29Z</time>
      </trkpt>
      <trkpt lat="48.79598" lon="6.74268">
        <ele>213.3</ele>
        <time>2021-07-30T13:08:31Z</time>
      </trkpt>
      <trkpt lat="48.79595" lon="6.74266">
        <ele>213.4</ele>
        <time>2021-07-30T13:08:32Z</time>
      </trkpt>
      <trkpt lat="48.79594" lon="6.74266">
        <ele>213.4</ele>
        <time>2021-07-30T13:08:33Z</time>
      </trkpt>
      <trkpt lat="48.79593" lon="6.74265">
        <ele>213.5</ele>
        <time>2021-07-30T13:08:34Z</time>
      </trkpt>
      <trkpt lat="48.79591" lon="6.74265">
        <ele>213.6</ele>
        <time>2021-07-30T13:08:35Z</time>
      </trkpt>
      <trkpt lat="48.79588" lon="6.74263">
        <ele>213.7</ele>
        <time>2021-07-30T13:08:37Z</time>
      </trkpt>
      <trkpt lat="48.79588" lon="6.74263">
        <ele>213.8</ele>
        <time>2021-07-30T13:08:38Z</time>
      </trkpt>
      <trkpt lat="48.79585" lon="6.74261">
        <ele>213.9</ele>
        <time>2021-07-30T13:08:39Z</time>
      </trkpt>
      <trkpt lat="48.79584" lon="6.74261">
        <ele>213.9</ele>
        <time>2021-07-30T13:08:41Z</time>
      </trkpt>
      <trkpt lat="48.79584" lon="6.7426">
        <ele>214</ele>
        <time>2021-07-30T13:08:42Z</time>
      </trkpt>
      <trkpt lat="48.79582" lon="6.74259">
        <ele>214.1</ele>
        <time>2021-07-30T13:08:43Z</time>
      </trkpt>
      <trkpt lat="48.79578" lon="6.74256">
        <ele>214.3</ele>
        <time>2021-07-30T13:08:45Z</time>
      </trkpt>
      <trkpt lat="48.79575" lon="6.74254">
        <ele>214.4</ele>
        <time>2021-07-30T13:08:46Z</time>
      </trkpt>
      <trkpt lat="48.79574" lon="6.74253">
        <ele>214.5</ele>
        <time>2021-07-30T13:08:47Z</time>
      </trkpt>
      <trkpt lat="48.79572" lon="6.74252">
        <ele>214.6</ele>
        <time>2021-07-30T13:08:48Z</time>
      </trkpt>
      <trkpt lat="48.79568" lon="6.74249">
        <ele>214.8</ele>
        <time>2021-07-30T13:08:50Z</time>
      </trkpt>
      <trkpt lat="48.79566" lon="6.74249">
        <ele>214.9</ele>
        <time>2021-07-30T13:08:51Z</time>
      </trkpt>
      <trkpt lat="48.79563" lon="6.74246">
        <ele>215</ele>
        <time>2021-07-30T13:08:53Z</time>
      </trkpt>
      <trkpt lat="48.79561" lon="6.74245">
        <ele>215.1</ele>
        <time>2021-07-30T13:08:54Z</time>
      </trkpt>
      <trkpt lat="48.79558" lon="6.74242">
        <ele>215.3</ele>
        <time>2021-07-30T13:08:56Z</time>
      </trkpt>
      <trkpt lat="48.79556" lon="6.74239">
        <ele>215.4</ele>
        <time>2021-07-30T13:08:57Z</time>
      </trkpt>
      <trkpt lat="48.79552" lon="6.74234">
        <ele>215.6</ele>
        <time>2021-07-30T13:08:59Z</time>
      </trkpt>
      <trkpt lat="48.79549" lon="6.74231">
        <ele>215.7</ele>
        <time>2021-07-30T13:09:00Z</time>
      </trkpt>
      <trkpt lat="48.79548" lon="6.7423">
        <ele>215.7</ele>
        <time>2021-07-30T13:09:01Z</time>
      </trkpt>
      <trkpt lat="48.79544" lon="6.74228">
        <ele>215.8</ele>
        <time>2021-07-30T13:09:02Z</time>
      </trkpt>
      <trkpt lat="48.79543" lon="6.74228">
        <ele>215.8</ele>
        <time>2021-07-30T13:09:03Z</time>
      </trkpt>
      <trkpt lat="48.79539" lon="6.74226">
        <ele>216</ele>
        <time>2021-07-30T13:09:05Z</time>
      </trkpt>
      <trkpt lat="48.79536" lon="6.74227">
        <ele>216</ele>
        <time>2021-07-30T13:09:06Z</time>
      </trkpt>
      <trkpt lat="48.79531" lon="6.74226">
        <ele>216.1</ele>
        <time>2021-07-30T13:09:08Z</time>
      </trkpt>
      <trkpt lat="48.79527" lon="6.74222">
        <ele>216.2</ele>
        <time>2021-07-30T13:09:10Z</time>
      </trkpt>
      <trkpt lat="48.79524" lon="6.74219">
        <ele>216.3</ele>
        <time>2021-07-30T13:09:11Z</time>
      </trkpt>
      <trkpt lat="48.79521" lon="6.74216">
        <ele>216.4</ele>
        <time>2021-07-30T13:09:13Z</time>
      </trkpt>
      <trkpt lat="48.79518" lon="6.74214">
        <ele>216.4</ele>
        <time>2021-07-30T13:09:14Z</time>
      </trkpt>
      <trkpt lat="48.79513" lon="6.74215">
        <ele>216.5</ele>
        <time>2021-07-30T13:09:15Z</time>
      </trkpt>
      <trkpt lat="48.79508" lon="6.74214">
        <ele>216.6</ele>
        <time>2021-07-30T13:09:17Z</time>
      </trkpt>
      <trkpt lat="48.79504" lon="6.74212">
        <ele>216.6</ele>
        <time>2021-07-30T13:09:19Z</time>
      </trkpt>
      <trkpt lat="48.795" lon="6.74211">
        <ele>216.7</ele>
        <time>2021-07-30T13:09:20Z</time>
      </trkpt>
      <trkpt lat="48.79497" lon="6.74211">
        <ele>216.7</ele>
        <time>2021-07-30T13:09:21Z</time>
      </trkpt>
      <trkpt lat="48.79494" lon="6.74209">
        <ele>216.7</ele>
        <time>2021-07-30T13:09:23Z</time>
      </trkpt>
      <trkpt lat="48.79489" lon="6.74206">
        <ele>216.8</ele>
        <time>2021-07-30T13:09:25Z</time>
      </trkpt>
      <trkpt lat="48.79486" lon="6.74205">
        <ele>216.8</ele>
        <time>2021-07-30T13:09:26Z</time>
      </trkpt>
      <trkpt lat="48.79481" lon="6.74202">
        <ele>216.8</ele>
        <time>2021-07-30T13:09:28Z</time>
      </trkpt>
      <trkpt lat="48.79479" lon="6.742">
        <ele>216.8</ele>
        <time>2021-07-30T13:09:29Z</time>
      </trkpt>
      <trkpt lat="48.79475" lon="6.74198">
        <ele>216.8</ele>
        <time>2021-07-30T13:09:30Z</time>
      </trkpt>
      <trkpt lat="48.79473" lon="6.74198">
        <ele>216.8</ele>
        <time>2021-07-30T13:09:31Z</time>
      </trkpt>
      <trkpt lat="48.79468" lon="6.74196">
        <ele>216.8</ele>
        <time>2021-07-30T13:09:33Z</time>
      </trkpt>
      <trkpt lat="48.79466" lon="6.74194">
        <ele>216.8</ele>
        <time>2021-07-30T13:09:34Z</time>
      </trkpt>
      <trkpt lat="48.79462" lon="6.7419">
        <ele>216.8</ele>
        <time>2021-07-30T13:09:35Z</time>
      </trkpt>
      <trkpt lat="48.79457" lon="6.74187">
        <ele>216.7</ele>
        <time>2021-07-30T13:09:37Z</time>
      </trkpt>
      <trkpt lat="48.79452" lon="6.74182">
        <ele>216.7</ele>
        <time>2021-07-30T13:09:39Z</time>
      </trkpt>
      <trkpt lat="48.7945" lon="6.7418">
        <ele>216.7</ele>
        <time>2021-07-30T13:09:40Z</time>
      </trkpt>
      <trkpt lat="48.79445" lon="6.7418">
        <ele>216.6</ele>
        <time>2021-07-30T13:09:42Z</time>
      </trkpt>
      <trkpt lat="48.79441" lon="6.7418">
        <ele>216.5</ele>
        <time>2021-07-30T13:09:43Z</time>
      </trkpt>
      <trkpt lat="48.79435" lon="6.74179">
        <ele>216.5</ele>
        <time>2021-07-30T13:09:45Z</time>
      </trkpt>
      <trkpt lat="48.79431" lon="6.74177">
        <ele>216.4</ele>
        <time>2021-07-30T13:09:46Z</time>
      </trkpt>
      <trkpt lat="48.79426" lon="6.74175">
        <ele>216.3</ele>
        <time>2021-07-30T13:09:47Z</time>
      </trkpt>
      <trkpt lat="48.79421" lon="6.74172">
        <ele>216.2</ele>
        <time>2021-07-30T13:09:48Z</time>
      </trkpt>
      <trkpt lat="48.79414" lon="6.74169">
        <ele>216.2</ele>
        <time>2021-07-30T13:09:50Z</time>
      </trkpt>
      <trkpt lat="48.79406" lon="6.74168">
        <ele>216.1</ele>
        <time>2021-07-30T13:09:52Z</time>
      </trkpt>
      <trkpt lat="48.79402" lon="6.74167">
        <ele>216.1</ele>
        <time>2021-07-30T13:09:53Z</time>
      </trkpt>
      <trkpt lat="48.79397" lon="6.74165">
        <ele>216.1</ele>
        <time>2021-07-30T13:09:54Z</time>
      </trkpt>
      <trkpt lat="48.7939" lon="6.74161">
        <ele>216.1</ele>
        <time>2021-07-30T13:09:56Z</time>
      </trkpt>
      <trkpt lat="48.79385" lon="6.74159">
        <ele>216.1</ele>
        <time>2021-07-30T13:09:57Z</time>
      </trkpt>
      <trkpt lat="48.79378" lon="6.74154">
        <ele>216.1</ele>
        <time>2021-07-30T13:09:59Z</time>
      </trkpt>
      <trkpt lat="48.79373" lon="6.74152">
        <ele>216.1</ele>
        <time>2021-07-30T13:10:00Z</time>
      </trkpt>
      <trkpt lat="48.7937" lon="6.74151">
        <ele>216.1</ele>
        <time>2021-07-30T13:10:01Z</time>
      </trkpt>
      <trkpt lat="48.79364" lon="6.74148">
        <ele>216.1</ele>
        <time>2021-07-30T13:10:03Z</time>
      </trkpt>
      <trkpt lat="48.79361" lon="6.74145">
        <ele>216.1</ele>
        <time>2021-07-30T13:10:04Z</time>
      </trkpt>
      <trkpt lat="48.79357" lon="6.74142">
        <ele>216.1</ele>
        <time>2021-07-30T13:10:05Z</time>
      </trkpt>
      <trkpt lat="48.79353" lon="6.7414">
        <ele>216.1</ele>
        <time>2021-07-30T13:10:06Z</time>
      </trkpt>
      <trkpt lat="48.79349" lon="6.7414">
        <ele>216.1</ele>
        <time>2021-07-30T13:10:08Z</time>
      </trkpt>
      <trkpt lat="48.79345" lon="6.7414">
        <ele>216.1</ele>
        <time>2021-07-30T13:10:09Z</time>
      </trkpt>
      <trkpt lat="48.79342" lon="6.74141">
        <ele>216.1</ele>
        <time>2021-07-30T13:10:10Z</time>
      </trkpt>
      <trkpt lat="48.79337" lon="6.74144">
        <ele>216</ele>
        <time>2021-07-30T13:10:11Z</time>
      </trkpt>
      <trkpt lat="48.79332" lon="6.74148">
        <ele>216</ele>
        <time>2021-07-30T13:10:13Z</time>
      </trkpt>
      <trkpt lat="48.79328" lon="6.74151">
        <ele>215.9</ele>
        <time>2021-07-30T13:10:14Z</time>
      </trkpt>
      <trkpt lat="48.79325" lon="6.74154">
        <ele>215.8</ele>
        <time>2021-07-30T13:10:15Z</time>
      </trkpt>
      <trkpt lat="48.79323" lon="6.74158">
        <ele>215.8</ele>
        <time>2021-07-30T13:10:16Z</time>
      </trkpt>
      <trkpt lat="48.7932" lon="6.74162">
        <ele>215.7</ele>
        <time>2021-07-30T13:10:17Z</time>
      </trkpt>
      <trkpt lat="48.79317" lon="6.74166">
        <ele>215.6</ele>
        <time>2021-07-30T13:10:18Z</time>
      </trkpt>
      <trkpt lat="48.79314" lon="6.74169">
        <ele>215.4</ele>
        <time>2021-07-30T13:10:20Z</time>
      </trkpt>
      <trkpt lat="48.79311" lon="6.74173">
        <ele>215.3</ele>
        <time>2021-07-30T13:10:21Z</time>
      </trkpt>
      <trkpt lat="48.79309" lon="6.74178">
        <ele>215.1</ele>
        <time>2021-07-30T13:10:22Z</time>
      </trkpt>
      <trkpt lat="48.79306" lon="6.74181">
        <ele>214.9</ele>
        <time>2021-07-30T13:10:23Z</time>
      </trkpt>
      <trkpt lat="48.79304" lon="6.74185">
        <ele>214.8</ele>
        <time>2021-07-30T13:10:24Z</time>
      </trkpt>
      <trkpt lat="48.79298" lon="6.74191">
        <ele>214.4</ele>
        <time>2021-07-30T13:10:26Z</time>
      </trkpt>
      <trkpt lat="48.79295" lon="6.74196">
        <ele>214.1</ele>
        <time>2021-07-30T13:10:27Z</time>
      </trkpt>
      <trkpt lat="48.79289" lon="6.74207">
        <ele>213.6</ele>
        <time>2021-07-30T13:10:29Z</time>
      </trkpt>
      <trkpt lat="48.79282" lon="6.74216">
        <ele>213</ele>
        <time>2021-07-30T13:10:31Z</time>
      </trkpt>
      <trkpt lat="48.79278" lon="6.74221">
        <ele>212.8</ele>
        <time>2021-07-30T13:10:32Z</time>
      </trkpt>
      <trkpt lat="48.79275" lon="6.74226">
        <ele>212.6</ele>
        <time>2021-07-30T13:10:33Z</time>
      </trkpt>
      <trkpt lat="48.79272" lon="6.74231">
        <ele>212.5</ele>
        <time>2021-07-30T13:10:34Z</time>
      </trkpt>
      <trkpt lat="48.79263" lon="6.7424">
        <ele>212.2</ele>
        <time>2021-07-30T13:10:36Z</time>
      </trkpt>
      <trkpt lat="48.79254" lon="6.74245">
        <ele>211.9</ele>
        <time>2021-07-30T13:10:38Z</time>
      </trkpt>
      <trkpt lat="48.79249" lon="6.74245">
        <ele>211.8</ele>
        <time>2021-07-30T13:10:39Z</time>
      </trkpt>
      <trkpt lat="48.79244" lon="6.74246">
        <ele>211.8</ele>
        <time>2021-07-30T13:10:40Z</time>
      </trkpt>
      <trkpt lat="48.79239" lon="6.74243">
        <ele>211.7</ele>
        <time>2021-07-30T13:10:42Z</time>
      </trkpt>
      <trkpt lat="48.79234" lon="6.74242">
        <ele>211.5</ele>
        <time>2021-07-30T13:10:43Z</time>
      </trkpt>
      <trkpt lat="48.7923" lon="6.7424">
        <ele>211.5</ele>
        <time>2021-07-30T13:10:45Z</time>
      </trkpt>
      <trkpt lat="48.79226" lon="6.74236">
        <ele>211.4</ele>
        <time>2021-07-30T13:10:47Z</time>
      </trkpt>
      <trkpt lat="48.79222" lon="6.7423">
        <ele>211.3</ele>
        <time>2021-07-30T13:10:49Z</time>
      </trkpt>
      <trkpt lat="48.79218" lon="6.74226">
        <ele>211.3</ele>
        <time>2021-07-30T13:10:50Z</time>
      </trkpt>
      <trkpt lat="48.79214" lon="6.74224">
        <ele>211.2</ele>
        <time>2021-07-30T13:10:51Z</time>
      </trkpt>
      <trkpt lat="48.79208" lon="6.74219">
        <ele>211.1</ele>
        <time>2021-07-30T13:10:53Z</time>
      </trkpt>
      <trkpt lat="48.79201" lon="6.74213">
        <ele>211.1</ele>
        <time>2021-07-30T13:10:55Z</time>
      </trkpt>
      <trkpt lat="48.79192" lon="6.74211">
        <ele>211</ele>
        <time>2021-07-30T13:10:57Z</time>
      </trkpt>
      <trkpt lat="48.79187" lon="6.7421">
        <ele>210.9</ele>
        <time>2021-07-30T13:10:58Z</time>
      </trkpt>
      <trkpt lat="48.79179" lon="6.74207">
        <ele>210.8</ele>
        <time>2021-07-30T13:10:59Z</time>
      </trkpt>
      <trkpt lat="48.79166" lon="6.742">
        <ele>210.7</ele>
        <time>2021-07-30T13:11:01Z</time>
      </trkpt>
      <trkpt lat="48.79159" lon="6.74204">
        <ele>210.7</ele>
        <time>2021-07-30T13:11:03Z</time>
      </trkpt>
      <trkpt lat="48.79153" lon="6.742">
        <ele>210.6</ele>
        <time>2021-07-30T13:11:04Z</time>
      </trkpt>
      <trkpt lat="48.79141" lon="6.74195">
        <ele>210.6</ele>
        <time>2021-07-30T13:11:05Z</time>
      </trkpt>
      <trkpt lat="48.79131" lon="6.74199">
        <ele>210.5</ele>
        <time>2021-07-30T13:11:06Z</time>
      </trkpt>
      <trkpt lat="48.79128" lon="6.74198">
        <ele>210.5</ele>
        <time>2021-07-30T13:11:07Z</time>
      </trkpt>
      <trkpt lat="48.79124" lon="6.74197">
        <ele>210.5</ele>
        <time>2021-07-30T13:11:08Z</time>
      </trkpt>
      <trkpt lat="48.79119" lon="6.74198">
        <ele>210.6</ele>
        <time>2021-07-30T13:11:10Z</time>
      </trkpt>
      <trkpt lat="48.79109" lon="6.74201">
        <ele>210.7</ele>
        <time>2021-07-30T13:11:12Z</time>
      </trkpt>
      <trkpt lat="48.79086" lon="6.74204">
        <ele>211.2</ele>
        <time>2021-07-30T13:11:13Z</time>
      </trkpt>
      <trkpt lat="48.7908" lon="6.74204">
        <ele>211.2</ele>
        <time>2021-07-30T13:11:14Z</time>
      </trkpt>
      <trkpt lat="48.79078" lon="6.74206">
        <ele>211.3</ele>
        <time>2021-07-30T13:11:16Z</time>
      </trkpt>
      <trkpt lat="48.79075" lon="6.74206">
        <ele>211.3</ele>
        <time>2021-07-30T13:11:17Z</time>
      </trkpt>
      <trkpt lat="48.79071" lon="6.74208">
        <ele>211.4</ele>
        <time>2021-07-30T13:11:18Z</time>
      </trkpt>
      <trkpt lat="48.79069" lon="6.74211">
        <ele>211.4</ele>
        <time>2021-07-30T13:11:19Z</time>
      </trkpt>
      <trkpt lat="48.79068" lon="6.74212">
        <ele>211.5</ele>
        <time>2021-07-30T13:11:21Z</time>
      </trkpt>
      <trkpt lat="48.79066" lon="6.74213">
        <ele>211.5</ele>
        <time>2021-07-30T13:11:22Z</time>
      </trkpt>
      <trkpt lat="48.79065" lon="6.74213">
        <ele>211.5</ele>
        <time>2021-07-30T13:11:23Z</time>
      </trkpt>
      <trkpt lat="48.79062" lon="6.74211">
        <ele>211.6</ele>
        <time>2021-07-30T13:11:25Z</time>
      </trkpt>
      <trkpt lat="48.7906" lon="6.7421">
        <ele>211.7</ele>
        <time>2021-07-30T13:11:26Z</time>
      </trkpt>
      <trkpt lat="48.79043" lon="6.74213">
        <ele>212.1</ele>
        <time>2021-07-30T13:11:36Z</time>
      </trkpt>
      <trkpt lat="48.79038" lon="6.74217">
        <ele>212.1</ele>
        <time>2021-07-30T13:11:37Z</time>
      </trkpt>
      <trkpt lat="48.7903" lon="6.74221">
        <ele>211.9</ele>
        <time>2021-07-30T13:11:39Z</time>
      </trkpt>
      <trkpt lat="48.79019" lon="6.74226">
        <ele>211.7</ele>
        <time>2021-07-30T13:11:41Z</time>
      </trkpt>
      <trkpt lat="48.79014" lon="6.74228">
        <ele>211.6</ele>
        <time>2021-07-30T13:11:42Z</time>
      </trkpt>
      <trkpt lat="48.79007" lon="6.74231">
        <ele>211.5</ele>
        <time>2021-07-30T13:11:45Z</time>
      </trkpt>
      <trkpt lat="48.79004" lon="6.74232">
        <ele>211.5</ele>
        <time>2021-07-30T13:11:46Z</time>
      </trkpt>
      <trkpt lat="48.78999" lon="6.74233">
        <ele>211.6</ele>
        <time>2021-07-30T13:11:48Z</time>
      </trkpt>
      <trkpt lat="48.78994" lon="6.74233">
        <ele>211.7</ele>
        <time>2021-07-30T13:11:49Z</time>
      </trkpt>
      <trkpt lat="48.78988" lon="6.74233">
        <ele>211.8</ele>
        <time>2021-07-30T13:11:50Z</time>
      </trkpt>
      <trkpt lat="48.78983" lon="6.74231">
        <ele>211.9</ele>
        <time>2021-07-30T13:11:51Z</time>
      </trkpt>
      <trkpt lat="48.78976" lon="6.74226">
        <ele>212.1</ele>
        <time>2021-07-30T13:11:53Z</time>
      </trkpt>
      <trkpt lat="48.78972" lon="6.74222">
        <ele>212.2</ele>
        <time>2021-07-30T13:11:54Z</time>
      </trkpt>
      <trkpt lat="48.78968" lon="6.74217">
        <ele>212.3</ele>
        <time>2021-07-30T13:11:55Z</time>
      </trkpt>
      <trkpt lat="48.78964" lon="6.74214">
        <ele>212.4</ele>
        <time>2021-07-30T13:11:56Z</time>
      </trkpt>
      <trkpt lat="48.7896" lon="6.74209">
        <ele>212.5</ele>
        <time>2021-07-30T13:11:58Z</time>
      </trkpt>
      <trkpt lat="48.78956" lon="6.74206">
        <ele>212.5</ele>
        <time>2021-07-30T13:11:59Z</time>
      </trkpt>
      <trkpt lat="48.78953" lon="6.74203">
        <ele>212.6</ele>
        <time>2021-07-30T13:12:01Z</time>
      </trkpt>
      <trkpt lat="48.7895" lon="6.74197">
        <ele>212.6</ele>
        <time>2021-07-30T13:12:02Z</time>
      </trkpt>
      <trkpt lat="48.78948" lon="6.74191">
        <ele>212.7</ele>
        <time>2021-07-30T13:12:03Z</time>
      </trkpt>
      <trkpt lat="48.78946" lon="6.74184">
        <ele>212.8</ele>
        <time>2021-07-30T13:12:04Z</time>
      </trkpt>
      <trkpt lat="48.78946" lon="6.74179">
        <ele>212.8</ele>
        <time>2021-07-30T13:12:06Z</time>
      </trkpt>
      <trkpt lat="48.78945" lon="6.74173">
        <ele>212.9</ele>
        <time>2021-07-30T13:12:07Z</time>
      </trkpt>
      <trkpt lat="48.78943" lon="6.74166">
        <ele>213</ele>
        <time>2021-07-30T13:12:08Z</time>
      </trkpt>
      <trkpt lat="48.78941" lon="6.74162">
        <ele>213.1</ele>
        <time>2021-07-30T13:12:09Z</time>
      </trkpt>
      <trkpt lat="48.78939" lon="6.7416">
        <ele>213.1</ele>
        <time>2021-07-30T13:12:10Z</time>
      </trkpt>
      <trkpt lat="48.78937" lon="6.74159">
        <ele>213.1</ele>
        <time>2021-07-30T13:12:12Z</time>
      </trkpt>
      <trkpt lat="48.78936" lon="6.74158">
        <ele>213.2</ele>
        <time>2021-07-30T13:12:13Z</time>
      </trkpt>
      <trkpt lat="48.78935" lon="6.74158">
        <ele>213.2</ele>
        <time>2021-07-30T13:12:14Z</time>
      </trkpt>
      <trkpt lat="48.78874" lon="6.74126">
        <ele>213.7</ele>
        <time>2021-07-30T13:12:41Z</time>
      </trkpt>
      <trkpt lat="48.78869" lon="6.74123">
        <ele>213.7</ele>
        <time>2021-07-30T13:12:43Z</time>
      </trkpt>
      <trkpt lat="48.78866" lon="6.7412">
        <ele>213.7</ele>
        <time>2021-07-30T13:12:44Z</time>
      </trkpt>
      <trkpt lat="48.78863" lon="6.74116">
        <ele>213.7</ele>
        <time>2021-07-30T13:12:45Z</time>
      </trkpt>
      <trkpt lat="48.78862" lon="6.74114">
        <ele>213.7</ele>
        <time>2021-07-30T13:12:46Z</time>
      </trkpt>
      <trkpt lat="48.78859" lon="6.74109">
        <ele>213.8</ele>
        <time>2021-07-30T13:12:47Z</time>
      </trkpt>
      <trkpt lat="48.78858" lon="6.74107">
        <ele>213.8</ele>
        <time>2021-07-30T13:12:48Z</time>
      </trkpt>
      <trkpt lat="48.78856" lon="6.74105">
        <ele>213.8</ele>
        <time>2021-07-30T13:12:50Z</time>
      </trkpt>
      <trkpt lat="48.78854" lon="6.74102">
        <ele>213.9</ele>
        <time>2021-07-30T13:12:51Z</time>
      </trkpt>
      <trkpt lat="48.78851" lon="6.74099">
        <ele>213.9</ele>
        <time>2021-07-30T13:12:53Z</time>
      </trkpt>
      <trkpt lat="48.78841" lon="6.74091">
        <ele>214.2</ele>
        <time>2021-07-30T13:12:54Z</time>
      </trkpt>
      <trkpt lat="48.78785" lon="6.74072">
        <ele>218.9</ele>
        <time>2021-07-30T13:13:13Z</time>
      </trkpt>
      <trkpt lat="48.78783" lon="6.74068">
        <ele>218.8</ele>
        <time>2021-07-30T13:13:14Z</time>
      </trkpt>
      <trkpt lat="48.78781" lon="6.74064">
        <ele>218.8</ele>
        <time>2021-07-30T13:13:15Z</time>
      </trkpt>
      <trkpt lat="48.78781" lon="6.74062">
        <ele>218.8</ele>
        <time>2021-07-30T13:13:16Z</time>
      </trkpt>
      <trkpt lat="48.7878" lon="6.74058">
        <ele>218.8</ele>
        <time>2021-07-30T13:13:18Z</time>
      </trkpt>
      <trkpt lat="48.7878" lon="6.74056">
        <ele>218.8</ele>
        <time>2021-07-30T13:13:19Z</time>
      </trkpt>
      <trkpt lat="48.7878" lon="6.74055">
        <ele>218.8</ele>
        <time>2021-07-30T13:13:20Z</time>
      </trkpt>
      <trkpt lat="48.78781" lon="6.74051">
        <ele>218.8</ele>
        <time>2021-07-30T13:13:22Z</time>
      </trkpt>
      <trkpt lat="48.78781" lon="6.74051">
        <ele>218.8</ele>
        <time>2021-07-30T13:13:23Z</time>
      </trkpt>
      <trkpt lat="48.78782" lon="6.74051">
        <ele>218.8</ele>
        <time>2021-07-30T13:13:24Z</time>
      </trkpt>
      <trkpt lat="48.78785" lon="6.74048">
        <ele>218.8</ele>
        <time>2021-07-30T13:13:26Z</time>
      </trkpt>
      <trkpt lat="48.78785" lon="6.74045">
        <ele>218.8</ele>
        <time>2021-07-30T13:13:27Z</time>
      </trkpt>
      <trkpt lat="48.78784" lon="6.74043">
        <ele>218.8</ele>
        <time>2021-07-30T13:13:28Z</time>
      </trkpt>
      <trkpt lat="48.78782" lon="6.74041">
        <ele>218.8</ele>
        <time>2021-07-30T13:13:30Z</time>
      </trkpt>
      <trkpt lat="48.7878" lon="6.74043">
        <ele>218.8</ele>
        <time>2021-07-30T13:13:32Z</time>
      </trkpt>
      <trkpt lat="48.78778" lon="6.74045">
        <ele>218.8</ele>
        <time>2021-07-30T13:13:34Z</time>
      </trkpt>
      <trkpt lat="48.78777" lon="6.74046">
        <ele>218.8</ele>
        <time>2021-07-30T13:13:36Z</time>
      </trkpt>
      <trkpt lat="48.78775" lon="6.74048">
        <ele>218.8</ele>
        <time>2021-07-30T13:13:37Z</time>
      </trkpt>
      <trkpt lat="48.78772" lon="6.7405">
        <ele>218.8</ele>
        <time>2021-07-30T13:13:38Z</time>
      </trkpt>
      <trkpt lat="48.78771" lon="6.7405">
        <ele>218.8</ele>
        <time>2021-07-30T13:13:40Z</time>
      </trkpt>
      <trkpt lat="48.7877" lon="6.74047">
        <ele>218.8</ele>
        <time>2021-07-30T13:13:41Z</time>
      </trkpt>
      <trkpt lat="48.7877" lon="6.74042">
        <ele>218.8</ele>
        <time>2021-07-30T13:13:42Z</time>
      </trkpt>
      <trkpt lat="48.7877" lon="6.7404">
        <ele>218.8</ele>
        <time>2021-07-30T13:13:43Z</time>
      </trkpt>
      <trkpt lat="48.78771" lon="6.74034">
        <ele>218.9</ele>
        <time>2021-07-30T13:13:45Z</time>
      </trkpt>
      <trkpt lat="48.78772" lon="6.74027">
        <ele>218.9</ele>
        <time>2021-07-30T13:13:47Z</time>
      </trkpt>
      <trkpt lat="48.78773" lon="6.74022">
        <ele>219</ele>
        <time>2021-07-30T13:13:48Z</time>
      </trkpt>
      <trkpt lat="48.78774" lon="6.74016">
        <ele>219.1</ele>
        <time>2021-07-30T13:13:49Z</time>
      </trkpt>
      <trkpt lat="48.78774" lon="6.74013">
        <ele>219.1</ele>
        <time>2021-07-30T13:13:50Z</time>
      </trkpt>
      <trkpt lat="48.78774" lon="6.74006">
        <ele>219.2</ele>
        <time>2021-07-30T13:13:52Z</time>
      </trkpt>
      <trkpt lat="48.78775" lon="6.74002">
        <ele>219.3</ele>
        <time>2021-07-30T13:13:53Z</time>
      </trkpt>
      <trkpt lat="48.78775" lon="6.74">
        <ele>219.3</ele>
        <time>2021-07-30T13:13:54Z</time>
      </trkpt>
      <trkpt lat="48.78776" lon="6.73995">
        <ele>219.4</ele>
        <time>2021-07-30T13:13:55Z</time>
      </trkpt>
      <trkpt lat="48.78777" lon="6.73994">
        <ele>219.4</ele>
        <time>2021-07-30T13:13:56Z</time>
      </trkpt>
      <trkpt lat="48.78777" lon="6.73994">
        <ele>219.4</ele>
        <time>2021-07-30T13:13:57Z</time>
      </trkpt>
      <trkpt lat="48.78777" lon="6.73994">
        <ele>219.4</ele>
        <time>2021-07-30T13:13:58Z</time>
      </trkpt>
      <trkpt lat="48.78777" lon="6.73993">
        <ele>219.4</ele>
        <time>2021-07-30T13:13:59Z</time>
      </trkpt>
      <trkpt lat="48.78777" lon="6.73993">
        <ele>219.4</ele>
        <time>2021-07-30T13:14:01Z</time>
      </trkpt>
      <trkpt lat="48.78777" lon="6.73993">
        <ele>219.4</ele>
        <time>2021-07-30T13:14:02Z</time>
      </trkpt>
      <trkpt lat="48.78778" lon="6.73992">
        <ele>219.4</ele>
        <time>2021-07-30T13:14:03Z</time>
      </trkpt>
      <trkpt lat="48.78778" lon="6.7399">
        <ele>219.5</ele>
        <time>2021-07-30T13:14:04Z</time>
      </trkpt>
      <trkpt lat="48.78779" lon="6.73988">
        <ele>219.5</ele>
        <time>2021-07-30T13:14:05Z</time>
      </trkpt>
      <trkpt lat="48.78782" lon="6.73972">
        <ele>219.8</ele>
        <time>2021-07-30T13:14:10Z</time>
      </trkpt>
      <trkpt lat="48.78783" lon="6.73967">
        <ele>219.9</ele>
        <time>2021-07-30T13:14:11Z</time>
      </trkpt>
      <trkpt lat="48.78783" lon="6.73966">
        <ele>219.9</ele>
        <time>2021-07-30T13:14:12Z</time>
      </trkpt>
      <trkpt lat="48.78783" lon="6.73961">
        <ele>220</ele>
        <time>2021-07-30T13:14:14Z</time>
      </trkpt>
      <trkpt lat="48.78783" lon="6.73957">
        <ele>220.1</ele>
        <time>2021-07-30T13:14:15Z</time>
      </trkpt>
      <trkpt lat="48.78782" lon="6.73956">
        <ele>220.1</ele>
        <time>2021-07-30T13:14:16Z</time>
      </trkpt>
      <trkpt lat="48.78782" lon="6.73955">
        <ele>220.1</ele>
        <time>2021-07-30T13:14:17Z</time>
      </trkpt>
      <trkpt lat="48.78781" lon="6.73954">
        <ele>220.1</ele>
        <time>2021-07-30T13:14:18Z</time>
      </trkpt>
      <trkpt lat="48.78781" lon="6.7395">
        <ele>220.2</ele>
        <time>2021-07-30T13:14:20Z</time>
      </trkpt>
      <trkpt lat="48.78779" lon="6.73945">
        <ele>220.3</ele>
        <time>2021-07-30T13:14:21Z</time>
      </trkpt>
      <trkpt lat="48.78778" lon="6.7394">
        <ele>220.4</ele>
        <time>2021-07-30T13:14:23Z</time>
      </trkpt>
      <trkpt lat="48.78778" lon="6.73938">
        <ele>220.5</ele>
        <time>2021-07-30T13:14:24Z</time>
      </trkpt>
      <trkpt lat="48.78776" lon="6.73932">
        <ele>220.6</ele>
        <time>2021-07-30T13:14:25Z</time>
      </trkpt>
      <trkpt lat="48.78774" lon="6.73926">
        <ele>220.7</ele>
        <time>2021-07-30T13:14:27Z</time>
      </trkpt>
      <trkpt lat="48.78773" lon="6.73918">
        <ele>220.9</ele>
        <time>2021-07-30T13:14:28Z</time>
      </trkpt>
      <trkpt lat="48.78773" lon="6.73913">
        <ele>220.9</ele>
        <time>2021-07-30T13:14:30Z</time>
      </trkpt>
      <trkpt lat="48.78772" lon="6.73907">
        <ele>221</ele>
        <time>2021-07-30T13:14:31Z</time>
      </trkpt>
      <trkpt lat="48.78772" lon="6.73903">
        <ele>221.1</ele>
        <time>2021-07-30T13:14:32Z</time>
      </trkpt>
      <trkpt lat="48.78774" lon="6.73896">
        <ele>221.2</ele>
        <time>2021-07-30T13:14:34Z</time>
      </trkpt>
      <trkpt lat="48.78775" lon="6.73891">
        <ele>221.3</ele>
        <time>2021-07-30T13:14:35Z</time>
      </trkpt>
      <trkpt lat="48.78775" lon="6.73887">
        <ele>221.3</ele>
        <time>2021-07-30T13:14:36Z</time>
      </trkpt>
      <trkpt lat="48.78775" lon="6.73882">
        <ele>221.4</ele>
        <time>2021-07-30T13:14:38Z</time>
      </trkpt>
      <trkpt lat="48.78774" lon="6.73878">
        <ele>221.5</ele>
        <time>2021-07-30T13:14:39Z</time>
      </trkpt>
      <trkpt lat="48.78773" lon="6.73874">
        <ele>221.5</ele>
        <time>2021-07-30T13:14:40Z</time>
      </trkpt>
      <trkpt lat="48.78771" lon="6.73869">
        <ele>221.6</ele>
        <time>2021-07-30T13:14:41Z</time>
      </trkpt>
      <trkpt lat="48.78771" lon="6.73866">
        <ele>221.6</ele>
        <time>2021-07-30T13:14:42Z</time>
      </trkpt>
      <trkpt lat="48.7877" lon="6.73861">
        <ele>221.7</ele>
        <time>2021-07-30T13:14:43Z</time>
      </trkpt>
      <trkpt lat="48.78768" lon="6.73851">
        <ele>221.7</ele>
        <time>2021-07-30T13:14:45Z</time>
      </trkpt>
      <trkpt lat="48.78771" lon="6.73839">
        <ele>221.8</ele>
        <time>2021-07-30T13:14:47Z</time>
      </trkpt>
      <trkpt lat="48.78772" lon="6.73836">
        <ele>221.8</ele>
        <time>2021-07-30T13:14:48Z</time>
      </trkpt>
      <trkpt lat="48.78772" lon="6.73832">
        <ele>221.8</ele>
        <time>2021-07-30T13:14:50Z</time>
      </trkpt>
      <trkpt lat="48.78773" lon="6.73826">
        <ele>221.8</ele>
        <time>2021-07-30T13:14:51Z</time>
      </trkpt>
      <trkpt lat="48.78774" lon="6.73819">
        <ele>221.7</ele>
        <time>2021-07-30T13:14:53Z</time>
      </trkpt>
      <trkpt lat="48.78773" lon="6.73835">
        <ele>221.6</ele>
        <time>2021-07-30T13:14:54Z</time>
      </trkpt>
      <trkpt lat="48.78772" lon="6.73853">
        <ele>221.3</ele>
        <time>2021-07-30T13:14:55Z</time>
      </trkpt>
      <trkpt lat="48.78771" lon="6.73871">
        <ele>221.1</ele>
        <time>2021-07-30T13:15:57Z</time>
      </trkpt>
      <trkpt lat="48.7877" lon="6.73889">
        <ele>220.8</ele>
        <time>2021-07-30T13:15:58Z</time>
      </trkpt>
      <trkpt lat="48.78768" lon="6.73899">
        <ele>220.5</ele>
        <time>2021-07-30T13:16:00Z</time>
      </trkpt>
      <trkpt lat="48.78766" lon="6.73907">
        <ele>220.4</ele>
        <time>2021-07-30T13:16:01Z</time>
      </trkpt>
      <trkpt lat="48.78766" lon="6.73916">
        <ele>220.2</ele>
        <time>2021-07-30T13:16:02Z</time>
      </trkpt>
      <trkpt lat="48.78764" lon="6.73926">
        <ele>220</ele>
        <time>2021-07-30T13:16:04Z</time>
      </trkpt>
      <trkpt lat="48.78763" lon="6.73932">
        <ele>219.9</ele>
        <time>2021-07-30T13:16:05Z</time>
      </trkpt>
      <trkpt lat="48.78764" lon="6.73939">
        <ele>219.8</ele>
        <time>2021-07-30T13:16:06Z</time>
      </trkpt>
      <trkpt lat="48.78765" lon="6.73947">
        <ele>219.6</ele>
        <time>2021-07-30T13:16:07Z</time>
      </trkpt>
      <trkpt lat="48.78766" lon="6.73953">
        <ele>219.5</ele>
        <time>2021-07-30T13:16:08Z</time>
      </trkpt>
      <trkpt lat="48.78766" lon="6.73963">
        <ele>219.3</ele>
        <time>2021-07-30T13:16:10Z</time>
      </trkpt>
      <trkpt lat="48.78765" lon="6.73972">
        <ele>219.2</ele>
        <time>2021-07-30T13:16:11Z</time>
      </trkpt>
      <trkpt lat="48.78765" lon="6.73983">
        <ele>219</ele>
        <time>2021-07-30T13:16:12Z</time>
      </trkpt>
      <trkpt lat="48.78765" lon="6.7399">
        <ele>219</ele>
        <time>2021-07-30T13:16:14Z</time>
      </trkpt>
      <trkpt lat="48.78767" lon="6.74">
        <ele>218.9</ele>
        <time>2021-07-30T13:16:15Z</time>
      </trkpt>
      <trkpt lat="48.78768" lon="6.74011">
        <ele>218.8</ele>
        <time>2021-07-30T13:16:17Z</time>
      </trkpt>
      <trkpt lat="48.78768" lon="6.74019">
        <ele>218.8</ele>
        <time>2021-07-30T13:16:18Z</time>
      </trkpt>
      <trkpt lat="48.78768" lon="6.74025">
        <ele>218.8</ele>
        <time>2021-07-30T13:16:19Z</time>
      </trkpt>
      <trkpt lat="48.78768" lon="6.74032">
        <ele>218.8</ele>
        <time>2021-07-30T13:16:20Z</time>
      </trkpt>
      <trkpt lat="48.78768" lon="6.74044">
        <ele>218.8</ele>
        <time>2021-07-30T13:16:22Z</time>
      </trkpt>
      <trkpt lat="48.7877" lon="6.74052">
        <ele>218.8</ele>
        <time>2021-07-30T13:16:23Z</time>
      </trkpt>
      <trkpt lat="48.7877" lon="6.74058">
        <ele>218.8</ele>
        <time>2021-07-30T13:16:24Z</time>
      </trkpt>
      <trkpt lat="48.7877" lon="6.74064">
        <ele>218.8</ele>
        <time>2021-07-30T13:16:26Z</time>
      </trkpt>
      <trkpt lat="48.7877" lon="6.7407">
        <ele>218.9</ele>
        <time>2021-07-30T13:16:27Z</time>
      </trkpt>
      <trkpt lat="48.78771" lon="6.74078">
        <ele>219</ele>
        <time>2021-07-30T13:16:29Z</time>
      </trkpt>
      <trkpt lat="48.78772" lon="6.74081">
        <ele>219</ele>
        <time>2021-07-30T13:16:30Z</time>
      </trkpt>
      <trkpt lat="48.78773" lon="6.74082">
        <ele>219.1</ele>
        <time>2021-07-30T13:16:31Z</time>
      </trkpt>
      <trkpt lat="48.78773" lon="6.74084">
        <ele>219.1</ele>
        <time>2021-07-30T13:16:33Z</time>
      </trkpt>
      <trkpt lat="48.78774" lon="6.74086">
        <ele>219.2</ele>
        <time>2021-07-30T13:16:35Z</time>
      </trkpt>
      <trkpt lat="48.78732" lon="6.74087">
        <ele>222.3</ele>
        <time>2021-07-30T13:17:26Z</time>
      </trkpt>
      <trkpt lat="48.78729" lon="6.7409">
        <ele>222.4</ele>
        <time>2021-07-30T13:17:27Z</time>
      </trkpt>
      <trkpt lat="48.78725" lon="6.74092">
        <ele>222.6</ele>
        <time>2021-07-30T13:17:28Z</time>
      </trkpt>
      <trkpt lat="48.78721" lon="6.74093">
        <ele>222.8</ele>
        <time>2021-07-30T13:17:30Z</time>
      </trkpt>
      <trkpt lat="48.7872" lon="6.74093">
        <ele>222.8</ele>
        <time>2021-07-30T13:17:31Z</time>
      </trkpt>
      <trkpt lat="48.78718" lon="6.74094">
        <ele>222.9</ele>
        <time>2021-07-30T13:17:32Z</time>
      </trkpt>
      <trkpt lat="48.78715" lon="6.74095">
        <ele>223</ele>
        <time>2021-07-30T13:17:34Z</time>
      </trkpt>
      <trkpt lat="48.78712" lon="6.74096">
        <ele>223.1</ele>
        <time>2021-07-30T13:17:36Z</time>
      </trkpt>
      <trkpt lat="48.78711" lon="6.74094">
        <ele>223.1</ele>
        <time>2021-07-30T13:17:37Z</time>
      </trkpt>
      <trkpt lat="48.7871" lon="6.74091">
        <ele>223.1</ele>
        <time>2021-07-30T13:17:39Z</time>
      </trkpt>
      <trkpt lat="48.78708" lon="6.74088">
        <ele>223.2</ele>
        <time>2021-07-30T13:17:40Z</time>
      </trkpt>
      <trkpt lat="48.78707" lon="6.74086">
        <ele>223.2</ele>
        <time>2021-07-30T13:17:42Z</time>
      </trkpt>
      <trkpt lat="48.78705" lon="6.74086">
        <ele>223.2</ele>
        <time>2021-07-30T13:17:43Z</time>
      </trkpt>
      <trkpt lat="48.78704" lon="6.74088">
        <ele>223.2</ele>
        <time>2021-07-30T13:17:44Z</time>
      </trkpt>
      <trkpt lat="48.78703" lon="6.74089">
        <ele>223.2</ele>
        <time>2021-07-30T13:17:46Z</time>
      </trkpt>
      <trkpt lat="48.78702" lon="6.74091">
        <ele>223.2</ele>
        <time>2021-07-30T13:17:47Z</time>
      </trkpt>
      <trkpt lat="48.787" lon="6.74095">
        <ele>223.2</ele>
        <time>2021-07-30T13:17:48Z</time>
      </trkpt>
      <trkpt lat="48.78696" lon="6.741">
        <ele>223.1</ele>
        <time>2021-07-30T13:17:50Z</time>
      </trkpt>
      <trkpt lat="48.78684" lon="6.74116">
        <ele>222.4</ele>
        <time>2021-07-30T13:17:51Z</time>
      </trkpt>
      <trkpt lat="48.78669" lon="6.74127">
        <ele>221.3</ele>
        <time>2021-07-30T13:17:53Z</time>
      </trkpt>
      <trkpt lat="48.78661" lon="6.74132">
        <ele>220.6</ele>
        <time>2021-07-30T13:17:54Z</time>
      </trkpt>
      <trkpt lat="48.78652" lon="6.74135">
        <ele>219.9</ele>
        <time>2021-07-30T13:17:55Z</time>
      </trkpt>
      <trkpt lat="48.78637" lon="6.74142">
        <ele>218.6</ele>
        <time>2021-07-30T13:17:57Z</time>
      </trkpt>
      <trkpt lat="48.78624" lon="6.7415">
        <ele>217.7</ele>
        <time>2021-07-30T13:17:59Z</time>
      </trkpt>
      <trkpt lat="48.78618" lon="6.74153">
        <ele>217.3</ele>
        <time>2021-07-30T13:18:00Z</time>
      </trkpt>
      <trkpt lat="48.78613" lon="6.74158">
        <ele>217</ele>
        <time>2021-07-30T13:18:01Z</time>
      </trkpt>
      <trkpt lat="48.78607" lon="6.74163">
        <ele>216.7</ele>
        <time>2021-07-30T13:18:02Z</time>
      </trkpt>
      <trkpt lat="48.78598" lon="6.74165">
        <ele>216.3</ele>
        <time>2021-07-30T13:18:04Z</time>
      </trkpt>
      <trkpt lat="48.78594" lon="6.74164">
        <ele>216.1</ele>
        <time>2021-07-30T13:18:05Z</time>
      </trkpt>
      <trkpt lat="48.78591" lon="6.74163">
        <ele>216</ele>
        <time>2021-07-30T13:18:06Z</time>
      </trkpt>
      <trkpt lat="48.78583" lon="6.74164">
        <ele>215.8</ele>
        <time>2021-07-30T13:18:08Z</time>
      </trkpt>
      <trkpt lat="48.78578" lon="6.74165">
        <ele>215.7</ele>
        <time>2021-07-30T13:18:09Z</time>
      </trkpt>
      <trkpt lat="48.7857" lon="6.74171">
        <ele>215.5</ele>
        <time>2021-07-30T13:18:11Z</time>
      </trkpt>
      <trkpt lat="48.78569" lon="6.74171">
        <ele>215.5</ele>
        <time>2021-07-30T13:18:12Z</time>
      </trkpt>
      <trkpt lat="48.78568" lon="6.74171">
        <ele>215.5</ele>
        <time>2021-07-30T13:18:13Z</time>
      </trkpt>
      <trkpt lat="48.78567" lon="6.74166">
        <ele>215.5</ele>
        <time>2021-07-30T13:18:15Z</time>
      </trkpt>
      <trkpt lat="48.78562" lon="6.74158">
        <ele>215.4</ele>
        <time>2021-07-30T13:18:17Z</time>
      </trkpt>
      <trkpt lat="48.78559" lon="6.74154">
        <ele>215.4</ele>
        <time>2021-07-30T13:18:19Z</time>
      </trkpt>
      <trkpt lat="48.78557" lon="6.74152">
        <ele>215.4</ele>
        <time>2021-07-30T13:18:20Z</time>
      </trkpt>
      <trkpt lat="48.78554" lon="6.74151">
        <ele>215.4</ele>
        <time>2021-07-30T13:18:21Z</time>
      </trkpt>
      <trkpt lat="48.78439" lon="6.74289">
        <ele>223.4</ele>
        <time>2021-07-30T13:19:30Z</time>
      </trkpt>
      <trkpt lat="48.78436" lon="6.74288">
        <ele>223.5</ele>
        <time>2021-07-30T13:19:32Z</time>
      </trkpt>
      <trkpt lat="48.78435" lon="6.7429">
        <ele>223.6</ele>
        <time>2021-07-30T13:19:33Z</time>
      </trkpt>
      <trkpt lat="48.78434" lon="6.74291">
        <ele>223.6</ele>
        <time>2021-07-30T13:19:35Z</time>
      </trkpt>
      <trkpt lat="48.78433" lon="6.74292">
        <ele>223.6</ele>
        <time>2021-07-30T13:19:36Z</time>
      </trkpt>
      <trkpt lat="48.78433" lon="6.74293">
        <ele>223.6</ele>
        <time>2021-07-30T13:19:38Z</time>
      </trkpt>
      <trkpt lat="48.78432" lon="6.74294">
        <ele>223.6</ele>
        <time>2021-07-30T13:19:39Z</time>
      </trkpt>
      <trkpt lat="48.78432" lon="6.74295">
        <ele>223.7</ele>
        <time>2021-07-30T13:19:40Z</time>
      </trkpt>
      <trkpt lat="48.78431" lon="6.74296">
        <ele>223.7</ele>
        <time>2021-07-30T13:19:41Z</time>
      </trkpt>
      <trkpt lat="48.78431" lon="6.74297">
        <ele>223.7</ele>
        <time>2021-07-30T13:19:43Z</time>
      </trkpt>
      <trkpt lat="48.7843" lon="6.74298">
        <ele>223.7</ele>
        <time>2021-07-30T13:19:45Z</time>
      </trkpt>
      <trkpt lat="48.7843" lon="6.74298">
        <ele>223.7</ele>
        <time>2021-07-30T13:19:46Z</time>
      </trkpt>
      <trkpt lat="48.78429" lon="6.74299">
        <ele>223.7</ele>
        <time>2021-07-30T13:19:47Z</time>
      </trkpt>
      <trkpt lat="48.78431" lon="6.74303">
        <ele>223.7</ele>
        <time>2021-07-30T13:19:49Z</time>
      </trkpt>
      <trkpt lat="48.78432" lon="6.74304">
        <ele>223.8</ele>
        <time>2021-07-30T13:19:50Z</time>
      </trkpt>
      <trkpt lat="48.78433" lon="6.74305">
        <ele>223.8</ele>
        <time>2021-07-30T13:19:51Z</time>
      </trkpt>
      <trkpt lat="48.78435" lon="6.74307">
        <ele>223.8</ele>
        <time>2021-07-30T13:19:53Z</time>
      </trkpt>
      <trkpt lat="48.78437" lon="6.74308">
        <ele>223.8</ele>
        <time>2021-07-30T13:19:55Z</time>
      </trkpt>
      <trkpt lat="48.78437" lon="6.74309">
        <ele>223.8</ele>
        <time>2021-07-30T13:19:56Z</time>
      </trkpt>
      <trkpt lat="48.78438" lon="6.74309">
        <ele>223.8</ele>
        <time>2021-07-30T13:19:58Z</time>
      </trkpt>
      <trkpt lat="48.78439" lon="6.74309">
        <ele>223.8</ele>
        <time>2021-07-30T13:19:59Z</time>
      </trkpt>
      <trkpt lat="48.7844" lon="6.7431">
        <ele>223.8</ele>
        <time>2021-07-30T13:20:02Z</time>
      </trkpt>
      <trkpt lat="48.7844" lon="6.7431">
        <ele>223.8</ele>
        <time>2021-07-30T13:20:04Z</time>
      </trkpt>
      <trkpt lat="48.78439" lon="6.74311">
        <ele>223.8</ele>
        <time>2021-07-30T13:20:06Z</time>
      </trkpt>
      <trkpt lat="48.78438" lon="6.74313">
        <ele>223.8</ele>
        <time>2021-07-30T13:20:08Z</time>
      </trkpt>
      <trkpt lat="48.78437" lon="6.74315">
        <ele>223.8</ele>
        <time>2021-07-30T13:20:10Z</time>
      </trkpt>
      <trkpt lat="48.78437" lon="6.74316">
        <ele>223.7</ele>
        <time>2021-07-30T13:20:11Z</time>
      </trkpt>
      <trkpt lat="48.78436" lon="6.74317">
        <ele>223.7</ele>
        <time>2021-07-30T13:20:13Z</time>
      </trkpt>
      <trkpt lat="48.78435" lon="6.74318">
        <ele>223.7</ele>
        <time>2021-07-30T13:20:14Z</time>
      </trkpt>
      <trkpt lat="48.78435" lon="6.74318">
        <ele>223.7</ele>
        <time>2021-07-30T13:20:15Z</time>
      </trkpt>
      <trkpt lat="48.78435" lon="6.74319">
        <ele>223.7</ele>
        <time>2021-07-30T13:20:17Z</time>
      </trkpt>
      <trkpt lat="48.78434" lon="6.7432">
        <ele>223.7</ele>
        <time>2021-07-30T13:20:18Z</time>
      </trkpt>
      <trkpt lat="48.78434" lon="6.74321">
        <ele>223.7</ele>
        <time>2021-07-30T13:20:19Z</time>
      </trkpt>
      <trkpt lat="48.78433" lon="6.74321">
        <ele>223.7</ele>
        <time>2021-07-30T13:20:21Z</time>
      </trkpt>
      <trkpt lat="48.78433" lon="6.74321">
        <ele>223.7</ele>
        <time>2021-07-30T13:20:22Z</time>
      </trkpt>
      <trkpt lat="48.78433" lon="6.74321">
        <ele>223.7</ele>
        <time>2021-07-30T13:20:23Z</time>
      </trkpt>
      <trkpt lat="48.78433" lon="6.74319">
        <ele>223.7</ele>
        <time>2021-07-30T13:20:25Z</time>
      </trkpt>
      <trkpt lat="48.78433" lon="6.74316">
        <ele>223.7</ele>
        <time>2021-07-30T13:20:26Z</time>
      </trkpt>
      <trkpt lat="48.78432" lon="6.74313">
        <ele>223.7</ele>
        <time>2021-07-30T13:20:27Z</time>
      </trkpt>
      <trkpt lat="48.78431" lon="6.74311">
        <ele>223.7</ele>
        <time>2021-07-30T13:20:29Z</time>
      </trkpt>
      <trkpt lat="48.7843" lon="6.74309">
        <ele>223.7</ele>
        <time>2021-07-30T13:20:30Z</time>
      </trkpt>
      <trkpt lat="48.7843" lon="6.74307">
        <ele>223.6</ele>
        <time>2021-07-30T13:20:31Z</time>
      </trkpt>
      <trkpt lat="48.78426" lon="6.74307">
        <ele>223.5</ele>
        <time>2021-07-30T13:20:32Z</time>
      </trkpt>
      <trkpt lat="48.78423" lon="6.74306">
        <ele>223.4</ele>
        <time>2021-07-30T13:20:33Z</time>
      </trkpt>
      <trkpt lat="48.7842" lon="6.74307">
        <ele>223.3</ele>
        <time>2021-07-30T13:20:34Z</time>
      </trkpt>
      <trkpt lat="48.78415" lon="6.74309">
        <ele>223.1</ele>
        <time>2021-07-30T13:20:36Z</time>
      </trkpt>
      <trkpt lat="48.78411" lon="6.74311">
        <ele>222.8</ele>
        <time>2021-07-30T13:20:37Z</time>
      </trkpt>
      <trkpt lat="48.78406" lon="6.74313">
        <ele>222.6</ele>
        <time>2021-07-30T13:20:38Z</time>
      </trkpt>
      <trkpt lat="48.78402" lon="6.74315">
        <ele>222.3</ele>
        <time>2021-07-30T13:20:39Z</time>
      </trkpt>
      <trkpt lat="48.78393" lon="6.74315">
        <ele>221.7</ele>
        <time>2021-07-30T13:20:40Z</time>
      </trkpt>
      <trkpt lat="48.78381" lon="6.74317">
        <ele>221</ele>
        <time>2021-07-30T13:20:42Z</time>
      </trkpt>
      <trkpt lat="48.7837" lon="6.7432">
        <ele>220.3</ele>
        <time>2021-07-30T13:20:44Z</time>
      </trkpt>
      <trkpt lat="48.7836" lon="6.74326">
        <ele>219.6</ele>
        <time>2021-07-30T13:20:46Z</time>
      </trkpt>
      <trkpt lat="48.78355" lon="6.74329">
        <ele>219.2</ele>
        <time>2021-07-30T13:20:47Z</time>
      </trkpt>
      <trkpt lat="48.78345" lon="6.74335">
        <ele>218.5</ele>
        <time>2021-07-30T13:20:49Z</time>
      </trkpt>
      <trkpt lat="48.78341" lon="6.74338">
        <ele>218.2</ele>
        <time>2021-07-30T13:20:50Z</time>
      </trkpt>
      <trkpt lat="48.7833" lon="6.74342">
        <ele>217.5</ele>
        <time>2021-07-30T13:20:52Z</time>
      </trkpt>
      <trkpt lat="48.78319" lon="6.74351">
        <ele>216.7</ele>
        <time>2021-07-30T13:20:54Z</time>
      </trkpt>
      <trkpt lat="48.78308" lon="6.74361">
        <ele>215.9</ele>
        <time>2021-07-30T13:20:56Z</time>
      </trkpt>
      <trkpt lat="48.78296" lon="6.74367">
        <ele>215.1</ele>
        <time>2021-07-30T13:20:58Z</time>
      </trkpt>
      <trkpt lat="48.78284" lon="6.7437">
        <ele>214.4</ele>
        <time>2021-07-30T13:21:00Z</time>
      </trkpt>
      <trkpt lat="48.7827" lon="6.74375">
        <ele>213.7</ele>
        <time>2021-07-30T13:21:02Z</time>
      </trkpt>
      <trkpt lat="48.78256" lon="6.74381">
        <ele>213</ele>
        <time>2021-07-30T13:21:04Z</time>
      </trkpt>
      <trkpt lat="48.78248" lon="6.74385">
        <ele>212.7</ele>
        <time>2021-07-30T13:21:05Z</time>
      </trkpt>
      <trkpt lat="48.7824" lon="6.74388">
        <ele>212.4</ele>
        <time>2021-07-30T13:21:06Z</time>
      </trkpt>
      <trkpt lat="48.78225" lon="6.74395">
        <ele>211.7</ele>
        <time>2021-07-30T13:21:08Z</time>
      </trkpt>
      <trkpt lat="48.7821" lon="6.74403">
        <ele>211.3</ele>
        <time>2021-07-30T13:21:10Z</time>
      </trkpt>
      <trkpt lat="48.78195" lon="6.74413">
        <ele>211</ele>
        <time>2021-07-30T13:21:12Z</time>
      </trkpt>
      <trkpt lat="48.7818" lon="6.74423">
        <ele>210.9</ele>
        <time>2021-07-30T13:21:14Z</time>
      </trkpt>
      <trkpt lat="48.78164" lon="6.74433">
        <ele>210.8</ele>
        <time>2021-07-30T13:21:16Z</time>
      </trkpt>
      <trkpt lat="48.78156" lon="6.74439">
        <ele>210.8</ele>
        <time>2021-07-30T13:21:17Z</time>
      </trkpt>
      <trkpt lat="48.78141" lon="6.74451">
        <ele>211</ele>
        <time>2021-07-30T13:21:19Z</time>
      </trkpt>
      <trkpt lat="48.78128" lon="6.74462">
        <ele>211.2</ele>
        <time>2021-07-30T13:21:21Z</time>
      </trkpt>
      <trkpt lat="48.78118" lon="6.74472">
        <ele>211.6</ele>
        <time>2021-07-30T13:21:23Z</time>
      </trkpt>
      <trkpt lat="48.78113" lon="6.74476">
        <ele>211.8</ele>
        <time>2021-07-30T13:21:24Z</time>
      </trkpt>
      <trkpt lat="48.78105" lon="6.74483">
        <ele>212.1</ele>
        <time>2021-07-30T13:21:26Z</time>
      </trkpt>
      <trkpt lat="48.78097" lon="6.74489">
        <ele>212.2</ele>
        <time>2021-07-30T13:21:28Z</time>
      </trkpt>
      <trkpt lat="48.78091" lon="6.74494">
        <ele>212.3</ele>
        <time>2021-07-30T13:21:30Z</time>
      </trkpt>
      <trkpt lat="48.78081" lon="6.74503">
        <ele>212.1</ele>
        <time>2021-07-30T13:21:32Z</time>
      </trkpt>
      <trkpt lat="48.78072" lon="6.74513">
        <ele>211.7</ele>
        <time>2021-07-30T13:21:34Z</time>
      </trkpt>
      <trkpt lat="48.78067" lon="6.74517">
        <ele>211.5</ele>
        <time>2021-07-30T13:21:35Z</time>
      </trkpt>
      <trkpt lat="48.78056" lon="6.74528">
        <ele>211.2</ele>
        <time>2021-07-30T13:21:37Z</time>
      </trkpt>
      <trkpt lat="48.78051" lon="6.74533">
        <ele>211.1</ele>
        <time>2021-07-30T13:21:38Z</time>
      </trkpt>
      <trkpt lat="48.78042" lon="6.74541">
        <ele>211.1</ele>
        <time>2021-07-30T13:21:40Z</time>
      </trkpt>
      <trkpt lat="48.78038" lon="6.74545">
        <ele>211.1</ele>
        <time>2021-07-30T13:21:41Z</time>
      </trkpt>
      <trkpt lat="48.78033" lon="6.74547">
        <ele>211.1</ele>
        <time>2021-07-30T13:21:42Z</time>
      </trkpt>
      <trkpt lat="48.78029" lon="6.74549">
        <ele>211.1</ele>
        <time>2021-07-30T13:21:43Z</time>
      </trkpt>
      <trkpt lat="48.78024" lon="6.74552">
        <ele>211.1</ele>
        <time>2021-07-30T13:21:44Z</time>
      </trkpt>
      <trkpt lat="48.78017" lon="6.74556">
        <ele>211.1</ele>
        <time>2021-07-30T13:21:46Z</time>
      </trkpt>
      <trkpt lat="48.78011" lon="6.74561">
        <ele>211.1</ele>
        <time>2021-07-30T13:21:47Z</time>
      </trkpt>
      <trkpt lat="48.78008" lon="6.74563">
        <ele>211.1</ele>
        <time>2021-07-30T13:21:48Z</time>
      </trkpt>
      <trkpt lat="48.78" lon="6.74566">
        <ele>211</ele>
        <time>2021-07-30T13:21:50Z</time>
      </trkpt>
      <trkpt lat="48.77991" lon="6.74572">
        <ele>211</ele>
        <time>2021-07-30T13:21:52Z</time>
      </trkpt>
      <trkpt lat="48.77988" lon="6.74579">
        <ele>211</ele>
        <time>2021-07-30T13:21:54Z</time>
      </trkpt>
      <trkpt lat="48.77985" lon="6.74583">
        <ele>211</ele>
        <time>2021-07-30T13:21:55Z</time>
      </trkpt>
      <trkpt lat="48.7798" lon="6.74589">
        <ele>211</ele>
        <time>2021-07-30T13:21:56Z</time>
      </trkpt>
      <trkpt lat="48.77976" lon="6.7459">
        <ele>211</ele>
        <time>2021-07-30T13:21:57Z</time>
      </trkpt>
      <trkpt lat="48.77971" lon="6.74593">
        <ele>211</ele>
        <time>2021-07-30T13:21:58Z</time>
      </trkpt>
      <trkpt lat="48.77963" lon="6.74593">
        <ele>211</ele>
        <time>2021-07-30T13:21:59Z</time>
      </trkpt>
      <trkpt lat="48.77959" lon="6.74597">
        <ele>211</ele>
        <time>2021-07-30T13:22:00Z</time>
      </trkpt>
      <trkpt lat="48.77956" lon="6.74602">
        <ele>211</ele>
        <time>2021-07-30T13:22:02Z</time>
      </trkpt>
      <trkpt lat="48.77951" lon="6.74607">
        <ele>211.1</ele>
        <time>2021-07-30T13:22:03Z</time>
      </trkpt>
      <trkpt lat="48.77947" lon="6.74612">
        <ele>211.1</ele>
        <time>2021-07-30T13:22:04Z</time>
      </trkpt>
      <trkpt lat="48.77944" lon="6.74616">
        <ele>211.1</ele>
        <time>2021-07-30T13:22:05Z</time>
      </trkpt>
      <trkpt lat="48.77941" lon="6.74619">
        <ele>211.1</ele>
        <time>2021-07-30T13:22:06Z</time>
      </trkpt>
      <trkpt lat="48.77938" lon="6.74622">
        <ele>211.2</ele>
        <time>2021-07-30T13:22:07Z</time>
      </trkpt>
      <trkpt lat="48.77934" lon="6.74629">
        <ele>211.2</ele>
        <time>2021-07-30T13:22:09Z</time>
      </trkpt>
      <trkpt lat="48.77931" lon="6.74633">
        <ele>211.3</ele>
        <time>2021-07-30T13:22:10Z</time>
      </trkpt>
      <trkpt lat="48.77926" lon="6.74637">
        <ele>211.3</ele>
        <time>2021-07-30T13:22:12Z</time>
      </trkpt>
      <trkpt lat="48.77923" lon="6.74641">
        <ele>211.4</ele>
        <time>2021-07-30T13:22:13Z</time>
      </trkpt>
      <trkpt lat="48.77919" lon="6.74645">
        <ele>211.4</ele>
        <time>2021-07-30T13:22:14Z</time>
      </trkpt>
      <trkpt lat="48.77916" lon="6.74649">
        <ele>211.4</ele>
        <time>2021-07-30T13:22:15Z</time>
      </trkpt>
      <trkpt lat="48.77913" lon="6.74653">
        <ele>211.5</ele>
        <time>2021-07-30T13:22:17Z</time>
      </trkpt>
      <trkpt lat="48.77909" lon="6.74658">
        <ele>211.5</ele>
        <time>2021-07-30T13:22:18Z</time>
      </trkpt>
      <trkpt lat="48.77906" lon="6.74661">
        <ele>211.5</ele>
        <time>2021-07-30T13:22:19Z</time>
      </trkpt>
      <trkpt lat="48.77904" lon="6.74664">
        <ele>211.5</ele>
        <time>2021-07-30T13:22:20Z</time>
      </trkpt>
      <trkpt lat="48.77901" lon="6.74667">
        <ele>211.6</ele>
        <time>2021-07-30T13:22:21Z</time>
      </trkpt>
      <trkpt lat="48.77899" lon="6.74671">
        <ele>211.6</ele>
        <time>2021-07-30T13:22:22Z</time>
      </trkpt>
      <trkpt lat="48.77895" lon="6.74676">
        <ele>211.6</ele>
        <time>2021-07-30T13:22:24Z</time>
      </trkpt>
      <trkpt lat="48.77891" lon="6.74685">
        <ele>211.7</ele>
        <time>2021-07-30T13:22:26Z</time>
      </trkpt>
      <trkpt lat="48.77887" lon="6.74687">
        <ele>211.7</ele>
        <time>2021-07-30T13:22:28Z</time>
      </trkpt>
      <trkpt lat="48.77885" lon="6.74689">
        <ele>211.7</ele>
        <time>2021-07-30T13:22:29Z</time>
      </trkpt>
      <trkpt lat="48.77882" lon="6.74691">
        <ele>211.8</ele>
        <time>2021-07-30T13:22:31Z</time>
      </trkpt>
      <trkpt lat="48.77881" lon="6.74693">
        <ele>211.8</ele>
        <time>2021-07-30T13:22:32Z</time>
      </trkpt>
      <trkpt lat="48.77881" lon="6.747">
        <ele>211.8</ele>
        <time>2021-07-30T13:22:34Z</time>
      </trkpt>
      <trkpt lat="48.77881" lon="6.74704">
        <ele>211.8</ele>
        <time>2021-07-30T13:22:35Z</time>
      </trkpt>
      <trkpt lat="48.7788" lon="6.74711">
        <ele>211.8</ele>
        <time>2021-07-30T13:22:37Z</time>
      </trkpt>
      <trkpt lat="48.77879" lon="6.74717">
        <ele>211.9</ele>
        <time>2021-07-30T13:22:38Z</time>
      </trkpt>
      <trkpt lat="48.77878" lon="6.74723">
        <ele>211.9</ele>
        <time>2021-07-30T13:22:39Z</time>
      </trkpt>
      <trkpt lat="48.77877" lon="6.7473">
        <ele>211.9</ele>
        <time>2021-07-30T13:22:40Z</time>
      </trkpt>
      <trkpt lat="48.77875" lon="6.7474">
        <ele>211.9</ele>
        <time>2021-07-30T13:22:42Z</time>
      </trkpt>
      <trkpt lat="48.77872" lon="6.74751">
        <ele>211.9</ele>
        <time>2021-07-30T13:22:44Z</time>
      </trkpt>
      <trkpt lat="48.77869" lon="6.74759">
        <ele>211.8</ele>
        <time>2021-07-30T13:22:46Z</time>
      </trkpt>
      <trkpt lat="48.77867" lon="6.74764">
        <ele>211.8</ele>
        <time>2021-07-30T13:22:47Z</time>
      </trkpt>
      <trkpt lat="48.77865" lon="6.74774">
        <ele>211.8</ele>
        <time>2021-07-30T13:22:49Z</time>
      </trkpt>
      <trkpt lat="48.77864" lon="6.7478">
        <ele>211.8</ele>
        <time>2021-07-30T13:22:50Z</time>
      </trkpt>
      <trkpt lat="48.77862" lon="6.74788">
        <ele>211.8</ele>
        <time>2021-07-30T13:22:52Z</time>
      </trkpt>
      <trkpt lat="48.77861" lon="6.74793">
        <ele>211.8</ele>
        <time>2021-07-30T13:22:53Z</time>
      </trkpt>
      <trkpt lat="48.7786" lon="6.74798">
        <ele>211.9</ele>
        <time>2021-07-30T13:22:54Z</time>
      </trkpt>
      <trkpt lat="48.77858" lon="6.74804">
        <ele>211.9</ele>
        <time>2021-07-30T13:22:55Z</time>
      </trkpt>
      <trkpt lat="48.77858" lon="6.74807">
        <ele>211.9</ele>
        <time>2021-07-30T13:22:56Z</time>
      </trkpt>
      <trkpt lat="48.77857" lon="6.74816">
        <ele>212.1</ele>
        <time>2021-07-30T13:22:58Z</time>
      </trkpt>
      <trkpt lat="48.77856" lon="6.74821">
        <ele>212.2</ele>
        <time>2021-07-30T13:22:59Z</time>
      </trkpt>
      <trkpt lat="48.77855" lon="6.74827">
        <ele>212.3</ele>
        <time>2021-07-30T13:23:00Z</time>
      </trkpt>
      <trkpt lat="48.77855" lon="6.74832">
        <ele>212.4</ele>
        <time>2021-07-30T13:23:01Z</time>
      </trkpt>
      <trkpt lat="48.77856" lon="6.74842">
        <ele>212.5</ele>
        <time>2021-07-30T13:23:03Z</time>
      </trkpt>
      <trkpt lat="48.77855" lon="6.74851">
        <ele>212.8</ele>
        <time>2021-07-30T13:23:05Z</time>
      </trkpt>
      <trkpt lat="48.77854" lon="6.74855">
        <ele>212.9</ele>
        <time>2021-07-30T13:23:06Z</time>
      </trkpt>
      <trkpt lat="48.77853" lon="6.74859">
        <ele>213</ele>
        <time>2021-07-30T13:23:07Z</time>
      </trkpt>
      <trkpt lat="48.77852" lon="6.74865">
        <ele>213.1</ele>
        <time>2021-07-30T13:23:08Z</time>
      </trkpt>
      <trkpt lat="48.77852" lon="6.74874">
        <ele>213.4</ele>
        <time>2021-07-30T13:23:10Z</time>
      </trkpt>
      <trkpt lat="48.77852" lon="6.74885">
        <ele>213.7</ele>
        <time>2021-07-30T13:23:12Z</time>
      </trkpt>
      <trkpt lat="48.77853" lon="6.74895">
        <ele>213.9</ele>
        <time>2021-07-30T13:23:14Z</time>
      </trkpt>
      <trkpt lat="48.77854" lon="6.74902">
        <ele>214.1</ele>
        <time>2021-07-30T13:23:15Z</time>
      </trkpt>
      <trkpt lat="48.77855" lon="6.74912">
        <ele>214.4</ele>
        <time>2021-07-30T13:23:17Z</time>
      </trkpt>
      <trkpt lat="48.77855" lon="6.74918">
        <ele>214.5</ele>
        <time>2021-07-30T13:23:18Z</time>
      </trkpt>
      <trkpt lat="48.77855" lon="6.74924">
        <ele>214.7</ele>
        <time>2021-07-30T13:23:19Z</time>
      </trkpt>
      <trkpt lat="48.77855" lon="6.74931">
        <ele>214.8</ele>
        <time>2021-07-30T13:23:21Z</time>
      </trkpt>
      <trkpt lat="48.77855" lon="6.74938">
        <ele>215</ele>
        <time>2021-07-30T13:23:22Z</time>
      </trkpt>
      <trkpt lat="48.77855" lon="6.74945">
        <ele>215.2</ele>
        <time>2021-07-30T13:23:23Z</time>
      </trkpt>
      <trkpt lat="48.77855" lon="6.74954">
        <ele>215.4</ele>
        <time>2021-07-30T13:23:25Z</time>
      </trkpt>
      <trkpt lat="48.77855" lon="6.7496">
        <ele>215.5</ele>
        <time>2021-07-30T13:23:26Z</time>
      </trkpt>
      <trkpt lat="48.77855" lon="6.74966">
        <ele>215.7</ele>
        <time>2021-07-30T13:23:27Z</time>
      </trkpt>
      <trkpt lat="48.77855" lon="6.74971">
        <ele>215.8</ele>
        <time>2021-07-30T13:23:28Z</time>
      </trkpt>
      <trkpt lat="48.77855" lon="6.74975">
        <ele>215.9</ele>
        <time>2021-07-30T13:23:29Z</time>
      </trkpt>
      <trkpt lat="48.77856" lon="6.74985">
        <ele>216.1</ele>
        <time>2021-07-30T13:23:31Z</time>
      </trkpt>
      <trkpt lat="48.77856" lon="6.74998">
        <ele>216.4</ele>
        <time>2021-07-30T13:23:33Z</time>
      </trkpt>
      <trkpt lat="48.77856" lon="6.75004">
        <ele>216.6</ele>
        <time>2021-07-30T13:23:34Z</time>
      </trkpt>
      <trkpt lat="48.77857" lon="6.7501">
        <ele>216.7</ele>
        <time>2021-07-30T13:23:35Z</time>
      </trkpt>
      <trkpt lat="48.77857" lon="6.75022">
        <ele>217</ele>
        <time>2021-07-30T13:23:37Z</time>
      </trkpt>
      <trkpt lat="48.77856" lon="6.75033">
        <ele>217.2</ele>
        <time>2021-07-30T13:23:39Z</time>
      </trkpt>
      <trkpt lat="48.77857" lon="6.75038">
        <ele>217.3</ele>
        <time>2021-07-30T13:23:40Z</time>
      </trkpt>
      <trkpt lat="48.77857" lon="6.75043">
        <ele>217.4</ele>
        <time>2021-07-30T13:23:41Z</time>
      </trkpt>
      <trkpt lat="48.77857" lon="6.75049">
        <ele>217.5</ele>
        <time>2021-07-30T13:23:42Z</time>
      </trkpt>
      <trkpt lat="48.77858" lon="6.75054">
        <ele>217.7</ele>
        <time>2021-07-30T13:23:43Z</time>
      </trkpt>
      <trkpt lat="48.77858" lon="6.7506">
        <ele>217.8</ele>
        <time>2021-07-30T13:23:44Z</time>
      </trkpt>
      <trkpt lat="48.77857" lon="6.7507">
        <ele>218</ele>
        <time>2021-07-30T13:23:46Z</time>
      </trkpt>
      <trkpt lat="48.77857" lon="6.75074">
        <ele>218.1</ele>
        <time>2021-07-30T13:23:47Z</time>
      </trkpt>
      <trkpt lat="48.77857" lon="6.75084">
        <ele>218.3</ele>
        <time>2021-07-30T13:23:49Z</time>
      </trkpt>
      <trkpt lat="48.77858" lon="6.7509">
        <ele>218.5</ele>
        <time>2021-07-30T13:23:51Z</time>
      </trkpt>
      <trkpt lat="48.77858" lon="6.75093">
        <ele>218.5</ele>
        <time>2021-07-30T13:23:52Z</time>
      </trkpt>
      <trkpt lat="48.77858" lon="6.75095">
        <ele>218.6</ele>
        <time>2021-07-30T13:23:53Z</time>
      </trkpt>
      <trkpt lat="48.77858" lon="6.75101">
        <ele>218.7</ele>
        <time>2021-07-30T13:23:54Z</time>
      </trkpt>
      <trkpt lat="48.77858" lon="6.75103">
        <ele>218.8</ele>
        <time>2021-07-30T13:23:55Z</time>
      </trkpt>
      <trkpt lat="48.77858" lon="6.75108">
        <ele>218.9</ele>
        <time>2021-07-30T13:23:57Z</time>
      </trkpt>
      <trkpt lat="48.77858" lon="6.75113">
        <ele>219</ele>
        <time>2021-07-30T13:23:58Z</time>
      </trkpt>
      <trkpt lat="48.77857" lon="6.75117">
        <ele>219</ele>
        <time>2021-07-30T13:23:59Z</time>
      </trkpt>
      <trkpt lat="48.77856" lon="6.75123">
        <ele>219.2</ele>
        <time>2021-07-30T13:24:01Z</time>
      </trkpt>
      <trkpt lat="48.77855" lon="6.75127">
        <ele>219.2</ele>
        <time>2021-07-30T13:24:02Z</time>
      </trkpt>
      <trkpt lat="48.77854" lon="6.75136">
        <ele>219.4</ele>
        <time>2021-07-30T13:24:04Z</time>
      </trkpt>
      <trkpt lat="48.77853" lon="6.75139">
        <ele>219.5</ele>
        <time>2021-07-30T13:24:05Z</time>
      </trkpt>
      <trkpt lat="48.77852" lon="6.75144">
        <ele>219.6</ele>
        <time>2021-07-30T13:24:07Z</time>
      </trkpt>
      <trkpt lat="48.77852" lon="6.75149">
        <ele>219.7</ele>
        <time>2021-07-30T13:24:08Z</time>
      </trkpt>
      <trkpt lat="48.77851" lon="6.75153">
        <ele>219.8</ele>
        <time>2021-07-30T13:24:09Z</time>
      </trkpt>
      <trkpt lat="48.77851" lon="6.75158">
        <ele>219.9</ele>
        <time>2021-07-30T13:24:10Z</time>
      </trkpt>
      <trkpt lat="48.7785" lon="6.75163">
        <ele>220</ele>
        <time>2021-07-30T13:24:11Z</time>
      </trkpt>
      <trkpt lat="48.7785" lon="6.75165">
        <ele>220</ele>
        <time>2021-07-30T13:24:12Z</time>
      </trkpt>
      <trkpt lat="48.77849" lon="6.75168">
        <ele>220.1</ele>
        <time>2021-07-30T13:24:13Z</time>
      </trkpt>
      <trkpt lat="48.77848" lon="6.75175">
        <ele>220.2</ele>
        <time>2021-07-30T13:24:15Z</time>
      </trkpt>
      <trkpt lat="48.77847" lon="6.75183">
        <ele>220.4</ele>
        <time>2021-07-30T13:24:17Z</time>
      </trkpt>
      <trkpt lat="48.77847" lon="6.75188">
        <ele>220.5</ele>
        <time>2021-07-30T13:24:18Z</time>
      </trkpt>
      <trkpt lat="48.77847" lon="6.75192">
        <ele>220.6</ele>
        <time>2021-07-30T13:24:19Z</time>
      </trkpt>
      <trkpt lat="48.77846" lon="6.75198">
        <ele>220.6</ele>
        <time>2021-07-30T13:24:20Z</time>
      </trkpt>
      <trkpt lat="48.77845" lon="6.75202">
        <ele>220.7</ele>
        <time>2021-07-30T13:24:21Z</time>
      </trkpt>
      <trkpt lat="48.77844" lon="6.7521">
        <ele>220.8</ele>
        <time>2021-07-30T13:24:23Z</time>
      </trkpt>
      <trkpt lat="48.77844" lon="6.75214">
        <ele>220.8</ele>
        <time>2021-07-30T13:24:24Z</time>
      </trkpt>
      <trkpt lat="48.77843" lon="6.75218">
        <ele>220.9</ele>
        <time>2021-07-30T13:24:25Z</time>
      </trkpt>
      <trkpt lat="48.77841" lon="6.75221">
        <ele>220.9</ele>
        <time>2021-07-30T13:24:27Z</time>
      </trkpt>
      <trkpt lat="48.77839" lon="6.75225">
        <ele>220.9</ele>
        <time>2021-07-30T13:24:28Z</time>
      </trkpt>
      <trkpt lat="48.77839" lon="6.75226">
        <ele>220.9</ele>
        <time>2021-07-30T13:24:29Z</time>
      </trkpt>
      <trkpt lat="48.77836" lon="6.75233">
        <ele>220.9</ele>
        <time>2021-07-30T13:24:31Z</time>
      </trkpt>
      <trkpt lat="48.77835" lon="6.75236">
        <ele>221</ele>
        <time>2021-07-30T13:24:33Z</time>
      </trkpt>
      <trkpt lat="48.77834" lon="6.75239">
        <ele>221</ele>
        <time>2021-07-30T13:24:34Z</time>
      </trkpt>
      <trkpt lat="48.77833" lon="6.75242">
        <ele>221</ele>
        <time>2021-07-30T13:24:35Z</time>
      </trkpt>
      <trkpt lat="48.77831" lon="6.75252">
        <ele>221</ele>
        <time>2021-07-30T13:24:37Z</time>
      </trkpt>
      <trkpt lat="48.77831" lon="6.75258">
        <ele>221</ele>
        <time>2021-07-30T13:24:39Z</time>
      </trkpt>
      <trkpt lat="48.7783" lon="6.75264">
        <ele>221</ele>
        <time>2021-07-30T13:24:40Z</time>
      </trkpt>
      <trkpt lat="48.77829" lon="6.75269">
        <ele>221</ele>
        <time>2021-07-30T13:24:41Z</time>
      </trkpt>
      <trkpt lat="48.77829" lon="6.75273">
        <ele>221</ele>
        <time>2021-07-30T13:24:42Z</time>
      </trkpt>
      <trkpt lat="48.77828" lon="6.75279">
        <ele>221.1</ele>
        <time>2021-07-30T13:24:43Z</time>
      </trkpt>
      <trkpt lat="48.77827" lon="6.75288">
        <ele>221.1</ele>
        <time>2021-07-30T13:24:45Z</time>
      </trkpt>
      <trkpt lat="48.77828" lon="6.75294">
        <ele>221.1</ele>
        <time>2021-07-30T13:24:46Z</time>
      </trkpt>
      <trkpt lat="48.77828" lon="6.753">
        <ele>221.1</ele>
        <time>2021-07-30T13:24:47Z</time>
      </trkpt>
      <trkpt lat="48.77828" lon="6.75306">
        <ele>221.1</ele>
        <time>2021-07-30T13:24:48Z</time>
      </trkpt>
      <trkpt lat="48.77829" lon="6.75312">
        <ele>221.1</ele>
        <time>2021-07-30T13:24:49Z</time>
      </trkpt>
      <trkpt lat="48.77831" lon="6.75322">
        <ele>221.1</ele>
        <time>2021-07-30T13:24:51Z</time>
      </trkpt>
      <trkpt lat="48.77832" lon="6.75328">
        <ele>221.1</ele>
        <time>2021-07-30T13:24:52Z</time>
      </trkpt>
      <trkpt lat="48.77832" lon="6.75334">
        <ele>221.2</ele>
        <time>2021-07-30T13:24:53Z</time>
      </trkpt>
      <trkpt lat="48.77832" lon="6.75342">
        <ele>221.2</ele>
        <time>2021-07-30T13:24:55Z</time>
      </trkpt>
      <trkpt lat="48.77831" lon="6.75351">
        <ele>221.3</ele>
        <time>2021-07-30T13:24:56Z</time>
      </trkpt>
      <trkpt lat="48.77832" lon="6.75357">
        <ele>221.3</ele>
        <time>2021-07-30T13:24:57Z</time>
      </trkpt>
      <trkpt lat="48.77832" lon="6.75363">
        <ele>221.3</ele>
        <time>2021-07-30T13:24:58Z</time>
      </trkpt>
      <trkpt lat="48.77831" lon="6.75369">
        <ele>221.3</ele>
        <time>2021-07-30T13:24:59Z</time>
      </trkpt>
      <trkpt lat="48.77829" lon="6.75378">
        <ele>221.4</ele>
        <time>2021-07-30T13:25:01Z</time>
      </trkpt>
      <trkpt lat="48.77828" lon="6.75385">
        <ele>221.4</ele>
        <time>2021-07-30T13:25:02Z</time>
      </trkpt>
      <trkpt lat="48.77827" lon="6.75389">
        <ele>221.4</ele>
        <time>2021-07-30T13:25:03Z</time>
      </trkpt>
      <trkpt lat="48.77826" lon="6.75395">
        <ele>221.4</ele>
        <time>2021-07-30T13:25:04Z</time>
      </trkpt>
      <trkpt lat="48.77825" lon="6.754">
        <ele>221.4</ele>
        <time>2021-07-30T13:25:05Z</time>
      </trkpt>
      <trkpt lat="48.77822" lon="6.7541">
        <ele>221.4</ele>
        <time>2021-07-30T13:25:07Z</time>
      </trkpt>
      <trkpt lat="48.7782" lon="6.75416">
        <ele>221.4</ele>
        <time>2021-07-30T13:25:08Z</time>
      </trkpt>
      <trkpt lat="48.77819" lon="6.75421">
        <ele>221.5</ele>
        <time>2021-07-30T13:25:09Z</time>
      </trkpt>
      <trkpt lat="48.77817" lon="6.75428">
        <ele>221.5</ele>
        <time>2021-07-30T13:25:11Z</time>
      </trkpt>
      <trkpt lat="48.77815" lon="6.75434">
        <ele>221.5</ele>
        <time>2021-07-30T13:25:13Z</time>
      </trkpt>
      <trkpt lat="48.77815" lon="6.7544">
        <ele>221.5</ele>
        <time>2021-07-30T13:25:14Z</time>
      </trkpt>
      <trkpt lat="48.77814" lon="6.75445">
        <ele>221.6</ele>
        <time>2021-07-30T13:25:15Z</time>
      </trkpt>
      <trkpt lat="48.77812" lon="6.7545">
        <ele>221.6</ele>
        <time>2021-07-30T13:25:16Z</time>
      </trkpt>
      <trkpt lat="48.77811" lon="6.75454">
        <ele>221.6</ele>
        <time>2021-07-30T13:25:17Z</time>
      </trkpt>
      <trkpt lat="48.7781" lon="6.75459">
        <ele>221.6</ele>
        <time>2021-07-30T13:25:18Z</time>
      </trkpt>
      <trkpt lat="48.77809" lon="6.75461">
        <ele>221.6</ele>
        <time>2021-07-30T13:25:19Z</time>
      </trkpt>
      <trkpt lat="48.77807" lon="6.75466">
        <ele>221.7</ele>
        <time>2021-07-30T13:25:21Z</time>
      </trkpt>
      <trkpt lat="48.77805" lon="6.7547">
        <ele>221.7</ele>
        <time>2021-07-30T13:25:22Z</time>
      </trkpt>
      <trkpt lat="48.77804" lon="6.75473">
        <ele>221.7</ele>
        <time>2021-07-30T13:25:23Z</time>
      </trkpt>
      <trkpt lat="48.77802" lon="6.75479">
        <ele>221.7</ele>
        <time>2021-07-30T13:25:25Z</time>
      </trkpt>
      <trkpt lat="48.77799" lon="6.75484">
        <ele>221.6</ele>
        <time>2021-07-30T13:25:26Z</time>
      </trkpt>
      <trkpt lat="48.77797" lon="6.75486">
        <ele>221.6</ele>
        <time>2021-07-30T13:25:27Z</time>
      </trkpt>
      <trkpt lat="48.77796" lon="6.75489">
        <ele>221.6</ele>
        <time>2021-07-30T13:25:28Z</time>
      </trkpt>
      <trkpt lat="48.77793" lon="6.75494">
        <ele>221.5</ele>
        <time>2021-07-30T13:25:30Z</time>
      </trkpt>
      <trkpt lat="48.77791" lon="6.75498">
        <ele>221.5</ele>
        <time>2021-07-30T13:25:31Z</time>
      </trkpt>
      <trkpt lat="48.77786" lon="6.75505">
        <ele>221.4</ele>
        <time>2021-07-30T13:25:33Z</time>
      </trkpt>
      <trkpt lat="48.77783" lon="6.75508">
        <ele>221.3</ele>
        <time>2021-07-30T13:25:34Z</time>
      </trkpt>
      <trkpt lat="48.7778" lon="6.75511">
        <ele>221.2</ele>
        <time>2021-07-30T13:25:35Z</time>
      </trkpt>
      <trkpt lat="48.77775" lon="6.75519">
        <ele>221</ele>
        <time>2021-07-30T13:25:37Z</time>
      </trkpt>
      <trkpt lat="48.77771" lon="6.75527">
        <ele>220.8</ele>
        <time>2021-07-30T13:25:39Z</time>
      </trkpt>
      <trkpt lat="48.77768" lon="6.75532">
        <ele>220.6</ele>
        <time>2021-07-30T13:25:40Z</time>
      </trkpt>
      <trkpt lat="48.77765" lon="6.75543">
        <ele>220.4</ele>
        <time>2021-07-30T13:25:41Z</time>
      </trkpt>
      <trkpt lat="48.77763" lon="6.7555">
        <ele>220.2</ele>
        <time>2021-07-30T13:25:42Z</time>
      </trkpt>
      <trkpt lat="48.7776" lon="6.75556">
        <ele>220</ele>
        <time>2021-07-30T13:25:43Z</time>
      </trkpt>
      <trkpt lat="48.77754" lon="6.75571">
        <ele>219.7</ele>
        <time>2021-07-30T13:25:45Z</time>
      </trkpt>
      <trkpt lat="48.77751" lon="6.75578">
        <ele>219.6</ele>
        <time>2021-07-30T13:25:46Z</time>
      </trkpt>
      <trkpt lat="48.77748" lon="6.75585">
        <ele>219.4</ele>
        <time>2021-07-30T13:25:47Z</time>
      </trkpt>
      <trkpt lat="48.77743" lon="6.756">
        <ele>219.2</ele>
        <time>2021-07-30T13:25:49Z</time>
      </trkpt>
      <trkpt lat="48.77739" lon="6.75616">
        <ele>219.1</ele>
        <time>2021-07-30T13:25:51Z</time>
      </trkpt>
      <trkpt lat="48.77738" lon="6.75624">
        <ele>219</ele>
        <time>2021-07-30T13:25:52Z</time>
      </trkpt>
      <trkpt lat="48.77737" lon="6.75632">
        <ele>219</ele>
        <time>2021-07-30T13:25:53Z</time>
      </trkpt>
      <trkpt lat="48.77736" lon="6.75647">
        <ele>218.9</ele>
        <time>2021-07-30T13:25:55Z</time>
      </trkpt>
      <trkpt lat="48.77734" lon="6.75661">
        <ele>218.9</ele>
        <time>2021-07-30T13:25:57Z</time>
      </trkpt>
      <trkpt lat="48.77734" lon="6.75669">
        <ele>218.9</ele>
        <time>2021-07-30T13:25:58Z</time>
      </trkpt>
      <trkpt lat="48.77734" lon="6.75685">
        <ele>218.8</ele>
        <time>2021-07-30T13:26:00Z</time>
      </trkpt>
      <trkpt lat="48.77734" lon="6.75693">
        <ele>218.8</ele>
        <time>2021-07-30T13:26:01Z</time>
      </trkpt>
      <trkpt lat="48.77734" lon="6.7571">
        <ele>218.7</ele>
        <time>2021-07-30T13:26:03Z</time>
      </trkpt>
      <trkpt lat="48.77734" lon="6.75727">
        <ele>218.6</ele>
        <time>2021-07-30T13:26:05Z</time>
      </trkpt>
      <trkpt lat="48.77733" lon="6.75746">
        <ele>218.5</ele>
        <time>2021-07-30T13:26:07Z</time>
      </trkpt>
      <trkpt lat="48.77733" lon="6.75755">
        <ele>218.5</ele>
        <time>2021-07-30T13:26:08Z</time>
      </trkpt>
      <trkpt lat="48.77735" lon="6.75775">
        <ele>218.4</ele>
        <time>2021-07-30T13:26:10Z</time>
      </trkpt>
      <trkpt lat="48.77735" lon="6.75786">
        <ele>218.4</ele>
        <time>2021-07-30T13:26:11Z</time>
      </trkpt>
      <trkpt lat="48.77735" lon="6.75796">
        <ele>218.4</ele>
        <time>2021-07-30T13:26:12Z</time>
      </trkpt>
      <trkpt lat="48.77736" lon="6.75807">
        <ele>218.3</ele>
        <time>2021-07-30T13:26:13Z</time>
      </trkpt>
      <trkpt lat="48.77737" lon="6.75829">
        <ele>218.3</ele>
        <time>2021-07-30T13:26:15Z</time>
      </trkpt>
      <trkpt lat="48.77737" lon="6.75851">
        <ele>218.3</ele>
        <time>2021-07-30T13:26:17Z</time>
      </trkpt>
      <trkpt lat="48.77738" lon="6.75873">
        <ele>218.3</ele>
        <time>2021-07-30T13:26:19Z</time>
      </trkpt>
      <trkpt lat="48.77741" lon="6.75896">
        <ele>218.3</ele>
        <time>2021-07-30T13:26:21Z</time>
      </trkpt>
      <trkpt lat="48.77742" lon="6.75918">
        <ele>218.3</ele>
        <time>2021-07-30T13:26:23Z</time>
      </trkpt>
      <trkpt lat="48.77743" lon="6.75938">
        <ele>218.4</ele>
        <time>2021-07-30T13:26:25Z</time>
      </trkpt>
      <trkpt lat="48.77744" lon="6.75957">
        <ele>218.5</ele>
        <time>2021-07-30T13:26:27Z</time>
      </trkpt>
      <trkpt lat="48.77744" lon="6.75967">
        <ele>218.6</ele>
        <time>2021-07-30T13:26:28Z</time>
      </trkpt>
      <trkpt lat="48.77744" lon="6.75977">
        <ele>218.7</ele>
        <time>2021-07-30T13:26:29Z</time>
      </trkpt>
      <trkpt lat="48.77744" lon="6.75996">
        <ele>219</ele>
        <time>2021-07-30T13:26:31Z</time>
      </trkpt>
      <trkpt lat="48.77745" lon="6.76013">
        <ele>219.2</ele>
        <time>2021-07-30T13:26:33Z</time>
      </trkpt>
      <trkpt lat="48.77745" lon="6.76022">
        <ele>219.3</ele>
        <time>2021-07-30T13:26:34Z</time>
      </trkpt>
      <trkpt lat="48.77745" lon="6.76031">
        <ele>219.4</ele>
        <time>2021-07-30T13:26:35Z</time>
      </trkpt>
      <trkpt lat="48.77745" lon="6.76046">
        <ele>219.5</ele>
        <time>2021-07-30T13:26:37Z</time>
      </trkpt>
      <trkpt lat="48.77746" lon="6.76061">
        <ele>219.6</ele>
        <time>2021-07-30T13:26:39Z</time>
      </trkpt>
      <trkpt lat="48.77746" lon="6.76076">
        <ele>219.6</ele>
        <time>2021-07-30T13:26:41Z</time>
      </trkpt>
      <trkpt lat="48.77747" lon="6.76085">
        <ele>219.7</ele>
        <time>2021-07-30T13:26:42Z</time>
      </trkpt>
      <trkpt lat="48.77747" lon="6.76094">
        <ele>219.7</ele>
        <time>2021-07-30T13:26:43Z</time>
      </trkpt>
      <trkpt lat="48.77748" lon="6.76111">
        <ele>219.8</ele>
        <time>2021-07-30T13:26:45Z</time>
      </trkpt>
      <trkpt lat="48.77748" lon="6.7612">
        <ele>219.8</ele>
        <time>2021-07-30T13:26:46Z</time>
      </trkpt>
      <trkpt lat="48.77748" lon="6.76137">
        <ele>220</ele>
        <time>2021-07-30T13:26:48Z</time>
      </trkpt>
      <trkpt lat="48.77749" lon="6.76147">
        <ele>220.1</ele>
        <time>2021-07-30T13:26:49Z</time>
      </trkpt>
      <trkpt lat="48.77751" lon="6.76164">
        <ele>220.2</ele>
        <time>2021-07-30T13:26:51Z</time>
      </trkpt>
      <trkpt lat="48.77751" lon="6.76173">
        <ele>220.3</ele>
        <time>2021-07-30T13:26:52Z</time>
      </trkpt>
      <trkpt lat="48.77752" lon="6.76181">
        <ele>220.4</ele>
        <time>2021-07-30T13:26:53Z</time>
      </trkpt>
      <trkpt lat="48.77753" lon="6.7619">
        <ele>220.6</ele>
        <time>2021-07-30T13:26:54Z</time>
      </trkpt>
      <trkpt lat="48.77753" lon="6.76198">
        <ele>220.7</ele>
        <time>2021-07-30T13:26:55Z</time>
      </trkpt>
      <trkpt lat="48.77753" lon="6.76215">
        <ele>221</ele>
        <time>2021-07-30T13:26:57Z</time>
      </trkpt>
      <trkpt lat="48.77754" lon="6.76223">
        <ele>221.2</ele>
        <time>2021-07-30T13:26:58Z</time>
      </trkpt>
      <trkpt lat="48.77754" lon="6.7624">
        <ele>221.6</ele>
        <time>2021-07-30T13:27:00Z</time>
      </trkpt>
      <trkpt lat="48.77754" lon="6.76248">
        <ele>221.8</ele>
        <time>2021-07-30T13:27:01Z</time>
      </trkpt>
      <trkpt lat="48.77754" lon="6.76261">
        <ele>222.2</ele>
        <time>2021-07-30T13:27:03Z</time>
      </trkpt>
      <trkpt lat="48.77754" lon="6.76266">
        <ele>222.4</ele>
        <time>2021-07-30T13:27:04Z</time>
      </trkpt>
      <trkpt lat="48.77754" lon="6.76274">
        <ele>222.6</ele>
        <time>2021-07-30T13:27:05Z</time>
      </trkpt>
      <trkpt lat="48.77755" lon="6.76286">
        <ele>222.9</ele>
        <time>2021-07-30T13:27:07Z</time>
      </trkpt>
      <trkpt lat="48.77755" lon="6.76299">
        <ele>223.2</ele>
        <time>2021-07-30T13:27:09Z</time>
      </trkpt>
      <trkpt lat="48.77756" lon="6.76306">
        <ele>223.4</ele>
        <time>2021-07-30T13:27:10Z</time>
      </trkpt>
      <trkpt lat="48.77754" lon="6.76315">
        <ele>223.6</ele>
        <time>2021-07-30T13:27:12Z</time>
      </trkpt>
      <trkpt lat="48.77754" lon="6.76321">
        <ele>223.7</ele>
        <time>2021-07-30T13:27:13Z</time>
      </trkpt>
      <trkpt lat="48.77755" lon="6.76327">
        <ele>223.8</ele>
        <time>2021-07-30T13:27:14Z</time>
      </trkpt>
      <trkpt lat="48.77756" lon="6.76338">
        <ele>223.9</ele>
        <time>2021-07-30T13:27:16Z</time>
      </trkpt>
      <trkpt lat="48.77757" lon="6.76344">
        <ele>224</ele>
        <time>2021-07-30T13:27:17Z</time>
      </trkpt>
      <trkpt lat="48.77757" lon="6.76356">
        <ele>224.1</ele>
        <time>2021-07-30T13:27:19Z</time>
      </trkpt>
      <trkpt lat="48.77758" lon="6.76363">
        <ele>224.1</ele>
        <time>2021-07-30T13:27:20Z</time>
      </trkpt>
      <trkpt lat="48.77757" lon="6.7637">
        <ele>224.1</ele>
        <time>2021-07-30T13:27:21Z</time>
      </trkpt>
      <trkpt lat="48.77757" lon="6.76378">
        <ele>224.1</ele>
        <time>2021-07-30T13:27:23Z</time>
      </trkpt>
      <trkpt lat="48.77757" lon="6.76385">
        <ele>224</ele>
        <time>2021-07-30T13:27:24Z</time>
      </trkpt>
      <trkpt lat="48.77757" lon="6.76391">
        <ele>224</ele>
        <time>2021-07-30T13:27:25Z</time>
      </trkpt>
      <trkpt lat="48.77758" lon="6.76398">
        <ele>223.9</ele>
        <time>2021-07-30T13:27:27Z</time>
      </trkpt>
      <trkpt lat="48.77758" lon="6.76406">
        <ele>223.7</ele>
        <time>2021-07-30T13:27:29Z</time>
      </trkpt>
      <trkpt lat="48.77758" lon="6.76412">
        <ele>223.6</ele>
        <time>2021-07-30T13:27:30Z</time>
      </trkpt>
      <trkpt lat="48.77759" lon="6.76417">
        <ele>223.5</ele>
        <time>2021-07-30T13:27:31Z</time>
      </trkpt>
      <trkpt lat="48.77758" lon="6.76425">
        <ele>223.3</ele>
        <time>2021-07-30T13:27:33Z</time>
      </trkpt>
      <trkpt lat="48.77756" lon="6.76438">
        <ele>222.9</ele>
        <time>2021-07-30T13:27:34Z</time>
      </trkpt>
      <trkpt lat="48.77755" lon="6.76446">
        <ele>222.6</ele>
        <time>2021-07-30T13:27:35Z</time>
      </trkpt>
      <trkpt lat="48.7775" lon="6.76461">
        <ele>222</ele>
        <time>2021-07-30T13:27:37Z</time>
      </trkpt>
      <trkpt lat="48.77744" lon="6.76477">
        <ele>221.3</ele>
        <time>2021-07-30T13:27:39Z</time>
      </trkpt>
      <trkpt lat="48.77735" lon="6.76493">
        <ele>220.5</ele>
        <time>2021-07-30T13:27:41Z</time>
      </trkpt>
      <trkpt lat="48.77724" lon="6.76509">
        <ele>219.6</ele>
        <time>2021-07-30T13:27:43Z</time>
      </trkpt>
      <trkpt lat="48.77712" lon="6.76523">
        <ele>218.6</ele>
        <time>2021-07-30T13:27:45Z</time>
      </trkpt>
      <trkpt lat="48.77699" lon="6.76534">
        <ele>217.6</ele>
        <time>2021-07-30T13:27:47Z</time>
      </trkpt>
      <trkpt lat="48.77686" lon="6.76544">
        <ele>216.8</ele>
        <time>2021-07-30T13:27:49Z</time>
      </trkpt>
      <trkpt lat="48.77674" lon="6.76555">
        <ele>216.1</ele>
        <time>2021-07-30T13:27:51Z</time>
      </trkpt>
      <trkpt lat="48.7766" lon="6.76566">
        <ele>215.5</ele>
        <time>2021-07-30T13:27:53Z</time>
      </trkpt>
      <trkpt lat="48.77653" lon="6.7657">
        <ele>215.3</ele>
        <time>2021-07-30T13:27:54Z</time>
      </trkpt>
      <trkpt lat="48.77646" lon="6.76574">
        <ele>215.1</ele>
        <time>2021-07-30T13:27:55Z</time>
      </trkpt>
      <trkpt lat="48.77633" lon="6.76583">
        <ele>214.8</ele>
        <time>2021-07-30T13:27:57Z</time>
      </trkpt>
      <trkpt lat="48.7762" lon="6.76592">
        <ele>214.6</ele>
        <time>2021-07-30T13:27:59Z</time>
      </trkpt>
      <trkpt lat="48.77613" lon="6.76598">
        <ele>214.5</ele>
        <time>2021-07-30T13:28:00Z</time>
      </trkpt>
      <trkpt lat="48.77607" lon="6.76603">
        <ele>214.4</ele>
        <time>2021-07-30T13:28:01Z</time>
      </trkpt>
      <trkpt lat="48.77596" lon="6.76612">
        <ele>214.4</ele>
        <time>2021-07-30T13:28:03Z</time>
      </trkpt>
      <trkpt lat="48.77586" lon="6.76619">
        <ele>214.3</ele>
        <time>2021-07-30T13:28:05Z</time>
      </trkpt>
      <trkpt lat="48.77581" lon="6.76622">
        <ele>214.3</ele>
        <time>2021-07-30T13:28:06Z</time>
      </trkpt>
      <trkpt lat="48.77575" lon="6.76625">
        <ele>214.2</ele>
        <time>2021-07-30T13:28:07Z</time>
      </trkpt>
      <trkpt lat="48.77564" lon="6.7663">
        <ele>214</ele>
        <time>2021-07-30T13:28:09Z</time>
      </trkpt>
      <trkpt lat="48.77559" lon="6.76633">
        <ele>214</ele>
        <time>2021-07-30T13:28:10Z</time>
      </trkpt>
      <trkpt lat="48.77549" lon="6.7664">
        <ele>213.9</ele>
        <time>2021-07-30T13:28:12Z</time>
      </trkpt>
      <trkpt lat="48.77545" lon="6.76645">
        <ele>213.9</ele>
        <time>2021-07-30T13:28:13Z</time>
      </trkpt>
      <trkpt lat="48.77537" lon="6.7665">
        <ele>214</ele>
        <time>2021-07-30T13:28:15Z</time>
      </trkpt>
      <trkpt lat="48.77532" lon="6.76651">
        <ele>214</ele>
        <time>2021-07-30T13:28:16Z</time>
      </trkpt>
      <trkpt lat="48.77523" lon="6.76652">
        <ele>214.1</ele>
        <time>2021-07-30T13:28:18Z</time>
      </trkpt>
      <trkpt lat="48.77519" lon="6.76655">
        <ele>214.2</ele>
        <time>2021-07-30T13:28:19Z</time>
      </trkpt>
      <trkpt lat="48.77512" lon="6.76659">
        <ele>214.3</ele>
        <time>2021-07-30T13:28:21Z</time>
      </trkpt>
      <trkpt lat="48.77508" lon="6.76661">
        <ele>214.4</ele>
        <time>2021-07-30T13:28:22Z</time>
      </trkpt>
      <trkpt lat="48.77507" lon="6.76662">
        <ele>214.4</ele>
        <time>2021-07-30T13:28:23Z</time>
      </trkpt>
      <trkpt lat="48.77498" lon="6.76662">
        <ele>214.6</ele>
        <time>2021-07-30T13:28:25Z</time>
      </trkpt>
      <trkpt lat="48.77492" lon="6.76662">
        <ele>214.7</ele>
        <time>2021-07-30T13:28:27Z</time>
      </trkpt>
      <trkpt lat="48.77488" lon="6.76662">
        <ele>214.8</ele>
        <time>2021-07-30T13:28:28Z</time>
      </trkpt>
      <trkpt lat="48.77484" lon="6.76663">
        <ele>214.9</ele>
        <time>2021-07-30T13:28:29Z</time>
      </trkpt>
      <trkpt lat="48.7748" lon="6.76662">
        <ele>215</ele>
        <time>2021-07-30T13:28:30Z</time>
      </trkpt>
      <trkpt lat="48.77475" lon="6.7666">
        <ele>215.2</ele>
        <time>2021-07-30T13:28:32Z</time>
      </trkpt>
      <trkpt lat="48.77469" lon="6.76663">
        <ele>215.3</ele>
        <time>2021-07-30T13:28:33Z</time>
      </trkpt>
      <trkpt lat="48.77466" lon="6.76667">
        <ele>215.4</ele>
        <time>2021-07-30T13:28:35Z</time>
      </trkpt>
      <trkpt lat="48.77464" lon="6.76668">
        <ele>215.6</ele>
        <time>2021-07-30T13:28:36Z</time>
      </trkpt>
      <trkpt lat="48.7746" lon="6.76676">
        <ele>215.9</ele>
        <time>2021-07-30T13:28:38Z</time>
      </trkpt>
      <trkpt lat="48.77457" lon="6.76682">
        <ele>216.1</ele>
        <time>2021-07-30T13:28:39Z</time>
      </trkpt>
      <trkpt lat="48.77455" lon="6.76684">
        <ele>216.3</ele>
        <time>2021-07-30T13:28:40Z</time>
      </trkpt>
      <trkpt lat="48.7745" lon="6.76688">
        <ele>216.6</ele>
        <time>2021-07-30T13:28:42Z</time>
      </trkpt>
      <trkpt lat="48.77445" lon="6.76691">
        <ele>216.9</ele>
        <time>2021-07-30T13:28:44Z</time>
      </trkpt>
      <trkpt lat="48.77443" lon="6.76696">
        <ele>217.1</ele>
        <time>2021-07-30T13:28:46Z</time>
      </trkpt>
      <trkpt lat="48.7744" lon="6.76702">
        <ele>217.4</ele>
        <time>2021-07-30T13:28:48Z</time>
      </trkpt>
      <trkpt lat="48.77439" lon="6.76708">
        <ele>217.7</ele>
        <time>2021-07-30T13:28:49Z</time>
      </trkpt>
      <trkpt lat="48.77437" lon="6.76714">
        <ele>217.9</ele>
        <time>2021-07-30T13:28:51Z</time>
      </trkpt>
      <trkpt lat="48.77434" lon="6.76719">
        <ele>218.2</ele>
        <time>2021-07-30T13:28:52Z</time>
      </trkpt>
      <trkpt lat="48.77431" lon="6.76723">
        <ele>218.4</ele>
        <time>2021-07-30T13:28:53Z</time>
      </trkpt>
      <trkpt lat="48.7743" lon="6.76724">
        <ele>218.5</ele>
        <time>2021-07-30T13:28:54Z</time>
      </trkpt>
      <trkpt lat="48.77427" lon="6.76728">
        <ele>218.6</ele>
        <time>2021-07-30T13:28:56Z</time>
      </trkpt>
      <trkpt lat="48.77423" lon="6.7673">
        <ele>218.9</ele>
        <time>2021-07-30T13:28:58Z</time>
      </trkpt>
      <trkpt lat="48.77418" lon="6.76734">
        <ele>219.1</ele>
        <time>2021-07-30T13:29:00Z</time>
      </trkpt>
      <trkpt lat="48.77416" lon="6.76736">
        <ele>219.3</ele>
        <time>2021-07-30T13:29:01Z</time>
      </trkpt>
      <trkpt lat="48.77412" lon="6.76738">
        <ele>219.5</ele>
        <time>2021-07-30T13:29:03Z</time>
      </trkpt>
      <trkpt lat="48.77409" lon="6.76739">
        <ele>219.6</ele>
        <time>2021-07-30T13:29:04Z</time>
      </trkpt>
      <trkpt lat="48.77408" lon="6.76739">
        <ele>219.7</ele>
        <time>2021-07-30T13:29:05Z</time>
      </trkpt>
      <trkpt lat="48.77406" lon="6.76742">
        <ele>219.8</ele>
        <time>2021-07-30T13:29:07Z</time>
      </trkpt>
      <trkpt lat="48.77404" lon="6.76748">
        <ele>220</ele>
        <time>2021-07-30T13:29:08Z</time>
      </trkpt>
      <trkpt lat="48.77404" lon="6.7675">
        <ele>220.1</ele>
        <time>2021-07-30T13:29:09Z</time>
      </trkpt>
      <trkpt lat="48.77402" lon="6.76754">
        <ele>220.2</ele>
        <time>2021-07-30T13:29:11Z</time>
      </trkpt>
      <trkpt lat="48.77398" lon="6.76758">
        <ele>220.4</ele>
        <time>2021-07-30T13:29:13Z</time>
      </trkpt>
      <trkpt lat="48.77397" lon="6.76759">
        <ele>220.5</ele>
        <time>2021-07-30T13:29:14Z</time>
      </trkpt>
      <trkpt lat="48.77396" lon="6.7676">
        <ele>220.5</ele>
        <time>2021-07-30T13:29:15Z</time>
      </trkpt>
      <trkpt lat="48.77393" lon="6.76763">
        <ele>220.6</ele>
        <time>2021-07-30T13:29:17Z</time>
      </trkpt>
      <trkpt lat="48.77392" lon="6.76763">
        <ele>220.7</ele>
        <time>2021-07-30T13:29:18Z</time>
      </trkpt>
      <trkpt lat="48.77389" lon="6.76766">
        <ele>220.7</ele>
        <time>2021-07-30T13:29:19Z</time>
      </trkpt>
      <trkpt lat="48.77386" lon="6.76772">
        <ele>220.8</ele>
        <time>2021-07-30T13:29:21Z</time>
      </trkpt>
      <trkpt lat="48.77382" lon="6.7678">
        <ele>220.9</ele>
        <time>2021-07-30T13:29:23Z</time>
      </trkpt>
      <trkpt lat="48.7738" lon="6.76783">
        <ele>221</ele>
        <time>2021-07-30T13:29:24Z</time>
      </trkpt>
      <trkpt lat="48.77378" lon="6.76787">
        <ele>221</ele>
        <time>2021-07-30T13:29:25Z</time>
      </trkpt>
      <trkpt lat="48.77374" lon="6.76794">
        <ele>220.9</ele>
        <time>2021-07-30T13:29:27Z</time>
      </trkpt>
      <trkpt lat="48.7737" lon="6.76799">
        <ele>220.9</ele>
        <time>2021-07-30T13:29:29Z</time>
      </trkpt>
      <trkpt lat="48.77367" lon="6.76804">
        <ele>220.8</ele>
        <time>2021-07-30T13:29:31Z</time>
      </trkpt>
      <trkpt lat="48.77364" lon="6.76809">
        <ele>220.7</ele>
        <time>2021-07-30T13:29:33Z</time>
      </trkpt>
      <trkpt lat="48.77362" lon="6.76812">
        <ele>220.6</ele>
        <time>2021-07-30T13:29:34Z</time>
      </trkpt>
      <trkpt lat="48.77358" lon="6.76819">
        <ele>220.4</ele>
        <time>2021-07-30T13:29:36Z</time>
      </trkpt>
      <trkpt lat="48.77354" lon="6.7682">
        <ele>220.3</ele>
        <time>2021-07-30T13:29:37Z</time>
      </trkpt>
      <trkpt lat="48.77348" lon="6.76825">
        <ele>219.9</ele>
        <time>2021-07-30T13:29:39Z</time>
      </trkpt>
      <trkpt lat="48.77345" lon="6.76828">
        <ele>219.8</ele>
        <time>2021-07-30T13:29:40Z</time>
      </trkpt>
      <trkpt lat="48.7734" lon="6.76835">
        <ele>219.3</ele>
        <time>2021-07-30T13:29:42Z</time>
      </trkpt>
      <trkpt lat="48.77336" lon="6.76839">
        <ele>219</ele>
        <time>2021-07-30T13:29:43Z</time>
      </trkpt>
      <trkpt lat="48.77329" lon="6.7685">
        <ele>218.3</ele>
        <time>2021-07-30T13:29:45Z</time>
      </trkpt>
      <trkpt lat="48.77325" lon="6.76856">
        <ele>217.9</ele>
        <time>2021-07-30T13:29:46Z</time>
      </trkpt>
      <trkpt lat="48.77316" lon="6.76872">
        <ele>216.9</ele>
        <time>2021-07-30T13:29:48Z</time>
      </trkpt>
      <trkpt lat="48.77311" lon="6.76879">
        <ele>216.4</ele>
        <time>2021-07-30T13:29:49Z</time>
      </trkpt>
      <trkpt lat="48.77299" lon="6.76892">
        <ele>215.2</ele>
        <time>2021-07-30T13:29:51Z</time>
      </trkpt>
      <trkpt lat="48.77294" lon="6.769">
        <ele>214.7</ele>
        <time>2021-07-30T13:29:52Z</time>
      </trkpt>
      <trkpt lat="48.77284" lon="6.76917">
        <ele>213.6</ele>
        <time>2021-07-30T13:29:54Z</time>
      </trkpt>
      <trkpt lat="48.77279" lon="6.76926">
        <ele>213.1</ele>
        <time>2021-07-30T13:29:55Z</time>
      </trkpt>
      <trkpt lat="48.77269" lon="6.76944">
        <ele>212</ele>
        <time>2021-07-30T13:29:57Z</time>
      </trkpt>
      <trkpt lat="48.77258" lon="6.76965">
        <ele>211.1</ele>
        <time>2021-07-30T13:29:59Z</time>
      </trkpt>
      <trkpt lat="48.77246" lon="6.76987">
        <ele>210.5</ele>
        <time>2021-07-30T13:30:01Z</time>
      </trkpt>
      <trkpt lat="48.77236" lon="6.77009">
        <ele>210.3</ele>
        <time>2021-07-30T13:30:03Z</time>
      </trkpt>
      <trkpt lat="48.77231" lon="6.77019">
        <ele>210.3</ele>
        <time>2021-07-30T13:30:04Z</time>
      </trkpt>
      <trkpt lat="48.77221" lon="6.7704">
        <ele>210.5</ele>
        <time>2021-07-30T13:30:06Z</time>
      </trkpt>
      <trkpt lat="48.77216" lon="6.77049">
        <ele>210.7</ele>
        <time>2021-07-30T13:30:07Z</time>
      </trkpt>
      <trkpt lat="48.77207" lon="6.77066">
        <ele>211.2</ele>
        <time>2021-07-30T13:30:09Z</time>
      </trkpt>
      <trkpt lat="48.77202" lon="6.77072">
        <ele>211.4</ele>
        <time>2021-07-30T13:30:10Z</time>
      </trkpt>
      <trkpt lat="48.77197" lon="6.77079">
        <ele>211.7</ele>
        <time>2021-07-30T13:30:11Z</time>
      </trkpt>
      <trkpt lat="48.77188" lon="6.77093">
        <ele>212.5</ele>
        <time>2021-07-30T13:30:13Z</time>
      </trkpt>
      <trkpt lat="48.7718" lon="6.77108">
        <ele>213.3</ele>
        <time>2021-07-30T13:30:15Z</time>
      </trkpt>
      <trkpt lat="48.77173" lon="6.77119">
        <ele>214</ele>
        <time>2021-07-30T13:30:17Z</time>
      </trkpt>
      <trkpt lat="48.7717" lon="6.77125">
        <ele>214.4</ele>
        <time>2021-07-30T13:30:18Z</time>
      </trkpt>
      <trkpt lat="48.77169" lon="6.7713">
        <ele>214.7</ele>
        <time>2021-07-30T13:30:19Z</time>
      </trkpt>
      <trkpt lat="48.77166" lon="6.77142">
        <ele>215.4</ele>
        <time>2021-07-30T13:30:21Z</time>
      </trkpt>
      <trkpt lat="48.77163" lon="6.77152">
        <ele>216.1</ele>
        <time>2021-07-30T13:30:23Z</time>
      </trkpt>
      <trkpt lat="48.7716" lon="6.77165">
        <ele>216.7</ele>
        <time>2021-07-30T13:30:25Z</time>
      </trkpt>
      <trkpt lat="48.77164" lon="6.7717">
        <ele>217.1</ele>
        <time>2021-07-30T13:30:27Z</time>
      </trkpt>
      <trkpt lat="48.77158" lon="6.77178">
        <ele>217.6</ele>
        <time>2021-07-30T13:30:29Z</time>
      </trkpt>
      <trkpt lat="48.77153" lon="6.77187">
        <ele>218.1</ele>
        <time>2021-07-30T13:30:31Z</time>
      </trkpt>
      <trkpt lat="48.7715" lon="6.77196">
        <ele>218.6</ele>
        <time>2021-07-30T13:30:32Z</time>
      </trkpt>
      <trkpt lat="48.77148" lon="6.77201">
        <ele>218.8</ele>
        <time>2021-07-30T13:30:33Z</time>
      </trkpt>
      <trkpt lat="48.77146" lon="6.77205">
        <ele>219</ele>
        <time>2021-07-30T13:30:34Z</time>
      </trkpt>
      <trkpt lat="48.77144" lon="6.7721">
        <ele>219.3</ele>
        <time>2021-07-30T13:30:36Z</time>
      </trkpt>
      <trkpt lat="48.77142" lon="6.77214">
        <ele>219.4</ele>
        <time>2021-07-30T13:30:37Z</time>
      </trkpt>
      <trkpt lat="48.7714" lon="6.77218">
        <ele>219.6</ele>
        <time>2021-07-30T13:30:38Z</time>
      </trkpt>
      <trkpt lat="48.77138" lon="6.77223">
        <ele>219.8</ele>
        <time>2021-07-30T13:30:39Z</time>
      </trkpt>
      <trkpt lat="48.77137" lon="6.77227">
        <ele>220</ele>
        <time>2021-07-30T13:30:40Z</time>
      </trkpt>
      <trkpt lat="48.77136" lon="6.77231">
        <ele>220.1</ele>
        <time>2021-07-30T13:30:41Z</time>
      </trkpt>
      <trkpt lat="48.77134" lon="6.77239">
        <ele>220.3</ele>
        <time>2021-07-30T13:30:43Z</time>
      </trkpt>
      <trkpt lat="48.77132" lon="6.77244">
        <ele>220.5</ele>
        <time>2021-07-30T13:30:44Z</time>
      </trkpt>
      <trkpt lat="48.77131" lon="6.77249">
        <ele>220.7</ele>
        <time>2021-07-30T13:30:45Z</time>
      </trkpt>
      <trkpt lat="48.77129" lon="6.77255">
        <ele>220.8</ele>
        <time>2021-07-30T13:30:46Z</time>
      </trkpt>
      <trkpt lat="48.77126" lon="6.77263">
        <ele>221.1</ele>
        <time>2021-07-30T13:30:48Z</time>
      </trkpt>
      <trkpt lat="48.77123" lon="6.77266">
        <ele>221.1</ele>
        <time>2021-07-30T13:30:49Z</time>
      </trkpt>
      <trkpt lat="48.77121" lon="6.77268">
        <ele>221.2</ele>
        <time>2021-07-30T13:30:50Z</time>
      </trkpt>
      <trkpt lat="48.77117" lon="6.77275">
        <ele>221.4</ele>
        <time>2021-07-30T13:30:52Z</time>
      </trkpt>
      <trkpt lat="48.77115" lon="6.77279">
        <ele>221.5</ele>
        <time>2021-07-30T13:30:53Z</time>
      </trkpt>
      <trkpt lat="48.77111" lon="6.77283">
        <ele>221.6</ele>
        <time>2021-07-30T13:30:55Z</time>
      </trkpt>
      <trkpt lat="48.77108" lon="6.77289">
        <ele>221.7</ele>
        <time>2021-07-30T13:30:57Z</time>
      </trkpt>
      <trkpt lat="48.77105" lon="6.77296">
        <ele>221.7</ele>
        <time>2021-07-30T13:30:58Z</time>
      </trkpt>
      <trkpt lat="48.77103" lon="6.773">
        <ele>221.7</ele>
        <time>2021-07-30T13:30:59Z</time>
      </trkpt>
      <trkpt lat="48.771" lon="6.77308">
        <ele>221.7</ele>
        <time>2021-07-30T13:31:01Z</time>
      </trkpt>
      <trkpt lat="48.77098" lon="6.77313">
        <ele>221.7</ele>
        <time>2021-07-30T13:31:02Z</time>
      </trkpt>
      <trkpt lat="48.77096" lon="6.77318">
        <ele>221.7</ele>
        <time>2021-07-30T13:31:03Z</time>
      </trkpt>
      <trkpt lat="48.77093" lon="6.77326">
        <ele>221.6</ele>
        <time>2021-07-30T13:31:05Z</time>
      </trkpt>
      <trkpt lat="48.7709" lon="6.77333">
        <ele>221.5</ele>
        <time>2021-07-30T13:31:06Z</time>
      </trkpt>
      <trkpt lat="48.77088" lon="6.77338">
        <ele>221.5</ele>
        <time>2021-07-30T13:31:07Z</time>
      </trkpt>
      <trkpt lat="48.77084" lon="6.77347">
        <ele>221.3</ele>
        <time>2021-07-30T13:31:09Z</time>
      </trkpt>
      <trkpt lat="48.7708" lon="6.77357">
        <ele>221.2</ele>
        <time>2021-07-30T13:31:11Z</time>
      </trkpt>
      <trkpt lat="48.77077" lon="6.77365">
        <ele>221.1</ele>
        <time>2021-07-30T13:31:12Z</time>
      </trkpt>
      <trkpt lat="48.77075" lon="6.7737">
        <ele>221.1</ele>
        <time>2021-07-30T13:31:13Z</time>
      </trkpt>
      <trkpt lat="48.77071" lon="6.77377">
        <ele>221</ele>
        <time>2021-07-30T13:31:15Z</time>
      </trkpt>
      <trkpt lat="48.77068" lon="6.77383">
        <ele>221</ele>
        <time>2021-07-30T13:31:16Z</time>
      </trkpt>
      <trkpt lat="48.77065" lon="6.77389">
        <ele>220.9</ele>
        <time>2021-07-30T13:31:17Z</time>
      </trkpt>
      <trkpt lat="48.77062" lon="6.77397">
        <ele>220.9</ele>
        <time>2021-07-30T13:31:18Z</time>
      </trkpt>
      <trkpt lat="48.7706" lon="6.77404">
        <ele>220.8</ele>
        <time>2021-07-30T13:31:19Z</time>
      </trkpt>
      <trkpt lat="48.77056" lon="6.77416">
        <ele>220.6</ele>
        <time>2021-07-30T13:31:21Z</time>
      </trkpt>
      <trkpt lat="48.77055" lon="6.77424">
        <ele>220.5</ele>
        <time>2021-07-30T13:31:22Z</time>
      </trkpt>
      <trkpt lat="48.77053" lon="6.77432">
        <ele>220.4</ele>
        <time>2021-07-30T13:31:23Z</time>
      </trkpt>
      <trkpt lat="48.77049" lon="6.77447">
        <ele>220.2</ele>
        <time>2021-07-30T13:31:25Z</time>
      </trkpt>
      <trkpt lat="48.77045" lon="6.77463">
        <ele>220</ele>
        <time>2021-07-30T13:31:27Z</time>
      </trkpt>
      <trkpt lat="48.77042" lon="6.77479">
        <ele>219.8</ele>
        <time>2021-07-30T13:31:29Z</time>
      </trkpt>
      <trkpt lat="48.77038" lon="6.77496">
        <ele>219.6</ele>
        <time>2021-07-30T13:31:31Z</time>
      </trkpt>
      <trkpt lat="48.77033" lon="6.77513">
        <ele>219.4</ele>
        <time>2021-07-30T13:31:33Z</time>
      </trkpt>
      <trkpt lat="48.77031" lon="6.77521">
        <ele>219.4</ele>
        <time>2021-07-30T13:31:34Z</time>
      </trkpt>
      <trkpt lat="48.77026" lon="6.77537">
        <ele>219.3</ele>
        <time>2021-07-30T13:31:36Z</time>
      </trkpt>
      <trkpt lat="48.77024" lon="6.77544">
        <ele>219.3</ele>
        <time>2021-07-30T13:31:37Z</time>
      </trkpt>
      <trkpt lat="48.7702" lon="6.7756">
        <ele>219.3</ele>
        <time>2021-07-30T13:31:39Z</time>
      </trkpt>
      <trkpt lat="48.77016" lon="6.77575">
        <ele>219.3</ele>
        <time>2021-07-30T13:31:41Z</time>
      </trkpt>
      <trkpt lat="48.77012" lon="6.77591">
        <ele>219.4</ele>
        <time>2021-07-30T13:31:43Z</time>
      </trkpt>
      <trkpt lat="48.77008" lon="6.77609">
        <ele>219.5</ele>
        <time>2021-07-30T13:31:45Z</time>
      </trkpt>
      <trkpt lat="48.77003" lon="6.77626">
        <ele>219.5</ele>
        <time>2021-07-30T13:31:47Z</time>
      </trkpt>
      <trkpt lat="48.77001" lon="6.77635">
        <ele>219.5</ele>
        <time>2021-07-30T13:31:48Z</time>
      </trkpt>
      <trkpt lat="48.76999" lon="6.77643">
        <ele>219.6</ele>
        <time>2021-07-30T13:31:49Z</time>
      </trkpt>
      <trkpt lat="48.76996" lon="6.77658">
        <ele>219.8</ele>
        <time>2021-07-30T13:31:51Z</time>
      </trkpt>
      <trkpt lat="48.76994" lon="6.77665">
        <ele>219.9</ele>
        <time>2021-07-30T13:31:52Z</time>
      </trkpt>
      <trkpt lat="48.76991" lon="6.77681">
        <ele>220.1</ele>
        <time>2021-07-30T13:31:54Z</time>
      </trkpt>
      <trkpt lat="48.7699" lon="6.77689">
        <ele>220.2</ele>
        <time>2021-07-30T13:31:55Z</time>
      </trkpt>
      <trkpt lat="48.76988" lon="6.77705">
        <ele>220.5</ele>
        <time>2021-07-30T13:31:57Z</time>
      </trkpt>
      <trkpt lat="48.76987" lon="6.77721">
        <ele>220.7</ele>
        <time>2021-07-30T13:31:59Z</time>
      </trkpt>
      <trkpt lat="48.76988" lon="6.77738">
        <ele>220.8</ele>
        <time>2021-07-30T13:32:01Z</time>
      </trkpt>
      <trkpt lat="48.7699" lon="6.77753">
        <ele>220.8</ele>
        <time>2021-07-30T13:32:03Z</time>
      </trkpt>
      <trkpt lat="48.7699" lon="6.77759">
        <ele>220.8</ele>
        <time>2021-07-30T13:32:04Z</time>
      </trkpt>
      <trkpt lat="48.7699" lon="6.77769">
        <ele>220.8</ele>
        <time>2021-07-30T13:32:06Z</time>
      </trkpt>
      <trkpt lat="48.76991" lon="6.77777">
        <ele>220.7</ele>
        <time>2021-07-30T13:32:08Z</time>
      </trkpt>
      <trkpt lat="48.76991" lon="6.77789">
        <ele>220.6</ele>
        <time>2021-07-30T13:32:10Z</time>
      </trkpt>
      <trkpt lat="48.76991" lon="6.77793">
        <ele>220.5</ele>
        <time>2021-07-30T13:32:11Z</time>
      </trkpt>
      <trkpt lat="48.76991" lon="6.77803">
        <ele>220.4</ele>
        <time>2021-07-30T13:32:13Z</time>
      </trkpt>
      <trkpt lat="48.76991" lon="6.77811">
        <ele>220.3</ele>
        <time>2021-07-30T13:32:15Z</time>
      </trkpt>
      <trkpt lat="48.7699" lon="6.77815">
        <ele>220.2</ele>
        <time>2021-07-30T13:32:16Z</time>
      </trkpt>
      <trkpt lat="48.76989" lon="6.77821">
        <ele>220.1</ele>
        <time>2021-07-30T13:32:17Z</time>
      </trkpt>
      <trkpt lat="48.76989" lon="6.77827">
        <ele>220</ele>
        <time>2021-07-30T13:32:18Z</time>
      </trkpt>
      <trkpt lat="48.76987" lon="6.77833">
        <ele>219.9</ele>
        <time>2021-07-30T13:32:19Z</time>
      </trkpt>
      <trkpt lat="48.76986" lon="6.77839">
        <ele>219.8</ele>
        <time>2021-07-30T13:32:20Z</time>
      </trkpt>
      <trkpt lat="48.7698" lon="6.77852">
        <ele>219.5</ele>
        <time>2021-07-30T13:32:22Z</time>
      </trkpt>
      <trkpt lat="48.76977" lon="6.77859">
        <ele>219.3</ele>
        <time>2021-07-30T13:32:23Z</time>
      </trkpt>
      <trkpt lat="48.76975" lon="6.77865">
        <ele>219.1</ele>
        <time>2021-07-30T13:32:24Z</time>
      </trkpt>
      <trkpt lat="48.76972" lon="6.7787">
        <ele>219</ele>
        <time>2021-07-30T13:32:25Z</time>
      </trkpt>
      <trkpt lat="48.76967" lon="6.77879">
        <ele>218.8</ele>
        <time>2021-07-30T13:32:27Z</time>
      </trkpt>
      <trkpt lat="48.76964" lon="6.77884">
        <ele>218.7</ele>
        <time>2021-07-30T13:32:28Z</time>
      </trkpt>
      <trkpt lat="48.76958" lon="6.77888">
        <ele>218.5</ele>
        <time>2021-07-30T13:32:30Z</time>
      </trkpt>
      <trkpt lat="48.76956" lon="6.7789">
        <ele>218.5</ele>
        <time>2021-07-30T13:32:31Z</time>
      </trkpt>
      <trkpt lat="48.76952" lon="6.77895">
        <ele>218.3</ele>
        <time>2021-07-30T13:32:33Z</time>
      </trkpt>
      <trkpt lat="48.76951" lon="6.77901">
        <ele>218.1</ele>
        <time>2021-07-30T13:32:34Z</time>
      </trkpt>
      <trkpt lat="48.7695" lon="6.77904">
        <ele>218</ele>
        <time>2021-07-30T13:32:35Z</time>
      </trkpt>
      <trkpt lat="48.76948" lon="6.77907">
        <ele>218</ele>
        <time>2021-07-30T13:32:37Z</time>
      </trkpt>
      <trkpt lat="48.76948" lon="6.77909">
        <ele>218.1</ele>
        <time>2021-07-30T13:32:38Z</time>
      </trkpt>
      <trkpt lat="48.76946" lon="6.77906">
        <ele>218.2</ele>
        <time>2021-07-30T13:32:39Z</time>
      </trkpt>
      <trkpt lat="48.76944" lon="6.77903">
        <ele>218.3</ele>
        <time>2021-07-30T13:32:41Z</time>
      </trkpt>
      <trkpt lat="48.76943" lon="6.77899">
        <ele>218.4</ele>
        <time>2021-07-30T13:32:42Z</time>
      </trkpt>
      <trkpt lat="48.76943" lon="6.77897">
        <ele>218.4</ele>
        <time>2021-07-30T13:32:43Z</time>
      </trkpt>
      <trkpt lat="48.76943" lon="6.77896">
        <ele>218.4</ele>
        <time>2021-07-30T13:32:45Z</time>
      </trkpt>
      <trkpt lat="48.76943" lon="6.77896">
        <ele>218.4</ele>
        <time>2021-07-30T13:32:46Z</time>
      </trkpt>
      <trkpt lat="48.76943" lon="6.77896">
        <ele>218.4</ele>
        <time>2021-07-30T13:32:47Z</time>
      </trkpt>
      <trkpt lat="48.76943" lon="6.77896">
        <ele>218.4</ele>
        <time>2021-07-30T13:32:49Z</time>
      </trkpt>
      <trkpt lat="48.76943" lon="6.77896">
        <ele>218.4</ele>
        <time>2021-07-30T13:32:51Z</time>
      </trkpt>
      <trkpt lat="48.76931" lon="6.77895">
        <ele>218.9</ele>
        <time>2021-07-30T13:34:01Z</time>
      </trkpt>
      <trkpt lat="48.76925" lon="6.77899">
        <ele>219.1</ele>
        <time>2021-07-30T13:34:03Z</time>
      </trkpt>
      <trkpt lat="48.76919" lon="6.77901">
        <ele>219.3</ele>
        <time>2021-07-30T13:34:05Z</time>
      </trkpt>
      <trkpt lat="48.76913" lon="6.77906">
        <ele>219.4</ele>
        <time>2021-07-30T13:34:07Z</time>
      </trkpt>
      <trkpt lat="48.76909" lon="6.77911">
        <ele>219.4</ele>
        <time>2021-07-30T13:34:09Z</time>
      </trkpt>
      <trkpt lat="48.76906" lon="6.77915">
        <ele>219.4</ele>
        <time>2021-07-30T13:34:10Z</time>
      </trkpt>
      <trkpt lat="48.76901" lon="6.77922">
        <ele>219.3</ele>
        <time>2021-07-30T13:34:12Z</time>
      </trkpt>
      <trkpt lat="48.76897" lon="6.77925">
        <ele>219.2</ele>
        <time>2021-07-30T13:34:13Z</time>
      </trkpt>
      <trkpt lat="48.76893" lon="6.77927">
        <ele>219.2</ele>
        <time>2021-07-30T13:34:14Z</time>
      </trkpt>
      <trkpt lat="48.76889" lon="6.77929">
        <ele>219.1</ele>
        <time>2021-07-30T13:34:15Z</time>
      </trkpt>
      <trkpt lat="48.76883" lon="6.77933">
        <ele>219</ele>
        <time>2021-07-30T13:34:17Z</time>
      </trkpt>
      <trkpt lat="48.7688" lon="6.77935">
        <ele>219</ele>
        <time>2021-07-30T13:34:18Z</time>
      </trkpt>
      <trkpt lat="48.76877" lon="6.77936">
        <ele>218.9</ele>
        <time>2021-07-30T13:34:19Z</time>
      </trkpt>
      <trkpt lat="48.76875" lon="6.77938">
        <ele>218.9</ele>
        <time>2021-07-30T13:34:20Z</time>
      </trkpt>
      <trkpt lat="48.76874" lon="6.77942">
        <ele>218.8</ele>
        <time>2021-07-30T13:34:22Z</time>
      </trkpt>
      <trkpt lat="48.76873" lon="6.77947">
        <ele>218.7</ele>
        <time>2021-07-30T13:34:24Z</time>
      </trkpt>
      <trkpt lat="48.76872" lon="6.77949">
        <ele>218.7</ele>
        <time>2021-07-30T13:34:25Z</time>
      </trkpt>
      <trkpt lat="48.7687" lon="6.77955">
        <ele>218.5</ele>
        <time>2021-07-30T13:34:27Z</time>
      </trkpt>
      <trkpt lat="48.76866" lon="6.77961">
        <ele>218.4</ele>
        <time>2021-07-30T13:34:28Z</time>
      </trkpt>
      <trkpt lat="48.76864" lon="6.77967">
        <ele>218.3</ele>
        <time>2021-07-30T13:34:29Z</time>
      </trkpt>
      <trkpt lat="48.76861" lon="6.77972">
        <ele>218.3</ele>
        <time>2021-07-30T13:34:30Z</time>
      </trkpt>
      <trkpt lat="48.76858" lon="6.77979">
        <ele>218.3</ele>
        <time>2021-07-30T13:34:31Z</time>
      </trkpt>
      <trkpt lat="48.76852" lon="6.77993">
        <ele>218.3</ele>
        <time>2021-07-30T13:34:33Z</time>
      </trkpt>
      <trkpt lat="48.76845" lon="6.78007">
        <ele>218</ele>
        <time>2021-07-30T13:34:35Z</time>
      </trkpt>
      <trkpt lat="48.76839" lon="6.78019">
        <ele>217.7</ele>
        <time>2021-07-30T13:34:38Z</time>
      </trkpt>
      <trkpt lat="48.76838" lon="6.78024">
        <ele>217.7</ele>
        <time>2021-07-30T13:34:40Z</time>
      </trkpt>
      <trkpt lat="48.76836" lon="6.7803">
        <ele>217.6</ele>
        <time>2021-07-30T13:34:41Z</time>
      </trkpt>
      <trkpt lat="48.76834" lon="6.78035">
        <ele>217.6</ele>
        <time>2021-07-30T13:34:42Z</time>
      </trkpt>
      <trkpt lat="48.76831" lon="6.7804">
        <ele>217.6</ele>
        <time>2021-07-30T13:34:43Z</time>
      </trkpt>
      <trkpt lat="48.76829" lon="6.78043">
        <ele>217.6</ele>
        <time>2021-07-30T13:34:44Z</time>
      </trkpt>
      <trkpt lat="48.76827" lon="6.7805">
        <ele>217.5</ele>
        <time>2021-07-30T13:34:46Z</time>
      </trkpt>
      <trkpt lat="48.76827" lon="6.78057">
        <ele>217.4</ele>
        <time>2021-07-30T13:34:47Z</time>
      </trkpt>
      <trkpt lat="48.76824" lon="6.78064">
        <ele>217.3</ele>
        <time>2021-07-30T13:34:49Z</time>
      </trkpt>
      <trkpt lat="48.76823" lon="6.78067">
        <ele>217.2</ele>
        <time>2021-07-30T13:34:50Z</time>
      </trkpt>
      <trkpt lat="48.76821" lon="6.78075">
        <ele>217.2</ele>
        <time>2021-07-30T13:34:52Z</time>
      </trkpt>
      <trkpt lat="48.76821" lon="6.78078">
        <ele>217.2</ele>
        <time>2021-07-30T13:34:53Z</time>
      </trkpt>
      <trkpt lat="48.76821" lon="6.78084">
        <ele>217.2</ele>
        <time>2021-07-30T13:34:55Z</time>
      </trkpt>
      <trkpt lat="48.76819" lon="6.78087">
        <ele>217.2</ele>
        <time>2021-07-30T13:34:56Z</time>
      </trkpt>
      <trkpt lat="48.76817" lon="6.7809">
        <ele>217.3</ele>
        <time>2021-07-30T13:34:58Z</time>
      </trkpt>
      <trkpt lat="48.76816" lon="6.7809">
        <ele>217.3</ele>
        <time>2021-07-30T13:34:59Z</time>
      </trkpt>
      <trkpt lat="48.76812" lon="6.78091">
        <ele>217.4</ele>
        <time>2021-07-30T13:35:01Z</time>
      </trkpt>
      <trkpt lat="48.7681" lon="6.78092">
        <ele>217.4</ele>
        <time>2021-07-30T13:35:02Z</time>
      </trkpt>
      <trkpt lat="48.76807" lon="6.78095">
        <ele>217.5</ele>
        <time>2021-07-30T13:35:04Z</time>
      </trkpt>
      <trkpt lat="48.76807" lon="6.78097">
        <ele>217.5</ele>
        <time>2021-07-30T13:35:05Z</time>
      </trkpt>
      <trkpt lat="48.76806" lon="6.78099">
        <ele>217.5</ele>
        <time>2021-07-30T13:35:06Z</time>
      </trkpt>
      <trkpt lat="48.76804" lon="6.78104">
        <ele>217.6</ele>
        <time>2021-07-30T13:35:08Z</time>
      </trkpt>
      <trkpt lat="48.76802" lon="6.78103">
        <ele>217.6</ele>
        <time>2021-07-30T13:35:10Z</time>
      </trkpt>
      <trkpt lat="48.76801" lon="6.78103">
        <ele>217.6</ele>
        <time>2021-07-30T13:35:12Z</time>
      </trkpt>
      <trkpt lat="48.76801" lon="6.78103">
        <ele>217.6</ele>
        <time>2021-07-30T13:35:14Z</time>
      </trkpt>
      <trkpt lat="48.768" lon="6.78104">
        <ele>217.7</ele>
        <time>2021-07-30T13:35:16Z</time>
      </trkpt>
      <trkpt lat="48.768" lon="6.78104">
        <ele>217.7</ele>
        <time>2021-07-30T13:35:17Z</time>
      </trkpt>
      <trkpt lat="48.76799" lon="6.78104">
        <ele>217.7</ele>
        <time>2021-07-30T13:35:18Z</time>
      </trkpt>
      <trkpt lat="48.76749" lon="6.78198">
        <ele>218.8</ele>
        <time>2021-07-30T13:36:18Z</time>
      </trkpt>
      <trkpt lat="48.76746" lon="6.78202">
        <ele>218.9</ele>
        <time>2021-07-30T13:36:20Z</time>
      </trkpt>
      <trkpt lat="48.76744" lon="6.78209">
        <ele>218.9</ele>
        <time>2021-07-30T13:36:21Z</time>
      </trkpt>
      <trkpt lat="48.76742" lon="6.78213">
        <ele>218.9</ele>
        <time>2021-07-30T13:36:22Z</time>
      </trkpt>
      <trkpt lat="48.76739" lon="6.78218">
        <ele>218.9</ele>
        <time>2021-07-30T13:36:23Z</time>
      </trkpt>
      <trkpt lat="48.76736" lon="6.78224">
        <ele>219</ele>
        <time>2021-07-30T13:36:25Z</time>
      </trkpt>
      <trkpt lat="48.76733" lon="6.78228">
        <ele>218.9</ele>
        <time>2021-07-30T13:36:26Z</time>
      </trkpt>
      <trkpt lat="48.76729" lon="6.78236">
        <ele>218.8</ele>
        <time>2021-07-30T13:36:28Z</time>
      </trkpt>
      <trkpt lat="48.76728" lon="6.7824">
        <ele>218.7</ele>
        <time>2021-07-30T13:36:29Z</time>
      </trkpt>
      <trkpt lat="48.76725" lon="6.78246">
        <ele>218.6</ele>
        <time>2021-07-30T13:36:30Z</time>
      </trkpt>
      <trkpt lat="48.76723" lon="6.7825">
        <ele>218.6</ele>
        <time>2021-07-30T13:36:31Z</time>
      </trkpt>
      <trkpt lat="48.76722" lon="6.78253">
        <ele>218.5</ele>
        <time>2021-07-30T13:36:32Z</time>
      </trkpt>
      <trkpt lat="48.76719" lon="6.78259">
        <ele>218.5</ele>
        <time>2021-07-30T13:36:34Z</time>
      </trkpt>
      <trkpt lat="48.76716" lon="6.78263">
        <ele>218.4</ele>
        <time>2021-07-30T13:36:35Z</time>
      </trkpt>
      <trkpt lat="48.76714" lon="6.78268">
        <ele>218.3</ele>
        <time>2021-07-30T13:36:36Z</time>
      </trkpt>
      <trkpt lat="48.76713" lon="6.78269">
        <ele>218.2</ele>
        <time>2021-07-30T13:36:37Z</time>
      </trkpt>
      <trkpt lat="48.7671" lon="6.78274">
        <ele>218.1</ele>
        <time>2021-07-30T13:36:39Z</time>
      </trkpt>
      <trkpt lat="48.76709" lon="6.78279">
        <ele>217.9</ele>
        <time>2021-07-30T13:36:40Z</time>
      </trkpt>
      <trkpt lat="48.76708" lon="6.78282">
        <ele>217.8</ele>
        <time>2021-07-30T13:36:41Z</time>
      </trkpt>
      <trkpt lat="48.76706" lon="6.78287">
        <ele>217.6</ele>
        <time>2021-07-30T13:36:43Z</time>
      </trkpt>
      <trkpt lat="48.76704" lon="6.78292">
        <ele>217.4</ele>
        <time>2021-07-30T13:36:44Z</time>
      </trkpt>
      <trkpt lat="48.76702" lon="6.78297">
        <ele>217.1</ele>
        <time>2021-07-30T13:36:45Z</time>
      </trkpt>
      <trkpt lat="48.767" lon="6.78302">
        <ele>216.9</ele>
        <time>2021-07-30T13:36:46Z</time>
      </trkpt>
      <trkpt lat="48.76698" lon="6.78307">
        <ele>216.5</ele>
        <time>2021-07-30T13:36:47Z</time>
      </trkpt>
      <trkpt lat="48.76695" lon="6.78312">
        <ele>216.1</ele>
        <time>2021-07-30T13:36:48Z</time>
      </trkpt>
      <trkpt lat="48.76693" lon="6.78317">
        <ele>215.7</ele>
        <time>2021-07-30T13:36:49Z</time>
      </trkpt>
      <trkpt lat="48.7669" lon="6.78321">
        <ele>215.4</ele>
        <time>2021-07-30T13:36:50Z</time>
      </trkpt>
      <trkpt lat="48.76686" lon="6.78328">
        <ele>215</ele>
        <time>2021-07-30T13:36:52Z</time>
      </trkpt>
      <trkpt lat="48.76684" lon="6.78332">
        <ele>214.7</ele>
        <time>2021-07-30T13:36:53Z</time>
      </trkpt>
      <trkpt lat="48.76681" lon="6.78336">
        <ele>214.6</ele>
        <time>2021-07-30T13:36:54Z</time>
      </trkpt>
      <trkpt lat="48.76679" lon="6.78341">
        <ele>214.5</ele>
        <time>2021-07-30T13:36:55Z</time>
      </trkpt>
      <trkpt lat="48.76678" lon="6.78346">
        <ele>214.4</ele>
        <time>2021-07-30T13:36:56Z</time>
      </trkpt>
      <trkpt lat="48.76677" lon="6.78352">
        <ele>214.5</ele>
        <time>2021-07-30T13:36:58Z</time>
      </trkpt>
      <trkpt lat="48.76677" lon="6.78359">
        <ele>214.7</ele>
        <time>2021-07-30T13:36:59Z</time>
      </trkpt>
      <trkpt lat="48.76678" lon="6.78365">
        <ele>215</ele>
        <time>2021-07-30T13:37:01Z</time>
      </trkpt>
      <trkpt lat="48.76677" lon="6.78372">
        <ele>215.2</ele>
        <time>2021-07-30T13:37:02Z</time>
      </trkpt>
      <trkpt lat="48.76676" lon="6.78381">
        <ele>215.4</ele>
        <time>2021-07-30T13:37:04Z</time>
      </trkpt>
      <trkpt lat="48.76675" lon="6.78386">
        <ele>215.5</ele>
        <time>2021-07-30T13:37:05Z</time>
      </trkpt>
      <trkpt lat="48.76674" lon="6.78392">
        <ele>215.5</ele>
        <time>2021-07-30T13:37:06Z</time>
      </trkpt>
      <trkpt lat="48.76673" lon="6.78397">
        <ele>215.4</ele>
        <time>2021-07-30T13:37:07Z</time>
      </trkpt>
      <trkpt lat="48.76671" lon="6.78404">
        <ele>215.3</ele>
        <time>2021-07-30T13:37:09Z</time>
      </trkpt>
      <trkpt lat="48.76669" lon="6.7841">
        <ele>215.1</ele>
        <time>2021-07-30T13:37:10Z</time>
      </trkpt>
      <trkpt lat="48.76668" lon="6.78418">
        <ele>214.9</ele>
        <time>2021-07-30T13:37:12Z</time>
      </trkpt>
      <trkpt lat="48.76666" lon="6.78423">
        <ele>214.7</ele>
        <time>2021-07-30T13:37:14Z</time>
      </trkpt>
      <trkpt lat="48.76665" lon="6.78429">
        <ele>214.5</ele>
        <time>2021-07-30T13:37:15Z</time>
      </trkpt>
      <trkpt lat="48.76664" lon="6.78433">
        <ele>214.4</ele>
        <time>2021-07-30T13:37:16Z</time>
      </trkpt>
      <trkpt lat="48.76662" lon="6.78439">
        <ele>214.3</ele>
        <time>2021-07-30T13:37:18Z</time>
      </trkpt>
      <trkpt lat="48.7666" lon="6.78442">
        <ele>214.2</ele>
        <time>2021-07-30T13:37:19Z</time>
      </trkpt>
      <trkpt lat="48.76658" lon="6.78446">
        <ele>214.2</ele>
        <time>2021-07-30T13:37:20Z</time>
      </trkpt>
      <trkpt lat="48.76658" lon="6.78448">
        <ele>214.2</ele>
        <time>2021-07-30T13:37:21Z</time>
      </trkpt>
      <trkpt lat="48.76657" lon="6.78452">
        <ele>214.2</ele>
        <time>2021-07-30T13:37:22Z</time>
      </trkpt>
      <trkpt lat="48.76656" lon="6.78457">
        <ele>214.3</ele>
        <time>2021-07-30T13:37:23Z</time>
      </trkpt>
      <trkpt lat="48.76655" lon="6.78461">
        <ele>214.3</ele>
        <time>2021-07-30T13:37:24Z</time>
      </trkpt>
      <trkpt lat="48.76653" lon="6.78467">
        <ele>214.4</ele>
        <time>2021-07-30T13:37:26Z</time>
      </trkpt>
      <trkpt lat="48.76651" lon="6.78473">
        <ele>214.4</ele>
        <time>2021-07-30T13:37:28Z</time>
      </trkpt>
      <trkpt lat="48.76649" lon="6.78477">
        <ele>214.5</ele>
        <time>2021-07-30T13:37:30Z</time>
      </trkpt>
      <trkpt lat="48.76649" lon="6.78479">
        <ele>214.5</ele>
        <time>2021-07-30T13:37:31Z</time>
      </trkpt>
      <trkpt lat="48.76648" lon="6.78479">
        <ele>214.5</ele>
        <time>2021-07-30T13:37:32Z</time>
      </trkpt>
      <trkpt lat="48.76648" lon="6.78481">
        <ele>214.5</ele>
        <time>2021-07-30T13:37:34Z</time>
      </trkpt>
      <trkpt lat="48.76647" lon="6.78482">
        <ele>214.5</ele>
        <time>2021-07-30T13:37:35Z</time>
      </trkpt>
      <trkpt lat="48.76647" lon="6.78483">
        <ele>214.6</ele>
        <time>2021-07-30T13:37:37Z</time>
      </trkpt>
      <trkpt lat="48.76646" lon="6.78486">
        <ele>214.6</ele>
        <time>2021-07-30T13:37:38Z</time>
      </trkpt>
      <trkpt lat="48.76646" lon="6.78488">
        <ele>214.6</ele>
        <time>2021-07-30T13:37:39Z</time>
      </trkpt>
      <trkpt lat="48.76646" lon="6.78489">
        <ele>214.6</ele>
        <time>2021-07-30T13:37:40Z</time>
      </trkpt>
      <trkpt lat="48.76646" lon="6.78492">
        <ele>214.6</ele>
        <time>2021-07-30T13:37:42Z</time>
      </trkpt>
      <trkpt lat="48.76646" lon="6.78497">
        <ele>214.6</ele>
        <time>2021-07-30T13:37:44Z</time>
      </trkpt>
      <trkpt lat="48.76646" lon="6.78498">
        <ele>214.6</ele>
        <time>2021-07-30T13:37:45Z</time>
      </trkpt>
      <trkpt lat="48.76646" lon="6.78501">
        <ele>214.6</ele>
        <time>2021-07-30T13:37:46Z</time>
      </trkpt>
      <trkpt lat="48.76645" lon="6.78504">
        <ele>214.7</ele>
        <time>2021-07-30T13:37:48Z</time>
      </trkpt>
      <trkpt lat="48.76641" lon="6.78529">
        <ele>215.1</ele>
        <time>2021-07-30T13:37:56Z</time>
      </trkpt>
      <trkpt lat="48.76641" lon="6.78536">
        <ele>215.2</ele>
        <time>2021-07-30T13:37:58Z</time>
      </trkpt>
      <trkpt lat="48.76641" lon="6.78543">
        <ele>215.3</ele>
        <time>2021-07-30T13:37:59Z</time>
      </trkpt>
      <trkpt lat="48.76642" lon="6.78547">
        <ele>215.3</ele>
        <time>2021-07-30T13:38:00Z</time>
      </trkpt>
      <trkpt lat="48.76643" lon="6.78551">
        <ele>215.4</ele>
        <time>2021-07-30T13:38:02Z</time>
      </trkpt>
      <trkpt lat="48.76643" lon="6.78555">
        <ele>215.4</ele>
        <time>2021-07-30T13:38:03Z</time>
      </trkpt>
      <trkpt lat="48.76643" lon="6.7856">
        <ele>215.5</ele>
        <time>2021-07-30T13:38:04Z</time>
      </trkpt>
      <trkpt lat="48.76643" lon="6.78564">
        <ele>215.6</ele>
        <time>2021-07-30T13:38:05Z</time>
      </trkpt>
      <trkpt lat="48.76643" lon="6.78569">
        <ele>215.6</ele>
        <time>2021-07-30T13:38:06Z</time>
      </trkpt>
      <trkpt lat="48.76644" lon="6.78576">
        <ele>215.7</ele>
        <time>2021-07-30T13:38:08Z</time>
      </trkpt>
      <trkpt lat="48.76644" lon="6.78581">
        <ele>215.8</ele>
        <time>2021-07-30T13:38:09Z</time>
      </trkpt>
      <trkpt lat="48.76644" lon="6.78583">
        <ele>215.9</ele>
        <time>2021-07-30T13:38:10Z</time>
      </trkpt>
      <trkpt lat="48.76643" lon="6.7859">
        <ele>216</ele>
        <time>2021-07-30T13:38:12Z</time>
      </trkpt>
      <trkpt lat="48.76642" lon="6.78593">
        <ele>216.1</ele>
        <time>2021-07-30T13:38:13Z</time>
      </trkpt>
      <trkpt lat="48.76641" lon="6.78599">
        <ele>216.2</ele>
        <time>2021-07-30T13:38:15Z</time>
      </trkpt>
      <trkpt lat="48.7664" lon="6.786">
        <ele>216.3</ele>
        <time>2021-07-30T13:38:16Z</time>
      </trkpt>
      <trkpt lat="48.7664" lon="6.78606">
        <ele>216.4</ele>
        <time>2021-07-30T13:38:17Z</time>
      </trkpt>
      <trkpt lat="48.7664" lon="6.78611">
        <ele>216.6</ele>
        <time>2021-07-30T13:38:19Z</time>
      </trkpt>
      <trkpt lat="48.7664" lon="6.78615">
        <ele>216.7</ele>
        <time>2021-07-30T13:38:20Z</time>
      </trkpt>
      <trkpt lat="48.7664" lon="6.78619">
        <ele>216.8</ele>
        <time>2021-07-30T13:38:22Z</time>
      </trkpt>
      <trkpt lat="48.7664" lon="6.78624">
        <ele>216.9</ele>
        <time>2021-07-30T13:38:23Z</time>
      </trkpt>
      <trkpt lat="48.7664" lon="6.78626">
        <ele>217</ele>
        <time>2021-07-30T13:38:24Z</time>
      </trkpt>
      <trkpt lat="48.76639" lon="6.7863">
        <ele>217</ele>
        <time>2021-07-30T13:38:25Z</time>
      </trkpt>
      <trkpt lat="48.76638" lon="6.78634">
        <ele>217.1</ele>
        <time>2021-07-30T13:38:27Z</time>
      </trkpt>
      <trkpt lat="48.76637" lon="6.7864">
        <ele>217.1</ele>
        <time>2021-07-30T13:38:28Z</time>
      </trkpt>
      <trkpt lat="48.76636" lon="6.78647">
        <ele>217.1</ele>
        <time>2021-07-30T13:38:30Z</time>
      </trkpt>
      <trkpt lat="48.76636" lon="6.78651">
        <ele>217.1</ele>
        <time>2021-07-30T13:38:31Z</time>
      </trkpt>
      <trkpt lat="48.76636" lon="6.78654">
        <ele>217</ele>
        <time>2021-07-30T13:38:32Z</time>
      </trkpt>
      <trkpt lat="48.76635" lon="6.78657">
        <ele>216.9</ele>
        <time>2021-07-30T13:38:33Z</time>
      </trkpt>
      <trkpt lat="48.76634" lon="6.78663">
        <ele>216.8</ele>
        <time>2021-07-30T13:38:35Z</time>
      </trkpt>
      <trkpt lat="48.76634" lon="6.78666">
        <ele>216.8</ele>
        <time>2021-07-30T13:38:36Z</time>
      </trkpt>
      <trkpt lat="48.76633" lon="6.78671">
        <ele>216.7</ele>
        <time>2021-07-30T13:38:38Z</time>
      </trkpt>
      <trkpt lat="48.76633" lon="6.78675">
        <ele>216.5</ele>
        <time>2021-07-30T13:38:39Z</time>
      </trkpt>
      <trkpt lat="48.76632" lon="6.78683">
        <ele>216.3</ele>
        <time>2021-07-30T13:38:40Z</time>
      </trkpt>
      <trkpt lat="48.76631" lon="6.78693">
        <ele>216</ele>
        <time>2021-07-30T13:38:41Z</time>
      </trkpt>
      <trkpt lat="48.7663" lon="6.78703">
        <ele>215.6</ele>
        <time>2021-07-30T13:38:42Z</time>
      </trkpt>
      <trkpt lat="48.76628" lon="6.78722">
        <ele>214.7</ele>
        <time>2021-07-30T13:38:44Z</time>
      </trkpt>
      <trkpt lat="48.76625" lon="6.78744">
        <ele>214</ele>
        <time>2021-07-30T13:38:46Z</time>
      </trkpt>
      <trkpt lat="48.76623" lon="6.78767">
        <ele>213.5</ele>
        <time>2021-07-30T13:38:48Z</time>
      </trkpt>
      <trkpt lat="48.76621" lon="6.78779">
        <ele>213.2</ele>
        <time>2021-07-30T13:38:49Z</time>
      </trkpt>
      <trkpt lat="48.7662" lon="6.78791">
        <ele>213</ele>
        <time>2021-07-30T13:38:50Z</time>
      </trkpt>
      <trkpt lat="48.76619" lon="6.78815">
        <ele>212.7</ele>
        <time>2021-07-30T13:38:52Z</time>
      </trkpt>
      <trkpt lat="48.76618" lon="6.78838">
        <ele>212.2</ele>
        <time>2021-07-30T13:38:54Z</time>
      </trkpt>
      <trkpt lat="48.76617" lon="6.7886">
        <ele>211.7</ele>
        <time>2021-07-30T13:38:56Z</time>
      </trkpt>
      <trkpt lat="48.76617" lon="6.78878">
        <ele>211.7</ele>
        <time>2021-07-30T13:38:58Z</time>
      </trkpt>
      <trkpt lat="48.76617" lon="6.78888">
        <ele>211.7</ele>
        <time>2021-07-30T13:38:59Z</time>
      </trkpt>
      <trkpt lat="48.76618" lon="6.78896">
        <ele>211.8</ele>
        <time>2021-07-30T13:39:00Z</time>
      </trkpt>
      <trkpt lat="48.7662" lon="6.78913">
        <ele>211.9</ele>
        <time>2021-07-30T13:39:02Z</time>
      </trkpt>
      <trkpt lat="48.76623" lon="6.78928">
        <ele>212.1</ele>
        <time>2021-07-30T13:39:04Z</time>
      </trkpt>
      <trkpt lat="48.76627" lon="6.78942">
        <ele>212</ele>
        <time>2021-07-30T13:39:06Z</time>
      </trkpt>
      <trkpt lat="48.76632" lon="6.78954">
        <ele>211.9</ele>
        <time>2021-07-30T13:39:08Z</time>
      </trkpt>
      <trkpt lat="48.76638" lon="6.78965">
        <ele>211.8</ele>
        <time>2021-07-30T13:39:10Z</time>
      </trkpt>
      <trkpt lat="48.7664" lon="6.78971">
        <ele>211.8</ele>
        <time>2021-07-30T13:39:11Z</time>
      </trkpt>
      <trkpt lat="48.76642" lon="6.78975">
        <ele>211.8</ele>
        <time>2021-07-30T13:39:12Z</time>
      </trkpt>
      <trkpt lat="48.76646" lon="6.78985">
        <ele>211.9</ele>
        <time>2021-07-30T13:39:14Z</time>
      </trkpt>
      <trkpt lat="48.76651" lon="6.78996">
        <ele>212.1</ele>
        <time>2021-07-30T13:39:16Z</time>
      </trkpt>
      <trkpt lat="48.76657" lon="6.79008">
        <ele>212.5</ele>
        <time>2021-07-30T13:39:18Z</time>
      </trkpt>
      <trkpt lat="48.76657" lon="6.79013">
        <ele>212.7</ele>
        <time>2021-07-30T13:39:20Z</time>
      </trkpt>
      <trkpt lat="48.76662" lon="6.7902">
        <ele>213.1</ele>
        <time>2021-07-30T13:39:21Z</time>
      </trkpt>
      <trkpt lat="48.76667" lon="6.79026">
        <ele>213.4</ele>
        <time>2021-07-30T13:39:23Z</time>
      </trkpt>
      <trkpt lat="48.76672" lon="6.79033">
        <ele>213.8</ele>
        <time>2021-07-30T13:39:24Z</time>
      </trkpt>
      <trkpt lat="48.76675" lon="6.79038">
        <ele>213.9</ele>
        <time>2021-07-30T13:39:25Z</time>
      </trkpt>
      <trkpt lat="48.76678" lon="6.79043">
        <ele>214.1</ele>
        <time>2021-07-30T13:39:27Z</time>
      </trkpt>
      <trkpt lat="48.7668" lon="6.79048">
        <ele>214.3</ele>
        <time>2021-07-30T13:39:28Z</time>
      </trkpt>
      <trkpt lat="48.76682" lon="6.79063">
        <ele>214.7</ele>
        <time>2021-07-30T13:39:29Z</time>
      </trkpt>
      <trkpt lat="48.76683" lon="6.79067">
        <ele>214.8</ele>
        <time>2021-07-30T13:39:30Z</time>
      </trkpt>
      <trkpt lat="48.76687" lon="6.79077">
        <ele>215.1</ele>
        <time>2021-07-30T13:39:32Z</time>
      </trkpt>
      <trkpt lat="48.7669" lon="6.79084">
        <ele>215.3</ele>
        <time>2021-07-30T13:39:34Z</time>
      </trkpt>
      <trkpt lat="48.76691" lon="6.79093">
        <ele>215.5</ele>
        <time>2021-07-30T13:39:36Z</time>
      </trkpt>
      <trkpt lat="48.76693" lon="6.79099">
        <ele>215.6</ele>
        <time>2021-07-30T13:39:37Z</time>
      </trkpt>
      <trkpt lat="48.76695" lon="6.79106">
        <ele>215.8</ele>
        <time>2021-07-30T13:39:38Z</time>
      </trkpt>
      <trkpt lat="48.76697" lon="6.79111">
        <ele>215.9</ele>
        <time>2021-07-30T13:39:40Z</time>
      </trkpt>
      <trkpt lat="48.76699" lon="6.79117">
        <ele>216</ele>
        <time>2021-07-30T13:39:41Z</time>
      </trkpt>
      <trkpt lat="48.767" lon="6.79123">
        <ele>216.2</ele>
        <time>2021-07-30T13:39:43Z</time>
      </trkpt>
      <trkpt lat="48.76699" lon="6.79127">
        <ele>216.2</ele>
        <time>2021-07-30T13:39:44Z</time>
      </trkpt>
      <trkpt lat="48.76699" lon="6.79134">
        <ele>216.4</ele>
        <time>2021-07-30T13:39:46Z</time>
      </trkpt>
      <trkpt lat="48.76699" lon="6.7914">
        <ele>216.5</ele>
        <time>2021-07-30T13:39:48Z</time>
      </trkpt>
      <trkpt lat="48.76698" lon="6.79147">
        <ele>216.6</ele>
        <time>2021-07-30T13:39:49Z</time>
      </trkpt>
      <trkpt lat="48.76697" lon="6.7915">
        <ele>216.7</ele>
        <time>2021-07-30T13:39:50Z</time>
      </trkpt>
      <trkpt lat="48.76697" lon="6.79156">
        <ele>216.8</ele>
        <time>2021-07-30T13:39:52Z</time>
      </trkpt>
      <trkpt lat="48.76697" lon="6.7916">
        <ele>216.9</ele>
        <time>2021-07-30T13:39:53Z</time>
      </trkpt>
      <trkpt lat="48.76697" lon="6.79164">
        <ele>217</ele>
        <time>2021-07-30T13:39:54Z</time>
      </trkpt>
      <trkpt lat="48.76697" lon="6.79168">
        <ele>217</ele>
        <time>2021-07-30T13:39:55Z</time>
      </trkpt>
      <trkpt lat="48.76697" lon="6.7917">
        <ele>217.1</ele>
        <time>2021-07-30T13:39:56Z</time>
      </trkpt>
      <trkpt lat="48.76697" lon="6.79175">
        <ele>217.2</ele>
        <time>2021-07-30T13:39:58Z</time>
      </trkpt>
      <trkpt lat="48.76696" lon="6.79179">
        <ele>217.2</ele>
        <time>2021-07-30T13:39:59Z</time>
      </trkpt>
      <trkpt lat="48.76696" lon="6.79183">
        <ele>217.3</ele>
        <time>2021-07-30T13:40:00Z</time>
      </trkpt>
      <trkpt lat="48.76696" lon="6.79191">
        <ele>217.5</ele>
        <time>2021-07-30T13:40:01Z</time>
      </trkpt>
      <trkpt lat="48.76695" lon="6.79196">
        <ele>217.6</ele>
        <time>2021-07-30T13:40:02Z</time>
      </trkpt>
      <trkpt lat="48.76695" lon="6.79203">
        <ele>217.7</ele>
        <time>2021-07-30T13:40:03Z</time>
      </trkpt>
      <trkpt lat="48.76696" lon="6.79208">
        <ele>217.8</ele>
        <time>2021-07-30T13:40:05Z</time>
      </trkpt>
      <trkpt lat="48.76696" lon="6.79212">
        <ele>217.8</ele>
        <time>2021-07-30T13:40:06Z</time>
      </trkpt>
      <trkpt lat="48.76697" lon="6.79219">
        <ele>218</ele>
        <time>2021-07-30T13:40:07Z</time>
      </trkpt>
      <trkpt lat="48.76697" lon="6.79222">
        <ele>218</ele>
        <time>2021-07-30T13:40:08Z</time>
      </trkpt>
      <trkpt lat="48.76697" lon="6.79226">
        <ele>218.1</ele>
        <time>2021-07-30T13:40:09Z</time>
      </trkpt>
      <trkpt lat="48.76698" lon="6.79232">
        <ele>218.2</ele>
        <time>2021-07-30T13:40:11Z</time>
      </trkpt>
      <trkpt lat="48.76699" lon="6.79238">
        <ele>218.2</ele>
        <time>2021-07-30T13:40:12Z</time>
      </trkpt>
      <trkpt lat="48.76699" lon="6.79239">
        <ele>218.3</ele>
        <time>2021-07-30T13:40:13Z</time>
      </trkpt>
      <trkpt lat="48.76699" lon="6.79242">
        <ele>218.3</ele>
        <time>2021-07-30T13:40:14Z</time>
      </trkpt>
      <trkpt lat="48.767" lon="6.79247">
        <ele>218.3</ele>
        <time>2021-07-30T13:40:16Z</time>
      </trkpt>
      <trkpt lat="48.767" lon="6.79252">
        <ele>218.4</ele>
        <time>2021-07-30T13:40:17Z</time>
      </trkpt>
      <trkpt lat="48.76701" lon="6.79256">
        <ele>218.4</ele>
        <time>2021-07-30T13:40:18Z</time>
      </trkpt>
      <trkpt lat="48.76701" lon="6.7926">
        <ele>218.5</ele>
        <time>2021-07-30T13:40:19Z</time>
      </trkpt>
      <trkpt lat="48.76701" lon="6.79264">
        <ele>218.5</ele>
        <time>2021-07-30T13:40:20Z</time>
      </trkpt>
      <trkpt lat="48.76701" lon="6.79268">
        <ele>218.5</ele>
        <time>2021-07-30T13:40:22Z</time>
      </trkpt>
      <trkpt lat="48.76701" lon="6.79273">
        <ele>218.6</ele>
        <time>2021-07-30T13:40:23Z</time>
      </trkpt>
      <trkpt lat="48.767" lon="6.79279">
        <ele>218.7</ele>
        <time>2021-07-30T13:40:24Z</time>
      </trkpt>
      <trkpt lat="48.767" lon="6.79284">
        <ele>218.8</ele>
        <time>2021-07-30T13:40:25Z</time>
      </trkpt>
      <trkpt lat="48.767" lon="6.79288">
        <ele>218.8</ele>
        <time>2021-07-30T13:40:26Z</time>
      </trkpt>
      <trkpt lat="48.767" lon="6.79296">
        <ele>219</ele>
        <time>2021-07-30T13:40:28Z</time>
      </trkpt>
      <trkpt lat="48.767" lon="6.79298">
        <ele>219</ele>
        <time>2021-07-30T13:40:29Z</time>
      </trkpt>
      <trkpt lat="48.767" lon="6.793">
        <ele>219</ele>
        <time>2021-07-30T13:40:30Z</time>
      </trkpt>
      <trkpt lat="48.767" lon="6.79304">
        <ele>219.1</ele>
        <time>2021-07-30T13:40:31Z</time>
      </trkpt>
      <trkpt lat="48.767" lon="6.79309">
        <ele>219.1</ele>
        <time>2021-07-30T13:40:32Z</time>
      </trkpt>
      <trkpt lat="48.767" lon="6.79314">
        <ele>219.2</ele>
        <time>2021-07-30T13:40:33Z</time>
      </trkpt>
      <trkpt lat="48.767" lon="6.79315">
        <ele>219.2</ele>
        <time>2021-07-30T13:40:34Z</time>
      </trkpt>
      <trkpt lat="48.76701" lon="6.7932">
        <ele>219.3</ele>
        <time>2021-07-30T13:40:35Z</time>
      </trkpt>
      <trkpt lat="48.76701" lon="6.79322">
        <ele>219.3</ele>
        <time>2021-07-30T13:40:36Z</time>
      </trkpt>
      <trkpt lat="48.76702" lon="6.79329">
        <ele>219.4</ele>
        <time>2021-07-30T13:40:38Z</time>
      </trkpt>
      <trkpt lat="48.76702" lon="6.79332">
        <ele>219.4</ele>
        <time>2021-07-30T13:40:39Z</time>
      </trkpt>
      <trkpt lat="48.76703" lon="6.79334">
        <ele>219.5</ele>
        <time>2021-07-30T13:40:40Z</time>
      </trkpt>
      <trkpt lat="48.76704" lon="6.7934">
        <ele>219.6</ele>
        <time>2021-07-30T13:40:41Z</time>
      </trkpt>
      <trkpt lat="48.76705" lon="6.79342">
        <ele>219.6</ele>
        <time>2021-07-30T13:40:42Z</time>
      </trkpt>
      <trkpt lat="48.76706" lon="6.79347">
        <ele>219.7</ele>
        <time>2021-07-30T13:40:44Z</time>
      </trkpt>
      <trkpt lat="48.76706" lon="6.79349">
        <ele>219.7</ele>
        <time>2021-07-30T13:40:45Z</time>
      </trkpt>
      <trkpt lat="48.76707" lon="6.79354">
        <ele>219.8</ele>
        <time>2021-07-30T13:40:46Z</time>
      </trkpt>
      <trkpt lat="48.76708" lon="6.79355">
        <ele>219.8</ele>
        <time>2021-07-30T13:40:47Z</time>
      </trkpt>
      <trkpt lat="48.76709" lon="6.7936">
        <ele>219.8</ele>
        <time>2021-07-30T13:40:49Z</time>
      </trkpt>
      <trkpt lat="48.7671" lon="6.79366">
        <ele>219.8</ele>
        <time>2021-07-30T13:40:50Z</time>
      </trkpt>
      <trkpt lat="48.76711" lon="6.79373">
        <ele>219.9</ele>
        <time>2021-07-30T13:40:52Z</time>
      </trkpt>
      <trkpt lat="48.76712" lon="6.79379">
        <ele>219.9</ele>
        <time>2021-07-30T13:40:53Z</time>
      </trkpt>
      <trkpt lat="48.76712" lon="6.79384">
        <ele>219.9</ele>
        <time>2021-07-30T13:40:54Z</time>
      </trkpt>
      <trkpt lat="48.76712" lon="6.79388">
        <ele>220</ele>
        <time>2021-07-30T13:40:55Z</time>
      </trkpt>
      <trkpt lat="48.76714" lon="6.79396">
        <ele>220.1</ele>
        <time>2021-07-30T13:40:57Z</time>
      </trkpt>
      <trkpt lat="48.76715" lon="6.79401">
        <ele>220.1</ele>
        <time>2021-07-30T13:40:58Z</time>
      </trkpt>
      <trkpt lat="48.76716" lon="6.79405">
        <ele>220.2</ele>
        <time>2021-07-30T13:40:59Z</time>
      </trkpt>
      <trkpt lat="48.76717" lon="6.7941">
        <ele>220.2</ele>
        <time>2021-07-30T13:41:00Z</time>
      </trkpt>
      <trkpt lat="48.76717" lon="6.79415">
        <ele>220.3</ele>
        <time>2021-07-30T13:41:02Z</time>
      </trkpt>
      <trkpt lat="48.76717" lon="6.7942">
        <ele>220.3</ele>
        <time>2021-07-30T13:41:03Z</time>
      </trkpt>
      <trkpt lat="48.76718" lon="6.79425">
        <ele>220.4</ele>
        <time>2021-07-30T13:41:04Z</time>
      </trkpt>
      <trkpt lat="48.76719" lon="6.79431">
        <ele>220.4</ele>
        <time>2021-07-30T13:41:05Z</time>
      </trkpt>
      <trkpt lat="48.7672" lon="6.79436">
        <ele>220.4</ele>
        <time>2021-07-30T13:41:06Z</time>
      </trkpt>
      <trkpt lat="48.7672" lon="6.79443">
        <ele>220.4</ele>
        <time>2021-07-30T13:41:08Z</time>
      </trkpt>
      <trkpt lat="48.7672" lon="6.7945">
        <ele>220.4</ele>
        <time>2021-07-30T13:41:09Z</time>
      </trkpt>
      <trkpt lat="48.7672" lon="6.79456">
        <ele>220.4</ele>
        <time>2021-07-30T13:41:10Z</time>
      </trkpt>
      <trkpt lat="48.76721" lon="6.79462">
        <ele>220.4</ele>
        <time>2021-07-30T13:41:11Z</time>
      </trkpt>
      <trkpt lat="48.76722" lon="6.79464">
        <ele>220.4</ele>
        <time>2021-07-30T13:41:12Z</time>
      </trkpt>
      <trkpt lat="48.76722" lon="6.7947">
        <ele>220.4</ele>
        <time>2021-07-30T13:41:14Z</time>
      </trkpt>
      <trkpt lat="48.76723" lon="6.79475">
        <ele>220.5</ele>
        <time>2021-07-30T13:41:15Z</time>
      </trkpt>
      <trkpt lat="48.76723" lon="6.79479">
        <ele>220.5</ele>
        <time>2021-07-30T13:41:16Z</time>
      </trkpt>
      <trkpt lat="48.76724" lon="6.79483">
        <ele>220.5</ele>
        <time>2021-07-30T13:41:17Z</time>
      </trkpt>
      <trkpt lat="48.76725" lon="6.79489">
        <ele>220.5</ele>
        <time>2021-07-30T13:41:19Z</time>
      </trkpt>
      <trkpt lat="48.76725" lon="6.79493">
        <ele>220.5</ele>
        <time>2021-07-30T13:41:20Z</time>
      </trkpt>
      <trkpt lat="48.76726" lon="6.79499">
        <ele>220.5</ele>
        <time>2021-07-30T13:41:21Z</time>
      </trkpt>
      <trkpt lat="48.76727" lon="6.79507">
        <ele>220.6</ele>
        <time>2021-07-30T13:41:23Z</time>
      </trkpt>
      <trkpt lat="48.76728" lon="6.79514">
        <ele>220.6</ele>
        <time>2021-07-30T13:41:25Z</time>
      </trkpt>
      <trkpt lat="48.76729" lon="6.79519">
        <ele>220.6</ele>
        <time>2021-07-30T13:41:26Z</time>
      </trkpt>
      <trkpt lat="48.7673" lon="6.79524">
        <ele>220.6</ele>
        <time>2021-07-30T13:41:27Z</time>
      </trkpt>
      <trkpt lat="48.76731" lon="6.7953">
        <ele>220.5</ele>
        <time>2021-07-30T13:41:28Z</time>
      </trkpt>
      <trkpt lat="48.76732" lon="6.79535">
        <ele>220.5</ele>
        <time>2021-07-30T13:41:29Z</time>
      </trkpt>
      <trkpt lat="48.76733" lon="6.7954">
        <ele>220.5</ele>
        <time>2021-07-30T13:41:30Z</time>
      </trkpt>
      <trkpt lat="48.76734" lon="6.79547">
        <ele>220.4</ele>
        <time>2021-07-30T13:41:32Z</time>
      </trkpt>
      <trkpt lat="48.76734" lon="6.79555">
        <ele>220.4</ele>
        <time>2021-07-30T13:41:33Z</time>
      </trkpt>
      <trkpt lat="48.76735" lon="6.7956">
        <ele>220.4</ele>
        <time>2021-07-30T13:41:34Z</time>
      </trkpt>
      <trkpt lat="48.76735" lon="6.79565">
        <ele>220.5</ele>
        <time>2021-07-30T13:41:35Z</time>
      </trkpt>
      <trkpt lat="48.76733" lon="6.79575">
        <ele>220.5</ele>
        <time>2021-07-30T13:41:37Z</time>
      </trkpt>
      <trkpt lat="48.76733" lon="6.79579">
        <ele>220.5</ele>
        <time>2021-07-30T13:41:38Z</time>
      </trkpt>
      <trkpt lat="48.76734" lon="6.79586">
        <ele>220.5</ele>
        <time>2021-07-30T13:41:40Z</time>
      </trkpt>
      <trkpt lat="48.76736" lon="6.79593">
        <ele>220.5</ele>
        <time>2021-07-30T13:41:41Z</time>
      </trkpt>
      <trkpt lat="48.76737" lon="6.79598">
        <ele>220.5</ele>
        <time>2021-07-30T13:41:42Z</time>
      </trkpt>
      <trkpt lat="48.76738" lon="6.79602">
        <ele>220.5</ele>
        <time>2021-07-30T13:41:43Z</time>
      </trkpt>
      <trkpt lat="48.7674" lon="6.79608">
        <ele>220.5</ele>
        <time>2021-07-30T13:41:45Z</time>
      </trkpt>
      <trkpt lat="48.76741" lon="6.79616">
        <ele>220.5</ele>
        <time>2021-07-30T13:41:46Z</time>
      </trkpt>
      <trkpt lat="48.76744" lon="6.79624">
        <ele>220.5</ele>
        <time>2021-07-30T13:41:48Z</time>
      </trkpt>
      <trkpt lat="48.76745" lon="6.7963">
        <ele>220.5</ele>
        <time>2021-07-30T13:41:49Z</time>
      </trkpt>
      <trkpt lat="48.76745" lon="6.79635">
        <ele>220.5</ele>
        <time>2021-07-30T13:41:50Z</time>
      </trkpt>
      <trkpt lat="48.76748" lon="6.79643">
        <ele>220.4</ele>
        <time>2021-07-30T13:41:52Z</time>
      </trkpt>
      <trkpt lat="48.76748" lon="6.79647">
        <ele>220.3</ele>
        <time>2021-07-30T13:41:53Z</time>
      </trkpt>
      <trkpt lat="48.76751" lon="6.79656">
        <ele>220.2</ele>
        <time>2021-07-30T13:41:55Z</time>
      </trkpt>
      <trkpt lat="48.76753" lon="6.79659">
        <ele>220.1</ele>
        <time>2021-07-30T13:41:56Z</time>
      </trkpt>
      <trkpt lat="48.76756" lon="6.79667">
        <ele>220</ele>
        <time>2021-07-30T13:41:58Z</time>
      </trkpt>
      <trkpt lat="48.76757" lon="6.79672">
        <ele>219.9</ele>
        <time>2021-07-30T13:41:59Z</time>
      </trkpt>
      <trkpt lat="48.76761" lon="6.79679">
        <ele>219.8</ele>
        <time>2021-07-30T13:42:01Z</time>
      </trkpt>
      <trkpt lat="48.76763" lon="6.79684">
        <ele>219.6</ele>
        <time>2021-07-30T13:42:02Z</time>
      </trkpt>
      <trkpt lat="48.76764" lon="6.79691">
        <ele>219.5</ele>
        <time>2021-07-30T13:42:03Z</time>
      </trkpt>
      <trkpt lat="48.76767" lon="6.79699">
        <ele>219.4</ele>
        <time>2021-07-30T13:42:05Z</time>
      </trkpt>
      <trkpt lat="48.76768" lon="6.79707">
        <ele>219.3</ele>
        <time>2021-07-30T13:42:06Z</time>
      </trkpt>
      <trkpt lat="48.7677" lon="6.79716">
        <ele>219.2</ele>
        <time>2021-07-30T13:42:08Z</time>
      </trkpt>
      <trkpt lat="48.76771" lon="6.79721">
        <ele>219.1</ele>
        <time>2021-07-30T13:42:10Z</time>
      </trkpt>
      <trkpt lat="48.76772" lon="6.79726">
        <ele>219</ele>
        <time>2021-07-30T13:42:11Z</time>
      </trkpt>
      <trkpt lat="48.76773" lon="6.79732">
        <ele>219</ele>
        <time>2021-07-30T13:42:12Z</time>
      </trkpt>
      <trkpt lat="48.76776" lon="6.79739">
        <ele>218.9</ele>
        <time>2021-07-30T13:42:14Z</time>
      </trkpt>
      <trkpt lat="48.76776" lon="6.79748">
        <ele>218.9</ele>
        <time>2021-07-30T13:42:16Z</time>
      </trkpt>
      <trkpt lat="48.76774" lon="6.79752">
        <ele>218.8</ele>
        <time>2021-07-30T13:42:17Z</time>
      </trkpt>
      <trkpt lat="48.76772" lon="6.79756">
        <ele>218.7</ele>
        <time>2021-07-30T13:42:18Z</time>
      </trkpt>
      <trkpt lat="48.76768" lon="6.79764">
        <ele>218.5</ele>
        <time>2021-07-30T13:42:20Z</time>
      </trkpt>
      <trkpt lat="48.76764" lon="6.79773">
        <ele>218.2</ele>
        <time>2021-07-30T13:42:22Z</time>
      </trkpt>
      <trkpt lat="48.76763" lon="6.79783">
        <ele>217.9</ele>
        <time>2021-07-30T13:42:24Z</time>
      </trkpt>
      <trkpt lat="48.76763" lon="6.79792">
        <ele>217.6</ele>
        <time>2021-07-30T13:42:25Z</time>
      </trkpt>
      <trkpt lat="48.76762" lon="6.79799">
        <ele>217.4</ele>
        <time>2021-07-30T13:42:26Z</time>
      </trkpt>
      <trkpt lat="48.76757" lon="6.79817">
        <ele>216.9</ele>
        <time>2021-07-30T13:42:28Z</time>
      </trkpt>
      <trkpt lat="48.76755" lon="6.79825">
        <ele>216.7</ele>
        <time>2021-07-30T13:42:29Z</time>
      </trkpt>
      <trkpt lat="48.76753" lon="6.79833">
        <ele>216.5</ele>
        <time>2021-07-30T13:42:30Z</time>
      </trkpt>
      <trkpt lat="48.76748" lon="6.79851">
        <ele>216.1</ele>
        <time>2021-07-30T13:42:32Z</time>
      </trkpt>
      <trkpt lat="48.76744" lon="6.79871">
        <ele>215.9</ele>
        <time>2021-07-30T13:42:34Z</time>
      </trkpt>
      <trkpt lat="48.76737" lon="6.79888">
        <ele>215.7</ele>
        <time>2021-07-30T13:42:36Z</time>
      </trkpt>
      <trkpt lat="48.7673" lon="6.79904">
        <ele>215.7</ele>
        <time>2021-07-30T13:42:38Z</time>
      </trkpt>
      <trkpt lat="48.76726" lon="6.79912">
        <ele>215.8</ele>
        <time>2021-07-30T13:42:39Z</time>
      </trkpt>
      <trkpt lat="48.76715" lon="6.79924">
        <ele>215.9</ele>
        <time>2021-07-30T13:42:41Z</time>
      </trkpt>
      <trkpt lat="48.76703" lon="6.79934">
        <ele>217.1</ele>
        <time>2021-07-30T13:42:43Z</time>
      </trkpt>
      <trkpt lat="48.76697" lon="6.79938">
        <ele>217.5</ele>
        <time>2021-07-30T13:42:44Z</time>
      </trkpt>
      <trkpt lat="48.76685" lon="6.79946">
        <ele>217.8</ele>
        <time>2021-07-30T13:42:46Z</time>
      </trkpt>
      <trkpt lat="48.76679" lon="6.79948">
        <ele>217.8</ele>
        <time>2021-07-30T13:42:47Z</time>
      </trkpt>
      <trkpt lat="48.76667" lon="6.79949">
        <ele>217.9</ele>
        <time>2021-07-30T13:42:49Z</time>
      </trkpt>
      <trkpt lat="48.76662" lon="6.7995">
        <ele>217.9</ele>
        <time>2021-07-30T13:42:50Z</time>
      </trkpt>
      <trkpt lat="48.76651" lon="6.7995">
        <ele>218</ele>
        <time>2021-07-30T13:42:52Z</time>
      </trkpt>
      <trkpt lat="48.76646" lon="6.7995">
        <ele>218</ele>
        <time>2021-07-30T13:42:53Z</time>
      </trkpt>
      <trkpt lat="48.76643" lon="6.7995">
        <ele>218</ele>
        <time>2021-07-30T13:42:54Z</time>
      </trkpt>
      <trkpt lat="48.76634" lon="6.79949">
        <ele>218</ele>
        <time>2021-07-30T13:42:56Z</time>
      </trkpt>
      <trkpt lat="48.76624" lon="6.7995">
        <ele>218</ele>
        <time>2021-07-30T13:42:58Z</time>
      </trkpt>
      <trkpt lat="48.7662" lon="6.79951">
        <ele>218</ele>
        <time>2021-07-30T13:42:59Z</time>
      </trkpt>
      <trkpt lat="48.76616" lon="6.79952">
        <ele>218</ele>
        <time>2021-07-30T13:43:00Z</time>
      </trkpt>
      <trkpt lat="48.7661" lon="6.79953">
        <ele>218</ele>
        <time>2021-07-30T13:43:02Z</time>
      </trkpt>
      <trkpt lat="48.76606" lon="6.79954">
        <ele>218</ele>
        <time>2021-07-30T13:43:03Z</time>
      </trkpt>
      <trkpt lat="48.76601" lon="6.79956">
        <ele>218</ele>
        <time>2021-07-30T13:43:04Z</time>
      </trkpt>
      <trkpt lat="48.76597" lon="6.79957">
        <ele>218</ele>
        <time>2021-07-30T13:43:05Z</time>
      </trkpt>
      <trkpt lat="48.76592" lon="6.79957">
        <ele>218</ele>
        <time>2021-07-30T13:43:06Z</time>
      </trkpt>
      <trkpt lat="48.76588" lon="6.79957">
        <ele>218</ele>
        <time>2021-07-30T13:43:07Z</time>
      </trkpt>
      <trkpt lat="48.76584" lon="6.79958">
        <ele>218</ele>
        <time>2021-07-30T13:43:08Z</time>
      </trkpt>
      <trkpt lat="48.7658" lon="6.79958">
        <ele>218</ele>
        <time>2021-07-30T13:43:09Z</time>
      </trkpt>
      <trkpt lat="48.76575" lon="6.79959">
        <ele>218</ele>
        <time>2021-07-30T13:43:11Z</time>
      </trkpt>
      <trkpt lat="48.7657" lon="6.79959">
        <ele>218</ele>
        <time>2021-07-30T13:43:12Z</time>
      </trkpt>
      <trkpt lat="48.76565" lon="6.7996">
        <ele>218.1</ele>
        <time>2021-07-30T13:43:14Z</time>
      </trkpt>
      <trkpt lat="48.76561" lon="6.79962">
        <ele>218.1</ele>
        <time>2021-07-30T13:43:15Z</time>
      </trkpt>
      <trkpt lat="48.76558" lon="6.79963">
        <ele>218.1</ele>
        <time>2021-07-30T13:43:16Z</time>
      </trkpt>
      <trkpt lat="48.76554" lon="6.79965">
        <ele>218.1</ele>
        <time>2021-07-30T13:43:17Z</time>
      </trkpt>
      <trkpt lat="48.76549" lon="6.79965">
        <ele>218.1</ele>
        <time>2021-07-30T13:43:18Z</time>
      </trkpt>
      <trkpt lat="48.76542" lon="6.79967">
        <ele>218.1</ele>
        <time>2021-07-30T13:43:20Z</time>
      </trkpt>
      <trkpt lat="48.76539" lon="6.79969">
        <ele>218.1</ele>
        <time>2021-07-30T13:43:21Z</time>
      </trkpt>
      <trkpt lat="48.76535" lon="6.7997">
        <ele>218.1</ele>
        <time>2021-07-30T13:43:22Z</time>
      </trkpt>
      <trkpt lat="48.76532" lon="6.79971">
        <ele>218.1</ele>
        <time>2021-07-30T13:43:23Z</time>
      </trkpt>
      <trkpt lat="48.76527" lon="6.79972">
        <ele>218.1</ele>
        <time>2021-07-30T13:43:25Z</time>
      </trkpt>
      <trkpt lat="48.76524" lon="6.79973">
        <ele>218.1</ele>
        <time>2021-07-30T13:43:26Z</time>
      </trkpt>
      <trkpt lat="48.7652" lon="6.79975">
        <ele>218.1</ele>
        <time>2021-07-30T13:43:27Z</time>
      </trkpt>
      <trkpt lat="48.76515" lon="6.79976">
        <ele>218.1</ele>
        <time>2021-07-30T13:43:28Z</time>
      </trkpt>
      <trkpt lat="48.76509" lon="6.79979">
        <ele>218.1</ele>
        <time>2021-07-30T13:43:30Z</time>
      </trkpt>
      <trkpt lat="48.76505" lon="6.79981">
        <ele>218</ele>
        <time>2021-07-30T13:43:31Z</time>
      </trkpt>
      <trkpt lat="48.76502" lon="6.79982">
        <ele>218</ele>
        <time>2021-07-30T13:43:32Z</time>
      </trkpt>
      <trkpt lat="48.76497" lon="6.79983">
        <ele>218</ele>
        <time>2021-07-30T13:43:34Z</time>
      </trkpt>
      <trkpt lat="48.76494" lon="6.79984">
        <ele>218</ele>
        <time>2021-07-30T13:43:35Z</time>
      </trkpt>
      <trkpt lat="48.76491" lon="6.79984">
        <ele>218</ele>
        <time>2021-07-30T13:43:36Z</time>
      </trkpt>
      <trkpt lat="48.76487" lon="6.79985">
        <ele>217.9</ele>
        <time>2021-07-30T13:43:37Z</time>
      </trkpt>
      <trkpt lat="48.76484" lon="6.79986">
        <ele>217.9</ele>
        <time>2021-07-30T13:43:38Z</time>
      </trkpt>
      <trkpt lat="48.76481" lon="6.79988">
        <ele>217.9</ele>
        <time>2021-07-30T13:43:39Z</time>
      </trkpt>
      <trkpt lat="48.76477" lon="6.79989">
        <ele>217.8</ele>
        <time>2021-07-30T13:43:40Z</time>
      </trkpt>
      <trkpt lat="48.76474" lon="6.79991">
        <ele>217.8</ele>
        <time>2021-07-30T13:43:41Z</time>
      </trkpt>
      <trkpt lat="48.7647" lon="6.79994">
        <ele>217.7</ele>
        <time>2021-07-30T13:43:42Z</time>
      </trkpt>
      <trkpt lat="48.76466" lon="6.79996">
        <ele>217.7</ele>
        <time>2021-07-30T13:43:43Z</time>
      </trkpt>
      <trkpt lat="48.76463" lon="6.79998">
        <ele>217.6</ele>
        <time>2021-07-30T13:43:44Z</time>
      </trkpt>
      <trkpt lat="48.76458" lon="6.80002">
        <ele>217.6</ele>
        <time>2021-07-30T13:43:46Z</time>
      </trkpt>
      <trkpt lat="48.76454" lon="6.80005">
        <ele>217.6</ele>
        <time>2021-07-30T13:43:47Z</time>
      </trkpt>
      <trkpt lat="48.7645" lon="6.80009">
        <ele>217.5</ele>
        <time>2021-07-30T13:43:48Z</time>
      </trkpt>
      <trkpt lat="48.76446" lon="6.80012">
        <ele>217.5</ele>
        <time>2021-07-30T13:43:49Z</time>
      </trkpt>
      <trkpt lat="48.76442" lon="6.80015">
        <ele>217.5</ele>
        <time>2021-07-30T13:43:50Z</time>
      </trkpt>
      <trkpt lat="48.76437" lon="6.80018">
        <ele>217.5</ele>
        <time>2021-07-30T13:43:52Z</time>
      </trkpt>
      <trkpt lat="48.76433" lon="6.8002">
        <ele>217.5</ele>
        <time>2021-07-30T13:43:53Z</time>
      </trkpt>
      <trkpt lat="48.76429" lon="6.80022">
        <ele>217.5</ele>
        <time>2021-07-30T13:43:54Z</time>
      </trkpt>
      <trkpt lat="48.76426" lon="6.80023">
        <ele>217.5</ele>
        <time>2021-07-30T13:43:55Z</time>
      </trkpt>
      <trkpt lat="48.76422" lon="6.80024">
        <ele>217.5</ele>
        <time>2021-07-30T13:43:56Z</time>
      </trkpt>
      <trkpt lat="48.76418" lon="6.80025">
        <ele>217.5</ele>
        <time>2021-07-30T13:43:57Z</time>
      </trkpt>
      <trkpt lat="48.76415" lon="6.80026">
        <ele>217.5</ele>
        <time>2021-07-30T13:43:58Z</time>
      </trkpt>
      <trkpt lat="48.76411" lon="6.80029">
        <ele>217.5</ele>
        <time>2021-07-30T13:43:59Z</time>
      </trkpt>
      <trkpt lat="48.76407" lon="6.80031">
        <ele>217.5</ele>
        <time>2021-07-30T13:44:00Z</time>
      </trkpt>
      <trkpt lat="48.76403" lon="6.80032">
        <ele>217.5</ele>
        <time>2021-07-30T13:44:01Z</time>
      </trkpt>
      <trkpt lat="48.764" lon="6.80034">
        <ele>217.5</ele>
        <time>2021-07-30T13:44:02Z</time>
      </trkpt>
      <trkpt lat="48.76396" lon="6.80036">
        <ele>217.5</ele>
        <time>2021-07-30T13:44:04Z</time>
      </trkpt>
      <trkpt lat="48.76392" lon="6.80037">
        <ele>217.5</ele>
        <time>2021-07-30T13:44:05Z</time>
      </trkpt>
      <trkpt lat="48.76388" lon="6.80038">
        <ele>217.5</ele>
        <time>2021-07-30T13:44:06Z</time>
      </trkpt>
      <trkpt lat="48.76385" lon="6.8004">
        <ele>217.5</ele>
        <time>2021-07-30T13:44:07Z</time>
      </trkpt>
      <trkpt lat="48.76381" lon="6.80043">
        <ele>217.5</ele>
        <time>2021-07-30T13:44:08Z</time>
      </trkpt>
      <trkpt lat="48.76378" lon="6.80046">
        <ele>217.5</ele>
        <time>2021-07-30T13:44:09Z</time>
      </trkpt>
      <trkpt lat="48.76374" lon="6.80049">
        <ele>217.6</ele>
        <time>2021-07-30T13:44:10Z</time>
      </trkpt>
      <trkpt lat="48.76371" lon="6.8005">
        <ele>217.6</ele>
        <time>2021-07-30T13:44:11Z</time>
      </trkpt>
      <trkpt lat="48.76364" lon="6.80052">
        <ele>217.6</ele>
        <time>2021-07-30T13:44:13Z</time>
      </trkpt>
      <trkpt lat="48.76361" lon="6.80053">
        <ele>217.7</ele>
        <time>2021-07-30T13:44:14Z</time>
      </trkpt>
      <trkpt lat="48.76355" lon="6.80056">
        <ele>217.8</ele>
        <time>2021-07-30T13:44:16Z</time>
      </trkpt>
      <trkpt lat="48.76351" lon="6.80058">
        <ele>217.8</ele>
        <time>2021-07-30T13:44:18Z</time>
      </trkpt>
      <trkpt lat="48.76349" lon="6.80058">
        <ele>217.8</ele>
        <time>2021-07-30T13:44:19Z</time>
      </trkpt>
      <trkpt lat="48.76346" lon="6.80059">
        <ele>217.9</ele>
        <time>2021-07-30T13:44:20Z</time>
      </trkpt>
      <trkpt lat="48.76343" lon="6.80059">
        <ele>217.9</ele>
        <time>2021-07-30T13:44:21Z</time>
      </trkpt>
      <trkpt lat="48.7634" lon="6.8006">
        <ele>218</ele>
        <time>2021-07-30T13:44:22Z</time>
      </trkpt>
      <trkpt lat="48.76338" lon="6.80062">
        <ele>218.1</ele>
        <time>2021-07-30T13:44:23Z</time>
      </trkpt>
      <trkpt lat="48.76334" lon="6.80065">
        <ele>218.1</ele>
        <time>2021-07-30T13:44:24Z</time>
      </trkpt>
      <trkpt lat="48.7633" lon="6.80067">
        <ele>218.2</ele>
        <time>2021-07-30T13:44:26Z</time>
      </trkpt>
      <trkpt lat="48.76327" lon="6.80067">
        <ele>218.3</ele>
        <time>2021-07-30T13:44:27Z</time>
      </trkpt>
      <trkpt lat="48.76324" lon="6.80068">
        <ele>218.4</ele>
        <time>2021-07-30T13:44:28Z</time>
      </trkpt>
      <trkpt lat="48.76321" lon="6.80068">
        <ele>218.5</ele>
        <time>2021-07-30T13:44:29Z</time>
      </trkpt>
      <trkpt lat="48.76316" lon="6.80068">
        <ele>218.6</ele>
        <time>2021-07-30T13:44:31Z</time>
      </trkpt>
      <trkpt lat="48.76313" lon="6.80067">
        <ele>218.7</ele>
        <time>2021-07-30T13:44:32Z</time>
      </trkpt>
      <trkpt lat="48.76312" lon="6.80067">
        <ele>218.8</ele>
        <time>2021-07-30T13:44:33Z</time>
      </trkpt>
      <trkpt lat="48.76307" lon="6.80068">
        <ele>219</ele>
        <time>2021-07-30T13:44:35Z</time>
      </trkpt>
      <trkpt lat="48.76304" lon="6.80069">
        <ele>219.1</ele>
        <time>2021-07-30T13:44:37Z</time>
      </trkpt>
      <trkpt lat="48.76301" lon="6.80071">
        <ele>219.3</ele>
        <time>2021-07-30T13:44:38Z</time>
      </trkpt>
      <trkpt lat="48.76296" lon="6.80072">
        <ele>219.5</ele>
        <time>2021-07-30T13:44:40Z</time>
      </trkpt>
      <trkpt lat="48.76293" lon="6.80073">
        <ele>219.7</ele>
        <time>2021-07-30T13:44:41Z</time>
      </trkpt>
      <trkpt lat="48.76292" lon="6.80073">
        <ele>219.8</ele>
        <time>2021-07-30T13:44:42Z</time>
      </trkpt>
      <trkpt lat="48.76289" lon="6.80073">
        <ele>219.9</ele>
        <time>2021-07-30T13:44:43Z</time>
      </trkpt>
      <trkpt lat="48.76288" lon="6.80073">
        <ele>220</ele>
        <time>2021-07-30T13:44:44Z</time>
      </trkpt>
      <trkpt lat="48.76283" lon="6.80075">
        <ele>220.3</ele>
        <time>2021-07-30T13:44:46Z</time>
      </trkpt>
      <trkpt lat="48.76281" lon="6.80076">
        <ele>220.4</ele>
        <time>2021-07-30T13:44:47Z</time>
      </trkpt>
      <trkpt lat="48.76276" lon="6.80078">
        <ele>220.7</ele>
        <time>2021-07-30T13:44:49Z</time>
      </trkpt>
      <trkpt lat="48.76273" lon="6.8008">
        <ele>220.9</ele>
        <time>2021-07-30T13:44:51Z</time>
      </trkpt>
      <trkpt lat="48.7627" lon="6.80081">
        <ele>221.1</ele>
        <time>2021-07-30T13:44:52Z</time>
      </trkpt>
      <trkpt lat="48.76266" lon="6.80084">
        <ele>221.3</ele>
        <time>2021-07-30T13:44:54Z</time>
      </trkpt>
      <trkpt lat="48.76261" lon="6.80086">
        <ele>221.5</ele>
        <time>2021-07-30T13:44:56Z</time>
      </trkpt>
      <trkpt lat="48.76259" lon="6.80087">
        <ele>221.6</ele>
        <time>2021-07-30T13:44:57Z</time>
      </trkpt>
      <trkpt lat="48.76257" lon="6.80087">
        <ele>221.7</ele>
        <time>2021-07-30T13:44:59Z</time>
      </trkpt>
      <trkpt lat="48.76254" lon="6.80089">
        <ele>221.8</ele>
        <time>2021-07-30T13:45:00Z</time>
      </trkpt>
      <trkpt lat="48.76253" lon="6.8009">
        <ele>221.9</ele>
        <time>2021-07-30T13:45:01Z</time>
      </trkpt>
      <trkpt lat="48.76251" lon="6.80092">
        <ele>222</ele>
        <time>2021-07-30T13:45:03Z</time>
      </trkpt>
      <trkpt lat="48.76248" lon="6.80094">
        <ele>222.1</ele>
        <time>2021-07-30T13:45:04Z</time>
      </trkpt>
      <trkpt lat="48.76246" lon="6.80094">
        <ele>222.2</ele>
        <time>2021-07-30T13:45:05Z</time>
      </trkpt>
      <trkpt lat="48.76243" lon="6.80094">
        <ele>222.3</ele>
        <time>2021-07-30T13:45:07Z</time>
      </trkpt>
      <trkpt lat="48.76238" lon="6.80094">
        <ele>222.5</ele>
        <time>2021-07-30T13:45:08Z</time>
      </trkpt>
      <trkpt lat="48.76236" lon="6.80093">
        <ele>222.6</ele>
        <time>2021-07-30T13:45:09Z</time>
      </trkpt>
      <trkpt lat="48.76233" lon="6.80092">
        <ele>222.7</ele>
        <time>2021-07-30T13:45:11Z</time>
      </trkpt>
      <trkpt lat="48.7623" lon="6.80092">
        <ele>222.9</ele>
        <time>2021-07-30T13:45:13Z</time>
      </trkpt>
      <trkpt lat="48.76226" lon="6.80091">
        <ele>223</ele>
        <time>2021-07-30T13:45:14Z</time>
      </trkpt>
      <trkpt lat="48.76225" lon="6.80091">
        <ele>223</ele>
        <time>2021-07-30T13:45:15Z</time>
      </trkpt>
      <trkpt lat="48.76221" lon="6.80091">
        <ele>223.2</ele>
        <time>2021-07-30T13:45:17Z</time>
      </trkpt>
      <trkpt lat="48.76218" lon="6.80091">
        <ele>223.3</ele>
        <time>2021-07-30T13:45:18Z</time>
      </trkpt>
      <trkpt lat="48.76217" lon="6.80091">
        <ele>223.3</ele>
        <time>2021-07-30T13:45:19Z</time>
      </trkpt>
      <trkpt lat="48.76212" lon="6.80091">
        <ele>223.5</ele>
        <time>2021-07-30T13:45:21Z</time>
      </trkpt>
      <trkpt lat="48.7621" lon="6.80093">
        <ele>223.6</ele>
        <time>2021-07-30T13:45:22Z</time>
      </trkpt>
      <trkpt lat="48.76209" lon="6.80093">
        <ele>223.6</ele>
        <time>2021-07-30T13:45:23Z</time>
      </trkpt>
      <trkpt lat="48.76207" lon="6.80095">
        <ele>223.7</ele>
        <time>2021-07-30T13:45:24Z</time>
      </trkpt>
      <trkpt lat="48.76204" lon="6.80097">
        <ele>223.8</ele>
        <time>2021-07-30T13:45:26Z</time>
      </trkpt>
      <trkpt lat="48.76201" lon="6.80099">
        <ele>223.9</ele>
        <time>2021-07-30T13:45:27Z</time>
      </trkpt>
      <trkpt lat="48.76199" lon="6.80099">
        <ele>223.9</ele>
        <time>2021-07-30T13:45:28Z</time>
      </trkpt>
      <trkpt lat="48.76197" lon="6.801">
        <ele>223.9</ele>
        <time>2021-07-30T13:45:29Z</time>
      </trkpt>
      <trkpt lat="48.76193" lon="6.80102">
        <ele>224</ele>
        <time>2021-07-30T13:45:31Z</time>
      </trkpt>
      <trkpt lat="48.76191" lon="6.80104">
        <ele>224</ele>
        <time>2021-07-30T13:45:32Z</time>
      </trkpt>
      <trkpt lat="48.76187" lon="6.80108">
        <ele>224.1</ele>
        <time>2021-07-30T13:45:34Z</time>
      </trkpt>
      <trkpt lat="48.76185" lon="6.8011">
        <ele>224.1</ele>
        <time>2021-07-30T13:45:35Z</time>
      </trkpt>
      <trkpt lat="48.76182" lon="6.80111">
        <ele>224.1</ele>
        <time>2021-07-30T13:45:37Z</time>
      </trkpt>
      <trkpt lat="48.76179" lon="6.80113">
        <ele>224.1</ele>
        <time>2021-07-30T13:45:38Z</time>
      </trkpt>
      <trkpt lat="48.76176" lon="6.80115">
        <ele>224</ele>
        <time>2021-07-30T13:45:39Z</time>
      </trkpt>
      <trkpt lat="48.76172" lon="6.8012">
        <ele>224</ele>
        <time>2021-07-30T13:45:41Z</time>
      </trkpt>
      <trkpt lat="48.76168" lon="6.80123">
        <ele>223.9</ele>
        <time>2021-07-30T13:45:42Z</time>
      </trkpt>
      <trkpt lat="48.76167" lon="6.80124">
        <ele>223.9</ele>
        <time>2021-07-30T13:45:43Z</time>
      </trkpt>
      <trkpt lat="48.76164" lon="6.80126">
        <ele>223.8</ele>
        <time>2021-07-30T13:45:44Z</time>
      </trkpt>
      <trkpt lat="48.7616" lon="6.8013">
        <ele>223.6</ele>
        <time>2021-07-30T13:45:46Z</time>
      </trkpt>
      <trkpt lat="48.76156" lon="6.80134">
        <ele>223.5</ele>
        <time>2021-07-30T13:45:48Z</time>
      </trkpt>
      <trkpt lat="48.76153" lon="6.80138">
        <ele>223.4</ele>
        <time>2021-07-30T13:45:49Z</time>
      </trkpt>
      <trkpt lat="48.76152" lon="6.80139">
        <ele>223.3</ele>
        <time>2021-07-30T13:45:50Z</time>
      </trkpt>
      <trkpt lat="48.76147" lon="6.80143">
        <ele>223.1</ele>
        <time>2021-07-30T13:45:52Z</time>
      </trkpt>
      <trkpt lat="48.76145" lon="6.80146">
        <ele>223</ele>
        <time>2021-07-30T13:45:53Z</time>
      </trkpt>
      <trkpt lat="48.7614" lon="6.80152">
        <ele>222.8</ele>
        <time>2021-07-30T13:45:55Z</time>
      </trkpt>
      <trkpt lat="48.76135" lon="6.80157">
        <ele>222.9</ele>
        <time>2021-07-30T13:45:56Z</time>
      </trkpt>
      <trkpt lat="48.76126" lon="6.80164">
        <ele>223.4</ele>
        <time>2021-07-30T13:45:58Z</time>
      </trkpt>
      <trkpt lat="48.76122" lon="6.80166">
        <ele>223.5</ele>
        <time>2021-07-30T13:45:59Z</time>
      </trkpt>
      <trkpt lat="48.76117" lon="6.80169">
        <ele>223.5</ele>
        <time>2021-07-30T13:46:00Z</time>
      </trkpt>
      <trkpt lat="48.76107" lon="6.80176">
        <ele>223.6</ele>
        <time>2021-07-30T13:46:02Z</time>
      </trkpt>
      <trkpt lat="48.76098" lon="6.80182">
        <ele>223.6</ele>
        <time>2021-07-30T13:46:04Z</time>
      </trkpt>
      <trkpt lat="48.76092" lon="6.80188">
        <ele>223.5</ele>
        <time>2021-07-30T13:46:06Z</time>
      </trkpt>
      <trkpt lat="48.76084" lon="6.80192">
        <ele>223.4</ele>
        <time>2021-07-30T13:46:08Z</time>
      </trkpt>
      <trkpt lat="48.7608" lon="6.80194">
        <ele>223.3</ele>
        <time>2021-07-30T13:46:09Z</time>
      </trkpt>
      <trkpt lat="48.76076" lon="6.80196">
        <ele>223.3</ele>
        <time>2021-07-30T13:46:11Z</time>
      </trkpt>
      <trkpt lat="48.7607" lon="6.80199">
        <ele>223.2</ele>
        <time>2021-07-30T13:46:12Z</time>
      </trkpt>
      <trkpt lat="48.76067" lon="6.80201">
        <ele>223.2</ele>
        <time>2021-07-30T13:46:13Z</time>
      </trkpt>
      <trkpt lat="48.76064" lon="6.80204">
        <ele>223.2</ele>
        <time>2021-07-30T13:46:14Z</time>
      </trkpt>
      <trkpt lat="48.7606" lon="6.80209">
        <ele>223.1</ele>
        <time>2021-07-30T13:46:16Z</time>
      </trkpt>
      <trkpt lat="48.76054" lon="6.80214">
        <ele>223.1</ele>
        <time>2021-07-30T13:46:17Z</time>
      </trkpt>
      <trkpt lat="48.76051" lon="6.80218">
        <ele>223.1</ele>
        <time>2021-07-30T13:46:18Z</time>
      </trkpt>
      <trkpt lat="48.76047" lon="6.80224">
        <ele>223.1</ele>
        <time>2021-07-30T13:46:20Z</time>
      </trkpt>
      <trkpt lat="48.76042" lon="6.80231">
        <ele>223.1</ele>
        <time>2021-07-30T13:46:21Z</time>
      </trkpt>
      <trkpt lat="48.76039" lon="6.80235">
        <ele>223.1</ele>
        <time>2021-07-30T13:46:22Z</time>
      </trkpt>
      <trkpt lat="48.76035" lon="6.80238">
        <ele>223.2</ele>
        <time>2021-07-30T13:46:23Z</time>
      </trkpt>
      <trkpt lat="48.76028" lon="6.80245">
        <ele>223.2</ele>
        <time>2021-07-30T13:46:25Z</time>
      </trkpt>
      <trkpt lat="48.76025" lon="6.80248">
        <ele>223.2</ele>
        <time>2021-07-30T13:46:26Z</time>
      </trkpt>
      <trkpt lat="48.76018" lon="6.80253">
        <ele>223.2</ele>
        <time>2021-07-30T13:46:28Z</time>
      </trkpt>
      <trkpt lat="48.76015" lon="6.80256">
        <ele>223.2</ele>
        <time>2021-07-30T13:46:29Z</time>
      </trkpt>
      <trkpt lat="48.76012" lon="6.80258">
        <ele>223.2</ele>
        <time>2021-07-30T13:46:30Z</time>
      </trkpt>
      <trkpt lat="48.76004" lon="6.80262">
        <ele>223.3</ele>
        <time>2021-07-30T13:46:32Z</time>
      </trkpt>
      <trkpt lat="48.75997" lon="6.80268">
        <ele>223.4</ele>
        <time>2021-07-30T13:46:34Z</time>
      </trkpt>
      <trkpt lat="48.75993" lon="6.80273">
        <ele>223.4</ele>
        <time>2021-07-30T13:46:36Z</time>
      </trkpt>
      <trkpt lat="48.75989" lon="6.80278">
        <ele>223.5</ele>
        <time>2021-07-30T13:46:37Z</time>
      </trkpt>
      <trkpt lat="48.75986" lon="6.80282">
        <ele>223.5</ele>
        <time>2021-07-30T13:46:38Z</time>
      </trkpt>
      <trkpt lat="48.75983" lon="6.80286">
        <ele>223.6</ele>
        <time>2021-07-30T13:46:39Z</time>
      </trkpt>
      <trkpt lat="48.7598" lon="6.8029">
        <ele>223.6</ele>
        <time>2021-07-30T13:46:40Z</time>
      </trkpt>
      <trkpt lat="48.75977" lon="6.80293">
        <ele>223.6</ele>
        <time>2021-07-30T13:46:41Z</time>
      </trkpt>
      <trkpt lat="48.75974" lon="6.80296">
        <ele>223.7</ele>
        <time>2021-07-30T13:46:42Z</time>
      </trkpt>
      <trkpt lat="48.75971" lon="6.80299">
        <ele>223.7</ele>
        <time>2021-07-30T13:46:43Z</time>
      </trkpt>
      <trkpt lat="48.75968" lon="6.80303">
        <ele>223.8</ele>
        <time>2021-07-30T13:46:44Z</time>
      </trkpt>
      <trkpt lat="48.75965" lon="6.80306">
        <ele>223.9</ele>
        <time>2021-07-30T13:46:45Z</time>
      </trkpt>
      <trkpt lat="48.75962" lon="6.80309">
        <ele>224</ele>
        <time>2021-07-30T13:46:46Z</time>
      </trkpt>
      <trkpt lat="48.75956" lon="6.80315">
        <ele>224.2</ele>
        <time>2021-07-30T13:46:48Z</time>
      </trkpt>
      <trkpt lat="48.75951" lon="6.8032">
        <ele>224.3</ele>
        <time>2021-07-30T13:46:50Z</time>
      </trkpt>
      <trkpt lat="48.75948" lon="6.80323">
        <ele>224.4</ele>
        <time>2021-07-30T13:46:52Z</time>
      </trkpt>
      <trkpt lat="48.75946" lon="6.80325">
        <ele>224.5</ele>
        <time>2021-07-30T13:46:53Z</time>
      </trkpt>
      <trkpt lat="48.75945" lon="6.80327">
        <ele>224.5</ele>
        <time>2021-07-30T13:46:54Z</time>
      </trkpt>
      <trkpt lat="48.75943" lon="6.8033">
        <ele>224.6</ele>
        <time>2021-07-30T13:46:56Z</time>
      </trkpt>
      <trkpt lat="48.75941" lon="6.80334">
        <ele>224.6</ele>
        <time>2021-07-30T13:46:57Z</time>
      </trkpt>
      <trkpt lat="48.7594" lon="6.80335">
        <ele>224.6</ele>
        <time>2021-07-30T13:46:58Z</time>
      </trkpt>
      <trkpt lat="48.75939" lon="6.80337">
        <ele>224.7</ele>
        <time>2021-07-30T13:46:59Z</time>
      </trkpt>
      <trkpt lat="48.75936" lon="6.80342">
        <ele>224.7</ele>
        <time>2021-07-30T13:47:01Z</time>
      </trkpt>
      <trkpt lat="48.75934" lon="6.80346">
        <ele>224.8</ele>
        <time>2021-07-30T13:47:02Z</time>
      </trkpt>
      <trkpt lat="48.75933" lon="6.80347">
        <ele>224.8</ele>
        <time>2021-07-30T13:47:03Z</time>
      </trkpt>
      <trkpt lat="48.75931" lon="6.80351">
        <ele>224.8</ele>
        <time>2021-07-30T13:47:04Z</time>
      </trkpt>
      <trkpt lat="48.7593" lon="6.80352">
        <ele>224.8</ele>
        <time>2021-07-30T13:47:05Z</time>
      </trkpt>
      <trkpt lat="48.75928" lon="6.80355">
        <ele>224.9</ele>
        <time>2021-07-30T13:47:06Z</time>
      </trkpt>
      <trkpt lat="48.75926" lon="6.80359">
        <ele>225</ele>
        <time>2021-07-30T13:47:07Z</time>
      </trkpt>
      <trkpt lat="48.75925" lon="6.8036">
        <ele>225</ele>
        <time>2021-07-30T13:47:08Z</time>
      </trkpt>
      <trkpt lat="48.75923" lon="6.80364">
        <ele>225.1</ele>
        <time>2021-07-30T13:47:10Z</time>
      </trkpt>
      <trkpt lat="48.7592" lon="6.80368">
        <ele>225.2</ele>
        <time>2021-07-30T13:47:11Z</time>
      </trkpt>
      <trkpt lat="48.75918" lon="6.80372">
        <ele>225.3</ele>
        <time>2021-07-30T13:47:12Z</time>
      </trkpt>
      <trkpt lat="48.75914" lon="6.80378">
        <ele>225.5</ele>
        <time>2021-07-30T13:47:14Z</time>
      </trkpt>
      <trkpt lat="48.7591" lon="6.80382">
        <ele>225.7</ele>
        <time>2021-07-30T13:47:16Z</time>
      </trkpt>
      <trkpt lat="48.75906" lon="6.80388">
        <ele>225.9</ele>
        <time>2021-07-30T13:47:18Z</time>
      </trkpt>
      <trkpt lat="48.75904" lon="6.80392">
        <ele>226</ele>
        <time>2021-07-30T13:47:19Z</time>
      </trkpt>
      <trkpt lat="48.75901" lon="6.80395">
        <ele>226.1</ele>
        <time>2021-07-30T13:47:20Z</time>
      </trkpt>
      <trkpt lat="48.75899" lon="6.80399">
        <ele>226.1</ele>
        <time>2021-07-30T13:47:21Z</time>
      </trkpt>
      <trkpt lat="48.75894" lon="6.80403">
        <ele>226.3</ele>
        <time>2021-07-30T13:47:23Z</time>
      </trkpt>
      <trkpt lat="48.75891" lon="6.80405">
        <ele>226.3</ele>
        <time>2021-07-30T13:47:24Z</time>
      </trkpt>
      <trkpt lat="48.75887" lon="6.80408">
        <ele>226.4</ele>
        <time>2021-07-30T13:47:26Z</time>
      </trkpt>
      <trkpt lat="48.75884" lon="6.8041">
        <ele>226.5</ele>
        <time>2021-07-30T13:47:27Z</time>
      </trkpt>
      <trkpt lat="48.75879" lon="6.80414">
        <ele>226.6</ele>
        <time>2021-07-30T13:47:29Z</time>
      </trkpt>
      <trkpt lat="48.75877" lon="6.80415">
        <ele>226.6</ele>
        <time>2021-07-30T13:47:30Z</time>
      </trkpt>
      <trkpt lat="48.75873" lon="6.80418">
        <ele>226.7</ele>
        <time>2021-07-30T13:47:32Z</time>
      </trkpt>
      <trkpt lat="48.7587" lon="6.8042">
        <ele>226.7</ele>
        <time>2021-07-30T13:47:33Z</time>
      </trkpt>
      <trkpt lat="48.75866" lon="6.80424">
        <ele>226.8</ele>
        <time>2021-07-30T13:47:35Z</time>
      </trkpt>
      <trkpt lat="48.75863" lon="6.80427">
        <ele>226.9</ele>
        <time>2021-07-30T13:47:36Z</time>
      </trkpt>
      <trkpt lat="48.75858" lon="6.8043">
        <ele>226.9</ele>
        <time>2021-07-30T13:47:38Z</time>
      </trkpt>
      <trkpt lat="48.75856" lon="6.80432">
        <ele>227</ele>
        <time>2021-07-30T13:47:39Z</time>
      </trkpt>
      <trkpt lat="48.75851" lon="6.80435">
        <ele>227.1</ele>
        <time>2021-07-30T13:47:41Z</time>
      </trkpt>
      <trkpt lat="48.75848" lon="6.80438">
        <ele>227.2</ele>
        <time>2021-07-30T13:47:42Z</time>
      </trkpt>
      <trkpt lat="48.75846" lon="6.8044">
        <ele>227.3</ele>
        <time>2021-07-30T13:47:43Z</time>
      </trkpt>
      <trkpt lat="48.75844" lon="6.80443">
        <ele>227.4</ele>
        <time>2021-07-30T13:47:44Z</time>
      </trkpt>
      <trkpt lat="48.7584" lon="6.80446">
        <ele>227.5</ele>
        <time>2021-07-30T13:47:46Z</time>
      </trkpt>
      <trkpt lat="48.75838" lon="6.80448">
        <ele>227.5</ele>
        <time>2021-07-30T13:47:47Z</time>
      </trkpt>
      <trkpt lat="48.75835" lon="6.8045">
        <ele>227.6</ele>
        <time>2021-07-30T13:47:49Z</time>
      </trkpt>
      <trkpt lat="48.75831" lon="6.80452">
        <ele>227.7</ele>
        <time>2021-07-30T13:47:50Z</time>
      </trkpt>
      <trkpt lat="48.7583" lon="6.80453">
        <ele>227.8</ele>
        <time>2021-07-30T13:47:51Z</time>
      </trkpt>
      <trkpt lat="48.75827" lon="6.80453">
        <ele>227.8</ele>
        <time>2021-07-30T13:47:52Z</time>
      </trkpt>
      <trkpt lat="48.75823" lon="6.80457">
        <ele>228</ele>
        <time>2021-07-30T13:47:54Z</time>
      </trkpt>
      <trkpt lat="48.7582" lon="6.80461">
        <ele>228.1</ele>
        <time>2021-07-30T13:47:55Z</time>
      </trkpt>
      <trkpt lat="48.75819" lon="6.80463">
        <ele>228.2</ele>
        <time>2021-07-30T13:47:56Z</time>
      </trkpt>
      <trkpt lat="48.75815" lon="6.80466">
        <ele>228.3</ele>
        <time>2021-07-30T13:47:58Z</time>
      </trkpt>
      <trkpt lat="48.75812" lon="6.80467">
        <ele>228.5</ele>
        <time>2021-07-30T13:48:00Z</time>
      </trkpt>
      <trkpt lat="48.7581" lon="6.80469">
        <ele>228.6</ele>
        <time>2021-07-30T13:48:01Z</time>
      </trkpt>
      <trkpt lat="48.75806" lon="6.80472">
        <ele>228.7</ele>
        <time>2021-07-30T13:48:03Z</time>
      </trkpt>
      <trkpt lat="48.75804" lon="6.80475">
        <ele>228.8</ele>
        <time>2021-07-30T13:48:04Z</time>
      </trkpt>
      <trkpt lat="48.75802" lon="6.80478">
        <ele>229</ele>
        <time>2021-07-30T13:48:06Z</time>
      </trkpt>
      <trkpt lat="48.75799" lon="6.80481">
        <ele>229.1</ele>
        <time>2021-07-30T13:48:07Z</time>
      </trkpt>
      <trkpt lat="48.75796" lon="6.80483">
        <ele>229.2</ele>
        <time>2021-07-30T13:48:09Z</time>
      </trkpt>
      <trkpt lat="48.75794" lon="6.80487">
        <ele>229.4</ele>
        <time>2021-07-30T13:48:10Z</time>
      </trkpt>
      <trkpt lat="48.75791" lon="6.80488">
        <ele>229.4</ele>
        <time>2021-07-30T13:48:11Z</time>
      </trkpt>
      <trkpt lat="48.75787" lon="6.80491">
        <ele>229.6</ele>
        <time>2021-07-30T13:48:13Z</time>
      </trkpt>
      <trkpt lat="48.75784" lon="6.80493">
        <ele>229.7</ele>
        <time>2021-07-30T13:48:15Z</time>
      </trkpt>
      <trkpt lat="48.75782" lon="6.80495">
        <ele>229.7</ele>
        <time>2021-07-30T13:48:16Z</time>
      </trkpt>
      <trkpt lat="48.7578" lon="6.80498">
        <ele>229.8</ele>
        <time>2021-07-30T13:48:18Z</time>
      </trkpt>
      <trkpt lat="48.75778" lon="6.80501">
        <ele>229.8</ele>
        <time>2021-07-30T13:48:20Z</time>
      </trkpt>
      <trkpt lat="48.75776" lon="6.80504">
        <ele>229.9</ele>
        <time>2021-07-30T13:48:22Z</time>
      </trkpt>
      <trkpt lat="48.75773" lon="6.80506">
        <ele>229.9</ele>
        <time>2021-07-30T13:48:23Z</time>
      </trkpt>
      <trkpt lat="48.75772" lon="6.80506">
        <ele>229.9</ele>
        <time>2021-07-30T13:48:24Z</time>
      </trkpt>
      <trkpt lat="48.7577" lon="6.80507">
        <ele>230</ele>
        <time>2021-07-30T13:48:25Z</time>
      </trkpt>
      <trkpt lat="48.75769" lon="6.80509">
        <ele>230</ele>
        <time>2021-07-30T13:48:26Z</time>
      </trkpt>
      <trkpt lat="48.75766" lon="6.80511">
        <ele>230</ele>
        <time>2021-07-30T13:48:27Z</time>
      </trkpt>
      <trkpt lat="48.75765" lon="6.80511">
        <ele>230</ele>
        <time>2021-07-30T13:48:28Z</time>
      </trkpt>
      <trkpt lat="48.75764" lon="6.80512">
        <ele>229.9</ele>
        <time>2021-07-30T13:48:29Z</time>
      </trkpt>
      <trkpt lat="48.7576" lon="6.80513">
        <ele>229.9</ele>
        <time>2021-07-30T13:48:31Z</time>
      </trkpt>
      <trkpt lat="48.75756" lon="6.80517">
        <ele>229.9</ele>
        <time>2021-07-30T13:48:33Z</time>
      </trkpt>
      <trkpt lat="48.75755" lon="6.80518">
        <ele>229.9</ele>
        <time>2021-07-30T13:48:34Z</time>
      </trkpt>
      <trkpt lat="48.75754" lon="6.8052">
        <ele>229.9</ele>
        <time>2021-07-30T13:48:35Z</time>
      </trkpt>
      <trkpt lat="48.75752" lon="6.80523">
        <ele>229.8</ele>
        <time>2021-07-30T13:48:37Z</time>
      </trkpt>
      <trkpt lat="48.75751" lon="6.80525">
        <ele>229.7</ele>
        <time>2021-07-30T13:48:38Z</time>
      </trkpt>
      <trkpt lat="48.75749" lon="6.80526">
        <ele>229.7</ele>
        <time>2021-07-30T13:48:40Z</time>
      </trkpt>
      <trkpt lat="48.75747" lon="6.80527">
        <ele>229.6</ele>
        <time>2021-07-30T13:48:41Z</time>
      </trkpt>
      <trkpt lat="48.75746" lon="6.80528">
        <ele>229.6</ele>
        <time>2021-07-30T13:48:42Z</time>
      </trkpt>
      <trkpt lat="48.75745" lon="6.80528">
        <ele>229.6</ele>
        <time>2021-07-30T13:48:43Z</time>
      </trkpt>
      <trkpt lat="48.75745" lon="6.80528">
        <ele>229.6</ele>
        <time>2021-07-30T13:48:44Z</time>
      </trkpt>
      <trkpt lat="48.75746" lon="6.80527">
        <ele>229.6</ele>
        <time>2021-07-30T13:48:46Z</time>
      </trkpt>
      <trkpt lat="48.75746" lon="6.80527">
        <ele>229.6</ele>
        <time>2021-07-30T13:48:47Z</time>
      </trkpt>
      <trkpt lat="48.75746" lon="6.80527">
        <ele>229.6</ele>
        <time>2021-07-30T13:48:48Z</time>
      </trkpt>
      <trkpt lat="48.75746" lon="6.80527">
        <ele>229.6</ele>
        <time>2021-07-30T13:48:50Z</time>
      </trkpt>
      <trkpt lat="48.75746" lon="6.80527">
        <ele>229.6</ele>
        <time>2021-07-30T13:48:51Z</time>
      </trkpt>
      <trkpt lat="48.75746" lon="6.80527">
        <ele>229.6</ele>
        <time>2021-07-30T13:48:53Z</time>
      </trkpt>
      <trkpt lat="48.75737" lon="6.80548">
        <ele>229.4</ele>
        <time>2021-07-30T13:49:44Z</time>
      </trkpt>
      <trkpt lat="48.7573" lon="6.80557">
        <ele>229.3</ele>
        <time>2021-07-30T13:49:46Z</time>
      </trkpt>
      <trkpt lat="48.75722" lon="6.80565">
        <ele>229.2</ele>
        <time>2021-07-30T13:49:47Z</time>
      </trkpt>
      <trkpt lat="48.75718" lon="6.80571">
        <ele>229.1</ele>
        <time>2021-07-30T13:49:48Z</time>
      </trkpt>
      <trkpt lat="48.75713" lon="6.80584">
        <ele>229</ele>
        <time>2021-07-30T13:49:50Z</time>
      </trkpt>
      <trkpt lat="48.75709" lon="6.80594">
        <ele>228.9</ele>
        <time>2021-07-30T13:49:51Z</time>
      </trkpt>
      <trkpt lat="48.75703" lon="6.80606">
        <ele>229.1</ele>
        <time>2021-07-30T13:49:53Z</time>
      </trkpt>
      <trkpt lat="48.757" lon="6.80611">
        <ele>229.1</ele>
        <time>2021-07-30T13:49:55Z</time>
      </trkpt>
      <trkpt lat="48.75695" lon="6.80621">
        <ele>229.2</ele>
        <time>2021-07-30T13:49:56Z</time>
      </trkpt>
      <trkpt lat="48.75689" lon="6.80632">
        <ele>229.3</ele>
        <time>2021-07-30T13:49:58Z</time>
      </trkpt>
      <trkpt lat="48.75686" lon="6.80639">
        <ele>229.4</ele>
        <time>2021-07-30T13:49:59Z</time>
      </trkpt>
      <trkpt lat="48.75679" lon="6.80652">
        <ele>229.5</ele>
        <time>2021-07-30T13:50:01Z</time>
      </trkpt>
      <trkpt lat="48.75675" lon="6.80658">
        <ele>229.6</ele>
        <time>2021-07-30T13:50:02Z</time>
      </trkpt>
      <trkpt lat="48.75667" lon="6.8067">
        <ele>229.8</ele>
        <time>2021-07-30T13:50:04Z</time>
      </trkpt>
      <trkpt lat="48.75663" lon="6.80676">
        <ele>229.8</ele>
        <time>2021-07-30T13:50:05Z</time>
      </trkpt>
      <trkpt lat="48.75659" lon="6.80683">
        <ele>229.9</ele>
        <time>2021-07-30T13:50:06Z</time>
      </trkpt>
      <trkpt lat="48.75653" lon="6.80699">
        <ele>230.1</ele>
        <time>2021-07-30T13:50:08Z</time>
      </trkpt>
      <trkpt lat="48.75647" lon="6.80716">
        <ele>230.2</ele>
        <time>2021-07-30T13:50:10Z</time>
      </trkpt>
      <trkpt lat="48.75643" lon="6.80732">
        <ele>230.4</ele>
        <time>2021-07-30T13:50:12Z</time>
      </trkpt>
      <trkpt lat="48.7564" lon="6.80739">
        <ele>230.4</ele>
        <time>2021-07-30T13:50:13Z</time>
      </trkpt>
      <trkpt lat="48.75639" lon="6.80746">
        <ele>230.5</ele>
        <time>2021-07-30T13:50:14Z</time>
      </trkpt>
      <trkpt lat="48.75636" lon="6.80764">
        <ele>230.6</ele>
        <time>2021-07-30T13:50:16Z</time>
      </trkpt>
      <trkpt lat="48.75633" lon="6.80781">
        <ele>230.8</ele>
        <time>2021-07-30T13:50:18Z</time>
      </trkpt>
      <trkpt lat="48.7563" lon="6.80797">
        <ele>230.9</ele>
        <time>2021-07-30T13:50:20Z</time>
      </trkpt>
      <trkpt lat="48.75629" lon="6.80811">
        <ele>231.1</ele>
        <time>2021-07-30T13:50:22Z</time>
      </trkpt>
      <trkpt lat="48.75628" lon="6.80817">
        <ele>231.1</ele>
        <time>2021-07-30T13:50:23Z</time>
      </trkpt>
      <trkpt lat="48.75628" lon="6.80829">
        <ele>231.2</ele>
        <time>2021-07-30T13:50:25Z</time>
      </trkpt>
      <trkpt lat="48.75628" lon="6.80839">
        <ele>231.3</ele>
        <time>2021-07-30T13:50:26Z</time>
      </trkpt>
      <trkpt lat="48.75629" lon="6.80855">
        <ele>231.4</ele>
        <time>2021-07-30T13:50:28Z</time>
      </trkpt>
      <trkpt lat="48.75631" lon="6.8087">
        <ele>231.5</ele>
        <time>2021-07-30T13:50:30Z</time>
      </trkpt>
      <trkpt lat="48.75632" lon="6.80878">
        <ele>231.6</ele>
        <time>2021-07-30T13:50:31Z</time>
      </trkpt>
      <trkpt lat="48.75633" lon="6.80886">
        <ele>231.7</ele>
        <time>2021-07-30T13:50:32Z</time>
      </trkpt>
      <trkpt lat="48.75636" lon="6.80906">
        <ele>231.8</ele>
        <time>2021-07-30T13:50:34Z</time>
      </trkpt>
      <trkpt lat="48.7564" lon="6.80925">
        <ele>232</ele>
        <time>2021-07-30T13:50:36Z</time>
      </trkpt>
      <trkpt lat="48.75645" lon="6.80945">
        <ele>232.2</ele>
        <time>2021-07-30T13:50:38Z</time>
      </trkpt>
      <trkpt lat="48.7565" lon="6.80962">
        <ele>232.4</ele>
        <time>2021-07-30T13:50:40Z</time>
      </trkpt>
      <trkpt lat="48.75653" lon="6.80969">
        <ele>232.4</ele>
        <time>2021-07-30T13:50:41Z</time>
      </trkpt>
      <trkpt lat="48.75656" lon="6.80984">
        <ele>232.6</ele>
        <time>2021-07-30T13:50:43Z</time>
      </trkpt>
      <trkpt lat="48.75657" lon="6.80992">
        <ele>232.6</ele>
        <time>2021-07-30T13:50:44Z</time>
      </trkpt>
      <trkpt lat="48.75658" lon="6.81008">
        <ele>232.8</ele>
        <time>2021-07-30T13:50:46Z</time>
      </trkpt>
      <trkpt lat="48.7566" lon="6.81023">
        <ele>232.9</ele>
        <time>2021-07-30T13:50:48Z</time>
      </trkpt>
      <trkpt lat="48.7566" lon="6.81028">
        <ele>232.9</ele>
        <time>2021-07-30T13:50:49Z</time>
      </trkpt>
      <trkpt lat="48.75661" lon="6.81036">
        <ele>233</ele>
        <time>2021-07-30T13:50:51Z</time>
      </trkpt>
      <trkpt lat="48.75663" lon="6.81041">
        <ele>233</ele>
        <time>2021-07-30T13:50:52Z</time>
      </trkpt>
      <trkpt lat="48.75665" lon="6.81049">
        <ele>233.1</ele>
        <time>2021-07-30T13:50:53Z</time>
      </trkpt>
      <trkpt lat="48.75665" lon="6.81056">
        <ele>233.2</ele>
        <time>2021-07-30T13:50:55Z</time>
      </trkpt>
      <trkpt lat="48.75664" lon="6.81061">
        <ele>233.2</ele>
        <time>2021-07-30T13:50:56Z</time>
      </trkpt>
      <trkpt lat="48.75665" lon="6.81069">
        <ele>233.3</ele>
        <time>2021-07-30T13:50:57Z</time>
      </trkpt>
      <trkpt lat="48.75665" lon="6.81074">
        <ele>233.3</ele>
        <time>2021-07-30T13:50:58Z</time>
      </trkpt>
      <trkpt lat="48.75665" lon="6.8108">
        <ele>233.4</ele>
        <time>2021-07-30T13:50:59Z</time>
      </trkpt>
      <trkpt lat="48.75664" lon="6.81086">
        <ele>233.4</ele>
        <time>2021-07-30T13:51:01Z</time>
      </trkpt>
      <trkpt lat="48.75664" lon="6.81088">
        <ele>233.4</ele>
        <time>2021-07-30T13:51:02Z</time>
      </trkpt>
      <trkpt lat="48.75664" lon="6.81094">
        <ele>233.5</ele>
        <time>2021-07-30T13:51:03Z</time>
      </trkpt>
      <trkpt lat="48.75664" lon="6.81101">
        <ele>233.5</ele>
        <time>2021-07-30T13:51:04Z</time>
      </trkpt>
      <trkpt lat="48.75664" lon="6.81106">
        <ele>233.6</ele>
        <time>2021-07-30T13:51:06Z</time>
      </trkpt>
      <trkpt lat="48.75665" lon="6.81111">
        <ele>233.6</ele>
        <time>2021-07-30T13:51:07Z</time>
      </trkpt>
      <trkpt lat="48.75664" lon="6.81115">
        <ele>233.7</ele>
        <time>2021-07-30T13:51:08Z</time>
      </trkpt>
      <trkpt lat="48.75663" lon="6.81116">
        <ele>233.7</ele>
        <time>2021-07-30T13:51:09Z</time>
      </trkpt>
      <trkpt lat="48.75662" lon="6.8112">
        <ele>233.7</ele>
        <time>2021-07-30T13:51:11Z</time>
      </trkpt>
      <trkpt lat="48.75662" lon="6.81122">
        <ele>233.7</ele>
        <time>2021-07-30T13:51:12Z</time>
      </trkpt>
      <trkpt lat="48.75661" lon="6.81124">
        <ele>233.8</ele>
        <time>2021-07-30T13:51:13Z</time>
      </trkpt>
      <trkpt lat="48.75661" lon="6.81129">
        <ele>233.8</ele>
        <time>2021-07-30T13:51:15Z</time>
      </trkpt>
      <trkpt lat="48.7566" lon="6.81133">
        <ele>233.8</ele>
        <time>2021-07-30T13:51:16Z</time>
      </trkpt>
      <trkpt lat="48.75659" lon="6.81138">
        <ele>233.9</ele>
        <time>2021-07-30T13:51:19Z</time>
      </trkpt>
      <trkpt lat="48.75659" lon="6.81141">
        <ele>233.9</ele>
        <time>2021-07-30T13:51:20Z</time>
      </trkpt>
      <trkpt lat="48.7566" lon="6.81142">
        <ele>233.9</ele>
        <time>2021-07-30T13:51:21Z</time>
      </trkpt>
      <trkpt lat="48.7566" lon="6.81142">
        <ele>233.9</ele>
        <time>2021-07-30T13:51:22Z</time>
      </trkpt>
      <trkpt lat="48.7566" lon="6.81142">
        <ele>233.9</ele>
        <time>2021-07-30T13:51:23Z</time>
      </trkpt>
      <trkpt lat="48.7566" lon="6.81142">
        <ele>233.9</ele>
        <time>2021-07-30T13:51:25Z</time>
      </trkpt>
      <trkpt lat="48.7566" lon="6.81142">
        <ele>233.9</ele>
        <time>2021-07-30T13:51:27Z</time>
      </trkpt>
      <trkpt lat="48.7566" lon="6.81142">
        <ele>233.9</ele>
        <time>2021-07-30T13:51:28Z</time>
      </trkpt>
      <trkpt lat="48.7566" lon="6.81142">
        <ele>233.9</ele>
        <time>2021-07-30T13:51:30Z</time>
      </trkpt>
      <trkpt lat="48.75657" lon="6.81172">
        <ele>234.2</ele>
        <time>2021-07-30T13:52:27Z</time>
      </trkpt>
      <trkpt lat="48.75658" lon="6.81179">
        <ele>234.2</ele>
        <time>2021-07-30T13:52:29Z</time>
      </trkpt>
      <trkpt lat="48.75659" lon="6.81185">
        <ele>234.3</ele>
        <time>2021-07-30T13:52:30Z</time>
      </trkpt>
      <trkpt lat="48.7566" lon="6.81194">
        <ele>234.4</ele>
        <time>2021-07-30T13:52:31Z</time>
      </trkpt>
      <trkpt lat="48.75661" lon="6.812">
        <ele>234.4</ele>
        <time>2021-07-30T13:52:32Z</time>
      </trkpt>
      <trkpt lat="48.75661" lon="6.81205">
        <ele>234.4</ele>
        <time>2021-07-30T13:52:33Z</time>
      </trkpt>
      <trkpt lat="48.75662" lon="6.81209">
        <ele>234.5</ele>
        <time>2021-07-30T13:52:34Z</time>
      </trkpt>
      <trkpt lat="48.75661" lon="6.81214">
        <ele>234.5</ele>
        <time>2021-07-30T13:52:35Z</time>
      </trkpt>
      <trkpt lat="48.7566" lon="6.81222">
        <ele>234.6</ele>
        <time>2021-07-30T13:52:37Z</time>
      </trkpt>
      <trkpt lat="48.7566" lon="6.81229">
        <ele>234.7</ele>
        <time>2021-07-30T13:52:39Z</time>
      </trkpt>
      <trkpt lat="48.75661" lon="6.81237">
        <ele>234.7</ele>
        <time>2021-07-30T13:52:41Z</time>
      </trkpt>
      <trkpt lat="48.75662" lon="6.81241">
        <ele>234.8</ele>
        <time>2021-07-30T13:52:42Z</time>
      </trkpt>
      <trkpt lat="48.75661" lon="6.81245">
        <ele>234.8</ele>
        <time>2021-07-30T13:52:43Z</time>
      </trkpt>
      <trkpt lat="48.75661" lon="6.8125">
        <ele>234.8</ele>
        <time>2021-07-30T13:52:45Z</time>
      </trkpt>
      <trkpt lat="48.75661" lon="6.81255">
        <ele>234.9</ele>
        <time>2021-07-30T13:52:46Z</time>
      </trkpt>
      <trkpt lat="48.75661" lon="6.81259">
        <ele>234.9</ele>
        <time>2021-07-30T13:52:47Z</time>
      </trkpt>
      <trkpt lat="48.75661" lon="6.81264">
        <ele>235</ele>
        <time>2021-07-30T13:52:48Z</time>
      </trkpt>
      <trkpt lat="48.75661" lon="6.81265">
        <ele>235</ele>
        <time>2021-07-30T13:52:49Z</time>
      </trkpt>
      <trkpt lat="48.75662" lon="6.81268">
        <ele>235</ele>
        <time>2021-07-30T13:52:50Z</time>
      </trkpt>
      <trkpt lat="48.75662" lon="6.81273">
        <ele>235</ele>
        <time>2021-07-30T13:52:52Z</time>
      </trkpt>
      <trkpt lat="48.75661" lon="6.81279">
        <ele>235.1</ele>
        <time>2021-07-30T13:52:54Z</time>
      </trkpt>
      <trkpt lat="48.75662" lon="6.81284">
        <ele>235.1</ele>
        <time>2021-07-30T13:52:55Z</time>
      </trkpt>
      <trkpt lat="48.75662" lon="6.81287">
        <ele>235.1</ele>
        <time>2021-07-30T13:52:56Z</time>
      </trkpt>
      <trkpt lat="48.75663" lon="6.8129">
        <ele>235.2</ele>
        <time>2021-07-30T13:52:57Z</time>
      </trkpt>
      <trkpt lat="48.76253" lon="6.83459">
        <ele>238.6</ele>
        <time>2021-07-30T14:16:45Z</time>
      </trkpt>
      <trkpt lat="48.76245" lon="6.83465">
        <ele>238.5</ele>
        <time>2021-07-30T14:16:47Z</time>
      </trkpt>
      <trkpt lat="48.76239" lon="6.83469">
        <ele>238.5</ele>
        <time>2021-07-30T14:16:48Z</time>
      </trkpt>
      <trkpt lat="48.76234" lon="6.83475">
        <ele>238.5</ele>
        <time>2021-07-30T14:16:50Z</time>
      </trkpt>
      <trkpt lat="48.76233" lon="6.83478">
        <ele>238.5</ele>
        <time>2021-07-30T14:16:51Z</time>
      </trkpt>
      <trkpt lat="48.7623" lon="6.8349">
        <ele>238.4</ele>
        <time>2021-07-30T14:16:53Z</time>
      </trkpt>
      <trkpt lat="48.76225" lon="6.83491">
        <ele>238.4</ele>
        <time>2021-07-30T14:16:55Z</time>
      </trkpt>
      <trkpt lat="48.76224" lon="6.8349">
        <ele>238.4</ele>
        <time>2021-07-30T14:16:57Z</time>
      </trkpt>
      <trkpt lat="48.76222" lon="6.8349">
        <ele>238.4</ele>
        <time>2021-07-30T14:16:58Z</time>
      </trkpt>
      <trkpt lat="48.7622" lon="6.83489">
        <ele>238.3</ele>
        <time>2021-07-30T14:16:59Z</time>
      </trkpt>
      <trkpt lat="48.76218" lon="6.83486">
        <ele>238.3</ele>
        <time>2021-07-30T14:17:01Z</time>
      </trkpt>
      <trkpt lat="48.76216" lon="6.83485">
        <ele>238.3</ele>
        <time>2021-07-30T14:17:02Z</time>
      </trkpt>
      <trkpt lat="48.76212" lon="6.83483">
        <ele>238.3</ele>
        <time>2021-07-30T14:17:04Z</time>
      </trkpt>
      <trkpt lat="48.7621" lon="6.83482">
        <ele>238.3</ele>
        <time>2021-07-30T14:17:05Z</time>
      </trkpt>
      <trkpt lat="48.76207" lon="6.8348">
        <ele>238.3</ele>
        <time>2021-07-30T14:17:07Z</time>
      </trkpt>
      <trkpt lat="48.76205" lon="6.8348">
        <ele>238.3</ele>
        <time>2021-07-30T14:17:08Z</time>
      </trkpt>
      <trkpt lat="48.76203" lon="6.8348">
        <ele>238.2</ele>
        <time>2021-07-30T14:17:09Z</time>
      </trkpt>
      <trkpt lat="48.762" lon="6.83478">
        <ele>238.2</ele>
        <time>2021-07-30T14:17:10Z</time>
      </trkpt>
      <trkpt lat="48.76199" lon="6.83477">
        <ele>238.2</ele>
        <time>2021-07-30T14:17:11Z</time>
      </trkpt>
      <trkpt lat="48.76196" lon="6.83476">
        <ele>238.2</ele>
        <time>2021-07-30T14:17:13Z</time>
      </trkpt>
      <trkpt lat="48.76194" lon="6.83476">
        <ele>238.2</ele>
        <time>2021-07-30T14:17:14Z</time>
      </trkpt>
      <trkpt lat="48.76191" lon="6.83478">
        <ele>238.2</ele>
        <time>2021-07-30T14:17:16Z</time>
      </trkpt>
      <trkpt lat="48.76188" lon="6.83478">
        <ele>238.1</ele>
        <time>2021-07-30T14:17:17Z</time>
      </trkpt>
      <trkpt lat="48.76187" lon="6.83479">
        <ele>238.1</ele>
        <time>2021-07-30T14:17:18Z</time>
      </trkpt>
      <trkpt lat="48.76182" lon="6.8348">
        <ele>238.1</ele>
        <time>2021-07-30T14:17:20Z</time>
      </trkpt>
      <trkpt lat="48.76178" lon="6.83481">
        <ele>238.1</ele>
        <time>2021-07-30T14:17:22Z</time>
      </trkpt>
      <trkpt lat="48.76175" lon="6.8348">
        <ele>238.1</ele>
        <time>2021-07-30T14:17:24Z</time>
      </trkpt>
      <trkpt lat="48.76173" lon="6.83481">
        <ele>238.1</ele>
        <time>2021-07-30T14:17:25Z</time>
      </trkpt>
      <trkpt lat="48.76172" lon="6.83481">
        <ele>238.1</ele>
        <time>2021-07-30T14:17:26Z</time>
      </trkpt>
      <trkpt lat="48.76169" lon="6.83483">
        <ele>238</ele>
        <time>2021-07-30T14:17:28Z</time>
      </trkpt>
      <trkpt lat="48.76168" lon="6.83484">
        <ele>238</ele>
        <time>2021-07-30T14:17:29Z</time>
      </trkpt>
      <trkpt lat="48.76165" lon="6.83486">
        <ele>238</ele>
        <time>2021-07-30T14:17:31Z</time>
      </trkpt>
      <trkpt lat="48.76161" lon="6.83488">
        <ele>238</ele>
        <time>2021-07-30T14:17:33Z</time>
      </trkpt>
      <trkpt lat="48.76158" lon="6.8349">
        <ele>238</ele>
        <time>2021-07-30T14:17:34Z</time>
      </trkpt>
      <trkpt lat="48.76157" lon="6.83491">
        <ele>238</ele>
        <time>2021-07-30T14:17:35Z</time>
      </trkpt>
      <trkpt lat="48.76153" lon="6.83493">
        <ele>237.9</ele>
        <time>2021-07-30T14:17:37Z</time>
      </trkpt>
      <trkpt lat="48.7615" lon="6.83495">
        <ele>237.9</ele>
        <time>2021-07-30T14:17:39Z</time>
      </trkpt>
      <trkpt lat="48.76148" lon="6.83496">
        <ele>237.9</ele>
        <time>2021-07-30T14:17:40Z</time>
      </trkpt>
      <trkpt lat="48.76145" lon="6.83498">
        <ele>237.9</ele>
        <time>2021-07-30T14:17:42Z</time>
      </trkpt>
      <trkpt lat="48.76142" lon="6.835">
        <ele>237.9</ele>
        <time>2021-07-30T14:17:43Z</time>
      </trkpt>
      <trkpt lat="48.76141" lon="6.83501">
        <ele>237.9</ele>
        <time>2021-07-30T14:17:44Z</time>
      </trkpt>
      <trkpt lat="48.76137" lon="6.83504">
        <ele>237.8</ele>
        <time>2021-07-30T14:17:46Z</time>
      </trkpt>
      <trkpt lat="48.76134" lon="6.83507">
        <ele>237.8</ele>
        <time>2021-07-30T14:17:48Z</time>
      </trkpt>
      <trkpt lat="48.76132" lon="6.83508">
        <ele>237.8</ele>
        <time>2021-07-30T14:17:49Z</time>
      </trkpt>
      <trkpt lat="48.76131" lon="6.83509">
        <ele>237.8</ele>
        <time>2021-07-30T14:17:50Z</time>
      </trkpt>
      <trkpt lat="48.76128" lon="6.83512">
        <ele>237.8</ele>
        <time>2021-07-30T14:17:51Z</time>
      </trkpt>
      <trkpt lat="48.76128" lon="6.83513">
        <ele>237.8</ele>
        <time>2021-07-30T14:17:52Z</time>
      </trkpt>
      <trkpt lat="48.76126" lon="6.83515">
        <ele>237.8</ele>
        <time>2021-07-30T14:17:53Z</time>
      </trkpt>
      <trkpt lat="48.76124" lon="6.83516">
        <ele>237.7</ele>
        <time>2021-07-30T14:17:55Z</time>
      </trkpt>
      <trkpt lat="48.76123" lon="6.83518">
        <ele>237.7</ele>
        <time>2021-07-30T14:17:56Z</time>
      </trkpt>
      <trkpt lat="48.76122" lon="6.83519">
        <ele>237.7</ele>
        <time>2021-07-30T14:17:57Z</time>
      </trkpt>
      <trkpt lat="48.7612" lon="6.83521">
        <ele>237.7</ele>
        <time>2021-07-30T14:17:59Z</time>
      </trkpt>
      <trkpt lat="48.76119" lon="6.83522">
        <ele>237.7</ele>
        <time>2021-07-30T14:18:00Z</time>
      </trkpt>
      <trkpt lat="48.76118" lon="6.83523">
        <ele>237.7</ele>
        <time>2021-07-30T14:18:01Z</time>
      </trkpt>
      <trkpt lat="48.76118" lon="6.83524">
        <ele>237.7</ele>
        <time>2021-07-30T14:18:03Z</time>
      </trkpt>
      <trkpt lat="48.76118" lon="6.83525">
        <ele>237.7</ele>
        <time>2021-07-30T14:18:04Z</time>
      </trkpt>
      <trkpt lat="48.76117" lon="6.83525">
        <ele>237.7</ele>
        <time>2021-07-30T14:18:07Z</time>
      </trkpt>
      <trkpt lat="48.76117" lon="6.83525">
        <ele>237.7</ele>
        <time>2021-07-30T14:18:08Z</time>
      </trkpt>
      <trkpt lat="48.76116" lon="6.83525">
        <ele>237.7</ele>
        <time>2021-07-30T14:18:09Z</time>
      </trkpt>
      <trkpt lat="48.76115" lon="6.83525">
        <ele>237.7</ele>
        <time>2021-07-30T14:18:11Z</time>
      </trkpt>
      <trkpt lat="48.76114" lon="6.83525">
        <ele>237.7</ele>
        <time>2021-07-30T14:18:13Z</time>
      </trkpt>
      <trkpt lat="48.76113" lon="6.83525">
        <ele>237.7</ele>
        <time>2021-07-30T14:18:14Z</time>
      </trkpt>
      <trkpt lat="48.76102" lon="6.83532">
        <ele>237.6</ele>
        <time>2021-07-30T14:18:23Z</time>
      </trkpt>
      <trkpt lat="48.76098" lon="6.83534">
        <ele>237.6</ele>
        <time>2021-07-30T14:18:25Z</time>
      </trkpt>
      <trkpt lat="48.76096" lon="6.83535">
        <ele>237.6</ele>
        <time>2021-07-30T14:18:26Z</time>
      </trkpt>
      <trkpt lat="48.76095" lon="6.83536">
        <ele>237.6</ele>
        <time>2021-07-30T14:18:27Z</time>
      </trkpt>
      <trkpt lat="48.76092" lon="6.83538">
        <ele>237.5</ele>
        <time>2021-07-30T14:18:28Z</time>
      </trkpt>
      <trkpt lat="48.76091" lon="6.83539">
        <ele>237.5</ele>
        <time>2021-07-30T14:18:30Z</time>
      </trkpt>
      <trkpt lat="48.7609" lon="6.8354">
        <ele>237.5</ele>
        <time>2021-07-30T14:18:31Z</time>
      </trkpt>
      <trkpt lat="48.76089" lon="6.83541">
        <ele>237.5</ele>
        <time>2021-07-30T14:18:32Z</time>
      </trkpt>
      <trkpt lat="48.76087" lon="6.83543">
        <ele>237.5</ele>
        <time>2021-07-30T14:18:34Z</time>
      </trkpt>
      <trkpt lat="48.76086" lon="6.83544">
        <ele>237.5</ele>
        <time>2021-07-30T14:18:35Z</time>
      </trkpt>
      <trkpt lat="48.76085" lon="6.83544">
        <ele>237.5</ele>
        <time>2021-07-30T14:18:36Z</time>
      </trkpt>
      <trkpt lat="48.76083" lon="6.83546">
        <ele>237.5</ele>
        <time>2021-07-30T14:18:38Z</time>
      </trkpt>
      <trkpt lat="48.76082" lon="6.83547">
        <ele>237.5</ele>
        <time>2021-07-30T14:18:39Z</time>
      </trkpt>
      <trkpt lat="48.76081" lon="6.83549">
        <ele>237.5</ele>
        <time>2021-07-30T14:18:40Z</time>
      </trkpt>
      <trkpt lat="48.7608" lon="6.8355">
        <ele>237.5</ele>
        <time>2021-07-30T14:18:42Z</time>
      </trkpt>
      <trkpt lat="48.76079" lon="6.83552">
        <ele>237.4</ele>
        <time>2021-07-30T14:18:44Z</time>
      </trkpt>
      <trkpt lat="48.76078" lon="6.83553">
        <ele>237.4</ele>
        <time>2021-07-30T14:18:45Z</time>
      </trkpt>
      <trkpt lat="48.76077" lon="6.83554">
        <ele>237.4</ele>
        <time>2021-07-30T14:18:47Z</time>
      </trkpt>
      <trkpt lat="48.76077" lon="6.83556">
        <ele>237.4</ele>
        <time>2021-07-30T14:18:48Z</time>
      </trkpt>
      <trkpt lat="48.76076" lon="6.83557">
        <ele>237.4</ele>
        <time>2021-07-30T14:18:50Z</time>
      </trkpt>
      <trkpt lat="48.76075" lon="6.83558">
        <ele>237.4</ele>
        <time>2021-07-30T14:18:51Z</time>
      </trkpt>
      <trkpt lat="48.76075" lon="6.83558">
        <ele>237.4</ele>
        <time>2021-07-30T14:18:52Z</time>
      </trkpt>
      <trkpt lat="48.76073" lon="6.8356">
        <ele>237.4</ele>
        <time>2021-07-30T14:18:53Z</time>
      </trkpt>
      <trkpt lat="48.76072" lon="6.83561">
        <ele>237.4</ele>
        <time>2021-07-30T14:18:55Z</time>
      </trkpt>
      <trkpt lat="48.7607" lon="6.83562">
        <ele>237.4</ele>
        <time>2021-07-30T14:18:56Z</time>
      </trkpt>
      <trkpt lat="48.76069" lon="6.83562">
        <ele>237.4</ele>
        <time>2021-07-30T14:18:57Z</time>
      </trkpt>
      <trkpt lat="48.76067" lon="6.83564">
        <ele>237.4</ele>
        <time>2021-07-30T14:18:59Z</time>
      </trkpt>
      <trkpt lat="48.76067" lon="6.83565">
        <ele>237.4</ele>
        <time>2021-07-30T14:19:00Z</time>
      </trkpt>
      <trkpt lat="48.76066" lon="6.83566">
        <ele>237.4</ele>
        <time>2021-07-30T14:19:01Z</time>
      </trkpt>
      <trkpt lat="48.76064" lon="6.83567">
        <ele>237.3</ele>
        <time>2021-07-30T14:19:02Z</time>
      </trkpt>
      <trkpt lat="48.76064" lon="6.83568">
        <ele>237.3</ele>
        <time>2021-07-30T14:19:04Z</time>
      </trkpt>
      <trkpt lat="48.76063" lon="6.8357">
        <ele>237.3</ele>
        <time>2021-07-30T14:19:05Z</time>
      </trkpt>
      <trkpt lat="48.76062" lon="6.83572">
        <ele>237.3</ele>
        <time>2021-07-30T14:19:06Z</time>
      </trkpt>
      <trkpt lat="48.7606" lon="6.83574">
        <ele>237.3</ele>
        <time>2021-07-30T14:19:07Z</time>
      </trkpt>
      <trkpt lat="48.7606" lon="6.83575">
        <ele>239.9</ele>
        <time>2021-07-30T14:19:09Z</time>
      </trkpt>
      <trkpt lat="48.76059" lon="6.83575">
        <ele>239.9</ele>
        <time>2021-07-30T14:19:10Z</time>
      </trkpt>
      <trkpt lat="48.76058" lon="6.83578">
        <ele>240</ele>
        <time>2021-07-30T14:19:11Z</time>
      </trkpt>
      <trkpt lat="48.76057" lon="6.83579">
        <ele>240</ele>
        <time>2021-07-30T14:19:13Z</time>
      </trkpt>
      <trkpt lat="48.76056" lon="6.8358">
        <ele>240.1</ele>
        <time>2021-07-30T14:19:14Z</time>
      </trkpt>
      <trkpt lat="48.76056" lon="6.83581">
        <ele>240.1</ele>
        <time>2021-07-30T14:19:15Z</time>
      </trkpt>
      <trkpt lat="48.76055" lon="6.83583">
        <ele>240.1</ele>
        <time>2021-07-30T14:19:16Z</time>
      </trkpt>
      <trkpt lat="48.76055" lon="6.83584">
        <ele>240.2</ele>
        <time>2021-07-30T14:19:18Z</time>
      </trkpt>
      <trkpt lat="48.76055" lon="6.83586">
        <ele>240.2</ele>
        <time>2021-07-30T14:19:19Z</time>
      </trkpt>
      <trkpt lat="48.76053" lon="6.83589">
        <ele>240.3</ele>
        <time>2021-07-30T14:19:20Z</time>
      </trkpt>
      <trkpt lat="48.76053" lon="6.8359">
        <ele>240.3</ele>
        <time>2021-07-30T14:19:22Z</time>
      </trkpt>
      <trkpt lat="48.76052" lon="6.83591">
        <ele>240.3</ele>
        <time>2021-07-30T14:19:23Z</time>
      </trkpt>
      <trkpt lat="48.76051" lon="6.83593">
        <ele>240.4</ele>
        <time>2021-07-30T14:19:24Z</time>
      </trkpt>
      <trkpt lat="48.76051" lon="6.83595">
        <ele>240.5</ele>
        <time>2021-07-30T14:19:26Z</time>
      </trkpt>
      <trkpt lat="48.76049" lon="6.83597">
        <ele>240.5</ele>
        <time>2021-07-30T14:19:27Z</time>
      </trkpt>
      <trkpt lat="48.76048" lon="6.836">
        <ele>240.6</ele>
        <time>2021-07-30T14:19:28Z</time>
      </trkpt>
      <trkpt lat="48.76048" lon="6.83601">
        <ele>240.6</ele>
        <time>2021-07-30T14:19:29Z</time>
      </trkpt>
      <trkpt lat="48.76047" lon="6.83602">
        <ele>240.6</ele>
        <time>2021-07-30T14:19:30Z</time>
      </trkpt>
      <trkpt lat="48.76047" lon="6.83604">
        <ele>240.7</ele>
        <time>2021-07-30T14:19:32Z</time>
      </trkpt>
      <trkpt lat="48.76046" lon="6.83606">
        <ele>240.7</ele>
        <time>2021-07-30T14:19:33Z</time>
      </trkpt>
      <trkpt lat="48.76045" lon="6.83609">
        <ele>240.8</ele>
        <time>2021-07-30T14:19:34Z</time>
      </trkpt>
      <trkpt lat="48.76045" lon="6.8361">
        <ele>240.9</ele>
        <time>2021-07-30T14:19:36Z</time>
      </trkpt>
      <trkpt lat="48.76044" lon="6.83612">
        <ele>240.9</ele>
        <time>2021-07-30T14:19:37Z</time>
      </trkpt>
      <trkpt lat="48.76043" lon="6.83615">
        <ele>241</ele>
        <time>2021-07-30T14:19:38Z</time>
      </trkpt>
      <trkpt lat="48.76043" lon="6.83617">
        <ele>241</ele>
        <time>2021-07-30T14:19:39Z</time>
      </trkpt>
      <trkpt lat="48.76042" lon="6.83619">
        <ele>241.1</ele>
        <time>2021-07-30T14:19:41Z</time>
      </trkpt>
      <trkpt lat="48.76041" lon="6.83621">
        <ele>241.1</ele>
        <time>2021-07-30T14:19:42Z</time>
      </trkpt>
      <trkpt lat="48.7604" lon="6.83622">
        <ele>241.1</ele>
        <time>2021-07-30T14:19:43Z</time>
      </trkpt>
      <trkpt lat="48.76039" lon="6.83624">
        <ele>241.2</ele>
        <time>2021-07-30T14:19:45Z</time>
      </trkpt>
      <trkpt lat="48.76039" lon="6.83625">
        <ele>241.2</ele>
        <time>2021-07-30T14:19:46Z</time>
      </trkpt>
      <trkpt lat="48.76037" lon="6.83628">
        <ele>241.3</ele>
        <time>2021-07-30T14:19:47Z</time>
      </trkpt>
      <trkpt lat="48.76037" lon="6.83629">
        <ele>241.3</ele>
        <time>2021-07-30T14:19:49Z</time>
      </trkpt>
      <trkpt lat="48.76036" lon="6.8363">
        <ele>241.4</ele>
        <time>2021-07-30T14:19:50Z</time>
      </trkpt>
      <trkpt lat="48.76034" lon="6.83633">
        <ele>241.5</ele>
        <time>2021-07-30T14:19:51Z</time>
      </trkpt>
      <trkpt lat="48.76034" lon="6.83634">
        <ele>241.5</ele>
        <time>2021-07-30T14:19:53Z</time>
      </trkpt>
      <trkpt lat="48.76033" lon="6.83635">
        <ele>241.5</ele>
        <time>2021-07-30T14:19:54Z</time>
      </trkpt>
      <trkpt lat="48.76033" lon="6.83636">
        <ele>241.5</ele>
        <time>2021-07-30T14:19:55Z</time>
      </trkpt>
      <trkpt lat="48.76031" lon="6.8364">
        <ele>241.7</ele>
        <time>2021-07-30T14:19:57Z</time>
      </trkpt>
      <trkpt lat="48.76031" lon="6.83642">
        <ele>241.7</ele>
        <time>2021-07-30T14:19:58Z</time>
      </trkpt>
      <trkpt lat="48.7603" lon="6.83643">
        <ele>241.7</ele>
        <time>2021-07-30T14:19:59Z</time>
      </trkpt>
      <trkpt lat="48.7603" lon="6.83645">
        <ele>241.8</ele>
        <time>2021-07-30T14:20:01Z</time>
      </trkpt>
      <trkpt lat="48.76029" lon="6.83645">
        <ele>241.8</ele>
        <time>2021-07-30T14:20:02Z</time>
      </trkpt>
      <trkpt lat="48.76028" lon="6.83648">
        <ele>241.8</ele>
        <time>2021-07-30T14:20:04Z</time>
      </trkpt>
      <trkpt lat="48.76028" lon="6.83648">
        <ele>241.9</ele>
        <time>2021-07-30T14:20:05Z</time>
      </trkpt>
      <trkpt lat="48.76027" lon="6.83648">
        <ele>241.9</ele>
        <time>2021-07-30T14:20:06Z</time>
      </trkpt>
      <trkpt lat="48.76027" lon="6.83649">
        <ele>241.9</ele>
        <time>2021-07-30T14:20:07Z</time>
      </trkpt>
      <trkpt lat="48.76027" lon="6.83649">
        <ele>241.9</ele>
        <time>2021-07-30T14:20:09Z</time>
      </trkpt>
      <trkpt lat="48.76026" lon="6.8365">
        <ele>241.9</ele>
        <time>2021-07-30T14:20:10Z</time>
      </trkpt>
      <trkpt lat="48.76026" lon="6.83651">
        <ele>241.9</ele>
        <time>2021-07-30T14:20:11Z</time>
      </trkpt>
      <trkpt lat="48.76025" lon="6.83652">
        <ele>242</ele>
        <time>2021-07-30T14:20:13Z</time>
      </trkpt>
      <trkpt lat="48.76024" lon="6.83654">
        <ele>242</ele>
        <time>2021-07-30T14:20:14Z</time>
      </trkpt>
      <trkpt lat="48.76023" lon="6.83657">
        <ele>242.1</ele>
        <time>2021-07-30T14:20:16Z</time>
      </trkpt>
      <trkpt lat="48.76023" lon="6.83658">
        <ele>242.1</ele>
        <time>2021-07-30T14:20:18Z</time>
      </trkpt>
      <trkpt lat="48.75999" lon="6.83683">
        <ele>242.8</ele>
        <time>2021-07-30T14:20:46Z</time>
      </trkpt>
      <trkpt lat="48.75997" lon="6.83684">
        <ele>242.9</ele>
        <time>2021-07-30T14:20:47Z</time>
      </trkpt>
      <trkpt lat="48.75997" lon="6.83684">
        <ele>242.9</ele>
        <time>2021-07-30T14:20:48Z</time>
      </trkpt>
      <trkpt lat="48.75994" lon="6.83686">
        <ele>242.9</ele>
        <time>2021-07-30T14:20:50Z</time>
      </trkpt>
      <trkpt lat="48.75993" lon="6.83688">
        <ele>242.9</ele>
        <time>2021-07-30T14:20:51Z</time>
      </trkpt>
      <trkpt lat="48.75991" lon="6.83694">
        <ele>242.9</ele>
        <time>2021-07-30T14:20:52Z</time>
      </trkpt>
      <trkpt lat="48.7599" lon="6.83698">
        <ele>242.9</ele>
        <time>2021-07-30T14:20:54Z</time>
      </trkpt>
      <trkpt lat="48.75989" lon="6.83702">
        <ele>242.9</ele>
        <time>2021-07-30T14:20:56Z</time>
      </trkpt>
      <trkpt lat="48.75988" lon="6.83705">
        <ele>242.9</ele>
        <time>2021-07-30T14:20:57Z</time>
      </trkpt>
      <trkpt lat="48.75986" lon="6.83707">
        <ele>242.9</ele>
        <time>2021-07-30T14:20:59Z</time>
      </trkpt>
      <trkpt lat="48.75984" lon="6.8371">
        <ele>242.9</ele>
        <time>2021-07-30T14:21:01Z</time>
      </trkpt>
      <trkpt lat="48.75982" lon="6.83711">
        <ele>242.9</ele>
        <time>2021-07-30T14:21:02Z</time>
      </trkpt>
      <trkpt lat="48.7598" lon="6.83713">
        <ele>243</ele>
        <time>2021-07-30T14:21:04Z</time>
      </trkpt>
      <trkpt lat="48.75979" lon="6.83715">
        <ele>243</ele>
        <time>2021-07-30T14:21:05Z</time>
      </trkpt>
      <trkpt lat="48.75978" lon="6.83717">
        <ele>243</ele>
        <time>2021-07-30T14:21:06Z</time>
      </trkpt>
      <trkpt lat="48.75977" lon="6.8372">
        <ele>243</ele>
        <time>2021-07-30T14:21:07Z</time>
      </trkpt>
      <trkpt lat="48.75976" lon="6.83721">
        <ele>243</ele>
        <time>2021-07-30T14:21:09Z</time>
      </trkpt>
      <trkpt lat="48.75976" lon="6.83722">
        <ele>243</ele>
        <time>2021-07-30T14:21:10Z</time>
      </trkpt>
      <trkpt lat="48.75974" lon="6.83726">
        <ele>243</ele>
        <time>2021-07-30T14:21:12Z</time>
      </trkpt>
      <trkpt lat="48.75973" lon="6.83727">
        <ele>243</ele>
        <time>2021-07-30T14:21:13Z</time>
      </trkpt>
      <trkpt lat="48.75973" lon="6.83728">
        <ele>243</ele>
        <time>2021-07-30T14:21:14Z</time>
      </trkpt>
      <trkpt lat="48.75971" lon="6.83728">
        <ele>243</ele>
        <time>2021-07-30T14:21:15Z</time>
      </trkpt>
      <trkpt lat="48.7597" lon="6.83729">
        <ele>243</ele>
        <time>2021-07-30T14:21:16Z</time>
      </trkpt>
      <trkpt lat="48.75969" lon="6.8373">
        <ele>243</ele>
        <time>2021-07-30T14:21:18Z</time>
      </trkpt>
      <trkpt lat="48.75968" lon="6.83731">
        <ele>243</ele>
        <time>2021-07-30T14:21:19Z</time>
      </trkpt>
      <trkpt lat="48.75967" lon="6.83732">
        <ele>243</ele>
        <time>2021-07-30T14:21:20Z</time>
      </trkpt>
      <trkpt lat="48.75965" lon="6.83734">
        <ele>243</ele>
        <time>2021-07-30T14:21:21Z</time>
      </trkpt>
      <trkpt lat="48.75965" lon="6.83736">
        <ele>243</ele>
        <time>2021-07-30T14:21:23Z</time>
      </trkpt>
      <trkpt lat="48.75965" lon="6.83738">
        <ele>243</ele>
        <time>2021-07-30T14:21:25Z</time>
      </trkpt>
      <trkpt lat="48.75964" lon="6.8374">
        <ele>243</ele>
        <time>2021-07-30T14:21:26Z</time>
      </trkpt>
      <trkpt lat="48.75963" lon="6.83741">
        <ele>243.1</ele>
        <time>2021-07-30T14:21:27Z</time>
      </trkpt>
      <trkpt lat="48.75961" lon="6.83741">
        <ele>243.1</ele>
        <time>2021-07-30T14:21:28Z</time>
      </trkpt>
      <trkpt lat="48.7596" lon="6.83742">
        <ele>243.1</ele>
        <time>2021-07-30T14:21:29Z</time>
      </trkpt>
      <trkpt lat="48.75957" lon="6.83744">
        <ele>243.1</ele>
        <time>2021-07-30T14:21:32Z</time>
      </trkpt>
      <trkpt lat="48.75957" lon="6.83744">
        <ele>243.1</ele>
        <time>2021-07-30T14:21:33Z</time>
      </trkpt>
      <trkpt lat="48.75955" lon="6.83746">
        <ele>243.1</ele>
        <time>2021-07-30T14:21:34Z</time>
      </trkpt>
      <trkpt lat="48.75954" lon="6.83746">
        <ele>243.1</ele>
        <time>2021-07-30T14:21:35Z</time>
      </trkpt>
      <trkpt lat="48.75953" lon="6.83747">
        <ele>243.1</ele>
        <time>2021-07-30T14:21:36Z</time>
      </trkpt>
      <trkpt lat="48.75951" lon="6.83748">
        <ele>243.1</ele>
        <time>2021-07-30T14:21:38Z</time>
      </trkpt>
      <trkpt lat="48.7595" lon="6.83749">
        <ele>243.1</ele>
        <time>2021-07-30T14:21:40Z</time>
      </trkpt>
      <trkpt lat="48.75948" lon="6.83751">
        <ele>243.1</ele>
        <time>2021-07-30T14:21:41Z</time>
      </trkpt>
      <trkpt lat="48.75947" lon="6.83751">
        <ele>243.1</ele>
        <time>2021-07-30T14:21:42Z</time>
      </trkpt>
      <trkpt lat="48.75947" lon="6.83752">
        <ele>243.1</ele>
        <time>2021-07-30T14:21:43Z</time>
      </trkpt>
      <trkpt lat="48.75945" lon="6.83753">
        <ele>243.1</ele>
        <time>2021-07-30T14:21:44Z</time>
      </trkpt>
      <trkpt lat="48.75944" lon="6.83753">
        <ele>243.1</ele>
        <time>2021-07-30T14:21:45Z</time>
      </trkpt>
      <trkpt lat="48.75942" lon="6.83754">
        <ele>243.1</ele>
        <time>2021-07-30T14:21:47Z</time>
      </trkpt>
      <trkpt lat="48.75941" lon="6.83754">
        <ele>243.1</ele>
        <time>2021-07-30T14:21:48Z</time>
      </trkpt>
      <trkpt lat="48.7594" lon="6.83754">
        <ele>243.1</ele>
        <time>2021-07-30T14:21:49Z</time>
      </trkpt>
      <trkpt lat="48.75939" lon="6.83755">
        <ele>243.2</ele>
        <time>2021-07-30T14:21:50Z</time>
      </trkpt>
      <trkpt lat="48.75938" lon="6.83756">
        <ele>243.2</ele>
        <time>2021-07-30T14:21:52Z</time>
      </trkpt>
      <trkpt lat="48.75936" lon="6.83757">
        <ele>243.2</ele>
        <time>2021-07-30T14:21:53Z</time>
      </trkpt>
      <trkpt lat="48.75935" lon="6.83758">
        <ele>243.2</ele>
        <time>2021-07-30T14:21:55Z</time>
      </trkpt>
      <trkpt lat="48.75933" lon="6.8376">
        <ele>243.2</ele>
        <time>2021-07-30T14:21:56Z</time>
      </trkpt>
      <trkpt lat="48.75933" lon="6.8376">
        <ele>243.2</ele>
        <time>2021-07-30T14:21:58Z</time>
      </trkpt>
      <trkpt lat="48.75932" lon="6.83761">
        <ele>243.2</ele>
        <time>2021-07-30T14:21:59Z</time>
      </trkpt>
      <trkpt lat="48.75931" lon="6.83762">
        <ele>243.2</ele>
        <time>2021-07-30T14:22:00Z</time>
      </trkpt>
      <trkpt lat="48.7593" lon="6.83763">
        <ele>243.2</ele>
        <time>2021-07-30T14:22:02Z</time>
      </trkpt>
      <trkpt lat="48.75929" lon="6.83764">
        <ele>243.2</ele>
        <time>2021-07-30T14:22:03Z</time>
      </trkpt>
      <trkpt lat="48.75928" lon="6.83764">
        <ele>243.2</ele>
        <time>2021-07-30T14:22:04Z</time>
      </trkpt>
      <trkpt lat="48.75928" lon="6.83765">
        <ele>243.2</ele>
        <time>2021-07-30T14:22:05Z</time>
      </trkpt>
      <trkpt lat="48.75926" lon="6.83767">
        <ele>243.2</ele>
        <time>2021-07-30T14:22:06Z</time>
      </trkpt>
      <trkpt lat="48.75925" lon="6.83768">
        <ele>243.2</ele>
        <time>2021-07-30T14:22:08Z</time>
      </trkpt>
      <trkpt lat="48.75925" lon="6.83769">
        <ele>243.2</ele>
        <time>2021-07-30T14:22:09Z</time>
      </trkpt>
      <trkpt lat="48.75923" lon="6.83771">
        <ele>243.2</ele>
        <time>2021-07-30T14:22:10Z</time>
      </trkpt>
      <trkpt lat="48.75922" lon="6.83772">
        <ele>243.2</ele>
        <time>2021-07-30T14:22:11Z</time>
      </trkpt>
      <trkpt lat="48.75921" lon="6.83773">
        <ele>243.2</ele>
        <time>2021-07-30T14:22:12Z</time>
      </trkpt>
      <trkpt lat="48.7592" lon="6.83774">
        <ele>243.2</ele>
        <time>2021-07-30T14:22:13Z</time>
      </trkpt>
      <trkpt lat="48.75919" lon="6.83776">
        <ele>243.2</ele>
        <time>2021-07-30T14:22:14Z</time>
      </trkpt>
      <trkpt lat="48.75918" lon="6.83776">
        <ele>243.3</ele>
        <time>2021-07-30T14:22:16Z</time>
      </trkpt>
      <trkpt lat="48.75916" lon="6.83778">
        <ele>243.3</ele>
        <time>2021-07-30T14:22:17Z</time>
      </trkpt>
      <trkpt lat="48.75915" lon="6.83779">
        <ele>243.3</ele>
        <time>2021-07-30T14:22:18Z</time>
      </trkpt>
      <trkpt lat="48.75914" lon="6.8378">
        <ele>243.3</ele>
        <time>2021-07-30T14:22:19Z</time>
      </trkpt>
      <trkpt lat="48.75913" lon="6.83781">
        <ele>243.3</ele>
        <time>2021-07-30T14:22:21Z</time>
      </trkpt>
      <trkpt lat="48.75912" lon="6.83781">
        <ele>243.3</ele>
        <time>2021-07-30T14:22:22Z</time>
      </trkpt>
      <trkpt lat="48.75912" lon="6.83783">
        <ele>243.3</ele>
        <time>2021-07-30T14:22:23Z</time>
      </trkpt>
      <trkpt lat="48.75911" lon="6.83785">
        <ele>243.3</ele>
        <time>2021-07-30T14:22:24Z</time>
      </trkpt>
      <trkpt lat="48.75909" lon="6.83788">
        <ele>243.3</ele>
        <time>2021-07-30T14:22:25Z</time>
      </trkpt>
      <trkpt lat="48.75908" lon="6.83789">
        <ele>243.3</ele>
        <time>2021-07-30T14:22:27Z</time>
      </trkpt>
      <trkpt lat="48.75906" lon="6.83791">
        <ele>243.3</ele>
        <time>2021-07-30T14:22:29Z</time>
      </trkpt>
      <trkpt lat="48.75905" lon="6.83792">
        <ele>243.3</ele>
        <time>2021-07-30T14:22:30Z</time>
      </trkpt>
      <trkpt lat="48.75903" lon="6.83795">
        <ele>243.3</ele>
        <time>2021-07-30T14:22:32Z</time>
      </trkpt>
      <trkpt lat="48.75902" lon="6.83796">
        <ele>243.3</ele>
        <time>2021-07-30T14:22:33Z</time>
      </trkpt>
      <trkpt lat="48.75902" lon="6.83797">
        <ele>243.3</ele>
        <time>2021-07-30T14:22:34Z</time>
      </trkpt>
      <trkpt lat="48.75901" lon="6.83799">
        <ele>243.3</ele>
        <time>2021-07-30T14:22:35Z</time>
      </trkpt>
      <trkpt lat="48.75899" lon="6.83802">
        <ele>243.3</ele>
        <time>2021-07-30T14:22:37Z</time>
      </trkpt>
      <trkpt lat="48.75898" lon="6.83803">
        <ele>243.4</ele>
        <time>2021-07-30T14:22:38Z</time>
      </trkpt>
      <trkpt lat="48.75896" lon="6.83805">
        <ele>243.4</ele>
        <time>2021-07-30T14:22:40Z</time>
      </trkpt>
      <trkpt lat="48.75896" lon="6.83805">
        <ele>243.4</ele>
        <time>2021-07-30T14:22:41Z</time>
      </trkpt>
      <trkpt lat="48.75894" lon="6.83807">
        <ele>243.4</ele>
        <time>2021-07-30T14:22:42Z</time>
      </trkpt>
      <trkpt lat="48.75893" lon="6.83808">
        <ele>243.4</ele>
        <time>2021-07-30T14:22:43Z</time>
      </trkpt>
      <trkpt lat="48.75892" lon="6.83809">
        <ele>243.4</ele>
        <time>2021-07-30T14:22:44Z</time>
      </trkpt>
      <trkpt lat="48.7589" lon="6.83811">
        <ele>243.4</ele>
        <time>2021-07-30T14:22:46Z</time>
      </trkpt>
      <trkpt lat="48.75888" lon="6.83813">
        <ele>243.4</ele>
        <time>2021-07-30T14:22:47Z</time>
      </trkpt>
      <trkpt lat="48.75887" lon="6.83814">
        <ele>243.4</ele>
        <time>2021-07-30T14:22:48Z</time>
      </trkpt>
      <trkpt lat="48.75886" lon="6.83816">
        <ele>243.4</ele>
        <time>2021-07-30T14:22:49Z</time>
      </trkpt>
      <trkpt lat="48.75885" lon="6.83817">
        <ele>243.4</ele>
        <time>2021-07-30T14:22:51Z</time>
      </trkpt>
      <trkpt lat="48.75884" lon="6.83819">
        <ele>243.4</ele>
        <time>2021-07-30T14:22:52Z</time>
      </trkpt>
      <trkpt lat="48.75882" lon="6.83819">
        <ele>243.4</ele>
        <time>2021-07-30T14:22:53Z</time>
      </trkpt>
      <trkpt lat="48.75881" lon="6.8382">
        <ele>243.4</ele>
        <time>2021-07-30T14:22:54Z</time>
      </trkpt>
      <trkpt lat="48.7588" lon="6.83821">
        <ele>243.4</ele>
        <time>2021-07-30T14:22:56Z</time>
      </trkpt>
      <trkpt lat="48.75878" lon="6.83821">
        <ele>243.4</ele>
        <time>2021-07-30T14:22:58Z</time>
      </trkpt>
      <trkpt lat="48.75877" lon="6.83822">
        <ele>243.4</ele>
        <time>2021-07-30T14:22:59Z</time>
      </trkpt>
      <trkpt lat="48.75876" lon="6.83823">
        <ele>243.4</ele>
        <time>2021-07-30T14:23:00Z</time>
      </trkpt>
      <trkpt lat="48.75875" lon="6.83824">
        <ele>243.5</ele>
        <time>2021-07-30T14:23:02Z</time>
      </trkpt>
      <trkpt lat="48.75875" lon="6.83826">
        <ele>243.5</ele>
        <time>2021-07-30T14:23:03Z</time>
      </trkpt>
      <trkpt lat="48.75873" lon="6.83828">
        <ele>243.5</ele>
        <time>2021-07-30T14:23:04Z</time>
      </trkpt>
      <trkpt lat="48.75873" lon="6.83829">
        <ele>243.5</ele>
        <time>2021-07-30T14:23:05Z</time>
      </trkpt>
      <trkpt lat="48.75871" lon="6.8383">
        <ele>243.5</ele>
        <time>2021-07-30T14:23:06Z</time>
      </trkpt>
      <trkpt lat="48.75869" lon="6.83834">
        <ele>243.5</ele>
        <time>2021-07-30T14:23:08Z</time>
      </trkpt>
      <trkpt lat="48.75869" lon="6.83835">
        <ele>243.5</ele>
        <time>2021-07-30T14:23:09Z</time>
      </trkpt>
      <trkpt lat="48.75867" lon="6.83837">
        <ele>243.5</ele>
        <time>2021-07-30T14:23:10Z</time>
      </trkpt>
      <trkpt lat="48.75866" lon="6.83838">
        <ele>243.5</ele>
        <time>2021-07-30T14:23:12Z</time>
      </trkpt>
      <trkpt lat="48.75864" lon="6.83839">
        <ele>243.5</ele>
        <time>2021-07-30T14:23:13Z</time>
      </trkpt>
      <trkpt lat="48.75863" lon="6.8384">
        <ele>243.5</ele>
        <time>2021-07-30T14:23:14Z</time>
      </trkpt>
      <trkpt lat="48.75861" lon="6.83845">
        <ele>243.5</ele>
        <time>2021-07-30T14:23:15Z</time>
      </trkpt>
      <trkpt lat="48.7586" lon="6.83847">
        <ele>243.5</ele>
        <time>2021-07-30T14:23:16Z</time>
      </trkpt>
      <trkpt lat="48.7586" lon="6.8385">
        <ele>243.5</ele>
        <time>2021-07-30T14:23:18Z</time>
      </trkpt>
      <trkpt lat="48.7586" lon="6.83852">
        <ele>243.6</ele>
        <time>2021-07-30T14:23:19Z</time>
      </trkpt>
      <trkpt lat="48.75861" lon="6.83854">
        <ele>243.6</ele>
        <time>2021-07-30T14:23:20Z</time>
      </trkpt>
      <trkpt lat="48.75861" lon="6.83857">
        <ele>243.6</ele>
        <time>2021-07-30T14:23:21Z</time>
      </trkpt>
      <trkpt lat="48.75861" lon="6.8386">
        <ele>243.6</ele>
        <time>2021-07-30T14:23:23Z</time>
      </trkpt>
      <trkpt lat="48.75861" lon="6.83863">
        <ele>243.6</ele>
        <time>2021-07-30T14:23:24Z</time>
      </trkpt>
      <trkpt lat="48.75862" lon="6.83865">
        <ele>243.6</ele>
        <time>2021-07-30T14:23:26Z</time>
      </trkpt>
      <trkpt lat="48.75861" lon="6.83869">
        <ele>243.6</ele>
        <time>2021-07-30T14:23:27Z</time>
      </trkpt>
      <trkpt lat="48.75861" lon="6.83871">
        <ele>243.6</ele>
        <time>2021-07-30T14:23:29Z</time>
      </trkpt>
      <trkpt lat="48.75862" lon="6.83873">
        <ele>243.6</ele>
        <time>2021-07-30T14:23:30Z</time>
      </trkpt>
      <trkpt lat="48.75863" lon="6.83875">
        <ele>243.6</ele>
        <time>2021-07-30T14:23:32Z</time>
      </trkpt>
      <trkpt lat="48.75863" lon="6.83877">
        <ele>243.6</ele>
        <time>2021-07-30T14:23:33Z</time>
      </trkpt>
      <trkpt lat="48.75865" lon="6.83881">
        <ele>243.6</ele>
        <time>2021-07-30T14:23:35Z</time>
      </trkpt>
      <trkpt lat="48.75866" lon="6.83883">
        <ele>243.6</ele>
        <time>2021-07-30T14:23:37Z</time>
      </trkpt>
      <trkpt lat="48.75867" lon="6.83884">
        <ele>243.6</ele>
        <time>2021-07-30T14:23:39Z</time>
      </trkpt>
      <trkpt lat="48.75868" lon="6.83884">
        <ele>243.6</ele>
        <time>2021-07-30T14:23:41Z</time>
      </trkpt>
      <trkpt lat="48.75868" lon="6.83885">
        <ele>243.6</ele>
        <time>2021-07-30T14:23:42Z</time>
      </trkpt>
      <trkpt lat="48.75868" lon="6.83884">
        <ele>243.6</ele>
        <time>2021-07-30T14:23:44Z</time>
      </trkpt>
      <trkpt lat="48.75868" lon="6.83885">
        <ele>243.6</ele>
        <time>2021-07-30T14:23:45Z</time>
      </trkpt>
      <trkpt lat="48.75868" lon="6.83886">
        <ele>243.7</ele>
        <time>2021-07-30T14:23:47Z</time>
      </trkpt>
      <trkpt lat="48.75868" lon="6.83889">
        <ele>243.7</ele>
        <time>2021-07-30T14:23:48Z</time>
      </trkpt>
      <trkpt lat="48.75868" lon="6.83894">
        <ele>243.7</ele>
        <time>2021-07-30T14:23:50Z</time>
      </trkpt>
      <trkpt lat="48.75868" lon="6.83896">
        <ele>243.7</ele>
        <time>2021-07-30T14:23:51Z</time>
      </trkpt>
      <trkpt lat="48.75869" lon="6.839">
        <ele>243.7</ele>
        <time>2021-07-30T14:23:53Z</time>
      </trkpt>
      <trkpt lat="48.7587" lon="6.83905">
        <ele>243.7</ele>
        <time>2021-07-30T14:23:54Z</time>
      </trkpt>
      <trkpt lat="48.7587" lon="6.83909">
        <ele>243.7</ele>
        <time>2021-07-30T14:23:55Z</time>
      </trkpt>
      <trkpt lat="48.75871" lon="6.83914">
        <ele>243.7</ele>
        <time>2021-07-30T14:23:56Z</time>
      </trkpt>
      <trkpt lat="48.75874" lon="6.83923">
        <ele>243.7</ele>
        <time>2021-07-30T14:23:58Z</time>
      </trkpt>
      <trkpt lat="48.75875" lon="6.83928">
        <ele>243.8</ele>
        <time>2021-07-30T14:23:59Z</time>
      </trkpt>
      <trkpt lat="48.75877" lon="6.83932">
        <ele>243.8</ele>
        <time>2021-07-30T14:24:00Z</time>
      </trkpt>
      <trkpt lat="48.7588" lon="6.83936">
        <ele>243.8</ele>
        <time>2021-07-30T14:24:01Z</time>
      </trkpt>
      <trkpt lat="48.75884" lon="6.83945">
        <ele>243.8</ele>
        <time>2021-07-30T14:24:03Z</time>
      </trkpt>
      <trkpt lat="48.75886" lon="6.83949">
        <ele>243.8</ele>
        <time>2021-07-30T14:24:04Z</time>
      </trkpt>
      <trkpt lat="48.7589" lon="6.83958">
        <ele>243.9</ele>
        <time>2021-07-30T14:24:06Z</time>
      </trkpt>
      <trkpt lat="48.75891" lon="6.83963">
        <ele>243.9</ele>
        <time>2021-07-30T14:24:07Z</time>
      </trkpt>
      <trkpt lat="48.75894" lon="6.83969">
        <ele>243.9</ele>
        <time>2021-07-30T14:24:08Z</time>
      </trkpt>
      <trkpt lat="48.75896" lon="6.83975">
        <ele>243.9</ele>
        <time>2021-07-30T14:24:09Z</time>
      </trkpt>
      <trkpt lat="48.75899" lon="6.83982">
        <ele>243.9</ele>
        <time>2021-07-30T14:24:11Z</time>
      </trkpt>
      <trkpt lat="48.75902" lon="6.8399">
        <ele>243.9</ele>
        <time>2021-07-30T14:24:13Z</time>
      </trkpt>
      <trkpt lat="48.75904" lon="6.83993">
        <ele>244</ele>
        <time>2021-07-30T14:24:14Z</time>
      </trkpt>
      <trkpt lat="48.75906" lon="6.83997">
        <ele>244</ele>
        <time>2021-07-30T14:24:15Z</time>
      </trkpt>
      <trkpt lat="48.75908" lon="6.84003">
        <ele>244</ele>
        <time>2021-07-30T14:24:17Z</time>
      </trkpt>
      <trkpt lat="48.7591" lon="6.84008">
        <ele>244</ele>
        <time>2021-07-30T14:24:18Z</time>
      </trkpt>
      <trkpt lat="48.75911" lon="6.8401">
        <ele>244</ele>
        <time>2021-07-30T14:24:19Z</time>
      </trkpt>
      <trkpt lat="48.75914" lon="6.84015">
        <ele>244</ele>
        <time>2021-07-30T14:24:20Z</time>
      </trkpt>
      <trkpt lat="48.75915" lon="6.84017">
        <ele>244</ele>
        <time>2021-07-30T14:24:21Z</time>
      </trkpt>
      <trkpt lat="48.75918" lon="6.84022">
        <ele>244</ele>
        <time>2021-07-30T14:24:23Z</time>
      </trkpt>
      <trkpt lat="48.7592" lon="6.84027">
        <ele>244.1</ele>
        <time>2021-07-30T14:24:25Z</time>
      </trkpt>
      <trkpt lat="48.75922" lon="6.84032">
        <ele>244.1</ele>
        <time>2021-07-30T14:24:26Z</time>
      </trkpt>
      <trkpt lat="48.75924" lon="6.84036">
        <ele>244.1</ele>
        <time>2021-07-30T14:24:27Z</time>
      </trkpt>
      <trkpt lat="48.75927" lon="6.84042">
        <ele>244.1</ele>
        <time>2021-07-30T14:24:28Z</time>
      </trkpt>
      <trkpt lat="48.7593" lon="6.84048">
        <ele>244.1</ele>
        <time>2021-07-30T14:24:29Z</time>
      </trkpt>
      <trkpt lat="48.75936" lon="6.84057">
        <ele>244.2</ele>
        <time>2021-07-30T14:24:31Z</time>
      </trkpt>
      <trkpt lat="48.75947" lon="6.84072">
        <ele>244.2</ele>
        <time>2021-07-30T14:24:33Z</time>
      </trkpt>
      <trkpt lat="48.75952" lon="6.84079">
        <ele>244.2</ele>
        <time>2021-07-30T14:24:34Z</time>
      </trkpt>
      <trkpt lat="48.75957" lon="6.84086">
        <ele>244.3</ele>
        <time>2021-07-30T14:24:35Z</time>
      </trkpt>
      <trkpt lat="48.75963" lon="6.84093">
        <ele>244.3</ele>
        <time>2021-07-30T14:24:36Z</time>
      </trkpt>
      <trkpt lat="48.75973" lon="6.84108">
        <ele>244.3</ele>
        <time>2021-07-30T14:24:38Z</time>
      </trkpt>
      <trkpt lat="48.75981" lon="6.84123">
        <ele>244.4</ele>
        <time>2021-07-30T14:24:40Z</time>
      </trkpt>
      <trkpt lat="48.75985" lon="6.8413">
        <ele>244.4</ele>
        <time>2021-07-30T14:24:41Z</time>
      </trkpt>
      <trkpt lat="48.7599" lon="6.84137">
        <ele>244.4</ele>
        <time>2021-07-30T14:24:42Z</time>
      </trkpt>
      <trkpt lat="48.75994" lon="6.84144">
        <ele>244.5</ele>
        <time>2021-07-30T14:24:43Z</time>
      </trkpt>
      <trkpt lat="48.76002" lon="6.84159">
        <ele>244.5</ele>
        <time>2021-07-30T14:24:45Z</time>
      </trkpt>
      <trkpt lat="48.76007" lon="6.84166">
        <ele>244.5</ele>
        <time>2021-07-30T14:24:46Z</time>
      </trkpt>
      <trkpt lat="48.76011" lon="6.84174">
        <ele>244.6</ele>
        <time>2021-07-30T14:24:47Z</time>
      </trkpt>
      <trkpt lat="48.76019" lon="6.8419">
        <ele>244.6</ele>
        <time>2021-07-30T14:24:49Z</time>
      </trkpt>
      <trkpt lat="48.76023" lon="6.84198">
        <ele>244.6</ele>
        <time>2021-07-30T14:24:50Z</time>
      </trkpt>
      <trkpt lat="48.76032" lon="6.84217">
        <ele>244.7</ele>
        <time>2021-07-30T14:24:52Z</time>
      </trkpt>
      <trkpt lat="48.76042" lon="6.84235">
        <ele>244.8</ele>
        <time>2021-07-30T14:24:54Z</time>
      </trkpt>
      <trkpt lat="48.76047" lon="6.84244">
        <ele>244.8</ele>
        <time>2021-07-30T14:24:55Z</time>
      </trkpt>
      <trkpt lat="48.76057" lon="6.84263">
        <ele>244.9</ele>
        <time>2021-07-30T14:24:57Z</time>
      </trkpt>
      <trkpt lat="48.76061" lon="6.84273">
        <ele>244.9</ele>
        <time>2021-07-30T14:24:58Z</time>
      </trkpt>
      <trkpt lat="48.76065" lon="6.84284">
        <ele>244.9</ele>
        <time>2021-07-30T14:24:59Z</time>
      </trkpt>
      <trkpt lat="48.76071" lon="6.84307">
        <ele>245</ele>
        <time>2021-07-30T14:25:01Z</time>
      </trkpt>
      <trkpt lat="48.76076" lon="6.84328">
        <ele>245</ele>
        <time>2021-07-30T14:25:03Z</time>
      </trkpt>
      <trkpt lat="48.76079" lon="6.84339">
        <ele>245.1</ele>
        <time>2021-07-30T14:25:04Z</time>
      </trkpt>
      <trkpt lat="48.76082" lon="6.8435">
        <ele>245.1</ele>
        <time>2021-07-30T14:25:05Z</time>
      </trkpt>
      <trkpt lat="48.76085" lon="6.84361">
        <ele>245.1</ele>
        <time>2021-07-30T14:25:06Z</time>
      </trkpt>
      <trkpt lat="48.76088" lon="6.84372">
        <ele>245.2</ele>
        <time>2021-07-30T14:25:07Z</time>
      </trkpt>
      <trkpt lat="48.76095" lon="6.84394">
        <ele>245.2</ele>
        <time>2021-07-30T14:25:09Z</time>
      </trkpt>
      <trkpt lat="48.76098" lon="6.84405">
        <ele>245.2</ele>
        <time>2021-07-30T14:25:10Z</time>
      </trkpt>
      <trkpt lat="48.76101" lon="6.84415">
        <ele>245.3</ele>
        <time>2021-07-30T14:25:11Z</time>
      </trkpt>
      <trkpt lat="48.76107" lon="6.84437">
        <ele>245.3</ele>
        <time>2021-07-30T14:25:13Z</time>
      </trkpt>
      <trkpt lat="48.76113" lon="6.84458">
        <ele>245.4</ele>
        <time>2021-07-30T14:25:15Z</time>
      </trkpt>
      <trkpt lat="48.76115" lon="6.84469">
        <ele>245.4</ele>
        <time>2021-07-30T14:25:16Z</time>
      </trkpt>
      <trkpt lat="48.76118" lon="6.84479">
        <ele>245.4</ele>
        <time>2021-07-30T14:25:17Z</time>
      </trkpt>
      <trkpt lat="48.7612" lon="6.84489">
        <ele>245.5</ele>
        <time>2021-07-30T14:25:18Z</time>
      </trkpt>
      <trkpt lat="48.76125" lon="6.84509">
        <ele>245.5</ele>
        <time>2021-07-30T14:25:20Z</time>
      </trkpt>
      <trkpt lat="48.76127" lon="6.84519">
        <ele>245.5</ele>
        <time>2021-07-30T14:25:21Z</time>
      </trkpt>
      <trkpt lat="48.76132" lon="6.84538">
        <ele>245.6</ele>
        <time>2021-07-30T14:25:23Z</time>
      </trkpt>
      <trkpt lat="48.76136" lon="6.84555">
        <ele>245.6</ele>
        <time>2021-07-30T14:25:25Z</time>
      </trkpt>
      <trkpt lat="48.76141" lon="6.84571">
        <ele>245.7</ele>
        <time>2021-07-30T14:25:27Z</time>
      </trkpt>
      <trkpt lat="48.76144" lon="6.84578">
        <ele>245.7</ele>
        <time>2021-07-30T14:25:28Z</time>
      </trkpt>
      <trkpt lat="48.76147" lon="6.84584">
        <ele>245.7</ele>
        <time>2021-07-30T14:25:29Z</time>
      </trkpt>
      <trkpt lat="48.76151" lon="6.84598">
        <ele>245.8</ele>
        <time>2021-07-30T14:25:31Z</time>
      </trkpt>
      <trkpt lat="48.76153" lon="6.84608">
        <ele>245.8</ele>
        <time>2021-07-30T14:25:33Z</time>
      </trkpt>
      <trkpt lat="48.76155" lon="6.84613">
        <ele>245.8</ele>
        <time>2021-07-30T14:25:34Z</time>
      </trkpt>
      <trkpt lat="48.76158" lon="6.84623">
        <ele>245.8</ele>
        <time>2021-07-30T14:25:36Z</time>
      </trkpt>
      <trkpt lat="48.7616" lon="6.84627">
        <ele>245.8</ele>
        <time>2021-07-30T14:25:37Z</time>
      </trkpt>
      <trkpt lat="48.76162" lon="6.84637">
        <ele>245.9</ele>
        <time>2021-07-30T14:25:39Z</time>
      </trkpt>
      <trkpt lat="48.76164" lon="6.84643">
        <ele>245.9</ele>
        <time>2021-07-30T14:25:41Z</time>
      </trkpt>
      <trkpt lat="48.76165" lon="6.84648">
        <ele>245.9</ele>
        <time>2021-07-30T14:25:43Z</time>
      </trkpt>
      <trkpt lat="48.76167" lon="6.84653">
        <ele>245.9</ele>
        <time>2021-07-30T14:25:45Z</time>
      </trkpt>
      <trkpt lat="48.76168" lon="6.84655">
        <ele>245.9</ele>
        <time>2021-07-30T14:25:46Z</time>
      </trkpt>
      <trkpt lat="48.76168" lon="6.84657">
        <ele>245.9</ele>
        <time>2021-07-30T14:25:47Z</time>
      </trkpt>
      <trkpt lat="48.7617" lon="6.84662">
        <ele>245.9</ele>
        <time>2021-07-30T14:25:49Z</time>
      </trkpt>
      <trkpt lat="48.7617" lon="6.84662">
        <ele>245.9</ele>
        <time>2021-07-30T14:25:51Z</time>
      </trkpt>
      <trkpt lat="48.7617" lon="6.84662">
        <ele>245.9</ele>
        <time>2021-07-30T14:25:52Z</time>
      </trkpt>
      <trkpt lat="48.76171" lon="6.84662">
        <ele>245.9</ele>
        <time>2021-07-30T14:25:54Z</time>
      </trkpt>
      <trkpt lat="48.76171" lon="6.84663">
        <ele>245.9</ele>
        <time>2021-07-30T14:25:55Z</time>
      </trkpt>
      <trkpt lat="48.76171" lon="6.84663">
        <ele>245.9</ele>
        <time>2021-07-30T14:25:56Z</time>
      </trkpt>
      <trkpt lat="48.76171" lon="6.84664">
        <ele>246</ele>
        <time>2021-07-30T14:25:57Z</time>
      </trkpt>
      <trkpt lat="48.76172" lon="6.84665">
        <ele>246</ele>
        <time>2021-07-30T14:25:59Z</time>
      </trkpt>
      <trkpt lat="48.76176" lon="6.84683">
        <ele>246</ele>
        <time>2021-07-30T14:26:10Z</time>
      </trkpt>
      <trkpt lat="48.76177" lon="6.84687">
        <ele>246</ele>
        <time>2021-07-30T14:26:11Z</time>
      </trkpt>
      <trkpt lat="48.76178" lon="6.8469">
        <ele>246</ele>
        <time>2021-07-30T14:26:12Z</time>
      </trkpt>
      <trkpt lat="48.76179" lon="6.84692">
        <ele>246</ele>
        <time>2021-07-30T14:26:13Z</time>
      </trkpt>
      <trkpt lat="48.76179" lon="6.84693">
        <ele>246</ele>
        <time>2021-07-30T14:26:14Z</time>
      </trkpt>
      <trkpt lat="48.76181" lon="6.84698">
        <ele>246</ele>
        <time>2021-07-30T14:26:16Z</time>
      </trkpt>
      <trkpt lat="48.76182" lon="6.84701">
        <ele>246.1</ele>
        <time>2021-07-30T14:26:18Z</time>
      </trkpt>
      <trkpt lat="48.76182" lon="6.84703">
        <ele>246.1</ele>
        <time>2021-07-30T14:26:19Z</time>
      </trkpt>
      <trkpt lat="48.76184" lon="6.84705">
        <ele>246.1</ele>
        <time>2021-07-30T14:26:20Z</time>
      </trkpt>
      <trkpt lat="48.76185" lon="6.84707">
        <ele>246.1</ele>
        <time>2021-07-30T14:26:21Z</time>
      </trkpt>
      <trkpt lat="48.76185" lon="6.84707">
        <ele>246.1</ele>
        <time>2021-07-30T14:26:23Z</time>
      </trkpt>
      <trkpt lat="48.76186" lon="6.84708">
        <ele>246.1</ele>
        <time>2021-07-30T14:26:24Z</time>
      </trkpt>
      <trkpt lat="48.76187" lon="6.84711">
        <ele>246.1</ele>
        <time>2021-07-30T14:26:25Z</time>
      </trkpt>
      <trkpt lat="48.76188" lon="6.84714">
        <ele>246.1</ele>
        <time>2021-07-30T14:26:26Z</time>
      </trkpt>
      <trkpt lat="48.76189" lon="6.84716">
        <ele>246.1</ele>
        <time>2021-07-30T14:26:28Z</time>
      </trkpt>
      <trkpt lat="48.7619" lon="6.84719">
        <ele>246.1</ele>
        <time>2021-07-30T14:26:30Z</time>
      </trkpt>
      <trkpt lat="48.7619" lon="6.8472">
        <ele>246.1</ele>
        <time>2021-07-30T14:26:31Z</time>
      </trkpt>
      <trkpt lat="48.76191" lon="6.84723">
        <ele>246.1</ele>
        <time>2021-07-30T14:26:33Z</time>
      </trkpt>
      <trkpt lat="48.76192" lon="6.84725">
        <ele>246.1</ele>
        <time>2021-07-30T14:26:34Z</time>
      </trkpt>
      <trkpt lat="48.76193" lon="6.84726">
        <ele>246.1</ele>
        <time>2021-07-30T14:26:35Z</time>
      </trkpt>
      <trkpt lat="48.76193" lon="6.84728">
        <ele>246.1</ele>
        <time>2021-07-30T14:26:37Z</time>
      </trkpt>
      <trkpt lat="48.76194" lon="6.8473">
        <ele>246.1</ele>
        <time>2021-07-30T14:26:39Z</time>
      </trkpt>
      <trkpt lat="48.76195" lon="6.84731">
        <ele>246.1</ele>
        <time>2021-07-30T14:26:40Z</time>
      </trkpt>
      <trkpt lat="48.76195" lon="6.84733">
        <ele>246.1</ele>
        <time>2021-07-30T14:26:41Z</time>
      </trkpt>
      <trkpt lat="48.76196" lon="6.84735">
        <ele>246.2</ele>
        <time>2021-07-30T14:26:43Z</time>
      </trkpt>
      <trkpt lat="48.76197" lon="6.84736">
        <ele>246.2</ele>
        <time>2021-07-30T14:26:44Z</time>
      </trkpt>
      <trkpt lat="48.76197" lon="6.84738">
        <ele>246.2</ele>
        <time>2021-07-30T14:26:45Z</time>
      </trkpt>
      <trkpt lat="48.76198" lon="6.8474">
        <ele>246.2</ele>
        <time>2021-07-30T14:26:47Z</time>
      </trkpt>
      <trkpt lat="48.76199" lon="6.84741">
        <ele>246.2</ele>
        <time>2021-07-30T14:26:55Z</time>
      </trkpt>
      <trkpt lat="48.76199" lon="6.84743">
        <ele>246.2</ele>
        <time>2021-07-30T14:26:57Z</time>
      </trkpt>
      <trkpt lat="48.762" lon="6.84745">
        <ele>246.2</ele>
        <time>2021-07-30T14:26:58Z</time>
      </trkpt>
      <trkpt lat="48.762" lon="6.84747">
        <ele>246.2</ele>
        <time>2021-07-30T14:26:59Z</time>
      </trkpt>
      <trkpt lat="48.76201" lon="6.84749">
        <ele>246.2</ele>
        <time>2021-07-30T14:27:00Z</time>
      </trkpt>
      <trkpt lat="48.76201" lon="6.84752">
        <ele>246.2</ele>
        <time>2021-07-30T14:27:01Z</time>
      </trkpt>
      <trkpt lat="48.76202" lon="6.84755">
        <ele>246.2</ele>
        <time>2021-07-30T14:27:03Z</time>
      </trkpt>
      <trkpt lat="48.76203" lon="6.84758">
        <ele>246.2</ele>
        <time>2021-07-30T14:27:04Z</time>
      </trkpt>
      <trkpt lat="48.76203" lon="6.84758">
        <ele>246.2</ele>
        <time>2021-07-30T14:27:05Z</time>
      </trkpt>
      <trkpt lat="48.76203" lon="6.84759">
        <ele>246.2</ele>
        <time>2021-07-30T14:27:06Z</time>
      </trkpt>
      <trkpt lat="48.76203" lon="6.84758">
        <ele>246.2</ele>
        <time>2021-07-30T14:27:08Z</time>
      </trkpt>
      <trkpt lat="48.76203" lon="6.84758">
        <ele>246.2</ele>
        <time>2021-07-30T14:27:09Z</time>
      </trkpt>
      <trkpt lat="48.76203" lon="6.84759">
        <ele>246.2</ele>
        <time>2021-07-30T14:27:11Z</time>
      </trkpt>
      <trkpt lat="48.76204" lon="6.84761">
        <ele>246.2</ele>
        <time>2021-07-30T14:27:12Z</time>
      </trkpt>
      <trkpt lat="48.76205" lon="6.84763">
        <ele>246.2</ele>
        <time>2021-07-30T14:27:13Z</time>
      </trkpt>
      <trkpt lat="48.76207" lon="6.84767">
        <ele>246.2</ele>
        <time>2021-07-30T14:27:15Z</time>
      </trkpt>
      <trkpt lat="48.7621" lon="6.84774">
        <ele>246.3</ele>
        <time>2021-07-30T14:27:17Z</time>
      </trkpt>
      <trkpt lat="48.76211" lon="6.84777">
        <ele>246.9</ele>
        <time>2021-07-30T14:27:18Z</time>
      </trkpt>
      <trkpt lat="48.76212" lon="6.84779">
        <ele>246.7</ele>
        <time>2021-07-30T14:27:19Z</time>
      </trkpt>
      <trkpt lat="48.76214" lon="6.84787">
        <ele>246.4</ele>
        <time>2021-07-30T14:27:20Z</time>
      </trkpt>
      <trkpt lat="48.7622" lon="6.848">
        <ele>245.7</ele>
        <time>2021-07-30T14:27:22Z</time>
      </trkpt>
      <trkpt lat="48.76223" lon="6.84806">
        <ele>245.4</ele>
        <time>2021-07-30T14:27:23Z</time>
      </trkpt>
      <trkpt lat="48.7623" lon="6.84818">
        <ele>244.7</ele>
        <time>2021-07-30T14:27:25Z</time>
      </trkpt>
      <trkpt lat="48.76237" lon="6.84831">
        <ele>243.9</ele>
        <time>2021-07-30T14:27:27Z</time>
      </trkpt>
      <trkpt lat="48.7624" lon="6.84839">
        <ele>243.5</ele>
        <time>2021-07-30T14:27:28Z</time>
      </trkpt>
      <trkpt lat="48.76246" lon="6.84849">
        <ele>242.9</ele>
        <time>2021-07-30T14:27:29Z</time>
      </trkpt>
      <trkpt lat="48.76251" lon="6.84858">
        <ele>242.3</ele>
        <time>2021-07-30T14:27:30Z</time>
      </trkpt>
      <trkpt lat="48.76256" lon="6.84867">
        <ele>241.9</ele>
        <time>2021-07-30T14:27:31Z</time>
      </trkpt>
      <trkpt lat="48.76267" lon="6.84885">
        <ele>241.1</ele>
        <time>2021-07-30T14:27:33Z</time>
      </trkpt>
      <trkpt lat="48.76273" lon="6.84893">
        <ele>240.8</ele>
        <time>2021-07-30T14:27:34Z</time>
      </trkpt>
      <trkpt lat="48.76278" lon="6.84901">
        <ele>240.4</ele>
        <time>2021-07-30T14:27:35Z</time>
      </trkpt>
      <trkpt lat="48.76289" lon="6.84918">
        <ele>239.9</ele>
        <time>2021-07-30T14:27:37Z</time>
      </trkpt>
      <trkpt lat="48.76294" lon="6.84926">
        <ele>239.7</ele>
        <time>2021-07-30T14:27:38Z</time>
      </trkpt>
      <trkpt lat="48.76306" lon="6.84943">
        <ele>239.4</ele>
        <time>2021-07-30T14:27:40Z</time>
      </trkpt>
      <trkpt lat="48.76311" lon="6.84951">
        <ele>239.3</ele>
        <time>2021-07-30T14:27:41Z</time>
      </trkpt>
      <trkpt lat="48.76317" lon="6.84959">
        <ele>239.1</ele>
        <time>2021-07-30T14:27:42Z</time>
      </trkpt>
      <trkpt lat="48.76322" lon="6.84967">
        <ele>239</ele>
        <time>2021-07-30T14:27:43Z</time>
      </trkpt>
      <trkpt lat="48.76327" lon="6.84975">
        <ele>238.9</ele>
        <time>2021-07-30T14:27:44Z</time>
      </trkpt>
      <trkpt lat="48.76338" lon="6.8499">
        <ele>238.6</ele>
        <time>2021-07-30T14:27:46Z</time>
      </trkpt>
      <trkpt lat="48.76343" lon="6.84998">
        <ele>238.5</ele>
        <time>2021-07-30T14:27:47Z</time>
      </trkpt>
      <trkpt lat="48.76355" lon="6.85014">
        <ele>238.1</ele>
        <time>2021-07-30T14:27:49Z</time>
      </trkpt>
      <trkpt lat="48.76361" lon="6.85023">
        <ele>237.9</ele>
        <time>2021-07-30T14:27:50Z</time>
      </trkpt>
      <trkpt lat="48.76371" lon="6.85039">
        <ele>237.6</ele>
        <time>2021-07-30T14:27:52Z</time>
      </trkpt>
      <trkpt lat="48.76376" lon="6.85047">
        <ele>237.4</ele>
        <time>2021-07-30T14:27:53Z</time>
      </trkpt>
      <trkpt lat="48.7638" lon="6.85054">
        <ele>237.3</ele>
        <time>2021-07-30T14:27:54Z</time>
      </trkpt>
      <trkpt lat="48.76385" lon="6.85062">
        <ele>237.1</ele>
        <time>2021-07-30T14:27:55Z</time>
      </trkpt>
      <trkpt lat="48.76395" lon="6.85078">
        <ele>236.7</ele>
        <time>2021-07-30T14:27:57Z</time>
      </trkpt>
      <trkpt lat="48.76407" lon="6.85095">
        <ele>236.2</ele>
        <time>2021-07-30T14:27:59Z</time>
      </trkpt>
      <trkpt lat="48.76412" lon="6.85104">
        <ele>236</ele>
        <time>2021-07-30T14:28:00Z</time>
      </trkpt>
      <trkpt lat="48.76423" lon="6.85121">
        <ele>235.7</ele>
        <time>2021-07-30T14:28:02Z</time>
      </trkpt>
      <trkpt lat="48.76428" lon="6.8513">
        <ele>235.6</ele>
        <time>2021-07-30T14:28:03Z</time>
      </trkpt>
      <trkpt lat="48.76432" lon="6.8514">
        <ele>235.4</ele>
        <time>2021-07-30T14:28:04Z</time>
      </trkpt>
      <trkpt lat="48.76437" lon="6.85149">
        <ele>235.4</ele>
        <time>2021-07-30T14:28:05Z</time>
      </trkpt>
      <trkpt lat="48.76447" lon="6.85167">
        <ele>235.2</ele>
        <time>2021-07-30T14:28:07Z</time>
      </trkpt>
      <trkpt lat="48.76456" lon="6.85186">
        <ele>235.1</ele>
        <time>2021-07-30T14:28:09Z</time>
      </trkpt>
      <trkpt lat="48.76461" lon="6.85195">
        <ele>235.1</ele>
        <time>2021-07-30T14:28:10Z</time>
      </trkpt>
      <trkpt lat="48.76471" lon="6.8521">
        <ele>235.1</ele>
        <time>2021-07-30T14:28:12Z</time>
      </trkpt>
      <trkpt lat="48.76476" lon="6.85218">
        <ele>235</ele>
        <time>2021-07-30T14:28:13Z</time>
      </trkpt>
      <trkpt lat="48.76487" lon="6.85231">
        <ele>234.9</ele>
        <time>2021-07-30T14:28:15Z</time>
      </trkpt>
      <trkpt lat="48.76493" lon="6.85236">
        <ele>234.8</ele>
        <time>2021-07-30T14:28:16Z</time>
      </trkpt>
      <trkpt lat="48.76505" lon="6.85243">
        <ele>234.7</ele>
        <time>2021-07-30T14:28:18Z</time>
      </trkpt>
      <trkpt lat="48.76518" lon="6.85246">
        <ele>234.6</ele>
        <time>2021-07-30T14:28:20Z</time>
      </trkpt>
      <trkpt lat="48.76524" lon="6.85247">
        <ele>234.6</ele>
        <time>2021-07-30T14:28:21Z</time>
      </trkpt>
      <trkpt lat="48.76531" lon="6.85246">
        <ele>234.6</ele>
        <time>2021-07-30T14:28:22Z</time>
      </trkpt>
      <trkpt lat="48.76542" lon="6.85244">
        <ele>234.5</ele>
        <time>2021-07-30T14:28:24Z</time>
      </trkpt>
      <trkpt lat="48.76553" lon="6.85242">
        <ele>234.5</ele>
        <time>2021-07-30T14:28:26Z</time>
      </trkpt>
      <trkpt lat="48.76559" lon="6.8524">
        <ele>234.5</ele>
        <time>2021-07-30T14:28:27Z</time>
      </trkpt>
      <trkpt lat="48.76564" lon="6.85238">
        <ele>234.5</ele>
        <time>2021-07-30T14:28:28Z</time>
      </trkpt>
      <trkpt lat="48.76574" lon="6.85236">
        <ele>234.5</ele>
        <time>2021-07-30T14:28:30Z</time>
      </trkpt>
      <trkpt lat="48.76578" lon="6.85235">
        <ele>234.4</ele>
        <time>2021-07-30T14:28:31Z</time>
      </trkpt>
      <trkpt lat="48.76583" lon="6.85234">
        <ele>234.3</ele>
        <time>2021-07-30T14:28:32Z</time>
      </trkpt>
      <trkpt lat="48.76592" lon="6.85232">
        <ele>234.1</ele>
        <time>2021-07-30T14:28:34Z</time>
      </trkpt>
      <trkpt lat="48.766" lon="6.85229">
        <ele>234</ele>
        <time>2021-07-30T14:28:36Z</time>
      </trkpt>
      <trkpt lat="48.76604" lon="6.85227">
        <ele>233.9</ele>
        <time>2021-07-30T14:28:37Z</time>
      </trkpt>
      <trkpt lat="48.76608" lon="6.85224">
        <ele>233.8</ele>
        <time>2021-07-30T14:28:38Z</time>
      </trkpt>
      <trkpt lat="48.76615" lon="6.85217">
        <ele>233.6</ele>
        <time>2021-07-30T14:28:40Z</time>
      </trkpt>
      <trkpt lat="48.76619" lon="6.85214">
        <ele>233.6</ele>
        <time>2021-07-30T14:28:41Z</time>
      </trkpt>
      <trkpt lat="48.76619" lon="6.85216">
        <ele>233.5</ele>
        <time>2021-07-30T14:28:42Z</time>
      </trkpt>
      <trkpt lat="48.76619" lon="6.85218">
        <ele>233.5</ele>
        <time>2021-07-30T14:28:43Z</time>
      </trkpt>
      <trkpt lat="48.7662" lon="6.85215">
        <ele>233.5</ele>
        <time>2021-07-30T14:28:44Z</time>
      </trkpt>
      <trkpt lat="48.76619" lon="6.85211">
        <ele>233.4</ele>
        <time>2021-07-30T14:28:45Z</time>
      </trkpt>
      <trkpt lat="48.76619" lon="6.85209">
        <ele>233.4</ele>
        <time>2021-07-30T14:28:46Z</time>
      </trkpt>
      <trkpt lat="48.76619" lon="6.85209">
        <ele>233.4</ele>
        <time>2021-07-30T14:28:48Z</time>
      </trkpt>
      <trkpt lat="48.76619" lon="6.85208">
        <ele>233.4</ele>
        <time>2021-07-30T14:28:50Z</time>
      </trkpt>
      <trkpt lat="48.76619" lon="6.85208">
        <ele>233.4</ele>
        <time>2021-07-30T14:28:52Z</time>
      </trkpt>
      <trkpt lat="48.76619" lon="6.85208">
        <ele>233.4</ele>
        <time>2021-07-30T14:28:53Z</time>
      </trkpt>
      <trkpt lat="48.76619" lon="6.85209">
        <ele>233.4</ele>
        <time>2021-07-30T14:28:54Z</time>
      </trkpt>
      <trkpt lat="48.76615" lon="6.85221">
        <ele>233.3</ele>
        <time>2021-07-30T14:30:07Z</time>
      </trkpt>
      <trkpt lat="48.7662" lon="6.85231">
        <ele>233.1</ele>
        <time>2021-07-30T14:30:09Z</time>
      </trkpt>
      <trkpt lat="48.76623" lon="6.85237">
        <ele>233.1</ele>
        <time>2021-07-30T14:30:10Z</time>
      </trkpt>
      <trkpt lat="48.76626" lon="6.85244">
        <ele>233</ele>
        <time>2021-07-30T14:30:11Z</time>
      </trkpt>
      <trkpt lat="48.7663" lon="6.85256">
        <ele>232.9</ele>
        <time>2021-07-30T14:30:12Z</time>
      </trkpt>
      <trkpt lat="48.76632" lon="6.85266">
        <ele>232.9</ele>
        <time>2021-07-30T14:30:14Z</time>
      </trkpt>
      <trkpt lat="48.76635" lon="6.85277">
        <ele>232.8</ele>
        <time>2021-07-30T14:30:15Z</time>
      </trkpt>
      <trkpt lat="48.76637" lon="6.85286">
        <ele>232.8</ele>
        <time>2021-07-30T14:30:16Z</time>
      </trkpt>
      <trkpt lat="48.76639" lon="6.85294">
        <ele>232.8</ele>
        <time>2021-07-30T14:30:18Z</time>
      </trkpt>
      <trkpt lat="48.76642" lon="6.85306">
        <ele>232.7</ele>
        <time>2021-07-30T14:30:20Z</time>
      </trkpt>
      <trkpt lat="48.76646" lon="6.85319">
        <ele>232.6</ele>
        <time>2021-07-30T14:30:22Z</time>
      </trkpt>
      <trkpt lat="48.76649" lon="6.85333">
        <ele>232.6</ele>
        <time>2021-07-30T14:30:24Z</time>
      </trkpt>
      <trkpt lat="48.76651" lon="6.85342">
        <ele>232.5</ele>
        <time>2021-07-30T14:30:25Z</time>
      </trkpt>
      <trkpt lat="48.76652" lon="6.85349">
        <ele>232.5</ele>
        <time>2021-07-30T14:30:27Z</time>
      </trkpt>
      <trkpt lat="48.76653" lon="6.85355">
        <ele>232.5</ele>
        <time>2021-07-30T14:30:28Z</time>
      </trkpt>
      <trkpt lat="48.76654" lon="6.8536">
        <ele>232.4</ele>
        <time>2021-07-30T14:30:29Z</time>
      </trkpt>
      <trkpt lat="48.76656" lon="6.85372">
        <ele>232.4</ele>
        <time>2021-07-30T14:30:31Z</time>
      </trkpt>
      <trkpt lat="48.76659" lon="6.85382">
        <ele>232.3</ele>
        <time>2021-07-30T14:30:33Z</time>
      </trkpt>
      <trkpt lat="48.76662" lon="6.85393">
        <ele>232.3</ele>
        <time>2021-07-30T14:30:35Z</time>
      </trkpt>
      <trkpt lat="48.76664" lon="6.85404">
        <ele>232.2</ele>
        <time>2021-07-30T14:30:37Z</time>
      </trkpt>
      <trkpt lat="48.76665" lon="6.85409">
        <ele>232.2</ele>
        <time>2021-07-30T14:30:38Z</time>
      </trkpt>
      <trkpt lat="48.76667" lon="6.8542">
        <ele>232.1</ele>
        <time>2021-07-30T14:30:40Z</time>
      </trkpt>
      <trkpt lat="48.76668" lon="6.85425">
        <ele>232.1</ele>
        <time>2021-07-30T14:30:41Z</time>
      </trkpt>
      <trkpt lat="48.7667" lon="6.85437">
        <ele>232</ele>
        <time>2021-07-30T14:30:43Z</time>
      </trkpt>
      <trkpt lat="48.7667" lon="6.85443">
        <ele>232</ele>
        <time>2021-07-30T14:30:44Z</time>
      </trkpt>
      <trkpt lat="48.76672" lon="6.85454">
        <ele>231.9</ele>
        <time>2021-07-30T14:30:46Z</time>
      </trkpt>
      <trkpt lat="48.76673" lon="6.85459">
        <ele>231.8</ele>
        <time>2021-07-30T14:30:47Z</time>
      </trkpt>
      <trkpt lat="48.76676" lon="6.8547">
        <ele>231.7</ele>
        <time>2021-07-30T14:30:49Z</time>
      </trkpt>
      <trkpt lat="48.76678" lon="6.85481">
        <ele>231.7</ele>
        <time>2021-07-30T14:30:51Z</time>
      </trkpt>
      <trkpt lat="48.7668" lon="6.85488">
        <ele>231.6</ele>
        <time>2021-07-30T14:30:52Z</time>
      </trkpt>
      <trkpt lat="48.76682" lon="6.85494">
        <ele>231.6</ele>
        <time>2021-07-30T14:30:53Z</time>
      </trkpt>
      <trkpt lat="48.76685" lon="6.85505">
        <ele>231.6</ele>
        <time>2021-07-30T14:30:55Z</time>
      </trkpt>
      <trkpt lat="48.7669" lon="6.85518">
        <ele>231.6</ele>
        <time>2021-07-30T14:30:57Z</time>
      </trkpt>
      <trkpt lat="48.76692" lon="6.85524">
        <ele>231.6</ele>
        <time>2021-07-30T14:30:58Z</time>
      </trkpt>
      <trkpt lat="48.76695" lon="6.85535">
        <ele>231.6</ele>
        <time>2021-07-30T14:31:00Z</time>
      </trkpt>
      <trkpt lat="48.76697" lon="6.85541">
        <ele>231.7</ele>
        <time>2021-07-30T14:31:01Z</time>
      </trkpt>
      <trkpt lat="48.76701" lon="6.85549">
        <ele>231.7</ele>
        <time>2021-07-30T14:31:02Z</time>
      </trkpt>
      <trkpt lat="48.76703" lon="6.85556">
        <ele>231.8</ele>
        <time>2021-07-30T14:31:04Z</time>
      </trkpt>
      <trkpt lat="48.76704" lon="6.85561">
        <ele>231.8</ele>
        <time>2021-07-30T14:31:05Z</time>
      </trkpt>
      <trkpt lat="48.76707" lon="6.8557">
        <ele>231.9</ele>
        <time>2021-07-30T14:31:06Z</time>
      </trkpt>
      <trkpt lat="48.76709" lon="6.85575">
        <ele>231.9</ele>
        <time>2021-07-30T14:31:07Z</time>
      </trkpt>
      <trkpt lat="48.76711" lon="6.85581">
        <ele>232</ele>
        <time>2021-07-30T14:31:09Z</time>
      </trkpt>
      <trkpt lat="48.76712" lon="6.85586">
        <ele>232.1</ele>
        <time>2021-07-30T14:31:10Z</time>
      </trkpt>
      <trkpt lat="48.76713" lon="6.8559">
        <ele>232.2</ele>
        <time>2021-07-30T14:31:11Z</time>
      </trkpt>
      <trkpt lat="48.76715" lon="6.85599">
        <ele>232.3</ele>
        <time>2021-07-30T14:31:13Z</time>
      </trkpt>
      <trkpt lat="48.76717" lon="6.85606">
        <ele>232.4</ele>
        <time>2021-07-30T14:31:14Z</time>
      </trkpt>
      <trkpt lat="48.76717" lon="6.85611">
        <ele>232.5</ele>
        <time>2021-07-30T14:31:16Z</time>
      </trkpt>
      <trkpt lat="48.76718" lon="6.85616">
        <ele>232.5</ele>
        <time>2021-07-30T14:31:17Z</time>
      </trkpt>
      <trkpt lat="48.76718" lon="6.85619">
        <ele>232.6</ele>
        <time>2021-07-30T14:31:18Z</time>
      </trkpt>
      <trkpt lat="48.7672" lon="6.85623">
        <ele>232.7</ele>
        <time>2021-07-30T14:31:20Z</time>
      </trkpt>
      <trkpt lat="48.76722" lon="6.85629">
        <ele>232.7</ele>
        <time>2021-07-30T14:31:22Z</time>
      </trkpt>
      <trkpt lat="48.76722" lon="6.85631">
        <ele>232.8</ele>
        <time>2021-07-30T14:31:23Z</time>
      </trkpt>
      <trkpt lat="48.76721" lon="6.85637">
        <ele>232.8</ele>
        <time>2021-07-30T14:31:25Z</time>
      </trkpt>
      <trkpt lat="48.7672" lon="6.85643">
        <ele>233.1</ele>
        <time>2021-07-30T14:31:27Z</time>
      </trkpt>
      <trkpt lat="48.76718" lon="6.85647">
        <ele>233.2</ele>
        <time>2021-07-30T14:31:28Z</time>
      </trkpt>
      <trkpt lat="48.76717" lon="6.85648">
        <ele>233.2</ele>
        <time>2021-07-30T14:31:29Z</time>
      </trkpt>
      <trkpt lat="48.76716" lon="6.85651">
        <ele>233.3</ele>
        <time>2021-07-30T14:31:30Z</time>
      </trkpt>
      <trkpt lat="48.76716" lon="6.85656">
        <ele>233.4</ele>
        <time>2021-07-30T14:31:32Z</time>
      </trkpt>
      <trkpt lat="48.76716" lon="6.85663">
        <ele>233.5</ele>
        <time>2021-07-30T14:31:34Z</time>
      </trkpt>
      <trkpt lat="48.76715" lon="6.85668">
        <ele>233.6</ele>
        <time>2021-07-30T14:31:35Z</time>
      </trkpt>
      <trkpt lat="48.76714" lon="6.8567">
        <ele>233.6</ele>
        <time>2021-07-30T14:31:36Z</time>
      </trkpt>
      <trkpt lat="48.76714" lon="6.85676">
        <ele>233.7</ele>
        <time>2021-07-30T14:31:37Z</time>
      </trkpt>
      <trkpt lat="48.76713" lon="6.85678">
        <ele>233.8</ele>
        <time>2021-07-30T14:31:38Z</time>
      </trkpt>
      <trkpt lat="48.76712" lon="6.85681">
        <ele>233.8</ele>
        <time>2021-07-30T14:31:39Z</time>
      </trkpt>
      <trkpt lat="48.76712" lon="6.85683">
        <ele>233.9</ele>
        <time>2021-07-30T14:31:41Z</time>
      </trkpt>
      <trkpt lat="48.76712" lon="6.85686">
        <ele>234</ele>
        <time>2021-07-30T14:31:42Z</time>
      </trkpt>
      <trkpt lat="48.76711" lon="6.85688">
        <ele>234</ele>
        <time>2021-07-30T14:31:43Z</time>
      </trkpt>
      <trkpt lat="48.7671" lon="6.85693">
        <ele>234.1</ele>
        <time>2021-07-30T14:31:44Z</time>
      </trkpt>
      <trkpt lat="48.7671" lon="6.85694">
        <ele>234.1</ele>
        <time>2021-07-30T14:31:45Z</time>
      </trkpt>
      <trkpt lat="48.76709" lon="6.85697">
        <ele>234.2</ele>
        <time>2021-07-30T14:31:47Z</time>
      </trkpt>
      <trkpt lat="48.76709" lon="6.85699">
        <ele>234.2</ele>
        <time>2021-07-30T14:31:48Z</time>
      </trkpt>
      <trkpt lat="48.76708" lon="6.857">
        <ele>234.3</ele>
        <time>2021-07-30T14:31:49Z</time>
      </trkpt>
      <trkpt lat="48.76707" lon="6.85704">
        <ele>234.4</ele>
        <time>2021-07-30T14:31:51Z</time>
      </trkpt>
      <trkpt lat="48.76707" lon="6.85706">
        <ele>234.4</ele>
        <time>2021-07-30T14:31:52Z</time>
      </trkpt>
      <trkpt lat="48.76706" lon="6.85709">
        <ele>234.5</ele>
        <time>2021-07-30T14:31:53Z</time>
      </trkpt>
      <trkpt lat="48.76706" lon="6.8571">
        <ele>234.5</ele>
        <time>2021-07-30T14:31:54Z</time>
      </trkpt>
      <trkpt lat="48.76706" lon="6.85712">
        <ele>234.6</ele>
        <time>2021-07-30T14:31:55Z</time>
      </trkpt>
      <trkpt lat="48.76705" lon="6.85715">
        <ele>234.7</ele>
        <time>2021-07-30T14:31:57Z</time>
      </trkpt>
      <trkpt lat="48.76704" lon="6.85719">
        <ele>234.8</ele>
        <time>2021-07-30T14:31:59Z</time>
      </trkpt>
      <trkpt lat="48.76704" lon="6.8572">
        <ele>234.8</ele>
        <time>2021-07-30T14:32:00Z</time>
      </trkpt>
      <trkpt lat="48.76704" lon="6.85725">
        <ele>234.9</ele>
        <time>2021-07-30T14:32:02Z</time>
      </trkpt>
      <trkpt lat="48.76702" lon="6.85729">
        <ele>235</ele>
        <time>2021-07-30T14:32:04Z</time>
      </trkpt>
      <trkpt lat="48.76701" lon="6.85731">
        <ele>235.1</ele>
        <time>2021-07-30T14:32:05Z</time>
      </trkpt>
      <trkpt lat="48.767" lon="6.85735">
        <ele>235.2</ele>
        <time>2021-07-30T14:32:07Z</time>
      </trkpt>
      <trkpt lat="48.76699" lon="6.85736">
        <ele>235.3</ele>
        <time>2021-07-30T14:32:09Z</time>
      </trkpt>
      <trkpt lat="48.76699" lon="6.85736">
        <ele>235.3</ele>
        <time>2021-07-30T14:32:10Z</time>
      </trkpt>
      <trkpt lat="48.767" lon="6.85738">
        <ele>235.4</ele>
        <time>2021-07-30T14:32:11Z</time>
      </trkpt>
      <trkpt lat="48.76702" lon="6.8574">
        <ele>235.4</ele>
        <time>2021-07-30T14:32:13Z</time>
      </trkpt>
      <trkpt lat="48.76703" lon="6.85742">
        <ele>235.5</ele>
        <time>2021-07-30T14:32:14Z</time>
      </trkpt>
      <trkpt lat="48.76705" lon="6.85743">
        <ele>235.6</ele>
        <time>2021-07-30T14:32:16Z</time>
      </trkpt>
      <trkpt lat="48.76705" lon="6.85744">
        <ele>235.6</ele>
        <time>2021-07-30T14:32:17Z</time>
      </trkpt>
      <trkpt lat="48.76704" lon="6.85745">
        <ele>235.6</ele>
        <time>2021-07-30T14:32:18Z</time>
      </trkpt>
      <trkpt lat="48.76703" lon="6.85746">
        <ele>235.7</ele>
        <time>2021-07-30T14:32:20Z</time>
      </trkpt>
      <trkpt lat="48.76702" lon="6.85747">
        <ele>235.7</ele>
        <time>2021-07-30T14:32:21Z</time>
      </trkpt>
      <trkpt lat="48.76701" lon="6.85748">
        <ele>235.8</ele>
        <time>2021-07-30T14:32:22Z</time>
      </trkpt>
      <trkpt lat="48.76701" lon="6.85748">
        <ele>235.8</ele>
        <time>2021-07-30T14:32:23Z</time>
      </trkpt>
      <trkpt lat="48.767" lon="6.85749">
        <ele>235.9</ele>
        <time>2021-07-30T14:32:25Z</time>
      </trkpt>
      <trkpt lat="48.76699" lon="6.8575">
        <ele>235.9</ele>
        <time>2021-07-30T14:32:26Z</time>
      </trkpt>
      <trkpt lat="48.76698" lon="6.85751">
        <ele>235.9</ele>
        <time>2021-07-30T14:32:28Z</time>
      </trkpt>
      <trkpt lat="48.76698" lon="6.85752">
        <ele>236</ele>
        <time>2021-07-30T14:32:47Z</time>
      </trkpt>
      <trkpt lat="48.76697" lon="6.85753">
        <ele>236</ele>
        <time>2021-07-30T14:32:48Z</time>
      </trkpt>
      <trkpt lat="48.76693" lon="6.85761">
        <ele>236.3</ele>
        <time>2021-07-30T14:32:50Z</time>
      </trkpt>
      <trkpt lat="48.76691" lon="6.85766">
        <ele>236.5</ele>
        <time>2021-07-30T14:32:51Z</time>
      </trkpt>
      <trkpt lat="48.7669" lon="6.8577">
        <ele>236.6</ele>
        <time>2021-07-30T14:32:52Z</time>
      </trkpt>
      <trkpt lat="48.76689" lon="6.85775">
        <ele>236.8</ele>
        <time>2021-07-30T14:32:54Z</time>
      </trkpt>
      <trkpt lat="48.76688" lon="6.85779">
        <ele>236.9</ele>
        <time>2021-07-30T14:32:55Z</time>
      </trkpt>
      <trkpt lat="48.76685" lon="6.85785">
        <ele>237.2</ele>
        <time>2021-07-30T14:32:57Z</time>
      </trkpt>
      <trkpt lat="48.76683" lon="6.85792">
        <ele>237.5</ele>
        <time>2021-07-30T14:32:59Z</time>
      </trkpt>
      <trkpt lat="48.76683" lon="6.85797">
        <ele>237.7</ele>
        <time>2021-07-30T14:33:00Z</time>
      </trkpt>
      <trkpt lat="48.76682" lon="6.85798">
        <ele>237.7</ele>
        <time>2021-07-30T14:33:01Z</time>
      </trkpt>
      <trkpt lat="48.76681" lon="6.85802">
        <ele>237.9</ele>
        <time>2021-07-30T14:33:02Z</time>
      </trkpt>
      <trkpt lat="48.7668" lon="6.85807">
        <ele>238.1</ele>
        <time>2021-07-30T14:33:03Z</time>
      </trkpt>
      <trkpt lat="48.7668" lon="6.85809">
        <ele>238.2</ele>
        <time>2021-07-30T14:33:04Z</time>
      </trkpt>
      <trkpt lat="48.76679" lon="6.85812">
        <ele>238.3</ele>
        <time>2021-07-30T14:33:05Z</time>
      </trkpt>
      <trkpt lat="48.76679" lon="6.85815">
        <ele>238.4</ele>
        <time>2021-07-30T14:33:07Z</time>
      </trkpt>
      <trkpt lat="48.76677" lon="6.85819">
        <ele>238.6</ele>
        <time>2021-07-30T14:33:09Z</time>
      </trkpt>
      <trkpt lat="48.76677" lon="6.85818">
        <ele>238.6</ele>
        <time>2021-07-30T14:33:10Z</time>
      </trkpt>
      <trkpt lat="48.76676" lon="6.85818">
        <ele>238.7</ele>
        <time>2021-07-30T14:33:11Z</time>
      </trkpt>
      <trkpt lat="48.76676" lon="6.85818">
        <ele>238.7</ele>
        <time>2021-07-30T14:33:13Z</time>
      </trkpt>
      <trkpt lat="48.76676" lon="6.85817">
        <ele>238.7</ele>
        <time>2021-07-30T14:33:14Z</time>
      </trkpt>
      <trkpt lat="48.76675" lon="6.85817">
        <ele>238.7</ele>
        <time>2021-07-30T14:33:16Z</time>
      </trkpt>
      <trkpt lat="48.76675" lon="6.85817">
        <ele>238.7</ele>
        <time>2021-07-30T14:33:18Z</time>
      </trkpt>
      <trkpt lat="48.76675" lon="6.85817">
        <ele>238.8</ele>
        <time>2021-07-30T14:33:20Z</time>
      </trkpt>
      <trkpt lat="48.76674" lon="6.85816">
        <ele>238.8</ele>
        <time>2021-07-30T14:35:40Z</time>
      </trkpt>
      <trkpt lat="48.76674" lon="6.85816">
        <ele>238.8</ele>
        <time>2021-07-30T14:35:42Z</time>
      </trkpt>
      <trkpt lat="48.76674" lon="6.85816">
        <ele>238.8</ele>
        <time>2021-07-30T14:35:43Z</time>
      </trkpt>
      <trkpt lat="48.76673" lon="6.85816">
        <ele>238.9</ele>
        <time>2021-07-30T14:35:44Z</time>
      </trkpt>
      <trkpt lat="48.76673" lon="6.85815">
        <ele>238.9</ele>
        <time>2021-07-30T14:35:45Z</time>
      </trkpt>
      <trkpt lat="48.76672" lon="6.85815">
        <ele>238.9</ele>
        <time>2021-07-30T14:35:46Z</time>
      </trkpt>
      <trkpt lat="48.76672" lon="6.85815">
        <ele>239</ele>
        <time>2021-07-30T14:35:48Z</time>
      </trkpt>
      <trkpt lat="48.76672" lon="6.85814">
        <ele>239</ele>
        <time>2021-07-30T14:35:49Z</time>
      </trkpt>
      <trkpt lat="48.76671" lon="6.85814">
        <ele>239</ele>
        <time>2021-07-30T14:35:51Z</time>
      </trkpt>
      <trkpt lat="48.76671" lon="6.85814">
        <ele>239</ele>
        <time>2021-07-30T14:35:52Z</time>
      </trkpt>
      <trkpt lat="48.76671" lon="6.85814">
        <ele>239.1</ele>
        <time>2021-07-30T14:35:54Z</time>
      </trkpt>
      <trkpt lat="48.7667" lon="6.85813">
        <ele>239.1</ele>
        <time>2021-07-30T14:35:55Z</time>
      </trkpt>
      <trkpt lat="48.7667" lon="6.85813">
        <ele>239.1</ele>
        <time>2021-07-30T14:35:57Z</time>
      </trkpt>
      <trkpt lat="48.7667" lon="6.85813">
        <ele>239.1</ele>
        <time>2021-07-30T14:35:59Z</time>
      </trkpt>
      <trkpt lat="48.76669" lon="6.85813">
        <ele>239.2</ele>
        <time>2021-07-30T14:36:00Z</time>
      </trkpt>
      <trkpt lat="48.76671" lon="6.85809">
        <ele>239.3</ele>
        <time>2021-07-30T14:36:01Z</time>
      </trkpt>
      <trkpt lat="48.76672" lon="6.85808">
        <ele>239.5</ele>
        <time>2021-07-30T14:36:03Z</time>
      </trkpt>
      <trkpt lat="48.76673" lon="6.85807">
        <ele>239.5</ele>
        <time>2021-07-30T14:36:05Z</time>
      </trkpt>
      <trkpt lat="48.76673" lon="6.85807">
        <ele>239.5</ele>
        <time>2021-07-30T14:36:06Z</time>
      </trkpt>
      <trkpt lat="48.76673" lon="6.85807">
        <ele>239.5</ele>
        <time>2021-07-30T14:36:07Z</time>
      </trkpt>
      <trkpt lat="48.76673" lon="6.85807">
        <ele>239.5</ele>
        <time>2021-07-30T14:36:09Z</time>
      </trkpt>
      <trkpt lat="48.76673" lon="6.85807">
        <ele>239.5</ele>
        <time>2021-07-30T14:36:10Z</time>
      </trkpt>
      <trkpt lat="48.76674" lon="6.85845">
        <ele>241.3</ele>
        <time>2021-07-30T14:41:14Z</time>
      </trkpt>
      <trkpt lat="48.76674" lon="6.85848">
        <ele>241.4</ele>
        <time>2021-07-30T14:41:15Z</time>
      </trkpt>
      <trkpt lat="48.76675" lon="6.85854">
        <ele>241.7</ele>
        <time>2021-07-30T14:41:17Z</time>
      </trkpt>
      <trkpt lat="48.76676" lon="6.85858">
        <ele>241.9</ele>
        <time>2021-07-30T14:41:18Z</time>
      </trkpt>
      <trkpt lat="48.76677" lon="6.85863">
        <ele>242.1</ele>
        <time>2021-07-30T14:41:19Z</time>
      </trkpt>
      <trkpt lat="48.76678" lon="6.85864">
        <ele>242.1</ele>
        <time>2021-07-30T14:41:20Z</time>
      </trkpt>
      <trkpt lat="48.76678" lon="6.85866">
        <ele>242.2</ele>
        <time>2021-07-30T14:41:21Z</time>
      </trkpt>
      <trkpt lat="48.76678" lon="6.85867">
        <ele>242.3</ele>
        <time>2021-07-30T14:41:22Z</time>
      </trkpt>
      <trkpt lat="48.76678" lon="6.8587">
        <ele>242.4</ele>
        <time>2021-07-30T14:41:24Z</time>
      </trkpt>
      <trkpt lat="48.76677" lon="6.85876">
        <ele>242.7</ele>
        <time>2021-07-30T14:41:26Z</time>
      </trkpt>
      <trkpt lat="48.76677" lon="6.85881">
        <ele>242.9</ele>
        <time>2021-07-30T14:41:28Z</time>
      </trkpt>
      <trkpt lat="48.76678" lon="6.85884">
        <ele>243</ele>
        <time>2021-07-30T14:41:29Z</time>
      </trkpt>
      <trkpt lat="48.76679" lon="6.85887">
        <ele>243.1</ele>
        <time>2021-07-30T14:41:31Z</time>
      </trkpt>
      <trkpt lat="48.76679" lon="6.85892">
        <ele>243.3</ele>
        <time>2021-07-30T14:41:32Z</time>
      </trkpt>
      <trkpt lat="48.76679" lon="6.85893">
        <ele>243.4</ele>
        <time>2021-07-30T14:41:33Z</time>
      </trkpt>
      <trkpt lat="48.7668" lon="6.85897">
        <ele>243.5</ele>
        <time>2021-07-30T14:41:34Z</time>
      </trkpt>
      <trkpt lat="48.7668" lon="6.85901">
        <ele>243.7</ele>
        <time>2021-07-30T14:41:36Z</time>
      </trkpt>
      <trkpt lat="48.76681" lon="6.85904">
        <ele>243.8</ele>
        <time>2021-07-30T14:41:37Z</time>
      </trkpt>
      <trkpt lat="48.76682" lon="6.85907">
        <ele>243.9</ele>
        <time>2021-07-30T14:41:38Z</time>
      </trkpt>
      <trkpt lat="48.76682" lon="6.85908">
        <ele>243.9</ele>
        <time>2021-07-30T14:41:40Z</time>
      </trkpt>
      <trkpt lat="48.76683" lon="6.85911">
        <ele>244</ele>
        <time>2021-07-30T14:41:41Z</time>
      </trkpt>
      <trkpt lat="48.76683" lon="6.85913">
        <ele>244.1</ele>
        <time>2021-07-30T14:41:42Z</time>
      </trkpt>
      <trkpt lat="48.76683" lon="6.85916">
        <ele>244.2</ele>
        <time>2021-07-30T14:41:43Z</time>
      </trkpt>
      <trkpt lat="48.76682" lon="6.8592">
        <ele>244.4</ele>
        <time>2021-07-30T14:41:44Z</time>
      </trkpt>
      <trkpt lat="48.7668" lon="6.85926">
        <ele>244.6</ele>
        <time>2021-07-30T14:41:46Z</time>
      </trkpt>
      <trkpt lat="48.76678" lon="6.8593">
        <ele>244.8</ele>
        <time>2021-07-30T14:41:47Z</time>
      </trkpt>
      <trkpt lat="48.76678" lon="6.85934">
        <ele>244.9</ele>
        <time>2021-07-30T14:41:48Z</time>
      </trkpt>
      <trkpt lat="48.76678" lon="6.85935">
        <ele>245</ele>
        <time>2021-07-30T14:41:49Z</time>
      </trkpt>
      <trkpt lat="48.76678" lon="6.8594">
        <ele>245.1</ele>
        <time>2021-07-30T14:41:51Z</time>
      </trkpt>
      <trkpt lat="48.76675" lon="6.85945">
        <ele>245.4</ele>
        <time>2021-07-30T14:41:53Z</time>
      </trkpt>
      <trkpt lat="48.76673" lon="6.85949">
        <ele>245.5</ele>
        <time>2021-07-30T14:41:54Z</time>
      </trkpt>
      <trkpt lat="48.76672" lon="6.8595">
        <ele>245.6</ele>
        <time>2021-07-30T14:41:55Z</time>
      </trkpt>
      <trkpt lat="48.7667" lon="6.85954">
        <ele>245.8</ele>
        <time>2021-07-30T14:41:56Z</time>
      </trkpt>
      <trkpt lat="48.7667" lon="6.85955">
        <ele>245.8</ele>
        <time>2021-07-30T14:41:57Z</time>
      </trkpt>
      <trkpt lat="48.76668" lon="6.85958">
        <ele>245.9</ele>
        <time>2021-07-30T14:41:58Z</time>
      </trkpt>
      <trkpt lat="48.76667" lon="6.85961">
        <ele>246</ele>
        <time>2021-07-30T14:42:00Z</time>
      </trkpt>
      <trkpt lat="48.76666" lon="6.85962">
        <ele>246.1</ele>
        <time>2021-07-30T14:42:01Z</time>
      </trkpt>
      <trkpt lat="48.76665" lon="6.85966">
        <ele>246.3</ele>
        <time>2021-07-30T14:42:03Z</time>
      </trkpt>
      <trkpt lat="48.76664" lon="6.85967">
        <ele>246.3</ele>
        <time>2021-07-30T14:42:04Z</time>
      </trkpt>
      <trkpt lat="48.76665" lon="6.85966">
        <ele>246.4</ele>
        <time>2021-07-30T14:42:06Z</time>
      </trkpt>
      <trkpt lat="48.76665" lon="6.85967">
        <ele>246.4</ele>
        <time>2021-07-30T14:42:07Z</time>
      </trkpt>
      <trkpt lat="48.76666" lon="6.85967">
        <ele>246.4</ele>
        <time>2021-07-30T14:42:09Z</time>
      </trkpt>
      <trkpt lat="48.76666" lon="6.85969">
        <ele>246.5</ele>
        <time>2021-07-30T14:42:10Z</time>
      </trkpt>
      <trkpt lat="48.76666" lon="6.85971">
        <ele>246.5</ele>
        <time>2021-07-30T14:42:12Z</time>
      </trkpt>
      <trkpt lat="48.76666" lon="6.85972">
        <ele>246.6</ele>
        <time>2021-07-30T14:42:13Z</time>
      </trkpt>
      <trkpt lat="48.76663" lon="6.85979">
        <ele>246.9</ele>
        <time>2021-07-30T14:42:18Z</time>
      </trkpt>
      <trkpt lat="48.76661" lon="6.85984">
        <ele>247</ele>
        <time>2021-07-30T14:42:20Z</time>
      </trkpt>
      <trkpt lat="48.76659" lon="6.85988">
        <ele>247.2</ele>
        <time>2021-07-30T14:42:22Z</time>
      </trkpt>
      <trkpt lat="48.76658" lon="6.8599">
        <ele>247.3</ele>
        <time>2021-07-30T14:42:23Z</time>
      </trkpt>
      <trkpt lat="48.76657" lon="6.85992">
        <ele>247.4</ele>
        <time>2021-07-30T14:42:24Z</time>
      </trkpt>
      <trkpt lat="48.76656" lon="6.85994">
        <ele>247.4</ele>
        <time>2021-07-30T14:42:25Z</time>
      </trkpt>
      <trkpt lat="48.76655" lon="6.85995">
        <ele>247.5</ele>
        <time>2021-07-30T14:42:26Z</time>
      </trkpt>
      <trkpt lat="48.76655" lon="6.85996">
        <ele>247.5</ele>
        <time>2021-07-30T14:42:28Z</time>
      </trkpt>
      <trkpt lat="48.76654" lon="6.85998">
        <ele>247.6</ele>
        <time>2021-07-30T14:42:29Z</time>
      </trkpt>
      <trkpt lat="48.76652" lon="6.86001">
        <ele>247.7</ele>
        <time>2021-07-30T14:42:31Z</time>
      </trkpt>
      <trkpt lat="48.76651" lon="6.86003">
        <ele>247.8</ele>
        <time>2021-07-30T14:42:32Z</time>
      </trkpt>
      <trkpt lat="48.76648" lon="6.86007">
        <ele>248</ele>
        <time>2021-07-30T14:42:34Z</time>
      </trkpt>
      <trkpt lat="48.76647" lon="6.86008">
        <ele>248</ele>
        <time>2021-07-30T14:42:35Z</time>
      </trkpt>
      <trkpt lat="48.76646" lon="6.86009">
        <ele>248.1</ele>
        <time>2021-07-30T14:42:37Z</time>
      </trkpt>
      <trkpt lat="48.76644" lon="6.86012">
        <ele>248.2</ele>
        <time>2021-07-30T14:42:39Z</time>
      </trkpt>
      <trkpt lat="48.76643" lon="6.86013">
        <ele>248.3</ele>
        <time>2021-07-30T14:42:40Z</time>
      </trkpt>
      <trkpt lat="48.7664" lon="6.86016">
        <ele>248.4</ele>
        <time>2021-07-30T14:42:42Z</time>
      </trkpt>
      <trkpt lat="48.76639" lon="6.86017">
        <ele>248.5</ele>
        <time>2021-07-30T14:42:43Z</time>
      </trkpt>
      <trkpt lat="48.76638" lon="6.86018">
        <ele>248.5</ele>
        <time>2021-07-30T14:42:44Z</time>
      </trkpt>
      <trkpt lat="48.76636" lon="6.86021">
        <ele>248.7</ele>
        <time>2021-07-30T14:42:46Z</time>
      </trkpt>
      <trkpt lat="48.76635" lon="6.86022">
        <ele>248.7</ele>
        <time>2021-07-30T14:42:47Z</time>
      </trkpt>
      <trkpt lat="48.76634" lon="6.86024">
        <ele>248.8</ele>
        <time>2021-07-30T14:42:48Z</time>
      </trkpt>
      <trkpt lat="48.76633" lon="6.86024">
        <ele>248.9</ele>
        <time>2021-07-30T14:42:50Z</time>
      </trkpt>
      <trkpt lat="48.76632" lon="6.86026">
        <ele>248.9</ele>
        <time>2021-07-30T14:42:51Z</time>
      </trkpt>
      <trkpt lat="48.76632" lon="6.86027">
        <ele>248.9</ele>
        <time>2021-07-30T14:42:53Z</time>
      </trkpt>
      <trkpt lat="48.76632" lon="6.86027">
        <ele>249</ele>
        <time>2021-07-30T14:42:54Z</time>
      </trkpt>
      <trkpt lat="48.76632" lon="6.86028">
        <ele>249</ele>
        <time>2021-07-30T14:42:56Z</time>
      </trkpt>
      <trkpt lat="48.76632" lon="6.86028">
        <ele>249</ele>
        <time>2021-07-30T14:42:57Z</time>
      </trkpt>
      <trkpt lat="48.76632" lon="6.86028">
        <ele>249</ele>
        <time>2021-07-30T14:42:58Z</time>
      </trkpt>
      <trkpt lat="48.76632" lon="6.86029">
        <ele>249</ele>
        <time>2021-07-30T14:42:59Z</time>
      </trkpt>
      <trkpt lat="48.76633" lon="6.86029">
        <ele>249</ele>
        <time>2021-07-30T14:43:00Z</time>
      </trkpt>
      <trkpt lat="48.76618" lon="6.86041">
        <ele>249.9</ele>
        <time>2021-07-30T14:43:13Z</time>
      </trkpt>
      <trkpt lat="48.76615" lon="6.86043">
        <ele>250.1</ele>
        <time>2021-07-30T14:43:14Z</time>
      </trkpt>
      <trkpt lat="48.7661" lon="6.86045">
        <ele>250.3</ele>
        <time>2021-07-30T14:43:15Z</time>
      </trkpt>
      <trkpt lat="48.76609" lon="6.86046">
        <ele>250.4</ele>
        <time>2021-07-30T14:43:16Z</time>
      </trkpt>
      <trkpt lat="48.76605" lon="6.86047">
        <ele>250.5</ele>
        <time>2021-07-30T14:43:18Z</time>
      </trkpt>
      <trkpt lat="48.76603" lon="6.86049">
        <ele>250.7</ele>
        <time>2021-07-30T14:43:19Z</time>
      </trkpt>
      <trkpt lat="48.76602" lon="6.8605">
        <ele>250.7</ele>
        <time>2021-07-30T14:43:20Z</time>
      </trkpt>
      <trkpt lat="48.76602" lon="6.86051">
        <ele>250.8</ele>
        <time>2021-07-30T14:43:22Z</time>
      </trkpt>
      <trkpt lat="48.76601" lon="6.86052">
        <ele>250.8</ele>
        <time>2021-07-30T14:43:23Z</time>
      </trkpt>
      <trkpt lat="48.766" lon="6.86054">
        <ele>250.9</ele>
        <time>2021-07-30T14:43:24Z</time>
      </trkpt>
      <trkpt lat="48.76597" lon="6.86056">
        <ele>251</ele>
        <time>2021-07-30T14:43:27Z</time>
      </trkpt>
      <trkpt lat="48.76596" lon="6.86057">
        <ele>251.1</ele>
        <time>2021-07-30T14:43:28Z</time>
      </trkpt>
      <trkpt lat="48.76596" lon="6.86057">
        <ele>251.1</ele>
        <time>2021-07-30T14:43:30Z</time>
      </trkpt>
      <trkpt lat="48.76595" lon="6.86057">
        <ele>251.2</ele>
        <time>2021-07-30T14:43:31Z</time>
      </trkpt>
      <trkpt lat="48.76595" lon="6.86058">
        <ele>251.2</ele>
        <time>2021-07-30T14:43:32Z</time>
      </trkpt>
      <trkpt lat="48.76594" lon="6.86058">
        <ele>251.2</ele>
        <time>2021-07-30T14:43:34Z</time>
      </trkpt>
      <trkpt lat="48.76587" lon="6.86068">
        <ele>251.7</ele>
        <time>2021-07-30T14:43:42Z</time>
      </trkpt>
      <trkpt lat="48.76584" lon="6.86072">
        <ele>251.8</ele>
        <time>2021-07-30T14:43:43Z</time>
      </trkpt>
      <trkpt lat="48.76581" lon="6.86077">
        <ele>251.9</ele>
        <time>2021-07-30T14:43:45Z</time>
      </trkpt>
      <trkpt lat="48.76579" lon="6.8608">
        <ele>252</ele>
        <time>2021-07-30T14:43:47Z</time>
      </trkpt>
      <trkpt lat="48.76577" lon="6.86085">
        <ele>252.1</ele>
        <time>2021-07-30T14:43:48Z</time>
      </trkpt>
      <trkpt lat="48.76574" lon="6.86089">
        <ele>252.2</ele>
        <time>2021-07-30T14:43:50Z</time>
      </trkpt>
      <trkpt lat="48.76573" lon="6.86091">
        <ele>252.2</ele>
        <time>2021-07-30T14:43:52Z</time>
      </trkpt>
      <trkpt lat="48.76572" lon="6.86092">
        <ele>252.3</ele>
        <time>2021-07-30T14:43:53Z</time>
      </trkpt>
      <trkpt lat="48.7657" lon="6.86095">
        <ele>252.4</ele>
        <time>2021-07-30T14:43:55Z</time>
      </trkpt>
      <trkpt lat="48.76569" lon="6.86097">
        <ele>252.4</ele>
        <time>2021-07-30T14:43:56Z</time>
      </trkpt>
      <trkpt lat="48.76569" lon="6.86102">
        <ele>252.5</ele>
        <time>2021-07-30T14:43:57Z</time>
      </trkpt>
      <trkpt lat="48.76569" lon="6.86105">
        <ele>252.5</ele>
        <time>2021-07-30T14:43:59Z</time>
      </trkpt>
      <trkpt lat="48.76568" lon="6.86108">
        <ele>252.5</ele>
        <time>2021-07-30T14:44:01Z</time>
      </trkpt>
      <trkpt lat="48.76567" lon="6.8611">
        <ele>252.6</ele>
        <time>2021-07-30T14:44:02Z</time>
      </trkpt>
      <trkpt lat="48.76566" lon="6.86111">
        <ele>252.6</ele>
        <time>2021-07-30T14:44:03Z</time>
      </trkpt>
      <trkpt lat="48.76565" lon="6.86112">
        <ele>252.6</ele>
        <time>2021-07-30T14:44:04Z</time>
      </trkpt>
      <trkpt lat="48.76565" lon="6.86113">
        <ele>252.7</ele>
        <time>2021-07-30T14:44:05Z</time>
      </trkpt>
      <trkpt lat="48.76564" lon="6.86116">
        <ele>252.7</ele>
        <time>2021-07-30T14:44:06Z</time>
      </trkpt>
      <trkpt lat="48.76563" lon="6.86118">
        <ele>252.8</ele>
        <time>2021-07-30T14:44:07Z</time>
      </trkpt>
      <trkpt lat="48.76562" lon="6.86121">
        <ele>252.8</ele>
        <time>2021-07-30T14:44:09Z</time>
      </trkpt>
      <trkpt lat="48.76561" lon="6.86123">
        <ele>252.9</ele>
        <time>2021-07-30T14:44:10Z</time>
      </trkpt>
      <trkpt lat="48.7656" lon="6.86125">
        <ele>252.9</ele>
        <time>2021-07-30T14:44:11Z</time>
      </trkpt>
      <trkpt lat="48.7656" lon="6.86127">
        <ele>252.9</ele>
        <time>2021-07-30T14:44:12Z</time>
      </trkpt>
      <trkpt lat="48.76558" lon="6.8613">
        <ele>253</ele>
        <time>2021-07-30T14:44:14Z</time>
      </trkpt>
      <trkpt lat="48.76557" lon="6.86134">
        <ele>253.1</ele>
        <time>2021-07-30T14:44:15Z</time>
      </trkpt>
      <trkpt lat="48.76556" lon="6.86139">
        <ele>253.2</ele>
        <time>2021-07-30T14:44:17Z</time>
      </trkpt>
      <trkpt lat="48.76556" lon="6.8614">
        <ele>253.2</ele>
        <time>2021-07-30T14:44:18Z</time>
      </trkpt>
      <trkpt lat="48.76555" lon="6.86145">
        <ele>253.3</ele>
        <time>2021-07-30T14:44:19Z</time>
      </trkpt>
      <trkpt lat="48.76555" lon="6.86146">
        <ele>253.4</ele>
        <time>2021-07-30T14:44:20Z</time>
      </trkpt>
      <trkpt lat="48.76554" lon="6.86148">
        <ele>253.4</ele>
        <time>2021-07-30T14:44:22Z</time>
      </trkpt>
      <trkpt lat="48.76554" lon="6.8615">
        <ele>253.5</ele>
        <time>2021-07-30T14:44:23Z</time>
      </trkpt>
      <trkpt lat="48.76553" lon="6.86154">
        <ele>253.5</ele>
        <time>2021-07-30T14:44:25Z</time>
      </trkpt>
      <trkpt lat="48.76552" lon="6.86158">
        <ele>253.6</ele>
        <time>2021-07-30T14:44:26Z</time>
      </trkpt>
      <trkpt lat="48.76552" lon="6.86159">
        <ele>253.7</ele>
        <time>2021-07-30T14:44:27Z</time>
      </trkpt>
      <trkpt lat="48.76551" lon="6.86163">
        <ele>253.8</ele>
        <time>2021-07-30T14:44:28Z</time>
      </trkpt>
      <trkpt lat="48.76551" lon="6.86165">
        <ele>253.8</ele>
        <time>2021-07-30T14:44:29Z</time>
      </trkpt>
      <trkpt lat="48.7655" lon="6.8617">
        <ele>253.9</ele>
        <time>2021-07-30T14:44:31Z</time>
      </trkpt>
      <trkpt lat="48.7655" lon="6.86171">
        <ele>254</ele>
        <time>2021-07-30T14:44:32Z</time>
      </trkpt>
      <trkpt lat="48.76549" lon="6.86174">
        <ele>254</ele>
        <time>2021-07-30T14:44:33Z</time>
      </trkpt>
      <trkpt lat="48.76549" lon="6.86175">
        <ele>254.1</ele>
        <time>2021-07-30T14:44:34Z</time>
      </trkpt>
      <trkpt lat="48.76549" lon="6.86176">
        <ele>254.1</ele>
        <time>2021-07-30T14:44:35Z</time>
      </trkpt>
      <trkpt lat="48.76547" lon="6.86181">
        <ele>254.2</ele>
        <time>2021-07-30T14:44:36Z</time>
      </trkpt>
      <trkpt lat="48.76546" lon="6.86182">
        <ele>254.3</ele>
        <time>2021-07-30T14:44:37Z</time>
      </trkpt>
      <trkpt lat="48.76545" lon="6.86185">
        <ele>254.4</ele>
        <time>2021-07-30T14:44:39Z</time>
      </trkpt>
      <trkpt lat="48.76544" lon="6.86186">
        <ele>254.4</ele>
        <time>2021-07-30T14:44:40Z</time>
      </trkpt>
      <trkpt lat="48.76542" lon="6.8619">
        <ele>254.5</ele>
        <time>2021-07-30T14:44:41Z</time>
      </trkpt>
      <trkpt lat="48.76541" lon="6.86192">
        <ele>254.6</ele>
        <time>2021-07-30T14:44:42Z</time>
      </trkpt>
      <trkpt lat="48.76541" lon="6.86194">
        <ele>254.7</ele>
        <time>2021-07-30T14:44:43Z</time>
      </trkpt>
      <trkpt lat="48.7654" lon="6.86197">
        <ele>254.8</ele>
        <time>2021-07-30T14:44:45Z</time>
      </trkpt>
      <trkpt lat="48.76539" lon="6.86201">
        <ele>254.9</ele>
        <time>2021-07-30T14:44:46Z</time>
      </trkpt>
      <trkpt lat="48.76538" lon="6.86203">
        <ele>255</ele>
        <time>2021-07-30T14:44:47Z</time>
      </trkpt>
      <trkpt lat="48.76536" lon="6.86206">
        <ele>255.1</ele>
        <time>2021-07-30T14:44:48Z</time>
      </trkpt>
      <trkpt lat="48.76535" lon="6.86207">
        <ele>255.2</ele>
        <time>2021-07-30T14:44:49Z</time>
      </trkpt>
      <trkpt lat="48.76533" lon="6.86209">
        <ele>255.2</ele>
        <time>2021-07-30T14:44:50Z</time>
      </trkpt>
      <trkpt lat="48.76532" lon="6.86213">
        <ele>255.4</ele>
        <time>2021-07-30T14:44:53Z</time>
      </trkpt>
      <trkpt lat="48.76532" lon="6.86215">
        <ele>255.5</ele>
        <time>2021-07-30T14:44:54Z</time>
      </trkpt>
      <trkpt lat="48.76532" lon="6.86217">
        <ele>255.5</ele>
        <time>2021-07-30T14:44:55Z</time>
      </trkpt>
      <trkpt lat="48.76532" lon="6.86219">
        <ele>255.6</ele>
        <time>2021-07-30T14:44:56Z</time>
      </trkpt>
      <trkpt lat="48.76531" lon="6.86221">
        <ele>255.7</ele>
        <time>2021-07-30T14:44:57Z</time>
      </trkpt>
      <trkpt lat="48.76531" lon="6.86222">
        <ele>255.7</ele>
        <time>2021-07-30T14:44:59Z</time>
      </trkpt>
      <trkpt lat="48.7653" lon="6.86224">
        <ele>255.8</ele>
        <time>2021-07-30T14:45:00Z</time>
      </trkpt>
      <trkpt lat="48.7653" lon="6.86225">
        <ele>255.8</ele>
        <time>2021-07-30T14:45:01Z</time>
      </trkpt>
      <trkpt lat="48.76529" lon="6.86227">
        <ele>255.9</ele>
        <time>2021-07-30T14:45:02Z</time>
      </trkpt>
      <trkpt lat="48.76529" lon="6.86229">
        <ele>256</ele>
        <time>2021-07-30T14:45:03Z</time>
      </trkpt>
      <trkpt lat="48.76528" lon="6.86232">
        <ele>256.1</ele>
        <time>2021-07-30T14:45:04Z</time>
      </trkpt>
      <trkpt lat="48.76526" lon="6.86236">
        <ele>256.3</ele>
        <time>2021-07-30T14:45:05Z</time>
      </trkpt>
      <trkpt lat="48.76525" lon="6.86238">
        <ele>256.4</ele>
        <time>2021-07-30T14:45:06Z</time>
      </trkpt>
      <trkpt lat="48.76524" lon="6.86239">
        <ele>256.5</ele>
        <time>2021-07-30T14:45:07Z</time>
      </trkpt>
      <trkpt lat="48.76523" lon="6.86241">
        <ele>256.6</ele>
        <time>2021-07-30T14:45:09Z</time>
      </trkpt>
      <trkpt lat="48.76522" lon="6.86244">
        <ele>256.7</ele>
        <time>2021-07-30T14:45:11Z</time>
      </trkpt>
      <trkpt lat="48.7652" lon="6.86249">
        <ele>256.9</ele>
        <time>2021-07-30T14:45:12Z</time>
      </trkpt>
      <trkpt lat="48.7652" lon="6.86251">
        <ele>257</ele>
        <time>2021-07-30T14:45:13Z</time>
      </trkpt>
      <trkpt lat="48.76518" lon="6.86255">
        <ele>257.2</ele>
        <time>2021-07-30T14:45:15Z</time>
      </trkpt>
      <trkpt lat="48.76518" lon="6.86256">
        <ele>257.2</ele>
        <time>2021-07-30T14:45:16Z</time>
      </trkpt>
      <trkpt lat="48.76517" lon="6.86261">
        <ele>257.4</ele>
        <time>2021-07-30T14:45:17Z</time>
      </trkpt>
      <trkpt lat="48.76517" lon="6.86261">
        <ele>257.4</ele>
        <time>2021-07-30T14:45:18Z</time>
      </trkpt>
      <trkpt lat="48.76517" lon="6.86263">
        <ele>257.5</ele>
        <time>2021-07-30T14:45:19Z</time>
      </trkpt>
      <trkpt lat="48.76516" lon="6.86268">
        <ele>257.7</ele>
        <time>2021-07-30T14:45:21Z</time>
      </trkpt>
      <trkpt lat="48.76515" lon="6.86272">
        <ele>257.9</ele>
        <time>2021-07-30T14:45:23Z</time>
      </trkpt>
      <trkpt lat="48.76514" lon="6.86273">
        <ele>257.9</ele>
        <time>2021-07-30T14:45:24Z</time>
      </trkpt>
      <trkpt lat="48.76514" lon="6.86275">
        <ele>258</ele>
        <time>2021-07-30T14:45:25Z</time>
      </trkpt>
      <trkpt lat="48.76512" lon="6.86279">
        <ele>258.2</ele>
        <time>2021-07-30T14:45:27Z</time>
      </trkpt>
      <trkpt lat="48.76511" lon="6.86282">
        <ele>258.3</ele>
        <time>2021-07-30T14:45:28Z</time>
      </trkpt>
      <trkpt lat="48.76511" lon="6.86283">
        <ele>258.3</ele>
        <time>2021-07-30T14:45:29Z</time>
      </trkpt>
      <trkpt lat="48.76512" lon="6.86284">
        <ele>258.4</ele>
        <time>2021-07-30T14:45:30Z</time>
      </trkpt>
      <trkpt lat="48.76512" lon="6.86285">
        <ele>258.4</ele>
        <time>2021-07-30T14:45:31Z</time>
      </trkpt>
      <trkpt lat="48.76512" lon="6.86286">
        <ele>258.4</ele>
        <time>2021-07-30T14:45:32Z</time>
      </trkpt>
      <trkpt lat="48.76512" lon="6.8629">
        <ele>258.6</ele>
        <time>2021-07-30T14:45:33Z</time>
      </trkpt>
      <trkpt lat="48.76512" lon="6.86292">
        <ele>258.7</ele>
        <time>2021-07-30T14:45:34Z</time>
      </trkpt>
      <trkpt lat="48.76511" lon="6.86296">
        <ele>258.9</ele>
        <time>2021-07-30T14:45:35Z</time>
      </trkpt>
      <trkpt lat="48.7651" lon="6.86297">
        <ele>258.9</ele>
        <time>2021-07-30T14:45:36Z</time>
      </trkpt>
      <trkpt lat="48.7651" lon="6.86299">
        <ele>259</ele>
        <time>2021-07-30T14:45:37Z</time>
      </trkpt>
      <trkpt lat="48.7651" lon="6.86302">
        <ele>259.2</ele>
        <time>2021-07-30T14:45:39Z</time>
      </trkpt>
      <trkpt lat="48.7651" lon="6.86308">
        <ele>259.4</ele>
        <time>2021-07-30T14:45:41Z</time>
      </trkpt>
      <trkpt lat="48.7651" lon="6.86312">
        <ele>259.5</ele>
        <time>2021-07-30T14:45:42Z</time>
      </trkpt>
      <trkpt lat="48.7651" lon="6.86313">
        <ele>259.6</ele>
        <time>2021-07-30T14:45:43Z</time>
      </trkpt>
      <trkpt lat="48.76509" lon="6.86315">
        <ele>259.7</ele>
        <time>2021-07-30T14:45:44Z</time>
      </trkpt>
      <trkpt lat="48.76508" lon="6.86318">
        <ele>259.8</ele>
        <time>2021-07-30T14:45:45Z</time>
      </trkpt>
      <trkpt lat="48.76506" lon="6.86321">
        <ele>260</ele>
        <time>2021-07-30T14:45:47Z</time>
      </trkpt>
      <trkpt lat="48.76505" lon="6.86322">
        <ele>260.1</ele>
        <time>2021-07-30T14:45:48Z</time>
      </trkpt>
      <trkpt lat="48.76504" lon="6.86325">
        <ele>260.2</ele>
        <time>2021-07-30T14:45:50Z</time>
      </trkpt>
      <trkpt lat="48.76504" lon="6.86327">
        <ele>260.3</ele>
        <time>2021-07-30T14:45:51Z</time>
      </trkpt>
      <trkpt lat="48.76503" lon="6.8633">
        <ele>260.4</ele>
        <time>2021-07-30T14:45:53Z</time>
      </trkpt>
      <trkpt lat="48.76503" lon="6.86331">
        <ele>260.4</ele>
        <time>2021-07-30T14:45:54Z</time>
      </trkpt>
      <trkpt lat="48.76503" lon="6.86333">
        <ele>260.5</ele>
        <time>2021-07-30T14:45:55Z</time>
      </trkpt>
      <trkpt lat="48.76503" lon="6.86336">
        <ele>260.6</ele>
        <time>2021-07-30T14:45:56Z</time>
      </trkpt>
      <trkpt lat="48.765" lon="6.86339">
        <ele>260.8</ele>
        <time>2021-07-30T14:45:58Z</time>
      </trkpt>
      <trkpt lat="48.76499" lon="6.86341">
        <ele>260.9</ele>
        <time>2021-07-30T14:45:59Z</time>
      </trkpt>
      <trkpt lat="48.76498" lon="6.86343">
        <ele>261</ele>
        <time>2021-07-30T14:46:00Z</time>
      </trkpt>
      <trkpt lat="48.76498" lon="6.86345">
        <ele>261.1</ele>
        <time>2021-07-30T14:46:02Z</time>
      </trkpt>
      <trkpt lat="48.76497" lon="6.86348">
        <ele>261.2</ele>
        <time>2021-07-30T14:46:03Z</time>
      </trkpt>
      <trkpt lat="48.76498" lon="6.8635">
        <ele>261.3</ele>
        <time>2021-07-30T14:46:04Z</time>
      </trkpt>
      <trkpt lat="48.76498" lon="6.86352">
        <ele>261.4</ele>
        <time>2021-07-30T14:46:05Z</time>
      </trkpt>
      <trkpt lat="48.76497" lon="6.86357">
        <ele>261.6</ele>
        <time>2021-07-30T14:46:06Z</time>
      </trkpt>
      <trkpt lat="48.76497" lon="6.86358">
        <ele>261.6</ele>
        <time>2021-07-30T14:46:07Z</time>
      </trkpt>
      <trkpt lat="48.76494" lon="6.86359">
        <ele>261.7</ele>
        <time>2021-07-30T14:46:08Z</time>
      </trkpt>
      <trkpt lat="48.76493" lon="6.86361">
        <ele>261.8</ele>
        <time>2021-07-30T14:46:10Z</time>
      </trkpt>
      <trkpt lat="48.76493" lon="6.8636">
        <ele>261.9</ele>
        <time>2021-07-30T14:46:12Z</time>
      </trkpt>
      <trkpt lat="48.76493" lon="6.86361">
        <ele>261.9</ele>
        <time>2021-07-30T14:46:13Z</time>
      </trkpt>
      <trkpt lat="48.76493" lon="6.86365">
        <ele>262</ele>
        <time>2021-07-30T14:46:14Z</time>
      </trkpt>
      <trkpt lat="48.76493" lon="6.86367">
        <ele>262.1</ele>
        <time>2021-07-30T14:46:15Z</time>
      </trkpt>
      <trkpt lat="48.76493" lon="6.86369">
        <ele>262.2</ele>
        <time>2021-07-30T14:46:16Z</time>
      </trkpt>
      <trkpt lat="48.76493" lon="6.86374">
        <ele>262.4</ele>
        <time>2021-07-30T14:46:18Z</time>
      </trkpt>
      <trkpt lat="48.76493" lon="6.86375">
        <ele>262.4</ele>
        <time>2021-07-30T14:46:19Z</time>
      </trkpt>
      <trkpt lat="48.76492" lon="6.86378">
        <ele>262.5</ele>
        <time>2021-07-30T14:46:20Z</time>
      </trkpt>
      <trkpt lat="48.76492" lon="6.86379">
        <ele>262.6</ele>
        <time>2021-07-30T14:46:21Z</time>
      </trkpt>
      <trkpt lat="48.76493" lon="6.86381">
        <ele>262.7</ele>
        <time>2021-07-30T14:46:23Z</time>
      </trkpt>
      <trkpt lat="48.76493" lon="6.86383">
        <ele>262.7</ele>
        <time>2021-07-30T14:46:24Z</time>
      </trkpt>
      <trkpt lat="48.76493" lon="6.86385">
        <ele>262.8</ele>
        <time>2021-07-30T14:46:25Z</time>
      </trkpt>
      <trkpt lat="48.76493" lon="6.86388">
        <ele>262.9</ele>
        <time>2021-07-30T14:46:26Z</time>
      </trkpt>
      <trkpt lat="48.76493" lon="6.8639">
        <ele>263</ele>
        <time>2021-07-30T14:46:27Z</time>
      </trkpt>
      <trkpt lat="48.76493" lon="6.86391">
        <ele>263</ele>
        <time>2021-07-30T14:46:28Z</time>
      </trkpt>
      <trkpt lat="48.76493" lon="6.86393">
        <ele>263.1</ele>
        <time>2021-07-30T14:46:30Z</time>
      </trkpt>
      <trkpt lat="48.76494" lon="6.86397">
        <ele>263.3</ele>
        <time>2021-07-30T14:46:32Z</time>
      </trkpt>
      <trkpt lat="48.76493" lon="6.86402">
        <ele>263.4</ele>
        <time>2021-07-30T14:46:33Z</time>
      </trkpt>
      <trkpt lat="48.76492" lon="6.86402">
        <ele>263.5</ele>
        <time>2021-07-30T14:46:34Z</time>
      </trkpt>
      <trkpt lat="48.76492" lon="6.86404">
        <ele>263.6</ele>
        <time>2021-07-30T14:46:35Z</time>
      </trkpt>
      <trkpt lat="48.76491" lon="6.86406">
        <ele>263.6</ele>
        <time>2021-07-30T14:46:36Z</time>
      </trkpt>
      <trkpt lat="48.7649" lon="6.86411">
        <ele>263.8</ele>
        <time>2021-07-30T14:46:37Z</time>
      </trkpt>
      <trkpt lat="48.7649" lon="6.86412">
        <ele>263.8</ele>
        <time>2021-07-30T14:46:38Z</time>
      </trkpt>
      <trkpt lat="48.7649" lon="6.86414">
        <ele>263.9</ele>
        <time>2021-07-30T14:46:39Z</time>
      </trkpt>
      <trkpt lat="48.7649" lon="6.86416">
        <ele>264</ele>
        <time>2021-07-30T14:46:41Z</time>
      </trkpt>
      <trkpt lat="48.76491" lon="6.8642">
        <ele>264.2</ele>
        <time>2021-07-30T14:46:43Z</time>
      </trkpt>
      <trkpt lat="48.76492" lon="6.86427">
        <ele>264.4</ele>
        <time>2021-07-30T14:46:45Z</time>
      </trkpt>
      <trkpt lat="48.76493" lon="6.86429">
        <ele>264.5</ele>
        <time>2021-07-30T14:46:46Z</time>
      </trkpt>
      <trkpt lat="48.76493" lon="6.86431">
        <ele>264.6</ele>
        <time>2021-07-30T14:46:47Z</time>
      </trkpt>
      <trkpt lat="48.76494" lon="6.86435">
        <ele>264.7</ele>
        <time>2021-07-30T14:46:49Z</time>
      </trkpt>
      <trkpt lat="48.76495" lon="6.86435">
        <ele>264.8</ele>
        <time>2021-07-30T14:46:50Z</time>
      </trkpt>
      <trkpt lat="48.76495" lon="6.86436">
        <ele>264.8</ele>
        <time>2021-07-30T14:46:52Z</time>
      </trkpt>
      <trkpt lat="48.76496" lon="6.86436">
        <ele>264.9</ele>
        <time>2021-07-30T14:46:53Z</time>
      </trkpt>
      <trkpt lat="48.76496" lon="6.86437">
        <ele>264.9</ele>
        <time>2021-07-30T14:46:54Z</time>
      </trkpt>
      <trkpt lat="48.76496" lon="6.86437">
        <ele>264.9</ele>
        <time>2021-07-30T14:46:55Z</time>
      </trkpt>
      <trkpt lat="48.76496" lon="6.86438">
        <ele>264.9</ele>
        <time>2021-07-30T14:46:56Z</time>
      </trkpt>
      <trkpt lat="48.76496" lon="6.86439">
        <ele>265</ele>
        <time>2021-07-30T14:46:57Z</time>
      </trkpt>
      <trkpt lat="48.76496" lon="6.86441">
        <ele>265</ele>
        <time>2021-07-30T14:46:59Z</time>
      </trkpt>
      <trkpt lat="48.76496" lon="6.86446">
        <ele>265.2</ele>
        <time>2021-07-30T14:47:00Z</time>
      </trkpt>
      <trkpt lat="48.76497" lon="6.86451">
        <ele>265.4</ele>
        <time>2021-07-30T14:47:01Z</time>
      </trkpt>
      <trkpt lat="48.76498" lon="6.86452">
        <ele>265.5</ele>
        <time>2021-07-30T14:47:02Z</time>
      </trkpt>
      <trkpt lat="48.76501" lon="6.86456">
        <ele>265.6</ele>
        <time>2021-07-30T14:47:03Z</time>
      </trkpt>
      <trkpt lat="48.76503" lon="6.86462">
        <ele>265.9</ele>
        <time>2021-07-30T14:47:05Z</time>
      </trkpt>
      <trkpt lat="48.76504" lon="6.86464">
        <ele>265.9</ele>
        <time>2021-07-30T14:47:06Z</time>
      </trkpt>
      <trkpt lat="48.76504" lon="6.86465">
        <ele>266</ele>
        <time>2021-07-30T14:47:07Z</time>
      </trkpt>
      <trkpt lat="48.76508" lon="6.86468">
        <ele>266.2</ele>
        <time>2021-07-30T14:47:09Z</time>
      </trkpt>
      <trkpt lat="48.76508" lon="6.86469">
        <ele>266.2</ele>
        <time>2021-07-30T14:47:10Z</time>
      </trkpt>
      <trkpt lat="48.7651" lon="6.86472">
        <ele>266.4</ele>
        <time>2021-07-30T14:47:11Z</time>
      </trkpt>
      <trkpt lat="48.7651" lon="6.86473">
        <ele>266.4</ele>
        <time>2021-07-30T14:47:12Z</time>
      </trkpt>
      <trkpt lat="48.76511" lon="6.86479">
        <ele>266.6</ele>
        <time>2021-07-30T14:47:13Z</time>
      </trkpt>
      <trkpt lat="48.76512" lon="6.86481">
        <ele>266.6</ele>
        <time>2021-07-30T14:47:14Z</time>
      </trkpt>
      <trkpt lat="48.76512" lon="6.86482">
        <ele>266.7</ele>
        <time>2021-07-30T14:47:15Z</time>
      </trkpt>
      <trkpt lat="48.76512" lon="6.86482">
        <ele>266.7</ele>
        <time>2021-07-30T14:47:16Z</time>
      </trkpt>
      <trkpt lat="48.76512" lon="6.86483">
        <ele>266.7</ele>
        <time>2021-07-30T14:47:18Z</time>
      </trkpt>
      <trkpt lat="48.76512" lon="6.86483">
        <ele>266.7</ele>
        <time>2021-07-30T14:47:19Z</time>
      </trkpt>
      <trkpt lat="48.76513" lon="6.86488">
        <ele>266.9</ele>
        <time>2021-07-30T14:47:21Z</time>
      </trkpt>
      <trkpt lat="48.76513" lon="6.86493">
        <ele>267</ele>
        <time>2021-07-30T14:47:22Z</time>
      </trkpt>
      <trkpt lat="48.76512" lon="6.86494">
        <ele>267</ele>
        <time>2021-07-30T14:47:23Z</time>
      </trkpt>
      <trkpt lat="48.76513" lon="6.86497">
        <ele>267.1</ele>
        <time>2021-07-30T14:47:25Z</time>
      </trkpt>
      <trkpt lat="48.76513" lon="6.86498">
        <ele>267.2</ele>
        <time>2021-07-30T14:47:27Z</time>
      </trkpt>
      <trkpt lat="48.76513" lon="6.86498">
        <ele>267.2</ele>
        <time>2021-07-30T14:47:28Z</time>
      </trkpt>
      <trkpt lat="48.76513" lon="6.86498">
        <ele>267.2</ele>
        <time>2021-07-30T14:47:29Z</time>
      </trkpt>
      <trkpt lat="48.76513" lon="6.86498">
        <ele>267.2</ele>
        <time>2021-07-30T14:47:30Z</time>
      </trkpt>
      <trkpt lat="48.76513" lon="6.86499">
        <ele>267.2</ele>
        <time>2021-07-30T14:47:32Z</time>
      </trkpt>
      <trkpt lat="48.76513" lon="6.865">
        <ele>267.2</ele>
        <time>2021-07-30T14:47:33Z</time>
      </trkpt>
      <trkpt lat="48.76513" lon="6.86519">
        <ele>267.8</ele>
        <time>2021-07-30T14:47:40Z</time>
      </trkpt>
      <trkpt lat="48.76513" lon="6.86525">
        <ele>268</ele>
        <time>2021-07-30T14:47:41Z</time>
      </trkpt>
      <trkpt lat="48.76513" lon="6.86531">
        <ele>268.1</ele>
        <time>2021-07-30T14:47:42Z</time>
      </trkpt>
      <trkpt lat="48.76513" lon="6.86534">
        <ele>268.2</ele>
        <time>2021-07-30T14:47:43Z</time>
      </trkpt>
      <trkpt lat="48.76512" lon="6.8654">
        <ele>268.3</ele>
        <time>2021-07-30T14:47:45Z</time>
      </trkpt>
      <trkpt lat="48.76512" lon="6.86545">
        <ele>268.5</ele>
        <time>2021-07-30T14:47:46Z</time>
      </trkpt>
      <trkpt lat="48.76511" lon="6.8655">
        <ele>268.6</ele>
        <time>2021-07-30T14:47:47Z</time>
      </trkpt>
      <trkpt lat="48.76511" lon="6.86551">
        <ele>268.6</ele>
        <time>2021-07-30T14:47:48Z</time>
      </trkpt>
      <trkpt lat="48.76511" lon="6.86557">
        <ele>268.7</ele>
        <time>2021-07-30T14:47:49Z</time>
      </trkpt>
      <trkpt lat="48.7651" lon="6.8656">
        <ele>268.8</ele>
        <time>2021-07-30T14:47:50Z</time>
      </trkpt>
      <trkpt lat="48.7651" lon="6.86566">
        <ele>268.9</ele>
        <time>2021-07-30T14:47:51Z</time>
      </trkpt>
      <trkpt lat="48.7651" lon="6.86571">
        <ele>269</ele>
        <time>2021-07-30T14:47:52Z</time>
      </trkpt>
      <trkpt lat="48.76511" lon="6.86572">
        <ele>269.1</ele>
        <time>2021-07-30T14:47:53Z</time>
      </trkpt>
      <trkpt lat="48.76511" lon="6.86575">
        <ele>269.2</ele>
        <time>2021-07-30T14:47:55Z</time>
      </trkpt>
      <trkpt lat="48.76511" lon="6.86577">
        <ele>269.2</ele>
        <time>2021-07-30T14:47:57Z</time>
      </trkpt>
      <trkpt lat="48.76511" lon="6.86578">
        <ele>269.2</ele>
        <time>2021-07-30T14:47:58Z</time>
      </trkpt>
      <trkpt lat="48.76511" lon="6.86578">
        <ele>269.2</ele>
        <time>2021-07-30T14:47:59Z</time>
      </trkpt>
      <trkpt lat="48.76512" lon="6.86582">
        <ele>269.3</ele>
        <time>2021-07-30T14:48:01Z</time>
      </trkpt>
      <trkpt lat="48.76511" lon="6.8659">
        <ele>269.5</ele>
        <time>2021-07-30T14:48:03Z</time>
      </trkpt>
      <trkpt lat="48.76511" lon="6.86597">
        <ele>269.7</ele>
        <time>2021-07-30T14:48:04Z</time>
      </trkpt>
      <trkpt lat="48.76511" lon="6.866">
        <ele>269.7</ele>
        <time>2021-07-30T14:48:05Z</time>
      </trkpt>
      <trkpt lat="48.7651" lon="6.86604">
        <ele>269.8</ele>
        <time>2021-07-30T14:48:06Z</time>
      </trkpt>
      <trkpt lat="48.7651" lon="6.86609">
        <ele>269.9</ele>
        <time>2021-07-30T14:48:08Z</time>
      </trkpt>
      <trkpt lat="48.7651" lon="6.86616">
        <ele>270.1</ele>
        <time>2021-07-30T14:48:10Z</time>
      </trkpt>
      <trkpt lat="48.7651" lon="6.86619">
        <ele>270.1</ele>
        <time>2021-07-30T14:48:11Z</time>
      </trkpt>
      <trkpt lat="48.76507" lon="6.86617">
        <ele>270.2</ele>
        <time>2021-07-30T14:48:13Z</time>
      </trkpt>
      <trkpt lat="48.76507" lon="6.86617">
        <ele>270.2</ele>
        <time>2021-07-30T14:48:14Z</time>
      </trkpt>
      <trkpt lat="48.76506" lon="6.86618">
        <ele>270.3</ele>
        <time>2021-07-30T14:48:15Z</time>
      </trkpt>
      <trkpt lat="48.76506" lon="6.8662">
        <ele>270.3</ele>
        <time>2021-07-30T14:48:16Z</time>
      </trkpt>
      <trkpt lat="48.76506" lon="6.86624">
        <ele>270.4</ele>
        <time>2021-07-30T14:48:18Z</time>
      </trkpt>
      <trkpt lat="48.76506" lon="6.86626">
        <ele>270.4</ele>
        <time>2021-07-30T14:48:19Z</time>
      </trkpt>
      <trkpt lat="48.76507" lon="6.86628">
        <ele>270.5</ele>
        <time>2021-07-30T14:48:20Z</time>
      </trkpt>
      <trkpt lat="48.76508" lon="6.86635">
        <ele>270.6</ele>
        <time>2021-07-30T14:48:22Z</time>
      </trkpt>
      <trkpt lat="48.76508" lon="6.86638">
        <ele>270.6</ele>
        <time>2021-07-30T14:48:23Z</time>
      </trkpt>
      <trkpt lat="48.76509" lon="6.8664">
        <ele>270.7</ele>
        <time>2021-07-30T14:48:24Z</time>
      </trkpt>
      <trkpt lat="48.76509" lon="6.86644">
        <ele>270.7</ele>
        <time>2021-07-30T14:48:25Z</time>
      </trkpt>
      <trkpt lat="48.7651" lon="6.86652">
        <ele>270.9</ele>
        <time>2021-07-30T14:48:27Z</time>
      </trkpt>
      <trkpt lat="48.7651" lon="6.86657">
        <ele>270.9</ele>
        <time>2021-07-30T14:48:28Z</time>
      </trkpt>
      <trkpt lat="48.7651" lon="6.86662">
        <ele>271</ele>
        <time>2021-07-30T14:48:29Z</time>
      </trkpt>
      <trkpt lat="48.7651" lon="6.86669">
        <ele>271.1</ele>
        <time>2021-07-30T14:48:30Z</time>
      </trkpt>
      <trkpt lat="48.7651" lon="6.86673">
        <ele>271.2</ele>
        <time>2021-07-30T14:48:31Z</time>
      </trkpt>
      <trkpt lat="48.7651" lon="6.86678">
        <ele>271.2</ele>
        <time>2021-07-30T14:48:32Z</time>
      </trkpt>
      <trkpt lat="48.7651" lon="6.86682">
        <ele>271.3</ele>
        <time>2021-07-30T14:48:34Z</time>
      </trkpt>
      <trkpt lat="48.7651" lon="6.86687">
        <ele>271.4</ele>
        <time>2021-07-30T14:48:35Z</time>
      </trkpt>
      <trkpt lat="48.76511" lon="6.86695">
        <ele>271.5</ele>
        <time>2021-07-30T14:48:37Z</time>
      </trkpt>
      <trkpt lat="48.76512" lon="6.86703">
        <ele>271.7</ele>
        <time>2021-07-30T14:48:39Z</time>
      </trkpt>
      <trkpt lat="48.76512" lon="6.86707">
        <ele>271.7</ele>
        <time>2021-07-30T14:48:40Z</time>
      </trkpt>
      <trkpt lat="48.76512" lon="6.86715">
        <ele>271.9</ele>
        <time>2021-07-30T14:48:41Z</time>
      </trkpt>
      <trkpt lat="48.76512" lon="6.86718">
        <ele>271.9</ele>
        <time>2021-07-30T14:48:42Z</time>
      </trkpt>
      <trkpt lat="48.76511" lon="6.86723">
        <ele>272</ele>
        <time>2021-07-30T14:48:43Z</time>
      </trkpt>
      <trkpt lat="48.76509" lon="6.86731">
        <ele>272.2</ele>
        <time>2021-07-30T14:48:45Z</time>
      </trkpt>
      <trkpt lat="48.76509" lon="6.86734">
        <ele>272.2</ele>
        <time>2021-07-30T14:48:46Z</time>
      </trkpt>
      <trkpt lat="48.76509" lon="6.86737">
        <ele>272.3</ele>
        <time>2021-07-30T14:48:47Z</time>
      </trkpt>
      <trkpt lat="48.76509" lon="6.86742">
        <ele>272.3</ele>
        <time>2021-07-30T14:48:48Z</time>
      </trkpt>
      <trkpt lat="48.76509" lon="6.86744">
        <ele>272.4</ele>
        <time>2021-07-30T14:48:49Z</time>
      </trkpt>
      <trkpt lat="48.76508" lon="6.86749">
        <ele>272.5</ele>
        <time>2021-07-30T14:48:50Z</time>
      </trkpt>
      <trkpt lat="48.76508" lon="6.86753">
        <ele>272.5</ele>
        <time>2021-07-30T14:48:52Z</time>
      </trkpt>
      <trkpt lat="48.76507" lon="6.86756">
        <ele>272.6</ele>
        <time>2021-07-30T14:48:53Z</time>
      </trkpt>
      <trkpt lat="48.76507" lon="6.86762">
        <ele>272.7</ele>
        <time>2021-07-30T14:48:55Z</time>
      </trkpt>
      <trkpt lat="48.76506" lon="6.86769">
        <ele>272.7</ele>
        <time>2021-07-30T14:48:57Z</time>
      </trkpt>
      <trkpt lat="48.76505" lon="6.86775">
        <ele>272.8</ele>
        <time>2021-07-30T14:48:58Z</time>
      </trkpt>
      <trkpt lat="48.76504" lon="6.86779">
        <ele>272.8</ele>
        <time>2021-07-30T14:49:00Z</time>
      </trkpt>
      <trkpt lat="48.76504" lon="6.86783">
        <ele>272.8</ele>
        <time>2021-07-30T14:49:01Z</time>
      </trkpt>
      <trkpt lat="48.76502" lon="6.86791">
        <ele>272.9</ele>
        <time>2021-07-30T14:49:03Z</time>
      </trkpt>
      <trkpt lat="48.76499" lon="6.86799">
        <ele>272.9</ele>
        <time>2021-07-30T14:49:05Z</time>
      </trkpt>
      <trkpt lat="48.76495" lon="6.86807">
        <ele>272.9</ele>
        <time>2021-07-30T14:49:06Z</time>
      </trkpt>
      <trkpt lat="48.76492" lon="6.86811">
        <ele>273</ele>
        <time>2021-07-30T14:49:08Z</time>
      </trkpt>
      <trkpt lat="48.7649" lon="6.86815">
        <ele>273</ele>
        <time>2021-07-30T14:49:09Z</time>
      </trkpt>
      <trkpt lat="48.76488" lon="6.86819">
        <ele>273</ele>
        <time>2021-07-30T14:49:10Z</time>
      </trkpt>
      <trkpt lat="48.76486" lon="6.86823">
        <ele>273.1</ele>
        <time>2021-07-30T14:49:11Z</time>
      </trkpt>
      <trkpt lat="48.76485" lon="6.86826">
        <ele>273.1</ele>
        <time>2021-07-30T14:49:12Z</time>
      </trkpt>
      <trkpt lat="48.76483" lon="6.8683">
        <ele>273.1</ele>
        <time>2021-07-30T14:49:13Z</time>
      </trkpt>
      <trkpt lat="48.76479" lon="6.86838">
        <ele>273.2</ele>
        <time>2021-07-30T14:49:16Z</time>
      </trkpt>
      <trkpt lat="48.76476" lon="6.86841">
        <ele>273.2</ele>
        <time>2021-07-30T14:49:17Z</time>
      </trkpt>
      <trkpt lat="48.76473" lon="6.86846">
        <ele>273.3</ele>
        <time>2021-07-30T14:49:18Z</time>
      </trkpt>
      <trkpt lat="48.76471" lon="6.8685">
        <ele>273.3</ele>
        <time>2021-07-30T14:49:19Z</time>
      </trkpt>
      <trkpt lat="48.76468" lon="6.86856">
        <ele>273.4</ele>
        <time>2021-07-30T14:49:21Z</time>
      </trkpt>
      <trkpt lat="48.76467" lon="6.8686">
        <ele>273.5</ele>
        <time>2021-07-30T14:49:22Z</time>
      </trkpt>
      <trkpt lat="48.76464" lon="6.86867">
        <ele>273.6</ele>
        <time>2021-07-30T14:49:24Z</time>
      </trkpt>
      <trkpt lat="48.76461" lon="6.86874">
        <ele>273.7</ele>
        <time>2021-07-30T14:49:26Z</time>
      </trkpt>
      <trkpt lat="48.76459" lon="6.86877">
        <ele>273.7</ele>
        <time>2021-07-30T14:49:27Z</time>
      </trkpt>
      <trkpt lat="48.76458" lon="6.8688">
        <ele>273.8</ele>
        <time>2021-07-30T14:49:29Z</time>
      </trkpt>
      <trkpt lat="48.76457" lon="6.86883">
        <ele>273.9</ele>
        <time>2021-07-30T14:49:31Z</time>
      </trkpt>
      <trkpt lat="48.76458" lon="6.86882">
        <ele>273.9</ele>
        <time>2021-07-30T14:49:32Z</time>
      </trkpt>
      <trkpt lat="48.76458" lon="6.86883">
        <ele>273.9</ele>
        <time>2021-07-30T14:49:33Z</time>
      </trkpt>
      <trkpt lat="48.76458" lon="6.86883">
        <ele>273.9</ele>
        <time>2021-07-30T14:49:35Z</time>
      </trkpt>
      <trkpt lat="48.76458" lon="6.86884">
        <ele>273.9</ele>
        <time>2021-07-30T14:49:36Z</time>
      </trkpt>
      <trkpt lat="48.76458" lon="6.86884">
        <ele>273.9</ele>
        <time>2021-07-30T14:49:37Z</time>
      </trkpt>
      <trkpt lat="48.76458" lon="6.86884">
        <ele>273.9</ele>
        <time>2021-07-30T14:49:39Z</time>
      </trkpt>
      <trkpt lat="48.76458" lon="6.86884">
        <ele>273.9</ele>
        <time>2021-07-30T14:49:40Z</time>
      </trkpt>
      <trkpt lat="48.76458" lon="6.86884">
        <ele>273.9</ele>
        <time>2021-07-30T14:49:42Z</time>
      </trkpt>
      <trkpt lat="48.7646" lon="6.86875">
        <ele>274.2</ele>
        <time>2021-07-30T14:51:07Z</time>
      </trkpt>
      <trkpt lat="48.76457" lon="6.86882">
        <ele>274.4</ele>
        <time>2021-07-30T14:51:09Z</time>
      </trkpt>
      <trkpt lat="48.76454" lon="6.8689">
        <ele>274.6</ele>
        <time>2021-07-30T14:51:10Z</time>
      </trkpt>
      <trkpt lat="48.76452" lon="6.86894">
        <ele>274.8</ele>
        <time>2021-07-30T14:51:12Z</time>
      </trkpt>
      <trkpt lat="48.7645" lon="6.86899">
        <ele>274.9</ele>
        <time>2021-07-30T14:51:13Z</time>
      </trkpt>
      <trkpt lat="48.76448" lon="6.86902">
        <ele>275</ele>
        <time>2021-07-30T14:51:14Z</time>
      </trkpt>
      <trkpt lat="48.76446" lon="6.86905">
        <ele>275.2</ele>
        <time>2021-07-30T14:51:16Z</time>
      </trkpt>
      <trkpt lat="48.76443" lon="6.8691">
        <ele>275.5</ele>
        <time>2021-07-30T14:51:17Z</time>
      </trkpt>
      <trkpt lat="48.76439" lon="6.86917">
        <ele>275.8</ele>
        <time>2021-07-30T14:51:19Z</time>
      </trkpt>
      <trkpt lat="48.76435" lon="6.86922">
        <ele>276.2</ele>
        <time>2021-07-30T14:51:21Z</time>
      </trkpt>
      <trkpt lat="48.76433" lon="6.86925">
        <ele>276.3</ele>
        <time>2021-07-30T14:51:22Z</time>
      </trkpt>
      <trkpt lat="48.76432" lon="6.8693">
        <ele>276.6</ele>
        <time>2021-07-30T14:51:24Z</time>
      </trkpt>
      <trkpt lat="48.7643" lon="6.86934">
        <ele>276.7</ele>
        <time>2021-07-30T14:51:25Z</time>
      </trkpt>
      <trkpt lat="48.76427" lon="6.8694">
        <ele>277</ele>
        <time>2021-07-30T14:51:26Z</time>
      </trkpt>
      <trkpt lat="48.76425" lon="6.86944">
        <ele>277.3</ele>
        <time>2021-07-30T14:51:28Z</time>
      </trkpt>
      <trkpt lat="48.76423" lon="6.86947">
        <ele>277.4</ele>
        <time>2021-07-30T14:51:29Z</time>
      </trkpt>
      <trkpt lat="48.76421" lon="6.8695">
        <ele>277.6</ele>
        <time>2021-07-30T14:51:30Z</time>
      </trkpt>
      <trkpt lat="48.76419" lon="6.86954">
        <ele>277.8</ele>
        <time>2021-07-30T14:51:31Z</time>
      </trkpt>
      <trkpt lat="48.76416" lon="6.86959">
        <ele>278</ele>
        <time>2021-07-30T14:51:33Z</time>
      </trkpt>
      <trkpt lat="48.76413" lon="6.86963">
        <ele>278.2</ele>
        <time>2021-07-30T14:51:34Z</time>
      </trkpt>
      <trkpt lat="48.7641" lon="6.86967">
        <ele>278.4</ele>
        <time>2021-07-30T14:51:36Z</time>
      </trkpt>
      <trkpt lat="48.76408" lon="6.8697">
        <ele>278.6</ele>
        <time>2021-07-30T14:51:37Z</time>
      </trkpt>
      <trkpt lat="48.76404" lon="6.86974">
        <ele>278.8</ele>
        <time>2021-07-30T14:51:38Z</time>
      </trkpt>
      <trkpt lat="48.76401" lon="6.86978">
        <ele>279</ele>
        <time>2021-07-30T14:51:39Z</time>
      </trkpt>
      <trkpt lat="48.76401" lon="6.86979">
        <ele>279</ele>
        <time>2021-07-30T14:51:40Z</time>
      </trkpt>
      <trkpt lat="48.76398" lon="6.86983">
        <ele>279.2</ele>
        <time>2021-07-30T14:51:41Z</time>
      </trkpt>
      <trkpt lat="48.76397" lon="6.86984">
        <ele>279.2</ele>
        <time>2021-07-30T14:51:42Z</time>
      </trkpt>
      <trkpt lat="48.76395" lon="6.86985">
        <ele>279.3</ele>
        <time>2021-07-30T14:51:43Z</time>
      </trkpt>
      <trkpt lat="48.76391" lon="6.86987">
        <ele>279.5</ele>
        <time>2021-07-30T14:51:45Z</time>
      </trkpt>
      <trkpt lat="48.76388" lon="6.86989">
        <ele>279.6</ele>
        <time>2021-07-30T14:51:46Z</time>
      </trkpt>
      <trkpt lat="48.76386" lon="6.86991">
        <ele>279.7</ele>
        <time>2021-07-30T14:51:47Z</time>
      </trkpt>
      <trkpt lat="48.76381" lon="6.86994">
        <ele>279.8</ele>
        <time>2021-07-30T14:51:48Z</time>
      </trkpt>
      <trkpt lat="48.76379" lon="6.86996">
        <ele>279.9</ele>
        <time>2021-07-30T14:51:49Z</time>
      </trkpt>
      <trkpt lat="48.76376" lon="6.86998">
        <ele>280</ele>
        <time>2021-07-30T14:51:51Z</time>
      </trkpt>
      <trkpt lat="48.76375" lon="6.86998">
        <ele>280</ele>
        <time>2021-07-30T14:51:52Z</time>
      </trkpt>
      <trkpt lat="48.76372" lon="6.87001">
        <ele>280</ele>
        <time>2021-07-30T14:51:53Z</time>
      </trkpt>
      <trkpt lat="48.76371" lon="6.87001">
        <ele>280</ele>
        <time>2021-07-30T14:51:54Z</time>
      </trkpt>
      <trkpt lat="48.76369" lon="6.87002">
        <ele>280</ele>
        <time>2021-07-30T14:51:56Z</time>
      </trkpt>
      <trkpt lat="48.76366" lon="6.87004">
        <ele>280</ele>
        <time>2021-07-30T14:51:58Z</time>
      </trkpt>
      <trkpt lat="48.76365" lon="6.87006">
        <ele>280</ele>
        <time>2021-07-30T14:51:59Z</time>
      </trkpt>
      <trkpt lat="48.76361" lon="6.87008">
        <ele>279.9</ele>
        <time>2021-07-30T14:52:01Z</time>
      </trkpt>
      <trkpt lat="48.76359" lon="6.87011">
        <ele>279.9</ele>
        <time>2021-07-30T14:52:03Z</time>
      </trkpt>
      <trkpt lat="48.76359" lon="6.87011">
        <ele>279.9</ele>
        <time>2021-07-30T14:52:04Z</time>
      </trkpt>
      <trkpt lat="48.76359" lon="6.87012">
        <ele>279.8</ele>
        <time>2021-07-30T14:52:05Z</time>
      </trkpt>
      <trkpt lat="48.76355" lon="6.87017">
        <ele>279.8</ele>
        <time>2021-07-30T14:52:07Z</time>
      </trkpt>
      <trkpt lat="48.76354" lon="6.87019">
        <ele>279.7</ele>
        <time>2021-07-30T14:52:09Z</time>
      </trkpt>
      <trkpt lat="48.76353" lon="6.87021">
        <ele>279.7</ele>
        <time>2021-07-30T14:52:10Z</time>
      </trkpt>
      <trkpt lat="48.76352" lon="6.87023">
        <ele>279.6</ele>
        <time>2021-07-30T14:52:11Z</time>
      </trkpt>
      <trkpt lat="48.76349" lon="6.87028">
        <ele>279.5</ele>
        <time>2021-07-30T14:52:13Z</time>
      </trkpt>
      <trkpt lat="48.76345" lon="6.87036">
        <ele>279.4</ele>
        <time>2021-07-30T14:52:15Z</time>
      </trkpt>
      <trkpt lat="48.76343" lon="6.87039">
        <ele>279.3</ele>
        <time>2021-07-30T14:52:16Z</time>
      </trkpt>
      <trkpt lat="48.76339" lon="6.87045">
        <ele>279.2</ele>
        <time>2021-07-30T14:52:18Z</time>
      </trkpt>
      <trkpt lat="48.76337" lon="6.87049">
        <ele>279.1</ele>
        <time>2021-07-30T14:52:19Z</time>
      </trkpt>
      <trkpt lat="48.76334" lon="6.87057">
        <ele>279</ele>
        <time>2021-07-30T14:52:21Z</time>
      </trkpt>
      <trkpt lat="48.76332" lon="6.87061">
        <ele>278.9</ele>
        <time>2021-07-30T14:52:22Z</time>
      </trkpt>
      <trkpt lat="48.76328" lon="6.87069">
        <ele>278.8</ele>
        <time>2021-07-30T14:52:24Z</time>
      </trkpt>
      <trkpt lat="48.76326" lon="6.87073">
        <ele>278.7</ele>
        <time>2021-07-30T14:52:25Z</time>
      </trkpt>
      <trkpt lat="48.7632" lon="6.87084">
        <ele>278.5</ele>
        <time>2021-07-30T14:52:27Z</time>
      </trkpt>
      <trkpt lat="48.76317" lon="6.87089">
        <ele>278.4</ele>
        <time>2021-07-30T14:52:28Z</time>
      </trkpt>
      <trkpt lat="48.76315" lon="6.87091">
        <ele>278.4</ele>
        <time>2021-07-30T14:52:29Z</time>
      </trkpt>
      <trkpt lat="48.76313" lon="6.87095">
        <ele>278.3</ele>
        <time>2021-07-30T14:52:30Z</time>
      </trkpt>
      <trkpt lat="48.7631" lon="6.87099">
        <ele>278.3</ele>
        <time>2021-07-30T14:52:31Z</time>
      </trkpt>
      <trkpt lat="48.76306" lon="6.87108">
        <ele>278.2</ele>
        <time>2021-07-30T14:52:33Z</time>
      </trkpt>
      <trkpt lat="48.76304" lon="6.87113">
        <ele>278.1</ele>
        <time>2021-07-30T14:52:34Z</time>
      </trkpt>
      <trkpt lat="48.76302" lon="6.87118">
        <ele>278</ele>
        <time>2021-07-30T14:52:35Z</time>
      </trkpt>
      <trkpt lat="48.76297" lon="6.87125">
        <ele>277.9</ele>
        <time>2021-07-30T14:52:37Z</time>
      </trkpt>
      <trkpt lat="48.76292" lon="6.87132">
        <ele>277.8</ele>
        <time>2021-07-30T14:52:39Z</time>
      </trkpt>
      <trkpt lat="48.7629" lon="6.87134">
        <ele>277.8</ele>
        <time>2021-07-30T14:52:40Z</time>
      </trkpt>
      <trkpt lat="48.76288" lon="6.87137">
        <ele>277.7</ele>
        <time>2021-07-30T14:52:41Z</time>
      </trkpt>
      <trkpt lat="48.76283" lon="6.87144">
        <ele>277.6</ele>
        <time>2021-07-30T14:52:43Z</time>
      </trkpt>
      <trkpt lat="48.7628" lon="6.87149">
        <ele>277.5</ele>
        <time>2021-07-30T14:52:44Z</time>
      </trkpt>
      <trkpt lat="48.76276" lon="6.87155">
        <ele>277.3</ele>
        <time>2021-07-30T14:52:46Z</time>
      </trkpt>
      <trkpt lat="48.76273" lon="6.87163">
        <ele>277.2</ele>
        <time>2021-07-30T14:52:48Z</time>
      </trkpt>
      <trkpt lat="48.7627" lon="6.87167">
        <ele>277</ele>
        <time>2021-07-30T14:52:49Z</time>
      </trkpt>
      <trkpt lat="48.76265" lon="6.87176">
        <ele>276.8</ele>
        <time>2021-07-30T14:52:51Z</time>
      </trkpt>
      <trkpt lat="48.76263" lon="6.8718">
        <ele>276.7</ele>
        <time>2021-07-30T14:52:52Z</time>
      </trkpt>
      <trkpt lat="48.7626" lon="6.87186">
        <ele>276.5</ele>
        <time>2021-07-30T14:52:53Z</time>
      </trkpt>
      <trkpt lat="48.76257" lon="6.87194">
        <ele>276.3</ele>
        <time>2021-07-30T14:52:54Z</time>
      </trkpt>
      <trkpt lat="48.76254" lon="6.87201">
        <ele>276</ele>
        <time>2021-07-30T14:52:55Z</time>
      </trkpt>
      <trkpt lat="48.76248" lon="6.87213">
        <ele>275.5</ele>
        <time>2021-07-30T14:52:57Z</time>
      </trkpt>
      <trkpt lat="48.76244" lon="6.87221">
        <ele>275.2</ele>
        <time>2021-07-30T14:52:58Z</time>
      </trkpt>
      <trkpt lat="48.76241" lon="6.87228">
        <ele>275</ele>
        <time>2021-07-30T14:52:59Z</time>
      </trkpt>
      <trkpt lat="48.76234" lon="6.87244">
        <ele>274.5</ele>
        <time>2021-07-30T14:53:01Z</time>
      </trkpt>
      <trkpt lat="48.76226" lon="6.87259">
        <ele>273.9</ele>
        <time>2021-07-30T14:53:03Z</time>
      </trkpt>
      <trkpt lat="48.76223" lon="6.87266">
        <ele>273.6</ele>
        <time>2021-07-30T14:53:04Z</time>
      </trkpt>
      <trkpt lat="48.76219" lon="6.87274">
        <ele>273.3</ele>
        <time>2021-07-30T14:53:05Z</time>
      </trkpt>
      <trkpt lat="48.7621" lon="6.87289">
        <ele>272.6</ele>
        <time>2021-07-30T14:53:07Z</time>
      </trkpt>
      <trkpt lat="48.76202" lon="6.87304">
        <ele>271.9</ele>
        <time>2021-07-30T14:53:09Z</time>
      </trkpt>
      <trkpt lat="48.76194" lon="6.8732">
        <ele>271.2</ele>
        <time>2021-07-30T14:53:11Z</time>
      </trkpt>
      <trkpt lat="48.7619" lon="6.87328">
        <ele>270.8</ele>
        <time>2021-07-30T14:53:12Z</time>
      </trkpt>
      <trkpt lat="48.76185" lon="6.87336">
        <ele>270.4</ele>
        <time>2021-07-30T14:53:13Z</time>
      </trkpt>
      <trkpt lat="48.76177" lon="6.87351">
        <ele>269.8</ele>
        <time>2021-07-30T14:53:15Z</time>
      </trkpt>
      <trkpt lat="48.76173" lon="6.87359">
        <ele>269.6</ele>
        <time>2021-07-30T14:53:16Z</time>
      </trkpt>
      <trkpt lat="48.76169" lon="6.87367">
        <ele>269.3</ele>
        <time>2021-07-30T14:53:17Z</time>
      </trkpt>
      <trkpt lat="48.76165" lon="6.87376">
        <ele>269.1</ele>
        <time>2021-07-30T14:53:18Z</time>
      </trkpt>
      <trkpt lat="48.76161" lon="6.87385">
        <ele>268.9</ele>
        <time>2021-07-30T14:53:19Z</time>
      </trkpt>
      <trkpt lat="48.76153" lon="6.87402">
        <ele>268.6</ele>
        <time>2021-07-30T14:53:21Z</time>
      </trkpt>
      <trkpt lat="48.76145" lon="6.87421">
        <ele>268.2</ele>
        <time>2021-07-30T14:53:23Z</time>
      </trkpt>
      <trkpt lat="48.76144" lon="6.87441">
        <ele>267.9</ele>
        <time>2021-07-30T14:53:25Z</time>
      </trkpt>
      <trkpt lat="48.76147" lon="6.87462">
        <ele>267.8</ele>
        <time>2021-07-30T14:53:27Z</time>
      </trkpt>
      <trkpt lat="48.7615" lon="6.87471">
        <ele>267.8</ele>
        <time>2021-07-30T14:53:28Z</time>
      </trkpt>
      <trkpt lat="48.76157" lon="6.87486">
        <ele>267.8</ele>
        <time>2021-07-30T14:53:30Z</time>
      </trkpt>
      <trkpt lat="48.76164" lon="6.87502">
        <ele>268</ele>
        <time>2021-07-30T14:53:32Z</time>
      </trkpt>
      <trkpt lat="48.76171" lon="6.87517">
        <ele>268.2</ele>
        <time>2021-07-30T14:53:34Z</time>
      </trkpt>
      <trkpt lat="48.76174" lon="6.87524">
        <ele>268.3</ele>
        <time>2021-07-30T14:53:35Z</time>
      </trkpt>
      <trkpt lat="48.76182" lon="6.87536">
        <ele>268.6</ele>
        <time>2021-07-30T14:53:37Z</time>
      </trkpt>
      <trkpt lat="48.76189" lon="6.87548">
        <ele>268.9</ele>
        <time>2021-07-30T14:53:39Z</time>
      </trkpt>
      <trkpt lat="48.76192" lon="6.87555">
        <ele>269.1</ele>
        <time>2021-07-30T14:53:40Z</time>
      </trkpt>
      <trkpt lat="48.76195" lon="6.87561">
        <ele>269.2</ele>
        <time>2021-07-30T14:53:41Z</time>
      </trkpt>
      <trkpt lat="48.76199" lon="6.87574">
        <ele>269.5</ele>
        <time>2021-07-30T14:53:43Z</time>
      </trkpt>
      <trkpt lat="48.76202" lon="6.87586">
        <ele>269.7</ele>
        <time>2021-07-30T14:53:45Z</time>
      </trkpt>
      <trkpt lat="48.76204" lon="6.87597">
        <ele>269.9</ele>
        <time>2021-07-30T14:53:47Z</time>
      </trkpt>
      <trkpt lat="48.76203" lon="6.87608">
        <ele>270</ele>
        <time>2021-07-30T14:53:49Z</time>
      </trkpt>
      <trkpt lat="48.76203" lon="6.87622">
        <ele>270</ele>
        <time>2021-07-30T14:53:51Z</time>
      </trkpt>
      <trkpt lat="48.76202" lon="6.87627">
        <ele>270</ele>
        <time>2021-07-30T14:53:52Z</time>
      </trkpt>
      <trkpt lat="48.76198" lon="6.87643">
        <ele>269.8</ele>
        <time>2021-07-30T14:53:54Z</time>
      </trkpt>
      <trkpt lat="48.76196" lon="6.87652">
        <ele>269.8</ele>
        <time>2021-07-30T14:53:55Z</time>
      </trkpt>
      <trkpt lat="48.76194" lon="6.87668">
        <ele>269.6</ele>
        <time>2021-07-30T14:53:57Z</time>
      </trkpt>
      <trkpt lat="48.76193" lon="6.87676">
        <ele>269.5</ele>
        <time>2021-07-30T14:53:58Z</time>
      </trkpt>
      <trkpt lat="48.76191" lon="6.87684">
        <ele>269.4</ele>
        <time>2021-07-30T14:53:59Z</time>
      </trkpt>
      <trkpt lat="48.76189" lon="6.87701">
        <ele>269.2</ele>
        <time>2021-07-30T14:54:01Z</time>
      </trkpt>
      <trkpt lat="48.76186" lon="6.87717">
        <ele>269</ele>
        <time>2021-07-30T14:54:03Z</time>
      </trkpt>
      <trkpt lat="48.76185" lon="6.87726">
        <ele>268.9</ele>
        <time>2021-07-30T14:54:04Z</time>
      </trkpt>
      <trkpt lat="48.76185" lon="6.87735">
        <ele>268.8</ele>
        <time>2021-07-30T14:54:05Z</time>
      </trkpt>
      <trkpt lat="48.76184" lon="6.87751">
        <ele>268.6</ele>
        <time>2021-07-30T14:54:07Z</time>
      </trkpt>
      <trkpt lat="48.76184" lon="6.87759">
        <ele>268.6</ele>
        <time>2021-07-30T14:54:08Z</time>
      </trkpt>
      <trkpt lat="48.76181" lon="6.87776">
        <ele>268.5</ele>
        <time>2021-07-30T14:54:10Z</time>
      </trkpt>
      <trkpt lat="48.7618" lon="6.87785">
        <ele>268.5</ele>
        <time>2021-07-30T14:54:11Z</time>
      </trkpt>
      <trkpt lat="48.76179" lon="6.87802">
        <ele>268.6</ele>
        <time>2021-07-30T14:54:13Z</time>
      </trkpt>
      <trkpt lat="48.76179" lon="6.87816">
        <ele>268.6</ele>
        <time>2021-07-30T14:54:15Z</time>
      </trkpt>
      <trkpt lat="48.76179" lon="6.87823">
        <ele>268.6</ele>
        <time>2021-07-30T14:54:16Z</time>
      </trkpt>
      <trkpt lat="48.76178" lon="6.87831">
        <ele>268.6</ele>
        <time>2021-07-30T14:54:17Z</time>
      </trkpt>
      <trkpt lat="48.76177" lon="6.87838">
        <ele>268.6</ele>
        <time>2021-07-30T14:54:18Z</time>
      </trkpt>
      <trkpt lat="48.76174" lon="6.87851">
        <ele>268.6</ele>
        <time>2021-07-30T14:54:20Z</time>
      </trkpt>
      <trkpt lat="48.76173" lon="6.87857">
        <ele>268.5</ele>
        <time>2021-07-30T14:54:21Z</time>
      </trkpt>
      <trkpt lat="48.76172" lon="6.87869">
        <ele>268.4</ele>
        <time>2021-07-30T14:54:23Z</time>
      </trkpt>
      <trkpt lat="48.76171" lon="6.87877">
        <ele>268.3</ele>
        <time>2021-07-30T14:54:24Z</time>
      </trkpt>
      <trkpt lat="48.7617" lon="6.87884">
        <ele>268.3</ele>
        <time>2021-07-30T14:54:25Z</time>
      </trkpt>
      <trkpt lat="48.76169" lon="6.87892">
        <ele>268.2</ele>
        <time>2021-07-30T14:54:26Z</time>
      </trkpt>
      <trkpt lat="48.76168" lon="6.87907">
        <ele>268</ele>
        <time>2021-07-30T14:54:28Z</time>
      </trkpt>
      <trkpt lat="48.76166" lon="6.87915">
        <ele>267.8</ele>
        <time>2021-07-30T14:54:29Z</time>
      </trkpt>
      <trkpt lat="48.76164" lon="6.87932">
        <ele>267.6</ele>
        <time>2021-07-30T14:54:31Z</time>
      </trkpt>
      <trkpt lat="48.76162" lon="6.8794">
        <ele>267.5</ele>
        <time>2021-07-30T14:54:32Z</time>
      </trkpt>
      <trkpt lat="48.7616" lon="6.87956">
        <ele>267.2</ele>
        <time>2021-07-30T14:54:34Z</time>
      </trkpt>
      <trkpt lat="48.76159" lon="6.87964">
        <ele>267</ele>
        <time>2021-07-30T14:54:35Z</time>
      </trkpt>
      <trkpt lat="48.76158" lon="6.87982">
        <ele>266.8</ele>
        <time>2021-07-30T14:54:37Z</time>
      </trkpt>
      <trkpt lat="48.76156" lon="6.88001">
        <ele>266.6</ele>
        <time>2021-07-30T14:54:39Z</time>
      </trkpt>
      <trkpt lat="48.76154" lon="6.88011">
        <ele>266.5</ele>
        <time>2021-07-30T14:54:40Z</time>
      </trkpt>
      <trkpt lat="48.76152" lon="6.88021">
        <ele>266.4</ele>
        <time>2021-07-30T14:54:41Z</time>
      </trkpt>
      <trkpt lat="48.76151" lon="6.8804">
        <ele>266.2</ele>
        <time>2021-07-30T14:54:43Z</time>
      </trkpt>
      <trkpt lat="48.7615" lon="6.88059">
        <ele>266.2</ele>
        <time>2021-07-30T14:54:45Z</time>
      </trkpt>
      <trkpt lat="48.7615" lon="6.88068">
        <ele>266.1</ele>
        <time>2021-07-30T14:54:46Z</time>
      </trkpt>
      <trkpt lat="48.76149" lon="6.88079">
        <ele>266.1</ele>
        <time>2021-07-30T14:54:47Z</time>
      </trkpt>
      <trkpt lat="48.76147" lon="6.88099">
        <ele>266</ele>
        <time>2021-07-30T14:54:49Z</time>
      </trkpt>
      <trkpt lat="48.76146" lon="6.8812">
        <ele>265.9</ele>
        <time>2021-07-30T14:54:51Z</time>
      </trkpt>
      <trkpt lat="48.76146" lon="6.8813">
        <ele>265.9</ele>
        <time>2021-07-30T14:54:52Z</time>
      </trkpt>
      <trkpt lat="48.76145" lon="6.8814">
        <ele>265.9</ele>
        <time>2021-07-30T14:54:53Z</time>
      </trkpt>
      <trkpt lat="48.76145" lon="6.88151">
        <ele>265.9</ele>
        <time>2021-07-30T14:54:54Z</time>
      </trkpt>
      <trkpt lat="48.76144" lon="6.88162">
        <ele>265.9</ele>
        <time>2021-07-30T14:54:55Z</time>
      </trkpt>
      <trkpt lat="48.76142" lon="6.88182">
        <ele>265.9</ele>
        <time>2021-07-30T14:54:57Z</time>
      </trkpt>
      <trkpt lat="48.76142" lon="6.88192">
        <ele>265.9</ele>
        <time>2021-07-30T14:54:58Z</time>
      </trkpt>
      <trkpt lat="48.76141" lon="6.88212">
        <ele>265.9</ele>
        <time>2021-07-30T14:55:00Z</time>
      </trkpt>
      <trkpt lat="48.7614" lon="6.88222">
        <ele>265.9</ele>
        <time>2021-07-30T14:55:01Z</time>
      </trkpt>
      <trkpt lat="48.76138" lon="6.88243">
        <ele>265.9</ele>
        <time>2021-07-30T14:55:03Z</time>
      </trkpt>
      <trkpt lat="48.76136" lon="6.88253">
        <ele>266</ele>
        <time>2021-07-30T14:55:04Z</time>
      </trkpt>
      <trkpt lat="48.76135" lon="6.88263">
        <ele>266</ele>
        <time>2021-07-30T14:55:05Z</time>
      </trkpt>
      <trkpt lat="48.76133" lon="6.88281">
        <ele>266.1</ele>
        <time>2021-07-30T14:55:07Z</time>
      </trkpt>
      <trkpt lat="48.76132" lon="6.88291">
        <ele>266.2</ele>
        <time>2021-07-30T14:55:08Z</time>
      </trkpt>
      <trkpt lat="48.76131" lon="6.88308">
        <ele>266.2</ele>
        <time>2021-07-30T14:55:10Z</time>
      </trkpt>
      <trkpt lat="48.7613" lon="6.88316">
        <ele>266.2</ele>
        <time>2021-07-30T14:55:11Z</time>
      </trkpt>
      <trkpt lat="48.76129" lon="6.88325">
        <ele>266.3</ele>
        <time>2021-07-30T14:55:12Z</time>
      </trkpt>
      <trkpt lat="48.76129" lon="6.88333">
        <ele>266.3</ele>
        <time>2021-07-30T14:55:13Z</time>
      </trkpt>
      <trkpt lat="48.76129" lon="6.88349">
        <ele>266.3</ele>
        <time>2021-07-30T14:55:15Z</time>
      </trkpt>
      <trkpt lat="48.76129" lon="6.88356">
        <ele>266.3</ele>
        <time>2021-07-30T14:55:16Z</time>
      </trkpt>
      <trkpt lat="48.76129" lon="6.88364">
        <ele>266.3</ele>
        <time>2021-07-30T14:55:17Z</time>
      </trkpt>
      <trkpt lat="48.76128" lon="6.8838">
        <ele>266.3</ele>
        <time>2021-07-30T14:55:19Z</time>
      </trkpt>
      <trkpt lat="48.76127" lon="6.88395">
        <ele>266.3</ele>
        <time>2021-07-30T14:55:21Z</time>
      </trkpt>
      <trkpt lat="48.76128" lon="6.88402">
        <ele>266.4</ele>
        <time>2021-07-30T14:55:22Z</time>
      </trkpt>
      <trkpt lat="48.76128" lon="6.88407">
        <ele>266.4</ele>
        <time>2021-07-30T14:55:23Z</time>
      </trkpt>
      <trkpt lat="48.76128" lon="6.88415">
        <ele>266.5</ele>
        <time>2021-07-30T14:55:24Z</time>
      </trkpt>
      <trkpt lat="48.76127" lon="6.88429">
        <ele>266.7</ele>
        <time>2021-07-30T14:55:26Z</time>
      </trkpt>
      <trkpt lat="48.76127" lon="6.88443">
        <ele>266.9</ele>
        <time>2021-07-30T14:55:28Z</time>
      </trkpt>
      <trkpt lat="48.76127" lon="6.88457">
        <ele>267.1</ele>
        <time>2021-07-30T14:55:30Z</time>
      </trkpt>
      <trkpt lat="48.7613" lon="6.88463">
        <ele>267.2</ele>
        <time>2021-07-30T14:55:31Z</time>
      </trkpt>
      <trkpt lat="48.76129" lon="6.88468">
        <ele>267.3</ele>
        <time>2021-07-30T14:55:32Z</time>
      </trkpt>
      <trkpt lat="48.76128" lon="6.88474">
        <ele>267.4</ele>
        <time>2021-07-30T14:55:33Z</time>
      </trkpt>
      <trkpt lat="48.76126" lon="6.88482">
        <ele>267.5</ele>
        <time>2021-07-30T14:55:34Z</time>
      </trkpt>
      <trkpt lat="48.76124" lon="6.88494">
        <ele>267.8</ele>
        <time>2021-07-30T14:55:36Z</time>
      </trkpt>
      <trkpt lat="48.76123" lon="6.88501">
        <ele>267.9</ele>
        <time>2021-07-30T14:55:38Z</time>
      </trkpt>
      <trkpt lat="48.76123" lon="6.88507">
        <ele>268</ele>
        <time>2021-07-30T14:55:39Z</time>
      </trkpt>
      <trkpt lat="48.76123" lon="6.88513">
        <ele>268.1</ele>
        <time>2021-07-30T14:55:40Z</time>
      </trkpt>
      <trkpt lat="48.76122" lon="6.88518">
        <ele>268.2</ele>
        <time>2021-07-30T14:55:41Z</time>
      </trkpt>
      <trkpt lat="48.76122" lon="6.88525">
        <ele>268.3</ele>
        <time>2021-07-30T14:55:42Z</time>
      </trkpt>
      <trkpt lat="48.76121" lon="6.8853">
        <ele>268.4</ele>
        <time>2021-07-30T14:55:43Z</time>
      </trkpt>
      <trkpt lat="48.7612" lon="6.88536">
        <ele>268.5</ele>
        <time>2021-07-30T14:55:45Z</time>
      </trkpt>
      <trkpt lat="48.7612" lon="6.88542">
        <ele>268.6</ele>
        <time>2021-07-30T14:55:46Z</time>
      </trkpt>
      <trkpt lat="48.76119" lon="6.88548">
        <ele>268.7</ele>
        <time>2021-07-30T14:55:47Z</time>
      </trkpt>
      <trkpt lat="48.76119" lon="6.88554">
        <ele>268.8</ele>
        <time>2021-07-30T14:55:48Z</time>
      </trkpt>
      <trkpt lat="48.76119" lon="6.88559">
        <ele>268.9</ele>
        <time>2021-07-30T14:55:50Z</time>
      </trkpt>
      <trkpt lat="48.7612" lon="6.88565">
        <ele>268.9</ele>
        <time>2021-07-30T14:55:51Z</time>
      </trkpt>
      <trkpt lat="48.76121" lon="6.8857">
        <ele>269</ele>
        <time>2021-07-30T14:55:52Z</time>
      </trkpt>
      <trkpt lat="48.76121" lon="6.88575">
        <ele>269.1</ele>
        <time>2021-07-30T14:55:54Z</time>
      </trkpt>
      <trkpt lat="48.76121" lon="6.88582">
        <ele>269.2</ele>
        <time>2021-07-30T14:55:55Z</time>
      </trkpt>
      <trkpt lat="48.7612" lon="6.88585">
        <ele>269.2</ele>
        <time>2021-07-30T14:55:56Z</time>
      </trkpt>
      <trkpt lat="48.7612" lon="6.88592">
        <ele>269.3</ele>
        <time>2021-07-30T14:55:57Z</time>
      </trkpt>
      <trkpt lat="48.76119" lon="6.88599">
        <ele>269.5</ele>
        <time>2021-07-30T14:55:58Z</time>
      </trkpt>
      <trkpt lat="48.76118" lon="6.88604">
        <ele>269.5</ele>
        <time>2021-07-30T14:56:00Z</time>
      </trkpt>
      <trkpt lat="48.76118" lon="6.88614">
        <ele>269.7</ele>
        <time>2021-07-30T14:56:02Z</time>
      </trkpt>
      <trkpt lat="48.76117" lon="6.8862">
        <ele>269.8</ele>
        <time>2021-07-30T14:56:03Z</time>
      </trkpt>
      <trkpt lat="48.76117" lon="6.88626">
        <ele>269.8</ele>
        <time>2021-07-30T14:56:04Z</time>
      </trkpt>
      <trkpt lat="48.76118" lon="6.88633">
        <ele>269.9</ele>
        <time>2021-07-30T14:56:05Z</time>
      </trkpt>
      <trkpt lat="48.76118" lon="6.88638">
        <ele>269.9</ele>
        <time>2021-07-30T14:56:07Z</time>
      </trkpt>
      <trkpt lat="48.76119" lon="6.88642">
        <ele>270</ele>
        <time>2021-07-30T14:56:08Z</time>
      </trkpt>
      <trkpt lat="48.76119" lon="6.88649">
        <ele>270</ele>
        <time>2021-07-30T14:56:09Z</time>
      </trkpt>
      <trkpt lat="48.76119" lon="6.88655">
        <ele>270</ele>
        <time>2021-07-30T14:56:10Z</time>
      </trkpt>
      <trkpt lat="48.7612" lon="6.88661">
        <ele>270</ele>
        <time>2021-07-30T14:56:11Z</time>
      </trkpt>
      <trkpt lat="48.7612" lon="6.88667">
        <ele>270</ele>
        <time>2021-07-30T14:56:12Z</time>
      </trkpt>
      <trkpt lat="48.76121" lon="6.88679">
        <ele>269.9</ele>
        <time>2021-07-30T14:56:15Z</time>
      </trkpt>
      <trkpt lat="48.76121" lon="6.88685">
        <ele>269.9</ele>
        <time>2021-07-30T14:56:16Z</time>
      </trkpt>
      <trkpt lat="48.7612" lon="6.887">
        <ele>269.9</ele>
        <time>2021-07-30T14:56:18Z</time>
      </trkpt>
      <trkpt lat="48.76119" lon="6.88708">
        <ele>269.8</ele>
        <time>2021-07-30T14:56:19Z</time>
      </trkpt>
      <trkpt lat="48.76121" lon="6.88718">
        <ele>269.8</ele>
        <time>2021-07-30T14:56:20Z</time>
      </trkpt>
      <trkpt lat="48.76121" lon="6.88728">
        <ele>269.7</ele>
        <time>2021-07-30T14:56:22Z</time>
      </trkpt>
      <trkpt lat="48.7612" lon="6.88734">
        <ele>269.7</ele>
        <time>2021-07-30T14:56:23Z</time>
      </trkpt>
      <trkpt lat="48.7612" lon="6.88743">
        <ele>269.7</ele>
        <time>2021-07-30T14:56:24Z</time>
      </trkpt>
      <trkpt lat="48.76118" lon="6.88756">
        <ele>269.6</ele>
        <time>2021-07-30T14:56:26Z</time>
      </trkpt>
      <trkpt lat="48.76118" lon="6.88764">
        <ele>269.5</ele>
        <time>2021-07-30T14:56:27Z</time>
      </trkpt>
      <trkpt lat="48.76118" lon="6.88772">
        <ele>269.5</ele>
        <time>2021-07-30T14:56:28Z</time>
      </trkpt>
      <trkpt lat="48.76118" lon="6.88781">
        <ele>269.4</ele>
        <time>2021-07-30T14:56:29Z</time>
      </trkpt>
      <trkpt lat="48.76117" lon="6.88796">
        <ele>269.3</ele>
        <time>2021-07-30T14:56:31Z</time>
      </trkpt>
      <trkpt lat="48.76116" lon="6.88804">
        <ele>269.3</ele>
        <time>2021-07-30T14:56:32Z</time>
      </trkpt>
      <trkpt lat="48.76115" lon="6.8882">
        <ele>269.2</ele>
        <time>2021-07-30T14:56:34Z</time>
      </trkpt>
      <trkpt lat="48.76115" lon="6.88829">
        <ele>269.1</ele>
        <time>2021-07-30T14:56:35Z</time>
      </trkpt>
      <trkpt lat="48.76114" lon="6.88837">
        <ele>269.1</ele>
        <time>2021-07-30T14:56:36Z</time>
      </trkpt>
      <trkpt lat="48.76114" lon="6.88844">
        <ele>269</ele>
        <time>2021-07-30T14:56:37Z</time>
      </trkpt>
      <trkpt lat="48.76114" lon="6.88859">
        <ele>269</ele>
        <time>2021-07-30T14:56:39Z</time>
      </trkpt>
      <trkpt lat="48.76114" lon="6.88867">
        <ele>268.9</ele>
        <time>2021-07-30T14:56:40Z</time>
      </trkpt>
      <trkpt lat="48.76114" lon="6.88883">
        <ele>268.8</ele>
        <time>2021-07-30T14:56:42Z</time>
      </trkpt>
      <trkpt lat="48.76114" lon="6.88891">
        <ele>268.8</ele>
        <time>2021-07-30T14:56:43Z</time>
      </trkpt>
      <trkpt lat="48.76115" lon="6.88907">
        <ele>268.7</ele>
        <time>2021-07-30T14:56:45Z</time>
      </trkpt>
      <trkpt lat="48.76115" lon="6.88915">
        <ele>268.6</ele>
        <time>2021-07-30T14:56:46Z</time>
      </trkpt>
      <trkpt lat="48.76116" lon="6.88922">
        <ele>268.6</ele>
        <time>2021-07-30T14:56:47Z</time>
      </trkpt>
      <trkpt lat="48.76117" lon="6.88938">
        <ele>268.5</ele>
        <time>2021-07-30T14:56:49Z</time>
      </trkpt>
      <trkpt lat="48.76118" lon="6.88953">
        <ele>268.4</ele>
        <time>2021-07-30T14:56:51Z</time>
      </trkpt>
      <trkpt lat="48.76118" lon="6.8896">
        <ele>268.4</ele>
        <time>2021-07-30T14:56:52Z</time>
      </trkpt>
      <trkpt lat="48.76118" lon="6.88967">
        <ele>268.3</ele>
        <time>2021-07-30T14:56:53Z</time>
      </trkpt>
      <trkpt lat="48.76118" lon="6.88975">
        <ele>268.3</ele>
        <time>2021-07-30T14:56:54Z</time>
      </trkpt>
      <trkpt lat="48.76118" lon="6.8899">
        <ele>268.2</ele>
        <time>2021-07-30T14:56:56Z</time>
      </trkpt>
      <trkpt lat="48.76119" lon="6.89004">
        <ele>268.1</ele>
        <time>2021-07-30T14:56:58Z</time>
      </trkpt>
      <trkpt lat="48.76119" lon="6.89012">
        <ele>268.1</ele>
        <time>2021-07-30T14:56:59Z</time>
      </trkpt>
      <trkpt lat="48.7612" lon="6.89019">
        <ele>268</ele>
        <time>2021-07-30T14:57:00Z</time>
      </trkpt>
      <trkpt lat="48.7612" lon="6.89027">
        <ele>267.9</ele>
        <time>2021-07-30T14:57:01Z</time>
      </trkpt>
      <trkpt lat="48.76121" lon="6.89042">
        <ele>267.7</ele>
        <time>2021-07-30T14:57:03Z</time>
      </trkpt>
      <trkpt lat="48.76121" lon="6.8905">
        <ele>267.6</ele>
        <time>2021-07-30T14:57:04Z</time>
      </trkpt>
      <trkpt lat="48.76121" lon="6.89065">
        <ele>267.5</ele>
        <time>2021-07-30T14:57:06Z</time>
      </trkpt>
      <trkpt lat="48.76121" lon="6.89073">
        <ele>267.4</ele>
        <time>2021-07-30T14:57:07Z</time>
      </trkpt>
      <trkpt lat="48.76122" lon="6.89088">
        <ele>267.2</ele>
        <time>2021-07-30T14:57:09Z</time>
      </trkpt>
      <trkpt lat="48.76122" lon="6.89103">
        <ele>267</ele>
        <time>2021-07-30T14:57:11Z</time>
      </trkpt>
      <trkpt lat="48.76121" lon="6.89118">
        <ele>266.8</ele>
        <time>2021-07-30T14:57:13Z</time>
      </trkpt>
      <trkpt lat="48.7612" lon="6.89134">
        <ele>266.6</ele>
        <time>2021-07-30T14:57:15Z</time>
      </trkpt>
      <trkpt lat="48.76118" lon="6.8915">
        <ele>266.4</ele>
        <time>2021-07-30T14:57:17Z</time>
      </trkpt>
      <trkpt lat="48.76115" lon="6.89167">
        <ele>266.1</ele>
        <time>2021-07-30T14:57:19Z</time>
      </trkpt>
      <trkpt lat="48.76113" lon="6.89183">
        <ele>265.9</ele>
        <time>2021-07-30T14:57:21Z</time>
      </trkpt>
      <trkpt lat="48.7611" lon="6.89199">
        <ele>265.7</ele>
        <time>2021-07-30T14:57:23Z</time>
      </trkpt>
      <trkpt lat="48.76108" lon="6.89207">
        <ele>265.6</ele>
        <time>2021-07-30T14:57:24Z</time>
      </trkpt>
      <trkpt lat="48.76106" lon="6.89215">
        <ele>265.5</ele>
        <time>2021-07-30T14:57:25Z</time>
      </trkpt>
      <trkpt lat="48.76103" lon="6.89231">
        <ele>265.3</ele>
        <time>2021-07-30T14:57:27Z</time>
      </trkpt>
      <trkpt lat="48.76099" lon="6.89247">
        <ele>265.1</ele>
        <time>2021-07-30T14:57:29Z</time>
      </trkpt>
      <trkpt lat="48.76097" lon="6.89262">
        <ele>265</ele>
        <time>2021-07-30T14:57:31Z</time>
      </trkpt>
      <trkpt lat="48.76096" lon="6.89269">
        <ele>264.9</ele>
        <time>2021-07-30T14:57:32Z</time>
      </trkpt>
      <trkpt lat="48.76092" lon="6.89284">
        <ele>264.8</ele>
        <time>2021-07-30T14:57:34Z</time>
      </trkpt>
      <trkpt lat="48.76089" lon="6.893">
        <ele>264.7</ele>
        <time>2021-07-30T14:57:36Z</time>
      </trkpt>
      <trkpt lat="48.76087" lon="6.89307">
        <ele>264.7</ele>
        <time>2021-07-30T14:57:37Z</time>
      </trkpt>
      <trkpt lat="48.76082" lon="6.8932">
        <ele>264.6</ele>
        <time>2021-07-30T14:57:39Z</time>
      </trkpt>
      <trkpt lat="48.7608" lon="6.89327">
        <ele>264.6</ele>
        <time>2021-07-30T14:57:40Z</time>
      </trkpt>
      <trkpt lat="48.76078" lon="6.89333">
        <ele>264.6</ele>
        <time>2021-07-30T14:57:41Z</time>
      </trkpt>
      <trkpt lat="48.76075" lon="6.89345">
        <ele>264.5</ele>
        <time>2021-07-30T14:57:43Z</time>
      </trkpt>
      <trkpt lat="48.76071" lon="6.89357">
        <ele>264.4</ele>
        <time>2021-07-30T14:57:45Z</time>
      </trkpt>
      <trkpt lat="48.76069" lon="6.89363">
        <ele>264.4</ele>
        <time>2021-07-30T14:57:46Z</time>
      </trkpt>
      <trkpt lat="48.76068" lon="6.89367">
        <ele>264.4</ele>
        <time>2021-07-30T14:57:47Z</time>
      </trkpt>
      <trkpt lat="48.76066" lon="6.89374">
        <ele>264.4</ele>
        <time>2021-07-30T14:57:48Z</time>
      </trkpt>
      <trkpt lat="48.76064" lon="6.89379">
        <ele>264.4</ele>
        <time>2021-07-30T14:57:49Z</time>
      </trkpt>
      <trkpt lat="48.76058" lon="6.89391">
        <ele>264.4</ele>
        <time>2021-07-30T14:57:51Z</time>
      </trkpt>
      <trkpt lat="48.76055" lon="6.89399">
        <ele>264.4</ele>
        <time>2021-07-30T14:57:52Z</time>
      </trkpt>
      <trkpt lat="48.76053" lon="6.89406">
        <ele>264.3</ele>
        <time>2021-07-30T14:57:53Z</time>
      </trkpt>
      <trkpt lat="48.7605" lon="6.89413">
        <ele>264.3</ele>
        <time>2021-07-30T14:57:54Z</time>
      </trkpt>
      <trkpt lat="48.76045" lon="6.89426">
        <ele>264.3</ele>
        <time>2021-07-30T14:57:56Z</time>
      </trkpt>
      <trkpt lat="48.76039" lon="6.89438">
        <ele>264.3</ele>
        <time>2021-07-30T14:57:58Z</time>
      </trkpt>
      <trkpt lat="48.76036" lon="6.89448">
        <ele>264.3</ele>
        <time>2021-07-30T14:58:00Z</time>
      </trkpt>
      <trkpt lat="48.76034" lon="6.89454">
        <ele>264.3</ele>
        <time>2021-07-30T14:58:01Z</time>
      </trkpt>
      <trkpt lat="48.76032" lon="6.89458">
        <ele>264.2</ele>
        <time>2021-07-30T14:58:02Z</time>
      </trkpt>
      <trkpt lat="48.76025" lon="6.89469">
        <ele>264.2</ele>
        <time>2021-07-30T14:58:04Z</time>
      </trkpt>
      <trkpt lat="48.76023" lon="6.89476">
        <ele>264.1</ele>
        <time>2021-07-30T14:58:05Z</time>
      </trkpt>
      <trkpt lat="48.76018" lon="6.89488">
        <ele>264.1</ele>
        <time>2021-07-30T14:58:07Z</time>
      </trkpt>
      <trkpt lat="48.76013" lon="6.89501">
        <ele>264</ele>
        <time>2021-07-30T14:58:09Z</time>
      </trkpt>
      <trkpt lat="48.76008" lon="6.89513">
        <ele>264</ele>
        <time>2021-07-30T14:58:11Z</time>
      </trkpt>
      <trkpt lat="48.76005" lon="6.89519">
        <ele>263.9</ele>
        <time>2021-07-30T14:58:12Z</time>
      </trkpt>
      <trkpt lat="48.76002" lon="6.89525">
        <ele>263.9</ele>
        <time>2021-07-30T14:58:13Z</time>
      </trkpt>
      <trkpt lat="48.75997" lon="6.89537">
        <ele>263.8</ele>
        <time>2021-07-30T14:58:15Z</time>
      </trkpt>
      <trkpt lat="48.75992" lon="6.89548">
        <ele>263.7</ele>
        <time>2021-07-30T14:58:17Z</time>
      </trkpt>
      <trkpt lat="48.7599" lon="6.89554">
        <ele>263.6</ele>
        <time>2021-07-30T14:58:18Z</time>
      </trkpt>
      <trkpt lat="48.75987" lon="6.8956">
        <ele>263.6</ele>
        <time>2021-07-30T14:58:19Z</time>
      </trkpt>
      <trkpt lat="48.75983" lon="6.89572">
        <ele>263.5</ele>
        <time>2021-07-30T14:58:21Z</time>
      </trkpt>
      <trkpt lat="48.7598" lon="6.89579">
        <ele>263.4</ele>
        <time>2021-07-30T14:58:22Z</time>
      </trkpt>
      <trkpt lat="48.75978" lon="6.89585">
        <ele>263.4</ele>
        <time>2021-07-30T14:58:23Z</time>
      </trkpt>
      <trkpt lat="48.75976" lon="6.89591">
        <ele>263.3</ele>
        <time>2021-07-30T14:58:24Z</time>
      </trkpt>
      <trkpt lat="48.75977" lon="6.89601">
        <ele>263.2</ele>
        <time>2021-07-30T14:58:26Z</time>
      </trkpt>
      <trkpt lat="48.75972" lon="6.89607">
        <ele>263.2</ele>
        <time>2021-07-30T14:58:27Z</time>
      </trkpt>
      <trkpt lat="48.75967" lon="6.89618">
        <ele>263.1</ele>
        <time>2021-07-30T14:58:29Z</time>
      </trkpt>
      <trkpt lat="48.75961" lon="6.8963">
        <ele>262.8</ele>
        <time>2021-07-30T14:58:31Z</time>
      </trkpt>
      <trkpt lat="48.75958" lon="6.89641">
        <ele>262.5</ele>
        <time>2021-07-30T14:58:33Z</time>
      </trkpt>
      <trkpt lat="48.75956" lon="6.89652">
        <ele>262.3</ele>
        <time>2021-07-30T14:58:35Z</time>
      </trkpt>
      <trkpt lat="48.75952" lon="6.89658">
        <ele>262.1</ele>
        <time>2021-07-30T14:58:36Z</time>
      </trkpt>
      <trkpt lat="48.75948" lon="6.89661">
        <ele>262</ele>
        <time>2021-07-30T14:58:38Z</time>
      </trkpt>
      <trkpt lat="48.75945" lon="6.89667">
        <ele>261.8</ele>
        <time>2021-07-30T14:58:39Z</time>
      </trkpt>
      <trkpt lat="48.75942" lon="6.89673">
        <ele>261.7</ele>
        <time>2021-07-30T14:58:40Z</time>
      </trkpt>
      <trkpt lat="48.75939" lon="6.89677">
        <ele>261.6</ele>
        <time>2021-07-30T14:58:41Z</time>
      </trkpt>
      <trkpt lat="48.75933" lon="6.89682">
        <ele>261.2</ele>
        <time>2021-07-30T14:58:43Z</time>
      </trkpt>
      <trkpt lat="48.75926" lon="6.89678">
        <ele>261</ele>
        <time>2021-07-30T14:58:45Z</time>
      </trkpt>
      <trkpt lat="48.75923" lon="6.89674">
        <ele>260.9</ele>
        <time>2021-07-30T14:58:46Z</time>
      </trkpt>
      <trkpt lat="48.75919" lon="6.8967">
        <ele>260.8</ele>
        <time>2021-07-30T14:58:47Z</time>
      </trkpt>
      <trkpt lat="48.75909" lon="6.8966">
        <ele>260.5</ele>
        <time>2021-07-30T14:58:49Z</time>
      </trkpt>
      <trkpt lat="48.75901" lon="6.89654">
        <ele>260.3</ele>
        <time>2021-07-30T14:58:51Z</time>
      </trkpt>
      <trkpt lat="48.75894" lon="6.89649">
        <ele>260.2</ele>
        <time>2021-07-30T14:58:53Z</time>
      </trkpt>
      <trkpt lat="48.75889" lon="6.89641">
        <ele>260.1</ele>
        <time>2021-07-30T14:58:55Z</time>
      </trkpt>
      <trkpt lat="48.75886" lon="6.89636">
        <ele>260</ele>
        <time>2021-07-30T14:58:57Z</time>
      </trkpt>
      <trkpt lat="48.75888" lon="6.89634">
        <ele>260</ele>
        <time>2021-07-30T14:58:58Z</time>
      </trkpt>
      <trkpt lat="48.75883" lon="6.89628">
        <ele>259.9</ele>
        <time>2021-07-30T14:59:00Z</time>
      </trkpt>
      <trkpt lat="48.75881" lon="6.89625">
        <ele>259.9</ele>
        <time>2021-07-30T14:59:01Z</time>
      </trkpt>
      <trkpt lat="48.75879" lon="6.8962">
        <ele>259.9</ele>
        <time>2021-07-30T14:59:03Z</time>
      </trkpt>
      <trkpt lat="48.75876" lon="6.89616">
        <ele>259.9</ele>
        <time>2021-07-30T14:59:04Z</time>
      </trkpt>
      <trkpt lat="48.75874" lon="6.89612">
        <ele>259.9</ele>
        <time>2021-07-30T14:59:05Z</time>
      </trkpt>
      <trkpt lat="48.75874" lon="6.8961">
        <ele>259.9</ele>
        <time>2021-07-30T14:59:07Z</time>
      </trkpt>
      <trkpt lat="48.75873" lon="6.89608">
        <ele>259.8</ele>
        <time>2021-07-30T14:59:08Z</time>
      </trkpt>
      <trkpt lat="48.75872" lon="6.89606">
        <ele>259.8</ele>
        <time>2021-07-30T14:59:09Z</time>
      </trkpt>
      <trkpt lat="48.75871" lon="6.89604">
        <ele>259.8</ele>
        <time>2021-07-30T14:59:11Z</time>
      </trkpt>
      <trkpt lat="48.75871" lon="6.89602">
        <ele>259.8</ele>
        <time>2021-07-30T14:59:12Z</time>
      </trkpt>
      <trkpt lat="48.7587" lon="6.896">
        <ele>259.8</ele>
        <time>2021-07-30T14:59:14Z</time>
      </trkpt>
      <trkpt lat="48.75869" lon="6.89599">
        <ele>259.8</ele>
        <time>2021-07-30T14:59:16Z</time>
      </trkpt>
      <trkpt lat="48.75868" lon="6.89597">
        <ele>259.8</ele>
        <time>2021-07-30T14:59:58Z</time>
      </trkpt>
      <trkpt lat="48.75868" lon="6.89595">
        <ele>259.7</ele>
        <time>2021-07-30T14:59:59Z</time>
      </trkpt>
      <trkpt lat="48.75867" lon="6.89593">
        <ele>259.7</ele>
        <time>2021-07-30T15:00:00Z</time>
      </trkpt>
      <trkpt lat="48.75865" lon="6.8959">
        <ele>259.7</ele>
        <time>2021-07-30T15:00:01Z</time>
      </trkpt>
      <trkpt lat="48.75862" lon="6.89582">
        <ele>259.7</ele>
        <time>2021-07-30T15:00:03Z</time>
      </trkpt>
      <trkpt lat="48.75858" lon="6.89574">
        <ele>259.7</ele>
        <time>2021-07-30T15:00:04Z</time>
      </trkpt>
      <trkpt lat="48.75855" lon="6.89568">
        <ele>259.6</ele>
        <time>2021-07-30T15:00:06Z</time>
      </trkpt>
      <trkpt lat="48.75852" lon="6.89564">
        <ele>259.6</ele>
        <time>2021-07-30T15:00:07Z</time>
      </trkpt>
      <trkpt lat="48.75846" lon="6.89563">
        <ele>259.6</ele>
        <time>2021-07-30T15:00:09Z</time>
      </trkpt>
      <trkpt lat="48.75844" lon="6.89562">
        <ele>259.6</ele>
        <time>2021-07-30T15:00:11Z</time>
      </trkpt>
      <trkpt lat="48.75843" lon="6.89562">
        <ele>259.6</ele>
        <time>2021-07-30T15:00:13Z</time>
      </trkpt>
      <trkpt lat="48.75843" lon="6.89562">
        <ele>259.6</ele>
        <time>2021-07-30T15:00:15Z</time>
      </trkpt>
      <trkpt lat="48.75843" lon="6.89562">
        <ele>259.6</ele>
        <time>2021-07-30T15:00:16Z</time>
      </trkpt>
      <trkpt lat="48.75843" lon="6.89562">
        <ele>259.6</ele>
        <time>2021-07-30T15:00:17Z</time>
      </trkpt>
      <trkpt lat="48.75843" lon="6.89562">
        <ele>259.6</ele>
        <time>2021-07-30T15:00:19Z</time>
      </trkpt>
      <trkpt lat="48.75853" lon="6.89575">
        <ele>259.6</ele>
        <time>2021-07-30T15:06:57Z</time>
      </trkpt>
      <trkpt lat="48.75855" lon="6.89575">
        <ele>259.7</ele>
        <time>2021-07-30T15:06:58Z</time>
      </trkpt>
      <trkpt lat="48.75857" lon="6.89577">
        <ele>259.7</ele>
        <time>2021-07-30T15:06:59Z</time>
      </trkpt>
      <trkpt lat="48.75859" lon="6.89581">
        <ele>259.7</ele>
        <time>2021-07-30T15:07:01Z</time>
      </trkpt>
      <trkpt lat="48.7586" lon="6.89582">
        <ele>259.7</ele>
        <time>2021-07-30T15:07:02Z</time>
      </trkpt>
      <trkpt lat="48.75862" lon="6.89586">
        <ele>259.7</ele>
        <time>2021-07-30T15:07:03Z</time>
      </trkpt>
      <trkpt lat="48.75864" lon="6.89588">
        <ele>259.7</ele>
        <time>2021-07-30T15:07:04Z</time>
      </trkpt>
      <trkpt lat="48.75868" lon="6.89592">
        <ele>259.7</ele>
        <time>2021-07-30T15:07:05Z</time>
      </trkpt>
      <trkpt lat="48.7587" lon="6.89594">
        <ele>259.8</ele>
        <time>2021-07-30T15:07:06Z</time>
      </trkpt>
      <trkpt lat="48.75873" lon="6.89597">
        <ele>259.8</ele>
        <time>2021-07-30T15:07:08Z</time>
      </trkpt>
      <trkpt lat="48.75875" lon="6.896">
        <ele>259.8</ele>
        <time>2021-07-30T15:07:09Z</time>
      </trkpt>
      <trkpt lat="48.7588" lon="6.89606">
        <ele>259.9</ele>
        <time>2021-07-30T15:07:11Z</time>
      </trkpt>
      <trkpt lat="48.75884" lon="6.89613">
        <ele>259.9</ele>
        <time>2021-07-30T15:07:13Z</time>
      </trkpt>
      <trkpt lat="48.75888" lon="6.8962">
        <ele>259.9</ele>
        <time>2021-07-30T15:07:15Z</time>
      </trkpt>
      <trkpt lat="48.75891" lon="6.89624">
        <ele>260</ele>
        <time>2021-07-30T15:07:16Z</time>
      </trkpt>
      <trkpt lat="48.75893" lon="6.89627">
        <ele>260</ele>
        <time>2021-07-30T15:07:17Z</time>
      </trkpt>
      <trkpt lat="48.75896" lon="6.89633">
        <ele>260.1</ele>
        <time>2021-07-30T15:07:18Z</time>
      </trkpt>
      <trkpt lat="48.759" lon="6.89637">
        <ele>260.2</ele>
        <time>2021-07-30T15:07:20Z</time>
      </trkpt>
      <trkpt lat="48.75904" lon="6.89643">
        <ele>260.3</ele>
        <time>2021-07-30T15:07:22Z</time>
      </trkpt>
      <trkpt lat="48.75909" lon="6.89651">
        <ele>260.4</ele>
        <time>2021-07-30T15:07:24Z</time>
      </trkpt>
      <trkpt lat="48.75912" lon="6.89655">
        <ele>260.5</ele>
        <time>2021-07-30T15:07:25Z</time>
      </trkpt>
      <trkpt lat="48.75916" lon="6.8966">
        <ele>260.6</ele>
        <time>2021-07-30T15:07:26Z</time>
      </trkpt>
      <trkpt lat="48.75919" lon="6.89665">
        <ele>260.7</ele>
        <time>2021-07-30T15:07:28Z</time>
      </trkpt>
      <trkpt lat="48.75922" lon="6.89668">
        <ele>260.8</ele>
        <time>2021-07-30T15:07:29Z</time>
      </trkpt>
      <trkpt lat="48.75925" lon="6.89672">
        <ele>260.9</ele>
        <time>2021-07-30T15:07:30Z</time>
      </trkpt>
      <trkpt lat="48.75927" lon="6.89676">
        <ele>261</ele>
        <time>2021-07-30T15:07:31Z</time>
      </trkpt>
      <trkpt lat="48.75928" lon="6.89679">
        <ele>261</ele>
        <time>2021-07-30T15:07:32Z</time>
      </trkpt>
      <trkpt lat="48.75931" lon="6.89684">
        <ele>261.1</ele>
        <time>2021-07-30T15:07:34Z</time>
      </trkpt>
      <trkpt lat="48.75932" lon="6.8969">
        <ele>261.3</ele>
        <time>2021-07-30T15:07:35Z</time>
      </trkpt>
      <trkpt lat="48.75931" lon="6.89694">
        <ele>261.3</ele>
        <time>2021-07-30T15:07:36Z</time>
      </trkpt>
      <trkpt lat="48.7593" lon="6.89699">
        <ele>261.3</ele>
        <time>2021-07-30T15:07:38Z</time>
      </trkpt>
      <trkpt lat="48.7593" lon="6.89706">
        <ele>261.2</ele>
        <time>2021-07-30T15:07:39Z</time>
      </trkpt>
      <trkpt lat="48.75929" lon="6.89714">
        <ele>261.2</ele>
        <time>2021-07-30T15:07:40Z</time>
      </trkpt>
      <trkpt lat="48.75928" lon="6.89721">
        <ele>261.2</ele>
        <time>2021-07-30T15:07:42Z</time>
      </trkpt>
      <trkpt lat="48.75926" lon="6.89727">
        <ele>261.2</ele>
        <time>2021-07-30T15:07:43Z</time>
      </trkpt>
      <trkpt lat="48.75921" lon="6.89739">
        <ele>261.1</ele>
        <time>2021-07-30T15:07:45Z</time>
      </trkpt>
      <trkpt lat="48.75918" lon="6.89745">
        <ele>261.1</ele>
        <time>2021-07-30T15:07:46Z</time>
      </trkpt>
      <trkpt lat="48.75912" lon="6.8976">
        <ele>261</ele>
        <time>2021-07-30T15:07:48Z</time>
      </trkpt>
      <trkpt lat="48.75909" lon="6.89765">
        <ele>261</ele>
        <time>2021-07-30T15:07:49Z</time>
      </trkpt>
      <trkpt lat="48.75906" lon="6.89771">
        <ele>261</ele>
        <time>2021-07-30T15:07:50Z</time>
      </trkpt>
      <trkpt lat="48.75899" lon="6.89783">
        <ele>261.1</ele>
        <time>2021-07-30T15:07:52Z</time>
      </trkpt>
      <trkpt lat="48.75895" lon="6.89788">
        <ele>261</ele>
        <time>2021-07-30T15:07:53Z</time>
      </trkpt>
      <trkpt lat="48.75887" lon="6.89797">
        <ele>261</ele>
        <time>2021-07-30T15:07:55Z</time>
      </trkpt>
      <trkpt lat="48.75879" lon="6.89807">
        <ele>261</ele>
        <time>2021-07-30T15:07:57Z</time>
      </trkpt>
      <trkpt lat="48.75876" lon="6.89812">
        <ele>260.9</ele>
        <time>2021-07-30T15:07:58Z</time>
      </trkpt>
      <trkpt lat="48.75869" lon="6.89821">
        <ele>260.9</ele>
        <time>2021-07-30T15:08:00Z</time>
      </trkpt>
      <trkpt lat="48.75867" lon="6.89824">
        <ele>260.9</ele>
        <time>2021-07-30T15:08:01Z</time>
      </trkpt>
      <trkpt lat="48.75863" lon="6.89826">
        <ele>260.9</ele>
        <time>2021-07-30T15:08:02Z</time>
      </trkpt>
      <trkpt lat="48.75862" lon="6.89829">
        <ele>260.9</ele>
        <time>2021-07-30T15:08:03Z</time>
      </trkpt>
      <trkpt lat="48.7586" lon="6.89834">
        <ele>260.9</ele>
        <time>2021-07-30T15:08:04Z</time>
      </trkpt>
      <trkpt lat="48.75857" lon="6.89839">
        <ele>260.9</ele>
        <time>2021-07-30T15:08:05Z</time>
      </trkpt>
      <trkpt lat="48.75854" lon="6.89847">
        <ele>260.9</ele>
        <time>2021-07-30T15:08:06Z</time>
      </trkpt>
      <trkpt lat="48.75851" lon="6.89853">
        <ele>260.9</ele>
        <time>2021-07-30T15:08:07Z</time>
      </trkpt>
      <trkpt lat="48.75848" lon="6.89858">
        <ele>260.9</ele>
        <time>2021-07-30T15:08:08Z</time>
      </trkpt>
      <trkpt lat="48.75846" lon="6.89864">
        <ele>260.9</ele>
        <time>2021-07-30T15:08:10Z</time>
      </trkpt>
      <trkpt lat="48.75843" lon="6.89868">
        <ele>260.9</ele>
        <time>2021-07-30T15:08:11Z</time>
      </trkpt>
      <trkpt lat="48.7584" lon="6.89872">
        <ele>261</ele>
        <time>2021-07-30T15:08:12Z</time>
      </trkpt>
      <trkpt lat="48.75837" lon="6.89877">
        <ele>261</ele>
        <time>2021-07-30T15:08:13Z</time>
      </trkpt>
      <trkpt lat="48.75833" lon="6.89881">
        <ele>261.1</ele>
        <time>2021-07-30T15:08:14Z</time>
      </trkpt>
      <trkpt lat="48.7583" lon="6.89885">
        <ele>261.1</ele>
        <time>2021-07-30T15:08:15Z</time>
      </trkpt>
      <trkpt lat="48.75826" lon="6.89889">
        <ele>261</ele>
        <time>2021-07-30T15:08:17Z</time>
      </trkpt>
      <trkpt lat="48.75822" lon="6.89893">
        <ele>260.8</ele>
        <time>2021-07-30T15:08:18Z</time>
      </trkpt>
      <trkpt lat="48.75818" lon="6.89896">
        <ele>260.5</ele>
        <time>2021-07-30T15:08:19Z</time>
      </trkpt>
      <trkpt lat="48.75814" lon="6.899">
        <ele>260.2</ele>
        <time>2021-07-30T15:08:21Z</time>
      </trkpt>
      <trkpt lat="48.75811" lon="6.89902">
        <ele>260</ele>
        <time>2021-07-30T15:08:22Z</time>
      </trkpt>
      <trkpt lat="48.75808" lon="6.89903">
        <ele>259.9</ele>
        <time>2021-07-30T15:08:23Z</time>
      </trkpt>
      <trkpt lat="48.75803" lon="6.89908">
        <ele>259.5</ele>
        <time>2021-07-30T15:08:25Z</time>
      </trkpt>
      <trkpt lat="48.758" lon="6.89917">
        <ele>259.1</ele>
        <time>2021-07-30T15:08:27Z</time>
      </trkpt>
      <trkpt lat="48.75798" lon="6.89922">
        <ele>258.8</ele>
        <time>2021-07-30T15:08:28Z</time>
      </trkpt>
      <trkpt lat="48.75795" lon="6.89929">
        <ele>258.4</ele>
        <time>2021-07-30T15:08:30Z</time>
      </trkpt>
      <trkpt lat="48.75793" lon="6.89938">
        <ele>258</ele>
        <time>2021-07-30T15:08:32Z</time>
      </trkpt>
      <trkpt lat="48.75791" lon="6.89946">
        <ele>257.5</ele>
        <time>2021-07-30T15:08:34Z</time>
      </trkpt>
      <trkpt lat="48.75789" lon="6.8995">
        <ele>257.3</ele>
        <time>2021-07-30T15:08:35Z</time>
      </trkpt>
      <trkpt lat="48.75787" lon="6.89956">
        <ele>257</ele>
        <time>2021-07-30T15:08:37Z</time>
      </trkpt>
      <trkpt lat="48.75785" lon="6.89961">
        <ele>256.9</ele>
        <time>2021-07-30T15:08:38Z</time>
      </trkpt>
      <trkpt lat="48.75782" lon="6.89966">
        <ele>256.8</ele>
        <time>2021-07-30T15:08:40Z</time>
      </trkpt>
      <trkpt lat="48.7578" lon="6.89967">
        <ele>256.8</ele>
        <time>2021-07-30T15:08:41Z</time>
      </trkpt>
      <trkpt lat="48.75778" lon="6.89969">
        <ele>256.8</ele>
        <time>2021-07-30T15:08:42Z</time>
      </trkpt>
      <trkpt lat="48.75777" lon="6.89969">
        <ele>256.8</ele>
        <time>2021-07-30T15:08:44Z</time>
      </trkpt>
      <trkpt lat="48.75778" lon="6.89969">
        <ele>256.7</ele>
        <time>2021-07-30T15:08:46Z</time>
      </trkpt>
      <trkpt lat="48.75778" lon="6.89968">
        <ele>256.7</ele>
        <time>2021-07-30T15:08:47Z</time>
      </trkpt>
      <trkpt lat="48.75778" lon="6.89968">
        <ele>256.7</ele>
        <time>2021-07-30T15:08:48Z</time>
      </trkpt>
      <trkpt lat="48.75778" lon="6.89968">
        <ele>256.7</ele>
        <time>2021-07-30T15:08:50Z</time>
      </trkpt>
      <trkpt lat="48.75778" lon="6.89969">
        <ele>256.7</ele>
        <time>2021-07-30T15:08:51Z</time>
      </trkpt>
      <trkpt lat="48.75778" lon="6.89969">
        <ele>256.7</ele>
        <time>2021-07-30T15:08:52Z</time>
      </trkpt>
      <trkpt lat="48.75775" lon="6.89996">
        <ele>256.4</ele>
        <time>2021-07-30T15:22:44Z</time>
      </trkpt>
      <trkpt lat="48.75779" lon="6.89997">
        <ele>256.4</ele>
        <time>2021-07-30T15:22:50Z</time>
      </trkpt>
      <trkpt lat="48.7578" lon="6.89994">
        <ele>256.4</ele>
        <time>2021-07-30T15:23:03Z</time>
      </trkpt>
      <trkpt lat="48.75779" lon="6.89995">
        <ele>256.4</ele>
        <time>2021-07-30T15:23:09Z</time>
      </trkpt>
      <trkpt lat="48.75761" lon="6.89953">
        <ele>256.3</ele>
        <time>2021-07-30T15:24:44Z</time>
      </trkpt>
      <trkpt lat="48.7576" lon="6.89956">
        <ele>256.3</ele>
        <time>2021-07-30T15:24:47Z</time>
      </trkpt>
      <trkpt lat="48.75758" lon="6.89952">
        <ele>256.2</ele>
        <time>2021-07-30T15:24:48Z</time>
      </trkpt>
      <trkpt lat="48.75758" lon="6.89952">
        <ele>256.2</ele>
        <time>2021-07-30T15:24:49Z</time>
      </trkpt>
      <trkpt lat="48.75758" lon="6.89952">
        <ele>256.2</ele>
        <time>2021-07-30T15:24:51Z</time>
      </trkpt>
      <trkpt lat="48.75758" lon="6.89954">
        <ele>256.2</ele>
        <time>2021-07-30T15:24:52Z</time>
      </trkpt>
      <trkpt lat="48.75758" lon="6.89956">
        <ele>256.2</ele>
        <time>2021-07-30T15:24:53Z</time>
      </trkpt>
      <trkpt lat="48.75758" lon="6.89957">
        <ele>256.2</ele>
        <time>2021-07-30T15:24:55Z</time>
      </trkpt>
      <trkpt lat="48.75758" lon="6.89959">
        <ele>256.2</ele>
        <time>2021-07-30T15:24:56Z</time>
      </trkpt>
      <trkpt lat="48.75759" lon="6.89961">
        <ele>256.2</ele>
        <time>2021-07-30T15:24:58Z</time>
      </trkpt>
      <trkpt lat="48.75593" lon="6.89078">
        <ele>261.7</ele>
        <time>2021-07-31T08:50:08Z</time>
      </trkpt>
      <trkpt lat="48.75593" lon="6.89078">
        <ele>261.7</ele>
        <time>2021-07-31T08:50:08Z</time>
      </trkpt>
      <trkpt lat="48.75589" lon="6.89063">
        <ele>261.8</ele>
        <time>2021-07-31T08:50:10Z</time>
      </trkpt>
      <trkpt lat="48.75584" lon="6.89053">
        <ele>262</ele>
        <time>2021-07-31T08:50:11Z</time>
      </trkpt>
      <trkpt lat="48.75579" lon="6.89044">
        <ele>262.1</ele>
        <time>2021-07-31T08:50:12Z</time>
      </trkpt>
      <trkpt lat="48.75575" lon="6.89037">
        <ele>262.3</ele>
        <time>2021-07-31T08:50:13Z</time>
      </trkpt>
      <trkpt lat="48.75574" lon="6.89035">
        <ele>262.3</ele>
        <time>2021-07-31T08:50:14Z</time>
      </trkpt>
      <trkpt lat="48.75573" lon="6.89033">
        <ele>262.3</ele>
        <time>2021-07-31T08:50:15Z</time>
      </trkpt>
      <trkpt lat="48.75573" lon="6.89032">
        <ele>262.4</ele>
        <time>2021-07-31T08:50:16Z</time>
      </trkpt>
      <trkpt lat="48.75572" lon="6.8903">
        <ele>262.4</ele>
        <time>2021-07-31T08:50:17Z</time>
      </trkpt>
      <trkpt lat="48.7557" lon="6.89025">
        <ele>262.5</ele>
        <time>2021-07-31T08:50:18Z</time>
      </trkpt>
      <trkpt lat="48.75564" lon="6.89015">
        <ele>262.7</ele>
        <time>2021-07-31T08:50:20Z</time>
      </trkpt>
      <trkpt lat="48.75561" lon="6.8901">
        <ele>262.8</ele>
        <time>2021-07-31T08:50:22Z</time>
      </trkpt>
      <trkpt lat="48.75558" lon="6.89005">
        <ele>262.9</ele>
        <time>2021-07-31T08:50:23Z</time>
      </trkpt>
      <trkpt lat="48.75558" lon="6.89005">
        <ele>262.9</ele>
        <time>2021-07-31T08:50:23Z</time>
      </trkpt>
      <trkpt lat="48.75552" lon="6.88996">
        <ele>263.1</ele>
        <time>2021-07-31T08:50:25Z</time>
      </trkpt>
      <trkpt lat="48.75548" lon="6.88991">
        <ele>263.2</ele>
        <time>2021-07-31T08:50:26Z</time>
      </trkpt>
      <trkpt lat="48.75545" lon="6.88987">
        <ele>263.2</ele>
        <time>2021-07-31T08:50:27Z</time>
      </trkpt>
      <trkpt lat="48.75542" lon="6.88983">
        <ele>263.3</ele>
        <time>2021-07-31T08:50:28Z</time>
      </trkpt>
      <trkpt lat="48.75538" lon="6.8898">
        <ele>263.4</ele>
        <time>2021-07-31T08:50:29Z</time>
      </trkpt>
      <trkpt lat="48.75535" lon="6.88977">
        <ele>263.5</ele>
        <time>2021-07-31T08:50:30Z</time>
      </trkpt>
      <trkpt lat="48.75531" lon="6.88975">
        <ele>263.6</ele>
        <time>2021-07-31T08:50:31Z</time>
      </trkpt>
      <trkpt lat="48.75527" lon="6.88972">
        <ele>263.6</ele>
        <time>2021-07-31T08:50:32Z</time>
      </trkpt>
      <trkpt lat="48.75524" lon="6.88971">
        <ele>263.7</ele>
        <time>2021-07-31T08:50:33Z</time>
      </trkpt>
      <trkpt lat="48.7552" lon="6.88968">
        <ele>263.8</ele>
        <time>2021-07-31T08:50:35Z</time>
      </trkpt>
      <trkpt lat="48.75517" lon="6.88967">
        <ele>263.8</ele>
        <time>2021-07-31T08:50:36Z</time>
      </trkpt>
      <trkpt lat="48.75513" lon="6.88965">
        <ele>263.9</ele>
        <time>2021-07-31T08:50:37Z</time>
      </trkpt>
      <trkpt lat="48.7551" lon="6.88964">
        <ele>264</ele>
        <time>2021-07-31T08:50:38Z</time>
      </trkpt>
      <trkpt lat="48.75504" lon="6.8896">
        <ele>264.1</ele>
        <time>2021-07-31T08:50:40Z</time>
      </trkpt>
      <trkpt lat="48.75501" lon="6.88958">
        <ele>264.1</ele>
        <time>2021-07-31T08:50:41Z</time>
      </trkpt>
      <trkpt lat="48.75496" lon="6.88956">
        <ele>264.2</ele>
        <time>2021-07-31T08:50:43Z</time>
      </trkpt>
      <trkpt lat="48.75493" lon="6.88954">
        <ele>264.2</ele>
        <time>2021-07-31T08:50:44Z</time>
      </trkpt>
      <trkpt lat="48.75489" lon="6.88952">
        <ele>264.3</ele>
        <time>2021-07-31T08:50:45Z</time>
      </trkpt>
      <trkpt lat="48.75484" lon="6.88949">
        <ele>264.4</ele>
        <time>2021-07-31T08:50:46Z</time>
      </trkpt>
      <trkpt lat="48.7548" lon="6.88947">
        <ele>264.4</ele>
        <time>2021-07-31T08:50:47Z</time>
      </trkpt>
      <trkpt lat="48.75476" lon="6.88945">
        <ele>264.5</ele>
        <time>2021-07-31T08:50:48Z</time>
      </trkpt>
      <trkpt lat="48.75473" lon="6.88943">
        <ele>264.6</ele>
        <time>2021-07-31T08:50:49Z</time>
      </trkpt>
      <trkpt lat="48.75469" lon="6.88941">
        <ele>264.6</ele>
        <time>2021-07-31T08:50:50Z</time>
      </trkpt>
      <trkpt lat="48.75464" lon="6.88938">
        <ele>264.7</ele>
        <time>2021-07-31T08:50:52Z</time>
      </trkpt>
      <trkpt lat="48.7546" lon="6.88935">
        <ele>264.7</ele>
        <time>2021-07-31T08:50:53Z</time>
      </trkpt>
      <trkpt lat="48.75456" lon="6.88933">
        <ele>264.8</ele>
        <time>2021-07-31T08:50:54Z</time>
      </trkpt>
      <trkpt lat="48.75453" lon="6.8893">
        <ele>264.8</ele>
        <time>2021-07-31T08:50:55Z</time>
      </trkpt>
      <trkpt lat="48.7545" lon="6.88928">
        <ele>264.9</ele>
        <time>2021-07-31T08:50:56Z</time>
      </trkpt>
      <trkpt lat="48.75448" lon="6.88925">
        <ele>264.9</ele>
        <time>2021-07-31T08:50:57Z</time>
      </trkpt>
      <trkpt lat="48.75444" lon="6.88921">
        <ele>265</ele>
        <time>2021-07-31T08:50:59Z</time>
      </trkpt>
      <trkpt lat="48.75441" lon="6.88919">
        <ele>265</ele>
        <time>2021-07-31T08:51:00Z</time>
      </trkpt>
      <trkpt lat="48.75438" lon="6.88915">
        <ele>265</ele>
        <time>2021-07-31T08:51:01Z</time>
      </trkpt>
      <trkpt lat="48.75435" lon="6.88912">
        <ele>265</ele>
        <time>2021-07-31T08:51:02Z</time>
      </trkpt>
      <trkpt lat="48.75433" lon="6.8891">
        <ele>265.1</ele>
        <time>2021-07-31T08:51:03Z</time>
      </trkpt>
      <trkpt lat="48.75431" lon="6.88907">
        <ele>265.1</ele>
        <time>2021-07-31T08:51:04Z</time>
      </trkpt>
      <trkpt lat="48.75428" lon="6.88904">
        <ele>265.1</ele>
        <time>2021-07-31T08:51:05Z</time>
      </trkpt>
      <trkpt lat="48.75426" lon="6.88902">
        <ele>265.2</ele>
        <time>2021-07-31T08:51:06Z</time>
      </trkpt>
      <trkpt lat="48.75423" lon="6.889">
        <ele>265.2</ele>
        <time>2021-07-31T08:51:07Z</time>
      </trkpt>
      <trkpt lat="48.75421" lon="6.88898">
        <ele>265.2</ele>
        <time>2021-07-31T08:51:08Z</time>
      </trkpt>
      <trkpt lat="48.75418" lon="6.88896">
        <ele>265.3</ele>
        <time>2021-07-31T08:51:09Z</time>
      </trkpt>
      <trkpt lat="48.75417" lon="6.88893">
        <ele>265.3</ele>
        <time>2021-07-31T08:51:10Z</time>
      </trkpt>
      <trkpt lat="48.75414" lon="6.88889">
        <ele>265.3</ele>
        <time>2021-07-31T08:51:12Z</time>
      </trkpt>
      <trkpt lat="48.75411" lon="6.88886">
        <ele>265.4</ele>
        <time>2021-07-31T08:51:13Z</time>
      </trkpt>
      <trkpt lat="48.75409" lon="6.88883">
        <ele>265.4</ele>
        <time>2021-07-31T08:51:14Z</time>
      </trkpt>
      <trkpt lat="48.75406" lon="6.88879">
        <ele>265.4</ele>
        <time>2021-07-31T08:51:15Z</time>
      </trkpt>
      <trkpt lat="48.75404" lon="6.88876">
        <ele>265.4</ele>
        <time>2021-07-31T08:51:16Z</time>
      </trkpt>
      <trkpt lat="48.75402" lon="6.88873">
        <ele>265.4</ele>
        <time>2021-07-31T08:51:17Z</time>
      </trkpt>
      <trkpt lat="48.75398" lon="6.88868">
        <ele>265.4</ele>
        <time>2021-07-31T08:51:19Z</time>
      </trkpt>
      <trkpt lat="48.75394" lon="6.88864">
        <ele>265.4</ele>
        <time>2021-07-31T08:51:21Z</time>
      </trkpt>
      <trkpt lat="48.75391" lon="6.88863">
        <ele>265.4</ele>
        <time>2021-07-31T08:51:22Z</time>
      </trkpt>
      <trkpt lat="48.75387" lon="6.88861">
        <ele>265.4</ele>
        <time>2021-07-31T08:51:24Z</time>
      </trkpt>
      <trkpt lat="48.75384" lon="6.88858">
        <ele>265.4</ele>
        <time>2021-07-31T08:51:25Z</time>
      </trkpt>
      <trkpt lat="48.7538" lon="6.88856">
        <ele>265.4</ele>
        <time>2021-07-31T08:51:26Z</time>
      </trkpt>
      <trkpt lat="48.75379" lon="6.88855">
        <ele>265.4</ele>
        <time>2021-07-31T08:51:27Z</time>
      </trkpt>
      <trkpt lat="48.75374" lon="6.88853">
        <ele>265.3</ele>
        <time>2021-07-31T08:51:29Z</time>
      </trkpt>
      <trkpt lat="48.7537" lon="6.88853">
        <ele>264.9</ele>
        <time>2021-07-31T08:51:30Z</time>
      </trkpt>
      <trkpt lat="48.75366" lon="6.88855">
        <ele>264.9</ele>
        <time>2021-07-31T08:51:31Z</time>
      </trkpt>
      <trkpt lat="48.75365" lon="6.88856">
        <ele>264.9</ele>
        <time>2021-07-31T08:51:32Z</time>
      </trkpt>
      <trkpt lat="48.75361" lon="6.88857">
        <ele>264.8</ele>
        <time>2021-07-31T08:51:34Z</time>
      </trkpt>
      <trkpt lat="48.75359" lon="6.88858">
        <ele>264.7</ele>
        <time>2021-07-31T08:51:35Z</time>
      </trkpt>
      <trkpt lat="48.75354" lon="6.88859">
        <ele>264.6</ele>
        <time>2021-07-31T08:51:37Z</time>
      </trkpt>
      <trkpt lat="48.75352" lon="6.88861">
        <ele>264.6</ele>
        <time>2021-07-31T08:51:38Z</time>
      </trkpt>
      <trkpt lat="48.7535" lon="6.88866">
        <ele>264.5</ele>
        <time>2021-07-31T08:51:40Z</time>
      </trkpt>
      <trkpt lat="48.75349" lon="6.88869">
        <ele>264.5</ele>
        <time>2021-07-31T08:51:41Z</time>
      </trkpt>
      <trkpt lat="48.7535" lon="6.88869">
        <ele>264.5</ele>
        <time>2021-07-31T08:51:43Z</time>
      </trkpt>
      <trkpt lat="48.75351" lon="6.88866">
        <ele>264.4</ele>
        <time>2021-07-31T08:51:44Z</time>
      </trkpt>
      <trkpt lat="48.75355" lon="6.8886">
        <ele>264.3</ele>
        <time>2021-07-31T08:51:46Z</time>
      </trkpt>
      <trkpt lat="48.75357" lon="6.88857">
        <ele>264.2</ele>
        <time>2021-07-31T08:51:47Z</time>
      </trkpt>
      <trkpt lat="48.75359" lon="6.88856">
        <ele>264.2</ele>
        <time>2021-07-31T08:51:48Z</time>
      </trkpt>
      <trkpt lat="48.7536" lon="6.88855">
        <ele>264.1</ele>
        <time>2021-07-31T08:51:49Z</time>
      </trkpt>
      <trkpt lat="48.75362" lon="6.88854">
        <ele>264.1</ele>
        <time>2021-07-31T08:51:51Z</time>
      </trkpt>
      <trkpt lat="48.75363" lon="6.88856">
        <ele>264.1</ele>
        <time>2021-07-31T08:51:52Z</time>
      </trkpt>
      <trkpt lat="48.75364" lon="6.88857">
        <ele>264</ele>
        <time>2021-07-31T08:51:54Z</time>
      </trkpt>
      <trkpt lat="48.75366" lon="6.88856">
        <ele>264</ele>
        <time>2021-07-31T08:51:55Z</time>
      </trkpt>
      <trkpt lat="48.75365" lon="6.88856">
        <ele>264</ele>
        <time>2021-07-31T08:51:57Z</time>
      </trkpt>
      <trkpt lat="48.75365" lon="6.88855">
        <ele>264</ele>
        <time>2021-07-31T08:51:58Z</time>
      </trkpt>
      <trkpt lat="48.75365" lon="6.88855">
        <ele>264</ele>
        <time>2021-07-31T08:51:59Z</time>
      </trkpt>
      <trkpt lat="48.75365" lon="6.88854">
        <ele>263.9</ele>
        <time>2021-07-31T08:52:01Z</time>
      </trkpt>
      <trkpt lat="48.75364" lon="6.88854">
        <ele>263.9</ele>
        <time>2021-07-31T08:52:02Z</time>
      </trkpt>
      <trkpt lat="48.75364" lon="6.88854">
        <ele>263.9</ele>
        <time>2021-07-31T08:52:03Z</time>
      </trkpt>
      <trkpt lat="48.75364" lon="6.88855">
        <ele>263.9</ele>
        <time>2021-07-31T08:52:05Z</time>
      </trkpt>
      <trkpt lat="48.75364" lon="6.88855">
        <ele>263.9</ele>
        <time>2021-07-31T08:52:06Z</time>
      </trkpt>
      <trkpt lat="48.75364" lon="6.88857">
        <ele>263.9</ele>
        <time>2021-07-31T08:52:08Z</time>
      </trkpt>
      <trkpt lat="48.75364" lon="6.88859">
        <ele>263.8</ele>
        <time>2021-07-31T08:52:10Z</time>
      </trkpt>
      <trkpt lat="48.75344" lon="6.88883">
        <ele>263.2</ele>
        <time>2021-07-31T08:52:33Z</time>
      </trkpt>
      <trkpt lat="48.75334" lon="6.88893">
        <ele>262.9</ele>
        <time>2021-07-31T08:52:35Z</time>
      </trkpt>
      <trkpt lat="48.75319" lon="6.88908">
        <ele>262.2</ele>
        <time>2021-07-31T08:52:36Z</time>
      </trkpt>
      <trkpt lat="48.75304" lon="6.88926">
        <ele>261.7</ele>
        <time>2021-07-31T08:52:38Z</time>
      </trkpt>
      <trkpt lat="48.75291" lon="6.88941">
        <ele>261.3</ele>
        <time>2021-07-31T08:52:40Z</time>
      </trkpt>
      <trkpt lat="48.75284" lon="6.88949">
        <ele>261.3</ele>
        <time>2021-07-31T08:52:41Z</time>
      </trkpt>
      <trkpt lat="48.75274" lon="6.88963">
        <ele>261.1</ele>
        <time>2021-07-31T08:52:43Z</time>
      </trkpt>
      <trkpt lat="48.75264" lon="6.88975">
        <ele>261</ele>
        <time>2021-07-31T08:52:45Z</time>
      </trkpt>
      <trkpt lat="48.75259" lon="6.8898">
        <ele>261</ele>
        <time>2021-07-31T08:52:46Z</time>
      </trkpt>
      <trkpt lat="48.75255" lon="6.88985">
        <ele>260.9</ele>
        <time>2021-07-31T08:52:47Z</time>
      </trkpt>
      <trkpt lat="48.7525" lon="6.8899">
        <ele>260.9</ele>
        <time>2021-07-31T08:52:48Z</time>
      </trkpt>
      <trkpt lat="48.75242" lon="6.89001">
        <ele>260.8</ele>
        <time>2021-07-31T08:52:50Z</time>
      </trkpt>
      <trkpt lat="48.75234" lon="6.89013">
        <ele>260.7</ele>
        <time>2021-07-31T08:52:52Z</time>
      </trkpt>
      <trkpt lat="48.75231" lon="6.89019">
        <ele>260.6</ele>
        <time>2021-07-31T08:52:53Z</time>
      </trkpt>
      <trkpt lat="48.75223" lon="6.89031">
        <ele>260.6</ele>
        <time>2021-07-31T08:52:55Z</time>
      </trkpt>
      <trkpt lat="48.75215" lon="6.89042">
        <ele>260.6</ele>
        <time>2021-07-31T08:52:57Z</time>
      </trkpt>
      <trkpt lat="48.75207" lon="6.89053">
        <ele>260.6</ele>
        <time>2021-07-31T08:52:59Z</time>
      </trkpt>
      <trkpt lat="48.75199" lon="6.89062">
        <ele>260.6</ele>
        <time>2021-07-31T08:53:01Z</time>
      </trkpt>
      <trkpt lat="48.75191" lon="6.89071">
        <ele>260.7</ele>
        <time>2021-07-31T08:53:03Z</time>
      </trkpt>
      <trkpt lat="48.75188" lon="6.89074">
        <ele>260.7</ele>
        <time>2021-07-31T08:53:04Z</time>
      </trkpt>
      <trkpt lat="48.75183" lon="6.89079">
        <ele>260.7</ele>
        <time>2021-07-31T08:53:05Z</time>
      </trkpt>
      <trkpt lat="48.75179" lon="6.89084">
        <ele>260.7</ele>
        <time>2021-07-31T08:53:06Z</time>
      </trkpt>
      <trkpt lat="48.75169" lon="6.89091">
        <ele>260.8</ele>
        <time>2021-07-31T08:53:08Z</time>
      </trkpt>
      <trkpt lat="48.75162" lon="6.89097">
        <ele>260.9</ele>
        <time>2021-07-31T08:53:10Z</time>
      </trkpt>
      <trkpt lat="48.75157" lon="6.89101">
        <ele>261</ele>
        <time>2021-07-31T08:53:11Z</time>
      </trkpt>
      <trkpt lat="48.75152" lon="6.89106">
        <ele>261</ele>
        <time>2021-07-31T08:53:12Z</time>
      </trkpt>
      <trkpt lat="48.75148" lon="6.89109">
        <ele>261.1</ele>
        <time>2021-07-31T08:53:13Z</time>
      </trkpt>
      <trkpt lat="48.75143" lon="6.89113">
        <ele>261.2</ele>
        <time>2021-07-31T08:53:15Z</time>
      </trkpt>
      <trkpt lat="48.7514" lon="6.89116">
        <ele>261.2</ele>
        <time>2021-07-31T08:53:16Z</time>
      </trkpt>
      <trkpt lat="48.75136" lon="6.8912">
        <ele>261.3</ele>
        <time>2021-07-31T08:53:17Z</time>
      </trkpt>
      <trkpt lat="48.7513" lon="6.89125">
        <ele>261.4</ele>
        <time>2021-07-31T08:53:18Z</time>
      </trkpt>
      <trkpt lat="48.75123" lon="6.89132">
        <ele>261.5</ele>
        <time>2021-07-31T08:53:20Z</time>
      </trkpt>
      <trkpt lat="48.75118" lon="6.89136">
        <ele>261.6</ele>
        <time>2021-07-31T08:53:21Z</time>
      </trkpt>
      <trkpt lat="48.75113" lon="6.89138">
        <ele>261.7</ele>
        <time>2021-07-31T08:53:22Z</time>
      </trkpt>
      <trkpt lat="48.75106" lon="6.89145">
        <ele>261.9</ele>
        <time>2021-07-31T08:53:24Z</time>
      </trkpt>
      <trkpt lat="48.75102" lon="6.89149">
        <ele>262</ele>
        <time>2021-07-31T08:53:25Z</time>
      </trkpt>
      <trkpt lat="48.75096" lon="6.89155">
        <ele>262.2</ele>
        <time>2021-07-31T08:53:27Z</time>
      </trkpt>
      <trkpt lat="48.75092" lon="6.89158">
        <ele>262.4</ele>
        <time>2021-07-31T08:53:28Z</time>
      </trkpt>
      <trkpt lat="48.75089" lon="6.89161">
        <ele>262.5</ele>
        <time>2021-07-31T08:53:29Z</time>
      </trkpt>
      <trkpt lat="48.75087" lon="6.89165">
        <ele>262.7</ele>
        <time>2021-07-31T08:53:30Z</time>
      </trkpt>
      <trkpt lat="48.75084" lon="6.89169">
        <ele>262.8</ele>
        <time>2021-07-31T08:53:31Z</time>
      </trkpt>
      <trkpt lat="48.75082" lon="6.89173">
        <ele>262.9</ele>
        <time>2021-07-31T08:53:32Z</time>
      </trkpt>
      <trkpt lat="48.7508" lon="6.89175">
        <ele>263</ele>
        <time>2021-07-31T08:53:34Z</time>
      </trkpt>
      <trkpt lat="48.75077" lon="6.89179">
        <ele>263.2</ele>
        <time>2021-07-31T08:53:35Z</time>
      </trkpt>
      <trkpt lat="48.75074" lon="6.89183">
        <ele>263.3</ele>
        <time>2021-07-31T08:53:36Z</time>
      </trkpt>
      <trkpt lat="48.75071" lon="6.89186">
        <ele>263.4</ele>
        <time>2021-07-31T08:53:37Z</time>
      </trkpt>
      <trkpt lat="48.75068" lon="6.8919">
        <ele>263.5</ele>
        <time>2021-07-31T08:53:38Z</time>
      </trkpt>
      <trkpt lat="48.75065" lon="6.89195">
        <ele>263.6</ele>
        <time>2021-07-31T08:53:40Z</time>
      </trkpt>
      <trkpt lat="48.75062" lon="6.89199">
        <ele>263.6</ele>
        <time>2021-07-31T08:53:41Z</time>
      </trkpt>
      <trkpt lat="48.7506" lon="6.89204">
        <ele>263.7</ele>
        <time>2021-07-31T08:53:42Z</time>
      </trkpt>
      <trkpt lat="48.75057" lon="6.89208">
        <ele>263.7</ele>
        <time>2021-07-31T08:53:43Z</time>
      </trkpt>
      <trkpt lat="48.75055" lon="6.89213">
        <ele>263.7</ele>
        <time>2021-07-31T08:53:44Z</time>
      </trkpt>
      <trkpt lat="48.75052" lon="6.89218">
        <ele>263.7</ele>
        <time>2021-07-31T08:53:45Z</time>
      </trkpt>
      <trkpt lat="48.75048" lon="6.89224">
        <ele>263.7</ele>
        <time>2021-07-31T08:53:46Z</time>
      </trkpt>
      <trkpt lat="48.75043" lon="6.89231">
        <ele>263.6</ele>
        <time>2021-07-31T08:53:48Z</time>
      </trkpt>
      <trkpt lat="48.75039" lon="6.89236">
        <ele>263.6</ele>
        <time>2021-07-31T08:53:49Z</time>
      </trkpt>
      <trkpt lat="48.75036" lon="6.89241">
        <ele>263.4</ele>
        <time>2021-07-31T08:53:50Z</time>
      </trkpt>
      <trkpt lat="48.7503" lon="6.89252">
        <ele>263.1</ele>
        <time>2021-07-31T08:53:52Z</time>
      </trkpt>
      <trkpt lat="48.75027" lon="6.89258">
        <ele>262.9</ele>
        <time>2021-07-31T08:53:53Z</time>
      </trkpt>
      <trkpt lat="48.75025" lon="6.89265">
        <ele>262.7</ele>
        <time>2021-07-31T08:53:54Z</time>
      </trkpt>
      <trkpt lat="48.7502" lon="6.8928">
        <ele>262.3</ele>
        <time>2021-07-31T08:53:56Z</time>
      </trkpt>
      <trkpt lat="48.75017" lon="6.89287">
        <ele>262.2</ele>
        <time>2021-07-31T08:53:57Z</time>
      </trkpt>
      <trkpt lat="48.75012" lon="6.89301">
        <ele>262</ele>
        <time>2021-07-31T08:53:59Z</time>
      </trkpt>
      <trkpt lat="48.75011" lon="6.89309">
        <ele>262</ele>
        <time>2021-07-31T08:54:00Z</time>
      </trkpt>
      <trkpt lat="48.75009" lon="6.89316">
        <ele>261.9</ele>
        <time>2021-07-31T08:54:01Z</time>
      </trkpt>
      <trkpt lat="48.75006" lon="6.89323">
        <ele>261.9</ele>
        <time>2021-07-31T08:54:02Z</time>
      </trkpt>
      <trkpt lat="48.75002" lon="6.89337">
        <ele>261.8</ele>
        <time>2021-07-31T08:54:04Z</time>
      </trkpt>
      <trkpt lat="48.74997" lon="6.89351">
        <ele>261.8</ele>
        <time>2021-07-31T08:54:06Z</time>
      </trkpt>
      <trkpt lat="48.74993" lon="6.89364">
        <ele>261.8</ele>
        <time>2021-07-31T08:54:08Z</time>
      </trkpt>
      <trkpt lat="48.74991" lon="6.89371">
        <ele>261.8</ele>
        <time>2021-07-31T08:54:09Z</time>
      </trkpt>
      <trkpt lat="48.74988" lon="6.89378">
        <ele>261.8</ele>
        <time>2021-07-31T08:54:10Z</time>
      </trkpt>
      <trkpt lat="48.74986" lon="6.89385">
        <ele>261.8</ele>
        <time>2021-07-31T08:54:11Z</time>
      </trkpt>
      <trkpt lat="48.74984" lon="6.89391">
        <ele>261.8</ele>
        <time>2021-07-31T08:54:12Z</time>
      </trkpt>
      <trkpt lat="48.74981" lon="6.89398">
        <ele>261.8</ele>
        <time>2021-07-31T08:54:13Z</time>
      </trkpt>
      <trkpt lat="48.74977" lon="6.89411">
        <ele>261.8</ele>
        <time>2021-07-31T08:54:15Z</time>
      </trkpt>
      <trkpt lat="48.74976" lon="6.89417">
        <ele>261.9</ele>
        <time>2021-07-31T08:54:16Z</time>
      </trkpt>
      <trkpt lat="48.74974" lon="6.89423">
        <ele>261.9</ele>
        <time>2021-07-31T08:54:17Z</time>
      </trkpt>
      <trkpt lat="48.7497" lon="6.89435">
        <ele>261.9</ele>
        <time>2021-07-31T08:54:19Z</time>
      </trkpt>
      <trkpt lat="48.74967" lon="6.89447">
        <ele>262</ele>
        <time>2021-07-31T08:54:21Z</time>
      </trkpt>
      <trkpt lat="48.74963" lon="6.89458">
        <ele>262.2</ele>
        <time>2021-07-31T08:54:23Z</time>
      </trkpt>
      <trkpt lat="48.74959" lon="6.89469">
        <ele>262.3</ele>
        <time>2021-07-31T08:54:25Z</time>
      </trkpt>
      <trkpt lat="48.74957" lon="6.89474">
        <ele>262.3</ele>
        <time>2021-07-31T08:54:26Z</time>
      </trkpt>
      <trkpt lat="48.74952" lon="6.89485">
        <ele>262.4</ele>
        <time>2021-07-31T08:54:28Z</time>
      </trkpt>
      <trkpt lat="48.74949" lon="6.89499">
        <ele>262.8</ele>
        <time>2021-07-31T08:54:29Z</time>
      </trkpt>
      <trkpt lat="48.74947" lon="6.89501">
        <ele>262.9</ele>
        <time>2021-07-31T08:54:31Z</time>
      </trkpt>
      <trkpt lat="48.74947" lon="6.89504">
        <ele>263</ele>
        <time>2021-07-31T08:54:32Z</time>
      </trkpt>
      <trkpt lat="48.74947" lon="6.89505">
        <ele>263</ele>
        <time>2021-07-31T08:54:33Z</time>
      </trkpt>
      <trkpt lat="48.7495" lon="6.89504">
        <ele>263.2</ele>
        <time>2021-07-31T08:54:35Z</time>
      </trkpt>
      <trkpt lat="48.74954" lon="6.89504">
        <ele>263.4</ele>
        <time>2021-07-31T08:54:36Z</time>
      </trkpt>
      <trkpt lat="48.74958" lon="6.89504">
        <ele>263.6</ele>
        <time>2021-07-31T08:54:38Z</time>
      </trkpt>
      <trkpt lat="48.74961" lon="6.89505">
        <ele>263.7</ele>
        <time>2021-07-31T08:54:39Z</time>
      </trkpt>
      <trkpt lat="48.74962" lon="6.89505">
        <ele>263.8</ele>
        <time>2021-07-31T08:54:40Z</time>
      </trkpt>
      <trkpt lat="48.74965" lon="6.89508">
        <ele>264</ele>
        <time>2021-07-31T08:54:41Z</time>
      </trkpt>
      <trkpt lat="48.74968" lon="6.89512">
        <ele>264.1</ele>
        <time>2021-07-31T08:54:43Z</time>
      </trkpt>
      <trkpt lat="48.74971" lon="6.89515">
        <ele>264.3</ele>
        <time>2021-07-31T08:54:44Z</time>
      </trkpt>
      <trkpt lat="48.74974" lon="6.89518">
        <ele>264.4</ele>
        <time>2021-07-31T08:54:45Z</time>
      </trkpt>
      <trkpt lat="48.74975" lon="6.89519">
        <ele>264.5</ele>
        <time>2021-07-31T08:54:46Z</time>
      </trkpt>
      <trkpt lat="48.74978" lon="6.89523">
        <ele>264.6</ele>
        <time>2021-07-31T08:54:47Z</time>
      </trkpt>
      <trkpt lat="48.74981" lon="6.89527">
        <ele>264.8</ele>
        <time>2021-07-31T08:54:48Z</time>
      </trkpt>
      <trkpt lat="48.74984" lon="6.89531">
        <ele>265</ele>
        <time>2021-07-31T08:54:50Z</time>
      </trkpt>
      <trkpt lat="48.74986" lon="6.89532">
        <ele>265.1</ele>
        <time>2021-07-31T08:54:51Z</time>
      </trkpt>
      <trkpt lat="48.7499" lon="6.89537">
        <ele>265.4</ele>
        <time>2021-07-31T08:54:53Z</time>
      </trkpt>
      <trkpt lat="48.74991" lon="6.89539">
        <ele>265.5</ele>
        <time>2021-07-31T08:54:54Z</time>
      </trkpt>
      <trkpt lat="48.74992" lon="6.89541">
        <ele>265.6</ele>
        <time>2021-07-31T08:54:55Z</time>
      </trkpt>
      <trkpt lat="48.74994" lon="6.89545">
        <ele>265.8</ele>
        <time>2021-07-31T08:54:56Z</time>
      </trkpt>
      <trkpt lat="48.74995" lon="6.89551">
        <ele>266</ele>
        <time>2021-07-31T08:54:57Z</time>
      </trkpt>
      <trkpt lat="48.74996" lon="6.89556">
        <ele>266.1</ele>
        <time>2021-07-31T08:54:59Z</time>
      </trkpt>
      <trkpt lat="48.74996" lon="6.89561">
        <ele>266.3</ele>
        <time>2021-07-31T08:55:00Z</time>
      </trkpt>
      <trkpt lat="48.74997" lon="6.89564">
        <ele>266.5</ele>
        <time>2021-07-31T08:55:01Z</time>
      </trkpt>
      <trkpt lat="48.74999" lon="6.89568">
        <ele>266.6</ele>
        <time>2021-07-31T08:55:02Z</time>
      </trkpt>
      <trkpt lat="48.75" lon="6.89575">
        <ele>266.8</ele>
        <time>2021-07-31T08:55:03Z</time>
      </trkpt>
      <trkpt lat="48.75001" lon="6.89578">
        <ele>267</ele>
        <time>2021-07-31T08:55:04Z</time>
      </trkpt>
      <trkpt lat="48.75002" lon="6.89583">
        <ele>267.1</ele>
        <time>2021-07-31T08:55:05Z</time>
      </trkpt>
      <trkpt lat="48.75002" lon="6.89587">
        <ele>267.2</ele>
        <time>2021-07-31T08:55:07Z</time>
      </trkpt>
      <trkpt lat="48.75003" lon="6.89591">
        <ele>267.4</ele>
        <time>2021-07-31T08:55:08Z</time>
      </trkpt>
      <trkpt lat="48.75003" lon="6.89595">
        <ele>267.5</ele>
        <time>2021-07-31T08:55:09Z</time>
      </trkpt>
      <trkpt lat="48.75003" lon="6.896">
        <ele>267.7</ele>
        <time>2021-07-31T08:55:10Z</time>
      </trkpt>
      <trkpt lat="48.75003" lon="6.89604">
        <ele>267.8</ele>
        <time>2021-07-31T08:55:11Z</time>
      </trkpt>
      <trkpt lat="48.75002" lon="6.8961">
        <ele>267.9</ele>
        <time>2021-07-31T08:55:12Z</time>
      </trkpt>
      <trkpt lat="48.75002" lon="6.89612">
        <ele>268</ele>
        <time>2021-07-31T08:55:13Z</time>
      </trkpt>
      <trkpt lat="48.75002" lon="6.89617">
        <ele>268.2</ele>
        <time>2021-07-31T08:55:14Z</time>
      </trkpt>
      <trkpt lat="48.75002" lon="6.89622">
        <ele>268.3</ele>
        <time>2021-07-31T08:55:15Z</time>
      </trkpt>
      <trkpt lat="48.75002" lon="6.89627">
        <ele>268.4</ele>
        <time>2021-07-31T08:55:16Z</time>
      </trkpt>
      <trkpt lat="48.75003" lon="6.89633">
        <ele>268.5</ele>
        <time>2021-07-31T08:55:17Z</time>
      </trkpt>
      <trkpt lat="48.75004" lon="6.89636">
        <ele>268.6</ele>
        <time>2021-07-31T08:55:18Z</time>
      </trkpt>
      <trkpt lat="48.75005" lon="6.89641">
        <ele>268.7</ele>
        <time>2021-07-31T08:55:20Z</time>
      </trkpt>
      <trkpt lat="48.75006" lon="6.89645">
        <ele>268.7</ele>
        <time>2021-07-31T08:55:21Z</time>
      </trkpt>
      <trkpt lat="48.75007" lon="6.8965">
        <ele>268.8</ele>
        <time>2021-07-31T08:55:22Z</time>
      </trkpt>
      <trkpt lat="48.75007" lon="6.89651">
        <ele>268.8</ele>
        <time>2021-07-31T08:55:23Z</time>
      </trkpt>
      <trkpt lat="48.75008" lon="6.89656">
        <ele>268.9</ele>
        <time>2021-07-31T08:55:24Z</time>
      </trkpt>
      <trkpt lat="48.75008" lon="6.89661">
        <ele>269</ele>
        <time>2021-07-31T08:55:25Z</time>
      </trkpt>
      <trkpt lat="48.75008" lon="6.89667">
        <ele>269.1</ele>
        <time>2021-07-31T08:55:26Z</time>
      </trkpt>
      <trkpt lat="48.75009" lon="6.89672">
        <ele>269.2</ele>
        <time>2021-07-31T08:55:27Z</time>
      </trkpt>
      <trkpt lat="48.75009" lon="6.89677">
        <ele>269.2</ele>
        <time>2021-07-31T08:55:29Z</time>
      </trkpt>
      <trkpt lat="48.7501" lon="6.89682">
        <ele>269.3</ele>
        <time>2021-07-31T08:55:30Z</time>
      </trkpt>
      <trkpt lat="48.75011" lon="6.89686">
        <ele>269.3</ele>
        <time>2021-07-31T08:55:31Z</time>
      </trkpt>
      <trkpt lat="48.75011" lon="6.89688">
        <ele>269.4</ele>
        <time>2021-07-31T08:55:32Z</time>
      </trkpt>
      <trkpt lat="48.75011" lon="6.89693">
        <ele>269.4</ele>
        <time>2021-07-31T08:55:33Z</time>
      </trkpt>
      <trkpt lat="48.7501" lon="6.89695">
        <ele>269.5</ele>
        <time>2021-07-31T08:55:34Z</time>
      </trkpt>
      <trkpt lat="48.75008" lon="6.89701">
        <ele>269.5</ele>
        <time>2021-07-31T08:55:36Z</time>
      </trkpt>
      <trkpt lat="48.75008" lon="6.89706">
        <ele>269.5</ele>
        <time>2021-07-31T08:55:37Z</time>
      </trkpt>
      <trkpt lat="48.75008" lon="6.89708">
        <ele>269.5</ele>
        <time>2021-07-31T08:55:38Z</time>
      </trkpt>
      <trkpt lat="48.75008" lon="6.89713">
        <ele>269.5</ele>
        <time>2021-07-31T08:55:39Z</time>
      </trkpt>
      <trkpt lat="48.75008" lon="6.89715">
        <ele>269.5</ele>
        <time>2021-07-31T08:55:40Z</time>
      </trkpt>
      <trkpt lat="48.75008" lon="6.89717">
        <ele>269.5</ele>
        <time>2021-07-31T08:55:41Z</time>
      </trkpt>
      <trkpt lat="48.75008" lon="6.89718">
        <ele>269.6</ele>
        <time>2021-07-31T08:55:43Z</time>
      </trkpt>
      <trkpt lat="48.75009" lon="6.89757">
        <ele>269.7</ele>
        <time>2021-07-31T08:55:47Z</time>
      </trkpt>
      <trkpt lat="48.7501" lon="6.89763">
        <ele>269.7</ele>
        <time>2021-07-31T08:55:48Z</time>
      </trkpt>
      <trkpt lat="48.75013" lon="6.89772">
        <ele>269.7</ele>
        <time>2021-07-31T08:55:50Z</time>
      </trkpt>
      <trkpt lat="48.75016" lon="6.89778">
        <ele>269.6</ele>
        <time>2021-07-31T08:55:51Z</time>
      </trkpt>
      <trkpt lat="48.75018" lon="6.89783">
        <ele>269.5</ele>
        <time>2021-07-31T08:55:52Z</time>
      </trkpt>
      <trkpt lat="48.75021" lon="6.89787">
        <ele>269.4</ele>
        <time>2021-07-31T08:55:53Z</time>
      </trkpt>
      <trkpt lat="48.75023" lon="6.8979">
        <ele>269.3</ele>
        <time>2021-07-31T08:55:54Z</time>
      </trkpt>
      <trkpt lat="48.75024" lon="6.89795">
        <ele>269.4</ele>
        <time>2021-07-31T08:55:55Z</time>
      </trkpt>
      <trkpt lat="48.75026" lon="6.89798">
        <ele>269.3</ele>
        <time>2021-07-31T08:55:57Z</time>
      </trkpt>
      <trkpt lat="48.75027" lon="6.89802">
        <ele>269.3</ele>
        <time>2021-07-31T08:55:58Z</time>
      </trkpt>
      <trkpt lat="48.7503" lon="6.89807">
        <ele>269.2</ele>
        <time>2021-07-31T08:55:59Z</time>
      </trkpt>
      <trkpt lat="48.75032" lon="6.89811">
        <ele>269.2</ele>
        <time>2021-07-31T08:56:00Z</time>
      </trkpt>
      <trkpt lat="48.75035" lon="6.89812">
        <ele>269.1</ele>
        <time>2021-07-31T08:56:01Z</time>
      </trkpt>
      <trkpt lat="48.75036" lon="6.89811">
        <ele>269.1</ele>
        <time>2021-07-31T08:56:02Z</time>
      </trkpt>
      <trkpt lat="48.75038" lon="6.8981">
        <ele>269</ele>
        <time>2021-07-31T08:56:03Z</time>
      </trkpt>
      <trkpt lat="48.7504" lon="6.89811">
        <ele>268.9</ele>
        <time>2021-07-31T08:56:05Z</time>
      </trkpt>
      <trkpt lat="48.75043" lon="6.89818">
        <ele>268.9</ele>
        <time>2021-07-31T08:56:06Z</time>
      </trkpt>
      <trkpt lat="48.75045" lon="6.89825">
        <ele>268.9</ele>
        <time>2021-07-31T08:56:07Z</time>
      </trkpt>
      <trkpt lat="48.75048" lon="6.89837">
        <ele>269.1</ele>
        <time>2021-07-31T08:56:08Z</time>
      </trkpt>
      <trkpt lat="48.7505" lon="6.89844">
        <ele>269.2</ele>
        <time>2021-07-31T08:56:09Z</time>
      </trkpt>
      <trkpt lat="48.75052" lon="6.89852">
        <ele>269.2</ele>
        <time>2021-07-31T08:56:11Z</time>
      </trkpt>
      <trkpt lat="48.75055" lon="6.8986">
        <ele>269.1</ele>
        <time>2021-07-31T08:56:12Z</time>
      </trkpt>
      <trkpt lat="48.75057" lon="6.89867">
        <ele>269</ele>
        <time>2021-07-31T08:56:14Z</time>
      </trkpt>
      <trkpt lat="48.75061" lon="6.89878">
        <ele>268.9</ele>
        <time>2021-07-31T08:56:16Z</time>
      </trkpt>
      <trkpt lat="48.75063" lon="6.89882">
        <ele>268.7</ele>
        <time>2021-07-31T08:56:17Z</time>
      </trkpt>
      <trkpt lat="48.75065" lon="6.89885">
        <ele>268.6</ele>
        <time>2021-07-31T08:56:18Z</time>
      </trkpt>
      <trkpt lat="48.75067" lon="6.89888">
        <ele>268.4</ele>
        <time>2021-07-31T08:56:19Z</time>
      </trkpt>
      <trkpt lat="48.75068" lon="6.89889">
        <ele>268.4</ele>
        <time>2021-07-31T08:56:20Z</time>
      </trkpt>
      <trkpt lat="48.7507" lon="6.89891">
        <ele>268.1</ele>
        <time>2021-07-31T08:56:21Z</time>
      </trkpt>
      <trkpt lat="48.75073" lon="6.89895">
        <ele>267.9</ele>
        <time>2021-07-31T08:56:23Z</time>
      </trkpt>
      <trkpt lat="48.75074" lon="6.89897">
        <ele>267.9</ele>
        <time>2021-07-31T08:56:24Z</time>
      </trkpt>
      <trkpt lat="48.75076" lon="6.89902">
        <ele>267.8</ele>
        <time>2021-07-31T08:56:25Z</time>
      </trkpt>
      <trkpt lat="48.75076" lon="6.89904">
        <ele>267.5</ele>
        <time>2021-07-31T08:56:26Z</time>
      </trkpt>
      <trkpt lat="48.75078" lon="6.89907">
        <ele>267.5</ele>
        <time>2021-07-31T08:56:27Z</time>
      </trkpt>
      <trkpt lat="48.75079" lon="6.89911">
        <ele>267.2</ele>
        <time>2021-07-31T08:56:28Z</time>
      </trkpt>
      <trkpt lat="48.7508" lon="6.89914">
        <ele>267.2</ele>
        <time>2021-07-31T08:56:29Z</time>
      </trkpt>
      <trkpt lat="48.75082" lon="6.89921">
        <ele>266.9</ele>
        <time>2021-07-31T08:56:31Z</time>
      </trkpt>
      <trkpt lat="48.75083" lon="6.89925">
        <ele>266.8</ele>
        <time>2021-07-31T08:56:32Z</time>
      </trkpt>
      <trkpt lat="48.75085" lon="6.8993">
        <ele>266.6</ele>
        <time>2021-07-31T08:56:33Z</time>
      </trkpt>
      <trkpt lat="48.75087" lon="6.89933">
        <ele>266.4</ele>
        <time>2021-07-31T08:56:34Z</time>
      </trkpt>
      <trkpt lat="48.75089" lon="6.89936">
        <ele>266.4</ele>
        <time>2021-07-31T08:56:35Z</time>
      </trkpt>
      <trkpt lat="48.75091" lon="6.89944">
        <ele>266.1</ele>
        <time>2021-07-31T08:56:36Z</time>
      </trkpt>
      <trkpt lat="48.75093" lon="6.8995">
        <ele>266</ele>
        <time>2021-07-31T08:56:38Z</time>
      </trkpt>
      <trkpt lat="48.75093" lon="6.89956">
        <ele>265.8</ele>
        <time>2021-07-31T08:56:39Z</time>
      </trkpt>
      <trkpt lat="48.75094" lon="6.89962">
        <ele>265.8</ele>
        <time>2021-07-31T08:56:40Z</time>
      </trkpt>
      <trkpt lat="48.75095" lon="6.8997">
        <ele>265.7</ele>
        <time>2021-07-31T08:56:41Z</time>
      </trkpt>
      <trkpt lat="48.75096" lon="6.89976">
        <ele>265.5</ele>
        <time>2021-07-31T08:56:42Z</time>
      </trkpt>
      <trkpt lat="48.75098" lon="6.89981">
        <ele>265.5</ele>
        <time>2021-07-31T08:56:43Z</time>
      </trkpt>
      <trkpt lat="48.75099" lon="6.89995">
        <ele>265.3</ele>
        <time>2021-07-31T08:56:45Z</time>
      </trkpt>
      <trkpt lat="48.751" lon="6.90002">
        <ele>265.3</ele>
        <time>2021-07-31T08:56:46Z</time>
      </trkpt>
      <trkpt lat="48.75101" lon="6.90008">
        <ele>265.3</ele>
        <time>2021-07-31T08:56:47Z</time>
      </trkpt>
      <trkpt lat="48.75101" lon="6.9002">
        <ele>265.2</ele>
        <time>2021-07-31T08:56:49Z</time>
      </trkpt>
      <trkpt lat="48.75101" lon="6.90027">
        <ele>265.2</ele>
        <time>2021-07-31T08:56:50Z</time>
      </trkpt>
      <trkpt lat="48.75101" lon="6.90036">
        <ele>265.1</ele>
        <time>2021-07-31T08:56:51Z</time>
      </trkpt>
      <trkpt lat="48.75101" lon="6.90045">
        <ele>265.1</ele>
        <time>2021-07-31T08:56:53Z</time>
      </trkpt>
      <trkpt lat="48.75101" lon="6.90053">
        <ele>265.1</ele>
        <time>2021-07-31T08:56:54Z</time>
      </trkpt>
      <trkpt lat="48.75101" lon="6.90062">
        <ele>265.1</ele>
        <time>2021-07-31T08:56:55Z</time>
      </trkpt>
      <trkpt lat="48.751" lon="6.90076">
        <ele>265.1</ele>
        <time>2021-07-31T08:56:57Z</time>
      </trkpt>
      <trkpt lat="48.751" lon="6.90084">
        <ele>265.1</ele>
        <time>2021-07-31T08:56:58Z</time>
      </trkpt>
      <trkpt lat="48.75099" lon="6.90092">
        <ele>265</ele>
        <time>2021-07-31T08:56:59Z</time>
      </trkpt>
      <trkpt lat="48.75099" lon="6.901">
        <ele>265</ele>
        <time>2021-07-31T08:57:00Z</time>
      </trkpt>
      <trkpt lat="48.75099" lon="6.90107">
        <ele>265</ele>
        <time>2021-07-31T08:57:01Z</time>
      </trkpt>
      <trkpt lat="48.75099" lon="6.90121">
        <ele>264.9</ele>
        <time>2021-07-31T08:57:03Z</time>
      </trkpt>
      <trkpt lat="48.75099" lon="6.90129">
        <ele>264.8</ele>
        <time>2021-07-31T08:57:04Z</time>
      </trkpt>
      <trkpt lat="48.75098" lon="6.90139">
        <ele>264.8</ele>
        <time>2021-07-31T08:57:05Z</time>
      </trkpt>
      <trkpt lat="48.75099" lon="6.90151">
        <ele>264.7</ele>
        <time>2021-07-31T08:57:07Z</time>
      </trkpt>
      <trkpt lat="48.75098" lon="6.90161">
        <ele>264.6</ele>
        <time>2021-07-31T08:57:08Z</time>
      </trkpt>
      <trkpt lat="48.75098" lon="6.90168">
        <ele>264.6</ele>
        <time>2021-07-31T08:57:09Z</time>
      </trkpt>
      <trkpt lat="48.75099" lon="6.90175">
        <ele>264.5</ele>
        <time>2021-07-31T08:57:10Z</time>
      </trkpt>
      <trkpt lat="48.75099" lon="6.90181">
        <ele>264.5</ele>
        <time>2021-07-31T08:57:11Z</time>
      </trkpt>
      <trkpt lat="48.751" lon="6.90195">
        <ele>264.4</ele>
        <time>2021-07-31T08:57:13Z</time>
      </trkpt>
      <trkpt lat="48.751" lon="6.90207">
        <ele>264.4</ele>
        <time>2021-07-31T08:57:14Z</time>
      </trkpt>
      <trkpt lat="48.751" lon="6.90216">
        <ele>264.4</ele>
        <time>2021-07-31T08:57:16Z</time>
      </trkpt>
      <trkpt lat="48.75101" lon="6.90226">
        <ele>264.4</ele>
        <time>2021-07-31T08:57:17Z</time>
      </trkpt>
      <trkpt lat="48.75102" lon="6.90235">
        <ele>264.3</ele>
        <time>2021-07-31T08:57:18Z</time>
      </trkpt>
      <trkpt lat="48.75102" lon="6.90245">
        <ele>264.3</ele>
        <time>2021-07-31T08:57:20Z</time>
      </trkpt>
      <trkpt lat="48.75104" lon="6.90259">
        <ele>264.3</ele>
        <time>2021-07-31T08:57:21Z</time>
      </trkpt>
      <trkpt lat="48.75106" lon="6.90269">
        <ele>264.3</ele>
        <time>2021-07-31T08:57:23Z</time>
      </trkpt>
      <trkpt lat="48.75107" lon="6.90278">
        <ele>264.3</ele>
        <time>2021-07-31T08:57:24Z</time>
      </trkpt>
      <trkpt lat="48.75108" lon="6.90285">
        <ele>264.3</ele>
        <time>2021-07-31T08:57:25Z</time>
      </trkpt>
      <trkpt lat="48.75109" lon="6.9029">
        <ele>264.3</ele>
        <time>2021-07-31T08:57:26Z</time>
      </trkpt>
      <trkpt lat="48.7511" lon="6.90296">
        <ele>264.2</ele>
        <time>2021-07-31T08:57:27Z</time>
      </trkpt>
      <trkpt lat="48.75111" lon="6.90302">
        <ele>264.2</ele>
        <time>2021-07-31T08:57:28Z</time>
      </trkpt>
      <trkpt lat="48.75112" lon="6.90311">
        <ele>264.2</ele>
        <time>2021-07-31T08:57:30Z</time>
      </trkpt>
      <trkpt lat="48.75113" lon="6.90318">
        <ele>264.2</ele>
        <time>2021-07-31T08:57:31Z</time>
      </trkpt>
      <trkpt lat="48.75112" lon="6.90332">
        <ele>264.2</ele>
        <time>2021-07-31T08:57:32Z</time>
      </trkpt>
      <trkpt lat="48.75111" lon="6.90353">
        <ele>264.1</ele>
        <time>2021-07-31T08:57:34Z</time>
      </trkpt>
      <trkpt lat="48.75109" lon="6.90363">
        <ele>264</ele>
        <time>2021-07-31T08:57:35Z</time>
      </trkpt>
      <trkpt lat="48.75108" lon="6.90372">
        <ele>264</ele>
        <time>2021-07-31T08:57:36Z</time>
      </trkpt>
      <trkpt lat="48.75107" lon="6.9038">
        <ele>263.3</ele>
        <time>2021-07-31T08:57:37Z</time>
      </trkpt>
      <trkpt lat="48.75106" lon="6.90398">
        <ele>262.6</ele>
        <time>2021-07-31T08:57:39Z</time>
      </trkpt>
      <trkpt lat="48.75105" lon="6.90405">
        <ele>262.4</ele>
        <time>2021-07-31T08:57:40Z</time>
      </trkpt>
      <trkpt lat="48.75102" lon="6.90415">
        <ele>262</ele>
        <time>2021-07-31T08:57:42Z</time>
      </trkpt>
      <trkpt lat="48.75099" lon="6.90426">
        <ele>261.7</ele>
        <time>2021-07-31T08:57:43Z</time>
      </trkpt>
      <trkpt lat="48.75096" lon="6.90434">
        <ele>261.5</ele>
        <time>2021-07-31T08:57:44Z</time>
      </trkpt>
      <trkpt lat="48.75091" lon="6.90451">
        <ele>261.2</ele>
        <time>2021-07-31T08:57:46Z</time>
      </trkpt>
      <trkpt lat="48.75084" lon="6.9047">
        <ele>261</ele>
        <time>2021-07-31T08:57:48Z</time>
      </trkpt>
      <trkpt lat="48.75082" lon="6.90476">
        <ele>260.8</ele>
        <time>2021-07-31T08:57:49Z</time>
      </trkpt>
      <trkpt lat="48.75076" lon="6.9049">
        <ele>260.6</ele>
        <time>2021-07-31T08:57:51Z</time>
      </trkpt>
      <trkpt lat="48.75072" lon="6.90498">
        <ele>260.5</ele>
        <time>2021-07-31T08:57:52Z</time>
      </trkpt>
      <trkpt lat="48.75069" lon="6.90505">
        <ele>260.4</ele>
        <time>2021-07-31T08:57:53Z</time>
      </trkpt>
      <trkpt lat="48.75067" lon="6.90513">
        <ele>260.3</ele>
        <time>2021-07-31T08:57:54Z</time>
      </trkpt>
      <trkpt lat="48.75062" lon="6.90528">
        <ele>260.2</ele>
        <time>2021-07-31T08:57:56Z</time>
      </trkpt>
      <trkpt lat="48.75058" lon="6.90536">
        <ele>260.1</ele>
        <time>2021-07-31T08:57:57Z</time>
      </trkpt>
      <trkpt lat="48.75054" lon="6.90546">
        <ele>260.1</ele>
        <time>2021-07-31T08:57:59Z</time>
      </trkpt>
      <trkpt lat="48.75048" lon="6.90555">
        <ele>260</ele>
        <time>2021-07-31T08:58:00Z</time>
      </trkpt>
      <trkpt lat="48.75044" lon="6.90562">
        <ele>259.9</ele>
        <time>2021-07-31T08:58:01Z</time>
      </trkpt>
      <trkpt lat="48.7504" lon="6.90569">
        <ele>259.9</ele>
        <time>2021-07-31T08:58:02Z</time>
      </trkpt>
      <trkpt lat="48.75036" lon="6.9058">
        <ele>259.9</ele>
        <time>2021-07-31T08:58:04Z</time>
      </trkpt>
      <trkpt lat="48.75036" lon="6.90585">
        <ele>260</ele>
        <time>2021-07-31T08:58:05Z</time>
      </trkpt>
      <trkpt lat="48.75035" lon="6.90588">
        <ele>260</ele>
        <time>2021-07-31T08:58:06Z</time>
      </trkpt>
      <trkpt lat="48.75031" lon="6.90595">
        <ele>260</ele>
        <time>2021-07-31T08:58:07Z</time>
      </trkpt>
      <trkpt lat="48.75025" lon="6.90606">
        <ele>260.1</ele>
        <time>2021-07-31T08:58:09Z</time>
      </trkpt>
      <trkpt lat="48.75022" lon="6.90611">
        <ele>260.2</ele>
        <time>2021-07-31T08:58:10Z</time>
      </trkpt>
      <trkpt lat="48.75017" lon="6.90618">
        <ele>260.2</ele>
        <time>2021-07-31T08:58:11Z</time>
      </trkpt>
      <trkpt lat="48.75014" lon="6.90624">
        <ele>260.3</ele>
        <time>2021-07-31T08:58:12Z</time>
      </trkpt>
      <trkpt lat="48.75011" lon="6.90629">
        <ele>260.3</ele>
        <time>2021-07-31T08:58:13Z</time>
      </trkpt>
      <trkpt lat="48.75009" lon="6.90634">
        <ele>260.4</ele>
        <time>2021-07-31T08:58:15Z</time>
      </trkpt>
      <trkpt lat="48.75007" lon="6.90638">
        <ele>260.4</ele>
        <time>2021-07-31T08:58:16Z</time>
      </trkpt>
      <trkpt lat="48.75005" lon="6.90642">
        <ele>260.4</ele>
        <time>2021-07-31T08:58:17Z</time>
      </trkpt>
      <trkpt lat="48.75003" lon="6.90646">
        <ele>260.4</ele>
        <time>2021-07-31T08:58:18Z</time>
      </trkpt>
      <trkpt lat="48.74999" lon="6.90656">
        <ele>260.5</ele>
        <time>2021-07-31T08:58:20Z</time>
      </trkpt>
      <trkpt lat="48.74996" lon="6.90661">
        <ele>260.7</ele>
        <time>2021-07-31T08:58:21Z</time>
      </trkpt>
      <trkpt lat="48.74992" lon="6.90665">
        <ele>260.9</ele>
        <time>2021-07-31T08:58:22Z</time>
      </trkpt>
      <trkpt lat="48.74986" lon="6.90671">
        <ele>261.2</ele>
        <time>2021-07-31T08:58:24Z</time>
      </trkpt>
      <trkpt lat="48.7498" lon="6.90675">
        <ele>261.5</ele>
        <time>2021-07-31T08:58:26Z</time>
      </trkpt>
      <trkpt lat="48.74977" lon="6.90677">
        <ele>261.7</ele>
        <time>2021-07-31T08:58:27Z</time>
      </trkpt>
      <trkpt lat="48.74973" lon="6.90681">
        <ele>262</ele>
        <time>2021-07-31T08:58:28Z</time>
      </trkpt>
      <trkpt lat="48.74971" lon="6.90684">
        <ele>262.2</ele>
        <time>2021-07-31T08:58:29Z</time>
      </trkpt>
      <trkpt lat="48.74967" lon="6.90688">
        <ele>262.4</ele>
        <time>2021-07-31T08:58:31Z</time>
      </trkpt>
      <trkpt lat="48.74964" lon="6.90691">
        <ele>262.6</ele>
        <time>2021-07-31T08:58:32Z</time>
      </trkpt>
      <trkpt lat="48.74962" lon="6.90694">
        <ele>262.8</ele>
        <time>2021-07-31T08:58:33Z</time>
      </trkpt>
      <trkpt lat="48.74959" lon="6.90697">
        <ele>263</ele>
        <time>2021-07-31T08:58:35Z</time>
      </trkpt>
      <trkpt lat="48.74959" lon="6.90698">
        <ele>263.1</ele>
        <time>2021-07-31T08:58:36Z</time>
      </trkpt>
      <trkpt lat="48.74957" lon="6.90705">
        <ele>263.3</ele>
        <time>2021-07-31T08:58:37Z</time>
      </trkpt>
      <trkpt lat="48.74956" lon="6.90708">
        <ele>263.5</ele>
        <time>2021-07-31T08:58:38Z</time>
      </trkpt>
      <trkpt lat="48.74953" lon="6.90714">
        <ele>263.7</ele>
        <time>2021-07-31T08:58:40Z</time>
      </trkpt>
      <trkpt lat="48.74951" lon="6.90717">
        <ele>263.8</ele>
        <time>2021-07-31T08:58:41Z</time>
      </trkpt>
      <trkpt lat="48.74949" lon="6.90722">
        <ele>264</ele>
        <time>2021-07-31T08:58:42Z</time>
      </trkpt>
      <trkpt lat="48.74948" lon="6.90723">
        <ele>264.1</ele>
        <time>2021-07-31T08:58:43Z</time>
      </trkpt>
      <trkpt lat="48.74946" lon="6.90725">
        <ele>264.2</ele>
        <time>2021-07-31T08:58:44Z</time>
      </trkpt>
      <trkpt lat="48.74943" lon="6.90727">
        <ele>264.3</ele>
        <time>2021-07-31T08:58:46Z</time>
      </trkpt>
      <trkpt lat="48.74941" lon="6.90729">
        <ele>264.4</ele>
        <time>2021-07-31T08:58:47Z</time>
      </trkpt>
      <trkpt lat="48.74938" lon="6.90731">
        <ele>264.5</ele>
        <time>2021-07-31T08:58:49Z</time>
      </trkpt>
      <trkpt lat="48.74936" lon="6.90733">
        <ele>264.6</ele>
        <time>2021-07-31T08:58:50Z</time>
      </trkpt>
      <trkpt lat="48.74933" lon="6.90736">
        <ele>264.8</ele>
        <time>2021-07-31T08:58:51Z</time>
      </trkpt>
      <trkpt lat="48.74931" lon="6.90739">
        <ele>264.8</ele>
        <time>2021-07-31T08:58:52Z</time>
      </trkpt>
      <trkpt lat="48.74929" lon="6.90742">
        <ele>264.9</ele>
        <time>2021-07-31T08:58:53Z</time>
      </trkpt>
      <trkpt lat="48.74925" lon="6.90746">
        <ele>265.1</ele>
        <time>2021-07-31T08:58:55Z</time>
      </trkpt>
      <trkpt lat="48.74923" lon="6.90749">
        <ele>265.1</ele>
        <time>2021-07-31T08:58:56Z</time>
      </trkpt>
      <trkpt lat="48.7492" lon="6.90753">
        <ele>265.3</ele>
        <time>2021-07-31T08:58:57Z</time>
      </trkpt>
      <trkpt lat="48.74919" lon="6.90755">
        <ele>265.3</ele>
        <time>2021-07-31T08:58:58Z</time>
      </trkpt>
      <trkpt lat="48.74917" lon="6.90758">
        <ele>265.4</ele>
        <time>2021-07-31T08:58:59Z</time>
      </trkpt>
      <trkpt lat="48.74915" lon="6.90761">
        <ele>265.4</ele>
        <time>2021-07-31T08:59:01Z</time>
      </trkpt>
      <trkpt lat="48.74913" lon="6.90763">
        <ele>265.5</ele>
        <time>2021-07-31T08:59:02Z</time>
      </trkpt>
      <trkpt lat="48.7491" lon="6.90768">
        <ele>265.5</ele>
        <time>2021-07-31T08:59:04Z</time>
      </trkpt>
      <trkpt lat="48.74907" lon="6.90773">
        <ele>265.6</ele>
        <time>2021-07-31T08:59:05Z</time>
      </trkpt>
      <trkpt lat="48.74906" lon="6.90776">
        <ele>265.6</ele>
        <time>2021-07-31T08:59:06Z</time>
      </trkpt>
      <trkpt lat="48.74902" lon="6.90783">
        <ele>265.7</ele>
        <time>2021-07-31T08:59:08Z</time>
      </trkpt>
      <trkpt lat="48.74898" lon="6.90787">
        <ele>265.7</ele>
        <time>2021-07-31T08:59:09Z</time>
      </trkpt>
      <trkpt lat="48.74892" lon="6.90792">
        <ele>265.7</ele>
        <time>2021-07-31T08:59:11Z</time>
      </trkpt>
      <trkpt lat="48.74888" lon="6.90796">
        <ele>265.7</ele>
        <time>2021-07-31T08:59:12Z</time>
      </trkpt>
      <trkpt lat="48.74882" lon="6.90804">
        <ele>265.7</ele>
        <time>2021-07-31T08:59:14Z</time>
      </trkpt>
      <trkpt lat="48.74878" lon="6.90809">
        <ele>265.7</ele>
        <time>2021-07-31T08:59:15Z</time>
      </trkpt>
      <trkpt lat="48.74875" lon="6.90813">
        <ele>265.7</ele>
        <time>2021-07-31T08:59:16Z</time>
      </trkpt>
      <trkpt lat="48.74871" lon="6.90815">
        <ele>265.7</ele>
        <time>2021-07-31T08:59:17Z</time>
      </trkpt>
      <trkpt lat="48.74866" lon="6.90819">
        <ele>265.6</ele>
        <time>2021-07-31T08:59:18Z</time>
      </trkpt>
      <trkpt lat="48.74862" lon="6.90824">
        <ele>265.5</ele>
        <time>2021-07-31T08:59:20Z</time>
      </trkpt>
      <trkpt lat="48.74859" lon="6.90827">
        <ele>265.5</ele>
        <time>2021-07-31T08:59:21Z</time>
      </trkpt>
      <trkpt lat="48.74856" lon="6.90831">
        <ele>265.4</ele>
        <time>2021-07-31T08:59:22Z</time>
      </trkpt>
      <trkpt lat="48.74847" lon="6.90841">
        <ele>265.4</ele>
        <time>2021-07-31T08:59:24Z</time>
      </trkpt>
      <trkpt lat="48.74843" lon="6.90845">
        <ele>265.4</ele>
        <time>2021-07-31T08:59:26Z</time>
      </trkpt>
      <trkpt lat="48.74841" lon="6.90848">
        <ele>265.4</ele>
        <time>2021-07-31T08:59:27Z</time>
      </trkpt>
      <trkpt lat="48.74837" lon="6.90853">
        <ele>265.5</ele>
        <time>2021-07-31T08:59:28Z</time>
      </trkpt>
      <trkpt lat="48.74834" lon="6.90857">
        <ele>265.6</ele>
        <time>2021-07-31T08:59:29Z</time>
      </trkpt>
      <trkpt lat="48.7483" lon="6.90863">
        <ele>265.7</ele>
        <time>2021-07-31T08:59:30Z</time>
      </trkpt>
      <trkpt lat="48.74828" lon="6.90868">
        <ele>265.8</ele>
        <time>2021-07-31T08:59:31Z</time>
      </trkpt>
      <trkpt lat="48.74826" lon="6.90873">
        <ele>265.9</ele>
        <time>2021-07-31T08:59:32Z</time>
      </trkpt>
      <trkpt lat="48.74825" lon="6.90878">
        <ele>266</ele>
        <time>2021-07-31T08:59:33Z</time>
      </trkpt>
      <trkpt lat="48.74822" lon="6.90885">
        <ele>266.2</ele>
        <time>2021-07-31T08:59:35Z</time>
      </trkpt>
      <trkpt lat="48.74819" lon="6.90893">
        <ele>266.4</ele>
        <time>2021-07-31T08:59:36Z</time>
      </trkpt>
      <trkpt lat="48.74817" lon="6.90897">
        <ele>266.5</ele>
        <time>2021-07-31T08:59:38Z</time>
      </trkpt>
      <trkpt lat="48.74814" lon="6.90901">
        <ele>266.6</ele>
        <time>2021-07-31T08:59:39Z</time>
      </trkpt>
      <trkpt lat="48.74812" lon="6.90905">
        <ele>266.7</ele>
        <time>2021-07-31T08:59:40Z</time>
      </trkpt>
      <trkpt lat="48.7481" lon="6.9091">
        <ele>266.8</ele>
        <time>2021-07-31T08:59:41Z</time>
      </trkpt>
      <trkpt lat="48.74808" lon="6.90915">
        <ele>266.9</ele>
        <time>2021-07-31T08:59:42Z</time>
      </trkpt>
      <trkpt lat="48.74807" lon="6.9092">
        <ele>267</ele>
        <time>2021-07-31T08:59:43Z</time>
      </trkpt>
      <trkpt lat="48.74806" lon="6.90929">
        <ele>267.1</ele>
        <time>2021-07-31T08:59:44Z</time>
      </trkpt>
      <trkpt lat="48.74804" lon="6.90938">
        <ele>267.3</ele>
        <time>2021-07-31T08:59:46Z</time>
      </trkpt>
      <trkpt lat="48.74801" lon="6.90944">
        <ele>267.5</ele>
        <time>2021-07-31T08:59:47Z</time>
      </trkpt>
      <trkpt lat="48.74799" lon="6.90947">
        <ele>267.6</ele>
        <time>2021-07-31T08:59:48Z</time>
      </trkpt>
      <trkpt lat="48.74796" lon="6.9095">
        <ele>267.7</ele>
        <time>2021-07-31T08:59:50Z</time>
      </trkpt>
      <trkpt lat="48.74792" lon="6.90952">
        <ele>267.9</ele>
        <time>2021-07-31T08:59:51Z</time>
      </trkpt>
      <trkpt lat="48.74788" lon="6.90953">
        <ele>268</ele>
        <time>2021-07-31T08:59:52Z</time>
      </trkpt>
      <trkpt lat="48.74783" lon="6.90955">
        <ele>268.2</ele>
        <time>2021-07-31T08:59:54Z</time>
      </trkpt>
      <trkpt lat="48.7478" lon="6.90956">
        <ele>268.3</ele>
        <time>2021-07-31T08:59:55Z</time>
      </trkpt>
      <trkpt lat="48.74775" lon="6.9096">
        <ele>268.6</ele>
        <time>2021-07-31T08:59:57Z</time>
      </trkpt>
      <trkpt lat="48.74772" lon="6.90961">
        <ele>268.7</ele>
        <time>2021-07-31T08:59:58Z</time>
      </trkpt>
      <trkpt lat="48.74768" lon="6.90961">
        <ele>268.8</ele>
        <time>2021-07-31T08:59:59Z</time>
      </trkpt>
      <trkpt lat="48.74764" lon="6.90962">
        <ele>268.9</ele>
        <time>2021-07-31T09:00:00Z</time>
      </trkpt>
      <trkpt lat="48.74761" lon="6.90964">
        <ele>269</ele>
        <time>2021-07-31T09:00:01Z</time>
      </trkpt>
      <trkpt lat="48.74758" lon="6.90966">
        <ele>269.1</ele>
        <time>2021-07-31T09:00:02Z</time>
      </trkpt>
      <trkpt lat="48.74755" lon="6.90966">
        <ele>269.1</ele>
        <time>2021-07-31T09:00:03Z</time>
      </trkpt>
      <trkpt lat="48.74753" lon="6.90967">
        <ele>269.2</ele>
        <time>2021-07-31T09:00:05Z</time>
      </trkpt>
      <trkpt lat="48.74751" lon="6.90969">
        <ele>269.3</ele>
        <time>2021-07-31T09:00:06Z</time>
      </trkpt>
      <trkpt lat="48.74747" lon="6.9097">
        <ele>269.4</ele>
        <time>2021-07-31T09:00:07Z</time>
      </trkpt>
      <trkpt lat="48.74744" lon="6.90971">
        <ele>269.4</ele>
        <time>2021-07-31T09:00:08Z</time>
      </trkpt>
      <trkpt lat="48.74741" lon="6.90974">
        <ele>269.5</ele>
        <time>2021-07-31T09:00:09Z</time>
      </trkpt>
      <trkpt lat="48.7474" lon="6.90974">
        <ele>269.5</ele>
        <time>2021-07-31T09:00:10Z</time>
      </trkpt>
      <trkpt lat="48.74736" lon="6.90976">
        <ele>269.6</ele>
        <time>2021-07-31T09:00:11Z</time>
      </trkpt>
      <trkpt lat="48.74735" lon="6.90977">
        <ele>269.6</ele>
        <time>2021-07-31T09:00:12Z</time>
      </trkpt>
      <trkpt lat="48.74732" lon="6.9098">
        <ele>269.7</ele>
        <time>2021-07-31T09:00:13Z</time>
      </trkpt>
      <trkpt lat="48.74732" lon="6.90981">
        <ele>269.7</ele>
        <time>2021-07-31T09:00:14Z</time>
      </trkpt>
      <trkpt lat="48.7473" lon="6.90986">
        <ele>269.7</ele>
        <time>2021-07-31T09:00:16Z</time>
      </trkpt>
      <trkpt lat="48.74728" lon="6.90988">
        <ele>269.7</ele>
        <time>2021-07-31T09:00:17Z</time>
      </trkpt>
      <trkpt lat="48.74724" lon="6.90992">
        <ele>269.7</ele>
        <time>2021-07-31T09:00:19Z</time>
      </trkpt>
      <trkpt lat="48.74722" lon="6.90995">
        <ele>269.8</ele>
        <time>2021-07-31T09:00:20Z</time>
      </trkpt>
      <trkpt lat="48.74719" lon="6.91">
        <ele>269.8</ele>
        <time>2021-07-31T09:00:22Z</time>
      </trkpt>
      <trkpt lat="48.74716" lon="6.91004">
        <ele>269.8</ele>
        <time>2021-07-31T09:00:23Z</time>
      </trkpt>
      <trkpt lat="48.74714" lon="6.91009">
        <ele>269.7</ele>
        <time>2021-07-31T09:00:24Z</time>
      </trkpt>
      <trkpt lat="48.74713" lon="6.91014">
        <ele>269.7</ele>
        <time>2021-07-31T09:00:25Z</time>
      </trkpt>
      <trkpt lat="48.74711" lon="6.91019">
        <ele>269.7</ele>
        <time>2021-07-31T09:00:26Z</time>
      </trkpt>
      <trkpt lat="48.74708" lon="6.91022">
        <ele>269.6</ele>
        <time>2021-07-31T09:00:27Z</time>
      </trkpt>
      <trkpt lat="48.74703" lon="6.91029">
        <ele>269.6</ele>
        <time>2021-07-31T09:00:29Z</time>
      </trkpt>
      <trkpt lat="48.74701" lon="6.91034">
        <ele>269.5</ele>
        <time>2021-07-31T09:00:30Z</time>
      </trkpt>
      <trkpt lat="48.74698" lon="6.91038">
        <ele>269.4</ele>
        <time>2021-07-31T09:00:31Z</time>
      </trkpt>
      <trkpt lat="48.74694" lon="6.91044">
        <ele>269.3</ele>
        <time>2021-07-31T09:00:32Z</time>
      </trkpt>
      <trkpt lat="48.74691" lon="6.9105">
        <ele>269.1</ele>
        <time>2021-07-31T09:00:34Z</time>
      </trkpt>
      <trkpt lat="48.74687" lon="6.91056">
        <ele>268.9</ele>
        <time>2021-07-31T09:00:35Z</time>
      </trkpt>
      <trkpt lat="48.74681" lon="6.91063">
        <ele>268.8</ele>
        <time>2021-07-31T09:00:36Z</time>
      </trkpt>
      <trkpt lat="48.74677" lon="6.9107">
        <ele>268.6</ele>
        <time>2021-07-31T09:00:38Z</time>
      </trkpt>
      <trkpt lat="48.74672" lon="6.91078">
        <ele>268.4</ele>
        <time>2021-07-31T09:00:39Z</time>
      </trkpt>
      <trkpt lat="48.74669" lon="6.91083">
        <ele>268.2</ele>
        <time>2021-07-31T09:00:40Z</time>
      </trkpt>
      <trkpt lat="48.74666" lon="6.9109">
        <ele>268</ele>
        <time>2021-07-31T09:00:42Z</time>
      </trkpt>
      <trkpt lat="48.74662" lon="6.91097">
        <ele>267.8</ele>
        <time>2021-07-31T09:00:43Z</time>
      </trkpt>
      <trkpt lat="48.74659" lon="6.91103">
        <ele>267.6</ele>
        <time>2021-07-31T09:00:44Z</time>
      </trkpt>
      <trkpt lat="48.74654" lon="6.91113">
        <ele>267.3</ele>
        <time>2021-07-31T09:00:46Z</time>
      </trkpt>
      <trkpt lat="48.7465" lon="6.91118">
        <ele>267.2</ele>
        <time>2021-07-31T09:00:47Z</time>
      </trkpt>
      <trkpt lat="48.74643" lon="6.91128">
        <ele>266.9</ele>
        <time>2021-07-31T09:00:49Z</time>
      </trkpt>
      <trkpt lat="48.7464" lon="6.91133">
        <ele>266.8</ele>
        <time>2021-07-31T09:00:50Z</time>
      </trkpt>
      <trkpt lat="48.74633" lon="6.91141">
        <ele>266.6</ele>
        <time>2021-07-31T09:00:52Z</time>
      </trkpt>
      <trkpt lat="48.74634" lon="6.91145">
        <ele>266.5</ele>
        <time>2021-07-31T09:00:53Z</time>
      </trkpt>
      <trkpt lat="48.74627" lon="6.91153">
        <ele>266.3</ele>
        <time>2021-07-31T09:00:55Z</time>
      </trkpt>
      <trkpt lat="48.74618" lon="6.91166">
        <ele>266</ele>
        <time>2021-07-31T09:00:57Z</time>
      </trkpt>
      <trkpt lat="48.74613" lon="6.91171">
        <ele>265.8</ele>
        <time>2021-07-31T09:00:58Z</time>
      </trkpt>
      <trkpt lat="48.74609" lon="6.91176">
        <ele>265.6</ele>
        <time>2021-07-31T09:00:59Z</time>
      </trkpt>
      <trkpt lat="48.74604" lon="6.91181">
        <ele>265.5</ele>
        <time>2021-07-31T09:01:00Z</time>
      </trkpt>
      <trkpt lat="48.746" lon="6.91186">
        <ele>265.3</ele>
        <time>2021-07-31T09:01:01Z</time>
      </trkpt>
      <trkpt lat="48.74593" lon="6.91197">
        <ele>265.1</ele>
        <time>2021-07-31T09:01:03Z</time>
      </trkpt>
      <trkpt lat="48.74588" lon="6.91212">
        <ele>264.7</ele>
        <time>2021-07-31T09:01:05Z</time>
      </trkpt>
      <trkpt lat="48.74581" lon="6.91225">
        <ele>264.3</ele>
        <time>2021-07-31T09:01:07Z</time>
      </trkpt>
      <trkpt lat="48.74574" lon="6.91237">
        <ele>263.8</ele>
        <time>2021-07-31T09:01:09Z</time>
      </trkpt>
      <trkpt lat="48.7457" lon="6.91244">
        <ele>263.5</ele>
        <time>2021-07-31T09:01:10Z</time>
      </trkpt>
      <trkpt lat="48.74565" lon="6.91251">
        <ele>263.1</ele>
        <time>2021-07-31T09:01:11Z</time>
      </trkpt>
      <trkpt lat="48.74556" lon="6.91264">
        <ele>262.5</ele>
        <time>2021-07-31T09:01:13Z</time>
      </trkpt>
      <trkpt lat="48.74552" lon="6.91269">
        <ele>262.2</ele>
        <time>2021-07-31T09:01:14Z</time>
      </trkpt>
      <trkpt lat="48.74542" lon="6.91279">
        <ele>261.7</ele>
        <time>2021-07-31T09:01:16Z</time>
      </trkpt>
      <trkpt lat="48.74532" lon="6.9129">
        <ele>261.1</ele>
        <time>2021-07-31T09:01:18Z</time>
      </trkpt>
      <trkpt lat="48.74526" lon="6.91296">
        <ele>260.8</ele>
        <time>2021-07-31T09:01:19Z</time>
      </trkpt>
      <trkpt lat="48.74517" lon="6.91306">
        <ele>260.3</ele>
        <time>2021-07-31T09:01:21Z</time>
      </trkpt>
      <trkpt lat="48.74511" lon="6.9132">
        <ele>260</ele>
        <time>2021-07-31T09:01:23Z</time>
      </trkpt>
      <trkpt lat="48.74508" lon="6.91328">
        <ele>259.9</ele>
        <time>2021-07-31T09:01:24Z</time>
      </trkpt>
      <trkpt lat="48.74502" lon="6.91342">
        <ele>259.8</ele>
        <time>2021-07-31T09:01:26Z</time>
      </trkpt>
      <trkpt lat="48.74499" lon="6.91348">
        <ele>259.7</ele>
        <time>2021-07-31T09:01:27Z</time>
      </trkpt>
      <trkpt lat="48.74496" lon="6.91355">
        <ele>259.7</ele>
        <time>2021-07-31T09:01:28Z</time>
      </trkpt>
      <trkpt lat="48.74493" lon="6.91361">
        <ele>259.7</ele>
        <time>2021-07-31T09:01:29Z</time>
      </trkpt>
      <trkpt lat="48.74486" lon="6.91372">
        <ele>259.7</ele>
        <time>2021-07-31T09:01:31Z</time>
      </trkpt>
      <trkpt lat="48.74479" lon="6.91384">
        <ele>259.6</ele>
        <time>2021-07-31T09:01:33Z</time>
      </trkpt>
      <trkpt lat="48.74475" lon="6.9139">
        <ele>259.5</ele>
        <time>2021-07-31T09:01:34Z</time>
      </trkpt>
      <trkpt lat="48.74471" lon="6.91395">
        <ele>259.5</ele>
        <time>2021-07-31T09:01:35Z</time>
      </trkpt>
      <trkpt lat="48.74466" lon="6.914">
        <ele>259.4</ele>
        <time>2021-07-31T09:01:36Z</time>
      </trkpt>
      <trkpt lat="48.74457" lon="6.91412">
        <ele>259.3</ele>
        <time>2021-07-31T09:01:38Z</time>
      </trkpt>
      <trkpt lat="48.74453" lon="6.91419">
        <ele>259.3</ele>
        <time>2021-07-31T09:01:39Z</time>
      </trkpt>
      <trkpt lat="48.74444" lon="6.91432">
        <ele>259.2</ele>
        <time>2021-07-31T09:01:41Z</time>
      </trkpt>
      <trkpt lat="48.7444" lon="6.91438">
        <ele>259.2</ele>
        <time>2021-07-31T09:01:42Z</time>
      </trkpt>
      <trkpt lat="48.74435" lon="6.91444">
        <ele>259.2</ele>
        <time>2021-07-31T09:01:43Z</time>
      </trkpt>
      <trkpt lat="48.74428" lon="6.91456">
        <ele>259.2</ele>
        <time>2021-07-31T09:01:45Z</time>
      </trkpt>
      <trkpt lat="48.74425" lon="6.91462">
        <ele>259.2</ele>
        <time>2021-07-31T09:01:46Z</time>
      </trkpt>
      <trkpt lat="48.74422" lon="6.91468">
        <ele>259.2</ele>
        <time>2021-07-31T09:01:47Z</time>
      </trkpt>
      <trkpt lat="48.74418" lon="6.91481">
        <ele>259.3</ele>
        <time>2021-07-31T09:01:49Z</time>
      </trkpt>
      <trkpt lat="48.74413" lon="6.91496">
        <ele>259.5</ele>
        <time>2021-07-31T09:01:51Z</time>
      </trkpt>
      <trkpt lat="48.7441" lon="6.91502">
        <ele>259.6</ele>
        <time>2021-07-31T09:01:52Z</time>
      </trkpt>
      <trkpt lat="48.74407" lon="6.91509">
        <ele>259.7</ele>
        <time>2021-07-31T09:01:53Z</time>
      </trkpt>
      <trkpt lat="48.74405" lon="6.91514">
        <ele>259.8</ele>
        <time>2021-07-31T09:01:54Z</time>
      </trkpt>
      <trkpt lat="48.744" lon="6.91526">
        <ele>260</ele>
        <time>2021-07-31T09:01:56Z</time>
      </trkpt>
      <trkpt lat="48.74395" lon="6.91536">
        <ele>260.3</ele>
        <time>2021-07-31T09:01:58Z</time>
      </trkpt>
      <trkpt lat="48.74387" lon="6.91547">
        <ele>260.7</ele>
        <time>2021-07-31T09:02:00Z</time>
      </trkpt>
      <trkpt lat="48.74384" lon="6.9155">
        <ele>260.8</ele>
        <time>2021-07-31T09:02:01Z</time>
      </trkpt>
      <trkpt lat="48.74383" lon="6.91555">
        <ele>261</ele>
        <time>2021-07-31T09:02:02Z</time>
      </trkpt>
      <trkpt lat="48.7438" lon="6.91561">
        <ele>261.2</ele>
        <time>2021-07-31T09:02:04Z</time>
      </trkpt>
      <trkpt lat="48.74377" lon="6.91568">
        <ele>261.5</ele>
        <time>2021-07-31T09:02:05Z</time>
      </trkpt>
      <trkpt lat="48.74374" lon="6.91573">
        <ele>261.8</ele>
        <time>2021-07-31T09:02:07Z</time>
      </trkpt>
      <trkpt lat="48.74372" lon="6.91577">
        <ele>261.9</ele>
        <time>2021-07-31T09:02:08Z</time>
      </trkpt>
      <trkpt lat="48.74368" lon="6.91581">
        <ele>262.2</ele>
        <time>2021-07-31T09:02:10Z</time>
      </trkpt>
      <trkpt lat="48.74364" lon="6.91586">
        <ele>262.5</ele>
        <time>2021-07-31T09:02:12Z</time>
      </trkpt>
      <trkpt lat="48.74361" lon="6.91591">
        <ele>262.7</ele>
        <time>2021-07-31T09:02:13Z</time>
      </trkpt>
      <trkpt lat="48.74359" lon="6.91593">
        <ele>262.9</ele>
        <time>2021-07-31T09:02:14Z</time>
      </trkpt>
      <trkpt lat="48.74356" lon="6.91596">
        <ele>263.2</ele>
        <time>2021-07-31T09:02:15Z</time>
      </trkpt>
      <trkpt lat="48.74354" lon="6.91598">
        <ele>263.3</ele>
        <time>2021-07-31T09:02:16Z</time>
      </trkpt>
      <trkpt lat="48.74352" lon="6.91602">
        <ele>263.5</ele>
        <time>2021-07-31T09:02:18Z</time>
      </trkpt>
      <trkpt lat="48.74348" lon="6.91605">
        <ele>263.8</ele>
        <time>2021-07-31T09:02:19Z</time>
      </trkpt>
      <trkpt lat="48.74346" lon="6.91605">
        <ele>263.9</ele>
        <time>2021-07-31T09:02:20Z</time>
      </trkpt>
      <trkpt lat="48.74343" lon="6.91607">
        <ele>264.1</ele>
        <time>2021-07-31T09:02:21Z</time>
      </trkpt>
      <trkpt lat="48.7434" lon="6.91609">
        <ele>264.3</ele>
        <time>2021-07-31T09:02:22Z</time>
      </trkpt>
      <trkpt lat="48.74337" lon="6.91611">
        <ele>264.5</ele>
        <time>2021-07-31T09:02:23Z</time>
      </trkpt>
      <trkpt lat="48.74333" lon="6.91612">
        <ele>264.8</ele>
        <time>2021-07-31T09:02:25Z</time>
      </trkpt>
      <trkpt lat="48.7433" lon="6.91614">
        <ele>264.9</ele>
        <time>2021-07-31T09:02:26Z</time>
      </trkpt>
      <trkpt lat="48.74326" lon="6.91613">
        <ele>265.2</ele>
        <time>2021-07-31T09:02:27Z</time>
      </trkpt>
      <trkpt lat="48.74323" lon="6.91612">
        <ele>265.4</ele>
        <time>2021-07-31T09:02:29Z</time>
      </trkpt>
      <trkpt lat="48.74322" lon="6.91611">
        <ele>265.5</ele>
        <time>2021-07-31T09:02:30Z</time>
      </trkpt>
      <trkpt lat="48.74318" lon="6.91608">
        <ele>265.7</ele>
        <time>2021-07-31T09:02:31Z</time>
      </trkpt>
      <trkpt lat="48.74316" lon="6.91607">
        <ele>265.7</ele>
        <time>2021-07-31T09:02:32Z</time>
      </trkpt>
      <trkpt lat="48.74311" lon="6.91604">
        <ele>265.8</ele>
        <time>2021-07-31T09:02:34Z</time>
      </trkpt>
      <trkpt lat="48.74308" lon="6.91604">
        <ele>265.9</ele>
        <time>2021-07-31T09:02:35Z</time>
      </trkpt>
      <trkpt lat="48.74305" lon="6.91602">
        <ele>265.9</ele>
        <time>2021-07-31T09:02:36Z</time>
      </trkpt>
      <trkpt lat="48.74302" lon="6.91599">
        <ele>266</ele>
        <time>2021-07-31T09:02:37Z</time>
      </trkpt>
      <trkpt lat="48.743" lon="6.91597">
        <ele>266</ele>
        <time>2021-07-31T09:02:38Z</time>
      </trkpt>
      <trkpt lat="48.74298" lon="6.91593">
        <ele>266.1</ele>
        <time>2021-07-31T09:02:40Z</time>
      </trkpt>
      <trkpt lat="48.74297" lon="6.91589">
        <ele>266.1</ele>
        <time>2021-07-31T09:02:41Z</time>
      </trkpt>
      <trkpt lat="48.74296" lon="6.91587">
        <ele>266.1</ele>
        <time>2021-07-31T09:02:42Z</time>
      </trkpt>
      <trkpt lat="48.74294" lon="6.91584">
        <ele>266.1</ele>
        <time>2021-07-31T09:02:43Z</time>
      </trkpt>
      <trkpt lat="48.74294" lon="6.91583">
        <ele>266.1</ele>
        <time>2021-07-31T09:02:44Z</time>
      </trkpt>
      <trkpt lat="48.74292" lon="6.91581">
        <ele>266.2</ele>
        <time>2021-07-31T09:02:46Z</time>
      </trkpt>
      <trkpt lat="48.74289" lon="6.91578">
        <ele>266.2</ele>
        <time>2021-07-31T09:02:48Z</time>
      </trkpt>
      <trkpt lat="48.74286" lon="6.91574">
        <ele>266.3</ele>
        <time>2021-07-31T09:02:49Z</time>
      </trkpt>
      <trkpt lat="48.74283" lon="6.91571">
        <ele>266.3</ele>
        <time>2021-07-31T09:02:51Z</time>
      </trkpt>
      <trkpt lat="48.7428" lon="6.91566">
        <ele>266.4</ele>
        <time>2021-07-31T09:02:53Z</time>
      </trkpt>
      <trkpt lat="48.74278" lon="6.91562">
        <ele>266.4</ele>
        <time>2021-07-31T09:02:54Z</time>
      </trkpt>
      <trkpt lat="48.74276" lon="6.91556">
        <ele>266.5</ele>
        <time>2021-07-31T09:02:56Z</time>
      </trkpt>
      <trkpt lat="48.74273" lon="6.9155">
        <ele>266.6</ele>
        <time>2021-07-31T09:02:58Z</time>
      </trkpt>
      <trkpt lat="48.74272" lon="6.91545">
        <ele>266.6</ele>
        <time>2021-07-31T09:03:00Z</time>
      </trkpt>
      <trkpt lat="48.74272" lon="6.91541">
        <ele>266.7</ele>
        <time>2021-07-31T09:03:01Z</time>
      </trkpt>
      <trkpt lat="48.74271" lon="6.91539">
        <ele>266.7</ele>
        <time>2021-07-31T09:03:02Z</time>
      </trkpt>
      <trkpt lat="48.7427" lon="6.91537">
        <ele>266.7</ele>
        <time>2021-07-31T09:03:03Z</time>
      </trkpt>
      <trkpt lat="48.74269" lon="6.91536">
        <ele>266.8</ele>
        <time>2021-07-31T09:03:04Z</time>
      </trkpt>
      <trkpt lat="48.74265" lon="6.91533">
        <ele>266.9</ele>
        <time>2021-07-31T09:03:06Z</time>
      </trkpt>
      <trkpt lat="48.74264" lon="6.91533">
        <ele>266.9</ele>
        <time>2021-07-31T09:03:07Z</time>
      </trkpt>
      <trkpt lat="48.74261" lon="6.9153">
        <ele>266.9</ele>
        <time>2021-07-31T09:03:08Z</time>
      </trkpt>
      <trkpt lat="48.7426" lon="6.9153">
        <ele>267</ele>
        <time>2021-07-31T09:03:09Z</time>
      </trkpt>
      <trkpt lat="48.74259" lon="6.91529">
        <ele>267</ele>
        <time>2021-07-31T09:03:10Z</time>
      </trkpt>
      <trkpt lat="48.74256" lon="6.91526">
        <ele>267.1</ele>
        <time>2021-07-31T09:03:12Z</time>
      </trkpt>
      <trkpt lat="48.74255" lon="6.91526">
        <ele>267.1</ele>
        <time>2021-07-31T09:03:13Z</time>
      </trkpt>
      <trkpt lat="48.74254" lon="6.91525">
        <ele>267.1</ele>
        <time>2021-07-31T09:03:14Z</time>
      </trkpt>
      <trkpt lat="48.74254" lon="6.91524">
        <ele>267.1</ele>
        <time>2021-07-31T09:03:16Z</time>
      </trkpt>
      <trkpt lat="48.74254" lon="6.91524">
        <ele>267.1</ele>
        <time>2021-07-31T09:03:17Z</time>
      </trkpt>
      <trkpt lat="48.74254" lon="6.91523">
        <ele>267.1</ele>
        <time>2021-07-31T09:03:19Z</time>
      </trkpt>
      <trkpt lat="48.74254" lon="6.91523">
        <ele>267.1</ele>
        <time>2021-07-31T09:03:20Z</time>
      </trkpt>
      <trkpt lat="48.74252" lon="6.91521">
        <ele>267.1</ele>
        <time>2021-07-31T09:03:21Z</time>
      </trkpt>
      <trkpt lat="48.74251" lon="6.9152">
        <ele>267.2</ele>
        <time>2021-07-31T09:03:22Z</time>
      </trkpt>
      <trkpt lat="48.74234" lon="6.91509">
        <ele>267.4</ele>
        <time>2021-07-31T09:03:31Z</time>
      </trkpt>
      <trkpt lat="48.74231" lon="6.91504">
        <ele>267.4</ele>
        <time>2021-07-31T09:03:32Z</time>
      </trkpt>
      <trkpt lat="48.74228" lon="6.91498">
        <ele>267.5</ele>
        <time>2021-07-31T09:03:33Z</time>
      </trkpt>
      <trkpt lat="48.74225" lon="6.91493">
        <ele>267.6</ele>
        <time>2021-07-31T09:03:34Z</time>
      </trkpt>
      <trkpt lat="48.74222" lon="6.9149">
        <ele>267.7</ele>
        <time>2021-07-31T09:03:35Z</time>
      </trkpt>
      <trkpt lat="48.74219" lon="6.91487">
        <ele>267.7</ele>
        <time>2021-07-31T09:03:36Z</time>
      </trkpt>
      <trkpt lat="48.74212" lon="6.91482">
        <ele>267.8</ele>
        <time>2021-07-31T09:03:38Z</time>
      </trkpt>
      <trkpt lat="48.74207" lon="6.91475">
        <ele>267.9</ele>
        <time>2021-07-31T09:03:40Z</time>
      </trkpt>
      <trkpt lat="48.74205" lon="6.91472">
        <ele>268</ele>
        <time>2021-07-31T09:03:41Z</time>
      </trkpt>
      <trkpt lat="48.74202" lon="6.9147">
        <ele>268</ele>
        <time>2021-07-31T09:03:42Z</time>
      </trkpt>
      <trkpt lat="48.74201" lon="6.9147">
        <ele>268</ele>
        <time>2021-07-31T09:03:43Z</time>
      </trkpt>
      <trkpt lat="48.74199" lon="6.91467">
        <ele>268.1</ele>
        <time>2021-07-31T09:03:45Z</time>
      </trkpt>
      <trkpt lat="48.74196" lon="6.91461">
        <ele>268.2</ele>
        <time>2021-07-31T09:03:47Z</time>
      </trkpt>
      <trkpt lat="48.74194" lon="6.91458">
        <ele>268.2</ele>
        <time>2021-07-31T09:03:48Z</time>
      </trkpt>
      <trkpt lat="48.7419" lon="6.91454">
        <ele>268.3</ele>
        <time>2021-07-31T09:03:50Z</time>
      </trkpt>
      <trkpt lat="48.74187" lon="6.91452">
        <ele>268.3</ele>
        <time>2021-07-31T09:03:51Z</time>
      </trkpt>
      <trkpt lat="48.74186" lon="6.91452">
        <ele>268.3</ele>
        <time>2021-07-31T09:03:52Z</time>
      </trkpt>
      <trkpt lat="48.74183" lon="6.9145">
        <ele>268.4</ele>
        <time>2021-07-31T09:03:53Z</time>
      </trkpt>
      <trkpt lat="48.74179" lon="6.91445">
        <ele>268.4</ele>
        <time>2021-07-31T09:03:54Z</time>
      </trkpt>
      <trkpt lat="48.74176" lon="6.91441">
        <ele>268.5</ele>
        <time>2021-07-31T09:03:56Z</time>
      </trkpt>
      <trkpt lat="48.74174" lon="6.91437">
        <ele>268.5</ele>
        <time>2021-07-31T09:03:57Z</time>
      </trkpt>
      <trkpt lat="48.74172" lon="6.91433">
        <ele>268.5</ele>
        <time>2021-07-31T09:03:58Z</time>
      </trkpt>
      <trkpt lat="48.74169" lon="6.9143">
        <ele>268.5</ele>
        <time>2021-07-31T09:03:59Z</time>
      </trkpt>
      <trkpt lat="48.74168" lon="6.91429">
        <ele>268.5</ele>
        <time>2021-07-31T09:04:00Z</time>
      </trkpt>
      <trkpt lat="48.74165" lon="6.91429">
        <ele>268.5</ele>
        <time>2021-07-31T09:04:02Z</time>
      </trkpt>
      <trkpt lat="48.74164" lon="6.91429">
        <ele>268.5</ele>
        <time>2021-07-31T09:04:03Z</time>
      </trkpt>
      <trkpt lat="48.74162" lon="6.91428">
        <ele>268.5</ele>
        <time>2021-07-31T09:04:04Z</time>
      </trkpt>
      <trkpt lat="48.74161" lon="6.91426">
        <ele>268.5</ele>
        <time>2021-07-31T09:04:05Z</time>
      </trkpt>
      <trkpt lat="48.74159" lon="6.91422">
        <ele>268.6</ele>
        <time>2021-07-31T09:04:07Z</time>
      </trkpt>
      <trkpt lat="48.74157" lon="6.91418">
        <ele>268.6</ele>
        <time>2021-07-31T09:04:08Z</time>
      </trkpt>
      <trkpt lat="48.74155" lon="6.91414">
        <ele>268.6</ele>
        <time>2021-07-31T09:04:09Z</time>
      </trkpt>
      <trkpt lat="48.74153" lon="6.91411">
        <ele>268.6</ele>
        <time>2021-07-31T09:04:10Z</time>
      </trkpt>
      <trkpt lat="48.7415" lon="6.91406">
        <ele>268.6</ele>
        <time>2021-07-31T09:04:11Z</time>
      </trkpt>
      <trkpt lat="48.74146" lon="6.91402">
        <ele>268.6</ele>
        <time>2021-07-31T09:04:13Z</time>
      </trkpt>
      <trkpt lat="48.74143" lon="6.91396">
        <ele>268.7</ele>
        <time>2021-07-31T09:04:14Z</time>
      </trkpt>
      <trkpt lat="48.7414" lon="6.91391">
        <ele>268.7</ele>
        <time>2021-07-31T09:04:16Z</time>
      </trkpt>
      <trkpt lat="48.74137" lon="6.91387">
        <ele>268.7</ele>
        <time>2021-07-31T09:04:17Z</time>
      </trkpt>
      <trkpt lat="48.74134" lon="6.91383">
        <ele>268.7</ele>
        <time>2021-07-31T09:04:19Z</time>
      </trkpt>
      <trkpt lat="48.74131" lon="6.9138">
        <ele>268.7</ele>
        <time>2021-07-31T09:04:20Z</time>
      </trkpt>
      <trkpt lat="48.74128" lon="6.91376">
        <ele>268.8</ele>
        <time>2021-07-31T09:04:21Z</time>
      </trkpt>
      <trkpt lat="48.74125" lon="6.91373">
        <ele>268.8</ele>
        <time>2021-07-31T09:04:22Z</time>
      </trkpt>
      <trkpt lat="48.74122" lon="6.9137">
        <ele>268.8</ele>
        <time>2021-07-31T09:04:23Z</time>
      </trkpt>
      <trkpt lat="48.74118" lon="6.91366">
        <ele>268.8</ele>
        <time>2021-07-31T09:04:25Z</time>
      </trkpt>
      <trkpt lat="48.74115" lon="6.91364">
        <ele>268.9</ele>
        <time>2021-07-31T09:04:26Z</time>
      </trkpt>
      <trkpt lat="48.74112" lon="6.9136">
        <ele>268.9</ele>
        <time>2021-07-31T09:04:27Z</time>
      </trkpt>
      <trkpt lat="48.74109" lon="6.91358">
        <ele>268.9</ele>
        <time>2021-07-31T09:04:28Z</time>
      </trkpt>
      <trkpt lat="48.74105" lon="6.91354">
        <ele>268.9</ele>
        <time>2021-07-31T09:04:29Z</time>
      </trkpt>
      <trkpt lat="48.74102" lon="6.91351">
        <ele>269</ele>
        <time>2021-07-31T09:04:31Z</time>
      </trkpt>
      <trkpt lat="48.74099" lon="6.91347">
        <ele>269</ele>
        <time>2021-07-31T09:04:32Z</time>
      </trkpt>
      <trkpt lat="48.74096" lon="6.91342">
        <ele>269</ele>
        <time>2021-07-31T09:04:33Z</time>
      </trkpt>
      <trkpt lat="48.74093" lon="6.91338">
        <ele>269</ele>
        <time>2021-07-31T09:04:34Z</time>
      </trkpt>
      <trkpt lat="48.74089" lon="6.91331">
        <ele>269</ele>
        <time>2021-07-31T09:04:35Z</time>
      </trkpt>
      <trkpt lat="48.74086" lon="6.91325">
        <ele>269</ele>
        <time>2021-07-31T09:04:37Z</time>
      </trkpt>
      <trkpt lat="48.74082" lon="6.91318">
        <ele>269.1</ele>
        <time>2021-07-31T09:04:38Z</time>
      </trkpt>
      <trkpt lat="48.74076" lon="6.91305">
        <ele>269.2</ele>
        <time>2021-07-31T09:04:40Z</time>
      </trkpt>
      <trkpt lat="48.74072" lon="6.91298">
        <ele>269.2</ele>
        <time>2021-07-31T09:04:42Z</time>
      </trkpt>
      <trkpt lat="48.7407" lon="6.91293">
        <ele>269.2</ele>
        <time>2021-07-31T09:04:43Z</time>
      </trkpt>
      <trkpt lat="48.74065" lon="6.91283">
        <ele>269.3</ele>
        <time>2021-07-31T09:04:45Z</time>
      </trkpt>
      <trkpt lat="48.7406" lon="6.91273">
        <ele>269.3</ele>
        <time>2021-07-31T09:04:46Z</time>
      </trkpt>
      <trkpt lat="48.74057" lon="6.91263">
        <ele>269.4</ele>
        <time>2021-07-31T09:04:48Z</time>
      </trkpt>
      <trkpt lat="48.74054" lon="6.91256">
        <ele>269.5</ele>
        <time>2021-07-31T09:04:49Z</time>
      </trkpt>
      <trkpt lat="48.7405" lon="6.91249">
        <ele>269.6</ele>
        <time>2021-07-31T09:04:50Z</time>
      </trkpt>
      <trkpt lat="48.74047" lon="6.91244">
        <ele>269.6</ele>
        <time>2021-07-31T09:04:51Z</time>
      </trkpt>
      <trkpt lat="48.74044" lon="6.9124">
        <ele>269.7</ele>
        <time>2021-07-31T09:04:52Z</time>
      </trkpt>
      <trkpt lat="48.74039" lon="6.91237">
        <ele>269.7</ele>
        <time>2021-07-31T09:04:54Z</time>
      </trkpt>
      <trkpt lat="48.74035" lon="6.91233">
        <ele>269.7</ele>
        <time>2021-07-31T09:04:55Z</time>
      </trkpt>
      <trkpt lat="48.74031" lon="6.9123">
        <ele>269.8</ele>
        <time>2021-07-31T09:04:56Z</time>
      </trkpt>
      <trkpt lat="48.74028" lon="6.91227">
        <ele>269.8</ele>
        <time>2021-07-31T09:04:57Z</time>
      </trkpt>
      <trkpt lat="48.74027" lon="6.91225">
        <ele>269.8</ele>
        <time>2021-07-31T09:04:58Z</time>
      </trkpt>
      <trkpt lat="48.74026" lon="6.91223">
        <ele>269.8</ele>
        <time>2021-07-31T09:04:59Z</time>
      </trkpt>
      <trkpt lat="48.74025" lon="6.91222">
        <ele>269.8</ele>
        <time>2021-07-31T09:05:00Z</time>
      </trkpt>
      <trkpt lat="48.74021" lon="6.91219">
        <ele>269.9</ele>
        <time>2021-07-31T09:05:02Z</time>
      </trkpt>
      <trkpt lat="48.74017" lon="6.91215">
        <ele>269.9</ele>
        <time>2021-07-31T09:05:03Z</time>
      </trkpt>
      <trkpt lat="48.74014" lon="6.91213">
        <ele>269.9</ele>
        <time>2021-07-31T09:05:04Z</time>
      </trkpt>
      <trkpt lat="48.74009" lon="6.91208">
        <ele>270</ele>
        <time>2021-07-31T09:05:06Z</time>
      </trkpt>
      <trkpt lat="48.74004" lon="6.91203">
        <ele>270</ele>
        <time>2021-07-31T09:05:08Z</time>
      </trkpt>
      <trkpt lat="48.74001" lon="6.912">
        <ele>270.1</ele>
        <time>2021-07-31T09:05:09Z</time>
      </trkpt>
      <trkpt lat="48.73996" lon="6.91197">
        <ele>270.1</ele>
        <time>2021-07-31T09:05:10Z</time>
      </trkpt>
      <trkpt lat="48.73993" lon="6.91194">
        <ele>270.2</ele>
        <time>2021-07-31T09:05:11Z</time>
      </trkpt>
      <trkpt lat="48.73991" lon="6.91192">
        <ele>270.2</ele>
        <time>2021-07-31T09:05:12Z</time>
      </trkpt>
      <trkpt lat="48.73986" lon="6.91191">
        <ele>270.2</ele>
        <time>2021-07-31T09:05:14Z</time>
      </trkpt>
      <trkpt lat="48.73981" lon="6.9119">
        <ele>270.3</ele>
        <time>2021-07-31T09:05:15Z</time>
      </trkpt>
      <trkpt lat="48.73977" lon="6.91188">
        <ele>270.3</ele>
        <time>2021-07-31T09:05:16Z</time>
      </trkpt>
      <trkpt lat="48.73974" lon="6.91186">
        <ele>270.4</ele>
        <time>2021-07-31T09:05:17Z</time>
      </trkpt>
      <trkpt lat="48.73972" lon="6.91182">
        <ele>270.4</ele>
        <time>2021-07-31T09:05:18Z</time>
      </trkpt>
      <trkpt lat="48.73967" lon="6.91173">
        <ele>270.5</ele>
        <time>2021-07-31T09:05:20Z</time>
      </trkpt>
      <trkpt lat="48.73965" lon="6.91168">
        <ele>270.6</ele>
        <time>2021-07-31T09:05:21Z</time>
      </trkpt>
      <trkpt lat="48.73963" lon="6.9116">
        <ele>270.6</ele>
        <time>2021-07-31T09:05:23Z</time>
      </trkpt>
      <trkpt lat="48.73961" lon="6.91156">
        <ele>270.7</ele>
        <time>2021-07-31T09:05:24Z</time>
      </trkpt>
      <trkpt lat="48.73959" lon="6.91153">
        <ele>270.7</ele>
        <time>2021-07-31T09:05:25Z</time>
      </trkpt>
      <trkpt lat="48.73958" lon="6.91147">
        <ele>270.8</ele>
        <time>2021-07-31T09:05:27Z</time>
      </trkpt>
      <trkpt lat="48.73957" lon="6.91142">
        <ele>270.8</ele>
        <time>2021-07-31T09:05:28Z</time>
      </trkpt>
      <trkpt lat="48.73955" lon="6.91141">
        <ele>270.9</ele>
        <time>2021-07-31T09:05:29Z</time>
      </trkpt>
      <trkpt lat="48.73954" lon="6.91139">
        <ele>270.9</ele>
        <time>2021-07-31T09:05:30Z</time>
      </trkpt>
      <trkpt lat="48.73951" lon="6.91137">
        <ele>270.9</ele>
        <time>2021-07-31T09:05:32Z</time>
      </trkpt>
      <trkpt lat="48.73947" lon="6.91133">
        <ele>270.9</ele>
        <time>2021-07-31T09:05:33Z</time>
      </trkpt>
      <trkpt lat="48.73946" lon="6.91132">
        <ele>271</ele>
        <time>2021-07-31T09:05:34Z</time>
      </trkpt>
      <trkpt lat="48.73943" lon="6.9113">
        <ele>271</ele>
        <time>2021-07-31T09:05:35Z</time>
      </trkpt>
      <trkpt lat="48.73939" lon="6.91126">
        <ele>271</ele>
        <time>2021-07-31T09:05:37Z</time>
      </trkpt>
      <trkpt lat="48.73936" lon="6.91125">
        <ele>271</ele>
        <time>2021-07-31T09:05:38Z</time>
      </trkpt>
      <trkpt lat="48.73932" lon="6.91123">
        <ele>271</ele>
        <time>2021-07-31T09:05:39Z</time>
      </trkpt>
      <trkpt lat="48.73929" lon="6.91121">
        <ele>271</ele>
        <time>2021-07-31T09:05:40Z</time>
      </trkpt>
      <trkpt lat="48.73925" lon="6.91116">
        <ele>271.1</ele>
        <time>2021-07-31T09:05:42Z</time>
      </trkpt>
      <trkpt lat="48.73923" lon="6.91115">
        <ele>271.1</ele>
        <time>2021-07-31T09:05:43Z</time>
      </trkpt>
      <trkpt lat="48.73919" lon="6.91113">
        <ele>271.1</ele>
        <time>2021-07-31T09:05:45Z</time>
      </trkpt>
      <trkpt lat="48.73916" lon="6.91111">
        <ele>271.2</ele>
        <time>2021-07-31T09:05:46Z</time>
      </trkpt>
      <trkpt lat="48.73913" lon="6.91108">
        <ele>271.2</ele>
        <time>2021-07-31T09:05:47Z</time>
      </trkpt>
      <trkpt lat="48.73911" lon="6.91105">
        <ele>271.2</ele>
        <time>2021-07-31T09:05:48Z</time>
      </trkpt>
      <trkpt lat="48.73908" lon="6.91102">
        <ele>271.3</ele>
        <time>2021-07-31T09:05:50Z</time>
      </trkpt>
      <trkpt lat="48.73906" lon="6.911">
        <ele>271.3</ele>
        <time>2021-07-31T09:05:51Z</time>
      </trkpt>
      <trkpt lat="48.73905" lon="6.91098">
        <ele>271.3</ele>
        <time>2021-07-31T09:05:52Z</time>
      </trkpt>
      <trkpt lat="48.73905" lon="6.91097">
        <ele>271.3</ele>
        <time>2021-07-31T09:05:53Z</time>
      </trkpt>
      <trkpt lat="48.73903" lon="6.91095">
        <ele>271.4</ele>
        <time>2021-07-31T09:05:55Z</time>
      </trkpt>
      <trkpt lat="48.73902" lon="6.91095">
        <ele>271.4</ele>
        <time>2021-07-31T09:05:57Z</time>
      </trkpt>
      <trkpt lat="48.73902" lon="6.91096">
        <ele>271.4</ele>
        <time>2021-07-31T09:05:58Z</time>
      </trkpt>
      <trkpt lat="48.73901" lon="6.91096">
        <ele>271.4</ele>
        <time>2021-07-31T09:06:00Z</time>
      </trkpt>
      <trkpt lat="48.73901" lon="6.91096">
        <ele>271.4</ele>
        <time>2021-07-31T09:06:01Z</time>
      </trkpt>
      <trkpt lat="48.73898" lon="6.91093">
        <ele>271.5</ele>
        <time>2021-07-31T09:06:02Z</time>
      </trkpt>
      <trkpt lat="48.73894" lon="6.91089">
        <ele>271.5</ele>
        <time>2021-07-31T09:06:03Z</time>
      </trkpt>
      <trkpt lat="48.7389" lon="6.91086">
        <ele>271.5</ele>
        <time>2021-07-31T09:06:04Z</time>
      </trkpt>
      <trkpt lat="48.73886" lon="6.91081">
        <ele>271.6</ele>
        <time>2021-07-31T09:06:05Z</time>
      </trkpt>
      <trkpt lat="48.7388" lon="6.91073">
        <ele>271.6</ele>
        <time>2021-07-31T09:06:07Z</time>
      </trkpt>
      <trkpt lat="48.73874" lon="6.91066">
        <ele>271.6</ele>
        <time>2021-07-31T09:06:09Z</time>
      </trkpt>
      <trkpt lat="48.7387" lon="6.91062">
        <ele>271.7</ele>
        <time>2021-07-31T09:06:10Z</time>
      </trkpt>
      <trkpt lat="48.73867" lon="6.91056">
        <ele>271.7</ele>
        <time>2021-07-31T09:06:11Z</time>
      </trkpt>
      <trkpt lat="48.73863" lon="6.91051">
        <ele>271.7</ele>
        <time>2021-07-31T09:06:12Z</time>
      </trkpt>
      <trkpt lat="48.73859" lon="6.91045">
        <ele>271.8</ele>
        <time>2021-07-31T09:06:13Z</time>
      </trkpt>
      <trkpt lat="48.73855" lon="6.9104">
        <ele>271.8</ele>
        <time>2021-07-31T09:06:14Z</time>
      </trkpt>
      <trkpt lat="48.7385" lon="6.91031">
        <ele>271.8</ele>
        <time>2021-07-31T09:06:16Z</time>
      </trkpt>
      <trkpt lat="48.73846" lon="6.91026">
        <ele>271.8</ele>
        <time>2021-07-31T09:06:17Z</time>
      </trkpt>
      <trkpt lat="48.73839" lon="6.91016">
        <ele>271.8</ele>
        <time>2021-07-31T09:06:19Z</time>
      </trkpt>
      <trkpt lat="48.73835" lon="6.91011">
        <ele>271.8</ele>
        <time>2021-07-31T09:06:20Z</time>
      </trkpt>
      <trkpt lat="48.73832" lon="6.91005">
        <ele>271.8</ele>
        <time>2021-07-31T09:06:21Z</time>
      </trkpt>
      <trkpt lat="48.73828" lon="6.90998">
        <ele>271.7</ele>
        <time>2021-07-31T09:06:23Z</time>
      </trkpt>
      <trkpt lat="48.73825" lon="6.90993">
        <ele>271.7</ele>
        <time>2021-07-31T09:06:24Z</time>
      </trkpt>
      <trkpt lat="48.73822" lon="6.90987">
        <ele>271.7</ele>
        <time>2021-07-31T09:06:25Z</time>
      </trkpt>
      <trkpt lat="48.73818" lon="6.90982">
        <ele>271.7</ele>
        <time>2021-07-31T09:06:27Z</time>
      </trkpt>
      <trkpt lat="48.73816" lon="6.90977">
        <ele>271.7</ele>
        <time>2021-07-31T09:06:28Z</time>
      </trkpt>
      <trkpt lat="48.73812" lon="6.90973">
        <ele>271.7</ele>
        <time>2021-07-31T09:06:29Z</time>
      </trkpt>
      <trkpt lat="48.73808" lon="6.90966">
        <ele>271.7</ele>
        <time>2021-07-31T09:06:31Z</time>
      </trkpt>
      <trkpt lat="48.73804" lon="6.90961">
        <ele>271.7</ele>
        <time>2021-07-31T09:06:32Z</time>
      </trkpt>
      <trkpt lat="48.738" lon="6.90955">
        <ele>271.7</ele>
        <time>2021-07-31T09:06:33Z</time>
      </trkpt>
      <trkpt lat="48.73796" lon="6.90949">
        <ele>271.7</ele>
        <time>2021-07-31T09:06:35Z</time>
      </trkpt>
      <trkpt lat="48.73792" lon="6.90944">
        <ele>271.7</ele>
        <time>2021-07-31T09:06:36Z</time>
      </trkpt>
      <trkpt lat="48.73789" lon="6.90941">
        <ele>271.7</ele>
        <time>2021-07-31T09:06:37Z</time>
      </trkpt>
      <trkpt lat="48.73787" lon="6.90937">
        <ele>271.7</ele>
        <time>2021-07-31T09:06:39Z</time>
      </trkpt>
      <trkpt lat="48.73784" lon="6.90934">
        <ele>271.7</ele>
        <time>2021-07-31T09:06:40Z</time>
      </trkpt>
      <trkpt lat="48.7378" lon="6.90929">
        <ele>271.7</ele>
        <time>2021-07-31T09:06:41Z</time>
      </trkpt>
      <trkpt lat="48.73774" lon="6.90923">
        <ele>271.7</ele>
        <time>2021-07-31T09:06:43Z</time>
      </trkpt>
      <trkpt lat="48.73768" lon="6.90918">
        <ele>271.7</ele>
        <time>2021-07-31T09:06:44Z</time>
      </trkpt>
      <trkpt lat="48.73762" lon="6.90914">
        <ele>271.7</ele>
        <time>2021-07-31T09:06:46Z</time>
      </trkpt>
      <trkpt lat="48.73756" lon="6.90915">
        <ele>271.7</ele>
        <time>2021-07-31T09:06:47Z</time>
      </trkpt>
      <trkpt lat="48.7375" lon="6.90919">
        <ele>271.6</ele>
        <time>2021-07-31T09:06:49Z</time>
      </trkpt>
      <trkpt lat="48.73746" lon="6.90924">
        <ele>271.5</ele>
        <time>2021-07-31T09:06:50Z</time>
      </trkpt>
      <trkpt lat="48.73744" lon="6.90927">
        <ele>271.5</ele>
        <time>2021-07-31T09:06:51Z</time>
      </trkpt>
      <trkpt lat="48.73742" lon="6.90931">
        <ele>271.5</ele>
        <time>2021-07-31T09:06:53Z</time>
      </trkpt>
      <trkpt lat="48.7374" lon="6.90933">
        <ele>271.5</ele>
        <time>2021-07-31T09:06:54Z</time>
      </trkpt>
      <trkpt lat="48.73736" lon="6.90939">
        <ele>271.5</ele>
        <time>2021-07-31T09:06:56Z</time>
      </trkpt>
      <trkpt lat="48.73733" lon="6.90944">
        <ele>271.4</ele>
        <time>2021-07-31T09:06:58Z</time>
      </trkpt>
      <trkpt lat="48.73732" lon="6.90952">
        <ele>271.4</ele>
        <time>2021-07-31T09:07:00Z</time>
      </trkpt>
      <trkpt lat="48.73732" lon="6.90955">
        <ele>271.3</ele>
        <time>2021-07-31T09:07:01Z</time>
      </trkpt>
      <trkpt lat="48.7373" lon="6.90961">
        <ele>271.3</ele>
        <time>2021-07-31T09:07:03Z</time>
      </trkpt>
      <trkpt lat="48.7373" lon="6.90966">
        <ele>271.2</ele>
        <time>2021-07-31T09:07:04Z</time>
      </trkpt>
      <trkpt lat="48.73729" lon="6.9097">
        <ele>271.2</ele>
        <time>2021-07-31T09:07:05Z</time>
      </trkpt>
      <trkpt lat="48.73728" lon="6.90974">
        <ele>271.1</ele>
        <time>2021-07-31T09:07:07Z</time>
      </trkpt>
      <trkpt lat="48.73727" lon="6.90979">
        <ele>271.1</ele>
        <time>2021-07-31T09:07:08Z</time>
      </trkpt>
      <trkpt lat="48.73723" lon="6.90985">
        <ele>270.9</ele>
        <time>2021-07-31T09:07:09Z</time>
      </trkpt>
      <trkpt lat="48.73719" lon="6.90991">
        <ele>270.6</ele>
        <time>2021-07-31T09:07:11Z</time>
      </trkpt>
      <trkpt lat="48.73717" lon="6.90995">
        <ele>270.5</ele>
        <time>2021-07-31T09:07:12Z</time>
      </trkpt>
      <trkpt lat="48.73713" lon="6.91">
        <ele>270.2</ele>
        <time>2021-07-31T09:07:13Z</time>
      </trkpt>
      <trkpt lat="48.73703" lon="6.91014">
        <ele>269.4</ele>
        <time>2021-07-31T09:07:15Z</time>
      </trkpt>
      <trkpt lat="48.73693" lon="6.91031">
        <ele>268.5</ele>
        <time>2021-07-31T09:07:17Z</time>
      </trkpt>
      <trkpt lat="48.73689" lon="6.9104">
        <ele>268</ele>
        <time>2021-07-31T09:07:18Z</time>
      </trkpt>
      <trkpt lat="48.7368" lon="6.91058">
        <ele>267.1</ele>
        <time>2021-07-31T09:07:20Z</time>
      </trkpt>
      <trkpt lat="48.73676" lon="6.91066">
        <ele>266.7</ele>
        <time>2021-07-31T09:07:21Z</time>
      </trkpt>
      <trkpt lat="48.73672" lon="6.91073">
        <ele>266.3</ele>
        <time>2021-07-31T09:07:22Z</time>
      </trkpt>
      <trkpt lat="48.73667" lon="6.9108">
        <ele>266</ele>
        <time>2021-07-31T09:07:23Z</time>
      </trkpt>
      <trkpt lat="48.73662" lon="6.91088">
        <ele>265.7</ele>
        <time>2021-07-31T09:07:24Z</time>
      </trkpt>
      <trkpt lat="48.73652" lon="6.91098">
        <ele>265.1</ele>
        <time>2021-07-31T09:07:26Z</time>
      </trkpt>
      <trkpt lat="48.73648" lon="6.91105">
        <ele>264.8</ele>
        <time>2021-07-31T09:07:27Z</time>
      </trkpt>
      <trkpt lat="48.73645" lon="6.91114">
        <ele>264.5</ele>
        <time>2021-07-31T09:07:28Z</time>
      </trkpt>
      <trkpt lat="48.73636" lon="6.91126">
        <ele>263.9</ele>
        <time>2021-07-31T09:07:30Z</time>
      </trkpt>
      <trkpt lat="48.73631" lon="6.91132">
        <ele>263.5</ele>
        <time>2021-07-31T09:07:31Z</time>
      </trkpt>
      <trkpt lat="48.73623" lon="6.91145">
        <ele>262.9</ele>
        <time>2021-07-31T09:07:33Z</time>
      </trkpt>
      <trkpt lat="48.73619" lon="6.91153">
        <ele>262.7</ele>
        <time>2021-07-31T09:07:34Z</time>
      </trkpt>
      <trkpt lat="48.73615" lon="6.91159">
        <ele>262.6</ele>
        <time>2021-07-31T09:07:35Z</time>
      </trkpt>
      <trkpt lat="48.73606" lon="6.91172">
        <ele>262.5</ele>
        <time>2021-07-31T09:07:37Z</time>
      </trkpt>
      <trkpt lat="48.73601" lon="6.91182">
        <ele>262.4</ele>
        <time>2021-07-31T09:07:39Z</time>
      </trkpt>
      <trkpt lat="48.73599" lon="6.91186">
        <ele>262.4</ele>
        <time>2021-07-31T09:07:40Z</time>
      </trkpt>
      <trkpt lat="48.73597" lon="6.91192">
        <ele>262.4</ele>
        <time>2021-07-31T09:07:41Z</time>
      </trkpt>
      <trkpt lat="48.73595" lon="6.91199">
        <ele>262.4</ele>
        <time>2021-07-31T09:07:42Z</time>
      </trkpt>
      <trkpt lat="48.73589" lon="6.91216">
        <ele>262.3</ele>
        <time>2021-07-31T09:07:44Z</time>
      </trkpt>
      <trkpt lat="48.73585" lon="6.91232">
        <ele>262.3</ele>
        <time>2021-07-31T09:07:46Z</time>
      </trkpt>
      <trkpt lat="48.73583" lon="6.91239">
        <ele>262.3</ele>
        <time>2021-07-31T09:07:47Z</time>
      </trkpt>
      <trkpt lat="48.7358" lon="6.91245">
        <ele>262.3</ele>
        <time>2021-07-31T09:07:48Z</time>
      </trkpt>
      <trkpt lat="48.73573" lon="6.91257">
        <ele>262.3</ele>
        <time>2021-07-31T09:07:50Z</time>
      </trkpt>
      <trkpt lat="48.73569" lon="6.91262">
        <ele>262.3</ele>
        <time>2021-07-31T09:07:51Z</time>
      </trkpt>
      <trkpt lat="48.73561" lon="6.91274">
        <ele>262.1</ele>
        <time>2021-07-31T09:07:53Z</time>
      </trkpt>
      <trkpt lat="48.73555" lon="6.91279">
        <ele>261.9</ele>
        <time>2021-07-31T09:07:54Z</time>
      </trkpt>
      <trkpt lat="48.73543" lon="6.91296">
        <ele>261.3</ele>
        <time>2021-07-31T09:07:56Z</time>
      </trkpt>
      <trkpt lat="48.73537" lon="6.91304">
        <ele>261</ele>
        <time>2021-07-31T09:07:57Z</time>
      </trkpt>
      <trkpt lat="48.73527" lon="6.91319">
        <ele>260.5</ele>
        <time>2021-07-31T09:07:59Z</time>
      </trkpt>
      <trkpt lat="48.73519" lon="6.91336">
        <ele>260.3</ele>
        <time>2021-07-31T09:08:01Z</time>
      </trkpt>
      <trkpt lat="48.73512" lon="6.91357">
        <ele>260.1</ele>
        <time>2021-07-31T09:08:03Z</time>
      </trkpt>
      <trkpt lat="48.73506" lon="6.91374">
        <ele>259.9</ele>
        <time>2021-07-31T09:08:05Z</time>
      </trkpt>
      <trkpt lat="48.73503" lon="6.91382">
        <ele>259.9</ele>
        <time>2021-07-31T09:08:06Z</time>
      </trkpt>
      <trkpt lat="48.73497" lon="6.91395">
        <ele>260.1</ele>
        <time>2021-07-31T09:08:08Z</time>
      </trkpt>
      <trkpt lat="48.73493" lon="6.9141">
        <ele>260.7</ele>
        <time>2021-07-31T09:08:10Z</time>
      </trkpt>
      <trkpt lat="48.73488" lon="6.91425">
        <ele>261.4</ele>
        <time>2021-07-31T09:08:12Z</time>
      </trkpt>
      <trkpt lat="48.73486" lon="6.91426">
        <ele>261.6</ele>
        <time>2021-07-31T09:08:13Z</time>
      </trkpt>
      <trkpt lat="48.73481" lon="6.91436">
        <ele>262.1</ele>
        <time>2021-07-31T09:08:15Z</time>
      </trkpt>
      <trkpt lat="48.73476" lon="6.91446">
        <ele>262.7</ele>
        <time>2021-07-31T09:08:17Z</time>
      </trkpt>
      <trkpt lat="48.73472" lon="6.91454">
        <ele>263.1</ele>
        <time>2021-07-31T09:08:18Z</time>
      </trkpt>
      <trkpt lat="48.73471" lon="6.91459">
        <ele>263.3</ele>
        <time>2021-07-31T09:08:19Z</time>
      </trkpt>
      <trkpt lat="48.73467" lon="6.91467">
        <ele>263.7</ele>
        <time>2021-07-31T09:08:21Z</time>
      </trkpt>
      <trkpt lat="48.73463" lon="6.91474">
        <ele>264.1</ele>
        <time>2021-07-31T09:08:23Z</time>
      </trkpt>
      <trkpt lat="48.7346" lon="6.91479">
        <ele>264.4</ele>
        <time>2021-07-31T09:08:25Z</time>
      </trkpt>
      <trkpt lat="48.73456" lon="6.91484">
        <ele>264.6</ele>
        <time>2021-07-31T09:08:27Z</time>
      </trkpt>
      <trkpt lat="48.73455" lon="6.91487">
        <ele>264.8</ele>
        <time>2021-07-31T09:08:28Z</time>
      </trkpt>
      <trkpt lat="48.73451" lon="6.91494">
        <ele>265</ele>
        <time>2021-07-31T09:08:30Z</time>
      </trkpt>
      <trkpt lat="48.7345" lon="6.91497">
        <ele>265.2</ele>
        <time>2021-07-31T09:08:31Z</time>
      </trkpt>
      <trkpt lat="48.73445" lon="6.91503">
        <ele>265.4</ele>
        <time>2021-07-31T09:08:33Z</time>
      </trkpt>
      <trkpt lat="48.73444" lon="6.91507">
        <ele>265.5</ele>
        <time>2021-07-31T09:08:34Z</time>
      </trkpt>
      <trkpt lat="48.73442" lon="6.91511">
        <ele>265.7</ele>
        <time>2021-07-31T09:08:35Z</time>
      </trkpt>
      <trkpt lat="48.73438" lon="6.91519">
        <ele>265.9</ele>
        <time>2021-07-31T09:08:37Z</time>
      </trkpt>
      <trkpt lat="48.73437" lon="6.91523">
        <ele>266</ele>
        <time>2021-07-31T09:08:38Z</time>
      </trkpt>
      <trkpt lat="48.73436" lon="6.91528">
        <ele>266</ele>
        <time>2021-07-31T09:08:39Z</time>
      </trkpt>
      <trkpt lat="48.73436" lon="6.91533">
        <ele>266.1</ele>
        <time>2021-07-31T09:08:40Z</time>
      </trkpt>
      <trkpt lat="48.73435" lon="6.91538">
        <ele>266.2</ele>
        <time>2021-07-31T09:08:41Z</time>
      </trkpt>
      <trkpt lat="48.73433" lon="6.91543">
        <ele>266.2</ele>
        <time>2021-07-31T09:08:42Z</time>
      </trkpt>
      <trkpt lat="48.7343" lon="6.91549">
        <ele>266.3</ele>
        <time>2021-07-31T09:08:44Z</time>
      </trkpt>
      <trkpt lat="48.73428" lon="6.91555">
        <ele>266.4</ele>
        <time>2021-07-31T09:08:46Z</time>
      </trkpt>
      <trkpt lat="48.73427" lon="6.91559">
        <ele>266.4</ele>
        <time>2021-07-31T09:08:48Z</time>
      </trkpt>
      <trkpt lat="48.73426" lon="6.91562">
        <ele>266.4</ele>
        <time>2021-07-31T09:08:49Z</time>
      </trkpt>
      <trkpt lat="48.73425" lon="6.91567">
        <ele>266.4</ele>
        <time>2021-07-31T09:08:51Z</time>
      </trkpt>
      <trkpt lat="48.73423" lon="6.91574">
        <ele>266.4</ele>
        <time>2021-07-31T09:08:53Z</time>
      </trkpt>
      <trkpt lat="48.73422" lon="6.91579">
        <ele>266.4</ele>
        <time>2021-07-31T09:08:54Z</time>
      </trkpt>
      <trkpt lat="48.73417" lon="6.91584">
        <ele>266.4</ele>
        <time>2021-07-31T09:08:56Z</time>
      </trkpt>
      <trkpt lat="48.73413" lon="6.9159">
        <ele>266.3</ele>
        <time>2021-07-31T09:08:58Z</time>
      </trkpt>
      <trkpt lat="48.73408" lon="6.91598">
        <ele>266.3</ele>
        <time>2021-07-31T09:09:00Z</time>
      </trkpt>
      <trkpt lat="48.73401" lon="6.91605">
        <ele>266.2</ele>
        <time>2021-07-31T09:09:02Z</time>
      </trkpt>
      <trkpt lat="48.73398" lon="6.91609">
        <ele>266.1</ele>
        <time>2021-07-31T09:09:03Z</time>
      </trkpt>
      <trkpt lat="48.73394" lon="6.91615">
        <ele>266.1</ele>
        <time>2021-07-31T09:09:04Z</time>
      </trkpt>
      <trkpt lat="48.73392" lon="6.91619">
        <ele>266</ele>
        <time>2021-07-31T09:09:05Z</time>
      </trkpt>
      <trkpt lat="48.73389" lon="6.91624">
        <ele>266</ele>
        <time>2021-07-31T09:09:07Z</time>
      </trkpt>
      <trkpt lat="48.73388" lon="6.91629">
        <ele>265.9</ele>
        <time>2021-07-31T09:09:08Z</time>
      </trkpt>
      <trkpt lat="48.73386" lon="6.91634">
        <ele>265.8</ele>
        <time>2021-07-31T09:09:09Z</time>
      </trkpt>
      <trkpt lat="48.73381" lon="6.91645">
        <ele>265.7</ele>
        <time>2021-07-31T09:09:10Z</time>
      </trkpt>
      <trkpt lat="48.73376" lon="6.9166">
        <ele>265.4</ele>
        <time>2021-07-31T09:09:12Z</time>
      </trkpt>
      <trkpt lat="48.7337" lon="6.91678">
        <ele>265.1</ele>
        <time>2021-07-31T09:09:14Z</time>
      </trkpt>
      <trkpt lat="48.73367" lon="6.91686">
        <ele>264.9</ele>
        <time>2021-07-31T09:09:15Z</time>
      </trkpt>
      <trkpt lat="48.73361" lon="6.91703">
        <ele>264.5</ele>
        <time>2021-07-31T09:09:17Z</time>
      </trkpt>
      <trkpt lat="48.73358" lon="6.9171">
        <ele>264.3</ele>
        <time>2021-07-31T09:09:18Z</time>
      </trkpt>
      <trkpt lat="48.73355" lon="6.91717">
        <ele>264.2</ele>
        <time>2021-07-31T09:09:19Z</time>
      </trkpt>
      <trkpt lat="48.73352" lon="6.91722">
        <ele>264</ele>
        <time>2021-07-31T09:09:20Z</time>
      </trkpt>
      <trkpt lat="48.73348" lon="6.91728">
        <ele>263.8</ele>
        <time>2021-07-31T09:09:21Z</time>
      </trkpt>
      <trkpt lat="48.73345" lon="6.91735">
        <ele>263.5</ele>
        <time>2021-07-31T09:09:22Z</time>
      </trkpt>
      <trkpt lat="48.73342" lon="6.91742">
        <ele>263.2</ele>
        <time>2021-07-31T09:09:23Z</time>
      </trkpt>
      <trkpt lat="48.73338" lon="6.91749">
        <ele>263</ele>
        <time>2021-07-31T09:09:24Z</time>
      </trkpt>
      <trkpt lat="48.73335" lon="6.91756">
        <ele>262.6</ele>
        <time>2021-07-31T09:09:25Z</time>
      </trkpt>
      <trkpt lat="48.73326" lon="6.9177">
        <ele>262.1</ele>
        <time>2021-07-31T09:09:27Z</time>
      </trkpt>
      <trkpt lat="48.73318" lon="6.91782">
        <ele>261.5</ele>
        <time>2021-07-31T09:09:29Z</time>
      </trkpt>
      <trkpt lat="48.73314" lon="6.91789">
        <ele>261.2</ele>
        <time>2021-07-31T09:09:30Z</time>
      </trkpt>
      <trkpt lat="48.73309" lon="6.91805">
        <ele>260.8</ele>
        <time>2021-07-31T09:09:32Z</time>
      </trkpt>
      <trkpt lat="48.73306" lon="6.9182">
        <ele>260.6</ele>
        <time>2021-07-31T09:09:34Z</time>
      </trkpt>
      <trkpt lat="48.73306" lon="6.91826">
        <ele>260.5</ele>
        <time>2021-07-31T09:09:35Z</time>
      </trkpt>
      <trkpt lat="48.73305" lon="6.9183">
        <ele>260.5</ele>
        <time>2021-07-31T09:09:36Z</time>
      </trkpt>
      <trkpt lat="48.73302" lon="6.91843">
        <ele>260.5</ele>
        <time>2021-07-31T09:09:38Z</time>
      </trkpt>
      <trkpt lat="48.733" lon="6.91851">
        <ele>260.4</ele>
        <time>2021-07-31T09:09:39Z</time>
      </trkpt>
      <trkpt lat="48.73298" lon="6.91858">
        <ele>260.4</ele>
        <time>2021-07-31T09:09:40Z</time>
      </trkpt>
      <trkpt lat="48.73294" lon="6.91865">
        <ele>260.4</ele>
        <time>2021-07-31T09:09:41Z</time>
      </trkpt>
      <trkpt lat="48.73291" lon="6.9187">
        <ele>260.4</ele>
        <time>2021-07-31T09:09:42Z</time>
      </trkpt>
      <trkpt lat="48.73284" lon="6.91884">
        <ele>260.4</ele>
        <time>2021-07-31T09:09:44Z</time>
      </trkpt>
      <trkpt lat="48.73281" lon="6.91893">
        <ele>260.5</ele>
        <time>2021-07-31T09:09:46Z</time>
      </trkpt>
      <trkpt lat="48.7328" lon="6.91908">
        <ele>260.6</ele>
        <time>2021-07-31T09:09:48Z</time>
      </trkpt>
      <trkpt lat="48.73281" lon="6.91926">
        <ele>260.7</ele>
        <time>2021-07-31T09:09:49Z</time>
      </trkpt>
      <trkpt lat="48.7328" lon="6.91933">
        <ele>260.9</ele>
        <time>2021-07-31T09:09:50Z</time>
      </trkpt>
      <trkpt lat="48.73279" lon="6.91943">
        <ele>261</ele>
        <time>2021-07-31T09:09:51Z</time>
      </trkpt>
      <trkpt lat="48.73278" lon="6.91949">
        <ele>261.2</ele>
        <time>2021-07-31T09:09:52Z</time>
      </trkpt>
      <trkpt lat="48.73277" lon="6.91954">
        <ele>261.3</ele>
        <time>2021-07-31T09:09:53Z</time>
      </trkpt>
      <trkpt lat="48.73277" lon="6.9196">
        <ele>261.4</ele>
        <time>2021-07-31T09:09:54Z</time>
      </trkpt>
      <trkpt lat="48.73276" lon="6.91968">
        <ele>261.6</ele>
        <time>2021-07-31T09:09:56Z</time>
      </trkpt>
      <trkpt lat="48.73275" lon="6.91978">
        <ele>261.9</ele>
        <time>2021-07-31T09:09:57Z</time>
      </trkpt>
      <trkpt lat="48.73274" lon="6.91983">
        <ele>262</ele>
        <time>2021-07-31T09:09:58Z</time>
      </trkpt>
      <trkpt lat="48.73273" lon="6.9199">
        <ele>262.2</ele>
        <time>2021-07-31T09:09:59Z</time>
      </trkpt>
      <trkpt lat="48.73272" lon="6.91997">
        <ele>262.4</ele>
        <time>2021-07-31T09:10:00Z</time>
      </trkpt>
      <trkpt lat="48.73271" lon="6.9201">
        <ele>262.7</ele>
        <time>2021-07-31T09:10:02Z</time>
      </trkpt>
      <trkpt lat="48.7327" lon="6.92015">
        <ele>262.9</ele>
        <time>2021-07-31T09:10:03Z</time>
      </trkpt>
      <trkpt lat="48.73268" lon="6.92025">
        <ele>263.2</ele>
        <time>2021-07-31T09:10:05Z</time>
      </trkpt>
      <trkpt lat="48.73267" lon="6.92029">
        <ele>263.3</ele>
        <time>2021-07-31T09:10:06Z</time>
      </trkpt>
      <trkpt lat="48.73264" lon="6.92038">
        <ele>263.6</ele>
        <time>2021-07-31T09:10:08Z</time>
      </trkpt>
      <trkpt lat="48.73262" lon="6.92041">
        <ele>263.7</ele>
        <time>2021-07-31T09:10:09Z</time>
      </trkpt>
      <trkpt lat="48.7326" lon="6.92045">
        <ele>263.8</ele>
        <time>2021-07-31T09:10:10Z</time>
      </trkpt>
      <trkpt lat="48.73259" lon="6.92049">
        <ele>263.9</ele>
        <time>2021-07-31T09:10:11Z</time>
      </trkpt>
      <trkpt lat="48.73258" lon="6.92054">
        <ele>264</ele>
        <time>2021-07-31T09:10:12Z</time>
      </trkpt>
      <trkpt lat="48.73256" lon="6.92058">
        <ele>264.1</ele>
        <time>2021-07-31T09:10:13Z</time>
      </trkpt>
      <trkpt lat="48.73253" lon="6.92068">
        <ele>264.3</ele>
        <time>2021-07-31T09:10:15Z</time>
      </trkpt>
      <trkpt lat="48.73251" lon="6.92073">
        <ele>264.4</ele>
        <time>2021-07-31T09:10:16Z</time>
      </trkpt>
      <trkpt lat="48.73248" lon="6.92082">
        <ele>264.6</ele>
        <time>2021-07-31T09:10:18Z</time>
      </trkpt>
      <trkpt lat="48.73246" lon="6.92086">
        <ele>264.8</ele>
        <time>2021-07-31T09:10:19Z</time>
      </trkpt>
      <trkpt lat="48.73243" lon="6.92094">
        <ele>265</ele>
        <time>2021-07-31T09:10:21Z</time>
      </trkpt>
      <trkpt lat="48.73242" lon="6.92098">
        <ele>265.2</ele>
        <time>2021-07-31T09:10:22Z</time>
      </trkpt>
      <trkpt lat="48.73241" lon="6.92107">
        <ele>265.4</ele>
        <time>2021-07-31T09:10:24Z</time>
      </trkpt>
      <trkpt lat="48.73239" lon="6.92115">
        <ele>265.6</ele>
        <time>2021-07-31T09:10:26Z</time>
      </trkpt>
      <trkpt lat="48.73238" lon="6.92118">
        <ele>265.7</ele>
        <time>2021-07-31T09:10:27Z</time>
      </trkpt>
      <trkpt lat="48.73237" lon="6.92124">
        <ele>265.9</ele>
        <time>2021-07-31T09:10:28Z</time>
      </trkpt>
      <trkpt lat="48.73236" lon="6.92126">
        <ele>265.9</ele>
        <time>2021-07-31T09:10:29Z</time>
      </trkpt>
      <trkpt lat="48.73236" lon="6.92131">
        <ele>266.1</ele>
        <time>2021-07-31T09:10:31Z</time>
      </trkpt>
      <trkpt lat="48.73235" lon="6.92136">
        <ele>266.2</ele>
        <time>2021-07-31T09:10:32Z</time>
      </trkpt>
      <trkpt lat="48.73235" lon="6.92141">
        <ele>266.3</ele>
        <time>2021-07-31T09:10:33Z</time>
      </trkpt>
      <trkpt lat="48.73234" lon="6.92146">
        <ele>266.4</ele>
        <time>2021-07-31T09:10:34Z</time>
      </trkpt>
      <trkpt lat="48.73232" lon="6.92155">
        <ele>266.5</ele>
        <time>2021-07-31T09:10:36Z</time>
      </trkpt>
      <trkpt lat="48.7323" lon="6.92165">
        <ele>266.8</ele>
        <time>2021-07-31T09:10:38Z</time>
      </trkpt>
      <trkpt lat="48.73229" lon="6.92174">
        <ele>266.9</ele>
        <time>2021-07-31T09:10:40Z</time>
      </trkpt>
      <trkpt lat="48.73228" lon="6.9218">
        <ele>267</ele>
        <time>2021-07-31T09:10:42Z</time>
      </trkpt>
      <trkpt lat="48.73228" lon="6.92186">
        <ele>267.1</ele>
        <time>2021-07-31T09:10:44Z</time>
      </trkpt>
      <trkpt lat="48.73227" lon="6.92191">
        <ele>267.1</ele>
        <time>2021-07-31T09:10:46Z</time>
      </trkpt>
      <trkpt lat="48.73227" lon="6.92199">
        <ele>267.2</ele>
        <time>2021-07-31T09:10:48Z</time>
      </trkpt>
      <trkpt lat="48.73227" lon="6.92204">
        <ele>267.2</ele>
        <time>2021-07-31T09:10:49Z</time>
      </trkpt>
      <trkpt lat="48.73226" lon="6.92208">
        <ele>267.3</ele>
        <time>2021-07-31T09:10:50Z</time>
      </trkpt>
      <trkpt lat="48.73225" lon="6.92218">
        <ele>267.3</ele>
        <time>2021-07-31T09:10:52Z</time>
      </trkpt>
      <trkpt lat="48.73223" lon="6.92225">
        <ele>267.3</ele>
        <time>2021-07-31T09:10:54Z</time>
      </trkpt>
      <trkpt lat="48.73222" lon="6.92232">
        <ele>267.3</ele>
        <time>2021-07-31T09:10:56Z</time>
      </trkpt>
      <trkpt lat="48.73222" lon="6.92238">
        <ele>267.3</ele>
        <time>2021-07-31T09:10:57Z</time>
      </trkpt>
      <trkpt lat="48.73222" lon="6.92241">
        <ele>267.2</ele>
        <time>2021-07-31T09:10:58Z</time>
      </trkpt>
      <trkpt lat="48.73221" lon="6.92248">
        <ele>267.2</ele>
        <time>2021-07-31T09:11:00Z</time>
      </trkpt>
      <trkpt lat="48.7322" lon="6.92256">
        <ele>267.1</ele>
        <time>2021-07-31T09:11:01Z</time>
      </trkpt>
      <trkpt lat="48.73218" lon="6.92267">
        <ele>266.9</ele>
        <time>2021-07-31T09:11:03Z</time>
      </trkpt>
      <trkpt lat="48.73216" lon="6.92277">
        <ele>266.7</ele>
        <time>2021-07-31T09:11:04Z</time>
      </trkpt>
      <trkpt lat="48.73211" lon="6.92293">
        <ele>266.4</ele>
        <time>2021-07-31T09:11:06Z</time>
      </trkpt>
      <trkpt lat="48.73208" lon="6.92301">
        <ele>266.3</ele>
        <time>2021-07-31T09:11:07Z</time>
      </trkpt>
      <trkpt lat="48.73201" lon="6.92317">
        <ele>266.1</ele>
        <time>2021-07-31T09:11:09Z</time>
      </trkpt>
      <trkpt lat="48.73194" lon="6.92332">
        <ele>266</ele>
        <time>2021-07-31T09:11:11Z</time>
      </trkpt>
      <trkpt lat="48.73187" lon="6.92346">
        <ele>266.1</ele>
        <time>2021-07-31T09:11:13Z</time>
      </trkpt>
      <trkpt lat="48.73182" lon="6.92356">
        <ele>266.2</ele>
        <time>2021-07-31T09:11:15Z</time>
      </trkpt>
      <trkpt lat="48.73176" lon="6.92364">
        <ele>266.3</ele>
        <time>2021-07-31T09:11:17Z</time>
      </trkpt>
      <trkpt lat="48.73174" lon="6.92369">
        <ele>266.4</ele>
        <time>2021-07-31T09:11:18Z</time>
      </trkpt>
      <trkpt lat="48.73172" lon="6.92374">
        <ele>266.4</ele>
        <time>2021-07-31T09:11:19Z</time>
      </trkpt>
      <trkpt lat="48.7317" lon="6.92379">
        <ele>266.5</ele>
        <time>2021-07-31T09:11:20Z</time>
      </trkpt>
      <trkpt lat="48.73168" lon="6.92381">
        <ele>266.5</ele>
        <time>2021-07-31T09:11:21Z</time>
      </trkpt>
      <trkpt lat="48.73168" lon="6.92384">
        <ele>266.5</ele>
        <time>2021-07-31T09:11:23Z</time>
      </trkpt>
      <trkpt lat="48.73167" lon="6.92387">
        <ele>266.6</ele>
        <time>2021-07-31T09:11:24Z</time>
      </trkpt>
      <trkpt lat="48.73168" lon="6.92387">
        <ele>266.6</ele>
        <time>2021-07-31T09:11:25Z</time>
      </trkpt>
      <trkpt lat="48.73168" lon="6.92387">
        <ele>266.6</ele>
        <time>2021-07-31T09:11:27Z</time>
      </trkpt>
      <trkpt lat="48.73168" lon="6.92387">
        <ele>266.6</ele>
        <time>2021-07-31T09:11:28Z</time>
      </trkpt>
      <trkpt lat="48.73168" lon="6.92386">
        <ele>266.6</ele>
        <time>2021-07-31T09:11:30Z</time>
      </trkpt>
      <trkpt lat="48.73168" lon="6.92386">
        <ele>266.6</ele>
        <time>2021-07-31T09:11:31Z</time>
      </trkpt>
      <trkpt lat="48.73168" lon="6.92386">
        <ele>266.6</ele>
        <time>2021-07-31T09:11:32Z</time>
      </trkpt>
      <trkpt lat="48.73168" lon="6.92386">
        <ele>266.6</ele>
        <time>2021-07-31T09:11:34Z</time>
      </trkpt>
      <trkpt lat="48.73168" lon="6.92386">
        <ele>266.6</ele>
        <time>2021-07-31T09:11:35Z</time>
      </trkpt>
      <trkpt lat="48.73157" lon="6.92423">
        <ele>266.5</ele>
        <time>2021-07-31T09:12:53Z</time>
      </trkpt>
      <trkpt lat="48.73154" lon="6.92426">
        <ele>266.5</ele>
        <time>2021-07-31T09:12:54Z</time>
      </trkpt>
      <trkpt lat="48.73149" lon="6.92435">
        <ele>266.4</ele>
        <time>2021-07-31T09:12:56Z</time>
      </trkpt>
      <trkpt lat="48.73146" lon="6.92443">
        <ele>266.3</ele>
        <time>2021-07-31T09:12:57Z</time>
      </trkpt>
      <trkpt lat="48.73143" lon="6.92456">
        <ele>266</ele>
        <time>2021-07-31T09:12:59Z</time>
      </trkpt>
      <trkpt lat="48.73142" lon="6.9246">
        <ele>266</ele>
        <time>2021-07-31T09:13:00Z</time>
      </trkpt>
      <trkpt lat="48.7314" lon="6.92468">
        <ele>265.8</ele>
        <time>2021-07-31T09:13:02Z</time>
      </trkpt>
      <trkpt lat="48.7314" lon="6.92479">
        <ele>265.5</ele>
        <time>2021-07-31T09:13:04Z</time>
      </trkpt>
      <trkpt lat="48.73139" lon="6.92488">
        <ele>265.3</ele>
        <time>2021-07-31T09:13:05Z</time>
      </trkpt>
      <trkpt lat="48.73138" lon="6.92505">
        <ele>264.9</ele>
        <time>2021-07-31T09:13:07Z</time>
      </trkpt>
      <trkpt lat="48.73139" lon="6.92523">
        <ele>264.5</ele>
        <time>2021-07-31T09:13:09Z</time>
      </trkpt>
      <trkpt lat="48.73143" lon="6.92541">
        <ele>264.1</ele>
        <time>2021-07-31T09:13:11Z</time>
      </trkpt>
      <trkpt lat="48.73145" lon="6.9255">
        <ele>264</ele>
        <time>2021-07-31T09:13:12Z</time>
      </trkpt>
      <trkpt lat="48.73146" lon="6.92568">
        <ele>263.7</ele>
        <time>2021-07-31T09:13:14Z</time>
      </trkpt>
      <trkpt lat="48.73146" lon="6.92578">
        <ele>263.6</ele>
        <time>2021-07-31T09:13:15Z</time>
      </trkpt>
      <trkpt lat="48.73149" lon="6.92597">
        <ele>263.4</ele>
        <time>2021-07-31T09:13:17Z</time>
      </trkpt>
      <trkpt lat="48.73152" lon="6.92606">
        <ele>263.4</ele>
        <time>2021-07-31T09:13:18Z</time>
      </trkpt>
      <trkpt lat="48.73157" lon="6.92623">
        <ele>263.3</ele>
        <time>2021-07-31T09:13:20Z</time>
      </trkpt>
      <trkpt lat="48.73159" lon="6.92641">
        <ele>263.3</ele>
        <time>2021-07-31T09:13:22Z</time>
      </trkpt>
      <trkpt lat="48.73161" lon="6.92649">
        <ele>263.3</ele>
        <time>2021-07-31T09:13:23Z</time>
      </trkpt>
      <trkpt lat="48.73163" lon="6.92659">
        <ele>263.3</ele>
        <time>2021-07-31T09:13:24Z</time>
      </trkpt>
      <trkpt lat="48.73168" lon="6.92676">
        <ele>263.4</ele>
        <time>2021-07-31T09:13:26Z</time>
      </trkpt>
      <trkpt lat="48.7317" lon="6.92685">
        <ele>263.4</ele>
        <time>2021-07-31T09:13:27Z</time>
      </trkpt>
      <trkpt lat="48.73172" lon="6.92693">
        <ele>263.5</ele>
        <time>2021-07-31T09:13:28Z</time>
      </trkpt>
      <trkpt lat="48.73174" lon="6.92701">
        <ele>263.5</ele>
        <time>2021-07-31T09:13:29Z</time>
      </trkpt>
      <trkpt lat="48.73175" lon="6.92709">
        <ele>263.5</ele>
        <time>2021-07-31T09:13:30Z</time>
      </trkpt>
      <trkpt lat="48.73179" lon="6.92727">
        <ele>263.6</ele>
        <time>2021-07-31T09:13:32Z</time>
      </trkpt>
      <trkpt lat="48.73181" lon="6.92735">
        <ele>263.6</ele>
        <time>2021-07-31T09:13:33Z</time>
      </trkpt>
      <trkpt lat="48.73184" lon="6.92753">
        <ele>263.7</ele>
        <time>2021-07-31T09:13:35Z</time>
      </trkpt>
      <trkpt lat="48.73185" lon="6.92762">
        <ele>263.8</ele>
        <time>2021-07-31T09:13:36Z</time>
      </trkpt>
      <trkpt lat="48.73185" lon="6.9278">
        <ele>263.9</ele>
        <time>2021-07-31T09:13:38Z</time>
      </trkpt>
      <trkpt lat="48.73186" lon="6.92788">
        <ele>264</ele>
        <time>2021-07-31T09:13:39Z</time>
      </trkpt>
      <trkpt lat="48.73184" lon="6.92803">
        <ele>264.1</ele>
        <time>2021-07-31T09:13:41Z</time>
      </trkpt>
      <trkpt lat="48.73183" lon="6.92811">
        <ele>264.2</ele>
        <time>2021-07-31T09:13:42Z</time>
      </trkpt>
      <trkpt lat="48.7318" lon="6.92827">
        <ele>264.4</ele>
        <time>2021-07-31T09:13:44Z</time>
      </trkpt>
      <trkpt lat="48.73177" lon="6.92841">
        <ele>264.5</ele>
        <time>2021-07-31T09:13:46Z</time>
      </trkpt>
      <trkpt lat="48.73176" lon="6.92847">
        <ele>264.6</ele>
        <time>2021-07-31T09:13:47Z</time>
      </trkpt>
      <trkpt lat="48.73173" lon="6.92859">
        <ele>264.7</ele>
        <time>2021-07-31T09:13:49Z</time>
      </trkpt>
      <trkpt lat="48.73171" lon="6.92865">
        <ele>264.8</ele>
        <time>2021-07-31T09:13:50Z</time>
      </trkpt>
      <trkpt lat="48.7317" lon="6.92871">
        <ele>264.8</ele>
        <time>2021-07-31T09:13:51Z</time>
      </trkpt>
      <trkpt lat="48.73166" lon="6.92887">
        <ele>265</ele>
        <time>2021-07-31T09:13:53Z</time>
      </trkpt>
      <trkpt lat="48.73166" lon="6.92886">
        <ele>265</ele>
        <time>2021-07-31T09:13:54Z</time>
      </trkpt>
      <trkpt lat="48.73164" lon="6.92889">
        <ele>265</ele>
        <time>2021-07-31T09:13:55Z</time>
      </trkpt>
      <trkpt lat="48.73161" lon="6.92901">
        <ele>265.1</ele>
        <time>2021-07-31T09:13:57Z</time>
      </trkpt>
      <trkpt lat="48.73158" lon="6.9291">
        <ele>265.1</ele>
        <time>2021-07-31T09:13:59Z</time>
      </trkpt>
      <trkpt lat="48.73156" lon="6.92917">
        <ele>265.2</ele>
        <time>2021-07-31T09:14:00Z</time>
      </trkpt>
      <trkpt lat="48.73154" lon="6.92926">
        <ele>265.2</ele>
        <time>2021-07-31T09:14:01Z</time>
      </trkpt>
      <trkpt lat="48.73153" lon="6.92932">
        <ele>265.2</ele>
        <time>2021-07-31T09:14:02Z</time>
      </trkpt>
      <trkpt lat="48.73152" lon="6.92938">
        <ele>265.2</ele>
        <time>2021-07-31T09:14:03Z</time>
      </trkpt>
      <trkpt lat="48.73149" lon="6.92944">
        <ele>265.2</ele>
        <time>2021-07-31T09:14:04Z</time>
      </trkpt>
      <trkpt lat="48.73146" lon="6.92952">
        <ele>265.2</ele>
        <time>2021-07-31T09:14:05Z</time>
      </trkpt>
      <trkpt lat="48.73143" lon="6.92958">
        <ele>265.2</ele>
        <time>2021-07-31T09:14:07Z</time>
      </trkpt>
      <trkpt lat="48.73141" lon="6.92964">
        <ele>265.1</ele>
        <time>2021-07-31T09:14:08Z</time>
      </trkpt>
      <trkpt lat="48.73138" lon="6.92972">
        <ele>265.1</ele>
        <time>2021-07-31T09:14:09Z</time>
      </trkpt>
      <trkpt lat="48.73137" lon="6.92982">
        <ele>265</ele>
        <time>2021-07-31T09:14:10Z</time>
      </trkpt>
      <trkpt lat="48.73135" lon="6.9299">
        <ele>265</ele>
        <time>2021-07-31T09:14:11Z</time>
      </trkpt>
      <trkpt lat="48.73132" lon="6.92997">
        <ele>265</ele>
        <time>2021-07-31T09:14:12Z</time>
      </trkpt>
      <trkpt lat="48.7313" lon="6.93011">
        <ele>264.9</ele>
        <time>2021-07-31T09:14:14Z</time>
      </trkpt>
      <trkpt lat="48.73128" lon="6.93017">
        <ele>264.8</ele>
        <time>2021-07-31T09:14:15Z</time>
      </trkpt>
      <trkpt lat="48.73126" lon="6.9303">
        <ele>264.7</ele>
        <time>2021-07-31T09:14:17Z</time>
      </trkpt>
      <trkpt lat="48.73125" lon="6.93037">
        <ele>264.7</ele>
        <time>2021-07-31T09:14:18Z</time>
      </trkpt>
      <trkpt lat="48.73125" lon="6.93043">
        <ele>264.7</ele>
        <time>2021-07-31T09:14:19Z</time>
      </trkpt>
      <trkpt lat="48.73124" lon="6.93048">
        <ele>264.6</ele>
        <time>2021-07-31T09:14:20Z</time>
      </trkpt>
      <trkpt lat="48.73121" lon="6.93053">
        <ele>264.6</ele>
        <time>2021-07-31T09:14:21Z</time>
      </trkpt>
      <trkpt lat="48.73119" lon="6.93057">
        <ele>264.6</ele>
        <time>2021-07-31T09:14:22Z</time>
      </trkpt>
      <trkpt lat="48.73116" lon="6.93059">
        <ele>264.5</ele>
        <time>2021-07-31T09:14:24Z</time>
      </trkpt>
      <trkpt lat="48.73115" lon="6.93059">
        <ele>264.5</ele>
        <time>2021-07-31T09:14:25Z</time>
      </trkpt>
      <trkpt lat="48.73112" lon="6.9306">
        <ele>264.5</ele>
        <time>2021-07-31T09:14:26Z</time>
      </trkpt>
      <trkpt lat="48.73108" lon="6.93063">
        <ele>264.5</ele>
        <time>2021-07-31T09:14:28Z</time>
      </trkpt>
      <trkpt lat="48.73104" lon="6.93069">
        <ele>264.5</ele>
        <time>2021-07-31T09:14:30Z</time>
      </trkpt>
      <trkpt lat="48.731" lon="6.93077">
        <ele>264.5</ele>
        <time>2021-07-31T09:14:32Z</time>
      </trkpt>
      <trkpt lat="48.73095" lon="6.93083">
        <ele>264.6</ele>
        <time>2021-07-31T09:14:33Z</time>
      </trkpt>
      <trkpt lat="48.73092" lon="6.93086">
        <ele>264.7</ele>
        <time>2021-07-31T09:14:34Z</time>
      </trkpt>
      <trkpt lat="48.73087" lon="6.9309">
        <ele>264.8</ele>
        <time>2021-07-31T09:14:36Z</time>
      </trkpt>
      <trkpt lat="48.73083" lon="6.93095">
        <ele>265</ele>
        <time>2021-07-31T09:14:38Z</time>
      </trkpt>
      <trkpt lat="48.7308" lon="6.93099">
        <ele>265.1</ele>
        <time>2021-07-31T09:14:39Z</time>
      </trkpt>
      <trkpt lat="48.73077" lon="6.93102">
        <ele>265.2</ele>
        <time>2021-07-31T09:14:40Z</time>
      </trkpt>
      <trkpt lat="48.73072" lon="6.93107">
        <ele>265.4</ele>
        <time>2021-07-31T09:14:42Z</time>
      </trkpt>
      <trkpt lat="48.73068" lon="6.93111">
        <ele>265.6</ele>
        <time>2021-07-31T09:14:44Z</time>
      </trkpt>
      <trkpt lat="48.73064" lon="6.93116">
        <ele>265.8</ele>
        <time>2021-07-31T09:14:45Z</time>
      </trkpt>
      <trkpt lat="48.7306" lon="6.9312">
        <ele>266.1</ele>
        <time>2021-07-31T09:14:47Z</time>
      </trkpt>
      <trkpt lat="48.73057" lon="6.93124">
        <ele>266.3</ele>
        <time>2021-07-31T09:14:49Z</time>
      </trkpt>
      <trkpt lat="48.73054" lon="6.93126">
        <ele>266.5</ele>
        <time>2021-07-31T09:14:50Z</time>
      </trkpt>
      <trkpt lat="48.73051" lon="6.93128">
        <ele>266.6</ele>
        <time>2021-07-31T09:14:52Z</time>
      </trkpt>
      <trkpt lat="48.73048" lon="6.93129">
        <ele>266.8</ele>
        <time>2021-07-31T09:14:54Z</time>
      </trkpt>
      <trkpt lat="48.73046" lon="6.93129">
        <ele>266.9</ele>
        <time>2021-07-31T09:14:55Z</time>
      </trkpt>
      <trkpt lat="48.73045" lon="6.93129">
        <ele>267</ele>
        <time>2021-07-31T09:14:56Z</time>
      </trkpt>
      <trkpt lat="48.73043" lon="6.93131">
        <ele>267.1</ele>
        <time>2021-07-31T09:14:57Z</time>
      </trkpt>
      <trkpt lat="48.73041" lon="6.93133">
        <ele>267.2</ele>
        <time>2021-07-31T09:14:59Z</time>
      </trkpt>
      <trkpt lat="48.73039" lon="6.93135">
        <ele>267.4</ele>
        <time>2021-07-31T09:15:00Z</time>
      </trkpt>
      <trkpt lat="48.73038" lon="6.93136">
        <ele>267.4</ele>
        <time>2021-07-31T09:15:01Z</time>
      </trkpt>
      <trkpt lat="48.73034" lon="6.93139">
        <ele>267.7</ele>
        <time>2021-07-31T09:15:03Z</time>
      </trkpt>
      <trkpt lat="48.73031" lon="6.93143">
        <ele>268</ele>
        <time>2021-07-31T09:15:05Z</time>
      </trkpt>
      <trkpt lat="48.73027" lon="6.93146">
        <ele>268.2</ele>
        <time>2021-07-31T09:15:07Z</time>
      </trkpt>
      <trkpt lat="48.73024" lon="6.9315">
        <ele>268.4</ele>
        <time>2021-07-31T09:15:09Z</time>
      </trkpt>
      <trkpt lat="48.73022" lon="6.93152">
        <ele>268.5</ele>
        <time>2021-07-31T09:15:10Z</time>
      </trkpt>
      <trkpt lat="48.7302" lon="6.93155">
        <ele>268.7</ele>
        <time>2021-07-31T09:15:12Z</time>
      </trkpt>
      <trkpt lat="48.73019" lon="6.93158">
        <ele>268.8</ele>
        <time>2021-07-31T09:15:13Z</time>
      </trkpt>
      <trkpt lat="48.73018" lon="6.93159">
        <ele>268.9</ele>
        <time>2021-07-31T09:15:14Z</time>
      </trkpt>
      <trkpt lat="48.73017" lon="6.9316">
        <ele>268.9</ele>
        <time>2021-07-31T09:15:15Z</time>
      </trkpt>
      <trkpt lat="48.73016" lon="6.93161">
        <ele>269</ele>
        <time>2021-07-31T09:15:17Z</time>
      </trkpt>
      <trkpt lat="48.73016" lon="6.93162">
        <ele>269</ele>
        <time>2021-07-31T09:15:18Z</time>
      </trkpt>
      <trkpt lat="48.73015" lon="6.93164">
        <ele>269.1</ele>
        <time>2021-07-31T09:15:19Z</time>
      </trkpt>
      <trkpt lat="48.73012" lon="6.93166">
        <ele>269.3</ele>
        <time>2021-07-31T09:15:20Z</time>
      </trkpt>
      <trkpt lat="48.73007" lon="6.9317">
        <ele>269.4</ele>
        <time>2021-07-31T09:15:22Z</time>
      </trkpt>
      <trkpt lat="48.73004" lon="6.93173">
        <ele>269.5</ele>
        <time>2021-07-31T09:15:23Z</time>
      </trkpt>
      <trkpt lat="48.73001" lon="6.93175">
        <ele>269.6</ele>
        <time>2021-07-31T09:15:24Z</time>
      </trkpt>
      <trkpt lat="48.72996" lon="6.93179">
        <ele>269.7</ele>
        <time>2021-07-31T09:15:26Z</time>
      </trkpt>
      <trkpt lat="48.72992" lon="6.93181">
        <ele>269.7</ele>
        <time>2021-07-31T09:15:27Z</time>
      </trkpt>
      <trkpt lat="48.72989" lon="6.93184">
        <ele>269.7</ele>
        <time>2021-07-31T09:15:28Z</time>
      </trkpt>
      <trkpt lat="48.72985" lon="6.93187">
        <ele>269.7</ele>
        <time>2021-07-31T09:15:30Z</time>
      </trkpt>
      <trkpt lat="48.72982" lon="6.93189">
        <ele>269.8</ele>
        <time>2021-07-31T09:15:31Z</time>
      </trkpt>
      <trkpt lat="48.72979" lon="6.93192">
        <ele>269.7</ele>
        <time>2021-07-31T09:15:32Z</time>
      </trkpt>
      <trkpt lat="48.72976" lon="6.93195">
        <ele>269.7</ele>
        <time>2021-07-31T09:15:33Z</time>
      </trkpt>
      <trkpt lat="48.72972" lon="6.93199">
        <ele>269.6</ele>
        <time>2021-07-31T09:15:34Z</time>
      </trkpt>
      <trkpt lat="48.72969" lon="6.93202">
        <ele>269.5</ele>
        <time>2021-07-31T09:15:36Z</time>
      </trkpt>
      <trkpt lat="48.72966" lon="6.93204">
        <ele>269.5</ele>
        <time>2021-07-31T09:15:37Z</time>
      </trkpt>
      <trkpt lat="48.72965" lon="6.93206">
        <ele>269.5</ele>
        <time>2021-07-31T09:15:39Z</time>
      </trkpt>
      <trkpt lat="48.72964" lon="6.93206">
        <ele>269.5</ele>
        <time>2021-07-31T09:15:40Z</time>
      </trkpt>
      <trkpt lat="48.72963" lon="6.93206">
        <ele>269.5</ele>
        <time>2021-07-31T09:15:42Z</time>
      </trkpt>
      <trkpt lat="48.72962" lon="6.93206">
        <ele>269.4</ele>
        <time>2021-07-31T09:15:43Z</time>
      </trkpt>
      <trkpt lat="48.72961" lon="6.93215">
        <ele>269.4</ele>
        <time>2021-07-31T09:15:44Z</time>
      </trkpt>
      <trkpt lat="48.72959" lon="6.93222">
        <ele>269.3</ele>
        <time>2021-07-31T09:15:46Z</time>
      </trkpt>
      <trkpt lat="48.72958" lon="6.9323">
        <ele>269.2</ele>
        <time>2021-07-31T09:15:47Z</time>
      </trkpt>
      <trkpt lat="48.72957" lon="6.93238">
        <ele>269.2</ele>
        <time>2021-07-31T09:15:48Z</time>
      </trkpt>
      <trkpt lat="48.72956" lon="6.93245">
        <ele>269.1</ele>
        <time>2021-07-31T09:15:50Z</time>
      </trkpt>
      <trkpt lat="48.72955" lon="6.93253">
        <ele>269.1</ele>
        <time>2021-07-31T09:15:51Z</time>
      </trkpt>
      <trkpt lat="48.72954" lon="6.93261">
        <ele>269.1</ele>
        <time>2021-07-31T09:15:53Z</time>
      </trkpt>
      <trkpt lat="48.72953" lon="6.93268">
        <ele>269.1</ele>
        <time>2021-07-31T09:16:33Z</time>
      </trkpt>
      <trkpt lat="48.72952" lon="6.93276">
        <ele>269.1</ele>
        <time>2021-07-31T09:16:34Z</time>
      </trkpt>
      <trkpt lat="48.72949" lon="6.93282">
        <ele>269.1</ele>
        <time>2021-07-31T09:16:35Z</time>
      </trkpt>
      <trkpt lat="48.72946" lon="6.93287">
        <ele>269.1</ele>
        <time>2021-07-31T09:16:36Z</time>
      </trkpt>
      <trkpt lat="48.72941" lon="6.93295">
        <ele>269.1</ele>
        <time>2021-07-31T09:16:38Z</time>
      </trkpt>
      <trkpt lat="48.72938" lon="6.933">
        <ele>269.2</ele>
        <time>2021-07-31T09:16:39Z</time>
      </trkpt>
      <trkpt lat="48.72936" lon="6.93306">
        <ele>269.2</ele>
        <time>2021-07-31T09:16:40Z</time>
      </trkpt>
      <trkpt lat="48.72938" lon="6.93311">
        <ele>269.3</ele>
        <time>2021-07-31T09:16:42Z</time>
      </trkpt>
      <trkpt lat="48.72941" lon="6.93313">
        <ele>269.2</ele>
        <time>2021-07-31T09:16:43Z</time>
      </trkpt>
      <trkpt lat="48.72944" lon="6.93313">
        <ele>269.2</ele>
        <time>2021-07-31T09:16:44Z</time>
      </trkpt>
      <trkpt lat="48.72948" lon="6.93309">
        <ele>269.1</ele>
        <time>2021-07-31T09:16:46Z</time>
      </trkpt>
      <trkpt lat="48.72951" lon="6.93296">
        <ele>269.1</ele>
        <time>2021-07-31T09:16:47Z</time>
      </trkpt>
      <trkpt lat="48.72956" lon="6.93284">
        <ele>269.1</ele>
        <time>2021-07-31T09:16:49Z</time>
      </trkpt>
      <trkpt lat="48.72959" lon="6.93278">
        <ele>269.1</ele>
        <time>2021-07-31T09:16:50Z</time>
      </trkpt>
      <trkpt lat="48.72966" lon="6.93268">
        <ele>269.1</ele>
        <time>2021-07-31T09:16:52Z</time>
      </trkpt>
      <trkpt lat="48.7297" lon="6.93262">
        <ele>269.2</ele>
        <time>2021-07-31T09:16:53Z</time>
      </trkpt>
      <trkpt lat="48.72975" lon="6.93256">
        <ele>269.3</ele>
        <time>2021-07-31T09:16:54Z</time>
      </trkpt>
      <trkpt lat="48.72985" lon="6.93244">
        <ele>269.5</ele>
        <time>2021-07-31T09:16:56Z</time>
      </trkpt>
      <trkpt lat="48.72994" lon="6.93232">
        <ele>269.7</ele>
        <time>2021-07-31T09:16:58Z</time>
      </trkpt>
      <trkpt lat="48.72999" lon="6.93226">
        <ele>269.8</ele>
        <time>2021-07-31T09:16:59Z</time>
      </trkpt>
      <trkpt lat="48.73006" lon="6.93217">
        <ele>269.7</ele>
        <time>2021-07-31T09:17:01Z</time>
      </trkpt>
      <trkpt lat="48.73007" lon="6.93211">
        <ele>269.7</ele>
        <time>2021-07-31T09:17:02Z</time>
      </trkpt>
      <trkpt lat="48.73007" lon="6.93209">
        <ele>269.7</ele>
        <time>2021-07-31T09:17:03Z</time>
      </trkpt>
      <trkpt lat="48.73006" lon="6.93204">
        <ele>269.7</ele>
        <time>2021-07-31T09:17:05Z</time>
      </trkpt>
      <trkpt lat="48.73003" lon="6.93202">
        <ele>269.7</ele>
        <time>2021-07-31T09:17:07Z</time>
      </trkpt>
      <trkpt lat="48.73" lon="6.932">
        <ele>269.7</ele>
        <time>2021-07-31T09:17:08Z</time>
      </trkpt>
      <trkpt lat="48.72997" lon="6.93202">
        <ele>269.7</ele>
        <time>2021-07-31T09:17:10Z</time>
      </trkpt>
      <trkpt lat="48.72997" lon="6.93204">
        <ele>269.7</ele>
        <time>2021-07-31T09:17:11Z</time>
      </trkpt>
      <trkpt lat="48.72997" lon="6.93205">
        <ele>269.7</ele>
        <time>2021-07-31T09:17:13Z</time>
      </trkpt>
      <trkpt lat="48.72996" lon="6.93207">
        <ele>269.7</ele>
        <time>2021-07-31T09:17:14Z</time>
      </trkpt>
      <trkpt lat="48.72996" lon="6.93209">
        <ele>269.7</ele>
        <time>2021-07-31T09:17:16Z</time>
      </trkpt>
      <trkpt lat="48.72996" lon="6.9321">
        <ele>269.8</ele>
        <time>2021-07-31T09:17:17Z</time>
      </trkpt>
      <trkpt lat="48.72995" lon="6.93212">
        <ele>269.8</ele>
        <time>2021-07-31T09:17:18Z</time>
      </trkpt>
      <trkpt lat="48.72995" lon="6.93214">
        <ele>269.8</ele>
        <time>2021-07-31T09:17:20Z</time>
      </trkpt>
      <trkpt lat="48.72995" lon="6.93215">
        <ele>269.8</ele>
        <time>2021-07-31T09:17:41Z</time>
      </trkpt>
      <trkpt lat="48.72995" lon="6.93217">
        <ele>269.8</ele>
        <time>2021-07-31T09:17:42Z</time>
      </trkpt>
      <trkpt lat="48.72988" lon="6.93227">
        <ele>269.6</ele>
        <time>2021-07-31T09:17:44Z</time>
      </trkpt>
      <trkpt lat="48.72982" lon="6.93239">
        <ele>269.5</ele>
        <time>2021-07-31T09:17:46Z</time>
      </trkpt>
      <trkpt lat="48.72977" lon="6.93249">
        <ele>269.4</ele>
        <time>2021-07-31T09:17:47Z</time>
      </trkpt>
      <trkpt lat="48.72973" lon="6.93259">
        <ele>269.2</ele>
        <time>2021-07-31T09:17:49Z</time>
      </trkpt>
      <trkpt lat="48.72968" lon="6.93266">
        <ele>269.2</ele>
        <time>2021-07-31T09:17:51Z</time>
      </trkpt>
      <trkpt lat="48.72964" lon="6.93269">
        <ele>269.1</ele>
        <time>2021-07-31T09:17:52Z</time>
      </trkpt>
      <trkpt lat="48.7296" lon="6.93271">
        <ele>269.1</ele>
        <time>2021-07-31T09:17:53Z</time>
      </trkpt>
      <trkpt lat="48.72956" lon="6.93274">
        <ele>269.1</ele>
        <time>2021-07-31T09:17:54Z</time>
      </trkpt>
      <trkpt lat="48.72953" lon="6.93277">
        <ele>269.1</ele>
        <time>2021-07-31T09:17:55Z</time>
      </trkpt>
      <trkpt lat="48.7295" lon="6.93281">
        <ele>269.1</ele>
        <time>2021-07-31T09:17:56Z</time>
      </trkpt>
      <trkpt lat="48.72944" lon="6.93286">
        <ele>269.1</ele>
        <time>2021-07-31T09:17:58Z</time>
      </trkpt>
      <trkpt lat="48.72939" lon="6.93292">
        <ele>269.1</ele>
        <time>2021-07-31T09:18:00Z</time>
      </trkpt>
      <trkpt lat="48.72935" lon="6.93298">
        <ele>269.2</ele>
        <time>2021-07-31T09:18:02Z</time>
      </trkpt>
      <trkpt lat="48.72932" lon="6.93305">
        <ele>269.2</ele>
        <time>2021-07-31T09:18:04Z</time>
      </trkpt>
      <trkpt lat="48.7293" lon="6.93315">
        <ele>269.3</ele>
        <time>2021-07-31T09:18:06Z</time>
      </trkpt>
      <trkpt lat="48.72927" lon="6.93324">
        <ele>269.5</ele>
        <time>2021-07-31T09:18:08Z</time>
      </trkpt>
      <trkpt lat="48.72926" lon="6.93328">
        <ele>269.5</ele>
        <time>2021-07-31T09:18:09Z</time>
      </trkpt>
      <trkpt lat="48.72924" lon="6.93333">
        <ele>269.6</ele>
        <time>2021-07-31T09:18:10Z</time>
      </trkpt>
      <trkpt lat="48.72922" lon="6.93336">
        <ele>269.6</ele>
        <time>2021-07-31T09:18:11Z</time>
      </trkpt>
      <trkpt lat="48.72918" lon="6.9334">
        <ele>269.7</ele>
        <time>2021-07-31T09:18:13Z</time>
      </trkpt>
      <trkpt lat="48.72915" lon="6.93342">
        <ele>269.8</ele>
        <time>2021-07-31T09:18:14Z</time>
      </trkpt>
      <trkpt lat="48.72913" lon="6.93343">
        <ele>269.8</ele>
        <time>2021-07-31T09:18:15Z</time>
      </trkpt>
      <trkpt lat="48.72909" lon="6.93351">
        <ele>270</ele>
        <time>2021-07-31T09:18:17Z</time>
      </trkpt>
      <trkpt lat="48.72907" lon="6.93354">
        <ele>270.1</ele>
        <time>2021-07-31T09:18:18Z</time>
      </trkpt>
      <trkpt lat="48.72905" lon="6.93356">
        <ele>270.2</ele>
        <time>2021-07-31T09:18:19Z</time>
      </trkpt>
      <trkpt lat="48.72903" lon="6.93359">
        <ele>270.3</ele>
        <time>2021-07-31T09:18:20Z</time>
      </trkpt>
      <trkpt lat="48.729" lon="6.93364">
        <ele>270.4</ele>
        <time>2021-07-31T09:18:21Z</time>
      </trkpt>
      <trkpt lat="48.72897" lon="6.93367">
        <ele>270.5</ele>
        <time>2021-07-31T09:18:23Z</time>
      </trkpt>
      <trkpt lat="48.72893" lon="6.93373">
        <ele>270.7</ele>
        <time>2021-07-31T09:18:24Z</time>
      </trkpt>
      <trkpt lat="48.7289" lon="6.93377">
        <ele>270.9</ele>
        <time>2021-07-31T09:18:26Z</time>
      </trkpt>
      <trkpt lat="48.72888" lon="6.93381">
        <ele>271.1</ele>
        <time>2021-07-31T09:18:27Z</time>
      </trkpt>
      <trkpt lat="48.72885" lon="6.93384">
        <ele>271.2</ele>
        <time>2021-07-31T09:18:28Z</time>
      </trkpt>
      <trkpt lat="48.72883" lon="6.93389">
        <ele>271.4</ele>
        <time>2021-07-31T09:18:29Z</time>
      </trkpt>
      <trkpt lat="48.72882" lon="6.9339">
        <ele>271.4</ele>
        <time>2021-07-31T09:18:30Z</time>
      </trkpt>
      <trkpt lat="48.7288" lon="6.93395">
        <ele>271.6</ele>
        <time>2021-07-31T09:18:31Z</time>
      </trkpt>
      <trkpt lat="48.72879" lon="6.93397">
        <ele>271.7</ele>
        <time>2021-07-31T09:18:32Z</time>
      </trkpt>
      <trkpt lat="48.72876" lon="6.934">
        <ele>271.8</ele>
        <time>2021-07-31T09:18:33Z</time>
      </trkpt>
      <trkpt lat="48.72874" lon="6.93402">
        <ele>272.3</ele>
        <time>2021-07-31T09:18:34Z</time>
      </trkpt>
      <trkpt lat="48.72872" lon="6.93402">
        <ele>272.3</ele>
        <time>2021-07-31T09:18:36Z</time>
      </trkpt>
      <trkpt lat="48.72869" lon="6.93403">
        <ele>272.4</ele>
        <time>2021-07-31T09:18:37Z</time>
      </trkpt>
      <trkpt lat="48.72868" lon="6.93403">
        <ele>272.4</ele>
        <time>2021-07-31T09:18:38Z</time>
      </trkpt>
      <trkpt lat="48.72865" lon="6.93402">
        <ele>272.5</ele>
        <time>2021-07-31T09:18:39Z</time>
      </trkpt>
      <trkpt lat="48.72862" lon="6.93401">
        <ele>272.5</ele>
        <time>2021-07-31T09:18:40Z</time>
      </trkpt>
      <trkpt lat="48.72859" lon="6.934">
        <ele>272.5</ele>
        <time>2021-07-31T09:18:41Z</time>
      </trkpt>
      <trkpt lat="48.72856" lon="6.93398">
        <ele>272.6</ele>
        <time>2021-07-31T09:18:42Z</time>
      </trkpt>
      <trkpt lat="48.72854" lon="6.93396">
        <ele>272.6</ele>
        <time>2021-07-31T09:18:43Z</time>
      </trkpt>
      <trkpt lat="48.72851" lon="6.93395">
        <ele>272.6</ele>
        <time>2021-07-31T09:18:45Z</time>
      </trkpt>
      <trkpt lat="48.7285" lon="6.93394">
        <ele>272.6</ele>
        <time>2021-07-31T09:18:46Z</time>
      </trkpt>
      <trkpt lat="48.72846" lon="6.93391">
        <ele>272.6</ele>
        <time>2021-07-31T09:18:47Z</time>
      </trkpt>
      <trkpt lat="48.72844" lon="6.9339">
        <ele>272.6</ele>
        <time>2021-07-31T09:18:48Z</time>
      </trkpt>
      <trkpt lat="48.7284" lon="6.93388">
        <ele>272.6</ele>
        <time>2021-07-31T09:18:50Z</time>
      </trkpt>
      <trkpt lat="48.72836" lon="6.93385">
        <ele>272.6</ele>
        <time>2021-07-31T09:18:51Z</time>
      </trkpt>
      <trkpt lat="48.72832" lon="6.93383">
        <ele>272.6</ele>
        <time>2021-07-31T09:18:53Z</time>
      </trkpt>
      <trkpt lat="48.72828" lon="6.93381">
        <ele>272.6</ele>
        <time>2021-07-31T09:18:54Z</time>
      </trkpt>
      <trkpt lat="48.72826" lon="6.9338">
        <ele>272.6</ele>
        <time>2021-07-31T09:18:55Z</time>
      </trkpt>
      <trkpt lat="48.72824" lon="6.93379">
        <ele>272.6</ele>
        <time>2021-07-31T09:18:56Z</time>
      </trkpt>
      <trkpt lat="48.7282" lon="6.93376">
        <ele>272.6</ele>
        <time>2021-07-31T09:18:58Z</time>
      </trkpt>
      <trkpt lat="48.72817" lon="6.93374">
        <ele>272.6</ele>
        <time>2021-07-31T09:18:59Z</time>
      </trkpt>
      <trkpt lat="48.72814" lon="6.93372">
        <ele>272.6</ele>
        <time>2021-07-31T09:19:00Z</time>
      </trkpt>
      <trkpt lat="48.7281" lon="6.93371">
        <ele>272.6</ele>
        <time>2021-07-31T09:19:01Z</time>
      </trkpt>
      <trkpt lat="48.72807" lon="6.93369">
        <ele>272.6</ele>
        <time>2021-07-31T09:19:02Z</time>
      </trkpt>
      <trkpt lat="48.72804" lon="6.93367">
        <ele>272.6</ele>
        <time>2021-07-31T09:19:03Z</time>
      </trkpt>
      <trkpt lat="48.72798" lon="6.93365">
        <ele>272.6</ele>
        <time>2021-07-31T09:19:05Z</time>
      </trkpt>
      <trkpt lat="48.72794" lon="6.93364">
        <ele>272.6</ele>
        <time>2021-07-31T09:19:06Z</time>
      </trkpt>
      <trkpt lat="48.72789" lon="6.93363">
        <ele>272.6</ele>
        <time>2021-07-31T09:19:08Z</time>
      </trkpt>
      <trkpt lat="48.72785" lon="6.93362">
        <ele>272.6</ele>
        <time>2021-07-31T09:19:09Z</time>
      </trkpt>
      <trkpt lat="48.72781" lon="6.93361">
        <ele>272.6</ele>
        <time>2021-07-31T09:19:10Z</time>
      </trkpt>
      <trkpt lat="48.72778" lon="6.9336">
        <ele>272.6</ele>
        <time>2021-07-31T09:19:11Z</time>
      </trkpt>
      <trkpt lat="48.72775" lon="6.93357">
        <ele>272.5</ele>
        <time>2021-07-31T09:19:12Z</time>
      </trkpt>
      <trkpt lat="48.72773" lon="6.93355">
        <ele>272.5</ele>
        <time>2021-07-31T09:19:13Z</time>
      </trkpt>
      <trkpt lat="48.7277" lon="6.93353">
        <ele>272.5</ele>
        <time>2021-07-31T09:19:14Z</time>
      </trkpt>
      <trkpt lat="48.72766" lon="6.9335">
        <ele>272.4</ele>
        <time>2021-07-31T09:19:16Z</time>
      </trkpt>
      <trkpt lat="48.72761" lon="6.93347">
        <ele>272.4</ele>
        <time>2021-07-31T09:19:17Z</time>
      </trkpt>
      <trkpt lat="48.72758" lon="6.93343">
        <ele>272.3</ele>
        <time>2021-07-31T09:19:18Z</time>
      </trkpt>
      <trkpt lat="48.72756" lon="6.9334">
        <ele>272.3</ele>
        <time>2021-07-31T09:19:19Z</time>
      </trkpt>
      <trkpt lat="48.72753" lon="6.93337">
        <ele>272.3</ele>
        <time>2021-07-31T09:19:20Z</time>
      </trkpt>
      <trkpt lat="48.72748" lon="6.93331">
        <ele>272.3</ele>
        <time>2021-07-31T09:19:22Z</time>
      </trkpt>
      <trkpt lat="48.72742" lon="6.93325">
        <ele>272.2</ele>
        <time>2021-07-31T09:19:24Z</time>
      </trkpt>
      <trkpt lat="48.72737" lon="6.93323">
        <ele>272.2</ele>
        <time>2021-07-31T09:19:25Z</time>
      </trkpt>
      <trkpt lat="48.72732" lon="6.9332">
        <ele>272.2</ele>
        <time>2021-07-31T09:19:27Z</time>
      </trkpt>
      <trkpt lat="48.72727" lon="6.93316">
        <ele>272.2</ele>
        <time>2021-07-31T09:19:28Z</time>
      </trkpt>
      <trkpt lat="48.72724" lon="6.93313">
        <ele>272.2</ele>
        <time>2021-07-31T09:19:29Z</time>
      </trkpt>
      <trkpt lat="48.72721" lon="6.9331">
        <ele>272.2</ele>
        <time>2021-07-31T09:19:30Z</time>
      </trkpt>
      <trkpt lat="48.72714" lon="6.93304">
        <ele>272.2</ele>
        <time>2021-07-31T09:19:32Z</time>
      </trkpt>
      <trkpt lat="48.72707" lon="6.93299">
        <ele>272.2</ele>
        <time>2021-07-31T09:19:34Z</time>
      </trkpt>
      <trkpt lat="48.72703" lon="6.93296">
        <ele>272.3</ele>
        <time>2021-07-31T09:19:35Z</time>
      </trkpt>
      <trkpt lat="48.72699" lon="6.93293">
        <ele>272.3</ele>
        <time>2021-07-31T09:19:36Z</time>
      </trkpt>
      <trkpt lat="48.72694" lon="6.9329">
        <ele>272.4</ele>
        <time>2021-07-31T09:19:38Z</time>
      </trkpt>
      <trkpt lat="48.72689" lon="6.93288">
        <ele>272.4</ele>
        <time>2021-07-31T09:19:39Z</time>
      </trkpt>
      <trkpt lat="48.72686" lon="6.93286">
        <ele>272.5</ele>
        <time>2021-07-31T09:19:40Z</time>
      </trkpt>
      <trkpt lat="48.72682" lon="6.93283">
        <ele>272.5</ele>
        <time>2021-07-31T09:19:41Z</time>
      </trkpt>
      <trkpt lat="48.72678" lon="6.9328">
        <ele>272.6</ele>
        <time>2021-07-31T09:19:42Z</time>
      </trkpt>
      <trkpt lat="48.72672" lon="6.93276">
        <ele>272.7</ele>
        <time>2021-07-31T09:19:44Z</time>
      </trkpt>
      <trkpt lat="48.72669" lon="6.93272">
        <ele>272.7</ele>
        <time>2021-07-31T09:19:45Z</time>
      </trkpt>
      <trkpt lat="48.72666" lon="6.9327">
        <ele>272.8</ele>
        <time>2021-07-31T09:19:46Z</time>
      </trkpt>
      <trkpt lat="48.72663" lon="6.93268">
        <ele>272.8</ele>
        <time>2021-07-31T09:19:47Z</time>
      </trkpt>
      <trkpt lat="48.72659" lon="6.93266">
        <ele>272.9</ele>
        <time>2021-07-31T09:19:49Z</time>
      </trkpt>
      <trkpt lat="48.72657" lon="6.93265">
        <ele>272.9</ele>
        <time>2021-07-31T09:19:50Z</time>
      </trkpt>
      <trkpt lat="48.72655" lon="6.93264">
        <ele>272.9</ele>
        <time>2021-07-31T09:19:51Z</time>
      </trkpt>
      <trkpt lat="48.72652" lon="6.93262">
        <ele>272.9</ele>
        <time>2021-07-31T09:19:52Z</time>
      </trkpt>
      <trkpt lat="48.72649" lon="6.93261">
        <ele>273</ele>
        <time>2021-07-31T09:19:53Z</time>
      </trkpt>
      <trkpt lat="48.72646" lon="6.9326">
        <ele>273</ele>
        <time>2021-07-31T09:19:54Z</time>
      </trkpt>
      <trkpt lat="48.72641" lon="6.93259">
        <ele>273.1</ele>
        <time>2021-07-31T09:19:55Z</time>
      </trkpt>
      <trkpt lat="48.72638" lon="6.93257">
        <ele>273.1</ele>
        <time>2021-07-31T09:19:56Z</time>
      </trkpt>
      <trkpt lat="48.72632" lon="6.93253">
        <ele>273.3</ele>
        <time>2021-07-31T09:19:58Z</time>
      </trkpt>
      <trkpt lat="48.72628" lon="6.9325">
        <ele>273.3</ele>
        <time>2021-07-31T09:19:59Z</time>
      </trkpt>
      <trkpt lat="48.72623" lon="6.93247">
        <ele>273.4</ele>
        <time>2021-07-31T09:20:00Z</time>
      </trkpt>
      <trkpt lat="48.72618" lon="6.93241">
        <ele>273.5</ele>
        <time>2021-07-31T09:20:02Z</time>
      </trkpt>
      <trkpt lat="48.72615" lon="6.93237">
        <ele>273.6</ele>
        <time>2021-07-31T09:20:03Z</time>
      </trkpt>
      <trkpt lat="48.72612" lon="6.93234">
        <ele>273.6</ele>
        <time>2021-07-31T09:20:04Z</time>
      </trkpt>
      <trkpt lat="48.72609" lon="6.93231">
        <ele>273.6</ele>
        <time>2021-07-31T09:20:05Z</time>
      </trkpt>
      <trkpt lat="48.72602" lon="6.93226">
        <ele>273.6</ele>
        <time>2021-07-31T09:20:07Z</time>
      </trkpt>
      <trkpt lat="48.72599" lon="6.93224">
        <ele>273.6</ele>
        <time>2021-07-31T09:20:08Z</time>
      </trkpt>
      <trkpt lat="48.72593" lon="6.93219">
        <ele>273.7</ele>
        <time>2021-07-31T09:20:10Z</time>
      </trkpt>
      <trkpt lat="48.72586" lon="6.93214">
        <ele>273.7</ele>
        <time>2021-07-31T09:20:12Z</time>
      </trkpt>
      <trkpt lat="48.72582" lon="6.93211">
        <ele>273.7</ele>
        <time>2021-07-31T09:20:13Z</time>
      </trkpt>
      <trkpt lat="48.72575" lon="6.93206">
        <ele>273.8</ele>
        <time>2021-07-31T09:20:15Z</time>
      </trkpt>
      <trkpt lat="48.72571" lon="6.93203">
        <ele>273.8</ele>
        <time>2021-07-31T09:20:16Z</time>
      </trkpt>
      <trkpt lat="48.72567" lon="6.93201">
        <ele>273.8</ele>
        <time>2021-07-31T09:20:17Z</time>
      </trkpt>
      <trkpt lat="48.72563" lon="6.93198">
        <ele>273.8</ele>
        <time>2021-07-31T09:20:18Z</time>
      </trkpt>
      <trkpt lat="48.7256" lon="6.93195">
        <ele>273.8</ele>
        <time>2021-07-31T09:20:19Z</time>
      </trkpt>
      <trkpt lat="48.72553" lon="6.93191">
        <ele>273.8</ele>
        <time>2021-07-31T09:20:21Z</time>
      </trkpt>
      <trkpt lat="48.7255" lon="6.93189">
        <ele>273.8</ele>
        <time>2021-07-31T09:20:22Z</time>
      </trkpt>
      <trkpt lat="48.72546" lon="6.93186">
        <ele>273.8</ele>
        <time>2021-07-31T09:20:23Z</time>
      </trkpt>
      <trkpt lat="48.72543" lon="6.93184">
        <ele>273.8</ele>
        <time>2021-07-31T09:20:24Z</time>
      </trkpt>
      <trkpt lat="48.72536" lon="6.9318">
        <ele>273.8</ele>
        <time>2021-07-31T09:20:26Z</time>
      </trkpt>
      <trkpt lat="48.72529" lon="6.93176">
        <ele>273.9</ele>
        <time>2021-07-31T09:20:28Z</time>
      </trkpt>
      <trkpt lat="48.72523" lon="6.93171">
        <ele>273.9</ele>
        <time>2021-07-31T09:20:30Z</time>
      </trkpt>
      <trkpt lat="48.7252" lon="6.93169">
        <ele>273.9</ele>
        <time>2021-07-31T09:20:31Z</time>
      </trkpt>
      <trkpt lat="48.72518" lon="6.93167">
        <ele>273.9</ele>
        <time>2021-07-31T09:20:32Z</time>
      </trkpt>
      <trkpt lat="48.72515" lon="6.93163">
        <ele>273.9</ele>
        <time>2021-07-31T09:20:33Z</time>
      </trkpt>
      <trkpt lat="48.72509" lon="6.93157">
        <ele>274</ele>
        <time>2021-07-31T09:20:35Z</time>
      </trkpt>
      <trkpt lat="48.72506" lon="6.93155">
        <ele>274</ele>
        <time>2021-07-31T09:20:36Z</time>
      </trkpt>
      <trkpt lat="48.72501" lon="6.9315">
        <ele>274.1</ele>
        <time>2021-07-31T09:20:38Z</time>
      </trkpt>
      <trkpt lat="48.72495" lon="6.93145">
        <ele>274.2</ele>
        <time>2021-07-31T09:20:40Z</time>
      </trkpt>
      <trkpt lat="48.72491" lon="6.93142">
        <ele>274.3</ele>
        <time>2021-07-31T09:20:41Z</time>
      </trkpt>
      <trkpt lat="48.72488" lon="6.93139">
        <ele>274.4</ele>
        <time>2021-07-31T09:20:42Z</time>
      </trkpt>
      <trkpt lat="48.72485" lon="6.93136">
        <ele>274.5</ele>
        <time>2021-07-31T09:20:43Z</time>
      </trkpt>
      <trkpt lat="48.72482" lon="6.93133">
        <ele>274.6</ele>
        <time>2021-07-31T09:20:44Z</time>
      </trkpt>
      <trkpt lat="48.72476" lon="6.93128">
        <ele>274.7</ele>
        <time>2021-07-31T09:20:46Z</time>
      </trkpt>
      <trkpt lat="48.72473" lon="6.93125">
        <ele>274.9</ele>
        <time>2021-07-31T09:20:47Z</time>
      </trkpt>
      <trkpt lat="48.7247" lon="6.93122">
        <ele>275</ele>
        <time>2021-07-31T09:20:48Z</time>
      </trkpt>
      <trkpt lat="48.72465" lon="6.93117">
        <ele>275.1</ele>
        <time>2021-07-31T09:20:50Z</time>
      </trkpt>
      <trkpt lat="48.72464" lon="6.93114">
        <ele>275.2</ele>
        <time>2021-07-31T09:20:51Z</time>
      </trkpt>
      <trkpt lat="48.72462" lon="6.93109">
        <ele>275.3</ele>
        <time>2021-07-31T09:20:53Z</time>
      </trkpt>
      <trkpt lat="48.72461" lon="6.93106">
        <ele>275.4</ele>
        <time>2021-07-31T09:20:54Z</time>
      </trkpt>
      <trkpt lat="48.72458" lon="6.931">
        <ele>275.6</ele>
        <time>2021-07-31T09:20:56Z</time>
      </trkpt>
      <trkpt lat="48.72456" lon="6.93098">
        <ele>275.7</ele>
        <time>2021-07-31T09:20:57Z</time>
      </trkpt>
      <trkpt lat="48.72454" lon="6.93095">
        <ele>275.8</ele>
        <time>2021-07-31T09:20:59Z</time>
      </trkpt>
      <trkpt lat="48.72453" lon="6.93091">
        <ele>275.9</ele>
        <time>2021-07-31T09:21:00Z</time>
      </trkpt>
      <trkpt lat="48.7245" lon="6.93087">
        <ele>276</ele>
        <time>2021-07-31T09:21:01Z</time>
      </trkpt>
      <trkpt lat="48.72446" lon="6.93082">
        <ele>276.3</ele>
        <time>2021-07-31T09:21:03Z</time>
      </trkpt>
      <trkpt lat="48.72445" lon="6.93081">
        <ele>276.3</ele>
        <time>2021-07-31T09:21:04Z</time>
      </trkpt>
      <trkpt lat="48.72443" lon="6.93079">
        <ele>276.4</ele>
        <time>2021-07-31T09:21:05Z</time>
      </trkpt>
      <trkpt lat="48.72442" lon="6.93077">
        <ele>276.5</ele>
        <time>2021-07-31T09:21:06Z</time>
      </trkpt>
      <trkpt lat="48.72439" lon="6.93072">
        <ele>276.7</ele>
        <time>2021-07-31T09:21:08Z</time>
      </trkpt>
      <trkpt lat="48.72436" lon="6.93068">
        <ele>276.9</ele>
        <time>2021-07-31T09:21:10Z</time>
      </trkpt>
      <trkpt lat="48.72432" lon="6.93063">
        <ele>277.2</ele>
        <time>2021-07-31T09:21:12Z</time>
      </trkpt>
      <trkpt lat="48.7243" lon="6.9306">
        <ele>277.3</ele>
        <time>2021-07-31T09:21:13Z</time>
      </trkpt>
      <trkpt lat="48.7243" lon="6.93059">
        <ele>277.3</ele>
        <time>2021-07-31T09:21:14Z</time>
      </trkpt>
      <trkpt lat="48.72426" lon="6.93054">
        <ele>277.6</ele>
        <time>2021-07-31T09:21:16Z</time>
      </trkpt>
      <trkpt lat="48.72425" lon="6.93052">
        <ele>277.6</ele>
        <time>2021-07-31T09:21:17Z</time>
      </trkpt>
      <trkpt lat="48.72424" lon="6.9305">
        <ele>277.7</ele>
        <time>2021-07-31T09:21:18Z</time>
      </trkpt>
      <trkpt lat="48.72422" lon="6.93045">
        <ele>277.9</ele>
        <time>2021-07-31T09:21:20Z</time>
      </trkpt>
      <trkpt lat="48.72421" lon="6.93041">
        <ele>278</ele>
        <time>2021-07-31T09:21:21Z</time>
      </trkpt>
      <trkpt lat="48.72419" lon="6.93035">
        <ele>278.2</ele>
        <time>2021-07-31T09:21:22Z</time>
      </trkpt>
      <trkpt lat="48.72418" lon="6.93033">
        <ele>278.3</ele>
        <time>2021-07-31T09:21:23Z</time>
      </trkpt>
      <trkpt lat="48.72416" lon="6.93028">
        <ele>278.5</ele>
        <time>2021-07-31T09:21:25Z</time>
      </trkpt>
      <trkpt lat="48.72413" lon="6.93024">
        <ele>278.6</ele>
        <time>2021-07-31T09:21:26Z</time>
      </trkpt>
      <trkpt lat="48.72412" lon="6.93023">
        <ele>278.7</ele>
        <time>2021-07-31T09:21:27Z</time>
      </trkpt>
      <trkpt lat="48.7241" lon="6.93018">
        <ele>278.9</ele>
        <time>2021-07-31T09:21:29Z</time>
      </trkpt>
      <trkpt lat="48.72408" lon="6.93014">
        <ele>279</ele>
        <time>2021-07-31T09:21:30Z</time>
      </trkpt>
      <trkpt lat="48.72407" lon="6.93012">
        <ele>279.1</ele>
        <time>2021-07-31T09:21:31Z</time>
      </trkpt>
      <trkpt lat="48.72404" lon="6.93008">
        <ele>279.2</ele>
        <time>2021-07-31T09:21:33Z</time>
      </trkpt>
      <trkpt lat="48.72401" lon="6.93004">
        <ele>279.3</ele>
        <time>2021-07-31T09:21:34Z</time>
      </trkpt>
      <trkpt lat="48.72399" lon="6.93002">
        <ele>279.4</ele>
        <time>2021-07-31T09:21:35Z</time>
      </trkpt>
      <trkpt lat="48.72398" lon="6.93002">
        <ele>279.4</ele>
        <time>2021-07-31T09:21:36Z</time>
      </trkpt>
      <trkpt lat="48.72395" lon="6.93">
        <ele>279.5</ele>
        <time>2021-07-31T09:21:37Z</time>
      </trkpt>
      <trkpt lat="48.72392" lon="6.92999">
        <ele>279.6</ele>
        <time>2021-07-31T09:21:39Z</time>
      </trkpt>
      <trkpt lat="48.72388" lon="6.92996">
        <ele>279.5</ele>
        <time>2021-07-31T09:21:40Z</time>
      </trkpt>
      <trkpt lat="48.72387" lon="6.92996">
        <ele>279.5</ele>
        <time>2021-07-31T09:21:41Z</time>
      </trkpt>
      <trkpt lat="48.72385" lon="6.92995">
        <ele>279.5</ele>
        <time>2021-07-31T09:21:42Z</time>
      </trkpt>
      <trkpt lat="48.7238" lon="6.92996">
        <ele>279.5</ele>
        <time>2021-07-31T09:21:44Z</time>
      </trkpt>
      <trkpt lat="48.72375" lon="6.92999">
        <ele>279.4</ele>
        <time>2021-07-31T09:21:46Z</time>
      </trkpt>
      <trkpt lat="48.72371" lon="6.93001">
        <ele>279.4</ele>
        <time>2021-07-31T09:21:47Z</time>
      </trkpt>
      <trkpt lat="48.72368" lon="6.93004">
        <ele>279.3</ele>
        <time>2021-07-31T09:21:48Z</time>
      </trkpt>
      <trkpt lat="48.72361" lon="6.9301">
        <ele>279.2</ele>
        <time>2021-07-31T09:21:50Z</time>
      </trkpt>
      <trkpt lat="48.72356" lon="6.93017">
        <ele>279</ele>
        <time>2021-07-31T09:21:52Z</time>
      </trkpt>
      <trkpt lat="48.72353" lon="6.9302">
        <ele>278.9</ele>
        <time>2021-07-31T09:21:53Z</time>
      </trkpt>
      <trkpt lat="48.72351" lon="6.93025">
        <ele>278.8</ele>
        <time>2021-07-31T09:21:54Z</time>
      </trkpt>
      <trkpt lat="48.72349" lon="6.93029">
        <ele>278.7</ele>
        <time>2021-07-31T09:21:55Z</time>
      </trkpt>
      <trkpt lat="48.72347" lon="6.93034">
        <ele>278.6</ele>
        <time>2021-07-31T09:21:56Z</time>
      </trkpt>
      <trkpt lat="48.72342" lon="6.9305">
        <ele>278.3</ele>
        <time>2021-07-31T09:21:58Z</time>
      </trkpt>
      <trkpt lat="48.72339" lon="6.93057">
        <ele>278.2</ele>
        <time>2021-07-31T09:21:59Z</time>
      </trkpt>
      <trkpt lat="48.72336" lon="6.93064">
        <ele>278</ele>
        <time>2021-07-31T09:22:00Z</time>
      </trkpt>
      <trkpt lat="48.72329" lon="6.93077">
        <ele>277.8</ele>
        <time>2021-07-31T09:22:02Z</time>
      </trkpt>
      <trkpt lat="48.72325" lon="6.93082">
        <ele>277.6</ele>
        <time>2021-07-31T09:22:03Z</time>
      </trkpt>
      <trkpt lat="48.72315" lon="6.93091">
        <ele>277.4</ele>
        <time>2021-07-31T09:22:05Z</time>
      </trkpt>
      <trkpt lat="48.72311" lon="6.93095">
        <ele>277.2</ele>
        <time>2021-07-31T09:22:06Z</time>
      </trkpt>
      <trkpt lat="48.723" lon="6.93098">
        <ele>277</ele>
        <time>2021-07-31T09:22:08Z</time>
      </trkpt>
      <trkpt lat="48.72294" lon="6.93099">
        <ele>276.8</ele>
        <time>2021-07-31T09:22:09Z</time>
      </trkpt>
      <trkpt lat="48.72288" lon="6.93099">
        <ele>276.7</ele>
        <time>2021-07-31T09:22:10Z</time>
      </trkpt>
      <trkpt lat="48.72282" lon="6.931">
        <ele>276.6</ele>
        <time>2021-07-31T09:22:11Z</time>
      </trkpt>
      <trkpt lat="48.72276" lon="6.93101">
        <ele>276.5</ele>
        <time>2021-07-31T09:22:12Z</time>
      </trkpt>
      <trkpt lat="48.72265" lon="6.93104">
        <ele>276.3</ele>
        <time>2021-07-31T09:22:14Z</time>
      </trkpt>
      <trkpt lat="48.72255" lon="6.93107">
        <ele>276.1</ele>
        <time>2021-07-31T09:22:16Z</time>
      </trkpt>
      <trkpt lat="48.7225" lon="6.93108">
        <ele>276.1</ele>
        <time>2021-07-31T09:22:17Z</time>
      </trkpt>
      <trkpt lat="48.72245" lon="6.93108">
        <ele>276</ele>
        <time>2021-07-31T09:22:18Z</time>
      </trkpt>
      <trkpt lat="48.72238" lon="6.9311">
        <ele>275.9</ele>
        <time>2021-07-31T09:22:20Z</time>
      </trkpt>
      <trkpt lat="48.72233" lon="6.93111">
        <ele>275.8</ele>
        <time>2021-07-31T09:22:21Z</time>
      </trkpt>
      <trkpt lat="48.72222" lon="6.93114">
        <ele>275.7</ele>
        <time>2021-07-31T09:22:23Z</time>
      </trkpt>
      <trkpt lat="48.7221" lon="6.93115">
        <ele>275.5</ele>
        <time>2021-07-31T09:22:25Z</time>
      </trkpt>
      <trkpt lat="48.72204" lon="6.93115">
        <ele>275.4</ele>
        <time>2021-07-31T09:22:26Z</time>
      </trkpt>
      <trkpt lat="48.72192" lon="6.93116">
        <ele>275.3</ele>
        <time>2021-07-31T09:22:28Z</time>
      </trkpt>
      <trkpt lat="48.72186" lon="6.93117">
        <ele>275.2</ele>
        <time>2021-07-31T09:22:29Z</time>
      </trkpt>
      <trkpt lat="48.7218" lon="6.93117">
        <ele>275.1</ele>
        <time>2021-07-31T09:22:30Z</time>
      </trkpt>
      <trkpt lat="48.72168" lon="6.93117">
        <ele>274.9</ele>
        <time>2021-07-31T09:22:32Z</time>
      </trkpt>
      <trkpt lat="48.72157" lon="6.93115">
        <ele>274.8</ele>
        <time>2021-07-31T09:22:34Z</time>
      </trkpt>
      <trkpt lat="48.72152" lon="6.93116">
        <ele>274.8</ele>
        <time>2021-07-31T09:22:35Z</time>
      </trkpt>
      <trkpt lat="48.72148" lon="6.93118">
        <ele>274.8</ele>
        <time>2021-07-31T09:22:36Z</time>
      </trkpt>
      <trkpt lat="48.72144" lon="6.9312">
        <ele>274.7</ele>
        <time>2021-07-31T09:22:37Z</time>
      </trkpt>
      <trkpt lat="48.7214" lon="6.93121">
        <ele>274.7</ele>
        <time>2021-07-31T09:22:38Z</time>
      </trkpt>
      <trkpt lat="48.7213" lon="6.93122">
        <ele>274.6</ele>
        <time>2021-07-31T09:22:40Z</time>
      </trkpt>
      <trkpt lat="48.72126" lon="6.93122">
        <ele>274.6</ele>
        <time>2021-07-31T09:22:41Z</time>
      </trkpt>
      <trkpt lat="48.72122" lon="6.93122">
        <ele>274.6</ele>
        <time>2021-07-31T09:22:42Z</time>
      </trkpt>
      <trkpt lat="48.72117" lon="6.93122">
        <ele>274.6</ele>
        <time>2021-07-31T09:22:43Z</time>
      </trkpt>
      <trkpt lat="48.72113" lon="6.93122">
        <ele>274.6</ele>
        <time>2021-07-31T09:22:44Z</time>
      </trkpt>
      <trkpt lat="48.72104" lon="6.93122">
        <ele>274.5</ele>
        <time>2021-07-31T09:22:46Z</time>
      </trkpt>
      <trkpt lat="48.72096" lon="6.93122">
        <ele>274.5</ele>
        <time>2021-07-31T09:22:48Z</time>
      </trkpt>
      <trkpt lat="48.72088" lon="6.93121">
        <ele>274.5</ele>
        <time>2021-07-31T09:22:50Z</time>
      </trkpt>
      <trkpt lat="48.72079" lon="6.9312">
        <ele>274.4</ele>
        <time>2021-07-31T09:22:52Z</time>
      </trkpt>
      <trkpt lat="48.7207" lon="6.93117">
        <ele>274.4</ele>
        <time>2021-07-31T09:22:54Z</time>
      </trkpt>
      <trkpt lat="48.7206" lon="6.93111">
        <ele>274.4</ele>
        <time>2021-07-31T09:22:56Z</time>
      </trkpt>
      <trkpt lat="48.72056" lon="6.93109">
        <ele>274.3</ele>
        <time>2021-07-31T09:22:57Z</time>
      </trkpt>
      <trkpt lat="48.72049" lon="6.93102">
        <ele>274.3</ele>
        <time>2021-07-31T09:22:59Z</time>
      </trkpt>
      <trkpt lat="48.72047" lon="6.93098">
        <ele>274.3</ele>
        <time>2021-07-31T09:23:00Z</time>
      </trkpt>
      <trkpt lat="48.72043" lon="6.93093">
        <ele>274.3</ele>
        <time>2021-07-31T09:23:01Z</time>
      </trkpt>
      <trkpt lat="48.72034" lon="6.93084">
        <ele>274.3</ele>
        <time>2021-07-31T09:23:03Z</time>
      </trkpt>
      <trkpt lat="48.72027" lon="6.93078">
        <ele>274.3</ele>
        <time>2021-07-31T09:23:05Z</time>
      </trkpt>
      <trkpt lat="48.72022" lon="6.93076">
        <ele>274.3</ele>
        <time>2021-07-31T09:23:06Z</time>
      </trkpt>
      <trkpt lat="48.72015" lon="6.93068">
        <ele>274.3</ele>
        <time>2021-07-31T09:23:08Z</time>
      </trkpt>
      <trkpt lat="48.72007" lon="6.93058">
        <ele>274.3</ele>
        <time>2021-07-31T09:23:10Z</time>
      </trkpt>
      <trkpt lat="48.72003" lon="6.93053">
        <ele>274.3</ele>
        <time>2021-07-31T09:23:11Z</time>
      </trkpt>
      <trkpt lat="48.71997" lon="6.93043">
        <ele>274.3</ele>
        <time>2021-07-31T09:23:13Z</time>
      </trkpt>
      <trkpt lat="48.71994" lon="6.93039">
        <ele>274.3</ele>
        <time>2021-07-31T09:23:14Z</time>
      </trkpt>
      <trkpt lat="48.71991" lon="6.93033">
        <ele>274.4</ele>
        <time>2021-07-31T09:23:15Z</time>
      </trkpt>
      <trkpt lat="48.71985" lon="6.93024">
        <ele>274.4</ele>
        <time>2021-07-31T09:23:17Z</time>
      </trkpt>
      <trkpt lat="48.71981" lon="6.9302">
        <ele>274.4</ele>
        <time>2021-07-31T09:23:18Z</time>
      </trkpt>
      <trkpt lat="48.71977" lon="6.93024">
        <ele>274.5</ele>
        <time>2021-07-31T09:23:20Z</time>
      </trkpt>
      <trkpt lat="48.71969" lon="6.93018">
        <ele>274.6</ele>
        <time>2021-07-31T09:23:22Z</time>
      </trkpt>
      <trkpt lat="48.71965" lon="6.93015">
        <ele>274.7</ele>
        <time>2021-07-31T09:23:23Z</time>
      </trkpt>
      <trkpt lat="48.71961" lon="6.93012">
        <ele>274.7</ele>
        <time>2021-07-31T09:23:24Z</time>
      </trkpt>
      <trkpt lat="48.71956" lon="6.93008">
        <ele>274.8</ele>
        <time>2021-07-31T09:23:25Z</time>
      </trkpt>
      <trkpt lat="48.71949" lon="6.93005">
        <ele>274.8</ele>
        <time>2021-07-31T09:23:27Z</time>
      </trkpt>
      <trkpt lat="48.71945" lon="6.93002">
        <ele>274.8</ele>
        <time>2021-07-31T09:23:28Z</time>
      </trkpt>
      <trkpt lat="48.71942" lon="6.93002">
        <ele>274.8</ele>
        <time>2021-07-31T09:23:29Z</time>
      </trkpt>
      <trkpt lat="48.71937" lon="6.93002">
        <ele>274.8</ele>
        <time>2021-07-31T09:23:31Z</time>
      </trkpt>
      <trkpt lat="48.71934" lon="6.93002">
        <ele>274.8</ele>
        <time>2021-07-31T09:23:32Z</time>
      </trkpt>
      <trkpt lat="48.71927" lon="6.93004">
        <ele>274.7</ele>
        <time>2021-07-31T09:23:34Z</time>
      </trkpt>
      <trkpt lat="48.71925" lon="6.93004">
        <ele>274.7</ele>
        <time>2021-07-31T09:23:35Z</time>
      </trkpt>
      <trkpt lat="48.71919" lon="6.93006">
        <ele>274.6</ele>
        <time>2021-07-31T09:23:37Z</time>
      </trkpt>
      <trkpt lat="48.71914" lon="6.93007">
        <ele>274.5</ele>
        <time>2021-07-31T09:23:38Z</time>
      </trkpt>
      <trkpt lat="48.71903" lon="6.93012">
        <ele>274.3</ele>
        <time>2021-07-31T09:23:40Z</time>
      </trkpt>
      <trkpt lat="48.71892" lon="6.93016">
        <ele>274.1</ele>
        <time>2021-07-31T09:23:42Z</time>
      </trkpt>
      <trkpt lat="48.7188" lon="6.93017">
        <ele>273.9</ele>
        <time>2021-07-31T09:23:44Z</time>
      </trkpt>
      <trkpt lat="48.71869" lon="6.93016">
        <ele>273.7</ele>
        <time>2021-07-31T09:23:46Z</time>
      </trkpt>
      <trkpt lat="48.71863" lon="6.93014">
        <ele>273.6</ele>
        <time>2021-07-31T09:23:47Z</time>
      </trkpt>
      <trkpt lat="48.71858" lon="6.93013">
        <ele>273.6</ele>
        <time>2021-07-31T09:23:48Z</time>
      </trkpt>
      <trkpt lat="48.71848" lon="6.9301">
        <ele>273.5</ele>
        <time>2021-07-31T09:23:50Z</time>
      </trkpt>
      <trkpt lat="48.71838" lon="6.93009">
        <ele>273.4</ele>
        <time>2021-07-31T09:23:52Z</time>
      </trkpt>
      <trkpt lat="48.7183" lon="6.93003">
        <ele>273.4</ele>
        <time>2021-07-31T09:23:54Z</time>
      </trkpt>
      <trkpt lat="48.71826" lon="6.92999">
        <ele>273.4</ele>
        <time>2021-07-31T09:23:55Z</time>
      </trkpt>
      <trkpt lat="48.71823" lon="6.92994">
        <ele>273.4</ele>
        <time>2021-07-31T09:23:56Z</time>
      </trkpt>
      <trkpt lat="48.71819" lon="6.92986">
        <ele>273.4</ele>
        <time>2021-07-31T09:23:58Z</time>
      </trkpt>
      <trkpt lat="48.71815" lon="6.92979">
        <ele>273.5</ele>
        <time>2021-07-31T09:23:59Z</time>
      </trkpt>
      <trkpt lat="48.71813" lon="6.92975">
        <ele>273.5</ele>
        <time>2021-07-31T09:24:00Z</time>
      </trkpt>
      <trkpt lat="48.71806" lon="6.92966">
        <ele>273.5</ele>
        <time>2021-07-31T09:24:02Z</time>
      </trkpt>
      <trkpt lat="48.71804" lon="6.92961">
        <ele>273.4</ele>
        <time>2021-07-31T09:24:03Z</time>
      </trkpt>
      <trkpt lat="48.718" lon="6.92954">
        <ele>273.4</ele>
        <time>2021-07-31T09:24:05Z</time>
      </trkpt>
      <trkpt lat="48.71796" lon="6.9295">
        <ele>273.4</ele>
        <time>2021-07-31T09:24:06Z</time>
      </trkpt>
      <trkpt lat="48.71793" lon="6.92947">
        <ele>273.4</ele>
        <time>2021-07-31T09:24:07Z</time>
      </trkpt>
      <trkpt lat="48.71789" lon="6.92944">
        <ele>273.4</ele>
        <time>2021-07-31T09:24:08Z</time>
      </trkpt>
      <trkpt lat="48.71785" lon="6.9294">
        <ele>273.4</ele>
        <time>2021-07-31T09:24:09Z</time>
      </trkpt>
      <trkpt lat="48.71781" lon="6.92936">
        <ele>273.4</ele>
        <time>2021-07-31T09:24:11Z</time>
      </trkpt>
      <trkpt lat="48.71778" lon="6.92933">
        <ele>273.4</ele>
        <time>2021-07-31T09:24:12Z</time>
      </trkpt>
      <trkpt lat="48.71775" lon="6.92929">
        <ele>273.5</ele>
        <time>2021-07-31T09:24:13Z</time>
      </trkpt>
      <trkpt lat="48.71773" lon="6.92927">
        <ele>273.5</ele>
        <time>2021-07-31T09:24:14Z</time>
      </trkpt>
      <trkpt lat="48.71769" lon="6.92923">
        <ele>273.5</ele>
        <time>2021-07-31T09:24:16Z</time>
      </trkpt>
      <trkpt lat="48.71765" lon="6.9292">
        <ele>273.5</ele>
        <time>2021-07-31T09:24:17Z</time>
      </trkpt>
      <trkpt lat="48.71761" lon="6.92917">
        <ele>273.5</ele>
        <time>2021-07-31T09:24:18Z</time>
      </trkpt>
      <trkpt lat="48.71758" lon="6.92913">
        <ele>273.5</ele>
        <time>2021-07-31T09:24:19Z</time>
      </trkpt>
      <trkpt lat="48.71755" lon="6.92909">
        <ele>273.6</ele>
        <time>2021-07-31T09:24:20Z</time>
      </trkpt>
      <trkpt lat="48.71751" lon="6.92906">
        <ele>273.6</ele>
        <time>2021-07-31T09:24:21Z</time>
      </trkpt>
      <trkpt lat="48.71747" lon="6.92902">
        <ele>273.6</ele>
        <time>2021-07-31T09:24:22Z</time>
      </trkpt>
      <trkpt lat="48.71743" lon="6.92899">
        <ele>273.6</ele>
        <time>2021-07-31T09:24:24Z</time>
      </trkpt>
      <trkpt lat="48.71739" lon="6.92895">
        <ele>273.7</ele>
        <time>2021-07-31T09:24:25Z</time>
      </trkpt>
      <trkpt lat="48.71735" lon="6.92892">
        <ele>273.8</ele>
        <time>2021-07-31T09:24:26Z</time>
      </trkpt>
      <trkpt lat="48.71731" lon="6.92889">
        <ele>273.8</ele>
        <time>2021-07-31T09:24:27Z</time>
      </trkpt>
      <trkpt lat="48.71727" lon="6.92884">
        <ele>273.9</ele>
        <time>2021-07-31T09:24:28Z</time>
      </trkpt>
      <trkpt lat="48.71723" lon="6.92881">
        <ele>274.1</ele>
        <time>2021-07-31T09:24:30Z</time>
      </trkpt>
      <trkpt lat="48.7172" lon="6.92878">
        <ele>274.2</ele>
        <time>2021-07-31T09:24:31Z</time>
      </trkpt>
      <trkpt lat="48.71716" lon="6.92874">
        <ele>274.4</ele>
        <time>2021-07-31T09:24:32Z</time>
      </trkpt>
      <trkpt lat="48.71712" lon="6.9287">
        <ele>274.6</ele>
        <time>2021-07-31T09:24:33Z</time>
      </trkpt>
      <trkpt lat="48.71709" lon="6.92867">
        <ele>274.7</ele>
        <time>2021-07-31T09:24:34Z</time>
      </trkpt>
      <trkpt lat="48.71704" lon="6.92856">
        <ele>275.1</ele>
        <time>2021-07-31T09:24:36Z</time>
      </trkpt>
      <trkpt lat="48.71703" lon="6.92848">
        <ele>274.9</ele>
        <time>2021-07-31T09:24:37Z</time>
      </trkpt>
      <trkpt lat="48.71704" lon="6.92839">
        <ele>274.6</ele>
        <time>2021-07-31T09:24:39Z</time>
      </trkpt>
      <trkpt lat="48.71705" lon="6.92832">
        <ele>274.3</ele>
        <time>2021-07-31T09:24:40Z</time>
      </trkpt>
      <trkpt lat="48.71706" lon="6.92825">
        <ele>274.1</ele>
        <time>2021-07-31T09:24:41Z</time>
      </trkpt>
      <trkpt lat="48.71709" lon="6.92819">
        <ele>273.9</ele>
        <time>2021-07-31T09:24:42Z</time>
      </trkpt>
      <trkpt lat="48.71714" lon="6.92806">
        <ele>273.6</ele>
        <time>2021-07-31T09:24:44Z</time>
      </trkpt>
      <trkpt lat="48.71718" lon="6.92797">
        <ele>273.3</ele>
        <time>2021-07-31T09:24:46Z</time>
      </trkpt>
      <trkpt lat="48.71721" lon="6.9279">
        <ele>273.1</ele>
        <time>2021-07-31T09:24:47Z</time>
      </trkpt>
      <trkpt lat="48.71723" lon="6.92785">
        <ele>272.9</ele>
        <time>2021-07-31T09:24:48Z</time>
      </trkpt>
      <trkpt lat="48.71728" lon="6.92777">
        <ele>272.7</ele>
        <time>2021-07-31T09:24:50Z</time>
      </trkpt>
      <trkpt lat="48.71732" lon="6.92769">
        <ele>272.4</ele>
        <time>2021-07-31T09:24:52Z</time>
      </trkpt>
      <trkpt lat="48.71735" lon="6.92763">
        <ele>272.2</ele>
        <time>2021-07-31T09:24:54Z</time>
      </trkpt>
      <trkpt lat="48.71739" lon="6.92755">
        <ele>271.9</ele>
        <time>2021-07-31T09:24:56Z</time>
      </trkpt>
      <trkpt lat="48.7174" lon="6.92752">
        <ele>271.8</ele>
        <time>2021-07-31T09:24:57Z</time>
      </trkpt>
      <trkpt lat="48.71741" lon="6.92747">
        <ele>271.7</ele>
        <time>2021-07-31T09:24:59Z</time>
      </trkpt>
      <trkpt lat="48.71744" lon="6.92744">
        <ele>271.6</ele>
        <time>2021-07-31T09:25:00Z</time>
      </trkpt>
      <trkpt lat="48.71748" lon="6.92738">
        <ele>271.4</ele>
        <time>2021-07-31T09:25:02Z</time>
      </trkpt>
      <trkpt lat="48.71749" lon="6.92734">
        <ele>271.3</ele>
        <time>2021-07-31T09:25:03Z</time>
      </trkpt>
      <trkpt lat="48.7175" lon="6.92729">
        <ele>271.2</ele>
        <time>2021-07-31T09:25:05Z</time>
      </trkpt>
      <trkpt lat="48.71752" lon="6.92723">
        <ele>271</ele>
        <time>2021-07-31T09:25:06Z</time>
      </trkpt>
      <trkpt lat="48.71752" lon="6.92721">
        <ele>271</ele>
        <time>2021-07-31T09:25:07Z</time>
      </trkpt>
      <trkpt lat="48.71753" lon="6.92717">
        <ele>270.9</ele>
        <time>2021-07-31T09:25:08Z</time>
      </trkpt>
      <trkpt lat="48.71755" lon="6.92711">
        <ele>270.7</ele>
        <time>2021-07-31T09:25:10Z</time>
      </trkpt>
      <trkpt lat="48.71757" lon="6.92707">
        <ele>270.6</ele>
        <time>2021-07-31T09:25:11Z</time>
      </trkpt>
      <trkpt lat="48.71758" lon="6.92705">
        <ele>270.6</ele>
        <time>2021-07-31T09:25:12Z</time>
      </trkpt>
      <trkpt lat="48.7176" lon="6.92701">
        <ele>270.4</ele>
        <time>2021-07-31T09:25:14Z</time>
      </trkpt>
      <trkpt lat="48.71762" lon="6.92697">
        <ele>270.3</ele>
        <time>2021-07-31T09:25:15Z</time>
      </trkpt>
      <trkpt lat="48.71764" lon="6.92693">
        <ele>270.2</ele>
        <time>2021-07-31T09:25:16Z</time>
      </trkpt>
      <trkpt lat="48.71765" lon="6.9269">
        <ele>270</ele>
        <time>2021-07-31T09:25:17Z</time>
      </trkpt>
      <trkpt lat="48.71768" lon="6.92684">
        <ele>269.8</ele>
        <time>2021-07-31T09:25:19Z</time>
      </trkpt>
      <trkpt lat="48.71769" lon="6.92681">
        <ele>269.7</ele>
        <time>2021-07-31T09:25:20Z</time>
      </trkpt>
      <trkpt lat="48.71771" lon="6.92677">
        <ele>269.6</ele>
        <time>2021-07-31T09:25:22Z</time>
      </trkpt>
      <trkpt lat="48.71772" lon="6.92675">
        <ele>269.5</ele>
        <time>2021-07-31T09:25:23Z</time>
      </trkpt>
      <trkpt lat="48.71774" lon="6.92673">
        <ele>269.4</ele>
        <time>2021-07-31T09:25:24Z</time>
      </trkpt>
      <trkpt lat="48.71775" lon="6.92672">
        <ele>269.4</ele>
        <time>2021-07-31T09:25:26Z</time>
      </trkpt>
      <trkpt lat="48.71775" lon="6.92673">
        <ele>269.3</ele>
        <time>2021-07-31T09:25:27Z</time>
      </trkpt>
      <trkpt lat="48.71775" lon="6.92673">
        <ele>269.3</ele>
        <time>2021-07-31T09:25:28Z</time>
      </trkpt>
      <trkpt lat="48.71775" lon="6.92672">
        <ele>269.3</ele>
        <time>2021-07-31T09:25:29Z</time>
      </trkpt>
      <trkpt lat="48.71775" lon="6.92672">
        <ele>269.3</ele>
        <time>2021-07-31T09:25:30Z</time>
      </trkpt>
      <trkpt lat="48.71774" lon="6.92672">
        <ele>269.3</ele>
        <time>2021-07-31T09:25:32Z</time>
      </trkpt>
      <trkpt lat="48.71774" lon="6.92671">
        <ele>269.3</ele>
        <time>2021-07-31T09:25:33Z</time>
      </trkpt>
      <trkpt lat="48.71774" lon="6.92671">
        <ele>269.3</ele>
        <time>2021-07-31T09:25:35Z</time>
      </trkpt>
      <trkpt lat="48.71773" lon="6.92665">
        <ele>269.2</ele>
        <time>2021-07-31T09:25:55Z</time>
      </trkpt>
      <trkpt lat="48.71775" lon="6.92655">
        <ele>269</ele>
        <time>2021-07-31T09:25:57Z</time>
      </trkpt>
      <trkpt lat="48.71777" lon="6.92641">
        <ele>268.8</ele>
        <time>2021-07-31T09:25:58Z</time>
      </trkpt>
      <trkpt lat="48.71779" lon="6.92632">
        <ele>268.7</ele>
        <time>2021-07-31T09:26:00Z</time>
      </trkpt>
      <trkpt lat="48.71782" lon="6.92619">
        <ele>268.6</ele>
        <time>2021-07-31T09:26:01Z</time>
      </trkpt>
      <trkpt lat="48.71783" lon="6.92603">
        <ele>268.5</ele>
        <time>2021-07-31T09:26:03Z</time>
      </trkpt>
      <trkpt lat="48.71783" lon="6.92596">
        <ele>268.5</ele>
        <time>2021-07-31T09:26:04Z</time>
      </trkpt>
      <trkpt lat="48.71784" lon="6.92588">
        <ele>268.5</ele>
        <time>2021-07-31T09:26:05Z</time>
      </trkpt>
      <trkpt lat="48.71785" lon="6.92581">
        <ele>268.4</ele>
        <time>2021-07-31T09:26:06Z</time>
      </trkpt>
      <trkpt lat="48.71787" lon="6.92574">
        <ele>268.4</ele>
        <time>2021-07-31T09:26:07Z</time>
      </trkpt>
      <trkpt lat="48.7179" lon="6.92567">
        <ele>268.4</ele>
        <time>2021-07-31T09:26:08Z</time>
      </trkpt>
      <trkpt lat="48.71792" lon="6.92557">
        <ele>268.4</ele>
        <time>2021-07-31T09:26:10Z</time>
      </trkpt>
      <trkpt lat="48.71797" lon="6.92547">
        <ele>268.4</ele>
        <time>2021-07-31T09:26:11Z</time>
      </trkpt>
      <trkpt lat="48.71799" lon="6.9254">
        <ele>268.5</ele>
        <time>2021-07-31T09:26:12Z</time>
      </trkpt>
      <trkpt lat="48.71802" lon="6.92527">
        <ele>268.7</ele>
        <time>2021-07-31T09:26:14Z</time>
      </trkpt>
      <trkpt lat="48.71805" lon="6.92513">
        <ele>268.9</ele>
        <time>2021-07-31T09:26:16Z</time>
      </trkpt>
      <trkpt lat="48.71808" lon="6.92503">
        <ele>268.9</ele>
        <time>2021-07-31T09:26:18Z</time>
      </trkpt>
      <trkpt lat="48.71809" lon="6.92492">
        <ele>269</ele>
        <time>2021-07-31T09:26:20Z</time>
      </trkpt>
      <trkpt lat="48.71812" lon="6.92484">
        <ele>269.1</ele>
        <time>2021-07-31T09:26:21Z</time>
      </trkpt>
      <trkpt lat="48.71813" lon="6.92478">
        <ele>269.2</ele>
        <time>2021-07-31T09:26:22Z</time>
      </trkpt>
      <trkpt lat="48.71816" lon="6.92469">
        <ele>269.4</ele>
        <time>2021-07-31T09:26:24Z</time>
      </trkpt>
      <trkpt lat="48.71818" lon="6.92461">
        <ele>269.5</ele>
        <time>2021-07-31T09:26:25Z</time>
      </trkpt>
      <trkpt lat="48.7182" lon="6.92453">
        <ele>269.7</ele>
        <time>2021-07-31T09:26:26Z</time>
      </trkpt>
      <trkpt lat="48.71822" lon="6.92448">
        <ele>269.8</ele>
        <time>2021-07-31T09:26:28Z</time>
      </trkpt>
      <trkpt lat="48.71824" lon="6.92442">
        <ele>269.9</ele>
        <time>2021-07-31T09:26:29Z</time>
      </trkpt>
      <trkpt lat="48.71826" lon="6.92436">
        <ele>270.1</ele>
        <time>2021-07-31T09:26:30Z</time>
      </trkpt>
      <trkpt lat="48.71827" lon="6.92431">
        <ele>270.2</ele>
        <time>2021-07-31T09:26:31Z</time>
      </trkpt>
      <trkpt lat="48.71824" lon="6.92427">
        <ele>270.2</ele>
        <time>2021-07-31T09:26:32Z</time>
      </trkpt>
      <trkpt lat="48.71819" lon="6.92421">
        <ele>269.9</ele>
        <time>2021-07-31T09:26:34Z</time>
      </trkpt>
      <trkpt lat="48.71814" lon="6.92417">
        <ele>269.7</ele>
        <time>2021-07-31T09:26:35Z</time>
      </trkpt>
      <trkpt lat="48.71808" lon="6.92414">
        <ele>269.3</ele>
        <time>2021-07-31T09:26:37Z</time>
      </trkpt>
      <trkpt lat="48.71805" lon="6.92407">
        <ele>269</ele>
        <time>2021-07-31T09:26:39Z</time>
      </trkpt>
      <trkpt lat="48.71805" lon="6.92405">
        <ele>269</ele>
        <time>2021-07-31T09:26:40Z</time>
      </trkpt>
      <trkpt lat="48.71805" lon="6.92403">
        <ele>268.9</ele>
        <time>2021-07-31T09:26:42Z</time>
      </trkpt>
      <trkpt lat="48.71804" lon="6.92404">
        <ele>268.8</ele>
        <time>2021-07-31T09:26:43Z</time>
      </trkpt>
      <trkpt lat="48.71803" lon="6.92405">
        <ele>268.7</ele>
        <time>2021-07-31T09:26:44Z</time>
      </trkpt>
      <trkpt lat="48.71803" lon="6.92405">
        <ele>268.7</ele>
        <time>2021-07-31T09:26:46Z</time>
      </trkpt>
      <trkpt lat="48.71803" lon="6.92406">
        <ele>268.7</ele>
        <time>2021-07-31T09:26:48Z</time>
      </trkpt>
      <trkpt lat="48.71802" lon="6.92408">
        <ele>268.6</ele>
        <time>2021-07-31T09:26:50Z</time>
      </trkpt>
      <trkpt lat="48.71795" lon="6.92413">
        <ele>268.1</ele>
        <time>2021-07-31T09:26:55Z</time>
      </trkpt>
      <trkpt lat="48.71791" lon="6.9241">
        <ele>267.9</ele>
        <time>2021-07-31T09:26:56Z</time>
      </trkpt>
      <trkpt lat="48.71779" lon="6.92403">
        <ele>266.9</ele>
        <time>2021-07-31T09:26:57Z</time>
      </trkpt>
      <trkpt lat="48.71765" lon="6.92391">
        <ele>266.5</ele>
        <time>2021-07-31T09:26:59Z</time>
      </trkpt>
      <trkpt lat="48.71759" lon="6.92386">
        <ele>266.3</ele>
        <time>2021-07-31T09:27:00Z</time>
      </trkpt>
      <trkpt lat="48.71748" lon="6.92379">
        <ele>266</ele>
        <time>2021-07-31T09:27:02Z</time>
      </trkpt>
      <trkpt lat="48.71743" lon="6.92376">
        <ele>265.9</ele>
        <time>2021-07-31T09:27:03Z</time>
      </trkpt>
      <trkpt lat="48.71733" lon="6.92371">
        <ele>265.8</ele>
        <time>2021-07-31T09:27:05Z</time>
      </trkpt>
      <trkpt lat="48.71728" lon="6.92369">
        <ele>265.8</ele>
        <time>2021-07-31T09:27:06Z</time>
      </trkpt>
      <trkpt lat="48.71724" lon="6.92368">
        <ele>265.8</ele>
        <time>2021-07-31T09:27:07Z</time>
      </trkpt>
      <trkpt lat="48.71715" lon="6.92365">
        <ele>265.8</ele>
        <time>2021-07-31T09:27:09Z</time>
      </trkpt>
      <trkpt lat="48.71706" lon="6.9236">
        <ele>265.8</ele>
        <time>2021-07-31T09:27:11Z</time>
      </trkpt>
      <trkpt lat="48.71697" lon="6.92358">
        <ele>265.8</ele>
        <time>2021-07-31T09:27:13Z</time>
      </trkpt>
      <trkpt lat="48.71694" lon="6.92362">
        <ele>265.8</ele>
        <time>2021-07-31T09:27:14Z</time>
      </trkpt>
      <trkpt lat="48.71684" lon="6.92359">
        <ele>265.9</ele>
        <time>2021-07-31T09:27:16Z</time>
      </trkpt>
      <trkpt lat="48.7168" lon="6.92355">
        <ele>265.9</ele>
        <time>2021-07-31T09:27:17Z</time>
      </trkpt>
      <trkpt lat="48.71676" lon="6.92351">
        <ele>265.9</ele>
        <time>2021-07-31T09:27:18Z</time>
      </trkpt>
      <trkpt lat="48.71673" lon="6.92347">
        <ele>266</ele>
        <time>2021-07-31T09:27:19Z</time>
      </trkpt>
      <trkpt lat="48.71663" lon="6.92337">
        <ele>266</ele>
        <time>2021-07-31T09:27:21Z</time>
      </trkpt>
      <trkpt lat="48.71654" lon="6.92329">
        <ele>266</ele>
        <time>2021-07-31T09:27:23Z</time>
      </trkpt>
      <trkpt lat="48.71646" lon="6.92323">
        <ele>266</ele>
        <time>2021-07-31T09:27:25Z</time>
      </trkpt>
      <trkpt lat="48.71643" lon="6.9232">
        <ele>266</ele>
        <time>2021-07-31T09:27:26Z</time>
      </trkpt>
      <trkpt lat="48.71639" lon="6.9232">
        <ele>266</ele>
        <time>2021-07-31T09:27:27Z</time>
      </trkpt>
      <trkpt lat="48.71632" lon="6.92316">
        <ele>266</ele>
        <time>2021-07-31T09:27:29Z</time>
      </trkpt>
      <trkpt lat="48.71625" lon="6.92308">
        <ele>266</ele>
        <time>2021-07-31T09:27:31Z</time>
      </trkpt>
      <trkpt lat="48.71621" lon="6.92305">
        <ele>266</ele>
        <time>2021-07-31T09:27:32Z</time>
      </trkpt>
      <trkpt lat="48.71616" lon="6.92301">
        <ele>266</ele>
        <time>2021-07-31T09:27:33Z</time>
      </trkpt>
      <trkpt lat="48.7161" lon="6.92295">
        <ele>266</ele>
        <time>2021-07-31T09:27:35Z</time>
      </trkpt>
      <trkpt lat="48.71604" lon="6.92292">
        <ele>266</ele>
        <time>2021-07-31T09:27:36Z</time>
      </trkpt>
      <trkpt lat="48.716" lon="6.9229">
        <ele>266</ele>
        <time>2021-07-31T09:27:37Z</time>
      </trkpt>
      <trkpt lat="48.71596" lon="6.92288">
        <ele>266</ele>
        <time>2021-07-31T09:27:38Z</time>
      </trkpt>
      <trkpt lat="48.71592" lon="6.92286">
        <ele>266</ele>
        <time>2021-07-31T09:27:40Z</time>
      </trkpt>
      <trkpt lat="48.71586" lon="6.92284">
        <ele>266</ele>
        <time>2021-07-31T09:27:41Z</time>
      </trkpt>
      <trkpt lat="48.71583" lon="6.92283">
        <ele>266</ele>
        <time>2021-07-31T09:27:42Z</time>
      </trkpt>
      <trkpt lat="48.71577" lon="6.92281">
        <ele>266</ele>
        <time>2021-07-31T09:27:43Z</time>
      </trkpt>
      <trkpt lat="48.71572" lon="6.92278">
        <ele>266</ele>
        <time>2021-07-31T09:27:45Z</time>
      </trkpt>
      <trkpt lat="48.71567" lon="6.92275">
        <ele>266</ele>
        <time>2021-07-31T09:27:46Z</time>
      </trkpt>
      <trkpt lat="48.71561" lon="6.92274">
        <ele>266</ele>
        <time>2021-07-31T09:27:48Z</time>
      </trkpt>
      <trkpt lat="48.71558" lon="6.92272">
        <ele>266</ele>
        <time>2021-07-31T09:27:49Z</time>
      </trkpt>
      <trkpt lat="48.71554" lon="6.9227">
        <ele>266</ele>
        <time>2021-07-31T09:27:50Z</time>
      </trkpt>
      <trkpt lat="48.71549" lon="6.92267">
        <ele>266</ele>
        <time>2021-07-31T09:27:51Z</time>
      </trkpt>
      <trkpt lat="48.71545" lon="6.92266">
        <ele>266</ele>
        <time>2021-07-31T09:27:52Z</time>
      </trkpt>
      <trkpt lat="48.71541" lon="6.92265">
        <ele>266</ele>
        <time>2021-07-31T09:27:54Z</time>
      </trkpt>
      <trkpt lat="48.71537" lon="6.92263">
        <ele>266</ele>
        <time>2021-07-31T09:27:55Z</time>
      </trkpt>
      <trkpt lat="48.71534" lon="6.92262">
        <ele>266</ele>
        <time>2021-07-31T09:27:56Z</time>
      </trkpt>
      <trkpt lat="48.7153" lon="6.9226">
        <ele>266</ele>
        <time>2021-07-31T09:27:57Z</time>
      </trkpt>
      <trkpt lat="48.71527" lon="6.92257">
        <ele>266</ele>
        <time>2021-07-31T09:27:58Z</time>
      </trkpt>
      <trkpt lat="48.71524" lon="6.92254">
        <ele>266</ele>
        <time>2021-07-31T09:27:59Z</time>
      </trkpt>
      <trkpt lat="48.71521" lon="6.92251">
        <ele>266</ele>
        <time>2021-07-31T09:28:00Z</time>
      </trkpt>
      <trkpt lat="48.71514" lon="6.92246">
        <ele>266</ele>
        <time>2021-07-31T09:28:02Z</time>
      </trkpt>
      <trkpt lat="48.7151" lon="6.92244">
        <ele>266</ele>
        <time>2021-07-31T09:28:03Z</time>
      </trkpt>
      <trkpt lat="48.71503" lon="6.92242">
        <ele>266</ele>
        <time>2021-07-31T09:28:05Z</time>
      </trkpt>
      <trkpt lat="48.715" lon="6.9224">
        <ele>266</ele>
        <time>2021-07-31T09:28:06Z</time>
      </trkpt>
      <trkpt lat="48.71496" lon="6.9224">
        <ele>266</ele>
        <time>2021-07-31T09:28:07Z</time>
      </trkpt>
      <trkpt lat="48.7149" lon="6.9224">
        <ele>266</ele>
        <time>2021-07-31T09:28:08Z</time>
      </trkpt>
      <trkpt lat="48.71486" lon="6.92239">
        <ele>266</ele>
        <time>2021-07-31T09:28:09Z</time>
      </trkpt>
      <trkpt lat="48.71482" lon="6.92238">
        <ele>266</ele>
        <time>2021-07-31T09:28:11Z</time>
      </trkpt>
      <trkpt lat="48.71478" lon="6.92236">
        <ele>266</ele>
        <time>2021-07-31T09:28:12Z</time>
      </trkpt>
      <trkpt lat="48.71474" lon="6.92234">
        <ele>266</ele>
        <time>2021-07-31T09:28:13Z</time>
      </trkpt>
      <trkpt lat="48.7147" lon="6.92232">
        <ele>266</ele>
        <time>2021-07-31T09:28:14Z</time>
      </trkpt>
      <trkpt lat="48.71466" lon="6.92231">
        <ele>265.9</ele>
        <time>2021-07-31T09:28:15Z</time>
      </trkpt>
      <trkpt lat="48.71463" lon="6.9223">
        <ele>265.9</ele>
        <time>2021-07-31T09:28:16Z</time>
      </trkpt>
      <trkpt lat="48.71459" lon="6.92229">
        <ele>265.9</ele>
        <time>2021-07-31T09:28:17Z</time>
      </trkpt>
      <trkpt lat="48.71453" lon="6.92225">
        <ele>265.9</ele>
        <time>2021-07-31T09:28:19Z</time>
      </trkpt>
      <trkpt lat="48.71451" lon="6.92222">
        <ele>265.9</ele>
        <time>2021-07-31T09:28:20Z</time>
      </trkpt>
      <trkpt lat="48.71447" lon="6.92218">
        <ele>265.9</ele>
        <time>2021-07-31T09:28:21Z</time>
      </trkpt>
      <trkpt lat="48.71444" lon="6.92214">
        <ele>265.9</ele>
        <time>2021-07-31T09:28:22Z</time>
      </trkpt>
      <trkpt lat="48.71441" lon="6.9221">
        <ele>265.9</ele>
        <time>2021-07-31T09:28:24Z</time>
      </trkpt>
      <trkpt lat="48.71437" lon="6.92207">
        <ele>265.9</ele>
        <time>2021-07-31T09:28:25Z</time>
      </trkpt>
      <trkpt lat="48.71434" lon="6.92204">
        <ele>265.9</ele>
        <time>2021-07-31T09:28:26Z</time>
      </trkpt>
      <trkpt lat="48.71431" lon="6.92201">
        <ele>265.9</ele>
        <time>2021-07-31T09:28:27Z</time>
      </trkpt>
      <trkpt lat="48.71428" lon="6.92198">
        <ele>265.9</ele>
        <time>2021-07-31T09:28:28Z</time>
      </trkpt>
      <trkpt lat="48.71425" lon="6.92196">
        <ele>265.9</ele>
        <time>2021-07-31T09:28:29Z</time>
      </trkpt>
      <trkpt lat="48.71422" lon="6.92195">
        <ele>265.9</ele>
        <time>2021-07-31T09:28:30Z</time>
      </trkpt>
      <trkpt lat="48.71418" lon="6.92193">
        <ele>265.9</ele>
        <time>2021-07-31T09:28:31Z</time>
      </trkpt>
      <trkpt lat="48.71415" lon="6.92192">
        <ele>265.9</ele>
        <time>2021-07-31T09:28:32Z</time>
      </trkpt>
      <trkpt lat="48.7141" lon="6.92191">
        <ele>265.9</ele>
        <time>2021-07-31T09:28:33Z</time>
      </trkpt>
      <trkpt lat="48.71407" lon="6.92189">
        <ele>265.9</ele>
        <time>2021-07-31T09:28:35Z</time>
      </trkpt>
      <trkpt lat="48.71403" lon="6.92187">
        <ele>265.9</ele>
        <time>2021-07-31T09:28:36Z</time>
      </trkpt>
      <trkpt lat="48.71399" lon="6.92185">
        <ele>265.9</ele>
        <time>2021-07-31T09:28:37Z</time>
      </trkpt>
      <trkpt lat="48.71394" lon="6.92181">
        <ele>265.9</ele>
        <time>2021-07-31T09:28:38Z</time>
      </trkpt>
      <trkpt lat="48.71389" lon="6.92178">
        <ele>265.9</ele>
        <time>2021-07-31T09:28:39Z</time>
      </trkpt>
      <trkpt lat="48.71385" lon="6.92176">
        <ele>265.9</ele>
        <time>2021-07-31T09:28:40Z</time>
      </trkpt>
      <trkpt lat="48.71381" lon="6.92174">
        <ele>265.9</ele>
        <time>2021-07-31T09:28:41Z</time>
      </trkpt>
      <trkpt lat="48.71379" lon="6.92172">
        <ele>265.9</ele>
        <time>2021-07-31T09:28:42Z</time>
      </trkpt>
      <trkpt lat="48.71372" lon="6.92166">
        <ele>265.9</ele>
        <time>2021-07-31T09:28:44Z</time>
      </trkpt>
      <trkpt lat="48.71368" lon="6.92162">
        <ele>265.9</ele>
        <time>2021-07-31T09:28:45Z</time>
      </trkpt>
      <trkpt lat="48.71364" lon="6.92161">
        <ele>265.9</ele>
        <time>2021-07-31T09:28:47Z</time>
      </trkpt>
      <trkpt lat="48.71361" lon="6.92159">
        <ele>265.9</ele>
        <time>2021-07-31T09:28:48Z</time>
      </trkpt>
      <trkpt lat="48.71358" lon="6.92157">
        <ele>265.9</ele>
        <time>2021-07-31T09:28:49Z</time>
      </trkpt>
      <trkpt lat="48.71355" lon="6.92155">
        <ele>265.9</ele>
        <time>2021-07-31T09:28:50Z</time>
      </trkpt>
      <trkpt lat="48.71351" lon="6.92153">
        <ele>265.9</ele>
        <time>2021-07-31T09:28:51Z</time>
      </trkpt>
      <trkpt lat="48.71347" lon="6.92152">
        <ele>265.9</ele>
        <time>2021-07-31T09:28:52Z</time>
      </trkpt>
      <trkpt lat="48.7134" lon="6.92149">
        <ele>265.9</ele>
        <time>2021-07-31T09:28:54Z</time>
      </trkpt>
      <trkpt lat="48.71336" lon="6.92148">
        <ele>265.9</ele>
        <time>2021-07-31T09:28:55Z</time>
      </trkpt>
      <trkpt lat="48.71332" lon="6.92144">
        <ele>265.9</ele>
        <time>2021-07-31T09:28:57Z</time>
      </trkpt>
      <trkpt lat="48.71328" lon="6.92141">
        <ele>265.9</ele>
        <time>2021-07-31T09:28:58Z</time>
      </trkpt>
      <trkpt lat="48.71326" lon="6.9214">
        <ele>265.9</ele>
        <time>2021-07-31T09:28:59Z</time>
      </trkpt>
      <trkpt lat="48.71323" lon="6.92137">
        <ele>265.9</ele>
        <time>2021-07-31T09:29:00Z</time>
      </trkpt>
      <trkpt lat="48.71317" lon="6.92131">
        <ele>266</ele>
        <time>2021-07-31T09:29:02Z</time>
      </trkpt>
      <trkpt lat="48.71315" lon="6.92128">
        <ele>266</ele>
        <time>2021-07-31T09:29:03Z</time>
      </trkpt>
      <trkpt lat="48.71313" lon="6.92126">
        <ele>266</ele>
        <time>2021-07-31T09:29:04Z</time>
      </trkpt>
      <trkpt lat="48.71307" lon="6.92122">
        <ele>265.9</ele>
        <time>2021-07-31T09:29:06Z</time>
      </trkpt>
      <trkpt lat="48.71305" lon="6.92119">
        <ele>265.9</ele>
        <time>2021-07-31T09:29:07Z</time>
      </trkpt>
      <trkpt lat="48.71301" lon="6.92117">
        <ele>265.9</ele>
        <time>2021-07-31T09:29:08Z</time>
      </trkpt>
      <trkpt lat="48.71296" lon="6.92112">
        <ele>265.9</ele>
        <time>2021-07-31T09:29:10Z</time>
      </trkpt>
      <trkpt lat="48.71293" lon="6.92109">
        <ele>265.9</ele>
        <time>2021-07-31T09:29:11Z</time>
      </trkpt>
      <trkpt lat="48.71289" lon="6.92106">
        <ele>265.9</ele>
        <time>2021-07-31T09:29:12Z</time>
      </trkpt>
      <trkpt lat="48.71286" lon="6.92104">
        <ele>265.9</ele>
        <time>2021-07-31T09:29:13Z</time>
      </trkpt>
      <trkpt lat="48.71283" lon="6.92101">
        <ele>265.9</ele>
        <time>2021-07-31T09:29:14Z</time>
      </trkpt>
      <trkpt lat="48.7128" lon="6.92098">
        <ele>265.9</ele>
        <time>2021-07-31T09:29:15Z</time>
      </trkpt>
      <trkpt lat="48.71277" lon="6.92096">
        <ele>265.9</ele>
        <time>2021-07-31T09:29:16Z</time>
      </trkpt>
      <trkpt lat="48.71275" lon="6.92094">
        <ele>265.9</ele>
        <time>2021-07-31T09:29:17Z</time>
      </trkpt>
      <trkpt lat="48.71272" lon="6.92091">
        <ele>265.9</ele>
        <time>2021-07-31T09:29:18Z</time>
      </trkpt>
      <trkpt lat="48.7127" lon="6.92088">
        <ele>265.9</ele>
        <time>2021-07-31T09:29:19Z</time>
      </trkpt>
      <trkpt lat="48.71267" lon="6.92086">
        <ele>265.9</ele>
        <time>2021-07-31T09:29:20Z</time>
      </trkpt>
      <trkpt lat="48.71263" lon="6.92083">
        <ele>265.9</ele>
        <time>2021-07-31T09:29:21Z</time>
      </trkpt>
      <trkpt lat="48.7126" lon="6.92081">
        <ele>265.9</ele>
        <time>2021-07-31T09:29:23Z</time>
      </trkpt>
      <trkpt lat="48.71257" lon="6.92078">
        <ele>265.9</ele>
        <time>2021-07-31T09:29:24Z</time>
      </trkpt>
      <trkpt lat="48.71255" lon="6.92076">
        <ele>265.9</ele>
        <time>2021-07-31T09:29:25Z</time>
      </trkpt>
      <trkpt lat="48.71253" lon="6.92074">
        <ele>265.9</ele>
        <time>2021-07-31T09:29:26Z</time>
      </trkpt>
      <trkpt lat="48.71249" lon="6.92071">
        <ele>265.9</ele>
        <time>2021-07-31T09:29:27Z</time>
      </trkpt>
      <trkpt lat="48.71248" lon="6.9207">
        <ele>265.9</ele>
        <time>2021-07-31T09:29:28Z</time>
      </trkpt>
      <trkpt lat="48.71245" lon="6.92067">
        <ele>265.9</ele>
        <time>2021-07-31T09:29:29Z</time>
      </trkpt>
      <trkpt lat="48.71243" lon="6.92064">
        <ele>266</ele>
        <time>2021-07-31T09:29:30Z</time>
      </trkpt>
      <trkpt lat="48.7124" lon="6.9206">
        <ele>266</ele>
        <time>2021-07-31T09:29:31Z</time>
      </trkpt>
      <trkpt lat="48.71238" lon="6.92058">
        <ele>266</ele>
        <time>2021-07-31T09:29:32Z</time>
      </trkpt>
      <trkpt lat="48.71234" lon="6.92055">
        <ele>266</ele>
        <time>2021-07-31T09:29:34Z</time>
      </trkpt>
      <trkpt lat="48.71231" lon="6.92052">
        <ele>266</ele>
        <time>2021-07-31T09:29:35Z</time>
      </trkpt>
      <trkpt lat="48.71227" lon="6.92048">
        <ele>266</ele>
        <time>2021-07-31T09:29:36Z</time>
      </trkpt>
      <trkpt lat="48.71224" lon="6.92045">
        <ele>266</ele>
        <time>2021-07-31T09:29:37Z</time>
      </trkpt>
      <trkpt lat="48.71221" lon="6.92043">
        <ele>266</ele>
        <time>2021-07-31T09:29:38Z</time>
      </trkpt>
      <trkpt lat="48.71216" lon="6.9204">
        <ele>266</ele>
        <time>2021-07-31T09:29:40Z</time>
      </trkpt>
      <trkpt lat="48.71213" lon="6.92037">
        <ele>266</ele>
        <time>2021-07-31T09:29:41Z</time>
      </trkpt>
      <trkpt lat="48.7121" lon="6.92035">
        <ele>266</ele>
        <time>2021-07-31T09:29:42Z</time>
      </trkpt>
      <trkpt lat="48.71205" lon="6.92032">
        <ele>266</ele>
        <time>2021-07-31T09:29:44Z</time>
      </trkpt>
      <trkpt lat="48.71201" lon="6.9203">
        <ele>266</ele>
        <time>2021-07-31T09:29:45Z</time>
      </trkpt>
      <trkpt lat="48.71198" lon="6.92027">
        <ele>266</ele>
        <time>2021-07-31T09:29:46Z</time>
      </trkpt>
      <trkpt lat="48.71195" lon="6.92026">
        <ele>266</ele>
        <time>2021-07-31T09:29:47Z</time>
      </trkpt>
      <trkpt lat="48.71192" lon="6.92025">
        <ele>266</ele>
        <time>2021-07-31T09:29:48Z</time>
      </trkpt>
      <trkpt lat="48.71186" lon="6.92028">
        <ele>266</ele>
        <time>2021-07-31T09:29:50Z</time>
      </trkpt>
      <trkpt lat="48.71182" lon="6.92032">
        <ele>266</ele>
        <time>2021-07-31T09:29:51Z</time>
      </trkpt>
      <trkpt lat="48.71179" lon="6.92033">
        <ele>266</ele>
        <time>2021-07-31T09:29:52Z</time>
      </trkpt>
      <trkpt lat="48.71175" lon="6.92033">
        <ele>266</ele>
        <time>2021-07-31T09:29:54Z</time>
      </trkpt>
      <trkpt lat="48.71171" lon="6.92029">
        <ele>266</ele>
        <time>2021-07-31T09:29:55Z</time>
      </trkpt>
      <trkpt lat="48.71169" lon="6.92028">
        <ele>266</ele>
        <time>2021-07-31T09:29:56Z</time>
      </trkpt>
      <trkpt lat="48.71166" lon="6.92021">
        <ele>266</ele>
        <time>2021-07-31T09:29:58Z</time>
      </trkpt>
      <trkpt lat="48.71163" lon="6.92018">
        <ele>266</ele>
        <time>2021-07-31T09:29:59Z</time>
      </trkpt>
      <trkpt lat="48.71161" lon="6.92014">
        <ele>266</ele>
        <time>2021-07-31T09:30:00Z</time>
      </trkpt>
      <trkpt lat="48.71157" lon="6.92007">
        <ele>266.1</ele>
        <time>2021-07-31T09:30:02Z</time>
      </trkpt>
      <trkpt lat="48.71153" lon="6.92001">
        <ele>266.1</ele>
        <time>2021-07-31T09:30:04Z</time>
      </trkpt>
      <trkpt lat="48.71148" lon="6.91997">
        <ele>266.1</ele>
        <time>2021-07-31T09:30:06Z</time>
      </trkpt>
      <trkpt lat="48.71146" lon="6.91995">
        <ele>266.1</ele>
        <time>2021-07-31T09:30:07Z</time>
      </trkpt>
      <trkpt lat="48.71143" lon="6.91991">
        <ele>266.1</ele>
        <time>2021-07-31T09:30:08Z</time>
      </trkpt>
      <trkpt lat="48.71137" lon="6.91985">
        <ele>266.1</ele>
        <time>2021-07-31T09:30:10Z</time>
      </trkpt>
      <trkpt lat="48.71131" lon="6.91979">
        <ele>266.1</ele>
        <time>2021-07-31T09:30:12Z</time>
      </trkpt>
      <trkpt lat="48.71124" lon="6.91971">
        <ele>266.1</ele>
        <time>2021-07-31T09:30:14Z</time>
      </trkpt>
      <trkpt lat="48.71119" lon="6.91963">
        <ele>266.1</ele>
        <time>2021-07-31T09:30:16Z</time>
      </trkpt>
      <trkpt lat="48.71116" lon="6.91959">
        <ele>266.1</ele>
        <time>2021-07-31T09:30:17Z</time>
      </trkpt>
      <trkpt lat="48.7111" lon="6.9195">
        <ele>266.1</ele>
        <time>2021-07-31T09:30:19Z</time>
      </trkpt>
      <trkpt lat="48.71105" lon="6.91945">
        <ele>266.1</ele>
        <time>2021-07-31T09:30:21Z</time>
      </trkpt>
      <trkpt lat="48.71099" lon="6.91942">
        <ele>266.1</ele>
        <time>2021-07-31T09:30:23Z</time>
      </trkpt>
      <trkpt lat="48.71093" lon="6.91939">
        <ele>266.1</ele>
        <time>2021-07-31T09:30:25Z</time>
      </trkpt>
      <trkpt lat="48.71087" lon="6.91935">
        <ele>266.1</ele>
        <time>2021-07-31T09:30:27Z</time>
      </trkpt>
      <trkpt lat="48.71082" lon="6.91932">
        <ele>266.1</ele>
        <time>2021-07-31T09:30:29Z</time>
      </trkpt>
      <trkpt lat="48.71079" lon="6.9193">
        <ele>266.1</ele>
        <time>2021-07-31T09:30:30Z</time>
      </trkpt>
      <trkpt lat="48.71074" lon="6.91925">
        <ele>266.1</ele>
        <time>2021-07-31T09:30:32Z</time>
      </trkpt>
      <trkpt lat="48.71072" lon="6.91923">
        <ele>266.1</ele>
        <time>2021-07-31T09:30:33Z</time>
      </trkpt>
      <trkpt lat="48.71067" lon="6.9192">
        <ele>266.2</ele>
        <time>2021-07-31T09:30:35Z</time>
      </trkpt>
      <trkpt lat="48.71065" lon="6.9192">
        <ele>266.2</ele>
        <time>2021-07-31T09:30:36Z</time>
      </trkpt>
      <trkpt lat="48.71059" lon="6.91918">
        <ele>266.2</ele>
        <time>2021-07-31T09:30:38Z</time>
      </trkpt>
      <trkpt lat="48.71055" lon="6.91914">
        <ele>266.2</ele>
        <time>2021-07-31T09:30:40Z</time>
      </trkpt>
      <trkpt lat="48.71053" lon="6.91912">
        <ele>266.2</ele>
        <time>2021-07-31T09:30:41Z</time>
      </trkpt>
      <trkpt lat="48.71048" lon="6.91909">
        <ele>266.2</ele>
        <time>2021-07-31T09:30:43Z</time>
      </trkpt>
      <trkpt lat="48.71045" lon="6.91908">
        <ele>266.2</ele>
        <time>2021-07-31T09:30:44Z</time>
      </trkpt>
      <trkpt lat="48.7104" lon="6.91904">
        <ele>266.2</ele>
        <time>2021-07-31T09:30:46Z</time>
      </trkpt>
      <trkpt lat="48.71036" lon="6.91901">
        <ele>266.2</ele>
        <time>2021-07-31T09:30:48Z</time>
      </trkpt>
      <trkpt lat="48.71032" lon="6.91899">
        <ele>266.2</ele>
        <time>2021-07-31T09:30:49Z</time>
      </trkpt>
      <trkpt lat="48.71029" lon="6.91897">
        <ele>266.1</ele>
        <time>2021-07-31T09:30:50Z</time>
      </trkpt>
      <trkpt lat="48.71025" lon="6.91897">
        <ele>266.1</ele>
        <time>2021-07-31T09:30:52Z</time>
      </trkpt>
      <trkpt lat="48.71022" lon="6.91898">
        <ele>266.1</ele>
        <time>2021-07-31T09:30:53Z</time>
      </trkpt>
      <trkpt lat="48.71021" lon="6.91898">
        <ele>266.1</ele>
        <time>2021-07-31T09:30:54Z</time>
      </trkpt>
      <trkpt lat="48.71018" lon="6.91895">
        <ele>266.1</ele>
        <time>2021-07-31T09:30:55Z</time>
      </trkpt>
      <trkpt lat="48.71017" lon="6.91894">
        <ele>266.1</ele>
        <time>2021-07-31T09:30:56Z</time>
      </trkpt>
      <trkpt lat="48.71014" lon="6.9189">
        <ele>266.1</ele>
        <time>2021-07-31T09:30:57Z</time>
      </trkpt>
      <trkpt lat="48.71011" lon="6.91887">
        <ele>266</ele>
        <time>2021-07-31T09:30:58Z</time>
      </trkpt>
      <trkpt lat="48.71008" lon="6.91884">
        <ele>266</ele>
        <time>2021-07-31T09:30:59Z</time>
      </trkpt>
      <trkpt lat="48.71005" lon="6.91881">
        <ele>266</ele>
        <time>2021-07-31T09:31:00Z</time>
      </trkpt>
      <trkpt lat="48.71002" lon="6.91878">
        <ele>266</ele>
        <time>2021-07-31T09:31:02Z</time>
      </trkpt>
      <trkpt lat="48.71" lon="6.91875">
        <ele>266</ele>
        <time>2021-07-31T09:31:03Z</time>
      </trkpt>
      <trkpt lat="48.70996" lon="6.91872">
        <ele>266</ele>
        <time>2021-07-31T09:31:04Z</time>
      </trkpt>
      <trkpt lat="48.70994" lon="6.91868">
        <ele>266</ele>
        <time>2021-07-31T09:31:05Z</time>
      </trkpt>
      <trkpt lat="48.70991" lon="6.91865">
        <ele>266</ele>
        <time>2021-07-31T09:31:06Z</time>
      </trkpt>
      <trkpt lat="48.70989" lon="6.91861">
        <ele>266</ele>
        <time>2021-07-31T09:31:07Z</time>
      </trkpt>
      <trkpt lat="48.70986" lon="6.91857">
        <ele>266</ele>
        <time>2021-07-31T09:31:08Z</time>
      </trkpt>
      <trkpt lat="48.70981" lon="6.91852">
        <ele>266</ele>
        <time>2021-07-31T09:31:10Z</time>
      </trkpt>
      <trkpt lat="48.70978" lon="6.91849">
        <ele>266</ele>
        <time>2021-07-31T09:31:11Z</time>
      </trkpt>
      <trkpt lat="48.70975" lon="6.91846">
        <ele>266</ele>
        <time>2021-07-31T09:31:12Z</time>
      </trkpt>
      <trkpt lat="48.70969" lon="6.91841">
        <ele>266</ele>
        <time>2021-07-31T09:31:14Z</time>
      </trkpt>
      <trkpt lat="48.70964" lon="6.91835">
        <ele>266</ele>
        <time>2021-07-31T09:31:16Z</time>
      </trkpt>
      <trkpt lat="48.70961" lon="6.91833">
        <ele>266</ele>
        <time>2021-07-31T09:31:17Z</time>
      </trkpt>
      <trkpt lat="48.70959" lon="6.91831">
        <ele>266</ele>
        <time>2021-07-31T09:31:18Z</time>
      </trkpt>
      <trkpt lat="48.70956" lon="6.91829">
        <ele>266</ele>
        <time>2021-07-31T09:31:19Z</time>
      </trkpt>
      <trkpt lat="48.70954" lon="6.91827">
        <ele>265.9</ele>
        <time>2021-07-31T09:31:20Z</time>
      </trkpt>
      <trkpt lat="48.70947" lon="6.91821">
        <ele>265.9</ele>
        <time>2021-07-31T09:31:22Z</time>
      </trkpt>
      <trkpt lat="48.70943" lon="6.91819">
        <ele>265.9</ele>
        <time>2021-07-31T09:31:23Z</time>
      </trkpt>
      <trkpt lat="48.7094" lon="6.91817">
        <ele>265.9</ele>
        <time>2021-07-31T09:31:24Z</time>
      </trkpt>
      <trkpt lat="48.70935" lon="6.91814">
        <ele>265.9</ele>
        <time>2021-07-31T09:31:26Z</time>
      </trkpt>
      <trkpt lat="48.70934" lon="6.91812">
        <ele>265.9</ele>
        <time>2021-07-31T09:31:27Z</time>
      </trkpt>
      <trkpt lat="48.7093" lon="6.91804">
        <ele>265.9</ele>
        <time>2021-07-31T09:31:29Z</time>
      </trkpt>
      <trkpt lat="48.70927" lon="6.91801">
        <ele>265.9</ele>
        <time>2021-07-31T09:31:30Z</time>
      </trkpt>
      <trkpt lat="48.70925" lon="6.918">
        <ele>265.9</ele>
        <time>2021-07-31T09:31:31Z</time>
      </trkpt>
      <trkpt lat="48.70921" lon="6.91796">
        <ele>265.9</ele>
        <time>2021-07-31T09:31:33Z</time>
      </trkpt>
      <trkpt lat="48.70916" lon="6.91793">
        <ele>265.8</ele>
        <time>2021-07-31T09:31:35Z</time>
      </trkpt>
      <trkpt lat="48.70914" lon="6.9179">
        <ele>265.8</ele>
        <time>2021-07-31T09:31:36Z</time>
      </trkpt>
      <trkpt lat="48.70908" lon="6.91784">
        <ele>265.8</ele>
        <time>2021-07-31T09:31:38Z</time>
      </trkpt>
      <trkpt lat="48.70902" lon="6.9178">
        <ele>265.8</ele>
        <time>2021-07-31T09:31:40Z</time>
      </trkpt>
      <trkpt lat="48.709" lon="6.91778">
        <ele>265.8</ele>
        <time>2021-07-31T09:31:41Z</time>
      </trkpt>
      <trkpt lat="48.70896" lon="6.91775">
        <ele>265.8</ele>
        <time>2021-07-31T09:31:42Z</time>
      </trkpt>
      <trkpt lat="48.70895" lon="6.91774">
        <ele>265.8</ele>
        <time>2021-07-31T09:31:43Z</time>
      </trkpt>
      <trkpt lat="48.70891" lon="6.9177">
        <ele>265.8</ele>
        <time>2021-07-31T09:31:45Z</time>
      </trkpt>
      <trkpt lat="48.7089" lon="6.91769">
        <ele>265.8</ele>
        <time>2021-07-31T09:31:46Z</time>
      </trkpt>
      <trkpt lat="48.70888" lon="6.91767">
        <ele>265.8</ele>
        <time>2021-07-31T09:31:47Z</time>
      </trkpt>
      <trkpt lat="48.70886" lon="6.91764">
        <ele>265.8</ele>
        <time>2021-07-31T09:31:48Z</time>
      </trkpt>
      <trkpt lat="48.70883" lon="6.91762">
        <ele>265.8</ele>
        <time>2021-07-31T09:31:49Z</time>
      </trkpt>
      <trkpt lat="48.70879" lon="6.9176">
        <ele>265.8</ele>
        <time>2021-07-31T09:31:50Z</time>
      </trkpt>
      <trkpt lat="48.70876" lon="6.91759">
        <ele>265.8</ele>
        <time>2021-07-31T09:31:51Z</time>
      </trkpt>
      <trkpt lat="48.70873" lon="6.91757">
        <ele>265.8</ele>
        <time>2021-07-31T09:31:52Z</time>
      </trkpt>
      <trkpt lat="48.7087" lon="6.91754">
        <ele>265.8</ele>
        <time>2021-07-31T09:31:53Z</time>
      </trkpt>
      <trkpt lat="48.70866" lon="6.91751">
        <ele>265.8</ele>
        <time>2021-07-31T09:31:54Z</time>
      </trkpt>
      <trkpt lat="48.70862" lon="6.91748">
        <ele>265.8</ele>
        <time>2021-07-31T09:31:55Z</time>
      </trkpt>
      <trkpt lat="48.70858" lon="6.91746">
        <ele>265.8</ele>
        <time>2021-07-31T09:31:57Z</time>
      </trkpt>
      <trkpt lat="48.70856" lon="6.91744">
        <ele>265.8</ele>
        <time>2021-07-31T09:31:58Z</time>
      </trkpt>
      <trkpt lat="48.70851" lon="6.91741">
        <ele>265.8</ele>
        <time>2021-07-31T09:31:59Z</time>
      </trkpt>
      <trkpt lat="48.70849" lon="6.9174">
        <ele>265.8</ele>
        <time>2021-07-31T09:32:00Z</time>
      </trkpt>
      <trkpt lat="48.70846" lon="6.91739">
        <ele>265.8</ele>
        <time>2021-07-31T09:32:01Z</time>
      </trkpt>
      <trkpt lat="48.70844" lon="6.91737">
        <ele>265.8</ele>
        <time>2021-07-31T09:32:02Z</time>
      </trkpt>
      <trkpt lat="48.7084" lon="6.91734">
        <ele>265.8</ele>
        <time>2021-07-31T09:32:04Z</time>
      </trkpt>
      <trkpt lat="48.70838" lon="6.91733">
        <ele>265.8</ele>
        <time>2021-07-31T09:32:05Z</time>
      </trkpt>
      <trkpt lat="48.70833" lon="6.91731">
        <ele>265.8</ele>
        <time>2021-07-31T09:32:07Z</time>
      </trkpt>
      <trkpt lat="48.70831" lon="6.91729">
        <ele>265.8</ele>
        <time>2021-07-31T09:32:08Z</time>
      </trkpt>
      <trkpt lat="48.70828" lon="6.91724">
        <ele>265.8</ele>
        <time>2021-07-31T09:32:09Z</time>
      </trkpt>
      <trkpt lat="48.70823" lon="6.91718">
        <ele>265.7</ele>
        <time>2021-07-31T09:32:11Z</time>
      </trkpt>
      <trkpt lat="48.7082" lon="6.91715">
        <ele>265.7</ele>
        <time>2021-07-31T09:32:12Z</time>
      </trkpt>
      <trkpt lat="48.70816" lon="6.91712">
        <ele>265.7</ele>
        <time>2021-07-31T09:32:13Z</time>
      </trkpt>
      <trkpt lat="48.7081" lon="6.9171">
        <ele>265.7</ele>
        <time>2021-07-31T09:32:15Z</time>
      </trkpt>
      <trkpt lat="48.70805" lon="6.91707">
        <ele>265.7</ele>
        <time>2021-07-31T09:32:17Z</time>
      </trkpt>
      <trkpt lat="48.70802" lon="6.91705">
        <ele>265.7</ele>
        <time>2021-07-31T09:32:18Z</time>
      </trkpt>
      <trkpt lat="48.70798" lon="6.91702">
        <ele>265.7</ele>
        <time>2021-07-31T09:32:20Z</time>
      </trkpt>
      <trkpt lat="48.70794" lon="6.91699">
        <ele>265.7</ele>
        <time>2021-07-31T09:32:21Z</time>
      </trkpt>
      <trkpt lat="48.7079" lon="6.91697">
        <ele>265.7</ele>
        <time>2021-07-31T09:32:23Z</time>
      </trkpt>
      <trkpt lat="48.70788" lon="6.91696">
        <ele>265.7</ele>
        <time>2021-07-31T09:32:24Z</time>
      </trkpt>
      <trkpt lat="48.70785" lon="6.91694">
        <ele>265.7</ele>
        <time>2021-07-31T09:32:25Z</time>
      </trkpt>
      <trkpt lat="48.70781" lon="6.91691">
        <ele>265.7</ele>
        <time>2021-07-31T09:32:26Z</time>
      </trkpt>
      <trkpt lat="48.7078" lon="6.91689">
        <ele>265.7</ele>
        <time>2021-07-31T09:32:27Z</time>
      </trkpt>
      <trkpt lat="48.70777" lon="6.91687">
        <ele>265.7</ele>
        <time>2021-07-31T09:32:28Z</time>
      </trkpt>
      <trkpt lat="48.70772" lon="6.91684">
        <ele>265.7</ele>
        <time>2021-07-31T09:32:30Z</time>
      </trkpt>
      <trkpt lat="48.7077" lon="6.91683">
        <ele>265.7</ele>
        <time>2021-07-31T09:32:31Z</time>
      </trkpt>
      <trkpt lat="48.70768" lon="6.91683">
        <ele>265.8</ele>
        <time>2021-07-31T09:32:32Z</time>
      </trkpt>
      <trkpt lat="48.70765" lon="6.91681">
        <ele>265.8</ele>
        <time>2021-07-31T09:32:33Z</time>
      </trkpt>
      <trkpt lat="48.70762" lon="6.91679">
        <ele>265.8</ele>
        <time>2021-07-31T09:32:34Z</time>
      </trkpt>
      <trkpt lat="48.70759" lon="6.91677">
        <ele>265.8</ele>
        <time>2021-07-31T09:32:35Z</time>
      </trkpt>
      <trkpt lat="48.70756" lon="6.91675">
        <ele>265.8</ele>
        <time>2021-07-31T09:32:36Z</time>
      </trkpt>
      <trkpt lat="48.70752" lon="6.91673">
        <ele>265.8</ele>
        <time>2021-07-31T09:32:37Z</time>
      </trkpt>
      <trkpt lat="48.70749" lon="6.91671">
        <ele>265.8</ele>
        <time>2021-07-31T09:32:39Z</time>
      </trkpt>
      <trkpt lat="48.70746" lon="6.91669">
        <ele>265.8</ele>
        <time>2021-07-31T09:32:40Z</time>
      </trkpt>
      <trkpt lat="48.70743" lon="6.91666">
        <ele>265.8</ele>
        <time>2021-07-31T09:32:41Z</time>
      </trkpt>
      <trkpt lat="48.70735" lon="6.91663">
        <ele>265.8</ele>
        <time>2021-07-31T09:32:44Z</time>
      </trkpt>
      <trkpt lat="48.70732" lon="6.91663">
        <ele>265.8</ele>
        <time>2021-07-31T09:32:45Z</time>
      </trkpt>
      <trkpt lat="48.70729" lon="6.91663">
        <ele>265.8</ele>
        <time>2021-07-31T09:32:46Z</time>
      </trkpt>
      <trkpt lat="48.70726" lon="6.91663">
        <ele>265.8</ele>
        <time>2021-07-31T09:32:47Z</time>
      </trkpt>
      <trkpt lat="48.70723" lon="6.91662">
        <ele>265.8</ele>
        <time>2021-07-31T09:32:48Z</time>
      </trkpt>
      <trkpt lat="48.70719" lon="6.91659">
        <ele>265.8</ele>
        <time>2021-07-31T09:32:50Z</time>
      </trkpt>
      <trkpt lat="48.70714" lon="6.91656">
        <ele>265.8</ele>
        <time>2021-07-31T09:32:52Z</time>
      </trkpt>
      <trkpt lat="48.70711" lon="6.91654">
        <ele>265.8</ele>
        <time>2021-07-31T09:32:53Z</time>
      </trkpt>
      <trkpt lat="48.70708" lon="6.91651">
        <ele>265.8</ele>
        <time>2021-07-31T09:32:54Z</time>
      </trkpt>
      <trkpt lat="48.70705" lon="6.91648">
        <ele>265.7</ele>
        <time>2021-07-31T09:32:55Z</time>
      </trkpt>
      <trkpt lat="48.70701" lon="6.91645">
        <ele>265.7</ele>
        <time>2021-07-31T09:32:56Z</time>
      </trkpt>
      <trkpt lat="48.70697" lon="6.91642">
        <ele>265.7</ele>
        <time>2021-07-31T09:32:57Z</time>
      </trkpt>
      <trkpt lat="48.70691" lon="6.91637">
        <ele>265.7</ele>
        <time>2021-07-31T09:32:59Z</time>
      </trkpt>
      <trkpt lat="48.70688" lon="6.91634">
        <ele>265.7</ele>
        <time>2021-07-31T09:33:00Z</time>
      </trkpt>
      <trkpt lat="48.70685" lon="6.91632">
        <ele>265.7</ele>
        <time>2021-07-31T09:33:01Z</time>
      </trkpt>
      <trkpt lat="48.7068" lon="6.91629">
        <ele>265.7</ele>
        <time>2021-07-31T09:33:02Z</time>
      </trkpt>
      <trkpt lat="48.70676" lon="6.91628">
        <ele>265.7</ele>
        <time>2021-07-31T09:33:03Z</time>
      </trkpt>
      <trkpt lat="48.70673" lon="6.91626">
        <ele>265.6</ele>
        <time>2021-07-31T09:33:04Z</time>
      </trkpt>
      <trkpt lat="48.70671" lon="6.91625">
        <ele>265.6</ele>
        <time>2021-07-31T09:33:06Z</time>
      </trkpt>
      <trkpt lat="48.70667" lon="6.91623">
        <ele>265.6</ele>
        <time>2021-07-31T09:33:07Z</time>
      </trkpt>
      <trkpt lat="48.70664" lon="6.91622">
        <ele>265.6</ele>
        <time>2021-07-31T09:33:08Z</time>
      </trkpt>
      <trkpt lat="48.70659" lon="6.91621">
        <ele>265.6</ele>
        <time>2021-07-31T09:33:10Z</time>
      </trkpt>
      <trkpt lat="48.70656" lon="6.9162">
        <ele>265.6</ele>
        <time>2021-07-31T09:33:11Z</time>
      </trkpt>
      <trkpt lat="48.70654" lon="6.91621">
        <ele>265.6</ele>
        <time>2021-07-31T09:33:12Z</time>
      </trkpt>
      <trkpt lat="48.70649" lon="6.9162">
        <ele>265.6</ele>
        <time>2021-07-31T09:33:14Z</time>
      </trkpt>
      <trkpt lat="48.70645" lon="6.91614">
        <ele>265.6</ele>
        <time>2021-07-31T09:33:16Z</time>
      </trkpt>
      <trkpt lat="48.70642" lon="6.91612">
        <ele>265.6</ele>
        <time>2021-07-31T09:33:17Z</time>
      </trkpt>
      <trkpt lat="48.70638" lon="6.91606">
        <ele>265.6</ele>
        <time>2021-07-31T09:33:18Z</time>
      </trkpt>
      <trkpt lat="48.70635" lon="6.91604">
        <ele>265.7</ele>
        <time>2021-07-31T09:33:20Z</time>
      </trkpt>
      <trkpt lat="48.70632" lon="6.91603">
        <ele>265.7</ele>
        <time>2021-07-31T09:33:21Z</time>
      </trkpt>
      <trkpt lat="48.70627" lon="6.91602">
        <ele>265.7</ele>
        <time>2021-07-31T09:33:23Z</time>
      </trkpt>
      <trkpt lat="48.70624" lon="6.91601">
        <ele>265.7</ele>
        <time>2021-07-31T09:33:24Z</time>
      </trkpt>
      <trkpt lat="48.70621" lon="6.91599">
        <ele>265.7</ele>
        <time>2021-07-31T09:33:25Z</time>
      </trkpt>
      <trkpt lat="48.70616" lon="6.91596">
        <ele>265.8</ele>
        <time>2021-07-31T09:33:26Z</time>
      </trkpt>
      <trkpt lat="48.70613" lon="6.91593">
        <ele>265.8</ele>
        <time>2021-07-31T09:33:28Z</time>
      </trkpt>
      <trkpt lat="48.7061" lon="6.91591">
        <ele>265.8</ele>
        <time>2021-07-31T09:33:29Z</time>
      </trkpt>
      <trkpt lat="48.70607" lon="6.91588">
        <ele>265.8</ele>
        <time>2021-07-31T09:33:30Z</time>
      </trkpt>
      <trkpt lat="48.70604" lon="6.91586">
        <ele>265.8</ele>
        <time>2021-07-31T09:33:31Z</time>
      </trkpt>
      <trkpt lat="48.70601" lon="6.91585">
        <ele>265.8</ele>
        <time>2021-07-31T09:33:32Z</time>
      </trkpt>
      <trkpt lat="48.70597" lon="6.91584">
        <ele>265.8</ele>
        <time>2021-07-31T09:33:33Z</time>
      </trkpt>
      <trkpt lat="48.70593" lon="6.91581">
        <ele>265.8</ele>
        <time>2021-07-31T09:33:34Z</time>
      </trkpt>
      <trkpt lat="48.7059" lon="6.91579">
        <ele>265.8</ele>
        <time>2021-07-31T09:33:35Z</time>
      </trkpt>
      <trkpt lat="48.70586" lon="6.91577">
        <ele>265.8</ele>
        <time>2021-07-31T09:33:36Z</time>
      </trkpt>
      <trkpt lat="48.70579" lon="6.91574">
        <ele>265.8</ele>
        <time>2021-07-31T09:33:38Z</time>
      </trkpt>
      <trkpt lat="48.70573" lon="6.91572">
        <ele>265.8</ele>
        <time>2021-07-31T09:33:40Z</time>
      </trkpt>
      <trkpt lat="48.70568" lon="6.91572">
        <ele>265.8</ele>
        <time>2021-07-31T09:33:42Z</time>
      </trkpt>
      <trkpt lat="48.70565" lon="6.91571">
        <ele>265.8</ele>
        <time>2021-07-31T09:33:43Z</time>
      </trkpt>
      <trkpt lat="48.70562" lon="6.91571">
        <ele>265.8</ele>
        <time>2021-07-31T09:33:44Z</time>
      </trkpt>
      <trkpt lat="48.70559" lon="6.9157">
        <ele>265.8</ele>
        <time>2021-07-31T09:33:45Z</time>
      </trkpt>
      <trkpt lat="48.70556" lon="6.91569">
        <ele>265.8</ele>
        <time>2021-07-31T09:33:46Z</time>
      </trkpt>
      <trkpt lat="48.70553" lon="6.91567">
        <ele>265.8</ele>
        <time>2021-07-31T09:33:47Z</time>
      </trkpt>
      <trkpt lat="48.70551" lon="6.91564">
        <ele>265.8</ele>
        <time>2021-07-31T09:33:48Z</time>
      </trkpt>
      <trkpt lat="48.70548" lon="6.91561">
        <ele>265.8</ele>
        <time>2021-07-31T09:33:49Z</time>
      </trkpt>
      <trkpt lat="48.70545" lon="6.91559">
        <ele>265.9</ele>
        <time>2021-07-31T09:33:50Z</time>
      </trkpt>
      <trkpt lat="48.70542" lon="6.91557">
        <ele>265.9</ele>
        <time>2021-07-31T09:33:51Z</time>
      </trkpt>
      <trkpt lat="48.70538" lon="6.91555">
        <ele>265.9</ele>
        <time>2021-07-31T09:33:52Z</time>
      </trkpt>
      <trkpt lat="48.70534" lon="6.91555">
        <ele>265.9</ele>
        <time>2021-07-31T09:33:54Z</time>
      </trkpt>
      <trkpt lat="48.70532" lon="6.91555">
        <ele>265.9</ele>
        <time>2021-07-31T09:33:55Z</time>
      </trkpt>
      <trkpt lat="48.70531" lon="6.91554">
        <ele>265.9</ele>
        <time>2021-07-31T09:33:56Z</time>
      </trkpt>
      <trkpt lat="48.70528" lon="6.91552">
        <ele>265.9</ele>
        <time>2021-07-31T09:33:57Z</time>
      </trkpt>
      <trkpt lat="48.70525" lon="6.9155">
        <ele>265.9</ele>
        <time>2021-07-31T09:33:58Z</time>
      </trkpt>
      <trkpt lat="48.70522" lon="6.91548">
        <ele>266</ele>
        <time>2021-07-31T09:33:59Z</time>
      </trkpt>
      <trkpt lat="48.70521" lon="6.91548">
        <ele>266</ele>
        <time>2021-07-31T09:34:00Z</time>
      </trkpt>
      <trkpt lat="48.70518" lon="6.91546">
        <ele>266</ele>
        <time>2021-07-31T09:34:01Z</time>
      </trkpt>
      <trkpt lat="48.70515" lon="6.91545">
        <ele>266</ele>
        <time>2021-07-31T09:34:02Z</time>
      </trkpt>
      <trkpt lat="48.70512" lon="6.91543">
        <ele>266</ele>
        <time>2021-07-31T09:34:03Z</time>
      </trkpt>
      <trkpt lat="48.70509" lon="6.91542">
        <ele>266</ele>
        <time>2021-07-31T09:34:04Z</time>
      </trkpt>
      <trkpt lat="48.70507" lon="6.9154">
        <ele>266</ele>
        <time>2021-07-31T09:34:06Z</time>
      </trkpt>
      <trkpt lat="48.70504" lon="6.91537">
        <ele>266</ele>
        <time>2021-07-31T09:34:07Z</time>
      </trkpt>
      <trkpt lat="48.705" lon="6.91535">
        <ele>266</ele>
        <time>2021-07-31T09:34:08Z</time>
      </trkpt>
      <trkpt lat="48.70494" lon="6.91532">
        <ele>266.1</ele>
        <time>2021-07-31T09:34:10Z</time>
      </trkpt>
      <trkpt lat="48.7049" lon="6.9153">
        <ele>266.1</ele>
        <time>2021-07-31T09:34:11Z</time>
      </trkpt>
      <trkpt lat="48.70485" lon="6.91527">
        <ele>266.1</ele>
        <time>2021-07-31T09:34:13Z</time>
      </trkpt>
      <trkpt lat="48.70481" lon="6.91526">
        <ele>266.1</ele>
        <time>2021-07-31T09:34:14Z</time>
      </trkpt>
      <trkpt lat="48.70477" lon="6.91524">
        <ele>266.1</ele>
        <time>2021-07-31T09:34:15Z</time>
      </trkpt>
      <trkpt lat="48.70474" lon="6.91522">
        <ele>266.1</ele>
        <time>2021-07-31T09:34:16Z</time>
      </trkpt>
      <trkpt lat="48.70471" lon="6.91521">
        <ele>266.1</ele>
        <time>2021-07-31T09:34:17Z</time>
      </trkpt>
      <trkpt lat="48.70468" lon="6.91518">
        <ele>266.1</ele>
        <time>2021-07-31T09:34:18Z</time>
      </trkpt>
      <trkpt lat="48.70462" lon="6.91516">
        <ele>266.2</ele>
        <time>2021-07-31T09:34:20Z</time>
      </trkpt>
      <trkpt lat="48.70458" lon="6.91514">
        <ele>266.2</ele>
        <time>2021-07-31T09:34:21Z</time>
      </trkpt>
      <trkpt lat="48.70455" lon="6.91512">
        <ele>266.2</ele>
        <time>2021-07-31T09:34:22Z</time>
      </trkpt>
      <trkpt lat="48.7045" lon="6.91509">
        <ele>266.2</ele>
        <time>2021-07-31T09:34:24Z</time>
      </trkpt>
      <trkpt lat="48.70446" lon="6.91506">
        <ele>266.2</ele>
        <time>2021-07-31T09:34:25Z</time>
      </trkpt>
      <trkpt lat="48.70441" lon="6.91503">
        <ele>266.2</ele>
        <time>2021-07-31T09:34:27Z</time>
      </trkpt>
      <trkpt lat="48.70437" lon="6.91497">
        <ele>266.2</ele>
        <time>2021-07-31T09:34:28Z</time>
      </trkpt>
      <trkpt lat="48.70433" lon="6.91493">
        <ele>266.2</ele>
        <time>2021-07-31T09:34:29Z</time>
      </trkpt>
      <trkpt lat="48.7043" lon="6.91489">
        <ele>266.2</ele>
        <time>2021-07-31T09:34:30Z</time>
      </trkpt>
      <trkpt lat="48.70426" lon="6.91483">
        <ele>266.1</ele>
        <time>2021-07-31T09:34:31Z</time>
      </trkpt>
      <trkpt lat="48.70419" lon="6.91477">
        <ele>266.1</ele>
        <time>2021-07-31T09:34:33Z</time>
      </trkpt>
      <trkpt lat="48.70416" lon="6.91474">
        <ele>266.1</ele>
        <time>2021-07-31T09:34:34Z</time>
      </trkpt>
      <trkpt lat="48.70412" lon="6.91472">
        <ele>266.1</ele>
        <time>2021-07-31T09:34:35Z</time>
      </trkpt>
      <trkpt lat="48.70409" lon="6.9147">
        <ele>266.1</ele>
        <time>2021-07-31T09:34:36Z</time>
      </trkpt>
      <trkpt lat="48.70403" lon="6.91464">
        <ele>266.1</ele>
        <time>2021-07-31T09:34:38Z</time>
      </trkpt>
      <trkpt lat="48.70396" lon="6.91458">
        <ele>266.1</ele>
        <time>2021-07-31T09:34:40Z</time>
      </trkpt>
      <trkpt lat="48.70389" lon="6.9145">
        <ele>266.1</ele>
        <time>2021-07-31T09:34:42Z</time>
      </trkpt>
      <trkpt lat="48.70382" lon="6.91443">
        <ele>266.1</ele>
        <time>2021-07-31T09:34:44Z</time>
      </trkpt>
      <trkpt lat="48.70377" lon="6.9144">
        <ele>266.1</ele>
        <time>2021-07-31T09:34:45Z</time>
      </trkpt>
      <trkpt lat="48.70374" lon="6.91438">
        <ele>266.1</ele>
        <time>2021-07-31T09:34:46Z</time>
      </trkpt>
      <trkpt lat="48.7037" lon="6.91435">
        <ele>266.1</ele>
        <time>2021-07-31T09:34:47Z</time>
      </trkpt>
      <trkpt lat="48.70365" lon="6.91432">
        <ele>266.1</ele>
        <time>2021-07-31T09:34:49Z</time>
      </trkpt>
      <trkpt lat="48.70362" lon="6.91429">
        <ele>266.1</ele>
        <time>2021-07-31T09:34:50Z</time>
      </trkpt>
      <trkpt lat="48.70359" lon="6.91426">
        <ele>266.1</ele>
        <time>2021-07-31T09:34:51Z</time>
      </trkpt>
      <trkpt lat="48.70353" lon="6.91421">
        <ele>266.1</ele>
        <time>2021-07-31T09:34:53Z</time>
      </trkpt>
      <trkpt lat="48.7035" lon="6.91418">
        <ele>266.1</ele>
        <time>2021-07-31T09:34:54Z</time>
      </trkpt>
      <trkpt lat="48.70344" lon="6.91412">
        <ele>266.1</ele>
        <time>2021-07-31T09:34:56Z</time>
      </trkpt>
      <trkpt lat="48.70338" lon="6.91408">
        <ele>266.1</ele>
        <time>2021-07-31T09:34:58Z</time>
      </trkpt>
      <trkpt lat="48.70336" lon="6.91405">
        <ele>266</ele>
        <time>2021-07-31T09:34:59Z</time>
      </trkpt>
      <trkpt lat="48.70334" lon="6.91403">
        <ele>266</ele>
        <time>2021-07-31T09:35:00Z</time>
      </trkpt>
      <trkpt lat="48.70331" lon="6.91401">
        <ele>266</ele>
        <time>2021-07-31T09:35:01Z</time>
      </trkpt>
      <trkpt lat="48.70328" lon="6.91399">
        <ele>266</ele>
        <time>2021-07-31T09:35:02Z</time>
      </trkpt>
      <trkpt lat="48.70321" lon="6.91397">
        <ele>266</ele>
        <time>2021-07-31T09:35:04Z</time>
      </trkpt>
      <trkpt lat="48.70318" lon="6.91396">
        <ele>266</ele>
        <time>2021-07-31T09:35:05Z</time>
      </trkpt>
      <trkpt lat="48.70315" lon="6.91394">
        <ele>266</ele>
        <time>2021-07-31T09:35:06Z</time>
      </trkpt>
      <trkpt lat="48.70309" lon="6.9139">
        <ele>266.1</ele>
        <time>2021-07-31T09:35:08Z</time>
      </trkpt>
      <trkpt lat="48.70304" lon="6.91384">
        <ele>266.1</ele>
        <time>2021-07-31T09:35:10Z</time>
      </trkpt>
      <trkpt lat="48.70299" lon="6.91379">
        <ele>266.1</ele>
        <time>2021-07-31T09:35:12Z</time>
      </trkpt>
      <trkpt lat="48.70296" lon="6.91376">
        <ele>266.1</ele>
        <time>2021-07-31T09:35:13Z</time>
      </trkpt>
      <trkpt lat="48.70293" lon="6.91372">
        <ele>266.1</ele>
        <time>2021-07-31T09:35:15Z</time>
      </trkpt>
      <trkpt lat="48.7029" lon="6.91369">
        <ele>266.1</ele>
        <time>2021-07-31T09:35:17Z</time>
      </trkpt>
      <trkpt lat="48.70287" lon="6.91367">
        <ele>266.1</ele>
        <time>2021-07-31T09:35:18Z</time>
      </trkpt>
      <trkpt lat="48.70284" lon="6.91365">
        <ele>266.1</ele>
        <time>2021-07-31T09:35:19Z</time>
      </trkpt>
      <trkpt lat="48.70282" lon="6.91362">
        <ele>266.1</ele>
        <time>2021-07-31T09:35:20Z</time>
      </trkpt>
      <trkpt lat="48.70278" lon="6.91358">
        <ele>266</ele>
        <time>2021-07-31T09:35:22Z</time>
      </trkpt>
      <trkpt lat="48.70275" lon="6.91355">
        <ele>265.9</ele>
        <time>2021-07-31T09:35:23Z</time>
      </trkpt>
      <trkpt lat="48.70272" lon="6.91353">
        <ele>265.9</ele>
        <time>2021-07-31T09:35:24Z</time>
      </trkpt>
      <trkpt lat="48.70268" lon="6.9135">
        <ele>265.9</ele>
        <time>2021-07-31T09:35:25Z</time>
      </trkpt>
      <trkpt lat="48.70264" lon="6.91347">
        <ele>265.8</ele>
        <time>2021-07-31T09:35:26Z</time>
      </trkpt>
      <trkpt lat="48.70261" lon="6.91345">
        <ele>265.8</ele>
        <time>2021-07-31T09:35:27Z</time>
      </trkpt>
      <trkpt lat="48.70254" lon="6.91341">
        <ele>265.7</ele>
        <time>2021-07-31T09:35:29Z</time>
      </trkpt>
      <trkpt lat="48.7025" lon="6.91339">
        <ele>265.7</ele>
        <time>2021-07-31T09:35:30Z</time>
      </trkpt>
      <trkpt lat="48.70242" lon="6.91334">
        <ele>265.6</ele>
        <time>2021-07-31T09:35:32Z</time>
      </trkpt>
      <trkpt lat="48.70238" lon="6.91332">
        <ele>265.6</ele>
        <time>2021-07-31T09:35:33Z</time>
      </trkpt>
      <trkpt lat="48.70233" lon="6.9133">
        <ele>265.5</ele>
        <time>2021-07-31T09:35:35Z</time>
      </trkpt>
      <trkpt lat="48.70228" lon="6.9133">
        <ele>265.5</ele>
        <time>2021-07-31T09:35:36Z</time>
      </trkpt>
      <trkpt lat="48.70225" lon="6.91329">
        <ele>265.4</ele>
        <time>2021-07-31T09:35:37Z</time>
      </trkpt>
      <trkpt lat="48.70222" lon="6.91328">
        <ele>265.4</ele>
        <time>2021-07-31T09:35:38Z</time>
      </trkpt>
      <trkpt lat="48.70217" lon="6.91324">
        <ele>265.3</ele>
        <time>2021-07-31T09:35:40Z</time>
      </trkpt>
      <trkpt lat="48.70212" lon="6.9132">
        <ele>265.3</ele>
        <time>2021-07-31T09:35:41Z</time>
      </trkpt>
      <trkpt lat="48.70209" lon="6.91316">
        <ele>265.3</ele>
        <time>2021-07-31T09:35:42Z</time>
      </trkpt>
      <trkpt lat="48.70206" lon="6.91312">
        <ele>265.2</ele>
        <time>2021-07-31T09:35:43Z</time>
      </trkpt>
      <trkpt lat="48.70203" lon="6.91309">
        <ele>265.2</ele>
        <time>2021-07-31T09:35:44Z</time>
      </trkpt>
      <trkpt lat="48.70196" lon="6.91303">
        <ele>265.2</ele>
        <time>2021-07-31T09:35:46Z</time>
      </trkpt>
      <trkpt lat="48.70193" lon="6.913">
        <ele>265.2</ele>
        <time>2021-07-31T09:35:47Z</time>
      </trkpt>
      <trkpt lat="48.7019" lon="6.91296">
        <ele>265.2</ele>
        <time>2021-07-31T09:35:48Z</time>
      </trkpt>
      <trkpt lat="48.70186" lon="6.91292">
        <ele>265.2</ele>
        <time>2021-07-31T09:35:50Z</time>
      </trkpt>
      <trkpt lat="48.70182" lon="6.91288">
        <ele>265.2</ele>
        <time>2021-07-31T09:35:51Z</time>
      </trkpt>
      <trkpt lat="48.70179" lon="6.91285">
        <ele>265.2</ele>
        <time>2021-07-31T09:35:52Z</time>
      </trkpt>
      <trkpt lat="48.70173" lon="6.91279">
        <ele>265.1</ele>
        <time>2021-07-31T09:35:54Z</time>
      </trkpt>
      <trkpt lat="48.70166" lon="6.91275">
        <ele>265.1</ele>
        <time>2021-07-31T09:35:56Z</time>
      </trkpt>
      <trkpt lat="48.70163" lon="6.91266">
        <ele>265.1</ele>
        <time>2021-07-31T09:35:58Z</time>
      </trkpt>
      <trkpt lat="48.70157" lon="6.9126">
        <ele>265.1</ele>
        <time>2021-07-31T09:35:59Z</time>
      </trkpt>
      <trkpt lat="48.7015" lon="6.91252">
        <ele>265.1</ele>
        <time>2021-07-31T09:36:01Z</time>
      </trkpt>
      <trkpt lat="48.70143" lon="6.91246">
        <ele>265.1</ele>
        <time>2021-07-31T09:36:03Z</time>
      </trkpt>
      <trkpt lat="48.70141" lon="6.91243">
        <ele>265.1</ele>
        <time>2021-07-31T09:36:04Z</time>
      </trkpt>
      <trkpt lat="48.70135" lon="6.91237">
        <ele>265.1</ele>
        <time>2021-07-31T09:36:06Z</time>
      </trkpt>
      <trkpt lat="48.7013" lon="6.91232">
        <ele>265</ele>
        <time>2021-07-31T09:36:08Z</time>
      </trkpt>
      <trkpt lat="48.70127" lon="6.91229">
        <ele>265</ele>
        <time>2021-07-31T09:36:09Z</time>
      </trkpt>
      <trkpt lat="48.70124" lon="6.91226">
        <ele>265</ele>
        <time>2021-07-31T09:36:10Z</time>
      </trkpt>
      <trkpt lat="48.70118" lon="6.91219">
        <ele>264.9</ele>
        <time>2021-07-31T09:36:12Z</time>
      </trkpt>
      <trkpt lat="48.70113" lon="6.91213">
        <ele>264.8</ele>
        <time>2021-07-31T09:36:14Z</time>
      </trkpt>
      <trkpt lat="48.70109" lon="6.91208">
        <ele>264.8</ele>
        <time>2021-07-31T09:36:15Z</time>
      </trkpt>
      <trkpt lat="48.70106" lon="6.91203">
        <ele>264.8</ele>
        <time>2021-07-31T09:36:16Z</time>
      </trkpt>
      <trkpt lat="48.70103" lon="6.91199">
        <ele>264.8</ele>
        <time>2021-07-31T09:36:17Z</time>
      </trkpt>
      <trkpt lat="48.70101" lon="6.91195">
        <ele>264.8</ele>
        <time>2021-07-31T09:36:18Z</time>
      </trkpt>
      <trkpt lat="48.70098" lon="6.91189">
        <ele>264.7</ele>
        <time>2021-07-31T09:36:20Z</time>
      </trkpt>
      <trkpt lat="48.70094" lon="6.91185">
        <ele>264.7</ele>
        <time>2021-07-31T09:36:21Z</time>
      </trkpt>
      <trkpt lat="48.7009" lon="6.91181">
        <ele>264.7</ele>
        <time>2021-07-31T09:36:22Z</time>
      </trkpt>
      <trkpt lat="48.70086" lon="6.91176">
        <ele>264.7</ele>
        <time>2021-07-31T09:36:23Z</time>
      </trkpt>
      <trkpt lat="48.70079" lon="6.91166">
        <ele>264.7</ele>
        <time>2021-07-31T09:36:25Z</time>
      </trkpt>
      <trkpt lat="48.70076" lon="6.9116">
        <ele>264.6</ele>
        <time>2021-07-31T09:36:26Z</time>
      </trkpt>
      <trkpt lat="48.7007" lon="6.9115">
        <ele>264.6</ele>
        <time>2021-07-31T09:36:28Z</time>
      </trkpt>
      <trkpt lat="48.70068" lon="6.91146">
        <ele>264.6</ele>
        <time>2021-07-31T09:36:29Z</time>
      </trkpt>
      <trkpt lat="48.70063" lon="6.91137">
        <ele>264.6</ele>
        <time>2021-07-31T09:36:31Z</time>
      </trkpt>
      <trkpt lat="48.7006" lon="6.91131">
        <ele>264.6</ele>
        <time>2021-07-31T09:36:32Z</time>
      </trkpt>
      <trkpt lat="48.70057" lon="6.91126">
        <ele>264.6</ele>
        <time>2021-07-31T09:36:33Z</time>
      </trkpt>
      <trkpt lat="48.70052" lon="6.91117">
        <ele>264.6</ele>
        <time>2021-07-31T09:36:35Z</time>
      </trkpt>
      <trkpt lat="48.70046" lon="6.91109">
        <ele>264.6</ele>
        <time>2021-07-31T09:36:37Z</time>
      </trkpt>
      <trkpt lat="48.70044" lon="6.91104">
        <ele>264.6</ele>
        <time>2021-07-31T09:36:38Z</time>
      </trkpt>
      <trkpt lat="48.70042" lon="6.91096">
        <ele>264.6</ele>
        <time>2021-07-31T09:36:40Z</time>
      </trkpt>
      <trkpt lat="48.70039" lon="6.91091">
        <ele>264.6</ele>
        <time>2021-07-31T09:36:41Z</time>
      </trkpt>
      <trkpt lat="48.70037" lon="6.91084">
        <ele>264.6</ele>
        <time>2021-07-31T09:36:42Z</time>
      </trkpt>
      <trkpt lat="48.70035" lon="6.91079">
        <ele>264.6</ele>
        <time>2021-07-31T09:36:43Z</time>
      </trkpt>
      <trkpt lat="48.70033" lon="6.91075">
        <ele>264.6</ele>
        <time>2021-07-31T09:36:44Z</time>
      </trkpt>
      <trkpt lat="48.70029" lon="6.91066">
        <ele>264.6</ele>
        <time>2021-07-31T09:36:46Z</time>
      </trkpt>
      <trkpt lat="48.70027" lon="6.91059">
        <ele>264.6</ele>
        <time>2021-07-31T09:36:47Z</time>
      </trkpt>
      <trkpt lat="48.70024" lon="6.91051">
        <ele>264.6</ele>
        <time>2021-07-31T09:36:48Z</time>
      </trkpt>
      <trkpt lat="48.70021" lon="6.91044">
        <ele>264.6</ele>
        <time>2021-07-31T09:36:49Z</time>
      </trkpt>
      <trkpt lat="48.70019" lon="6.91039">
        <ele>264.6</ele>
        <time>2021-07-31T09:36:50Z</time>
      </trkpt>
      <trkpt lat="48.70013" lon="6.91033">
        <ele>264.6</ele>
        <time>2021-07-31T09:36:52Z</time>
      </trkpt>
      <trkpt lat="48.7001" lon="6.91027">
        <ele>264.7</ele>
        <time>2021-07-31T09:36:53Z</time>
      </trkpt>
      <trkpt lat="48.70008" lon="6.91019">
        <ele>264.7</ele>
        <time>2021-07-31T09:36:55Z</time>
      </trkpt>
      <trkpt lat="48.70005" lon="6.91013">
        <ele>264.7</ele>
        <time>2021-07-31T09:36:56Z</time>
      </trkpt>
      <trkpt lat="48.70001" lon="6.91007">
        <ele>264.8</ele>
        <time>2021-07-31T09:36:57Z</time>
      </trkpt>
      <trkpt lat="48.69996" lon="6.91002">
        <ele>264.9</ele>
        <time>2021-07-31T09:36:59Z</time>
      </trkpt>
      <trkpt lat="48.69993" lon="6.90999">
        <ele>264.9</ele>
        <time>2021-07-31T09:37:00Z</time>
      </trkpt>
      <trkpt lat="48.69989" lon="6.90995">
        <ele>265</ele>
        <time>2021-07-31T09:37:02Z</time>
      </trkpt>
      <trkpt lat="48.69983" lon="6.90992">
        <ele>265.1</ele>
        <time>2021-07-31T09:37:03Z</time>
      </trkpt>
      <trkpt lat="48.6998" lon="6.90991">
        <ele>265.1</ele>
        <time>2021-07-31T09:37:04Z</time>
      </trkpt>
      <trkpt lat="48.69973" lon="6.90988">
        <ele>265.2</ele>
        <time>2021-07-31T09:37:06Z</time>
      </trkpt>
      <trkpt lat="48.6997" lon="6.90988">
        <ele>265.3</ele>
        <time>2021-07-31T09:37:07Z</time>
      </trkpt>
      <trkpt lat="48.69967" lon="6.90988">
        <ele>265.3</ele>
        <time>2021-07-31T09:37:08Z</time>
      </trkpt>
      <trkpt lat="48.69963" lon="6.90987">
        <ele>265.4</ele>
        <time>2021-07-31T09:37:10Z</time>
      </trkpt>
      <trkpt lat="48.69959" lon="6.90986">
        <ele>265.5</ele>
        <time>2021-07-31T09:37:11Z</time>
      </trkpt>
      <trkpt lat="48.69958" lon="6.90986">
        <ele>265.5</ele>
        <time>2021-07-31T09:37:12Z</time>
      </trkpt>
      <trkpt lat="48.69954" lon="6.90988">
        <ele>265.6</ele>
        <time>2021-07-31T09:37:14Z</time>
      </trkpt>
      <trkpt lat="48.69948" lon="6.90988">
        <ele>265.8</ele>
        <time>2021-07-31T09:37:16Z</time>
      </trkpt>
      <trkpt lat="48.69945" lon="6.90988">
        <ele>266</ele>
        <time>2021-07-31T09:37:17Z</time>
      </trkpt>
      <trkpt lat="48.69945" lon="6.90988">
        <ele>266</ele>
        <time>2021-07-31T09:37:18Z</time>
      </trkpt>
      <trkpt lat="48.69943" lon="6.90988">
        <ele>266.1</ele>
        <time>2021-07-31T09:37:19Z</time>
      </trkpt>
      <trkpt lat="48.69943" lon="6.90987">
        <ele>266.1</ele>
        <time>2021-07-31T09:37:20Z</time>
      </trkpt>
      <trkpt lat="48.69939" lon="6.90988">
        <ele>266.3</ele>
        <time>2021-07-31T09:37:22Z</time>
      </trkpt>
      <trkpt lat="48.69936" lon="6.90989">
        <ele>266.5</ele>
        <time>2021-07-31T09:37:23Z</time>
      </trkpt>
      <trkpt lat="48.69935" lon="6.90989">
        <ele>266.5</ele>
        <time>2021-07-31T09:37:24Z</time>
      </trkpt>
      <trkpt lat="48.69935" lon="6.90989">
        <ele>266.6</ele>
        <time>2021-07-31T09:37:26Z</time>
      </trkpt>
      <trkpt lat="48.69935" lon="6.90989">
        <ele>266.6</ele>
        <time>2021-07-31T09:37:28Z</time>
      </trkpt>
      <trkpt lat="48.69935" lon="6.9099">
        <ele>266.6</ele>
        <time>2021-07-31T09:37:29Z</time>
      </trkpt>
      <trkpt lat="48.69935" lon="6.9099">
        <ele>266.6</ele>
        <time>2021-07-31T09:37:30Z</time>
      </trkpt>
      <trkpt lat="48.69935" lon="6.9099">
        <ele>266.6</ele>
        <time>2021-07-31T09:37:31Z</time>
      </trkpt>
      <trkpt lat="48.69934" lon="6.9099">
        <ele>266.6</ele>
        <time>2021-07-31T09:37:32Z</time>
      </trkpt>
      <trkpt lat="48.69934" lon="6.9099">
        <ele>266.6</ele>
        <time>2021-07-31T09:37:34Z</time>
      </trkpt>
      <trkpt lat="48.69913" lon="6.90979">
        <ele>269.6</ele>
        <time>2021-07-31T09:44:32Z</time>
      </trkpt>
      <trkpt lat="48.69903" lon="6.90985">
        <ele>265.4</ele>
        <time>2021-07-31T09:44:34Z</time>
      </trkpt>
      <trkpt lat="48.69899" lon="6.90987">
        <ele>265.4</ele>
        <time>2021-07-31T09:44:35Z</time>
      </trkpt>
      <trkpt lat="48.69894" lon="6.90989">
        <ele>265.3</ele>
        <time>2021-07-31T09:44:36Z</time>
      </trkpt>
      <trkpt lat="48.69887" lon="6.90992">
        <ele>265.3</ele>
        <time>2021-07-31T09:44:37Z</time>
      </trkpt>
      <trkpt lat="48.6988" lon="6.90994">
        <ele>265.2</ele>
        <time>2021-07-31T09:44:39Z</time>
      </trkpt>
      <trkpt lat="48.69873" lon="6.90998">
        <ele>265.2</ele>
        <time>2021-07-31T09:44:40Z</time>
      </trkpt>
      <trkpt lat="48.69866" lon="6.91001">
        <ele>265.2</ele>
        <time>2021-07-31T09:44:41Z</time>
      </trkpt>
      <trkpt lat="48.69862" lon="6.91003">
        <ele>265.2</ele>
        <time>2021-07-31T09:44:42Z</time>
      </trkpt>
      <trkpt lat="48.69857" lon="6.91005">
        <ele>265.2</ele>
        <time>2021-07-31T09:44:44Z</time>
      </trkpt>
      <trkpt lat="48.69851" lon="6.91008">
        <ele>265.2</ele>
        <time>2021-07-31T09:44:45Z</time>
      </trkpt>
      <trkpt lat="48.69847" lon="6.9101">
        <ele>265.2</ele>
        <time>2021-07-31T09:44:46Z</time>
      </trkpt>
      <trkpt lat="48.69837" lon="6.91014">
        <ele>265.2</ele>
        <time>2021-07-31T09:44:48Z</time>
      </trkpt>
      <trkpt lat="48.69828" lon="6.91018">
        <ele>265.1</ele>
        <time>2021-07-31T09:44:50Z</time>
      </trkpt>
      <trkpt lat="48.69822" lon="6.91022">
        <ele>265.1</ele>
        <time>2021-07-31T09:44:52Z</time>
      </trkpt>
      <trkpt lat="48.69817" lon="6.91025">
        <ele>265.1</ele>
        <time>2021-07-31T09:44:53Z</time>
      </trkpt>
      <trkpt lat="48.69813" lon="6.91026">
        <ele>265.1</ele>
        <time>2021-07-31T09:44:54Z</time>
      </trkpt>
      <trkpt lat="48.69809" lon="6.91028">
        <ele>265</ele>
        <time>2021-07-31T09:44:55Z</time>
      </trkpt>
      <trkpt lat="48.69803" lon="6.91032">
        <ele>265</ele>
        <time>2021-07-31T09:44:57Z</time>
      </trkpt>
      <trkpt lat="48.69798" lon="6.91033">
        <ele>265</ele>
        <time>2021-07-31T09:44:58Z</time>
      </trkpt>
      <trkpt lat="48.69792" lon="6.91035">
        <ele>265</ele>
        <time>2021-07-31T09:45:00Z</time>
      </trkpt>
      <trkpt lat="48.69787" lon="6.91038">
        <ele>265</ele>
        <time>2021-07-31T09:45:01Z</time>
      </trkpt>
      <trkpt lat="48.69783" lon="6.91039">
        <ele>264.9</ele>
        <time>2021-07-31T09:45:02Z</time>
      </trkpt>
      <trkpt lat="48.69777" lon="6.91041">
        <ele>264.9</ele>
        <time>2021-07-31T09:45:04Z</time>
      </trkpt>
      <trkpt lat="48.69773" lon="6.91043">
        <ele>264.9</ele>
        <time>2021-07-31T09:45:05Z</time>
      </trkpt>
      <trkpt lat="48.69768" lon="6.91044">
        <ele>264.9</ele>
        <time>2021-07-31T09:45:06Z</time>
      </trkpt>
      <trkpt lat="48.69763" lon="6.91047">
        <ele>264.9</ele>
        <time>2021-07-31T09:45:07Z</time>
      </trkpt>
      <trkpt lat="48.69758" lon="6.91049">
        <ele>264.9</ele>
        <time>2021-07-31T09:45:09Z</time>
      </trkpt>
      <trkpt lat="48.69754" lon="6.9105">
        <ele>264.9</ele>
        <time>2021-07-31T09:45:10Z</time>
      </trkpt>
      <trkpt lat="48.69747" lon="6.91052">
        <ele>264.9</ele>
        <time>2021-07-31T09:45:12Z</time>
      </trkpt>
      <trkpt lat="48.69741" lon="6.91055">
        <ele>264.9</ele>
        <time>2021-07-31T09:45:14Z</time>
      </trkpt>
      <trkpt lat="48.69734" lon="6.91058">
        <ele>264.9</ele>
        <time>2021-07-31T09:45:16Z</time>
      </trkpt>
      <trkpt lat="48.69731" lon="6.91058">
        <ele>264.9</ele>
        <time>2021-07-31T09:45:17Z</time>
      </trkpt>
      <trkpt lat="48.69726" lon="6.91058">
        <ele>264.9</ele>
        <time>2021-07-31T09:45:18Z</time>
      </trkpt>
      <trkpt lat="48.69721" lon="6.9106">
        <ele>264.9</ele>
        <time>2021-07-31T09:45:20Z</time>
      </trkpt>
      <trkpt lat="48.69717" lon="6.91062">
        <ele>264.9</ele>
        <time>2021-07-31T09:45:21Z</time>
      </trkpt>
      <trkpt lat="48.69712" lon="6.91065">
        <ele>264.9</ele>
        <time>2021-07-31T09:45:23Z</time>
      </trkpt>
      <trkpt lat="48.69708" lon="6.91068">
        <ele>264.9</ele>
        <time>2021-07-31T09:45:24Z</time>
      </trkpt>
      <trkpt lat="48.69704" lon="6.91069">
        <ele>264.9</ele>
        <time>2021-07-31T09:45:25Z</time>
      </trkpt>
      <trkpt lat="48.69699" lon="6.91071">
        <ele>264.9</ele>
        <time>2021-07-31T09:45:27Z</time>
      </trkpt>
      <trkpt lat="48.69693" lon="6.91073">
        <ele>265</ele>
        <time>2021-07-31T09:45:28Z</time>
      </trkpt>
      <trkpt lat="48.69689" lon="6.91074">
        <ele>265</ele>
        <time>2021-07-31T09:45:29Z</time>
      </trkpt>
      <trkpt lat="48.69684" lon="6.91075">
        <ele>265</ele>
        <time>2021-07-31T09:45:30Z</time>
      </trkpt>
      <trkpt lat="48.69679" lon="6.91077">
        <ele>265</ele>
        <time>2021-07-31T09:45:32Z</time>
      </trkpt>
      <trkpt lat="48.69674" lon="6.91078">
        <ele>265.1</ele>
        <time>2021-07-31T09:45:33Z</time>
      </trkpt>
      <trkpt lat="48.69668" lon="6.91079">
        <ele>265.1</ele>
        <time>2021-07-31T09:45:35Z</time>
      </trkpt>
      <trkpt lat="48.69663" lon="6.9108">
        <ele>265.1</ele>
        <time>2021-07-31T09:45:36Z</time>
      </trkpt>
      <trkpt lat="48.69658" lon="6.91081">
        <ele>265.1</ele>
        <time>2021-07-31T09:45:37Z</time>
      </trkpt>
      <trkpt lat="48.6965" lon="6.91084">
        <ele>265.1</ele>
        <time>2021-07-31T09:45:39Z</time>
      </trkpt>
      <trkpt lat="48.69646" lon="6.91086">
        <ele>265.1</ele>
        <time>2021-07-31T09:45:40Z</time>
      </trkpt>
      <trkpt lat="48.69642" lon="6.91087">
        <ele>265.1</ele>
        <time>2021-07-31T09:45:41Z</time>
      </trkpt>
      <trkpt lat="48.69637" lon="6.91089">
        <ele>265.1</ele>
        <time>2021-07-31T09:45:42Z</time>
      </trkpt>
      <trkpt lat="48.6963" lon="6.9109">
        <ele>265.1</ele>
        <time>2021-07-31T09:45:44Z</time>
      </trkpt>
      <trkpt lat="48.69625" lon="6.91092">
        <ele>265.1</ele>
        <time>2021-07-31T09:45:45Z</time>
      </trkpt>
      <trkpt lat="48.69621" lon="6.91094">
        <ele>265.2</ele>
        <time>2021-07-31T09:45:46Z</time>
      </trkpt>
      <trkpt lat="48.69617" lon="6.91095">
        <ele>265.2</ele>
        <time>2021-07-31T09:45:47Z</time>
      </trkpt>
      <trkpt lat="48.69613" lon="6.91096">
        <ele>265.2</ele>
        <time>2021-07-31T09:45:48Z</time>
      </trkpt>
      <trkpt lat="48.69607" lon="6.91099">
        <ele>265.2</ele>
        <time>2021-07-31T09:45:50Z</time>
      </trkpt>
      <trkpt lat="48.69602" lon="6.91102">
        <ele>265.2</ele>
        <time>2021-07-31T09:45:51Z</time>
      </trkpt>
      <trkpt lat="48.69595" lon="6.91103">
        <ele>265.2</ele>
        <time>2021-07-31T09:45:52Z</time>
      </trkpt>
      <trkpt lat="48.69589" lon="6.91106">
        <ele>265.2</ele>
        <time>2021-07-31T09:45:54Z</time>
      </trkpt>
      <trkpt lat="48.69585" lon="6.91108">
        <ele>265.2</ele>
        <time>2021-07-31T09:45:55Z</time>
      </trkpt>
      <trkpt lat="48.69582" lon="6.9111">
        <ele>265.2</ele>
        <time>2021-07-31T09:45:56Z</time>
      </trkpt>
      <trkpt lat="48.69576" lon="6.91113">
        <ele>265.3</ele>
        <time>2021-07-31T09:45:58Z</time>
      </trkpt>
      <trkpt lat="48.69572" lon="6.91115">
        <ele>265.3</ele>
        <time>2021-07-31T09:45:59Z</time>
      </trkpt>
      <trkpt lat="48.69568" lon="6.91118">
        <ele>265.3</ele>
        <time>2021-07-31T09:46:00Z</time>
      </trkpt>
      <trkpt lat="48.6956" lon="6.91122">
        <ele>265.3</ele>
        <time>2021-07-31T09:46:02Z</time>
      </trkpt>
      <trkpt lat="48.69555" lon="6.91127">
        <ele>265.4</ele>
        <time>2021-07-31T09:46:03Z</time>
      </trkpt>
      <trkpt lat="48.6955" lon="6.9113">
        <ele>265.4</ele>
        <time>2021-07-31T09:46:04Z</time>
      </trkpt>
      <trkpt lat="48.69545" lon="6.91132">
        <ele>265.4</ele>
        <time>2021-07-31T09:46:05Z</time>
      </trkpt>
      <trkpt lat="48.69541" lon="6.91135">
        <ele>265.5</ele>
        <time>2021-07-31T09:46:06Z</time>
      </trkpt>
      <trkpt lat="48.69535" lon="6.91139">
        <ele>265.5</ele>
        <time>2021-07-31T09:46:07Z</time>
      </trkpt>
      <trkpt lat="48.69529" lon="6.91142">
        <ele>265.5</ele>
        <time>2021-07-31T09:46:09Z</time>
      </trkpt>
      <trkpt lat="48.69523" lon="6.91146">
        <ele>265.5</ele>
        <time>2021-07-31T09:46:11Z</time>
      </trkpt>
      <trkpt lat="48.69518" lon="6.9115">
        <ele>265.5</ele>
        <time>2021-07-31T09:46:12Z</time>
      </trkpt>
      <trkpt lat="48.69515" lon="6.91154">
        <ele>265.5</ele>
        <time>2021-07-31T09:46:13Z</time>
      </trkpt>
      <trkpt lat="48.69511" lon="6.91158">
        <ele>265.6</ele>
        <time>2021-07-31T09:46:14Z</time>
      </trkpt>
      <trkpt lat="48.69505" lon="6.91165">
        <ele>265.6</ele>
        <time>2021-07-31T09:46:16Z</time>
      </trkpt>
      <trkpt lat="48.69501" lon="6.9117">
        <ele>265.6</ele>
        <time>2021-07-31T09:46:17Z</time>
      </trkpt>
      <trkpt lat="48.69495" lon="6.91177">
        <ele>265.6</ele>
        <time>2021-07-31T09:46:19Z</time>
      </trkpt>
      <trkpt lat="48.69493" lon="6.91181">
        <ele>265.6</ele>
        <time>2021-07-31T09:46:20Z</time>
      </trkpt>
      <trkpt lat="48.69491" lon="6.91185">
        <ele>265.6</ele>
        <time>2021-07-31T09:46:21Z</time>
      </trkpt>
      <trkpt lat="48.69487" lon="6.91191">
        <ele>265.6</ele>
        <time>2021-07-31T09:46:23Z</time>
      </trkpt>
      <trkpt lat="48.69484" lon="6.91196">
        <ele>265.6</ele>
        <time>2021-07-31T09:46:24Z</time>
      </trkpt>
      <trkpt lat="48.6948" lon="6.91202">
        <ele>265.6</ele>
        <time>2021-07-31T09:46:26Z</time>
      </trkpt>
      <trkpt lat="48.69477" lon="6.91207">
        <ele>265.6</ele>
        <time>2021-07-31T09:46:27Z</time>
      </trkpt>
      <trkpt lat="48.69474" lon="6.91213">
        <ele>265.6</ele>
        <time>2021-07-31T09:46:28Z</time>
      </trkpt>
      <trkpt lat="48.69472" lon="6.91217">
        <ele>265.6</ele>
        <time>2021-07-31T09:46:29Z</time>
      </trkpt>
      <trkpt lat="48.6947" lon="6.91222">
        <ele>265.6</ele>
        <time>2021-07-31T09:46:30Z</time>
      </trkpt>
      <trkpt lat="48.69466" lon="6.91229">
        <ele>265.6</ele>
        <time>2021-07-31T09:46:32Z</time>
      </trkpt>
      <trkpt lat="48.69464" lon="6.91233">
        <ele>265.6</ele>
        <time>2021-07-31T09:46:33Z</time>
      </trkpt>
      <trkpt lat="48.6946" lon="6.91241">
        <ele>265.6</ele>
        <time>2021-07-31T09:46:35Z</time>
      </trkpt>
      <trkpt lat="48.69457" lon="6.91247">
        <ele>265.6</ele>
        <time>2021-07-31T09:46:36Z</time>
      </trkpt>
      <trkpt lat="48.69452" lon="6.91256">
        <ele>265.6</ele>
        <time>2021-07-31T09:46:38Z</time>
      </trkpt>
      <trkpt lat="48.69447" lon="6.91267">
        <ele>265.6</ele>
        <time>2021-07-31T09:46:40Z</time>
      </trkpt>
      <trkpt lat="48.69443" lon="6.91274">
        <ele>265.6</ele>
        <time>2021-07-31T09:46:42Z</time>
      </trkpt>
      <trkpt lat="48.6944" lon="6.91279">
        <ele>265.6</ele>
        <time>2021-07-31T09:46:43Z</time>
      </trkpt>
      <trkpt lat="48.69437" lon="6.91282">
        <ele>265.6</ele>
        <time>2021-07-31T09:46:44Z</time>
      </trkpt>
      <trkpt lat="48.69434" lon="6.91289">
        <ele>265.6</ele>
        <time>2021-07-31T09:46:46Z</time>
      </trkpt>
      <trkpt lat="48.69431" lon="6.91295">
        <ele>265.6</ele>
        <time>2021-07-31T09:46:47Z</time>
      </trkpt>
      <trkpt lat="48.69429" lon="6.91299">
        <ele>265.6</ele>
        <time>2021-07-31T09:46:48Z</time>
      </trkpt>
      <trkpt lat="48.69424" lon="6.91308">
        <ele>265.6</ele>
        <time>2021-07-31T09:46:50Z</time>
      </trkpt>
      <trkpt lat="48.69422" lon="6.91313">
        <ele>265.6</ele>
        <time>2021-07-31T09:46:51Z</time>
      </trkpt>
      <trkpt lat="48.69419" lon="6.91319">
        <ele>265.7</ele>
        <time>2021-07-31T09:46:53Z</time>
      </trkpt>
      <trkpt lat="48.69416" lon="6.91325">
        <ele>265.7</ele>
        <time>2021-07-31T09:46:54Z</time>
      </trkpt>
      <trkpt lat="48.69413" lon="6.9133">
        <ele>265.7</ele>
        <time>2021-07-31T09:46:55Z</time>
      </trkpt>
      <trkpt lat="48.69409" lon="6.91337">
        <ele>265.7</ele>
        <time>2021-07-31T09:46:56Z</time>
      </trkpt>
      <trkpt lat="48.69405" lon="6.91343">
        <ele>265.7</ele>
        <time>2021-07-31T09:46:58Z</time>
      </trkpt>
      <trkpt lat="48.69401" lon="6.91349">
        <ele>265.7</ele>
        <time>2021-07-31T09:46:59Z</time>
      </trkpt>
      <trkpt lat="48.69396" lon="6.91356">
        <ele>265.7</ele>
        <time>2021-07-31T09:47:00Z</time>
      </trkpt>
      <trkpt lat="48.69393" lon="6.91362">
        <ele>265.7</ele>
        <time>2021-07-31T09:47:02Z</time>
      </trkpt>
      <trkpt lat="48.69389" lon="6.91367">
        <ele>265.7</ele>
        <time>2021-07-31T09:47:03Z</time>
      </trkpt>
      <trkpt lat="48.69386" lon="6.91374">
        <ele>265.7</ele>
        <time>2021-07-31T09:47:05Z</time>
      </trkpt>
      <trkpt lat="48.69383" lon="6.91379">
        <ele>265.7</ele>
        <time>2021-07-31T09:47:06Z</time>
      </trkpt>
      <trkpt lat="48.6938" lon="6.91384">
        <ele>265.7</ele>
        <time>2021-07-31T09:47:07Z</time>
      </trkpt>
      <trkpt lat="48.69377" lon="6.91392">
        <ele>265.7</ele>
        <time>2021-07-31T09:47:09Z</time>
      </trkpt>
      <trkpt lat="48.69375" lon="6.91399">
        <ele>265.7</ele>
        <time>2021-07-31T09:47:10Z</time>
      </trkpt>
      <trkpt lat="48.69371" lon="6.91405">
        <ele>265.7</ele>
        <time>2021-07-31T09:47:11Z</time>
      </trkpt>
      <trkpt lat="48.69367" lon="6.91411">
        <ele>265.7</ele>
        <time>2021-07-31T09:47:12Z</time>
      </trkpt>
      <trkpt lat="48.69363" lon="6.91417">
        <ele>265.7</ele>
        <time>2021-07-31T09:47:14Z</time>
      </trkpt>
      <trkpt lat="48.69361" lon="6.91415">
        <ele>265.7</ele>
        <time>2021-07-31T09:47:15Z</time>
      </trkpt>
      <trkpt lat="48.69358" lon="6.91423">
        <ele>265.8</ele>
        <time>2021-07-31T09:47:16Z</time>
      </trkpt>
      <trkpt lat="48.69353" lon="6.91433">
        <ele>265.8</ele>
        <time>2021-07-31T09:47:17Z</time>
      </trkpt>
      <trkpt lat="48.6935" lon="6.9144">
        <ele>265.8</ele>
        <time>2021-07-31T09:47:19Z</time>
      </trkpt>
      <trkpt lat="48.69346" lon="6.91447">
        <ele>265.8</ele>
        <time>2021-07-31T09:47:20Z</time>
      </trkpt>
      <trkpt lat="48.69343" lon="6.91452">
        <ele>265.8</ele>
        <time>2021-07-31T09:47:21Z</time>
      </trkpt>
      <trkpt lat="48.69339" lon="6.91461">
        <ele>265.7</ele>
        <time>2021-07-31T09:47:23Z</time>
      </trkpt>
      <trkpt lat="48.69336" lon="6.91467">
        <ele>265.7</ele>
        <time>2021-07-31T09:47:24Z</time>
      </trkpt>
      <trkpt lat="48.69334" lon="6.91472">
        <ele>265.7</ele>
        <time>2021-07-31T09:47:25Z</time>
      </trkpt>
      <trkpt lat="48.69331" lon="6.9148">
        <ele>265.6</ele>
        <time>2021-07-31T09:47:27Z</time>
      </trkpt>
      <trkpt lat="48.69328" lon="6.91486">
        <ele>265.6</ele>
        <time>2021-07-31T09:47:28Z</time>
      </trkpt>
      <trkpt lat="48.69326" lon="6.91492">
        <ele>265.6</ele>
        <time>2021-07-31T09:47:29Z</time>
      </trkpt>
      <trkpt lat="48.69322" lon="6.915">
        <ele>265.6</ele>
        <time>2021-07-31T09:47:30Z</time>
      </trkpt>
      <trkpt lat="48.69319" lon="6.91506">
        <ele>265.6</ele>
        <time>2021-07-31T09:47:32Z</time>
      </trkpt>
      <trkpt lat="48.69316" lon="6.91512">
        <ele>265.6</ele>
        <time>2021-07-31T09:47:33Z</time>
      </trkpt>
      <trkpt lat="48.69312" lon="6.91518">
        <ele>265.6</ele>
        <time>2021-07-31T09:47:34Z</time>
      </trkpt>
      <trkpt lat="48.69309" lon="6.91525">
        <ele>265.7</ele>
        <time>2021-07-31T09:47:36Z</time>
      </trkpt>
      <trkpt lat="48.69306" lon="6.9153">
        <ele>265.7</ele>
        <time>2021-07-31T09:47:37Z</time>
      </trkpt>
      <trkpt lat="48.69304" lon="6.91534">
        <ele>265.7</ele>
        <time>2021-07-31T09:47:38Z</time>
      </trkpt>
      <trkpt lat="48.693" lon="6.91543">
        <ele>265.7</ele>
        <time>2021-07-31T09:47:40Z</time>
      </trkpt>
      <trkpt lat="48.69297" lon="6.91547">
        <ele>265.7</ele>
        <time>2021-07-31T09:47:41Z</time>
      </trkpt>
      <trkpt lat="48.69293" lon="6.91553">
        <ele>265.7</ele>
        <time>2021-07-31T09:47:43Z</time>
      </trkpt>
      <trkpt lat="48.6929" lon="6.91559">
        <ele>265.7</ele>
        <time>2021-07-31T09:47:44Z</time>
      </trkpt>
      <trkpt lat="48.69287" lon="6.91564">
        <ele>265.7</ele>
        <time>2021-07-31T09:47:45Z</time>
      </trkpt>
      <trkpt lat="48.69283" lon="6.91571">
        <ele>265.7</ele>
        <time>2021-07-31T09:47:47Z</time>
      </trkpt>
      <trkpt lat="48.6928" lon="6.91577">
        <ele>265.7</ele>
        <time>2021-07-31T09:47:48Z</time>
      </trkpt>
      <trkpt lat="48.69278" lon="6.91582">
        <ele>265.7</ele>
        <time>2021-07-31T09:47:49Z</time>
      </trkpt>
      <trkpt lat="48.69273" lon="6.9159">
        <ele>265.7</ele>
        <time>2021-07-31T09:47:51Z</time>
      </trkpt>
      <trkpt lat="48.6927" lon="6.91595">
        <ele>265.7</ele>
        <time>2021-07-31T09:47:52Z</time>
      </trkpt>
      <trkpt lat="48.69267" lon="6.916">
        <ele>265.7</ele>
        <time>2021-07-31T09:47:53Z</time>
      </trkpt>
      <trkpt lat="48.69263" lon="6.91609">
        <ele>265.7</ele>
        <time>2021-07-31T09:47:55Z</time>
      </trkpt>
      <trkpt lat="48.69259" lon="6.91616">
        <ele>265.7</ele>
        <time>2021-07-31T09:47:56Z</time>
      </trkpt>
      <trkpt lat="48.69256" lon="6.91622">
        <ele>265.7</ele>
        <time>2021-07-31T09:47:57Z</time>
      </trkpt>
      <trkpt lat="48.69252" lon="6.91629">
        <ele>265.7</ele>
        <time>2021-07-31T09:47:59Z</time>
      </trkpt>
      <trkpt lat="48.69248" lon="6.91635">
        <ele>265.7</ele>
        <time>2021-07-31T09:48:00Z</time>
      </trkpt>
      <trkpt lat="48.69245" lon="6.9164">
        <ele>265.7</ele>
        <time>2021-07-31T09:48:01Z</time>
      </trkpt>
      <trkpt lat="48.69242" lon="6.91646">
        <ele>265.7</ele>
        <time>2021-07-31T09:48:02Z</time>
      </trkpt>
      <trkpt lat="48.69239" lon="6.91652">
        <ele>265.7</ele>
        <time>2021-07-31T09:48:04Z</time>
      </trkpt>
      <trkpt lat="48.69237" lon="6.91657">
        <ele>265.7</ele>
        <time>2021-07-31T09:48:05Z</time>
      </trkpt>
      <trkpt lat="48.69234" lon="6.91662">
        <ele>265.7</ele>
        <time>2021-07-31T09:48:06Z</time>
      </trkpt>
      <trkpt lat="48.69229" lon="6.91669">
        <ele>265.7</ele>
        <time>2021-07-31T09:48:07Z</time>
      </trkpt>
      <trkpt lat="48.69226" lon="6.91675">
        <ele>265.7</ele>
        <time>2021-07-31T09:48:09Z</time>
      </trkpt>
      <trkpt lat="48.69222" lon="6.91681">
        <ele>265.7</ele>
        <time>2021-07-31T09:48:10Z</time>
      </trkpt>
      <trkpt lat="48.6922" lon="6.91685">
        <ele>265.7</ele>
        <time>2021-07-31T09:48:11Z</time>
      </trkpt>
      <trkpt lat="48.69217" lon="6.9169">
        <ele>265.7</ele>
        <time>2021-07-31T09:48:12Z</time>
      </trkpt>
      <trkpt lat="48.69214" lon="6.91699">
        <ele>265.7</ele>
        <time>2021-07-31T09:48:14Z</time>
      </trkpt>
      <trkpt lat="48.69212" lon="6.91704">
        <ele>265.7</ele>
        <time>2021-07-31T09:48:15Z</time>
      </trkpt>
      <trkpt lat="48.69209" lon="6.9171">
        <ele>265.7</ele>
        <time>2021-07-31T09:48:16Z</time>
      </trkpt>
      <trkpt lat="48.69207" lon="6.91716">
        <ele>265.7</ele>
        <time>2021-07-31T09:48:18Z</time>
      </trkpt>
      <trkpt lat="48.69204" lon="6.91722">
        <ele>265.8</ele>
        <time>2021-07-31T09:48:19Z</time>
      </trkpt>
      <trkpt lat="48.69202" lon="6.91727">
        <ele>265.8</ele>
        <time>2021-07-31T09:48:20Z</time>
      </trkpt>
      <trkpt lat="48.69199" lon="6.91732">
        <ele>265.8</ele>
        <time>2021-07-31T09:48:21Z</time>
      </trkpt>
      <trkpt lat="48.69194" lon="6.9174">
        <ele>265.8</ele>
        <time>2021-07-31T09:48:23Z</time>
      </trkpt>
      <trkpt lat="48.69192" lon="6.91745">
        <ele>265.8</ele>
        <time>2021-07-31T09:48:24Z</time>
      </trkpt>
      <trkpt lat="48.69189" lon="6.9175">
        <ele>265.8</ele>
        <time>2021-07-31T09:48:25Z</time>
      </trkpt>
      <trkpt lat="48.69186" lon="6.91755">
        <ele>265.8</ele>
        <time>2021-07-31T09:48:26Z</time>
      </trkpt>
      <trkpt lat="48.69183" lon="6.91761">
        <ele>265.8</ele>
        <time>2021-07-31T09:48:27Z</time>
      </trkpt>
      <trkpt lat="48.69178" lon="6.91771">
        <ele>265.8</ele>
        <time>2021-07-31T09:48:29Z</time>
      </trkpt>
      <trkpt lat="48.69175" lon="6.91776">
        <ele>265.8</ele>
        <time>2021-07-31T09:48:30Z</time>
      </trkpt>
      <trkpt lat="48.69171" lon="6.91782">
        <ele>265.8</ele>
        <time>2021-07-31T09:48:32Z</time>
      </trkpt>
      <trkpt lat="48.69169" lon="6.91787">
        <ele>265.7</ele>
        <time>2021-07-31T09:48:33Z</time>
      </trkpt>
      <trkpt lat="48.69166" lon="6.91793">
        <ele>265.7</ele>
        <time>2021-07-31T09:48:34Z</time>
      </trkpt>
      <trkpt lat="48.69163" lon="6.91798">
        <ele>265.7</ele>
        <time>2021-07-31T09:48:35Z</time>
      </trkpt>
      <trkpt lat="48.69161" lon="6.91803">
        <ele>265.7</ele>
        <time>2021-07-31T09:48:36Z</time>
      </trkpt>
      <trkpt lat="48.69157" lon="6.91811">
        <ele>265.7</ele>
        <time>2021-07-31T09:48:38Z</time>
      </trkpt>
      <trkpt lat="48.69154" lon="6.91817">
        <ele>265.7</ele>
        <time>2021-07-31T09:48:39Z</time>
      </trkpt>
      <trkpt lat="48.69151" lon="6.91822">
        <ele>265.8</ele>
        <time>2021-07-31T09:48:40Z</time>
      </trkpt>
      <trkpt lat="48.69147" lon="6.9183">
        <ele>265.8</ele>
        <time>2021-07-31T09:48:42Z</time>
      </trkpt>
      <trkpt lat="48.69143" lon="6.91836">
        <ele>265.8</ele>
        <time>2021-07-31T09:48:43Z</time>
      </trkpt>
      <trkpt lat="48.6914" lon="6.91841">
        <ele>265.8</ele>
        <time>2021-07-31T09:48:44Z</time>
      </trkpt>
      <trkpt lat="48.69136" lon="6.91848">
        <ele>265.9</ele>
        <time>2021-07-31T09:48:45Z</time>
      </trkpt>
      <trkpt lat="48.69131" lon="6.91859">
        <ele>265.9</ele>
        <time>2021-07-31T09:48:48Z</time>
      </trkpt>
      <trkpt lat="48.69129" lon="6.91864">
        <ele>265.9</ele>
        <time>2021-07-31T09:48:49Z</time>
      </trkpt>
      <trkpt lat="48.69124" lon="6.91872">
        <ele>265.9</ele>
        <time>2021-07-31T09:48:51Z</time>
      </trkpt>
      <trkpt lat="48.69122" lon="6.91877">
        <ele>265.9</ele>
        <time>2021-07-31T09:48:52Z</time>
      </trkpt>
      <trkpt lat="48.6912" lon="6.91883">
        <ele>265.9</ele>
        <time>2021-07-31T09:48:53Z</time>
      </trkpt>
      <trkpt lat="48.69117" lon="6.91889">
        <ele>265.9</ele>
        <time>2021-07-31T09:48:54Z</time>
      </trkpt>
      <trkpt lat="48.69112" lon="6.91897">
        <ele>265.8</ele>
        <time>2021-07-31T09:48:56Z</time>
      </trkpt>
      <trkpt lat="48.69108" lon="6.91903">
        <ele>265.8</ele>
        <time>2021-07-31T09:48:57Z</time>
      </trkpt>
      <trkpt lat="48.69104" lon="6.91911">
        <ele>265.8</ele>
        <time>2021-07-31T09:48:59Z</time>
      </trkpt>
      <trkpt lat="48.691" lon="6.91918">
        <ele>265.7</ele>
        <time>2021-07-31T09:49:00Z</time>
      </trkpt>
      <trkpt lat="48.69097" lon="6.91924">
        <ele>265.7</ele>
        <time>2021-07-31T09:49:01Z</time>
      </trkpt>
      <trkpt lat="48.6909" lon="6.91936">
        <ele>265.7</ele>
        <time>2021-07-31T09:49:03Z</time>
      </trkpt>
      <trkpt lat="48.69085" lon="6.91947">
        <ele>265.6</ele>
        <time>2021-07-31T09:49:05Z</time>
      </trkpt>
      <trkpt lat="48.6908" lon="6.91959">
        <ele>265.6</ele>
        <time>2021-07-31T09:49:07Z</time>
      </trkpt>
      <trkpt lat="48.69077" lon="6.91965">
        <ele>265.5</ele>
        <time>2021-07-31T09:49:08Z</time>
      </trkpt>
      <trkpt lat="48.69075" lon="6.9197">
        <ele>265.5</ele>
        <time>2021-07-31T09:49:09Z</time>
      </trkpt>
      <trkpt lat="48.69073" lon="6.91976">
        <ele>265.5</ele>
        <time>2021-07-31T09:49:10Z</time>
      </trkpt>
      <trkpt lat="48.69066" lon="6.91984">
        <ele>265.5</ele>
        <time>2021-07-31T09:49:12Z</time>
      </trkpt>
      <trkpt lat="48.69062" lon="6.9199">
        <ele>265.6</ele>
        <time>2021-07-31T09:49:13Z</time>
      </trkpt>
      <trkpt lat="48.69057" lon="6.92">
        <ele>265.6</ele>
        <time>2021-07-31T09:49:15Z</time>
      </trkpt>
      <trkpt lat="48.69054" lon="6.92005">
        <ele>265.6</ele>
        <time>2021-07-31T09:49:16Z</time>
      </trkpt>
      <trkpt lat="48.6905" lon="6.9201">
        <ele>265.6</ele>
        <time>2021-07-31T09:49:17Z</time>
      </trkpt>
      <trkpt lat="48.69046" lon="6.92015">
        <ele>265.6</ele>
        <time>2021-07-31T09:49:18Z</time>
      </trkpt>
      <trkpt lat="48.69044" lon="6.92018">
        <ele>265.6</ele>
        <time>2021-07-31T09:49:19Z</time>
      </trkpt>
      <trkpt lat="48.6904" lon="6.92026">
        <ele>265.6</ele>
        <time>2021-07-31T09:49:21Z</time>
      </trkpt>
      <trkpt lat="48.69036" lon="6.92032">
        <ele>265.6</ele>
        <time>2021-07-31T09:49:22Z</time>
      </trkpt>
      <trkpt lat="48.69033" lon="6.92037">
        <ele>265.6</ele>
        <time>2021-07-31T09:49:23Z</time>
      </trkpt>
      <trkpt lat="48.6903" lon="6.92042">
        <ele>265.6</ele>
        <time>2021-07-31T09:49:24Z</time>
      </trkpt>
      <trkpt lat="48.69025" lon="6.92051">
        <ele>265.6</ele>
        <time>2021-07-31T09:49:26Z</time>
      </trkpt>
      <trkpt lat="48.69022" lon="6.92058">
        <ele>265.6</ele>
        <time>2021-07-31T09:49:28Z</time>
      </trkpt>
      <trkpt lat="48.6902" lon="6.92064">
        <ele>265.6</ele>
        <time>2021-07-31T09:49:29Z</time>
      </trkpt>
      <trkpt lat="48.69017" lon="6.92069">
        <ele>265.6</ele>
        <time>2021-07-31T09:49:30Z</time>
      </trkpt>
      <trkpt lat="48.69013" lon="6.92076">
        <ele>265.6</ele>
        <time>2021-07-31T09:49:32Z</time>
      </trkpt>
      <trkpt lat="48.6901" lon="6.92082">
        <ele>265.6</ele>
        <time>2021-07-31T09:49:33Z</time>
      </trkpt>
      <trkpt lat="48.69007" lon="6.92088">
        <ele>265.6</ele>
        <time>2021-07-31T09:49:34Z</time>
      </trkpt>
      <trkpt lat="48.69005" lon="6.92093">
        <ele>265.6</ele>
        <time>2021-07-31T09:49:35Z</time>
      </trkpt>
      <trkpt lat="48.69003" lon="6.92098">
        <ele>265.5</ele>
        <time>2021-07-31T09:49:36Z</time>
      </trkpt>
      <trkpt lat="48.68998" lon="6.92107">
        <ele>265.6</ele>
        <time>2021-07-31T09:49:38Z</time>
      </trkpt>
      <trkpt lat="48.68995" lon="6.92114">
        <ele>265.6</ele>
        <time>2021-07-31T09:49:40Z</time>
      </trkpt>
      <trkpt lat="48.68993" lon="6.9212">
        <ele>265.6</ele>
        <time>2021-07-31T09:49:41Z</time>
      </trkpt>
      <trkpt lat="48.68991" lon="6.92125">
        <ele>265.6</ele>
        <time>2021-07-31T09:49:42Z</time>
      </trkpt>
      <trkpt lat="48.68988" lon="6.92131">
        <ele>265.6</ele>
        <time>2021-07-31T09:49:43Z</time>
      </trkpt>
      <trkpt lat="48.68986" lon="6.92136">
        <ele>265.6</ele>
        <time>2021-07-31T09:49:44Z</time>
      </trkpt>
      <trkpt lat="48.68981" lon="6.92145">
        <ele>265.6</ele>
        <time>2021-07-31T09:49:46Z</time>
      </trkpt>
      <trkpt lat="48.68979" lon="6.92149">
        <ele>265.6</ele>
        <time>2021-07-31T09:49:47Z</time>
      </trkpt>
      <trkpt lat="48.68975" lon="6.92157">
        <ele>265.6</ele>
        <time>2021-07-31T09:49:49Z</time>
      </trkpt>
      <trkpt lat="48.68972" lon="6.92163">
        <ele>265.6</ele>
        <time>2021-07-31T09:49:50Z</time>
      </trkpt>
      <trkpt lat="48.68969" lon="6.92169">
        <ele>265.6</ele>
        <time>2021-07-31T09:49:51Z</time>
      </trkpt>
      <trkpt lat="48.68965" lon="6.92177">
        <ele>265.7</ele>
        <time>2021-07-31T09:49:53Z</time>
      </trkpt>
      <trkpt lat="48.68962" lon="6.92182">
        <ele>265.7</ele>
        <time>2021-07-31T09:49:54Z</time>
      </trkpt>
      <trkpt lat="48.68959" lon="6.92188">
        <ele>265.6</ele>
        <time>2021-07-31T09:49:55Z</time>
      </trkpt>
      <trkpt lat="48.68956" lon="6.92192">
        <ele>265.6</ele>
        <time>2021-07-31T09:49:56Z</time>
      </trkpt>
      <trkpt lat="48.68951" lon="6.92201">
        <ele>265.6</ele>
        <time>2021-07-31T09:49:58Z</time>
      </trkpt>
      <trkpt lat="48.68949" lon="6.92206">
        <ele>265.6</ele>
        <time>2021-07-31T09:49:59Z</time>
      </trkpt>
      <trkpt lat="48.68944" lon="6.92213">
        <ele>265.6</ele>
        <time>2021-07-31T09:50:00Z</time>
      </trkpt>
      <trkpt lat="48.68942" lon="6.92218">
        <ele>265.6</ele>
        <time>2021-07-31T09:50:02Z</time>
      </trkpt>
      <trkpt lat="48.68938" lon="6.92224">
        <ele>265.6</ele>
        <time>2021-07-31T09:50:03Z</time>
      </trkpt>
      <trkpt lat="48.68936" lon="6.92229">
        <ele>265.6</ele>
        <time>2021-07-31T09:50:04Z</time>
      </trkpt>
      <trkpt lat="48.68932" lon="6.92238">
        <ele>265.7</ele>
        <time>2021-07-31T09:50:06Z</time>
      </trkpt>
      <trkpt lat="48.68928" lon="6.92244">
        <ele>265.7</ele>
        <time>2021-07-31T09:50:07Z</time>
      </trkpt>
      <trkpt lat="48.68925" lon="6.92251">
        <ele>265.7</ele>
        <time>2021-07-31T09:50:09Z</time>
      </trkpt>
      <trkpt lat="48.68922" lon="6.92257">
        <ele>265.7</ele>
        <time>2021-07-31T09:50:10Z</time>
      </trkpt>
      <trkpt lat="48.68919" lon="6.92262">
        <ele>265.7</ele>
        <time>2021-07-31T09:50:11Z</time>
      </trkpt>
      <trkpt lat="48.68915" lon="6.92269">
        <ele>265.6</ele>
        <time>2021-07-31T09:50:13Z</time>
      </trkpt>
      <trkpt lat="48.68911" lon="6.92278">
        <ele>265.5</ele>
        <time>2021-07-31T09:50:15Z</time>
      </trkpt>
      <trkpt lat="48.68909" lon="6.92283">
        <ele>265.4</ele>
        <time>2021-07-31T09:50:16Z</time>
      </trkpt>
      <trkpt lat="48.68905" lon="6.92289">
        <ele>265.3</ele>
        <time>2021-07-31T09:50:17Z</time>
      </trkpt>
      <trkpt lat="48.68902" lon="6.92295">
        <ele>265.3</ele>
        <time>2021-07-31T09:50:19Z</time>
      </trkpt>
      <trkpt lat="48.68899" lon="6.92301">
        <ele>265.3</ele>
        <time>2021-07-31T09:50:20Z</time>
      </trkpt>
      <trkpt lat="48.68896" lon="6.92307">
        <ele>265.3</ele>
        <time>2021-07-31T09:50:21Z</time>
      </trkpt>
      <trkpt lat="48.68893" lon="6.92312">
        <ele>265.3</ele>
        <time>2021-07-31T09:50:23Z</time>
      </trkpt>
      <trkpt lat="48.68889" lon="6.92318">
        <ele>265.3</ele>
        <time>2021-07-31T09:50:24Z</time>
      </trkpt>
      <trkpt lat="48.68887" lon="6.92323">
        <ele>265.3</ele>
        <time>2021-07-31T09:50:25Z</time>
      </trkpt>
      <trkpt lat="48.68884" lon="6.92331">
        <ele>265.4</ele>
        <time>2021-07-31T09:50:27Z</time>
      </trkpt>
      <trkpt lat="48.68882" lon="6.92338">
        <ele>265.4</ele>
        <time>2021-07-31T09:50:28Z</time>
      </trkpt>
      <trkpt lat="48.68879" lon="6.92343">
        <ele>265.4</ele>
        <time>2021-07-31T09:50:29Z</time>
      </trkpt>
      <trkpt lat="48.68878" lon="6.92348">
        <ele>265.5</ele>
        <time>2021-07-31T09:50:30Z</time>
      </trkpt>
      <trkpt lat="48.68875" lon="6.92357">
        <ele>265.5</ele>
        <time>2021-07-31T09:50:32Z</time>
      </trkpt>
      <trkpt lat="48.68873" lon="6.92363">
        <ele>265.5</ele>
        <time>2021-07-31T09:50:33Z</time>
      </trkpt>
      <trkpt lat="48.6887" lon="6.92369">
        <ele>265.6</ele>
        <time>2021-07-31T09:50:34Z</time>
      </trkpt>
      <trkpt lat="48.68868" lon="6.92376">
        <ele>265.6</ele>
        <time>2021-07-31T09:50:35Z</time>
      </trkpt>
      <trkpt lat="48.68865" lon="6.92382">
        <ele>265.7</ele>
        <time>2021-07-31T09:50:37Z</time>
      </trkpt>
      <trkpt lat="48.68862" lon="6.92391">
        <ele>265.8</ele>
        <time>2021-07-31T09:50:38Z</time>
      </trkpt>
      <trkpt lat="48.68859" lon="6.92399">
        <ele>265.9</ele>
        <time>2021-07-31T09:50:39Z</time>
      </trkpt>
      <trkpt lat="48.68858" lon="6.92405">
        <ele>266</ele>
        <time>2021-07-31T09:50:41Z</time>
      </trkpt>
      <trkpt lat="48.68856" lon="6.92411">
        <ele>266.2</ele>
        <time>2021-07-31T09:50:42Z</time>
      </trkpt>
      <trkpt lat="48.68853" lon="6.92419">
        <ele>266.3</ele>
        <time>2021-07-31T09:50:44Z</time>
      </trkpt>
      <trkpt lat="48.68851" lon="6.92424">
        <ele>266.4</ele>
        <time>2021-07-31T09:50:45Z</time>
      </trkpt>
      <trkpt lat="48.68849" lon="6.9243">
        <ele>266.6</ele>
        <time>2021-07-31T09:50:46Z</time>
      </trkpt>
      <trkpt lat="48.68845" lon="6.9244">
        <ele>266.9</ele>
        <time>2021-07-31T09:50:48Z</time>
      </trkpt>
      <trkpt lat="48.68843" lon="6.92445">
        <ele>267.1</ele>
        <time>2021-07-31T09:50:49Z</time>
      </trkpt>
      <trkpt lat="48.68841" lon="6.92451">
        <ele>267.2</ele>
        <time>2021-07-31T09:50:50Z</time>
      </trkpt>
      <trkpt lat="48.6884" lon="6.92456">
        <ele>267.3</ele>
        <time>2021-07-31T09:50:51Z</time>
      </trkpt>
      <trkpt lat="48.68838" lon="6.9246">
        <ele>267.4</ele>
        <time>2021-07-31T09:50:52Z</time>
      </trkpt>
      <trkpt lat="48.68837" lon="6.92465">
        <ele>267.4</ele>
        <time>2021-07-31T09:50:54Z</time>
      </trkpt>
      <trkpt lat="48.68836" lon="6.92469">
        <ele>267.5</ele>
        <time>2021-07-31T09:50:55Z</time>
      </trkpt>
      <trkpt lat="48.68834" lon="6.92474">
        <ele>267.5</ele>
        <time>2021-07-31T09:50:56Z</time>
      </trkpt>
      <trkpt lat="48.68832" lon="6.92478">
        <ele>267.5</ele>
        <time>2021-07-31T09:50:57Z</time>
      </trkpt>
      <trkpt lat="48.68831" lon="6.92483">
        <ele>267.6</ele>
        <time>2021-07-31T09:50:58Z</time>
      </trkpt>
      <trkpt lat="48.68829" lon="6.92487">
        <ele>267.6</ele>
        <time>2021-07-31T09:50:59Z</time>
      </trkpt>
      <trkpt lat="48.68828" lon="6.92491">
        <ele>267.6</ele>
        <time>2021-07-31T09:51:00Z</time>
      </trkpt>
      <trkpt lat="48.68825" lon="6.92499">
        <ele>267.6</ele>
        <time>2021-07-31T09:51:02Z</time>
      </trkpt>
      <trkpt lat="48.68824" lon="6.92504">
        <ele>267.7</ele>
        <time>2021-07-31T09:51:03Z</time>
      </trkpt>
      <trkpt lat="48.68823" lon="6.92509">
        <ele>267.7</ele>
        <time>2021-07-31T09:51:04Z</time>
      </trkpt>
      <trkpt lat="48.68822" lon="6.92514">
        <ele>267.7</ele>
        <time>2021-07-31T09:51:05Z</time>
      </trkpt>
      <trkpt lat="48.6882" lon="6.92521">
        <ele>267.7</ele>
        <time>2021-07-31T09:51:06Z</time>
      </trkpt>
      <trkpt lat="48.68818" lon="6.92527">
        <ele>267.8</ele>
        <time>2021-07-31T09:51:08Z</time>
      </trkpt>
      <trkpt lat="48.68817" lon="6.92533">
        <ele>267.8</ele>
        <time>2021-07-31T09:51:09Z</time>
      </trkpt>
      <trkpt lat="48.68815" lon="6.92538">
        <ele>267.8</ele>
        <time>2021-07-31T09:51:10Z</time>
      </trkpt>
      <trkpt lat="48.68813" lon="6.92544">
        <ele>267.8</ele>
        <time>2021-07-31T09:51:12Z</time>
      </trkpt>
      <trkpt lat="48.68811" lon="6.9255">
        <ele>267.8</ele>
        <time>2021-07-31T09:51:13Z</time>
      </trkpt>
      <trkpt lat="48.6881" lon="6.92555">
        <ele>267.8</ele>
        <time>2021-07-31T09:51:14Z</time>
      </trkpt>
      <trkpt lat="48.68809" lon="6.92561">
        <ele>267.8</ele>
        <time>2021-07-31T09:51:15Z</time>
      </trkpt>
      <trkpt lat="48.68807" lon="6.92568">
        <ele>267.8</ele>
        <time>2021-07-31T09:51:16Z</time>
      </trkpt>
      <trkpt lat="48.68806" lon="6.92575">
        <ele>267.8</ele>
        <time>2021-07-31T09:51:18Z</time>
      </trkpt>
      <trkpt lat="48.68804" lon="6.92581">
        <ele>267.8</ele>
        <time>2021-07-31T09:51:19Z</time>
      </trkpt>
      <trkpt lat="48.68802" lon="6.92587">
        <ele>267.8</ele>
        <time>2021-07-31T09:51:20Z</time>
      </trkpt>
      <trkpt lat="48.688" lon="6.92593">
        <ele>267.9</ele>
        <time>2021-07-31T09:51:21Z</time>
      </trkpt>
      <trkpt lat="48.68798" lon="6.92599">
        <ele>267.9</ele>
        <time>2021-07-31T09:51:23Z</time>
      </trkpt>
      <trkpt lat="48.68796" lon="6.92604">
        <ele>267.9</ele>
        <time>2021-07-31T09:51:24Z</time>
      </trkpt>
      <trkpt lat="48.68794" lon="6.92612">
        <ele>267.9</ele>
        <time>2021-07-31T09:51:25Z</time>
      </trkpt>
      <trkpt lat="48.68792" lon="6.92618">
        <ele>267.9</ele>
        <time>2021-07-31T09:51:26Z</time>
      </trkpt>
      <trkpt lat="48.6879" lon="6.92626">
        <ele>267.9</ele>
        <time>2021-07-31T09:51:27Z</time>
      </trkpt>
      <trkpt lat="48.68789" lon="6.92632">
        <ele>267.9</ele>
        <time>2021-07-31T09:51:29Z</time>
      </trkpt>
      <trkpt lat="48.68788" lon="6.92638">
        <ele>267.9</ele>
        <time>2021-07-31T09:51:30Z</time>
      </trkpt>
      <trkpt lat="48.68786" lon="6.92646">
        <ele>268</ele>
        <time>2021-07-31T09:51:31Z</time>
      </trkpt>
      <trkpt lat="48.68785" lon="6.92651">
        <ele>268</ele>
        <time>2021-07-31T09:51:32Z</time>
      </trkpt>
      <trkpt lat="48.68783" lon="6.92656">
        <ele>268</ele>
        <time>2021-07-31T09:51:33Z</time>
      </trkpt>
      <trkpt lat="48.68781" lon="6.92661">
        <ele>268</ele>
        <time>2021-07-31T09:51:34Z</time>
      </trkpt>
      <trkpt lat="48.68779" lon="6.92669">
        <ele>268.1</ele>
        <time>2021-07-31T09:51:35Z</time>
      </trkpt>
      <trkpt lat="48.68778" lon="6.92675">
        <ele>268.1</ele>
        <time>2021-07-31T09:51:37Z</time>
      </trkpt>
      <trkpt lat="48.68775" lon="6.92682">
        <ele>268.1</ele>
        <time>2021-07-31T09:51:38Z</time>
      </trkpt>
      <trkpt lat="48.68774" lon="6.92688">
        <ele>268.2</ele>
        <time>2021-07-31T09:51:39Z</time>
      </trkpt>
      <trkpt lat="48.68773" lon="6.92694">
        <ele>268.2</ele>
        <time>2021-07-31T09:51:40Z</time>
      </trkpt>
      <trkpt lat="48.68771" lon="6.927">
        <ele>268.3</ele>
        <time>2021-07-31T09:51:41Z</time>
      </trkpt>
      <trkpt lat="48.6877" lon="6.92707">
        <ele>268.4</ele>
        <time>2021-07-31T09:51:42Z</time>
      </trkpt>
      <trkpt lat="48.68768" lon="6.9272">
        <ele>268.5</ele>
        <time>2021-07-31T09:51:44Z</time>
      </trkpt>
      <trkpt lat="48.68764" lon="6.92734">
        <ele>268.6</ele>
        <time>2021-07-31T09:51:46Z</time>
      </trkpt>
      <trkpt lat="48.68763" lon="6.9274">
        <ele>268.7</ele>
        <time>2021-07-31T09:51:47Z</time>
      </trkpt>
      <trkpt lat="48.68763" lon="6.92745">
        <ele>268.7</ele>
        <time>2021-07-31T09:51:48Z</time>
      </trkpt>
      <trkpt lat="48.68759" lon="6.92753">
        <ele>268.8</ele>
        <time>2021-07-31T09:51:50Z</time>
      </trkpt>
      <trkpt lat="48.68756" lon="6.92757">
        <ele>268.9</ele>
        <time>2021-07-31T09:51:51Z</time>
      </trkpt>
      <trkpt lat="48.68755" lon="6.9276">
        <ele>268.9</ele>
        <time>2021-07-31T09:51:52Z</time>
      </trkpt>
      <trkpt lat="48.68753" lon="6.92765">
        <ele>268.9</ele>
        <time>2021-07-31T09:51:54Z</time>
      </trkpt>
      <trkpt lat="48.68752" lon="6.92768">
        <ele>268.9</ele>
        <time>2021-07-31T09:51:55Z</time>
      </trkpt>
      <trkpt lat="48.68751" lon="6.9277">
        <ele>268.9</ele>
        <time>2021-07-31T09:51:57Z</time>
      </trkpt>
      <trkpt lat="48.68751" lon="6.92771">
        <ele>268.9</ele>
        <time>2021-07-31T09:51:58Z</time>
      </trkpt>
      <trkpt lat="48.68751" lon="6.92768">
        <ele>268.9</ele>
        <time>2021-07-31T09:51:59Z</time>
      </trkpt>
      <trkpt lat="48.68751" lon="6.92767">
        <ele>268.9</ele>
        <time>2021-07-31T09:52:00Z</time>
      </trkpt>
      <trkpt lat="48.68751" lon="6.92767">
        <ele>268.9</ele>
        <time>2021-07-31T09:52:01Z</time>
      </trkpt>
      <trkpt lat="48.68751" lon="6.92768">
        <ele>268.9</ele>
        <time>2021-07-31T09:52:03Z</time>
      </trkpt>
      <trkpt lat="48.68751" lon="6.92768">
        <ele>268.9</ele>
        <time>2021-07-31T09:52:04Z</time>
      </trkpt>
      <trkpt lat="48.68751" lon="6.92768">
        <ele>268.9</ele>
        <time>2021-07-31T09:52:06Z</time>
      </trkpt>
      <trkpt lat="48.68751" lon="6.92768">
        <ele>268.9</ele>
        <time>2021-07-31T09:52:07Z</time>
      </trkpt>
      <trkpt lat="48.68742" lon="6.92766">
        <ele>268.9</ele>
        <time>2021-07-31T09:52:22Z</time>
      </trkpt>
      <trkpt lat="48.68739" lon="6.92767">
        <ele>268.9</ele>
        <time>2021-07-31T09:52:23Z</time>
      </trkpt>
      <trkpt lat="48.68735" lon="6.92765">
        <ele>268.9</ele>
        <time>2021-07-31T09:52:24Z</time>
      </trkpt>
      <trkpt lat="48.68728" lon="6.92762">
        <ele>268.9</ele>
        <time>2021-07-31T09:52:26Z</time>
      </trkpt>
      <trkpt lat="48.68719" lon="6.92759">
        <ele>268.9</ele>
        <time>2021-07-31T09:52:28Z</time>
      </trkpt>
      <trkpt lat="48.68715" lon="6.92758">
        <ele>268.9</ele>
        <time>2021-07-31T09:52:29Z</time>
      </trkpt>
      <trkpt lat="48.68711" lon="6.92756">
        <ele>268.9</ele>
        <time>2021-07-31T09:52:30Z</time>
      </trkpt>
      <trkpt lat="48.68707" lon="6.92756">
        <ele>269</ele>
        <time>2021-07-31T09:52:31Z</time>
      </trkpt>
      <trkpt lat="48.68704" lon="6.92756">
        <ele>269</ele>
        <time>2021-07-31T09:52:32Z</time>
      </trkpt>
      <trkpt lat="48.687" lon="6.92757">
        <ele>269</ele>
        <time>2021-07-31T09:52:34Z</time>
      </trkpt>
      <trkpt lat="48.68696" lon="6.9276">
        <ele>269.2</ele>
        <time>2021-07-31T09:52:35Z</time>
      </trkpt>
      <trkpt lat="48.68695" lon="6.92761">
        <ele>269.2</ele>
        <time>2021-07-31T09:52:36Z</time>
      </trkpt>
      <trkpt lat="48.68694" lon="6.92768">
        <ele>268.6</ele>
        <time>2021-07-31T09:52:37Z</time>
      </trkpt>
      <trkpt lat="48.68696" lon="6.92776">
        <ele>268.3</ele>
        <time>2021-07-31T09:52:39Z</time>
      </trkpt>
      <trkpt lat="48.687" lon="6.9278">
        <ele>267.7</ele>
        <time>2021-07-31T09:52:40Z</time>
      </trkpt>
      <trkpt lat="48.68704" lon="6.92781">
        <ele>267.7</ele>
        <time>2021-07-31T09:52:42Z</time>
      </trkpt>
      <trkpt lat="48.68709" lon="6.92782">
        <ele>267.4</ele>
        <time>2021-07-31T09:52:43Z</time>
      </trkpt>
      <trkpt lat="48.68713" lon="6.92783">
        <ele>267.3</ele>
        <time>2021-07-31T09:52:44Z</time>
      </trkpt>
      <trkpt lat="48.68716" lon="6.92783">
        <ele>267.2</ele>
        <time>2021-07-31T09:52:45Z</time>
      </trkpt>
      <trkpt lat="48.68721" lon="6.92783">
        <ele>267</ele>
        <time>2021-07-31T09:52:46Z</time>
      </trkpt>
      <trkpt lat="48.68726" lon="6.92782">
        <ele>266.8</ele>
        <time>2021-07-31T09:52:48Z</time>
      </trkpt>
      <trkpt lat="48.68739" lon="6.92782">
        <ele>266.5</ele>
        <time>2021-07-31T09:52:50Z</time>
      </trkpt>
      <trkpt lat="48.68747" lon="6.92786">
        <ele>266.2</ele>
        <time>2021-07-31T09:52:52Z</time>
      </trkpt>
      <trkpt lat="48.68752" lon="6.92794">
        <ele>266</ele>
        <time>2021-07-31T09:52:54Z</time>
      </trkpt>
      <trkpt lat="48.6875" lon="6.92801">
        <ele>265.9</ele>
        <time>2021-07-31T09:52:55Z</time>
      </trkpt>
      <trkpt lat="48.68748" lon="6.92809">
        <ele>265.8</ele>
        <time>2021-07-31T09:52:56Z</time>
      </trkpt>
      <trkpt lat="48.68739" lon="6.92822">
        <ele>265.6</ele>
        <time>2021-07-31T09:52:58Z</time>
      </trkpt>
      <trkpt lat="48.68729" lon="6.92834">
        <ele>265.5</ele>
        <time>2021-07-31T09:53:00Z</time>
      </trkpt>
      <trkpt lat="48.68724" lon="6.9284">
        <ele>265.5</ele>
        <time>2021-07-31T09:53:01Z</time>
      </trkpt>
      <trkpt lat="48.6872" lon="6.92846">
        <ele>265.5</ele>
        <time>2021-07-31T09:53:02Z</time>
      </trkpt>
      <trkpt lat="48.68711" lon="6.92856">
        <ele>265.6</ele>
        <time>2021-07-31T09:53:04Z</time>
      </trkpt>
      <trkpt lat="48.68706" lon="6.92862">
        <ele>265.6</ele>
        <time>2021-07-31T09:53:05Z</time>
      </trkpt>
      <trkpt lat="48.68702" lon="6.92867">
        <ele>265.7</ele>
        <time>2021-07-31T09:53:06Z</time>
      </trkpt>
      <trkpt lat="48.68693" lon="6.92878">
        <ele>265.6</ele>
        <time>2021-07-31T09:53:08Z</time>
      </trkpt>
      <trkpt lat="48.68685" lon="6.92888">
        <ele>265.6</ele>
        <time>2021-07-31T09:53:10Z</time>
      </trkpt>
      <trkpt lat="48.68681" lon="6.92893">
        <ele>265.6</ele>
        <time>2021-07-31T09:53:11Z</time>
      </trkpt>
      <trkpt lat="48.68676" lon="6.92898">
        <ele>265.5</ele>
        <time>2021-07-31T09:53:12Z</time>
      </trkpt>
      <trkpt lat="48.6867" lon="6.92906">
        <ele>265.5</ele>
        <time>2021-07-31T09:53:14Z</time>
      </trkpt>
      <trkpt lat="48.68662" lon="6.92917">
        <ele>265.5</ele>
        <time>2021-07-31T09:53:16Z</time>
      </trkpt>
      <trkpt lat="48.68658" lon="6.92923">
        <ele>265.5</ele>
        <time>2021-07-31T09:53:17Z</time>
      </trkpt>
      <trkpt lat="48.6865" lon="6.92933">
        <ele>265.5</ele>
        <time>2021-07-31T09:53:19Z</time>
      </trkpt>
      <trkpt lat="48.68645" lon="6.92938">
        <ele>265.5</ele>
        <time>2021-07-31T09:53:20Z</time>
      </trkpt>
      <trkpt lat="48.68639" lon="6.92945">
        <ele>265.5</ele>
        <time>2021-07-31T09:53:22Z</time>
      </trkpt>
      <trkpt lat="48.68635" lon="6.9295">
        <ele>265.5</ele>
        <time>2021-07-31T09:53:23Z</time>
      </trkpt>
      <trkpt lat="48.68631" lon="6.92955">
        <ele>265.5</ele>
        <time>2021-07-31T09:53:24Z</time>
      </trkpt>
      <trkpt lat="48.68623" lon="6.92965">
        <ele>265.5</ele>
        <time>2021-07-31T09:53:26Z</time>
      </trkpt>
      <trkpt lat="48.68622" lon="6.92969">
        <ele>265.5</ele>
        <time>2021-07-31T09:53:27Z</time>
      </trkpt>
      <trkpt lat="48.6862" lon="6.92974">
        <ele>265.5</ele>
        <time>2021-07-31T09:53:28Z</time>
      </trkpt>
      <trkpt lat="48.68616" lon="6.92979">
        <ele>265.5</ele>
        <time>2021-07-31T09:53:30Z</time>
      </trkpt>
      <trkpt lat="48.68611" lon="6.92984">
        <ele>265.5</ele>
        <time>2021-07-31T09:53:31Z</time>
      </trkpt>
      <trkpt lat="48.68607" lon="6.92989">
        <ele>265.5</ele>
        <time>2021-07-31T09:53:32Z</time>
      </trkpt>
      <trkpt lat="48.68603" lon="6.92993">
        <ele>265.5</ele>
        <time>2021-07-31T09:53:33Z</time>
      </trkpt>
      <trkpt lat="48.68597" lon="6.92998">
        <ele>265.5</ele>
        <time>2021-07-31T09:53:34Z</time>
      </trkpt>
      <trkpt lat="48.68592" lon="6.93003">
        <ele>265.5</ele>
        <time>2021-07-31T09:53:36Z</time>
      </trkpt>
      <trkpt lat="48.68588" lon="6.93008">
        <ele>265.4</ele>
        <time>2021-07-31T09:53:37Z</time>
      </trkpt>
      <trkpt lat="48.68584" lon="6.93013">
        <ele>265.4</ele>
        <time>2021-07-31T09:53:38Z</time>
      </trkpt>
      <trkpt lat="48.6858" lon="6.93018">
        <ele>265.4</ele>
        <time>2021-07-31T09:53:39Z</time>
      </trkpt>
      <trkpt lat="48.68575" lon="6.93023">
        <ele>265.4</ele>
        <time>2021-07-31T09:53:40Z</time>
      </trkpt>
      <trkpt lat="48.68571" lon="6.93029">
        <ele>265.4</ele>
        <time>2021-07-31T09:53:42Z</time>
      </trkpt>
      <trkpt lat="48.68566" lon="6.93037">
        <ele>265.4</ele>
        <time>2021-07-31T09:53:43Z</time>
      </trkpt>
      <trkpt lat="48.68561" lon="6.93035">
        <ele>265.4</ele>
        <time>2021-07-31T09:53:45Z</time>
      </trkpt>
      <trkpt lat="48.68556" lon="6.93043">
        <ele>265.4</ele>
        <time>2021-07-31T09:53:46Z</time>
      </trkpt>
      <trkpt lat="48.68552" lon="6.9305">
        <ele>265.4</ele>
        <time>2021-07-31T09:53:48Z</time>
      </trkpt>
      <trkpt lat="48.68546" lon="6.93062">
        <ele>265.4</ele>
        <time>2021-07-31T09:53:49Z</time>
      </trkpt>
      <trkpt lat="48.68542" lon="6.93067">
        <ele>265.4</ele>
        <time>2021-07-31T09:53:50Z</time>
      </trkpt>
      <trkpt lat="48.68539" lon="6.9307">
        <ele>265.4</ele>
        <time>2021-07-31T09:53:51Z</time>
      </trkpt>
      <trkpt lat="48.68535" lon="6.93074">
        <ele>265.4</ele>
        <time>2021-07-31T09:53:53Z</time>
      </trkpt>
      <trkpt lat="48.68531" lon="6.93079">
        <ele>265.4</ele>
        <time>2021-07-31T09:53:54Z</time>
      </trkpt>
      <trkpt lat="48.68528" lon="6.93084">
        <ele>265.5</ele>
        <time>2021-07-31T09:53:55Z</time>
      </trkpt>
      <trkpt lat="48.68525" lon="6.93088">
        <ele>265.5</ele>
        <time>2021-07-31T09:53:56Z</time>
      </trkpt>
      <trkpt lat="48.68521" lon="6.93093">
        <ele>265.5</ele>
        <time>2021-07-31T09:53:57Z</time>
      </trkpt>
      <trkpt lat="48.68515" lon="6.93101">
        <ele>265.6</ele>
        <time>2021-07-31T09:53:59Z</time>
      </trkpt>
      <trkpt lat="48.68512" lon="6.93105">
        <ele>265.6</ele>
        <time>2021-07-31T09:54:00Z</time>
      </trkpt>
      <trkpt lat="48.68508" lon="6.93109">
        <ele>265.6</ele>
        <time>2021-07-31T09:54:01Z</time>
      </trkpt>
      <trkpt lat="48.68505" lon="6.93113">
        <ele>265.6</ele>
        <time>2021-07-31T09:54:02Z</time>
      </trkpt>
      <trkpt lat="48.68501" lon="6.93117">
        <ele>265.6</ele>
        <time>2021-07-31T09:54:03Z</time>
      </trkpt>
      <trkpt lat="48.68498" lon="6.93121">
        <ele>265.6</ele>
        <time>2021-07-31T09:54:05Z</time>
      </trkpt>
      <trkpt lat="48.68495" lon="6.93126">
        <ele>265.6</ele>
        <time>2021-07-31T09:54:06Z</time>
      </trkpt>
      <trkpt lat="48.68492" lon="6.93131">
        <ele>265.6</ele>
        <time>2021-07-31T09:54:07Z</time>
      </trkpt>
      <trkpt lat="48.68488" lon="6.93135">
        <ele>265.6</ele>
        <time>2021-07-31T09:54:08Z</time>
      </trkpt>
      <trkpt lat="48.68485" lon="6.9314">
        <ele>265.6</ele>
        <time>2021-07-31T09:54:09Z</time>
      </trkpt>
      <trkpt lat="48.68481" lon="6.93145">
        <ele>265.6</ele>
        <time>2021-07-31T09:54:10Z</time>
      </trkpt>
      <trkpt lat="48.68478" lon="6.9315">
        <ele>265.6</ele>
        <time>2021-07-31T09:54:12Z</time>
      </trkpt>
      <trkpt lat="48.68475" lon="6.93155">
        <ele>265.6</ele>
        <time>2021-07-31T09:54:13Z</time>
      </trkpt>
      <trkpt lat="48.68469" lon="6.93161">
        <ele>265.7</ele>
        <time>2021-07-31T09:54:14Z</time>
      </trkpt>
      <trkpt lat="48.68462" lon="6.93169">
        <ele>265.7</ele>
        <time>2021-07-31T09:54:16Z</time>
      </trkpt>
      <trkpt lat="48.68455" lon="6.93178">
        <ele>265.8</ele>
        <time>2021-07-31T09:54:18Z</time>
      </trkpt>
      <trkpt lat="48.68447" lon="6.93186">
        <ele>265.9</ele>
        <time>2021-07-31T09:54:20Z</time>
      </trkpt>
      <trkpt lat="48.68438" lon="6.93194">
        <ele>266</ele>
        <time>2021-07-31T09:54:22Z</time>
      </trkpt>
      <trkpt lat="48.68429" lon="6.93203">
        <ele>266.1</ele>
        <time>2021-07-31T09:54:24Z</time>
      </trkpt>
      <trkpt lat="48.68424" lon="6.93206">
        <ele>266.2</ele>
        <time>2021-07-31T09:54:25Z</time>
      </trkpt>
      <trkpt lat="48.68418" lon="6.93212">
        <ele>266.6</ele>
        <time>2021-07-31T09:54:27Z</time>
      </trkpt>
      <trkpt lat="48.6841" lon="6.93219">
        <ele>267</ele>
        <time>2021-07-31T09:54:29Z</time>
      </trkpt>
      <trkpt lat="48.68406" lon="6.93223">
        <ele>267.2</ele>
        <time>2021-07-31T09:54:30Z</time>
      </trkpt>
      <trkpt lat="48.68402" lon="6.93227">
        <ele>267.4</ele>
        <time>2021-07-31T09:54:31Z</time>
      </trkpt>
      <trkpt lat="48.68398" lon="6.93231">
        <ele>267.6</ele>
        <time>2021-07-31T09:54:32Z</time>
      </trkpt>
      <trkpt lat="48.68398" lon="6.93236">
        <ele>267.8</ele>
        <time>2021-07-31T09:54:34Z</time>
      </trkpt>
      <trkpt lat="48.68394" lon="6.93238">
        <ele>268</ele>
        <time>2021-07-31T09:54:35Z</time>
      </trkpt>
      <trkpt lat="48.68388" lon="6.93243">
        <ele>268.3</ele>
        <time>2021-07-31T09:54:37Z</time>
      </trkpt>
      <trkpt lat="48.68385" lon="6.93246">
        <ele>268.5</ele>
        <time>2021-07-31T09:54:38Z</time>
      </trkpt>
      <trkpt lat="48.68381" lon="6.9325">
        <ele>268.8</ele>
        <time>2021-07-31T09:54:39Z</time>
      </trkpt>
      <trkpt lat="48.68376" lon="6.93255">
        <ele>269.1</ele>
        <time>2021-07-31T09:54:41Z</time>
      </trkpt>
      <trkpt lat="48.68373" lon="6.93258">
        <ele>269.2</ele>
        <time>2021-07-31T09:54:42Z</time>
      </trkpt>
      <trkpt lat="48.68372" lon="6.93263">
        <ele>269.4</ele>
        <time>2021-07-31T09:54:43Z</time>
      </trkpt>
      <trkpt lat="48.68371" lon="6.93267">
        <ele>269.6</ele>
        <time>2021-07-31T09:54:44Z</time>
      </trkpt>
      <trkpt lat="48.68372" lon="6.93271">
        <ele>269.6</ele>
        <time>2021-07-31T09:54:45Z</time>
      </trkpt>
      <trkpt lat="48.68374" lon="6.93275">
        <ele>269.7</ele>
        <time>2021-07-31T09:54:47Z</time>
      </trkpt>
      <trkpt lat="48.68376" lon="6.9328">
        <ele>269.7</ele>
        <time>2021-07-31T09:54:48Z</time>
      </trkpt>
      <trkpt lat="48.68379" lon="6.93284">
        <ele>269.7</ele>
        <time>2021-07-31T09:54:49Z</time>
      </trkpt>
      <trkpt lat="48.68381" lon="6.93286">
        <ele>269.7</ele>
        <time>2021-07-31T09:54:50Z</time>
      </trkpt>
      <trkpt lat="48.68384" lon="6.93289">
        <ele>269.7</ele>
        <time>2021-07-31T09:54:51Z</time>
      </trkpt>
      <trkpt lat="48.68387" lon="6.93293">
        <ele>269.7</ele>
        <time>2021-07-31T09:54:53Z</time>
      </trkpt>
      <trkpt lat="48.6839" lon="6.93297">
        <ele>269.6</ele>
        <time>2021-07-31T09:54:54Z</time>
      </trkpt>
      <trkpt lat="48.68392" lon="6.93304">
        <ele>269.6</ele>
        <time>2021-07-31T09:54:56Z</time>
      </trkpt>
      <trkpt lat="48.68393" lon="6.93309">
        <ele>269.4</ele>
        <time>2021-07-31T09:54:57Z</time>
      </trkpt>
      <trkpt lat="48.68392" lon="6.93315">
        <ele>269.2</ele>
        <time>2021-07-31T09:54:58Z</time>
      </trkpt>
      <trkpt lat="48.68388" lon="6.93322">
        <ele>268.7</ele>
        <time>2021-07-31T09:55:00Z</time>
      </trkpt>
      <trkpt lat="48.68384" lon="6.93328">
        <ele>268.3</ele>
        <time>2021-07-31T09:55:01Z</time>
      </trkpt>
      <trkpt lat="48.68377" lon="6.93337">
        <ele>267.6</ele>
        <time>2021-07-31T09:55:02Z</time>
      </trkpt>
      <trkpt lat="48.68367" lon="6.9335">
        <ele>266.3</ele>
        <time>2021-07-31T09:55:04Z</time>
      </trkpt>
      <trkpt lat="48.68361" lon="6.93357">
        <ele>265.6</ele>
        <time>2021-07-31T09:55:05Z</time>
      </trkpt>
      <trkpt lat="48.68354" lon="6.93366">
        <ele>265</ele>
        <time>2021-07-31T09:55:06Z</time>
      </trkpt>
      <trkpt lat="48.68347" lon="6.93375">
        <ele>264.6</ele>
        <time>2021-07-31T09:55:07Z</time>
      </trkpt>
      <trkpt lat="48.68339" lon="6.93382">
        <ele>264.4</ele>
        <time>2021-07-31T09:55:08Z</time>
      </trkpt>
      <trkpt lat="48.68325" lon="6.93397">
        <ele>264.5</ele>
        <time>2021-07-31T09:55:10Z</time>
      </trkpt>
      <trkpt lat="48.68318" lon="6.93403">
        <ele>264.6</ele>
        <time>2021-07-31T09:55:11Z</time>
      </trkpt>
      <trkpt lat="48.68312" lon="6.93409">
        <ele>264.8</ele>
        <time>2021-07-31T09:55:12Z</time>
      </trkpt>
      <trkpt lat="48.68307" lon="6.93414">
        <ele>265</ele>
        <time>2021-07-31T09:55:13Z</time>
      </trkpt>
      <trkpt lat="48.68301" lon="6.93419">
        <ele>265.2</ele>
        <time>2021-07-31T09:55:14Z</time>
      </trkpt>
      <trkpt lat="48.68292" lon="6.9343">
        <ele>265.4</ele>
        <time>2021-07-31T09:55:16Z</time>
      </trkpt>
      <trkpt lat="48.68289" lon="6.93436">
        <ele>265.5</ele>
        <time>2021-07-31T09:55:17Z</time>
      </trkpt>
      <trkpt lat="48.68285" lon="6.93442">
        <ele>265.6</ele>
        <time>2021-07-31T09:55:18Z</time>
      </trkpt>
      <trkpt lat="48.68276" lon="6.93452">
        <ele>265.7</ele>
        <time>2021-07-31T09:55:20Z</time>
      </trkpt>
      <trkpt lat="48.68267" lon="6.93462">
        <ele>265.7</ele>
        <time>2021-07-31T09:55:22Z</time>
      </trkpt>
      <trkpt lat="48.68258" lon="6.93474">
        <ele>265.7</ele>
        <time>2021-07-31T09:55:24Z</time>
      </trkpt>
      <trkpt lat="48.68249" lon="6.93488">
        <ele>265.7</ele>
        <time>2021-07-31T09:55:26Z</time>
      </trkpt>
      <trkpt lat="48.68244" lon="6.93494">
        <ele>265.7</ele>
        <time>2021-07-31T09:55:27Z</time>
      </trkpt>
      <trkpt lat="48.68236" lon="6.93507">
        <ele>265.7</ele>
        <time>2021-07-31T09:55:29Z</time>
      </trkpt>
      <trkpt lat="48.68233" lon="6.93514">
        <ele>265.7</ele>
        <time>2021-07-31T09:55:30Z</time>
      </trkpt>
      <trkpt lat="48.68227" lon="6.93527">
        <ele>265.7</ele>
        <time>2021-07-31T09:55:32Z</time>
      </trkpt>
      <trkpt lat="48.68222" lon="6.93539">
        <ele>265.7</ele>
        <time>2021-07-31T09:55:34Z</time>
      </trkpt>
      <trkpt lat="48.6822" lon="6.93546">
        <ele>265.7</ele>
        <time>2021-07-31T09:55:35Z</time>
      </trkpt>
      <trkpt lat="48.68218" lon="6.93552">
        <ele>265.7</ele>
        <time>2021-07-31T09:55:36Z</time>
      </trkpt>
      <trkpt lat="48.68213" lon="6.93565">
        <ele>265.7</ele>
        <time>2021-07-31T09:55:38Z</time>
      </trkpt>
      <trkpt lat="48.68209" lon="6.93578">
        <ele>265.7</ele>
        <time>2021-07-31T09:55:40Z</time>
      </trkpt>
      <trkpt lat="48.68206" lon="6.93584">
        <ele>265.7</ele>
        <time>2021-07-31T09:55:41Z</time>
      </trkpt>
      <trkpt lat="48.68204" lon="6.93591">
        <ele>265.7</ele>
        <time>2021-07-31T09:55:42Z</time>
      </trkpt>
      <trkpt lat="48.68199" lon="6.93605">
        <ele>265.7</ele>
        <time>2021-07-31T09:55:44Z</time>
      </trkpt>
      <trkpt lat="48.68196" lon="6.93619">
        <ele>265.7</ele>
        <time>2021-07-31T09:55:46Z</time>
      </trkpt>
      <trkpt lat="48.68194" lon="6.93626">
        <ele>265.7</ele>
        <time>2021-07-31T09:55:47Z</time>
      </trkpt>
      <trkpt lat="48.68193" lon="6.93633">
        <ele>265.6</ele>
        <time>2021-07-31T09:55:48Z</time>
      </trkpt>
      <trkpt lat="48.68191" lon="6.93646">
        <ele>265.6</ele>
        <time>2021-07-31T09:55:50Z</time>
      </trkpt>
      <trkpt lat="48.6819" lon="6.9366">
        <ele>265.5</ele>
        <time>2021-07-31T09:55:52Z</time>
      </trkpt>
      <trkpt lat="48.68189" lon="6.93667">
        <ele>265.5</ele>
        <time>2021-07-31T09:55:53Z</time>
      </trkpt>
      <trkpt lat="48.68189" lon="6.93679">
        <ele>265.5</ele>
        <time>2021-07-31T09:55:55Z</time>
      </trkpt>
      <trkpt lat="48.68189" lon="6.93684">
        <ele>265.5</ele>
        <time>2021-07-31T09:55:56Z</time>
      </trkpt>
      <trkpt lat="48.68188" lon="6.93697">
        <ele>265.5</ele>
        <time>2021-07-31T09:55:58Z</time>
      </trkpt>
      <trkpt lat="48.68187" lon="6.93713">
        <ele>265.5</ele>
        <time>2021-07-31T09:56:00Z</time>
      </trkpt>
      <trkpt lat="48.68185" lon="6.9373">
        <ele>265.5</ele>
        <time>2021-07-31T09:56:02Z</time>
      </trkpt>
      <trkpt lat="48.68183" lon="6.93745">
        <ele>265.5</ele>
        <time>2021-07-31T09:56:04Z</time>
      </trkpt>
      <trkpt lat="48.68182" lon="6.9376">
        <ele>265.5</ele>
        <time>2021-07-31T09:56:06Z</time>
      </trkpt>
      <trkpt lat="48.68181" lon="6.93767">
        <ele>265.5</ele>
        <time>2021-07-31T09:56:07Z</time>
      </trkpt>
      <trkpt lat="48.6818" lon="6.93783">
        <ele>265.5</ele>
        <time>2021-07-31T09:56:09Z</time>
      </trkpt>
      <trkpt lat="48.6818" lon="6.93791">
        <ele>265.5</ele>
        <time>2021-07-31T09:56:10Z</time>
      </trkpt>
      <trkpt lat="48.68179" lon="6.93798">
        <ele>265.5</ele>
        <time>2021-07-31T09:56:11Z</time>
      </trkpt>
      <trkpt lat="48.68179" lon="6.93814">
        <ele>265.5</ele>
        <time>2021-07-31T09:56:13Z</time>
      </trkpt>
      <trkpt lat="48.68177" lon="6.93829">
        <ele>265.5</ele>
        <time>2021-07-31T09:56:15Z</time>
      </trkpt>
      <trkpt lat="48.68177" lon="6.93836">
        <ele>265.5</ele>
        <time>2021-07-31T09:56:16Z</time>
      </trkpt>
      <trkpt lat="48.68176" lon="6.9385">
        <ele>265.5</ele>
        <time>2021-07-31T09:56:18Z</time>
      </trkpt>
      <trkpt lat="48.68175" lon="6.93863">
        <ele>265.5</ele>
        <time>2021-07-31T09:56:20Z</time>
      </trkpt>
      <trkpt lat="48.68174" lon="6.93878">
        <ele>265.5</ele>
        <time>2021-07-31T09:56:22Z</time>
      </trkpt>
      <trkpt lat="48.68174" lon="6.93884">
        <ele>265.5</ele>
        <time>2021-07-31T09:56:23Z</time>
      </trkpt>
      <trkpt lat="48.68173" lon="6.93901">
        <ele>265.4</ele>
        <time>2021-07-31T09:56:25Z</time>
      </trkpt>
      <trkpt lat="48.68175" lon="6.93907">
        <ele>265.4</ele>
        <time>2021-07-31T09:56:26Z</time>
      </trkpt>
      <trkpt lat="48.68173" lon="6.93918">
        <ele>265.4</ele>
        <time>2021-07-31T09:56:28Z</time>
      </trkpt>
      <trkpt lat="48.68173" lon="6.93924">
        <ele>265.3</ele>
        <time>2021-07-31T09:56:29Z</time>
      </trkpt>
      <trkpt lat="48.68172" lon="6.9393">
        <ele>265.3</ele>
        <time>2021-07-31T09:56:30Z</time>
      </trkpt>
      <trkpt lat="48.68168" lon="6.93944">
        <ele>265.3</ele>
        <time>2021-07-31T09:56:32Z</time>
      </trkpt>
      <trkpt lat="48.68166" lon="6.93957">
        <ele>265.3</ele>
        <time>2021-07-31T09:56:34Z</time>
      </trkpt>
      <trkpt lat="48.68165" lon="6.93964">
        <ele>265.3</ele>
        <time>2021-07-31T09:56:35Z</time>
      </trkpt>
      <trkpt lat="48.68167" lon="6.93969">
        <ele>265.3</ele>
        <time>2021-07-31T09:56:36Z</time>
      </trkpt>
      <trkpt lat="48.68165" lon="6.93981">
        <ele>265.3</ele>
        <time>2021-07-31T09:56:38Z</time>
      </trkpt>
      <trkpt lat="48.68165" lon="6.93991">
        <ele>265.3</ele>
        <time>2021-07-31T09:56:40Z</time>
      </trkpt>
      <trkpt lat="48.68166" lon="6.93995">
        <ele>265.3</ele>
        <time>2021-07-31T09:56:41Z</time>
      </trkpt>
      <trkpt lat="48.68165" lon="6.94006">
        <ele>265.3</ele>
        <time>2021-07-31T09:56:42Z</time>
      </trkpt>
      <trkpt lat="48.68163" lon="6.94021">
        <ele>265.3</ele>
        <time>2021-07-31T09:56:44Z</time>
      </trkpt>
      <trkpt lat="48.68162" lon="6.94029">
        <ele>265.3</ele>
        <time>2021-07-31T09:56:45Z</time>
      </trkpt>
      <trkpt lat="48.68161" lon="6.94043">
        <ele>265.3</ele>
        <time>2021-07-31T09:56:47Z</time>
      </trkpt>
      <trkpt lat="48.6816" lon="6.9405">
        <ele>265.3</ele>
        <time>2021-07-31T09:56:48Z</time>
      </trkpt>
      <trkpt lat="48.68159" lon="6.94063">
        <ele>265.3</ele>
        <time>2021-07-31T09:56:50Z</time>
      </trkpt>
      <trkpt lat="48.68159" lon="6.94075">
        <ele>265.3</ele>
        <time>2021-07-31T09:56:52Z</time>
      </trkpt>
      <trkpt lat="48.68159" lon="6.94079">
        <ele>265.4</ele>
        <time>2021-07-31T09:56:53Z</time>
      </trkpt>
      <trkpt lat="48.68158" lon="6.94091">
        <ele>265.4</ele>
        <time>2021-07-31T09:56:55Z</time>
      </trkpt>
      <trkpt lat="48.68157" lon="6.94097">
        <ele>265.4</ele>
        <time>2021-07-31T09:56:56Z</time>
      </trkpt>
      <trkpt lat="48.68156" lon="6.94108">
        <ele>265.4</ele>
        <time>2021-07-31T09:56:58Z</time>
      </trkpt>
      <trkpt lat="48.68156" lon="6.94114">
        <ele>265.4</ele>
        <time>2021-07-31T09:56:59Z</time>
      </trkpt>
      <trkpt lat="48.68155" lon="6.94119">
        <ele>265.4</ele>
        <time>2021-07-31T09:57:00Z</time>
      </trkpt>
      <trkpt lat="48.68153" lon="6.94135">
        <ele>265.4</ele>
        <time>2021-07-31T09:57:02Z</time>
      </trkpt>
      <trkpt lat="48.68152" lon="6.94146">
        <ele>265.4</ele>
        <time>2021-07-31T09:57:04Z</time>
      </trkpt>
      <trkpt lat="48.68152" lon="6.94152">
        <ele>265.4</ele>
        <time>2021-07-31T09:57:05Z</time>
      </trkpt>
      <trkpt lat="48.68151" lon="6.94158">
        <ele>265.4</ele>
        <time>2021-07-31T09:57:06Z</time>
      </trkpt>
      <trkpt lat="48.68151" lon="6.94165">
        <ele>265.4</ele>
        <time>2021-07-31T09:57:07Z</time>
      </trkpt>
      <trkpt lat="48.68151" lon="6.94171">
        <ele>265.4</ele>
        <time>2021-07-31T09:57:08Z</time>
      </trkpt>
      <trkpt lat="48.68151" lon="6.94181">
        <ele>265.4</ele>
        <time>2021-07-31T09:57:10Z</time>
      </trkpt>
      <trkpt lat="48.68151" lon="6.9419">
        <ele>265.4</ele>
        <time>2021-07-31T09:57:11Z</time>
      </trkpt>
      <trkpt lat="48.68151" lon="6.94198">
        <ele>265.4</ele>
        <time>2021-07-31T09:57:12Z</time>
      </trkpt>
      <trkpt lat="48.68151" lon="6.94205">
        <ele>265.4</ele>
        <time>2021-07-31T09:57:13Z</time>
      </trkpt>
      <trkpt lat="48.6815" lon="6.9421">
        <ele>265.4</ele>
        <time>2021-07-31T09:57:14Z</time>
      </trkpt>
      <trkpt lat="48.68149" lon="6.94222">
        <ele>265.4</ele>
        <time>2021-07-31T09:57:16Z</time>
      </trkpt>
      <trkpt lat="48.6815" lon="6.94233">
        <ele>265.4</ele>
        <time>2021-07-31T09:57:17Z</time>
      </trkpt>
      <trkpt lat="48.68151" lon="6.94238">
        <ele>265.4</ele>
        <time>2021-07-31T09:57:18Z</time>
      </trkpt>
      <trkpt lat="48.68151" lon="6.94248">
        <ele>265.4</ele>
        <time>2021-07-31T09:57:20Z</time>
      </trkpt>
      <trkpt lat="48.68146" lon="6.94259">
        <ele>265.4</ele>
        <time>2021-07-31T09:57:21Z</time>
      </trkpt>
      <trkpt lat="48.68145" lon="6.94276">
        <ele>265.4</ele>
        <time>2021-07-31T09:57:23Z</time>
      </trkpt>
      <trkpt lat="48.68144" lon="6.94283">
        <ele>265.4</ele>
        <time>2021-07-31T09:57:24Z</time>
      </trkpt>
      <trkpt lat="48.68145" lon="6.94294">
        <ele>265.4</ele>
        <time>2021-07-31T09:57:26Z</time>
      </trkpt>
      <trkpt lat="48.68145" lon="6.94301">
        <ele>265.4</ele>
        <time>2021-07-31T09:57:27Z</time>
      </trkpt>
      <trkpt lat="48.68145" lon="6.94308">
        <ele>265.4</ele>
        <time>2021-07-31T09:57:28Z</time>
      </trkpt>
      <trkpt lat="48.68144" lon="6.94321">
        <ele>265.4</ele>
        <time>2021-07-31T09:57:30Z</time>
      </trkpt>
      <trkpt lat="48.68143" lon="6.94333">
        <ele>265.4</ele>
        <time>2021-07-31T09:57:32Z</time>
      </trkpt>
      <trkpt lat="48.68143" lon="6.94338">
        <ele>265.4</ele>
        <time>2021-07-31T09:57:33Z</time>
      </trkpt>
      <trkpt lat="48.68142" lon="6.94343">
        <ele>265.4</ele>
        <time>2021-07-31T09:57:34Z</time>
      </trkpt>
      <trkpt lat="48.68141" lon="6.94355">
        <ele>265.4</ele>
        <time>2021-07-31T09:57:36Z</time>
      </trkpt>
      <trkpt lat="48.6814" lon="6.94364">
        <ele>265.4</ele>
        <time>2021-07-31T09:57:37Z</time>
      </trkpt>
      <trkpt lat="48.68139" lon="6.94371">
        <ele>265.4</ele>
        <time>2021-07-31T09:57:38Z</time>
      </trkpt>
      <trkpt lat="48.68138" lon="6.94386">
        <ele>265.4</ele>
        <time>2021-07-31T09:57:40Z</time>
      </trkpt>
      <trkpt lat="48.68138" lon="6.94395">
        <ele>265.4</ele>
        <time>2021-07-31T09:57:41Z</time>
      </trkpt>
      <trkpt lat="48.68137" lon="6.94411">
        <ele>265.4</ele>
        <time>2021-07-31T09:57:43Z</time>
      </trkpt>
      <trkpt lat="48.68136" lon="6.94418">
        <ele>265.4</ele>
        <time>2021-07-31T09:57:44Z</time>
      </trkpt>
      <trkpt lat="48.68135" lon="6.94423">
        <ele>265.4</ele>
        <time>2021-07-31T09:57:46Z</time>
      </trkpt>
      <trkpt lat="48.68136" lon="6.94427">
        <ele>265.4</ele>
        <time>2021-07-31T09:57:47Z</time>
      </trkpt>
      <trkpt lat="48.68136" lon="6.94435">
        <ele>265.4</ele>
        <time>2021-07-31T09:57:48Z</time>
      </trkpt>
      <trkpt lat="48.68135" lon="6.94449">
        <ele>265.4</ele>
        <time>2021-07-31T09:57:50Z</time>
      </trkpt>
      <trkpt lat="48.68135" lon="6.94464">
        <ele>265.4</ele>
        <time>2021-07-31T09:57:52Z</time>
      </trkpt>
      <trkpt lat="48.68134" lon="6.94476">
        <ele>265.4</ele>
        <time>2021-07-31T09:57:54Z</time>
      </trkpt>
      <trkpt lat="48.68134" lon="6.94486">
        <ele>265.4</ele>
        <time>2021-07-31T09:57:55Z</time>
      </trkpt>
      <trkpt lat="48.68134" lon="6.94492">
        <ele>265.4</ele>
        <time>2021-07-31T09:57:56Z</time>
      </trkpt>
      <trkpt lat="48.68134" lon="6.9451">
        <ele>265.4</ele>
        <time>2021-07-31T09:57:58Z</time>
      </trkpt>
      <trkpt lat="48.68134" lon="6.94517">
        <ele>265.4</ele>
        <time>2021-07-31T09:57:59Z</time>
      </trkpt>
      <trkpt lat="48.68133" lon="6.94524">
        <ele>265.5</ele>
        <time>2021-07-31T09:58:00Z</time>
      </trkpt>
      <trkpt lat="48.68133" lon="6.94538">
        <ele>265.5</ele>
        <time>2021-07-31T09:58:02Z</time>
      </trkpt>
      <trkpt lat="48.68134" lon="6.94544">
        <ele>265.6</ele>
        <time>2021-07-31T09:58:03Z</time>
      </trkpt>
      <trkpt lat="48.68133" lon="6.94553">
        <ele>265.6</ele>
        <time>2021-07-31T09:58:05Z</time>
      </trkpt>
      <trkpt lat="48.68132" lon="6.94559">
        <ele>265.7</ele>
        <time>2021-07-31T09:58:06Z</time>
      </trkpt>
      <trkpt lat="48.68132" lon="6.94571">
        <ele>265.7</ele>
        <time>2021-07-31T09:58:08Z</time>
      </trkpt>
      <trkpt lat="48.68131" lon="6.94579">
        <ele>265.7</ele>
        <time>2021-07-31T09:58:10Z</time>
      </trkpt>
      <trkpt lat="48.68131" lon="6.94585">
        <ele>265.8</ele>
        <time>2021-07-31T09:58:11Z</time>
      </trkpt>
      <trkpt lat="48.68131" lon="6.94586">
        <ele>265.8</ele>
        <time>2021-07-31T09:58:12Z</time>
      </trkpt>
      <trkpt lat="48.6813" lon="6.94593">
        <ele>265.8</ele>
        <time>2021-07-31T09:58:14Z</time>
      </trkpt>
      <trkpt lat="48.68131" lon="6.94595">
        <ele>265.8</ele>
        <time>2021-07-31T09:58:16Z</time>
      </trkpt>
      <trkpt lat="48.68131" lon="6.94597">
        <ele>265.8</ele>
        <time>2021-07-31T09:58:17Z</time>
      </trkpt>
      <trkpt lat="48.68131" lon="6.946">
        <ele>265.8</ele>
        <time>2021-07-31T09:58:18Z</time>
      </trkpt>
      <trkpt lat="48.68131" lon="6.94603">
        <ele>265.8</ele>
        <time>2021-07-31T09:58:19Z</time>
      </trkpt>
      <trkpt lat="48.68131" lon="6.94605">
        <ele>265.9</ele>
        <time>2021-07-31T09:58:20Z</time>
      </trkpt>
      <trkpt lat="48.68133" lon="6.94611">
        <ele>265.9</ele>
        <time>2021-07-31T09:58:22Z</time>
      </trkpt>
      <trkpt lat="48.68135" lon="6.94616">
        <ele>265.9</ele>
        <time>2021-07-31T09:58:23Z</time>
      </trkpt>
      <trkpt lat="48.68135" lon="6.94618">
        <ele>265.9</ele>
        <time>2021-07-31T09:58:24Z</time>
      </trkpt>
      <trkpt lat="48.68136" lon="6.94623">
        <ele>266</ele>
        <time>2021-07-31T09:58:25Z</time>
      </trkpt>
      <trkpt lat="48.68138" lon="6.94629">
        <ele>266</ele>
        <time>2021-07-31T09:58:26Z</time>
      </trkpt>
      <trkpt lat="48.68141" lon="6.94639">
        <ele>266.1</ele>
        <time>2021-07-31T09:58:28Z</time>
      </trkpt>
      <trkpt lat="48.68144" lon="6.94649">
        <ele>266.1</ele>
        <time>2021-07-31T09:58:29Z</time>
      </trkpt>
      <trkpt lat="48.68145" lon="6.94655">
        <ele>266.1</ele>
        <time>2021-07-31T09:58:30Z</time>
      </trkpt>
      <trkpt lat="48.68147" lon="6.94669">
        <ele>266.1</ele>
        <time>2021-07-31T09:58:32Z</time>
      </trkpt>
      <trkpt lat="48.68148" lon="6.94677">
        <ele>266.1</ele>
        <time>2021-07-31T09:58:33Z</time>
      </trkpt>
      <trkpt lat="48.68149" lon="6.94684">
        <ele>266.1</ele>
        <time>2021-07-31T09:58:34Z</time>
      </trkpt>
      <trkpt lat="48.6815" lon="6.94691">
        <ele>266.1</ele>
        <time>2021-07-31T09:58:35Z</time>
      </trkpt>
      <trkpt lat="48.68151" lon="6.94706">
        <ele>266.1</ele>
        <time>2021-07-31T09:58:37Z</time>
      </trkpt>
      <trkpt lat="48.68149" lon="6.94718">
        <ele>266.1</ele>
        <time>2021-07-31T09:58:38Z</time>
      </trkpt>
      <trkpt lat="48.68151" lon="6.94731">
        <ele>266.1</ele>
        <time>2021-07-31T09:58:40Z</time>
      </trkpt>
      <trkpt lat="48.68154" lon="6.94736">
        <ele>266.1</ele>
        <time>2021-07-31T09:58:41Z</time>
      </trkpt>
      <trkpt lat="48.68154" lon="6.94751">
        <ele>266.1</ele>
        <time>2021-07-31T09:58:43Z</time>
      </trkpt>
      <trkpt lat="48.68154" lon="6.94758">
        <ele>266</ele>
        <time>2021-07-31T09:58:44Z</time>
      </trkpt>
      <trkpt lat="48.68156" lon="6.9477">
        <ele>266</ele>
        <time>2021-07-31T09:58:46Z</time>
      </trkpt>
      <trkpt lat="48.68157" lon="6.94775">
        <ele>266</ele>
        <time>2021-07-31T09:58:47Z</time>
      </trkpt>
      <trkpt lat="48.68158" lon="6.94781">
        <ele>266.1</ele>
        <time>2021-07-31T09:58:48Z</time>
      </trkpt>
      <trkpt lat="48.6816" lon="6.94791">
        <ele>266.1</ele>
        <time>2021-07-31T09:58:50Z</time>
      </trkpt>
      <trkpt lat="48.68162" lon="6.94798">
        <ele>266.1</ele>
        <time>2021-07-31T09:58:51Z</time>
      </trkpt>
      <trkpt lat="48.68167" lon="6.94808">
        <ele>266.1</ele>
        <time>2021-07-31T09:58:53Z</time>
      </trkpt>
      <trkpt lat="48.68169" lon="6.94814">
        <ele>266.1</ele>
        <time>2021-07-31T09:58:54Z</time>
      </trkpt>
      <trkpt lat="48.68174" lon="6.94827">
        <ele>266.1</ele>
        <time>2021-07-31T09:58:56Z</time>
      </trkpt>
      <trkpt lat="48.68176" lon="6.94838">
        <ele>266.1</ele>
        <time>2021-07-31T09:58:57Z</time>
      </trkpt>
      <trkpt lat="48.6818" lon="6.94848">
        <ele>266.1</ele>
        <time>2021-07-31T09:58:59Z</time>
      </trkpt>
      <trkpt lat="48.68183" lon="6.94854">
        <ele>266.1</ele>
        <time>2021-07-31T09:59:00Z</time>
      </trkpt>
      <trkpt lat="48.68188" lon="6.94862">
        <ele>266.1</ele>
        <time>2021-07-31T09:59:01Z</time>
      </trkpt>
      <trkpt lat="48.68193" lon="6.9487">
        <ele>266.1</ele>
        <time>2021-07-31T09:59:03Z</time>
      </trkpt>
      <trkpt lat="48.68199" lon="6.94882">
        <ele>266.1</ele>
        <time>2021-07-31T09:59:05Z</time>
      </trkpt>
      <trkpt lat="48.68201" lon="6.94895">
        <ele>266.1</ele>
        <time>2021-07-31T09:59:06Z</time>
      </trkpt>
      <trkpt lat="48.68205" lon="6.94902">
        <ele>266.1</ele>
        <time>2021-07-31T09:59:07Z</time>
      </trkpt>
      <trkpt lat="48.6821" lon="6.94909">
        <ele>266.1</ele>
        <time>2021-07-31T09:59:09Z</time>
      </trkpt>
      <trkpt lat="48.68216" lon="6.94918">
        <ele>266.1</ele>
        <time>2021-07-31T09:59:11Z</time>
      </trkpt>
      <trkpt lat="48.68222" lon="6.94927">
        <ele>266.1</ele>
        <time>2021-07-31T09:59:13Z</time>
      </trkpt>
      <trkpt lat="48.68226" lon="6.94932">
        <ele>266.1</ele>
        <time>2021-07-31T09:59:14Z</time>
      </trkpt>
      <trkpt lat="48.68232" lon="6.94942">
        <ele>266</ele>
        <time>2021-07-31T09:59:16Z</time>
      </trkpt>
      <trkpt lat="48.68234" lon="6.94951">
        <ele>266</ele>
        <time>2021-07-31T09:59:17Z</time>
      </trkpt>
      <trkpt lat="48.68238" lon="6.94956">
        <ele>266</ele>
        <time>2021-07-31T09:59:18Z</time>
      </trkpt>
      <trkpt lat="48.68238" lon="6.94966">
        <ele>266</ele>
        <time>2021-07-31T09:59:20Z</time>
      </trkpt>
      <trkpt lat="48.68248" lon="6.94978">
        <ele>266</ele>
        <time>2021-07-31T09:59:22Z</time>
      </trkpt>
      <trkpt lat="48.68258" lon="6.94981">
        <ele>266</ele>
        <time>2021-07-31T09:59:24Z</time>
      </trkpt>
      <trkpt lat="48.68265" lon="6.94991">
        <ele>265.9</ele>
        <time>2021-07-31T09:59:26Z</time>
      </trkpt>
      <trkpt lat="48.68267" lon="6.94996">
        <ele>265.9</ele>
        <time>2021-07-31T09:59:27Z</time>
      </trkpt>
      <trkpt lat="48.68274" lon="6.95005">
        <ele>265.9</ele>
        <time>2021-07-31T09:59:29Z</time>
      </trkpt>
      <trkpt lat="48.68282" lon="6.95016">
        <ele>265.9</ele>
        <time>2021-07-31T09:59:31Z</time>
      </trkpt>
      <trkpt lat="48.68285" lon="6.95022">
        <ele>265.9</ele>
        <time>2021-07-31T09:59:32Z</time>
      </trkpt>
      <trkpt lat="48.68291" lon="6.95033">
        <ele>265.8</ele>
        <time>2021-07-31T09:59:34Z</time>
      </trkpt>
      <trkpt lat="48.68295" lon="6.95038">
        <ele>265.8</ele>
        <time>2021-07-31T09:59:35Z</time>
      </trkpt>
      <trkpt lat="48.683" lon="6.9505">
        <ele>265.8</ele>
        <time>2021-07-31T09:59:37Z</time>
      </trkpt>
      <trkpt lat="48.68305" lon="6.95054">
        <ele>265.8</ele>
        <time>2021-07-31T09:59:39Z</time>
      </trkpt>
      <trkpt lat="48.68308" lon="6.95061">
        <ele>265.9</ele>
        <time>2021-07-31T09:59:40Z</time>
      </trkpt>
      <trkpt lat="48.68316" lon="6.95074">
        <ele>265.9</ele>
        <time>2021-07-31T09:59:42Z</time>
      </trkpt>
      <trkpt lat="48.68323" lon="6.95087">
        <ele>265.9</ele>
        <time>2021-07-31T09:59:44Z</time>
      </trkpt>
      <trkpt lat="48.68327" lon="6.95092">
        <ele>265.9</ele>
        <time>2021-07-31T09:59:45Z</time>
      </trkpt>
      <trkpt lat="48.68333" lon="6.95102">
        <ele>266</ele>
        <time>2021-07-31T09:59:47Z</time>
      </trkpt>
      <trkpt lat="48.68339" lon="6.95109">
        <ele>266</ele>
        <time>2021-07-31T09:59:49Z</time>
      </trkpt>
      <trkpt lat="48.68345" lon="6.95117">
        <ele>266</ele>
        <time>2021-07-31T09:59:51Z</time>
      </trkpt>
      <trkpt lat="48.68349" lon="6.95124">
        <ele>266</ele>
        <time>2021-07-31T09:59:52Z</time>
      </trkpt>
      <trkpt lat="48.68353" lon="6.9513">
        <ele>266</ele>
        <time>2021-07-31T09:59:53Z</time>
      </trkpt>
      <trkpt lat="48.68356" lon="6.95135">
        <ele>266</ele>
        <time>2021-07-31T09:59:54Z</time>
      </trkpt>
      <trkpt lat="48.68363" lon="6.95143">
        <ele>266.1</ele>
        <time>2021-07-31T09:59:56Z</time>
      </trkpt>
      <trkpt lat="48.6837" lon="6.95154">
        <ele>266.1</ele>
        <time>2021-07-31T09:59:58Z</time>
      </trkpt>
      <trkpt lat="48.68373" lon="6.95159">
        <ele>266.1</ele>
        <time>2021-07-31T09:59:59Z</time>
      </trkpt>
      <trkpt lat="48.68377" lon="6.95163">
        <ele>266.1</ele>
        <time>2021-07-31T10:00:00Z</time>
      </trkpt>
      <trkpt lat="48.68383" lon="6.95173">
        <ele>266.1</ele>
        <time>2021-07-31T10:00:02Z</time>
      </trkpt>
      <trkpt lat="48.6839" lon="6.9518">
        <ele>266.1</ele>
        <time>2021-07-31T10:00:04Z</time>
      </trkpt>
      <trkpt lat="48.68396" lon="6.95189">
        <ele>266.1</ele>
        <time>2021-07-31T10:00:06Z</time>
      </trkpt>
      <trkpt lat="48.684" lon="6.95193">
        <ele>266.1</ele>
        <time>2021-07-31T10:00:07Z</time>
      </trkpt>
      <trkpt lat="48.68403" lon="6.95196">
        <ele>266.1</ele>
        <time>2021-07-31T10:00:09Z</time>
      </trkpt>
      <trkpt lat="48.68408" lon="6.95203">
        <ele>266.1</ele>
        <time>2021-07-31T10:00:10Z</time>
      </trkpt>
      <trkpt lat="48.68409" lon="6.95207">
        <ele>266.1</ele>
        <time>2021-07-31T10:00:11Z</time>
      </trkpt>
      <trkpt lat="48.68409" lon="6.95208">
        <ele>266.1</ele>
        <time>2021-07-31T10:00:12Z</time>
      </trkpt>
      <trkpt lat="48.68417" lon="6.95214">
        <ele>266.1</ele>
        <time>2021-07-31T10:00:13Z</time>
      </trkpt>
      <trkpt lat="48.68425" lon="6.95223">
        <ele>266.2</ele>
        <time>2021-07-31T10:00:15Z</time>
      </trkpt>
      <trkpt lat="48.68428" lon="6.95224">
        <ele>266.2</ele>
        <time>2021-07-31T10:00:16Z</time>
      </trkpt>
      <trkpt lat="48.68432" lon="6.95229">
        <ele>266.2</ele>
        <time>2021-07-31T10:00:17Z</time>
      </trkpt>
      <trkpt lat="48.68439" lon="6.95238">
        <ele>266.2</ele>
        <time>2021-07-31T10:00:19Z</time>
      </trkpt>
      <trkpt lat="48.68442" lon="6.95243">
        <ele>266.3</ele>
        <time>2021-07-31T10:00:20Z</time>
      </trkpt>
      <trkpt lat="48.68448" lon="6.95254">
        <ele>266.3</ele>
        <time>2021-07-31T10:00:22Z</time>
      </trkpt>
      <trkpt lat="48.68451" lon="6.95255">
        <ele>266.3</ele>
        <time>2021-07-31T10:00:23Z</time>
      </trkpt>
      <trkpt lat="48.68455" lon="6.95257">
        <ele>266.4</ele>
        <time>2021-07-31T10:00:24Z</time>
      </trkpt>
      <trkpt lat="48.68463" lon="6.9527">
        <ele>266.4</ele>
        <time>2021-07-31T10:00:26Z</time>
      </trkpt>
      <trkpt lat="48.68467" lon="6.95276">
        <ele>266.4</ele>
        <time>2021-07-31T10:00:27Z</time>
      </trkpt>
      <trkpt lat="48.6847" lon="6.95281">
        <ele>266.5</ele>
        <time>2021-07-31T10:00:28Z</time>
      </trkpt>
      <trkpt lat="48.68478" lon="6.95293">
        <ele>266.5</ele>
        <time>2021-07-31T10:00:30Z</time>
      </trkpt>
      <trkpt lat="48.68487" lon="6.95303">
        <ele>266.6</ele>
        <time>2021-07-31T10:00:32Z</time>
      </trkpt>
      <trkpt lat="48.68496" lon="6.95312">
        <ele>266.7</ele>
        <time>2021-07-31T10:00:34Z</time>
      </trkpt>
      <trkpt lat="48.685" lon="6.95315">
        <ele>266.8</ele>
        <time>2021-07-31T10:00:35Z</time>
      </trkpt>
      <trkpt lat="48.68508" lon="6.95316">
        <ele>266.9</ele>
        <time>2021-07-31T10:00:37Z</time>
      </trkpt>
      <trkpt lat="48.6851" lon="6.95314">
        <ele>267</ele>
        <time>2021-07-31T10:00:38Z</time>
      </trkpt>
      <trkpt lat="48.68513" lon="6.95312">
        <ele>267</ele>
        <time>2021-07-31T10:00:39Z</time>
      </trkpt>
      <trkpt lat="48.68517" lon="6.95309">
        <ele>267.1</ele>
        <time>2021-07-31T10:00:41Z</time>
      </trkpt>
      <trkpt lat="48.68516" lon="6.9531">
        <ele>268.3</ele>
        <time>2021-07-31T10:00:43Z</time>
      </trkpt>
      <trkpt lat="48.68517" lon="6.95311">
        <ele>268.4</ele>
        <time>2021-07-31T10:00:44Z</time>
      </trkpt>
      <trkpt lat="48.68519" lon="6.95311">
        <ele>268.4</ele>
        <time>2021-07-31T10:00:45Z</time>
      </trkpt>
      <trkpt lat="48.68519" lon="6.95312">
        <ele>268.4</ele>
        <time>2021-07-31T10:00:46Z</time>
      </trkpt>
      <trkpt lat="48.68518" lon="6.95313">
        <ele>268.4</ele>
        <time>2021-07-31T10:00:48Z</time>
      </trkpt>
      <trkpt lat="48.68517" lon="6.95314">
        <ele>268.4</ele>
        <time>2021-07-31T10:00:49Z</time>
      </trkpt>
      <trkpt lat="48.68516" lon="6.95315">
        <ele>268.5</ele>
        <time>2021-07-31T10:00:50Z</time>
      </trkpt>
      <trkpt lat="48.68513" lon="6.95317">
        <ele>268.5</ele>
        <time>2021-07-31T10:00:51Z</time>
      </trkpt>
      <trkpt lat="48.68513" lon="6.95318">
        <ele>268.5</ele>
        <time>2021-07-31T10:00:52Z</time>
      </trkpt>
      <trkpt lat="48.68511" lon="6.9532">
        <ele>268.6</ele>
        <time>2021-07-31T10:00:53Z</time>
      </trkpt>
      <trkpt lat="48.68511" lon="6.95323">
        <ele>268.6</ele>
        <time>2021-07-31T10:00:54Z</time>
      </trkpt>
      <trkpt lat="48.68509" lon="6.95325">
        <ele>268.6</ele>
        <time>2021-07-31T10:00:55Z</time>
      </trkpt>
      <trkpt lat="48.68508" lon="6.95328">
        <ele>268.6</ele>
        <time>2021-07-31T10:00:57Z</time>
      </trkpt>
      <trkpt lat="48.68506" lon="6.95332">
        <ele>268.6</ele>
        <time>2021-07-31T10:00:58Z</time>
      </trkpt>
      <trkpt lat="48.68505" lon="6.95333">
        <ele>268.6</ele>
        <time>2021-07-31T10:00:59Z</time>
      </trkpt>
      <trkpt lat="48.68503" lon="6.95336">
        <ele>268.6</ele>
        <time>2021-07-31T10:01:00Z</time>
      </trkpt>
      <trkpt lat="48.68503" lon="6.95337">
        <ele>268.6</ele>
        <time>2021-07-31T10:01:01Z</time>
      </trkpt>
      <trkpt lat="48.68501" lon="6.95341">
        <ele>268.6</ele>
        <time>2021-07-31T10:01:02Z</time>
      </trkpt>
      <trkpt lat="48.68501" lon="6.95343">
        <ele>268.6</ele>
        <time>2021-07-31T10:01:03Z</time>
      </trkpt>
      <trkpt lat="48.68499" lon="6.9535">
        <ele>268.5</ele>
        <time>2021-07-31T10:01:05Z</time>
      </trkpt>
      <trkpt lat="48.68497" lon="6.95352">
        <ele>268.5</ele>
        <time>2021-07-31T10:01:06Z</time>
      </trkpt>
      <trkpt lat="48.68494" lon="6.95357">
        <ele>268.4</ele>
        <time>2021-07-31T10:01:08Z</time>
      </trkpt>
      <trkpt lat="48.68491" lon="6.9536">
        <ele>268.3</ele>
        <time>2021-07-31T10:01:10Z</time>
      </trkpt>
      <trkpt lat="48.6849" lon="6.95361">
        <ele>268.3</ele>
        <time>2021-07-31T10:01:11Z</time>
      </trkpt>
      <trkpt lat="48.68489" lon="6.95362">
        <ele>268.2</ele>
        <time>2021-07-31T10:01:12Z</time>
      </trkpt>
      <trkpt lat="48.68486" lon="6.95365">
        <ele>268.1</ele>
        <time>2021-07-31T10:01:14Z</time>
      </trkpt>
      <trkpt lat="48.68485" lon="6.9537">
        <ele>268</ele>
        <time>2021-07-31T10:01:15Z</time>
      </trkpt>
      <trkpt lat="48.68484" lon="6.95371">
        <ele>268</ele>
        <time>2021-07-31T10:01:16Z</time>
      </trkpt>
      <trkpt lat="48.68483" lon="6.95375">
        <ele>267.9</ele>
        <time>2021-07-31T10:01:17Z</time>
      </trkpt>
      <trkpt lat="48.68482" lon="6.95376">
        <ele>267.8</ele>
        <time>2021-07-31T10:01:18Z</time>
      </trkpt>
      <trkpt lat="48.68478" lon="6.95381">
        <ele>267.7</ele>
        <time>2021-07-31T10:01:20Z</time>
      </trkpt>
      <trkpt lat="48.68476" lon="6.95386">
        <ele>267.9</ele>
        <time>2021-07-31T10:01:21Z</time>
      </trkpt>
      <trkpt lat="48.68474" lon="6.95391">
        <ele>268</ele>
        <time>2021-07-31T10:01:22Z</time>
      </trkpt>
      <trkpt lat="48.68472" lon="6.95395">
        <ele>268.2</ele>
        <time>2021-07-31T10:01:24Z</time>
      </trkpt>
      <trkpt lat="48.68469" lon="6.95399">
        <ele>268.4</ele>
        <time>2021-07-31T10:01:25Z</time>
      </trkpt>
      <trkpt lat="48.68467" lon="6.95404">
        <ele>268.5</ele>
        <time>2021-07-31T10:01:26Z</time>
      </trkpt>
      <trkpt lat="48.68464" lon="6.95407">
        <ele>268.7</ele>
        <time>2021-07-31T10:01:27Z</time>
      </trkpt>
      <trkpt lat="48.68461" lon="6.9541">
        <ele>268.9</ele>
        <time>2021-07-31T10:01:28Z</time>
      </trkpt>
      <trkpt lat="48.68458" lon="6.95413">
        <ele>269.1</ele>
        <time>2021-07-31T10:01:29Z</time>
      </trkpt>
      <trkpt lat="48.68456" lon="6.95416">
        <ele>269.3</ele>
        <time>2021-07-31T10:01:30Z</time>
      </trkpt>
      <trkpt lat="48.68454" lon="6.95419">
        <ele>269.5</ele>
        <time>2021-07-31T10:01:31Z</time>
      </trkpt>
      <trkpt lat="48.68452" lon="6.95421">
        <ele>269.7</ele>
        <time>2021-07-31T10:01:33Z</time>
      </trkpt>
      <trkpt lat="48.6845" lon="6.95424">
        <ele>269.9</ele>
        <time>2021-07-31T10:01:34Z</time>
      </trkpt>
      <trkpt lat="48.68449" lon="6.95425">
        <ele>270</ele>
        <time>2021-07-31T10:01:35Z</time>
      </trkpt>
      <trkpt lat="48.68448" lon="6.95426">
        <ele>270.1</ele>
        <time>2021-07-31T10:01:36Z</time>
      </trkpt>
      <trkpt lat="48.68446" lon="6.95427">
        <ele>270.2</ele>
        <time>2021-07-31T10:01:37Z</time>
      </trkpt>
      <trkpt lat="48.68445" lon="6.9543">
        <ele>270.4</ele>
        <time>2021-07-31T10:01:39Z</time>
      </trkpt>
      <trkpt lat="48.68442" lon="6.95431">
        <ele>270.6</ele>
        <time>2021-07-31T10:01:41Z</time>
      </trkpt>
      <trkpt lat="48.6844" lon="6.95432">
        <ele>270.7</ele>
        <time>2021-07-31T10:01:43Z</time>
      </trkpt>
      <trkpt lat="48.6844" lon="6.95433">
        <ele>270.8</ele>
        <time>2021-07-31T10:01:44Z</time>
      </trkpt>
      <trkpt lat="48.68439" lon="6.95435">
        <ele>270.9</ele>
        <time>2021-07-31T10:01:45Z</time>
      </trkpt>
      <trkpt lat="48.68438" lon="6.95437">
        <ele>271</ele>
        <time>2021-07-31T10:01:47Z</time>
      </trkpt>
      <trkpt lat="48.68438" lon="6.95438">
        <ele>271.1</ele>
        <time>2021-07-31T10:01:48Z</time>
      </trkpt>
      <trkpt lat="48.68436" lon="6.9544">
        <ele>271.2</ele>
        <time>2021-07-31T10:01:49Z</time>
      </trkpt>
      <trkpt lat="48.68435" lon="6.95441">
        <ele>271.3</ele>
        <time>2021-07-31T10:01:50Z</time>
      </trkpt>
      <trkpt lat="48.68433" lon="6.95442">
        <ele>271.5</ele>
        <time>2021-07-31T10:01:51Z</time>
      </trkpt>
      <trkpt lat="48.68432" lon="6.95443">
        <ele>271.6</ele>
        <time>2021-07-31T10:01:53Z</time>
      </trkpt>
      <trkpt lat="48.68431" lon="6.95444">
        <ele>271.7</ele>
        <time>2021-07-31T10:01:54Z</time>
      </trkpt>
      <trkpt lat="48.6843" lon="6.95444">
        <ele>271.8</ele>
        <time>2021-07-31T10:01:55Z</time>
      </trkpt>
      <trkpt lat="48.68429" lon="6.95445">
        <ele>271.9</ele>
        <time>2021-07-31T10:01:56Z</time>
      </trkpt>
      <trkpt lat="48.68428" lon="6.95447">
        <ele>272</ele>
        <time>2021-07-31T10:01:57Z</time>
      </trkpt>
      <trkpt lat="48.68426" lon="6.95449">
        <ele>272.3</ele>
        <time>2021-07-31T10:01:59Z</time>
      </trkpt>
      <trkpt lat="48.68424" lon="6.9545">
        <ele>272.5</ele>
        <time>2021-07-31T10:02:00Z</time>
      </trkpt>
      <trkpt lat="48.68423" lon="6.95451">
        <ele>272.6</ele>
        <time>2021-07-31T10:02:01Z</time>
      </trkpt>
      <trkpt lat="48.6842" lon="6.95452">
        <ele>272.9</ele>
        <time>2021-07-31T10:02:03Z</time>
      </trkpt>
      <trkpt lat="48.6842" lon="6.95452">
        <ele>273</ele>
        <time>2021-07-31T10:02:04Z</time>
      </trkpt>
      <trkpt lat="48.68419" lon="6.95453">
        <ele>273.1</ele>
        <time>2021-07-31T10:02:05Z</time>
      </trkpt>
      <trkpt lat="48.68419" lon="6.95453">
        <ele>273.1</ele>
        <time>2021-07-31T10:02:06Z</time>
      </trkpt>
      <trkpt lat="48.68417" lon="6.95454">
        <ele>273.3</ele>
        <time>2021-07-31T10:02:08Z</time>
      </trkpt>
      <trkpt lat="48.68415" lon="6.95454">
        <ele>273.5</ele>
        <time>2021-07-31T10:02:09Z</time>
      </trkpt>
      <trkpt lat="48.68413" lon="6.95454">
        <ele>273.7</ele>
        <time>2021-07-31T10:02:10Z</time>
      </trkpt>
      <trkpt lat="48.68411" lon="6.95455">
        <ele>274</ele>
        <time>2021-07-31T10:02:11Z</time>
      </trkpt>
      <trkpt lat="48.6841" lon="6.95456">
        <ele>274.1</ele>
        <time>2021-07-31T10:02:13Z</time>
      </trkpt>
      <trkpt lat="48.68409" lon="6.95457">
        <ele>274.2</ele>
        <time>2021-07-31T10:02:14Z</time>
      </trkpt>
      <trkpt lat="48.68408" lon="6.95457">
        <ele>274.3</ele>
        <time>2021-07-31T10:02:15Z</time>
      </trkpt>
      <trkpt lat="48.68407" lon="6.95458">
        <ele>274.4</ele>
        <time>2021-07-31T10:02:17Z</time>
      </trkpt>
      <trkpt lat="48.68406" lon="6.9546">
        <ele>274.7</ele>
        <time>2021-07-31T10:02:19Z</time>
      </trkpt>
      <trkpt lat="48.68405" lon="6.95461">
        <ele>274.7</ele>
        <time>2021-07-31T10:02:21Z</time>
      </trkpt>
      <trkpt lat="48.68405" lon="6.95461">
        <ele>274.8</ele>
        <time>2021-07-31T10:02:23Z</time>
      </trkpt>
      <trkpt lat="48.68404" lon="6.95461">
        <ele>274.9</ele>
        <time>2021-07-31T10:02:25Z</time>
      </trkpt>
      <trkpt lat="48.68404" lon="6.95461">
        <ele>274.9</ele>
        <time>2021-07-31T10:02:26Z</time>
      </trkpt>
      <trkpt lat="48.68403" lon="6.95461">
        <ele>275</ele>
        <time>2021-07-31T10:02:28Z</time>
      </trkpt>
      <trkpt lat="48.68402" lon="6.95461">
        <ele>275.1</ele>
        <time>2021-07-31T10:02:29Z</time>
      </trkpt>
      <trkpt lat="48.68401" lon="6.95462">
        <ele>275.2</ele>
        <time>2021-07-31T10:02:30Z</time>
      </trkpt>
      <trkpt lat="48.68399" lon="6.95463">
        <ele>275.4</ele>
        <time>2021-07-31T10:02:31Z</time>
      </trkpt>
      <trkpt lat="48.68391" lon="6.95467">
        <ele>276.2</ele>
        <time>2021-07-31T10:02:35Z</time>
      </trkpt>
      <trkpt lat="48.68388" lon="6.95468">
        <ele>276.5</ele>
        <time>2021-07-31T10:02:36Z</time>
      </trkpt>
      <trkpt lat="48.68387" lon="6.95469">
        <ele>276.6</ele>
        <time>2021-07-31T10:02:37Z</time>
      </trkpt>
      <trkpt lat="48.68384" lon="6.95471">
        <ele>276.9</ele>
        <time>2021-07-31T10:02:39Z</time>
      </trkpt>
      <trkpt lat="48.68383" lon="6.95472">
        <ele>277</ele>
        <time>2021-07-31T10:02:40Z</time>
      </trkpt>
      <trkpt lat="48.68381" lon="6.95475">
        <ele>277.4</ele>
        <time>2021-07-31T10:02:41Z</time>
      </trkpt>
      <trkpt lat="48.6838" lon="6.95476">
        <ele>277.5</ele>
        <time>2021-07-31T10:02:42Z</time>
      </trkpt>
      <trkpt lat="48.68379" lon="6.95477">
        <ele>277.6</ele>
        <time>2021-07-31T10:02:43Z</time>
      </trkpt>
      <trkpt lat="48.68377" lon="6.9548">
        <ele>277.9</ele>
        <time>2021-07-31T10:02:45Z</time>
      </trkpt>
      <trkpt lat="48.68376" lon="6.95481">
        <ele>278.1</ele>
        <time>2021-07-31T10:02:46Z</time>
      </trkpt>
      <trkpt lat="48.68375" lon="6.95483">
        <ele>278.2</ele>
        <time>2021-07-31T10:02:47Z</time>
      </trkpt>
      <trkpt lat="48.68372" lon="6.95485">
        <ele>278.5</ele>
        <time>2021-07-31T10:02:49Z</time>
      </trkpt>
      <trkpt lat="48.68372" lon="6.95486">
        <ele>278.6</ele>
        <time>2021-07-31T10:02:50Z</time>
      </trkpt>
      <trkpt lat="48.68371" lon="6.95486">
        <ele>278.7</ele>
        <time>2021-07-31T10:02:51Z</time>
      </trkpt>
      <trkpt lat="48.68369" lon="6.95487">
        <ele>278.9</ele>
        <time>2021-07-31T10:02:52Z</time>
      </trkpt>
      <trkpt lat="48.68367" lon="6.95488">
        <ele>279.1</ele>
        <time>2021-07-31T10:02:54Z</time>
      </trkpt>
      <trkpt lat="48.68365" lon="6.95488">
        <ele>279.4</ele>
        <time>2021-07-31T10:02:56Z</time>
      </trkpt>
      <trkpt lat="48.68364" lon="6.9549">
        <ele>279.5</ele>
        <time>2021-07-31T10:02:58Z</time>
      </trkpt>
      <trkpt lat="48.68363" lon="6.95491">
        <ele>279.8</ele>
        <time>2021-07-31T10:02:59Z</time>
      </trkpt>
      <trkpt lat="48.6836" lon="6.95492">
        <ele>280.1</ele>
        <time>2021-07-31T10:03:01Z</time>
      </trkpt>
      <trkpt lat="48.68358" lon="6.95493">
        <ele>280.3</ele>
        <time>2021-07-31T10:03:02Z</time>
      </trkpt>
      <trkpt lat="48.68357" lon="6.95493">
        <ele>280.5</ele>
        <time>2021-07-31T10:03:04Z</time>
      </trkpt>
      <trkpt lat="48.68355" lon="6.95492">
        <ele>280.6</ele>
        <time>2021-07-31T10:03:05Z</time>
      </trkpt>
      <trkpt lat="48.68354" lon="6.95491">
        <ele>280.6</ele>
        <time>2021-07-31T10:03:06Z</time>
      </trkpt>
      <trkpt lat="48.6835" lon="6.95489">
        <ele>280.8</ele>
        <time>2021-07-31T10:03:08Z</time>
      </trkpt>
      <trkpt lat="48.68349" lon="6.95488">
        <ele>280.9</ele>
        <time>2021-07-31T10:03:09Z</time>
      </trkpt>
      <trkpt lat="48.68346" lon="6.95486">
        <ele>281</ele>
        <time>2021-07-31T10:03:11Z</time>
      </trkpt>
      <trkpt lat="48.68343" lon="6.95485">
        <ele>281.1</ele>
        <time>2021-07-31T10:03:12Z</time>
      </trkpt>
      <trkpt lat="48.68342" lon="6.95484">
        <ele>281.1</ele>
        <time>2021-07-31T10:03:13Z</time>
      </trkpt>
      <trkpt lat="48.6834" lon="6.95482">
        <ele>281.2</ele>
        <time>2021-07-31T10:03:14Z</time>
      </trkpt>
      <trkpt lat="48.68339" lon="6.95481">
        <ele>281.2</ele>
        <time>2021-07-31T10:03:15Z</time>
      </trkpt>
      <trkpt lat="48.68336" lon="6.95478">
        <ele>281.3</ele>
        <time>2021-07-31T10:03:17Z</time>
      </trkpt>
      <trkpt lat="48.68335" lon="6.95478">
        <ele>281.3</ele>
        <time>2021-07-31T10:03:18Z</time>
      </trkpt>
      <trkpt lat="48.68331" lon="6.95476">
        <ele>281.4</ele>
        <time>2021-07-31T10:03:19Z</time>
      </trkpt>
      <trkpt lat="48.6833" lon="6.95475">
        <ele>281.4</ele>
        <time>2021-07-31T10:03:20Z</time>
      </trkpt>
      <trkpt lat="48.68327" lon="6.95473">
        <ele>281.4</ele>
        <time>2021-07-31T10:03:21Z</time>
      </trkpt>
      <trkpt lat="48.68326" lon="6.95472">
        <ele>281.4</ele>
        <time>2021-07-31T10:03:22Z</time>
      </trkpt>
      <trkpt lat="48.68321" lon="6.95467">
        <ele>281.5</ele>
        <time>2021-07-31T10:03:24Z</time>
      </trkpt>
      <trkpt lat="48.68319" lon="6.95465">
        <ele>281.5</ele>
        <time>2021-07-31T10:03:25Z</time>
      </trkpt>
      <trkpt lat="48.68316" lon="6.95463">
        <ele>281.5</ele>
        <time>2021-07-31T10:03:26Z</time>
      </trkpt>
      <trkpt lat="48.68313" lon="6.9546">
        <ele>281.5</ele>
        <time>2021-07-31T10:03:28Z</time>
      </trkpt>
      <trkpt lat="48.68311" lon="6.95458">
        <ele>281.5</ele>
        <time>2021-07-31T10:03:29Z</time>
      </trkpt>
      <trkpt lat="48.68308" lon="6.95455">
        <ele>281.5</ele>
        <time>2021-07-31T10:03:31Z</time>
      </trkpt>
      <trkpt lat="48.68306" lon="6.95451">
        <ele>281.5</ele>
        <time>2021-07-31T10:03:33Z</time>
      </trkpt>
      <trkpt lat="48.68303" lon="6.95448">
        <ele>281.6</ele>
        <time>2021-07-31T10:03:35Z</time>
      </trkpt>
      <trkpt lat="48.68301" lon="6.95447">
        <ele>281.6</ele>
        <time>2021-07-31T10:03:36Z</time>
      </trkpt>
      <trkpt lat="48.68298" lon="6.95444">
        <ele>281.7</ele>
        <time>2021-07-31T10:03:38Z</time>
      </trkpt>
      <trkpt lat="48.68296" lon="6.95443">
        <ele>281.7</ele>
        <time>2021-07-31T10:03:39Z</time>
      </trkpt>
      <trkpt lat="48.68293" lon="6.95441">
        <ele>281.8</ele>
        <time>2021-07-31T10:03:41Z</time>
      </trkpt>
      <trkpt lat="48.6829" lon="6.95441">
        <ele>281.8</ele>
        <time>2021-07-31T10:03:42Z</time>
      </trkpt>
      <trkpt lat="48.68289" lon="6.9544">
        <ele>281.9</ele>
        <time>2021-07-31T10:03:43Z</time>
      </trkpt>
      <trkpt lat="48.68286" lon="6.95439">
        <ele>282</ele>
        <time>2021-07-31T10:03:45Z</time>
      </trkpt>
      <trkpt lat="48.68285" lon="6.95439">
        <ele>282</ele>
        <time>2021-07-31T10:03:46Z</time>
      </trkpt>
      <trkpt lat="48.68283" lon="6.95439">
        <ele>282</ele>
        <time>2021-07-31T10:03:47Z</time>
      </trkpt>
      <trkpt lat="48.68282" lon="6.95439">
        <ele>282.1</ele>
        <time>2021-07-31T10:03:48Z</time>
      </trkpt>
      <trkpt lat="48.6828" lon="6.9544">
        <ele>282.1</ele>
        <time>2021-07-31T10:03:49Z</time>
      </trkpt>
      <trkpt lat="48.68279" lon="6.95441">
        <ele>282.1</ele>
        <time>2021-07-31T10:03:50Z</time>
      </trkpt>
      <trkpt lat="48.68278" lon="6.95441">
        <ele>282.2</ele>
        <time>2021-07-31T10:03:51Z</time>
      </trkpt>
      <trkpt lat="48.68277" lon="6.95443">
        <ele>282.2</ele>
        <time>2021-07-31T10:03:52Z</time>
      </trkpt>
      <trkpt lat="48.68277" lon="6.95444">
        <ele>282.2</ele>
        <time>2021-07-31T10:03:53Z</time>
      </trkpt>
      <trkpt lat="48.68276" lon="6.95445">
        <ele>282.3</ele>
        <time>2021-07-31T10:03:54Z</time>
      </trkpt>
      <trkpt lat="48.68275" lon="6.95448">
        <ele>282.3</ele>
        <time>2021-07-31T10:03:56Z</time>
      </trkpt>
      <trkpt lat="48.68274" lon="6.95449">
        <ele>282.4</ele>
        <time>2021-07-31T10:03:57Z</time>
      </trkpt>
      <trkpt lat="48.68274" lon="6.9545">
        <ele>282.4</ele>
        <time>2021-07-31T10:03:58Z</time>
      </trkpt>
      <trkpt lat="48.68273" lon="6.95452">
        <ele>282.4</ele>
        <time>2021-07-31T10:03:59Z</time>
      </trkpt>
      <trkpt lat="48.68273" lon="6.95453">
        <ele>282.4</ele>
        <time>2021-07-31T10:04:00Z</time>
      </trkpt>
      <trkpt lat="48.68272" lon="6.95454">
        <ele>282.5</ele>
        <time>2021-07-31T10:04:01Z</time>
      </trkpt>
      <trkpt lat="48.68272" lon="6.95455">
        <ele>282.5</ele>
        <time>2021-07-31T10:04:03Z</time>
      </trkpt>
      <trkpt lat="48.68272" lon="6.95455">
        <ele>282.5</ele>
        <time>2021-07-31T10:04:04Z</time>
      </trkpt>
      <trkpt lat="48.68272" lon="6.95457">
        <ele>282.5</ele>
        <time>2021-07-31T10:04:05Z</time>
      </trkpt>
      <trkpt lat="48.68272" lon="6.95458">
        <ele>282.5</ele>
        <time>2021-07-31T10:04:06Z</time>
      </trkpt>
      <trkpt lat="48.68272" lon="6.95459">
        <ele>282.6</ele>
        <time>2021-07-31T10:04:08Z</time>
      </trkpt>
      <trkpt lat="48.68272" lon="6.95461">
        <ele>282.6</ele>
        <time>2021-07-31T10:04:10Z</time>
      </trkpt>
      <trkpt lat="48.68272" lon="6.95462">
        <ele>282.6</ele>
        <time>2021-07-31T10:04:11Z</time>
      </trkpt>
      <trkpt lat="48.68271" lon="6.95462">
        <ele>282.6</ele>
        <time>2021-07-31T10:04:12Z</time>
      </trkpt>
      <trkpt lat="48.68271" lon="6.95463">
        <ele>282.6</ele>
        <time>2021-07-31T10:04:14Z</time>
      </trkpt>
      <trkpt lat="48.68267" lon="6.95466">
        <ele>282.7</ele>
        <time>2021-07-31T10:13:39Z</time>
      </trkpt>
      <trkpt lat="48.68266" lon="6.95468">
        <ele>282.8</ele>
        <time>2021-07-31T10:13:41Z</time>
      </trkpt>
      <trkpt lat="48.68265" lon="6.9547">
        <ele>282.8</ele>
        <time>2021-07-31T10:13:43Z</time>
      </trkpt>
      <trkpt lat="48.68264" lon="6.95472">
        <ele>282.8</ele>
        <time>2021-07-31T10:13:44Z</time>
      </trkpt>
      <trkpt lat="48.68263" lon="6.95474">
        <ele>282.9</ele>
        <time>2021-07-31T10:13:46Z</time>
      </trkpt>
      <trkpt lat="48.68263" lon="6.95477">
        <ele>282.9</ele>
        <time>2021-07-31T10:13:47Z</time>
      </trkpt>
      <trkpt lat="48.68263" lon="6.95479">
        <ele>282.9</ele>
        <time>2021-07-31T10:13:49Z</time>
      </trkpt>
      <trkpt lat="48.68262" lon="6.9548">
        <ele>282.9</ele>
        <time>2021-07-31T10:13:51Z</time>
      </trkpt>
      <trkpt lat="48.68262" lon="6.95481">
        <ele>282.9</ele>
        <time>2021-07-31T10:13:52Z</time>
      </trkpt>
      <trkpt lat="48.68262" lon="6.95481">
        <ele>282.9</ele>
        <time>2021-07-31T10:13:53Z</time>
      </trkpt>
      <trkpt lat="48.68262" lon="6.95482">
        <ele>282.9</ele>
        <time>2021-07-31T10:13:55Z</time>
      </trkpt>
      <trkpt lat="48.68262" lon="6.95482">
        <ele>283</ele>
        <time>2021-07-31T10:13:57Z</time>
      </trkpt>
      <trkpt lat="48.68262" lon="6.95482">
        <ele>283.2</ele>
        <time>2021-07-31T10:13:59Z</time>
      </trkpt>
      <trkpt lat="48.68261" lon="6.95482">
        <ele>283.2</ele>
        <time>2021-07-31T10:14:00Z</time>
      </trkpt>
      <trkpt lat="48.68261" lon="6.95482">
        <ele>283.2</ele>
        <time>2021-07-31T10:14:01Z</time>
      </trkpt>
      <trkpt lat="48.68261" lon="6.95482">
        <ele>283.2</ele>
        <time>2021-07-31T10:14:03Z</time>
      </trkpt>
      <trkpt lat="48.68261" lon="6.95482">
        <ele>283.2</ele>
        <time>2021-07-31T10:14:04Z</time>
      </trkpt>
      <trkpt lat="48.68261" lon="6.95482">
        <ele>283.2</ele>
        <time>2021-07-31T10:14:06Z</time>
      </trkpt>
      <trkpt lat="48.68261" lon="6.95482">
        <ele>283.2</ele>
        <time>2021-07-31T10:14:07Z</time>
      </trkpt>
      <trkpt lat="48.68261" lon="6.95482">
        <ele>283.2</ele>
        <time>2021-07-31T10:14:08Z</time>
      </trkpt>
      <trkpt lat="48.68261" lon="6.95482">
        <ele>283</ele>
        <time>2021-07-31T10:14:10Z</time>
      </trkpt>
      <trkpt lat="48.68261" lon="6.95481">
        <ele>283</ele>
        <time>2021-07-31T10:14:11Z</time>
      </trkpt>
      <trkpt lat="48.68261" lon="6.9548">
        <ele>283</ele>
        <time>2021-07-31T10:14:12Z</time>
      </trkpt>
      <trkpt lat="48.68261" lon="6.95479">
        <ele>283.1</ele>
        <time>2021-07-31T10:14:14Z</time>
      </trkpt>
      <trkpt lat="48.68261" lon="6.95478">
        <ele>283.1</ele>
        <time>2021-07-31T10:14:16Z</time>
      </trkpt>
      <trkpt lat="48.68261" lon="6.95478">
        <ele>283.1</ele>
        <time>2021-07-31T10:14:18Z</time>
      </trkpt>
      <trkpt lat="48.68261" lon="6.95477">
        <ele>282.9</ele>
        <time>2021-07-31T10:14:19Z</time>
      </trkpt>
      <trkpt lat="48.68261" lon="6.95476">
        <ele>282.9</ele>
        <time>2021-07-31T10:14:20Z</time>
      </trkpt>
      <trkpt lat="48.68261" lon="6.95474">
        <ele>282.9</ele>
        <time>2021-07-31T10:14:22Z</time>
      </trkpt>
      <trkpt lat="48.68261" lon="6.95473">
        <ele>282.9</ele>
        <time>2021-07-31T10:14:23Z</time>
      </trkpt>
      <trkpt lat="48.68261" lon="6.95472">
        <ele>282.8</ele>
        <time>2021-07-31T10:14:25Z</time>
      </trkpt>
      <trkpt lat="48.68262" lon="6.95471">
        <ele>282.8</ele>
        <time>2021-07-31T10:14:27Z</time>
      </trkpt>
      <trkpt lat="48.68262" lon="6.95471">
        <ele>282.8</ele>
        <time>2021-07-31T10:14:29Z</time>
      </trkpt>
      <trkpt lat="48.68262" lon="6.95471">
        <ele>282.8</ele>
        <time>2021-07-31T10:14:30Z</time>
      </trkpt>
      <trkpt lat="48.68262" lon="6.9547">
        <ele>282.8</ele>
        <time>2021-07-31T10:14:32Z</time>
      </trkpt>
      <trkpt lat="48.68262" lon="6.9547">
        <ele>282.8</ele>
        <time>2021-07-31T10:14:33Z</time>
      </trkpt>
      <trkpt lat="48.68262" lon="6.9547">
        <ele>282.8</ele>
        <time>2021-07-31T10:14:35Z</time>
      </trkpt>
      <trkpt lat="48.68262" lon="6.95469">
        <ele>282.8</ele>
        <time>2021-07-31T10:14:37Z</time>
      </trkpt>
      <trkpt lat="48.68262" lon="6.95469">
        <ele>282.8</ele>
        <time>2021-07-31T10:14:38Z</time>
      </trkpt>
      <trkpt lat="48.68263" lon="6.95468">
        <ele>282.7</ele>
        <time>2021-07-31T10:14:40Z</time>
      </trkpt>
      <trkpt lat="48.68263" lon="6.95468">
        <ele>282.7</ele>
        <time>2021-07-31T10:14:41Z</time>
      </trkpt>
      <trkpt lat="48.68266" lon="6.9547">
        <ele>282.7</ele>
        <time>2021-07-31T10:14:43Z</time>
      </trkpt>
      <trkpt lat="48.6827" lon="6.95472">
        <ele>282.6</ele>
        <time>2021-07-31T10:14:44Z</time>
      </trkpt>
      <trkpt lat="48.68273" lon="6.95474">
        <ele>282.7</ele>
        <time>2021-07-31T10:14:47Z</time>
      </trkpt>
      <trkpt lat="48.68277" lon="6.95476">
        <ele>282.6</ele>
        <time>2021-07-31T10:14:48Z</time>
      </trkpt>
      <trkpt lat="48.6829" lon="6.95486">
        <ele>282.7</ele>
        <time>2021-07-31T10:14:50Z</time>
      </trkpt>
      <trkpt lat="48.68323" lon="6.955">
        <ele>282.9</ele>
        <time>2021-07-31T10:14:51Z</time>
      </trkpt>
      <trkpt lat="48.68322" lon="6.95497">
        <ele>282.7</ele>
        <time>2021-07-31T10:14:53Z</time>
      </trkpt>
      <trkpt lat="48.68317" lon="6.95486">
        <ele>282.1</ele>
        <time>2021-07-31T10:14:54Z</time>
      </trkpt>
      <trkpt lat="48.68313" lon="6.9548">
        <ele>282.1</ele>
        <time>2021-07-31T10:14:56Z</time>
      </trkpt>
      <trkpt lat="48.68304" lon="6.95476">
        <ele>282.2</ele>
        <time>2021-07-31T10:14:58Z</time>
      </trkpt>
      <trkpt lat="48.68302" lon="6.95475">
        <ele>282.3</ele>
        <time>2021-07-31T10:15:00Z</time>
      </trkpt>
      <trkpt lat="48.68301" lon="6.95475">
        <ele>282.3</ele>
        <time>2021-07-31T10:15:01Z</time>
      </trkpt>
      <trkpt lat="48.68301" lon="6.95475">
        <ele>282.3</ele>
        <time>2021-07-31T10:15:02Z</time>
      </trkpt>
      <trkpt lat="48.68298" lon="6.95471">
        <ele>282.3</ele>
        <time>2021-07-31T10:15:05Z</time>
      </trkpt>
      <trkpt lat="48.68296" lon="6.95469">
        <ele>282.2</ele>
        <time>2021-07-31T10:15:06Z</time>
      </trkpt>
      <trkpt lat="48.68294" lon="6.95467">
        <ele>282.2</ele>
        <time>2021-07-31T10:15:08Z</time>
      </trkpt>
      <trkpt lat="48.6828" lon="6.95456">
        <ele>282.2</ele>
        <time>2021-07-31T10:15:11Z</time>
      </trkpt>
      <trkpt lat="48.68278" lon="6.95455">
        <ele>282.1</ele>
        <time>2021-07-31T10:15:12Z</time>
      </trkpt>
      <trkpt lat="48.68276" lon="6.95454">
        <ele>282.3</ele>
        <time>2021-07-31T10:15:14Z</time>
      </trkpt>
      <trkpt lat="48.68276" lon="6.95454">
        <ele>282.3</ele>
        <time>2021-07-31T10:15:16Z</time>
      </trkpt>
      <trkpt lat="48.68276" lon="6.95454">
        <ele>282.3</ele>
        <time>2021-07-31T10:15:17Z</time>
      </trkpt>
      <trkpt lat="48.68275" lon="6.95454">
        <ele>282.3</ele>
        <time>2021-07-31T10:15:18Z</time>
      </trkpt>
      <trkpt lat="48.68275" lon="6.95454">
        <ele>282.3</ele>
        <time>2021-07-31T10:15:20Z</time>
      </trkpt>
      <trkpt lat="48.68275" lon="6.95454">
        <ele>282.3</ele>
        <time>2021-07-31T10:15:22Z</time>
      </trkpt>
      <trkpt lat="48.68275" lon="6.95454">
        <ele>282.3</ele>
        <time>2021-07-31T10:15:23Z</time>
      </trkpt>
      <trkpt lat="48.68275" lon="6.95454">
        <ele>282.3</ele>
        <time>2021-07-31T10:15:24Z</time>
      </trkpt>
      <trkpt lat="48.68275" lon="6.95454">
        <ele>282.3</ele>
        <time>2021-07-31T10:15:26Z</time>
      </trkpt>
      <trkpt lat="48.68275" lon="6.95454">
        <ele>282.3</ele>
        <time>2021-07-31T10:15:28Z</time>
      </trkpt>
      <trkpt lat="48.68275" lon="6.95454">
        <ele>282.4</ele>
        <time>2021-07-31T10:15:29Z</time>
      </trkpt>
      <trkpt lat="48.68275" lon="6.95454">
        <ele>282.4</ele>
        <time>2021-07-31T10:15:30Z</time>
      </trkpt>
      <trkpt lat="48.68275" lon="6.95454">
        <ele>282.4</ele>
        <time>2021-07-31T10:15:32Z</time>
      </trkpt>
      <trkpt lat="48.68275" lon="6.95454">
        <ele>282.4</ele>
        <time>2021-07-31T10:15:34Z</time>
      </trkpt>
      <trkpt lat="48.68275" lon="6.95454">
        <ele>282.4</ele>
        <time>2021-07-31T10:15:35Z</time>
      </trkpt>
      <trkpt lat="48.68275" lon="6.95454">
        <ele>282.4</ele>
        <time>2021-07-31T10:15:37Z</time>
      </trkpt>
      <trkpt lat="48.68275" lon="6.95454">
        <ele>282.4</ele>
        <time>2021-07-31T10:15:38Z</time>
      </trkpt>
      <trkpt lat="48.68275" lon="6.95454">
        <ele>282.4</ele>
        <time>2021-07-31T10:15:39Z</time>
      </trkpt>
      <trkpt lat="48.68275" lon="6.95453">
        <ele>282.4</ele>
        <time>2021-07-31T10:15:41Z</time>
      </trkpt>
      <trkpt lat="48.68275" lon="6.95451">
        <ele>282.4</ele>
        <time>2021-07-31T10:15:42Z</time>
      </trkpt>
      <trkpt lat="48.68275" lon="6.95449">
        <ele>282.4</ele>
        <time>2021-07-31T10:15:43Z</time>
      </trkpt>
      <trkpt lat="48.68275" lon="6.95445">
        <ele>282.4</ele>
        <time>2021-07-31T10:15:45Z</time>
      </trkpt>
      <trkpt lat="48.68275" lon="6.95443">
        <ele>282.4</ele>
        <time>2021-07-31T10:15:46Z</time>
      </trkpt>
      <trkpt lat="48.68276" lon="6.95441">
        <ele>282.3</ele>
        <time>2021-07-31T10:15:48Z</time>
      </trkpt>
      <trkpt lat="48.68276" lon="6.9544">
        <ele>282.3</ele>
        <time>2021-07-31T10:15:49Z</time>
      </trkpt>
      <trkpt lat="48.68276" lon="6.95439">
        <ele>282.3</ele>
        <time>2021-07-31T10:15:50Z</time>
      </trkpt>
      <trkpt lat="48.68276" lon="6.95438">
        <ele>282.3</ele>
        <time>2021-07-31T10:15:52Z</time>
      </trkpt>
      <trkpt lat="48.68276" lon="6.95437">
        <ele>282.3</ele>
        <time>2021-07-31T10:15:54Z</time>
      </trkpt>
      <trkpt lat="48.68276" lon="6.95436">
        <ele>282.3</ele>
        <time>2021-07-31T10:15:55Z</time>
      </trkpt>
      <trkpt lat="48.68276" lon="6.95436">
        <ele>282.3</ele>
        <time>2021-07-31T10:15:56Z</time>
      </trkpt>
      <trkpt lat="48.68276" lon="6.95436">
        <ele>282.3</ele>
        <time>2021-07-31T10:15:58Z</time>
      </trkpt>
      <trkpt lat="48.68277" lon="6.95435">
        <ele>282.3</ele>
        <time>2021-07-31T10:16:00Z</time>
      </trkpt>
      <trkpt lat="48.68277" lon="6.95433">
        <ele>282.1</ele>
        <time>2021-07-31T10:16:02Z</time>
      </trkpt>
      <trkpt lat="48.68277" lon="6.95433">
        <ele>282.1</ele>
        <time>2021-07-31T10:16:04Z</time>
      </trkpt>
      <trkpt lat="48.68277" lon="6.95432">
        <ele>282.1</ele>
        <time>2021-07-31T10:16:06Z</time>
      </trkpt>
      <trkpt lat="48.68277" lon="6.95432">
        <ele>282.2</ele>
        <time>2021-07-31T10:16:07Z</time>
      </trkpt>
      <trkpt lat="48.68277" lon="6.95432">
        <ele>282.2</ele>
        <time>2021-07-31T10:16:08Z</time>
      </trkpt>
      <trkpt lat="48.68277" lon="6.95432">
        <ele>282.2</ele>
        <time>2021-07-31T10:16:10Z</time>
      </trkpt>
      <trkpt lat="48.68277" lon="6.95432">
        <ele>282.2</ele>
        <time>2021-07-31T10:16:12Z</time>
      </trkpt>
      <trkpt lat="48.68277" lon="6.95432">
        <ele>282.2</ele>
        <time>2021-07-31T10:16:14Z</time>
      </trkpt>
      <trkpt lat="48.68277" lon="6.95431">
        <ele>282.2</ele>
        <time>2021-07-31T10:16:16Z</time>
      </trkpt>
      <trkpt lat="48.68277" lon="6.95431">
        <ele>282.2</ele>
        <time>2021-07-31T10:16:18Z</time>
      </trkpt>
      <trkpt lat="48.68277" lon="6.95431">
        <ele>282.2</ele>
        <time>2021-07-31T10:16:20Z</time>
      </trkpt>
      <trkpt lat="48.68277" lon="6.95431">
        <ele>282.2</ele>
        <time>2021-07-31T10:16:22Z</time>
      </trkpt>
      <trkpt lat="48.68277" lon="6.9543">
        <ele>282.2</ele>
        <time>2021-07-31T10:16:24Z</time>
      </trkpt>
      <trkpt lat="48.68277" lon="6.9543">
        <ele>282.2</ele>
        <time>2021-07-31T10:16:25Z</time>
      </trkpt>
      <trkpt lat="48.68277" lon="6.9543">
        <ele>282.2</ele>
        <time>2021-07-31T10:16:26Z</time>
      </trkpt>
      <trkpt lat="48.68277" lon="6.9543">
        <ele>282.2</ele>
        <time>2021-07-31T10:16:28Z</time>
      </trkpt>
      <trkpt lat="48.68277" lon="6.95429">
        <ele>282.2</ele>
        <time>2021-07-31T10:16:30Z</time>
      </trkpt>
      <trkpt lat="48.68278" lon="6.95429">
        <ele>282.2</ele>
        <time>2021-07-31T10:16:31Z</time>
      </trkpt>
      <trkpt lat="48.68278" lon="6.95429">
        <ele>282.2</ele>
        <time>2021-07-31T10:16:32Z</time>
      </trkpt>
      <trkpt lat="48.68278" lon="6.95429">
        <ele>282.2</ele>
        <time>2021-07-31T10:16:33Z</time>
      </trkpt>
      <trkpt lat="48.68278" lon="6.95428">
        <ele>282.2</ele>
        <time>2021-07-31T10:16:35Z</time>
      </trkpt>
      <trkpt lat="48.68278" lon="6.95428">
        <ele>282.3</ele>
        <time>2021-07-31T10:16:37Z</time>
      </trkpt>
      <trkpt lat="48.68278" lon="6.95428">
        <ele>282.3</ele>
        <time>2021-07-31T10:16:38Z</time>
      </trkpt>
      <trkpt lat="48.68277" lon="6.95428">
        <ele>282.3</ele>
        <time>2021-07-31T10:16:40Z</time>
      </trkpt>
      <trkpt lat="48.68277" lon="6.95428">
        <ele>282.3</ele>
        <time>2021-07-31T10:16:41Z</time>
      </trkpt>
      <trkpt lat="48.68277" lon="6.95429">
        <ele>282.3</ele>
        <time>2021-07-31T10:16:43Z</time>
      </trkpt>
      <trkpt lat="48.68277" lon="6.95429">
        <ele>282.3</ele>
        <time>2021-07-31T10:16:44Z</time>
      </trkpt>
      <trkpt lat="48.68276" lon="6.9543">
        <ele>282.3</ele>
        <time>2021-07-31T10:16:46Z</time>
      </trkpt>
      <trkpt lat="48.68276" lon="6.9543">
        <ele>282.3</ele>
        <time>2021-07-31T10:16:49Z</time>
      </trkpt>
      <trkpt lat="48.68271" lon="6.9544">
        <ele>282.5</ele>
        <time>2021-07-31T10:16:51Z</time>
      </trkpt>
      <trkpt lat="48.68271" lon="6.9544">
        <ele>282.5</ele>
        <time>2021-07-31T10:16:52Z</time>
      </trkpt>
      <trkpt lat="48.68271" lon="6.9544">
        <ele>282.5</ele>
        <time>2021-07-31T10:16:54Z</time>
      </trkpt>
      <trkpt lat="48.68271" lon="6.9544">
        <ele>282.5</ele>
        <time>2021-07-31T10:16:55Z</time>
      </trkpt>
      <trkpt lat="48.68271" lon="6.9544">
        <ele>282.5</ele>
        <time>2021-07-31T10:16:57Z</time>
      </trkpt>
      <trkpt lat="48.68271" lon="6.9544">
        <ele>282.5</ele>
        <time>2021-07-31T10:16:58Z</time>
      </trkpt>
      <trkpt lat="48.68271" lon="6.95441">
        <ele>282.5</ele>
        <time>2021-07-31T10:17:00Z</time>
      </trkpt>
      <trkpt lat="48.6827" lon="6.95441">
        <ele>282.6</ele>
        <time>2021-07-31T10:17:01Z</time>
      </trkpt>
      <trkpt lat="48.6827" lon="6.95442">
        <ele>282.6</ele>
        <time>2021-07-31T10:17:08Z</time>
      </trkpt>
      <trkpt lat="48.6824" lon="6.9547">
        <ele>283.2</ele>
        <time>2021-07-31T10:27:44Z</time>
      </trkpt>
      <trkpt lat="48.68244" lon="6.95475">
        <ele>283.3</ele>
        <time>2021-07-31T10:27:46Z</time>
      </trkpt>
      <trkpt lat="48.68247" lon="6.9548">
        <ele>283.5</ele>
        <time>2021-07-31T10:27:48Z</time>
      </trkpt>
      <trkpt lat="48.68247" lon="6.95485">
        <ele>283.6</ele>
        <time>2021-07-31T10:27:49Z</time>
      </trkpt>
      <trkpt lat="48.68247" lon="6.95486">
        <ele>283.6</ele>
        <time>2021-07-31T10:27:50Z</time>
      </trkpt>
      <trkpt lat="48.68246" lon="6.95491">
        <ele>283.7</ele>
        <time>2021-07-31T10:27:51Z</time>
      </trkpt>
      <trkpt lat="48.68245" lon="6.95493">
        <ele>283.8</ele>
        <time>2021-07-31T10:27:53Z</time>
      </trkpt>
      <trkpt lat="48.68245" lon="6.95495">
        <ele>283.8</ele>
        <time>2021-07-31T10:27:54Z</time>
      </trkpt>
      <trkpt lat="48.68244" lon="6.95497">
        <ele>283.9</ele>
        <time>2021-07-31T10:27:55Z</time>
      </trkpt>
      <trkpt lat="48.68242" lon="6.95501">
        <ele>284</ele>
        <time>2021-07-31T10:27:56Z</time>
      </trkpt>
      <trkpt lat="48.68241" lon="6.95502">
        <ele>284.1</ele>
        <time>2021-07-31T10:27:58Z</time>
      </trkpt>
      <trkpt lat="48.6824" lon="6.95504">
        <ele>284.2</ele>
        <time>2021-07-31T10:27:59Z</time>
      </trkpt>
      <trkpt lat="48.68239" lon="6.95505">
        <ele>284.2</ele>
        <time>2021-07-31T10:28:00Z</time>
      </trkpt>
      <trkpt lat="48.68238" lon="6.95507">
        <ele>284.3</ele>
        <time>2021-07-31T10:28:01Z</time>
      </trkpt>
      <trkpt lat="48.68237" lon="6.95508">
        <ele>284.4</ele>
        <time>2021-07-31T10:28:03Z</time>
      </trkpt>
      <trkpt lat="48.68236" lon="6.95509">
        <ele>284.5</ele>
        <time>2021-07-31T10:28:04Z</time>
      </trkpt>
      <trkpt lat="48.68235" lon="6.95509">
        <ele>284.5</ele>
        <time>2021-07-31T10:28:05Z</time>
      </trkpt>
      <trkpt lat="48.68234" lon="6.95508">
        <ele>284.6</ele>
        <time>2021-07-31T10:28:06Z</time>
      </trkpt>
      <trkpt lat="48.68232" lon="6.95506">
        <ele>284.7</ele>
        <time>2021-07-31T10:28:07Z</time>
      </trkpt>
      <trkpt lat="48.68231" lon="6.95506">
        <ele>284.8</ele>
        <time>2021-07-31T10:28:09Z</time>
      </trkpt>
      <trkpt lat="48.6823" lon="6.95503">
        <ele>284.9</ele>
        <time>2021-07-31T10:28:10Z</time>
      </trkpt>
      <trkpt lat="48.68229" lon="6.95502">
        <ele>285</ele>
        <time>2021-07-31T10:28:11Z</time>
      </trkpt>
      <trkpt lat="48.68228" lon="6.95499">
        <ele>285.1</ele>
        <time>2021-07-31T10:28:13Z</time>
      </trkpt>
      <trkpt lat="48.68227" lon="6.95498">
        <ele>285.2</ele>
        <time>2021-07-31T10:28:14Z</time>
      </trkpt>
      <trkpt lat="48.68227" lon="6.95497">
        <ele>285.2</ele>
        <time>2021-07-31T10:28:15Z</time>
      </trkpt>
      <trkpt lat="48.68226" lon="6.95495">
        <ele>285.3</ele>
        <time>2021-07-31T10:28:17Z</time>
      </trkpt>
      <trkpt lat="48.68226" lon="6.95494">
        <ele>285.3</ele>
        <time>2021-07-31T10:28:18Z</time>
      </trkpt>
      <trkpt lat="48.68226" lon="6.95494">
        <ele>285.3</ele>
        <time>2021-07-31T10:28:19Z</time>
      </trkpt>
      <trkpt lat="48.68225" lon="6.95494">
        <ele>285.3</ele>
        <time>2021-07-31T10:28:21Z</time>
      </trkpt>
      <trkpt lat="48.68225" lon="6.95494">
        <ele>285.4</ele>
        <time>2021-07-31T10:28:22Z</time>
      </trkpt>
      <trkpt lat="48.68225" lon="6.95494">
        <ele>285.4</ele>
        <time>2021-07-31T10:28:24Z</time>
      </trkpt>
      <trkpt lat="48.68224" lon="6.95493">
        <ele>285.4</ele>
        <time>2021-07-31T10:28:25Z</time>
      </trkpt>
      <trkpt lat="48.68223" lon="6.95492">
        <ele>285.5</ele>
        <time>2021-07-31T10:28:26Z</time>
      </trkpt>
      <trkpt lat="48.68223" lon="6.95491">
        <ele>285.5</ele>
        <time>2021-07-31T10:28:28Z</time>
      </trkpt>
      <trkpt lat="48.68222" lon="6.95491">
        <ele>285.6</ele>
        <time>2021-07-31T10:28:29Z</time>
      </trkpt>
      <trkpt lat="48.6821" lon="6.95474">
        <ele>286.5</ele>
        <time>2021-07-31T10:28:45Z</time>
      </trkpt>
      <trkpt lat="48.68206" lon="6.9547">
        <ele>286.7</ele>
        <time>2021-07-31T10:28:47Z</time>
      </trkpt>
      <trkpt lat="48.68205" lon="6.95468">
        <ele>286.8</ele>
        <time>2021-07-31T10:28:48Z</time>
      </trkpt>
      <trkpt lat="48.68203" lon="6.95466">
        <ele>287</ele>
        <time>2021-07-31T10:28:50Z</time>
      </trkpt>
      <trkpt lat="48.68202" lon="6.95464">
        <ele>287.1</ele>
        <time>2021-07-31T10:28:51Z</time>
      </trkpt>
      <trkpt lat="48.68199" lon="6.95461">
        <ele>287.2</ele>
        <time>2021-07-31T10:28:53Z</time>
      </trkpt>
      <trkpt lat="48.68198" lon="6.9546">
        <ele>287.3</ele>
        <time>2021-07-31T10:28:54Z</time>
      </trkpt>
      <trkpt lat="48.68197" lon="6.95459">
        <ele>287.4</ele>
        <time>2021-07-31T10:28:55Z</time>
      </trkpt>
      <trkpt lat="48.68195" lon="6.95457">
        <ele>287.5</ele>
        <time>2021-07-31T10:28:57Z</time>
      </trkpt>
      <trkpt lat="48.68193" lon="6.95453">
        <ele>287.7</ele>
        <time>2021-07-31T10:28:59Z</time>
      </trkpt>
      <trkpt lat="48.68192" lon="6.95452">
        <ele>287.7</ele>
        <time>2021-07-31T10:29:01Z</time>
      </trkpt>
      <trkpt lat="48.68191" lon="6.9545">
        <ele>287.8</ele>
        <time>2021-07-31T10:29:02Z</time>
      </trkpt>
      <trkpt lat="48.6819" lon="6.95448">
        <ele>287.9</ele>
        <time>2021-07-31T10:29:03Z</time>
      </trkpt>
      <trkpt lat="48.68188" lon="6.95446">
        <ele>288</ele>
        <time>2021-07-31T10:29:04Z</time>
      </trkpt>
      <trkpt lat="48.68187" lon="6.95444">
        <ele>288.1</ele>
        <time>2021-07-31T10:29:06Z</time>
      </trkpt>
      <trkpt lat="48.68186" lon="6.95443">
        <ele>288.2</ele>
        <time>2021-07-31T10:29:07Z</time>
      </trkpt>
      <trkpt lat="48.68184" lon="6.95442">
        <ele>288.2</ele>
        <time>2021-07-31T10:29:08Z</time>
      </trkpt>
      <trkpt lat="48.68183" lon="6.95441">
        <ele>288.3</ele>
        <time>2021-07-31T10:29:09Z</time>
      </trkpt>
      <trkpt lat="48.68182" lon="6.9544">
        <ele>288.4</ele>
        <time>2021-07-31T10:29:11Z</time>
      </trkpt>
      <trkpt lat="48.6818" lon="6.95438">
        <ele>288.5</ele>
        <time>2021-07-31T10:29:12Z</time>
      </trkpt>
      <trkpt lat="48.6818" lon="6.95438">
        <ele>288.5</ele>
        <time>2021-07-31T10:29:13Z</time>
      </trkpt>
      <trkpt lat="48.68178" lon="6.95437">
        <ele>288.6</ele>
        <time>2021-07-31T10:29:14Z</time>
      </trkpt>
      <trkpt lat="48.68177" lon="6.95436">
        <ele>288.7</ele>
        <time>2021-07-31T10:29:16Z</time>
      </trkpt>
      <trkpt lat="48.68176" lon="6.95435">
        <ele>288.8</ele>
        <time>2021-07-31T10:29:17Z</time>
      </trkpt>
      <trkpt lat="48.68174" lon="6.95433">
        <ele>288.9</ele>
        <time>2021-07-31T10:29:18Z</time>
      </trkpt>
      <trkpt lat="48.68173" lon="6.95431">
        <ele>288.9</ele>
        <time>2021-07-31T10:29:19Z</time>
      </trkpt>
      <trkpt lat="48.68172" lon="6.9543">
        <ele>289</ele>
        <time>2021-07-31T10:29:21Z</time>
      </trkpt>
      <trkpt lat="48.68171" lon="6.95429">
        <ele>289.1</ele>
        <time>2021-07-31T10:29:22Z</time>
      </trkpt>
      <trkpt lat="48.6817" lon="6.95428">
        <ele>289.1</ele>
        <time>2021-07-31T10:29:23Z</time>
      </trkpt>
      <trkpt lat="48.68168" lon="6.95425">
        <ele>289.3</ele>
        <time>2021-07-31T10:29:24Z</time>
      </trkpt>
      <trkpt lat="48.68168" lon="6.95423">
        <ele>289.3</ele>
        <time>2021-07-31T10:29:26Z</time>
      </trkpt>
      <trkpt lat="48.68167" lon="6.95422">
        <ele>289.4</ele>
        <time>2021-07-31T10:29:27Z</time>
      </trkpt>
      <trkpt lat="48.68166" lon="6.95421">
        <ele>289.4</ele>
        <time>2021-07-31T10:29:28Z</time>
      </trkpt>
      <trkpt lat="48.68166" lon="6.9542">
        <ele>289.5</ele>
        <time>2021-07-31T10:29:29Z</time>
      </trkpt>
      <trkpt lat="48.68164" lon="6.95418">
        <ele>289.6</ele>
        <time>2021-07-31T10:29:31Z</time>
      </trkpt>
      <trkpt lat="48.68163" lon="6.95417">
        <ele>289.6</ele>
        <time>2021-07-31T10:29:32Z</time>
      </trkpt>
      <trkpt lat="48.68163" lon="6.95416">
        <ele>289.7</ele>
        <time>2021-07-31T10:29:33Z</time>
      </trkpt>
      <trkpt lat="48.68161" lon="6.95413">
        <ele>289.8</ele>
        <time>2021-07-31T10:29:34Z</time>
      </trkpt>
      <trkpt lat="48.68161" lon="6.95412">
        <ele>289.8</ele>
        <time>2021-07-31T10:29:36Z</time>
      </trkpt>
      <trkpt lat="48.6816" lon="6.95411">
        <ele>289.9</ele>
        <time>2021-07-31T10:29:37Z</time>
      </trkpt>
      <trkpt lat="48.68158" lon="6.95409">
        <ele>289.9</ele>
        <time>2021-07-31T10:29:38Z</time>
      </trkpt>
      <trkpt lat="48.68158" lon="6.95408">
        <ele>290</ele>
        <time>2021-07-31T10:29:39Z</time>
      </trkpt>
      <trkpt lat="48.68157" lon="6.95407">
        <ele>290</ele>
        <time>2021-07-31T10:29:40Z</time>
      </trkpt>
      <trkpt lat="48.68156" lon="6.95405">
        <ele>290.1</ele>
        <time>2021-07-31T10:29:42Z</time>
      </trkpt>
      <trkpt lat="48.68155" lon="6.95403">
        <ele>290.2</ele>
        <time>2021-07-31T10:29:43Z</time>
      </trkpt>
      <trkpt lat="48.68154" lon="6.95402">
        <ele>290.2</ele>
        <time>2021-07-31T10:29:44Z</time>
      </trkpt>
      <trkpt lat="48.68152" lon="6.954">
        <ele>290.3</ele>
        <time>2021-07-31T10:29:45Z</time>
      </trkpt>
      <trkpt lat="48.68151" lon="6.95399">
        <ele>290.4</ele>
        <time>2021-07-31T10:29:47Z</time>
      </trkpt>
      <trkpt lat="48.6815" lon="6.95398">
        <ele>290.4</ele>
        <time>2021-07-31T10:29:48Z</time>
      </trkpt>
      <trkpt lat="48.68149" lon="6.95396">
        <ele>290.5</ele>
        <time>2021-07-31T10:29:49Z</time>
      </trkpt>
      <trkpt lat="48.68148" lon="6.95395">
        <ele>290.6</ele>
        <time>2021-07-31T10:29:50Z</time>
      </trkpt>
      <trkpt lat="48.68146" lon="6.95394">
        <ele>290.6</ele>
        <time>2021-07-31T10:29:52Z</time>
      </trkpt>
      <trkpt lat="48.68146" lon="6.95392">
        <ele>290.7</ele>
        <time>2021-07-31T10:29:53Z</time>
      </trkpt>
      <trkpt lat="48.68144" lon="6.95389">
        <ele>290.8</ele>
        <time>2021-07-31T10:29:55Z</time>
      </trkpt>
      <trkpt lat="48.68144" lon="6.95388">
        <ele>290.8</ele>
        <time>2021-07-31T10:29:56Z</time>
      </trkpt>
      <trkpt lat="48.68142" lon="6.95385">
        <ele>290.9</ele>
        <time>2021-07-31T10:29:58Z</time>
      </trkpt>
      <trkpt lat="48.68139" lon="6.95384">
        <ele>291.1</ele>
        <time>2021-07-31T10:29:59Z</time>
      </trkpt>
      <trkpt lat="48.68138" lon="6.95384">
        <ele>291.1</ele>
        <time>2021-07-31T10:30:00Z</time>
      </trkpt>
      <trkpt lat="48.68136" lon="6.95382">
        <ele>291.2</ele>
        <time>2021-07-31T10:30:02Z</time>
      </trkpt>
      <trkpt lat="48.68135" lon="6.95382">
        <ele>291.3</ele>
        <time>2021-07-31T10:30:03Z</time>
      </trkpt>
      <trkpt lat="48.68133" lon="6.95381">
        <ele>291.4</ele>
        <time>2021-07-31T10:30:04Z</time>
      </trkpt>
      <trkpt lat="48.68132" lon="6.9538">
        <ele>291.4</ele>
        <time>2021-07-31T10:30:06Z</time>
      </trkpt>
      <trkpt lat="48.6813" lon="6.95379">
        <ele>291.6</ele>
        <time>2021-07-31T10:30:07Z</time>
      </trkpt>
      <trkpt lat="48.68129" lon="6.95378">
        <ele>291.7</ele>
        <time>2021-07-31T10:30:09Z</time>
      </trkpt>
      <trkpt lat="48.68128" lon="6.95376">
        <ele>291.8</ele>
        <time>2021-07-31T10:30:10Z</time>
      </trkpt>
      <trkpt lat="48.68127" lon="6.95375">
        <ele>291.9</ele>
        <time>2021-07-31T10:30:11Z</time>
      </trkpt>
      <trkpt lat="48.68126" lon="6.95373">
        <ele>292</ele>
        <time>2021-07-31T10:30:13Z</time>
      </trkpt>
      <trkpt lat="48.68125" lon="6.95372">
        <ele>292.1</ele>
        <time>2021-07-31T10:30:14Z</time>
      </trkpt>
      <trkpt lat="48.68125" lon="6.95371">
        <ele>292.2</ele>
        <time>2021-07-31T10:30:15Z</time>
      </trkpt>
      <trkpt lat="48.68124" lon="6.95369">
        <ele>292.3</ele>
        <time>2021-07-31T10:30:17Z</time>
      </trkpt>
      <trkpt lat="48.68123" lon="6.95368">
        <ele>292.3</ele>
        <time>2021-07-31T10:30:18Z</time>
      </trkpt>
      <trkpt lat="48.68121" lon="6.95365">
        <ele>292.4</ele>
        <time>2021-07-31T10:30:19Z</time>
      </trkpt>
      <trkpt lat="48.68121" lon="6.95365">
        <ele>292.5</ele>
        <time>2021-07-31T10:30:20Z</time>
      </trkpt>
      <trkpt lat="48.6812" lon="6.95363">
        <ele>292.5</ele>
        <time>2021-07-31T10:30:22Z</time>
      </trkpt>
      <trkpt lat="48.6812" lon="6.95361">
        <ele>292.6</ele>
        <time>2021-07-31T10:30:23Z</time>
      </trkpt>
      <trkpt lat="48.68119" lon="6.95359">
        <ele>292.6</ele>
        <time>2021-07-31T10:30:24Z</time>
      </trkpt>
      <trkpt lat="48.68116" lon="6.95355">
        <ele>292.7</ele>
        <time>2021-07-31T10:30:26Z</time>
      </trkpt>
      <trkpt lat="48.68115" lon="6.95354">
        <ele>292.7</ele>
        <time>2021-07-31T10:30:27Z</time>
      </trkpt>
      <trkpt lat="48.68114" lon="6.95352">
        <ele>292.8</ele>
        <time>2021-07-31T10:30:28Z</time>
      </trkpt>
      <trkpt lat="48.68111" lon="6.9535">
        <ele>292.8</ele>
        <time>2021-07-31T10:30:29Z</time>
      </trkpt>
      <trkpt lat="48.68109" lon="6.95349">
        <ele>292.9</ele>
        <time>2021-07-31T10:30:30Z</time>
      </trkpt>
      <trkpt lat="48.68106" lon="6.95347">
        <ele>292.9</ele>
        <time>2021-07-31T10:30:32Z</time>
      </trkpt>
      <trkpt lat="48.68105" lon="6.95346">
        <ele>292.9</ele>
        <time>2021-07-31T10:30:33Z</time>
      </trkpt>
      <trkpt lat="48.68101" lon="6.95344">
        <ele>293</ele>
        <time>2021-07-31T10:30:34Z</time>
      </trkpt>
      <trkpt lat="48.681" lon="6.95343">
        <ele>293</ele>
        <time>2021-07-31T10:30:35Z</time>
      </trkpt>
      <trkpt lat="48.68095" lon="6.95339">
        <ele>293.1</ele>
        <time>2021-07-31T10:30:37Z</time>
      </trkpt>
      <trkpt lat="48.68093" lon="6.95337">
        <ele>293.1</ele>
        <time>2021-07-31T10:30:38Z</time>
      </trkpt>
      <trkpt lat="48.68089" lon="6.95333">
        <ele>293.2</ele>
        <time>2021-07-31T10:30:39Z</time>
      </trkpt>
      <trkpt lat="48.68086" lon="6.9533">
        <ele>293.3</ele>
        <time>2021-07-31T10:30:41Z</time>
      </trkpt>
      <trkpt lat="48.68084" lon="6.95327">
        <ele>293.3</ele>
        <time>2021-07-31T10:30:42Z</time>
      </trkpt>
      <trkpt lat="48.6808" lon="6.95324">
        <ele>293.4</ele>
        <time>2021-07-31T10:30:43Z</time>
      </trkpt>
      <trkpt lat="48.68077" lon="6.95321">
        <ele>293.4</ele>
        <time>2021-07-31T10:30:45Z</time>
      </trkpt>
      <trkpt lat="48.68075" lon="6.95319">
        <ele>293.5</ele>
        <time>2021-07-31T10:30:46Z</time>
      </trkpt>
      <trkpt lat="48.68071" lon="6.95316">
        <ele>293.6</ele>
        <time>2021-07-31T10:30:47Z</time>
      </trkpt>
      <trkpt lat="48.68068" lon="6.95313">
        <ele>293.6</ele>
        <time>2021-07-31T10:30:48Z</time>
      </trkpt>
      <trkpt lat="48.68065" lon="6.9531">
        <ele>293.6</ele>
        <time>2021-07-31T10:30:50Z</time>
      </trkpt>
      <trkpt lat="48.68062" lon="6.95308">
        <ele>293.7</ele>
        <time>2021-07-31T10:30:51Z</time>
      </trkpt>
      <trkpt lat="48.68059" lon="6.95304">
        <ele>293.7</ele>
        <time>2021-07-31T10:30:52Z</time>
      </trkpt>
      <trkpt lat="48.68055" lon="6.95302">
        <ele>293.8</ele>
        <time>2021-07-31T10:30:53Z</time>
      </trkpt>
      <trkpt lat="48.68052" lon="6.95299">
        <ele>293.8</ele>
        <time>2021-07-31T10:30:55Z</time>
      </trkpt>
      <trkpt lat="48.68048" lon="6.95296">
        <ele>293.9</ele>
        <time>2021-07-31T10:30:56Z</time>
      </trkpt>
      <trkpt lat="48.68043" lon="6.95291">
        <ele>294</ele>
        <time>2021-07-31T10:30:58Z</time>
      </trkpt>
      <trkpt lat="48.68039" lon="6.95287">
        <ele>294</ele>
        <time>2021-07-31T10:30:59Z</time>
      </trkpt>
      <trkpt lat="48.68036" lon="6.95284">
        <ele>294</ele>
        <time>2021-07-31T10:31:00Z</time>
      </trkpt>
      <trkpt lat="48.68032" lon="6.95281">
        <ele>294.1</ele>
        <time>2021-07-31T10:31:02Z</time>
      </trkpt>
      <trkpt lat="48.68029" lon="6.95279">
        <ele>294.1</ele>
        <time>2021-07-31T10:31:03Z</time>
      </trkpt>
      <trkpt lat="48.68024" lon="6.95274">
        <ele>294.1</ele>
        <time>2021-07-31T10:31:05Z</time>
      </trkpt>
      <trkpt lat="48.68021" lon="6.95272">
        <ele>294.1</ele>
        <time>2021-07-31T10:31:06Z</time>
      </trkpt>
      <trkpt lat="48.68018" lon="6.9527">
        <ele>294.2</ele>
        <time>2021-07-31T10:31:07Z</time>
      </trkpt>
      <trkpt lat="48.68012" lon="6.95265">
        <ele>294.5</ele>
        <time>2021-07-31T10:31:09Z</time>
      </trkpt>
      <trkpt lat="48.68007" lon="6.95259">
        <ele>295.1</ele>
        <time>2021-07-31T10:31:11Z</time>
      </trkpt>
      <trkpt lat="48.68004" lon="6.95256">
        <ele>295.3</ele>
        <time>2021-07-31T10:31:12Z</time>
      </trkpt>
      <trkpt lat="48.67998" lon="6.95252">
        <ele>295.6</ele>
        <time>2021-07-31T10:31:14Z</time>
      </trkpt>
      <trkpt lat="48.67995" lon="6.9525">
        <ele>295.7</ele>
        <time>2021-07-31T10:31:15Z</time>
      </trkpt>
      <trkpt lat="48.67988" lon="6.95245">
        <ele>295.7</ele>
        <time>2021-07-31T10:31:17Z</time>
      </trkpt>
      <trkpt lat="48.67986" lon="6.95242">
        <ele>295.7</ele>
        <time>2021-07-31T10:31:18Z</time>
      </trkpt>
      <trkpt lat="48.67983" lon="6.9524">
        <ele>295.7</ele>
        <time>2021-07-31T10:31:19Z</time>
      </trkpt>
      <trkpt lat="48.67977" lon="6.95235">
        <ele>295.6</ele>
        <time>2021-07-31T10:31:21Z</time>
      </trkpt>
      <trkpt lat="48.67971" lon="6.95229">
        <ele>295.4</ele>
        <time>2021-07-31T10:31:23Z</time>
      </trkpt>
      <trkpt lat="48.67968" lon="6.95227">
        <ele>295.2</ele>
        <time>2021-07-31T10:31:24Z</time>
      </trkpt>
      <trkpt lat="48.67961" lon="6.95221">
        <ele>294.9</ele>
        <time>2021-07-31T10:31:26Z</time>
      </trkpt>
      <trkpt lat="48.67954" lon="6.95215">
        <ele>294.6</ele>
        <time>2021-07-31T10:31:28Z</time>
      </trkpt>
      <trkpt lat="48.67943" lon="6.95205">
        <ele>294</ele>
        <time>2021-07-31T10:31:30Z</time>
      </trkpt>
      <trkpt lat="48.67933" lon="6.95197">
        <ele>293.5</ele>
        <time>2021-07-31T10:31:32Z</time>
      </trkpt>
      <trkpt lat="48.67929" lon="6.95193">
        <ele>293.2</ele>
        <time>2021-07-31T10:31:33Z</time>
      </trkpt>
      <trkpt lat="48.67924" lon="6.95188">
        <ele>292.9</ele>
        <time>2021-07-31T10:31:34Z</time>
      </trkpt>
      <trkpt lat="48.67919" lon="6.95184">
        <ele>292.7</ele>
        <time>2021-07-31T10:31:35Z</time>
      </trkpt>
      <trkpt lat="48.67915" lon="6.95182">
        <ele>292.4</ele>
        <time>2021-07-31T10:31:36Z</time>
      </trkpt>
      <trkpt lat="48.67905" lon="6.95174">
        <ele>291.9</ele>
        <time>2021-07-31T10:31:38Z</time>
      </trkpt>
      <trkpt lat="48.67899" lon="6.95169">
        <ele>291.6</ele>
        <time>2021-07-31T10:31:39Z</time>
      </trkpt>
      <trkpt lat="48.67893" lon="6.95165">
        <ele>291.2</ele>
        <time>2021-07-31T10:31:40Z</time>
      </trkpt>
      <trkpt lat="48.67887" lon="6.9516">
        <ele>290.8</ele>
        <time>2021-07-31T10:31:41Z</time>
      </trkpt>
      <trkpt lat="48.67882" lon="6.95156">
        <ele>290.5</ele>
        <time>2021-07-31T10:31:42Z</time>
      </trkpt>
      <trkpt lat="48.67869" lon="6.95147">
        <ele>289.9</ele>
        <time>2021-07-31T10:31:44Z</time>
      </trkpt>
      <trkpt lat="48.67861" lon="6.95144">
        <ele>289.7</ele>
        <time>2021-07-31T10:31:45Z</time>
      </trkpt>
      <trkpt lat="48.67846" lon="6.95136">
        <ele>289.4</ele>
        <time>2021-07-31T10:31:47Z</time>
      </trkpt>
      <trkpt lat="48.67839" lon="6.95133">
        <ele>289.1</ele>
        <time>2021-07-31T10:31:48Z</time>
      </trkpt>
      <trkpt lat="48.67824" lon="6.95127">
        <ele>288.4</ele>
        <time>2021-07-31T10:31:50Z</time>
      </trkpt>
      <trkpt lat="48.67817" lon="6.95126">
        <ele>288</ele>
        <time>2021-07-31T10:31:51Z</time>
      </trkpt>
      <trkpt lat="48.67811" lon="6.95126">
        <ele>287.6</ele>
        <time>2021-07-31T10:31:52Z</time>
      </trkpt>
      <trkpt lat="48.67799" lon="6.95132">
        <ele>286.4</ele>
        <time>2021-07-31T10:31:54Z</time>
      </trkpt>
      <trkpt lat="48.67786" lon="6.95134">
        <ele>285</ele>
        <time>2021-07-31T10:31:56Z</time>
      </trkpt>
      <trkpt lat="48.67778" lon="6.95132">
        <ele>284.3</ele>
        <time>2021-07-31T10:31:57Z</time>
      </trkpt>
      <trkpt lat="48.67764" lon="6.95124">
        <ele>283.2</ele>
        <time>2021-07-31T10:31:59Z</time>
      </trkpt>
      <trkpt lat="48.6775" lon="6.95114">
        <ele>282.7</ele>
        <time>2021-07-31T10:32:01Z</time>
      </trkpt>
      <trkpt lat="48.67743" lon="6.95107">
        <ele>282.6</ele>
        <time>2021-07-31T10:32:02Z</time>
      </trkpt>
      <trkpt lat="48.6773" lon="6.95095">
        <ele>282.8</ele>
        <time>2021-07-31T10:32:04Z</time>
      </trkpt>
      <trkpt lat="48.67725" lon="6.95088">
        <ele>283</ele>
        <time>2021-07-31T10:32:05Z</time>
      </trkpt>
      <trkpt lat="48.6772" lon="6.95081">
        <ele>283.3</ele>
        <time>2021-07-31T10:32:06Z</time>
      </trkpt>
      <trkpt lat="48.67713" lon="6.95068">
        <ele>284.3</ele>
        <time>2021-07-31T10:32:08Z</time>
      </trkpt>
      <trkpt lat="48.67711" lon="6.95063">
        <ele>284.9</ele>
        <time>2021-07-31T10:32:09Z</time>
      </trkpt>
      <trkpt lat="48.67706" lon="6.95057">
        <ele>285.8</ele>
        <time>2021-07-31T10:32:11Z</time>
      </trkpt>
      <trkpt lat="48.67702" lon="6.95055">
        <ele>286.2</ele>
        <time>2021-07-31T10:32:12Z</time>
      </trkpt>
      <trkpt lat="48.67696" lon="6.95054">
        <ele>286.8</ele>
        <time>2021-07-31T10:32:14Z</time>
      </trkpt>
      <trkpt lat="48.67691" lon="6.95053">
        <ele>287.1</ele>
        <time>2021-07-31T10:32:15Z</time>
      </trkpt>
      <trkpt lat="48.67688" lon="6.95054">
        <ele>287.4</ele>
        <time>2021-07-31T10:32:16Z</time>
      </trkpt>
      <trkpt lat="48.67686" lon="6.95054">
        <ele>287.7</ele>
        <time>2021-07-31T10:32:17Z</time>
      </trkpt>
      <trkpt lat="48.67683" lon="6.95056">
        <ele>287.5</ele>
        <time>2021-07-31T10:32:18Z</time>
      </trkpt>
      <trkpt lat="48.67679" lon="6.95058">
        <ele>287.3</ele>
        <time>2021-07-31T10:32:20Z</time>
      </trkpt>
      <trkpt lat="48.67676" lon="6.95063">
        <ele>287</ele>
        <time>2021-07-31T10:32:21Z</time>
      </trkpt>
      <trkpt lat="48.67673" lon="6.95068">
        <ele>286.7</ele>
        <time>2021-07-31T10:32:23Z</time>
      </trkpt>
      <trkpt lat="48.67671" lon="6.95072">
        <ele>286.4</ele>
        <time>2021-07-31T10:32:24Z</time>
      </trkpt>
      <trkpt lat="48.67663" lon="6.95083">
        <ele>285.7</ele>
        <time>2021-07-31T10:32:26Z</time>
      </trkpt>
      <trkpt lat="48.67656" lon="6.95094">
        <ele>284.9</ele>
        <time>2021-07-31T10:32:28Z</time>
      </trkpt>
      <trkpt lat="48.67652" lon="6.951">
        <ele>284.5</ele>
        <time>2021-07-31T10:32:29Z</time>
      </trkpt>
      <trkpt lat="48.67648" lon="6.95106">
        <ele>284.2</ele>
        <time>2021-07-31T10:32:30Z</time>
      </trkpt>
      <trkpt lat="48.67643" lon="6.95113">
        <ele>283.8</ele>
        <time>2021-07-31T10:32:31Z</time>
      </trkpt>
      <trkpt lat="48.67633" lon="6.95125">
        <ele>283.1</ele>
        <time>2021-07-31T10:32:33Z</time>
      </trkpt>
      <trkpt lat="48.67628" lon="6.95131">
        <ele>282.8</ele>
        <time>2021-07-31T10:32:34Z</time>
      </trkpt>
      <trkpt lat="48.67623" lon="6.95137">
        <ele>282.4</ele>
        <time>2021-07-31T10:32:35Z</time>
      </trkpt>
      <trkpt lat="48.67612" lon="6.95148">
        <ele>281.7</ele>
        <time>2021-07-31T10:32:37Z</time>
      </trkpt>
      <trkpt lat="48.67606" lon="6.95153">
        <ele>281.3</ele>
        <time>2021-07-31T10:32:38Z</time>
      </trkpt>
      <trkpt lat="48.67597" lon="6.95164">
        <ele>280.6</ele>
        <time>2021-07-31T10:32:40Z</time>
      </trkpt>
      <trkpt lat="48.67592" lon="6.95171">
        <ele>280.1</ele>
        <time>2021-07-31T10:32:41Z</time>
      </trkpt>
      <trkpt lat="48.67583" lon="6.95183">
        <ele>279.1</ele>
        <time>2021-07-31T10:32:43Z</time>
      </trkpt>
      <trkpt lat="48.67578" lon="6.9519">
        <ele>278.4</ele>
        <time>2021-07-31T10:32:44Z</time>
      </trkpt>
      <trkpt lat="48.67568" lon="6.95202">
        <ele>277.4</ele>
        <time>2021-07-31T10:32:46Z</time>
      </trkpt>
      <trkpt lat="48.67559" lon="6.95215">
        <ele>276.6</ele>
        <time>2021-07-31T10:32:48Z</time>
      </trkpt>
      <trkpt lat="48.67554" lon="6.95221">
        <ele>276.2</ele>
        <time>2021-07-31T10:32:49Z</time>
      </trkpt>
      <trkpt lat="48.67544" lon="6.95236">
        <ele>275.3</ele>
        <time>2021-07-31T10:32:51Z</time>
      </trkpt>
      <trkpt lat="48.67535" lon="6.9525">
        <ele>274.5</ele>
        <time>2021-07-31T10:32:53Z</time>
      </trkpt>
      <trkpt lat="48.67524" lon="6.95263">
        <ele>273.8</ele>
        <time>2021-07-31T10:32:55Z</time>
      </trkpt>
      <trkpt lat="48.67518" lon="6.95269">
        <ele>273.4</ele>
        <time>2021-07-31T10:32:56Z</time>
      </trkpt>
      <trkpt lat="48.67512" lon="6.95273">
        <ele>273.2</ele>
        <time>2021-07-31T10:32:57Z</time>
      </trkpt>
      <trkpt lat="48.67499" lon="6.95278">
        <ele>273.8</ele>
        <time>2021-07-31T10:32:59Z</time>
      </trkpt>
      <trkpt lat="48.67486" lon="6.95281">
        <ele>274.8</ele>
        <time>2021-07-31T10:33:01Z</time>
      </trkpt>
      <trkpt lat="48.67475" lon="6.95282">
        <ele>275.6</ele>
        <time>2021-07-31T10:33:03Z</time>
      </trkpt>
      <trkpt lat="48.67469" lon="6.95283">
        <ele>275.9</ele>
        <time>2021-07-31T10:33:04Z</time>
      </trkpt>
      <trkpt lat="48.67464" lon="6.95284">
        <ele>276.3</ele>
        <time>2021-07-31T10:33:05Z</time>
      </trkpt>
      <trkpt lat="48.67453" lon="6.95286">
        <ele>276.8</ele>
        <time>2021-07-31T10:33:07Z</time>
      </trkpt>
      <trkpt lat="48.67447" lon="6.95288">
        <ele>277</ele>
        <time>2021-07-31T10:33:08Z</time>
      </trkpt>
      <trkpt lat="48.67436" lon="6.95293">
        <ele>277.1</ele>
        <time>2021-07-31T10:33:10Z</time>
      </trkpt>
      <trkpt lat="48.67425" lon="6.95299">
        <ele>277</ele>
        <time>2021-07-31T10:33:12Z</time>
      </trkpt>
      <trkpt lat="48.67411" lon="6.95306">
        <ele>277</ele>
        <time>2021-07-31T10:33:14Z</time>
      </trkpt>
      <trkpt lat="48.67405" lon="6.95311">
        <ele>277</ele>
        <time>2021-07-31T10:33:15Z</time>
      </trkpt>
      <trkpt lat="48.67391" lon="6.95322">
        <ele>276.9</ele>
        <time>2021-07-31T10:33:17Z</time>
      </trkpt>
      <trkpt lat="48.67378" lon="6.95335">
        <ele>275.6</ele>
        <time>2021-07-31T10:33:19Z</time>
      </trkpt>
      <trkpt lat="48.67372" lon="6.95344">
        <ele>275</ele>
        <time>2021-07-31T10:33:20Z</time>
      </trkpt>
      <trkpt lat="48.6736" lon="6.95365">
        <ele>273.8</ele>
        <time>2021-07-31T10:33:22Z</time>
      </trkpt>
      <trkpt lat="48.6735" lon="6.95388">
        <ele>272.8</ele>
        <time>2021-07-31T10:33:24Z</time>
      </trkpt>
      <trkpt lat="48.67346" lon="6.954">
        <ele>272.5</ele>
        <time>2021-07-31T10:33:25Z</time>
      </trkpt>
      <trkpt lat="48.67338" lon="6.95421">
        <ele>272.2</ele>
        <time>2021-07-31T10:33:27Z</time>
      </trkpt>
      <trkpt lat="48.67335" lon="6.95431">
        <ele>272.1</ele>
        <time>2021-07-31T10:33:28Z</time>
      </trkpt>
      <trkpt lat="48.67329" lon="6.9545">
        <ele>271.9</ele>
        <time>2021-07-31T10:33:30Z</time>
      </trkpt>
      <trkpt lat="48.67325" lon="6.95469">
        <ele>272</ele>
        <time>2021-07-31T10:33:32Z</time>
      </trkpt>
      <trkpt lat="48.67323" lon="6.95477">
        <ele>272</ele>
        <time>2021-07-31T10:33:33Z</time>
      </trkpt>
      <trkpt lat="48.67321" lon="6.95494">
        <ele>271.8</ele>
        <time>2021-07-31T10:33:35Z</time>
      </trkpt>
      <trkpt lat="48.6732" lon="6.95511">
        <ele>271.6</ele>
        <time>2021-07-31T10:33:37Z</time>
      </trkpt>
      <trkpt lat="48.67317" lon="6.95529">
        <ele>271.7</ele>
        <time>2021-07-31T10:33:39Z</time>
      </trkpt>
      <trkpt lat="48.67312" lon="6.95546">
        <ele>272</ele>
        <time>2021-07-31T10:33:41Z</time>
      </trkpt>
      <trkpt lat="48.6731" lon="6.95554">
        <ele>272.2</ele>
        <time>2021-07-31T10:33:42Z</time>
      </trkpt>
      <trkpt lat="48.67306" lon="6.95569">
        <ele>272.6</ele>
        <time>2021-07-31T10:33:44Z</time>
      </trkpt>
      <trkpt lat="48.67304" lon="6.95576">
        <ele>272.9</ele>
        <time>2021-07-31T10:33:45Z</time>
      </trkpt>
      <trkpt lat="48.673" lon="6.95587">
        <ele>273.4</ele>
        <time>2021-07-31T10:33:47Z</time>
      </trkpt>
      <trkpt lat="48.67297" lon="6.95594">
        <ele>273.8</ele>
        <time>2021-07-31T10:33:48Z</time>
      </trkpt>
      <trkpt lat="48.67294" lon="6.95604">
        <ele>274.4</ele>
        <time>2021-07-31T10:33:50Z</time>
      </trkpt>
      <trkpt lat="48.67293" lon="6.95614">
        <ele>274.9</ele>
        <time>2021-07-31T10:33:52Z</time>
      </trkpt>
      <trkpt lat="48.67291" lon="6.95618">
        <ele>275.2</ele>
        <time>2021-07-31T10:33:53Z</time>
      </trkpt>
      <trkpt lat="48.67289" lon="6.95622">
        <ele>275.4</ele>
        <time>2021-07-31T10:33:54Z</time>
      </trkpt>
      <trkpt lat="48.67288" lon="6.95628">
        <ele>275.9</ele>
        <time>2021-07-31T10:33:55Z</time>
      </trkpt>
      <trkpt lat="48.67287" lon="6.95633">
        <ele>276.2</ele>
        <time>2021-07-31T10:33:56Z</time>
      </trkpt>
      <trkpt lat="48.67284" lon="6.9564">
        <ele>276.7</ele>
        <time>2021-07-31T10:33:58Z</time>
      </trkpt>
      <trkpt lat="48.67283" lon="6.95642">
        <ele>276.8</ele>
        <time>2021-07-31T10:33:59Z</time>
      </trkpt>
      <trkpt lat="48.67283" lon="6.95644">
        <ele>277</ele>
        <time>2021-07-31T10:34:00Z</time>
      </trkpt>
      <trkpt lat="48.6728" lon="6.95649">
        <ele>277.4</ele>
        <time>2021-07-31T10:34:02Z</time>
      </trkpt>
      <trkpt lat="48.67278" lon="6.95652">
        <ele>277.7</ele>
        <time>2021-07-31T10:34:03Z</time>
      </trkpt>
      <trkpt lat="48.67275" lon="6.95656">
        <ele>278</ele>
        <time>2021-07-31T10:34:04Z</time>
      </trkpt>
      <trkpt lat="48.67273" lon="6.95659">
        <ele>278.3</ele>
        <time>2021-07-31T10:34:06Z</time>
      </trkpt>
      <trkpt lat="48.67271" lon="6.95662">
        <ele>278.6</ele>
        <time>2021-07-31T10:34:07Z</time>
      </trkpt>
      <trkpt lat="48.6727" lon="6.95664">
        <ele>278.8</ele>
        <time>2021-07-31T10:34:09Z</time>
      </trkpt>
      <trkpt lat="48.67269" lon="6.95667">
        <ele>279</ele>
        <time>2021-07-31T10:34:10Z</time>
      </trkpt>
      <trkpt lat="48.67268" lon="6.95669">
        <ele>279.1</ele>
        <time>2021-07-31T10:34:11Z</time>
      </trkpt>
      <trkpt lat="48.67268" lon="6.95671">
        <ele>279.2</ele>
        <time>2021-07-31T10:34:12Z</time>
      </trkpt>
      <trkpt lat="48.67267" lon="6.95673">
        <ele>279.4</ele>
        <time>2021-07-31T10:34:13Z</time>
      </trkpt>
      <trkpt lat="48.67266" lon="6.95677">
        <ele>279.6</ele>
        <time>2021-07-31T10:34:15Z</time>
      </trkpt>
      <trkpt lat="48.67265" lon="6.95679">
        <ele>279.7</ele>
        <time>2021-07-31T10:34:16Z</time>
      </trkpt>
      <trkpt lat="48.67264" lon="6.95683">
        <ele>279.9</ele>
        <time>2021-07-31T10:34:17Z</time>
      </trkpt>
      <trkpt lat="48.67264" lon="6.95684">
        <ele>280</ele>
        <time>2021-07-31T10:34:18Z</time>
      </trkpt>
      <trkpt lat="48.67264" lon="6.95687">
        <ele>280.1</ele>
        <time>2021-07-31T10:34:19Z</time>
      </trkpt>
      <trkpt lat="48.67263" lon="6.95689">
        <ele>280.2</ele>
        <time>2021-07-31T10:34:20Z</time>
      </trkpt>
      <trkpt lat="48.67261" lon="6.95694">
        <ele>280.5</ele>
        <time>2021-07-31T10:34:22Z</time>
      </trkpt>
      <trkpt lat="48.67261" lon="6.95696">
        <ele>280.6</ele>
        <time>2021-07-31T10:34:23Z</time>
      </trkpt>
      <trkpt lat="48.6726" lon="6.95697">
        <ele>280.7</ele>
        <time>2021-07-31T10:34:24Z</time>
      </trkpt>
      <trkpt lat="48.67256" lon="6.95703">
        <ele>281.1</ele>
        <time>2021-07-31T10:34:26Z</time>
      </trkpt>
      <trkpt lat="48.67255" lon="6.95705">
        <ele>281.2</ele>
        <time>2021-07-31T10:34:27Z</time>
      </trkpt>
      <trkpt lat="48.67254" lon="6.95706">
        <ele>281.3</ele>
        <time>2021-07-31T10:34:28Z</time>
      </trkpt>
      <trkpt lat="48.67253" lon="6.95711">
        <ele>281.6</ele>
        <time>2021-07-31T10:34:29Z</time>
      </trkpt>
      <trkpt lat="48.67253" lon="6.95713">
        <ele>281.7</ele>
        <time>2021-07-31T10:34:30Z</time>
      </trkpt>
      <trkpt lat="48.67252" lon="6.95715">
        <ele>281.8</ele>
        <time>2021-07-31T10:34:32Z</time>
      </trkpt>
      <trkpt lat="48.67251" lon="6.95718">
        <ele>282</ele>
        <time>2021-07-31T10:34:33Z</time>
      </trkpt>
      <trkpt lat="48.67249" lon="6.95721">
        <ele>282.2</ele>
        <time>2021-07-31T10:34:35Z</time>
      </trkpt>
      <trkpt lat="48.67247" lon="6.95722">
        <ele>282.4</ele>
        <time>2021-07-31T10:34:36Z</time>
      </trkpt>
      <trkpt lat="48.67244" lon="6.95725">
        <ele>282.6</ele>
        <time>2021-07-31T10:34:38Z</time>
      </trkpt>
      <trkpt lat="48.67243" lon="6.95727">
        <ele>282.7</ele>
        <time>2021-07-31T10:34:39Z</time>
      </trkpt>
      <trkpt lat="48.67242" lon="6.95729">
        <ele>282.8</ele>
        <time>2021-07-31T10:34:40Z</time>
      </trkpt>
      <trkpt lat="48.67239" lon="6.95732">
        <ele>283.1</ele>
        <time>2021-07-31T10:34:42Z</time>
      </trkpt>
      <trkpt lat="48.67238" lon="6.95733">
        <ele>283.1</ele>
        <time>2021-07-31T10:34:43Z</time>
      </trkpt>
      <trkpt lat="48.67236" lon="6.95739">
        <ele>283.5</ele>
        <time>2021-07-31T10:34:45Z</time>
      </trkpt>
      <trkpt lat="48.67235" lon="6.95741">
        <ele>283.6</ele>
        <time>2021-07-31T10:34:46Z</time>
      </trkpt>
      <trkpt lat="48.67234" lon="6.95743">
        <ele>283.7</ele>
        <time>2021-07-31T10:34:47Z</time>
      </trkpt>
      <trkpt lat="48.67232" lon="6.95745">
        <ele>283.8</ele>
        <time>2021-07-31T10:34:48Z</time>
      </trkpt>
      <trkpt lat="48.67231" lon="6.95748">
        <ele>284</ele>
        <time>2021-07-31T10:34:50Z</time>
      </trkpt>
      <trkpt lat="48.6723" lon="6.95749">
        <ele>284.1</ele>
        <time>2021-07-31T10:34:51Z</time>
      </trkpt>
      <trkpt lat="48.67229" lon="6.95752">
        <ele>284.2</ele>
        <time>2021-07-31T10:34:53Z</time>
      </trkpt>
      <trkpt lat="48.67228" lon="6.95754">
        <ele>284.3</ele>
        <time>2021-07-31T10:34:54Z</time>
      </trkpt>
      <trkpt lat="48.67227" lon="6.95755">
        <ele>284.4</ele>
        <time>2021-07-31T10:34:55Z</time>
      </trkpt>
      <trkpt lat="48.67225" lon="6.95757">
        <ele>284.5</ele>
        <time>2021-07-31T10:34:56Z</time>
      </trkpt>
      <trkpt lat="48.67223" lon="6.95759">
        <ele>284.7</ele>
        <time>2021-07-31T10:34:58Z</time>
      </trkpt>
      <trkpt lat="48.67221" lon="6.95763">
        <ele>284.9</ele>
        <time>2021-07-31T10:34:59Z</time>
      </trkpt>
      <trkpt lat="48.67221" lon="6.95764">
        <ele>285</ele>
        <time>2021-07-31T10:35:00Z</time>
      </trkpt>
      <trkpt lat="48.67217" lon="6.9577">
        <ele>285.3</ele>
        <time>2021-07-31T10:35:02Z</time>
      </trkpt>
      <trkpt lat="48.67217" lon="6.95772">
        <ele>285.4</ele>
        <time>2021-07-31T10:35:03Z</time>
      </trkpt>
      <trkpt lat="48.67216" lon="6.95774">
        <ele>285.5</ele>
        <time>2021-07-31T10:35:04Z</time>
      </trkpt>
      <trkpt lat="48.67215" lon="6.95776">
        <ele>285.6</ele>
        <time>2021-07-31T10:35:05Z</time>
      </trkpt>
      <trkpt lat="48.67215" lon="6.95777">
        <ele>285.7</ele>
        <time>2021-07-31T10:35:06Z</time>
      </trkpt>
      <trkpt lat="48.67214" lon="6.9578">
        <ele>285.8</ele>
        <time>2021-07-31T10:35:08Z</time>
      </trkpt>
      <trkpt lat="48.67213" lon="6.95782">
        <ele>285.9</ele>
        <time>2021-07-31T10:35:09Z</time>
      </trkpt>
      <trkpt lat="48.67212" lon="6.95784">
        <ele>286</ele>
        <time>2021-07-31T10:35:10Z</time>
      </trkpt>
      <trkpt lat="48.67212" lon="6.95786">
        <ele>286</ele>
        <time>2021-07-31T10:35:11Z</time>
      </trkpt>
      <trkpt lat="48.6721" lon="6.95791">
        <ele>286.2</ele>
        <time>2021-07-31T10:35:13Z</time>
      </trkpt>
      <trkpt lat="48.67208" lon="6.95794">
        <ele>286.4</ele>
        <time>2021-07-31T10:35:14Z</time>
      </trkpt>
      <trkpt lat="48.67207" lon="6.95795">
        <ele>286.5</ele>
        <time>2021-07-31T10:35:15Z</time>
      </trkpt>
      <trkpt lat="48.67206" lon="6.95798">
        <ele>286.6</ele>
        <time>2021-07-31T10:35:17Z</time>
      </trkpt>
      <trkpt lat="48.67206" lon="6.958">
        <ele>286.7</ele>
        <time>2021-07-31T10:35:18Z</time>
      </trkpt>
      <trkpt lat="48.67204" lon="6.95803">
        <ele>286.9</ele>
        <time>2021-07-31T10:35:19Z</time>
      </trkpt>
      <trkpt lat="48.67203" lon="6.95805">
        <ele>287</ele>
        <time>2021-07-31T10:35:20Z</time>
      </trkpt>
      <trkpt lat="48.67202" lon="6.95807">
        <ele>287.1</ele>
        <time>2021-07-31T10:35:22Z</time>
      </trkpt>
      <trkpt lat="48.67201" lon="6.95808">
        <ele>287.1</ele>
        <time>2021-07-31T10:35:23Z</time>
      </trkpt>
      <trkpt lat="48.67201" lon="6.95809">
        <ele>287.2</ele>
        <time>2021-07-31T10:35:24Z</time>
      </trkpt>
      <trkpt lat="48.672" lon="6.95812">
        <ele>287.3</ele>
        <time>2021-07-31T10:35:26Z</time>
      </trkpt>
      <trkpt lat="48.67198" lon="6.95816">
        <ele>287.5</ele>
        <time>2021-07-31T10:35:27Z</time>
      </trkpt>
      <trkpt lat="48.67197" lon="6.95819">
        <ele>287.6</ele>
        <time>2021-07-31T10:35:28Z</time>
      </trkpt>
      <trkpt lat="48.67196" lon="6.95821">
        <ele>287.7</ele>
        <time>2021-07-31T10:35:30Z</time>
      </trkpt>
      <trkpt lat="48.67195" lon="6.95826">
        <ele>287.9</ele>
        <time>2021-07-31T10:35:32Z</time>
      </trkpt>
      <trkpt lat="48.67194" lon="6.95827">
        <ele>287.9</ele>
        <time>2021-07-31T10:35:33Z</time>
      </trkpt>
      <trkpt lat="48.67193" lon="6.95829">
        <ele>288.1</ele>
        <time>2021-07-31T10:35:34Z</time>
      </trkpt>
      <trkpt lat="48.67192" lon="6.95832">
        <ele>288.2</ele>
        <time>2021-07-31T10:35:36Z</time>
      </trkpt>
      <trkpt lat="48.67191" lon="6.95836">
        <ele>288.3</ele>
        <time>2021-07-31T10:35:38Z</time>
      </trkpt>
      <trkpt lat="48.67189" lon="6.95839">
        <ele>288.4</ele>
        <time>2021-07-31T10:35:40Z</time>
      </trkpt>
      <trkpt lat="48.67187" lon="6.95842">
        <ele>288.5</ele>
        <time>2021-07-31T10:35:42Z</time>
      </trkpt>
      <trkpt lat="48.67186" lon="6.95844">
        <ele>288.6</ele>
        <time>2021-07-31T10:35:43Z</time>
      </trkpt>
      <trkpt lat="48.67183" lon="6.95848">
        <ele>288.8</ele>
        <time>2021-07-31T10:35:45Z</time>
      </trkpt>
      <trkpt lat="48.6718" lon="6.95854">
        <ele>289</ele>
        <time>2021-07-31T10:35:47Z</time>
      </trkpt>
      <trkpt lat="48.67179" lon="6.95856">
        <ele>289</ele>
        <time>2021-07-31T10:35:48Z</time>
      </trkpt>
      <trkpt lat="48.67178" lon="6.95857">
        <ele>289.1</ele>
        <time>2021-07-31T10:35:49Z</time>
      </trkpt>
      <trkpt lat="48.67178" lon="6.95858">
        <ele>289.1</ele>
        <time>2021-07-31T10:35:50Z</time>
      </trkpt>
      <trkpt lat="48.67176" lon="6.9586">
        <ele>289.2</ele>
        <time>2021-07-31T10:35:51Z</time>
      </trkpt>
      <trkpt lat="48.67175" lon="6.95862">
        <ele>289.2</ele>
        <time>2021-07-31T10:35:52Z</time>
      </trkpt>
      <trkpt lat="48.67174" lon="6.95864">
        <ele>289.3</ele>
        <time>2021-07-31T10:35:54Z</time>
      </trkpt>
      <trkpt lat="48.67171" lon="6.95868">
        <ele>289.4</ele>
        <time>2021-07-31T10:35:56Z</time>
      </trkpt>
      <trkpt lat="48.6717" lon="6.95869">
        <ele>289.4</ele>
        <time>2021-07-31T10:35:57Z</time>
      </trkpt>
      <trkpt lat="48.67169" lon="6.95871">
        <ele>289.5</ele>
        <time>2021-07-31T10:35:58Z</time>
      </trkpt>
      <trkpt lat="48.67168" lon="6.95872">
        <ele>289.5</ele>
        <time>2021-07-31T10:35:59Z</time>
      </trkpt>
      <trkpt lat="48.67167" lon="6.95874">
        <ele>289.5</ele>
        <time>2021-07-31T10:36:00Z</time>
      </trkpt>
      <trkpt lat="48.67166" lon="6.95877">
        <ele>289.6</ele>
        <time>2021-07-31T10:36:01Z</time>
      </trkpt>
      <trkpt lat="48.67164" lon="6.95881">
        <ele>289.7</ele>
        <time>2021-07-31T10:36:03Z</time>
      </trkpt>
      <trkpt lat="48.67161" lon="6.95883">
        <ele>289.8</ele>
        <time>2021-07-31T10:36:04Z</time>
      </trkpt>
      <trkpt lat="48.6716" lon="6.95884">
        <ele>289.8</ele>
        <time>2021-07-31T10:36:05Z</time>
      </trkpt>
      <trkpt lat="48.67158" lon="6.95887">
        <ele>289.9</ele>
        <time>2021-07-31T10:36:06Z</time>
      </trkpt>
      <trkpt lat="48.67156" lon="6.95891">
        <ele>290</ele>
        <time>2021-07-31T10:36:07Z</time>
      </trkpt>
      <trkpt lat="48.67155" lon="6.95891">
        <ele>290</ele>
        <time>2021-07-31T10:36:08Z</time>
      </trkpt>
      <trkpt lat="48.67154" lon="6.95893">
        <ele>290.1</ele>
        <time>2021-07-31T10:36:09Z</time>
      </trkpt>
      <trkpt lat="48.67153" lon="6.95896">
        <ele>290.2</ele>
        <time>2021-07-31T10:36:11Z</time>
      </trkpt>
      <trkpt lat="48.67151" lon="6.959">
        <ele>290.3</ele>
        <time>2021-07-31T10:36:12Z</time>
      </trkpt>
      <trkpt lat="48.67151" lon="6.95901">
        <ele>290.3</ele>
        <time>2021-07-31T10:36:13Z</time>
      </trkpt>
      <trkpt lat="48.67149" lon="6.95903">
        <ele>290.3</ele>
        <time>2021-07-31T10:36:14Z</time>
      </trkpt>
      <trkpt lat="48.67146" lon="6.95907">
        <ele>290.5</ele>
        <time>2021-07-31T10:36:16Z</time>
      </trkpt>
      <trkpt lat="48.67144" lon="6.95911">
        <ele>290.6</ele>
        <time>2021-07-31T10:36:17Z</time>
      </trkpt>
      <trkpt lat="48.67144" lon="6.95912">
        <ele>290.7</ele>
        <time>2021-07-31T10:36:18Z</time>
      </trkpt>
      <trkpt lat="48.67142" lon="6.95916">
        <ele>290.8</ele>
        <time>2021-07-31T10:36:19Z</time>
      </trkpt>
      <trkpt lat="48.67142" lon="6.95917">
        <ele>290.8</ele>
        <time>2021-07-31T10:36:20Z</time>
      </trkpt>
      <trkpt lat="48.6714" lon="6.95921">
        <ele>290.9</ele>
        <time>2021-07-31T10:36:21Z</time>
      </trkpt>
      <trkpt lat="48.67139" lon="6.95922">
        <ele>291</ele>
        <time>2021-07-31T10:36:22Z</time>
      </trkpt>
      <trkpt lat="48.67135" lon="6.95926">
        <ele>291.2</ele>
        <time>2021-07-31T10:36:24Z</time>
      </trkpt>
      <trkpt lat="48.67134" lon="6.95927">
        <ele>291.3</ele>
        <time>2021-07-31T10:36:25Z</time>
      </trkpt>
      <trkpt lat="48.67132" lon="6.95929">
        <ele>291.4</ele>
        <time>2021-07-31T10:36:26Z</time>
      </trkpt>
      <trkpt lat="48.67132" lon="6.95931">
        <ele>291.5</ele>
        <time>2021-07-31T10:36:27Z</time>
      </trkpt>
      <trkpt lat="48.67132" lon="6.95933">
        <ele>291.6</ele>
        <time>2021-07-31T10:36:28Z</time>
      </trkpt>
      <trkpt lat="48.67131" lon="6.95939">
        <ele>291.8</ele>
        <time>2021-07-31T10:36:30Z</time>
      </trkpt>
      <trkpt lat="48.67129" lon="6.95943">
        <ele>292</ele>
        <time>2021-07-31T10:36:31Z</time>
      </trkpt>
      <trkpt lat="48.67127" lon="6.95945">
        <ele>292.4</ele>
        <time>2021-07-31T10:36:32Z</time>
      </trkpt>
      <trkpt lat="48.67127" lon="6.95946">
        <ele>292.4</ele>
        <time>2021-07-31T10:36:34Z</time>
      </trkpt>
      <trkpt lat="48.67126" lon="6.95946">
        <ele>292.4</ele>
        <time>2021-07-31T10:36:35Z</time>
      </trkpt>
      <trkpt lat="48.67124" lon="6.95947">
        <ele>292.3</ele>
        <time>2021-07-31T10:36:36Z</time>
      </trkpt>
      <trkpt lat="48.67122" lon="6.95947">
        <ele>291.8</ele>
        <time>2021-07-31T10:36:38Z</time>
      </trkpt>
      <trkpt lat="48.67122" lon="6.95947">
        <ele>291.8</ele>
        <time>2021-07-31T10:36:39Z</time>
      </trkpt>
      <trkpt lat="48.67119" lon="6.95945">
        <ele>291.4</ele>
        <time>2021-07-31T10:36:41Z</time>
      </trkpt>
      <trkpt lat="48.67114" lon="6.9594">
        <ele>290.9</ele>
        <time>2021-07-31T10:36:42Z</time>
      </trkpt>
      <trkpt lat="48.67108" lon="6.95932">
        <ele>290.3</ele>
        <time>2021-07-31T10:36:43Z</time>
      </trkpt>
      <trkpt lat="48.67099" lon="6.95922">
        <ele>289.4</ele>
        <time>2021-07-31T10:36:45Z</time>
      </trkpt>
      <trkpt lat="48.67095" lon="6.95918">
        <ele>289</ele>
        <time>2021-07-31T10:36:46Z</time>
      </trkpt>
      <trkpt lat="48.6709" lon="6.95914">
        <ele>288.6</ele>
        <time>2021-07-31T10:36:47Z</time>
      </trkpt>
      <trkpt lat="48.67086" lon="6.95908">
        <ele>288.3</ele>
        <time>2021-07-31T10:36:48Z</time>
      </trkpt>
      <trkpt lat="48.67082" lon="6.95903">
        <ele>287.9</ele>
        <time>2021-07-31T10:36:49Z</time>
      </trkpt>
      <trkpt lat="48.67072" lon="6.95891">
        <ele>287.1</ele>
        <time>2021-07-31T10:36:51Z</time>
      </trkpt>
      <trkpt lat="48.67067" lon="6.95886">
        <ele>286.8</ele>
        <time>2021-07-31T10:36:52Z</time>
      </trkpt>
      <trkpt lat="48.67062" lon="6.95879">
        <ele>286.5</ele>
        <time>2021-07-31T10:36:53Z</time>
      </trkpt>
      <trkpt lat="48.67052" lon="6.95865">
        <ele>285.9</ele>
        <time>2021-07-31T10:36:55Z</time>
      </trkpt>
      <trkpt lat="48.67046" lon="6.95857">
        <ele>285.7</ele>
        <time>2021-07-31T10:36:56Z</time>
      </trkpt>
      <trkpt lat="48.67037" lon="6.95839">
        <ele>285.4</ele>
        <time>2021-07-31T10:36:58Z</time>
      </trkpt>
      <trkpt lat="48.67033" lon="6.9583">
        <ele>285.4</ele>
        <time>2021-07-31T10:36:59Z</time>
      </trkpt>
      <trkpt lat="48.67026" lon="6.95814">
        <ele>285.4</ele>
        <time>2021-07-31T10:37:01Z</time>
      </trkpt>
      <trkpt lat="48.67023" lon="6.95806">
        <ele>285.5</ele>
        <time>2021-07-31T10:37:02Z</time>
      </trkpt>
      <trkpt lat="48.67017" lon="6.95794">
        <ele>285.7</ele>
        <time>2021-07-31T10:37:04Z</time>
      </trkpt>
      <trkpt lat="48.67011" lon="6.95785">
        <ele>285.8</ele>
        <time>2021-07-31T10:37:06Z</time>
      </trkpt>
      <trkpt lat="48.67005" lon="6.95776">
        <ele>286</ele>
        <time>2021-07-31T10:37:08Z</time>
      </trkpt>
      <trkpt lat="48.66998" lon="6.95766">
        <ele>286.2</ele>
        <time>2021-07-31T10:37:10Z</time>
      </trkpt>
      <trkpt lat="48.66997" lon="6.95761">
        <ele>286.3</ele>
        <time>2021-07-31T10:37:11Z</time>
      </trkpt>
      <trkpt lat="48.66994" lon="6.95754">
        <ele>286.5</ele>
        <time>2021-07-31T10:37:12Z</time>
      </trkpt>
      <trkpt lat="48.66991" lon="6.95749">
        <ele>286.6</ele>
        <time>2021-07-31T10:37:14Z</time>
      </trkpt>
      <trkpt lat="48.66987" lon="6.95745">
        <ele>286.7</ele>
        <time>2021-07-31T10:37:16Z</time>
      </trkpt>
      <trkpt lat="48.66986" lon="6.95744">
        <ele>286.7</ele>
        <time>2021-07-31T10:37:17Z</time>
      </trkpt>
      <trkpt lat="48.66985" lon="6.95742">
        <ele>286.7</ele>
        <time>2021-07-31T10:37:18Z</time>
      </trkpt>
      <trkpt lat="48.66983" lon="6.9574">
        <ele>286.7</ele>
        <time>2021-07-31T10:37:19Z</time>
      </trkpt>
      <trkpt lat="48.66983" lon="6.95738">
        <ele>286.7</ele>
        <time>2021-07-31T10:37:20Z</time>
      </trkpt>
      <trkpt lat="48.66982" lon="6.95734">
        <ele>286.7</ele>
        <time>2021-07-31T10:37:22Z</time>
      </trkpt>
      <trkpt lat="48.66982" lon="6.95732">
        <ele>286.7</ele>
        <time>2021-07-31T10:37:23Z</time>
      </trkpt>
      <trkpt lat="48.6698" lon="6.95729">
        <ele>287.1</ele>
        <time>2021-07-31T10:37:24Z</time>
      </trkpt>
      <trkpt lat="48.66979" lon="6.95727">
        <ele>287.3</ele>
        <time>2021-07-31T10:37:26Z</time>
      </trkpt>
      <trkpt lat="48.6698" lon="6.95727">
        <ele>287.5</ele>
        <time>2021-07-31T10:37:27Z</time>
      </trkpt>
      <trkpt lat="48.6698" lon="6.95726">
        <ele>287.5</ele>
        <time>2021-07-31T10:37:29Z</time>
      </trkpt>
      <trkpt lat="48.66979" lon="6.95726">
        <ele>287.6</ele>
        <time>2021-07-31T10:37:30Z</time>
      </trkpt>
      <trkpt lat="48.66978" lon="6.95725">
        <ele>287.7</ele>
        <time>2021-07-31T10:37:33Z</time>
      </trkpt>
      <trkpt lat="48.66977" lon="6.95725">
        <ele>287.9</ele>
        <time>2021-07-31T10:37:34Z</time>
      </trkpt>
      <trkpt lat="48.66962" lon="6.9571">
        <ele>290.2</ele>
        <time>2021-07-31T10:37:51Z</time>
      </trkpt>
      <trkpt lat="48.6696" lon="6.95709">
        <ele>290.5</ele>
        <time>2021-07-31T10:37:52Z</time>
      </trkpt>
      <trkpt lat="48.66955" lon="6.9571">
        <ele>291.2</ele>
        <time>2021-07-31T10:37:54Z</time>
      </trkpt>
      <trkpt lat="48.66952" lon="6.95711">
        <ele>291.3</ele>
        <time>2021-07-31T10:37:55Z</time>
      </trkpt>
      <trkpt lat="48.6695" lon="6.95713">
        <ele>291.6</ele>
        <time>2021-07-31T10:37:57Z</time>
      </trkpt>
      <trkpt lat="48.66948" lon="6.95713">
        <ele>291.8</ele>
        <time>2021-07-31T10:37:58Z</time>
      </trkpt>
      <trkpt lat="48.66946" lon="6.95715">
        <ele>292</ele>
        <time>2021-07-31T10:38:00Z</time>
      </trkpt>
      <trkpt lat="48.66944" lon="6.95716">
        <ele>292.1</ele>
        <time>2021-07-31T10:38:01Z</time>
      </trkpt>
      <trkpt lat="48.6694" lon="6.95717">
        <ele>292.5</ele>
        <time>2021-07-31T10:38:03Z</time>
      </trkpt>
      <trkpt lat="48.66936" lon="6.95718">
        <ele>292.9</ele>
        <time>2021-07-31T10:38:05Z</time>
      </trkpt>
      <trkpt lat="48.66934" lon="6.95719">
        <ele>293.1</ele>
        <time>2021-07-31T10:38:06Z</time>
      </trkpt>
      <trkpt lat="48.66932" lon="6.95721">
        <ele>293.3</ele>
        <time>2021-07-31T10:38:08Z</time>
      </trkpt>
      <trkpt lat="48.66932" lon="6.95723">
        <ele>293.4</ele>
        <time>2021-07-31T10:38:09Z</time>
      </trkpt>
      <trkpt lat="48.6693" lon="6.95724">
        <ele>293.6</ele>
        <time>2021-07-31T10:38:11Z</time>
      </trkpt>
      <trkpt lat="48.66929" lon="6.95725">
        <ele>293.7</ele>
        <time>2021-07-31T10:38:12Z</time>
      </trkpt>
      <trkpt lat="48.66928" lon="6.95726">
        <ele>293.8</ele>
        <time>2021-07-31T10:38:14Z</time>
      </trkpt>
      <trkpt lat="48.66927" lon="6.95727">
        <ele>294</ele>
        <time>2021-07-31T10:38:16Z</time>
      </trkpt>
      <trkpt lat="48.66925" lon="6.95728">
        <ele>294.1</ele>
        <time>2021-07-31T10:38:29Z</time>
      </trkpt>
      <trkpt lat="48.66924" lon="6.9573">
        <ele>294.2</ele>
        <time>2021-07-31T10:38:30Z</time>
      </trkpt>
      <trkpt lat="48.66923" lon="6.95731">
        <ele>294.4</ele>
        <time>2021-07-31T10:38:31Z</time>
      </trkpt>
      <trkpt lat="48.66919" lon="6.95735">
        <ele>294.9</ele>
        <time>2021-07-31T10:38:32Z</time>
      </trkpt>
      <trkpt lat="48.66914" lon="6.95739">
        <ele>295.4</ele>
        <time>2021-07-31T10:38:33Z</time>
      </trkpt>
      <trkpt lat="48.66911" lon="6.95742">
        <ele>295.7</ele>
        <time>2021-07-31T10:38:35Z</time>
      </trkpt>
      <trkpt lat="48.66906" lon="6.95747">
        <ele>296.2</ele>
        <time>2021-07-31T10:38:37Z</time>
      </trkpt>
      <trkpt lat="48.66906" lon="6.95747">
        <ele>296.3</ele>
        <time>2021-07-31T10:38:38Z</time>
      </trkpt>
      <trkpt lat="48.66905" lon="6.95748">
        <ele>296.4</ele>
        <time>2021-07-31T10:38:40Z</time>
      </trkpt>
      <trkpt lat="48.66904" lon="6.95748">
        <ele>296.4</ele>
        <time>2021-07-31T10:38:41Z</time>
      </trkpt>
      <trkpt lat="48.66903" lon="6.95748">
        <ele>296.5</ele>
        <time>2021-07-31T10:38:42Z</time>
      </trkpt>
      <trkpt lat="48.66903" lon="6.95749">
        <ele>296.5</ele>
        <time>2021-07-31T10:38:43Z</time>
      </trkpt>
      <trkpt lat="48.66902" lon="6.9575">
        <ele>296.6</ele>
        <time>2021-07-31T10:38:44Z</time>
      </trkpt>
      <trkpt lat="48.66901" lon="6.95751">
        <ele>296.7</ele>
        <time>2021-07-31T10:38:45Z</time>
      </trkpt>
      <trkpt lat="48.66887" lon="6.95762">
        <ele>298</ele>
        <time>2021-07-31T10:38:48Z</time>
      </trkpt>
      <trkpt lat="48.66883" lon="6.95764">
        <ele>298.2</ele>
        <time>2021-07-31T10:38:49Z</time>
      </trkpt>
      <trkpt lat="48.66879" lon="6.95767">
        <ele>298.4</ele>
        <time>2021-07-31T10:38:51Z</time>
      </trkpt>
      <trkpt lat="48.66877" lon="6.9577">
        <ele>298.5</ele>
        <time>2021-07-31T10:38:52Z</time>
      </trkpt>
      <trkpt lat="48.66873" lon="6.95775">
        <ele>298.8</ele>
        <time>2021-07-31T10:38:54Z</time>
      </trkpt>
      <trkpt lat="48.66872" lon="6.95777">
        <ele>298.9</ele>
        <time>2021-07-31T10:38:55Z</time>
      </trkpt>
      <trkpt lat="48.66871" lon="6.95779">
        <ele>298.9</ele>
        <time>2021-07-31T10:38:56Z</time>
      </trkpt>
      <trkpt lat="48.66869" lon="6.95783">
        <ele>299.1</ele>
        <time>2021-07-31T10:38:57Z</time>
      </trkpt>
      <trkpt lat="48.66867" lon="6.95785">
        <ele>299.2</ele>
        <time>2021-07-31T10:38:59Z</time>
      </trkpt>
      <trkpt lat="48.66865" lon="6.95788">
        <ele>299.3</ele>
        <time>2021-07-31T10:39:00Z</time>
      </trkpt>
      <trkpt lat="48.66864" lon="6.95789">
        <ele>299.3</ele>
        <time>2021-07-31T10:39:01Z</time>
      </trkpt>
      <trkpt lat="48.66862" lon="6.9579">
        <ele>299.4</ele>
        <time>2021-07-31T10:39:02Z</time>
      </trkpt>
      <trkpt lat="48.66858" lon="6.95792">
        <ele>299.6</ele>
        <time>2021-07-31T10:39:04Z</time>
      </trkpt>
      <trkpt lat="48.66854" lon="6.95795">
        <ele>299.8</ele>
        <time>2021-07-31T10:39:06Z</time>
      </trkpt>
      <trkpt lat="48.66852" lon="6.95799">
        <ele>299.9</ele>
        <time>2021-07-31T10:39:07Z</time>
      </trkpt>
      <trkpt lat="48.66851" lon="6.958">
        <ele>299.9</ele>
        <time>2021-07-31T10:39:08Z</time>
      </trkpt>
      <trkpt lat="48.6685" lon="6.95802">
        <ele>300</ele>
        <time>2021-07-31T10:39:09Z</time>
      </trkpt>
      <trkpt lat="48.66849" lon="6.95803">
        <ele>300</ele>
        <time>2021-07-31T10:39:10Z</time>
      </trkpt>
      <trkpt lat="48.66847" lon="6.95805">
        <ele>300.1</ele>
        <time>2021-07-31T10:39:12Z</time>
      </trkpt>
      <trkpt lat="48.66844" lon="6.95809">
        <ele>300.2</ele>
        <time>2021-07-31T10:39:13Z</time>
      </trkpt>
      <trkpt lat="48.66843" lon="6.9581">
        <ele>300.3</ele>
        <time>2021-07-31T10:39:14Z</time>
      </trkpt>
      <trkpt lat="48.6684" lon="6.95812">
        <ele>300.4</ele>
        <time>2021-07-31T10:39:15Z</time>
      </trkpt>
      <trkpt lat="48.66839" lon="6.95812">
        <ele>300.4</ele>
        <time>2021-07-31T10:39:16Z</time>
      </trkpt>
      <trkpt lat="48.66836" lon="6.95814">
        <ele>300.6</ele>
        <time>2021-07-31T10:39:18Z</time>
      </trkpt>
      <trkpt lat="48.66835" lon="6.95815">
        <ele>300.6</ele>
        <time>2021-07-31T10:39:19Z</time>
      </trkpt>
      <trkpt lat="48.66834" lon="6.95817">
        <ele>300.7</ele>
        <time>2021-07-31T10:39:21Z</time>
      </trkpt>
      <trkpt lat="48.66832" lon="6.95818">
        <ele>300.7</ele>
        <time>2021-07-31T10:39:22Z</time>
      </trkpt>
      <trkpt lat="48.6683" lon="6.9582">
        <ele>300.8</ele>
        <time>2021-07-31T10:39:23Z</time>
      </trkpt>
      <trkpt lat="48.66829" lon="6.95824">
        <ele>301</ele>
        <time>2021-07-31T10:39:25Z</time>
      </trkpt>
      <trkpt lat="48.66828" lon="6.95826">
        <ele>301</ele>
        <time>2021-07-31T10:39:26Z</time>
      </trkpt>
      <trkpt lat="48.66826" lon="6.95827">
        <ele>301.1</ele>
        <time>2021-07-31T10:39:27Z</time>
      </trkpt>
      <trkpt lat="48.66822" lon="6.9583">
        <ele>301.3</ele>
        <time>2021-07-31T10:39:29Z</time>
      </trkpt>
      <trkpt lat="48.66819" lon="6.95832">
        <ele>301.4</ele>
        <time>2021-07-31T10:39:30Z</time>
      </trkpt>
      <trkpt lat="48.66818" lon="6.95833">
        <ele>301.5</ele>
        <time>2021-07-31T10:39:31Z</time>
      </trkpt>
      <trkpt lat="48.66816" lon="6.95834">
        <ele>301.6</ele>
        <time>2021-07-31T10:39:33Z</time>
      </trkpt>
      <trkpt lat="48.66813" lon="6.95837">
        <ele>301.7</ele>
        <time>2021-07-31T10:39:35Z</time>
      </trkpt>
      <trkpt lat="48.66811" lon="6.95838">
        <ele>301.8</ele>
        <time>2021-07-31T10:39:36Z</time>
      </trkpt>
      <trkpt lat="48.6681" lon="6.9584">
        <ele>301.9</ele>
        <time>2021-07-31T10:39:38Z</time>
      </trkpt>
      <trkpt lat="48.66808" lon="6.95843">
        <ele>301.9</ele>
        <time>2021-07-31T10:39:39Z</time>
      </trkpt>
      <trkpt lat="48.66806" lon="6.95847">
        <ele>302.1</ele>
        <time>2021-07-31T10:39:41Z</time>
      </trkpt>
      <trkpt lat="48.66803" lon="6.9585">
        <ele>302.2</ele>
        <time>2021-07-31T10:39:42Z</time>
      </trkpt>
      <trkpt lat="48.66802" lon="6.95851">
        <ele>302.2</ele>
        <time>2021-07-31T10:39:43Z</time>
      </trkpt>
      <trkpt lat="48.66799" lon="6.95856">
        <ele>302.4</ele>
        <time>2021-07-31T10:39:45Z</time>
      </trkpt>
      <trkpt lat="48.66798" lon="6.95858">
        <ele>302.4</ele>
        <time>2021-07-31T10:39:46Z</time>
      </trkpt>
      <trkpt lat="48.66796" lon="6.9586">
        <ele>302.5</ele>
        <time>2021-07-31T10:39:47Z</time>
      </trkpt>
      <trkpt lat="48.66794" lon="6.95862">
        <ele>302.6</ele>
        <time>2021-07-31T10:39:48Z</time>
      </trkpt>
      <trkpt lat="48.66792" lon="6.95865">
        <ele>302.6</ele>
        <time>2021-07-31T10:39:49Z</time>
      </trkpt>
      <trkpt lat="48.66789" lon="6.95868">
        <ele>302.7</ele>
        <time>2021-07-31T10:39:50Z</time>
      </trkpt>
      <trkpt lat="48.66788" lon="6.95869">
        <ele>302.7</ele>
        <time>2021-07-31T10:39:51Z</time>
      </trkpt>
      <trkpt lat="48.66787" lon="6.95871">
        <ele>302.8</ele>
        <time>2021-07-31T10:39:52Z</time>
      </trkpt>
      <trkpt lat="48.66784" lon="6.95875">
        <ele>302.9</ele>
        <time>2021-07-31T10:39:54Z</time>
      </trkpt>
      <trkpt lat="48.66783" lon="6.95878">
        <ele>302.9</ele>
        <time>2021-07-31T10:39:56Z</time>
      </trkpt>
      <trkpt lat="48.66782" lon="6.95879">
        <ele>302.9</ele>
        <time>2021-07-31T10:39:57Z</time>
      </trkpt>
      <trkpt lat="48.66779" lon="6.95882">
        <ele>303</ele>
        <time>2021-07-31T10:39:59Z</time>
      </trkpt>
      <trkpt lat="48.66777" lon="6.95885">
        <ele>303</ele>
        <time>2021-07-31T10:40:00Z</time>
      </trkpt>
      <trkpt lat="48.66776" lon="6.95886">
        <ele>303</ele>
        <time>2021-07-31T10:40:01Z</time>
      </trkpt>
      <trkpt lat="48.66773" lon="6.9589">
        <ele>303</ele>
        <time>2021-07-31T10:40:02Z</time>
      </trkpt>
      <trkpt lat="48.66772" lon="6.95891">
        <ele>303.1</ele>
        <time>2021-07-31T10:40:03Z</time>
      </trkpt>
      <trkpt lat="48.66769" lon="6.95896">
        <ele>303.1</ele>
        <time>2021-07-31T10:40:05Z</time>
      </trkpt>
      <trkpt lat="48.66768" lon="6.95898">
        <ele>303.1</ele>
        <time>2021-07-31T10:40:06Z</time>
      </trkpt>
      <trkpt lat="48.66766" lon="6.959">
        <ele>303.1</ele>
        <time>2021-07-31T10:40:07Z</time>
      </trkpt>
      <trkpt lat="48.66764" lon="6.95902">
        <ele>303.1</ele>
        <time>2021-07-31T10:40:08Z</time>
      </trkpt>
      <trkpt lat="48.6676" lon="6.95904">
        <ele>303.2</ele>
        <time>2021-07-31T10:40:09Z</time>
      </trkpt>
      <trkpt lat="48.66758" lon="6.95906">
        <ele>303.2</ele>
        <time>2021-07-31T10:40:10Z</time>
      </trkpt>
      <trkpt lat="48.66755" lon="6.95909">
        <ele>303.2</ele>
        <time>2021-07-31T10:40:11Z</time>
      </trkpt>
      <trkpt lat="48.66752" lon="6.95912">
        <ele>303.3</ele>
        <time>2021-07-31T10:40:13Z</time>
      </trkpt>
      <trkpt lat="48.66749" lon="6.95914">
        <ele>303.3</ele>
        <time>2021-07-31T10:40:14Z</time>
      </trkpt>
      <trkpt lat="48.66745" lon="6.95918">
        <ele>303.4</ele>
        <time>2021-07-31T10:40:15Z</time>
      </trkpt>
      <trkpt lat="48.66742" lon="6.95921">
        <ele>303.4</ele>
        <time>2021-07-31T10:40:17Z</time>
      </trkpt>
      <trkpt lat="48.66739" lon="6.95924">
        <ele>303.4</ele>
        <time>2021-07-31T10:40:18Z</time>
      </trkpt>
      <trkpt lat="48.66735" lon="6.9593">
        <ele>303.5</ele>
        <time>2021-07-31T10:40:20Z</time>
      </trkpt>
      <trkpt lat="48.66732" lon="6.95935">
        <ele>303.5</ele>
        <time>2021-07-31T10:40:21Z</time>
      </trkpt>
      <trkpt lat="48.6673" lon="6.95937">
        <ele>303.5</ele>
        <time>2021-07-31T10:40:22Z</time>
      </trkpt>
      <trkpt lat="48.66728" lon="6.9594">
        <ele>303.5</ele>
        <time>2021-07-31T10:40:23Z</time>
      </trkpt>
      <trkpt lat="48.66726" lon="6.95946">
        <ele>303.6</ele>
        <time>2021-07-31T10:40:25Z</time>
      </trkpt>
      <trkpt lat="48.66723" lon="6.9595">
        <ele>303.6</ele>
        <time>2021-07-31T10:40:26Z</time>
      </trkpt>
      <trkpt lat="48.66721" lon="6.95956">
        <ele>303.7</ele>
        <time>2021-07-31T10:40:27Z</time>
      </trkpt>
      <trkpt lat="48.66721" lon="6.95957">
        <ele>303.7</ele>
        <time>2021-07-31T10:40:28Z</time>
      </trkpt>
      <trkpt lat="48.6672" lon="6.95961">
        <ele>303.8</ele>
        <time>2021-07-31T10:40:30Z</time>
      </trkpt>
      <trkpt lat="48.66717" lon="6.95965">
        <ele>303.8</ele>
        <time>2021-07-31T10:40:31Z</time>
      </trkpt>
      <trkpt lat="48.66715" lon="6.95968">
        <ele>303.9</ele>
        <time>2021-07-31T10:40:32Z</time>
      </trkpt>
      <trkpt lat="48.66713" lon="6.95974">
        <ele>304</ele>
        <time>2021-07-31T10:40:33Z</time>
      </trkpt>
      <trkpt lat="48.66712" lon="6.95976">
        <ele>304</ele>
        <time>2021-07-31T10:40:34Z</time>
      </trkpt>
      <trkpt lat="48.66711" lon="6.9598">
        <ele>304.1</ele>
        <time>2021-07-31T10:40:35Z</time>
      </trkpt>
      <trkpt lat="48.6671" lon="6.95984">
        <ele>304.2</ele>
        <time>2021-07-31T10:40:37Z</time>
      </trkpt>
      <trkpt lat="48.66709" lon="6.95988">
        <ele>304.3</ele>
        <time>2021-07-31T10:40:38Z</time>
      </trkpt>
      <trkpt lat="48.66707" lon="6.95994">
        <ele>304.4</ele>
        <time>2021-07-31T10:40:39Z</time>
      </trkpt>
      <trkpt lat="48.66707" lon="6.95997">
        <ele>304.4</ele>
        <time>2021-07-31T10:40:40Z</time>
      </trkpt>
      <trkpt lat="48.66705" lon="6.96001">
        <ele>304.6</ele>
        <time>2021-07-31T10:40:41Z</time>
      </trkpt>
      <trkpt lat="48.66704" lon="6.96006">
        <ele>304.7</ele>
        <time>2021-07-31T10:40:43Z</time>
      </trkpt>
      <trkpt lat="48.66702" lon="6.9601">
        <ele>304.9</ele>
        <time>2021-07-31T10:40:44Z</time>
      </trkpt>
      <trkpt lat="48.667" lon="6.96014">
        <ele>305.1</ele>
        <time>2021-07-31T10:40:45Z</time>
      </trkpt>
      <trkpt lat="48.66699" lon="6.96018">
        <ele>305.3</ele>
        <time>2021-07-31T10:40:46Z</time>
      </trkpt>
      <trkpt lat="48.66697" lon="6.96023">
        <ele>305.4</ele>
        <time>2021-07-31T10:40:48Z</time>
      </trkpt>
      <trkpt lat="48.66696" lon="6.96024">
        <ele>305.4</ele>
        <time>2021-07-31T10:40:49Z</time>
      </trkpt>
      <trkpt lat="48.66695" lon="6.96028">
        <ele>305.5</ele>
        <time>2021-07-31T10:40:50Z</time>
      </trkpt>
      <trkpt lat="48.66691" lon="6.96033">
        <ele>305.6</ele>
        <time>2021-07-31T10:40:52Z</time>
      </trkpt>
      <trkpt lat="48.66689" lon="6.96037">
        <ele>305.7</ele>
        <time>2021-07-31T10:40:53Z</time>
      </trkpt>
      <trkpt lat="48.66688" lon="6.96038">
        <ele>305.7</ele>
        <time>2021-07-31T10:40:54Z</time>
      </trkpt>
      <trkpt lat="48.66686" lon="6.96041">
        <ele>305.8</ele>
        <time>2021-07-31T10:40:55Z</time>
      </trkpt>
      <trkpt lat="48.66683" lon="6.96043">
        <ele>305.9</ele>
        <time>2021-07-31T10:40:57Z</time>
      </trkpt>
      <trkpt lat="48.66679" lon="6.96048">
        <ele>306</ele>
        <time>2021-07-31T10:40:59Z</time>
      </trkpt>
      <trkpt lat="48.66676" lon="6.9605">
        <ele>306.1</ele>
        <time>2021-07-31T10:41:00Z</time>
      </trkpt>
      <trkpt lat="48.66673" lon="6.96052">
        <ele>306.2</ele>
        <time>2021-07-31T10:41:02Z</time>
      </trkpt>
      <trkpt lat="48.6667" lon="6.96055">
        <ele>306.3</ele>
        <time>2021-07-31T10:41:03Z</time>
      </trkpt>
      <trkpt lat="48.66667" lon="6.96059">
        <ele>306.4</ele>
        <time>2021-07-31T10:41:05Z</time>
      </trkpt>
      <trkpt lat="48.66666" lon="6.9606">
        <ele>306.5</ele>
        <time>2021-07-31T10:41:06Z</time>
      </trkpt>
      <trkpt lat="48.66665" lon="6.96061">
        <ele>306.5</ele>
        <time>2021-07-31T10:41:07Z</time>
      </trkpt>
      <trkpt lat="48.66662" lon="6.96063">
        <ele>306.6</ele>
        <time>2021-07-31T10:41:08Z</time>
      </trkpt>
      <trkpt lat="48.66658" lon="6.96067">
        <ele>306.7</ele>
        <time>2021-07-31T10:41:10Z</time>
      </trkpt>
      <trkpt lat="48.66655" lon="6.96069">
        <ele>306.7</ele>
        <time>2021-07-31T10:41:11Z</time>
      </trkpt>
      <trkpt lat="48.66652" lon="6.96072">
        <ele>306.8</ele>
        <time>2021-07-31T10:41:12Z</time>
      </trkpt>
      <trkpt lat="48.66649" lon="6.96074">
        <ele>306.8</ele>
        <time>2021-07-31T10:41:13Z</time>
      </trkpt>
      <trkpt lat="48.66646" lon="6.96076">
        <ele>306.9</ele>
        <time>2021-07-31T10:41:14Z</time>
      </trkpt>
      <trkpt lat="48.66643" lon="6.9608">
        <ele>306.9</ele>
        <time>2021-07-31T10:41:16Z</time>
      </trkpt>
      <trkpt lat="48.6664" lon="6.96083">
        <ele>306.9</ele>
        <time>2021-07-31T10:41:17Z</time>
      </trkpt>
      <trkpt lat="48.66638" lon="6.96084">
        <ele>307</ele>
        <time>2021-07-31T10:41:18Z</time>
      </trkpt>
      <trkpt lat="48.66635" lon="6.96087">
        <ele>307</ele>
        <time>2021-07-31T10:41:19Z</time>
      </trkpt>
      <trkpt lat="48.66632" lon="6.9609">
        <ele>307</ele>
        <time>2021-07-31T10:41:21Z</time>
      </trkpt>
      <trkpt lat="48.66627" lon="6.96094">
        <ele>307.1</ele>
        <time>2021-07-31T10:41:23Z</time>
      </trkpt>
      <trkpt lat="48.66624" lon="6.96096">
        <ele>307.1</ele>
        <time>2021-07-31T10:41:24Z</time>
      </trkpt>
      <trkpt lat="48.6662" lon="6.96099">
        <ele>307.2</ele>
        <time>2021-07-31T10:41:25Z</time>
      </trkpt>
      <trkpt lat="48.66617" lon="6.96101">
        <ele>307.3</ele>
        <time>2021-07-31T10:41:26Z</time>
      </trkpt>
      <trkpt lat="48.66615" lon="6.96103">
        <ele>307.3</ele>
        <time>2021-07-31T10:41:27Z</time>
      </trkpt>
      <trkpt lat="48.66611" lon="6.96107">
        <ele>307.4</ele>
        <time>2021-07-31T10:41:29Z</time>
      </trkpt>
      <trkpt lat="48.66608" lon="6.96109">
        <ele>307.5</ele>
        <time>2021-07-31T10:41:30Z</time>
      </trkpt>
      <trkpt lat="48.66605" lon="6.96111">
        <ele>307.5</ele>
        <time>2021-07-31T10:41:31Z</time>
      </trkpt>
      <trkpt lat="48.66601" lon="6.96113">
        <ele>307.6</ele>
        <time>2021-07-31T10:41:32Z</time>
      </trkpt>
      <trkpt lat="48.66597" lon="6.96115">
        <ele>307.7</ele>
        <time>2021-07-31T10:41:34Z</time>
      </trkpt>
      <trkpt lat="48.66594" lon="6.96117">
        <ele>307.7</ele>
        <time>2021-07-31T10:41:35Z</time>
      </trkpt>
      <trkpt lat="48.66593" lon="6.96118">
        <ele>307.8</ele>
        <time>2021-07-31T10:41:36Z</time>
      </trkpt>
      <trkpt lat="48.6659" lon="6.96121">
        <ele>307.9</ele>
        <time>2021-07-31T10:41:37Z</time>
      </trkpt>
      <trkpt lat="48.66589" lon="6.96122">
        <ele>307.9</ele>
        <time>2021-07-31T10:41:38Z</time>
      </trkpt>
      <trkpt lat="48.66587" lon="6.96124">
        <ele>308</ele>
        <time>2021-07-31T10:41:39Z</time>
      </trkpt>
      <trkpt lat="48.66585" lon="6.96127">
        <ele>308</ele>
        <time>2021-07-31T10:41:41Z</time>
      </trkpt>
      <trkpt lat="48.66582" lon="6.96129">
        <ele>308.1</ele>
        <time>2021-07-31T10:41:42Z</time>
      </trkpt>
      <trkpt lat="48.66578" lon="6.96133">
        <ele>308.3</ele>
        <time>2021-07-31T10:41:44Z</time>
      </trkpt>
      <trkpt lat="48.66575" lon="6.96135">
        <ele>308.3</ele>
        <time>2021-07-31T10:41:45Z</time>
      </trkpt>
      <trkpt lat="48.66574" lon="6.96136">
        <ele>308.4</ele>
        <time>2021-07-31T10:41:46Z</time>
      </trkpt>
      <trkpt lat="48.66571" lon="6.96139">
        <ele>308.5</ele>
        <time>2021-07-31T10:41:48Z</time>
      </trkpt>
      <trkpt lat="48.66568" lon="6.96143">
        <ele>308.6</ele>
        <time>2021-07-31T10:41:49Z</time>
      </trkpt>
      <trkpt lat="48.66564" lon="6.96146">
        <ele>308.7</ele>
        <time>2021-07-31T10:41:51Z</time>
      </trkpt>
      <trkpt lat="48.66563" lon="6.96147">
        <ele>308.8</ele>
        <time>2021-07-31T10:41:52Z</time>
      </trkpt>
      <trkpt lat="48.66562" lon="6.96148">
        <ele>308.8</ele>
        <time>2021-07-31T10:41:53Z</time>
      </trkpt>
      <trkpt lat="48.66559" lon="6.96151">
        <ele>308.9</ele>
        <time>2021-07-31T10:41:54Z</time>
      </trkpt>
      <trkpt lat="48.66558" lon="6.96152">
        <ele>309</ele>
        <time>2021-07-31T10:41:55Z</time>
      </trkpt>
      <trkpt lat="48.66555" lon="6.96155">
        <ele>309.1</ele>
        <time>2021-07-31T10:41:56Z</time>
      </trkpt>
      <trkpt lat="48.66554" lon="6.96156">
        <ele>309.2</ele>
        <time>2021-07-31T10:41:57Z</time>
      </trkpt>
      <trkpt lat="48.66553" lon="6.96158">
        <ele>309.3</ele>
        <time>2021-07-31T10:41:58Z</time>
      </trkpt>
      <trkpt lat="48.66551" lon="6.96159">
        <ele>309.4</ele>
        <time>2021-07-31T10:42:00Z</time>
      </trkpt>
      <trkpt lat="48.66548" lon="6.96162">
        <ele>309.6</ele>
        <time>2021-07-31T10:42:02Z</time>
      </trkpt>
      <trkpt lat="48.66546" lon="6.96164">
        <ele>309.8</ele>
        <time>2021-07-31T10:42:03Z</time>
      </trkpt>
      <trkpt lat="48.66544" lon="6.96166">
        <ele>309.9</ele>
        <time>2021-07-31T10:42:05Z</time>
      </trkpt>
      <trkpt lat="48.66542" lon="6.96167">
        <ele>310.1</ele>
        <time>2021-07-31T10:42:06Z</time>
      </trkpt>
      <trkpt lat="48.66539" lon="6.9617">
        <ele>310.3</ele>
        <time>2021-07-31T10:42:08Z</time>
      </trkpt>
      <trkpt lat="48.66538" lon="6.96171">
        <ele>310.5</ele>
        <time>2021-07-31T10:42:09Z</time>
      </trkpt>
      <trkpt lat="48.66535" lon="6.96173">
        <ele>310.7</ele>
        <time>2021-07-31T10:42:11Z</time>
      </trkpt>
      <trkpt lat="48.66533" lon="6.96174">
        <ele>310.8</ele>
        <time>2021-07-31T10:42:12Z</time>
      </trkpt>
      <trkpt lat="48.66532" lon="6.96174">
        <ele>310.9</ele>
        <time>2021-07-31T10:42:14Z</time>
      </trkpt>
      <trkpt lat="48.66531" lon="6.96175">
        <ele>311</ele>
        <time>2021-07-31T10:42:15Z</time>
      </trkpt>
      <trkpt lat="48.66528" lon="6.96177">
        <ele>311.3</ele>
        <time>2021-07-31T10:42:16Z</time>
      </trkpt>
      <trkpt lat="48.66527" lon="6.96178">
        <ele>311.4</ele>
        <time>2021-07-31T10:42:17Z</time>
      </trkpt>
      <trkpt lat="48.66524" lon="6.96179">
        <ele>311.7</ele>
        <time>2021-07-31T10:42:19Z</time>
      </trkpt>
      <trkpt lat="48.66523" lon="6.96179">
        <ele>311.8</ele>
        <time>2021-07-31T10:42:20Z</time>
      </trkpt>
      <trkpt lat="48.6652" lon="6.96181">
        <ele>312.1</ele>
        <time>2021-07-31T10:42:21Z</time>
      </trkpt>
      <trkpt lat="48.66518" lon="6.96182">
        <ele>312.2</ele>
        <time>2021-07-31T10:42:22Z</time>
      </trkpt>
      <trkpt lat="48.66517" lon="6.96182">
        <ele>312.3</ele>
        <time>2021-07-31T10:42:24Z</time>
      </trkpt>
      <trkpt lat="48.66515" lon="6.96183">
        <ele>312.4</ele>
        <time>2021-07-31T10:42:25Z</time>
      </trkpt>
      <trkpt lat="48.66513" lon="6.96186">
        <ele>312.7</ele>
        <time>2021-07-31T10:42:26Z</time>
      </trkpt>
      <trkpt lat="48.66511" lon="6.96187">
        <ele>312.8</ele>
        <time>2021-07-31T10:42:27Z</time>
      </trkpt>
      <trkpt lat="48.6651" lon="6.96188">
        <ele>312.9</ele>
        <time>2021-07-31T10:42:28Z</time>
      </trkpt>
      <trkpt lat="48.66509" lon="6.9619">
        <ele>313</ele>
        <time>2021-07-31T10:42:29Z</time>
      </trkpt>
      <trkpt lat="48.66506" lon="6.96192">
        <ele>313.2</ele>
        <time>2021-07-31T10:42:30Z</time>
      </trkpt>
      <trkpt lat="48.66505" lon="6.96193">
        <ele>313.3</ele>
        <time>2021-07-31T10:42:32Z</time>
      </trkpt>
      <trkpt lat="48.66503" lon="6.96194">
        <ele>313.4</ele>
        <time>2021-07-31T10:42:33Z</time>
      </trkpt>
      <trkpt lat="48.66502" lon="6.96195">
        <ele>313.5</ele>
        <time>2021-07-31T10:42:34Z</time>
      </trkpt>
      <trkpt lat="48.66499" lon="6.96197">
        <ele>313.8</ele>
        <time>2021-07-31T10:42:36Z</time>
      </trkpt>
      <trkpt lat="48.66497" lon="6.962">
        <ele>313.9</ele>
        <time>2021-07-31T10:42:38Z</time>
      </trkpt>
      <trkpt lat="48.66495" lon="6.96202">
        <ele>314.1</ele>
        <time>2021-07-31T10:42:39Z</time>
      </trkpt>
      <trkpt lat="48.66492" lon="6.96204">
        <ele>314.3</ele>
        <time>2021-07-31T10:42:41Z</time>
      </trkpt>
      <trkpt lat="48.66491" lon="6.96205">
        <ele>314.4</ele>
        <time>2021-07-31T10:42:42Z</time>
      </trkpt>
      <trkpt lat="48.6649" lon="6.96207">
        <ele>314.5</ele>
        <time>2021-07-31T10:42:43Z</time>
      </trkpt>
      <trkpt lat="48.66488" lon="6.96209">
        <ele>314.6</ele>
        <time>2021-07-31T10:42:44Z</time>
      </trkpt>
      <trkpt lat="48.66486" lon="6.96212">
        <ele>314.8</ele>
        <time>2021-07-31T10:42:46Z</time>
      </trkpt>
      <trkpt lat="48.66482" lon="6.96214">
        <ele>315</ele>
        <time>2021-07-31T10:42:48Z</time>
      </trkpt>
      <trkpt lat="48.66479" lon="6.96215">
        <ele>315.1</ele>
        <time>2021-07-31T10:42:49Z</time>
      </trkpt>
      <trkpt lat="48.66478" lon="6.96216">
        <ele>315.2</ele>
        <time>2021-07-31T10:42:50Z</time>
      </trkpt>
      <trkpt lat="48.66475" lon="6.96217">
        <ele>315.3</ele>
        <time>2021-07-31T10:42:51Z</time>
      </trkpt>
      <trkpt lat="48.66474" lon="6.96217">
        <ele>315.3</ele>
        <time>2021-07-31T10:42:52Z</time>
      </trkpt>
      <trkpt lat="48.66473" lon="6.96217">
        <ele>315.4</ele>
        <time>2021-07-31T10:42:53Z</time>
      </trkpt>
      <trkpt lat="48.66471" lon="6.96216">
        <ele>315.5</ele>
        <time>2021-07-31T10:42:54Z</time>
      </trkpt>
      <trkpt lat="48.66467" lon="6.96214">
        <ele>315.6</ele>
        <time>2021-07-31T10:42:56Z</time>
      </trkpt>
      <trkpt lat="48.66463" lon="6.96213">
        <ele>315.8</ele>
        <time>2021-07-31T10:42:58Z</time>
      </trkpt>
      <trkpt lat="48.6646" lon="6.96212">
        <ele>315.9</ele>
        <time>2021-07-31T10:42:59Z</time>
      </trkpt>
      <trkpt lat="48.66459" lon="6.96211">
        <ele>316</ele>
        <time>2021-07-31T10:43:00Z</time>
      </trkpt>
      <trkpt lat="48.66455" lon="6.9621">
        <ele>316.1</ele>
        <time>2021-07-31T10:43:02Z</time>
      </trkpt>
      <trkpt lat="48.66452" lon="6.96208">
        <ele>316.3</ele>
        <time>2021-07-31T10:43:03Z</time>
      </trkpt>
      <trkpt lat="48.66448" lon="6.96208">
        <ele>316.5</ele>
        <time>2021-07-31T10:43:04Z</time>
      </trkpt>
      <trkpt lat="48.66447" lon="6.96207">
        <ele>316.5</ele>
        <time>2021-07-31T10:43:05Z</time>
      </trkpt>
      <trkpt lat="48.66443" lon="6.96205">
        <ele>316.7</ele>
        <time>2021-07-31T10:43:07Z</time>
      </trkpt>
      <trkpt lat="48.66439" lon="6.96203">
        <ele>316.9</ele>
        <time>2021-07-31T10:43:09Z</time>
      </trkpt>
      <trkpt lat="48.66436" lon="6.96201">
        <ele>317.1</ele>
        <time>2021-07-31T10:43:10Z</time>
      </trkpt>
      <trkpt lat="48.66435" lon="6.96201">
        <ele>317.1</ele>
        <time>2021-07-31T10:43:11Z</time>
      </trkpt>
      <trkpt lat="48.66431" lon="6.962">
        <ele>317.3</ele>
        <time>2021-07-31T10:43:12Z</time>
      </trkpt>
      <trkpt lat="48.66429" lon="6.96199">
        <ele>317.4</ele>
        <time>2021-07-31T10:43:13Z</time>
      </trkpt>
      <trkpt lat="48.66424" lon="6.96198">
        <ele>317.6</ele>
        <time>2021-07-31T10:43:15Z</time>
      </trkpt>
      <trkpt lat="48.66423" lon="6.96198">
        <ele>317.7</ele>
        <time>2021-07-31T10:43:16Z</time>
      </trkpt>
      <trkpt lat="48.66421" lon="6.96198">
        <ele>317.8</ele>
        <time>2021-07-31T10:43:17Z</time>
      </trkpt>
      <trkpt lat="48.66418" lon="6.96195">
        <ele>317.9</ele>
        <time>2021-07-31T10:43:18Z</time>
      </trkpt>
      <trkpt lat="48.66417" lon="6.96195">
        <ele>318</ele>
        <time>2021-07-31T10:43:19Z</time>
      </trkpt>
      <trkpt lat="48.66416" lon="6.96194">
        <ele>318</ele>
        <time>2021-07-31T10:43:20Z</time>
      </trkpt>
      <trkpt lat="48.66414" lon="6.96193">
        <ele>318.1</ele>
        <time>2021-07-31T10:43:21Z</time>
      </trkpt>
      <trkpt lat="48.66411" lon="6.96191">
        <ele>318.2</ele>
        <time>2021-07-31T10:43:23Z</time>
      </trkpt>
      <trkpt lat="48.66409" lon="6.96191">
        <ele>318.3</ele>
        <time>2021-07-31T10:43:24Z</time>
      </trkpt>
      <trkpt lat="48.66405" lon="6.96188">
        <ele>318.4</ele>
        <time>2021-07-31T10:43:26Z</time>
      </trkpt>
      <trkpt lat="48.66401" lon="6.96187">
        <ele>318.6</ele>
        <time>2021-07-31T10:43:28Z</time>
      </trkpt>
      <trkpt lat="48.66398" lon="6.96185">
        <ele>318.7</ele>
        <time>2021-07-31T10:43:29Z</time>
      </trkpt>
      <trkpt lat="48.66396" lon="6.96185">
        <ele>318.7</ele>
        <time>2021-07-31T10:43:30Z</time>
      </trkpt>
      <trkpt lat="48.66391" lon="6.96184">
        <ele>318.8</ele>
        <time>2021-07-31T10:43:32Z</time>
      </trkpt>
      <trkpt lat="48.66388" lon="6.96183">
        <ele>318.8</ele>
        <time>2021-07-31T10:43:33Z</time>
      </trkpt>
      <trkpt lat="48.66383" lon="6.9618">
        <ele>318.8</ele>
        <time>2021-07-31T10:43:35Z</time>
      </trkpt>
      <trkpt lat="48.66381" lon="6.96178">
        <ele>318.8</ele>
        <time>2021-07-31T10:43:36Z</time>
      </trkpt>
      <trkpt lat="48.66377" lon="6.96174">
        <ele>318.8</ele>
        <time>2021-07-31T10:43:38Z</time>
      </trkpt>
      <trkpt lat="48.66375" lon="6.96173">
        <ele>318.8</ele>
        <time>2021-07-31T10:43:39Z</time>
      </trkpt>
      <trkpt lat="48.6637" lon="6.9617">
        <ele>318.7</ele>
        <time>2021-07-31T10:43:41Z</time>
      </trkpt>
      <trkpt lat="48.66367" lon="6.96168">
        <ele>318.7</ele>
        <time>2021-07-31T10:43:42Z</time>
      </trkpt>
      <trkpt lat="48.66366" lon="6.96167">
        <ele>318.6</ele>
        <time>2021-07-31T10:43:43Z</time>
      </trkpt>
      <trkpt lat="48.66363" lon="6.96163">
        <ele>318.6</ele>
        <time>2021-07-31T10:43:44Z</time>
      </trkpt>
      <trkpt lat="48.66361" lon="6.96161">
        <ele>318.5</ele>
        <time>2021-07-31T10:43:45Z</time>
      </trkpt>
      <trkpt lat="48.66358" lon="6.96159">
        <ele>318.4</ele>
        <time>2021-07-31T10:43:46Z</time>
      </trkpt>
      <trkpt lat="48.66353" lon="6.96157">
        <ele>318.3</ele>
        <time>2021-07-31T10:43:48Z</time>
      </trkpt>
      <trkpt lat="48.66346" lon="6.96152">
        <ele>318.2</ele>
        <time>2021-07-31T10:43:50Z</time>
      </trkpt>
      <trkpt lat="48.66339" lon="6.96147">
        <ele>318</ele>
        <time>2021-07-31T10:43:51Z</time>
      </trkpt>
      <trkpt lat="48.66334" lon="6.96145">
        <ele>317.9</ele>
        <time>2021-07-31T10:43:52Z</time>
      </trkpt>
      <trkpt lat="48.6633" lon="6.96145">
        <ele>317.8</ele>
        <time>2021-07-31T10:43:53Z</time>
      </trkpt>
      <trkpt lat="48.66326" lon="6.96144">
        <ele>317.7</ele>
        <time>2021-07-31T10:43:54Z</time>
      </trkpt>
      <trkpt lat="48.66319" lon="6.96141">
        <ele>317.5</ele>
        <time>2021-07-31T10:43:55Z</time>
      </trkpt>
      <trkpt lat="48.66315" lon="6.96137">
        <ele>317.3</ele>
        <time>2021-07-31T10:43:57Z</time>
      </trkpt>
      <trkpt lat="48.66302" lon="6.96137">
        <ele>317</ele>
        <time>2021-07-31T10:43:59Z</time>
      </trkpt>
      <trkpt lat="48.66296" lon="6.96138">
        <ele>316.8</ele>
        <time>2021-07-31T10:44:00Z</time>
      </trkpt>
      <trkpt lat="48.66286" lon="6.9614">
        <ele>316.5</ele>
        <time>2021-07-31T10:44:02Z</time>
      </trkpt>
      <trkpt lat="48.66276" lon="6.96144">
        <ele>315.9</ele>
        <time>2021-07-31T10:44:04Z</time>
      </trkpt>
      <trkpt lat="48.66263" lon="6.9615">
        <ele>315.1</ele>
        <time>2021-07-31T10:44:06Z</time>
      </trkpt>
      <trkpt lat="48.66249" lon="6.96155">
        <ele>314.3</ele>
        <time>2021-07-31T10:44:08Z</time>
      </trkpt>
      <trkpt lat="48.66242" lon="6.96158">
        <ele>314</ele>
        <time>2021-07-31T10:44:09Z</time>
      </trkpt>
      <trkpt lat="48.66228" lon="6.96163">
        <ele>313.6</ele>
        <time>2021-07-31T10:44:11Z</time>
      </trkpt>
      <trkpt lat="48.66221" lon="6.96166">
        <ele>313.4</ele>
        <time>2021-07-31T10:44:12Z</time>
      </trkpt>
      <trkpt lat="48.66206" lon="6.96172">
        <ele>313.1</ele>
        <time>2021-07-31T10:44:14Z</time>
      </trkpt>
      <trkpt lat="48.66193" lon="6.96179">
        <ele>312.8</ele>
        <time>2021-07-31T10:44:16Z</time>
      </trkpt>
      <trkpt lat="48.66181" lon="6.96187">
        <ele>312.6</ele>
        <time>2021-07-31T10:44:18Z</time>
      </trkpt>
      <trkpt lat="48.6617" lon="6.96195">
        <ele>312.5</ele>
        <time>2021-07-31T10:44:20Z</time>
      </trkpt>
      <trkpt lat="48.66159" lon="6.96202">
        <ele>312.6</ele>
        <time>2021-07-31T10:44:22Z</time>
      </trkpt>
      <trkpt lat="48.66153" lon="6.96204">
        <ele>312.6</ele>
        <time>2021-07-31T10:44:23Z</time>
      </trkpt>
      <trkpt lat="48.66142" lon="6.96209">
        <ele>312.7</ele>
        <time>2021-07-31T10:44:25Z</time>
      </trkpt>
      <trkpt lat="48.66136" lon="6.96211">
        <ele>312.8</ele>
        <time>2021-07-31T10:44:26Z</time>
      </trkpt>
      <trkpt lat="48.66131" lon="6.96213">
        <ele>312.8</ele>
        <time>2021-07-31T10:44:27Z</time>
      </trkpt>
      <trkpt lat="48.66125" lon="6.96215">
        <ele>313</ele>
        <time>2021-07-31T10:44:28Z</time>
      </trkpt>
      <trkpt lat="48.66115" lon="6.96217">
        <ele>313.2</ele>
        <time>2021-07-31T10:44:30Z</time>
      </trkpt>
      <trkpt lat="48.66105" lon="6.96218">
        <ele>313.6</ele>
        <time>2021-07-31T10:44:32Z</time>
      </trkpt>
      <trkpt lat="48.66098" lon="6.9622">
        <ele>313.8</ele>
        <time>2021-07-31T10:44:34Z</time>
      </trkpt>
      <trkpt lat="48.66089" lon="6.96222">
        <ele>314.1</ele>
        <time>2021-07-31T10:44:36Z</time>
      </trkpt>
      <trkpt lat="48.6608" lon="6.96224">
        <ele>314.4</ele>
        <time>2021-07-31T10:44:38Z</time>
      </trkpt>
      <trkpt lat="48.66075" lon="6.96225">
        <ele>314.6</ele>
        <time>2021-07-31T10:44:39Z</time>
      </trkpt>
      <trkpt lat="48.66073" lon="6.96226">
        <ele>314.7</ele>
        <time>2021-07-31T10:44:40Z</time>
      </trkpt>
      <trkpt lat="48.66073" lon="6.96229">
        <ele>314.8</ele>
        <time>2021-07-31T10:44:41Z</time>
      </trkpt>
      <trkpt lat="48.66067" lon="6.96229">
        <ele>315</ele>
        <time>2021-07-31T10:44:43Z</time>
      </trkpt>
      <trkpt lat="48.66061" lon="6.96229">
        <ele>315.2</ele>
        <time>2021-07-31T10:44:44Z</time>
      </trkpt>
      <trkpt lat="48.66056" lon="6.96229">
        <ele>315.4</ele>
        <time>2021-07-31T10:44:45Z</time>
      </trkpt>
      <trkpt lat="48.66051" lon="6.96229">
        <ele>315.5</ele>
        <time>2021-07-31T10:44:46Z</time>
      </trkpt>
      <trkpt lat="48.66046" lon="6.9623">
        <ele>315.7</ele>
        <time>2021-07-31T10:44:47Z</time>
      </trkpt>
      <trkpt lat="48.66042" lon="6.96229">
        <ele>315.9</ele>
        <time>2021-07-31T10:44:48Z</time>
      </trkpt>
      <trkpt lat="48.66039" lon="6.96229">
        <ele>316</ele>
        <time>2021-07-31T10:44:49Z</time>
      </trkpt>
      <trkpt lat="48.66034" lon="6.96228">
        <ele>316.2</ele>
        <time>2021-07-31T10:44:51Z</time>
      </trkpt>
      <trkpt lat="48.6603" lon="6.96228">
        <ele>316.3</ele>
        <time>2021-07-31T10:44:52Z</time>
      </trkpt>
      <trkpt lat="48.66026" lon="6.96228">
        <ele>316.4</ele>
        <time>2021-07-31T10:44:53Z</time>
      </trkpt>
      <trkpt lat="48.66022" lon="6.96227">
        <ele>316.5</ele>
        <time>2021-07-31T10:44:54Z</time>
      </trkpt>
      <trkpt lat="48.66018" lon="6.96227">
        <ele>316.6</ele>
        <time>2021-07-31T10:44:55Z</time>
      </trkpt>
      <trkpt lat="48.66015" lon="6.96227">
        <ele>316.7</ele>
        <time>2021-07-31T10:44:57Z</time>
      </trkpt>
      <trkpt lat="48.66011" lon="6.96227">
        <ele>316.8</ele>
        <time>2021-07-31T10:44:58Z</time>
      </trkpt>
      <trkpt lat="48.66007" lon="6.96226">
        <ele>316.8</ele>
        <time>2021-07-31T10:44:59Z</time>
      </trkpt>
      <trkpt lat="48.66003" lon="6.96226">
        <ele>316.9</ele>
        <time>2021-07-31T10:45:00Z</time>
      </trkpt>
      <trkpt lat="48.66" lon="6.96225">
        <ele>317</ele>
        <time>2021-07-31T10:45:01Z</time>
      </trkpt>
      <trkpt lat="48.65997" lon="6.96225">
        <ele>317.1</ele>
        <time>2021-07-31T10:45:03Z</time>
      </trkpt>
      <trkpt lat="48.65994" lon="6.96225">
        <ele>317.1</ele>
        <time>2021-07-31T10:45:04Z</time>
      </trkpt>
      <trkpt lat="48.65989" lon="6.96227">
        <ele>317.2</ele>
        <time>2021-07-31T10:45:05Z</time>
      </trkpt>
      <trkpt lat="48.65986" lon="6.96228">
        <ele>317.3</ele>
        <time>2021-07-31T10:45:06Z</time>
      </trkpt>
      <trkpt lat="48.65982" lon="6.96229">
        <ele>317.4</ele>
        <time>2021-07-31T10:45:07Z</time>
      </trkpt>
      <trkpt lat="48.65978" lon="6.9623">
        <ele>317.5</ele>
        <time>2021-07-31T10:45:08Z</time>
      </trkpt>
      <trkpt lat="48.65975" lon="6.96231">
        <ele>317.5</ele>
        <time>2021-07-31T10:45:09Z</time>
      </trkpt>
      <trkpt lat="48.6597" lon="6.96233">
        <ele>317.7</ele>
        <time>2021-07-31T10:45:11Z</time>
      </trkpt>
      <trkpt lat="48.65966" lon="6.96234">
        <ele>317.8</ele>
        <time>2021-07-31T10:45:12Z</time>
      </trkpt>
      <trkpt lat="48.65962" lon="6.96236">
        <ele>317.9</ele>
        <time>2021-07-31T10:45:13Z</time>
      </trkpt>
      <trkpt lat="48.65956" lon="6.96239">
        <ele>318</ele>
        <time>2021-07-31T10:45:15Z</time>
      </trkpt>
      <trkpt lat="48.65953" lon="6.96241">
        <ele>318.1</ele>
        <time>2021-07-31T10:45:16Z</time>
      </trkpt>
      <trkpt lat="48.65948" lon="6.96243">
        <ele>318.3</ele>
        <time>2021-07-31T10:45:18Z</time>
      </trkpt>
      <trkpt lat="48.65944" lon="6.96245">
        <ele>318.4</ele>
        <time>2021-07-31T10:45:19Z</time>
      </trkpt>
      <trkpt lat="48.65941" lon="6.96247">
        <ele>318.5</ele>
        <time>2021-07-31T10:45:20Z</time>
      </trkpt>
      <trkpt lat="48.65938" lon="6.9625">
        <ele>318.6</ele>
        <time>2021-07-31T10:45:21Z</time>
      </trkpt>
      <trkpt lat="48.65934" lon="6.96252">
        <ele>318.6</ele>
        <time>2021-07-31T10:45:22Z</time>
      </trkpt>
      <trkpt lat="48.65931" lon="6.96254">
        <ele>318.6</ele>
        <time>2021-07-31T10:45:23Z</time>
      </trkpt>
      <trkpt lat="48.65928" lon="6.96257">
        <ele>318.7</ele>
        <time>2021-07-31T10:45:25Z</time>
      </trkpt>
      <trkpt lat="48.65926" lon="6.9626">
        <ele>318.8</ele>
        <time>2021-07-31T10:45:26Z</time>
      </trkpt>
      <trkpt lat="48.65921" lon="6.96263">
        <ele>318.9</ele>
        <time>2021-07-31T10:45:28Z</time>
      </trkpt>
      <trkpt lat="48.65917" lon="6.96265">
        <ele>318.9</ele>
        <time>2021-07-31T10:45:29Z</time>
      </trkpt>
      <trkpt lat="48.65916" lon="6.96265">
        <ele>319</ele>
        <time>2021-07-31T10:45:30Z</time>
      </trkpt>
      <trkpt lat="48.65913" lon="6.96267">
        <ele>319</ele>
        <time>2021-07-31T10:45:31Z</time>
      </trkpt>
      <trkpt lat="48.65908" lon="6.96271">
        <ele>319.1</ele>
        <time>2021-07-31T10:45:33Z</time>
      </trkpt>
      <trkpt lat="48.65901" lon="6.96275">
        <ele>319.3</ele>
        <time>2021-07-31T10:45:35Z</time>
      </trkpt>
      <trkpt lat="48.65897" lon="6.96278">
        <ele>319.4</ele>
        <time>2021-07-31T10:45:36Z</time>
      </trkpt>
      <trkpt lat="48.65894" lon="6.9628">
        <ele>319.6</ele>
        <time>2021-07-31T10:45:37Z</time>
      </trkpt>
      <trkpt lat="48.65892" lon="6.96284">
        <ele>319.7</ele>
        <time>2021-07-31T10:45:38Z</time>
      </trkpt>
      <trkpt lat="48.65889" lon="6.96287">
        <ele>319.8</ele>
        <time>2021-07-31T10:45:39Z</time>
      </trkpt>
      <trkpt lat="48.65886" lon="6.96289">
        <ele>319.9</ele>
        <time>2021-07-31T10:45:41Z</time>
      </trkpt>
      <trkpt lat="48.65882" lon="6.96291">
        <ele>320</ele>
        <time>2021-07-31T10:45:42Z</time>
      </trkpt>
      <trkpt lat="48.65877" lon="6.96296">
        <ele>320.2</ele>
        <time>2021-07-31T10:45:44Z</time>
      </trkpt>
      <trkpt lat="48.65873" lon="6.96301">
        <ele>320.4</ele>
        <time>2021-07-31T10:45:46Z</time>
      </trkpt>
      <trkpt lat="48.65869" lon="6.96305">
        <ele>320.5</ele>
        <time>2021-07-31T10:45:47Z</time>
      </trkpt>
      <trkpt lat="48.65865" lon="6.96311">
        <ele>320.7</ele>
        <time>2021-07-31T10:45:49Z</time>
      </trkpt>
      <trkpt lat="48.65863" lon="6.96315">
        <ele>320.8</ele>
        <time>2021-07-31T10:45:50Z</time>
      </trkpt>
      <trkpt lat="48.6586" lon="6.96317">
        <ele>320.9</ele>
        <time>2021-07-31T10:45:51Z</time>
      </trkpt>
      <trkpt lat="48.65856" lon="6.96321">
        <ele>321.1</ele>
        <time>2021-07-31T10:45:52Z</time>
      </trkpt>
      <trkpt lat="48.65853" lon="6.96322">
        <ele>321.2</ele>
        <time>2021-07-31T10:45:54Z</time>
      </trkpt>
      <trkpt lat="48.65849" lon="6.96325">
        <ele>321.4</ele>
        <time>2021-07-31T10:45:55Z</time>
      </trkpt>
      <trkpt lat="48.65846" lon="6.96327">
        <ele>321.5</ele>
        <time>2021-07-31T10:45:57Z</time>
      </trkpt>
      <trkpt lat="48.65843" lon="6.96329">
        <ele>321.6</ele>
        <time>2021-07-31T10:45:58Z</time>
      </trkpt>
      <trkpt lat="48.65838" lon="6.96331">
        <ele>321.8</ele>
        <time>2021-07-31T10:46:00Z</time>
      </trkpt>
      <trkpt lat="48.65836" lon="6.96332">
        <ele>321.9</ele>
        <time>2021-07-31T10:46:01Z</time>
      </trkpt>
      <trkpt lat="48.65832" lon="6.96333">
        <ele>322</ele>
        <time>2021-07-31T10:46:02Z</time>
      </trkpt>
      <trkpt lat="48.65831" lon="6.96333">
        <ele>322.1</ele>
        <time>2021-07-31T10:46:03Z</time>
      </trkpt>
      <trkpt lat="48.65827" lon="6.96335">
        <ele>322.2</ele>
        <time>2021-07-31T10:46:05Z</time>
      </trkpt>
      <trkpt lat="48.65823" lon="6.96337">
        <ele>322.3</ele>
        <time>2021-07-31T10:46:06Z</time>
      </trkpt>
      <trkpt lat="48.65821" lon="6.96339">
        <ele>322.3</ele>
        <time>2021-07-31T10:46:07Z</time>
      </trkpt>
      <trkpt lat="48.65817" lon="6.96339">
        <ele>322.4</ele>
        <time>2021-07-31T10:46:09Z</time>
      </trkpt>
      <trkpt lat="48.65814" lon="6.9634">
        <ele>322.5</ele>
        <time>2021-07-31T10:46:10Z</time>
      </trkpt>
      <trkpt lat="48.65811" lon="6.96341">
        <ele>322.6</ele>
        <time>2021-07-31T10:46:11Z</time>
      </trkpt>
      <trkpt lat="48.65806" lon="6.96342">
        <ele>322.6</ele>
        <time>2021-07-31T10:46:12Z</time>
      </trkpt>
      <trkpt lat="48.65804" lon="6.96343">
        <ele>322.7</ele>
        <time>2021-07-31T10:46:13Z</time>
      </trkpt>
      <trkpt lat="48.65801" lon="6.96343">
        <ele>322.7</ele>
        <time>2021-07-31T10:46:14Z</time>
      </trkpt>
      <trkpt lat="48.65797" lon="6.96345">
        <ele>322.8</ele>
        <time>2021-07-31T10:46:16Z</time>
      </trkpt>
      <trkpt lat="48.65795" lon="6.96345">
        <ele>322.8</ele>
        <time>2021-07-31T10:46:17Z</time>
      </trkpt>
      <trkpt lat="48.65793" lon="6.96346">
        <ele>322.9</ele>
        <time>2021-07-31T10:46:18Z</time>
      </trkpt>
      <trkpt lat="48.6579" lon="6.96346">
        <ele>322.9</ele>
        <time>2021-07-31T10:46:19Z</time>
      </trkpt>
      <trkpt lat="48.65786" lon="6.96347">
        <ele>323</ele>
        <time>2021-07-31T10:46:20Z</time>
      </trkpt>
      <trkpt lat="48.65783" lon="6.96346">
        <ele>323</ele>
        <time>2021-07-31T10:46:22Z</time>
      </trkpt>
      <trkpt lat="48.6578" lon="6.96345">
        <ele>323</ele>
        <time>2021-07-31T10:46:23Z</time>
      </trkpt>
      <trkpt lat="48.65774" lon="6.96346">
        <ele>323</ele>
        <time>2021-07-31T10:46:25Z</time>
      </trkpt>
      <trkpt lat="48.6577" lon="6.96346">
        <ele>323</ele>
        <time>2021-07-31T10:46:26Z</time>
      </trkpt>
      <trkpt lat="48.65767" lon="6.96345">
        <ele>323</ele>
        <time>2021-07-31T10:46:27Z</time>
      </trkpt>
      <trkpt lat="48.6576" lon="6.96344">
        <ele>323</ele>
        <time>2021-07-31T10:46:28Z</time>
      </trkpt>
      <trkpt lat="48.65755" lon="6.96343">
        <ele>323</ele>
        <time>2021-07-31T10:46:30Z</time>
      </trkpt>
      <trkpt lat="48.65748" lon="6.96341">
        <ele>322.9</ele>
        <time>2021-07-31T10:46:31Z</time>
      </trkpt>
      <trkpt lat="48.65744" lon="6.9634">
        <ele>322.9</ele>
        <time>2021-07-31T10:46:32Z</time>
      </trkpt>
      <trkpt lat="48.6574" lon="6.96333">
        <ele>322.9</ele>
        <time>2021-07-31T10:46:34Z</time>
      </trkpt>
      <trkpt lat="48.65731" lon="6.96332">
        <ele>322.9</ele>
        <time>2021-07-31T10:46:35Z</time>
      </trkpt>
      <trkpt lat="48.65725" lon="6.9633">
        <ele>322.9</ele>
        <time>2021-07-31T10:46:37Z</time>
      </trkpt>
      <trkpt lat="48.6572" lon="6.96326">
        <ele>322.9</ele>
        <time>2021-07-31T10:46:38Z</time>
      </trkpt>
      <trkpt lat="48.65716" lon="6.96323">
        <ele>323</ele>
        <time>2021-07-31T10:46:39Z</time>
      </trkpt>
      <trkpt lat="48.65712" lon="6.9632">
        <ele>323</ele>
        <time>2021-07-31T10:46:40Z</time>
      </trkpt>
      <trkpt lat="48.65705" lon="6.96312">
        <ele>323</ele>
        <time>2021-07-31T10:46:42Z</time>
      </trkpt>
      <trkpt lat="48.65702" lon="6.96307">
        <ele>323</ele>
        <time>2021-07-31T10:46:44Z</time>
      </trkpt>
      <trkpt lat="48.65698" lon="6.96301">
        <ele>323</ele>
        <time>2021-07-31T10:46:45Z</time>
      </trkpt>
      <trkpt lat="48.65695" lon="6.96295">
        <ele>323.1</ele>
        <time>2021-07-31T10:46:46Z</time>
      </trkpt>
      <trkpt lat="48.65693" lon="6.9629">
        <ele>323.1</ele>
        <time>2021-07-31T10:46:47Z</time>
      </trkpt>
      <trkpt lat="48.65689" lon="6.96284">
        <ele>323</ele>
        <time>2021-07-31T10:46:49Z</time>
      </trkpt>
      <trkpt lat="48.65687" lon="6.96281">
        <ele>323</ele>
        <time>2021-07-31T10:46:50Z</time>
      </trkpt>
      <trkpt lat="48.65683" lon="6.96273">
        <ele>323</ele>
        <time>2021-07-31T10:46:52Z</time>
      </trkpt>
      <trkpt lat="48.65681" lon="6.96268">
        <ele>323</ele>
        <time>2021-07-31T10:46:54Z</time>
      </trkpt>
      <trkpt lat="48.6568" lon="6.96264">
        <ele>323</ele>
        <time>2021-07-31T10:46:55Z</time>
      </trkpt>
      <trkpt lat="48.65678" lon="6.96258">
        <ele>323</ele>
        <time>2021-07-31T10:46:56Z</time>
      </trkpt>
      <trkpt lat="48.65676" lon="6.96251">
        <ele>323</ele>
        <time>2021-07-31T10:46:58Z</time>
      </trkpt>
      <trkpt lat="48.65675" lon="6.96246">
        <ele>323.1</ele>
        <time>2021-07-31T10:46:59Z</time>
      </trkpt>
      <trkpt lat="48.65673" lon="6.9624">
        <ele>323.1</ele>
        <time>2021-07-31T10:47:00Z</time>
      </trkpt>
      <trkpt lat="48.65672" lon="6.96235">
        <ele>323.2</ele>
        <time>2021-07-31T10:47:01Z</time>
      </trkpt>
      <trkpt lat="48.65671" lon="6.9623">
        <ele>323.3</ele>
        <time>2021-07-31T10:47:02Z</time>
      </trkpt>
      <trkpt lat="48.65671" lon="6.96225">
        <ele>323.4</ele>
        <time>2021-07-31T10:47:03Z</time>
      </trkpt>
      <trkpt lat="48.6567" lon="6.96218">
        <ele>323.5</ele>
        <time>2021-07-31T10:47:05Z</time>
      </trkpt>
      <trkpt lat="48.65669" lon="6.9621">
        <ele>323.6</ele>
        <time>2021-07-31T10:47:06Z</time>
      </trkpt>
      <trkpt lat="48.65669" lon="6.96205">
        <ele>323.7</ele>
        <time>2021-07-31T10:47:07Z</time>
      </trkpt>
      <trkpt lat="48.65669" lon="6.96199">
        <ele>323.8</ele>
        <time>2021-07-31T10:47:09Z</time>
      </trkpt>
      <trkpt lat="48.65668" lon="6.9619">
        <ele>323.9</ele>
        <time>2021-07-31T10:47:10Z</time>
      </trkpt>
      <trkpt lat="48.65668" lon="6.96184">
        <ele>324</ele>
        <time>2021-07-31T10:47:12Z</time>
      </trkpt>
      <trkpt lat="48.65667" lon="6.96179">
        <ele>324</ele>
        <time>2021-07-31T10:47:13Z</time>
      </trkpt>
      <trkpt lat="48.65666" lon="6.96173">
        <ele>324.1</ele>
        <time>2021-07-31T10:47:14Z</time>
      </trkpt>
      <trkpt lat="48.65664" lon="6.96165">
        <ele>324.2</ele>
        <time>2021-07-31T10:47:16Z</time>
      </trkpt>
      <trkpt lat="48.65663" lon="6.9616">
        <ele>324.3</ele>
        <time>2021-07-31T10:47:17Z</time>
      </trkpt>
      <trkpt lat="48.65661" lon="6.96154">
        <ele>324.3</ele>
        <time>2021-07-31T10:47:18Z</time>
      </trkpt>
      <trkpt lat="48.65658" lon="6.96145">
        <ele>324.4</ele>
        <time>2021-07-31T10:47:20Z</time>
      </trkpt>
      <trkpt lat="48.65655" lon="6.9614">
        <ele>324.5</ele>
        <time>2021-07-31T10:47:21Z</time>
      </trkpt>
      <trkpt lat="48.65653" lon="6.96137">
        <ele>324.5</ele>
        <time>2021-07-31T10:47:22Z</time>
      </trkpt>
      <trkpt lat="48.65651" lon="6.96133">
        <ele>324.6</ele>
        <time>2021-07-31T10:47:23Z</time>
      </trkpt>
      <trkpt lat="48.65647" lon="6.96127">
        <ele>324.6</ele>
        <time>2021-07-31T10:47:25Z</time>
      </trkpt>
      <trkpt lat="48.65644" lon="6.96124">
        <ele>324.7</ele>
        <time>2021-07-31T10:47:26Z</time>
      </trkpt>
      <trkpt lat="48.65639" lon="6.96119">
        <ele>324.7</ele>
        <time>2021-07-31T10:47:27Z</time>
      </trkpt>
      <trkpt lat="48.65635" lon="6.96116">
        <ele>324.8</ele>
        <time>2021-07-31T10:47:28Z</time>
      </trkpt>
      <trkpt lat="48.6563" lon="6.96114">
        <ele>324.8</ele>
        <time>2021-07-31T10:47:29Z</time>
      </trkpt>
      <trkpt lat="48.65626" lon="6.96113">
        <ele>324.8</ele>
        <time>2021-07-31T10:47:31Z</time>
      </trkpt>
      <trkpt lat="48.65621" lon="6.96114">
        <ele>324.7</ele>
        <time>2021-07-31T10:47:32Z</time>
      </trkpt>
      <trkpt lat="48.65616" lon="6.96115">
        <ele>324.6</ele>
        <time>2021-07-31T10:47:33Z</time>
      </trkpt>
      <trkpt lat="48.65611" lon="6.96114">
        <ele>324.4</ele>
        <time>2021-07-31T10:47:34Z</time>
      </trkpt>
      <trkpt lat="48.65606" lon="6.96114">
        <ele>324.3</ele>
        <time>2021-07-31T10:47:35Z</time>
      </trkpt>
      <trkpt lat="48.65599" lon="6.96117">
        <ele>324.1</ele>
        <time>2021-07-31T10:47:37Z</time>
      </trkpt>
      <trkpt lat="48.65593" lon="6.96122">
        <ele>323.9</ele>
        <time>2021-07-31T10:47:39Z</time>
      </trkpt>
      <trkpt lat="48.65587" lon="6.96133">
        <ele>323.5</ele>
        <time>2021-07-31T10:47:41Z</time>
      </trkpt>
      <trkpt lat="48.65584" lon="6.96138">
        <ele>323.3</ele>
        <time>2021-07-31T10:47:42Z</time>
      </trkpt>
      <trkpt lat="48.65576" lon="6.96147">
        <ele>323</ele>
        <time>2021-07-31T10:47:44Z</time>
      </trkpt>
      <trkpt lat="48.65573" lon="6.96152">
        <ele>322.8</ele>
        <time>2021-07-31T10:47:45Z</time>
      </trkpt>
      <trkpt lat="48.65565" lon="6.96163">
        <ele>322.3</ele>
        <time>2021-07-31T10:47:47Z</time>
      </trkpt>
      <trkpt lat="48.65561" lon="6.96168">
        <ele>322</ele>
        <time>2021-07-31T10:47:48Z</time>
      </trkpt>
      <trkpt lat="48.65556" lon="6.96173">
        <ele>321.7</ele>
        <time>2021-07-31T10:47:49Z</time>
      </trkpt>
      <trkpt lat="48.65545" lon="6.96183">
        <ele>321.1</ele>
        <time>2021-07-31T10:47:51Z</time>
      </trkpt>
      <trkpt lat="48.65534" lon="6.96191">
        <ele>320.4</ele>
        <time>2021-07-31T10:47:53Z</time>
      </trkpt>
      <trkpt lat="48.65528" lon="6.96196">
        <ele>320</ele>
        <time>2021-07-31T10:47:54Z</time>
      </trkpt>
      <trkpt lat="48.65516" lon="6.96207">
        <ele>319.1</ele>
        <time>2021-07-31T10:47:56Z</time>
      </trkpt>
      <trkpt lat="48.65505" lon="6.96217">
        <ele>318.5</ele>
        <time>2021-07-31T10:47:58Z</time>
      </trkpt>
      <trkpt lat="48.655" lon="6.96223">
        <ele>318.2</ele>
        <time>2021-07-31T10:47:59Z</time>
      </trkpt>
      <trkpt lat="48.6549" lon="6.96234">
        <ele>317.7</ele>
        <time>2021-07-31T10:48:01Z</time>
      </trkpt>
      <trkpt lat="48.65481" lon="6.96244">
        <ele>317.3</ele>
        <time>2021-07-31T10:48:03Z</time>
      </trkpt>
      <trkpt lat="48.65472" lon="6.96252">
        <ele>316.9</ele>
        <time>2021-07-31T10:48:05Z</time>
      </trkpt>
      <trkpt lat="48.65468" lon="6.96254">
        <ele>316.6</ele>
        <time>2021-07-31T10:48:06Z</time>
      </trkpt>
      <trkpt lat="48.65463" lon="6.96255">
        <ele>316.3</ele>
        <time>2021-07-31T10:48:07Z</time>
      </trkpt>
      <trkpt lat="48.65454" lon="6.96261">
        <ele>314.9</ele>
        <time>2021-07-31T10:48:09Z</time>
      </trkpt>
      <trkpt lat="48.6545" lon="6.96266">
        <ele>314.5</ele>
        <time>2021-07-31T10:48:10Z</time>
      </trkpt>
      <trkpt lat="48.65448" lon="6.96272">
        <ele>314.1</ele>
        <time>2021-07-31T10:48:11Z</time>
      </trkpt>
      <trkpt lat="48.65447" lon="6.96274">
        <ele>314</ele>
        <time>2021-07-31T10:48:12Z</time>
      </trkpt>
      <trkpt lat="48.6545" lon="6.96288">
        <ele>313.5</ele>
        <time>2021-07-31T10:48:14Z</time>
      </trkpt>
      <trkpt lat="48.65453" lon="6.96297">
        <ele>313.2</ele>
        <time>2021-07-31T10:48:15Z</time>
      </trkpt>
      <trkpt lat="48.65463" lon="6.96315">
        <ele>312.7</ele>
        <time>2021-07-31T10:48:17Z</time>
      </trkpt>
      <trkpt lat="48.65468" lon="6.96324">
        <ele>312.6</ele>
        <time>2021-07-31T10:48:18Z</time>
      </trkpt>
      <trkpt lat="48.65473" lon="6.96331">
        <ele>312.5</ele>
        <time>2021-07-31T10:48:19Z</time>
      </trkpt>
      <trkpt lat="48.65482" lon="6.96344">
        <ele>312.6</ele>
        <time>2021-07-31T10:48:21Z</time>
      </trkpt>
      <trkpt lat="48.6549" lon="6.96356">
        <ele>312.7</ele>
        <time>2021-07-31T10:48:23Z</time>
      </trkpt>
      <trkpt lat="48.65494" lon="6.96361">
        <ele>312.8</ele>
        <time>2021-07-31T10:48:24Z</time>
      </trkpt>
      <trkpt lat="48.65497" lon="6.96368">
        <ele>312.9</ele>
        <time>2021-07-31T10:48:25Z</time>
      </trkpt>
      <trkpt lat="48.65501" lon="6.96374">
        <ele>313</ele>
        <time>2021-07-31T10:48:26Z</time>
      </trkpt>
      <trkpt lat="48.65505" lon="6.96379">
        <ele>313.2</ele>
        <time>2021-07-31T10:48:27Z</time>
      </trkpt>
      <trkpt lat="48.65511" lon="6.96387">
        <ele>313.2</ele>
        <time>2021-07-31T10:48:29Z</time>
      </trkpt>
      <trkpt lat="48.65513" lon="6.9639">
        <ele>312.9</ele>
        <time>2021-07-31T10:48:30Z</time>
      </trkpt>
      <trkpt lat="48.65514" lon="6.96394">
        <ele>312.7</ele>
        <time>2021-07-31T10:48:32Z</time>
      </trkpt>
      <trkpt lat="48.65508" lon="6.964">
        <ele>312</ele>
        <time>2021-07-31T10:48:34Z</time>
      </trkpt>
      <trkpt lat="48.65503" lon="6.96403">
        <ele>311.6</ele>
        <time>2021-07-31T10:48:35Z</time>
      </trkpt>
      <trkpt lat="48.65497" lon="6.96406">
        <ele>311</ele>
        <time>2021-07-31T10:48:36Z</time>
      </trkpt>
      <trkpt lat="48.65482" lon="6.96413">
        <ele>309.6</ele>
        <time>2021-07-31T10:48:38Z</time>
      </trkpt>
      <trkpt lat="48.65468" lon="6.96416">
        <ele>308.4</ele>
        <time>2021-07-31T10:48:40Z</time>
      </trkpt>
      <trkpt lat="48.6546" lon="6.96418">
        <ele>307.9</ele>
        <time>2021-07-31T10:48:41Z</time>
      </trkpt>
      <trkpt lat="48.65447" lon="6.96427">
        <ele>307.4</ele>
        <time>2021-07-31T10:48:43Z</time>
      </trkpt>
      <trkpt lat="48.6544" lon="6.96441">
        <ele>307.3</ele>
        <time>2021-07-31T10:48:45Z</time>
      </trkpt>
      <trkpt lat="48.65439" lon="6.9645">
        <ele>307.5</ele>
        <time>2021-07-31T10:48:46Z</time>
      </trkpt>
      <trkpt lat="48.65438" lon="6.96459">
        <ele>307.7</ele>
        <time>2021-07-31T10:48:47Z</time>
      </trkpt>
      <trkpt lat="48.65438" lon="6.9647">
        <ele>307.9</ele>
        <time>2021-07-31T10:48:48Z</time>
      </trkpt>
      <trkpt lat="48.65438" lon="6.96489">
        <ele>308.6</ele>
        <time>2021-07-31T10:48:50Z</time>
      </trkpt>
      <trkpt lat="48.65437" lon="6.96498">
        <ele>309</ele>
        <time>2021-07-31T10:48:51Z</time>
      </trkpt>
      <trkpt lat="48.65436" lon="6.96507">
        <ele>309.5</ele>
        <time>2021-07-31T10:48:52Z</time>
      </trkpt>
      <trkpt lat="48.65431" lon="6.96524">
        <ele>310.6</ele>
        <time>2021-07-31T10:48:54Z</time>
      </trkpt>
      <trkpt lat="48.65428" lon="6.96531">
        <ele>311.2</ele>
        <time>2021-07-31T10:48:55Z</time>
      </trkpt>
      <trkpt lat="48.65419" lon="6.96542">
        <ele>313.1</ele>
        <time>2021-07-31T10:48:57Z</time>
      </trkpt>
      <trkpt lat="48.65413" lon="6.9655">
        <ele>314.2</ele>
        <time>2021-07-31T10:48:59Z</time>
      </trkpt>
      <trkpt lat="48.65411" lon="6.96554">
        <ele>314.7</ele>
        <time>2021-07-31T10:49:00Z</time>
      </trkpt>
      <trkpt lat="48.65406" lon="6.96561">
        <ele>315.5</ele>
        <time>2021-07-31T10:49:02Z</time>
      </trkpt>
      <trkpt lat="48.65404" lon="6.96564">
        <ele>315.9</ele>
        <time>2021-07-31T10:49:03Z</time>
      </trkpt>
      <trkpt lat="48.65402" lon="6.96566">
        <ele>316.1</ele>
        <time>2021-07-31T10:49:04Z</time>
      </trkpt>
      <trkpt lat="48.65401" lon="6.9657">
        <ele>316.5</ele>
        <time>2021-07-31T10:49:06Z</time>
      </trkpt>
      <trkpt lat="48.65399" lon="6.96571">
        <ele>316.6</ele>
        <time>2021-07-31T10:49:07Z</time>
      </trkpt>
      <trkpt lat="48.65397" lon="6.96574">
        <ele>317</ele>
        <time>2021-07-31T10:49:08Z</time>
      </trkpt>
      <trkpt lat="48.65396" lon="6.96574">
        <ele>317.1</ele>
        <time>2021-07-31T10:49:09Z</time>
      </trkpt>
      <trkpt lat="48.65394" lon="6.96575">
        <ele>317.2</ele>
        <time>2021-07-31T10:49:10Z</time>
      </trkpt>
      <trkpt lat="48.65392" lon="6.96574">
        <ele>317.4</ele>
        <time>2021-07-31T10:49:12Z</time>
      </trkpt>
      <trkpt lat="48.65391" lon="6.96576">
        <ele>317.6</ele>
        <time>2021-07-31T10:49:13Z</time>
      </trkpt>
      <trkpt lat="48.6539" lon="6.96579">
        <ele>317.9</ele>
        <time>2021-07-31T10:49:15Z</time>
      </trkpt>
      <trkpt lat="48.65389" lon="6.96582">
        <ele>318</ele>
        <time>2021-07-31T10:49:16Z</time>
      </trkpt>
      <trkpt lat="48.65388" lon="6.96584">
        <ele>318.2</ele>
        <time>2021-07-31T10:49:18Z</time>
      </trkpt>
      <trkpt lat="48.65387" lon="6.96584">
        <ele>318.4</ele>
        <time>2021-07-31T10:49:19Z</time>
      </trkpt>
      <trkpt lat="48.65385" lon="6.96586">
        <ele>318.6</ele>
        <time>2021-07-31T10:49:20Z</time>
      </trkpt>
      <trkpt lat="48.65383" lon="6.96589">
        <ele>318.9</ele>
        <time>2021-07-31T10:49:22Z</time>
      </trkpt>
      <trkpt lat="48.65382" lon="6.9659">
        <ele>319</ele>
        <time>2021-07-31T10:49:23Z</time>
      </trkpt>
      <trkpt lat="48.65382" lon="6.96593">
        <ele>319.2</ele>
        <time>2021-07-31T10:49:25Z</time>
      </trkpt>
      <trkpt lat="48.6538" lon="6.96594">
        <ele>319.3</ele>
        <time>2021-07-31T10:49:26Z</time>
      </trkpt>
      <trkpt lat="48.65378" lon="6.96596">
        <ele>319.5</ele>
        <time>2021-07-31T10:49:27Z</time>
      </trkpt>
      <trkpt lat="48.65377" lon="6.96597">
        <ele>319.6</ele>
        <time>2021-07-31T10:49:28Z</time>
      </trkpt>
      <trkpt lat="48.65375" lon="6.966">
        <ele>319.9</ele>
        <time>2021-07-31T10:49:30Z</time>
      </trkpt>
      <trkpt lat="48.65374" lon="6.96601">
        <ele>320</ele>
        <time>2021-07-31T10:49:31Z</time>
      </trkpt>
      <trkpt lat="48.65372" lon="6.96604">
        <ele>320.2</ele>
        <time>2021-07-31T10:49:32Z</time>
      </trkpt>
      <trkpt lat="48.6537" lon="6.96608">
        <ele>320.4</ele>
        <time>2021-07-31T10:49:34Z</time>
      </trkpt>
      <trkpt lat="48.65369" lon="6.96609">
        <ele>320.5</ele>
        <time>2021-07-31T10:49:35Z</time>
      </trkpt>
      <trkpt lat="48.65368" lon="6.96613">
        <ele>320.7</ele>
        <time>2021-07-31T10:49:37Z</time>
      </trkpt>
      <trkpt lat="48.65367" lon="6.96614">
        <ele>320.7</ele>
        <time>2021-07-31T10:49:38Z</time>
      </trkpt>
      <trkpt lat="48.65365" lon="6.96616">
        <ele>320.9</ele>
        <time>2021-07-31T10:49:39Z</time>
      </trkpt>
      <trkpt lat="48.65362" lon="6.96618">
        <ele>321.1</ele>
        <time>2021-07-31T10:49:42Z</time>
      </trkpt>
      <trkpt lat="48.65361" lon="6.96619">
        <ele>321.2</ele>
        <time>2021-07-31T10:49:43Z</time>
      </trkpt>
      <trkpt lat="48.6536" lon="6.9662">
        <ele>321.3</ele>
        <time>2021-07-31T10:49:44Z</time>
      </trkpt>
      <trkpt lat="48.65357" lon="6.96623">
        <ele>321.5</ele>
        <time>2021-07-31T10:49:45Z</time>
      </trkpt>
      <trkpt lat="48.65356" lon="6.96624">
        <ele>321.6</ele>
        <time>2021-07-31T10:49:46Z</time>
      </trkpt>
      <trkpt lat="48.65354" lon="6.96626">
        <ele>321.8</ele>
        <time>2021-07-31T10:49:48Z</time>
      </trkpt>
      <trkpt lat="48.65353" lon="6.96627">
        <ele>321.8</ele>
        <time>2021-07-31T10:49:49Z</time>
      </trkpt>
      <trkpt lat="48.65353" lon="6.96628">
        <ele>321.9</ele>
        <time>2021-07-31T10:49:50Z</time>
      </trkpt>
      <trkpt lat="48.65353" lon="6.96629">
        <ele>321.9</ele>
        <time>2021-07-31T10:49:52Z</time>
      </trkpt>
      <trkpt lat="48.65353" lon="6.96629">
        <ele>321.9</ele>
        <time>2021-07-31T10:49:53Z</time>
      </trkpt>
      <trkpt lat="48.65352" lon="6.96629">
        <ele>322</ele>
        <time>2021-07-31T10:49:54Z</time>
      </trkpt>
      <trkpt lat="48.65351" lon="6.96629">
        <ele>322</ele>
        <time>2021-07-31T10:49:55Z</time>
      </trkpt>
      <trkpt lat="48.6535" lon="6.96629">
        <ele>322.1</ele>
        <time>2021-07-31T10:49:57Z</time>
      </trkpt>
      <trkpt lat="48.65348" lon="6.96629">
        <ele>322.2</ele>
        <time>2021-07-31T10:49:59Z</time>
      </trkpt>
      <trkpt lat="48.65331" lon="6.96641">
        <ele>323.4</ele>
        <time>2021-07-31T10:50:10Z</time>
      </trkpt>
      <trkpt lat="48.65328" lon="6.96645">
        <ele>323.6</ele>
        <time>2021-07-31T10:50:12Z</time>
      </trkpt>
      <trkpt lat="48.65325" lon="6.96652">
        <ele>324</ele>
        <time>2021-07-31T10:50:13Z</time>
      </trkpt>
      <trkpt lat="48.65322" lon="6.96656">
        <ele>324.3</ele>
        <time>2021-07-31T10:50:15Z</time>
      </trkpt>
      <trkpt lat="48.65319" lon="6.96659">
        <ele>324.6</ele>
        <time>2021-07-31T10:50:16Z</time>
      </trkpt>
      <trkpt lat="48.65317" lon="6.96661">
        <ele>324.8</ele>
        <time>2021-07-31T10:50:17Z</time>
      </trkpt>
      <trkpt lat="48.65316" lon="6.96662">
        <ele>324.8</ele>
        <time>2021-07-31T10:50:18Z</time>
      </trkpt>
      <trkpt lat="48.65314" lon="6.96663">
        <ele>324.9</ele>
        <time>2021-07-31T10:50:19Z</time>
      </trkpt>
      <trkpt lat="48.65312" lon="6.96665">
        <ele>325.1</ele>
        <time>2021-07-31T10:50:21Z</time>
      </trkpt>
      <trkpt lat="48.65309" lon="6.96667">
        <ele>325.4</ele>
        <time>2021-07-31T10:50:22Z</time>
      </trkpt>
      <trkpt lat="48.65307" lon="6.96669">
        <ele>325.5</ele>
        <time>2021-07-31T10:50:23Z</time>
      </trkpt>
      <trkpt lat="48.65304" lon="6.96673">
        <ele>325.9</ele>
        <time>2021-07-31T10:50:25Z</time>
      </trkpt>
      <trkpt lat="48.65302" lon="6.96675">
        <ele>326</ele>
        <time>2021-07-31T10:50:27Z</time>
      </trkpt>
      <trkpt lat="48.65298" lon="6.96677">
        <ele>326.4</ele>
        <time>2021-07-31T10:50:29Z</time>
      </trkpt>
      <trkpt lat="48.65294" lon="6.9668">
        <ele>326.7</ele>
        <time>2021-07-31T10:50:31Z</time>
      </trkpt>
      <trkpt lat="48.65291" lon="6.96683">
        <ele>326.9</ele>
        <time>2021-07-31T10:50:32Z</time>
      </trkpt>
      <trkpt lat="48.65291" lon="6.96684">
        <ele>327</ele>
        <time>2021-07-31T10:50:33Z</time>
      </trkpt>
      <trkpt lat="48.65287" lon="6.96687">
        <ele>327.3</ele>
        <time>2021-07-31T10:50:35Z</time>
      </trkpt>
      <trkpt lat="48.65286" lon="6.96687">
        <ele>327.4</ele>
        <time>2021-07-31T10:50:36Z</time>
      </trkpt>
      <trkpt lat="48.65285" lon="6.96689">
        <ele>327.5</ele>
        <time>2021-07-31T10:50:37Z</time>
      </trkpt>
      <trkpt lat="48.65283" lon="6.96691">
        <ele>327.7</ele>
        <time>2021-07-31T10:50:38Z</time>
      </trkpt>
      <trkpt lat="48.65281" lon="6.96692">
        <ele>327.8</ele>
        <time>2021-07-31T10:50:39Z</time>
      </trkpt>
      <trkpt lat="48.65278" lon="6.96695">
        <ele>328</ele>
        <time>2021-07-31T10:50:41Z</time>
      </trkpt>
      <trkpt lat="48.65274" lon="6.96697">
        <ele>328.3</ele>
        <time>2021-07-31T10:50:42Z</time>
      </trkpt>
      <trkpt lat="48.65273" lon="6.96697">
        <ele>328.3</ele>
        <time>2021-07-31T10:50:43Z</time>
      </trkpt>
      <trkpt lat="48.6527" lon="6.96699">
        <ele>328.5</ele>
        <time>2021-07-31T10:50:44Z</time>
      </trkpt>
      <trkpt lat="48.65268" lon="6.96702">
        <ele>328.7</ele>
        <time>2021-07-31T10:50:45Z</time>
      </trkpt>
      <trkpt lat="48.65267" lon="6.96703">
        <ele>328.7</ele>
        <time>2021-07-31T10:50:46Z</time>
      </trkpt>
      <trkpt lat="48.65264" lon="6.96704">
        <ele>328.9</ele>
        <time>2021-07-31T10:50:48Z</time>
      </trkpt>
      <trkpt lat="48.65262" lon="6.96706">
        <ele>329</ele>
        <time>2021-07-31T10:50:49Z</time>
      </trkpt>
      <trkpt lat="48.6526" lon="6.96708">
        <ele>329</ele>
        <time>2021-07-31T10:50:51Z</time>
      </trkpt>
      <trkpt lat="48.65258" lon="6.9671">
        <ele>329.1</ele>
        <time>2021-07-31T10:50:52Z</time>
      </trkpt>
      <trkpt lat="48.65256" lon="6.96713">
        <ele>329.3</ele>
        <time>2021-07-31T10:50:54Z</time>
      </trkpt>
      <trkpt lat="48.65254" lon="6.96715">
        <ele>329.4</ele>
        <time>2021-07-31T10:50:55Z</time>
      </trkpt>
      <trkpt lat="48.65251" lon="6.96717">
        <ele>329.4</ele>
        <time>2021-07-31T10:50:56Z</time>
      </trkpt>
      <trkpt lat="48.65248" lon="6.96719">
        <ele>329.6</ele>
        <time>2021-07-31T10:50:58Z</time>
      </trkpt>
      <trkpt lat="48.65246" lon="6.96721">
        <ele>329.6</ele>
        <time>2021-07-31T10:50:59Z</time>
      </trkpt>
      <trkpt lat="48.65245" lon="6.96723">
        <ele>329.7</ele>
        <time>2021-07-31T10:51:00Z</time>
      </trkpt>
      <trkpt lat="48.65243" lon="6.96724">
        <ele>329.7</ele>
        <time>2021-07-31T10:51:01Z</time>
      </trkpt>
      <trkpt lat="48.65242" lon="6.96725">
        <ele>329.8</ele>
        <time>2021-07-31T10:51:02Z</time>
      </trkpt>
      <trkpt lat="48.65241" lon="6.96726">
        <ele>329.8</ele>
        <time>2021-07-31T10:51:03Z</time>
      </trkpt>
      <trkpt lat="48.65238" lon="6.96729">
        <ele>330</ele>
        <time>2021-07-31T10:51:05Z</time>
      </trkpt>
      <trkpt lat="48.65236" lon="6.96732">
        <ele>330.1</ele>
        <time>2021-07-31T10:51:07Z</time>
      </trkpt>
      <trkpt lat="48.65234" lon="6.96734">
        <ele>330.1</ele>
        <time>2021-07-31T10:51:08Z</time>
      </trkpt>
      <trkpt lat="48.65233" lon="6.96736">
        <ele>330.2</ele>
        <time>2021-07-31T10:51:09Z</time>
      </trkpt>
      <trkpt lat="48.6523" lon="6.96741">
        <ele>330.3</ele>
        <time>2021-07-31T10:51:11Z</time>
      </trkpt>
      <trkpt lat="48.65228" lon="6.96744">
        <ele>330.5</ele>
        <time>2021-07-31T10:51:12Z</time>
      </trkpt>
      <trkpt lat="48.65226" lon="6.96746">
        <ele>330.5</ele>
        <time>2021-07-31T10:51:13Z</time>
      </trkpt>
      <trkpt lat="48.65222" lon="6.9675">
        <ele>330.7</ele>
        <time>2021-07-31T10:51:15Z</time>
      </trkpt>
      <trkpt lat="48.65218" lon="6.96756">
        <ele>330.9</ele>
        <time>2021-07-31T10:51:17Z</time>
      </trkpt>
      <trkpt lat="48.65216" lon="6.96759">
        <ele>331</ele>
        <time>2021-07-31T10:51:18Z</time>
      </trkpt>
      <trkpt lat="48.65214" lon="6.96762">
        <ele>331.1</ele>
        <time>2021-07-31T10:51:19Z</time>
      </trkpt>
      <trkpt lat="48.65212" lon="6.96766">
        <ele>331.1</ele>
        <time>2021-07-31T10:51:20Z</time>
      </trkpt>
      <trkpt lat="48.65211" lon="6.96768">
        <ele>331.2</ele>
        <time>2021-07-31T10:51:21Z</time>
      </trkpt>
      <trkpt lat="48.65209" lon="6.9677">
        <ele>331.2</ele>
        <time>2021-07-31T10:51:22Z</time>
      </trkpt>
      <trkpt lat="48.65207" lon="6.96775">
        <ele>331.3</ele>
        <time>2021-07-31T10:51:24Z</time>
      </trkpt>
      <trkpt lat="48.65205" lon="6.96778">
        <ele>331.3</ele>
        <time>2021-07-31T10:51:25Z</time>
      </trkpt>
      <trkpt lat="48.65203" lon="6.96781">
        <ele>331.3</ele>
        <time>2021-07-31T10:51:26Z</time>
      </trkpt>
      <trkpt lat="48.65201" lon="6.96784">
        <ele>331.3</ele>
        <time>2021-07-31T10:51:28Z</time>
      </trkpt>
      <trkpt lat="48.652" lon="6.96787">
        <ele>331.3</ele>
        <time>2021-07-31T10:51:29Z</time>
      </trkpt>
      <trkpt lat="48.65197" lon="6.96791">
        <ele>331.3</ele>
        <time>2021-07-31T10:51:31Z</time>
      </trkpt>
      <trkpt lat="48.65192" lon="6.96795">
        <ele>331.2</ele>
        <time>2021-07-31T10:51:33Z</time>
      </trkpt>
      <trkpt lat="48.65188" lon="6.96801">
        <ele>331.1</ele>
        <time>2021-07-31T10:51:35Z</time>
      </trkpt>
      <trkpt lat="48.65186" lon="6.96804">
        <ele>331</ele>
        <time>2021-07-31T10:51:36Z</time>
      </trkpt>
      <trkpt lat="48.65184" lon="6.96807">
        <ele>331</ele>
        <time>2021-07-31T10:51:37Z</time>
      </trkpt>
      <trkpt lat="48.6518" lon="6.96812">
        <ele>330.8</ele>
        <time>2021-07-31T10:51:39Z</time>
      </trkpt>
      <trkpt lat="48.65177" lon="6.96819">
        <ele>330.5</ele>
        <time>2021-07-31T10:51:41Z</time>
      </trkpt>
      <trkpt lat="48.65175" lon="6.96823">
        <ele>330.4</ele>
        <time>2021-07-31T10:51:42Z</time>
      </trkpt>
      <trkpt lat="48.65173" lon="6.96827">
        <ele>330.2</ele>
        <time>2021-07-31T10:51:43Z</time>
      </trkpt>
      <trkpt lat="48.65168" lon="6.96835">
        <ele>329.7</ele>
        <time>2021-07-31T10:51:45Z</time>
      </trkpt>
      <trkpt lat="48.65162" lon="6.96845">
        <ele>329.2</ele>
        <time>2021-07-31T10:51:47Z</time>
      </trkpt>
      <trkpt lat="48.65159" lon="6.96852">
        <ele>328.8</ele>
        <time>2021-07-31T10:51:48Z</time>
      </trkpt>
      <trkpt lat="48.65153" lon="6.96864">
        <ele>328.2</ele>
        <time>2021-07-31T10:51:50Z</time>
      </trkpt>
      <trkpt lat="48.65151" lon="6.9687">
        <ele>327.9</ele>
        <time>2021-07-31T10:51:51Z</time>
      </trkpt>
      <trkpt lat="48.65147" lon="6.96882">
        <ele>327.4</ele>
        <time>2021-07-31T10:51:53Z</time>
      </trkpt>
      <trkpt lat="48.65144" lon="6.96895">
        <ele>326.9</ele>
        <time>2021-07-31T10:51:55Z</time>
      </trkpt>
      <trkpt lat="48.65142" lon="6.9691">
        <ele>326.6</ele>
        <time>2021-07-31T10:51:57Z</time>
      </trkpt>
      <trkpt lat="48.65138" lon="6.96925">
        <ele>326.4</ele>
        <time>2021-07-31T10:51:59Z</time>
      </trkpt>
      <trkpt lat="48.65136" lon="6.96939">
        <ele>326.3</ele>
        <time>2021-07-31T10:52:01Z</time>
      </trkpt>
      <trkpt lat="48.65134" lon="6.96953">
        <ele>326.2</ele>
        <time>2021-07-31T10:52:03Z</time>
      </trkpt>
      <trkpt lat="48.65132" lon="6.96968">
        <ele>326.1</ele>
        <time>2021-07-31T10:52:05Z</time>
      </trkpt>
      <trkpt lat="48.65129" lon="6.96982">
        <ele>326</ele>
        <time>2021-07-31T10:52:07Z</time>
      </trkpt>
      <trkpt lat="48.65127" lon="6.96989">
        <ele>325.9</ele>
        <time>2021-07-31T10:52:08Z</time>
      </trkpt>
      <trkpt lat="48.65125" lon="6.97002">
        <ele>325.9</ele>
        <time>2021-07-31T10:52:10Z</time>
      </trkpt>
      <trkpt lat="48.65125" lon="6.97009">
        <ele>325.8</ele>
        <time>2021-07-31T10:52:11Z</time>
      </trkpt>
      <trkpt lat="48.65123" lon="6.97025">
        <ele>325.8</ele>
        <time>2021-07-31T10:52:13Z</time>
      </trkpt>
      <trkpt lat="48.65122" lon="6.97032">
        <ele>325.8</ele>
        <time>2021-07-31T10:52:14Z</time>
      </trkpt>
      <trkpt lat="48.65121" lon="6.9704">
        <ele>325.8</ele>
        <time>2021-07-31T10:52:15Z</time>
      </trkpt>
      <trkpt lat="48.65119" lon="6.97056">
        <ele>325.8</ele>
        <time>2021-07-31T10:52:17Z</time>
      </trkpt>
      <trkpt lat="48.65115" lon="6.9707">
        <ele>325.9</ele>
        <time>2021-07-31T10:52:19Z</time>
      </trkpt>
      <trkpt lat="48.65112" lon="6.97085">
        <ele>326</ele>
        <time>2021-07-31T10:52:21Z</time>
      </trkpt>
      <trkpt lat="48.6511" lon="6.97099">
        <ele>326.2</ele>
        <time>2021-07-31T10:52:23Z</time>
      </trkpt>
      <trkpt lat="48.65108" lon="6.97105">
        <ele>326.3</ele>
        <time>2021-07-31T10:52:24Z</time>
      </trkpt>
      <trkpt lat="48.65105" lon="6.97116">
        <ele>326.5</ele>
        <time>2021-07-31T10:52:26Z</time>
      </trkpt>
      <trkpt lat="48.65102" lon="6.97129">
        <ele>326.7</ele>
        <time>2021-07-31T10:52:28Z</time>
      </trkpt>
      <trkpt lat="48.65101" lon="6.97136">
        <ele>326.8</ele>
        <time>2021-07-31T10:52:29Z</time>
      </trkpt>
      <trkpt lat="48.651" lon="6.97144">
        <ele>327</ele>
        <time>2021-07-31T10:52:30Z</time>
      </trkpt>
      <trkpt lat="48.65098" lon="6.97157">
        <ele>327.3</ele>
        <time>2021-07-31T10:52:32Z</time>
      </trkpt>
      <trkpt lat="48.65101" lon="6.97164">
        <ele>327.5</ele>
        <time>2021-07-31T10:52:33Z</time>
      </trkpt>
      <trkpt lat="48.65098" lon="6.9717">
        <ele>327.8</ele>
        <time>2021-07-31T10:52:35Z</time>
      </trkpt>
      <trkpt lat="48.65096" lon="6.97176">
        <ele>328</ele>
        <time>2021-07-31T10:52:36Z</time>
      </trkpt>
      <trkpt lat="48.65094" lon="6.97183">
        <ele>328.2</ele>
        <time>2021-07-31T10:52:37Z</time>
      </trkpt>
      <trkpt lat="48.65093" lon="6.97194">
        <ele>328.6</ele>
        <time>2021-07-31T10:52:39Z</time>
      </trkpt>
      <trkpt lat="48.65091" lon="6.97204">
        <ele>329.1</ele>
        <time>2021-07-31T10:52:41Z</time>
      </trkpt>
      <trkpt lat="48.65089" lon="6.97214">
        <ele>329.5</ele>
        <time>2021-07-31T10:52:42Z</time>
      </trkpt>
      <trkpt lat="48.65089" lon="6.97219">
        <ele>329.7</ele>
        <time>2021-07-31T10:52:43Z</time>
      </trkpt>
      <trkpt lat="48.65088" lon="6.97226">
        <ele>330.1</ele>
        <time>2021-07-31T10:52:45Z</time>
      </trkpt>
      <trkpt lat="48.65088" lon="6.97229">
        <ele>330.3</ele>
        <time>2021-07-31T10:52:46Z</time>
      </trkpt>
      <trkpt lat="48.65088" lon="6.97231">
        <ele>330.4</ele>
        <time>2021-07-31T10:52:47Z</time>
      </trkpt>
      <trkpt lat="48.65087" lon="6.97235">
        <ele>330.6</ele>
        <time>2021-07-31T10:52:48Z</time>
      </trkpt>
      <trkpt lat="48.65087" lon="6.97237">
        <ele>330.8</ele>
        <time>2021-07-31T10:52:49Z</time>
      </trkpt>
      <trkpt lat="48.65087" lon="6.97243">
        <ele>331.1</ele>
        <time>2021-07-31T10:52:51Z</time>
      </trkpt>
      <trkpt lat="48.65085" lon="6.97247">
        <ele>331.4</ele>
        <time>2021-07-31T10:52:53Z</time>
      </trkpt>
      <trkpt lat="48.65083" lon="6.97251">
        <ele>331.8</ele>
        <time>2021-07-31T10:52:55Z</time>
      </trkpt>
      <trkpt lat="48.65082" lon="6.97254">
        <ele>331.9</ele>
        <time>2021-07-31T10:52:56Z</time>
      </trkpt>
      <trkpt lat="48.65081" lon="6.9726">
        <ele>332.3</ele>
        <time>2021-07-31T10:52:58Z</time>
      </trkpt>
      <trkpt lat="48.6508" lon="6.97264">
        <ele>332.6</ele>
        <time>2021-07-31T10:52:59Z</time>
      </trkpt>
      <trkpt lat="48.65079" lon="6.97267">
        <ele>332.8</ele>
        <time>2021-07-31T10:53:01Z</time>
      </trkpt>
      <trkpt lat="48.65078" lon="6.9727">
        <ele>333</ele>
        <time>2021-07-31T10:53:02Z</time>
      </trkpt>
      <trkpt lat="48.65077" lon="6.97271">
        <ele>333.1</ele>
        <time>2021-07-31T10:53:03Z</time>
      </trkpt>
      <trkpt lat="48.65073" lon="6.97276">
        <ele>333.6</ele>
        <time>2021-07-31T10:53:05Z</time>
      </trkpt>
      <trkpt lat="48.65072" lon="6.97277">
        <ele>333.8</ele>
        <time>2021-07-31T10:53:06Z</time>
      </trkpt>
      <trkpt lat="48.65071" lon="6.97279">
        <ele>333.9</ele>
        <time>2021-07-31T10:53:07Z</time>
      </trkpt>
      <trkpt lat="48.6507" lon="6.97281">
        <ele>334.1</ele>
        <time>2021-07-31T10:53:08Z</time>
      </trkpt>
      <trkpt lat="48.65069" lon="6.97284">
        <ele>334.3</ele>
        <time>2021-07-31T10:53:09Z</time>
      </trkpt>
      <trkpt lat="48.65068" lon="6.9729">
        <ele>334.7</ele>
        <time>2021-07-31T10:53:11Z</time>
      </trkpt>
      <trkpt lat="48.65068" lon="6.97292">
        <ele>334.8</ele>
        <time>2021-07-31T10:53:12Z</time>
      </trkpt>
      <trkpt lat="48.65068" lon="6.97294">
        <ele>334.9</ele>
        <time>2021-07-31T10:53:13Z</time>
      </trkpt>
      <trkpt lat="48.65068" lon="6.97296">
        <ele>335.1</ele>
        <time>2021-07-31T10:53:14Z</time>
      </trkpt>
      <trkpt lat="48.65068" lon="6.97299">
        <ele>335.3</ele>
        <time>2021-07-31T10:53:15Z</time>
      </trkpt>
      <trkpt lat="48.65069" lon="6.97303">
        <ele>335.5</ele>
        <time>2021-07-31T10:53:17Z</time>
      </trkpt>
      <trkpt lat="48.6507" lon="6.9731">
        <ele>336</ele>
        <time>2021-07-31T10:53:19Z</time>
      </trkpt>
      <trkpt lat="48.6507" lon="6.97313">
        <ele>336.2</ele>
        <time>2021-07-31T10:53:20Z</time>
      </trkpt>
      <trkpt lat="48.65069" lon="6.9732">
        <ele>336.6</ele>
        <time>2021-07-31T10:53:22Z</time>
      </trkpt>
      <trkpt lat="48.65068" lon="6.97325">
        <ele>336.9</ele>
        <time>2021-07-31T10:53:23Z</time>
      </trkpt>
      <trkpt lat="48.65068" lon="6.97326">
        <ele>337</ele>
        <time>2021-07-31T10:53:24Z</time>
      </trkpt>
      <trkpt lat="48.65065" lon="6.97329">
        <ele>337.3</ele>
        <time>2021-07-31T10:53:26Z</time>
      </trkpt>
      <trkpt lat="48.65061" lon="6.97329">
        <ele>337.7</ele>
        <time>2021-07-31T10:53:27Z</time>
      </trkpt>
      <trkpt lat="48.65059" lon="6.97329">
        <ele>337.9</ele>
        <time>2021-07-31T10:53:28Z</time>
      </trkpt>
      <trkpt lat="48.65056" lon="6.97329">
        <ele>338.1</ele>
        <time>2021-07-31T10:53:29Z</time>
      </trkpt>
      <trkpt lat="48.65055" lon="6.97329">
        <ele>338.2</ele>
        <time>2021-07-31T10:53:30Z</time>
      </trkpt>
      <trkpt lat="48.65055" lon="6.9733">
        <ele>338.2</ele>
        <time>2021-07-31T10:53:32Z</time>
      </trkpt>
      <trkpt lat="48.65052" lon="6.97331">
        <ele>338.4</ele>
        <time>2021-07-31T10:53:33Z</time>
      </trkpt>
      <trkpt lat="48.6505" lon="6.97332">
        <ele>338.7</ele>
        <time>2021-07-31T10:53:34Z</time>
      </trkpt>
      <trkpt lat="48.65049" lon="6.97333">
        <ele>338.8</ele>
        <time>2021-07-31T10:53:35Z</time>
      </trkpt>
      <trkpt lat="48.65046" lon="6.97336">
        <ele>339</ele>
        <time>2021-07-31T10:53:36Z</time>
      </trkpt>
      <trkpt lat="48.65044" lon="6.9734">
        <ele>339.3</ele>
        <time>2021-07-31T10:53:37Z</time>
      </trkpt>
      <trkpt lat="48.65044" lon="6.97341">
        <ele>339.4</ele>
        <time>2021-07-31T10:53:38Z</time>
      </trkpt>
      <trkpt lat="48.65045" lon="6.97344">
        <ele>339.6</ele>
        <time>2021-07-31T10:53:40Z</time>
      </trkpt>
      <trkpt lat="48.65045" lon="6.97345">
        <ele>339.7</ele>
        <time>2021-07-31T10:53:41Z</time>
      </trkpt>
      <trkpt lat="48.65045" lon="6.97346">
        <ele>339.7</ele>
        <time>2021-07-31T10:53:43Z</time>
      </trkpt>
      <trkpt lat="48.65045" lon="6.97346">
        <ele>339.7</ele>
        <time>2021-07-31T10:53:44Z</time>
      </trkpt>
      <trkpt lat="48.65045" lon="6.97347">
        <ele>339.8</ele>
        <time>2021-07-31T10:53:46Z</time>
      </trkpt>
      <trkpt lat="48.65045" lon="6.97348">
        <ele>339.9</ele>
        <time>2021-07-31T10:53:47Z</time>
      </trkpt>
      <trkpt lat="48.65047" lon="6.9737">
        <ele>341.1</ele>
        <time>2021-07-31T10:53:59Z</time>
      </trkpt>
      <trkpt lat="48.65047" lon="6.97382">
        <ele>341.7</ele>
        <time>2021-07-31T10:54:01Z</time>
      </trkpt>
      <trkpt lat="48.65048" lon="6.97387">
        <ele>341.9</ele>
        <time>2021-07-31T10:54:02Z</time>
      </trkpt>
      <trkpt lat="48.65048" lon="6.97391">
        <ele>342.1</ele>
        <time>2021-07-31T10:54:03Z</time>
      </trkpt>
      <trkpt lat="48.65048" lon="6.97393">
        <ele>342.2</ele>
        <time>2021-07-31T10:54:04Z</time>
      </trkpt>
      <trkpt lat="48.65048" lon="6.97396">
        <ele>342.3</ele>
        <time>2021-07-31T10:54:05Z</time>
      </trkpt>
      <trkpt lat="48.65047" lon="6.97398">
        <ele>342.5</ele>
        <time>2021-07-31T10:54:06Z</time>
      </trkpt>
      <trkpt lat="48.65047" lon="6.97403">
        <ele>342.7</ele>
        <time>2021-07-31T10:54:07Z</time>
      </trkpt>
      <trkpt lat="48.65047" lon="6.97404">
        <ele>342.8</ele>
        <time>2021-07-31T10:54:08Z</time>
      </trkpt>
      <trkpt lat="48.65046" lon="6.97407">
        <ele>342.9</ele>
        <time>2021-07-31T10:54:10Z</time>
      </trkpt>
      <trkpt lat="48.65045" lon="6.97407">
        <ele>342.9</ele>
        <time>2021-07-31T10:54:11Z</time>
      </trkpt>
      <trkpt lat="48.65045" lon="6.97408">
        <ele>343</ele>
        <time>2021-07-31T10:54:12Z</time>
      </trkpt>
      <trkpt lat="48.65044" lon="6.97409">
        <ele>343</ele>
        <time>2021-07-31T10:54:13Z</time>
      </trkpt>
      <trkpt lat="48.65042" lon="6.97412">
        <ele>343.2</ele>
        <time>2021-07-31T10:54:14Z</time>
      </trkpt>
      <trkpt lat="48.6504" lon="6.97416">
        <ele>343.5</ele>
        <time>2021-07-31T10:54:16Z</time>
      </trkpt>
      <trkpt lat="48.65038" lon="6.97419">
        <ele>343.7</ele>
        <time>2021-07-31T10:54:18Z</time>
      </trkpt>
      <trkpt lat="48.65036" lon="6.97422">
        <ele>343.8</ele>
        <time>2021-07-31T10:54:19Z</time>
      </trkpt>
      <trkpt lat="48.65035" lon="6.97425">
        <ele>344</ele>
        <time>2021-07-31T10:54:21Z</time>
      </trkpt>
      <trkpt lat="48.65035" lon="6.97427">
        <ele>344</ele>
        <time>2021-07-31T10:54:23Z</time>
      </trkpt>
      <trkpt lat="48.65035" lon="6.97428">
        <ele>344.1</ele>
        <time>2021-07-31T10:54:24Z</time>
      </trkpt>
      <trkpt lat="48.65035" lon="6.97429">
        <ele>344.1</ele>
        <time>2021-07-31T10:54:25Z</time>
      </trkpt>
      <trkpt lat="48.65035" lon="6.9743">
        <ele>344.2</ele>
        <time>2021-07-31T10:54:26Z</time>
      </trkpt>
      <trkpt lat="48.65036" lon="6.97433">
        <ele>344.3</ele>
        <time>2021-07-31T10:54:28Z</time>
      </trkpt>
      <trkpt lat="48.65036" lon="6.97435">
        <ele>344.4</ele>
        <time>2021-07-31T10:54:30Z</time>
      </trkpt>
      <trkpt lat="48.65017" lon="6.97496">
        <ele>347.2</ele>
        <time>2021-07-31T10:55:04Z</time>
      </trkpt>
      <trkpt lat="48.65014" lon="6.975">
        <ele>347.4</ele>
        <time>2021-07-31T10:55:05Z</time>
      </trkpt>
      <trkpt lat="48.65011" lon="6.97503">
        <ele>347.5</ele>
        <time>2021-07-31T10:55:06Z</time>
      </trkpt>
      <trkpt lat="48.65004" lon="6.9751">
        <ele>347.9</ele>
        <time>2021-07-31T10:55:08Z</time>
      </trkpt>
      <trkpt lat="48.65" lon="6.97516">
        <ele>348.1</ele>
        <time>2021-07-31T10:55:09Z</time>
      </trkpt>
      <trkpt lat="48.64997" lon="6.97521">
        <ele>348.2</ele>
        <time>2021-07-31T10:55:10Z</time>
      </trkpt>
      <trkpt lat="48.64995" lon="6.97525">
        <ele>348.2</ele>
        <time>2021-07-31T10:55:11Z</time>
      </trkpt>
      <trkpt lat="48.64994" lon="6.97531">
        <ele>348.3</ele>
        <time>2021-07-31T10:55:13Z</time>
      </trkpt>
      <trkpt lat="48.64993" lon="6.97536">
        <ele>348.3</ele>
        <time>2021-07-31T10:55:14Z</time>
      </trkpt>
      <trkpt lat="48.64992" lon="6.97546">
        <ele>348.3</ele>
        <time>2021-07-31T10:55:16Z</time>
      </trkpt>
      <trkpt lat="48.64992" lon="6.97553">
        <ele>348.3</ele>
        <time>2021-07-31T10:55:17Z</time>
      </trkpt>
      <trkpt lat="48.64991" lon="6.97558">
        <ele>348.2</ele>
        <time>2021-07-31T10:55:18Z</time>
      </trkpt>
      <trkpt lat="48.64989" lon="6.97563">
        <ele>348</ele>
        <time>2021-07-31T10:55:19Z</time>
      </trkpt>
      <trkpt lat="48.64985" lon="6.97574">
        <ele>347.4</ele>
        <time>2021-07-31T10:55:21Z</time>
      </trkpt>
      <trkpt lat="48.64979" lon="6.97581">
        <ele>346.5</ele>
        <time>2021-07-31T10:55:23Z</time>
      </trkpt>
      <trkpt lat="48.64976" lon="6.97586">
        <ele>346</ele>
        <time>2021-07-31T10:55:24Z</time>
      </trkpt>
      <trkpt lat="48.64971" lon="6.97593">
        <ele>346.1</ele>
        <time>2021-07-31T10:55:25Z</time>
      </trkpt>
      <trkpt lat="48.64967" lon="6.97597">
        <ele>346.1</ele>
        <time>2021-07-31T10:55:27Z</time>
      </trkpt>
      <trkpt lat="48.64964" lon="6.97603">
        <ele>346.1</ele>
        <time>2021-07-31T10:55:28Z</time>
      </trkpt>
      <trkpt lat="48.64963" lon="6.97607">
        <ele>346.1</ele>
        <time>2021-07-31T10:55:29Z</time>
      </trkpt>
      <trkpt lat="48.64961" lon="6.97612">
        <ele>346.1</ele>
        <time>2021-07-31T10:55:30Z</time>
      </trkpt>
      <trkpt lat="48.6496" lon="6.97618">
        <ele>346.2</ele>
        <time>2021-07-31T10:55:32Z</time>
      </trkpt>
      <trkpt lat="48.64959" lon="6.97627">
        <ele>346.2</ele>
        <time>2021-07-31T10:55:34Z</time>
      </trkpt>
      <trkpt lat="48.64958" lon="6.97634">
        <ele>346.2</ele>
        <time>2021-07-31T10:55:35Z</time>
      </trkpt>
      <trkpt lat="48.64956" lon="6.97645">
        <ele>346.2</ele>
        <time>2021-07-31T10:55:37Z</time>
      </trkpt>
      <trkpt lat="48.64955" lon="6.97651">
        <ele>346.3</ele>
        <time>2021-07-31T10:55:38Z</time>
      </trkpt>
      <trkpt lat="48.64954" lon="6.97656">
        <ele>346.3</ele>
        <time>2021-07-31T10:55:39Z</time>
      </trkpt>
      <trkpt lat="48.64952" lon="6.97667">
        <ele>346.4</ele>
        <time>2021-07-31T10:55:41Z</time>
      </trkpt>
      <trkpt lat="48.6495" lon="6.97678">
        <ele>346.4</ele>
        <time>2021-07-31T10:55:43Z</time>
      </trkpt>
      <trkpt lat="48.64948" lon="6.97686">
        <ele>346.5</ele>
        <time>2021-07-31T10:55:44Z</time>
      </trkpt>
      <trkpt lat="48.64947" lon="6.97693">
        <ele>346.5</ele>
        <time>2021-07-31T10:55:46Z</time>
      </trkpt>
      <trkpt lat="48.64945" lon="6.977">
        <ele>346.6</ele>
        <time>2021-07-31T10:55:47Z</time>
      </trkpt>
      <trkpt lat="48.64944" lon="6.97706">
        <ele>346.6</ele>
        <time>2021-07-31T10:55:48Z</time>
      </trkpt>
      <trkpt lat="48.64941" lon="6.97713">
        <ele>346.7</ele>
        <time>2021-07-31T10:55:50Z</time>
      </trkpt>
      <trkpt lat="48.64938" lon="6.97717">
        <ele>346.7</ele>
        <time>2021-07-31T10:55:51Z</time>
      </trkpt>
      <trkpt lat="48.64933" lon="6.97724">
        <ele>346.8</ele>
        <time>2021-07-31T10:55:52Z</time>
      </trkpt>
      <trkpt lat="48.6493" lon="6.97729">
        <ele>346.8</ele>
        <time>2021-07-31T10:55:53Z</time>
      </trkpt>
      <trkpt lat="48.64926" lon="6.97733">
        <ele>346.9</ele>
        <time>2021-07-31T10:55:55Z</time>
      </trkpt>
      <trkpt lat="48.64921" lon="6.97737">
        <ele>347</ele>
        <time>2021-07-31T10:55:56Z</time>
      </trkpt>
      <trkpt lat="48.64917" lon="6.97743">
        <ele>347</ele>
        <time>2021-07-31T10:55:57Z</time>
      </trkpt>
      <trkpt lat="48.64914" lon="6.97753">
        <ele>347.1</ele>
        <time>2021-07-31T10:55:59Z</time>
      </trkpt>
      <trkpt lat="48.64912" lon="6.97758">
        <ele>347.1</ele>
        <time>2021-07-31T10:56:00Z</time>
      </trkpt>
      <trkpt lat="48.64908" lon="6.97769">
        <ele>347.1</ele>
        <time>2021-07-31T10:56:02Z</time>
      </trkpt>
      <trkpt lat="48.64905" lon="6.97773">
        <ele>347.1</ele>
        <time>2021-07-31T10:56:03Z</time>
      </trkpt>
      <trkpt lat="48.64902" lon="6.97778">
        <ele>347.1</ele>
        <time>2021-07-31T10:56:04Z</time>
      </trkpt>
      <trkpt lat="48.64899" lon="6.97785">
        <ele>347.1</ele>
        <time>2021-07-31T10:56:05Z</time>
      </trkpt>
      <trkpt lat="48.64892" lon="6.978">
        <ele>347.1</ele>
        <time>2021-07-31T10:56:07Z</time>
      </trkpt>
      <trkpt lat="48.64889" lon="6.97807">
        <ele>347.1</ele>
        <time>2021-07-31T10:56:08Z</time>
      </trkpt>
      <trkpt lat="48.64881" lon="6.9782">
        <ele>347</ele>
        <time>2021-07-31T10:56:10Z</time>
      </trkpt>
      <trkpt lat="48.64878" lon="6.97825">
        <ele>347</ele>
        <time>2021-07-31T10:56:11Z</time>
      </trkpt>
      <trkpt lat="48.64876" lon="6.97824">
        <ele>346.9</ele>
        <time>2021-07-31T10:56:12Z</time>
      </trkpt>
      <trkpt lat="48.64872" lon="6.97831">
        <ele>346.9</ele>
        <time>2021-07-31T10:56:14Z</time>
      </trkpt>
      <trkpt lat="48.64869" lon="6.97836">
        <ele>346.8</ele>
        <time>2021-07-31T10:56:15Z</time>
      </trkpt>
      <trkpt lat="48.64867" lon="6.97842">
        <ele>346.8</ele>
        <time>2021-07-31T10:56:16Z</time>
      </trkpt>
      <trkpt lat="48.6486" lon="6.9785">
        <ele>346.8</ele>
        <time>2021-07-31T10:56:18Z</time>
      </trkpt>
      <trkpt lat="48.64854" lon="6.97856">
        <ele>346.9</ele>
        <time>2021-07-31T10:56:19Z</time>
      </trkpt>
      <trkpt lat="48.64848" lon="6.97862">
        <ele>347</ele>
        <time>2021-07-31T10:56:21Z</time>
      </trkpt>
      <trkpt lat="48.64839" lon="6.97868">
        <ele>347</ele>
        <time>2021-07-31T10:56:23Z</time>
      </trkpt>
      <trkpt lat="48.64834" lon="6.97871">
        <ele>347</ele>
        <time>2021-07-31T10:56:24Z</time>
      </trkpt>
      <trkpt lat="48.64826" lon="6.97876">
        <ele>347.1</ele>
        <time>2021-07-31T10:56:26Z</time>
      </trkpt>
      <trkpt lat="48.64822" lon="6.97879">
        <ele>347.1</ele>
        <time>2021-07-31T10:56:27Z</time>
      </trkpt>
      <trkpt lat="48.64817" lon="6.97884">
        <ele>347.2</ele>
        <time>2021-07-31T10:56:29Z</time>
      </trkpt>
      <trkpt lat="48.64815" lon="6.97889">
        <ele>347.3</ele>
        <time>2021-07-31T10:56:30Z</time>
      </trkpt>
      <trkpt lat="48.6481" lon="6.97897">
        <ele>347.4</ele>
        <time>2021-07-31T10:56:32Z</time>
      </trkpt>
      <trkpt lat="48.64808" lon="6.97902">
        <ele>347.5</ele>
        <time>2021-07-31T10:56:33Z</time>
      </trkpt>
      <trkpt lat="48.64806" lon="6.97906">
        <ele>347.6</ele>
        <time>2021-07-31T10:56:34Z</time>
      </trkpt>
      <trkpt lat="48.64801" lon="6.97915">
        <ele>347.8</ele>
        <time>2021-07-31T10:56:36Z</time>
      </trkpt>
      <trkpt lat="48.64795" lon="6.97923">
        <ele>348.1</ele>
        <time>2021-07-31T10:56:38Z</time>
      </trkpt>
      <trkpt lat="48.6479" lon="6.97929">
        <ele>348.4</ele>
        <time>2021-07-31T10:56:39Z</time>
      </trkpt>
      <trkpt lat="48.64786" lon="6.97935">
        <ele>348.6</ele>
        <time>2021-07-31T10:56:40Z</time>
      </trkpt>
      <trkpt lat="48.64783" lon="6.97944">
        <ele>348.8</ele>
        <time>2021-07-31T10:56:42Z</time>
      </trkpt>
      <trkpt lat="48.6478" lon="6.97951">
        <ele>349</ele>
        <time>2021-07-31T10:56:43Z</time>
      </trkpt>
      <trkpt lat="48.64776" lon="6.97959">
        <ele>349.3</ele>
        <time>2021-07-31T10:56:45Z</time>
      </trkpt>
      <trkpt lat="48.64773" lon="6.97966">
        <ele>349.4</ele>
        <time>2021-07-31T10:56:46Z</time>
      </trkpt>
      <trkpt lat="48.64768" lon="6.97974">
        <ele>349.6</ele>
        <time>2021-07-31T10:56:48Z</time>
      </trkpt>
      <trkpt lat="48.64766" lon="6.97978">
        <ele>349.7</ele>
        <time>2021-07-31T10:56:49Z</time>
      </trkpt>
      <trkpt lat="48.64763" lon="6.97981">
        <ele>349.8</ele>
        <time>2021-07-31T10:56:50Z</time>
      </trkpt>
      <trkpt lat="48.64758" lon="6.97986">
        <ele>350</ele>
        <time>2021-07-31T10:56:51Z</time>
      </trkpt>
      <trkpt lat="48.64752" lon="6.97992">
        <ele>350.3</ele>
        <time>2021-07-31T10:56:53Z</time>
      </trkpt>
      <trkpt lat="48.64748" lon="6.97995">
        <ele>350.5</ele>
        <time>2021-07-31T10:56:54Z</time>
      </trkpt>
      <trkpt lat="48.64739" lon="6.98">
        <ele>350.8</ele>
        <time>2021-07-31T10:56:56Z</time>
      </trkpt>
      <trkpt lat="48.64735" lon="6.98003">
        <ele>350.9</ele>
        <time>2021-07-31T10:56:57Z</time>
      </trkpt>
      <trkpt lat="48.64726" lon="6.98006">
        <ele>351.1</ele>
        <time>2021-07-31T10:56:59Z</time>
      </trkpt>
      <trkpt lat="48.64721" lon="6.98008">
        <ele>351.1</ele>
        <time>2021-07-31T10:57:00Z</time>
      </trkpt>
      <trkpt lat="48.64717" lon="6.98011">
        <ele>351.2</ele>
        <time>2021-07-31T10:57:01Z</time>
      </trkpt>
      <trkpt lat="48.64712" lon="6.98016">
        <ele>351.3</ele>
        <time>2021-07-31T10:57:02Z</time>
      </trkpt>
      <trkpt lat="48.64709" lon="6.9802">
        <ele>351.4</ele>
        <time>2021-07-31T10:57:03Z</time>
      </trkpt>
      <trkpt lat="48.64708" lon="6.98023">
        <ele>351.4</ele>
        <time>2021-07-31T10:57:05Z</time>
      </trkpt>
      <trkpt lat="48.64706" lon="6.98027">
        <ele>351.5</ele>
        <time>2021-07-31T10:57:06Z</time>
      </trkpt>
      <trkpt lat="48.64704" lon="6.9803">
        <ele>351.5</ele>
        <time>2021-07-31T10:57:07Z</time>
      </trkpt>
      <trkpt lat="48.64702" lon="6.98034">
        <ele>351.6</ele>
        <time>2021-07-31T10:57:08Z</time>
      </trkpt>
      <trkpt lat="48.64701" lon="6.98039">
        <ele>351.6</ele>
        <time>2021-07-31T10:57:09Z</time>
      </trkpt>
      <trkpt lat="48.64699" lon="6.98043">
        <ele>351.6</ele>
        <time>2021-07-31T10:57:10Z</time>
      </trkpt>
      <trkpt lat="48.64697" lon="6.98048">
        <ele>351.6</ele>
        <time>2021-07-31T10:57:11Z</time>
      </trkpt>
      <trkpt lat="48.64692" lon="6.98055">
        <ele>351.6</ele>
        <time>2021-07-31T10:57:13Z</time>
      </trkpt>
      <trkpt lat="48.64691" lon="6.9806">
        <ele>351.5</ele>
        <time>2021-07-31T10:57:14Z</time>
      </trkpt>
      <trkpt lat="48.64689" lon="6.98064">
        <ele>351.4</ele>
        <time>2021-07-31T10:57:15Z</time>
      </trkpt>
      <trkpt lat="48.64685" lon="6.98071">
        <ele>351.3</ele>
        <time>2021-07-31T10:57:17Z</time>
      </trkpt>
      <trkpt lat="48.64683" lon="6.98075">
        <ele>351.3</ele>
        <time>2021-07-31T10:57:18Z</time>
      </trkpt>
      <trkpt lat="48.64679" lon="6.98082">
        <ele>351.2</ele>
        <time>2021-07-31T10:57:20Z</time>
      </trkpt>
      <trkpt lat="48.64677" lon="6.98087">
        <ele>351.1</ele>
        <time>2021-07-31T10:57:21Z</time>
      </trkpt>
      <trkpt lat="48.64674" lon="6.98095">
        <ele>351</ele>
        <time>2021-07-31T10:57:23Z</time>
      </trkpt>
      <trkpt lat="48.6467" lon="6.98105">
        <ele>350.9</ele>
        <time>2021-07-31T10:57:25Z</time>
      </trkpt>
      <trkpt lat="48.64668" lon="6.98108">
        <ele>350.8</ele>
        <time>2021-07-31T10:57:26Z</time>
      </trkpt>
      <trkpt lat="48.64661" lon="6.98114">
        <ele>350.6</ele>
        <time>2021-07-31T10:57:28Z</time>
      </trkpt>
      <trkpt lat="48.64659" lon="6.98123">
        <ele>350.3</ele>
        <time>2021-07-31T10:57:29Z</time>
      </trkpt>
      <trkpt lat="48.64654" lon="6.98131">
        <ele>350</ele>
        <time>2021-07-31T10:57:31Z</time>
      </trkpt>
      <trkpt lat="48.6465" lon="6.98135">
        <ele>349.8</ele>
        <time>2021-07-31T10:57:32Z</time>
      </trkpt>
      <trkpt lat="48.64644" lon="6.98141">
        <ele>349.5</ele>
        <time>2021-07-31T10:57:34Z</time>
      </trkpt>
      <trkpt lat="48.64639" lon="6.98145">
        <ele>349.2</ele>
        <time>2021-07-31T10:57:35Z</time>
      </trkpt>
      <trkpt lat="48.64635" lon="6.98149">
        <ele>348.9</ele>
        <time>2021-07-31T10:57:36Z</time>
      </trkpt>
      <trkpt lat="48.64626" lon="6.98158">
        <ele>348.4</ele>
        <time>2021-07-31T10:57:38Z</time>
      </trkpt>
      <trkpt lat="48.64618" lon="6.98165">
        <ele>348</ele>
        <time>2021-07-31T10:57:40Z</time>
      </trkpt>
      <trkpt lat="48.64611" lon="6.98172">
        <ele>347.7</ele>
        <time>2021-07-31T10:57:42Z</time>
      </trkpt>
      <trkpt lat="48.64607" lon="6.98178">
        <ele>347.4</ele>
        <time>2021-07-31T10:57:44Z</time>
      </trkpt>
      <trkpt lat="48.64605" lon="6.9818">
        <ele>347.3</ele>
        <time>2021-07-31T10:57:45Z</time>
      </trkpt>
      <trkpt lat="48.64601" lon="6.98183">
        <ele>347.1</ele>
        <time>2021-07-31T10:57:47Z</time>
      </trkpt>
      <trkpt lat="48.646" lon="6.98184">
        <ele>347</ele>
        <time>2021-07-31T10:57:48Z</time>
      </trkpt>
      <trkpt lat="48.64599" lon="6.98186">
        <ele>347</ele>
        <time>2021-07-31T10:57:49Z</time>
      </trkpt>
      <trkpt lat="48.64599" lon="6.98186">
        <ele>347</ele>
        <time>2021-07-31T10:57:50Z</time>
      </trkpt>
      <trkpt lat="48.64596" lon="6.9819">
        <ele>346.8</ele>
        <time>2021-07-31T10:57:51Z</time>
      </trkpt>
      <trkpt lat="48.64594" lon="6.98194">
        <ele>346.6</ele>
        <time>2021-07-31T10:57:52Z</time>
      </trkpt>
      <trkpt lat="48.64591" lon="6.98198">
        <ele>346.4</ele>
        <time>2021-07-31T10:57:54Z</time>
      </trkpt>
      <trkpt lat="48.64588" lon="6.98202">
        <ele>346.2</ele>
        <time>2021-07-31T10:57:55Z</time>
      </trkpt>
      <trkpt lat="48.64585" lon="6.98206">
        <ele>346</ele>
        <time>2021-07-31T10:57:56Z</time>
      </trkpt>
      <trkpt lat="48.64583" lon="6.9821">
        <ele>345.8</ele>
        <time>2021-07-31T10:57:57Z</time>
      </trkpt>
      <trkpt lat="48.6458" lon="6.98214">
        <ele>345.7</ele>
        <time>2021-07-31T10:57:59Z</time>
      </trkpt>
      <trkpt lat="48.64577" lon="6.98218">
        <ele>345.5</ele>
        <time>2021-07-31T11:00:26Z</time>
      </trkpt>
      <trkpt lat="48.64574" lon="6.98222">
        <ele>345.4</ele>
        <time>2021-07-31T11:00:28Z</time>
      </trkpt>
      <trkpt lat="48.64569" lon="6.9823">
        <ele>345</ele>
        <time>2021-07-31T11:00:29Z</time>
      </trkpt>
      <trkpt lat="48.6456" lon="6.98245">
        <ele>344.5</ele>
        <time>2021-07-31T11:00:31Z</time>
      </trkpt>
      <trkpt lat="48.64553" lon="6.98261">
        <ele>344.1</ele>
        <time>2021-07-31T11:00:33Z</time>
      </trkpt>
      <trkpt lat="48.6455" lon="6.9827">
        <ele>343.9</ele>
        <time>2021-07-31T11:00:34Z</time>
      </trkpt>
      <trkpt lat="48.64541" lon="6.98288">
        <ele>343.5</ele>
        <time>2021-07-31T11:00:36Z</time>
      </trkpt>
      <trkpt lat="48.64534" lon="6.98305">
        <ele>343</ele>
        <time>2021-07-31T11:00:38Z</time>
      </trkpt>
      <trkpt lat="48.6453" lon="6.98314">
        <ele>342.7</ele>
        <time>2021-07-31T11:00:39Z</time>
      </trkpt>
      <trkpt lat="48.6452" lon="6.98332">
        <ele>341.8</ele>
        <time>2021-07-31T11:00:41Z</time>
      </trkpt>
      <trkpt lat="48.64515" lon="6.98341">
        <ele>341.3</ele>
        <time>2021-07-31T11:00:42Z</time>
      </trkpt>
      <trkpt lat="48.64505" lon="6.98359">
        <ele>340.2</ele>
        <time>2021-07-31T11:00:44Z</time>
      </trkpt>
      <trkpt lat="48.64499" lon="6.98367">
        <ele>339.6</ele>
        <time>2021-07-31T11:00:45Z</time>
      </trkpt>
      <trkpt lat="48.64486" lon="6.98383">
        <ele>338.7</ele>
        <time>2021-07-31T11:00:47Z</time>
      </trkpt>
      <trkpt lat="48.6448" lon="6.98391">
        <ele>338.3</ele>
        <time>2021-07-31T11:00:48Z</time>
      </trkpt>
      <trkpt lat="48.64466" lon="6.98407">
        <ele>337.4</ele>
        <time>2021-07-31T11:00:50Z</time>
      </trkpt>
      <trkpt lat="48.64454" lon="6.98423">
        <ele>336.5</ele>
        <time>2021-07-31T11:00:52Z</time>
      </trkpt>
      <trkpt lat="48.64448" lon="6.98431">
        <ele>336.1</ele>
        <time>2021-07-31T11:00:53Z</time>
      </trkpt>
      <trkpt lat="48.64442" lon="6.98438">
        <ele>335.8</ele>
        <time>2021-07-31T11:00:54Z</time>
      </trkpt>
      <trkpt lat="48.64429" lon="6.98452">
        <ele>335.4</ele>
        <time>2021-07-31T11:00:56Z</time>
      </trkpt>
      <trkpt lat="48.64416" lon="6.98465">
        <ele>335.2</ele>
        <time>2021-07-31T11:00:58Z</time>
      </trkpt>
      <trkpt lat="48.64405" lon="6.9848">
        <ele>335</ele>
        <time>2021-07-31T11:01:00Z</time>
      </trkpt>
      <trkpt lat="48.64399" lon="6.98488">
        <ele>335</ele>
        <time>2021-07-31T11:01:01Z</time>
      </trkpt>
      <trkpt lat="48.64394" lon="6.98497">
        <ele>334.9</ele>
        <time>2021-07-31T11:01:02Z</time>
      </trkpt>
      <trkpt lat="48.64388" lon="6.98505">
        <ele>334.9</ele>
        <time>2021-07-31T11:01:03Z</time>
      </trkpt>
      <trkpt lat="48.64379" lon="6.9852">
        <ele>335.2</ele>
        <time>2021-07-31T11:01:05Z</time>
      </trkpt>
      <trkpt lat="48.64374" lon="6.98527">
        <ele>335.4</ele>
        <time>2021-07-31T11:01:06Z</time>
      </trkpt>
      <trkpt lat="48.64362" lon="6.9854">
        <ele>336.1</ele>
        <time>2021-07-31T11:01:08Z</time>
      </trkpt>
      <trkpt lat="48.64357" lon="6.98546">
        <ele>336.5</ele>
        <time>2021-07-31T11:01:09Z</time>
      </trkpt>
      <trkpt lat="48.64352" lon="6.98552">
        <ele>337.1</ele>
        <time>2021-07-31T11:01:10Z</time>
      </trkpt>
      <trkpt lat="48.64346" lon="6.98557">
        <ele>337.7</ele>
        <time>2021-07-31T11:01:11Z</time>
      </trkpt>
      <trkpt lat="48.64337" lon="6.98566">
        <ele>338.9</ele>
        <time>2021-07-31T11:01:13Z</time>
      </trkpt>
      <trkpt lat="48.64333" lon="6.98571">
        <ele>339.4</ele>
        <time>2021-07-31T11:01:14Z</time>
      </trkpt>
      <trkpt lat="48.64326" lon="6.9858">
        <ele>340.6</ele>
        <time>2021-07-31T11:01:17Z</time>
      </trkpt>
      <trkpt lat="48.64322" lon="6.98583">
        <ele>341.2</ele>
        <time>2021-07-31T11:01:18Z</time>
      </trkpt>
      <trkpt lat="48.64317" lon="6.98589">
        <ele>342.1</ele>
        <time>2021-07-31T11:01:20Z</time>
      </trkpt>
      <trkpt lat="48.64315" lon="6.98592">
        <ele>342.6</ele>
        <time>2021-07-31T11:01:21Z</time>
      </trkpt>
      <trkpt lat="48.64312" lon="6.98591">
        <ele>342.9</ele>
        <time>2021-07-31T11:01:22Z</time>
      </trkpt>
      <trkpt lat="48.64308" lon="6.98596">
        <ele>343.7</ele>
        <time>2021-07-31T11:01:24Z</time>
      </trkpt>
      <trkpt lat="48.64303" lon="6.98602">
        <ele>344.5</ele>
        <time>2021-07-31T11:01:26Z</time>
      </trkpt>
      <trkpt lat="48.64301" lon="6.98604">
        <ele>344.8</ele>
        <time>2021-07-31T11:01:27Z</time>
      </trkpt>
      <trkpt lat="48.64298" lon="6.98607">
        <ele>345.3</ele>
        <time>2021-07-31T11:01:28Z</time>
      </trkpt>
      <trkpt lat="48.64297" lon="6.98608">
        <ele>345.4</ele>
        <time>2021-07-31T11:01:29Z</time>
      </trkpt>
      <trkpt lat="48.64294" lon="6.98611">
        <ele>346</ele>
        <time>2021-07-31T11:01:31Z</time>
      </trkpt>
      <trkpt lat="48.64292" lon="6.98615">
        <ele>346.1</ele>
        <time>2021-07-31T11:01:32Z</time>
      </trkpt>
      <trkpt lat="48.64292" lon="6.98616">
        <ele>346.2</ele>
        <time>2021-07-31T11:01:33Z</time>
      </trkpt>
      <trkpt lat="48.64289" lon="6.98618">
        <ele>346.4</ele>
        <time>2021-07-31T11:01:34Z</time>
      </trkpt>
      <trkpt lat="48.64289" lon="6.98619">
        <ele>346.4</ele>
        <time>2021-07-31T11:01:35Z</time>
      </trkpt>
      <trkpt lat="48.64287" lon="6.98621">
        <ele>346.6</ele>
        <time>2021-07-31T11:01:36Z</time>
      </trkpt>
      <trkpt lat="48.64286" lon="6.98623">
        <ele>346.7</ele>
        <time>2021-07-31T11:01:37Z</time>
      </trkpt>
      <trkpt lat="48.64285" lon="6.98627">
        <ele>346.8</ele>
        <time>2021-07-31T11:01:38Z</time>
      </trkpt>
      <trkpt lat="48.64285" lon="6.98628">
        <ele>346.9</ele>
        <time>2021-07-31T11:01:39Z</time>
      </trkpt>
      <trkpt lat="48.64283" lon="6.98635">
        <ele>347.2</ele>
        <time>2021-07-31T11:01:41Z</time>
      </trkpt>
      <trkpt lat="48.64282" lon="6.98637">
        <ele>347.3</ele>
        <time>2021-07-31T11:01:42Z</time>
      </trkpt>
      <trkpt lat="48.64281" lon="6.98639">
        <ele>347.4</ele>
        <time>2021-07-31T11:01:43Z</time>
      </trkpt>
      <trkpt lat="48.64279" lon="6.9864">
        <ele>347.5</ele>
        <time>2021-07-31T11:01:44Z</time>
      </trkpt>
      <trkpt lat="48.64278" lon="6.98642">
        <ele>347.6</ele>
        <time>2021-07-31T11:01:46Z</time>
      </trkpt>
      <trkpt lat="48.64276" lon="6.98645">
        <ele>347.7</ele>
        <time>2021-07-31T11:01:47Z</time>
      </trkpt>
      <trkpt lat="48.64275" lon="6.98646">
        <ele>347.8</ele>
        <time>2021-07-31T11:01:48Z</time>
      </trkpt>
      <trkpt lat="48.64271" lon="6.9865">
        <ele>347.5</ele>
        <time>2021-07-31T11:01:50Z</time>
      </trkpt>
      <trkpt lat="48.6427" lon="6.98651">
        <ele>347.4</ele>
        <time>2021-07-31T11:01:51Z</time>
      </trkpt>
      <trkpt lat="48.64269" lon="6.98652">
        <ele>347.2</ele>
        <time>2021-07-31T11:01:52Z</time>
      </trkpt>
      <trkpt lat="48.64268" lon="6.98653">
        <ele>347.1</ele>
        <time>2021-07-31T11:01:53Z</time>
      </trkpt>
      <trkpt lat="48.64266" lon="6.98653">
        <ele>346.9</ele>
        <time>2021-07-31T11:01:55Z</time>
      </trkpt>
      <trkpt lat="48.64266" lon="6.98653">
        <ele>346.9</ele>
        <time>2021-07-31T11:01:56Z</time>
      </trkpt>
      <trkpt lat="48.64266" lon="6.98653">
        <ele>346.8</ele>
        <time>2021-07-31T11:01:58Z</time>
      </trkpt>
      <trkpt lat="48.64265" lon="6.98653">
        <ele>346.8</ele>
        <time>2021-07-31T11:02:00Z</time>
      </trkpt>
      <trkpt lat="48.64265" lon="6.98653">
        <ele>346.8</ele>
        <time>2021-07-31T11:02:01Z</time>
      </trkpt>
      <trkpt lat="48.64265" lon="6.98653">
        <ele>346.7</ele>
        <time>2021-07-31T11:02:02Z</time>
      </trkpt>
      <trkpt lat="48.64265" lon="6.98653">
        <ele>346.7</ele>
        <time>2021-07-31T11:02:04Z</time>
      </trkpt>
      <trkpt lat="48.6425" lon="6.9866">
        <ele>345</ele>
        <time>2021-07-31T11:03:53Z</time>
      </trkpt>
      <trkpt lat="48.64248" lon="6.98665">
        <ele>344.6</ele>
        <time>2021-07-31T11:03:55Z</time>
      </trkpt>
      <trkpt lat="48.64247" lon="6.98668">
        <ele>344.4</ele>
        <time>2021-07-31T11:03:56Z</time>
      </trkpt>
      <trkpt lat="48.64244" lon="6.98674">
        <ele>343.9</ele>
        <time>2021-07-31T11:03:58Z</time>
      </trkpt>
      <trkpt lat="48.64243" lon="6.98678">
        <ele>343.6</ele>
        <time>2021-07-31T11:03:59Z</time>
      </trkpt>
      <trkpt lat="48.64243" lon="6.9868">
        <ele>343.4</ele>
        <time>2021-07-31T11:04:00Z</time>
      </trkpt>
      <trkpt lat="48.64242" lon="6.98685">
        <ele>343.1</ele>
        <time>2021-07-31T11:04:01Z</time>
      </trkpt>
      <trkpt lat="48.64242" lon="6.98687">
        <ele>342.9</ele>
        <time>2021-07-31T11:04:02Z</time>
      </trkpt>
      <trkpt lat="48.64239" lon="6.98698">
        <ele>342.1</ele>
        <time>2021-07-31T11:04:04Z</time>
      </trkpt>
      <trkpt lat="48.64235" lon="6.98707">
        <ele>341.3</ele>
        <time>2021-07-31T11:04:06Z</time>
      </trkpt>
      <trkpt lat="48.64229" lon="6.98716">
        <ele>340.4</ele>
        <time>2021-07-31T11:04:08Z</time>
      </trkpt>
      <trkpt lat="48.64224" lon="6.98723">
        <ele>339.7</ele>
        <time>2021-07-31T11:04:10Z</time>
      </trkpt>
      <trkpt lat="48.6422" lon="6.98731">
        <ele>339</ele>
        <time>2021-07-31T11:04:12Z</time>
      </trkpt>
      <trkpt lat="48.64218" lon="6.98734">
        <ele>338.6</ele>
        <time>2021-07-31T11:04:13Z</time>
      </trkpt>
      <trkpt lat="48.64214" lon="6.98737">
        <ele>338.2</ele>
        <time>2021-07-31T11:04:14Z</time>
      </trkpt>
      <trkpt lat="48.64211" lon="6.98741">
        <ele>337.7</ele>
        <time>2021-07-31T11:04:15Z</time>
      </trkpt>
      <trkpt lat="48.64204" lon="6.98748">
        <ele>336.8</ele>
        <time>2021-07-31T11:04:17Z</time>
      </trkpt>
      <trkpt lat="48.64201" lon="6.98752">
        <ele>336.4</ele>
        <time>2021-07-31T11:04:18Z</time>
      </trkpt>
      <trkpt lat="48.64195" lon="6.98758">
        <ele>335.6</ele>
        <time>2021-07-31T11:04:20Z</time>
      </trkpt>
      <trkpt lat="48.64187" lon="6.98761">
        <ele>334.8</ele>
        <time>2021-07-31T11:04:22Z</time>
      </trkpt>
      <trkpt lat="48.64183" lon="6.98761">
        <ele>334.2</ele>
        <time>2021-07-31T11:04:23Z</time>
      </trkpt>
      <trkpt lat="48.64179" lon="6.98761">
        <ele>333.8</ele>
        <time>2021-07-31T11:04:24Z</time>
      </trkpt>
      <trkpt lat="48.64172" lon="6.98756">
        <ele>333</ele>
        <time>2021-07-31T11:04:26Z</time>
      </trkpt>
      <trkpt lat="48.64165" lon="6.98751">
        <ele>332.2</ele>
        <time>2021-07-31T11:04:28Z</time>
      </trkpt>
      <trkpt lat="48.64161" lon="6.9875">
        <ele>331.7</ele>
        <time>2021-07-31T11:04:29Z</time>
      </trkpt>
      <trkpt lat="48.64155" lon="6.9875">
        <ele>331.1</ele>
        <time>2021-07-31T11:04:31Z</time>
      </trkpt>
      <trkpt lat="48.6415" lon="6.98753">
        <ele>330.6</ele>
        <time>2021-07-31T11:04:33Z</time>
      </trkpt>
      <trkpt lat="48.64148" lon="6.98756">
        <ele>330.2</ele>
        <time>2021-07-31T11:04:35Z</time>
      </trkpt>
      <trkpt lat="48.64147" lon="6.98758">
        <ele>330</ele>
        <time>2021-07-31T11:04:36Z</time>
      </trkpt>
      <trkpt lat="48.64144" lon="6.98765">
        <ele>329.4</ele>
        <time>2021-07-31T11:04:38Z</time>
      </trkpt>
      <trkpt lat="48.64143" lon="6.98772">
        <ele>329</ele>
        <time>2021-07-31T11:04:39Z</time>
      </trkpt>
      <trkpt lat="48.64144" lon="6.98778">
        <ele>328.5</ele>
        <time>2021-07-31T11:04:40Z</time>
      </trkpt>
      <trkpt lat="48.6415" lon="6.98795">
        <ele>327.1</ele>
        <time>2021-07-31T11:04:42Z</time>
      </trkpt>
      <trkpt lat="48.6415" lon="6.98813">
        <ele>325.8</ele>
        <time>2021-07-31T11:04:44Z</time>
      </trkpt>
      <trkpt lat="48.64149" lon="6.98827">
        <ele>324.8</ele>
        <time>2021-07-31T11:04:46Z</time>
      </trkpt>
      <trkpt lat="48.64148" lon="6.98833">
        <ele>324.3</ele>
        <time>2021-07-31T11:04:47Z</time>
      </trkpt>
      <trkpt lat="48.64146" lon="6.98841">
        <ele>323.8</ele>
        <time>2021-07-31T11:04:48Z</time>
      </trkpt>
      <trkpt lat="48.6414" lon="6.98855">
        <ele>322.6</ele>
        <time>2021-07-31T11:04:50Z</time>
      </trkpt>
      <trkpt lat="48.64134" lon="6.98863">
        <ele>321.7</ele>
        <time>2021-07-31T11:04:52Z</time>
      </trkpt>
      <trkpt lat="48.6413" lon="6.98867">
        <ele>321.2</ele>
        <time>2021-07-31T11:04:53Z</time>
      </trkpt>
      <trkpt lat="48.64127" lon="6.9887">
        <ele>320.8</ele>
        <time>2021-07-31T11:04:54Z</time>
      </trkpt>
      <trkpt lat="48.64122" lon="6.98876">
        <ele>320.1</ele>
        <time>2021-07-31T11:04:56Z</time>
      </trkpt>
      <trkpt lat="48.64117" lon="6.98882">
        <ele>319.4</ele>
        <time>2021-07-31T11:04:57Z</time>
      </trkpt>
      <trkpt lat="48.64112" lon="6.98889">
        <ele>318.7</ele>
        <time>2021-07-31T11:04:59Z</time>
      </trkpt>
      <trkpt lat="48.64107" lon="6.98899">
        <ele>317.9</ele>
        <time>2021-07-31T11:05:00Z</time>
      </trkpt>
      <trkpt lat="48.641" lon="6.98907">
        <ele>317</ele>
        <time>2021-07-31T11:05:02Z</time>
      </trkpt>
      <trkpt lat="48.64094" lon="6.98913">
        <ele>316.3</ele>
        <time>2021-07-31T11:05:04Z</time>
      </trkpt>
      <trkpt lat="48.64092" lon="6.98914">
        <ele>316</ele>
        <time>2021-07-31T11:05:05Z</time>
      </trkpt>
      <trkpt lat="48.64087" lon="6.98912">
        <ele>315.5</ele>
        <time>2021-07-31T11:05:07Z</time>
      </trkpt>
      <trkpt lat="48.64085" lon="6.98911">
        <ele>314.8</ele>
        <time>2021-07-31T11:05:08Z</time>
      </trkpt>
      <trkpt lat="48.64081" lon="6.9891">
        <ele>314.7</ele>
        <time>2021-07-31T11:05:10Z</time>
      </trkpt>
      <trkpt lat="48.64078" lon="6.9891">
        <ele>314.5</ele>
        <time>2021-07-31T11:05:11Z</time>
      </trkpt>
      <trkpt lat="48.64075" lon="6.98912">
        <ele>314.4</ele>
        <time>2021-07-31T11:05:13Z</time>
      </trkpt>
      <trkpt lat="48.64074" lon="6.98915">
        <ele>314.2</ele>
        <time>2021-07-31T11:05:14Z</time>
      </trkpt>
      <trkpt lat="48.64074" lon="6.98917">
        <ele>314.2</ele>
        <time>2021-07-31T11:05:16Z</time>
      </trkpt>
      <trkpt lat="48.64075" lon="6.98919">
        <ele>314.1</ele>
        <time>2021-07-31T11:05:17Z</time>
      </trkpt>
      <trkpt lat="48.64075" lon="6.9892">
        <ele>314.1</ele>
        <time>2021-07-31T11:05:18Z</time>
      </trkpt>
      <trkpt lat="48.64075" lon="6.9892">
        <ele>314</ele>
        <time>2021-07-31T11:05:19Z</time>
      </trkpt>
      <trkpt lat="48.64075" lon="6.98921">
        <ele>314</ele>
        <time>2021-07-31T11:05:20Z</time>
      </trkpt>
      <trkpt lat="48.64076" lon="6.98922">
        <ele>314</ele>
        <time>2021-07-31T11:05:22Z</time>
      </trkpt>
      <trkpt lat="48.64076" lon="6.98923">
        <ele>313.9</ele>
        <time>2021-07-31T11:05:23Z</time>
      </trkpt>
      <trkpt lat="48.64077" lon="6.98923">
        <ele>313.9</ele>
        <time>2021-07-31T11:05:24Z</time>
      </trkpt>
      <trkpt lat="48.64077" lon="6.98923">
        <ele>313.9</ele>
        <time>2021-07-31T11:05:26Z</time>
      </trkpt>
      <trkpt lat="48.64078" lon="6.98923">
        <ele>313.8</ele>
        <time>2021-07-31T11:05:27Z</time>
      </trkpt>
      <trkpt lat="48.64078" lon="6.98923">
        <ele>313.8</ele>
        <time>2021-07-31T11:05:29Z</time>
      </trkpt>
      <trkpt lat="48.64078" lon="6.98922">
        <ele>313.8</ele>
        <time>2021-07-31T11:05:30Z</time>
      </trkpt>
      <trkpt lat="48.64077" lon="6.98921">
        <ele>313.8</ele>
        <time>2021-07-31T11:05:32Z</time>
      </trkpt>
      <trkpt lat="48.64075" lon="6.9892">
        <ele>313.6</ele>
        <time>2021-07-31T11:05:34Z</time>
      </trkpt>
      <trkpt lat="48.64071" lon="6.98916">
        <ele>313.3</ele>
        <time>2021-07-31T11:05:37Z</time>
      </trkpt>
      <trkpt lat="48.64069" lon="6.98912">
        <ele>313.2</ele>
        <time>2021-07-31T11:05:38Z</time>
      </trkpt>
      <trkpt lat="48.64052" lon="6.98906">
        <ele>312</ele>
        <time>2021-07-31T11:05:40Z</time>
      </trkpt>
      <trkpt lat="48.64045" lon="6.98906">
        <ele>311.4</ele>
        <time>2021-07-31T11:05:41Z</time>
      </trkpt>
      <trkpt lat="48.64039" lon="6.98908">
        <ele>311</ele>
        <time>2021-07-31T11:05:42Z</time>
      </trkpt>
      <trkpt lat="48.64034" lon="6.9891">
        <ele>310.6</ele>
        <time>2021-07-31T11:05:43Z</time>
      </trkpt>
      <trkpt lat="48.6403" lon="6.98912">
        <ele>310.3</ele>
        <time>2021-07-31T11:05:44Z</time>
      </trkpt>
      <trkpt lat="48.64026" lon="6.98915">
        <ele>310</ele>
        <time>2021-07-31T11:05:45Z</time>
      </trkpt>
      <trkpt lat="48.64017" lon="6.9892">
        <ele>309.7</ele>
        <time>2021-07-31T11:05:47Z</time>
      </trkpt>
      <trkpt lat="48.64004" lon="6.98925">
        <ele>308.6</ele>
        <time>2021-07-31T11:05:49Z</time>
      </trkpt>
      <trkpt lat="48.63993" lon="6.9893">
        <ele>307.3</ele>
        <time>2021-07-31T11:05:51Z</time>
      </trkpt>
      <trkpt lat="48.63981" lon="6.98934">
        <ele>306</ele>
        <time>2021-07-31T11:05:53Z</time>
      </trkpt>
      <trkpt lat="48.63976" lon="6.98936">
        <ele>305.5</ele>
        <time>2021-07-31T11:05:54Z</time>
      </trkpt>
      <trkpt lat="48.63968" lon="6.98941">
        <ele>304.9</ele>
        <time>2021-07-31T11:05:56Z</time>
      </trkpt>
      <trkpt lat="48.63964" lon="6.98943">
        <ele>304.8</ele>
        <time>2021-07-31T11:05:57Z</time>
      </trkpt>
      <trkpt lat="48.6396" lon="6.98946">
        <ele>304.7</ele>
        <time>2021-07-31T11:05:58Z</time>
      </trkpt>
      <trkpt lat="48.63958" lon="6.9895">
        <ele>304.6</ele>
        <time>2021-07-31T11:05:59Z</time>
      </trkpt>
      <trkpt lat="48.63967" lon="6.98957">
        <ele>304.5</ele>
        <time>2021-07-31T11:06:01Z</time>
      </trkpt>
      <trkpt lat="48.63974" lon="6.9896">
        <ele>304.3</ele>
        <time>2021-07-31T11:06:02Z</time>
      </trkpt>
      <trkpt lat="48.63981" lon="6.98963">
        <ele>304.1</ele>
        <time>2021-07-31T11:06:04Z</time>
      </trkpt>
      <trkpt lat="48.63988" lon="6.98966">
        <ele>304.1</ele>
        <time>2021-07-31T11:06:06Z</time>
      </trkpt>
      <trkpt lat="48.63992" lon="6.9897">
        <ele>304</ele>
        <time>2021-07-31T11:06:07Z</time>
      </trkpt>
      <trkpt lat="48.63998" lon="6.98978">
        <ele>303.9</ele>
        <time>2021-07-31T11:06:09Z</time>
      </trkpt>
      <trkpt lat="48.64" lon="6.98982">
        <ele>303.9</ele>
        <time>2021-07-31T11:06:10Z</time>
      </trkpt>
      <trkpt lat="48.64002" lon="6.98987">
        <ele>303.8</ele>
        <time>2021-07-31T11:06:11Z</time>
      </trkpt>
      <trkpt lat="48.64003" lon="6.98992">
        <ele>303.8</ele>
        <time>2021-07-31T11:06:12Z</time>
      </trkpt>
      <trkpt lat="48.64002" lon="6.99004">
        <ele>303.6</ele>
        <time>2021-07-31T11:06:14Z</time>
      </trkpt>
      <trkpt lat="48.63995" lon="6.9902">
        <ele>303</ele>
        <time>2021-07-31T11:06:16Z</time>
      </trkpt>
      <trkpt lat="48.63991" lon="6.99032">
        <ele>302.6</ele>
        <time>2021-07-31T11:06:17Z</time>
      </trkpt>
      <trkpt lat="48.63987" lon="6.99044">
        <ele>302</ele>
        <time>2021-07-31T11:06:18Z</time>
      </trkpt>
      <trkpt lat="48.63984" lon="6.99057">
        <ele>301.5</ele>
        <time>2021-07-31T11:06:19Z</time>
      </trkpt>
      <trkpt lat="48.63981" lon="6.9907">
        <ele>300.9</ele>
        <time>2021-07-31T11:06:20Z</time>
      </trkpt>
      <trkpt lat="48.6398" lon="6.99096">
        <ele>299.8</ele>
        <time>2021-07-31T11:06:22Z</time>
      </trkpt>
      <trkpt lat="48.6398" lon="6.9911">
        <ele>299.3</ele>
        <time>2021-07-31T11:06:23Z</time>
      </trkpt>
      <trkpt lat="48.63979" lon="6.99124">
        <ele>298.8</ele>
        <time>2021-07-31T11:06:24Z</time>
      </trkpt>
      <trkpt lat="48.63975" lon="6.99153">
        <ele>297.7</ele>
        <time>2021-07-31T11:06:26Z</time>
      </trkpt>
      <trkpt lat="48.63973" lon="6.99167">
        <ele>297.2</ele>
        <time>2021-07-31T11:06:27Z</time>
      </trkpt>
      <trkpt lat="48.6397" lon="6.99182">
        <ele>296.6</ele>
        <time>2021-07-31T11:06:28Z</time>
      </trkpt>
      <trkpt lat="48.63967" lon="6.99197">
        <ele>296</ele>
        <time>2021-07-31T11:06:29Z</time>
      </trkpt>
      <trkpt lat="48.63963" lon="6.99211">
        <ele>295.3</ele>
        <time>2021-07-31T11:06:30Z</time>
      </trkpt>
      <trkpt lat="48.63953" lon="6.9924">
        <ele>293.8</ele>
        <time>2021-07-31T11:06:32Z</time>
      </trkpt>
      <trkpt lat="48.6394" lon="6.99269">
        <ele>292.2</ele>
        <time>2021-07-31T11:06:34Z</time>
      </trkpt>
      <trkpt lat="48.63934" lon="6.99284">
        <ele>291.4</ele>
        <time>2021-07-31T11:06:35Z</time>
      </trkpt>
      <trkpt lat="48.63926" lon="6.99299">
        <ele>290.6</ele>
        <time>2021-07-31T11:06:36Z</time>
      </trkpt>
      <trkpt lat="48.63911" lon="6.99327">
        <ele>289.3</ele>
        <time>2021-07-31T11:06:38Z</time>
      </trkpt>
      <trkpt lat="48.63898" lon="6.99353">
        <ele>288.2</ele>
        <time>2021-07-31T11:06:40Z</time>
      </trkpt>
      <trkpt lat="48.63891" lon="6.99365">
        <ele>287.7</ele>
        <time>2021-07-31T11:06:41Z</time>
      </trkpt>
      <trkpt lat="48.63886" lon="6.99377">
        <ele>287.2</ele>
        <time>2021-07-31T11:06:42Z</time>
      </trkpt>
      <trkpt lat="48.63875" lon="6.99402">
        <ele>286.4</ele>
        <time>2021-07-31T11:06:44Z</time>
      </trkpt>
      <trkpt lat="48.63865" lon="6.99425">
        <ele>285.7</ele>
        <time>2021-07-31T11:06:46Z</time>
      </trkpt>
      <trkpt lat="48.63862" lon="6.99437">
        <ele>285.5</ele>
        <time>2021-07-31T11:06:47Z</time>
      </trkpt>
      <trkpt lat="48.63854" lon="6.99461">
        <ele>285.1</ele>
        <time>2021-07-31T11:06:49Z</time>
      </trkpt>
      <trkpt lat="48.6385" lon="6.99473">
        <ele>284.9</ele>
        <time>2021-07-31T11:06:50Z</time>
      </trkpt>
      <trkpt lat="48.63843" lon="6.99497">
        <ele>284.7</ele>
        <time>2021-07-31T11:06:52Z</time>
      </trkpt>
      <trkpt lat="48.63837" lon="6.99519">
        <ele>284.6</ele>
        <time>2021-07-31T11:06:54Z</time>
      </trkpt>
      <trkpt lat="48.63835" lon="6.99543">
        <ele>284.7</ele>
        <time>2021-07-31T11:06:56Z</time>
      </trkpt>
      <trkpt lat="48.63835" lon="6.99567">
        <ele>284.9</ele>
        <time>2021-07-31T11:06:58Z</time>
      </trkpt>
      <trkpt lat="48.63837" lon="6.9958">
        <ele>285</ele>
        <time>2021-07-31T11:06:59Z</time>
      </trkpt>
      <trkpt lat="48.63839" lon="6.99592">
        <ele>285.3</ele>
        <time>2021-07-31T11:07:00Z</time>
      </trkpt>
      <trkpt lat="48.6384" lon="6.99604">
        <ele>285.6</ele>
        <time>2021-07-31T11:07:01Z</time>
      </trkpt>
      <trkpt lat="48.63842" lon="6.99628">
        <ele>286.4</ele>
        <time>2021-07-31T11:07:03Z</time>
      </trkpt>
      <trkpt lat="48.6384" lon="6.9965">
        <ele>287.3</ele>
        <time>2021-07-31T11:07:05Z</time>
      </trkpt>
      <trkpt lat="48.6384" lon="6.9966">
        <ele>287.7</ele>
        <time>2021-07-31T11:07:06Z</time>
      </trkpt>
      <trkpt lat="48.63839" lon="6.9967">
        <ele>288.1</ele>
        <time>2021-07-31T11:07:07Z</time>
      </trkpt>
      <trkpt lat="48.63838" lon="6.9968">
        <ele>288.4</ele>
        <time>2021-07-31T11:07:08Z</time>
      </trkpt>
      <trkpt lat="48.63836" lon="6.99697">
        <ele>289.2</ele>
        <time>2021-07-31T11:07:10Z</time>
      </trkpt>
      <trkpt lat="48.63835" lon="6.99705">
        <ele>289.5</ele>
        <time>2021-07-31T11:07:11Z</time>
      </trkpt>
      <trkpt lat="48.63832" lon="6.99722">
        <ele>290.3</ele>
        <time>2021-07-31T11:07:13Z</time>
      </trkpt>
      <trkpt lat="48.63831" lon="6.9973">
        <ele>290.7</ele>
        <time>2021-07-31T11:07:14Z</time>
      </trkpt>
      <trkpt lat="48.63828" lon="6.99745">
        <ele>291.5</ele>
        <time>2021-07-31T11:07:16Z</time>
      </trkpt>
      <trkpt lat="48.63827" lon="6.99752">
        <ele>291.8</ele>
        <time>2021-07-31T11:07:17Z</time>
      </trkpt>
      <trkpt lat="48.63824" lon="6.99765">
        <ele>292.5</ele>
        <time>2021-07-31T11:07:19Z</time>
      </trkpt>
      <trkpt lat="48.63823" lon="6.99772">
        <ele>292.8</ele>
        <time>2021-07-31T11:07:20Z</time>
      </trkpt>
      <trkpt lat="48.6382" lon="6.99784">
        <ele>293.4</ele>
        <time>2021-07-31T11:07:22Z</time>
      </trkpt>
      <trkpt lat="48.63819" lon="6.99791">
        <ele>293.7</ele>
        <time>2021-07-31T11:07:23Z</time>
      </trkpt>
      <trkpt lat="48.63819" lon="6.99795">
        <ele>293.8</ele>
        <time>2021-07-31T11:07:24Z</time>
      </trkpt>
      <trkpt lat="48.63818" lon="6.99801">
        <ele>294.1</ele>
        <time>2021-07-31T11:07:25Z</time>
      </trkpt>
      <trkpt lat="48.63818" lon="6.99807">
        <ele>294.3</ele>
        <time>2021-07-31T11:07:26Z</time>
      </trkpt>
      <trkpt lat="48.63816" lon="6.99818">
        <ele>294.7</ele>
        <time>2021-07-31T11:07:28Z</time>
      </trkpt>
      <trkpt lat="48.63813" lon="6.99832">
        <ele>295.2</ele>
        <time>2021-07-31T11:07:29Z</time>
      </trkpt>
      <trkpt lat="48.63811" lon="6.99836">
        <ele>295.4</ele>
        <time>2021-07-31T11:07:30Z</time>
      </trkpt>
      <trkpt lat="48.63811" lon="6.99842">
        <ele>295.5</ele>
        <time>2021-07-31T11:07:32Z</time>
      </trkpt>
      <trkpt lat="48.63811" lon="6.99847">
        <ele>295.7</ele>
        <time>2021-07-31T11:07:33Z</time>
      </trkpt>
      <trkpt lat="48.6381" lon="6.99853">
        <ele>295.8</ele>
        <time>2021-07-31T11:07:34Z</time>
      </trkpt>
      <trkpt lat="48.63809" lon="6.99858">
        <ele>295.9</ele>
        <time>2021-07-31T11:07:35Z</time>
      </trkpt>
      <trkpt lat="48.63808" lon="6.99863">
        <ele>296</ele>
        <time>2021-07-31T11:07:36Z</time>
      </trkpt>
      <trkpt lat="48.63807" lon="6.99868">
        <ele>296.1</ele>
        <time>2021-07-31T11:07:38Z</time>
      </trkpt>
      <trkpt lat="48.63807" lon="6.99872">
        <ele>296.1</ele>
        <time>2021-07-31T11:07:39Z</time>
      </trkpt>
      <trkpt lat="48.63806" lon="6.99876">
        <ele>296.1</ele>
        <time>2021-07-31T11:07:40Z</time>
      </trkpt>
      <trkpt lat="48.63804" lon="6.9988">
        <ele>296.1</ele>
        <time>2021-07-31T11:07:42Z</time>
      </trkpt>
      <trkpt lat="48.63804" lon="6.99886">
        <ele>296.1</ele>
        <time>2021-07-31T11:07:43Z</time>
      </trkpt>
      <trkpt lat="48.63804" lon="6.99891">
        <ele>296.1</ele>
        <time>2021-07-31T11:07:44Z</time>
      </trkpt>
      <trkpt lat="48.63804" lon="6.99896">
        <ele>296.1</ele>
        <time>2021-07-31T11:07:45Z</time>
      </trkpt>
      <trkpt lat="48.63804" lon="6.99901">
        <ele>296</ele>
        <time>2021-07-31T11:07:47Z</time>
      </trkpt>
      <trkpt lat="48.63802" lon="6.99909">
        <ele>295.9</ele>
        <time>2021-07-31T11:07:49Z</time>
      </trkpt>
      <trkpt lat="48.638" lon="6.99916">
        <ele>295.8</ele>
        <time>2021-07-31T11:07:50Z</time>
      </trkpt>
      <trkpt lat="48.63799" lon="6.99923">
        <ele>295.7</ele>
        <time>2021-07-31T11:07:52Z</time>
      </trkpt>
      <trkpt lat="48.63798" lon="6.99928">
        <ele>295.5</ele>
        <time>2021-07-31T11:07:53Z</time>
      </trkpt>
      <trkpt lat="48.63796" lon="6.99938">
        <ele>295.2</ele>
        <time>2021-07-31T11:07:55Z</time>
      </trkpt>
      <trkpt lat="48.63795" lon="6.99944">
        <ele>295</ele>
        <time>2021-07-31T11:07:56Z</time>
      </trkpt>
      <trkpt lat="48.63792" lon="6.99952">
        <ele>294.7</ele>
        <time>2021-07-31T11:07:57Z</time>
      </trkpt>
      <trkpt lat="48.63788" lon="6.99967">
        <ele>293.9</ele>
        <time>2021-07-31T11:07:59Z</time>
      </trkpt>
      <trkpt lat="48.63786" lon="6.99975">
        <ele>293.6</ele>
        <time>2021-07-31T11:08:00Z</time>
      </trkpt>
      <trkpt lat="48.63784" lon="6.99983">
        <ele>293.2</ele>
        <time>2021-07-31T11:08:01Z</time>
      </trkpt>
      <trkpt lat="48.6378" lon="6.99999">
        <ele>292.4</ele>
        <time>2021-07-31T11:08:03Z</time>
      </trkpt>
      <trkpt lat="48.63775" lon="7.00019">
        <ele>291.4</ele>
        <time>2021-07-31T11:08:05Z</time>
      </trkpt>
      <trkpt lat="48.6377" lon="7.00042">
        <ele>290.2</ele>
        <time>2021-07-31T11:08:07Z</time>
      </trkpt>
      <trkpt lat="48.63768" lon="7.00054">
        <ele>289.7</ele>
        <time>2021-07-31T11:08:08Z</time>
      </trkpt>
      <trkpt lat="48.63764" lon="7.00077">
        <ele>288.4</ele>
        <time>2021-07-31T11:08:10Z</time>
      </trkpt>
      <trkpt lat="48.63762" lon="7.0009">
        <ele>287.6</ele>
        <time>2021-07-31T11:08:11Z</time>
      </trkpt>
      <trkpt lat="48.63761" lon="7.00102">
        <ele>286.9</ele>
        <time>2021-07-31T11:08:12Z</time>
      </trkpt>
      <trkpt lat="48.63758" lon="7.00129">
        <ele>285.8</ele>
        <time>2021-07-31T11:08:14Z</time>
      </trkpt>
      <trkpt lat="48.63757" lon="7.00155">
        <ele>284.8</ele>
        <time>2021-07-31T11:08:16Z</time>
      </trkpt>
      <trkpt lat="48.63756" lon="7.00169">
        <ele>284.3</ele>
        <time>2021-07-31T11:08:17Z</time>
      </trkpt>
      <trkpt lat="48.63756" lon="7.00182">
        <ele>283.8</ele>
        <time>2021-07-31T11:08:18Z</time>
      </trkpt>
      <trkpt lat="48.63756" lon="7.00208">
        <ele>282.9</ele>
        <time>2021-07-31T11:08:20Z</time>
      </trkpt>
      <trkpt lat="48.63756" lon="7.00219">
        <ele>282.5</ele>
        <time>2021-07-31T11:08:21Z</time>
      </trkpt>
      <trkpt lat="48.63757" lon="7.0024">
        <ele>282.2</ele>
        <time>2021-07-31T11:08:23Z</time>
      </trkpt>
      <trkpt lat="48.63758" lon="7.0025">
        <ele>282.1</ele>
        <time>2021-07-31T11:08:24Z</time>
      </trkpt>
      <trkpt lat="48.6376" lon="7.0027">
        <ele>281.5</ele>
        <time>2021-07-31T11:08:26Z</time>
      </trkpt>
      <trkpt lat="48.6376" lon="7.00279">
        <ele>281.2</ele>
        <time>2021-07-31T11:08:27Z</time>
      </trkpt>
      <trkpt lat="48.6376" lon="7.00289">
        <ele>280.9</ele>
        <time>2021-07-31T11:08:28Z</time>
      </trkpt>
      <trkpt lat="48.63761" lon="7.00308">
        <ele>280.5</ele>
        <time>2021-07-31T11:08:30Z</time>
      </trkpt>
      <trkpt lat="48.63762" lon="7.00318">
        <ele>280.2</ele>
        <time>2021-07-31T11:08:31Z</time>
      </trkpt>
      <trkpt lat="48.63763" lon="7.00329">
        <ele>280</ele>
        <time>2021-07-31T11:08:32Z</time>
      </trkpt>
      <trkpt lat="48.63764" lon="7.00351">
        <ele>279.5</ele>
        <time>2021-07-31T11:08:34Z</time>
      </trkpt>
      <trkpt lat="48.63765" lon="7.00363">
        <ele>279.3</ele>
        <time>2021-07-31T11:08:35Z</time>
      </trkpt>
      <trkpt lat="48.63765" lon="7.00385">
        <ele>278.9</ele>
        <time>2021-07-31T11:08:37Z</time>
      </trkpt>
      <trkpt lat="48.63766" lon="7.00396">
        <ele>278.7</ele>
        <time>2021-07-31T11:08:38Z</time>
      </trkpt>
      <trkpt lat="48.63767" lon="7.00416">
        <ele>278.2</ele>
        <time>2021-07-31T11:08:40Z</time>
      </trkpt>
      <trkpt lat="48.63769" lon="7.00427">
        <ele>278</ele>
        <time>2021-07-31T11:08:41Z</time>
      </trkpt>
      <trkpt lat="48.6377" lon="7.00437">
        <ele>277.8</ele>
        <time>2021-07-31T11:08:42Z</time>
      </trkpt>
      <trkpt lat="48.63774" lon="7.00457">
        <ele>277.6</ele>
        <time>2021-07-31T11:08:44Z</time>
      </trkpt>
      <trkpt lat="48.63776" lon="7.00479">
        <ele>277.4</ele>
        <time>2021-07-31T11:08:46Z</time>
      </trkpt>
      <trkpt lat="48.63776" lon="7.0049">
        <ele>277.4</ele>
        <time>2021-07-31T11:08:47Z</time>
      </trkpt>
      <trkpt lat="48.63775" lon="7.005">
        <ele>277.4</ele>
        <time>2021-07-31T11:08:48Z</time>
      </trkpt>
      <trkpt lat="48.63769" lon="7.00522">
        <ele>277.5</ele>
        <time>2021-07-31T11:08:50Z</time>
      </trkpt>
      <trkpt lat="48.63762" lon="7.00544">
        <ele>277.7</ele>
        <time>2021-07-31T11:08:52Z</time>
      </trkpt>
      <trkpt lat="48.63757" lon="7.00565">
        <ele>278</ele>
        <time>2021-07-31T11:08:54Z</time>
      </trkpt>
      <trkpt lat="48.63752" lon="7.00586">
        <ele>278.4</ele>
        <time>2021-07-31T11:08:56Z</time>
      </trkpt>
      <trkpt lat="48.6375" lon="7.00606">
        <ele>278.9</ele>
        <time>2021-07-31T11:08:58Z</time>
      </trkpt>
      <trkpt lat="48.6375" lon="7.00615">
        <ele>279.2</ele>
        <time>2021-07-31T11:08:59Z</time>
      </trkpt>
      <trkpt lat="48.6375" lon="7.00623">
        <ele>279.4</ele>
        <time>2021-07-31T11:09:00Z</time>
      </trkpt>
      <trkpt lat="48.63749" lon="7.00639">
        <ele>280</ele>
        <time>2021-07-31T11:09:02Z</time>
      </trkpt>
      <trkpt lat="48.63748" lon="7.00653">
        <ele>280.5</ele>
        <time>2021-07-31T11:09:04Z</time>
      </trkpt>
      <trkpt lat="48.63747" lon="7.00659">
        <ele>280.7</ele>
        <time>2021-07-31T11:09:05Z</time>
      </trkpt>
      <trkpt lat="48.63747" lon="7.00665">
        <ele>280.9</ele>
        <time>2021-07-31T11:09:06Z</time>
      </trkpt>
      <trkpt lat="48.63745" lon="7.00677">
        <ele>281.3</ele>
        <time>2021-07-31T11:09:08Z</time>
      </trkpt>
      <trkpt lat="48.63744" lon="7.00686">
        <ele>281.6</ele>
        <time>2021-07-31T11:09:10Z</time>
      </trkpt>
      <trkpt lat="48.63745" lon="7.00691">
        <ele>281.7</ele>
        <time>2021-07-31T11:09:11Z</time>
      </trkpt>
      <trkpt lat="48.63745" lon="7.00695">
        <ele>281.8</ele>
        <time>2021-07-31T11:09:12Z</time>
      </trkpt>
      <trkpt lat="48.63744" lon="7.00704">
        <ele>281.9</ele>
        <time>2021-07-31T11:09:14Z</time>
      </trkpt>
      <trkpt lat="48.63743" lon="7.00715">
        <ele>281.8</ele>
        <time>2021-07-31T11:09:16Z</time>
      </trkpt>
      <trkpt lat="48.63742" lon="7.00721">
        <ele>281.8</ele>
        <time>2021-07-31T11:09:17Z</time>
      </trkpt>
      <trkpt lat="48.63742" lon="7.00726">
        <ele>281.8</ele>
        <time>2021-07-31T11:09:18Z</time>
      </trkpt>
      <trkpt lat="48.63742" lon="7.00736">
        <ele>281.7</ele>
        <time>2021-07-31T11:09:20Z</time>
      </trkpt>
      <trkpt lat="48.63742" lon="7.00742">
        <ele>281.7</ele>
        <time>2021-07-31T11:09:21Z</time>
      </trkpt>
      <trkpt lat="48.63741" lon="7.00746">
        <ele>281.7</ele>
        <time>2021-07-31T11:09:22Z</time>
      </trkpt>
      <trkpt lat="48.63739" lon="7.00754">
        <ele>281.6</ele>
        <time>2021-07-31T11:09:23Z</time>
      </trkpt>
      <trkpt lat="48.63736" lon="7.00759">
        <ele>281.6</ele>
        <time>2021-07-31T11:09:24Z</time>
      </trkpt>
      <trkpt lat="48.63733" lon="7.00765">
        <ele>281.5</ele>
        <time>2021-07-31T11:09:26Z</time>
      </trkpt>
      <trkpt lat="48.6373" lon="7.0077">
        <ele>281.5</ele>
        <time>2021-07-31T11:09:27Z</time>
      </trkpt>
      <trkpt lat="48.63726" lon="7.00775">
        <ele>281.4</ele>
        <time>2021-07-31T11:09:28Z</time>
      </trkpt>
      <trkpt lat="48.63722" lon="7.00779">
        <ele>281.2</ele>
        <time>2021-07-31T11:09:30Z</time>
      </trkpt>
      <trkpt lat="48.63716" lon="7.00787">
        <ele>281</ele>
        <time>2021-07-31T11:09:32Z</time>
      </trkpt>
      <trkpt lat="48.63713" lon="7.00794">
        <ele>280.9</ele>
        <time>2021-07-31T11:09:33Z</time>
      </trkpt>
      <trkpt lat="48.63709" lon="7.00799">
        <ele>280.7</ele>
        <time>2021-07-31T11:09:35Z</time>
      </trkpt>
      <trkpt lat="48.63703" lon="7.00805">
        <ele>280.6</ele>
        <time>2021-07-31T11:09:36Z</time>
      </trkpt>
      <trkpt lat="48.63698" lon="7.00814">
        <ele>280.4</ele>
        <time>2021-07-31T11:09:38Z</time>
      </trkpt>
      <trkpt lat="48.63697" lon="7.00817">
        <ele>280.3</ele>
        <time>2021-07-31T11:09:39Z</time>
      </trkpt>
      <trkpt lat="48.63695" lon="7.00822">
        <ele>280.2</ele>
        <time>2021-07-31T11:09:40Z</time>
      </trkpt>
      <trkpt lat="48.6369" lon="7.00827">
        <ele>280</ele>
        <time>2021-07-31T11:09:42Z</time>
      </trkpt>
      <trkpt lat="48.63685" lon="7.00829">
        <ele>279.9</ele>
        <time>2021-07-31T11:09:43Z</time>
      </trkpt>
      <trkpt lat="48.63679" lon="7.00832">
        <ele>279.7</ele>
        <time>2021-07-31T11:09:44Z</time>
      </trkpt>
      <trkpt lat="48.63671" lon="7.00838">
        <ele>279.5</ele>
        <time>2021-07-31T11:09:46Z</time>
      </trkpt>
      <trkpt lat="48.63666" lon="7.00841">
        <ele>279.5</ele>
        <time>2021-07-31T11:09:47Z</time>
      </trkpt>
      <trkpt lat="48.63654" lon="7.00849">
        <ele>279.3</ele>
        <time>2021-07-31T11:09:49Z</time>
      </trkpt>
      <trkpt lat="48.63649" lon="7.00853">
        <ele>279.2</ele>
        <time>2021-07-31T11:09:50Z</time>
      </trkpt>
      <trkpt lat="48.63639" lon="7.00861">
        <ele>279.2</ele>
        <time>2021-07-31T11:09:52Z</time>
      </trkpt>
      <trkpt lat="48.63629" lon="7.0087">
        <ele>279</ele>
        <time>2021-07-31T11:09:54Z</time>
      </trkpt>
      <trkpt lat="48.6362" lon="7.00879">
        <ele>278.8</ele>
        <time>2021-07-31T11:09:56Z</time>
      </trkpt>
      <trkpt lat="48.63611" lon="7.00887">
        <ele>278.7</ele>
        <time>2021-07-31T11:09:58Z</time>
      </trkpt>
      <trkpt lat="48.63607" lon="7.0089">
        <ele>278.7</ele>
        <time>2021-07-31T11:09:59Z</time>
      </trkpt>
      <trkpt lat="48.636" lon="7.00895">
        <ele>278.6</ele>
        <time>2021-07-31T11:10:01Z</time>
      </trkpt>
      <trkpt lat="48.63596" lon="7.00898">
        <ele>278.5</ele>
        <time>2021-07-31T11:10:02Z</time>
      </trkpt>
      <trkpt lat="48.63591" lon="7.00903">
        <ele>278.4</ele>
        <time>2021-07-31T11:10:04Z</time>
      </trkpt>
      <trkpt lat="48.63587" lon="7.00906">
        <ele>278.3</ele>
        <time>2021-07-31T11:10:05Z</time>
      </trkpt>
      <trkpt lat="48.63582" lon="7.00912">
        <ele>278.2</ele>
        <time>2021-07-31T11:10:06Z</time>
      </trkpt>
      <trkpt lat="48.6358" lon="7.00918">
        <ele>278.1</ele>
        <time>2021-07-31T11:10:07Z</time>
      </trkpt>
      <trkpt lat="48.63579" lon="7.00924">
        <ele>278</ele>
        <time>2021-07-31T11:10:08Z</time>
      </trkpt>
      <trkpt lat="48.63578" lon="7.00933">
        <ele>277.8</ele>
        <time>2021-07-31T11:10:10Z</time>
      </trkpt>
      <trkpt lat="48.63578" lon="7.0094">
        <ele>277.7</ele>
        <time>2021-07-31T11:10:11Z</time>
      </trkpt>
      <trkpt lat="48.6358" lon="7.00946">
        <ele>277.6</ele>
        <time>2021-07-31T11:10:12Z</time>
      </trkpt>
      <trkpt lat="48.63582" lon="7.00955">
        <ele>277.4</ele>
        <time>2021-07-31T11:10:14Z</time>
      </trkpt>
      <trkpt lat="48.63585" lon="7.0096">
        <ele>277.3</ele>
        <time>2021-07-31T11:10:15Z</time>
      </trkpt>
      <trkpt lat="48.63588" lon="7.00966">
        <ele>277.2</ele>
        <time>2021-07-31T11:10:16Z</time>
      </trkpt>
      <trkpt lat="48.63592" lon="7.00974">
        <ele>277</ele>
        <time>2021-07-31T11:10:18Z</time>
      </trkpt>
      <trkpt lat="48.63595" lon="7.00982">
        <ele>276.9</ele>
        <time>2021-07-31T11:10:19Z</time>
      </trkpt>
      <trkpt lat="48.63597" lon="7.00989">
        <ele>276.8</ele>
        <time>2021-07-31T11:10:20Z</time>
      </trkpt>
      <trkpt lat="48.63598" lon="7.01005">
        <ele>276.6</ele>
        <time>2021-07-31T11:10:22Z</time>
      </trkpt>
      <trkpt lat="48.63599" lon="7.01014">
        <ele>276.5</ele>
        <time>2021-07-31T11:10:23Z</time>
      </trkpt>
      <trkpt lat="48.63599" lon="7.01025">
        <ele>276.5</ele>
        <time>2021-07-31T11:10:25Z</time>
      </trkpt>
      <trkpt lat="48.636" lon="7.01035">
        <ele>276.4</ele>
        <time>2021-07-31T11:10:26Z</time>
      </trkpt>
      <trkpt lat="48.63603" lon="7.01052">
        <ele>276.4</ele>
        <time>2021-07-31T11:10:28Z</time>
      </trkpt>
      <trkpt lat="48.63606" lon="7.01067">
        <ele>276.5</ele>
        <time>2021-07-31T11:10:30Z</time>
      </trkpt>
      <trkpt lat="48.63609" lon="7.01075">
        <ele>276.5</ele>
        <time>2021-07-31T11:10:31Z</time>
      </trkpt>
      <trkpt lat="48.63612" lon="7.01083">
        <ele>276.5</ele>
        <time>2021-07-31T11:10:32Z</time>
      </trkpt>
      <trkpt lat="48.63615" lon="7.01089">
        <ele>276.6</ele>
        <time>2021-07-31T11:10:33Z</time>
      </trkpt>
      <trkpt lat="48.63621" lon="7.01104">
        <ele>276.8</ele>
        <time>2021-07-31T11:10:35Z</time>
      </trkpt>
      <trkpt lat="48.63626" lon="7.0112">
        <ele>277</ele>
        <time>2021-07-31T11:10:37Z</time>
      </trkpt>
      <trkpt lat="48.63629" lon="7.01127">
        <ele>277</ele>
        <time>2021-07-31T11:10:38Z</time>
      </trkpt>
      <trkpt lat="48.63634" lon="7.01139">
        <ele>277</ele>
        <time>2021-07-31T11:10:40Z</time>
      </trkpt>
      <trkpt lat="48.63637" lon="7.01146">
        <ele>276.9</ele>
        <time>2021-07-31T11:10:41Z</time>
      </trkpt>
      <trkpt lat="48.63642" lon="7.0116">
        <ele>276.9</ele>
        <time>2021-07-31T11:10:43Z</time>
      </trkpt>
      <trkpt lat="48.63644" lon="7.01168">
        <ele>276.9</ele>
        <time>2021-07-31T11:10:44Z</time>
      </trkpt>
      <trkpt lat="48.63649" lon="7.01183">
        <ele>276.8</ele>
        <time>2021-07-31T11:10:46Z</time>
      </trkpt>
      <trkpt lat="48.63651" lon="7.01191">
        <ele>276.7</ele>
        <time>2021-07-31T11:10:47Z</time>
      </trkpt>
      <trkpt lat="48.63653" lon="7.01199">
        <ele>276.7</ele>
        <time>2021-07-31T11:10:48Z</time>
      </trkpt>
      <trkpt lat="48.63657" lon="7.01217">
        <ele>276.7</ele>
        <time>2021-07-31T11:10:50Z</time>
      </trkpt>
      <trkpt lat="48.63662" lon="7.01236">
        <ele>276.7</ele>
        <time>2021-07-31T11:10:52Z</time>
      </trkpt>
      <trkpt lat="48.63664" lon="7.01245">
        <ele>276.7</ele>
        <time>2021-07-31T11:10:53Z</time>
      </trkpt>
      <trkpt lat="48.63665" lon="7.01253">
        <ele>276.8</ele>
        <time>2021-07-31T11:10:54Z</time>
      </trkpt>
      <trkpt lat="48.63668" lon="7.01269">
        <ele>276.9</ele>
        <time>2021-07-31T11:10:56Z</time>
      </trkpt>
      <trkpt lat="48.63671" lon="7.01276">
        <ele>277</ele>
        <time>2021-07-31T11:10:57Z</time>
      </trkpt>
      <trkpt lat="48.63676" lon="7.01289">
        <ele>277.1</ele>
        <time>2021-07-31T11:10:59Z</time>
      </trkpt>
      <trkpt lat="48.63677" lon="7.01295">
        <ele>277.2</ele>
        <time>2021-07-31T11:11:00Z</time>
      </trkpt>
      <trkpt lat="48.63679" lon="7.01309">
        <ele>277.3</ele>
        <time>2021-07-31T11:11:02Z</time>
      </trkpt>
      <trkpt lat="48.63679" lon="7.01315">
        <ele>277.4</ele>
        <time>2021-07-31T11:11:03Z</time>
      </trkpt>
      <trkpt lat="48.6368" lon="7.01329">
        <ele>277.6</ele>
        <time>2021-07-31T11:11:05Z</time>
      </trkpt>
      <trkpt lat="48.63681" lon="7.01343">
        <ele>277.9</ele>
        <time>2021-07-31T11:11:07Z</time>
      </trkpt>
      <trkpt lat="48.63679" lon="7.01351">
        <ele>278</ele>
        <time>2021-07-31T11:11:08Z</time>
      </trkpt>
      <trkpt lat="48.63676" lon="7.01357">
        <ele>278.2</ele>
        <time>2021-07-31T11:11:10Z</time>
      </trkpt>
      <trkpt lat="48.63676" lon="7.01363">
        <ele>278.3</ele>
        <time>2021-07-31T11:11:11Z</time>
      </trkpt>
      <trkpt lat="48.63675" lon="7.01375">
        <ele>278.4</ele>
        <time>2021-07-31T11:11:12Z</time>
      </trkpt>
      <trkpt lat="48.63675" lon="7.01384">
        <ele>278.6</ele>
        <time>2021-07-31T11:11:14Z</time>
      </trkpt>
      <trkpt lat="48.63675" lon="7.01391">
        <ele>278.9</ele>
        <time>2021-07-31T11:11:15Z</time>
      </trkpt>
      <trkpt lat="48.63674" lon="7.01403">
        <ele>279.2</ele>
        <time>2021-07-31T11:11:16Z</time>
      </trkpt>
      <trkpt lat="48.63674" lon="7.01413">
        <ele>279.2</ele>
        <time>2021-07-31T11:11:18Z</time>
      </trkpt>
      <trkpt lat="48.63674" lon="7.01423">
        <ele>279.3</ele>
        <time>2021-07-31T11:11:20Z</time>
      </trkpt>
      <trkpt lat="48.63673" lon="7.01428">
        <ele>279.4</ele>
        <time>2021-07-31T11:11:21Z</time>
      </trkpt>
      <trkpt lat="48.63672" lon="7.01437">
        <ele>279.5</ele>
        <time>2021-07-31T11:11:23Z</time>
      </trkpt>
      <trkpt lat="48.63672" lon="7.01442">
        <ele>279.6</ele>
        <time>2021-07-31T11:11:24Z</time>
      </trkpt>
      <trkpt lat="48.63673" lon="7.01446">
        <ele>279.7</ele>
        <time>2021-07-31T11:11:25Z</time>
      </trkpt>
      <trkpt lat="48.63673" lon="7.01451">
        <ele>279.9</ele>
        <time>2021-07-31T11:11:26Z</time>
      </trkpt>
      <trkpt lat="48.63674" lon="7.01456">
        <ele>280</ele>
        <time>2021-07-31T11:11:28Z</time>
      </trkpt>
      <trkpt lat="48.63674" lon="7.01461">
        <ele>280.1</ele>
        <time>2021-07-31T11:11:29Z</time>
      </trkpt>
      <trkpt lat="48.63673" lon="7.01467">
        <ele>280.3</ele>
        <time>2021-07-31T11:11:30Z</time>
      </trkpt>
      <trkpt lat="48.63672" lon="7.01469">
        <ele>280.3</ele>
        <time>2021-07-31T11:11:31Z</time>
      </trkpt>
      <trkpt lat="48.6367" lon="7.01475">
        <ele>280.5</ele>
        <time>2021-07-31T11:11:33Z</time>
      </trkpt>
      <trkpt lat="48.63669" lon="7.01479">
        <ele>280.6</ele>
        <time>2021-07-31T11:11:34Z</time>
      </trkpt>
      <trkpt lat="48.63667" lon="7.01486">
        <ele>280.8</ele>
        <time>2021-07-31T11:11:35Z</time>
      </trkpt>
      <trkpt lat="48.63666" lon="7.0149">
        <ele>280.9</ele>
        <time>2021-07-31T11:11:36Z</time>
      </trkpt>
      <trkpt lat="48.63664" lon="7.01494">
        <ele>281</ele>
        <time>2021-07-31T11:11:38Z</time>
      </trkpt>
      <trkpt lat="48.63663" lon="7.01498">
        <ele>281.2</ele>
        <time>2021-07-31T11:11:39Z</time>
      </trkpt>
      <trkpt lat="48.6366" lon="7.01506">
        <ele>281.4</ele>
        <time>2021-07-31T11:11:41Z</time>
      </trkpt>
      <trkpt lat="48.63659" lon="7.0151">
        <ele>281.6</ele>
        <time>2021-07-31T11:11:42Z</time>
      </trkpt>
      <trkpt lat="48.63659" lon="7.01511">
        <ele>281.6</ele>
        <time>2021-07-31T11:11:43Z</time>
      </trkpt>
      <trkpt lat="48.63659" lon="7.01514">
        <ele>281.7</ele>
        <time>2021-07-31T11:11:44Z</time>
      </trkpt>
      <trkpt lat="48.63659" lon="7.0152">
        <ele>281.9</ele>
        <time>2021-07-31T11:11:46Z</time>
      </trkpt>
      <trkpt lat="48.63658" lon="7.01527">
        <ele>282.1</ele>
        <time>2021-07-31T11:11:47Z</time>
      </trkpt>
      <trkpt lat="48.63658" lon="7.01532">
        <ele>282.2</ele>
        <time>2021-07-31T11:11:48Z</time>
      </trkpt>
      <trkpt lat="48.63657" lon="7.01537">
        <ele>282.4</ele>
        <time>2021-07-31T11:11:50Z</time>
      </trkpt>
      <trkpt lat="48.63657" lon="7.01542">
        <ele>282.6</ele>
        <time>2021-07-31T11:11:51Z</time>
      </trkpt>
      <trkpt lat="48.63657" lon="7.01546">
        <ele>282.7</ele>
        <time>2021-07-31T11:11:52Z</time>
      </trkpt>
      <trkpt lat="48.63657" lon="7.01551">
        <ele>282.8</ele>
        <time>2021-07-31T11:11:54Z</time>
      </trkpt>
      <trkpt lat="48.63658" lon="7.01556">
        <ele>283</ele>
        <time>2021-07-31T11:11:55Z</time>
      </trkpt>
      <trkpt lat="48.6366" lon="7.01562">
        <ele>283.2</ele>
        <time>2021-07-31T11:11:57Z</time>
      </trkpt>
      <trkpt lat="48.6366" lon="7.01564">
        <ele>283.3</ele>
        <time>2021-07-31T11:11:58Z</time>
      </trkpt>
      <trkpt lat="48.63661" lon="7.01567">
        <ele>283.4</ele>
        <time>2021-07-31T11:11:59Z</time>
      </trkpt>
      <trkpt lat="48.63661" lon="7.01574">
        <ele>283.6</ele>
        <time>2021-07-31T11:12:01Z</time>
      </trkpt>
      <trkpt lat="48.63661" lon="7.01581">
        <ele>283.8</ele>
        <time>2021-07-31T11:12:02Z</time>
      </trkpt>
      <trkpt lat="48.63661" lon="7.01583">
        <ele>283.9</ele>
        <time>2021-07-31T11:12:03Z</time>
      </trkpt>
      <trkpt lat="48.63661" lon="7.01588">
        <ele>284</ele>
        <time>2021-07-31T11:12:04Z</time>
      </trkpt>
      <trkpt lat="48.63663" lon="7.01594">
        <ele>284.2</ele>
        <time>2021-07-31T11:12:06Z</time>
      </trkpt>
      <trkpt lat="48.63664" lon="7.01598">
        <ele>284.3</ele>
        <time>2021-07-31T11:12:07Z</time>
      </trkpt>
      <trkpt lat="48.63665" lon="7.01602">
        <ele>284.4</ele>
        <time>2021-07-31T11:12:08Z</time>
      </trkpt>
      <trkpt lat="48.63666" lon="7.01607">
        <ele>284.6</ele>
        <time>2021-07-31T11:12:09Z</time>
      </trkpt>
      <trkpt lat="48.63667" lon="7.01613">
        <ele>284.7</ele>
        <time>2021-07-31T11:12:11Z</time>
      </trkpt>
      <trkpt lat="48.63667" lon="7.01618">
        <ele>284.8</ele>
        <time>2021-07-31T11:12:12Z</time>
      </trkpt>
      <trkpt lat="48.63667" lon="7.01623">
        <ele>285</ele>
        <time>2021-07-31T11:12:13Z</time>
      </trkpt>
      <trkpt lat="48.63667" lon="7.01625">
        <ele>285</ele>
        <time>2021-07-31T11:12:14Z</time>
      </trkpt>
      <trkpt lat="48.63666" lon="7.01632">
        <ele>285.2</ele>
        <time>2021-07-31T11:12:16Z</time>
      </trkpt>
      <trkpt lat="48.63666" lon="7.01635">
        <ele>285.3</ele>
        <time>2021-07-31T11:12:17Z</time>
      </trkpt>
      <trkpt lat="48.63665" lon="7.01642">
        <ele>285.5</ele>
        <time>2021-07-31T11:12:19Z</time>
      </trkpt>
      <trkpt lat="48.63664" lon="7.01644">
        <ele>285.5</ele>
        <time>2021-07-31T11:12:20Z</time>
      </trkpt>
      <trkpt lat="48.63664" lon="7.01647">
        <ele>285.6</ele>
        <time>2021-07-31T11:12:21Z</time>
      </trkpt>
      <trkpt lat="48.63663" lon="7.01654">
        <ele>285.8</ele>
        <time>2021-07-31T11:12:23Z</time>
      </trkpt>
      <trkpt lat="48.63663" lon="7.01658">
        <ele>285.9</ele>
        <time>2021-07-31T11:12:24Z</time>
      </trkpt>
      <trkpt lat="48.63662" lon="7.01665">
        <ele>286.1</ele>
        <time>2021-07-31T11:12:26Z</time>
      </trkpt>
      <trkpt lat="48.63662" lon="7.0167">
        <ele>286.2</ele>
        <time>2021-07-31T11:12:27Z</time>
      </trkpt>
      <trkpt lat="48.63659" lon="7.01677">
        <ele>286.4</ele>
        <time>2021-07-31T11:12:29Z</time>
      </trkpt>
      <trkpt lat="48.63657" lon="7.01684">
        <ele>286.5</ele>
        <time>2021-07-31T11:12:31Z</time>
      </trkpt>
      <trkpt lat="48.63655" lon="7.0169">
        <ele>286.7</ele>
        <time>2021-07-31T11:12:33Z</time>
      </trkpt>
      <trkpt lat="48.63652" lon="7.01696">
        <ele>286.9</ele>
        <time>2021-07-31T11:12:35Z</time>
      </trkpt>
      <trkpt lat="48.63651" lon="7.01701">
        <ele>287</ele>
        <time>2021-07-31T11:12:36Z</time>
      </trkpt>
      <trkpt lat="48.63651" lon="7.01707">
        <ele>287.2</ele>
        <time>2021-07-31T11:12:37Z</time>
      </trkpt>
      <trkpt lat="48.6365" lon="7.01708">
        <ele>287.2</ele>
        <time>2021-07-31T11:12:38Z</time>
      </trkpt>
      <trkpt lat="48.63649" lon="7.01712">
        <ele>287.4</ele>
        <time>2021-07-31T11:12:40Z</time>
      </trkpt>
      <trkpt lat="48.63648" lon="7.01714">
        <ele>287.4</ele>
        <time>2021-07-31T11:12:41Z</time>
      </trkpt>
      <trkpt lat="48.63648" lon="7.01716">
        <ele>287.5</ele>
        <time>2021-07-31T11:12:42Z</time>
      </trkpt>
      <trkpt lat="48.63648" lon="7.0172">
        <ele>287.6</ele>
        <time>2021-07-31T11:12:43Z</time>
      </trkpt>
      <trkpt lat="48.63648" lon="7.01726">
        <ele>287.8</ele>
        <time>2021-07-31T11:12:45Z</time>
      </trkpt>
      <trkpt lat="48.63647" lon="7.01731">
        <ele>288</ele>
        <time>2021-07-31T11:12:46Z</time>
      </trkpt>
      <trkpt lat="48.63647" lon="7.01734">
        <ele>288.1</ele>
        <time>2021-07-31T11:12:47Z</time>
      </trkpt>
      <trkpt lat="48.63646" lon="7.01738">
        <ele>288.3</ele>
        <time>2021-07-31T11:12:48Z</time>
      </trkpt>
      <trkpt lat="48.63646" lon="7.0174">
        <ele>288.3</ele>
        <time>2021-07-31T11:12:49Z</time>
      </trkpt>
      <trkpt lat="48.63645" lon="7.01744">
        <ele>288.5</ele>
        <time>2021-07-31T11:12:51Z</time>
      </trkpt>
      <trkpt lat="48.63644" lon="7.01745">
        <ele>288.6</ele>
        <time>2021-07-31T11:12:52Z</time>
      </trkpt>
      <trkpt lat="48.63641" lon="7.01749">
        <ele>288.8</ele>
        <time>2021-07-31T11:12:53Z</time>
      </trkpt>
      <trkpt lat="48.63639" lon="7.01751">
        <ele>288.9</ele>
        <time>2021-07-31T11:12:54Z</time>
      </trkpt>
      <trkpt lat="48.63637" lon="7.01754">
        <ele>289.1</ele>
        <time>2021-07-31T11:12:56Z</time>
      </trkpt>
      <trkpt lat="48.63635" lon="7.0176">
        <ele>289.3</ele>
        <time>2021-07-31T11:12:57Z</time>
      </trkpt>
      <trkpt lat="48.63635" lon="7.01762">
        <ele>289.4</ele>
        <time>2021-07-31T11:12:58Z</time>
      </trkpt>
      <trkpt lat="48.63634" lon="7.01766">
        <ele>289.5</ele>
        <time>2021-07-31T11:13:00Z</time>
      </trkpt>
      <trkpt lat="48.63634" lon="7.0177">
        <ele>289.7</ele>
        <time>2021-07-31T11:13:01Z</time>
      </trkpt>
      <trkpt lat="48.63634" lon="7.01777">
        <ele>289.9</ele>
        <time>2021-07-31T11:13:02Z</time>
      </trkpt>
      <trkpt lat="48.63634" lon="7.01781">
        <ele>290</ele>
        <time>2021-07-31T11:13:04Z</time>
      </trkpt>
      <trkpt lat="48.63635" lon="7.01789">
        <ele>290.3</ele>
        <time>2021-07-31T11:13:06Z</time>
      </trkpt>
      <trkpt lat="48.63636" lon="7.01794">
        <ele>290.4</ele>
        <time>2021-07-31T11:13:07Z</time>
      </trkpt>
      <trkpt lat="48.63636" lon="7.01796">
        <ele>290.5</ele>
        <time>2021-07-31T11:13:08Z</time>
      </trkpt>
      <trkpt lat="48.63635" lon="7.01803">
        <ele>290.7</ele>
        <time>2021-07-31T11:13:10Z</time>
      </trkpt>
      <trkpt lat="48.63634" lon="7.01807">
        <ele>290.8</ele>
        <time>2021-07-31T11:13:11Z</time>
      </trkpt>
      <trkpt lat="48.63633" lon="7.01813">
        <ele>290.9</ele>
        <time>2021-07-31T11:13:13Z</time>
      </trkpt>
      <trkpt lat="48.63633" lon="7.01821">
        <ele>291.1</ele>
        <time>2021-07-31T11:13:14Z</time>
      </trkpt>
      <trkpt lat="48.63632" lon="7.01827">
        <ele>291.3</ele>
        <time>2021-07-31T11:13:16Z</time>
      </trkpt>
      <trkpt lat="48.63632" lon="7.01828">
        <ele>291.3</ele>
        <time>2021-07-31T11:13:17Z</time>
      </trkpt>
      <trkpt lat="48.63633" lon="7.01834">
        <ele>291.4</ele>
        <time>2021-07-31T11:13:18Z</time>
      </trkpt>
      <trkpt lat="48.63632" lon="7.0184">
        <ele>291.6</ele>
        <time>2021-07-31T11:13:19Z</time>
      </trkpt>
      <trkpt lat="48.6363" lon="7.01847">
        <ele>291.7</ele>
        <time>2021-07-31T11:13:21Z</time>
      </trkpt>
      <trkpt lat="48.63629" lon="7.01852">
        <ele>291.8</ele>
        <time>2021-07-31T11:13:22Z</time>
      </trkpt>
      <trkpt lat="48.63628" lon="7.01856">
        <ele>291.9</ele>
        <time>2021-07-31T11:13:23Z</time>
      </trkpt>
      <trkpt lat="48.63627" lon="7.01862">
        <ele>292</ele>
        <time>2021-07-31T11:13:24Z</time>
      </trkpt>
      <trkpt lat="48.63626" lon="7.01868">
        <ele>292.2</ele>
        <time>2021-07-31T11:13:26Z</time>
      </trkpt>
      <trkpt lat="48.63627" lon="7.01877">
        <ele>292.3</ele>
        <time>2021-07-31T11:13:28Z</time>
      </trkpt>
      <trkpt lat="48.63628" lon="7.01881">
        <ele>292.4</ele>
        <time>2021-07-31T11:13:29Z</time>
      </trkpt>
      <trkpt lat="48.63628" lon="7.01886">
        <ele>292.5</ele>
        <time>2021-07-31T11:13:30Z</time>
      </trkpt>
      <trkpt lat="48.63627" lon="7.01893">
        <ele>292.7</ele>
        <time>2021-07-31T11:13:31Z</time>
      </trkpt>
      <trkpt lat="48.63625" lon="7.01899">
        <ele>292.8</ele>
        <time>2021-07-31T11:13:33Z</time>
      </trkpt>
      <trkpt lat="48.63622" lon="7.01908">
        <ele>293</ele>
        <time>2021-07-31T11:13:35Z</time>
      </trkpt>
      <trkpt lat="48.63621" lon="7.01914">
        <ele>293.1</ele>
        <time>2021-07-31T11:13:36Z</time>
      </trkpt>
      <trkpt lat="48.6362" lon="7.01918">
        <ele>293.2</ele>
        <time>2021-07-31T11:13:37Z</time>
      </trkpt>
      <trkpt lat="48.63618" lon="7.01921">
        <ele>293.3</ele>
        <time>2021-07-31T11:13:38Z</time>
      </trkpt>
      <trkpt lat="48.63616" lon="7.01929">
        <ele>293.4</ele>
        <time>2021-07-31T11:13:40Z</time>
      </trkpt>
      <trkpt lat="48.63614" lon="7.01933">
        <ele>293.5</ele>
        <time>2021-07-31T11:13:41Z</time>
      </trkpt>
      <trkpt lat="48.63611" lon="7.01941">
        <ele>293.6</ele>
        <time>2021-07-31T11:13:43Z</time>
      </trkpt>
      <trkpt lat="48.6361" lon="7.01944">
        <ele>293.7</ele>
        <time>2021-07-31T11:13:44Z</time>
      </trkpt>
      <trkpt lat="48.63608" lon="7.01948">
        <ele>293.8</ele>
        <time>2021-07-31T11:13:45Z</time>
      </trkpt>
      <trkpt lat="48.63606" lon="7.01953">
        <ele>293.9</ele>
        <time>2021-07-31T11:13:46Z</time>
      </trkpt>
      <trkpt lat="48.63603" lon="7.01959">
        <ele>294.1</ele>
        <time>2021-07-31T11:13:48Z</time>
      </trkpt>
      <trkpt lat="48.63599" lon="7.01965">
        <ele>294.2</ele>
        <time>2021-07-31T11:13:50Z</time>
      </trkpt>
      <trkpt lat="48.63595" lon="7.01969">
        <ele>294.4</ele>
        <time>2021-07-31T11:13:52Z</time>
      </trkpt>
      <trkpt lat="48.63593" lon="7.01974">
        <ele>294.5</ele>
        <time>2021-07-31T11:13:53Z</time>
      </trkpt>
      <trkpt lat="48.63592" lon="7.01975">
        <ele>294.5</ele>
        <time>2021-07-31T11:13:54Z</time>
      </trkpt>
      <trkpt lat="48.6359" lon="7.01982">
        <ele>294.7</ele>
        <time>2021-07-31T11:13:56Z</time>
      </trkpt>
      <trkpt lat="48.63586" lon="7.01989">
        <ele>294.9</ele>
        <time>2021-07-31T11:13:58Z</time>
      </trkpt>
      <trkpt lat="48.63582" lon="7.01994">
        <ele>295.1</ele>
        <time>2021-07-31T11:14:00Z</time>
      </trkpt>
      <trkpt lat="48.63579" lon="7.01996">
        <ele>295.2</ele>
        <time>2021-07-31T11:14:01Z</time>
      </trkpt>
      <trkpt lat="48.63577" lon="7.01999">
        <ele>295.2</ele>
        <time>2021-07-31T11:14:02Z</time>
      </trkpt>
      <trkpt lat="48.63574" lon="7.02003">
        <ele>295.4</ele>
        <time>2021-07-31T11:14:04Z</time>
      </trkpt>
      <trkpt lat="48.63572" lon="7.02006">
        <ele>295.4</ele>
        <time>2021-07-31T11:14:05Z</time>
      </trkpt>
      <trkpt lat="48.63569" lon="7.02009">
        <ele>295.6</ele>
        <time>2021-07-31T11:14:07Z</time>
      </trkpt>
      <trkpt lat="48.63566" lon="7.02013">
        <ele>295.7</ele>
        <time>2021-07-31T11:14:09Z</time>
      </trkpt>
      <trkpt lat="48.63564" lon="7.02017">
        <ele>295.8</ele>
        <time>2021-07-31T11:14:10Z</time>
      </trkpt>
      <trkpt lat="48.63563" lon="7.02019">
        <ele>295.8</ele>
        <time>2021-07-31T11:14:11Z</time>
      </trkpt>
      <trkpt lat="48.63561" lon="7.02024">
        <ele>296</ele>
        <time>2021-07-31T11:14:12Z</time>
      </trkpt>
      <trkpt lat="48.63559" lon="7.02028">
        <ele>296.1</ele>
        <time>2021-07-31T11:14:13Z</time>
      </trkpt>
      <trkpt lat="48.63557" lon="7.02031">
        <ele>296.1</ele>
        <time>2021-07-31T11:14:14Z</time>
      </trkpt>
      <trkpt lat="48.63556" lon="7.02034">
        <ele>296.2</ele>
        <time>2021-07-31T11:14:16Z</time>
      </trkpt>
      <trkpt lat="48.63554" lon="7.02039">
        <ele>296.3</ele>
        <time>2021-07-31T11:14:17Z</time>
      </trkpt>
      <trkpt lat="48.63553" lon="7.02045">
        <ele>296.5</ele>
        <time>2021-07-31T11:14:19Z</time>
      </trkpt>
      <trkpt lat="48.63552" lon="7.0205">
        <ele>296.6</ele>
        <time>2021-07-31T11:14:20Z</time>
      </trkpt>
      <trkpt lat="48.6355" lon="7.02054">
        <ele>296.7</ele>
        <time>2021-07-31T11:14:21Z</time>
      </trkpt>
      <trkpt lat="48.63547" lon="7.0206">
        <ele>296.8</ele>
        <time>2021-07-31T11:14:23Z</time>
      </trkpt>
      <trkpt lat="48.63545" lon="7.02064">
        <ele>296.9</ele>
        <time>2021-07-31T11:14:24Z</time>
      </trkpt>
      <trkpt lat="48.63542" lon="7.02068">
        <ele>297</ele>
        <time>2021-07-31T11:14:25Z</time>
      </trkpt>
      <trkpt lat="48.63541" lon="7.02069">
        <ele>297.1</ele>
        <time>2021-07-31T11:14:26Z</time>
      </trkpt>
      <trkpt lat="48.63539" lon="7.02073">
        <ele>297.2</ele>
        <time>2021-07-31T11:14:27Z</time>
      </trkpt>
      <trkpt lat="48.63537" lon="7.02074">
        <ele>297.2</ele>
        <time>2021-07-31T11:14:28Z</time>
      </trkpt>
      <trkpt lat="48.63536" lon="7.02077">
        <ele>297.3</ele>
        <time>2021-07-31T11:14:29Z</time>
      </trkpt>
      <trkpt lat="48.63534" lon="7.02083">
        <ele>297.4</ele>
        <time>2021-07-31T11:14:31Z</time>
      </trkpt>
      <trkpt lat="48.63532" lon="7.02087">
        <ele>297.5</ele>
        <time>2021-07-31T11:14:32Z</time>
      </trkpt>
      <trkpt lat="48.6353" lon="7.02093">
        <ele>297.6</ele>
        <time>2021-07-31T11:14:33Z</time>
      </trkpt>
      <trkpt lat="48.63528" lon="7.02098">
        <ele>297.8</ele>
        <time>2021-07-31T11:14:35Z</time>
      </trkpt>
      <trkpt lat="48.63527" lon="7.02102">
        <ele>297.9</ele>
        <time>2021-07-31T11:14:36Z</time>
      </trkpt>
      <trkpt lat="48.63524" lon="7.02107">
        <ele>298</ele>
        <time>2021-07-31T11:14:38Z</time>
      </trkpt>
      <trkpt lat="48.63522" lon="7.0211">
        <ele>298.1</ele>
        <time>2021-07-31T11:14:39Z</time>
      </trkpt>
      <trkpt lat="48.63519" lon="7.02116">
        <ele>298.2</ele>
        <time>2021-07-31T11:14:41Z</time>
      </trkpt>
      <trkpt lat="48.63517" lon="7.02119">
        <ele>298.3</ele>
        <time>2021-07-31T11:14:42Z</time>
      </trkpt>
      <trkpt lat="48.63515" lon="7.02123">
        <ele>298.4</ele>
        <time>2021-07-31T11:14:43Z</time>
      </trkpt>
      <trkpt lat="48.63512" lon="7.02128">
        <ele>298.6</ele>
        <time>2021-07-31T11:14:45Z</time>
      </trkpt>
      <trkpt lat="48.6351" lon="7.02133">
        <ele>298.7</ele>
        <time>2021-07-31T11:14:46Z</time>
      </trkpt>
      <trkpt lat="48.63509" lon="7.02134">
        <ele>298.7</ele>
        <time>2021-07-31T11:14:47Z</time>
      </trkpt>
      <trkpt lat="48.63506" lon="7.02138">
        <ele>298.9</ele>
        <time>2021-07-31T11:14:48Z</time>
      </trkpt>
      <trkpt lat="48.63506" lon="7.0214">
        <ele>298.9</ele>
        <time>2021-07-31T11:14:49Z</time>
      </trkpt>
      <trkpt lat="48.63504" lon="7.02145">
        <ele>299.1</ele>
        <time>2021-07-31T11:14:50Z</time>
      </trkpt>
      <trkpt lat="48.63504" lon="7.02148">
        <ele>299.1</ele>
        <time>2021-07-31T11:14:51Z</time>
      </trkpt>
      <trkpt lat="48.63502" lon="7.02155">
        <ele>299.3</ele>
        <time>2021-07-31T11:14:53Z</time>
      </trkpt>
      <trkpt lat="48.63502" lon="7.02157">
        <ele>299.4</ele>
        <time>2021-07-31T11:14:54Z</time>
      </trkpt>
      <trkpt lat="48.63501" lon="7.0216">
        <ele>299.4</ele>
        <time>2021-07-31T11:14:55Z</time>
      </trkpt>
      <trkpt lat="48.635" lon="7.02165">
        <ele>299.6</ele>
        <time>2021-07-31T11:14:56Z</time>
      </trkpt>
      <trkpt lat="48.63499" lon="7.02167">
        <ele>299.6</ele>
        <time>2021-07-31T11:14:57Z</time>
      </trkpt>
      <trkpt lat="48.63497" lon="7.02173">
        <ele>299.8</ele>
        <time>2021-07-31T11:14:59Z</time>
      </trkpt>
      <trkpt lat="48.63495" lon="7.02178">
        <ele>299.9</ele>
        <time>2021-07-31T11:15:00Z</time>
      </trkpt>
      <trkpt lat="48.63495" lon="7.02181">
        <ele>300</ele>
        <time>2021-07-31T11:15:01Z</time>
      </trkpt>
      <trkpt lat="48.63493" lon="7.02187">
        <ele>300.2</ele>
        <time>2021-07-31T11:15:03Z</time>
      </trkpt>
      <trkpt lat="48.63492" lon="7.02189">
        <ele>300.3</ele>
        <time>2021-07-31T11:15:04Z</time>
      </trkpt>
      <trkpt lat="48.63492" lon="7.0219">
        <ele>300.3</ele>
        <time>2021-07-31T11:15:05Z</time>
      </trkpt>
      <trkpt lat="48.63491" lon="7.02196">
        <ele>300.5</ele>
        <time>2021-07-31T11:15:06Z</time>
      </trkpt>
      <trkpt lat="48.6349" lon="7.02198">
        <ele>300.6</ele>
        <time>2021-07-31T11:15:07Z</time>
      </trkpt>
      <trkpt lat="48.63489" lon="7.02203">
        <ele>300.7</ele>
        <time>2021-07-31T11:15:09Z</time>
      </trkpt>
      <trkpt lat="48.63487" lon="7.02206">
        <ele>300.9</ele>
        <time>2021-07-31T11:15:10Z</time>
      </trkpt>
      <trkpt lat="48.63486" lon="7.02207">
        <ele>300.9</ele>
        <time>2021-07-31T11:15:11Z</time>
      </trkpt>
      <trkpt lat="48.63485" lon="7.02209">
        <ele>301</ele>
        <time>2021-07-31T11:15:12Z</time>
      </trkpt>
      <trkpt lat="48.63483" lon="7.02215">
        <ele>301.2</ele>
        <time>2021-07-31T11:15:14Z</time>
      </trkpt>
      <trkpt lat="48.63482" lon="7.02221">
        <ele>301.4</ele>
        <time>2021-07-31T11:15:16Z</time>
      </trkpt>
      <trkpt lat="48.63482" lon="7.02227">
        <ele>301.6</ele>
        <time>2021-07-31T11:15:17Z</time>
      </trkpt>
      <trkpt lat="48.63481" lon="7.02229">
        <ele>301.6</ele>
        <time>2021-07-31T11:15:18Z</time>
      </trkpt>
      <trkpt lat="48.6348" lon="7.02234">
        <ele>301.8</ele>
        <time>2021-07-31T11:15:20Z</time>
      </trkpt>
      <trkpt lat="48.6348" lon="7.02239">
        <ele>302</ele>
        <time>2021-07-31T11:15:22Z</time>
      </trkpt>
      <trkpt lat="48.63479" lon="7.02241">
        <ele>302.1</ele>
        <time>2021-07-31T11:15:23Z</time>
      </trkpt>
      <trkpt lat="48.63477" lon="7.02247">
        <ele>302.2</ele>
        <time>2021-07-31T11:15:25Z</time>
      </trkpt>
      <trkpt lat="48.63476" lon="7.02249">
        <ele>302.3</ele>
        <time>2021-07-31T11:15:26Z</time>
      </trkpt>
      <trkpt lat="48.63475" lon="7.02253">
        <ele>302.5</ele>
        <time>2021-07-31T11:15:28Z</time>
      </trkpt>
      <trkpt lat="48.63473" lon="7.02259">
        <ele>302.7</ele>
        <time>2021-07-31T11:15:30Z</time>
      </trkpt>
      <trkpt lat="48.6347" lon="7.02264">
        <ele>302.9</ele>
        <time>2021-07-31T11:15:32Z</time>
      </trkpt>
      <trkpt lat="48.63469" lon="7.02269">
        <ele>303.1</ele>
        <time>2021-07-31T11:15:34Z</time>
      </trkpt>
      <trkpt lat="48.63468" lon="7.02272">
        <ele>303.2</ele>
        <time>2021-07-31T11:15:35Z</time>
      </trkpt>
      <trkpt lat="48.63466" lon="7.02277">
        <ele>303.4</ele>
        <time>2021-07-31T11:15:37Z</time>
      </trkpt>
      <trkpt lat="48.63465" lon="7.02282">
        <ele>303.6</ele>
        <time>2021-07-31T11:15:38Z</time>
      </trkpt>
      <trkpt lat="48.63464" lon="7.02284">
        <ele>303.7</ele>
        <time>2021-07-31T11:15:39Z</time>
      </trkpt>
      <trkpt lat="48.63464" lon="7.02289">
        <ele>303.8</ele>
        <time>2021-07-31T11:15:41Z</time>
      </trkpt>
      <trkpt lat="48.63465" lon="7.02293">
        <ele>303.9</ele>
        <time>2021-07-31T11:15:42Z</time>
      </trkpt>
      <trkpt lat="48.63463" lon="7.02298">
        <ele>304.1</ele>
        <time>2021-07-31T11:15:44Z</time>
      </trkpt>
      <trkpt lat="48.63461" lon="7.02302">
        <ele>304.3</ele>
        <time>2021-07-31T11:15:46Z</time>
      </trkpt>
      <trkpt lat="48.63461" lon="7.02303">
        <ele>304.3</ele>
        <time>2021-07-31T11:15:47Z</time>
      </trkpt>
      <trkpt lat="48.63459" lon="7.02307">
        <ele>304.4</ele>
        <time>2021-07-31T11:15:49Z</time>
      </trkpt>
      <trkpt lat="48.63459" lon="7.02308">
        <ele>304.5</ele>
        <time>2021-07-31T11:15:50Z</time>
      </trkpt>
      <trkpt lat="48.63458" lon="7.02312">
        <ele>304.6</ele>
        <time>2021-07-31T11:15:52Z</time>
      </trkpt>
      <trkpt lat="48.63457" lon="7.02316">
        <ele>304.8</ele>
        <time>2021-07-31T11:15:53Z</time>
      </trkpt>
      <trkpt lat="48.63457" lon="7.02318">
        <ele>304.9</ele>
        <time>2021-07-31T11:15:54Z</time>
      </trkpt>
      <trkpt lat="48.63457" lon="7.02321">
        <ele>305</ele>
        <time>2021-07-31T11:15:56Z</time>
      </trkpt>
      <trkpt lat="48.63456" lon="7.02326">
        <ele>305.1</ele>
        <time>2021-07-31T11:15:58Z</time>
      </trkpt>
      <trkpt lat="48.63455" lon="7.02331">
        <ele>305.3</ele>
        <time>2021-07-31T11:15:59Z</time>
      </trkpt>
      <trkpt lat="48.63455" lon="7.02332">
        <ele>305.4</ele>
        <time>2021-07-31T11:16:00Z</time>
      </trkpt>
      <trkpt lat="48.63453" lon="7.02336">
        <ele>305.5</ele>
        <time>2021-07-31T11:16:01Z</time>
      </trkpt>
      <trkpt lat="48.63451" lon="7.02339">
        <ele>305.7</ele>
        <time>2021-07-31T11:16:02Z</time>
      </trkpt>
      <trkpt lat="48.63449" lon="7.02341">
        <ele>305.8</ele>
        <time>2021-07-31T11:16:04Z</time>
      </trkpt>
      <trkpt lat="48.63448" lon="7.02343">
        <ele>305.9</ele>
        <time>2021-07-31T11:16:05Z</time>
      </trkpt>
      <trkpt lat="48.63445" lon="7.02347">
        <ele>306.1</ele>
        <time>2021-07-31T11:16:07Z</time>
      </trkpt>
      <trkpt lat="48.63444" lon="7.02349">
        <ele>306.1</ele>
        <time>2021-07-31T11:16:08Z</time>
      </trkpt>
      <trkpt lat="48.63443" lon="7.02355">
        <ele>306.3</ele>
        <time>2021-07-31T11:16:10Z</time>
      </trkpt>
      <trkpt lat="48.63441" lon="7.02358">
        <ele>306.5</ele>
        <time>2021-07-31T11:16:11Z</time>
      </trkpt>
      <trkpt lat="48.6344" lon="7.0236">
        <ele>306.5</ele>
        <time>2021-07-31T11:16:12Z</time>
      </trkpt>
      <trkpt lat="48.63438" lon="7.02364">
        <ele>306.7</ele>
        <time>2021-07-31T11:16:13Z</time>
      </trkpt>
      <trkpt lat="48.63437" lon="7.02366">
        <ele>306.8</ele>
        <time>2021-07-31T11:16:14Z</time>
      </trkpt>
      <trkpt lat="48.63435" lon="7.0237">
        <ele>307</ele>
        <time>2021-07-31T11:16:15Z</time>
      </trkpt>
      <trkpt lat="48.63433" lon="7.02376">
        <ele>307.2</ele>
        <time>2021-07-31T11:16:17Z</time>
      </trkpt>
      <trkpt lat="48.63431" lon="7.02379">
        <ele>307.3</ele>
        <time>2021-07-31T11:16:19Z</time>
      </trkpt>
      <trkpt lat="48.63429" lon="7.02382">
        <ele>307.4</ele>
        <time>2021-07-31T11:16:20Z</time>
      </trkpt>
      <trkpt lat="48.63426" lon="7.02389">
        <ele>307.7</ele>
        <time>2021-07-31T11:16:22Z</time>
      </trkpt>
      <trkpt lat="48.63423" lon="7.02395">
        <ele>307.9</ele>
        <time>2021-07-31T11:16:23Z</time>
      </trkpt>
      <trkpt lat="48.6342" lon="7.02402">
        <ele>308.1</ele>
        <time>2021-07-31T11:16:25Z</time>
      </trkpt>
      <trkpt lat="48.63419" lon="7.02404">
        <ele>308.2</ele>
        <time>2021-07-31T11:16:26Z</time>
      </trkpt>
      <trkpt lat="48.63419" lon="7.02407">
        <ele>308.3</ele>
        <time>2021-07-31T11:16:27Z</time>
      </trkpt>
      <trkpt lat="48.63417" lon="7.02412">
        <ele>308.5</ele>
        <time>2021-07-31T11:16:29Z</time>
      </trkpt>
      <trkpt lat="48.63416" lon="7.02415">
        <ele>308.6</ele>
        <time>2021-07-31T11:16:30Z</time>
      </trkpt>
      <trkpt lat="48.63415" lon="7.0242">
        <ele>308.7</ele>
        <time>2021-07-31T11:16:32Z</time>
      </trkpt>
      <trkpt lat="48.63413" lon="7.02424">
        <ele>308.9</ele>
        <time>2021-07-31T11:16:34Z</time>
      </trkpt>
      <trkpt lat="48.63409" lon="7.02429">
        <ele>309.1</ele>
        <time>2021-07-31T11:16:36Z</time>
      </trkpt>
      <trkpt lat="48.63405" lon="7.02435">
        <ele>309.3</ele>
        <time>2021-07-31T11:16:38Z</time>
      </trkpt>
      <trkpt lat="48.63401" lon="7.02441">
        <ele>309.5</ele>
        <time>2021-07-31T11:16:39Z</time>
      </trkpt>
      <trkpt lat="48.63399" lon="7.02443">
        <ele>309.6</ele>
        <time>2021-07-31T11:16:40Z</time>
      </trkpt>
      <trkpt lat="48.63398" lon="7.02447">
        <ele>309.7</ele>
        <time>2021-07-31T11:16:42Z</time>
      </trkpt>
      <trkpt lat="48.63397" lon="7.02452">
        <ele>309.9</ele>
        <time>2021-07-31T11:16:43Z</time>
      </trkpt>
      <trkpt lat="48.63397" lon="7.02454">
        <ele>309.9</ele>
        <time>2021-07-31T11:16:44Z</time>
      </trkpt>
      <trkpt lat="48.63397" lon="7.02458">
        <ele>310</ele>
        <time>2021-07-31T11:16:45Z</time>
      </trkpt>
      <trkpt lat="48.63396" lon="7.02462">
        <ele>310.1</ele>
        <time>2021-07-31T11:16:46Z</time>
      </trkpt>
      <trkpt lat="48.63395" lon="7.02465">
        <ele>310.2</ele>
        <time>2021-07-31T11:16:48Z</time>
      </trkpt>
      <trkpt lat="48.63393" lon="7.02469">
        <ele>310.4</ele>
        <time>2021-07-31T11:16:49Z</time>
      </trkpt>
      <trkpt lat="48.63391" lon="7.02473">
        <ele>310.5</ele>
        <time>2021-07-31T11:16:50Z</time>
      </trkpt>
      <trkpt lat="48.63391" lon="7.02474">
        <ele>310.5</ele>
        <time>2021-07-31T11:16:51Z</time>
      </trkpt>
      <trkpt lat="48.63389" lon="7.02477">
        <ele>310.7</ele>
        <time>2021-07-31T11:16:53Z</time>
      </trkpt>
      <trkpt lat="48.63386" lon="7.02482">
        <ele>310.8</ele>
        <time>2021-07-31T11:16:55Z</time>
      </trkpt>
      <trkpt lat="48.63384" lon="7.02487">
        <ele>311</ele>
        <time>2021-07-31T11:16:56Z</time>
      </trkpt>
      <trkpt lat="48.63383" lon="7.02489">
        <ele>311.1</ele>
        <time>2021-07-31T11:16:57Z</time>
      </trkpt>
      <trkpt lat="48.6338" lon="7.02492">
        <ele>311.2</ele>
        <time>2021-07-31T11:16:58Z</time>
      </trkpt>
      <trkpt lat="48.63379" lon="7.02493">
        <ele>311.3</ele>
        <time>2021-07-31T11:16:59Z</time>
      </trkpt>
      <trkpt lat="48.63377" lon="7.02494">
        <ele>311.3</ele>
        <time>2021-07-31T11:17:00Z</time>
      </trkpt>
      <trkpt lat="48.63376" lon="7.02496">
        <ele>311.4</ele>
        <time>2021-07-31T11:17:02Z</time>
      </trkpt>
      <trkpt lat="48.63374" lon="7.02499">
        <ele>311.5</ele>
        <time>2021-07-31T11:17:03Z</time>
      </trkpt>
      <trkpt lat="48.63372" lon="7.02504">
        <ele>311.7</ele>
        <time>2021-07-31T11:17:05Z</time>
      </trkpt>
      <trkpt lat="48.6337" lon="7.02509">
        <ele>311.9</ele>
        <time>2021-07-31T11:17:06Z</time>
      </trkpt>
      <trkpt lat="48.63369" lon="7.0251">
        <ele>311.9</ele>
        <time>2021-07-31T11:17:07Z</time>
      </trkpt>
      <trkpt lat="48.63367" lon="7.02514">
        <ele>312</ele>
        <time>2021-07-31T11:17:08Z</time>
      </trkpt>
      <trkpt lat="48.63366" lon="7.02518">
        <ele>312.2</ele>
        <time>2021-07-31T11:17:09Z</time>
      </trkpt>
      <trkpt lat="48.63364" lon="7.02523">
        <ele>312.3</ele>
        <time>2021-07-31T11:17:11Z</time>
      </trkpt>
      <trkpt lat="48.63363" lon="7.02527">
        <ele>312.4</ele>
        <time>2021-07-31T11:17:12Z</time>
      </trkpt>
      <trkpt lat="48.63362" lon="7.02528">
        <ele>312.5</ele>
        <time>2021-07-31T11:17:13Z</time>
      </trkpt>
      <trkpt lat="48.63362" lon="7.02533">
        <ele>312.6</ele>
        <time>2021-07-31T11:17:15Z</time>
      </trkpt>
      <trkpt lat="48.63361" lon="7.02537">
        <ele>312.7</ele>
        <time>2021-07-31T11:17:16Z</time>
      </trkpt>
      <trkpt lat="48.63359" lon="7.02541">
        <ele>312.9</ele>
        <time>2021-07-31T11:17:17Z</time>
      </trkpt>
      <trkpt lat="48.63358" lon="7.02542">
        <ele>312.9</ele>
        <time>2021-07-31T11:17:18Z</time>
      </trkpt>
      <trkpt lat="48.63357" lon="7.02547">
        <ele>313.1</ele>
        <time>2021-07-31T11:17:20Z</time>
      </trkpt>
      <trkpt lat="48.63357" lon="7.02548">
        <ele>313.1</ele>
        <time>2021-07-31T11:17:21Z</time>
      </trkpt>
      <trkpt lat="48.63355" lon="7.02552">
        <ele>313.2</ele>
        <time>2021-07-31T11:17:22Z</time>
      </trkpt>
      <trkpt lat="48.63355" lon="7.02555">
        <ele>313.3</ele>
        <time>2021-07-31T11:17:23Z</time>
      </trkpt>
      <trkpt lat="48.63353" lon="7.0256">
        <ele>313.5</ele>
        <time>2021-07-31T11:17:25Z</time>
      </trkpt>
      <trkpt lat="48.63352" lon="7.02564">
        <ele>313.6</ele>
        <time>2021-07-31T11:17:26Z</time>
      </trkpt>
      <trkpt lat="48.63352" lon="7.0257">
        <ele>313.8</ele>
        <time>2021-07-31T11:17:27Z</time>
      </trkpt>
      <trkpt lat="48.63351" lon="7.02575">
        <ele>314</ele>
        <time>2021-07-31T11:17:29Z</time>
      </trkpt>
      <trkpt lat="48.6335" lon="7.02578">
        <ele>314.1</ele>
        <time>2021-07-31T11:17:30Z</time>
      </trkpt>
      <trkpt lat="48.63349" lon="7.02585">
        <ele>314.3</ele>
        <time>2021-07-31T11:17:32Z</time>
      </trkpt>
      <trkpt lat="48.63348" lon="7.02588">
        <ele>314.4</ele>
        <time>2021-07-31T11:17:33Z</time>
      </trkpt>
      <trkpt lat="48.63349" lon="7.02595">
        <ele>314.6</ele>
        <time>2021-07-31T11:17:35Z</time>
      </trkpt>
      <trkpt lat="48.6335" lon="7.02599">
        <ele>314.7</ele>
        <time>2021-07-31T11:17:36Z</time>
      </trkpt>
      <trkpt lat="48.63351" lon="7.02603">
        <ele>314.8</ele>
        <time>2021-07-31T11:17:37Z</time>
      </trkpt>
      <trkpt lat="48.63352" lon="7.02607">
        <ele>314.9</ele>
        <time>2021-07-31T11:17:38Z</time>
      </trkpt>
      <trkpt lat="48.63353" lon="7.02611">
        <ele>315</ele>
        <time>2021-07-31T11:17:40Z</time>
      </trkpt>
      <trkpt lat="48.63353" lon="7.02618">
        <ele>315.2</ele>
        <time>2021-07-31T11:17:42Z</time>
      </trkpt>
      <trkpt lat="48.63353" lon="7.02624">
        <ele>315.3</ele>
        <time>2021-07-31T11:17:43Z</time>
      </trkpt>
      <trkpt lat="48.63353" lon="7.02626">
        <ele>315.4</ele>
        <time>2021-07-31T11:17:44Z</time>
      </trkpt>
      <trkpt lat="48.63354" lon="7.02633">
        <ele>315.5</ele>
        <time>2021-07-31T11:17:46Z</time>
      </trkpt>
      <trkpt lat="48.63354" lon="7.02636">
        <ele>315.5</ele>
        <time>2021-07-31T11:17:48Z</time>
      </trkpt>
      <trkpt lat="48.63354" lon="7.02638">
        <ele>315.6</ele>
        <time>2021-07-31T11:17:49Z</time>
      </trkpt>
      <trkpt lat="48.63354" lon="7.02641">
        <ele>315.6</ele>
        <time>2021-07-31T11:17:50Z</time>
      </trkpt>
      <trkpt lat="48.63355" lon="7.02647">
        <ele>315.7</ele>
        <time>2021-07-31T11:17:51Z</time>
      </trkpt>
      <trkpt lat="48.63356" lon="7.02653">
        <ele>315.7</ele>
        <time>2021-07-31T11:17:53Z</time>
      </trkpt>
      <trkpt lat="48.63356" lon="7.02655">
        <ele>315.8</ele>
        <time>2021-07-31T11:17:54Z</time>
      </trkpt>
      <trkpt lat="48.63356" lon="7.02658">
        <ele>315.8</ele>
        <time>2021-07-31T11:17:55Z</time>
      </trkpt>
      <trkpt lat="48.63357" lon="7.02668">
        <ele>315.9</ele>
        <time>2021-07-31T11:17:57Z</time>
      </trkpt>
      <trkpt lat="48.63357" lon="7.02672">
        <ele>315.9</ele>
        <time>2021-07-31T11:17:58Z</time>
      </trkpt>
      <trkpt lat="48.63356" lon="7.02676">
        <ele>315.9</ele>
        <time>2021-07-31T11:17:59Z</time>
      </trkpt>
      <trkpt lat="48.63356" lon="7.0268">
        <ele>315.9</ele>
        <time>2021-07-31T11:18:00Z</time>
      </trkpt>
      <trkpt lat="48.63357" lon="7.02689">
        <ele>315.8</ele>
        <time>2021-07-31T11:18:02Z</time>
      </trkpt>
      <trkpt lat="48.63356" lon="7.02698">
        <ele>315.8</ele>
        <time>2021-07-31T11:18:04Z</time>
      </trkpt>
      <trkpt lat="48.63356" lon="7.02703">
        <ele>315.7</ele>
        <time>2021-07-31T11:18:05Z</time>
      </trkpt>
      <trkpt lat="48.63355" lon="7.02708">
        <ele>315.7</ele>
        <time>2021-07-31T11:18:06Z</time>
      </trkpt>
      <trkpt lat="48.63354" lon="7.02714">
        <ele>315.6</ele>
        <time>2021-07-31T11:18:07Z</time>
      </trkpt>
      <trkpt lat="48.63354" lon="7.0272">
        <ele>315.5</ele>
        <time>2021-07-31T11:18:08Z</time>
      </trkpt>
      <trkpt lat="48.63351" lon="7.02735">
        <ele>315.2</ele>
        <time>2021-07-31T11:18:10Z</time>
      </trkpt>
      <trkpt lat="48.63349" lon="7.02743">
        <ele>315</ele>
        <time>2021-07-31T11:18:11Z</time>
      </trkpt>
      <trkpt lat="48.63348" lon="7.02751">
        <ele>314.8</ele>
        <time>2021-07-31T11:18:12Z</time>
      </trkpt>
      <trkpt lat="48.63346" lon="7.02759">
        <ele>314.6</ele>
        <time>2021-07-31T11:18:13Z</time>
      </trkpt>
      <trkpt lat="48.63342" lon="7.02775">
        <ele>314.2</ele>
        <time>2021-07-31T11:18:15Z</time>
      </trkpt>
      <trkpt lat="48.63336" lon="7.02792">
        <ele>313.7</ele>
        <time>2021-07-31T11:18:17Z</time>
      </trkpt>
      <trkpt lat="48.63332" lon="7.02801">
        <ele>313.4</ele>
        <time>2021-07-31T11:18:18Z</time>
      </trkpt>
      <trkpt lat="48.63328" lon="7.0281">
        <ele>313.1</ele>
        <time>2021-07-31T11:18:19Z</time>
      </trkpt>
      <trkpt lat="48.63324" lon="7.02819">
        <ele>312.8</ele>
        <time>2021-07-31T11:18:20Z</time>
      </trkpt>
      <trkpt lat="48.63314" lon="7.02838">
        <ele>312.2</ele>
        <time>2021-07-31T11:18:22Z</time>
      </trkpt>
      <trkpt lat="48.6331" lon="7.0285">
        <ele>311.8</ele>
        <time>2021-07-31T11:18:23Z</time>
      </trkpt>
      <trkpt lat="48.63306" lon="7.02861">
        <ele>311.5</ele>
        <time>2021-07-31T11:18:24Z</time>
      </trkpt>
      <trkpt lat="48.63303" lon="7.02873">
        <ele>311.3</ele>
        <time>2021-07-31T11:18:25Z</time>
      </trkpt>
      <trkpt lat="48.63295" lon="7.02896">
        <ele>310.8</ele>
        <time>2021-07-31T11:18:27Z</time>
      </trkpt>
      <trkpt lat="48.63286" lon="7.02919">
        <ele>310.5</ele>
        <time>2021-07-31T11:18:29Z</time>
      </trkpt>
      <trkpt lat="48.63281" lon="7.0293">
        <ele>310.4</ele>
        <time>2021-07-31T11:18:30Z</time>
      </trkpt>
      <trkpt lat="48.63274" lon="7.0295">
        <ele>310.2</ele>
        <time>2021-07-31T11:18:32Z</time>
      </trkpt>
      <trkpt lat="48.63268" lon="7.02968">
        <ele>310.1</ele>
        <time>2021-07-31T11:18:34Z</time>
      </trkpt>
      <trkpt lat="48.63266" lon="7.02977">
        <ele>310.2</ele>
        <time>2021-07-31T11:18:35Z</time>
      </trkpt>
      <trkpt lat="48.63264" lon="7.02987">
        <ele>310.2</ele>
        <time>2021-07-31T11:18:36Z</time>
      </trkpt>
      <trkpt lat="48.63264" lon="7.03005">
        <ele>310.3</ele>
        <time>2021-07-31T11:18:38Z</time>
      </trkpt>
      <trkpt lat="48.63262" lon="7.03022">
        <ele>310.5</ele>
        <time>2021-07-31T11:18:40Z</time>
      </trkpt>
      <trkpt lat="48.63262" lon="7.0303">
        <ele>310.6</ele>
        <time>2021-07-31T11:18:41Z</time>
      </trkpt>
      <trkpt lat="48.63262" lon="7.03038">
        <ele>310.7</ele>
        <time>2021-07-31T11:18:42Z</time>
      </trkpt>
      <trkpt lat="48.63264" lon="7.03051">
        <ele>310.9</ele>
        <time>2021-07-31T11:18:44Z</time>
      </trkpt>
      <trkpt lat="48.63266" lon="7.03065">
        <ele>311.2</ele>
        <time>2021-07-31T11:18:46Z</time>
      </trkpt>
      <trkpt lat="48.63269" lon="7.03072">
        <ele>311.4</ele>
        <time>2021-07-31T11:18:48Z</time>
      </trkpt>
      <trkpt lat="48.63271" lon="7.03076">
        <ele>311.5</ele>
        <time>2021-07-31T11:18:49Z</time>
      </trkpt>
      <trkpt lat="48.63273" lon="7.03081">
        <ele>311.7</ele>
        <time>2021-07-31T11:18:50Z</time>
      </trkpt>
      <trkpt lat="48.63275" lon="7.0309">
        <ele>311.9</ele>
        <time>2021-07-31T11:18:52Z</time>
      </trkpt>
      <trkpt lat="48.63273" lon="7.03091">
        <ele>312</ele>
        <time>2021-07-31T11:18:53Z</time>
      </trkpt>
      <trkpt lat="48.63274" lon="7.03096">
        <ele>312.2</ele>
        <time>2021-07-31T11:18:54Z</time>
      </trkpt>
      <trkpt lat="48.63275" lon="7.03101">
        <ele>312.4</ele>
        <time>2021-07-31T11:18:55Z</time>
      </trkpt>
      <trkpt lat="48.63276" lon="7.03107">
        <ele>312.6</ele>
        <time>2021-07-31T11:18:57Z</time>
      </trkpt>
      <trkpt lat="48.63276" lon="7.03112">
        <ele>312.7</ele>
        <time>2021-07-31T11:18:58Z</time>
      </trkpt>
      <trkpt lat="48.63274" lon="7.03117">
        <ele>312.9</ele>
        <time>2021-07-31T11:18:59Z</time>
      </trkpt>
      <trkpt lat="48.63274" lon="7.03119">
        <ele>313</ele>
        <time>2021-07-31T11:19:00Z</time>
      </trkpt>
      <trkpt lat="48.63273" lon="7.03122">
        <ele>313.1</ele>
        <time>2021-07-31T11:19:01Z</time>
      </trkpt>
      <trkpt lat="48.63273" lon="7.0313">
        <ele>313.3</ele>
        <time>2021-07-31T11:19:03Z</time>
      </trkpt>
      <trkpt lat="48.63271" lon="7.03139">
        <ele>313.5</ele>
        <time>2021-07-31T11:19:05Z</time>
      </trkpt>
      <trkpt lat="48.63272" lon="7.03144">
        <ele>313.6</ele>
        <time>2021-07-31T11:19:06Z</time>
      </trkpt>
      <trkpt lat="48.63273" lon="7.03154">
        <ele>313.8</ele>
        <time>2021-07-31T11:19:07Z</time>
      </trkpt>
      <trkpt lat="48.63274" lon="7.03163">
        <ele>313.9</ele>
        <time>2021-07-31T11:19:08Z</time>
      </trkpt>
      <trkpt lat="48.63275" lon="7.03171">
        <ele>314</ele>
        <time>2021-07-31T11:19:10Z</time>
      </trkpt>
      <trkpt lat="48.63275" lon="7.0318">
        <ele>314.1</ele>
        <time>2021-07-31T11:19:11Z</time>
      </trkpt>
      <trkpt lat="48.63275" lon="7.03187">
        <ele>314.2</ele>
        <time>2021-07-31T11:19:12Z</time>
      </trkpt>
      <trkpt lat="48.63276" lon="7.03194">
        <ele>314.2</ele>
        <time>2021-07-31T11:19:13Z</time>
      </trkpt>
      <trkpt lat="48.63276" lon="7.03205">
        <ele>314.4</ele>
        <time>2021-07-31T11:19:15Z</time>
      </trkpt>
      <trkpt lat="48.63274" lon="7.03213">
        <ele>314.5</ele>
        <time>2021-07-31T11:19:16Z</time>
      </trkpt>
      <trkpt lat="48.63273" lon="7.03219">
        <ele>314.7</ele>
        <time>2021-07-31T11:19:17Z</time>
      </trkpt>
      <trkpt lat="48.6327" lon="7.03228">
        <ele>314.7</ele>
        <time>2021-07-31T11:19:19Z</time>
      </trkpt>
      <trkpt lat="48.63267" lon="7.03237">
        <ele>314.8</ele>
        <time>2021-07-31T11:19:21Z</time>
      </trkpt>
      <trkpt lat="48.63263" lon="7.03245">
        <ele>314.9</ele>
        <time>2021-07-31T11:19:23Z</time>
      </trkpt>
      <trkpt lat="48.6326" lon="7.03254">
        <ele>315</ele>
        <time>2021-07-31T11:19:25Z</time>
      </trkpt>
      <trkpt lat="48.63256" lon="7.03263">
        <ele>315.2</ele>
        <time>2021-07-31T11:19:27Z</time>
      </trkpt>
      <trkpt lat="48.63254" lon="7.03267">
        <ele>315.2</ele>
        <time>2021-07-31T11:19:28Z</time>
      </trkpt>
      <trkpt lat="48.6325" lon="7.03274">
        <ele>315.4</ele>
        <time>2021-07-31T11:19:29Z</time>
      </trkpt>
      <trkpt lat="48.63247" lon="7.0328">
        <ele>315.5</ele>
        <time>2021-07-31T11:19:31Z</time>
      </trkpt>
      <trkpt lat="48.63246" lon="7.03284">
        <ele>315.6</ele>
        <time>2021-07-31T11:19:32Z</time>
      </trkpt>
      <trkpt lat="48.63243" lon="7.03289">
        <ele>315.7</ele>
        <time>2021-07-31T11:19:33Z</time>
      </trkpt>
      <trkpt lat="48.63239" lon="7.03296">
        <ele>315.8</ele>
        <time>2021-07-31T11:19:35Z</time>
      </trkpt>
      <trkpt lat="48.63237" lon="7.033">
        <ele>315.9</ele>
        <time>2021-07-31T11:19:36Z</time>
      </trkpt>
      <trkpt lat="48.63234" lon="7.03309">
        <ele>316.1</ele>
        <time>2021-07-31T11:19:38Z</time>
      </trkpt>
      <trkpt lat="48.63231" lon="7.03318">
        <ele>316.3</ele>
        <time>2021-07-31T11:19:40Z</time>
      </trkpt>
      <trkpt lat="48.63229" lon="7.03326">
        <ele>316.6</ele>
        <time>2021-07-31T11:19:41Z</time>
      </trkpt>
      <trkpt lat="48.63228" lon="7.03333">
        <ele>316.8</ele>
        <time>2021-07-31T11:19:43Z</time>
      </trkpt>
      <trkpt lat="48.63227" lon="7.0334">
        <ele>316.9</ele>
        <time>2021-07-31T11:19:45Z</time>
      </trkpt>
      <trkpt lat="48.63224" lon="7.03344">
        <ele>317.1</ele>
        <time>2021-07-31T11:19:47Z</time>
      </trkpt>
      <trkpt lat="48.63221" lon="7.0335">
        <ele>317.3</ele>
        <time>2021-07-31T11:19:49Z</time>
      </trkpt>
      <trkpt lat="48.6322" lon="7.03353">
        <ele>317.4</ele>
        <time>2021-07-31T11:19:50Z</time>
      </trkpt>
      <trkpt lat="48.63219" lon="7.03356">
        <ele>317.5</ele>
        <time>2021-07-31T11:19:51Z</time>
      </trkpt>
      <trkpt lat="48.63219" lon="7.03361">
        <ele>317.6</ele>
        <time>2021-07-31T11:19:52Z</time>
      </trkpt>
      <trkpt lat="48.63219" lon="7.03367">
        <ele>317.8</ele>
        <time>2021-07-31T11:19:54Z</time>
      </trkpt>
      <trkpt lat="48.63219" lon="7.03371">
        <ele>317.9</ele>
        <time>2021-07-31T11:19:55Z</time>
      </trkpt>
      <trkpt lat="48.63216" lon="7.03376">
        <ele>318.1</ele>
        <time>2021-07-31T11:19:56Z</time>
      </trkpt>
      <trkpt lat="48.63214" lon="7.03378">
        <ele>318.2</ele>
        <time>2021-07-31T11:19:57Z</time>
      </trkpt>
      <trkpt lat="48.63212" lon="7.03382">
        <ele>318.3</ele>
        <time>2021-07-31T11:19:58Z</time>
      </trkpt>
      <trkpt lat="48.6321" lon="7.03387">
        <ele>318.5</ele>
        <time>2021-07-31T11:20:00Z</time>
      </trkpt>
      <trkpt lat="48.63208" lon="7.03393">
        <ele>318.7</ele>
        <time>2021-07-31T11:20:01Z</time>
      </trkpt>
      <trkpt lat="48.63207" lon="7.03396">
        <ele>318.8</ele>
        <time>2021-07-31T11:20:02Z</time>
      </trkpt>
      <trkpt lat="48.63205" lon="7.03401">
        <ele>319</ele>
        <time>2021-07-31T11:20:04Z</time>
      </trkpt>
      <trkpt lat="48.63203" lon="7.03406">
        <ele>319.1</ele>
        <time>2021-07-31T11:20:05Z</time>
      </trkpt>
      <trkpt lat="48.63202" lon="7.03407">
        <ele>319.2</ele>
        <time>2021-07-31T11:20:06Z</time>
      </trkpt>
      <trkpt lat="48.632" lon="7.03411">
        <ele>319.3</ele>
        <time>2021-07-31T11:20:07Z</time>
      </trkpt>
      <trkpt lat="48.63198" lon="7.03416">
        <ele>319.5</ele>
        <time>2021-07-31T11:20:09Z</time>
      </trkpt>
      <trkpt lat="48.63196" lon="7.03421">
        <ele>319.7</ele>
        <time>2021-07-31T11:20:10Z</time>
      </trkpt>
      <trkpt lat="48.63194" lon="7.03425">
        <ele>319.8</ele>
        <time>2021-07-31T11:20:11Z</time>
      </trkpt>
      <trkpt lat="48.63193" lon="7.03428">
        <ele>319.9</ele>
        <time>2021-07-31T11:20:12Z</time>
      </trkpt>
      <trkpt lat="48.63191" lon="7.03433">
        <ele>320.1</ele>
        <time>2021-07-31T11:20:13Z</time>
      </trkpt>
      <trkpt lat="48.63191" lon="7.03435">
        <ele>320.2</ele>
        <time>2021-07-31T11:20:14Z</time>
      </trkpt>
      <trkpt lat="48.6319" lon="7.03441">
        <ele>320.3</ele>
        <time>2021-07-31T11:20:16Z</time>
      </trkpt>
      <trkpt lat="48.63188" lon="7.03446">
        <ele>320.5</ele>
        <time>2021-07-31T11:20:17Z</time>
      </trkpt>
      <trkpt lat="48.63187" lon="7.03447">
        <ele>320.5</ele>
        <time>2021-07-31T11:20:18Z</time>
      </trkpt>
      <trkpt lat="48.63185" lon="7.03451">
        <ele>320.7</ele>
        <time>2021-07-31T11:20:19Z</time>
      </trkpt>
      <trkpt lat="48.63184" lon="7.03453">
        <ele>320.8</ele>
        <time>2021-07-31T11:20:20Z</time>
      </trkpt>
      <trkpt lat="48.63182" lon="7.03459">
        <ele>320.9</ele>
        <time>2021-07-31T11:20:21Z</time>
      </trkpt>
      <trkpt lat="48.6318" lon="7.03463">
        <ele>321.1</ele>
        <time>2021-07-31T11:20:23Z</time>
      </trkpt>
      <trkpt lat="48.63179" lon="7.03467">
        <ele>321.2</ele>
        <time>2021-07-31T11:20:24Z</time>
      </trkpt>
      <trkpt lat="48.63178" lon="7.03471">
        <ele>321.3</ele>
        <time>2021-07-31T11:20:25Z</time>
      </trkpt>
      <trkpt lat="48.63176" lon="7.03477">
        <ele>321.5</ele>
        <time>2021-07-31T11:20:27Z</time>
      </trkpt>
      <trkpt lat="48.63175" lon="7.03481">
        <ele>321.6</ele>
        <time>2021-07-31T11:20:28Z</time>
      </trkpt>
      <trkpt lat="48.63173" lon="7.03485">
        <ele>321.7</ele>
        <time>2021-07-31T11:20:29Z</time>
      </trkpt>
      <trkpt lat="48.63172" lon="7.03487">
        <ele>321.8</ele>
        <time>2021-07-31T11:20:30Z</time>
      </trkpt>
      <trkpt lat="48.6317" lon="7.03492">
        <ele>321.9</ele>
        <time>2021-07-31T11:20:32Z</time>
      </trkpt>
      <trkpt lat="48.63169" lon="7.03497">
        <ele>322.1</ele>
        <time>2021-07-31T11:20:33Z</time>
      </trkpt>
      <trkpt lat="48.63169" lon="7.03499">
        <ele>322.1</ele>
        <time>2021-07-31T11:20:34Z</time>
      </trkpt>
      <trkpt lat="48.63167" lon="7.03504">
        <ele>322.2</ele>
        <time>2021-07-31T11:20:35Z</time>
      </trkpt>
      <trkpt lat="48.63166" lon="7.03505">
        <ele>322.2</ele>
        <time>2021-07-31T11:20:36Z</time>
      </trkpt>
      <trkpt lat="48.63166" lon="7.03508">
        <ele>322.3</ele>
        <time>2021-07-31T11:20:37Z</time>
      </trkpt>
      <trkpt lat="48.63166" lon="7.0351">
        <ele>322.3</ele>
        <time>2021-07-31T11:20:39Z</time>
      </trkpt>
      <trkpt lat="48.63165" lon="7.03511">
        <ele>322.4</ele>
        <time>2021-07-31T11:20:40Z</time>
      </trkpt>
      <trkpt lat="48.63164" lon="7.03514">
        <ele>322.4</ele>
        <time>2021-07-31T11:20:41Z</time>
      </trkpt>
      <trkpt lat="48.63162" lon="7.03519">
        <ele>322.5</ele>
        <time>2021-07-31T11:20:43Z</time>
      </trkpt>
      <trkpt lat="48.63161" lon="7.0352">
        <ele>322.6</ele>
        <time>2021-07-31T11:20:44Z</time>
      </trkpt>
      <trkpt lat="48.6316" lon="7.03526">
        <ele>322.7</ele>
        <time>2021-07-31T11:20:45Z</time>
      </trkpt>
      <trkpt lat="48.63159" lon="7.03528">
        <ele>322.7</ele>
        <time>2021-07-31T11:20:46Z</time>
      </trkpt>
      <trkpt lat="48.63158" lon="7.0353">
        <ele>322.8</ele>
        <time>2021-07-31T11:20:47Z</time>
      </trkpt>
      <trkpt lat="48.63156" lon="7.03534">
        <ele>322.9</ele>
        <time>2021-07-31T11:20:49Z</time>
      </trkpt>
      <trkpt lat="48.63154" lon="7.03537">
        <ele>323</ele>
        <time>2021-07-31T11:20:50Z</time>
      </trkpt>
      <trkpt lat="48.6315" lon="7.03542">
        <ele>323.1</ele>
        <time>2021-07-31T11:20:51Z</time>
      </trkpt>
      <trkpt lat="48.63146" lon="7.03546">
        <ele>323.3</ele>
        <time>2021-07-31T11:20:53Z</time>
      </trkpt>
      <trkpt lat="48.63144" lon="7.03548">
        <ele>323.4</ele>
        <time>2021-07-31T11:20:54Z</time>
      </trkpt>
      <trkpt lat="48.63142" lon="7.0355">
        <ele>323.4</ele>
        <time>2021-07-31T11:20:55Z</time>
      </trkpt>
      <trkpt lat="48.6314" lon="7.03554">
        <ele>323.6</ele>
        <time>2021-07-31T11:20:57Z</time>
      </trkpt>
      <trkpt lat="48.63138" lon="7.03557">
        <ele>323.7</ele>
        <time>2021-07-31T11:20:58Z</time>
      </trkpt>
      <trkpt lat="48.63135" lon="7.03563">
        <ele>323.9</ele>
        <time>2021-07-31T11:21:00Z</time>
      </trkpt>
      <trkpt lat="48.63134" lon="7.03565">
        <ele>323.9</ele>
        <time>2021-07-31T11:21:01Z</time>
      </trkpt>
      <trkpt lat="48.63134" lon="7.03566">
        <ele>323.9</ele>
        <time>2021-07-31T11:21:02Z</time>
      </trkpt>
      <trkpt lat="48.63131" lon="7.03569">
        <ele>324.1</ele>
        <time>2021-07-31T11:21:03Z</time>
      </trkpt>
      <trkpt lat="48.63129" lon="7.03572">
        <ele>324.2</ele>
        <time>2021-07-31T11:21:05Z</time>
      </trkpt>
      <trkpt lat="48.63126" lon="7.03577">
        <ele>324.3</ele>
        <time>2021-07-31T11:21:06Z</time>
      </trkpt>
      <trkpt lat="48.63125" lon="7.03578">
        <ele>324.4</ele>
        <time>2021-07-31T11:21:07Z</time>
      </trkpt>
      <trkpt lat="48.63122" lon="7.03583">
        <ele>324.6</ele>
        <time>2021-07-31T11:21:09Z</time>
      </trkpt>
      <trkpt lat="48.63117" lon="7.03586">
        <ele>324.8</ele>
        <time>2021-07-31T11:21:11Z</time>
      </trkpt>
      <trkpt lat="48.63115" lon="7.03587">
        <ele>324.9</ele>
        <time>2021-07-31T11:21:12Z</time>
      </trkpt>
      <trkpt lat="48.63112" lon="7.03587">
        <ele>325.3</ele>
        <time>2021-07-31T11:21:14Z</time>
      </trkpt>
      <trkpt lat="48.6311" lon="7.03585">
        <ele>325.5</ele>
        <time>2021-07-31T11:21:15Z</time>
      </trkpt>
      <trkpt lat="48.6311" lon="7.03584">
        <ele>325.6</ele>
        <time>2021-07-31T11:21:17Z</time>
      </trkpt>
      <trkpt lat="48.6311" lon="7.03583">
        <ele>325.7</ele>
        <time>2021-07-31T11:21:19Z</time>
      </trkpt>
      <trkpt lat="48.6311" lon="7.03583">
        <ele>325.7</ele>
        <time>2021-07-31T11:21:20Z</time>
      </trkpt>
      <trkpt lat="48.6311" lon="7.03583">
        <ele>325.7</ele>
        <time>2021-07-31T11:21:22Z</time>
      </trkpt>
      <trkpt lat="48.6311" lon="7.03583">
        <ele>325.7</ele>
        <time>2021-07-31T11:21:23Z</time>
      </trkpt>
      <trkpt lat="48.6311" lon="7.03583">
        <ele>325.7</ele>
        <time>2021-07-31T11:21:25Z</time>
      </trkpt>
      <trkpt lat="48.62903" lon="7.03426">
        <ele>356.5</ele>
        <time>2021-07-31T11:26:01Z</time>
      </trkpt>
      <trkpt lat="48.62898" lon="7.0342">
        <ele>357</ele>
        <time>2021-07-31T11:26:03Z</time>
      </trkpt>
      <trkpt lat="48.62895" lon="7.03415">
        <ele>357.3</ele>
        <time>2021-07-31T11:26:04Z</time>
      </trkpt>
      <trkpt lat="48.62893" lon="7.03412">
        <ele>357.6</ele>
        <time>2021-07-31T11:26:05Z</time>
      </trkpt>
      <trkpt lat="48.62887" lon="7.03406">
        <ele>358.1</ele>
        <time>2021-07-31T11:26:07Z</time>
      </trkpt>
      <trkpt lat="48.62886" lon="7.03405">
        <ele>358.2</ele>
        <time>2021-07-31T11:26:08Z</time>
      </trkpt>
      <trkpt lat="48.62883" lon="7.03404">
        <ele>358.5</ele>
        <time>2021-07-31T11:26:10Z</time>
      </trkpt>
      <trkpt lat="48.6288" lon="7.03403">
        <ele>358.6</ele>
        <time>2021-07-31T11:26:11Z</time>
      </trkpt>
      <trkpt lat="48.62878" lon="7.03402">
        <ele>358.8</ele>
        <time>2021-07-31T11:26:13Z</time>
      </trkpt>
      <trkpt lat="48.62877" lon="7.03403">
        <ele>358.9</ele>
        <time>2021-07-31T11:26:14Z</time>
      </trkpt>
      <trkpt lat="48.62876" lon="7.03404">
        <ele>359</ele>
        <time>2021-07-31T11:26:15Z</time>
      </trkpt>
      <trkpt lat="48.62876" lon="7.03405">
        <ele>359</ele>
        <time>2021-07-31T11:26:16Z</time>
      </trkpt>
      <trkpt lat="48.62875" lon="7.03406">
        <ele>359.1</ele>
        <time>2021-07-31T11:26:17Z</time>
      </trkpt>
      <trkpt lat="48.62874" lon="7.03406">
        <ele>359.2</ele>
        <time>2021-07-31T11:26:19Z</time>
      </trkpt>
      <trkpt lat="48.62873" lon="7.03406">
        <ele>359.2</ele>
        <time>2021-07-31T11:26:20Z</time>
      </trkpt>
      <trkpt lat="48.62873" lon="7.03406">
        <ele>359.3</ele>
        <time>2021-07-31T11:26:21Z</time>
      </trkpt>
      <trkpt lat="48.62872" lon="7.03407">
        <ele>359.3</ele>
        <time>2021-07-31T11:26:22Z</time>
      </trkpt>
      <trkpt lat="48.62869" lon="7.03405">
        <ele>359.6</ele>
        <time>2021-07-31T11:26:24Z</time>
      </trkpt>
      <trkpt lat="48.62856" lon="7.03401">
        <ele>360.5</ele>
        <time>2021-07-31T11:26:31Z</time>
      </trkpt>
      <trkpt lat="48.62851" lon="7.03399">
        <ele>360.8</ele>
        <time>2021-07-31T11:26:32Z</time>
      </trkpt>
      <trkpt lat="48.62848" lon="7.03395">
        <ele>361.1</ele>
        <time>2021-07-31T11:26:34Z</time>
      </trkpt>
      <trkpt lat="48.62848" lon="7.03394">
        <ele>361.1</ele>
        <time>2021-07-31T11:26:35Z</time>
      </trkpt>
      <trkpt lat="48.62848" lon="7.03394">
        <ele>361.2</ele>
        <time>2021-07-31T11:26:36Z</time>
      </trkpt>
      <trkpt lat="48.62847" lon="7.03393">
        <ele>361.2</ele>
        <time>2021-07-31T11:26:38Z</time>
      </trkpt>
      <trkpt lat="48.62847" lon="7.03393">
        <ele>361.2</ele>
        <time>2021-07-31T11:26:39Z</time>
      </trkpt>
      <trkpt lat="48.62847" lon="7.03392">
        <ele>361.2</ele>
        <time>2021-07-31T11:26:40Z</time>
      </trkpt>
      <trkpt lat="48.62848" lon="7.03393">
        <ele>361.3</ele>
        <time>2021-07-31T11:26:41Z</time>
      </trkpt>
      <trkpt lat="48.62848" lon="7.03393">
        <ele>361.3</ele>
        <time>2021-07-31T11:26:42Z</time>
      </trkpt>
      <trkpt lat="48.62836" lon="7.03397">
        <ele>361.9</ele>
        <time>2021-07-31T11:26:57Z</time>
      </trkpt>
      <trkpt lat="48.6283" lon="7.03397">
        <ele>362.2</ele>
        <time>2021-07-31T11:26:59Z</time>
      </trkpt>
      <trkpt lat="48.62826" lon="7.03397">
        <ele>362.4</ele>
        <time>2021-07-31T11:27:00Z</time>
      </trkpt>
      <trkpt lat="48.62821" lon="7.03394">
        <ele>362.8</ele>
        <time>2021-07-31T11:27:02Z</time>
      </trkpt>
      <trkpt lat="48.62819" lon="7.03393">
        <ele>362.9</ele>
        <time>2021-07-31T11:27:03Z</time>
      </trkpt>
      <trkpt lat="48.62815" lon="7.03393">
        <ele>363.1</ele>
        <time>2021-07-31T11:27:05Z</time>
      </trkpt>
      <trkpt lat="48.62812" lon="7.03391">
        <ele>363.3</ele>
        <time>2021-07-31T11:27:06Z</time>
      </trkpt>
      <trkpt lat="48.62811" lon="7.03391">
        <ele>363.4</ele>
        <time>2021-07-31T11:27:07Z</time>
      </trkpt>
      <trkpt lat="48.62809" lon="7.0339">
        <ele>363.5</ele>
        <time>2021-07-31T11:27:08Z</time>
      </trkpt>
      <trkpt lat="48.62809" lon="7.0339">
        <ele>363.5</ele>
        <time>2021-07-31T11:27:09Z</time>
      </trkpt>
      <trkpt lat="48.62808" lon="7.0339">
        <ele>363.5</ele>
        <time>2021-07-31T11:27:11Z</time>
      </trkpt>
      <trkpt lat="48.62807" lon="7.0339">
        <ele>363.6</ele>
        <time>2021-07-31T11:27:12Z</time>
      </trkpt>
      <trkpt lat="48.62807" lon="7.0339">
        <ele>363.6</ele>
        <time>2021-07-31T11:27:13Z</time>
      </trkpt>
      <trkpt lat="48.62806" lon="7.0339">
        <ele>363.6</ele>
        <time>2021-07-31T11:27:15Z</time>
      </trkpt>
      <trkpt lat="48.62806" lon="7.0339">
        <ele>363.6</ele>
        <time>2021-07-31T11:27:16Z</time>
      </trkpt>
      <trkpt lat="48.62805" lon="7.0339">
        <ele>363.7</ele>
        <time>2021-07-31T11:27:17Z</time>
      </trkpt>
      <trkpt lat="48.62804" lon="7.0339">
        <ele>363.7</ele>
        <time>2021-07-31T11:27:24Z</time>
      </trkpt>
      <trkpt lat="48.62804" lon="7.0339">
        <ele>363.7</ele>
        <time>2021-07-31T11:27:26Z</time>
      </trkpt>
      <trkpt lat="48.62803" lon="7.0339">
        <ele>363.7</ele>
        <time>2021-07-31T11:27:27Z</time>
      </trkpt>
      <trkpt lat="48.628" lon="7.03392">
        <ele>363.9</ele>
        <time>2021-07-31T11:27:29Z</time>
      </trkpt>
      <trkpt lat="48.62797" lon="7.03394">
        <ele>363.9</ele>
        <time>2021-07-31T11:27:30Z</time>
      </trkpt>
      <trkpt lat="48.62795" lon="7.03394">
        <ele>364</ele>
        <time>2021-07-31T11:27:31Z</time>
      </trkpt>
      <trkpt lat="48.62793" lon="7.03394">
        <ele>364</ele>
        <time>2021-07-31T11:27:33Z</time>
      </trkpt>
      <trkpt lat="48.62792" lon="7.03394">
        <ele>364.1</ele>
        <time>2021-07-31T11:27:34Z</time>
      </trkpt>
      <trkpt lat="48.6279" lon="7.03394">
        <ele>364.1</ele>
        <time>2021-07-31T11:27:35Z</time>
      </trkpt>
      <trkpt lat="48.62789" lon="7.03394">
        <ele>364.1</ele>
        <time>2021-07-31T11:27:37Z</time>
      </trkpt>
      <trkpt lat="48.62779" lon="7.03397">
        <ele>364.5</ele>
        <time>2021-07-31T11:27:43Z</time>
      </trkpt>
      <trkpt lat="48.62777" lon="7.03403">
        <ele>364.7</ele>
        <time>2021-07-31T11:27:45Z</time>
      </trkpt>
      <trkpt lat="48.62776" lon="7.03404">
        <ele>364.7</ele>
        <time>2021-07-31T11:27:46Z</time>
      </trkpt>
      <trkpt lat="48.62775" lon="7.03406">
        <ele>364.8</ele>
        <time>2021-07-31T11:27:47Z</time>
      </trkpt>
      <trkpt lat="48.62773" lon="7.03408">
        <ele>364.9</ele>
        <time>2021-07-31T11:27:49Z</time>
      </trkpt>
      <trkpt lat="48.62773" lon="7.03409">
        <ele>365</ele>
        <time>2021-07-31T11:27:50Z</time>
      </trkpt>
      <trkpt lat="48.62773" lon="7.03409">
        <ele>365</ele>
        <time>2021-07-31T11:27:51Z</time>
      </trkpt>
      <trkpt lat="48.6277" lon="7.03407">
        <ele>365.2</ele>
        <time>2021-07-31T11:27:53Z</time>
      </trkpt>
      <trkpt lat="48.62769" lon="7.03406">
        <ele>365.2</ele>
        <time>2021-07-31T11:27:54Z</time>
      </trkpt>
      <trkpt lat="48.62767" lon="7.03405">
        <ele>365.3</ele>
        <time>2021-07-31T11:27:56Z</time>
      </trkpt>
      <trkpt lat="48.62739" lon="7.03391">
        <ele>366.6</ele>
        <time>2021-07-31T11:28:04Z</time>
      </trkpt>
      <trkpt lat="48.62735" lon="7.0339">
        <ele>366.7</ele>
        <time>2021-07-31T11:28:05Z</time>
      </trkpt>
      <trkpt lat="48.62731" lon="7.03391">
        <ele>367</ele>
        <time>2021-07-31T11:28:06Z</time>
      </trkpt>
      <trkpt lat="48.62727" lon="7.03392">
        <ele>367.2</ele>
        <time>2021-07-31T11:28:08Z</time>
      </trkpt>
      <trkpt lat="48.62725" lon="7.03394">
        <ele>367.3</ele>
        <time>2021-07-31T11:28:09Z</time>
      </trkpt>
      <trkpt lat="48.62723" lon="7.03395">
        <ele>367.4</ele>
        <time>2021-07-31T11:28:10Z</time>
      </trkpt>
      <trkpt lat="48.62718" lon="7.03395">
        <ele>367.6</ele>
        <time>2021-07-31T11:28:12Z</time>
      </trkpt>
      <trkpt lat="48.62716" lon="7.03396">
        <ele>367.7</ele>
        <time>2021-07-31T11:28:13Z</time>
      </trkpt>
      <trkpt lat="48.62712" lon="7.03397">
        <ele>367.9</ele>
        <time>2021-07-31T11:28:15Z</time>
      </trkpt>
      <trkpt lat="48.62711" lon="7.03397">
        <ele>367.9</ele>
        <time>2021-07-31T11:28:16Z</time>
      </trkpt>
      <trkpt lat="48.62711" lon="7.03397">
        <ele>367.9</ele>
        <time>2021-07-31T11:28:17Z</time>
      </trkpt>
      <trkpt lat="48.62711" lon="7.03397">
        <ele>367.9</ele>
        <time>2021-07-31T11:28:19Z</time>
      </trkpt>
      <trkpt lat="48.62711" lon="7.03397">
        <ele>367.9</ele>
        <time>2021-07-31T11:28:20Z</time>
      </trkpt>
      <trkpt lat="48.62711" lon="7.03396">
        <ele>367.9</ele>
        <time>2021-07-31T11:28:22Z</time>
      </trkpt>
      <trkpt lat="48.62679" lon="7.03388">
        <ele>368.9</ele>
        <time>2021-07-31T11:28:31Z</time>
      </trkpt>
      <trkpt lat="48.62674" lon="7.03389">
        <ele>369.1</ele>
        <time>2021-07-31T11:28:33Z</time>
      </trkpt>
      <trkpt lat="48.62669" lon="7.03391">
        <ele>369.3</ele>
        <time>2021-07-31T11:28:34Z</time>
      </trkpt>
      <trkpt lat="48.62663" lon="7.03392">
        <ele>369.5</ele>
        <time>2021-07-31T11:28:35Z</time>
      </trkpt>
      <trkpt lat="48.62653" lon="7.03395">
        <ele>369.8</ele>
        <time>2021-07-31T11:28:37Z</time>
      </trkpt>
      <trkpt lat="48.62645" lon="7.03398">
        <ele>370</ele>
        <time>2021-07-31T11:28:39Z</time>
      </trkpt>
      <trkpt lat="48.62638" lon="7.034">
        <ele>370.2</ele>
        <time>2021-07-31T11:28:40Z</time>
      </trkpt>
      <trkpt lat="48.62635" lon="7.034">
        <ele>370.3</ele>
        <time>2021-07-31T11:28:41Z</time>
      </trkpt>
      <trkpt lat="48.62633" lon="7.034">
        <ele>370.3</ele>
        <time>2021-07-31T11:28:43Z</time>
      </trkpt>
      <trkpt lat="48.62633" lon="7.034">
        <ele>370.3</ele>
        <time>2021-07-31T11:28:44Z</time>
      </trkpt>
      <trkpt lat="48.62632" lon="7.034">
        <ele>370.4</ele>
        <time>2021-07-31T11:28:45Z</time>
      </trkpt>
      <trkpt lat="48.62631" lon="7.034">
        <ele>370.4</ele>
        <time>2021-07-31T11:28:46Z</time>
      </trkpt>
      <trkpt lat="48.6263" lon="7.03402">
        <ele>370.4</ele>
        <time>2021-07-31T11:28:47Z</time>
      </trkpt>
      <trkpt lat="48.62628" lon="7.03403">
        <ele>370.5</ele>
        <time>2021-07-31T11:28:49Z</time>
      </trkpt>
      <trkpt lat="48.62624" lon="7.03406">
        <ele>370.6</ele>
        <time>2021-07-31T11:28:51Z</time>
      </trkpt>
      <trkpt lat="48.62621" lon="7.03408">
        <ele>370.7</ele>
        <time>2021-07-31T11:28:52Z</time>
      </trkpt>
      <trkpt lat="48.62617" lon="7.03411">
        <ele>370.9</ele>
        <time>2021-07-31T11:28:53Z</time>
      </trkpt>
      <trkpt lat="48.62612" lon="7.03415">
        <ele>371</ele>
        <time>2021-07-31T11:28:55Z</time>
      </trkpt>
      <trkpt lat="48.62607" lon="7.03416">
        <ele>371.2</ele>
        <time>2021-07-31T11:28:56Z</time>
      </trkpt>
      <trkpt lat="48.62602" lon="7.03417">
        <ele>371.4</ele>
        <time>2021-07-31T11:28:57Z</time>
      </trkpt>
      <trkpt lat="48.62598" lon="7.03418">
        <ele>371.5</ele>
        <time>2021-07-31T11:28:58Z</time>
      </trkpt>
      <trkpt lat="48.62595" lon="7.03419">
        <ele>371.6</ele>
        <time>2021-07-31T11:28:59Z</time>
      </trkpt>
      <trkpt lat="48.62591" lon="7.03422">
        <ele>371.7</ele>
        <time>2021-07-31T11:29:01Z</time>
      </trkpt>
      <trkpt lat="48.62587" lon="7.03426">
        <ele>371.8</ele>
        <time>2021-07-31T11:29:03Z</time>
      </trkpt>
      <trkpt lat="48.62585" lon="7.03427">
        <ele>371.8</ele>
        <time>2021-07-31T11:29:04Z</time>
      </trkpt>
      <trkpt lat="48.62584" lon="7.03427">
        <ele>371.9</ele>
        <time>2021-07-31T11:29:05Z</time>
      </trkpt>
      <trkpt lat="48.62583" lon="7.03427">
        <ele>371.9</ele>
        <time>2021-07-31T11:29:06Z</time>
      </trkpt>
      <trkpt lat="48.6258" lon="7.03429">
        <ele>372</ele>
        <time>2021-07-31T11:29:07Z</time>
      </trkpt>
      <trkpt lat="48.62576" lon="7.03432">
        <ele>372.1</ele>
        <time>2021-07-31T11:29:09Z</time>
      </trkpt>
      <trkpt lat="48.62571" lon="7.03431">
        <ele>372.4</ele>
        <time>2021-07-31T11:29:10Z</time>
      </trkpt>
      <trkpt lat="48.62568" lon="7.0343">
        <ele>372.5</ele>
        <time>2021-07-31T11:29:11Z</time>
      </trkpt>
      <trkpt lat="48.62564" lon="7.03428">
        <ele>372.7</ele>
        <time>2021-07-31T11:29:12Z</time>
      </trkpt>
      <trkpt lat="48.62562" lon="7.03428">
        <ele>372.8</ele>
        <time>2021-07-31T11:29:14Z</time>
      </trkpt>
      <trkpt lat="48.62562" lon="7.03429">
        <ele>372.9</ele>
        <time>2021-07-31T11:29:15Z</time>
      </trkpt>
      <trkpt lat="48.62561" lon="7.03429">
        <ele>372.9</ele>
        <time>2021-07-31T11:29:16Z</time>
      </trkpt>
      <trkpt lat="48.62559" lon="7.03428">
        <ele>373</ele>
        <time>2021-07-31T11:29:17Z</time>
      </trkpt>
      <trkpt lat="48.62544" lon="7.03439">
        <ele>374</ele>
        <time>2021-07-31T11:29:31Z</time>
      </trkpt>
      <trkpt lat="48.62544" lon="7.03441">
        <ele>374</ele>
        <time>2021-07-31T11:29:32Z</time>
      </trkpt>
      <trkpt lat="48.62544" lon="7.03444">
        <ele>374.2</ele>
        <time>2021-07-31T11:29:33Z</time>
      </trkpt>
      <trkpt lat="48.62542" lon="7.03449">
        <ele>374.4</ele>
        <time>2021-07-31T11:29:34Z</time>
      </trkpt>
      <trkpt lat="48.62542" lon="7.0345">
        <ele>374.4</ele>
        <time>2021-07-31T11:29:35Z</time>
      </trkpt>
      <trkpt lat="48.62541" lon="7.03452">
        <ele>374.6</ele>
        <time>2021-07-31T11:29:36Z</time>
      </trkpt>
      <trkpt lat="48.62539" lon="7.03452">
        <ele>374.7</ele>
        <time>2021-07-31T11:29:37Z</time>
      </trkpt>
      <trkpt lat="48.62535" lon="7.03452">
        <ele>374.9</ele>
        <time>2021-07-31T11:29:38Z</time>
      </trkpt>
      <trkpt lat="48.6253" lon="7.03451">
        <ele>375.2</ele>
        <time>2021-07-31T11:29:39Z</time>
      </trkpt>
      <trkpt lat="48.62526" lon="7.0345">
        <ele>375.5</ele>
        <time>2021-07-31T11:29:41Z</time>
      </trkpt>
      <trkpt lat="48.62524" lon="7.03449">
        <ele>375.6</ele>
        <time>2021-07-31T11:29:42Z</time>
      </trkpt>
      <trkpt lat="48.6252" lon="7.03446">
        <ele>375.8</ele>
        <time>2021-07-31T11:29:43Z</time>
      </trkpt>
      <trkpt lat="48.62518" lon="7.03446">
        <ele>375.9</ele>
        <time>2021-07-31T11:29:44Z</time>
      </trkpt>
      <trkpt lat="48.62515" lon="7.03444">
        <ele>376</ele>
        <time>2021-07-31T11:29:46Z</time>
      </trkpt>
      <trkpt lat="48.62512" lon="7.03444">
        <ele>376.1</ele>
        <time>2021-07-31T11:29:47Z</time>
      </trkpt>
      <trkpt lat="48.62509" lon="7.03442">
        <ele>376.3</ele>
        <time>2021-07-31T11:29:49Z</time>
      </trkpt>
      <trkpt lat="48.62506" lon="7.03442">
        <ele>376.3</ele>
        <time>2021-07-31T11:29:50Z</time>
      </trkpt>
      <trkpt lat="48.62505" lon="7.03443">
        <ele>376.4</ele>
        <time>2021-07-31T11:29:51Z</time>
      </trkpt>
      <trkpt lat="48.62502" lon="7.03444">
        <ele>376.5</ele>
        <time>2021-07-31T11:29:52Z</time>
      </trkpt>
      <trkpt lat="48.62501" lon="7.03444">
        <ele>376.6</ele>
        <time>2021-07-31T11:29:53Z</time>
      </trkpt>
      <trkpt lat="48.62498" lon="7.03445">
        <ele>376.7</ele>
        <time>2021-07-31T11:29:54Z</time>
      </trkpt>
      <trkpt lat="48.62497" lon="7.03446">
        <ele>376.8</ele>
        <time>2021-07-31T11:29:55Z</time>
      </trkpt>
      <trkpt lat="48.62494" lon="7.03451">
        <ele>377</ele>
        <time>2021-07-31T11:29:57Z</time>
      </trkpt>
      <trkpt lat="48.62493" lon="7.03452">
        <ele>377</ele>
        <time>2021-07-31T11:29:58Z</time>
      </trkpt>
      <trkpt lat="48.62493" lon="7.03452">
        <ele>377.1</ele>
        <time>2021-07-31T11:29:59Z</time>
      </trkpt>
      <trkpt lat="48.62492" lon="7.03453">
        <ele>377.1</ele>
        <time>2021-07-31T11:30:00Z</time>
      </trkpt>
      <trkpt lat="48.62492" lon="7.03453">
        <ele>377.1</ele>
        <time>2021-07-31T11:30:01Z</time>
      </trkpt>
      <trkpt lat="48.62492" lon="7.03453">
        <ele>377.1</ele>
        <time>2021-07-31T11:30:02Z</time>
      </trkpt>
      <trkpt lat="48.62492" lon="7.03453">
        <ele>377.1</ele>
        <time>2021-07-31T11:30:04Z</time>
      </trkpt>
      <trkpt lat="48.62471" lon="7.03449">
        <ele>377.8</ele>
        <time>2021-07-31T11:30:13Z</time>
      </trkpt>
      <trkpt lat="48.62465" lon="7.03446">
        <ele>378.1</ele>
        <time>2021-07-31T11:30:14Z</time>
      </trkpt>
      <trkpt lat="48.62461" lon="7.03445">
        <ele>378.2</ele>
        <time>2021-07-31T11:30:15Z</time>
      </trkpt>
      <trkpt lat="48.62459" lon="7.03445">
        <ele>378.3</ele>
        <time>2021-07-31T11:30:16Z</time>
      </trkpt>
      <trkpt lat="48.62454" lon="7.03446">
        <ele>378.5</ele>
        <time>2021-07-31T11:30:18Z</time>
      </trkpt>
      <trkpt lat="48.62452" lon="7.03447">
        <ele>378.6</ele>
        <time>2021-07-31T11:30:19Z</time>
      </trkpt>
      <trkpt lat="48.6245" lon="7.03448">
        <ele>378.7</ele>
        <time>2021-07-31T11:30:20Z</time>
      </trkpt>
      <trkpt lat="48.62449" lon="7.03449">
        <ele>378.8</ele>
        <time>2021-07-31T11:30:21Z</time>
      </trkpt>
      <trkpt lat="48.62448" lon="7.03449">
        <ele>378.8</ele>
        <time>2021-07-31T11:30:23Z</time>
      </trkpt>
      <trkpt lat="48.62448" lon="7.0345">
        <ele>378.9</ele>
        <time>2021-07-31T11:30:24Z</time>
      </trkpt>
      <trkpt lat="48.62448" lon="7.03451">
        <ele>378.9</ele>
        <time>2021-07-31T11:30:25Z</time>
      </trkpt>
      <trkpt lat="48.62448" lon="7.03452">
        <ele>378.9</ele>
        <time>2021-07-31T11:30:26Z</time>
      </trkpt>
      <trkpt lat="48.62448" lon="7.03453">
        <ele>379</ele>
        <time>2021-07-31T11:30:27Z</time>
      </trkpt>
      <trkpt lat="48.62447" lon="7.03453">
        <ele>379</ele>
        <time>2021-07-31T11:30:28Z</time>
      </trkpt>
      <trkpt lat="48.62447" lon="7.03454">
        <ele>379</ele>
        <time>2021-07-31T11:30:29Z</time>
      </trkpt>
      <trkpt lat="48.62447" lon="7.03455">
        <ele>379</ele>
        <time>2021-07-31T11:30:30Z</time>
      </trkpt>
      <trkpt lat="48.62447" lon="7.03455">
        <ele>379.1</ele>
        <time>2021-07-31T11:30:32Z</time>
      </trkpt>
      <trkpt lat="48.62447" lon="7.03456">
        <ele>379.1</ele>
        <time>2021-07-31T11:30:33Z</time>
      </trkpt>
      <trkpt lat="48.62439" lon="7.03458">
        <ele>379.5</ele>
        <time>2021-07-31T11:30:40Z</time>
      </trkpt>
      <trkpt lat="48.62437" lon="7.0346">
        <ele>379.6</ele>
        <time>2021-07-31T11:30:42Z</time>
      </trkpt>
      <trkpt lat="48.62436" lon="7.0346">
        <ele>379.7</ele>
        <time>2021-07-31T11:30:43Z</time>
      </trkpt>
      <trkpt lat="48.62435" lon="7.03461">
        <ele>379.7</ele>
        <time>2021-07-31T11:30:44Z</time>
      </trkpt>
      <trkpt lat="48.62434" lon="7.03462">
        <ele>379.8</ele>
        <time>2021-07-31T11:30:45Z</time>
      </trkpt>
      <trkpt lat="48.62432" lon="7.03463">
        <ele>379.9</ele>
        <time>2021-07-31T11:30:47Z</time>
      </trkpt>
      <trkpt lat="48.6243" lon="7.03466">
        <ele>380</ele>
        <time>2021-07-31T11:30:49Z</time>
      </trkpt>
      <trkpt lat="48.62429" lon="7.03468">
        <ele>380.1</ele>
        <time>2021-07-31T11:30:50Z</time>
      </trkpt>
      <trkpt lat="48.62427" lon="7.03471">
        <ele>380.2</ele>
        <time>2021-07-31T11:30:52Z</time>
      </trkpt>
      <trkpt lat="48.62425" lon="7.03473">
        <ele>380.3</ele>
        <time>2021-07-31T11:30:54Z</time>
      </trkpt>
      <trkpt lat="48.62425" lon="7.03474">
        <ele>380.3</ele>
        <time>2021-07-31T11:30:55Z</time>
      </trkpt>
      <trkpt lat="48.62419" lon="7.03478">
        <ele>380.6</ele>
        <time>2021-07-31T11:30:56Z</time>
      </trkpt>
      <trkpt lat="48.62415" lon="7.03481">
        <ele>380.8</ele>
        <time>2021-07-31T11:30:57Z</time>
      </trkpt>
      <trkpt lat="48.62409" lon="7.03483">
        <ele>381.1</ele>
        <time>2021-07-31T11:30:58Z</time>
      </trkpt>
      <trkpt lat="48.62404" lon="7.03487">
        <ele>381.4</ele>
        <time>2021-07-31T11:31:00Z</time>
      </trkpt>
      <trkpt lat="48.62403" lon="7.03489">
        <ele>381.5</ele>
        <time>2021-07-31T11:31:01Z</time>
      </trkpt>
      <trkpt lat="48.62401" lon="7.0349">
        <ele>381.6</ele>
        <time>2021-07-31T11:31:03Z</time>
      </trkpt>
      <trkpt lat="48.624" lon="7.0349">
        <ele>381.6</ele>
        <time>2021-07-31T11:31:04Z</time>
      </trkpt>
      <trkpt lat="48.624" lon="7.03489">
        <ele>381.7</ele>
        <time>2021-07-31T11:31:05Z</time>
      </trkpt>
      <trkpt lat="48.62399" lon="7.03489">
        <ele>381.7</ele>
        <time>2021-07-31T11:31:06Z</time>
      </trkpt>
      <trkpt lat="48.62398" lon="7.03489">
        <ele>381.7</ele>
        <time>2021-07-31T11:31:08Z</time>
      </trkpt>
      <trkpt lat="48.62397" lon="7.03487">
        <ele>381.8</ele>
        <time>2021-07-31T11:31:09Z</time>
      </trkpt>
      <trkpt lat="48.62395" lon="7.03486">
        <ele>381.9</ele>
        <time>2021-07-31T11:31:10Z</time>
      </trkpt>
      <trkpt lat="48.62372" lon="7.03467">
        <ele>383</ele>
        <time>2021-07-31T11:31:15Z</time>
      </trkpt>
      <trkpt lat="48.62368" lon="7.03464">
        <ele>383.2</ele>
        <time>2021-07-31T11:31:17Z</time>
      </trkpt>
      <trkpt lat="48.62363" lon="7.03463">
        <ele>383.4</ele>
        <time>2021-07-31T11:31:18Z</time>
      </trkpt>
      <trkpt lat="48.6236" lon="7.03462">
        <ele>383.5</ele>
        <time>2021-07-31T11:31:20Z</time>
      </trkpt>
      <trkpt lat="48.62357" lon="7.03462">
        <ele>383.6</ele>
        <time>2021-07-31T11:31:21Z</time>
      </trkpt>
      <trkpt lat="48.62354" lon="7.03462">
        <ele>383.7</ele>
        <time>2021-07-31T11:31:22Z</time>
      </trkpt>
      <trkpt lat="48.62352" lon="7.03462">
        <ele>383.8</ele>
        <time>2021-07-31T11:31:23Z</time>
      </trkpt>
      <trkpt lat="48.62351" lon="7.03462">
        <ele>383.8</ele>
        <time>2021-07-31T11:31:24Z</time>
      </trkpt>
      <trkpt lat="48.6235" lon="7.03463">
        <ele>383.9</ele>
        <time>2021-07-31T11:31:26Z</time>
      </trkpt>
      <trkpt lat="48.6235" lon="7.03463">
        <ele>383.9</ele>
        <time>2021-07-31T11:31:27Z</time>
      </trkpt>
      <trkpt lat="48.62349" lon="7.03463">
        <ele>383.9</ele>
        <time>2021-07-31T11:31:28Z</time>
      </trkpt>
      <trkpt lat="48.62349" lon="7.03463">
        <ele>383.9</ele>
        <time>2021-07-31T11:31:30Z</time>
      </trkpt>
      <trkpt lat="48.62347" lon="7.03463">
        <ele>384</ele>
        <time>2021-07-31T11:31:31Z</time>
      </trkpt>
      <trkpt lat="48.62345" lon="7.03463">
        <ele>384</ele>
        <time>2021-07-31T11:31:32Z</time>
      </trkpt>
      <trkpt lat="48.62341" lon="7.03462">
        <ele>384.2</ele>
        <time>2021-07-31T11:31:34Z</time>
      </trkpt>
      <trkpt lat="48.62337" lon="7.03462">
        <ele>384.3</ele>
        <time>2021-07-31T11:31:35Z</time>
      </trkpt>
      <trkpt lat="48.62333" lon="7.03462">
        <ele>384.5</ele>
        <time>2021-07-31T11:31:36Z</time>
      </trkpt>
      <trkpt lat="48.6233" lon="7.03462">
        <ele>384.7</ele>
        <time>2021-07-31T11:31:37Z</time>
      </trkpt>
      <trkpt lat="48.62328" lon="7.03464">
        <ele>384.8</ele>
        <time>2021-07-31T11:31:38Z</time>
      </trkpt>
      <trkpt lat="48.62326" lon="7.03466">
        <ele>385</ele>
        <time>2021-07-31T11:31:40Z</time>
      </trkpt>
      <trkpt lat="48.62324" lon="7.0347">
        <ele>385.1</ele>
        <time>2021-07-31T11:31:41Z</time>
      </trkpt>
      <trkpt lat="48.62321" lon="7.03475">
        <ele>385.4</ele>
        <time>2021-07-31T11:31:43Z</time>
      </trkpt>
      <trkpt lat="48.6232" lon="7.03476">
        <ele>385.5</ele>
        <time>2021-07-31T11:31:44Z</time>
      </trkpt>
      <trkpt lat="48.62319" lon="7.0348">
        <ele>385.7</ele>
        <time>2021-07-31T11:31:46Z</time>
      </trkpt>
      <trkpt lat="48.62317" lon="7.03484">
        <ele>385.9</ele>
        <time>2021-07-31T11:31:47Z</time>
      </trkpt>
      <trkpt lat="48.62316" lon="7.03485">
        <ele>386</ele>
        <time>2021-07-31T11:31:48Z</time>
      </trkpt>
      <trkpt lat="48.62314" lon="7.03486">
        <ele>386.1</ele>
        <time>2021-07-31T11:31:49Z</time>
      </trkpt>
      <trkpt lat="48.62313" lon="7.03487">
        <ele>386.2</ele>
        <time>2021-07-31T11:31:51Z</time>
      </trkpt>
      <trkpt lat="48.62311" lon="7.03488">
        <ele>386.4</ele>
        <time>2021-07-31T11:31:52Z</time>
      </trkpt>
      <trkpt lat="48.6231" lon="7.03488">
        <ele>386.4</ele>
        <time>2021-07-31T11:31:53Z</time>
      </trkpt>
      <trkpt lat="48.62308" lon="7.0349">
        <ele>386.5</ele>
        <time>2021-07-31T11:31:54Z</time>
      </trkpt>
      <trkpt lat="48.62306" lon="7.03491">
        <ele>386.6</ele>
        <time>2021-07-31T11:31:55Z</time>
      </trkpt>
      <trkpt lat="48.62305" lon="7.03492">
        <ele>386.7</ele>
        <time>2021-07-31T11:31:56Z</time>
      </trkpt>
      <trkpt lat="48.62303" lon="7.03493">
        <ele>386.8</ele>
        <time>2021-07-31T11:31:57Z</time>
      </trkpt>
      <trkpt lat="48.623" lon="7.03495">
        <ele>387</ele>
        <time>2021-07-31T11:31:59Z</time>
      </trkpt>
      <trkpt lat="48.62297" lon="7.03497">
        <ele>387.2</ele>
        <time>2021-07-31T11:32:00Z</time>
      </trkpt>
      <trkpt lat="48.62295" lon="7.03498">
        <ele>387.2</ele>
        <time>2021-07-31T11:32:01Z</time>
      </trkpt>
      <trkpt lat="48.62293" lon="7.03499">
        <ele>387.4</ele>
        <time>2021-07-31T11:32:02Z</time>
      </trkpt>
      <trkpt lat="48.62289" lon="7.035">
        <ele>387.6</ele>
        <time>2021-07-31T11:32:04Z</time>
      </trkpt>
      <trkpt lat="48.62285" lon="7.03502">
        <ele>387.8</ele>
        <time>2021-07-31T11:32:05Z</time>
      </trkpt>
      <trkpt lat="48.62284" lon="7.03503">
        <ele>387.9</ele>
        <time>2021-07-31T11:32:06Z</time>
      </trkpt>
      <trkpt lat="48.62282" lon="7.03504">
        <ele>388</ele>
        <time>2021-07-31T11:32:07Z</time>
      </trkpt>
      <trkpt lat="48.62283" lon="7.03508">
        <ele>388.1</ele>
        <time>2021-07-31T11:32:09Z</time>
      </trkpt>
      <trkpt lat="48.62283" lon="7.0351">
        <ele>388.1</ele>
        <time>2021-07-31T11:32:11Z</time>
      </trkpt>
      <trkpt lat="48.62283" lon="7.03511">
        <ele>388.1</ele>
        <time>2021-07-31T11:32:12Z</time>
      </trkpt>
      <trkpt lat="48.62282" lon="7.03511">
        <ele>388.1</ele>
        <time>2021-07-31T11:32:14Z</time>
      </trkpt>
      <trkpt lat="48.62282" lon="7.03512">
        <ele>388.1</ele>
        <time>2021-07-31T11:32:15Z</time>
      </trkpt>
      <trkpt lat="48.62281" lon="7.03514">
        <ele>388.2</ele>
        <time>2021-07-31T11:32:17Z</time>
      </trkpt>
      <trkpt lat="48.62273" lon="7.03536">
        <ele>388.7</ele>
        <time>2021-07-31T11:32:32Z</time>
      </trkpt>
      <trkpt lat="48.62269" lon="7.03544">
        <ele>388.9</ele>
        <time>2021-07-31T11:32:34Z</time>
      </trkpt>
      <trkpt lat="48.62269" lon="7.03546">
        <ele>389</ele>
        <time>2021-07-31T11:32:35Z</time>
      </trkpt>
      <trkpt lat="48.62267" lon="7.03548">
        <ele>389</ele>
        <time>2021-07-31T11:32:37Z</time>
      </trkpt>
      <trkpt lat="48.62266" lon="7.03549">
        <ele>389.1</ele>
        <time>2021-07-31T11:32:38Z</time>
      </trkpt>
      <trkpt lat="48.62265" lon="7.03549">
        <ele>389.1</ele>
        <time>2021-07-31T11:32:41Z</time>
      </trkpt>
      <trkpt lat="48.62265" lon="7.0355">
        <ele>389.1</ele>
        <time>2021-07-31T11:32:42Z</time>
      </trkpt>
      <trkpt lat="48.62263" lon="7.0355">
        <ele>389.2</ele>
        <time>2021-07-31T11:32:43Z</time>
      </trkpt>
      <trkpt lat="48.62262" lon="7.0355">
        <ele>389.2</ele>
        <time>2021-07-31T11:32:44Z</time>
      </trkpt>
      <trkpt lat="48.62259" lon="7.03552">
        <ele>389.4</ele>
        <time>2021-07-31T11:32:46Z</time>
      </trkpt>
      <trkpt lat="48.62257" lon="7.03553">
        <ele>389.5</ele>
        <time>2021-07-31T11:32:47Z</time>
      </trkpt>
      <trkpt lat="48.62256" lon="7.03555">
        <ele>389.5</ele>
        <time>2021-07-31T11:32:49Z</time>
      </trkpt>
      <trkpt lat="48.6225" lon="7.03559">
        <ele>389.8</ele>
        <time>2021-07-31T11:32:52Z</time>
      </trkpt>
      <trkpt lat="48.62247" lon="7.03561">
        <ele>389.9</ele>
        <time>2021-07-31T11:32:53Z</time>
      </trkpt>
      <trkpt lat="48.62246" lon="7.03562">
        <ele>390</ele>
        <time>2021-07-31T11:32:54Z</time>
      </trkpt>
      <trkpt lat="48.62243" lon="7.03564">
        <ele>390.1</ele>
        <time>2021-07-31T11:32:55Z</time>
      </trkpt>
      <trkpt lat="48.6224" lon="7.03566">
        <ele>390.2</ele>
        <time>2021-07-31T11:32:57Z</time>
      </trkpt>
      <trkpt lat="48.62238" lon="7.03568">
        <ele>390.3</ele>
        <time>2021-07-31T11:32:58Z</time>
      </trkpt>
      <trkpt lat="48.62236" lon="7.03568">
        <ele>390.4</ele>
        <time>2021-07-31T11:32:59Z</time>
      </trkpt>
      <trkpt lat="48.62234" lon="7.03569">
        <ele>390.5</ele>
        <time>2021-07-31T11:33:01Z</time>
      </trkpt>
      <trkpt lat="48.62232" lon="7.03569">
        <ele>390.5</ele>
        <time>2021-07-31T11:33:03Z</time>
      </trkpt>
      <trkpt lat="48.6223" lon="7.0357">
        <ele>390.6</ele>
        <time>2021-07-31T11:33:05Z</time>
      </trkpt>
      <trkpt lat="48.62228" lon="7.0357">
        <ele>390.6</ele>
        <time>2021-07-31T11:33:06Z</time>
      </trkpt>
      <trkpt lat="48.62225" lon="7.03571">
        <ele>390.7</ele>
        <time>2021-07-31T11:33:07Z</time>
      </trkpt>
      <trkpt lat="48.62225" lon="7.03571">
        <ele>390.7</ele>
        <time>2021-07-31T11:33:08Z</time>
      </trkpt>
      <trkpt lat="48.62222" lon="7.03568">
        <ele>390.8</ele>
        <time>2021-07-31T11:33:09Z</time>
      </trkpt>
      <trkpt lat="48.6222" lon="7.03567">
        <ele>390.8</ele>
        <time>2021-07-31T11:33:10Z</time>
      </trkpt>
      <trkpt lat="48.62217" lon="7.03566">
        <ele>390.8</ele>
        <time>2021-07-31T11:33:12Z</time>
      </trkpt>
      <trkpt lat="48.62215" lon="7.03567">
        <ele>390.8</ele>
        <time>2021-07-31T11:33:13Z</time>
      </trkpt>
      <trkpt lat="48.62214" lon="7.03567">
        <ele>390.8</ele>
        <time>2021-07-31T11:33:14Z</time>
      </trkpt>
      <trkpt lat="48.62211" lon="7.0357">
        <ele>390.9</ele>
        <time>2021-07-31T11:33:16Z</time>
      </trkpt>
      <trkpt lat="48.6221" lon="7.0357">
        <ele>390.9</ele>
        <time>2021-07-31T11:33:17Z</time>
      </trkpt>
      <trkpt lat="48.62209" lon="7.03573">
        <ele>390.9</ele>
        <time>2021-07-31T11:33:18Z</time>
      </trkpt>
      <trkpt lat="48.62208" lon="7.03574">
        <ele>390.9</ele>
        <time>2021-07-31T11:33:20Z</time>
      </trkpt>
      <trkpt lat="48.62207" lon="7.03575">
        <ele>390.9</ele>
        <time>2021-07-31T11:33:21Z</time>
      </trkpt>
      <trkpt lat="48.62206" lon="7.03576">
        <ele>391</ele>
        <time>2021-07-31T11:33:22Z</time>
      </trkpt>
      <trkpt lat="48.62206" lon="7.03577">
        <ele>391</ele>
        <time>2021-07-31T11:33:24Z</time>
      </trkpt>
      <trkpt lat="48.62205" lon="7.03578">
        <ele>391</ele>
        <time>2021-07-31T11:33:25Z</time>
      </trkpt>
      <trkpt lat="48.62205" lon="7.03578">
        <ele>391</ele>
        <time>2021-07-31T11:33:26Z</time>
      </trkpt>
      <trkpt lat="48.62204" lon="7.0358">
        <ele>391</ele>
        <time>2021-07-31T11:33:27Z</time>
      </trkpt>
      <trkpt lat="48.62203" lon="7.03582">
        <ele>391.1</ele>
        <time>2021-07-31T11:33:28Z</time>
      </trkpt>
      <trkpt lat="48.62201" lon="7.03584">
        <ele>391.1</ele>
        <time>2021-07-31T11:33:29Z</time>
      </trkpt>
      <trkpt lat="48.622" lon="7.03585">
        <ele>391.1</ele>
        <time>2021-07-31T11:33:31Z</time>
      </trkpt>
      <trkpt lat="48.62199" lon="7.03587">
        <ele>391.2</ele>
        <time>2021-07-31T11:33:32Z</time>
      </trkpt>
      <trkpt lat="48.62198" lon="7.03589">
        <ele>391.2</ele>
        <time>2021-07-31T11:33:33Z</time>
      </trkpt>
      <trkpt lat="48.62197" lon="7.03591">
        <ele>391.3</ele>
        <time>2021-07-31T11:33:34Z</time>
      </trkpt>
      <trkpt lat="48.62196" lon="7.03592">
        <ele>391.3</ele>
        <time>2021-07-31T11:33:35Z</time>
      </trkpt>
      <trkpt lat="48.62196" lon="7.03592">
        <ele>391.3</ele>
        <time>2021-07-31T11:33:36Z</time>
      </trkpt>
      <trkpt lat="48.62196" lon="7.03592">
        <ele>391.3</ele>
        <time>2021-07-31T11:33:38Z</time>
      </trkpt>
      <trkpt lat="48.62195" lon="7.03594">
        <ele>391.4</ele>
        <time>2021-07-31T11:33:39Z</time>
      </trkpt>
      <trkpt lat="48.62193" lon="7.03598">
        <ele>391.5</ele>
        <time>2021-07-31T11:33:41Z</time>
      </trkpt>
      <trkpt lat="48.62192" lon="7.03599">
        <ele>391.5</ele>
        <time>2021-07-31T11:33:42Z</time>
      </trkpt>
      <trkpt lat="48.62193" lon="7.036">
        <ele>391.6</ele>
        <time>2021-07-31T11:33:43Z</time>
      </trkpt>
      <trkpt lat="48.62192" lon="7.03601">
        <ele>391.6</ele>
        <time>2021-07-31T11:33:44Z</time>
      </trkpt>
      <trkpt lat="48.62192" lon="7.03602">
        <ele>391.6</ele>
        <time>2021-07-31T11:33:45Z</time>
      </trkpt>
      <trkpt lat="48.6219" lon="7.03602">
        <ele>391.7</ele>
        <time>2021-07-31T11:33:46Z</time>
      </trkpt>
      <trkpt lat="48.62189" lon="7.03603">
        <ele>391.7</ele>
        <time>2021-07-31T11:33:48Z</time>
      </trkpt>
      <trkpt lat="48.62188" lon="7.03603">
        <ele>391.8</ele>
        <time>2021-07-31T11:33:49Z</time>
      </trkpt>
      <trkpt lat="48.62186" lon="7.03607">
        <ele>391.9</ele>
        <time>2021-07-31T11:33:50Z</time>
      </trkpt>
      <trkpt lat="48.62186" lon="7.03608">
        <ele>391.9</ele>
        <time>2021-07-31T11:33:51Z</time>
      </trkpt>
      <trkpt lat="48.62185" lon="7.03608">
        <ele>391.9</ele>
        <time>2021-07-31T11:33:53Z</time>
      </trkpt>
      <trkpt lat="48.62184" lon="7.03609">
        <ele>391.9</ele>
        <time>2021-07-31T11:33:54Z</time>
      </trkpt>
      <trkpt lat="48.62184" lon="7.03609">
        <ele>391.9</ele>
        <time>2021-07-31T11:33:55Z</time>
      </trkpt>
      <trkpt lat="48.62183" lon="7.03612">
        <ele>392</ele>
        <time>2021-07-31T11:33:57Z</time>
      </trkpt>
      <trkpt lat="48.62183" lon="7.03613">
        <ele>392</ele>
        <time>2021-07-31T11:33:58Z</time>
      </trkpt>
      <trkpt lat="48.62183" lon="7.03614">
        <ele>392</ele>
        <time>2021-07-31T11:33:59Z</time>
      </trkpt>
      <trkpt lat="48.62183" lon="7.03615">
        <ele>392</ele>
        <time>2021-07-31T11:34:01Z</time>
      </trkpt>
      <trkpt lat="48.62183" lon="7.03616">
        <ele>392</ele>
        <time>2021-07-31T11:34:03Z</time>
      </trkpt>
      <trkpt lat="48.62183" lon="7.03617">
        <ele>392</ele>
        <time>2021-07-31T11:34:04Z</time>
      </trkpt>
      <trkpt lat="48.62183" lon="7.03618">
        <ele>392</ele>
        <time>2021-07-31T11:34:05Z</time>
      </trkpt>
      <trkpt lat="48.62183" lon="7.03618">
        <ele>392</ele>
        <time>2021-07-31T11:34:07Z</time>
      </trkpt>
      <trkpt lat="48.6217" lon="7.03631">
        <ele>392.3</ele>
        <time>2021-07-31T11:34:18Z</time>
      </trkpt>
      <trkpt lat="48.62167" lon="7.03634">
        <ele>392.4</ele>
        <time>2021-07-31T11:34:19Z</time>
      </trkpt>
      <trkpt lat="48.62164" lon="7.03639">
        <ele>392.5</ele>
        <time>2021-07-31T11:34:21Z</time>
      </trkpt>
      <trkpt lat="48.62162" lon="7.03642">
        <ele>392.6</ele>
        <time>2021-07-31T11:34:22Z</time>
      </trkpt>
      <trkpt lat="48.6216" lon="7.03646">
        <ele>392.6</ele>
        <time>2021-07-31T11:34:23Z</time>
      </trkpt>
      <trkpt lat="48.62156" lon="7.0365">
        <ele>392.7</ele>
        <time>2021-07-31T11:34:25Z</time>
      </trkpt>
      <trkpt lat="48.62152" lon="7.03654">
        <ele>392.7</ele>
        <time>2021-07-31T11:34:26Z</time>
      </trkpt>
      <trkpt lat="48.62151" lon="7.03656">
        <ele>392.8</ele>
        <time>2021-07-31T11:34:27Z</time>
      </trkpt>
      <trkpt lat="48.62148" lon="7.03658">
        <ele>392.9</ele>
        <time>2021-07-31T11:34:28Z</time>
      </trkpt>
      <trkpt lat="48.62145" lon="7.03662">
        <ele>392.9</ele>
        <time>2021-07-31T11:34:29Z</time>
      </trkpt>
      <trkpt lat="48.62141" lon="7.03666">
        <ele>393</ele>
        <time>2021-07-31T11:34:31Z</time>
      </trkpt>
      <trkpt lat="48.62139" lon="7.03669">
        <ele>393</ele>
        <time>2021-07-31T11:34:33Z</time>
      </trkpt>
      <trkpt lat="48.62135" lon="7.03674">
        <ele>393</ele>
        <time>2021-07-31T11:34:35Z</time>
      </trkpt>
      <trkpt lat="48.62132" lon="7.03676">
        <ele>393</ele>
        <time>2021-07-31T11:34:37Z</time>
      </trkpt>
      <trkpt lat="48.6213" lon="7.03674">
        <ele>393</ele>
        <time>2021-07-31T11:34:38Z</time>
      </trkpt>
      <trkpt lat="48.62128" lon="7.03675">
        <ele>393</ele>
        <time>2021-07-31T11:34:40Z</time>
      </trkpt>
      <trkpt lat="48.62123" lon="7.03677">
        <ele>392.9</ele>
        <time>2021-07-31T11:34:42Z</time>
      </trkpt>
      <trkpt lat="48.6212" lon="7.03678">
        <ele>392.9</ele>
        <time>2021-07-31T11:34:43Z</time>
      </trkpt>
      <trkpt lat="48.62112" lon="7.0368">
        <ele>392.8</ele>
        <time>2021-07-31T11:34:45Z</time>
      </trkpt>
      <trkpt lat="48.62109" lon="7.03683">
        <ele>392.7</ele>
        <time>2021-07-31T11:34:46Z</time>
      </trkpt>
      <trkpt lat="48.62106" lon="7.03686">
        <ele>392.6</ele>
        <time>2021-07-31T11:34:48Z</time>
      </trkpt>
      <trkpt lat="48.62103" lon="7.0369">
        <ele>392.5</ele>
        <time>2021-07-31T11:34:49Z</time>
      </trkpt>
      <trkpt lat="48.62102" lon="7.03693">
        <ele>392.5</ele>
        <time>2021-07-31T11:34:50Z</time>
      </trkpt>
      <trkpt lat="48.62098" lon="7.03698">
        <ele>392.4</ele>
        <time>2021-07-31T11:34:52Z</time>
      </trkpt>
      <trkpt lat="48.62095" lon="7.03704">
        <ele>392.3</ele>
        <time>2021-07-31T11:34:53Z</time>
      </trkpt>
      <trkpt lat="48.62092" lon="7.03708">
        <ele>392.2</ele>
        <time>2021-07-31T11:34:54Z</time>
      </trkpt>
      <trkpt lat="48.62087" lon="7.03713">
        <ele>392.2</ele>
        <time>2021-07-31T11:34:55Z</time>
      </trkpt>
      <trkpt lat="48.62082" lon="7.03717">
        <ele>392.2</ele>
        <time>2021-07-31T11:34:56Z</time>
      </trkpt>
      <trkpt lat="48.62077" lon="7.03723">
        <ele>392.1</ele>
        <time>2021-07-31T11:34:57Z</time>
      </trkpt>
      <trkpt lat="48.62073" lon="7.03728">
        <ele>392.1</ele>
        <time>2021-07-31T11:34:58Z</time>
      </trkpt>
      <trkpt lat="48.62069" lon="7.03736">
        <ele>391.9</ele>
        <time>2021-07-31T11:35:00Z</time>
      </trkpt>
      <trkpt lat="48.62066" lon="7.03742">
        <ele>391.8</ele>
        <time>2021-07-31T11:35:01Z</time>
      </trkpt>
      <trkpt lat="48.62064" lon="7.0375">
        <ele>391.7</ele>
        <time>2021-07-31T11:35:02Z</time>
      </trkpt>
      <trkpt lat="48.62063" lon="7.0376">
        <ele>391.7</ele>
        <time>2021-07-31T11:35:04Z</time>
      </trkpt>
      <trkpt lat="48.62062" lon="7.03769">
        <ele>391.6</ele>
        <time>2021-07-31T11:35:05Z</time>
      </trkpt>
      <trkpt lat="48.62062" lon="7.03774">
        <ele>391.5</ele>
        <time>2021-07-31T11:35:06Z</time>
      </trkpt>
      <trkpt lat="48.62063" lon="7.03782">
        <ele>391.2</ele>
        <time>2021-07-31T11:35:08Z</time>
      </trkpt>
      <trkpt lat="48.62064" lon="7.03791">
        <ele>391</ele>
        <time>2021-07-31T11:35:09Z</time>
      </trkpt>
      <trkpt lat="48.62065" lon="7.03798">
        <ele>390.9</ele>
        <time>2021-07-31T11:35:10Z</time>
      </trkpt>
      <trkpt lat="48.62067" lon="7.03811">
        <ele>390.8</ele>
        <time>2021-07-31T11:35:12Z</time>
      </trkpt>
      <trkpt lat="48.62068" lon="7.03819">
        <ele>390.8</ele>
        <time>2021-07-31T11:35:13Z</time>
      </trkpt>
      <trkpt lat="48.6207" lon="7.03829">
        <ele>390.8</ele>
        <time>2021-07-31T11:35:15Z</time>
      </trkpt>
      <trkpt lat="48.62071" lon="7.03838">
        <ele>390.8</ele>
        <time>2021-07-31T11:35:16Z</time>
      </trkpt>
      <trkpt lat="48.62072" lon="7.03846">
        <ele>390.8</ele>
        <time>2021-07-31T11:35:17Z</time>
      </trkpt>
      <trkpt lat="48.62072" lon="7.03855">
        <ele>390.8</ele>
        <time>2021-07-31T11:35:19Z</time>
      </trkpt>
      <trkpt lat="48.62073" lon="7.03862">
        <ele>390.8</ele>
        <time>2021-07-31T11:35:20Z</time>
      </trkpt>
      <trkpt lat="48.62072" lon="7.0387">
        <ele>390.8</ele>
        <time>2021-07-31T11:35:21Z</time>
      </trkpt>
      <trkpt lat="48.62072" lon="7.03882">
        <ele>390.8</ele>
        <time>2021-07-31T11:35:22Z</time>
      </trkpt>
      <trkpt lat="48.62073" lon="7.03894">
        <ele>390.8</ele>
        <time>2021-07-31T11:35:24Z</time>
      </trkpt>
      <trkpt lat="48.62072" lon="7.03908">
        <ele>390.8</ele>
        <time>2021-07-31T11:35:25Z</time>
      </trkpt>
      <trkpt lat="48.62072" lon="7.03916">
        <ele>390.8</ele>
        <time>2021-07-31T11:35:26Z</time>
      </trkpt>
      <trkpt lat="48.62073" lon="7.03925">
        <ele>390.8</ele>
        <time>2021-07-31T11:35:27Z</time>
      </trkpt>
      <trkpt lat="48.62075" lon="7.03936">
        <ele>390.9</ele>
        <time>2021-07-31T11:35:29Z</time>
      </trkpt>
      <trkpt lat="48.62076" lon="7.03944">
        <ele>390.9</ele>
        <time>2021-07-31T11:35:30Z</time>
      </trkpt>
      <trkpt lat="48.62077" lon="7.03951">
        <ele>391</ele>
        <time>2021-07-31T11:35:31Z</time>
      </trkpt>
      <trkpt lat="48.62077" lon="7.03958">
        <ele>391</ele>
        <time>2021-07-31T11:35:33Z</time>
      </trkpt>
      <trkpt lat="48.62078" lon="7.03963">
        <ele>391.1</ele>
        <time>2021-07-31T11:35:34Z</time>
      </trkpt>
      <trkpt lat="48.62078" lon="7.0397">
        <ele>391.1</ele>
        <time>2021-07-31T11:35:35Z</time>
      </trkpt>
      <trkpt lat="48.62079" lon="7.03977">
        <ele>391.2</ele>
        <time>2021-07-31T11:35:36Z</time>
      </trkpt>
      <trkpt lat="48.6208" lon="7.03981">
        <ele>391.2</ele>
        <time>2021-07-31T11:35:37Z</time>
      </trkpt>
      <trkpt lat="48.62081" lon="7.03987">
        <ele>391.3</ele>
        <time>2021-07-31T11:35:38Z</time>
      </trkpt>
      <trkpt lat="48.62081" lon="7.03994">
        <ele>391.4</ele>
        <time>2021-07-31T11:35:40Z</time>
      </trkpt>
      <trkpt lat="48.62082" lon="7.04">
        <ele>391.5</ele>
        <time>2021-07-31T11:35:41Z</time>
      </trkpt>
      <trkpt lat="48.62083" lon="7.04006">
        <ele>391.6</ele>
        <time>2021-07-31T11:35:42Z</time>
      </trkpt>
      <trkpt lat="48.62084" lon="7.04014">
        <ele>391.7</ele>
        <time>2021-07-31T11:35:43Z</time>
      </trkpt>
      <trkpt lat="48.62084" lon="7.0402">
        <ele>391.8</ele>
        <time>2021-07-31T11:35:44Z</time>
      </trkpt>
      <trkpt lat="48.62084" lon="7.04026">
        <ele>392</ele>
        <time>2021-07-31T11:35:45Z</time>
      </trkpt>
      <trkpt lat="48.62084" lon="7.04032">
        <ele>392.1</ele>
        <time>2021-07-31T11:35:46Z</time>
      </trkpt>
      <trkpt lat="48.62083" lon="7.04042">
        <ele>392.3</ele>
        <time>2021-07-31T11:35:48Z</time>
      </trkpt>
      <trkpt lat="48.62081" lon="7.04048">
        <ele>392.4</ele>
        <time>2021-07-31T11:35:50Z</time>
      </trkpt>
      <trkpt lat="48.6208" lon="7.04054">
        <ele>392.5</ele>
        <time>2021-07-31T11:35:51Z</time>
      </trkpt>
      <trkpt lat="48.62078" lon="7.0406">
        <ele>392.6</ele>
        <time>2021-07-31T11:35:52Z</time>
      </trkpt>
      <trkpt lat="48.62076" lon="7.04065">
        <ele>392.7</ele>
        <time>2021-07-31T11:35:53Z</time>
      </trkpt>
      <trkpt lat="48.62075" lon="7.0407">
        <ele>392.8</ele>
        <time>2021-07-31T11:35:54Z</time>
      </trkpt>
      <trkpt lat="48.62072" lon="7.04077">
        <ele>392.9</ele>
        <time>2021-07-31T11:35:56Z</time>
      </trkpt>
      <trkpt lat="48.62071" lon="7.04083">
        <ele>392.9</ele>
        <time>2021-07-31T11:35:57Z</time>
      </trkpt>
      <trkpt lat="48.6207" lon="7.04089">
        <ele>393</ele>
        <time>2021-07-31T11:35:58Z</time>
      </trkpt>
      <trkpt lat="48.62068" lon="7.04095">
        <ele>393.1</ele>
        <time>2021-07-31T11:35:59Z</time>
      </trkpt>
      <trkpt lat="48.62066" lon="7.04101">
        <ele>393.2</ele>
        <time>2021-07-31T11:36:00Z</time>
      </trkpt>
      <trkpt lat="48.62064" lon="7.04107">
        <ele>393.2</ele>
        <time>2021-07-31T11:36:01Z</time>
      </trkpt>
      <trkpt lat="48.62061" lon="7.04118">
        <ele>393.2</ele>
        <time>2021-07-31T11:36:03Z</time>
      </trkpt>
      <trkpt lat="48.6206" lon="7.04124">
        <ele>393.3</ele>
        <time>2021-07-31T11:36:04Z</time>
      </trkpt>
      <trkpt lat="48.62057" lon="7.04131">
        <ele>393.3</ele>
        <time>2021-07-31T11:36:06Z</time>
      </trkpt>
      <trkpt lat="48.62055" lon="7.0414">
        <ele>393.4</ele>
        <time>2021-07-31T11:36:07Z</time>
      </trkpt>
      <trkpt lat="48.62053" lon="7.04147">
        <ele>393.4</ele>
        <time>2021-07-31T11:36:09Z</time>
      </trkpt>
      <trkpt lat="48.62052" lon="7.04153">
        <ele>393.5</ele>
        <time>2021-07-31T11:36:10Z</time>
      </trkpt>
      <trkpt lat="48.62051" lon="7.04158">
        <ele>393.5</ele>
        <time>2021-07-31T11:36:11Z</time>
      </trkpt>
      <trkpt lat="48.6205" lon="7.04163">
        <ele>393.6</ele>
        <time>2021-07-31T11:36:12Z</time>
      </trkpt>
      <trkpt lat="48.62048" lon="7.04168">
        <ele>393.6</ele>
        <time>2021-07-31T11:36:13Z</time>
      </trkpt>
      <trkpt lat="48.62048" lon="7.04173">
        <ele>393.7</ele>
        <time>2021-07-31T11:36:14Z</time>
      </trkpt>
      <trkpt lat="48.62046" lon="7.04182">
        <ele>393.7</ele>
        <time>2021-07-31T11:36:16Z</time>
      </trkpt>
      <trkpt lat="48.62045" lon="7.04187">
        <ele>393.8</ele>
        <time>2021-07-31T11:36:17Z</time>
      </trkpt>
      <trkpt lat="48.62042" lon="7.04194">
        <ele>393.9</ele>
        <time>2021-07-31T11:36:19Z</time>
      </trkpt>
      <trkpt lat="48.62041" lon="7.04199">
        <ele>393.9</ele>
        <time>2021-07-31T11:36:20Z</time>
      </trkpt>
      <trkpt lat="48.6204" lon="7.04203">
        <ele>393.9</ele>
        <time>2021-07-31T11:36:21Z</time>
      </trkpt>
      <trkpt lat="48.62039" lon="7.04207">
        <ele>394</ele>
        <time>2021-07-31T11:36:22Z</time>
      </trkpt>
      <trkpt lat="48.62036" lon="7.04213">
        <ele>394</ele>
        <time>2021-07-31T11:36:24Z</time>
      </trkpt>
      <trkpt lat="48.62035" lon="7.04217">
        <ele>394.1</ele>
        <time>2021-07-31T11:36:25Z</time>
      </trkpt>
      <trkpt lat="48.62034" lon="7.04221">
        <ele>394.1</ele>
        <time>2021-07-31T11:36:26Z</time>
      </trkpt>
      <trkpt lat="48.62032" lon="7.04228">
        <ele>394.2</ele>
        <time>2021-07-31T11:36:28Z</time>
      </trkpt>
      <trkpt lat="48.62031" lon="7.04232">
        <ele>394.3</ele>
        <time>2021-07-31T11:36:29Z</time>
      </trkpt>
      <trkpt lat="48.6203" lon="7.0424">
        <ele>394.5</ele>
        <time>2021-07-31T11:36:31Z</time>
      </trkpt>
      <trkpt lat="48.62028" lon="7.04247">
        <ele>394.6</ele>
        <time>2021-07-31T11:36:33Z</time>
      </trkpt>
      <trkpt lat="48.62026" lon="7.04252">
        <ele>394.8</ele>
        <time>2021-07-31T11:36:34Z</time>
      </trkpt>
      <trkpt lat="48.62025" lon="7.04254">
        <ele>394.9</ele>
        <time>2021-07-31T11:36:35Z</time>
      </trkpt>
      <trkpt lat="48.62024" lon="7.04257">
        <ele>395</ele>
        <time>2021-07-31T11:36:36Z</time>
      </trkpt>
      <trkpt lat="48.62022" lon="7.04262">
        <ele>395.1</ele>
        <time>2021-07-31T11:36:38Z</time>
      </trkpt>
      <trkpt lat="48.62021" lon="7.04267">
        <ele>395.2</ele>
        <time>2021-07-31T11:36:39Z</time>
      </trkpt>
      <trkpt lat="48.6202" lon="7.04268">
        <ele>395.3</ele>
        <time>2021-07-31T11:36:40Z</time>
      </trkpt>
      <trkpt lat="48.62019" lon="7.04271">
        <ele>395.4</ele>
        <time>2021-07-31T11:36:41Z</time>
      </trkpt>
      <trkpt lat="48.62017" lon="7.04274">
        <ele>395.5</ele>
        <time>2021-07-31T11:36:43Z</time>
      </trkpt>
      <trkpt lat="48.62016" lon="7.04278">
        <ele>395.6</ele>
        <time>2021-07-31T11:36:44Z</time>
      </trkpt>
      <trkpt lat="48.62015" lon="7.04279">
        <ele>395.7</ele>
        <time>2021-07-31T11:36:45Z</time>
      </trkpt>
      <trkpt lat="48.62014" lon="7.04283">
        <ele>395.8</ele>
        <time>2021-07-31T11:36:46Z</time>
      </trkpt>
      <trkpt lat="48.62013" lon="7.04285">
        <ele>395.8</ele>
        <time>2021-07-31T11:36:47Z</time>
      </trkpt>
      <trkpt lat="48.62012" lon="7.04287">
        <ele>395.9</ele>
        <time>2021-07-31T11:36:48Z</time>
      </trkpt>
      <trkpt lat="48.6201" lon="7.04292">
        <ele>396.1</ele>
        <time>2021-07-31T11:36:50Z</time>
      </trkpt>
      <trkpt lat="48.62007" lon="7.04298">
        <ele>396.4</ele>
        <time>2021-07-31T11:36:52Z</time>
      </trkpt>
      <trkpt lat="48.62007" lon="7.04299">
        <ele>396.4</ele>
        <time>2021-07-31T11:36:53Z</time>
      </trkpt>
      <trkpt lat="48.62006" lon="7.04301">
        <ele>396.5</ele>
        <time>2021-07-31T11:36:54Z</time>
      </trkpt>
      <trkpt lat="48.62005" lon="7.04303">
        <ele>396.6</ele>
        <time>2021-07-31T11:36:55Z</time>
      </trkpt>
      <trkpt lat="48.62004" lon="7.04308">
        <ele>396.7</ele>
        <time>2021-07-31T11:36:57Z</time>
      </trkpt>
      <trkpt lat="48.62003" lon="7.0431">
        <ele>396.8</ele>
        <time>2021-07-31T11:36:58Z</time>
      </trkpt>
      <trkpt lat="48.62001" lon="7.04314">
        <ele>396.9</ele>
        <time>2021-07-31T11:37:00Z</time>
      </trkpt>
      <trkpt lat="48.62" lon="7.04317">
        <ele>397</ele>
        <time>2021-07-31T11:37:01Z</time>
      </trkpt>
      <trkpt lat="48.61999" lon="7.04321">
        <ele>397.1</ele>
        <time>2021-07-31T11:37:03Z</time>
      </trkpt>
      <trkpt lat="48.61997" lon="7.04325">
        <ele>397.2</ele>
        <time>2021-07-31T11:37:04Z</time>
      </trkpt>
      <trkpt lat="48.61995" lon="7.04332">
        <ele>397.4</ele>
        <time>2021-07-31T11:37:06Z</time>
      </trkpt>
      <trkpt lat="48.61994" lon="7.04334">
        <ele>397.4</ele>
        <time>2021-07-31T11:37:07Z</time>
      </trkpt>
      <trkpt lat="48.61994" lon="7.04336">
        <ele>397.5</ele>
        <time>2021-07-31T11:37:08Z</time>
      </trkpt>
      <trkpt lat="48.61992" lon="7.04341">
        <ele>397.6</ele>
        <time>2021-07-31T11:37:09Z</time>
      </trkpt>
      <trkpt lat="48.61992" lon="7.04342">
        <ele>397.7</ele>
        <time>2021-07-31T11:37:10Z</time>
      </trkpt>
      <trkpt lat="48.6199" lon="7.04346">
        <ele>397.7</ele>
        <time>2021-07-31T11:37:12Z</time>
      </trkpt>
      <trkpt lat="48.61989" lon="7.0435">
        <ele>397.8</ele>
        <time>2021-07-31T11:37:13Z</time>
      </trkpt>
      <trkpt lat="48.61987" lon="7.04355">
        <ele>397.9</ele>
        <time>2021-07-31T11:37:14Z</time>
      </trkpt>
      <trkpt lat="48.61987" lon="7.04357">
        <ele>397.9</ele>
        <time>2021-07-31T11:37:15Z</time>
      </trkpt>
      <trkpt lat="48.61984" lon="7.04361">
        <ele>397.9</ele>
        <time>2021-07-31T11:37:16Z</time>
      </trkpt>
      <trkpt lat="48.61983" lon="7.04362">
        <ele>398</ele>
        <time>2021-07-31T11:37:17Z</time>
      </trkpt>
      <trkpt lat="48.61982" lon="7.04365">
        <ele>398</ele>
        <time>2021-07-31T11:37:18Z</time>
      </trkpt>
      <trkpt lat="48.6198" lon="7.04371">
        <ele>398</ele>
        <time>2021-07-31T11:37:20Z</time>
      </trkpt>
      <trkpt lat="48.61978" lon="7.04375">
        <ele>398</ele>
        <time>2021-07-31T11:37:21Z</time>
      </trkpt>
      <trkpt lat="48.61978" lon="7.04376">
        <ele>398</ele>
        <time>2021-07-31T11:37:22Z</time>
      </trkpt>
      <trkpt lat="48.61976" lon="7.0438">
        <ele>398</ele>
        <time>2021-07-31T11:37:23Z</time>
      </trkpt>
      <trkpt lat="48.61976" lon="7.04381">
        <ele>398</ele>
        <time>2021-07-31T11:37:24Z</time>
      </trkpt>
      <trkpt lat="48.61974" lon="7.04383">
        <ele>398</ele>
        <time>2021-07-31T11:37:25Z</time>
      </trkpt>
      <trkpt lat="48.61972" lon="7.04387">
        <ele>398</ele>
        <time>2021-07-31T11:37:27Z</time>
      </trkpt>
      <trkpt lat="48.6197" lon="7.0439">
        <ele>398</ele>
        <time>2021-07-31T11:37:28Z</time>
      </trkpt>
      <trkpt lat="48.61968" lon="7.04395">
        <ele>398</ele>
        <time>2021-07-31T11:37:30Z</time>
      </trkpt>
      <trkpt lat="48.61967" lon="7.04397">
        <ele>398</ele>
        <time>2021-07-31T11:37:31Z</time>
      </trkpt>
      <trkpt lat="48.61965" lon="7.04401">
        <ele>398.1</ele>
        <time>2021-07-31T11:37:33Z</time>
      </trkpt>
      <trkpt lat="48.61964" lon="7.04405">
        <ele>398.1</ele>
        <time>2021-07-31T11:37:34Z</time>
      </trkpt>
      <trkpt lat="48.61964" lon="7.04406">
        <ele>398.1</ele>
        <time>2021-07-31T11:37:35Z</time>
      </trkpt>
      <trkpt lat="48.61963" lon="7.0441">
        <ele>398.1</ele>
        <time>2021-07-31T11:37:36Z</time>
      </trkpt>
      <trkpt lat="48.61962" lon="7.04412">
        <ele>398.1</ele>
        <time>2021-07-31T11:37:37Z</time>
      </trkpt>
      <trkpt lat="48.61961" lon="7.04414">
        <ele>398.1</ele>
        <time>2021-07-31T11:37:38Z</time>
      </trkpt>
      <trkpt lat="48.6196" lon="7.04419">
        <ele>398.2</ele>
        <time>2021-07-31T11:37:40Z</time>
      </trkpt>
      <trkpt lat="48.61959" lon="7.04425">
        <ele>398.3</ele>
        <time>2021-07-31T11:37:42Z</time>
      </trkpt>
      <trkpt lat="48.61957" lon="7.0443">
        <ele>398.4</ele>
        <time>2021-07-31T11:37:44Z</time>
      </trkpt>
      <trkpt lat="48.61957" lon="7.04431">
        <ele>398.4</ele>
        <time>2021-07-31T11:37:45Z</time>
      </trkpt>
      <trkpt lat="48.61954" lon="7.04434">
        <ele>398.5</ele>
        <time>2021-07-31T11:37:46Z</time>
      </trkpt>
      <trkpt lat="48.61953" lon="7.04435">
        <ele>398.5</ele>
        <time>2021-07-31T11:37:47Z</time>
      </trkpt>
      <trkpt lat="48.61951" lon="7.04436">
        <ele>398.6</ele>
        <time>2021-07-31T11:37:48Z</time>
      </trkpt>
      <trkpt lat="48.61947" lon="7.04439">
        <ele>398.7</ele>
        <time>2021-07-31T11:37:50Z</time>
      </trkpt>
      <trkpt lat="48.61944" lon="7.04444">
        <ele>398.9</ele>
        <time>2021-07-31T11:37:52Z</time>
      </trkpt>
      <trkpt lat="48.6194" lon="7.04448">
        <ele>399</ele>
        <time>2021-07-31T11:37:54Z</time>
      </trkpt>
      <trkpt lat="48.61938" lon="7.04449">
        <ele>399</ele>
        <time>2021-07-31T11:37:56Z</time>
      </trkpt>
      <trkpt lat="48.61937" lon="7.0445">
        <ele>399.1</ele>
        <time>2021-07-31T11:37:57Z</time>
      </trkpt>
      <trkpt lat="48.61935" lon="7.04451">
        <ele>399.1</ele>
        <time>2021-07-31T11:37:58Z</time>
      </trkpt>
      <trkpt lat="48.61934" lon="7.04452">
        <ele>399.2</ele>
        <time>2021-07-31T11:37:59Z</time>
      </trkpt>
      <trkpt lat="48.61932" lon="7.04453">
        <ele>399.2</ele>
        <time>2021-07-31T11:38:00Z</time>
      </trkpt>
      <trkpt lat="48.61931" lon="7.04455">
        <ele>399.2</ele>
        <time>2021-07-31T11:38:01Z</time>
      </trkpt>
      <trkpt lat="48.61927" lon="7.04457">
        <ele>399.3</ele>
        <time>2021-07-31T11:38:03Z</time>
      </trkpt>
      <trkpt lat="48.61925" lon="7.04459">
        <ele>399.3</ele>
        <time>2021-07-31T11:38:04Z</time>
      </trkpt>
      <trkpt lat="48.61922" lon="7.04462">
        <ele>399.4</ele>
        <time>2021-07-31T11:38:05Z</time>
      </trkpt>
      <trkpt lat="48.61921" lon="7.04462">
        <ele>399.4</ele>
        <time>2021-07-31T11:38:06Z</time>
      </trkpt>
      <trkpt lat="48.61917" lon="7.04465">
        <ele>399.3</ele>
        <time>2021-07-31T11:38:08Z</time>
      </trkpt>
      <trkpt lat="48.61916" lon="7.04468">
        <ele>399.3</ele>
        <time>2021-07-31T11:38:09Z</time>
      </trkpt>
      <trkpt lat="48.61913" lon="7.0447">
        <ele>399.3</ele>
        <time>2021-07-31T11:38:11Z</time>
      </trkpt>
      <trkpt lat="48.61911" lon="7.04472">
        <ele>399.2</ele>
        <time>2021-07-31T11:38:12Z</time>
      </trkpt>
      <trkpt lat="48.61909" lon="7.04473">
        <ele>399.2</ele>
        <time>2021-07-31T11:38:14Z</time>
      </trkpt>
      <trkpt lat="48.61905" lon="7.04475">
        <ele>399.1</ele>
        <time>2021-07-31T11:38:15Z</time>
      </trkpt>
      <trkpt lat="48.61904" lon="7.04475">
        <ele>399</ele>
        <time>2021-07-31T11:38:16Z</time>
      </trkpt>
      <trkpt lat="48.61899" lon="7.04479">
        <ele>398.9</ele>
        <time>2021-07-31T11:38:18Z</time>
      </trkpt>
      <trkpt lat="48.61897" lon="7.04482">
        <ele>398.8</ele>
        <time>2021-07-31T11:38:19Z</time>
      </trkpt>
      <trkpt lat="48.61895" lon="7.04484">
        <ele>398.7</ele>
        <time>2021-07-31T11:38:20Z</time>
      </trkpt>
      <trkpt lat="48.61889" lon="7.04489">
        <ele>398.5</ele>
        <time>2021-07-31T11:38:22Z</time>
      </trkpt>
      <trkpt lat="48.61885" lon="7.04492">
        <ele>398.1</ele>
        <time>2021-07-31T11:38:23Z</time>
      </trkpt>
      <trkpt lat="48.61879" lon="7.04499">
        <ele>397.2</ele>
        <time>2021-07-31T11:38:24Z</time>
      </trkpt>
      <trkpt lat="48.61869" lon="7.04509">
        <ele>395.7</ele>
        <time>2021-07-31T11:38:26Z</time>
      </trkpt>
      <trkpt lat="48.61864" lon="7.04515">
        <ele>395.1</ele>
        <time>2021-07-31T11:38:27Z</time>
      </trkpt>
      <trkpt lat="48.61859" lon="7.0452">
        <ele>394.8</ele>
        <time>2021-07-31T11:38:28Z</time>
      </trkpt>
      <trkpt lat="48.61847" lon="7.04532">
        <ele>393.9</ele>
        <time>2021-07-31T11:38:30Z</time>
      </trkpt>
      <trkpt lat="48.61835" lon="7.04543">
        <ele>393.2</ele>
        <time>2021-07-31T11:38:32Z</time>
      </trkpt>
      <trkpt lat="48.61829" lon="7.04549">
        <ele>392.9</ele>
        <time>2021-07-31T11:38:33Z</time>
      </trkpt>
      <trkpt lat="48.61825" lon="7.04554">
        <ele>392.6</ele>
        <time>2021-07-31T11:38:34Z</time>
      </trkpt>
      <trkpt lat="48.61818" lon="7.0456">
        <ele>391.9</ele>
        <time>2021-07-31T11:38:36Z</time>
      </trkpt>
      <trkpt lat="48.61812" lon="7.04566">
        <ele>391.1</ele>
        <time>2021-07-31T11:38:38Z</time>
      </trkpt>
      <trkpt lat="48.61806" lon="7.04572">
        <ele>390.5</ele>
        <time>2021-07-31T11:38:40Z</time>
      </trkpt>
      <trkpt lat="48.61803" lon="7.04574">
        <ele>390.3</ele>
        <time>2021-07-31T11:38:41Z</time>
      </trkpt>
      <trkpt lat="48.61801" lon="7.04579">
        <ele>390</ele>
        <time>2021-07-31T11:38:42Z</time>
      </trkpt>
      <trkpt lat="48.61796" lon="7.04589">
        <ele>389.5</ele>
        <time>2021-07-31T11:38:44Z</time>
      </trkpt>
      <trkpt lat="48.61793" lon="7.04591">
        <ele>389.2</ele>
        <time>2021-07-31T11:38:45Z</time>
      </trkpt>
      <trkpt lat="48.61789" lon="7.04597">
        <ele>388.8</ele>
        <time>2021-07-31T11:38:47Z</time>
      </trkpt>
      <trkpt lat="48.61786" lon="7.04604">
        <ele>388.5</ele>
        <time>2021-07-31T11:38:48Z</time>
      </trkpt>
      <trkpt lat="48.61784" lon="7.0461">
        <ele>388.2</ele>
        <time>2021-07-31T11:38:49Z</time>
      </trkpt>
      <trkpt lat="48.6178" lon="7.04616">
        <ele>387.8</ele>
        <time>2021-07-31T11:38:51Z</time>
      </trkpt>
      <trkpt lat="48.61776" lon="7.04623">
        <ele>387.3</ele>
        <time>2021-07-31T11:38:52Z</time>
      </trkpt>
      <trkpt lat="48.61772" lon="7.04629">
        <ele>386.8</ele>
        <time>2021-07-31T11:38:53Z</time>
      </trkpt>
      <trkpt lat="48.61769" lon="7.04635">
        <ele>386.3</ele>
        <time>2021-07-31T11:38:54Z</time>
      </trkpt>
      <trkpt lat="48.61764" lon="7.04642">
        <ele>385.8</ele>
        <time>2021-07-31T11:38:56Z</time>
      </trkpt>
      <trkpt lat="48.61759" lon="7.04647">
        <ele>385.2</ele>
        <time>2021-07-31T11:38:57Z</time>
      </trkpt>
      <trkpt lat="48.61752" lon="7.04656">
        <ele>384.3</ele>
        <time>2021-07-31T11:38:58Z</time>
      </trkpt>
      <trkpt lat="48.61743" lon="7.04666">
        <ele>383.3</ele>
        <time>2021-07-31T11:39:00Z</time>
      </trkpt>
      <trkpt lat="48.61733" lon="7.04678">
        <ele>382</ele>
        <time>2021-07-31T11:39:02Z</time>
      </trkpt>
      <trkpt lat="48.61725" lon="7.04688">
        <ele>380.7</ele>
        <time>2021-07-31T11:39:04Z</time>
      </trkpt>
      <trkpt lat="48.61715" lon="7.04698">
        <ele>379.5</ele>
        <time>2021-07-31T11:39:06Z</time>
      </trkpt>
      <trkpt lat="48.61711" lon="7.04703">
        <ele>379.2</ele>
        <time>2021-07-31T11:39:07Z</time>
      </trkpt>
      <trkpt lat="48.61708" lon="7.04707">
        <ele>378.9</ele>
        <time>2021-07-31T11:39:08Z</time>
      </trkpt>
      <trkpt lat="48.61704" lon="7.04712">
        <ele>378.6</ele>
        <time>2021-07-31T11:39:10Z</time>
      </trkpt>
      <trkpt lat="48.617" lon="7.04715">
        <ele>378.3</ele>
        <time>2021-07-31T11:39:11Z</time>
      </trkpt>
      <trkpt lat="48.61699" lon="7.04716">
        <ele>378.2</ele>
        <time>2021-07-31T11:39:12Z</time>
      </trkpt>
      <trkpt lat="48.61697" lon="7.04718">
        <ele>378</ele>
        <time>2021-07-31T11:39:14Z</time>
      </trkpt>
      <trkpt lat="48.61696" lon="7.04718">
        <ele>378</ele>
        <time>2021-07-31T11:39:15Z</time>
      </trkpt>
      <trkpt lat="48.61694" lon="7.04725">
        <ele>377.7</ele>
        <time>2021-07-31T11:39:16Z</time>
      </trkpt>
      <trkpt lat="48.61693" lon="7.04731">
        <ele>377.5</ele>
        <time>2021-07-31T11:39:18Z</time>
      </trkpt>
      <trkpt lat="48.61691" lon="7.04738">
        <ele>377.3</ele>
        <time>2021-07-31T11:39:20Z</time>
      </trkpt>
      <trkpt lat="48.6169" lon="7.04744">
        <ele>377.1</ele>
        <time>2021-07-31T11:39:22Z</time>
      </trkpt>
      <trkpt lat="48.61689" lon="7.04751">
        <ele>376.8</ele>
        <time>2021-07-31T11:39:23Z</time>
      </trkpt>
      <trkpt lat="48.61688" lon="7.04757">
        <ele>376.6</ele>
        <time>2021-07-31T11:39:25Z</time>
      </trkpt>
      <trkpt lat="48.61686" lon="7.04764">
        <ele>376.3</ele>
        <time>2021-07-31T11:41:32Z</time>
      </trkpt>
      <trkpt lat="48.61685" lon="7.0477">
        <ele>376.1</ele>
        <time>2021-07-31T11:41:33Z</time>
      </trkpt>
      <trkpt lat="48.61684" lon="7.04779">
        <ele>375.7</ele>
        <time>2021-07-31T11:41:34Z</time>
      </trkpt>
      <trkpt lat="48.61684" lon="7.04793">
        <ele>375.2</ele>
        <time>2021-07-31T11:41:36Z</time>
      </trkpt>
      <trkpt lat="48.61684" lon="7.04806">
        <ele>374.8</ele>
        <time>2021-07-31T11:41:38Z</time>
      </trkpt>
      <trkpt lat="48.61684" lon="7.04813">
        <ele>374.6</ele>
        <time>2021-07-31T11:41:39Z</time>
      </trkpt>
      <trkpt lat="48.61684" lon="7.04822">
        <ele>374.3</ele>
        <time>2021-07-31T11:41:40Z</time>
      </trkpt>
      <trkpt lat="48.61685" lon="7.04831">
        <ele>374</ele>
        <time>2021-07-31T11:41:41Z</time>
      </trkpt>
      <trkpt lat="48.61684" lon="7.04839">
        <ele>373.8</ele>
        <time>2021-07-31T11:41:42Z</time>
      </trkpt>
      <trkpt lat="48.61682" lon="7.04853">
        <ele>373.4</ele>
        <time>2021-07-31T11:41:44Z</time>
      </trkpt>
      <trkpt lat="48.6168" lon="7.04866">
        <ele>373</ele>
        <time>2021-07-31T11:41:46Z</time>
      </trkpt>
      <trkpt lat="48.6168" lon="7.04879">
        <ele>372.4</ele>
        <time>2021-07-31T11:41:48Z</time>
      </trkpt>
      <trkpt lat="48.61682" lon="7.04894">
        <ele>371.8</ele>
        <time>2021-07-31T11:41:50Z</time>
      </trkpt>
      <trkpt lat="48.61684" lon="7.04902">
        <ele>371.5</ele>
        <time>2021-07-31T11:41:51Z</time>
      </trkpt>
      <trkpt lat="48.61686" lon="7.0491">
        <ele>371.1</ele>
        <time>2021-07-31T11:41:52Z</time>
      </trkpt>
      <trkpt lat="48.61688" lon="7.04918">
        <ele>370.8</ele>
        <time>2021-07-31T11:41:53Z</time>
      </trkpt>
      <trkpt lat="48.6169" lon="7.04927">
        <ele>370.5</ele>
        <time>2021-07-31T11:41:54Z</time>
      </trkpt>
      <trkpt lat="48.61693" lon="7.04935">
        <ele>370.3</ele>
        <time>2021-07-31T11:41:55Z</time>
      </trkpt>
      <trkpt lat="48.61702" lon="7.04951">
        <ele>369.9</ele>
        <time>2021-07-31T11:41:57Z</time>
      </trkpt>
      <trkpt lat="48.61707" lon="7.04958">
        <ele>369.8</ele>
        <time>2021-07-31T11:41:58Z</time>
      </trkpt>
      <trkpt lat="48.61717" lon="7.04968">
        <ele>369.5</ele>
        <time>2021-07-31T11:42:00Z</time>
      </trkpt>
      <trkpt lat="48.61725" lon="7.04976">
        <ele>369.4</ele>
        <time>2021-07-31T11:42:02Z</time>
      </trkpt>
      <trkpt lat="48.61728" lon="7.04982">
        <ele>369.4</ele>
        <time>2021-07-31T11:42:03Z</time>
      </trkpt>
      <trkpt lat="48.61729" lon="7.04986">
        <ele>369.4</ele>
        <time>2021-07-31T11:42:04Z</time>
      </trkpt>
      <trkpt lat="48.61731" lon="7.04998">
        <ele>369.3</ele>
        <time>2021-07-31T11:42:06Z</time>
      </trkpt>
      <trkpt lat="48.61729" lon="7.05011">
        <ele>369.2</ele>
        <time>2021-07-31T11:42:08Z</time>
      </trkpt>
      <trkpt lat="48.61722" lon="7.05026">
        <ele>368.7</ele>
        <time>2021-07-31T11:42:10Z</time>
      </trkpt>
      <trkpt lat="48.6172" lon="7.05032">
        <ele>368.6</ele>
        <time>2021-07-31T11:42:11Z</time>
      </trkpt>
      <trkpt lat="48.61716" lon="7.05039">
        <ele>368.3</ele>
        <time>2021-07-31T11:42:13Z</time>
      </trkpt>
      <trkpt lat="48.61712" lon="7.05044">
        <ele>368.1</ele>
        <time>2021-07-31T11:42:14Z</time>
      </trkpt>
      <trkpt lat="48.61708" lon="7.05048">
        <ele>367.9</ele>
        <time>2021-07-31T11:42:15Z</time>
      </trkpt>
      <trkpt lat="48.61705" lon="7.05053">
        <ele>367.7</ele>
        <time>2021-07-31T11:42:16Z</time>
      </trkpt>
      <trkpt lat="48.617" lon="7.0506">
        <ele>367.4</ele>
        <time>2021-07-31T11:42:18Z</time>
      </trkpt>
      <trkpt lat="48.61693" lon="7.0507">
        <ele>367</ele>
        <time>2021-07-31T11:42:19Z</time>
      </trkpt>
      <trkpt lat="48.61689" lon="7.05077">
        <ele>366.8</ele>
        <time>2021-07-31T11:42:20Z</time>
      </trkpt>
      <trkpt lat="48.61685" lon="7.05084">
        <ele>366.6</ele>
        <time>2021-07-31T11:42:21Z</time>
      </trkpt>
      <trkpt lat="48.61682" lon="7.0509">
        <ele>366.4</ele>
        <time>2021-07-31T11:42:22Z</time>
      </trkpt>
      <trkpt lat="48.61675" lon="7.051">
        <ele>366</ele>
        <time>2021-07-31T11:42:24Z</time>
      </trkpt>
      <trkpt lat="48.61666" lon="7.05122">
        <ele>365.4</ele>
        <time>2021-07-31T11:42:26Z</time>
      </trkpt>
      <trkpt lat="48.61663" lon="7.05132">
        <ele>365.1</ele>
        <time>2021-07-31T11:42:27Z</time>
      </trkpt>
      <trkpt lat="48.61659" lon="7.05141">
        <ele>364.8</ele>
        <time>2021-07-31T11:42:28Z</time>
      </trkpt>
      <trkpt lat="48.61651" lon="7.05158">
        <ele>364.3</ele>
        <time>2021-07-31T11:42:30Z</time>
      </trkpt>
      <trkpt lat="48.61645" lon="7.05175">
        <ele>363.8</ele>
        <time>2021-07-31T11:42:32Z</time>
      </trkpt>
      <trkpt lat="48.61642" lon="7.05183">
        <ele>363.6</ele>
        <time>2021-07-31T11:42:33Z</time>
      </trkpt>
      <trkpt lat="48.61639" lon="7.0519">
        <ele>363.4</ele>
        <time>2021-07-31T11:42:34Z</time>
      </trkpt>
      <trkpt lat="48.61634" lon="7.05204">
        <ele>363</ele>
        <time>2021-07-31T11:42:36Z</time>
      </trkpt>
      <trkpt lat="48.6163" lon="7.05216">
        <ele>362.8</ele>
        <time>2021-07-31T11:42:38Z</time>
      </trkpt>
      <trkpt lat="48.61627" lon="7.05231">
        <ele>362.7</ele>
        <time>2021-07-31T11:42:40Z</time>
      </trkpt>
      <trkpt lat="48.61621" lon="7.05246">
        <ele>362.5</ele>
        <time>2021-07-31T11:42:42Z</time>
      </trkpt>
      <trkpt lat="48.61613" lon="7.05258">
        <ele>362.3</ele>
        <time>2021-07-31T11:42:44Z</time>
      </trkpt>
      <trkpt lat="48.61609" lon="7.05264">
        <ele>362.2</ele>
        <time>2021-07-31T11:42:45Z</time>
      </trkpt>
      <trkpt lat="48.61604" lon="7.05278">
        <ele>362.1</ele>
        <time>2021-07-31T11:42:47Z</time>
      </trkpt>
      <trkpt lat="48.61602" lon="7.05285">
        <ele>362.1</ele>
        <time>2021-07-31T11:42:48Z</time>
      </trkpt>
      <trkpt lat="48.61599" lon="7.05301">
        <ele>361.9</ele>
        <time>2021-07-31T11:42:50Z</time>
      </trkpt>
      <trkpt lat="48.61597" lon="7.05309">
        <ele>361.8</ele>
        <time>2021-07-31T11:42:51Z</time>
      </trkpt>
      <trkpt lat="48.61595" lon="7.05317">
        <ele>361.6</ele>
        <time>2021-07-31T11:42:52Z</time>
      </trkpt>
      <trkpt lat="48.6159" lon="7.05334">
        <ele>361.5</ele>
        <time>2021-07-31T11:42:54Z</time>
      </trkpt>
      <trkpt lat="48.61586" lon="7.0535">
        <ele>361.4</ele>
        <time>2021-07-31T11:42:56Z</time>
      </trkpt>
      <trkpt lat="48.61584" lon="7.05358">
        <ele>361.3</ele>
        <time>2021-07-31T11:42:57Z</time>
      </trkpt>
      <trkpt lat="48.61582" lon="7.05366">
        <ele>361.2</ele>
        <time>2021-07-31T11:42:58Z</time>
      </trkpt>
      <trkpt lat="48.6158" lon="7.05378">
        <ele>361.1</ele>
        <time>2021-07-31T11:43:00Z</time>
      </trkpt>
      <trkpt lat="48.61578" lon="7.05391">
        <ele>361.1</ele>
        <time>2021-07-31T11:43:02Z</time>
      </trkpt>
      <trkpt lat="48.61577" lon="7.05398">
        <ele>361.1</ele>
        <time>2021-07-31T11:43:03Z</time>
      </trkpt>
      <trkpt lat="48.61576" lon="7.05406">
        <ele>361.1</ele>
        <time>2021-07-31T11:43:04Z</time>
      </trkpt>
      <trkpt lat="48.61569" lon="7.05423">
        <ele>361.1</ele>
        <time>2021-07-31T11:43:06Z</time>
      </trkpt>
      <trkpt lat="48.61566" lon="7.05425">
        <ele>361.1</ele>
        <time>2021-07-31T11:43:07Z</time>
      </trkpt>
      <trkpt lat="48.61567" lon="7.05431">
        <ele>361.2</ele>
        <time>2021-07-31T11:43:08Z</time>
      </trkpt>
      <trkpt lat="48.61566" lon="7.05438">
        <ele>361.3</ele>
        <time>2021-07-31T11:43:09Z</time>
      </trkpt>
      <trkpt lat="48.61565" lon="7.05445">
        <ele>361.5</ele>
        <time>2021-07-31T11:43:11Z</time>
      </trkpt>
      <trkpt lat="48.61562" lon="7.05451">
        <ele>361.9</ele>
        <time>2021-07-31T11:43:12Z</time>
      </trkpt>
      <trkpt lat="48.61559" lon="7.05456">
        <ele>361.8</ele>
        <time>2021-07-31T11:43:13Z</time>
      </trkpt>
      <trkpt lat="48.61556" lon="7.05459">
        <ele>361.8</ele>
        <time>2021-07-31T11:43:14Z</time>
      </trkpt>
      <trkpt lat="48.61552" lon="7.05462">
        <ele>361.8</ele>
        <time>2021-07-31T11:43:15Z</time>
      </trkpt>
      <trkpt lat="48.61548" lon="7.05466">
        <ele>361.7</ele>
        <time>2021-07-31T11:43:16Z</time>
      </trkpt>
      <trkpt lat="48.61545" lon="7.05469">
        <ele>361.7</ele>
        <time>2021-07-31T11:43:17Z</time>
      </trkpt>
      <trkpt lat="48.61541" lon="7.05472">
        <ele>361.7</ele>
        <time>2021-07-31T11:43:18Z</time>
      </trkpt>
      <trkpt lat="48.61538" lon="7.05476">
        <ele>361.6</ele>
        <time>2021-07-31T11:43:19Z</time>
      </trkpt>
      <trkpt lat="48.61534" lon="7.05479">
        <ele>361.6</ele>
        <time>2021-07-31T11:43:20Z</time>
      </trkpt>
      <trkpt lat="48.61528" lon="7.05482">
        <ele>361.6</ele>
        <time>2021-07-31T11:43:21Z</time>
      </trkpt>
      <trkpt lat="48.61525" lon="7.05484">
        <ele>361.5</ele>
        <time>2021-07-31T11:43:22Z</time>
      </trkpt>
      <trkpt lat="48.6152" lon="7.05488">
        <ele>361.5</ele>
        <time>2021-07-31T11:43:24Z</time>
      </trkpt>
      <trkpt lat="48.61516" lon="7.05491">
        <ele>361.5</ele>
        <time>2021-07-31T11:43:25Z</time>
      </trkpt>
      <trkpt lat="48.61513" lon="7.05493">
        <ele>361.6</ele>
        <time>2021-07-31T11:43:26Z</time>
      </trkpt>
      <trkpt lat="48.61508" lon="7.05495">
        <ele>361.6</ele>
        <time>2021-07-31T11:43:28Z</time>
      </trkpt>
      <trkpt lat="48.615" lon="7.05496">
        <ele>361.6</ele>
        <time>2021-07-31T11:43:30Z</time>
      </trkpt>
      <trkpt lat="48.61493" lon="7.05498">
        <ele>361.6</ele>
        <time>2021-07-31T11:43:32Z</time>
      </trkpt>
      <trkpt lat="48.61487" lon="7.05503">
        <ele>361.7</ele>
        <time>2021-07-31T11:43:34Z</time>
      </trkpt>
      <trkpt lat="48.61483" lon="7.05507">
        <ele>361.7</ele>
        <time>2021-07-31T11:43:35Z</time>
      </trkpt>
      <trkpt lat="48.61481" lon="7.05509">
        <ele>361.7</ele>
        <time>2021-07-31T11:43:36Z</time>
      </trkpt>
      <trkpt lat="48.61477" lon="7.05511">
        <ele>361.8</ele>
        <time>2021-07-31T11:43:37Z</time>
      </trkpt>
      <trkpt lat="48.61475" lon="7.05513">
        <ele>361.8</ele>
        <time>2021-07-31T11:43:39Z</time>
      </trkpt>
      <trkpt lat="48.61471" lon="7.05516">
        <ele>361.8</ele>
        <time>2021-07-31T11:43:40Z</time>
      </trkpt>
      <trkpt lat="48.61468" lon="7.05518">
        <ele>361.8</ele>
        <time>2021-07-31T11:43:41Z</time>
      </trkpt>
      <trkpt lat="48.61466" lon="7.05521">
        <ele>361.9</ele>
        <time>2021-07-31T11:43:42Z</time>
      </trkpt>
      <trkpt lat="48.61464" lon="7.05522">
        <ele>361.9</ele>
        <time>2021-07-31T11:43:43Z</time>
      </trkpt>
      <trkpt lat="48.6146" lon="7.05526">
        <ele>361.9</ele>
        <time>2021-07-31T11:43:45Z</time>
      </trkpt>
      <trkpt lat="48.61456" lon="7.05528">
        <ele>362</ele>
        <time>2021-07-31T11:43:47Z</time>
      </trkpt>
      <trkpt lat="48.61453" lon="7.0553">
        <ele>362</ele>
        <time>2021-07-31T11:43:48Z</time>
      </trkpt>
      <trkpt lat="48.61449" lon="7.05533">
        <ele>362</ele>
        <time>2021-07-31T11:43:49Z</time>
      </trkpt>
      <trkpt lat="48.61445" lon="7.05536">
        <ele>362.1</ele>
        <time>2021-07-31T11:43:50Z</time>
      </trkpt>
      <trkpt lat="48.61441" lon="7.05538">
        <ele>362.1</ele>
        <time>2021-07-31T11:43:51Z</time>
      </trkpt>
      <trkpt lat="48.61436" lon="7.0554">
        <ele>362.2</ele>
        <time>2021-07-31T11:43:52Z</time>
      </trkpt>
      <trkpt lat="48.61432" lon="7.05541">
        <ele>362.3</ele>
        <time>2021-07-31T11:43:53Z</time>
      </trkpt>
      <trkpt lat="48.61427" lon="7.05543">
        <ele>362.3</ele>
        <time>2021-07-31T11:43:54Z</time>
      </trkpt>
      <trkpt lat="48.61423" lon="7.05545">
        <ele>362.4</ele>
        <time>2021-07-31T11:43:55Z</time>
      </trkpt>
      <trkpt lat="48.61417" lon="7.05548">
        <ele>362.5</ele>
        <time>2021-07-31T11:43:57Z</time>
      </trkpt>
      <trkpt lat="48.61412" lon="7.05551">
        <ele>362.5</ele>
        <time>2021-07-31T11:43:58Z</time>
      </trkpt>
      <trkpt lat="48.61408" lon="7.05553">
        <ele>362.6</ele>
        <time>2021-07-31T11:43:59Z</time>
      </trkpt>
      <trkpt lat="48.61404" lon="7.05555">
        <ele>362.6</ele>
        <time>2021-07-31T11:44:00Z</time>
      </trkpt>
      <trkpt lat="48.61398" lon="7.05558">
        <ele>362.7</ele>
        <time>2021-07-31T11:44:02Z</time>
      </trkpt>
      <trkpt lat="48.61394" lon="7.05559">
        <ele>362.7</ele>
        <time>2021-07-31T11:44:03Z</time>
      </trkpt>
      <trkpt lat="48.61391" lon="7.05561">
        <ele>362.8</ele>
        <time>2021-07-31T11:44:04Z</time>
      </trkpt>
      <trkpt lat="48.61387" lon="7.05564">
        <ele>362.8</ele>
        <time>2021-07-31T11:44:06Z</time>
      </trkpt>
      <trkpt lat="48.61383" lon="7.05566">
        <ele>362.8</ele>
        <time>2021-07-31T11:44:07Z</time>
      </trkpt>
      <trkpt lat="48.61378" lon="7.05571">
        <ele>362.9</ele>
        <time>2021-07-31T11:44:09Z</time>
      </trkpt>
      <trkpt lat="48.61375" lon="7.05575">
        <ele>362.9</ele>
        <time>2021-07-31T11:44:10Z</time>
      </trkpt>
      <trkpt lat="48.61372" lon="7.05579">
        <ele>362.9</ele>
        <time>2021-07-31T11:44:11Z</time>
      </trkpt>
      <trkpt lat="48.61369" lon="7.05581">
        <ele>362.9</ele>
        <time>2021-07-31T11:44:12Z</time>
      </trkpt>
      <trkpt lat="48.61366" lon="7.05583">
        <ele>362.9</ele>
        <time>2021-07-31T11:44:13Z</time>
      </trkpt>
      <trkpt lat="48.61362" lon="7.05584">
        <ele>363</ele>
        <time>2021-07-31T11:44:15Z</time>
      </trkpt>
      <trkpt lat="48.61359" lon="7.05585">
        <ele>363</ele>
        <time>2021-07-31T11:44:16Z</time>
      </trkpt>
      <trkpt lat="48.61355" lon="7.05587">
        <ele>363</ele>
        <time>2021-07-31T11:44:17Z</time>
      </trkpt>
      <trkpt lat="48.61353" lon="7.05588">
        <ele>363</ele>
        <time>2021-07-31T11:44:18Z</time>
      </trkpt>
      <trkpt lat="48.61351" lon="7.05588">
        <ele>363</ele>
        <time>2021-07-31T11:44:20Z</time>
      </trkpt>
      <trkpt lat="48.61351" lon="7.05589">
        <ele>363</ele>
        <time>2021-07-31T11:44:22Z</time>
      </trkpt>
      <trkpt lat="48.61351" lon="7.0559">
        <ele>363</ele>
        <time>2021-07-31T11:44:23Z</time>
      </trkpt>
      <trkpt lat="48.61351" lon="7.0559">
        <ele>363</ele>
        <time>2021-07-31T11:44:24Z</time>
      </trkpt>
      <trkpt lat="48.61351" lon="7.0559">
        <ele>363</ele>
        <time>2021-07-31T11:44:25Z</time>
      </trkpt>
      <trkpt lat="48.61352" lon="7.0559">
        <ele>363</ele>
        <time>2021-07-31T11:44:27Z</time>
      </trkpt>
      <trkpt lat="48.61354" lon="7.05591">
        <ele>363</ele>
        <time>2021-07-31T11:44:28Z</time>
      </trkpt>
      <trkpt lat="48.61357" lon="7.05594">
        <ele>363</ele>
        <time>2021-07-31T11:44:30Z</time>
      </trkpt>
      <trkpt lat="48.61358" lon="7.05595">
        <ele>362.9</ele>
        <time>2021-07-31T11:44:31Z</time>
      </trkpt>
      <trkpt lat="48.61362" lon="7.05599">
        <ele>362.9</ele>
        <time>2021-07-31T11:44:33Z</time>
      </trkpt>
      <trkpt lat="48.61366" lon="7.05602">
        <ele>362.9</ele>
        <time>2021-07-31T11:44:35Z</time>
      </trkpt>
      <trkpt lat="48.61369" lon="7.05606">
        <ele>362.8</ele>
        <time>2021-07-31T11:44:36Z</time>
      </trkpt>
      <trkpt lat="48.61369" lon="7.05607">
        <ele>362.8</ele>
        <time>2021-07-31T11:44:38Z</time>
      </trkpt>
      <trkpt lat="48.61369" lon="7.05606">
        <ele>362.8</ele>
        <time>2021-07-31T11:44:39Z</time>
      </trkpt>
      <trkpt lat="48.61368" lon="7.05605">
        <ele>362.8</ele>
        <time>2021-07-31T11:44:40Z</time>
      </trkpt>
      <trkpt lat="48.61368" lon="7.05604">
        <ele>362.8</ele>
        <time>2021-07-31T11:44:42Z</time>
      </trkpt>
      <trkpt lat="48.61367" lon="7.05603">
        <ele>362.8</ele>
        <time>2021-07-31T11:44:43Z</time>
      </trkpt>
      <trkpt lat="48.61367" lon="7.05602">
        <ele>362.8</ele>
        <time>2021-07-31T11:44:44Z</time>
      </trkpt>
      <trkpt lat="48.61366" lon="7.05601">
        <ele>362.8</ele>
        <time>2021-07-31T11:44:45Z</time>
      </trkpt>
      <trkpt lat="48.61366" lon="7.056">
        <ele>362.8</ele>
        <time>2021-07-31T11:44:46Z</time>
      </trkpt>
      <trkpt lat="48.61365" lon="7.05599">
        <ele>362.8</ele>
        <time>2021-07-31T11:46:20Z</time>
      </trkpt>
      <trkpt lat="48.61365" lon="7.05598">
        <ele>362.8</ele>
        <time>2021-07-31T11:46:21Z</time>
      </trkpt>
      <trkpt lat="48.61361" lon="7.05595">
        <ele>362.7</ele>
        <time>2021-07-31T11:46:22Z</time>
      </trkpt>
      <trkpt lat="48.61356" lon="7.0559">
        <ele>362.7</ele>
        <time>2021-07-31T11:46:24Z</time>
      </trkpt>
      <trkpt lat="48.61352" lon="7.0559">
        <ele>362.3</ele>
        <time>2021-07-31T11:46:25Z</time>
      </trkpt>
      <trkpt lat="48.61349" lon="7.05592">
        <ele>361.9</ele>
        <time>2021-07-31T11:46:26Z</time>
      </trkpt>
      <trkpt lat="48.61347" lon="7.05596">
        <ele>361.5</ele>
        <time>2021-07-31T11:46:27Z</time>
      </trkpt>
      <trkpt lat="48.61347" lon="7.05597">
        <ele>361.4</ele>
        <time>2021-07-31T11:46:28Z</time>
      </trkpt>
      <trkpt lat="48.61346" lon="7.05601">
        <ele>360.9</ele>
        <time>2021-07-31T11:46:29Z</time>
      </trkpt>
      <trkpt lat="48.61346" lon="7.05603">
        <ele>360.8</ele>
        <time>2021-07-31T11:46:30Z</time>
      </trkpt>
      <trkpt lat="48.61345" lon="7.05609">
        <ele>360.3</ele>
        <time>2021-07-31T11:46:32Z</time>
      </trkpt>
      <trkpt lat="48.61345" lon="7.0561">
        <ele>360.1</ele>
        <time>2021-07-31T11:46:33Z</time>
      </trkpt>
      <trkpt lat="48.61345" lon="7.05612">
        <ele>359.9</ele>
        <time>2021-07-31T11:46:34Z</time>
      </trkpt>
      <trkpt lat="48.61343" lon="7.05614">
        <ele>359.7</ele>
        <time>2021-07-31T11:46:35Z</time>
      </trkpt>
      <trkpt lat="48.61342" lon="7.05618">
        <ele>359.3</ele>
        <time>2021-07-31T11:46:37Z</time>
      </trkpt>
      <trkpt lat="48.6134" lon="7.05622">
        <ele>358.9</ele>
        <time>2021-07-31T11:46:38Z</time>
      </trkpt>
      <trkpt lat="48.61339" lon="7.05623">
        <ele>358.7</ele>
        <time>2021-07-31T11:46:39Z</time>
      </trkpt>
      <trkpt lat="48.61335" lon="7.05624">
        <ele>358.1</ele>
        <time>2021-07-31T11:46:40Z</time>
      </trkpt>
      <trkpt lat="48.61334" lon="7.05624">
        <ele>358</ele>
        <time>2021-07-31T11:46:41Z</time>
      </trkpt>
      <trkpt lat="48.61328" lon="7.05627">
        <ele>357.1</ele>
        <time>2021-07-31T11:46:42Z</time>
      </trkpt>
      <trkpt lat="48.61322" lon="7.05629">
        <ele>356.2</ele>
        <time>2021-07-31T11:46:44Z</time>
      </trkpt>
      <trkpt lat="48.61317" lon="7.05627">
        <ele>355.3</ele>
        <time>2021-07-31T11:46:45Z</time>
      </trkpt>
      <trkpt lat="48.61311" lon="7.05633">
        <ele>354.1</ele>
        <time>2021-07-31T11:46:46Z</time>
      </trkpt>
      <trkpt lat="48.61306" lon="7.05637">
        <ele>353.1</ele>
        <time>2021-07-31T11:46:48Z</time>
      </trkpt>
      <trkpt lat="48.613" lon="7.05642">
        <ele>351.7</ele>
        <time>2021-07-31T11:46:49Z</time>
      </trkpt>
      <trkpt lat="48.61296" lon="7.05647">
        <ele>350.4</ele>
        <time>2021-07-31T11:46:51Z</time>
      </trkpt>
      <trkpt lat="48.61293" lon="7.05652">
        <ele>349.2</ele>
        <time>2021-07-31T11:46:52Z</time>
      </trkpt>
      <trkpt lat="48.6129" lon="7.05655">
        <ele>348.1</ele>
        <time>2021-07-31T11:46:54Z</time>
      </trkpt>
      <trkpt lat="48.61287" lon="7.05658">
        <ele>347.1</ele>
        <time>2021-07-31T11:46:55Z</time>
      </trkpt>
      <trkpt lat="48.61286" lon="7.05659">
        <ele>346.9</ele>
        <time>2021-07-31T11:46:56Z</time>
      </trkpt>
      <trkpt lat="48.61285" lon="7.05661">
        <ele>346.3</ele>
        <time>2021-07-31T11:46:57Z</time>
      </trkpt>
      <trkpt lat="48.61283" lon="7.05664">
        <ele>345.6</ele>
        <time>2021-07-31T11:46:59Z</time>
      </trkpt>
      <trkpt lat="48.61283" lon="7.05667">
        <ele>345</ele>
        <time>2021-07-31T11:47:00Z</time>
      </trkpt>
      <trkpt lat="48.61284" lon="7.05669">
        <ele>344.7</ele>
        <time>2021-07-31T11:47:02Z</time>
      </trkpt>
      <trkpt lat="48.61285" lon="7.0567">
        <ele>344.3</ele>
        <time>2021-07-31T11:47:03Z</time>
      </trkpt>
      <trkpt lat="48.61286" lon="7.05673">
        <ele>343.6</ele>
        <time>2021-07-31T11:47:04Z</time>
      </trkpt>
      <trkpt lat="48.61288" lon="7.05676">
        <ele>335.7</ele>
        <time>2021-07-31T11:47:06Z</time>
      </trkpt>
      <trkpt lat="48.61289" lon="7.05679">
        <ele>335.5</ele>
        <time>2021-07-31T11:47:07Z</time>
      </trkpt>
      <trkpt lat="48.61291" lon="7.05682">
        <ele>335.4</ele>
        <time>2021-07-31T11:47:09Z</time>
      </trkpt>
      <trkpt lat="48.61294" lon="7.05686">
        <ele>335.2</ele>
        <time>2021-07-31T11:47:10Z</time>
      </trkpt>
      <trkpt lat="48.61295" lon="7.05687">
        <ele>335.1</ele>
        <time>2021-07-31T11:47:11Z</time>
      </trkpt>
      <trkpt lat="48.61296" lon="7.0569">
        <ele>335</ele>
        <time>2021-07-31T11:47:12Z</time>
      </trkpt>
      <trkpt lat="48.61298" lon="7.05694">
        <ele>334.9</ele>
        <time>2021-07-31T11:47:14Z</time>
      </trkpt>
      <trkpt lat="48.61298" lon="7.05699">
        <ele>334.7</ele>
        <time>2021-07-31T11:47:15Z</time>
      </trkpt>
      <trkpt lat="48.61298" lon="7.057">
        <ele>334.6</ele>
        <time>2021-07-31T11:47:16Z</time>
      </trkpt>
      <trkpt lat="48.61298" lon="7.05702">
        <ele>334.5</ele>
        <time>2021-07-31T11:47:17Z</time>
      </trkpt>
      <trkpt lat="48.613" lon="7.05708">
        <ele>334.3</ele>
        <time>2021-07-31T11:47:19Z</time>
      </trkpt>
      <trkpt lat="48.61302" lon="7.05711">
        <ele>334.1</ele>
        <time>2021-07-31T11:47:20Z</time>
      </trkpt>
      <trkpt lat="48.61305" lon="7.05718">
        <ele>333.8</ele>
        <time>2021-07-31T11:47:21Z</time>
      </trkpt>
      <trkpt lat="48.61312" lon="7.05731">
        <ele>333</ele>
        <time>2021-07-31T11:47:23Z</time>
      </trkpt>
      <trkpt lat="48.61314" lon="7.05739">
        <ele>332.6</ele>
        <time>2021-07-31T11:47:24Z</time>
      </trkpt>
      <trkpt lat="48.61314" lon="7.05758">
        <ele>331.6</ele>
        <time>2021-07-31T11:47:26Z</time>
      </trkpt>
      <trkpt lat="48.61313" lon="7.0577">
        <ele>330.9</ele>
        <time>2021-07-31T11:47:27Z</time>
      </trkpt>
      <trkpt lat="48.61312" lon="7.05779">
        <ele>330.3</ele>
        <time>2021-07-31T11:47:28Z</time>
      </trkpt>
      <trkpt lat="48.6131" lon="7.05788">
        <ele>329.8</ele>
        <time>2021-07-31T11:47:29Z</time>
      </trkpt>
      <trkpt lat="48.61308" lon="7.05795">
        <ele>329.3</ele>
        <time>2021-07-31T11:47:30Z</time>
      </trkpt>
      <trkpt lat="48.61306" lon="7.0581">
        <ele>328.3</ele>
        <time>2021-07-31T11:47:32Z</time>
      </trkpt>
      <trkpt lat="48.61303" lon="7.05821">
        <ele>327.5</ele>
        <time>2021-07-31T11:47:34Z</time>
      </trkpt>
      <trkpt lat="48.613" lon="7.05827">
        <ele>326.9</ele>
        <time>2021-07-31T11:47:36Z</time>
      </trkpt>
      <trkpt lat="48.61296" lon="7.0583">
        <ele>326.5</ele>
        <time>2021-07-31T11:47:38Z</time>
      </trkpt>
      <trkpt lat="48.61293" lon="7.05835">
        <ele>326</ele>
        <time>2021-07-31T11:47:40Z</time>
      </trkpt>
      <trkpt lat="48.61293" lon="7.05841">
        <ele>325.6</ele>
        <time>2021-07-31T11:47:42Z</time>
      </trkpt>
      <trkpt lat="48.61293" lon="7.05844">
        <ele>325.4</ele>
        <time>2021-07-31T11:47:43Z</time>
      </trkpt>
      <trkpt lat="48.61293" lon="7.0585">
        <ele>324.9</ele>
        <time>2021-07-31T11:47:44Z</time>
      </trkpt>
      <trkpt lat="48.61291" lon="7.05861">
        <ele>324.1</ele>
        <time>2021-07-31T11:47:45Z</time>
      </trkpt>
      <trkpt lat="48.61289" lon="7.05878">
        <ele>322.9</ele>
        <time>2021-07-31T11:47:47Z</time>
      </trkpt>
      <trkpt lat="48.61289" lon="7.05886">
        <ele>322.2</ele>
        <time>2021-07-31T11:47:48Z</time>
      </trkpt>
      <trkpt lat="48.61287" lon="7.05904">
        <ele>321</ele>
        <time>2021-07-31T11:47:50Z</time>
      </trkpt>
      <trkpt lat="48.61286" lon="7.05912">
        <ele>320.5</ele>
        <time>2021-07-31T11:47:51Z</time>
      </trkpt>
      <trkpt lat="48.61283" lon="7.05921">
        <ele>319.9</ele>
        <time>2021-07-31T11:47:52Z</time>
      </trkpt>
      <trkpt lat="48.61278" lon="7.0594">
        <ele>318.6</ele>
        <time>2021-07-31T11:47:54Z</time>
      </trkpt>
      <trkpt lat="48.61273" lon="7.05958">
        <ele>317</ele>
        <time>2021-07-31T11:47:56Z</time>
      </trkpt>
      <trkpt lat="48.61272" lon="7.05966">
        <ele>316.5</ele>
        <time>2021-07-31T11:47:57Z</time>
      </trkpt>
      <trkpt lat="48.61271" lon="7.05974">
        <ele>316.1</ele>
        <time>2021-07-31T11:47:58Z</time>
      </trkpt>
      <trkpt lat="48.61267" lon="7.05992">
        <ele>315.2</ele>
        <time>2021-07-31T11:48:00Z</time>
      </trkpt>
      <trkpt lat="48.61263" lon="7.06001">
        <ele>314.7</ele>
        <time>2021-07-31T11:48:01Z</time>
      </trkpt>
      <trkpt lat="48.61253" lon="7.06022">
        <ele>313.9</ele>
        <time>2021-07-31T11:48:03Z</time>
      </trkpt>
      <trkpt lat="48.61249" lon="7.06031">
        <ele>313.7</ele>
        <time>2021-07-31T11:48:04Z</time>
      </trkpt>
      <trkpt lat="48.6124" lon="7.06048">
        <ele>313.2</ele>
        <time>2021-07-31T11:48:06Z</time>
      </trkpt>
      <trkpt lat="48.61232" lon="7.06066">
        <ele>312.9</ele>
        <time>2021-07-31T11:48:08Z</time>
      </trkpt>
      <trkpt lat="48.61226" lon="7.06074">
        <ele>312.7</ele>
        <time>2021-07-31T11:48:09Z</time>
      </trkpt>
      <trkpt lat="48.61218" lon="7.06083">
        <ele>312.3</ele>
        <time>2021-07-31T11:48:10Z</time>
      </trkpt>
      <trkpt lat="48.6121" lon="7.06093">
        <ele>312.1</ele>
        <time>2021-07-31T11:48:11Z</time>
      </trkpt>
      <trkpt lat="48.61204" lon="7.06102">
        <ele>311.8</ele>
        <time>2021-07-31T11:48:12Z</time>
      </trkpt>
      <trkpt lat="48.61196" lon="7.0612">
        <ele>311.5</ele>
        <time>2021-07-31T11:48:14Z</time>
      </trkpt>
      <trkpt lat="48.61193" lon="7.06128">
        <ele>311.5</ele>
        <time>2021-07-31T11:48:15Z</time>
      </trkpt>
      <trkpt lat="48.61191" lon="7.06136">
        <ele>311.4</ele>
        <time>2021-07-31T11:48:16Z</time>
      </trkpt>
      <trkpt lat="48.61189" lon="7.06144">
        <ele>311.3</ele>
        <time>2021-07-31T11:48:17Z</time>
      </trkpt>
      <trkpt lat="48.61187" lon="7.06152">
        <ele>311.3</ele>
        <time>2021-07-31T11:48:18Z</time>
      </trkpt>
      <trkpt lat="48.6118" lon="7.06167">
        <ele>311.1</ele>
        <time>2021-07-31T11:48:20Z</time>
      </trkpt>
      <trkpt lat="48.61174" lon="7.06179">
        <ele>311</ele>
        <time>2021-07-31T11:48:22Z</time>
      </trkpt>
      <trkpt lat="48.61171" lon="7.06186">
        <ele>311</ele>
        <time>2021-07-31T11:48:23Z</time>
      </trkpt>
      <trkpt lat="48.61167" lon="7.06193">
        <ele>310.9</ele>
        <time>2021-07-31T11:48:24Z</time>
      </trkpt>
      <trkpt lat="48.61163" lon="7.06199">
        <ele>310.9</ele>
        <time>2021-07-31T11:48:25Z</time>
      </trkpt>
      <trkpt lat="48.61158" lon="7.06206">
        <ele>310.8</ele>
        <time>2021-07-31T11:48:27Z</time>
      </trkpt>
      <trkpt lat="48.6115" lon="7.06216">
        <ele>310.8</ele>
        <time>2021-07-31T11:48:28Z</time>
      </trkpt>
      <trkpt lat="48.61144" lon="7.06222">
        <ele>310.7</ele>
        <time>2021-07-31T11:48:29Z</time>
      </trkpt>
      <trkpt lat="48.61139" lon="7.06228">
        <ele>310.7</ele>
        <time>2021-07-31T11:48:30Z</time>
      </trkpt>
      <trkpt lat="48.6113" lon="7.06238">
        <ele>310.7</ele>
        <time>2021-07-31T11:48:32Z</time>
      </trkpt>
      <trkpt lat="48.61121" lon="7.06248">
        <ele>310.7</ele>
        <time>2021-07-31T11:48:34Z</time>
      </trkpt>
      <trkpt lat="48.61114" lon="7.06259">
        <ele>310.8</ele>
        <time>2021-07-31T11:48:36Z</time>
      </trkpt>
      <trkpt lat="48.61105" lon="7.0627">
        <ele>310.9</ele>
        <time>2021-07-31T11:48:38Z</time>
      </trkpt>
      <trkpt lat="48.61101" lon="7.06275">
        <ele>310.9</ele>
        <time>2021-07-31T11:48:39Z</time>
      </trkpt>
      <trkpt lat="48.61092" lon="7.06286">
        <ele>311</ele>
        <time>2021-07-31T11:48:41Z</time>
      </trkpt>
      <trkpt lat="48.61088" lon="7.06292">
        <ele>311.1</ele>
        <time>2021-07-31T11:48:42Z</time>
      </trkpt>
      <trkpt lat="48.61081" lon="7.06301">
        <ele>311.2</ele>
        <time>2021-07-31T11:48:44Z</time>
      </trkpt>
      <trkpt lat="48.61077" lon="7.06309">
        <ele>311.2</ele>
        <time>2021-07-31T11:48:46Z</time>
      </trkpt>
      <trkpt lat="48.61073" lon="7.06314">
        <ele>311.2</ele>
        <time>2021-07-31T11:48:47Z</time>
      </trkpt>
      <trkpt lat="48.61071" lon="7.06318">
        <ele>311.2</ele>
        <time>2021-07-31T11:48:48Z</time>
      </trkpt>
      <trkpt lat="48.61065" lon="7.06327">
        <ele>311.2</ele>
        <time>2021-07-31T11:48:50Z</time>
      </trkpt>
      <trkpt lat="48.61059" lon="7.06334">
        <ele>311.1</ele>
        <time>2021-07-31T11:48:52Z</time>
      </trkpt>
      <trkpt lat="48.61056" lon="7.06338">
        <ele>311.1</ele>
        <time>2021-07-31T11:48:53Z</time>
      </trkpt>
      <trkpt lat="48.61053" lon="7.06342">
        <ele>311.1</ele>
        <time>2021-07-31T11:48:54Z</time>
      </trkpt>
      <trkpt lat="48.61049" lon="7.06346">
        <ele>311.1</ele>
        <time>2021-07-31T11:48:55Z</time>
      </trkpt>
      <trkpt lat="48.61045" lon="7.0635">
        <ele>311.1</ele>
        <time>2021-07-31T11:48:57Z</time>
      </trkpt>
      <trkpt lat="48.6104" lon="7.06355">
        <ele>311</ele>
        <time>2021-07-31T11:48:58Z</time>
      </trkpt>
      <trkpt lat="48.61035" lon="7.0636">
        <ele>310.9</ele>
        <time>2021-07-31T11:49:00Z</time>
      </trkpt>
      <trkpt lat="48.61028" lon="7.06363">
        <ele>310.7</ele>
        <time>2021-07-31T11:49:01Z</time>
      </trkpt>
      <trkpt lat="48.61023" lon="7.06365">
        <ele>310.5</ele>
        <time>2021-07-31T11:49:02Z</time>
      </trkpt>
      <trkpt lat="48.61014" lon="7.06371">
        <ele>310.2</ele>
        <time>2021-07-31T11:49:04Z</time>
      </trkpt>
      <trkpt lat="48.6101" lon="7.06375">
        <ele>310</ele>
        <time>2021-07-31T11:49:05Z</time>
      </trkpt>
      <trkpt lat="48.61006" lon="7.06379">
        <ele>309.9</ele>
        <time>2021-07-31T11:49:06Z</time>
      </trkpt>
      <trkpt lat="48.60999" lon="7.06386">
        <ele>309.6</ele>
        <time>2021-07-31T11:49:08Z</time>
      </trkpt>
      <trkpt lat="48.60995" lon="7.0639">
        <ele>309.4</ele>
        <time>2021-07-31T11:49:09Z</time>
      </trkpt>
      <trkpt lat="48.60986" lon="7.06398">
        <ele>309</ele>
        <time>2021-07-31T11:49:11Z</time>
      </trkpt>
      <trkpt lat="48.60982" lon="7.06404">
        <ele>308.8</ele>
        <time>2021-07-31T11:49:12Z</time>
      </trkpt>
      <trkpt lat="48.60972" lon="7.06412">
        <ele>309.3</ele>
        <time>2021-07-31T11:49:14Z</time>
      </trkpt>
      <trkpt lat="48.60962" lon="7.06417">
        <ele>310</ele>
        <time>2021-07-31T11:49:16Z</time>
      </trkpt>
      <trkpt lat="48.60954" lon="7.06422">
        <ele>310.5</ele>
        <time>2021-07-31T11:49:18Z</time>
      </trkpt>
      <trkpt lat="48.6095" lon="7.06426">
        <ele>310.9</ele>
        <time>2021-07-31T11:49:20Z</time>
      </trkpt>
      <trkpt lat="48.60946" lon="7.06431">
        <ele>311.3</ele>
        <time>2021-07-31T11:49:22Z</time>
      </trkpt>
      <trkpt lat="48.60943" lon="7.06432">
        <ele>311.6</ele>
        <time>2021-07-31T11:49:23Z</time>
      </trkpt>
      <trkpt lat="48.60939" lon="7.06434">
        <ele>311.9</ele>
        <time>2021-07-31T11:49:25Z</time>
      </trkpt>
      <trkpt lat="48.60936" lon="7.06435">
        <ele>312.1</ele>
        <time>2021-07-31T11:49:26Z</time>
      </trkpt>
      <trkpt lat="48.60933" lon="7.06436">
        <ele>312.3</ele>
        <time>2021-07-31T11:49:28Z</time>
      </trkpt>
      <trkpt lat="48.6093" lon="7.06436">
        <ele>312.5</ele>
        <time>2021-07-31T11:49:29Z</time>
      </trkpt>
      <trkpt lat="48.60927" lon="7.06437">
        <ele>312.8</ele>
        <time>2021-07-31T11:49:30Z</time>
      </trkpt>
      <trkpt lat="48.60925" lon="7.06439">
        <ele>312.8</ele>
        <time>2021-07-31T11:49:31Z</time>
      </trkpt>
      <trkpt lat="48.60922" lon="7.06442">
        <ele>312.9</ele>
        <time>2021-07-31T11:49:33Z</time>
      </trkpt>
      <trkpt lat="48.60921" lon="7.06444">
        <ele>312.9</ele>
        <time>2021-07-31T11:49:34Z</time>
      </trkpt>
      <trkpt lat="48.6092" lon="7.06449">
        <ele>312.9</ele>
        <time>2021-07-31T11:49:36Z</time>
      </trkpt>
      <trkpt lat="48.6092" lon="7.06449">
        <ele>313</ele>
        <time>2021-07-31T11:49:37Z</time>
      </trkpt>
      <trkpt lat="48.60921" lon="7.06449">
        <ele>312.9</ele>
        <time>2021-07-31T11:49:39Z</time>
      </trkpt>
      <trkpt lat="48.60921" lon="7.06449">
        <ele>312.9</ele>
        <time>2021-07-31T11:49:40Z</time>
      </trkpt>
      <trkpt lat="48.60921" lon="7.06449">
        <ele>312.9</ele>
        <time>2021-07-31T11:49:42Z</time>
      </trkpt>
      <trkpt lat="48.60921" lon="7.06449">
        <ele>312.9</ele>
        <time>2021-07-31T11:49:43Z</time>
      </trkpt>
      <trkpt lat="48.60921" lon="7.06449">
        <ele>312.9</ele>
        <time>2021-07-31T11:49:44Z</time>
      </trkpt>
      <trkpt lat="48.60921" lon="7.06449">
        <ele>312.9</ele>
        <time>2021-07-31T11:49:46Z</time>
      </trkpt>
      <trkpt lat="48.60914" lon="7.06451">
        <ele>312.9</ele>
        <time>2021-07-31T11:50:30Z</time>
      </trkpt>
      <trkpt lat="48.6091" lon="7.06451">
        <ele>312.9</ele>
        <time>2021-07-31T11:50:32Z</time>
      </trkpt>
      <trkpt lat="48.60906" lon="7.06452">
        <ele>312.9</ele>
        <time>2021-07-31T11:50:33Z</time>
      </trkpt>
      <trkpt lat="48.60902" lon="7.06452">
        <ele>312.8</ele>
        <time>2021-07-31T11:50:34Z</time>
      </trkpt>
      <trkpt lat="48.60896" lon="7.06449">
        <ele>312.8</ele>
        <time>2021-07-31T11:50:36Z</time>
      </trkpt>
      <trkpt lat="48.60891" lon="7.06448">
        <ele>312.8</ele>
        <time>2021-07-31T11:50:38Z</time>
      </trkpt>
      <trkpt lat="48.60887" lon="7.06452">
        <ele>312.7</ele>
        <time>2021-07-31T11:50:39Z</time>
      </trkpt>
      <trkpt lat="48.60886" lon="7.06457">
        <ele>312</ele>
        <time>2021-07-31T11:50:40Z</time>
      </trkpt>
      <trkpt lat="48.60885" lon="7.06463">
        <ele>311.8</ele>
        <time>2021-07-31T11:50:42Z</time>
      </trkpt>
      <trkpt lat="48.60885" lon="7.0647">
        <ele>311.5</ele>
        <time>2021-07-31T11:50:43Z</time>
      </trkpt>
      <trkpt lat="48.60885" lon="7.06478">
        <ele>311.3</ele>
        <time>2021-07-31T11:50:44Z</time>
      </trkpt>
      <trkpt lat="48.60884" lon="7.06485">
        <ele>311.1</ele>
        <time>2021-07-31T11:50:45Z</time>
      </trkpt>
      <trkpt lat="48.60884" lon="7.06493">
        <ele>310.8</ele>
        <time>2021-07-31T11:50:47Z</time>
      </trkpt>
      <trkpt lat="48.60883" lon="7.06498">
        <ele>310.7</ele>
        <time>2021-07-31T11:50:48Z</time>
      </trkpt>
      <trkpt lat="48.60882" lon="7.06504">
        <ele>310.5</ele>
        <time>2021-07-31T11:50:49Z</time>
      </trkpt>
      <trkpt lat="48.60882" lon="7.06511">
        <ele>310.3</ele>
        <time>2021-07-31T11:50:51Z</time>
      </trkpt>
      <trkpt lat="48.6088" lon="7.06515">
        <ele>310.2</ele>
        <time>2021-07-31T11:50:52Z</time>
      </trkpt>
      <trkpt lat="48.60879" lon="7.06518">
        <ele>310.1</ele>
        <time>2021-07-31T11:50:53Z</time>
      </trkpt>
      <trkpt lat="48.60878" lon="7.0652">
        <ele>310</ele>
        <time>2021-07-31T11:50:55Z</time>
      </trkpt>
      <trkpt lat="48.60878" lon="7.06522">
        <ele>310</ele>
        <time>2021-07-31T11:50:56Z</time>
      </trkpt>
      <trkpt lat="48.60878" lon="7.06524">
        <ele>309.9</ele>
        <time>2021-07-31T11:50:57Z</time>
      </trkpt>
      <trkpt lat="48.60877" lon="7.06525">
        <ele>309.8</ele>
        <time>2021-07-31T11:50:58Z</time>
      </trkpt>
      <trkpt lat="48.60877" lon="7.06526">
        <ele>309.7</ele>
        <time>2021-07-31T11:50:59Z</time>
      </trkpt>
      <trkpt lat="48.60876" lon="7.06527">
        <ele>309.7</ele>
        <time>2021-07-31T11:51:00Z</time>
      </trkpt>
      <trkpt lat="48.60876" lon="7.06531">
        <ele>309.5</ele>
        <time>2021-07-31T11:51:02Z</time>
      </trkpt>
      <trkpt lat="48.60875" lon="7.06534">
        <ele>309.3</ele>
        <time>2021-07-31T11:51:03Z</time>
      </trkpt>
      <trkpt lat="48.60875" lon="7.06539">
        <ele>309.1</ele>
        <time>2021-07-31T11:51:05Z</time>
      </trkpt>
      <trkpt lat="48.60876" lon="7.06543">
        <ele>308.9</ele>
        <time>2021-07-31T11:51:06Z</time>
      </trkpt>
      <trkpt lat="48.60878" lon="7.06547">
        <ele>308.7</ele>
        <time>2021-07-31T11:51:08Z</time>
      </trkpt>
      <trkpt lat="48.60878" lon="7.06552">
        <ele>308.4</ele>
        <time>2021-07-31T11:51:09Z</time>
      </trkpt>
      <trkpt lat="48.60878" lon="7.06556">
        <ele>308.3</ele>
        <time>2021-07-31T11:51:11Z</time>
      </trkpt>
      <trkpt lat="48.60879" lon="7.06561">
        <ele>308.2</ele>
        <time>2021-07-31T11:51:12Z</time>
      </trkpt>
      <trkpt lat="48.60881" lon="7.06563">
        <ele>308.2</ele>
        <time>2021-07-31T11:51:13Z</time>
      </trkpt>
      <trkpt lat="48.60883" lon="7.06565">
        <ele>308.1</ele>
        <time>2021-07-31T11:51:15Z</time>
      </trkpt>
      <trkpt lat="48.60884" lon="7.06564">
        <ele>308.1</ele>
        <time>2021-07-31T11:51:16Z</time>
      </trkpt>
      <trkpt lat="48.60885" lon="7.06564">
        <ele>308.1</ele>
        <time>2021-07-31T11:51:18Z</time>
      </trkpt>
      <trkpt lat="48.60885" lon="7.06564">
        <ele>308.1</ele>
        <time>2021-07-31T11:51:20Z</time>
      </trkpt>
      <trkpt lat="48.60885" lon="7.06564">
        <ele>308.1</ele>
        <time>2021-07-31T11:51:21Z</time>
      </trkpt>
      <trkpt lat="48.60885" lon="7.06564">
        <ele>308.1</ele>
        <time>2021-07-31T11:51:22Z</time>
      </trkpt>
      <trkpt lat="48.60885" lon="7.06563">
        <ele>308.1</ele>
        <time>2021-07-31T11:51:24Z</time>
      </trkpt>
      <trkpt lat="48.60885" lon="7.06564">
        <ele>308.1</ele>
        <time>2021-07-31T11:51:25Z</time>
      </trkpt>
      <trkpt lat="48.6089" lon="7.0658">
        <ele>307.8</ele>
        <time>2021-07-31T11:51:42Z</time>
      </trkpt>
      <trkpt lat="48.60889" lon="7.06591">
        <ele>307.7</ele>
        <time>2021-07-31T11:51:44Z</time>
      </trkpt>
      <trkpt lat="48.60889" lon="7.066">
        <ele>307.7</ele>
        <time>2021-07-31T11:51:45Z</time>
      </trkpt>
      <trkpt lat="48.60889" lon="7.06608">
        <ele>307.7</ele>
        <time>2021-07-31T11:51:46Z</time>
      </trkpt>
      <trkpt lat="48.6089" lon="7.06617">
        <ele>307.7</ele>
        <time>2021-07-31T11:51:48Z</time>
      </trkpt>
      <trkpt lat="48.60891" lon="7.06626">
        <ele>307.7</ele>
        <time>2021-07-31T11:51:49Z</time>
      </trkpt>
      <trkpt lat="48.60892" lon="7.06635">
        <ele>307.8</ele>
        <time>2021-07-31T11:51:51Z</time>
      </trkpt>
      <trkpt lat="48.60893" lon="7.06642">
        <ele>307.8</ele>
        <time>2021-07-31T11:51:52Z</time>
      </trkpt>
      <trkpt lat="48.60894" lon="7.06648">
        <ele>307.9</ele>
        <time>2021-07-31T11:51:53Z</time>
      </trkpt>
      <trkpt lat="48.60894" lon="7.06656">
        <ele>308.2</ele>
        <time>2021-07-31T11:51:54Z</time>
      </trkpt>
      <trkpt lat="48.60894" lon="7.06667">
        <ele>308.5</ele>
        <time>2021-07-31T11:51:56Z</time>
      </trkpt>
      <trkpt lat="48.60894" lon="7.06674">
        <ele>308.8</ele>
        <time>2021-07-31T11:51:57Z</time>
      </trkpt>
      <trkpt lat="48.60895" lon="7.06679">
        <ele>309</ele>
        <time>2021-07-31T11:51:58Z</time>
      </trkpt>
      <trkpt lat="48.60896" lon="7.06683">
        <ele>309.2</ele>
        <time>2021-07-31T11:52:00Z</time>
      </trkpt>
      <trkpt lat="48.60898" lon="7.06689">
        <ele>309.6</ele>
        <time>2021-07-31T11:52:01Z</time>
      </trkpt>
      <trkpt lat="48.60902" lon="7.06694">
        <ele>310.1</ele>
        <time>2021-07-31T11:52:03Z</time>
      </trkpt>
      <trkpt lat="48.60904" lon="7.06694">
        <ele>310.1</ele>
        <time>2021-07-31T11:52:04Z</time>
      </trkpt>
      <trkpt lat="48.60909" lon="7.06693">
        <ele>310</ele>
        <time>2021-07-31T11:52:06Z</time>
      </trkpt>
      <trkpt lat="48.60914" lon="7.06689">
        <ele>310</ele>
        <time>2021-07-31T11:52:08Z</time>
      </trkpt>
      <trkpt lat="48.60917" lon="7.06687">
        <ele>310</ele>
        <time>2021-07-31T11:52:09Z</time>
      </trkpt>
      <trkpt lat="48.60922" lon="7.06685">
        <ele>310</ele>
        <time>2021-07-31T11:52:11Z</time>
      </trkpt>
      <trkpt lat="48.60924" lon="7.06683">
        <ele>310</ele>
        <time>2021-07-31T11:52:12Z</time>
      </trkpt>
      <trkpt lat="48.60928" lon="7.06681">
        <ele>310</ele>
        <time>2021-07-31T11:52:14Z</time>
      </trkpt>
      <trkpt lat="48.60931" lon="7.06679">
        <ele>310.1</ele>
        <time>2021-07-31T11:52:15Z</time>
      </trkpt>
      <trkpt lat="48.60934" lon="7.06677">
        <ele>310.1</ele>
        <time>2021-07-31T11:52:16Z</time>
      </trkpt>
      <trkpt lat="48.60937" lon="7.06677">
        <ele>310.2</ele>
        <time>2021-07-31T11:52:17Z</time>
      </trkpt>
      <trkpt lat="48.60941" lon="7.06678">
        <ele>310.4</ele>
        <time>2021-07-31T11:52:18Z</time>
      </trkpt>
      <trkpt lat="48.60946" lon="7.06678">
        <ele>310.5</ele>
        <time>2021-07-31T11:52:19Z</time>
      </trkpt>
      <trkpt lat="48.60952" lon="7.06678">
        <ele>310.8</ele>
        <time>2021-07-31T11:52:21Z</time>
      </trkpt>
      <trkpt lat="48.60958" lon="7.06678">
        <ele>311</ele>
        <time>2021-07-31T11:52:23Z</time>
      </trkpt>
      <trkpt lat="48.60964" lon="7.06679">
        <ele>311.1</ele>
        <time>2021-07-31T11:52:24Z</time>
      </trkpt>
      <trkpt lat="48.60972" lon="7.06678">
        <ele>311.3</ele>
        <time>2021-07-31T11:52:26Z</time>
      </trkpt>
      <trkpt lat="48.60979" lon="7.0668">
        <ele>311.4</ele>
        <time>2021-07-31T11:52:28Z</time>
      </trkpt>
      <trkpt lat="48.60982" lon="7.06682">
        <ele>311.5</ele>
        <time>2021-07-31T11:52:29Z</time>
      </trkpt>
      <trkpt lat="48.60984" lon="7.06684">
        <ele>311.5</ele>
        <time>2021-07-31T11:52:30Z</time>
      </trkpt>
      <trkpt lat="48.60989" lon="7.06686">
        <ele>311.6</ele>
        <time>2021-07-31T11:52:32Z</time>
      </trkpt>
      <trkpt lat="48.60993" lon="7.06687">
        <ele>311.7</ele>
        <time>2021-07-31T11:52:33Z</time>
      </trkpt>
      <trkpt lat="48.60997" lon="7.06689">
        <ele>311.7</ele>
        <time>2021-07-31T11:52:34Z</time>
      </trkpt>
      <trkpt lat="48.61" lon="7.06691">
        <ele>311.8</ele>
        <time>2021-07-31T11:52:35Z</time>
      </trkpt>
      <trkpt lat="48.61003" lon="7.06693">
        <ele>311.8</ele>
        <time>2021-07-31T11:52:36Z</time>
      </trkpt>
      <trkpt lat="48.61007" lon="7.06694">
        <ele>311.9</ele>
        <time>2021-07-31T11:52:38Z</time>
      </trkpt>
      <trkpt lat="48.61009" lon="7.06694">
        <ele>311.9</ele>
        <time>2021-07-31T11:52:39Z</time>
      </trkpt>
      <trkpt lat="48.6101" lon="7.06694">
        <ele>311.8</ele>
        <time>2021-07-31T11:52:40Z</time>
      </trkpt>
      <trkpt lat="48.61014" lon="7.06692">
        <ele>311.5</ele>
        <time>2021-07-31T11:52:41Z</time>
      </trkpt>
      <trkpt lat="48.61016" lon="7.06691">
        <ele>311.4</ele>
        <time>2021-07-31T11:52:42Z</time>
      </trkpt>
      <trkpt lat="48.6102" lon="7.06686">
        <ele>311</ele>
        <time>2021-07-31T11:52:44Z</time>
      </trkpt>
      <trkpt lat="48.61025" lon="7.06679">
        <ele>310.4</ele>
        <time>2021-07-31T11:52:46Z</time>
      </trkpt>
      <trkpt lat="48.61029" lon="7.06675">
        <ele>309.9</ele>
        <time>2021-07-31T11:52:47Z</time>
      </trkpt>
      <trkpt lat="48.61035" lon="7.06674">
        <ele>309.4</ele>
        <time>2021-07-31T11:52:48Z</time>
      </trkpt>
      <trkpt lat="48.61039" lon="7.06672">
        <ele>308.9</ele>
        <time>2021-07-31T11:52:49Z</time>
      </trkpt>
      <trkpt lat="48.61044" lon="7.06668">
        <ele>308.4</ele>
        <time>2021-07-31T11:52:51Z</time>
      </trkpt>
      <trkpt lat="48.61048" lon="7.06667">
        <ele>308</ele>
        <time>2021-07-31T11:52:52Z</time>
      </trkpt>
      <trkpt lat="48.61053" lon="7.06668">
        <ele>307.4</ele>
        <time>2021-07-31T11:52:53Z</time>
      </trkpt>
      <trkpt lat="48.61057" lon="7.0667">
        <ele>307.5</ele>
        <time>2021-07-31T11:52:54Z</time>
      </trkpt>
      <trkpt lat="48.61061" lon="7.06672">
        <ele>307.5</ele>
        <time>2021-07-31T11:52:55Z</time>
      </trkpt>
      <trkpt lat="48.61066" lon="7.06673">
        <ele>307.6</ele>
        <time>2021-07-31T11:52:57Z</time>
      </trkpt>
      <trkpt lat="48.61073" lon="7.06675">
        <ele>307.6</ele>
        <time>2021-07-31T11:52:58Z</time>
      </trkpt>
      <trkpt lat="48.61082" lon="7.06677">
        <ele>307.7</ele>
        <time>2021-07-31T11:53:00Z</time>
      </trkpt>
      <trkpt lat="48.61092" lon="7.0668">
        <ele>307.8</ele>
        <time>2021-07-31T11:53:02Z</time>
      </trkpt>
      <trkpt lat="48.611" lon="7.06681">
        <ele>307.9</ele>
        <time>2021-07-31T11:53:04Z</time>
      </trkpt>
      <trkpt lat="48.61105" lon="7.06683">
        <ele>307.9</ele>
        <time>2021-07-31T11:53:05Z</time>
      </trkpt>
      <trkpt lat="48.61108" lon="7.06685">
        <ele>308.3</ele>
        <time>2021-07-31T11:53:06Z</time>
      </trkpt>
      <trkpt lat="48.61113" lon="7.06687">
        <ele>308.4</ele>
        <time>2021-07-31T11:53:08Z</time>
      </trkpt>
      <trkpt lat="48.61118" lon="7.0669">
        <ele>308.6</ele>
        <time>2021-07-31T11:53:09Z</time>
      </trkpt>
      <trkpt lat="48.61122" lon="7.06692">
        <ele>308.8</ele>
        <time>2021-07-31T11:53:10Z</time>
      </trkpt>
      <trkpt lat="48.61127" lon="7.06695">
        <ele>309</ele>
        <time>2021-07-31T11:53:12Z</time>
      </trkpt>
      <trkpt lat="48.61131" lon="7.067">
        <ele>309.3</ele>
        <time>2021-07-31T11:53:13Z</time>
      </trkpt>
      <trkpt lat="48.61134" lon="7.06702">
        <ele>309.4</ele>
        <time>2021-07-31T11:53:14Z</time>
      </trkpt>
      <trkpt lat="48.61136" lon="7.06705">
        <ele>309.5</ele>
        <time>2021-07-31T11:53:15Z</time>
      </trkpt>
      <trkpt lat="48.61139" lon="7.06707">
        <ele>309.7</ele>
        <time>2021-07-31T11:53:16Z</time>
      </trkpt>
      <trkpt lat="48.6114" lon="7.06707">
        <ele>309.7</ele>
        <time>2021-07-31T11:53:17Z</time>
      </trkpt>
      <trkpt lat="48.61142" lon="7.06709">
        <ele>309.8</ele>
        <time>2021-07-31T11:53:18Z</time>
      </trkpt>
      <trkpt lat="48.61145" lon="7.06714">
        <ele>310</ele>
        <time>2021-07-31T11:53:20Z</time>
      </trkpt>
      <trkpt lat="48.61148" lon="7.06718">
        <ele>310.2</ele>
        <time>2021-07-31T11:53:21Z</time>
      </trkpt>
      <trkpt lat="48.61149" lon="7.06719">
        <ele>310.3</ele>
        <time>2021-07-31T11:53:22Z</time>
      </trkpt>
      <trkpt lat="48.61153" lon="7.06726">
        <ele>310.6</ele>
        <time>2021-07-31T11:53:24Z</time>
      </trkpt>
      <trkpt lat="48.61157" lon="7.06732">
        <ele>311</ele>
        <time>2021-07-31T11:53:26Z</time>
      </trkpt>
      <trkpt lat="48.6116" lon="7.06735">
        <ele>311.1</ele>
        <time>2021-07-31T11:53:27Z</time>
      </trkpt>
      <trkpt lat="48.61162" lon="7.06738">
        <ele>311.3</ele>
        <time>2021-07-31T11:53:29Z</time>
      </trkpt>
      <trkpt lat="48.61165" lon="7.06742">
        <ele>311.5</ele>
        <time>2021-07-31T11:53:30Z</time>
      </trkpt>
      <trkpt lat="48.61168" lon="7.06746">
        <ele>311.7</ele>
        <time>2021-07-31T11:53:32Z</time>
      </trkpt>
      <trkpt lat="48.6117" lon="7.0675">
        <ele>311.9</ele>
        <time>2021-07-31T11:53:33Z</time>
      </trkpt>
      <trkpt lat="48.61172" lon="7.06755">
        <ele>312.1</ele>
        <time>2021-07-31T11:53:35Z</time>
      </trkpt>
      <trkpt lat="48.61174" lon="7.0676">
        <ele>312.4</ele>
        <time>2021-07-31T11:53:36Z</time>
      </trkpt>
      <trkpt lat="48.61178" lon="7.06765">
        <ele>312.7</ele>
        <time>2021-07-31T11:53:38Z</time>
      </trkpt>
      <trkpt lat="48.61182" lon="7.06771">
        <ele>313</ele>
        <time>2021-07-31T11:53:40Z</time>
      </trkpt>
      <trkpt lat="48.61186" lon="7.0678">
        <ele>313.4</ele>
        <time>2021-07-31T11:53:42Z</time>
      </trkpt>
      <trkpt lat="48.61188" lon="7.06786">
        <ele>313.6</ele>
        <time>2021-07-31T11:53:44Z</time>
      </trkpt>
      <trkpt lat="48.61188" lon="7.06789">
        <ele>313.7</ele>
        <time>2021-07-31T11:53:45Z</time>
      </trkpt>
      <trkpt lat="48.61189" lon="7.0679">
        <ele>313.8</ele>
        <time>2021-07-31T11:53:46Z</time>
      </trkpt>
      <trkpt lat="48.61189" lon="7.06792">
        <ele>313.9</ele>
        <time>2021-07-31T11:53:47Z</time>
      </trkpt>
      <trkpt lat="48.61189" lon="7.06794">
        <ele>314</ele>
        <time>2021-07-31T11:53:48Z</time>
      </trkpt>
      <trkpt lat="48.6119" lon="7.06796">
        <ele>314.1</ele>
        <time>2021-07-31T11:53:50Z</time>
      </trkpt>
      <trkpt lat="48.61192" lon="7.06797">
        <ele>314.2</ele>
        <time>2021-07-31T11:53:51Z</time>
      </trkpt>
      <trkpt lat="48.61193" lon="7.06796">
        <ele>314.2</ele>
        <time>2021-07-31T11:53:52Z</time>
      </trkpt>
      <trkpt lat="48.61193" lon="7.06794">
        <ele>314.3</ele>
        <time>2021-07-31T11:53:53Z</time>
      </trkpt>
      <trkpt lat="48.61194" lon="7.06795">
        <ele>314.4</ele>
        <time>2021-07-31T11:53:55Z</time>
      </trkpt>
      <trkpt lat="48.61195" lon="7.06797">
        <ele>314.5</ele>
        <time>2021-07-31T11:53:56Z</time>
      </trkpt>
      <trkpt lat="48.61196" lon="7.06801">
        <ele>314.7</ele>
        <time>2021-07-31T11:53:58Z</time>
      </trkpt>
      <trkpt lat="48.61195" lon="7.06802">
        <ele>314.8</ele>
        <time>2021-07-31T11:53:59Z</time>
      </trkpt>
      <trkpt lat="48.61195" lon="7.06803">
        <ele>314.8</ele>
        <time>2021-07-31T11:54:00Z</time>
      </trkpt>
      <trkpt lat="48.61195" lon="7.06804">
        <ele>314.8</ele>
        <time>2021-07-31T11:54:02Z</time>
      </trkpt>
      <trkpt lat="48.61195" lon="7.06804">
        <ele>314.8</ele>
        <time>2021-07-31T11:54:03Z</time>
      </trkpt>
      <trkpt lat="48.61195" lon="7.06805">
        <ele>314.9</ele>
        <time>2021-07-31T11:54:05Z</time>
      </trkpt>
      <trkpt lat="48.61195" lon="7.06805">
        <ele>314.9</ele>
        <time>2021-07-31T11:54:07Z</time>
      </trkpt>
      <trkpt lat="48.61201" lon="7.06814">
        <ele>315.4</ele>
        <time>2021-07-31T11:54:15Z</time>
      </trkpt>
      <trkpt lat="48.61207" lon="7.06827">
        <ele>316.1</ele>
        <time>2021-07-31T11:54:17Z</time>
      </trkpt>
      <trkpt lat="48.6121" lon="7.06835">
        <ele>316.4</ele>
        <time>2021-07-31T11:54:18Z</time>
      </trkpt>
      <trkpt lat="48.61215" lon="7.06848">
        <ele>316.8</ele>
        <time>2021-07-31T11:54:20Z</time>
      </trkpt>
      <trkpt lat="48.61217" lon="7.06854">
        <ele>316.9</ele>
        <time>2021-07-31T11:54:21Z</time>
      </trkpt>
      <trkpt lat="48.61221" lon="7.06864">
        <ele>317.1</ele>
        <time>2021-07-31T11:54:23Z</time>
      </trkpt>
      <trkpt lat="48.61224" lon="7.06872">
        <ele>317.2</ele>
        <time>2021-07-31T11:54:25Z</time>
      </trkpt>
      <trkpt lat="48.61228" lon="7.06882">
        <ele>317.3</ele>
        <time>2021-07-31T11:54:27Z</time>
      </trkpt>
      <trkpt lat="48.6123" lon="7.06886">
        <ele>317.4</ele>
        <time>2021-07-31T11:54:28Z</time>
      </trkpt>
      <trkpt lat="48.61234" lon="7.06895">
        <ele>317.4</ele>
        <time>2021-07-31T11:54:30Z</time>
      </trkpt>
      <trkpt lat="48.61236" lon="7.06901">
        <ele>317.5</ele>
        <time>2021-07-31T11:54:31Z</time>
      </trkpt>
      <trkpt lat="48.61238" lon="7.06911">
        <ele>317.5</ele>
        <time>2021-07-31T11:54:33Z</time>
      </trkpt>
      <trkpt lat="48.61238" lon="7.06916">
        <ele>317.5</ele>
        <time>2021-07-31T11:54:34Z</time>
      </trkpt>
      <trkpt lat="48.6124" lon="7.06921">
        <ele>317.5</ele>
        <time>2021-07-31T11:54:35Z</time>
      </trkpt>
      <trkpt lat="48.61243" lon="7.06932">
        <ele>317.5</ele>
        <time>2021-07-31T11:54:37Z</time>
      </trkpt>
      <trkpt lat="48.61245" lon="7.0694">
        <ele>317.6</ele>
        <time>2021-07-31T11:54:39Z</time>
      </trkpt>
      <trkpt lat="48.61247" lon="7.06946">
        <ele>317.6</ele>
        <time>2021-07-31T11:54:40Z</time>
      </trkpt>
      <trkpt lat="48.61249" lon="7.06952">
        <ele>317.6</ele>
        <time>2021-07-31T11:54:41Z</time>
      </trkpt>
      <trkpt lat="48.61251" lon="7.06958">
        <ele>317.6</ele>
        <time>2021-07-31T11:54:42Z</time>
      </trkpt>
      <trkpt lat="48.61252" lon="7.06964">
        <ele>317.6</ele>
        <time>2021-07-31T11:54:43Z</time>
      </trkpt>
      <trkpt lat="48.61253" lon="7.06971">
        <ele>317.6</ele>
        <time>2021-07-31T11:54:44Z</time>
      </trkpt>
      <trkpt lat="48.61257" lon="7.06983">
        <ele>317.6</ele>
        <time>2021-07-31T11:54:46Z</time>
      </trkpt>
      <trkpt lat="48.6126" lon="7.06988">
        <ele>317.7</ele>
        <time>2021-07-31T11:54:47Z</time>
      </trkpt>
      <trkpt lat="48.61261" lon="7.06995">
        <ele>317.7</ele>
        <time>2021-07-31T11:54:48Z</time>
      </trkpt>
      <trkpt lat="48.61264" lon="7.07005">
        <ele>317.8</ele>
        <time>2021-07-31T11:54:50Z</time>
      </trkpt>
      <trkpt lat="48.61266" lon="7.07009">
        <ele>317.8</ele>
        <time>2021-07-31T11:54:51Z</time>
      </trkpt>
      <trkpt lat="48.61268" lon="7.07017">
        <ele>317.8</ele>
        <time>2021-07-31T11:54:52Z</time>
      </trkpt>
      <trkpt lat="48.61272" lon="7.07033">
        <ele>318</ele>
        <time>2021-07-31T11:54:54Z</time>
      </trkpt>
      <trkpt lat="48.61275" lon="7.07047">
        <ele>318.2</ele>
        <time>2021-07-31T11:54:56Z</time>
      </trkpt>
      <trkpt lat="48.61276" lon="7.07054">
        <ele>318.3</ele>
        <time>2021-07-31T11:54:57Z</time>
      </trkpt>
      <trkpt lat="48.61278" lon="7.07061">
        <ele>318.4</ele>
        <time>2021-07-31T11:54:58Z</time>
      </trkpt>
      <trkpt lat="48.61279" lon="7.07067">
        <ele>318.5</ele>
        <time>2021-07-31T11:54:59Z</time>
      </trkpt>
      <trkpt lat="48.61279" lon="7.07073">
        <ele>318.6</ele>
        <time>2021-07-31T11:55:00Z</time>
      </trkpt>
      <trkpt lat="48.61282" lon="7.07085">
        <ele>318.8</ele>
        <time>2021-07-31T11:55:02Z</time>
      </trkpt>
      <trkpt lat="48.61283" lon="7.07091">
        <ele>318.9</ele>
        <time>2021-07-31T11:55:03Z</time>
      </trkpt>
      <trkpt lat="48.61285" lon="7.07097">
        <ele>318.9</ele>
        <time>2021-07-31T11:55:04Z</time>
      </trkpt>
      <trkpt lat="48.61286" lon="7.07104">
        <ele>319</ele>
        <time>2021-07-31T11:55:06Z</time>
      </trkpt>
      <trkpt lat="48.61287" lon="7.0711">
        <ele>319.1</ele>
        <time>2021-07-31T11:55:07Z</time>
      </trkpt>
      <trkpt lat="48.61288" lon="7.07115">
        <ele>319.2</ele>
        <time>2021-07-31T11:55:08Z</time>
      </trkpt>
      <trkpt lat="48.6129" lon="7.07121">
        <ele>319.2</ele>
        <time>2021-07-31T11:55:09Z</time>
      </trkpt>
      <trkpt lat="48.61291" lon="7.07127">
        <ele>319.3</ele>
        <time>2021-07-31T11:55:10Z</time>
      </trkpt>
      <trkpt lat="48.61294" lon="7.07137">
        <ele>319.4</ele>
        <time>2021-07-31T11:55:12Z</time>
      </trkpt>
      <trkpt lat="48.61296" lon="7.07143">
        <ele>319.5</ele>
        <time>2021-07-31T11:55:14Z</time>
      </trkpt>
      <trkpt lat="48.61297" lon="7.07147">
        <ele>319.5</ele>
        <time>2021-07-31T11:55:15Z</time>
      </trkpt>
      <trkpt lat="48.61299" lon="7.07152">
        <ele>319.5</ele>
        <time>2021-07-31T11:55:16Z</time>
      </trkpt>
      <trkpt lat="48.613" lon="7.07156">
        <ele>319.6</ele>
        <time>2021-07-31T11:55:17Z</time>
      </trkpt>
      <trkpt lat="48.61301" lon="7.0716">
        <ele>319.6</ele>
        <time>2021-07-31T11:55:18Z</time>
      </trkpt>
      <trkpt lat="48.61303" lon="7.07167">
        <ele>319.7</ele>
        <time>2021-07-31T11:55:20Z</time>
      </trkpt>
      <trkpt lat="48.61306" lon="7.07171">
        <ele>319.7</ele>
        <time>2021-07-31T11:55:21Z</time>
      </trkpt>
      <trkpt lat="48.61308" lon="7.07175">
        <ele>319.7</ele>
        <time>2021-07-31T11:55:22Z</time>
      </trkpt>
      <trkpt lat="48.61311" lon="7.0718">
        <ele>319.8</ele>
        <time>2021-07-31T11:55:23Z</time>
      </trkpt>
      <trkpt lat="48.61312" lon="7.07185">
        <ele>319.8</ele>
        <time>2021-07-31T11:55:24Z</time>
      </trkpt>
      <trkpt lat="48.61314" lon="7.0719">
        <ele>319.8</ele>
        <time>2021-07-31T11:55:25Z</time>
      </trkpt>
      <trkpt lat="48.61317" lon="7.07198">
        <ele>319.8</ele>
        <time>2021-07-31T11:55:27Z</time>
      </trkpt>
      <trkpt lat="48.61318" lon="7.07203">
        <ele>319.8</ele>
        <time>2021-07-31T11:55:28Z</time>
      </trkpt>
      <trkpt lat="48.61322" lon="7.07211">
        <ele>319.8</ele>
        <time>2021-07-31T11:55:30Z</time>
      </trkpt>
      <trkpt lat="48.61324" lon="7.07215">
        <ele>319.8</ele>
        <time>2021-07-31T11:55:31Z</time>
      </trkpt>
      <trkpt lat="48.61326" lon="7.07225">
        <ele>319.8</ele>
        <time>2021-07-31T11:55:33Z</time>
      </trkpt>
      <trkpt lat="48.61326" lon="7.0723">
        <ele>319.8</ele>
        <time>2021-07-31T11:55:34Z</time>
      </trkpt>
      <trkpt lat="48.61328" lon="7.07238">
        <ele>319.8</ele>
        <time>2021-07-31T11:55:36Z</time>
      </trkpt>
      <trkpt lat="48.61328" lon="7.07243">
        <ele>319.8</ele>
        <time>2021-07-31T11:55:37Z</time>
      </trkpt>
      <trkpt lat="48.61328" lon="7.07249">
        <ele>319.7</ele>
        <time>2021-07-31T11:55:39Z</time>
      </trkpt>
      <trkpt lat="48.61329" lon="7.07253">
        <ele>319.7</ele>
        <time>2021-07-31T11:55:40Z</time>
      </trkpt>
      <trkpt lat="48.61328" lon="7.07259">
        <ele>319.7</ele>
        <time>2021-07-31T11:55:42Z</time>
      </trkpt>
      <trkpt lat="48.61328" lon="7.07265">
        <ele>319.7</ele>
        <time>2021-07-31T11:55:44Z</time>
      </trkpt>
      <trkpt lat="48.61329" lon="7.07266">
        <ele>319.6</ele>
        <time>2021-07-31T11:55:45Z</time>
      </trkpt>
      <trkpt lat="48.61328" lon="7.07264">
        <ele>319.6</ele>
        <time>2021-07-31T11:55:47Z</time>
      </trkpt>
      <trkpt lat="48.61328" lon="7.07264">
        <ele>319.6</ele>
        <time>2021-07-31T11:55:48Z</time>
      </trkpt>
      <trkpt lat="48.61331" lon="7.0726">
        <ele>319.6</ele>
        <time>2021-07-31T11:55:50Z</time>
      </trkpt>
      <trkpt lat="48.61336" lon="7.07258">
        <ele>319.6</ele>
        <time>2021-07-31T11:55:52Z</time>
      </trkpt>
      <trkpt lat="48.61338" lon="7.07256">
        <ele>319.5</ele>
        <time>2021-07-31T11:55:53Z</time>
      </trkpt>
      <trkpt lat="48.6134" lon="7.07254">
        <ele>319.5</ele>
        <time>2021-07-31T11:55:54Z</time>
      </trkpt>
      <trkpt lat="48.61336" lon="7.0725">
        <ele>319.5</ele>
        <time>2021-07-31T11:55:58Z</time>
      </trkpt>
      <trkpt lat="48.61335" lon="7.07245">
        <ele>319.5</ele>
        <time>2021-07-31T11:55:59Z</time>
      </trkpt>
      <trkpt lat="48.61334" lon="7.07238">
        <ele>319.4</ele>
        <time>2021-07-31T11:56:00Z</time>
      </trkpt>
      <trkpt lat="48.61333" lon="7.07235">
        <ele>319.4</ele>
        <time>2021-07-31T11:56:02Z</time>
      </trkpt>
      <trkpt lat="48.61333" lon="7.07234">
        <ele>319.4</ele>
        <time>2021-07-31T11:56:03Z</time>
      </trkpt>
      <trkpt lat="48.61333" lon="7.07235">
        <ele>319.4</ele>
        <time>2021-07-31T11:56:04Z</time>
      </trkpt>
      <trkpt lat="48.61333" lon="7.07236">
        <ele>319.4</ele>
        <time>2021-07-31T11:56:06Z</time>
      </trkpt>
      <trkpt lat="48.61333" lon="7.07236">
        <ele>319.4</ele>
        <time>2021-07-31T11:56:07Z</time>
      </trkpt>
      <trkpt lat="48.61333" lon="7.07236">
        <ele>319.4</ele>
        <time>2021-07-31T11:56:09Z</time>
      </trkpt>
      <trkpt lat="48.61333" lon="7.07236">
        <ele>319.4</ele>
        <time>2021-07-31T11:56:10Z</time>
      </trkpt>
      <trkpt lat="48.61416" lon="7.08008">
        <ele>328.6</ele>
        <time>2021-08-01T08:13:10Z</time>
      </trkpt>
      <trkpt lat="48.61416" lon="7.08008">
        <ele>328.6</ele>
        <time>2021-08-01T08:13:10Z</time>
      </trkpt>
      <trkpt lat="48.61418" lon="7.08013">
        <ele>328.6</ele>
        <time>2021-08-01T08:13:11Z</time>
      </trkpt>
      <trkpt lat="48.61418" lon="7.08015">
        <ele>328.5</ele>
        <time>2021-08-01T08:13:12Z</time>
      </trkpt>
      <trkpt lat="48.61418" lon="7.0802">
        <ele>328.5</ele>
        <time>2021-08-01T08:13:14Z</time>
      </trkpt>
      <trkpt lat="48.61418" lon="7.08022">
        <ele>328.4</ele>
        <time>2021-08-01T08:13:15Z</time>
      </trkpt>
      <trkpt lat="48.61416" lon="7.08026">
        <ele>328.3</ele>
        <time>2021-08-01T08:13:16Z</time>
      </trkpt>
      <trkpt lat="48.61415" lon="7.08027">
        <ele>328.3</ele>
        <time>2021-08-01T08:13:17Z</time>
      </trkpt>
      <trkpt lat="48.61414" lon="7.08029">
        <ele>328.3</ele>
        <time>2021-08-01T08:13:18Z</time>
      </trkpt>
      <trkpt lat="48.61412" lon="7.08033">
        <ele>328.2</ele>
        <time>2021-08-01T08:13:20Z</time>
      </trkpt>
      <trkpt lat="48.6141" lon="7.08037">
        <ele>328.1</ele>
        <time>2021-08-01T08:13:21Z</time>
      </trkpt>
      <trkpt lat="48.61409" lon="7.08037">
        <ele>328.1</ele>
        <time>2021-08-01T08:13:22Z</time>
      </trkpt>
      <trkpt lat="48.61408" lon="7.08039">
        <ele>328</ele>
        <time>2021-08-01T08:13:23Z</time>
      </trkpt>
      <trkpt lat="48.61408" lon="7.08039">
        <ele>328</ele>
        <time>2021-08-01T08:13:24Z</time>
      </trkpt>
      <trkpt lat="48.61408" lon="7.08041">
        <ele>328</ele>
        <time>2021-08-01T08:13:26Z</time>
      </trkpt>
      <trkpt lat="48.61408" lon="7.08043">
        <ele>328</ele>
        <time>2021-08-01T08:13:27Z</time>
      </trkpt>
      <trkpt lat="48.61408" lon="7.08045">
        <ele>327.9</ele>
        <time>2021-08-01T08:13:28Z</time>
      </trkpt>
      <trkpt lat="48.61408" lon="7.08051">
        <ele>327.8</ele>
        <time>2021-08-01T08:13:30Z</time>
      </trkpt>
      <trkpt lat="48.61409" lon="7.08056">
        <ele>327.7</ele>
        <time>2021-08-01T08:13:31Z</time>
      </trkpt>
      <trkpt lat="48.61409" lon="7.08057">
        <ele>327.6</ele>
        <time>2021-08-01T08:13:32Z</time>
      </trkpt>
      <trkpt lat="48.61409" lon="7.08058">
        <ele>327.6</ele>
        <time>2021-08-01T08:13:33Z</time>
      </trkpt>
      <trkpt lat="48.61409" lon="7.08059">
        <ele>327.6</ele>
        <time>2021-08-01T08:13:35Z</time>
      </trkpt>
      <trkpt lat="48.61408" lon="7.0806">
        <ele>327.6</ele>
        <time>2021-08-01T08:13:36Z</time>
      </trkpt>
      <trkpt lat="48.61408" lon="7.08061">
        <ele>327.6</ele>
        <time>2021-08-01T08:13:37Z</time>
      </trkpt>
      <trkpt lat="48.61407" lon="7.08064">
        <ele>327.5</ele>
        <time>2021-08-01T08:13:39Z</time>
      </trkpt>
      <trkpt lat="48.61406" lon="7.08065">
        <ele>327.5</ele>
        <time>2021-08-01T08:13:40Z</time>
      </trkpt>
      <trkpt lat="48.61406" lon="7.08067">
        <ele>327.4</ele>
        <time>2021-08-01T08:13:41Z</time>
      </trkpt>
      <trkpt lat="48.61405" lon="7.08072">
        <ele>327.3</ele>
        <time>2021-08-01T08:13:44Z</time>
      </trkpt>
      <trkpt lat="48.61407" lon="7.08073">
        <ele>327.3</ele>
        <time>2021-08-01T08:13:45Z</time>
      </trkpt>
      <trkpt lat="48.61406" lon="7.08077">
        <ele>327.2</ele>
        <time>2021-08-01T08:13:47Z</time>
      </trkpt>
      <trkpt lat="48.61406" lon="7.08079">
        <ele>327.1</ele>
        <time>2021-08-01T08:13:48Z</time>
      </trkpt>
      <trkpt lat="48.61406" lon="7.0808">
        <ele>327.1</ele>
        <time>2021-08-01T08:13:49Z</time>
      </trkpt>
      <trkpt lat="48.61405" lon="7.08085">
        <ele>327</ele>
        <time>2021-08-01T08:13:51Z</time>
      </trkpt>
      <trkpt lat="48.61405" lon="7.08085">
        <ele>327</ele>
        <time>2021-08-01T08:13:52Z</time>
      </trkpt>
      <trkpt lat="48.61406" lon="7.08084">
        <ele>327</ele>
        <time>2021-08-01T08:13:54Z</time>
      </trkpt>
      <trkpt lat="48.61406" lon="7.08083">
        <ele>327</ele>
        <time>2021-08-01T08:13:55Z</time>
      </trkpt>
      <trkpt lat="48.61406" lon="7.08082">
        <ele>326.9</ele>
        <time>2021-08-01T08:13:56Z</time>
      </trkpt>
      <trkpt lat="48.61406" lon="7.08079">
        <ele>326.9</ele>
        <time>2021-08-01T08:13:58Z</time>
      </trkpt>
      <trkpt lat="48.61414" lon="7.08066">
        <ele>327.3</ele>
        <time>2021-08-01T08:14:07Z</time>
      </trkpt>
      <trkpt lat="48.61416" lon="7.08062">
        <ele>327.5</ele>
        <time>2021-08-01T08:14:08Z</time>
      </trkpt>
      <trkpt lat="48.61419" lon="7.08055">
        <ele>327.7</ele>
        <time>2021-08-01T08:14:10Z</time>
      </trkpt>
      <trkpt lat="48.6142" lon="7.0805">
        <ele>327.9</ele>
        <time>2021-08-01T08:14:11Z</time>
      </trkpt>
      <trkpt lat="48.61421" lon="7.08042">
        <ele>328.1</ele>
        <time>2021-08-01T08:14:13Z</time>
      </trkpt>
      <trkpt lat="48.61422" lon="7.08037">
        <ele>328.2</ele>
        <time>2021-08-01T08:14:14Z</time>
      </trkpt>
      <trkpt lat="48.61423" lon="7.08033">
        <ele>328.3</ele>
        <time>2021-08-01T08:14:15Z</time>
      </trkpt>
      <trkpt lat="48.61425" lon="7.08028">
        <ele>328.4</ele>
        <time>2021-08-01T08:14:16Z</time>
      </trkpt>
      <trkpt lat="48.61425" lon="7.08026">
        <ele>328.5</ele>
        <time>2021-08-01T08:14:17Z</time>
      </trkpt>
      <trkpt lat="48.61427" lon="7.0802">
        <ele>328.6</ele>
        <time>2021-08-01T08:14:19Z</time>
      </trkpt>
      <trkpt lat="48.61428" lon="7.08017">
        <ele>328.7</ele>
        <time>2021-08-01T08:14:20Z</time>
      </trkpt>
      <trkpt lat="48.6143" lon="7.08011">
        <ele>328.8</ele>
        <time>2021-08-01T08:14:22Z</time>
      </trkpt>
      <trkpt lat="48.61431" lon="7.08007">
        <ele>328.9</ele>
        <time>2021-08-01T08:14:23Z</time>
      </trkpt>
      <trkpt lat="48.61432" lon="7.08004">
        <ele>329</ele>
        <time>2021-08-01T08:14:24Z</time>
      </trkpt>
      <trkpt lat="48.61434" lon="7.07998">
        <ele>329.1</ele>
        <time>2021-08-01T08:14:26Z</time>
      </trkpt>
      <trkpt lat="48.61434" lon="7.07995">
        <ele>329.2</ele>
        <time>2021-08-01T08:14:27Z</time>
      </trkpt>
      <trkpt lat="48.61435" lon="7.0799">
        <ele>329.3</ele>
        <time>2021-08-01T08:14:29Z</time>
      </trkpt>
      <trkpt lat="48.61436" lon="7.07985">
        <ele>329.4</ele>
        <time>2021-08-01T08:14:30Z</time>
      </trkpt>
      <trkpt lat="48.61436" lon="7.07984">
        <ele>329.4</ele>
        <time>2021-08-01T08:14:31Z</time>
      </trkpt>
      <trkpt lat="48.61436" lon="7.07981">
        <ele>329.5</ele>
        <time>2021-08-01T08:14:32Z</time>
      </trkpt>
      <trkpt lat="48.61437" lon="7.0798">
        <ele>329.5</ele>
        <time>2021-08-01T08:14:33Z</time>
      </trkpt>
      <trkpt lat="48.61435" lon="7.0798">
        <ele>329.5</ele>
        <time>2021-08-01T08:14:34Z</time>
      </trkpt>
      <trkpt lat="48.61435" lon="7.0798">
        <ele>329.6</ele>
        <time>2021-08-01T08:14:36Z</time>
      </trkpt>
      <trkpt lat="48.61436" lon="7.07979">
        <ele>329.6</ele>
        <time>2021-08-01T08:14:37Z</time>
      </trkpt>
      <trkpt lat="48.61435" lon="7.07979">
        <ele>329.6</ele>
        <time>2021-08-01T08:14:38Z</time>
      </trkpt>
      <trkpt lat="48.61436" lon="7.07978">
        <ele>329.6</ele>
        <time>2021-08-01T08:14:39Z</time>
      </trkpt>
      <trkpt lat="48.61436" lon="7.07977">
        <ele>329.6</ele>
        <time>2021-08-01T08:14:40Z</time>
      </trkpt>
      <trkpt lat="48.61436" lon="7.07976">
        <ele>329.6</ele>
        <time>2021-08-01T08:14:42Z</time>
      </trkpt>
      <trkpt lat="48.61437" lon="7.07975">
        <ele>329.7</ele>
        <time>2021-08-01T08:14:43Z</time>
      </trkpt>
      <trkpt lat="48.6144" lon="7.07973">
        <ele>329.8</ele>
        <time>2021-08-01T08:14:45Z</time>
      </trkpt>
      <trkpt lat="48.61443" lon="7.07971">
        <ele>329.9</ele>
        <time>2021-08-01T08:14:46Z</time>
      </trkpt>
      <trkpt lat="48.61454" lon="7.07964">
        <ele>330.2</ele>
        <time>2021-08-01T08:14:50Z</time>
      </trkpt>
      <trkpt lat="48.61456" lon="7.07963">
        <ele>330.3</ele>
        <time>2021-08-01T08:14:51Z</time>
      </trkpt>
      <trkpt lat="48.61463" lon="7.07961">
        <ele>330.5</ele>
        <time>2021-08-01T08:14:53Z</time>
      </trkpt>
      <trkpt lat="48.61468" lon="7.07958">
        <ele>330.7</ele>
        <time>2021-08-01T08:14:55Z</time>
      </trkpt>
      <trkpt lat="48.61474" lon="7.07955">
        <ele>330.8</ele>
        <time>2021-08-01T08:14:57Z</time>
      </trkpt>
      <trkpt lat="48.61478" lon="7.07952">
        <ele>331</ele>
        <time>2021-08-01T08:14:58Z</time>
      </trkpt>
      <trkpt lat="48.61481" lon="7.0795">
        <ele>331.1</ele>
        <time>2021-08-01T08:14:59Z</time>
      </trkpt>
      <trkpt lat="48.61485" lon="7.07947">
        <ele>331.2</ele>
        <time>2021-08-01T08:15:00Z</time>
      </trkpt>
      <trkpt lat="48.6149" lon="7.07944">
        <ele>331.4</ele>
        <time>2021-08-01T08:15:02Z</time>
      </trkpt>
      <trkpt lat="48.61493" lon="7.07944">
        <ele>331.5</ele>
        <time>2021-08-01T08:15:03Z</time>
      </trkpt>
      <trkpt lat="48.61493" lon="7.07946">
        <ele>331.6</ele>
        <time>2021-08-01T08:15:05Z</time>
      </trkpt>
      <trkpt lat="48.61494" lon="7.07947">
        <ele>331.6</ele>
        <time>2021-08-01T08:15:06Z</time>
      </trkpt>
      <trkpt lat="48.61494" lon="7.07948">
        <ele>331.7</ele>
        <time>2021-08-01T08:15:07Z</time>
      </trkpt>
      <trkpt lat="48.61494" lon="7.07949">
        <ele>331.7</ele>
        <time>2021-08-01T08:15:08Z</time>
      </trkpt>
      <trkpt lat="48.61495" lon="7.07951">
        <ele>331.8</ele>
        <time>2021-08-01T08:15:09Z</time>
      </trkpt>
      <trkpt lat="48.61496" lon="7.07954">
        <ele>332</ele>
        <time>2021-08-01T08:15:11Z</time>
      </trkpt>
      <trkpt lat="48.61497" lon="7.07956">
        <ele>332.1</ele>
        <time>2021-08-01T08:15:12Z</time>
      </trkpt>
      <trkpt lat="48.61565" lon="7.08037">
        <ele>355.9</ele>
        <time>2021-08-01T08:17:17Z</time>
      </trkpt>
      <trkpt lat="48.6157" lon="7.08046">
        <ele>356.8</ele>
        <time>2021-08-01T08:17:19Z</time>
      </trkpt>
      <trkpt lat="48.61575" lon="7.0805">
        <ele>357.3</ele>
        <time>2021-08-01T08:17:21Z</time>
      </trkpt>
      <trkpt lat="48.61581" lon="7.08057">
        <ele>358</ele>
        <time>2021-08-01T08:17:22Z</time>
      </trkpt>
      <trkpt lat="48.61594" lon="7.08072">
        <ele>359.5</ele>
        <time>2021-08-01T08:17:24Z</time>
      </trkpt>
      <trkpt lat="48.61602" lon="7.08085">
        <ele>360.6</ele>
        <time>2021-08-01T08:17:25Z</time>
      </trkpt>
      <trkpt lat="48.61608" lon="7.08097">
        <ele>361.4</ele>
        <time>2021-08-01T08:17:27Z</time>
      </trkpt>
      <trkpt lat="48.61609" lon="7.081">
        <ele>361.5</ele>
        <time>2021-08-01T08:17:28Z</time>
      </trkpt>
      <trkpt lat="48.6161" lon="7.081">
        <ele>361.4</ele>
        <time>2021-08-01T08:17:30Z</time>
      </trkpt>
      <trkpt lat="48.61529" lon="7.0801">
        <ele>348.1</ele>
        <time>2021-08-01T08:19:11Z</time>
      </trkpt>
      <trkpt lat="48.61528" lon="7.08007">
        <ele>347.9</ele>
        <time>2021-08-01T08:19:12Z</time>
      </trkpt>
      <trkpt lat="48.61527" lon="7.08003">
        <ele>347.4</ele>
        <time>2021-08-01T08:19:14Z</time>
      </trkpt>
      <trkpt lat="48.61526" lon="7.07995">
        <ele>346.5</ele>
        <time>2021-08-01T08:19:15Z</time>
      </trkpt>
      <trkpt lat="48.61532" lon="7.08004">
        <ele>345</ele>
        <time>2021-08-01T08:19:16Z</time>
      </trkpt>
      <trkpt lat="48.61538" lon="7.08015">
        <ele>350</ele>
        <time>2021-08-01T08:19:18Z</time>
      </trkpt>
      <trkpt lat="48.61546" lon="7.08028">
        <ele>353.4</ele>
        <time>2021-08-01T08:19:19Z</time>
      </trkpt>
      <trkpt lat="48.61556" lon="7.08047">
        <ele>357.7</ele>
        <time>2021-08-01T08:19:21Z</time>
      </trkpt>
      <trkpt lat="48.61559" lon="7.08058">
        <ele>359.4</ele>
        <time>2021-08-01T08:19:22Z</time>
      </trkpt>
      <trkpt lat="48.61562" lon="7.08066">
        <ele>360.7</ele>
        <time>2021-08-01T08:19:24Z</time>
      </trkpt>
      <trkpt lat="48.61564" lon="7.0807">
        <ele>361.4</ele>
        <time>2021-08-01T08:19:25Z</time>
      </trkpt>
      <trkpt lat="48.61565" lon="7.08073">
        <ele>361.8</ele>
        <time>2021-08-01T08:19:26Z</time>
      </trkpt>
      <trkpt lat="48.61568" lon="7.08079">
        <ele>362.8</ele>
        <time>2021-08-01T08:19:28Z</time>
      </trkpt>
      <trkpt lat="48.61571" lon="7.08085">
        <ele>363.8</ele>
        <time>2021-08-01T08:19:29Z</time>
      </trkpt>
      <trkpt lat="48.61573" lon="7.0809">
        <ele>364.4</ele>
        <time>2021-08-01T08:19:30Z</time>
      </trkpt>
      <trkpt lat="48.61575" lon="7.08091">
        <ele>364.7</ele>
        <time>2021-08-01T08:19:31Z</time>
      </trkpt>
      <trkpt lat="48.61577" lon="7.08093">
        <ele>365.1</ele>
        <time>2021-08-01T08:19:33Z</time>
      </trkpt>
      <trkpt lat="48.61578" lon="7.08095">
        <ele>365.4</ele>
        <time>2021-08-01T08:19:34Z</time>
      </trkpt>
      <trkpt lat="48.61579" lon="7.08096">
        <ele>365.5</ele>
        <time>2021-08-01T08:19:36Z</time>
      </trkpt>
      <trkpt lat="48.6158" lon="7.08096">
        <ele>365.6</ele>
        <time>2021-08-01T08:19:37Z</time>
      </trkpt>
      <trkpt lat="48.6158" lon="7.08096">
        <ele>365.7</ele>
        <time>2021-08-01T08:19:38Z</time>
      </trkpt>
      <trkpt lat="48.6158" lon="7.08096">
        <ele>365.7</ele>
        <time>2021-08-01T08:19:39Z</time>
      </trkpt>
      <trkpt lat="48.61579" lon="7.08094">
        <ele>365.9</ele>
        <time>2021-08-01T08:19:41Z</time>
      </trkpt>
      <trkpt lat="48.6157" lon="7.08249">
        <ele>380.6</ele>
        <time>2021-08-01T08:23:44Z</time>
      </trkpt>
      <trkpt lat="48.61572" lon="7.08252">
        <ele>380.7</ele>
        <time>2021-08-01T08:23:45Z</time>
      </trkpt>
      <trkpt lat="48.61573" lon="7.08254">
        <ele>380.7</ele>
        <time>2021-08-01T08:23:46Z</time>
      </trkpt>
      <trkpt lat="48.61575" lon="7.08258">
        <ele>380.8</ele>
        <time>2021-08-01T08:23:47Z</time>
      </trkpt>
      <trkpt lat="48.61576" lon="7.0826">
        <ele>380.9</ele>
        <time>2021-08-01T08:23:48Z</time>
      </trkpt>
      <trkpt lat="48.61577" lon="7.0826">
        <ele>380.9</ele>
        <time>2021-08-01T08:23:49Z</time>
      </trkpt>
      <trkpt lat="48.61581" lon="7.08263">
        <ele>381.1</ele>
        <time>2021-08-01T08:23:51Z</time>
      </trkpt>
      <trkpt lat="48.61583" lon="7.08265">
        <ele>381.2</ele>
        <time>2021-08-01T08:23:52Z</time>
      </trkpt>
      <trkpt lat="48.61586" lon="7.08267">
        <ele>381.4</ele>
        <time>2021-08-01T08:23:54Z</time>
      </trkpt>
      <trkpt lat="48.61589" lon="7.08269">
        <ele>381.5</ele>
        <time>2021-08-01T08:23:55Z</time>
      </trkpt>
      <trkpt lat="48.61592" lon="7.08269">
        <ele>381.6</ele>
        <time>2021-08-01T08:23:56Z</time>
      </trkpt>
      <trkpt lat="48.61595" lon="7.08268">
        <ele>381.8</ele>
        <time>2021-08-01T08:23:58Z</time>
      </trkpt>
      <trkpt lat="48.61598" lon="7.08268">
        <ele>381.9</ele>
        <time>2021-08-01T08:23:59Z</time>
      </trkpt>
      <trkpt lat="48.61599" lon="7.08268">
        <ele>381.9</ele>
        <time>2021-08-01T08:24:00Z</time>
      </trkpt>
      <trkpt lat="48.616" lon="7.08269">
        <ele>381.9</ele>
        <time>2021-08-01T08:24:01Z</time>
      </trkpt>
      <trkpt lat="48.61601" lon="7.0827">
        <ele>382</ele>
        <time>2021-08-01T08:24:02Z</time>
      </trkpt>
      <trkpt lat="48.61601" lon="7.08271">
        <ele>382</ele>
        <time>2021-08-01T08:24:04Z</time>
      </trkpt>
      <trkpt lat="48.61602" lon="7.08273">
        <ele>382.1</ele>
        <time>2021-08-01T08:24:06Z</time>
      </trkpt>
      <trkpt lat="48.61603" lon="7.08274">
        <ele>382.1</ele>
        <time>2021-08-01T08:24:07Z</time>
      </trkpt>
      <trkpt lat="48.61604" lon="7.08274">
        <ele>382.2</ele>
        <time>2021-08-01T08:24:08Z</time>
      </trkpt>
      <trkpt lat="48.61607" lon="7.08275">
        <ele>382.3</ele>
        <time>2021-08-01T08:24:10Z</time>
      </trkpt>
      <trkpt lat="48.6161" lon="7.08277">
        <ele>382.4</ele>
        <time>2021-08-01T08:24:11Z</time>
      </trkpt>
      <trkpt lat="48.61611" lon="7.08278">
        <ele>382.5</ele>
        <time>2021-08-01T08:24:12Z</time>
      </trkpt>
      <trkpt lat="48.61614" lon="7.0828">
        <ele>382.6</ele>
        <time>2021-08-01T08:24:13Z</time>
      </trkpt>
      <trkpt lat="48.61615" lon="7.08283">
        <ele>382.7</ele>
        <time>2021-08-01T08:24:15Z</time>
      </trkpt>
      <trkpt lat="48.61617" lon="7.08287">
        <ele>382.8</ele>
        <time>2021-08-01T08:24:16Z</time>
      </trkpt>
      <trkpt lat="48.61618" lon="7.08288">
        <ele>382.9</ele>
        <time>2021-08-01T08:24:17Z</time>
      </trkpt>
      <trkpt lat="48.61618" lon="7.0829">
        <ele>382.9</ele>
        <time>2021-08-01T08:24:18Z</time>
      </trkpt>
      <trkpt lat="48.61619" lon="7.08291">
        <ele>383</ele>
        <time>2021-08-01T08:24:19Z</time>
      </trkpt>
      <trkpt lat="48.61619" lon="7.08292">
        <ele>383</ele>
        <time>2021-08-01T08:24:21Z</time>
      </trkpt>
      <trkpt lat="48.6162" lon="7.08293">
        <ele>383.1</ele>
        <time>2021-08-01T08:24:22Z</time>
      </trkpt>
      <trkpt lat="48.61622" lon="7.08295">
        <ele>383.2</ele>
        <time>2021-08-01T08:24:23Z</time>
      </trkpt>
      <trkpt lat="48.61625" lon="7.08299">
        <ele>383.4</ele>
        <time>2021-08-01T08:24:25Z</time>
      </trkpt>
      <trkpt lat="48.61629" lon="7.08302">
        <ele>383.6</ele>
        <time>2021-08-01T08:24:26Z</time>
      </trkpt>
      <trkpt lat="48.6163" lon="7.08303">
        <ele>383.6</ele>
        <time>2021-08-01T08:24:27Z</time>
      </trkpt>
      <trkpt lat="48.61634" lon="7.08306">
        <ele>383.9</ele>
        <time>2021-08-01T08:24:28Z</time>
      </trkpt>
      <trkpt lat="48.61636" lon="7.08309">
        <ele>384.1</ele>
        <time>2021-08-01T08:24:29Z</time>
      </trkpt>
      <trkpt lat="48.61643" lon="7.08314">
        <ele>384.6</ele>
        <time>2021-08-01T08:24:31Z</time>
      </trkpt>
      <trkpt lat="48.61646" lon="7.08316">
        <ele>384.8</ele>
        <time>2021-08-01T08:24:32Z</time>
      </trkpt>
      <trkpt lat="48.61649" lon="7.08317">
        <ele>385</ele>
        <time>2021-08-01T08:24:33Z</time>
      </trkpt>
      <trkpt lat="48.61654" lon="7.08319">
        <ele>385.4</ele>
        <time>2021-08-01T08:24:35Z</time>
      </trkpt>
      <trkpt lat="48.61657" lon="7.08322">
        <ele>385.7</ele>
        <time>2021-08-01T08:24:36Z</time>
      </trkpt>
      <trkpt lat="48.61659" lon="7.08323">
        <ele>385.9</ele>
        <time>2021-08-01T08:24:38Z</time>
      </trkpt>
      <trkpt lat="48.6166" lon="7.08323">
        <ele>386</ele>
        <time>2021-08-01T08:24:39Z</time>
      </trkpt>
      <trkpt lat="48.61661" lon="7.08324">
        <ele>386.1</ele>
        <time>2021-08-01T08:24:40Z</time>
      </trkpt>
      <trkpt lat="48.61662" lon="7.08324">
        <ele>386.2</ele>
        <time>2021-08-01T08:24:41Z</time>
      </trkpt>
      <trkpt lat="48.61664" lon="7.08324">
        <ele>386.4</ele>
        <time>2021-08-01T08:24:43Z</time>
      </trkpt>
      <trkpt lat="48.61668" lon="7.08325">
        <ele>386.8</ele>
        <time>2021-08-01T08:24:44Z</time>
      </trkpt>
      <trkpt lat="48.6167" lon="7.08325">
        <ele>387</ele>
        <time>2021-08-01T08:24:45Z</time>
      </trkpt>
      <trkpt lat="48.61672" lon="7.08326">
        <ele>387.3</ele>
        <time>2021-08-01T08:24:47Z</time>
      </trkpt>
      <trkpt lat="48.61675" lon="7.08328">
        <ele>387.7</ele>
        <time>2021-08-01T08:24:48Z</time>
      </trkpt>
      <trkpt lat="48.61676" lon="7.08328">
        <ele>387.8</ele>
        <time>2021-08-01T08:24:49Z</time>
      </trkpt>
      <trkpt lat="48.61678" lon="7.08331">
        <ele>388.1</ele>
        <time>2021-08-01T08:24:50Z</time>
      </trkpt>
      <trkpt lat="48.61678" lon="7.08332">
        <ele>388.2</ele>
        <time>2021-08-01T08:24:51Z</time>
      </trkpt>
      <trkpt lat="48.61678" lon="7.08333">
        <ele>388.3</ele>
        <time>2021-08-01T08:24:52Z</time>
      </trkpt>
      <trkpt lat="48.61678" lon="7.08335">
        <ele>388.5</ele>
        <time>2021-08-01T08:24:54Z</time>
      </trkpt>
      <trkpt lat="48.61678" lon="7.08336">
        <ele>388.5</ele>
        <time>2021-08-01T08:24:55Z</time>
      </trkpt>
      <trkpt lat="48.61678" lon="7.08336">
        <ele>388.6</ele>
        <time>2021-08-01T08:24:56Z</time>
      </trkpt>
      <trkpt lat="48.61678" lon="7.08337">
        <ele>388.6</ele>
        <time>2021-08-01T08:24:58Z</time>
      </trkpt>
      <trkpt lat="48.61678" lon="7.08337">
        <ele>388.6</ele>
        <time>2021-08-01T08:24:59Z</time>
      </trkpt>
      <trkpt lat="48.61686" lon="7.08373">
        <ele>391</ele>
        <time>2021-08-01T08:25:20Z</time>
      </trkpt>
      <trkpt lat="48.6169" lon="7.08375">
        <ele>391.2</ele>
        <time>2021-08-01T08:25:22Z</time>
      </trkpt>
      <trkpt lat="48.61694" lon="7.08376">
        <ele>391.5</ele>
        <time>2021-08-01T08:25:23Z</time>
      </trkpt>
      <trkpt lat="48.61697" lon="7.08376">
        <ele>391.6</ele>
        <time>2021-08-01T08:25:24Z</time>
      </trkpt>
      <trkpt lat="48.617" lon="7.08376">
        <ele>391.8</ele>
        <time>2021-08-01T08:25:25Z</time>
      </trkpt>
      <trkpt lat="48.61703" lon="7.08376">
        <ele>391.9</ele>
        <time>2021-08-01T08:25:26Z</time>
      </trkpt>
      <trkpt lat="48.61705" lon="7.08377">
        <ele>392</ele>
        <time>2021-08-01T08:25:27Z</time>
      </trkpt>
      <trkpt lat="48.61709" lon="7.0838">
        <ele>392.2</ele>
        <time>2021-08-01T08:25:29Z</time>
      </trkpt>
      <trkpt lat="48.6171" lon="7.08382">
        <ele>392.3</ele>
        <time>2021-08-01T08:25:30Z</time>
      </trkpt>
      <trkpt lat="48.6171" lon="7.08384">
        <ele>392.4</ele>
        <time>2021-08-01T08:25:32Z</time>
      </trkpt>
      <trkpt lat="48.61711" lon="7.08384">
        <ele>392.4</ele>
        <time>2021-08-01T08:25:33Z</time>
      </trkpt>
      <trkpt lat="48.61711" lon="7.08385">
        <ele>392.4</ele>
        <time>2021-08-01T08:25:34Z</time>
      </trkpt>
      <trkpt lat="48.61712" lon="7.08386">
        <ele>392.5</ele>
        <time>2021-08-01T08:25:35Z</time>
      </trkpt>
      <trkpt lat="48.61712" lon="7.08387">
        <ele>392.5</ele>
        <time>2021-08-01T08:25:36Z</time>
      </trkpt>
      <trkpt lat="48.61712" lon="7.08388">
        <ele>392.5</ele>
        <time>2021-08-01T08:25:37Z</time>
      </trkpt>
      <trkpt lat="48.61713" lon="7.08389">
        <ele>392.6</ele>
        <time>2021-08-01T08:25:39Z</time>
      </trkpt>
      <trkpt lat="48.61713" lon="7.0839">
        <ele>392.7</ele>
        <time>2021-08-01T08:25:40Z</time>
      </trkpt>
      <trkpt lat="48.61712" lon="7.08422">
        <ele>393.4</ele>
        <time>2021-08-01T08:25:54Z</time>
      </trkpt>
      <trkpt lat="48.61711" lon="7.08427">
        <ele>393.7</ele>
        <time>2021-08-01T08:25:56Z</time>
      </trkpt>
      <trkpt lat="48.6171" lon="7.08429">
        <ele>393.9</ele>
        <time>2021-08-01T08:25:57Z</time>
      </trkpt>
      <trkpt lat="48.6171" lon="7.08431">
        <ele>394.1</ele>
        <time>2021-08-01T08:25:58Z</time>
      </trkpt>
      <trkpt lat="48.61709" lon="7.08433">
        <ele>394.2</ele>
        <time>2021-08-01T08:25:59Z</time>
      </trkpt>
      <trkpt lat="48.61709" lon="7.08434">
        <ele>394.3</ele>
        <time>2021-08-01T08:26:00Z</time>
      </trkpt>
      <trkpt lat="48.61709" lon="7.08436">
        <ele>394.4</ele>
        <time>2021-08-01T08:26:01Z</time>
      </trkpt>
      <trkpt lat="48.61709" lon="7.08436">
        <ele>394.5</ele>
        <time>2021-08-01T08:26:02Z</time>
      </trkpt>
      <trkpt lat="48.61708" lon="7.08437">
        <ele>394.5</ele>
        <time>2021-08-01T08:26:04Z</time>
      </trkpt>
      <trkpt lat="48.6171" lon="7.08437">
        <ele>394.7</ele>
        <time>2021-08-01T08:26:06Z</time>
      </trkpt>
      <trkpt lat="48.61712" lon="7.08437">
        <ele>394.9</ele>
        <time>2021-08-01T08:26:07Z</time>
      </trkpt>
      <trkpt lat="48.61713" lon="7.08437">
        <ele>395</ele>
        <time>2021-08-01T08:26:08Z</time>
      </trkpt>
      <trkpt lat="48.61714" lon="7.08436">
        <ele>395.1</ele>
        <time>2021-08-01T08:26:09Z</time>
      </trkpt>
      <trkpt lat="48.61715" lon="7.08436">
        <ele>395.2</ele>
        <time>2021-08-01T08:26:10Z</time>
      </trkpt>
      <trkpt lat="48.61717" lon="7.08436">
        <ele>395.5</ele>
        <time>2021-08-01T08:26:11Z</time>
      </trkpt>
      <trkpt lat="48.61719" lon="7.08437">
        <ele>395.7</ele>
        <time>2021-08-01T08:26:12Z</time>
      </trkpt>
      <trkpt lat="48.6172" lon="7.08437">
        <ele>395.8</ele>
        <time>2021-08-01T08:26:14Z</time>
      </trkpt>
      <trkpt lat="48.61722" lon="7.08437">
        <ele>396</ele>
        <time>2021-08-01T08:26:15Z</time>
      </trkpt>
      <trkpt lat="48.61723" lon="7.08437">
        <ele>396.2</ele>
        <time>2021-08-01T08:26:16Z</time>
      </trkpt>
      <trkpt lat="48.61724" lon="7.08438">
        <ele>396.3</ele>
        <time>2021-08-01T08:26:17Z</time>
      </trkpt>
      <trkpt lat="48.61735" lon="7.08439">
        <ele>397.5</ele>
        <time>2021-08-01T08:26:18Z</time>
      </trkpt>
      <trkpt lat="48.61736" lon="7.08439">
        <ele>397.7</ele>
        <time>2021-08-01T08:26:19Z</time>
      </trkpt>
      <trkpt lat="48.61738" lon="7.08439">
        <ele>397.8</ele>
        <time>2021-08-01T08:26:21Z</time>
      </trkpt>
      <trkpt lat="48.61738" lon="7.08439">
        <ele>397.9</ele>
        <time>2021-08-01T08:26:22Z</time>
      </trkpt>
      <trkpt lat="48.61739" lon="7.0844">
        <ele>398</ele>
        <time>2021-08-01T08:26:24Z</time>
      </trkpt>
      <trkpt lat="48.6174" lon="7.08441">
        <ele>398.1</ele>
        <time>2021-08-01T08:26:25Z</time>
      </trkpt>
      <trkpt lat="48.61742" lon="7.08443">
        <ele>398.3</ele>
        <time>2021-08-01T08:26:26Z</time>
      </trkpt>
      <trkpt lat="48.61745" lon="7.08448">
        <ele>398.7</ele>
        <time>2021-08-01T08:26:28Z</time>
      </trkpt>
      <trkpt lat="48.61747" lon="7.08451">
        <ele>399.1</ele>
        <time>2021-08-01T08:26:29Z</time>
      </trkpt>
      <trkpt lat="48.61749" lon="7.08456">
        <ele>399.4</ele>
        <time>2021-08-01T08:26:30Z</time>
      </trkpt>
      <trkpt lat="48.6175" lon="7.08457">
        <ele>399.5</ele>
        <time>2021-08-01T08:26:31Z</time>
      </trkpt>
      <trkpt lat="48.61752" lon="7.08464">
        <ele>400</ele>
        <time>2021-08-01T08:26:33Z</time>
      </trkpt>
      <trkpt lat="48.61754" lon="7.08473">
        <ele>400.6</ele>
        <time>2021-08-01T08:26:35Z</time>
      </trkpt>
      <trkpt lat="48.61754" lon="7.08479">
        <ele>401</ele>
        <time>2021-08-01T08:26:36Z</time>
      </trkpt>
      <trkpt lat="48.61754" lon="7.08482">
        <ele>401.2</ele>
        <time>2021-08-01T08:26:37Z</time>
      </trkpt>
      <trkpt lat="48.61749" lon="7.08495">
        <ele>402.1</ele>
        <time>2021-08-01T08:26:39Z</time>
      </trkpt>
      <trkpt lat="48.61747" lon="7.08503">
        <ele>402.5</ele>
        <time>2021-08-01T08:26:40Z</time>
      </trkpt>
      <trkpt lat="48.61746" lon="7.08505">
        <ele>402.7</ele>
        <time>2021-08-01T08:26:41Z</time>
      </trkpt>
      <trkpt lat="48.61745" lon="7.08509">
        <ele>402.9</ele>
        <time>2021-08-01T08:26:43Z</time>
      </trkpt>
      <trkpt lat="48.61745" lon="7.08511">
        <ele>403</ele>
        <time>2021-08-01T08:26:44Z</time>
      </trkpt>
      <trkpt lat="48.61745" lon="7.08514">
        <ele>403.1</ele>
        <time>2021-08-01T08:26:45Z</time>
      </trkpt>
      <trkpt lat="48.61745" lon="7.08517">
        <ele>403.3</ele>
        <time>2021-08-01T08:26:46Z</time>
      </trkpt>
      <trkpt lat="48.61746" lon="7.08526">
        <ele>403.8</ele>
        <time>2021-08-01T08:26:49Z</time>
      </trkpt>
      <trkpt lat="48.61746" lon="7.08536">
        <ele>404.3</ele>
        <time>2021-08-01T08:26:51Z</time>
      </trkpt>
      <trkpt lat="48.61747" lon="7.08538">
        <ele>404.5</ele>
        <time>2021-08-01T08:26:52Z</time>
      </trkpt>
      <trkpt lat="48.61747" lon="7.0854">
        <ele>404.5</ele>
        <time>2021-08-01T08:26:53Z</time>
      </trkpt>
      <trkpt lat="48.61746" lon="7.08542">
        <ele>404.6</ele>
        <time>2021-08-01T08:26:55Z</time>
      </trkpt>
      <trkpt lat="48.61749" lon="7.08546">
        <ele>405</ele>
        <time>2021-08-01T08:26:56Z</time>
      </trkpt>
      <trkpt lat="48.61751" lon="7.08548">
        <ele>405.2</ele>
        <time>2021-08-01T08:26:57Z</time>
      </trkpt>
      <trkpt lat="48.61754" lon="7.08551">
        <ele>405.5</ele>
        <time>2021-08-01T08:26:58Z</time>
      </trkpt>
      <trkpt lat="48.61756" lon="7.08553">
        <ele>405.8</ele>
        <time>2021-08-01T08:27:00Z</time>
      </trkpt>
      <trkpt lat="48.61759" lon="7.08556">
        <ele>406</ele>
        <time>2021-08-01T08:27:01Z</time>
      </trkpt>
      <trkpt lat="48.61761" lon="7.08559">
        <ele>406.3</ele>
        <time>2021-08-01T08:27:25Z</time>
      </trkpt>
      <trkpt lat="48.61764" lon="7.08561">
        <ele>406.6</ele>
        <time>2021-08-01T08:27:27Z</time>
      </trkpt>
      <trkpt lat="48.61766" lon="7.08564">
        <ele>407</ele>
        <time>2021-08-01T08:27:28Z</time>
      </trkpt>
      <trkpt lat="48.61769" lon="7.08566">
        <ele>407.3</ele>
        <time>2021-08-01T08:27:29Z</time>
      </trkpt>
      <trkpt lat="48.6177" lon="7.08568">
        <ele>407.4</ele>
        <time>2021-08-01T08:27:30Z</time>
      </trkpt>
      <trkpt lat="48.61771" lon="7.0857">
        <ele>407.6</ele>
        <time>2021-08-01T08:27:31Z</time>
      </trkpt>
      <trkpt lat="48.61772" lon="7.08571">
        <ele>407.7</ele>
        <time>2021-08-01T08:27:32Z</time>
      </trkpt>
      <trkpt lat="48.61773" lon="7.08572">
        <ele>407.9</ele>
        <time>2021-08-01T08:27:34Z</time>
      </trkpt>
      <trkpt lat="48.61774" lon="7.08572">
        <ele>407.9</ele>
        <time>2021-08-01T08:27:35Z</time>
      </trkpt>
      <trkpt lat="48.61775" lon="7.08573">
        <ele>408</ele>
        <time>2021-08-01T08:27:37Z</time>
      </trkpt>
      <trkpt lat="48.61776" lon="7.08574">
        <ele>408.2</ele>
        <time>2021-08-01T08:27:38Z</time>
      </trkpt>
      <trkpt lat="48.61777" lon="7.08576">
        <ele>408.4</ele>
        <time>2021-08-01T08:27:40Z</time>
      </trkpt>
      <trkpt lat="48.61778" lon="7.08578">
        <ele>408.5</ele>
        <time>2021-08-01T08:27:41Z</time>
      </trkpt>
      <trkpt lat="48.61778" lon="7.08579">
        <ele>408.6</ele>
        <time>2021-08-01T08:27:42Z</time>
      </trkpt>
      <trkpt lat="48.61779" lon="7.08579">
        <ele>408.6</ele>
        <time>2021-08-01T08:27:43Z</time>
      </trkpt>
      <trkpt lat="48.61779" lon="7.08581">
        <ele>408.7</ele>
        <time>2021-08-01T08:27:44Z</time>
      </trkpt>
      <trkpt lat="48.61779" lon="7.08582">
        <ele>408.8</ele>
        <time>2021-08-01T08:27:45Z</time>
      </trkpt>
      <trkpt lat="48.6178" lon="7.08584">
        <ele>409</ele>
        <time>2021-08-01T08:27:47Z</time>
      </trkpt>
      <trkpt lat="48.6178" lon="7.08585">
        <ele>409.1</ele>
        <time>2021-08-01T08:27:48Z</time>
      </trkpt>
      <trkpt lat="48.61781" lon="7.08587">
        <ele>409.2</ele>
        <time>2021-08-01T08:27:50Z</time>
      </trkpt>
      <trkpt lat="48.61781" lon="7.08587">
        <ele>409.2</ele>
        <time>2021-08-01T08:27:51Z</time>
      </trkpt>
      <trkpt lat="48.61781" lon="7.08588">
        <ele>409.3</ele>
        <time>2021-08-01T08:27:52Z</time>
      </trkpt>
      <trkpt lat="48.61781" lon="7.08589">
        <ele>409.3</ele>
        <time>2021-08-01T08:27:53Z</time>
      </trkpt>
      <trkpt lat="48.61781" lon="7.08589">
        <ele>409.3</ele>
        <time>2021-08-01T08:27:54Z</time>
      </trkpt>
      <trkpt lat="48.61781" lon="7.08589">
        <ele>409.4</ele>
        <time>2021-08-01T08:27:55Z</time>
      </trkpt>
      <trkpt lat="48.61781" lon="7.0859">
        <ele>409.4</ele>
        <time>2021-08-01T08:27:56Z</time>
      </trkpt>
      <trkpt lat="48.61781" lon="7.0859">
        <ele>409.4</ele>
        <time>2021-08-01T08:27:57Z</time>
      </trkpt>
      <trkpt lat="48.61781" lon="7.08591">
        <ele>409.5</ele>
        <time>2021-08-01T08:27:59Z</time>
      </trkpt>
      <trkpt lat="48.61783" lon="7.08593">
        <ele>409.7</ele>
        <time>2021-08-01T08:28:01Z</time>
      </trkpt>
      <trkpt lat="48.61783" lon="7.08594">
        <ele>409.8</ele>
        <time>2021-08-01T08:28:02Z</time>
      </trkpt>
      <trkpt lat="48.61784" lon="7.08596">
        <ele>410</ele>
        <time>2021-08-01T08:28:04Z</time>
      </trkpt>
      <trkpt lat="48.61784" lon="7.08598">
        <ele>410.1</ele>
        <time>2021-08-01T08:28:05Z</time>
      </trkpt>
      <trkpt lat="48.61784" lon="7.08599">
        <ele>410.2</ele>
        <time>2021-08-01T08:28:06Z</time>
      </trkpt>
      <trkpt lat="48.61784" lon="7.086">
        <ele>410.2</ele>
        <time>2021-08-01T08:28:07Z</time>
      </trkpt>
      <trkpt lat="48.61784" lon="7.08601">
        <ele>410.3</ele>
        <time>2021-08-01T08:28:08Z</time>
      </trkpt>
      <trkpt lat="48.61784" lon="7.08602">
        <ele>410.4</ele>
        <time>2021-08-01T08:28:10Z</time>
      </trkpt>
      <trkpt lat="48.61785" lon="7.08603">
        <ele>410.5</ele>
        <time>2021-08-01T08:28:12Z</time>
      </trkpt>
      <trkpt lat="48.61785" lon="7.08604">
        <ele>410.6</ele>
        <time>2021-08-01T08:28:13Z</time>
      </trkpt>
      <trkpt lat="48.61786" lon="7.08606">
        <ele>410.7</ele>
        <time>2021-08-01T08:28:15Z</time>
      </trkpt>
      <trkpt lat="48.61787" lon="7.08607">
        <ele>410.8</ele>
        <time>2021-08-01T08:28:17Z</time>
      </trkpt>
      <trkpt lat="48.61787" lon="7.08608">
        <ele>410.9</ele>
        <time>2021-08-01T08:28:18Z</time>
      </trkpt>
      <trkpt lat="48.61787" lon="7.08609">
        <ele>411</ele>
        <time>2021-08-01T08:28:20Z</time>
      </trkpt>
      <trkpt lat="48.61787" lon="7.08612">
        <ele>411.2</ele>
        <time>2021-08-01T08:28:22Z</time>
      </trkpt>
      <trkpt lat="48.61788" lon="7.08616">
        <ele>411.5</ele>
        <time>2021-08-01T08:28:23Z</time>
      </trkpt>
      <trkpt lat="48.61788" lon="7.08618">
        <ele>411.6</ele>
        <time>2021-08-01T08:28:24Z</time>
      </trkpt>
      <trkpt lat="48.61788" lon="7.08622">
        <ele>411.9</ele>
        <time>2021-08-01T08:28:26Z</time>
      </trkpt>
      <trkpt lat="48.61789" lon="7.08627">
        <ele>412.3</ele>
        <time>2021-08-01T08:28:27Z</time>
      </trkpt>
      <trkpt lat="48.6179" lon="7.08631">
        <ele>412.6</ele>
        <time>2021-08-01T08:28:28Z</time>
      </trkpt>
      <trkpt lat="48.6179" lon="7.08633">
        <ele>412.7</ele>
        <time>2021-08-01T08:28:30Z</time>
      </trkpt>
      <trkpt lat="48.61791" lon="7.08634">
        <ele>412.8</ele>
        <time>2021-08-01T08:28:31Z</time>
      </trkpt>
      <trkpt lat="48.61791" lon="7.08636">
        <ele>412.9</ele>
        <time>2021-08-01T08:28:32Z</time>
      </trkpt>
      <trkpt lat="48.61792" lon="7.08637">
        <ele>413.1</ele>
        <time>2021-08-01T08:28:33Z</time>
      </trkpt>
      <trkpt lat="48.61796" lon="7.08648">
        <ele>414</ele>
        <time>2021-08-01T08:28:34Z</time>
      </trkpt>
      <trkpt lat="48.618" lon="7.08656">
        <ele>414.7</ele>
        <time>2021-08-01T08:28:35Z</time>
      </trkpt>
      <trkpt lat="48.61802" lon="7.08661">
        <ele>415.1</ele>
        <time>2021-08-01T08:28:36Z</time>
      </trkpt>
      <trkpt lat="48.61803" lon="7.08662">
        <ele>415.2</ele>
        <time>2021-08-01T08:28:37Z</time>
      </trkpt>
      <trkpt lat="48.61805" lon="7.08665">
        <ele>415.4</ele>
        <time>2021-08-01T08:28:39Z</time>
      </trkpt>
      <trkpt lat="48.61806" lon="7.08666">
        <ele>415.6</ele>
        <time>2021-08-01T08:28:40Z</time>
      </trkpt>
      <trkpt lat="48.61807" lon="7.08668">
        <ele>415.7</ele>
        <time>2021-08-01T08:28:42Z</time>
      </trkpt>
      <trkpt lat="48.61807" lon="7.08668">
        <ele>415.7</ele>
        <time>2021-08-01T08:28:43Z</time>
      </trkpt>
      <trkpt lat="48.61807" lon="7.08668">
        <ele>415.7</ele>
        <time>2021-08-01T08:28:44Z</time>
      </trkpt>
      <trkpt lat="48.61807" lon="7.08669">
        <ele>415.8</ele>
        <time>2021-08-01T08:28:46Z</time>
      </trkpt>
      <trkpt lat="48.61807" lon="7.08669">
        <ele>415.8</ele>
        <time>2021-08-01T08:28:47Z</time>
      </trkpt>
      <trkpt lat="48.61807" lon="7.08669">
        <ele>415.8</ele>
        <time>2021-08-01T08:28:49Z</time>
      </trkpt>
      <trkpt lat="48.61807" lon="7.08669">
        <ele>415.8</ele>
        <time>2021-08-01T08:28:50Z</time>
      </trkpt>
      <trkpt lat="48.61808" lon="7.0867">
        <ele>415.9</ele>
        <time>2021-08-01T08:28:51Z</time>
      </trkpt>
      <trkpt lat="48.61808" lon="7.08672">
        <ele>416</ele>
        <time>2021-08-01T08:28:52Z</time>
      </trkpt>
      <trkpt lat="48.61809" lon="7.08676">
        <ele>416.3</ele>
        <time>2021-08-01T08:28:54Z</time>
      </trkpt>
      <trkpt lat="48.61809" lon="7.08677">
        <ele>416.3</ele>
        <time>2021-08-01T08:28:55Z</time>
      </trkpt>
      <trkpt lat="48.6181" lon="7.08679">
        <ele>416.5</ele>
        <time>2021-08-01T08:28:57Z</time>
      </trkpt>
      <trkpt lat="48.6181" lon="7.0868">
        <ele>416.5</ele>
        <time>2021-08-01T08:28:58Z</time>
      </trkpt>
      <trkpt lat="48.6181" lon="7.08682">
        <ele>416.6</ele>
        <time>2021-08-01T08:28:59Z</time>
      </trkpt>
      <trkpt lat="48.61811" lon="7.08687">
        <ele>416.9</ele>
        <time>2021-08-01T08:29:01Z</time>
      </trkpt>
      <trkpt lat="48.61811" lon="7.0869">
        <ele>417.1</ele>
        <time>2021-08-01T08:29:02Z</time>
      </trkpt>
      <trkpt lat="48.61812" lon="7.08692">
        <ele>417.2</ele>
        <time>2021-08-01T08:29:03Z</time>
      </trkpt>
      <trkpt lat="48.61812" lon="7.08694">
        <ele>417.4</ele>
        <time>2021-08-01T08:29:04Z</time>
      </trkpt>
      <trkpt lat="48.61813" lon="7.08696">
        <ele>417.5</ele>
        <time>2021-08-01T08:29:05Z</time>
      </trkpt>
      <trkpt lat="48.61815" lon="7.087">
        <ele>417.8</ele>
        <time>2021-08-01T08:29:07Z</time>
      </trkpt>
      <trkpt lat="48.61817" lon="7.08702">
        <ele>417.9</ele>
        <time>2021-08-01T08:29:08Z</time>
      </trkpt>
      <trkpt lat="48.61818" lon="7.08704">
        <ele>418.1</ele>
        <time>2021-08-01T08:29:09Z</time>
      </trkpt>
      <trkpt lat="48.6182" lon="7.08707">
        <ele>418.3</ele>
        <time>2021-08-01T08:29:10Z</time>
      </trkpt>
      <trkpt lat="48.6182" lon="7.08708">
        <ele>418.4</ele>
        <time>2021-08-01T08:29:11Z</time>
      </trkpt>
      <trkpt lat="48.61821" lon="7.0871">
        <ele>418.5</ele>
        <time>2021-08-01T08:29:13Z</time>
      </trkpt>
      <trkpt lat="48.61822" lon="7.08712">
        <ele>418.6</ele>
        <time>2021-08-01T08:29:14Z</time>
      </trkpt>
      <trkpt lat="48.61824" lon="7.08713">
        <ele>418.7</ele>
        <time>2021-08-01T08:29:15Z</time>
      </trkpt>
      <trkpt lat="48.61825" lon="7.08715">
        <ele>418.9</ele>
        <time>2021-08-01T08:29:16Z</time>
      </trkpt>
      <trkpt lat="48.61828" lon="7.08719">
        <ele>419.1</ele>
        <time>2021-08-01T08:29:18Z</time>
      </trkpt>
      <trkpt lat="48.61828" lon="7.08721">
        <ele>419.2</ele>
        <time>2021-08-01T08:29:19Z</time>
      </trkpt>
      <trkpt lat="48.61831" lon="7.08727">
        <ele>419.5</ele>
        <time>2021-08-01T08:29:21Z</time>
      </trkpt>
      <trkpt lat="48.61835" lon="7.08734">
        <ele>419.8</ele>
        <time>2021-08-01T08:29:23Z</time>
      </trkpt>
      <trkpt lat="48.61838" lon="7.08738">
        <ele>419.9</ele>
        <time>2021-08-01T08:29:24Z</time>
      </trkpt>
      <trkpt lat="48.61845" lon="7.0875">
        <ele>420.2</ele>
        <time>2021-08-01T08:29:26Z</time>
      </trkpt>
      <trkpt lat="48.61847" lon="7.08754">
        <ele>420.3</ele>
        <time>2021-08-01T08:29:27Z</time>
      </trkpt>
      <trkpt lat="48.61848" lon="7.08755">
        <ele>420.3</ele>
        <time>2021-08-01T08:29:28Z</time>
      </trkpt>
      <trkpt lat="48.61849" lon="7.08757">
        <ele>420.3</ele>
        <time>2021-08-01T08:29:29Z</time>
      </trkpt>
      <trkpt lat="48.61851" lon="7.08761">
        <ele>420.4</ele>
        <time>2021-08-01T08:29:31Z</time>
      </trkpt>
      <trkpt lat="48.61853" lon="7.08767">
        <ele>420.5</ele>
        <time>2021-08-01T08:29:32Z</time>
      </trkpt>
      <trkpt lat="48.61854" lon="7.0877">
        <ele>420.5</ele>
        <time>2021-08-01T08:29:33Z</time>
      </trkpt>
      <trkpt lat="48.61856" lon="7.08774">
        <ele>420.5</ele>
        <time>2021-08-01T08:29:34Z</time>
      </trkpt>
      <trkpt lat="48.6186" lon="7.08778">
        <ele>420.6</ele>
        <time>2021-08-01T08:29:36Z</time>
      </trkpt>
      <trkpt lat="48.61862" lon="7.08781">
        <ele>420.7</ele>
        <time>2021-08-01T08:29:37Z</time>
      </trkpt>
      <trkpt lat="48.61863" lon="7.08782">
        <ele>420.7</ele>
        <time>2021-08-01T08:29:38Z</time>
      </trkpt>
      <trkpt lat="48.61868" lon="7.08788">
        <ele>420.8</ele>
        <time>2021-08-01T08:29:40Z</time>
      </trkpt>
      <trkpt lat="48.61871" lon="7.08792">
        <ele>420.9</ele>
        <time>2021-08-01T08:29:41Z</time>
      </trkpt>
      <trkpt lat="48.61874" lon="7.08795">
        <ele>421</ele>
        <time>2021-08-01T08:29:42Z</time>
      </trkpt>
      <trkpt lat="48.61878" lon="7.08798">
        <ele>421</ele>
        <time>2021-08-01T08:29:43Z</time>
      </trkpt>
      <trkpt lat="48.61881" lon="7.08801">
        <ele>421.1</ele>
        <time>2021-08-01T08:29:44Z</time>
      </trkpt>
      <trkpt lat="48.61884" lon="7.08804">
        <ele>421.2</ele>
        <time>2021-08-01T08:29:45Z</time>
      </trkpt>
      <trkpt lat="48.61889" lon="7.08809">
        <ele>421.4</ele>
        <time>2021-08-01T08:29:47Z</time>
      </trkpt>
      <trkpt lat="48.61891" lon="7.08811">
        <ele>421.5</ele>
        <time>2021-08-01T08:29:48Z</time>
      </trkpt>
      <trkpt lat="48.61893" lon="7.08814">
        <ele>421.6</ele>
        <time>2021-08-01T08:29:49Z</time>
      </trkpt>
      <trkpt lat="48.61896" lon="7.08817">
        <ele>421.7</ele>
        <time>2021-08-01T08:29:50Z</time>
      </trkpt>
      <trkpt lat="48.619" lon="7.08822">
        <ele>421.8</ele>
        <time>2021-08-01T08:29:52Z</time>
      </trkpt>
      <trkpt lat="48.61902" lon="7.08824">
        <ele>421.9</ele>
        <time>2021-08-01T08:29:53Z</time>
      </trkpt>
      <trkpt lat="48.61905" lon="7.08829">
        <ele>422</ele>
        <time>2021-08-01T08:29:55Z</time>
      </trkpt>
      <trkpt lat="48.61908" lon="7.08831">
        <ele>422.1</ele>
        <time>2021-08-01T08:29:56Z</time>
      </trkpt>
      <trkpt lat="48.61911" lon="7.08836">
        <ele>422.2</ele>
        <time>2021-08-01T08:29:58Z</time>
      </trkpt>
      <trkpt lat="48.61913" lon="7.08841">
        <ele>422.2</ele>
        <time>2021-08-01T08:29:59Z</time>
      </trkpt>
      <trkpt lat="48.61914" lon="7.08842">
        <ele>422.3</ele>
        <time>2021-08-01T08:30:00Z</time>
      </trkpt>
      <trkpt lat="48.61916" lon="7.08843">
        <ele>422.3</ele>
        <time>2021-08-01T08:30:01Z</time>
      </trkpt>
      <trkpt lat="48.61917" lon="7.08845">
        <ele>422.3</ele>
        <time>2021-08-01T08:30:02Z</time>
      </trkpt>
      <trkpt lat="48.61918" lon="7.08847">
        <ele>422.3</ele>
        <time>2021-08-01T08:30:03Z</time>
      </trkpt>
      <trkpt lat="48.61919" lon="7.08848">
        <ele>422.3</ele>
        <time>2021-08-01T08:30:04Z</time>
      </trkpt>
      <trkpt lat="48.61919" lon="7.0885">
        <ele>422.3</ele>
        <time>2021-08-01T08:30:06Z</time>
      </trkpt>
      <trkpt lat="48.6192" lon="7.08851">
        <ele>422.3</ele>
        <time>2021-08-01T08:30:07Z</time>
      </trkpt>
      <trkpt lat="48.61923" lon="7.08855">
        <ele>422</ele>
        <time>2021-08-01T08:30:08Z</time>
      </trkpt>
      <trkpt lat="48.61923" lon="7.08857">
        <ele>421.9</ele>
        <time>2021-08-01T08:30:09Z</time>
      </trkpt>
      <trkpt lat="48.61924" lon="7.0886">
        <ele>421.8</ele>
        <time>2021-08-01T08:30:10Z</time>
      </trkpt>
      <trkpt lat="48.61926" lon="7.08867">
        <ele>421.7</ele>
        <time>2021-08-01T08:30:12Z</time>
      </trkpt>
      <trkpt lat="48.61926" lon="7.08874">
        <ele>421.6</ele>
        <time>2021-08-01T08:30:14Z</time>
      </trkpt>
      <trkpt lat="48.61926" lon="7.08879">
        <ele>421.4</ele>
        <time>2021-08-01T08:30:16Z</time>
      </trkpt>
      <trkpt lat="48.61927" lon="7.08881">
        <ele>421.4</ele>
        <time>2021-08-01T08:30:17Z</time>
      </trkpt>
      <trkpt lat="48.61928" lon="7.0888">
        <ele>421.4</ele>
        <time>2021-08-01T08:30:19Z</time>
      </trkpt>
      <trkpt lat="48.61928" lon="7.0888">
        <ele>421.4</ele>
        <time>2021-08-01T08:30:20Z</time>
      </trkpt>
      <trkpt lat="48.61928" lon="7.08879">
        <ele>421.4</ele>
        <time>2021-08-01T08:30:21Z</time>
      </trkpt>
      <trkpt lat="48.61928" lon="7.08879">
        <ele>421.4</ele>
        <time>2021-08-01T08:30:23Z</time>
      </trkpt>
      <trkpt lat="48.61928" lon="7.08879">
        <ele>421.4</ele>
        <time>2021-08-01T08:30:25Z</time>
      </trkpt>
      <trkpt lat="48.61928" lon="7.08879">
        <ele>421.4</ele>
        <time>2021-08-01T08:30:26Z</time>
      </trkpt>
      <trkpt lat="48.61926" lon="7.08888">
        <ele>421.2</ele>
        <time>2021-08-01T08:31:20Z</time>
      </trkpt>
      <trkpt lat="48.61923" lon="7.0889">
        <ele>421.2</ele>
        <time>2021-08-01T08:31:21Z</time>
      </trkpt>
      <trkpt lat="48.6192" lon="7.08894">
        <ele>421.3</ele>
        <time>2021-08-01T08:31:22Z</time>
      </trkpt>
      <trkpt lat="48.61916" lon="7.08897">
        <ele>421.3</ele>
        <time>2021-08-01T08:31:23Z</time>
      </trkpt>
      <trkpt lat="48.6191" lon="7.08899">
        <ele>421.4</ele>
        <time>2021-08-01T08:31:25Z</time>
      </trkpt>
      <trkpt lat="48.61904" lon="7.08899">
        <ele>421.6</ele>
        <time>2021-08-01T08:31:26Z</time>
      </trkpt>
      <trkpt lat="48.61897" lon="7.08898">
        <ele>421.7</ele>
        <time>2021-08-01T08:31:28Z</time>
      </trkpt>
      <trkpt lat="48.61893" lon="7.08897">
        <ele>421.9</ele>
        <time>2021-08-01T08:31:29Z</time>
      </trkpt>
      <trkpt lat="48.61889" lon="7.08896">
        <ele>422</ele>
        <time>2021-08-01T08:31:30Z</time>
      </trkpt>
      <trkpt lat="48.61883" lon="7.08894">
        <ele>422.1</ele>
        <time>2021-08-01T08:31:32Z</time>
      </trkpt>
      <trkpt lat="48.61879" lon="7.08893">
        <ele>422.2</ele>
        <time>2021-08-01T08:31:33Z</time>
      </trkpt>
      <trkpt lat="48.61874" lon="7.08893">
        <ele>422.4</ele>
        <time>2021-08-01T08:31:35Z</time>
      </trkpt>
      <trkpt lat="48.61869" lon="7.08893">
        <ele>422.5</ele>
        <time>2021-08-01T08:31:36Z</time>
      </trkpt>
      <trkpt lat="48.61865" lon="7.08893">
        <ele>422.6</ele>
        <time>2021-08-01T08:31:37Z</time>
      </trkpt>
      <trkpt lat="48.61862" lon="7.08893">
        <ele>422.8</ele>
        <time>2021-08-01T08:31:38Z</time>
      </trkpt>
      <trkpt lat="48.61858" lon="7.08895">
        <ele>422.9</ele>
        <time>2021-08-01T08:31:39Z</time>
      </trkpt>
      <trkpt lat="48.61855" lon="7.08895">
        <ele>423.1</ele>
        <time>2021-08-01T08:31:40Z</time>
      </trkpt>
      <trkpt lat="48.61852" lon="7.08895">
        <ele>423.2</ele>
        <time>2021-08-01T08:31:41Z</time>
      </trkpt>
      <trkpt lat="48.61847" lon="7.08896">
        <ele>423.5</ele>
        <time>2021-08-01T08:31:43Z</time>
      </trkpt>
      <trkpt lat="48.61843" lon="7.08899">
        <ele>423.7</ele>
        <time>2021-08-01T08:31:44Z</time>
      </trkpt>
      <trkpt lat="48.61841" lon="7.08901">
        <ele>423.9</ele>
        <time>2021-08-01T08:31:45Z</time>
      </trkpt>
      <trkpt lat="48.6184" lon="7.08901">
        <ele>424</ele>
        <time>2021-08-01T08:31:46Z</time>
      </trkpt>
      <trkpt lat="48.6184" lon="7.08906">
        <ele>424.2</ele>
        <time>2021-08-01T08:31:48Z</time>
      </trkpt>
      <trkpt lat="48.61841" lon="7.08908">
        <ele>424.3</ele>
        <time>2021-08-01T08:31:49Z</time>
      </trkpt>
      <trkpt lat="48.61841" lon="7.0891">
        <ele>424.3</ele>
        <time>2021-08-01T08:31:50Z</time>
      </trkpt>
      <trkpt lat="48.6184" lon="7.08912">
        <ele>424.4</ele>
        <time>2021-08-01T08:31:52Z</time>
      </trkpt>
      <trkpt lat="48.61839" lon="7.08913">
        <ele>424.5</ele>
        <time>2021-08-01T08:31:53Z</time>
      </trkpt>
      <trkpt lat="48.61837" lon="7.08915">
        <ele>424.6</ele>
        <time>2021-08-01T08:31:55Z</time>
      </trkpt>
      <trkpt lat="48.61834" lon="7.08917">
        <ele>424.8</ele>
        <time>2021-08-01T08:31:57Z</time>
      </trkpt>
      <trkpt lat="48.61834" lon="7.08917">
        <ele>424.8</ele>
        <time>2021-08-01T08:31:57Z</time>
      </trkpt>
      <trkpt lat="48.61831" lon="7.08919">
        <ele>425.1</ele>
        <time>2021-08-01T08:31:58Z</time>
      </trkpt>
      <trkpt lat="48.61829" lon="7.0892">
        <ele>425.2</ele>
        <time>2021-08-01T08:31:59Z</time>
      </trkpt>
      <trkpt lat="48.61826" lon="7.08921">
        <ele>425.3</ele>
        <time>2021-08-01T08:32:01Z</time>
      </trkpt>
      <trkpt lat="48.61825" lon="7.08921">
        <ele>425.4</ele>
        <time>2021-08-01T08:32:02Z</time>
      </trkpt>
      <trkpt lat="48.61824" lon="7.08922">
        <ele>425.5</ele>
        <time>2021-08-01T08:32:03Z</time>
      </trkpt>
      <trkpt lat="48.61822" lon="7.08922">
        <ele>425.6</ele>
        <time>2021-08-01T08:32:04Z</time>
      </trkpt>
      <trkpt lat="48.61822" lon="7.08923">
        <ele>425.6</ele>
        <time>2021-08-01T08:32:05Z</time>
      </trkpt>
      <trkpt lat="48.61821" lon="7.08923">
        <ele>425.7</ele>
        <time>2021-08-01T08:32:06Z</time>
      </trkpt>
      <trkpt lat="48.61818" lon="7.08924">
        <ele>425.9</ele>
        <time>2021-08-01T08:32:07Z</time>
      </trkpt>
      <trkpt lat="48.61814" lon="7.08928">
        <ele>426.1</ele>
        <time>2021-08-01T08:32:09Z</time>
      </trkpt>
      <trkpt lat="48.61812" lon="7.08932">
        <ele>426.3</ele>
        <time>2021-08-01T08:32:10Z</time>
      </trkpt>
      <trkpt lat="48.6181" lon="7.08935">
        <ele>426.5</ele>
        <time>2021-08-01T08:32:11Z</time>
      </trkpt>
      <trkpt lat="48.61807" lon="7.08942">
        <ele>426.8</ele>
        <time>2021-08-01T08:32:13Z</time>
      </trkpt>
      <trkpt lat="48.61804" lon="7.08946">
        <ele>427</ele>
        <time>2021-08-01T08:32:14Z</time>
      </trkpt>
      <trkpt lat="48.61801" lon="7.0895">
        <ele>427.2</ele>
        <time>2021-08-01T08:32:16Z</time>
      </trkpt>
      <trkpt lat="48.61798" lon="7.08952">
        <ele>427.4</ele>
        <time>2021-08-01T08:32:17Z</time>
      </trkpt>
      <trkpt lat="48.61795" lon="7.08954">
        <ele>427.6</ele>
        <time>2021-08-01T08:32:18Z</time>
      </trkpt>
      <trkpt lat="48.61794" lon="7.08955">
        <ele>427.6</ele>
        <time>2021-08-01T08:32:19Z</time>
      </trkpt>
      <trkpt lat="48.61791" lon="7.08958">
        <ele>427.8</ele>
        <time>2021-08-01T08:32:20Z</time>
      </trkpt>
      <trkpt lat="48.6179" lon="7.08959">
        <ele>427.8</ele>
        <time>2021-08-01T08:32:21Z</time>
      </trkpt>
      <trkpt lat="48.61787" lon="7.08963">
        <ele>428</ele>
        <time>2021-08-01T08:32:22Z</time>
      </trkpt>
      <trkpt lat="48.61786" lon="7.08964">
        <ele>428</ele>
        <time>2021-08-01T08:32:23Z</time>
      </trkpt>
      <trkpt lat="48.61785" lon="7.08972">
        <ele>428.2</ele>
        <time>2021-08-01T08:32:24Z</time>
      </trkpt>
      <trkpt lat="48.61786" lon="7.08977">
        <ele>428.4</ele>
        <time>2021-08-01T08:32:25Z</time>
      </trkpt>
      <trkpt lat="48.61788" lon="7.08994">
        <ele>428.7</ele>
        <time>2021-08-01T08:32:27Z</time>
      </trkpt>
      <trkpt lat="48.61789" lon="7.08999">
        <ele>428.8</ele>
        <time>2021-08-01T08:32:28Z</time>
      </trkpt>
      <trkpt lat="48.61788" lon="7.09004">
        <ele>428.9</ele>
        <time>2021-08-01T08:32:29Z</time>
      </trkpt>
      <trkpt lat="48.61788" lon="7.09005">
        <ele>428.9</ele>
        <time>2021-08-01T08:32:30Z</time>
      </trkpt>
      <trkpt lat="48.61787" lon="7.09006">
        <ele>428.9</ele>
        <time>2021-08-01T08:32:31Z</time>
      </trkpt>
      <trkpt lat="48.61787" lon="7.09006">
        <ele>428.9</ele>
        <time>2021-08-01T08:32:32Z</time>
      </trkpt>
      <trkpt lat="48.61788" lon="7.09006">
        <ele>429</ele>
        <time>2021-08-01T08:32:33Z</time>
      </trkpt>
      <trkpt lat="48.61787" lon="7.09006">
        <ele>429</ele>
        <time>2021-08-01T08:32:34Z</time>
      </trkpt>
      <trkpt lat="48.61786" lon="7.09008">
        <ele>429</ele>
        <time>2021-08-01T08:32:36Z</time>
      </trkpt>
      <trkpt lat="48.61782" lon="7.09011">
        <ele>429.1</ele>
        <time>2021-08-01T08:32:38Z</time>
      </trkpt>
      <trkpt lat="48.61779" lon="7.09014">
        <ele>429.2</ele>
        <time>2021-08-01T08:32:39Z</time>
      </trkpt>
      <trkpt lat="48.61776" lon="7.09016">
        <ele>429.3</ele>
        <time>2021-08-01T08:32:40Z</time>
      </trkpt>
      <trkpt lat="48.61773" lon="7.09019">
        <ele>429.4</ele>
        <time>2021-08-01T08:32:41Z</time>
      </trkpt>
      <trkpt lat="48.61768" lon="7.09025">
        <ele>429.6</ele>
        <time>2021-08-01T08:32:43Z</time>
      </trkpt>
      <trkpt lat="48.61764" lon="7.09027">
        <ele>429.7</ele>
        <time>2021-08-01T08:32:45Z</time>
      </trkpt>
      <trkpt lat="48.61761" lon="7.0903">
        <ele>429.9</ele>
        <time>2021-08-01T08:32:46Z</time>
      </trkpt>
      <trkpt lat="48.61758" lon="7.09031">
        <ele>429.9</ele>
        <time>2021-08-01T08:32:47Z</time>
      </trkpt>
      <trkpt lat="48.61755" lon="7.09034">
        <ele>430.1</ele>
        <time>2021-08-01T08:32:49Z</time>
      </trkpt>
      <trkpt lat="48.61752" lon="7.09036">
        <ele>430.3</ele>
        <time>2021-08-01T08:32:51Z</time>
      </trkpt>
      <trkpt lat="48.61748" lon="7.09037">
        <ele>430.4</ele>
        <time>2021-08-01T08:32:52Z</time>
      </trkpt>
      <trkpt lat="48.61747" lon="7.09037">
        <ele>430.5</ele>
        <time>2021-08-01T08:32:53Z</time>
      </trkpt>
      <trkpt lat="48.61744" lon="7.09038">
        <ele>430.7</ele>
        <time>2021-08-01T08:32:55Z</time>
      </trkpt>
      <trkpt lat="48.61743" lon="7.09037">
        <ele>430.8</ele>
        <time>2021-08-01T08:32:56Z</time>
      </trkpt>
      <trkpt lat="48.61741" lon="7.09037">
        <ele>430.9</ele>
        <time>2021-08-01T08:32:57Z</time>
      </trkpt>
      <trkpt lat="48.61739" lon="7.09037">
        <ele>431</ele>
        <time>2021-08-01T08:32:58Z</time>
      </trkpt>
      <trkpt lat="48.61738" lon="7.09036">
        <ele>431.1</ele>
        <time>2021-08-01T08:32:59Z</time>
      </trkpt>
      <trkpt lat="48.61737" lon="7.09034">
        <ele>431.1</ele>
        <time>2021-08-01T08:33:00Z</time>
      </trkpt>
      <trkpt lat="48.61736" lon="7.09033">
        <ele>431.2</ele>
        <time>2021-08-01T08:33:01Z</time>
      </trkpt>
      <trkpt lat="48.61735" lon="7.09032">
        <ele>431.3</ele>
        <time>2021-08-01T08:33:02Z</time>
      </trkpt>
      <trkpt lat="48.61734" lon="7.09032">
        <ele>431.3</ele>
        <time>2021-08-01T08:33:03Z</time>
      </trkpt>
      <trkpt lat="48.61733" lon="7.09033">
        <ele>431.4</ele>
        <time>2021-08-01T08:33:04Z</time>
      </trkpt>
      <trkpt lat="48.61732" lon="7.09034">
        <ele>431.5</ele>
        <time>2021-08-01T08:33:06Z</time>
      </trkpt>
      <trkpt lat="48.61731" lon="7.09035">
        <ele>431.5</ele>
        <time>2021-08-01T08:33:07Z</time>
      </trkpt>
      <trkpt lat="48.61727" lon="7.09039">
        <ele>431.8</ele>
        <time>2021-08-01T08:33:09Z</time>
      </trkpt>
      <trkpt lat="48.61724" lon="7.09041">
        <ele>432</ele>
        <time>2021-08-01T08:33:10Z</time>
      </trkpt>
      <trkpt lat="48.61721" lon="7.09044">
        <ele>432.2</ele>
        <time>2021-08-01T08:33:11Z</time>
      </trkpt>
      <trkpt lat="48.61715" lon="7.09052">
        <ele>432.6</ele>
        <time>2021-08-01T08:33:13Z</time>
      </trkpt>
      <trkpt lat="48.61713" lon="7.09055">
        <ele>432.7</ele>
        <time>2021-08-01T08:33:14Z</time>
      </trkpt>
      <trkpt lat="48.61709" lon="7.09061">
        <ele>433.1</ele>
        <time>2021-08-01T08:33:16Z</time>
      </trkpt>
      <trkpt lat="48.61705" lon="7.09067">
        <ele>433.4</ele>
        <time>2021-08-01T08:33:18Z</time>
      </trkpt>
      <trkpt lat="48.61702" lon="7.09071">
        <ele>433.6</ele>
        <time>2021-08-01T08:33:19Z</time>
      </trkpt>
      <trkpt lat="48.617" lon="7.09074">
        <ele>433.8</ele>
        <time>2021-08-01T08:33:20Z</time>
      </trkpt>
      <trkpt lat="48.61696" lon="7.09078">
        <ele>434</ele>
        <time>2021-08-01T08:33:22Z</time>
      </trkpt>
      <trkpt lat="48.61695" lon="7.09078">
        <ele>434.1</ele>
        <time>2021-08-01T08:33:23Z</time>
      </trkpt>
      <trkpt lat="48.6169" lon="7.09077">
        <ele>434.4</ele>
        <time>2021-08-01T08:33:25Z</time>
      </trkpt>
      <trkpt lat="48.61687" lon="7.09078">
        <ele>434.5</ele>
        <time>2021-08-01T08:33:26Z</time>
      </trkpt>
      <trkpt lat="48.61685" lon="7.09081">
        <ele>434.6</ele>
        <time>2021-08-01T08:33:28Z</time>
      </trkpt>
      <trkpt lat="48.61683" lon="7.09085">
        <ele>434.8</ele>
        <time>2021-08-01T08:33:29Z</time>
      </trkpt>
      <trkpt lat="48.61682" lon="7.09086">
        <ele>434.8</ele>
        <time>2021-08-01T08:33:30Z</time>
      </trkpt>
      <trkpt lat="48.61682" lon="7.09086">
        <ele>434.8</ele>
        <time>2021-08-01T08:33:30Z</time>
      </trkpt>
      <trkpt lat="48.61678" lon="7.09093">
        <ele>435.1</ele>
        <time>2021-08-01T08:33:32Z</time>
      </trkpt>
      <trkpt lat="48.61675" lon="7.09096">
        <ele>435.2</ele>
        <time>2021-08-01T08:33:33Z</time>
      </trkpt>
      <trkpt lat="48.61672" lon="7.09099">
        <ele>435.3</ele>
        <time>2021-08-01T08:33:34Z</time>
      </trkpt>
      <trkpt lat="48.61666" lon="7.09105">
        <ele>435.6</ele>
        <time>2021-08-01T08:33:36Z</time>
      </trkpt>
      <trkpt lat="48.61661" lon="7.09108">
        <ele>435.7</ele>
        <time>2021-08-01T08:33:37Z</time>
      </trkpt>
      <trkpt lat="48.61657" lon="7.09111">
        <ele>435.9</ele>
        <time>2021-08-01T08:33:39Z</time>
      </trkpt>
      <trkpt lat="48.61652" lon="7.09114">
        <ele>436.1</ele>
        <time>2021-08-01T08:33:41Z</time>
      </trkpt>
      <trkpt lat="48.61647" lon="7.09119">
        <ele>436.3</ele>
        <time>2021-08-01T08:33:43Z</time>
      </trkpt>
      <trkpt lat="48.61644" lon="7.09122">
        <ele>436.4</ele>
        <time>2021-08-01T08:33:44Z</time>
      </trkpt>
      <trkpt lat="48.61639" lon="7.09125">
        <ele>436.5</ele>
        <time>2021-08-01T08:33:46Z</time>
      </trkpt>
      <trkpt lat="48.61637" lon="7.09126">
        <ele>436.6</ele>
        <time>2021-08-01T08:33:47Z</time>
      </trkpt>
      <trkpt lat="48.61635" lon="7.09128">
        <ele>436.7</ele>
        <time>2021-08-01T08:33:49Z</time>
      </trkpt>
      <trkpt lat="48.61632" lon="7.09129">
        <ele>436.8</ele>
        <time>2021-08-01T08:33:50Z</time>
      </trkpt>
      <trkpt lat="48.6163" lon="7.09131">
        <ele>436.8</ele>
        <time>2021-08-01T08:33:51Z</time>
      </trkpt>
      <trkpt lat="48.61627" lon="7.09135">
        <ele>436.9</ele>
        <time>2021-08-01T08:33:53Z</time>
      </trkpt>
      <trkpt lat="48.61626" lon="7.09141">
        <ele>437</ele>
        <time>2021-08-01T08:33:54Z</time>
      </trkpt>
      <trkpt lat="48.61625" lon="7.09143">
        <ele>437</ele>
        <time>2021-08-01T08:33:55Z</time>
      </trkpt>
      <trkpt lat="48.61623" lon="7.09148">
        <ele>437</ele>
        <time>2021-08-01T08:33:57Z</time>
      </trkpt>
      <trkpt lat="48.61622" lon="7.09152">
        <ele>437.1</ele>
        <time>2021-08-01T08:33:58Z</time>
      </trkpt>
      <trkpt lat="48.61619" lon="7.09156">
        <ele>437.1</ele>
        <time>2021-08-01T08:34:00Z</time>
      </trkpt>
      <trkpt lat="48.61616" lon="7.09159">
        <ele>437.1</ele>
        <time>2021-08-01T08:34:01Z</time>
      </trkpt>
      <trkpt lat="48.61612" lon="7.09163">
        <ele>437.2</ele>
        <time>2021-08-01T08:34:02Z</time>
      </trkpt>
      <trkpt lat="48.61609" lon="7.09167">
        <ele>437.2</ele>
        <time>2021-08-01T08:34:03Z</time>
      </trkpt>
      <trkpt lat="48.61601" lon="7.09174">
        <ele>437.1</ele>
        <time>2021-08-01T08:34:05Z</time>
      </trkpt>
      <trkpt lat="48.61595" lon="7.09177">
        <ele>437.1</ele>
        <time>2021-08-01T08:34:06Z</time>
      </trkpt>
      <trkpt lat="48.61588" lon="7.09178">
        <ele>437.1</ele>
        <time>2021-08-01T08:34:08Z</time>
      </trkpt>
      <trkpt lat="48.61581" lon="7.09179">
        <ele>437</ele>
        <time>2021-08-01T08:34:09Z</time>
      </trkpt>
      <trkpt lat="48.61577" lon="7.09179">
        <ele>437</ele>
        <time>2021-08-01T08:34:10Z</time>
      </trkpt>
      <trkpt lat="48.61572" lon="7.09179">
        <ele>437</ele>
        <time>2021-08-01T08:34:11Z</time>
      </trkpt>
      <trkpt lat="48.61566" lon="7.09182">
        <ele>437.1</ele>
        <time>2021-08-01T08:34:13Z</time>
      </trkpt>
      <trkpt lat="48.61559" lon="7.09189">
        <ele>437.1</ele>
        <time>2021-08-01T08:34:15Z</time>
      </trkpt>
      <trkpt lat="48.61552" lon="7.09197">
        <ele>437.1</ele>
        <time>2021-08-01T08:34:17Z</time>
      </trkpt>
      <trkpt lat="48.61549" lon="7.09204">
        <ele>437.2</ele>
        <time>2021-08-01T08:34:18Z</time>
      </trkpt>
      <trkpt lat="48.61545" lon="7.09208">
        <ele>437.2</ele>
        <time>2021-08-01T08:34:19Z</time>
      </trkpt>
      <trkpt lat="48.61539" lon="7.09215">
        <ele>437.3</ele>
        <time>2021-08-01T08:34:21Z</time>
      </trkpt>
      <trkpt lat="48.61536" lon="7.09218">
        <ele>437.3</ele>
        <time>2021-08-01T08:34:22Z</time>
      </trkpt>
      <trkpt lat="48.61533" lon="7.09222">
        <ele>437.4</ele>
        <time>2021-08-01T08:34:24Z</time>
      </trkpt>
      <trkpt lat="48.61529" lon="7.09224">
        <ele>437.4</ele>
        <time>2021-08-01T08:34:25Z</time>
      </trkpt>
      <trkpt lat="48.61526" lon="7.09227">
        <ele>437.5</ele>
        <time>2021-08-01T08:34:26Z</time>
      </trkpt>
      <trkpt lat="48.61523" lon="7.09227">
        <ele>437.5</ele>
        <time>2021-08-01T08:34:27Z</time>
      </trkpt>
      <trkpt lat="48.6152" lon="7.09225">
        <ele>437.6</ele>
        <time>2021-08-01T08:34:28Z</time>
      </trkpt>
      <trkpt lat="48.61515" lon="7.09223">
        <ele>437.6</ele>
        <time>2021-08-01T08:34:30Z</time>
      </trkpt>
      <trkpt lat="48.61512" lon="7.09222">
        <ele>437.7</ele>
        <time>2021-08-01T08:34:31Z</time>
      </trkpt>
      <trkpt lat="48.61506" lon="7.09221">
        <ele>437.7</ele>
        <time>2021-08-01T08:34:33Z</time>
      </trkpt>
      <trkpt lat="48.61502" lon="7.09221">
        <ele>437.8</ele>
        <time>2021-08-01T08:34:34Z</time>
      </trkpt>
      <trkpt lat="48.61496" lon="7.09222">
        <ele>437.8</ele>
        <time>2021-08-01T08:34:36Z</time>
      </trkpt>
      <trkpt lat="48.6149" lon="7.09222">
        <ele>437.9</ele>
        <time>2021-08-01T08:34:37Z</time>
      </trkpt>
      <trkpt lat="48.61485" lon="7.09221">
        <ele>438</ele>
        <time>2021-08-01T08:34:38Z</time>
      </trkpt>
      <trkpt lat="48.61478" lon="7.0922">
        <ele>438.1</ele>
        <time>2021-08-01T08:34:40Z</time>
      </trkpt>
      <trkpt lat="48.61474" lon="7.0922">
        <ele>438.1</ele>
        <time>2021-08-01T08:34:41Z</time>
      </trkpt>
      <trkpt lat="48.6147" lon="7.0922">
        <ele>438.1</ele>
        <time>2021-08-01T08:34:42Z</time>
      </trkpt>
      <trkpt lat="48.61463" lon="7.09218">
        <ele>438.2</ele>
        <time>2021-08-01T08:34:44Z</time>
      </trkpt>
      <trkpt lat="48.6146" lon="7.09217">
        <ele>438.2</ele>
        <time>2021-08-01T08:34:45Z</time>
      </trkpt>
      <trkpt lat="48.61456" lon="7.09215">
        <ele>438.2</ele>
        <time>2021-08-01T08:34:46Z</time>
      </trkpt>
      <trkpt lat="48.61452" lon="7.09213">
        <ele>438.2</ele>
        <time>2021-08-01T08:34:47Z</time>
      </trkpt>
      <trkpt lat="48.61443" lon="7.09211">
        <ele>438.2</ele>
        <time>2021-08-01T08:34:49Z</time>
      </trkpt>
      <trkpt lat="48.61438" lon="7.09211">
        <ele>438.2</ele>
        <time>2021-08-01T08:34:50Z</time>
      </trkpt>
      <trkpt lat="48.61429" lon="7.09211">
        <ele>438.3</ele>
        <time>2021-08-01T08:34:52Z</time>
      </trkpt>
      <trkpt lat="48.61423" lon="7.09211">
        <ele>438.3</ele>
        <time>2021-08-01T08:34:53Z</time>
      </trkpt>
      <trkpt lat="48.61415" lon="7.09212">
        <ele>438.3</ele>
        <time>2021-08-01T08:34:54Z</time>
      </trkpt>
      <trkpt lat="48.61405" lon="7.09215">
        <ele>438.2</ele>
        <time>2021-08-01T08:34:55Z</time>
      </trkpt>
      <trkpt lat="48.61399" lon="7.09217">
        <ele>438.2</ele>
        <time>2021-08-01T08:34:56Z</time>
      </trkpt>
      <trkpt lat="48.61391" lon="7.0922">
        <ele>438.2</ele>
        <time>2021-08-01T08:34:58Z</time>
      </trkpt>
      <trkpt lat="48.61389" lon="7.09221">
        <ele>438.3</ele>
        <time>2021-08-01T08:35:00Z</time>
      </trkpt>
      <trkpt lat="48.61386" lon="7.09222">
        <ele>438.3</ele>
        <time>2021-08-01T08:35:01Z</time>
      </trkpt>
      <trkpt lat="48.6138" lon="7.09222">
        <ele>438.4</ele>
        <time>2021-08-01T08:35:02Z</time>
      </trkpt>
      <trkpt lat="48.61369" lon="7.0922">
        <ele>438.5</ele>
        <time>2021-08-01T08:35:03Z</time>
      </trkpt>
      <trkpt lat="48.61363" lon="7.09219">
        <ele>438.6</ele>
        <time>2021-08-01T08:35:04Z</time>
      </trkpt>
      <trkpt lat="48.61358" lon="7.09219">
        <ele>438.6</ele>
        <time>2021-08-01T08:35:06Z</time>
      </trkpt>
      <trkpt lat="48.61353" lon="7.0922">
        <ele>438.7</ele>
        <time>2021-08-01T08:35:07Z</time>
      </trkpt>
      <trkpt lat="48.61348" lon="7.09222">
        <ele>438.7</ele>
        <time>2021-08-01T08:35:08Z</time>
      </trkpt>
      <trkpt lat="48.61342" lon="7.09226">
        <ele>438.8</ele>
        <time>2021-08-01T08:35:10Z</time>
      </trkpt>
      <trkpt lat="48.61339" lon="7.09228">
        <ele>438.8</ele>
        <time>2021-08-01T08:35:11Z</time>
      </trkpt>
      <trkpt lat="48.61335" lon="7.09231">
        <ele>438.9</ele>
        <time>2021-08-01T08:35:12Z</time>
      </trkpt>
      <trkpt lat="48.61331" lon="7.09233">
        <ele>438.9</ele>
        <time>2021-08-01T08:35:13Z</time>
      </trkpt>
      <trkpt lat="48.61328" lon="7.09236">
        <ele>439</ele>
        <time>2021-08-01T08:35:14Z</time>
      </trkpt>
      <trkpt lat="48.61323" lon="7.09239">
        <ele>439</ele>
        <time>2021-08-01T08:35:16Z</time>
      </trkpt>
      <trkpt lat="48.61319" lon="7.09242">
        <ele>439.1</ele>
        <time>2021-08-01T08:35:17Z</time>
      </trkpt>
      <trkpt lat="48.61315" lon="7.09247">
        <ele>439.1</ele>
        <time>2021-08-01T08:35:18Z</time>
      </trkpt>
      <trkpt lat="48.61311" lon="7.09255">
        <ele>439.1</ele>
        <time>2021-08-01T08:35:20Z</time>
      </trkpt>
      <trkpt lat="48.61308" lon="7.09259">
        <ele>439.1</ele>
        <time>2021-08-01T08:35:22Z</time>
      </trkpt>
      <trkpt lat="48.61307" lon="7.09261">
        <ele>439.1</ele>
        <time>2021-08-01T08:35:23Z</time>
      </trkpt>
      <trkpt lat="48.61306" lon="7.09268">
        <ele>439.1</ele>
        <time>2021-08-01T08:35:25Z</time>
      </trkpt>
      <trkpt lat="48.61305" lon="7.09272">
        <ele>439.1</ele>
        <time>2021-08-01T08:35:26Z</time>
      </trkpt>
      <trkpt lat="48.61304" lon="7.09279">
        <ele>439.1</ele>
        <time>2021-08-01T08:35:27Z</time>
      </trkpt>
      <trkpt lat="48.61303" lon="7.09286">
        <ele>439</ele>
        <time>2021-08-01T08:35:28Z</time>
      </trkpt>
      <trkpt lat="48.613" lon="7.09295">
        <ele>439</ele>
        <time>2021-08-01T08:35:30Z</time>
      </trkpt>
      <trkpt lat="48.61297" lon="7.09303">
        <ele>438.9</ele>
        <time>2021-08-01T08:35:31Z</time>
      </trkpt>
      <trkpt lat="48.61295" lon="7.09309">
        <ele>438.9</ele>
        <time>2021-08-01T08:35:32Z</time>
      </trkpt>
      <trkpt lat="48.61293" lon="7.0932">
        <ele>438.7</ele>
        <time>2021-08-01T08:35:33Z</time>
      </trkpt>
      <trkpt lat="48.61291" lon="7.0934">
        <ele>438.5</ele>
        <time>2021-08-01T08:35:35Z</time>
      </trkpt>
      <trkpt lat="48.61291" lon="7.0935">
        <ele>438.4</ele>
        <time>2021-08-01T08:35:36Z</time>
      </trkpt>
      <trkpt lat="48.61291" lon="7.09369">
        <ele>438.3</ele>
        <time>2021-08-01T08:35:38Z</time>
      </trkpt>
      <trkpt lat="48.61291" lon="7.09375">
        <ele>438.2</ele>
        <time>2021-08-01T08:35:39Z</time>
      </trkpt>
      <trkpt lat="48.61292" lon="7.09389">
        <ele>438.2</ele>
        <time>2021-08-01T08:35:41Z</time>
      </trkpt>
      <trkpt lat="48.61291" lon="7.09397">
        <ele>438.2</ele>
        <time>2021-08-01T08:35:42Z</time>
      </trkpt>
      <trkpt lat="48.6129" lon="7.09404">
        <ele>438.3</ele>
        <time>2021-08-01T08:35:43Z</time>
      </trkpt>
      <trkpt lat="48.61289" lon="7.09411">
        <ele>438.3</ele>
        <time>2021-08-01T08:35:44Z</time>
      </trkpt>
      <trkpt lat="48.61289" lon="7.09418">
        <ele>438.4</ele>
        <time>2021-08-01T08:35:45Z</time>
      </trkpt>
      <trkpt lat="48.61287" lon="7.09424">
        <ele>438.4</ele>
        <time>2021-08-01T08:35:46Z</time>
      </trkpt>
      <trkpt lat="48.61287" lon="7.09429">
        <ele>438.5</ele>
        <time>2021-08-01T08:35:47Z</time>
      </trkpt>
      <trkpt lat="48.61285" lon="7.09441">
        <ele>438.6</ele>
        <time>2021-08-01T08:35:49Z</time>
      </trkpt>
      <trkpt lat="48.61285" lon="7.09447">
        <ele>438.6</ele>
        <time>2021-08-01T08:35:50Z</time>
      </trkpt>
      <trkpt lat="48.61283" lon="7.09457">
        <ele>438.5</ele>
        <time>2021-08-01T08:35:52Z</time>
      </trkpt>
      <trkpt lat="48.61283" lon="7.09474">
        <ele>438.5</ele>
        <time>2021-08-01T08:35:54Z</time>
      </trkpt>
      <trkpt lat="48.61283" lon="7.09481">
        <ele>438.5</ele>
        <time>2021-08-01T08:35:55Z</time>
      </trkpt>
      <trkpt lat="48.6128" lon="7.09487">
        <ele>438.6</ele>
        <time>2021-08-01T08:35:56Z</time>
      </trkpt>
      <trkpt lat="48.6128" lon="7.09494">
        <ele>438.6</ele>
        <time>2021-08-01T08:35:57Z</time>
      </trkpt>
      <trkpt lat="48.6128" lon="7.09502">
        <ele>438.7</ele>
        <time>2021-08-01T08:35:58Z</time>
      </trkpt>
      <trkpt lat="48.6128" lon="7.09509">
        <ele>438.7</ele>
        <time>2021-08-01T08:36:00Z</time>
      </trkpt>
      <trkpt lat="48.61281" lon="7.09518">
        <ele>438.7</ele>
        <time>2021-08-01T08:36:01Z</time>
      </trkpt>
      <trkpt lat="48.61281" lon="7.09525">
        <ele>438.8</ele>
        <time>2021-08-01T08:36:02Z</time>
      </trkpt>
      <trkpt lat="48.61282" lon="7.09534">
        <ele>438.8</ele>
        <time>2021-08-01T08:36:03Z</time>
      </trkpt>
      <trkpt lat="48.61285" lon="7.09545">
        <ele>438.8</ele>
        <time>2021-08-01T08:36:05Z</time>
      </trkpt>
      <trkpt lat="48.61284" lon="7.09552">
        <ele>438.7</ele>
        <time>2021-08-01T08:36:06Z</time>
      </trkpt>
      <trkpt lat="48.61285" lon="7.09561">
        <ele>438.7</ele>
        <time>2021-08-01T08:36:08Z</time>
      </trkpt>
      <trkpt lat="48.61287" lon="7.09574">
        <ele>438.7</ele>
        <time>2021-08-01T08:36:10Z</time>
      </trkpt>
      <trkpt lat="48.61288" lon="7.09581">
        <ele>438.7</ele>
        <time>2021-08-01T08:36:11Z</time>
      </trkpt>
      <trkpt lat="48.61291" lon="7.09596">
        <ele>438.7</ele>
        <time>2021-08-01T08:36:12Z</time>
      </trkpt>
      <trkpt lat="48.61296" lon="7.09611">
        <ele>438.7</ele>
        <time>2021-08-01T08:36:14Z</time>
      </trkpt>
      <trkpt lat="48.613" lon="7.09624">
        <ele>438.6</ele>
        <time>2021-08-01T08:36:16Z</time>
      </trkpt>
      <trkpt lat="48.61302" lon="7.09632">
        <ele>438.6</ele>
        <time>2021-08-01T08:36:17Z</time>
      </trkpt>
      <trkpt lat="48.61306" lon="7.09648">
        <ele>438.6</ele>
        <time>2021-08-01T08:36:19Z</time>
      </trkpt>
      <trkpt lat="48.61307" lon="7.09663">
        <ele>438.7</ele>
        <time>2021-08-01T08:36:21Z</time>
      </trkpt>
      <trkpt lat="48.61308" lon="7.0967">
        <ele>438.7</ele>
        <time>2021-08-01T08:36:22Z</time>
      </trkpt>
      <trkpt lat="48.61308" lon="7.09677">
        <ele>438.8</ele>
        <time>2021-08-01T08:36:23Z</time>
      </trkpt>
      <trkpt lat="48.61307" lon="7.09693">
        <ele>438.9</ele>
        <time>2021-08-01T08:36:25Z</time>
      </trkpt>
      <trkpt lat="48.61307" lon="7.09699">
        <ele>438.9</ele>
        <time>2021-08-01T08:36:26Z</time>
      </trkpt>
      <trkpt lat="48.61307" lon="7.09712">
        <ele>439</ele>
        <time>2021-08-01T08:36:28Z</time>
      </trkpt>
      <trkpt lat="48.61308" lon="7.09723">
        <ele>439.2</ele>
        <time>2021-08-01T08:36:30Z</time>
      </trkpt>
      <trkpt lat="48.61306" lon="7.09727">
        <ele>439.3</ele>
        <time>2021-08-01T08:36:31Z</time>
      </trkpt>
      <trkpt lat="48.61306" lon="7.09732">
        <ele>439.3</ele>
        <time>2021-08-01T08:36:32Z</time>
      </trkpt>
      <trkpt lat="48.61307" lon="7.09734">
        <ele>439.4</ele>
        <time>2021-08-01T08:36:33Z</time>
      </trkpt>
      <trkpt lat="48.61304" lon="7.09746">
        <ele>439.6</ele>
        <time>2021-08-01T08:36:35Z</time>
      </trkpt>
      <trkpt lat="48.61301" lon="7.0976">
        <ele>439.8</ele>
        <time>2021-08-01T08:36:37Z</time>
      </trkpt>
      <trkpt lat="48.613" lon="7.09767">
        <ele>440</ele>
        <time>2021-08-01T08:36:38Z</time>
      </trkpt>
      <trkpt lat="48.61299" lon="7.09775">
        <ele>440.3</ele>
        <time>2021-08-01T08:36:39Z</time>
      </trkpt>
      <trkpt lat="48.61298" lon="7.09783">
        <ele>440.5</ele>
        <time>2021-08-01T08:36:41Z</time>
      </trkpt>
      <trkpt lat="48.61297" lon="7.09791">
        <ele>440.7</ele>
        <time>2021-08-01T08:36:42Z</time>
      </trkpt>
      <trkpt lat="48.61295" lon="7.098">
        <ele>440.9</ele>
        <time>2021-08-01T08:36:44Z</time>
      </trkpt>
      <trkpt lat="48.61293" lon="7.09809">
        <ele>441.2</ele>
        <time>2021-08-01T08:36:46Z</time>
      </trkpt>
      <trkpt lat="48.61293" lon="7.09814">
        <ele>441.4</ele>
        <time>2021-08-01T08:36:47Z</time>
      </trkpt>
      <trkpt lat="48.61292" lon="7.09823">
        <ele>441.7</ele>
        <time>2021-08-01T08:36:48Z</time>
      </trkpt>
      <trkpt lat="48.6129" lon="7.0983">
        <ele>441.9</ele>
        <time>2021-08-01T08:36:50Z</time>
      </trkpt>
      <trkpt lat="48.61289" lon="7.09833">
        <ele>442</ele>
        <time>2021-08-01T08:36:51Z</time>
      </trkpt>
      <trkpt lat="48.61289" lon="7.09837">
        <ele>442.1</ele>
        <time>2021-08-01T08:36:53Z</time>
      </trkpt>
      <trkpt lat="48.61289" lon="7.09841">
        <ele>442.2</ele>
        <time>2021-08-01T08:36:54Z</time>
      </trkpt>
      <trkpt lat="48.61288" lon="7.09845">
        <ele>442.4</ele>
        <time>2021-08-01T08:36:55Z</time>
      </trkpt>
      <trkpt lat="48.61287" lon="7.09851">
        <ele>442.5</ele>
        <time>2021-08-01T08:36:56Z</time>
      </trkpt>
      <trkpt lat="48.61286" lon="7.09855">
        <ele>442.7</ele>
        <time>2021-08-01T08:36:57Z</time>
      </trkpt>
      <trkpt lat="48.61285" lon="7.09859">
        <ele>442.8</ele>
        <time>2021-08-01T08:36:58Z</time>
      </trkpt>
      <trkpt lat="48.61283" lon="7.09865">
        <ele>442.9</ele>
        <time>2021-08-01T08:36:59Z</time>
      </trkpt>
      <trkpt lat="48.61282" lon="7.09867">
        <ele>443</ele>
        <time>2021-08-01T08:37:00Z</time>
      </trkpt>
      <trkpt lat="48.61281" lon="7.09872">
        <ele>443.1</ele>
        <time>2021-08-01T08:37:01Z</time>
      </trkpt>
      <trkpt lat="48.6128" lon="7.09877">
        <ele>443.2</ele>
        <time>2021-08-01T08:37:02Z</time>
      </trkpt>
      <trkpt lat="48.61279" lon="7.09883">
        <ele>443.4</ele>
        <time>2021-08-01T08:37:03Z</time>
      </trkpt>
      <trkpt lat="48.61278" lon="7.09887">
        <ele>443.5</ele>
        <time>2021-08-01T08:37:05Z</time>
      </trkpt>
      <trkpt lat="48.61276" lon="7.09892">
        <ele>443.6</ele>
        <time>2021-08-01T08:37:07Z</time>
      </trkpt>
      <trkpt lat="48.61274" lon="7.09895">
        <ele>443.7</ele>
        <time>2021-08-01T08:37:08Z</time>
      </trkpt>
      <trkpt lat="48.61272" lon="7.09899">
        <ele>443.8</ele>
        <time>2021-08-01T08:37:09Z</time>
      </trkpt>
      <trkpt lat="48.61271" lon="7.09901">
        <ele>443.9</ele>
        <time>2021-08-01T08:37:10Z</time>
      </trkpt>
      <trkpt lat="48.61268" lon="7.09906">
        <ele>444</ele>
        <time>2021-08-01T08:37:12Z</time>
      </trkpt>
      <trkpt lat="48.61267" lon="7.09907">
        <ele>444</ele>
        <time>2021-08-01T08:37:13Z</time>
      </trkpt>
      <trkpt lat="48.61266" lon="7.09909">
        <ele>444.1</ele>
        <time>2021-08-01T08:37:14Z</time>
      </trkpt>
      <trkpt lat="48.61263" lon="7.09913">
        <ele>444.2</ele>
        <time>2021-08-01T08:37:15Z</time>
      </trkpt>
      <trkpt lat="48.61261" lon="7.09916">
        <ele>444.3</ele>
        <time>2021-08-01T08:37:16Z</time>
      </trkpt>
      <trkpt lat="48.61259" lon="7.09919">
        <ele>444.4</ele>
        <time>2021-08-01T08:37:18Z</time>
      </trkpt>
      <trkpt lat="48.61257" lon="7.09923">
        <ele>444.5</ele>
        <time>2021-08-01T08:37:19Z</time>
      </trkpt>
      <trkpt lat="48.61256" lon="7.09924">
        <ele>444.5</ele>
        <time>2021-08-01T08:37:20Z</time>
      </trkpt>
      <trkpt lat="48.61253" lon="7.09928">
        <ele>444.7</ele>
        <time>2021-08-01T08:37:21Z</time>
      </trkpt>
      <trkpt lat="48.61251" lon="7.09932">
        <ele>444.8</ele>
        <time>2021-08-01T08:37:22Z</time>
      </trkpt>
      <trkpt lat="48.61248" lon="7.09935">
        <ele>444.9</ele>
        <time>2021-08-01T08:37:24Z</time>
      </trkpt>
      <trkpt lat="48.61246" lon="7.09938">
        <ele>445</ele>
        <time>2021-08-01T08:37:25Z</time>
      </trkpt>
      <trkpt lat="48.61246" lon="7.09938">
        <ele>445.1</ele>
        <time>2021-08-01T08:37:26Z</time>
      </trkpt>
      <trkpt lat="48.61244" lon="7.09942">
        <ele>445.1</ele>
        <time>2021-08-01T08:37:28Z</time>
      </trkpt>
      <trkpt lat="48.61244" lon="7.09944">
        <ele>445.2</ele>
        <time>2021-08-01T08:37:29Z</time>
      </trkpt>
      <trkpt lat="48.61241" lon="7.09949">
        <ele>445.3</ele>
        <time>2021-08-01T08:37:30Z</time>
      </trkpt>
      <trkpt lat="48.61238" lon="7.09953">
        <ele>445.4</ele>
        <time>2021-08-01T08:37:31Z</time>
      </trkpt>
      <trkpt lat="48.61237" lon="7.09954">
        <ele>445.5</ele>
        <time>2021-08-01T08:37:32Z</time>
      </trkpt>
      <trkpt lat="48.61235" lon="7.09956">
        <ele>445.5</ele>
        <time>2021-08-01T08:37:33Z</time>
      </trkpt>
      <trkpt lat="48.61232" lon="7.0996">
        <ele>445.6</ele>
        <time>2021-08-01T08:37:34Z</time>
      </trkpt>
      <trkpt lat="48.6123" lon="7.09963">
        <ele>445.7</ele>
        <time>2021-08-01T08:37:36Z</time>
      </trkpt>
      <trkpt lat="48.61228" lon="7.09969">
        <ele>445.8</ele>
        <time>2021-08-01T08:37:37Z</time>
      </trkpt>
      <trkpt lat="48.61226" lon="7.09974">
        <ele>445.9</ele>
        <time>2021-08-01T08:37:39Z</time>
      </trkpt>
      <trkpt lat="48.61224" lon="7.09977">
        <ele>446</ele>
        <time>2021-08-01T08:37:40Z</time>
      </trkpt>
      <trkpt lat="48.61223" lon="7.09981">
        <ele>446.1</ele>
        <time>2021-08-01T08:37:41Z</time>
      </trkpt>
      <trkpt lat="48.61221" lon="7.09988">
        <ele>446.2</ele>
        <time>2021-08-01T08:37:43Z</time>
      </trkpt>
      <trkpt lat="48.6122" lon="7.09992">
        <ele>446.2</ele>
        <time>2021-08-01T08:37:44Z</time>
      </trkpt>
      <trkpt lat="48.61219" lon="7.09997">
        <ele>446.3</ele>
        <time>2021-08-01T08:37:45Z</time>
      </trkpt>
      <trkpt lat="48.61218" lon="7.10003">
        <ele>446.4</ele>
        <time>2021-08-01T08:37:46Z</time>
      </trkpt>
      <trkpt lat="48.61218" lon="7.10005">
        <ele>446.4</ele>
        <time>2021-08-01T08:37:47Z</time>
      </trkpt>
      <trkpt lat="48.61216" lon="7.10011">
        <ele>446.5</ele>
        <time>2021-08-01T08:37:48Z</time>
      </trkpt>
      <trkpt lat="48.61216" lon="7.10014">
        <ele>446.5</ele>
        <time>2021-08-01T08:37:50Z</time>
      </trkpt>
      <trkpt lat="48.61215" lon="7.10018">
        <ele>446.5</ele>
        <time>2021-08-01T08:37:51Z</time>
      </trkpt>
      <trkpt lat="48.61215" lon="7.10021">
        <ele>446.6</ele>
        <time>2021-08-01T08:37:52Z</time>
      </trkpt>
      <trkpt lat="48.61213" lon="7.10026">
        <ele>446.6</ele>
        <time>2021-08-01T08:37:53Z</time>
      </trkpt>
      <trkpt lat="48.61212" lon="7.10032">
        <ele>446.7</ele>
        <time>2021-08-01T08:37:55Z</time>
      </trkpt>
      <trkpt lat="48.61212" lon="7.10038">
        <ele>446.7</ele>
        <time>2021-08-01T08:37:56Z</time>
      </trkpt>
      <trkpt lat="48.61209" lon="7.1005">
        <ele>446.9</ele>
        <time>2021-08-01T08:37:58Z</time>
      </trkpt>
      <trkpt lat="48.61209" lon="7.10054">
        <ele>446.9</ele>
        <time>2021-08-01T08:37:59Z</time>
      </trkpt>
      <trkpt lat="48.61209" lon="7.10061">
        <ele>447</ele>
        <time>2021-08-01T08:38:00Z</time>
      </trkpt>
      <trkpt lat="48.61208" lon="7.10066">
        <ele>447</ele>
        <time>2021-08-01T08:38:01Z</time>
      </trkpt>
      <trkpt lat="48.61206" lon="7.10071">
        <ele>447.1</ele>
        <time>2021-08-01T08:38:03Z</time>
      </trkpt>
      <trkpt lat="48.61205" lon="7.10076">
        <ele>447.1</ele>
        <time>2021-08-01T08:38:04Z</time>
      </trkpt>
      <trkpt lat="48.61204" lon="7.10085">
        <ele>447.2</ele>
        <time>2021-08-01T08:38:06Z</time>
      </trkpt>
      <trkpt lat="48.61204" lon="7.1009">
        <ele>447.2</ele>
        <time>2021-08-01T08:38:07Z</time>
      </trkpt>
      <trkpt lat="48.61203" lon="7.10098">
        <ele>447.3</ele>
        <time>2021-08-01T08:38:09Z</time>
      </trkpt>
      <trkpt lat="48.61203" lon="7.10105">
        <ele>447.3</ele>
        <time>2021-08-01T08:38:10Z</time>
      </trkpt>
      <trkpt lat="48.61202" lon="7.10111">
        <ele>447.4</ele>
        <time>2021-08-01T08:38:12Z</time>
      </trkpt>
      <trkpt lat="48.61202" lon="7.10116">
        <ele>447.4</ele>
        <time>2021-08-01T08:38:13Z</time>
      </trkpt>
      <trkpt lat="48.61202" lon="7.10123">
        <ele>447.4</ele>
        <time>2021-08-01T08:38:14Z</time>
      </trkpt>
      <trkpt lat="48.61201" lon="7.10128">
        <ele>447.4</ele>
        <time>2021-08-01T08:38:15Z</time>
      </trkpt>
      <trkpt lat="48.61201" lon="7.10132">
        <ele>447.5</ele>
        <time>2021-08-01T08:38:16Z</time>
      </trkpt>
      <trkpt lat="48.612" lon="7.10138">
        <ele>447.5</ele>
        <time>2021-08-01T08:38:17Z</time>
      </trkpt>
      <trkpt lat="48.612" lon="7.10141">
        <ele>447.5</ele>
        <time>2021-08-01T08:38:18Z</time>
      </trkpt>
      <trkpt lat="48.612" lon="7.10146">
        <ele>447.5</ele>
        <time>2021-08-01T08:38:19Z</time>
      </trkpt>
      <trkpt lat="48.612" lon="7.10148">
        <ele>447.5</ele>
        <time>2021-08-01T08:38:20Z</time>
      </trkpt>
      <trkpt lat="48.61199" lon="7.10153">
        <ele>447.6</ele>
        <time>2021-08-01T08:38:22Z</time>
      </trkpt>
      <trkpt lat="48.61199" lon="7.10155">
        <ele>447.6</ele>
        <time>2021-08-01T08:38:23Z</time>
      </trkpt>
      <trkpt lat="48.61198" lon="7.10157">
        <ele>447.6</ele>
        <time>2021-08-01T08:38:24Z</time>
      </trkpt>
      <trkpt lat="48.61198" lon="7.1016">
        <ele>447.6</ele>
        <time>2021-08-01T08:38:25Z</time>
      </trkpt>
      <trkpt lat="48.61195" lon="7.10163">
        <ele>447.6</ele>
        <time>2021-08-01T08:38:26Z</time>
      </trkpt>
      <trkpt lat="48.61193" lon="7.10167">
        <ele>447.7</ele>
        <time>2021-08-01T08:38:27Z</time>
      </trkpt>
      <trkpt lat="48.61192" lon="7.10168">
        <ele>447.7</ele>
        <time>2021-08-01T08:38:28Z</time>
      </trkpt>
      <trkpt lat="48.61191" lon="7.10169">
        <ele>447.7</ele>
        <time>2021-08-01T08:38:29Z</time>
      </trkpt>
      <trkpt lat="48.6119" lon="7.10171">
        <ele>447.7</ele>
        <time>2021-08-01T08:38:31Z</time>
      </trkpt>
      <trkpt lat="48.61188" lon="7.10176">
        <ele>447.8</ele>
        <time>2021-08-01T08:38:33Z</time>
      </trkpt>
      <trkpt lat="48.61187" lon="7.10181">
        <ele>447.8</ele>
        <time>2021-08-01T08:38:34Z</time>
      </trkpt>
      <trkpt lat="48.61187" lon="7.10182">
        <ele>447.8</ele>
        <time>2021-08-01T08:38:35Z</time>
      </trkpt>
      <trkpt lat="48.61187" lon="7.10184">
        <ele>447.8</ele>
        <time>2021-08-01T08:38:36Z</time>
      </trkpt>
      <trkpt lat="48.61185" lon="7.10188">
        <ele>447.9</ele>
        <time>2021-08-01T08:38:38Z</time>
      </trkpt>
      <trkpt lat="48.61182" lon="7.10195">
        <ele>448</ele>
        <time>2021-08-01T08:38:40Z</time>
      </trkpt>
      <trkpt lat="48.6118" lon="7.10203">
        <ele>448.1</ele>
        <time>2021-08-01T08:38:42Z</time>
      </trkpt>
      <trkpt lat="48.61176" lon="7.10209">
        <ele>448.3</ele>
        <time>2021-08-01T08:38:44Z</time>
      </trkpt>
      <trkpt lat="48.61174" lon="7.10214">
        <ele>448.3</ele>
        <time>2021-08-01T08:38:45Z</time>
      </trkpt>
      <trkpt lat="48.61171" lon="7.10218">
        <ele>448.4</ele>
        <time>2021-08-01T08:38:46Z</time>
      </trkpt>
      <trkpt lat="48.61171" lon="7.10219">
        <ele>448.5</ele>
        <time>2021-08-01T08:38:47Z</time>
      </trkpt>
      <trkpt lat="48.61169" lon="7.10222">
        <ele>448.5</ele>
        <time>2021-08-01T08:38:49Z</time>
      </trkpt>
      <trkpt lat="48.61167" lon="7.10228">
        <ele>448.6</ele>
        <time>2021-08-01T08:38:51Z</time>
      </trkpt>
      <trkpt lat="48.61167" lon="7.10232">
        <ele>448.7</ele>
        <time>2021-08-01T08:38:52Z</time>
      </trkpt>
      <trkpt lat="48.61166" lon="7.10233">
        <ele>448.7</ele>
        <time>2021-08-01T08:38:53Z</time>
      </trkpt>
      <trkpt lat="48.61168" lon="7.10237">
        <ele>448.7</ele>
        <time>2021-08-01T08:38:54Z</time>
      </trkpt>
      <trkpt lat="48.61168" lon="7.10243">
        <ele>448.8</ele>
        <time>2021-08-01T08:38:56Z</time>
      </trkpt>
      <trkpt lat="48.61167" lon="7.10245">
        <ele>448.8</ele>
        <time>2021-08-01T08:38:57Z</time>
      </trkpt>
      <trkpt lat="48.61166" lon="7.10247">
        <ele>448.9</ele>
        <time>2021-08-01T08:38:58Z</time>
      </trkpt>
      <trkpt lat="48.61165" lon="7.10249">
        <ele>448.9</ele>
        <time>2021-08-01T08:38:59Z</time>
      </trkpt>
      <trkpt lat="48.61165" lon="7.1025">
        <ele>448.9</ele>
        <time>2021-08-01T08:39:01Z</time>
      </trkpt>
      <trkpt lat="48.61165" lon="7.10251">
        <ele>448.9</ele>
        <time>2021-08-01T08:39:02Z</time>
      </trkpt>
      <trkpt lat="48.61165" lon="7.10251">
        <ele>449</ele>
        <time>2021-08-01T08:39:03Z</time>
      </trkpt>
      <trkpt lat="48.61165" lon="7.10252">
        <ele>449</ele>
        <time>2021-08-01T08:39:05Z</time>
      </trkpt>
      <trkpt lat="48.61165" lon="7.10254">
        <ele>449</ele>
        <time>2021-08-01T08:39:06Z</time>
      </trkpt>
      <trkpt lat="48.61165" lon="7.10255">
        <ele>449</ele>
        <time>2021-08-01T08:39:08Z</time>
      </trkpt>
      <trkpt lat="48.61165" lon="7.10256">
        <ele>449</ele>
        <time>2021-08-01T08:39:09Z</time>
      </trkpt>
      <trkpt lat="48.61189" lon="7.1031">
        <ele>451.2</ele>
        <time>2021-08-01T08:39:50Z</time>
      </trkpt>
      <trkpt lat="48.6119" lon="7.10318">
        <ele>451.6</ele>
        <time>2021-08-01T08:39:52Z</time>
      </trkpt>
      <trkpt lat="48.61189" lon="7.10326">
        <ele>452.1</ele>
        <time>2021-08-01T08:39:54Z</time>
      </trkpt>
      <trkpt lat="48.61187" lon="7.10333">
        <ele>452.5</ele>
        <time>2021-08-01T08:39:56Z</time>
      </trkpt>
      <trkpt lat="48.61184" lon="7.10337">
        <ele>452.9</ele>
        <time>2021-08-01T08:39:58Z</time>
      </trkpt>
      <trkpt lat="48.61182" lon="7.10339">
        <ele>453.1</ele>
        <time>2021-08-01T08:39:59Z</time>
      </trkpt>
      <trkpt lat="48.61182" lon="7.10342">
        <ele>453.2</ele>
        <time>2021-08-01T08:40:00Z</time>
      </trkpt>
      <trkpt lat="48.61182" lon="7.10343">
        <ele>453.3</ele>
        <time>2021-08-01T08:40:01Z</time>
      </trkpt>
      <trkpt lat="48.61183" lon="7.10345">
        <ele>453.4</ele>
        <time>2021-08-01T08:40:02Z</time>
      </trkpt>
      <trkpt lat="48.61183" lon="7.10346">
        <ele>453.5</ele>
        <time>2021-08-01T08:40:04Z</time>
      </trkpt>
      <trkpt lat="48.61183" lon="7.10347">
        <ele>453.6</ele>
        <time>2021-08-01T08:40:05Z</time>
      </trkpt>
      <trkpt lat="48.61183" lon="7.10352">
        <ele>453.9</ele>
        <time>2021-08-01T08:40:07Z</time>
      </trkpt>
      <trkpt lat="48.61182" lon="7.10356">
        <ele>454.2</ele>
        <time>2021-08-01T08:40:08Z</time>
      </trkpt>
      <trkpt lat="48.61181" lon="7.10357">
        <ele>454.3</ele>
        <time>2021-08-01T08:40:09Z</time>
      </trkpt>
      <trkpt lat="48.61181" lon="7.1036">
        <ele>454.5</ele>
        <time>2021-08-01T08:40:10Z</time>
      </trkpt>
      <trkpt lat="48.6118" lon="7.10361">
        <ele>454.6</ele>
        <time>2021-08-01T08:40:11Z</time>
      </trkpt>
      <trkpt lat="48.61179" lon="7.10363">
        <ele>454.8</ele>
        <time>2021-08-01T08:40:12Z</time>
      </trkpt>
      <trkpt lat="48.61177" lon="7.10366">
        <ele>455.1</ele>
        <time>2021-08-01T08:40:14Z</time>
      </trkpt>
      <trkpt lat="48.61176" lon="7.10368">
        <ele>455.2</ele>
        <time>2021-08-01T08:40:15Z</time>
      </trkpt>
      <trkpt lat="48.61176" lon="7.1037">
        <ele>455.4</ele>
        <time>2021-08-01T08:40:16Z</time>
      </trkpt>
      <trkpt lat="48.61177" lon="7.10375">
        <ele>455.7</ele>
        <time>2021-08-01T08:40:17Z</time>
      </trkpt>
      <trkpt lat="48.61177" lon="7.10376">
        <ele>455.8</ele>
        <time>2021-08-01T08:40:18Z</time>
      </trkpt>
      <trkpt lat="48.61178" lon="7.10377">
        <ele>456</ele>
        <time>2021-08-01T08:40:19Z</time>
      </trkpt>
      <trkpt lat="48.6118" lon="7.10377">
        <ele>456.1</ele>
        <time>2021-08-01T08:40:21Z</time>
      </trkpt>
      <trkpt lat="48.61181" lon="7.10378">
        <ele>456.3</ele>
        <time>2021-08-01T08:40:22Z</time>
      </trkpt>
      <trkpt lat="48.61182" lon="7.10383">
        <ele>456.6</ele>
        <time>2021-08-01T08:40:24Z</time>
      </trkpt>
      <trkpt lat="48.61182" lon="7.10385">
        <ele>456.7</ele>
        <time>2021-08-01T08:40:25Z</time>
      </trkpt>
      <trkpt lat="48.61182" lon="7.1039">
        <ele>457.1</ele>
        <time>2021-08-01T08:40:27Z</time>
      </trkpt>
      <trkpt lat="48.61182" lon="7.10393">
        <ele>457.2</ele>
        <time>2021-08-01T08:40:28Z</time>
      </trkpt>
      <trkpt lat="48.61182" lon="7.10394">
        <ele>457.3</ele>
        <time>2021-08-01T08:40:29Z</time>
      </trkpt>
      <trkpt lat="48.61182" lon="7.10396">
        <ele>457.4</ele>
        <time>2021-08-01T08:40:31Z</time>
      </trkpt>
      <trkpt lat="48.61182" lon="7.10399">
        <ele>457.6</ele>
        <time>2021-08-01T08:40:32Z</time>
      </trkpt>
      <trkpt lat="48.61182" lon="7.10401">
        <ele>457.8</ele>
        <time>2021-08-01T08:40:33Z</time>
      </trkpt>
      <trkpt lat="48.61181" lon="7.10406">
        <ele>458.1</ele>
        <time>2021-08-01T08:40:34Z</time>
      </trkpt>
      <trkpt lat="48.61181" lon="7.10407">
        <ele>458.2</ele>
        <time>2021-08-01T08:40:35Z</time>
      </trkpt>
      <trkpt lat="48.61181" lon="7.10408">
        <ele>458.2</ele>
        <time>2021-08-01T08:40:36Z</time>
      </trkpt>
      <trkpt lat="48.61181" lon="7.10409">
        <ele>458.3</ele>
        <time>2021-08-01T08:40:37Z</time>
      </trkpt>
      <trkpt lat="48.6118" lon="7.10412">
        <ele>458.5</ele>
        <time>2021-08-01T08:40:38Z</time>
      </trkpt>
      <trkpt lat="48.6118" lon="7.10414">
        <ele>458.7</ele>
        <time>2021-08-01T08:40:40Z</time>
      </trkpt>
      <trkpt lat="48.6118" lon="7.10415">
        <ele>458.8</ele>
        <time>2021-08-01T08:40:41Z</time>
      </trkpt>
      <trkpt lat="48.61179" lon="7.10422">
        <ele>459.4</ele>
        <time>2021-08-01T08:40:43Z</time>
      </trkpt>
      <trkpt lat="48.61177" lon="7.10429">
        <ele>459.9</ele>
        <time>2021-08-01T08:40:45Z</time>
      </trkpt>
      <trkpt lat="48.61176" lon="7.10431">
        <ele>460.1</ele>
        <time>2021-08-01T08:40:46Z</time>
      </trkpt>
      <trkpt lat="48.61176" lon="7.10433">
        <ele>460.3</ele>
        <time>2021-08-01T08:40:47Z</time>
      </trkpt>
      <trkpt lat="48.61175" lon="7.10435">
        <ele>460.5</ele>
        <time>2021-08-01T08:40:48Z</time>
      </trkpt>
      <trkpt lat="48.61175" lon="7.10439">
        <ele>460.8</ele>
        <time>2021-08-01T08:40:50Z</time>
      </trkpt>
      <trkpt lat="48.61173" lon="7.10443">
        <ele>461.1</ele>
        <time>2021-08-01T08:40:51Z</time>
      </trkpt>
      <trkpt lat="48.61173" lon="7.10444">
        <ele>461.2</ele>
        <time>2021-08-01T08:40:52Z</time>
      </trkpt>
      <trkpt lat="48.61169" lon="7.10448">
        <ele>461.6</ele>
        <time>2021-08-01T08:40:54Z</time>
      </trkpt>
      <trkpt lat="48.61169" lon="7.10452">
        <ele>462</ele>
        <time>2021-08-01T08:40:55Z</time>
      </trkpt>
      <trkpt lat="48.61169" lon="7.10454">
        <ele>462</ele>
        <time>2021-08-01T08:40:56Z</time>
      </trkpt>
      <trkpt lat="48.61169" lon="7.10454">
        <ele>462.1</ele>
        <time>2021-08-01T08:40:58Z</time>
      </trkpt>
      <trkpt lat="48.61169" lon="7.10454">
        <ele>462.1</ele>
        <time>2021-08-01T08:40:59Z</time>
      </trkpt>
      <trkpt lat="48.61169" lon="7.10454">
        <ele>462.1</ele>
        <time>2021-08-01T08:41:00Z</time>
      </trkpt>
      <trkpt lat="48.61169" lon="7.10455">
        <ele>462.1</ele>
        <time>2021-08-01T08:41:02Z</time>
      </trkpt>
      <trkpt lat="48.61169" lon="7.10455">
        <ele>462.2</ele>
        <time>2021-08-01T08:41:03Z</time>
      </trkpt>
      <trkpt lat="48.6117" lon="7.10456">
        <ele>462.2</ele>
        <time>2021-08-01T08:41:04Z</time>
      </trkpt>
      <trkpt lat="48.6117" lon="7.10457">
        <ele>462.3</ele>
        <time>2021-08-01T08:41:06Z</time>
      </trkpt>
      <trkpt lat="48.61175" lon="7.10468">
        <ele>463.1</ele>
        <time>2021-08-01T08:41:11Z</time>
      </trkpt>
      <trkpt lat="48.61176" lon="7.10472">
        <ele>463.3</ele>
        <time>2021-08-01T08:41:12Z</time>
      </trkpt>
      <trkpt lat="48.61177" lon="7.10475">
        <ele>463.5</ele>
        <time>2021-08-01T08:41:13Z</time>
      </trkpt>
      <trkpt lat="48.61178" lon="7.10478">
        <ele>463.6</ele>
        <time>2021-08-01T08:41:15Z</time>
      </trkpt>
      <trkpt lat="48.61179" lon="7.10479">
        <ele>463.7</ele>
        <time>2021-08-01T08:41:16Z</time>
      </trkpt>
      <trkpt lat="48.61179" lon="7.1048">
        <ele>463.8</ele>
        <time>2021-08-01T08:41:17Z</time>
      </trkpt>
      <trkpt lat="48.6118" lon="7.10481">
        <ele>463.8</ele>
        <time>2021-08-01T08:41:19Z</time>
      </trkpt>
      <trkpt lat="48.6118" lon="7.10483">
        <ele>463.9</ele>
        <time>2021-08-01T08:41:21Z</time>
      </trkpt>
      <trkpt lat="48.61179" lon="7.10485">
        <ele>464</ele>
        <time>2021-08-01T08:41:22Z</time>
      </trkpt>
      <trkpt lat="48.61179" lon="7.10486">
        <ele>464.1</ele>
        <time>2021-08-01T08:41:24Z</time>
      </trkpt>
      <trkpt lat="48.61178" lon="7.10497">
        <ele>464.4</ele>
        <time>2021-08-01T08:41:27Z</time>
      </trkpt>
      <trkpt lat="48.61178" lon="7.10499">
        <ele>464.5</ele>
        <time>2021-08-01T08:41:28Z</time>
      </trkpt>
      <trkpt lat="48.61179" lon="7.10502">
        <ele>464.6</ele>
        <time>2021-08-01T08:41:29Z</time>
      </trkpt>
      <trkpt lat="48.61179" lon="7.10504">
        <ele>464.6</ele>
        <time>2021-08-01T08:41:30Z</time>
      </trkpt>
      <trkpt lat="48.61181" lon="7.10506">
        <ele>464.7</ele>
        <time>2021-08-01T08:41:31Z</time>
      </trkpt>
      <trkpt lat="48.61182" lon="7.10511">
        <ele>464.9</ele>
        <time>2021-08-01T08:41:33Z</time>
      </trkpt>
      <trkpt lat="48.61183" lon="7.10514">
        <ele>465</ele>
        <time>2021-08-01T08:41:34Z</time>
      </trkpt>
      <trkpt lat="48.61184" lon="7.10518">
        <ele>465.1</ele>
        <time>2021-08-01T08:41:36Z</time>
      </trkpt>
      <trkpt lat="48.61185" lon="7.10522">
        <ele>465.2</ele>
        <time>2021-08-01T08:41:37Z</time>
      </trkpt>
      <trkpt lat="48.61185" lon="7.10524">
        <ele>465.2</ele>
        <time>2021-08-01T08:41:38Z</time>
      </trkpt>
      <trkpt lat="48.61187" lon="7.10526">
        <ele>465.3</ele>
        <time>2021-08-01T08:41:39Z</time>
      </trkpt>
      <trkpt lat="48.61189" lon="7.10531">
        <ele>465.5</ele>
        <time>2021-08-01T08:41:41Z</time>
      </trkpt>
      <trkpt lat="48.61189" lon="7.10536">
        <ele>465.6</ele>
        <time>2021-08-01T08:41:42Z</time>
      </trkpt>
      <trkpt lat="48.61191" lon="7.1054">
        <ele>465.7</ele>
        <time>2021-08-01T08:41:43Z</time>
      </trkpt>
      <trkpt lat="48.61192" lon="7.10541">
        <ele>465.8</ele>
        <time>2021-08-01T08:41:44Z</time>
      </trkpt>
      <trkpt lat="48.61194" lon="7.10546">
        <ele>465.9</ele>
        <time>2021-08-01T08:41:46Z</time>
      </trkpt>
      <trkpt lat="48.61194" lon="7.10547">
        <ele>466</ele>
        <time>2021-08-01T08:41:47Z</time>
      </trkpt>
      <trkpt lat="48.61193" lon="7.10551">
        <ele>466.1</ele>
        <time>2021-08-01T08:41:48Z</time>
      </trkpt>
      <trkpt lat="48.61192" lon="7.10552">
        <ele>466.2</ele>
        <time>2021-08-01T08:41:49Z</time>
      </trkpt>
      <trkpt lat="48.61191" lon="7.10561">
        <ele>466.4</ele>
        <time>2021-08-01T08:41:51Z</time>
      </trkpt>
      <trkpt lat="48.61191" lon="7.10566">
        <ele>466.6</ele>
        <time>2021-08-01T08:41:53Z</time>
      </trkpt>
      <trkpt lat="48.6119" lon="7.10568">
        <ele>466.7</ele>
        <time>2021-08-01T08:41:54Z</time>
      </trkpt>
      <trkpt lat="48.6119" lon="7.10571">
        <ele>466.8</ele>
        <time>2021-08-01T08:41:56Z</time>
      </trkpt>
      <trkpt lat="48.6119" lon="7.10575">
        <ele>466.9</ele>
        <time>2021-08-01T08:41:57Z</time>
      </trkpt>
      <trkpt lat="48.61191" lon="7.10576">
        <ele>467</ele>
        <time>2021-08-01T08:41:58Z</time>
      </trkpt>
      <trkpt lat="48.61191" lon="7.10578">
        <ele>467</ele>
        <time>2021-08-01T08:41:59Z</time>
      </trkpt>
      <trkpt lat="48.61192" lon="7.10583">
        <ele>467.2</ele>
        <time>2021-08-01T08:42:00Z</time>
      </trkpt>
      <trkpt lat="48.61192" lon="7.10588">
        <ele>467.4</ele>
        <time>2021-08-01T08:42:01Z</time>
      </trkpt>
      <trkpt lat="48.61193" lon="7.1059">
        <ele>467.5</ele>
        <time>2021-08-01T08:42:02Z</time>
      </trkpt>
      <trkpt lat="48.61194" lon="7.10594">
        <ele>467.6</ele>
        <time>2021-08-01T08:42:04Z</time>
      </trkpt>
      <trkpt lat="48.61195" lon="7.10596">
        <ele>467.7</ele>
        <time>2021-08-01T08:42:05Z</time>
      </trkpt>
      <trkpt lat="48.61196" lon="7.10599">
        <ele>467.9</ele>
        <time>2021-08-01T08:42:06Z</time>
      </trkpt>
      <trkpt lat="48.61197" lon="7.10603">
        <ele>468</ele>
        <time>2021-08-01T08:42:08Z</time>
      </trkpt>
      <trkpt lat="48.61198" lon="7.10608">
        <ele>468.2</ele>
        <time>2021-08-01T08:42:09Z</time>
      </trkpt>
      <trkpt lat="48.61199" lon="7.10609">
        <ele>468.2</ele>
        <time>2021-08-01T08:42:10Z</time>
      </trkpt>
      <trkpt lat="48.61199" lon="7.10616">
        <ele>468.5</ele>
        <time>2021-08-01T08:42:12Z</time>
      </trkpt>
      <trkpt lat="48.61198" lon="7.10618">
        <ele>468.6</ele>
        <time>2021-08-01T08:42:13Z</time>
      </trkpt>
      <trkpt lat="48.61198" lon="7.1062">
        <ele>468.7</ele>
        <time>2021-08-01T08:42:14Z</time>
      </trkpt>
      <trkpt lat="48.61196" lon="7.10624">
        <ele>468.9</ele>
        <time>2021-08-01T08:42:15Z</time>
      </trkpt>
      <trkpt lat="48.61195" lon="7.10628">
        <ele>469.1</ele>
        <time>2021-08-01T08:42:17Z</time>
      </trkpt>
      <trkpt lat="48.61194" lon="7.10632">
        <ele>469.2</ele>
        <time>2021-08-01T08:42:18Z</time>
      </trkpt>
      <trkpt lat="48.61192" lon="7.10636">
        <ele>469.4</ele>
        <time>2021-08-01T08:42:20Z</time>
      </trkpt>
      <trkpt lat="48.61192" lon="7.10638">
        <ele>469.5</ele>
        <time>2021-08-01T08:42:21Z</time>
      </trkpt>
      <trkpt lat="48.61192" lon="7.10641">
        <ele>469.6</ele>
        <time>2021-08-01T08:42:22Z</time>
      </trkpt>
      <trkpt lat="48.61191" lon="7.10643">
        <ele>469.7</ele>
        <time>2021-08-01T08:42:23Z</time>
      </trkpt>
      <trkpt lat="48.61191" lon="7.10647">
        <ele>469.9</ele>
        <time>2021-08-01T08:42:25Z</time>
      </trkpt>
      <trkpt lat="48.61191" lon="7.10649">
        <ele>470</ele>
        <time>2021-08-01T08:42:26Z</time>
      </trkpt>
      <trkpt lat="48.61192" lon="7.10651">
        <ele>470.1</ele>
        <time>2021-08-01T08:42:27Z</time>
      </trkpt>
      <trkpt lat="48.61193" lon="7.10654">
        <ele>470.2</ele>
        <time>2021-08-01T08:42:28Z</time>
      </trkpt>
      <trkpt lat="48.61194" lon="7.10656">
        <ele>470.3</ele>
        <time>2021-08-01T08:42:30Z</time>
      </trkpt>
      <trkpt lat="48.61196" lon="7.1066">
        <ele>470.5</ele>
        <time>2021-08-01T08:42:32Z</time>
      </trkpt>
      <trkpt lat="48.61196" lon="7.10662">
        <ele>470.6</ele>
        <time>2021-08-01T08:42:33Z</time>
      </trkpt>
      <trkpt lat="48.61196" lon="7.10666">
        <ele>470.7</ele>
        <time>2021-08-01T08:42:34Z</time>
      </trkpt>
      <trkpt lat="48.61195" lon="7.10672">
        <ele>470.9</ele>
        <time>2021-08-01T08:42:36Z</time>
      </trkpt>
      <trkpt lat="48.61194" lon="7.10674">
        <ele>471</ele>
        <time>2021-08-01T08:42:37Z</time>
      </trkpt>
      <trkpt lat="48.61192" lon="7.1068">
        <ele>471.2</ele>
        <time>2021-08-01T08:42:38Z</time>
      </trkpt>
      <trkpt lat="48.61192" lon="7.10684">
        <ele>471.3</ele>
        <time>2021-08-01T08:42:40Z</time>
      </trkpt>
      <trkpt lat="48.61192" lon="7.10686">
        <ele>471.4</ele>
        <time>2021-08-01T08:42:41Z</time>
      </trkpt>
      <trkpt lat="48.61192" lon="7.10689">
        <ele>471.4</ele>
        <time>2021-08-01T08:42:43Z</time>
      </trkpt>
      <trkpt lat="48.61194" lon="7.10691">
        <ele>471.5</ele>
        <time>2021-08-01T08:42:44Z</time>
      </trkpt>
      <trkpt lat="48.61195" lon="7.10695">
        <ele>471.5</ele>
        <time>2021-08-01T08:42:45Z</time>
      </trkpt>
      <trkpt lat="48.61196" lon="7.10696">
        <ele>471.5</ele>
        <time>2021-08-01T08:42:46Z</time>
      </trkpt>
      <trkpt lat="48.61197" lon="7.10702">
        <ele>471.6</ele>
        <time>2021-08-01T08:42:48Z</time>
      </trkpt>
      <trkpt lat="48.61199" lon="7.10707">
        <ele>471.6</ele>
        <time>2021-08-01T08:42:49Z</time>
      </trkpt>
      <trkpt lat="48.61199" lon="7.10708">
        <ele>471.6</ele>
        <time>2021-08-01T08:42:50Z</time>
      </trkpt>
      <trkpt lat="48.61202" lon="7.10713">
        <ele>471.6</ele>
        <time>2021-08-01T08:42:52Z</time>
      </trkpt>
      <trkpt lat="48.61203" lon="7.10715">
        <ele>471.6</ele>
        <time>2021-08-01T08:42:53Z</time>
      </trkpt>
      <trkpt lat="48.61205" lon="7.1072">
        <ele>471.6</ele>
        <time>2021-08-01T08:42:55Z</time>
      </trkpt>
      <trkpt lat="48.61207" lon="7.10725">
        <ele>471.6</ele>
        <time>2021-08-01T08:42:56Z</time>
      </trkpt>
      <trkpt lat="48.61209" lon="7.10726">
        <ele>471.5</ele>
        <time>2021-08-01T08:42:57Z</time>
      </trkpt>
      <trkpt lat="48.61211" lon="7.10729">
        <ele>471.5</ele>
        <time>2021-08-01T08:42:58Z</time>
      </trkpt>
      <trkpt lat="48.61213" lon="7.10734">
        <ele>471.5</ele>
        <time>2021-08-01T08:43:00Z</time>
      </trkpt>
      <trkpt lat="48.61216" lon="7.10742">
        <ele>471.4</ele>
        <time>2021-08-01T08:43:02Z</time>
      </trkpt>
      <trkpt lat="48.61219" lon="7.10749">
        <ele>471.3</ele>
        <time>2021-08-01T08:43:03Z</time>
      </trkpt>
      <trkpt lat="48.61222" lon="7.10755">
        <ele>471.3</ele>
        <time>2021-08-01T08:43:05Z</time>
      </trkpt>
      <trkpt lat="48.61224" lon="7.10762">
        <ele>471.2</ele>
        <time>2021-08-01T08:43:06Z</time>
      </trkpt>
      <trkpt lat="48.61226" lon="7.10768">
        <ele>471.1</ele>
        <time>2021-08-01T08:43:08Z</time>
      </trkpt>
      <trkpt lat="48.61228" lon="7.10777">
        <ele>471</ele>
        <time>2021-08-01T08:43:09Z</time>
      </trkpt>
      <trkpt lat="48.6123" lon="7.10785">
        <ele>470.8</ele>
        <time>2021-08-01T08:43:11Z</time>
      </trkpt>
      <trkpt lat="48.61233" lon="7.10794">
        <ele>470.6</ele>
        <time>2021-08-01T08:43:12Z</time>
      </trkpt>
      <trkpt lat="48.61234" lon="7.10802">
        <ele>470.4</ele>
        <time>2021-08-01T08:43:13Z</time>
      </trkpt>
      <trkpt lat="48.61236" lon="7.10814">
        <ele>470.1</ele>
        <time>2021-08-01T08:43:15Z</time>
      </trkpt>
      <trkpt lat="48.61237" lon="7.10821">
        <ele>470</ele>
        <time>2021-08-01T08:43:16Z</time>
      </trkpt>
      <trkpt lat="48.61239" lon="7.10827">
        <ele>469.9</ele>
        <time>2021-08-01T08:43:17Z</time>
      </trkpt>
      <trkpt lat="48.6124" lon="7.10834">
        <ele>469.8</ele>
        <time>2021-08-01T08:43:19Z</time>
      </trkpt>
      <trkpt lat="48.61241" lon="7.10844">
        <ele>469.6</ele>
        <time>2021-08-01T08:43:20Z</time>
      </trkpt>
      <trkpt lat="48.61242" lon="7.10852">
        <ele>469.6</ele>
        <time>2021-08-01T08:43:22Z</time>
      </trkpt>
      <trkpt lat="48.61243" lon="7.10857">
        <ele>469.5</ele>
        <time>2021-08-01T08:43:23Z</time>
      </trkpt>
      <trkpt lat="48.61244" lon="7.10868">
        <ele>469.5</ele>
        <time>2021-08-01T08:43:25Z</time>
      </trkpt>
      <trkpt lat="48.61245" lon="7.10873">
        <ele>469.5</ele>
        <time>2021-08-01T08:43:26Z</time>
      </trkpt>
      <trkpt lat="48.61245" lon="7.10882">
        <ele>469.5</ele>
        <time>2021-08-01T08:43:27Z</time>
      </trkpt>
      <trkpt lat="48.61243" lon="7.10891">
        <ele>469.5</ele>
        <time>2021-08-01T08:43:28Z</time>
      </trkpt>
      <trkpt lat="48.61239" lon="7.10897">
        <ele>469.5</ele>
        <time>2021-08-01T08:43:29Z</time>
      </trkpt>
      <trkpt lat="48.61237" lon="7.10901">
        <ele>469.6</ele>
        <time>2021-08-01T08:43:30Z</time>
      </trkpt>
      <trkpt lat="48.61231" lon="7.10903">
        <ele>469.6</ele>
        <time>2021-08-01T08:43:33Z</time>
      </trkpt>
      <trkpt lat="48.61229" lon="7.10902">
        <ele>469.6</ele>
        <time>2021-08-01T08:43:34Z</time>
      </trkpt>
      <trkpt lat="48.61227" lon="7.10902">
        <ele>469.6</ele>
        <time>2021-08-01T08:43:36Z</time>
      </trkpt>
      <trkpt lat="48.61225" lon="7.10905">
        <ele>469.7</ele>
        <time>2021-08-01T08:43:37Z</time>
      </trkpt>
      <trkpt lat="48.61224" lon="7.10907">
        <ele>469.7</ele>
        <time>2021-08-01T08:43:38Z</time>
      </trkpt>
      <trkpt lat="48.61222" lon="7.1091">
        <ele>469.7</ele>
        <time>2021-08-01T08:43:39Z</time>
      </trkpt>
      <trkpt lat="48.6122" lon="7.10913">
        <ele>469.7</ele>
        <time>2021-08-01T08:43:41Z</time>
      </trkpt>
      <trkpt lat="48.61217" lon="7.10915">
        <ele>469.7</ele>
        <time>2021-08-01T08:43:42Z</time>
      </trkpt>
      <trkpt lat="48.61214" lon="7.10917">
        <ele>469.7</ele>
        <time>2021-08-01T08:43:43Z</time>
      </trkpt>
      <trkpt lat="48.61211" lon="7.10919">
        <ele>469.8</ele>
        <time>2021-08-01T08:43:44Z</time>
      </trkpt>
      <trkpt lat="48.61211" lon="7.1092">
        <ele>469.8</ele>
        <time>2021-08-01T08:43:45Z</time>
      </trkpt>
      <trkpt lat="48.61207" lon="7.10921">
        <ele>469.8</ele>
        <time>2021-08-01T08:43:46Z</time>
      </trkpt>
      <trkpt lat="48.61206" lon="7.10921">
        <ele>469.9</ele>
        <time>2021-08-01T08:43:47Z</time>
      </trkpt>
      <trkpt lat="48.61201" lon="7.10919">
        <ele>470</ele>
        <time>2021-08-01T08:43:49Z</time>
      </trkpt>
      <trkpt lat="48.61198" lon="7.10918">
        <ele>470</ele>
        <time>2021-08-01T08:43:50Z</time>
      </trkpt>
      <trkpt lat="48.61191" lon="7.10914">
        <ele>470.2</ele>
        <time>2021-08-01T08:43:52Z</time>
      </trkpt>
      <trkpt lat="48.61186" lon="7.10911">
        <ele>470.5</ele>
        <time>2021-08-01T08:43:54Z</time>
      </trkpt>
      <trkpt lat="48.6118" lon="7.10909">
        <ele>470.7</ele>
        <time>2021-08-01T08:43:55Z</time>
      </trkpt>
      <trkpt lat="48.61176" lon="7.10905">
        <ele>470.9</ele>
        <time>2021-08-01T08:43:57Z</time>
      </trkpt>
      <trkpt lat="48.61172" lon="7.10903">
        <ele>471.1</ele>
        <time>2021-08-01T08:43:58Z</time>
      </trkpt>
      <trkpt lat="48.61168" lon="7.10901">
        <ele>471.3</ele>
        <time>2021-08-01T08:43:59Z</time>
      </trkpt>
      <trkpt lat="48.61165" lon="7.10898">
        <ele>471.5</ele>
        <time>2021-08-01T08:44:00Z</time>
      </trkpt>
      <trkpt lat="48.61161" lon="7.10893">
        <ele>471.7</ele>
        <time>2021-08-01T08:44:02Z</time>
      </trkpt>
      <trkpt lat="48.6116" lon="7.10892">
        <ele>471.8</ele>
        <time>2021-08-01T08:44:03Z</time>
      </trkpt>
      <trkpt lat="48.61159" lon="7.10891">
        <ele>471.9</ele>
        <time>2021-08-01T08:44:04Z</time>
      </trkpt>
      <trkpt lat="48.61153" lon="7.1089">
        <ele>472.2</ele>
        <time>2021-08-01T08:44:06Z</time>
      </trkpt>
      <trkpt lat="48.61148" lon="7.10888">
        <ele>472.5</ele>
        <time>2021-08-01T08:44:08Z</time>
      </trkpt>
      <trkpt lat="48.61146" lon="7.10887">
        <ele>472.6</ele>
        <time>2021-08-01T08:44:09Z</time>
      </trkpt>
      <trkpt lat="48.61143" lon="7.10882">
        <ele>472.9</ele>
        <time>2021-08-01T08:44:10Z</time>
      </trkpt>
      <trkpt lat="48.61142" lon="7.1088">
        <ele>473</ele>
        <time>2021-08-01T08:44:11Z</time>
      </trkpt>
      <trkpt lat="48.61139" lon="7.10876">
        <ele>473.2</ele>
        <time>2021-08-01T08:44:13Z</time>
      </trkpt>
      <trkpt lat="48.61136" lon="7.10874">
        <ele>473.3</ele>
        <time>2021-08-01T08:44:14Z</time>
      </trkpt>
      <trkpt lat="48.61132" lon="7.10872">
        <ele>473.6</ele>
        <time>2021-08-01T08:44:15Z</time>
      </trkpt>
      <trkpt lat="48.61125" lon="7.1087">
        <ele>473.9</ele>
        <time>2021-08-01T08:44:16Z</time>
      </trkpt>
      <trkpt lat="48.61119" lon="7.10868">
        <ele>474.2</ele>
        <time>2021-08-01T08:44:17Z</time>
      </trkpt>
      <trkpt lat="48.61113" lon="7.10866">
        <ele>474.5</ele>
        <time>2021-08-01T08:44:19Z</time>
      </trkpt>
      <trkpt lat="48.61108" lon="7.10863">
        <ele>474.8</ele>
        <time>2021-08-01T08:44:20Z</time>
      </trkpt>
      <trkpt lat="48.61101" lon="7.1086">
        <ele>475.2</ele>
        <time>2021-08-01T08:44:21Z</time>
      </trkpt>
      <trkpt lat="48.61098" lon="7.1086">
        <ele>475.4</ele>
        <time>2021-08-01T08:44:23Z</time>
      </trkpt>
      <trkpt lat="48.61095" lon="7.10859">
        <ele>475.5</ele>
        <time>2021-08-01T08:44:24Z</time>
      </trkpt>
      <trkpt lat="48.61092" lon="7.10857">
        <ele>475.7</ele>
        <time>2021-08-01T08:44:25Z</time>
      </trkpt>
      <trkpt lat="48.61089" lon="7.10855">
        <ele>475.9</ele>
        <time>2021-08-01T08:44:26Z</time>
      </trkpt>
      <trkpt lat="48.61084" lon="7.10855">
        <ele>476.1</ele>
        <time>2021-08-01T08:44:28Z</time>
      </trkpt>
      <trkpt lat="48.61081" lon="7.10853">
        <ele>476.3</ele>
        <time>2021-08-01T08:44:30Z</time>
      </trkpt>
      <trkpt lat="48.61079" lon="7.10852">
        <ele>476.4</ele>
        <time>2021-08-01T08:44:31Z</time>
      </trkpt>
      <trkpt lat="48.61075" lon="7.10851">
        <ele>476.6</ele>
        <time>2021-08-01T08:44:33Z</time>
      </trkpt>
      <trkpt lat="48.61071" lon="7.10851">
        <ele>476.8</ele>
        <time>2021-08-01T08:44:34Z</time>
      </trkpt>
      <trkpt lat="48.6107" lon="7.10851">
        <ele>476.8</ele>
        <time>2021-08-01T08:44:35Z</time>
      </trkpt>
      <trkpt lat="48.61065" lon="7.10852">
        <ele>477</ele>
        <time>2021-08-01T08:44:37Z</time>
      </trkpt>
      <trkpt lat="48.61061" lon="7.10855">
        <ele>477.2</ele>
        <time>2021-08-01T08:44:39Z</time>
      </trkpt>
      <trkpt lat="48.61058" lon="7.10856">
        <ele>477.3</ele>
        <time>2021-08-01T08:44:40Z</time>
      </trkpt>
      <trkpt lat="48.61055" lon="7.10857">
        <ele>477.4</ele>
        <time>2021-08-01T08:44:42Z</time>
      </trkpt>
      <trkpt lat="48.61051" lon="7.10858">
        <ele>477.4</ele>
        <time>2021-08-01T08:44:43Z</time>
      </trkpt>
      <trkpt lat="48.61048" lon="7.10859">
        <ele>477.5</ele>
        <time>2021-08-01T08:44:45Z</time>
      </trkpt>
      <trkpt lat="48.61043" lon="7.10859">
        <ele>477.6</ele>
        <time>2021-08-01T08:44:47Z</time>
      </trkpt>
      <trkpt lat="48.61039" lon="7.1086">
        <ele>477.7</ele>
        <time>2021-08-01T08:44:48Z</time>
      </trkpt>
      <trkpt lat="48.61038" lon="7.1086">
        <ele>477.7</ele>
        <time>2021-08-01T08:44:49Z</time>
      </trkpt>
      <trkpt lat="48.61032" lon="7.1086">
        <ele>477.7</ele>
        <time>2021-08-01T08:44:51Z</time>
      </trkpt>
      <trkpt lat="48.61028" lon="7.10859">
        <ele>477.8</ele>
        <time>2021-08-01T08:44:53Z</time>
      </trkpt>
      <trkpt lat="48.61024" lon="7.10857">
        <ele>477.7</ele>
        <time>2021-08-01T08:44:54Z</time>
      </trkpt>
      <trkpt lat="48.61022" lon="7.10857">
        <ele>477.6</ele>
        <time>2021-08-01T08:44:56Z</time>
      </trkpt>
      <trkpt lat="48.61021" lon="7.10857">
        <ele>477.6</ele>
        <time>2021-08-01T08:44:57Z</time>
      </trkpt>
      <trkpt lat="48.61021" lon="7.10857">
        <ele>477.6</ele>
        <time>2021-08-01T08:44:58Z</time>
      </trkpt>
      <trkpt lat="48.61021" lon="7.10857">
        <ele>477.6</ele>
        <time>2021-08-01T08:44:59Z</time>
      </trkpt>
      <trkpt lat="48.6102" lon="7.10858">
        <ele>477.7</ele>
        <time>2021-08-01T08:45:00Z</time>
      </trkpt>
      <trkpt lat="48.6102" lon="7.10858">
        <ele>477.7</ele>
        <time>2021-08-01T08:45:01Z</time>
      </trkpt>
      <trkpt lat="48.6102" lon="7.10858">
        <ele>477.7</ele>
        <time>2021-08-01T08:45:02Z</time>
      </trkpt>
      <trkpt lat="48.6102" lon="7.10858">
        <ele>477.7</ele>
        <time>2021-08-01T08:45:03Z</time>
      </trkpt>
      <trkpt lat="48.6102" lon="7.10858">
        <ele>477.8</ele>
        <time>2021-08-01T08:45:05Z</time>
      </trkpt>
      <trkpt lat="48.6102" lon="7.10858">
        <ele>477.8</ele>
        <time>2021-08-01T08:45:07Z</time>
      </trkpt>
      <trkpt lat="48.6102" lon="7.10762">
        <ele>477.7</ele>
        <time>2021-08-01T08:50:10Z</time>
      </trkpt>
      <trkpt lat="48.61022" lon="7.10758">
        <ele>478.1</ele>
        <time>2021-08-01T08:50:12Z</time>
      </trkpt>
      <trkpt lat="48.61025" lon="7.10755">
        <ele>478.6</ele>
        <time>2021-08-01T08:50:13Z</time>
      </trkpt>
      <trkpt lat="48.61031" lon="7.1075">
        <ele>479.3</ele>
        <time>2021-08-01T08:50:15Z</time>
      </trkpt>
      <trkpt lat="48.61034" lon="7.10748">
        <ele>479.6</ele>
        <time>2021-08-01T08:50:16Z</time>
      </trkpt>
      <trkpt lat="48.61036" lon="7.10747">
        <ele>480.1</ele>
        <time>2021-08-01T08:50:18Z</time>
      </trkpt>
      <trkpt lat="48.61039" lon="7.10745">
        <ele>480.3</ele>
        <time>2021-08-01T08:50:20Z</time>
      </trkpt>
      <trkpt lat="48.61042" lon="7.10743">
        <ele>480.6</ele>
        <time>2021-08-01T08:50:21Z</time>
      </trkpt>
      <trkpt lat="48.61044" lon="7.10741">
        <ele>481</ele>
        <time>2021-08-01T08:50:22Z</time>
      </trkpt>
      <trkpt lat="48.61047" lon="7.10739">
        <ele>481.1</ele>
        <time>2021-08-01T08:50:23Z</time>
      </trkpt>
      <trkpt lat="48.61049" lon="7.10737">
        <ele>481.5</ele>
        <time>2021-08-01T08:50:24Z</time>
      </trkpt>
      <trkpt lat="48.61052" lon="7.10735">
        <ele>481.7</ele>
        <time>2021-08-01T08:50:25Z</time>
      </trkpt>
      <trkpt lat="48.61055" lon="7.10733">
        <ele>482.2</ele>
        <time>2021-08-01T08:55:36Z</time>
      </trkpt>
      <trkpt lat="48.61057" lon="7.10732">
        <ele>482.4</ele>
        <time>2021-08-01T08:55:37Z</time>
      </trkpt>
      <trkpt lat="48.6106" lon="7.1073">
        <ele>482.6</ele>
        <time>2021-08-01T08:55:38Z</time>
      </trkpt>
      <trkpt lat="48.61062" lon="7.10728">
        <ele>482.9</ele>
        <time>2021-08-01T08:55:39Z</time>
      </trkpt>
      <trkpt lat="48.61066" lon="7.10726">
        <ele>483</ele>
        <time>2021-08-01T08:55:41Z</time>
      </trkpt>
      <trkpt lat="48.61068" lon="7.10725">
        <ele>483.1</ele>
        <time>2021-08-01T08:55:42Z</time>
      </trkpt>
      <trkpt lat="48.6107" lon="7.10722">
        <ele>483.1</ele>
        <time>2021-08-01T08:55:43Z</time>
      </trkpt>
      <trkpt lat="48.61071" lon="7.10721">
        <ele>483.1</ele>
        <time>2021-08-01T08:55:44Z</time>
      </trkpt>
      <trkpt lat="48.61072" lon="7.1072">
        <ele>483.2</ele>
        <time>2021-08-01T08:55:45Z</time>
      </trkpt>
      <trkpt lat="48.61072" lon="7.10717">
        <ele>483.2</ele>
        <time>2021-08-01T08:55:48Z</time>
      </trkpt>
      <trkpt lat="48.61071" lon="7.10713">
        <ele>483.2</ele>
        <time>2021-08-01T08:55:49Z</time>
      </trkpt>
      <trkpt lat="48.61067" lon="7.10709">
        <ele>483.3</ele>
        <time>2021-08-01T08:55:50Z</time>
      </trkpt>
      <trkpt lat="48.61066" lon="7.10707">
        <ele>483.3</ele>
        <time>2021-08-01T08:55:51Z</time>
      </trkpt>
      <trkpt lat="48.61064" lon="7.10703">
        <ele>483.2</ele>
        <time>2021-08-01T08:55:53Z</time>
      </trkpt>
      <trkpt lat="48.61061" lon="7.10694">
        <ele>483</ele>
        <time>2021-08-01T08:55:55Z</time>
      </trkpt>
      <trkpt lat="48.61057" lon="7.10693">
        <ele>482.9</ele>
        <time>2021-08-01T08:55:56Z</time>
      </trkpt>
      <trkpt lat="48.61052" lon="7.10694">
        <ele>482.7</ele>
        <time>2021-08-01T08:55:57Z</time>
      </trkpt>
      <trkpt lat="48.61049" lon="7.10698">
        <ele>482.8</ele>
        <time>2021-08-01T08:55:59Z</time>
      </trkpt>
      <trkpt lat="48.61047" lon="7.10701">
        <ele>482.9</ele>
        <time>2021-08-01T08:56:00Z</time>
      </trkpt>
      <trkpt lat="48.61046" lon="7.10702">
        <ele>482.8</ele>
        <time>2021-08-01T08:56:01Z</time>
      </trkpt>
      <trkpt lat="48.61046" lon="7.10703">
        <ele>482.9</ele>
        <time>2021-08-01T08:56:02Z</time>
      </trkpt>
      <trkpt lat="48.61045" lon="7.10703">
        <ele>482.9</ele>
        <time>2021-08-01T08:56:03Z</time>
      </trkpt>
      <trkpt lat="48.61045" lon="7.10703">
        <ele>482.9</ele>
        <time>2021-08-01T08:56:05Z</time>
      </trkpt>
      <trkpt lat="48.61045" lon="7.10703">
        <ele>482.9</ele>
        <time>2021-08-01T08:56:06Z</time>
      </trkpt>
      <trkpt lat="48.61045" lon="7.10702">
        <ele>482.9</ele>
        <time>2021-08-01T08:56:07Z</time>
      </trkpt>
      <trkpt lat="48.61046" lon="7.10701">
        <ele>483</ele>
        <time>2021-08-01T08:56:08Z</time>
      </trkpt>
      <trkpt lat="48.61047" lon="7.10699">
        <ele>482.9</ele>
        <time>2021-08-01T08:56:10Z</time>
      </trkpt>
      <trkpt lat="48.61048" lon="7.10698">
        <ele>483</ele>
        <time>2021-08-01T08:56:11Z</time>
      </trkpt>
      <trkpt lat="48.61054" lon="7.10688">
        <ele>483</ele>
        <time>2021-08-01T08:56:12Z</time>
      </trkpt>
      <trkpt lat="48.61042" lon="7.10753">
        <ele>481.1</ele>
        <time>2021-08-01T08:57:57Z</time>
      </trkpt>
      <trkpt lat="48.61038" lon="7.10755">
        <ele>480.6</ele>
        <time>2021-08-01T08:57:59Z</time>
      </trkpt>
      <trkpt lat="48.61032" lon="7.10756">
        <ele>480</ele>
        <time>2021-08-01T08:58:00Z</time>
      </trkpt>
      <trkpt lat="48.61027" lon="7.10757">
        <ele>479.7</ele>
        <time>2021-08-01T08:58:01Z</time>
      </trkpt>
      <trkpt lat="48.61024" lon="7.10758">
        <ele>479.2</ele>
        <time>2021-08-01T08:58:02Z</time>
      </trkpt>
      <trkpt lat="48.6102" lon="7.10759">
        <ele>478.9</ele>
        <time>2021-08-01T08:58:03Z</time>
      </trkpt>
      <trkpt lat="48.61018" lon="7.10759">
        <ele>478.6</ele>
        <time>2021-08-01T08:58:05Z</time>
      </trkpt>
      <trkpt lat="48.61015" lon="7.10761">
        <ele>478.2</ele>
        <time>2021-08-01T08:58:06Z</time>
      </trkpt>
      <trkpt lat="48.61011" lon="7.10763">
        <ele>477.9</ele>
        <time>2021-08-01T08:58:07Z</time>
      </trkpt>
      <trkpt lat="48.61008" lon="7.10771">
        <ele>477.4</ele>
        <time>2021-08-01T08:58:08Z</time>
      </trkpt>
      <trkpt lat="48.61005" lon="7.10779">
        <ele>477.1</ele>
        <time>2021-08-01T08:58:09Z</time>
      </trkpt>
      <trkpt lat="48.61003" lon="7.10786">
        <ele>477</ele>
        <time>2021-08-01T08:58:11Z</time>
      </trkpt>
      <trkpt lat="48.61001" lon="7.10794">
        <ele>476.8</ele>
        <time>2021-08-01T08:58:12Z</time>
      </trkpt>
      <trkpt lat="48.60998" lon="7.10801">
        <ele>476.6</ele>
        <time>2021-08-01T08:58:14Z</time>
      </trkpt>
      <trkpt lat="48.60996" lon="7.10809">
        <ele>476.8</ele>
        <time>2021-08-01T08:58:15Z</time>
      </trkpt>
      <trkpt lat="48.60994" lon="7.10816">
        <ele>476.8</ele>
        <time>2021-08-01T08:58:17Z</time>
      </trkpt>
      <trkpt lat="48.60992" lon="7.10823">
        <ele>476.7</ele>
        <time>2021-08-01T08:58:18Z</time>
      </trkpt>
      <trkpt lat="48.60989" lon="7.10831">
        <ele>476.9</ele>
        <time>2021-08-01T09:04:53Z</time>
      </trkpt>
      <trkpt lat="48.60987" lon="7.10838">
        <ele>477.3</ele>
        <time>2021-08-01T09:04:54Z</time>
      </trkpt>
      <trkpt lat="48.60983" lon="7.10836">
        <ele>477</ele>
        <time>2021-08-01T09:04:55Z</time>
      </trkpt>
      <trkpt lat="48.60979" lon="7.10834">
        <ele>476.7</ele>
        <time>2021-08-01T09:04:56Z</time>
      </trkpt>
      <trkpt lat="48.60976" lon="7.10833">
        <ele>476.5</ele>
        <time>2021-08-01T09:04:58Z</time>
      </trkpt>
      <trkpt lat="48.60973" lon="7.10832">
        <ele>476.3</ele>
        <time>2021-08-01T09:04:59Z</time>
      </trkpt>
      <trkpt lat="48.60969" lon="7.1083">
        <ele>475.8</ele>
        <time>2021-08-01T09:05:01Z</time>
      </trkpt>
      <trkpt lat="48.60967" lon="7.10829">
        <ele>475.7</ele>
        <time>2021-08-01T09:05:02Z</time>
      </trkpt>
      <trkpt lat="48.60966" lon="7.10828">
        <ele>475.5</ele>
        <time>2021-08-01T09:05:03Z</time>
      </trkpt>
      <trkpt lat="48.60959" lon="7.10823">
        <ele>474.7</ele>
        <time>2021-08-01T09:05:05Z</time>
      </trkpt>
      <trkpt lat="48.60955" lon="7.1082">
        <ele>474.3</ele>
        <time>2021-08-01T09:05:06Z</time>
      </trkpt>
      <trkpt lat="48.60952" lon="7.1082">
        <ele>473.9</ele>
        <time>2021-08-01T09:05:07Z</time>
      </trkpt>
      <trkpt lat="48.60947" lon="7.1082">
        <ele>473.5</ele>
        <time>2021-08-01T09:05:09Z</time>
      </trkpt>
      <trkpt lat="48.60946" lon="7.10819">
        <ele>473.3</ele>
        <time>2021-08-01T09:05:10Z</time>
      </trkpt>
      <trkpt lat="48.60944" lon="7.10818">
        <ele>473.1</ele>
        <time>2021-08-01T09:05:11Z</time>
      </trkpt>
      <trkpt lat="48.60937" lon="7.10814">
        <ele>472.4</ele>
        <time>2021-08-01T09:05:13Z</time>
      </trkpt>
      <trkpt lat="48.6093" lon="7.10811">
        <ele>471.7</ele>
        <time>2021-08-01T09:05:15Z</time>
      </trkpt>
      <trkpt lat="48.60924" lon="7.10809">
        <ele>471.1</ele>
        <time>2021-08-01T09:05:17Z</time>
      </trkpt>
      <trkpt lat="48.60922" lon="7.10807">
        <ele>470.9</ele>
        <time>2021-08-01T09:05:18Z</time>
      </trkpt>
      <trkpt lat="48.60918" lon="7.10803">
        <ele>470.4</ele>
        <time>2021-08-01T09:05:20Z</time>
      </trkpt>
      <trkpt lat="48.60916" lon="7.10802">
        <ele>470.3</ele>
        <time>2021-08-01T09:05:22Z</time>
      </trkpt>
      <trkpt lat="48.60916" lon="7.10802">
        <ele>470.3</ele>
        <time>2021-08-01T09:05:23Z</time>
      </trkpt>
      <trkpt lat="48.60912" lon="7.10798">
        <ele>469.8</ele>
        <time>2021-08-01T09:05:25Z</time>
      </trkpt>
      <trkpt lat="48.6091" lon="7.10797">
        <ele>469.6</ele>
        <time>2021-08-01T09:05:26Z</time>
      </trkpt>
      <trkpt lat="48.60906" lon="7.10794">
        <ele>469.1</ele>
        <time>2021-08-01T09:05:28Z</time>
      </trkpt>
      <trkpt lat="48.609" lon="7.10794">
        <ele>468.6</ele>
        <time>2021-08-01T09:05:30Z</time>
      </trkpt>
      <trkpt lat="48.60895" lon="7.10791">
        <ele>468.1</ele>
        <time>2021-08-01T09:05:32Z</time>
      </trkpt>
      <trkpt lat="48.60892" lon="7.1079">
        <ele>467.9</ele>
        <time>2021-08-01T09:05:33Z</time>
      </trkpt>
      <trkpt lat="48.60887" lon="7.10789">
        <ele>467.3</ele>
        <time>2021-08-01T09:05:35Z</time>
      </trkpt>
      <trkpt lat="48.60884" lon="7.10788">
        <ele>467.1</ele>
        <time>2021-08-01T09:05:36Z</time>
      </trkpt>
      <trkpt lat="48.60882" lon="7.10786">
        <ele>466.8</ele>
        <time>2021-08-01T09:05:37Z</time>
      </trkpt>
      <trkpt lat="48.60876" lon="7.10785">
        <ele>466.2</ele>
        <time>2021-08-01T09:05:39Z</time>
      </trkpt>
      <trkpt lat="48.60869" lon="7.10784">
        <ele>465.4</ele>
        <time>2021-08-01T09:05:41Z</time>
      </trkpt>
      <trkpt lat="48.60863" lon="7.10782">
        <ele>464.7</ele>
        <time>2021-08-01T09:05:42Z</time>
      </trkpt>
      <trkpt lat="48.60855" lon="7.10781">
        <ele>463.7</ele>
        <time>2021-08-01T09:05:44Z</time>
      </trkpt>
      <trkpt lat="48.60851" lon="7.10777">
        <ele>463.2</ele>
        <time>2021-08-01T09:05:45Z</time>
      </trkpt>
      <trkpt lat="48.60849" lon="7.10773">
        <ele>462.7</ele>
        <time>2021-08-01T09:05:46Z</time>
      </trkpt>
      <trkpt lat="48.60843" lon="7.10772">
        <ele>462</ele>
        <time>2021-08-01T09:05:47Z</time>
      </trkpt>
      <trkpt lat="48.60838" lon="7.10772">
        <ele>461.4</ele>
        <time>2021-08-01T09:05:48Z</time>
      </trkpt>
      <trkpt lat="48.60834" lon="7.10773">
        <ele>461</ele>
        <time>2021-08-01T09:05:50Z</time>
      </trkpt>
      <trkpt lat="48.60829" lon="7.10775">
        <ele>460.5</ele>
        <time>2021-08-01T09:05:51Z</time>
      </trkpt>
      <trkpt lat="48.60824" lon="7.10777">
        <ele>460.1</ele>
        <time>2021-08-01T09:05:52Z</time>
      </trkpt>
      <trkpt lat="48.60819" lon="7.10778">
        <ele>459.5</ele>
        <time>2021-08-01T09:05:54Z</time>
      </trkpt>
      <trkpt lat="48.60813" lon="7.10781">
        <ele>459.1</ele>
        <time>2021-08-01T09:05:55Z</time>
      </trkpt>
      <trkpt lat="48.60809" lon="7.10782">
        <ele>458.7</ele>
        <time>2021-08-01T09:05:56Z</time>
      </trkpt>
      <trkpt lat="48.60804" lon="7.10783">
        <ele>458.4</ele>
        <time>2021-08-01T09:05:57Z</time>
      </trkpt>
      <trkpt lat="48.608" lon="7.10783">
        <ele>458.2</ele>
        <time>2021-08-01T09:05:58Z</time>
      </trkpt>
      <trkpt lat="48.60796" lon="7.10784">
        <ele>457.9</ele>
        <time>2021-08-01T09:06:00Z</time>
      </trkpt>
      <trkpt lat="48.60791" lon="7.10785">
        <ele>457.6</ele>
        <time>2021-08-01T09:06:01Z</time>
      </trkpt>
      <trkpt lat="48.60787" lon="7.10785">
        <ele>457.3</ele>
        <time>2021-08-01T09:06:03Z</time>
      </trkpt>
      <trkpt lat="48.60779" lon="7.10787">
        <ele>456.8</ele>
        <time>2021-08-01T09:06:04Z</time>
      </trkpt>
      <trkpt lat="48.60774" lon="7.10789">
        <ele>456.5</ele>
        <time>2021-08-01T09:06:06Z</time>
      </trkpt>
      <trkpt lat="48.60771" lon="7.1079">
        <ele>456.2</ele>
        <time>2021-08-01T09:06:07Z</time>
      </trkpt>
      <trkpt lat="48.60767" lon="7.10791">
        <ele>456</ele>
        <time>2021-08-01T09:06:08Z</time>
      </trkpt>
      <trkpt lat="48.60764" lon="7.10792">
        <ele>455.7</ele>
        <time>2021-08-01T09:06:09Z</time>
      </trkpt>
      <trkpt lat="48.60761" lon="7.10794">
        <ele>455.5</ele>
        <time>2021-08-01T09:06:10Z</time>
      </trkpt>
      <trkpt lat="48.60758" lon="7.10796">
        <ele>455.2</ele>
        <time>2021-08-01T09:06:11Z</time>
      </trkpt>
      <trkpt lat="48.60755" lon="7.10801">
        <ele>454.9</ele>
        <time>2021-08-01T09:06:13Z</time>
      </trkpt>
      <trkpt lat="48.60754" lon="7.10803">
        <ele>454.7</ele>
        <time>2021-08-01T09:06:14Z</time>
      </trkpt>
      <trkpt lat="48.60752" lon="7.10806">
        <ele>454.5</ele>
        <time>2021-08-01T09:06:16Z</time>
      </trkpt>
      <trkpt lat="48.60748" lon="7.10811">
        <ele>453.9</ele>
        <time>2021-08-01T09:06:18Z</time>
      </trkpt>
      <trkpt lat="48.60744" lon="7.10815">
        <ele>453.3</ele>
        <time>2021-08-01T09:06:19Z</time>
      </trkpt>
      <trkpt lat="48.6074" lon="7.10816">
        <ele>452.9</ele>
        <time>2021-08-01T09:06:20Z</time>
      </trkpt>
      <trkpt lat="48.60737" lon="7.10819">
        <ele>452.4</ele>
        <time>2021-08-01T09:06:22Z</time>
      </trkpt>
      <trkpt lat="48.60735" lon="7.1082">
        <ele>452.2</ele>
        <time>2021-08-01T09:06:23Z</time>
      </trkpt>
      <trkpt lat="48.60735" lon="7.10821">
        <ele>452.1</ele>
        <time>2021-08-01T09:06:24Z</time>
      </trkpt>
      <trkpt lat="48.60732" lon="7.10822">
        <ele>451.8</ele>
        <time>2021-08-01T09:06:26Z</time>
      </trkpt>
      <trkpt lat="48.60729" lon="7.10822">
        <ele>451.3</ele>
        <time>2021-08-01T09:06:27Z</time>
      </trkpt>
      <trkpt lat="48.60723" lon="7.10821">
        <ele>450.6</ele>
        <time>2021-08-01T09:06:29Z</time>
      </trkpt>
      <trkpt lat="48.60721" lon="7.1082">
        <ele>450.3</ele>
        <time>2021-08-01T09:06:30Z</time>
      </trkpt>
      <trkpt lat="48.60718" lon="7.10819">
        <ele>450</ele>
        <time>2021-08-01T09:06:31Z</time>
      </trkpt>
      <trkpt lat="48.60714" lon="7.10818">
        <ele>449.5</ele>
        <time>2021-08-01T09:06:32Z</time>
      </trkpt>
      <trkpt lat="48.60709" lon="7.10816">
        <ele>449</ele>
        <time>2021-08-01T09:06:34Z</time>
      </trkpt>
      <trkpt lat="48.60704" lon="7.10817">
        <ele>448.4</ele>
        <time>2021-08-01T09:06:35Z</time>
      </trkpt>
      <trkpt lat="48.60699" lon="7.10818">
        <ele>448</ele>
        <time>2021-08-01T09:06:36Z</time>
      </trkpt>
      <trkpt lat="48.60693" lon="7.10819">
        <ele>447.5</ele>
        <time>2021-08-01T09:06:37Z</time>
      </trkpt>
      <trkpt lat="48.60679" lon="7.10824">
        <ele>446.7</ele>
        <time>2021-08-01T09:06:39Z</time>
      </trkpt>
      <trkpt lat="48.60668" lon="7.10829">
        <ele>446.3</ele>
        <time>2021-08-01T09:06:41Z</time>
      </trkpt>
      <trkpt lat="48.60663" lon="7.10831">
        <ele>446.2</ele>
        <time>2021-08-01T09:06:42Z</time>
      </trkpt>
      <trkpt lat="48.60659" lon="7.10833">
        <ele>446</ele>
        <time>2021-08-01T09:06:43Z</time>
      </trkpt>
      <trkpt lat="48.60654" lon="7.10835">
        <ele>445.9</ele>
        <time>2021-08-01T09:06:45Z</time>
      </trkpt>
      <trkpt lat="48.60649" lon="7.10836">
        <ele>445.7</ele>
        <time>2021-08-01T09:06:46Z</time>
      </trkpt>
      <trkpt lat="48.60643" lon="7.10838">
        <ele>445.5</ele>
        <time>2021-08-01T09:06:47Z</time>
      </trkpt>
      <trkpt lat="48.60639" lon="7.10841">
        <ele>445.2</ele>
        <time>2021-08-01T09:06:49Z</time>
      </trkpt>
      <trkpt lat="48.60634" lon="7.10845">
        <ele>445.1</ele>
        <time>2021-08-01T09:06:50Z</time>
      </trkpt>
      <trkpt lat="48.6063" lon="7.1085">
        <ele>445</ele>
        <time>2021-08-01T09:06:51Z</time>
      </trkpt>
      <trkpt lat="48.60627" lon="7.10855">
        <ele>444.8</ele>
        <time>2021-08-01T09:06:52Z</time>
      </trkpt>
      <trkpt lat="48.60619" lon="7.10864">
        <ele>444.6</ele>
        <time>2021-08-01T09:06:54Z</time>
      </trkpt>
      <trkpt lat="48.6061" lon="7.10873">
        <ele>444.3</ele>
        <time>2021-08-01T09:06:56Z</time>
      </trkpt>
      <trkpt lat="48.60608" lon="7.10872">
        <ele>444.2</ele>
        <time>2021-08-01T09:06:57Z</time>
      </trkpt>
      <trkpt lat="48.60604" lon="7.10875">
        <ele>444.1</ele>
        <time>2021-08-01T09:06:58Z</time>
      </trkpt>
      <trkpt lat="48.60599" lon="7.10884">
        <ele>444</ele>
        <time>2021-08-01T09:06:59Z</time>
      </trkpt>
      <trkpt lat="48.60597" lon="7.10891">
        <ele>443.9</ele>
        <time>2021-08-01T09:07:01Z</time>
      </trkpt>
      <trkpt lat="48.60595" lon="7.10899">
        <ele>443.8</ele>
        <time>2021-08-01T09:07:02Z</time>
      </trkpt>
      <trkpt lat="48.60592" lon="7.10909">
        <ele>443.7</ele>
        <time>2021-08-01T09:07:03Z</time>
      </trkpt>
      <trkpt lat="48.60589" lon="7.10917">
        <ele>443.6</ele>
        <time>2021-08-01T09:07:05Z</time>
      </trkpt>
      <trkpt lat="48.60585" lon="7.10924">
        <ele>443.6</ele>
        <time>2021-08-01T09:07:06Z</time>
      </trkpt>
      <trkpt lat="48.60581" lon="7.10929">
        <ele>443.6</ele>
        <time>2021-08-01T09:07:07Z</time>
      </trkpt>
      <trkpt lat="48.60574" lon="7.10932">
        <ele>443.5</ele>
        <time>2021-08-01T09:07:09Z</time>
      </trkpt>
      <trkpt lat="48.60567" lon="7.10934">
        <ele>443.5</ele>
        <time>2021-08-01T09:07:10Z</time>
      </trkpt>
      <trkpt lat="48.60559" lon="7.10934">
        <ele>443.5</ele>
        <time>2021-08-01T09:07:12Z</time>
      </trkpt>
      <trkpt lat="48.60553" lon="7.10935">
        <ele>443.5</ele>
        <time>2021-08-01T09:07:13Z</time>
      </trkpt>
      <trkpt lat="48.60548" lon="7.10936">
        <ele>443.6</ele>
        <time>2021-08-01T09:07:15Z</time>
      </trkpt>
      <trkpt lat="48.60539" lon="7.10938">
        <ele>443.7</ele>
        <time>2021-08-01T09:07:17Z</time>
      </trkpt>
      <trkpt lat="48.60534" lon="7.10938">
        <ele>443.9</ele>
        <time>2021-08-01T09:07:18Z</time>
      </trkpt>
      <trkpt lat="48.60529" lon="7.10938">
        <ele>444</ele>
        <time>2021-08-01T09:07:19Z</time>
      </trkpt>
      <trkpt lat="48.60525" lon="7.10939">
        <ele>444.1</ele>
        <time>2021-08-01T09:07:20Z</time>
      </trkpt>
      <trkpt lat="48.60521" lon="7.10939">
        <ele>444.3</ele>
        <time>2021-08-01T09:07:21Z</time>
      </trkpt>
      <trkpt lat="48.60517" lon="7.10938">
        <ele>444.4</ele>
        <time>2021-08-01T09:07:22Z</time>
      </trkpt>
      <trkpt lat="48.60512" lon="7.10936">
        <ele>444.5</ele>
        <time>2021-08-01T09:07:23Z</time>
      </trkpt>
      <trkpt lat="48.60509" lon="7.10934">
        <ele>444.6</ele>
        <time>2021-08-01T09:07:24Z</time>
      </trkpt>
      <trkpt lat="48.60507" lon="7.10933">
        <ele>444.7</ele>
        <time>2021-08-01T09:07:25Z</time>
      </trkpt>
      <trkpt lat="48.60502" lon="7.10927">
        <ele>444.9</ele>
        <time>2021-08-01T09:07:27Z</time>
      </trkpt>
      <trkpt lat="48.60498" lon="7.10923">
        <ele>445</ele>
        <time>2021-08-01T09:07:28Z</time>
      </trkpt>
      <trkpt lat="48.60495" lon="7.10919">
        <ele>445.2</ele>
        <time>2021-08-01T09:07:29Z</time>
      </trkpt>
      <trkpt lat="48.60492" lon="7.10916">
        <ele>445.3</ele>
        <time>2021-08-01T09:07:30Z</time>
      </trkpt>
      <trkpt lat="48.60489" lon="7.10913">
        <ele>445.4</ele>
        <time>2021-08-01T09:07:32Z</time>
      </trkpt>
      <trkpt lat="48.60487" lon="7.1091">
        <ele>445.5</ele>
        <time>2021-08-01T09:07:33Z</time>
      </trkpt>
      <trkpt lat="48.60484" lon="7.10908">
        <ele>445.6</ele>
        <time>2021-08-01T09:07:34Z</time>
      </trkpt>
      <trkpt lat="48.60481" lon="7.10902">
        <ele>445.8</ele>
        <time>2021-08-01T09:07:35Z</time>
      </trkpt>
      <trkpt lat="48.60476" lon="7.10896">
        <ele>446.1</ele>
        <time>2021-08-01T09:07:37Z</time>
      </trkpt>
      <trkpt lat="48.60472" lon="7.10893">
        <ele>446.3</ele>
        <time>2021-08-01T09:07:38Z</time>
      </trkpt>
      <trkpt lat="48.60467" lon="7.1089">
        <ele>446.6</ele>
        <time>2021-08-01T09:07:39Z</time>
      </trkpt>
      <trkpt lat="48.60465" lon="7.10889">
        <ele>446.8</ele>
        <time>2021-08-01T09:07:40Z</time>
      </trkpt>
      <trkpt lat="48.60462" lon="7.10886">
        <ele>447</ele>
        <time>2021-08-01T09:07:41Z</time>
      </trkpt>
      <trkpt lat="48.60461" lon="7.10886">
        <ele>447.1</ele>
        <time>2021-08-01T09:07:42Z</time>
      </trkpt>
      <trkpt lat="48.6046" lon="7.10884">
        <ele>447.2</ele>
        <time>2021-08-01T09:07:43Z</time>
      </trkpt>
      <trkpt lat="48.60459" lon="7.10883">
        <ele>447.3</ele>
        <time>2021-08-01T09:07:44Z</time>
      </trkpt>
      <trkpt lat="48.60459" lon="7.10881">
        <ele>447.4</ele>
        <time>2021-08-01T09:07:46Z</time>
      </trkpt>
      <trkpt lat="48.60459" lon="7.10879">
        <ele>447.5</ele>
        <time>2021-08-01T09:07:47Z</time>
      </trkpt>
      <trkpt lat="48.60459" lon="7.10878">
        <ele>447.5</ele>
        <time>2021-08-01T09:07:48Z</time>
      </trkpt>
      <trkpt lat="48.60459" lon="7.10877">
        <ele>447.6</ele>
        <time>2021-08-01T09:07:49Z</time>
      </trkpt>
      <trkpt lat="48.60459" lon="7.10874">
        <ele>447.7</ele>
        <time>2021-08-01T09:07:51Z</time>
      </trkpt>
      <trkpt lat="48.6046" lon="7.10872">
        <ele>447.9</ele>
        <time>2021-08-01T09:07:53Z</time>
      </trkpt>
      <trkpt lat="48.6046" lon="7.10871">
        <ele>447.9</ele>
        <time>2021-08-01T09:07:54Z</time>
      </trkpt>
      <trkpt lat="48.60461" lon="7.1087">
        <ele>448</ele>
        <time>2021-08-01T09:07:55Z</time>
      </trkpt>
      <trkpt lat="48.60461" lon="7.10869">
        <ele>448.1</ele>
        <time>2021-08-01T09:07:57Z</time>
      </trkpt>
      <trkpt lat="48.60461" lon="7.10868">
        <ele>448.1</ele>
        <time>2021-08-01T09:07:58Z</time>
      </trkpt>
      <trkpt lat="48.60461" lon="7.10867">
        <ele>448.1</ele>
        <time>2021-08-01T09:07:59Z</time>
      </trkpt>
      <trkpt lat="48.60461" lon="7.10867">
        <ele>448.2</ele>
        <time>2021-08-01T09:08:00Z</time>
      </trkpt>
      <trkpt lat="48.60461" lon="7.10866">
        <ele>448.2</ele>
        <time>2021-08-01T09:08:01Z</time>
      </trkpt>
      <trkpt lat="48.60461" lon="7.10866">
        <ele>448.2</ele>
        <time>2021-08-01T09:08:03Z</time>
      </trkpt>
      <trkpt lat="48.60461" lon="7.10865">
        <ele>448.2</ele>
        <time>2021-08-01T09:08:04Z</time>
      </trkpt>
      <trkpt lat="48.60461" lon="7.10865">
        <ele>448.3</ele>
        <time>2021-08-01T09:08:06Z</time>
      </trkpt>
      <trkpt lat="48.60462" lon="7.10862">
        <ele>448.4</ele>
        <time>2021-08-01T09:08:07Z</time>
      </trkpt>
      <trkpt lat="48.60459" lon="7.10837">
        <ele>449.6</ele>
        <time>2021-08-01T09:08:18Z</time>
      </trkpt>
      <trkpt lat="48.60457" lon="7.10832">
        <ele>449.9</ele>
        <time>2021-08-01T09:08:19Z</time>
      </trkpt>
      <trkpt lat="48.60456" lon="7.10828">
        <ele>450.1</ele>
        <time>2021-08-01T09:08:20Z</time>
      </trkpt>
      <trkpt lat="48.60452" lon="7.10823">
        <ele>450.5</ele>
        <time>2021-08-01T09:08:22Z</time>
      </trkpt>
      <trkpt lat="48.60449" lon="7.1082">
        <ele>450.7</ele>
        <time>2021-08-01T09:08:23Z</time>
      </trkpt>
      <trkpt lat="48.60448" lon="7.10819">
        <ele>450.8</ele>
        <time>2021-08-01T09:08:24Z</time>
      </trkpt>
      <trkpt lat="48.60445" lon="7.10817">
        <ele>451</ele>
        <time>2021-08-01T09:08:26Z</time>
      </trkpt>
      <trkpt lat="48.60442" lon="7.10817">
        <ele>451.2</ele>
        <time>2021-08-01T09:08:27Z</time>
      </trkpt>
      <trkpt lat="48.60441" lon="7.10816">
        <ele>451.3</ele>
        <time>2021-08-01T09:08:29Z</time>
      </trkpt>
      <trkpt lat="48.60439" lon="7.10815">
        <ele>451.4</ele>
        <time>2021-08-01T09:08:30Z</time>
      </trkpt>
      <trkpt lat="48.60438" lon="7.10814">
        <ele>451.5</ele>
        <time>2021-08-01T09:08:32Z</time>
      </trkpt>
      <trkpt lat="48.60437" lon="7.10813">
        <ele>451.5</ele>
        <time>2021-08-01T09:08:33Z</time>
      </trkpt>
      <trkpt lat="48.60436" lon="7.10812">
        <ele>451.6</ele>
        <time>2021-08-01T09:08:34Z</time>
      </trkpt>
      <trkpt lat="48.60224" lon="7.10767">
        <ele>470.8</ele>
        <time>2021-08-01T09:11:25Z</time>
      </trkpt>
      <trkpt lat="48.60222" lon="7.1077">
        <ele>471</ele>
        <time>2021-08-01T09:11:26Z</time>
      </trkpt>
      <trkpt lat="48.60219" lon="7.10773">
        <ele>471.3</ele>
        <time>2021-08-01T09:11:27Z</time>
      </trkpt>
      <trkpt lat="48.60217" lon="7.10779">
        <ele>471.7</ele>
        <time>2021-08-01T09:11:29Z</time>
      </trkpt>
      <trkpt lat="48.60215" lon="7.10782">
        <ele>471.9</ele>
        <time>2021-08-01T09:11:30Z</time>
      </trkpt>
      <trkpt lat="48.60214" lon="7.10783">
        <ele>472</ele>
        <time>2021-08-01T09:11:31Z</time>
      </trkpt>
      <trkpt lat="48.60211" lon="7.10786">
        <ele>472.3</ele>
        <time>2021-08-01T09:11:33Z</time>
      </trkpt>
      <trkpt lat="48.6021" lon="7.10787">
        <ele>472.3</ele>
        <time>2021-08-01T09:11:34Z</time>
      </trkpt>
      <trkpt lat="48.6021" lon="7.10787">
        <ele>472.4</ele>
        <time>2021-08-01T09:11:35Z</time>
      </trkpt>
      <trkpt lat="48.60209" lon="7.10786">
        <ele>472.5</ele>
        <time>2021-08-01T09:11:37Z</time>
      </trkpt>
      <trkpt lat="48.60209" lon="7.10785">
        <ele>472.5</ele>
        <time>2021-08-01T09:11:38Z</time>
      </trkpt>
      <trkpt lat="48.60207" lon="7.10784">
        <ele>472.7</ele>
        <time>2021-08-01T09:11:40Z</time>
      </trkpt>
      <trkpt lat="48.60202" lon="7.10782">
        <ele>473</ele>
        <time>2021-08-01T09:11:42Z</time>
      </trkpt>
      <trkpt lat="48.60201" lon="7.10779">
        <ele>473.2</ele>
        <time>2021-08-01T09:11:43Z</time>
      </trkpt>
      <trkpt lat="48.602" lon="7.10778">
        <ele>473.3</ele>
        <time>2021-08-01T09:11:45Z</time>
      </trkpt>
      <trkpt lat="48.602" lon="7.10777">
        <ele>473.3</ele>
        <time>2021-08-01T09:11:46Z</time>
      </trkpt>
      <trkpt lat="48.60199" lon="7.10775">
        <ele>473.4</ele>
        <time>2021-08-01T09:11:47Z</time>
      </trkpt>
      <trkpt lat="48.60199" lon="7.10774">
        <ele>473.5</ele>
        <time>2021-08-01T09:11:48Z</time>
      </trkpt>
      <trkpt lat="48.60193" lon="7.1077">
        <ele>473.9</ele>
        <time>2021-08-01T09:11:50Z</time>
      </trkpt>
      <trkpt lat="48.60188" lon="7.10768">
        <ele>474.2</ele>
        <time>2021-08-01T09:12:01Z</time>
      </trkpt>
      <trkpt lat="48.60183" lon="7.10766">
        <ele>474.5</ele>
        <time>2021-08-01T09:12:02Z</time>
      </trkpt>
      <trkpt lat="48.60179" lon="7.10763">
        <ele>474.8</ele>
        <time>2021-08-01T09:12:03Z</time>
      </trkpt>
      <trkpt lat="48.60176" lon="7.10764">
        <ele>474.9</ele>
        <time>2021-08-01T09:12:04Z</time>
      </trkpt>
      <trkpt lat="48.60175" lon="7.10763">
        <ele>475</ele>
        <time>2021-08-01T09:12:06Z</time>
      </trkpt>
      <trkpt lat="48.60175" lon="7.10763">
        <ele>475</ele>
        <time>2021-08-01T09:12:07Z</time>
      </trkpt>
      <trkpt lat="48.60174" lon="7.10763">
        <ele>475</ele>
        <time>2021-08-01T09:12:08Z</time>
      </trkpt>
      <trkpt lat="48.60174" lon="7.10763">
        <ele>475.1</ele>
        <time>2021-08-01T09:12:09Z</time>
      </trkpt>
      <trkpt lat="48.60174" lon="7.10763">
        <ele>475.1</ele>
        <time>2021-08-01T09:12:10Z</time>
      </trkpt>
      <trkpt lat="48.60174" lon="7.10763">
        <ele>475.1</ele>
        <time>2021-08-01T09:12:12Z</time>
      </trkpt>
      <trkpt lat="48.60172" lon="7.10764">
        <ele>475.2</ele>
        <time>2021-08-01T09:12:13Z</time>
      </trkpt>
      <trkpt lat="48.6017" lon="7.10766">
        <ele>475.4</ele>
        <time>2021-08-01T09:12:14Z</time>
      </trkpt>
      <trkpt lat="48.60163" lon="7.10775">
        <ele>475.7</ele>
        <time>2021-08-01T09:12:18Z</time>
      </trkpt>
      <trkpt lat="48.60161" lon="7.10779">
        <ele>475.8</ele>
        <time>2021-08-01T09:12:19Z</time>
      </trkpt>
      <trkpt lat="48.6016" lon="7.10784">
        <ele>475.8</ele>
        <time>2021-08-01T09:12:20Z</time>
      </trkpt>
      <trkpt lat="48.60158" lon="7.10788">
        <ele>475.9</ele>
        <time>2021-08-01T09:12:22Z</time>
      </trkpt>
      <trkpt lat="48.60155" lon="7.10792">
        <ele>475.9</ele>
        <time>2021-08-01T09:12:23Z</time>
      </trkpt>
      <trkpt lat="48.60151" lon="7.10797">
        <ele>476</ele>
        <time>2021-08-01T09:12:25Z</time>
      </trkpt>
      <trkpt lat="48.60149" lon="7.10799">
        <ele>476.1</ele>
        <time>2021-08-01T09:12:26Z</time>
      </trkpt>
      <trkpt lat="48.60148" lon="7.10801">
        <ele>476.1</ele>
        <time>2021-08-01T09:12:27Z</time>
      </trkpt>
      <trkpt lat="48.60146" lon="7.10807">
        <ele>476.1</ele>
        <time>2021-08-01T09:12:29Z</time>
      </trkpt>
      <trkpt lat="48.60146" lon="7.10808">
        <ele>476.1</ele>
        <time>2021-08-01T09:12:30Z</time>
      </trkpt>
      <trkpt lat="48.60146" lon="7.1081">
        <ele>476.1</ele>
        <time>2021-08-01T09:12:31Z</time>
      </trkpt>
      <trkpt lat="48.60145" lon="7.10816">
        <ele>476.2</ele>
        <time>2021-08-01T09:12:33Z</time>
      </trkpt>
      <trkpt lat="48.60144" lon="7.10819">
        <ele>476.2</ele>
        <time>2021-08-01T09:12:34Z</time>
      </trkpt>
      <trkpt lat="48.60143" lon="7.1082">
        <ele>476.2</ele>
        <time>2021-08-01T09:12:35Z</time>
      </trkpt>
      <trkpt lat="48.60142" lon="7.10823">
        <ele>476.2</ele>
        <time>2021-08-01T09:12:37Z</time>
      </trkpt>
      <trkpt lat="48.6014" lon="7.10826">
        <ele>476.2</ele>
        <time>2021-08-01T09:12:38Z</time>
      </trkpt>
      <trkpt lat="48.60138" lon="7.1083">
        <ele>476.2</ele>
        <time>2021-08-01T09:12:40Z</time>
      </trkpt>
      <trkpt lat="48.60137" lon="7.10831">
        <ele>476.2</ele>
        <time>2021-08-01T09:12:41Z</time>
      </trkpt>
      <trkpt lat="48.60136" lon="7.10833">
        <ele>476.2</ele>
        <time>2021-08-01T09:12:43Z</time>
      </trkpt>
      <trkpt lat="48.60133" lon="7.10836">
        <ele>476.2</ele>
        <time>2021-08-01T09:12:44Z</time>
      </trkpt>
      <trkpt lat="48.6013" lon="7.10838">
        <ele>476.2</ele>
        <time>2021-08-01T09:12:46Z</time>
      </trkpt>
      <trkpt lat="48.60126" lon="7.10843">
        <ele>476.2</ele>
        <time>2021-08-01T09:12:47Z</time>
      </trkpt>
      <trkpt lat="48.60122" lon="7.10848">
        <ele>476.1</ele>
        <time>2021-08-01T09:12:49Z</time>
      </trkpt>
      <trkpt lat="48.60121" lon="7.10853">
        <ele>476.1</ele>
        <time>2021-08-01T09:12:50Z</time>
      </trkpt>
      <trkpt lat="48.60118" lon="7.10861">
        <ele>475.9</ele>
        <time>2021-08-01T09:12:51Z</time>
      </trkpt>
      <trkpt lat="48.60116" lon="7.10868">
        <ele>476.1</ele>
        <time>2021-08-01T09:12:52Z</time>
      </trkpt>
      <trkpt lat="48.60114" lon="7.10875">
        <ele>476.2</ele>
        <time>2021-08-01T09:12:53Z</time>
      </trkpt>
      <trkpt lat="48.60113" lon="7.10881">
        <ele>476.3</ele>
        <time>2021-08-01T09:12:55Z</time>
      </trkpt>
      <trkpt lat="48.60113" lon="7.10887">
        <ele>476.4</ele>
        <time>2021-08-01T09:12:56Z</time>
      </trkpt>
      <trkpt lat="48.60112" lon="7.10895">
        <ele>476.6</ele>
        <time>2021-08-01T09:12:57Z</time>
      </trkpt>
      <trkpt lat="48.60111" lon="7.10902">
        <ele>476.9</ele>
        <time>2021-08-01T09:12:59Z</time>
      </trkpt>
      <trkpt lat="48.60111" lon="7.10904">
        <ele>477</ele>
        <time>2021-08-01T09:13:00Z</time>
      </trkpt>
      <trkpt lat="48.6011" lon="7.10906">
        <ele>477.1</ele>
        <time>2021-08-01T09:13:01Z</time>
      </trkpt>
      <trkpt lat="48.6011" lon="7.10909">
        <ele>477.2</ele>
        <time>2021-08-01T09:13:02Z</time>
      </trkpt>
      <trkpt lat="48.60108" lon="7.10914">
        <ele>477.5</ele>
        <time>2021-08-01T09:13:04Z</time>
      </trkpt>
      <trkpt lat="48.60107" lon="7.10919">
        <ele>477.7</ele>
        <time>2021-08-01T09:13:05Z</time>
      </trkpt>
      <trkpt lat="48.60107" lon="7.10924">
        <ele>478</ele>
        <time>2021-08-01T09:13:06Z</time>
      </trkpt>
      <trkpt lat="48.60107" lon="7.10928">
        <ele>478.3</ele>
        <time>2021-08-01T09:13:08Z</time>
      </trkpt>
      <trkpt lat="48.60107" lon="7.1093">
        <ele>478.4</ele>
        <time>2021-08-01T09:13:09Z</time>
      </trkpt>
      <trkpt lat="48.60107" lon="7.10932">
        <ele>478.5</ele>
        <time>2021-08-01T09:13:10Z</time>
      </trkpt>
      <trkpt lat="48.60107" lon="7.10935">
        <ele>478.7</ele>
        <time>2021-08-01T09:13:11Z</time>
      </trkpt>
      <trkpt lat="48.60106" lon="7.10941">
        <ele>479.2</ele>
        <time>2021-08-01T09:13:13Z</time>
      </trkpt>
      <trkpt lat="48.60105" lon="7.10943">
        <ele>479.3</ele>
        <time>2021-08-01T09:13:14Z</time>
      </trkpt>
      <trkpt lat="48.60105" lon="7.10945">
        <ele>479.5</ele>
        <time>2021-08-01T09:13:15Z</time>
      </trkpt>
      <trkpt lat="48.60103" lon="7.1095">
        <ele>479.9</ele>
        <time>2021-08-01T09:13:17Z</time>
      </trkpt>
      <trkpt lat="48.60103" lon="7.10952">
        <ele>480.1</ele>
        <time>2021-08-01T09:13:18Z</time>
      </trkpt>
      <trkpt lat="48.60102" lon="7.10955">
        <ele>480.3</ele>
        <time>2021-08-01T09:13:19Z</time>
      </trkpt>
      <trkpt lat="48.601" lon="7.10957">
        <ele>480.7</ele>
        <time>2021-08-01T09:13:21Z</time>
      </trkpt>
      <trkpt lat="48.60098" lon="7.10961">
        <ele>481.1</ele>
        <time>2021-08-01T09:13:22Z</time>
      </trkpt>
      <trkpt lat="48.60098" lon="7.10962">
        <ele>481.3</ele>
        <time>2021-08-01T09:13:23Z</time>
      </trkpt>
      <trkpt lat="48.60097" lon="7.10963">
        <ele>481.4</ele>
        <time>2021-08-01T09:13:25Z</time>
      </trkpt>
      <trkpt lat="48.60097" lon="7.10964">
        <ele>481.5</ele>
        <time>2021-08-01T09:13:26Z</time>
      </trkpt>
      <trkpt lat="48.60097" lon="7.10964">
        <ele>481.5</ele>
        <time>2021-08-01T09:13:28Z</time>
      </trkpt>
      <trkpt lat="48.60096" lon="7.10964">
        <ele>481.6</ele>
        <time>2021-08-01T09:13:30Z</time>
      </trkpt>
      <trkpt lat="48.60096" lon="7.10966">
        <ele>481.8</ele>
        <time>2021-08-01T09:13:31Z</time>
      </trkpt>
      <trkpt lat="48.601" lon="7.10988">
        <ele>484.6</ele>
        <time>2021-08-01T09:13:33Z</time>
      </trkpt>
      <trkpt lat="48.60104" lon="7.1101">
        <ele>487.5</ele>
        <time>2021-08-01T09:14:21Z</time>
      </trkpt>
      <trkpt lat="48.60108" lon="7.11031">
        <ele>489.9</ele>
        <time>2021-08-01T09:14:22Z</time>
      </trkpt>
      <trkpt lat="48.60112" lon="7.11052">
        <ele>491.5</ele>
        <time>2021-08-01T09:14:23Z</time>
      </trkpt>
      <trkpt lat="48.60113" lon="7.11057">
        <ele>491.8</ele>
        <time>2021-08-01T09:14:24Z</time>
      </trkpt>
      <trkpt lat="48.60113" lon="7.11059">
        <ele>491.9</ele>
        <time>2021-08-01T09:14:25Z</time>
      </trkpt>
      <trkpt lat="48.60115" lon="7.11062">
        <ele>492</ele>
        <time>2021-08-01T09:14:26Z</time>
      </trkpt>
      <trkpt lat="48.60117" lon="7.11065">
        <ele>492.2</ele>
        <time>2021-08-01T09:14:28Z</time>
      </trkpt>
      <trkpt lat="48.60119" lon="7.1107">
        <ele>492.4</ele>
        <time>2021-08-01T09:14:29Z</time>
      </trkpt>
      <trkpt lat="48.60119" lon="7.11072">
        <ele>492.5</ele>
        <time>2021-08-01T09:14:30Z</time>
      </trkpt>
      <trkpt lat="48.6012" lon="7.11077">
        <ele>492.7</ele>
        <time>2021-08-01T09:14:31Z</time>
      </trkpt>
      <trkpt lat="48.60121" lon="7.11081">
        <ele>492.8</ele>
        <time>2021-08-01T09:14:32Z</time>
      </trkpt>
      <trkpt lat="48.60121" lon="7.11083">
        <ele>492.9</ele>
        <time>2021-08-01T09:14:33Z</time>
      </trkpt>
      <trkpt lat="48.60122" lon="7.11085">
        <ele>493</ele>
        <time>2021-08-01T09:14:34Z</time>
      </trkpt>
      <trkpt lat="48.60122" lon="7.11086">
        <ele>493</ele>
        <time>2021-08-01T09:14:35Z</time>
      </trkpt>
      <trkpt lat="48.60122" lon="7.1109">
        <ele>493.1</ele>
        <time>2021-08-01T09:14:37Z</time>
      </trkpt>
      <trkpt lat="48.60122" lon="7.1109">
        <ele>493.2</ele>
        <time>2021-08-01T09:14:38Z</time>
      </trkpt>
      <trkpt lat="48.60122" lon="7.11091">
        <ele>493.2</ele>
        <time>2021-08-01T09:14:40Z</time>
      </trkpt>
      <trkpt lat="48.60122" lon="7.11093">
        <ele>493.3</ele>
        <time>2021-08-01T09:14:41Z</time>
      </trkpt>
      <trkpt lat="48.60122" lon="7.11094">
        <ele>493.3</ele>
        <time>2021-08-01T09:14:42Z</time>
      </trkpt>
      <trkpt lat="48.60122" lon="7.11097">
        <ele>493.4</ele>
        <time>2021-08-01T09:14:43Z</time>
      </trkpt>
      <trkpt lat="48.60116" lon="7.11214">
        <ele>502.4</ele>
        <time>2021-08-01T09:15:49Z</time>
      </trkpt>
      <trkpt lat="48.60117" lon="7.11219">
        <ele>502.6</ele>
        <time>2021-08-01T09:15:50Z</time>
      </trkpt>
      <trkpt lat="48.60118" lon="7.11225">
        <ele>502.9</ele>
        <time>2021-08-01T09:15:51Z</time>
      </trkpt>
      <trkpt lat="48.60118" lon="7.11232">
        <ele>503.1</ele>
        <time>2021-08-01T09:15:52Z</time>
      </trkpt>
      <trkpt lat="48.60118" lon="7.11238">
        <ele>503.3</ele>
        <time>2021-08-01T09:15:53Z</time>
      </trkpt>
      <trkpt lat="48.60117" lon="7.11244">
        <ele>503.4</ele>
        <time>2021-08-01T09:15:55Z</time>
      </trkpt>
      <trkpt lat="48.60117" lon="7.11248">
        <ele>503.5</ele>
        <time>2021-08-01T09:15:56Z</time>
      </trkpt>
      <trkpt lat="48.60117" lon="7.11251">
        <ele>503.6</ele>
        <time>2021-08-01T09:15:57Z</time>
      </trkpt>
      <trkpt lat="48.60118" lon="7.11256">
        <ele>503.7</ele>
        <time>2021-08-01T09:15:59Z</time>
      </trkpt>
      <trkpt lat="48.6012" lon="7.1126">
        <ele>503.8</ele>
        <time>2021-08-01T09:16:00Z</time>
      </trkpt>
      <trkpt lat="48.60121" lon="7.11266">
        <ele>503.9</ele>
        <time>2021-08-01T09:16:02Z</time>
      </trkpt>
      <trkpt lat="48.60122" lon="7.11272">
        <ele>504</ele>
        <time>2021-08-01T09:16:03Z</time>
      </trkpt>
      <trkpt lat="48.60123" lon="7.11278">
        <ele>504.1</ele>
        <time>2021-08-01T09:16:05Z</time>
      </trkpt>
      <trkpt lat="48.60124" lon="7.11283">
        <ele>504.2</ele>
        <time>2021-08-01T09:16:06Z</time>
      </trkpt>
      <trkpt lat="48.60126" lon="7.11291">
        <ele>504.3</ele>
        <time>2021-08-01T09:16:08Z</time>
      </trkpt>
      <trkpt lat="48.60129" lon="7.11298">
        <ele>504.4</ele>
        <time>2021-08-01T09:16:09Z</time>
      </trkpt>
      <trkpt lat="48.60132" lon="7.11306">
        <ele>504.6</ele>
        <time>2021-08-01T09:16:11Z</time>
      </trkpt>
      <trkpt lat="48.60133" lon="7.11313">
        <ele>504.7</ele>
        <time>2021-08-01T09:16:12Z</time>
      </trkpt>
      <trkpt lat="48.60133" lon="7.11323">
        <ele>504.9</ele>
        <time>2021-08-01T09:16:13Z</time>
      </trkpt>
      <trkpt lat="48.60133" lon="7.11329">
        <ele>505.1</ele>
        <time>2021-08-01T09:16:15Z</time>
      </trkpt>
      <trkpt lat="48.60133" lon="7.11334">
        <ele>505.2</ele>
        <time>2021-08-01T09:16:16Z</time>
      </trkpt>
      <trkpt lat="48.60133" lon="7.1134">
        <ele>505.3</ele>
        <time>2021-08-01T09:16:17Z</time>
      </trkpt>
      <trkpt lat="48.60133" lon="7.11345">
        <ele>505.5</ele>
        <time>2021-08-01T09:16:18Z</time>
      </trkpt>
      <trkpt lat="48.60133" lon="7.11351">
        <ele>505.7</ele>
        <time>2021-08-01T09:16:19Z</time>
      </trkpt>
      <trkpt lat="48.60133" lon="7.11355">
        <ele>505.8</ele>
        <time>2021-08-01T09:16:20Z</time>
      </trkpt>
      <trkpt lat="48.60134" lon="7.11361">
        <ele>506.1</ele>
        <time>2021-08-01T09:16:22Z</time>
      </trkpt>
      <trkpt lat="48.60133" lon="7.11365">
        <ele>506.2</ele>
        <time>2021-08-01T09:16:23Z</time>
      </trkpt>
      <trkpt lat="48.60132" lon="7.1137">
        <ele>506.4</ele>
        <time>2021-08-01T09:16:25Z</time>
      </trkpt>
      <trkpt lat="48.60131" lon="7.11374">
        <ele>506.6</ele>
        <time>2021-08-01T09:16:26Z</time>
      </trkpt>
      <trkpt lat="48.60129" lon="7.11379">
        <ele>506.9</ele>
        <time>2021-08-01T09:16:27Z</time>
      </trkpt>
      <trkpt lat="48.60129" lon="7.1138">
        <ele>506.9</ele>
        <time>2021-08-01T09:16:28Z</time>
      </trkpt>
      <trkpt lat="48.60128" lon="7.11383">
        <ele>507.1</ele>
        <time>2021-08-01T09:16:29Z</time>
      </trkpt>
      <trkpt lat="48.60127" lon="7.11384">
        <ele>507.2</ele>
        <time>2021-08-01T09:16:31Z</time>
      </trkpt>
      <trkpt lat="48.60123" lon="7.11386">
        <ele>507.4</ele>
        <time>2021-08-01T09:16:32Z</time>
      </trkpt>
      <trkpt lat="48.60121" lon="7.11388">
        <ele>507.6</ele>
        <time>2021-08-01T09:16:33Z</time>
      </trkpt>
      <trkpt lat="48.6012" lon="7.11388">
        <ele>507.7</ele>
        <time>2021-08-01T09:16:34Z</time>
      </trkpt>
      <trkpt lat="48.60118" lon="7.11391">
        <ele>507.8</ele>
        <time>2021-08-01T09:16:35Z</time>
      </trkpt>
      <trkpt lat="48.60116" lon="7.11393">
        <ele>508</ele>
        <time>2021-08-01T09:16:37Z</time>
      </trkpt>
      <trkpt lat="48.60114" lon="7.11396">
        <ele>508.1</ele>
        <time>2021-08-01T09:16:38Z</time>
      </trkpt>
      <trkpt lat="48.60111" lon="7.11397">
        <ele>508.3</ele>
        <time>2021-08-01T09:16:39Z</time>
      </trkpt>
      <trkpt lat="48.6011" lon="7.11397">
        <ele>508.4</ele>
        <time>2021-08-01T09:16:40Z</time>
      </trkpt>
      <trkpt lat="48.60107" lon="7.11398">
        <ele>508.5</ele>
        <time>2021-08-01T09:16:42Z</time>
      </trkpt>
      <trkpt lat="48.60106" lon="7.11399">
        <ele>508.6</ele>
        <time>2021-08-01T09:16:43Z</time>
      </trkpt>
      <trkpt lat="48.60104" lon="7.114">
        <ele>508.7</ele>
        <time>2021-08-01T09:16:44Z</time>
      </trkpt>
      <trkpt lat="48.60103" lon="7.11401">
        <ele>508.8</ele>
        <time>2021-08-01T09:16:46Z</time>
      </trkpt>
      <trkpt lat="48.60101" lon="7.11403">
        <ele>508.8</ele>
        <time>2021-08-01T09:16:47Z</time>
      </trkpt>
      <trkpt lat="48.60099" lon="7.11405">
        <ele>508.9</ele>
        <time>2021-08-01T09:16:48Z</time>
      </trkpt>
      <trkpt lat="48.60098" lon="7.11406">
        <ele>509</ele>
        <time>2021-08-01T09:16:49Z</time>
      </trkpt>
      <trkpt lat="48.60095" lon="7.11408">
        <ele>509.1</ele>
        <time>2021-08-01T09:16:51Z</time>
      </trkpt>
      <trkpt lat="48.60089" lon="7.11409">
        <ele>509.2</ele>
        <time>2021-08-01T09:16:54Z</time>
      </trkpt>
      <trkpt lat="48.60083" lon="7.11411">
        <ele>509.3</ele>
        <time>2021-08-01T09:16:56Z</time>
      </trkpt>
      <trkpt lat="48.60072" lon="7.11407">
        <ele>509.4</ele>
        <time>2021-08-01T09:16:58Z</time>
      </trkpt>
      <trkpt lat="48.60064" lon="7.11405">
        <ele>509.4</ele>
        <time>2021-08-01T09:16:59Z</time>
      </trkpt>
      <trkpt lat="48.60054" lon="7.11402">
        <ele>509.4</ele>
        <time>2021-08-01T09:17:01Z</time>
      </trkpt>
      <trkpt lat="48.60048" lon="7.11401">
        <ele>509.4</ele>
        <time>2021-08-01T09:17:02Z</time>
      </trkpt>
      <trkpt lat="48.60044" lon="7.11401">
        <ele>509.4</ele>
        <time>2021-08-01T09:17:04Z</time>
      </trkpt>
      <trkpt lat="48.6004" lon="7.11399">
        <ele>509.4</ele>
        <time>2021-08-01T09:17:05Z</time>
      </trkpt>
      <trkpt lat="48.60039" lon="7.11398">
        <ele>509.4</ele>
        <time>2021-08-01T09:17:06Z</time>
      </trkpt>
      <trkpt lat="48.60036" lon="7.11395">
        <ele>509.4</ele>
        <time>2021-08-01T09:17:08Z</time>
      </trkpt>
      <trkpt lat="48.60033" lon="7.11394">
        <ele>509.4</ele>
        <time>2021-08-01T09:17:09Z</time>
      </trkpt>
      <trkpt lat="48.60028" lon="7.11392">
        <ele>509.4</ele>
        <time>2021-08-01T09:17:10Z</time>
      </trkpt>
      <trkpt lat="48.60025" lon="7.1139">
        <ele>509.4</ele>
        <time>2021-08-01T09:17:12Z</time>
      </trkpt>
      <trkpt lat="48.60022" lon="7.11388">
        <ele>509.4</ele>
        <time>2021-08-01T09:17:13Z</time>
      </trkpt>
      <trkpt lat="48.6002" lon="7.11385">
        <ele>509.5</ele>
        <time>2021-08-01T09:17:14Z</time>
      </trkpt>
      <trkpt lat="48.60014" lon="7.11379">
        <ele>509.6</ele>
        <time>2021-08-01T09:17:16Z</time>
      </trkpt>
      <trkpt lat="48.6001" lon="7.11375">
        <ele>509.7</ele>
        <time>2021-08-01T09:17:17Z</time>
      </trkpt>
      <trkpt lat="48.60007" lon="7.11372">
        <ele>509.8</ele>
        <time>2021-08-01T09:17:18Z</time>
      </trkpt>
      <trkpt lat="48.60005" lon="7.11371">
        <ele>509.9</ele>
        <time>2021-08-01T09:17:19Z</time>
      </trkpt>
      <trkpt lat="48.60003" lon="7.11369">
        <ele>510</ele>
        <time>2021-08-01T09:17:21Z</time>
      </trkpt>
      <trkpt lat="48.6" lon="7.11367">
        <ele>510.1</ele>
        <time>2021-08-01T09:17:22Z</time>
      </trkpt>
      <trkpt lat="48.59996" lon="7.11365">
        <ele>510.2</ele>
        <time>2021-08-01T09:17:23Z</time>
      </trkpt>
      <trkpt lat="48.59993" lon="7.11364">
        <ele>510.4</ele>
        <time>2021-08-01T09:17:24Z</time>
      </trkpt>
      <trkpt lat="48.5999" lon="7.11363">
        <ele>510.6</ele>
        <time>2021-08-01T09:17:25Z</time>
      </trkpt>
      <trkpt lat="48.59986" lon="7.11361">
        <ele>510.8</ele>
        <time>2021-08-01T09:17:26Z</time>
      </trkpt>
      <trkpt lat="48.59981" lon="7.11359">
        <ele>511.1</ele>
        <time>2021-08-01T09:17:27Z</time>
      </trkpt>
      <trkpt lat="48.59977" lon="7.11358">
        <ele>511.3</ele>
        <time>2021-08-01T09:17:29Z</time>
      </trkpt>
      <trkpt lat="48.59974" lon="7.11358">
        <ele>511.5</ele>
        <time>2021-08-01T09:17:30Z</time>
      </trkpt>
      <trkpt lat="48.59974" lon="7.11358">
        <ele>511.5</ele>
        <time>2021-08-01T09:17:31Z</time>
      </trkpt>
      <trkpt lat="48.59974" lon="7.11359">
        <ele>511.6</ele>
        <time>2021-08-01T09:17:34Z</time>
      </trkpt>
      <trkpt lat="48.59973" lon="7.11359">
        <ele>511.6</ele>
        <time>2021-08-01T09:17:35Z</time>
      </trkpt>
      <trkpt lat="48.59972" lon="7.11359">
        <ele>511.7</ele>
        <time>2021-08-01T09:17:36Z</time>
      </trkpt>
      <trkpt lat="48.59972" lon="7.11358">
        <ele>511.7</ele>
        <time>2021-08-01T09:17:38Z</time>
      </trkpt>
      <trkpt lat="48.59971" lon="7.11358">
        <ele>511.8</ele>
        <time>2021-08-01T09:17:39Z</time>
      </trkpt>
      <trkpt lat="48.59971" lon="7.11357">
        <ele>511.8</ele>
        <time>2021-08-01T09:17:40Z</time>
      </trkpt>
      <trkpt lat="48.59796" lon="7.11307">
        <ele>530.9</ele>
        <time>2021-08-01T09:20:18Z</time>
      </trkpt>
      <trkpt lat="48.59793" lon="7.11308">
        <ele>531.1</ele>
        <time>2021-08-01T09:20:19Z</time>
      </trkpt>
      <trkpt lat="48.59789" lon="7.11309">
        <ele>531.2</ele>
        <time>2021-08-01T09:20:21Z</time>
      </trkpt>
      <trkpt lat="48.59787" lon="7.1131">
        <ele>531.3</ele>
        <time>2021-08-01T09:20:22Z</time>
      </trkpt>
      <trkpt lat="48.59785" lon="7.11312">
        <ele>531.4</ele>
        <time>2021-08-01T09:20:24Z</time>
      </trkpt>
      <trkpt lat="48.59783" lon="7.11313">
        <ele>531.4</ele>
        <time>2021-08-01T09:20:25Z</time>
      </trkpt>
      <trkpt lat="48.59782" lon="7.11313">
        <ele>531.5</ele>
        <time>2021-08-01T09:20:26Z</time>
      </trkpt>
      <trkpt lat="48.5978" lon="7.11312">
        <ele>531.5</ele>
        <time>2021-08-01T09:20:27Z</time>
      </trkpt>
      <trkpt lat="48.59778" lon="7.11312">
        <ele>531.5</ele>
        <time>2021-08-01T09:20:29Z</time>
      </trkpt>
      <trkpt lat="48.59776" lon="7.11311">
        <ele>531.5</ele>
        <time>2021-08-01T09:20:30Z</time>
      </trkpt>
      <trkpt lat="48.59774" lon="7.11311">
        <ele>531.5</ele>
        <time>2021-08-01T09:20:31Z</time>
      </trkpt>
      <trkpt lat="48.59771" lon="7.11312">
        <ele>531.5</ele>
        <time>2021-08-01T09:20:34Z</time>
      </trkpt>
      <trkpt lat="48.59768" lon="7.11313">
        <ele>531.5</ele>
        <time>2021-08-01T09:20:35Z</time>
      </trkpt>
      <trkpt lat="48.59764" lon="7.11311">
        <ele>531.4</ele>
        <time>2021-08-01T09:20:36Z</time>
      </trkpt>
      <trkpt lat="48.59758" lon="7.11309">
        <ele>531.3</ele>
        <time>2021-08-01T09:20:37Z</time>
      </trkpt>
      <trkpt lat="48.59752" lon="7.11306">
        <ele>531.1</ele>
        <time>2021-08-01T09:20:38Z</time>
      </trkpt>
      <trkpt lat="48.59743" lon="7.11299">
        <ele>530.7</ele>
        <time>2021-08-01T09:20:40Z</time>
      </trkpt>
      <trkpt lat="48.59738" lon="7.11295">
        <ele>530.4</ele>
        <time>2021-08-01T09:20:41Z</time>
      </trkpt>
      <trkpt lat="48.59733" lon="7.11293">
        <ele>530.1</ele>
        <time>2021-08-01T09:20:42Z</time>
      </trkpt>
      <trkpt lat="48.59726" lon="7.11287">
        <ele>529.6</ele>
        <time>2021-08-01T09:20:44Z</time>
      </trkpt>
      <trkpt lat="48.5972" lon="7.11284">
        <ele>529.1</ele>
        <time>2021-08-01T09:20:45Z</time>
      </trkpt>
      <trkpt lat="48.59715" lon="7.11282">
        <ele>528.7</ele>
        <time>2021-08-01T09:20:46Z</time>
      </trkpt>
      <trkpt lat="48.5971" lon="7.1128">
        <ele>528.4</ele>
        <time>2021-08-01T09:20:47Z</time>
      </trkpt>
      <trkpt lat="48.59694" lon="7.11272">
        <ele>527.1</ele>
        <time>2021-08-01T09:20:49Z</time>
      </trkpt>
      <trkpt lat="48.59687" lon="7.11267">
        <ele>526.6</ele>
        <time>2021-08-01T09:20:50Z</time>
      </trkpt>
      <trkpt lat="48.59676" lon="7.11259">
        <ele>525.8</ele>
        <time>2021-08-01T09:20:52Z</time>
      </trkpt>
      <trkpt lat="48.59671" lon="7.11254">
        <ele>525.3</ele>
        <time>2021-08-01T09:20:53Z</time>
      </trkpt>
      <trkpt lat="48.59665" lon="7.11249">
        <ele>524.9</ele>
        <time>2021-08-01T09:20:54Z</time>
      </trkpt>
      <trkpt lat="48.59655" lon="7.11237">
        <ele>524.2</ele>
        <time>2021-08-01T09:20:56Z</time>
      </trkpt>
      <trkpt lat="48.59647" lon="7.11226">
        <ele>523.8</ele>
        <time>2021-08-01T09:20:58Z</time>
      </trkpt>
      <trkpt lat="48.59645" lon="7.11219">
        <ele>523.6</ele>
        <time>2021-08-01T09:20:59Z</time>
      </trkpt>
      <trkpt lat="48.59643" lon="7.11212">
        <ele>523.5</ele>
        <time>2021-08-01T09:21:00Z</time>
      </trkpt>
      <trkpt lat="48.59637" lon="7.11199">
        <ele>523.2</ele>
        <time>2021-08-01T09:21:02Z</time>
      </trkpt>
      <trkpt lat="48.59633" lon="7.11193">
        <ele>523</ele>
        <time>2021-08-01T09:21:03Z</time>
      </trkpt>
      <trkpt lat="48.59625" lon="7.11183">
        <ele>522.8</ele>
        <time>2021-08-01T09:21:05Z</time>
      </trkpt>
      <trkpt lat="48.59617" lon="7.1117">
        <ele>522.5</ele>
        <time>2021-08-01T09:21:07Z</time>
      </trkpt>
      <trkpt lat="48.59614" lon="7.11164">
        <ele>522.4</ele>
        <time>2021-08-01T09:21:08Z</time>
      </trkpt>
      <trkpt lat="48.596" lon="7.11154">
        <ele>522.2</ele>
        <time>2021-08-01T09:21:10Z</time>
      </trkpt>
      <trkpt lat="48.59592" lon="7.11145">
        <ele>522</ele>
        <time>2021-08-01T09:21:12Z</time>
      </trkpt>
      <trkpt lat="48.59589" lon="7.1114">
        <ele>522</ele>
        <time>2021-08-01T09:21:13Z</time>
      </trkpt>
      <trkpt lat="48.59585" lon="7.11136">
        <ele>521.9</ele>
        <time>2021-08-01T09:21:15Z</time>
      </trkpt>
      <trkpt lat="48.59582" lon="7.11134">
        <ele>521.8</ele>
        <time>2021-08-01T09:21:16Z</time>
      </trkpt>
      <trkpt lat="48.59578" lon="7.11129">
        <ele>521.7</ele>
        <time>2021-08-01T09:21:18Z</time>
      </trkpt>
      <trkpt lat="48.59573" lon="7.11126">
        <ele>521.6</ele>
        <time>2021-08-01T09:21:19Z</time>
      </trkpt>
      <trkpt lat="48.59569" lon="7.11123">
        <ele>521.4</ele>
        <time>2021-08-01T09:21:20Z</time>
      </trkpt>
      <trkpt lat="48.59572" lon="7.11122">
        <ele>521.4</ele>
        <time>2021-08-01T09:21:21Z</time>
      </trkpt>
      <trkpt lat="48.59569" lon="7.11119">
        <ele>521.2</ele>
        <time>2021-08-01T09:21:22Z</time>
      </trkpt>
      <trkpt lat="48.59565" lon="7.11115">
        <ele>521</ele>
        <time>2021-08-01T09:21:23Z</time>
      </trkpt>
      <trkpt lat="48.59557" lon="7.11109">
        <ele>520.5</ele>
        <time>2021-08-01T09:21:25Z</time>
      </trkpt>
      <trkpt lat="48.59551" lon="7.11103">
        <ele>520.2</ele>
        <time>2021-08-01T09:21:26Z</time>
      </trkpt>
      <trkpt lat="48.59548" lon="7.11097">
        <ele>519.9</ele>
        <time>2021-08-01T09:21:28Z</time>
      </trkpt>
      <trkpt lat="48.59545" lon="7.11091">
        <ele>519.7</ele>
        <time>2021-08-01T09:21:29Z</time>
      </trkpt>
      <trkpt lat="48.59541" lon="7.11083">
        <ele>519.3</ele>
        <time>2021-08-01T09:21:31Z</time>
      </trkpt>
      <trkpt lat="48.59538" lon="7.11078">
        <ele>519.1</ele>
        <time>2021-08-01T09:21:32Z</time>
      </trkpt>
      <trkpt lat="48.59535" lon="7.11074">
        <ele>518.9</ele>
        <time>2021-08-01T09:21:33Z</time>
      </trkpt>
      <trkpt lat="48.59526" lon="7.11067">
        <ele>518.3</ele>
        <time>2021-08-01T09:21:35Z</time>
      </trkpt>
      <trkpt lat="48.59522" lon="7.11063">
        <ele>518.1</ele>
        <time>2021-08-01T09:21:36Z</time>
      </trkpt>
      <trkpt lat="48.59512" lon="7.1106">
        <ele>517.5</ele>
        <time>2021-08-01T09:21:38Z</time>
      </trkpt>
      <trkpt lat="48.59507" lon="7.11059">
        <ele>517.2</ele>
        <time>2021-08-01T09:21:39Z</time>
      </trkpt>
      <trkpt lat="48.59503" lon="7.1106">
        <ele>516.9</ele>
        <time>2021-08-01T09:21:40Z</time>
      </trkpt>
      <trkpt lat="48.59492" lon="7.11063">
        <ele>516.2</ele>
        <time>2021-08-01T09:21:42Z</time>
      </trkpt>
      <trkpt lat="48.59487" lon="7.11066">
        <ele>515.8</ele>
        <time>2021-08-01T09:21:43Z</time>
      </trkpt>
      <trkpt lat="48.59476" lon="7.1107">
        <ele>515.3</ele>
        <time>2021-08-01T09:21:45Z</time>
      </trkpt>
      <trkpt lat="48.5947" lon="7.11072">
        <ele>515.1</ele>
        <time>2021-08-01T09:21:46Z</time>
      </trkpt>
      <trkpt lat="48.59464" lon="7.11074">
        <ele>514.9</ele>
        <time>2021-08-01T09:21:47Z</time>
      </trkpt>
      <trkpt lat="48.5946" lon="7.11076">
        <ele>514.7</ele>
        <time>2021-08-01T09:21:48Z</time>
      </trkpt>
      <trkpt lat="48.59453" lon="7.1108">
        <ele>514.4</ele>
        <time>2021-08-01T09:21:50Z</time>
      </trkpt>
      <trkpt lat="48.5945" lon="7.11084">
        <ele>514.2</ele>
        <time>2021-08-01T09:21:51Z</time>
      </trkpt>
      <trkpt lat="48.59448" lon="7.11086">
        <ele>514</ele>
        <time>2021-08-01T09:21:52Z</time>
      </trkpt>
      <trkpt lat="48.59446" lon="7.11088">
        <ele>513.9</ele>
        <time>2021-08-01T09:21:54Z</time>
      </trkpt>
      <trkpt lat="48.59444" lon="7.11088">
        <ele>513.8</ele>
        <time>2021-08-01T09:21:55Z</time>
      </trkpt>
      <trkpt lat="48.59443" lon="7.11087">
        <ele>513.7</ele>
        <time>2021-08-01T09:21:57Z</time>
      </trkpt>
      <trkpt lat="48.59441" lon="7.11087">
        <ele>513.5</ele>
        <time>2021-08-01T09:21:58Z</time>
      </trkpt>
      <trkpt lat="48.5944" lon="7.11086">
        <ele>513.4</ele>
        <time>2021-08-01T09:21:59Z</time>
      </trkpt>
      <trkpt lat="48.59438" lon="7.11086">
        <ele>513.3</ele>
        <time>2021-08-01T09:22:01Z</time>
      </trkpt>
      <trkpt lat="48.59437" lon="7.11085">
        <ele>513.2</ele>
        <time>2021-08-01T09:22:02Z</time>
      </trkpt>
      <trkpt lat="48.59435" lon="7.11085">
        <ele>513.1</ele>
        <time>2021-08-01T09:22:04Z</time>
      </trkpt>
      <trkpt lat="48.59433" lon="7.11084">
        <ele>512.9</ele>
        <time>2021-08-01T09:22:05Z</time>
      </trkpt>
      <trkpt lat="48.59432" lon="7.11084">
        <ele>512.8</ele>
        <time>2021-08-01T09:22:51Z</time>
      </trkpt>
      <trkpt lat="48.5943" lon="7.11083">
        <ele>512.7</ele>
        <time>2021-08-01T09:22:52Z</time>
      </trkpt>
      <trkpt lat="48.59424" lon="7.11086">
        <ele>512.2</ele>
        <time>2021-08-01T09:22:54Z</time>
      </trkpt>
      <trkpt lat="48.59418" lon="7.11086">
        <ele>511.7</ele>
        <time>2021-08-01T09:22:55Z</time>
      </trkpt>
      <trkpt lat="48.59414" lon="7.11086">
        <ele>511.3</ele>
        <time>2021-08-01T09:22:56Z</time>
      </trkpt>
      <trkpt lat="48.5941" lon="7.11086">
        <ele>511</ele>
        <time>2021-08-01T09:22:58Z</time>
      </trkpt>
      <trkpt lat="48.59407" lon="7.11085">
        <ele>510.7</ele>
        <time>2021-08-01T09:22:59Z</time>
      </trkpt>
      <trkpt lat="48.59405" lon="7.11085">
        <ele>510.6</ele>
        <time>2021-08-01T09:23:00Z</time>
      </trkpt>
      <trkpt lat="48.59402" lon="7.11086">
        <ele>510.2</ele>
        <time>2021-08-01T09:23:01Z</time>
      </trkpt>
      <trkpt lat="48.594" lon="7.11087">
        <ele>510.1</ele>
        <time>2021-08-01T09:23:02Z</time>
      </trkpt>
      <trkpt lat="48.59397" lon="7.11088">
        <ele>509.7</ele>
        <time>2021-08-01T09:23:03Z</time>
      </trkpt>
      <trkpt lat="48.59396" lon="7.11088">
        <ele>509.6</ele>
        <time>2021-08-01T09:23:04Z</time>
      </trkpt>
      <trkpt lat="48.59391" lon="7.11088">
        <ele>509.1</ele>
        <time>2021-08-01T09:23:06Z</time>
      </trkpt>
      <trkpt lat="48.59386" lon="7.11087">
        <ele>508.5</ele>
        <time>2021-08-01T09:23:07Z</time>
      </trkpt>
      <trkpt lat="48.59381" lon="7.11085">
        <ele>508.1</ele>
        <time>2021-08-01T09:23:08Z</time>
      </trkpt>
      <trkpt lat="48.59376" lon="7.11084">
        <ele>507.5</ele>
        <time>2021-08-01T09:23:10Z</time>
      </trkpt>
      <trkpt lat="48.59371" lon="7.11083">
        <ele>506.9</ele>
        <time>2021-08-01T09:23:11Z</time>
      </trkpt>
      <trkpt lat="48.59362" lon="7.11082">
        <ele>506</ele>
        <time>2021-08-01T09:23:13Z</time>
      </trkpt>
      <trkpt lat="48.59359" lon="7.11084">
        <ele>505.7</ele>
        <time>2021-08-01T09:23:14Z</time>
      </trkpt>
      <trkpt lat="48.59347" lon="7.1108">
        <ele>504.4</ele>
        <time>2021-08-01T09:23:16Z</time>
      </trkpt>
      <trkpt lat="48.5934" lon="7.11081">
        <ele>503.6</ele>
        <time>2021-08-01T09:23:17Z</time>
      </trkpt>
      <trkpt lat="48.59333" lon="7.11083">
        <ele>502.9</ele>
        <time>2021-08-01T09:23:18Z</time>
      </trkpt>
      <trkpt lat="48.59321" lon="7.11087">
        <ele>501.8</ele>
        <time>2021-08-01T09:23:20Z</time>
      </trkpt>
      <trkpt lat="48.5931" lon="7.1109">
        <ele>500.9</ele>
        <time>2021-08-01T09:23:22Z</time>
      </trkpt>
      <trkpt lat="48.593" lon="7.11092">
        <ele>500.1</ele>
        <time>2021-08-01T09:23:24Z</time>
      </trkpt>
      <trkpt lat="48.5929" lon="7.11095">
        <ele>499.4</ele>
        <time>2021-08-01T09:23:26Z</time>
      </trkpt>
      <trkpt lat="48.59285" lon="7.11095">
        <ele>499</ele>
        <time>2021-08-01T09:23:27Z</time>
      </trkpt>
      <trkpt lat="48.59273" lon="7.11095">
        <ele>498.4</ele>
        <time>2021-08-01T09:23:29Z</time>
      </trkpt>
      <trkpt lat="48.59266" lon="7.11094">
        <ele>498.2</ele>
        <time>2021-08-01T09:23:30Z</time>
      </trkpt>
      <trkpt lat="48.59262" lon="7.11096">
        <ele>498.1</ele>
        <time>2021-08-01T09:23:31Z</time>
      </trkpt>
      <trkpt lat="48.59257" lon="7.11094">
        <ele>498</ele>
        <time>2021-08-01T09:23:33Z</time>
      </trkpt>
      <trkpt lat="48.59252" lon="7.11092">
        <ele>497.9</ele>
        <time>2021-08-01T09:23:34Z</time>
      </trkpt>
      <trkpt lat="48.59249" lon="7.1109">
        <ele>497.8</ele>
        <time>2021-08-01T09:23:35Z</time>
      </trkpt>
      <trkpt lat="48.59243" lon="7.11087">
        <ele>497.7</ele>
        <time>2021-08-01T09:23:36Z</time>
      </trkpt>
      <trkpt lat="48.59237" lon="7.11085">
        <ele>497.6</ele>
        <time>2021-08-01T09:23:37Z</time>
      </trkpt>
      <trkpt lat="48.59229" lon="7.11082">
        <ele>497.5</ele>
        <time>2021-08-01T09:23:39Z</time>
      </trkpt>
      <trkpt lat="48.59223" lon="7.1108">
        <ele>497.5</ele>
        <time>2021-08-01T09:23:41Z</time>
      </trkpt>
      <trkpt lat="48.59218" lon="7.11078">
        <ele>497.5</ele>
        <time>2021-08-01T09:23:43Z</time>
      </trkpt>
      <trkpt lat="48.59215" lon="7.11076">
        <ele>497.5</ele>
        <time>2021-08-01T09:23:44Z</time>
      </trkpt>
      <trkpt lat="48.59212" lon="7.11074">
        <ele>497.6</ele>
        <time>2021-08-01T09:23:45Z</time>
      </trkpt>
      <trkpt lat="48.5921" lon="7.11074">
        <ele>497.6</ele>
        <time>2021-08-01T09:23:46Z</time>
      </trkpt>
      <trkpt lat="48.59205" lon="7.11073">
        <ele>497.6</ele>
        <time>2021-08-01T09:23:47Z</time>
      </trkpt>
      <trkpt lat="48.59201" lon="7.11073">
        <ele>497.7</ele>
        <time>2021-08-01T09:23:48Z</time>
      </trkpt>
      <trkpt lat="48.59196" lon="7.11076">
        <ele>497.7</ele>
        <time>2021-08-01T09:23:50Z</time>
      </trkpt>
      <trkpt lat="48.59192" lon="7.11077">
        <ele>497.7</ele>
        <time>2021-08-01T09:23:51Z</time>
      </trkpt>
      <trkpt lat="48.59188" lon="7.11079">
        <ele>497.6</ele>
        <time>2021-08-01T09:23:53Z</time>
      </trkpt>
      <trkpt lat="48.59182" lon="7.1108">
        <ele>497.6</ele>
        <time>2021-08-01T09:23:54Z</time>
      </trkpt>
      <trkpt lat="48.59177" lon="7.11078">
        <ele>497.4</ele>
        <time>2021-08-01T09:23:56Z</time>
      </trkpt>
      <trkpt lat="48.59171" lon="7.11074">
        <ele>497.2</ele>
        <time>2021-08-01T09:23:57Z</time>
      </trkpt>
      <trkpt lat="48.59166" lon="7.11073">
        <ele>497</ele>
        <time>2021-08-01T09:23:59Z</time>
      </trkpt>
      <trkpt lat="48.59161" lon="7.11072">
        <ele>496.8</ele>
        <time>2021-08-01T09:24:00Z</time>
      </trkpt>
      <trkpt lat="48.59156" lon="7.1107">
        <ele>496.5</ele>
        <time>2021-08-01T09:24:01Z</time>
      </trkpt>
      <trkpt lat="48.59153" lon="7.11068">
        <ele>496.4</ele>
        <time>2021-08-01T09:24:02Z</time>
      </trkpt>
      <trkpt lat="48.59149" lon="7.11066">
        <ele>496.2</ele>
        <time>2021-08-01T09:24:03Z</time>
      </trkpt>
      <trkpt lat="48.59144" lon="7.11063">
        <ele>496</ele>
        <time>2021-08-01T09:24:05Z</time>
      </trkpt>
      <trkpt lat="48.59138" lon="7.11061">
        <ele>495.7</ele>
        <time>2021-08-01T09:24:06Z</time>
      </trkpt>
      <trkpt lat="48.59133" lon="7.11059">
        <ele>495.5</ele>
        <time>2021-08-01T09:24:07Z</time>
      </trkpt>
      <trkpt lat="48.59128" lon="7.11056">
        <ele>495.3</ele>
        <time>2021-08-01T09:24:09Z</time>
      </trkpt>
      <trkpt lat="48.59123" lon="7.11054">
        <ele>495.2</ele>
        <time>2021-08-01T09:24:10Z</time>
      </trkpt>
      <trkpt lat="48.59117" lon="7.11051">
        <ele>495</ele>
        <time>2021-08-01T09:24:11Z</time>
      </trkpt>
      <trkpt lat="48.59112" lon="7.11048">
        <ele>494.7</ele>
        <time>2021-08-01T09:24:12Z</time>
      </trkpt>
      <trkpt lat="48.59101" lon="7.1104">
        <ele>494.2</ele>
        <time>2021-08-01T09:24:14Z</time>
      </trkpt>
      <trkpt lat="48.59089" lon="7.11032">
        <ele>493.5</ele>
        <time>2021-08-01T09:24:16Z</time>
      </trkpt>
      <trkpt lat="48.59076" lon="7.11022">
        <ele>492.7</ele>
        <time>2021-08-01T09:24:18Z</time>
      </trkpt>
      <trkpt lat="48.59068" lon="7.11018">
        <ele>492.3</ele>
        <time>2021-08-01T09:24:19Z</time>
      </trkpt>
      <trkpt lat="48.59055" lon="7.11013">
        <ele>491.7</ele>
        <time>2021-08-01T09:24:21Z</time>
      </trkpt>
      <trkpt lat="48.59041" lon="7.11012">
        <ele>491.2</ele>
        <time>2021-08-01T09:24:23Z</time>
      </trkpt>
      <trkpt lat="48.59028" lon="7.11015">
        <ele>490.8</ele>
        <time>2021-08-01T09:24:25Z</time>
      </trkpt>
      <trkpt lat="48.59023" lon="7.11017">
        <ele>490.6</ele>
        <time>2021-08-01T09:24:26Z</time>
      </trkpt>
      <trkpt lat="48.59019" lon="7.1102">
        <ele>490.5</ele>
        <time>2021-08-01T09:24:27Z</time>
      </trkpt>
      <trkpt lat="48.59012" lon="7.1103">
        <ele>490.2</ele>
        <time>2021-08-01T09:24:29Z</time>
      </trkpt>
      <trkpt lat="48.59008" lon="7.11036">
        <ele>490</ele>
        <time>2021-08-01T09:24:30Z</time>
      </trkpt>
      <trkpt lat="48.59" lon="7.11045">
        <ele>489.7</ele>
        <time>2021-08-01T09:24:32Z</time>
      </trkpt>
      <trkpt lat="48.58996" lon="7.1105">
        <ele>489.5</ele>
        <time>2021-08-01T09:24:33Z</time>
      </trkpt>
      <trkpt lat="48.58993" lon="7.11055">
        <ele>489.4</ele>
        <time>2021-08-01T09:24:34Z</time>
      </trkpt>
      <trkpt lat="48.58985" lon="7.11067">
        <ele>489</ele>
        <time>2021-08-01T09:24:36Z</time>
      </trkpt>
      <trkpt lat="48.58981" lon="7.11073">
        <ele>488.8</ele>
        <time>2021-08-01T09:24:37Z</time>
      </trkpt>
      <trkpt lat="48.58977" lon="7.11082">
        <ele>488.6</ele>
        <time>2021-08-01T09:24:38Z</time>
      </trkpt>
      <trkpt lat="48.58968" lon="7.11097">
        <ele>488</ele>
        <time>2021-08-01T09:24:40Z</time>
      </trkpt>
      <trkpt lat="48.58958" lon="7.11108">
        <ele>487.7</ele>
        <time>2021-08-01T09:24:42Z</time>
      </trkpt>
      <trkpt lat="48.58949" lon="7.11119">
        <ele>487.5</ele>
        <time>2021-08-01T09:24:44Z</time>
      </trkpt>
      <trkpt lat="48.58946" lon="7.11125">
        <ele>487.4</ele>
        <time>2021-08-01T09:24:45Z</time>
      </trkpt>
      <trkpt lat="48.58942" lon="7.11131">
        <ele>487.3</ele>
        <time>2021-08-01T09:24:46Z</time>
      </trkpt>
      <trkpt lat="48.58939" lon="7.11136">
        <ele>487.2</ele>
        <time>2021-08-01T09:24:47Z</time>
      </trkpt>
      <trkpt lat="48.58934" lon="7.1114">
        <ele>487.2</ele>
        <time>2021-08-01T09:24:48Z</time>
      </trkpt>
      <trkpt lat="48.5893" lon="7.11144">
        <ele>487.1</ele>
        <time>2021-08-01T09:24:49Z</time>
      </trkpt>
      <trkpt lat="48.5892" lon="7.11148">
        <ele>487.1</ele>
        <time>2021-08-01T09:24:51Z</time>
      </trkpt>
      <trkpt lat="48.58915" lon="7.11149">
        <ele>487.1</ele>
        <time>2021-08-01T09:24:52Z</time>
      </trkpt>
      <trkpt lat="48.58907" lon="7.11152">
        <ele>487.2</ele>
        <time>2021-08-01T09:24:54Z</time>
      </trkpt>
      <trkpt lat="48.58904" lon="7.11154">
        <ele>487.2</ele>
        <time>2021-08-01T09:24:55Z</time>
      </trkpt>
      <trkpt lat="48.58897" lon="7.11158">
        <ele>487.3</ele>
        <time>2021-08-01T09:24:57Z</time>
      </trkpt>
      <trkpt lat="48.58894" lon="7.11161">
        <ele>487.3</ele>
        <time>2021-08-01T09:24:58Z</time>
      </trkpt>
      <trkpt lat="48.58887" lon="7.11167">
        <ele>487.4</ele>
        <time>2021-08-01T09:25:00Z</time>
      </trkpt>
      <trkpt lat="48.58884" lon="7.11174">
        <ele>487.5</ele>
        <time>2021-08-01T09:25:02Z</time>
      </trkpt>
      <trkpt lat="48.58878" lon="7.11176">
        <ele>487.5</ele>
        <time>2021-08-01T09:25:03Z</time>
      </trkpt>
      <trkpt lat="48.58866" lon="7.11178">
        <ele>487.5</ele>
        <time>2021-08-01T09:25:05Z</time>
      </trkpt>
      <trkpt lat="48.58859" lon="7.11181">
        <ele>487.5</ele>
        <time>2021-08-01T09:25:06Z</time>
      </trkpt>
      <trkpt lat="48.58852" lon="7.11182">
        <ele>487.4</ele>
        <time>2021-08-01T09:25:07Z</time>
      </trkpt>
      <trkpt lat="48.58843" lon="7.11186">
        <ele>487.5</ele>
        <time>2021-08-01T09:25:09Z</time>
      </trkpt>
      <trkpt lat="48.58838" lon="7.11187">
        <ele>487.5</ele>
        <time>2021-08-01T09:25:10Z</time>
      </trkpt>
      <trkpt lat="48.58834" lon="7.11189">
        <ele>487.5</ele>
        <time>2021-08-01T09:25:11Z</time>
      </trkpt>
      <trkpt lat="48.58829" lon="7.11192">
        <ele>487.5</ele>
        <time>2021-08-01T09:25:12Z</time>
      </trkpt>
      <trkpt lat="48.58824" lon="7.11197">
        <ele>487.5</ele>
        <time>2021-08-01T09:25:13Z</time>
      </trkpt>
      <trkpt lat="48.58819" lon="7.11201">
        <ele>487.5</ele>
        <time>2021-08-01T09:25:15Z</time>
      </trkpt>
      <trkpt lat="48.58815" lon="7.11206">
        <ele>487.5</ele>
        <time>2021-08-01T09:25:16Z</time>
      </trkpt>
      <trkpt lat="48.58809" lon="7.1121">
        <ele>487.6</ele>
        <time>2021-08-01T09:25:17Z</time>
      </trkpt>
      <trkpt lat="48.58804" lon="7.11214">
        <ele>487.6</ele>
        <time>2021-08-01T09:25:18Z</time>
      </trkpt>
      <trkpt lat="48.58796" lon="7.11219">
        <ele>487.6</ele>
        <time>2021-08-01T09:25:20Z</time>
      </trkpt>
      <trkpt lat="48.58792" lon="7.11222">
        <ele>487.7</ele>
        <time>2021-08-01T09:25:21Z</time>
      </trkpt>
      <trkpt lat="48.58786" lon="7.11225">
        <ele>487.8</ele>
        <time>2021-08-01T09:25:23Z</time>
      </trkpt>
      <trkpt lat="48.58778" lon="7.1123">
        <ele>488</ele>
        <time>2021-08-01T09:25:24Z</time>
      </trkpt>
      <trkpt lat="48.58771" lon="7.11236">
        <ele>488.2</ele>
        <time>2021-08-01T09:25:26Z</time>
      </trkpt>
      <trkpt lat="48.58766" lon="7.11239">
        <ele>488.4</ele>
        <time>2021-08-01T09:25:28Z</time>
      </trkpt>
      <trkpt lat="48.58762" lon="7.1124">
        <ele>488.5</ele>
        <time>2021-08-01T09:25:29Z</time>
      </trkpt>
      <trkpt lat="48.58758" lon="7.1124">
        <ele>488.6</ele>
        <time>2021-08-01T09:25:30Z</time>
      </trkpt>
      <trkpt lat="48.58753" lon="7.11239">
        <ele>488.8</ele>
        <time>2021-08-01T09:25:31Z</time>
      </trkpt>
      <trkpt lat="48.58749" lon="7.11237">
        <ele>489</ele>
        <time>2021-08-01T09:25:33Z</time>
      </trkpt>
      <trkpt lat="48.58746" lon="7.11234">
        <ele>489.1</ele>
        <time>2021-08-01T09:25:34Z</time>
      </trkpt>
      <trkpt lat="48.58742" lon="7.11232">
        <ele>489.2</ele>
        <time>2021-08-01T09:25:35Z</time>
      </trkpt>
      <trkpt lat="48.58738" lon="7.1123">
        <ele>489.3</ele>
        <time>2021-08-01T09:25:37Z</time>
      </trkpt>
      <trkpt lat="48.58735" lon="7.11228">
        <ele>489.4</ele>
        <time>2021-08-01T09:25:38Z</time>
      </trkpt>
      <trkpt lat="48.58731" lon="7.11223">
        <ele>489.5</ele>
        <time>2021-08-01T09:25:39Z</time>
      </trkpt>
      <trkpt lat="48.58727" lon="7.11221">
        <ele>489.6</ele>
        <time>2021-08-01T09:25:41Z</time>
      </trkpt>
      <trkpt lat="48.58723" lon="7.11218">
        <ele>489.8</ele>
        <time>2021-08-01T09:25:42Z</time>
      </trkpt>
      <trkpt lat="48.58719" lon="7.11217">
        <ele>489.9</ele>
        <time>2021-08-01T09:25:44Z</time>
      </trkpt>
      <trkpt lat="48.58716" lon="7.11214">
        <ele>490</ele>
        <time>2021-08-01T09:25:45Z</time>
      </trkpt>
      <trkpt lat="48.58713" lon="7.11209">
        <ele>490.2</ele>
        <time>2021-08-01T09:25:47Z</time>
      </trkpt>
      <trkpt lat="48.58711" lon="7.11206">
        <ele>490.3</ele>
        <time>2021-08-01T09:25:48Z</time>
      </trkpt>
      <trkpt lat="48.58708" lon="7.11203">
        <ele>490.4</ele>
        <time>2021-08-01T09:25:49Z</time>
      </trkpt>
      <trkpt lat="48.58705" lon="7.112">
        <ele>490.6</ele>
        <time>2021-08-01T09:25:51Z</time>
      </trkpt>
      <trkpt lat="48.58702" lon="7.11196">
        <ele>490.8</ele>
        <time>2021-08-01T09:25:52Z</time>
      </trkpt>
      <trkpt lat="48.58696" lon="7.11189">
        <ele>491.1</ele>
        <time>2021-08-01T09:25:55Z</time>
      </trkpt>
      <trkpt lat="48.58693" lon="7.11187">
        <ele>491.2</ele>
        <time>2021-08-01T09:25:56Z</time>
      </trkpt>
      <trkpt lat="48.58692" lon="7.11185">
        <ele>491.3</ele>
        <time>2021-08-01T09:25:58Z</time>
      </trkpt>
      <trkpt lat="48.58691" lon="7.11185">
        <ele>491.3</ele>
        <time>2021-08-01T09:25:59Z</time>
      </trkpt>
      <trkpt lat="48.58688" lon="7.11183">
        <ele>491.5</ele>
        <time>2021-08-01T09:26:01Z</time>
      </trkpt>
      <trkpt lat="48.58685" lon="7.1118">
        <ele>491.6</ele>
        <time>2021-08-01T09:26:02Z</time>
      </trkpt>
      <trkpt lat="48.58683" lon="7.11178">
        <ele>491.7</ele>
        <time>2021-08-01T09:26:03Z</time>
      </trkpt>
      <trkpt lat="48.58679" lon="7.11176">
        <ele>491.9</ele>
        <time>2021-08-01T09:26:04Z</time>
      </trkpt>
      <trkpt lat="48.58674" lon="7.11172">
        <ele>492.1</ele>
        <time>2021-08-01T09:26:06Z</time>
      </trkpt>
      <trkpt lat="48.58673" lon="7.1117">
        <ele>492.2</ele>
        <time>2021-08-01T09:26:07Z</time>
      </trkpt>
      <trkpt lat="48.58671" lon="7.11169">
        <ele>492.2</ele>
        <time>2021-08-01T09:26:08Z</time>
      </trkpt>
      <trkpt lat="48.58667" lon="7.11166">
        <ele>492.4</ele>
        <time>2021-08-01T09:26:10Z</time>
      </trkpt>
      <trkpt lat="48.58664" lon="7.11164">
        <ele>492.5</ele>
        <time>2021-08-01T09:26:11Z</time>
      </trkpt>
      <trkpt lat="48.5866" lon="7.1116">
        <ele>492.6</ele>
        <time>2021-08-01T09:26:13Z</time>
      </trkpt>
      <trkpt lat="48.58657" lon="7.11157">
        <ele>492.7</ele>
        <time>2021-08-01T09:26:14Z</time>
      </trkpt>
      <trkpt lat="48.58653" lon="7.11155">
        <ele>492.8</ele>
        <time>2021-08-01T09:26:16Z</time>
      </trkpt>
      <trkpt lat="48.58649" lon="7.11152">
        <ele>492.9</ele>
        <time>2021-08-01T09:26:17Z</time>
      </trkpt>
      <trkpt lat="48.58647" lon="7.11151">
        <ele>492.9</ele>
        <time>2021-08-01T09:26:18Z</time>
      </trkpt>
      <trkpt lat="48.58645" lon="7.11148">
        <ele>493</ele>
        <time>2021-08-01T09:26:20Z</time>
      </trkpt>
      <trkpt lat="48.58644" lon="7.11146">
        <ele>493</ele>
        <time>2021-08-01T09:26:21Z</time>
      </trkpt>
      <trkpt lat="48.58641" lon="7.11144">
        <ele>493.1</ele>
        <time>2021-08-01T09:26:23Z</time>
      </trkpt>
      <trkpt lat="48.58638" lon="7.11143">
        <ele>493.2</ele>
        <time>2021-08-01T09:26:24Z</time>
      </trkpt>
      <trkpt lat="48.58635" lon="7.11142">
        <ele>493.2</ele>
        <time>2021-08-01T09:26:25Z</time>
      </trkpt>
      <trkpt lat="48.5863" lon="7.11138">
        <ele>493.4</ele>
        <time>2021-08-01T09:26:26Z</time>
      </trkpt>
      <trkpt lat="48.58625" lon="7.11133">
        <ele>493.5</ele>
        <time>2021-08-01T09:26:28Z</time>
      </trkpt>
      <trkpt lat="48.58621" lon="7.11129">
        <ele>493.6</ele>
        <time>2021-08-01T09:26:29Z</time>
      </trkpt>
      <trkpt lat="48.58616" lon="7.11128">
        <ele>493.7</ele>
        <time>2021-08-01T09:26:31Z</time>
      </trkpt>
      <trkpt lat="48.58614" lon="7.11127">
        <ele>493.7</ele>
        <time>2021-08-01T09:26:32Z</time>
      </trkpt>
      <trkpt lat="48.5861" lon="7.11125">
        <ele>493.8</ele>
        <time>2021-08-01T09:26:33Z</time>
      </trkpt>
      <trkpt lat="48.58606" lon="7.11124">
        <ele>493.9</ele>
        <time>2021-08-01T09:26:35Z</time>
      </trkpt>
      <trkpt lat="48.58603" lon="7.11123">
        <ele>494</ele>
        <time>2021-08-01T09:26:36Z</time>
      </trkpt>
      <trkpt lat="48.58597" lon="7.11121">
        <ele>494.2</ele>
        <time>2021-08-01T09:26:38Z</time>
      </trkpt>
      <trkpt lat="48.58595" lon="7.1112">
        <ele>494.3</ele>
        <time>2021-08-01T09:26:39Z</time>
      </trkpt>
      <trkpt lat="48.58593" lon="7.11119">
        <ele>494.3</ele>
        <time>2021-08-01T09:26:40Z</time>
      </trkpt>
      <trkpt lat="48.5859" lon="7.11118">
        <ele>494.4</ele>
        <time>2021-08-01T09:26:42Z</time>
      </trkpt>
      <trkpt lat="48.58587" lon="7.11117">
        <ele>494.5</ele>
        <time>2021-08-01T09:26:43Z</time>
      </trkpt>
      <trkpt lat="48.58585" lon="7.11115">
        <ele>494.6</ele>
        <time>2021-08-01T09:26:44Z</time>
      </trkpt>
      <trkpt lat="48.58579" lon="7.11112">
        <ele>494.8</ele>
        <time>2021-08-01T09:26:46Z</time>
      </trkpt>
      <trkpt lat="48.58572" lon="7.1111">
        <ele>495</ele>
        <time>2021-08-01T09:26:48Z</time>
      </trkpt>
      <trkpt lat="48.58566" lon="7.11108">
        <ele>495.2</ele>
        <time>2021-08-01T09:26:50Z</time>
      </trkpt>
      <trkpt lat="48.58563" lon="7.11106">
        <ele>495.3</ele>
        <time>2021-08-01T09:26:51Z</time>
      </trkpt>
      <trkpt lat="48.58561" lon="7.11104">
        <ele>495.4</ele>
        <time>2021-08-01T09:26:52Z</time>
      </trkpt>
      <trkpt lat="48.58556" lon="7.11103">
        <ele>495.6</ele>
        <time>2021-08-01T09:26:53Z</time>
      </trkpt>
      <trkpt lat="48.5855" lon="7.11102">
        <ele>495.7</ele>
        <time>2021-08-01T09:26:55Z</time>
      </trkpt>
      <trkpt lat="48.58549" lon="7.11102">
        <ele>495.8</ele>
        <time>2021-08-01T09:26:56Z</time>
      </trkpt>
      <trkpt lat="48.58547" lon="7.11102">
        <ele>495.8</ele>
        <time>2021-08-01T09:26:57Z</time>
      </trkpt>
      <trkpt lat="48.58544" lon="7.11102">
        <ele>495.9</ele>
        <time>2021-08-01T09:26:58Z</time>
      </trkpt>
      <trkpt lat="48.58539" lon="7.11102">
        <ele>496.1</ele>
        <time>2021-08-01T09:26:59Z</time>
      </trkpt>
      <trkpt lat="48.58535" lon="7.11102">
        <ele>496.2</ele>
        <time>2021-08-01T09:27:01Z</time>
      </trkpt>
      <trkpt lat="48.58533" lon="7.11102">
        <ele>496.3</ele>
        <time>2021-08-01T09:27:02Z</time>
      </trkpt>
      <trkpt lat="48.58527" lon="7.11102">
        <ele>496.5</ele>
        <time>2021-08-01T09:27:04Z</time>
      </trkpt>
      <trkpt lat="48.58524" lon="7.11102">
        <ele>496.6</ele>
        <time>2021-08-01T09:27:05Z</time>
      </trkpt>
      <trkpt lat="48.58521" lon="7.11102">
        <ele>496.7</ele>
        <time>2021-08-01T09:27:06Z</time>
      </trkpt>
      <trkpt lat="48.58516" lon="7.11102">
        <ele>496.9</ele>
        <time>2021-08-01T09:27:08Z</time>
      </trkpt>
      <trkpt lat="48.58513" lon="7.11102">
        <ele>497</ele>
        <time>2021-08-01T09:27:09Z</time>
      </trkpt>
      <trkpt lat="48.58509" lon="7.11104">
        <ele>497.1</ele>
        <time>2021-08-01T09:27:11Z</time>
      </trkpt>
      <trkpt lat="48.58508" lon="7.11105">
        <ele>497.2</ele>
        <time>2021-08-01T09:27:12Z</time>
      </trkpt>
      <trkpt lat="48.58504" lon="7.11106">
        <ele>497.3</ele>
        <time>2021-08-01T09:27:14Z</time>
      </trkpt>
      <trkpt lat="48.58501" lon="7.11108">
        <ele>497.4</ele>
        <time>2021-08-01T09:27:16Z</time>
      </trkpt>
      <trkpt lat="48.585" lon="7.11108">
        <ele>497.4</ele>
        <time>2021-08-01T09:27:17Z</time>
      </trkpt>
      <trkpt lat="48.58497" lon="7.11112">
        <ele>497.6</ele>
        <time>2021-08-01T09:27:19Z</time>
      </trkpt>
      <trkpt lat="48.58495" lon="7.11113">
        <ele>497.6</ele>
        <time>2021-08-01T09:27:20Z</time>
      </trkpt>
      <trkpt lat="48.58494" lon="7.11114">
        <ele>497.6</ele>
        <time>2021-08-01T09:27:21Z</time>
      </trkpt>
      <trkpt lat="48.5849" lon="7.1112">
        <ele>497.8</ele>
        <time>2021-08-01T09:27:23Z</time>
      </trkpt>
      <trkpt lat="48.58487" lon="7.11127">
        <ele>497.9</ele>
        <time>2021-08-01T09:27:25Z</time>
      </trkpt>
      <trkpt lat="48.58484" lon="7.11131">
        <ele>498</ele>
        <time>2021-08-01T09:27:26Z</time>
      </trkpt>
      <trkpt lat="48.5848" lon="7.11137">
        <ele>498.1</ele>
        <time>2021-08-01T09:27:28Z</time>
      </trkpt>
      <trkpt lat="48.58478" lon="7.11142">
        <ele>498.1</ele>
        <time>2021-08-01T09:27:29Z</time>
      </trkpt>
      <trkpt lat="48.58476" lon="7.11147">
        <ele>498.2</ele>
        <time>2021-08-01T09:27:30Z</time>
      </trkpt>
      <trkpt lat="48.58471" lon="7.11156">
        <ele>498.2</ele>
        <time>2021-08-01T09:27:32Z</time>
      </trkpt>
      <trkpt lat="48.58469" lon="7.1116">
        <ele>498.2</ele>
        <time>2021-08-01T09:27:33Z</time>
      </trkpt>
      <trkpt lat="48.58468" lon="7.11164">
        <ele>498.3</ele>
        <time>2021-08-01T09:27:34Z</time>
      </trkpt>
      <trkpt lat="48.58465" lon="7.1117">
        <ele>498.3</ele>
        <time>2021-08-01T09:27:36Z</time>
      </trkpt>
      <trkpt lat="48.58461" lon="7.11178">
        <ele>498.3</ele>
        <time>2021-08-01T09:27:38Z</time>
      </trkpt>
      <trkpt lat="48.58458" lon="7.11183">
        <ele>498.4</ele>
        <time>2021-08-01T09:27:39Z</time>
      </trkpt>
      <trkpt lat="48.58457" lon="7.1119">
        <ele>498.5</ele>
        <time>2021-08-01T09:27:41Z</time>
      </trkpt>
      <trkpt lat="48.58456" lon="7.11196">
        <ele>498.5</ele>
        <time>2021-08-01T09:27:42Z</time>
      </trkpt>
      <trkpt lat="48.58454" lon="7.11201">
        <ele>498.6</ele>
        <time>2021-08-01T09:27:43Z</time>
      </trkpt>
      <trkpt lat="48.58452" lon="7.11207">
        <ele>498.7</ele>
        <time>2021-08-01T09:27:45Z</time>
      </trkpt>
      <trkpt lat="48.58451" lon="7.11212">
        <ele>498.8</ele>
        <time>2021-08-01T09:27:46Z</time>
      </trkpt>
      <trkpt lat="48.5845" lon="7.11217">
        <ele>498.9</ele>
        <time>2021-08-01T09:27:47Z</time>
      </trkpt>
      <trkpt lat="48.58447" lon="7.11224">
        <ele>499</ele>
        <time>2021-08-01T09:27:49Z</time>
      </trkpt>
      <trkpt lat="48.58444" lon="7.11228">
        <ele>499.1</ele>
        <time>2021-08-01T09:27:50Z</time>
      </trkpt>
      <trkpt lat="48.58443" lon="7.1123">
        <ele>499.1</ele>
        <time>2021-08-01T09:27:51Z</time>
      </trkpt>
      <trkpt lat="48.58441" lon="7.11234">
        <ele>499.2</ele>
        <time>2021-08-01T09:27:52Z</time>
      </trkpt>
      <trkpt lat="48.58441" lon="7.11235">
        <ele>499.2</ele>
        <time>2021-08-01T09:27:53Z</time>
      </trkpt>
      <trkpt lat="48.5844" lon="7.11242">
        <ele>499.3</ele>
        <time>2021-08-01T09:27:54Z</time>
      </trkpt>
      <trkpt lat="48.5844" lon="7.11244">
        <ele>499.3</ele>
        <time>2021-08-01T09:27:55Z</time>
      </trkpt>
      <trkpt lat="48.58439" lon="7.11249">
        <ele>499.4</ele>
        <time>2021-08-01T09:27:57Z</time>
      </trkpt>
      <trkpt lat="48.58437" lon="7.11255">
        <ele>499.5</ele>
        <time>2021-08-01T09:27:58Z</time>
      </trkpt>
      <trkpt lat="48.58435" lon="7.11261">
        <ele>499.6</ele>
        <time>2021-08-01T09:27:59Z</time>
      </trkpt>
      <trkpt lat="48.58434" lon="7.11266">
        <ele>499.7</ele>
        <time>2021-08-01T09:28:01Z</time>
      </trkpt>
      <trkpt lat="48.58433" lon="7.1127">
        <ele>499.7</ele>
        <time>2021-08-01T09:28:02Z</time>
      </trkpt>
      <trkpt lat="48.58431" lon="7.11274">
        <ele>499.8</ele>
        <time>2021-08-01T09:28:03Z</time>
      </trkpt>
      <trkpt lat="48.5843" lon="7.11276">
        <ele>499.8</ele>
        <time>2021-08-01T09:28:04Z</time>
      </trkpt>
      <trkpt lat="48.58427" lon="7.11282">
        <ele>499.9</ele>
        <time>2021-08-01T09:28:06Z</time>
      </trkpt>
      <trkpt lat="48.58426" lon="7.11286">
        <ele>499.9</ele>
        <time>2021-08-01T09:28:07Z</time>
      </trkpt>
      <trkpt lat="48.58424" lon="7.11289">
        <ele>499.9</ele>
        <time>2021-08-01T09:28:08Z</time>
      </trkpt>
      <trkpt lat="48.5842" lon="7.11293">
        <ele>500</ele>
        <time>2021-08-01T09:28:09Z</time>
      </trkpt>
      <trkpt lat="48.58419" lon="7.11294">
        <ele>500</ele>
        <time>2021-08-01T09:28:10Z</time>
      </trkpt>
      <trkpt lat="48.58417" lon="7.11297">
        <ele>500</ele>
        <time>2021-08-01T09:28:11Z</time>
      </trkpt>
      <trkpt lat="48.58415" lon="7.113">
        <ele>500</ele>
        <time>2021-08-01T09:28:12Z</time>
      </trkpt>
      <trkpt lat="48.58413" lon="7.11304">
        <ele>500.1</ele>
        <time>2021-08-01T09:28:13Z</time>
      </trkpt>
      <trkpt lat="48.58411" lon="7.11308">
        <ele>500.1</ele>
        <time>2021-08-01T09:28:15Z</time>
      </trkpt>
      <trkpt lat="48.58408" lon="7.11312">
        <ele>500.1</ele>
        <time>2021-08-01T09:28:16Z</time>
      </trkpt>
      <trkpt lat="48.58402" lon="7.11319">
        <ele>500.1</ele>
        <time>2021-08-01T09:28:18Z</time>
      </trkpt>
      <trkpt lat="48.58399" lon="7.11321">
        <ele>500.1</ele>
        <time>2021-08-01T09:28:19Z</time>
      </trkpt>
      <trkpt lat="48.58396" lon="7.11322">
        <ele>500.2</ele>
        <time>2021-08-01T09:28:20Z</time>
      </trkpt>
      <trkpt lat="48.58392" lon="7.11324">
        <ele>500.2</ele>
        <time>2021-08-01T09:28:21Z</time>
      </trkpt>
      <trkpt lat="48.58388" lon="7.11325">
        <ele>500.2</ele>
        <time>2021-08-01T09:28:22Z</time>
      </trkpt>
      <trkpt lat="48.58381" lon="7.11326">
        <ele>500.2</ele>
        <time>2021-08-01T09:28:24Z</time>
      </trkpt>
      <trkpt lat="48.58374" lon="7.11327">
        <ele>500.3</ele>
        <time>2021-08-01T09:28:26Z</time>
      </trkpt>
      <trkpt lat="48.5837" lon="7.11327">
        <ele>500.3</ele>
        <time>2021-08-01T09:28:27Z</time>
      </trkpt>
      <trkpt lat="48.58363" lon="7.11323">
        <ele>500.3</ele>
        <time>2021-08-01T09:28:29Z</time>
      </trkpt>
      <trkpt lat="48.58359" lon="7.11322">
        <ele>500.3</ele>
        <time>2021-08-01T09:28:30Z</time>
      </trkpt>
      <trkpt lat="48.58356" lon="7.11321">
        <ele>500.3</ele>
        <time>2021-08-01T09:28:31Z</time>
      </trkpt>
      <trkpt lat="48.58352" lon="7.1132">
        <ele>500.3</ele>
        <time>2021-08-01T09:28:32Z</time>
      </trkpt>
      <trkpt lat="48.58348" lon="7.11318">
        <ele>500.3</ele>
        <time>2021-08-01T09:28:34Z</time>
      </trkpt>
      <trkpt lat="48.58345" lon="7.11318">
        <ele>500.3</ele>
        <time>2021-08-01T09:28:35Z</time>
      </trkpt>
      <trkpt lat="48.58342" lon="7.11317">
        <ele>500.3</ele>
        <time>2021-08-01T09:28:36Z</time>
      </trkpt>
      <trkpt lat="48.58339" lon="7.11316">
        <ele>500.3</ele>
        <time>2021-08-01T09:28:37Z</time>
      </trkpt>
      <trkpt lat="48.58337" lon="7.11315">
        <ele>500.3</ele>
        <time>2021-08-01T09:28:39Z</time>
      </trkpt>
      <trkpt lat="48.58336" lon="7.11315">
        <ele>500.3</ele>
        <time>2021-08-01T09:28:40Z</time>
      </trkpt>
      <trkpt lat="48.58333" lon="7.11313">
        <ele>500.2</ele>
        <time>2021-08-01T09:28:41Z</time>
      </trkpt>
      <trkpt lat="48.58332" lon="7.11312">
        <ele>500.2</ele>
        <time>2021-08-01T09:28:42Z</time>
      </trkpt>
      <trkpt lat="48.58327" lon="7.11308">
        <ele>500.2</ele>
        <time>2021-08-01T09:28:44Z</time>
      </trkpt>
      <trkpt lat="48.58323" lon="7.11305">
        <ele>500.1</ele>
        <time>2021-08-01T09:28:45Z</time>
      </trkpt>
      <trkpt lat="48.58319" lon="7.11302">
        <ele>500</ele>
        <time>2021-08-01T09:28:46Z</time>
      </trkpt>
      <trkpt lat="48.58314" lon="7.11299">
        <ele>499.9</ele>
        <time>2021-08-01T09:28:47Z</time>
      </trkpt>
      <trkpt lat="48.58309" lon="7.11296">
        <ele>499.8</ele>
        <time>2021-08-01T09:28:49Z</time>
      </trkpt>
      <trkpt lat="48.58305" lon="7.11292">
        <ele>499.7</ele>
        <time>2021-08-01T09:28:50Z</time>
      </trkpt>
      <trkpt lat="48.58299" lon="7.11289">
        <ele>499.6</ele>
        <time>2021-08-01T09:28:52Z</time>
      </trkpt>
      <trkpt lat="48.58295" lon="7.11287">
        <ele>499.5</ele>
        <time>2021-08-01T09:28:53Z</time>
      </trkpt>
      <trkpt lat="48.5829" lon="7.11285">
        <ele>499.4</ele>
        <time>2021-08-01T09:28:54Z</time>
      </trkpt>
      <trkpt lat="48.58285" lon="7.11283">
        <ele>499.3</ele>
        <time>2021-08-01T09:28:56Z</time>
      </trkpt>
      <trkpt lat="48.58279" lon="7.11279">
        <ele>499.2</ele>
        <time>2021-08-01T09:28:58Z</time>
      </trkpt>
      <trkpt lat="48.58274" lon="7.11277">
        <ele>499.1</ele>
        <time>2021-08-01T09:28:59Z</time>
      </trkpt>
      <trkpt lat="48.58271" lon="7.11275">
        <ele>499</ele>
        <time>2021-08-01T09:29:00Z</time>
      </trkpt>
      <trkpt lat="48.58266" lon="7.11273">
        <ele>498.9</ele>
        <time>2021-08-01T09:29:02Z</time>
      </trkpt>
      <trkpt lat="48.58261" lon="7.11272">
        <ele>498.8</ele>
        <time>2021-08-01T09:29:03Z</time>
      </trkpt>
      <trkpt lat="48.58255" lon="7.1127">
        <ele>498.7</ele>
        <time>2021-08-01T09:29:05Z</time>
      </trkpt>
      <trkpt lat="48.58251" lon="7.11268">
        <ele>498.7</ele>
        <time>2021-08-01T09:29:06Z</time>
      </trkpt>
      <trkpt lat="48.58246" lon="7.11267">
        <ele>498.7</ele>
        <time>2021-08-01T09:29:07Z</time>
      </trkpt>
      <trkpt lat="48.58241" lon="7.11267">
        <ele>498.6</ele>
        <time>2021-08-01T09:29:08Z</time>
      </trkpt>
      <trkpt lat="48.58235" lon="7.11267">
        <ele>498.6</ele>
        <time>2021-08-01T09:29:10Z</time>
      </trkpt>
      <trkpt lat="48.58231" lon="7.11267">
        <ele>498.6</ele>
        <time>2021-08-01T09:29:11Z</time>
      </trkpt>
      <trkpt lat="48.58227" lon="7.11266">
        <ele>498.6</ele>
        <time>2021-08-01T09:29:12Z</time>
      </trkpt>
      <trkpt lat="48.58225" lon="7.11267">
        <ele>498.6</ele>
        <time>2021-08-01T09:29:13Z</time>
      </trkpt>
      <trkpt lat="48.5822" lon="7.1127">
        <ele>498.6</ele>
        <time>2021-08-01T09:29:14Z</time>
      </trkpt>
      <trkpt lat="48.58216" lon="7.11272">
        <ele>498.6</ele>
        <time>2021-08-01T09:29:16Z</time>
      </trkpt>
      <trkpt lat="48.58212" lon="7.11274">
        <ele>498.7</ele>
        <time>2021-08-01T09:29:17Z</time>
      </trkpt>
      <trkpt lat="48.58208" lon="7.11277">
        <ele>498.7</ele>
        <time>2021-08-01T09:29:18Z</time>
      </trkpt>
      <trkpt lat="48.58206" lon="7.1128">
        <ele>498.7</ele>
        <time>2021-08-01T09:29:19Z</time>
      </trkpt>
      <trkpt lat="48.58203" lon="7.11282">
        <ele>498.8</ele>
        <time>2021-08-01T09:29:20Z</time>
      </trkpt>
      <trkpt lat="48.58199" lon="7.11284">
        <ele>498.8</ele>
        <time>2021-08-01T09:29:21Z</time>
      </trkpt>
      <trkpt lat="48.58196" lon="7.11287">
        <ele>498.8</ele>
        <time>2021-08-01T09:29:22Z</time>
      </trkpt>
      <trkpt lat="48.58192" lon="7.11289">
        <ele>498.9</ele>
        <time>2021-08-01T09:29:24Z</time>
      </trkpt>
      <trkpt lat="48.58189" lon="7.1129">
        <ele>498.9</ele>
        <time>2021-08-01T09:29:25Z</time>
      </trkpt>
      <trkpt lat="48.58186" lon="7.11292">
        <ele>498.9</ele>
        <time>2021-08-01T09:29:26Z</time>
      </trkpt>
      <trkpt lat="48.58185" lon="7.11293">
        <ele>498.9</ele>
        <time>2021-08-01T09:29:27Z</time>
      </trkpt>
      <trkpt lat="48.58181" lon="7.11296">
        <ele>498.8</ele>
        <time>2021-08-01T09:29:28Z</time>
      </trkpt>
      <trkpt lat="48.58177" lon="7.11301">
        <ele>498.8</ele>
        <time>2021-08-01T09:29:29Z</time>
      </trkpt>
      <trkpt lat="48.58174" lon="7.11306">
        <ele>498.8</ele>
        <time>2021-08-01T09:29:30Z</time>
      </trkpt>
      <trkpt lat="48.5817" lon="7.11311">
        <ele>498.8</ele>
        <time>2021-08-01T09:29:31Z</time>
      </trkpt>
      <trkpt lat="48.58167" lon="7.11315">
        <ele>498.7</ele>
        <time>2021-08-01T09:29:32Z</time>
      </trkpt>
      <trkpt lat="48.58164" lon="7.1132">
        <ele>498.7</ele>
        <time>2021-08-01T09:29:33Z</time>
      </trkpt>
      <trkpt lat="48.5816" lon="7.11326">
        <ele>498.6</ele>
        <time>2021-08-01T09:29:35Z</time>
      </trkpt>
      <trkpt lat="48.58156" lon="7.1133">
        <ele>498.5</ele>
        <time>2021-08-01T09:29:36Z</time>
      </trkpt>
      <trkpt lat="48.58152" lon="7.11334">
        <ele>498.4</ele>
        <time>2021-08-01T09:29:38Z</time>
      </trkpt>
      <trkpt lat="48.58146" lon="7.11341">
        <ele>498.3</ele>
        <time>2021-08-01T09:29:40Z</time>
      </trkpt>
      <trkpt lat="48.58144" lon="7.11345">
        <ele>498.2</ele>
        <time>2021-08-01T09:29:41Z</time>
      </trkpt>
      <trkpt lat="48.58141" lon="7.1135">
        <ele>498.1</ele>
        <time>2021-08-01T09:29:42Z</time>
      </trkpt>
      <trkpt lat="48.58137" lon="7.11359">
        <ele>497.8</ele>
        <time>2021-08-01T09:29:43Z</time>
      </trkpt>
      <trkpt lat="48.58134" lon="7.11369">
        <ele>497.6</ele>
        <time>2021-08-01T09:29:45Z</time>
      </trkpt>
      <trkpt lat="48.58131" lon="7.11375">
        <ele>497.4</ele>
        <time>2021-08-01T09:29:46Z</time>
      </trkpt>
      <trkpt lat="48.58124" lon="7.11389">
        <ele>496.9</ele>
        <time>2021-08-01T09:29:48Z</time>
      </trkpt>
      <trkpt lat="48.58121" lon="7.11397">
        <ele>496.6</ele>
        <time>2021-08-01T09:29:49Z</time>
      </trkpt>
      <trkpt lat="48.58119" lon="7.11405">
        <ele>496.3</ele>
        <time>2021-08-01T09:29:50Z</time>
      </trkpt>
      <trkpt lat="48.58113" lon="7.11419">
        <ele>495.9</ele>
        <time>2021-08-01T09:29:52Z</time>
      </trkpt>
      <trkpt lat="48.5811" lon="7.11425">
        <ele>495.7</ele>
        <time>2021-08-01T09:29:53Z</time>
      </trkpt>
      <trkpt lat="48.58107" lon="7.11431">
        <ele>495.5</ele>
        <time>2021-08-01T09:29:54Z</time>
      </trkpt>
      <trkpt lat="48.58102" lon="7.11443">
        <ele>495.3</ele>
        <time>2021-08-01T09:29:56Z</time>
      </trkpt>
      <trkpt lat="48.58096" lon="7.11455">
        <ele>495.1</ele>
        <time>2021-08-01T09:29:58Z</time>
      </trkpt>
      <trkpt lat="48.58093" lon="7.11461">
        <ele>495.1</ele>
        <time>2021-08-01T09:29:59Z</time>
      </trkpt>
      <trkpt lat="48.58091" lon="7.11467">
        <ele>495</ele>
        <time>2021-08-01T09:30:00Z</time>
      </trkpt>
      <trkpt lat="48.58085" lon="7.11479">
        <ele>495.1</ele>
        <time>2021-08-01T09:30:02Z</time>
      </trkpt>
      <trkpt lat="48.58084" lon="7.11485">
        <ele>495.1</ele>
        <time>2021-08-01T09:30:03Z</time>
      </trkpt>
      <trkpt lat="48.58082" lon="7.11489">
        <ele>495.2</ele>
        <time>2021-08-01T09:30:04Z</time>
      </trkpt>
      <trkpt lat="48.58079" lon="7.11498">
        <ele>495.4</ele>
        <time>2021-08-01T09:30:06Z</time>
      </trkpt>
      <trkpt lat="48.58076" lon="7.11508">
        <ele>495.6</ele>
        <time>2021-08-01T09:30:08Z</time>
      </trkpt>
      <trkpt lat="48.58075" lon="7.11513">
        <ele>495.8</ele>
        <time>2021-08-01T09:30:09Z</time>
      </trkpt>
      <trkpt lat="48.58075" lon="7.11516">
        <ele>495.9</ele>
        <time>2021-08-01T09:30:11Z</time>
      </trkpt>
      <trkpt lat="48.58074" lon="7.11521">
        <ele>496.1</ele>
        <time>2021-08-01T09:30:12Z</time>
      </trkpt>
      <trkpt lat="48.58071" lon="7.11528">
        <ele>496.3</ele>
        <time>2021-08-01T09:30:14Z</time>
      </trkpt>
      <trkpt lat="48.58068" lon="7.11533">
        <ele>496.5</ele>
        <time>2021-08-01T09:30:16Z</time>
      </trkpt>
      <trkpt lat="48.58066" lon="7.11538">
        <ele>496.7</ele>
        <time>2021-08-01T09:30:18Z</time>
      </trkpt>
      <trkpt lat="48.58064" lon="7.11542">
        <ele>496.8</ele>
        <time>2021-08-01T09:30:19Z</time>
      </trkpt>
      <trkpt lat="48.58062" lon="7.11548">
        <ele>497</ele>
        <time>2021-08-01T09:30:21Z</time>
      </trkpt>
      <trkpt lat="48.58061" lon="7.11552">
        <ele>497.1</ele>
        <time>2021-08-01T09:30:22Z</time>
      </trkpt>
      <trkpt lat="48.58059" lon="7.11557">
        <ele>497.3</ele>
        <time>2021-08-01T09:30:23Z</time>
      </trkpt>
      <trkpt lat="48.58057" lon="7.11561">
        <ele>497.5</ele>
        <time>2021-08-01T09:30:24Z</time>
      </trkpt>
      <trkpt lat="48.58055" lon="7.11565">
        <ele>497.6</ele>
        <time>2021-08-01T09:30:26Z</time>
      </trkpt>
      <trkpt lat="48.58054" lon="7.11569">
        <ele>497.8</ele>
        <time>2021-08-01T09:30:27Z</time>
      </trkpt>
      <trkpt lat="48.58053" lon="7.11573">
        <ele>497.9</ele>
        <time>2021-08-01T09:30:28Z</time>
      </trkpt>
      <trkpt lat="48.58052" lon="7.11576">
        <ele>498.1</ele>
        <time>2021-08-01T09:30:29Z</time>
      </trkpt>
      <trkpt lat="48.58051" lon="7.11578">
        <ele>498.1</ele>
        <time>2021-08-01T09:30:30Z</time>
      </trkpt>
      <trkpt lat="48.5805" lon="7.11583">
        <ele>498.4</ele>
        <time>2021-08-01T09:30:32Z</time>
      </trkpt>
      <trkpt lat="48.58049" lon="7.11585">
        <ele>498.4</ele>
        <time>2021-08-01T09:30:33Z</time>
      </trkpt>
      <trkpt lat="48.58049" lon="7.11588">
        <ele>498.6</ele>
        <time>2021-08-01T09:30:35Z</time>
      </trkpt>
      <trkpt lat="48.58048" lon="7.1159">
        <ele>498.7</ele>
        <time>2021-08-01T09:30:36Z</time>
      </trkpt>
      <trkpt lat="48.58048" lon="7.11591">
        <ele>498.7</ele>
        <time>2021-08-01T09:30:37Z</time>
      </trkpt>
      <trkpt lat="48.58046" lon="7.1159">
        <ele>498.8</ele>
        <time>2021-08-01T09:30:39Z</time>
      </trkpt>
      <trkpt lat="48.58046" lon="7.1159">
        <ele>498.9</ele>
        <time>2021-08-01T09:30:41Z</time>
      </trkpt>
      <trkpt lat="48.58046" lon="7.1159">
        <ele>498.9</ele>
        <time>2021-08-01T09:30:42Z</time>
      </trkpt>
      <trkpt lat="48.58046" lon="7.1159">
        <ele>498.9</ele>
        <time>2021-08-01T09:30:44Z</time>
      </trkpt>
      <trkpt lat="48.58046" lon="7.1159">
        <ele>498.9</ele>
        <time>2021-08-01T09:30:45Z</time>
      </trkpt>
      <trkpt lat="48.58046" lon="7.1159">
        <ele>498.9</ele>
        <time>2021-08-01T09:30:46Z</time>
      </trkpt>
      <trkpt lat="48.58046" lon="7.1159">
        <ele>498.9</ele>
        <time>2021-08-01T09:30:47Z</time>
      </trkpt>
      <trkpt lat="48.58025" lon="7.11684">
        <ele>505.9</ele>
        <time>2021-08-01T09:31:49Z</time>
      </trkpt>
      <trkpt lat="48.58023" lon="7.11687">
        <ele>506.1</ele>
        <time>2021-08-01T09:31:50Z</time>
      </trkpt>
      <trkpt lat="48.58023" lon="7.11688">
        <ele>506.2</ele>
        <time>2021-08-01T09:31:51Z</time>
      </trkpt>
      <trkpt lat="48.58022" lon="7.11689">
        <ele>506.3</ele>
        <time>2021-08-01T09:31:52Z</time>
      </trkpt>
      <trkpt lat="48.58022" lon="7.1169">
        <ele>506.4</ele>
        <time>2021-08-01T09:31:54Z</time>
      </trkpt>
      <trkpt lat="48.58022" lon="7.11691">
        <ele>506.5</ele>
        <time>2021-08-01T09:31:55Z</time>
      </trkpt>
      <trkpt lat="48.58021" lon="7.11691">
        <ele>506.5</ele>
        <time>2021-08-01T09:31:56Z</time>
      </trkpt>
      <trkpt lat="48.58021" lon="7.11693">
        <ele>506.6</ele>
        <time>2021-08-01T09:31:57Z</time>
      </trkpt>
      <trkpt lat="48.58021" lon="7.11694">
        <ele>506.7</ele>
        <time>2021-08-01T09:31:58Z</time>
      </trkpt>
      <trkpt lat="48.58021" lon="7.11696">
        <ele>506.8</ele>
        <time>2021-08-01T09:32:00Z</time>
      </trkpt>
      <trkpt lat="48.5802" lon="7.11697">
        <ele>506.9</ele>
        <time>2021-08-01T09:32:01Z</time>
      </trkpt>
      <trkpt lat="48.58019" lon="7.11702">
        <ele>507.2</ele>
        <time>2021-08-01T09:32:03Z</time>
      </trkpt>
      <trkpt lat="48.58019" lon="7.11705">
        <ele>507.3</ele>
        <time>2021-08-01T09:32:05Z</time>
      </trkpt>
      <trkpt lat="48.58018" lon="7.11706">
        <ele>507.4</ele>
        <time>2021-08-01T09:32:06Z</time>
      </trkpt>
      <trkpt lat="48.58018" lon="7.11709">
        <ele>507.6</ele>
        <time>2021-08-01T09:32:07Z</time>
      </trkpt>
      <trkpt lat="48.58017" lon="7.1171">
        <ele>507.7</ele>
        <time>2021-08-01T09:32:08Z</time>
      </trkpt>
      <trkpt lat="48.58017" lon="7.11711">
        <ele>507.7</ele>
        <time>2021-08-01T09:32:09Z</time>
      </trkpt>
      <trkpt lat="48.58017" lon="7.11712">
        <ele>507.8</ele>
        <time>2021-08-01T09:32:10Z</time>
      </trkpt>
      <trkpt lat="48.58017" lon="7.11714">
        <ele>507.9</ele>
        <time>2021-08-01T09:32:12Z</time>
      </trkpt>
      <trkpt lat="48.58016" lon="7.11715">
        <ele>507.9</ele>
        <time>2021-08-01T09:32:13Z</time>
      </trkpt>
      <trkpt lat="48.58017" lon="7.11715">
        <ele>507.9</ele>
        <time>2021-08-01T09:32:14Z</time>
      </trkpt>
      <trkpt lat="48.58017" lon="7.11715">
        <ele>507.9</ele>
        <time>2021-08-01T09:32:15Z</time>
      </trkpt>
      <trkpt lat="48.58016" lon="7.11717">
        <ele>508</ele>
        <time>2021-08-01T09:32:16Z</time>
      </trkpt>
      <trkpt lat="48.58016" lon="7.11719">
        <ele>508.1</ele>
        <time>2021-08-01T09:32:17Z</time>
      </trkpt>
      <trkpt lat="48.58016" lon="7.1172">
        <ele>508.2</ele>
        <time>2021-08-01T09:32:19Z</time>
      </trkpt>
      <trkpt lat="48.58015" lon="7.11721">
        <ele>508.3</ele>
        <time>2021-08-01T09:32:20Z</time>
      </trkpt>
      <trkpt lat="48.58015" lon="7.11723">
        <ele>508.4</ele>
        <time>2021-08-01T09:32:21Z</time>
      </trkpt>
      <trkpt lat="48.58014" lon="7.11726">
        <ele>508.5</ele>
        <time>2021-08-01T09:32:23Z</time>
      </trkpt>
      <trkpt lat="48.58014" lon="7.11727">
        <ele>508.6</ele>
        <time>2021-08-01T09:32:24Z</time>
      </trkpt>
      <trkpt lat="48.58014" lon="7.11728">
        <ele>508.7</ele>
        <time>2021-08-01T09:32:25Z</time>
      </trkpt>
      <trkpt lat="48.58013" lon="7.1173">
        <ele>508.8</ele>
        <time>2021-08-01T09:32:26Z</time>
      </trkpt>
      <trkpt lat="48.58012" lon="7.11737">
        <ele>509.2</ele>
        <time>2021-08-01T09:32:28Z</time>
      </trkpt>
      <trkpt lat="48.58011" lon="7.11739">
        <ele>509.3</ele>
        <time>2021-08-01T09:32:29Z</time>
      </trkpt>
      <trkpt lat="48.5801" lon="7.11742">
        <ele>509.4</ele>
        <time>2021-08-01T09:32:30Z</time>
      </trkpt>
      <trkpt lat="48.58009" lon="7.11744">
        <ele>509.6</ele>
        <time>2021-08-01T09:32:31Z</time>
      </trkpt>
      <trkpt lat="48.58007" lon="7.11748">
        <ele>509.8</ele>
        <time>2021-08-01T09:32:33Z</time>
      </trkpt>
      <trkpt lat="48.58006" lon="7.11752">
        <ele>510</ele>
        <time>2021-08-01T09:32:34Z</time>
      </trkpt>
      <trkpt lat="48.58004" lon="7.11756">
        <ele>510.2</ele>
        <time>2021-08-01T09:32:35Z</time>
      </trkpt>
      <trkpt lat="48.58001" lon="7.11762">
        <ele>510.5</ele>
        <time>2021-08-01T09:32:37Z</time>
      </trkpt>
      <trkpt lat="48.58001" lon="7.11764">
        <ele>510.6</ele>
        <time>2021-08-01T09:32:38Z</time>
      </trkpt>
      <trkpt lat="48.58" lon="7.11766">
        <ele>510.6</ele>
        <time>2021-08-01T09:32:39Z</time>
      </trkpt>
      <trkpt lat="48.57999" lon="7.11768">
        <ele>510.7</ele>
        <time>2021-08-01T09:32:40Z</time>
      </trkpt>
      <trkpt lat="48.57997" lon="7.11775">
        <ele>511</ele>
        <time>2021-08-01T09:32:42Z</time>
      </trkpt>
      <trkpt lat="48.57996" lon="7.11776">
        <ele>511</ele>
        <time>2021-08-01T09:32:43Z</time>
      </trkpt>
      <trkpt lat="48.57996" lon="7.11778">
        <ele>511.1</ele>
        <time>2021-08-01T09:32:44Z</time>
      </trkpt>
      <trkpt lat="48.57996" lon="7.11781">
        <ele>511.2</ele>
        <time>2021-08-01T09:32:45Z</time>
      </trkpt>
      <trkpt lat="48.57995" lon="7.11783">
        <ele>511.2</ele>
        <time>2021-08-01T09:32:46Z</time>
      </trkpt>
      <trkpt lat="48.57996" lon="7.11788">
        <ele>511.4</ele>
        <time>2021-08-01T09:32:47Z</time>
      </trkpt>
      <trkpt lat="48.57996" lon="7.11789">
        <ele>511.4</ele>
        <time>2021-08-01T09:32:48Z</time>
      </trkpt>
      <trkpt lat="48.57995" lon="7.11793">
        <ele>511.5</ele>
        <time>2021-08-01T09:32:49Z</time>
      </trkpt>
      <trkpt lat="48.57994" lon="7.11795">
        <ele>511.6</ele>
        <time>2021-08-01T09:32:51Z</time>
      </trkpt>
      <trkpt lat="48.57993" lon="7.11797">
        <ele>511.7</ele>
        <time>2021-08-01T09:32:52Z</time>
      </trkpt>
      <trkpt lat="48.57992" lon="7.11799">
        <ele>511.7</ele>
        <time>2021-08-01T09:32:53Z</time>
      </trkpt>
      <trkpt lat="48.5799" lon="7.11803">
        <ele>511.8</ele>
        <time>2021-08-01T09:32:55Z</time>
      </trkpt>
      <trkpt lat="48.57989" lon="7.11807">
        <ele>512</ele>
        <time>2021-08-01T09:32:57Z</time>
      </trkpt>
      <trkpt lat="48.57989" lon="7.11807">
        <ele>512</ele>
        <time>2021-08-01T09:32:58Z</time>
      </trkpt>
      <trkpt lat="48.57988" lon="7.11812">
        <ele>512.1</ele>
        <time>2021-08-01T09:33:00Z</time>
      </trkpt>
      <trkpt lat="48.57988" lon="7.11821">
        <ele>512.2</ele>
        <time>2021-08-01T09:33:02Z</time>
      </trkpt>
      <trkpt lat="48.57987" lon="7.11826">
        <ele>512.3</ele>
        <time>2021-08-01T09:33:03Z</time>
      </trkpt>
      <trkpt lat="48.57986" lon="7.11831">
        <ele>512.4</ele>
        <time>2021-08-01T09:33:04Z</time>
      </trkpt>
      <trkpt lat="48.57984" lon="7.11839">
        <ele>512.5</ele>
        <time>2021-08-01T09:33:06Z</time>
      </trkpt>
      <trkpt lat="48.57984" lon="7.11844">
        <ele>512.6</ele>
        <time>2021-08-01T09:33:07Z</time>
      </trkpt>
      <trkpt lat="48.57982" lon="7.11852">
        <ele>512.7</ele>
        <time>2021-08-01T09:33:09Z</time>
      </trkpt>
      <trkpt lat="48.57981" lon="7.11856">
        <ele>512.8</ele>
        <time>2021-08-01T09:33:10Z</time>
      </trkpt>
      <trkpt lat="48.5798" lon="7.1186">
        <ele>512.9</ele>
        <time>2021-08-01T09:33:11Z</time>
      </trkpt>
      <trkpt lat="48.57979" lon="7.11867">
        <ele>513</ele>
        <time>2021-08-01T09:33:13Z</time>
      </trkpt>
      <trkpt lat="48.57979" lon="7.11873">
        <ele>513.2</ele>
        <time>2021-08-01T09:33:14Z</time>
      </trkpt>
      <trkpt lat="48.57979" lon="7.11875">
        <ele>513.2</ele>
        <time>2021-08-01T09:33:15Z</time>
      </trkpt>
      <trkpt lat="48.57978" lon="7.11881">
        <ele>513.3</ele>
        <time>2021-08-01T09:33:16Z</time>
      </trkpt>
      <trkpt lat="48.57977" lon="7.11883">
        <ele>513.3</ele>
        <time>2021-08-01T09:33:17Z</time>
      </trkpt>
      <trkpt lat="48.57977" lon="7.11889">
        <ele>513.5</ele>
        <time>2021-08-01T09:33:19Z</time>
      </trkpt>
      <trkpt lat="48.57977" lon="7.11893">
        <ele>513.6</ele>
        <time>2021-08-01T09:33:20Z</time>
      </trkpt>
      <trkpt lat="48.57977" lon="7.11897">
        <ele>513.6</ele>
        <time>2021-08-01T09:33:21Z</time>
      </trkpt>
      <trkpt lat="48.57977" lon="7.11899">
        <ele>513.7</ele>
        <time>2021-08-01T09:33:23Z</time>
      </trkpt>
      <trkpt lat="48.57979" lon="7.11903">
        <ele>513.8</ele>
        <time>2021-08-01T09:33:24Z</time>
      </trkpt>
      <trkpt lat="48.57981" lon="7.11908">
        <ele>513.9</ele>
        <time>2021-08-01T09:33:26Z</time>
      </trkpt>
      <trkpt lat="48.57981" lon="7.11913">
        <ele>514.1</ele>
        <time>2021-08-01T09:33:27Z</time>
      </trkpt>
      <trkpt lat="48.57981" lon="7.11915">
        <ele>514.1</ele>
        <time>2021-08-01T09:33:28Z</time>
      </trkpt>
      <trkpt lat="48.57981" lon="7.1192">
        <ele>514.2</ele>
        <time>2021-08-01T09:33:29Z</time>
      </trkpt>
      <trkpt lat="48.57981" lon="7.11928">
        <ele>514.5</ele>
        <time>2021-08-01T09:33:31Z</time>
      </trkpt>
      <trkpt lat="48.57982" lon="7.11934">
        <ele>514.7</ele>
        <time>2021-08-01T09:33:32Z</time>
      </trkpt>
      <trkpt lat="48.57981" lon="7.11942">
        <ele>515</ele>
        <time>2021-08-01T09:33:34Z</time>
      </trkpt>
      <trkpt lat="48.5798" lon="7.11948">
        <ele>515.1</ele>
        <time>2021-08-01T09:33:36Z</time>
      </trkpt>
      <trkpt lat="48.57979" lon="7.11949">
        <ele>515.2</ele>
        <time>2021-08-01T09:33:37Z</time>
      </trkpt>
      <trkpt lat="48.57978" lon="7.11951">
        <ele>515.3</ele>
        <time>2021-08-01T09:33:38Z</time>
      </trkpt>
      <trkpt lat="48.57976" lon="7.11953">
        <ele>515.4</ele>
        <time>2021-08-01T09:33:39Z</time>
      </trkpt>
      <trkpt lat="48.57975" lon="7.11954">
        <ele>515.4</ele>
        <time>2021-08-01T09:33:40Z</time>
      </trkpt>
      <trkpt lat="48.57974" lon="7.11959">
        <ele>515.5</ele>
        <time>2021-08-01T09:33:42Z</time>
      </trkpt>
      <trkpt lat="48.57973" lon="7.11961">
        <ele>515.5</ele>
        <time>2021-08-01T09:33:43Z</time>
      </trkpt>
      <trkpt lat="48.57973" lon="7.11963">
        <ele>515.6</ele>
        <time>2021-08-01T09:33:44Z</time>
      </trkpt>
      <trkpt lat="48.57971" lon="7.11969">
        <ele>515.7</ele>
        <time>2021-08-01T09:33:46Z</time>
      </trkpt>
      <trkpt lat="48.57971" lon="7.11971">
        <ele>515.8</ele>
        <time>2021-08-01T09:33:47Z</time>
      </trkpt>
      <trkpt lat="48.5797" lon="7.11974">
        <ele>515.8</ele>
        <time>2021-08-01T09:33:48Z</time>
      </trkpt>
      <trkpt lat="48.5797" lon="7.11977">
        <ele>515.9</ele>
        <time>2021-08-01T09:33:49Z</time>
      </trkpt>
      <trkpt lat="48.57969" lon="7.11984">
        <ele>516.1</ele>
        <time>2021-08-01T09:33:51Z</time>
      </trkpt>
      <trkpt lat="48.57968" lon="7.11988">
        <ele>516.2</ele>
        <time>2021-08-01T09:33:52Z</time>
      </trkpt>
      <trkpt lat="48.57967" lon="7.11993">
        <ele>516.4</ele>
        <time>2021-08-01T09:33:54Z</time>
      </trkpt>
      <trkpt lat="48.57967" lon="7.11996">
        <ele>516.5</ele>
        <time>2021-08-01T09:33:55Z</time>
      </trkpt>
      <trkpt lat="48.57966" lon="7.12001">
        <ele>516.7</ele>
        <time>2021-08-01T09:33:57Z</time>
      </trkpt>
      <trkpt lat="48.57966" lon="7.12006">
        <ele>516.9</ele>
        <time>2021-08-01T09:33:58Z</time>
      </trkpt>
      <trkpt lat="48.57965" lon="7.1201">
        <ele>517</ele>
        <time>2021-08-01T09:33:59Z</time>
      </trkpt>
      <trkpt lat="48.57964" lon="7.12015">
        <ele>517.3</ele>
        <time>2021-08-01T09:34:01Z</time>
      </trkpt>
      <trkpt lat="48.57963" lon="7.12017">
        <ele>517.4</ele>
        <time>2021-08-01T09:34:02Z</time>
      </trkpt>
      <trkpt lat="48.57964" lon="7.1202">
        <ele>517.5</ele>
        <time>2021-08-01T09:34:04Z</time>
      </trkpt>
      <trkpt lat="48.57963" lon="7.12024">
        <ele>517.8</ele>
        <time>2021-08-01T09:34:06Z</time>
      </trkpt>
      <trkpt lat="48.57962" lon="7.12026">
        <ele>517.8</ele>
        <time>2021-08-01T09:34:07Z</time>
      </trkpt>
      <trkpt lat="48.57959" lon="7.12031">
        <ele>518.2</ele>
        <time>2021-08-01T09:34:09Z</time>
      </trkpt>
      <trkpt lat="48.57958" lon="7.12033">
        <ele>518.3</ele>
        <time>2021-08-01T09:34:11Z</time>
      </trkpt>
      <trkpt lat="48.57957" lon="7.12035">
        <ele>518.4</ele>
        <time>2021-08-01T09:34:12Z</time>
      </trkpt>
      <trkpt lat="48.57957" lon="7.12042">
        <ele>518.8</ele>
        <time>2021-08-01T09:34:14Z</time>
      </trkpt>
      <trkpt lat="48.57957" lon="7.12046">
        <ele>519</ele>
        <time>2021-08-01T09:34:15Z</time>
      </trkpt>
      <trkpt lat="48.57957" lon="7.12052">
        <ele>519.2</ele>
        <time>2021-08-01T09:34:17Z</time>
      </trkpt>
      <trkpt lat="48.57957" lon="7.12054">
        <ele>519.3</ele>
        <time>2021-08-01T09:34:18Z</time>
      </trkpt>
      <trkpt lat="48.57957" lon="7.12057">
        <ele>519.3</ele>
        <time>2021-08-01T09:34:19Z</time>
      </trkpt>
      <trkpt lat="48.57954" lon="7.1206">
        <ele>519.4</ele>
        <time>2021-08-01T09:34:21Z</time>
      </trkpt>
      <trkpt lat="48.57951" lon="7.12062">
        <ele>519.4</ele>
        <time>2021-08-01T09:34:22Z</time>
      </trkpt>
      <trkpt lat="48.57948" lon="7.12064">
        <ele>519.5</ele>
        <time>2021-08-01T09:34:23Z</time>
      </trkpt>
      <trkpt lat="48.57944" lon="7.12067">
        <ele>519.6</ele>
        <time>2021-08-01T09:34:25Z</time>
      </trkpt>
      <trkpt lat="48.57938" lon="7.12071">
        <ele>519.6</ele>
        <time>2021-08-01T09:34:27Z</time>
      </trkpt>
      <trkpt lat="48.57935" lon="7.12074">
        <ele>519.6</ele>
        <time>2021-08-01T09:34:28Z</time>
      </trkpt>
      <trkpt lat="48.57933" lon="7.12076">
        <ele>519.7</ele>
        <time>2021-08-01T09:34:29Z</time>
      </trkpt>
      <trkpt lat="48.57932" lon="7.12077">
        <ele>519.7</ele>
        <time>2021-08-01T09:34:30Z</time>
      </trkpt>
      <trkpt lat="48.5793" lon="7.12079">
        <ele>519.7</ele>
        <time>2021-08-01T09:34:31Z</time>
      </trkpt>
      <trkpt lat="48.57928" lon="7.12083">
        <ele>519.7</ele>
        <time>2021-08-01T09:34:33Z</time>
      </trkpt>
      <trkpt lat="48.57926" lon="7.12086">
        <ele>519.7</ele>
        <time>2021-08-01T09:34:34Z</time>
      </trkpt>
      <trkpt lat="48.57923" lon="7.12089">
        <ele>519.7</ele>
        <time>2021-08-01T09:34:36Z</time>
      </trkpt>
      <trkpt lat="48.57921" lon="7.12093">
        <ele>520</ele>
        <time>2021-08-01T09:34:37Z</time>
      </trkpt>
      <trkpt lat="48.57921" lon="7.12094">
        <ele>520.1</ele>
        <time>2021-08-01T09:34:38Z</time>
      </trkpt>
      <trkpt lat="48.57918" lon="7.12097">
        <ele>520.2</ele>
        <time>2021-08-01T09:34:39Z</time>
      </trkpt>
      <trkpt lat="48.57917" lon="7.12099">
        <ele>520.3</ele>
        <time>2021-08-01T09:34:40Z</time>
      </trkpt>
      <trkpt lat="48.57916" lon="7.12101">
        <ele>520.4</ele>
        <time>2021-08-01T09:34:41Z</time>
      </trkpt>
      <trkpt lat="48.57913" lon="7.12105">
        <ele>520.6</ele>
        <time>2021-08-01T09:34:43Z</time>
      </trkpt>
      <trkpt lat="48.5791" lon="7.12108">
        <ele>520.9</ele>
        <time>2021-08-01T09:34:44Z</time>
      </trkpt>
      <trkpt lat="48.57908" lon="7.12112">
        <ele>521.1</ele>
        <time>2021-08-01T09:34:45Z</time>
      </trkpt>
      <trkpt lat="48.57906" lon="7.12115">
        <ele>521.4</ele>
        <time>2021-08-01T09:34:47Z</time>
      </trkpt>
      <trkpt lat="48.57902" lon="7.1212">
        <ele>521.7</ele>
        <time>2021-08-01T09:34:48Z</time>
      </trkpt>
      <trkpt lat="48.579" lon="7.12126">
        <ele>522.1</ele>
        <time>2021-08-01T09:34:50Z</time>
      </trkpt>
      <trkpt lat="48.57899" lon="7.12129">
        <ele>522.3</ele>
        <time>2021-08-01T09:34:51Z</time>
      </trkpt>
      <trkpt lat="48.57898" lon="7.12131">
        <ele>522.4</ele>
        <time>2021-08-01T09:34:52Z</time>
      </trkpt>
      <trkpt lat="48.57897" lon="7.12135">
        <ele>522.7</ele>
        <time>2021-08-01T09:34:53Z</time>
      </trkpt>
      <trkpt lat="48.57893" lon="7.12139">
        <ele>523.1</ele>
        <time>2021-08-01T09:34:55Z</time>
      </trkpt>
      <trkpt lat="48.57892" lon="7.1214">
        <ele>523.2</ele>
        <time>2021-08-01T09:34:56Z</time>
      </trkpt>
      <trkpt lat="48.57891" lon="7.12141">
        <ele>523.4</ele>
        <time>2021-08-01T09:34:57Z</time>
      </trkpt>
      <trkpt lat="48.57889" lon="7.12145">
        <ele>523.7</ele>
        <time>2021-08-01T09:34:58Z</time>
      </trkpt>
      <trkpt lat="48.57888" lon="7.12146">
        <ele>523.8</ele>
        <time>2021-08-01T09:34:59Z</time>
      </trkpt>
      <trkpt lat="48.57885" lon="7.12149">
        <ele>524.1</ele>
        <time>2021-08-01T09:35:00Z</time>
      </trkpt>
      <trkpt lat="48.57884" lon="7.12151">
        <ele>524.2</ele>
        <time>2021-08-01T09:35:01Z</time>
      </trkpt>
      <trkpt lat="48.57883" lon="7.12154">
        <ele>524.5</ele>
        <time>2021-08-01T09:35:02Z</time>
      </trkpt>
      <trkpt lat="48.57882" lon="7.12156">
        <ele>524.6</ele>
        <time>2021-08-01T09:35:03Z</time>
      </trkpt>
      <trkpt lat="48.57881" lon="7.12157">
        <ele>524.8</ele>
        <time>2021-08-01T09:35:04Z</time>
      </trkpt>
      <trkpt lat="48.57879" lon="7.12159">
        <ele>525</ele>
        <time>2021-08-01T09:35:05Z</time>
      </trkpt>
      <trkpt lat="48.57877" lon="7.12162">
        <ele>525.3</ele>
        <time>2021-08-01T09:35:07Z</time>
      </trkpt>
      <trkpt lat="48.57875" lon="7.12163">
        <ele>525.5</ele>
        <time>2021-08-01T09:35:08Z</time>
      </trkpt>
      <trkpt lat="48.57874" lon="7.12164">
        <ele>525.7</ele>
        <time>2021-08-01T09:35:09Z</time>
      </trkpt>
      <trkpt lat="48.57873" lon="7.12164">
        <ele>525.8</ele>
        <time>2021-08-01T09:35:10Z</time>
      </trkpt>
      <trkpt lat="48.57872" lon="7.12163">
        <ele>525.9</ele>
        <time>2021-08-01T09:35:11Z</time>
      </trkpt>
      <trkpt lat="48.57872" lon="7.12162">
        <ele>526</ele>
        <time>2021-08-01T09:35:12Z</time>
      </trkpt>
      <trkpt lat="48.57872" lon="7.12163">
        <ele>526</ele>
        <time>2021-08-01T09:35:13Z</time>
      </trkpt>
      <trkpt lat="48.57872" lon="7.12163">
        <ele>526.1</ele>
        <time>2021-08-01T09:35:15Z</time>
      </trkpt>
      <trkpt lat="48.57872" lon="7.12164">
        <ele>526.1</ele>
        <time>2021-08-01T09:35:16Z</time>
      </trkpt>
      <trkpt lat="48.57872" lon="7.12164">
        <ele>526.1</ele>
        <time>2021-08-01T09:35:17Z</time>
      </trkpt>
      <trkpt lat="48.57872" lon="7.12165">
        <ele>526.2</ele>
        <time>2021-08-01T09:35:18Z</time>
      </trkpt>
      <trkpt lat="48.57872" lon="7.12165">
        <ele>526.2</ele>
        <time>2021-08-01T09:35:19Z</time>
      </trkpt>
      <trkpt lat="48.57872" lon="7.12165">
        <ele>526.2</ele>
        <time>2021-08-01T09:35:20Z</time>
      </trkpt>
      <trkpt lat="48.57836" lon="7.12194">
        <ele>529.8</ele>
        <time>2021-08-01T09:35:55Z</time>
      </trkpt>
      <trkpt lat="48.57833" lon="7.12197">
        <ele>529.9</ele>
        <time>2021-08-01T09:35:56Z</time>
      </trkpt>
      <trkpt lat="48.5783" lon="7.12201">
        <ele>530.1</ele>
        <time>2021-08-01T09:35:57Z</time>
      </trkpt>
      <trkpt lat="48.57828" lon="7.12203">
        <ele>530.2</ele>
        <time>2021-08-01T09:35:58Z</time>
      </trkpt>
      <trkpt lat="48.57825" lon="7.12206">
        <ele>530.4</ele>
        <time>2021-08-01T09:35:59Z</time>
      </trkpt>
      <trkpt lat="48.57824" lon="7.12208">
        <ele>530.4</ele>
        <time>2021-08-01T09:36:00Z</time>
      </trkpt>
      <trkpt lat="48.57821" lon="7.12213">
        <ele>530.6</ele>
        <time>2021-08-01T09:36:02Z</time>
      </trkpt>
      <trkpt lat="48.57818" lon="7.12217">
        <ele>530.7</ele>
        <time>2021-08-01T09:36:03Z</time>
      </trkpt>
      <trkpt lat="48.57814" lon="7.12223">
        <ele>530.9</ele>
        <time>2021-08-01T09:36:05Z</time>
      </trkpt>
      <trkpt lat="48.57812" lon="7.12228">
        <ele>531.1</ele>
        <time>2021-08-01T09:36:07Z</time>
      </trkpt>
      <trkpt lat="48.5781" lon="7.12233">
        <ele>531.2</ele>
        <time>2021-08-01T09:36:09Z</time>
      </trkpt>
      <trkpt lat="48.5781" lon="7.12235">
        <ele>531.2</ele>
        <time>2021-08-01T09:36:10Z</time>
      </trkpt>
      <trkpt lat="48.5781" lon="7.12237">
        <ele>531.2</ele>
        <time>2021-08-01T09:36:11Z</time>
      </trkpt>
      <trkpt lat="48.57808" lon="7.12241">
        <ele>531.3</ele>
        <time>2021-08-01T09:36:12Z</time>
      </trkpt>
      <trkpt lat="48.57807" lon="7.12243">
        <ele>531.3</ele>
        <time>2021-08-01T09:36:13Z</time>
      </trkpt>
      <trkpt lat="48.57805" lon="7.12247">
        <ele>531.4</ele>
        <time>2021-08-01T09:36:14Z</time>
      </trkpt>
      <trkpt lat="48.57804" lon="7.12251">
        <ele>531.4</ele>
        <time>2021-08-01T09:36:16Z</time>
      </trkpt>
      <trkpt lat="48.57803" lon="7.12252">
        <ele>531.4</ele>
        <time>2021-08-01T09:36:17Z</time>
      </trkpt>
      <trkpt lat="48.57801" lon="7.12254">
        <ele>531.5</ele>
        <time>2021-08-01T09:36:18Z</time>
      </trkpt>
      <trkpt lat="48.57799" lon="7.12254">
        <ele>531.5</ele>
        <time>2021-08-01T09:36:19Z</time>
      </trkpt>
      <trkpt lat="48.57798" lon="7.12255">
        <ele>531.6</ele>
        <time>2021-08-01T09:36:20Z</time>
      </trkpt>
      <trkpt lat="48.57796" lon="7.12256">
        <ele>531.6</ele>
        <time>2021-08-01T09:36:21Z</time>
      </trkpt>
      <trkpt lat="48.57795" lon="7.12257">
        <ele>531.6</ele>
        <time>2021-08-01T09:36:22Z</time>
      </trkpt>
      <trkpt lat="48.57794" lon="7.12258">
        <ele>531.7</ele>
        <time>2021-08-01T09:36:23Z</time>
      </trkpt>
      <trkpt lat="48.5779" lon="7.12261">
        <ele>531.8</ele>
        <time>2021-08-01T09:36:24Z</time>
      </trkpt>
      <trkpt lat="48.57789" lon="7.12262">
        <ele>531.8</ele>
        <time>2021-08-01T09:36:25Z</time>
      </trkpt>
      <trkpt lat="48.57785" lon="7.12265">
        <ele>531.9</ele>
        <time>2021-08-01T09:36:27Z</time>
      </trkpt>
      <trkpt lat="48.57782" lon="7.12266">
        <ele>532</ele>
        <time>2021-08-01T09:36:28Z</time>
      </trkpt>
      <trkpt lat="48.5778" lon="7.12267">
        <ele>532.1</ele>
        <time>2021-08-01T09:36:29Z</time>
      </trkpt>
      <trkpt lat="48.57775" lon="7.12267">
        <ele>532.3</ele>
        <time>2021-08-01T09:36:31Z</time>
      </trkpt>
      <trkpt lat="48.5777" lon="7.12267">
        <ele>532.6</ele>
        <time>2021-08-01T09:36:33Z</time>
      </trkpt>
      <trkpt lat="48.57766" lon="7.12268">
        <ele>532.8</ele>
        <time>2021-08-01T09:36:34Z</time>
      </trkpt>
      <trkpt lat="48.57765" lon="7.12268">
        <ele>532.9</ele>
        <time>2021-08-01T09:36:35Z</time>
      </trkpt>
      <trkpt lat="48.5776" lon="7.12269">
        <ele>533.3</ele>
        <time>2021-08-01T09:36:37Z</time>
      </trkpt>
      <trkpt lat="48.57757" lon="7.1227">
        <ele>533.5</ele>
        <time>2021-08-01T09:36:38Z</time>
      </trkpt>
      <trkpt lat="48.57756" lon="7.12271">
        <ele>533.6</ele>
        <time>2021-08-01T09:36:39Z</time>
      </trkpt>
      <trkpt lat="48.57754" lon="7.12274">
        <ele>533.8</ele>
        <time>2021-08-01T09:36:40Z</time>
      </trkpt>
      <trkpt lat="48.57751" lon="7.12277">
        <ele>534.1</ele>
        <time>2021-08-01T09:36:41Z</time>
      </trkpt>
      <trkpt lat="48.5775" lon="7.12278">
        <ele>534.2</ele>
        <time>2021-08-01T09:36:42Z</time>
      </trkpt>
      <trkpt lat="48.57747" lon="7.12283">
        <ele>534.5</ele>
        <time>2021-08-01T09:36:44Z</time>
      </trkpt>
      <trkpt lat="48.57746" lon="7.12284">
        <ele>534.6</ele>
        <time>2021-08-01T09:36:45Z</time>
      </trkpt>
      <trkpt lat="48.57745" lon="7.12285">
        <ele>534.7</ele>
        <time>2021-08-01T09:36:46Z</time>
      </trkpt>
      <trkpt lat="48.57742" lon="7.12286">
        <ele>535</ele>
        <time>2021-08-01T09:36:47Z</time>
      </trkpt>
      <trkpt lat="48.57741" lon="7.12287">
        <ele>535.1</ele>
        <time>2021-08-01T09:36:48Z</time>
      </trkpt>
      <trkpt lat="48.57738" lon="7.12289">
        <ele>535.4</ele>
        <time>2021-08-01T09:36:50Z</time>
      </trkpt>
      <trkpt lat="48.57736" lon="7.1229">
        <ele>535.5</ele>
        <time>2021-08-01T09:36:51Z</time>
      </trkpt>
      <trkpt lat="48.57735" lon="7.12292">
        <ele>535.7</ele>
        <time>2021-08-01T09:36:52Z</time>
      </trkpt>
      <trkpt lat="48.57734" lon="7.12296">
        <ele>535.9</ele>
        <time>2021-08-01T09:36:54Z</time>
      </trkpt>
      <trkpt lat="48.57732" lon="7.12298">
        <ele>536.1</ele>
        <time>2021-08-01T09:36:55Z</time>
      </trkpt>
      <trkpt lat="48.57731" lon="7.12299">
        <ele>536.2</ele>
        <time>2021-08-01T09:36:56Z</time>
      </trkpt>
      <trkpt lat="48.5773" lon="7.12299">
        <ele>536.2</ele>
        <time>2021-08-01T09:36:58Z</time>
      </trkpt>
      <trkpt lat="48.5773" lon="7.12299">
        <ele>536.3</ele>
        <time>2021-08-01T09:36:59Z</time>
      </trkpt>
      <trkpt lat="48.5773" lon="7.12299">
        <ele>536.3</ele>
        <time>2021-08-01T09:37:00Z</time>
      </trkpt>
      <trkpt lat="48.5773" lon="7.12299">
        <ele>536.3</ele>
        <time>2021-08-01T09:37:01Z</time>
      </trkpt>
      <trkpt lat="48.5773" lon="7.12299">
        <ele>536.3</ele>
        <time>2021-08-01T09:37:02Z</time>
      </trkpt>
      <trkpt lat="48.57729" lon="7.12299">
        <ele>536.3</ele>
        <time>2021-08-01T09:37:04Z</time>
      </trkpt>
      <trkpt lat="48.57729" lon="7.12299">
        <ele>536.3</ele>
        <time>2021-08-01T09:37:05Z</time>
      </trkpt>
      <trkpt lat="48.57729" lon="7.12299">
        <ele>536.4</ele>
        <time>2021-08-01T09:37:06Z</time>
      </trkpt>
      <trkpt lat="48.57674" lon="7.12405">
        <ele>545.5</ele>
        <time>2021-08-01T09:38:29Z</time>
      </trkpt>
      <trkpt lat="48.57673" lon="7.12407">
        <ele>545.6</ele>
        <time>2021-08-01T09:38:30Z</time>
      </trkpt>
      <trkpt lat="48.57672" lon="7.12408">
        <ele>545.8</ele>
        <time>2021-08-01T09:38:31Z</time>
      </trkpt>
      <trkpt lat="48.5767" lon="7.1241">
        <ele>546</ele>
        <time>2021-08-01T09:38:32Z</time>
      </trkpt>
      <trkpt lat="48.57668" lon="7.12411">
        <ele>546.2</ele>
        <time>2021-08-01T09:38:34Z</time>
      </trkpt>
      <trkpt lat="48.57666" lon="7.12411">
        <ele>546.4</ele>
        <time>2021-08-01T09:38:35Z</time>
      </trkpt>
      <trkpt lat="48.57665" lon="7.12411">
        <ele>546.6</ele>
        <time>2021-08-01T09:38:37Z</time>
      </trkpt>
      <trkpt lat="48.57664" lon="7.12412">
        <ele>546.6</ele>
        <time>2021-08-01T09:38:38Z</time>
      </trkpt>
      <trkpt lat="48.57664" lon="7.12412">
        <ele>546.7</ele>
        <time>2021-08-01T09:38:39Z</time>
      </trkpt>
      <trkpt lat="48.57663" lon="7.12412">
        <ele>546.7</ele>
        <time>2021-08-01T09:38:40Z</time>
      </trkpt>
      <trkpt lat="48.57663" lon="7.12412">
        <ele>546.8</ele>
        <time>2021-08-01T09:38:41Z</time>
      </trkpt>
      <trkpt lat="48.57651" lon="7.12462">
        <ele>550.1</ele>
        <time>2021-08-01T09:39:03Z</time>
      </trkpt>
      <trkpt lat="48.5765" lon="7.12467">
        <ele>550.3</ele>
        <time>2021-08-01T09:39:04Z</time>
      </trkpt>
      <trkpt lat="48.57648" lon="7.12471">
        <ele>550.4</ele>
        <time>2021-08-01T09:39:06Z</time>
      </trkpt>
      <trkpt lat="48.57648" lon="7.12472">
        <ele>550.4</ele>
        <time>2021-08-01T09:39:07Z</time>
      </trkpt>
      <trkpt lat="48.57647" lon="7.12474">
        <ele>550.5</ele>
        <time>2021-08-01T09:39:09Z</time>
      </trkpt>
      <trkpt lat="48.57646" lon="7.12475">
        <ele>550.5</ele>
        <time>2021-08-01T09:39:10Z</time>
      </trkpt>
      <trkpt lat="48.57646" lon="7.12476">
        <ele>550.5</ele>
        <time>2021-08-01T09:39:11Z</time>
      </trkpt>
      <trkpt lat="48.57646" lon="7.12477">
        <ele>550.6</ele>
        <time>2021-08-01T09:39:13Z</time>
      </trkpt>
      <trkpt lat="48.57646" lon="7.12477">
        <ele>550.6</ele>
        <time>2021-08-01T09:39:15Z</time>
      </trkpt>
      <trkpt lat="48.57646" lon="7.12478">
        <ele>550.6</ele>
        <time>2021-08-01T09:39:16Z</time>
      </trkpt>
      <trkpt lat="48.57646" lon="7.12478">
        <ele>550.6</ele>
        <time>2021-08-01T09:39:17Z</time>
      </trkpt>
      <trkpt lat="48.57617" lon="7.12512">
        <ele>551.7</ele>
        <time>2021-08-01T09:40:13Z</time>
      </trkpt>
      <trkpt lat="48.57614" lon="7.12514">
        <ele>551.8</ele>
        <time>2021-08-01T09:40:14Z</time>
      </trkpt>
      <trkpt lat="48.57612" lon="7.12517">
        <ele>551.9</ele>
        <time>2021-08-01T09:40:15Z</time>
      </trkpt>
      <trkpt lat="48.5761" lon="7.1252">
        <ele>552</ele>
        <time>2021-08-01T09:40:16Z</time>
      </trkpt>
      <trkpt lat="48.57606" lon="7.12525">
        <ele>552.3</ele>
        <time>2021-08-01T09:40:18Z</time>
      </trkpt>
      <trkpt lat="48.57605" lon="7.12529">
        <ele>552.4</ele>
        <time>2021-08-01T09:40:19Z</time>
      </trkpt>
      <trkpt lat="48.57602" lon="7.12535">
        <ele>552.7</ele>
        <time>2021-08-01T09:40:21Z</time>
      </trkpt>
      <trkpt lat="48.576" lon="7.12537">
        <ele>552.8</ele>
        <time>2021-08-01T09:40:22Z</time>
      </trkpt>
      <trkpt lat="48.57599" lon="7.12537">
        <ele>552.9</ele>
        <time>2021-08-01T09:40:23Z</time>
      </trkpt>
      <trkpt lat="48.57595" lon="7.12537">
        <ele>553.1</ele>
        <time>2021-08-01T09:40:24Z</time>
      </trkpt>
      <trkpt lat="48.57592" lon="7.12535">
        <ele>553.3</ele>
        <time>2021-08-01T09:40:26Z</time>
      </trkpt>
      <trkpt lat="48.57592" lon="7.12534">
        <ele>553.3</ele>
        <time>2021-08-01T09:40:27Z</time>
      </trkpt>
      <trkpt lat="48.57591" lon="7.12533">
        <ele>553.4</ele>
        <time>2021-08-01T09:40:28Z</time>
      </trkpt>
      <trkpt lat="48.5759" lon="7.12531">
        <ele>553.4</ele>
        <time>2021-08-01T09:40:30Z</time>
      </trkpt>
      <trkpt lat="48.5759" lon="7.1253">
        <ele>553.5</ele>
        <time>2021-08-01T09:40:31Z</time>
      </trkpt>
      <trkpt lat="48.57589" lon="7.12529">
        <ele>553.5</ele>
        <time>2021-08-01T09:40:32Z</time>
      </trkpt>
      <trkpt lat="48.57576" lon="7.12529">
        <ele>554.3</ele>
        <time>2021-08-01T09:40:42Z</time>
      </trkpt>
      <trkpt lat="48.57572" lon="7.1253">
        <ele>554.6</ele>
        <time>2021-08-01T09:40:43Z</time>
      </trkpt>
      <trkpt lat="48.57564" lon="7.12532">
        <ele>555.1</ele>
        <time>2021-08-01T09:40:45Z</time>
      </trkpt>
      <trkpt lat="48.57559" lon="7.12532">
        <ele>555.5</ele>
        <time>2021-08-01T09:40:46Z</time>
      </trkpt>
      <trkpt lat="48.57555" lon="7.1253">
        <ele>555.7</ele>
        <time>2021-08-01T09:40:47Z</time>
      </trkpt>
      <trkpt lat="48.57551" lon="7.12526">
        <ele>556</ele>
        <time>2021-08-01T09:40:49Z</time>
      </trkpt>
      <trkpt lat="48.57549" lon="7.12525">
        <ele>556.2</ele>
        <time>2021-08-01T09:40:50Z</time>
      </trkpt>
      <trkpt lat="48.57549" lon="7.12524">
        <ele>556.2</ele>
        <time>2021-08-01T09:40:51Z</time>
      </trkpt>
      <trkpt lat="48.57548" lon="7.12523">
        <ele>556.3</ele>
        <time>2021-08-01T09:40:52Z</time>
      </trkpt>
      <trkpt lat="48.57547" lon="7.12523">
        <ele>556.4</ele>
        <time>2021-08-01T09:40:53Z</time>
      </trkpt>
      <trkpt lat="48.57546" lon="7.12522">
        <ele>556.5</ele>
        <time>2021-08-01T09:40:55Z</time>
      </trkpt>
      <trkpt lat="48.57545" lon="7.12522">
        <ele>556.5</ele>
        <time>2021-08-01T09:40:56Z</time>
      </trkpt>
      <trkpt lat="48.57382" lon="7.12576">
        <ele>571.2</ele>
        <time>2021-08-01T09:43:03Z</time>
      </trkpt>
      <trkpt lat="48.57379" lon="7.12575">
        <ele>571.7</ele>
        <time>2021-08-01T09:43:04Z</time>
      </trkpt>
      <trkpt lat="48.57376" lon="7.12573">
        <ele>572.1</ele>
        <time>2021-08-01T09:43:05Z</time>
      </trkpt>
      <trkpt lat="48.57375" lon="7.12573">
        <ele>572.2</ele>
        <time>2021-08-01T09:43:06Z</time>
      </trkpt>
      <trkpt lat="48.57374" lon="7.12571">
        <ele>572.5</ele>
        <time>2021-08-01T09:43:08Z</time>
      </trkpt>
      <trkpt lat="48.57373" lon="7.1257">
        <ele>572.7</ele>
        <time>2021-08-01T09:43:09Z</time>
      </trkpt>
      <trkpt lat="48.57372" lon="7.12569">
        <ele>572.8</ele>
        <time>2021-08-01T09:43:10Z</time>
      </trkpt>
      <trkpt lat="48.57371" lon="7.12568">
        <ele>572.9</ele>
        <time>2021-08-01T09:43:12Z</time>
      </trkpt>
      <trkpt lat="48.57371" lon="7.12568">
        <ele>573</ele>
        <time>2021-08-01T09:43:13Z</time>
      </trkpt>
      <trkpt lat="48.5737" lon="7.12568">
        <ele>573.1</ele>
        <time>2021-08-01T09:43:14Z</time>
      </trkpt>
      <trkpt lat="48.57278" lon="7.12651">
        <ele>580.7</ele>
        <time>2021-08-01T09:45:17Z</time>
      </trkpt>
      <trkpt lat="48.57276" lon="7.12653">
        <ele>580.8</ele>
        <time>2021-08-01T09:45:18Z</time>
      </trkpt>
      <trkpt lat="48.57274" lon="7.12656">
        <ele>580.8</ele>
        <time>2021-08-01T09:45:19Z</time>
      </trkpt>
      <trkpt lat="48.57271" lon="7.12659">
        <ele>580.9</ele>
        <time>2021-08-01T09:45:21Z</time>
      </trkpt>
      <trkpt lat="48.5727" lon="7.12664">
        <ele>581</ele>
        <time>2021-08-01T09:45:22Z</time>
      </trkpt>
      <trkpt lat="48.57269" lon="7.12665">
        <ele>581.1</ele>
        <time>2021-08-01T09:45:23Z</time>
      </trkpt>
      <trkpt lat="48.57268" lon="7.12669">
        <ele>581.2</ele>
        <time>2021-08-01T09:45:25Z</time>
      </trkpt>
      <trkpt lat="48.57268" lon="7.1267">
        <ele>581.2</ele>
        <time>2021-08-01T09:45:26Z</time>
      </trkpt>
      <trkpt lat="48.57268" lon="7.12672">
        <ele>581.3</ele>
        <time>2021-08-01T09:45:27Z</time>
      </trkpt>
      <trkpt lat="48.57268" lon="7.12674">
        <ele>581.3</ele>
        <time>2021-08-01T09:45:28Z</time>
      </trkpt>
      <trkpt lat="48.57268" lon="7.12675">
        <ele>581.3</ele>
        <time>2021-08-01T09:45:30Z</time>
      </trkpt>
      <trkpt lat="48.57268" lon="7.12675">
        <ele>581.3</ele>
        <time>2021-08-01T09:45:31Z</time>
      </trkpt>
      <trkpt lat="48.57268" lon="7.12676">
        <ele>581.4</ele>
        <time>2021-08-01T09:45:32Z</time>
      </trkpt>
      <trkpt lat="48.57268" lon="7.12676">
        <ele>581.4</ele>
        <time>2021-08-01T09:45:34Z</time>
      </trkpt>
      <trkpt lat="48.57268" lon="7.12675">
        <ele>581.4</ele>
        <time>2021-08-01T09:45:35Z</time>
      </trkpt>
      <trkpt lat="48.57268" lon="7.12675">
        <ele>581.4</ele>
        <time>2021-08-01T09:45:36Z</time>
      </trkpt>
      <trkpt lat="48.57268" lon="7.12675">
        <ele>581.4</ele>
        <time>2021-08-01T09:45:38Z</time>
      </trkpt>
      <trkpt lat="48.57262" lon="7.12705">
        <ele>582.3</ele>
        <time>2021-08-01T09:47:23Z</time>
      </trkpt>
      <trkpt lat="48.57258" lon="7.1271">
        <ele>582.6</ele>
        <time>2021-08-01T09:47:25Z</time>
      </trkpt>
      <trkpt lat="48.57257" lon="7.12714">
        <ele>582.7</ele>
        <time>2021-08-01T09:47:26Z</time>
      </trkpt>
      <trkpt lat="48.57256" lon="7.12718">
        <ele>582.9</ele>
        <time>2021-08-01T09:47:28Z</time>
      </trkpt>
      <trkpt lat="48.57256" lon="7.1272">
        <ele>582.9</ele>
        <time>2021-08-01T09:47:29Z</time>
      </trkpt>
      <trkpt lat="48.57257" lon="7.12721">
        <ele>583</ele>
        <time>2021-08-01T09:47:30Z</time>
      </trkpt>
      <trkpt lat="48.57257" lon="7.12722">
        <ele>583</ele>
        <time>2021-08-01T09:47:31Z</time>
      </trkpt>
      <trkpt lat="48.57256" lon="7.12724">
        <ele>583.1</ele>
        <time>2021-08-01T09:47:33Z</time>
      </trkpt>
      <trkpt lat="48.57256" lon="7.12725">
        <ele>583.1</ele>
        <time>2021-08-01T09:47:34Z</time>
      </trkpt>
      <trkpt lat="48.57255" lon="7.12725">
        <ele>583.2</ele>
        <time>2021-08-01T09:47:35Z</time>
      </trkpt>
      <trkpt lat="48.57251" lon="7.12727">
        <ele>583.4</ele>
        <time>2021-08-01T09:47:37Z</time>
      </trkpt>
      <trkpt lat="48.57251" lon="7.12727">
        <ele>583.4</ele>
        <time>2021-08-01T09:47:37Z</time>
      </trkpt>
      <trkpt lat="48.57249" lon="7.12728">
        <ele>583.5</ele>
        <time>2021-08-01T09:47:38Z</time>
      </trkpt>
      <trkpt lat="48.57244" lon="7.1273">
        <ele>583.7</ele>
        <time>2021-08-01T09:47:40Z</time>
      </trkpt>
      <trkpt lat="48.57241" lon="7.12731">
        <ele>583.8</ele>
        <time>2021-08-01T09:47:41Z</time>
      </trkpt>
      <trkpt lat="48.57237" lon="7.12732">
        <ele>583.9</ele>
        <time>2021-08-01T09:47:43Z</time>
      </trkpt>
      <trkpt lat="48.57234" lon="7.12735">
        <ele>584</ele>
        <time>2021-08-01T09:47:44Z</time>
      </trkpt>
      <trkpt lat="48.57233" lon="7.12735">
        <ele>584</ele>
        <time>2021-08-01T09:47:45Z</time>
      </trkpt>
      <trkpt lat="48.57231" lon="7.12735">
        <ele>584</ele>
        <time>2021-08-01T09:47:46Z</time>
      </trkpt>
      <trkpt lat="48.5723" lon="7.12735">
        <ele>584</ele>
        <time>2021-08-01T09:47:47Z</time>
      </trkpt>
      <trkpt lat="48.5723" lon="7.12734">
        <ele>584</ele>
        <time>2021-08-01T09:47:49Z</time>
      </trkpt>
      <trkpt lat="48.57228" lon="7.12736">
        <ele>584</ele>
        <time>2021-08-01T09:47:51Z</time>
      </trkpt>
      <trkpt lat="48.57226" lon="7.12737">
        <ele>584</ele>
        <time>2021-08-01T09:47:52Z</time>
      </trkpt>
      <trkpt lat="48.57223" lon="7.12738">
        <ele>583.9</ele>
        <time>2021-08-01T09:47:54Z</time>
      </trkpt>
      <trkpt lat="48.57219" lon="7.12738">
        <ele>583.9</ele>
        <time>2021-08-01T09:47:55Z</time>
      </trkpt>
      <trkpt lat="48.57215" lon="7.12739">
        <ele>583.7</ele>
        <time>2021-08-01T09:47:57Z</time>
      </trkpt>
      <trkpt lat="48.57213" lon="7.12742">
        <ele>583.6</ele>
        <time>2021-08-01T09:47:58Z</time>
      </trkpt>
      <trkpt lat="48.57207" lon="7.12749">
        <ele>583.2</ele>
        <time>2021-08-01T09:48:00Z</time>
      </trkpt>
      <trkpt lat="48.57198" lon="7.12761">
        <ele>582.3</ele>
        <time>2021-08-01T09:48:01Z</time>
      </trkpt>
      <trkpt lat="48.57188" lon="7.12772">
        <ele>581.6</ele>
        <time>2021-08-01T09:48:03Z</time>
      </trkpt>
      <trkpt lat="48.57179" lon="7.12782">
        <ele>581</ele>
        <time>2021-08-01T09:48:05Z</time>
      </trkpt>
      <trkpt lat="48.57171" lon="7.12794">
        <ele>580.5</ele>
        <time>2021-08-01T09:48:07Z</time>
      </trkpt>
      <trkpt lat="48.57163" lon="7.12805">
        <ele>580.1</ele>
        <time>2021-08-01T09:48:09Z</time>
      </trkpt>
      <trkpt lat="48.5716" lon="7.1281">
        <ele>580</ele>
        <time>2021-08-01T09:48:10Z</time>
      </trkpt>
      <trkpt lat="48.57152" lon="7.12819">
        <ele>579.8</ele>
        <time>2021-08-01T09:48:12Z</time>
      </trkpt>
      <trkpt lat="48.57148" lon="7.12823">
        <ele>579.7</ele>
        <time>2021-08-01T09:48:13Z</time>
      </trkpt>
      <trkpt lat="48.57145" lon="7.12825">
        <ele>579.7</ele>
        <time>2021-08-01T09:48:14Z</time>
      </trkpt>
      <trkpt lat="48.57141" lon="7.12827">
        <ele>579.6</ele>
        <time>2021-08-01T09:48:15Z</time>
      </trkpt>
      <trkpt lat="48.57138" lon="7.12828">
        <ele>579.6</ele>
        <time>2021-08-01T09:48:16Z</time>
      </trkpt>
      <trkpt lat="48.57136" lon="7.12829">
        <ele>579.6</ele>
        <time>2021-08-01T09:48:17Z</time>
      </trkpt>
      <trkpt lat="48.57131" lon="7.12835">
        <ele>579.5</ele>
        <time>2021-08-01T09:48:19Z</time>
      </trkpt>
      <trkpt lat="48.57128" lon="7.12838">
        <ele>579.5</ele>
        <time>2021-08-01T09:48:21Z</time>
      </trkpt>
      <trkpt lat="48.57127" lon="7.1284">
        <ele>579.5</ele>
        <time>2021-08-01T09:48:22Z</time>
      </trkpt>
      <trkpt lat="48.57119" lon="7.1285">
        <ele>579.5</ele>
        <time>2021-08-01T09:48:24Z</time>
      </trkpt>
      <trkpt lat="48.57118" lon="7.12852">
        <ele>579.5</ele>
        <time>2021-08-01T09:48:25Z</time>
      </trkpt>
      <trkpt lat="48.57116" lon="7.12855">
        <ele>579.5</ele>
        <time>2021-08-01T09:48:27Z</time>
      </trkpt>
      <trkpt lat="48.57041" lon="7.12991">
        <ele>577.9</ele>
        <time>2021-08-01T09:48:54Z</time>
      </trkpt>
      <trkpt lat="48.57036" lon="7.13004">
        <ele>577.9</ele>
        <time>2021-08-01T09:48:55Z</time>
      </trkpt>
      <trkpt lat="48.57031" lon="7.13019">
        <ele>578</ele>
        <time>2021-08-01T09:48:57Z</time>
      </trkpt>
      <trkpt lat="48.5702" lon="7.13043">
        <ele>578.2</ele>
        <time>2021-08-01T09:48:59Z</time>
      </trkpt>
      <trkpt lat="48.57018" lon="7.13047">
        <ele>578.2</ele>
        <time>2021-08-01T09:49:00Z</time>
      </trkpt>
      <trkpt lat="48.57015" lon="7.13051">
        <ele>578.3</ele>
        <time>2021-08-01T09:49:01Z</time>
      </trkpt>
      <trkpt lat="48.57014" lon="7.13052">
        <ele>578.3</ele>
        <time>2021-08-01T09:49:02Z</time>
      </trkpt>
      <trkpt lat="48.57013" lon="7.13053">
        <ele>578.3</ele>
        <time>2021-08-01T09:49:04Z</time>
      </trkpt>
      <trkpt lat="48.57008" lon="7.13065">
        <ele>578.6</ele>
        <time>2021-08-01T09:49:06Z</time>
      </trkpt>
      <trkpt lat="48.56966" lon="7.13102">
        <ele>579.7</ele>
        <time>2021-08-01T09:49:21Z</time>
      </trkpt>
      <trkpt lat="48.56964" lon="7.13106">
        <ele>579.8</ele>
        <time>2021-08-01T09:49:22Z</time>
      </trkpt>
      <trkpt lat="48.56962" lon="7.13111">
        <ele>580</ele>
        <time>2021-08-01T09:49:23Z</time>
      </trkpt>
      <trkpt lat="48.5696" lon="7.13114">
        <ele>580.1</ele>
        <time>2021-08-01T09:49:24Z</time>
      </trkpt>
      <trkpt lat="48.56955" lon="7.13119">
        <ele>580.3</ele>
        <time>2021-08-01T09:49:26Z</time>
      </trkpt>
      <trkpt lat="48.56952" lon="7.13121">
        <ele>580.5</ele>
        <time>2021-08-01T09:49:27Z</time>
      </trkpt>
      <trkpt lat="48.5695" lon="7.13124">
        <ele>580.6</ele>
        <time>2021-08-01T09:49:28Z</time>
      </trkpt>
      <trkpt lat="48.56947" lon="7.13128">
        <ele>580.8</ele>
        <time>2021-08-01T09:49:30Z</time>
      </trkpt>
      <trkpt lat="48.56943" lon="7.13127">
        <ele>581</ele>
        <time>2021-08-01T09:49:31Z</time>
      </trkpt>
      <trkpt lat="48.56941" lon="7.13126">
        <ele>581.1</ele>
        <time>2021-08-01T09:49:32Z</time>
      </trkpt>
      <trkpt lat="48.56939" lon="7.13125">
        <ele>581.3</ele>
        <time>2021-08-01T09:49:33Z</time>
      </trkpt>
      <trkpt lat="48.56934" lon="7.13125">
        <ele>581.6</ele>
        <time>2021-08-01T09:49:35Z</time>
      </trkpt>
      <trkpt lat="48.5693" lon="7.13128">
        <ele>581.8</ele>
        <time>2021-08-01T09:49:37Z</time>
      </trkpt>
      <trkpt lat="48.56929" lon="7.13129">
        <ele>581.9</ele>
        <time>2021-08-01T09:49:38Z</time>
      </trkpt>
      <trkpt lat="48.56928" lon="7.1313">
        <ele>582</ele>
        <time>2021-08-01T09:49:39Z</time>
      </trkpt>
      <trkpt lat="48.56927" lon="7.13132">
        <ele>582.1</ele>
        <time>2021-08-01T09:49:40Z</time>
      </trkpt>
      <trkpt lat="48.56925" lon="7.13134">
        <ele>582.2</ele>
        <time>2021-08-01T09:49:41Z</time>
      </trkpt>
      <trkpt lat="48.56922" lon="7.13137">
        <ele>582.5</ele>
        <time>2021-08-01T09:49:43Z</time>
      </trkpt>
      <trkpt lat="48.56921" lon="7.13138">
        <ele>582.5</ele>
        <time>2021-08-01T09:49:44Z</time>
      </trkpt>
      <trkpt lat="48.56919" lon="7.1314">
        <ele>582.8</ele>
        <time>2021-08-01T09:49:45Z</time>
      </trkpt>
      <trkpt lat="48.56916" lon="7.13143">
        <ele>583</ele>
        <time>2021-08-01T09:49:46Z</time>
      </trkpt>
      <trkpt lat="48.56915" lon="7.13144">
        <ele>583.1</ele>
        <time>2021-08-01T09:49:47Z</time>
      </trkpt>
      <trkpt lat="48.56913" lon="7.13146">
        <ele>583.2</ele>
        <time>2021-08-01T09:49:48Z</time>
      </trkpt>
      <trkpt lat="48.56912" lon="7.13146">
        <ele>583.3</ele>
        <time>2021-08-01T09:49:49Z</time>
      </trkpt>
      <trkpt lat="48.56909" lon="7.13147">
        <ele>583.5</ele>
        <time>2021-08-01T09:49:51Z</time>
      </trkpt>
      <trkpt lat="48.56904" lon="7.13148">
        <ele>583.7</ele>
        <time>2021-08-01T09:49:52Z</time>
      </trkpt>
      <trkpt lat="48.56899" lon="7.13149">
        <ele>584</ele>
        <time>2021-08-01T09:49:54Z</time>
      </trkpt>
      <trkpt lat="48.56898" lon="7.13151">
        <ele>584.1</ele>
        <time>2021-08-01T09:49:55Z</time>
      </trkpt>
      <trkpt lat="48.56896" lon="7.13153">
        <ele>584.1</ele>
        <time>2021-08-01T09:49:56Z</time>
      </trkpt>
      <trkpt lat="48.56896" lon="7.13154">
        <ele>584.2</ele>
        <time>2021-08-01T09:49:57Z</time>
      </trkpt>
      <trkpt lat="48.56896" lon="7.13156">
        <ele>584.3</ele>
        <time>2021-08-01T09:49:59Z</time>
      </trkpt>
      <trkpt lat="48.56895" lon="7.13157">
        <ele>584.3</ele>
        <time>2021-08-01T09:50:00Z</time>
      </trkpt>
      <trkpt lat="48.56894" lon="7.13158">
        <ele>584.4</ele>
        <time>2021-08-01T09:50:01Z</time>
      </trkpt>
      <trkpt lat="48.56893" lon="7.13159">
        <ele>584.4</ele>
        <time>2021-08-01T09:50:03Z</time>
      </trkpt>
      <trkpt lat="48.56892" lon="7.1316">
        <ele>584.5</ele>
        <time>2021-08-01T09:50:04Z</time>
      </trkpt>
      <trkpt lat="48.56889" lon="7.13163">
        <ele>584.7</ele>
        <time>2021-08-01T09:50:05Z</time>
      </trkpt>
      <trkpt lat="48.56888" lon="7.13165">
        <ele>584.7</ele>
        <time>2021-08-01T09:50:06Z</time>
      </trkpt>
      <trkpt lat="48.56885" lon="7.13169">
        <ele>584.9</ele>
        <time>2021-08-01T09:50:07Z</time>
      </trkpt>
      <trkpt lat="48.56882" lon="7.13173">
        <ele>585.1</ele>
        <time>2021-08-01T09:50:09Z</time>
      </trkpt>
      <trkpt lat="48.5688" lon="7.13176">
        <ele>585.3</ele>
        <time>2021-08-01T09:50:10Z</time>
      </trkpt>
      <trkpt lat="48.56876" lon="7.13179">
        <ele>585.4</ele>
        <time>2021-08-01T09:50:11Z</time>
      </trkpt>
      <trkpt lat="48.56874" lon="7.13185">
        <ele>585.7</ele>
        <time>2021-08-01T09:50:13Z</time>
      </trkpt>
      <trkpt lat="48.56873" lon="7.13187">
        <ele>585.7</ele>
        <time>2021-08-01T09:50:14Z</time>
      </trkpt>
      <trkpt lat="48.5687" lon="7.13191">
        <ele>585.8</ele>
        <time>2021-08-01T09:50:16Z</time>
      </trkpt>
      <trkpt lat="48.56868" lon="7.13192">
        <ele>585.9</ele>
        <time>2021-08-01T09:50:17Z</time>
      </trkpt>
      <trkpt lat="48.56867" lon="7.13194">
        <ele>585.9</ele>
        <time>2021-08-01T09:50:19Z</time>
      </trkpt>
      <trkpt lat="48.56867" lon="7.13196">
        <ele>586</ele>
        <time>2021-08-01T09:50:20Z</time>
      </trkpt>
      <trkpt lat="48.56867" lon="7.13198">
        <ele>586</ele>
        <time>2021-08-01T09:50:21Z</time>
      </trkpt>
      <trkpt lat="48.56865" lon="7.13201">
        <ele>586.1</ele>
        <time>2021-08-01T09:50:23Z</time>
      </trkpt>
      <trkpt lat="48.56862" lon="7.13205">
        <ele>586.1</ele>
        <time>2021-08-01T09:50:24Z</time>
      </trkpt>
      <trkpt lat="48.5686" lon="7.13208">
        <ele>586.2</ele>
        <time>2021-08-01T09:50:25Z</time>
      </trkpt>
      <trkpt lat="48.56856" lon="7.13214">
        <ele>586.3</ele>
        <time>2021-08-01T09:50:27Z</time>
      </trkpt>
      <trkpt lat="48.56854" lon="7.13218">
        <ele>586.3</ele>
        <time>2021-08-01T09:50:28Z</time>
      </trkpt>
      <trkpt lat="48.56852" lon="7.13222">
        <ele>586.4</ele>
        <time>2021-08-01T09:50:29Z</time>
      </trkpt>
      <trkpt lat="48.56848" lon="7.13229">
        <ele>586.5</ele>
        <time>2021-08-01T09:50:31Z</time>
      </trkpt>
      <trkpt lat="48.56845" lon="7.13231">
        <ele>586.6</ele>
        <time>2021-08-01T09:50:32Z</time>
      </trkpt>
      <trkpt lat="48.56842" lon="7.13233">
        <ele>586.6</ele>
        <time>2021-08-01T09:50:33Z</time>
      </trkpt>
      <trkpt lat="48.56839" lon="7.13236">
        <ele>586.7</ele>
        <time>2021-08-01T09:50:34Z</time>
      </trkpt>
      <trkpt lat="48.56836" lon="7.13239">
        <ele>586.8</ele>
        <time>2021-08-01T09:50:35Z</time>
      </trkpt>
      <trkpt lat="48.56833" lon="7.13241">
        <ele>586.9</ele>
        <time>2021-08-01T09:50:36Z</time>
      </trkpt>
      <trkpt lat="48.5683" lon="7.13242">
        <ele>586.9</ele>
        <time>2021-08-01T09:50:37Z</time>
      </trkpt>
      <trkpt lat="48.56827" lon="7.13244">
        <ele>587</ele>
        <time>2021-08-01T09:50:39Z</time>
      </trkpt>
      <trkpt lat="48.56825" lon="7.13245">
        <ele>587.1</ele>
        <time>2021-08-01T09:50:40Z</time>
      </trkpt>
      <trkpt lat="48.56824" lon="7.13246">
        <ele>587.1</ele>
        <time>2021-08-01T09:50:41Z</time>
      </trkpt>
      <trkpt lat="48.56824" lon="7.13246">
        <ele>587.1</ele>
        <time>2021-08-01T09:50:42Z</time>
      </trkpt>
      <trkpt lat="48.56824" lon="7.13246">
        <ele>587.1</ele>
        <time>2021-08-01T09:50:43Z</time>
      </trkpt>
      <trkpt lat="48.56823" lon="7.13247">
        <ele>587.1</ele>
        <time>2021-08-01T09:50:45Z</time>
      </trkpt>
      <trkpt lat="48.56819" lon="7.1325">
        <ele>587.2</ele>
        <time>2021-08-01T09:50:47Z</time>
      </trkpt>
      <trkpt lat="48.56812" lon="7.13255">
        <ele>587.3</ele>
        <time>2021-08-01T09:50:48Z</time>
      </trkpt>
      <trkpt lat="48.56807" lon="7.13261">
        <ele>587.4</ele>
        <time>2021-08-01T09:50:50Z</time>
      </trkpt>
      <trkpt lat="48.56802" lon="7.13266">
        <ele>587.5</ele>
        <time>2021-08-01T09:50:51Z</time>
      </trkpt>
      <trkpt lat="48.568" lon="7.1327">
        <ele>587.6</ele>
        <time>2021-08-01T09:50:52Z</time>
      </trkpt>
      <trkpt lat="48.56797" lon="7.13273">
        <ele>587.7</ele>
        <time>2021-08-01T09:50:54Z</time>
      </trkpt>
      <trkpt lat="48.56793" lon="7.13275">
        <ele>587.7</ele>
        <time>2021-08-01T09:50:55Z</time>
      </trkpt>
      <trkpt lat="48.5679" lon="7.13277">
        <ele>587.8</ele>
        <time>2021-08-01T09:50:56Z</time>
      </trkpt>
      <trkpt lat="48.56787" lon="7.1328">
        <ele>587.9</ele>
        <time>2021-08-01T09:50:58Z</time>
      </trkpt>
      <trkpt lat="48.56785" lon="7.13283">
        <ele>587.9</ele>
        <time>2021-08-01T09:50:59Z</time>
      </trkpt>
      <trkpt lat="48.56783" lon="7.13287">
        <ele>588</ele>
        <time>2021-08-01T09:51:00Z</time>
      </trkpt>
      <trkpt lat="48.56782" lon="7.13288">
        <ele>588</ele>
        <time>2021-08-01T09:51:01Z</time>
      </trkpt>
      <trkpt lat="48.56779" lon="7.13288">
        <ele>588.1</ele>
        <time>2021-08-01T09:51:03Z</time>
      </trkpt>
      <trkpt lat="48.56776" lon="7.13287">
        <ele>588.1</ele>
        <time>2021-08-01T09:51:04Z</time>
      </trkpt>
      <trkpt lat="48.56774" lon="7.13287">
        <ele>588.1</ele>
        <time>2021-08-01T09:51:05Z</time>
      </trkpt>
      <trkpt lat="48.56772" lon="7.13287">
        <ele>588.2</ele>
        <time>2021-08-01T09:51:06Z</time>
      </trkpt>
      <trkpt lat="48.56769" lon="7.13288">
        <ele>588.2</ele>
        <time>2021-08-01T09:51:07Z</time>
      </trkpt>
      <trkpt lat="48.56765" lon="7.1329">
        <ele>588.3</ele>
        <time>2021-08-01T09:51:09Z</time>
      </trkpt>
      <trkpt lat="48.56759" lon="7.13292">
        <ele>588.3</ele>
        <time>2021-08-01T09:51:10Z</time>
      </trkpt>
      <trkpt lat="48.56755" lon="7.13294">
        <ele>588.3</ele>
        <time>2021-08-01T09:51:11Z</time>
      </trkpt>
      <trkpt lat="48.5675" lon="7.13296">
        <ele>588.3</ele>
        <time>2021-08-01T09:51:13Z</time>
      </trkpt>
      <trkpt lat="48.56745" lon="7.13298">
        <ele>588.2</ele>
        <time>2021-08-01T09:51:14Z</time>
      </trkpt>
      <trkpt lat="48.56743" lon="7.133">
        <ele>588.2</ele>
        <time>2021-08-01T09:51:15Z</time>
      </trkpt>
      <trkpt lat="48.5674" lon="7.13302">
        <ele>588.1</ele>
        <time>2021-08-01T09:51:16Z</time>
      </trkpt>
      <trkpt lat="48.56735" lon="7.13305">
        <ele>588.1</ele>
        <time>2021-08-01T09:51:18Z</time>
      </trkpt>
      <trkpt lat="48.5673" lon="7.13308">
        <ele>588</ele>
        <time>2021-08-01T09:51:19Z</time>
      </trkpt>
      <trkpt lat="48.56722" lon="7.1331">
        <ele>587.9</ele>
        <time>2021-08-01T09:51:21Z</time>
      </trkpt>
      <trkpt lat="48.56717" lon="7.13313">
        <ele>587.8</ele>
        <time>2021-08-01T09:51:22Z</time>
      </trkpt>
      <trkpt lat="48.56713" lon="7.13317">
        <ele>587.7</ele>
        <time>2021-08-01T09:51:24Z</time>
      </trkpt>
      <trkpt lat="48.5671" lon="7.13319">
        <ele>587.6</ele>
        <time>2021-08-01T09:51:25Z</time>
      </trkpt>
      <trkpt lat="48.56705" lon="7.13322">
        <ele>587.4</ele>
        <time>2021-08-01T09:51:27Z</time>
      </trkpt>
      <trkpt lat="48.56701" lon="7.13324">
        <ele>587.3</ele>
        <time>2021-08-01T09:51:28Z</time>
      </trkpt>
      <trkpt lat="48.56696" lon="7.13326">
        <ele>587.1</ele>
        <time>2021-08-01T09:51:29Z</time>
      </trkpt>
      <trkpt lat="48.56688" lon="7.13327">
        <ele>586.8</ele>
        <time>2021-08-01T09:51:31Z</time>
      </trkpt>
      <trkpt lat="48.56679" lon="7.13332">
        <ele>586.3</ele>
        <time>2021-08-01T09:51:33Z</time>
      </trkpt>
      <trkpt lat="48.56675" lon="7.13334">
        <ele>586.1</ele>
        <time>2021-08-01T09:51:34Z</time>
      </trkpt>
      <trkpt lat="48.5667" lon="7.13337">
        <ele>585.9</ele>
        <time>2021-08-01T09:51:35Z</time>
      </trkpt>
      <trkpt lat="48.56663" lon="7.13341">
        <ele>585.6</ele>
        <time>2021-08-01T09:51:37Z</time>
      </trkpt>
      <trkpt lat="48.56661" lon="7.13345">
        <ele>585.5</ele>
        <time>2021-08-01T09:51:38Z</time>
      </trkpt>
      <trkpt lat="48.56654" lon="7.13354">
        <ele>585.5</ele>
        <time>2021-08-01T09:51:40Z</time>
      </trkpt>
      <trkpt lat="48.56648" lon="7.13357">
        <ele>585.5</ele>
        <time>2021-08-01T09:51:41Z</time>
      </trkpt>
      <trkpt lat="48.56644" lon="7.13358">
        <ele>585.5</ele>
        <time>2021-08-01T09:51:43Z</time>
      </trkpt>
      <trkpt lat="48.5664" lon="7.13359">
        <ele>585.6</ele>
        <time>2021-08-01T09:51:44Z</time>
      </trkpt>
      <trkpt lat="48.56638" lon="7.1336">
        <ele>585.6</ele>
        <time>2021-08-01T09:51:45Z</time>
      </trkpt>
      <trkpt lat="48.56635" lon="7.13362">
        <ele>585.7</ele>
        <time>2021-08-01T09:51:46Z</time>
      </trkpt>
      <trkpt lat="48.5663" lon="7.13364">
        <ele>585.8</ele>
        <time>2021-08-01T09:51:47Z</time>
      </trkpt>
      <trkpt lat="48.56624" lon="7.13367">
        <ele>586</ele>
        <time>2021-08-01T09:51:49Z</time>
      </trkpt>
      <trkpt lat="48.56619" lon="7.13369">
        <ele>586.2</ele>
        <time>2021-08-01T09:51:50Z</time>
      </trkpt>
      <trkpt lat="48.56615" lon="7.13371">
        <ele>586.3</ele>
        <time>2021-08-01T09:51:51Z</time>
      </trkpt>
      <trkpt lat="48.5661" lon="7.13374">
        <ele>586.5</ele>
        <time>2021-08-01T09:51:53Z</time>
      </trkpt>
      <trkpt lat="48.56605" lon="7.13375">
        <ele>586.7</ele>
        <time>2021-08-01T09:51:54Z</time>
      </trkpt>
      <trkpt lat="48.566" lon="7.13376">
        <ele>586.9</ele>
        <time>2021-08-01T09:51:56Z</time>
      </trkpt>
      <trkpt lat="48.56596" lon="7.13376">
        <ele>587.1</ele>
        <time>2021-08-01T09:51:57Z</time>
      </trkpt>
      <trkpt lat="48.56591" lon="7.13375">
        <ele>587.3</ele>
        <time>2021-08-01T09:51:59Z</time>
      </trkpt>
      <trkpt lat="48.56589" lon="7.13375">
        <ele>587.4</ele>
        <time>2021-08-01T09:52:00Z</time>
      </trkpt>
      <trkpt lat="48.56587" lon="7.13375">
        <ele>587.5</ele>
        <time>2021-08-01T09:52:01Z</time>
      </trkpt>
      <trkpt lat="48.56584" lon="7.13375">
        <ele>587.6</ele>
        <time>2021-08-01T09:52:02Z</time>
      </trkpt>
      <trkpt lat="48.5658" lon="7.13375">
        <ele>587.9</ele>
        <time>2021-08-01T09:52:04Z</time>
      </trkpt>
      <trkpt lat="48.56579" lon="7.13376">
        <ele>587.9</ele>
        <time>2021-08-01T09:52:05Z</time>
      </trkpt>
      <trkpt lat="48.56577" lon="7.13376">
        <ele>588</ele>
        <time>2021-08-01T09:52:06Z</time>
      </trkpt>
      <trkpt lat="48.56575" lon="7.13376">
        <ele>588.1</ele>
        <time>2021-08-01T09:52:07Z</time>
      </trkpt>
      <trkpt lat="48.56574" lon="7.13377">
        <ele>588.2</ele>
        <time>2021-08-01T09:52:08Z</time>
      </trkpt>
      <trkpt lat="48.56573" lon="7.13377">
        <ele>588.3</ele>
        <time>2021-08-01T09:52:09Z</time>
      </trkpt>
      <trkpt lat="48.56552" lon="7.13385">
        <ele>589.8</ele>
        <time>2021-08-01T09:52:22Z</time>
      </trkpt>
      <trkpt lat="48.56549" lon="7.13386">
        <ele>590</ele>
        <time>2021-08-01T09:52:23Z</time>
      </trkpt>
      <trkpt lat="48.56544" lon="7.13386">
        <ele>590.3</ele>
        <time>2021-08-01T09:52:24Z</time>
      </trkpt>
      <trkpt lat="48.56537" lon="7.13387">
        <ele>590.8</ele>
        <time>2021-08-01T09:52:26Z</time>
      </trkpt>
      <trkpt lat="48.56535" lon="7.13388">
        <ele>591</ele>
        <time>2021-08-01T09:52:27Z</time>
      </trkpt>
      <trkpt lat="48.5653" lon="7.13389">
        <ele>591.3</ele>
        <time>2021-08-01T09:52:29Z</time>
      </trkpt>
      <trkpt lat="48.56529" lon="7.1339">
        <ele>591.4</ele>
        <time>2021-08-01T09:52:30Z</time>
      </trkpt>
      <trkpt lat="48.56528" lon="7.1339">
        <ele>591.5</ele>
        <time>2021-08-01T09:52:31Z</time>
      </trkpt>
      <trkpt lat="48.56525" lon="7.13392">
        <ele>591.7</ele>
        <time>2021-08-01T09:52:33Z</time>
      </trkpt>
      <trkpt lat="48.56523" lon="7.13392">
        <ele>591.8</ele>
        <time>2021-08-01T09:52:34Z</time>
      </trkpt>
      <trkpt lat="48.56522" lon="7.13393">
        <ele>591.8</ele>
        <time>2021-08-01T09:52:35Z</time>
      </trkpt>
      <trkpt lat="48.56518" lon="7.13394">
        <ele>592.1</ele>
        <time>2021-08-01T09:52:37Z</time>
      </trkpt>
      <trkpt lat="48.56517" lon="7.13394">
        <ele>592.1</ele>
        <time>2021-08-01T09:52:38Z</time>
      </trkpt>
      <trkpt lat="48.56515" lon="7.13394">
        <ele>592.2</ele>
        <time>2021-08-01T09:52:39Z</time>
      </trkpt>
      <trkpt lat="48.56514" lon="7.13394">
        <ele>592.3</ele>
        <time>2021-08-01T09:52:40Z</time>
      </trkpt>
      <trkpt lat="48.56512" lon="7.13394">
        <ele>592.4</ele>
        <time>2021-08-01T09:52:41Z</time>
      </trkpt>
      <trkpt lat="48.56512" lon="7.13394">
        <ele>592.4</ele>
        <time>2021-08-01T09:52:43Z</time>
      </trkpt>
      <trkpt lat="48.56501" lon="7.13397">
        <ele>592.9</ele>
        <time>2021-08-01T09:52:54Z</time>
      </trkpt>
      <trkpt lat="48.56496" lon="7.134">
        <ele>593.2</ele>
        <time>2021-08-01T09:52:56Z</time>
      </trkpt>
      <trkpt lat="48.56492" lon="7.13402">
        <ele>593.3</ele>
        <time>2021-08-01T09:52:57Z</time>
      </trkpt>
      <trkpt lat="48.56489" lon="7.13403">
        <ele>593.5</ele>
        <time>2021-08-01T09:52:58Z</time>
      </trkpt>
      <trkpt lat="48.56488" lon="7.13404">
        <ele>593.5</ele>
        <time>2021-08-01T09:52:59Z</time>
      </trkpt>
      <trkpt lat="48.56485" lon="7.13404">
        <ele>593.6</ele>
        <time>2021-08-01T09:53:01Z</time>
      </trkpt>
      <trkpt lat="48.56483" lon="7.13403">
        <ele>593.6</ele>
        <time>2021-08-01T09:53:02Z</time>
      </trkpt>
      <trkpt lat="48.56482" lon="7.13402">
        <ele>593.7</ele>
        <time>2021-08-01T09:53:03Z</time>
      </trkpt>
      <trkpt lat="48.56482" lon="7.13402">
        <ele>593.7</ele>
        <time>2021-08-01T09:53:05Z</time>
      </trkpt>
      <trkpt lat="48.5648" lon="7.13402">
        <ele>593.8</ele>
        <time>2021-08-01T09:53:06Z</time>
      </trkpt>
      <trkpt lat="48.56479" lon="7.13401">
        <ele>593.8</ele>
        <time>2021-08-01T09:53:07Z</time>
      </trkpt>
      <trkpt lat="48.56476" lon="7.13398">
        <ele>593.9</ele>
        <time>2021-08-01T09:53:08Z</time>
      </trkpt>
      <trkpt lat="48.56474" lon="7.13395">
        <ele>594</ele>
        <time>2021-08-01T09:53:10Z</time>
      </trkpt>
      <trkpt lat="48.56473" lon="7.13393">
        <ele>594</ele>
        <time>2021-08-01T09:53:11Z</time>
      </trkpt>
      <trkpt lat="48.56472" lon="7.13392">
        <ele>594</ele>
        <time>2021-08-01T09:53:12Z</time>
      </trkpt>
      <trkpt lat="48.5647" lon="7.13391">
        <ele>594.1</ele>
        <time>2021-08-01T09:53:13Z</time>
      </trkpt>
      <trkpt lat="48.56469" lon="7.13391">
        <ele>594.1</ele>
        <time>2021-08-01T09:53:14Z</time>
      </trkpt>
      <trkpt lat="48.56468" lon="7.1339">
        <ele>594.2</ele>
        <time>2021-08-01T09:53:15Z</time>
      </trkpt>
      <trkpt lat="48.56467" lon="7.1339">
        <ele>594.2</ele>
        <time>2021-08-01T09:53:16Z</time>
      </trkpt>
      <trkpt lat="48.56464" lon="7.1339">
        <ele>594.3</ele>
        <time>2021-08-01T09:53:17Z</time>
      </trkpt>
      <trkpt lat="48.56461" lon="7.1339">
        <ele>594.4</ele>
        <time>2021-08-01T09:53:19Z</time>
      </trkpt>
      <trkpt lat="48.56459" lon="7.1339">
        <ele>594.4</ele>
        <time>2021-08-01T09:53:20Z</time>
      </trkpt>
      <trkpt lat="48.56456" lon="7.1339">
        <ele>594.5</ele>
        <time>2021-08-01T09:53:21Z</time>
      </trkpt>
      <trkpt lat="48.56455" lon="7.13389">
        <ele>594.5</ele>
        <time>2021-08-01T09:53:22Z</time>
      </trkpt>
      <trkpt lat="48.56453" lon="7.13389">
        <ele>594.6</ele>
        <time>2021-08-01T09:53:23Z</time>
      </trkpt>
      <trkpt lat="48.56451" lon="7.13389">
        <ele>594.6</ele>
        <time>2021-08-01T09:53:24Z</time>
      </trkpt>
      <trkpt lat="48.56445" lon="7.13387">
        <ele>594.8</ele>
        <time>2021-08-01T09:53:26Z</time>
      </trkpt>
      <trkpt lat="48.56442" lon="7.13386">
        <ele>594.9</ele>
        <time>2021-08-01T09:53:27Z</time>
      </trkpt>
      <trkpt lat="48.56437" lon="7.13385">
        <ele>595</ele>
        <time>2021-08-01T09:53:29Z</time>
      </trkpt>
      <trkpt lat="48.56433" lon="7.13384">
        <ele>595.1</ele>
        <time>2021-08-01T09:53:30Z</time>
      </trkpt>
      <trkpt lat="48.56429" lon="7.13385">
        <ele>595.3</ele>
        <time>2021-08-01T09:53:32Z</time>
      </trkpt>
      <trkpt lat="48.56426" lon="7.13386">
        <ele>595.4</ele>
        <time>2021-08-01T09:53:33Z</time>
      </trkpt>
      <trkpt lat="48.56423" lon="7.13388">
        <ele>595.5</ele>
        <time>2021-08-01T09:53:34Z</time>
      </trkpt>
      <trkpt lat="48.56419" lon="7.1339">
        <ele>595.7</ele>
        <time>2021-08-01T09:53:36Z</time>
      </trkpt>
      <trkpt lat="48.56418" lon="7.13391">
        <ele>595.7</ele>
        <time>2021-08-01T09:53:37Z</time>
      </trkpt>
      <trkpt lat="48.56415" lon="7.13394">
        <ele>595.9</ele>
        <time>2021-08-01T09:53:38Z</time>
      </trkpt>
      <trkpt lat="48.56412" lon="7.13398">
        <ele>596.1</ele>
        <time>2021-08-01T09:53:39Z</time>
      </trkpt>
      <trkpt lat="48.56409" lon="7.134">
        <ele>596.2</ele>
        <time>2021-08-01T09:53:40Z</time>
      </trkpt>
      <trkpt lat="48.56406" lon="7.13402">
        <ele>596.3</ele>
        <time>2021-08-01T09:53:41Z</time>
      </trkpt>
      <trkpt lat="48.56405" lon="7.13402">
        <ele>596.4</ele>
        <time>2021-08-01T09:53:42Z</time>
      </trkpt>
      <trkpt lat="48.56404" lon="7.13402">
        <ele>596.4</ele>
        <time>2021-08-01T09:53:43Z</time>
      </trkpt>
      <trkpt lat="48.56403" lon="7.13404">
        <ele>596.5</ele>
        <time>2021-08-01T09:53:44Z</time>
      </trkpt>
      <trkpt lat="48.56401" lon="7.13405">
        <ele>596.6</ele>
        <time>2021-08-01T09:53:45Z</time>
      </trkpt>
      <trkpt lat="48.56399" lon="7.13405">
        <ele>596.7</ele>
        <time>2021-08-01T09:53:47Z</time>
      </trkpt>
      <trkpt lat="48.56396" lon="7.13406">
        <ele>596.8</ele>
        <time>2021-08-01T09:53:48Z</time>
      </trkpt>
      <trkpt lat="48.56395" lon="7.13406">
        <ele>596.8</ele>
        <time>2021-08-01T09:53:49Z</time>
      </trkpt>
      <trkpt lat="48.56392" lon="7.13406">
        <ele>597</ele>
        <time>2021-08-01T09:53:50Z</time>
      </trkpt>
      <trkpt lat="48.56391" lon="7.13406">
        <ele>597</ele>
        <time>2021-08-01T09:53:51Z</time>
      </trkpt>
      <trkpt lat="48.5639" lon="7.13406">
        <ele>597.1</ele>
        <time>2021-08-01T09:53:52Z</time>
      </trkpt>
      <trkpt lat="48.56388" lon="7.13407">
        <ele>597.2</ele>
        <time>2021-08-01T09:53:54Z</time>
      </trkpt>
      <trkpt lat="48.56387" lon="7.13407">
        <ele>597.3</ele>
        <time>2021-08-01T09:53:55Z</time>
      </trkpt>
      <trkpt lat="48.56386" lon="7.13406">
        <ele>597.3</ele>
        <time>2021-08-01T09:53:56Z</time>
      </trkpt>
      <trkpt lat="48.56385" lon="7.13406">
        <ele>597.3</ele>
        <time>2021-08-01T09:53:57Z</time>
      </trkpt>
      <trkpt lat="48.56384" lon="7.13406">
        <ele>597.4</ele>
        <time>2021-08-01T09:53:59Z</time>
      </trkpt>
      <trkpt lat="48.56383" lon="7.13406">
        <ele>597.5</ele>
        <time>2021-08-01T09:54:00Z</time>
      </trkpt>
      <trkpt lat="48.56382" lon="7.13405">
        <ele>597.5</ele>
        <time>2021-08-01T09:54:01Z</time>
      </trkpt>
      <trkpt lat="48.56381" lon="7.13405">
        <ele>597.6</ele>
        <time>2021-08-01T09:54:02Z</time>
      </trkpt>
      <trkpt lat="48.56379" lon="7.13404">
        <ele>597.6</ele>
        <time>2021-08-01T09:54:03Z</time>
      </trkpt>
      <trkpt lat="48.56376" lon="7.13402">
        <ele>597.8</ele>
        <time>2021-08-01T09:54:04Z</time>
      </trkpt>
      <trkpt lat="48.56372" lon="7.134">
        <ele>598</ele>
        <time>2021-08-01T09:54:06Z</time>
      </trkpt>
      <trkpt lat="48.56369" lon="7.134">
        <ele>598.1</ele>
        <time>2021-08-01T09:54:07Z</time>
      </trkpt>
      <trkpt lat="48.56367" lon="7.13399">
        <ele>598.2</ele>
        <time>2021-08-01T09:54:08Z</time>
      </trkpt>
      <trkpt lat="48.56365" lon="7.13399">
        <ele>598.3</ele>
        <time>2021-08-01T09:54:10Z</time>
      </trkpt>
      <trkpt lat="48.56364" lon="7.13399">
        <ele>598.4</ele>
        <time>2021-08-01T09:54:11Z</time>
      </trkpt>
      <trkpt lat="48.56364" lon="7.13399">
        <ele>598.4</ele>
        <time>2021-08-01T09:54:12Z</time>
      </trkpt>
      <trkpt lat="48.56363" lon="7.13398">
        <ele>598.4</ele>
        <time>2021-08-01T09:54:14Z</time>
      </trkpt>
      <trkpt lat="48.56362" lon="7.13398">
        <ele>598.5</ele>
        <time>2021-08-01T09:54:15Z</time>
      </trkpt>
      <trkpt lat="48.56361" lon="7.13397">
        <ele>598.5</ele>
        <time>2021-08-01T09:54:16Z</time>
      </trkpt>
      <trkpt lat="48.56358" lon="7.13397">
        <ele>598.6</ele>
        <time>2021-08-01T09:54:17Z</time>
      </trkpt>
      <trkpt lat="48.56347" lon="7.13394">
        <ele>599.1</ele>
        <time>2021-08-01T09:54:23Z</time>
      </trkpt>
      <trkpt lat="48.56344" lon="7.13394">
        <ele>599.3</ele>
        <time>2021-08-01T09:54:24Z</time>
      </trkpt>
      <trkpt lat="48.5634" lon="7.13394">
        <ele>599.5</ele>
        <time>2021-08-01T09:54:25Z</time>
      </trkpt>
      <trkpt lat="48.56339" lon="7.13394">
        <ele>599.6</ele>
        <time>2021-08-01T09:54:26Z</time>
      </trkpt>
      <trkpt lat="48.56334" lon="7.13396">
        <ele>599.9</ele>
        <time>2021-08-01T09:54:28Z</time>
      </trkpt>
      <trkpt lat="48.5633" lon="7.13397">
        <ele>600.1</ele>
        <time>2021-08-01T09:54:29Z</time>
      </trkpt>
      <trkpt lat="48.56325" lon="7.13398">
        <ele>600.3</ele>
        <time>2021-08-01T09:54:30Z</time>
      </trkpt>
      <trkpt lat="48.56322" lon="7.13397">
        <ele>600.5</ele>
        <time>2021-08-01T09:54:32Z</time>
      </trkpt>
      <trkpt lat="48.56319" lon="7.13398">
        <ele>600.6</ele>
        <time>2021-08-01T09:54:33Z</time>
      </trkpt>
      <trkpt lat="48.56318" lon="7.134">
        <ele>600.7</ele>
        <time>2021-08-01T09:54:35Z</time>
      </trkpt>
      <trkpt lat="48.56316" lon="7.13401">
        <ele>600.8</ele>
        <time>2021-08-01T09:54:36Z</time>
      </trkpt>
      <trkpt lat="48.56315" lon="7.13401">
        <ele>600.9</ele>
        <time>2021-08-01T09:54:37Z</time>
      </trkpt>
      <trkpt lat="48.56314" lon="7.13401">
        <ele>600.9</ele>
        <time>2021-08-01T09:54:38Z</time>
      </trkpt>
      <trkpt lat="48.56312" lon="7.13402">
        <ele>601.1</ele>
        <time>2021-08-01T09:54:39Z</time>
      </trkpt>
      <trkpt lat="48.56309" lon="7.13402">
        <ele>601.2</ele>
        <time>2021-08-01T09:54:41Z</time>
      </trkpt>
      <trkpt lat="48.56306" lon="7.13399">
        <ele>601.4</ele>
        <time>2021-08-01T09:54:42Z</time>
      </trkpt>
      <trkpt lat="48.56304" lon="7.13398">
        <ele>601.5</ele>
        <time>2021-08-01T09:54:43Z</time>
      </trkpt>
      <trkpt lat="48.56301" lon="7.13396">
        <ele>601.7</ele>
        <time>2021-08-01T09:54:44Z</time>
      </trkpt>
      <trkpt lat="48.563" lon="7.13395">
        <ele>601.7</ele>
        <time>2021-08-01T09:54:45Z</time>
      </trkpt>
      <trkpt lat="48.56297" lon="7.13393">
        <ele>601.9</ele>
        <time>2021-08-01T09:54:46Z</time>
      </trkpt>
      <trkpt lat="48.56295" lon="7.1339">
        <ele>602.1</ele>
        <time>2021-08-01T09:54:48Z</time>
      </trkpt>
      <trkpt lat="48.56293" lon="7.13389">
        <ele>602.2</ele>
        <time>2021-08-01T09:54:49Z</time>
      </trkpt>
      <trkpt lat="48.56291" lon="7.13388">
        <ele>602.3</ele>
        <time>2021-08-01T09:54:50Z</time>
      </trkpt>
      <trkpt lat="48.56288" lon="7.13386">
        <ele>602.5</ele>
        <time>2021-08-01T09:54:52Z</time>
      </trkpt>
      <trkpt lat="48.56285" lon="7.13386">
        <ele>602.7</ele>
        <time>2021-08-01T09:54:53Z</time>
      </trkpt>
      <trkpt lat="48.56283" lon="7.13386">
        <ele>602.8</ele>
        <time>2021-08-01T09:54:54Z</time>
      </trkpt>
      <trkpt lat="48.56282" lon="7.13387">
        <ele>602.9</ele>
        <time>2021-08-01T09:54:55Z</time>
      </trkpt>
      <trkpt lat="48.5628" lon="7.13388">
        <ele>603</ele>
        <time>2021-08-01T09:54:57Z</time>
      </trkpt>
      <trkpt lat="48.56278" lon="7.13389">
        <ele>603.1</ele>
        <time>2021-08-01T09:54:58Z</time>
      </trkpt>
      <trkpt lat="48.56276" lon="7.13389">
        <ele>603.2</ele>
        <time>2021-08-01T09:54:59Z</time>
      </trkpt>
      <trkpt lat="48.56272" lon="7.13389">
        <ele>603.4</ele>
        <time>2021-08-01T09:55:00Z</time>
      </trkpt>
      <trkpt lat="48.56271" lon="7.13388">
        <ele>603.5</ele>
        <time>2021-08-01T09:55:01Z</time>
      </trkpt>
      <trkpt lat="48.56268" lon="7.13387">
        <ele>603.7</ele>
        <time>2021-08-01T09:55:03Z</time>
      </trkpt>
      <trkpt lat="48.56265" lon="7.13386">
        <ele>603.8</ele>
        <time>2021-08-01T09:55:04Z</time>
      </trkpt>
      <trkpt lat="48.56262" lon="7.13384">
        <ele>603.9</ele>
        <time>2021-08-01T09:55:05Z</time>
      </trkpt>
      <trkpt lat="48.56262" lon="7.13383">
        <ele>604</ele>
        <time>2021-08-01T09:55:06Z</time>
      </trkpt>
      <trkpt lat="48.56259" lon="7.13383">
        <ele>604.1</ele>
        <time>2021-08-01T09:55:07Z</time>
      </trkpt>
      <trkpt lat="48.56258" lon="7.13383">
        <ele>604.1</ele>
        <time>2021-08-01T09:55:08Z</time>
      </trkpt>
      <trkpt lat="48.56254" lon="7.13385">
        <ele>604.3</ele>
        <time>2021-08-01T09:55:10Z</time>
      </trkpt>
      <trkpt lat="48.56252" lon="7.13385">
        <ele>604.4</ele>
        <time>2021-08-01T09:55:11Z</time>
      </trkpt>
      <trkpt lat="48.56251" lon="7.13385">
        <ele>604.4</ele>
        <time>2021-08-01T09:55:12Z</time>
      </trkpt>
      <trkpt lat="48.5625" lon="7.13386">
        <ele>604.4</ele>
        <time>2021-08-01T09:55:13Z</time>
      </trkpt>
      <trkpt lat="48.5625" lon="7.13387">
        <ele>604.5</ele>
        <time>2021-08-01T09:55:14Z</time>
      </trkpt>
      <trkpt lat="48.56249" lon="7.13387">
        <ele>604.5</ele>
        <time>2021-08-01T09:55:15Z</time>
      </trkpt>
      <trkpt lat="48.56248" lon="7.13388">
        <ele>604.5</ele>
        <time>2021-08-01T09:55:16Z</time>
      </trkpt>
      <trkpt lat="48.56247" lon="7.13388">
        <ele>604.6</ele>
        <time>2021-08-01T09:55:17Z</time>
      </trkpt>
      <trkpt lat="48.56245" lon="7.13388">
        <ele>604.6</ele>
        <time>2021-08-01T09:55:18Z</time>
      </trkpt>
      <trkpt lat="48.56242" lon="7.13388">
        <ele>604.8</ele>
        <time>2021-08-01T09:55:20Z</time>
      </trkpt>
      <trkpt lat="48.56239" lon="7.1339">
        <ele>604.9</ele>
        <time>2021-08-01T09:55:21Z</time>
      </trkpt>
      <trkpt lat="48.56236" lon="7.13391">
        <ele>605</ele>
        <time>2021-08-01T09:55:23Z</time>
      </trkpt>
      <trkpt lat="48.56234" lon="7.13392">
        <ele>605.1</ele>
        <time>2021-08-01T09:55:24Z</time>
      </trkpt>
      <trkpt lat="48.56232" lon="7.13393">
        <ele>605.1</ele>
        <time>2021-08-01T09:55:26Z</time>
      </trkpt>
      <trkpt lat="48.56231" lon="7.13393">
        <ele>605.2</ele>
        <time>2021-08-01T09:55:27Z</time>
      </trkpt>
      <trkpt lat="48.56229" lon="7.13393">
        <ele>605.3</ele>
        <time>2021-08-01T09:55:28Z</time>
      </trkpt>
      <trkpt lat="48.56226" lon="7.13393">
        <ele>605.4</ele>
        <time>2021-08-01T09:55:29Z</time>
      </trkpt>
      <trkpt lat="48.56225" lon="7.13393">
        <ele>605.4</ele>
        <time>2021-08-01T09:55:30Z</time>
      </trkpt>
      <trkpt lat="48.56222" lon="7.13391">
        <ele>605.5</ele>
        <time>2021-08-01T09:55:31Z</time>
      </trkpt>
      <trkpt lat="48.56221" lon="7.13391">
        <ele>605.6</ele>
        <time>2021-08-01T09:55:32Z</time>
      </trkpt>
      <trkpt lat="48.56218" lon="7.13391">
        <ele>605.7</ele>
        <time>2021-08-01T09:55:33Z</time>
      </trkpt>
      <trkpt lat="48.56216" lon="7.13392">
        <ele>605.8</ele>
        <time>2021-08-01T09:55:34Z</time>
      </trkpt>
      <trkpt lat="48.56215" lon="7.13392">
        <ele>605.8</ele>
        <time>2021-08-01T09:55:35Z</time>
      </trkpt>
      <trkpt lat="48.56212" lon="7.13395">
        <ele>605.9</ele>
        <time>2021-08-01T09:55:37Z</time>
      </trkpt>
      <trkpt lat="48.56211" lon="7.13396">
        <ele>606</ele>
        <time>2021-08-01T09:55:38Z</time>
      </trkpt>
      <trkpt lat="48.56209" lon="7.13397">
        <ele>606.1</ele>
        <time>2021-08-01T09:55:39Z</time>
      </trkpt>
      <trkpt lat="48.56206" lon="7.13398">
        <ele>606.2</ele>
        <time>2021-08-01T09:55:41Z</time>
      </trkpt>
      <trkpt lat="48.56203" lon="7.13397">
        <ele>606.3</ele>
        <time>2021-08-01T09:55:42Z</time>
      </trkpt>
      <trkpt lat="48.562" lon="7.13397">
        <ele>606.4</ele>
        <time>2021-08-01T09:55:43Z</time>
      </trkpt>
      <trkpt lat="48.56198" lon="7.13398">
        <ele>606.4</ele>
        <time>2021-08-01T09:55:44Z</time>
      </trkpt>
      <trkpt lat="48.56195" lon="7.13398">
        <ele>606.6</ele>
        <time>2021-08-01T09:55:46Z</time>
      </trkpt>
      <trkpt lat="48.56191" lon="7.13397">
        <ele>606.7</ele>
        <time>2021-08-01T09:55:47Z</time>
      </trkpt>
      <trkpt lat="48.5619" lon="7.13397">
        <ele>606.7</ele>
        <time>2021-08-01T09:55:48Z</time>
      </trkpt>
      <trkpt lat="48.56187" lon="7.13395">
        <ele>606.9</ele>
        <time>2021-08-01T09:55:49Z</time>
      </trkpt>
      <trkpt lat="48.56186" lon="7.13394">
        <ele>606.9</ele>
        <time>2021-08-01T09:55:50Z</time>
      </trkpt>
      <trkpt lat="48.56183" lon="7.13394">
        <ele>607.1</ele>
        <time>2021-08-01T09:55:51Z</time>
      </trkpt>
      <trkpt lat="48.56179" lon="7.13394">
        <ele>607.3</ele>
        <time>2021-08-01T09:55:53Z</time>
      </trkpt>
      <trkpt lat="48.56178" lon="7.13394">
        <ele>607.3</ele>
        <time>2021-08-01T09:55:54Z</time>
      </trkpt>
      <trkpt lat="48.56173" lon="7.13392">
        <ele>607.5</ele>
        <time>2021-08-01T09:55:55Z</time>
      </trkpt>
      <trkpt lat="48.56172" lon="7.13391">
        <ele>607.6</ele>
        <time>2021-08-01T09:55:56Z</time>
      </trkpt>
      <trkpt lat="48.56167" lon="7.13387">
        <ele>607.9</ele>
        <time>2021-08-01T09:55:58Z</time>
      </trkpt>
      <trkpt lat="48.56165" lon="7.13386">
        <ele>608</ele>
        <time>2021-08-01T09:56:00Z</time>
      </trkpt>
      <trkpt lat="48.56164" lon="7.13385">
        <ele>608.1</ele>
        <time>2021-08-01T09:56:01Z</time>
      </trkpt>
      <trkpt lat="48.56162" lon="7.13384">
        <ele>608.1</ele>
        <time>2021-08-01T09:56:02Z</time>
      </trkpt>
      <trkpt lat="48.56159" lon="7.13382">
        <ele>608.3</ele>
        <time>2021-08-01T09:56:04Z</time>
      </trkpt>
      <trkpt lat="48.56158" lon="7.13382">
        <ele>608.3</ele>
        <time>2021-08-01T09:56:05Z</time>
      </trkpt>
      <trkpt lat="48.56157" lon="7.13381">
        <ele>608.4</ele>
        <time>2021-08-01T09:56:06Z</time>
      </trkpt>
      <trkpt lat="48.56156" lon="7.13381">
        <ele>608.5</ele>
        <time>2021-08-01T09:56:07Z</time>
      </trkpt>
      <trkpt lat="48.56155" lon="7.13381">
        <ele>608.5</ele>
        <time>2021-08-01T09:56:08Z</time>
      </trkpt>
      <trkpt lat="48.56154" lon="7.13381">
        <ele>608.6</ele>
        <time>2021-08-01T09:56:09Z</time>
      </trkpt>
      <trkpt lat="48.56153" lon="7.13382">
        <ele>608.6</ele>
        <time>2021-08-01T09:56:11Z</time>
      </trkpt>
      <trkpt lat="48.56152" lon="7.13383">
        <ele>608.7</ele>
        <time>2021-08-01T09:56:12Z</time>
      </trkpt>
      <trkpt lat="48.56151" lon="7.13384">
        <ele>608.7</ele>
        <time>2021-08-01T09:56:13Z</time>
      </trkpt>
      <trkpt lat="48.56149" lon="7.13385">
        <ele>608.8</ele>
        <time>2021-08-01T09:56:14Z</time>
      </trkpt>
      <trkpt lat="48.56148" lon="7.13385">
        <ele>608.9</ele>
        <time>2021-08-01T09:56:16Z</time>
      </trkpt>
      <trkpt lat="48.56147" lon="7.13385">
        <ele>608.9</ele>
        <time>2021-08-01T09:56:17Z</time>
      </trkpt>
      <trkpt lat="48.56146" lon="7.13385">
        <ele>609</ele>
        <time>2021-08-01T09:56:18Z</time>
      </trkpt>
      <trkpt lat="48.56144" lon="7.13385">
        <ele>609.1</ele>
        <time>2021-08-01T09:56:19Z</time>
      </trkpt>
      <trkpt lat="48.56141" lon="7.13386">
        <ele>609.3</ele>
        <time>2021-08-01T09:56:21Z</time>
      </trkpt>
      <trkpt lat="48.56137" lon="7.13387">
        <ele>609.5</ele>
        <time>2021-08-01T09:56:22Z</time>
      </trkpt>
      <trkpt lat="48.56135" lon="7.13389">
        <ele>609.6</ele>
        <time>2021-08-01T09:56:23Z</time>
      </trkpt>
      <trkpt lat="48.56132" lon="7.13389">
        <ele>609.8</ele>
        <time>2021-08-01T09:56:24Z</time>
      </trkpt>
      <trkpt lat="48.56131" lon="7.13389">
        <ele>609.9</ele>
        <time>2021-08-01T09:56:25Z</time>
      </trkpt>
      <trkpt lat="48.56126" lon="7.1339">
        <ele>610.1</ele>
        <time>2021-08-01T09:56:27Z</time>
      </trkpt>
      <trkpt lat="48.56123" lon="7.13391">
        <ele>610.3</ele>
        <time>2021-08-01T09:56:28Z</time>
      </trkpt>
      <trkpt lat="48.56121" lon="7.13391">
        <ele>610.4</ele>
        <time>2021-08-01T09:56:29Z</time>
      </trkpt>
      <trkpt lat="48.56118" lon="7.1339">
        <ele>610.5</ele>
        <time>2021-08-01T09:56:31Z</time>
      </trkpt>
      <trkpt lat="48.56117" lon="7.1339">
        <ele>610.6</ele>
        <time>2021-08-01T09:56:32Z</time>
      </trkpt>
      <trkpt lat="48.56114" lon="7.1339">
        <ele>610.8</ele>
        <time>2021-08-01T09:56:33Z</time>
      </trkpt>
      <trkpt lat="48.56112" lon="7.1339">
        <ele>610.9</ele>
        <time>2021-08-01T09:56:35Z</time>
      </trkpt>
      <trkpt lat="48.56111" lon="7.1339">
        <ele>610.9</ele>
        <time>2021-08-01T09:56:36Z</time>
      </trkpt>
      <trkpt lat="48.56109" lon="7.1339">
        <ele>611</ele>
        <time>2021-08-01T09:56:37Z</time>
      </trkpt>
      <trkpt lat="48.56108" lon="7.1339">
        <ele>611.1</ele>
        <time>2021-08-01T09:56:39Z</time>
      </trkpt>
      <trkpt lat="48.56106" lon="7.1339">
        <ele>611.2</ele>
        <time>2021-08-01T09:56:40Z</time>
      </trkpt>
      <trkpt lat="48.56105" lon="7.1339">
        <ele>611.2</ele>
        <time>2021-08-01T09:56:42Z</time>
      </trkpt>
      <trkpt lat="48.56104" lon="7.13389">
        <ele>611.3</ele>
        <time>2021-08-01T09:56:43Z</time>
      </trkpt>
      <trkpt lat="48.56102" lon="7.13389">
        <ele>611.3</ele>
        <time>2021-08-01T09:56:44Z</time>
      </trkpt>
      <trkpt lat="48.56101" lon="7.13389">
        <ele>611.4</ele>
        <time>2021-08-01T09:56:45Z</time>
      </trkpt>
      <trkpt lat="48.561" lon="7.13388">
        <ele>611.5</ele>
        <time>2021-08-01T09:56:46Z</time>
      </trkpt>
      <trkpt lat="48.56098" lon="7.13387">
        <ele>611.6</ele>
        <time>2021-08-01T09:56:47Z</time>
      </trkpt>
      <trkpt lat="48.56093" lon="7.13385">
        <ele>611.8</ele>
        <time>2021-08-01T09:56:49Z</time>
      </trkpt>
      <trkpt lat="48.5609" lon="7.13383">
        <ele>612</ele>
        <time>2021-08-01T09:56:50Z</time>
      </trkpt>
      <trkpt lat="48.56086" lon="7.1338">
        <ele>612.1</ele>
        <time>2021-08-01T09:56:52Z</time>
      </trkpt>
      <trkpt lat="48.56082" lon="7.13379">
        <ele>612.3</ele>
        <time>2021-08-01T09:56:54Z</time>
      </trkpt>
      <trkpt lat="48.56082" lon="7.13379">
        <ele>612.3</ele>
        <time>2021-08-01T09:56:55Z</time>
      </trkpt>
      <trkpt lat="48.56081" lon="7.13378">
        <ele>612.3</ele>
        <time>2021-08-01T09:56:57Z</time>
      </trkpt>
      <trkpt lat="48.56079" lon="7.13378">
        <ele>612.4</ele>
        <time>2021-08-01T09:56:59Z</time>
      </trkpt>
      <trkpt lat="48.56068" lon="7.13375">
        <ele>612.6</ele>
        <time>2021-08-01T09:57:00Z</time>
      </trkpt>
      <trkpt lat="48.5606" lon="7.13374">
        <ele>612.7</ele>
        <time>2021-08-01T10:01:36Z</time>
      </trkpt>
      <trkpt lat="48.56052" lon="7.13373">
        <ele>612.7</ele>
        <time>2021-08-01T10:01:37Z</time>
      </trkpt>
      <trkpt lat="48.56046" lon="7.13373">
        <ele>612.7</ele>
        <time>2021-08-01T10:01:39Z</time>
      </trkpt>
      <trkpt lat="48.56042" lon="7.13373">
        <ele>612.6</ele>
        <time>2021-08-01T10:01:40Z</time>
      </trkpt>
      <trkpt lat="48.56035" lon="7.13374">
        <ele>612.6</ele>
        <time>2021-08-01T10:01:42Z</time>
      </trkpt>
      <trkpt lat="48.5603" lon="7.13374">
        <ele>612.6</ele>
        <time>2021-08-01T10:01:43Z</time>
      </trkpt>
      <trkpt lat="48.56026" lon="7.13375">
        <ele>612.6</ele>
        <time>2021-08-01T10:01:44Z</time>
      </trkpt>
      <trkpt lat="48.56021" lon="7.13375">
        <ele>612.6</ele>
        <time>2021-08-01T10:01:46Z</time>
      </trkpt>
      <trkpt lat="48.56017" lon="7.13376">
        <ele>612.6</ele>
        <time>2021-08-01T10:01:47Z</time>
      </trkpt>
      <trkpt lat="48.56013" lon="7.13376">
        <ele>612.6</ele>
        <time>2021-08-01T10:01:48Z</time>
      </trkpt>
      <trkpt lat="48.56006" lon="7.13374">
        <ele>612.6</ele>
        <time>2021-08-01T10:01:50Z</time>
      </trkpt>
      <trkpt lat="48.56002" lon="7.13372">
        <ele>612.7</ele>
        <time>2021-08-01T10:01:51Z</time>
      </trkpt>
      <trkpt lat="48.55998" lon="7.13371">
        <ele>612.7</ele>
        <time>2021-08-01T10:01:52Z</time>
      </trkpt>
      <trkpt lat="48.55992" lon="7.13369">
        <ele>612.8</ele>
        <time>2021-08-01T10:01:54Z</time>
      </trkpt>
      <trkpt lat="48.55988" lon="7.13367">
        <ele>612.8</ele>
        <time>2021-08-01T10:01:55Z</time>
      </trkpt>
      <trkpt lat="48.55985" lon="7.13366">
        <ele>612.9</ele>
        <time>2021-08-01T10:01:56Z</time>
      </trkpt>
      <trkpt lat="48.5598" lon="7.13367">
        <ele>613</ele>
        <time>2021-08-01T10:01:58Z</time>
      </trkpt>
      <trkpt lat="48.55977" lon="7.13367">
        <ele>613</ele>
        <time>2021-08-01T10:01:59Z</time>
      </trkpt>
      <trkpt lat="48.55973" lon="7.13367">
        <ele>613.1</ele>
        <time>2021-08-01T10:02:00Z</time>
      </trkpt>
      <trkpt lat="48.55969" lon="7.13366">
        <ele>613.2</ele>
        <time>2021-08-01T10:02:02Z</time>
      </trkpt>
      <trkpt lat="48.55967" lon="7.13365">
        <ele>613.3</ele>
        <time>2021-08-01T10:02:03Z</time>
      </trkpt>
      <trkpt lat="48.55964" lon="7.13364">
        <ele>613.4</ele>
        <time>2021-08-01T10:02:04Z</time>
      </trkpt>
      <trkpt lat="48.5596" lon="7.13362">
        <ele>613.4</ele>
        <time>2021-08-01T10:02:05Z</time>
      </trkpt>
      <trkpt lat="48.55958" lon="7.1336">
        <ele>613.5</ele>
        <time>2021-08-01T10:02:06Z</time>
      </trkpt>
      <trkpt lat="48.55956" lon="7.1336">
        <ele>613.6</ele>
        <time>2021-08-01T10:02:08Z</time>
      </trkpt>
      <trkpt lat="48.55955" lon="7.13359">
        <ele>613.6</ele>
        <time>2021-08-01T10:02:09Z</time>
      </trkpt>
      <trkpt lat="48.55953" lon="7.13358">
        <ele>613.6</ele>
        <time>2021-08-01T10:02:10Z</time>
      </trkpt>
      <trkpt lat="48.5595" lon="7.13357">
        <ele>613.6</ele>
        <time>2021-08-01T10:02:11Z</time>
      </trkpt>
      <trkpt lat="48.55946" lon="7.13356">
        <ele>613.6</ele>
        <time>2021-08-01T10:02:13Z</time>
      </trkpt>
      <trkpt lat="48.55943" lon="7.13354">
        <ele>613.6</ele>
        <time>2021-08-01T10:02:14Z</time>
      </trkpt>
      <trkpt lat="48.55938" lon="7.13352">
        <ele>613.6</ele>
        <time>2021-08-01T10:02:15Z</time>
      </trkpt>
      <trkpt lat="48.55935" lon="7.13349">
        <ele>613.6</ele>
        <time>2021-08-01T10:02:17Z</time>
      </trkpt>
      <trkpt lat="48.55932" lon="7.13348">
        <ele>613.5</ele>
        <time>2021-08-01T10:02:18Z</time>
      </trkpt>
      <trkpt lat="48.55928" lon="7.13349">
        <ele>613.5</ele>
        <time>2021-08-01T10:02:20Z</time>
      </trkpt>
      <trkpt lat="48.55926" lon="7.13346">
        <ele>613.5</ele>
        <time>2021-08-01T10:02:21Z</time>
      </trkpt>
      <trkpt lat="48.55924" lon="7.13342">
        <ele>613.5</ele>
        <time>2021-08-01T10:02:23Z</time>
      </trkpt>
      <trkpt lat="48.55922" lon="7.1334">
        <ele>613.4</ele>
        <time>2021-08-01T10:02:24Z</time>
      </trkpt>
      <trkpt lat="48.55922" lon="7.13334">
        <ele>613.4</ele>
        <time>2021-08-01T10:02:26Z</time>
      </trkpt>
      <trkpt lat="48.55921" lon="7.13331">
        <ele>613.5</ele>
        <time>2021-08-01T10:02:27Z</time>
      </trkpt>
      <trkpt lat="48.5592" lon="7.13331">
        <ele>613.5</ele>
        <time>2021-08-01T10:02:28Z</time>
      </trkpt>
      <trkpt lat="48.55917" lon="7.13333">
        <ele>613.6</ele>
        <time>2021-08-01T10:02:29Z</time>
      </trkpt>
      <trkpt lat="48.55915" lon="7.13335">
        <ele>613.6</ele>
        <time>2021-08-01T10:02:31Z</time>
      </trkpt>
      <trkpt lat="48.55914" lon="7.13336">
        <ele>613.6</ele>
        <time>2021-08-01T10:02:32Z</time>
      </trkpt>
      <trkpt lat="48.55915" lon="7.13337">
        <ele>613.7</ele>
        <time>2021-08-01T10:02:33Z</time>
      </trkpt>
      <trkpt lat="48.55914" lon="7.13338">
        <ele>613.7</ele>
        <time>2021-08-01T10:02:35Z</time>
      </trkpt>
      <trkpt lat="48.55912" lon="7.13337">
        <ele>613.7</ele>
        <time>2021-08-01T10:02:36Z</time>
      </trkpt>
      <trkpt lat="48.55911" lon="7.13336">
        <ele>613.8</ele>
        <time>2021-08-01T10:02:37Z</time>
      </trkpt>
      <trkpt lat="48.55911" lon="7.13337">
        <ele>613.8</ele>
        <time>2021-08-01T10:02:39Z</time>
      </trkpt>
      <trkpt lat="48.55911" lon="7.13337">
        <ele>613.8</ele>
        <time>2021-08-01T10:02:40Z</time>
      </trkpt>
      <trkpt lat="48.55911" lon="7.13338">
        <ele>613.8</ele>
        <time>2021-08-01T10:02:42Z</time>
      </trkpt>
      <trkpt lat="48.55911" lon="7.13338">
        <ele>613.8</ele>
        <time>2021-08-01T10:02:43Z</time>
      </trkpt>
      <trkpt lat="48.55911" lon="7.13338">
        <ele>613.8</ele>
        <time>2021-08-01T10:02:45Z</time>
      </trkpt>
      <trkpt lat="48.55911" lon="7.13338">
        <ele>613.8</ele>
        <time>2021-08-01T10:02:47Z</time>
      </trkpt>
      <trkpt lat="48.55907" lon="7.13333">
        <ele>613.9</ele>
        <time>2021-08-01T10:03:03Z</time>
      </trkpt>
      <trkpt lat="48.55905" lon="7.1333">
        <ele>614</ele>
        <time>2021-08-01T10:03:04Z</time>
      </trkpt>
      <trkpt lat="48.55901" lon="7.13328">
        <ele>614.2</ele>
        <time>2021-08-01T10:03:05Z</time>
      </trkpt>
      <trkpt lat="48.55898" lon="7.13328">
        <ele>614.3</ele>
        <time>2021-08-01T10:03:06Z</time>
      </trkpt>
      <trkpt lat="48.55896" lon="7.13328">
        <ele>614.4</ele>
        <time>2021-08-01T10:03:08Z</time>
      </trkpt>
      <trkpt lat="48.55892" lon="7.13328">
        <ele>614.5</ele>
        <time>2021-08-01T10:03:10Z</time>
      </trkpt>
      <trkpt lat="48.55892" lon="7.13328">
        <ele>614.6</ele>
        <time>2021-08-01T10:03:11Z</time>
      </trkpt>
      <trkpt lat="48.55891" lon="7.13328">
        <ele>614.6</ele>
        <time>2021-08-01T10:03:12Z</time>
      </trkpt>
      <trkpt lat="48.5589" lon="7.13329">
        <ele>614.7</ele>
        <time>2021-08-01T10:03:14Z</time>
      </trkpt>
      <trkpt lat="48.55889" lon="7.13329">
        <ele>614.7</ele>
        <time>2021-08-01T10:03:15Z</time>
      </trkpt>
      <trkpt lat="48.55887" lon="7.13328">
        <ele>614.8</ele>
        <time>2021-08-01T10:03:17Z</time>
      </trkpt>
      <trkpt lat="48.55884" lon="7.13328">
        <ele>614.9</ele>
        <time>2021-08-01T10:03:19Z</time>
      </trkpt>
      <trkpt lat="48.5588" lon="7.13327">
        <ele>615.2</ele>
        <time>2021-08-01T10:03:20Z</time>
      </trkpt>
      <trkpt lat="48.55876" lon="7.13327">
        <ele>615.4</ele>
        <time>2021-08-01T10:03:22Z</time>
      </trkpt>
      <trkpt lat="48.55872" lon="7.13327">
        <ele>615.6</ele>
        <time>2021-08-01T10:03:23Z</time>
      </trkpt>
      <trkpt lat="48.55868" lon="7.13325">
        <ele>615.9</ele>
        <time>2021-08-01T10:03:24Z</time>
      </trkpt>
      <trkpt lat="48.5586" lon="7.13323">
        <ele>616.5</ele>
        <time>2021-08-01T10:03:25Z</time>
      </trkpt>
      <trkpt lat="48.55854" lon="7.13322">
        <ele>617</ele>
        <time>2021-08-01T10:03:27Z</time>
      </trkpt>
      <trkpt lat="48.55847" lon="7.13321">
        <ele>617.6</ele>
        <time>2021-08-01T10:03:28Z</time>
      </trkpt>
      <trkpt lat="48.55842" lon="7.1332">
        <ele>618</ele>
        <time>2021-08-01T10:03:29Z</time>
      </trkpt>
      <trkpt lat="48.55837" lon="7.13319">
        <ele>618.5</ele>
        <time>2021-08-01T10:03:31Z</time>
      </trkpt>
      <trkpt lat="48.55834" lon="7.13318">
        <ele>618.8</ele>
        <time>2021-08-01T10:03:32Z</time>
      </trkpt>
      <trkpt lat="48.55831" lon="7.13319">
        <ele>619.1</ele>
        <time>2021-08-01T10:03:34Z</time>
      </trkpt>
      <trkpt lat="48.5583" lon="7.13319">
        <ele>619.2</ele>
        <time>2021-08-01T10:03:35Z</time>
      </trkpt>
      <trkpt lat="48.55827" lon="7.13318">
        <ele>619.5</ele>
        <time>2021-08-01T10:03:37Z</time>
      </trkpt>
      <trkpt lat="48.55824" lon="7.13318">
        <ele>619.8</ele>
        <time>2021-08-01T10:03:38Z</time>
      </trkpt>
      <trkpt lat="48.55822" lon="7.13318">
        <ele>620.1</ele>
        <time>2021-08-01T10:03:40Z</time>
      </trkpt>
      <trkpt lat="48.55818" lon="7.13318">
        <ele>620.5</ele>
        <time>2021-08-01T10:03:42Z</time>
      </trkpt>
      <trkpt lat="48.55814" lon="7.13317">
        <ele>621</ele>
        <time>2021-08-01T10:04:06Z</time>
      </trkpt>
      <trkpt lat="48.55811" lon="7.13315">
        <ele>621.4</ele>
        <time>2021-08-01T10:04:07Z</time>
      </trkpt>
      <trkpt lat="48.55805" lon="7.13308">
        <ele>622.4</ele>
        <time>2021-08-01T10:04:09Z</time>
      </trkpt>
      <trkpt lat="48.55804" lon="7.13308">
        <ele>622.5</ele>
        <time>2021-08-01T10:04:10Z</time>
      </trkpt>
      <trkpt lat="48.558" lon="7.13304">
        <ele>623.1</ele>
        <time>2021-08-01T10:04:12Z</time>
      </trkpt>
      <trkpt lat="48.55798" lon="7.13303">
        <ele>623.3</ele>
        <time>2021-08-01T10:04:13Z</time>
      </trkpt>
      <trkpt lat="48.55797" lon="7.13303">
        <ele>623.5</ele>
        <time>2021-08-01T10:04:15Z</time>
      </trkpt>
      <trkpt lat="48.55795" lon="7.13303">
        <ele>623.8</ele>
        <time>2021-08-01T10:04:16Z</time>
      </trkpt>
      <trkpt lat="48.55793" lon="7.13303">
        <ele>624</ele>
        <time>2021-08-01T10:04:18Z</time>
      </trkpt>
      <trkpt lat="48.55706" lon="7.13232">
        <ele>635.3</ele>
        <time>2021-08-01T10:06:23Z</time>
      </trkpt>
      <trkpt lat="48.55703" lon="7.1323">
        <ele>635.8</ele>
        <time>2021-08-01T10:06:24Z</time>
      </trkpt>
      <trkpt lat="48.557" lon="7.13227">
        <ele>636.3</ele>
        <time>2021-08-01T10:06:26Z</time>
      </trkpt>
      <trkpt lat="48.55698" lon="7.13226">
        <ele>636.6</ele>
        <time>2021-08-01T10:06:27Z</time>
      </trkpt>
      <trkpt lat="48.55697" lon="7.13226">
        <ele>636.7</ele>
        <time>2021-08-01T10:06:28Z</time>
      </trkpt>
      <trkpt lat="48.55695" lon="7.13224">
        <ele>637.2</ele>
        <time>2021-08-01T10:06:30Z</time>
      </trkpt>
      <trkpt lat="48.55693" lon="7.13223">
        <ele>637.4</ele>
        <time>2021-08-01T10:06:31Z</time>
      </trkpt>
      <trkpt lat="48.55693" lon="7.13222">
        <ele>637.5</ele>
        <time>2021-08-01T10:06:33Z</time>
      </trkpt>
      <trkpt lat="48.55693" lon="7.13222">
        <ele>637.5</ele>
        <time>2021-08-01T10:06:34Z</time>
      </trkpt>
      <trkpt lat="48.55692" lon="7.13221">
        <ele>637.6</ele>
        <time>2021-08-01T10:06:36Z</time>
      </trkpt>
      <trkpt lat="48.55692" lon="7.13221">
        <ele>637.6</ele>
        <time>2021-08-01T10:06:37Z</time>
      </trkpt>
      <trkpt lat="48.55692" lon="7.13221">
        <ele>637.7</ele>
        <time>2021-08-01T10:06:39Z</time>
      </trkpt>
      <trkpt lat="48.55692" lon="7.13221">
        <ele>637.7</ele>
        <time>2021-08-01T10:06:40Z</time>
      </trkpt>
      <trkpt lat="48.55684" lon="7.13196">
        <ele>640.4</ele>
        <time>2021-08-01T10:07:04Z</time>
      </trkpt>
      <trkpt lat="48.55684" lon="7.13194">
        <ele>640.6</ele>
        <time>2021-08-01T10:07:05Z</time>
      </trkpt>
      <trkpt lat="48.55685" lon="7.13192">
        <ele>640.8</ele>
        <time>2021-08-01T10:07:06Z</time>
      </trkpt>
      <trkpt lat="48.55685" lon="7.1319">
        <ele>640.9</ele>
        <time>2021-08-01T10:07:07Z</time>
      </trkpt>
      <trkpt lat="48.55685" lon="7.1319">
        <ele>641</ele>
        <time>2021-08-01T10:07:09Z</time>
      </trkpt>
      <trkpt lat="48.55685" lon="7.13187">
        <ele>641.2</ele>
        <time>2021-08-01T10:07:10Z</time>
      </trkpt>
      <trkpt lat="48.55684" lon="7.13185">
        <ele>641.5</ele>
        <time>2021-08-01T10:07:12Z</time>
      </trkpt>
      <trkpt lat="48.55683" lon="7.13183">
        <ele>641.7</ele>
        <time>2021-08-01T10:07:13Z</time>
      </trkpt>
      <trkpt lat="48.55681" lon="7.13182">
        <ele>641.9</ele>
        <time>2021-08-01T10:07:15Z</time>
      </trkpt>
      <trkpt lat="48.5568" lon="7.13182">
        <ele>642.1</ele>
        <time>2021-08-01T10:07:17Z</time>
      </trkpt>
      <trkpt lat="48.5568" lon="7.13182">
        <ele>642.2</ele>
        <time>2021-08-01T10:07:18Z</time>
      </trkpt>
      <trkpt lat="48.55679" lon="7.13182">
        <ele>642.3</ele>
        <time>2021-08-01T10:07:20Z</time>
      </trkpt>
      <trkpt lat="48.55678" lon="7.13182">
        <ele>642.3</ele>
        <time>2021-08-01T10:07:21Z</time>
      </trkpt>
      <trkpt lat="48.55678" lon="7.13182">
        <ele>642.4</ele>
        <time>2021-08-01T10:07:23Z</time>
      </trkpt>
      <trkpt lat="48.55678" lon="7.1318">
        <ele>642.6</ele>
        <time>2021-08-01T10:07:24Z</time>
      </trkpt>
      <trkpt lat="48.55677" lon="7.13179">
        <ele>642.7</ele>
        <time>2021-08-01T10:07:26Z</time>
      </trkpt>
      <trkpt lat="48.55676" lon="7.13178">
        <ele>642.9</ele>
        <time>2021-08-01T10:07:27Z</time>
      </trkpt>
      <trkpt lat="48.55675" lon="7.13177">
        <ele>643.1</ele>
        <time>2021-08-01T10:07:29Z</time>
      </trkpt>
      <trkpt lat="48.55674" lon="7.13176">
        <ele>643.2</ele>
        <time>2021-08-01T10:07:30Z</time>
      </trkpt>
      <trkpt lat="48.55674" lon="7.13175">
        <ele>643.3</ele>
        <time>2021-08-01T10:07:31Z</time>
      </trkpt>
      <trkpt lat="48.55673" lon="7.13175">
        <ele>643.4</ele>
        <time>2021-08-01T10:07:33Z</time>
      </trkpt>
      <trkpt lat="48.55673" lon="7.13174">
        <ele>643.5</ele>
        <time>2021-08-01T10:07:34Z</time>
      </trkpt>
      <trkpt lat="48.55672" lon="7.13172">
        <ele>643.8</ele>
        <time>2021-08-01T10:07:36Z</time>
      </trkpt>
      <trkpt lat="48.55671" lon="7.13171">
        <ele>643.8</ele>
        <time>2021-08-01T10:07:37Z</time>
      </trkpt>
      <trkpt lat="48.55671" lon="7.13171">
        <ele>643.9</ele>
        <time>2021-08-01T10:07:38Z</time>
      </trkpt>
      <trkpt lat="48.55671" lon="7.1317">
        <ele>644</ele>
        <time>2021-08-01T10:07:39Z</time>
      </trkpt>
      <trkpt lat="48.5567" lon="7.1317">
        <ele>644</ele>
        <time>2021-08-01T10:07:40Z</time>
      </trkpt>
      <trkpt lat="48.55669" lon="7.13169">
        <ele>644.2</ele>
        <time>2021-08-01T10:07:42Z</time>
      </trkpt>
      <trkpt lat="48.55667" lon="7.13167">
        <ele>644.5</ele>
        <time>2021-08-01T10:07:43Z</time>
      </trkpt>
      <trkpt lat="48.55666" lon="7.13166">
        <ele>644.8</ele>
        <time>2021-08-01T10:07:45Z</time>
      </trkpt>
      <trkpt lat="48.55663" lon="7.13164">
        <ele>645.3</ele>
        <time>2021-08-01T10:07:46Z</time>
      </trkpt>
      <trkpt lat="48.55661" lon="7.13163">
        <ele>645.5</ele>
        <time>2021-08-01T10:07:47Z</time>
      </trkpt>
      <trkpt lat="48.5566" lon="7.13161">
        <ele>645.7</ele>
        <time>2021-08-01T10:07:49Z</time>
      </trkpt>
      <trkpt lat="48.55659" lon="7.1316">
        <ele>645.9</ele>
        <time>2021-08-01T10:07:50Z</time>
      </trkpt>
      <trkpt lat="48.55657" lon="7.13158">
        <ele>646.1</ele>
        <time>2021-08-01T10:07:51Z</time>
      </trkpt>
      <trkpt lat="48.55656" lon="7.13157">
        <ele>646.3</ele>
        <time>2021-08-01T10:07:52Z</time>
      </trkpt>
      <trkpt lat="48.55656" lon="7.13156">
        <ele>646.4</ele>
        <time>2021-08-01T10:07:53Z</time>
      </trkpt>
      <trkpt lat="48.55654" lon="7.13155">
        <ele>646.6</ele>
        <time>2021-08-01T10:07:55Z</time>
      </trkpt>
      <trkpt lat="48.55653" lon="7.13153">
        <ele>646.7</ele>
        <time>2021-08-01T10:07:56Z</time>
      </trkpt>
      <trkpt lat="48.55653" lon="7.13151">
        <ele>646.9</ele>
        <time>2021-08-01T10:07:58Z</time>
      </trkpt>
      <trkpt lat="48.55652" lon="7.13149">
        <ele>647</ele>
        <time>2021-08-01T10:07:59Z</time>
      </trkpt>
      <trkpt lat="48.55652" lon="7.13147">
        <ele>647.4</ele>
        <time>2021-08-01T10:08:01Z</time>
      </trkpt>
      <trkpt lat="48.55651" lon="7.13145">
        <ele>647.5</ele>
        <time>2021-08-01T10:08:02Z</time>
      </trkpt>
      <trkpt lat="48.55651" lon="7.13144">
        <ele>647.6</ele>
        <time>2021-08-01T10:08:03Z</time>
      </trkpt>
      <trkpt lat="48.5565" lon="7.13143">
        <ele>647.7</ele>
        <time>2021-08-01T10:08:04Z</time>
      </trkpt>
      <trkpt lat="48.55649" lon="7.13143">
        <ele>647.7</ele>
        <time>2021-08-01T10:08:06Z</time>
      </trkpt>
      <trkpt lat="48.55647" lon="7.13142">
        <ele>647.9</ele>
        <time>2021-08-01T10:08:07Z</time>
      </trkpt>
      <trkpt lat="48.55646" lon="7.13142">
        <ele>648</ele>
        <time>2021-08-01T10:08:09Z</time>
      </trkpt>
      <trkpt lat="48.55645" lon="7.13142">
        <ele>648.1</ele>
        <time>2021-08-01T10:08:10Z</time>
      </trkpt>
      <trkpt lat="48.55643" lon="7.13143">
        <ele>648.2</ele>
        <time>2021-08-01T10:08:11Z</time>
      </trkpt>
      <trkpt lat="48.55642" lon="7.13143">
        <ele>648.3</ele>
        <time>2021-08-01T10:08:13Z</time>
      </trkpt>
      <trkpt lat="48.55641" lon="7.13143">
        <ele>648.4</ele>
        <time>2021-08-01T10:08:14Z</time>
      </trkpt>
      <trkpt lat="48.55639" lon="7.13143">
        <ele>648.5</ele>
        <time>2021-08-01T10:08:16Z</time>
      </trkpt>
      <trkpt lat="48.55639" lon="7.13143">
        <ele>648.6</ele>
        <time>2021-08-01T10:08:17Z</time>
      </trkpt>
      <trkpt lat="48.55637" lon="7.13143">
        <ele>648.7</ele>
        <time>2021-08-01T10:08:18Z</time>
      </trkpt>
      <trkpt lat="48.55636" lon="7.13142">
        <ele>648.8</ele>
        <time>2021-08-01T10:08:19Z</time>
      </trkpt>
      <trkpt lat="48.55635" lon="7.13142">
        <ele>648.9</ele>
        <time>2021-08-01T10:08:21Z</time>
      </trkpt>
      <trkpt lat="48.55634" lon="7.13141">
        <ele>648.9</ele>
        <time>2021-08-01T10:08:22Z</time>
      </trkpt>
      <trkpt lat="48.55633" lon="7.13141">
        <ele>649</ele>
        <time>2021-08-01T10:08:23Z</time>
      </trkpt>
      <trkpt lat="48.55632" lon="7.13141">
        <ele>649.1</ele>
        <time>2021-08-01T10:08:24Z</time>
      </trkpt>
      <trkpt lat="48.55631" lon="7.13141">
        <ele>649.2</ele>
        <time>2021-08-01T10:08:26Z</time>
      </trkpt>
      <trkpt lat="48.5563" lon="7.13141">
        <ele>649.2</ele>
        <time>2021-08-01T10:08:27Z</time>
      </trkpt>
      <trkpt lat="48.55629" lon="7.13141">
        <ele>649.3</ele>
        <time>2021-08-01T10:08:28Z</time>
      </trkpt>
      <trkpt lat="48.55626" lon="7.13141">
        <ele>649.5</ele>
        <time>2021-08-01T10:08:30Z</time>
      </trkpt>
      <trkpt lat="48.55625" lon="7.13141">
        <ele>649.6</ele>
        <time>2021-08-01T10:08:31Z</time>
      </trkpt>
      <trkpt lat="48.55623" lon="7.13142">
        <ele>649.7</ele>
        <time>2021-08-01T10:08:32Z</time>
      </trkpt>
      <trkpt lat="48.5562" lon="7.13143">
        <ele>649.8</ele>
        <time>2021-08-01T10:08:34Z</time>
      </trkpt>
      <trkpt lat="48.55619" lon="7.13143">
        <ele>649.9</ele>
        <time>2021-08-01T10:08:35Z</time>
      </trkpt>
      <trkpt lat="48.55617" lon="7.13143">
        <ele>650</ele>
        <time>2021-08-01T10:08:36Z</time>
      </trkpt>
      <trkpt lat="48.55615" lon="7.13143">
        <ele>650.1</ele>
        <time>2021-08-01T10:08:38Z</time>
      </trkpt>
      <trkpt lat="48.55613" lon="7.13144">
        <ele>650.2</ele>
        <time>2021-08-01T10:08:39Z</time>
      </trkpt>
      <trkpt lat="48.55612" lon="7.13144">
        <ele>650.3</ele>
        <time>2021-08-01T10:08:41Z</time>
      </trkpt>
      <trkpt lat="48.55611" lon="7.13144">
        <ele>650.3</ele>
        <time>2021-08-01T10:08:42Z</time>
      </trkpt>
      <trkpt lat="48.5561" lon="7.13144">
        <ele>650.3</ele>
        <time>2021-08-01T10:08:43Z</time>
      </trkpt>
      <trkpt lat="48.55609" lon="7.13144">
        <ele>650.4</ele>
        <time>2021-08-01T10:08:44Z</time>
      </trkpt>
      <trkpt lat="48.55608" lon="7.13144">
        <ele>650.4</ele>
        <time>2021-08-01T10:08:46Z</time>
      </trkpt>
      <trkpt lat="48.55608" lon="7.13144">
        <ele>650.5</ele>
        <time>2021-08-01T10:08:47Z</time>
      </trkpt>
      <trkpt lat="48.55606" lon="7.13142">
        <ele>650.6</ele>
        <time>2021-08-01T10:08:48Z</time>
      </trkpt>
      <trkpt lat="48.55605" lon="7.13141">
        <ele>650.6</ele>
        <time>2021-08-01T10:08:50Z</time>
      </trkpt>
      <trkpt lat="48.55604" lon="7.1314">
        <ele>650.7</ele>
        <time>2021-08-01T10:08:52Z</time>
      </trkpt>
      <trkpt lat="48.55603" lon="7.13139">
        <ele>650.7</ele>
        <time>2021-08-01T10:08:53Z</time>
      </trkpt>
      <trkpt lat="48.55602" lon="7.13138">
        <ele>650.8</ele>
        <time>2021-08-01T10:08:54Z</time>
      </trkpt>
      <trkpt lat="48.55601" lon="7.13137">
        <ele>650.8</ele>
        <time>2021-08-01T10:08:55Z</time>
      </trkpt>
      <trkpt lat="48.55597" lon="7.13135">
        <ele>651</ele>
        <time>2021-08-01T10:08:57Z</time>
      </trkpt>
      <trkpt lat="48.55596" lon="7.13135">
        <ele>651.1</ele>
        <time>2021-08-01T10:08:58Z</time>
      </trkpt>
      <trkpt lat="48.55594" lon="7.13134">
        <ele>651.2</ele>
        <time>2021-08-01T10:08:59Z</time>
      </trkpt>
      <trkpt lat="48.55591" lon="7.13134">
        <ele>651.3</ele>
        <time>2021-08-01T10:09:01Z</time>
      </trkpt>
      <trkpt lat="48.55588" lon="7.13133">
        <ele>651.5</ele>
        <time>2021-08-01T10:09:02Z</time>
      </trkpt>
      <trkpt lat="48.55585" lon="7.13133">
        <ele>651.6</ele>
        <time>2021-08-01T10:09:03Z</time>
      </trkpt>
      <trkpt lat="48.55584" lon="7.13132">
        <ele>651.8</ele>
        <time>2021-08-01T10:09:05Z</time>
      </trkpt>
      <trkpt lat="48.55583" lon="7.13131">
        <ele>651.8</ele>
        <time>2021-08-01T10:09:06Z</time>
      </trkpt>
      <trkpt lat="48.55583" lon="7.13129">
        <ele>651.9</ele>
        <time>2021-08-01T10:09:08Z</time>
      </trkpt>
      <trkpt lat="48.55582" lon="7.13128">
        <ele>651.9</ele>
        <time>2021-08-01T10:09:09Z</time>
      </trkpt>
      <trkpt lat="48.55582" lon="7.13128">
        <ele>651.9</ele>
        <time>2021-08-01T10:09:11Z</time>
      </trkpt>
      <trkpt lat="48.55581" lon="7.13128">
        <ele>651.9</ele>
        <time>2021-08-01T10:09:12Z</time>
      </trkpt>
      <trkpt lat="48.5558" lon="7.13128">
        <ele>652</ele>
        <time>2021-08-01T10:09:14Z</time>
      </trkpt>
      <trkpt lat="48.55578" lon="7.13128">
        <ele>652</ele>
        <time>2021-08-01T10:09:15Z</time>
      </trkpt>
      <trkpt lat="48.55577" lon="7.13127">
        <ele>652</ele>
        <time>2021-08-01T10:09:16Z</time>
      </trkpt>
      <trkpt lat="48.55576" lon="7.13127">
        <ele>652.1</ele>
        <time>2021-08-01T10:09:17Z</time>
      </trkpt>
      <trkpt lat="48.55575" lon="7.13126">
        <ele>652.1</ele>
        <time>2021-08-01T10:09:19Z</time>
      </trkpt>
      <trkpt lat="48.55572" lon="7.13135">
        <ele>652.4</ele>
        <time>2021-08-01T10:09:48Z</time>
      </trkpt>
      <trkpt lat="48.5557" lon="7.13139">
        <ele>652.6</ele>
        <time>2021-08-01T10:09:50Z</time>
      </trkpt>
      <trkpt lat="48.55568" lon="7.13143">
        <ele>652.7</ele>
        <time>2021-08-01T10:09:51Z</time>
      </trkpt>
      <trkpt lat="48.55567" lon="7.13145">
        <ele>652.8</ele>
        <time>2021-08-01T10:09:52Z</time>
      </trkpt>
      <trkpt lat="48.55566" lon="7.13147">
        <ele>652.9</ele>
        <time>2021-08-01T10:09:53Z</time>
      </trkpt>
      <trkpt lat="48.55563" lon="7.1315">
        <ele>653.1</ele>
        <time>2021-08-01T10:09:55Z</time>
      </trkpt>
      <trkpt lat="48.5556" lon="7.13152">
        <ele>653.2</ele>
        <time>2021-08-01T10:09:56Z</time>
      </trkpt>
      <trkpt lat="48.55555" lon="7.13156">
        <ele>653.6</ele>
        <time>2021-08-01T10:09:58Z</time>
      </trkpt>
      <trkpt lat="48.55551" lon="7.1316">
        <ele>654</ele>
        <time>2021-08-01T10:09:59Z</time>
      </trkpt>
      <trkpt lat="48.55549" lon="7.13163">
        <ele>654.3</ele>
        <time>2021-08-01T10:10:00Z</time>
      </trkpt>
      <trkpt lat="48.55547" lon="7.13166">
        <ele>654.6</ele>
        <time>2021-08-01T10:10:02Z</time>
      </trkpt>
      <trkpt lat="48.55546" lon="7.13166">
        <ele>654.7</ele>
        <time>2021-08-01T10:10:03Z</time>
      </trkpt>
      <trkpt lat="48.55545" lon="7.13168">
        <ele>654.8</ele>
        <time>2021-08-01T10:10:05Z</time>
      </trkpt>
      <trkpt lat="48.55545" lon="7.13169">
        <ele>654.9</ele>
        <time>2021-08-01T10:10:07Z</time>
      </trkpt>
      <trkpt lat="48.55546" lon="7.1317">
        <ele>655</ele>
        <time>2021-08-01T10:10:08Z</time>
      </trkpt>
      <trkpt lat="48.55546" lon="7.1317">
        <ele>655.1</ele>
        <time>2021-08-01T10:10:09Z</time>
      </trkpt>
      <trkpt lat="48.55547" lon="7.13171">
        <ele>655.2</ele>
        <time>2021-08-01T10:10:11Z</time>
      </trkpt>
      <trkpt lat="48.55547" lon="7.13172">
        <ele>655.2</ele>
        <time>2021-08-01T10:10:13Z</time>
      </trkpt>
      <trkpt lat="48.55548" lon="7.13172">
        <ele>655.3</ele>
        <time>2021-08-01T10:10:14Z</time>
      </trkpt>
      <trkpt lat="48.55548" lon="7.13172">
        <ele>655.3</ele>
        <time>2021-08-01T10:10:15Z</time>
      </trkpt>
      <trkpt lat="48.55548" lon="7.13173">
        <ele>655.3</ele>
        <time>2021-08-01T10:10:16Z</time>
      </trkpt>
      <trkpt lat="48.55548" lon="7.13173">
        <ele>655.3</ele>
        <time>2021-08-01T10:10:18Z</time>
      </trkpt>
      <trkpt lat="48.55513" lon="7.13266">
        <ele>663.1</ele>
        <time>2021-08-01T10:12:28Z</time>
      </trkpt>
      <trkpt lat="48.5551" lon="7.13266">
        <ele>663.2</ele>
        <time>2021-08-01T10:12:29Z</time>
      </trkpt>
      <trkpt lat="48.55506" lon="7.13266">
        <ele>663.5</ele>
        <time>2021-08-01T10:12:31Z</time>
      </trkpt>
      <trkpt lat="48.55502" lon="7.13267">
        <ele>663.7</ele>
        <time>2021-08-01T10:12:32Z</time>
      </trkpt>
      <trkpt lat="48.55501" lon="7.13267">
        <ele>663.8</ele>
        <time>2021-08-01T10:12:33Z</time>
      </trkpt>
      <trkpt lat="48.55498" lon="7.13266">
        <ele>664</ele>
        <time>2021-08-01T10:12:35Z</time>
      </trkpt>
      <trkpt lat="48.55495" lon="7.13266">
        <ele>664.1</ele>
        <time>2021-08-01T10:12:36Z</time>
      </trkpt>
      <trkpt lat="48.55492" lon="7.13266">
        <ele>664.3</ele>
        <time>2021-08-01T10:12:38Z</time>
      </trkpt>
      <trkpt lat="48.55491" lon="7.13266">
        <ele>664.4</ele>
        <time>2021-08-01T10:12:39Z</time>
      </trkpt>
      <trkpt lat="48.5549" lon="7.13266">
        <ele>664.5</ele>
        <time>2021-08-01T10:12:40Z</time>
      </trkpt>
      <trkpt lat="48.5549" lon="7.13266">
        <ele>664.5</ele>
        <time>2021-08-01T10:12:42Z</time>
      </trkpt>
      <trkpt lat="48.55489" lon="7.13266">
        <ele>664.5</ele>
        <time>2021-08-01T10:12:43Z</time>
      </trkpt>
      <trkpt lat="48.55488" lon="7.13269">
        <ele>664.6</ele>
        <time>2021-08-01T10:12:45Z</time>
      </trkpt>
      <trkpt lat="48.55488" lon="7.13271">
        <ele>664.7</ele>
        <time>2021-08-01T10:12:46Z</time>
      </trkpt>
      <trkpt lat="48.55434" lon="7.13359">
        <ele>672.9</ele>
        <time>2021-08-01T10:14:23Z</time>
      </trkpt>
      <trkpt lat="48.55431" lon="7.13361">
        <ele>673.3</ele>
        <time>2021-08-01T10:14:24Z</time>
      </trkpt>
      <trkpt lat="48.55426" lon="7.13364">
        <ele>673.9</ele>
        <time>2021-08-01T10:14:25Z</time>
      </trkpt>
      <trkpt lat="48.55424" lon="7.13366">
        <ele>674.3</ele>
        <time>2021-08-01T10:14:27Z</time>
      </trkpt>
      <trkpt lat="48.55423" lon="7.13366">
        <ele>674.4</ele>
        <time>2021-08-01T10:14:28Z</time>
      </trkpt>
      <trkpt lat="48.55423" lon="7.13367">
        <ele>674.4</ele>
        <time>2021-08-01T10:14:29Z</time>
      </trkpt>
      <trkpt lat="48.55422" lon="7.13367">
        <ele>674.5</ele>
        <time>2021-08-01T10:14:31Z</time>
      </trkpt>
      <trkpt lat="48.55422" lon="7.13368">
        <ele>674.6</ele>
        <time>2021-08-01T10:14:32Z</time>
      </trkpt>
      <trkpt lat="48.55422" lon="7.13371">
        <ele>674.8</ele>
        <time>2021-08-01T10:14:33Z</time>
      </trkpt>
      <trkpt lat="48.55422" lon="7.13372">
        <ele>675</ele>
        <time>2021-08-01T10:14:34Z</time>
      </trkpt>
      <trkpt lat="48.55422" lon="7.13376">
        <ele>675.3</ele>
        <time>2021-08-01T10:14:36Z</time>
      </trkpt>
      <trkpt lat="48.55422" lon="7.13379">
        <ele>675.6</ele>
        <time>2021-08-01T10:14:38Z</time>
      </trkpt>
      <trkpt lat="48.55422" lon="7.13381">
        <ele>675.8</ele>
        <time>2021-08-01T10:14:39Z</time>
      </trkpt>
      <trkpt lat="48.55421" lon="7.13382">
        <ele>675.9</ele>
        <time>2021-08-01T10:14:41Z</time>
      </trkpt>
      <trkpt lat="48.55421" lon="7.13382">
        <ele>675.9</ele>
        <time>2021-08-01T10:14:42Z</time>
      </trkpt>
      <trkpt lat="48.55421" lon="7.13383">
        <ele>676</ele>
        <time>2021-08-01T10:14:44Z</time>
      </trkpt>
      <trkpt lat="48.55421" lon="7.13383">
        <ele>676</ele>
        <time>2021-08-01T10:14:45Z</time>
      </trkpt>
      <trkpt lat="48.55421" lon="7.13383">
        <ele>676</ele>
        <time>2021-08-01T10:14:47Z</time>
      </trkpt>
      <trkpt lat="48.55421" lon="7.13383">
        <ele>676</ele>
        <time>2021-08-01T10:14:48Z</time>
      </trkpt>
      <trkpt lat="48.55421" lon="7.13384">
        <ele>676.1</ele>
        <time>2021-08-01T10:14:50Z</time>
      </trkpt>
      <trkpt lat="48.55421" lon="7.13384">
        <ele>676.1</ele>
        <time>2021-08-01T10:14:51Z</time>
      </trkpt>
      <trkpt lat="48.55421" lon="7.13385">
        <ele>676.2</ele>
        <time>2021-08-01T10:14:53Z</time>
      </trkpt>
      <trkpt lat="48.55421" lon="7.13385">
        <ele>676.2</ele>
        <time>2021-08-01T10:14:54Z</time>
      </trkpt>
      <trkpt lat="48.55422" lon="7.13386">
        <ele>676.2</ele>
        <time>2021-08-01T10:14:55Z</time>
      </trkpt>
      <trkpt lat="48.55422" lon="7.13386">
        <ele>676.3</ele>
        <time>2021-08-01T10:14:57Z</time>
      </trkpt>
      <trkpt lat="48.55422" lon="7.13386">
        <ele>676.3</ele>
        <time>2021-08-01T10:14:58Z</time>
      </trkpt>
      <trkpt lat="48.55421" lon="7.13388">
        <ele>676.4</ele>
        <time>2021-08-01T10:14:59Z</time>
      </trkpt>
      <trkpt lat="48.55421" lon="7.1339">
        <ele>676.6</ele>
        <time>2021-08-01T10:15:00Z</time>
      </trkpt>
      <trkpt lat="48.5542" lon="7.13392">
        <ele>676.9</ele>
        <time>2021-08-01T10:15:02Z</time>
      </trkpt>
      <trkpt lat="48.55419" lon="7.13394">
        <ele>677</ele>
        <time>2021-08-01T10:15:03Z</time>
      </trkpt>
      <trkpt lat="48.55418" lon="7.13396">
        <ele>677.2</ele>
        <time>2021-08-01T10:15:04Z</time>
      </trkpt>
      <trkpt lat="48.55416" lon="7.13399">
        <ele>677.6</ele>
        <time>2021-08-01T10:15:06Z</time>
      </trkpt>
      <trkpt lat="48.55413" lon="7.13401">
        <ele>678</ele>
        <time>2021-08-01T10:15:07Z</time>
      </trkpt>
      <trkpt lat="48.55411" lon="7.13403">
        <ele>678.3</ele>
        <time>2021-08-01T10:15:08Z</time>
      </trkpt>
      <trkpt lat="48.5541" lon="7.13405">
        <ele>678.5</ele>
        <time>2021-08-01T10:15:10Z</time>
      </trkpt>
      <trkpt lat="48.5541" lon="7.13407">
        <ele>678.7</ele>
        <time>2021-08-01T10:15:11Z</time>
      </trkpt>
      <trkpt lat="48.5541" lon="7.1341">
        <ele>678.9</ele>
        <time>2021-08-01T10:15:12Z</time>
      </trkpt>
      <trkpt lat="48.55411" lon="7.13414">
        <ele>679.2</ele>
        <time>2021-08-01T10:15:13Z</time>
      </trkpt>
      <trkpt lat="48.55413" lon="7.13415">
        <ele>679.5</ele>
        <time>2021-08-01T10:15:15Z</time>
      </trkpt>
      <trkpt lat="48.55413" lon="7.13415">
        <ele>679.6</ele>
        <time>2021-08-01T10:15:16Z</time>
      </trkpt>
      <trkpt lat="48.55414" lon="7.13416">
        <ele>679.7</ele>
        <time>2021-08-01T10:15:17Z</time>
      </trkpt>
      <trkpt lat="48.55415" lon="7.13416">
        <ele>679.8</ele>
        <time>2021-08-01T10:15:18Z</time>
      </trkpt>
      <trkpt lat="48.55416" lon="7.13416">
        <ele>679.9</ele>
        <time>2021-08-01T10:15:20Z</time>
      </trkpt>
      <trkpt lat="48.55417" lon="7.13417">
        <ele>680.1</ele>
        <time>2021-08-01T10:15:22Z</time>
      </trkpt>
      <trkpt lat="48.55418" lon="7.13417">
        <ele>680.2</ele>
        <time>2021-08-01T10:15:23Z</time>
      </trkpt>
      <trkpt lat="48.55418" lon="7.13418">
        <ele>680.3</ele>
        <time>2021-08-01T10:15:25Z</time>
      </trkpt>
      <trkpt lat="48.55418" lon="7.13418">
        <ele>680.3</ele>
        <time>2021-08-01T10:15:26Z</time>
      </trkpt>
      <trkpt lat="48.55419" lon="7.13418">
        <ele>680.4</ele>
        <time>2021-08-01T10:15:28Z</time>
      </trkpt>
      <trkpt lat="48.55419" lon="7.13419">
        <ele>680.4</ele>
        <time>2021-08-01T10:15:29Z</time>
      </trkpt>
      <trkpt lat="48.55419" lon="7.1342">
        <ele>680.6</ele>
        <time>2021-08-01T10:15:30Z</time>
      </trkpt>
      <trkpt lat="48.55418" lon="7.13422">
        <ele>680.8</ele>
        <time>2021-08-01T10:15:31Z</time>
      </trkpt>
      <trkpt lat="48.55417" lon="7.13427">
        <ele>681.2</ele>
        <time>2021-08-01T10:15:33Z</time>
      </trkpt>
      <trkpt lat="48.55417" lon="7.13428">
        <ele>681.4</ele>
        <time>2021-08-01T10:15:34Z</time>
      </trkpt>
      <trkpt lat="48.55416" lon="7.13431">
        <ele>681.6</ele>
        <time>2021-08-01T10:15:36Z</time>
      </trkpt>
      <trkpt lat="48.55416" lon="7.13433">
        <ele>681.8</ele>
        <time>2021-08-01T10:15:37Z</time>
      </trkpt>
      <trkpt lat="48.55416" lon="7.13434">
        <ele>682</ele>
        <time>2021-08-01T10:15:39Z</time>
      </trkpt>
      <trkpt lat="48.55415" lon="7.13436">
        <ele>682.1</ele>
        <time>2021-08-01T10:15:40Z</time>
      </trkpt>
      <trkpt lat="48.55415" lon="7.13438">
        <ele>682.3</ele>
        <time>2021-08-01T10:15:41Z</time>
      </trkpt>
      <trkpt lat="48.55414" lon="7.13441">
        <ele>682.6</ele>
        <time>2021-08-01T10:15:42Z</time>
      </trkpt>
      <trkpt lat="48.55413" lon="7.13444">
        <ele>682.8</ele>
        <time>2021-08-01T10:15:44Z</time>
      </trkpt>
      <trkpt lat="48.55413" lon="7.13445">
        <ele>683</ele>
        <time>2021-08-01T10:15:45Z</time>
      </trkpt>
      <trkpt lat="48.55413" lon="7.13447">
        <ele>683.1</ele>
        <time>2021-08-01T10:15:47Z</time>
      </trkpt>
      <trkpt lat="48.55413" lon="7.13448">
        <ele>683.2</ele>
        <time>2021-08-01T10:15:48Z</time>
      </trkpt>
      <trkpt lat="48.55413" lon="7.13448">
        <ele>683.2</ele>
        <time>2021-08-01T10:15:49Z</time>
      </trkpt>
      <trkpt lat="48.55412" lon="7.13453">
        <ele>683.5</ele>
        <time>2021-08-01T10:15:51Z</time>
      </trkpt>
      <trkpt lat="48.55411" lon="7.13458">
        <ele>683.9</ele>
        <time>2021-08-01T10:15:52Z</time>
      </trkpt>
      <trkpt lat="48.55411" lon="7.1346">
        <ele>684.1</ele>
        <time>2021-08-01T10:15:53Z</time>
      </trkpt>
      <trkpt lat="48.5541" lon="7.13463">
        <ele>684.2</ele>
        <time>2021-08-01T10:15:54Z</time>
      </trkpt>
      <trkpt lat="48.5541" lon="7.13464">
        <ele>684.3</ele>
        <time>2021-08-01T10:15:55Z</time>
      </trkpt>
      <trkpt lat="48.5541" lon="7.13466">
        <ele>684.4</ele>
        <time>2021-08-01T10:15:56Z</time>
      </trkpt>
      <trkpt lat="48.5541" lon="7.13467">
        <ele>684.5</ele>
        <time>2021-08-01T10:15:58Z</time>
      </trkpt>
      <trkpt lat="48.5541" lon="7.13468">
        <ele>684.6</ele>
        <time>2021-08-01T10:15:59Z</time>
      </trkpt>
      <trkpt lat="48.5541" lon="7.13469">
        <ele>684.6</ele>
        <time>2021-08-01T10:16:00Z</time>
      </trkpt>
      <trkpt lat="48.5541" lon="7.13469">
        <ele>684.7</ele>
        <time>2021-08-01T10:16:02Z</time>
      </trkpt>
      <trkpt lat="48.5541" lon="7.1347">
        <ele>684.7</ele>
        <time>2021-08-01T10:16:04Z</time>
      </trkpt>
      <trkpt lat="48.5541" lon="7.1347">
        <ele>684.7</ele>
        <time>2021-08-01T10:16:05Z</time>
      </trkpt>
      <trkpt lat="48.5541" lon="7.1347">
        <ele>684.8</ele>
        <time>2021-08-01T10:16:06Z</time>
      </trkpt>
      <trkpt lat="48.5541" lon="7.13474">
        <ele>684.8</ele>
        <time>2021-08-01T10:16:07Z</time>
      </trkpt>
      <trkpt lat="48.5541" lon="7.13477">
        <ele>684.9</ele>
        <time>2021-08-01T10:16:09Z</time>
      </trkpt>
      <trkpt lat="48.5541" lon="7.1348">
        <ele>685</ele>
        <time>2021-08-01T10:16:11Z</time>
      </trkpt>
      <trkpt lat="48.5541" lon="7.13481">
        <ele>685.1</ele>
        <time>2021-08-01T10:16:12Z</time>
      </trkpt>
      <trkpt lat="48.5541" lon="7.13483">
        <ele>685.2</ele>
        <time>2021-08-01T10:16:13Z</time>
      </trkpt>
      <trkpt lat="48.55411" lon="7.13484">
        <ele>685.3</ele>
        <time>2021-08-01T10:16:14Z</time>
      </trkpt>
      <trkpt lat="48.55411" lon="7.13487">
        <ele>685.4</ele>
        <time>2021-08-01T10:16:15Z</time>
      </trkpt>
      <trkpt lat="48.5541" lon="7.13489">
        <ele>685.4</ele>
        <time>2021-08-01T10:16:17Z</time>
      </trkpt>
      <trkpt lat="48.55408" lon="7.13492">
        <ele>685.7</ele>
        <time>2021-08-01T10:16:18Z</time>
      </trkpt>
      <trkpt lat="48.55407" lon="7.13498">
        <ele>685.9</ele>
        <time>2021-08-01T10:16:20Z</time>
      </trkpt>
      <trkpt lat="48.55408" lon="7.13502">
        <ele>686.1</ele>
        <time>2021-08-01T10:16:21Z</time>
      </trkpt>
      <trkpt lat="48.55409" lon="7.13514">
        <ele>686.6</ele>
        <time>2021-08-01T10:16:23Z</time>
      </trkpt>
      <trkpt lat="48.55409" lon="7.13519">
        <ele>686.8</ele>
        <time>2021-08-01T10:16:25Z</time>
      </trkpt>
      <trkpt lat="48.55408" lon="7.13522">
        <ele>686.9</ele>
        <time>2021-08-01T10:16:26Z</time>
      </trkpt>
      <trkpt lat="48.55407" lon="7.13527">
        <ele>687.1</ele>
        <time>2021-08-01T10:16:28Z</time>
      </trkpt>
      <trkpt lat="48.55407" lon="7.13529">
        <ele>687.2</ele>
        <time>2021-08-01T10:16:29Z</time>
      </trkpt>
      <trkpt lat="48.55406" lon="7.13533">
        <ele>687.3</ele>
        <time>2021-08-01T10:16:31Z</time>
      </trkpt>
      <trkpt lat="48.55406" lon="7.13535">
        <ele>687.4</ele>
        <time>2021-08-01T10:16:32Z</time>
      </trkpt>
      <trkpt lat="48.55406" lon="7.1354">
        <ele>687.6</ele>
        <time>2021-08-01T10:16:34Z</time>
      </trkpt>
      <trkpt lat="48.55406" lon="7.13539">
        <ele>687.6</ele>
        <time>2021-08-01T10:16:35Z</time>
      </trkpt>
      <trkpt lat="48.55406" lon="7.1354">
        <ele>687.6</ele>
        <time>2021-08-01T10:16:37Z</time>
      </trkpt>
      <trkpt lat="48.55406" lon="7.1354">
        <ele>687.6</ele>
        <time>2021-08-01T10:16:38Z</time>
      </trkpt>
      <trkpt lat="48.55406" lon="7.13541">
        <ele>687.6</ele>
        <time>2021-08-01T10:16:39Z</time>
      </trkpt>
      <trkpt lat="48.55405" lon="7.13542">
        <ele>687.7</ele>
        <time>2021-08-01T10:16:40Z</time>
      </trkpt>
      <trkpt lat="48.55405" lon="7.13544">
        <ele>687.8</ele>
        <time>2021-08-01T10:16:42Z</time>
      </trkpt>
      <trkpt lat="48.55397" lon="7.13582">
        <ele>689</ele>
        <time>2021-08-01T10:16:58Z</time>
      </trkpt>
      <trkpt lat="48.55396" lon="7.13586">
        <ele>689.2</ele>
        <time>2021-08-01T10:16:59Z</time>
      </trkpt>
      <trkpt lat="48.55395" lon="7.1359">
        <ele>689.4</ele>
        <time>2021-08-01T10:17:00Z</time>
      </trkpt>
      <trkpt lat="48.55394" lon="7.13599">
        <ele>689.8</ele>
        <time>2021-08-01T10:17:01Z</time>
      </trkpt>
      <trkpt lat="48.55392" lon="7.13608">
        <ele>690.4</ele>
        <time>2021-08-01T10:17:03Z</time>
      </trkpt>
      <trkpt lat="48.5539" lon="7.13615">
        <ele>690.9</ele>
        <time>2021-08-01T10:17:04Z</time>
      </trkpt>
      <trkpt lat="48.55388" lon="7.13619">
        <ele>691.2</ele>
        <time>2021-08-01T10:17:05Z</time>
      </trkpt>
      <trkpt lat="48.55387" lon="7.13624">
        <ele>691.6</ele>
        <time>2021-08-01T10:17:06Z</time>
      </trkpt>
      <trkpt lat="48.55385" lon="7.1363">
        <ele>692</ele>
        <time>2021-08-01T10:17:08Z</time>
      </trkpt>
      <trkpt lat="48.55384" lon="7.13632">
        <ele>692.2</ele>
        <time>2021-08-01T10:17:09Z</time>
      </trkpt>
      <trkpt lat="48.55383" lon="7.13633">
        <ele>692.3</ele>
        <time>2021-08-01T10:17:10Z</time>
      </trkpt>
      <trkpt lat="48.55381" lon="7.13634">
        <ele>692.5</ele>
        <time>2021-08-01T10:17:11Z</time>
      </trkpt>
      <trkpt lat="48.5538" lon="7.13636">
        <ele>692.7</ele>
        <time>2021-08-01T10:17:12Z</time>
      </trkpt>
      <trkpt lat="48.55379" lon="7.13638">
        <ele>692.8</ele>
        <time>2021-08-01T10:17:14Z</time>
      </trkpt>
      <trkpt lat="48.5538" lon="7.13639">
        <ele>692.9</ele>
        <time>2021-08-01T10:17:15Z</time>
      </trkpt>
      <trkpt lat="48.5538" lon="7.1364">
        <ele>693</ele>
        <time>2021-08-01T10:17:16Z</time>
      </trkpt>
      <trkpt lat="48.55381" lon="7.1364">
        <ele>693</ele>
        <time>2021-08-01T10:17:17Z</time>
      </trkpt>
      <trkpt lat="48.55381" lon="7.1364">
        <ele>693</ele>
        <time>2021-08-01T10:17:18Z</time>
      </trkpt>
      <trkpt lat="48.55381" lon="7.13641">
        <ele>693.1</ele>
        <time>2021-08-01T10:17:20Z</time>
      </trkpt>
      <trkpt lat="48.55381" lon="7.13642">
        <ele>693.2</ele>
        <time>2021-08-01T10:17:21Z</time>
      </trkpt>
      <trkpt lat="48.55382" lon="7.13645">
        <ele>693.4</ele>
        <time>2021-08-01T10:17:22Z</time>
      </trkpt>
      <trkpt lat="48.55396" lon="7.13703">
        <ele>698.7</ele>
        <time>2021-08-01T10:17:57Z</time>
      </trkpt>
      <trkpt lat="48.55395" lon="7.13708">
        <ele>699.2</ele>
        <time>2021-08-01T10:17:58Z</time>
      </trkpt>
      <trkpt lat="48.55396" lon="7.13711">
        <ele>699.5</ele>
        <time>2021-08-01T10:17:59Z</time>
      </trkpt>
      <trkpt lat="48.55398" lon="7.13717">
        <ele>700.1</ele>
        <time>2021-08-01T10:18:01Z</time>
      </trkpt>
      <trkpt lat="48.55399" lon="7.13722">
        <ele>700.5</ele>
        <time>2021-08-01T10:18:02Z</time>
      </trkpt>
      <trkpt lat="48.55398" lon="7.13726">
        <ele>700.9</ele>
        <time>2021-08-01T10:18:04Z</time>
      </trkpt>
      <trkpt lat="48.55398" lon="7.13727">
        <ele>701</ele>
        <time>2021-08-01T10:18:05Z</time>
      </trkpt>
      <trkpt lat="48.55395" lon="7.13729">
        <ele>701.3</ele>
        <time>2021-08-01T10:18:06Z</time>
      </trkpt>
      <trkpt lat="48.55394" lon="7.13731">
        <ele>701.5</ele>
        <time>2021-08-01T10:18:07Z</time>
      </trkpt>
      <trkpt lat="48.55393" lon="7.13732">
        <ele>701.6</ele>
        <time>2021-08-01T10:18:09Z</time>
      </trkpt>
      <trkpt lat="48.55393" lon="7.13733">
        <ele>701.7</ele>
        <time>2021-08-01T10:18:10Z</time>
      </trkpt>
      <trkpt lat="48.55392" lon="7.13735">
        <ele>701.8</ele>
        <time>2021-08-01T10:18:11Z</time>
      </trkpt>
      <trkpt lat="48.55391" lon="7.13736">
        <ele>702</ele>
        <time>2021-08-01T10:18:12Z</time>
      </trkpt>
      <trkpt lat="48.5539" lon="7.13737">
        <ele>702.1</ele>
        <time>2021-08-01T10:18:14Z</time>
      </trkpt>
      <trkpt lat="48.55389" lon="7.13739">
        <ele>702.3</ele>
        <time>2021-08-01T10:18:16Z</time>
      </trkpt>
      <trkpt lat="48.55389" lon="7.1374">
        <ele>702.4</ele>
        <time>2021-08-01T10:18:17Z</time>
      </trkpt>
      <trkpt lat="48.55388" lon="7.13741">
        <ele>702.5</ele>
        <time>2021-08-01T10:18:19Z</time>
      </trkpt>
      <trkpt lat="48.55387" lon="7.13742">
        <ele>702.6</ele>
        <time>2021-08-01T10:18:20Z</time>
      </trkpt>
      <trkpt lat="48.55386" lon="7.13744">
        <ele>702.8</ele>
        <time>2021-08-01T10:18:21Z</time>
      </trkpt>
      <trkpt lat="48.55365" lon="7.13834">
        <ele>711.5</ele>
        <time>2021-08-01T10:19:33Z</time>
      </trkpt>
      <trkpt lat="48.55364" lon="7.13838">
        <ele>711.8</ele>
        <time>2021-08-01T10:19:35Z</time>
      </trkpt>
      <trkpt lat="48.55364" lon="7.13841">
        <ele>712.1</ele>
        <time>2021-08-01T10:19:36Z</time>
      </trkpt>
      <trkpt lat="48.55364" lon="7.13842">
        <ele>712.2</ele>
        <time>2021-08-01T10:19:38Z</time>
      </trkpt>
      <trkpt lat="48.55363" lon="7.13843">
        <ele>712.3</ele>
        <time>2021-08-01T10:19:39Z</time>
      </trkpt>
      <trkpt lat="48.55363" lon="7.13844">
        <ele>712.4</ele>
        <time>2021-08-01T10:19:41Z</time>
      </trkpt>
      <trkpt lat="48.55364" lon="7.13845">
        <ele>712.5</ele>
        <time>2021-08-01T10:19:42Z</time>
      </trkpt>
      <trkpt lat="48.55365" lon="7.13846">
        <ele>712.7</ele>
        <time>2021-08-01T10:19:43Z</time>
      </trkpt>
      <trkpt lat="48.55366" lon="7.13848">
        <ele>712.9</ele>
        <time>2021-08-01T10:19:45Z</time>
      </trkpt>
      <trkpt lat="48.55294" lon="7.14062">
        <ele>731</ele>
        <time>2021-08-01T10:22:57Z</time>
      </trkpt>
      <trkpt lat="48.55292" lon="7.14067">
        <ele>731.2</ele>
        <time>2021-08-01T10:22:58Z</time>
      </trkpt>
      <trkpt lat="48.55291" lon="7.1407">
        <ele>731.3</ele>
        <time>2021-08-01T10:22:59Z</time>
      </trkpt>
      <trkpt lat="48.55288" lon="7.14075">
        <ele>731.5</ele>
        <time>2021-08-01T10:23:01Z</time>
      </trkpt>
      <trkpt lat="48.55286" lon="7.14079">
        <ele>731.6</ele>
        <time>2021-08-01T10:23:03Z</time>
      </trkpt>
      <trkpt lat="48.55283" lon="7.14083">
        <ele>731.8</ele>
        <time>2021-08-01T10:23:04Z</time>
      </trkpt>
      <trkpt lat="48.55283" lon="7.14083">
        <ele>731.8</ele>
        <time>2021-08-01T10:23:05Z</time>
      </trkpt>
      <trkpt lat="48.55281" lon="7.14084">
        <ele>731.9</ele>
        <time>2021-08-01T10:23:06Z</time>
      </trkpt>
      <trkpt lat="48.55279" lon="7.14086">
        <ele>732</ele>
        <time>2021-08-01T10:23:08Z</time>
      </trkpt>
      <trkpt lat="48.55275" lon="7.14091">
        <ele>732.2</ele>
        <time>2021-08-01T10:23:10Z</time>
      </trkpt>
      <trkpt lat="48.55271" lon="7.14094">
        <ele>732.3</ele>
        <time>2021-08-01T10:23:12Z</time>
      </trkpt>
      <trkpt lat="48.55269" lon="7.14097">
        <ele>732.4</ele>
        <time>2021-08-01T10:23:13Z</time>
      </trkpt>
      <trkpt lat="48.55265" lon="7.14098">
        <ele>732.6</ele>
        <time>2021-08-01T10:23:14Z</time>
      </trkpt>
      <trkpt lat="48.55262" lon="7.14098">
        <ele>732.7</ele>
        <time>2021-08-01T10:23:16Z</time>
      </trkpt>
      <trkpt lat="48.55261" lon="7.14099">
        <ele>732.7</ele>
        <time>2021-08-01T10:23:17Z</time>
      </trkpt>
      <trkpt lat="48.55258" lon="7.141">
        <ele>732.9</ele>
        <time>2021-08-01T10:23:18Z</time>
      </trkpt>
      <trkpt lat="48.55256" lon="7.14103">
        <ele>733</ele>
        <time>2021-08-01T10:23:19Z</time>
      </trkpt>
      <trkpt lat="48.55253" lon="7.14109">
        <ele>733.2</ele>
        <time>2021-08-01T10:23:21Z</time>
      </trkpt>
      <trkpt lat="48.5525" lon="7.14116">
        <ele>733.5</ele>
        <time>2021-08-01T10:23:23Z</time>
      </trkpt>
      <trkpt lat="48.55248" lon="7.14124">
        <ele>733.7</ele>
        <time>2021-08-01T10:23:25Z</time>
      </trkpt>
      <trkpt lat="48.55247" lon="7.14128">
        <ele>733.9</ele>
        <time>2021-08-01T10:23:26Z</time>
      </trkpt>
      <trkpt lat="48.55247" lon="7.1413">
        <ele>734</ele>
        <time>2021-08-01T10:23:27Z</time>
      </trkpt>
      <trkpt lat="48.55246" lon="7.14134">
        <ele>734.1</ele>
        <time>2021-08-01T10:23:29Z</time>
      </trkpt>
      <trkpt lat="48.55245" lon="7.14139">
        <ele>734.3</ele>
        <time>2021-08-01T10:23:30Z</time>
      </trkpt>
      <trkpt lat="48.55244" lon="7.14145">
        <ele>734.5</ele>
        <time>2021-08-01T10:23:31Z</time>
      </trkpt>
      <trkpt lat="48.55241" lon="7.14151">
        <ele>734.7</ele>
        <time>2021-08-01T10:23:33Z</time>
      </trkpt>
      <trkpt lat="48.5524" lon="7.14154">
        <ele>734.9</ele>
        <time>2021-08-01T10:23:34Z</time>
      </trkpt>
      <trkpt lat="48.55237" lon="7.14159">
        <ele>735.1</ele>
        <time>2021-08-01T10:23:36Z</time>
      </trkpt>
      <trkpt lat="48.55235" lon="7.14163">
        <ele>735.3</ele>
        <time>2021-08-01T10:23:37Z</time>
      </trkpt>
      <trkpt lat="48.55233" lon="7.14166">
        <ele>735.5</ele>
        <time>2021-08-01T10:23:38Z</time>
      </trkpt>
      <trkpt lat="48.55231" lon="7.14169">
        <ele>735.6</ele>
        <time>2021-08-01T10:23:39Z</time>
      </trkpt>
      <trkpt lat="48.5523" lon="7.14171">
        <ele>735.7</ele>
        <time>2021-08-01T10:23:41Z</time>
      </trkpt>
      <trkpt lat="48.55228" lon="7.14175">
        <ele>735.9</ele>
        <time>2021-08-01T10:23:42Z</time>
      </trkpt>
      <trkpt lat="48.55227" lon="7.14176">
        <ele>735.9</ele>
        <time>2021-08-01T10:23:43Z</time>
      </trkpt>
      <trkpt lat="48.55226" lon="7.14179">
        <ele>736</ele>
        <time>2021-08-01T10:23:44Z</time>
      </trkpt>
      <trkpt lat="48.55225" lon="7.1418">
        <ele>736</ele>
        <time>2021-08-01T10:23:45Z</time>
      </trkpt>
      <trkpt lat="48.55224" lon="7.14184">
        <ele>736.1</ele>
        <time>2021-08-01T10:23:47Z</time>
      </trkpt>
      <trkpt lat="48.55223" lon="7.14186">
        <ele>736.2</ele>
        <time>2021-08-01T10:23:48Z</time>
      </trkpt>
      <trkpt lat="48.5522" lon="7.14189">
        <ele>736.3</ele>
        <time>2021-08-01T10:23:49Z</time>
      </trkpt>
      <trkpt lat="48.55219" lon="7.14191">
        <ele>736.3</ele>
        <time>2021-08-01T10:23:50Z</time>
      </trkpt>
      <trkpt lat="48.55215" lon="7.14195">
        <ele>736.4</ele>
        <time>2021-08-01T10:23:52Z</time>
      </trkpt>
      <trkpt lat="48.55213" lon="7.14198">
        <ele>736.5</ele>
        <time>2021-08-01T10:23:53Z</time>
      </trkpt>
      <trkpt lat="48.55211" lon="7.14201">
        <ele>736.5</ele>
        <time>2021-08-01T10:23:54Z</time>
      </trkpt>
      <trkpt lat="48.55208" lon="7.14203">
        <ele>736.6</ele>
        <time>2021-08-01T10:23:55Z</time>
      </trkpt>
      <trkpt lat="48.55205" lon="7.14205">
        <ele>736.7</ele>
        <time>2021-08-01T10:23:56Z</time>
      </trkpt>
      <trkpt lat="48.55199" lon="7.14206">
        <ele>736.8</ele>
        <time>2021-08-01T10:23:58Z</time>
      </trkpt>
      <trkpt lat="48.55197" lon="7.14207">
        <ele>736.8</ele>
        <time>2021-08-01T10:23:59Z</time>
      </trkpt>
      <trkpt lat="48.55194" lon="7.14209">
        <ele>736.9</ele>
        <time>2021-08-01T10:24:01Z</time>
      </trkpt>
      <trkpt lat="48.55193" lon="7.1421">
        <ele>736.9</ele>
        <time>2021-08-01T10:24:02Z</time>
      </trkpt>
      <trkpt lat="48.55189" lon="7.14211">
        <ele>737</ele>
        <time>2021-08-01T10:24:04Z</time>
      </trkpt>
      <trkpt lat="48.55186" lon="7.14211">
        <ele>737.1</ele>
        <time>2021-08-01T10:24:05Z</time>
      </trkpt>
      <trkpt lat="48.55185" lon="7.14211">
        <ele>737.1</ele>
        <time>2021-08-01T10:24:06Z</time>
      </trkpt>
      <trkpt lat="48.55181" lon="7.14211">
        <ele>737.2</ele>
        <time>2021-08-01T10:24:08Z</time>
      </trkpt>
      <trkpt lat="48.55178" lon="7.14213">
        <ele>737.2</ele>
        <time>2021-08-01T10:24:09Z</time>
      </trkpt>
      <trkpt lat="48.55172" lon="7.14217">
        <ele>737.3</ele>
        <time>2021-08-01T10:24:10Z</time>
      </trkpt>
      <trkpt lat="48.55167" lon="7.1422">
        <ele>737.3</ele>
        <time>2021-08-01T10:24:11Z</time>
      </trkpt>
      <trkpt lat="48.55161" lon="7.14222">
        <ele>737.4</ele>
        <time>2021-08-01T10:24:13Z</time>
      </trkpt>
      <trkpt lat="48.55153" lon="7.14227">
        <ele>737.5</ele>
        <time>2021-08-01T10:24:15Z</time>
      </trkpt>
      <trkpt lat="48.55147" lon="7.14231">
        <ele>737.6</ele>
        <time>2021-08-01T10:24:17Z</time>
      </trkpt>
      <trkpt lat="48.55143" lon="7.14232">
        <ele>737.7</ele>
        <time>2021-08-01T10:24:18Z</time>
      </trkpt>
      <trkpt lat="48.55139" lon="7.14234">
        <ele>737.8</ele>
        <time>2021-08-01T10:24:19Z</time>
      </trkpt>
      <trkpt lat="48.55135" lon="7.1424">
        <ele>738</ele>
        <time>2021-08-01T10:24:20Z</time>
      </trkpt>
      <trkpt lat="48.55131" lon="7.14245">
        <ele>738.2</ele>
        <time>2021-08-01T10:24:22Z</time>
      </trkpt>
      <trkpt lat="48.55129" lon="7.14248">
        <ele>738.3</ele>
        <time>2021-08-01T10:24:23Z</time>
      </trkpt>
      <trkpt lat="48.55124" lon="7.14253">
        <ele>738.6</ele>
        <time>2021-08-01T10:24:25Z</time>
      </trkpt>
      <trkpt lat="48.55122" lon="7.14257">
        <ele>738.7</ele>
        <time>2021-08-01T10:24:26Z</time>
      </trkpt>
      <trkpt lat="48.5512" lon="7.14259">
        <ele>738.9</ele>
        <time>2021-08-01T10:24:28Z</time>
      </trkpt>
      <trkpt lat="48.55117" lon="7.14259">
        <ele>739</ele>
        <time>2021-08-01T10:24:29Z</time>
      </trkpt>
      <trkpt lat="48.55114" lon="7.14259">
        <ele>739.2</ele>
        <time>2021-08-01T10:24:30Z</time>
      </trkpt>
      <trkpt lat="48.55112" lon="7.14259">
        <ele>739.2</ele>
        <time>2021-08-01T10:24:31Z</time>
      </trkpt>
      <trkpt lat="48.5511" lon="7.14258">
        <ele>739.4</ele>
        <time>2021-08-01T10:24:32Z</time>
      </trkpt>
      <trkpt lat="48.55106" lon="7.14258">
        <ele>739.6</ele>
        <time>2021-08-01T10:24:34Z</time>
      </trkpt>
      <trkpt lat="48.55103" lon="7.14259">
        <ele>739.8</ele>
        <time>2021-08-01T10:24:35Z</time>
      </trkpt>
      <trkpt lat="48.551" lon="7.1426">
        <ele>740.1</ele>
        <time>2021-08-01T10:24:36Z</time>
      </trkpt>
      <trkpt lat="48.55099" lon="7.1426">
        <ele>740.1</ele>
        <time>2021-08-01T10:24:37Z</time>
      </trkpt>
      <trkpt lat="48.55096" lon="7.14259">
        <ele>740.4</ele>
        <time>2021-08-01T10:24:39Z</time>
      </trkpt>
      <trkpt lat="48.55095" lon="7.14259">
        <ele>740.5</ele>
        <time>2021-08-01T10:24:40Z</time>
      </trkpt>
      <trkpt lat="48.55094" lon="7.14257">
        <ele>740.6</ele>
        <time>2021-08-01T10:24:41Z</time>
      </trkpt>
      <trkpt lat="48.55094" lon="7.14256">
        <ele>740.7</ele>
        <time>2021-08-01T10:24:43Z</time>
      </trkpt>
      <trkpt lat="48.55094" lon="7.14256">
        <ele>740.7</ele>
        <time>2021-08-01T10:24:44Z</time>
      </trkpt>
      <trkpt lat="48.55094" lon="7.14255">
        <ele>740.7</ele>
        <time>2021-08-01T10:24:46Z</time>
      </trkpt>
      <trkpt lat="48.55093" lon="7.14255">
        <ele>740.7</ele>
        <time>2021-08-01T10:24:47Z</time>
      </trkpt>
      <trkpt lat="48.55093" lon="7.14255">
        <ele>740.8</ele>
        <time>2021-08-01T10:24:48Z</time>
      </trkpt>
      <trkpt lat="48.5509" lon="7.14255">
        <ele>741</ele>
        <time>2021-08-01T10:24:49Z</time>
      </trkpt>
      <trkpt lat="48.55089" lon="7.14255">
        <ele>741.1</ele>
        <time>2021-08-01T10:24:50Z</time>
      </trkpt>
      <trkpt lat="48.55088" lon="7.14256">
        <ele>741.2</ele>
        <time>2021-08-01T10:24:51Z</time>
      </trkpt>
      <trkpt lat="48.55068" lon="7.14259">
        <ele>742.8</ele>
        <time>2021-08-01T10:25:03Z</time>
      </trkpt>
      <trkpt lat="48.55064" lon="7.1426">
        <ele>743.1</ele>
        <time>2021-08-01T10:25:04Z</time>
      </trkpt>
      <trkpt lat="48.5506" lon="7.14261">
        <ele>743.5</ele>
        <time>2021-08-01T10:25:06Z</time>
      </trkpt>
      <trkpt lat="48.55058" lon="7.14262">
        <ele>743.6</ele>
        <time>2021-08-01T10:25:07Z</time>
      </trkpt>
      <trkpt lat="48.55054" lon="7.14263">
        <ele>743.8</ele>
        <time>2021-08-01T10:25:08Z</time>
      </trkpt>
      <trkpt lat="48.5505" lon="7.14263">
        <ele>743.9</ele>
        <time>2021-08-01T10:25:10Z</time>
      </trkpt>
      <trkpt lat="48.55048" lon="7.14262">
        <ele>744</ele>
        <time>2021-08-01T10:25:11Z</time>
      </trkpt>
      <trkpt lat="48.55047" lon="7.1426">
        <ele>744.1</ele>
        <time>2021-08-01T10:25:13Z</time>
      </trkpt>
      <trkpt lat="48.55045" lon="7.14256">
        <ele>744.1</ele>
        <time>2021-08-01T10:25:14Z</time>
      </trkpt>
      <trkpt lat="48.55044" lon="7.14255">
        <ele>744.2</ele>
        <time>2021-08-01T10:25:15Z</time>
      </trkpt>
      <trkpt lat="48.5504" lon="7.14253">
        <ele>744.2</ele>
        <time>2021-08-01T10:25:17Z</time>
      </trkpt>
      <trkpt lat="48.55037" lon="7.14251">
        <ele>744.3</ele>
        <time>2021-08-01T10:25:18Z</time>
      </trkpt>
      <trkpt lat="48.55034" lon="7.1425">
        <ele>744.3</ele>
        <time>2021-08-01T10:25:20Z</time>
      </trkpt>
      <trkpt lat="48.55032" lon="7.1425">
        <ele>744.3</ele>
        <time>2021-08-01T10:25:21Z</time>
      </trkpt>
      <trkpt lat="48.55031" lon="7.1425">
        <ele>744.3</ele>
        <time>2021-08-01T10:25:22Z</time>
      </trkpt>
      <trkpt lat="48.5503" lon="7.14251">
        <ele>744.3</ele>
        <time>2021-08-01T10:25:23Z</time>
      </trkpt>
      <trkpt lat="48.55029" lon="7.14252">
        <ele>744.3</ele>
        <time>2021-08-01T10:25:25Z</time>
      </trkpt>
      <trkpt lat="48.55029" lon="7.14252">
        <ele>744.3</ele>
        <time>2021-08-01T10:25:26Z</time>
      </trkpt>
      <trkpt lat="48.55028" lon="7.14253">
        <ele>744.3</ele>
        <time>2021-08-01T10:25:27Z</time>
      </trkpt>
      <trkpt lat="48.55028" lon="7.14253">
        <ele>744.3</ele>
        <time>2021-08-01T10:25:29Z</time>
      </trkpt>
      <trkpt lat="48.55028" lon="7.14253">
        <ele>744.3</ele>
        <time>2021-08-01T10:25:30Z</time>
      </trkpt>
      <trkpt lat="48.55027" lon="7.14253">
        <ele>744.3</ele>
        <time>2021-08-01T10:25:32Z</time>
      </trkpt>
      <trkpt lat="48.55005" lon="7.14261">
        <ele>743.8</ele>
        <time>2021-08-01T10:26:57Z</time>
      </trkpt>
      <trkpt lat="48.55002" lon="7.14262">
        <ele>743.6</ele>
        <time>2021-08-01T10:26:58Z</time>
      </trkpt>
      <trkpt lat="48.54997" lon="7.14262">
        <ele>743.2</ele>
        <time>2021-08-01T10:27:00Z</time>
      </trkpt>
      <trkpt lat="48.5499" lon="7.1426">
        <ele>742.7</ele>
        <time>2021-08-01T10:27:01Z</time>
      </trkpt>
      <trkpt lat="48.54984" lon="7.1426">
        <ele>742.3</ele>
        <time>2021-08-01T10:27:02Z</time>
      </trkpt>
      <trkpt lat="48.54979" lon="7.14259">
        <ele>741.9</ele>
        <time>2021-08-01T10:27:04Z</time>
      </trkpt>
      <trkpt lat="48.54973" lon="7.14257">
        <ele>741.6</ele>
        <time>2021-08-01T10:27:05Z</time>
      </trkpt>
      <trkpt lat="48.54968" lon="7.14254">
        <ele>741.3</ele>
        <time>2021-08-01T10:27:06Z</time>
      </trkpt>
      <trkpt lat="48.54962" lon="7.1425">
        <ele>741.1</ele>
        <time>2021-08-01T10:27:07Z</time>
      </trkpt>
      <trkpt lat="48.54958" lon="7.1425">
        <ele>740.9</ele>
        <time>2021-08-01T10:27:09Z</time>
      </trkpt>
      <trkpt lat="48.54955" lon="7.14251">
        <ele>740.9</ele>
        <time>2021-08-01T10:27:10Z</time>
      </trkpt>
      <trkpt lat="48.54955" lon="7.14253">
        <ele>740.8</ele>
        <time>2021-08-01T10:27:11Z</time>
      </trkpt>
      <trkpt lat="48.54956" lon="7.14254">
        <ele>740.8</ele>
        <time>2021-08-01T10:27:13Z</time>
      </trkpt>
      <trkpt lat="48.54956" lon="7.14254">
        <ele>740.8</ele>
        <time>2021-08-01T10:27:14Z</time>
      </trkpt>
      <trkpt lat="48.54955" lon="7.14254">
        <ele>740.8</ele>
        <time>2021-08-01T10:27:16Z</time>
      </trkpt>
      <trkpt lat="48.54954" lon="7.14254">
        <ele>740.7</ele>
        <time>2021-08-01T10:27:17Z</time>
      </trkpt>
      <trkpt lat="48.54949" lon="7.14253">
        <ele>740.6</ele>
        <time>2021-08-01T10:27:18Z</time>
      </trkpt>
      <trkpt lat="48.54946" lon="7.14252">
        <ele>740.5</ele>
        <time>2021-08-01T10:27:19Z</time>
      </trkpt>
      <trkpt lat="48.54942" lon="7.14251">
        <ele>740.4</ele>
        <time>2021-08-01T10:27:20Z</time>
      </trkpt>
      <trkpt lat="48.54927" lon="7.14242">
        <ele>739.8</ele>
        <time>2021-08-01T10:27:22Z</time>
      </trkpt>
      <trkpt lat="48.54922" lon="7.14239">
        <ele>739.7</ele>
        <time>2021-08-01T10:27:23Z</time>
      </trkpt>
      <trkpt lat="48.54916" lon="7.14237">
        <ele>739.5</ele>
        <time>2021-08-01T10:27:24Z</time>
      </trkpt>
      <trkpt lat="48.54912" lon="7.14237">
        <ele>739.4</ele>
        <time>2021-08-01T10:27:26Z</time>
      </trkpt>
      <trkpt lat="48.54908" lon="7.14238">
        <ele>739.3</ele>
        <time>2021-08-01T10:27:27Z</time>
      </trkpt>
      <trkpt lat="48.54906" lon="7.14239">
        <ele>739.2</ele>
        <time>2021-08-01T10:27:28Z</time>
      </trkpt>
      <trkpt lat="48.54904" lon="7.14238">
        <ele>739.1</ele>
        <time>2021-08-01T10:27:29Z</time>
      </trkpt>
      <trkpt lat="48.54898" lon="7.14235">
        <ele>738.9</ele>
        <time>2021-08-01T10:27:31Z</time>
      </trkpt>
      <trkpt lat="48.54896" lon="7.14235">
        <ele>738.7</ele>
        <time>2021-08-01T10:27:32Z</time>
      </trkpt>
      <trkpt lat="48.54896" lon="7.14236">
        <ele>738.7</ele>
        <time>2021-08-01T10:27:33Z</time>
      </trkpt>
      <trkpt lat="48.54892" lon="7.1424">
        <ele>738.4</ele>
        <time>2021-08-01T10:27:35Z</time>
      </trkpt>
      <trkpt lat="48.5489" lon="7.1424">
        <ele>738.3</ele>
        <time>2021-08-01T10:27:36Z</time>
      </trkpt>
      <trkpt lat="48.54889" lon="7.14239">
        <ele>738.2</ele>
        <time>2021-08-01T10:27:37Z</time>
      </trkpt>
      <trkpt lat="48.54887" lon="7.14238">
        <ele>738.1</ele>
        <time>2021-08-01T10:27:38Z</time>
      </trkpt>
      <trkpt lat="48.54881" lon="7.14234">
        <ele>737.5</ele>
        <time>2021-08-01T10:27:40Z</time>
      </trkpt>
      <trkpt lat="48.5488" lon="7.14233">
        <ele>737.4</ele>
        <time>2021-08-01T10:27:41Z</time>
      </trkpt>
      <trkpt lat="48.54868" lon="7.14221">
        <ele>736</ele>
        <time>2021-08-01T10:27:48Z</time>
      </trkpt>
      <trkpt lat="48.54858" lon="7.14219">
        <ele>735</ele>
        <time>2021-08-01T10:27:49Z</time>
      </trkpt>
      <trkpt lat="48.54848" lon="7.14218">
        <ele>734.1</ele>
        <time>2021-08-01T10:27:50Z</time>
      </trkpt>
      <trkpt lat="48.5484" lon="7.14218">
        <ele>733.6</ele>
        <time>2021-08-01T10:27:51Z</time>
      </trkpt>
      <trkpt lat="48.5482" lon="7.14215">
        <ele>732.7</ele>
        <time>2021-08-01T10:27:53Z</time>
      </trkpt>
      <trkpt lat="48.54812" lon="7.14214">
        <ele>732.3</ele>
        <time>2021-08-01T10:27:54Z</time>
      </trkpt>
      <trkpt lat="48.54804" lon="7.1421">
        <ele>731.9</ele>
        <time>2021-08-01T10:27:56Z</time>
      </trkpt>
      <trkpt lat="48.54798" lon="7.14208">
        <ele>731.6</ele>
        <time>2021-08-01T10:27:57Z</time>
      </trkpt>
      <trkpt lat="48.54794" lon="7.14205">
        <ele>731.3</ele>
        <time>2021-08-01T10:27:58Z</time>
      </trkpt>
      <trkpt lat="48.54788" lon="7.14206">
        <ele>730.9</ele>
        <time>2021-08-01T10:27:59Z</time>
      </trkpt>
      <trkpt lat="48.54783" lon="7.14207">
        <ele>730.7</ele>
        <time>2021-08-01T10:28:01Z</time>
      </trkpt>
      <trkpt lat="48.54781" lon="7.1421">
        <ele>730.5</ele>
        <time>2021-08-01T10:28:02Z</time>
      </trkpt>
      <trkpt lat="48.54777" lon="7.14214">
        <ele>730.2</ele>
        <time>2021-08-01T10:28:03Z</time>
      </trkpt>
      <trkpt lat="48.54774" lon="7.14217">
        <ele>730.1</ele>
        <time>2021-08-01T10:28:05Z</time>
      </trkpt>
      <trkpt lat="48.54774" lon="7.14217">
        <ele>730</ele>
        <time>2021-08-01T10:28:06Z</time>
      </trkpt>
      <trkpt lat="48.5476" lon="7.14214">
        <ele>729.3</ele>
        <time>2021-08-01T10:28:08Z</time>
      </trkpt>
      <trkpt lat="48.54748" lon="7.1421">
        <ele>728.8</ele>
        <time>2021-08-01T10:28:09Z</time>
      </trkpt>
      <trkpt lat="48.54736" lon="7.14207">
        <ele>728.3</ele>
        <time>2021-08-01T10:28:11Z</time>
      </trkpt>
      <trkpt lat="48.54732" lon="7.14207">
        <ele>728</ele>
        <time>2021-08-01T10:28:12Z</time>
      </trkpt>
      <trkpt lat="48.54729" lon="7.14211">
        <ele>727.8</ele>
        <time>2021-08-01T10:28:13Z</time>
      </trkpt>
      <trkpt lat="48.54725" lon="7.14214">
        <ele>727.7</ele>
        <time>2021-08-01T10:28:14Z</time>
      </trkpt>
      <trkpt lat="48.54721" lon="7.14217">
        <ele>727.4</ele>
        <time>2021-08-01T10:28:15Z</time>
      </trkpt>
      <trkpt lat="48.54718" lon="7.14218">
        <ele>727.2</ele>
        <time>2021-08-01T10:28:17Z</time>
      </trkpt>
      <trkpt lat="48.54716" lon="7.14219">
        <ele>727.1</ele>
        <time>2021-08-01T10:28:18Z</time>
      </trkpt>
      <trkpt lat="48.54715" lon="7.1422">
        <ele>727</ele>
        <time>2021-08-01T10:28:19Z</time>
      </trkpt>
      <trkpt lat="48.54709" lon="7.14222">
        <ele>726.6</ele>
        <time>2021-08-01T10:28:21Z</time>
      </trkpt>
      <trkpt lat="48.547" lon="7.14228">
        <ele>725.9</ele>
        <time>2021-08-01T10:28:22Z</time>
      </trkpt>
      <trkpt lat="48.54692" lon="7.14236">
        <ele>725.2</ele>
        <time>2021-08-01T10:28:23Z</time>
      </trkpt>
      <trkpt lat="48.54683" lon="7.14246">
        <ele>724.6</ele>
        <time>2021-08-01T10:28:25Z</time>
      </trkpt>
      <trkpt lat="48.5468" lon="7.14251">
        <ele>724.3</ele>
        <time>2021-08-01T10:28:26Z</time>
      </trkpt>
      <trkpt lat="48.54678" lon="7.14254">
        <ele>724.1</ele>
        <time>2021-08-01T10:28:27Z</time>
      </trkpt>
      <trkpt lat="48.54669" lon="7.14265">
        <ele>723.5</ele>
        <time>2021-08-01T10:28:29Z</time>
      </trkpt>
      <trkpt lat="48.54664" lon="7.14272">
        <ele>723</ele>
        <time>2021-08-01T10:28:30Z</time>
      </trkpt>
      <trkpt lat="48.54664" lon="7.14274">
        <ele>723</ele>
        <time>2021-08-01T10:28:31Z</time>
      </trkpt>
      <trkpt lat="48.54664" lon="7.14275">
        <ele>722.9</ele>
        <time>2021-08-01T10:28:32Z</time>
      </trkpt>
      <trkpt lat="48.54661" lon="7.14282">
        <ele>722.5</ele>
        <time>2021-08-01T10:28:34Z</time>
      </trkpt>
      <trkpt lat="48.54655" lon="7.14283">
        <ele>722.2</ele>
        <time>2021-08-01T10:28:35Z</time>
      </trkpt>
      <trkpt lat="48.5465" lon="7.14283">
        <ele>721.9</ele>
        <time>2021-08-01T10:28:36Z</time>
      </trkpt>
      <trkpt lat="48.54646" lon="7.14281">
        <ele>721.6</ele>
        <time>2021-08-01T10:28:38Z</time>
      </trkpt>
      <trkpt lat="48.54641" lon="7.14286">
        <ele>721.2</ele>
        <time>2021-08-01T10:28:39Z</time>
      </trkpt>
      <trkpt lat="48.54633" lon="7.14293">
        <ele>720.5</ele>
        <time>2021-08-01T10:28:41Z</time>
      </trkpt>
      <trkpt lat="48.5463" lon="7.14297">
        <ele>720.1</ele>
        <time>2021-08-01T10:28:42Z</time>
      </trkpt>
      <trkpt lat="48.54622" lon="7.14311">
        <ele>719.2</ele>
        <time>2021-08-01T10:28:44Z</time>
      </trkpt>
      <trkpt lat="48.54615" lon="7.14324">
        <ele>718.3</ele>
        <time>2021-08-01T10:28:46Z</time>
      </trkpt>
      <trkpt lat="48.5461" lon="7.14349">
        <ele>717.1</ele>
        <time>2021-08-01T10:28:48Z</time>
      </trkpt>
      <trkpt lat="48.54606" lon="7.14361">
        <ele>716.5</ele>
        <time>2021-08-01T10:28:49Z</time>
      </trkpt>
      <trkpt lat="48.54599" lon="7.1438">
        <ele>715.5</ele>
        <time>2021-08-01T10:28:51Z</time>
      </trkpt>
      <trkpt lat="48.54594" lon="7.14401">
        <ele>714.7</ele>
        <time>2021-08-01T10:28:53Z</time>
      </trkpt>
      <trkpt lat="48.54589" lon="7.14424">
        <ele>714.2</ele>
        <time>2021-08-01T10:28:55Z</time>
      </trkpt>
      <trkpt lat="48.54587" lon="7.14435">
        <ele>714.1</ele>
        <time>2021-08-01T10:28:56Z</time>
      </trkpt>
      <trkpt lat="48.54582" lon="7.14451">
        <ele>714</ele>
        <time>2021-08-01T10:28:58Z</time>
      </trkpt>
      <trkpt lat="48.54579" lon="7.14458">
        <ele>714</ele>
        <time>2021-08-01T10:28:59Z</time>
      </trkpt>
      <trkpt lat="48.54571" lon="7.14473">
        <ele>714.1</ele>
        <time>2021-08-01T10:29:01Z</time>
      </trkpt>
      <trkpt lat="48.54566" lon="7.14482">
        <ele>714.1</ele>
        <time>2021-08-01T10:29:02Z</time>
      </trkpt>
      <trkpt lat="48.54561" lon="7.145">
        <ele>714</ele>
        <time>2021-08-01T10:29:04Z</time>
      </trkpt>
      <trkpt lat="48.54559" lon="7.14509">
        <ele>714</ele>
        <time>2021-08-01T10:29:05Z</time>
      </trkpt>
      <trkpt lat="48.54557" lon="7.14516">
        <ele>713.9</ele>
        <time>2021-08-01T10:29:06Z</time>
      </trkpt>
      <trkpt lat="48.54553" lon="7.14529">
        <ele>713.9</ele>
        <time>2021-08-01T10:29:08Z</time>
      </trkpt>
      <trkpt lat="48.54551" lon="7.14536">
        <ele>713.9</ele>
        <time>2021-08-01T10:29:09Z</time>
      </trkpt>
      <trkpt lat="48.5455" lon="7.14543">
        <ele>713.9</ele>
        <time>2021-08-01T10:29:10Z</time>
      </trkpt>
      <trkpt lat="48.54543" lon="7.14555">
        <ele>714.1</ele>
        <time>2021-08-01T10:29:12Z</time>
      </trkpt>
      <trkpt lat="48.54543" lon="7.14561">
        <ele>714.2</ele>
        <time>2021-08-01T10:29:13Z</time>
      </trkpt>
      <trkpt lat="48.54546" lon="7.14569">
        <ele>714.4</ele>
        <time>2021-08-01T10:29:15Z</time>
      </trkpt>
      <trkpt lat="48.54548" lon="7.14571">
        <ele>714.5</ele>
        <time>2021-08-01T10:29:16Z</time>
      </trkpt>
      <trkpt lat="48.5455" lon="7.14574">
        <ele>714.6</ele>
        <time>2021-08-01T10:29:17Z</time>
      </trkpt>
      <trkpt lat="48.54554" lon="7.1458">
        <ele>714.8</ele>
        <time>2021-08-01T10:29:19Z</time>
      </trkpt>
      <trkpt lat="48.54554" lon="7.14583">
        <ele>714.9</ele>
        <time>2021-08-01T10:29:20Z</time>
      </trkpt>
      <trkpt lat="48.54552" lon="7.14581">
        <ele>715</ele>
        <time>2021-08-01T10:29:22Z</time>
      </trkpt>
      <trkpt lat="48.54552" lon="7.14587">
        <ele>715.2</ele>
        <time>2021-08-01T10:29:24Z</time>
      </trkpt>
      <trkpt lat="48.54553" lon="7.14593">
        <ele>715.3</ele>
        <time>2021-08-01T10:29:25Z</time>
      </trkpt>
      <trkpt lat="48.54553" lon="7.14595">
        <ele>715.4</ele>
        <time>2021-08-01T10:29:26Z</time>
      </trkpt>
      <trkpt lat="48.54555" lon="7.14601">
        <ele>715.5</ele>
        <time>2021-08-01T10:29:28Z</time>
      </trkpt>
      <trkpt lat="48.54557" lon="7.14604">
        <ele>715.6</ele>
        <time>2021-08-01T10:29:29Z</time>
      </trkpt>
      <trkpt lat="48.54557" lon="7.14607">
        <ele>715.7</ele>
        <time>2021-08-01T10:29:30Z</time>
      </trkpt>
      <trkpt lat="48.54557" lon="7.14608">
        <ele>715.7</ele>
        <time>2021-08-01T10:29:32Z</time>
      </trkpt>
      <trkpt lat="48.54557" lon="7.1461">
        <ele>715.7</ele>
        <time>2021-08-01T10:29:33Z</time>
      </trkpt>
      <trkpt lat="48.54556" lon="7.14611">
        <ele>715.7</ele>
        <time>2021-08-01T10:29:35Z</time>
      </trkpt>
      <trkpt lat="48.54556" lon="7.14612">
        <ele>715.7</ele>
        <time>2021-08-01T10:29:36Z</time>
      </trkpt>
      <trkpt lat="48.54553" lon="7.14622">
        <ele>715.8</ele>
        <time>2021-08-01T10:29:39Z</time>
      </trkpt>
      <trkpt lat="48.54551" lon="7.1463">
        <ele>715.8</ele>
        <time>2021-08-01T10:29:40Z</time>
      </trkpt>
      <trkpt lat="48.54549" lon="7.14639">
        <ele>715.7</ele>
        <time>2021-08-01T10:29:42Z</time>
      </trkpt>
      <trkpt lat="48.54545" lon="7.14649">
        <ele>715.4</ele>
        <time>2021-08-01T10:29:43Z</time>
      </trkpt>
      <trkpt lat="48.54542" lon="7.14656">
        <ele>715.2</ele>
        <time>2021-08-01T10:29:44Z</time>
      </trkpt>
      <trkpt lat="48.54539" lon="7.14665">
        <ele>714.9</ele>
        <time>2021-08-01T10:29:46Z</time>
      </trkpt>
      <trkpt lat="48.54536" lon="7.14672">
        <ele>714.6</ele>
        <time>2021-08-01T10:29:47Z</time>
      </trkpt>
      <trkpt lat="48.54533" lon="7.1468">
        <ele>714.1</ele>
        <time>2021-08-01T10:29:48Z</time>
      </trkpt>
      <trkpt lat="48.54531" lon="7.14688">
        <ele>713.6</ele>
        <time>2021-08-01T10:29:49Z</time>
      </trkpt>
      <trkpt lat="48.54529" lon="7.14698">
        <ele>713</ele>
        <time>2021-08-01T10:29:51Z</time>
      </trkpt>
      <trkpt lat="48.54528" lon="7.1471">
        <ele>712</ele>
        <time>2021-08-01T10:29:53Z</time>
      </trkpt>
      <trkpt lat="48.54527" lon="7.14718">
        <ele>711.3</ele>
        <time>2021-08-01T10:29:54Z</time>
      </trkpt>
      <trkpt lat="48.54527" lon="7.14735">
        <ele>709.9</ele>
        <time>2021-08-01T10:29:56Z</time>
      </trkpt>
      <trkpt lat="48.54526" lon="7.14742">
        <ele>709.1</ele>
        <time>2021-08-01T10:29:58Z</time>
      </trkpt>
      <trkpt lat="48.54526" lon="7.14746">
        <ele>708.8</ele>
        <time>2021-08-01T10:29:59Z</time>
      </trkpt>
      <trkpt lat="48.54525" lon="7.14759">
        <ele>707.5</ele>
        <time>2021-08-01T10:30:00Z</time>
      </trkpt>
      <trkpt lat="48.54525" lon="7.14763">
        <ele>707.2</ele>
        <time>2021-08-01T10:30:01Z</time>
      </trkpt>
      <trkpt lat="48.54525" lon="7.14767">
        <ele>706.8</ele>
        <time>2021-08-01T10:30:03Z</time>
      </trkpt>
      <trkpt lat="48.54525" lon="7.14769">
        <ele>706.6</ele>
        <time>2021-08-01T10:30:04Z</time>
      </trkpt>
      <trkpt lat="48.54525" lon="7.14771">
        <ele>706.5</ele>
        <time>2021-08-01T10:30:05Z</time>
      </trkpt>
      <trkpt lat="48.54524" lon="7.14786">
        <ele>705.3</ele>
        <time>2021-08-01T10:30:06Z</time>
      </trkpt>
      <trkpt lat="48.54524" lon="7.14804">
        <ele>704.2</ele>
        <time>2021-08-01T10:30:08Z</time>
      </trkpt>
      <trkpt lat="48.54524" lon="7.14817">
        <ele>703.7</ele>
        <time>2021-08-01T10:30:09Z</time>
      </trkpt>
      <trkpt lat="48.54523" lon="7.1483">
        <ele>703.2</ele>
        <time>2021-08-01T10:30:11Z</time>
      </trkpt>
      <trkpt lat="48.54521" lon="7.14837">
        <ele>703.1</ele>
        <time>2021-08-01T10:30:12Z</time>
      </trkpt>
      <trkpt lat="48.54518" lon="7.14852">
        <ele>702.8</ele>
        <time>2021-08-01T10:30:13Z</time>
      </trkpt>
      <trkpt lat="48.54516" lon="7.14861">
        <ele>702.8</ele>
        <time>2021-08-01T10:30:15Z</time>
      </trkpt>
      <trkpt lat="48.5451" lon="7.14877">
        <ele>703.1</ele>
        <time>2021-08-01T10:30:16Z</time>
      </trkpt>
      <trkpt lat="48.54507" lon="7.14889">
        <ele>703.4</ele>
        <time>2021-08-01T10:30:17Z</time>
      </trkpt>
      <trkpt lat="48.54506" lon="7.14901">
        <ele>703.6</ele>
        <time>2021-08-01T10:30:19Z</time>
      </trkpt>
      <trkpt lat="48.54504" lon="7.14909">
        <ele>703.8</ele>
        <time>2021-08-01T10:30:20Z</time>
      </trkpt>
      <trkpt lat="48.54502" lon="7.14916">
        <ele>704</ele>
        <time>2021-08-01T10:30:21Z</time>
      </trkpt>
      <trkpt lat="48.545" lon="7.14922">
        <ele>704.3</ele>
        <time>2021-08-01T10:30:23Z</time>
      </trkpt>
      <trkpt lat="48.54497" lon="7.14925">
        <ele>704.6</ele>
        <time>2021-08-01T10:30:24Z</time>
      </trkpt>
      <trkpt lat="48.54495" lon="7.14927">
        <ele>704.8</ele>
        <time>2021-08-01T10:30:25Z</time>
      </trkpt>
      <trkpt lat="48.54493" lon="7.14925">
        <ele>705</ele>
        <time>2021-08-01T10:30:27Z</time>
      </trkpt>
      <trkpt lat="48.54492" lon="7.14924">
        <ele>705.1</ele>
        <time>2021-08-01T10:30:28Z</time>
      </trkpt>
      <trkpt lat="48.54491" lon="7.14923">
        <ele>705.2</ele>
        <time>2021-08-01T10:30:29Z</time>
      </trkpt>
      <trkpt lat="48.54489" lon="7.14922">
        <ele>705.4</ele>
        <time>2021-08-01T10:30:30Z</time>
      </trkpt>
      <trkpt lat="48.54488" lon="7.1492">
        <ele>705.6</ele>
        <time>2021-08-01T10:30:32Z</time>
      </trkpt>
      <trkpt lat="48.54487" lon="7.14915">
        <ele>705.9</ele>
        <time>2021-08-01T10:30:33Z</time>
      </trkpt>
      <trkpt lat="48.54487" lon="7.14913">
        <ele>706.1</ele>
        <time>2021-08-01T10:30:34Z</time>
      </trkpt>
      <trkpt lat="48.54485" lon="7.14909">
        <ele>706.5</ele>
        <time>2021-08-01T10:30:35Z</time>
      </trkpt>
      <trkpt lat="48.54484" lon="7.14907">
        <ele>706.6</ele>
        <time>2021-08-01T10:30:36Z</time>
      </trkpt>
      <trkpt lat="48.54481" lon="7.14905">
        <ele>707</ele>
        <time>2021-08-01T10:30:38Z</time>
      </trkpt>
      <trkpt lat="48.5448" lon="7.14904">
        <ele>707.2</ele>
        <time>2021-08-01T10:30:39Z</time>
      </trkpt>
      <trkpt lat="48.54478" lon="7.14902">
        <ele>707.6</ele>
        <time>2021-08-01T10:30:40Z</time>
      </trkpt>
      <trkpt lat="48.54475" lon="7.14897">
        <ele>708.2</ele>
        <time>2021-08-01T10:30:42Z</time>
      </trkpt>
      <trkpt lat="48.54473" lon="7.14895">
        <ele>708.5</ele>
        <time>2021-08-01T10:30:43Z</time>
      </trkpt>
      <trkpt lat="48.5447" lon="7.14891">
        <ele>709.1</ele>
        <time>2021-08-01T10:30:45Z</time>
      </trkpt>
      <trkpt lat="48.5447" lon="7.14889">
        <ele>709.3</ele>
        <time>2021-08-01T10:30:46Z</time>
      </trkpt>
      <trkpt lat="48.54471" lon="7.14886">
        <ele>709.5</ele>
        <time>2021-08-01T10:30:47Z</time>
      </trkpt>
      <trkpt lat="48.54471" lon="7.14884">
        <ele>709.7</ele>
        <time>2021-08-01T10:30:48Z</time>
      </trkpt>
      <trkpt lat="48.54472" lon="7.14883">
        <ele>709.8</ele>
        <time>2021-08-01T10:30:49Z</time>
      </trkpt>
      <trkpt lat="48.54472" lon="7.14883">
        <ele>709.9</ele>
        <time>2021-08-01T10:30:51Z</time>
      </trkpt>
      <trkpt lat="48.54472" lon="7.14883">
        <ele>709.9</ele>
        <time>2021-08-01T10:30:52Z</time>
      </trkpt>
      <trkpt lat="48.54472" lon="7.14883">
        <ele>709.9</ele>
        <time>2021-08-01T10:30:53Z</time>
      </trkpt>
      <trkpt lat="48.54472" lon="7.14883">
        <ele>709.9</ele>
        <time>2021-08-01T10:30:54Z</time>
      </trkpt>
      <trkpt lat="48.54472" lon="7.14883">
        <ele>709.9</ele>
        <time>2021-08-01T10:30:56Z</time>
      </trkpt>
      <trkpt lat="48.54287" lon="7.15071">
        <ele>748.2</ele>
        <time>2021-08-01T10:38:34Z</time>
      </trkpt>
      <trkpt lat="48.54282" lon="7.15075">
        <ele>749</ele>
        <time>2021-08-01T10:38:35Z</time>
      </trkpt>
      <trkpt lat="48.5428" lon="7.15078">
        <ele>749.4</ele>
        <time>2021-08-01T10:38:36Z</time>
      </trkpt>
      <trkpt lat="48.54276" lon="7.15082">
        <ele>750.1</ele>
        <time>2021-08-01T10:38:38Z</time>
      </trkpt>
      <trkpt lat="48.54275" lon="7.15082">
        <ele>750.2</ele>
        <time>2021-08-01T10:38:39Z</time>
      </trkpt>
      <trkpt lat="48.54274" lon="7.15083">
        <ele>750.4</ele>
        <time>2021-08-01T10:38:41Z</time>
      </trkpt>
      <trkpt lat="48.54273" lon="7.15083">
        <ele>750.5</ele>
        <time>2021-08-01T10:38:42Z</time>
      </trkpt>
      <trkpt lat="48.54272" lon="7.15084">
        <ele>750.7</ele>
        <time>2021-08-01T10:38:44Z</time>
      </trkpt>
      <trkpt lat="48.54272" lon="7.15084">
        <ele>750.8</ele>
        <time>2021-08-01T10:38:45Z</time>
      </trkpt>
      <trkpt lat="48.54272" lon="7.15085">
        <ele>750.9</ele>
        <time>2021-08-01T10:38:47Z</time>
      </trkpt>
      <trkpt lat="48.54271" lon="7.15085">
        <ele>750.9</ele>
        <time>2021-08-01T10:38:48Z</time>
      </trkpt>
      <trkpt lat="48.54264" lon="7.15192">
        <ele>762.9</ele>
        <time>2021-08-01T10:41:22Z</time>
      </trkpt>
      <trkpt lat="48.54263" lon="7.15195">
        <ele>763.4</ele>
        <time>2021-08-01T10:41:23Z</time>
      </trkpt>
      <trkpt lat="48.54261" lon="7.15202">
        <ele>764.2</ele>
        <time>2021-08-01T10:41:24Z</time>
      </trkpt>
      <trkpt lat="48.54258" lon="7.15204">
        <ele>764.7</ele>
        <time>2021-08-01T10:41:26Z</time>
      </trkpt>
      <trkpt lat="48.54257" lon="7.15204">
        <ele>764.9</ele>
        <time>2021-08-01T10:41:28Z</time>
      </trkpt>
      <trkpt lat="48.5426" lon="7.15204">
        <ele>765.4</ele>
        <time>2021-08-01T10:41:30Z</time>
      </trkpt>
      <trkpt lat="48.5426" lon="7.15204">
        <ele>765.5</ele>
        <time>2021-08-01T10:41:31Z</time>
      </trkpt>
      <trkpt lat="48.5426" lon="7.15204">
        <ele>765.5</ele>
        <time>2021-08-01T10:41:32Z</time>
      </trkpt>
      <trkpt lat="48.5426" lon="7.15204">
        <ele>765.5</ele>
        <time>2021-08-01T10:41:33Z</time>
      </trkpt>
      <trkpt lat="48.5426" lon="7.15203">
        <ele>765.6</ele>
        <time>2021-08-01T10:41:35Z</time>
      </trkpt>
      <trkpt lat="48.5426" lon="7.15203">
        <ele>765.6</ele>
        <time>2021-08-01T10:41:36Z</time>
      </trkpt>
      <trkpt lat="48.5426" lon="7.15304">
        <ele>778</ele>
        <time>2021-08-01T10:44:07Z</time>
      </trkpt>
      <trkpt lat="48.54261" lon="7.15305">
        <ele>778.2</ele>
        <time>2021-08-01T10:44:09Z</time>
      </trkpt>
      <trkpt lat="48.54261" lon="7.15305">
        <ele>778.3</ele>
        <time>2021-08-01T10:44:10Z</time>
      </trkpt>
      <trkpt lat="48.54262" lon="7.15306">
        <ele>778.5</ele>
        <time>2021-08-01T10:44:12Z</time>
      </trkpt>
      <trkpt lat="48.54263" lon="7.15306">
        <ele>778.5</ele>
        <time>2021-08-01T10:44:13Z</time>
      </trkpt>
      <trkpt lat="48.54263" lon="7.15307">
        <ele>778.6</ele>
        <time>2021-08-01T10:44:14Z</time>
      </trkpt>
      <trkpt lat="48.54262" lon="7.15308">
        <ele>778.7</ele>
        <time>2021-08-01T10:44:16Z</time>
      </trkpt>
      <trkpt lat="48.54262" lon="7.15308">
        <ele>778.8</ele>
        <time>2021-08-01T10:44:18Z</time>
      </trkpt>
      <trkpt lat="48.54262" lon="7.15309">
        <ele>778.9</ele>
        <time>2021-08-01T10:44:19Z</time>
      </trkpt>
      <trkpt lat="48.54261" lon="7.1531">
        <ele>779</ele>
        <time>2021-08-01T10:44:21Z</time>
      </trkpt>
      <trkpt lat="48.54261" lon="7.1531">
        <ele>779</ele>
        <time>2021-08-01T10:44:22Z</time>
      </trkpt>
      <trkpt lat="48.54261" lon="7.15311">
        <ele>779.1</ele>
        <time>2021-08-01T10:44:24Z</time>
      </trkpt>
      <trkpt lat="48.5426" lon="7.15312">
        <ele>779.2</ele>
        <time>2021-08-01T10:44:25Z</time>
      </trkpt>
      <trkpt lat="48.5426" lon="7.15313">
        <ele>779.3</ele>
        <time>2021-08-01T10:44:26Z</time>
      </trkpt>
      <trkpt lat="48.5426" lon="7.15313">
        <ele>779.4</ele>
        <time>2021-08-01T10:44:27Z</time>
      </trkpt>
      <trkpt lat="48.5426" lon="7.15314">
        <ele>779.5</ele>
        <time>2021-08-01T10:44:28Z</time>
      </trkpt>
      <trkpt lat="48.54259" lon="7.15315">
        <ele>779.6</ele>
        <time>2021-08-01T10:44:31Z</time>
      </trkpt>
      <trkpt lat="48.54259" lon="7.15315">
        <ele>779.6</ele>
        <time>2021-08-01T10:44:33Z</time>
      </trkpt>
      <trkpt lat="48.54259" lon="7.15316">
        <ele>779.7</ele>
        <time>2021-08-01T10:44:34Z</time>
      </trkpt>
      <trkpt lat="48.54258" lon="7.15317">
        <ele>779.8</ele>
        <time>2021-08-01T10:44:35Z</time>
      </trkpt>
      <trkpt lat="48.54257" lon="7.15318">
        <ele>780</ele>
        <time>2021-08-01T10:44:37Z</time>
      </trkpt>
      <trkpt lat="48.54256" lon="7.1532">
        <ele>780.2</ele>
        <time>2021-08-01T10:44:39Z</time>
      </trkpt>
      <trkpt lat="48.54255" lon="7.15322">
        <ele>780.4</ele>
        <time>2021-08-01T10:44:40Z</time>
      </trkpt>
      <trkpt lat="48.54254" lon="7.15325">
        <ele>780.8</ele>
        <time>2021-08-01T10:44:42Z</time>
      </trkpt>
      <trkpt lat="48.54253" lon="7.15326">
        <ele>781</ele>
        <time>2021-08-01T10:44:43Z</time>
      </trkpt>
      <trkpt lat="48.54253" lon="7.15327">
        <ele>781.1</ele>
        <time>2021-08-01T10:44:44Z</time>
      </trkpt>
      <trkpt lat="48.54252" lon="7.15331">
        <ele>781.4</ele>
        <time>2021-08-01T10:44:46Z</time>
      </trkpt>
      <trkpt lat="48.54252" lon="7.15332">
        <ele>781.5</ele>
        <time>2021-08-01T10:44:47Z</time>
      </trkpt>
      <trkpt lat="48.54252" lon="7.15334">
        <ele>781.7</ele>
        <time>2021-08-01T10:44:49Z</time>
      </trkpt>
      <trkpt lat="48.54252" lon="7.15335">
        <ele>781.8</ele>
        <time>2021-08-01T10:44:50Z</time>
      </trkpt>
      <trkpt lat="48.54252" lon="7.15336">
        <ele>781.9</ele>
        <time>2021-08-01T10:44:51Z</time>
      </trkpt>
      <trkpt lat="48.54252" lon="7.15337">
        <ele>782</ele>
        <time>2021-08-01T10:44:53Z</time>
      </trkpt>
      <trkpt lat="48.54252" lon="7.15338">
        <ele>782</ele>
        <time>2021-08-01T10:44:54Z</time>
      </trkpt>
      <trkpt lat="48.54251" lon="7.15338">
        <ele>782.1</ele>
        <time>2021-08-01T10:44:55Z</time>
      </trkpt>
      <trkpt lat="48.54251" lon="7.15339">
        <ele>782.2</ele>
        <time>2021-08-01T10:44:56Z</time>
      </trkpt>
      <trkpt lat="48.54251" lon="7.1534">
        <ele>782.2</ele>
        <time>2021-08-01T10:44:57Z</time>
      </trkpt>
      <trkpt lat="48.54251" lon="7.1534">
        <ele>782.3</ele>
        <time>2021-08-01T10:44:59Z</time>
      </trkpt>
      <trkpt lat="48.54251" lon="7.15341">
        <ele>782.4</ele>
        <time>2021-08-01T10:45:00Z</time>
      </trkpt>
      <trkpt lat="48.54251" lon="7.15344">
        <ele>782.7</ele>
        <time>2021-08-01T10:45:01Z</time>
      </trkpt>
      <trkpt lat="48.54251" lon="7.15347">
        <ele>782.9</ele>
        <time>2021-08-01T10:45:03Z</time>
      </trkpt>
      <trkpt lat="48.5425" lon="7.15351">
        <ele>783.3</ele>
        <time>2021-08-01T10:45:04Z</time>
      </trkpt>
      <trkpt lat="48.54249" lon="7.15352">
        <ele>783.4</ele>
        <time>2021-08-01T10:45:05Z</time>
      </trkpt>
      <trkpt lat="48.54248" lon="7.15357">
        <ele>783.8</ele>
        <time>2021-08-01T10:45:07Z</time>
      </trkpt>
      <trkpt lat="48.54248" lon="7.15359">
        <ele>783.9</ele>
        <time>2021-08-01T10:45:08Z</time>
      </trkpt>
      <trkpt lat="48.54247" lon="7.15361">
        <ele>784.1</ele>
        <time>2021-08-01T10:45:09Z</time>
      </trkpt>
      <trkpt lat="48.54246" lon="7.15365">
        <ele>784.4</ele>
        <time>2021-08-01T10:45:11Z</time>
      </trkpt>
      <trkpt lat="48.54245" lon="7.15367">
        <ele>784.6</ele>
        <time>2021-08-01T10:45:13Z</time>
      </trkpt>
      <trkpt lat="48.54245" lon="7.15369">
        <ele>784.7</ele>
        <time>2021-08-01T10:45:14Z</time>
      </trkpt>
      <trkpt lat="48.54245" lon="7.15371">
        <ele>784.9</ele>
        <time>2021-08-01T10:45:16Z</time>
      </trkpt>
      <trkpt lat="48.54244" lon="7.15372">
        <ele>785</ele>
        <time>2021-08-01T10:45:17Z</time>
      </trkpt>
      <trkpt lat="48.54244" lon="7.15373">
        <ele>785</ele>
        <time>2021-08-01T10:45:18Z</time>
      </trkpt>
      <trkpt lat="48.54244" lon="7.15374">
        <ele>785.1</ele>
        <time>2021-08-01T10:45:20Z</time>
      </trkpt>
      <trkpt lat="48.54244" lon="7.15375">
        <ele>785.1</ele>
        <time>2021-08-01T10:45:21Z</time>
      </trkpt>
      <trkpt lat="48.54244" lon="7.15375">
        <ele>785.2</ele>
        <time>2021-08-01T10:45:23Z</time>
      </trkpt>
      <trkpt lat="48.54244" lon="7.15376">
        <ele>785.2</ele>
        <time>2021-08-01T10:45:24Z</time>
      </trkpt>
      <trkpt lat="48.54244" lon="7.15376">
        <ele>785.2</ele>
        <time>2021-08-01T10:45:25Z</time>
      </trkpt>
      <trkpt lat="48.54244" lon="7.15376">
        <ele>785.2</ele>
        <time>2021-08-01T10:45:27Z</time>
      </trkpt>
      <trkpt lat="48.54244" lon="7.15378">
        <ele>785.4</ele>
        <time>2021-08-01T10:45:28Z</time>
      </trkpt>
      <trkpt lat="48.54243" lon="7.15381">
        <ele>785.5</ele>
        <time>2021-08-01T10:45:29Z</time>
      </trkpt>
      <trkpt lat="48.54243" lon="7.15383">
        <ele>785.7</ele>
        <time>2021-08-01T10:45:30Z</time>
      </trkpt>
      <trkpt lat="48.54243" lon="7.15386">
        <ele>785.9</ele>
        <time>2021-08-01T10:45:32Z</time>
      </trkpt>
      <trkpt lat="48.54243" lon="7.15388">
        <ele>786</ele>
        <time>2021-08-01T10:45:33Z</time>
      </trkpt>
      <trkpt lat="48.54243" lon="7.15391">
        <ele>786.1</ele>
        <time>2021-08-01T10:45:35Z</time>
      </trkpt>
      <trkpt lat="48.54243" lon="7.15393">
        <ele>786.2</ele>
        <time>2021-08-01T10:45:36Z</time>
      </trkpt>
      <trkpt lat="48.54243" lon="7.15394">
        <ele>786.3</ele>
        <time>2021-08-01T10:45:37Z</time>
      </trkpt>
      <trkpt lat="48.54244" lon="7.15397">
        <ele>786.5</ele>
        <time>2021-08-01T10:45:39Z</time>
      </trkpt>
      <trkpt lat="48.54244" lon="7.15399">
        <ele>786.6</ele>
        <time>2021-08-01T10:45:40Z</time>
      </trkpt>
      <trkpt lat="48.54245" lon="7.154">
        <ele>786.7</ele>
        <time>2021-08-01T10:45:41Z</time>
      </trkpt>
      <trkpt lat="48.54245" lon="7.15401">
        <ele>786.8</ele>
        <time>2021-08-01T10:45:43Z</time>
      </trkpt>
      <trkpt lat="48.54246" lon="7.15402">
        <ele>786.9</ele>
        <time>2021-08-01T10:45:44Z</time>
      </trkpt>
      <trkpt lat="48.54248" lon="7.15404">
        <ele>787.2</ele>
        <time>2021-08-01T10:45:46Z</time>
      </trkpt>
      <trkpt lat="48.54249" lon="7.15405">
        <ele>787.3</ele>
        <time>2021-08-01T10:45:47Z</time>
      </trkpt>
      <trkpt lat="48.5425" lon="7.15406">
        <ele>787.4</ele>
        <time>2021-08-01T10:45:48Z</time>
      </trkpt>
      <trkpt lat="48.54251" lon="7.15408">
        <ele>787.6</ele>
        <time>2021-08-01T10:45:50Z</time>
      </trkpt>
      <trkpt lat="48.54253" lon="7.15409">
        <ele>787.8</ele>
        <time>2021-08-01T10:45:51Z</time>
      </trkpt>
      <trkpt lat="48.54254" lon="7.15411">
        <ele>788</ele>
        <time>2021-08-01T10:45:53Z</time>
      </trkpt>
      <trkpt lat="48.54255" lon="7.15413">
        <ele>788.2</ele>
        <time>2021-08-01T10:45:54Z</time>
      </trkpt>
      <trkpt lat="48.54256" lon="7.15414">
        <ele>788.3</ele>
        <time>2021-08-01T10:45:55Z</time>
      </trkpt>
      <trkpt lat="48.54258" lon="7.15416">
        <ele>788.5</ele>
        <time>2021-08-01T10:45:57Z</time>
      </trkpt>
      <trkpt lat="48.54258" lon="7.15417">
        <ele>788.6</ele>
        <time>2021-08-01T10:45:58Z</time>
      </trkpt>
      <trkpt lat="48.54259" lon="7.15418">
        <ele>788.7</ele>
        <time>2021-08-01T10:45:59Z</time>
      </trkpt>
      <trkpt lat="48.54259" lon="7.15418">
        <ele>788.8</ele>
        <time>2021-08-01T10:46:01Z</time>
      </trkpt>
      <trkpt lat="48.5426" lon="7.15419">
        <ele>788.8</ele>
        <time>2021-08-01T10:46:02Z</time>
      </trkpt>
      <trkpt lat="48.54259" lon="7.1542">
        <ele>788.9</ele>
        <time>2021-08-01T10:46:03Z</time>
      </trkpt>
      <trkpt lat="48.54258" lon="7.15423">
        <ele>789.2</ele>
        <time>2021-08-01T10:46:04Z</time>
      </trkpt>
      <trkpt lat="48.54254" lon="7.15429">
        <ele>789.9</ele>
        <time>2021-08-01T10:46:06Z</time>
      </trkpt>
      <trkpt lat="48.5425" lon="7.15433">
        <ele>790.4</ele>
        <time>2021-08-01T10:46:07Z</time>
      </trkpt>
      <trkpt lat="48.54246" lon="7.15436">
        <ele>791</ele>
        <time>2021-08-01T10:46:09Z</time>
      </trkpt>
      <trkpt lat="48.54242" lon="7.15441">
        <ele>791.5</ele>
        <time>2021-08-01T10:46:10Z</time>
      </trkpt>
      <trkpt lat="48.5424" lon="7.15443">
        <ele>791.8</ele>
        <time>2021-08-01T10:46:11Z</time>
      </trkpt>
      <trkpt lat="48.5424" lon="7.15444">
        <ele>791.8</ele>
        <time>2021-08-01T10:46:13Z</time>
      </trkpt>
      <trkpt lat="48.5424" lon="7.15445">
        <ele>791.9</ele>
        <time>2021-08-01T10:46:14Z</time>
      </trkpt>
      <trkpt lat="48.5424" lon="7.15446">
        <ele>791.9</ele>
        <time>2021-08-01T10:46:15Z</time>
      </trkpt>
      <trkpt lat="48.5424" lon="7.15446">
        <ele>792</ele>
        <time>2021-08-01T10:46:17Z</time>
      </trkpt>
      <trkpt lat="48.54241" lon="7.15447">
        <ele>792</ele>
        <time>2021-08-01T10:46:18Z</time>
      </trkpt>
      <trkpt lat="48.54241" lon="7.15448">
        <ele>792</ele>
        <time>2021-08-01T10:46:19Z</time>
      </trkpt>
      <trkpt lat="48.54241" lon="7.15448">
        <ele>792.1</ele>
        <time>2021-08-01T10:46:22Z</time>
      </trkpt>
      <trkpt lat="48.54241" lon="7.15449">
        <ele>792.1</ele>
        <time>2021-08-01T10:46:23Z</time>
      </trkpt>
      <trkpt lat="48.54241" lon="7.1545">
        <ele>792.2</ele>
        <time>2021-08-01T10:46:24Z</time>
      </trkpt>
      <trkpt lat="48.54242" lon="7.15452">
        <ele>792.4</ele>
        <time>2021-08-01T10:46:26Z</time>
      </trkpt>
      <trkpt lat="48.54243" lon="7.15454">
        <ele>792.5</ele>
        <time>2021-08-01T10:46:27Z</time>
      </trkpt>
      <trkpt lat="48.54243" lon="7.15456">
        <ele>792.6</ele>
        <time>2021-08-01T10:46:28Z</time>
      </trkpt>
      <trkpt lat="48.54244" lon="7.15458">
        <ele>792.8</ele>
        <time>2021-08-01T10:46:29Z</time>
      </trkpt>
      <trkpt lat="48.54244" lon="7.15461">
        <ele>793</ele>
        <time>2021-08-01T10:46:30Z</time>
      </trkpt>
      <trkpt lat="48.54245" lon="7.15462">
        <ele>793.1</ele>
        <time>2021-08-01T10:46:31Z</time>
      </trkpt>
      <trkpt lat="48.54246" lon="7.15464">
        <ele>793.2</ele>
        <time>2021-08-01T10:46:32Z</time>
      </trkpt>
      <trkpt lat="48.54247" lon="7.15468">
        <ele>793.5</ele>
        <time>2021-08-01T10:46:34Z</time>
      </trkpt>
      <trkpt lat="48.54247" lon="7.15469">
        <ele>793.6</ele>
        <time>2021-08-01T10:46:35Z</time>
      </trkpt>
      <trkpt lat="48.54247" lon="7.1547">
        <ele>793.7</ele>
        <time>2021-08-01T10:46:36Z</time>
      </trkpt>
      <trkpt lat="48.54247" lon="7.15472">
        <ele>793.8</ele>
        <time>2021-08-01T10:46:37Z</time>
      </trkpt>
      <trkpt lat="48.54246" lon="7.15472">
        <ele>793.8</ele>
        <time>2021-08-01T10:46:39Z</time>
      </trkpt>
      <trkpt lat="48.54246" lon="7.15473">
        <ele>793.9</ele>
        <time>2021-08-01T10:46:40Z</time>
      </trkpt>
      <trkpt lat="48.54246" lon="7.15473">
        <ele>793.9</ele>
        <time>2021-08-01T10:46:41Z</time>
      </trkpt>
      <trkpt lat="48.54246" lon="7.15476">
        <ele>794</ele>
        <time>2021-08-01T10:46:43Z</time>
      </trkpt>
      <trkpt lat="48.54247" lon="7.15477">
        <ele>794.2</ele>
        <time>2021-08-01T10:46:44Z</time>
      </trkpt>
      <trkpt lat="48.5425" lon="7.15479">
        <ele>794.4</ele>
        <time>2021-08-01T10:46:46Z</time>
      </trkpt>
      <trkpt lat="48.54295" lon="7.15629">
        <ele>805</ele>
        <time>2021-08-01T10:48:48Z</time>
      </trkpt>
      <trkpt lat="48.54293" lon="7.15635">
        <ele>805.1</ele>
        <time>2021-08-01T10:48:49Z</time>
      </trkpt>
      <trkpt lat="48.54293" lon="7.15639">
        <ele>805.2</ele>
        <time>2021-08-01T10:48:50Z</time>
      </trkpt>
      <trkpt lat="48.54292" lon="7.15642">
        <ele>805.3</ele>
        <time>2021-08-01T10:48:51Z</time>
      </trkpt>
      <trkpt lat="48.54292" lon="7.15648">
        <ele>805.4</ele>
        <time>2021-08-01T10:48:53Z</time>
      </trkpt>
      <trkpt lat="48.54291" lon="7.15653">
        <ele>805.5</ele>
        <time>2021-08-01T10:48:54Z</time>
      </trkpt>
      <trkpt lat="48.5429" lon="7.15658">
        <ele>805.6</ele>
        <time>2021-08-01T10:48:56Z</time>
      </trkpt>
      <trkpt lat="48.54288" lon="7.15661">
        <ele>805.7</ele>
        <time>2021-08-01T10:48:57Z</time>
      </trkpt>
      <trkpt lat="48.54287" lon="7.15662">
        <ele>805.8</ele>
        <time>2021-08-01T10:48:58Z</time>
      </trkpt>
      <trkpt lat="48.54285" lon="7.15664">
        <ele>805.9</ele>
        <time>2021-08-01T10:48:59Z</time>
      </trkpt>
      <trkpt lat="48.54282" lon="7.15669">
        <ele>806.1</ele>
        <time>2021-08-01T10:49:01Z</time>
      </trkpt>
      <trkpt lat="48.54282" lon="7.15671">
        <ele>806.2</ele>
        <time>2021-08-01T10:49:03Z</time>
      </trkpt>
      <trkpt lat="48.54283" lon="7.15672">
        <ele>806.2</ele>
        <time>2021-08-01T10:49:04Z</time>
      </trkpt>
      <trkpt lat="48.54284" lon="7.15674">
        <ele>806.3</ele>
        <time>2021-08-01T10:49:05Z</time>
      </trkpt>
      <trkpt lat="48.54284" lon="7.15679">
        <ele>806.5</ele>
        <time>2021-08-01T10:49:07Z</time>
      </trkpt>
      <trkpt lat="48.54284" lon="7.15683">
        <ele>806.6</ele>
        <time>2021-08-01T10:49:08Z</time>
      </trkpt>
      <trkpt lat="48.54283" lon="7.1569">
        <ele>806.8</ele>
        <time>2021-08-01T10:49:09Z</time>
      </trkpt>
      <trkpt lat="48.54282" lon="7.15698">
        <ele>807.1</ele>
        <time>2021-08-01T10:49:11Z</time>
      </trkpt>
      <trkpt lat="48.54281" lon="7.15702">
        <ele>807.2</ele>
        <time>2021-08-01T10:49:12Z</time>
      </trkpt>
      <trkpt lat="48.5428" lon="7.15708">
        <ele>807.3</ele>
        <time>2021-08-01T10:49:13Z</time>
      </trkpt>
      <trkpt lat="48.54278" lon="7.15712">
        <ele>807.3</ele>
        <time>2021-08-01T10:49:15Z</time>
      </trkpt>
      <trkpt lat="48.54278" lon="7.15714">
        <ele>807.3</ele>
        <time>2021-08-01T10:49:16Z</time>
      </trkpt>
      <trkpt lat="48.54277" lon="7.15716">
        <ele>807.3</ele>
        <time>2021-08-01T10:49:17Z</time>
      </trkpt>
      <trkpt lat="48.54277" lon="7.15717">
        <ele>807.3</ele>
        <time>2021-08-01T10:49:18Z</time>
      </trkpt>
      <trkpt lat="48.54276" lon="7.15718">
        <ele>807.3</ele>
        <time>2021-08-01T10:49:19Z</time>
      </trkpt>
      <trkpt lat="48.54276" lon="7.15719">
        <ele>807.3</ele>
        <time>2021-08-01T10:49:21Z</time>
      </trkpt>
      <trkpt lat="48.54276" lon="7.1572">
        <ele>807.3</ele>
        <time>2021-08-01T10:49:22Z</time>
      </trkpt>
      <trkpt lat="48.54275" lon="7.1572">
        <ele>807.3</ele>
        <time>2021-08-01T10:49:23Z</time>
      </trkpt>
      <trkpt lat="48.54273" lon="7.15723">
        <ele>807.3</ele>
        <time>2021-08-01T10:49:25Z</time>
      </trkpt>
      <trkpt lat="48.54273" lon="7.15724">
        <ele>807.3</ele>
        <time>2021-08-01T10:49:26Z</time>
      </trkpt>
      <trkpt lat="48.5427" lon="7.15727">
        <ele>807.3</ele>
        <time>2021-08-01T10:49:28Z</time>
      </trkpt>
      <trkpt lat="48.54267" lon="7.15731">
        <ele>807.2</ele>
        <time>2021-08-01T10:49:29Z</time>
      </trkpt>
      <trkpt lat="48.54265" lon="7.15735">
        <ele>807.2</ele>
        <time>2021-08-01T10:49:30Z</time>
      </trkpt>
      <trkpt lat="48.54263" lon="7.15737">
        <ele>807.2</ele>
        <time>2021-08-01T10:49:31Z</time>
      </trkpt>
      <trkpt lat="48.54262" lon="7.15739">
        <ele>807.2</ele>
        <time>2021-08-01T10:49:33Z</time>
      </trkpt>
      <trkpt lat="48.54258" lon="7.15742">
        <ele>807.2</ele>
        <time>2021-08-01T10:49:34Z</time>
      </trkpt>
      <trkpt lat="48.54255" lon="7.15745">
        <ele>807.2</ele>
        <time>2021-08-01T10:49:35Z</time>
      </trkpt>
      <trkpt lat="48.54252" lon="7.15748">
        <ele>807.2</ele>
        <time>2021-08-01T10:49:37Z</time>
      </trkpt>
      <trkpt lat="48.54249" lon="7.1575">
        <ele>807.2</ele>
        <time>2021-08-01T10:49:38Z</time>
      </trkpt>
      <trkpt lat="48.54246" lon="7.1575">
        <ele>807.2</ele>
        <time>2021-08-01T10:49:39Z</time>
      </trkpt>
      <trkpt lat="48.54243" lon="7.1575">
        <ele>807.2</ele>
        <time>2021-08-01T10:49:40Z</time>
      </trkpt>
      <trkpt lat="48.54242" lon="7.1575">
        <ele>807.2</ele>
        <time>2021-08-01T10:49:41Z</time>
      </trkpt>
      <trkpt lat="48.54238" lon="7.15754">
        <ele>807.2</ele>
        <time>2021-08-01T10:49:43Z</time>
      </trkpt>
      <trkpt lat="48.54235" lon="7.15756">
        <ele>807.2</ele>
        <time>2021-08-01T10:49:44Z</time>
      </trkpt>
      <trkpt lat="48.54231" lon="7.1576">
        <ele>807.2</ele>
        <time>2021-08-01T10:49:46Z</time>
      </trkpt>
      <trkpt lat="48.54228" lon="7.15763">
        <ele>807.2</ele>
        <time>2021-08-01T10:49:47Z</time>
      </trkpt>
      <trkpt lat="48.54225" lon="7.15769">
        <ele>807.2</ele>
        <time>2021-08-01T10:49:49Z</time>
      </trkpt>
      <trkpt lat="48.54222" lon="7.15774">
        <ele>807.2</ele>
        <time>2021-08-01T10:49:50Z</time>
      </trkpt>
      <trkpt lat="48.54218" lon="7.15784">
        <ele>807.3</ele>
        <time>2021-08-01T10:49:51Z</time>
      </trkpt>
      <trkpt lat="48.54215" lon="7.15792">
        <ele>807.3</ele>
        <time>2021-08-01T10:49:53Z</time>
      </trkpt>
      <trkpt lat="48.54212" lon="7.15798">
        <ele>807.4</ele>
        <time>2021-08-01T10:49:54Z</time>
      </trkpt>
      <trkpt lat="48.54209" lon="7.15805">
        <ele>807.5</ele>
        <time>2021-08-01T10:49:55Z</time>
      </trkpt>
      <trkpt lat="48.54206" lon="7.15819">
        <ele>807.6</ele>
        <time>2021-08-01T10:49:56Z</time>
      </trkpt>
      <trkpt lat="48.54203" lon="7.1583">
        <ele>807.9</ele>
        <time>2021-08-01T10:49:58Z</time>
      </trkpt>
      <trkpt lat="48.54202" lon="7.15834">
        <ele>808</ele>
        <time>2021-08-01T10:49:59Z</time>
      </trkpt>
      <trkpt lat="48.54201" lon="7.15837">
        <ele>808</ele>
        <time>2021-08-01T10:50:00Z</time>
      </trkpt>
      <trkpt lat="48.54199" lon="7.15847">
        <ele>808.3</ele>
        <time>2021-08-01T10:50:02Z</time>
      </trkpt>
      <trkpt lat="48.54197" lon="7.15851">
        <ele>808.4</ele>
        <time>2021-08-01T10:50:03Z</time>
      </trkpt>
      <trkpt lat="48.54194" lon="7.15857">
        <ele>808.5</ele>
        <time>2021-08-01T10:50:04Z</time>
      </trkpt>
      <trkpt lat="48.5419" lon="7.15863">
        <ele>808.7</ele>
        <time>2021-08-01T10:50:06Z</time>
      </trkpt>
      <trkpt lat="48.54189" lon="7.15865">
        <ele>808.8</ele>
        <time>2021-08-01T10:50:07Z</time>
      </trkpt>
      <trkpt lat="48.54187" lon="7.1587">
        <ele>808.9</ele>
        <time>2021-08-01T10:50:09Z</time>
      </trkpt>
      <trkpt lat="48.54085" lon="7.15975">
        <ele>812.1</ele>
        <time>2021-08-01T10:50:53Z</time>
      </trkpt>
      <trkpt lat="48.54081" lon="7.15977">
        <ele>812.2</ele>
        <time>2021-08-01T10:50:55Z</time>
      </trkpt>
      <trkpt lat="48.54075" lon="7.15981">
        <ele>812.2</ele>
        <time>2021-08-01T10:50:56Z</time>
      </trkpt>
      <trkpt lat="48.54065" lon="7.15994">
        <ele>812.2</ele>
        <time>2021-08-01T10:50:59Z</time>
      </trkpt>
      <trkpt lat="48.54062" lon="7.15999">
        <ele>812.2</ele>
        <time>2021-08-01T10:51:00Z</time>
      </trkpt>
      <trkpt lat="48.54057" lon="7.16006">
        <ele>812.1</ele>
        <time>2021-08-01T10:51:01Z</time>
      </trkpt>
      <trkpt lat="48.54053" lon="7.1601">
        <ele>812.1</ele>
        <time>2021-08-01T10:51:02Z</time>
      </trkpt>
      <trkpt lat="48.5405" lon="7.16013">
        <ele>812.1</ele>
        <time>2021-08-01T10:51:04Z</time>
      </trkpt>
      <trkpt lat="48.54047" lon="7.16016">
        <ele>812</ele>
        <time>2021-08-01T10:51:05Z</time>
      </trkpt>
      <trkpt lat="48.54044" lon="7.1602">
        <ele>812</ele>
        <time>2021-08-01T10:51:06Z</time>
      </trkpt>
      <trkpt lat="48.54041" lon="7.16023">
        <ele>812</ele>
        <time>2021-08-01T10:51:07Z</time>
      </trkpt>
      <trkpt lat="48.54038" lon="7.16027">
        <ele>812</ele>
        <time>2021-08-01T10:51:08Z</time>
      </trkpt>
      <trkpt lat="48.54033" lon="7.16034">
        <ele>811.9</ele>
        <time>2021-08-01T10:51:10Z</time>
      </trkpt>
      <trkpt lat="48.54029" lon="7.1604">
        <ele>811.9</ele>
        <time>2021-08-01T10:51:11Z</time>
      </trkpt>
      <trkpt lat="48.54023" lon="7.16047">
        <ele>811.8</ele>
        <time>2021-08-01T10:51:13Z</time>
      </trkpt>
      <trkpt lat="48.54018" lon="7.16055">
        <ele>811.7</ele>
        <time>2021-08-01T10:51:14Z</time>
      </trkpt>
      <trkpt lat="48.54014" lon="7.1606">
        <ele>811.7</ele>
        <time>2021-08-01T10:51:16Z</time>
      </trkpt>
      <trkpt lat="48.5401" lon="7.16064">
        <ele>811.6</ele>
        <time>2021-08-01T10:51:17Z</time>
      </trkpt>
      <trkpt lat="48.54005" lon="7.16068">
        <ele>811.6</ele>
        <time>2021-08-01T10:51:18Z</time>
      </trkpt>
      <trkpt lat="48.54001" lon="7.16072">
        <ele>811.5</ele>
        <time>2021-08-01T10:51:19Z</time>
      </trkpt>
      <trkpt lat="48.53996" lon="7.16076">
        <ele>811.5</ele>
        <time>2021-08-01T10:51:20Z</time>
      </trkpt>
      <trkpt lat="48.53989" lon="7.16081">
        <ele>811.5</ele>
        <time>2021-08-01T10:51:22Z</time>
      </trkpt>
      <trkpt lat="48.53985" lon="7.16085">
        <ele>811.5</ele>
        <time>2021-08-01T10:51:23Z</time>
      </trkpt>
      <trkpt lat="48.53982" lon="7.16088">
        <ele>811.5</ele>
        <time>2021-08-01T10:51:24Z</time>
      </trkpt>
      <trkpt lat="48.53976" lon="7.16095">
        <ele>811.5</ele>
        <time>2021-08-01T10:51:25Z</time>
      </trkpt>
      <trkpt lat="48.53972" lon="7.16101">
        <ele>811.5</ele>
        <time>2021-08-01T10:51:26Z</time>
      </trkpt>
      <trkpt lat="48.53967" lon="7.16106">
        <ele>811.6</ele>
        <time>2021-08-01T10:51:28Z</time>
      </trkpt>
      <trkpt lat="48.53963" lon="7.16111">
        <ele>811.6</ele>
        <time>2021-08-01T10:51:29Z</time>
      </trkpt>
      <trkpt lat="48.53957" lon="7.16116">
        <ele>811.7</ele>
        <time>2021-08-01T10:51:30Z</time>
      </trkpt>
      <trkpt lat="48.53952" lon="7.16121">
        <ele>811.7</ele>
        <time>2021-08-01T10:51:31Z</time>
      </trkpt>
      <trkpt lat="48.53947" lon="7.16125">
        <ele>811.8</ele>
        <time>2021-08-01T10:51:33Z</time>
      </trkpt>
      <trkpt lat="48.53942" lon="7.16128">
        <ele>811.9</ele>
        <time>2021-08-01T10:51:34Z</time>
      </trkpt>
      <trkpt lat="48.53938" lon="7.16132">
        <ele>811.9</ele>
        <time>2021-08-01T10:51:35Z</time>
      </trkpt>
      <trkpt lat="48.53934" lon="7.16136">
        <ele>812</ele>
        <time>2021-08-01T10:51:36Z</time>
      </trkpt>
      <trkpt lat="48.53931" lon="7.16139">
        <ele>812</ele>
        <time>2021-08-01T10:51:37Z</time>
      </trkpt>
      <trkpt lat="48.53929" lon="7.16143">
        <ele>812</ele>
        <time>2021-08-01T10:51:39Z</time>
      </trkpt>
      <trkpt lat="48.53926" lon="7.16146">
        <ele>812.1</ele>
        <time>2021-08-01T10:51:40Z</time>
      </trkpt>
      <trkpt lat="48.53924" lon="7.16148">
        <ele>812.1</ele>
        <time>2021-08-01T10:51:41Z</time>
      </trkpt>
      <trkpt lat="48.53923" lon="7.16149">
        <ele>812.1</ele>
        <time>2021-08-01T10:51:42Z</time>
      </trkpt>
      <trkpt lat="48.53921" lon="7.1615">
        <ele>812.1</ele>
        <time>2021-08-01T10:51:43Z</time>
      </trkpt>
      <trkpt lat="48.53919" lon="7.16151">
        <ele>812.2</ele>
        <time>2021-08-01T10:51:45Z</time>
      </trkpt>
      <trkpt lat="48.53918" lon="7.16151">
        <ele>812.2</ele>
        <time>2021-08-01T10:51:46Z</time>
      </trkpt>
      <trkpt lat="48.53673" lon="7.16178">
        <ele>822.4</ele>
        <time>2021-08-01T10:53:40Z</time>
      </trkpt>
      <trkpt lat="48.53669" lon="7.1618">
        <ele>822.6</ele>
        <time>2021-08-01T10:53:41Z</time>
      </trkpt>
      <trkpt lat="48.53665" lon="7.16182">
        <ele>822.8</ele>
        <time>2021-08-01T10:53:42Z</time>
      </trkpt>
      <trkpt lat="48.5366" lon="7.16184">
        <ele>823.1</ele>
        <time>2021-08-01T10:53:43Z</time>
      </trkpt>
      <trkpt lat="48.53655" lon="7.16185">
        <ele>823.4</ele>
        <time>2021-08-01T10:53:44Z</time>
      </trkpt>
      <trkpt lat="48.53646" lon="7.16188">
        <ele>823.8</ele>
        <time>2021-08-01T10:53:46Z</time>
      </trkpt>
      <trkpt lat="48.53641" lon="7.1619">
        <ele>824</ele>
        <time>2021-08-01T10:53:47Z</time>
      </trkpt>
      <trkpt lat="48.53638" lon="7.16191">
        <ele>824.1</ele>
        <time>2021-08-01T10:53:49Z</time>
      </trkpt>
      <trkpt lat="48.53637" lon="7.16191">
        <ele>824.2</ele>
        <time>2021-08-01T10:53:50Z</time>
      </trkpt>
      <trkpt lat="48.53634" lon="7.16192">
        <ele>824.3</ele>
        <time>2021-08-01T10:53:52Z</time>
      </trkpt>
      <trkpt lat="48.53631" lon="7.16192">
        <ele>824.4</ele>
        <time>2021-08-01T10:53:53Z</time>
      </trkpt>
      <trkpt lat="48.5363" lon="7.16192">
        <ele>824.4</ele>
        <time>2021-08-01T10:53:54Z</time>
      </trkpt>
      <trkpt lat="48.53595" lon="7.16218">
        <ele>825.4</ele>
        <time>2021-08-01T10:54:21Z</time>
      </trkpt>
      <trkpt lat="48.53592" lon="7.1622">
        <ele>825.4</ele>
        <time>2021-08-01T10:54:22Z</time>
      </trkpt>
      <trkpt lat="48.53588" lon="7.16224">
        <ele>825.5</ele>
        <time>2021-08-01T10:54:23Z</time>
      </trkpt>
      <trkpt lat="48.53584" lon="7.16227">
        <ele>825.5</ele>
        <time>2021-08-01T10:54:24Z</time>
      </trkpt>
      <trkpt lat="48.53581" lon="7.16232">
        <ele>825.6</ele>
        <time>2021-08-01T10:54:25Z</time>
      </trkpt>
      <trkpt lat="48.53577" lon="7.16237">
        <ele>825.6</ele>
        <time>2021-08-01T10:54:26Z</time>
      </trkpt>
      <trkpt lat="48.53572" lon="7.16244">
        <ele>825.7</ele>
        <time>2021-08-01T10:54:28Z</time>
      </trkpt>
      <trkpt lat="48.53569" lon="7.1625">
        <ele>825.7</ele>
        <time>2021-08-01T10:54:29Z</time>
      </trkpt>
      <trkpt lat="48.53566" lon="7.16255">
        <ele>825.7</ele>
        <time>2021-08-01T10:54:30Z</time>
      </trkpt>
      <trkpt lat="48.53564" lon="7.16263">
        <ele>825.7</ele>
        <time>2021-08-01T10:54:32Z</time>
      </trkpt>
      <trkpt lat="48.53561" lon="7.16271">
        <ele>825.7</ele>
        <time>2021-08-01T10:54:34Z</time>
      </trkpt>
      <trkpt lat="48.53559" lon="7.16277">
        <ele>825.8</ele>
        <time>2021-08-01T10:54:35Z</time>
      </trkpt>
      <trkpt lat="48.53556" lon="7.16282">
        <ele>825.8</ele>
        <time>2021-08-01T10:54:37Z</time>
      </trkpt>
      <trkpt lat="48.53554" lon="7.16286">
        <ele>825.9</ele>
        <time>2021-08-01T10:54:38Z</time>
      </trkpt>
      <trkpt lat="48.53553" lon="7.16289">
        <ele>825.9</ele>
        <time>2021-08-01T10:54:39Z</time>
      </trkpt>
      <trkpt lat="48.53552" lon="7.16291">
        <ele>825.9</ele>
        <time>2021-08-01T10:54:40Z</time>
      </trkpt>
      <trkpt lat="48.53551" lon="7.16296">
        <ele>826</ele>
        <time>2021-08-01T10:54:42Z</time>
      </trkpt>
      <trkpt lat="48.5355" lon="7.16297">
        <ele>826</ele>
        <time>2021-08-01T10:54:43Z</time>
      </trkpt>
      <trkpt lat="48.53548" lon="7.163">
        <ele>826</ele>
        <time>2021-08-01T10:54:44Z</time>
      </trkpt>
      <trkpt lat="48.53546" lon="7.16303">
        <ele>826.1</ele>
        <time>2021-08-01T10:54:45Z</time>
      </trkpt>
      <trkpt lat="48.53546" lon="7.16304">
        <ele>826.1</ele>
        <time>2021-08-01T10:54:46Z</time>
      </trkpt>
      <trkpt lat="48.53544" lon="7.16306">
        <ele>826.1</ele>
        <time>2021-08-01T10:54:48Z</time>
      </trkpt>
      <trkpt lat="48.53455" lon="7.16404">
        <ele>828.3</ele>
        <time>2021-08-01T10:55:20Z</time>
      </trkpt>
      <trkpt lat="48.53447" lon="7.16413">
        <ele>828.3</ele>
        <time>2021-08-01T10:55:22Z</time>
      </trkpt>
      <trkpt lat="48.53441" lon="7.16418">
        <ele>828.1</ele>
        <time>2021-08-01T10:55:23Z</time>
      </trkpt>
      <trkpt lat="48.53436" lon="7.16422">
        <ele>827.9</ele>
        <time>2021-08-01T10:55:24Z</time>
      </trkpt>
      <trkpt lat="48.53424" lon="7.16432">
        <ele>827.1</ele>
        <time>2021-08-01T10:55:26Z</time>
      </trkpt>
      <trkpt lat="48.53416" lon="7.16436">
        <ele>826.4</ele>
        <time>2021-08-01T10:55:28Z</time>
      </trkpt>
      <trkpt lat="48.5341" lon="7.16439">
        <ele>826</ele>
        <time>2021-08-01T10:55:29Z</time>
      </trkpt>
      <trkpt lat="48.53403" lon="7.16443">
        <ele>825.6</ele>
        <time>2021-08-01T10:55:31Z</time>
      </trkpt>
      <trkpt lat="48.53398" lon="7.16449">
        <ele>825.3</ele>
        <time>2021-08-01T10:55:33Z</time>
      </trkpt>
      <trkpt lat="48.53395" lon="7.16453">
        <ele>825.1</ele>
        <time>2021-08-01T10:55:34Z</time>
      </trkpt>
      <trkpt lat="48.53394" lon="7.16454">
        <ele>825.1</ele>
        <time>2021-08-01T10:55:35Z</time>
      </trkpt>
      <trkpt lat="48.53387" lon="7.16462">
        <ele>824.8</ele>
        <time>2021-08-01T10:55:37Z</time>
      </trkpt>
      <trkpt lat="48.53377" lon="7.16472">
        <ele>824.5</ele>
        <time>2021-08-01T10:55:38Z</time>
      </trkpt>
      <trkpt lat="48.53226" lon="7.1659">
        <ele>817.4</ele>
        <time>2021-08-01T10:56:02Z</time>
      </trkpt>
      <trkpt lat="48.53205" lon="7.16614">
        <ele>816.2</ele>
        <time>2021-08-01T10:56:04Z</time>
      </trkpt>
      <trkpt lat="48.53195" lon="7.16622">
        <ele>815.9</ele>
        <time>2021-08-01T10:56:05Z</time>
      </trkpt>
      <trkpt lat="48.53181" lon="7.16634">
        <ele>815.2</ele>
        <time>2021-08-01T10:56:07Z</time>
      </trkpt>
      <trkpt lat="48.53169" lon="7.16644">
        <ele>814.6</ele>
        <time>2021-08-01T10:56:09Z</time>
      </trkpt>
      <trkpt lat="48.53162" lon="7.16648">
        <ele>814.2</ele>
        <time>2021-08-01T10:56:10Z</time>
      </trkpt>
      <trkpt lat="48.53155" lon="7.16653">
        <ele>813.7</ele>
        <time>2021-08-01T10:56:11Z</time>
      </trkpt>
      <trkpt lat="48.53152" lon="7.16661">
        <ele>813.3</ele>
        <time>2021-08-01T10:56:13Z</time>
      </trkpt>
      <trkpt lat="48.5313" lon="7.1667">
        <ele>812</ele>
        <time>2021-08-01T10:56:15Z</time>
      </trkpt>
      <trkpt lat="48.53116" lon="7.16677">
        <ele>811.1</ele>
        <time>2021-08-01T10:56:16Z</time>
      </trkpt>
      <trkpt lat="48.53105" lon="7.16683">
        <ele>809.9</ele>
        <time>2021-08-01T10:56:17Z</time>
      </trkpt>
      <trkpt lat="48.53089" lon="7.16695">
        <ele>808.2</ele>
        <time>2021-08-01T10:56:19Z</time>
      </trkpt>
      <trkpt lat="48.53081" lon="7.167">
        <ele>807.3</ele>
        <time>2021-08-01T10:56:20Z</time>
      </trkpt>
      <trkpt lat="48.5307" lon="7.16709">
        <ele>806.1</ele>
        <time>2021-08-01T10:56:22Z</time>
      </trkpt>
      <trkpt lat="48.53064" lon="7.16713">
        <ele>805.6</ele>
        <time>2021-08-01T10:56:23Z</time>
      </trkpt>
      <trkpt lat="48.5306" lon="7.16717">
        <ele>805.1</ele>
        <time>2021-08-01T10:56:24Z</time>
      </trkpt>
      <trkpt lat="48.53055" lon="7.16721">
        <ele>804.6</ele>
        <time>2021-08-01T10:56:25Z</time>
      </trkpt>
      <trkpt lat="48.5305" lon="7.16725">
        <ele>804</ele>
        <time>2021-08-01T10:56:26Z</time>
      </trkpt>
      <trkpt lat="48.53045" lon="7.16731">
        <ele>803.4</ele>
        <time>2021-08-01T10:56:27Z</time>
      </trkpt>
      <trkpt lat="48.53039" lon="7.16737">
        <ele>802.6</ele>
        <time>2021-08-01T10:56:28Z</time>
      </trkpt>
      <trkpt lat="48.53033" lon="7.16742">
        <ele>801.8</ele>
        <time>2021-08-01T10:56:29Z</time>
      </trkpt>
      <trkpt lat="48.53027" lon="7.16747">
        <ele>801</ele>
        <time>2021-08-01T10:56:30Z</time>
      </trkpt>
      <trkpt lat="48.53014" lon="7.16759">
        <ele>799.3</ele>
        <time>2021-08-01T10:56:32Z</time>
      </trkpt>
      <trkpt lat="48.53007" lon="7.16764">
        <ele>798.4</ele>
        <time>2021-08-01T10:56:33Z</time>
      </trkpt>
      <trkpt lat="48.52991" lon="7.16773">
        <ele>796.6</ele>
        <time>2021-08-01T10:56:35Z</time>
      </trkpt>
      <trkpt lat="48.52983" lon="7.16777">
        <ele>795.7</ele>
        <time>2021-08-01T10:56:36Z</time>
      </trkpt>
      <trkpt lat="48.52973" lon="7.16787">
        <ele>794.3</ele>
        <time>2021-08-01T10:56:38Z</time>
      </trkpt>
      <trkpt lat="48.52967" lon="7.16793">
        <ele>793.5</ele>
        <time>2021-08-01T10:56:39Z</time>
      </trkpt>
      <trkpt lat="48.5296" lon="7.16799">
        <ele>792.5</ele>
        <time>2021-08-01T10:56:40Z</time>
      </trkpt>
      <trkpt lat="48.52946" lon="7.16812">
        <ele>790.7</ele>
        <time>2021-08-01T10:56:42Z</time>
      </trkpt>
      <trkpt lat="48.52939" lon="7.16817">
        <ele>789.8</ele>
        <time>2021-08-01T10:56:43Z</time>
      </trkpt>
      <trkpt lat="48.52932" lon="7.16821">
        <ele>789.2</ele>
        <time>2021-08-01T10:56:44Z</time>
      </trkpt>
      <trkpt lat="48.52917" lon="7.16825">
        <ele>788.1</ele>
        <time>2021-08-01T10:56:46Z</time>
      </trkpt>
      <trkpt lat="48.52902" lon="7.16828">
        <ele>787.3</ele>
        <time>2021-08-01T10:56:48Z</time>
      </trkpt>
      <trkpt lat="48.52885" lon="7.16832">
        <ele>786.5</ele>
        <time>2021-08-01T10:56:50Z</time>
      </trkpt>
      <trkpt lat="48.52871" lon="7.16839">
        <ele>785.5</ele>
        <time>2021-08-01T10:56:52Z</time>
      </trkpt>
      <trkpt lat="48.52867" lon="7.16844">
        <ele>785.5</ele>
        <time>2021-08-01T10:56:53Z</time>
      </trkpt>
      <trkpt lat="48.52864" lon="7.16847">
        <ele>784.1</ele>
        <time>2021-08-01T10:56:54Z</time>
      </trkpt>
      <trkpt lat="48.52862" lon="7.1685">
        <ele>784</ele>
        <time>2021-08-01T10:56:55Z</time>
      </trkpt>
      <trkpt lat="48.52861" lon="7.16851">
        <ele>784</ele>
        <time>2021-08-01T10:56:57Z</time>
      </trkpt>
      <trkpt lat="48.52861" lon="7.16852">
        <ele>784</ele>
        <time>2021-08-01T10:56:58Z</time>
      </trkpt>
      <trkpt lat="48.52861" lon="7.16853">
        <ele>784</ele>
        <time>2021-08-01T10:57:00Z</time>
      </trkpt>
      <trkpt lat="48.52858" lon="7.16855">
        <ele>783.9</ele>
        <time>2021-08-01T10:57:02Z</time>
      </trkpt>
      <trkpt lat="48.52856" lon="7.16855">
        <ele>783.9</ele>
        <time>2021-08-01T10:57:04Z</time>
      </trkpt>
      <trkpt lat="48.52855" lon="7.16855">
        <ele>783.8</ele>
        <time>2021-08-01T10:57:05Z</time>
      </trkpt>
      <trkpt lat="48.52852" lon="7.16854">
        <ele>783.8</ele>
        <time>2021-08-01T10:57:06Z</time>
      </trkpt>
      <trkpt lat="48.52851" lon="7.16853">
        <ele>783.7</ele>
        <time>2021-08-01T10:57:07Z</time>
      </trkpt>
      <trkpt lat="48.52848" lon="7.1685">
        <ele>783.7</ele>
        <time>2021-08-01T10:57:08Z</time>
      </trkpt>
      <trkpt lat="48.5284" lon="7.16841">
        <ele>783.5</ele>
        <time>2021-08-01T10:57:10Z</time>
      </trkpt>
      <trkpt lat="48.52829" lon="7.16834">
        <ele>783.4</ele>
        <time>2021-08-01T10:57:12Z</time>
      </trkpt>
      <trkpt lat="48.52818" lon="7.16828">
        <ele>783.3</ele>
        <time>2021-08-01T10:57:14Z</time>
      </trkpt>
      <trkpt lat="48.52808" lon="7.1682">
        <ele>783.3</ele>
        <time>2021-08-01T10:57:16Z</time>
      </trkpt>
      <trkpt lat="48.52799" lon="7.16811">
        <ele>783.3</ele>
        <time>2021-08-01T10:57:18Z</time>
      </trkpt>
      <trkpt lat="48.52795" lon="7.16806">
        <ele>783.2</ele>
        <time>2021-08-01T10:57:19Z</time>
      </trkpt>
      <trkpt lat="48.52791" lon="7.16802">
        <ele>783.2</ele>
        <time>2021-08-01T10:57:20Z</time>
      </trkpt>
      <trkpt lat="48.52786" lon="7.16792">
        <ele>783.2</ele>
        <time>2021-08-01T10:57:22Z</time>
      </trkpt>
      <trkpt lat="48.52782" lon="7.16784">
        <ele>783.2</ele>
        <time>2021-08-01T10:57:24Z</time>
      </trkpt>
      <trkpt lat="48.52776" lon="7.16777">
        <ele>783.2</ele>
        <time>2021-08-01T10:57:26Z</time>
      </trkpt>
      <trkpt lat="48.5277" lon="7.16768">
        <ele>783.2</ele>
        <time>2021-08-01T10:57:28Z</time>
      </trkpt>
      <trkpt lat="48.52769" lon="7.16766">
        <ele>783.2</ele>
        <time>2021-08-01T10:57:30Z</time>
      </trkpt>
      <trkpt lat="48.52769" lon="7.16767">
        <ele>783.2</ele>
        <time>2021-08-01T10:57:31Z</time>
      </trkpt>
      <trkpt lat="48.52769" lon="7.16768">
        <ele>783.3</ele>
        <time>2021-08-01T10:57:33Z</time>
      </trkpt>
      <trkpt lat="48.52769" lon="7.16769">
        <ele>783.3</ele>
        <time>2021-08-01T10:57:34Z</time>
      </trkpt>
      <trkpt lat="48.52769" lon="7.1677">
        <ele>783.3</ele>
        <time>2021-08-01T10:57:36Z</time>
      </trkpt>
      <trkpt lat="48.52769" lon="7.16771">
        <ele>783.3</ele>
        <time>2021-08-01T10:57:37Z</time>
      </trkpt>
      <trkpt lat="48.5277" lon="7.16773">
        <ele>783.3</ele>
        <time>2021-08-01T10:57:38Z</time>
      </trkpt>
      <trkpt lat="48.5277" lon="7.16774">
        <ele>783.3</ele>
        <time>2021-08-01T10:57:40Z</time>
      </trkpt>
      <trkpt lat="48.5277" lon="7.16775">
        <ele>783.3</ele>
        <time>2021-08-01T10:57:42Z</time>
      </trkpt>
      <trkpt lat="48.5277" lon="7.16776">
        <ele>783.3</ele>
        <time>2021-08-01T10:57:43Z</time>
      </trkpt>
      <trkpt lat="48.5277" lon="7.16777">
        <ele>783.3</ele>
        <time>2021-08-01T10:59:28Z</time>
      </trkpt>
      <trkpt lat="48.52771" lon="7.16778">
        <ele>783.3</ele>
        <time>2021-08-01T10:59:29Z</time>
      </trkpt>
      <trkpt lat="48.52769" lon="7.16774">
        <ele>783.3</ele>
        <time>2021-08-01T10:59:30Z</time>
      </trkpt>
      <trkpt lat="48.52767" lon="7.16772">
        <ele>783.3</ele>
        <time>2021-08-01T10:59:31Z</time>
      </trkpt>
      <trkpt lat="48.52764" lon="7.1677">
        <ele>783.3</ele>
        <time>2021-08-01T10:59:33Z</time>
      </trkpt>
      <trkpt lat="48.52762" lon="7.16768">
        <ele>783.3</ele>
        <time>2021-08-01T10:59:34Z</time>
      </trkpt>
      <trkpt lat="48.52761" lon="7.16767">
        <ele>785.4</ele>
        <time>2021-08-01T10:59:35Z</time>
      </trkpt>
      <trkpt lat="48.52759" lon="7.16764">
        <ele>785.5</ele>
        <time>2021-08-01T10:59:36Z</time>
      </trkpt>
      <trkpt lat="48.52757" lon="7.16761">
        <ele>785.6</ele>
        <time>2021-08-01T10:59:37Z</time>
      </trkpt>
      <trkpt lat="48.52754" lon="7.16757">
        <ele>785.8</ele>
        <time>2021-08-01T10:59:39Z</time>
      </trkpt>
      <trkpt lat="48.52751" lon="7.16754">
        <ele>786</ele>
        <time>2021-08-01T10:59:40Z</time>
      </trkpt>
      <trkpt lat="48.52748" lon="7.1675">
        <ele>786.3</ele>
        <time>2021-08-01T10:59:41Z</time>
      </trkpt>
      <trkpt lat="48.52745" lon="7.16746">
        <ele>786.5</ele>
        <time>2021-08-01T10:59:42Z</time>
      </trkpt>
      <trkpt lat="48.52742" lon="7.16743">
        <ele>786.8</ele>
        <time>2021-08-01T10:59:43Z</time>
      </trkpt>
      <trkpt lat="48.52741" lon="7.16742">
        <ele>786.9</ele>
        <time>2021-08-01T10:59:44Z</time>
      </trkpt>
      <trkpt lat="48.52737" lon="7.16742">
        <ele>787.1</ele>
        <time>2021-08-01T10:59:45Z</time>
      </trkpt>
      <trkpt lat="48.52736" lon="7.16742">
        <ele>787.2</ele>
        <time>2021-08-01T10:59:46Z</time>
      </trkpt>
      <trkpt lat="48.52732" lon="7.16742">
        <ele>787.5</ele>
        <time>2021-08-01T10:59:48Z</time>
      </trkpt>
      <trkpt lat="48.52727" lon="7.16742">
        <ele>787.8</ele>
        <time>2021-08-01T10:59:49Z</time>
      </trkpt>
      <trkpt lat="48.52724" lon="7.16742">
        <ele>788.1</ele>
        <time>2021-08-01T10:59:50Z</time>
      </trkpt>
      <trkpt lat="48.52723" lon="7.16742">
        <ele>788.2</ele>
        <time>2021-08-01T10:59:51Z</time>
      </trkpt>
      <trkpt lat="48.52721" lon="7.16742">
        <ele>788.3</ele>
        <time>2021-08-01T10:59:53Z</time>
      </trkpt>
      <trkpt lat="48.52718" lon="7.16742">
        <ele>788.5</ele>
        <time>2021-08-01T10:59:54Z</time>
      </trkpt>
      <trkpt lat="48.52717" lon="7.16741">
        <ele>788.5</ele>
        <time>2021-08-01T10:59:55Z</time>
      </trkpt>
      <trkpt lat="48.52716" lon="7.16741">
        <ele>788.6</ele>
        <time>2021-08-01T10:59:57Z</time>
      </trkpt>
      <trkpt lat="48.52715" lon="7.1674">
        <ele>788.7</ele>
        <time>2021-08-01T10:59:58Z</time>
      </trkpt>
      <trkpt lat="48.52714" lon="7.1674">
        <ele>788.8</ele>
        <time>2021-08-01T10:59:59Z</time>
      </trkpt>
      <trkpt lat="48.52713" lon="7.16739">
        <ele>788.8</ele>
        <time>2021-08-01T11:00:01Z</time>
      </trkpt>
      <trkpt lat="48.52711" lon="7.16739">
        <ele>788.9</ele>
        <time>2021-08-01T11:00:02Z</time>
      </trkpt>
      <trkpt lat="48.52708" lon="7.16735">
        <ele>789.2</ele>
        <time>2021-08-01T11:00:04Z</time>
      </trkpt>
      <trkpt lat="48.52699" lon="7.16729">
        <ele>789.8</ele>
        <time>2021-08-01T11:00:08Z</time>
      </trkpt>
      <trkpt lat="48.52696" lon="7.1673">
        <ele>790</ele>
        <time>2021-08-01T11:00:09Z</time>
      </trkpt>
      <trkpt lat="48.52693" lon="7.16726">
        <ele>790.2</ele>
        <time>2021-08-01T11:00:11Z</time>
      </trkpt>
      <trkpt lat="48.52691" lon="7.1672">
        <ele>790.5</ele>
        <time>2021-08-01T11:00:12Z</time>
      </trkpt>
      <trkpt lat="48.52689" lon="7.16715">
        <ele>790.7</ele>
        <time>2021-08-01T11:00:13Z</time>
      </trkpt>
      <trkpt lat="48.52687" lon="7.16711">
        <ele>790.9</ele>
        <time>2021-08-01T11:00:15Z</time>
      </trkpt>
      <trkpt lat="48.52683" lon="7.16708">
        <ele>791.2</ele>
        <time>2021-08-01T11:00:17Z</time>
      </trkpt>
      <trkpt lat="48.52681" lon="7.16706">
        <ele>791.4</ele>
        <time>2021-08-01T11:00:18Z</time>
      </trkpt>
      <trkpt lat="48.52678" lon="7.16705">
        <ele>791.6</ele>
        <time>2021-08-01T11:00:20Z</time>
      </trkpt>
      <trkpt lat="48.52676" lon="7.16707">
        <ele>791.8</ele>
        <time>2021-08-01T11:00:22Z</time>
      </trkpt>
      <trkpt lat="48.52677" lon="7.16711">
        <ele>791.9</ele>
        <time>2021-08-01T11:00:24Z</time>
      </trkpt>
      <trkpt lat="48.52676" lon="7.16711">
        <ele>792</ele>
        <time>2021-08-01T11:00:26Z</time>
      </trkpt>
      <trkpt lat="48.52674" lon="7.1671">
        <ele>792.1</ele>
        <time>2021-08-01T11:00:27Z</time>
      </trkpt>
      <trkpt lat="48.52671" lon="7.16709">
        <ele>792.3</ele>
        <time>2021-08-01T11:00:29Z</time>
      </trkpt>
      <trkpt lat="48.5267" lon="7.16708">
        <ele>792.4</ele>
        <time>2021-08-01T11:00:30Z</time>
      </trkpt>
      <trkpt lat="48.52668" lon="7.16707">
        <ele>792.5</ele>
        <time>2021-08-01T11:00:31Z</time>
      </trkpt>
      <trkpt lat="48.52666" lon="7.16706">
        <ele>792.7</ele>
        <time>2021-08-01T11:00:32Z</time>
      </trkpt>
      <trkpt lat="48.52663" lon="7.16702">
        <ele>792.9</ele>
        <time>2021-08-01T11:00:34Z</time>
      </trkpt>
      <trkpt lat="48.52663" lon="7.167">
        <ele>793</ele>
        <time>2021-08-01T11:00:35Z</time>
      </trkpt>
      <trkpt lat="48.52661" lon="7.16698">
        <ele>793.1</ele>
        <time>2021-08-01T11:00:37Z</time>
      </trkpt>
      <trkpt lat="48.52659" lon="7.16696">
        <ele>793.3</ele>
        <time>2021-08-01T11:00:39Z</time>
      </trkpt>
      <trkpt lat="48.52658" lon="7.16694">
        <ele>793.4</ele>
        <time>2021-08-01T11:00:40Z</time>
      </trkpt>
      <trkpt lat="48.52657" lon="7.16693">
        <ele>793.4</ele>
        <time>2021-08-01T11:00:41Z</time>
      </trkpt>
      <trkpt lat="48.52655" lon="7.16691">
        <ele>793.6</ele>
        <time>2021-08-01T11:00:43Z</time>
      </trkpt>
      <trkpt lat="48.52654" lon="7.16691">
        <ele>793.7</ele>
        <time>2021-08-01T11:00:45Z</time>
      </trkpt>
      <trkpt lat="48.52652" lon="7.16691">
        <ele>793.8</ele>
        <time>2021-08-01T11:00:46Z</time>
      </trkpt>
      <trkpt lat="48.5265" lon="7.16694">
        <ele>794</ele>
        <time>2021-08-01T11:00:48Z</time>
      </trkpt>
      <trkpt lat="48.52649" lon="7.16695">
        <ele>794</ele>
        <time>2021-08-01T11:00:49Z</time>
      </trkpt>
      <trkpt lat="48.5265" lon="7.16694">
        <ele>794.1</ele>
        <time>2021-08-01T11:00:51Z</time>
      </trkpt>
      <trkpt lat="48.52651" lon="7.16694">
        <ele>794.1</ele>
        <time>2021-08-01T11:00:52Z</time>
      </trkpt>
      <trkpt lat="48.52651" lon="7.16694">
        <ele>794.1</ele>
        <time>2021-08-01T11:00:54Z</time>
      </trkpt>
      <trkpt lat="48.52622" lon="7.1668">
        <ele>796.1</ele>
        <time>2021-08-01T11:01:17Z</time>
      </trkpt>
      <trkpt lat="48.52619" lon="7.1668">
        <ele>796.3</ele>
        <time>2021-08-01T11:01:18Z</time>
      </trkpt>
      <trkpt lat="48.52613" lon="7.16681">
        <ele>796.7</ele>
        <time>2021-08-01T11:01:20Z</time>
      </trkpt>
      <trkpt lat="48.5261" lon="7.16681">
        <ele>796.8</ele>
        <time>2021-08-01T11:01:21Z</time>
      </trkpt>
      <trkpt lat="48.52606" lon="7.1668">
        <ele>797</ele>
        <time>2021-08-01T11:01:23Z</time>
      </trkpt>
      <trkpt lat="48.52603" lon="7.16681">
        <ele>797.2</ele>
        <time>2021-08-01T11:01:24Z</time>
      </trkpt>
      <trkpt lat="48.526" lon="7.16679">
        <ele>797.4</ele>
        <time>2021-08-01T11:01:26Z</time>
      </trkpt>
      <trkpt lat="48.526" lon="7.16678">
        <ele>797.5</ele>
        <time>2021-08-01T11:01:27Z</time>
      </trkpt>
      <trkpt lat="48.52598" lon="7.16677">
        <ele>797.6</ele>
        <time>2021-08-01T11:01:29Z</time>
      </trkpt>
      <trkpt lat="48.52593" lon="7.16676">
        <ele>797.9</ele>
        <time>2021-08-01T11:01:31Z</time>
      </trkpt>
      <trkpt lat="48.52592" lon="7.16676">
        <ele>797.9</ele>
        <time>2021-08-01T11:01:32Z</time>
      </trkpt>
      <trkpt lat="48.52589" lon="7.16677">
        <ele>798.2</ele>
        <time>2021-08-01T11:01:34Z</time>
      </trkpt>
      <trkpt lat="48.52588" lon="7.16677">
        <ele>798.2</ele>
        <time>2021-08-01T11:01:35Z</time>
      </trkpt>
      <trkpt lat="48.52588" lon="7.16677">
        <ele>798.3</ele>
        <time>2021-08-01T11:01:36Z</time>
      </trkpt>
      <trkpt lat="48.52588" lon="7.16677">
        <ele>798.3</ele>
        <time>2021-08-01T11:01:37Z</time>
      </trkpt>
      <trkpt lat="48.52588" lon="7.16677">
        <ele>798.3</ele>
        <time>2021-08-01T11:01:39Z</time>
      </trkpt>
      <trkpt lat="48.52589" lon="7.16677">
        <ele>798.3</ele>
        <time>2021-08-01T11:01:40Z</time>
      </trkpt>
      <trkpt lat="48.52589" lon="7.16676">
        <ele>798.4</ele>
        <time>2021-08-01T11:01:41Z</time>
      </trkpt>
      <trkpt lat="48.5259" lon="7.16676">
        <ele>798.4</ele>
        <time>2021-08-01T11:01:42Z</time>
      </trkpt>
      <trkpt lat="48.5259" lon="7.16675">
        <ele>798.4</ele>
        <time>2021-08-01T11:01:44Z</time>
      </trkpt>
      <trkpt lat="48.5252" lon="7.16686">
        <ele>802.7</ele>
        <time>2021-08-01T11:02:28Z</time>
      </trkpt>
      <trkpt lat="48.52516" lon="7.16687">
        <ele>802.9</ele>
        <time>2021-08-01T11:02:30Z</time>
      </trkpt>
      <trkpt lat="48.52513" lon="7.16688">
        <ele>803.1</ele>
        <time>2021-08-01T11:02:31Z</time>
      </trkpt>
      <trkpt lat="48.52512" lon="7.16688">
        <ele>803.1</ele>
        <time>2021-08-01T11:02:32Z</time>
      </trkpt>
      <trkpt lat="48.52511" lon="7.16689">
        <ele>803.2</ele>
        <time>2021-08-01T11:02:33Z</time>
      </trkpt>
      <trkpt lat="48.5251" lon="7.1669">
        <ele>803.3</ele>
        <time>2021-08-01T11:02:35Z</time>
      </trkpt>
      <trkpt lat="48.5251" lon="7.1669">
        <ele>803.3</ele>
        <time>2021-08-01T11:02:36Z</time>
      </trkpt>
      <trkpt lat="48.52509" lon="7.16691">
        <ele>803.4</ele>
        <time>2021-08-01T11:02:37Z</time>
      </trkpt>
      <trkpt lat="48.52509" lon="7.16691">
        <ele>803.4</ele>
        <time>2021-08-01T11:02:39Z</time>
      </trkpt>
      <trkpt lat="48.52508" lon="7.16692">
        <ele>803.4</ele>
        <time>2021-08-01T11:02:40Z</time>
      </trkpt>
      <trkpt lat="48.52491" lon="7.16695">
        <ele>804.6</ele>
        <time>2021-08-01T11:02:56Z</time>
      </trkpt>
      <trkpt lat="48.52482" lon="7.16692">
        <ele>805.2</ele>
        <time>2021-08-01T11:02:58Z</time>
      </trkpt>
      <trkpt lat="48.52481" lon="7.16693">
        <ele>805.3</ele>
        <time>2021-08-01T11:02:59Z</time>
      </trkpt>
      <trkpt lat="48.52479" lon="7.16694">
        <ele>805.4</ele>
        <time>2021-08-01T11:03:01Z</time>
      </trkpt>
      <trkpt lat="48.52478" lon="7.16694">
        <ele>805.5</ele>
        <time>2021-08-01T11:03:03Z</time>
      </trkpt>
      <trkpt lat="48.52477" lon="7.16694">
        <ele>805.6</ele>
        <time>2021-08-01T11:03:04Z</time>
      </trkpt>
      <trkpt lat="48.52476" lon="7.16694">
        <ele>805.6</ele>
        <time>2021-08-01T11:03:05Z</time>
      </trkpt>
      <trkpt lat="48.52476" lon="7.16693">
        <ele>805.7</ele>
        <time>2021-08-01T11:03:06Z</time>
      </trkpt>
      <trkpt lat="48.52476" lon="7.16692">
        <ele>805.7</ele>
        <time>2021-08-01T11:03:07Z</time>
      </trkpt>
      <trkpt lat="48.52475" lon="7.16691">
        <ele>805.8</ele>
        <time>2021-08-01T11:03:08Z</time>
      </trkpt>
      <trkpt lat="48.52474" lon="7.16691">
        <ele>805.8</ele>
        <time>2021-08-01T11:03:10Z</time>
      </trkpt>
      <trkpt lat="48.52474" lon="7.16691">
        <ele>805.8</ele>
        <time>2021-08-01T11:03:11Z</time>
      </trkpt>
      <trkpt lat="48.52472" lon="7.1669">
        <ele>805.9</ele>
        <time>2021-08-01T11:03:12Z</time>
      </trkpt>
      <trkpt lat="48.5247" lon="7.1669">
        <ele>806.1</ele>
        <time>2021-08-01T11:03:14Z</time>
      </trkpt>
      <trkpt lat="48.52465" lon="7.16692">
        <ele>806.3</ele>
        <time>2021-08-01T11:03:16Z</time>
      </trkpt>
      <trkpt lat="48.52462" lon="7.16695">
        <ele>806.5</ele>
        <time>2021-08-01T11:03:17Z</time>
      </trkpt>
      <trkpt lat="48.52459" lon="7.16697">
        <ele>806.8</ele>
        <time>2021-08-01T11:03:18Z</time>
      </trkpt>
      <trkpt lat="48.52456" lon="7.16698">
        <ele>806.9</ele>
        <time>2021-08-01T11:03:20Z</time>
      </trkpt>
      <trkpt lat="48.52456" lon="7.16699">
        <ele>807</ele>
        <time>2021-08-01T11:03:21Z</time>
      </trkpt>
      <trkpt lat="48.52454" lon="7.16702">
        <ele>807.1</ele>
        <time>2021-08-01T11:03:22Z</time>
      </trkpt>
      <trkpt lat="48.52454" lon="7.16703">
        <ele>807.1</ele>
        <time>2021-08-01T11:03:23Z</time>
      </trkpt>
      <trkpt lat="48.52452" lon="7.16704">
        <ele>807.3</ele>
        <time>2021-08-01T11:03:25Z</time>
      </trkpt>
      <trkpt lat="48.52451" lon="7.16705">
        <ele>807.3</ele>
        <time>2021-08-01T11:03:26Z</time>
      </trkpt>
      <trkpt lat="48.5245" lon="7.16705">
        <ele>807.4</ele>
        <time>2021-08-01T11:03:27Z</time>
      </trkpt>
      <trkpt lat="48.52448" lon="7.16706">
        <ele>807.5</ele>
        <time>2021-08-01T11:03:29Z</time>
      </trkpt>
      <trkpt lat="48.52447" lon="7.16706">
        <ele>807.6</ele>
        <time>2021-08-01T11:03:30Z</time>
      </trkpt>
      <trkpt lat="48.52396" lon="7.16725">
        <ele>811</ele>
        <time>2021-08-01T11:04:01Z</time>
      </trkpt>
      <trkpt lat="48.52394" lon="7.16725">
        <ele>811.1</ele>
        <time>2021-08-01T11:04:02Z</time>
      </trkpt>
      <trkpt lat="48.52391" lon="7.16726">
        <ele>811.3</ele>
        <time>2021-08-01T11:04:04Z</time>
      </trkpt>
      <trkpt lat="48.52387" lon="7.16727">
        <ele>811.6</ele>
        <time>2021-08-01T11:04:05Z</time>
      </trkpt>
      <trkpt lat="48.52386" lon="7.16727">
        <ele>811.7</ele>
        <time>2021-08-01T11:04:06Z</time>
      </trkpt>
      <trkpt lat="48.52383" lon="7.16728">
        <ele>811.8</ele>
        <time>2021-08-01T11:04:07Z</time>
      </trkpt>
      <trkpt lat="48.52384" lon="7.16728">
        <ele>811.9</ele>
        <time>2021-08-01T11:04:09Z</time>
      </trkpt>
      <trkpt lat="48.52384" lon="7.16729">
        <ele>811.9</ele>
        <time>2021-08-01T11:04:10Z</time>
      </trkpt>
      <trkpt lat="48.52384" lon="7.16729">
        <ele>811.9</ele>
        <time>2021-08-01T11:04:12Z</time>
      </trkpt>
      <trkpt lat="48.52382" lon="7.16731">
        <ele>812.1</ele>
        <time>2021-08-01T11:04:14Z</time>
      </trkpt>
      <trkpt lat="48.52381" lon="7.16732">
        <ele>812.2</ele>
        <time>2021-08-01T11:04:15Z</time>
      </trkpt>
      <trkpt lat="48.52379" lon="7.16733">
        <ele>812.2</ele>
        <time>2021-08-01T11:04:16Z</time>
      </trkpt>
      <trkpt lat="48.52371" lon="7.16743">
        <ele>812.8</ele>
        <time>2021-08-01T11:04:22Z</time>
      </trkpt>
      <trkpt lat="48.52369" lon="7.16746">
        <ele>813</ele>
        <time>2021-08-01T11:04:24Z</time>
      </trkpt>
      <trkpt lat="48.52366" lon="7.16748">
        <ele>813.2</ele>
        <time>2021-08-01T11:04:25Z</time>
      </trkpt>
      <trkpt lat="48.52365" lon="7.16751">
        <ele>813.3</ele>
        <time>2021-08-01T11:04:27Z</time>
      </trkpt>
      <trkpt lat="48.52364" lon="7.16752">
        <ele>813.4</ele>
        <time>2021-08-01T11:04:28Z</time>
      </trkpt>
      <trkpt lat="48.52364" lon="7.16753">
        <ele>813.4</ele>
        <time>2021-08-01T11:04:29Z</time>
      </trkpt>
      <trkpt lat="48.52363" lon="7.16753">
        <ele>813.5</ele>
        <time>2021-08-01T11:04:30Z</time>
      </trkpt>
      <trkpt lat="48.52363" lon="7.16753">
        <ele>813.5</ele>
        <time>2021-08-01T11:04:31Z</time>
      </trkpt>
      <trkpt lat="48.52363" lon="7.16753">
        <ele>813.5</ele>
        <time>2021-08-01T11:04:32Z</time>
      </trkpt>
      <trkpt lat="48.52363" lon="7.16754">
        <ele>813.5</ele>
        <time>2021-08-01T11:04:34Z</time>
      </trkpt>
      <trkpt lat="48.52362" lon="7.16754">
        <ele>813.6</ele>
        <time>2021-08-01T11:04:35Z</time>
      </trkpt>
      <trkpt lat="48.5236" lon="7.16755">
        <ele>813.7</ele>
        <time>2021-08-01T11:04:37Z</time>
      </trkpt>
      <trkpt lat="48.52349" lon="7.16762">
        <ele>814.5</ele>
        <time>2021-08-01T11:04:43Z</time>
      </trkpt>
      <trkpt lat="48.52347" lon="7.16763">
        <ele>814.6</ele>
        <time>2021-08-01T11:04:44Z</time>
      </trkpt>
      <trkpt lat="48.52346" lon="7.16763">
        <ele>814.7</ele>
        <time>2021-08-01T11:04:45Z</time>
      </trkpt>
      <trkpt lat="48.52342" lon="7.16764">
        <ele>815</ele>
        <time>2021-08-01T11:04:47Z</time>
      </trkpt>
      <trkpt lat="48.5234" lon="7.16764">
        <ele>815.1</ele>
        <time>2021-08-01T11:04:48Z</time>
      </trkpt>
      <trkpt lat="48.52339" lon="7.16765">
        <ele>815.2</ele>
        <time>2021-08-01T11:04:50Z</time>
      </trkpt>
      <trkpt lat="48.52338" lon="7.16765">
        <ele>815.2</ele>
        <time>2021-08-01T11:04:51Z</time>
      </trkpt>
      <trkpt lat="48.52337" lon="7.16766">
        <ele>815.3</ele>
        <time>2021-08-01T11:04:52Z</time>
      </trkpt>
      <trkpt lat="48.52335" lon="7.16767">
        <ele>815.4</ele>
        <time>2021-08-01T11:04:54Z</time>
      </trkpt>
      <trkpt lat="48.52335" lon="7.16767">
        <ele>815.4</ele>
        <time>2021-08-01T11:04:55Z</time>
      </trkpt>
      <trkpt lat="48.52335" lon="7.16767">
        <ele>815.5</ele>
        <time>2021-08-01T11:04:56Z</time>
      </trkpt>
      <trkpt lat="48.52334" lon="7.16767">
        <ele>815.5</ele>
        <time>2021-08-01T11:04:57Z</time>
      </trkpt>
      <trkpt lat="48.52332" lon="7.16769">
        <ele>815.7</ele>
        <time>2021-08-01T11:04:59Z</time>
      </trkpt>
      <trkpt lat="48.5233" lon="7.1677">
        <ele>815.8</ele>
        <time>2021-08-01T11:05:00Z</time>
      </trkpt>
      <trkpt lat="48.52328" lon="7.16772">
        <ele>816</ele>
        <time>2021-08-01T11:05:01Z</time>
      </trkpt>
      <trkpt lat="48.52327" lon="7.16773">
        <ele>816</ele>
        <time>2021-08-01T11:05:02Z</time>
      </trkpt>
      <trkpt lat="48.52325" lon="7.16775">
        <ele>816.2</ele>
        <time>2021-08-01T11:05:04Z</time>
      </trkpt>
      <trkpt lat="48.52325" lon="7.16777">
        <ele>816.3</ele>
        <time>2021-08-01T11:05:05Z</time>
      </trkpt>
      <trkpt lat="48.52325" lon="7.16779">
        <ele>816.4</ele>
        <time>2021-08-01T11:05:06Z</time>
      </trkpt>
      <trkpt lat="48.52325" lon="7.1678">
        <ele>816.5</ele>
        <time>2021-08-01T11:05:08Z</time>
      </trkpt>
      <trkpt lat="48.52325" lon="7.16781">
        <ele>816.5</ele>
        <time>2021-08-01T11:05:09Z</time>
      </trkpt>
      <trkpt lat="48.52325" lon="7.16781">
        <ele>816.5</ele>
        <time>2021-08-01T11:05:10Z</time>
      </trkpt>
      <trkpt lat="48.52325" lon="7.16781">
        <ele>816.5</ele>
        <time>2021-08-01T11:05:12Z</time>
      </trkpt>
      <trkpt lat="48.52325" lon="7.16781">
        <ele>816.5</ele>
        <time>2021-08-01T11:05:13Z</time>
      </trkpt>
      <trkpt lat="48.52324" lon="7.16782">
        <ele>816.6</ele>
        <time>2021-08-01T11:05:14Z</time>
      </trkpt>
      <trkpt lat="48.523" lon="7.16809">
        <ele>818.6</ele>
        <time>2021-08-01T11:05:31Z</time>
      </trkpt>
      <trkpt lat="48.52297" lon="7.16811">
        <ele>818.9</ele>
        <time>2021-08-01T11:05:32Z</time>
      </trkpt>
      <trkpt lat="48.52296" lon="7.16812">
        <ele>819</ele>
        <time>2021-08-01T11:05:33Z</time>
      </trkpt>
      <trkpt lat="48.5229" lon="7.16816">
        <ele>819.4</ele>
        <time>2021-08-01T11:05:34Z</time>
      </trkpt>
      <trkpt lat="48.52285" lon="7.16818">
        <ele>819.7</ele>
        <time>2021-08-01T11:05:36Z</time>
      </trkpt>
      <trkpt lat="48.52281" lon="7.1682">
        <ele>819.9</ele>
        <time>2021-08-01T11:05:37Z</time>
      </trkpt>
      <trkpt lat="48.52279" lon="7.16821">
        <ele>820.1</ele>
        <time>2021-08-01T11:05:38Z</time>
      </trkpt>
      <trkpt lat="48.52276" lon="7.16823">
        <ele>820.2</ele>
        <time>2021-08-01T11:05:39Z</time>
      </trkpt>
      <trkpt lat="48.52276" lon="7.16824">
        <ele>820.3</ele>
        <time>2021-08-01T11:05:40Z</time>
      </trkpt>
      <trkpt lat="48.52275" lon="7.16825">
        <ele>820.4</ele>
        <time>2021-08-01T11:05:41Z</time>
      </trkpt>
      <trkpt lat="48.52275" lon="7.16827">
        <ele>820.4</ele>
        <time>2021-08-01T11:05:43Z</time>
      </trkpt>
      <trkpt lat="48.52275" lon="7.16829">
        <ele>820.5</ele>
        <time>2021-08-01T11:05:44Z</time>
      </trkpt>
      <trkpt lat="48.52266" lon="7.16853">
        <ele>821.6</ele>
        <time>2021-08-01T11:06:08Z</time>
      </trkpt>
      <trkpt lat="48.52259" lon="7.16859">
        <ele>822</ele>
        <time>2021-08-01T11:06:10Z</time>
      </trkpt>
      <trkpt lat="48.52253" lon="7.16863">
        <ele>822.4</ele>
        <time>2021-08-01T11:06:12Z</time>
      </trkpt>
      <trkpt lat="48.52252" lon="7.16863">
        <ele>822.5</ele>
        <time>2021-08-01T11:06:13Z</time>
      </trkpt>
      <trkpt lat="48.52248" lon="7.16865">
        <ele>822.8</ele>
        <time>2021-08-01T11:06:15Z</time>
      </trkpt>
      <trkpt lat="48.52244" lon="7.16868">
        <ele>823.1</ele>
        <time>2021-08-01T11:06:16Z</time>
      </trkpt>
      <trkpt lat="48.52243" lon="7.16869">
        <ele>823.2</ele>
        <time>2021-08-01T11:06:17Z</time>
      </trkpt>
      <trkpt lat="48.5224" lon="7.16873">
        <ele>823.4</ele>
        <time>2021-08-01T11:06:18Z</time>
      </trkpt>
      <trkpt lat="48.52239" lon="7.16874">
        <ele>823.5</ele>
        <time>2021-08-01T11:06:19Z</time>
      </trkpt>
      <trkpt lat="48.52237" lon="7.1688">
        <ele>823.8</ele>
        <time>2021-08-01T11:06:21Z</time>
      </trkpt>
      <trkpt lat="48.52237" lon="7.16882">
        <ele>823.9</ele>
        <time>2021-08-01T11:06:22Z</time>
      </trkpt>
      <trkpt lat="48.52236" lon="7.16887">
        <ele>824.1</ele>
        <time>2021-08-01T11:06:24Z</time>
      </trkpt>
      <trkpt lat="48.52235" lon="7.16888">
        <ele>824.2</ele>
        <time>2021-08-01T11:06:25Z</time>
      </trkpt>
      <trkpt lat="48.52235" lon="7.16889">
        <ele>824.3</ele>
        <time>2021-08-01T11:06:26Z</time>
      </trkpt>
      <trkpt lat="48.52234" lon="7.1689">
        <ele>824.3</ele>
        <time>2021-08-01T11:06:27Z</time>
      </trkpt>
      <trkpt lat="48.52233" lon="7.16893">
        <ele>824.5</ele>
        <time>2021-08-01T11:06:29Z</time>
      </trkpt>
      <trkpt lat="48.5223" lon="7.16897">
        <ele>824.8</ele>
        <time>2021-08-01T11:06:31Z</time>
      </trkpt>
      <trkpt lat="48.52228" lon="7.16898">
        <ele>824.9</ele>
        <time>2021-08-01T11:06:32Z</time>
      </trkpt>
      <trkpt lat="48.52229" lon="7.16897">
        <ele>824.9</ele>
        <time>2021-08-01T11:06:33Z</time>
      </trkpt>
      <trkpt lat="48.52229" lon="7.16896">
        <ele>825</ele>
        <time>2021-08-01T11:06:34Z</time>
      </trkpt>
      <trkpt lat="48.52229" lon="7.16896">
        <ele>825</ele>
        <time>2021-08-01T11:06:36Z</time>
      </trkpt>
      <trkpt lat="48.52228" lon="7.16896">
        <ele>825.1</ele>
        <time>2021-08-01T11:06:37Z</time>
      </trkpt>
      <trkpt lat="48.52228" lon="7.16896">
        <ele>825.1</ele>
        <time>2021-08-01T11:06:38Z</time>
      </trkpt>
      <trkpt lat="48.52227" lon="7.16896">
        <ele>825.1</ele>
        <time>2021-08-01T11:06:39Z</time>
      </trkpt>
      <trkpt lat="48.52227" lon="7.16896">
        <ele>825.1</ele>
        <time>2021-08-01T11:06:41Z</time>
      </trkpt>
      <trkpt lat="48.52227" lon="7.16896">
        <ele>825.1</ele>
        <time>2021-08-01T11:06:42Z</time>
      </trkpt>
      <trkpt lat="48.52185" lon="7.16949">
        <ele>828.5</ele>
        <time>2021-08-01T11:07:26Z</time>
      </trkpt>
      <trkpt lat="48.5218" lon="7.16951">
        <ele>828.7</ele>
        <time>2021-08-01T11:07:27Z</time>
      </trkpt>
      <trkpt lat="48.52176" lon="7.16952">
        <ele>829</ele>
        <time>2021-08-01T11:07:28Z</time>
      </trkpt>
      <trkpt lat="48.52171" lon="7.16953">
        <ele>829.3</ele>
        <time>2021-08-01T11:07:30Z</time>
      </trkpt>
      <trkpt lat="48.52168" lon="7.16954">
        <ele>829.4</ele>
        <time>2021-08-01T11:07:31Z</time>
      </trkpt>
      <trkpt lat="48.52167" lon="7.16954">
        <ele>829.5</ele>
        <time>2021-08-01T11:07:32Z</time>
      </trkpt>
      <trkpt lat="48.52165" lon="7.16955">
        <ele>829.6</ele>
        <time>2021-08-01T11:07:33Z</time>
      </trkpt>
      <trkpt lat="48.52161" lon="7.16955">
        <ele>829.8</ele>
        <time>2021-08-01T11:07:35Z</time>
      </trkpt>
      <trkpt lat="48.5216" lon="7.16955">
        <ele>829.8</ele>
        <time>2021-08-01T11:07:36Z</time>
      </trkpt>
      <trkpt lat="48.52158" lon="7.16956">
        <ele>829.9</ele>
        <time>2021-08-01T11:07:37Z</time>
      </trkpt>
      <trkpt lat="48.52156" lon="7.16957">
        <ele>830.1</ele>
        <time>2021-08-01T11:07:39Z</time>
      </trkpt>
      <trkpt lat="48.52156" lon="7.16958">
        <ele>830.1</ele>
        <time>2021-08-01T11:07:40Z</time>
      </trkpt>
      <trkpt lat="48.52157" lon="7.16958">
        <ele>830.2</ele>
        <time>2021-08-01T11:07:41Z</time>
      </trkpt>
      <trkpt lat="48.52158" lon="7.16959">
        <ele>830.2</ele>
        <time>2021-08-01T11:07:43Z</time>
      </trkpt>
      <trkpt lat="48.52157" lon="7.16959">
        <ele>830.2</ele>
        <time>2021-08-01T11:07:44Z</time>
      </trkpt>
      <trkpt lat="48.52156" lon="7.1696">
        <ele>830.3</ele>
        <time>2021-08-01T11:07:45Z</time>
      </trkpt>
      <trkpt lat="48.52154" lon="7.16962">
        <ele>830.4</ele>
        <time>2021-08-01T11:07:47Z</time>
      </trkpt>
      <trkpt lat="48.52151" lon="7.16963">
        <ele>830.6</ele>
        <time>2021-08-01T11:07:48Z</time>
      </trkpt>
      <trkpt lat="48.5215" lon="7.16964">
        <ele>830.7</ele>
        <time>2021-08-01T11:07:49Z</time>
      </trkpt>
      <trkpt lat="48.52148" lon="7.16967">
        <ele>830.8</ele>
        <time>2021-08-01T11:07:51Z</time>
      </trkpt>
      <trkpt lat="48.52146" lon="7.1697">
        <ele>831</ele>
        <time>2021-08-01T11:07:52Z</time>
      </trkpt>
      <trkpt lat="48.52145" lon="7.16971">
        <ele>831</ele>
        <time>2021-08-01T11:07:53Z</time>
      </trkpt>
      <trkpt lat="48.52144" lon="7.16974">
        <ele>831.1</ele>
        <time>2021-08-01T11:07:55Z</time>
      </trkpt>
      <trkpt lat="48.52144" lon="7.16974">
        <ele>831.1</ele>
        <time>2021-08-01T11:07:56Z</time>
      </trkpt>
      <trkpt lat="48.52144" lon="7.16975">
        <ele>831.2</ele>
        <time>2021-08-01T11:07:58Z</time>
      </trkpt>
      <trkpt lat="48.52144" lon="7.16976">
        <ele>831.2</ele>
        <time>2021-08-01T11:07:59Z</time>
      </trkpt>
      <trkpt lat="48.52143" lon="7.16977">
        <ele>831.3</ele>
        <time>2021-08-01T11:08:01Z</time>
      </trkpt>
      <trkpt lat="48.52142" lon="7.16978">
        <ele>831.3</ele>
        <time>2021-08-01T11:08:02Z</time>
      </trkpt>
      <trkpt lat="48.52141" lon="7.16979">
        <ele>831.4</ele>
        <time>2021-08-01T11:08:03Z</time>
      </trkpt>
      <trkpt lat="48.52126" lon="7.17002">
        <ele>832.5</ele>
        <time>2021-08-01T11:08:22Z</time>
      </trkpt>
      <trkpt lat="48.52123" lon="7.17005">
        <ele>832.6</ele>
        <time>2021-08-01T11:08:23Z</time>
      </trkpt>
      <trkpt lat="48.5212" lon="7.17007">
        <ele>832.8</ele>
        <time>2021-08-01T11:08:25Z</time>
      </trkpt>
      <trkpt lat="48.52117" lon="7.17008">
        <ele>832.9</ele>
        <time>2021-08-01T11:08:26Z</time>
      </trkpt>
      <trkpt lat="48.52114" lon="7.1701">
        <ele>833</ele>
        <time>2021-08-01T11:08:27Z</time>
      </trkpt>
      <trkpt lat="48.5211" lon="7.17013">
        <ele>833.1</ele>
        <time>2021-08-01T11:08:28Z</time>
      </trkpt>
      <trkpt lat="48.52109" lon="7.17014">
        <ele>833.2</ele>
        <time>2021-08-01T11:08:29Z</time>
      </trkpt>
      <trkpt lat="48.52106" lon="7.17016">
        <ele>833.3</ele>
        <time>2021-08-01T11:08:30Z</time>
      </trkpt>
      <trkpt lat="48.52104" lon="7.17017">
        <ele>833.3</ele>
        <time>2021-08-01T11:08:31Z</time>
      </trkpt>
      <trkpt lat="48.52099" lon="7.1702">
        <ele>833.4</ele>
        <time>2021-08-01T11:08:33Z</time>
      </trkpt>
      <trkpt lat="48.52096" lon="7.17021">
        <ele>833.5</ele>
        <time>2021-08-01T11:08:34Z</time>
      </trkpt>
      <trkpt lat="48.52093" lon="7.17023">
        <ele>833.5</ele>
        <time>2021-08-01T11:08:35Z</time>
      </trkpt>
      <trkpt lat="48.5209" lon="7.17024">
        <ele>833.5</ele>
        <time>2021-08-01T11:08:36Z</time>
      </trkpt>
      <trkpt lat="48.52086" lon="7.17028">
        <ele>833.6</ele>
        <time>2021-08-01T11:08:38Z</time>
      </trkpt>
      <trkpt lat="48.52083" lon="7.17031">
        <ele>833.6</ele>
        <time>2021-08-01T11:08:39Z</time>
      </trkpt>
      <trkpt lat="48.52079" lon="7.17035">
        <ele>833.6</ele>
        <time>2021-08-01T11:08:40Z</time>
      </trkpt>
      <trkpt lat="48.52074" lon="7.1704">
        <ele>833.6</ele>
        <time>2021-08-01T11:08:42Z</time>
      </trkpt>
      <trkpt lat="48.52071" lon="7.17043">
        <ele>833.6</ele>
        <time>2021-08-01T11:08:43Z</time>
      </trkpt>
      <trkpt lat="48.52069" lon="7.17045">
        <ele>833.6</ele>
        <time>2021-08-01T11:08:44Z</time>
      </trkpt>
      <trkpt lat="48.52067" lon="7.17049">
        <ele>833.6</ele>
        <time>2021-08-01T11:08:45Z</time>
      </trkpt>
      <trkpt lat="48.52065" lon="7.17052">
        <ele>833.6</ele>
        <time>2021-08-01T11:08:46Z</time>
      </trkpt>
      <trkpt lat="48.52064" lon="7.17052">
        <ele>833.6</ele>
        <time>2021-08-01T11:08:48Z</time>
      </trkpt>
      <trkpt lat="48.52064" lon="7.17048">
        <ele>833.6</ele>
        <time>2021-08-01T11:08:49Z</time>
      </trkpt>
      <trkpt lat="48.52063" lon="7.17044">
        <ele>833.5</ele>
        <time>2021-08-01T11:08:51Z</time>
      </trkpt>
      <trkpt lat="48.52061" lon="7.17044">
        <ele>833.5</ele>
        <time>2021-08-01T11:08:52Z</time>
      </trkpt>
      <trkpt lat="48.52059" lon="7.17045">
        <ele>833.5</ele>
        <time>2021-08-01T11:08:54Z</time>
      </trkpt>
      <trkpt lat="48.52053" lon="7.17045">
        <ele>833.6</ele>
        <time>2021-08-01T11:08:56Z</time>
      </trkpt>
      <trkpt lat="48.52049" lon="7.17046">
        <ele>833.6</ele>
        <time>2021-08-01T11:08:57Z</time>
      </trkpt>
      <trkpt lat="48.52043" lon="7.17049">
        <ele>833.6</ele>
        <time>2021-08-01T11:08:58Z</time>
      </trkpt>
      <trkpt lat="48.5202" lon="7.17064">
        <ele>833.7</ele>
        <time>2021-08-01T11:09:00Z</time>
      </trkpt>
      <trkpt lat="48.52008" lon="7.17071">
        <ele>833.6</ele>
        <time>2021-08-01T11:09:02Z</time>
      </trkpt>
      <trkpt lat="48.52007" lon="7.17071">
        <ele>833.6</ele>
        <time>2021-08-01T11:09:03Z</time>
      </trkpt>
      <trkpt lat="48.52" lon="7.17073">
        <ele>833.6</ele>
        <time>2021-08-01T11:09:05Z</time>
      </trkpt>
      <trkpt lat="48.51986" lon="7.17077">
        <ele>833.7</ele>
        <time>2021-08-01T11:09:07Z</time>
      </trkpt>
      <trkpt lat="48.5198" lon="7.17079">
        <ele>833.9</ele>
        <time>2021-08-01T11:09:08Z</time>
      </trkpt>
      <trkpt lat="48.51965" lon="7.17084">
        <ele>834.5</ele>
        <time>2021-08-01T11:09:10Z</time>
      </trkpt>
      <trkpt lat="48.51956" lon="7.17086">
        <ele>834.8</ele>
        <time>2021-08-01T11:09:11Z</time>
      </trkpt>
      <trkpt lat="48.51947" lon="7.17088">
        <ele>835</ele>
        <time>2021-08-01T11:09:12Z</time>
      </trkpt>
      <trkpt lat="48.5193" lon="7.17092">
        <ele>835.5</ele>
        <time>2021-08-01T11:09:14Z</time>
      </trkpt>
      <trkpt lat="48.51913" lon="7.17095">
        <ele>836</ele>
        <time>2021-08-01T11:09:16Z</time>
      </trkpt>
      <trkpt lat="48.51903" lon="7.17096">
        <ele>836.2</ele>
        <time>2021-08-01T11:09:17Z</time>
      </trkpt>
      <trkpt lat="48.51894" lon="7.17097">
        <ele>836.5</ele>
        <time>2021-08-01T11:09:18Z</time>
      </trkpt>
      <trkpt lat="48.51879" lon="7.17099">
        <ele>837.1</ele>
        <time>2021-08-01T11:09:20Z</time>
      </trkpt>
      <trkpt lat="48.51875" lon="7.17101">
        <ele>837.2</ele>
        <time>2021-08-01T11:09:21Z</time>
      </trkpt>
      <trkpt lat="48.51874" lon="7.17102">
        <ele>837.3</ele>
        <time>2021-08-01T11:09:22Z</time>
      </trkpt>
      <trkpt lat="48.51872" lon="7.17102">
        <ele>837.4</ele>
        <time>2021-08-01T11:09:23Z</time>
      </trkpt>
      <trkpt lat="48.5187" lon="7.17103">
        <ele>837.4</ele>
        <time>2021-08-01T11:09:24Z</time>
      </trkpt>
      <trkpt lat="48.51868" lon="7.17104">
        <ele>837.5</ele>
        <time>2021-08-01T11:09:25Z</time>
      </trkpt>
      <trkpt lat="48.51866" lon="7.17106">
        <ele>837.6</ele>
        <time>2021-08-01T11:09:26Z</time>
      </trkpt>
      <trkpt lat="48.51861" lon="7.17108">
        <ele>837.8</ele>
        <time>2021-08-01T11:09:28Z</time>
      </trkpt>
      <trkpt lat="48.5186" lon="7.17109">
        <ele>837.9</ele>
        <time>2021-08-01T11:09:29Z</time>
      </trkpt>
      <trkpt lat="48.51859" lon="7.1711">
        <ele>837.9</ele>
        <time>2021-08-01T11:09:30Z</time>
      </trkpt>
      <trkpt lat="48.51848" lon="7.17114">
        <ele>838.4</ele>
        <time>2021-08-01T11:09:31Z</time>
      </trkpt>
      <trkpt lat="48.51681" lon="7.17093">
        <ele>839.3</ele>
        <time>2021-08-01T11:10:25Z</time>
      </trkpt>
      <trkpt lat="48.51676" lon="7.1709">
        <ele>838.5</ele>
        <time>2021-08-01T11:10:27Z</time>
      </trkpt>
      <trkpt lat="48.51671" lon="7.17087">
        <ele>837.6</ele>
        <time>2021-08-01T11:10:28Z</time>
      </trkpt>
      <trkpt lat="48.51665" lon="7.17083">
        <ele>836.6</ele>
        <time>2021-08-01T11:10:29Z</time>
      </trkpt>
      <trkpt lat="48.51657" lon="7.17078">
        <ele>835.4</ele>
        <time>2021-08-01T11:10:30Z</time>
      </trkpt>
      <trkpt lat="48.51651" lon="7.17075">
        <ele>834.5</ele>
        <time>2021-08-01T11:10:32Z</time>
      </trkpt>
      <trkpt lat="48.51647" lon="7.17072">
        <ele>833.9</ele>
        <time>2021-08-01T11:10:33Z</time>
      </trkpt>
      <trkpt lat="48.51642" lon="7.17068">
        <ele>833.1</ele>
        <time>2021-08-01T11:10:34Z</time>
      </trkpt>
      <trkpt lat="48.51639" lon="7.17066">
        <ele>832.6</ele>
        <time>2021-08-01T11:10:36Z</time>
      </trkpt>
      <trkpt lat="48.51635" lon="7.17063">
        <ele>831.8</ele>
        <time>2021-08-01T11:10:37Z</time>
      </trkpt>
      <trkpt lat="48.51629" lon="7.1706">
        <ele>831</ele>
        <time>2021-08-01T11:10:38Z</time>
      </trkpt>
      <trkpt lat="48.51625" lon="7.17058">
        <ele>830.3</ele>
        <time>2021-08-01T11:10:39Z</time>
      </trkpt>
      <trkpt lat="48.51624" lon="7.17058">
        <ele>830.1</ele>
        <time>2021-08-01T11:10:41Z</time>
      </trkpt>
      <trkpt lat="48.51622" lon="7.17055">
        <ele>829.8</ele>
        <time>2021-08-01T11:10:42Z</time>
      </trkpt>
      <trkpt lat="48.51621" lon="7.17054">
        <ele>829.5</ele>
        <time>2021-08-01T11:10:44Z</time>
      </trkpt>
      <trkpt lat="48.51619" lon="7.17053">
        <ele>829.3</ele>
        <time>2021-08-01T11:10:45Z</time>
      </trkpt>
      <trkpt lat="48.51618" lon="7.17052">
        <ele>829.2</ele>
        <time>2021-08-01T11:10:46Z</time>
      </trkpt>
      <trkpt lat="48.51618" lon="7.17052">
        <ele>829.1</ele>
        <time>2021-08-01T11:10:48Z</time>
      </trkpt>
      <trkpt lat="48.51617" lon="7.17051">
        <ele>829</ele>
        <time>2021-08-01T11:10:50Z</time>
      </trkpt>
      <trkpt lat="48.51592" lon="7.1698">
        <ele>826.4</ele>
        <time>2021-08-01T11:18:28Z</time>
      </trkpt>
      <trkpt lat="48.51595" lon="7.1698">
        <ele>826.4</ele>
        <time>2021-08-01T11:18:29Z</time>
      </trkpt>
      <trkpt lat="48.51592" lon="7.16978">
        <ele>826.4</ele>
        <time>2021-08-01T11:18:30Z</time>
      </trkpt>
      <trkpt lat="48.5159" lon="7.16977">
        <ele>826.4</ele>
        <time>2021-08-01T11:18:32Z</time>
      </trkpt>
      <trkpt lat="48.5159" lon="7.16977">
        <ele>826.4</ele>
        <time>2021-08-01T11:18:33Z</time>
      </trkpt>
      <trkpt lat="48.51589" lon="7.16979">
        <ele>826.4</ele>
        <time>2021-08-01T11:18:35Z</time>
      </trkpt>
      <trkpt lat="48.51588" lon="7.1698">
        <ele>826.4</ele>
        <time>2021-08-01T11:18:36Z</time>
      </trkpt>
      <trkpt lat="48.51589" lon="7.16981">
        <ele>826.4</ele>
        <time>2021-08-01T11:18:37Z</time>
      </trkpt>
      <trkpt lat="48.51589" lon="7.16982">
        <ele>826.4</ele>
        <time>2021-08-01T11:18:39Z</time>
      </trkpt>
      <trkpt lat="48.51589" lon="7.16982">
        <ele>826.4</ele>
        <time>2021-08-01T11:18:40Z</time>
      </trkpt>
      <trkpt lat="48.51589" lon="7.16982">
        <ele>826.4</ele>
        <time>2021-08-01T11:18:42Z</time>
      </trkpt>
      <trkpt lat="48.51589" lon="7.16982">
        <ele>826.4</ele>
        <time>2021-08-01T11:18:44Z</time>
      </trkpt>
      <trkpt lat="48.51589" lon="7.16982">
        <ele>826.4</ele>
        <time>2021-08-01T11:18:45Z</time>
      </trkpt>
      <trkpt lat="48.51589" lon="7.16982">
        <ele>826.4</ele>
        <time>2021-08-01T11:18:46Z</time>
      </trkpt>
      <trkpt lat="48.51589" lon="7.16982">
        <ele>826.4</ele>
        <time>2021-08-01T11:18:48Z</time>
      </trkpt>
      <trkpt lat="48.51589" lon="7.16982">
        <ele>826.4</ele>
        <time>2021-08-01T11:18:49Z</time>
      </trkpt>
      <trkpt lat="48.51586" lon="7.16985">
        <ele>826.4</ele>
        <time>2021-08-01T11:18:51Z</time>
      </trkpt>
      <trkpt lat="48.51583" lon="7.16987">
        <ele>826.4</ele>
        <time>2021-08-01T11:18:52Z</time>
      </trkpt>
      <trkpt lat="48.51577" lon="7.16991">
        <ele>826.4</ele>
        <time>2021-08-01T11:18:54Z</time>
      </trkpt>
      <trkpt lat="48.51574" lon="7.16991">
        <ele>826.3</ele>
        <time>2021-08-01T11:18:55Z</time>
      </trkpt>
      <trkpt lat="48.51572" lon="7.16987">
        <ele>826.3</ele>
        <time>2021-08-01T11:18:56Z</time>
      </trkpt>
      <trkpt lat="48.51569" lon="7.16983">
        <ele>826.3</ele>
        <time>2021-08-01T11:18:58Z</time>
      </trkpt>
      <trkpt lat="48.51564" lon="7.16977">
        <ele>826.3</ele>
        <time>2021-08-01T11:19:00Z</time>
      </trkpt>
      <trkpt lat="48.51562" lon="7.16976">
        <ele>826.3</ele>
        <time>2021-08-01T11:19:02Z</time>
      </trkpt>
      <trkpt lat="48.51559" lon="7.16976">
        <ele>826.3</ele>
        <time>2021-08-01T11:19:04Z</time>
      </trkpt>
      <trkpt lat="48.51561" lon="7.16972">
        <ele>826.3</ele>
        <time>2021-08-01T11:19:06Z</time>
      </trkpt>
      <trkpt lat="48.51562" lon="7.16972">
        <ele>826.3</ele>
        <time>2021-08-01T11:19:08Z</time>
      </trkpt>
      <trkpt lat="48.51562" lon="7.16972">
        <ele>826.3</ele>
        <time>2021-08-01T11:19:09Z</time>
      </trkpt>
      <trkpt lat="48.51563" lon="7.16972">
        <ele>826.3</ele>
        <time>2021-08-01T11:19:10Z</time>
      </trkpt>
      <trkpt lat="48.51564" lon="7.16973">
        <ele>826.3</ele>
        <time>2021-08-01T11:19:12Z</time>
      </trkpt>
      <trkpt lat="48.51565" lon="7.16973">
        <ele>826.3</ele>
        <time>2021-08-01T11:19:13Z</time>
      </trkpt>
      <trkpt lat="48.51565" lon="7.16973">
        <ele>826.3</ele>
        <time>2021-08-01T11:19:14Z</time>
      </trkpt>
      <trkpt lat="48.5157" lon="7.16977">
        <ele>826.3</ele>
        <time>2021-08-01T11:19:15Z</time>
      </trkpt>
      <trkpt lat="48.51577" lon="7.16979">
        <ele>826.3</ele>
        <time>2021-08-01T11:19:17Z</time>
      </trkpt>
      <trkpt lat="48.5158" lon="7.1698">
        <ele>826.3</ele>
        <time>2021-08-01T11:19:18Z</time>
      </trkpt>
      <trkpt lat="48.51584" lon="7.1698">
        <ele>826.2</ele>
        <time>2021-08-01T11:19:19Z</time>
      </trkpt>
      <trkpt lat="48.51585" lon="7.1698">
        <ele>826.2</ele>
        <time>2021-08-01T11:19:20Z</time>
      </trkpt>
      <trkpt lat="48.51588" lon="7.16979">
        <ele>826.2</ele>
        <time>2021-08-01T11:19:22Z</time>
      </trkpt>
      <trkpt lat="48.51591" lon="7.1698">
        <ele>826.2</ele>
        <time>2021-08-01T11:19:23Z</time>
      </trkpt>
      <trkpt lat="48.51592" lon="7.1698">
        <ele>826.2</ele>
        <time>2021-08-01T11:19:25Z</time>
      </trkpt>
      <trkpt lat="48.51593" lon="7.1698">
        <ele>826.2</ele>
        <time>2021-08-01T11:19:26Z</time>
      </trkpt>
      <trkpt lat="48.51595" lon="7.1698">
        <ele>826.2</ele>
        <time>2021-08-01T11:19:27Z</time>
      </trkpt>
      <trkpt lat="48.516" lon="7.16982">
        <ele>826.2</ele>
        <time>2021-08-01T11:19:28Z</time>
      </trkpt>
      <trkpt lat="48.51609" lon="7.16986">
        <ele>826.2</ele>
        <time>2021-08-01T11:19:30Z</time>
      </trkpt>
      <trkpt lat="48.51612" lon="7.16988">
        <ele>826.2</ele>
        <time>2021-08-01T11:19:31Z</time>
      </trkpt>
      <trkpt lat="48.51612" lon="7.16989">
        <ele>826.2</ele>
        <time>2021-08-01T11:19:32Z</time>
      </trkpt>
      <trkpt lat="48.5161" lon="7.16989">
        <ele>826.2</ele>
        <time>2021-08-01T11:19:34Z</time>
      </trkpt>
      <trkpt lat="48.51608" lon="7.16989">
        <ele>826.2</ele>
        <time>2021-08-01T11:19:35Z</time>
      </trkpt>
      <trkpt lat="48.51605" lon="7.16988">
        <ele>826.2</ele>
        <time>2021-08-01T11:19:37Z</time>
      </trkpt>
      <trkpt lat="48.51604" lon="7.16988">
        <ele>826.2</ele>
        <time>2021-08-01T11:19:38Z</time>
      </trkpt>
      <trkpt lat="48.51603" lon="7.16987">
        <ele>826.1</ele>
        <time>2021-08-01T11:19:39Z</time>
      </trkpt>
      <trkpt lat="48.51593" lon="7.16982">
        <ele>826.1</ele>
        <time>2021-08-01T11:19:41Z</time>
      </trkpt>
      <trkpt lat="48.51587" lon="7.16979">
        <ele>826.1</ele>
        <time>2021-08-01T11:19:43Z</time>
      </trkpt>
      <trkpt lat="48.51586" lon="7.1698">
        <ele>826.1</ele>
        <time>2021-08-01T11:19:44Z</time>
      </trkpt>
      <trkpt lat="48.51587" lon="7.1698">
        <ele>826.1</ele>
        <time>2021-08-01T11:19:46Z</time>
      </trkpt>
      <trkpt lat="48.51588" lon="7.16981">
        <ele>826.1</ele>
        <time>2021-08-01T11:19:47Z</time>
      </trkpt>
      <trkpt lat="48.51592" lon="7.16982">
        <ele>826.1</ele>
        <time>2021-08-01T11:19:49Z</time>
      </trkpt>
      <trkpt lat="48.51593" lon="7.16981">
        <ele>826.1</ele>
        <time>2021-08-01T11:19:51Z</time>
      </trkpt>
      <trkpt lat="48.51594" lon="7.1698">
        <ele>826.1</ele>
        <time>2021-08-01T11:19:52Z</time>
      </trkpt>
      <trkpt lat="48.51595" lon="7.16976">
        <ele>826.1</ele>
        <time>2021-08-01T11:19:54Z</time>
      </trkpt>
      <trkpt lat="48.51597" lon="7.16973">
        <ele>826.1</ele>
        <time>2021-08-01T11:19:56Z</time>
      </trkpt>
      <trkpt lat="48.51598" lon="7.16972">
        <ele>826.1</ele>
        <time>2021-08-01T11:19:57Z</time>
      </trkpt>
      <trkpt lat="48.516" lon="7.16971">
        <ele>826.1</ele>
        <time>2021-08-01T11:19:59Z</time>
      </trkpt>
      <trkpt lat="48.516" lon="7.16971">
        <ele>826.1</ele>
        <time>2021-08-01T11:20:00Z</time>
      </trkpt>
      <trkpt lat="48.516" lon="7.16971">
        <ele>826.1</ele>
        <time>2021-08-01T11:20:02Z</time>
      </trkpt>
      <trkpt lat="48.516" lon="7.16971">
        <ele>826.1</ele>
        <time>2021-08-01T11:20:03Z</time>
      </trkpt>
      <trkpt lat="48.516" lon="7.16971">
        <ele>826.1</ele>
        <time>2021-08-01T11:20:04Z</time>
      </trkpt>
      <trkpt lat="48.516" lon="7.16972">
        <ele>826.1</ele>
        <time>2021-08-01T11:20:06Z</time>
      </trkpt>
      <trkpt lat="48.51599" lon="7.16976">
        <ele>826.1</ele>
        <time>2021-08-01T11:20:08Z</time>
      </trkpt>
      <trkpt lat="48.51599" lon="7.16976">
        <ele>826.1</ele>
        <time>2021-08-01T11:20:09Z</time>
      </trkpt>
      <trkpt lat="48.51596" lon="7.16977">
        <ele>826.1</ele>
        <time>2021-08-01T11:20:11Z</time>
      </trkpt>
      <trkpt lat="48.51588" lon="7.16977">
        <ele>826</ele>
        <time>2021-08-01T11:20:13Z</time>
      </trkpt>
      <trkpt lat="48.51585" lon="7.16975">
        <ele>826</ele>
        <time>2021-08-01T11:20:14Z</time>
      </trkpt>
      <trkpt lat="48.51584" lon="7.16973">
        <ele>826</ele>
        <time>2021-08-01T11:20:16Z</time>
      </trkpt>
      <trkpt lat="48.51584" lon="7.16971">
        <ele>826</ele>
        <time>2021-08-01T11:20:18Z</time>
      </trkpt>
      <trkpt lat="48.51583" lon="7.16972">
        <ele>826</ele>
        <time>2021-08-01T11:20:19Z</time>
      </trkpt>
      <trkpt lat="48.51583" lon="7.16972">
        <ele>826</ele>
        <time>2021-08-01T11:20:21Z</time>
      </trkpt>
      <trkpt lat="48.51583" lon="7.16972">
        <ele>826</ele>
        <time>2021-08-01T11:20:23Z</time>
      </trkpt>
      <trkpt lat="48.51584" lon="7.16973">
        <ele>826</ele>
        <time>2021-08-01T11:20:25Z</time>
      </trkpt>
      <trkpt lat="48.51585" lon="7.16976">
        <ele>826</ele>
        <time>2021-08-01T11:20:27Z</time>
      </trkpt>
      <trkpt lat="48.51585" lon="7.16978">
        <ele>826</ele>
        <time>2021-08-01T11:20:29Z</time>
      </trkpt>
      <trkpt lat="48.51585" lon="7.16978">
        <ele>826</ele>
        <time>2021-08-01T11:20:30Z</time>
      </trkpt>
      <trkpt lat="48.51585" lon="7.16978">
        <ele>826</ele>
        <time>2021-08-01T11:20:32Z</time>
      </trkpt>
      <trkpt lat="48.51585" lon="7.16978">
        <ele>826</ele>
        <time>2021-08-01T11:20:33Z</time>
      </trkpt>
      <trkpt lat="48.51585" lon="7.16978">
        <ele>826</ele>
        <time>2021-08-01T11:20:35Z</time>
      </trkpt>
      <trkpt lat="48.51587" lon="7.16985">
        <ele>826</ele>
        <time>2021-08-01T11:20:37Z</time>
      </trkpt>
      <trkpt lat="48.51587" lon="7.1699">
        <ele>826</ele>
        <time>2021-08-01T11:20:38Z</time>
      </trkpt>
      <trkpt lat="48.51589" lon="7.16999">
        <ele>826</ele>
        <time>2021-08-01T11:20:40Z</time>
      </trkpt>
      <trkpt lat="48.51591" lon="7.17003">
        <ele>826</ele>
        <time>2021-08-01T11:20:42Z</time>
      </trkpt>
      <trkpt lat="48.51592" lon="7.17007">
        <ele>826</ele>
        <time>2021-08-01T11:20:44Z</time>
      </trkpt>
      <trkpt lat="48.51592" lon="7.17008">
        <ele>826</ele>
        <time>2021-08-01T11:20:45Z</time>
      </trkpt>
      <trkpt lat="48.51594" lon="7.17008">
        <ele>826</ele>
        <time>2021-08-01T11:20:47Z</time>
      </trkpt>
      <trkpt lat="48.51595" lon="7.17007">
        <ele>826</ele>
        <time>2021-08-01T11:20:48Z</time>
      </trkpt>
      <trkpt lat="48.51596" lon="7.17004">
        <ele>825.9</ele>
        <time>2021-08-01T11:20:50Z</time>
      </trkpt>
      <trkpt lat="48.51596" lon="7.16999">
        <ele>825.9</ele>
        <time>2021-08-01T11:20:51Z</time>
      </trkpt>
      <trkpt lat="48.51596" lon="7.16996">
        <ele>825.9</ele>
        <time>2021-08-01T11:20:52Z</time>
      </trkpt>
      <trkpt lat="48.51595" lon="7.16994">
        <ele>825.9</ele>
        <time>2021-08-01T11:20:53Z</time>
      </trkpt>
      <trkpt lat="48.51594" lon="7.16988">
        <ele>825.9</ele>
        <time>2021-08-01T11:20:54Z</time>
      </trkpt>
      <trkpt lat="48.51592" lon="7.1698">
        <ele>825.9</ele>
        <time>2021-08-01T11:20:56Z</time>
      </trkpt>
      <trkpt lat="48.51591" lon="7.16976">
        <ele>825.9</ele>
        <time>2021-08-01T11:20:57Z</time>
      </trkpt>
      <trkpt lat="48.51591" lon="7.16973">
        <ele>825.9</ele>
        <time>2021-08-01T11:20:59Z</time>
      </trkpt>
      <trkpt lat="48.51591" lon="7.16972">
        <ele>825.9</ele>
        <time>2021-08-01T11:21:01Z</time>
      </trkpt>
      <trkpt lat="48.51591" lon="7.16971">
        <ele>825.9</ele>
        <time>2021-08-01T11:21:03Z</time>
      </trkpt>
      <trkpt lat="48.51591" lon="7.16971">
        <ele>825.9</ele>
        <time>2021-08-01T11:21:04Z</time>
      </trkpt>
      <trkpt lat="48.51591" lon="7.16971">
        <ele>825.9</ele>
        <time>2021-08-01T11:21:05Z</time>
      </trkpt>
      <trkpt lat="48.51591" lon="7.16971">
        <ele>825.9</ele>
        <time>2021-08-01T11:21:06Z</time>
      </trkpt>
      <trkpt lat="48.51591" lon="7.16971">
        <ele>825.9</ele>
        <time>2021-08-01T11:21:08Z</time>
      </trkpt>
      <trkpt lat="48.51596" lon="7.16977">
        <ele>825.9</ele>
        <time>2021-08-01T11:21:10Z</time>
      </trkpt>
      <trkpt lat="48.51599" lon="7.16979">
        <ele>825.9</ele>
        <time>2021-08-01T11:21:11Z</time>
      </trkpt>
      <trkpt lat="48.51604" lon="7.16983">
        <ele>825.9</ele>
        <time>2021-08-01T11:21:13Z</time>
      </trkpt>
      <trkpt lat="48.51606" lon="7.16985">
        <ele>825.9</ele>
        <time>2021-08-01T11:21:14Z</time>
      </trkpt>
      <trkpt lat="48.51614" lon="7.16989">
        <ele>825.8</ele>
        <time>2021-08-01T11:21:16Z</time>
      </trkpt>
      <trkpt lat="48.51617" lon="7.16992">
        <ele>825.8</ele>
        <time>2021-08-01T11:21:17Z</time>
      </trkpt>
      <trkpt lat="48.51619" lon="7.16993">
        <ele>825.8</ele>
        <time>2021-08-01T11:21:18Z</time>
      </trkpt>
      <trkpt lat="48.51617" lon="7.16991">
        <ele>825.8</ele>
        <time>2021-08-01T11:21:20Z</time>
      </trkpt>
      <trkpt lat="48.51613" lon="7.16989">
        <ele>825.8</ele>
        <time>2021-08-01T11:21:22Z</time>
      </trkpt>
      <trkpt lat="48.51612" lon="7.16989">
        <ele>825.8</ele>
        <time>2021-08-01T11:21:23Z</time>
      </trkpt>
      <trkpt lat="48.51611" lon="7.16988">
        <ele>825.8</ele>
        <time>2021-08-01T11:21:25Z</time>
      </trkpt>
      <trkpt lat="48.51611" lon="7.16988">
        <ele>825.8</ele>
        <time>2021-08-01T11:21:26Z</time>
      </trkpt>
      <trkpt lat="48.51602" lon="7.16983">
        <ele>825.8</ele>
        <time>2021-08-01T11:21:28Z</time>
      </trkpt>
      <trkpt lat="48.51571" lon="7.16933">
        <ele>830.6</ele>
        <time>2021-08-01T11:27:32Z</time>
      </trkpt>
      <trkpt lat="48.51569" lon="7.16929">
        <ele>831</ele>
        <time>2021-08-01T11:27:34Z</time>
      </trkpt>
      <trkpt lat="48.51568" lon="7.16927">
        <ele>831.2</ele>
        <time>2021-08-01T11:27:35Z</time>
      </trkpt>
      <trkpt lat="48.51564" lon="7.16924">
        <ele>831.7</ele>
        <time>2021-08-01T11:27:37Z</time>
      </trkpt>
      <trkpt lat="48.51559" lon="7.1692">
        <ele>832.4</ele>
        <time>2021-08-01T11:27:39Z</time>
      </trkpt>
      <trkpt lat="48.51558" lon="7.16916">
        <ele>832.8</ele>
        <time>2021-08-01T11:27:41Z</time>
      </trkpt>
      <trkpt lat="48.51558" lon="7.16914">
        <ele>832.9</ele>
        <time>2021-08-01T11:27:42Z</time>
      </trkpt>
      <trkpt lat="48.51558" lon="7.16913">
        <ele>832.9</ele>
        <time>2021-08-01T11:27:44Z</time>
      </trkpt>
      <trkpt lat="48.51558" lon="7.16913">
        <ele>833</ele>
        <time>2021-08-01T11:27:45Z</time>
      </trkpt>
      <trkpt lat="48.51561" lon="7.16913">
        <ele>833.3</ele>
        <time>2021-08-01T11:27:47Z</time>
      </trkpt>
      <trkpt lat="48.51561" lon="7.16912">
        <ele>833.3</ele>
        <time>2021-08-01T11:27:49Z</time>
      </trkpt>
      <trkpt lat="48.5156" lon="7.16912">
        <ele>833.5</ele>
        <time>2021-08-01T11:27:51Z</time>
      </trkpt>
      <trkpt lat="48.5156" lon="7.16911">
        <ele>833.5</ele>
        <time>2021-08-01T11:27:52Z</time>
      </trkpt>
      <trkpt lat="48.5156" lon="7.16911">
        <ele>833.5</ele>
        <time>2021-08-01T11:27:53Z</time>
      </trkpt>
      <trkpt lat="48.51561" lon="7.16909">
        <ele>833.7</ele>
        <time>2021-08-01T11:27:55Z</time>
      </trkpt>
      <trkpt lat="48.51568" lon="7.1684">
        <ele>838.7</ele>
        <time>2021-08-01T11:28:40Z</time>
      </trkpt>
      <trkpt lat="48.51565" lon="7.16836">
        <ele>839.1</ele>
        <time>2021-08-01T11:28:41Z</time>
      </trkpt>
      <trkpt lat="48.51563" lon="7.16833">
        <ele>839.5</ele>
        <time>2021-08-01T11:28:43Z</time>
      </trkpt>
      <trkpt lat="48.51562" lon="7.16832">
        <ele>839.6</ele>
        <time>2021-08-01T11:28:44Z</time>
      </trkpt>
      <trkpt lat="48.51561" lon="7.1683">
        <ele>839.8</ele>
        <time>2021-08-01T11:28:47Z</time>
      </trkpt>
      <trkpt lat="48.51561" lon="7.16829">
        <ele>839.8</ele>
        <time>2021-08-01T11:28:48Z</time>
      </trkpt>
      <trkpt lat="48.51561" lon="7.16829">
        <ele>839.9</ele>
        <time>2021-08-01T11:28:50Z</time>
      </trkpt>
      <trkpt lat="48.51561" lon="7.16828">
        <ele>839.9</ele>
        <time>2021-08-01T11:28:51Z</time>
      </trkpt>
      <trkpt lat="48.51561" lon="7.16828">
        <ele>840</ele>
        <time>2021-08-01T11:28:53Z</time>
      </trkpt>
      <trkpt lat="48.51561" lon="7.16827">
        <ele>840</ele>
        <time>2021-08-01T11:28:54Z</time>
      </trkpt>
      <trkpt lat="48.5156" lon="7.16827">
        <ele>840.1</ele>
        <time>2021-08-01T11:28:55Z</time>
      </trkpt>
      <trkpt lat="48.5156" lon="7.16826">
        <ele>840.2</ele>
        <time>2021-08-01T11:28:57Z</time>
      </trkpt>
      <trkpt lat="48.51554" lon="7.16659">
        <ele>852.7</ele>
        <time>2021-08-01T11:31:15Z</time>
      </trkpt>
      <trkpt lat="48.51552" lon="7.16652">
        <ele>853.1</ele>
        <time>2021-08-01T11:31:16Z</time>
      </trkpt>
      <trkpt lat="48.5155" lon="7.16648">
        <ele>853.4</ele>
        <time>2021-08-01T11:31:18Z</time>
      </trkpt>
      <trkpt lat="48.5155" lon="7.16647">
        <ele>853.7</ele>
        <time>2021-08-01T11:31:20Z</time>
      </trkpt>
      <trkpt lat="48.5155" lon="7.16646">
        <ele>853.8</ele>
        <time>2021-08-01T11:31:21Z</time>
      </trkpt>
      <trkpt lat="48.5155" lon="7.16647">
        <ele>853.8</ele>
        <time>2021-08-01T11:31:22Z</time>
      </trkpt>
      <trkpt lat="48.51551" lon="7.16647">
        <ele>853.8</ele>
        <time>2021-08-01T11:31:24Z</time>
      </trkpt>
      <trkpt lat="48.51551" lon="7.16647">
        <ele>853.9</ele>
        <time>2021-08-01T11:31:25Z</time>
      </trkpt>
      <trkpt lat="48.51551" lon="7.16647">
        <ele>853.9</ele>
        <time>2021-08-01T11:31:26Z</time>
      </trkpt>
      <trkpt lat="48.51551" lon="7.16647">
        <ele>853.9</ele>
        <time>2021-08-01T11:31:28Z</time>
      </trkpt>
      <trkpt lat="48.51551" lon="7.16648">
        <ele>853.9</ele>
        <time>2021-08-01T11:31:29Z</time>
      </trkpt>
      <trkpt lat="48.51551" lon="7.16648">
        <ele>853.9</ele>
        <time>2021-08-01T11:31:30Z</time>
      </trkpt>
      <trkpt lat="48.51495" lon="7.16757">
        <ele>865.4</ele>
        <time>2021-08-01T11:33:08Z</time>
      </trkpt>
      <trkpt lat="48.51494" lon="7.16758">
        <ele>865.6</ele>
        <time>2021-08-01T11:33:09Z</time>
      </trkpt>
      <trkpt lat="48.51493" lon="7.16759">
        <ele>865.7</ele>
        <time>2021-08-01T11:33:10Z</time>
      </trkpt>
      <trkpt lat="48.51493" lon="7.1676">
        <ele>865.9</ele>
        <time>2021-08-01T11:33:11Z</time>
      </trkpt>
      <trkpt lat="48.51492" lon="7.16761">
        <ele>866</ele>
        <time>2021-08-01T11:33:13Z</time>
      </trkpt>
      <trkpt lat="48.51492" lon="7.16762">
        <ele>866.1</ele>
        <time>2021-08-01T11:33:14Z</time>
      </trkpt>
      <trkpt lat="48.51491" lon="7.16764">
        <ele>866.3</ele>
        <time>2021-08-01T11:33:16Z</time>
      </trkpt>
      <trkpt lat="48.51491" lon="7.16766">
        <ele>866.5</ele>
        <time>2021-08-01T11:33:17Z</time>
      </trkpt>
      <trkpt lat="48.51491" lon="7.16767">
        <ele>866.6</ele>
        <time>2021-08-01T11:33:19Z</time>
      </trkpt>
      <trkpt lat="48.51491" lon="7.16768">
        <ele>866.6</ele>
        <time>2021-08-01T11:33:20Z</time>
      </trkpt>
      <trkpt lat="48.51491" lon="7.16768">
        <ele>866.7</ele>
        <time>2021-08-01T11:33:22Z</time>
      </trkpt>
      <trkpt lat="48.51491" lon="7.16768">
        <ele>866.7</ele>
        <time>2021-08-01T11:33:23Z</time>
      </trkpt>
      <trkpt lat="48.5149" lon="7.16768">
        <ele>866.7</ele>
        <time>2021-08-01T11:33:25Z</time>
      </trkpt>
      <trkpt lat="48.5149" lon="7.16768">
        <ele>866.7</ele>
        <time>2021-08-01T11:33:26Z</time>
      </trkpt>
      <trkpt lat="48.5149" lon="7.16768">
        <ele>866.7</ele>
        <time>2021-08-01T11:33:28Z</time>
      </trkpt>
      <trkpt lat="48.51465" lon="7.16747">
        <ele>870.5</ele>
        <time>2021-08-01T11:34:03Z</time>
      </trkpt>
      <trkpt lat="48.51463" lon="7.16744">
        <ele>870.9</ele>
        <time>2021-08-01T11:34:04Z</time>
      </trkpt>
      <trkpt lat="48.51461" lon="7.16742">
        <ele>871.2</ele>
        <time>2021-08-01T11:34:06Z</time>
      </trkpt>
      <trkpt lat="48.5146" lon="7.16741">
        <ele>871.4</ele>
        <time>2021-08-01T11:34:07Z</time>
      </trkpt>
      <trkpt lat="48.51457" lon="7.16741">
        <ele>871.7</ele>
        <time>2021-08-01T11:34:09Z</time>
      </trkpt>
      <trkpt lat="48.51456" lon="7.16741">
        <ele>871.9</ele>
        <time>2021-08-01T11:34:10Z</time>
      </trkpt>
      <trkpt lat="48.51454" lon="7.16741">
        <ele>872.1</ele>
        <time>2021-08-01T11:34:12Z</time>
      </trkpt>
      <trkpt lat="48.51453" lon="7.16741">
        <ele>872.2</ele>
        <time>2021-08-01T11:34:13Z</time>
      </trkpt>
      <trkpt lat="48.51453" lon="7.16741">
        <ele>872.3</ele>
        <time>2021-08-01T11:34:14Z</time>
      </trkpt>
      <trkpt lat="48.51452" lon="7.16741">
        <ele>872.4</ele>
        <time>2021-08-01T11:34:16Z</time>
      </trkpt>
      <trkpt lat="48.51452" lon="7.16741">
        <ele>872.4</ele>
        <time>2021-08-01T11:34:17Z</time>
      </trkpt>
      <trkpt lat="48.51452" lon="7.16741">
        <ele>872.4</ele>
        <time>2021-08-01T11:34:19Z</time>
      </trkpt>
      <trkpt lat="48.51451" lon="7.16741">
        <ele>872.5</ele>
        <time>2021-08-01T11:34:20Z</time>
      </trkpt>
      <trkpt lat="48.51389" lon="7.16765">
        <ele>881.1</ele>
        <time>2021-08-01T11:35:32Z</time>
      </trkpt>
      <trkpt lat="48.51386" lon="7.16765">
        <ele>881.3</ele>
        <time>2021-08-01T11:35:34Z</time>
      </trkpt>
      <trkpt lat="48.51384" lon="7.16765">
        <ele>881.3</ele>
        <time>2021-08-01T11:35:35Z</time>
      </trkpt>
      <trkpt lat="48.51383" lon="7.16764">
        <ele>881.4</ele>
        <time>2021-08-01T11:35:36Z</time>
      </trkpt>
      <trkpt lat="48.51382" lon="7.16763">
        <ele>881.4</ele>
        <time>2021-08-01T11:35:38Z</time>
      </trkpt>
      <trkpt lat="48.51382" lon="7.16763">
        <ele>881.4</ele>
        <time>2021-08-01T11:35:39Z</time>
      </trkpt>
      <trkpt lat="48.51382" lon="7.16763">
        <ele>881.4</ele>
        <time>2021-08-01T11:35:40Z</time>
      </trkpt>
      <trkpt lat="48.51382" lon="7.16762">
        <ele>881.4</ele>
        <time>2021-08-01T11:35:41Z</time>
      </trkpt>
      <trkpt lat="48.51381" lon="7.16762">
        <ele>881.4</ele>
        <time>2021-08-01T11:35:43Z</time>
      </trkpt>
      <trkpt lat="48.51381" lon="7.16762">
        <ele>881.5</ele>
        <time>2021-08-01T11:35:44Z</time>
      </trkpt>
      <trkpt lat="48.51381" lon="7.16762">
        <ele>881.5</ele>
        <time>2021-08-01T11:35:45Z</time>
      </trkpt>
      <trkpt lat="48.51381" lon="7.16762">
        <ele>881.5</ele>
        <time>2021-08-01T11:35:46Z</time>
      </trkpt>
      <trkpt lat="48.51381" lon="7.16762">
        <ele>881.5</ele>
        <time>2021-08-01T11:35:48Z</time>
      </trkpt>
      <trkpt lat="48.51381" lon="7.16762">
        <ele>881.5</ele>
        <time>2021-08-01T11:35:50Z</time>
      </trkpt>
      <trkpt lat="48.51335" lon="7.16753">
        <ele>883.7</ele>
        <time>2021-08-01T11:36:44Z</time>
      </trkpt>
      <trkpt lat="48.51332" lon="7.16752">
        <ele>883.8</ele>
        <time>2021-08-01T11:36:45Z</time>
      </trkpt>
      <trkpt lat="48.51329" lon="7.16752">
        <ele>884</ele>
        <time>2021-08-01T11:36:47Z</time>
      </trkpt>
      <trkpt lat="48.51326" lon="7.16754">
        <ele>884.1</ele>
        <time>2021-08-01T11:36:48Z</time>
      </trkpt>
      <trkpt lat="48.51324" lon="7.16755">
        <ele>884.3</ele>
        <time>2021-08-01T11:36:49Z</time>
      </trkpt>
      <trkpt lat="48.5132" lon="7.16758">
        <ele>884.5</ele>
        <time>2021-08-01T11:36:51Z</time>
      </trkpt>
      <trkpt lat="48.51318" lon="7.1676">
        <ele>884.7</ele>
        <time>2021-08-01T11:36:52Z</time>
      </trkpt>
      <trkpt lat="48.51316" lon="7.1676">
        <ele>884.8</ele>
        <time>2021-08-01T11:36:54Z</time>
      </trkpt>
      <trkpt lat="48.51315" lon="7.1676">
        <ele>884.9</ele>
        <time>2021-08-01T11:36:55Z</time>
      </trkpt>
      <trkpt lat="48.51314" lon="7.16759">
        <ele>885</ele>
        <time>2021-08-01T11:36:57Z</time>
      </trkpt>
      <trkpt lat="48.51313" lon="7.16759">
        <ele>885.1</ele>
        <time>2021-08-01T11:36:58Z</time>
      </trkpt>
      <trkpt lat="48.51312" lon="7.16758">
        <ele>885.1</ele>
        <time>2021-08-01T11:36:59Z</time>
      </trkpt>
      <trkpt lat="48.51311" lon="7.16756">
        <ele>885.3</ele>
        <time>2021-08-01T11:37:00Z</time>
      </trkpt>
      <trkpt lat="48.51311" lon="7.16756">
        <ele>885.3</ele>
        <time>2021-08-01T11:37:01Z</time>
      </trkpt>
      <trkpt lat="48.51257" lon="7.16773">
        <ele>892.5</ele>
        <time>2021-08-01T11:39:16Z</time>
      </trkpt>
      <trkpt lat="48.51263" lon="7.16769">
        <ele>892.9</ele>
        <time>2021-08-01T11:39:18Z</time>
      </trkpt>
      <trkpt lat="48.51266" lon="7.16765">
        <ele>893.1</ele>
        <time>2021-08-01T11:39:20Z</time>
      </trkpt>
      <trkpt lat="48.51269" lon="7.16761">
        <ele>893.3</ele>
        <time>2021-08-01T11:39:21Z</time>
      </trkpt>
      <trkpt lat="48.51269" lon="7.1676">
        <ele>893.3</ele>
        <time>2021-08-01T11:39:22Z</time>
      </trkpt>
      <trkpt lat="48.51271" lon="7.16758">
        <ele>893.5</ele>
        <time>2021-08-01T11:39:23Z</time>
      </trkpt>
      <trkpt lat="48.51273" lon="7.16755">
        <ele>893.6</ele>
        <time>2021-08-01T11:39:25Z</time>
      </trkpt>
      <trkpt lat="48.51274" lon="7.16754">
        <ele>893.7</ele>
        <time>2021-08-01T11:39:27Z</time>
      </trkpt>
      <trkpt lat="48.51275" lon="7.16753">
        <ele>893.8</ele>
        <time>2021-08-01T11:39:28Z</time>
      </trkpt>
      <trkpt lat="48.51275" lon="7.16753">
        <ele>893.8</ele>
        <time>2021-08-01T11:39:29Z</time>
      </trkpt>
      <trkpt lat="48.51275" lon="7.16752">
        <ele>893.9</ele>
        <time>2021-08-01T11:39:30Z</time>
      </trkpt>
      <trkpt lat="48.51276" lon="7.16752">
        <ele>893.9</ele>
        <time>2021-08-01T11:39:31Z</time>
      </trkpt>
      <trkpt lat="48.51278" lon="7.1675">
        <ele>894.1</ele>
        <time>2021-08-01T11:39:33Z</time>
      </trkpt>
      <trkpt lat="48.51279" lon="7.1675">
        <ele>894.1</ele>
        <time>2021-08-01T11:39:34Z</time>
      </trkpt>
      <trkpt lat="48.5128" lon="7.16748">
        <ele>894.3</ele>
        <time>2021-08-01T11:39:36Z</time>
      </trkpt>
      <trkpt lat="48.51281" lon="7.16747">
        <ele>894.3</ele>
        <time>2021-08-01T11:39:37Z</time>
      </trkpt>
      <trkpt lat="48.51282" lon="7.16746">
        <ele>894.4</ele>
        <time>2021-08-01T11:39:39Z</time>
      </trkpt>
      <trkpt lat="48.51435" lon="7.16463">
        <ele>907</ele>
        <time>2021-08-01T11:44:59Z</time>
      </trkpt>
      <trkpt lat="48.51433" lon="7.16457">
        <ele>907.4</ele>
        <time>2021-08-01T11:45:01Z</time>
      </trkpt>
      <trkpt lat="48.51433" lon="7.16456">
        <ele>907.6</ele>
        <time>2021-08-01T11:45:02Z</time>
      </trkpt>
      <trkpt lat="48.51432" lon="7.16454">
        <ele>907.7</ele>
        <time>2021-08-01T11:45:03Z</time>
      </trkpt>
      <trkpt lat="48.51431" lon="7.16452">
        <ele>907.9</ele>
        <time>2021-08-01T11:45:04Z</time>
      </trkpt>
      <trkpt lat="48.5143" lon="7.16451">
        <ele>908</ele>
        <time>2021-08-01T11:45:05Z</time>
      </trkpt>
      <trkpt lat="48.51429" lon="7.1645">
        <ele>908.2</ele>
        <time>2021-08-01T11:45:07Z</time>
      </trkpt>
      <trkpt lat="48.51428" lon="7.16449">
        <ele>908.3</ele>
        <time>2021-08-01T11:45:08Z</time>
      </trkpt>
      <trkpt lat="48.51427" lon="7.16448">
        <ele>908.4</ele>
        <time>2021-08-01T11:45:09Z</time>
      </trkpt>
      <trkpt lat="48.51426" lon="7.16448">
        <ele>908.5</ele>
        <time>2021-08-01T11:45:10Z</time>
      </trkpt>
      <trkpt lat="48.51426" lon="7.16448">
        <ele>908.5</ele>
        <time>2021-08-01T11:45:11Z</time>
      </trkpt>
      <trkpt lat="48.51291" lon="7.16254">
        <ele>926.6</ele>
        <time>2021-08-01T11:48:42Z</time>
      </trkpt>
      <trkpt lat="48.5129" lon="7.16252">
        <ele>926.5</ele>
        <time>2021-08-01T11:48:43Z</time>
      </trkpt>
      <trkpt lat="48.51289" lon="7.16249">
        <ele>926.3</ele>
        <time>2021-08-01T11:48:45Z</time>
      </trkpt>
      <trkpt lat="48.51288" lon="7.16245">
        <ele>926.1</ele>
        <time>2021-08-01T11:48:47Z</time>
      </trkpt>
      <trkpt lat="48.51287" lon="7.16244">
        <ele>926.1</ele>
        <time>2021-08-01T11:48:48Z</time>
      </trkpt>
      <trkpt lat="48.51287" lon="7.16241">
        <ele>925.9</ele>
        <time>2021-08-01T11:48:49Z</time>
      </trkpt>
      <trkpt lat="48.51286" lon="7.16237">
        <ele>925.8</ele>
        <time>2021-08-01T11:48:51Z</time>
      </trkpt>
      <trkpt lat="48.51286" lon="7.16233">
        <ele>925.7</ele>
        <time>2021-08-01T11:48:52Z</time>
      </trkpt>
      <trkpt lat="48.51285" lon="7.16231">
        <ele>925.6</ele>
        <time>2021-08-01T11:48:53Z</time>
      </trkpt>
      <trkpt lat="48.51123" lon="7.16212">
        <ele>959.1</ele>
        <time>2021-08-01T11:55:54Z</time>
      </trkpt>
      <trkpt lat="48.51124" lon="7.16213">
        <ele>959.3</ele>
        <time>2021-08-01T11:55:55Z</time>
      </trkpt>
      <trkpt lat="48.51125" lon="7.16215">
        <ele>959.4</ele>
        <time>2021-08-01T11:55:56Z</time>
      </trkpt>
      <trkpt lat="48.51125" lon="7.16216">
        <ele>959.5</ele>
        <time>2021-08-01T11:55:58Z</time>
      </trkpt>
      <trkpt lat="48.51126" lon="7.16217">
        <ele>959.6</ele>
        <time>2021-08-01T11:56:00Z</time>
      </trkpt>
      <trkpt lat="48.51126" lon="7.16218">
        <ele>959.6</ele>
        <time>2021-08-01T11:56:01Z</time>
      </trkpt>
      <trkpt lat="48.51126" lon="7.16218">
        <ele>959.6</ele>
        <time>2021-08-01T11:56:02Z</time>
      </trkpt>
      <trkpt lat="48.51127" lon="7.16218">
        <ele>959.7</ele>
        <time>2021-08-01T11:56:03Z</time>
      </trkpt>
      <trkpt lat="48.51127" lon="7.16218">
        <ele>959.7</ele>
        <time>2021-08-01T11:56:04Z</time>
      </trkpt>
      <trkpt lat="48.51127" lon="7.16219">
        <ele>959.7</ele>
        <time>2021-08-01T11:56:06Z</time>
      </trkpt>
      <trkpt lat="48.51244" lon="7.16422">
        <ele>993.3</ele>
        <time>2021-08-01T12:11:56Z</time>
      </trkpt>
      <trkpt lat="48.51245" lon="7.16426">
        <ele>993.2</ele>
        <time>2021-08-01T12:11:57Z</time>
      </trkpt>
      <trkpt lat="48.51246" lon="7.16428">
        <ele>993.2</ele>
        <time>2021-08-01T12:11:59Z</time>
      </trkpt>
      <trkpt lat="48.51247" lon="7.1643">
        <ele>993.1</ele>
        <time>2021-08-01T12:12:01Z</time>
      </trkpt>
      <trkpt lat="48.51247" lon="7.16431">
        <ele>993.1</ele>
        <time>2021-08-01T12:12:03Z</time>
      </trkpt>
      <trkpt lat="48.51247" lon="7.16432">
        <ele>993.1</ele>
        <time>2021-08-01T12:12:04Z</time>
      </trkpt>
      <trkpt lat="48.51248" lon="7.16433">
        <ele>993.1</ele>
        <time>2021-08-01T12:12:05Z</time>
      </trkpt>
      <trkpt lat="48.51248" lon="7.16433">
        <ele>993.1</ele>
        <time>2021-08-01T12:12:07Z</time>
      </trkpt>
      <trkpt lat="48.51247" lon="7.16434">
        <ele>993.1</ele>
        <time>2021-08-01T12:12:08Z</time>
      </trkpt>
      <trkpt lat="48.51247" lon="7.16434">
        <ele>993.1</ele>
        <time>2021-08-01T12:12:10Z</time>
      </trkpt>
      <trkpt lat="48.51244" lon="7.16429">
        <ele>993</ele>
        <time>2021-08-01T12:14:22Z</time>
      </trkpt>
      <trkpt lat="48.51244" lon="7.16426">
        <ele>992.9</ele>
        <time>2021-08-01T12:14:23Z</time>
      </trkpt>
      <trkpt lat="48.51244" lon="7.16423">
        <ele>992.9</ele>
        <time>2021-08-01T12:14:25Z</time>
      </trkpt>
      <trkpt lat="48.51245" lon="7.1642">
        <ele>992.8</ele>
        <time>2021-08-01T12:14:26Z</time>
      </trkpt>
      <trkpt lat="48.51245" lon="7.16418">
        <ele>992.8</ele>
        <time>2021-08-01T12:14:27Z</time>
      </trkpt>
      <trkpt lat="48.51245" lon="7.16412">
        <ele>992.7</ele>
        <time>2021-08-01T12:14:29Z</time>
      </trkpt>
      <trkpt lat="48.51245" lon="7.16411">
        <ele>992.7</ele>
        <time>2021-08-01T12:14:30Z</time>
      </trkpt>
      <trkpt lat="48.51244" lon="7.16408">
        <ele>991.7</ele>
        <time>2021-08-01T12:14:31Z</time>
      </trkpt>
      <trkpt lat="48.51243" lon="7.16406">
        <ele>991.6</ele>
        <time>2021-08-01T12:14:32Z</time>
      </trkpt>
      <trkpt lat="48.51242" lon="7.16403">
        <ele>991.2</ele>
        <time>2021-08-01T12:14:33Z</time>
      </trkpt>
      <trkpt lat="48.51239" lon="7.164">
        <ele>990.7</ele>
        <time>2021-08-01T12:14:35Z</time>
      </trkpt>
      <trkpt lat="48.51237" lon="7.16398">
        <ele>990.2</ele>
        <time>2021-08-01T12:14:36Z</time>
      </trkpt>
      <trkpt lat="48.51235" lon="7.16398">
        <ele>990</ele>
        <time>2021-08-01T12:14:37Z</time>
      </trkpt>
      <trkpt lat="48.51234" lon="7.16398">
        <ele>989.8</ele>
        <time>2021-08-01T12:14:39Z</time>
      </trkpt>
      <trkpt lat="48.51233" lon="7.16398">
        <ele>989.7</ele>
        <time>2021-08-01T12:14:40Z</time>
      </trkpt>
      <trkpt lat="48.51234" lon="7.16397">
        <ele>989.6</ele>
        <time>2021-08-01T12:14:41Z</time>
      </trkpt>
      <trkpt lat="48.51235" lon="7.16398">
        <ele>989.4</ele>
        <time>2021-08-01T12:14:42Z</time>
      </trkpt>
      <trkpt lat="48.51236" lon="7.16399">
        <ele>989.2</ele>
        <time>2021-08-01T12:14:44Z</time>
      </trkpt>
      <trkpt lat="48.51237" lon="7.16399">
        <ele>989.1</ele>
        <time>2021-08-01T12:14:45Z</time>
      </trkpt>
      <trkpt lat="48.51237" lon="7.16399">
        <ele>989.1</ele>
        <time>2021-08-01T12:14:46Z</time>
      </trkpt>
      <trkpt lat="48.51238" lon="7.16399">
        <ele>989</ele>
        <time>2021-08-01T12:14:48Z</time>
      </trkpt>
      <trkpt lat="48.51238" lon="7.16398">
        <ele>988.9</ele>
        <time>2021-08-01T12:14:49Z</time>
      </trkpt>
      <trkpt lat="48.51238" lon="7.16398">
        <ele>988.9</ele>
        <time>2021-08-01T12:14:50Z</time>
      </trkpt>
      <trkpt lat="48.51239" lon="7.16397">
        <ele>988.8</ele>
        <time>2021-08-01T12:14:51Z</time>
      </trkpt>
      <trkpt lat="48.51239" lon="7.16396">
        <ele>988.7</ele>
        <time>2021-08-01T12:14:53Z</time>
      </trkpt>
      <trkpt lat="48.5124" lon="7.16395">
        <ele>988.6</ele>
        <time>2021-08-01T12:14:55Z</time>
      </trkpt>
      <trkpt lat="48.51214" lon="7.16378">
        <ele>984.2</ele>
        <time>2021-08-01T12:16:38Z</time>
      </trkpt>
      <trkpt lat="48.51211" lon="7.16377">
        <ele>983.7</ele>
        <time>2021-08-01T12:16:39Z</time>
      </trkpt>
      <trkpt lat="48.5121" lon="7.16376">
        <ele>983.5</ele>
        <time>2021-08-01T12:16:41Z</time>
      </trkpt>
      <trkpt lat="48.5121" lon="7.16375">
        <ele>983.4</ele>
        <time>2021-08-01T12:16:42Z</time>
      </trkpt>
      <trkpt lat="48.51209" lon="7.16374">
        <ele>983.3</ele>
        <time>2021-08-01T12:16:44Z</time>
      </trkpt>
      <trkpt lat="48.51209" lon="7.16374">
        <ele>983.2</ele>
        <time>2021-08-01T12:16:46Z</time>
      </trkpt>
      <trkpt lat="48.51209" lon="7.16374">
        <ele>983.2</ele>
        <time>2021-08-01T12:16:48Z</time>
      </trkpt>
      <trkpt lat="48.51209" lon="7.16374">
        <ele>983.2</ele>
        <time>2021-08-01T12:16:50Z</time>
      </trkpt>
      <trkpt lat="48.5121" lon="7.16374">
        <ele>983.1</ele>
        <time>2021-08-01T12:16:52Z</time>
      </trkpt>
      <trkpt lat="48.5121" lon="7.16374">
        <ele>983.1</ele>
        <time>2021-08-01T12:16:53Z</time>
      </trkpt>
      <trkpt lat="48.5121" lon="7.16374">
        <ele>983.1</ele>
        <time>2021-08-01T12:16:54Z</time>
      </trkpt>
      <trkpt lat="48.5121" lon="7.16374">
        <ele>983.1</ele>
        <time>2021-08-01T12:16:56Z</time>
      </trkpt>
      <trkpt lat="48.5121" lon="7.16374">
        <ele>983</ele>
        <time>2021-08-01T12:16:58Z</time>
      </trkpt>
      <trkpt lat="48.5121" lon="7.16374">
        <ele>983</ele>
        <time>2021-08-01T12:16:59Z</time>
      </trkpt>
      <trkpt lat="48.5121" lon="7.16374">
        <ele>983</ele>
        <time>2021-08-01T12:17:00Z</time>
      </trkpt>
      <trkpt lat="48.5121" lon="7.16373">
        <ele>983</ele>
        <time>2021-08-01T12:17:01Z</time>
      </trkpt>
      <trkpt lat="48.5121" lon="7.16373">
        <ele>983</ele>
        <time>2021-08-01T12:17:02Z</time>
      </trkpt>
      <trkpt lat="48.5121" lon="7.16373">
        <ele>982.9</ele>
        <time>2021-08-01T12:17:04Z</time>
      </trkpt>
      <trkpt lat="48.5121" lon="7.16373">
        <ele>982.9</ele>
        <time>2021-08-01T12:17:06Z</time>
      </trkpt>
      <trkpt lat="48.5121" lon="7.16373">
        <ele>982.9</ele>
        <time>2021-08-01T12:17:08Z</time>
      </trkpt>
      <trkpt lat="48.5121" lon="7.16373">
        <ele>982.8</ele>
        <time>2021-08-01T12:17:10Z</time>
      </trkpt>
      <trkpt lat="48.5121" lon="7.16372">
        <ele>982.8</ele>
        <time>2021-08-01T12:17:11Z</time>
      </trkpt>
      <trkpt lat="48.5121" lon="7.16372">
        <ele>982.8</ele>
        <time>2021-08-01T12:17:13Z</time>
      </trkpt>
      <trkpt lat="48.5121" lon="7.16372">
        <ele>982.8</ele>
        <time>2021-08-01T12:17:15Z</time>
      </trkpt>
      <trkpt lat="48.5121" lon="7.16372">
        <ele>982.8</ele>
        <time>2021-08-01T12:17:16Z</time>
      </trkpt>
      <trkpt lat="48.5121" lon="7.16372">
        <ele>982.8</ele>
        <time>2021-08-01T12:17:17Z</time>
      </trkpt>
      <trkpt lat="48.5121" lon="7.16372">
        <ele>982.8</ele>
        <time>2021-08-01T12:17:19Z</time>
      </trkpt>
      <trkpt lat="48.5121" lon="7.16372">
        <ele>982.8</ele>
        <time>2021-08-01T12:17:20Z</time>
      </trkpt>
      <trkpt lat="48.5121" lon="7.16372">
        <ele>982.8</ele>
        <time>2021-08-01T12:17:22Z</time>
      </trkpt>
      <trkpt lat="48.5121" lon="7.16372">
        <ele>982.7</ele>
        <time>2021-08-01T12:17:23Z</time>
      </trkpt>
      <trkpt lat="48.5121" lon="7.16372">
        <ele>982.7</ele>
        <time>2021-08-01T12:17:24Z</time>
      </trkpt>
      <trkpt lat="48.5121" lon="7.16372">
        <ele>982.7</ele>
        <time>2021-08-01T12:17:25Z</time>
      </trkpt>
      <trkpt lat="48.5121" lon="7.16372">
        <ele>982.7</ele>
        <time>2021-08-01T12:17:26Z</time>
      </trkpt>
      <trkpt lat="48.5121" lon="7.16372">
        <ele>982.6</ele>
        <time>2021-08-01T12:17:28Z</time>
      </trkpt>
      <trkpt lat="48.5121" lon="7.16371">
        <ele>982.6</ele>
        <time>2021-08-01T12:17:29Z</time>
      </trkpt>
      <trkpt lat="48.5121" lon="7.16371">
        <ele>982.6</ele>
        <time>2021-08-01T12:17:30Z</time>
      </trkpt>
      <trkpt lat="48.5121" lon="7.16371">
        <ele>982.5</ele>
        <time>2021-08-01T12:17:32Z</time>
      </trkpt>
      <trkpt lat="48.5121" lon="7.16371">
        <ele>982.5</ele>
        <time>2021-08-01T12:17:33Z</time>
      </trkpt>
      <trkpt lat="48.5121" lon="7.16369">
        <ele>982.2</ele>
        <time>2021-08-01T12:17:35Z</time>
      </trkpt>
      <trkpt lat="48.51209" lon="7.16367">
        <ele>982</ele>
        <time>2021-08-01T12:17:36Z</time>
      </trkpt>
      <trkpt lat="48.51209" lon="7.16364">
        <ele>981.6</ele>
        <time>2021-08-01T12:17:38Z</time>
      </trkpt>
      <trkpt lat="48.51209" lon="7.16362">
        <ele>981.3</ele>
        <time>2021-08-01T12:17:40Z</time>
      </trkpt>
      <trkpt lat="48.51209" lon="7.1636">
        <ele>981.1</ele>
        <time>2021-08-01T12:17:41Z</time>
      </trkpt>
      <trkpt lat="48.51209" lon="7.1636">
        <ele>981.1</ele>
        <time>2021-08-01T12:17:42Z</time>
      </trkpt>
      <trkpt lat="48.51209" lon="7.16359">
        <ele>981</ele>
        <time>2021-08-01T12:17:43Z</time>
      </trkpt>
      <trkpt lat="48.51208" lon="7.16359">
        <ele>980.9</ele>
        <time>2021-08-01T12:17:44Z</time>
      </trkpt>
      <trkpt lat="48.51208" lon="7.16358">
        <ele>980.9</ele>
        <time>2021-08-01T12:17:46Z</time>
      </trkpt>
      <trkpt lat="48.51208" lon="7.16358">
        <ele>980.8</ele>
        <time>2021-08-01T12:17:47Z</time>
      </trkpt>
      <trkpt lat="48.51208" lon="7.16357">
        <ele>980.7</ele>
        <time>2021-08-01T12:17:49Z</time>
      </trkpt>
      <trkpt lat="48.51208" lon="7.16357">
        <ele>980.7</ele>
        <time>2021-08-01T12:17:50Z</time>
      </trkpt>
      <trkpt lat="48.51208" lon="7.16357">
        <ele>980.7</ele>
        <time>2021-08-01T12:17:52Z</time>
      </trkpt>
      <trkpt lat="48.51208" lon="7.16356">
        <ele>980.6</ele>
        <time>2021-08-01T12:17:53Z</time>
      </trkpt>
      <trkpt lat="48.51208" lon="7.16355">
        <ele>980.5</ele>
        <time>2021-08-01T12:17:54Z</time>
      </trkpt>
      <trkpt lat="48.51207" lon="7.16353">
        <ele>980.2</ele>
        <time>2021-08-01T12:17:56Z</time>
      </trkpt>
      <trkpt lat="48.51206" lon="7.16352">
        <ele>979.9</ele>
        <time>2021-08-01T12:17:57Z</time>
      </trkpt>
      <trkpt lat="48.51205" lon="7.1635">
        <ele>979.7</ele>
        <time>2021-08-01T12:17:59Z</time>
      </trkpt>
      <trkpt lat="48.51205" lon="7.16349">
        <ele>979.5</ele>
        <time>2021-08-01T12:18:00Z</time>
      </trkpt>
      <trkpt lat="48.51204" lon="7.16349">
        <ele>979.4</ele>
        <time>2021-08-01T12:18:01Z</time>
      </trkpt>
      <trkpt lat="48.51203" lon="7.16348">
        <ele>979.2</ele>
        <time>2021-08-01T12:18:03Z</time>
      </trkpt>
      <trkpt lat="48.51203" lon="7.16347">
        <ele>979.1</ele>
        <time>2021-08-01T12:18:04Z</time>
      </trkpt>
      <trkpt lat="48.51203" lon="7.16347">
        <ele>979.1</ele>
        <time>2021-08-01T12:18:06Z</time>
      </trkpt>
      <trkpt lat="48.51203" lon="7.16347">
        <ele>979</ele>
        <time>2021-08-01T12:18:07Z</time>
      </trkpt>
      <trkpt lat="48.51203" lon="7.16347">
        <ele>979</ele>
        <time>2021-08-01T12:18:08Z</time>
      </trkpt>
      <trkpt lat="48.51203" lon="7.16346">
        <ele>979</ele>
        <time>2021-08-01T12:18:09Z</time>
      </trkpt>
      <trkpt lat="48.51203" lon="7.16346">
        <ele>978.9</ele>
        <time>2021-08-01T12:18:11Z</time>
      </trkpt>
      <trkpt lat="48.51203" lon="7.16346">
        <ele>978.9</ele>
        <time>2021-08-01T12:18:12Z</time>
      </trkpt>
      <trkpt lat="48.51203" lon="7.16346">
        <ele>978.9</ele>
        <time>2021-08-01T12:18:14Z</time>
      </trkpt>
      <trkpt lat="48.51203" lon="7.16346">
        <ele>978.9</ele>
        <time>2021-08-01T12:18:15Z</time>
      </trkpt>
      <trkpt lat="48.51203" lon="7.16345">
        <ele>978.8</ele>
        <time>2021-08-01T12:18:17Z</time>
      </trkpt>
      <trkpt lat="48.51203" lon="7.16345">
        <ele>978.8</ele>
        <time>2021-08-01T12:18:19Z</time>
      </trkpt>
      <trkpt lat="48.51203" lon="7.16345">
        <ele>978.7</ele>
        <time>2021-08-01T12:18:20Z</time>
      </trkpt>
      <trkpt lat="48.51203" lon="7.16345">
        <ele>978.7</ele>
        <time>2021-08-01T12:18:21Z</time>
      </trkpt>
      <trkpt lat="48.51203" lon="7.16345">
        <ele>978.7</ele>
        <time>2021-08-01T12:18:23Z</time>
      </trkpt>
      <trkpt lat="48.51203" lon="7.16345">
        <ele>978.7</ele>
        <time>2021-08-01T12:18:25Z</time>
      </trkpt>
      <trkpt lat="48.51203" lon="7.16345">
        <ele>978.7</ele>
        <time>2021-08-01T12:18:26Z</time>
      </trkpt>
      <trkpt lat="48.51203" lon="7.16345">
        <ele>978.6</ele>
        <time>2021-08-01T12:18:28Z</time>
      </trkpt>
      <trkpt lat="48.51203" lon="7.16345">
        <ele>978.6</ele>
        <time>2021-08-01T12:18:29Z</time>
      </trkpt>
      <trkpt lat="48.51201" lon="7.16343">
        <ele>978.3</ele>
        <time>2021-08-01T12:18:30Z</time>
      </trkpt>
      <trkpt lat="48.512" lon="7.16341">
        <ele>978</ele>
        <time>2021-08-01T12:18:32Z</time>
      </trkpt>
      <trkpt lat="48.51198" lon="7.16339">
        <ele>977.6</ele>
        <time>2021-08-01T12:18:34Z</time>
      </trkpt>
      <trkpt lat="48.51198" lon="7.16338">
        <ele>977.4</ele>
        <time>2021-08-01T12:18:35Z</time>
      </trkpt>
      <trkpt lat="48.51197" lon="7.16337">
        <ele>977.2</ele>
        <time>2021-08-01T12:18:36Z</time>
      </trkpt>
      <trkpt lat="48.51196" lon="7.16336">
        <ele>977.1</ele>
        <time>2021-08-01T12:18:38Z</time>
      </trkpt>
      <trkpt lat="48.51196" lon="7.16335">
        <ele>977</ele>
        <time>2021-08-01T12:18:39Z</time>
      </trkpt>
      <trkpt lat="48.51196" lon="7.16335">
        <ele>976.9</ele>
        <time>2021-08-01T12:18:40Z</time>
      </trkpt>
      <trkpt lat="48.51196" lon="7.16334">
        <ele>976.9</ele>
        <time>2021-08-01T12:18:42Z</time>
      </trkpt>
      <trkpt lat="48.51195" lon="7.16334">
        <ele>976.8</ele>
        <time>2021-08-01T12:18:43Z</time>
      </trkpt>
      <trkpt lat="48.51195" lon="7.16333">
        <ele>976.8</ele>
        <time>2021-08-01T12:18:44Z</time>
      </trkpt>
      <trkpt lat="48.51195" lon="7.16333">
        <ele>976.7</ele>
        <time>2021-08-01T12:18:45Z</time>
      </trkpt>
      <trkpt lat="48.51195" lon="7.16333">
        <ele>976.7</ele>
        <time>2021-08-01T12:18:47Z</time>
      </trkpt>
      <trkpt lat="48.51195" lon="7.16333">
        <ele>976.7</ele>
        <time>2021-08-01T12:18:48Z</time>
      </trkpt>
      <trkpt lat="48.51192" lon="7.16332">
        <ele>976.3</ele>
        <time>2021-08-01T12:18:50Z</time>
      </trkpt>
      <trkpt lat="48.5119" lon="7.1633">
        <ele>975.8</ele>
        <time>2021-08-01T12:18:51Z</time>
      </trkpt>
      <trkpt lat="48.51189" lon="7.1633">
        <ele>975.7</ele>
        <time>2021-08-01T12:18:52Z</time>
      </trkpt>
      <trkpt lat="48.51188" lon="7.16329">
        <ele>975.5</ele>
        <time>2021-08-01T12:18:53Z</time>
      </trkpt>
      <trkpt lat="48.51186" lon="7.16328">
        <ele>975.2</ele>
        <time>2021-08-01T12:18:55Z</time>
      </trkpt>
      <trkpt lat="48.51185" lon="7.16327">
        <ele>975</ele>
        <time>2021-08-01T12:18:56Z</time>
      </trkpt>
      <trkpt lat="48.51183" lon="7.16326">
        <ele>974.7</ele>
        <time>2021-08-01T12:18:58Z</time>
      </trkpt>
      <trkpt lat="48.51182" lon="7.16325">
        <ele>974.6</ele>
        <time>2021-08-01T12:18:59Z</time>
      </trkpt>
      <trkpt lat="48.51181" lon="7.16324">
        <ele>974.4</ele>
        <time>2021-08-01T12:19:00Z</time>
      </trkpt>
      <trkpt lat="48.5118" lon="7.16323">
        <ele>974.2</ele>
        <time>2021-08-01T12:19:02Z</time>
      </trkpt>
      <trkpt lat="48.5118" lon="7.16322">
        <ele>974</ele>
        <time>2021-08-01T12:19:03Z</time>
      </trkpt>
      <trkpt lat="48.51179" lon="7.16322">
        <ele>974</ele>
        <time>2021-08-01T12:19:04Z</time>
      </trkpt>
      <trkpt lat="48.51179" lon="7.16322">
        <ele>974</ele>
        <time>2021-08-01T12:19:05Z</time>
      </trkpt>
      <trkpt lat="48.51179" lon="7.16321">
        <ele>973.9</ele>
        <time>2021-08-01T12:19:06Z</time>
      </trkpt>
      <trkpt lat="48.51179" lon="7.16321">
        <ele>973.9</ele>
        <time>2021-08-01T12:19:08Z</time>
      </trkpt>
      <trkpt lat="48.51179" lon="7.16321">
        <ele>973.8</ele>
        <time>2021-08-01T12:19:09Z</time>
      </trkpt>
      <trkpt lat="48.51178" lon="7.1632">
        <ele>973.7</ele>
        <time>2021-08-01T12:19:10Z</time>
      </trkpt>
      <trkpt lat="48.51176" lon="7.1632">
        <ele>973.4</ele>
        <time>2021-08-01T12:19:12Z</time>
      </trkpt>
      <trkpt lat="48.51174" lon="7.16319">
        <ele>973.1</ele>
        <time>2021-08-01T12:19:13Z</time>
      </trkpt>
      <trkpt lat="48.51172" lon="7.16317">
        <ele>972.8</ele>
        <time>2021-08-01T12:19:14Z</time>
      </trkpt>
      <trkpt lat="48.5117" lon="7.16316">
        <ele>972.4</ele>
        <time>2021-08-01T12:19:16Z</time>
      </trkpt>
      <trkpt lat="48.51167" lon="7.16314">
        <ele>971.9</ele>
        <time>2021-08-01T12:19:18Z</time>
      </trkpt>
      <trkpt lat="48.51166" lon="7.16312">
        <ele>971.6</ele>
        <time>2021-08-01T12:19:19Z</time>
      </trkpt>
      <trkpt lat="48.51163" lon="7.16311">
        <ele>971.1</ele>
        <time>2021-08-01T12:19:21Z</time>
      </trkpt>
      <trkpt lat="48.51162" lon="7.1631">
        <ele>970.8</ele>
        <time>2021-08-01T12:19:22Z</time>
      </trkpt>
      <trkpt lat="48.51161" lon="7.16308">
        <ele>970.6</ele>
        <time>2021-08-01T12:19:24Z</time>
      </trkpt>
      <trkpt lat="48.51161" lon="7.16307">
        <ele>970.5</ele>
        <time>2021-08-01T12:19:25Z</time>
      </trkpt>
      <trkpt lat="48.5116" lon="7.16306">
        <ele>970.3</ele>
        <time>2021-08-01T12:19:27Z</time>
      </trkpt>
      <trkpt lat="48.5116" lon="7.16306">
        <ele>970.2</ele>
        <time>2021-08-01T12:19:28Z</time>
      </trkpt>
      <trkpt lat="48.51159" lon="7.16306">
        <ele>970.2</ele>
        <time>2021-08-01T12:19:29Z</time>
      </trkpt>
      <trkpt lat="48.51159" lon="7.16305">
        <ele>970.1</ele>
        <time>2021-08-01T12:19:30Z</time>
      </trkpt>
      <trkpt lat="48.51159" lon="7.16305">
        <ele>970.1</ele>
        <time>2021-08-01T12:19:31Z</time>
      </trkpt>
      <trkpt lat="48.51109" lon="7.16258">
        <ele>961.6</ele>
        <time>2021-08-01T12:20:44Z</time>
      </trkpt>
      <trkpt lat="48.51108" lon="7.16257">
        <ele>961.4</ele>
        <time>2021-08-01T12:20:45Z</time>
      </trkpt>
      <trkpt lat="48.51104" lon="7.16254">
        <ele>961</ele>
        <time>2021-08-01T12:20:47Z</time>
      </trkpt>
      <trkpt lat="48.51102" lon="7.16252">
        <ele>960.9</ele>
        <time>2021-08-01T12:20:48Z</time>
      </trkpt>
      <trkpt lat="48.51099" lon="7.16248">
        <ele>960.4</ele>
        <time>2021-08-01T12:20:50Z</time>
      </trkpt>
      <trkpt lat="48.51096" lon="7.16245">
        <ele>960.2</ele>
        <time>2021-08-01T12:20:51Z</time>
      </trkpt>
      <trkpt lat="48.51086" lon="7.16236">
        <ele>959.5</ele>
        <time>2021-08-01T12:20:53Z</time>
      </trkpt>
      <trkpt lat="48.51084" lon="7.16234">
        <ele>959.4</ele>
        <time>2021-08-01T12:20:54Z</time>
      </trkpt>
      <trkpt lat="48.51078" lon="7.16229">
        <ele>959.3</ele>
        <time>2021-08-01T12:20:56Z</time>
      </trkpt>
      <trkpt lat="48.51074" lon="7.16227">
        <ele>959.3</ele>
        <time>2021-08-01T12:20:58Z</time>
      </trkpt>
      <trkpt lat="48.5107" lon="7.16224">
        <ele>959.3</ele>
        <time>2021-08-01T12:20:59Z</time>
      </trkpt>
      <trkpt lat="48.51066" lon="7.16221">
        <ele>959.3</ele>
        <time>2021-08-01T12:21:00Z</time>
      </trkpt>
      <trkpt lat="48.51064" lon="7.1622">
        <ele>959.3</ele>
        <time>2021-08-01T12:21:01Z</time>
      </trkpt>
      <trkpt lat="48.51063" lon="7.16218">
        <ele>959.3</ele>
        <time>2021-08-01T12:21:03Z</time>
      </trkpt>
      <trkpt lat="48.51062" lon="7.16218">
        <ele>959.3</ele>
        <time>2021-08-01T12:21:04Z</time>
      </trkpt>
      <trkpt lat="48.51061" lon="7.16216">
        <ele>959.3</ele>
        <time>2021-08-01T12:21:05Z</time>
      </trkpt>
      <trkpt lat="48.51061" lon="7.16215">
        <ele>959.4</ele>
        <time>2021-08-01T12:21:06Z</time>
      </trkpt>
      <trkpt lat="48.51063" lon="7.16217">
        <ele>959.4</ele>
        <time>2021-08-01T12:21:08Z</time>
      </trkpt>
      <trkpt lat="48.51064" lon="7.16216">
        <ele>959.4</ele>
        <time>2021-08-01T12:21:09Z</time>
      </trkpt>
      <trkpt lat="48.51064" lon="7.16214">
        <ele>959.4</ele>
        <time>2021-08-01T12:21:12Z</time>
      </trkpt>
      <trkpt lat="48.51064" lon="7.16213">
        <ele>959.4</ele>
        <time>2021-08-01T12:21:13Z</time>
      </trkpt>
      <trkpt lat="48.51065" lon="7.16211">
        <ele>959.4</ele>
        <time>2021-08-01T12:21:14Z</time>
      </trkpt>
      <trkpt lat="48.51065" lon="7.16207">
        <ele>959.4</ele>
        <time>2021-08-01T12:21:16Z</time>
      </trkpt>
      <trkpt lat="48.51038" lon="7.16199">
        <ele>957.8</ele>
        <time>2021-08-01T12:36:40Z</time>
      </trkpt>
      <trkpt lat="48.51032" lon="7.16203">
        <ele>957.1</ele>
        <time>2021-08-01T12:36:42Z</time>
      </trkpt>
      <trkpt lat="48.51031" lon="7.16205">
        <ele>956.2</ele>
        <time>2021-08-01T12:36:43Z</time>
      </trkpt>
      <trkpt lat="48.51031" lon="7.16206">
        <ele>956.1</ele>
        <time>2021-08-01T12:36:44Z</time>
      </trkpt>
      <trkpt lat="48.51031" lon="7.16209">
        <ele>955.6</ele>
        <time>2021-08-01T12:36:46Z</time>
      </trkpt>
      <trkpt lat="48.51033" lon="7.16213">
        <ele>954.9</ele>
        <time>2021-08-01T12:36:47Z</time>
      </trkpt>
      <trkpt lat="48.51034" lon="7.16214">
        <ele>954.7</ele>
        <time>2021-08-01T12:36:48Z</time>
      </trkpt>
      <trkpt lat="48.51037" lon="7.16223">
        <ele>953.1</ele>
        <time>2021-08-01T12:36:50Z</time>
      </trkpt>
      <trkpt lat="48.51042" lon="7.16234">
        <ele>951.1</ele>
        <time>2021-08-01T12:36:52Z</time>
      </trkpt>
      <trkpt lat="48.51044" lon="7.16238">
        <ele>950.3</ele>
        <time>2021-08-01T12:36:53Z</time>
      </trkpt>
      <trkpt lat="48.51045" lon="7.16243">
        <ele>949.5</ele>
        <time>2021-08-01T12:36:54Z</time>
      </trkpt>
      <trkpt lat="48.51046" lon="7.16244">
        <ele>949.2</ele>
        <time>2021-08-01T12:36:55Z</time>
      </trkpt>
      <trkpt lat="48.51047" lon="7.16248">
        <ele>948.6</ele>
        <time>2021-08-01T12:36:56Z</time>
      </trkpt>
      <trkpt lat="48.51048" lon="7.1625">
        <ele>948.2</ele>
        <time>2021-08-01T12:36:58Z</time>
      </trkpt>
      <trkpt lat="48.51049" lon="7.16252">
        <ele>947.9</ele>
        <time>2021-08-01T12:36:59Z</time>
      </trkpt>
      <trkpt lat="48.51051" lon="7.16253">
        <ele>947.6</ele>
        <time>2021-08-01T12:37:00Z</time>
      </trkpt>
      <trkpt lat="48.51053" lon="7.16257">
        <ele>946.9</ele>
        <time>2021-08-01T12:37:01Z</time>
      </trkpt>
      <trkpt lat="48.51056" lon="7.16262">
        <ele>946.1</ele>
        <time>2021-08-01T12:37:02Z</time>
      </trkpt>
      <trkpt lat="48.5106" lon="7.1627">
        <ele>945</ele>
        <time>2021-08-01T12:37:04Z</time>
      </trkpt>
      <trkpt lat="48.51062" lon="7.16274">
        <ele>944.5</ele>
        <time>2021-08-01T12:37:05Z</time>
      </trkpt>
      <trkpt lat="48.51064" lon="7.16276">
        <ele>944.1</ele>
        <time>2021-08-01T12:37:06Z</time>
      </trkpt>
      <trkpt lat="48.51068" lon="7.1628">
        <ele>943.4</ele>
        <time>2021-08-01T12:37:08Z</time>
      </trkpt>
      <trkpt lat="48.51074" lon="7.16285">
        <ele>942.4</ele>
        <time>2021-08-01T12:37:10Z</time>
      </trkpt>
      <trkpt lat="48.51077" lon="7.16287">
        <ele>941.9</ele>
        <time>2021-08-01T12:37:11Z</time>
      </trkpt>
      <trkpt lat="48.51078" lon="7.16288">
        <ele>941.7</ele>
        <time>2021-08-01T12:37:12Z</time>
      </trkpt>
      <trkpt lat="48.5108" lon="7.16291">
        <ele>941.2</ele>
        <time>2021-08-01T12:37:13Z</time>
      </trkpt>
      <trkpt lat="48.51081" lon="7.16292">
        <ele>941</ele>
        <time>2021-08-01T12:37:14Z</time>
      </trkpt>
      <trkpt lat="48.51086" lon="7.16298">
        <ele>940.1</ele>
        <time>2021-08-01T12:37:16Z</time>
      </trkpt>
      <trkpt lat="48.51089" lon="7.16302">
        <ele>939.5</ele>
        <time>2021-08-01T12:37:17Z</time>
      </trkpt>
      <trkpt lat="48.5109" lon="7.16303">
        <ele>939.2</ele>
        <time>2021-08-01T12:37:18Z</time>
      </trkpt>
      <trkpt lat="48.51092" lon="7.16305">
        <ele>938.8</ele>
        <time>2021-08-01T12:37:19Z</time>
      </trkpt>
      <trkpt lat="48.51093" lon="7.16308">
        <ele>938.4</ele>
        <time>2021-08-01T12:37:20Z</time>
      </trkpt>
      <trkpt lat="48.51095" lon="7.16318">
        <ele>937.2</ele>
        <time>2021-08-01T12:37:22Z</time>
      </trkpt>
      <trkpt lat="48.51096" lon="7.16323">
        <ele>936.5</ele>
        <time>2021-08-01T12:37:23Z</time>
      </trkpt>
      <trkpt lat="48.51098" lon="7.16334">
        <ele>935</ele>
        <time>2021-08-01T12:37:25Z</time>
      </trkpt>
      <trkpt lat="48.51098" lon="7.1634">
        <ele>934.2</ele>
        <time>2021-08-01T12:37:26Z</time>
      </trkpt>
      <trkpt lat="48.51098" lon="7.16347">
        <ele>933.1</ele>
        <time>2021-08-01T12:37:28Z</time>
      </trkpt>
      <trkpt lat="48.51098" lon="7.16352">
        <ele>932.5</ele>
        <time>2021-08-01T12:37:29Z</time>
      </trkpt>
      <trkpt lat="48.51097" lon="7.16363">
        <ele>931.2</ele>
        <time>2021-08-01T12:37:31Z</time>
      </trkpt>
      <trkpt lat="48.51097" lon="7.16369">
        <ele>930.5</ele>
        <time>2021-08-01T12:37:32Z</time>
      </trkpt>
      <trkpt lat="48.51099" lon="7.16379">
        <ele>929.2</ele>
        <time>2021-08-01T12:37:34Z</time>
      </trkpt>
      <trkpt lat="48.511" lon="7.16385">
        <ele>928.4</ele>
        <time>2021-08-01T12:37:35Z</time>
      </trkpt>
      <trkpt lat="48.51101" lon="7.16388">
        <ele>928.1</ele>
        <time>2021-08-01T12:37:36Z</time>
      </trkpt>
      <trkpt lat="48.51101" lon="7.16396">
        <ele>927.2</ele>
        <time>2021-08-01T12:37:38Z</time>
      </trkpt>
      <trkpt lat="48.51101" lon="7.16403">
        <ele>926.2</ele>
        <time>2021-08-01T12:37:40Z</time>
      </trkpt>
      <trkpt lat="48.511" lon="7.16407">
        <ele>925.7</ele>
        <time>2021-08-01T12:37:41Z</time>
      </trkpt>
      <trkpt lat="48.51101" lon="7.16416">
        <ele>924.5</ele>
        <time>2021-08-01T12:37:43Z</time>
      </trkpt>
      <trkpt lat="48.51101" lon="7.1642">
        <ele>923.9</ele>
        <time>2021-08-01T12:37:44Z</time>
      </trkpt>
      <trkpt lat="48.51101" lon="7.16428">
        <ele>922.7</ele>
        <time>2021-08-01T12:37:46Z</time>
      </trkpt>
      <trkpt lat="48.51101" lon="7.16433">
        <ele>921.8</ele>
        <time>2021-08-01T12:37:47Z</time>
      </trkpt>
      <trkpt lat="48.511" lon="7.16438">
        <ele>920.9</ele>
        <time>2021-08-01T12:37:48Z</time>
      </trkpt>
      <trkpt lat="48.51101" lon="7.16447">
        <ele>918.9</ele>
        <time>2021-08-01T12:37:50Z</time>
      </trkpt>
      <trkpt lat="48.51102" lon="7.16456">
        <ele>918.4</ele>
        <time>2021-08-01T12:37:52Z</time>
      </trkpt>
      <trkpt lat="48.51103" lon="7.1646">
        <ele>918.1</ele>
        <time>2021-08-01T12:37:53Z</time>
      </trkpt>
      <trkpt lat="48.51105" lon="7.16467">
        <ele>917.6</ele>
        <time>2021-08-01T12:37:55Z</time>
      </trkpt>
      <trkpt lat="48.51106" lon="7.1648">
        <ele>916.8</ele>
        <time>2021-08-01T12:37:57Z</time>
      </trkpt>
      <trkpt lat="48.51108" lon="7.16491">
        <ele>916</ele>
        <time>2021-08-01T12:37:59Z</time>
      </trkpt>
      <trkpt lat="48.51109" lon="7.16496">
        <ele>915.7</ele>
        <time>2021-08-01T12:38:00Z</time>
      </trkpt>
      <trkpt lat="48.51111" lon="7.16505">
        <ele>915.1</ele>
        <time>2021-08-01T12:38:02Z</time>
      </trkpt>
      <trkpt lat="48.51111" lon="7.16515">
        <ele>914.4</ele>
        <time>2021-08-01T12:38:04Z</time>
      </trkpt>
      <trkpt lat="48.5111" lon="7.1652">
        <ele>914.1</ele>
        <time>2021-08-01T12:38:05Z</time>
      </trkpt>
      <trkpt lat="48.5111" lon="7.16522">
        <ele>914</ele>
        <time>2021-08-01T12:38:06Z</time>
      </trkpt>
      <trkpt lat="48.5111" lon="7.16524">
        <ele>913.9</ele>
        <time>2021-08-01T12:38:08Z</time>
      </trkpt>
      <trkpt lat="48.5111" lon="7.16523">
        <ele>913.8</ele>
        <time>2021-08-01T12:38:09Z</time>
      </trkpt>
      <trkpt lat="48.51109" lon="7.16523">
        <ele>913.8</ele>
        <time>2021-08-01T12:38:11Z</time>
      </trkpt>
      <trkpt lat="48.51109" lon="7.16523">
        <ele>913.8</ele>
        <time>2021-08-01T12:38:12Z</time>
      </trkpt>
      <trkpt lat="48.51109" lon="7.16523">
        <ele>913.8</ele>
        <time>2021-08-01T12:38:14Z</time>
      </trkpt>
      <trkpt lat="48.51109" lon="7.16524">
        <ele>913.7</ele>
        <time>2021-08-01T12:38:16Z</time>
      </trkpt>
      <trkpt lat="48.51114" lon="7.1654">
        <ele>912.5</ele>
        <time>2021-08-01T12:38:31Z</time>
      </trkpt>
      <trkpt lat="48.51115" lon="7.16547">
        <ele>912.1</ele>
        <time>2021-08-01T12:38:32Z</time>
      </trkpt>
      <trkpt lat="48.51117" lon="7.1656">
        <ele>911.2</ele>
        <time>2021-08-01T12:38:34Z</time>
      </trkpt>
      <trkpt lat="48.5112" lon="7.16585">
        <ele>909.3</ele>
        <time>2021-08-01T12:38:36Z</time>
      </trkpt>
      <trkpt lat="48.51122" lon="7.16593">
        <ele>908.7</ele>
        <time>2021-08-01T12:38:37Z</time>
      </trkpt>
      <trkpt lat="48.51124" lon="7.16606">
        <ele>907.7</ele>
        <time>2021-08-01T12:38:39Z</time>
      </trkpt>
      <trkpt lat="48.51125" lon="7.16612">
        <ele>907.3</ele>
        <time>2021-08-01T12:38:40Z</time>
      </trkpt>
      <trkpt lat="48.51126" lon="7.16618">
        <ele>906.9</ele>
        <time>2021-08-01T12:38:42Z</time>
      </trkpt>
      <trkpt lat="48.51126" lon="7.16623">
        <ele>906.5</ele>
        <time>2021-08-01T12:38:43Z</time>
      </trkpt>
      <trkpt lat="48.51126" lon="7.16625">
        <ele>906.4</ele>
        <time>2021-08-01T12:38:44Z</time>
      </trkpt>
      <trkpt lat="48.5113" lon="7.16626">
        <ele>906.7</ele>
        <time>2021-08-01T12:38:46Z</time>
      </trkpt>
      <trkpt lat="48.5113" lon="7.16625">
        <ele>906.8</ele>
        <time>2021-08-01T12:38:47Z</time>
      </trkpt>
      <trkpt lat="48.51131" lon="7.16624">
        <ele>906.9</ele>
        <time>2021-08-01T12:38:48Z</time>
      </trkpt>
      <trkpt lat="48.51132" lon="7.16623">
        <ele>906.9</ele>
        <time>2021-08-01T12:38:49Z</time>
      </trkpt>
      <trkpt lat="48.51132" lon="7.16619">
        <ele>907.2</ele>
        <time>2021-08-01T12:38:51Z</time>
      </trkpt>
      <trkpt lat="48.51132" lon="7.16615">
        <ele>907.4</ele>
        <time>2021-08-01T12:38:52Z</time>
      </trkpt>
      <trkpt lat="48.51132" lon="7.16614">
        <ele>907.5</ele>
        <time>2021-08-01T12:38:53Z</time>
      </trkpt>
      <trkpt lat="48.51132" lon="7.16612">
        <ele>907.6</ele>
        <time>2021-08-01T12:38:54Z</time>
      </trkpt>
      <trkpt lat="48.51133" lon="7.16608">
        <ele>907.9</ele>
        <time>2021-08-01T12:38:55Z</time>
      </trkpt>
      <trkpt lat="48.51133" lon="7.16605">
        <ele>908.1</ele>
        <time>2021-08-01T12:38:56Z</time>
      </trkpt>
      <trkpt lat="48.51132" lon="7.16598">
        <ele>908.6</ele>
        <time>2021-08-01T12:38:58Z</time>
      </trkpt>
      <trkpt lat="48.51132" lon="7.16594">
        <ele>908.9</ele>
        <time>2021-08-01T12:38:59Z</time>
      </trkpt>
      <trkpt lat="48.51132" lon="7.16588">
        <ele>909.3</ele>
        <time>2021-08-01T12:39:01Z</time>
      </trkpt>
      <trkpt lat="48.51131" lon="7.16584">
        <ele>909.6</ele>
        <time>2021-08-01T12:39:02Z</time>
      </trkpt>
      <trkpt lat="48.5113" lon="7.16579">
        <ele>910</ele>
        <time>2021-08-01T12:39:04Z</time>
      </trkpt>
      <trkpt lat="48.5113" lon="7.16575">
        <ele>910.3</ele>
        <time>2021-08-01T12:39:05Z</time>
      </trkpt>
      <trkpt lat="48.51129" lon="7.16568">
        <ele>910.7</ele>
        <time>2021-08-01T12:39:07Z</time>
      </trkpt>
      <trkpt lat="48.51127" lon="7.16562">
        <ele>911.1</ele>
        <time>2021-08-01T12:39:09Z</time>
      </trkpt>
      <trkpt lat="48.51125" lon="7.16557">
        <ele>911.6</ele>
        <time>2021-08-01T12:39:10Z</time>
      </trkpt>
      <trkpt lat="48.51124" lon="7.16551">
        <ele>911.9</ele>
        <time>2021-08-01T12:39:12Z</time>
      </trkpt>
      <trkpt lat="48.51123" lon="7.16547">
        <ele>912.2</ele>
        <time>2021-08-01T12:39:13Z</time>
      </trkpt>
      <trkpt lat="48.51121" lon="7.16543">
        <ele>912.5</ele>
        <time>2021-08-01T12:39:14Z</time>
      </trkpt>
      <trkpt lat="48.5112" lon="7.16538">
        <ele>912.8</ele>
        <time>2021-08-01T12:39:15Z</time>
      </trkpt>
      <trkpt lat="48.51119" lon="7.16536">
        <ele>912.9</ele>
        <time>2021-08-01T12:39:16Z</time>
      </trkpt>
      <trkpt lat="48.51119" lon="7.16532">
        <ele>913.2</ele>
        <time>2021-08-01T12:39:18Z</time>
      </trkpt>
      <trkpt lat="48.51118" lon="7.16527">
        <ele>913.5</ele>
        <time>2021-08-01T12:39:20Z</time>
      </trkpt>
      <trkpt lat="48.51118" lon="7.16522">
        <ele>913.8</ele>
        <time>2021-08-01T12:39:21Z</time>
      </trkpt>
      <trkpt lat="48.51118" lon="7.16518">
        <ele>914</ele>
        <time>2021-08-01T12:39:23Z</time>
      </trkpt>
      <trkpt lat="48.51117" lon="7.16514">
        <ele>914.3</ele>
        <time>2021-08-01T12:39:24Z</time>
      </trkpt>
      <trkpt lat="48.51116" lon="7.16509">
        <ele>914.6</ele>
        <time>2021-08-01T12:39:25Z</time>
      </trkpt>
      <trkpt lat="48.51116" lon="7.16507">
        <ele>914.7</ele>
        <time>2021-08-01T12:39:26Z</time>
      </trkpt>
      <trkpt lat="48.51115" lon="7.16502">
        <ele>915</ele>
        <time>2021-08-01T12:39:28Z</time>
      </trkpt>
      <trkpt lat="48.51114" lon="7.165">
        <ele>915.2</ele>
        <time>2021-08-01T12:39:29Z</time>
      </trkpt>
      <trkpt lat="48.51114" lon="7.16496">
        <ele>915.4</ele>
        <time>2021-08-01T12:39:30Z</time>
      </trkpt>
      <trkpt lat="48.51114" lon="7.16492">
        <ele>915.6</ele>
        <time>2021-08-01T12:39:32Z</time>
      </trkpt>
      <trkpt lat="48.51115" lon="7.1649">
        <ele>915.8</ele>
        <time>2021-08-01T12:39:33Z</time>
      </trkpt>
      <trkpt lat="48.51115" lon="7.16487">
        <ele>916</ele>
        <time>2021-08-01T12:39:34Z</time>
      </trkpt>
      <trkpt lat="48.51116" lon="7.16485">
        <ele>916.1</ele>
        <time>2021-08-01T12:39:36Z</time>
      </trkpt>
      <trkpt lat="48.51117" lon="7.16483">
        <ele>916.3</ele>
        <time>2021-08-01T12:39:37Z</time>
      </trkpt>
      <trkpt lat="48.51117" lon="7.1648">
        <ele>916.4</ele>
        <time>2021-08-01T12:39:38Z</time>
      </trkpt>
      <trkpt lat="48.51117" lon="7.16478">
        <ele>916.6</ele>
        <time>2021-08-01T12:39:39Z</time>
      </trkpt>
      <trkpt lat="48.51117" lon="7.16476">
        <ele>916.7</ele>
        <time>2021-08-01T12:39:40Z</time>
      </trkpt>
      <trkpt lat="48.51117" lon="7.16472">
        <ele>916.9</ele>
        <time>2021-08-01T12:39:42Z</time>
      </trkpt>
      <trkpt lat="48.51117" lon="7.16468">
        <ele>917.2</ele>
        <time>2021-08-01T12:39:44Z</time>
      </trkpt>
      <trkpt lat="48.51116" lon="7.16466">
        <ele>917.3</ele>
        <time>2021-08-01T12:39:45Z</time>
      </trkpt>
      <trkpt lat="48.51114" lon="7.16463">
        <ele>917.6</ele>
        <time>2021-08-01T12:39:47Z</time>
      </trkpt>
      <trkpt lat="48.51111" lon="7.16459">
        <ele>917.9</ele>
        <time>2021-08-01T12:39:48Z</time>
      </trkpt>
      <trkpt lat="48.51111" lon="7.16459">
        <ele>917.9</ele>
        <time>2021-08-01T12:39:49Z</time>
      </trkpt>
      <trkpt lat="48.51108" lon="7.16455">
        <ele>918.2</ele>
        <time>2021-08-01T12:39:51Z</time>
      </trkpt>
      <trkpt lat="48.51106" lon="7.16453">
        <ele>918.5</ele>
        <time>2021-08-01T12:39:52Z</time>
      </trkpt>
      <trkpt lat="48.51106" lon="7.16452">
        <ele>918.5</ele>
        <time>2021-08-01T12:39:54Z</time>
      </trkpt>
      <trkpt lat="48.51105" lon="7.16451">
        <ele>918.6</ele>
        <time>2021-08-01T12:39:55Z</time>
      </trkpt>
      <trkpt lat="48.51105" lon="7.16448">
        <ele>918.7</ele>
        <time>2021-08-01T12:39:56Z</time>
      </trkpt>
      <trkpt lat="48.51105" lon="7.16447">
        <ele>918.8</ele>
        <time>2021-08-01T12:39:58Z</time>
      </trkpt>
      <trkpt lat="48.51105" lon="7.16445">
        <ele>918.9</ele>
        <time>2021-08-01T12:39:59Z</time>
      </trkpt>
      <trkpt lat="48.51106" lon="7.16443">
        <ele>919.1</ele>
        <time>2021-08-01T12:40:00Z</time>
      </trkpt>
      <trkpt lat="48.51106" lon="7.16439">
        <ele>919.3</ele>
        <time>2021-08-01T12:40:02Z</time>
      </trkpt>
      <trkpt lat="48.51105" lon="7.16435">
        <ele>919.5</ele>
        <time>2021-08-01T12:40:03Z</time>
      </trkpt>
      <trkpt lat="48.51105" lon="7.16433">
        <ele>919.6</ele>
        <time>2021-08-01T12:40:05Z</time>
      </trkpt>
      <trkpt lat="48.51104" lon="7.16431">
        <ele>919.7</ele>
        <time>2021-08-01T12:40:06Z</time>
      </trkpt>
      <trkpt lat="48.51104" lon="7.16429">
        <ele>919.8</ele>
        <time>2021-08-01T12:40:07Z</time>
      </trkpt>
      <trkpt lat="48.51103" lon="7.16427">
        <ele>919.9</ele>
        <time>2021-08-01T12:40:08Z</time>
      </trkpt>
      <trkpt lat="48.51103" lon="7.16424">
        <ele>920.1</ele>
        <time>2021-08-01T12:40:09Z</time>
      </trkpt>
      <trkpt lat="48.51102" lon="7.16421">
        <ele>920.3</ele>
        <time>2021-08-01T12:40:11Z</time>
      </trkpt>
      <trkpt lat="48.51101" lon="7.16421">
        <ele>920.4</ele>
        <time>2021-08-01T12:40:12Z</time>
      </trkpt>
      <trkpt lat="48.511" lon="7.1642">
        <ele>920.5</ele>
        <time>2021-08-01T12:40:14Z</time>
      </trkpt>
      <trkpt lat="48.51099" lon="7.16418">
        <ele>920.6</ele>
        <time>2021-08-01T12:40:15Z</time>
      </trkpt>
      <trkpt lat="48.51097" lon="7.16416">
        <ele>920.8</ele>
        <time>2021-08-01T12:40:17Z</time>
      </trkpt>
      <trkpt lat="48.51096" lon="7.16414">
        <ele>921</ele>
        <time>2021-08-01T12:40:18Z</time>
      </trkpt>
      <trkpt lat="48.51094" lon="7.16412">
        <ele>921.1</ele>
        <time>2021-08-01T12:40:19Z</time>
      </trkpt>
      <trkpt lat="48.51094" lon="7.1641">
        <ele>921.3</ele>
        <time>2021-08-01T12:40:21Z</time>
      </trkpt>
      <trkpt lat="48.51093" lon="7.1641">
        <ele>921.3</ele>
        <time>2021-08-01T12:40:23Z</time>
      </trkpt>
      <trkpt lat="48.51093" lon="7.1641">
        <ele>921.3</ele>
        <time>2021-08-01T12:40:24Z</time>
      </trkpt>
      <trkpt lat="48.51093" lon="7.16409">
        <ele>921.4</ele>
        <time>2021-08-01T12:40:25Z</time>
      </trkpt>
      <trkpt lat="48.51092" lon="7.16408">
        <ele>921.5</ele>
        <time>2021-08-01T12:40:26Z</time>
      </trkpt>
      <trkpt lat="48.51091" lon="7.16405">
        <ele>921.6</ele>
        <time>2021-08-01T12:40:28Z</time>
      </trkpt>
      <trkpt lat="48.5109" lon="7.16404">
        <ele>921.8</ele>
        <time>2021-08-01T12:40:29Z</time>
      </trkpt>
      <trkpt lat="48.51086" lon="7.16399">
        <ele>922.2</ele>
        <time>2021-08-01T12:40:31Z</time>
      </trkpt>
      <trkpt lat="48.51085" lon="7.16397">
        <ele>922.3</ele>
        <time>2021-08-01T12:40:32Z</time>
      </trkpt>
      <trkpt lat="48.51082" lon="7.16396">
        <ele>922.5</ele>
        <time>2021-08-01T12:40:34Z</time>
      </trkpt>
      <trkpt lat="48.51081" lon="7.16394">
        <ele>922.6</ele>
        <time>2021-08-01T12:40:35Z</time>
      </trkpt>
      <trkpt lat="48.51081" lon="7.16392">
        <ele>922.7</ele>
        <time>2021-08-01T12:40:36Z</time>
      </trkpt>
      <trkpt lat="48.51082" lon="7.16392">
        <ele>922.8</ele>
        <time>2021-08-01T12:40:38Z</time>
      </trkpt>
      <trkpt lat="48.51082" lon="7.16391">
        <ele>922.8</ele>
        <time>2021-08-01T12:40:40Z</time>
      </trkpt>
      <trkpt lat="48.51082" lon="7.16391">
        <ele>922.8</ele>
        <time>2021-08-01T12:40:41Z</time>
      </trkpt>
      <trkpt lat="48.51081" lon="7.16391">
        <ele>922.9</ele>
        <time>2021-08-01T12:40:42Z</time>
      </trkpt>
      <trkpt lat="48.51081" lon="7.1639">
        <ele>922.9</ele>
        <time>2021-08-01T12:40:43Z</time>
      </trkpt>
      <trkpt lat="48.5108" lon="7.16389">
        <ele>923</ele>
        <time>2021-08-01T12:40:44Z</time>
      </trkpt>
      <trkpt lat="48.5108" lon="7.16388">
        <ele>923</ele>
        <time>2021-08-01T12:40:45Z</time>
      </trkpt>
      <trkpt lat="48.51052" lon="7.16333">
        <ele>920</ele>
        <time>2021-08-01T12:41:06Z</time>
      </trkpt>
      <trkpt lat="48.51047" lon="7.16329">
        <ele>919.4</ele>
        <time>2021-08-01T12:41:08Z</time>
      </trkpt>
      <trkpt lat="48.51043" lon="7.16327">
        <ele>918.9</ele>
        <time>2021-08-01T12:41:10Z</time>
      </trkpt>
      <trkpt lat="48.51042" lon="7.16327">
        <ele>918.9</ele>
        <time>2021-08-01T12:41:11Z</time>
      </trkpt>
      <trkpt lat="48.51042" lon="7.16327">
        <ele>918.9</ele>
        <time>2021-08-01T12:41:12Z</time>
      </trkpt>
      <trkpt lat="48.51042" lon="7.16327">
        <ele>918.8</ele>
        <time>2021-08-01T12:41:13Z</time>
      </trkpt>
      <trkpt lat="48.51042" lon="7.16327">
        <ele>918.8</ele>
        <time>2021-08-01T12:41:14Z</time>
      </trkpt>
      <trkpt lat="48.51042" lon="7.16327">
        <ele>918.8</ele>
        <time>2021-08-01T12:41:16Z</time>
      </trkpt>
      <trkpt lat="48.51041" lon="7.16327">
        <ele>918.8</ele>
        <time>2021-08-01T12:41:18Z</time>
      </trkpt>
      <trkpt lat="48.50975" lon="7.16312">
        <ele>907.7</ele>
        <time>2021-08-01T12:43:28Z</time>
      </trkpt>
      <trkpt lat="48.50971" lon="7.16305">
        <ele>906.7</ele>
        <time>2021-08-01T12:43:30Z</time>
      </trkpt>
      <trkpt lat="48.50965" lon="7.16301">
        <ele>905.8</ele>
        <time>2021-08-01T12:43:31Z</time>
      </trkpt>
      <trkpt lat="48.50963" lon="7.16299">
        <ele>905.5</ele>
        <time>2021-08-01T12:43:32Z</time>
      </trkpt>
      <trkpt lat="48.50958" lon="7.16297">
        <ele>905</ele>
        <time>2021-08-01T12:43:34Z</time>
      </trkpt>
      <trkpt lat="48.50955" lon="7.16296">
        <ele>904.7</ele>
        <time>2021-08-01T12:43:35Z</time>
      </trkpt>
      <trkpt lat="48.50951" lon="7.16293">
        <ele>904.4</ele>
        <time>2021-08-01T12:43:37Z</time>
      </trkpt>
      <trkpt lat="48.5095" lon="7.16292">
        <ele>904.3</ele>
        <time>2021-08-01T12:43:38Z</time>
      </trkpt>
      <trkpt lat="48.50949" lon="7.1629">
        <ele>904.2</ele>
        <time>2021-08-01T12:43:40Z</time>
      </trkpt>
      <trkpt lat="48.50948" lon="7.1629">
        <ele>904.2</ele>
        <time>2021-08-01T12:43:41Z</time>
      </trkpt>
      <trkpt lat="48.50948" lon="7.1629">
        <ele>904.1</ele>
        <time>2021-08-01T12:43:42Z</time>
      </trkpt>
      <trkpt lat="48.50947" lon="7.1629">
        <ele>904.1</ele>
        <time>2021-08-01T12:43:43Z</time>
      </trkpt>
      <trkpt lat="48.50947" lon="7.1629">
        <ele>904.1</ele>
        <time>2021-08-01T12:43:44Z</time>
      </trkpt>
      <trkpt lat="48.50946" lon="7.1629">
        <ele>904</ele>
        <time>2021-08-01T12:43:46Z</time>
      </trkpt>
      <trkpt lat="48.50946" lon="7.1629">
        <ele>904</ele>
        <time>2021-08-01T12:43:48Z</time>
      </trkpt>
      <trkpt lat="48.50923" lon="7.16282">
        <ele>902.2</ele>
        <time>2021-08-01T12:44:14Z</time>
      </trkpt>
      <trkpt lat="48.5092" lon="7.1628">
        <ele>901.9</ele>
        <time>2021-08-01T12:44:15Z</time>
      </trkpt>
      <trkpt lat="48.50918" lon="7.1628">
        <ele>901.7</ele>
        <time>2021-08-01T12:44:17Z</time>
      </trkpt>
      <trkpt lat="48.50917" lon="7.16279">
        <ele>901.6</ele>
        <time>2021-08-01T12:44:18Z</time>
      </trkpt>
      <trkpt lat="48.50916" lon="7.16279">
        <ele>901.4</ele>
        <time>2021-08-01T12:44:20Z</time>
      </trkpt>
      <trkpt lat="48.50915" lon="7.16278">
        <ele>901.3</ele>
        <time>2021-08-01T12:44:21Z</time>
      </trkpt>
      <trkpt lat="48.50915" lon="7.16278">
        <ele>901.2</ele>
        <time>2021-08-01T12:44:22Z</time>
      </trkpt>
      <trkpt lat="48.50914" lon="7.16278">
        <ele>901.2</ele>
        <time>2021-08-01T12:44:23Z</time>
      </trkpt>
      <trkpt lat="48.50914" lon="7.16278">
        <ele>901.1</ele>
        <time>2021-08-01T12:44:25Z</time>
      </trkpt>
      <trkpt lat="48.50913" lon="7.16278">
        <ele>901.1</ele>
        <time>2021-08-01T12:44:26Z</time>
      </trkpt>
      <trkpt lat="48.50913" lon="7.16278">
        <ele>901</ele>
        <time>2021-08-01T12:44:28Z</time>
      </trkpt>
      <trkpt lat="48.50913" lon="7.16278">
        <ele>901</ele>
        <time>2021-08-01T12:44:29Z</time>
      </trkpt>
      <trkpt lat="48.50913" lon="7.16278">
        <ele>901</ele>
        <time>2021-08-01T12:44:30Z</time>
      </trkpt>
      <trkpt lat="48.50913" lon="7.16278">
        <ele>900.9</ele>
        <time>2021-08-01T12:44:31Z</time>
      </trkpt>
      <trkpt lat="48.50912" lon="7.16278">
        <ele>900.9</ele>
        <time>2021-08-01T12:44:32Z</time>
      </trkpt>
      <trkpt lat="48.50912" lon="7.16278">
        <ele>900.9</ele>
        <time>2021-08-01T12:44:34Z</time>
      </trkpt>
      <trkpt lat="48.50912" lon="7.16278">
        <ele>900.9</ele>
        <time>2021-08-01T12:44:36Z</time>
      </trkpt>
      <trkpt lat="48.50912" lon="7.16278">
        <ele>900.8</ele>
        <time>2021-08-01T12:44:37Z</time>
      </trkpt>
      <trkpt lat="48.50912" lon="7.16278">
        <ele>900.8</ele>
        <time>2021-08-01T12:44:39Z</time>
      </trkpt>
      <trkpt lat="48.50912" lon="7.16277">
        <ele>900.6</ele>
        <time>2021-08-01T12:44:40Z</time>
      </trkpt>
      <trkpt lat="48.50911" lon="7.16272">
        <ele>900.1</ele>
        <time>2021-08-01T12:44:42Z</time>
      </trkpt>
      <trkpt lat="48.5091" lon="7.16269">
        <ele>899.7</ele>
        <time>2021-08-01T12:44:43Z</time>
      </trkpt>
      <trkpt lat="48.5091" lon="7.16266">
        <ele>899.4</ele>
        <time>2021-08-01T12:44:45Z</time>
      </trkpt>
      <trkpt lat="48.5091" lon="7.16265">
        <ele>899.3</ele>
        <time>2021-08-01T12:44:46Z</time>
      </trkpt>
      <trkpt lat="48.5091" lon="7.16263">
        <ele>899.2</ele>
        <time>2021-08-01T12:44:47Z</time>
      </trkpt>
      <trkpt lat="48.50908" lon="7.16263">
        <ele>899</ele>
        <time>2021-08-01T12:44:48Z</time>
      </trkpt>
      <trkpt lat="48.50907" lon="7.16263">
        <ele>898.7</ele>
        <time>2021-08-01T12:44:49Z</time>
      </trkpt>
      <trkpt lat="48.50906" lon="7.16264">
        <ele>898.6</ele>
        <time>2021-08-01T12:44:50Z</time>
      </trkpt>
      <trkpt lat="48.50904" lon="7.16265">
        <ele>898.2</ele>
        <time>2021-08-01T12:44:52Z</time>
      </trkpt>
      <trkpt lat="48.50902" lon="7.16266">
        <ele>898</ele>
        <time>2021-08-01T12:44:53Z</time>
      </trkpt>
      <trkpt lat="48.509" lon="7.16266">
        <ele>897.7</ele>
        <time>2021-08-01T12:44:55Z</time>
      </trkpt>
      <trkpt lat="48.50899" lon="7.16265">
        <ele>897.4</ele>
        <time>2021-08-01T12:44:56Z</time>
      </trkpt>
      <trkpt lat="48.50897" lon="7.16263">
        <ele>897.2</ele>
        <time>2021-08-01T12:44:58Z</time>
      </trkpt>
      <trkpt lat="48.50896" lon="7.16261">
        <ele>897</ele>
        <time>2021-08-01T12:44:59Z</time>
      </trkpt>
      <trkpt lat="48.50894" lon="7.16257">
        <ele>896.5</ele>
        <time>2021-08-01T12:45:01Z</time>
      </trkpt>
      <trkpt lat="48.50892" lon="7.16252">
        <ele>896</ele>
        <time>2021-08-01T12:45:03Z</time>
      </trkpt>
      <trkpt lat="48.50891" lon="7.16251">
        <ele>895.9</ele>
        <time>2021-08-01T12:45:04Z</time>
      </trkpt>
      <trkpt lat="48.50889" lon="7.16247">
        <ele>895.5</ele>
        <time>2021-08-01T12:45:06Z</time>
      </trkpt>
      <trkpt lat="48.50887" lon="7.16243">
        <ele>895.1</ele>
        <time>2021-08-01T12:45:07Z</time>
      </trkpt>
      <trkpt lat="48.50886" lon="7.16242">
        <ele>895</ele>
        <time>2021-08-01T12:45:08Z</time>
      </trkpt>
      <trkpt lat="48.50886" lon="7.16236">
        <ele>894.6</ele>
        <time>2021-08-01T12:45:10Z</time>
      </trkpt>
      <trkpt lat="48.50886" lon="7.16234">
        <ele>894.4</ele>
        <time>2021-08-01T12:45:11Z</time>
      </trkpt>
      <trkpt lat="48.50886" lon="7.16232">
        <ele>894.3</ele>
        <time>2021-08-01T12:45:12Z</time>
      </trkpt>
      <trkpt lat="48.50885" lon="7.16231">
        <ele>894.2</ele>
        <time>2021-08-01T12:45:13Z</time>
      </trkpt>
      <trkpt lat="48.50884" lon="7.16229">
        <ele>894</ele>
        <time>2021-08-01T12:45:14Z</time>
      </trkpt>
      <trkpt lat="48.50882" lon="7.16227">
        <ele>893.8</ele>
        <time>2021-08-01T12:45:16Z</time>
      </trkpt>
      <trkpt lat="48.5088" lon="7.16226">
        <ele>893.6</ele>
        <time>2021-08-01T12:45:17Z</time>
      </trkpt>
      <trkpt lat="48.5088" lon="7.16225">
        <ele>893.5</ele>
        <time>2021-08-01T12:45:19Z</time>
      </trkpt>
      <trkpt lat="48.50879" lon="7.16225">
        <ele>893.5</ele>
        <time>2021-08-01T12:45:20Z</time>
      </trkpt>
      <trkpt lat="48.50879" lon="7.16224">
        <ele>893.4</ele>
        <time>2021-08-01T12:45:21Z</time>
      </trkpt>
      <trkpt lat="48.50878" lon="7.16222">
        <ele>893.3</ele>
        <time>2021-08-01T12:45:23Z</time>
      </trkpt>
      <trkpt lat="48.50878" lon="7.16219">
        <ele>893.1</ele>
        <time>2021-08-01T12:45:24Z</time>
      </trkpt>
      <trkpt lat="48.50882" lon="7.16207">
        <ele>892.3</ele>
        <time>2021-08-01T12:45:27Z</time>
      </trkpt>
      <trkpt lat="48.50881" lon="7.16196">
        <ele>891.8</ele>
        <time>2021-08-01T12:45:29Z</time>
      </trkpt>
      <trkpt lat="48.50882" lon="7.16193">
        <ele>891.6</ele>
        <time>2021-08-01T12:45:30Z</time>
      </trkpt>
      <trkpt lat="48.50883" lon="7.16187">
        <ele>891.3</ele>
        <time>2021-08-01T12:45:32Z</time>
      </trkpt>
      <trkpt lat="48.50883" lon="7.16184">
        <ele>890.9</ele>
        <time>2021-08-01T12:45:33Z</time>
      </trkpt>
      <trkpt lat="48.50883" lon="7.16182">
        <ele>890.7</ele>
        <time>2021-08-01T12:45:35Z</time>
      </trkpt>
      <trkpt lat="48.50884" lon="7.1618">
        <ele>890.5</ele>
        <time>2021-08-01T12:45:36Z</time>
      </trkpt>
      <trkpt lat="48.50884" lon="7.16179">
        <ele>890.2</ele>
        <time>2021-08-01T12:45:38Z</time>
      </trkpt>
      <trkpt lat="48.50885" lon="7.16177">
        <ele>890</ele>
        <time>2021-08-01T12:45:40Z</time>
      </trkpt>
      <trkpt lat="48.50886" lon="7.16176">
        <ele>889.8</ele>
        <time>2021-08-01T12:45:41Z</time>
      </trkpt>
      <trkpt lat="48.50886" lon="7.16176">
        <ele>889.7</ele>
        <time>2021-08-01T12:45:42Z</time>
      </trkpt>
      <trkpt lat="48.50887" lon="7.16175">
        <ele>889.6</ele>
        <time>2021-08-01T12:45:44Z</time>
      </trkpt>
      <trkpt lat="48.50887" lon="7.16175">
        <ele>889.6</ele>
        <time>2021-08-01T12:45:45Z</time>
      </trkpt>
      <trkpt lat="48.50883" lon="7.16157">
        <ele>887.1</ele>
        <time>2021-08-01T12:46:44Z</time>
      </trkpt>
      <trkpt lat="48.50875" lon="7.16144">
        <ele>884.8</ele>
        <time>2021-08-01T12:46:46Z</time>
      </trkpt>
      <trkpt lat="48.50872" lon="7.16137">
        <ele>883.9</ele>
        <time>2021-08-01T12:46:47Z</time>
      </trkpt>
      <trkpt lat="48.50869" lon="7.1613">
        <ele>883</ele>
        <time>2021-08-01T12:46:48Z</time>
      </trkpt>
      <trkpt lat="48.50866" lon="7.1612">
        <ele>881.8</ele>
        <time>2021-08-01T12:46:50Z</time>
      </trkpt>
      <trkpt lat="48.50865" lon="7.16113">
        <ele>881.2</ele>
        <time>2021-08-01T12:46:51Z</time>
      </trkpt>
      <trkpt lat="48.50864" lon="7.16104">
        <ele>880.4</ele>
        <time>2021-08-01T12:46:53Z</time>
      </trkpt>
      <trkpt lat="48.50863" lon="7.16095">
        <ele>879.7</ele>
        <time>2021-08-01T12:46:55Z</time>
      </trkpt>
      <trkpt lat="48.50862" lon="7.1609">
        <ele>879.2</ele>
        <time>2021-08-01T12:46:56Z</time>
      </trkpt>
      <trkpt lat="48.50861" lon="7.16084">
        <ele>879.1</ele>
        <time>2021-08-01T12:46:57Z</time>
      </trkpt>
      <trkpt lat="48.50859" lon="7.16078">
        <ele>879.1</ele>
        <time>2021-08-01T12:46:59Z</time>
      </trkpt>
      <trkpt lat="48.50857" lon="7.16072">
        <ele>879</ele>
        <time>2021-08-01T12:47:00Z</time>
      </trkpt>
      <trkpt lat="48.50856" lon="7.16067">
        <ele>879</ele>
        <time>2021-08-01T12:47:01Z</time>
      </trkpt>
      <trkpt lat="48.50855" lon="7.16064">
        <ele>878.9</ele>
        <time>2021-08-01T12:47:02Z</time>
      </trkpt>
      <trkpt lat="48.50855" lon="7.16058">
        <ele>878.8</ele>
        <time>2021-08-01T12:47:04Z</time>
      </trkpt>
      <trkpt lat="48.50855" lon="7.16053">
        <ele>878.8</ele>
        <time>2021-08-01T12:47:06Z</time>
      </trkpt>
      <trkpt lat="48.50854" lon="7.16049">
        <ele>878.7</ele>
        <time>2021-08-01T12:47:07Z</time>
      </trkpt>
      <trkpt lat="48.50854" lon="7.16043">
        <ele>878.7</ele>
        <time>2021-08-01T12:47:09Z</time>
      </trkpt>
      <trkpt lat="48.50853" lon="7.1604">
        <ele>878.6</ele>
        <time>2021-08-01T12:47:10Z</time>
      </trkpt>
      <trkpt lat="48.5085" lon="7.16036">
        <ele>878.4</ele>
        <time>2021-08-01T12:47:12Z</time>
      </trkpt>
      <trkpt lat="48.50848" lon="7.16034">
        <ele>878.3</ele>
        <time>2021-08-01T12:47:13Z</time>
      </trkpt>
      <trkpt lat="48.50847" lon="7.16034">
        <ele>878.2</ele>
        <time>2021-08-01T12:47:14Z</time>
      </trkpt>
      <trkpt lat="48.50847" lon="7.16037">
        <ele>878.1</ele>
        <time>2021-08-01T12:47:16Z</time>
      </trkpt>
      <trkpt lat="48.50848" lon="7.16038">
        <ele>878.1</ele>
        <time>2021-08-01T12:47:17Z</time>
      </trkpt>
      <trkpt lat="48.50847" lon="7.16038">
        <ele>878</ele>
        <time>2021-08-01T12:47:18Z</time>
      </trkpt>
      <trkpt lat="48.50847" lon="7.16037">
        <ele>878</ele>
        <time>2021-08-01T12:47:19Z</time>
      </trkpt>
      <trkpt lat="48.50846" lon="7.16037">
        <ele>877.9</ele>
        <time>2021-08-01T12:47:21Z</time>
      </trkpt>
      <trkpt lat="48.50845" lon="7.16037">
        <ele>877.9</ele>
        <time>2021-08-01T12:47:22Z</time>
      </trkpt>
      <trkpt lat="48.50845" lon="7.16037">
        <ele>877.8</ele>
        <time>2021-08-01T12:47:24Z</time>
      </trkpt>
      <trkpt lat="48.50844" lon="7.16036">
        <ele>877.8</ele>
        <time>2021-08-01T12:47:25Z</time>
      </trkpt>
      <trkpt lat="48.50844" lon="7.16035">
        <ele>877.7</ele>
        <time>2021-08-01T12:47:26Z</time>
      </trkpt>
      <trkpt lat="48.50844" lon="7.16032">
        <ele>877.5</ele>
        <time>2021-08-01T12:47:28Z</time>
      </trkpt>
      <trkpt lat="48.50844" lon="7.16031">
        <ele>877.5</ele>
        <time>2021-08-01T12:47:29Z</time>
      </trkpt>
      <trkpt lat="48.50857" lon="7.15996">
        <ele>874.2</ele>
        <time>2021-08-01T12:48:35Z</time>
      </trkpt>
      <trkpt lat="48.50855" lon="7.15991">
        <ele>873.8</ele>
        <time>2021-08-01T12:48:36Z</time>
      </trkpt>
      <trkpt lat="48.50854" lon="7.15984">
        <ele>873.2</ele>
        <time>2021-08-01T12:48:38Z</time>
      </trkpt>
      <trkpt lat="48.5085" lon="7.15979">
        <ele>872.7</ele>
        <time>2021-08-01T12:48:39Z</time>
      </trkpt>
      <trkpt lat="48.50848" lon="7.15975">
        <ele>872.4</ele>
        <time>2021-08-01T12:48:40Z</time>
      </trkpt>
      <trkpt lat="48.50849" lon="7.15968">
        <ele>871.9</ele>
        <time>2021-08-01T12:48:42Z</time>
      </trkpt>
      <trkpt lat="48.5085" lon="7.15964">
        <ele>871.6</ele>
        <time>2021-08-01T12:48:43Z</time>
      </trkpt>
      <trkpt lat="48.50851" lon="7.15959">
        <ele>871.4</ele>
        <time>2021-08-01T12:48:44Z</time>
      </trkpt>
      <trkpt lat="48.50854" lon="7.15954">
        <ele>871</ele>
        <time>2021-08-01T12:48:46Z</time>
      </trkpt>
      <trkpt lat="48.50855" lon="7.15949">
        <ele>870.7</ele>
        <time>2021-08-01T12:48:47Z</time>
      </trkpt>
      <trkpt lat="48.50856" lon="7.15947">
        <ele>870.6</ele>
        <time>2021-08-01T12:48:48Z</time>
      </trkpt>
      <trkpt lat="48.50859" lon="7.15943">
        <ele>870.3</ele>
        <time>2021-08-01T12:48:49Z</time>
      </trkpt>
      <trkpt lat="48.50861" lon="7.1594">
        <ele>870.1</ele>
        <time>2021-08-01T12:48:50Z</time>
      </trkpt>
      <trkpt lat="48.50863" lon="7.15937">
        <ele>869.8</ele>
        <time>2021-08-01T12:48:52Z</time>
      </trkpt>
      <trkpt lat="48.50868" lon="7.15932">
        <ele>869.4</ele>
        <time>2021-08-01T12:48:54Z</time>
      </trkpt>
      <trkpt lat="48.50868" lon="7.15931">
        <ele>869.3</ele>
        <time>2021-08-01T12:48:56Z</time>
      </trkpt>
      <trkpt lat="48.50869" lon="7.15931">
        <ele>869.2</ele>
        <time>2021-08-01T12:48:57Z</time>
      </trkpt>
      <trkpt lat="48.5087" lon="7.15931">
        <ele>869.1</ele>
        <time>2021-08-01T12:48:59Z</time>
      </trkpt>
      <trkpt lat="48.50871" lon="7.15931">
        <ele>869</ele>
        <time>2021-08-01T12:49:00Z</time>
      </trkpt>
      <trkpt lat="48.50872" lon="7.1593">
        <ele>869</ele>
        <time>2021-08-01T12:49:01Z</time>
      </trkpt>
      <trkpt lat="48.50872" lon="7.1593">
        <ele>868.9</ele>
        <time>2021-08-01T12:49:03Z</time>
      </trkpt>
      <trkpt lat="48.50872" lon="7.15928">
        <ele>868.9</ele>
        <time>2021-08-01T12:49:04Z</time>
      </trkpt>
      <trkpt lat="48.50874" lon="7.1592">
        <ele>868.3</ele>
        <time>2021-08-01T12:49:09Z</time>
      </trkpt>
      <trkpt lat="48.50876" lon="7.15915">
        <ele>867.9</ele>
        <time>2021-08-01T12:49:10Z</time>
      </trkpt>
      <trkpt lat="48.50878" lon="7.15912">
        <ele>867.6</ele>
        <time>2021-08-01T12:49:11Z</time>
      </trkpt>
      <trkpt lat="48.50882" lon="7.15908">
        <ele>867.2</ele>
        <time>2021-08-01T12:49:13Z</time>
      </trkpt>
      <trkpt lat="48.50885" lon="7.15905">
        <ele>866.7</ele>
        <time>2021-08-01T12:49:14Z</time>
      </trkpt>
      <trkpt lat="48.5089" lon="7.15904">
        <ele>866.3</ele>
        <time>2021-08-01T12:49:16Z</time>
      </trkpt>
      <trkpt lat="48.50893" lon="7.15902">
        <ele>865.9</ele>
        <time>2021-08-01T12:49:17Z</time>
      </trkpt>
      <trkpt lat="48.50894" lon="7.15896">
        <ele>865.6</ele>
        <time>2021-08-01T12:49:18Z</time>
      </trkpt>
      <trkpt lat="48.50894" lon="7.15895">
        <ele>865.5</ele>
        <time>2021-08-01T12:49:19Z</time>
      </trkpt>
      <trkpt lat="48.50893" lon="7.15891">
        <ele>865.3</ele>
        <time>2021-08-01T12:49:21Z</time>
      </trkpt>
      <trkpt lat="48.50893" lon="7.1589">
        <ele>865.2</ele>
        <time>2021-08-01T12:49:22Z</time>
      </trkpt>
      <trkpt lat="48.50893" lon="7.1589">
        <ele>865.1</ele>
        <time>2021-08-01T12:49:23Z</time>
      </trkpt>
      <trkpt lat="48.50893" lon="7.15889">
        <ele>865.1</ele>
        <time>2021-08-01T12:49:24Z</time>
      </trkpt>
      <trkpt lat="48.50891" lon="7.15883">
        <ele>864.7</ele>
        <time>2021-08-01T12:49:26Z</time>
      </trkpt>
      <trkpt lat="48.5089" lon="7.15878">
        <ele>864.4</ele>
        <time>2021-08-01T12:49:27Z</time>
      </trkpt>
      <trkpt lat="48.50891" lon="7.15874">
        <ele>864.1</ele>
        <time>2021-08-01T12:49:28Z</time>
      </trkpt>
      <trkpt lat="48.50892" lon="7.15873">
        <ele>863.9</ele>
        <time>2021-08-01T12:49:29Z</time>
      </trkpt>
      <trkpt lat="48.50894" lon="7.1587">
        <ele>863.6</ele>
        <time>2021-08-01T12:49:31Z</time>
      </trkpt>
      <trkpt lat="48.50895" lon="7.15868">
        <ele>863.4</ele>
        <time>2021-08-01T12:49:32Z</time>
      </trkpt>
      <trkpt lat="48.50897" lon="7.15863">
        <ele>863</ele>
        <time>2021-08-01T12:49:33Z</time>
      </trkpt>
      <trkpt lat="48.50898" lon="7.15856">
        <ele>862.4</ele>
        <time>2021-08-01T12:49:35Z</time>
      </trkpt>
      <trkpt lat="48.50898" lon="7.15854">
        <ele>862.1</ele>
        <time>2021-08-01T12:49:36Z</time>
      </trkpt>
      <trkpt lat="48.50898" lon="7.1585">
        <ele>861.8</ele>
        <time>2021-08-01T12:49:38Z</time>
      </trkpt>
      <trkpt lat="48.50899" lon="7.15848">
        <ele>861.6</ele>
        <time>2021-08-01T12:49:39Z</time>
      </trkpt>
      <trkpt lat="48.509" lon="7.15847">
        <ele>861.4</ele>
        <time>2021-08-01T12:49:40Z</time>
      </trkpt>
      <trkpt lat="48.50901" lon="7.15846">
        <ele>861.3</ele>
        <time>2021-08-01T12:49:41Z</time>
      </trkpt>
      <trkpt lat="48.50902" lon="7.15843">
        <ele>861</ele>
        <time>2021-08-01T12:49:43Z</time>
      </trkpt>
      <trkpt lat="48.50902" lon="7.15841">
        <ele>860.8</ele>
        <time>2021-08-01T12:49:45Z</time>
      </trkpt>
      <trkpt lat="48.50903" lon="7.15839">
        <ele>860.7</ele>
        <time>2021-08-01T12:49:47Z</time>
      </trkpt>
      <trkpt lat="48.50904" lon="7.15839">
        <ele>860.6</ele>
        <time>2021-08-01T12:49:48Z</time>
      </trkpt>
      <trkpt lat="48.50906" lon="7.1584">
        <ele>860.3</ele>
        <time>2021-08-01T12:49:50Z</time>
      </trkpt>
      <trkpt lat="48.5091" lon="7.15839">
        <ele>859.7</ele>
        <time>2021-08-01T12:49:55Z</time>
      </trkpt>
      <trkpt lat="48.50914" lon="7.15844">
        <ele>859.1</ele>
        <time>2021-08-01T12:49:57Z</time>
      </trkpt>
      <trkpt lat="48.50921" lon="7.15856">
        <ele>857.7</ele>
        <time>2021-08-01T12:49:59Z</time>
      </trkpt>
      <trkpt lat="48.50923" lon="7.1586">
        <ele>857.3</ele>
        <time>2021-08-01T12:50:00Z</time>
      </trkpt>
      <trkpt lat="48.50924" lon="7.15849">
        <ele>856.3</ele>
        <time>2021-08-01T12:50:02Z</time>
      </trkpt>
      <trkpt lat="48.50924" lon="7.15837">
        <ele>855.4</ele>
        <time>2021-08-01T12:50:03Z</time>
      </trkpt>
      <trkpt lat="48.50925" lon="7.15825">
        <ele>854.4</ele>
        <time>2021-08-01T12:50:05Z</time>
      </trkpt>
      <trkpt lat="48.50925" lon="7.15814">
        <ele>853.4</ele>
        <time>2021-08-01T12:50:07Z</time>
      </trkpt>
      <trkpt lat="48.50926" lon="7.15802">
        <ele>851.2</ele>
        <time>2021-08-01T12:51:10Z</time>
      </trkpt>
      <trkpt lat="48.50926" lon="7.15791">
        <ele>849.8</ele>
        <time>2021-08-01T12:51:11Z</time>
      </trkpt>
      <trkpt lat="48.50926" lon="7.15782">
        <ele>848.3</ele>
        <time>2021-08-01T12:51:12Z</time>
      </trkpt>
      <trkpt lat="48.50926" lon="7.15772">
        <ele>845.9</ele>
        <time>2021-08-01T12:51:14Z</time>
      </trkpt>
      <trkpt lat="48.50926" lon="7.15767">
        <ele>844.9</ele>
        <time>2021-08-01T12:51:15Z</time>
      </trkpt>
      <trkpt lat="48.50925" lon="7.15763">
        <ele>844</ele>
        <time>2021-08-01T12:51:16Z</time>
      </trkpt>
      <trkpt lat="48.50922" lon="7.15758">
        <ele>843</ele>
        <time>2021-08-01T12:51:18Z</time>
      </trkpt>
      <trkpt lat="48.50921" lon="7.15753">
        <ele>841.9</ele>
        <time>2021-08-01T12:51:19Z</time>
      </trkpt>
      <trkpt lat="48.50921" lon="7.15752">
        <ele>841.7</ele>
        <time>2021-08-01T12:51:20Z</time>
      </trkpt>
      <trkpt lat="48.50921" lon="7.15747">
        <ele>840.7</ele>
        <time>2021-08-01T12:51:22Z</time>
      </trkpt>
      <trkpt lat="48.50921" lon="7.15746">
        <ele>839.7</ele>
        <time>2021-08-01T12:51:23Z</time>
      </trkpt>
      <trkpt lat="48.50921" lon="7.15743">
        <ele>839.4</ele>
        <time>2021-08-01T12:51:24Z</time>
      </trkpt>
      <trkpt lat="48.50921" lon="7.15741">
        <ele>838.4</ele>
        <time>2021-08-01T12:51:25Z</time>
      </trkpt>
      <trkpt lat="48.50921" lon="7.1574">
        <ele>838.1</ele>
        <time>2021-08-01T12:51:27Z</time>
      </trkpt>
      <trkpt lat="48.5092" lon="7.15738">
        <ele>837.8</ele>
        <time>2021-08-01T12:51:29Z</time>
      </trkpt>
      <trkpt lat="48.5092" lon="7.15736">
        <ele>836.8</ele>
        <time>2021-08-01T12:51:30Z</time>
      </trkpt>
      <trkpt lat="48.50917" lon="7.15723">
        <ele>834</ele>
        <time>2021-08-01T12:51:31Z</time>
      </trkpt>
      <trkpt lat="48.50914" lon="7.15711">
        <ele>833</ele>
        <time>2021-08-01T12:51:32Z</time>
      </trkpt>
      <trkpt lat="48.50912" lon="7.15699">
        <ele>832</ele>
        <time>2021-08-01T12:51:34Z</time>
      </trkpt>
      <trkpt lat="48.50909" lon="7.15688">
        <ele>830.9</ele>
        <time>2021-08-01T12:52:33Z</time>
      </trkpt>
      <trkpt lat="48.50906" lon="7.15676">
        <ele>829.8</ele>
        <time>2021-08-01T12:52:34Z</time>
      </trkpt>
      <trkpt lat="48.50903" lon="7.15672">
        <ele>829.2</ele>
        <time>2021-08-01T12:52:36Z</time>
      </trkpt>
      <trkpt lat="48.50899" lon="7.15667">
        <ele>828.6</ele>
        <time>2021-08-01T12:52:37Z</time>
      </trkpt>
      <trkpt lat="48.50895" lon="7.15662">
        <ele>827.9</ele>
        <time>2021-08-01T12:52:38Z</time>
      </trkpt>
      <trkpt lat="48.50891" lon="7.15658">
        <ele>827.2</ele>
        <time>2021-08-01T12:52:39Z</time>
      </trkpt>
      <trkpt lat="48.50887" lon="7.15654">
        <ele>826.7</ele>
        <time>2021-08-01T12:52:40Z</time>
      </trkpt>
      <trkpt lat="48.50884" lon="7.15649">
        <ele>826</ele>
        <time>2021-08-01T12:52:42Z</time>
      </trkpt>
      <trkpt lat="48.50879" lon="7.15644">
        <ele>825.3</ele>
        <time>2021-08-01T12:52:44Z</time>
      </trkpt>
      <trkpt lat="48.50877" lon="7.15642">
        <ele>825</ele>
        <time>2021-08-01T12:52:45Z</time>
      </trkpt>
      <trkpt lat="48.50877" lon="7.1564">
        <ele>824.8</ele>
        <time>2021-08-01T12:52:46Z</time>
      </trkpt>
      <trkpt lat="48.50877" lon="7.15638">
        <ele>824.6</ele>
        <time>2021-08-01T12:52:47Z</time>
      </trkpt>
      <trkpt lat="48.50875" lon="7.15637">
        <ele>824.4</ele>
        <time>2021-08-01T12:52:49Z</time>
      </trkpt>
      <trkpt lat="48.50873" lon="7.15635">
        <ele>824.1</ele>
        <time>2021-08-01T12:52:50Z</time>
      </trkpt>
      <trkpt lat="48.5087" lon="7.1563">
        <ele>823.5</ele>
        <time>2021-08-01T12:52:52Z</time>
      </trkpt>
      <trkpt lat="48.50868" lon="7.15626">
        <ele>823</ele>
        <time>2021-08-01T12:52:53Z</time>
      </trkpt>
      <trkpt lat="48.50868" lon="7.15624">
        <ele>822.8</ele>
        <time>2021-08-01T12:52:54Z</time>
      </trkpt>
      <trkpt lat="48.50866" lon="7.15621">
        <ele>822.4</ele>
        <time>2021-08-01T12:52:56Z</time>
      </trkpt>
      <trkpt lat="48.50864" lon="7.15617">
        <ele>821.9</ele>
        <time>2021-08-01T12:52:57Z</time>
      </trkpt>
      <trkpt lat="48.50863" lon="7.15614">
        <ele>821.6</ele>
        <time>2021-08-01T12:52:58Z</time>
      </trkpt>
      <trkpt lat="48.50862" lon="7.15612">
        <ele>821.4</ele>
        <time>2021-08-01T12:53:00Z</time>
      </trkpt>
      <trkpt lat="48.50861" lon="7.15607">
        <ele>820.9</ele>
        <time>2021-08-01T12:53:01Z</time>
      </trkpt>
      <trkpt lat="48.50861" lon="7.15606">
        <ele>820.7</ele>
        <time>2021-08-01T12:53:02Z</time>
      </trkpt>
      <trkpt lat="48.50859" lon="7.15603">
        <ele>820.4</ele>
        <time>2021-08-01T12:53:03Z</time>
      </trkpt>
      <trkpt lat="48.50858" lon="7.156">
        <ele>820.1</ele>
        <time>2021-08-01T12:53:05Z</time>
      </trkpt>
      <trkpt lat="48.50854" lon="7.15596">
        <ele>819.5</ele>
        <time>2021-08-01T12:53:06Z</time>
      </trkpt>
      <trkpt lat="48.50853" lon="7.15595">
        <ele>819.3</ele>
        <time>2021-08-01T12:53:07Z</time>
      </trkpt>
      <trkpt lat="48.50846" lon="7.15589">
        <ele>818.2</ele>
        <time>2021-08-01T12:53:09Z</time>
      </trkpt>
      <trkpt lat="48.50842" lon="7.15586">
        <ele>817.5</ele>
        <time>2021-08-01T12:53:10Z</time>
      </trkpt>
      <trkpt lat="48.50838" lon="7.15583">
        <ele>816.9</ele>
        <time>2021-08-01T12:53:11Z</time>
      </trkpt>
      <trkpt lat="48.50834" lon="7.15579">
        <ele>816.2</ele>
        <time>2021-08-01T12:53:12Z</time>
      </trkpt>
      <trkpt lat="48.5083" lon="7.15577">
        <ele>815.5</ele>
        <time>2021-08-01T12:53:14Z</time>
      </trkpt>
      <trkpt lat="48.50825" lon="7.15574">
        <ele>814.9</ele>
        <time>2021-08-01T12:53:15Z</time>
      </trkpt>
      <trkpt lat="48.50822" lon="7.1557">
        <ele>814.2</ele>
        <time>2021-08-01T12:53:16Z</time>
      </trkpt>
      <trkpt lat="48.50815" lon="7.15563">
        <ele>813.3</ele>
        <time>2021-08-01T12:53:18Z</time>
      </trkpt>
      <trkpt lat="48.50811" lon="7.15558">
        <ele>812.6</ele>
        <time>2021-08-01T12:53:19Z</time>
      </trkpt>
      <trkpt lat="48.50809" lon="7.15553">
        <ele>812.1</ele>
        <time>2021-08-01T12:53:20Z</time>
      </trkpt>
      <trkpt lat="48.50805" lon="7.15549">
        <ele>811.4</ele>
        <time>2021-08-01T12:53:21Z</time>
      </trkpt>
      <trkpt lat="48.50802" lon="7.15546">
        <ele>811</ele>
        <time>2021-08-01T12:53:22Z</time>
      </trkpt>
      <trkpt lat="48.50798" lon="7.1554">
        <ele>810.3</ele>
        <time>2021-08-01T12:53:24Z</time>
      </trkpt>
      <trkpt lat="48.50794" lon="7.15533">
        <ele>809.5</ele>
        <time>2021-08-01T12:53:25Z</time>
      </trkpt>
      <trkpt lat="48.50791" lon="7.15525">
        <ele>808.7</ele>
        <time>2021-08-01T12:53:26Z</time>
      </trkpt>
      <trkpt lat="48.50788" lon="7.15516">
        <ele>807.8</ele>
        <time>2021-08-01T12:53:28Z</time>
      </trkpt>
      <trkpt lat="48.50785" lon="7.1551">
        <ele>807.1</ele>
        <time>2021-08-01T12:53:29Z</time>
      </trkpt>
      <trkpt lat="48.50782" lon="7.15505">
        <ele>806.7</ele>
        <time>2021-08-01T12:53:30Z</time>
      </trkpt>
      <trkpt lat="48.50778" lon="7.15498">
        <ele>805.9</ele>
        <time>2021-08-01T12:53:32Z</time>
      </trkpt>
      <trkpt lat="48.50772" lon="7.15492">
        <ele>805.2</ele>
        <time>2021-08-01T12:53:33Z</time>
      </trkpt>
      <trkpt lat="48.50767" lon="7.15487">
        <ele>804.6</ele>
        <time>2021-08-01T12:53:34Z</time>
      </trkpt>
      <trkpt lat="48.50764" lon="7.15485">
        <ele>803.3</ele>
        <time>2021-08-01T12:53:35Z</time>
      </trkpt>
      <trkpt lat="48.50758" lon="7.15484">
        <ele>802.3</ele>
        <time>2021-08-01T12:53:37Z</time>
      </trkpt>
      <trkpt lat="48.50757" lon="7.15482">
        <ele>802</ele>
        <time>2021-08-01T12:53:38Z</time>
      </trkpt>
      <trkpt lat="48.50756" lon="7.15481">
        <ele>801.8</ele>
        <time>2021-08-01T12:53:40Z</time>
      </trkpt>
      <trkpt lat="48.50756" lon="7.15479">
        <ele>801.6</ele>
        <time>2021-08-01T12:53:41Z</time>
      </trkpt>
      <trkpt lat="48.50753" lon="7.15474">
        <ele>800.8</ele>
        <time>2021-08-01T12:53:43Z</time>
      </trkpt>
      <trkpt lat="48.50749" lon="7.15468">
        <ele>799.8</ele>
        <time>2021-08-01T12:53:44Z</time>
      </trkpt>
      <trkpt lat="48.50742" lon="7.15462">
        <ele>798.6</ele>
        <time>2021-08-01T12:53:46Z</time>
      </trkpt>
      <trkpt lat="48.50738" lon="7.15458">
        <ele>798</ele>
        <time>2021-08-01T12:53:47Z</time>
      </trkpt>
      <trkpt lat="48.50734" lon="7.1545">
        <ele>797.6</ele>
        <time>2021-08-01T12:53:48Z</time>
      </trkpt>
      <trkpt lat="48.50731" lon="7.15444">
        <ele>796.9</ele>
        <time>2021-08-01T12:53:49Z</time>
      </trkpt>
      <trkpt lat="48.50727" lon="7.15437">
        <ele>795.9</ele>
        <time>2021-08-01T12:53:51Z</time>
      </trkpt>
      <trkpt lat="48.50725" lon="7.15433">
        <ele>795.3</ele>
        <time>2021-08-01T12:53:52Z</time>
      </trkpt>
      <trkpt lat="48.50723" lon="7.1543">
        <ele>794.8</ele>
        <time>2021-08-01T12:53:53Z</time>
      </trkpt>
      <trkpt lat="48.50722" lon="7.15429">
        <ele>794.5</ele>
        <time>2021-08-01T12:53:54Z</time>
      </trkpt>
      <trkpt lat="48.50722" lon="7.15427">
        <ele>794.3</ele>
        <time>2021-08-01T12:53:56Z</time>
      </trkpt>
      <trkpt lat="48.50722" lon="7.15427">
        <ele>794.3</ele>
        <time>2021-08-01T12:53:58Z</time>
      </trkpt>
      <trkpt lat="48.50722" lon="7.15426">
        <ele>794.3</ele>
        <time>2021-08-01T12:53:59Z</time>
      </trkpt>
      <trkpt lat="48.50718" lon="7.15423">
        <ele>793.5</ele>
        <time>2021-08-01T12:54:01Z</time>
      </trkpt>
      <trkpt lat="48.50714" lon="7.15419">
        <ele>792.7</ele>
        <time>2021-08-01T12:54:02Z</time>
      </trkpt>
      <trkpt lat="48.50711" lon="7.15415">
        <ele>791.9</ele>
        <time>2021-08-01T12:54:04Z</time>
      </trkpt>
      <trkpt lat="48.50707" lon="7.15412">
        <ele>791.1</ele>
        <time>2021-08-01T12:54:36Z</time>
      </trkpt>
      <trkpt lat="48.50704" lon="7.15408">
        <ele>790.3</ele>
        <time>2021-08-01T12:54:37Z</time>
      </trkpt>
      <trkpt lat="48.50698" lon="7.15397">
        <ele>788.5</ele>
        <time>2021-08-01T12:54:39Z</time>
      </trkpt>
      <trkpt lat="48.50694" lon="7.15388">
        <ele>787.2</ele>
        <time>2021-08-01T12:54:40Z</time>
      </trkpt>
      <trkpt lat="48.5069" lon="7.1538">
        <ele>786.1</ele>
        <time>2021-08-01T12:54:41Z</time>
      </trkpt>
      <trkpt lat="48.50681" lon="7.15371">
        <ele>784.6</ele>
        <time>2021-08-01T12:54:43Z</time>
      </trkpt>
      <trkpt lat="48.50674" lon="7.15362">
        <ele>783.4</ele>
        <time>2021-08-01T12:54:44Z</time>
      </trkpt>
      <trkpt lat="48.50666" lon="7.15348">
        <ele>782.1</ele>
        <time>2021-08-01T12:54:46Z</time>
      </trkpt>
      <trkpt lat="48.50661" lon="7.15338">
        <ele>781.3</ele>
        <time>2021-08-01T12:54:48Z</time>
      </trkpt>
      <trkpt lat="48.50657" lon="7.15332">
        <ele>780.8</ele>
        <time>2021-08-01T12:54:49Z</time>
      </trkpt>
      <trkpt lat="48.50655" lon="7.15323">
        <ele>780.3</ele>
        <time>2021-08-01T12:54:50Z</time>
      </trkpt>
      <trkpt lat="48.50652" lon="7.15307">
        <ele>779.4</ele>
        <time>2021-08-01T12:54:52Z</time>
      </trkpt>
      <trkpt lat="48.5065" lon="7.15289">
        <ele>778.3</ele>
        <time>2021-08-01T12:54:54Z</time>
      </trkpt>
      <trkpt lat="48.50651" lon="7.15277">
        <ele>777.6</ele>
        <time>2021-08-01T12:54:55Z</time>
      </trkpt>
      <trkpt lat="48.50652" lon="7.15265">
        <ele>776.9</ele>
        <time>2021-08-01T12:54:56Z</time>
      </trkpt>
      <trkpt lat="48.50652" lon="7.15245">
        <ele>775.7</ele>
        <time>2021-08-01T12:54:58Z</time>
      </trkpt>
      <trkpt lat="48.50651" lon="7.15229">
        <ele>774.8</ele>
        <time>2021-08-01T12:55:00Z</time>
      </trkpt>
      <trkpt lat="48.50651" lon="7.15219">
        <ele>774.1</ele>
        <time>2021-08-01T12:55:02Z</time>
      </trkpt>
      <trkpt lat="48.5065" lon="7.15205">
        <ele>773.1</ele>
        <time>2021-08-01T12:55:04Z</time>
      </trkpt>
      <trkpt lat="48.5065" lon="7.15198">
        <ele>772.5</ele>
        <time>2021-08-01T12:55:05Z</time>
      </trkpt>
      <trkpt lat="48.50646" lon="7.15178">
        <ele>770.7</ele>
        <time>2021-08-01T12:55:07Z</time>
      </trkpt>
      <trkpt lat="48.50644" lon="7.15166">
        <ele>769.5</ele>
        <time>2021-08-01T12:55:08Z</time>
      </trkpt>
      <trkpt lat="48.50639" lon="7.15151">
        <ele>767.9</ele>
        <time>2021-08-01T12:55:10Z</time>
      </trkpt>
      <trkpt lat="48.50638" lon="7.15143">
        <ele>767.1</ele>
        <time>2021-08-01T12:55:11Z</time>
      </trkpt>
      <trkpt lat="48.50636" lon="7.15137">
        <ele>766.4</ele>
        <time>2021-08-01T12:55:12Z</time>
      </trkpt>
      <trkpt lat="48.50635" lon="7.15127">
        <ele>765.4</ele>
        <time>2021-08-01T12:55:14Z</time>
      </trkpt>
      <trkpt lat="48.50635" lon="7.15118">
        <ele>764.6</ele>
        <time>2021-08-01T12:55:16Z</time>
      </trkpt>
      <trkpt lat="48.50634" lon="7.15115">
        <ele>764.2</ele>
        <time>2021-08-01T12:55:17Z</time>
      </trkpt>
      <trkpt lat="48.50634" lon="7.15104">
        <ele>763.2</ele>
        <time>2021-08-01T12:55:19Z</time>
      </trkpt>
      <trkpt lat="48.50632" lon="7.15097">
        <ele>762.3</ele>
        <time>2021-08-01T12:55:20Z</time>
      </trkpt>
      <trkpt lat="48.50629" lon="7.15083">
        <ele>760.8</ele>
        <time>2021-08-01T12:55:22Z</time>
      </trkpt>
      <trkpt lat="48.50627" lon="7.15075">
        <ele>759.7</ele>
        <time>2021-08-01T12:55:24Z</time>
      </trkpt>
      <trkpt lat="48.50627" lon="7.1507">
        <ele>759.1</ele>
        <time>2021-08-01T12:55:25Z</time>
      </trkpt>
      <trkpt lat="48.50627" lon="7.1506">
        <ele>757.7</ele>
        <time>2021-08-01T12:55:27Z</time>
      </trkpt>
      <trkpt lat="48.50629" lon="7.15055">
        <ele>756.9</ele>
        <time>2021-08-01T12:55:28Z</time>
      </trkpt>
      <trkpt lat="48.50631" lon="7.1505">
        <ele>756.2</ele>
        <time>2021-08-01T12:55:29Z</time>
      </trkpt>
      <trkpt lat="48.50631" lon="7.15046">
        <ele>755.6</ele>
        <time>2021-08-01T12:55:30Z</time>
      </trkpt>
      <trkpt lat="48.50631" lon="7.15038">
        <ele>754.5</ele>
        <time>2021-08-01T12:55:32Z</time>
      </trkpt>
      <trkpt lat="48.50631" lon="7.1503">
        <ele>753.2</ele>
        <time>2021-08-01T12:55:34Z</time>
      </trkpt>
      <trkpt lat="48.5063" lon="7.15015">
        <ele>751.1</ele>
        <time>2021-08-01T12:55:35Z</time>
      </trkpt>
      <trkpt lat="48.50629" lon="7.15007">
        <ele>749.9</ele>
        <time>2021-08-01T12:55:36Z</time>
      </trkpt>
      <trkpt lat="48.50629" lon="7.14998">
        <ele>748.7</ele>
        <time>2021-08-01T12:55:37Z</time>
      </trkpt>
      <trkpt lat="48.50629" lon="7.14989">
        <ele>747.7</ele>
        <time>2021-08-01T12:55:38Z</time>
      </trkpt>
      <trkpt lat="48.50628" lon="7.14976">
        <ele>746.2</ele>
        <time>2021-08-01T12:55:40Z</time>
      </trkpt>
      <trkpt lat="48.50628" lon="7.14969">
        <ele>745.4</ele>
        <time>2021-08-01T12:55:41Z</time>
      </trkpt>
      <trkpt lat="48.50628" lon="7.1496">
        <ele>744.3</ele>
        <time>2021-08-01T12:55:42Z</time>
      </trkpt>
      <trkpt lat="48.50628" lon="7.14937">
        <ele>742</ele>
        <time>2021-08-01T12:55:44Z</time>
      </trkpt>
      <trkpt lat="48.5063" lon="7.14911">
        <ele>739.4</ele>
        <time>2021-08-01T12:55:46Z</time>
      </trkpt>
      <trkpt lat="48.50633" lon="7.14898">
        <ele>737.3</ele>
        <time>2021-08-01T12:55:47Z</time>
      </trkpt>
      <trkpt lat="48.50639" lon="7.14865">
        <ele>732.3</ele>
        <time>2021-08-01T12:55:49Z</time>
      </trkpt>
      <trkpt lat="48.50642" lon="7.14848">
        <ele>729.8</ele>
        <time>2021-08-01T12:55:50Z</time>
      </trkpt>
      <trkpt lat="48.50647" lon="7.1482">
        <ele>725.8</ele>
        <time>2021-08-01T12:55:52Z</time>
      </trkpt>
      <trkpt lat="48.50649" lon="7.1481">
        <ele>724.3</ele>
        <time>2021-08-01T12:55:53Z</time>
      </trkpt>
      <trkpt lat="48.50651" lon="7.148">
        <ele>723</ele>
        <time>2021-08-01T12:55:54Z</time>
      </trkpt>
      <trkpt lat="48.50653" lon="7.14791">
        <ele>721.8</ele>
        <time>2021-08-01T12:55:55Z</time>
      </trkpt>
      <trkpt lat="48.50653" lon="7.14785">
        <ele>721</ele>
        <time>2021-08-01T12:55:56Z</time>
      </trkpt>
      <trkpt lat="48.50653" lon="7.14775">
        <ele>719.8</ele>
        <time>2021-08-01T12:55:58Z</time>
      </trkpt>
      <trkpt lat="48.50653" lon="7.14772">
        <ele>719.5</ele>
        <time>2021-08-01T12:55:59Z</time>
      </trkpt>
      <trkpt lat="48.50653" lon="7.14771">
        <ele>719.3</ele>
        <time>2021-08-01T12:56:00Z</time>
      </trkpt>
      <trkpt lat="48.50654" lon="7.1477">
        <ele>719.1</ele>
        <time>2021-08-01T12:56:02Z</time>
      </trkpt>
      <trkpt lat="48.50655" lon="7.1477">
        <ele>719</ele>
        <time>2021-08-01T12:56:04Z</time>
      </trkpt>
      <trkpt lat="48.50656" lon="7.14768">
        <ele>718.6</ele>
        <time>2021-08-01T12:56:05Z</time>
      </trkpt>
      <trkpt lat="48.50653" lon="7.14767">
        <ele>717.9</ele>
        <time>2021-08-01T12:56:06Z</time>
      </trkpt>
      <trkpt lat="48.50648" lon="7.14767">
        <ele>717</ele>
        <time>2021-08-01T12:56:07Z</time>
      </trkpt>
      <trkpt lat="48.50644" lon="7.14766">
        <ele>711.7</ele>
        <time>2021-08-01T12:56:08Z</time>
      </trkpt>
      <trkpt lat="48.50639" lon="7.14766">
        <ele>711.3</ele>
        <time>2021-08-01T12:56:10Z</time>
      </trkpt>
      <trkpt lat="48.50634" lon="7.14766">
        <ele>711</ele>
        <time>2021-08-01T12:56:42Z</time>
      </trkpt>
      <trkpt lat="48.5063" lon="7.14765">
        <ele>710.7</ele>
        <time>2021-08-01T12:56:44Z</time>
      </trkpt>
      <trkpt lat="48.50617" lon="7.14773">
        <ele>709.8</ele>
        <time>2021-08-01T12:56:46Z</time>
      </trkpt>
      <trkpt lat="48.50612" lon="7.14776">
        <ele>709.4</ele>
        <time>2021-08-01T12:56:47Z</time>
      </trkpt>
      <trkpt lat="48.50607" lon="7.14779">
        <ele>709.1</ele>
        <time>2021-08-01T12:56:48Z</time>
      </trkpt>
      <trkpt lat="48.50596" lon="7.14786">
        <ele>708.3</ele>
        <time>2021-08-01T12:56:50Z</time>
      </trkpt>
      <trkpt lat="48.50584" lon="7.14793">
        <ele>707.5</ele>
        <time>2021-08-01T12:56:52Z</time>
      </trkpt>
      <trkpt lat="48.50573" lon="7.14801">
        <ele>706.8</ele>
        <time>2021-08-01T12:56:54Z</time>
      </trkpt>
      <trkpt lat="48.50567" lon="7.14806">
        <ele>706.3</ele>
        <time>2021-08-01T12:56:56Z</time>
      </trkpt>
      <trkpt lat="48.50564" lon="7.14808">
        <ele>706.1</ele>
        <time>2021-08-01T12:56:57Z</time>
      </trkpt>
      <trkpt lat="48.50562" lon="7.14808">
        <ele>705.9</ele>
        <time>2021-08-01T12:56:59Z</time>
      </trkpt>
      <trkpt lat="48.50562" lon="7.14808">
        <ele>705.9</ele>
        <time>2021-08-01T12:57:00Z</time>
      </trkpt>
      <trkpt lat="48.50563" lon="7.14807">
        <ele>705.9</ele>
        <time>2021-08-01T12:57:01Z</time>
      </trkpt>
      <trkpt lat="48.50563" lon="7.14807">
        <ele>705.9</ele>
        <time>2021-08-01T12:57:03Z</time>
      </trkpt>
      <trkpt lat="48.50563" lon="7.14808">
        <ele>705.8</ele>
        <time>2021-08-01T12:57:04Z</time>
      </trkpt>
      <trkpt lat="48.50563" lon="7.14808">
        <ele>705.8</ele>
        <time>2021-08-01T12:57:05Z</time>
      </trkpt>
      <trkpt lat="48.50563" lon="7.14808">
        <ele>705.8</ele>
        <time>2021-08-01T12:57:07Z</time>
      </trkpt>
      <trkpt lat="48.50563" lon="7.14808">
        <ele>705.8</ele>
        <time>2021-08-01T12:57:09Z</time>
      </trkpt>
      <trkpt lat="48.50564" lon="7.14822">
        <ele>705.2</ele>
        <time>2021-08-01T12:57:43Z</time>
      </trkpt>
      <trkpt lat="48.50555" lon="7.14829">
        <ele>704.6</ele>
        <time>2021-08-01T12:57:45Z</time>
      </trkpt>
      <trkpt lat="48.50536" lon="7.14841">
        <ele>703.3</ele>
        <time>2021-08-01T12:57:47Z</time>
      </trkpt>
      <trkpt lat="48.50529" lon="7.14846">
        <ele>702.9</ele>
        <time>2021-08-01T12:57:48Z</time>
      </trkpt>
      <trkpt lat="48.50517" lon="7.14857">
        <ele>702</ele>
        <time>2021-08-01T12:57:50Z</time>
      </trkpt>
      <trkpt lat="48.50504" lon="7.14868">
        <ele>701</ele>
        <time>2021-08-01T12:57:52Z</time>
      </trkpt>
      <trkpt lat="48.50498" lon="7.14874">
        <ele>700.4</ele>
        <time>2021-08-01T12:57:53Z</time>
      </trkpt>
      <trkpt lat="48.50492" lon="7.1488">
        <ele>699.9</ele>
        <time>2021-08-01T12:57:54Z</time>
      </trkpt>
      <trkpt lat="48.50483" lon="7.14887">
        <ele>699.7</ele>
        <time>2021-08-01T12:57:56Z</time>
      </trkpt>
      <trkpt lat="48.50477" lon="7.1489">
        <ele>699.4</ele>
        <time>2021-08-01T12:57:58Z</time>
      </trkpt>
      <trkpt lat="48.50481" lon="7.1489">
        <ele>699.2</ele>
        <time>2021-08-01T12:57:59Z</time>
      </trkpt>
      <trkpt lat="48.5048" lon="7.1489">
        <ele>699.1</ele>
        <time>2021-08-01T12:58:00Z</time>
      </trkpt>
      <trkpt lat="48.50482" lon="7.14893">
        <ele>698.9</ele>
        <time>2021-08-01T12:58:01Z</time>
      </trkpt>
      <trkpt lat="48.50481" lon="7.14895">
        <ele>698.8</ele>
        <time>2021-08-01T12:58:03Z</time>
      </trkpt>
      <trkpt lat="48.50481" lon="7.14896">
        <ele>698.7</ele>
        <time>2021-08-01T12:58:04Z</time>
      </trkpt>
      <trkpt lat="48.5048" lon="7.14897">
        <ele>698.6</ele>
        <time>2021-08-01T12:58:05Z</time>
      </trkpt>
      <trkpt lat="48.50478" lon="7.14899">
        <ele>698.4</ele>
        <time>2021-08-01T12:58:07Z</time>
      </trkpt>
      <trkpt lat="48.50472" lon="7.14899">
        <ele>697.9</ele>
        <time>2021-08-01T12:58:08Z</time>
      </trkpt>
      <trkpt lat="48.50446" lon="7.14917">
        <ele>695.4</ele>
        <time>2021-08-01T12:58:41Z</time>
      </trkpt>
      <trkpt lat="48.50443" lon="7.14925">
        <ele>694.9</ele>
        <time>2021-08-01T12:58:43Z</time>
      </trkpt>
      <trkpt lat="48.50438" lon="7.14933">
        <ele>694.2</ele>
        <time>2021-08-01T12:58:45Z</time>
      </trkpt>
      <trkpt lat="48.50435" lon="7.1494">
        <ele>693.8</ele>
        <time>2021-08-01T12:58:46Z</time>
      </trkpt>
      <trkpt lat="48.50433" lon="7.14943">
        <ele>693.5</ele>
        <time>2021-08-01T12:58:47Z</time>
      </trkpt>
      <trkpt lat="48.50425" lon="7.14957">
        <ele>692.5</ele>
        <time>2021-08-01T12:58:49Z</time>
      </trkpt>
      <trkpt lat="48.50423" lon="7.14961">
        <ele>692.2</ele>
        <time>2021-08-01T12:58:50Z</time>
      </trkpt>
      <trkpt lat="48.50417" lon="7.14968">
        <ele>691.4</ele>
        <time>2021-08-01T12:58:52Z</time>
      </trkpt>
      <trkpt lat="48.50414" lon="7.14974">
        <ele>690.9</ele>
        <time>2021-08-01T12:58:54Z</time>
      </trkpt>
      <trkpt lat="48.50412" lon="7.14976">
        <ele>690.6</ele>
        <time>2021-08-01T12:58:55Z</time>
      </trkpt>
      <trkpt lat="48.50411" lon="7.14977">
        <ele>690.5</ele>
        <time>2021-08-01T12:58:56Z</time>
      </trkpt>
      <trkpt lat="48.50379" lon="7.15011">
        <ele>686.6</ele>
        <time>2021-08-01T12:59:04Z</time>
      </trkpt>
      <trkpt lat="48.50374" lon="7.1502">
        <ele>685.4</ele>
        <time>2021-08-01T12:59:05Z</time>
      </trkpt>
      <trkpt lat="48.50364" lon="7.15049">
        <ele>682.2</ele>
        <time>2021-08-01T12:59:07Z</time>
      </trkpt>
      <trkpt lat="48.50359" lon="7.15059">
        <ele>680.9</ele>
        <time>2021-08-01T12:59:08Z</time>
      </trkpt>
      <trkpt lat="48.50352" lon="7.15076">
        <ele>678.6</ele>
        <time>2021-08-01T12:59:10Z</time>
      </trkpt>
      <trkpt lat="48.50347" lon="7.1509">
        <ele>676.9</ele>
        <time>2021-08-01T12:59:12Z</time>
      </trkpt>
      <trkpt lat="48.50343" lon="7.15107">
        <ele>675.1</ele>
        <time>2021-08-01T12:59:14Z</time>
      </trkpt>
      <trkpt lat="48.50339" lon="7.15124">
        <ele>673.3</ele>
        <time>2021-08-01T12:59:16Z</time>
      </trkpt>
      <trkpt lat="48.50336" lon="7.15132">
        <ele>672.3</ele>
        <time>2021-08-01T12:59:17Z</time>
      </trkpt>
      <trkpt lat="48.50332" lon="7.15141">
        <ele>671.2</ele>
        <time>2021-08-01T12:59:18Z</time>
      </trkpt>
      <trkpt lat="48.50323" lon="7.15156">
        <ele>668.8</ele>
        <time>2021-08-01T12:59:20Z</time>
      </trkpt>
      <trkpt lat="48.50315" lon="7.15174">
        <ele>666.5</ele>
        <time>2021-08-01T12:59:22Z</time>
      </trkpt>
      <trkpt lat="48.50312" lon="7.15182">
        <ele>665.7</ele>
        <time>2021-08-01T12:59:23Z</time>
      </trkpt>
      <trkpt lat="48.5031" lon="7.15187">
        <ele>665.1</ele>
        <time>2021-08-01T12:59:24Z</time>
      </trkpt>
      <trkpt lat="48.50296" lon="7.15206">
        <ele>662.2</ele>
        <time>2021-08-01T12:59:26Z</time>
      </trkpt>
      <trkpt lat="48.50292" lon="7.15211">
        <ele>661.4</ele>
        <time>2021-08-01T12:59:27Z</time>
      </trkpt>
      <trkpt lat="48.5028" lon="7.1523">
        <ele>658.7</ele>
        <time>2021-08-01T12:59:29Z</time>
      </trkpt>
      <trkpt lat="48.50268" lon="7.15248">
        <ele>655.9</ele>
        <time>2021-08-01T12:59:31Z</time>
      </trkpt>
      <trkpt lat="48.50263" lon="7.15256">
        <ele>654.6</ele>
        <time>2021-08-01T12:59:32Z</time>
      </trkpt>
      <trkpt lat="48.50255" lon="7.15269">
        <ele>652.8</ele>
        <time>2021-08-01T12:59:34Z</time>
      </trkpt>
      <trkpt lat="48.50255" lon="7.1527">
        <ele>652.7</ele>
        <time>2021-08-01T12:59:35Z</time>
      </trkpt>
      <trkpt lat="48.50253" lon="7.15277">
        <ele>652</ele>
        <time>2021-08-01T12:59:37Z</time>
      </trkpt>
      <trkpt lat="48.50251" lon="7.15282">
        <ele>651.4</ele>
        <time>2021-08-01T12:59:38Z</time>
      </trkpt>
      <trkpt lat="48.50244" lon="7.15298">
        <ele>649.8</ele>
        <time>2021-08-01T12:59:40Z</time>
      </trkpt>
      <trkpt lat="48.50238" lon="7.15311">
        <ele>648.3</ele>
        <time>2021-08-01T12:59:41Z</time>
      </trkpt>
      <trkpt lat="48.50234" lon="7.15321">
        <ele>647.2</ele>
        <time>2021-08-01T12:59:43Z</time>
      </trkpt>
      <trkpt lat="48.50216" lon="7.15496">
        <ele>631.3</ele>
        <time>2021-08-01T12:59:59Z</time>
      </trkpt>
      <trkpt lat="48.5021" lon="7.15533">
        <ele>629</ele>
        <time>2021-08-01T13:00:01Z</time>
      </trkpt>
      <trkpt lat="48.50208" lon="7.15547">
        <ele>628.2</ele>
        <time>2021-08-01T13:00:02Z</time>
      </trkpt>
      <trkpt lat="48.50208" lon="7.15568">
        <ele>627</ele>
        <time>2021-08-01T13:00:04Z</time>
      </trkpt>
      <trkpt lat="48.50209" lon="7.15572">
        <ele>626.8</ele>
        <time>2021-08-01T13:00:05Z</time>
      </trkpt>
      <trkpt lat="48.5021" lon="7.15579">
        <ele>626.3</ele>
        <time>2021-08-01T13:00:06Z</time>
      </trkpt>
      <trkpt lat="48.50211" lon="7.15595">
        <ele>625.4</ele>
        <time>2021-08-01T13:00:08Z</time>
      </trkpt>
      <trkpt lat="48.50208" lon="7.15606">
        <ele>624.8</ele>
        <time>2021-08-01T13:00:10Z</time>
      </trkpt>
      <trkpt lat="48.50201" lon="7.15608">
        <ele>624.2</ele>
        <time>2021-08-01T13:00:12Z</time>
      </trkpt>
      <trkpt lat="48.50198" lon="7.1561">
        <ele>623.9</ele>
        <time>2021-08-01T13:00:14Z</time>
      </trkpt>
      <trkpt lat="48.50183" lon="7.15606">
        <ele>622.4</ele>
        <time>2021-08-01T13:00:19Z</time>
      </trkpt>
      <trkpt lat="48.5018" lon="7.15606">
        <ele>622</ele>
        <time>2021-08-01T13:00:20Z</time>
      </trkpt>
      <trkpt lat="48.50172" lon="7.15607">
        <ele>621</ele>
        <time>2021-08-01T13:00:22Z</time>
      </trkpt>
      <trkpt lat="48.50169" lon="7.15608">
        <ele>620.6</ele>
        <time>2021-08-01T13:00:23Z</time>
      </trkpt>
      <trkpt lat="48.50168" lon="7.15609">
        <ele>620.5</ele>
        <time>2021-08-01T13:00:24Z</time>
      </trkpt>
      <trkpt lat="48.50165" lon="7.1561">
        <ele>620</ele>
        <time>2021-08-01T13:00:25Z</time>
      </trkpt>
      <trkpt lat="48.50163" lon="7.15612">
        <ele>619.7</ele>
        <time>2021-08-01T13:00:26Z</time>
      </trkpt>
      <trkpt lat="48.50155" lon="7.15618">
        <ele>618.4</ele>
        <time>2021-08-01T13:00:28Z</time>
      </trkpt>
      <trkpt lat="48.50149" lon="7.15624">
        <ele>617.4</ele>
        <time>2021-08-01T13:00:29Z</time>
      </trkpt>
      <trkpt lat="48.50143" lon="7.1563">
        <ele>616.4</ele>
        <time>2021-08-01T13:00:30Z</time>
      </trkpt>
      <trkpt lat="48.50133" lon="7.15646">
        <ele>614.3</ele>
        <time>2021-08-01T13:00:32Z</time>
      </trkpt>
      <trkpt lat="48.50122" lon="7.15662">
        <ele>612.2</ele>
        <time>2021-08-01T13:00:34Z</time>
      </trkpt>
      <trkpt lat="48.50118" lon="7.15668">
        <ele>611.4</ele>
        <time>2021-08-01T13:00:35Z</time>
      </trkpt>
      <trkpt lat="48.50115" lon="7.15671">
        <ele>611</ele>
        <time>2021-08-01T13:00:36Z</time>
      </trkpt>
      <trkpt lat="48.50113" lon="7.15676">
        <ele>610.4</ele>
        <time>2021-08-01T13:00:38Z</time>
      </trkpt>
      <trkpt lat="48.5011" lon="7.15681">
        <ele>609.9</ele>
        <time>2021-08-01T13:00:39Z</time>
      </trkpt>
      <trkpt lat="48.50106" lon="7.15689">
        <ele>609</ele>
        <time>2021-08-01T13:00:41Z</time>
      </trkpt>
      <trkpt lat="48.50103" lon="7.15697">
        <ele>608.1</ele>
        <time>2021-08-01T13:00:42Z</time>
      </trkpt>
      <trkpt lat="48.50101" lon="7.15705">
        <ele>607.4</ele>
        <time>2021-08-01T13:00:44Z</time>
      </trkpt>
      <trkpt lat="48.50101" lon="7.15707">
        <ele>607.2</ele>
        <time>2021-08-01T13:00:45Z</time>
      </trkpt>
      <trkpt lat="48.50025" lon="7.15935">
        <ele>588</ele>
        <time>2021-08-01T13:02:35Z</time>
      </trkpt>
      <trkpt lat="48.50019" lon="7.15932">
        <ele>587.9</ele>
        <time>2021-08-01T13:02:37Z</time>
      </trkpt>
      <trkpt lat="48.50012" lon="7.15929">
        <ele>587.7</ele>
        <time>2021-08-01T13:02:39Z</time>
      </trkpt>
      <trkpt lat="48.50009" lon="7.15927">
        <ele>587.6</ele>
        <time>2021-08-01T13:02:40Z</time>
      </trkpt>
      <trkpt lat="48.5" lon="7.15925">
        <ele>587.2</ele>
        <time>2021-08-01T13:02:42Z</time>
      </trkpt>
      <trkpt lat="48.49997" lon="7.15925">
        <ele>587.1</ele>
        <time>2021-08-01T13:02:43Z</time>
      </trkpt>
      <trkpt lat="48.49988" lon="7.15928">
        <ele>586.4</ele>
        <time>2021-08-01T13:02:45Z</time>
      </trkpt>
      <trkpt lat="48.49975" lon="7.15929">
        <ele>585.8</ele>
        <time>2021-08-01T13:02:47Z</time>
      </trkpt>
      <trkpt lat="48.49961" lon="7.15924">
        <ele>584.8</ele>
        <time>2021-08-01T13:02:49Z</time>
      </trkpt>
      <trkpt lat="48.49948" lon="7.15921">
        <ele>583.8</ele>
        <time>2021-08-01T13:02:51Z</time>
      </trkpt>
      <trkpt lat="48.49942" lon="7.15922">
        <ele>583.4</ele>
        <time>2021-08-01T13:02:52Z</time>
      </trkpt>
      <trkpt lat="48.49932" lon="7.1592">
        <ele>582.7</ele>
        <time>2021-08-01T13:02:54Z</time>
      </trkpt>
      <trkpt lat="48.49926" lon="7.15913">
        <ele>582.2</ele>
        <time>2021-08-01T13:02:55Z</time>
      </trkpt>
      <trkpt lat="48.4992" lon="7.15905">
        <ele>581.5</ele>
        <time>2021-08-01T13:02:56Z</time>
      </trkpt>
      <trkpt lat="48.49907" lon="7.15891">
        <ele>580.3</ele>
        <time>2021-08-01T13:02:58Z</time>
      </trkpt>
      <trkpt lat="48.499" lon="7.15887">
        <ele>579.8</ele>
        <time>2021-08-01T13:02:59Z</time>
      </trkpt>
      <trkpt lat="48.49886" lon="7.15877">
        <ele>578.4</ele>
        <time>2021-08-01T13:03:01Z</time>
      </trkpt>
      <trkpt lat="48.49871" lon="7.15872">
        <ele>576.9</ele>
        <time>2021-08-01T13:03:03Z</time>
      </trkpt>
      <trkpt lat="48.49864" lon="7.15869">
        <ele>576</ele>
        <time>2021-08-01T13:03:04Z</time>
      </trkpt>
      <trkpt lat="48.49858" lon="7.15867">
        <ele>575.3</ele>
        <time>2021-08-01T13:03:05Z</time>
      </trkpt>
      <trkpt lat="48.49846" lon="7.15864">
        <ele>573.8</ele>
        <time>2021-08-01T13:03:07Z</time>
      </trkpt>
      <trkpt lat="48.49836" lon="7.15861">
        <ele>572.6</ele>
        <time>2021-08-01T13:03:09Z</time>
      </trkpt>
      <trkpt lat="48.49825" lon="7.15857">
        <ele>571.3</ele>
        <time>2021-08-01T13:03:11Z</time>
      </trkpt>
      <trkpt lat="48.49814" lon="7.15853">
        <ele>570</ele>
        <time>2021-08-01T13:03:13Z</time>
      </trkpt>
      <trkpt lat="48.49804" lon="7.15849">
        <ele>568.9</ele>
        <time>2021-08-01T13:03:15Z</time>
      </trkpt>
      <trkpt lat="48.49801" lon="7.15848">
        <ele>568.6</ele>
        <time>2021-08-01T13:03:16Z</time>
      </trkpt>
      <trkpt lat="48.49794" lon="7.15841">
        <ele>567.8</ele>
        <time>2021-08-01T13:03:17Z</time>
      </trkpt>
      <trkpt lat="48.4978" lon="7.15828">
        <ele>566.1</ele>
        <time>2021-08-01T13:03:19Z</time>
      </trkpt>
      <trkpt lat="48.49771" lon="7.15827">
        <ele>565.1</ele>
        <time>2021-08-01T13:03:21Z</time>
      </trkpt>
      <trkpt lat="48.49767" lon="7.1582">
        <ele>564.3</ele>
        <time>2021-08-01T13:03:23Z</time>
      </trkpt>
      <trkpt lat="48.49764" lon="7.15824">
        <ele>563.8</ele>
        <time>2021-08-01T13:03:24Z</time>
      </trkpt>
      <trkpt lat="48.49759" lon="7.15832">
        <ele>562.8</ele>
        <time>2021-08-01T13:03:26Z</time>
      </trkpt>
      <trkpt lat="48.49753" lon="7.15844">
        <ele>561.3</ele>
        <time>2021-08-01T13:03:27Z</time>
      </trkpt>
      <trkpt lat="48.49742" lon="7.15856">
        <ele>559.3</ele>
        <time>2021-08-01T13:03:29Z</time>
      </trkpt>
      <trkpt lat="48.49735" lon="7.15861">
        <ele>558.4</ele>
        <time>2021-08-01T13:03:30Z</time>
      </trkpt>
      <trkpt lat="48.49722" lon="7.15873">
        <ele>556.5</ele>
        <time>2021-08-01T13:03:32Z</time>
      </trkpt>
      <trkpt lat="48.49715" lon="7.15878">
        <ele>555.6</ele>
        <time>2021-08-01T13:03:33Z</time>
      </trkpt>
      <trkpt lat="48.49702" lon="7.15887">
        <ele>554</ele>
        <time>2021-08-01T13:03:35Z</time>
      </trkpt>
      <trkpt lat="48.49697" lon="7.1589">
        <ele>553.4</ele>
        <time>2021-08-01T13:03:36Z</time>
      </trkpt>
      <trkpt lat="48.49692" lon="7.15893">
        <ele>552.8</ele>
        <time>2021-08-01T13:03:37Z</time>
      </trkpt>
      <trkpt lat="48.49685" lon="7.15899">
        <ele>552</ele>
        <time>2021-08-01T13:03:39Z</time>
      </trkpt>
      <trkpt lat="48.4968" lon="7.15904">
        <ele>551.4</ele>
        <time>2021-08-01T13:03:40Z</time>
      </trkpt>
      <trkpt lat="48.49673" lon="7.15911">
        <ele>550.6</ele>
        <time>2021-08-01T13:03:41Z</time>
      </trkpt>
      <trkpt lat="48.49659" lon="7.15926">
        <ele>549.3</ele>
        <time>2021-08-01T13:03:43Z</time>
      </trkpt>
      <trkpt lat="48.49649" lon="7.1594">
        <ele>548.3</ele>
        <time>2021-08-01T13:03:45Z</time>
      </trkpt>
      <trkpt lat="48.49644" lon="7.15947">
        <ele>547.8</ele>
        <time>2021-08-01T13:03:46Z</time>
      </trkpt>
      <trkpt lat="48.49639" lon="7.15954">
        <ele>547.2</ele>
        <time>2021-08-01T13:03:47Z</time>
      </trkpt>
      <trkpt lat="48.49635" lon="7.1596">
        <ele>546.6</ele>
        <time>2021-08-01T13:03:48Z</time>
      </trkpt>
      <trkpt lat="48.49632" lon="7.15966">
        <ele>546</ele>
        <time>2021-08-01T13:03:49Z</time>
      </trkpt>
      <trkpt lat="48.49626" lon="7.15975">
        <ele>545.1</ele>
        <time>2021-08-01T13:03:51Z</time>
      </trkpt>
      <trkpt lat="48.49624" lon="7.15979">
        <ele>544.7</ele>
        <time>2021-08-01T13:03:52Z</time>
      </trkpt>
      <trkpt lat="48.49621" lon="7.15982">
        <ele>544.4</ele>
        <time>2021-08-01T13:03:53Z</time>
      </trkpt>
      <trkpt lat="48.49616" lon="7.15989">
        <ele>543.7</ele>
        <time>2021-08-01T13:03:55Z</time>
      </trkpt>
      <trkpt lat="48.49612" lon="7.15998">
        <ele>542.9</ele>
        <time>2021-08-01T13:03:57Z</time>
      </trkpt>
      <trkpt lat="48.49609" lon="7.16003">
        <ele>542.4</ele>
        <time>2021-08-01T13:03:58Z</time>
      </trkpt>
      <trkpt lat="48.49604" lon="7.16014">
        <ele>541.6</ele>
        <time>2021-08-01T13:04:00Z</time>
      </trkpt>
      <trkpt lat="48.49602" lon="7.1602">
        <ele>541.2</ele>
        <time>2021-08-01T13:04:01Z</time>
      </trkpt>
      <trkpt lat="48.49598" lon="7.16031">
        <ele>540.6</ele>
        <time>2021-08-01T13:04:03Z</time>
      </trkpt>
      <trkpt lat="48.49595" lon="7.16038">
        <ele>540.2</ele>
        <time>2021-08-01T13:04:04Z</time>
      </trkpt>
      <trkpt lat="48.49586" lon="7.16054">
        <ele>539.1</ele>
        <time>2021-08-01T13:04:06Z</time>
      </trkpt>
      <trkpt lat="48.49583" lon="7.16062">
        <ele>538.6</ele>
        <time>2021-08-01T13:04:07Z</time>
      </trkpt>
      <trkpt lat="48.49576" lon="7.16075">
        <ele>537.6</ele>
        <time>2021-08-01T13:04:09Z</time>
      </trkpt>
      <trkpt lat="48.49572" lon="7.16082">
        <ele>537.1</ele>
        <time>2021-08-01T13:04:10Z</time>
      </trkpt>
      <trkpt lat="48.49568" lon="7.1609">
        <ele>536.5</ele>
        <time>2021-08-01T13:04:11Z</time>
      </trkpt>
      <trkpt lat="48.49561" lon="7.16108">
        <ele>535.1</ele>
        <time>2021-08-01T13:04:13Z</time>
      </trkpt>
      <trkpt lat="48.49556" lon="7.16122">
        <ele>534</ele>
        <time>2021-08-01T13:04:15Z</time>
      </trkpt>
      <trkpt lat="48.49555" lon="7.16126">
        <ele>533.7</ele>
        <time>2021-08-01T13:04:16Z</time>
      </trkpt>
      <trkpt lat="48.49554" lon="7.16135">
        <ele>533</ele>
        <time>2021-08-01T13:04:18Z</time>
      </trkpt>
      <trkpt lat="48.49554" lon="7.16138">
        <ele>532.8</ele>
        <time>2021-08-01T13:04:19Z</time>
      </trkpt>
      <trkpt lat="48.49554" lon="7.16146">
        <ele>532.3</ele>
        <time>2021-08-01T13:04:21Z</time>
      </trkpt>
      <trkpt lat="48.49552" lon="7.16152">
        <ele>531.8</ele>
        <time>2021-08-01T13:04:22Z</time>
      </trkpt>
      <trkpt lat="48.49549" lon="7.16158">
        <ele>531.3</ele>
        <time>2021-08-01T13:04:23Z</time>
      </trkpt>
      <trkpt lat="48.49543" lon="7.16174">
        <ele>529.9</ele>
        <time>2021-08-01T13:04:25Z</time>
      </trkpt>
      <trkpt lat="48.49538" lon="7.16188">
        <ele>528.9</ele>
        <time>2021-08-01T13:04:27Z</time>
      </trkpt>
      <trkpt lat="48.49533" lon="7.16197">
        <ele>528.4</ele>
        <time>2021-08-01T13:04:28Z</time>
      </trkpt>
      <trkpt lat="48.4953" lon="7.16204">
        <ele>528.2</ele>
        <time>2021-08-01T13:04:29Z</time>
      </trkpt>
      <trkpt lat="48.49529" lon="7.16209">
        <ele>528.1</ele>
        <time>2021-08-01T13:04:30Z</time>
      </trkpt>
      <trkpt lat="48.49528" lon="7.16215">
        <ele>528</ele>
        <time>2021-08-01T13:04:31Z</time>
      </trkpt>
      <trkpt lat="48.49524" lon="7.16222">
        <ele>527.9</ele>
        <time>2021-08-01T13:04:32Z</time>
      </trkpt>
      <trkpt lat="48.49516" lon="7.16233">
        <ele>527.8</ele>
        <time>2021-08-01T13:04:34Z</time>
      </trkpt>
      <trkpt lat="48.49516" lon="7.16237">
        <ele>527.8</ele>
        <time>2021-08-01T13:04:35Z</time>
      </trkpt>
      <trkpt lat="48.49514" lon="7.16243">
        <ele>527.9</ele>
        <time>2021-08-01T13:04:37Z</time>
      </trkpt>
      <trkpt lat="48.49512" lon="7.16249">
        <ele>527.9</ele>
        <time>2021-08-01T13:04:39Z</time>
      </trkpt>
      <trkpt lat="48.49508" lon="7.16257">
        <ele>527.9</ele>
        <time>2021-08-01T13:04:40Z</time>
      </trkpt>
      <trkpt lat="48.49505" lon="7.16264">
        <ele>528</ele>
        <time>2021-08-01T13:04:42Z</time>
      </trkpt>
      <trkpt lat="48.49503" lon="7.16271">
        <ele>528</ele>
        <time>2021-08-01T13:04:43Z</time>
      </trkpt>
      <trkpt lat="48.495" lon="7.16277">
        <ele>528</ele>
        <time>2021-08-01T13:04:45Z</time>
      </trkpt>
      <trkpt lat="48.49498" lon="7.16281">
        <ele>528</ele>
        <time>2021-08-01T13:04:46Z</time>
      </trkpt>
      <trkpt lat="48.49497" lon="7.16285">
        <ele>528</ele>
        <time>2021-08-01T13:04:47Z</time>
      </trkpt>
      <trkpt lat="48.49495" lon="7.16291">
        <ele>528</ele>
        <time>2021-08-01T13:04:49Z</time>
      </trkpt>
      <trkpt lat="48.49493" lon="7.16298">
        <ele>527.9</ele>
        <time>2021-08-01T13:04:50Z</time>
      </trkpt>
      <trkpt lat="48.49492" lon="7.16305">
        <ele>527.9</ele>
        <time>2021-08-01T13:04:52Z</time>
      </trkpt>
      <trkpt lat="48.49492" lon="7.16312">
        <ele>527.9</ele>
        <time>2021-08-01T13:04:53Z</time>
      </trkpt>
      <trkpt lat="48.49491" lon="7.16317">
        <ele>527.9</ele>
        <time>2021-08-01T13:04:54Z</time>
      </trkpt>
      <trkpt lat="48.4949" lon="7.16321">
        <ele>527.9</ele>
        <time>2021-08-01T13:04:55Z</time>
      </trkpt>
      <trkpt lat="48.49491" lon="7.16327">
        <ele>527.8</ele>
        <time>2021-08-01T13:04:57Z</time>
      </trkpt>
      <trkpt lat="48.49491" lon="7.16332">
        <ele>527.8</ele>
        <time>2021-08-01T13:04:59Z</time>
      </trkpt>
      <trkpt lat="48.49491" lon="7.16336">
        <ele>527.7</ele>
        <time>2021-08-01T13:05:00Z</time>
      </trkpt>
      <trkpt lat="48.49491" lon="7.16338">
        <ele>527.6</ele>
        <time>2021-08-01T13:05:01Z</time>
      </trkpt>
      <trkpt lat="48.49492" lon="7.1634">
        <ele>527.5</ele>
        <time>2021-08-01T13:05:03Z</time>
      </trkpt>
      <trkpt lat="48.49492" lon="7.1634">
        <ele>527.5</ele>
        <time>2021-08-01T13:05:04Z</time>
      </trkpt>
      <trkpt lat="48.49491" lon="7.16341">
        <ele>527.4</ele>
        <time>2021-08-01T13:05:06Z</time>
      </trkpt>
      <trkpt lat="48.49491" lon="7.16342">
        <ele>527.4</ele>
        <time>2021-08-01T13:05:07Z</time>
      </trkpt>
      <trkpt lat="48.4949" lon="7.16351">
        <ele>526.8</ele>
        <time>2021-08-01T13:05:09Z</time>
      </trkpt>
      <trkpt lat="48.49489" lon="7.1636">
        <ele>526.1</ele>
        <time>2021-08-01T13:05:11Z</time>
      </trkpt>
      <trkpt lat="48.49488" lon="7.16368">
        <ele>525.4</ele>
        <time>2021-08-01T13:05:42Z</time>
      </trkpt>
      <trkpt lat="48.49487" lon="7.16377">
        <ele>525</ele>
        <time>2021-08-01T13:05:43Z</time>
      </trkpt>
      <trkpt lat="48.49488" lon="7.16385">
        <ele>524.8</ele>
        <time>2021-08-01T13:05:44Z</time>
      </trkpt>
      <trkpt lat="48.49488" lon="7.16392">
        <ele>524.6</ele>
        <time>2021-08-01T13:05:45Z</time>
      </trkpt>
      <trkpt lat="48.49489" lon="7.16396">
        <ele>524.5</ele>
        <time>2021-08-01T13:05:46Z</time>
      </trkpt>
      <trkpt lat="48.4949" lon="7.16401">
        <ele>524.3</ele>
        <time>2021-08-01T13:05:48Z</time>
      </trkpt>
      <trkpt lat="48.49492" lon="7.16407">
        <ele>524.2</ele>
        <time>2021-08-01T13:05:49Z</time>
      </trkpt>
      <trkpt lat="48.49492" lon="7.16414">
        <ele>524.2</ele>
        <time>2021-08-01T13:05:51Z</time>
      </trkpt>
      <trkpt lat="48.49493" lon="7.16419">
        <ele>524.2</ele>
        <time>2021-08-01T13:05:52Z</time>
      </trkpt>
      <trkpt lat="48.49491" lon="7.16425">
        <ele>524.2</ele>
        <time>2021-08-01T13:05:53Z</time>
      </trkpt>
      <trkpt lat="48.49491" lon="7.1643">
        <ele>524.2</ele>
        <time>2021-08-01T13:05:54Z</time>
      </trkpt>
      <trkpt lat="48.49491" lon="7.16435">
        <ele>524.2</ele>
        <time>2021-08-01T13:05:55Z</time>
      </trkpt>
      <trkpt lat="48.49492" lon="7.16443">
        <ele>524.2</ele>
        <time>2021-08-01T13:05:57Z</time>
      </trkpt>
      <trkpt lat="48.49493" lon="7.1645">
        <ele>524.1</ele>
        <time>2021-08-01T13:05:58Z</time>
      </trkpt>
      <trkpt lat="48.49494" lon="7.16459">
        <ele>524</ele>
        <time>2021-08-01T13:05:59Z</time>
      </trkpt>
      <trkpt lat="48.49494" lon="7.16465">
        <ele>523.9</ele>
        <time>2021-08-01T13:06:00Z</time>
      </trkpt>
      <trkpt lat="48.49493" lon="7.16472">
        <ele>523.7</ele>
        <time>2021-08-01T13:06:01Z</time>
      </trkpt>
      <trkpt lat="48.49492" lon="7.16483">
        <ele>523.5</ele>
        <time>2021-08-01T13:06:03Z</time>
      </trkpt>
      <trkpt lat="48.49492" lon="7.16494">
        <ele>523.3</ele>
        <time>2021-08-01T13:06:04Z</time>
      </trkpt>
      <trkpt lat="48.49491" lon="7.16502">
        <ele>523.1</ele>
        <time>2021-08-01T13:06:05Z</time>
      </trkpt>
      <trkpt lat="48.49491" lon="7.16513">
        <ele>522.8</ele>
        <time>2021-08-01T13:06:07Z</time>
      </trkpt>
      <trkpt lat="48.49489" lon="7.16527">
        <ele>522.3</ele>
        <time>2021-08-01T13:06:08Z</time>
      </trkpt>
      <trkpt lat="48.49489" lon="7.16542">
        <ele>521.6</ele>
        <time>2021-08-01T13:06:10Z</time>
      </trkpt>
      <trkpt lat="48.49488" lon="7.16549">
        <ele>521.2</ele>
        <time>2021-08-01T13:06:11Z</time>
      </trkpt>
      <trkpt lat="48.49487" lon="7.16557">
        <ele>520.9</ele>
        <time>2021-08-01T13:06:12Z</time>
      </trkpt>
      <trkpt lat="48.49485" lon="7.16563">
        <ele>520.6</ele>
        <time>2021-08-01T13:06:13Z</time>
      </trkpt>
      <trkpt lat="48.49484" lon="7.16569">
        <ele>520.3</ele>
        <time>2021-08-01T13:06:15Z</time>
      </trkpt>
      <trkpt lat="48.49484" lon="7.16574">
        <ele>520.1</ele>
        <time>2021-08-01T13:06:16Z</time>
      </trkpt>
      <trkpt lat="48.49481" lon="7.16579">
        <ele>519.9</ele>
        <time>2021-08-01T13:06:17Z</time>
      </trkpt>
      <trkpt lat="48.49478" lon="7.16584">
        <ele>519.6</ele>
        <time>2021-08-01T13:06:19Z</time>
      </trkpt>
      <trkpt lat="48.49477" lon="7.1659">
        <ele>519.3</ele>
        <time>2021-08-01T13:06:20Z</time>
      </trkpt>
      <trkpt lat="48.49478" lon="7.16592">
        <ele>519.1</ele>
        <time>2021-08-01T13:06:21Z</time>
      </trkpt>
      <trkpt lat="48.49477" lon="7.16594">
        <ele>519</ele>
        <time>2021-08-01T13:06:22Z</time>
      </trkpt>
      <trkpt lat="48.49476" lon="7.16595">
        <ele>519</ele>
        <time>2021-08-01T13:06:23Z</time>
      </trkpt>
      <trkpt lat="48.49475" lon="7.16595">
        <ele>518.7</ele>
        <time>2021-08-01T13:06:25Z</time>
      </trkpt>
      <trkpt lat="48.49473" lon="7.16596">
        <ele>518.5</ele>
        <time>2021-08-01T13:06:27Z</time>
      </trkpt>
      <trkpt lat="48.49472" lon="7.16597">
        <ele>518.3</ele>
        <time>2021-08-01T13:06:28Z</time>
      </trkpt>
      <trkpt lat="48.49471" lon="7.16598">
        <ele>518.2</ele>
        <time>2021-08-01T13:06:29Z</time>
      </trkpt>
      <trkpt lat="48.49396" lon="7.16647">
        <ele>492.2</ele>
        <time>2021-08-01T13:10:46Z</time>
      </trkpt>
      <trkpt lat="48.49392" lon="7.16637">
        <ele>491.6</ele>
        <time>2021-08-01T13:10:48Z</time>
      </trkpt>
      <trkpt lat="48.49388" lon="7.16627">
        <ele>491</ele>
        <time>2021-08-01T13:10:50Z</time>
      </trkpt>
      <trkpt lat="48.49384" lon="7.16617">
        <ele>490.5</ele>
        <time>2021-08-01T13:10:51Z</time>
      </trkpt>
      <trkpt lat="48.4938" lon="7.16608">
        <ele>490</ele>
        <time>2021-08-01T13:10:53Z</time>
      </trkpt>
      <trkpt lat="48.49378" lon="7.16602">
        <ele>489.7</ele>
        <time>2021-08-01T13:10:54Z</time>
      </trkpt>
      <trkpt lat="48.49376" lon="7.16595">
        <ele>489.4</ele>
        <time>2021-08-01T13:10:55Z</time>
      </trkpt>
      <trkpt lat="48.49376" lon="7.16589">
        <ele>489.1</ele>
        <time>2021-08-01T13:10:56Z</time>
      </trkpt>
      <trkpt lat="48.49375" lon="7.16579">
        <ele>488.7</ele>
        <time>2021-08-01T13:10:58Z</time>
      </trkpt>
      <trkpt lat="48.49373" lon="7.16573">
        <ele>488.4</ele>
        <time>2021-08-01T13:10:59Z</time>
      </trkpt>
      <trkpt lat="48.49371" lon="7.16565">
        <ele>488</ele>
        <time>2021-08-01T13:11:00Z</time>
      </trkpt>
      <trkpt lat="48.49368" lon="7.16555">
        <ele>487.5</ele>
        <time>2021-08-01T13:11:02Z</time>
      </trkpt>
      <trkpt lat="48.49366" lon="7.16548">
        <ele>487.2</ele>
        <time>2021-08-01T13:11:03Z</time>
      </trkpt>
      <trkpt lat="48.49363" lon="7.16543">
        <ele>486.9</ele>
        <time>2021-08-01T13:11:04Z</time>
      </trkpt>
      <trkpt lat="48.4936" lon="7.16536">
        <ele>486.5</ele>
        <time>2021-08-01T13:11:06Z</time>
      </trkpt>
      <trkpt lat="48.49356" lon="7.16529">
        <ele>486.1</ele>
        <time>2021-08-01T13:11:07Z</time>
      </trkpt>
      <trkpt lat="48.4935" lon="7.16523">
        <ele>485.7</ele>
        <time>2021-08-01T13:11:08Z</time>
      </trkpt>
      <trkpt lat="48.49343" lon="7.16518">
        <ele>485.2</ele>
        <time>2021-08-01T13:11:10Z</time>
      </trkpt>
      <trkpt lat="48.49338" lon="7.16512">
        <ele>484.8</ele>
        <time>2021-08-01T13:11:11Z</time>
      </trkpt>
      <trkpt lat="48.49339" lon="7.16508">
        <ele>484.6</ele>
        <time>2021-08-01T13:11:13Z</time>
      </trkpt>
      <trkpt lat="48.49339" lon="7.16502">
        <ele>484.3</ele>
        <time>2021-08-01T13:11:15Z</time>
      </trkpt>
      <trkpt lat="48.49339" lon="7.16496">
        <ele>484.1</ele>
        <time>2021-08-01T13:11:16Z</time>
      </trkpt>
      <trkpt lat="48.49339" lon="7.1649">
        <ele>483.8</ele>
        <time>2021-08-01T13:11:17Z</time>
      </trkpt>
      <trkpt lat="48.49339" lon="7.16484">
        <ele>483.5</ele>
        <time>2021-08-01T13:11:18Z</time>
      </trkpt>
      <trkpt lat="48.49339" lon="7.16477">
        <ele>483.2</ele>
        <time>2021-08-01T13:11:19Z</time>
      </trkpt>
      <trkpt lat="48.49339" lon="7.16471">
        <ele>483</ele>
        <time>2021-08-01T13:11:21Z</time>
      </trkpt>
      <trkpt lat="48.49339" lon="7.16465">
        <ele>482.7</ele>
        <time>2021-08-01T13:11:40Z</time>
      </trkpt>
      <trkpt lat="48.49339" lon="7.16459">
        <ele>482.4</ele>
        <time>2021-08-01T13:11:41Z</time>
      </trkpt>
      <trkpt lat="48.49335" lon="7.16452">
        <ele>482</ele>
        <time>2021-08-01T13:11:42Z</time>
      </trkpt>
      <trkpt lat="48.49333" lon="7.16445">
        <ele>481.6</ele>
        <time>2021-08-01T13:11:43Z</time>
      </trkpt>
      <trkpt lat="48.49329" lon="7.16436">
        <ele>481.2</ele>
        <time>2021-08-01T13:11:45Z</time>
      </trkpt>
      <trkpt lat="48.49328" lon="7.1643">
        <ele>480.8</ele>
        <time>2021-08-01T13:11:47Z</time>
      </trkpt>
      <trkpt lat="48.49329" lon="7.16425">
        <ele>480.6</ele>
        <time>2021-08-01T13:11:49Z</time>
      </trkpt>
      <trkpt lat="48.49328" lon="7.16422">
        <ele>480.5</ele>
        <time>2021-08-01T13:11:50Z</time>
      </trkpt>
      <trkpt lat="48.49328" lon="7.16419">
        <ele>480.3</ele>
        <time>2021-08-01T13:11:52Z</time>
      </trkpt>
      <trkpt lat="48.49326" lon="7.16415">
        <ele>480.1</ele>
        <time>2021-08-01T13:11:53Z</time>
      </trkpt>
      <trkpt lat="48.49324" lon="7.16412">
        <ele>479.9</ele>
        <time>2021-08-01T13:11:55Z</time>
      </trkpt>
      <trkpt lat="48.49322" lon="7.16411">
        <ele>479.8</ele>
        <time>2021-08-01T13:11:56Z</time>
      </trkpt>
      <trkpt lat="48.49321" lon="7.1641">
        <ele>479.7</ele>
        <time>2021-08-01T13:11:57Z</time>
      </trkpt>
      <trkpt lat="48.4932" lon="7.16409">
        <ele>479.6</ele>
        <time>2021-08-01T13:11:58Z</time>
      </trkpt>
      <trkpt lat="48.49318" lon="7.16408">
        <ele>479.5</ele>
        <time>2021-08-01T13:11:59Z</time>
      </trkpt>
      <trkpt lat="48.49317" lon="7.16407">
        <ele>479.3</ele>
        <time>2021-08-01T13:12:01Z</time>
      </trkpt>
      <trkpt lat="48.49316" lon="7.16406">
        <ele>479.2</ele>
        <time>2021-08-01T13:12:02Z</time>
      </trkpt>
      <trkpt lat="48.49314" lon="7.16405">
        <ele>479.1</ele>
        <time>2021-08-01T13:12:04Z</time>
      </trkpt>
      <trkpt lat="48.49313" lon="7.16404">
        <ele>479</ele>
        <time>2021-08-01T13:12:30Z</time>
      </trkpt>
      <trkpt lat="48.49311" lon="7.16403">
        <ele>478.9</ele>
        <time>2021-08-01T13:12:31Z</time>
      </trkpt>
      <trkpt lat="48.49305" lon="7.16397">
        <ele>478.3</ele>
        <time>2021-08-01T13:12:32Z</time>
      </trkpt>
      <trkpt lat="48.49302" lon="7.16394">
        <ele>478.7</ele>
        <time>2021-08-01T13:12:34Z</time>
      </trkpt>
      <trkpt lat="48.49297" lon="7.16391">
        <ele>479.5</ele>
        <time>2021-08-01T13:12:35Z</time>
      </trkpt>
      <trkpt lat="48.49296" lon="7.16391">
        <ele>479.7</ele>
        <time>2021-08-01T13:12:36Z</time>
      </trkpt>
      <trkpt lat="48.49296" lon="7.1639">
        <ele>479.8</ele>
        <time>2021-08-01T13:12:37Z</time>
      </trkpt>
      <trkpt lat="48.49295" lon="7.1639">
        <ele>479.8</ele>
        <time>2021-08-01T13:12:39Z</time>
      </trkpt>
      <trkpt lat="48.49295" lon="7.1639">
        <ele>479.8</ele>
        <time>2021-08-01T13:12:40Z</time>
      </trkpt>
      <trkpt lat="48.49295" lon="7.16391">
        <ele>479.9</ele>
        <time>2021-08-01T13:12:42Z</time>
      </trkpt>
      <trkpt lat="48.49295" lon="7.1639">
        <ele>479.9</ele>
        <time>2021-08-01T13:12:43Z</time>
      </trkpt>
      <trkpt lat="48.49295" lon="7.1639">
        <ele>479.9</ele>
        <time>2021-08-01T13:12:44Z</time>
      </trkpt>
      <trkpt lat="48.48911" lon="7.16423">
        <ele>493.8</ele>
        <time>2021-08-01T13:16:24Z</time>
      </trkpt>
      <trkpt lat="48.48891" lon="7.16444">
        <ele>491.4</ele>
        <time>2021-08-01T13:16:26Z</time>
      </trkpt>
      <trkpt lat="48.48875" lon="7.16464">
        <ele>489</ele>
        <time>2021-08-01T13:16:28Z</time>
      </trkpt>
      <trkpt lat="48.48859" lon="7.16485">
        <ele>486.6</ele>
        <time>2021-08-01T13:16:30Z</time>
      </trkpt>
      <trkpt lat="48.48851" lon="7.16495">
        <ele>485.5</ele>
        <time>2021-08-01T13:16:31Z</time>
      </trkpt>
      <trkpt lat="48.48843" lon="7.16505">
        <ele>484.4</ele>
        <time>2021-08-01T13:16:32Z</time>
      </trkpt>
      <trkpt lat="48.48829" lon="7.16524">
        <ele>482.5</ele>
        <time>2021-08-01T13:16:34Z</time>
      </trkpt>
      <trkpt lat="48.48823" lon="7.16534">
        <ele>481.6</ele>
        <time>2021-08-01T13:16:35Z</time>
      </trkpt>
      <trkpt lat="48.4881" lon="7.16553">
        <ele>480.3</ele>
        <time>2021-08-01T13:16:37Z</time>
      </trkpt>
      <trkpt lat="48.48794" lon="7.16571">
        <ele>479.2</ele>
        <time>2021-08-01T13:16:39Z</time>
      </trkpt>
      <trkpt lat="48.48787" lon="7.16577">
        <ele>478.9</ele>
        <time>2021-08-01T13:16:40Z</time>
      </trkpt>
      <trkpt lat="48.48772" lon="7.1659">
        <ele>478.7</ele>
        <time>2021-08-01T13:16:42Z</time>
      </trkpt>
      <trkpt lat="48.48766" lon="7.1659">
        <ele>478.7</ele>
        <time>2021-08-01T13:16:43Z</time>
      </trkpt>
      <trkpt lat="48.48754" lon="7.16596">
        <ele>478.7</ele>
        <time>2021-08-01T13:16:45Z</time>
      </trkpt>
      <trkpt lat="48.48748" lon="7.16601">
        <ele>478.5</ele>
        <time>2021-08-01T13:16:47Z</time>
      </trkpt>
      <trkpt lat="48.48742" lon="7.16606">
        <ele>478.3</ele>
        <time>2021-08-01T13:16:48Z</time>
      </trkpt>
      <trkpt lat="48.48727" lon="7.1662">
        <ele>477.4</ele>
        <time>2021-08-01T13:16:50Z</time>
      </trkpt>
      <trkpt lat="48.48719" lon="7.16627">
        <ele>476.8</ele>
        <time>2021-08-01T13:16:51Z</time>
      </trkpt>
      <trkpt lat="48.48711" lon="7.16633">
        <ele>476.4</ele>
        <time>2021-08-01T13:16:52Z</time>
      </trkpt>
      <trkpt lat="48.48699" lon="7.16646">
        <ele>475.7</ele>
        <time>2021-08-01T13:16:54Z</time>
      </trkpt>
      <trkpt lat="48.48694" lon="7.16652">
        <ele>475.5</ele>
        <time>2021-08-01T13:16:55Z</time>
      </trkpt>
      <trkpt lat="48.48684" lon="7.16665">
        <ele>475.3</ele>
        <time>2021-08-01T13:16:57Z</time>
      </trkpt>
      <trkpt lat="48.48677" lon="7.16679">
        <ele>475.2</ele>
        <time>2021-08-01T13:16:59Z</time>
      </trkpt>
      <trkpt lat="48.48673" lon="7.16694">
        <ele>474.9</ele>
        <time>2021-08-01T13:17:01Z</time>
      </trkpt>
      <trkpt lat="48.48673" lon="7.1671">
        <ele>474.6</ele>
        <time>2021-08-01T13:17:03Z</time>
      </trkpt>
      <trkpt lat="48.48671" lon="7.16721">
        <ele>474.4</ele>
        <time>2021-08-01T13:17:05Z</time>
      </trkpt>
      <trkpt lat="48.48672" lon="7.16724">
        <ele>474.3</ele>
        <time>2021-08-01T13:17:06Z</time>
      </trkpt>
      <trkpt lat="48.48673" lon="7.16725">
        <ele>474.2</ele>
        <time>2021-08-01T13:17:07Z</time>
      </trkpt>
      <trkpt lat="48.48676" lon="7.16727">
        <ele>474.1</ele>
        <time>2021-08-01T13:17:09Z</time>
      </trkpt>
      <trkpt lat="48.48678" lon="7.16727">
        <ele>474.1</ele>
        <time>2021-08-01T13:17:11Z</time>
      </trkpt>
      <trkpt lat="48.48678" lon="7.16728">
        <ele>474</ele>
        <time>2021-08-01T13:17:12Z</time>
      </trkpt>
      <trkpt lat="48.48678" lon="7.16728">
        <ele>474</ele>
        <time>2021-08-01T13:17:13Z</time>
      </trkpt>
      <trkpt lat="48.48678" lon="7.16729">
        <ele>474</ele>
        <time>2021-08-01T13:17:15Z</time>
      </trkpt>
      <trkpt lat="48.48679" lon="7.16732">
        <ele>473.9</ele>
        <time>2021-08-01T13:17:16Z</time>
      </trkpt>
      <trkpt lat="48.4868" lon="7.16737">
        <ele>473.8</ele>
        <time>2021-08-01T13:17:18Z</time>
      </trkpt>
      <trkpt lat="48.48674" lon="7.1677">
        <ele>475.3</ele>
        <time>2021-08-01T13:17:33Z</time>
      </trkpt>
      <trkpt lat="48.48674" lon="7.16774">
        <ele>475.3</ele>
        <time>2021-08-01T13:17:34Z</time>
      </trkpt>
      <trkpt lat="48.48672" lon="7.16776">
        <ele>475.4</ele>
        <time>2021-08-01T13:17:36Z</time>
      </trkpt>
      <trkpt lat="48.48671" lon="7.16778">
        <ele>475.4</ele>
        <time>2021-08-01T13:17:37Z</time>
      </trkpt>
      <trkpt lat="48.48668" lon="7.16783">
        <ele>475.4</ele>
        <time>2021-08-01T13:17:39Z</time>
      </trkpt>
      <trkpt lat="48.48667" lon="7.16785">
        <ele>475.4</ele>
        <time>2021-08-01T13:17:40Z</time>
      </trkpt>
      <trkpt lat="48.48668" lon="7.16788">
        <ele>475.4</ele>
        <time>2021-08-01T13:17:42Z</time>
      </trkpt>
      <trkpt lat="48.48667" lon="7.16788">
        <ele>475.4</ele>
        <time>2021-08-01T13:17:43Z</time>
      </trkpt>
      <trkpt lat="48.48666" lon="7.16792">
        <ele>475.4</ele>
        <time>2021-08-01T13:17:44Z</time>
      </trkpt>
      <trkpt lat="48.48666" lon="7.16797">
        <ele>475.3</ele>
        <time>2021-08-01T13:17:45Z</time>
      </trkpt>
      <trkpt lat="48.48666" lon="7.16802">
        <ele>475.3</ele>
        <time>2021-08-01T13:17:46Z</time>
      </trkpt>
      <trkpt lat="48.48666" lon="7.16806">
        <ele>475.2</ele>
        <time>2021-08-01T13:17:47Z</time>
      </trkpt>
      <trkpt lat="48.48665" lon="7.16811">
        <ele>475.2</ele>
        <time>2021-08-01T13:17:49Z</time>
      </trkpt>
      <trkpt lat="48.48665" lon="7.16816">
        <ele>475.1</ele>
        <time>2021-08-01T13:17:50Z</time>
      </trkpt>
      <trkpt lat="48.48665" lon="7.16817">
        <ele>475.1</ele>
        <time>2021-08-01T13:17:51Z</time>
      </trkpt>
      <trkpt lat="48.48665" lon="7.1682">
        <ele>475.1</ele>
        <time>2021-08-01T13:17:52Z</time>
      </trkpt>
      <trkpt lat="48.48664" lon="7.16822">
        <ele>475.1</ele>
        <time>2021-08-01T13:17:53Z</time>
      </trkpt>
      <trkpt lat="48.48662" lon="7.16825">
        <ele>475.1</ele>
        <time>2021-08-01T13:17:54Z</time>
      </trkpt>
      <trkpt lat="48.48661" lon="7.16828">
        <ele>475.1</ele>
        <time>2021-08-01T13:17:56Z</time>
      </trkpt>
      <trkpt lat="48.4866" lon="7.16829">
        <ele>475.1</ele>
        <time>2021-08-01T13:17:57Z</time>
      </trkpt>
      <trkpt lat="48.4866" lon="7.16831">
        <ele>475.2</ele>
        <time>2021-08-01T13:17:58Z</time>
      </trkpt>
      <trkpt lat="48.48659" lon="7.16833">
        <ele>475.2</ele>
        <time>2021-08-01T13:18:00Z</time>
      </trkpt>
      <trkpt lat="48.48659" lon="7.16836">
        <ele>475.3</ele>
        <time>2021-08-01T13:18:02Z</time>
      </trkpt>
      <trkpt lat="48.4862" lon="7.17075">
        <ele>475.8</ele>
        <time>2021-08-01T13:18:57Z</time>
      </trkpt>
      <trkpt lat="48.48618" lon="7.17082">
        <ele>475.8</ele>
        <time>2021-08-01T13:18:58Z</time>
      </trkpt>
      <trkpt lat="48.48617" lon="7.17087">
        <ele>475.8</ele>
        <time>2021-08-01T13:18:59Z</time>
      </trkpt>
      <trkpt lat="48.48617" lon="7.1709">
        <ele>475.8</ele>
        <time>2021-08-01T13:19:00Z</time>
      </trkpt>
      <trkpt lat="48.48617" lon="7.17094">
        <ele>475.8</ele>
        <time>2021-08-01T13:19:01Z</time>
      </trkpt>
      <trkpt lat="48.48615" lon="7.17102">
        <ele>475.8</ele>
        <time>2021-08-01T13:19:03Z</time>
      </trkpt>
      <trkpt lat="48.48614" lon="7.17108">
        <ele>475.9</ele>
        <time>2021-08-01T13:19:04Z</time>
      </trkpt>
      <trkpt lat="48.48613" lon="7.17111">
        <ele>475.9</ele>
        <time>2021-08-01T13:19:05Z</time>
      </trkpt>
      <trkpt lat="48.48612" lon="7.17115">
        <ele>476</ele>
        <time>2021-08-01T13:19:07Z</time>
      </trkpt>
      <trkpt lat="48.48611" lon="7.17121">
        <ele>476</ele>
        <time>2021-08-01T13:19:08Z</time>
      </trkpt>
      <trkpt lat="48.48611" lon="7.17122">
        <ele>476</ele>
        <time>2021-08-01T13:19:09Z</time>
      </trkpt>
      <trkpt lat="48.4861" lon="7.17127">
        <ele>476</ele>
        <time>2021-08-01T13:19:10Z</time>
      </trkpt>
      <trkpt lat="48.48598" lon="7.172">
        <ele>475.4</ele>
        <time>2021-08-01T13:19:25Z</time>
      </trkpt>
      <trkpt lat="48.48597" lon="7.17207">
        <ele>475.3</ele>
        <time>2021-08-01T13:19:27Z</time>
      </trkpt>
      <trkpt lat="48.48596" lon="7.17214">
        <ele>475.2</ele>
        <time>2021-08-01T13:19:29Z</time>
      </trkpt>
      <trkpt lat="48.48595" lon="7.17218">
        <ele>475.1</ele>
        <time>2021-08-01T13:19:30Z</time>
      </trkpt>
      <trkpt lat="48.48595" lon="7.17222">
        <ele>474.9</ele>
        <time>2021-08-01T13:19:31Z</time>
      </trkpt>
      <trkpt lat="48.48593" lon="7.17234">
        <ele>474.4</ele>
        <time>2021-08-01T13:19:32Z</time>
      </trkpt>
      <trkpt lat="48.48592" lon="7.17243">
        <ele>474</ele>
        <time>2021-08-01T13:19:34Z</time>
      </trkpt>
      <trkpt lat="48.48591" lon="7.17249">
        <ele>473.8</ele>
        <time>2021-08-01T13:19:35Z</time>
      </trkpt>
      <trkpt lat="48.48589" lon="7.17253">
        <ele>473.5</ele>
        <time>2021-08-01T13:19:36Z</time>
      </trkpt>
      <trkpt lat="48.48588" lon="7.17254">
        <ele>473.5</ele>
        <time>2021-08-01T13:19:37Z</time>
      </trkpt>
      <trkpt lat="48.48586" lon="7.17256">
        <ele>473.2</ele>
        <time>2021-08-01T13:19:38Z</time>
      </trkpt>
      <trkpt lat="48.48585" lon="7.17257">
        <ele>473.2</ele>
        <time>2021-08-01T13:19:39Z</time>
      </trkpt>
      <trkpt lat="48.48582" lon="7.17261">
        <ele>472.9</ele>
        <time>2021-08-01T13:19:41Z</time>
      </trkpt>
      <trkpt lat="48.48581" lon="7.17263">
        <ele>472.8</ele>
        <time>2021-08-01T13:19:42Z</time>
      </trkpt>
      <trkpt lat="48.48578" lon="7.17271">
        <ele>472.3</ele>
        <time>2021-08-01T13:19:43Z</time>
      </trkpt>
      <trkpt lat="48.48573" lon="7.17285">
        <ele>471.2</ele>
        <time>2021-08-01T13:19:45Z</time>
      </trkpt>
      <trkpt lat="48.48568" lon="7.17295">
        <ele>470.2</ele>
        <time>2021-08-01T13:19:46Z</time>
      </trkpt>
      <trkpt lat="48.48564" lon="7.17301">
        <ele>469.7</ele>
        <time>2021-08-01T13:19:47Z</time>
      </trkpt>
      <trkpt lat="48.48555" lon="7.17315">
        <ele>468.7</ele>
        <time>2021-08-01T13:19:49Z</time>
      </trkpt>
      <trkpt lat="48.48548" lon="7.17321">
        <ele>468.2</ele>
        <time>2021-08-01T13:19:50Z</time>
      </trkpt>
      <trkpt lat="48.48541" lon="7.17327">
        <ele>467.6</ele>
        <time>2021-08-01T13:19:52Z</time>
      </trkpt>
      <trkpt lat="48.48532" lon="7.17332">
        <ele>466.8</ele>
        <time>2021-08-01T13:19:54Z</time>
      </trkpt>
      <trkpt lat="48.48525" lon="7.17334">
        <ele>466.3</ele>
        <time>2021-08-01T13:19:55Z</time>
      </trkpt>
      <trkpt lat="48.4852" lon="7.17336">
        <ele>465.9</ele>
        <time>2021-08-01T13:19:56Z</time>
      </trkpt>
      <trkpt lat="48.48515" lon="7.1734">
        <ele>465.6</ele>
        <time>2021-08-01T13:19:58Z</time>
      </trkpt>
      <trkpt lat="48.48512" lon="7.17339">
        <ele>465.4</ele>
        <time>2021-08-01T13:19:59Z</time>
      </trkpt>
      <trkpt lat="48.48509" lon="7.17338">
        <ele>465.2</ele>
        <time>2021-08-01T13:20:00Z</time>
      </trkpt>
      <trkpt lat="48.48506" lon="7.17339">
        <ele>465</ele>
        <time>2021-08-01T13:20:02Z</time>
      </trkpt>
      <trkpt lat="48.48502" lon="7.17338">
        <ele>464.8</ele>
        <time>2021-08-01T13:20:03Z</time>
      </trkpt>
      <trkpt lat="48.485" lon="7.17337">
        <ele>464.7</ele>
        <time>2021-08-01T13:20:04Z</time>
      </trkpt>
      <trkpt lat="48.48495" lon="7.17334">
        <ele>464.5</ele>
        <time>2021-08-01T13:20:06Z</time>
      </trkpt>
      <trkpt lat="48.48491" lon="7.17336">
        <ele>464.3</ele>
        <time>2021-08-01T13:20:07Z</time>
      </trkpt>
      <trkpt lat="48.48486" lon="7.1734">
        <ele>464</ele>
        <time>2021-08-01T13:20:09Z</time>
      </trkpt>
      <trkpt lat="48.4848" lon="7.17344">
        <ele>463.5</ele>
        <time>2021-08-01T13:20:11Z</time>
      </trkpt>
      <trkpt lat="48.48475" lon="7.17349">
        <ele>463</ele>
        <time>2021-08-01T13:20:12Z</time>
      </trkpt>
      <trkpt lat="48.48472" lon="7.17353">
        <ele>462.6</ele>
        <time>2021-08-01T13:20:13Z</time>
      </trkpt>
      <trkpt lat="48.48469" lon="7.17362">
        <ele>461.7</ele>
        <time>2021-08-01T13:20:15Z</time>
      </trkpt>
      <trkpt lat="48.48467" lon="7.17368">
        <ele>461.3</ele>
        <time>2021-08-01T13:20:16Z</time>
      </trkpt>
      <trkpt lat="48.48464" lon="7.17371">
        <ele>460.9</ele>
        <time>2021-08-01T13:20:17Z</time>
      </trkpt>
      <trkpt lat="48.48462" lon="7.17375">
        <ele>460.5</ele>
        <time>2021-08-01T13:20:18Z</time>
      </trkpt>
      <trkpt lat="48.4846" lon="7.17382">
        <ele>460</ele>
        <time>2021-08-01T13:20:20Z</time>
      </trkpt>
      <trkpt lat="48.48457" lon="7.1739">
        <ele>459.4</ele>
        <time>2021-08-01T13:20:21Z</time>
      </trkpt>
      <trkpt lat="48.48455" lon="7.17398">
        <ele>458.8</ele>
        <time>2021-08-01T13:20:22Z</time>
      </trkpt>
      <trkpt lat="48.48454" lon="7.1741">
        <ele>458.1</ele>
        <time>2021-08-01T13:20:23Z</time>
      </trkpt>
      <trkpt lat="48.48452" lon="7.17426">
        <ele>457.1</ele>
        <time>2021-08-01T13:20:25Z</time>
      </trkpt>
      <trkpt lat="48.48451" lon="7.17434">
        <ele>456.6</ele>
        <time>2021-08-01T13:20:26Z</time>
      </trkpt>
      <trkpt lat="48.48449" lon="7.17442">
        <ele>456.1</ele>
        <time>2021-08-01T13:20:28Z</time>
      </trkpt>
      <trkpt lat="48.48446" lon="7.17449">
        <ele>455.6</ele>
        <time>2021-08-01T13:20:29Z</time>
      </trkpt>
      <trkpt lat="48.48443" lon="7.17458">
        <ele>455</ele>
        <time>2021-08-01T13:20:30Z</time>
      </trkpt>
      <trkpt lat="48.48438" lon="7.17467">
        <ele>454.4</ele>
        <time>2021-08-01T13:20:32Z</time>
      </trkpt>
      <trkpt lat="48.48435" lon="7.17472">
        <ele>453.9</ele>
        <time>2021-08-01T13:20:33Z</time>
      </trkpt>
      <trkpt lat="48.48432" lon="7.17483">
        <ele>453.2</ele>
        <time>2021-08-01T13:20:35Z</time>
      </trkpt>
      <trkpt lat="48.48431" lon="7.17492">
        <ele>452.7</ele>
        <time>2021-08-01T13:20:36Z</time>
      </trkpt>
      <trkpt lat="48.48429" lon="7.17498">
        <ele>452.4</ele>
        <time>2021-08-01T13:20:37Z</time>
      </trkpt>
      <trkpt lat="48.48431" lon="7.17507">
        <ele>451.8</ele>
        <time>2021-08-01T13:20:39Z</time>
      </trkpt>
      <trkpt lat="48.48433" lon="7.17514">
        <ele>451.3</ele>
        <time>2021-08-01T13:20:40Z</time>
      </trkpt>
      <trkpt lat="48.48435" lon="7.1752">
        <ele>450.9</ele>
        <time>2021-08-01T13:20:41Z</time>
      </trkpt>
      <trkpt lat="48.48437" lon="7.17527">
        <ele>450.3</ele>
        <time>2021-08-01T13:20:43Z</time>
      </trkpt>
      <trkpt lat="48.48439" lon="7.17532">
        <ele>449.9</ele>
        <time>2021-08-01T13:20:44Z</time>
      </trkpt>
      <trkpt lat="48.4844" lon="7.17535">
        <ele>449.7</ele>
        <time>2021-08-01T13:20:45Z</time>
      </trkpt>
      <trkpt lat="48.48444" lon="7.1754">
        <ele>449.2</ele>
        <time>2021-08-01T13:20:47Z</time>
      </trkpt>
      <trkpt lat="48.48447" lon="7.17538">
        <ele>448.9</ele>
        <time>2021-08-01T13:20:48Z</time>
      </trkpt>
      <trkpt lat="48.48451" lon="7.17538">
        <ele>448.7</ele>
        <time>2021-08-01T13:20:50Z</time>
      </trkpt>
      <trkpt lat="48.48454" lon="7.1754">
        <ele>448.4</ele>
        <time>2021-08-01T13:20:51Z</time>
      </trkpt>
      <trkpt lat="48.48457" lon="7.17541">
        <ele>448.1</ele>
        <time>2021-08-01T13:20:52Z</time>
      </trkpt>
      <trkpt lat="48.48461" lon="7.17546">
        <ele>447.6</ele>
        <time>2021-08-01T13:20:54Z</time>
      </trkpt>
      <trkpt lat="48.48463" lon="7.17547">
        <ele>447.4</ele>
        <time>2021-08-01T13:20:55Z</time>
      </trkpt>
      <trkpt lat="48.48463" lon="7.17549">
        <ele>447.3</ele>
        <time>2021-08-01T13:20:56Z</time>
      </trkpt>
      <trkpt lat="48.48463" lon="7.17553">
        <ele>447</ele>
        <time>2021-08-01T13:20:58Z</time>
      </trkpt>
      <trkpt lat="48.48463" lon="7.17556">
        <ele>446.8</ele>
        <time>2021-08-01T13:20:59Z</time>
      </trkpt>
      <trkpt lat="48.48463" lon="7.17559">
        <ele>446.7</ele>
        <time>2021-08-01T13:21:00Z</time>
      </trkpt>
      <trkpt lat="48.48464" lon="7.17561">
        <ele>446.5</ele>
        <time>2021-08-01T13:21:01Z</time>
      </trkpt>
      <trkpt lat="48.48465" lon="7.17565">
        <ele>446.3</ele>
        <time>2021-08-01T13:21:03Z</time>
      </trkpt>
      <trkpt lat="48.48466" lon="7.17567">
        <ele>446.2</ele>
        <time>2021-08-01T13:21:04Z</time>
      </trkpt>
      <trkpt lat="48.48467" lon="7.17569">
        <ele>446</ele>
        <time>2021-08-01T13:21:05Z</time>
      </trkpt>
      <trkpt lat="48.48497" lon="7.17612">
        <ele>443.7</ele>
        <time>2021-08-01T13:21:22Z</time>
      </trkpt>
      <trkpt lat="48.48502" lon="7.17622">
        <ele>443.1</ele>
        <time>2021-08-01T13:21:24Z</time>
      </trkpt>
      <trkpt lat="48.48507" lon="7.1763">
        <ele>442.5</ele>
        <time>2021-08-01T13:21:25Z</time>
      </trkpt>
      <trkpt lat="48.48513" lon="7.17641">
        <ele>441.7</ele>
        <time>2021-08-01T13:21:26Z</time>
      </trkpt>
      <trkpt lat="48.48515" lon="7.17649">
        <ele>441.2</ele>
        <time>2021-08-01T13:21:28Z</time>
      </trkpt>
      <trkpt lat="48.48518" lon="7.17662">
        <ele>440.4</ele>
        <time>2021-08-01T13:21:30Z</time>
      </trkpt>
      <trkpt lat="48.48521" lon="7.17675">
        <ele>439.8</ele>
        <time>2021-08-01T13:21:31Z</time>
      </trkpt>
      <trkpt lat="48.48522" lon="7.1769">
        <ele>439.2</ele>
        <time>2021-08-01T13:21:33Z</time>
      </trkpt>
      <trkpt lat="48.48523" lon="7.17694">
        <ele>439</ele>
        <time>2021-08-01T13:21:34Z</time>
      </trkpt>
      <trkpt lat="48.48523" lon="7.17695">
        <ele>438.9</ele>
        <time>2021-08-01T13:21:35Z</time>
      </trkpt>
      <trkpt lat="48.48522" lon="7.17711">
        <ele>438</ele>
        <time>2021-08-01T13:21:37Z</time>
      </trkpt>
      <trkpt lat="48.48537" lon="7.17813">
        <ele>432.4</ele>
        <time>2021-08-01T13:21:56Z</time>
      </trkpt>
      <trkpt lat="48.48538" lon="7.17827">
        <ele>431.7</ele>
        <time>2021-08-01T13:21:57Z</time>
      </trkpt>
      <trkpt lat="48.48538" lon="7.17837">
        <ele>431.2</ele>
        <time>2021-08-01T13:21:59Z</time>
      </trkpt>
      <trkpt lat="48.48537" lon="7.1785">
        <ele>430.4</ele>
        <time>2021-08-01T13:22:00Z</time>
      </trkpt>
      <trkpt lat="48.48536" lon="7.17854">
        <ele>430.2</ele>
        <time>2021-08-01T13:22:01Z</time>
      </trkpt>
      <trkpt lat="48.48535" lon="7.17859">
        <ele>429.8</ele>
        <time>2021-08-01T13:22:03Z</time>
      </trkpt>
      <trkpt lat="48.48535" lon="7.17861">
        <ele>429.6</ele>
        <time>2021-08-01T13:22:04Z</time>
      </trkpt>
      <trkpt lat="48.48534" lon="7.17869">
        <ele>429.1</ele>
        <time>2021-08-01T13:22:06Z</time>
      </trkpt>
      <trkpt lat="48.48534" lon="7.1788">
        <ele>428.2</ele>
        <time>2021-08-01T13:22:07Z</time>
      </trkpt>
      <trkpt lat="48.48513" lon="7.1817">
        <ele>413.9</ele>
        <time>2021-08-01T13:22:54Z</time>
      </trkpt>
      <trkpt lat="48.48518" lon="7.18174">
        <ele>413.2</ele>
        <time>2021-08-01T13:22:55Z</time>
      </trkpt>
      <trkpt lat="48.48529" lon="7.18171">
        <ele>412</ele>
        <time>2021-08-01T13:22:57Z</time>
      </trkpt>
      <trkpt lat="48.48543" lon="7.18167">
        <ele>410.4</ele>
        <time>2021-08-01T13:22:58Z</time>
      </trkpt>
      <trkpt lat="48.48559" lon="7.18161">
        <ele>408.8</ele>
        <time>2021-08-01T13:23:00Z</time>
      </trkpt>
      <trkpt lat="48.48566" lon="7.18161">
        <ele>408.1</ele>
        <time>2021-08-01T13:23:01Z</time>
      </trkpt>
      <trkpt lat="48.4858" lon="7.18163">
        <ele>406.7</ele>
        <time>2021-08-01T13:23:03Z</time>
      </trkpt>
      <trkpt lat="48.48589" lon="7.18165">
        <ele>406</ele>
        <time>2021-08-01T13:23:04Z</time>
      </trkpt>
      <trkpt lat="48.48605" lon="7.1817">
        <ele>404.7</ele>
        <time>2021-08-01T13:23:06Z</time>
      </trkpt>
      <trkpt lat="48.48613" lon="7.18173">
        <ele>404.1</ele>
        <time>2021-08-01T13:23:07Z</time>
      </trkpt>
      <trkpt lat="48.48628" lon="7.18179">
        <ele>403</ele>
        <time>2021-08-01T13:23:09Z</time>
      </trkpt>
      <trkpt lat="48.4864" lon="7.18186">
        <ele>402</ele>
        <time>2021-08-01T13:23:11Z</time>
      </trkpt>
      <trkpt lat="48.48653" lon="7.18196">
        <ele>400.8</ele>
        <time>2021-08-01T13:23:13Z</time>
      </trkpt>
      <trkpt lat="48.48663" lon="7.18202">
        <ele>399.6</ele>
        <time>2021-08-01T13:23:15Z</time>
      </trkpt>
      <trkpt lat="48.48667" lon="7.18203">
        <ele>398.7</ele>
        <time>2021-08-01T13:23:17Z</time>
      </trkpt>
      <trkpt lat="48.48662" lon="7.18203">
        <ele>398.1</ele>
        <time>2021-08-01T13:23:19Z</time>
      </trkpt>
      <trkpt lat="48.48658" lon="7.18212">
        <ele>397.6</ele>
        <time>2021-08-01T13:23:21Z</time>
      </trkpt>
      <trkpt lat="48.48655" lon="7.18224">
        <ele>397.2</ele>
        <time>2021-08-01T13:23:23Z</time>
      </trkpt>
      <trkpt lat="48.48655" lon="7.18225">
        <ele>397.2</ele>
        <time>2021-08-01T13:23:24Z</time>
      </trkpt>
      <trkpt lat="48.48655" lon="7.18226">
        <ele>397.2</ele>
        <time>2021-08-01T13:23:25Z</time>
      </trkpt>
      <trkpt lat="48.48655" lon="7.18236">
        <ele>397.2</ele>
        <time>2021-08-01T13:23:27Z</time>
      </trkpt>
      <trkpt lat="48.48664" lon="7.18247">
        <ele>397.9</ele>
        <time>2021-08-01T13:23:37Z</time>
      </trkpt>
      <trkpt lat="48.4867" lon="7.18246">
        <ele>398.4</ele>
        <time>2021-08-01T13:23:39Z</time>
      </trkpt>
      <trkpt lat="48.48673" lon="7.18247">
        <ele>398.7</ele>
        <time>2021-08-01T13:23:40Z</time>
      </trkpt>
      <trkpt lat="48.48677" lon="7.18248">
        <ele>399.1</ele>
        <time>2021-08-01T13:23:42Z</time>
      </trkpt>
      <trkpt lat="48.48681" lon="7.18248">
        <ele>399.5</ele>
        <time>2021-08-01T13:23:43Z</time>
      </trkpt>
      <trkpt lat="48.48683" lon="7.18248">
        <ele>399.6</ele>
        <time>2021-08-01T13:23:44Z</time>
      </trkpt>
      <trkpt lat="48.48687" lon="7.18247">
        <ele>400</ele>
        <time>2021-08-01T13:23:46Z</time>
      </trkpt>
      <trkpt lat="48.48689" lon="7.18242">
        <ele>400.4</ele>
        <time>2021-08-01T13:23:48Z</time>
      </trkpt>
      <trkpt lat="48.4869" lon="7.18241">
        <ele>400.5</ele>
        <time>2021-08-01T13:23:49Z</time>
      </trkpt>
      <trkpt lat="48.48691" lon="7.1824">
        <ele>400.6</ele>
        <time>2021-08-01T13:23:51Z</time>
      </trkpt>
      <trkpt lat="48.48693" lon="7.18239">
        <ele>400.7</ele>
        <time>2021-08-01T13:23:52Z</time>
      </trkpt>
      <trkpt lat="48.48694" lon="7.18238">
        <ele>400.9</ele>
        <time>2021-08-01T13:23:53Z</time>
      </trkpt>
      <trkpt lat="48.48699" lon="7.18239">
        <ele>401.4</ele>
        <time>2021-08-01T13:23:55Z</time>
      </trkpt>
      <trkpt lat="48.48702" lon="7.18239">
        <ele>401.6</ele>
        <time>2021-08-01T13:23:57Z</time>
      </trkpt>
      <trkpt lat="48.48704" lon="7.18239">
        <ele>401.8</ele>
        <time>2021-08-01T13:23:59Z</time>
      </trkpt>
      <trkpt lat="48.48706" lon="7.18239">
        <ele>402</ele>
        <time>2021-08-01T13:24:00Z</time>
      </trkpt>
      <trkpt lat="48.48709" lon="7.18239">
        <ele>402.2</ele>
        <time>2021-08-01T13:24:01Z</time>
      </trkpt>
      <trkpt lat="48.48713" lon="7.18238">
        <ele>402.5</ele>
        <time>2021-08-01T13:24:03Z</time>
      </trkpt>
      <trkpt lat="48.48714" lon="7.18238">
        <ele>402.6</ele>
        <time>2021-08-01T13:24:04Z</time>
      </trkpt>
      <trkpt lat="48.48716" lon="7.18238">
        <ele>402.7</ele>
        <time>2021-08-01T13:24:05Z</time>
      </trkpt>
      <trkpt lat="48.48717" lon="7.18236">
        <ele>402.9</ele>
        <time>2021-08-01T13:24:06Z</time>
      </trkpt>
      <trkpt lat="48.48717" lon="7.18235">
        <ele>402.9</ele>
        <time>2021-08-01T13:24:07Z</time>
      </trkpt>
      <trkpt lat="48.48718" lon="7.18235">
        <ele>402.9</ele>
        <time>2021-08-01T13:24:09Z</time>
      </trkpt>
      <trkpt lat="48.48718" lon="7.18235">
        <ele>402.9</ele>
        <time>2021-08-01T13:24:10Z</time>
      </trkpt>
      <trkpt lat="48.48718" lon="7.18235">
        <ele>403</ele>
        <time>2021-08-01T13:24:12Z</time>
      </trkpt>
      <trkpt lat="48.48718" lon="7.18235">
        <ele>403</ele>
        <time>2021-08-01T13:24:14Z</time>
      </trkpt>
      <trkpt lat="48.48735" lon="7.18268">
        <ele>404</ele>
        <time>2021-08-01T13:24:55Z</time>
      </trkpt>
      <trkpt lat="48.48737" lon="7.18263">
        <ele>404.2</ele>
        <time>2021-08-01T13:24:56Z</time>
      </trkpt>
      <trkpt lat="48.48739" lon="7.1826">
        <ele>404.2</ele>
        <time>2021-08-01T13:24:57Z</time>
      </trkpt>
      <trkpt lat="48.4874" lon="7.18258">
        <ele>404.3</ele>
        <time>2021-08-01T13:24:58Z</time>
      </trkpt>
      <trkpt lat="48.4874" lon="7.18255">
        <ele>404.3</ele>
        <time>2021-08-01T13:24:59Z</time>
      </trkpt>
      <trkpt lat="48.4874" lon="7.18253">
        <ele>404.3</ele>
        <time>2021-08-01T13:25:01Z</time>
      </trkpt>
      <trkpt lat="48.48739" lon="7.18251">
        <ele>404.3</ele>
        <time>2021-08-01T13:25:02Z</time>
      </trkpt>
      <trkpt lat="48.48738" lon="7.18251">
        <ele>404.4</ele>
        <time>2021-08-01T13:25:04Z</time>
      </trkpt>
      <trkpt lat="48.48737" lon="7.18251">
        <ele>404.4</ele>
        <time>2021-08-01T13:25:06Z</time>
      </trkpt>
      <trkpt lat="48.48737" lon="7.1825">
        <ele>404.4</ele>
        <time>2021-08-01T13:25:07Z</time>
      </trkpt>
      <trkpt lat="48.48737" lon="7.1825">
        <ele>404.4</ele>
        <time>2021-08-01T13:25:08Z</time>
      </trkpt>
      <trkpt lat="48.48719" lon="7.18253">
        <ele>403.4</ele>
        <time>2021-08-01T13:30:17Z</time>
      </trkpt>
      <trkpt lat="48.48709" lon="7.1826">
        <ele>403.4</ele>
        <time>2021-08-01T13:30:19Z</time>
      </trkpt>
      <trkpt lat="48.48704" lon="7.18262">
        <ele>403.4</ele>
        <time>2021-08-01T13:30:20Z</time>
      </trkpt>
      <trkpt lat="48.48697" lon="7.18265">
        <ele>403.4</ele>
        <time>2021-08-01T13:30:22Z</time>
      </trkpt>
      <trkpt lat="48.48693" lon="7.18265">
        <ele>403.5</ele>
        <time>2021-08-01T13:30:23Z</time>
      </trkpt>
      <trkpt lat="48.48687" lon="7.18265">
        <ele>403.6</ele>
        <time>2021-08-01T13:30:24Z</time>
      </trkpt>
      <trkpt lat="48.48681" lon="7.18269">
        <ele>403.7</ele>
        <time>2021-08-01T13:30:26Z</time>
      </trkpt>
      <trkpt lat="48.48675" lon="7.18274">
        <ele>403.9</ele>
        <time>2021-08-01T13:30:27Z</time>
      </trkpt>
      <trkpt lat="48.48671" lon="7.1828">
        <ele>404.1</ele>
        <time>2021-08-01T13:30:29Z</time>
      </trkpt>
      <trkpt lat="48.48669" lon="7.18282">
        <ele>404.3</ele>
        <time>2021-08-01T13:30:30Z</time>
      </trkpt>
      <trkpt lat="48.48666" lon="7.18284">
        <ele>404.4</ele>
        <time>2021-08-01T13:30:31Z</time>
      </trkpt>
      <trkpt lat="48.48664" lon="7.18287">
        <ele>404.6</ele>
        <time>2021-08-01T13:30:33Z</time>
      </trkpt>
      <trkpt lat="48.48662" lon="7.1829">
        <ele>404.7</ele>
        <time>2021-08-01T13:30:35Z</time>
      </trkpt>
      <trkpt lat="48.48661" lon="7.18293">
        <ele>404.9</ele>
        <time>2021-08-01T13:30:36Z</time>
      </trkpt>
      <trkpt lat="48.48659" lon="7.18298">
        <ele>405.2</ele>
        <time>2021-08-01T13:30:38Z</time>
      </trkpt>
      <trkpt lat="48.48658" lon="7.18303">
        <ele>405.4</ele>
        <time>2021-08-01T13:30:40Z</time>
      </trkpt>
      <trkpt lat="48.48658" lon="7.18305">
        <ele>405.5</ele>
        <time>2021-08-01T13:30:41Z</time>
      </trkpt>
      <trkpt lat="48.48656" lon="7.18308">
        <ele>405.7</ele>
        <time>2021-08-01T13:30:43Z</time>
      </trkpt>
      <trkpt lat="48.48652" lon="7.18313">
        <ele>406</ele>
        <time>2021-08-01T13:30:45Z</time>
      </trkpt>
      <trkpt lat="48.48651" lon="7.18314">
        <ele>406.1</ele>
        <time>2021-08-01T13:30:46Z</time>
      </trkpt>
      <trkpt lat="48.4865" lon="7.18315">
        <ele>406.2</ele>
        <time>2021-08-01T13:30:47Z</time>
      </trkpt>
      <trkpt lat="48.48647" lon="7.18317">
        <ele>406.5</ele>
        <time>2021-08-01T13:30:48Z</time>
      </trkpt>
      <trkpt lat="48.48643" lon="7.1832">
        <ele>406.8</ele>
        <time>2021-08-01T13:30:50Z</time>
      </trkpt>
      <trkpt lat="48.48642" lon="7.1832">
        <ele>406.9</ele>
        <time>2021-08-01T13:30:52Z</time>
      </trkpt>
      <trkpt lat="48.4864" lon="7.18321">
        <ele>407</ele>
        <time>2021-08-01T13:30:53Z</time>
      </trkpt>
      <trkpt lat="48.48637" lon="7.18323">
        <ele>407.3</ele>
        <time>2021-08-01T13:30:55Z</time>
      </trkpt>
      <trkpt lat="48.48635" lon="7.18324">
        <ele>407.4</ele>
        <time>2021-08-01T13:30:56Z</time>
      </trkpt>
      <trkpt lat="48.48632" lon="7.18325">
        <ele>407.6</ele>
        <time>2021-08-01T13:30:58Z</time>
      </trkpt>
      <trkpt lat="48.48632" lon="7.18325">
        <ele>407.6</ele>
        <time>2021-08-01T13:30:59Z</time>
      </trkpt>
      <trkpt lat="48.4863" lon="7.18328">
        <ele>407.8</ele>
        <time>2021-08-01T13:31:00Z</time>
      </trkpt>
      <trkpt lat="48.48628" lon="7.1833">
        <ele>408</ele>
        <time>2021-08-01T13:31:02Z</time>
      </trkpt>
      <trkpt lat="48.48627" lon="7.18332">
        <ele>408.1</ele>
        <time>2021-08-01T13:31:03Z</time>
      </trkpt>
      <trkpt lat="48.48626" lon="7.18334">
        <ele>408.2</ele>
        <time>2021-08-01T13:31:04Z</time>
      </trkpt>
      <trkpt lat="48.48624" lon="7.18339">
        <ele>408.4</ele>
        <time>2021-08-01T13:31:06Z</time>
      </trkpt>
      <trkpt lat="48.48621" lon="7.18341">
        <ele>408.5</ele>
        <time>2021-08-01T13:31:07Z</time>
      </trkpt>
      <trkpt lat="48.48619" lon="7.18341">
        <ele>408.6</ele>
        <time>2021-08-01T13:31:08Z</time>
      </trkpt>
      <trkpt lat="48.48615" lon="7.18344">
        <ele>408.8</ele>
        <time>2021-08-01T13:31:10Z</time>
      </trkpt>
      <trkpt lat="48.48614" lon="7.18346">
        <ele>408.8</ele>
        <time>2021-08-01T13:31:12Z</time>
      </trkpt>
      <trkpt lat="48.48613" lon="7.18347">
        <ele>408.9</ele>
        <time>2021-08-01T13:31:13Z</time>
      </trkpt>
      <trkpt lat="48.48611" lon="7.18349">
        <ele>409</ele>
        <time>2021-08-01T13:31:15Z</time>
      </trkpt>
      <trkpt lat="48.48611" lon="7.1835">
        <ele>409</ele>
        <time>2021-08-01T13:31:16Z</time>
      </trkpt>
      <trkpt lat="48.4861" lon="7.18351">
        <ele>409</ele>
        <time>2021-08-01T13:31:17Z</time>
      </trkpt>
      <trkpt lat="48.48609" lon="7.18356">
        <ele>409.1</ele>
        <time>2021-08-01T13:31:19Z</time>
      </trkpt>
      <trkpt lat="48.48608" lon="7.18362">
        <ele>409.2</ele>
        <time>2021-08-01T13:31:21Z</time>
      </trkpt>
      <trkpt lat="48.48605" lon="7.18366">
        <ele>409.3</ele>
        <time>2021-08-01T13:31:22Z</time>
      </trkpt>
      <trkpt lat="48.48603" lon="7.18372">
        <ele>409.4</ele>
        <time>2021-08-01T13:31:24Z</time>
      </trkpt>
      <trkpt lat="48.48603" lon="7.18374">
        <ele>409.4</ele>
        <time>2021-08-01T13:31:26Z</time>
      </trkpt>
      <trkpt lat="48.48602" lon="7.18376">
        <ele>409.4</ele>
        <time>2021-08-01T13:31:27Z</time>
      </trkpt>
      <trkpt lat="48.486" lon="7.1838">
        <ele>409.4</ele>
        <time>2021-08-01T13:31:28Z</time>
      </trkpt>
      <trkpt lat="48.48599" lon="7.18382">
        <ele>409.5</ele>
        <time>2021-08-01T13:31:29Z</time>
      </trkpt>
      <trkpt lat="48.48597" lon="7.18387">
        <ele>409.5</ele>
        <time>2021-08-01T13:31:31Z</time>
      </trkpt>
      <trkpt lat="48.48595" lon="7.18391">
        <ele>409.5</ele>
        <time>2021-08-01T13:31:33Z</time>
      </trkpt>
      <trkpt lat="48.48593" lon="7.18397">
        <ele>409.5</ele>
        <time>2021-08-01T13:31:35Z</time>
      </trkpt>
      <trkpt lat="48.4859" lon="7.184">
        <ele>409.5</ele>
        <time>2021-08-01T13:31:37Z</time>
      </trkpt>
      <trkpt lat="48.48589" lon="7.18402">
        <ele>409.5</ele>
        <time>2021-08-01T13:31:38Z</time>
      </trkpt>
      <trkpt lat="48.48587" lon="7.18406">
        <ele>409.5</ele>
        <time>2021-08-01T13:31:40Z</time>
      </trkpt>
      <trkpt lat="48.48585" lon="7.18411">
        <ele>409.5</ele>
        <time>2021-08-01T13:31:41Z</time>
      </trkpt>
      <trkpt lat="48.48583" lon="7.18415">
        <ele>409.5</ele>
        <time>2021-08-01T13:31:43Z</time>
      </trkpt>
      <trkpt lat="48.48581" lon="7.1842">
        <ele>409.5</ele>
        <time>2021-08-01T13:31:44Z</time>
      </trkpt>
      <trkpt lat="48.48579" lon="7.18424">
        <ele>409.5</ele>
        <time>2021-08-01T13:31:45Z</time>
      </trkpt>
      <trkpt lat="48.48578" lon="7.18425">
        <ele>409.5</ele>
        <time>2021-08-01T13:31:46Z</time>
      </trkpt>
      <trkpt lat="48.48575" lon="7.18432">
        <ele>409.5</ele>
        <time>2021-08-01T13:31:48Z</time>
      </trkpt>
      <trkpt lat="48.48573" lon="7.18435">
        <ele>409.5</ele>
        <time>2021-08-01T13:31:49Z</time>
      </trkpt>
      <trkpt lat="48.48571" lon="7.18438">
        <ele>409.4</ele>
        <time>2021-08-01T13:31:51Z</time>
      </trkpt>
      <trkpt lat="48.48568" lon="7.18444">
        <ele>409.4</ele>
        <time>2021-08-01T13:31:52Z</time>
      </trkpt>
      <trkpt lat="48.48569" lon="7.18452">
        <ele>409.4</ele>
        <time>2021-08-01T13:31:54Z</time>
      </trkpt>
      <trkpt lat="48.48569" lon="7.18456">
        <ele>409.4</ele>
        <time>2021-08-01T13:31:55Z</time>
      </trkpt>
      <trkpt lat="48.48568" lon="7.1846">
        <ele>409.3</ele>
        <time>2021-08-01T13:31:56Z</time>
      </trkpt>
      <trkpt lat="48.48568" lon="7.18465">
        <ele>409.2</ele>
        <time>2021-08-01T13:31:58Z</time>
      </trkpt>
      <trkpt lat="48.48568" lon="7.18475">
        <ele>409.1</ele>
        <time>2021-08-01T13:32:00Z</time>
      </trkpt>
      <trkpt lat="48.48568" lon="7.18479">
        <ele>409</ele>
        <time>2021-08-01T13:32:01Z</time>
      </trkpt>
      <trkpt lat="48.48568" lon="7.18488">
        <ele>408.7</ele>
        <time>2021-08-01T13:32:03Z</time>
      </trkpt>
      <trkpt lat="48.48569" lon="7.18493">
        <ele>408.6</ele>
        <time>2021-08-01T13:32:04Z</time>
      </trkpt>
      <trkpt lat="48.48569" lon="7.18498">
        <ele>408.5</ele>
        <time>2021-08-01T13:32:05Z</time>
      </trkpt>
      <trkpt lat="48.48569" lon="7.18509">
        <ele>408.2</ele>
        <time>2021-08-01T13:32:07Z</time>
      </trkpt>
      <trkpt lat="48.48568" lon="7.18516">
        <ele>408</ele>
        <time>2021-08-01T13:32:08Z</time>
      </trkpt>
      <trkpt lat="48.48567" lon="7.18526">
        <ele>407.8</ele>
        <time>2021-08-01T13:32:10Z</time>
      </trkpt>
      <trkpt lat="48.48567" lon="7.18534">
        <ele>407.6</ele>
        <time>2021-08-01T13:32:11Z</time>
      </trkpt>
      <trkpt lat="48.48567" lon="7.18542">
        <ele>407.4</ele>
        <time>2021-08-01T13:32:12Z</time>
      </trkpt>
      <trkpt lat="48.48568" lon="7.18549">
        <ele>407.3</ele>
        <time>2021-08-01T13:32:13Z</time>
      </trkpt>
      <trkpt lat="48.48569" lon="7.18557">
        <ele>407.8</ele>
        <time>2021-08-01T13:32:14Z</time>
      </trkpt>
      <trkpt lat="48.48577" lon="7.18569">
        <ele>408.9</ele>
        <time>2021-08-01T13:32:16Z</time>
      </trkpt>
      <trkpt lat="48.48586" lon="7.18579">
        <ele>410.1</ele>
        <time>2021-08-01T13:32:18Z</time>
      </trkpt>
      <trkpt lat="48.48591" lon="7.18583">
        <ele>410.7</ele>
        <time>2021-08-01T13:32:19Z</time>
      </trkpt>
      <trkpt lat="48.48603" lon="7.1859">
        <ele>412.3</ele>
        <time>2021-08-01T13:32:21Z</time>
      </trkpt>
      <trkpt lat="48.48608" lon="7.18593">
        <ele>413.1</ele>
        <time>2021-08-01T13:32:22Z</time>
      </trkpt>
      <trkpt lat="48.48619" lon="7.18601">
        <ele>414.7</ele>
        <time>2021-08-01T13:32:24Z</time>
      </trkpt>
      <trkpt lat="48.48623" lon="7.18605">
        <ele>415.4</ele>
        <time>2021-08-01T13:32:25Z</time>
      </trkpt>
      <trkpt lat="48.48633" lon="7.18611">
        <ele>416.9</ele>
        <time>2021-08-01T13:32:27Z</time>
      </trkpt>
      <trkpt lat="48.48639" lon="7.18618">
        <ele>417.9</ele>
        <time>2021-08-01T13:32:29Z</time>
      </trkpt>
      <trkpt lat="48.48641" lon="7.18621">
        <ele>418.4</ele>
        <time>2021-08-01T13:32:30Z</time>
      </trkpt>
      <trkpt lat="48.48643" lon="7.18628">
        <ele>417</ele>
        <time>2021-08-01T13:32:32Z</time>
      </trkpt>
      <trkpt lat="48.48643" lon="7.18633">
        <ele>416.5</ele>
        <time>2021-08-01T13:32:33Z</time>
      </trkpt>
      <trkpt lat="48.48643" lon="7.18635">
        <ele>416.2</ele>
        <time>2021-08-01T13:32:34Z</time>
      </trkpt>
      <trkpt lat="48.48642" lon="7.1864">
        <ele>415.7</ele>
        <time>2021-08-01T13:32:35Z</time>
      </trkpt>
      <trkpt lat="48.48641" lon="7.18642">
        <ele>415.4</ele>
        <time>2021-08-01T13:32:36Z</time>
      </trkpt>
      <trkpt lat="48.48638" lon="7.18648">
        <ele>414.5</ele>
        <time>2021-08-01T13:32:37Z</time>
      </trkpt>
      <trkpt lat="48.48621" lon="7.18666">
        <ele>411.1</ele>
        <time>2021-08-01T13:32:39Z</time>
      </trkpt>
      <trkpt lat="48.48615" lon="7.18673">
        <ele>410</ele>
        <time>2021-08-01T13:32:40Z</time>
      </trkpt>
      <trkpt lat="48.48609" lon="7.18679">
        <ele>409</ele>
        <time>2021-08-01T13:32:41Z</time>
      </trkpt>
      <trkpt lat="48.48599" lon="7.18688">
        <ele>407.6</ele>
        <time>2021-08-01T13:32:43Z</time>
      </trkpt>
      <trkpt lat="48.4859" lon="7.18699">
        <ele>406.2</ele>
        <time>2021-08-01T13:32:45Z</time>
      </trkpt>
      <trkpt lat="48.48587" lon="7.18705">
        <ele>405.6</ele>
        <time>2021-08-01T13:32:46Z</time>
      </trkpt>
      <trkpt lat="48.48582" lon="7.18714">
        <ele>404.7</ele>
        <time>2021-08-01T13:32:48Z</time>
      </trkpt>
      <trkpt lat="48.48579" lon="7.18715">
        <ele>404.4</ele>
        <time>2021-08-01T13:32:49Z</time>
      </trkpt>
      <trkpt lat="48.48571" lon="7.18727">
        <ele>403.1</ele>
        <time>2021-08-01T13:32:51Z</time>
      </trkpt>
      <trkpt lat="48.48567" lon="7.18733">
        <ele>402.5</ele>
        <time>2021-08-01T13:32:52Z</time>
      </trkpt>
      <trkpt lat="48.48563" lon="7.18739">
        <ele>401.9</ele>
        <time>2021-08-01T13:32:53Z</time>
      </trkpt>
      <trkpt lat="48.48557" lon="7.18747">
        <ele>400.9</ele>
        <time>2021-08-01T13:32:55Z</time>
      </trkpt>
      <trkpt lat="48.4855" lon="7.18759">
        <ele>400.6</ele>
        <time>2021-08-01T13:32:57Z</time>
      </trkpt>
      <trkpt lat="48.48549" lon="7.18765">
        <ele>400.6</ele>
        <time>2021-08-01T13:32:58Z</time>
      </trkpt>
      <trkpt lat="48.48545" lon="7.18772">
        <ele>400.7</ele>
        <time>2021-08-01T13:32:59Z</time>
      </trkpt>
      <trkpt lat="48.48541" lon="7.1878">
        <ele>400.7</ele>
        <time>2021-08-01T13:33:01Z</time>
      </trkpt>
      <trkpt lat="48.48537" lon="7.18789">
        <ele>400.7</ele>
        <time>2021-08-01T13:33:02Z</time>
      </trkpt>
      <trkpt lat="48.48534" lon="7.18797">
        <ele>401.5</ele>
        <time>2021-08-01T13:33:04Z</time>
      </trkpt>
      <trkpt lat="48.48529" lon="7.18809">
        <ele>402.9</ele>
        <time>2021-08-01T13:33:06Z</time>
      </trkpt>
      <trkpt lat="48.48525" lon="7.18816">
        <ele>403.6</ele>
        <time>2021-08-01T13:33:07Z</time>
      </trkpt>
      <trkpt lat="48.4852" lon="7.18822">
        <ele>404.5</ele>
        <time>2021-08-01T13:33:08Z</time>
      </trkpt>
      <trkpt lat="48.48519" lon="7.18825">
        <ele>404.9</ele>
        <time>2021-08-01T13:33:09Z</time>
      </trkpt>
      <trkpt lat="48.48516" lon="7.18837">
        <ele>406</ele>
        <time>2021-08-01T13:33:11Z</time>
      </trkpt>
      <trkpt lat="48.48513" lon="7.18848">
        <ele>407</ele>
        <time>2021-08-01T13:33:12Z</time>
      </trkpt>
      <trkpt lat="48.4851" lon="7.18856">
        <ele>407.8</ele>
        <time>2021-08-01T13:33:13Z</time>
      </trkpt>
      <trkpt lat="48.48507" lon="7.18862">
        <ele>408.5</ele>
        <time>2021-08-01T13:33:15Z</time>
      </trkpt>
      <trkpt lat="48.48504" lon="7.18872">
        <ele>408.6</ele>
        <time>2021-08-01T13:33:16Z</time>
      </trkpt>
      <trkpt lat="48.485" lon="7.18883">
        <ele>408.1</ele>
        <time>2021-08-01T13:33:18Z</time>
      </trkpt>
      <trkpt lat="48.48499" lon="7.18889">
        <ele>407.8</ele>
        <time>2021-08-01T13:33:19Z</time>
      </trkpt>
      <trkpt lat="48.48498" lon="7.18898">
        <ele>407.4</ele>
        <time>2021-08-01T13:33:20Z</time>
      </trkpt>
      <trkpt lat="48.48493" lon="7.18901">
        <ele>407</ele>
        <time>2021-08-01T13:33:21Z</time>
      </trkpt>
      <trkpt lat="48.48494" lon="7.18906">
        <ele>406.7</ele>
        <time>2021-08-01T13:33:23Z</time>
      </trkpt>
      <trkpt lat="48.48498" lon="7.18906">
        <ele>406.3</ele>
        <time>2021-08-01T13:33:24Z</time>
      </trkpt>
      <trkpt lat="48.48501" lon="7.18906">
        <ele>406.1</ele>
        <time>2021-08-01T13:33:25Z</time>
      </trkpt>
      <trkpt lat="48.48504" lon="7.18906">
        <ele>405.9</ele>
        <time>2021-08-01T13:33:26Z</time>
      </trkpt>
      <trkpt lat="48.48498" lon="7.18919">
        <ele>404.8</ele>
        <time>2021-08-01T13:33:28Z</time>
      </trkpt>
      <trkpt lat="48.48491" lon="7.18932">
        <ele>403.6</ele>
        <time>2021-08-01T13:33:30Z</time>
      </trkpt>
      <trkpt lat="48.48483" lon="7.18945">
        <ele>402.7</ele>
        <time>2021-08-01T13:33:32Z</time>
      </trkpt>
      <trkpt lat="48.48476" lon="7.18957">
        <ele>401.7</ele>
        <time>2021-08-01T13:33:33Z</time>
      </trkpt>
      <trkpt lat="48.48469" lon="7.1897">
        <ele>400.5</ele>
        <time>2021-08-01T13:34:29Z</time>
      </trkpt>
      <trkpt lat="48.48461" lon="7.18983">
        <ele>399.3</ele>
        <time>2021-08-01T13:34:31Z</time>
      </trkpt>
      <trkpt lat="48.48461" lon="7.18999">
        <ele>398</ele>
        <time>2021-08-01T13:34:33Z</time>
      </trkpt>
      <trkpt lat="48.48459" lon="7.19008">
        <ele>397.3</ele>
        <time>2021-08-01T13:34:34Z</time>
      </trkpt>
      <trkpt lat="48.48452" lon="7.19026">
        <ele>395.8</ele>
        <time>2021-08-01T13:34:36Z</time>
      </trkpt>
      <trkpt lat="48.48445" lon="7.19046">
        <ele>394.3</ele>
        <time>2021-08-01T13:34:38Z</time>
      </trkpt>
      <trkpt lat="48.48439" lon="7.1906">
        <ele>393</ele>
        <time>2021-08-01T13:34:40Z</time>
      </trkpt>
      <trkpt lat="48.48437" lon="7.19065">
        <ele>392.6</ele>
        <time>2021-08-01T13:34:41Z</time>
      </trkpt>
      <trkpt lat="48.48434" lon="7.19072">
        <ele>392.1</ele>
        <time>2021-08-01T13:34:43Z</time>
      </trkpt>
      <trkpt lat="48.48432" lon="7.1908">
        <ele>391.5</ele>
        <time>2021-08-01T13:34:44Z</time>
      </trkpt>
      <trkpt lat="48.48427" lon="7.19092">
        <ele>390.4</ele>
        <time>2021-08-01T13:34:46Z</time>
      </trkpt>
      <trkpt lat="48.48423" lon="7.19097">
        <ele>389.8</ele>
        <time>2021-08-01T13:34:47Z</time>
      </trkpt>
      <trkpt lat="48.48422" lon="7.19101">
        <ele>389.5</ele>
        <time>2021-08-01T13:34:48Z</time>
      </trkpt>
      <trkpt lat="48.48419" lon="7.19109">
        <ele>388.9</ele>
        <time>2021-08-01T13:34:49Z</time>
      </trkpt>
      <trkpt lat="48.48416" lon="7.19117">
        <ele>388.3</ele>
        <time>2021-08-01T13:34:50Z</time>
      </trkpt>
      <trkpt lat="48.48408" lon="7.19138">
        <ele>386.4</ele>
        <time>2021-08-01T13:34:51Z</time>
      </trkpt>
      <trkpt lat="48.48401" lon="7.19156">
        <ele>384.7</ele>
        <time>2021-08-01T13:34:53Z</time>
      </trkpt>
      <trkpt lat="48.48394" lon="7.19174">
        <ele>382.8</ele>
        <time>2021-08-01T13:34:55Z</time>
      </trkpt>
      <trkpt lat="48.48384" lon="7.19202">
        <ele>380.2</ele>
        <time>2021-08-01T13:34:57Z</time>
      </trkpt>
      <trkpt lat="48.48374" lon="7.19226">
        <ele>378</ele>
        <time>2021-08-01T13:34:59Z</time>
      </trkpt>
      <trkpt lat="48.48361" lon="7.19247">
        <ele>375.8</ele>
        <time>2021-08-01T13:35:01Z</time>
      </trkpt>
      <trkpt lat="48.48348" lon="7.19269">
        <ele>373.4</ele>
        <time>2021-08-01T13:35:03Z</time>
      </trkpt>
      <trkpt lat="48.48341" lon="7.19282">
        <ele>372.2</ele>
        <time>2021-08-01T13:35:04Z</time>
      </trkpt>
      <trkpt lat="48.48336" lon="7.19296">
        <ele>370.9</ele>
        <time>2021-08-01T13:35:05Z</time>
      </trkpt>
      <trkpt lat="48.48323" lon="7.19321">
        <ele>368.3</ele>
        <time>2021-08-01T13:35:07Z</time>
      </trkpt>
      <trkpt lat="48.48308" lon="7.19346">
        <ele>365.6</ele>
        <time>2021-08-01T13:35:09Z</time>
      </trkpt>
      <trkpt lat="48.483" lon="7.19359">
        <ele>364.2</ele>
        <time>2021-08-01T13:35:10Z</time>
      </trkpt>
      <trkpt lat="48.48293" lon="7.19373">
        <ele>362.9</ele>
        <time>2021-08-01T13:35:11Z</time>
      </trkpt>
      <trkpt lat="48.48284" lon="7.19396">
        <ele>360.7</ele>
        <time>2021-08-01T13:35:13Z</time>
      </trkpt>
      <trkpt lat="48.48282" lon="7.19408">
        <ele>359.7</ele>
        <time>2021-08-01T13:35:14Z</time>
      </trkpt>
      <trkpt lat="48.48277" lon="7.19426">
        <ele>358</ele>
        <time>2021-08-01T13:35:16Z</time>
      </trkpt>
      <trkpt lat="48.48275" lon="7.19435">
        <ele>357.2</ele>
        <time>2021-08-01T13:35:17Z</time>
      </trkpt>
      <trkpt lat="48.48266" lon="7.19453">
        <ele>355.4</ele>
        <time>2021-08-01T13:35:19Z</time>
      </trkpt>
      <trkpt lat="48.48261" lon="7.19471">
        <ele>353.8</ele>
        <time>2021-08-01T13:35:21Z</time>
      </trkpt>
      <trkpt lat="48.48258" lon="7.19479">
        <ele>353.1</ele>
        <time>2021-08-01T13:35:22Z</time>
      </trkpt>
      <trkpt lat="48.48252" lon="7.19496">
        <ele>351.6</ele>
        <time>2021-08-01T13:35:24Z</time>
      </trkpt>
      <trkpt lat="48.4825" lon="7.19506">
        <ele>350.9</ele>
        <time>2021-08-01T13:35:25Z</time>
      </trkpt>
      <trkpt lat="48.48249" lon="7.19526">
        <ele>350.4</ele>
        <time>2021-08-01T13:35:27Z</time>
      </trkpt>
      <trkpt lat="48.48249" lon="7.19536">
        <ele>350.1</ele>
        <time>2021-08-01T13:35:28Z</time>
      </trkpt>
      <trkpt lat="48.48249" lon="7.19546">
        <ele>349.9</ele>
        <time>2021-08-01T13:35:29Z</time>
      </trkpt>
      <trkpt lat="48.48248" lon="7.19554">
        <ele>349.7</ele>
        <time>2021-08-01T13:35:30Z</time>
      </trkpt>
      <trkpt lat="48.48249" lon="7.19562">
        <ele>349.5</ele>
        <time>2021-08-01T13:35:31Z</time>
      </trkpt>
      <trkpt lat="48.48251" lon="7.19578">
        <ele>349</ele>
        <time>2021-08-01T13:35:33Z</time>
      </trkpt>
      <trkpt lat="48.48253" lon="7.19585">
        <ele>348.8</ele>
        <time>2021-08-01T13:35:34Z</time>
      </trkpt>
      <trkpt lat="48.48255" lon="7.19596">
        <ele>348.3</ele>
        <time>2021-08-01T13:35:36Z</time>
      </trkpt>
      <trkpt lat="48.48255" lon="7.19601">
        <ele>348.1</ele>
        <time>2021-08-01T13:35:37Z</time>
      </trkpt>
      <trkpt lat="48.48255" lon="7.19604">
        <ele>348.2</ele>
        <time>2021-08-01T13:35:39Z</time>
      </trkpt>
      <trkpt lat="48.48255" lon="7.19605">
        <ele>348.3</ele>
        <time>2021-08-01T13:35:40Z</time>
      </trkpt>
      <trkpt lat="48.48255" lon="7.19599">
        <ele>348.5</ele>
        <time>2021-08-01T13:35:42Z</time>
      </trkpt>
      <trkpt lat="48.48255" lon="7.19593">
        <ele>348.7</ele>
        <time>2021-08-01T13:35:43Z</time>
      </trkpt>
      <trkpt lat="48.48254" lon="7.19586">
        <ele>349</ele>
        <time>2021-08-01T13:35:45Z</time>
      </trkpt>
      <trkpt lat="48.48254" lon="7.19579">
        <ele>349.2</ele>
        <time>2021-08-01T13:35:46Z</time>
      </trkpt>
      <trkpt lat="48.48254" lon="7.19573">
        <ele>349.4</ele>
        <time>2021-08-01T13:35:48Z</time>
      </trkpt>
      <trkpt lat="48.48254" lon="7.19566">
        <ele>349.5</ele>
        <time>2021-08-01T13:35:49Z</time>
      </trkpt>
      <trkpt lat="48.48254" lon="7.19559">
        <ele>349.7</ele>
        <time>2021-08-01T13:36:23Z</time>
      </trkpt>
      <trkpt lat="48.48253" lon="7.19553">
        <ele>349.8</ele>
        <time>2021-08-01T13:36:24Z</time>
      </trkpt>
      <trkpt lat="48.48255" lon="7.1955">
        <ele>349.9</ele>
        <time>2021-08-01T13:36:25Z</time>
      </trkpt>
      <trkpt lat="48.48255" lon="7.19537">
        <ele>350.2</ele>
        <time>2021-08-01T13:36:27Z</time>
      </trkpt>
      <trkpt lat="48.48255" lon="7.19526">
        <ele>350.4</ele>
        <time>2021-08-01T13:36:29Z</time>
      </trkpt>
      <trkpt lat="48.48263" lon="7.19528">
        <ele>350.3</ele>
        <time>2021-08-01T13:36:31Z</time>
      </trkpt>
      <trkpt lat="48.48265" lon="7.19529">
        <ele>350.3</ele>
        <time>2021-08-01T13:36:33Z</time>
      </trkpt>
      <trkpt lat="48.48265" lon="7.19529">
        <ele>350.3</ele>
        <time>2021-08-01T13:36:34Z</time>
      </trkpt>
      <trkpt lat="48.48265" lon="7.19531">
        <ele>350.2</ele>
        <time>2021-08-01T13:36:36Z</time>
      </trkpt>
      <trkpt lat="48.48265" lon="7.19534">
        <ele>350.2</ele>
        <time>2021-08-01T13:36:37Z</time>
      </trkpt>
      <trkpt lat="48.48263" lon="7.19538">
        <ele>350.1</ele>
        <time>2021-08-01T13:36:39Z</time>
      </trkpt>
      <trkpt lat="48.48263" lon="7.19539">
        <ele>350.1</ele>
        <time>2021-08-01T13:36:40Z</time>
      </trkpt>
      <trkpt lat="48.48262" lon="7.19545">
        <ele>349.9</ele>
        <time>2021-08-01T13:36:42Z</time>
      </trkpt>
      <trkpt lat="48.48262" lon="7.19552">
        <ele>349.8</ele>
        <time>2021-08-01T13:36:44Z</time>
      </trkpt>
      <trkpt lat="48.48262" lon="7.19556">
        <ele>349.7</ele>
        <time>2021-08-01T13:36:45Z</time>
      </trkpt>
      <trkpt lat="48.48262" lon="7.19561">
        <ele>349.6</ele>
        <time>2021-08-01T13:36:46Z</time>
      </trkpt>
      <trkpt lat="48.48262" lon="7.19566">
        <ele>349.4</ele>
        <time>2021-08-01T13:36:47Z</time>
      </trkpt>
      <trkpt lat="48.48264" lon="7.19578">
        <ele>349.1</ele>
        <time>2021-08-01T13:36:49Z</time>
      </trkpt>
      <trkpt lat="48.48265" lon="7.19585">
        <ele>348.8</ele>
        <time>2021-08-01T13:36:50Z</time>
      </trkpt>
      <trkpt lat="48.48268" lon="7.19603">
        <ele>348.1</ele>
        <time>2021-08-01T13:36:52Z</time>
      </trkpt>
      <trkpt lat="48.48281" lon="7.1962">
        <ele>347</ele>
        <time>2021-08-01T13:36:54Z</time>
      </trkpt>
      <trkpt lat="48.48283" lon="7.19627">
        <ele>346.7</ele>
        <time>2021-08-01T13:36:55Z</time>
      </trkpt>
      <trkpt lat="48.48297" lon="7.19645">
        <ele>345.7</ele>
        <time>2021-08-01T13:36:57Z</time>
      </trkpt>
      <trkpt lat="48.483" lon="7.19653">
        <ele>345.3</ele>
        <time>2021-08-01T13:36:58Z</time>
      </trkpt>
      <trkpt lat="48.48302" lon="7.19661">
        <ele>345</ele>
        <time>2021-08-01T13:36:59Z</time>
      </trkpt>
      <trkpt lat="48.48306" lon="7.19676">
        <ele>344.4</ele>
        <time>2021-08-01T13:37:01Z</time>
      </trkpt>
      <trkpt lat="48.48308" lon="7.19696">
        <ele>343.8</ele>
        <time>2021-08-01T13:37:03Z</time>
      </trkpt>
      <trkpt lat="48.4831" lon="7.19716">
        <ele>343.3</ele>
        <time>2021-08-01T13:37:05Z</time>
      </trkpt>
      <trkpt lat="48.48311" lon="7.19725">
        <ele>343.1</ele>
        <time>2021-08-01T13:37:06Z</time>
      </trkpt>
      <trkpt lat="48.48315" lon="7.19734">
        <ele>342.9</ele>
        <time>2021-08-01T13:37:07Z</time>
      </trkpt>
      <trkpt lat="48.48319" lon="7.1975">
        <ele>342.5</ele>
        <time>2021-08-01T13:37:09Z</time>
      </trkpt>
      <trkpt lat="48.4832" lon="7.19757">
        <ele>342.4</ele>
        <time>2021-08-01T13:37:10Z</time>
      </trkpt>
      <trkpt lat="48.48323" lon="7.19771">
        <ele>342.1</ele>
        <time>2021-08-01T13:37:12Z</time>
      </trkpt>
      <trkpt lat="48.48323" lon="7.19774">
        <ele>342</ele>
        <time>2021-08-01T13:37:13Z</time>
      </trkpt>
      <trkpt lat="48.48321" lon="7.19788">
        <ele>341.7</ele>
        <time>2021-08-01T13:37:15Z</time>
      </trkpt>
      <trkpt lat="48.48327" lon="7.19801">
        <ele>341.4</ele>
        <time>2021-08-01T13:37:17Z</time>
      </trkpt>
      <trkpt lat="48.4833" lon="7.1981">
        <ele>341.3</ele>
        <time>2021-08-01T13:37:19Z</time>
      </trkpt>
      <trkpt lat="48.4833" lon="7.19815">
        <ele>341.2</ele>
        <time>2021-08-01T13:37:20Z</time>
      </trkpt>
      <trkpt lat="48.4833" lon="7.19825">
        <ele>341.1</ele>
        <time>2021-08-01T13:37:22Z</time>
      </trkpt>
      <trkpt lat="48.48341" lon="7.19917">
        <ele>339.5</ele>
        <time>2021-08-01T13:37:36Z</time>
      </trkpt>
      <trkpt lat="48.48339" lon="7.19931">
        <ele>339.3</ele>
        <time>2021-08-01T13:37:37Z</time>
      </trkpt>
      <trkpt lat="48.48337" lon="7.19955">
        <ele>339</ele>
        <time>2021-08-01T13:37:39Z</time>
      </trkpt>
      <trkpt lat="48.48338" lon="7.19969">
        <ele>339</ele>
        <time>2021-08-01T13:37:41Z</time>
      </trkpt>
      <trkpt lat="48.48337" lon="7.19975">
        <ele>339</ele>
        <time>2021-08-01T13:37:42Z</time>
      </trkpt>
      <trkpt lat="48.48336" lon="7.19978">
        <ele>338.9</ele>
        <time>2021-08-01T13:37:43Z</time>
      </trkpt>
      <trkpt lat="48.48335" lon="7.19986">
        <ele>338.9</ele>
        <time>2021-08-01T13:37:44Z</time>
      </trkpt>
      <trkpt lat="48.48336" lon="7.19995">
        <ele>338.9</ele>
        <time>2021-08-01T13:37:45Z</time>
      </trkpt>
      <trkpt lat="48.48338" lon="7.20004">
        <ele>338.8</ele>
        <time>2021-08-01T13:37:47Z</time>
      </trkpt>
      <trkpt lat="48.48344" lon="7.2003">
        <ele>338.7</ele>
        <time>2021-08-01T13:37:49Z</time>
      </trkpt>
      <trkpt lat="48.48342" lon="7.20038">
        <ele>338.6</ele>
        <time>2021-08-01T13:37:50Z</time>
      </trkpt>
      <trkpt lat="48.48341" lon="7.20049">
        <ele>338.5</ele>
        <time>2021-08-01T13:37:51Z</time>
      </trkpt>
      <trkpt lat="48.48342" lon="7.20058">
        <ele>338.3</ele>
        <time>2021-08-01T13:37:52Z</time>
      </trkpt>
      <trkpt lat="48.48343" lon="7.20072">
        <ele>338.1</ele>
        <time>2021-08-01T13:37:54Z</time>
      </trkpt>
      <trkpt lat="48.4834" lon="7.20079">
        <ele>338</ele>
        <time>2021-08-01T13:37:55Z</time>
      </trkpt>
      <trkpt lat="48.48339" lon="7.20085">
        <ele>337.9</ele>
        <time>2021-08-01T13:37:56Z</time>
      </trkpt>
      <trkpt lat="48.48341" lon="7.20092">
        <ele>337.8</ele>
        <time>2021-08-01T13:37:57Z</time>
      </trkpt>
      <trkpt lat="48.4834" lon="7.201">
        <ele>337.7</ele>
        <time>2021-08-01T13:37:58Z</time>
      </trkpt>
      <trkpt lat="48.48339" lon="7.20106">
        <ele>337.5</ele>
        <time>2021-08-01T13:37:59Z</time>
      </trkpt>
      <trkpt lat="48.48334" lon="7.20117">
        <ele>337.3</ele>
        <time>2021-08-01T13:38:01Z</time>
      </trkpt>
      <trkpt lat="48.48329" lon="7.20124">
        <ele>337.2</ele>
        <time>2021-08-01T13:38:02Z</time>
      </trkpt>
      <trkpt lat="48.48319" lon="7.20138">
        <ele>336.9</ele>
        <time>2021-08-01T13:38:04Z</time>
      </trkpt>
      <trkpt lat="48.48314" lon="7.20151">
        <ele>336.6</ele>
        <time>2021-08-01T13:38:06Z</time>
      </trkpt>
      <trkpt lat="48.48312" lon="7.20157">
        <ele>336.5</ele>
        <time>2021-08-01T13:38:07Z</time>
      </trkpt>
      <trkpt lat="48.48308" lon="7.20169">
        <ele>336.3</ele>
        <time>2021-08-01T13:38:09Z</time>
      </trkpt>
      <trkpt lat="48.48307" lon="7.20176">
        <ele>336.2</ele>
        <time>2021-08-01T13:38:10Z</time>
      </trkpt>
      <trkpt lat="48.48305" lon="7.20181">
        <ele>336.1</ele>
        <time>2021-08-01T13:38:11Z</time>
      </trkpt>
      <trkpt lat="48.48303" lon="7.20187">
        <ele>336</ele>
        <time>2021-08-01T13:38:12Z</time>
      </trkpt>
      <trkpt lat="48.48301" lon="7.20194">
        <ele>335.9</ele>
        <time>2021-08-01T13:38:15Z</time>
      </trkpt>
      <trkpt lat="48.483" lon="7.20196">
        <ele>335.8</ele>
        <time>2021-08-01T13:38:16Z</time>
      </trkpt>
      <trkpt lat="48.48298" lon="7.202">
        <ele>335.8</ele>
        <time>2021-08-01T13:38:18Z</time>
      </trkpt>
      <trkpt lat="48.48298" lon="7.20201">
        <ele>335.7</ele>
        <time>2021-08-01T13:38:19Z</time>
      </trkpt>
      <trkpt lat="48.48298" lon="7.20203">
        <ele>335.7</ele>
        <time>2021-08-01T13:38:21Z</time>
      </trkpt>
      <trkpt lat="48.48297" lon="7.20204">
        <ele>335.7</ele>
        <time>2021-08-01T13:38:23Z</time>
      </trkpt>
      <trkpt lat="48.48297" lon="7.20206">
        <ele>335.7</ele>
        <time>2021-08-01T13:38:24Z</time>
      </trkpt>
      <trkpt lat="48.48296" lon="7.20207">
        <ele>335.6</ele>
        <time>2021-08-01T13:38:25Z</time>
      </trkpt>
      <trkpt lat="48.48296" lon="7.20208">
        <ele>335.6</ele>
        <time>2021-08-01T13:38:27Z</time>
      </trkpt>
      <trkpt lat="48.48296" lon="7.2021">
        <ele>335.6</ele>
        <time>2021-08-01T13:38:29Z</time>
      </trkpt>
      <trkpt lat="48.48295" lon="7.20211">
        <ele>335.6</ele>
        <time>2021-08-01T13:38:38Z</time>
      </trkpt>
      <trkpt lat="48.48295" lon="7.20213">
        <ele>335.5</ele>
        <time>2021-08-01T13:38:39Z</time>
      </trkpt>
      <trkpt lat="48.48293" lon="7.20224">
        <ele>335.3</ele>
        <time>2021-08-01T13:38:40Z</time>
      </trkpt>
      <trkpt lat="48.48289" lon="7.20245">
        <ele>335</ele>
        <time>2021-08-01T13:38:42Z</time>
      </trkpt>
      <trkpt lat="48.48286" lon="7.20262">
        <ele>334.8</ele>
        <time>2021-08-01T13:38:44Z</time>
      </trkpt>
      <trkpt lat="48.48285" lon="7.20271">
        <ele>334.8</ele>
        <time>2021-08-01T13:38:45Z</time>
      </trkpt>
      <trkpt lat="48.48281" lon="7.20286">
        <ele>334.6</ele>
        <time>2021-08-01T13:38:47Z</time>
      </trkpt>
      <trkpt lat="48.48278" lon="7.20294">
        <ele>334.5</ele>
        <time>2021-08-01T13:38:48Z</time>
      </trkpt>
      <trkpt lat="48.48276" lon="7.20302">
        <ele>334.4</ele>
        <time>2021-08-01T13:38:49Z</time>
      </trkpt>
      <trkpt lat="48.48273" lon="7.2032">
        <ele>334.2</ele>
        <time>2021-08-01T13:38:51Z</time>
      </trkpt>
      <trkpt lat="48.48271" lon="7.20329">
        <ele>334.1</ele>
        <time>2021-08-01T13:38:52Z</time>
      </trkpt>
      <trkpt lat="48.48267" lon="7.20347">
        <ele>333.9</ele>
        <time>2021-08-01T13:38:54Z</time>
      </trkpt>
      <trkpt lat="48.48265" lon="7.20356">
        <ele>333.8</ele>
        <time>2021-08-01T13:38:55Z</time>
      </trkpt>
      <trkpt lat="48.48263" lon="7.20365">
        <ele>333.7</ele>
        <time>2021-08-01T13:38:56Z</time>
      </trkpt>
      <trkpt lat="48.48259" lon="7.20383">
        <ele>333.6</ele>
        <time>2021-08-01T13:38:58Z</time>
      </trkpt>
      <trkpt lat="48.48254" lon="7.20401">
        <ele>333.4</ele>
        <time>2021-08-01T13:39:00Z</time>
      </trkpt>
      <trkpt lat="48.48252" lon="7.20411">
        <ele>333.2</ele>
        <time>2021-08-01T13:39:01Z</time>
      </trkpt>
      <trkpt lat="48.48247" lon="7.20431">
        <ele>332.8</ele>
        <time>2021-08-01T13:39:03Z</time>
      </trkpt>
      <trkpt lat="48.48244" lon="7.2045">
        <ele>332.5</ele>
        <time>2021-08-01T13:39:05Z</time>
      </trkpt>
      <trkpt lat="48.4824" lon="7.20468">
        <ele>332.2</ele>
        <time>2021-08-01T13:39:07Z</time>
      </trkpt>
      <trkpt lat="48.48237" lon="7.20487">
        <ele>331.9</ele>
        <time>2021-08-01T13:39:09Z</time>
      </trkpt>
      <trkpt lat="48.48235" lon="7.20508">
        <ele>331.7</ele>
        <time>2021-08-01T13:39:11Z</time>
      </trkpt>
      <trkpt lat="48.48232" lon="7.20527">
        <ele>331.5</ele>
        <time>2021-08-01T13:39:13Z</time>
      </trkpt>
      <trkpt lat="48.48228" lon="7.20545">
        <ele>331.3</ele>
        <time>2021-08-01T13:39:15Z</time>
      </trkpt>
      <trkpt lat="48.48226" lon="7.20554">
        <ele>331.2</ele>
        <time>2021-08-01T13:39:16Z</time>
      </trkpt>
      <trkpt lat="48.48224" lon="7.20571">
        <ele>331</ele>
        <time>2021-08-01T13:39:18Z</time>
      </trkpt>
      <trkpt lat="48.4822" lon="7.20588">
        <ele>330.9</ele>
        <time>2021-08-01T13:39:20Z</time>
      </trkpt>
      <trkpt lat="48.48219" lon="7.20597">
        <ele>330.8</ele>
        <time>2021-08-01T13:39:21Z</time>
      </trkpt>
      <trkpt lat="48.48216" lon="7.20615">
        <ele>330.6</ele>
        <time>2021-08-01T13:39:23Z</time>
      </trkpt>
      <trkpt lat="48.48214" lon="7.20624">
        <ele>330.5</ele>
        <time>2021-08-01T13:39:24Z</time>
      </trkpt>
      <trkpt lat="48.48211" lon="7.20641">
        <ele>330.3</ele>
        <time>2021-08-01T13:39:26Z</time>
      </trkpt>
      <trkpt lat="48.4821" lon="7.2065">
        <ele>330.2</ele>
        <time>2021-08-01T13:39:27Z</time>
      </trkpt>
      <trkpt lat="48.48206" lon="7.20666">
        <ele>330</ele>
        <time>2021-08-01T13:39:29Z</time>
      </trkpt>
      <trkpt lat="48.48204" lon="7.20674">
        <ele>329.9</ele>
        <time>2021-08-01T13:39:30Z</time>
      </trkpt>
      <trkpt lat="48.48202" lon="7.20682">
        <ele>329.8</ele>
        <time>2021-08-01T13:39:31Z</time>
      </trkpt>
      <trkpt lat="48.48197" lon="7.20698">
        <ele>329.5</ele>
        <time>2021-08-01T13:39:33Z</time>
      </trkpt>
      <trkpt lat="48.48196" lon="7.20706">
        <ele>329.3</ele>
        <time>2021-08-01T13:39:34Z</time>
      </trkpt>
      <trkpt lat="48.48195" lon="7.20715">
        <ele>329.1</ele>
        <time>2021-08-01T13:39:35Z</time>
      </trkpt>
      <trkpt lat="48.4819" lon="7.2073">
        <ele>328.8</ele>
        <time>2021-08-01T13:39:37Z</time>
      </trkpt>
      <trkpt lat="48.48187" lon="7.20739">
        <ele>328.6</ele>
        <time>2021-08-01T13:39:38Z</time>
      </trkpt>
      <trkpt lat="48.4818" lon="7.20754">
        <ele>328.2</ele>
        <time>2021-08-01T13:39:40Z</time>
      </trkpt>
      <trkpt lat="48.48177" lon="7.20762">
        <ele>328</ele>
        <time>2021-08-01T13:39:41Z</time>
      </trkpt>
      <trkpt lat="48.48169" lon="7.20778">
        <ele>327.6</ele>
        <time>2021-08-01T13:39:43Z</time>
      </trkpt>
      <trkpt lat="48.48166" lon="7.20787">
        <ele>327.3</ele>
        <time>2021-08-01T13:39:44Z</time>
      </trkpt>
      <trkpt lat="48.48159" lon="7.20802">
        <ele>326.8</ele>
        <time>2021-08-01T13:39:46Z</time>
      </trkpt>
      <trkpt lat="48.48156" lon="7.2081">
        <ele>326.6</ele>
        <time>2021-08-01T13:39:47Z</time>
      </trkpt>
      <trkpt lat="48.4815" lon="7.20822">
        <ele>326.3</ele>
        <time>2021-08-01T13:39:49Z</time>
      </trkpt>
      <trkpt lat="48.48146" lon="7.20837">
        <ele>326</ele>
        <time>2021-08-01T13:39:51Z</time>
      </trkpt>
      <trkpt lat="48.48143" lon="7.20845">
        <ele>325.9</ele>
        <time>2021-08-01T13:39:52Z</time>
      </trkpt>
      <trkpt lat="48.4814" lon="7.20853">
        <ele>325.7</ele>
        <time>2021-08-01T13:39:53Z</time>
      </trkpt>
      <trkpt lat="48.48138" lon="7.2086">
        <ele>325.6</ele>
        <time>2021-08-01T13:39:54Z</time>
      </trkpt>
      <trkpt lat="48.48137" lon="7.20868">
        <ele>325.4</ele>
        <time>2021-08-01T13:39:55Z</time>
      </trkpt>
      <trkpt lat="48.48133" lon="7.20885">
        <ele>325.1</ele>
        <time>2021-08-01T13:39:57Z</time>
      </trkpt>
      <trkpt lat="48.48131" lon="7.20893">
        <ele>324.9</ele>
        <time>2021-08-01T13:39:58Z</time>
      </trkpt>
      <trkpt lat="48.48127" lon="7.20907">
        <ele>324.6</ele>
        <time>2021-08-01T13:40:00Z</time>
      </trkpt>
      <trkpt lat="48.48125" lon="7.20914">
        <ele>324.5</ele>
        <time>2021-08-01T13:40:01Z</time>
      </trkpt>
      <trkpt lat="48.48118" lon="7.20929">
        <ele>324.1</ele>
        <time>2021-08-01T13:40:03Z</time>
      </trkpt>
      <trkpt lat="48.48115" lon="7.20937">
        <ele>323.9</ele>
        <time>2021-08-01T13:40:04Z</time>
      </trkpt>
      <trkpt lat="48.48111" lon="7.20947">
        <ele>323.7</ele>
        <time>2021-08-01T13:40:05Z</time>
      </trkpt>
      <trkpt lat="48.48104" lon="7.20965">
        <ele>323.2</ele>
        <time>2021-08-01T13:40:07Z</time>
      </trkpt>
      <trkpt lat="48.48099" lon="7.20987">
        <ele>322.9</ele>
        <time>2021-08-01T13:40:09Z</time>
      </trkpt>
      <trkpt lat="48.48092" lon="7.21007">
        <ele>322.6</ele>
        <time>2021-08-01T13:40:11Z</time>
      </trkpt>
      <trkpt lat="48.48086" lon="7.21028">
        <ele>322.4</ele>
        <time>2021-08-01T13:40:13Z</time>
      </trkpt>
      <trkpt lat="48.48084" lon="7.21039">
        <ele>322.2</ele>
        <time>2021-08-01T13:40:14Z</time>
      </trkpt>
      <trkpt lat="48.48081" lon="7.21051">
        <ele>322.1</ele>
        <time>2021-08-01T13:40:15Z</time>
      </trkpt>
      <trkpt lat="48.48078" lon="7.21062">
        <ele>322</ele>
        <time>2021-08-01T13:40:16Z</time>
      </trkpt>
      <trkpt lat="48.48074" lon="7.21071">
        <ele>321.8</ele>
        <time>2021-08-01T13:40:17Z</time>
      </trkpt>
      <trkpt lat="48.48069" lon="7.21078">
        <ele>321.7</ele>
        <time>2021-08-01T13:40:18Z</time>
      </trkpt>
      <trkpt lat="48.48063" lon="7.21082">
        <ele>321.6</ele>
        <time>2021-08-01T13:40:19Z</time>
      </trkpt>
      <trkpt lat="48.4805" lon="7.21083">
        <ele>321.4</ele>
        <time>2021-08-01T13:40:21Z</time>
      </trkpt>
      <trkpt lat="48.48037" lon="7.21083">
        <ele>321.1</ele>
        <time>2021-08-01T13:40:23Z</time>
      </trkpt>
      <trkpt lat="48.48025" lon="7.21083">
        <ele>320.9</ele>
        <time>2021-08-01T13:40:25Z</time>
      </trkpt>
      <trkpt lat="48.48014" lon="7.21083">
        <ele>320.7</ele>
        <time>2021-08-01T13:40:27Z</time>
      </trkpt>
      <trkpt lat="48.48007" lon="7.21084">
        <ele>320.5</ele>
        <time>2021-08-01T13:40:28Z</time>
      </trkpt>
      <trkpt lat="48.48001" lon="7.21088">
        <ele>320.4</ele>
        <time>2021-08-01T13:40:29Z</time>
      </trkpt>
      <trkpt lat="48.4799" lon="7.21103">
        <ele>320.2</ele>
        <time>2021-08-01T13:40:31Z</time>
      </trkpt>
      <trkpt lat="48.47985" lon="7.2111">
        <ele>320.1</ele>
        <time>2021-08-01T13:40:32Z</time>
      </trkpt>
      <trkpt lat="48.47975" lon="7.21125">
        <ele>320</ele>
        <time>2021-08-01T13:40:34Z</time>
      </trkpt>
      <trkpt lat="48.47966" lon="7.21137">
        <ele>319.9</ele>
        <time>2021-08-01T13:40:36Z</time>
      </trkpt>
      <trkpt lat="48.47958" lon="7.21147">
        <ele>319.8</ele>
        <time>2021-08-01T13:40:38Z</time>
      </trkpt>
      <trkpt lat="48.47954" lon="7.21152">
        <ele>319.7</ele>
        <time>2021-08-01T13:40:39Z</time>
      </trkpt>
      <trkpt lat="48.47949" lon="7.21158">
        <ele>319.7</ele>
        <time>2021-08-01T13:40:40Z</time>
      </trkpt>
      <trkpt lat="48.47941" lon="7.21169">
        <ele>319.5</ele>
        <time>2021-08-01T13:40:42Z</time>
      </trkpt>
      <trkpt lat="48.47937" lon="7.21174">
        <ele>319.5</ele>
        <time>2021-08-01T13:40:43Z</time>
      </trkpt>
      <trkpt lat="48.47929" lon="7.21184">
        <ele>319.4</ele>
        <time>2021-08-01T13:40:45Z</time>
      </trkpt>
      <trkpt lat="48.47925" lon="7.21189">
        <ele>319.4</ele>
        <time>2021-08-01T13:40:46Z</time>
      </trkpt>
      <trkpt lat="48.4792" lon="7.21195">
        <ele>319.3</ele>
        <time>2021-08-01T13:40:47Z</time>
      </trkpt>
      <trkpt lat="48.4791" lon="7.21203">
        <ele>319.2</ele>
        <time>2021-08-01T13:40:49Z</time>
      </trkpt>
      <trkpt lat="48.47905" lon="7.21207">
        <ele>319.2</ele>
        <time>2021-08-01T13:40:50Z</time>
      </trkpt>
      <trkpt lat="48.479" lon="7.2121">
        <ele>319.2</ele>
        <time>2021-08-01T13:40:51Z</time>
      </trkpt>
      <trkpt lat="48.47889" lon="7.21216">
        <ele>319.2</ele>
        <time>2021-08-01T13:40:53Z</time>
      </trkpt>
      <trkpt lat="48.47877" lon="7.2122">
        <ele>319.2</ele>
        <time>2021-08-01T13:40:55Z</time>
      </trkpt>
      <trkpt lat="48.47867" lon="7.21226">
        <ele>319.3</ele>
        <time>2021-08-01T13:40:57Z</time>
      </trkpt>
      <trkpt lat="48.47863" lon="7.21229">
        <ele>319.4</ele>
        <time>2021-08-01T13:40:58Z</time>
      </trkpt>
      <trkpt lat="48.47858" lon="7.21232">
        <ele>319.5</ele>
        <time>2021-08-01T13:40:59Z</time>
      </trkpt>
      <trkpt lat="48.47848" lon="7.21236">
        <ele>319.6</ele>
        <time>2021-08-01T13:41:01Z</time>
      </trkpt>
      <trkpt lat="48.47843" lon="7.21238">
        <ele>319.7</ele>
        <time>2021-08-01T13:41:02Z</time>
      </trkpt>
      <trkpt lat="48.47839" lon="7.2124">
        <ele>319.8</ele>
        <time>2021-08-01T13:41:03Z</time>
      </trkpt>
      <trkpt lat="48.4783" lon="7.21244">
        <ele>319.9</ele>
        <time>2021-08-01T13:41:05Z</time>
      </trkpt>
      <trkpt lat="48.47822" lon="7.21248">
        <ele>320.1</ele>
        <time>2021-08-01T13:41:07Z</time>
      </trkpt>
      <trkpt lat="48.47817" lon="7.21251">
        <ele>320.2</ele>
        <time>2021-08-01T13:41:08Z</time>
      </trkpt>
      <trkpt lat="48.47809" lon="7.21255">
        <ele>320.3</ele>
        <time>2021-08-01T13:41:10Z</time>
      </trkpt>
      <trkpt lat="48.47806" lon="7.21256">
        <ele>320.4</ele>
        <time>2021-08-01T13:41:11Z</time>
      </trkpt>
      <trkpt lat="48.47798" lon="7.21259">
        <ele>320.5</ele>
        <time>2021-08-01T13:41:13Z</time>
      </trkpt>
      <trkpt lat="48.47791" lon="7.21259">
        <ele>320.6</ele>
        <time>2021-08-01T13:41:14Z</time>
      </trkpt>
      <trkpt lat="48.47781" lon="7.2126">
        <ele>320.8</ele>
        <time>2021-08-01T13:41:17Z</time>
      </trkpt>
      <trkpt lat="48.47775" lon="7.2126">
        <ele>320.9</ele>
        <time>2021-08-01T13:41:18Z</time>
      </trkpt>
      <trkpt lat="48.47769" lon="7.2126">
        <ele>321</ele>
        <time>2021-08-01T13:41:19Z</time>
      </trkpt>
      <trkpt lat="48.47762" lon="7.21259">
        <ele>321.1</ele>
        <time>2021-08-01T13:41:21Z</time>
      </trkpt>
      <trkpt lat="48.47756" lon="7.21259">
        <ele>321.1</ele>
        <time>2021-08-01T13:41:22Z</time>
      </trkpt>
      <trkpt lat="48.47751" lon="7.2126">
        <ele>321.2</ele>
        <time>2021-08-01T13:41:23Z</time>
      </trkpt>
      <trkpt lat="48.47747" lon="7.2126">
        <ele>321.3</ele>
        <time>2021-08-01T13:41:25Z</time>
      </trkpt>
      <trkpt lat="48.47743" lon="7.21261">
        <ele>321.3</ele>
        <time>2021-08-01T13:41:26Z</time>
      </trkpt>
      <trkpt lat="48.47737" lon="7.2126">
        <ele>321.4</ele>
        <time>2021-08-01T13:41:27Z</time>
      </trkpt>
      <trkpt lat="48.4773" lon="7.21258">
        <ele>321.5</ele>
        <time>2021-08-01T13:41:28Z</time>
      </trkpt>
      <trkpt lat="48.47724" lon="7.21258">
        <ele>321.6</ele>
        <time>2021-08-01T13:41:30Z</time>
      </trkpt>
      <trkpt lat="48.47717" lon="7.21258">
        <ele>321.8</ele>
        <time>2021-08-01T13:41:31Z</time>
      </trkpt>
      <trkpt lat="48.47711" lon="7.21259">
        <ele>321.9</ele>
        <time>2021-08-01T13:41:33Z</time>
      </trkpt>
      <trkpt lat="48.47706" lon="7.2126">
        <ele>322</ele>
        <time>2021-08-01T13:41:34Z</time>
      </trkpt>
      <trkpt lat="48.47701" lon="7.21259">
        <ele>322.1</ele>
        <time>2021-08-01T13:41:35Z</time>
      </trkpt>
      <trkpt lat="48.47697" lon="7.21259">
        <ele>322.2</ele>
        <time>2021-08-01T13:41:37Z</time>
      </trkpt>
      <trkpt lat="48.47693" lon="7.21261">
        <ele>322.3</ele>
        <time>2021-08-01T13:41:38Z</time>
      </trkpt>
      <trkpt lat="48.47688" lon="7.2126">
        <ele>322.3</ele>
        <time>2021-08-01T13:41:39Z</time>
      </trkpt>
      <trkpt lat="48.47683" lon="7.21258">
        <ele>322.4</ele>
        <time>2021-08-01T13:41:40Z</time>
      </trkpt>
      <trkpt lat="48.47678" lon="7.21259">
        <ele>322.5</ele>
        <time>2021-08-01T13:41:41Z</time>
      </trkpt>
      <trkpt lat="48.47674" lon="7.21259">
        <ele>322.6</ele>
        <time>2021-08-01T13:41:42Z</time>
      </trkpt>
      <trkpt lat="48.4767" lon="7.2126">
        <ele>322.7</ele>
        <time>2021-08-01T13:41:43Z</time>
      </trkpt>
      <trkpt lat="48.47666" lon="7.21261">
        <ele>322.7</ele>
        <time>2021-08-01T13:41:45Z</time>
      </trkpt>
      <trkpt lat="48.47664" lon="7.21264">
        <ele>322.7</ele>
        <time>2021-08-01T13:41:46Z</time>
      </trkpt>
      <trkpt lat="48.47659" lon="7.21269">
        <ele>322.7</ele>
        <time>2021-08-01T13:41:48Z</time>
      </trkpt>
      <trkpt lat="48.47656" lon="7.21272">
        <ele>322.7</ele>
        <time>2021-08-01T13:41:49Z</time>
      </trkpt>
      <trkpt lat="48.47651" lon="7.21278">
        <ele>322.7</ele>
        <time>2021-08-01T13:41:51Z</time>
      </trkpt>
      <trkpt lat="48.47647" lon="7.21282">
        <ele>322.7</ele>
        <time>2021-08-01T13:41:52Z</time>
      </trkpt>
      <trkpt lat="48.47639" lon="7.21286">
        <ele>322.7</ele>
        <time>2021-08-01T13:41:54Z</time>
      </trkpt>
      <trkpt lat="48.47635" lon="7.21287">
        <ele>322.8</ele>
        <time>2021-08-01T13:41:55Z</time>
      </trkpt>
      <trkpt lat="48.47629" lon="7.21289">
        <ele>323</ele>
        <time>2021-08-01T13:41:57Z</time>
      </trkpt>
      <trkpt lat="48.47625" lon="7.2129">
        <ele>323.2</ele>
        <time>2021-08-01T13:41:59Z</time>
      </trkpt>
      <trkpt lat="48.47622" lon="7.2129">
        <ele>323.3</ele>
        <time>2021-08-01T13:42:00Z</time>
      </trkpt>
      <trkpt lat="48.4762" lon="7.2129">
        <ele>323.4</ele>
        <time>2021-08-01T13:42:01Z</time>
      </trkpt>
      <trkpt lat="48.47616" lon="7.21291">
        <ele>323.6</ele>
        <time>2021-08-01T13:42:02Z</time>
      </trkpt>
      <trkpt lat="48.47613" lon="7.2129">
        <ele>323.7</ele>
        <time>2021-08-01T13:42:04Z</time>
      </trkpt>
      <trkpt lat="48.47611" lon="7.21289">
        <ele>323.8</ele>
        <time>2021-08-01T13:42:05Z</time>
      </trkpt>
      <trkpt lat="48.47606" lon="7.21287">
        <ele>324.1</ele>
        <time>2021-08-01T13:42:07Z</time>
      </trkpt>
      <trkpt lat="48.47601" lon="7.21283">
        <ele>324.4</ele>
        <time>2021-08-01T13:42:08Z</time>
      </trkpt>
      <trkpt lat="48.47597" lon="7.21284">
        <ele>324.7</ele>
        <time>2021-08-01T13:42:10Z</time>
      </trkpt>
      <trkpt lat="48.47595" lon="7.21284">
        <ele>324.8</ele>
        <time>2021-08-01T13:42:11Z</time>
      </trkpt>
      <trkpt lat="48.47593" lon="7.21284">
        <ele>324.9</ele>
        <time>2021-08-01T13:42:12Z</time>
      </trkpt>
      <trkpt lat="48.47589" lon="7.21283">
        <ele>325.1</ele>
        <time>2021-08-01T13:42:14Z</time>
      </trkpt>
      <trkpt lat="48.47586" lon="7.21282">
        <ele>325.3</ele>
        <time>2021-08-01T13:42:15Z</time>
      </trkpt>
      <trkpt lat="48.47581" lon="7.21284">
        <ele>325.6</ele>
        <time>2021-08-01T13:42:17Z</time>
      </trkpt>
      <trkpt lat="48.47578" lon="7.21284">
        <ele>325.8</ele>
        <time>2021-08-01T13:42:19Z</time>
      </trkpt>
      <trkpt lat="48.47575" lon="7.21285">
        <ele>326</ele>
        <time>2021-08-01T13:42:21Z</time>
      </trkpt>
      <trkpt lat="48.47573" lon="7.21284">
        <ele>326.1</ele>
        <time>2021-08-01T13:42:22Z</time>
      </trkpt>
      <trkpt lat="48.47571" lon="7.21284">
        <ele>326.2</ele>
        <time>2021-08-01T13:42:23Z</time>
      </trkpt>
      <trkpt lat="48.47568" lon="7.21284">
        <ele>326.4</ele>
        <time>2021-08-01T13:42:25Z</time>
      </trkpt>
      <trkpt lat="48.47564" lon="7.21283">
        <ele>326.7</ele>
        <time>2021-08-01T13:42:26Z</time>
      </trkpt>
      <trkpt lat="48.47559" lon="7.21284">
        <ele>327</ele>
        <time>2021-08-01T13:42:28Z</time>
      </trkpt>
      <trkpt lat="48.47557" lon="7.21285">
        <ele>327.1</ele>
        <time>2021-08-01T13:42:30Z</time>
      </trkpt>
      <trkpt lat="48.47555" lon="7.21285">
        <ele>327.2</ele>
        <time>2021-08-01T13:42:31Z</time>
      </trkpt>
      <trkpt lat="48.47553" lon="7.21286">
        <ele>327.3</ele>
        <time>2021-08-01T13:42:32Z</time>
      </trkpt>
      <trkpt lat="48.47548" lon="7.21286">
        <ele>327.5</ele>
        <time>2021-08-01T13:42:34Z</time>
      </trkpt>
      <trkpt lat="48.47546" lon="7.21286">
        <ele>327.6</ele>
        <time>2021-08-01T13:42:35Z</time>
      </trkpt>
      <trkpt lat="48.47544" lon="7.21286">
        <ele>327.7</ele>
        <time>2021-08-01T13:42:36Z</time>
      </trkpt>
      <trkpt lat="48.47539" lon="7.21285">
        <ele>327.9</ele>
        <time>2021-08-01T13:42:38Z</time>
      </trkpt>
      <trkpt lat="48.47535" lon="7.21286">
        <ele>328.1</ele>
        <time>2021-08-01T13:42:39Z</time>
      </trkpt>
      <trkpt lat="48.47533" lon="7.21287">
        <ele>328.1</ele>
        <time>2021-08-01T13:42:40Z</time>
      </trkpt>
      <trkpt lat="48.47531" lon="7.21286">
        <ele>328.2</ele>
        <time>2021-08-01T13:42:42Z</time>
      </trkpt>
      <trkpt lat="48.47526" lon="7.21287">
        <ele>328.4</ele>
        <time>2021-08-01T13:42:43Z</time>
      </trkpt>
      <trkpt lat="48.47521" lon="7.21287">
        <ele>328.5</ele>
        <time>2021-08-01T13:42:45Z</time>
      </trkpt>
      <trkpt lat="48.47519" lon="7.21287">
        <ele>328.5</ele>
        <time>2021-08-01T13:42:46Z</time>
      </trkpt>
      <trkpt lat="48.47516" lon="7.21286">
        <ele>328.6</ele>
        <time>2021-08-01T13:42:47Z</time>
      </trkpt>
      <trkpt lat="48.47513" lon="7.21286">
        <ele>328.7</ele>
        <time>2021-08-01T13:42:48Z</time>
      </trkpt>
      <trkpt lat="48.4751" lon="7.21285">
        <ele>328.7</ele>
        <time>2021-08-01T13:42:50Z</time>
      </trkpt>
      <trkpt lat="48.47504" lon="7.21284">
        <ele>328.8</ele>
        <time>2021-08-01T13:42:52Z</time>
      </trkpt>
      <trkpt lat="48.47497" lon="7.21283">
        <ele>328.9</ele>
        <time>2021-08-01T13:42:54Z</time>
      </trkpt>
      <trkpt lat="48.47493" lon="7.21284">
        <ele>328.9</ele>
        <time>2021-08-01T13:42:55Z</time>
      </trkpt>
      <trkpt lat="48.47486" lon="7.21285">
        <ele>328.9</ele>
        <time>2021-08-01T13:42:57Z</time>
      </trkpt>
      <trkpt lat="48.47482" lon="7.21286">
        <ele>329</ele>
        <time>2021-08-01T13:42:58Z</time>
      </trkpt>
      <trkpt lat="48.47477" lon="7.21285">
        <ele>329</ele>
        <time>2021-08-01T13:42:59Z</time>
      </trkpt>
      <trkpt lat="48.47473" lon="7.21286">
        <ele>329</ele>
        <time>2021-08-01T13:43:00Z</time>
      </trkpt>
      <trkpt lat="48.47468" lon="7.21286">
        <ele>329</ele>
        <time>2021-08-01T13:43:01Z</time>
      </trkpt>
      <trkpt lat="48.47462" lon="7.21287">
        <ele>329.1</ele>
        <time>2021-08-01T13:43:02Z</time>
      </trkpt>
      <trkpt lat="48.47456" lon="7.21289">
        <ele>329</ele>
        <time>2021-08-01T13:43:04Z</time>
      </trkpt>
      <trkpt lat="48.47451" lon="7.2129">
        <ele>328.9</ele>
        <time>2021-08-01T13:43:05Z</time>
      </trkpt>
      <trkpt lat="48.47443" lon="7.21289">
        <ele>328.6</ele>
        <time>2021-08-01T13:43:07Z</time>
      </trkpt>
      <trkpt lat="48.47432" lon="7.21288">
        <ele>328.3</ele>
        <time>2021-08-01T13:43:09Z</time>
      </trkpt>
      <trkpt lat="48.47426" lon="7.21288">
        <ele>328.1</ele>
        <time>2021-08-01T13:43:10Z</time>
      </trkpt>
      <trkpt lat="48.47414" lon="7.21289">
        <ele>327.8</ele>
        <time>2021-08-01T13:43:12Z</time>
      </trkpt>
      <trkpt lat="48.47409" lon="7.21289">
        <ele>327.7</ele>
        <time>2021-08-01T13:43:13Z</time>
      </trkpt>
      <trkpt lat="48.47399" lon="7.21289">
        <ele>327.5</ele>
        <time>2021-08-01T13:43:15Z</time>
      </trkpt>
      <trkpt lat="48.47394" lon="7.21288">
        <ele>327.4</ele>
        <time>2021-08-01T13:43:16Z</time>
      </trkpt>
      <trkpt lat="48.47389" lon="7.21287">
        <ele>327.2</ele>
        <time>2021-08-01T13:43:17Z</time>
      </trkpt>
      <trkpt lat="48.4738" lon="7.21289">
        <ele>327</ele>
        <time>2021-08-01T13:43:19Z</time>
      </trkpt>
      <trkpt lat="48.47374" lon="7.21288">
        <ele>326.9</ele>
        <time>2021-08-01T13:43:20Z</time>
      </trkpt>
      <trkpt lat="48.47365" lon="7.21289">
        <ele>326.7</ele>
        <time>2021-08-01T13:43:22Z</time>
      </trkpt>
      <trkpt lat="48.47359" lon="7.21289">
        <ele>326.5</ele>
        <time>2021-08-01T13:43:23Z</time>
      </trkpt>
      <trkpt lat="48.47347" lon="7.21291">
        <ele>326</ele>
        <time>2021-08-01T13:43:25Z</time>
      </trkpt>
      <trkpt lat="48.47334" lon="7.21286">
        <ele>325.3</ele>
        <time>2021-08-01T13:43:27Z</time>
      </trkpt>
      <trkpt lat="48.47328" lon="7.21283">
        <ele>325</ele>
        <time>2021-08-01T13:43:28Z</time>
      </trkpt>
      <trkpt lat="48.47321" lon="7.21282">
        <ele>324.7</ele>
        <time>2021-08-01T13:43:29Z</time>
      </trkpt>
      <trkpt lat="48.47307" lon="7.21283">
        <ele>324.1</ele>
        <time>2021-08-01T13:43:31Z</time>
      </trkpt>
      <trkpt lat="48.47292" lon="7.21281">
        <ele>324</ele>
        <time>2021-08-01T13:43:33Z</time>
      </trkpt>
      <trkpt lat="48.4728" lon="7.21277">
        <ele>324.2</ele>
        <time>2021-08-01T13:43:35Z</time>
      </trkpt>
      <trkpt lat="48.47274" lon="7.21273">
        <ele>324.4</ele>
        <time>2021-08-01T13:43:36Z</time>
      </trkpt>
      <trkpt lat="48.47268" lon="7.21269">
        <ele>324.6</ele>
        <time>2021-08-01T13:43:37Z</time>
      </trkpt>
      <trkpt lat="48.47257" lon="7.21259">
        <ele>325</ele>
        <time>2021-08-01T13:43:39Z</time>
      </trkpt>
      <trkpt lat="48.47251" lon="7.21252">
        <ele>325.2</ele>
        <time>2021-08-01T13:43:40Z</time>
      </trkpt>
      <trkpt lat="48.47246" lon="7.21245">
        <ele>325.5</ele>
        <time>2021-08-01T13:43:41Z</time>
      </trkpt>
      <trkpt lat="48.47241" lon="7.21238">
        <ele>325.8</ele>
        <time>2021-08-01T13:43:42Z</time>
      </trkpt>
      <trkpt lat="48.47236" lon="7.21233">
        <ele>326.1</ele>
        <time>2021-08-01T13:43:43Z</time>
      </trkpt>
      <trkpt lat="48.47229" lon="7.21224">
        <ele>326.5</ele>
        <time>2021-08-01T13:43:45Z</time>
      </trkpt>
      <trkpt lat="48.47226" lon="7.21221">
        <ele>326.7</ele>
        <time>2021-08-01T13:43:46Z</time>
      </trkpt>
      <trkpt lat="48.47222" lon="7.21217">
        <ele>326.9</ele>
        <time>2021-08-01T13:43:47Z</time>
      </trkpt>
      <trkpt lat="48.47215" lon="7.21211">
        <ele>327.1</ele>
        <time>2021-08-01T13:43:49Z</time>
      </trkpt>
      <trkpt lat="48.47209" lon="7.21201">
        <ele>327.4</ele>
        <time>2021-08-01T13:43:51Z</time>
      </trkpt>
      <trkpt lat="48.47204" lon="7.21195">
        <ele>327.5</ele>
        <time>2021-08-01T13:43:52Z</time>
      </trkpt>
      <trkpt lat="48.47196" lon="7.21183">
        <ele>327.6</ele>
        <time>2021-08-01T13:43:54Z</time>
      </trkpt>
      <trkpt lat="48.47191" lon="7.21178">
        <ele>327.6</ele>
        <time>2021-08-01T13:43:55Z</time>
      </trkpt>
      <trkpt lat="48.47183" lon="7.21171">
        <ele>327.7</ele>
        <time>2021-08-01T13:43:57Z</time>
      </trkpt>
      <trkpt lat="48.47178" lon="7.21168">
        <ele>327.7</ele>
        <time>2021-08-01T13:43:58Z</time>
      </trkpt>
      <trkpt lat="48.47171" lon="7.21164">
        <ele>327.8</ele>
        <time>2021-08-01T13:44:00Z</time>
      </trkpt>
      <trkpt lat="48.47166" lon="7.21161">
        <ele>327.8</ele>
        <time>2021-08-01T13:44:01Z</time>
      </trkpt>
      <trkpt lat="48.47162" lon="7.21159">
        <ele>327.8</ele>
        <time>2021-08-01T13:44:02Z</time>
      </trkpt>
      <trkpt lat="48.47153" lon="7.21156">
        <ele>327.8</ele>
        <time>2021-08-01T13:44:04Z</time>
      </trkpt>
      <trkpt lat="48.47148" lon="7.21154">
        <ele>327.7</ele>
        <time>2021-08-01T13:44:05Z</time>
      </trkpt>
      <trkpt lat="48.47136" lon="7.21153">
        <ele>327.3</ele>
        <time>2021-08-01T13:44:07Z</time>
      </trkpt>
      <trkpt lat="48.47123" lon="7.21151">
        <ele>326.9</ele>
        <time>2021-08-01T13:44:09Z</time>
      </trkpt>
      <trkpt lat="48.4711" lon="7.21147">
        <ele>326.4</ele>
        <time>2021-08-01T13:44:11Z</time>
      </trkpt>
      <trkpt lat="48.47096" lon="7.21145">
        <ele>326</ele>
        <time>2021-08-01T13:44:13Z</time>
      </trkpt>
      <trkpt lat="48.47082" lon="7.21141">
        <ele>325.8</ele>
        <time>2021-08-01T13:44:15Z</time>
      </trkpt>
      <trkpt lat="48.47077" lon="7.2114">
        <ele>325.7</ele>
        <time>2021-08-01T13:44:16Z</time>
      </trkpt>
      <trkpt lat="48.47071" lon="7.21138">
        <ele>325.6</ele>
        <time>2021-08-01T13:44:17Z</time>
      </trkpt>
      <trkpt lat="48.47061" lon="7.2114">
        <ele>325.3</ele>
        <time>2021-08-01T13:44:19Z</time>
      </trkpt>
      <trkpt lat="48.47056" lon="7.2114">
        <ele>325.2</ele>
        <time>2021-08-01T13:44:21Z</time>
      </trkpt>
      <trkpt lat="48.47053" lon="7.21139">
        <ele>325.2</ele>
        <time>2021-08-01T13:44:23Z</time>
      </trkpt>
      <trkpt lat="48.47051" lon="7.2114">
        <ele>325</ele>
        <time>2021-08-01T13:44:25Z</time>
      </trkpt>
      <trkpt lat="48.47051" lon="7.21141">
        <ele>324.9</ele>
        <time>2021-08-01T13:44:26Z</time>
      </trkpt>
      <trkpt lat="48.47049" lon="7.21144">
        <ele>324.8</ele>
        <time>2021-08-01T13:44:28Z</time>
      </trkpt>
      <trkpt lat="48.4705" lon="7.21149">
        <ele>324.5</ele>
        <time>2021-08-01T13:44:29Z</time>
      </trkpt>
      <trkpt lat="48.4705" lon="7.21151">
        <ele>324.4</ele>
        <time>2021-08-01T13:44:30Z</time>
      </trkpt>
      <trkpt lat="48.4705" lon="7.21157">
        <ele>324.2</ele>
        <time>2021-08-01T13:44:32Z</time>
      </trkpt>
      <trkpt lat="48.4705" lon="7.21159">
        <ele>324.1</ele>
        <time>2021-08-01T13:44:33Z</time>
      </trkpt>
      <trkpt lat="48.4705" lon="7.21165">
        <ele>323.9</ele>
        <time>2021-08-01T13:44:34Z</time>
      </trkpt>
      <trkpt lat="48.4705" lon="7.21167">
        <ele>323.8</ele>
        <time>2021-08-01T13:44:35Z</time>
      </trkpt>
      <trkpt lat="48.47048" lon="7.21177">
        <ele>323.3</ele>
        <time>2021-08-01T13:44:37Z</time>
      </trkpt>
      <trkpt lat="48.47047" lon="7.21186">
        <ele>323</ele>
        <time>2021-08-01T13:44:38Z</time>
      </trkpt>
      <trkpt lat="48.47045" lon="7.21197">
        <ele>322.6</ele>
        <time>2021-08-01T13:44:40Z</time>
      </trkpt>
      <trkpt lat="48.47043" lon="7.21201">
        <ele>322.4</ele>
        <time>2021-08-01T13:44:41Z</time>
      </trkpt>
      <trkpt lat="48.47038" lon="7.2121">
        <ele>322.1</ele>
        <time>2021-08-01T13:44:42Z</time>
      </trkpt>
      <trkpt lat="48.47035" lon="7.21215">
        <ele>321.8</ele>
        <time>2021-08-01T13:44:44Z</time>
      </trkpt>
      <trkpt lat="48.47031" lon="7.2122">
        <ele>321.6</ele>
        <time>2021-08-01T13:44:45Z</time>
      </trkpt>
      <trkpt lat="48.47022" lon="7.21229">
        <ele>321.2</ele>
        <time>2021-08-01T13:44:47Z</time>
      </trkpt>
      <trkpt lat="48.47019" lon="7.21236">
        <ele>321.1</ele>
        <time>2021-08-01T13:44:48Z</time>
      </trkpt>
      <trkpt lat="48.47014" lon="7.21245">
        <ele>320.9</ele>
        <time>2021-08-01T13:44:50Z</time>
      </trkpt>
      <trkpt lat="48.47011" lon="7.21253">
        <ele>320.8</ele>
        <time>2021-08-01T13:44:51Z</time>
      </trkpt>
      <trkpt lat="48.47008" lon="7.21267">
        <ele>320.6</ele>
        <time>2021-08-01T13:44:53Z</time>
      </trkpt>
      <trkpt lat="48.47007" lon="7.21273">
        <ele>320.5</ele>
        <time>2021-08-01T13:44:54Z</time>
      </trkpt>
      <trkpt lat="48.47005" lon="7.21279">
        <ele>320.4</ele>
        <time>2021-08-01T13:44:55Z</time>
      </trkpt>
      <trkpt lat="48.47003" lon="7.21289">
        <ele>320.3</ele>
        <time>2021-08-01T13:44:56Z</time>
      </trkpt>
      <trkpt lat="48.47" lon="7.21293">
        <ele>320.2</ele>
        <time>2021-08-01T13:44:58Z</time>
      </trkpt>
      <trkpt lat="48.47" lon="7.21294">
        <ele>320.2</ele>
        <time>2021-08-01T13:44:59Z</time>
      </trkpt>
      <trkpt lat="48.46997" lon="7.21296">
        <ele>320.2</ele>
        <time>2021-08-01T13:45:00Z</time>
      </trkpt>
      <trkpt lat="48.46991" lon="7.213">
        <ele>320.1</ele>
        <time>2021-08-01T13:45:01Z</time>
      </trkpt>
      <trkpt lat="48.46987" lon="7.21298">
        <ele>320.1</ele>
        <time>2021-08-01T13:45:03Z</time>
      </trkpt>
      <trkpt lat="48.46981" lon="7.21296">
        <ele>320.1</ele>
        <time>2021-08-01T13:45:04Z</time>
      </trkpt>
      <trkpt lat="48.46976" lon="7.21295">
        <ele>320.1</ele>
        <time>2021-08-01T13:45:05Z</time>
      </trkpt>
      <trkpt lat="48.46971" lon="7.21294">
        <ele>320.2</ele>
        <time>2021-08-01T13:45:06Z</time>
      </trkpt>
      <trkpt lat="48.46964" lon="7.2129">
        <ele>320.2</ele>
        <time>2021-08-01T13:45:08Z</time>
      </trkpt>
      <trkpt lat="48.46944" lon="7.21275">
        <ele>320.4</ele>
        <time>2021-08-01T13:45:10Z</time>
      </trkpt>
      <trkpt lat="48.46932" lon="7.21266">
        <ele>320.6</ele>
        <time>2021-08-01T13:45:12Z</time>
      </trkpt>
      <trkpt lat="48.46927" lon="7.21263">
        <ele>320.6</ele>
        <time>2021-08-01T13:45:13Z</time>
      </trkpt>
      <trkpt lat="48.46917" lon="7.21255">
        <ele>320.7</ele>
        <time>2021-08-01T13:45:15Z</time>
      </trkpt>
      <trkpt lat="48.46907" lon="7.21246">
        <ele>320.8</ele>
        <time>2021-08-01T13:45:17Z</time>
      </trkpt>
      <trkpt lat="48.46898" lon="7.21239">
        <ele>320.9</ele>
        <time>2021-08-01T13:45:19Z</time>
      </trkpt>
      <trkpt lat="48.46888" lon="7.2123">
        <ele>321</ele>
        <time>2021-08-01T13:45:21Z</time>
      </trkpt>
      <trkpt lat="48.46883" lon="7.21224">
        <ele>321.1</ele>
        <time>2021-08-01T13:45:22Z</time>
      </trkpt>
      <trkpt lat="48.46878" lon="7.2122">
        <ele>321.1</ele>
        <time>2021-08-01T13:45:23Z</time>
      </trkpt>
      <trkpt lat="48.46869" lon="7.2121">
        <ele>321.2</ele>
        <time>2021-08-01T13:45:25Z</time>
      </trkpt>
      <trkpt lat="48.4686" lon="7.21201">
        <ele>321.4</ele>
        <time>2021-08-01T13:45:27Z</time>
      </trkpt>
      <trkpt lat="48.46856" lon="7.21198">
        <ele>321.4</ele>
        <time>2021-08-01T13:45:28Z</time>
      </trkpt>
      <trkpt lat="48.46852" lon="7.21194">
        <ele>321.5</ele>
        <time>2021-08-01T13:45:29Z</time>
      </trkpt>
      <trkpt lat="48.46845" lon="7.21184">
        <ele>321.6</ele>
        <time>2021-08-01T13:45:31Z</time>
      </trkpt>
      <trkpt lat="48.46842" lon="7.21179">
        <ele>321.6</ele>
        <time>2021-08-01T13:45:32Z</time>
      </trkpt>
      <trkpt lat="48.46834" lon="7.21168">
        <ele>321.8</ele>
        <time>2021-08-01T13:45:34Z</time>
      </trkpt>
      <trkpt lat="48.4683" lon="7.21163">
        <ele>321.8</ele>
        <time>2021-08-01T13:45:35Z</time>
      </trkpt>
      <trkpt lat="48.46823" lon="7.21156">
        <ele>322</ele>
        <time>2021-08-01T13:45:37Z</time>
      </trkpt>
      <trkpt lat="48.46817" lon="7.21146">
        <ele>322.1</ele>
        <time>2021-08-01T13:45:39Z</time>
      </trkpt>
      <trkpt lat="48.46811" lon="7.21136">
        <ele>322.2</ele>
        <time>2021-08-01T13:45:41Z</time>
      </trkpt>
      <trkpt lat="48.46808" lon="7.21132">
        <ele>322.2</ele>
        <time>2021-08-01T13:45:42Z</time>
      </trkpt>
      <trkpt lat="48.46807" lon="7.2113">
        <ele>322.2</ele>
        <time>2021-08-01T13:45:43Z</time>
      </trkpt>
      <trkpt lat="48.468" lon="7.21121">
        <ele>322.3</ele>
        <time>2021-08-01T13:45:45Z</time>
      </trkpt>
      <trkpt lat="48.46796" lon="7.21117">
        <ele>322.4</ele>
        <time>2021-08-01T13:45:46Z</time>
      </trkpt>
      <trkpt lat="48.46793" lon="7.21114">
        <ele>322.4</ele>
        <time>2021-08-01T13:45:47Z</time>
      </trkpt>
      <trkpt lat="48.46788" lon="7.21109">
        <ele>322.5</ele>
        <time>2021-08-01T13:45:48Z</time>
      </trkpt>
      <trkpt lat="48.46785" lon="7.21105">
        <ele>322.6</ele>
        <time>2021-08-01T13:45:49Z</time>
      </trkpt>
      <trkpt lat="48.46781" lon="7.21101">
        <ele>322.6</ele>
        <time>2021-08-01T13:45:50Z</time>
      </trkpt>
      <trkpt lat="48.46778" lon="7.21097">
        <ele>322.7</ele>
        <time>2021-08-01T13:45:51Z</time>
      </trkpt>
      <trkpt lat="48.46773" lon="7.21089">
        <ele>322.7</ele>
        <time>2021-08-01T13:45:53Z</time>
      </trkpt>
      <trkpt lat="48.46768" lon="7.2108">
        <ele>322.8</ele>
        <time>2021-08-01T13:45:55Z</time>
      </trkpt>
      <trkpt lat="48.46764" lon="7.21075">
        <ele>322.9</ele>
        <time>2021-08-01T13:45:57Z</time>
      </trkpt>
      <trkpt lat="48.46759" lon="7.21068">
        <ele>323</ele>
        <time>2021-08-01T13:45:58Z</time>
      </trkpt>
      <trkpt lat="48.46753" lon="7.21062">
        <ele>323.1</ele>
        <time>2021-08-01T13:46:00Z</time>
      </trkpt>
      <trkpt lat="48.4675" lon="7.21058">
        <ele>323.2</ele>
        <time>2021-08-01T13:46:01Z</time>
      </trkpt>
      <trkpt lat="48.46746" lon="7.21053">
        <ele>323.3</ele>
        <time>2021-08-01T13:46:03Z</time>
      </trkpt>
      <trkpt lat="48.46743" lon="7.21049">
        <ele>323.3</ele>
        <time>2021-08-01T13:46:05Z</time>
      </trkpt>
      <trkpt lat="48.46738" lon="7.21044">
        <ele>323.4</ele>
        <time>2021-08-01T13:46:06Z</time>
      </trkpt>
      <trkpt lat="48.46734" lon="7.21039">
        <ele>323.5</ele>
        <time>2021-08-01T13:46:08Z</time>
      </trkpt>
      <trkpt lat="48.46729" lon="7.21031">
        <ele>323.6</ele>
        <time>2021-08-01T13:46:09Z</time>
      </trkpt>
      <trkpt lat="48.46727" lon="7.21027">
        <ele>323.6</ele>
        <time>2021-08-01T13:46:10Z</time>
      </trkpt>
      <trkpt lat="48.46725" lon="7.21021">
        <ele>323.7</ele>
        <time>2021-08-01T13:46:11Z</time>
      </trkpt>
      <trkpt lat="48.46723" lon="7.21017">
        <ele>323.7</ele>
        <time>2021-08-01T13:46:12Z</time>
      </trkpt>
      <trkpt lat="48.46718" lon="7.21008">
        <ele>323.8</ele>
        <time>2021-08-01T13:46:14Z</time>
      </trkpt>
      <trkpt lat="48.46716" lon="7.21004">
        <ele>323.9</ele>
        <time>2021-08-01T13:46:15Z</time>
      </trkpt>
      <trkpt lat="48.46713" lon="7.20999">
        <ele>324</ele>
        <time>2021-08-01T13:46:16Z</time>
      </trkpt>
      <trkpt lat="48.4671" lon="7.20994">
        <ele>324</ele>
        <time>2021-08-01T13:46:18Z</time>
      </trkpt>
      <trkpt lat="48.46705" lon="7.20985">
        <ele>324.1</ele>
        <time>2021-08-01T13:46:20Z</time>
      </trkpt>
      <trkpt lat="48.46701" lon="7.2098">
        <ele>324.2</ele>
        <time>2021-08-01T13:46:21Z</time>
      </trkpt>
      <trkpt lat="48.46698" lon="7.20971">
        <ele>324.3</ele>
        <time>2021-08-01T13:46:23Z</time>
      </trkpt>
      <trkpt lat="48.46695" lon="7.20968">
        <ele>324.4</ele>
        <time>2021-08-01T13:46:24Z</time>
      </trkpt>
      <trkpt lat="48.46693" lon="7.20964">
        <ele>324.4</ele>
        <time>2021-08-01T13:46:25Z</time>
      </trkpt>
      <trkpt lat="48.46687" lon="7.20957">
        <ele>324.6</ele>
        <time>2021-08-01T13:46:27Z</time>
      </trkpt>
      <trkpt lat="48.46681" lon="7.2095">
        <ele>324.7</ele>
        <time>2021-08-01T13:46:28Z</time>
      </trkpt>
      <trkpt lat="48.46678" lon="7.20946">
        <ele>324.8</ele>
        <time>2021-08-01T13:46:29Z</time>
      </trkpt>
      <trkpt lat="48.46675" lon="7.20942">
        <ele>324.8</ele>
        <time>2021-08-01T13:46:30Z</time>
      </trkpt>
      <trkpt lat="48.4667" lon="7.20934">
        <ele>325</ele>
        <time>2021-08-01T13:46:32Z</time>
      </trkpt>
      <trkpt lat="48.46667" lon="7.2093">
        <ele>325</ele>
        <time>2021-08-01T13:46:33Z</time>
      </trkpt>
      <trkpt lat="48.46663" lon="7.20924">
        <ele>325.1</ele>
        <time>2021-08-01T13:46:35Z</time>
      </trkpt>
      <trkpt lat="48.4666" lon="7.20921">
        <ele>325.2</ele>
        <time>2021-08-01T13:46:36Z</time>
      </trkpt>
      <trkpt lat="48.46658" lon="7.20917">
        <ele>325.2</ele>
        <time>2021-08-01T13:46:37Z</time>
      </trkpt>
      <trkpt lat="48.46655" lon="7.20914">
        <ele>325.2</ele>
        <time>2021-08-01T13:46:39Z</time>
      </trkpt>
      <trkpt lat="48.46653" lon="7.2091">
        <ele>325.3</ele>
        <time>2021-08-01T13:46:40Z</time>
      </trkpt>
      <trkpt lat="48.4665" lon="7.20907">
        <ele>325.3</ele>
        <time>2021-08-01T13:46:41Z</time>
      </trkpt>
      <trkpt lat="48.46647" lon="7.20903">
        <ele>325.4</ele>
        <time>2021-08-01T13:46:42Z</time>
      </trkpt>
      <trkpt lat="48.46645" lon="7.209">
        <ele>325.4</ele>
        <time>2021-08-01T13:46:43Z</time>
      </trkpt>
      <trkpt lat="48.4664" lon="7.20896">
        <ele>325.5</ele>
        <time>2021-08-01T13:46:44Z</time>
      </trkpt>
      <trkpt lat="48.46637" lon="7.20893">
        <ele>325.5</ele>
        <time>2021-08-01T13:46:46Z</time>
      </trkpt>
      <trkpt lat="48.46634" lon="7.2089">
        <ele>325.6</ele>
        <time>2021-08-01T13:46:47Z</time>
      </trkpt>
      <trkpt lat="48.4663" lon="7.20885">
        <ele>325.7</ele>
        <time>2021-08-01T13:46:48Z</time>
      </trkpt>
      <trkpt lat="48.46627" lon="7.20882">
        <ele>325.8</ele>
        <time>2021-08-01T13:46:49Z</time>
      </trkpt>
      <trkpt lat="48.46622" lon="7.20878">
        <ele>325.9</ele>
        <time>2021-08-01T13:46:51Z</time>
      </trkpt>
      <trkpt lat="48.46616" lon="7.20874">
        <ele>326</ele>
        <time>2021-08-01T13:46:53Z</time>
      </trkpt>
      <trkpt lat="48.4661" lon="7.2087">
        <ele>326.1</ele>
        <time>2021-08-01T13:46:55Z</time>
      </trkpt>
      <trkpt lat="48.46605" lon="7.20868">
        <ele>326.2</ele>
        <time>2021-08-01T13:46:57Z</time>
      </trkpt>
      <trkpt lat="48.46601" lon="7.20865">
        <ele>326.3</ele>
        <time>2021-08-01T13:46:58Z</time>
      </trkpt>
      <trkpt lat="48.466" lon="7.20864">
        <ele>326.3</ele>
        <time>2021-08-01T13:46:59Z</time>
      </trkpt>
      <trkpt lat="48.46597" lon="7.2086">
        <ele>326.4</ele>
        <time>2021-08-01T13:47:00Z</time>
      </trkpt>
      <trkpt lat="48.46594" lon="7.20858">
        <ele>326.4</ele>
        <time>2021-08-01T13:47:01Z</time>
      </trkpt>
      <trkpt lat="48.46591" lon="7.20855">
        <ele>326.4</ele>
        <time>2021-08-01T13:47:02Z</time>
      </trkpt>
      <trkpt lat="48.46589" lon="7.20854">
        <ele>326.5</ele>
        <time>2021-08-01T13:47:03Z</time>
      </trkpt>
      <trkpt lat="48.46586" lon="7.20852">
        <ele>326.5</ele>
        <time>2021-08-01T13:47:05Z</time>
      </trkpt>
      <trkpt lat="48.46583" lon="7.20851">
        <ele>326.6</ele>
        <time>2021-08-01T13:47:06Z</time>
      </trkpt>
      <trkpt lat="48.4658" lon="7.2085">
        <ele>326.6</ele>
        <time>2021-08-01T13:47:07Z</time>
      </trkpt>
      <trkpt lat="48.46576" lon="7.2085">
        <ele>326.6</ele>
        <time>2021-08-01T13:47:08Z</time>
      </trkpt>
      <trkpt lat="48.46572" lon="7.20848">
        <ele>326.7</ele>
        <time>2021-08-01T13:47:09Z</time>
      </trkpt>
      <trkpt lat="48.4657" lon="7.20848">
        <ele>326.7</ele>
        <time>2021-08-01T13:47:10Z</time>
      </trkpt>
      <trkpt lat="48.46567" lon="7.20847">
        <ele>326.8</ele>
        <time>2021-08-01T13:47:11Z</time>
      </trkpt>
      <trkpt lat="48.46564" lon="7.20845">
        <ele>326.8</ele>
        <time>2021-08-01T13:47:12Z</time>
      </trkpt>
      <trkpt lat="48.46561" lon="7.20843">
        <ele>326.8</ele>
        <time>2021-08-01T13:47:13Z</time>
      </trkpt>
      <trkpt lat="48.46558" lon="7.20842">
        <ele>326.8</ele>
        <time>2021-08-01T13:47:15Z</time>
      </trkpt>
      <trkpt lat="48.46555" lon="7.20841">
        <ele>326.8</ele>
        <time>2021-08-01T13:47:16Z</time>
      </trkpt>
      <trkpt lat="48.46552" lon="7.20838">
        <ele>326.8</ele>
        <time>2021-08-01T13:47:17Z</time>
      </trkpt>
      <trkpt lat="48.4655" lon="7.20835">
        <ele>326.9</ele>
        <time>2021-08-01T13:47:18Z</time>
      </trkpt>
      <trkpt lat="48.46548" lon="7.20831">
        <ele>326.9</ele>
        <time>2021-08-01T13:47:19Z</time>
      </trkpt>
      <trkpt lat="48.46544" lon="7.20825">
        <ele>326.9</ele>
        <time>2021-08-01T13:47:20Z</time>
      </trkpt>
      <trkpt lat="48.46541" lon="7.20819">
        <ele>327</ele>
        <time>2021-08-01T13:47:21Z</time>
      </trkpt>
      <trkpt lat="48.46538" lon="7.20815">
        <ele>327</ele>
        <time>2021-08-01T13:47:22Z</time>
      </trkpt>
      <trkpt lat="48.46535" lon="7.20812">
        <ele>327</ele>
        <time>2021-08-01T13:47:23Z</time>
      </trkpt>
      <trkpt lat="48.46532" lon="7.20808">
        <ele>327.1</ele>
        <time>2021-08-01T13:47:24Z</time>
      </trkpt>
      <trkpt lat="48.4653" lon="7.20803">
        <ele>327.2</ele>
        <time>2021-08-01T13:47:26Z</time>
      </trkpt>
      <trkpt lat="48.46526" lon="7.20797">
        <ele>327.3</ele>
        <time>2021-08-01T13:47:27Z</time>
      </trkpt>
      <trkpt lat="48.46524" lon="7.20793">
        <ele>327.3</ele>
        <time>2021-08-01T13:47:28Z</time>
      </trkpt>
      <trkpt lat="48.46521" lon="7.20789">
        <ele>327.4</ele>
        <time>2021-08-01T13:47:29Z</time>
      </trkpt>
      <trkpt lat="48.46519" lon="7.20786">
        <ele>327.4</ele>
        <time>2021-08-01T13:47:30Z</time>
      </trkpt>
      <trkpt lat="48.46516" lon="7.20783">
        <ele>327.4</ele>
        <time>2021-08-01T13:47:31Z</time>
      </trkpt>
      <trkpt lat="48.46513" lon="7.20779">
        <ele>327.5</ele>
        <time>2021-08-01T13:47:33Z</time>
      </trkpt>
      <trkpt lat="48.46508" lon="7.20774">
        <ele>327.5</ele>
        <time>2021-08-01T13:47:34Z</time>
      </trkpt>
      <trkpt lat="48.46505" lon="7.20771">
        <ele>327.6</ele>
        <time>2021-08-01T13:47:35Z</time>
      </trkpt>
      <trkpt lat="48.46501" lon="7.20767">
        <ele>327.6</ele>
        <time>2021-08-01T13:47:36Z</time>
      </trkpt>
      <trkpt lat="48.46496" lon="7.20761">
        <ele>327.8</ele>
        <time>2021-08-01T13:47:38Z</time>
      </trkpt>
      <trkpt lat="48.46494" lon="7.20758">
        <ele>327.8</ele>
        <time>2021-08-01T13:47:39Z</time>
      </trkpt>
      <trkpt lat="48.46489" lon="7.20752">
        <ele>327.9</ele>
        <time>2021-08-01T13:47:41Z</time>
      </trkpt>
      <trkpt lat="48.46486" lon="7.20747">
        <ele>328</ele>
        <time>2021-08-01T13:47:43Z</time>
      </trkpt>
      <trkpt lat="48.46482" lon="7.2074">
        <ele>328.2</ele>
        <time>2021-08-01T13:47:44Z</time>
      </trkpt>
      <trkpt lat="48.4648" lon="7.20737">
        <ele>328.3</ele>
        <time>2021-08-01T13:47:45Z</time>
      </trkpt>
      <trkpt lat="48.46477" lon="7.20734">
        <ele>328.3</ele>
        <time>2021-08-01T13:47:46Z</time>
      </trkpt>
      <trkpt lat="48.46474" lon="7.2073">
        <ele>328.4</ele>
        <time>2021-08-01T13:47:48Z</time>
      </trkpt>
      <trkpt lat="48.46471" lon="7.20727">
        <ele>328.5</ele>
        <time>2021-08-01T13:47:49Z</time>
      </trkpt>
      <trkpt lat="48.46468" lon="7.20725">
        <ele>328.6</ele>
        <time>2021-08-01T13:47:50Z</time>
      </trkpt>
      <trkpt lat="48.46464" lon="7.20722">
        <ele>328.7</ele>
        <time>2021-08-01T13:47:51Z</time>
      </trkpt>
      <trkpt lat="48.46461" lon="7.2072">
        <ele>328.7</ele>
        <time>2021-08-01T13:47:52Z</time>
      </trkpt>
      <trkpt lat="48.46457" lon="7.20715">
        <ele>328.8</ele>
        <time>2021-08-01T13:47:54Z</time>
      </trkpt>
      <trkpt lat="48.46454" lon="7.20712">
        <ele>328.9</ele>
        <time>2021-08-01T13:47:55Z</time>
      </trkpt>
      <trkpt lat="48.46451" lon="7.20709">
        <ele>329</ele>
        <time>2021-08-01T13:47:56Z</time>
      </trkpt>
      <trkpt lat="48.46446" lon="7.20704">
        <ele>329.1</ele>
        <time>2021-08-01T13:47:58Z</time>
      </trkpt>
      <trkpt lat="48.46444" lon="7.207">
        <ele>329.2</ele>
        <time>2021-08-01T13:47:59Z</time>
      </trkpt>
      <trkpt lat="48.46441" lon="7.20694">
        <ele>329.3</ele>
        <time>2021-08-01T13:48:00Z</time>
      </trkpt>
      <trkpt lat="48.46437" lon="7.20686">
        <ele>329.4</ele>
        <time>2021-08-01T13:48:02Z</time>
      </trkpt>
      <trkpt lat="48.46433" lon="7.20678">
        <ele>329.6</ele>
        <time>2021-08-01T13:48:04Z</time>
      </trkpt>
      <trkpt lat="48.46429" lon="7.20668">
        <ele>329.7</ele>
        <time>2021-08-01T13:48:05Z</time>
      </trkpt>
      <trkpt lat="48.46423" lon="7.20659">
        <ele>329.9</ele>
        <time>2021-08-01T13:48:07Z</time>
      </trkpt>
      <trkpt lat="48.4642" lon="7.20656">
        <ele>330</ele>
        <time>2021-08-01T13:48:09Z</time>
      </trkpt>
      <trkpt lat="48.46414" lon="7.2065">
        <ele>330.2</ele>
        <time>2021-08-01T13:48:11Z</time>
      </trkpt>
      <trkpt lat="48.46408" lon="7.20645">
        <ele>330.3</ele>
        <time>2021-08-01T13:48:12Z</time>
      </trkpt>
      <trkpt lat="48.46405" lon="7.20642">
        <ele>330.4</ele>
        <time>2021-08-01T13:48:13Z</time>
      </trkpt>
      <trkpt lat="48.46399" lon="7.20637">
        <ele>330.5</ele>
        <time>2021-08-01T13:48:15Z</time>
      </trkpt>
      <trkpt lat="48.46397" lon="7.20634">
        <ele>330.6</ele>
        <time>2021-08-01T13:48:17Z</time>
      </trkpt>
      <trkpt lat="48.46394" lon="7.20632">
        <ele>330.7</ele>
        <time>2021-08-01T13:48:18Z</time>
      </trkpt>
      <trkpt lat="48.46389" lon="7.20627">
        <ele>330.8</ele>
        <time>2021-08-01T13:48:20Z</time>
      </trkpt>
      <trkpt lat="48.46385" lon="7.20623">
        <ele>330.9</ele>
        <time>2021-08-01T13:48:21Z</time>
      </trkpt>
      <trkpt lat="48.46382" lon="7.20621">
        <ele>330.9</ele>
        <time>2021-08-01T13:48:22Z</time>
      </trkpt>
      <trkpt lat="48.46379" lon="7.20617">
        <ele>331</ele>
        <time>2021-08-01T13:48:23Z</time>
      </trkpt>
      <trkpt lat="48.46372" lon="7.20611">
        <ele>331.2</ele>
        <time>2021-08-01T13:48:25Z</time>
      </trkpt>
      <trkpt lat="48.46367" lon="7.20606">
        <ele>331.3</ele>
        <time>2021-08-01T13:48:27Z</time>
      </trkpt>
      <trkpt lat="48.4636" lon="7.20602">
        <ele>331.4</ele>
        <time>2021-08-01T13:48:29Z</time>
      </trkpt>
      <trkpt lat="48.46355" lon="7.20596">
        <ele>331.5</ele>
        <time>2021-08-01T13:48:31Z</time>
      </trkpt>
      <trkpt lat="48.4635" lon="7.2059">
        <ele>331.6</ele>
        <time>2021-08-01T13:48:33Z</time>
      </trkpt>
      <trkpt lat="48.46344" lon="7.20584">
        <ele>331.8</ele>
        <time>2021-08-01T13:48:35Z</time>
      </trkpt>
      <trkpt lat="48.46339" lon="7.2058">
        <ele>331.9</ele>
        <time>2021-08-01T13:48:36Z</time>
      </trkpt>
      <trkpt lat="48.46336" lon="7.20577">
        <ele>332</ele>
        <time>2021-08-01T13:48:37Z</time>
      </trkpt>
      <trkpt lat="48.46332" lon="7.20574">
        <ele>332</ele>
        <time>2021-08-01T13:48:39Z</time>
      </trkpt>
      <trkpt lat="48.4633" lon="7.20572">
        <ele>332.1</ele>
        <time>2021-08-01T13:48:40Z</time>
      </trkpt>
      <trkpt lat="48.46327" lon="7.20569">
        <ele>332.2</ele>
        <time>2021-08-01T13:48:41Z</time>
      </trkpt>
      <trkpt lat="48.46322" lon="7.20564">
        <ele>332.2</ele>
        <time>2021-08-01T13:48:42Z</time>
      </trkpt>
      <trkpt lat="48.46319" lon="7.20561">
        <ele>332.3</ele>
        <time>2021-08-01T13:48:43Z</time>
      </trkpt>
      <trkpt lat="48.46316" lon="7.20558">
        <ele>332.4</ele>
        <time>2021-08-01T13:48:45Z</time>
      </trkpt>
      <trkpt lat="48.46313" lon="7.20554">
        <ele>332.4</ele>
        <time>2021-08-01T13:48:46Z</time>
      </trkpt>
      <trkpt lat="48.4631" lon="7.20551">
        <ele>332.5</ele>
        <time>2021-08-01T13:48:47Z</time>
      </trkpt>
      <trkpt lat="48.46306" lon="7.20547">
        <ele>332.6</ele>
        <time>2021-08-01T13:48:49Z</time>
      </trkpt>
      <trkpt lat="48.46303" lon="7.20542">
        <ele>332.7</ele>
        <time>2021-08-01T13:48:51Z</time>
      </trkpt>
      <trkpt lat="48.46299" lon="7.20535">
        <ele>332.8</ele>
        <time>2021-08-01T13:48:52Z</time>
      </trkpt>
      <trkpt lat="48.46297" lon="7.20532">
        <ele>332.8</ele>
        <time>2021-08-01T13:48:54Z</time>
      </trkpt>
      <trkpt lat="48.46295" lon="7.20529">
        <ele>332.9</ele>
        <time>2021-08-01T13:48:55Z</time>
      </trkpt>
      <trkpt lat="48.46291" lon="7.20523">
        <ele>333</ele>
        <time>2021-08-01T13:48:56Z</time>
      </trkpt>
      <trkpt lat="48.46288" lon="7.2052">
        <ele>333.1</ele>
        <time>2021-08-01T13:48:57Z</time>
      </trkpt>
      <trkpt lat="48.46285" lon="7.20517">
        <ele>333.1</ele>
        <time>2021-08-01T13:48:59Z</time>
      </trkpt>
      <trkpt lat="48.46281" lon="7.20514">
        <ele>333.2</ele>
        <time>2021-08-01T13:49:00Z</time>
      </trkpt>
      <trkpt lat="48.46277" lon="7.20513">
        <ele>333.3</ele>
        <time>2021-08-01T13:49:02Z</time>
      </trkpt>
      <trkpt lat="48.46274" lon="7.20511">
        <ele>333.4</ele>
        <time>2021-08-01T13:49:03Z</time>
      </trkpt>
      <trkpt lat="48.46268" lon="7.20507">
        <ele>333.5</ele>
        <time>2021-08-01T13:49:05Z</time>
      </trkpt>
      <trkpt lat="48.46265" lon="7.20504">
        <ele>333.5</ele>
        <time>2021-08-01T13:49:06Z</time>
      </trkpt>
      <trkpt lat="48.4626" lon="7.20498">
        <ele>333.7</ele>
        <time>2021-08-01T13:49:08Z</time>
      </trkpt>
      <trkpt lat="48.46257" lon="7.20494">
        <ele>333.7</ele>
        <time>2021-08-01T13:49:09Z</time>
      </trkpt>
      <trkpt lat="48.46254" lon="7.2049">
        <ele>333.8</ele>
        <time>2021-08-01T13:49:10Z</time>
      </trkpt>
      <trkpt lat="48.46251" lon="7.20485">
        <ele>333.9</ele>
        <time>2021-08-01T13:49:12Z</time>
      </trkpt>
      <trkpt lat="48.46249" lon="7.20482">
        <ele>334</ele>
        <time>2021-08-01T13:49:13Z</time>
      </trkpt>
      <trkpt lat="48.46246" lon="7.20478">
        <ele>334</ele>
        <time>2021-08-01T13:49:14Z</time>
      </trkpt>
      <trkpt lat="48.46242" lon="7.20475">
        <ele>334.1</ele>
        <time>2021-08-01T13:49:15Z</time>
      </trkpt>
      <trkpt lat="48.4624" lon="7.20473">
        <ele>334.1</ele>
        <time>2021-08-01T13:49:17Z</time>
      </trkpt>
      <trkpt lat="48.46237" lon="7.20473">
        <ele>334.2</ele>
        <time>2021-08-01T13:49:18Z</time>
      </trkpt>
      <trkpt lat="48.46234" lon="7.20473">
        <ele>334.2</ele>
        <time>2021-08-01T13:49:19Z</time>
      </trkpt>
      <trkpt lat="48.46228" lon="7.20471">
        <ele>334.4</ele>
        <time>2021-08-01T13:49:21Z</time>
      </trkpt>
      <trkpt lat="48.46224" lon="7.20468">
        <ele>334.5</ele>
        <time>2021-08-01T13:49:22Z</time>
      </trkpt>
      <trkpt lat="48.4622" lon="7.20465">
        <ele>334.6</ele>
        <time>2021-08-01T13:49:23Z</time>
      </trkpt>
      <trkpt lat="48.46217" lon="7.2046">
        <ele>334.6</ele>
        <time>2021-08-01T13:49:25Z</time>
      </trkpt>
      <trkpt lat="48.46213" lon="7.20453">
        <ele>334.8</ele>
        <time>2021-08-01T13:49:26Z</time>
      </trkpt>
      <trkpt lat="48.4621" lon="7.20449">
        <ele>334.9</ele>
        <time>2021-08-01T13:49:28Z</time>
      </trkpt>
      <trkpt lat="48.46207" lon="7.20445">
        <ele>335</ele>
        <time>2021-08-01T13:49:29Z</time>
      </trkpt>
      <trkpt lat="48.46205" lon="7.20441">
        <ele>335.1</ele>
        <time>2021-08-01T13:49:30Z</time>
      </trkpt>
      <trkpt lat="48.46203" lon="7.20438">
        <ele>335.2</ele>
        <time>2021-08-01T13:49:31Z</time>
      </trkpt>
      <trkpt lat="48.46201" lon="7.20432">
        <ele>335.4</ele>
        <time>2021-08-01T13:49:33Z</time>
      </trkpt>
      <trkpt lat="48.46199" lon="7.20428">
        <ele>335.5</ele>
        <time>2021-08-01T13:49:34Z</time>
      </trkpt>
      <trkpt lat="48.46199" lon="7.20423">
        <ele>335.6</ele>
        <time>2021-08-01T13:49:35Z</time>
      </trkpt>
      <trkpt lat="48.462" lon="7.20414">
        <ele>335.8</ele>
        <time>2021-08-01T13:49:37Z</time>
      </trkpt>
      <trkpt lat="48.46202" lon="7.20405">
        <ele>336.2</ele>
        <time>2021-08-01T13:49:39Z</time>
      </trkpt>
      <trkpt lat="48.46202" lon="7.204">
        <ele>336.3</ele>
        <time>2021-08-01T13:49:40Z</time>
      </trkpt>
      <trkpt lat="48.46204" lon="7.20392">
        <ele>336.4</ele>
        <time>2021-08-01T13:49:42Z</time>
      </trkpt>
      <trkpt lat="48.46206" lon="7.20389">
        <ele>336.5</ele>
        <time>2021-08-01T13:49:43Z</time>
      </trkpt>
      <trkpt lat="48.4621" lon="7.20382">
        <ele>336.7</ele>
        <time>2021-08-01T13:49:45Z</time>
      </trkpt>
      <trkpt lat="48.4621" lon="7.20377">
        <ele>336.8</ele>
        <time>2021-08-01T13:49:46Z</time>
      </trkpt>
      <trkpt lat="48.4621" lon="7.20371">
        <ele>336.8</ele>
        <time>2021-08-01T13:49:47Z</time>
      </trkpt>
      <trkpt lat="48.4621" lon="7.20369">
        <ele>336.9</ele>
        <time>2021-08-01T13:49:48Z</time>
      </trkpt>
      <trkpt lat="48.4621" lon="7.20366">
        <ele>336.9</ele>
        <time>2021-08-01T13:49:50Z</time>
      </trkpt>
      <trkpt lat="48.46209" lon="7.20364">
        <ele>336.9</ele>
        <time>2021-08-01T13:49:51Z</time>
      </trkpt>
      <trkpt lat="48.46207" lon="7.20358">
        <ele>337</ele>
        <time>2021-08-01T13:49:53Z</time>
      </trkpt>
      <trkpt lat="48.46204" lon="7.20357">
        <ele>337.1</ele>
        <time>2021-08-01T13:49:54Z</time>
      </trkpt>
      <trkpt lat="48.46199" lon="7.20355">
        <ele>337.2</ele>
        <time>2021-08-01T13:49:56Z</time>
      </trkpt>
      <trkpt lat="48.46197" lon="7.20354">
        <ele>337.2</ele>
        <time>2021-08-01T13:49:57Z</time>
      </trkpt>
      <trkpt lat="48.46196" lon="7.20353">
        <ele>337.2</ele>
        <time>2021-08-01T13:49:58Z</time>
      </trkpt>
      <trkpt lat="48.46196" lon="7.20354">
        <ele>337.2</ele>
        <time>2021-08-01T13:50:00Z</time>
      </trkpt>
      <trkpt lat="48.46196" lon="7.20354">
        <ele>337.2</ele>
        <time>2021-08-01T13:50:01Z</time>
      </trkpt>
      <trkpt lat="48.46196" lon="7.20354">
        <ele>337.3</ele>
        <time>2021-08-01T13:50:02Z</time>
      </trkpt>
      <trkpt lat="48.46195" lon="7.20354">
        <ele>337.3</ele>
        <time>2021-08-01T13:50:04Z</time>
      </trkpt>
      <trkpt lat="48.46195" lon="7.20354">
        <ele>337.3</ele>
        <time>2021-08-01T13:50:06Z</time>
      </trkpt>
      <trkpt lat="48.46195" lon="7.20354">
        <ele>337.3</ele>
        <time>2021-08-01T13:50:08Z</time>
      </trkpt>
      <trkpt lat="48.46194" lon="7.20362">
        <ele>337.1</ele>
        <time>2021-08-01T13:50:36Z</time>
      </trkpt>
      <trkpt lat="48.46189" lon="7.2038">
        <ele>336.7</ele>
        <time>2021-08-01T13:50:39Z</time>
      </trkpt>
      <trkpt lat="48.46186" lon="7.2039">
        <ele>336.5</ele>
        <time>2021-08-01T13:50:40Z</time>
      </trkpt>
      <trkpt lat="48.46183" lon="7.20404">
        <ele>336.2</ele>
        <time>2021-08-01T13:50:42Z</time>
      </trkpt>
      <trkpt lat="48.46182" lon="7.2041">
        <ele>336.1</ele>
        <time>2021-08-01T13:50:43Z</time>
      </trkpt>
      <trkpt lat="48.46184" lon="7.20421">
        <ele>335.9</ele>
        <time>2021-08-01T13:50:45Z</time>
      </trkpt>
      <trkpt lat="48.46185" lon="7.20427">
        <ele>335.7</ele>
        <time>2021-08-01T13:50:46Z</time>
      </trkpt>
      <trkpt lat="48.46196" lon="7.20442">
        <ele>335.3</ele>
        <time>2021-08-01T13:50:48Z</time>
      </trkpt>
      <trkpt lat="48.46199" lon="7.20448">
        <ele>335.1</ele>
        <time>2021-08-01T13:50:49Z</time>
      </trkpt>
      <trkpt lat="48.46204" lon="7.20462">
        <ele>334.6</ele>
        <time>2021-08-01T13:50:51Z</time>
      </trkpt>
      <trkpt lat="48.46206" lon="7.20469">
        <ele>334.6</ele>
        <time>2021-08-01T13:50:52Z</time>
      </trkpt>
      <trkpt lat="48.46201" lon="7.20484">
        <ele>334.5</ele>
        <time>2021-08-01T13:50:54Z</time>
      </trkpt>
      <trkpt lat="48.46198" lon="7.20492">
        <ele>334.4</ele>
        <time>2021-08-01T13:50:55Z</time>
      </trkpt>
      <trkpt lat="48.46188" lon="7.20504">
        <ele>334.4</ele>
        <time>2021-08-01T13:50:57Z</time>
      </trkpt>
      <trkpt lat="48.46183" lon="7.20508">
        <ele>334.4</ele>
        <time>2021-08-01T13:50:58Z</time>
      </trkpt>
      <trkpt lat="48.46177" lon="7.20512">
        <ele>334.4</ele>
        <time>2021-08-01T13:50:59Z</time>
      </trkpt>
      <trkpt lat="48.46168" lon="7.20519">
        <ele>334.5</ele>
        <time>2021-08-01T13:51:01Z</time>
      </trkpt>
      <trkpt lat="48.4616" lon="7.20525">
        <ele>334.5</ele>
        <time>2021-08-01T13:51:03Z</time>
      </trkpt>
      <trkpt lat="48.46147" lon="7.20523">
        <ele>334.5</ele>
        <time>2021-08-01T13:51:05Z</time>
      </trkpt>
      <trkpt lat="48.46136" lon="7.20524">
        <ele>334.6</ele>
        <time>2021-08-01T13:51:07Z</time>
      </trkpt>
      <trkpt lat="48.46126" lon="7.20527">
        <ele>334.7</ele>
        <time>2021-08-01T13:51:09Z</time>
      </trkpt>
      <trkpt lat="48.46114" lon="7.2053">
        <ele>334.7</ele>
        <time>2021-08-01T13:51:11Z</time>
      </trkpt>
      <trkpt lat="48.46109" lon="7.2053">
        <ele>334.8</ele>
        <time>2021-08-01T13:51:12Z</time>
      </trkpt>
      <trkpt lat="48.46103" lon="7.20531">
        <ele>334.8</ele>
        <time>2021-08-01T13:51:13Z</time>
      </trkpt>
      <trkpt lat="48.46092" lon="7.20533">
        <ele>334.9</ele>
        <time>2021-08-01T13:51:15Z</time>
      </trkpt>
      <trkpt lat="48.46087" lon="7.20532">
        <ele>334.9</ele>
        <time>2021-08-01T13:51:16Z</time>
      </trkpt>
      <trkpt lat="48.46081" lon="7.20532">
        <ele>335</ele>
        <time>2021-08-01T13:51:17Z</time>
      </trkpt>
      <trkpt lat="48.46075" lon="7.20532">
        <ele>335</ele>
        <time>2021-08-01T13:51:18Z</time>
      </trkpt>
      <trkpt lat="48.46069" lon="7.20532">
        <ele>335.1</ele>
        <time>2021-08-01T13:51:19Z</time>
      </trkpt>
      <trkpt lat="48.46059" lon="7.20533">
        <ele>335.2</ele>
        <time>2021-08-01T13:51:21Z</time>
      </trkpt>
      <trkpt lat="48.46054" lon="7.20534">
        <ele>335.2</ele>
        <time>2021-08-01T13:51:22Z</time>
      </trkpt>
      <trkpt lat="48.46045" lon="7.20536">
        <ele>335.3</ele>
        <time>2021-08-01T13:51:24Z</time>
      </trkpt>
      <trkpt lat="48.46034" lon="7.20537">
        <ele>335.4</ele>
        <time>2021-08-01T13:51:26Z</time>
      </trkpt>
      <trkpt lat="48.46025" lon="7.20538">
        <ele>335.6</ele>
        <time>2021-08-01T13:51:28Z</time>
      </trkpt>
      <trkpt lat="48.46021" lon="7.20537">
        <ele>335.6</ele>
        <time>2021-08-01T13:51:29Z</time>
      </trkpt>
      <trkpt lat="48.46018" lon="7.20536">
        <ele>335.7</ele>
        <time>2021-08-01T13:51:30Z</time>
      </trkpt>
      <trkpt lat="48.4601" lon="7.20533">
        <ele>335.8</ele>
        <time>2021-08-01T13:51:32Z</time>
      </trkpt>
      <trkpt lat="48.46006" lon="7.20531">
        <ele>335.8</ele>
        <time>2021-08-01T13:51:33Z</time>
      </trkpt>
      <trkpt lat="48.46001" lon="7.20529">
        <ele>335.9</ele>
        <time>2021-08-01T13:51:34Z</time>
      </trkpt>
      <trkpt lat="48.45999" lon="7.20524">
        <ele>336</ele>
        <time>2021-08-01T13:51:35Z</time>
      </trkpt>
      <trkpt lat="48.45995" lon="7.20524">
        <ele>336.1</ele>
        <time>2021-08-01T13:51:36Z</time>
      </trkpt>
      <trkpt lat="48.45991" lon="7.20523">
        <ele>336.2</ele>
        <time>2021-08-01T13:51:37Z</time>
      </trkpt>
      <trkpt lat="48.45987" lon="7.20525">
        <ele>336.3</ele>
        <time>2021-08-01T13:51:38Z</time>
      </trkpt>
      <trkpt lat="48.45983" lon="7.20526">
        <ele>336.3</ele>
        <time>2021-08-01T13:51:39Z</time>
      </trkpt>
      <trkpt lat="48.45976" lon="7.20525">
        <ele>336.5</ele>
        <time>2021-08-01T13:51:41Z</time>
      </trkpt>
      <trkpt lat="48.45973" lon="7.20524">
        <ele>336.5</ele>
        <time>2021-08-01T13:51:43Z</time>
      </trkpt>
      <trkpt lat="48.45967" lon="7.20524">
        <ele>336.6</ele>
        <time>2021-08-01T13:51:45Z</time>
      </trkpt>
      <trkpt lat="48.45964" lon="7.20524">
        <ele>336.7</ele>
        <time>2021-08-01T13:51:46Z</time>
      </trkpt>
      <trkpt lat="48.45961" lon="7.20524">
        <ele>336.7</ele>
        <time>2021-08-01T13:51:47Z</time>
      </trkpt>
      <trkpt lat="48.45957" lon="7.20525">
        <ele>336.8</ele>
        <time>2021-08-01T13:51:48Z</time>
      </trkpt>
      <trkpt lat="48.45952" lon="7.20525">
        <ele>336.9</ele>
        <time>2021-08-01T13:51:49Z</time>
      </trkpt>
      <trkpt lat="48.45949" lon="7.20524">
        <ele>337</ele>
        <time>2021-08-01T13:51:50Z</time>
      </trkpt>
      <trkpt lat="48.45944" lon="7.20524">
        <ele>337.1</ele>
        <time>2021-08-01T13:51:52Z</time>
      </trkpt>
      <trkpt lat="48.45941" lon="7.20523">
        <ele>337.1</ele>
        <time>2021-08-01T13:51:53Z</time>
      </trkpt>
      <trkpt lat="48.45938" lon="7.20521">
        <ele>337.2</ele>
        <time>2021-08-01T13:51:54Z</time>
      </trkpt>
      <trkpt lat="48.45935" lon="7.2052">
        <ele>337.3</ele>
        <time>2021-08-01T13:51:55Z</time>
      </trkpt>
      <trkpt lat="48.4593" lon="7.20518">
        <ele>337.5</ele>
        <time>2021-08-01T13:51:56Z</time>
      </trkpt>
      <trkpt lat="48.45927" lon="7.20516">
        <ele>337.5</ele>
        <time>2021-08-01T13:51:57Z</time>
      </trkpt>
      <trkpt lat="48.45924" lon="7.20514">
        <ele>337.6</ele>
        <time>2021-08-01T13:51:58Z</time>
      </trkpt>
      <trkpt lat="48.4592" lon="7.20512">
        <ele>337.7</ele>
        <time>2021-08-01T13:51:59Z</time>
      </trkpt>
      <trkpt lat="48.45916" lon="7.20511">
        <ele>337.8</ele>
        <time>2021-08-01T13:52:01Z</time>
      </trkpt>
      <trkpt lat="48.45909" lon="7.20511">
        <ele>338</ele>
        <time>2021-08-01T13:52:03Z</time>
      </trkpt>
      <trkpt lat="48.45904" lon="7.20509">
        <ele>338.1</ele>
        <time>2021-08-01T13:52:04Z</time>
      </trkpt>
      <trkpt lat="48.459" lon="7.20508">
        <ele>338.1</ele>
        <time>2021-08-01T13:52:05Z</time>
      </trkpt>
      <trkpt lat="48.45897" lon="7.20507">
        <ele>338.2</ele>
        <time>2021-08-01T13:52:06Z</time>
      </trkpt>
      <trkpt lat="48.45893" lon="7.20505">
        <ele>338.3</ele>
        <time>2021-08-01T13:52:07Z</time>
      </trkpt>
      <trkpt lat="48.45889" lon="7.20503">
        <ele>338.4</ele>
        <time>2021-08-01T13:52:08Z</time>
      </trkpt>
      <trkpt lat="48.45885" lon="7.20502">
        <ele>338.4</ele>
        <time>2021-08-01T13:52:09Z</time>
      </trkpt>
      <trkpt lat="48.45881" lon="7.20501">
        <ele>338.5</ele>
        <time>2021-08-01T13:52:10Z</time>
      </trkpt>
      <trkpt lat="48.45877" lon="7.205">
        <ele>338.6</ele>
        <time>2021-08-01T13:52:11Z</time>
      </trkpt>
      <trkpt lat="48.45872" lon="7.205">
        <ele>338.6</ele>
        <time>2021-08-01T13:52:13Z</time>
      </trkpt>
      <trkpt lat="48.45865" lon="7.20501">
        <ele>338.8</ele>
        <time>2021-08-01T13:52:15Z</time>
      </trkpt>
      <trkpt lat="48.45861" lon="7.20501">
        <ele>338.8</ele>
        <time>2021-08-01T13:52:16Z</time>
      </trkpt>
      <trkpt lat="48.45857" lon="7.20501">
        <ele>338.9</ele>
        <time>2021-08-01T13:52:17Z</time>
      </trkpt>
      <trkpt lat="48.4585" lon="7.20501">
        <ele>339</ele>
        <time>2021-08-01T13:52:19Z</time>
      </trkpt>
      <trkpt lat="48.45847" lon="7.205">
        <ele>339.1</ele>
        <time>2021-08-01T13:52:20Z</time>
      </trkpt>
      <trkpt lat="48.4584" lon="7.20499">
        <ele>339.2</ele>
        <time>2021-08-01T13:52:21Z</time>
      </trkpt>
      <trkpt lat="48.45836" lon="7.205">
        <ele>339.2</ele>
        <time>2021-08-01T13:52:22Z</time>
      </trkpt>
      <trkpt lat="48.45832" lon="7.205">
        <ele>339.3</ele>
        <time>2021-08-01T13:52:23Z</time>
      </trkpt>
      <trkpt lat="48.45828" lon="7.20499">
        <ele>339.4</ele>
        <time>2021-08-01T13:52:24Z</time>
      </trkpt>
      <trkpt lat="48.45824" lon="7.20499">
        <ele>339.4</ele>
        <time>2021-08-01T13:52:26Z</time>
      </trkpt>
      <trkpt lat="48.45818" lon="7.205">
        <ele>339.5</ele>
        <time>2021-08-01T13:52:28Z</time>
      </trkpt>
      <trkpt lat="48.45813" lon="7.20503">
        <ele>339.6</ele>
        <time>2021-08-01T13:52:29Z</time>
      </trkpt>
      <trkpt lat="48.45806" lon="7.20506">
        <ele>339.7</ele>
        <time>2021-08-01T13:52:30Z</time>
      </trkpt>
      <trkpt lat="48.45801" lon="7.20507">
        <ele>339.8</ele>
        <time>2021-08-01T13:52:31Z</time>
      </trkpt>
      <trkpt lat="48.45796" lon="7.20509">
        <ele>339.9</ele>
        <time>2021-08-01T13:52:33Z</time>
      </trkpt>
      <trkpt lat="48.45792" lon="7.20511">
        <ele>340</ele>
        <time>2021-08-01T13:52:34Z</time>
      </trkpt>
      <trkpt lat="48.45786" lon="7.20514">
        <ele>340.1</ele>
        <time>2021-08-01T13:52:36Z</time>
      </trkpt>
      <trkpt lat="48.45783" lon="7.20516">
        <ele>340.1</ele>
        <time>2021-08-01T13:52:37Z</time>
      </trkpt>
      <trkpt lat="48.45777" lon="7.20522">
        <ele>340.3</ele>
        <time>2021-08-01T13:52:39Z</time>
      </trkpt>
      <trkpt lat="48.45772" lon="7.20526">
        <ele>340.4</ele>
        <time>2021-08-01T13:52:41Z</time>
      </trkpt>
      <trkpt lat="48.45767" lon="7.2053">
        <ele>340.5</ele>
        <time>2021-08-01T13:52:43Z</time>
      </trkpt>
      <trkpt lat="48.45762" lon="7.20534">
        <ele>340.6</ele>
        <time>2021-08-01T13:52:45Z</time>
      </trkpt>
      <trkpt lat="48.45758" lon="7.20538">
        <ele>340.7</ele>
        <time>2021-08-01T13:52:46Z</time>
      </trkpt>
      <trkpt lat="48.45754" lon="7.20541">
        <ele>340.7</ele>
        <time>2021-08-01T13:52:48Z</time>
      </trkpt>
      <trkpt lat="48.45752" lon="7.20543">
        <ele>340.8</ele>
        <time>2021-08-01T13:52:49Z</time>
      </trkpt>
      <trkpt lat="48.45747" lon="7.20547">
        <ele>340.8</ele>
        <time>2021-08-01T13:52:51Z</time>
      </trkpt>
      <trkpt lat="48.45744" lon="7.2055">
        <ele>340.8</ele>
        <time>2021-08-01T13:52:52Z</time>
      </trkpt>
      <trkpt lat="48.45739" lon="7.20554">
        <ele>340.8</ele>
        <time>2021-08-01T13:52:53Z</time>
      </trkpt>
      <trkpt lat="48.45736" lon="7.20556">
        <ele>340.8</ele>
        <time>2021-08-01T13:52:54Z</time>
      </trkpt>
      <trkpt lat="48.45733" lon="7.20559">
        <ele>340.8</ele>
        <time>2021-08-01T13:52:55Z</time>
      </trkpt>
      <trkpt lat="48.45729" lon="7.20561">
        <ele>340.9</ele>
        <time>2021-08-01T13:52:57Z</time>
      </trkpt>
      <trkpt lat="48.45726" lon="7.20563">
        <ele>340.9</ele>
        <time>2021-08-01T13:52:58Z</time>
      </trkpt>
      <trkpt lat="48.45722" lon="7.20566">
        <ele>340.9</ele>
        <time>2021-08-01T13:52:59Z</time>
      </trkpt>
      <trkpt lat="48.45715" lon="7.20569">
        <ele>340.9</ele>
        <time>2021-08-01T13:53:01Z</time>
      </trkpt>
      <trkpt lat="48.4571" lon="7.20573">
        <ele>341</ele>
        <time>2021-08-01T13:53:02Z</time>
      </trkpt>
      <trkpt lat="48.45706" lon="7.20575">
        <ele>341</ele>
        <time>2021-08-01T13:53:03Z</time>
      </trkpt>
      <trkpt lat="48.45704" lon="7.20578">
        <ele>341.1</ele>
        <time>2021-08-01T13:53:04Z</time>
      </trkpt>
      <trkpt lat="48.457" lon="7.20582">
        <ele>341.1</ele>
        <time>2021-08-01T13:53:05Z</time>
      </trkpt>
      <trkpt lat="48.45698" lon="7.20584">
        <ele>341.2</ele>
        <time>2021-08-01T13:53:07Z</time>
      </trkpt>
      <trkpt lat="48.45693" lon="7.20588">
        <ele>341.3</ele>
        <time>2021-08-01T13:53:09Z</time>
      </trkpt>
      <trkpt lat="48.4569" lon="7.20591">
        <ele>341.3</ele>
        <time>2021-08-01T13:53:10Z</time>
      </trkpt>
      <trkpt lat="48.45687" lon="7.20595">
        <ele>341.4</ele>
        <time>2021-08-01T13:53:11Z</time>
      </trkpt>
      <trkpt lat="48.45684" lon="7.20597">
        <ele>341.5</ele>
        <time>2021-08-01T13:53:12Z</time>
      </trkpt>
      <trkpt lat="48.45681" lon="7.20601">
        <ele>341.5</ele>
        <time>2021-08-01T13:53:13Z</time>
      </trkpt>
      <trkpt lat="48.45678" lon="7.20605">
        <ele>341.6</ele>
        <time>2021-08-01T13:53:15Z</time>
      </trkpt>
      <trkpt lat="48.45675" lon="7.20608">
        <ele>341.6</ele>
        <time>2021-08-01T13:53:16Z</time>
      </trkpt>
      <trkpt lat="48.45672" lon="7.20613">
        <ele>341.7</ele>
        <time>2021-08-01T13:53:17Z</time>
      </trkpt>
      <trkpt lat="48.45669" lon="7.20617">
        <ele>341.7</ele>
        <time>2021-08-01T13:53:18Z</time>
      </trkpt>
      <trkpt lat="48.45666" lon="7.20623">
        <ele>341.8</ele>
        <time>2021-08-01T13:53:19Z</time>
      </trkpt>
      <trkpt lat="48.45664" lon="7.20628">
        <ele>341.8</ele>
        <time>2021-08-01T13:53:20Z</time>
      </trkpt>
      <trkpt lat="48.45662" lon="7.20633">
        <ele>341.9</ele>
        <time>2021-08-01T13:53:22Z</time>
      </trkpt>
      <trkpt lat="48.4566" lon="7.20639">
        <ele>342</ele>
        <time>2021-08-01T13:53:23Z</time>
      </trkpt>
      <trkpt lat="48.45657" lon="7.20644">
        <ele>342</ele>
        <time>2021-08-01T13:53:24Z</time>
      </trkpt>
      <trkpt lat="48.45653" lon="7.20646">
        <ele>342.1</ele>
        <time>2021-08-01T13:53:26Z</time>
      </trkpt>
      <trkpt lat="48.45652" lon="7.20646">
        <ele>342.1</ele>
        <time>2021-08-01T13:53:28Z</time>
      </trkpt>
      <trkpt lat="48.45652" lon="7.20644">
        <ele>342.1</ele>
        <time>2021-08-01T13:53:30Z</time>
      </trkpt>
      <trkpt lat="48.45651" lon="7.20643">
        <ele>342.2</ele>
        <time>2021-08-01T13:53:31Z</time>
      </trkpt>
      <trkpt lat="48.4565" lon="7.20643">
        <ele>342.2</ele>
        <time>2021-08-01T13:53:33Z</time>
      </trkpt>
      <trkpt lat="48.4565" lon="7.20644">
        <ele>342.2</ele>
        <time>2021-08-01T13:53:34Z</time>
      </trkpt>
      <trkpt lat="48.4565" lon="7.20646">
        <ele>342.2</ele>
        <time>2021-08-01T13:53:35Z</time>
      </trkpt>
      <trkpt lat="48.4565" lon="7.20646">
        <ele>342.2</ele>
        <time>2021-08-01T13:53:36Z</time>
      </trkpt>
      <trkpt lat="48.45651" lon="7.20662">
        <ele>342.5</ele>
        <time>2021-08-01T13:53:41Z</time>
      </trkpt>
      <trkpt lat="48.45651" lon="7.20675">
        <ele>342.8</ele>
        <time>2021-08-01T13:53:42Z</time>
      </trkpt>
      <trkpt lat="48.45651" lon="7.20683">
        <ele>343</ele>
        <time>2021-08-01T13:53:43Z</time>
      </trkpt>
      <trkpt lat="48.45652" lon="7.20692">
        <ele>343.1</ele>
        <time>2021-08-01T13:53:45Z</time>
      </trkpt>
      <trkpt lat="48.45653" lon="7.20701">
        <ele>343.3</ele>
        <time>2021-08-01T13:53:47Z</time>
      </trkpt>
      <trkpt lat="48.45655" lon="7.20706">
        <ele>343.4</ele>
        <time>2021-08-01T13:53:49Z</time>
      </trkpt>
      <trkpt lat="48.45657" lon="7.20711">
        <ele>343.4</ele>
        <time>2021-08-01T13:53:51Z</time>
      </trkpt>
      <trkpt lat="48.45657" lon="7.20711">
        <ele>343.4</ele>
        <time>2021-08-01T13:53:52Z</time>
      </trkpt>
      <trkpt lat="48.45656" lon="7.20711">
        <ele>343.4</ele>
        <time>2021-08-01T13:53:53Z</time>
      </trkpt>
      <trkpt lat="48.45656" lon="7.20711">
        <ele>343.4</ele>
        <time>2021-08-01T13:53:55Z</time>
      </trkpt>
      <trkpt lat="48.45656" lon="7.20711">
        <ele>343.4</ele>
        <time>2021-08-01T13:53:56Z</time>
      </trkpt>
      <trkpt lat="48.45656" lon="7.20711">
        <ele>343.4</ele>
        <time>2021-08-01T13:53:58Z</time>
      </trkpt>
      <trkpt lat="48.45656" lon="7.20711">
        <ele>343.4</ele>
        <time>2021-08-01T13:54:00Z</time>
      </trkpt>
      <trkpt lat="48.45656" lon="7.20711">
        <ele>343.4</ele>
        <time>2021-08-01T13:54:01Z</time>
      </trkpt>
      <trkpt lat="48.45657" lon="7.20711">
        <ele>343.4</ele>
        <time>2021-08-01T13:54:02Z</time>
      </trkpt>
      <trkpt lat="48.45647" lon="7.20716">
        <ele>343.5</ele>
        <time>2021-08-01T13:54:13Z</time>
      </trkpt>
      <trkpt lat="48.45637" lon="7.2072">
        <ele>343.6</ele>
        <time>2021-08-01T13:54:15Z</time>
      </trkpt>
      <trkpt lat="48.45623" lon="7.20723">
        <ele>343.8</ele>
        <time>2021-08-01T13:54:17Z</time>
      </trkpt>
      <trkpt lat="48.45619" lon="7.20722">
        <ele>343.8</ele>
        <time>2021-08-01T13:54:18Z</time>
      </trkpt>
      <trkpt lat="48.45606" lon="7.20723">
        <ele>344.1</ele>
        <time>2021-08-01T13:54:19Z</time>
      </trkpt>
      <trkpt lat="48.456" lon="7.20725">
        <ele>344.2</ele>
        <time>2021-08-01T13:54:21Z</time>
      </trkpt>
      <trkpt lat="48.45592" lon="7.20726">
        <ele>344.4</ele>
        <time>2021-08-01T13:54:22Z</time>
      </trkpt>
      <trkpt lat="48.45586" lon="7.20724">
        <ele>344.5</ele>
        <time>2021-08-01T13:54:23Z</time>
      </trkpt>
      <trkpt lat="48.45577" lon="7.20718">
        <ele>344.7</ele>
        <time>2021-08-01T13:54:25Z</time>
      </trkpt>
      <trkpt lat="48.45574" lon="7.20715">
        <ele>344.8</ele>
        <time>2021-08-01T13:54:27Z</time>
      </trkpt>
      <trkpt lat="48.45571" lon="7.20712">
        <ele>344.8</ele>
        <time>2021-08-01T13:54:28Z</time>
      </trkpt>
      <trkpt lat="48.45571" lon="7.20711">
        <ele>344.9</ele>
        <time>2021-08-01T13:54:29Z</time>
      </trkpt>
      <trkpt lat="48.45573" lon="7.2071">
        <ele>344.9</ele>
        <time>2021-08-01T13:54:30Z</time>
      </trkpt>
      <trkpt lat="48.45575" lon="7.20711">
        <ele>344.9</ele>
        <time>2021-08-01T13:54:31Z</time>
      </trkpt>
      <trkpt lat="48.45575" lon="7.20711">
        <ele>345</ele>
        <time>2021-08-01T13:54:34Z</time>
      </trkpt>
      <trkpt lat="48.45575" lon="7.20711">
        <ele>345</ele>
        <time>2021-08-01T13:54:35Z</time>
      </trkpt>
      <trkpt lat="48.45575" lon="7.20711">
        <ele>345</ele>
        <time>2021-08-01T13:54:37Z</time>
      </trkpt>
      <trkpt lat="48.45575" lon="7.20711">
        <ele>345</ele>
        <time>2021-08-01T13:54:38Z</time>
      </trkpt>
      <trkpt lat="48.45576" lon="7.20713">
        <ele>345</ele>
        <time>2021-08-01T13:55:01Z</time>
      </trkpt>
      <trkpt lat="48.45576" lon="7.20714">
        <ele>345</ele>
        <time>2021-08-01T13:55:03Z</time>
      </trkpt>
      <trkpt lat="48.45576" lon="7.20714">
        <ele>345</ele>
        <time>2021-08-01T13:55:05Z</time>
      </trkpt>
      <trkpt lat="48.45574" lon="7.20713">
        <ele>345.1</ele>
        <time>2021-08-01T13:55:06Z</time>
      </trkpt>
      <trkpt lat="48.45573" lon="7.20712">
        <ele>345.1</ele>
        <time>2021-08-01T13:55:08Z</time>
      </trkpt>
      <trkpt lat="48.45571" lon="7.20711">
        <ele>345.1</ele>
        <time>2021-08-01T13:55:10Z</time>
      </trkpt>
      <trkpt lat="48.4557" lon="7.2071">
        <ele>345.2</ele>
        <time>2021-08-01T13:55:11Z</time>
      </trkpt>
      <trkpt lat="48.45569" lon="7.20709">
        <ele>345.2</ele>
        <time>2021-08-01T13:55:13Z</time>
      </trkpt>
      <trkpt lat="48.45568" lon="7.20708">
        <ele>345.2</ele>
        <time>2021-08-01T13:55:15Z</time>
      </trkpt>
      <trkpt lat="48.45561" lon="7.20699">
        <ele>345.4</ele>
        <time>2021-08-01T13:55:17Z</time>
      </trkpt>
      <trkpt lat="48.45556" lon="7.20692">
        <ele>345.5</ele>
        <time>2021-08-01T13:55:18Z</time>
      </trkpt>
      <trkpt lat="48.45554" lon="7.2069">
        <ele>345.6</ele>
        <time>2021-08-01T13:55:19Z</time>
      </trkpt>
      <trkpt lat="48.45551" lon="7.20686">
        <ele>345.7</ele>
        <time>2021-08-01T13:55:21Z</time>
      </trkpt>
      <trkpt lat="48.45548" lon="7.20681">
        <ele>345.8</ele>
        <time>2021-08-01T13:55:23Z</time>
      </trkpt>
      <trkpt lat="48.45547" lon="7.2068">
        <ele>345.8</ele>
        <time>2021-08-01T13:55:24Z</time>
      </trkpt>
      <trkpt lat="48.45547" lon="7.2068">
        <ele>345.8</ele>
        <time>2021-08-01T13:55:25Z</time>
      </trkpt>
      <trkpt lat="48.45547" lon="7.2068">
        <ele>345.8</ele>
        <time>2021-08-01T13:55:30Z</time>
      </trkpt>
      <trkpt lat="48.45579" lon="7.20711">
        <ele>344.9</ele>
        <time>2021-08-01T13:55:37Z</time>
      </trkpt>
      <trkpt lat="48.45585" lon="7.20717">
        <ele>344.7</ele>
        <time>2021-08-01T13:55:43Z</time>
      </trkpt>
      <trkpt lat="48.45582" lon="7.20714">
        <ele>344.8</ele>
        <time>2021-08-01T13:55:50Z</time>
      </trkpt>
      <trkpt lat="48.4557" lon="7.20708">
        <ele>344.8</ele>
        <time>2021-08-01T13:55:56Z</time>
      </trkpt>
      <trkpt lat="48.45571" lon="7.20709">
        <ele>344.8</ele>
        <time>2021-08-01T13:56:01Z</time>
      </trkpt>
      <trkpt lat="48.45571" lon="7.20709">
        <ele>344.8</ele>
        <time>2021-08-01T13:56:03Z</time>
      </trkpt>
      <trkpt lat="48.45571" lon="7.20711">
        <ele>344.8</ele>
        <time>2021-08-01T13:56:09Z</time>
      </trkpt>
      <trkpt lat="48.45579" lon="7.20719">
        <ele>344.9</ele>
        <time>2021-08-01T13:56:16Z</time>
      </trkpt>
      <trkpt lat="48.45578" lon="7.2072">
        <ele>344.9</ele>
        <time>2021-08-01T13:56:22Z</time>
      </trkpt>
      <trkpt lat="48.4558" lon="7.20718">
        <ele>344.9</ele>
        <time>2021-08-01T13:56:29Z</time>
      </trkpt>
      <trkpt lat="48.45579" lon="7.20715">
        <ele>344.9</ele>
        <time>2021-08-01T13:56:35Z</time>
      </trkpt>
      <trkpt lat="48.45577" lon="7.20717">
        <ele>344.9</ele>
        <time>2021-08-01T13:57:34Z</time>
      </trkpt>
      <trkpt lat="48.4558" lon="7.20717">
        <ele>344.9</ele>
        <time>2021-08-01T13:57:40Z</time>
      </trkpt>
      <trkpt lat="48.4558" lon="7.20716">
        <ele>344.9</ele>
        <time>2021-08-01T13:57:42Z</time>
      </trkpt>
      <trkpt lat="48.4558" lon="7.20716">
        <ele>344.9</ele>
        <time>2021-08-01T13:57:44Z</time>
      </trkpt>
      <trkpt lat="48.4558" lon="7.20716">
        <ele>344.9</ele>
        <time>2021-08-01T13:57:45Z</time>
      </trkpt>
      <trkpt lat="48.45579" lon="7.20716">
        <ele>344.9</ele>
        <time>2021-08-01T13:57:47Z</time>
      </trkpt>
      <trkpt lat="48.45579" lon="7.20717">
        <ele>344.9</ele>
        <time>2021-08-01T13:57:49Z</time>
      </trkpt>
      <trkpt lat="48.45579" lon="7.20717">
        <ele>344.9</ele>
        <time>2021-08-01T13:57:52Z</time>
      </trkpt>
      <trkpt lat="48.4558" lon="7.20713">
        <ele>344.9</ele>
        <time>2021-08-01T13:58:32Z</time>
      </trkpt>
      <trkpt lat="48.45576" lon="7.20718">
        <ele>345</ele>
        <time>2021-08-01T13:58:39Z</time>
      </trkpt>
      <trkpt lat="48.45578" lon="7.20716">
        <ele>345</ele>
        <time>2021-08-01T13:58:46Z</time>
      </trkpt>
      <trkpt lat="48.4558" lon="7.20715">
        <ele>345</ele>
        <time>2021-08-01T13:58:53Z</time>
      </trkpt>
      <trkpt lat="48.4558" lon="7.20716">
        <ele>345</ele>
        <time>2021-08-01T13:58:54Z</time>
      </trkpt>
      <trkpt lat="48.4558" lon="7.20716">
        <ele>345</ele>
        <time>2021-08-01T13:58:56Z</time>
      </trkpt>
      <trkpt lat="48.45586" lon="7.20719">
        <ele>345</ele>
        <time>2021-08-01T13:59:32Z</time>
      </trkpt>
      <trkpt lat="48.45591" lon="7.20719">
        <ele>345.1</ele>
        <time>2021-08-01T13:59:37Z</time>
      </trkpt>
      <trkpt lat="48.45587" lon="7.2072">
        <ele>345.1</ele>
        <time>2021-08-01T13:59:39Z</time>
      </trkpt>
      <trkpt lat="48.45583" lon="7.20719">
        <ele>345.1</ele>
        <time>2021-08-01T13:59:41Z</time>
      </trkpt>
      <trkpt lat="48.45581" lon="7.20718">
        <ele>345.1</ele>
        <time>2021-08-01T13:59:42Z</time>
      </trkpt>
      <trkpt lat="48.45579" lon="7.20717">
        <ele>345.1</ele>
        <time>2021-08-01T13:59:44Z</time>
      </trkpt>
      <trkpt lat="48.45577" lon="7.20715">
        <ele>345.1</ele>
        <time>2021-08-01T13:59:46Z</time>
      </trkpt>
      <trkpt lat="48.45574" lon="7.20714">
        <ele>345.1</ele>
        <time>2021-08-01T13:59:47Z</time>
      </trkpt>
      <trkpt lat="48.45572" lon="7.20712">
        <ele>345.2</ele>
        <time>2021-08-01T13:59:48Z</time>
      </trkpt>
      <trkpt lat="48.4557" lon="7.20711">
        <ele>345.2</ele>
        <time>2021-08-01T13:59:50Z</time>
      </trkpt>
      <trkpt lat="48.45545" lon="7.20691">
        <ele>345.8</ele>
        <time>2021-08-01T13:59:51Z</time>
      </trkpt>
      <trkpt lat="48.45541" lon="7.20688">
        <ele>346</ele>
        <time>2021-08-01T13:59:52Z</time>
      </trkpt>
      <trkpt lat="48.4554" lon="7.20687">
        <ele>346.1</ele>
        <time>2021-08-01T13:59:53Z</time>
      </trkpt>
      <trkpt lat="48.45539" lon="7.20686">
        <ele>346.2</ele>
        <time>2021-08-01T13:59:54Z</time>
      </trkpt>
      <trkpt lat="48.45533" lon="7.20682">
        <ele>346.4</ele>
        <time>2021-08-01T13:59:55Z</time>
      </trkpt>
      <trkpt lat="48.45528" lon="7.20679">
        <ele>346.6</ele>
        <time>2021-08-01T13:59:56Z</time>
      </trkpt>
      <trkpt lat="48.45524" lon="7.20675">
        <ele>346.8</ele>
        <time>2021-08-01T13:59:57Z</time>
      </trkpt>
      <trkpt lat="48.45519" lon="7.20671">
        <ele>347</ele>
        <time>2021-08-01T14:00:10Z</time>
      </trkpt>
      <trkpt lat="48.45515" lon="7.20668">
        <ele>347.2</ele>
        <time>2021-08-01T14:00:11Z</time>
      </trkpt>
      <trkpt lat="48.4551" lon="7.20664">
        <ele>347.4</ele>
        <time>2021-08-01T14:00:12Z</time>
      </trkpt>
      <trkpt lat="48.45504" lon="7.20658">
        <ele>347.7</ele>
        <time>2021-08-01T14:00:13Z</time>
      </trkpt>
      <trkpt lat="48.455" lon="7.20654">
        <ele>347.9</ele>
        <time>2021-08-01T14:00:15Z</time>
      </trkpt>
      <trkpt lat="48.45495" lon="7.20647">
        <ele>348.1</ele>
        <time>2021-08-01T14:00:16Z</time>
      </trkpt>
      <trkpt lat="48.45491" lon="7.20641">
        <ele>348.3</ele>
        <time>2021-08-01T14:00:17Z</time>
      </trkpt>
      <trkpt lat="48.45486" lon="7.20636">
        <ele>348.5</ele>
        <time>2021-08-01T14:00:18Z</time>
      </trkpt>
      <trkpt lat="48.45482" lon="7.20631">
        <ele>348.7</ele>
        <time>2021-08-01T14:00:19Z</time>
      </trkpt>
      <trkpt lat="48.45479" lon="7.20627">
        <ele>348.8</ele>
        <time>2021-08-01T14:00:21Z</time>
      </trkpt>
      <trkpt lat="48.45478" lon="7.20619">
        <ele>348.9</ele>
        <time>2021-08-01T14:00:22Z</time>
      </trkpt>
      <trkpt lat="48.45478" lon="7.20615">
        <ele>349</ele>
        <time>2021-08-01T14:00:23Z</time>
      </trkpt>
      <trkpt lat="48.45476" lon="7.20606">
        <ele>349.1</ele>
        <time>2021-08-01T14:00:25Z</time>
      </trkpt>
      <trkpt lat="48.45475" lon="7.20593">
        <ele>349.2</ele>
        <time>2021-08-01T14:00:27Z</time>
      </trkpt>
      <trkpt lat="48.45473" lon="7.20588">
        <ele>349.2</ele>
        <time>2021-08-01T14:00:28Z</time>
      </trkpt>
      <trkpt lat="48.45472" lon="7.20586">
        <ele>349.2</ele>
        <time>2021-08-01T14:00:29Z</time>
      </trkpt>
      <trkpt lat="48.4547" lon="7.20583">
        <ele>349.2</ele>
        <time>2021-08-01T14:00:30Z</time>
      </trkpt>
      <trkpt lat="48.4547" lon="7.20582">
        <ele>349.2</ele>
        <time>2021-08-01T14:00:31Z</time>
      </trkpt>
      <trkpt lat="48.45466" lon="7.2058">
        <ele>349.2</ele>
        <time>2021-08-01T14:00:32Z</time>
      </trkpt>
      <trkpt lat="48.45465" lon="7.20579">
        <ele>349.1</ele>
        <time>2021-08-01T14:00:33Z</time>
      </trkpt>
      <trkpt lat="48.45463" lon="7.20577">
        <ele>349.1</ele>
        <time>2021-08-01T14:00:34Z</time>
      </trkpt>
      <trkpt lat="48.45461" lon="7.20576">
        <ele>349.1</ele>
        <time>2021-08-01T14:00:36Z</time>
      </trkpt>
      <trkpt lat="48.45459" lon="7.20573">
        <ele>349</ele>
        <time>2021-08-01T14:00:37Z</time>
      </trkpt>
      <trkpt lat="48.45456" lon="7.20565">
        <ele>348.9</ele>
        <time>2021-08-01T14:00:39Z</time>
      </trkpt>
      <trkpt lat="48.45454" lon="7.20554">
        <ele>348.7</ele>
        <time>2021-08-01T14:00:41Z</time>
      </trkpt>
      <trkpt lat="48.45453" lon="7.20548">
        <ele>348.6</ele>
        <time>2021-08-01T14:00:42Z</time>
      </trkpt>
      <trkpt lat="48.45453" lon="7.20532">
        <ele>348.4</ele>
        <time>2021-08-01T14:00:44Z</time>
      </trkpt>
      <trkpt lat="48.45451" lon="7.20516">
        <ele>348.2</ele>
        <time>2021-08-01T14:00:46Z</time>
      </trkpt>
      <trkpt lat="48.45451" lon="7.20507">
        <ele>348.2</ele>
        <time>2021-08-01T14:00:47Z</time>
      </trkpt>
      <trkpt lat="48.4545" lon="7.20492">
        <ele>348.1</ele>
        <time>2021-08-01T14:00:49Z</time>
      </trkpt>
      <trkpt lat="48.45449" lon="7.20475">
        <ele>348.1</ele>
        <time>2021-08-01T14:00:51Z</time>
      </trkpt>
      <trkpt lat="48.45447" lon="7.20461">
        <ele>348.2</ele>
        <time>2021-08-01T14:00:53Z</time>
      </trkpt>
      <trkpt lat="48.45445" lon="7.20449">
        <ele>348.3</ele>
        <time>2021-08-01T14:00:55Z</time>
      </trkpt>
      <trkpt lat="48.45441" lon="7.20437">
        <ele>348.4</ele>
        <time>2021-08-01T14:00:57Z</time>
      </trkpt>
      <trkpt lat="48.45438" lon="7.20431">
        <ele>348.4</ele>
        <time>2021-08-01T14:00:58Z</time>
      </trkpt>
      <trkpt lat="48.45435" lon="7.20426">
        <ele>348.5</ele>
        <time>2021-08-01T14:00:59Z</time>
      </trkpt>
      <trkpt lat="48.45431" lon="7.20417">
        <ele>348.6</ele>
        <time>2021-08-01T14:01:01Z</time>
      </trkpt>
      <trkpt lat="48.45428" lon="7.20415">
        <ele>348.6</ele>
        <time>2021-08-01T14:01:02Z</time>
      </trkpt>
      <trkpt lat="48.45426" lon="7.20412">
        <ele>348.7</ele>
        <time>2021-08-01T14:01:03Z</time>
      </trkpt>
      <trkpt lat="48.45425" lon="7.20405">
        <ele>348.7</ele>
        <time>2021-08-01T14:01:04Z</time>
      </trkpt>
      <trkpt lat="48.45425" lon="7.20398">
        <ele>348.8</ele>
        <time>2021-08-01T14:01:05Z</time>
      </trkpt>
      <trkpt lat="48.45425" lon="7.20387">
        <ele>348.9</ele>
        <time>2021-08-01T14:01:07Z</time>
      </trkpt>
      <trkpt lat="48.45423" lon="7.2038">
        <ele>348.9</ele>
        <time>2021-08-01T14:01:08Z</time>
      </trkpt>
      <trkpt lat="48.45421" lon="7.20373">
        <ele>349</ele>
        <time>2021-08-01T14:01:09Z</time>
      </trkpt>
      <trkpt lat="48.45418" lon="7.20369">
        <ele>349</ele>
        <time>2021-08-01T14:01:10Z</time>
      </trkpt>
      <trkpt lat="48.45416" lon="7.20365">
        <ele>349</ele>
        <time>2021-08-01T14:01:11Z</time>
      </trkpt>
      <trkpt lat="48.45413" lon="7.20361">
        <ele>349</ele>
        <time>2021-08-01T14:01:12Z</time>
      </trkpt>
      <trkpt lat="48.45411" lon="7.20356">
        <ele>349.1</ele>
        <time>2021-08-01T14:01:13Z</time>
      </trkpt>
      <trkpt lat="48.4541" lon="7.2035">
        <ele>349.1</ele>
        <time>2021-08-01T14:01:14Z</time>
      </trkpt>
      <trkpt lat="48.45409" lon="7.20344">
        <ele>349.1</ele>
        <time>2021-08-01T14:01:15Z</time>
      </trkpt>
      <trkpt lat="48.45408" lon="7.20338">
        <ele>349.2</ele>
        <time>2021-08-01T14:01:16Z</time>
      </trkpt>
      <trkpt lat="48.45407" lon="7.20332">
        <ele>349.2</ele>
        <time>2021-08-01T14:01:17Z</time>
      </trkpt>
      <trkpt lat="48.45405" lon="7.20325">
        <ele>349.2</ele>
        <time>2021-08-01T14:01:18Z</time>
      </trkpt>
      <trkpt lat="48.45404" lon="7.20318">
        <ele>349.3</ele>
        <time>2021-08-01T14:01:20Z</time>
      </trkpt>
      <trkpt lat="48.45403" lon="7.20313">
        <ele>349.3</ele>
        <time>2021-08-01T14:01:21Z</time>
      </trkpt>
      <trkpt lat="48.45402" lon="7.20306">
        <ele>349.3</ele>
        <time>2021-08-01T14:01:22Z</time>
      </trkpt>
      <trkpt lat="48.45402" lon="7.20298">
        <ele>349.3</ele>
        <time>2021-08-01T14:01:24Z</time>
      </trkpt>
      <trkpt lat="48.45402" lon="7.20293">
        <ele>349.3</ele>
        <time>2021-08-01T14:01:25Z</time>
      </trkpt>
      <trkpt lat="48.45402" lon="7.20287">
        <ele>349.4</ele>
        <time>2021-08-01T14:01:26Z</time>
      </trkpt>
      <trkpt lat="48.45404" lon="7.20281">
        <ele>349.2</ele>
        <time>2021-08-01T14:01:27Z</time>
      </trkpt>
      <trkpt lat="48.45405" lon="7.20273">
        <ele>349</ele>
        <time>2021-08-01T14:01:28Z</time>
      </trkpt>
      <trkpt lat="48.45405" lon="7.20265">
        <ele>348.8</ele>
        <time>2021-08-01T14:01:29Z</time>
      </trkpt>
      <trkpt lat="48.45405" lon="7.20259">
        <ele>348.6</ele>
        <time>2021-08-01T14:01:31Z</time>
      </trkpt>
      <trkpt lat="48.45404" lon="7.20251">
        <ele>348.5</ele>
        <time>2021-08-01T14:01:32Z</time>
      </trkpt>
      <trkpt lat="48.45404" lon="7.20243">
        <ele>348.3</ele>
        <time>2021-08-01T14:01:33Z</time>
      </trkpt>
      <trkpt lat="48.45404" lon="7.20229">
        <ele>348</ele>
        <time>2021-08-01T14:01:35Z</time>
      </trkpt>
      <trkpt lat="48.45397" lon="7.20211">
        <ele>347.6</ele>
        <time>2021-08-01T14:01:37Z</time>
      </trkpt>
      <trkpt lat="48.45393" lon="7.20201">
        <ele>347.5</ele>
        <time>2021-08-01T14:01:38Z</time>
      </trkpt>
      <trkpt lat="48.45392" lon="7.20189">
        <ele>347.3</ele>
        <time>2021-08-01T14:01:40Z</time>
      </trkpt>
      <trkpt lat="48.45388" lon="7.20181">
        <ele>347.1</ele>
        <time>2021-08-01T14:01:41Z</time>
      </trkpt>
      <trkpt lat="48.4539" lon="7.20175">
        <ele>347</ele>
        <time>2021-08-01T14:01:43Z</time>
      </trkpt>
      <trkpt lat="48.45392" lon="7.20169">
        <ele>347</ele>
        <time>2021-08-01T14:01:44Z</time>
      </trkpt>
      <trkpt lat="48.45394" lon="7.2016">
        <ele>346.5</ele>
        <time>2021-08-01T14:01:45Z</time>
      </trkpt>
      <trkpt lat="48.45392" lon="7.20151">
        <ele>346.6</ele>
        <time>2021-08-01T14:01:47Z</time>
      </trkpt>
      <trkpt lat="48.4539" lon="7.20142">
        <ele>346.6</ele>
        <time>2021-08-01T14:01:48Z</time>
      </trkpt>
      <trkpt lat="48.45388" lon="7.20134">
        <ele>346.7</ele>
        <time>2021-08-01T14:01:50Z</time>
      </trkpt>
      <trkpt lat="48.45387" lon="7.20129">
        <ele>346.7</ele>
        <time>2021-08-01T14:01:51Z</time>
      </trkpt>
      <trkpt lat="48.45386" lon="7.20123">
        <ele>346.7</ele>
        <time>2021-08-01T14:01:52Z</time>
      </trkpt>
      <trkpt lat="48.45385" lon="7.20116">
        <ele>346.7</ele>
        <time>2021-08-01T14:01:53Z</time>
      </trkpt>
      <trkpt lat="48.45384" lon="7.20111">
        <ele>346.7</ele>
        <time>2021-08-01T14:01:54Z</time>
      </trkpt>
      <trkpt lat="48.45383" lon="7.20105">
        <ele>346.7</ele>
        <time>2021-08-01T14:01:55Z</time>
      </trkpt>
      <trkpt lat="48.45382" lon="7.20097">
        <ele>346.7</ele>
        <time>2021-08-01T14:01:57Z</time>
      </trkpt>
      <trkpt lat="48.4538" lon="7.20091">
        <ele>346.7</ele>
        <time>2021-08-01T14:01:58Z</time>
      </trkpt>
      <trkpt lat="48.45377" lon="7.20084">
        <ele>346.6</ele>
        <time>2021-08-01T14:02:00Z</time>
      </trkpt>
      <trkpt lat="48.45376" lon="7.20079">
        <ele>346.5</ele>
        <time>2021-08-01T14:02:01Z</time>
      </trkpt>
      <trkpt lat="48.45373" lon="7.2007">
        <ele>346.4</ele>
        <time>2021-08-01T14:02:02Z</time>
      </trkpt>
      <trkpt lat="48.4537" lon="7.20064">
        <ele>346.3</ele>
        <time>2021-08-01T14:02:03Z</time>
      </trkpt>
      <trkpt lat="48.45367" lon="7.20058">
        <ele>346.2</ele>
        <time>2021-08-01T14:02:05Z</time>
      </trkpt>
      <trkpt lat="48.4536" lon="7.2005">
        <ele>346.1</ele>
        <time>2021-08-01T14:02:07Z</time>
      </trkpt>
      <trkpt lat="48.45356" lon="7.20047">
        <ele>346.1</ele>
        <time>2021-08-01T14:02:08Z</time>
      </trkpt>
      <trkpt lat="48.45347" lon="7.2004">
        <ele>346.1</ele>
        <time>2021-08-01T14:02:10Z</time>
      </trkpt>
      <trkpt lat="48.45343" lon="7.2004">
        <ele>346.1</ele>
        <time>2021-08-01T14:02:11Z</time>
      </trkpt>
      <trkpt lat="48.45341" lon="7.2004">
        <ele>346.1</ele>
        <time>2021-08-01T14:02:12Z</time>
      </trkpt>
      <trkpt lat="48.45334" lon="7.20038">
        <ele>346.2</ele>
        <time>2021-08-01T14:02:14Z</time>
      </trkpt>
      <trkpt lat="48.45329" lon="7.20037">
        <ele>346.4</ele>
        <time>2021-08-01T14:02:15Z</time>
      </trkpt>
      <trkpt lat="48.45324" lon="7.20036">
        <ele>346.5</ele>
        <time>2021-08-01T14:02:16Z</time>
      </trkpt>
      <trkpt lat="48.45318" lon="7.20033">
        <ele>346.7</ele>
        <time>2021-08-01T14:02:18Z</time>
      </trkpt>
      <trkpt lat="48.45315" lon="7.2003">
        <ele>346.8</ele>
        <time>2021-08-01T14:02:19Z</time>
      </trkpt>
      <trkpt lat="48.45311" lon="7.20026">
        <ele>347</ele>
        <time>2021-08-01T14:02:20Z</time>
      </trkpt>
      <trkpt lat="48.45308" lon="7.20023">
        <ele>347.1</ele>
        <time>2021-08-01T14:02:21Z</time>
      </trkpt>
      <trkpt lat="48.45306" lon="7.2002">
        <ele>347.2</ele>
        <time>2021-08-01T14:02:22Z</time>
      </trkpt>
      <trkpt lat="48.45303" lon="7.20017">
        <ele>347.3</ele>
        <time>2021-08-01T14:02:23Z</time>
      </trkpt>
      <trkpt lat="48.453" lon="7.20013">
        <ele>347.3</ele>
        <time>2021-08-01T14:02:24Z</time>
      </trkpt>
      <trkpt lat="48.45297" lon="7.20009">
        <ele>347.4</ele>
        <time>2021-08-01T14:02:25Z</time>
      </trkpt>
      <trkpt lat="48.45295" lon="7.20005">
        <ele>347.4</ele>
        <time>2021-08-01T14:02:26Z</time>
      </trkpt>
      <trkpt lat="48.45293" lon="7.20001">
        <ele>347.5</ele>
        <time>2021-08-01T14:02:28Z</time>
      </trkpt>
      <trkpt lat="48.4529" lon="7.19996">
        <ele>347.5</ele>
        <time>2021-08-01T14:02:29Z</time>
      </trkpt>
      <trkpt lat="48.45285" lon="7.19988">
        <ele>347.5</ele>
        <time>2021-08-01T14:02:31Z</time>
      </trkpt>
      <trkpt lat="48.4528" lon="7.19981">
        <ele>347.6</ele>
        <time>2021-08-01T14:02:33Z</time>
      </trkpt>
      <trkpt lat="48.45277" lon="7.19977">
        <ele>347.6</ele>
        <time>2021-08-01T14:02:34Z</time>
      </trkpt>
      <trkpt lat="48.45274" lon="7.19973">
        <ele>347.7</ele>
        <time>2021-08-01T14:02:35Z</time>
      </trkpt>
      <trkpt lat="48.45271" lon="7.19968">
        <ele>347.8</ele>
        <time>2021-08-01T14:02:36Z</time>
      </trkpt>
      <trkpt lat="48.45268" lon="7.19964">
        <ele>347.9</ele>
        <time>2021-08-01T14:02:37Z</time>
      </trkpt>
      <trkpt lat="48.45264" lon="7.19961">
        <ele>348</ele>
        <time>2021-08-01T14:02:38Z</time>
      </trkpt>
      <trkpt lat="48.4526" lon="7.19957">
        <ele>348.2</ele>
        <time>2021-08-01T14:02:40Z</time>
      </trkpt>
      <trkpt lat="48.45259" lon="7.19954">
        <ele>348.3</ele>
        <time>2021-08-01T14:02:41Z</time>
      </trkpt>
      <trkpt lat="48.45257" lon="7.19948">
        <ele>348.4</ele>
        <time>2021-08-01T14:02:42Z</time>
      </trkpt>
      <trkpt lat="48.45256" lon="7.19943">
        <ele>348.6</ele>
        <time>2021-08-01T14:02:43Z</time>
      </trkpt>
      <trkpt lat="48.45255" lon="7.19936">
        <ele>348.6</ele>
        <time>2021-08-01T14:02:45Z</time>
      </trkpt>
      <trkpt lat="48.45255" lon="7.19934">
        <ele>348.6</ele>
        <time>2021-08-01T14:02:46Z</time>
      </trkpt>
      <trkpt lat="48.45255" lon="7.19931">
        <ele>348.6</ele>
        <time>2021-08-01T14:02:47Z</time>
      </trkpt>
      <trkpt lat="48.45255" lon="7.19926">
        <ele>348.6</ele>
        <time>2021-08-01T14:02:48Z</time>
      </trkpt>
      <trkpt lat="48.45255" lon="7.19925">
        <ele>348.6</ele>
        <time>2021-08-01T14:02:49Z</time>
      </trkpt>
      <trkpt lat="48.45255" lon="7.19922">
        <ele>348.6</ele>
        <time>2021-08-01T14:02:50Z</time>
      </trkpt>
      <trkpt lat="48.45255" lon="7.19917">
        <ele>348.5</ele>
        <time>2021-08-01T14:02:52Z</time>
      </trkpt>
      <trkpt lat="48.45254" lon="7.19913">
        <ele>348.5</ele>
        <time>2021-08-01T14:02:53Z</time>
      </trkpt>
      <trkpt lat="48.45252" lon="7.19909">
        <ele>348.5</ele>
        <time>2021-08-01T14:02:54Z</time>
      </trkpt>
      <trkpt lat="48.45251" lon="7.19905">
        <ele>348.4</ele>
        <time>2021-08-01T14:02:55Z</time>
      </trkpt>
      <trkpt lat="48.45248" lon="7.19896">
        <ele>348.4</ele>
        <time>2021-08-01T14:02:57Z</time>
      </trkpt>
      <trkpt lat="48.45247" lon="7.19892">
        <ele>348.4</ele>
        <time>2021-08-01T14:02:58Z</time>
      </trkpt>
      <trkpt lat="48.45246" lon="7.19887">
        <ele>348.4</ele>
        <time>2021-08-01T14:02:59Z</time>
      </trkpt>
      <trkpt lat="48.45245" lon="7.19882">
        <ele>348.4</ele>
        <time>2021-08-01T14:03:00Z</time>
      </trkpt>
      <trkpt lat="48.45245" lon="7.19875">
        <ele>348.7</ele>
        <time>2021-08-01T14:03:01Z</time>
      </trkpt>
      <trkpt lat="48.45245" lon="7.19869">
        <ele>349</ele>
        <time>2021-08-01T14:03:03Z</time>
      </trkpt>
      <trkpt lat="48.45245" lon="7.19866">
        <ele>349.1</ele>
        <time>2021-08-01T14:03:04Z</time>
      </trkpt>
      <trkpt lat="48.45244" lon="7.19862">
        <ele>349.3</ele>
        <time>2021-08-01T14:03:06Z</time>
      </trkpt>
      <trkpt lat="48.45246" lon="7.19859">
        <ele>349.4</ele>
        <time>2021-08-01T14:03:07Z</time>
      </trkpt>
      <trkpt lat="48.45249" lon="7.19857">
        <ele>349.6</ele>
        <time>2021-08-01T14:03:09Z</time>
      </trkpt>
      <trkpt lat="48.45252" lon="7.19856">
        <ele>349.8</ele>
        <time>2021-08-01T14:03:11Z</time>
      </trkpt>
      <trkpt lat="48.45254" lon="7.19854">
        <ele>350</ele>
        <time>2021-08-01T14:03:13Z</time>
      </trkpt>
      <trkpt lat="48.45254" lon="7.19854">
        <ele>350</ele>
        <time>2021-08-01T14:03:14Z</time>
      </trkpt>
      <trkpt lat="48.45255" lon="7.19854">
        <ele>350.1</ele>
        <time>2021-08-01T14:03:16Z</time>
      </trkpt>
      <trkpt lat="48.45256" lon="7.19854">
        <ele>350.1</ele>
        <time>2021-08-01T14:03:17Z</time>
      </trkpt>
      <trkpt lat="48.45257" lon="7.19854">
        <ele>350.2</ele>
        <time>2021-08-01T14:03:19Z</time>
      </trkpt>
      <trkpt lat="48.45275" lon="7.19894">
        <ele>359.5</ele>
        <time>2021-08-01T14:05:19Z</time>
      </trkpt>
      <trkpt lat="48.45275" lon="7.19894">
        <ele>359.5</ele>
        <time>2021-08-01T14:05:26Z</time>
      </trkpt>
      <trkpt lat="48.45275" lon="7.19894">
        <ele>359.5</ele>
        <time>2021-08-01T14:05:32Z</time>
      </trkpt>
      <trkpt lat="48.45275" lon="7.19894">
        <ele>359.5</ele>
        <time>2021-08-01T14:05:39Z</time>
      </trkpt>
      <trkpt lat="48.45275" lon="7.19893">
        <ele>359.5</ele>
        <time>2021-08-01T14:05:45Z</time>
      </trkpt>
      <trkpt lat="48.45275" lon="7.19894">
        <ele>359.4</ele>
        <time>2021-08-01T14:05:51Z</time>
      </trkpt>
      <trkpt lat="48.45275" lon="7.19894">
        <ele>359.4</ele>
        <time>2021-08-01T14:05:58Z</time>
      </trkpt>
      <trkpt lat="48.45275" lon="7.19894">
        <ele>359.4</ele>
        <time>2021-08-01T14:06:04Z</time>
      </trkpt>
      <trkpt lat="48.45275" lon="7.19894">
        <ele>359.3</ele>
        <time>2021-08-01T14:06:11Z</time>
      </trkpt>
      <trkpt lat="48.45275" lon="7.19893">
        <ele>359.3</ele>
        <time>2021-08-01T14:06:17Z</time>
      </trkpt>
      <trkpt lat="48.45275" lon="7.19894">
        <ele>359.3</ele>
        <time>2021-08-01T14:06:24Z</time>
      </trkpt>
      <trkpt lat="48.45275" lon="7.19894">
        <ele>359.3</ele>
        <time>2021-08-01T14:06:30Z</time>
      </trkpt>
      <trkpt lat="48.45275" lon="7.19894">
        <ele>359.3</ele>
        <time>2021-08-01T14:06:37Z</time>
      </trkpt>
      <trkpt lat="48.45275" lon="7.19894">
        <ele>359.3</ele>
        <time>2021-08-01T14:06:43Z</time>
      </trkpt>
      <trkpt lat="48.45275" lon="7.19894">
        <ele>359.3</ele>
        <time>2021-08-01T14:06:50Z</time>
      </trkpt>
      <trkpt lat="48.45275" lon="7.19894">
        <ele>359.3</ele>
        <time>2021-08-01T14:06:56Z</time>
      </trkpt>
      <trkpt lat="48.45275" lon="7.19894">
        <ele>359.2</ele>
        <time>2021-08-01T14:07:03Z</time>
      </trkpt>
      <trkpt lat="48.45275" lon="7.19893">
        <ele>359.2</ele>
        <time>2021-08-01T14:07:09Z</time>
      </trkpt>
      <trkpt lat="48.45275" lon="7.19894">
        <ele>359.2</ele>
        <time>2021-08-01T14:07:15Z</time>
      </trkpt>
      <trkpt lat="48.45275" lon="7.19893">
        <ele>359.2</ele>
        <time>2021-08-01T14:07:22Z</time>
      </trkpt>
      <trkpt lat="48.45275" lon="7.19894">
        <ele>359.1</ele>
        <time>2021-08-01T14:07:28Z</time>
      </trkpt>
      <trkpt lat="48.45275" lon="7.19894">
        <ele>359.1</ele>
        <time>2021-08-01T14:07:35Z</time>
      </trkpt>
      <trkpt lat="48.45275" lon="7.19894">
        <ele>359.1</ele>
        <time>2021-08-01T14:07:41Z</time>
      </trkpt>
      <trkpt lat="48.45275" lon="7.19894">
        <ele>359.1</ele>
        <time>2021-08-01T14:07:48Z</time>
      </trkpt>
      <trkpt lat="48.45274" lon="7.19893">
        <ele>359</ele>
        <time>2021-08-01T14:07:54Z</time>
      </trkpt>
      <trkpt lat="48.45275" lon="7.19894">
        <ele>359</ele>
        <time>2021-08-01T14:08:00Z</time>
      </trkpt>
      <trkpt lat="48.45274" lon="7.19893">
        <ele>359</ele>
        <time>2021-08-01T14:08:07Z</time>
      </trkpt>
      <trkpt lat="48.45274" lon="7.19893">
        <ele>359</ele>
        <time>2021-08-01T14:08:13Z</time>
      </trkpt>
      <trkpt lat="48.45275" lon="7.19894">
        <ele>358.9</ele>
        <time>2021-08-01T14:08:20Z</time>
      </trkpt>
      <trkpt lat="48.45275" lon="7.19895">
        <ele>358.9</ele>
        <time>2021-08-01T14:08:26Z</time>
      </trkpt>
      <trkpt lat="48.45275" lon="7.19895">
        <ele>358.9</ele>
        <time>2021-08-01T14:08:32Z</time>
      </trkpt>
      <trkpt lat="48.45275" lon="7.19895">
        <ele>358.9</ele>
        <time>2021-08-01T14:08:39Z</time>
      </trkpt>
      <trkpt lat="48.45275" lon="7.19895">
        <ele>358.9</ele>
        <time>2021-08-01T14:08:45Z</time>
      </trkpt>
      <trkpt lat="48.45275" lon="7.19894">
        <ele>358.8</ele>
        <time>2021-08-01T14:08:52Z</time>
      </trkpt>
      <trkpt lat="48.45275" lon="7.19894">
        <ele>358.8</ele>
        <time>2021-08-01T14:08:58Z</time>
      </trkpt>
      <trkpt lat="48.45275" lon="7.19893">
        <ele>358.8</ele>
        <time>2021-08-01T14:09:05Z</time>
      </trkpt>
      <trkpt lat="48.45275" lon="7.19894">
        <ele>358.8</ele>
        <time>2021-08-01T14:09:11Z</time>
      </trkpt>
      <trkpt lat="48.45275" lon="7.19894">
        <ele>358.8</ele>
        <time>2021-08-01T14:09:17Z</time>
      </trkpt>
      <trkpt lat="48.45275" lon="7.19895">
        <ele>358.7</ele>
        <time>2021-08-01T14:09:24Z</time>
      </trkpt>
      <trkpt lat="48.45275" lon="7.19894">
        <ele>358.7</ele>
        <time>2021-08-01T14:09:30Z</time>
      </trkpt>
      <trkpt lat="48.45275" lon="7.19894">
        <ele>358.7</ele>
        <time>2021-08-01T14:09:37Z</time>
      </trkpt>
      <trkpt lat="48.45275" lon="7.19895">
        <ele>358.6</ele>
        <time>2021-08-01T14:09:43Z</time>
      </trkpt>
      <trkpt lat="48.45275" lon="7.19895">
        <ele>358.6</ele>
        <time>2021-08-01T14:09:50Z</time>
      </trkpt>
      <trkpt lat="48.45275" lon="7.19894">
        <ele>358.6</ele>
        <time>2021-08-01T14:09:56Z</time>
      </trkpt>
      <trkpt lat="48.45275" lon="7.19894">
        <ele>358.6</ele>
        <time>2021-08-01T14:10:03Z</time>
      </trkpt>
      <trkpt lat="48.45275" lon="7.19894">
        <ele>358.6</ele>
        <time>2021-08-01T14:10:09Z</time>
      </trkpt>
      <trkpt lat="48.45275" lon="7.19894">
        <ele>358.6</ele>
        <time>2021-08-01T14:10:15Z</time>
      </trkpt>
      <trkpt lat="48.45275" lon="7.19894">
        <ele>358.5</ele>
        <time>2021-08-01T14:10:22Z</time>
      </trkpt>
      <trkpt lat="48.45275" lon="7.19894">
        <ele>358.5</ele>
        <time>2021-08-01T14:10:28Z</time>
      </trkpt>
      <trkpt lat="48.45275" lon="7.19894">
        <ele>358.5</ele>
        <time>2021-08-01T14:10:35Z</time>
      </trkpt>
      <trkpt lat="48.45275" lon="7.19893">
        <ele>358.5</ele>
        <time>2021-08-01T14:10:41Z</time>
      </trkpt>
      <trkpt lat="48.45275" lon="7.19893">
        <ele>358.5</ele>
        <time>2021-08-01T14:10:48Z</time>
      </trkpt>
      <trkpt lat="48.45275" lon="7.19894">
        <ele>358.4</ele>
        <time>2021-08-01T14:10:54Z</time>
      </trkpt>
      <trkpt lat="48.45275" lon="7.19894">
        <ele>358.4</ele>
        <time>2021-08-01T14:11:00Z</time>
      </trkpt>
      <trkpt lat="48.45275" lon="7.19894">
        <ele>358.4</ele>
        <time>2021-08-01T14:11:07Z</time>
      </trkpt>
      <trkpt lat="48.45275" lon="7.19894">
        <ele>358.4</ele>
        <time>2021-08-01T14:11:13Z</time>
      </trkpt>
      <trkpt lat="48.45275" lon="7.19894">
        <ele>358.4</ele>
        <time>2021-08-01T14:11:20Z</time>
      </trkpt>
      <trkpt lat="48.45275" lon="7.19894">
        <ele>358.4</ele>
        <time>2021-08-01T14:11:26Z</time>
      </trkpt>
      <trkpt lat="48.45275" lon="7.19894">
        <ele>358.4</ele>
        <time>2021-08-01T14:11:33Z</time>
      </trkpt>
      <trkpt lat="48.45275" lon="7.19894">
        <ele>358.4</ele>
        <time>2021-08-01T14:11:39Z</time>
      </trkpt>
      <trkpt lat="48.45275" lon="7.19893">
        <ele>358.3</ele>
        <time>2021-08-01T14:11:46Z</time>
      </trkpt>
      <trkpt lat="48.45275" lon="7.19894">
        <ele>358.3</ele>
        <time>2021-08-01T14:11:52Z</time>
      </trkpt>
      <trkpt lat="48.45274" lon="7.19893">
        <ele>358.2</ele>
        <time>2021-08-01T14:11:59Z</time>
      </trkpt>
      <trkpt lat="48.45274" lon="7.19893">
        <ele>358.2</ele>
        <time>2021-08-01T14:12:05Z</time>
      </trkpt>
      <trkpt lat="48.45275" lon="7.19894">
        <ele>358.2</ele>
        <time>2021-08-01T14:12:12Z</time>
      </trkpt>
      <trkpt lat="48.45274" lon="7.19893">
        <ele>358.1</ele>
        <time>2021-08-01T14:12:18Z</time>
      </trkpt>
      <trkpt lat="48.45274" lon="7.19893">
        <ele>358.1</ele>
        <time>2021-08-01T14:12:22Z</time>
      </trkpt>
      <trkpt lat="48.45274" lon="7.19893">
        <ele>358.1</ele>
        <time>2021-08-01T14:12:24Z</time>
      </trkpt>
      <trkpt lat="48.45274" lon="7.19892">
        <ele>358.1</ele>
        <time>2021-08-01T14:12:25Z</time>
      </trkpt>
      <trkpt lat="48.45275" lon="7.19892">
        <ele>358.1</ele>
        <time>2021-08-01T14:12:27Z</time>
      </trkpt>
      <trkpt lat="48.45275" lon="7.19891">
        <ele>358</ele>
        <time>2021-08-01T14:12:28Z</time>
      </trkpt>
      <trkpt lat="48.45275" lon="7.1989">
        <ele>358</ele>
        <time>2021-08-01T14:12:31Z</time>
      </trkpt>
      <trkpt lat="48.45274" lon="7.1989">
        <ele>357.9</ele>
        <time>2021-08-01T14:12:34Z</time>
      </trkpt>
      <trkpt lat="48.45274" lon="7.19891">
        <ele>357.9</ele>
        <time>2021-08-01T14:12:35Z</time>
      </trkpt>
      <trkpt lat="48.45275" lon="7.19891">
        <ele>357.9</ele>
        <time>2021-08-01T14:12:37Z</time>
      </trkpt>
      <trkpt lat="48.45275" lon="7.19891">
        <ele>357.9</ele>
        <time>2021-08-01T14:12:38Z</time>
      </trkpt>
      <trkpt lat="48.45295" lon="7.1988">
        <ele>356.7</ele>
        <time>2021-08-01T14:13:16Z</time>
      </trkpt>
      <trkpt lat="48.45296" lon="7.19881">
        <ele>356.6</ele>
        <time>2021-08-01T14:13:17Z</time>
      </trkpt>
      <trkpt lat="48.45298" lon="7.19882">
        <ele>356.5</ele>
        <time>2021-08-01T14:13:18Z</time>
      </trkpt>
      <trkpt lat="48.453" lon="7.19888">
        <ele>356.2</ele>
        <time>2021-08-01T14:13:19Z</time>
      </trkpt>
      <trkpt lat="48.45301" lon="7.19891">
        <ele>356.1</ele>
        <time>2021-08-01T14:13:21Z</time>
      </trkpt>
      <trkpt lat="48.45303" lon="7.19895">
        <ele>355.9</ele>
        <time>2021-08-01T14:13:22Z</time>
      </trkpt>
      <trkpt lat="48.45306" lon="7.19904">
        <ele>355.5</ele>
        <time>2021-08-01T14:13:24Z</time>
      </trkpt>
      <trkpt lat="48.45309" lon="7.19912">
        <ele>355.1</ele>
        <time>2021-08-01T14:13:25Z</time>
      </trkpt>
      <trkpt lat="48.45314" lon="7.19921">
        <ele>354.7</ele>
        <time>2021-08-01T14:13:27Z</time>
      </trkpt>
      <trkpt lat="48.45318" lon="7.19925">
        <ele>354.4</ele>
        <time>2021-08-01T14:13:29Z</time>
      </trkpt>
      <trkpt lat="48.4532" lon="7.19927">
        <ele>354.3</ele>
        <time>2021-08-01T14:13:30Z</time>
      </trkpt>
      <trkpt lat="48.45322" lon="7.19928">
        <ele>354.2</ele>
        <time>2021-08-01T14:13:31Z</time>
      </trkpt>
      <trkpt lat="48.45324" lon="7.1993">
        <ele>354.1</ele>
        <time>2021-08-01T14:13:33Z</time>
      </trkpt>
      <trkpt lat="48.45324" lon="7.19931">
        <ele>354</ele>
        <time>2021-08-01T14:13:34Z</time>
      </trkpt>
      <trkpt lat="48.45324" lon="7.19933">
        <ele>353.9</ele>
        <time>2021-08-01T14:13:36Z</time>
      </trkpt>
      <trkpt lat="48.45324" lon="7.19933">
        <ele>353.9</ele>
        <time>2021-08-01T14:13:38Z</time>
      </trkpt>
      <trkpt lat="48.45324" lon="7.19934">
        <ele>353.9</ele>
        <time>2021-08-01T14:13:39Z</time>
      </trkpt>
      <trkpt lat="48.45324" lon="7.19935">
        <ele>353.8</ele>
        <time>2021-08-01T14:13:40Z</time>
      </trkpt>
      <trkpt lat="48.45325" lon="7.19936">
        <ele>353.8</ele>
        <time>2021-08-01T14:13:41Z</time>
      </trkpt>
      <trkpt lat="48.45326" lon="7.19936">
        <ele>353.8</ele>
        <time>2021-08-01T14:13:43Z</time>
      </trkpt>
      <trkpt lat="48.45326" lon="7.19936">
        <ele>353.7</ele>
        <time>2021-08-01T14:13:44Z</time>
      </trkpt>
      <trkpt lat="48.45326" lon="7.19936">
        <ele>353.7</ele>
        <time>2021-08-01T14:13:45Z</time>
      </trkpt>
      <trkpt lat="48.45326" lon="7.19937">
        <ele>353.7</ele>
        <time>2021-08-01T14:13:47Z</time>
      </trkpt>
      <trkpt lat="48.45326" lon="7.19937">
        <ele>353.7</ele>
        <time>2021-08-01T14:13:49Z</time>
      </trkpt>
      <trkpt lat="48.45326" lon="7.19937">
        <ele>353.7</ele>
        <time>2021-08-01T14:13:50Z</time>
      </trkpt>
      <trkpt lat="48.45326" lon="7.19937">
        <ele>353.7</ele>
        <time>2021-08-01T14:13:52Z</time>
      </trkpt>
      <trkpt lat="48.45326" lon="7.19937">
        <ele>353.7</ele>
        <time>2021-08-01T14:13:53Z</time>
      </trkpt>
      <trkpt lat="48.45325" lon="7.19937">
        <ele>353.7</ele>
        <time>2021-08-01T14:13:54Z</time>
      </trkpt>
      <trkpt lat="48.45325" lon="7.19937">
        <ele>353.7</ele>
        <time>2021-08-01T14:13:55Z</time>
      </trkpt>
      <trkpt lat="48.45272" lon="7.19923">
        <ele>350</ele>
        <time>2021-08-03T09:06:05Z</time>
      </trkpt>
      <trkpt lat="48.45272" lon="7.19923">
        <ele>350</ele>
        <time>2021-08-03T09:06:05Z</time>
      </trkpt>
      <trkpt lat="48.45277" lon="7.19908">
        <ele>352.4</ele>
        <time>2021-08-03T09:06:11Z</time>
      </trkpt>
      <trkpt lat="48.45271" lon="7.19995">
        <ele>346.5</ele>
        <time>2021-08-03T09:06:17Z</time>
      </trkpt>
      <trkpt lat="48.45279" lon="7.20012">
        <ele>346</ele>
        <time>2021-08-03T09:06:19Z</time>
      </trkpt>
      <trkpt lat="48.45292" lon="7.20017">
        <ele>345.2</ele>
        <time>2021-08-03T09:06:21Z</time>
      </trkpt>
      <trkpt lat="48.45304" lon="7.20017">
        <ele>344.4</ele>
        <time>2021-08-03T09:06:22Z</time>
      </trkpt>
      <trkpt lat="48.45304" lon="7.20017">
        <ele>344.4</ele>
        <time>2021-08-03T09:06:24Z</time>
      </trkpt>
      <trkpt lat="48.45305" lon="7.20018">
        <ele>344.4</ele>
        <time>2021-08-03T09:06:25Z</time>
      </trkpt>
      <trkpt lat="48.45306" lon="7.2002">
        <ele>344.2</ele>
        <time>2021-08-03T09:06:26Z</time>
      </trkpt>
      <trkpt lat="48.45308" lon="7.2002">
        <ele>344.2</ele>
        <time>2021-08-03T09:06:27Z</time>
      </trkpt>
      <trkpt lat="48.45311" lon="7.2002">
        <ele>344</ele>
        <time>2021-08-03T09:06:29Z</time>
      </trkpt>
      <trkpt lat="48.45314" lon="7.2002">
        <ele>343.8</ele>
        <time>2021-08-03T09:06:30Z</time>
      </trkpt>
      <trkpt lat="48.45324" lon="7.2002">
        <ele>343.4</ele>
        <time>2021-08-03T09:06:32Z</time>
      </trkpt>
      <trkpt lat="48.45331" lon="7.20021">
        <ele>343.2</ele>
        <time>2021-08-03T09:06:33Z</time>
      </trkpt>
      <trkpt lat="48.45335" lon="7.20023">
        <ele>343.1</ele>
        <time>2021-08-03T09:06:35Z</time>
      </trkpt>
      <trkpt lat="48.45342" lon="7.20025">
        <ele>343.1</ele>
        <time>2021-08-03T09:06:36Z</time>
      </trkpt>
      <trkpt lat="48.45348" lon="7.20028">
        <ele>343</ele>
        <time>2021-08-03T09:06:38Z</time>
      </trkpt>
      <trkpt lat="48.45354" lon="7.20034">
        <ele>343</ele>
        <time>2021-08-03T09:06:40Z</time>
      </trkpt>
      <trkpt lat="48.45358" lon="7.20037">
        <ele>343</ele>
        <time>2021-08-03T09:06:41Z</time>
      </trkpt>
      <trkpt lat="48.45366" lon="7.20041">
        <ele>342.9</ele>
        <time>2021-08-03T09:06:42Z</time>
      </trkpt>
      <trkpt lat="48.45372" lon="7.20047">
        <ele>342.7</ele>
        <time>2021-08-03T09:06:44Z</time>
      </trkpt>
      <trkpt lat="48.45377" lon="7.20053">
        <ele>342.6</ele>
        <time>2021-08-03T09:06:46Z</time>
      </trkpt>
      <trkpt lat="48.4538" lon="7.20053">
        <ele>342.5</ele>
        <time>2021-08-03T09:06:47Z</time>
      </trkpt>
      <trkpt lat="48.4539" lon="7.20047">
        <ele>342.6</ele>
        <time>2021-08-03T09:06:49Z</time>
      </trkpt>
      <trkpt lat="48.45395" lon="7.20047">
        <ele>342.8</ele>
        <time>2021-08-03T09:06:50Z</time>
      </trkpt>
      <trkpt lat="48.45402" lon="7.20048">
        <ele>342.9</ele>
        <time>2021-08-03T09:06:52Z</time>
      </trkpt>
      <trkpt lat="48.45405" lon="7.20052">
        <ele>342.9</ele>
        <time>2021-08-03T09:06:53Z</time>
      </trkpt>
      <trkpt lat="48.45408" lon="7.20055">
        <ele>343.1</ele>
        <time>2021-08-03T09:06:54Z</time>
      </trkpt>
      <trkpt lat="48.45413" lon="7.20058">
        <ele>343.3</ele>
        <time>2021-08-03T09:06:56Z</time>
      </trkpt>
      <trkpt lat="48.45419" lon="7.20063">
        <ele>343.7</ele>
        <time>2021-08-03T09:06:58Z</time>
      </trkpt>
      <trkpt lat="48.45422" lon="7.20069">
        <ele>343.5</ele>
        <time>2021-08-03T09:07:00Z</time>
      </trkpt>
      <trkpt lat="48.45424" lon="7.20073">
        <ele>343.6</ele>
        <time>2021-08-03T09:07:01Z</time>
      </trkpt>
      <trkpt lat="48.45426" lon="7.2008">
        <ele>343.8</ele>
        <time>2021-08-03T09:07:03Z</time>
      </trkpt>
      <trkpt lat="48.45428" lon="7.20089">
        <ele>343.5</ele>
        <time>2021-08-03T09:07:05Z</time>
      </trkpt>
      <trkpt lat="48.45429" lon="7.20099">
        <ele>343.5</ele>
        <time>2021-08-03T09:07:07Z</time>
      </trkpt>
      <trkpt lat="48.4543" lon="7.2011">
        <ele>343.3</ele>
        <time>2021-08-03T09:07:09Z</time>
      </trkpt>
      <trkpt lat="48.45431" lon="7.20117">
        <ele>343.1</ele>
        <time>2021-08-03T09:07:10Z</time>
      </trkpt>
      <trkpt lat="48.45434" lon="7.20126">
        <ele>343.3</ele>
        <time>2021-08-03T09:07:12Z</time>
      </trkpt>
      <trkpt lat="48.45435" lon="7.20129">
        <ele>343.5</ele>
        <time>2021-08-03T09:07:13Z</time>
      </trkpt>
      <trkpt lat="48.45441" lon="7.20132">
        <ele>344.2</ele>
        <time>2021-08-03T09:07:15Z</time>
      </trkpt>
      <trkpt lat="48.45444" lon="7.20132">
        <ele>344.6</ele>
        <time>2021-08-03T09:07:16Z</time>
      </trkpt>
      <trkpt lat="48.4545" lon="7.20131">
        <ele>345.6</ele>
        <time>2021-08-03T09:07:17Z</time>
      </trkpt>
      <trkpt lat="48.45457" lon="7.2013">
        <ele>347.1</ele>
        <time>2021-08-03T09:07:18Z</time>
      </trkpt>
      <trkpt lat="48.45467" lon="7.20131">
        <ele>348.9</ele>
        <time>2021-08-03T09:07:20Z</time>
      </trkpt>
      <trkpt lat="48.45472" lon="7.20132">
        <ele>350.5</ele>
        <time>2021-08-03T09:07:21Z</time>
      </trkpt>
      <trkpt lat="48.4548" lon="7.20139">
        <ele>352.4</ele>
        <time>2021-08-03T09:07:23Z</time>
      </trkpt>
      <trkpt lat="48.45483" lon="7.20143">
        <ele>352.8</ele>
        <time>2021-08-03T09:07:24Z</time>
      </trkpt>
      <trkpt lat="48.45489" lon="7.20151">
        <ele>353.7</ele>
        <time>2021-08-03T09:07:26Z</time>
      </trkpt>
      <trkpt lat="48.45489" lon="7.20156">
        <ele>353.5</ele>
        <time>2021-08-03T09:07:27Z</time>
      </trkpt>
      <trkpt lat="48.45489" lon="7.20163">
        <ele>352.9</ele>
        <time>2021-08-03T09:07:28Z</time>
      </trkpt>
      <trkpt lat="48.4549" lon="7.20171">
        <ele>352.6</ele>
        <time>2021-08-03T09:07:30Z</time>
      </trkpt>
      <trkpt lat="48.45491" lon="7.20177">
        <ele>352.8</ele>
        <time>2021-08-03T09:07:31Z</time>
      </trkpt>
      <trkpt lat="48.45492" lon="7.20183">
        <ele>352.6</ele>
        <time>2021-08-03T09:07:32Z</time>
      </trkpt>
      <trkpt lat="48.45493" lon="7.2019">
        <ele>352.2</ele>
        <time>2021-08-03T09:07:33Z</time>
      </trkpt>
      <trkpt lat="48.45495" lon="7.20197">
        <ele>352.8</ele>
        <time>2021-08-03T09:07:34Z</time>
      </trkpt>
      <trkpt lat="48.45499" lon="7.20206">
        <ele>353.2</ele>
        <time>2021-08-03T09:07:36Z</time>
      </trkpt>
      <trkpt lat="48.45502" lon="7.20212">
        <ele>353.9</ele>
        <time>2021-08-03T09:07:37Z</time>
      </trkpt>
      <trkpt lat="48.45504" lon="7.20217">
        <ele>354.5</ele>
        <time>2021-08-03T09:07:38Z</time>
      </trkpt>
      <trkpt lat="48.45507" lon="7.20227">
        <ele>354.6</ele>
        <time>2021-08-03T09:07:40Z</time>
      </trkpt>
      <trkpt lat="48.45508" lon="7.20233">
        <ele>355.1</ele>
        <time>2021-08-03T09:07:41Z</time>
      </trkpt>
      <trkpt lat="48.4551" lon="7.20239">
        <ele>354.9</ele>
        <time>2021-08-03T09:07:42Z</time>
      </trkpt>
      <trkpt lat="48.45512" lon="7.20245">
        <ele>355.1</ele>
        <time>2021-08-03T09:07:43Z</time>
      </trkpt>
      <trkpt lat="48.45514" lon="7.20251">
        <ele>355.4</ele>
        <time>2021-08-03T09:07:44Z</time>
      </trkpt>
      <trkpt lat="48.45516" lon="7.20256">
        <ele>355.1</ele>
        <time>2021-08-03T09:07:46Z</time>
      </trkpt>
      <trkpt lat="48.45518" lon="7.20263">
        <ele>355.2</ele>
        <time>2021-08-03T09:07:47Z</time>
      </trkpt>
      <trkpt lat="48.4552" lon="7.20269">
        <ele>355.5</ele>
        <time>2021-08-03T09:07:48Z</time>
      </trkpt>
      <trkpt lat="48.45522" lon="7.20275">
        <ele>354.8</ele>
        <time>2021-08-03T09:07:49Z</time>
      </trkpt>
      <trkpt lat="48.45526" lon="7.20285">
        <ele>355.8</ele>
        <time>2021-08-03T09:07:51Z</time>
      </trkpt>
      <trkpt lat="48.45528" lon="7.20292">
        <ele>355.3</ele>
        <time>2021-08-03T09:07:52Z</time>
      </trkpt>
      <trkpt lat="48.45528" lon="7.20303">
        <ele>355.6</ele>
        <time>2021-08-03T09:07:54Z</time>
      </trkpt>
      <trkpt lat="48.45527" lon="7.20308">
        <ele>354.3</ele>
        <time>2021-08-03T09:07:55Z</time>
      </trkpt>
      <trkpt lat="48.45526" lon="7.20314">
        <ele>354</ele>
        <time>2021-08-03T09:07:56Z</time>
      </trkpt>
      <trkpt lat="48.45526" lon="7.20319">
        <ele>353.7</ele>
        <time>2021-08-03T09:07:57Z</time>
      </trkpt>
      <trkpt lat="48.45525" lon="7.20328">
        <ele>352.5</ele>
        <time>2021-08-03T09:07:58Z</time>
      </trkpt>
      <trkpt lat="48.45524" lon="7.20338">
        <ele>351.7</ele>
        <time>2021-08-03T09:08:00Z</time>
      </trkpt>
      <trkpt lat="48.45523" lon="7.20348">
        <ele>351.1</ele>
        <time>2021-08-03T09:08:01Z</time>
      </trkpt>
      <trkpt lat="48.45524" lon="7.2036">
        <ele>350.5</ele>
        <time>2021-08-03T09:08:03Z</time>
      </trkpt>
      <trkpt lat="48.45525" lon="7.20373">
        <ele>350.1</ele>
        <time>2021-08-03T09:08:04Z</time>
      </trkpt>
      <trkpt lat="48.45527" lon="7.20385">
        <ele>349.9</ele>
        <time>2021-08-03T09:08:06Z</time>
      </trkpt>
      <trkpt lat="48.45527" lon="7.20391">
        <ele>349.4</ele>
        <time>2021-08-03T09:08:07Z</time>
      </trkpt>
      <trkpt lat="48.45529" lon="7.20397">
        <ele>349.5</ele>
        <time>2021-08-03T09:08:08Z</time>
      </trkpt>
      <trkpt lat="48.4553" lon="7.20409">
        <ele>348.8</ele>
        <time>2021-08-03T09:08:10Z</time>
      </trkpt>
      <trkpt lat="48.45531" lon="7.20415">
        <ele>348.9</ele>
        <time>2021-08-03T09:08:11Z</time>
      </trkpt>
      <trkpt lat="48.45532" lon="7.20421">
        <ele>348.6</ele>
        <time>2021-08-03T09:08:13Z</time>
      </trkpt>
      <trkpt lat="48.45533" lon="7.20428">
        <ele>348.4</ele>
        <time>2021-08-03T09:08:14Z</time>
      </trkpt>
      <trkpt lat="48.45533" lon="7.20434">
        <ele>348.1</ele>
        <time>2021-08-03T09:08:15Z</time>
      </trkpt>
      <trkpt lat="48.45534" lon="7.20442">
        <ele>347.8</ele>
        <time>2021-08-03T09:08:16Z</time>
      </trkpt>
      <trkpt lat="48.45535" lon="7.20449">
        <ele>347.5</ele>
        <time>2021-08-03T09:08:17Z</time>
      </trkpt>
      <trkpt lat="48.45537" lon="7.20456">
        <ele>346.9</ele>
        <time>2021-08-03T09:08:18Z</time>
      </trkpt>
      <trkpt lat="48.45538" lon="7.20464">
        <ele>346.2</ele>
        <time>2021-08-03T09:08:19Z</time>
      </trkpt>
      <trkpt lat="48.45541" lon="7.20474">
        <ele>345.5</ele>
        <time>2021-08-03T09:08:21Z</time>
      </trkpt>
      <trkpt lat="48.45543" lon="7.20482">
        <ele>344.8</ele>
        <time>2021-08-03T09:08:23Z</time>
      </trkpt>
      <trkpt lat="48.45545" lon="7.20488">
        <ele>344.5</ele>
        <time>2021-08-03T09:08:24Z</time>
      </trkpt>
      <trkpt lat="48.45548" lon="7.20496">
        <ele>344</ele>
        <time>2021-08-03T09:08:25Z</time>
      </trkpt>
      <trkpt lat="48.45552" lon="7.20507">
        <ele>343.3</ele>
        <time>2021-08-03T09:08:27Z</time>
      </trkpt>
      <trkpt lat="48.45555" lon="7.20515">
        <ele>342.9</ele>
        <time>2021-08-03T09:08:28Z</time>
      </trkpt>
      <trkpt lat="48.45558" lon="7.20521">
        <ele>342.7</ele>
        <time>2021-08-03T09:08:29Z</time>
      </trkpt>
      <trkpt lat="48.45565" lon="7.20532">
        <ele>342.2</ele>
        <time>2021-08-03T09:08:31Z</time>
      </trkpt>
      <trkpt lat="48.45568" lon="7.20539">
        <ele>342.1</ele>
        <time>2021-08-03T09:08:32Z</time>
      </trkpt>
      <trkpt lat="48.4557" lon="7.20545">
        <ele>341.9</ele>
        <time>2021-08-03T09:08:33Z</time>
      </trkpt>
      <trkpt lat="48.45574" lon="7.20558">
        <ele>341.8</ele>
        <time>2021-08-03T09:08:35Z</time>
      </trkpt>
      <trkpt lat="48.45577" lon="7.20563">
        <ele>341.8</ele>
        <time>2021-08-03T09:08:36Z</time>
      </trkpt>
      <trkpt lat="48.45581" lon="7.20567">
        <ele>341.8</ele>
        <time>2021-08-03T09:08:37Z</time>
      </trkpt>
      <trkpt lat="48.45584" lon="7.20572">
        <ele>341.8</ele>
        <time>2021-08-03T09:08:38Z</time>
      </trkpt>
      <trkpt lat="48.45588" lon="7.2058">
        <ele>341.7</ele>
        <time>2021-08-03T09:08:40Z</time>
      </trkpt>
      <trkpt lat="48.4559" lon="7.20586">
        <ele>341.7</ele>
        <time>2021-08-03T09:08:41Z</time>
      </trkpt>
      <trkpt lat="48.45594" lon="7.20591">
        <ele>341.7</ele>
        <time>2021-08-03T09:08:42Z</time>
      </trkpt>
      <trkpt lat="48.45599" lon="7.20597">
        <ele>341.6</ele>
        <time>2021-08-03T09:08:44Z</time>
      </trkpt>
      <trkpt lat="48.45603" lon="7.20599">
        <ele>341.6</ele>
        <time>2021-08-03T09:08:45Z</time>
      </trkpt>
      <trkpt lat="48.45606" lon="7.206">
        <ele>341.6</ele>
        <time>2021-08-03T09:08:46Z</time>
      </trkpt>
      <trkpt lat="48.4561" lon="7.206">
        <ele>341.6</ele>
        <time>2021-08-03T09:08:47Z</time>
      </trkpt>
      <trkpt lat="48.45613" lon="7.20601">
        <ele>341.6</ele>
        <time>2021-08-03T09:08:49Z</time>
      </trkpt>
      <trkpt lat="48.45616" lon="7.20601">
        <ele>341.6</ele>
        <time>2021-08-03T09:08:50Z</time>
      </trkpt>
      <trkpt lat="48.4562" lon="7.20601">
        <ele>341.6</ele>
        <time>2021-08-03T09:08:51Z</time>
      </trkpt>
      <trkpt lat="48.45624" lon="7.20602">
        <ele>341.6</ele>
        <time>2021-08-03T09:08:52Z</time>
      </trkpt>
      <trkpt lat="48.45628" lon="7.20602">
        <ele>341.6</ele>
        <time>2021-08-03T09:08:53Z</time>
      </trkpt>
      <trkpt lat="48.45631" lon="7.20602">
        <ele>341.6</ele>
        <time>2021-08-03T09:08:55Z</time>
      </trkpt>
      <trkpt lat="48.45635" lon="7.20602">
        <ele>341.6</ele>
        <time>2021-08-03T09:08:56Z</time>
      </trkpt>
      <trkpt lat="48.45639" lon="7.20603">
        <ele>341.6</ele>
        <time>2021-08-03T09:08:57Z</time>
      </trkpt>
      <trkpt lat="48.45641" lon="7.20604">
        <ele>341.6</ele>
        <time>2021-08-03T09:08:58Z</time>
      </trkpt>
      <trkpt lat="48.45644" lon="7.20605">
        <ele>341.7</ele>
        <time>2021-08-03T09:08:59Z</time>
      </trkpt>
      <trkpt lat="48.45646" lon="7.20607">
        <ele>341.7</ele>
        <time>2021-08-03T09:09:00Z</time>
      </trkpt>
      <trkpt lat="48.45648" lon="7.20609">
        <ele>341.7</ele>
        <time>2021-08-03T09:09:02Z</time>
      </trkpt>
      <trkpt lat="48.45651" lon="7.20611">
        <ele>341.8</ele>
        <time>2021-08-03T09:09:03Z</time>
      </trkpt>
      <trkpt lat="48.45655" lon="7.20612">
        <ele>341.8</ele>
        <time>2021-08-03T09:09:05Z</time>
      </trkpt>
      <trkpt lat="48.45658" lon="7.20615">
        <ele>341.9</ele>
        <time>2021-08-03T09:09:06Z</time>
      </trkpt>
      <trkpt lat="48.45659" lon="7.20616">
        <ele>341.9</ele>
        <time>2021-08-03T09:09:07Z</time>
      </trkpt>
      <trkpt lat="48.45662" lon="7.20619">
        <ele>341.9</ele>
        <time>2021-08-03T09:09:08Z</time>
      </trkpt>
      <trkpt lat="48.45664" lon="7.20622">
        <ele>342</ele>
        <time>2021-08-03T09:09:09Z</time>
      </trkpt>
      <trkpt lat="48.45667" lon="7.20624">
        <ele>342</ele>
        <time>2021-08-03T09:09:10Z</time>
      </trkpt>
      <trkpt lat="48.4567" lon="7.20627">
        <ele>342.1</ele>
        <time>2021-08-03T09:09:12Z</time>
      </trkpt>
      <trkpt lat="48.45671" lon="7.20632">
        <ele>342.1</ele>
        <time>2021-08-03T09:09:13Z</time>
      </trkpt>
      <trkpt lat="48.45672" lon="7.20635">
        <ele>342.2</ele>
        <time>2021-08-03T09:09:14Z</time>
      </trkpt>
      <trkpt lat="48.45672" lon="7.20639">
        <ele>342.2</ele>
        <time>2021-08-03T09:09:16Z</time>
      </trkpt>
      <trkpt lat="48.45671" lon="7.20643">
        <ele>342.2</ele>
        <time>2021-08-03T09:09:17Z</time>
      </trkpt>
      <trkpt lat="48.4567" lon="7.20647">
        <ele>342.3</ele>
        <time>2021-08-03T09:09:18Z</time>
      </trkpt>
      <trkpt lat="48.45668" lon="7.20652">
        <ele>342.4</ele>
        <time>2021-08-03T09:09:20Z</time>
      </trkpt>
      <trkpt lat="48.45666" lon="7.20656">
        <ele>342.5</ele>
        <time>2021-08-03T09:09:21Z</time>
      </trkpt>
      <trkpt lat="48.45664" lon="7.20662">
        <ele>342.6</ele>
        <time>2021-08-03T09:09:23Z</time>
      </trkpt>
      <trkpt lat="48.45664" lon="7.20663">
        <ele>342.6</ele>
        <time>2021-08-03T09:09:24Z</time>
      </trkpt>
      <trkpt lat="48.45663" lon="7.20665">
        <ele>342.6</ele>
        <time>2021-08-03T09:09:26Z</time>
      </trkpt>
      <trkpt lat="48.45662" lon="7.20666">
        <ele>342.7</ele>
        <time>2021-08-03T09:09:27Z</time>
      </trkpt>
      <trkpt lat="48.4566" lon="7.20668">
        <ele>342.7</ele>
        <time>2021-08-03T09:09:28Z</time>
      </trkpt>
      <trkpt lat="48.45658" lon="7.20669">
        <ele>342.8</ele>
        <time>2021-08-03T09:09:30Z</time>
      </trkpt>
      <trkpt lat="48.45657" lon="7.20671">
        <ele>342.8</ele>
        <time>2021-08-03T09:09:31Z</time>
      </trkpt>
      <trkpt lat="48.45657" lon="7.20672">
        <ele>342.8</ele>
        <time>2021-08-03T09:09:32Z</time>
      </trkpt>
      <trkpt lat="48.45656" lon="7.20675">
        <ele>342.9</ele>
        <time>2021-08-03T09:09:34Z</time>
      </trkpt>
      <trkpt lat="48.45655" lon="7.20678">
        <ele>342.9</ele>
        <time>2021-08-03T09:09:35Z</time>
      </trkpt>
      <trkpt lat="48.45655" lon="7.2068">
        <ele>343</ele>
        <time>2021-08-03T09:09:36Z</time>
      </trkpt>
      <trkpt lat="48.45655" lon="7.20682">
        <ele>343</ele>
        <time>2021-08-03T09:09:37Z</time>
      </trkpt>
      <trkpt lat="48.45654" lon="7.20684">
        <ele>343</ele>
        <time>2021-08-03T09:09:38Z</time>
      </trkpt>
      <trkpt lat="48.45654" lon="7.20686">
        <ele>343.1</ele>
        <time>2021-08-03T09:09:40Z</time>
      </trkpt>
      <trkpt lat="48.45654" lon="7.20688">
        <ele>343.1</ele>
        <time>2021-08-03T09:09:41Z</time>
      </trkpt>
      <trkpt lat="48.45653" lon="7.2069">
        <ele>343.1</ele>
        <time>2021-08-03T09:09:43Z</time>
      </trkpt>
      <trkpt lat="48.45653" lon="7.20692">
        <ele>343.2</ele>
        <time>2021-08-03T09:09:45Z</time>
      </trkpt>
      <trkpt lat="48.45653" lon="7.20694">
        <ele>343.2</ele>
        <time>2021-08-03T09:09:47Z</time>
      </trkpt>
      <trkpt lat="48.45652" lon="7.20697">
        <ele>343.3</ele>
        <time>2021-08-03T09:09:48Z</time>
      </trkpt>
      <trkpt lat="48.45652" lon="7.20699">
        <ele>343.3</ele>
        <time>2021-08-03T09:09:49Z</time>
      </trkpt>
      <trkpt lat="48.45652" lon="7.20701">
        <ele>343.3</ele>
        <time>2021-08-03T09:09:51Z</time>
      </trkpt>
      <trkpt lat="48.45651" lon="7.20703">
        <ele>343.3</ele>
        <time>2021-08-03T09:09:52Z</time>
      </trkpt>
      <trkpt lat="48.45651" lon="7.20705">
        <ele>343.3</ele>
        <time>2021-08-03T09:09:53Z</time>
      </trkpt>
      <trkpt lat="48.45651" lon="7.20707">
        <ele>343.4</ele>
        <time>2021-08-03T09:09:55Z</time>
      </trkpt>
      <trkpt lat="48.45651" lon="7.20709">
        <ele>343.4</ele>
        <time>2021-08-03T09:09:56Z</time>
      </trkpt>
      <trkpt lat="48.4565" lon="7.20711">
        <ele>343.4</ele>
        <time>2021-08-03T09:09:58Z</time>
      </trkpt>
      <trkpt lat="48.4565" lon="7.20713">
        <ele>343.4</ele>
        <time>2021-08-03T09:09:59Z</time>
      </trkpt>
      <trkpt lat="48.4565" lon="7.20715">
        <ele>343.4</ele>
        <time>2021-08-03T09:10:13Z</time>
      </trkpt>
      <trkpt lat="48.45649" lon="7.20718">
        <ele>343.4</ele>
        <time>2021-08-03T09:10:14Z</time>
      </trkpt>
      <trkpt lat="48.45649" lon="7.20732">
        <ele>343.6</ele>
        <time>2021-08-03T09:10:16Z</time>
      </trkpt>
      <trkpt lat="48.45649" lon="7.20738">
        <ele>343.7</ele>
        <time>2021-08-03T09:10:17Z</time>
      </trkpt>
      <trkpt lat="48.45649" lon="7.2075">
        <ele>343.8</ele>
        <time>2021-08-03T09:10:19Z</time>
      </trkpt>
      <trkpt lat="48.4565" lon="7.20759">
        <ele>343.9</ele>
        <time>2021-08-03T09:10:20Z</time>
      </trkpt>
      <trkpt lat="48.4565" lon="7.20765">
        <ele>343.9</ele>
        <time>2021-08-03T09:10:21Z</time>
      </trkpt>
      <trkpt lat="48.45652" lon="7.20774">
        <ele>343.9</ele>
        <time>2021-08-03T09:10:23Z</time>
      </trkpt>
      <trkpt lat="48.45654" lon="7.2078">
        <ele>344</ele>
        <time>2021-08-03T09:10:24Z</time>
      </trkpt>
      <trkpt lat="48.45656" lon="7.20784">
        <ele>344</ele>
        <time>2021-08-03T09:10:25Z</time>
      </trkpt>
      <trkpt lat="48.45658" lon="7.2079">
        <ele>344.1</ele>
        <time>2021-08-03T09:10:26Z</time>
      </trkpt>
      <trkpt lat="48.4566" lon="7.20795">
        <ele>344.1</ele>
        <time>2021-08-03T09:10:28Z</time>
      </trkpt>
      <trkpt lat="48.4566" lon="7.208">
        <ele>344.2</ele>
        <time>2021-08-03T09:10:29Z</time>
      </trkpt>
      <trkpt lat="48.4566" lon="7.20802">
        <ele>344.2</ele>
        <time>2021-08-03T09:10:30Z</time>
      </trkpt>
      <trkpt lat="48.4566" lon="7.20808">
        <ele>344.2</ele>
        <time>2021-08-03T09:10:32Z</time>
      </trkpt>
      <trkpt lat="48.4566" lon="7.20812">
        <ele>344.3</ele>
        <time>2021-08-03T09:10:33Z</time>
      </trkpt>
      <trkpt lat="48.4566" lon="7.20814">
        <ele>344.3</ele>
        <time>2021-08-03T09:10:34Z</time>
      </trkpt>
      <trkpt lat="48.45659" lon="7.20818">
        <ele>344.3</ele>
        <time>2021-08-03T09:10:35Z</time>
      </trkpt>
      <trkpt lat="48.45659" lon="7.2082">
        <ele>344.3</ele>
        <time>2021-08-03T09:10:36Z</time>
      </trkpt>
      <trkpt lat="48.45657" lon="7.20826">
        <ele>344.4</ele>
        <time>2021-08-03T09:10:38Z</time>
      </trkpt>
      <trkpt lat="48.45656" lon="7.2083">
        <ele>344.4</ele>
        <time>2021-08-03T09:10:39Z</time>
      </trkpt>
      <trkpt lat="48.45655" lon="7.20837">
        <ele>344.5</ele>
        <time>2021-08-03T09:10:41Z</time>
      </trkpt>
      <trkpt lat="48.45655" lon="7.20841">
        <ele>344.5</ele>
        <time>2021-08-03T09:10:42Z</time>
      </trkpt>
      <trkpt lat="48.45654" lon="7.20848">
        <ele>344.5</ele>
        <time>2021-08-03T09:10:44Z</time>
      </trkpt>
      <trkpt lat="48.45653" lon="7.20853">
        <ele>344.6</ele>
        <time>2021-08-03T09:10:45Z</time>
      </trkpt>
      <trkpt lat="48.45653" lon="7.20857">
        <ele>344.6</ele>
        <time>2021-08-03T09:10:47Z</time>
      </trkpt>
      <trkpt lat="48.45655" lon="7.20861">
        <ele>344.6</ele>
        <time>2021-08-03T09:10:48Z</time>
      </trkpt>
      <trkpt lat="48.45658" lon="7.20863">
        <ele>344.6</ele>
        <time>2021-08-03T09:10:50Z</time>
      </trkpt>
      <trkpt lat="48.45661" lon="7.20864">
        <ele>344.7</ele>
        <time>2021-08-03T09:10:51Z</time>
      </trkpt>
      <trkpt lat="48.45663" lon="7.20863">
        <ele>344.7</ele>
        <time>2021-08-03T09:10:52Z</time>
      </trkpt>
      <trkpt lat="48.45667" lon="7.20858">
        <ele>344.8</ele>
        <time>2021-08-03T09:10:54Z</time>
      </trkpt>
      <trkpt lat="48.45669" lon="7.20853">
        <ele>344.8</ele>
        <time>2021-08-03T09:10:55Z</time>
      </trkpt>
      <trkpt lat="48.45669" lon="7.20852">
        <ele>344.8</ele>
        <time>2021-08-03T09:10:56Z</time>
      </trkpt>
      <trkpt lat="48.45671" lon="7.20845">
        <ele>344.7</ele>
        <time>2021-08-03T09:10:58Z</time>
      </trkpt>
      <trkpt lat="48.45671" lon="7.20841">
        <ele>344.7</ele>
        <time>2021-08-03T09:10:59Z</time>
      </trkpt>
      <trkpt lat="48.4567" lon="7.20834">
        <ele>344.6</ele>
        <time>2021-08-03T09:11:01Z</time>
      </trkpt>
      <trkpt lat="48.4567" lon="7.20828">
        <ele>344.5</ele>
        <time>2021-08-03T09:11:02Z</time>
      </trkpt>
      <trkpt lat="48.45669" lon="7.20822">
        <ele>344.5</ele>
        <time>2021-08-03T09:11:03Z</time>
      </trkpt>
      <trkpt lat="48.45667" lon="7.2081">
        <ele>344.3</ele>
        <time>2021-08-03T09:11:05Z</time>
      </trkpt>
      <trkpt lat="48.45667" lon="7.20799">
        <ele>344.2</ele>
        <time>2021-08-03T09:11:07Z</time>
      </trkpt>
      <trkpt lat="48.4567" lon="7.20793">
        <ele>344.1</ele>
        <time>2021-08-03T09:11:08Z</time>
      </trkpt>
      <trkpt lat="48.45673" lon="7.20788">
        <ele>344.1</ele>
        <time>2021-08-03T09:11:09Z</time>
      </trkpt>
      <trkpt lat="48.45678" lon="7.2078">
        <ele>344.2</ele>
        <time>2021-08-03T09:11:11Z</time>
      </trkpt>
      <trkpt lat="48.45682" lon="7.20776">
        <ele>344.2</ele>
        <time>2021-08-03T09:11:12Z</time>
      </trkpt>
      <trkpt lat="48.45686" lon="7.20775">
        <ele>344.2</ele>
        <time>2021-08-03T09:11:13Z</time>
      </trkpt>
      <trkpt lat="48.45692" lon="7.20775">
        <ele>344.1</ele>
        <time>2021-08-03T09:11:14Z</time>
      </trkpt>
      <trkpt lat="48.45701" lon="7.20778">
        <ele>344.1</ele>
        <time>2021-08-03T09:11:16Z</time>
      </trkpt>
      <trkpt lat="48.45706" lon="7.20781">
        <ele>344.5</ele>
        <time>2021-08-03T09:11:17Z</time>
      </trkpt>
      <trkpt lat="48.45712" lon="7.2079">
        <ele>344.8</ele>
        <time>2021-08-03T09:11:19Z</time>
      </trkpt>
      <trkpt lat="48.45715" lon="7.20797">
        <ele>344.9</ele>
        <time>2021-08-03T09:11:21Z</time>
      </trkpt>
      <trkpt lat="48.45716" lon="7.20802">
        <ele>345</ele>
        <time>2021-08-03T09:11:22Z</time>
      </trkpt>
      <trkpt lat="48.45717" lon="7.20808">
        <ele>345.2</ele>
        <time>2021-08-03T09:11:23Z</time>
      </trkpt>
      <trkpt lat="48.45718" lon="7.20812">
        <ele>345.3</ele>
        <time>2021-08-03T09:11:25Z</time>
      </trkpt>
      <trkpt lat="48.45718" lon="7.20817">
        <ele>345.3</ele>
        <time>2021-08-03T09:11:26Z</time>
      </trkpt>
      <trkpt lat="48.45719" lon="7.20821">
        <ele>345.4</ele>
        <time>2021-08-03T09:11:27Z</time>
      </trkpt>
      <trkpt lat="48.4572" lon="7.20823">
        <ele>345.4</ele>
        <time>2021-08-03T09:11:28Z</time>
      </trkpt>
      <trkpt lat="48.45723" lon="7.20827">
        <ele>345.5</ele>
        <time>2021-08-03T09:11:30Z</time>
      </trkpt>
      <trkpt lat="48.45724" lon="7.20828">
        <ele>345.5</ele>
        <time>2021-08-03T09:11:31Z</time>
      </trkpt>
      <trkpt lat="48.45727" lon="7.20833">
        <ele>345.6</ele>
        <time>2021-08-03T09:11:32Z</time>
      </trkpt>
      <trkpt lat="48.45729" lon="7.20838">
        <ele>345.7</ele>
        <time>2021-08-03T09:11:34Z</time>
      </trkpt>
      <trkpt lat="48.45731" lon="7.20841">
        <ele>345.8</ele>
        <time>2021-08-03T09:11:35Z</time>
      </trkpt>
      <trkpt lat="48.45737" lon="7.20849">
        <ele>346</ele>
        <time>2021-08-03T09:11:37Z</time>
      </trkpt>
      <trkpt lat="48.45739" lon="7.20852">
        <ele>346.1</ele>
        <time>2021-08-03T09:11:38Z</time>
      </trkpt>
      <trkpt lat="48.45745" lon="7.20858">
        <ele>346.3</ele>
        <time>2021-08-03T09:11:40Z</time>
      </trkpt>
      <trkpt lat="48.45747" lon="7.2086">
        <ele>346.3</ele>
        <time>2021-08-03T09:11:41Z</time>
      </trkpt>
      <trkpt lat="48.45752" lon="7.20862">
        <ele>346.4</ele>
        <time>2021-08-03T09:11:43Z</time>
      </trkpt>
      <trkpt lat="48.45751" lon="7.20861">
        <ele>346.4</ele>
        <time>2021-08-03T09:11:44Z</time>
      </trkpt>
      <trkpt lat="48.45749" lon="7.2086">
        <ele>346.4</ele>
        <time>2021-08-03T09:11:45Z</time>
      </trkpt>
      <trkpt lat="48.45748" lon="7.20861">
        <ele>346.4</ele>
        <time>2021-08-03T09:11:46Z</time>
      </trkpt>
      <trkpt lat="48.45746" lon="7.20863">
        <ele>346.4</ele>
        <time>2021-08-03T09:11:48Z</time>
      </trkpt>
      <trkpt lat="48.45746" lon="7.20865">
        <ele>346.5</ele>
        <time>2021-08-03T09:11:49Z</time>
      </trkpt>
      <trkpt lat="48.45746" lon="7.20867">
        <ele>346.5</ele>
        <time>2021-08-03T09:11:50Z</time>
      </trkpt>
      <trkpt lat="48.45746" lon="7.20869">
        <ele>346.5</ele>
        <time>2021-08-03T09:11:51Z</time>
      </trkpt>
      <trkpt lat="48.45747" lon="7.2087">
        <ele>346.5</ele>
        <time>2021-08-03T09:11:52Z</time>
      </trkpt>
      <trkpt lat="48.45747" lon="7.20873">
        <ele>346.5</ele>
        <time>2021-08-03T09:11:53Z</time>
      </trkpt>
      <trkpt lat="48.45749" lon="7.2088">
        <ele>347</ele>
        <time>2021-08-03T09:11:55Z</time>
      </trkpt>
      <trkpt lat="48.45749" lon="7.20884">
        <ele>347.1</ele>
        <time>2021-08-03T09:11:56Z</time>
      </trkpt>
      <trkpt lat="48.45751" lon="7.20893">
        <ele>347.3</ele>
        <time>2021-08-03T09:11:58Z</time>
      </trkpt>
      <trkpt lat="48.45751" lon="7.20898">
        <ele>347.5</ele>
        <time>2021-08-03T09:12:00Z</time>
      </trkpt>
      <trkpt lat="48.45751" lon="7.20904">
        <ele>347.6</ele>
        <time>2021-08-03T09:12:01Z</time>
      </trkpt>
      <trkpt lat="48.45751" lon="7.20906">
        <ele>347.7</ele>
        <time>2021-08-03T09:12:02Z</time>
      </trkpt>
      <trkpt lat="48.45751" lon="7.20911">
        <ele>347.8</ele>
        <time>2021-08-03T09:12:03Z</time>
      </trkpt>
      <trkpt lat="48.4575" lon="7.20913">
        <ele>347.9</ele>
        <time>2021-08-03T09:12:04Z</time>
      </trkpt>
      <trkpt lat="48.45749" lon="7.20918">
        <ele>348</ele>
        <time>2021-08-03T09:12:06Z</time>
      </trkpt>
      <trkpt lat="48.45747" lon="7.20922">
        <ele>348.2</ele>
        <time>2021-08-03T09:12:07Z</time>
      </trkpt>
      <trkpt lat="48.45747" lon="7.20923">
        <ele>348.2</ele>
        <time>2021-08-03T09:12:08Z</time>
      </trkpt>
      <trkpt lat="48.45745" lon="7.20927">
        <ele>348.3</ele>
        <time>2021-08-03T09:12:09Z</time>
      </trkpt>
      <trkpt lat="48.45744" lon="7.20928">
        <ele>348.4</ele>
        <time>2021-08-03T09:12:10Z</time>
      </trkpt>
      <trkpt lat="48.45743" lon="7.20933">
        <ele>348.5</ele>
        <time>2021-08-03T09:12:11Z</time>
      </trkpt>
      <trkpt lat="48.45742" lon="7.20934">
        <ele>348.6</ele>
        <time>2021-08-03T09:12:12Z</time>
      </trkpt>
      <trkpt lat="48.45742" lon="7.20938">
        <ele>348.7</ele>
        <time>2021-08-03T09:12:13Z</time>
      </trkpt>
      <trkpt lat="48.45742" lon="7.2094">
        <ele>348.8</ele>
        <time>2021-08-03T09:12:14Z</time>
      </trkpt>
      <trkpt lat="48.45742" lon="7.20945">
        <ele>348.9</ele>
        <time>2021-08-03T09:12:15Z</time>
      </trkpt>
      <trkpt lat="48.45742" lon="7.20947">
        <ele>349</ele>
        <time>2021-08-03T09:12:16Z</time>
      </trkpt>
      <trkpt lat="48.45741" lon="7.20952">
        <ele>349.1</ele>
        <time>2021-08-03T09:12:17Z</time>
      </trkpt>
      <trkpt lat="48.45741" lon="7.20954">
        <ele>349.2</ele>
        <time>2021-08-03T09:12:18Z</time>
      </trkpt>
      <trkpt lat="48.45739" lon="7.2096">
        <ele>349.4</ele>
        <time>2021-08-03T09:12:20Z</time>
      </trkpt>
      <trkpt lat="48.45738" lon="7.20966">
        <ele>349.6</ele>
        <time>2021-08-03T09:12:21Z</time>
      </trkpt>
      <trkpt lat="48.45737" lon="7.20973">
        <ele>349.8</ele>
        <time>2021-08-03T09:12:23Z</time>
      </trkpt>
      <trkpt lat="48.45737" lon="7.20977">
        <ele>350</ele>
        <time>2021-08-03T09:12:24Z</time>
      </trkpt>
      <trkpt lat="48.45736" lon="7.20981">
        <ele>350.1</ele>
        <time>2021-08-03T09:12:25Z</time>
      </trkpt>
      <trkpt lat="48.45736" lon="7.20987">
        <ele>350.3</ele>
        <time>2021-08-03T09:12:26Z</time>
      </trkpt>
      <trkpt lat="48.45736" lon="7.2099">
        <ele>350.4</ele>
        <time>2021-08-03T09:12:27Z</time>
      </trkpt>
      <trkpt lat="48.45737" lon="7.20995">
        <ele>350.6</ele>
        <time>2021-08-03T09:12:29Z</time>
      </trkpt>
      <trkpt lat="48.45738" lon="7.21001">
        <ele>350.7</ele>
        <time>2021-08-03T09:12:30Z</time>
      </trkpt>
      <trkpt lat="48.45738" lon="7.21003">
        <ele>350.8</ele>
        <time>2021-08-03T09:12:31Z</time>
      </trkpt>
      <trkpt lat="48.45738" lon="7.21008">
        <ele>350.9</ele>
        <time>2021-08-03T09:12:32Z</time>
      </trkpt>
      <trkpt lat="48.45738" lon="7.21009">
        <ele>351</ele>
        <time>2021-08-03T09:12:33Z</time>
      </trkpt>
      <trkpt lat="48.45737" lon="7.21012">
        <ele>351</ele>
        <time>2021-08-03T09:12:34Z</time>
      </trkpt>
      <trkpt lat="48.45734" lon="7.21016">
        <ele>351.2</ele>
        <time>2021-08-03T09:12:36Z</time>
      </trkpt>
      <trkpt lat="48.45733" lon="7.21018">
        <ele>351.3</ele>
        <time>2021-08-03T09:12:37Z</time>
      </trkpt>
      <trkpt lat="48.45732" lon="7.21019">
        <ele>351.3</ele>
        <time>2021-08-03T09:12:38Z</time>
      </trkpt>
      <trkpt lat="48.4573" lon="7.21022">
        <ele>351.4</ele>
        <time>2021-08-03T09:12:39Z</time>
      </trkpt>
      <trkpt lat="48.45729" lon="7.21023">
        <ele>351.5</ele>
        <time>2021-08-03T09:12:40Z</time>
      </trkpt>
      <trkpt lat="48.45726" lon="7.21027">
        <ele>351.6</ele>
        <time>2021-08-03T09:12:42Z</time>
      </trkpt>
      <trkpt lat="48.45723" lon="7.21033">
        <ele>351.8</ele>
        <time>2021-08-03T09:12:44Z</time>
      </trkpt>
      <trkpt lat="48.45719" lon="7.21039">
        <ele>352</ele>
        <time>2021-08-03T09:12:46Z</time>
      </trkpt>
      <trkpt lat="48.45717" lon="7.21042">
        <ele>352.1</ele>
        <time>2021-08-03T09:12:47Z</time>
      </trkpt>
      <trkpt lat="48.45713" lon="7.21048">
        <ele>352.2</ele>
        <time>2021-08-03T09:12:48Z</time>
      </trkpt>
      <trkpt lat="48.45711" lon="7.21051">
        <ele>352.3</ele>
        <time>2021-08-03T09:12:49Z</time>
      </trkpt>
      <trkpt lat="48.45709" lon="7.21056">
        <ele>352.4</ele>
        <time>2021-08-03T09:12:50Z</time>
      </trkpt>
      <trkpt lat="48.45707" lon="7.21059">
        <ele>352.5</ele>
        <time>2021-08-03T09:12:51Z</time>
      </trkpt>
      <trkpt lat="48.45706" lon="7.21063">
        <ele>352.6</ele>
        <time>2021-08-03T09:12:53Z</time>
      </trkpt>
      <trkpt lat="48.45705" lon="7.21067">
        <ele>352.6</ele>
        <time>2021-08-03T09:12:54Z</time>
      </trkpt>
      <trkpt lat="48.45704" lon="7.21073">
        <ele>352.7</ele>
        <time>2021-08-03T09:12:55Z</time>
      </trkpt>
      <trkpt lat="48.45704" lon="7.21074">
        <ele>352.8</ele>
        <time>2021-08-03T09:12:56Z</time>
      </trkpt>
      <trkpt lat="48.45703" lon="7.21079">
        <ele>352.8</ele>
        <time>2021-08-03T09:12:57Z</time>
      </trkpt>
      <trkpt lat="48.45701" lon="7.21084">
        <ele>352.9</ele>
        <time>2021-08-03T09:12:59Z</time>
      </trkpt>
      <trkpt lat="48.457" lon="7.21088">
        <ele>353</ele>
        <time>2021-08-03T09:13:00Z</time>
      </trkpt>
      <trkpt lat="48.45699" lon="7.21089">
        <ele>353</ele>
        <time>2021-08-03T09:13:01Z</time>
      </trkpt>
      <trkpt lat="48.45697" lon="7.21093">
        <ele>353.1</ele>
        <time>2021-08-03T09:13:02Z</time>
      </trkpt>
      <trkpt lat="48.45696" lon="7.21095">
        <ele>353.2</ele>
        <time>2021-08-03T09:13:03Z</time>
      </trkpt>
      <trkpt lat="48.45694" lon="7.21098">
        <ele>353.2</ele>
        <time>2021-08-03T09:13:04Z</time>
      </trkpt>
      <trkpt lat="48.45692" lon="7.21101">
        <ele>353.3</ele>
        <time>2021-08-03T09:13:05Z</time>
      </trkpt>
      <trkpt lat="48.4569" lon="7.21103">
        <ele>353.4</ele>
        <time>2021-08-03T09:13:06Z</time>
      </trkpt>
      <trkpt lat="48.45687" lon="7.21106">
        <ele>353.4</ele>
        <time>2021-08-03T09:13:07Z</time>
      </trkpt>
      <trkpt lat="48.45684" lon="7.21109">
        <ele>353.5</ele>
        <time>2021-08-03T09:13:08Z</time>
      </trkpt>
      <trkpt lat="48.45679" lon="7.21115">
        <ele>353.7</ele>
        <time>2021-08-03T09:13:10Z</time>
      </trkpt>
      <trkpt lat="48.45676" lon="7.21117">
        <ele>353.8</ele>
        <time>2021-08-03T09:13:11Z</time>
      </trkpt>
      <trkpt lat="48.45673" lon="7.21121">
        <ele>353.8</ele>
        <time>2021-08-03T09:13:12Z</time>
      </trkpt>
      <trkpt lat="48.45671" lon="7.21124">
        <ele>353.9</ele>
        <time>2021-08-03T09:13:13Z</time>
      </trkpt>
      <trkpt lat="48.45668" lon="7.21127">
        <ele>354</ele>
        <time>2021-08-03T09:13:14Z</time>
      </trkpt>
      <trkpt lat="48.45666" lon="7.21131">
        <ele>354.1</ele>
        <time>2021-08-03T09:13:15Z</time>
      </trkpt>
      <trkpt lat="48.45664" lon="7.21136">
        <ele>354.2</ele>
        <time>2021-08-03T09:13:17Z</time>
      </trkpt>
      <trkpt lat="48.45663" lon="7.21139">
        <ele>354.3</ele>
        <time>2021-08-03T09:13:18Z</time>
      </trkpt>
      <trkpt lat="48.45661" lon="7.21143">
        <ele>354.4</ele>
        <time>2021-08-03T09:13:19Z</time>
      </trkpt>
      <trkpt lat="48.4566" lon="7.21148">
        <ele>354.5</ele>
        <time>2021-08-03T09:13:20Z</time>
      </trkpt>
      <trkpt lat="48.4566" lon="7.21152">
        <ele>354.6</ele>
        <time>2021-08-03T09:13:22Z</time>
      </trkpt>
      <trkpt lat="48.45657" lon="7.21152">
        <ele>354.7</ele>
        <time>2021-08-03T09:13:23Z</time>
      </trkpt>
      <trkpt lat="48.45655" lon="7.21158">
        <ele>354.8</ele>
        <time>2021-08-03T09:13:25Z</time>
      </trkpt>
      <trkpt lat="48.45653" lon="7.21162">
        <ele>354.9</ele>
        <time>2021-08-03T09:13:26Z</time>
      </trkpt>
      <trkpt lat="48.4565" lon="7.21168">
        <ele>355.1</ele>
        <time>2021-08-03T09:13:28Z</time>
      </trkpt>
      <trkpt lat="48.45648" lon="7.21173">
        <ele>355.2</ele>
        <time>2021-08-03T09:13:29Z</time>
      </trkpt>
      <trkpt lat="48.45644" lon="7.21179">
        <ele>355.4</ele>
        <time>2021-08-03T09:13:31Z</time>
      </trkpt>
      <trkpt lat="48.45643" lon="7.21183">
        <ele>355.5</ele>
        <time>2021-08-03T09:13:32Z</time>
      </trkpt>
      <trkpt lat="48.4564" lon="7.21189">
        <ele>355.7</ele>
        <time>2021-08-03T09:13:34Z</time>
      </trkpt>
      <trkpt lat="48.45639" lon="7.21191">
        <ele>355.8</ele>
        <time>2021-08-03T09:13:36Z</time>
      </trkpt>
      <trkpt lat="48.45639" lon="7.21193">
        <ele>355.8</ele>
        <time>2021-08-03T09:13:37Z</time>
      </trkpt>
      <trkpt lat="48.45637" lon="7.21196">
        <ele>355.9</ele>
        <time>2021-08-03T09:13:38Z</time>
      </trkpt>
      <trkpt lat="48.45635" lon="7.21199">
        <ele>356.1</ele>
        <time>2021-08-03T09:13:40Z</time>
      </trkpt>
      <trkpt lat="48.45633" lon="7.21203">
        <ele>356.2</ele>
        <time>2021-08-03T09:13:41Z</time>
      </trkpt>
      <trkpt lat="48.45633" lon="7.21205">
        <ele>356.3</ele>
        <time>2021-08-03T09:13:42Z</time>
      </trkpt>
      <trkpt lat="48.45631" lon="7.21209">
        <ele>356.4</ele>
        <time>2021-08-03T09:13:43Z</time>
      </trkpt>
      <trkpt lat="48.45631" lon="7.21215">
        <ele>356.6</ele>
        <time>2021-08-03T09:13:44Z</time>
      </trkpt>
      <trkpt lat="48.45631" lon="7.21217">
        <ele>356.6</ele>
        <time>2021-08-03T09:13:45Z</time>
      </trkpt>
      <trkpt lat="48.45628" lon="7.21222">
        <ele>356.8</ele>
        <time>2021-08-03T09:13:47Z</time>
      </trkpt>
      <trkpt lat="48.45627" lon="7.21228">
        <ele>357</ele>
        <time>2021-08-03T09:13:49Z</time>
      </trkpt>
      <trkpt lat="48.45625" lon="7.21235">
        <ele>357.2</ele>
        <time>2021-08-03T09:13:51Z</time>
      </trkpt>
      <trkpt lat="48.45625" lon="7.21237">
        <ele>357.3</ele>
        <time>2021-08-03T09:13:52Z</time>
      </trkpt>
      <trkpt lat="48.45625" lon="7.21239">
        <ele>357.3</ele>
        <time>2021-08-03T09:13:53Z</time>
      </trkpt>
      <trkpt lat="48.45623" lon="7.21242">
        <ele>357.4</ele>
        <time>2021-08-03T09:13:54Z</time>
      </trkpt>
      <trkpt lat="48.45622" lon="7.21243">
        <ele>357.5</ele>
        <time>2021-08-03T09:13:56Z</time>
      </trkpt>
      <trkpt lat="48.45622" lon="7.21245">
        <ele>357.6</ele>
        <time>2021-08-03T09:13:57Z</time>
      </trkpt>
      <trkpt lat="48.45621" lon="7.21248">
        <ele>357.6</ele>
        <time>2021-08-03T09:13:58Z</time>
      </trkpt>
      <trkpt lat="48.4562" lon="7.21249">
        <ele>357.7</ele>
        <time>2021-08-03T09:13:59Z</time>
      </trkpt>
      <trkpt lat="48.45619" lon="7.21252">
        <ele>357.8</ele>
        <time>2021-08-03T09:14:00Z</time>
      </trkpt>
      <trkpt lat="48.45618" lon="7.21256">
        <ele>357.9</ele>
        <time>2021-08-03T09:14:01Z</time>
      </trkpt>
      <trkpt lat="48.45617" lon="7.21257">
        <ele>358</ele>
        <time>2021-08-03T09:14:02Z</time>
      </trkpt>
      <trkpt lat="48.45615" lon="7.21262">
        <ele>358.1</ele>
        <time>2021-08-03T09:14:04Z</time>
      </trkpt>
      <trkpt lat="48.45614" lon="7.21265">
        <ele>358.3</ele>
        <time>2021-08-03T09:14:05Z</time>
      </trkpt>
      <trkpt lat="48.45612" lon="7.21269">
        <ele>358.4</ele>
        <time>2021-08-03T09:14:06Z</time>
      </trkpt>
      <trkpt lat="48.4561" lon="7.21273">
        <ele>358.6</ele>
        <time>2021-08-03T09:14:07Z</time>
      </trkpt>
      <trkpt lat="48.45608" lon="7.21276">
        <ele>358.7</ele>
        <time>2021-08-03T09:14:08Z</time>
      </trkpt>
      <trkpt lat="48.45606" lon="7.21278">
        <ele>358.8</ele>
        <time>2021-08-03T09:14:09Z</time>
      </trkpt>
      <trkpt lat="48.45603" lon="7.2128">
        <ele>359</ele>
        <time>2021-08-03T09:14:10Z</time>
      </trkpt>
      <trkpt lat="48.45602" lon="7.2128">
        <ele>359</ele>
        <time>2021-08-03T09:14:11Z</time>
      </trkpt>
      <trkpt lat="48.45601" lon="7.2128">
        <ele>359.1</ele>
        <time>2021-08-03T09:14:12Z</time>
      </trkpt>
      <trkpt lat="48.45598" lon="7.21284">
        <ele>359.3</ele>
        <time>2021-08-03T09:14:14Z</time>
      </trkpt>
      <trkpt lat="48.45596" lon="7.21288">
        <ele>359.5</ele>
        <time>2021-08-03T09:14:15Z</time>
      </trkpt>
      <trkpt lat="48.45593" lon="7.21293">
        <ele>359.6</ele>
        <time>2021-08-03T09:14:16Z</time>
      </trkpt>
      <trkpt lat="48.45593" lon="7.21295">
        <ele>359.7</ele>
        <time>2021-08-03T09:14:17Z</time>
      </trkpt>
      <trkpt lat="48.45591" lon="7.21299">
        <ele>359.8</ele>
        <time>2021-08-03T09:14:19Z</time>
      </trkpt>
      <trkpt lat="48.45592" lon="7.213">
        <ele>359.8</ele>
        <time>2021-08-03T09:14:20Z</time>
      </trkpt>
      <trkpt lat="48.45592" lon="7.21307">
        <ele>359.9</ele>
        <time>2021-08-03T09:14:22Z</time>
      </trkpt>
      <trkpt lat="48.45591" lon="7.2131">
        <ele>360</ele>
        <time>2021-08-03T09:14:23Z</time>
      </trkpt>
      <trkpt lat="48.45589" lon="7.21315">
        <ele>360.1</ele>
        <time>2021-08-03T09:14:25Z</time>
      </trkpt>
      <trkpt lat="48.45587" lon="7.21321">
        <ele>360.3</ele>
        <time>2021-08-03T09:14:27Z</time>
      </trkpt>
      <trkpt lat="48.45585" lon="7.21327">
        <ele>360.5</ele>
        <time>2021-08-03T09:14:29Z</time>
      </trkpt>
      <trkpt lat="48.45584" lon="7.21331">
        <ele>360.6</ele>
        <time>2021-08-03T09:14:30Z</time>
      </trkpt>
      <trkpt lat="48.45582" lon="7.21334">
        <ele>360.7</ele>
        <time>2021-08-03T09:14:31Z</time>
      </trkpt>
      <trkpt lat="48.45581" lon="7.21339">
        <ele>360.9</ele>
        <time>2021-08-03T09:14:33Z</time>
      </trkpt>
      <trkpt lat="48.45579" lon="7.21345">
        <ele>361.1</ele>
        <time>2021-08-03T09:14:34Z</time>
      </trkpt>
      <trkpt lat="48.45578" lon="7.21347">
        <ele>361.2</ele>
        <time>2021-08-03T09:14:35Z</time>
      </trkpt>
      <trkpt lat="48.45575" lon="7.21352">
        <ele>361.4</ele>
        <time>2021-08-03T09:14:37Z</time>
      </trkpt>
      <trkpt lat="48.45572" lon="7.21357">
        <ele>361.5</ele>
        <time>2021-08-03T09:14:38Z</time>
      </trkpt>
      <trkpt lat="48.4557" lon="7.21361">
        <ele>361.7</ele>
        <time>2021-08-03T09:14:40Z</time>
      </trkpt>
      <trkpt lat="48.45567" lon="7.21364">
        <ele>361.9</ele>
        <time>2021-08-03T09:14:41Z</time>
      </trkpt>
      <trkpt lat="48.45566" lon="7.21366">
        <ele>361.9</ele>
        <time>2021-08-03T09:14:42Z</time>
      </trkpt>
      <trkpt lat="48.45564" lon="7.21369">
        <ele>362.1</ele>
        <time>2021-08-03T09:14:43Z</time>
      </trkpt>
      <trkpt lat="48.45563" lon="7.2137">
        <ele>362.1</ele>
        <time>2021-08-03T09:14:44Z</time>
      </trkpt>
      <trkpt lat="48.45561" lon="7.21372">
        <ele>362.3</ele>
        <time>2021-08-03T09:14:45Z</time>
      </trkpt>
      <trkpt lat="48.45558" lon="7.21375">
        <ele>362.4</ele>
        <time>2021-08-03T09:14:47Z</time>
      </trkpt>
      <trkpt lat="48.45557" lon="7.21376">
        <ele>362.5</ele>
        <time>2021-08-03T09:14:48Z</time>
      </trkpt>
      <trkpt lat="48.45556" lon="7.21378">
        <ele>362.6</ele>
        <time>2021-08-03T09:14:49Z</time>
      </trkpt>
      <trkpt lat="48.45556" lon="7.2138">
        <ele>362.7</ele>
        <time>2021-08-03T09:14:50Z</time>
      </trkpt>
      <trkpt lat="48.45554" lon="7.21385">
        <ele>362.8</ele>
        <time>2021-08-03T09:14:52Z</time>
      </trkpt>
      <trkpt lat="48.45553" lon="7.21386">
        <ele>362.9</ele>
        <time>2021-08-03T09:14:53Z</time>
      </trkpt>
      <trkpt lat="48.4555" lon="7.21391">
        <ele>363.1</ele>
        <time>2021-08-03T09:14:55Z</time>
      </trkpt>
      <trkpt lat="48.45549" lon="7.21392">
        <ele>363.1</ele>
        <time>2021-08-03T09:14:56Z</time>
      </trkpt>
      <trkpt lat="48.45548" lon="7.21394">
        <ele>363.2</ele>
        <time>2021-08-03T09:14:57Z</time>
      </trkpt>
      <trkpt lat="48.45545" lon="7.21398">
        <ele>363.4</ele>
        <time>2021-08-03T09:14:59Z</time>
      </trkpt>
      <trkpt lat="48.45542" lon="7.21401">
        <ele>363.6</ele>
        <time>2021-08-03T09:15:00Z</time>
      </trkpt>
      <trkpt lat="48.45541" lon="7.21402">
        <ele>363.6</ele>
        <time>2021-08-03T09:15:01Z</time>
      </trkpt>
      <trkpt lat="48.45538" lon="7.21406">
        <ele>363.8</ele>
        <time>2021-08-03T09:15:03Z</time>
      </trkpt>
      <trkpt lat="48.45537" lon="7.21408">
        <ele>363.9</ele>
        <time>2021-08-03T09:15:04Z</time>
      </trkpt>
      <trkpt lat="48.45536" lon="7.21411">
        <ele>364</ele>
        <time>2021-08-03T09:15:06Z</time>
      </trkpt>
      <trkpt lat="48.45533" lon="7.21413">
        <ele>364.1</ele>
        <time>2021-08-03T09:15:07Z</time>
      </trkpt>
      <trkpt lat="48.45533" lon="7.21414">
        <ele>364.1</ele>
        <time>2021-08-03T09:15:08Z</time>
      </trkpt>
      <trkpt lat="48.45528" lon="7.21416">
        <ele>364.3</ele>
        <time>2021-08-03T09:15:10Z</time>
      </trkpt>
      <trkpt lat="48.45527" lon="7.21417">
        <ele>364.4</ele>
        <time>2021-08-03T09:15:11Z</time>
      </trkpt>
      <trkpt lat="48.45526" lon="7.21418">
        <ele>364.4</ele>
        <time>2021-08-03T09:15:12Z</time>
      </trkpt>
      <trkpt lat="48.45522" lon="7.21419">
        <ele>364.6</ele>
        <time>2021-08-03T09:15:14Z</time>
      </trkpt>
      <trkpt lat="48.4552" lon="7.2142">
        <ele>364.7</ele>
        <time>2021-08-03T09:15:15Z</time>
      </trkpt>
      <trkpt lat="48.45519" lon="7.21421">
        <ele>364.8</ele>
        <time>2021-08-03T09:15:16Z</time>
      </trkpt>
      <trkpt lat="48.45517" lon="7.21422">
        <ele>364.9</ele>
        <time>2021-08-03T09:15:17Z</time>
      </trkpt>
      <trkpt lat="48.45513" lon="7.21425">
        <ele>365</ele>
        <time>2021-08-03T09:15:19Z</time>
      </trkpt>
      <trkpt lat="48.45509" lon="7.21427">
        <ele>365.2</ele>
        <time>2021-08-03T09:15:21Z</time>
      </trkpt>
      <trkpt lat="48.45506" lon="7.21429">
        <ele>365.3</ele>
        <time>2021-08-03T09:15:22Z</time>
      </trkpt>
      <trkpt lat="48.45505" lon="7.2143">
        <ele>365.4</ele>
        <time>2021-08-03T09:15:23Z</time>
      </trkpt>
      <trkpt lat="48.45502" lon="7.21432">
        <ele>365.5</ele>
        <time>2021-08-03T09:15:25Z</time>
      </trkpt>
      <trkpt lat="48.45499" lon="7.21434">
        <ele>365.6</ele>
        <time>2021-08-03T09:15:26Z</time>
      </trkpt>
      <trkpt lat="48.45496" lon="7.21437">
        <ele>365.8</ele>
        <time>2021-08-03T09:15:28Z</time>
      </trkpt>
      <trkpt lat="48.45493" lon="7.2144">
        <ele>366</ele>
        <time>2021-08-03T09:15:30Z</time>
      </trkpt>
      <trkpt lat="48.4549" lon="7.21441">
        <ele>366.1</ele>
        <time>2021-08-03T09:15:31Z</time>
      </trkpt>
      <trkpt lat="48.45487" lon="7.21441">
        <ele>366.2</ele>
        <time>2021-08-03T09:15:33Z</time>
      </trkpt>
      <trkpt lat="48.45484" lon="7.21443">
        <ele>366.3</ele>
        <time>2021-08-03T09:15:34Z</time>
      </trkpt>
      <trkpt lat="48.45479" lon="7.21445">
        <ele>366.5</ele>
        <time>2021-08-03T09:15:36Z</time>
      </trkpt>
      <trkpt lat="48.45476" lon="7.21446">
        <ele>366.7</ele>
        <time>2021-08-03T09:15:37Z</time>
      </trkpt>
      <trkpt lat="48.45474" lon="7.21447">
        <ele>366.8</ele>
        <time>2021-08-03T09:15:38Z</time>
      </trkpt>
      <trkpt lat="48.4547" lon="7.21449">
        <ele>366.9</ele>
        <time>2021-08-03T09:15:40Z</time>
      </trkpt>
      <trkpt lat="48.45467" lon="7.21451">
        <ele>367.1</ele>
        <time>2021-08-03T09:15:41Z</time>
      </trkpt>
      <trkpt lat="48.45463" lon="7.21455">
        <ele>367.2</ele>
        <time>2021-08-03T09:15:43Z</time>
      </trkpt>
      <trkpt lat="48.45459" lon="7.21457">
        <ele>367.4</ele>
        <time>2021-08-03T09:15:45Z</time>
      </trkpt>
      <trkpt lat="48.45457" lon="7.2146">
        <ele>367.5</ele>
        <time>2021-08-03T09:15:46Z</time>
      </trkpt>
      <trkpt lat="48.45454" lon="7.21462">
        <ele>367.6</ele>
        <time>2021-08-03T09:15:47Z</time>
      </trkpt>
      <trkpt lat="48.45453" lon="7.21463">
        <ele>367.6</ele>
        <time>2021-08-03T09:15:48Z</time>
      </trkpt>
      <trkpt lat="48.45449" lon="7.21466">
        <ele>367.8</ele>
        <time>2021-08-03T09:15:50Z</time>
      </trkpt>
      <trkpt lat="48.45447" lon="7.21468">
        <ele>367.9</ele>
        <time>2021-08-03T09:15:51Z</time>
      </trkpt>
      <trkpt lat="48.45443" lon="7.21471">
        <ele>368</ele>
        <time>2021-08-03T09:15:52Z</time>
      </trkpt>
      <trkpt lat="48.45442" lon="7.21472">
        <ele>368</ele>
        <time>2021-08-03T09:15:53Z</time>
      </trkpt>
      <trkpt lat="48.45437" lon="7.21474">
        <ele>368.2</ele>
        <time>2021-08-03T09:15:55Z</time>
      </trkpt>
      <trkpt lat="48.45434" lon="7.21476">
        <ele>368.3</ele>
        <time>2021-08-03T09:15:56Z</time>
      </trkpt>
      <trkpt lat="48.45431" lon="7.21477">
        <ele>368.4</ele>
        <time>2021-08-03T09:15:57Z</time>
      </trkpt>
      <trkpt lat="48.45426" lon="7.21479">
        <ele>368.5</ele>
        <time>2021-08-03T09:15:59Z</time>
      </trkpt>
      <trkpt lat="48.4542" lon="7.21483">
        <ele>368.7</ele>
        <time>2021-08-03T09:16:01Z</time>
      </trkpt>
      <trkpt lat="48.45416" lon="7.21485">
        <ele>368.8</ele>
        <time>2021-08-03T09:16:02Z</time>
      </trkpt>
      <trkpt lat="48.45411" lon="7.21488">
        <ele>369</ele>
        <time>2021-08-03T09:16:04Z</time>
      </trkpt>
      <trkpt lat="48.45406" lon="7.21492">
        <ele>369.1</ele>
        <time>2021-08-03T09:16:05Z</time>
      </trkpt>
      <trkpt lat="48.454" lon="7.21496">
        <ele>369.3</ele>
        <time>2021-08-03T09:16:07Z</time>
      </trkpt>
      <trkpt lat="48.45396" lon="7.21499">
        <ele>369.4</ele>
        <time>2021-08-03T09:16:08Z</time>
      </trkpt>
      <trkpt lat="48.45391" lon="7.21504">
        <ele>369.6</ele>
        <time>2021-08-03T09:16:10Z</time>
      </trkpt>
      <trkpt lat="48.45388" lon="7.21506">
        <ele>369.7</ele>
        <time>2021-08-03T09:16:11Z</time>
      </trkpt>
      <trkpt lat="48.45383" lon="7.21511">
        <ele>369.9</ele>
        <time>2021-08-03T09:16:13Z</time>
      </trkpt>
      <trkpt lat="48.45381" lon="7.21513">
        <ele>370</ele>
        <time>2021-08-03T09:16:14Z</time>
      </trkpt>
      <trkpt lat="48.45377" lon="7.21517">
        <ele>370.2</ele>
        <time>2021-08-03T09:16:16Z</time>
      </trkpt>
      <trkpt lat="48.45375" lon="7.2152">
        <ele>370.3</ele>
        <time>2021-08-03T09:16:17Z</time>
      </trkpt>
      <trkpt lat="48.45371" lon="7.21524">
        <ele>370.5</ele>
        <time>2021-08-03T09:16:19Z</time>
      </trkpt>
      <trkpt lat="48.45369" lon="7.21525">
        <ele>370.5</ele>
        <time>2021-08-03T09:16:20Z</time>
      </trkpt>
      <trkpt lat="48.45365" lon="7.21528">
        <ele>370.6</ele>
        <time>2021-08-03T09:16:22Z</time>
      </trkpt>
      <trkpt lat="48.45362" lon="7.21529">
        <ele>370.6</ele>
        <time>2021-08-03T09:16:24Z</time>
      </trkpt>
      <trkpt lat="48.45358" lon="7.21531">
        <ele>370.6</ele>
        <time>2021-08-03T09:16:25Z</time>
      </trkpt>
      <trkpt lat="48.45357" lon="7.21532">
        <ele>370.7</ele>
        <time>2021-08-03T09:16:26Z</time>
      </trkpt>
      <trkpt lat="48.45354" lon="7.21534">
        <ele>370.8</ele>
        <time>2021-08-03T09:16:27Z</time>
      </trkpt>
      <trkpt lat="48.45354" lon="7.21535">
        <ele>370.8</ele>
        <time>2021-08-03T09:16:28Z</time>
      </trkpt>
      <trkpt lat="48.45353" lon="7.21541">
        <ele>370.9</ele>
        <time>2021-08-03T09:16:30Z</time>
      </trkpt>
      <trkpt lat="48.45354" lon="7.21542">
        <ele>370.9</ele>
        <time>2021-08-03T09:16:31Z</time>
      </trkpt>
      <trkpt lat="48.45354" lon="7.21544">
        <ele>371.5</ele>
        <time>2021-08-03T09:16:33Z</time>
      </trkpt>
      <trkpt lat="48.45354" lon="7.21545">
        <ele>371.5</ele>
        <time>2021-08-03T09:16:34Z</time>
      </trkpt>
      <trkpt lat="48.45355" lon="7.21547">
        <ele>371.5</ele>
        <time>2021-08-03T09:16:35Z</time>
      </trkpt>
      <trkpt lat="48.45356" lon="7.21549">
        <ele>371.5</ele>
        <time>2021-08-03T09:16:36Z</time>
      </trkpt>
      <trkpt lat="48.45359" lon="7.21552">
        <ele>371.5</ele>
        <time>2021-08-03T09:16:37Z</time>
      </trkpt>
      <trkpt lat="48.45359" lon="7.21553">
        <ele>371.5</ele>
        <time>2021-08-03T09:16:39Z</time>
      </trkpt>
      <trkpt lat="48.4536" lon="7.21554">
        <ele>371.5</ele>
        <time>2021-08-03T09:16:40Z</time>
      </trkpt>
      <trkpt lat="48.45361" lon="7.21555">
        <ele>373.3</ele>
        <time>2021-08-03T09:16:41Z</time>
      </trkpt>
      <trkpt lat="48.45362" lon="7.21556">
        <ele>373.3</ele>
        <time>2021-08-03T09:16:42Z</time>
      </trkpt>
      <trkpt lat="48.45365" lon="7.21556">
        <ele>373.6</ele>
        <time>2021-08-03T09:16:43Z</time>
      </trkpt>
      <trkpt lat="48.45366" lon="7.21556">
        <ele>373.7</ele>
        <time>2021-08-03T09:16:45Z</time>
      </trkpt>
      <trkpt lat="48.45368" lon="7.21556">
        <ele>373.7</ele>
        <time>2021-08-03T09:16:47Z</time>
      </trkpt>
      <trkpt lat="48.45369" lon="7.21555">
        <ele>373.9</ele>
        <time>2021-08-03T09:16:48Z</time>
      </trkpt>
      <trkpt lat="48.4537" lon="7.21554">
        <ele>374</ele>
        <time>2021-08-03T09:16:49Z</time>
      </trkpt>
      <trkpt lat="48.45372" lon="7.21553">
        <ele>374.1</ele>
        <time>2021-08-03T09:16:50Z</time>
      </trkpt>
      <trkpt lat="48.45373" lon="7.21552">
        <ele>374.2</ele>
        <time>2021-08-03T09:16:51Z</time>
      </trkpt>
      <trkpt lat="48.45374" lon="7.21551">
        <ele>374.3</ele>
        <time>2021-08-03T09:16:53Z</time>
      </trkpt>
      <trkpt lat="48.45375" lon="7.2155">
        <ele>374.4</ele>
        <time>2021-08-03T09:16:54Z</time>
      </trkpt>
      <trkpt lat="48.45377" lon="7.2155">
        <ele>374.5</ele>
        <time>2021-08-03T09:16:55Z</time>
      </trkpt>
      <trkpt lat="48.45378" lon="7.2155">
        <ele>374.6</ele>
        <time>2021-08-03T09:16:56Z</time>
      </trkpt>
      <trkpt lat="48.45379" lon="7.21549">
        <ele>374.7</ele>
        <time>2021-08-03T09:16:57Z</time>
      </trkpt>
      <trkpt lat="48.4538" lon="7.21548">
        <ele>374.8</ele>
        <time>2021-08-03T09:16:58Z</time>
      </trkpt>
      <trkpt lat="48.45381" lon="7.21548">
        <ele>374.9</ele>
        <time>2021-08-03T09:16:59Z</time>
      </trkpt>
      <trkpt lat="48.45382" lon="7.21548">
        <ele>375</ele>
        <time>2021-08-03T09:17:00Z</time>
      </trkpt>
      <trkpt lat="48.45383" lon="7.21548">
        <ele>375.1</ele>
        <time>2021-08-03T09:17:01Z</time>
      </trkpt>
      <trkpt lat="48.45384" lon="7.21549">
        <ele>375.2</ele>
        <time>2021-08-03T09:17:02Z</time>
      </trkpt>
      <trkpt lat="48.45385" lon="7.21549">
        <ele>375.3</ele>
        <time>2021-08-03T09:17:03Z</time>
      </trkpt>
      <trkpt lat="48.45389" lon="7.21549">
        <ele>375.6</ele>
        <time>2021-08-03T09:17:05Z</time>
      </trkpt>
      <trkpt lat="48.4539" lon="7.2155">
        <ele>375.7</ele>
        <time>2021-08-03T09:17:06Z</time>
      </trkpt>
      <trkpt lat="48.45393" lon="7.21551">
        <ele>376</ele>
        <time>2021-08-03T09:17:07Z</time>
      </trkpt>
      <trkpt lat="48.45394" lon="7.21551">
        <ele>376.1</ele>
        <time>2021-08-03T09:17:08Z</time>
      </trkpt>
      <trkpt lat="48.45396" lon="7.21552">
        <ele>376.2</ele>
        <time>2021-08-03T09:17:09Z</time>
      </trkpt>
      <trkpt lat="48.45396" lon="7.21552">
        <ele>376.2</ele>
        <time>2021-08-03T09:17:10Z</time>
      </trkpt>
      <trkpt lat="48.45396" lon="7.21551">
        <ele>376.3</ele>
        <time>2021-08-03T09:17:12Z</time>
      </trkpt>
      <trkpt lat="48.45398" lon="7.2155">
        <ele>376.4</ele>
        <time>2021-08-03T09:17:13Z</time>
      </trkpt>
      <trkpt lat="48.454" lon="7.2155">
        <ele>376.7</ele>
        <time>2021-08-03T09:17:14Z</time>
      </trkpt>
      <trkpt lat="48.45401" lon="7.2155">
        <ele>376.8</ele>
        <time>2021-08-03T09:17:15Z</time>
      </trkpt>
      <trkpt lat="48.45403" lon="7.21549">
        <ele>376.9</ele>
        <time>2021-08-03T09:17:16Z</time>
      </trkpt>
      <trkpt lat="48.45404" lon="7.21549">
        <ele>377</ele>
        <time>2021-08-03T09:17:17Z</time>
      </trkpt>
      <trkpt lat="48.45409" lon="7.21549">
        <ele>377.5</ele>
        <time>2021-08-03T09:17:19Z</time>
      </trkpt>
      <trkpt lat="48.4541" lon="7.21549">
        <ele>377.6</ele>
        <time>2021-08-03T09:17:20Z</time>
      </trkpt>
      <trkpt lat="48.45412" lon="7.21549">
        <ele>377.7</ele>
        <time>2021-08-03T09:17:21Z</time>
      </trkpt>
      <trkpt lat="48.45415" lon="7.21548">
        <ele>378</ele>
        <time>2021-08-03T09:17:22Z</time>
      </trkpt>
      <trkpt lat="48.45416" lon="7.21548">
        <ele>378.1</ele>
        <time>2021-08-03T09:17:23Z</time>
      </trkpt>
      <trkpt lat="48.45418" lon="7.21546">
        <ele>378.2</ele>
        <time>2021-08-03T09:17:25Z</time>
      </trkpt>
      <trkpt lat="48.45418" lon="7.21545">
        <ele>378.3</ele>
        <time>2021-08-03T09:17:26Z</time>
      </trkpt>
      <trkpt lat="48.45418" lon="7.21544">
        <ele>378.4</ele>
        <time>2021-08-03T09:17:27Z</time>
      </trkpt>
      <trkpt lat="48.45418" lon="7.21543">
        <ele>378.4</ele>
        <time>2021-08-03T09:17:28Z</time>
      </trkpt>
      <trkpt lat="48.4542" lon="7.21542">
        <ele>378.5</ele>
        <time>2021-08-03T09:17:29Z</time>
      </trkpt>
      <trkpt lat="48.4542" lon="7.21542">
        <ele>378.5</ele>
        <time>2021-08-03T09:17:30Z</time>
      </trkpt>
      <trkpt lat="48.4542" lon="7.21542">
        <ele>378.6</ele>
        <time>2021-08-03T09:17:31Z</time>
      </trkpt>
      <trkpt lat="48.45421" lon="7.21542">
        <ele>378.7</ele>
        <time>2021-08-03T09:17:33Z</time>
      </trkpt>
      <trkpt lat="48.45422" lon="7.21541">
        <ele>378.7</ele>
        <time>2021-08-03T09:17:34Z</time>
      </trkpt>
      <trkpt lat="48.45422" lon="7.21541">
        <ele>378.8</ele>
        <time>2021-08-03T09:17:35Z</time>
      </trkpt>
      <trkpt lat="48.45423" lon="7.21541">
        <ele>378.8</ele>
        <time>2021-08-03T09:17:36Z</time>
      </trkpt>
      <trkpt lat="48.45423" lon="7.21541">
        <ele>378.8</ele>
        <time>2021-08-03T09:17:37Z</time>
      </trkpt>
      <trkpt lat="48.45423" lon="7.2154">
        <ele>378.8</ele>
        <time>2021-08-03T09:17:39Z</time>
      </trkpt>
      <trkpt lat="48.45455" lon="7.21543">
        <ele>381.6</ele>
        <time>2021-08-03T09:18:04Z</time>
      </trkpt>
      <trkpt lat="48.45456" lon="7.21544">
        <ele>381.8</ele>
        <time>2021-08-03T09:18:05Z</time>
      </trkpt>
      <trkpt lat="48.45458" lon="7.21545">
        <ele>381.9</ele>
        <time>2021-08-03T09:18:07Z</time>
      </trkpt>
      <trkpt lat="48.4546" lon="7.21545">
        <ele>382.1</ele>
        <time>2021-08-03T09:18:08Z</time>
      </trkpt>
      <trkpt lat="48.45463" lon="7.21546">
        <ele>382.4</ele>
        <time>2021-08-03T09:18:10Z</time>
      </trkpt>
      <trkpt lat="48.45466" lon="7.21546">
        <ele>382.7</ele>
        <time>2021-08-03T09:18:11Z</time>
      </trkpt>
      <trkpt lat="48.45468" lon="7.21547">
        <ele>382.9</ele>
        <time>2021-08-03T09:18:12Z</time>
      </trkpt>
      <trkpt lat="48.45471" lon="7.21548">
        <ele>383.3</ele>
        <time>2021-08-03T09:18:14Z</time>
      </trkpt>
      <trkpt lat="48.45474" lon="7.21549">
        <ele>383.6</ele>
        <time>2021-08-03T09:18:15Z</time>
      </trkpt>
      <trkpt lat="48.45475" lon="7.2155">
        <ele>383.7</ele>
        <time>2021-08-03T09:18:16Z</time>
      </trkpt>
      <trkpt lat="48.45477" lon="7.2155">
        <ele>383.9</ele>
        <time>2021-08-03T09:18:17Z</time>
      </trkpt>
      <trkpt lat="48.4548" lon="7.21549">
        <ele>384.3</ele>
        <time>2021-08-03T09:18:19Z</time>
      </trkpt>
      <trkpt lat="48.45482" lon="7.21548">
        <ele>384.5</ele>
        <time>2021-08-03T09:18:21Z</time>
      </trkpt>
      <trkpt lat="48.45483" lon="7.21547">
        <ele>384.6</ele>
        <time>2021-08-03T09:18:22Z</time>
      </trkpt>
      <trkpt lat="48.45486" lon="7.21546">
        <ele>384.9</ele>
        <time>2021-08-03T09:18:23Z</time>
      </trkpt>
      <trkpt lat="48.45491" lon="7.21545">
        <ele>385.5</ele>
        <time>2021-08-03T09:18:25Z</time>
      </trkpt>
      <trkpt lat="48.45492" lon="7.21545">
        <ele>385.6</ele>
        <time>2021-08-03T09:18:26Z</time>
      </trkpt>
      <trkpt lat="48.45494" lon="7.21545">
        <ele>385.8</ele>
        <time>2021-08-03T09:18:27Z</time>
      </trkpt>
      <trkpt lat="48.45497" lon="7.21546">
        <ele>386.1</ele>
        <time>2021-08-03T09:18:28Z</time>
      </trkpt>
      <trkpt lat="48.45497" lon="7.21546">
        <ele>386.2</ele>
        <time>2021-08-03T09:18:29Z</time>
      </trkpt>
      <trkpt lat="48.45502" lon="7.21547">
        <ele>386.7</ele>
        <time>2021-08-03T09:18:31Z</time>
      </trkpt>
      <trkpt lat="48.45503" lon="7.21548">
        <ele>386.9</ele>
        <time>2021-08-03T09:18:32Z</time>
      </trkpt>
      <trkpt lat="48.45505" lon="7.21549">
        <ele>387.1</ele>
        <time>2021-08-03T09:18:33Z</time>
      </trkpt>
      <trkpt lat="48.45508" lon="7.21551">
        <ele>387.5</ele>
        <time>2021-08-03T09:18:34Z</time>
      </trkpt>
      <trkpt lat="48.45509" lon="7.21552">
        <ele>387.6</ele>
        <time>2021-08-03T09:18:35Z</time>
      </trkpt>
      <trkpt lat="48.45511" lon="7.21554">
        <ele>387.9</ele>
        <time>2021-08-03T09:18:37Z</time>
      </trkpt>
      <trkpt lat="48.45512" lon="7.21554">
        <ele>388</ele>
        <time>2021-08-03T09:18:38Z</time>
      </trkpt>
      <trkpt lat="48.45514" lon="7.21552">
        <ele>388.2</ele>
        <time>2021-08-03T09:18:40Z</time>
      </trkpt>
      <trkpt lat="48.45514" lon="7.21551">
        <ele>388.3</ele>
        <time>2021-08-03T09:18:41Z</time>
      </trkpt>
      <trkpt lat="48.45513" lon="7.21551">
        <ele>388.5</ele>
        <time>2021-08-03T09:18:43Z</time>
      </trkpt>
      <trkpt lat="48.45514" lon="7.21551">
        <ele>388.6</ele>
        <time>2021-08-03T09:18:44Z</time>
      </trkpt>
      <trkpt lat="48.45516" lon="7.2155">
        <ele>388.8</ele>
        <time>2021-08-03T09:18:46Z</time>
      </trkpt>
      <trkpt lat="48.45517" lon="7.2155">
        <ele>388.9</ele>
        <time>2021-08-03T09:18:47Z</time>
      </trkpt>
      <trkpt lat="48.45518" lon="7.21551">
        <ele>389</ele>
        <time>2021-08-03T09:18:49Z</time>
      </trkpt>
      <trkpt lat="48.4552" lon="7.21551">
        <ele>389.3</ele>
        <time>2021-08-03T09:18:50Z</time>
      </trkpt>
      <trkpt lat="48.45521" lon="7.21551">
        <ele>389.4</ele>
        <time>2021-08-03T09:18:51Z</time>
      </trkpt>
      <trkpt lat="48.45522" lon="7.21551">
        <ele>389.5</ele>
        <time>2021-08-03T09:18:52Z</time>
      </trkpt>
      <trkpt lat="48.45523" lon="7.2155">
        <ele>389.6</ele>
        <time>2021-08-03T09:18:53Z</time>
      </trkpt>
      <trkpt lat="48.45523" lon="7.2155">
        <ele>389.7</ele>
        <time>2021-08-03T09:18:54Z</time>
      </trkpt>
      <trkpt lat="48.45524" lon="7.2155">
        <ele>389.7</ele>
        <time>2021-08-03T09:18:56Z</time>
      </trkpt>
      <trkpt lat="48.45524" lon="7.21549">
        <ele>389.8</ele>
        <time>2021-08-03T09:18:57Z</time>
      </trkpt>
      <trkpt lat="48.45525" lon="7.21549">
        <ele>389.9</ele>
        <time>2021-08-03T09:18:58Z</time>
      </trkpt>
      <trkpt lat="48.45526" lon="7.21549">
        <ele>389.9</ele>
        <time>2021-08-03T09:18:59Z</time>
      </trkpt>
      <trkpt lat="48.45526" lon="7.21549">
        <ele>390</ele>
        <time>2021-08-03T09:19:00Z</time>
      </trkpt>
      <trkpt lat="48.45528" lon="7.21547">
        <ele>390.1</ele>
        <time>2021-08-03T09:19:02Z</time>
      </trkpt>
      <trkpt lat="48.45539" lon="7.21549">
        <ele>390.6</ele>
        <time>2021-08-03T09:19:13Z</time>
      </trkpt>
      <trkpt lat="48.4554" lon="7.21551">
        <ele>390.7</ele>
        <time>2021-08-03T09:19:14Z</time>
      </trkpt>
      <trkpt lat="48.45541" lon="7.21551">
        <ele>390.7</ele>
        <time>2021-08-03T09:19:15Z</time>
      </trkpt>
      <trkpt lat="48.45542" lon="7.2155">
        <ele>390.8</ele>
        <time>2021-08-03T09:19:16Z</time>
      </trkpt>
      <trkpt lat="48.45544" lon="7.21549">
        <ele>390.8</ele>
        <time>2021-08-03T09:19:17Z</time>
      </trkpt>
      <trkpt lat="48.45545" lon="7.21548">
        <ele>390.9</ele>
        <time>2021-08-03T09:19:18Z</time>
      </trkpt>
      <trkpt lat="48.45546" lon="7.21546">
        <ele>390.9</ele>
        <time>2021-08-03T09:19:20Z</time>
      </trkpt>
      <trkpt lat="48.45548" lon="7.21545">
        <ele>391</ele>
        <time>2021-08-03T09:19:21Z</time>
      </trkpt>
      <trkpt lat="48.45549" lon="7.21544">
        <ele>391</ele>
        <time>2021-08-03T09:19:23Z</time>
      </trkpt>
      <trkpt lat="48.4555" lon="7.21542">
        <ele>391.1</ele>
        <time>2021-08-03T09:19:25Z</time>
      </trkpt>
      <trkpt lat="48.45552" lon="7.21541">
        <ele>391.1</ele>
        <time>2021-08-03T09:19:26Z</time>
      </trkpt>
      <trkpt lat="48.45553" lon="7.2154">
        <ele>391.1</ele>
        <time>2021-08-03T09:19:27Z</time>
      </trkpt>
      <trkpt lat="48.45554" lon="7.21538">
        <ele>391.2</ele>
        <time>2021-08-03T09:19:35Z</time>
      </trkpt>
      <trkpt lat="48.45556" lon="7.21537">
        <ele>391.2</ele>
        <time>2021-08-03T09:19:36Z</time>
      </trkpt>
      <trkpt lat="48.45559" lon="7.21534">
        <ele>391.3</ele>
        <time>2021-08-03T09:19:37Z</time>
      </trkpt>
      <trkpt lat="48.45563" lon="7.21531">
        <ele>391.4</ele>
        <time>2021-08-03T09:19:39Z</time>
      </trkpt>
      <trkpt lat="48.45571" lon="7.2153">
        <ele>391.7</ele>
        <time>2021-08-03T09:19:40Z</time>
      </trkpt>
      <trkpt lat="48.45571" lon="7.2153">
        <ele>391.7</ele>
        <time>2021-08-03T09:19:41Z</time>
      </trkpt>
      <trkpt lat="48.45575" lon="7.21529">
        <ele>391.8</ele>
        <time>2021-08-03T09:19:43Z</time>
      </trkpt>
      <trkpt lat="48.45577" lon="7.21528">
        <ele>391.9</ele>
        <time>2021-08-03T09:19:44Z</time>
      </trkpt>
      <trkpt lat="48.45579" lon="7.21526">
        <ele>392</ele>
        <time>2021-08-03T09:19:45Z</time>
      </trkpt>
      <trkpt lat="48.45581" lon="7.21524">
        <ele>392.1</ele>
        <time>2021-08-03T09:19:46Z</time>
      </trkpt>
      <trkpt lat="48.45582" lon="7.21522">
        <ele>392.2</ele>
        <time>2021-08-03T09:19:47Z</time>
      </trkpt>
      <trkpt lat="48.45584" lon="7.21521">
        <ele>392.3</ele>
        <time>2021-08-03T09:22:22Z</time>
      </trkpt>
      <trkpt lat="48.45586" lon="7.21519">
        <ele>392.4</ele>
        <time>2021-08-03T09:22:23Z</time>
      </trkpt>
      <trkpt lat="48.45589" lon="7.21518">
        <ele>392.5</ele>
        <time>2021-08-03T09:22:24Z</time>
      </trkpt>
      <trkpt lat="48.45592" lon="7.21517">
        <ele>392.7</ele>
        <time>2021-08-03T09:22:25Z</time>
      </trkpt>
      <trkpt lat="48.45596" lon="7.21515">
        <ele>392.8</ele>
        <time>2021-08-03T09:22:27Z</time>
      </trkpt>
      <trkpt lat="48.45596" lon="7.21513">
        <ele>392.9</ele>
        <time>2021-08-03T09:22:28Z</time>
      </trkpt>
      <trkpt lat="48.45596" lon="7.21509">
        <ele>393</ele>
        <time>2021-08-03T09:22:29Z</time>
      </trkpt>
      <trkpt lat="48.45597" lon="7.21508">
        <ele>393</ele>
        <time>2021-08-03T09:22:30Z</time>
      </trkpt>
      <trkpt lat="48.45599" lon="7.21507">
        <ele>393.1</ele>
        <time>2021-08-03T09:22:32Z</time>
      </trkpt>
      <trkpt lat="48.456" lon="7.21507">
        <ele>393.2</ele>
        <time>2021-08-03T09:22:33Z</time>
      </trkpt>
      <trkpt lat="48.45602" lon="7.21507">
        <ele>393.3</ele>
        <time>2021-08-03T09:22:34Z</time>
      </trkpt>
      <trkpt lat="48.45605" lon="7.21507">
        <ele>393.4</ele>
        <time>2021-08-03T09:22:36Z</time>
      </trkpt>
      <trkpt lat="48.45606" lon="7.21507">
        <ele>393.5</ele>
        <time>2021-08-03T09:22:37Z</time>
      </trkpt>
      <trkpt lat="48.4561" lon="7.21506">
        <ele>393.6</ele>
        <time>2021-08-03T09:22:39Z</time>
      </trkpt>
      <trkpt lat="48.45613" lon="7.21506">
        <ele>393.7</ele>
        <time>2021-08-03T09:22:40Z</time>
      </trkpt>
      <trkpt lat="48.45615" lon="7.21506">
        <ele>393.9</ele>
        <time>2021-08-03T09:22:41Z</time>
      </trkpt>
      <trkpt lat="48.45616" lon="7.21506">
        <ele>393.9</ele>
        <time>2021-08-03T09:22:43Z</time>
      </trkpt>
      <trkpt lat="48.45617" lon="7.21506">
        <ele>393.9</ele>
        <time>2021-08-03T09:22:44Z</time>
      </trkpt>
      <trkpt lat="48.45617" lon="7.21506">
        <ele>394</ele>
        <time>2021-08-03T09:22:46Z</time>
      </trkpt>
      <trkpt lat="48.45617" lon="7.21505">
        <ele>394</ele>
        <time>2021-08-03T09:22:47Z</time>
      </trkpt>
      <trkpt lat="48.45618" lon="7.21504">
        <ele>394</ele>
        <time>2021-08-03T09:22:48Z</time>
      </trkpt>
      <trkpt lat="48.45618" lon="7.21503">
        <ele>394</ele>
        <time>2021-08-03T09:22:50Z</time>
      </trkpt>
      <trkpt lat="48.45623" lon="7.21494">
        <ele>394.4</ele>
        <time>2021-08-03T09:23:06Z</time>
      </trkpt>
      <trkpt lat="48.45623" lon="7.21492">
        <ele>394.5</ele>
        <time>2021-08-03T09:23:07Z</time>
      </trkpt>
      <trkpt lat="48.45622" lon="7.21489">
        <ele>394.6</ele>
        <time>2021-08-03T09:23:09Z</time>
      </trkpt>
      <trkpt lat="48.45622" lon="7.21488">
        <ele>394.6</ele>
        <time>2021-08-03T09:23:10Z</time>
      </trkpt>
      <trkpt lat="48.45621" lon="7.21487">
        <ele>394.7</ele>
        <time>2021-08-03T09:23:11Z</time>
      </trkpt>
      <trkpt lat="48.45621" lon="7.21485">
        <ele>394.7</ele>
        <time>2021-08-03T09:23:13Z</time>
      </trkpt>
      <trkpt lat="48.45621" lon="7.21485">
        <ele>394.7</ele>
        <time>2021-08-03T09:23:14Z</time>
      </trkpt>
      <trkpt lat="48.45622" lon="7.21483">
        <ele>394.8</ele>
        <time>2021-08-03T09:23:15Z</time>
      </trkpt>
      <trkpt lat="48.45622" lon="7.21481">
        <ele>394.8</ele>
        <time>2021-08-03T09:23:17Z</time>
      </trkpt>
      <trkpt lat="48.45622" lon="7.2148">
        <ele>394.9</ele>
        <time>2021-08-03T09:23:18Z</time>
      </trkpt>
      <trkpt lat="48.45622" lon="7.21479">
        <ele>394.9</ele>
        <time>2021-08-03T09:23:19Z</time>
      </trkpt>
      <trkpt lat="48.45623" lon="7.21477">
        <ele>395</ele>
        <time>2021-08-03T09:23:20Z</time>
      </trkpt>
      <trkpt lat="48.45624" lon="7.21474">
        <ele>395.1</ele>
        <time>2021-08-03T09:23:21Z</time>
      </trkpt>
      <trkpt lat="48.45625" lon="7.21472">
        <ele>395.2</ele>
        <time>2021-08-03T09:23:23Z</time>
      </trkpt>
      <trkpt lat="48.45626" lon="7.2147">
        <ele>395.3</ele>
        <time>2021-08-03T09:23:24Z</time>
      </trkpt>
      <trkpt lat="48.45626" lon="7.21468">
        <ele>395.3</ele>
        <time>2021-08-03T09:23:25Z</time>
      </trkpt>
      <trkpt lat="48.45627" lon="7.21466">
        <ele>395.4</ele>
        <time>2021-08-03T09:23:26Z</time>
      </trkpt>
      <trkpt lat="48.45628" lon="7.21465">
        <ele>395.5</ele>
        <time>2021-08-03T09:23:27Z</time>
      </trkpt>
      <trkpt lat="48.45629" lon="7.21463">
        <ele>395.6</ele>
        <time>2021-08-03T09:23:28Z</time>
      </trkpt>
      <trkpt lat="48.4563" lon="7.21463">
        <ele>395.6</ele>
        <time>2021-08-03T09:23:29Z</time>
      </trkpt>
      <trkpt lat="48.45631" lon="7.21462">
        <ele>395.7</ele>
        <time>2021-08-03T09:23:31Z</time>
      </trkpt>
      <trkpt lat="48.45632" lon="7.21461">
        <ele>395.7</ele>
        <time>2021-08-03T09:23:32Z</time>
      </trkpt>
      <trkpt lat="48.45633" lon="7.2146">
        <ele>395.7</ele>
        <time>2021-08-03T09:23:33Z</time>
      </trkpt>
      <trkpt lat="48.45633" lon="7.21459">
        <ele>395.8</ele>
        <time>2021-08-03T09:23:34Z</time>
      </trkpt>
      <trkpt lat="48.45634" lon="7.21458">
        <ele>395.8</ele>
        <time>2021-08-03T09:23:35Z</time>
      </trkpt>
      <trkpt lat="48.45635" lon="7.21457">
        <ele>395.9</ele>
        <time>2021-08-03T09:23:37Z</time>
      </trkpt>
      <trkpt lat="48.45636" lon="7.21457">
        <ele>395.9</ele>
        <time>2021-08-03T09:23:38Z</time>
      </trkpt>
      <trkpt lat="48.45664" lon="7.2143">
        <ele>397.6</ele>
        <time>2021-08-03T09:24:04Z</time>
      </trkpt>
      <trkpt lat="48.45667" lon="7.2143">
        <ele>397.7</ele>
        <time>2021-08-03T09:24:05Z</time>
      </trkpt>
      <trkpt lat="48.4567" lon="7.21432">
        <ele>397.9</ele>
        <time>2021-08-03T09:24:07Z</time>
      </trkpt>
      <trkpt lat="48.45674" lon="7.21433">
        <ele>398</ele>
        <time>2021-08-03T09:24:08Z</time>
      </trkpt>
      <trkpt lat="48.45675" lon="7.21433">
        <ele>398.1</ele>
        <time>2021-08-03T09:24:09Z</time>
      </trkpt>
      <trkpt lat="48.45677" lon="7.21434">
        <ele>398.8</ele>
        <time>2021-08-03T09:24:10Z</time>
      </trkpt>
      <trkpt lat="48.45678" lon="7.21435">
        <ele>399</ele>
        <time>2021-08-03T09:24:12Z</time>
      </trkpt>
      <trkpt lat="48.45679" lon="7.21435">
        <ele>399.2</ele>
        <time>2021-08-03T09:24:13Z</time>
      </trkpt>
      <trkpt lat="48.4568" lon="7.21434">
        <ele>399.4</ele>
        <time>2021-08-03T09:24:14Z</time>
      </trkpt>
      <trkpt lat="48.4568" lon="7.21433">
        <ele>399.5</ele>
        <time>2021-08-03T09:24:15Z</time>
      </trkpt>
      <trkpt lat="48.4568" lon="7.21433">
        <ele>399.6</ele>
        <time>2021-08-03T09:24:16Z</time>
      </trkpt>
      <trkpt lat="48.45681" lon="7.21432">
        <ele>399.7</ele>
        <time>2021-08-03T09:24:18Z</time>
      </trkpt>
      <trkpt lat="48.45681" lon="7.21432">
        <ele>399.8</ele>
        <time>2021-08-03T09:24:19Z</time>
      </trkpt>
      <trkpt lat="48.45681" lon="7.21431">
        <ele>399.9</ele>
        <time>2021-08-03T09:24:20Z</time>
      </trkpt>
      <trkpt lat="48.45682" lon="7.2143">
        <ele>400.1</ele>
        <time>2021-08-03T09:24:22Z</time>
      </trkpt>
      <trkpt lat="48.45683" lon="7.2143">
        <ele>400.3</ele>
        <time>2021-08-03T09:24:24Z</time>
      </trkpt>
      <trkpt lat="48.45701" lon="7.21431">
        <ele>404</ele>
        <time>2021-08-03T09:24:35Z</time>
      </trkpt>
      <trkpt lat="48.45702" lon="7.21432">
        <ele>404.3</ele>
        <time>2021-08-03T09:24:36Z</time>
      </trkpt>
      <trkpt lat="48.45702" lon="7.21433">
        <ele>404.4</ele>
        <time>2021-08-03T09:24:38Z</time>
      </trkpt>
      <trkpt lat="48.45703" lon="7.21431">
        <ele>404.7</ele>
        <time>2021-08-03T09:24:40Z</time>
      </trkpt>
      <trkpt lat="48.45704" lon="7.21429">
        <ele>405</ele>
        <time>2021-08-03T09:24:41Z</time>
      </trkpt>
      <trkpt lat="48.45704" lon="7.21427">
        <ele>405.3</ele>
        <time>2021-08-03T09:24:42Z</time>
      </trkpt>
      <trkpt lat="48.45704" lon="7.21426">
        <ele>405.4</ele>
        <time>2021-08-03T09:24:43Z</time>
      </trkpt>
      <trkpt lat="48.45703" lon="7.21424">
        <ele>405.6</ele>
        <time>2021-08-03T09:24:45Z</time>
      </trkpt>
      <trkpt lat="48.45703" lon="7.21423">
        <ele>405.8</ele>
        <time>2021-08-03T09:24:46Z</time>
      </trkpt>
      <trkpt lat="48.45703" lon="7.21423">
        <ele>405.9</ele>
        <time>2021-08-03T09:24:47Z</time>
      </trkpt>
      <trkpt lat="48.45704" lon="7.21422">
        <ele>406</ele>
        <time>2021-08-03T09:24:48Z</time>
      </trkpt>
      <trkpt lat="48.45704" lon="7.21421">
        <ele>406.1</ele>
        <time>2021-08-03T09:24:49Z</time>
      </trkpt>
      <trkpt lat="48.45704" lon="7.2142">
        <ele>406.2</ele>
        <time>2021-08-03T09:24:51Z</time>
      </trkpt>
      <trkpt lat="48.45731" lon="7.21428">
        <ele>411.5</ele>
        <time>2021-08-03T09:25:46Z</time>
      </trkpt>
      <trkpt lat="48.45736" lon="7.21431">
        <ele>412.5</ele>
        <time>2021-08-03T09:25:48Z</time>
      </trkpt>
      <trkpt lat="48.45737" lon="7.21432">
        <ele>412.7</ele>
        <time>2021-08-03T09:25:49Z</time>
      </trkpt>
      <trkpt lat="48.45738" lon="7.21433">
        <ele>413</ele>
        <time>2021-08-03T09:25:50Z</time>
      </trkpt>
      <trkpt lat="48.4574" lon="7.21435">
        <ele>413.4</ele>
        <time>2021-08-03T09:25:52Z</time>
      </trkpt>
      <trkpt lat="48.45741" lon="7.21437">
        <ele>413.7</ele>
        <time>2021-08-03T09:25:53Z</time>
      </trkpt>
      <trkpt lat="48.45742" lon="7.21439">
        <ele>414.1</ele>
        <time>2021-08-03T09:25:54Z</time>
      </trkpt>
      <trkpt lat="48.45743" lon="7.21442">
        <ele>414.5</ele>
        <time>2021-08-03T09:25:56Z</time>
      </trkpt>
      <trkpt lat="48.45743" lon="7.21443">
        <ele>414.7</ele>
        <time>2021-08-03T09:25:57Z</time>
      </trkpt>
      <trkpt lat="48.45744" lon="7.21443">
        <ele>414.8</ele>
        <time>2021-08-03T09:25:58Z</time>
      </trkpt>
      <trkpt lat="48.45745" lon="7.21445">
        <ele>415.1</ele>
        <time>2021-08-03T09:25:59Z</time>
      </trkpt>
      <trkpt lat="48.45746" lon="7.21447">
        <ele>415.5</ele>
        <time>2021-08-03T09:26:00Z</time>
      </trkpt>
      <trkpt lat="48.45747" lon="7.21449">
        <ele>415.7</ele>
        <time>2021-08-03T09:26:02Z</time>
      </trkpt>
      <trkpt lat="48.45748" lon="7.2145">
        <ele>415.9</ele>
        <time>2021-08-03T09:26:03Z</time>
      </trkpt>
      <trkpt lat="48.45748" lon="7.2145">
        <ele>416</ele>
        <time>2021-08-03T09:26:04Z</time>
      </trkpt>
      <trkpt lat="48.4575" lon="7.2145">
        <ele>416.3</ele>
        <time>2021-08-03T09:26:07Z</time>
      </trkpt>
      <trkpt lat="48.4575" lon="7.21449">
        <ele>416.4</ele>
        <time>2021-08-03T09:26:08Z</time>
      </trkpt>
      <trkpt lat="48.45751" lon="7.21449">
        <ele>416.5</ele>
        <time>2021-08-03T09:26:09Z</time>
      </trkpt>
      <trkpt lat="48.45751" lon="7.2145">
        <ele>416.6</ele>
        <time>2021-08-03T09:26:10Z</time>
      </trkpt>
      <trkpt lat="48.45752" lon="7.2145">
        <ele>416.8</ele>
        <time>2021-08-03T09:26:12Z</time>
      </trkpt>
      <trkpt lat="48.45755" lon="7.21456">
        <ele>417.7</ele>
        <time>2021-08-03T09:26:17Z</time>
      </trkpt>
      <trkpt lat="48.45756" lon="7.21458">
        <ele>417.9</ele>
        <time>2021-08-03T09:26:18Z</time>
      </trkpt>
      <trkpt lat="48.45757" lon="7.2146">
        <ele>418.2</ele>
        <time>2021-08-03T09:26:19Z</time>
      </trkpt>
      <trkpt lat="48.45758" lon="7.21462">
        <ele>418.6</ele>
        <time>2021-08-03T09:26:21Z</time>
      </trkpt>
      <trkpt lat="48.45758" lon="7.21463">
        <ele>418.8</ele>
        <time>2021-08-03T09:26:23Z</time>
      </trkpt>
      <trkpt lat="48.45758" lon="7.21463">
        <ele>418.8</ele>
        <time>2021-08-03T09:26:24Z</time>
      </trkpt>
      <trkpt lat="48.45758" lon="7.21463">
        <ele>418.8</ele>
        <time>2021-08-03T09:26:26Z</time>
      </trkpt>
      <trkpt lat="48.45758" lon="7.21463">
        <ele>418.9</ele>
        <time>2021-08-03T09:26:27Z</time>
      </trkpt>
      <trkpt lat="48.45757" lon="7.21463">
        <ele>419</ele>
        <time>2021-08-03T09:26:28Z</time>
      </trkpt>
      <trkpt lat="48.45757" lon="7.21464">
        <ele>419</ele>
        <time>2021-08-03T09:26:29Z</time>
      </trkpt>
      <trkpt lat="48.45757" lon="7.21464">
        <ele>419.1</ele>
        <time>2021-08-03T09:26:30Z</time>
      </trkpt>
      <trkpt lat="48.45757" lon="7.21464">
        <ele>419.1</ele>
        <time>2021-08-03T09:26:31Z</time>
      </trkpt>
      <trkpt lat="48.45752" lon="7.21471">
        <ele>420.5</ele>
        <time>2021-08-03T09:26:47Z</time>
      </trkpt>
      <trkpt lat="48.45751" lon="7.21474">
        <ele>420.8</ele>
        <time>2021-08-03T09:26:48Z</time>
      </trkpt>
      <trkpt lat="48.4575" lon="7.21481">
        <ele>421.7</ele>
        <time>2021-08-03T09:26:50Z</time>
      </trkpt>
      <trkpt lat="48.4575" lon="7.21487">
        <ele>422.5</ele>
        <time>2021-08-03T09:26:52Z</time>
      </trkpt>
      <trkpt lat="48.4575" lon="7.2149">
        <ele>422.8</ele>
        <time>2021-08-03T09:26:53Z</time>
      </trkpt>
      <trkpt lat="48.45749" lon="7.21493">
        <ele>423.2</ele>
        <time>2021-08-03T09:26:55Z</time>
      </trkpt>
      <trkpt lat="48.45748" lon="7.21496">
        <ele>423.7</ele>
        <time>2021-08-03T09:26:56Z</time>
      </trkpt>
      <trkpt lat="48.45749" lon="7.21498">
        <ele>423.9</ele>
        <time>2021-08-03T09:26:57Z</time>
      </trkpt>
      <trkpt lat="48.45749" lon="7.215">
        <ele>424.2</ele>
        <time>2021-08-03T09:26:58Z</time>
      </trkpt>
      <trkpt lat="48.45749" lon="7.21502">
        <ele>424.5</ele>
        <time>2021-08-03T09:26:59Z</time>
      </trkpt>
      <trkpt lat="48.4575" lon="7.21504">
        <ele>424.7</ele>
        <time>2021-08-03T09:27:00Z</time>
      </trkpt>
      <trkpt lat="48.45751" lon="7.21508">
        <ele>425.2</ele>
        <time>2021-08-03T09:27:02Z</time>
      </trkpt>
      <trkpt lat="48.45752" lon="7.21509">
        <ele>425.5</ele>
        <time>2021-08-03T09:27:03Z</time>
      </trkpt>
      <trkpt lat="48.45752" lon="7.21511">
        <ele>425.7</ele>
        <time>2021-08-03T09:27:04Z</time>
      </trkpt>
      <trkpt lat="48.45753" lon="7.21513">
        <ele>425.9</ele>
        <time>2021-08-03T09:27:05Z</time>
      </trkpt>
      <trkpt lat="48.45753" lon="7.21515">
        <ele>426.2</ele>
        <time>2021-08-03T09:27:06Z</time>
      </trkpt>
      <trkpt lat="48.45753" lon="7.21516">
        <ele>426.4</ele>
        <time>2021-08-03T09:27:07Z</time>
      </trkpt>
      <trkpt lat="48.45753" lon="7.21516">
        <ele>426.4</ele>
        <time>2021-08-03T09:27:08Z</time>
      </trkpt>
      <trkpt lat="48.45753" lon="7.21517">
        <ele>426.5</ele>
        <time>2021-08-03T09:27:09Z</time>
      </trkpt>
      <trkpt lat="48.45753" lon="7.21518">
        <ele>426.6</ele>
        <time>2021-08-03T09:27:10Z</time>
      </trkpt>
      <trkpt lat="48.45753" lon="7.21519">
        <ele>426.8</ele>
        <time>2021-08-03T09:27:11Z</time>
      </trkpt>
      <trkpt lat="48.45754" lon="7.21522">
        <ele>427.1</ele>
        <time>2021-08-03T09:27:13Z</time>
      </trkpt>
      <trkpt lat="48.45754" lon="7.21524">
        <ele>427.4</ele>
        <time>2021-08-03T09:27:14Z</time>
      </trkpt>
      <trkpt lat="48.45754" lon="7.21525">
        <ele>427.6</ele>
        <time>2021-08-03T09:27:15Z</time>
      </trkpt>
      <trkpt lat="48.45754" lon="7.21527">
        <ele>427.8</ele>
        <time>2021-08-03T09:27:16Z</time>
      </trkpt>
      <trkpt lat="48.45752" lon="7.21534">
        <ele>428.8</ele>
        <time>2021-08-03T09:27:19Z</time>
      </trkpt>
      <trkpt lat="48.45751" lon="7.21541">
        <ele>429.8</ele>
        <time>2021-08-03T09:27:21Z</time>
      </trkpt>
      <trkpt lat="48.45749" lon="7.21545">
        <ele>430.4</ele>
        <time>2021-08-03T09:27:23Z</time>
      </trkpt>
      <trkpt lat="48.45747" lon="7.21546">
        <ele>430.7</ele>
        <time>2021-08-03T09:27:25Z</time>
      </trkpt>
      <trkpt lat="48.45746" lon="7.21547">
        <ele>431</ele>
        <time>2021-08-03T09:27:26Z</time>
      </trkpt>
      <trkpt lat="48.45744" lon="7.2155">
        <ele>431.6</ele>
        <time>2021-08-03T09:27:27Z</time>
      </trkpt>
      <trkpt lat="48.45741" lon="7.21553">
        <ele>432.2</ele>
        <time>2021-08-03T09:27:28Z</time>
      </trkpt>
      <trkpt lat="48.4574" lon="7.21554">
        <ele>432.4</ele>
        <time>2021-08-03T09:27:29Z</time>
      </trkpt>
      <trkpt lat="48.45739" lon="7.21555">
        <ele>432.8</ele>
        <time>2021-08-03T09:27:30Z</time>
      </trkpt>
      <trkpt lat="48.45737" lon="7.21554">
        <ele>433.2</ele>
        <time>2021-08-03T09:27:32Z</time>
      </trkpt>
      <trkpt lat="48.45735" lon="7.21555">
        <ele>433.5</ele>
        <time>2021-08-03T09:27:33Z</time>
      </trkpt>
      <trkpt lat="48.45734" lon="7.21556">
        <ele>433.7</ele>
        <time>2021-08-03T09:27:34Z</time>
      </trkpt>
      <trkpt lat="48.45734" lon="7.21557">
        <ele>433.9</ele>
        <time>2021-08-03T09:27:35Z</time>
      </trkpt>
      <trkpt lat="48.45733" lon="7.21559">
        <ele>434.3</ele>
        <time>2021-08-03T09:27:37Z</time>
      </trkpt>
      <trkpt lat="48.45731" lon="7.21561">
        <ele>434.6</ele>
        <time>2021-08-03T09:27:38Z</time>
      </trkpt>
      <trkpt lat="48.4573" lon="7.21563">
        <ele>435</ele>
        <time>2021-08-03T09:27:39Z</time>
      </trkpt>
      <trkpt lat="48.45723" lon="7.21569">
        <ele>436.7</ele>
        <time>2021-08-03T09:27:44Z</time>
      </trkpt>
      <trkpt lat="48.45721" lon="7.21571">
        <ele>437.2</ele>
        <time>2021-08-03T09:27:45Z</time>
      </trkpt>
      <trkpt lat="48.4572" lon="7.21571">
        <ele>437.4</ele>
        <time>2021-08-03T09:27:46Z</time>
      </trkpt>
      <trkpt lat="48.45717" lon="7.21576">
        <ele>438.3</ele>
        <time>2021-08-03T09:27:47Z</time>
      </trkpt>
      <trkpt lat="48.45715" lon="7.21577">
        <ele>438.8</ele>
        <time>2021-08-03T09:27:48Z</time>
      </trkpt>
      <trkpt lat="48.45714" lon="7.21578">
        <ele>438.9</ele>
        <time>2021-08-03T09:27:49Z</time>
      </trkpt>
      <trkpt lat="48.45715" lon="7.21579">
        <ele>439.1</ele>
        <time>2021-08-03T09:27:51Z</time>
      </trkpt>
      <trkpt lat="48.45715" lon="7.2158">
        <ele>439.3</ele>
        <time>2021-08-03T09:27:52Z</time>
      </trkpt>
      <trkpt lat="48.45716" lon="7.21581">
        <ele>439.4</ele>
        <time>2021-08-03T09:27:53Z</time>
      </trkpt>
      <trkpt lat="48.45716" lon="7.21582">
        <ele>439.6</ele>
        <time>2021-08-03T09:27:54Z</time>
      </trkpt>
      <trkpt lat="48.45716" lon="7.21583">
        <ele>439.7</ele>
        <time>2021-08-03T09:27:55Z</time>
      </trkpt>
      <trkpt lat="48.45716" lon="7.21585">
        <ele>440.1</ele>
        <time>2021-08-03T09:27:57Z</time>
      </trkpt>
      <trkpt lat="48.45712" lon="7.21659">
        <ele>453.4</ele>
        <time>2021-08-03T09:28:33Z</time>
      </trkpt>
      <trkpt lat="48.45712" lon="7.21663">
        <ele>453.4</ele>
        <time>2021-08-03T09:28:34Z</time>
      </trkpt>
      <trkpt lat="48.45713" lon="7.21666">
        <ele>453.4</ele>
        <time>2021-08-03T09:28:35Z</time>
      </trkpt>
      <trkpt lat="48.45713" lon="7.21667">
        <ele>453.4</ele>
        <time>2021-08-03T09:28:36Z</time>
      </trkpt>
      <trkpt lat="48.45713" lon="7.21668">
        <ele>453.4</ele>
        <time>2021-08-03T09:28:37Z</time>
      </trkpt>
      <trkpt lat="48.45713" lon="7.2167">
        <ele>453.4</ele>
        <time>2021-08-03T09:28:39Z</time>
      </trkpt>
      <trkpt lat="48.45713" lon="7.2167">
        <ele>453.4</ele>
        <time>2021-08-03T09:28:40Z</time>
      </trkpt>
      <trkpt lat="48.45712" lon="7.21672">
        <ele>453.4</ele>
        <time>2021-08-03T09:28:41Z</time>
      </trkpt>
      <trkpt lat="48.45712" lon="7.21672">
        <ele>453.4</ele>
        <time>2021-08-03T09:28:42Z</time>
      </trkpt>
      <trkpt lat="48.45712" lon="7.21672">
        <ele>453.4</ele>
        <time>2021-08-03T09:28:44Z</time>
      </trkpt>
      <trkpt lat="48.45783" lon="7.21702">
        <ele>453.1</ele>
        <time>2021-08-03T09:29:34Z</time>
      </trkpt>
      <trkpt lat="48.45785" lon="7.21699">
        <ele>453.2</ele>
        <time>2021-08-03T09:29:36Z</time>
      </trkpt>
      <trkpt lat="48.45785" lon="7.21697">
        <ele>453.3</ele>
        <time>2021-08-03T09:29:37Z</time>
      </trkpt>
      <trkpt lat="48.45786" lon="7.21695">
        <ele>453.3</ele>
        <time>2021-08-03T09:29:39Z</time>
      </trkpt>
      <trkpt lat="48.45786" lon="7.21693">
        <ele>453.4</ele>
        <time>2021-08-03T09:29:40Z</time>
      </trkpt>
      <trkpt lat="48.45787" lon="7.21691">
        <ele>453.4</ele>
        <time>2021-08-03T09:29:42Z</time>
      </trkpt>
      <trkpt lat="48.45787" lon="7.2169">
        <ele>453.4</ele>
        <time>2021-08-03T09:29:43Z</time>
      </trkpt>
      <trkpt lat="48.45788" lon="7.2169">
        <ele>453.5</ele>
        <time>2021-08-03T09:29:44Z</time>
      </trkpt>
      <trkpt lat="48.4579" lon="7.2169">
        <ele>453.5</ele>
        <time>2021-08-03T09:29:46Z</time>
      </trkpt>
      <trkpt lat="48.45791" lon="7.21689">
        <ele>453.6</ele>
        <time>2021-08-03T09:29:47Z</time>
      </trkpt>
      <trkpt lat="48.45792" lon="7.21688">
        <ele>453.6</ele>
        <time>2021-08-03T09:29:48Z</time>
      </trkpt>
      <trkpt lat="48.45793" lon="7.21687">
        <ele>453.6</ele>
        <time>2021-08-03T09:29:49Z</time>
      </trkpt>
      <trkpt lat="48.45795" lon="7.21685">
        <ele>453.7</ele>
        <time>2021-08-03T09:29:50Z</time>
      </trkpt>
      <trkpt lat="48.45796" lon="7.21685">
        <ele>453.7</ele>
        <time>2021-08-03T09:29:52Z</time>
      </trkpt>
      <trkpt lat="48.45797" lon="7.21684">
        <ele>453.8</ele>
        <time>2021-08-03T09:29:53Z</time>
      </trkpt>
      <trkpt lat="48.45799" lon="7.21682">
        <ele>453.8</ele>
        <time>2021-08-03T09:29:55Z</time>
      </trkpt>
      <trkpt lat="48.458" lon="7.21681">
        <ele>453.9</ele>
        <time>2021-08-03T09:29:56Z</time>
      </trkpt>
      <trkpt lat="48.45801" lon="7.21681">
        <ele>453.9</ele>
        <time>2021-08-03T09:29:57Z</time>
      </trkpt>
      <trkpt lat="48.45803" lon="7.21681">
        <ele>453.9</ele>
        <time>2021-08-03T09:29:59Z</time>
      </trkpt>
      <trkpt lat="48.45804" lon="7.2168">
        <ele>454</ele>
        <time>2021-08-03T09:30:00Z</time>
      </trkpt>
      <trkpt lat="48.45805" lon="7.21679">
        <ele>454</ele>
        <time>2021-08-03T09:30:01Z</time>
      </trkpt>
      <trkpt lat="48.45807" lon="7.21678">
        <ele>454.1</ele>
        <time>2021-08-03T09:30:03Z</time>
      </trkpt>
      <trkpt lat="48.45809" lon="7.21677">
        <ele>454.2</ele>
        <time>2021-08-03T09:30:05Z</time>
      </trkpt>
      <trkpt lat="48.45809" lon="7.21676">
        <ele>454.2</ele>
        <time>2021-08-03T09:30:06Z</time>
      </trkpt>
      <trkpt lat="48.45808" lon="7.21673">
        <ele>454.2</ele>
        <time>2021-08-03T09:30:07Z</time>
      </trkpt>
      <trkpt lat="48.45808" lon="7.2167">
        <ele>454.3</ele>
        <time>2021-08-03T09:30:08Z</time>
      </trkpt>
      <trkpt lat="48.45808" lon="7.21669">
        <ele>454.3</ele>
        <time>2021-08-03T09:30:09Z</time>
      </trkpt>
      <trkpt lat="48.45808" lon="7.21668">
        <ele>454.4</ele>
        <time>2021-08-03T09:30:10Z</time>
      </trkpt>
      <trkpt lat="48.45807" lon="7.21666">
        <ele>454.4</ele>
        <time>2021-08-03T09:30:12Z</time>
      </trkpt>
      <trkpt lat="48.45807" lon="7.21664">
        <ele>454.5</ele>
        <time>2021-08-03T09:30:13Z</time>
      </trkpt>
      <trkpt lat="48.45807" lon="7.2166">
        <ele>454.6</ele>
        <time>2021-08-03T09:30:15Z</time>
      </trkpt>
      <trkpt lat="48.45807" lon="7.21659">
        <ele>454.6</ele>
        <time>2021-08-03T09:30:16Z</time>
      </trkpt>
      <trkpt lat="48.45807" lon="7.21658">
        <ele>454.6</ele>
        <time>2021-08-03T09:30:18Z</time>
      </trkpt>
      <trkpt lat="48.45807" lon="7.21657">
        <ele>454.6</ele>
        <time>2021-08-03T09:30:19Z</time>
      </trkpt>
      <trkpt lat="48.45807" lon="7.21656">
        <ele>454.7</ele>
        <time>2021-08-03T09:30:20Z</time>
      </trkpt>
      <trkpt lat="48.45807" lon="7.21656">
        <ele>454.7</ele>
        <time>2021-08-03T09:30:21Z</time>
      </trkpt>
      <trkpt lat="48.45808" lon="7.21655">
        <ele>454.7</ele>
        <time>2021-08-03T09:30:22Z</time>
      </trkpt>
      <trkpt lat="48.45808" lon="7.21652">
        <ele>454.8</ele>
        <time>2021-08-03T09:30:23Z</time>
      </trkpt>
      <trkpt lat="48.45809" lon="7.2165">
        <ele>454.9</ele>
        <time>2021-08-03T09:30:24Z</time>
      </trkpt>
      <trkpt lat="48.45809" lon="7.21649">
        <ele>454.9</ele>
        <time>2021-08-03T09:30:25Z</time>
      </trkpt>
      <trkpt lat="48.4581" lon="7.21647">
        <ele>455</ele>
        <time>2021-08-03T09:30:26Z</time>
      </trkpt>
      <trkpt lat="48.45816" lon="7.21636">
        <ele>455.4</ele>
        <time>2021-08-03T09:30:32Z</time>
      </trkpt>
      <trkpt lat="48.45818" lon="7.21635">
        <ele>455.6</ele>
        <time>2021-08-03T09:30:33Z</time>
      </trkpt>
      <trkpt lat="48.45819" lon="7.21634">
        <ele>455.6</ele>
        <time>2021-08-03T09:30:35Z</time>
      </trkpt>
      <trkpt lat="48.4582" lon="7.21633">
        <ele>455.7</ele>
        <time>2021-08-03T09:30:36Z</time>
      </trkpt>
      <trkpt lat="48.45825" lon="7.21632">
        <ele>456</ele>
        <time>2021-08-03T09:30:38Z</time>
      </trkpt>
      <trkpt lat="48.45827" lon="7.21632">
        <ele>456.1</ele>
        <time>2021-08-03T09:30:39Z</time>
      </trkpt>
      <trkpt lat="48.45828" lon="7.21632">
        <ele>456.2</ele>
        <time>2021-08-03T09:30:40Z</time>
      </trkpt>
      <trkpt lat="48.45831" lon="7.21632">
        <ele>456.4</ele>
        <time>2021-08-03T09:30:41Z</time>
      </trkpt>
      <trkpt lat="48.45832" lon="7.21632">
        <ele>456.5</ele>
        <time>2021-08-03T09:30:42Z</time>
      </trkpt>
      <trkpt lat="48.45835" lon="7.21631">
        <ele>456.7</ele>
        <time>2021-08-03T09:30:44Z</time>
      </trkpt>
      <trkpt lat="48.45837" lon="7.21631">
        <ele>456.7</ele>
        <time>2021-08-03T09:30:45Z</time>
      </trkpt>
      <trkpt lat="48.45838" lon="7.21631">
        <ele>456.8</ele>
        <time>2021-08-03T09:30:46Z</time>
      </trkpt>
      <trkpt lat="48.45839" lon="7.21631">
        <ele>456.9</ele>
        <time>2021-08-03T09:30:47Z</time>
      </trkpt>
      <trkpt lat="48.45842" lon="7.21632">
        <ele>457.1</ele>
        <time>2021-08-03T09:30:48Z</time>
      </trkpt>
      <trkpt lat="48.45844" lon="7.21632">
        <ele>457.2</ele>
        <time>2021-08-03T09:30:50Z</time>
      </trkpt>
      <trkpt lat="48.45848" lon="7.21632">
        <ele>457.5</ele>
        <time>2021-08-03T09:30:51Z</time>
      </trkpt>
      <trkpt lat="48.45849" lon="7.21633">
        <ele>457.5</ele>
        <time>2021-08-03T09:30:52Z</time>
      </trkpt>
      <trkpt lat="48.45851" lon="7.21632">
        <ele>457.6</ele>
        <time>2021-08-03T09:30:53Z</time>
      </trkpt>
      <trkpt lat="48.45853" lon="7.21632">
        <ele>457.8</ele>
        <time>2021-08-03T09:30:55Z</time>
      </trkpt>
      <trkpt lat="48.45857" lon="7.21631">
        <ele>458</ele>
        <time>2021-08-03T09:30:56Z</time>
      </trkpt>
      <trkpt lat="48.45858" lon="7.21631">
        <ele>458</ele>
        <time>2021-08-03T09:30:57Z</time>
      </trkpt>
      <trkpt lat="48.45861" lon="7.2163">
        <ele>458.2</ele>
        <time>2021-08-03T09:30:58Z</time>
      </trkpt>
      <trkpt lat="48.45862" lon="7.2163">
        <ele>458.3</ele>
        <time>2021-08-03T09:30:59Z</time>
      </trkpt>
      <trkpt lat="48.45865" lon="7.21631">
        <ele>458.5</ele>
        <time>2021-08-03T09:31:00Z</time>
      </trkpt>
      <trkpt lat="48.45868" lon="7.21632">
        <ele>458.6</ele>
        <time>2021-08-03T09:31:01Z</time>
      </trkpt>
      <trkpt lat="48.45869" lon="7.21632">
        <ele>458.7</ele>
        <time>2021-08-03T09:31:02Z</time>
      </trkpt>
      <trkpt lat="48.45871" lon="7.21633">
        <ele>458.8</ele>
        <time>2021-08-03T09:31:03Z</time>
      </trkpt>
      <trkpt lat="48.45872" lon="7.21633">
        <ele>458.8</ele>
        <time>2021-08-03T09:31:04Z</time>
      </trkpt>
      <trkpt lat="48.45874" lon="7.21633">
        <ele>458.9</ele>
        <time>2021-08-03T09:31:06Z</time>
      </trkpt>
      <trkpt lat="48.45875" lon="7.21634">
        <ele>459</ele>
        <time>2021-08-03T09:31:07Z</time>
      </trkpt>
      <trkpt lat="48.45877" lon="7.21635">
        <ele>459.1</ele>
        <time>2021-08-03T09:31:08Z</time>
      </trkpt>
      <trkpt lat="48.45881" lon="7.21634">
        <ele>459.3</ele>
        <time>2021-08-03T09:31:10Z</time>
      </trkpt>
      <trkpt lat="48.45884" lon="7.21635">
        <ele>459.4</ele>
        <time>2021-08-03T09:31:11Z</time>
      </trkpt>
      <trkpt lat="48.4589" lon="7.21636">
        <ele>459.7</ele>
        <time>2021-08-03T09:31:13Z</time>
      </trkpt>
      <trkpt lat="48.45892" lon="7.21636">
        <ele>459.8</ele>
        <time>2021-08-03T09:31:14Z</time>
      </trkpt>
      <trkpt lat="48.45894" lon="7.21636">
        <ele>459.9</ele>
        <time>2021-08-03T09:31:15Z</time>
      </trkpt>
      <trkpt lat="48.45895" lon="7.21635">
        <ele>460</ele>
        <time>2021-08-03T09:31:16Z</time>
      </trkpt>
      <trkpt lat="48.45897" lon="7.21635">
        <ele>460.1</ele>
        <time>2021-08-03T09:31:18Z</time>
      </trkpt>
      <trkpt lat="48.459" lon="7.21635">
        <ele>460.3</ele>
        <time>2021-08-03T09:31:19Z</time>
      </trkpt>
      <trkpt lat="48.45903" lon="7.21635">
        <ele>460.5</ele>
        <time>2021-08-03T09:31:21Z</time>
      </trkpt>
      <trkpt lat="48.45906" lon="7.21636">
        <ele>460.7</ele>
        <time>2021-08-03T09:31:22Z</time>
      </trkpt>
      <trkpt lat="48.45908" lon="7.21637">
        <ele>460.8</ele>
        <time>2021-08-03T09:31:23Z</time>
      </trkpt>
      <trkpt lat="48.45911" lon="7.21638">
        <ele>461</ele>
        <time>2021-08-03T09:31:25Z</time>
      </trkpt>
      <trkpt lat="48.45912" lon="7.21638">
        <ele>461.1</ele>
        <time>2021-08-03T09:31:26Z</time>
      </trkpt>
      <trkpt lat="48.45914" lon="7.21639">
        <ele>461.2</ele>
        <time>2021-08-03T09:31:27Z</time>
      </trkpt>
      <trkpt lat="48.45917" lon="7.2164">
        <ele>461.4</ele>
        <time>2021-08-03T09:31:29Z</time>
      </trkpt>
      <trkpt lat="48.45918" lon="7.21641">
        <ele>461.5</ele>
        <time>2021-08-03T09:31:30Z</time>
      </trkpt>
      <trkpt lat="48.4592" lon="7.21641">
        <ele>461.6</ele>
        <time>2021-08-03T09:31:31Z</time>
      </trkpt>
      <trkpt lat="48.45921" lon="7.21641">
        <ele>461.7</ele>
        <time>2021-08-03T09:31:32Z</time>
      </trkpt>
      <trkpt lat="48.45924" lon="7.21642">
        <ele>461.8</ele>
        <time>2021-08-03T09:31:34Z</time>
      </trkpt>
      <trkpt lat="48.45925" lon="7.21642">
        <ele>461.9</ele>
        <time>2021-08-03T09:31:35Z</time>
      </trkpt>
      <trkpt lat="48.45925" lon="7.21643">
        <ele>461.9</ele>
        <time>2021-08-03T09:31:36Z</time>
      </trkpt>
      <trkpt lat="48.45926" lon="7.21644">
        <ele>462</ele>
        <time>2021-08-03T09:31:37Z</time>
      </trkpt>
      <trkpt lat="48.45927" lon="7.21644">
        <ele>462</ele>
        <time>2021-08-03T09:31:39Z</time>
      </trkpt>
      <trkpt lat="48.45928" lon="7.21644">
        <ele>462.1</ele>
        <time>2021-08-03T09:31:40Z</time>
      </trkpt>
      <trkpt lat="48.4593" lon="7.21644">
        <ele>462.3</ele>
        <time>2021-08-03T09:31:42Z</time>
      </trkpt>
      <trkpt lat="48.45932" lon="7.21644">
        <ele>462.4</ele>
        <time>2021-08-03T09:31:43Z</time>
      </trkpt>
      <trkpt lat="48.45933" lon="7.21644">
        <ele>462.5</ele>
        <time>2021-08-03T09:31:44Z</time>
      </trkpt>
      <trkpt lat="48.45935" lon="7.21644">
        <ele>462.6</ele>
        <time>2021-08-03T09:31:46Z</time>
      </trkpt>
      <trkpt lat="48.45937" lon="7.21645">
        <ele>462.8</ele>
        <time>2021-08-03T09:31:47Z</time>
      </trkpt>
      <trkpt lat="48.45938" lon="7.21647">
        <ele>462.9</ele>
        <time>2021-08-03T09:31:48Z</time>
      </trkpt>
      <trkpt lat="48.45939" lon="7.21648">
        <ele>463</ele>
        <time>2021-08-03T09:31:49Z</time>
      </trkpt>
      <trkpt lat="48.45939" lon="7.21649">
        <ele>463</ele>
        <time>2021-08-03T09:31:50Z</time>
      </trkpt>
      <trkpt lat="48.4594" lon="7.2165">
        <ele>463.1</ele>
        <time>2021-08-03T09:31:52Z</time>
      </trkpt>
      <trkpt lat="48.45941" lon="7.21651">
        <ele>463.2</ele>
        <time>2021-08-03T09:31:53Z</time>
      </trkpt>
      <trkpt lat="48.45942" lon="7.21652">
        <ele>463.2</ele>
        <time>2021-08-03T09:31:54Z</time>
      </trkpt>
      <trkpt lat="48.45942" lon="7.21654">
        <ele>463.3</ele>
        <time>2021-08-03T09:31:56Z</time>
      </trkpt>
      <trkpt lat="48.45942" lon="7.21656">
        <ele>463.5</ele>
        <time>2021-08-03T09:31:58Z</time>
      </trkpt>
      <trkpt lat="48.45943" lon="7.21658">
        <ele>463.5</ele>
        <time>2021-08-03T09:31:59Z</time>
      </trkpt>
      <trkpt lat="48.45943" lon="7.21658">
        <ele>463.6</ele>
        <time>2021-08-03T09:32:00Z</time>
      </trkpt>
      <trkpt lat="48.45943" lon="7.21659">
        <ele>463.6</ele>
        <time>2021-08-03T09:32:01Z</time>
      </trkpt>
      <trkpt lat="48.45944" lon="7.21659">
        <ele>463.7</ele>
        <time>2021-08-03T09:32:03Z</time>
      </trkpt>
      <trkpt lat="48.45945" lon="7.21659">
        <ele>463.7</ele>
        <time>2021-08-03T09:32:04Z</time>
      </trkpt>
      <trkpt lat="48.45946" lon="7.2166">
        <ele>463.8</ele>
        <time>2021-08-03T09:32:05Z</time>
      </trkpt>
      <trkpt lat="48.45948" lon="7.21659">
        <ele>463.9</ele>
        <time>2021-08-03T09:32:07Z</time>
      </trkpt>
      <trkpt lat="48.45949" lon="7.21659">
        <ele>464.1</ele>
        <time>2021-08-03T09:32:08Z</time>
      </trkpt>
      <trkpt lat="48.45951" lon="7.21659">
        <ele>464.2</ele>
        <time>2021-08-03T09:32:09Z</time>
      </trkpt>
      <trkpt lat="48.45952" lon="7.21659">
        <ele>464.2</ele>
        <time>2021-08-03T09:32:10Z</time>
      </trkpt>
      <trkpt lat="48.45953" lon="7.2166">
        <ele>464.4</ele>
        <time>2021-08-03T09:32:11Z</time>
      </trkpt>
      <trkpt lat="48.45954" lon="7.2166">
        <ele>464.4</ele>
        <time>2021-08-03T09:32:12Z</time>
      </trkpt>
      <trkpt lat="48.45955" lon="7.21661">
        <ele>464.5</ele>
        <time>2021-08-03T09:32:14Z</time>
      </trkpt>
      <trkpt lat="48.45955" lon="7.21663">
        <ele>464.5</ele>
        <time>2021-08-03T09:32:15Z</time>
      </trkpt>
      <trkpt lat="48.45955" lon="7.21665">
        <ele>464.6</ele>
        <time>2021-08-03T09:32:16Z</time>
      </trkpt>
      <trkpt lat="48.45956" lon="7.21666">
        <ele>464.8</ele>
        <time>2021-08-03T09:32:17Z</time>
      </trkpt>
      <trkpt lat="48.45957" lon="7.21668">
        <ele>464.9</ele>
        <time>2021-08-03T09:32:18Z</time>
      </trkpt>
      <trkpt lat="48.45958" lon="7.21669">
        <ele>465</ele>
        <time>2021-08-03T09:32:19Z</time>
      </trkpt>
      <trkpt lat="48.45958" lon="7.21671">
        <ele>465.1</ele>
        <time>2021-08-03T09:32:20Z</time>
      </trkpt>
      <trkpt lat="48.45959" lon="7.21672">
        <ele>465.2</ele>
        <time>2021-08-03T09:32:21Z</time>
      </trkpt>
      <trkpt lat="48.4596" lon="7.21673">
        <ele>465.3</ele>
        <time>2021-08-03T09:32:22Z</time>
      </trkpt>
      <trkpt lat="48.45961" lon="7.21675">
        <ele>465.4</ele>
        <time>2021-08-03T09:32:24Z</time>
      </trkpt>
      <trkpt lat="48.45961" lon="7.21676">
        <ele>465.5</ele>
        <time>2021-08-03T09:32:25Z</time>
      </trkpt>
      <trkpt lat="48.45962" lon="7.21678">
        <ele>465.6</ele>
        <time>2021-08-03T09:32:27Z</time>
      </trkpt>
      <trkpt lat="48.45962" lon="7.21679">
        <ele>465.7</ele>
        <time>2021-08-03T09:32:28Z</time>
      </trkpt>
      <trkpt lat="48.45962" lon="7.2168">
        <ele>465.7</ele>
        <time>2021-08-03T09:32:29Z</time>
      </trkpt>
      <trkpt lat="48.45963" lon="7.21681">
        <ele>465.9</ele>
        <time>2021-08-03T09:32:30Z</time>
      </trkpt>
      <trkpt lat="48.45963" lon="7.21682">
        <ele>465.9</ele>
        <time>2021-08-03T09:32:31Z</time>
      </trkpt>
      <trkpt lat="48.45963" lon="7.21683">
        <ele>466</ele>
        <time>2021-08-03T09:32:33Z</time>
      </trkpt>
      <trkpt lat="48.45962" lon="7.21684">
        <ele>466.1</ele>
        <time>2021-08-03T09:32:34Z</time>
      </trkpt>
      <trkpt lat="48.45961" lon="7.21684">
        <ele>466.2</ele>
        <time>2021-08-03T09:32:35Z</time>
      </trkpt>
      <trkpt lat="48.4596" lon="7.21684">
        <ele>466.3</ele>
        <time>2021-08-03T09:32:36Z</time>
      </trkpt>
      <trkpt lat="48.4596" lon="7.21684">
        <ele>466.3</ele>
        <time>2021-08-03T09:32:37Z</time>
      </trkpt>
      <trkpt lat="48.45959" lon="7.21685">
        <ele>466.4</ele>
        <time>2021-08-03T09:32:38Z</time>
      </trkpt>
      <trkpt lat="48.45959" lon="7.21685">
        <ele>466.4</ele>
        <time>2021-08-03T09:32:39Z</time>
      </trkpt>
      <trkpt lat="48.4596" lon="7.21686">
        <ele>466.4</ele>
        <time>2021-08-03T09:32:41Z</time>
      </trkpt>
      <trkpt lat="48.4596" lon="7.21687">
        <ele>466.5</ele>
        <time>2021-08-03T09:32:42Z</time>
      </trkpt>
      <trkpt lat="48.45961" lon="7.21688">
        <ele>466.6</ele>
        <time>2021-08-03T09:32:43Z</time>
      </trkpt>
      <trkpt lat="48.45963" lon="7.21702">
        <ele>467.5</ele>
        <time>2021-08-03T09:32:50Z</time>
      </trkpt>
      <trkpt lat="48.45963" lon="7.21707">
        <ele>467.9</ele>
        <time>2021-08-03T09:32:51Z</time>
      </trkpt>
      <trkpt lat="48.45963" lon="7.21712">
        <ele>468.3</ele>
        <time>2021-08-03T09:32:52Z</time>
      </trkpt>
      <trkpt lat="48.45963" lon="7.21714">
        <ele>468.4</ele>
        <time>2021-08-03T09:32:53Z</time>
      </trkpt>
      <trkpt lat="48.45965" lon="7.2172">
        <ele>468.9</ele>
        <time>2021-08-03T09:32:56Z</time>
      </trkpt>
      <trkpt lat="48.45965" lon="7.21722">
        <ele>469</ele>
        <time>2021-08-03T09:32:57Z</time>
      </trkpt>
      <trkpt lat="48.45967" lon="7.21725">
        <ele>469.3</ele>
        <time>2021-08-03T09:32:59Z</time>
      </trkpt>
      <trkpt lat="48.45968" lon="7.21727">
        <ele>469.4</ele>
        <time>2021-08-03T09:33:00Z</time>
      </trkpt>
      <trkpt lat="48.4597" lon="7.21728">
        <ele>469.6</ele>
        <time>2021-08-03T09:33:01Z</time>
      </trkpt>
      <trkpt lat="48.45971" lon="7.2173">
        <ele>469.7</ele>
        <time>2021-08-03T09:33:02Z</time>
      </trkpt>
      <trkpt lat="48.45971" lon="7.21731">
        <ele>469.8</ele>
        <time>2021-08-03T09:33:04Z</time>
      </trkpt>
      <trkpt lat="48.45972" lon="7.21732">
        <ele>469.8</ele>
        <time>2021-08-03T09:33:05Z</time>
      </trkpt>
      <trkpt lat="48.45973" lon="7.21732">
        <ele>469.9</ele>
        <time>2021-08-03T09:33:06Z</time>
      </trkpt>
      <trkpt lat="48.45973" lon="7.21733">
        <ele>470</ele>
        <time>2021-08-03T09:33:07Z</time>
      </trkpt>
      <trkpt lat="48.45974" lon="7.21733">
        <ele>470</ele>
        <time>2021-08-03T09:33:08Z</time>
      </trkpt>
      <trkpt lat="48.45975" lon="7.21734">
        <ele>470.1</ele>
        <time>2021-08-03T09:33:09Z</time>
      </trkpt>
      <trkpt lat="48.45975" lon="7.21734">
        <ele>470.2</ele>
        <time>2021-08-03T09:33:10Z</time>
      </trkpt>
      <trkpt lat="48.45976" lon="7.21735">
        <ele>470.3</ele>
        <time>2021-08-03T09:33:12Z</time>
      </trkpt>
      <trkpt lat="48.45979" lon="7.21737">
        <ele>470.5</ele>
        <time>2021-08-03T09:33:14Z</time>
      </trkpt>
      <trkpt lat="48.45982" lon="7.2174">
        <ele>470.8</ele>
        <time>2021-08-03T09:33:15Z</time>
      </trkpt>
      <trkpt lat="48.45983" lon="7.21741">
        <ele>470.9</ele>
        <time>2021-08-03T09:33:16Z</time>
      </trkpt>
      <trkpt lat="48.45986" lon="7.21742">
        <ele>471.2</ele>
        <time>2021-08-03T09:33:17Z</time>
      </trkpt>
      <trkpt lat="48.45988" lon="7.21742">
        <ele>471.3</ele>
        <time>2021-08-03T09:33:18Z</time>
      </trkpt>
      <trkpt lat="48.45992" lon="7.21745">
        <ele>471.6</ele>
        <time>2021-08-03T09:33:19Z</time>
      </trkpt>
      <trkpt lat="48.45993" lon="7.21745">
        <ele>471.8</ele>
        <time>2021-08-03T09:33:21Z</time>
      </trkpt>
      <trkpt lat="48.45995" lon="7.21745">
        <ele>471.9</ele>
        <time>2021-08-03T09:33:22Z</time>
      </trkpt>
      <trkpt lat="48.45997" lon="7.21746">
        <ele>472.1</ele>
        <time>2021-08-03T09:33:23Z</time>
      </trkpt>
      <trkpt lat="48.45998" lon="7.21746">
        <ele>472.2</ele>
        <time>2021-08-03T09:33:25Z</time>
      </trkpt>
      <trkpt lat="48.45999" lon="7.21749">
        <ele>472.4</ele>
        <time>2021-08-03T09:33:26Z</time>
      </trkpt>
      <trkpt lat="48.46" lon="7.21751">
        <ele>472.5</ele>
        <time>2021-08-03T09:33:27Z</time>
      </trkpt>
      <trkpt lat="48.46" lon="7.21752">
        <ele>472.5</ele>
        <time>2021-08-03T09:33:28Z</time>
      </trkpt>
      <trkpt lat="48.46" lon="7.21754">
        <ele>472.6</ele>
        <time>2021-08-03T09:33:29Z</time>
      </trkpt>
      <trkpt lat="48.46" lon="7.21755">
        <ele>472.7</ele>
        <time>2021-08-03T09:33:30Z</time>
      </trkpt>
      <trkpt lat="48.46001" lon="7.21758">
        <ele>472.8</ele>
        <time>2021-08-03T09:33:32Z</time>
      </trkpt>
      <trkpt lat="48.46002" lon="7.21759">
        <ele>472.9</ele>
        <time>2021-08-03T09:33:34Z</time>
      </trkpt>
      <trkpt lat="48.46003" lon="7.21759">
        <ele>473</ele>
        <time>2021-08-03T09:33:35Z</time>
      </trkpt>
      <trkpt lat="48.46004" lon="7.21759">
        <ele>473.1</ele>
        <time>2021-08-03T09:33:36Z</time>
      </trkpt>
      <trkpt lat="48.46005" lon="7.21758">
        <ele>473.2</ele>
        <time>2021-08-03T09:33:37Z</time>
      </trkpt>
      <trkpt lat="48.46008" lon="7.21758">
        <ele>473.4</ele>
        <time>2021-08-03T09:33:39Z</time>
      </trkpt>
      <trkpt lat="48.4601" lon="7.21757">
        <ele>473.5</ele>
        <time>2021-08-03T09:33:40Z</time>
      </trkpt>
      <trkpt lat="48.46012" lon="7.21757">
        <ele>473.7</ele>
        <time>2021-08-03T09:33:42Z</time>
      </trkpt>
      <trkpt lat="48.46014" lon="7.21756">
        <ele>473.9</ele>
        <time>2021-08-03T09:33:44Z</time>
      </trkpt>
      <trkpt lat="48.46015" lon="7.21757">
        <ele>473.9</ele>
        <time>2021-08-03T09:33:45Z</time>
      </trkpt>
      <trkpt lat="48.46016" lon="7.21758">
        <ele>474.1</ele>
        <time>2021-08-03T09:33:46Z</time>
      </trkpt>
      <trkpt lat="48.46016" lon="7.2176">
        <ele>474.1</ele>
        <time>2021-08-03T09:33:48Z</time>
      </trkpt>
      <trkpt lat="48.46017" lon="7.21761">
        <ele>474.2</ele>
        <time>2021-08-03T09:33:49Z</time>
      </trkpt>
      <trkpt lat="48.46017" lon="7.21762">
        <ele>474.3</ele>
        <time>2021-08-03T09:33:50Z</time>
      </trkpt>
      <trkpt lat="48.46019" lon="7.21764">
        <ele>474.5</ele>
        <time>2021-08-03T09:33:51Z</time>
      </trkpt>
      <trkpt lat="48.4602" lon="7.21764">
        <ele>474.5</ele>
        <time>2021-08-03T09:33:52Z</time>
      </trkpt>
      <trkpt lat="48.46021" lon="7.21765">
        <ele>474.6</ele>
        <time>2021-08-03T09:33:53Z</time>
      </trkpt>
      <trkpt lat="48.46023" lon="7.21766">
        <ele>474.9</ele>
        <time>2021-08-03T09:33:55Z</time>
      </trkpt>
      <trkpt lat="48.46024" lon="7.21767">
        <ele>474.9</ele>
        <time>2021-08-03T09:33:56Z</time>
      </trkpt>
      <trkpt lat="48.46026" lon="7.21767">
        <ele>475.1</ele>
        <time>2021-08-03T09:33:57Z</time>
      </trkpt>
      <trkpt lat="48.46029" lon="7.21767">
        <ele>475.3</ele>
        <time>2021-08-03T09:33:59Z</time>
      </trkpt>
      <trkpt lat="48.46032" lon="7.21768">
        <ele>475.6</ele>
        <time>2021-08-03T09:34:00Z</time>
      </trkpt>
      <trkpt lat="48.46033" lon="7.21768">
        <ele>475.7</ele>
        <time>2021-08-03T09:34:01Z</time>
      </trkpt>
      <trkpt lat="48.46037" lon="7.21769">
        <ele>476</ele>
        <time>2021-08-03T09:34:03Z</time>
      </trkpt>
      <trkpt lat="48.46038" lon="7.2177">
        <ele>476.1</ele>
        <time>2021-08-03T09:34:04Z</time>
      </trkpt>
      <trkpt lat="48.46039" lon="7.21771">
        <ele>476.2</ele>
        <time>2021-08-03T09:34:06Z</time>
      </trkpt>
      <trkpt lat="48.46039" lon="7.21772">
        <ele>476.3</ele>
        <time>2021-08-03T09:34:07Z</time>
      </trkpt>
      <trkpt lat="48.4604" lon="7.21773">
        <ele>476.4</ele>
        <time>2021-08-03T09:34:08Z</time>
      </trkpt>
      <trkpt lat="48.46041" lon="7.21774">
        <ele>476.4</ele>
        <time>2021-08-03T09:34:09Z</time>
      </trkpt>
      <trkpt lat="48.46041" lon="7.21776">
        <ele>476.5</ele>
        <time>2021-08-03T09:34:10Z</time>
      </trkpt>
      <trkpt lat="48.4604" lon="7.21777">
        <ele>476.6</ele>
        <time>2021-08-03T09:34:11Z</time>
      </trkpt>
      <trkpt lat="48.4604" lon="7.21779">
        <ele>476.7</ele>
        <time>2021-08-03T09:34:12Z</time>
      </trkpt>
      <trkpt lat="48.4604" lon="7.21781">
        <ele>476.8</ele>
        <time>2021-08-03T09:34:14Z</time>
      </trkpt>
      <trkpt lat="48.4604" lon="7.21783">
        <ele>476.9</ele>
        <time>2021-08-03T09:34:15Z</time>
      </trkpt>
      <trkpt lat="48.4604" lon="7.21786">
        <ele>477.1</ele>
        <time>2021-08-03T09:34:17Z</time>
      </trkpt>
      <trkpt lat="48.46039" lon="7.21787">
        <ele>477.1</ele>
        <time>2021-08-03T09:34:18Z</time>
      </trkpt>
      <trkpt lat="48.4604" lon="7.21789">
        <ele>477.2</ele>
        <time>2021-08-03T09:34:19Z</time>
      </trkpt>
      <trkpt lat="48.4604" lon="7.2179">
        <ele>477.3</ele>
        <time>2021-08-03T09:34:20Z</time>
      </trkpt>
      <trkpt lat="48.46042" lon="7.21792">
        <ele>477.4</ele>
        <time>2021-08-03T09:34:21Z</time>
      </trkpt>
      <trkpt lat="48.46043" lon="7.21793">
        <ele>477.5</ele>
        <time>2021-08-03T09:34:22Z</time>
      </trkpt>
      <trkpt lat="48.46044" lon="7.21794">
        <ele>477.6</ele>
        <time>2021-08-03T09:34:24Z</time>
      </trkpt>
      <trkpt lat="48.46046" lon="7.21795">
        <ele>477.7</ele>
        <time>2021-08-03T09:34:25Z</time>
      </trkpt>
      <trkpt lat="48.46047" lon="7.21796">
        <ele>477.8</ele>
        <time>2021-08-03T09:34:26Z</time>
      </trkpt>
      <trkpt lat="48.46048" lon="7.21797">
        <ele>478</ele>
        <time>2021-08-03T09:34:28Z</time>
      </trkpt>
      <trkpt lat="48.46051" lon="7.218">
        <ele>478.2</ele>
        <time>2021-08-03T09:34:29Z</time>
      </trkpt>
      <trkpt lat="48.46052" lon="7.218">
        <ele>478.2</ele>
        <time>2021-08-03T09:34:30Z</time>
      </trkpt>
      <trkpt lat="48.46053" lon="7.21802">
        <ele>478.3</ele>
        <time>2021-08-03T09:34:32Z</time>
      </trkpt>
      <trkpt lat="48.46055" lon="7.21803">
        <ele>478.4</ele>
        <time>2021-08-03T09:34:33Z</time>
      </trkpt>
      <trkpt lat="48.46056" lon="7.21806">
        <ele>478.6</ele>
        <time>2021-08-03T09:34:34Z</time>
      </trkpt>
      <trkpt lat="48.46057" lon="7.21807">
        <ele>478.7</ele>
        <time>2021-08-03T09:34:35Z</time>
      </trkpt>
      <trkpt lat="48.46059" lon="7.21808">
        <ele>478.8</ele>
        <time>2021-08-03T09:34:36Z</time>
      </trkpt>
      <trkpt lat="48.4606" lon="7.2181">
        <ele>478.9</ele>
        <time>2021-08-03T09:34:37Z</time>
      </trkpt>
      <trkpt lat="48.46063" lon="7.21812">
        <ele>479.1</ele>
        <time>2021-08-03T09:34:38Z</time>
      </trkpt>
      <trkpt lat="48.46064" lon="7.21812">
        <ele>479.1</ele>
        <time>2021-08-03T09:34:40Z</time>
      </trkpt>
      <trkpt lat="48.46065" lon="7.21813">
        <ele>479.2</ele>
        <time>2021-08-03T09:34:41Z</time>
      </trkpt>
      <trkpt lat="48.46066" lon="7.21814">
        <ele>479.3</ele>
        <time>2021-08-03T09:34:42Z</time>
      </trkpt>
      <trkpt lat="48.46067" lon="7.21814">
        <ele>479.4</ele>
        <time>2021-08-03T09:34:43Z</time>
      </trkpt>
      <trkpt lat="48.46068" lon="7.21815">
        <ele>479.5</ele>
        <time>2021-08-03T09:34:44Z</time>
      </trkpt>
      <trkpt lat="48.46071" lon="7.21817">
        <ele>479.7</ele>
        <time>2021-08-03T09:34:46Z</time>
      </trkpt>
      <trkpt lat="48.46073" lon="7.21818">
        <ele>479.8</ele>
        <time>2021-08-03T09:34:47Z</time>
      </trkpt>
      <trkpt lat="48.46075" lon="7.21819">
        <ele>480</ele>
        <time>2021-08-03T09:34:49Z</time>
      </trkpt>
      <trkpt lat="48.46078" lon="7.2182">
        <ele>480.2</ele>
        <time>2021-08-03T09:34:50Z</time>
      </trkpt>
      <trkpt lat="48.46079" lon="7.21821">
        <ele>480.2</ele>
        <time>2021-08-03T09:34:51Z</time>
      </trkpt>
      <trkpt lat="48.46082" lon="7.21822">
        <ele>480.4</ele>
        <time>2021-08-03T09:34:53Z</time>
      </trkpt>
      <trkpt lat="48.46083" lon="7.21823">
        <ele>480.5</ele>
        <time>2021-08-03T09:34:54Z</time>
      </trkpt>
      <trkpt lat="48.46085" lon="7.21824">
        <ele>480.7</ele>
        <time>2021-08-03T09:34:56Z</time>
      </trkpt>
      <trkpt lat="48.46086" lon="7.21825">
        <ele>480.8</ele>
        <time>2021-08-03T09:34:57Z</time>
      </trkpt>
      <trkpt lat="48.46087" lon="7.21827">
        <ele>480.9</ele>
        <time>2021-08-03T09:34:58Z</time>
      </trkpt>
      <trkpt lat="48.46088" lon="7.21827">
        <ele>480.9</ele>
        <time>2021-08-03T09:35:00Z</time>
      </trkpt>
      <trkpt lat="48.46089" lon="7.21828">
        <ele>481</ele>
        <time>2021-08-03T09:35:01Z</time>
      </trkpt>
      <trkpt lat="48.46089" lon="7.21829">
        <ele>481</ele>
        <time>2021-08-03T09:35:02Z</time>
      </trkpt>
      <trkpt lat="48.4609" lon="7.2183">
        <ele>481.1</ele>
        <time>2021-08-03T09:35:03Z</time>
      </trkpt>
      <trkpt lat="48.4609" lon="7.21831">
        <ele>481.2</ele>
        <time>2021-08-03T09:35:04Z</time>
      </trkpt>
      <trkpt lat="48.4609" lon="7.21832">
        <ele>481.2</ele>
        <time>2021-08-03T09:35:05Z</time>
      </trkpt>
      <trkpt lat="48.46089" lon="7.21832">
        <ele>481.2</ele>
        <time>2021-08-03T09:35:07Z</time>
      </trkpt>
      <trkpt lat="48.46089" lon="7.21833">
        <ele>481.3</ele>
        <time>2021-08-03T09:35:08Z</time>
      </trkpt>
      <trkpt lat="48.46089" lon="7.21833">
        <ele>481.3</ele>
        <time>2021-08-03T09:35:10Z</time>
      </trkpt>
      <trkpt lat="48.46089" lon="7.21834">
        <ele>481.3</ele>
        <time>2021-08-03T09:35:11Z</time>
      </trkpt>
      <trkpt lat="48.46089" lon="7.21834">
        <ele>481.3</ele>
        <time>2021-08-03T09:35:13Z</time>
      </trkpt>
      <trkpt lat="48.4609" lon="7.21834">
        <ele>481.4</ele>
        <time>2021-08-03T09:35:14Z</time>
      </trkpt>
      <trkpt lat="48.46116" lon="7.21863">
        <ele>482.5</ele>
        <time>2021-08-03T09:35:48Z</time>
      </trkpt>
      <trkpt lat="48.4612" lon="7.21865">
        <ele>482.6</ele>
        <time>2021-08-03T09:35:50Z</time>
      </trkpt>
      <trkpt lat="48.46123" lon="7.21866">
        <ele>482.6</ele>
        <time>2021-08-03T09:35:52Z</time>
      </trkpt>
      <trkpt lat="48.46128" lon="7.21867">
        <ele>482.6</ele>
        <time>2021-08-03T09:35:54Z</time>
      </trkpt>
      <trkpt lat="48.46131" lon="7.21868">
        <ele>482.6</ele>
        <time>2021-08-03T09:35:55Z</time>
      </trkpt>
      <trkpt lat="48.46133" lon="7.21868">
        <ele>482.6</ele>
        <time>2021-08-03T09:35:56Z</time>
      </trkpt>
      <trkpt lat="48.46134" lon="7.21869">
        <ele>482.6</ele>
        <time>2021-08-03T09:35:57Z</time>
      </trkpt>
      <trkpt lat="48.46136" lon="7.2187">
        <ele>482.6</ele>
        <time>2021-08-03T09:35:59Z</time>
      </trkpt>
      <trkpt lat="48.46138" lon="7.2187">
        <ele>482.5</ele>
        <time>2021-08-03T09:36:00Z</time>
      </trkpt>
      <trkpt lat="48.46139" lon="7.21871">
        <ele>482.5</ele>
        <time>2021-08-03T09:36:01Z</time>
      </trkpt>
      <trkpt lat="48.4614" lon="7.21871">
        <ele>482.5</ele>
        <time>2021-08-03T09:36:02Z</time>
      </trkpt>
      <trkpt lat="48.46141" lon="7.21871">
        <ele>482.5</ele>
        <time>2021-08-03T09:36:03Z</time>
      </trkpt>
      <trkpt lat="48.46143" lon="7.21872">
        <ele>482.5</ele>
        <time>2021-08-03T09:36:04Z</time>
      </trkpt>
      <trkpt lat="48.46144" lon="7.21872">
        <ele>482.5</ele>
        <time>2021-08-03T09:36:06Z</time>
      </trkpt>
      <trkpt lat="48.46147" lon="7.21873">
        <ele>482.5</ele>
        <time>2021-08-03T09:36:08Z</time>
      </trkpt>
      <trkpt lat="48.4615" lon="7.21873">
        <ele>482.4</ele>
        <time>2021-08-03T09:36:09Z</time>
      </trkpt>
      <trkpt lat="48.46151" lon="7.21873">
        <ele>482.4</ele>
        <time>2021-08-03T09:36:10Z</time>
      </trkpt>
      <trkpt lat="48.46156" lon="7.21875">
        <ele>482.4</ele>
        <time>2021-08-03T09:36:12Z</time>
      </trkpt>
      <trkpt lat="48.46158" lon="7.21875">
        <ele>482.4</ele>
        <time>2021-08-03T09:36:14Z</time>
      </trkpt>
      <trkpt lat="48.46161" lon="7.21876">
        <ele>482.3</ele>
        <time>2021-08-03T09:36:16Z</time>
      </trkpt>
      <trkpt lat="48.46163" lon="7.21878">
        <ele>482.3</ele>
        <time>2021-08-03T09:36:18Z</time>
      </trkpt>
      <trkpt lat="48.46166" lon="7.2188">
        <ele>482.3</ele>
        <time>2021-08-03T09:36:20Z</time>
      </trkpt>
      <trkpt lat="48.46167" lon="7.2188">
        <ele>482.3</ele>
        <time>2021-08-03T09:36:21Z</time>
      </trkpt>
      <trkpt lat="48.46169" lon="7.21881">
        <ele>482.3</ele>
        <time>2021-08-03T09:36:22Z</time>
      </trkpt>
      <trkpt lat="48.46169" lon="7.21882">
        <ele>482.3</ele>
        <time>2021-08-03T09:36:25Z</time>
      </trkpt>
      <trkpt lat="48.46168" lon="7.21883">
        <ele>482.3</ele>
        <time>2021-08-03T09:36:26Z</time>
      </trkpt>
      <trkpt lat="48.46167" lon="7.21884">
        <ele>482.3</ele>
        <time>2021-08-03T09:36:27Z</time>
      </trkpt>
      <trkpt lat="48.46168" lon="7.21884">
        <ele>482.3</ele>
        <time>2021-08-03T09:36:28Z</time>
      </trkpt>
      <trkpt lat="48.46168" lon="7.21885">
        <ele>482.3</ele>
        <time>2021-08-03T09:36:29Z</time>
      </trkpt>
      <trkpt lat="48.46169" lon="7.21885">
        <ele>482.3</ele>
        <time>2021-08-03T09:36:30Z</time>
      </trkpt>
      <trkpt lat="48.46169" lon="7.21885">
        <ele>482.3</ele>
        <time>2021-08-03T09:36:31Z</time>
      </trkpt>
      <trkpt lat="48.46169" lon="7.21884">
        <ele>482.3</ele>
        <time>2021-08-03T09:36:32Z</time>
      </trkpt>
      <trkpt lat="48.46169" lon="7.21883">
        <ele>482.3</ele>
        <time>2021-08-03T09:36:33Z</time>
      </trkpt>
      <trkpt lat="48.46169" lon="7.21883">
        <ele>482.3</ele>
        <time>2021-08-03T09:36:35Z</time>
      </trkpt>
      <trkpt lat="48.4617" lon="7.21882">
        <ele>482.3</ele>
        <time>2021-08-03T09:36:36Z</time>
      </trkpt>
      <trkpt lat="48.46171" lon="7.21881">
        <ele>482.3</ele>
        <time>2021-08-03T09:36:38Z</time>
      </trkpt>
      <trkpt lat="48.46173" lon="7.2188">
        <ele>482.3</ele>
        <time>2021-08-03T09:36:39Z</time>
      </trkpt>
      <trkpt lat="48.46175" lon="7.2188">
        <ele>482.2</ele>
        <time>2021-08-03T09:36:41Z</time>
      </trkpt>
      <trkpt lat="48.46189" lon="7.21874">
        <ele>482.2</ele>
        <time>2021-08-03T09:36:51Z</time>
      </trkpt>
      <trkpt lat="48.46193" lon="7.21871">
        <ele>482.1</ele>
        <time>2021-08-03T09:36:53Z</time>
      </trkpt>
      <trkpt lat="48.46195" lon="7.21871">
        <ele>482.1</ele>
        <time>2021-08-03T09:36:54Z</time>
      </trkpt>
      <trkpt lat="48.46197" lon="7.21872">
        <ele>482.1</ele>
        <time>2021-08-03T09:36:55Z</time>
      </trkpt>
      <trkpt lat="48.46199" lon="7.21874">
        <ele>482</ele>
        <time>2021-08-03T09:36:57Z</time>
      </trkpt>
      <trkpt lat="48.46199" lon="7.21875">
        <ele>482</ele>
        <time>2021-08-03T09:36:58Z</time>
      </trkpt>
      <trkpt lat="48.46199" lon="7.21876">
        <ele>482</ele>
        <time>2021-08-03T09:36:59Z</time>
      </trkpt>
      <trkpt lat="48.462" lon="7.21875">
        <ele>482</ele>
        <time>2021-08-03T09:37:00Z</time>
      </trkpt>
      <trkpt lat="48.462" lon="7.21875">
        <ele>482</ele>
        <time>2021-08-03T09:37:01Z</time>
      </trkpt>
      <trkpt lat="48.46201" lon="7.21875">
        <ele>482</ele>
        <time>2021-08-03T09:37:02Z</time>
      </trkpt>
      <trkpt lat="48.46202" lon="7.21875">
        <ele>482</ele>
        <time>2021-08-03T09:37:04Z</time>
      </trkpt>
      <trkpt lat="48.46203" lon="7.21874">
        <ele>482</ele>
        <time>2021-08-03T09:37:05Z</time>
      </trkpt>
      <trkpt lat="48.46204" lon="7.21873">
        <ele>481.9</ele>
        <time>2021-08-03T09:37:06Z</time>
      </trkpt>
      <trkpt lat="48.46202" lon="7.21874">
        <ele>481.9</ele>
        <time>2021-08-03T09:37:08Z</time>
      </trkpt>
      <trkpt lat="48.46202" lon="7.21875">
        <ele>481.9</ele>
        <time>2021-08-03T09:37:09Z</time>
      </trkpt>
      <trkpt lat="48.46201" lon="7.21875">
        <ele>481.9</ele>
        <time>2021-08-03T09:37:11Z</time>
      </trkpt>
      <trkpt lat="48.46202" lon="7.21874">
        <ele>481.9</ele>
        <time>2021-08-03T09:37:12Z</time>
      </trkpt>
      <trkpt lat="48.462" lon="7.21876">
        <ele>481.9</ele>
        <time>2021-08-03T09:37:14Z</time>
      </trkpt>
      <trkpt lat="48.46199" lon="7.21876">
        <ele>481.9</ele>
        <time>2021-08-03T09:37:15Z</time>
      </trkpt>
      <trkpt lat="48.46199" lon="7.21875">
        <ele>481.8</ele>
        <time>2021-08-03T09:37:16Z</time>
      </trkpt>
      <trkpt lat="48.46197" lon="7.21875">
        <ele>481.8</ele>
        <time>2021-08-03T09:37:18Z</time>
      </trkpt>
      <trkpt lat="48.46196" lon="7.21873">
        <ele>481.8</ele>
        <time>2021-08-03T09:37:20Z</time>
      </trkpt>
      <trkpt lat="48.46199" lon="7.21874">
        <ele>481.8</ele>
        <time>2021-08-03T09:37:21Z</time>
      </trkpt>
      <trkpt lat="48.46203" lon="7.21876">
        <ele>481.8</ele>
        <time>2021-08-03T09:37:22Z</time>
      </trkpt>
      <trkpt lat="48.46206" lon="7.21877">
        <ele>481.8</ele>
        <time>2021-08-03T09:37:23Z</time>
      </trkpt>
      <trkpt lat="48.4621" lon="7.21879">
        <ele>481.8</ele>
        <time>2021-08-03T09:37:25Z</time>
      </trkpt>
      <trkpt lat="48.46213" lon="7.2188">
        <ele>481.9</ele>
        <time>2021-08-03T09:38:31Z</time>
      </trkpt>
      <trkpt lat="48.46217" lon="7.21881">
        <ele>482</ele>
        <time>2021-08-03T09:38:32Z</time>
      </trkpt>
      <trkpt lat="48.46222" lon="7.21885">
        <ele>482.3</ele>
        <time>2021-08-03T09:38:34Z</time>
      </trkpt>
      <trkpt lat="48.46225" lon="7.21886">
        <ele>482.5</ele>
        <time>2021-08-03T09:38:35Z</time>
      </trkpt>
      <trkpt lat="48.4623" lon="7.21889">
        <ele>482.8</ele>
        <time>2021-08-03T09:38:37Z</time>
      </trkpt>
      <trkpt lat="48.46233" lon="7.21892">
        <ele>482.9</ele>
        <time>2021-08-03T09:38:39Z</time>
      </trkpt>
      <trkpt lat="48.46236" lon="7.21896">
        <ele>483.2</ele>
        <time>2021-08-03T09:38:40Z</time>
      </trkpt>
      <trkpt lat="48.46236" lon="7.21897">
        <ele>483.3</ele>
        <time>2021-08-03T09:38:41Z</time>
      </trkpt>
      <trkpt lat="48.46238" lon="7.21899">
        <ele>483.5</ele>
        <time>2021-08-03T09:38:43Z</time>
      </trkpt>
      <trkpt lat="48.46239" lon="7.219">
        <ele>483.6</ele>
        <time>2021-08-03T09:38:44Z</time>
      </trkpt>
      <trkpt lat="48.4624" lon="7.21904">
        <ele>483.8</ele>
        <time>2021-08-03T09:38:46Z</time>
      </trkpt>
      <trkpt lat="48.46241" lon="7.21907">
        <ele>484</ele>
        <time>2021-08-03T09:38:48Z</time>
      </trkpt>
      <trkpt lat="48.46242" lon="7.21909">
        <ele>484.2</ele>
        <time>2021-08-03T09:38:49Z</time>
      </trkpt>
      <trkpt lat="48.46242" lon="7.21911">
        <ele>484.3</ele>
        <time>2021-08-03T09:38:51Z</time>
      </trkpt>
      <trkpt lat="48.46243" lon="7.21913">
        <ele>484.4</ele>
        <time>2021-08-03T09:38:52Z</time>
      </trkpt>
      <trkpt lat="48.46245" lon="7.21915">
        <ele>484.6</ele>
        <time>2021-08-03T09:38:54Z</time>
      </trkpt>
      <trkpt lat="48.46246" lon="7.21916">
        <ele>484.7</ele>
        <time>2021-08-03T09:38:55Z</time>
      </trkpt>
      <trkpt lat="48.46248" lon="7.21919">
        <ele>485</ele>
        <time>2021-08-03T09:38:57Z</time>
      </trkpt>
      <trkpt lat="48.46249" lon="7.21921">
        <ele>485.1</ele>
        <time>2021-08-03T09:38:58Z</time>
      </trkpt>
      <trkpt lat="48.4625" lon="7.21923">
        <ele>485.2</ele>
        <time>2021-08-03T09:39:00Z</time>
      </trkpt>
      <trkpt lat="48.4625" lon="7.21924">
        <ele>485.3</ele>
        <time>2021-08-03T09:39:01Z</time>
      </trkpt>
      <trkpt lat="48.46252" lon="7.21927">
        <ele>485.5</ele>
        <time>2021-08-03T09:39:03Z</time>
      </trkpt>
      <trkpt lat="48.46252" lon="7.21927">
        <ele>485.5</ele>
        <time>2021-08-03T09:39:04Z</time>
      </trkpt>
      <trkpt lat="48.46253" lon="7.21929">
        <ele>485.6</ele>
        <time>2021-08-03T09:39:06Z</time>
      </trkpt>
      <trkpt lat="48.46253" lon="7.2193">
        <ele>485.7</ele>
        <time>2021-08-03T09:39:07Z</time>
      </trkpt>
      <trkpt lat="48.46256" lon="7.21933">
        <ele>485.9</ele>
        <time>2021-08-03T09:39:09Z</time>
      </trkpt>
      <trkpt lat="48.46256" lon="7.21933">
        <ele>486</ele>
        <time>2021-08-03T09:39:10Z</time>
      </trkpt>
      <trkpt lat="48.46257" lon="7.21934">
        <ele>486</ele>
        <time>2021-08-03T09:39:11Z</time>
      </trkpt>
      <trkpt lat="48.4626" lon="7.21936">
        <ele>486.3</ele>
        <time>2021-08-03T09:39:13Z</time>
      </trkpt>
      <trkpt lat="48.46263" lon="7.21939">
        <ele>486.5</ele>
        <time>2021-08-03T09:39:15Z</time>
      </trkpt>
      <trkpt lat="48.46264" lon="7.2194">
        <ele>486.6</ele>
        <time>2021-08-03T09:39:16Z</time>
      </trkpt>
      <trkpt lat="48.46265" lon="7.21942">
        <ele>486.7</ele>
        <time>2021-08-03T09:39:18Z</time>
      </trkpt>
      <trkpt lat="48.46265" lon="7.21945">
        <ele>486.9</ele>
        <time>2021-08-03T09:39:20Z</time>
      </trkpt>
      <trkpt lat="48.46267" lon="7.21945">
        <ele>487.1</ele>
        <time>2021-08-03T09:39:21Z</time>
      </trkpt>
      <trkpt lat="48.46268" lon="7.21944">
        <ele>487.2</ele>
        <time>2021-08-03T09:39:22Z</time>
      </trkpt>
      <trkpt lat="48.46271" lon="7.21943">
        <ele>487.4</ele>
        <time>2021-08-03T09:39:23Z</time>
      </trkpt>
      <trkpt lat="48.46273" lon="7.21943">
        <ele>487.6</ele>
        <time>2021-08-03T09:39:25Z</time>
      </trkpt>
      <trkpt lat="48.46274" lon="7.21943">
        <ele>487.7</ele>
        <time>2021-08-03T09:39:26Z</time>
      </trkpt>
      <trkpt lat="48.46276" lon="7.21944">
        <ele>487.9</ele>
        <time>2021-08-03T09:39:27Z</time>
      </trkpt>
      <trkpt lat="48.46277" lon="7.21946">
        <ele>488</ele>
        <time>2021-08-03T09:39:28Z</time>
      </trkpt>
      <trkpt lat="48.46277" lon="7.21947">
        <ele>488.1</ele>
        <time>2021-08-03T09:39:29Z</time>
      </trkpt>
      <trkpt lat="48.46277" lon="7.2195">
        <ele>488.3</ele>
        <time>2021-08-03T09:39:31Z</time>
      </trkpt>
      <trkpt lat="48.46276" lon="7.2195">
        <ele>488.4</ele>
        <time>2021-08-03T09:39:32Z</time>
      </trkpt>
      <trkpt lat="48.46277" lon="7.21952">
        <ele>488.5</ele>
        <time>2021-08-03T09:39:33Z</time>
      </trkpt>
      <trkpt lat="48.46276" lon="7.21953">
        <ele>488.6</ele>
        <time>2021-08-03T09:39:34Z</time>
      </trkpt>
      <trkpt lat="48.46276" lon="7.21953">
        <ele>488.6</ele>
        <time>2021-08-03T09:39:35Z</time>
      </trkpt>
      <trkpt lat="48.46275" lon="7.21953">
        <ele>488.7</ele>
        <time>2021-08-03T09:39:36Z</time>
      </trkpt>
      <trkpt lat="48.46275" lon="7.21954">
        <ele>488.7</ele>
        <time>2021-08-03T09:39:38Z</time>
      </trkpt>
      <trkpt lat="48.46275" lon="7.21954">
        <ele>488.7</ele>
        <time>2021-08-03T09:39:39Z</time>
      </trkpt>
      <trkpt lat="48.46275" lon="7.21955">
        <ele>488.8</ele>
        <time>2021-08-03T09:39:40Z</time>
      </trkpt>
      <trkpt lat="48.46276" lon="7.21955">
        <ele>488.8</ele>
        <time>2021-08-03T09:39:41Z</time>
      </trkpt>
      <trkpt lat="48.46277" lon="7.21956">
        <ele>488.9</ele>
        <time>2021-08-03T09:39:42Z</time>
      </trkpt>
      <trkpt lat="48.46278" lon="7.21956">
        <ele>489</ele>
        <time>2021-08-03T09:39:43Z</time>
      </trkpt>
      <trkpt lat="48.46288" lon="7.21965">
        <ele>490.1</ele>
        <time>2021-08-03T09:39:52Z</time>
      </trkpt>
      <trkpt lat="48.46289" lon="7.21967">
        <ele>490.2</ele>
        <time>2021-08-03T09:39:53Z</time>
      </trkpt>
      <trkpt lat="48.46291" lon="7.21969">
        <ele>490.4</ele>
        <time>2021-08-03T09:39:55Z</time>
      </trkpt>
      <trkpt lat="48.46292" lon="7.21973">
        <ele>490.5</ele>
        <time>2021-08-03T09:39:56Z</time>
      </trkpt>
      <trkpt lat="48.46293" lon="7.21975">
        <ele>490.6</ele>
        <time>2021-08-03T09:39:57Z</time>
      </trkpt>
      <trkpt lat="48.46294" lon="7.21978">
        <ele>490.8</ele>
        <time>2021-08-03T09:39:58Z</time>
      </trkpt>
      <trkpt lat="48.46295" lon="7.21981">
        <ele>491</ele>
        <time>2021-08-03T09:40:00Z</time>
      </trkpt>
      <trkpt lat="48.46295" lon="7.21984">
        <ele>491.1</ele>
        <time>2021-08-03T09:40:01Z</time>
      </trkpt>
      <trkpt lat="48.46294" lon="7.21986">
        <ele>491.2</ele>
        <time>2021-08-03T09:40:02Z</time>
      </trkpt>
      <trkpt lat="48.46295" lon="7.21989">
        <ele>491.4</ele>
        <time>2021-08-03T09:40:03Z</time>
      </trkpt>
      <trkpt lat="48.46295" lon="7.21991">
        <ele>491.6</ele>
        <time>2021-08-03T09:40:04Z</time>
      </trkpt>
      <trkpt lat="48.46296" lon="7.21993">
        <ele>491.7</ele>
        <time>2021-08-03T09:40:06Z</time>
      </trkpt>
      <trkpt lat="48.46297" lon="7.21994">
        <ele>491.8</ele>
        <time>2021-08-03T09:40:07Z</time>
      </trkpt>
      <trkpt lat="48.46298" lon="7.21996">
        <ele>491.9</ele>
        <time>2021-08-03T09:40:09Z</time>
      </trkpt>
      <trkpt lat="48.46298" lon="7.21998">
        <ele>492.1</ele>
        <time>2021-08-03T09:40:10Z</time>
      </trkpt>
      <trkpt lat="48.46299" lon="7.22001">
        <ele>492.2</ele>
        <time>2021-08-03T09:40:11Z</time>
      </trkpt>
      <trkpt lat="48.46299" lon="7.22003">
        <ele>492.4</ele>
        <time>2021-08-03T09:40:12Z</time>
      </trkpt>
      <trkpt lat="48.46299" lon="7.22005">
        <ele>492.5</ele>
        <time>2021-08-03T09:40:13Z</time>
      </trkpt>
      <trkpt lat="48.46299" lon="7.22007">
        <ele>492.6</ele>
        <time>2021-08-03T09:40:14Z</time>
      </trkpt>
      <trkpt lat="48.463" lon="7.22012">
        <ele>492.9</ele>
        <time>2021-08-03T09:40:15Z</time>
      </trkpt>
      <trkpt lat="48.46301" lon="7.22014">
        <ele>493</ele>
        <time>2021-08-03T09:40:16Z</time>
      </trkpt>
      <trkpt lat="48.46301" lon="7.22016">
        <ele>493.1</ele>
        <time>2021-08-03T09:40:17Z</time>
      </trkpt>
      <trkpt lat="48.46302" lon="7.22019">
        <ele>493.3</ele>
        <time>2021-08-03T09:40:19Z</time>
      </trkpt>
      <trkpt lat="48.46303" lon="7.22022">
        <ele>493.4</ele>
        <time>2021-08-03T09:40:20Z</time>
      </trkpt>
      <trkpt lat="48.46304" lon="7.22023">
        <ele>493.6</ele>
        <time>2021-08-03T09:40:21Z</time>
      </trkpt>
      <trkpt lat="48.46306" lon="7.22024">
        <ele>493.7</ele>
        <time>2021-08-03T09:40:22Z</time>
      </trkpt>
      <trkpt lat="48.46309" lon="7.22026">
        <ele>493.9</ele>
        <time>2021-08-03T09:40:24Z</time>
      </trkpt>
      <trkpt lat="48.46309" lon="7.22027">
        <ele>494</ele>
        <time>2021-08-03T09:40:25Z</time>
      </trkpt>
      <trkpt lat="48.46309" lon="7.22029">
        <ele>494.2</ele>
        <time>2021-08-03T09:40:26Z</time>
      </trkpt>
      <trkpt lat="48.46308" lon="7.22031">
        <ele>494.3</ele>
        <time>2021-08-03T09:40:29Z</time>
      </trkpt>
      <trkpt lat="48.46306" lon="7.2203">
        <ele>494.4</ele>
        <time>2021-08-03T09:40:30Z</time>
      </trkpt>
      <trkpt lat="48.46305" lon="7.2203">
        <ele>494.5</ele>
        <time>2021-08-03T09:40:31Z</time>
      </trkpt>
      <trkpt lat="48.46305" lon="7.22031">
        <ele>494.6</ele>
        <time>2021-08-03T09:40:32Z</time>
      </trkpt>
      <trkpt lat="48.46305" lon="7.22032">
        <ele>494.7</ele>
        <time>2021-08-03T09:40:33Z</time>
      </trkpt>
      <trkpt lat="48.46305" lon="7.22034">
        <ele>494.8</ele>
        <time>2021-08-03T09:40:35Z</time>
      </trkpt>
      <trkpt lat="48.46306" lon="7.22035">
        <ele>494.9</ele>
        <time>2021-08-03T09:40:36Z</time>
      </trkpt>
      <trkpt lat="48.46307" lon="7.22035">
        <ele>495</ele>
        <time>2021-08-03T09:40:37Z</time>
      </trkpt>
      <trkpt lat="48.46307" lon="7.22036">
        <ele>495</ele>
        <time>2021-08-03T09:40:38Z</time>
      </trkpt>
      <trkpt lat="48.46308" lon="7.22036">
        <ele>495.1</ele>
        <time>2021-08-03T09:40:39Z</time>
      </trkpt>
      <trkpt lat="48.4631" lon="7.22037">
        <ele>495.3</ele>
        <time>2021-08-03T09:40:41Z</time>
      </trkpt>
      <trkpt lat="48.46313" lon="7.22041">
        <ele>495.7</ele>
        <time>2021-08-03T09:40:43Z</time>
      </trkpt>
      <trkpt lat="48.46314" lon="7.22043">
        <ele>495.8</ele>
        <time>2021-08-03T09:40:44Z</time>
      </trkpt>
      <trkpt lat="48.46314" lon="7.22044">
        <ele>495.9</ele>
        <time>2021-08-03T09:40:45Z</time>
      </trkpt>
      <trkpt lat="48.46315" lon="7.22046">
        <ele>496</ele>
        <time>2021-08-03T09:40:46Z</time>
      </trkpt>
      <trkpt lat="48.46315" lon="7.22048">
        <ele>496.1</ele>
        <time>2021-08-03T09:40:47Z</time>
      </trkpt>
      <trkpt lat="48.46316" lon="7.22052">
        <ele>496.4</ele>
        <time>2021-08-03T09:40:49Z</time>
      </trkpt>
      <trkpt lat="48.46316" lon="7.22053">
        <ele>496.5</ele>
        <time>2021-08-03T09:40:50Z</time>
      </trkpt>
      <trkpt lat="48.46316" lon="7.22056">
        <ele>496.7</ele>
        <time>2021-08-03T09:40:51Z</time>
      </trkpt>
      <trkpt lat="48.46316" lon="7.22059">
        <ele>496.8</ele>
        <time>2021-08-03T09:40:52Z</time>
      </trkpt>
      <trkpt lat="48.46317" lon="7.22065">
        <ele>497.2</ele>
        <time>2021-08-03T09:40:54Z</time>
      </trkpt>
      <trkpt lat="48.46318" lon="7.22069">
        <ele>497.5</ele>
        <time>2021-08-03T09:40:55Z</time>
      </trkpt>
      <trkpt lat="48.46318" lon="7.2207">
        <ele>497.5</ele>
        <time>2021-08-03T09:40:56Z</time>
      </trkpt>
      <trkpt lat="48.46318" lon="7.22076">
        <ele>497.9</ele>
        <time>2021-08-03T09:40:57Z</time>
      </trkpt>
      <trkpt lat="48.46317" lon="7.22078">
        <ele>498</ele>
        <time>2021-08-03T09:40:58Z</time>
      </trkpt>
      <trkpt lat="48.46314" lon="7.22079">
        <ele>498.3</ele>
        <time>2021-08-03T09:40:59Z</time>
      </trkpt>
      <trkpt lat="48.46311" lon="7.22081">
        <ele>498.6</ele>
        <time>2021-08-03T09:41:01Z</time>
      </trkpt>
      <trkpt lat="48.4631" lon="7.22083">
        <ele>498.8</ele>
        <time>2021-08-03T09:41:02Z</time>
      </trkpt>
      <trkpt lat="48.46309" lon="7.22084">
        <ele>498.9</ele>
        <time>2021-08-03T09:41:03Z</time>
      </trkpt>
      <trkpt lat="48.46307" lon="7.22087">
        <ele>499.1</ele>
        <time>2021-08-03T09:41:04Z</time>
      </trkpt>
      <trkpt lat="48.46307" lon="7.22089">
        <ele>499.2</ele>
        <time>2021-08-03T09:41:05Z</time>
      </trkpt>
      <trkpt lat="48.46306" lon="7.22091">
        <ele>499.4</ele>
        <time>2021-08-03T09:41:06Z</time>
      </trkpt>
      <trkpt lat="48.46306" lon="7.22097">
        <ele>499.7</ele>
        <time>2021-08-03T09:41:07Z</time>
      </trkpt>
      <trkpt lat="48.46306" lon="7.22098">
        <ele>499.7</ele>
        <time>2021-08-03T09:41:08Z</time>
      </trkpt>
      <trkpt lat="48.46306" lon="7.22103">
        <ele>500</ele>
        <time>2021-08-03T09:41:09Z</time>
      </trkpt>
      <trkpt lat="48.46307" lon="7.22109">
        <ele>500.3</ele>
        <time>2021-08-03T09:41:11Z</time>
      </trkpt>
      <trkpt lat="48.46307" lon="7.2211">
        <ele>500.4</ele>
        <time>2021-08-03T09:41:12Z</time>
      </trkpt>
      <trkpt lat="48.46307" lon="7.22112">
        <ele>500.5</ele>
        <time>2021-08-03T09:41:13Z</time>
      </trkpt>
      <trkpt lat="48.46307" lon="7.22116">
        <ele>500.7</ele>
        <time>2021-08-03T09:41:15Z</time>
      </trkpt>
      <trkpt lat="48.46308" lon="7.22119">
        <ele>500.9</ele>
        <time>2021-08-03T09:41:16Z</time>
      </trkpt>
      <trkpt lat="48.46311" lon="7.22123">
        <ele>501.2</ele>
        <time>2021-08-03T09:41:18Z</time>
      </trkpt>
      <trkpt lat="48.46314" lon="7.22126">
        <ele>501.5</ele>
        <time>2021-08-03T09:41:19Z</time>
      </trkpt>
      <trkpt lat="48.46317" lon="7.2213">
        <ele>501.8</ele>
        <time>2021-08-03T09:41:21Z</time>
      </trkpt>
      <trkpt lat="48.46318" lon="7.22132">
        <ele>502</ele>
        <time>2021-08-03T09:41:22Z</time>
      </trkpt>
      <trkpt lat="48.4632" lon="7.22136">
        <ele>502.2</ele>
        <time>2021-08-03T09:41:24Z</time>
      </trkpt>
      <trkpt lat="48.46321" lon="7.22138">
        <ele>502.4</ele>
        <time>2021-08-03T09:41:25Z</time>
      </trkpt>
      <trkpt lat="48.46323" lon="7.2214">
        <ele>502.6</ele>
        <time>2021-08-03T09:41:27Z</time>
      </trkpt>
      <trkpt lat="48.46323" lon="7.22142">
        <ele>502.7</ele>
        <time>2021-08-03T09:41:28Z</time>
      </trkpt>
      <trkpt lat="48.46324" lon="7.22144">
        <ele>502.8</ele>
        <time>2021-08-03T09:41:29Z</time>
      </trkpt>
      <trkpt lat="48.46324" lon="7.22146">
        <ele>503</ele>
        <time>2021-08-03T09:41:30Z</time>
      </trkpt>
      <trkpt lat="48.46323" lon="7.2215">
        <ele>503.2</ele>
        <time>2021-08-03T09:41:32Z</time>
      </trkpt>
      <trkpt lat="48.46322" lon="7.22152">
        <ele>503.4</ele>
        <time>2021-08-03T09:41:33Z</time>
      </trkpt>
      <trkpt lat="48.4632" lon="7.22156">
        <ele>503.7</ele>
        <time>2021-08-03T09:41:35Z</time>
      </trkpt>
      <trkpt lat="48.46319" lon="7.22158">
        <ele>503.8</ele>
        <time>2021-08-03T09:41:36Z</time>
      </trkpt>
      <trkpt lat="48.46317" lon="7.22161">
        <ele>504.1</ele>
        <time>2021-08-03T09:41:38Z</time>
      </trkpt>
      <trkpt lat="48.46316" lon="7.22161">
        <ele>504.2</ele>
        <time>2021-08-03T09:41:39Z</time>
      </trkpt>
      <trkpt lat="48.46315" lon="7.22163">
        <ele>504.3</ele>
        <time>2021-08-03T09:41:40Z</time>
      </trkpt>
      <trkpt lat="48.46314" lon="7.22164">
        <ele>504.5</ele>
        <time>2021-08-03T09:41:42Z</time>
      </trkpt>
      <trkpt lat="48.46313" lon="7.22166">
        <ele>504.6</ele>
        <time>2021-08-03T09:41:44Z</time>
      </trkpt>
      <trkpt lat="48.46312" lon="7.22166">
        <ele>504.7</ele>
        <time>2021-08-03T09:41:45Z</time>
      </trkpt>
      <trkpt lat="48.46309" lon="7.22168">
        <ele>505</ele>
        <time>2021-08-03T09:41:47Z</time>
      </trkpt>
      <trkpt lat="48.46308" lon="7.22168">
        <ele>505.1</ele>
        <time>2021-08-03T09:41:48Z</time>
      </trkpt>
      <trkpt lat="48.46304" lon="7.22172">
        <ele>505.4</ele>
        <time>2021-08-03T09:41:50Z</time>
      </trkpt>
      <trkpt lat="48.46301" lon="7.22175">
        <ele>505.7</ele>
        <time>2021-08-03T09:41:51Z</time>
      </trkpt>
      <trkpt lat="48.463" lon="7.22177">
        <ele>505.8</ele>
        <time>2021-08-03T09:41:52Z</time>
      </trkpt>
      <trkpt lat="48.46296" lon="7.22181">
        <ele>506.2</ele>
        <time>2021-08-03T09:41:54Z</time>
      </trkpt>
      <trkpt lat="48.46293" lon="7.22185">
        <ele>506.5</ele>
        <time>2021-08-03T09:41:56Z</time>
      </trkpt>
      <trkpt lat="48.46293" lon="7.22186">
        <ele>506.6</ele>
        <time>2021-08-03T09:41:57Z</time>
      </trkpt>
      <trkpt lat="48.46293" lon="7.22187">
        <ele>506.7</ele>
        <time>2021-08-03T09:41:58Z</time>
      </trkpt>
      <trkpt lat="48.46292" lon="7.2219">
        <ele>506.8</ele>
        <time>2021-08-03T09:41:59Z</time>
      </trkpt>
      <trkpt lat="48.46292" lon="7.22191">
        <ele>506.9</ele>
        <time>2021-08-03T09:42:00Z</time>
      </trkpt>
      <trkpt lat="48.46292" lon="7.22192">
        <ele>507</ele>
        <time>2021-08-03T09:42:01Z</time>
      </trkpt>
      <trkpt lat="48.46292" lon="7.22194">
        <ele>507.1</ele>
        <time>2021-08-03T09:42:03Z</time>
      </trkpt>
      <trkpt lat="48.46292" lon="7.22195">
        <ele>507.2</ele>
        <time>2021-08-03T09:42:04Z</time>
      </trkpt>
      <trkpt lat="48.46291" lon="7.22196">
        <ele>507.3</ele>
        <time>2021-08-03T09:42:05Z</time>
      </trkpt>
      <trkpt lat="48.46291" lon="7.22198">
        <ele>507.4</ele>
        <time>2021-08-03T09:42:06Z</time>
      </trkpt>
      <trkpt lat="48.4629" lon="7.22201">
        <ele>507.6</ele>
        <time>2021-08-03T09:42:08Z</time>
      </trkpt>
      <trkpt lat="48.46287" lon="7.22208">
        <ele>508.2</ele>
        <time>2021-08-03T09:42:12Z</time>
      </trkpt>
      <trkpt lat="48.46286" lon="7.22212">
        <ele>508.5</ele>
        <time>2021-08-03T09:42:13Z</time>
      </trkpt>
      <trkpt lat="48.46286" lon="7.22213">
        <ele>508.6</ele>
        <time>2021-08-03T09:42:14Z</time>
      </trkpt>
      <trkpt lat="48.46286" lon="7.2222">
        <ele>509.1</ele>
        <time>2021-08-03T09:42:15Z</time>
      </trkpt>
      <trkpt lat="48.46287" lon="7.22223">
        <ele>509.3</ele>
        <time>2021-08-03T09:42:16Z</time>
      </trkpt>
      <trkpt lat="48.46288" lon="7.22225">
        <ele>509.5</ele>
        <time>2021-08-03T09:42:18Z</time>
      </trkpt>
      <trkpt lat="48.46288" lon="7.22228">
        <ele>509.7</ele>
        <time>2021-08-03T09:42:19Z</time>
      </trkpt>
      <trkpt lat="48.46287" lon="7.22232">
        <ele>510</ele>
        <time>2021-08-03T09:42:21Z</time>
      </trkpt>
      <trkpt lat="48.46287" lon="7.22233">
        <ele>510</ele>
        <time>2021-08-03T09:42:22Z</time>
      </trkpt>
      <trkpt lat="48.46287" lon="7.22234">
        <ele>510.1</ele>
        <time>2021-08-03T09:42:23Z</time>
      </trkpt>
      <trkpt lat="48.46287" lon="7.22234">
        <ele>510.2</ele>
        <time>2021-08-03T09:42:24Z</time>
      </trkpt>
      <trkpt lat="48.46286" lon="7.22234">
        <ele>510.2</ele>
        <time>2021-08-03T09:42:25Z</time>
      </trkpt>
      <trkpt lat="48.46285" lon="7.22236">
        <ele>510.4</ele>
        <time>2021-08-03T09:42:27Z</time>
      </trkpt>
      <trkpt lat="48.46284" lon="7.22237">
        <ele>510.6</ele>
        <time>2021-08-03T09:42:29Z</time>
      </trkpt>
      <trkpt lat="48.46283" lon="7.22239">
        <ele>510.8</ele>
        <time>2021-08-03T09:42:30Z</time>
      </trkpt>
      <trkpt lat="48.46283" lon="7.22241">
        <ele>510.9</ele>
        <time>2021-08-03T09:42:31Z</time>
      </trkpt>
      <trkpt lat="48.46282" lon="7.22242">
        <ele>511</ele>
        <time>2021-08-03T09:42:32Z</time>
      </trkpt>
      <trkpt lat="48.46282" lon="7.22244">
        <ele>511.2</ele>
        <time>2021-08-03T09:42:33Z</time>
      </trkpt>
      <trkpt lat="48.46282" lon="7.22244">
        <ele>511.2</ele>
        <time>2021-08-03T09:42:35Z</time>
      </trkpt>
      <trkpt lat="48.46282" lon="7.22244">
        <ele>511.2</ele>
        <time>2021-08-03T09:42:36Z</time>
      </trkpt>
      <trkpt lat="48.46282" lon="7.22244">
        <ele>511.2</ele>
        <time>2021-08-03T09:42:37Z</time>
      </trkpt>
      <trkpt lat="48.46282" lon="7.22245">
        <ele>511.3</ele>
        <time>2021-08-03T09:42:38Z</time>
      </trkpt>
      <trkpt lat="48.46283" lon="7.22247">
        <ele>511.5</ele>
        <time>2021-08-03T09:42:40Z</time>
      </trkpt>
      <trkpt lat="48.46283" lon="7.22248">
        <ele>511.6</ele>
        <time>2021-08-03T09:42:41Z</time>
      </trkpt>
      <trkpt lat="48.46284" lon="7.2225">
        <ele>511.7</ele>
        <time>2021-08-03T09:42:42Z</time>
      </trkpt>
      <trkpt lat="48.46292" lon="7.22262">
        <ele>513</ele>
        <time>2021-08-03T09:42:43Z</time>
      </trkpt>
      <trkpt lat="48.46301" lon="7.22271">
        <ele>514.2</ele>
        <time>2021-08-03T09:43:13Z</time>
      </trkpt>
      <trkpt lat="48.46309" lon="7.22281">
        <ele>515.2</ele>
        <time>2021-08-03T09:43:14Z</time>
      </trkpt>
      <trkpt lat="48.46318" lon="7.22291">
        <ele>516.2</ele>
        <time>2021-08-03T09:43:15Z</time>
      </trkpt>
      <trkpt lat="48.46321" lon="7.22292">
        <ele>516.5</ele>
        <time>2021-08-03T09:43:17Z</time>
      </trkpt>
      <trkpt lat="48.46323" lon="7.22293">
        <ele>516.6</ele>
        <time>2021-08-03T09:43:18Z</time>
      </trkpt>
      <trkpt lat="48.46325" lon="7.22293">
        <ele>516.7</ele>
        <time>2021-08-03T09:43:19Z</time>
      </trkpt>
      <trkpt lat="48.46328" lon="7.22294">
        <ele>517</ele>
        <time>2021-08-03T09:43:20Z</time>
      </trkpt>
      <trkpt lat="48.46329" lon="7.22295">
        <ele>517</ele>
        <time>2021-08-03T09:43:21Z</time>
      </trkpt>
      <trkpt lat="48.46331" lon="7.22296">
        <ele>517.2</ele>
        <time>2021-08-03T09:43:23Z</time>
      </trkpt>
      <trkpt lat="48.46332" lon="7.22297">
        <ele>517.3</ele>
        <time>2021-08-03T09:43:24Z</time>
      </trkpt>
      <trkpt lat="48.46332" lon="7.22299">
        <ele>517.3</ele>
        <time>2021-08-03T09:43:26Z</time>
      </trkpt>
      <trkpt lat="48.46332" lon="7.223">
        <ele>517.4</ele>
        <time>2021-08-03T09:43:27Z</time>
      </trkpt>
      <trkpt lat="48.46333" lon="7.22302">
        <ele>517.5</ele>
        <time>2021-08-03T09:43:28Z</time>
      </trkpt>
      <trkpt lat="48.46333" lon="7.22303">
        <ele>517.6</ele>
        <time>2021-08-03T09:43:30Z</time>
      </trkpt>
      <trkpt lat="48.46334" lon="7.22305">
        <ele>517.7</ele>
        <time>2021-08-03T09:43:31Z</time>
      </trkpt>
      <trkpt lat="48.46335" lon="7.22308">
        <ele>517.8</ele>
        <time>2021-08-03T09:43:33Z</time>
      </trkpt>
      <trkpt lat="48.46335" lon="7.22311">
        <ele>518</ele>
        <time>2021-08-03T09:43:34Z</time>
      </trkpt>
      <trkpt lat="48.46337" lon="7.22313">
        <ele>518.2</ele>
        <time>2021-08-03T09:43:36Z</time>
      </trkpt>
      <trkpt lat="48.46338" lon="7.22316">
        <ele>518.4</ele>
        <time>2021-08-03T09:43:37Z</time>
      </trkpt>
      <trkpt lat="48.46338" lon="7.22317">
        <ele>518.5</ele>
        <time>2021-08-03T09:43:38Z</time>
      </trkpt>
      <trkpt lat="48.46339" lon="7.2232">
        <ele>518.7</ele>
        <time>2021-08-03T09:43:40Z</time>
      </trkpt>
      <trkpt lat="48.4634" lon="7.22322">
        <ele>518.9</ele>
        <time>2021-08-03T09:43:42Z</time>
      </trkpt>
      <trkpt lat="48.46341" lon="7.22326">
        <ele>519.2</ele>
        <time>2021-08-03T09:43:44Z</time>
      </trkpt>
      <trkpt lat="48.46342" lon="7.22327">
        <ele>519.3</ele>
        <time>2021-08-03T09:43:45Z</time>
      </trkpt>
      <trkpt lat="48.46344" lon="7.22331">
        <ele>519.7</ele>
        <time>2021-08-03T09:43:47Z</time>
      </trkpt>
      <trkpt lat="48.46345" lon="7.22333">
        <ele>519.8</ele>
        <time>2021-08-03T09:43:48Z</time>
      </trkpt>
      <trkpt lat="48.46346" lon="7.22335">
        <ele>520</ele>
        <time>2021-08-03T09:43:50Z</time>
      </trkpt>
      <trkpt lat="48.46348" lon="7.22338">
        <ele>520.2</ele>
        <time>2021-08-03T09:43:52Z</time>
      </trkpt>
      <trkpt lat="48.46351" lon="7.22341">
        <ele>520.7</ele>
        <time>2021-08-03T09:43:55Z</time>
      </trkpt>
      <trkpt lat="48.46353" lon="7.22341">
        <ele>520.9</ele>
        <time>2021-08-03T09:43:56Z</time>
      </trkpt>
      <trkpt lat="48.46355" lon="7.22341">
        <ele>521.1</ele>
        <time>2021-08-03T09:43:58Z</time>
      </trkpt>
      <trkpt lat="48.46357" lon="7.22341">
        <ele>521.3</ele>
        <time>2021-08-03T09:44:01Z</time>
      </trkpt>
      <trkpt lat="48.46359" lon="7.22341">
        <ele>521.4</ele>
        <time>2021-08-03T09:44:03Z</time>
      </trkpt>
      <trkpt lat="48.46361" lon="7.2234">
        <ele>521.6</ele>
        <time>2021-08-03T09:44:04Z</time>
      </trkpt>
      <trkpt lat="48.46364" lon="7.2234">
        <ele>521.9</ele>
        <time>2021-08-03T09:44:06Z</time>
      </trkpt>
      <trkpt lat="48.46365" lon="7.2234">
        <ele>522</ele>
        <time>2021-08-03T09:44:07Z</time>
      </trkpt>
      <trkpt lat="48.46367" lon="7.22341">
        <ele>522.2</ele>
        <time>2021-08-03T09:44:08Z</time>
      </trkpt>
      <trkpt lat="48.46368" lon="7.22341">
        <ele>522.3</ele>
        <time>2021-08-03T09:44:09Z</time>
      </trkpt>
      <trkpt lat="48.46369" lon="7.22341">
        <ele>522.4</ele>
        <time>2021-08-03T09:44:10Z</time>
      </trkpt>
      <trkpt lat="48.46371" lon="7.22341">
        <ele>522.5</ele>
        <time>2021-08-03T09:44:11Z</time>
      </trkpt>
      <trkpt lat="48.46372" lon="7.22342">
        <ele>522.7</ele>
        <time>2021-08-03T09:44:12Z</time>
      </trkpt>
      <trkpt lat="48.46375" lon="7.22344">
        <ele>522.9</ele>
        <time>2021-08-03T09:44:13Z</time>
      </trkpt>
      <trkpt lat="48.46376" lon="7.22344">
        <ele>523</ele>
        <time>2021-08-03T09:44:14Z</time>
      </trkpt>
      <trkpt lat="48.46378" lon="7.22346">
        <ele>523.2</ele>
        <time>2021-08-03T09:44:15Z</time>
      </trkpt>
      <trkpt lat="48.46379" lon="7.22347">
        <ele>523.3</ele>
        <time>2021-08-03T09:44:16Z</time>
      </trkpt>
      <trkpt lat="48.46381" lon="7.22348">
        <ele>523.5</ele>
        <time>2021-08-03T09:44:17Z</time>
      </trkpt>
      <trkpt lat="48.46386" lon="7.22352">
        <ele>523.8</ele>
        <time>2021-08-03T09:44:19Z</time>
      </trkpt>
      <trkpt lat="48.46387" lon="7.22353">
        <ele>523.9</ele>
        <time>2021-08-03T09:44:20Z</time>
      </trkpt>
      <trkpt lat="48.46388" lon="7.22354">
        <ele>524.1</ele>
        <time>2021-08-03T09:44:21Z</time>
      </trkpt>
      <trkpt lat="48.46389" lon="7.22355">
        <ele>524.2</ele>
        <time>2021-08-03T09:44:22Z</time>
      </trkpt>
      <trkpt lat="48.46391" lon="7.22357">
        <ele>524.4</ele>
        <time>2021-08-03T09:44:24Z</time>
      </trkpt>
      <trkpt lat="48.46393" lon="7.22359">
        <ele>524.5</ele>
        <time>2021-08-03T09:44:25Z</time>
      </trkpt>
      <trkpt lat="48.46394" lon="7.2236">
        <ele>524.6</ele>
        <time>2021-08-03T09:44:26Z</time>
      </trkpt>
      <trkpt lat="48.46396" lon="7.22364">
        <ele>524.9</ele>
        <time>2021-08-03T09:44:28Z</time>
      </trkpt>
      <trkpt lat="48.46396" lon="7.22365">
        <ele>525</ele>
        <time>2021-08-03T09:44:29Z</time>
      </trkpt>
      <trkpt lat="48.46398" lon="7.22369">
        <ele>525.3</ele>
        <time>2021-08-03T09:44:31Z</time>
      </trkpt>
      <trkpt lat="48.46399" lon="7.2237">
        <ele>525.3</ele>
        <time>2021-08-03T09:44:32Z</time>
      </trkpt>
      <trkpt lat="48.464" lon="7.22372">
        <ele>525.5</ele>
        <time>2021-08-03T09:44:33Z</time>
      </trkpt>
      <trkpt lat="48.464" lon="7.22374">
        <ele>525.6</ele>
        <time>2021-08-03T09:44:34Z</time>
      </trkpt>
      <trkpt lat="48.46401" lon="7.22376">
        <ele>525.7</ele>
        <time>2021-08-03T09:44:35Z</time>
      </trkpt>
      <trkpt lat="48.46401" lon="7.2238">
        <ele>525.9</ele>
        <time>2021-08-03T09:44:37Z</time>
      </trkpt>
      <trkpt lat="48.46401" lon="7.22385">
        <ele>526.2</ele>
        <time>2021-08-03T09:44:38Z</time>
      </trkpt>
      <trkpt lat="48.46402" lon="7.22386">
        <ele>526.3</ele>
        <time>2021-08-03T09:44:39Z</time>
      </trkpt>
      <trkpt lat="48.46402" lon="7.2239">
        <ele>526.5</ele>
        <time>2021-08-03T09:44:40Z</time>
      </trkpt>
      <trkpt lat="48.46402" lon="7.22391">
        <ele>526.6</ele>
        <time>2021-08-03T09:44:41Z</time>
      </trkpt>
      <trkpt lat="48.46402" lon="7.22394">
        <ele>526.8</ele>
        <time>2021-08-03T09:44:43Z</time>
      </trkpt>
      <trkpt lat="48.46403" lon="7.22396">
        <ele>526.9</ele>
        <time>2021-08-03T09:44:44Z</time>
      </trkpt>
      <trkpt lat="48.46404" lon="7.22397">
        <ele>527</ele>
        <time>2021-08-03T09:44:46Z</time>
      </trkpt>
      <trkpt lat="48.46406" lon="7.22399">
        <ele>527.1</ele>
        <time>2021-08-03T09:44:47Z</time>
      </trkpt>
      <trkpt lat="48.46407" lon="7.224">
        <ele>527.3</ele>
        <time>2021-08-03T09:44:48Z</time>
      </trkpt>
      <trkpt lat="48.46409" lon="7.22402">
        <ele>527.5</ele>
        <time>2021-08-03T09:44:50Z</time>
      </trkpt>
      <trkpt lat="48.4641" lon="7.22402">
        <ele>527.5</ele>
        <time>2021-08-03T09:44:51Z</time>
      </trkpt>
      <trkpt lat="48.46411" lon="7.22403">
        <ele>527.6</ele>
        <time>2021-08-03T09:44:52Z</time>
      </trkpt>
      <trkpt lat="48.46411" lon="7.22404">
        <ele>527.7</ele>
        <time>2021-08-03T09:44:53Z</time>
      </trkpt>
      <trkpt lat="48.46412" lon="7.22406">
        <ele>527.7</ele>
        <time>2021-08-03T09:44:54Z</time>
      </trkpt>
      <trkpt lat="48.46412" lon="7.22408">
        <ele>527.9</ele>
        <time>2021-08-03T09:44:55Z</time>
      </trkpt>
      <trkpt lat="48.46413" lon="7.22411">
        <ele>528</ele>
        <time>2021-08-03T09:44:56Z</time>
      </trkpt>
      <trkpt lat="48.46414" lon="7.22413">
        <ele>528.2</ele>
        <time>2021-08-03T09:44:57Z</time>
      </trkpt>
      <trkpt lat="48.46415" lon="7.22415">
        <ele>528.3</ele>
        <time>2021-08-03T09:44:58Z</time>
      </trkpt>
      <trkpt lat="48.46415" lon="7.22416">
        <ele>528.4</ele>
        <time>2021-08-03T09:44:59Z</time>
      </trkpt>
      <trkpt lat="48.46418" lon="7.22418">
        <ele>528.7</ele>
        <time>2021-08-03T09:45:01Z</time>
      </trkpt>
      <trkpt lat="48.46422" lon="7.22421">
        <ele>529</ele>
        <time>2021-08-03T09:45:03Z</time>
      </trkpt>
      <trkpt lat="48.46426" lon="7.22422">
        <ele>529.5</ele>
        <time>2021-08-03T09:45:05Z</time>
      </trkpt>
      <trkpt lat="48.46427" lon="7.22423">
        <ele>529.6</ele>
        <time>2021-08-03T09:45:06Z</time>
      </trkpt>
      <trkpt lat="48.46428" lon="7.22423">
        <ele>529.7</ele>
        <time>2021-08-03T09:45:07Z</time>
      </trkpt>
      <trkpt lat="48.4643" lon="7.22424">
        <ele>529.9</ele>
        <time>2021-08-03T09:45:08Z</time>
      </trkpt>
      <trkpt lat="48.46432" lon="7.22424">
        <ele>530.1</ele>
        <time>2021-08-03T09:45:09Z</time>
      </trkpt>
      <trkpt lat="48.46433" lon="7.22425">
        <ele>530.3</ele>
        <time>2021-08-03T09:45:10Z</time>
      </trkpt>
      <trkpt lat="48.46435" lon="7.22425">
        <ele>530.5</ele>
        <time>2021-08-03T09:45:11Z</time>
      </trkpt>
      <trkpt lat="48.46437" lon="7.22426">
        <ele>530.8</ele>
        <time>2021-08-03T09:45:12Z</time>
      </trkpt>
      <trkpt lat="48.46439" lon="7.22428">
        <ele>531</ele>
        <time>2021-08-03T09:45:14Z</time>
      </trkpt>
      <trkpt lat="48.46439" lon="7.2243">
        <ele>531.1</ele>
        <time>2021-08-03T09:45:15Z</time>
      </trkpt>
      <trkpt lat="48.46439" lon="7.22431">
        <ele>531.3</ele>
        <time>2021-08-03T09:45:16Z</time>
      </trkpt>
      <trkpt lat="48.46439" lon="7.22433">
        <ele>531.4</ele>
        <time>2021-08-03T09:45:17Z</time>
      </trkpt>
      <trkpt lat="48.46439" lon="7.22435">
        <ele>531.6</ele>
        <time>2021-08-03T09:45:18Z</time>
      </trkpt>
      <trkpt lat="48.46439" lon="7.22437">
        <ele>531.7</ele>
        <time>2021-08-03T09:45:19Z</time>
      </trkpt>
      <trkpt lat="48.4644" lon="7.22439">
        <ele>531.9</ele>
        <time>2021-08-03T09:45:20Z</time>
      </trkpt>
      <trkpt lat="48.4644" lon="7.2244">
        <ele>532</ele>
        <time>2021-08-03T09:45:21Z</time>
      </trkpt>
      <trkpt lat="48.46441" lon="7.22442">
        <ele>532.2</ele>
        <time>2021-08-03T09:45:23Z</time>
      </trkpt>
      <trkpt lat="48.46442" lon="7.22443">
        <ele>532.3</ele>
        <time>2021-08-03T09:45:24Z</time>
      </trkpt>
      <trkpt lat="48.46442" lon="7.22444">
        <ele>532.3</ele>
        <time>2021-08-03T09:45:25Z</time>
      </trkpt>
      <trkpt lat="48.46443" lon="7.22445">
        <ele>532.5</ele>
        <time>2021-08-03T09:45:27Z</time>
      </trkpt>
      <trkpt lat="48.46443" lon="7.22446">
        <ele>532.6</ele>
        <time>2021-08-03T09:45:28Z</time>
      </trkpt>
      <trkpt lat="48.46443" lon="7.22447">
        <ele>532.7</ele>
        <time>2021-08-03T09:45:30Z</time>
      </trkpt>
      <trkpt lat="48.46443" lon="7.22447">
        <ele>532.7</ele>
        <time>2021-08-03T09:45:31Z</time>
      </trkpt>
      <trkpt lat="48.46443" lon="7.22447">
        <ele>532.8</ele>
        <time>2021-08-03T09:45:32Z</time>
      </trkpt>
      <trkpt lat="48.46442" lon="7.22446">
        <ele>532.8</ele>
        <time>2021-08-03T09:45:34Z</time>
      </trkpt>
      <trkpt lat="48.46442" lon="7.22446">
        <ele>532.8</ele>
        <time>2021-08-03T09:45:35Z</time>
      </trkpt>
      <trkpt lat="48.46442" lon="7.22447">
        <ele>532.9</ele>
        <time>2021-08-03T09:45:37Z</time>
      </trkpt>
      <trkpt lat="48.46442" lon="7.22447">
        <ele>533</ele>
        <time>2021-08-03T09:45:38Z</time>
      </trkpt>
      <trkpt lat="48.46441" lon="7.22448">
        <ele>533</ele>
        <time>2021-08-03T09:45:39Z</time>
      </trkpt>
      <trkpt lat="48.4644" lon="7.2245">
        <ele>533.2</ele>
        <time>2021-08-03T09:45:41Z</time>
      </trkpt>
      <trkpt lat="48.46453" lon="7.22477">
        <ele>535.9</ele>
        <time>2021-08-03T09:46:35Z</time>
      </trkpt>
      <trkpt lat="48.46456" lon="7.22481">
        <ele>536.3</ele>
        <time>2021-08-03T09:46:37Z</time>
      </trkpt>
      <trkpt lat="48.46458" lon="7.22485">
        <ele>536.7</ele>
        <time>2021-08-03T09:46:38Z</time>
      </trkpt>
      <trkpt lat="48.46459" lon="7.22485">
        <ele>536.8</ele>
        <time>2021-08-03T09:46:39Z</time>
      </trkpt>
      <trkpt lat="48.4646" lon="7.22486">
        <ele>536.9</ele>
        <time>2021-08-03T09:46:40Z</time>
      </trkpt>
      <trkpt lat="48.46461" lon="7.22488">
        <ele>537.1</ele>
        <time>2021-08-03T09:46:42Z</time>
      </trkpt>
      <trkpt lat="48.46462" lon="7.22488">
        <ele>537.2</ele>
        <time>2021-08-03T09:46:43Z</time>
      </trkpt>
      <trkpt lat="48.46463" lon="7.2249">
        <ele>537.3</ele>
        <time>2021-08-03T09:46:44Z</time>
      </trkpt>
      <trkpt lat="48.46463" lon="7.22492">
        <ele>537.4</ele>
        <time>2021-08-03T09:46:45Z</time>
      </trkpt>
      <trkpt lat="48.46464" lon="7.22493">
        <ele>537.5</ele>
        <time>2021-08-03T09:46:47Z</time>
      </trkpt>
      <trkpt lat="48.46464" lon="7.22494">
        <ele>537.7</ele>
        <time>2021-08-03T09:46:48Z</time>
      </trkpt>
      <trkpt lat="48.46466" lon="7.22496">
        <ele>537.8</ele>
        <time>2021-08-03T09:46:50Z</time>
      </trkpt>
      <trkpt lat="48.46467" lon="7.22497">
        <ele>538</ele>
        <time>2021-08-03T09:46:51Z</time>
      </trkpt>
      <trkpt lat="48.46468" lon="7.22499">
        <ele>538.1</ele>
        <time>2021-08-03T09:46:52Z</time>
      </trkpt>
      <trkpt lat="48.46469" lon="7.22501">
        <ele>538.3</ele>
        <time>2021-08-03T09:46:54Z</time>
      </trkpt>
      <trkpt lat="48.46481" lon="7.22511">
        <ele>539.6</ele>
        <time>2021-08-03T09:47:04Z</time>
      </trkpt>
      <trkpt lat="48.46481" lon="7.22514">
        <ele>539.9</ele>
        <time>2021-08-03T09:47:06Z</time>
      </trkpt>
      <trkpt lat="48.46482" lon="7.22516">
        <ele>540.1</ele>
        <time>2021-08-03T09:47:08Z</time>
      </trkpt>
      <trkpt lat="48.46482" lon="7.22517">
        <ele>540.1</ele>
        <time>2021-08-03T09:47:09Z</time>
      </trkpt>
      <trkpt lat="48.46482" lon="7.22517">
        <ele>540.1</ele>
        <time>2021-08-03T09:47:10Z</time>
      </trkpt>
      <trkpt lat="48.46482" lon="7.22519">
        <ele>540.2</ele>
        <time>2021-08-03T09:47:12Z</time>
      </trkpt>
      <trkpt lat="48.46483" lon="7.2252">
        <ele>540.3</ele>
        <time>2021-08-03T09:47:14Z</time>
      </trkpt>
      <trkpt lat="48.46483" lon="7.22521">
        <ele>540.3</ele>
        <time>2021-08-03T09:47:15Z</time>
      </trkpt>
      <trkpt lat="48.46483" lon="7.22521">
        <ele>540.3</ele>
        <time>2021-08-03T09:47:16Z</time>
      </trkpt>
      <trkpt lat="48.46494" lon="7.22531">
        <ele>541.5</ele>
        <time>2021-08-03T09:47:47Z</time>
      </trkpt>
      <trkpt lat="48.46496" lon="7.22532">
        <ele>541.7</ele>
        <time>2021-08-03T09:47:48Z</time>
      </trkpt>
      <trkpt lat="48.46498" lon="7.22533">
        <ele>542</ele>
        <time>2021-08-03T09:47:50Z</time>
      </trkpt>
      <trkpt lat="48.46501" lon="7.22536">
        <ele>542.4</ele>
        <time>2021-08-03T09:47:51Z</time>
      </trkpt>
      <trkpt lat="48.46502" lon="7.22537">
        <ele>542.5</ele>
        <time>2021-08-03T09:47:52Z</time>
      </trkpt>
      <trkpt lat="48.46504" lon="7.2254">
        <ele>542.8</ele>
        <time>2021-08-03T09:47:54Z</time>
      </trkpt>
      <trkpt lat="48.46506" lon="7.22541">
        <ele>543</ele>
        <time>2021-08-03T09:47:55Z</time>
      </trkpt>
      <trkpt lat="48.46508" lon="7.22542">
        <ele>543.3</ele>
        <time>2021-08-03T09:47:57Z</time>
      </trkpt>
      <trkpt lat="48.4651" lon="7.22543">
        <ele>543.5</ele>
        <time>2021-08-03T09:47:58Z</time>
      </trkpt>
      <trkpt lat="48.46511" lon="7.22544">
        <ele>543.7</ele>
        <time>2021-08-03T09:47:59Z</time>
      </trkpt>
      <trkpt lat="48.46512" lon="7.22544">
        <ele>543.8</ele>
        <time>2021-08-03T09:48:00Z</time>
      </trkpt>
      <trkpt lat="48.46514" lon="7.22546">
        <ele>544</ele>
        <time>2021-08-03T09:48:02Z</time>
      </trkpt>
      <trkpt lat="48.46516" lon="7.22547">
        <ele>544.3</ele>
        <time>2021-08-03T09:48:03Z</time>
      </trkpt>
      <trkpt lat="48.46517" lon="7.22548">
        <ele>544.4</ele>
        <time>2021-08-03T09:48:04Z</time>
      </trkpt>
      <trkpt lat="48.46518" lon="7.22549">
        <ele>544.6</ele>
        <time>2021-08-03T09:48:06Z</time>
      </trkpt>
      <trkpt lat="48.46519" lon="7.2255">
        <ele>544.7</ele>
        <time>2021-08-03T09:48:07Z</time>
      </trkpt>
      <trkpt lat="48.4652" lon="7.2255">
        <ele>544.9</ele>
        <time>2021-08-03T09:48:08Z</time>
      </trkpt>
      <trkpt lat="48.46521" lon="7.2255">
        <ele>545</ele>
        <time>2021-08-03T09:48:09Z</time>
      </trkpt>
      <trkpt lat="48.46522" lon="7.22549">
        <ele>545.1</ele>
        <time>2021-08-03T09:48:10Z</time>
      </trkpt>
      <trkpt lat="48.46523" lon="7.22549">
        <ele>545.2</ele>
        <time>2021-08-03T09:48:12Z</time>
      </trkpt>
      <trkpt lat="48.46524" lon="7.22549">
        <ele>545.3</ele>
        <time>2021-08-03T09:48:13Z</time>
      </trkpt>
      <trkpt lat="48.46525" lon="7.22549">
        <ele>545.4</ele>
        <time>2021-08-03T09:48:14Z</time>
      </trkpt>
      <trkpt lat="48.46526" lon="7.22549">
        <ele>545.6</ele>
        <time>2021-08-03T09:48:15Z</time>
      </trkpt>
      <trkpt lat="48.46527" lon="7.22549">
        <ele>545.6</ele>
        <time>2021-08-03T09:48:16Z</time>
      </trkpt>
      <trkpt lat="48.46528" lon="7.22549">
        <ele>545.7</ele>
        <time>2021-08-03T09:48:17Z</time>
      </trkpt>
      <trkpt lat="48.46529" lon="7.22549">
        <ele>545.9</ele>
        <time>2021-08-03T09:48:18Z</time>
      </trkpt>
      <trkpt lat="48.4653" lon="7.22549">
        <ele>546</ele>
        <time>2021-08-03T09:48:20Z</time>
      </trkpt>
      <trkpt lat="48.46531" lon="7.22549">
        <ele>546.1</ele>
        <time>2021-08-03T09:48:21Z</time>
      </trkpt>
      <trkpt lat="48.46532" lon="7.22549">
        <ele>546.2</ele>
        <time>2021-08-03T09:48:22Z</time>
      </trkpt>
      <trkpt lat="48.46533" lon="7.22549">
        <ele>546.3</ele>
        <time>2021-08-03T09:48:24Z</time>
      </trkpt>
      <trkpt lat="48.46546" lon="7.22562">
        <ele>547.5</ele>
        <time>2021-08-03T09:48:38Z</time>
      </trkpt>
      <trkpt lat="48.46548" lon="7.22566">
        <ele>547.7</ele>
        <time>2021-08-03T09:48:40Z</time>
      </trkpt>
      <trkpt lat="48.46549" lon="7.22567">
        <ele>547.8</ele>
        <time>2021-08-03T09:48:41Z</time>
      </trkpt>
      <trkpt lat="48.46551" lon="7.22568">
        <ele>547.9</ele>
        <time>2021-08-03T09:48:42Z</time>
      </trkpt>
      <trkpt lat="48.46553" lon="7.22569">
        <ele>548</ele>
        <time>2021-08-03T09:48:43Z</time>
      </trkpt>
      <trkpt lat="48.46555" lon="7.2257">
        <ele>548.2</ele>
        <time>2021-08-03T09:48:45Z</time>
      </trkpt>
      <trkpt lat="48.46557" lon="7.22572">
        <ele>548.3</ele>
        <time>2021-08-03T09:48:46Z</time>
      </trkpt>
      <trkpt lat="48.46558" lon="7.22573">
        <ele>548.4</ele>
        <time>2021-08-03T09:48:47Z</time>
      </trkpt>
      <trkpt lat="48.46558" lon="7.22574">
        <ele>548.5</ele>
        <time>2021-08-03T09:48:48Z</time>
      </trkpt>
      <trkpt lat="48.46559" lon="7.22576">
        <ele>548.6</ele>
        <time>2021-08-03T09:48:50Z</time>
      </trkpt>
      <trkpt lat="48.4656" lon="7.22577">
        <ele>548.7</ele>
        <time>2021-08-03T09:48:51Z</time>
      </trkpt>
      <trkpt lat="48.46561" lon="7.22579">
        <ele>548.8</ele>
        <time>2021-08-03T09:48:52Z</time>
      </trkpt>
      <trkpt lat="48.46561" lon="7.2258">
        <ele>548.9</ele>
        <time>2021-08-03T09:48:53Z</time>
      </trkpt>
      <trkpt lat="48.46561" lon="7.22582">
        <ele>549</ele>
        <time>2021-08-03T09:48:55Z</time>
      </trkpt>
      <trkpt lat="48.4656" lon="7.22585">
        <ele>549.2</ele>
        <time>2021-08-03T09:48:56Z</time>
      </trkpt>
      <trkpt lat="48.46559" lon="7.22586">
        <ele>549.3</ele>
        <time>2021-08-03T09:48:57Z</time>
      </trkpt>
      <trkpt lat="48.46559" lon="7.22588">
        <ele>549.4</ele>
        <time>2021-08-03T09:48:59Z</time>
      </trkpt>
      <trkpt lat="48.46559" lon="7.22588">
        <ele>549.5</ele>
        <time>2021-08-03T09:49:00Z</time>
      </trkpt>
      <trkpt lat="48.46558" lon="7.22588">
        <ele>549.5</ele>
        <time>2021-08-03T09:49:01Z</time>
      </trkpt>
      <trkpt lat="48.46558" lon="7.22589">
        <ele>549.5</ele>
        <time>2021-08-03T09:49:03Z</time>
      </trkpt>
      <trkpt lat="48.46558" lon="7.2259">
        <ele>549.6</ele>
        <time>2021-08-03T09:49:04Z</time>
      </trkpt>
      <trkpt lat="48.46559" lon="7.22591">
        <ele>549.7</ele>
        <time>2021-08-03T09:49:06Z</time>
      </trkpt>
      <trkpt lat="48.46559" lon="7.22592">
        <ele>549.8</ele>
        <time>2021-08-03T09:49:08Z</time>
      </trkpt>
      <trkpt lat="48.46559" lon="7.22595">
        <ele>550</ele>
        <time>2021-08-03T09:49:10Z</time>
      </trkpt>
      <trkpt lat="48.4656" lon="7.22596">
        <ele>550.1</ele>
        <time>2021-08-03T09:49:11Z</time>
      </trkpt>
      <trkpt lat="48.46559" lon="7.2261">
        <ele>551.1</ele>
        <time>2021-08-03T09:49:12Z</time>
      </trkpt>
      <trkpt lat="48.46558" lon="7.22623">
        <ele>551.8</ele>
        <time>2021-08-03T09:49:14Z</time>
      </trkpt>
      <trkpt lat="48.46557" lon="7.22635">
        <ele>552.3</ele>
        <time>2021-08-03T09:49:47Z</time>
      </trkpt>
      <trkpt lat="48.46555" lon="7.22647">
        <ele>552.5</ele>
        <time>2021-08-03T09:49:49Z</time>
      </trkpt>
      <trkpt lat="48.46554" lon="7.2266">
        <ele>552.6</ele>
        <time>2021-08-03T09:49:50Z</time>
      </trkpt>
      <trkpt lat="48.46555" lon="7.2266">
        <ele>552.6</ele>
        <time>2021-08-03T09:49:51Z</time>
      </trkpt>
      <trkpt lat="48.46556" lon="7.22662">
        <ele>552.6</ele>
        <time>2021-08-03T09:49:53Z</time>
      </trkpt>
      <trkpt lat="48.46557" lon="7.22664">
        <ele>552.6</ele>
        <time>2021-08-03T09:49:55Z</time>
      </trkpt>
      <trkpt lat="48.46559" lon="7.22666">
        <ele>552.6</ele>
        <time>2021-08-03T09:49:57Z</time>
      </trkpt>
      <trkpt lat="48.46559" lon="7.22665">
        <ele>552.6</ele>
        <time>2021-08-03T09:49:58Z</time>
      </trkpt>
      <trkpt lat="48.46559" lon="7.22665">
        <ele>552.6</ele>
        <time>2021-08-03T09:50:00Z</time>
      </trkpt>
      <trkpt lat="48.46559" lon="7.22665">
        <ele>552.6</ele>
        <time>2021-08-03T09:50:37Z</time>
      </trkpt>
      <trkpt lat="48.4656" lon="7.22665">
        <ele>552.6</ele>
        <time>2021-08-03T09:50:38Z</time>
      </trkpt>
      <trkpt lat="48.4656" lon="7.22664">
        <ele>552.6</ele>
        <time>2021-08-03T09:50:39Z</time>
      </trkpt>
      <trkpt lat="48.46558" lon="7.2267">
        <ele>552.6</ele>
        <time>2021-08-03T09:50:41Z</time>
      </trkpt>
      <trkpt lat="48.46557" lon="7.22675">
        <ele>552.5</ele>
        <time>2021-08-03T09:50:42Z</time>
      </trkpt>
      <trkpt lat="48.46557" lon="7.22676">
        <ele>552.5</ele>
        <time>2021-08-03T09:50:43Z</time>
      </trkpt>
      <trkpt lat="48.46557" lon="7.22678">
        <ele>552.5</ele>
        <time>2021-08-03T09:50:44Z</time>
      </trkpt>
      <trkpt lat="48.46558" lon="7.22681">
        <ele>552.5</ele>
        <time>2021-08-03T09:50:46Z</time>
      </trkpt>
      <trkpt lat="48.46559" lon="7.22681">
        <ele>552.5</ele>
        <time>2021-08-03T09:50:48Z</time>
      </trkpt>
      <trkpt lat="48.46558" lon="7.22682">
        <ele>552.5</ele>
        <time>2021-08-03T09:50:49Z</time>
      </trkpt>
      <trkpt lat="48.46558" lon="7.22683">
        <ele>552.5</ele>
        <time>2021-08-03T09:50:50Z</time>
      </trkpt>
      <trkpt lat="48.46557" lon="7.22683">
        <ele>552.5</ele>
        <time>2021-08-03T09:50:51Z</time>
      </trkpt>
      <trkpt lat="48.46556" lon="7.22684">
        <ele>552.6</ele>
        <time>2021-08-03T09:50:52Z</time>
      </trkpt>
      <trkpt lat="48.46555" lon="7.22684">
        <ele>552.6</ele>
        <time>2021-08-03T09:50:53Z</time>
      </trkpt>
      <trkpt lat="48.46554" lon="7.22685">
        <ele>552.6</ele>
        <time>2021-08-03T09:50:54Z</time>
      </trkpt>
      <trkpt lat="48.46553" lon="7.22686">
        <ele>552.6</ele>
        <time>2021-08-03T09:50:55Z</time>
      </trkpt>
      <trkpt lat="48.46552" lon="7.22686">
        <ele>552.6</ele>
        <time>2021-08-03T09:50:57Z</time>
      </trkpt>
      <trkpt lat="48.46551" lon="7.22687">
        <ele>552.6</ele>
        <time>2021-08-03T09:50:58Z</time>
      </trkpt>
      <trkpt lat="48.46549" lon="7.22691">
        <ele>552.6</ele>
        <time>2021-08-03T09:50:59Z</time>
      </trkpt>
      <trkpt lat="48.46548" lon="7.22692">
        <ele>552.7</ele>
        <time>2021-08-03T09:51:00Z</time>
      </trkpt>
      <trkpt lat="48.46547" lon="7.22693">
        <ele>552.7</ele>
        <time>2021-08-03T09:51:01Z</time>
      </trkpt>
      <trkpt lat="48.46545" lon="7.22695">
        <ele>552.7</ele>
        <time>2021-08-03T09:51:03Z</time>
      </trkpt>
      <trkpt lat="48.46534" lon="7.22714">
        <ele>553.1</ele>
        <time>2021-08-03T09:51:10Z</time>
      </trkpt>
      <trkpt lat="48.46529" lon="7.22722">
        <ele>553.3</ele>
        <time>2021-08-03T09:51:12Z</time>
      </trkpt>
      <trkpt lat="48.46528" lon="7.22723">
        <ele>553.3</ele>
        <time>2021-08-03T09:51:13Z</time>
      </trkpt>
      <trkpt lat="48.46524" lon="7.22726">
        <ele>553.4</ele>
        <time>2021-08-03T09:51:15Z</time>
      </trkpt>
      <trkpt lat="48.4652" lon="7.22731">
        <ele>553.4</ele>
        <time>2021-08-03T09:51:17Z</time>
      </trkpt>
      <trkpt lat="48.46517" lon="7.22734">
        <ele>553.4</ele>
        <time>2021-08-03T09:51:18Z</time>
      </trkpt>
      <trkpt lat="48.46513" lon="7.22738">
        <ele>553.2</ele>
        <time>2021-08-03T09:51:19Z</time>
      </trkpt>
      <trkpt lat="48.4651" lon="7.22742">
        <ele>553.1</ele>
        <time>2021-08-03T09:51:20Z</time>
      </trkpt>
      <trkpt lat="48.46509" lon="7.22743">
        <ele>553</ele>
        <time>2021-08-03T09:51:21Z</time>
      </trkpt>
      <trkpt lat="48.46505" lon="7.22747">
        <ele>552.6</ele>
        <time>2021-08-03T09:51:23Z</time>
      </trkpt>
      <trkpt lat="48.46502" lon="7.2275">
        <ele>552.3</ele>
        <time>2021-08-03T09:51:24Z</time>
      </trkpt>
      <trkpt lat="48.46502" lon="7.22752">
        <ele>552.2</ele>
        <time>2021-08-03T09:51:25Z</time>
      </trkpt>
      <trkpt lat="48.46501" lon="7.22755">
        <ele>552.9</ele>
        <time>2021-08-03T09:51:26Z</time>
      </trkpt>
      <trkpt lat="48.465" lon="7.22759">
        <ele>553.3</ele>
        <time>2021-08-03T09:51:27Z</time>
      </trkpt>
      <trkpt lat="48.46499" lon="7.22763">
        <ele>553.6</ele>
        <time>2021-08-03T09:51:28Z</time>
      </trkpt>
      <trkpt lat="48.46499" lon="7.22765">
        <ele>553.7</ele>
        <time>2021-08-03T09:51:29Z</time>
      </trkpt>
      <trkpt lat="48.46496" lon="7.22773">
        <ele>554.1</ele>
        <time>2021-08-03T09:51:31Z</time>
      </trkpt>
      <trkpt lat="48.46494" lon="7.22778">
        <ele>554.3</ele>
        <time>2021-08-03T09:51:33Z</time>
      </trkpt>
      <trkpt lat="48.46492" lon="7.2278">
        <ele>554.4</ele>
        <time>2021-08-03T09:51:34Z</time>
      </trkpt>
      <trkpt lat="48.46491" lon="7.22782">
        <ele>554.4</ele>
        <time>2021-08-03T09:51:35Z</time>
      </trkpt>
      <trkpt lat="48.46491" lon="7.22786">
        <ele>554.5</ele>
        <time>2021-08-03T09:51:36Z</time>
      </trkpt>
      <trkpt lat="48.46491" lon="7.22788">
        <ele>554.6</ele>
        <time>2021-08-03T09:51:37Z</time>
      </trkpt>
      <trkpt lat="48.46489" lon="7.22791">
        <ele>554.7</ele>
        <time>2021-08-03T09:51:38Z</time>
      </trkpt>
      <trkpt lat="48.46488" lon="7.22792">
        <ele>554.7</ele>
        <time>2021-08-03T09:51:40Z</time>
      </trkpt>
      <trkpt lat="48.46487" lon="7.22793">
        <ele>554.8</ele>
        <time>2021-08-03T09:51:42Z</time>
      </trkpt>
      <trkpt lat="48.46485" lon="7.22794">
        <ele>554.8</ele>
        <time>2021-08-03T09:51:43Z</time>
      </trkpt>
      <trkpt lat="48.46484" lon="7.22795">
        <ele>554.8</ele>
        <time>2021-08-03T09:51:44Z</time>
      </trkpt>
      <trkpt lat="48.46471" lon="7.22796">
        <ele>555.3</ele>
        <time>2021-08-03T09:51:51Z</time>
      </trkpt>
      <trkpt lat="48.4647" lon="7.22796">
        <ele>555.3</ele>
        <time>2021-08-03T09:51:52Z</time>
      </trkpt>
      <trkpt lat="48.46468" lon="7.22795">
        <ele>555.4</ele>
        <time>2021-08-03T09:51:53Z</time>
      </trkpt>
      <trkpt lat="48.46465" lon="7.22795">
        <ele>555.5</ele>
        <time>2021-08-03T09:51:54Z</time>
      </trkpt>
      <trkpt lat="48.46464" lon="7.22794">
        <ele>555.5</ele>
        <time>2021-08-03T09:51:55Z</time>
      </trkpt>
      <trkpt lat="48.46462" lon="7.22794">
        <ele>555.6</ele>
        <time>2021-08-03T09:51:56Z</time>
      </trkpt>
      <trkpt lat="48.46459" lon="7.22791">
        <ele>555.7</ele>
        <time>2021-08-03T09:51:58Z</time>
      </trkpt>
      <trkpt lat="48.46457" lon="7.22788">
        <ele>555.9</ele>
        <time>2021-08-03T09:51:59Z</time>
      </trkpt>
      <trkpt lat="48.46456" lon="7.22787">
        <ele>555.9</ele>
        <time>2021-08-03T09:52:00Z</time>
      </trkpt>
      <trkpt lat="48.4645" lon="7.22785">
        <ele>556.1</ele>
        <time>2021-08-03T09:52:02Z</time>
      </trkpt>
      <trkpt lat="48.46449" lon="7.22784">
        <ele>556.2</ele>
        <time>2021-08-03T09:52:03Z</time>
      </trkpt>
      <trkpt lat="48.46447" lon="7.22784">
        <ele>556.3</ele>
        <time>2021-08-03T09:52:04Z</time>
      </trkpt>
      <trkpt lat="48.46444" lon="7.22782">
        <ele>556.4</ele>
        <time>2021-08-03T09:52:05Z</time>
      </trkpt>
      <trkpt lat="48.4644" lon="7.22781">
        <ele>556.6</ele>
        <time>2021-08-03T09:52:07Z</time>
      </trkpt>
      <trkpt lat="48.46436" lon="7.2278">
        <ele>556.7</ele>
        <time>2021-08-03T09:52:09Z</time>
      </trkpt>
      <trkpt lat="48.46433" lon="7.2278">
        <ele>556.8</ele>
        <time>2021-08-03T09:52:10Z</time>
      </trkpt>
      <trkpt lat="48.46429" lon="7.22781">
        <ele>556.9</ele>
        <time>2021-08-03T09:52:12Z</time>
      </trkpt>
      <trkpt lat="48.46427" lon="7.22781">
        <ele>557</ele>
        <time>2021-08-03T09:52:13Z</time>
      </trkpt>
      <trkpt lat="48.46423" lon="7.22782">
        <ele>557.2</ele>
        <time>2021-08-03T09:52:14Z</time>
      </trkpt>
      <trkpt lat="48.4642" lon="7.22785">
        <ele>557.3</ele>
        <time>2021-08-03T09:52:16Z</time>
      </trkpt>
      <trkpt lat="48.46418" lon="7.22788">
        <ele>557.4</ele>
        <time>2021-08-03T09:52:17Z</time>
      </trkpt>
      <trkpt lat="48.46415" lon="7.22793">
        <ele>557.6</ele>
        <time>2021-08-03T09:52:19Z</time>
      </trkpt>
      <trkpt lat="48.46413" lon="7.22795">
        <ele>557.7</ele>
        <time>2021-08-03T09:52:20Z</time>
      </trkpt>
      <trkpt lat="48.46412" lon="7.22797">
        <ele>557.8</ele>
        <time>2021-08-03T09:52:21Z</time>
      </trkpt>
      <trkpt lat="48.4641" lon="7.22801">
        <ele>557.9</ele>
        <time>2021-08-03T09:52:22Z</time>
      </trkpt>
      <trkpt lat="48.46406" lon="7.22812">
        <ele>558.4</ele>
        <time>2021-08-03T09:52:24Z</time>
      </trkpt>
      <trkpt lat="48.46404" lon="7.22818">
        <ele>558.7</ele>
        <time>2021-08-03T09:52:25Z</time>
      </trkpt>
      <trkpt lat="48.46402" lon="7.22821">
        <ele>558.9</ele>
        <time>2021-08-03T09:52:26Z</time>
      </trkpt>
      <trkpt lat="48.46397" lon="7.22825">
        <ele>559.3</ele>
        <time>2021-08-03T09:52:28Z</time>
      </trkpt>
      <trkpt lat="48.46394" lon="7.22826">
        <ele>559.5</ele>
        <time>2021-08-03T09:52:29Z</time>
      </trkpt>
      <trkpt lat="48.46391" lon="7.22826">
        <ele>559.8</ele>
        <time>2021-08-03T09:52:30Z</time>
      </trkpt>
      <trkpt lat="48.46388" lon="7.22826">
        <ele>560.1</ele>
        <time>2021-08-03T09:52:31Z</time>
      </trkpt>
      <trkpt lat="48.46384" lon="7.22826">
        <ele>560.4</ele>
        <time>2021-08-03T09:52:32Z</time>
      </trkpt>
      <trkpt lat="48.46381" lon="7.22825">
        <ele>560.6</ele>
        <time>2021-08-03T09:52:33Z</time>
      </trkpt>
      <trkpt lat="48.46377" lon="7.22825">
        <ele>560.9</ele>
        <time>2021-08-03T09:52:34Z</time>
      </trkpt>
      <trkpt lat="48.46371" lon="7.22825">
        <ele>561.4</ele>
        <time>2021-08-03T09:52:36Z</time>
      </trkpt>
      <trkpt lat="48.46367" lon="7.22828">
        <ele>561.8</ele>
        <time>2021-08-03T09:52:38Z</time>
      </trkpt>
      <trkpt lat="48.46366" lon="7.22828">
        <ele>561.9</ele>
        <time>2021-08-03T09:52:39Z</time>
      </trkpt>
      <trkpt lat="48.46361" lon="7.2283">
        <ele>562.3</ele>
        <time>2021-08-03T09:52:41Z</time>
      </trkpt>
      <trkpt lat="48.46361" lon="7.22829">
        <ele>562.4</ele>
        <time>2021-08-03T09:52:42Z</time>
      </trkpt>
      <trkpt lat="48.4636" lon="7.22829">
        <ele>562.4</ele>
        <time>2021-08-03T09:52:43Z</time>
      </trkpt>
      <trkpt lat="48.4636" lon="7.22828">
        <ele>562.5</ele>
        <time>2021-08-03T09:52:44Z</time>
      </trkpt>
      <trkpt lat="48.46359" lon="7.22826">
        <ele>562.6</ele>
        <time>2021-08-03T09:52:46Z</time>
      </trkpt>
      <trkpt lat="48.46139" lon="7.23043">
        <ele>590.8</ele>
        <time>2021-08-03T09:58:35Z</time>
      </trkpt>
      <trkpt lat="48.46137" lon="7.23047">
        <ele>591.2</ele>
        <time>2021-08-03T09:58:36Z</time>
      </trkpt>
      <trkpt lat="48.46136" lon="7.23049">
        <ele>591.4</ele>
        <time>2021-08-03T09:58:37Z</time>
      </trkpt>
      <trkpt lat="48.46135" lon="7.23051">
        <ele>591.6</ele>
        <time>2021-08-03T09:58:39Z</time>
      </trkpt>
      <trkpt lat="48.46134" lon="7.23052">
        <ele>591.7</ele>
        <time>2021-08-03T09:58:40Z</time>
      </trkpt>
      <trkpt lat="48.46134" lon="7.23054">
        <ele>591.8</ele>
        <time>2021-08-03T09:58:41Z</time>
      </trkpt>
      <trkpt lat="48.46134" lon="7.23054">
        <ele>591.8</ele>
        <time>2021-08-03T09:58:42Z</time>
      </trkpt>
      <trkpt lat="48.46134" lon="7.23055">
        <ele>591.9</ele>
        <time>2021-08-03T09:58:43Z</time>
      </trkpt>
      <trkpt lat="48.46132" lon="7.2306">
        <ele>592.3</ele>
        <time>2021-08-03T09:58:44Z</time>
      </trkpt>
      <trkpt lat="48.46129" lon="7.23064">
        <ele>592.7</ele>
        <time>2021-08-03T09:58:45Z</time>
      </trkpt>
      <trkpt lat="48.46127" lon="7.23068">
        <ele>593.1</ele>
        <time>2021-08-03T09:58:47Z</time>
      </trkpt>
      <trkpt lat="48.46124" lon="7.23072">
        <ele>593.5</ele>
        <time>2021-08-03T09:59:12Z</time>
      </trkpt>
      <trkpt lat="48.46122" lon="7.23076">
        <ele>593.9</ele>
        <time>2021-08-03T09:59:13Z</time>
      </trkpt>
      <trkpt lat="48.46119" lon="7.2308">
        <ele>594.2</ele>
        <time>2021-08-03T09:59:15Z</time>
      </trkpt>
      <trkpt lat="48.46117" lon="7.23084">
        <ele>594.6</ele>
        <time>2021-08-03T09:59:17Z</time>
      </trkpt>
      <trkpt lat="48.46114" lon="7.23088">
        <ele>595</ele>
        <time>2021-08-03T09:59:18Z</time>
      </trkpt>
      <trkpt lat="48.46113" lon="7.23091">
        <ele>595.3</ele>
        <time>2021-08-03T09:59:19Z</time>
      </trkpt>
      <trkpt lat="48.46111" lon="7.23092">
        <ele>595.4</ele>
        <time>2021-08-03T09:59:21Z</time>
      </trkpt>
      <trkpt lat="48.4611" lon="7.23094">
        <ele>595.6</ele>
        <time>2021-08-03T09:59:22Z</time>
      </trkpt>
      <trkpt lat="48.46109" lon="7.23095">
        <ele>595.8</ele>
        <time>2021-08-03T09:59:23Z</time>
      </trkpt>
      <trkpt lat="48.4611" lon="7.23117">
        <ele>597.3</ele>
        <time>2021-08-03T09:59:36Z</time>
      </trkpt>
      <trkpt lat="48.46111" lon="7.23119">
        <ele>597.5</ele>
        <time>2021-08-03T09:59:38Z</time>
      </trkpt>
      <trkpt lat="48.46113" lon="7.23121">
        <ele>597.7</ele>
        <time>2021-08-03T09:59:39Z</time>
      </trkpt>
      <trkpt lat="48.46114" lon="7.23122">
        <ele>597.9</ele>
        <time>2021-08-03T09:59:40Z</time>
      </trkpt>
      <trkpt lat="48.46117" lon="7.23126">
        <ele>598.3</ele>
        <time>2021-08-03T09:59:42Z</time>
      </trkpt>
      <trkpt lat="48.46118" lon="7.23127">
        <ele>598.4</ele>
        <time>2021-08-03T09:59:43Z</time>
      </trkpt>
      <trkpt lat="48.46119" lon="7.2313">
        <ele>598.6</ele>
        <time>2021-08-03T09:59:45Z</time>
      </trkpt>
      <trkpt lat="48.46119" lon="7.23131">
        <ele>598.8</ele>
        <time>2021-08-03T09:59:46Z</time>
      </trkpt>
      <trkpt lat="48.4612" lon="7.23133">
        <ele>598.9</ele>
        <time>2021-08-03T09:59:48Z</time>
      </trkpt>
      <trkpt lat="48.46121" lon="7.23134">
        <ele>599</ele>
        <time>2021-08-03T09:59:49Z</time>
      </trkpt>
      <trkpt lat="48.46122" lon="7.23136">
        <ele>599.2</ele>
        <time>2021-08-03T09:59:50Z</time>
      </trkpt>
      <trkpt lat="48.46123" lon="7.23137">
        <ele>599.3</ele>
        <time>2021-08-03T09:59:51Z</time>
      </trkpt>
      <trkpt lat="48.46123" lon="7.23137">
        <ele>599.4</ele>
        <time>2021-08-03T09:59:52Z</time>
      </trkpt>
      <trkpt lat="48.46124" lon="7.23139">
        <ele>599.6</ele>
        <time>2021-08-03T09:59:54Z</time>
      </trkpt>
      <trkpt lat="48.46125" lon="7.2314">
        <ele>599.7</ele>
        <time>2021-08-03T09:59:55Z</time>
      </trkpt>
      <trkpt lat="48.46125" lon="7.23141">
        <ele>599.8</ele>
        <time>2021-08-03T09:59:56Z</time>
      </trkpt>
      <trkpt lat="48.46126" lon="7.23143">
        <ele>599.9</ele>
        <time>2021-08-03T09:59:57Z</time>
      </trkpt>
      <trkpt lat="48.46126" lon="7.23144">
        <ele>600</ele>
        <time>2021-08-03T09:59:58Z</time>
      </trkpt>
      <trkpt lat="48.46127" lon="7.23146">
        <ele>600.1</ele>
        <time>2021-08-03T10:00:00Z</time>
      </trkpt>
      <trkpt lat="48.46105" lon="7.23358">
        <ele>615.2</ele>
        <time>2021-08-03T10:02:47Z</time>
      </trkpt>
      <trkpt lat="48.46105" lon="7.23361">
        <ele>615.4</ele>
        <time>2021-08-03T10:02:48Z</time>
      </trkpt>
      <trkpt lat="48.46104" lon="7.23363">
        <ele>615.6</ele>
        <time>2021-08-03T10:02:49Z</time>
      </trkpt>
      <trkpt lat="48.46103" lon="7.23364">
        <ele>615.7</ele>
        <time>2021-08-03T10:02:51Z</time>
      </trkpt>
      <trkpt lat="48.46101" lon="7.23365">
        <ele>615.9</ele>
        <time>2021-08-03T10:02:52Z</time>
      </trkpt>
      <trkpt lat="48.46099" lon="7.23366">
        <ele>616.1</ele>
        <time>2021-08-03T10:02:53Z</time>
      </trkpt>
      <trkpt lat="48.46096" lon="7.23367">
        <ele>616.4</ele>
        <time>2021-08-03T10:02:55Z</time>
      </trkpt>
      <trkpt lat="48.46094" lon="7.23368">
        <ele>616.7</ele>
        <time>2021-08-03T10:02:56Z</time>
      </trkpt>
      <trkpt lat="48.46092" lon="7.23369">
        <ele>616.9</ele>
        <time>2021-08-03T10:02:57Z</time>
      </trkpt>
      <trkpt lat="48.46091" lon="7.2337">
        <ele>617</ele>
        <time>2021-08-03T10:02:58Z</time>
      </trkpt>
      <trkpt lat="48.46097" lon="7.2347">
        <ele>623.2</ele>
        <time>2021-08-03T10:04:10Z</time>
      </trkpt>
      <trkpt lat="48.461" lon="7.23471">
        <ele>623.5</ele>
        <time>2021-08-03T10:04:11Z</time>
      </trkpt>
      <trkpt lat="48.46103" lon="7.23472">
        <ele>623.9</ele>
        <time>2021-08-03T10:04:12Z</time>
      </trkpt>
      <trkpt lat="48.46106" lon="7.23473">
        <ele>624.1</ele>
        <time>2021-08-03T10:04:13Z</time>
      </trkpt>
      <trkpt lat="48.46108" lon="7.23474">
        <ele>624.3</ele>
        <time>2021-08-03T10:04:15Z</time>
      </trkpt>
      <trkpt lat="48.46108" lon="7.23475">
        <ele>624.5</ele>
        <time>2021-08-03T10:04:16Z</time>
      </trkpt>
      <trkpt lat="48.46108" lon="7.23476">
        <ele>624.5</ele>
        <time>2021-08-03T10:04:17Z</time>
      </trkpt>
      <trkpt lat="48.46106" lon="7.23478">
        <ele>624.7</ele>
        <time>2021-08-03T10:04:19Z</time>
      </trkpt>
      <trkpt lat="48.46106" lon="7.23479">
        <ele>624.9</ele>
        <time>2021-08-03T10:04:20Z</time>
      </trkpt>
      <trkpt lat="48.46105" lon="7.23481">
        <ele>625</ele>
        <time>2021-08-03T10:04:21Z</time>
      </trkpt>
      <trkpt lat="48.46105" lon="7.23484">
        <ele>625.2</ele>
        <time>2021-08-03T10:04:23Z</time>
      </trkpt>
      <trkpt lat="48.46111" lon="7.23542">
        <ele>629.6</ele>
        <time>2021-08-03T10:05:08Z</time>
      </trkpt>
      <trkpt lat="48.46113" lon="7.23544">
        <ele>629.9</ele>
        <time>2021-08-03T10:05:10Z</time>
      </trkpt>
      <trkpt lat="48.46114" lon="7.23545">
        <ele>630</ele>
        <time>2021-08-03T10:05:11Z</time>
      </trkpt>
      <trkpt lat="48.46115" lon="7.23545">
        <ele>630.1</ele>
        <time>2021-08-03T10:05:12Z</time>
      </trkpt>
      <trkpt lat="48.46116" lon="7.23549">
        <ele>630.5</ele>
        <time>2021-08-03T10:05:14Z</time>
      </trkpt>
      <trkpt lat="48.46116" lon="7.23551">
        <ele>630.6</ele>
        <time>2021-08-03T10:05:16Z</time>
      </trkpt>
      <trkpt lat="48.46116" lon="7.23552">
        <ele>630.7</ele>
        <time>2021-08-03T10:05:17Z</time>
      </trkpt>
      <trkpt lat="48.46115" lon="7.23553">
        <ele>630.8</ele>
        <time>2021-08-03T10:05:18Z</time>
      </trkpt>
      <trkpt lat="48.46113" lon="7.23554">
        <ele>631.1</ele>
        <time>2021-08-03T10:05:20Z</time>
      </trkpt>
      <trkpt lat="48.46112" lon="7.23556">
        <ele>631.3</ele>
        <time>2021-08-03T10:05:21Z</time>
      </trkpt>
      <trkpt lat="48.46111" lon="7.23557">
        <ele>631.5</ele>
        <time>2021-08-03T10:05:22Z</time>
      </trkpt>
      <trkpt lat="48.4611" lon="7.2356">
        <ele>631.8</ele>
        <time>2021-08-03T10:05:24Z</time>
      </trkpt>
      <trkpt lat="48.46109" lon="7.23562">
        <ele>631.9</ele>
        <time>2021-08-03T10:05:25Z</time>
      </trkpt>
      <trkpt lat="48.46109" lon="7.23564">
        <ele>632.1</ele>
        <time>2021-08-03T10:05:26Z</time>
      </trkpt>
      <trkpt lat="48.4611" lon="7.23565">
        <ele>632.2</ele>
        <time>2021-08-03T10:05:28Z</time>
      </trkpt>
      <trkpt lat="48.46111" lon="7.23571">
        <ele>632.6</ele>
        <time>2021-08-03T10:05:32Z</time>
      </trkpt>
      <trkpt lat="48.46112" lon="7.23572">
        <ele>632.7</ele>
        <time>2021-08-03T10:05:33Z</time>
      </trkpt>
      <trkpt lat="48.46112" lon="7.23573">
        <ele>632.8</ele>
        <time>2021-08-03T10:05:34Z</time>
      </trkpt>
      <trkpt lat="48.46112" lon="7.23574">
        <ele>632.9</ele>
        <time>2021-08-03T10:05:36Z</time>
      </trkpt>
      <trkpt lat="48.46112" lon="7.23575">
        <ele>633</ele>
        <time>2021-08-03T10:05:37Z</time>
      </trkpt>
      <trkpt lat="48.46113" lon="7.23576">
        <ele>633</ele>
        <time>2021-08-03T10:05:38Z</time>
      </trkpt>
      <trkpt lat="48.46112" lon="7.23577">
        <ele>633.1</ele>
        <time>2021-08-03T10:05:40Z</time>
      </trkpt>
      <trkpt lat="48.46112" lon="7.23578">
        <ele>633.2</ele>
        <time>2021-08-03T10:05:41Z</time>
      </trkpt>
      <trkpt lat="48.46112" lon="7.23579">
        <ele>633.2</ele>
        <time>2021-08-03T10:05:42Z</time>
      </trkpt>
      <trkpt lat="48.46112" lon="7.23581">
        <ele>633.4</ele>
        <time>2021-08-03T10:05:44Z</time>
      </trkpt>
      <trkpt lat="48.46119" lon="7.23595">
        <ele>634.6</ele>
        <time>2021-08-03T10:05:46Z</time>
      </trkpt>
      <trkpt lat="48.46126" lon="7.23606">
        <ele>635.8</ele>
        <time>2021-08-03T10:06:15Z</time>
      </trkpt>
      <trkpt lat="48.46133" lon="7.23618">
        <ele>637</ele>
        <time>2021-08-03T10:06:16Z</time>
      </trkpt>
      <trkpt lat="48.46141" lon="7.2363">
        <ele>638.2</ele>
        <time>2021-08-03T10:06:17Z</time>
      </trkpt>
      <trkpt lat="48.46142" lon="7.23631">
        <ele>638.5</ele>
        <time>2021-08-03T10:06:18Z</time>
      </trkpt>
      <trkpt lat="48.46146" lon="7.23633">
        <ele>638.9</ele>
        <time>2021-08-03T10:06:20Z</time>
      </trkpt>
      <trkpt lat="48.4615" lon="7.23635">
        <ele>639.3</ele>
        <time>2021-08-03T10:06:21Z</time>
      </trkpt>
      <trkpt lat="48.46151" lon="7.23635">
        <ele>639.5</ele>
        <time>2021-08-03T10:06:22Z</time>
      </trkpt>
      <trkpt lat="48.46153" lon="7.23635">
        <ele>639.7</ele>
        <time>2021-08-03T10:06:23Z</time>
      </trkpt>
      <trkpt lat="48.46156" lon="7.23636">
        <ele>640</ele>
        <time>2021-08-03T10:06:25Z</time>
      </trkpt>
      <trkpt lat="48.46159" lon="7.23637">
        <ele>640.3</ele>
        <time>2021-08-03T10:06:26Z</time>
      </trkpt>
      <trkpt lat="48.4616" lon="7.23638">
        <ele>640.4</ele>
        <time>2021-08-03T10:06:27Z</time>
      </trkpt>
      <trkpt lat="48.46161" lon="7.23639">
        <ele>640.6</ele>
        <time>2021-08-03T10:06:29Z</time>
      </trkpt>
      <trkpt lat="48.46161" lon="7.2364">
        <ele>640.7</ele>
        <time>2021-08-03T10:06:31Z</time>
      </trkpt>
      <trkpt lat="48.46161" lon="7.23642">
        <ele>640.9</ele>
        <time>2021-08-03T10:06:32Z</time>
      </trkpt>
      <trkpt lat="48.4616" lon="7.23644">
        <ele>641</ele>
        <time>2021-08-03T10:06:33Z</time>
      </trkpt>
      <trkpt lat="48.46159" lon="7.23645">
        <ele>641.1</ele>
        <time>2021-08-03T10:06:34Z</time>
      </trkpt>
      <trkpt lat="48.46158" lon="7.23647">
        <ele>641.3</ele>
        <time>2021-08-03T10:06:36Z</time>
      </trkpt>
      <trkpt lat="48.46157" lon="7.23649">
        <ele>641.5</ele>
        <time>2021-08-03T10:06:37Z</time>
      </trkpt>
      <trkpt lat="48.46156" lon="7.2365">
        <ele>641.6</ele>
        <time>2021-08-03T10:06:38Z</time>
      </trkpt>
      <trkpt lat="48.46156" lon="7.23651">
        <ele>641.7</ele>
        <time>2021-08-03T10:06:39Z</time>
      </trkpt>
      <trkpt lat="48.46155" lon="7.23653">
        <ele>641.9</ele>
        <time>2021-08-03T10:06:40Z</time>
      </trkpt>
      <trkpt lat="48.46155" lon="7.23656">
        <ele>642.1</ele>
        <time>2021-08-03T10:06:42Z</time>
      </trkpt>
      <trkpt lat="48.46154" lon="7.23659">
        <ele>642.3</ele>
        <time>2021-08-03T10:06:43Z</time>
      </trkpt>
      <trkpt lat="48.46246" lon="7.23823">
        <ele>662.8</ele>
        <time>2021-08-03T10:09:56Z</time>
      </trkpt>
      <trkpt lat="48.46246" lon="7.23825">
        <ele>662.9</ele>
        <time>2021-08-03T10:09:58Z</time>
      </trkpt>
      <trkpt lat="48.46246" lon="7.23826">
        <ele>663</ele>
        <time>2021-08-03T10:09:59Z</time>
      </trkpt>
      <trkpt lat="48.46245" lon="7.23827">
        <ele>663.1</ele>
        <time>2021-08-03T10:10:00Z</time>
      </trkpt>
      <trkpt lat="48.46245" lon="7.23829">
        <ele>663.3</ele>
        <time>2021-08-03T10:10:02Z</time>
      </trkpt>
      <trkpt lat="48.46245" lon="7.2383">
        <ele>663.4</ele>
        <time>2021-08-03T10:10:03Z</time>
      </trkpt>
      <trkpt lat="48.46245" lon="7.23831">
        <ele>663.6</ele>
        <time>2021-08-03T10:10:05Z</time>
      </trkpt>
      <trkpt lat="48.46245" lon="7.23833">
        <ele>663.7</ele>
        <time>2021-08-03T10:10:07Z</time>
      </trkpt>
      <trkpt lat="48.46245" lon="7.23835">
        <ele>663.9</ele>
        <time>2021-08-03T10:10:08Z</time>
      </trkpt>
      <trkpt lat="48.46245" lon="7.23837">
        <ele>664</ele>
        <time>2021-08-03T10:10:10Z</time>
      </trkpt>
      <trkpt lat="48.46245" lon="7.23839">
        <ele>664.2</ele>
        <time>2021-08-03T10:10:11Z</time>
      </trkpt>
      <trkpt lat="48.46245" lon="7.2384">
        <ele>664.3</ele>
        <time>2021-08-03T10:10:12Z</time>
      </trkpt>
      <trkpt lat="48.46245" lon="7.23843">
        <ele>664.6</ele>
        <time>2021-08-03T10:10:14Z</time>
      </trkpt>
      <trkpt lat="48.46246" lon="7.23846">
        <ele>664.9</ele>
        <time>2021-08-03T10:10:15Z</time>
      </trkpt>
      <trkpt lat="48.46246" lon="7.23849">
        <ele>665.2</ele>
        <time>2021-08-03T10:10:17Z</time>
      </trkpt>
      <trkpt lat="48.46247" lon="7.23851">
        <ele>665.4</ele>
        <time>2021-08-03T10:10:18Z</time>
      </trkpt>
      <trkpt lat="48.46247" lon="7.23852">
        <ele>665.8</ele>
        <time>2021-08-03T10:10:19Z</time>
      </trkpt>
      <trkpt lat="48.46249" lon="7.23855">
        <ele>665.8</ele>
        <time>2021-08-03T10:10:21Z</time>
      </trkpt>
      <trkpt lat="48.4625" lon="7.23856">
        <ele>665.8</ele>
        <time>2021-08-03T10:10:22Z</time>
      </trkpt>
      <trkpt lat="48.46251" lon="7.23858">
        <ele>665.8</ele>
        <time>2021-08-03T10:10:23Z</time>
      </trkpt>
      <trkpt lat="48.46251" lon="7.23859">
        <ele>665.8</ele>
        <time>2021-08-03T10:10:24Z</time>
      </trkpt>
      <trkpt lat="48.46252" lon="7.23861">
        <ele>665.8</ele>
        <time>2021-08-03T10:10:26Z</time>
      </trkpt>
      <trkpt lat="48.46252" lon="7.23863">
        <ele>665.8</ele>
        <time>2021-08-03T10:10:27Z</time>
      </trkpt>
      <trkpt lat="48.46252" lon="7.23864">
        <ele>665.8</ele>
        <time>2021-08-03T10:10:28Z</time>
      </trkpt>
      <trkpt lat="48.46252" lon="7.23866">
        <ele>665.8</ele>
        <time>2021-08-03T10:10:30Z</time>
      </trkpt>
      <trkpt lat="48.46252" lon="7.23867">
        <ele>665.8</ele>
        <time>2021-08-03T10:10:31Z</time>
      </trkpt>
      <trkpt lat="48.46253" lon="7.23868">
        <ele>665.8</ele>
        <time>2021-08-03T10:10:32Z</time>
      </trkpt>
      <trkpt lat="48.46253" lon="7.23869">
        <ele>665.8</ele>
        <time>2021-08-03T10:10:33Z</time>
      </trkpt>
      <trkpt lat="48.46253" lon="7.2387">
        <ele>665.8</ele>
        <time>2021-08-03T10:10:34Z</time>
      </trkpt>
      <trkpt lat="48.46253" lon="7.2387">
        <ele>665.8</ele>
        <time>2021-08-03T10:10:35Z</time>
      </trkpt>
      <trkpt lat="48.46252" lon="7.23869">
        <ele>665.8</ele>
        <time>2021-08-03T10:10:37Z</time>
      </trkpt>
      <trkpt lat="48.46252" lon="7.23868">
        <ele>665.8</ele>
        <time>2021-08-03T10:10:38Z</time>
      </trkpt>
      <trkpt lat="48.46252" lon="7.23868">
        <ele>665.8</ele>
        <time>2021-08-03T10:10:40Z</time>
      </trkpt>
      <trkpt lat="48.46253" lon="7.23868">
        <ele>665.8</ele>
        <time>2021-08-03T10:10:42Z</time>
      </trkpt>
      <trkpt lat="48.46253" lon="7.23868">
        <ele>665.8</ele>
        <time>2021-08-03T10:10:43Z</time>
      </trkpt>
      <trkpt lat="48.46254" lon="7.23868">
        <ele>665.8</ele>
        <time>2021-08-03T10:10:44Z</time>
      </trkpt>
      <trkpt lat="48.46255" lon="7.23868">
        <ele>665.8</ele>
        <time>2021-08-03T10:10:46Z</time>
      </trkpt>
      <trkpt lat="48.46255" lon="7.23868">
        <ele>665.8</ele>
        <time>2021-08-03T10:10:48Z</time>
      </trkpt>
      <trkpt lat="48.46255" lon="7.23868">
        <ele>665.8</ele>
        <time>2021-08-03T10:10:49Z</time>
      </trkpt>
      <trkpt lat="48.46256" lon="7.23868">
        <ele>665.8</ele>
        <time>2021-08-03T10:10:51Z</time>
      </trkpt>
      <trkpt lat="48.46256" lon="7.23868">
        <ele>665.8</ele>
        <time>2021-08-03T10:10:52Z</time>
      </trkpt>
      <trkpt lat="48.46257" lon="7.23868">
        <ele>665.8</ele>
        <time>2021-08-03T10:10:54Z</time>
      </trkpt>
      <trkpt lat="48.46257" lon="7.23868">
        <ele>665.8</ele>
        <time>2021-08-03T10:10:56Z</time>
      </trkpt>
      <trkpt lat="48.46258" lon="7.23868">
        <ele>665.8</ele>
        <time>2021-08-03T10:10:57Z</time>
      </trkpt>
      <trkpt lat="48.46258" lon="7.23868">
        <ele>665.8</ele>
        <time>2021-08-03T10:10:59Z</time>
      </trkpt>
      <trkpt lat="48.46257" lon="7.23868">
        <ele>665.8</ele>
        <time>2021-08-03T10:11:00Z</time>
      </trkpt>
      <trkpt lat="48.46257" lon="7.23868">
        <ele>665.8</ele>
        <time>2021-08-03T10:11:02Z</time>
      </trkpt>
      <trkpt lat="48.46257" lon="7.23868">
        <ele>665.8</ele>
        <time>2021-08-03T10:11:03Z</time>
      </trkpt>
      <trkpt lat="48.46257" lon="7.23868">
        <ele>665.8</ele>
        <time>2021-08-03T10:11:05Z</time>
      </trkpt>
      <trkpt lat="48.46249" lon="7.23862">
        <ele>665.8</ele>
        <time>2021-08-03T10:11:07Z</time>
      </trkpt>
      <trkpt lat="48.46252" lon="7.23863">
        <ele>665.8</ele>
        <time>2021-08-03T10:11:09Z</time>
      </trkpt>
      <trkpt lat="48.46253" lon="7.23865">
        <ele>665.8</ele>
        <time>2021-08-03T10:11:10Z</time>
      </trkpt>
      <trkpt lat="48.46255" lon="7.23866">
        <ele>665.8</ele>
        <time>2021-08-03T10:11:12Z</time>
      </trkpt>
      <trkpt lat="48.46256" lon="7.23868">
        <ele>665.8</ele>
        <time>2021-08-03T10:11:13Z</time>
      </trkpt>
      <trkpt lat="48.4626" lon="7.23873">
        <ele>665.8</ele>
        <time>2021-08-03T10:11:15Z</time>
      </trkpt>
      <trkpt lat="48.46265" lon="7.23876">
        <ele>666.7</ele>
        <time>2021-08-03T10:11:17Z</time>
      </trkpt>
      <trkpt lat="48.46267" lon="7.23879">
        <ele>666.9</ele>
        <time>2021-08-03T10:11:19Z</time>
      </trkpt>
      <trkpt lat="48.46267" lon="7.23881">
        <ele>667</ele>
        <time>2021-08-03T10:11:21Z</time>
      </trkpt>
      <trkpt lat="48.46265" lon="7.23883">
        <ele>667.1</ele>
        <time>2021-08-03T10:11:22Z</time>
      </trkpt>
      <trkpt lat="48.46263" lon="7.23884">
        <ele>667.2</ele>
        <time>2021-08-03T10:11:23Z</time>
      </trkpt>
      <trkpt lat="48.46261" lon="7.23884">
        <ele>667.4</ele>
        <time>2021-08-03T10:11:24Z</time>
      </trkpt>
      <trkpt lat="48.46259" lon="7.23885">
        <ele>667.5</ele>
        <time>2021-08-03T10:11:25Z</time>
      </trkpt>
      <trkpt lat="48.46257" lon="7.23885">
        <ele>667.6</ele>
        <time>2021-08-03T10:11:41Z</time>
      </trkpt>
      <trkpt lat="48.46255" lon="7.23886">
        <ele>667.7</ele>
        <time>2021-08-03T10:11:42Z</time>
      </trkpt>
      <trkpt lat="48.46252" lon="7.23886">
        <ele>667.8</ele>
        <time>2021-08-03T10:11:44Z</time>
      </trkpt>
      <trkpt lat="48.4625" lon="7.23887">
        <ele>667.9</ele>
        <time>2021-08-03T10:11:45Z</time>
      </trkpt>
      <trkpt lat="48.46248" lon="7.23887">
        <ele>668</ele>
        <time>2021-08-03T10:11:47Z</time>
      </trkpt>
      <trkpt lat="48.46246" lon="7.23888">
        <ele>668.1</ele>
        <time>2021-08-03T10:11:49Z</time>
      </trkpt>
      <trkpt lat="48.46244" lon="7.23888">
        <ele>668.1</ele>
        <time>2021-08-03T10:11:50Z</time>
      </trkpt>
      <trkpt lat="48.46242" lon="7.23889">
        <ele>668.2</ele>
        <time>2021-08-03T10:11:52Z</time>
      </trkpt>
      <trkpt lat="48.4624" lon="7.23889">
        <ele>668.3</ele>
        <time>2021-08-03T10:13:16Z</time>
      </trkpt>
      <trkpt lat="48.46238" lon="7.2389">
        <ele>668.3</ele>
        <time>2021-08-03T10:13:17Z</time>
      </trkpt>
      <trkpt lat="48.46236" lon="7.2389">
        <ele>668.4</ele>
        <time>2021-08-03T10:13:18Z</time>
      </trkpt>
      <trkpt lat="48.46233" lon="7.23891">
        <ele>668.5</ele>
        <time>2021-08-03T10:13:19Z</time>
      </trkpt>
      <trkpt lat="48.4623" lon="7.23893">
        <ele>668.6</ele>
        <time>2021-08-03T10:13:21Z</time>
      </trkpt>
      <trkpt lat="48.46228" lon="7.23895">
        <ele>668.7</ele>
        <time>2021-08-03T10:13:23Z</time>
      </trkpt>
      <trkpt lat="48.46227" lon="7.23896">
        <ele>668.7</ele>
        <time>2021-08-03T10:13:24Z</time>
      </trkpt>
      <trkpt lat="48.46225" lon="7.23897">
        <ele>668.8</ele>
        <time>2021-08-03T10:13:26Z</time>
      </trkpt>
      <trkpt lat="48.46223" lon="7.23897">
        <ele>668.8</ele>
        <time>2021-08-03T10:13:28Z</time>
      </trkpt>
      <trkpt lat="48.46221" lon="7.23898">
        <ele>668.9</ele>
        <time>2021-08-03T10:13:29Z</time>
      </trkpt>
      <trkpt lat="48.4622" lon="7.23898">
        <ele>668.9</ele>
        <time>2021-08-03T10:13:30Z</time>
      </trkpt>
      <trkpt lat="48.46218" lon="7.23898">
        <ele>669</ele>
        <time>2021-08-03T10:13:32Z</time>
      </trkpt>
      <trkpt lat="48.46217" lon="7.23898">
        <ele>669.1</ele>
        <time>2021-08-03T10:13:33Z</time>
      </trkpt>
      <trkpt lat="48.46216" lon="7.23899">
        <ele>669.1</ele>
        <time>2021-08-03T10:13:35Z</time>
      </trkpt>
      <trkpt lat="48.46214" lon="7.23899">
        <ele>669.2</ele>
        <time>2021-08-03T10:13:36Z</time>
      </trkpt>
      <trkpt lat="48.46213" lon="7.23899">
        <ele>669.2</ele>
        <time>2021-08-03T10:13:38Z</time>
      </trkpt>
      <trkpt lat="48.46213" lon="7.23898">
        <ele>669.2</ele>
        <time>2021-08-03T10:13:40Z</time>
      </trkpt>
      <trkpt lat="48.46211" lon="7.23898">
        <ele>669.3</ele>
        <time>2021-08-03T10:13:41Z</time>
      </trkpt>
      <trkpt lat="48.4621" lon="7.23897">
        <ele>669.4</ele>
        <time>2021-08-03T10:13:42Z</time>
      </trkpt>
      <trkpt lat="48.46208" lon="7.23896">
        <ele>669.5</ele>
        <time>2021-08-03T10:13:44Z</time>
      </trkpt>
      <trkpt lat="48.46206" lon="7.23894">
        <ele>669.6</ele>
        <time>2021-08-03T10:13:46Z</time>
      </trkpt>
      <trkpt lat="48.46203" lon="7.23893">
        <ele>669.8</ele>
        <time>2021-08-03T10:13:47Z</time>
      </trkpt>
      <trkpt lat="48.46201" lon="7.23893">
        <ele>669.8</ele>
        <time>2021-08-03T10:13:48Z</time>
      </trkpt>
      <trkpt lat="48.46199" lon="7.23893">
        <ele>669.9</ele>
        <time>2021-08-03T10:13:49Z</time>
      </trkpt>
      <trkpt lat="48.46196" lon="7.23892">
        <ele>670.1</ele>
        <time>2021-08-03T10:13:51Z</time>
      </trkpt>
      <trkpt lat="48.46192" lon="7.23892">
        <ele>670.3</ele>
        <time>2021-08-03T10:13:53Z</time>
      </trkpt>
      <trkpt lat="48.46188" lon="7.23892">
        <ele>670.5</ele>
        <time>2021-08-03T10:13:54Z</time>
      </trkpt>
      <trkpt lat="48.46187" lon="7.23893">
        <ele>670.6</ele>
        <time>2021-08-03T10:13:55Z</time>
      </trkpt>
      <trkpt lat="48.46183" lon="7.23892">
        <ele>670.8</ele>
        <time>2021-08-03T10:13:56Z</time>
      </trkpt>
      <trkpt lat="48.46182" lon="7.23892">
        <ele>670.9</ele>
        <time>2021-08-03T10:13:57Z</time>
      </trkpt>
      <trkpt lat="48.46181" lon="7.2389">
        <ele>671</ele>
        <time>2021-08-03T10:13:58Z</time>
      </trkpt>
      <trkpt lat="48.46182" lon="7.23887">
        <ele>671.1</ele>
        <time>2021-08-03T10:14:00Z</time>
      </trkpt>
      <trkpt lat="48.46182" lon="7.23883">
        <ele>671.2</ele>
        <time>2021-08-03T10:14:02Z</time>
      </trkpt>
      <trkpt lat="48.46182" lon="7.23883">
        <ele>671.3</ele>
        <time>2021-08-03T10:14:03Z</time>
      </trkpt>
      <trkpt lat="48.46182" lon="7.23883">
        <ele>671.3</ele>
        <time>2021-08-03T10:14:04Z</time>
      </trkpt>
      <trkpt lat="48.46182" lon="7.23883">
        <ele>671.3</ele>
        <time>2021-08-03T10:14:05Z</time>
      </trkpt>
      <trkpt lat="48.46181" lon="7.23883">
        <ele>671.3</ele>
        <time>2021-08-03T10:14:07Z</time>
      </trkpt>
      <trkpt lat="48.46181" lon="7.23884">
        <ele>671.4</ele>
        <time>2021-08-03T10:14:09Z</time>
      </trkpt>
      <trkpt lat="48.46172" lon="7.23885">
        <ele>671.9</ele>
        <time>2021-08-03T10:14:15Z</time>
      </trkpt>
      <trkpt lat="48.46169" lon="7.23886">
        <ele>672.1</ele>
        <time>2021-08-03T10:14:16Z</time>
      </trkpt>
      <trkpt lat="48.46167" lon="7.23885">
        <ele>672.2</ele>
        <time>2021-08-03T10:14:17Z</time>
      </trkpt>
      <trkpt lat="48.46166" lon="7.23885">
        <ele>672.2</ele>
        <time>2021-08-03T10:14:18Z</time>
      </trkpt>
      <trkpt lat="48.46165" lon="7.23885">
        <ele>672.3</ele>
        <time>2021-08-03T10:14:19Z</time>
      </trkpt>
      <trkpt lat="48.46163" lon="7.23885">
        <ele>672.4</ele>
        <time>2021-08-03T10:14:21Z</time>
      </trkpt>
      <trkpt lat="48.46162" lon="7.23886">
        <ele>672.5</ele>
        <time>2021-08-03T10:14:22Z</time>
      </trkpt>
      <trkpt lat="48.46162" lon="7.23886">
        <ele>672.5</ele>
        <time>2021-08-03T10:14:23Z</time>
      </trkpt>
      <trkpt lat="48.46161" lon="7.23886">
        <ele>672.5</ele>
        <time>2021-08-03T10:14:25Z</time>
      </trkpt>
      <trkpt lat="48.46161" lon="7.23887">
        <ele>672.6</ele>
        <time>2021-08-03T10:14:26Z</time>
      </trkpt>
      <trkpt lat="48.46161" lon="7.23887">
        <ele>672.6</ele>
        <time>2021-08-03T10:14:28Z</time>
      </trkpt>
      <trkpt lat="48.46161" lon="7.23887">
        <ele>672.6</ele>
        <time>2021-08-03T10:14:29Z</time>
      </trkpt>
      <trkpt lat="48.4616" lon="7.23888">
        <ele>672.6</ele>
        <time>2021-08-03T10:14:31Z</time>
      </trkpt>
      <trkpt lat="48.4616" lon="7.23888">
        <ele>672.7</ele>
        <time>2021-08-03T10:14:32Z</time>
      </trkpt>
      <trkpt lat="48.46159" lon="7.2389">
        <ele>672.7</ele>
        <time>2021-08-03T10:14:33Z</time>
      </trkpt>
      <trkpt lat="48.46159" lon="7.23892">
        <ele>672.8</ele>
        <time>2021-08-03T10:14:35Z</time>
      </trkpt>
      <trkpt lat="48.46158" lon="7.23894">
        <ele>672.9</ele>
        <time>2021-08-03T10:14:36Z</time>
      </trkpt>
      <trkpt lat="48.46155" lon="7.23906">
        <ele>673.3</ele>
        <time>2021-08-03T10:14:42Z</time>
      </trkpt>
      <trkpt lat="48.46153" lon="7.23908">
        <ele>673.5</ele>
        <time>2021-08-03T10:14:44Z</time>
      </trkpt>
      <trkpt lat="48.46152" lon="7.23909">
        <ele>673.5</ele>
        <time>2021-08-03T10:14:45Z</time>
      </trkpt>
      <trkpt lat="48.46151" lon="7.23909">
        <ele>673.6</ele>
        <time>2021-08-03T10:14:46Z</time>
      </trkpt>
      <trkpt lat="48.46149" lon="7.23909">
        <ele>673.7</ele>
        <time>2021-08-03T10:14:48Z</time>
      </trkpt>
      <trkpt lat="48.46148" lon="7.23909">
        <ele>673.7</ele>
        <time>2021-08-03T10:14:49Z</time>
      </trkpt>
      <trkpt lat="48.46147" lon="7.23909">
        <ele>673.8</ele>
        <time>2021-08-03T10:14:50Z</time>
      </trkpt>
      <trkpt lat="48.46146" lon="7.2391">
        <ele>673.8</ele>
        <time>2021-08-03T10:14:52Z</time>
      </trkpt>
      <trkpt lat="48.46146" lon="7.23911">
        <ele>673.8</ele>
        <time>2021-08-03T10:14:53Z</time>
      </trkpt>
      <trkpt lat="48.46146" lon="7.23913">
        <ele>673.9</ele>
        <time>2021-08-03T10:14:55Z</time>
      </trkpt>
      <trkpt lat="48.46145" lon="7.23914">
        <ele>674</ele>
        <time>2021-08-03T10:14:56Z</time>
      </trkpt>
      <trkpt lat="48.46145" lon="7.23915">
        <ele>674</ele>
        <time>2021-08-03T10:14:57Z</time>
      </trkpt>
      <trkpt lat="48.4614" lon="7.23917">
        <ele>674.2</ele>
        <time>2021-08-03T10:14:58Z</time>
      </trkpt>
      <trkpt lat="48.46135" lon="7.23919">
        <ele>674.5</ele>
        <time>2021-08-03T10:15:00Z</time>
      </trkpt>
      <trkpt lat="48.46131" lon="7.23921">
        <ele>674.7</ele>
        <time>2021-08-03T10:16:18Z</time>
      </trkpt>
      <trkpt lat="48.46126" lon="7.23923">
        <ele>674.9</ele>
        <time>2021-08-03T10:16:20Z</time>
      </trkpt>
      <trkpt lat="48.46121" lon="7.23925">
        <ele>675.1</ele>
        <time>2021-08-03T10:16:21Z</time>
      </trkpt>
      <trkpt lat="48.46117" lon="7.23927">
        <ele>675.3</ele>
        <time>2021-08-03T10:16:23Z</time>
      </trkpt>
      <trkpt lat="48.46112" lon="7.23929">
        <ele>675.6</ele>
        <time>2021-08-03T10:16:24Z</time>
      </trkpt>
      <trkpt lat="48.46107" lon="7.23931">
        <ele>675.8</ele>
        <time>2021-08-03T10:16:26Z</time>
      </trkpt>
      <trkpt lat="48.46103" lon="7.23933">
        <ele>676.1</ele>
        <time>2021-08-03T10:16:28Z</time>
      </trkpt>
      <trkpt lat="48.46098" lon="7.23935">
        <ele>676.3</ele>
        <time>2021-08-03T10:16:29Z</time>
      </trkpt>
      <trkpt lat="48.46093" lon="7.23937">
        <ele>676.5</ele>
        <time>2021-08-03T10:16:31Z</time>
      </trkpt>
      <trkpt lat="48.46089" lon="7.23939">
        <ele>676.6</ele>
        <time>2021-08-03T10:16:32Z</time>
      </trkpt>
      <trkpt lat="48.46085" lon="7.23942">
        <ele>676.8</ele>
        <time>2021-08-03T10:16:34Z</time>
      </trkpt>
      <trkpt lat="48.46084" lon="7.23943">
        <ele>676.9</ele>
        <time>2021-08-03T10:16:35Z</time>
      </trkpt>
      <trkpt lat="48.4608" lon="7.23945">
        <ele>677</ele>
        <time>2021-08-03T10:16:37Z</time>
      </trkpt>
      <trkpt lat="48.4608" lon="7.23945">
        <ele>677</ele>
        <time>2021-08-03T10:16:37Z</time>
      </trkpt>
      <trkpt lat="48.46076" lon="7.23949">
        <ele>677.2</ele>
        <time>2021-08-03T10:16:38Z</time>
      </trkpt>
      <trkpt lat="48.4607" lon="7.23955">
        <ele>677.6</ele>
        <time>2021-08-03T10:16:39Z</time>
      </trkpt>
      <trkpt lat="48.46067" lon="7.23958">
        <ele>677.8</ele>
        <time>2021-08-03T10:16:40Z</time>
      </trkpt>
      <trkpt lat="48.46063" lon="7.23964">
        <ele>678.2</ele>
        <time>2021-08-03T10:16:42Z</time>
      </trkpt>
      <trkpt lat="48.46059" lon="7.23968">
        <ele>678.5</ele>
        <time>2021-08-03T10:16:43Z</time>
      </trkpt>
      <trkpt lat="48.46052" lon="7.23975">
        <ele>679</ele>
        <time>2021-08-03T10:16:45Z</time>
      </trkpt>
      <trkpt lat="48.46048" lon="7.23981">
        <ele>679.3</ele>
        <time>2021-08-03T10:16:47Z</time>
      </trkpt>
      <trkpt lat="48.46046" lon="7.23985">
        <ele>679.6</ele>
        <time>2021-08-03T10:16:48Z</time>
      </trkpt>
      <trkpt lat="48.46044" lon="7.23989">
        <ele>679.9</ele>
        <time>2021-08-03T10:16:49Z</time>
      </trkpt>
      <trkpt lat="48.4604" lon="7.23994">
        <ele>680.2</ele>
        <time>2021-08-03T10:16:51Z</time>
      </trkpt>
      <trkpt lat="48.46037" lon="7.23998">
        <ele>680.5</ele>
        <time>2021-08-03T10:16:53Z</time>
      </trkpt>
      <trkpt lat="48.46035" lon="7.24004">
        <ele>680.9</ele>
        <time>2021-08-03T10:16:55Z</time>
      </trkpt>
      <trkpt lat="48.46034" lon="7.24006">
        <ele>681</ele>
        <time>2021-08-03T10:16:56Z</time>
      </trkpt>
      <trkpt lat="48.46034" lon="7.24008">
        <ele>681.1</ele>
        <time>2021-08-03T10:16:57Z</time>
      </trkpt>
      <trkpt lat="48.46034" lon="7.24011">
        <ele>681.2</ele>
        <time>2021-08-03T10:16:58Z</time>
      </trkpt>
      <trkpt lat="48.46033" lon="7.24014">
        <ele>681.4</ele>
        <time>2021-08-03T10:17:00Z</time>
      </trkpt>
      <trkpt lat="48.4603" lon="7.24015">
        <ele>681.6</ele>
        <time>2021-08-03T10:17:01Z</time>
      </trkpt>
      <trkpt lat="48.46026" lon="7.24019">
        <ele>681.9</ele>
        <time>2021-08-03T10:17:03Z</time>
      </trkpt>
      <trkpt lat="48.46026" lon="7.24021">
        <ele>682</ele>
        <time>2021-08-03T10:17:04Z</time>
      </trkpt>
      <trkpt lat="48.46025" lon="7.24023">
        <ele>682.1</ele>
        <time>2021-08-03T10:17:05Z</time>
      </trkpt>
      <trkpt lat="48.46023" lon="7.24029">
        <ele>682.3</ele>
        <time>2021-08-03T10:17:06Z</time>
      </trkpt>
      <trkpt lat="48.46022" lon="7.24031">
        <ele>682.4</ele>
        <time>2021-08-03T10:17:07Z</time>
      </trkpt>
      <trkpt lat="48.4602" lon="7.24036">
        <ele>682.6</ele>
        <time>2021-08-03T10:17:09Z</time>
      </trkpt>
      <trkpt lat="48.46017" lon="7.24039">
        <ele>682.8</ele>
        <time>2021-08-03T10:17:10Z</time>
      </trkpt>
      <trkpt lat="48.46015" lon="7.24043">
        <ele>683</ele>
        <time>2021-08-03T10:17:11Z</time>
      </trkpt>
      <trkpt lat="48.46012" lon="7.24048">
        <ele>683.2</ele>
        <time>2021-08-03T10:17:13Z</time>
      </trkpt>
      <trkpt lat="48.4601" lon="7.24052">
        <ele>683.4</ele>
        <time>2021-08-03T10:17:14Z</time>
      </trkpt>
      <trkpt lat="48.46008" lon="7.24055">
        <ele>683.5</ele>
        <time>2021-08-03T10:17:15Z</time>
      </trkpt>
      <trkpt lat="48.46005" lon="7.24059">
        <ele>683.7</ele>
        <time>2021-08-03T10:17:16Z</time>
      </trkpt>
      <trkpt lat="48.46001" lon="7.24065">
        <ele>684</ele>
        <time>2021-08-03T10:17:18Z</time>
      </trkpt>
      <trkpt lat="48.46001" lon="7.24073">
        <ele>684.3</ele>
        <time>2021-08-03T10:17:20Z</time>
      </trkpt>
      <trkpt lat="48.46001" lon="7.24078">
        <ele>684.5</ele>
        <time>2021-08-03T10:17:21Z</time>
      </trkpt>
      <trkpt lat="48.46" lon="7.24083">
        <ele>684.7</ele>
        <time>2021-08-03T10:17:22Z</time>
      </trkpt>
      <trkpt lat="48.46001" lon="7.24092">
        <ele>685.1</ele>
        <time>2021-08-03T10:17:24Z</time>
      </trkpt>
      <trkpt lat="48.46001" lon="7.24098">
        <ele>685.3</ele>
        <time>2021-08-03T10:17:26Z</time>
      </trkpt>
      <trkpt lat="48.46" lon="7.24103">
        <ele>685.5</ele>
        <time>2021-08-03T10:17:27Z</time>
      </trkpt>
      <trkpt lat="48.46" lon="7.24108">
        <ele>685.7</ele>
        <time>2021-08-03T10:17:29Z</time>
      </trkpt>
      <trkpt lat="48.46001" lon="7.24109">
        <ele>685.8</ele>
        <time>2021-08-03T10:17:30Z</time>
      </trkpt>
      <trkpt lat="48.46002" lon="7.2411">
        <ele>685.8</ele>
        <time>2021-08-03T10:17:31Z</time>
      </trkpt>
      <trkpt lat="48.46004" lon="7.24112">
        <ele>685.9</ele>
        <time>2021-08-03T10:17:33Z</time>
      </trkpt>
      <trkpt lat="48.46004" lon="7.24113">
        <ele>686</ele>
        <time>2021-08-03T10:17:34Z</time>
      </trkpt>
      <trkpt lat="48.46004" lon="7.24113">
        <ele>686</ele>
        <time>2021-08-03T10:17:35Z</time>
      </trkpt>
      <trkpt lat="48.46005" lon="7.24116">
        <ele>686.1</ele>
        <time>2021-08-03T10:17:37Z</time>
      </trkpt>
      <trkpt lat="48.46003" lon="7.24122">
        <ele>686.3</ele>
        <time>2021-08-03T10:17:39Z</time>
      </trkpt>
      <trkpt lat="48.46001" lon="7.24127">
        <ele>686.5</ele>
        <time>2021-08-03T10:17:40Z</time>
      </trkpt>
      <trkpt lat="48.46" lon="7.24132">
        <ele>686.8</ele>
        <time>2021-08-03T10:17:42Z</time>
      </trkpt>
      <trkpt lat="48.46" lon="7.24134">
        <ele>686.8</ele>
        <time>2021-08-03T10:17:43Z</time>
      </trkpt>
      <trkpt lat="48.46" lon="7.24136">
        <ele>686.9</ele>
        <time>2021-08-03T10:17:44Z</time>
      </trkpt>
      <trkpt lat="48.46" lon="7.24141">
        <ele>687.1</ele>
        <time>2021-08-03T10:17:45Z</time>
      </trkpt>
      <trkpt lat="48.46" lon="7.24142">
        <ele>687.2</ele>
        <time>2021-08-03T10:17:46Z</time>
      </trkpt>
      <trkpt lat="48.46003" lon="7.2415">
        <ele>687.5</ele>
        <time>2021-08-03T10:17:47Z</time>
      </trkpt>
      <trkpt lat="48.46003" lon="7.24153">
        <ele>687.6</ele>
        <time>2021-08-03T10:17:51Z</time>
      </trkpt>
      <trkpt lat="48.46003" lon="7.24154">
        <ele>687.7</ele>
        <time>2021-08-03T10:17:52Z</time>
      </trkpt>
      <trkpt lat="48.46003" lon="7.24155">
        <ele>687.7</ele>
        <time>2021-08-03T10:17:53Z</time>
      </trkpt>
      <trkpt lat="48.46002" lon="7.24156">
        <ele>687.8</ele>
        <time>2021-08-03T10:17:54Z</time>
      </trkpt>
      <trkpt lat="48.45999" lon="7.24158">
        <ele>687.9</ele>
        <time>2021-08-03T10:17:56Z</time>
      </trkpt>
      <trkpt lat="48.45984" lon="7.24179">
        <ele>689</ele>
        <time>2021-08-03T10:18:06Z</time>
      </trkpt>
      <trkpt lat="48.45982" lon="7.24181">
        <ele>689.1</ele>
        <time>2021-08-03T10:18:07Z</time>
      </trkpt>
      <trkpt lat="48.45979" lon="7.24182">
        <ele>689.2</ele>
        <time>2021-08-03T10:18:09Z</time>
      </trkpt>
      <trkpt lat="48.45977" lon="7.24184">
        <ele>689.4</ele>
        <time>2021-08-03T10:18:10Z</time>
      </trkpt>
      <trkpt lat="48.45973" lon="7.24184">
        <ele>689.6</ele>
        <time>2021-08-03T10:18:11Z</time>
      </trkpt>
      <trkpt lat="48.45972" lon="7.24185">
        <ele>689.6</ele>
        <time>2021-08-03T10:18:12Z</time>
      </trkpt>
      <trkpt lat="48.45968" lon="7.24185">
        <ele>689.8</ele>
        <time>2021-08-03T10:18:13Z</time>
      </trkpt>
      <trkpt lat="48.45964" lon="7.24184">
        <ele>690</ele>
        <time>2021-08-03T10:18:14Z</time>
      </trkpt>
      <trkpt lat="48.45961" lon="7.24182">
        <ele>690.1</ele>
        <time>2021-08-03T10:18:15Z</time>
      </trkpt>
      <trkpt lat="48.45954" lon="7.24178">
        <ele>690.5</ele>
        <time>2021-08-03T10:18:17Z</time>
      </trkpt>
      <trkpt lat="48.45948" lon="7.24175">
        <ele>690.8</ele>
        <time>2021-08-03T10:18:19Z</time>
      </trkpt>
      <trkpt lat="48.45944" lon="7.24174">
        <ele>691</ele>
        <time>2021-08-03T10:18:20Z</time>
      </trkpt>
      <trkpt lat="48.45941" lon="7.24175">
        <ele>691.1</ele>
        <time>2021-08-03T10:18:21Z</time>
      </trkpt>
      <trkpt lat="48.45938" lon="7.24177">
        <ele>691.3</ele>
        <time>2021-08-03T10:18:23Z</time>
      </trkpt>
      <trkpt lat="48.45937" lon="7.24177">
        <ele>691.3</ele>
        <time>2021-08-03T10:18:24Z</time>
      </trkpt>
      <trkpt lat="48.45935" lon="7.24179">
        <ele>691.5</ele>
        <time>2021-08-03T10:18:25Z</time>
      </trkpt>
      <trkpt lat="48.45931" lon="7.24177">
        <ele>691.7</ele>
        <time>2021-08-03T10:18:27Z</time>
      </trkpt>
      <trkpt lat="48.45929" lon="7.24175">
        <ele>691.8</ele>
        <time>2021-08-03T10:18:28Z</time>
      </trkpt>
      <trkpt lat="48.45923" lon="7.24168">
        <ele>692.2</ele>
        <time>2021-08-03T10:18:30Z</time>
      </trkpt>
      <trkpt lat="48.45922" lon="7.24166">
        <ele>692.3</ele>
        <time>2021-08-03T10:18:31Z</time>
      </trkpt>
      <trkpt lat="48.45921" lon="7.24165">
        <ele>692.3</ele>
        <time>2021-08-03T10:18:32Z</time>
      </trkpt>
      <trkpt lat="48.45921" lon="7.24165">
        <ele>692.3</ele>
        <time>2021-08-03T10:18:33Z</time>
      </trkpt>
      <trkpt lat="48.4592" lon="7.24164">
        <ele>692.4</ele>
        <time>2021-08-03T10:18:34Z</time>
      </trkpt>
      <trkpt lat="48.45918" lon="7.24164">
        <ele>692.5</ele>
        <time>2021-08-03T10:18:36Z</time>
      </trkpt>
      <trkpt lat="48.45916" lon="7.24163">
        <ele>692.5</ele>
        <time>2021-08-03T10:18:38Z</time>
      </trkpt>
      <trkpt lat="48.45848" lon="7.24182">
        <ele>695.6</ele>
        <time>2021-08-03T10:19:33Z</time>
      </trkpt>
      <trkpt lat="48.45844" lon="7.24185">
        <ele>695.9</ele>
        <time>2021-08-03T10:19:34Z</time>
      </trkpt>
      <trkpt lat="48.45841" lon="7.24188">
        <ele>696.1</ele>
        <time>2021-08-03T10:19:35Z</time>
      </trkpt>
      <trkpt lat="48.45836" lon="7.24196">
        <ele>696.5</ele>
        <time>2021-08-03T10:19:37Z</time>
      </trkpt>
      <trkpt lat="48.45835" lon="7.24197">
        <ele>696.5</ele>
        <time>2021-08-03T10:19:38Z</time>
      </trkpt>
      <trkpt lat="48.4583" lon="7.24207">
        <ele>697</ele>
        <time>2021-08-03T10:19:40Z</time>
      </trkpt>
      <trkpt lat="48.45828" lon="7.24212">
        <ele>697.2</ele>
        <time>2021-08-03T10:19:41Z</time>
      </trkpt>
      <trkpt lat="48.45826" lon="7.24215">
        <ele>697.3</ele>
        <time>2021-08-03T10:19:42Z</time>
      </trkpt>
      <trkpt lat="48.45822" lon="7.24218">
        <ele>697.5</ele>
        <time>2021-08-03T10:19:43Z</time>
      </trkpt>
      <trkpt lat="48.45819" lon="7.24222">
        <ele>697.8</ele>
        <time>2021-08-03T10:19:45Z</time>
      </trkpt>
      <trkpt lat="48.45815" lon="7.24225">
        <ele>698</ele>
        <time>2021-08-03T10:19:46Z</time>
      </trkpt>
      <trkpt lat="48.45808" lon="7.24232">
        <ele>698.5</ele>
        <time>2021-08-03T10:19:48Z</time>
      </trkpt>
      <trkpt lat="48.45803" lon="7.24239">
        <ele>698.9</ele>
        <time>2021-08-03T10:19:49Z</time>
      </trkpt>
      <trkpt lat="48.45798" lon="7.24248">
        <ele>699.4</ele>
        <time>2021-08-03T10:19:51Z</time>
      </trkpt>
      <trkpt lat="48.45794" lon="7.24259">
        <ele>699.8</ele>
        <time>2021-08-03T10:19:52Z</time>
      </trkpt>
      <trkpt lat="48.45792" lon="7.24264">
        <ele>700</ele>
        <time>2021-08-03T10:19:53Z</time>
      </trkpt>
      <trkpt lat="48.45791" lon="7.24266">
        <ele>700.1</ele>
        <time>2021-08-03T10:19:54Z</time>
      </trkpt>
      <trkpt lat="48.45789" lon="7.24268">
        <ele>700.2</ele>
        <time>2021-08-03T10:19:56Z</time>
      </trkpt>
      <trkpt lat="48.45787" lon="7.24268">
        <ele>700.3</ele>
        <time>2021-08-03T10:19:57Z</time>
      </trkpt>
      <trkpt lat="48.45782" lon="7.24268">
        <ele>700.6</ele>
        <time>2021-08-03T10:19:59Z</time>
      </trkpt>
      <trkpt lat="48.45779" lon="7.24269">
        <ele>700.7</ele>
        <time>2021-08-03T10:20:00Z</time>
      </trkpt>
      <trkpt lat="48.45778" lon="7.24269">
        <ele>700.8</ele>
        <time>2021-08-03T10:20:01Z</time>
      </trkpt>
      <trkpt lat="48.45777" lon="7.24269">
        <ele>700.8</ele>
        <time>2021-08-03T10:20:02Z</time>
      </trkpt>
      <trkpt lat="48.45775" lon="7.24273">
        <ele>701</ele>
        <time>2021-08-03T10:20:04Z</time>
      </trkpt>
      <trkpt lat="48.45772" lon="7.24275">
        <ele>701.1</ele>
        <time>2021-08-03T10:20:05Z</time>
      </trkpt>
      <trkpt lat="48.45771" lon="7.24276">
        <ele>701.1</ele>
        <time>2021-08-03T10:20:06Z</time>
      </trkpt>
      <trkpt lat="48.45765" lon="7.24275">
        <ele>701.4</ele>
        <time>2021-08-03T10:20:08Z</time>
      </trkpt>
      <trkpt lat="48.4576" lon="7.24272">
        <ele>701.6</ele>
        <time>2021-08-03T10:20:09Z</time>
      </trkpt>
      <trkpt lat="48.45756" lon="7.24269">
        <ele>701.8</ele>
        <time>2021-08-03T10:20:10Z</time>
      </trkpt>
      <trkpt lat="48.45748" lon="7.24267">
        <ele>701.7</ele>
        <time>2021-08-03T10:20:12Z</time>
      </trkpt>
      <trkpt lat="48.45742" lon="7.24266">
        <ele>701.6</ele>
        <time>2021-08-03T10:20:13Z</time>
      </trkpt>
      <trkpt lat="48.45736" lon="7.24265">
        <ele>701.4</ele>
        <time>2021-08-03T10:20:14Z</time>
      </trkpt>
      <trkpt lat="48.45726" lon="7.24264">
        <ele>701.1</ele>
        <time>2021-08-03T10:20:16Z</time>
      </trkpt>
      <trkpt lat="48.45721" lon="7.24263">
        <ele>700.9</ele>
        <time>2021-08-03T10:20:17Z</time>
      </trkpt>
      <trkpt lat="48.45716" lon="7.24263">
        <ele>700.7</ele>
        <time>2021-08-03T10:20:18Z</time>
      </trkpt>
      <trkpt lat="48.4571" lon="7.24262">
        <ele>700.5</ele>
        <time>2021-08-03T10:20:20Z</time>
      </trkpt>
      <trkpt lat="48.45705" lon="7.24262">
        <ele>700.4</ele>
        <time>2021-08-03T10:20:21Z</time>
      </trkpt>
      <trkpt lat="48.457" lon="7.24261">
        <ele>700.3</ele>
        <time>2021-08-03T10:20:22Z</time>
      </trkpt>
      <trkpt lat="48.45694" lon="7.2426">
        <ele>700.1</ele>
        <time>2021-08-03T10:20:23Z</time>
      </trkpt>
      <trkpt lat="48.45686" lon="7.24258">
        <ele>699.9</ele>
        <time>2021-08-03T10:20:25Z</time>
      </trkpt>
      <trkpt lat="48.45682" lon="7.24258">
        <ele>699.7</ele>
        <time>2021-08-03T10:20:26Z</time>
      </trkpt>
      <trkpt lat="48.45677" lon="7.24258">
        <ele>699.6</ele>
        <time>2021-08-03T10:20:27Z</time>
      </trkpt>
      <trkpt lat="48.45672" lon="7.2426">
        <ele>699.4</ele>
        <time>2021-08-03T10:20:28Z</time>
      </trkpt>
      <trkpt lat="48.45666" lon="7.24263">
        <ele>699.2</ele>
        <time>2021-08-03T10:20:30Z</time>
      </trkpt>
      <trkpt lat="48.45663" lon="7.24265">
        <ele>699.1</ele>
        <time>2021-08-03T10:20:31Z</time>
      </trkpt>
      <trkpt lat="48.45659" lon="7.24268">
        <ele>699</ele>
        <time>2021-08-03T10:20:32Z</time>
      </trkpt>
      <trkpt lat="48.45655" lon="7.24271">
        <ele>698.9</ele>
        <time>2021-08-03T10:20:33Z</time>
      </trkpt>
      <trkpt lat="48.45649" lon="7.24276">
        <ele>698.7</ele>
        <time>2021-08-03T10:20:35Z</time>
      </trkpt>
      <trkpt lat="48.45645" lon="7.24279">
        <ele>698.6</ele>
        <time>2021-08-03T10:20:36Z</time>
      </trkpt>
      <trkpt lat="48.45642" lon="7.24281">
        <ele>698.5</ele>
        <time>2021-08-03T10:20:37Z</time>
      </trkpt>
      <trkpt lat="48.45635" lon="7.24285">
        <ele>698.2</ele>
        <time>2021-08-03T10:20:39Z</time>
      </trkpt>
      <trkpt lat="48.45631" lon="7.24286">
        <ele>698.1</ele>
        <time>2021-08-03T10:20:40Z</time>
      </trkpt>
      <trkpt lat="48.45627" lon="7.24286">
        <ele>697.9</ele>
        <time>2021-08-03T10:20:41Z</time>
      </trkpt>
      <trkpt lat="48.45623" lon="7.24285">
        <ele>697.8</ele>
        <time>2021-08-03T10:20:42Z</time>
      </trkpt>
      <trkpt lat="48.45616" lon="7.24286">
        <ele>697.5</ele>
        <time>2021-08-03T10:20:44Z</time>
      </trkpt>
      <trkpt lat="48.45612" lon="7.24288">
        <ele>697.4</ele>
        <time>2021-08-03T10:20:45Z</time>
      </trkpt>
      <trkpt lat="48.45604" lon="7.24289">
        <ele>697.3</ele>
        <time>2021-08-03T10:20:47Z</time>
      </trkpt>
      <trkpt lat="48.45598" lon="7.24291">
        <ele>697.3</ele>
        <time>2021-08-03T10:20:48Z</time>
      </trkpt>
      <trkpt lat="48.45593" lon="7.24294">
        <ele>697.3</ele>
        <time>2021-08-03T10:20:49Z</time>
      </trkpt>
      <trkpt lat="48.45586" lon="7.24296">
        <ele>697.3</ele>
        <time>2021-08-03T10:20:51Z</time>
      </trkpt>
      <trkpt lat="48.45582" lon="7.24299">
        <ele>697.3</ele>
        <time>2021-08-03T10:20:52Z</time>
      </trkpt>
      <trkpt lat="48.45578" lon="7.24301">
        <ele>697.3</ele>
        <time>2021-08-03T10:20:53Z</time>
      </trkpt>
      <trkpt lat="48.45571" lon="7.24303">
        <ele>697.3</ele>
        <time>2021-08-03T10:20:55Z</time>
      </trkpt>
      <trkpt lat="48.45567" lon="7.24305">
        <ele>697.4</ele>
        <time>2021-08-03T10:20:56Z</time>
      </trkpt>
      <trkpt lat="48.45561" lon="7.24307">
        <ele>697.4</ele>
        <time>2021-08-03T10:20:58Z</time>
      </trkpt>
      <trkpt lat="48.45558" lon="7.24308">
        <ele>697.4</ele>
        <time>2021-08-03T10:20:59Z</time>
      </trkpt>
      <trkpt lat="48.45554" lon="7.24308">
        <ele>697.4</ele>
        <time>2021-08-03T10:21:00Z</time>
      </trkpt>
      <trkpt lat="48.4555" lon="7.24308">
        <ele>697.4</ele>
        <time>2021-08-03T10:21:01Z</time>
      </trkpt>
      <trkpt lat="48.45546" lon="7.24308">
        <ele>697.4</ele>
        <time>2021-08-03T10:21:02Z</time>
      </trkpt>
      <trkpt lat="48.45541" lon="7.24309">
        <ele>697.4</ele>
        <time>2021-08-03T10:21:03Z</time>
      </trkpt>
      <trkpt lat="48.45537" lon="7.24308">
        <ele>697.4</ele>
        <time>2021-08-03T10:21:04Z</time>
      </trkpt>
      <trkpt lat="48.45533" lon="7.24306">
        <ele>697.4</ele>
        <time>2021-08-03T10:21:05Z</time>
      </trkpt>
      <trkpt lat="48.45529" lon="7.24304">
        <ele>697.4</ele>
        <time>2021-08-03T10:21:06Z</time>
      </trkpt>
      <trkpt lat="48.45523" lon="7.24302">
        <ele>697.4</ele>
        <time>2021-08-03T10:21:08Z</time>
      </trkpt>
      <trkpt lat="48.4552" lon="7.24299">
        <ele>697.4</ele>
        <time>2021-08-03T10:21:09Z</time>
      </trkpt>
      <trkpt lat="48.45519" lon="7.24299">
        <ele>697.4</ele>
        <time>2021-08-03T10:21:10Z</time>
      </trkpt>
      <trkpt lat="48.45514" lon="7.24297">
        <ele>697.5</ele>
        <time>2021-08-03T10:21:11Z</time>
      </trkpt>
      <trkpt lat="48.45507" lon="7.24296">
        <ele>697.5</ele>
        <time>2021-08-03T10:21:13Z</time>
      </trkpt>
      <trkpt lat="48.45504" lon="7.24297">
        <ele>697.5</ele>
        <time>2021-08-03T10:21:14Z</time>
      </trkpt>
      <trkpt lat="48.455" lon="7.24299">
        <ele>697.5</ele>
        <time>2021-08-03T10:21:16Z</time>
      </trkpt>
      <trkpt lat="48.45496" lon="7.243">
        <ele>697.6</ele>
        <time>2021-08-03T10:21:17Z</time>
      </trkpt>
      <trkpt lat="48.45493" lon="7.24303">
        <ele>697.6</ele>
        <time>2021-08-03T10:21:18Z</time>
      </trkpt>
      <trkpt lat="48.45489" lon="7.24306">
        <ele>697.6</ele>
        <time>2021-08-03T10:21:20Z</time>
      </trkpt>
      <trkpt lat="48.45486" lon="7.24307">
        <ele>697.6</ele>
        <time>2021-08-03T10:21:21Z</time>
      </trkpt>
      <trkpt lat="48.45484" lon="7.24308">
        <ele>697.6</ele>
        <time>2021-08-03T10:21:22Z</time>
      </trkpt>
      <trkpt lat="48.45479" lon="7.24311">
        <ele>697.7</ele>
        <time>2021-08-03T10:21:24Z</time>
      </trkpt>
      <trkpt lat="48.45476" lon="7.24311">
        <ele>697.7</ele>
        <time>2021-08-03T10:21:25Z</time>
      </trkpt>
      <trkpt lat="48.45473" lon="7.24312">
        <ele>697.7</ele>
        <time>2021-08-03T10:21:26Z</time>
      </trkpt>
      <trkpt lat="48.45468" lon="7.24313">
        <ele>697.7</ele>
        <time>2021-08-03T10:21:28Z</time>
      </trkpt>
      <trkpt lat="48.45464" lon="7.24313">
        <ele>697.7</ele>
        <time>2021-08-03T10:21:29Z</time>
      </trkpt>
      <trkpt lat="48.45459" lon="7.24313">
        <ele>697.7</ele>
        <time>2021-08-03T10:21:31Z</time>
      </trkpt>
      <trkpt lat="48.45455" lon="7.24313">
        <ele>697.8</ele>
        <time>2021-08-03T10:21:32Z</time>
      </trkpt>
      <trkpt lat="48.45453" lon="7.24313">
        <ele>697.8</ele>
        <time>2021-08-03T10:21:33Z</time>
      </trkpt>
      <trkpt lat="48.45448" lon="7.24313">
        <ele>697.8</ele>
        <time>2021-08-03T10:21:35Z</time>
      </trkpt>
      <trkpt lat="48.45444" lon="7.24312">
        <ele>697.7</ele>
        <time>2021-08-03T10:21:36Z</time>
      </trkpt>
      <trkpt lat="48.45441" lon="7.24313">
        <ele>697.7</ele>
        <time>2021-08-03T10:21:37Z</time>
      </trkpt>
      <trkpt lat="48.45438" lon="7.24313">
        <ele>697.7</ele>
        <time>2021-08-03T10:21:38Z</time>
      </trkpt>
      <trkpt lat="48.45433" lon="7.24312">
        <ele>697.7</ele>
        <time>2021-08-03T10:21:40Z</time>
      </trkpt>
      <trkpt lat="48.4543" lon="7.24312">
        <ele>697.8</ele>
        <time>2021-08-03T10:21:41Z</time>
      </trkpt>
      <trkpt lat="48.45428" lon="7.24313">
        <ele>697.8</ele>
        <time>2021-08-03T10:21:43Z</time>
      </trkpt>
      <trkpt lat="48.45426" lon="7.24313">
        <ele>697.8</ele>
        <time>2021-08-03T10:21:44Z</time>
      </trkpt>
      <trkpt lat="48.45424" lon="7.24314">
        <ele>697.8</ele>
        <time>2021-08-03T10:21:46Z</time>
      </trkpt>
      <trkpt lat="48.45421" lon="7.24315">
        <ele>697.8</ele>
        <time>2021-08-03T10:21:47Z</time>
      </trkpt>
      <trkpt lat="48.45416" lon="7.24314">
        <ele>697.8</ele>
        <time>2021-08-03T10:21:49Z</time>
      </trkpt>
      <trkpt lat="48.45414" lon="7.24313">
        <ele>697.8</ele>
        <time>2021-08-03T10:21:50Z</time>
      </trkpt>
      <trkpt lat="48.45413" lon="7.24313">
        <ele>697.8</ele>
        <time>2021-08-03T10:21:51Z</time>
      </trkpt>
      <trkpt lat="48.45411" lon="7.24313">
        <ele>697.8</ele>
        <time>2021-08-03T10:21:52Z</time>
      </trkpt>
      <trkpt lat="48.45411" lon="7.24314">
        <ele>697.8</ele>
        <time>2021-08-03T10:21:54Z</time>
      </trkpt>
      <trkpt lat="48.45411" lon="7.24315">
        <ele>697.8</ele>
        <time>2021-08-03T10:21:55Z</time>
      </trkpt>
      <trkpt lat="48.45413" lon="7.24315">
        <ele>697.8</ele>
        <time>2021-08-03T10:21:56Z</time>
      </trkpt>
      <trkpt lat="48.45414" lon="7.24314">
        <ele>697.8</ele>
        <time>2021-08-03T10:21:57Z</time>
      </trkpt>
      <trkpt lat="48.45416" lon="7.24315">
        <ele>697.8</ele>
        <time>2021-08-03T10:21:58Z</time>
      </trkpt>
      <trkpt lat="48.45424" lon="7.24316">
        <ele>697.8</ele>
        <time>2021-08-03T10:21:59Z</time>
      </trkpt>
      <trkpt lat="48.4543" lon="7.24323">
        <ele>699.4</ele>
        <time>2021-08-03T10:22:01Z</time>
      </trkpt>
      <trkpt lat="48.45433" lon="7.2433">
        <ele>701</ele>
        <time>2021-08-03T10:22:02Z</time>
      </trkpt>
      <trkpt lat="48.45436" lon="7.24337">
        <ele>701.9</ele>
        <time>2021-08-03T10:22:03Z</time>
      </trkpt>
      <trkpt lat="48.45439" lon="7.24345">
        <ele>703.5</ele>
        <time>2021-08-03T10:22:05Z</time>
      </trkpt>
      <trkpt lat="48.45442" lon="7.24352">
        <ele>704</ele>
        <time>2021-08-03T10:22:06Z</time>
      </trkpt>
      <trkpt lat="48.45444" lon="7.24359">
        <ele>704.5</ele>
        <time>2021-08-03T10:22:45Z</time>
      </trkpt>
      <trkpt lat="48.45447" lon="7.24367">
        <ele>704.9</ele>
        <time>2021-08-03T10:22:46Z</time>
      </trkpt>
      <trkpt lat="48.4545" lon="7.24374">
        <ele>705.4</ele>
        <time>2021-08-03T10:22:47Z</time>
      </trkpt>
      <trkpt lat="48.45451" lon="7.24377">
        <ele>705.5</ele>
        <time>2021-08-03T10:22:48Z</time>
      </trkpt>
      <trkpt lat="48.45452" lon="7.24379">
        <ele>705.7</ele>
        <time>2021-08-03T10:22:49Z</time>
      </trkpt>
      <trkpt lat="48.45454" lon="7.24382">
        <ele>705.9</ele>
        <time>2021-08-03T10:22:50Z</time>
      </trkpt>
      <trkpt lat="48.45455" lon="7.24384">
        <ele>706.1</ele>
        <time>2021-08-03T10:22:52Z</time>
      </trkpt>
      <trkpt lat="48.45456" lon="7.24386">
        <ele>706.2</ele>
        <time>2021-08-03T10:22:53Z</time>
      </trkpt>
      <trkpt lat="48.45457" lon="7.24388">
        <ele>706.3</ele>
        <time>2021-08-03T10:22:54Z</time>
      </trkpt>
      <trkpt lat="48.45458" lon="7.24391">
        <ele>706.5</ele>
        <time>2021-08-03T10:22:56Z</time>
      </trkpt>
      <trkpt lat="48.45459" lon="7.24393">
        <ele>706.6</ele>
        <time>2021-08-03T10:22:57Z</time>
      </trkpt>
      <trkpt lat="48.4546" lon="7.24395">
        <ele>706.8</ele>
        <time>2021-08-03T10:22:58Z</time>
      </trkpt>
      <trkpt lat="48.45461" lon="7.24396">
        <ele>706.8</ele>
        <time>2021-08-03T10:22:59Z</time>
      </trkpt>
      <trkpt lat="48.45461" lon="7.24397">
        <ele>706.9</ele>
        <time>2021-08-03T10:23:00Z</time>
      </trkpt>
      <trkpt lat="48.45462" lon="7.24398">
        <ele>707</ele>
        <time>2021-08-03T10:23:01Z</time>
      </trkpt>
      <trkpt lat="48.45463" lon="7.24398">
        <ele>707.1</ele>
        <time>2021-08-03T10:23:02Z</time>
      </trkpt>
      <trkpt lat="48.45464" lon="7.24399">
        <ele>707.2</ele>
        <time>2021-08-03T10:23:03Z</time>
      </trkpt>
      <trkpt lat="48.45468" lon="7.244">
        <ele>707.4</ele>
        <time>2021-08-03T10:23:05Z</time>
      </trkpt>
      <trkpt lat="48.45471" lon="7.24402">
        <ele>707.7</ele>
        <time>2021-08-03T10:23:07Z</time>
      </trkpt>
      <trkpt lat="48.45473" lon="7.24404">
        <ele>707.9</ele>
        <time>2021-08-03T10:23:08Z</time>
      </trkpt>
      <trkpt lat="48.45478" lon="7.24404">
        <ele>708.2</ele>
        <time>2021-08-03T10:23:10Z</time>
      </trkpt>
      <trkpt lat="48.45484" lon="7.24404">
        <ele>708.7</ele>
        <time>2021-08-03T10:23:11Z</time>
      </trkpt>
      <trkpt lat="48.4549" lon="7.24404">
        <ele>709.1</ele>
        <time>2021-08-03T10:23:13Z</time>
      </trkpt>
      <trkpt lat="48.45494" lon="7.24403">
        <ele>709.4</ele>
        <time>2021-08-03T10:23:14Z</time>
      </trkpt>
      <trkpt lat="48.45497" lon="7.24403">
        <ele>709.6</ele>
        <time>2021-08-03T10:23:16Z</time>
      </trkpt>
      <trkpt lat="48.455" lon="7.24404">
        <ele>709.8</ele>
        <time>2021-08-03T10:23:17Z</time>
      </trkpt>
      <trkpt lat="48.45502" lon="7.24404">
        <ele>710</ele>
        <time>2021-08-03T10:23:18Z</time>
      </trkpt>
      <trkpt lat="48.45505" lon="7.24404">
        <ele>710.2</ele>
        <time>2021-08-03T10:23:20Z</time>
      </trkpt>
      <trkpt lat="48.45507" lon="7.24404">
        <ele>710.4</ele>
        <time>2021-08-03T10:23:21Z</time>
      </trkpt>
      <trkpt lat="48.45511" lon="7.24405">
        <ele>710.6</ele>
        <time>2021-08-03T10:23:23Z</time>
      </trkpt>
      <trkpt lat="48.45514" lon="7.24405">
        <ele>710.9</ele>
        <time>2021-08-03T10:23:24Z</time>
      </trkpt>
      <trkpt lat="48.45516" lon="7.24405">
        <ele>711</ele>
        <time>2021-08-03T10:23:25Z</time>
      </trkpt>
      <trkpt lat="48.45519" lon="7.24404">
        <ele>711.3</ele>
        <time>2021-08-03T10:23:27Z</time>
      </trkpt>
      <trkpt lat="48.45522" lon="7.24403">
        <ele>711.4</ele>
        <time>2021-08-03T10:23:28Z</time>
      </trkpt>
      <trkpt lat="48.45526" lon="7.24402">
        <ele>711.4</ele>
        <time>2021-08-03T10:23:29Z</time>
      </trkpt>
      <trkpt lat="48.45527" lon="7.24402">
        <ele>711.4</ele>
        <time>2021-08-03T10:23:30Z</time>
      </trkpt>
      <trkpt lat="48.4553" lon="7.24399">
        <ele>711.4</ele>
        <time>2021-08-03T10:23:32Z</time>
      </trkpt>
      <trkpt lat="48.45532" lon="7.24396">
        <ele>711.4</ele>
        <time>2021-08-03T10:23:33Z</time>
      </trkpt>
      <trkpt lat="48.45533" lon="7.24396">
        <ele>711.4</ele>
        <time>2021-08-03T10:23:35Z</time>
      </trkpt>
      <trkpt lat="48.45531" lon="7.24396">
        <ele>711.4</ele>
        <time>2021-08-03T10:23:37Z</time>
      </trkpt>
      <trkpt lat="48.45525" lon="7.24397">
        <ele>711.4</ele>
        <time>2021-08-03T10:23:39Z</time>
      </trkpt>
      <trkpt lat="48.45524" lon="7.24398">
        <ele>711.4</ele>
        <time>2021-08-03T10:23:40Z</time>
      </trkpt>
      <trkpt lat="48.45523" lon="7.24399">
        <ele>711.4</ele>
        <time>2021-08-03T10:23:41Z</time>
      </trkpt>
      <trkpt lat="48.45522" lon="7.244">
        <ele>711.4</ele>
        <time>2021-08-03T10:23:42Z</time>
      </trkpt>
      <trkpt lat="48.45522" lon="7.24401">
        <ele>711.4</ele>
        <time>2021-08-03T10:23:43Z</time>
      </trkpt>
      <trkpt lat="48.4552" lon="7.24401">
        <ele>711.5</ele>
        <time>2021-08-03T10:23:45Z</time>
      </trkpt>
      <trkpt lat="48.45518" lon="7.24402">
        <ele>711.5</ele>
        <time>2021-08-03T10:23:47Z</time>
      </trkpt>
      <trkpt lat="48.45517" lon="7.24405">
        <ele>711.5</ele>
        <time>2021-08-03T10:23:49Z</time>
      </trkpt>
      <trkpt lat="48.45515" lon="7.24407">
        <ele>711.5</ele>
        <time>2021-08-03T10:23:51Z</time>
      </trkpt>
      <trkpt lat="48.45513" lon="7.24408">
        <ele>711.5</ele>
        <time>2021-08-03T10:23:53Z</time>
      </trkpt>
      <trkpt lat="48.45516" lon="7.24427">
        <ele>711.6</ele>
        <time>2021-08-03T10:24:25Z</time>
      </trkpt>
      <trkpt lat="48.45518" lon="7.24426">
        <ele>711.7</ele>
        <time>2021-08-03T10:24:26Z</time>
      </trkpt>
      <trkpt lat="48.45523" lon="7.24425">
        <ele>711.7</ele>
        <time>2021-08-03T10:24:28Z</time>
      </trkpt>
      <trkpt lat="48.45526" lon="7.24424">
        <ele>711.8</ele>
        <time>2021-08-03T10:24:30Z</time>
      </trkpt>
      <trkpt lat="48.45527" lon="7.24425">
        <ele>711.8</ele>
        <time>2021-08-03T10:24:32Z</time>
      </trkpt>
      <trkpt lat="48.45528" lon="7.24426">
        <ele>711.8</ele>
        <time>2021-08-03T10:24:33Z</time>
      </trkpt>
      <trkpt lat="48.45529" lon="7.24426">
        <ele>711.9</ele>
        <time>2021-08-03T10:24:34Z</time>
      </trkpt>
      <trkpt lat="48.4553" lon="7.24426">
        <ele>711.9</ele>
        <time>2021-08-03T10:24:36Z</time>
      </trkpt>
      <trkpt lat="48.45531" lon="7.24427">
        <ele>711.9</ele>
        <time>2021-08-03T10:24:37Z</time>
      </trkpt>
      <trkpt lat="48.45532" lon="7.24427">
        <ele>711.9</ele>
        <time>2021-08-03T10:24:38Z</time>
      </trkpt>
      <trkpt lat="48.45554" lon="7.24435">
        <ele>712.7</ele>
        <time>2021-08-03T10:24:53Z</time>
      </trkpt>
      <trkpt lat="48.45556" lon="7.24441">
        <ele>712.8</ele>
        <time>2021-08-03T10:24:55Z</time>
      </trkpt>
      <trkpt lat="48.45556" lon="7.24443">
        <ele>712.9</ele>
        <time>2021-08-03T10:24:56Z</time>
      </trkpt>
      <trkpt lat="48.45556" lon="7.24444">
        <ele>712.9</ele>
        <time>2021-08-03T10:24:57Z</time>
      </trkpt>
      <trkpt lat="48.45554" lon="7.24445">
        <ele>713</ele>
        <time>2021-08-03T10:24:59Z</time>
      </trkpt>
      <trkpt lat="48.45554" lon="7.24445">
        <ele>713</ele>
        <time>2021-08-03T10:25:01Z</time>
      </trkpt>
      <trkpt lat="48.45555" lon="7.24445">
        <ele>713</ele>
        <time>2021-08-03T10:25:02Z</time>
      </trkpt>
      <trkpt lat="48.45554" lon="7.24444">
        <ele>713</ele>
        <time>2021-08-03T10:25:04Z</time>
      </trkpt>
      <trkpt lat="48.45553" lon="7.24444">
        <ele>713.1</ele>
        <time>2021-08-03T10:25:05Z</time>
      </trkpt>
      <trkpt lat="48.45552" lon="7.24443">
        <ele>713.1</ele>
        <time>2021-08-03T10:25:07Z</time>
      </trkpt>
      <trkpt lat="48.45552" lon="7.24442">
        <ele>713.2</ele>
        <time>2021-08-03T10:25:08Z</time>
      </trkpt>
      <trkpt lat="48.45551" lon="7.24441">
        <ele>713.2</ele>
        <time>2021-08-03T10:25:09Z</time>
      </trkpt>
      <trkpt lat="48.4557" lon="7.24447">
        <ele>714</ele>
        <time>2021-08-03T10:26:14Z</time>
      </trkpt>
      <trkpt lat="48.45571" lon="7.24452">
        <ele>714.1</ele>
        <time>2021-08-03T10:26:15Z</time>
      </trkpt>
      <trkpt lat="48.45571" lon="7.24457">
        <ele>714.3</ele>
        <time>2021-08-03T10:26:16Z</time>
      </trkpt>
      <trkpt lat="48.45571" lon="7.24459">
        <ele>714.3</ele>
        <time>2021-08-03T10:26:17Z</time>
      </trkpt>
      <trkpt lat="48.45571" lon="7.24463">
        <ele>714.5</ele>
        <time>2021-08-03T10:26:18Z</time>
      </trkpt>
      <trkpt lat="48.45571" lon="7.24468">
        <ele>714.6</ele>
        <time>2021-08-03T10:26:20Z</time>
      </trkpt>
      <trkpt lat="48.4557" lon="7.24477">
        <ele>714.9</ele>
        <time>2021-08-03T10:26:21Z</time>
      </trkpt>
      <trkpt lat="48.4557" lon="7.2448">
        <ele>715</ele>
        <time>2021-08-03T10:26:22Z</time>
      </trkpt>
      <trkpt lat="48.45569" lon="7.24484">
        <ele>715.1</ele>
        <time>2021-08-03T10:26:24Z</time>
      </trkpt>
      <trkpt lat="48.4557" lon="7.24491">
        <ele>715.3</ele>
        <time>2021-08-03T10:26:26Z</time>
      </trkpt>
      <trkpt lat="48.4557" lon="7.24497">
        <ele>715.5</ele>
        <time>2021-08-03T10:26:27Z</time>
      </trkpt>
      <trkpt lat="48.4557" lon="7.24499">
        <ele>715.6</ele>
        <time>2021-08-03T10:26:28Z</time>
      </trkpt>
      <trkpt lat="48.45568" lon="7.24506">
        <ele>715.8</ele>
        <time>2021-08-03T10:26:30Z</time>
      </trkpt>
      <trkpt lat="48.45566" lon="7.24512">
        <ele>716</ele>
        <time>2021-08-03T10:26:32Z</time>
      </trkpt>
      <trkpt lat="48.45565" lon="7.24513">
        <ele>716</ele>
        <time>2021-08-03T10:26:33Z</time>
      </trkpt>
      <trkpt lat="48.45564" lon="7.24514">
        <ele>716.1</ele>
        <time>2021-08-03T10:26:34Z</time>
      </trkpt>
      <trkpt lat="48.4556" lon="7.24514">
        <ele>716.3</ele>
        <time>2021-08-03T10:26:36Z</time>
      </trkpt>
      <trkpt lat="48.45556" lon="7.24516">
        <ele>716.4</ele>
        <time>2021-08-03T10:26:38Z</time>
      </trkpt>
      <trkpt lat="48.45552" lon="7.24516">
        <ele>716.6</ele>
        <time>2021-08-03T10:26:40Z</time>
      </trkpt>
      <trkpt lat="48.45551" lon="7.24516">
        <ele>716.7</ele>
        <time>2021-08-03T10:26:41Z</time>
      </trkpt>
      <trkpt lat="48.45549" lon="7.24516">
        <ele>716.7</ele>
        <time>2021-08-03T10:26:42Z</time>
      </trkpt>
      <trkpt lat="48.45546" lon="7.24514">
        <ele>716.9</ele>
        <time>2021-08-03T10:26:44Z</time>
      </trkpt>
      <trkpt lat="48.45544" lon="7.24513">
        <ele>716.9</ele>
        <time>2021-08-03T10:26:46Z</time>
      </trkpt>
      <trkpt lat="48.45542" lon="7.24513">
        <ele>717</ele>
        <time>2021-08-03T10:26:47Z</time>
      </trkpt>
      <trkpt lat="48.45541" lon="7.24512">
        <ele>717.1</ele>
        <time>2021-08-03T10:26:48Z</time>
      </trkpt>
      <trkpt lat="48.45539" lon="7.24512">
        <ele>717.1</ele>
        <time>2021-08-03T10:26:49Z</time>
      </trkpt>
      <trkpt lat="48.45536" lon="7.24512">
        <ele>717.2</ele>
        <time>2021-08-03T10:26:50Z</time>
      </trkpt>
      <trkpt lat="48.45535" lon="7.24512">
        <ele>717.2</ele>
        <time>2021-08-03T10:26:51Z</time>
      </trkpt>
      <trkpt lat="48.45533" lon="7.24513">
        <ele>717.3</ele>
        <time>2021-08-03T10:26:53Z</time>
      </trkpt>
      <trkpt lat="48.45532" lon="7.24514">
        <ele>717.4</ele>
        <time>2021-08-03T10:26:54Z</time>
      </trkpt>
      <trkpt lat="48.4553" lon="7.24514">
        <ele>717.4</ele>
        <time>2021-08-03T10:26:55Z</time>
      </trkpt>
      <trkpt lat="48.45529" lon="7.24513">
        <ele>717.5</ele>
        <time>2021-08-03T10:26:56Z</time>
      </trkpt>
      <trkpt lat="48.45527" lon="7.24512">
        <ele>717.5</ele>
        <time>2021-08-03T10:26:57Z</time>
      </trkpt>
      <trkpt lat="48.45526" lon="7.24511">
        <ele>717.6</ele>
        <time>2021-08-03T10:26:58Z</time>
      </trkpt>
      <trkpt lat="48.45524" lon="7.2451">
        <ele>717.6</ele>
        <time>2021-08-03T10:26:59Z</time>
      </trkpt>
      <trkpt lat="48.45523" lon="7.2451">
        <ele>717.7</ele>
        <time>2021-08-03T10:27:00Z</time>
      </trkpt>
      <trkpt lat="48.45521" lon="7.24509">
        <ele>717.7</ele>
        <time>2021-08-03T10:27:01Z</time>
      </trkpt>
      <trkpt lat="48.4552" lon="7.24509">
        <ele>717.8</ele>
        <time>2021-08-03T10:27:03Z</time>
      </trkpt>
      <trkpt lat="48.45519" lon="7.24508">
        <ele>717.8</ele>
        <time>2021-08-03T10:27:04Z</time>
      </trkpt>
      <trkpt lat="48.45518" lon="7.24508">
        <ele>717.9</ele>
        <time>2021-08-03T10:27:05Z</time>
      </trkpt>
      <trkpt lat="48.45516" lon="7.24508">
        <ele>717.9</ele>
        <time>2021-08-03T10:27:06Z</time>
      </trkpt>
      <trkpt lat="48.45514" lon="7.24507">
        <ele>718</ele>
        <time>2021-08-03T10:27:07Z</time>
      </trkpt>
      <trkpt lat="48.45513" lon="7.24507">
        <ele>718</ele>
        <time>2021-08-03T10:27:08Z</time>
      </trkpt>
      <trkpt lat="48.45512" lon="7.24507">
        <ele>718</ele>
        <time>2021-08-03T10:27:09Z</time>
      </trkpt>
      <trkpt lat="48.45511" lon="7.24508">
        <ele>718</ele>
        <time>2021-08-03T10:27:10Z</time>
      </trkpt>
      <trkpt lat="48.4551" lon="7.24509">
        <ele>718.1</ele>
        <time>2021-08-03T10:27:12Z</time>
      </trkpt>
      <trkpt lat="48.45508" lon="7.2451">
        <ele>718.1</ele>
        <time>2021-08-03T10:27:13Z</time>
      </trkpt>
      <trkpt lat="48.45506" lon="7.24512">
        <ele>718.2</ele>
        <time>2021-08-03T10:27:14Z</time>
      </trkpt>
      <trkpt lat="48.45505" lon="7.24516">
        <ele>718.3</ele>
        <time>2021-08-03T10:27:15Z</time>
      </trkpt>
      <trkpt lat="48.45504" lon="7.24521">
        <ele>718.3</ele>
        <time>2021-08-03T10:27:17Z</time>
      </trkpt>
      <trkpt lat="48.45503" lon="7.24523">
        <ele>718.5</ele>
        <time>2021-08-03T10:27:18Z</time>
      </trkpt>
      <trkpt lat="48.45503" lon="7.24526">
        <ele>718.6</ele>
        <time>2021-08-03T10:27:19Z</time>
      </trkpt>
      <trkpt lat="48.45504" lon="7.2453">
        <ele>718.7</ele>
        <time>2021-08-03T10:27:21Z</time>
      </trkpt>
      <trkpt lat="48.45507" lon="7.24534">
        <ele>718.9</ele>
        <time>2021-08-03T10:27:22Z</time>
      </trkpt>
      <trkpt lat="48.45508" lon="7.24535">
        <ele>719</ele>
        <time>2021-08-03T10:27:23Z</time>
      </trkpt>
      <trkpt lat="48.45511" lon="7.24538">
        <ele>719.2</ele>
        <time>2021-08-03T10:27:25Z</time>
      </trkpt>
      <trkpt lat="48.45512" lon="7.24539">
        <ele>719.2</ele>
        <time>2021-08-03T10:27:26Z</time>
      </trkpt>
      <trkpt lat="48.45514" lon="7.24541">
        <ele>719.4</ele>
        <time>2021-08-03T10:27:27Z</time>
      </trkpt>
      <trkpt lat="48.45517" lon="7.24545">
        <ele>719.6</ele>
        <time>2021-08-03T10:27:29Z</time>
      </trkpt>
      <trkpt lat="48.45519" lon="7.24549">
        <ele>719.8</ele>
        <time>2021-08-03T10:27:30Z</time>
      </trkpt>
      <trkpt lat="48.4552" lon="7.24551">
        <ele>719.8</ele>
        <time>2021-08-03T10:27:31Z</time>
      </trkpt>
      <trkpt lat="48.45522" lon="7.24553">
        <ele>720</ele>
        <time>2021-08-03T10:27:32Z</time>
      </trkpt>
      <trkpt lat="48.45526" lon="7.24555">
        <ele>720.2</ele>
        <time>2021-08-03T10:27:34Z</time>
      </trkpt>
      <trkpt lat="48.45529" lon="7.24558">
        <ele>720.4</ele>
        <time>2021-08-03T10:27:35Z</time>
      </trkpt>
      <trkpt lat="48.45531" lon="7.2456">
        <ele>720.5</ele>
        <time>2021-08-03T10:27:36Z</time>
      </trkpt>
      <trkpt lat="48.45534" lon="7.24563">
        <ele>720.7</ele>
        <time>2021-08-03T10:27:38Z</time>
      </trkpt>
      <trkpt lat="48.45536" lon="7.24565">
        <ele>720.8</ele>
        <time>2021-08-03T10:27:39Z</time>
      </trkpt>
      <trkpt lat="48.45539" lon="7.24568">
        <ele>721</ele>
        <time>2021-08-03T10:27:40Z</time>
      </trkpt>
      <trkpt lat="48.4554" lon="7.24568">
        <ele>721</ele>
        <time>2021-08-03T10:27:41Z</time>
      </trkpt>
      <trkpt lat="48.45541" lon="7.2457">
        <ele>721.1</ele>
        <time>2021-08-03T10:27:42Z</time>
      </trkpt>
      <trkpt lat="48.45542" lon="7.24571">
        <ele>721.2</ele>
        <time>2021-08-03T10:27:43Z</time>
      </trkpt>
      <trkpt lat="48.45544" lon="7.24576">
        <ele>721.3</ele>
        <time>2021-08-03T10:27:45Z</time>
      </trkpt>
      <trkpt lat="48.45545" lon="7.24578">
        <ele>721.4</ele>
        <time>2021-08-03T10:27:46Z</time>
      </trkpt>
      <trkpt lat="48.45544" lon="7.24583">
        <ele>721.6</ele>
        <time>2021-08-03T10:27:48Z</time>
      </trkpt>
      <trkpt lat="48.45543" lon="7.24587">
        <ele>721.8</ele>
        <time>2021-08-03T10:27:49Z</time>
      </trkpt>
      <trkpt lat="48.4554" lon="7.24593">
        <ele>722.1</ele>
        <time>2021-08-03T10:27:51Z</time>
      </trkpt>
      <trkpt lat="48.45539" lon="7.24599">
        <ele>722.3</ele>
        <time>2021-08-03T10:27:53Z</time>
      </trkpt>
      <trkpt lat="48.45538" lon="7.24602">
        <ele>722.4</ele>
        <time>2021-08-03T10:27:54Z</time>
      </trkpt>
      <trkpt lat="48.45537" lon="7.24607">
        <ele>722.6</ele>
        <time>2021-08-03T10:27:56Z</time>
      </trkpt>
      <trkpt lat="48.45538" lon="7.24611">
        <ele>722.8</ele>
        <time>2021-08-03T10:27:57Z</time>
      </trkpt>
      <trkpt lat="48.45538" lon="7.24612">
        <ele>722.9</ele>
        <time>2021-08-03T10:27:58Z</time>
      </trkpt>
      <trkpt lat="48.45538" lon="7.24616">
        <ele>723</ele>
        <time>2021-08-03T10:27:59Z</time>
      </trkpt>
      <trkpt lat="48.45539" lon="7.24621">
        <ele>723.2</ele>
        <time>2021-08-03T10:28:01Z</time>
      </trkpt>
      <trkpt lat="48.45539" lon="7.24626">
        <ele>723.4</ele>
        <time>2021-08-03T10:28:02Z</time>
      </trkpt>
      <trkpt lat="48.45539" lon="7.24627">
        <ele>723.5</ele>
        <time>2021-08-03T10:28:03Z</time>
      </trkpt>
      <trkpt lat="48.45539" lon="7.24633">
        <ele>723.8</ele>
        <time>2021-08-03T10:28:05Z</time>
      </trkpt>
      <trkpt lat="48.45539" lon="7.24635">
        <ele>723.9</ele>
        <time>2021-08-03T10:28:06Z</time>
      </trkpt>
      <trkpt lat="48.45539" lon="7.24637">
        <ele>723.9</ele>
        <time>2021-08-03T10:28:07Z</time>
      </trkpt>
      <trkpt lat="48.4554" lon="7.24641">
        <ele>724.1</ele>
        <time>2021-08-03T10:28:09Z</time>
      </trkpt>
      <trkpt lat="48.45541" lon="7.24642">
        <ele>724.2</ele>
        <time>2021-08-03T10:28:10Z</time>
      </trkpt>
      <trkpt lat="48.45542" lon="7.24645">
        <ele>724.3</ele>
        <time>2021-08-03T10:28:11Z</time>
      </trkpt>
      <trkpt lat="48.45543" lon="7.24648">
        <ele>724.5</ele>
        <time>2021-08-03T10:28:13Z</time>
      </trkpt>
      <trkpt lat="48.45544" lon="7.2465">
        <ele>724.6</ele>
        <time>2021-08-03T10:28:14Z</time>
      </trkpt>
      <trkpt lat="48.45544" lon="7.24652">
        <ele>724.7</ele>
        <time>2021-08-03T10:28:15Z</time>
      </trkpt>
      <trkpt lat="48.45544" lon="7.24655">
        <ele>724.8</ele>
        <time>2021-08-03T10:28:16Z</time>
      </trkpt>
      <trkpt lat="48.45544" lon="7.24658">
        <ele>725</ele>
        <time>2021-08-03T10:28:17Z</time>
      </trkpt>
      <trkpt lat="48.45543" lon="7.2466">
        <ele>725.1</ele>
        <time>2021-08-03T10:28:18Z</time>
      </trkpt>
      <trkpt lat="48.45543" lon="7.24663">
        <ele>725.2</ele>
        <time>2021-08-03T10:28:20Z</time>
      </trkpt>
      <trkpt lat="48.45542" lon="7.24667">
        <ele>725.4</ele>
        <time>2021-08-03T10:28:21Z</time>
      </trkpt>
      <trkpt lat="48.45541" lon="7.24669">
        <ele>725.5</ele>
        <time>2021-08-03T10:28:22Z</time>
      </trkpt>
      <trkpt lat="48.45541" lon="7.24671">
        <ele>725.6</ele>
        <time>2021-08-03T10:28:23Z</time>
      </trkpt>
      <trkpt lat="48.45539" lon="7.24673">
        <ele>725.8</ele>
        <time>2021-08-03T10:28:24Z</time>
      </trkpt>
      <trkpt lat="48.45538" lon="7.24678">
        <ele>726</ele>
        <time>2021-08-03T10:28:26Z</time>
      </trkpt>
      <trkpt lat="48.45536" lon="7.24682">
        <ele>726.3</ele>
        <time>2021-08-03T10:28:27Z</time>
      </trkpt>
      <trkpt lat="48.45536" lon="7.24684">
        <ele>726.4</ele>
        <time>2021-08-03T10:28:28Z</time>
      </trkpt>
      <trkpt lat="48.45535" lon="7.24686">
        <ele>726.5</ele>
        <time>2021-08-03T10:28:30Z</time>
      </trkpt>
      <trkpt lat="48.45534" lon="7.24688">
        <ele>726.6</ele>
        <time>2021-08-03T10:28:31Z</time>
      </trkpt>
      <trkpt lat="48.45532" lon="7.2469">
        <ele>726.8</ele>
        <time>2021-08-03T10:28:33Z</time>
      </trkpt>
      <trkpt lat="48.45532" lon="7.24688">
        <ele>726.9</ele>
        <time>2021-08-03T10:28:34Z</time>
      </trkpt>
      <trkpt lat="48.45531" lon="7.24688">
        <ele>727</ele>
        <time>2021-08-03T10:28:36Z</time>
      </trkpt>
      <trkpt lat="48.45529" lon="7.24687">
        <ele>727.1</ele>
        <time>2021-08-03T10:28:37Z</time>
      </trkpt>
      <trkpt lat="48.45526" lon="7.24685">
        <ele>727.4</ele>
        <time>2021-08-03T10:28:38Z</time>
      </trkpt>
      <trkpt lat="48.45524" lon="7.24685">
        <ele>728.3</ele>
        <time>2021-08-03T10:28:39Z</time>
      </trkpt>
      <trkpt lat="48.45523" lon="7.24684">
        <ele>728.4</ele>
        <time>2021-08-03T10:28:40Z</time>
      </trkpt>
      <trkpt lat="48.45521" lon="7.24682">
        <ele>728.6</ele>
        <time>2021-08-03T10:28:41Z</time>
      </trkpt>
      <trkpt lat="48.45521" lon="7.24682">
        <ele>728.6</ele>
        <time>2021-08-03T10:28:42Z</time>
      </trkpt>
      <trkpt lat="48.4552" lon="7.24681">
        <ele>728.7</ele>
        <time>2021-08-03T10:28:43Z</time>
      </trkpt>
      <trkpt lat="48.45519" lon="7.2468">
        <ele>728.8</ele>
        <time>2021-08-03T10:28:45Z</time>
      </trkpt>
      <trkpt lat="48.45517" lon="7.2468">
        <ele>728.9</ele>
        <time>2021-08-03T10:28:47Z</time>
      </trkpt>
      <trkpt lat="48.45516" lon="7.24679">
        <ele>729</ele>
        <time>2021-08-03T10:28:48Z</time>
      </trkpt>
      <trkpt lat="48.45515" lon="7.24679">
        <ele>729</ele>
        <time>2021-08-03T10:28:49Z</time>
      </trkpt>
      <trkpt lat="48.45515" lon="7.24679">
        <ele>729.1</ele>
        <time>2021-08-03T10:28:50Z</time>
      </trkpt>
      <trkpt lat="48.45514" lon="7.24679">
        <ele>729.1</ele>
        <time>2021-08-03T10:28:51Z</time>
      </trkpt>
      <trkpt lat="48.45513" lon="7.24679">
        <ele>729.2</ele>
        <time>2021-08-03T10:28:52Z</time>
      </trkpt>
      <trkpt lat="48.45513" lon="7.24678">
        <ele>729.2</ele>
        <time>2021-08-03T10:28:53Z</time>
      </trkpt>
      <trkpt lat="48.45511" lon="7.24677">
        <ele>729.3</ele>
        <time>2021-08-03T10:28:55Z</time>
      </trkpt>
      <trkpt lat="48.45504" lon="7.24669">
        <ele>729.9</ele>
        <time>2021-08-03T10:29:01Z</time>
      </trkpt>
      <trkpt lat="48.45502" lon="7.24667">
        <ele>730.1</ele>
        <time>2021-08-03T10:29:02Z</time>
      </trkpt>
      <trkpt lat="48.45498" lon="7.24663">
        <ele>730.3</ele>
        <time>2021-08-03T10:29:04Z</time>
      </trkpt>
      <trkpt lat="48.45497" lon="7.24661">
        <ele>730.5</ele>
        <time>2021-08-03T10:29:05Z</time>
      </trkpt>
      <trkpt lat="48.45496" lon="7.24657">
        <ele>730.6</ele>
        <time>2021-08-03T10:29:07Z</time>
      </trkpt>
      <trkpt lat="48.45494" lon="7.24653">
        <ele>730.8</ele>
        <time>2021-08-03T10:29:08Z</time>
      </trkpt>
      <trkpt lat="48.45493" lon="7.24651">
        <ele>730.9</ele>
        <time>2021-08-03T10:29:09Z</time>
      </trkpt>
      <trkpt lat="48.45492" lon="7.2465">
        <ele>731</ele>
        <time>2021-08-03T10:29:10Z</time>
      </trkpt>
      <trkpt lat="48.4549" lon="7.24648">
        <ele>731.1</ele>
        <time>2021-08-03T10:29:11Z</time>
      </trkpt>
      <trkpt lat="48.4549" lon="7.24647">
        <ele>731.2</ele>
        <time>2021-08-03T10:29:12Z</time>
      </trkpt>
      <trkpt lat="48.45489" lon="7.24645">
        <ele>731.2</ele>
        <time>2021-08-03T10:29:13Z</time>
      </trkpt>
      <trkpt lat="48.45488" lon="7.24642">
        <ele>731.3</ele>
        <time>2021-08-03T10:29:15Z</time>
      </trkpt>
      <trkpt lat="48.45486" lon="7.24637">
        <ele>731.6</ele>
        <time>2021-08-03T10:29:16Z</time>
      </trkpt>
      <trkpt lat="48.45486" lon="7.24634">
        <ele>731.7</ele>
        <time>2021-08-03T10:29:18Z</time>
      </trkpt>
      <trkpt lat="48.45485" lon="7.24635">
        <ele>731.7</ele>
        <time>2021-08-03T10:29:19Z</time>
      </trkpt>
      <trkpt lat="48.45486" lon="7.24635">
        <ele>731.7</ele>
        <time>2021-08-03T10:29:20Z</time>
      </trkpt>
      <trkpt lat="48.45486" lon="7.24636">
        <ele>731.8</ele>
        <time>2021-08-03T10:29:22Z</time>
      </trkpt>
      <trkpt lat="48.45486" lon="7.2464">
        <ele>731.9</ele>
        <time>2021-08-03T10:29:23Z</time>
      </trkpt>
      <trkpt lat="48.45485" lon="7.24642">
        <ele>732</ele>
        <time>2021-08-03T10:29:25Z</time>
      </trkpt>
      <trkpt lat="48.45482" lon="7.24646">
        <ele>732.2</ele>
        <time>2021-08-03T10:29:26Z</time>
      </trkpt>
      <trkpt lat="48.45481" lon="7.24648">
        <ele>732.3</ele>
        <time>2021-08-03T10:29:27Z</time>
      </trkpt>
      <trkpt lat="48.45479" lon="7.2465">
        <ele>741.1</ele>
        <time>2021-08-03T10:29:29Z</time>
      </trkpt>
      <trkpt lat="48.45465" lon="7.24669">
        <ele>742.2</ele>
        <time>2021-08-03T10:29:31Z</time>
      </trkpt>
      <trkpt lat="48.4546" lon="7.24673">
        <ele>742.7</ele>
        <time>2021-08-03T10:29:32Z</time>
      </trkpt>
      <trkpt lat="48.45455" lon="7.24679">
        <ele>743.2</ele>
        <time>2021-08-03T10:29:34Z</time>
      </trkpt>
      <trkpt lat="48.45453" lon="7.24684">
        <ele>743.7</ele>
        <time>2021-08-03T10:29:36Z</time>
      </trkpt>
      <trkpt lat="48.45452" lon="7.24686">
        <ele>743.8</ele>
        <time>2021-08-03T10:29:37Z</time>
      </trkpt>
      <trkpt lat="48.45453" lon="7.24688">
        <ele>743.9</ele>
        <time>2021-08-03T10:29:38Z</time>
      </trkpt>
      <trkpt lat="48.45453" lon="7.24689">
        <ele>744</ele>
        <time>2021-08-03T10:29:39Z</time>
      </trkpt>
      <trkpt lat="48.45453" lon="7.2469">
        <ele>744.1</ele>
        <time>2021-08-03T10:29:41Z</time>
      </trkpt>
      <trkpt lat="48.45454" lon="7.24691">
        <ele>744.2</ele>
        <time>2021-08-03T10:29:42Z</time>
      </trkpt>
      <trkpt lat="48.45455" lon="7.24691">
        <ele>744.3</ele>
        <time>2021-08-03T10:29:43Z</time>
      </trkpt>
      <trkpt lat="48.45456" lon="7.24691">
        <ele>744.4</ele>
        <time>2021-08-03T10:29:45Z</time>
      </trkpt>
      <trkpt lat="48.45457" lon="7.24692">
        <ele>744.5</ele>
        <time>2021-08-03T10:29:46Z</time>
      </trkpt>
      <trkpt lat="48.45458" lon="7.24693">
        <ele>744.6</ele>
        <time>2021-08-03T10:29:48Z</time>
      </trkpt>
      <trkpt lat="48.45458" lon="7.24693">
        <ele>744.6</ele>
        <time>2021-08-03T10:29:49Z</time>
      </trkpt>
      <trkpt lat="48.45458" lon="7.24694">
        <ele>744.7</ele>
        <time>2021-08-03T10:29:50Z</time>
      </trkpt>
      <trkpt lat="48.45459" lon="7.24695">
        <ele>744.8</ele>
        <time>2021-08-03T10:29:51Z</time>
      </trkpt>
      <trkpt lat="48.4546" lon="7.24697">
        <ele>744.9</ele>
        <time>2021-08-03T10:29:52Z</time>
      </trkpt>
      <trkpt lat="48.4546" lon="7.24698">
        <ele>745</ele>
        <time>2021-08-03T10:29:54Z</time>
      </trkpt>
      <trkpt lat="48.4546" lon="7.24699">
        <ele>745</ele>
        <time>2021-08-03T10:29:55Z</time>
      </trkpt>
      <trkpt lat="48.45461" lon="7.24703">
        <ele>745.3</ele>
        <time>2021-08-03T10:29:56Z</time>
      </trkpt>
      <trkpt lat="48.45461" lon="7.24705">
        <ele>745.4</ele>
        <time>2021-08-03T10:29:58Z</time>
      </trkpt>
      <trkpt lat="48.45462" lon="7.24707">
        <ele>745.6</ele>
        <time>2021-08-03T10:29:59Z</time>
      </trkpt>
      <trkpt lat="48.45462" lon="7.24709">
        <ele>745.7</ele>
        <time>2021-08-03T10:30:00Z</time>
      </trkpt>
      <trkpt lat="48.45464" lon="7.24713">
        <ele>746</ele>
        <time>2021-08-03T10:30:02Z</time>
      </trkpt>
      <trkpt lat="48.45464" lon="7.24714">
        <ele>746.1</ele>
        <time>2021-08-03T10:30:03Z</time>
      </trkpt>
      <trkpt lat="48.45469" lon="7.2472">
        <ele>746.7</ele>
        <time>2021-08-03T10:30:05Z</time>
      </trkpt>
      <trkpt lat="48.45471" lon="7.24723">
        <ele>746.9</ele>
        <time>2021-08-03T10:30:06Z</time>
      </trkpt>
      <trkpt lat="48.45472" lon="7.24725">
        <ele>747.1</ele>
        <time>2021-08-03T10:30:07Z</time>
      </trkpt>
      <trkpt lat="48.45472" lon="7.24729">
        <ele>747.4</ele>
        <time>2021-08-03T10:30:09Z</time>
      </trkpt>
      <trkpt lat="48.45471" lon="7.24734">
        <ele>747.7</ele>
        <time>2021-08-03T10:30:10Z</time>
      </trkpt>
      <trkpt lat="48.45471" lon="7.24736">
        <ele>747.8</ele>
        <time>2021-08-03T10:30:11Z</time>
      </trkpt>
      <trkpt lat="48.4547" lon="7.2474">
        <ele>748.1</ele>
        <time>2021-08-03T10:30:13Z</time>
      </trkpt>
      <trkpt lat="48.45467" lon="7.24742">
        <ele>748.3</ele>
        <time>2021-08-03T10:30:14Z</time>
      </trkpt>
      <trkpt lat="48.45465" lon="7.24743">
        <ele>748.5</ele>
        <time>2021-08-03T10:30:16Z</time>
      </trkpt>
      <trkpt lat="48.45464" lon="7.24742">
        <ele>748.6</ele>
        <time>2021-08-03T10:30:18Z</time>
      </trkpt>
      <trkpt lat="48.45467" lon="7.24737">
        <ele>748.9</ele>
        <time>2021-08-03T10:30:19Z</time>
      </trkpt>
      <trkpt lat="48.45467" lon="7.24732">
        <ele>749.3</ele>
        <time>2021-08-03T10:30:21Z</time>
      </trkpt>
      <trkpt lat="48.45467" lon="7.24729">
        <ele>749.4</ele>
        <time>2021-08-03T10:30:22Z</time>
      </trkpt>
      <trkpt lat="48.45464" lon="7.24727">
        <ele>749.7</ele>
        <time>2021-08-03T10:30:24Z</time>
      </trkpt>
      <trkpt lat="48.4546" lon="7.24724">
        <ele>750.1</ele>
        <time>2021-08-03T10:30:25Z</time>
      </trkpt>
      <trkpt lat="48.45458" lon="7.24722">
        <ele>750.3</ele>
        <time>2021-08-03T10:30:26Z</time>
      </trkpt>
      <trkpt lat="48.45456" lon="7.24721">
        <ele>750.4</ele>
        <time>2021-08-03T10:30:28Z</time>
      </trkpt>
      <trkpt lat="48.45455" lon="7.24721">
        <ele>750.5</ele>
        <time>2021-08-03T10:30:29Z</time>
      </trkpt>
      <trkpt lat="48.45453" lon="7.2472">
        <ele>750.7</ele>
        <time>2021-08-03T10:30:30Z</time>
      </trkpt>
      <trkpt lat="48.45447" lon="7.24718">
        <ele>751.2</ele>
        <time>2021-08-03T10:30:32Z</time>
      </trkpt>
      <trkpt lat="48.45443" lon="7.24717">
        <ele>751.5</ele>
        <time>2021-08-03T10:30:33Z</time>
      </trkpt>
      <trkpt lat="48.45435" lon="7.24715">
        <ele>752.3</ele>
        <time>2021-08-03T10:30:35Z</time>
      </trkpt>
      <trkpt lat="48.4546" lon="7.25154">
        <ele>781.6</ele>
        <time>2021-08-03T10:34:22Z</time>
      </trkpt>
      <trkpt lat="48.45455" lon="7.2516">
        <ele>782.3</ele>
        <time>2021-08-03T10:34:24Z</time>
      </trkpt>
      <trkpt lat="48.45452" lon="7.25164">
        <ele>782.7</ele>
        <time>2021-08-03T10:34:26Z</time>
      </trkpt>
      <trkpt lat="48.45451" lon="7.25168">
        <ele>783</ele>
        <time>2021-08-03T10:34:27Z</time>
      </trkpt>
      <trkpt lat="48.45451" lon="7.2517">
        <ele>783.1</ele>
        <time>2021-08-03T10:34:28Z</time>
      </trkpt>
      <trkpt lat="48.45452" lon="7.25175">
        <ele>783.5</ele>
        <time>2021-08-03T10:34:30Z</time>
      </trkpt>
      <trkpt lat="48.45453" lon="7.25177">
        <ele>783.7</ele>
        <time>2021-08-03T10:34:31Z</time>
      </trkpt>
      <trkpt lat="48.45455" lon="7.25181">
        <ele>784</ele>
        <time>2021-08-03T10:34:33Z</time>
      </trkpt>
      <trkpt lat="48.45456" lon="7.25182">
        <ele>784.1</ele>
        <time>2021-08-03T10:34:34Z</time>
      </trkpt>
      <trkpt lat="48.45457" lon="7.25184">
        <ele>784.3</ele>
        <time>2021-08-03T10:34:36Z</time>
      </trkpt>
      <trkpt lat="48.45458" lon="7.25186">
        <ele>784.5</ele>
        <time>2021-08-03T10:34:37Z</time>
      </trkpt>
      <trkpt lat="48.4546" lon="7.25188">
        <ele>784.7</ele>
        <time>2021-08-03T10:34:38Z</time>
      </trkpt>
      <trkpt lat="48.4546" lon="7.25189">
        <ele>784.8</ele>
        <time>2021-08-03T10:34:41Z</time>
      </trkpt>
      <trkpt lat="48.45461" lon="7.25191">
        <ele>784.9</ele>
        <time>2021-08-03T10:34:42Z</time>
      </trkpt>
      <trkpt lat="48.45461" lon="7.25192">
        <ele>785</ele>
        <time>2021-08-03T10:34:43Z</time>
      </trkpt>
      <trkpt lat="48.4546" lon="7.25196">
        <ele>785.3</ele>
        <time>2021-08-03T10:34:45Z</time>
      </trkpt>
      <trkpt lat="48.45458" lon="7.25207">
        <ele>786.1</ele>
        <time>2021-08-03T10:34:51Z</time>
      </trkpt>
      <trkpt lat="48.45457" lon="7.25212">
        <ele>786.5</ele>
        <time>2021-08-03T10:34:53Z</time>
      </trkpt>
      <trkpt lat="48.45456" lon="7.25217">
        <ele>786.9</ele>
        <time>2021-08-03T10:34:54Z</time>
      </trkpt>
      <trkpt lat="48.45456" lon="7.25219">
        <ele>787</ele>
        <time>2021-08-03T10:34:55Z</time>
      </trkpt>
      <trkpt lat="48.45454" lon="7.25224">
        <ele>787.5</ele>
        <time>2021-08-03T10:34:57Z</time>
      </trkpt>
      <trkpt lat="48.45453" lon="7.25226">
        <ele>787.7</ele>
        <time>2021-08-03T10:34:58Z</time>
      </trkpt>
      <trkpt lat="48.45453" lon="7.25228">
        <ele>787.9</ele>
        <time>2021-08-03T10:34:59Z</time>
      </trkpt>
      <trkpt lat="48.45453" lon="7.2523">
        <ele>788</ele>
        <time>2021-08-03T10:35:01Z</time>
      </trkpt>
      <trkpt lat="48.45453" lon="7.25233">
        <ele>788.2</ele>
        <time>2021-08-03T10:35:02Z</time>
      </trkpt>
      <trkpt lat="48.45454" lon="7.25238">
        <ele>788.6</ele>
        <time>2021-08-03T10:35:03Z</time>
      </trkpt>
      <trkpt lat="48.45454" lon="7.2524">
        <ele>788.8</ele>
        <time>2021-08-03T10:35:04Z</time>
      </trkpt>
      <trkpt lat="48.45454" lon="7.25243">
        <ele>789</ele>
        <time>2021-08-03T10:35:06Z</time>
      </trkpt>
      <trkpt lat="48.45454" lon="7.25245">
        <ele>789.2</ele>
        <time>2021-08-03T10:35:07Z</time>
      </trkpt>
      <trkpt lat="48.45455" lon="7.25247">
        <ele>789.4</ele>
        <time>2021-08-03T10:35:08Z</time>
      </trkpt>
      <trkpt lat="48.45455" lon="7.25249">
        <ele>789.5</ele>
        <time>2021-08-03T10:35:09Z</time>
      </trkpt>
      <trkpt lat="48.45454" lon="7.25249">
        <ele>789.6</ele>
        <time>2021-08-03T10:35:11Z</time>
      </trkpt>
      <trkpt lat="48.45453" lon="7.2525">
        <ele>789.7</ele>
        <time>2021-08-03T10:35:12Z</time>
      </trkpt>
      <trkpt lat="48.45452" lon="7.25251">
        <ele>789.9</ele>
        <time>2021-08-03T10:35:14Z</time>
      </trkpt>
      <trkpt lat="48.45451" lon="7.25252">
        <ele>790.1</ele>
        <time>2021-08-03T10:35:15Z</time>
      </trkpt>
      <trkpt lat="48.45449" lon="7.25254">
        <ele>790.3</ele>
        <time>2021-08-03T10:35:16Z</time>
      </trkpt>
      <trkpt lat="48.45448" lon="7.25255">
        <ele>790.5</ele>
        <time>2021-08-03T10:35:17Z</time>
      </trkpt>
      <trkpt lat="48.45448" lon="7.25257">
        <ele>790.6</ele>
        <time>2021-08-03T10:35:19Z</time>
      </trkpt>
      <trkpt lat="48.45447" lon="7.25258">
        <ele>790.8</ele>
        <time>2021-08-03T10:35:20Z</time>
      </trkpt>
      <trkpt lat="48.45446" lon="7.2526">
        <ele>790.9</ele>
        <time>2021-08-03T10:35:21Z</time>
      </trkpt>
      <trkpt lat="48.45444" lon="7.25268">
        <ele>791.6</ele>
        <time>2021-08-03T10:35:23Z</time>
      </trkpt>
      <trkpt lat="48.45444" lon="7.25273">
        <ele>792</ele>
        <time>2021-08-03T10:35:40Z</time>
      </trkpt>
      <trkpt lat="48.45444" lon="7.25278">
        <ele>792.1</ele>
        <time>2021-08-03T10:35:41Z</time>
      </trkpt>
      <trkpt lat="48.45443" lon="7.25284">
        <ele>792.1</ele>
        <time>2021-08-03T10:35:42Z</time>
      </trkpt>
      <trkpt lat="48.45443" lon="7.25289">
        <ele>792.1</ele>
        <time>2021-08-03T10:35:44Z</time>
      </trkpt>
      <trkpt lat="48.45443" lon="7.25295">
        <ele>792.1</ele>
        <time>2021-08-03T10:35:45Z</time>
      </trkpt>
      <trkpt lat="48.45446" lon="7.25296">
        <ele>792</ele>
        <time>2021-08-03T10:35:47Z</time>
      </trkpt>
      <trkpt lat="48.45448" lon="7.25298">
        <ele>791.9</ele>
        <time>2021-08-03T10:35:48Z</time>
      </trkpt>
      <trkpt lat="48.45451" lon="7.253">
        <ele>791.7</ele>
        <time>2021-08-03T10:35:50Z</time>
      </trkpt>
      <trkpt lat="48.45452" lon="7.253">
        <ele>791.7</ele>
        <time>2021-08-03T10:35:51Z</time>
      </trkpt>
      <trkpt lat="48.45454" lon="7.25301">
        <ele>791.6</ele>
        <time>2021-08-03T10:35:53Z</time>
      </trkpt>
      <trkpt lat="48.45455" lon="7.25301">
        <ele>791.5</ele>
        <time>2021-08-03T10:35:54Z</time>
      </trkpt>
      <trkpt lat="48.45458" lon="7.253">
        <ele>791.4</ele>
        <time>2021-08-03T10:35:56Z</time>
      </trkpt>
      <trkpt lat="48.45459" lon="7.253">
        <ele>791.4</ele>
        <time>2021-08-03T10:35:58Z</time>
      </trkpt>
      <trkpt lat="48.45459" lon="7.25301">
        <ele>791.4</ele>
        <time>2021-08-03T10:35:59Z</time>
      </trkpt>
      <trkpt lat="48.45459" lon="7.25301">
        <ele>791.4</ele>
        <time>2021-08-03T10:36:00Z</time>
      </trkpt>
      <trkpt lat="48.45459" lon="7.25301">
        <ele>791.3</ele>
        <time>2021-08-03T10:36:01Z</time>
      </trkpt>
      <trkpt lat="48.4546" lon="7.25302">
        <ele>791.3</ele>
        <time>2021-08-03T10:36:02Z</time>
      </trkpt>
      <trkpt lat="48.4546" lon="7.25303">
        <ele>791.3</ele>
        <time>2021-08-03T10:36:04Z</time>
      </trkpt>
      <trkpt lat="48.45462" lon="7.25305">
        <ele>791.2</ele>
        <time>2021-08-03T10:36:06Z</time>
      </trkpt>
      <trkpt lat="48.45463" lon="7.25312">
        <ele>790.9</ele>
        <time>2021-08-03T10:39:38Z</time>
      </trkpt>
      <trkpt lat="48.45462" lon="7.25314">
        <ele>790.8</ele>
        <time>2021-08-03T10:39:39Z</time>
      </trkpt>
      <trkpt lat="48.45461" lon="7.25317">
        <ele>790.6</ele>
        <time>2021-08-03T10:39:41Z</time>
      </trkpt>
      <trkpt lat="48.4546" lon="7.25319">
        <ele>790.5</ele>
        <time>2021-08-03T10:39:42Z</time>
      </trkpt>
      <trkpt lat="48.45459" lon="7.25321">
        <ele>790.3</ele>
        <time>2021-08-03T10:39:43Z</time>
      </trkpt>
      <trkpt lat="48.4546" lon="7.25322">
        <ele>790.2</ele>
        <time>2021-08-03T10:39:44Z</time>
      </trkpt>
      <trkpt lat="48.4546" lon="7.25323">
        <ele>790.1</ele>
        <time>2021-08-03T10:39:45Z</time>
      </trkpt>
      <trkpt lat="48.45461" lon="7.25325">
        <ele>790</ele>
        <time>2021-08-03T10:39:46Z</time>
      </trkpt>
      <trkpt lat="48.45461" lon="7.25326">
        <ele>789.9</ele>
        <time>2021-08-03T10:39:48Z</time>
      </trkpt>
      <trkpt lat="48.45462" lon="7.25327">
        <ele>789.8</ele>
        <time>2021-08-03T10:39:49Z</time>
      </trkpt>
      <trkpt lat="48.45462" lon="7.25328">
        <ele>789.7</ele>
        <time>2021-08-03T10:39:50Z</time>
      </trkpt>
      <trkpt lat="48.45462" lon="7.25329">
        <ele>789.7</ele>
        <time>2021-08-03T10:39:51Z</time>
      </trkpt>
      <trkpt lat="48.45463" lon="7.2533">
        <ele>789.5</ele>
        <time>2021-08-03T10:39:52Z</time>
      </trkpt>
      <trkpt lat="48.45464" lon="7.25331">
        <ele>789.4</ele>
        <time>2021-08-03T10:39:54Z</time>
      </trkpt>
      <trkpt lat="48.45466" lon="7.25334">
        <ele>789</ele>
        <time>2021-08-03T10:39:55Z</time>
      </trkpt>
      <trkpt lat="48.45473" lon="7.25344">
        <ele>787.1</ele>
        <time>2021-08-03T10:40:01Z</time>
      </trkpt>
      <trkpt lat="48.45475" lon="7.25346">
        <ele>787</ele>
        <time>2021-08-03T10:40:02Z</time>
      </trkpt>
      <trkpt lat="48.45476" lon="7.25349">
        <ele>786.9</ele>
        <time>2021-08-03T10:40:04Z</time>
      </trkpt>
      <trkpt lat="48.45476" lon="7.2535">
        <ele>786.9</ele>
        <time>2021-08-03T10:40:05Z</time>
      </trkpt>
      <trkpt lat="48.45475" lon="7.2535">
        <ele>786.9</ele>
        <time>2021-08-03T10:40:07Z</time>
      </trkpt>
      <trkpt lat="48.45475" lon="7.25351">
        <ele>786.9</ele>
        <time>2021-08-03T10:40:08Z</time>
      </trkpt>
      <trkpt lat="48.45475" lon="7.25352">
        <ele>786.9</ele>
        <time>2021-08-03T10:40:09Z</time>
      </trkpt>
      <trkpt lat="48.45474" lon="7.25353">
        <ele>786.8</ele>
        <time>2021-08-03T10:40:10Z</time>
      </trkpt>
      <trkpt lat="48.45474" lon="7.25354">
        <ele>786.8</ele>
        <time>2021-08-03T10:40:12Z</time>
      </trkpt>
      <trkpt lat="48.45472" lon="7.25367">
        <ele>786.8</ele>
        <time>2021-08-03T10:40:20Z</time>
      </trkpt>
      <trkpt lat="48.45473" lon="7.2537">
        <ele>786.8</ele>
        <time>2021-08-03T10:40:22Z</time>
      </trkpt>
      <trkpt lat="48.45473" lon="7.25372">
        <ele>786.8</ele>
        <time>2021-08-03T10:40:23Z</time>
      </trkpt>
      <trkpt lat="48.45473" lon="7.25375">
        <ele>786.8</ele>
        <time>2021-08-03T10:40:24Z</time>
      </trkpt>
      <trkpt lat="48.45473" lon="7.25377">
        <ele>786.8</ele>
        <time>2021-08-03T10:40:25Z</time>
      </trkpt>
      <trkpt lat="48.45473" lon="7.2538">
        <ele>786.9</ele>
        <time>2021-08-03T10:40:27Z</time>
      </trkpt>
      <trkpt lat="48.45474" lon="7.25383">
        <ele>786.9</ele>
        <time>2021-08-03T10:40:29Z</time>
      </trkpt>
      <trkpt lat="48.45474" lon="7.25387">
        <ele>786.9</ele>
        <time>2021-08-03T10:40:30Z</time>
      </trkpt>
      <trkpt lat="48.45474" lon="7.25389">
        <ele>786.9</ele>
        <time>2021-08-03T10:40:31Z</time>
      </trkpt>
      <trkpt lat="48.45474" lon="7.25392">
        <ele>786.9</ele>
        <time>2021-08-03T10:40:33Z</time>
      </trkpt>
      <trkpt lat="48.45474" lon="7.25394">
        <ele>786.9</ele>
        <time>2021-08-03T10:40:34Z</time>
      </trkpt>
      <trkpt lat="48.45473" lon="7.25396">
        <ele>786.9</ele>
        <time>2021-08-03T10:40:35Z</time>
      </trkpt>
      <trkpt lat="48.45472" lon="7.25398">
        <ele>787</ele>
        <time>2021-08-03T10:40:36Z</time>
      </trkpt>
      <trkpt lat="48.45472" lon="7.25403">
        <ele>787</ele>
        <time>2021-08-03T10:40:38Z</time>
      </trkpt>
      <trkpt lat="48.45472" lon="7.25405">
        <ele>787</ele>
        <time>2021-08-03T10:40:39Z</time>
      </trkpt>
      <trkpt lat="48.45472" lon="7.25406">
        <ele>787</ele>
        <time>2021-08-03T10:40:40Z</time>
      </trkpt>
      <trkpt lat="48.45472" lon="7.25408">
        <ele>787</ele>
        <time>2021-08-03T10:40:41Z</time>
      </trkpt>
      <trkpt lat="48.45472" lon="7.2541">
        <ele>787.1</ele>
        <time>2021-08-03T10:40:42Z</time>
      </trkpt>
      <trkpt lat="48.45472" lon="7.25412">
        <ele>787.1</ele>
        <time>2021-08-03T10:40:43Z</time>
      </trkpt>
      <trkpt lat="48.45472" lon="7.25415">
        <ele>787.1</ele>
        <time>2021-08-03T10:40:44Z</time>
      </trkpt>
      <trkpt lat="48.45472" lon="7.25416">
        <ele>787.1</ele>
        <time>2021-08-03T10:40:46Z</time>
      </trkpt>
      <trkpt lat="48.45472" lon="7.25418">
        <ele>787.2</ele>
        <time>2021-08-03T10:40:47Z</time>
      </trkpt>
      <trkpt lat="48.45471" lon="7.25419">
        <ele>787.2</ele>
        <time>2021-08-03T10:40:48Z</time>
      </trkpt>
      <trkpt lat="48.45471" lon="7.2542">
        <ele>787.2</ele>
        <time>2021-08-03T10:40:49Z</time>
      </trkpt>
      <trkpt lat="48.45471" lon="7.25423">
        <ele>787.2</ele>
        <time>2021-08-03T10:40:50Z</time>
      </trkpt>
      <trkpt lat="48.45471" lon="7.25424">
        <ele>787.2</ele>
        <time>2021-08-03T10:40:52Z</time>
      </trkpt>
      <trkpt lat="48.4547" lon="7.25425">
        <ele>787.2</ele>
        <time>2021-08-03T10:40:53Z</time>
      </trkpt>
      <trkpt lat="48.4547" lon="7.25428">
        <ele>787.3</ele>
        <time>2021-08-03T10:40:54Z</time>
      </trkpt>
      <trkpt lat="48.45469" lon="7.25429">
        <ele>787.3</ele>
        <time>2021-08-03T10:40:56Z</time>
      </trkpt>
      <trkpt lat="48.45469" lon="7.2543">
        <ele>785.3</ele>
        <time>2021-08-03T10:40:57Z</time>
      </trkpt>
      <trkpt lat="48.45469" lon="7.25432">
        <ele>785.1</ele>
        <time>2021-08-03T10:40:58Z</time>
      </trkpt>
      <trkpt lat="48.4547" lon="7.25434">
        <ele>784.9</ele>
        <time>2021-08-03T10:40:59Z</time>
      </trkpt>
      <trkpt lat="48.45471" lon="7.25435">
        <ele>784.7</ele>
        <time>2021-08-03T10:41:00Z</time>
      </trkpt>
      <trkpt lat="48.45472" lon="7.25436">
        <ele>784.6</ele>
        <time>2021-08-03T10:41:02Z</time>
      </trkpt>
      <trkpt lat="48.45473" lon="7.25437">
        <ele>784.4</ele>
        <time>2021-08-03T10:41:03Z</time>
      </trkpt>
      <trkpt lat="48.45473" lon="7.25439">
        <ele>784.2</ele>
        <time>2021-08-03T10:41:04Z</time>
      </trkpt>
      <trkpt lat="48.45475" lon="7.2544">
        <ele>783.9</ele>
        <time>2021-08-03T10:41:05Z</time>
      </trkpt>
      <trkpt lat="48.45476" lon="7.25441">
        <ele>783.7</ele>
        <time>2021-08-03T10:41:07Z</time>
      </trkpt>
      <trkpt lat="48.45477" lon="7.25442">
        <ele>783.6</ele>
        <time>2021-08-03T10:41:08Z</time>
      </trkpt>
      <trkpt lat="48.45478" lon="7.25441">
        <ele>783.5</ele>
        <time>2021-08-03T10:41:09Z</time>
      </trkpt>
      <trkpt lat="48.45478" lon="7.25442">
        <ele>783.4</ele>
        <time>2021-08-03T10:41:10Z</time>
      </trkpt>
      <trkpt lat="48.45479" lon="7.25442">
        <ele>783.3</ele>
        <time>2021-08-03T10:41:11Z</time>
      </trkpt>
      <trkpt lat="48.45478" lon="7.25443">
        <ele>783.2</ele>
        <time>2021-08-03T10:41:12Z</time>
      </trkpt>
      <trkpt lat="48.45477" lon="7.25445">
        <ele>783</ele>
        <time>2021-08-03T10:41:14Z</time>
      </trkpt>
      <trkpt lat="48.45476" lon="7.25447">
        <ele>782.6</ele>
        <time>2021-08-03T10:41:16Z</time>
      </trkpt>
      <trkpt lat="48.45474" lon="7.25449">
        <ele>782.3</ele>
        <time>2021-08-03T10:41:17Z</time>
      </trkpt>
      <trkpt lat="48.45429" lon="7.25427">
        <ele>794.3</ele>
        <time>2021-08-03T10:46:52Z</time>
      </trkpt>
      <trkpt lat="48.45427" lon="7.25428">
        <ele>794.3</ele>
        <time>2021-08-03T10:46:53Z</time>
      </trkpt>
      <trkpt lat="48.45428" lon="7.25427">
        <ele>794.2</ele>
        <time>2021-08-03T10:46:54Z</time>
      </trkpt>
      <trkpt lat="48.45429" lon="7.25428">
        <ele>794.2</ele>
        <time>2021-08-03T10:46:56Z</time>
      </trkpt>
      <trkpt lat="48.45429" lon="7.25429">
        <ele>794.2</ele>
        <time>2021-08-03T10:46:58Z</time>
      </trkpt>
      <trkpt lat="48.4543" lon="7.25431">
        <ele>794.2</ele>
        <time>2021-08-03T10:47:00Z</time>
      </trkpt>
      <trkpt lat="48.45431" lon="7.25432">
        <ele>794.1</ele>
        <time>2021-08-03T10:47:01Z</time>
      </trkpt>
      <trkpt lat="48.45432" lon="7.25432">
        <ele>794.1</ele>
        <time>2021-08-03T10:47:03Z</time>
      </trkpt>
      <trkpt lat="48.45436" lon="7.25415">
        <ele>793.8</ele>
        <time>2021-08-03T10:51:36Z</time>
      </trkpt>
      <trkpt lat="48.45436" lon="7.25413">
        <ele>793.7</ele>
        <time>2021-08-03T10:51:37Z</time>
      </trkpt>
      <trkpt lat="48.45435" lon="7.25411">
        <ele>793.7</ele>
        <time>2021-08-03T10:51:38Z</time>
      </trkpt>
      <trkpt lat="48.45435" lon="7.25406">
        <ele>793.6</ele>
        <time>2021-08-03T10:51:40Z</time>
      </trkpt>
      <trkpt lat="48.45434" lon="7.25405">
        <ele>793.6</ele>
        <time>2021-08-03T10:51:41Z</time>
      </trkpt>
      <trkpt lat="48.45433" lon="7.25404">
        <ele>793.6</ele>
        <time>2021-08-03T10:51:42Z</time>
      </trkpt>
      <trkpt lat="48.45432" lon="7.25404">
        <ele>793.6</ele>
        <time>2021-08-03T10:51:44Z</time>
      </trkpt>
      <trkpt lat="48.45433" lon="7.25404">
        <ele>793.6</ele>
        <time>2021-08-03T10:51:45Z</time>
      </trkpt>
      <trkpt lat="48.45433" lon="7.25403">
        <ele>793.6</ele>
        <time>2021-08-03T10:51:46Z</time>
      </trkpt>
      <trkpt lat="48.45433" lon="7.25402">
        <ele>793.5</ele>
        <time>2021-08-03T10:51:47Z</time>
      </trkpt>
      <trkpt lat="48.45434" lon="7.25401">
        <ele>793.5</ele>
        <time>2021-08-03T10:51:48Z</time>
      </trkpt>
      <trkpt lat="48.45434" lon="7.254">
        <ele>793.5</ele>
        <time>2021-08-03T10:51:50Z</time>
      </trkpt>
      <trkpt lat="48.45434" lon="7.25397">
        <ele>793.4</ele>
        <time>2021-08-03T10:51:52Z</time>
      </trkpt>
      <trkpt lat="48.45435" lon="7.25385">
        <ele>793.2</ele>
        <time>2021-08-03T10:51:58Z</time>
      </trkpt>
      <trkpt lat="48.45434" lon="7.2538">
        <ele>793.2</ele>
        <time>2021-08-03T10:51:59Z</time>
      </trkpt>
      <trkpt lat="48.45434" lon="7.25374">
        <ele>793.1</ele>
        <time>2021-08-03T10:52:00Z</time>
      </trkpt>
      <trkpt lat="48.45434" lon="7.25368">
        <ele>793</ele>
        <time>2021-08-03T10:52:01Z</time>
      </trkpt>
      <trkpt lat="48.45433" lon="7.25361">
        <ele>792.8</ele>
        <time>2021-08-03T10:52:02Z</time>
      </trkpt>
      <trkpt lat="48.45432" lon="7.2535">
        <ele>792.7</ele>
        <time>2021-08-03T10:52:03Z</time>
      </trkpt>
      <trkpt lat="48.4543" lon="7.25342">
        <ele>792.5</ele>
        <time>2021-08-03T10:52:05Z</time>
      </trkpt>
      <trkpt lat="48.45425" lon="7.25332">
        <ele>797.1</ele>
        <time>2021-08-03T10:52:07Z</time>
      </trkpt>
      <trkpt lat="48.45421" lon="7.25329">
        <ele>797.1</ele>
        <time>2021-08-03T10:52:08Z</time>
      </trkpt>
      <trkpt lat="48.45416" lon="7.2533">
        <ele>797.1</ele>
        <time>2021-08-03T10:52:09Z</time>
      </trkpt>
      <trkpt lat="48.45414" lon="7.25334">
        <ele>797</ele>
        <time>2021-08-03T10:52:11Z</time>
      </trkpt>
      <trkpt lat="48.45415" lon="7.25336">
        <ele>797</ele>
        <time>2021-08-03T10:52:13Z</time>
      </trkpt>
      <trkpt lat="48.45416" lon="7.25337">
        <ele>797</ele>
        <time>2021-08-03T10:52:14Z</time>
      </trkpt>
      <trkpt lat="48.45417" lon="7.25339">
        <ele>797</ele>
        <time>2021-08-03T10:52:15Z</time>
      </trkpt>
      <trkpt lat="48.4542" lon="7.25345">
        <ele>797</ele>
        <time>2021-08-03T10:52:17Z</time>
      </trkpt>
      <trkpt lat="48.45421" lon="7.25347">
        <ele>797</ele>
        <time>2021-08-03T10:52:18Z</time>
      </trkpt>
      <trkpt lat="48.45422" lon="7.25348">
        <ele>797</ele>
        <time>2021-08-03T10:52:19Z</time>
      </trkpt>
      <trkpt lat="48.45422" lon="7.25351">
        <ele>797.1</ele>
        <time>2021-08-03T10:52:20Z</time>
      </trkpt>
      <trkpt lat="48.45422" lon="7.25355">
        <ele>797.1</ele>
        <time>2021-08-03T10:52:22Z</time>
      </trkpt>
      <trkpt lat="48.45421" lon="7.25362">
        <ele>797.1</ele>
        <time>2021-08-03T10:52:24Z</time>
      </trkpt>
      <trkpt lat="48.45421" lon="7.25366">
        <ele>797.2</ele>
        <time>2021-08-03T10:52:25Z</time>
      </trkpt>
      <trkpt lat="48.45421" lon="7.25374">
        <ele>797.2</ele>
        <time>2021-08-03T10:52:27Z</time>
      </trkpt>
      <trkpt lat="48.45421" lon="7.25377">
        <ele>797.2</ele>
        <time>2021-08-03T10:52:28Z</time>
      </trkpt>
      <trkpt lat="48.45422" lon="7.2538">
        <ele>797.2</ele>
        <time>2021-08-03T10:52:29Z</time>
      </trkpt>
      <trkpt lat="48.45422" lon="7.25384">
        <ele>797.2</ele>
        <time>2021-08-03T10:52:31Z</time>
      </trkpt>
      <trkpt lat="48.45422" lon="7.2539">
        <ele>797.2</ele>
        <time>2021-08-03T10:52:33Z</time>
      </trkpt>
      <trkpt lat="48.45423" lon="7.25392">
        <ele>797.1</ele>
        <time>2021-08-03T10:52:34Z</time>
      </trkpt>
      <trkpt lat="48.45423" lon="7.25392">
        <ele>797.1</ele>
        <time>2021-08-03T10:52:35Z</time>
      </trkpt>
      <trkpt lat="48.45424" lon="7.25394">
        <ele>797.1</ele>
        <time>2021-08-03T10:52:36Z</time>
      </trkpt>
      <trkpt lat="48.45423" lon="7.25397">
        <ele>797.1</ele>
        <time>2021-08-03T10:52:38Z</time>
      </trkpt>
      <trkpt lat="48.45422" lon="7.25398">
        <ele>797.1</ele>
        <time>2021-08-03T10:52:39Z</time>
      </trkpt>
      <trkpt lat="48.45422" lon="7.25399">
        <ele>797.1</ele>
        <time>2021-08-03T10:52:41Z</time>
      </trkpt>
      <trkpt lat="48.45421" lon="7.25399">
        <ele>797.1</ele>
        <time>2021-08-03T10:52:42Z</time>
      </trkpt>
      <trkpt lat="48.4542" lon="7.25402">
        <ele>797.1</ele>
        <time>2021-08-03T10:52:44Z</time>
      </trkpt>
      <trkpt lat="48.45419" lon="7.25404">
        <ele>797.1</ele>
        <time>2021-08-03T10:52:45Z</time>
      </trkpt>
      <trkpt lat="48.45419" lon="7.25406">
        <ele>797.1</ele>
        <time>2021-08-03T10:52:46Z</time>
      </trkpt>
      <trkpt lat="48.45419" lon="7.25409">
        <ele>797.1</ele>
        <time>2021-08-03T10:52:47Z</time>
      </trkpt>
      <trkpt lat="48.45418" lon="7.25415">
        <ele>797</ele>
        <time>2021-08-03T10:52:49Z</time>
      </trkpt>
      <trkpt lat="48.45415" lon="7.25419">
        <ele>797</ele>
        <time>2021-08-03T10:52:50Z</time>
      </trkpt>
      <trkpt lat="48.45414" lon="7.25421">
        <ele>797</ele>
        <time>2021-08-03T10:52:51Z</time>
      </trkpt>
      <trkpt lat="48.45412" lon="7.25424">
        <ele>797</ele>
        <time>2021-08-03T10:52:52Z</time>
      </trkpt>
      <trkpt lat="48.4541" lon="7.25429">
        <ele>797.3</ele>
        <time>2021-08-03T10:52:54Z</time>
      </trkpt>
      <trkpt lat="48.45409" lon="7.25434">
        <ele>797.5</ele>
        <time>2021-08-03T10:52:55Z</time>
      </trkpt>
      <trkpt lat="48.45409" lon="7.25437">
        <ele>797.6</ele>
        <time>2021-08-03T10:52:56Z</time>
      </trkpt>
      <trkpt lat="48.45408" lon="7.25441">
        <ele>797.8</ele>
        <time>2021-08-03T10:52:58Z</time>
      </trkpt>
      <trkpt lat="48.45408" lon="7.25443">
        <ele>797.9</ele>
        <time>2021-08-03T10:52:59Z</time>
      </trkpt>
      <trkpt lat="48.45407" lon="7.25445">
        <ele>798</ele>
        <time>2021-08-03T10:53:00Z</time>
      </trkpt>
      <trkpt lat="48.45406" lon="7.25448">
        <ele>798.1</ele>
        <time>2021-08-03T10:53:01Z</time>
      </trkpt>
      <trkpt lat="48.45406" lon="7.25449">
        <ele>798.2</ele>
        <time>2021-08-03T10:53:02Z</time>
      </trkpt>
      <trkpt lat="48.45405" lon="7.2545">
        <ele>798.2</ele>
        <time>2021-08-03T10:53:03Z</time>
      </trkpt>
      <trkpt lat="48.45404" lon="7.25452">
        <ele>798.3</ele>
        <time>2021-08-03T10:53:05Z</time>
      </trkpt>
      <trkpt lat="48.45403" lon="7.25453">
        <ele>798.4</ele>
        <time>2021-08-03T10:53:06Z</time>
      </trkpt>
      <trkpt lat="48.45402" lon="7.25454">
        <ele>798.4</ele>
        <time>2021-08-03T10:53:07Z</time>
      </trkpt>
      <trkpt lat="48.454" lon="7.25457">
        <ele>798.6</ele>
        <time>2021-08-03T10:53:09Z</time>
      </trkpt>
      <trkpt lat="48.45399" lon="7.25458">
        <ele>798.6</ele>
        <time>2021-08-03T10:53:10Z</time>
      </trkpt>
      <trkpt lat="48.45398" lon="7.25458">
        <ele>798.7</ele>
        <time>2021-08-03T10:53:11Z</time>
      </trkpt>
      <trkpt lat="48.45397" lon="7.25459">
        <ele>798.7</ele>
        <time>2021-08-03T10:53:12Z</time>
      </trkpt>
      <trkpt lat="48.45395" lon="7.2546">
        <ele>798.8</ele>
        <time>2021-08-03T10:53:13Z</time>
      </trkpt>
      <trkpt lat="48.45394" lon="7.2546">
        <ele>798.8</ele>
        <time>2021-08-03T10:53:15Z</time>
      </trkpt>
      <trkpt lat="48.45392" lon="7.25461">
        <ele>798.9</ele>
        <time>2021-08-03T10:53:16Z</time>
      </trkpt>
      <trkpt lat="48.45392" lon="7.25461">
        <ele>798.9</ele>
        <time>2021-08-03T10:53:17Z</time>
      </trkpt>
      <trkpt lat="48.4539" lon="7.25462">
        <ele>799</ele>
        <time>2021-08-03T10:53:18Z</time>
      </trkpt>
      <trkpt lat="48.45389" lon="7.25463">
        <ele>799</ele>
        <time>2021-08-03T10:53:20Z</time>
      </trkpt>
      <trkpt lat="48.45388" lon="7.25462">
        <ele>799</ele>
        <time>2021-08-03T10:53:22Z</time>
      </trkpt>
      <trkpt lat="48.45388" lon="7.25462">
        <ele>799.1</ele>
        <time>2021-08-03T10:53:24Z</time>
      </trkpt>
      <trkpt lat="48.45387" lon="7.25463">
        <ele>799.1</ele>
        <time>2021-08-03T10:53:26Z</time>
      </trkpt>
      <trkpt lat="48.45386" lon="7.25465">
        <ele>799.1</ele>
        <time>2021-08-03T10:53:27Z</time>
      </trkpt>
      <trkpt lat="48.45386" lon="7.25466">
        <ele>799.1</ele>
        <time>2021-08-03T10:53:28Z</time>
      </trkpt>
      <trkpt lat="48.45384" lon="7.25469">
        <ele>799.2</ele>
        <time>2021-08-03T10:53:31Z</time>
      </trkpt>
      <trkpt lat="48.45383" lon="7.2547">
        <ele>799.2</ele>
        <time>2021-08-03T10:53:32Z</time>
      </trkpt>
      <trkpt lat="48.45382" lon="7.25473">
        <ele>799.3</ele>
        <time>2021-08-03T10:53:34Z</time>
      </trkpt>
      <trkpt lat="48.45382" lon="7.25475">
        <ele>799.4</ele>
        <time>2021-08-03T10:53:35Z</time>
      </trkpt>
      <trkpt lat="48.45381" lon="7.25476">
        <ele>799.4</ele>
        <time>2021-08-03T10:53:36Z</time>
      </trkpt>
      <trkpt lat="48.4538" lon="7.25478">
        <ele>799.7</ele>
        <time>2021-08-03T10:53:38Z</time>
      </trkpt>
      <trkpt lat="48.45378" lon="7.2548">
        <ele>800.7</ele>
        <time>2021-08-03T10:53:40Z</time>
      </trkpt>
      <trkpt lat="48.45375" lon="7.25482">
        <ele>801.8</ele>
        <time>2021-08-03T10:53:41Z</time>
      </trkpt>
      <trkpt lat="48.45374" lon="7.25483">
        <ele>802.2</ele>
        <time>2021-08-03T10:53:42Z</time>
      </trkpt>
      <trkpt lat="48.45373" lon="7.25484">
        <ele>802.8</ele>
        <time>2021-08-03T10:53:43Z</time>
      </trkpt>
      <trkpt lat="48.45372" lon="7.25486">
        <ele>803.5</ele>
        <time>2021-08-03T10:53:44Z</time>
      </trkpt>
      <trkpt lat="48.45365" lon="7.25494">
        <ele>806.7</ele>
        <time>2021-08-03T10:53:51Z</time>
      </trkpt>
      <trkpt lat="48.45364" lon="7.25494">
        <ele>807.1</ele>
        <time>2021-08-03T10:53:53Z</time>
      </trkpt>
      <trkpt lat="48.45365" lon="7.25494">
        <ele>807.4</ele>
        <time>2021-08-03T10:53:55Z</time>
      </trkpt>
      <trkpt lat="48.45365" lon="7.25495">
        <ele>807.6</ele>
        <time>2021-08-03T10:53:56Z</time>
      </trkpt>
      <trkpt lat="48.45365" lon="7.25495">
        <ele>807.7</ele>
        <time>2021-08-03T10:53:57Z</time>
      </trkpt>
      <trkpt lat="48.45365" lon="7.25496">
        <ele>807.9</ele>
        <time>2021-08-03T10:53:59Z</time>
      </trkpt>
      <trkpt lat="48.45365" lon="7.25496">
        <ele>808</ele>
        <time>2021-08-03T10:54:00Z</time>
      </trkpt>
      <trkpt lat="48.45365" lon="7.25496">
        <ele>808.2</ele>
        <time>2021-08-03T10:54:01Z</time>
      </trkpt>
      <trkpt lat="48.45364" lon="7.25498">
        <ele>808.6</ele>
        <time>2021-08-03T10:54:03Z</time>
      </trkpt>
      <trkpt lat="48.45352" lon="7.25504">
        <ele>813.5</ele>
        <time>2021-08-03T10:54:12Z</time>
      </trkpt>
      <trkpt lat="48.45349" lon="7.25506">
        <ele>813.7</ele>
        <time>2021-08-03T10:54:13Z</time>
      </trkpt>
      <trkpt lat="48.45345" lon="7.25508">
        <ele>814</ele>
        <time>2021-08-03T10:54:15Z</time>
      </trkpt>
      <trkpt lat="48.45344" lon="7.25508">
        <ele>814.1</ele>
        <time>2021-08-03T10:54:16Z</time>
      </trkpt>
      <trkpt lat="48.45341" lon="7.25509">
        <ele>814.4</ele>
        <time>2021-08-03T10:54:17Z</time>
      </trkpt>
      <trkpt lat="48.4534" lon="7.2551">
        <ele>814.5</ele>
        <time>2021-08-03T10:54:18Z</time>
      </trkpt>
      <trkpt lat="48.45336" lon="7.25512">
        <ele>814.8</ele>
        <time>2021-08-03T10:54:20Z</time>
      </trkpt>
      <trkpt lat="48.45334" lon="7.25513">
        <ele>814.9</ele>
        <time>2021-08-03T10:54:21Z</time>
      </trkpt>
      <trkpt lat="48.45332" lon="7.25513">
        <ele>815.1</ele>
        <time>2021-08-03T10:54:23Z</time>
      </trkpt>
      <trkpt lat="48.4533" lon="7.25512">
        <ele>815.2</ele>
        <time>2021-08-03T10:54:24Z</time>
      </trkpt>
      <trkpt lat="48.4533" lon="7.2551">
        <ele>815.3</ele>
        <time>2021-08-03T10:54:26Z</time>
      </trkpt>
      <trkpt lat="48.4533" lon="7.25509">
        <ele>815.4</ele>
        <time>2021-08-03T10:54:27Z</time>
      </trkpt>
      <trkpt lat="48.4533" lon="7.25508">
        <ele>815.5</ele>
        <time>2021-08-03T10:54:29Z</time>
      </trkpt>
      <trkpt lat="48.45331" lon="7.25508">
        <ele>815.5</ele>
        <time>2021-08-03T10:54:30Z</time>
      </trkpt>
      <trkpt lat="48.45331" lon="7.25509">
        <ele>815.5</ele>
        <time>2021-08-03T10:54:32Z</time>
      </trkpt>
      <trkpt lat="48.45332" lon="7.2551">
        <ele>815.6</ele>
        <time>2021-08-03T10:54:34Z</time>
      </trkpt>
      <trkpt lat="48.45333" lon="7.2551">
        <ele>815.7</ele>
        <time>2021-08-03T10:54:35Z</time>
      </trkpt>
      <trkpt lat="48.45333" lon="7.25511">
        <ele>815.7</ele>
        <time>2021-08-03T10:54:37Z</time>
      </trkpt>
      <trkpt lat="48.45334" lon="7.25511">
        <ele>815.8</ele>
        <time>2021-08-03T10:54:38Z</time>
      </trkpt>
      <trkpt lat="48.45334" lon="7.25512">
        <ele>815.8</ele>
        <time>2021-08-03T10:54:40Z</time>
      </trkpt>
      <trkpt lat="48.45329" lon="7.25509">
        <ele>816.2</ele>
        <time>2021-08-03T10:55:27Z</time>
      </trkpt>
      <trkpt lat="48.45327" lon="7.2551">
        <ele>816.4</ele>
        <time>2021-08-03T10:55:29Z</time>
      </trkpt>
      <trkpt lat="48.45327" lon="7.25511">
        <ele>816.4</ele>
        <time>2021-08-03T10:55:30Z</time>
      </trkpt>
      <trkpt lat="48.45326" lon="7.25512">
        <ele>816.5</ele>
        <time>2021-08-03T10:55:32Z</time>
      </trkpt>
      <trkpt lat="48.45326" lon="7.25512">
        <ele>816.5</ele>
        <time>2021-08-03T10:55:33Z</time>
      </trkpt>
      <trkpt lat="48.45326" lon="7.25512">
        <ele>816.5</ele>
        <time>2021-08-03T10:55:34Z</time>
      </trkpt>
      <trkpt lat="48.45326" lon="7.25513">
        <ele>816.6</ele>
        <time>2021-08-03T10:55:36Z</time>
      </trkpt>
      <trkpt lat="48.45326" lon="7.25514">
        <ele>816.6</ele>
        <time>2021-08-03T10:55:37Z</time>
      </trkpt>
      <trkpt lat="48.45327" lon="7.25518">
        <ele>816.9</ele>
        <time>2021-08-03T10:55:39Z</time>
      </trkpt>
      <trkpt lat="48.45327" lon="7.2552">
        <ele>816.9</ele>
        <time>2021-08-03T10:55:40Z</time>
      </trkpt>
      <trkpt lat="48.45324" lon="7.25511">
        <ele>817.5</ele>
        <time>2021-08-03T10:55:49Z</time>
      </trkpt>
      <trkpt lat="48.45323" lon="7.25509">
        <ele>817.6</ele>
        <time>2021-08-03T10:55:50Z</time>
      </trkpt>
      <trkpt lat="48.45322" lon="7.25508">
        <ele>817.7</ele>
        <time>2021-08-03T10:55:52Z</time>
      </trkpt>
      <trkpt lat="48.45322" lon="7.25507">
        <ele>817.8</ele>
        <time>2021-08-03T10:55:53Z</time>
      </trkpt>
      <trkpt lat="48.45321" lon="7.25506">
        <ele>817.8</ele>
        <time>2021-08-03T10:55:54Z</time>
      </trkpt>
      <trkpt lat="48.45321" lon="7.25506">
        <ele>817.8</ele>
        <time>2021-08-03T10:55:55Z</time>
      </trkpt>
      <trkpt lat="48.45321" lon="7.25506">
        <ele>817.9</ele>
        <time>2021-08-03T10:55:56Z</time>
      </trkpt>
      <trkpt lat="48.45321" lon="7.25507">
        <ele>817.9</ele>
        <time>2021-08-03T10:55:58Z</time>
      </trkpt>
      <trkpt lat="48.45321" lon="7.25507">
        <ele>817.9</ele>
        <time>2021-08-03T10:55:59Z</time>
      </trkpt>
      <trkpt lat="48.4532" lon="7.25508">
        <ele>818</ele>
        <time>2021-08-03T10:56:00Z</time>
      </trkpt>
      <trkpt lat="48.4532" lon="7.25509">
        <ele>818</ele>
        <time>2021-08-03T10:56:02Z</time>
      </trkpt>
      <trkpt lat="48.45319" lon="7.25509">
        <ele>818.1</ele>
        <time>2021-08-03T10:56:03Z</time>
      </trkpt>
      <trkpt lat="48.45319" lon="7.25509">
        <ele>818.1</ele>
        <time>2021-08-03T10:56:04Z</time>
      </trkpt>
      <trkpt lat="48.45318" lon="7.25506">
        <ele>818.2</ele>
        <time>2021-08-03T10:56:06Z</time>
      </trkpt>
      <trkpt lat="48.45318" lon="7.25504">
        <ele>818.4</ele>
        <time>2021-08-03T10:56:07Z</time>
      </trkpt>
      <trkpt lat="48.45317" lon="7.25503">
        <ele>818.4</ele>
        <time>2021-08-03T10:56:08Z</time>
      </trkpt>
      <trkpt lat="48.45317" lon="7.25503">
        <ele>818.4</ele>
        <time>2021-08-03T10:56:09Z</time>
      </trkpt>
      <trkpt lat="48.45318" lon="7.25504">
        <ele>818.5</ele>
        <time>2021-08-03T10:56:11Z</time>
      </trkpt>
      <trkpt lat="48.45318" lon="7.25504">
        <ele>818.5</ele>
        <time>2021-08-03T10:56:13Z</time>
      </trkpt>
      <trkpt lat="48.45318" lon="7.25504">
        <ele>818.5</ele>
        <time>2021-08-03T10:56:14Z</time>
      </trkpt>
      <trkpt lat="48.45318" lon="7.25504">
        <ele>818.5</ele>
        <time>2021-08-03T10:56:16Z</time>
      </trkpt>
      <trkpt lat="48.45318" lon="7.25504">
        <ele>818.5</ele>
        <time>2021-08-03T10:56:17Z</time>
      </trkpt>
      <trkpt lat="48.45318" lon="7.25505">
        <ele>818.5</ele>
        <time>2021-08-03T10:56:19Z</time>
      </trkpt>
      <trkpt lat="48.45318" lon="7.25505">
        <ele>818.5</ele>
        <time>2021-08-03T10:56:21Z</time>
      </trkpt>
      <trkpt lat="48.45318" lon="7.25505">
        <ele>818.6</ele>
        <time>2021-08-03T10:56:22Z</time>
      </trkpt>
      <trkpt lat="48.45318" lon="7.25505">
        <ele>818.6</ele>
        <time>2021-08-03T10:56:23Z</time>
      </trkpt>
      <trkpt lat="48.45318" lon="7.25506">
        <ele>818.6</ele>
        <time>2021-08-03T10:56:25Z</time>
      </trkpt>
      <trkpt lat="48.45319" lon="7.25506">
        <ele>818.6</ele>
        <time>2021-08-03T10:56:26Z</time>
      </trkpt>
      <trkpt lat="48.45319" lon="7.25506">
        <ele>818.6</ele>
        <time>2021-08-03T10:56:27Z</time>
      </trkpt>
      <trkpt lat="48.45319" lon="7.25508">
        <ele>818.7</ele>
        <time>2021-08-03T10:56:29Z</time>
      </trkpt>
      <trkpt lat="48.4532" lon="7.2551">
        <ele>818.9</ele>
        <time>2021-08-03T10:56:30Z</time>
      </trkpt>
      <trkpt lat="48.45321" lon="7.25511">
        <ele>818.9</ele>
        <time>2021-08-03T10:56:32Z</time>
      </trkpt>
      <trkpt lat="48.45321" lon="7.25512">
        <ele>819</ele>
        <time>2021-08-03T10:56:33Z</time>
      </trkpt>
      <trkpt lat="48.45322" lon="7.25512">
        <ele>819</ele>
        <time>2021-08-03T10:56:34Z</time>
      </trkpt>
      <trkpt lat="48.45322" lon="7.25512">
        <ele>819</ele>
        <time>2021-08-03T10:56:36Z</time>
      </trkpt>
      <trkpt lat="48.45322" lon="7.25513">
        <ele>819.1</ele>
        <time>2021-08-03T10:56:38Z</time>
      </trkpt>
      <trkpt lat="48.45322" lon="7.25514">
        <ele>819.1</ele>
        <time>2021-08-03T10:56:39Z</time>
      </trkpt>
      <trkpt lat="48.45322" lon="7.25514">
        <ele>819.1</ele>
        <time>2021-08-03T10:56:40Z</time>
      </trkpt>
      <trkpt lat="48.45323" lon="7.25515">
        <ele>819.2</ele>
        <time>2021-08-03T10:56:42Z</time>
      </trkpt>
      <trkpt lat="48.45323" lon="7.25515">
        <ele>819.2</ele>
        <time>2021-08-03T10:56:44Z</time>
      </trkpt>
      <trkpt lat="48.45322" lon="7.25514">
        <ele>819.3</ele>
        <time>2021-08-03T10:56:45Z</time>
      </trkpt>
      <trkpt lat="48.45321" lon="7.25514">
        <ele>819.4</ele>
        <time>2021-08-03T10:56:47Z</time>
      </trkpt>
      <trkpt lat="48.4532" lon="7.25514">
        <ele>819.4</ele>
        <time>2021-08-03T10:56:48Z</time>
      </trkpt>
      <trkpt lat="48.45318" lon="7.25513">
        <ele>819.6</ele>
        <time>2021-08-03T10:56:50Z</time>
      </trkpt>
      <trkpt lat="48.45317" lon="7.25514">
        <ele>819.6</ele>
        <time>2021-08-03T10:56:51Z</time>
      </trkpt>
      <trkpt lat="48.45316" lon="7.25513">
        <ele>819.8</ele>
        <time>2021-08-03T10:56:53Z</time>
      </trkpt>
      <trkpt lat="48.45315" lon="7.25514">
        <ele>819.8</ele>
        <time>2021-08-03T10:56:54Z</time>
      </trkpt>
      <trkpt lat="48.45311" lon="7.25514">
        <ele>820.2</ele>
        <time>2021-08-03T10:56:57Z</time>
      </trkpt>
      <trkpt lat="48.45308" lon="7.25513">
        <ele>820.2</ele>
        <time>2021-08-03T10:56:59Z</time>
      </trkpt>
      <trkpt lat="48.45305" lon="7.25511">
        <ele>819.8</ele>
        <time>2021-08-03T10:57:00Z</time>
      </trkpt>
      <trkpt lat="48.45304" lon="7.2551">
        <ele>819.5</ele>
        <time>2021-08-03T10:57:02Z</time>
      </trkpt>
      <trkpt lat="48.45301" lon="7.25509">
        <ele>819.2</ele>
        <time>2021-08-03T10:57:03Z</time>
      </trkpt>
      <trkpt lat="48.453" lon="7.25509">
        <ele>819.1</ele>
        <time>2021-08-03T10:57:04Z</time>
      </trkpt>
      <trkpt lat="48.45299" lon="7.25508">
        <ele>818.9</ele>
        <time>2021-08-03T10:57:05Z</time>
      </trkpt>
      <trkpt lat="48.45296" lon="7.25508">
        <ele>818.6</ele>
        <time>2021-08-03T10:57:07Z</time>
      </trkpt>
      <trkpt lat="48.45295" lon="7.25508">
        <ele>818.5</ele>
        <time>2021-08-03T10:57:08Z</time>
      </trkpt>
      <trkpt lat="48.45293" lon="7.25508">
        <ele>818.4</ele>
        <time>2021-08-03T10:57:09Z</time>
      </trkpt>
      <trkpt lat="48.45242" lon="7.25514">
        <ele>818.2</ele>
        <time>2021-08-03T10:57:51Z</time>
      </trkpt>
      <trkpt lat="48.45238" lon="7.25514">
        <ele>818.4</ele>
        <time>2021-08-03T10:57:53Z</time>
      </trkpt>
      <trkpt lat="48.45233" lon="7.25512">
        <ele>818.7</ele>
        <time>2021-08-03T10:57:55Z</time>
      </trkpt>
      <trkpt lat="48.4523" lon="7.25509">
        <ele>818.9</ele>
        <time>2021-08-03T10:57:57Z</time>
      </trkpt>
      <trkpt lat="48.45226" lon="7.25508">
        <ele>819.3</ele>
        <time>2021-08-03T10:57:59Z</time>
      </trkpt>
      <trkpt lat="48.45226" lon="7.25507">
        <ele>819.3</ele>
        <time>2021-08-03T10:58:00Z</time>
      </trkpt>
      <trkpt lat="48.45226" lon="7.25507">
        <ele>819.3</ele>
        <time>2021-08-03T10:58:01Z</time>
      </trkpt>
      <trkpt lat="48.45225" lon="7.25506">
        <ele>819.4</ele>
        <time>2021-08-03T10:58:02Z</time>
      </trkpt>
      <trkpt lat="48.45225" lon="7.25505">
        <ele>819.5</ele>
        <time>2021-08-03T10:58:04Z</time>
      </trkpt>
      <trkpt lat="48.45224" lon="7.25505">
        <ele>819.6</ele>
        <time>2021-08-03T10:58:05Z</time>
      </trkpt>
      <trkpt lat="48.4519" lon="7.2551">
        <ele>822.7</ele>
        <time>2021-08-03T10:58:33Z</time>
      </trkpt>
      <trkpt lat="48.45186" lon="7.25514">
        <ele>823.1</ele>
        <time>2021-08-03T10:58:35Z</time>
      </trkpt>
      <trkpt lat="48.45182" lon="7.25519">
        <ele>823.3</ele>
        <time>2021-08-03T10:58:36Z</time>
      </trkpt>
      <trkpt lat="48.45179" lon="7.25522">
        <ele>823.5</ele>
        <time>2021-08-03T10:58:38Z</time>
      </trkpt>
      <trkpt lat="48.45175" lon="7.25524">
        <ele>823.6</ele>
        <time>2021-08-03T10:58:39Z</time>
      </trkpt>
      <trkpt lat="48.45174" lon="7.25525">
        <ele>823.7</ele>
        <time>2021-08-03T10:58:40Z</time>
      </trkpt>
      <trkpt lat="48.45173" lon="7.25524">
        <ele>823.7</ele>
        <time>2021-08-03T10:58:42Z</time>
      </trkpt>
      <trkpt lat="48.45173" lon="7.25524">
        <ele>823.7</ele>
        <time>2021-08-03T10:58:43Z</time>
      </trkpt>
      <trkpt lat="48.45172" lon="7.25523">
        <ele>823.8</ele>
        <time>2021-08-03T10:58:44Z</time>
      </trkpt>
      <trkpt lat="48.4517" lon="7.25524">
        <ele>823.8</ele>
        <time>2021-08-03T10:58:46Z</time>
      </trkpt>
      <trkpt lat="48.45167" lon="7.25526">
        <ele>823.9</ele>
        <time>2021-08-03T10:58:48Z</time>
      </trkpt>
      <trkpt lat="48.45163" lon="7.25528">
        <ele>823.9</ele>
        <time>2021-08-03T10:58:49Z</time>
      </trkpt>
      <trkpt lat="48.45162" lon="7.2553">
        <ele>824</ele>
        <time>2021-08-03T10:58:50Z</time>
      </trkpt>
      <trkpt lat="48.45157" lon="7.25534">
        <ele>824</ele>
        <time>2021-08-03T10:58:52Z</time>
      </trkpt>
      <trkpt lat="48.45152" lon="7.25536">
        <ele>824</ele>
        <time>2021-08-03T10:58:53Z</time>
      </trkpt>
      <trkpt lat="48.45148" lon="7.25539">
        <ele>823.9</ele>
        <time>2021-08-03T10:58:54Z</time>
      </trkpt>
      <trkpt lat="48.4514" lon="7.25545">
        <ele>823.8</ele>
        <time>2021-08-03T10:58:56Z</time>
      </trkpt>
      <trkpt lat="48.45135" lon="7.2555">
        <ele>823.6</ele>
        <time>2021-08-03T10:58:57Z</time>
      </trkpt>
      <trkpt lat="48.45127" lon="7.25559">
        <ele>823.2</ele>
        <time>2021-08-03T10:58:58Z</time>
      </trkpt>
      <trkpt lat="48.45121" lon="7.25563">
        <ele>822.8</ele>
        <time>2021-08-03T10:59:00Z</time>
      </trkpt>
      <trkpt lat="48.45113" lon="7.25569">
        <ele>822.4</ele>
        <time>2021-08-03T10:59:01Z</time>
      </trkpt>
      <trkpt lat="48.45108" lon="7.25573">
        <ele>822.1</ele>
        <time>2021-08-03T10:59:02Z</time>
      </trkpt>
      <trkpt lat="48.45104" lon="7.25576">
        <ele>821.9</ele>
        <time>2021-08-03T10:59:04Z</time>
      </trkpt>
      <trkpt lat="48.45098" lon="7.2558">
        <ele>821.7</ele>
        <time>2021-08-03T10:59:05Z</time>
      </trkpt>
      <trkpt lat="48.45092" lon="7.25583">
        <ele>821.5</ele>
        <time>2021-08-03T10:59:06Z</time>
      </trkpt>
      <trkpt lat="48.45085" lon="7.25587">
        <ele>821.3</ele>
        <time>2021-08-03T10:59:07Z</time>
      </trkpt>
      <trkpt lat="48.45082" lon="7.25592">
        <ele>821.2</ele>
        <time>2021-08-03T10:59:08Z</time>
      </trkpt>
      <trkpt lat="48.45078" lon="7.25596">
        <ele>821.1</ele>
        <time>2021-08-03T10:59:10Z</time>
      </trkpt>
      <trkpt lat="48.45074" lon="7.256">
        <ele>821.1</ele>
        <time>2021-08-03T10:59:11Z</time>
      </trkpt>
      <trkpt lat="48.45069" lon="7.25603">
        <ele>821</ele>
        <time>2021-08-03T10:59:12Z</time>
      </trkpt>
      <trkpt lat="48.45064" lon="7.25607">
        <ele>821</ele>
        <time>2021-08-03T10:59:13Z</time>
      </trkpt>
      <trkpt lat="48.45059" lon="7.25611">
        <ele>821</ele>
        <time>2021-08-03T10:59:14Z</time>
      </trkpt>
      <trkpt lat="48.45048" lon="7.25616">
        <ele>820.9</ele>
        <time>2021-08-03T10:59:16Z</time>
      </trkpt>
      <trkpt lat="48.45034" lon="7.25625">
        <ele>820.6</ele>
        <time>2021-08-03T10:59:17Z</time>
      </trkpt>
      <trkpt lat="48.45027" lon="7.25629">
        <ele>820.5</ele>
        <time>2021-08-03T10:59:18Z</time>
      </trkpt>
      <trkpt lat="48.45015" lon="7.25636">
        <ele>820.3</ele>
        <time>2021-08-03T10:59:20Z</time>
      </trkpt>
      <trkpt lat="48.45001" lon="7.25642">
        <ele>820.3</ele>
        <time>2021-08-03T10:59:22Z</time>
      </trkpt>
      <trkpt lat="48.44994" lon="7.25643">
        <ele>820.3</ele>
        <time>2021-08-03T10:59:23Z</time>
      </trkpt>
      <trkpt lat="48.44989" lon="7.25644">
        <ele>820.3</ele>
        <time>2021-08-03T10:59:24Z</time>
      </trkpt>
      <trkpt lat="48.44981" lon="7.25646">
        <ele>820.2</ele>
        <time>2021-08-03T10:59:26Z</time>
      </trkpt>
      <trkpt lat="48.44979" lon="7.25651">
        <ele>820.2</ele>
        <time>2021-08-03T10:59:27Z</time>
      </trkpt>
      <trkpt lat="48.44977" lon="7.25654">
        <ele>820.1</ele>
        <time>2021-08-03T10:59:28Z</time>
      </trkpt>
      <trkpt lat="48.44974" lon="7.25658">
        <ele>820.1</ele>
        <time>2021-08-03T10:59:30Z</time>
      </trkpt>
      <trkpt lat="48.44972" lon="7.25661">
        <ele>820</ele>
        <time>2021-08-03T10:59:31Z</time>
      </trkpt>
      <trkpt lat="48.44966" lon="7.25662">
        <ele>820</ele>
        <time>2021-08-03T10:59:32Z</time>
      </trkpt>
      <trkpt lat="48.44964" lon="7.25664">
        <ele>819.9</ele>
        <time>2021-08-03T10:59:33Z</time>
      </trkpt>
      <trkpt lat="48.44961" lon="7.25664">
        <ele>819.9</ele>
        <time>2021-08-03T10:59:35Z</time>
      </trkpt>
      <trkpt lat="48.4496" lon="7.25663">
        <ele>819.9</ele>
        <time>2021-08-03T10:59:36Z</time>
      </trkpt>
      <trkpt lat="48.44961" lon="7.25663">
        <ele>819.9</ele>
        <time>2021-08-03T10:59:38Z</time>
      </trkpt>
      <trkpt lat="48.44959" lon="7.25663">
        <ele>819.9</ele>
        <time>2021-08-03T10:59:41Z</time>
      </trkpt>
      <trkpt lat="48.44958" lon="7.25664">
        <ele>819.8</ele>
        <time>2021-08-03T10:59:42Z</time>
      </trkpt>
      <trkpt lat="48.44957" lon="7.25665">
        <ele>819.8</ele>
        <time>2021-08-03T10:59:44Z</time>
      </trkpt>
      <trkpt lat="48.44956" lon="7.25668">
        <ele>819.8</ele>
        <time>2021-08-03T10:59:46Z</time>
      </trkpt>
      <trkpt lat="48.44937" lon="7.257">
        <ele>820.7</ele>
        <time>2021-08-03T11:00:00Z</time>
      </trkpt>
      <trkpt lat="48.44935" lon="7.25705">
        <ele>820.9</ele>
        <time>2021-08-03T11:00:02Z</time>
      </trkpt>
      <trkpt lat="48.44931" lon="7.25711">
        <ele>821.2</ele>
        <time>2021-08-03T11:00:03Z</time>
      </trkpt>
      <trkpt lat="48.44929" lon="7.25714">
        <ele>821.5</ele>
        <time>2021-08-03T11:00:05Z</time>
      </trkpt>
      <trkpt lat="48.44928" lon="7.25716">
        <ele>821.6</ele>
        <time>2021-08-03T11:00:06Z</time>
      </trkpt>
      <trkpt lat="48.44925" lon="7.25721">
        <ele>822</ele>
        <time>2021-08-03T11:00:08Z</time>
      </trkpt>
      <trkpt lat="48.44925" lon="7.25723">
        <ele>822.2</ele>
        <time>2021-08-03T11:00:09Z</time>
      </trkpt>
      <trkpt lat="48.44923" lon="7.25726">
        <ele>822.5</ele>
        <time>2021-08-03T11:00:11Z</time>
      </trkpt>
      <trkpt lat="48.44921" lon="7.25731">
        <ele>823</ele>
        <time>2021-08-03T11:00:12Z</time>
      </trkpt>
      <trkpt lat="48.44863" lon="7.25629">
        <ele>834.7</ele>
        <time>2021-08-03T11:03:21Z</time>
      </trkpt>
      <trkpt lat="48.4486" lon="7.25626">
        <ele>834.6</ele>
        <time>2021-08-03T11:03:22Z</time>
      </trkpt>
      <trkpt lat="48.44859" lon="7.25625">
        <ele>834.6</ele>
        <time>2021-08-03T11:03:23Z</time>
      </trkpt>
      <trkpt lat="48.44857" lon="7.25624">
        <ele>834.6</ele>
        <time>2021-08-03T11:03:24Z</time>
      </trkpt>
      <trkpt lat="48.44854" lon="7.25623">
        <ele>834.5</ele>
        <time>2021-08-03T11:03:26Z</time>
      </trkpt>
      <trkpt lat="48.44853" lon="7.25623">
        <ele>834.7</ele>
        <time>2021-08-03T11:03:28Z</time>
      </trkpt>
      <trkpt lat="48.44852" lon="7.25623">
        <ele>834.8</ele>
        <time>2021-08-03T11:03:29Z</time>
      </trkpt>
      <trkpt lat="48.4485" lon="7.25623">
        <ele>834.8</ele>
        <time>2021-08-03T11:03:30Z</time>
      </trkpt>
      <trkpt lat="48.44849" lon="7.25624">
        <ele>834.9</ele>
        <time>2021-08-03T11:03:31Z</time>
      </trkpt>
      <trkpt lat="48.44848" lon="7.25626">
        <ele>835</ele>
        <time>2021-08-03T11:03:33Z</time>
      </trkpt>
      <trkpt lat="48.44848" lon="7.25628">
        <ele>835</ele>
        <time>2021-08-03T11:03:34Z</time>
      </trkpt>
      <trkpt lat="48.44846" lon="7.2563">
        <ele>835.1</ele>
        <time>2021-08-03T11:03:35Z</time>
      </trkpt>
      <trkpt lat="48.44845" lon="7.25631">
        <ele>835.2</ele>
        <time>2021-08-03T11:03:36Z</time>
      </trkpt>
      <trkpt lat="48.44843" lon="7.25634">
        <ele>835.3</ele>
        <time>2021-08-03T11:03:38Z</time>
      </trkpt>
      <trkpt lat="48.44842" lon="7.25635">
        <ele>835.3</ele>
        <time>2021-08-03T11:03:39Z</time>
      </trkpt>
      <trkpt lat="48.44842" lon="7.25637">
        <ele>835.4</ele>
        <time>2021-08-03T11:03:40Z</time>
      </trkpt>
      <trkpt lat="48.44842" lon="7.25638">
        <ele>835.4</ele>
        <time>2021-08-03T11:03:41Z</time>
      </trkpt>
      <trkpt lat="48.44841" lon="7.25641">
        <ele>835.5</ele>
        <time>2021-08-03T11:03:43Z</time>
      </trkpt>
      <trkpt lat="48.44841" lon="7.25643">
        <ele>835.5</ele>
        <time>2021-08-03T11:03:44Z</time>
      </trkpt>
      <trkpt lat="48.44841" lon="7.25644">
        <ele>835.6</ele>
        <time>2021-08-03T11:03:45Z</time>
      </trkpt>
      <trkpt lat="48.4484" lon="7.25645">
        <ele>835.6</ele>
        <time>2021-08-03T11:03:47Z</time>
      </trkpt>
      <trkpt lat="48.4484" lon="7.25646">
        <ele>835.7</ele>
        <time>2021-08-03T11:03:48Z</time>
      </trkpt>
      <trkpt lat="48.4484" lon="7.25647">
        <ele>835.7</ele>
        <time>2021-08-03T11:03:49Z</time>
      </trkpt>
      <trkpt lat="48.44839" lon="7.25648">
        <ele>835.7</ele>
        <time>2021-08-03T11:03:50Z</time>
      </trkpt>
      <trkpt lat="48.44839" lon="7.25649">
        <ele>835.8</ele>
        <time>2021-08-03T11:03:52Z</time>
      </trkpt>
      <trkpt lat="48.44838" lon="7.2565">
        <ele>835.8</ele>
        <time>2021-08-03T11:03:53Z</time>
      </trkpt>
      <trkpt lat="48.44822" lon="7.25671">
        <ele>836.9</ele>
        <time>2021-08-03T11:04:12Z</time>
      </trkpt>
      <trkpt lat="48.44818" lon="7.25674">
        <ele>837.2</ele>
        <time>2021-08-03T11:04:13Z</time>
      </trkpt>
      <trkpt lat="48.44817" lon="7.25675">
        <ele>837.3</ele>
        <time>2021-08-03T11:04:15Z</time>
      </trkpt>
      <trkpt lat="48.44817" lon="7.25676">
        <ele>837.4</ele>
        <time>2021-08-03T11:04:16Z</time>
      </trkpt>
      <trkpt lat="48.44816" lon="7.25676">
        <ele>837.4</ele>
        <time>2021-08-03T11:04:17Z</time>
      </trkpt>
      <trkpt lat="48.44815" lon="7.25679">
        <ele>837.6</ele>
        <time>2021-08-03T11:04:18Z</time>
      </trkpt>
      <trkpt lat="48.44814" lon="7.25681">
        <ele>837.7</ele>
        <time>2021-08-03T11:04:20Z</time>
      </trkpt>
      <trkpt lat="48.44813" lon="7.25682">
        <ele>837.8</ele>
        <time>2021-08-03T11:04:21Z</time>
      </trkpt>
      <trkpt lat="48.44812" lon="7.25684">
        <ele>837.9</ele>
        <time>2021-08-03T11:04:22Z</time>
      </trkpt>
      <trkpt lat="48.44811" lon="7.25686">
        <ele>838.6</ele>
        <time>2021-08-03T11:04:24Z</time>
      </trkpt>
      <trkpt lat="48.44811" lon="7.25687">
        <ele>838.7</ele>
        <time>2021-08-03T11:04:26Z</time>
      </trkpt>
      <trkpt lat="48.44809" lon="7.25689">
        <ele>838.8</ele>
        <time>2021-08-03T11:04:27Z</time>
      </trkpt>
      <trkpt lat="48.44808" lon="7.25691">
        <ele>838.9</ele>
        <time>2021-08-03T11:04:28Z</time>
      </trkpt>
      <trkpt lat="48.44805" lon="7.25693">
        <ele>839.2</ele>
        <time>2021-08-03T11:04:30Z</time>
      </trkpt>
      <trkpt lat="48.44803" lon="7.25694">
        <ele>839.4</ele>
        <time>2021-08-03T11:04:31Z</time>
      </trkpt>
      <trkpt lat="48.44801" lon="7.25694">
        <ele>839.6</ele>
        <time>2021-08-03T11:04:33Z</time>
      </trkpt>
      <trkpt lat="48.448" lon="7.25693">
        <ele>839.7</ele>
        <time>2021-08-03T11:04:34Z</time>
      </trkpt>
      <trkpt lat="48.44799" lon="7.25693">
        <ele>839.7</ele>
        <time>2021-08-03T11:04:36Z</time>
      </trkpt>
      <trkpt lat="48.448" lon="7.25693">
        <ele>839.7</ele>
        <time>2021-08-03T11:04:37Z</time>
      </trkpt>
      <trkpt lat="48.44799" lon="7.25694">
        <ele>839.8</ele>
        <time>2021-08-03T11:04:38Z</time>
      </trkpt>
      <trkpt lat="48.448" lon="7.25695">
        <ele>839.9</ele>
        <time>2021-08-03T11:04:39Z</time>
      </trkpt>
      <trkpt lat="48.448" lon="7.25696">
        <ele>839.9</ele>
        <time>2021-08-03T11:04:41Z</time>
      </trkpt>
      <trkpt lat="48.448" lon="7.25698">
        <ele>840</ele>
        <time>2021-08-03T11:04:42Z</time>
      </trkpt>
      <trkpt lat="48.448" lon="7.25698">
        <ele>840</ele>
        <time>2021-08-03T11:04:43Z</time>
      </trkpt>
      <trkpt lat="48.44799" lon="7.257">
        <ele>840.1</ele>
        <time>2021-08-03T11:04:45Z</time>
      </trkpt>
      <trkpt lat="48.44782" lon="7.25709">
        <ele>841</ele>
        <time>2021-08-03T11:04:58Z</time>
      </trkpt>
      <trkpt lat="48.4478" lon="7.25711">
        <ele>841.1</ele>
        <time>2021-08-03T11:04:59Z</time>
      </trkpt>
      <trkpt lat="48.44779" lon="7.25711">
        <ele>841.1</ele>
        <time>2021-08-03T11:05:01Z</time>
      </trkpt>
      <trkpt lat="48.44777" lon="7.25711">
        <ele>841.2</ele>
        <time>2021-08-03T11:05:02Z</time>
      </trkpt>
      <trkpt lat="48.44776" lon="7.25712">
        <ele>841.2</ele>
        <time>2021-08-03T11:05:03Z</time>
      </trkpt>
      <trkpt lat="48.44775" lon="7.25713">
        <ele>841.2</ele>
        <time>2021-08-03T11:05:04Z</time>
      </trkpt>
      <trkpt lat="48.44775" lon="7.25714">
        <ele>841.3</ele>
        <time>2021-08-03T11:05:05Z</time>
      </trkpt>
      <trkpt lat="48.44775" lon="7.25715">
        <ele>841.3</ele>
        <time>2021-08-03T11:05:06Z</time>
      </trkpt>
      <trkpt lat="48.44773" lon="7.2572">
        <ele>841.5</ele>
        <time>2021-08-03T11:05:08Z</time>
      </trkpt>
      <trkpt lat="48.44772" lon="7.25723">
        <ele>841.5</ele>
        <time>2021-08-03T11:05:09Z</time>
      </trkpt>
      <trkpt lat="48.44771" lon="7.25725">
        <ele>841.6</ele>
        <time>2021-08-03T11:05:10Z</time>
      </trkpt>
      <trkpt lat="48.4477" lon="7.25726">
        <ele>841.7</ele>
        <time>2021-08-03T11:05:12Z</time>
      </trkpt>
      <trkpt lat="48.44767" lon="7.25726">
        <ele>841.8</ele>
        <time>2021-08-03T11:05:14Z</time>
      </trkpt>
      <trkpt lat="48.44767" lon="7.25725">
        <ele>841.9</ele>
        <time>2021-08-03T11:05:15Z</time>
      </trkpt>
      <trkpt lat="48.44765" lon="7.25724">
        <ele>842</ele>
        <time>2021-08-03T11:05:16Z</time>
      </trkpt>
      <trkpt lat="48.44764" lon="7.25723">
        <ele>842</ele>
        <time>2021-08-03T11:05:18Z</time>
      </trkpt>
      <trkpt lat="48.44764" lon="7.25723">
        <ele>842.1</ele>
        <time>2021-08-03T11:05:19Z</time>
      </trkpt>
      <trkpt lat="48.44763" lon="7.25724">
        <ele>842.1</ele>
        <time>2021-08-03T11:05:20Z</time>
      </trkpt>
      <trkpt lat="48.44762" lon="7.25726">
        <ele>842.2</ele>
        <time>2021-08-03T11:05:21Z</time>
      </trkpt>
      <trkpt lat="48.44762" lon="7.25727">
        <ele>842.2</ele>
        <time>2021-08-03T11:05:22Z</time>
      </trkpt>
      <trkpt lat="48.4476" lon="7.25728">
        <ele>842.4</ele>
        <time>2021-08-03T11:05:24Z</time>
      </trkpt>
      <trkpt lat="48.44759" lon="7.25729">
        <ele>842.4</ele>
        <time>2021-08-03T11:05:25Z</time>
      </trkpt>
      <trkpt lat="48.44758" lon="7.2573">
        <ele>842.5</ele>
        <time>2021-08-03T11:05:26Z</time>
      </trkpt>
      <trkpt lat="48.44756" lon="7.25731">
        <ele>842.6</ele>
        <time>2021-08-03T11:05:27Z</time>
      </trkpt>
      <trkpt lat="48.44755" lon="7.25733">
        <ele>842.7</ele>
        <time>2021-08-03T11:05:28Z</time>
      </trkpt>
      <trkpt lat="48.44748" lon="7.25743">
        <ele>843.8</ele>
        <time>2021-08-03T11:05:34Z</time>
      </trkpt>
      <trkpt lat="48.44748" lon="7.25747">
        <ele>844.1</ele>
        <time>2021-08-03T11:05:35Z</time>
      </trkpt>
      <trkpt lat="48.44747" lon="7.25748">
        <ele>844.3</ele>
        <time>2021-08-03T11:05:36Z</time>
      </trkpt>
      <trkpt lat="48.44747" lon="7.25749">
        <ele>844.4</ele>
        <time>2021-08-03T11:05:37Z</time>
      </trkpt>
      <trkpt lat="48.44745" lon="7.25754">
        <ele>845.1</ele>
        <time>2021-08-03T11:05:39Z</time>
      </trkpt>
      <trkpt lat="48.44745" lon="7.25756">
        <ele>845.2</ele>
        <time>2021-08-03T11:05:40Z</time>
      </trkpt>
      <trkpt lat="48.44745" lon="7.25758">
        <ele>845.4</ele>
        <time>2021-08-03T11:05:41Z</time>
      </trkpt>
      <trkpt lat="48.44745" lon="7.25759">
        <ele>845.6</ele>
        <time>2021-08-03T11:05:42Z</time>
      </trkpt>
      <trkpt lat="48.44746" lon="7.25761">
        <ele>845.8</ele>
        <time>2021-08-03T11:05:44Z</time>
      </trkpt>
      <trkpt lat="48.44746" lon="7.25763">
        <ele>846.1</ele>
        <time>2021-08-03T11:05:45Z</time>
      </trkpt>
      <trkpt lat="48.44747" lon="7.25766">
        <ele>846.5</ele>
        <time>2021-08-03T11:05:46Z</time>
      </trkpt>
      <trkpt lat="48.44747" lon="7.25768">
        <ele>846.7</ele>
        <time>2021-08-03T11:05:47Z</time>
      </trkpt>
      <trkpt lat="48.44747" lon="7.2577">
        <ele>846.9</ele>
        <time>2021-08-03T11:05:48Z</time>
      </trkpt>
      <trkpt lat="48.44748" lon="7.25772">
        <ele>847.2</ele>
        <time>2021-08-03T11:05:49Z</time>
      </trkpt>
      <trkpt lat="48.44749" lon="7.25777">
        <ele>847.8</ele>
        <time>2021-08-03T11:05:51Z</time>
      </trkpt>
      <trkpt lat="48.4475" lon="7.25779">
        <ele>848</ele>
        <time>2021-08-03T11:05:52Z</time>
      </trkpt>
      <trkpt lat="48.44751" lon="7.25781">
        <ele>848.3</ele>
        <time>2021-08-03T11:05:53Z</time>
      </trkpt>
      <trkpt lat="48.44752" lon="7.25785">
        <ele>848.8</ele>
        <time>2021-08-03T11:05:55Z</time>
      </trkpt>
      <trkpt lat="48.44753" lon="7.25786">
        <ele>848.9</ele>
        <time>2021-08-03T11:05:56Z</time>
      </trkpt>
      <trkpt lat="48.44753" lon="7.25788">
        <ele>849.2</ele>
        <time>2021-08-03T11:05:57Z</time>
      </trkpt>
      <trkpt lat="48.44754" lon="7.2579">
        <ele>849.4</ele>
        <time>2021-08-03T11:05:58Z</time>
      </trkpt>
      <trkpt lat="48.44754" lon="7.25793">
        <ele>849.8</ele>
        <time>2021-08-03T11:06:00Z</time>
      </trkpt>
      <trkpt lat="48.44754" lon="7.25795">
        <ele>850</ele>
        <time>2021-08-03T11:06:01Z</time>
      </trkpt>
      <trkpt lat="48.44755" lon="7.25796">
        <ele>850.1</ele>
        <time>2021-08-03T11:06:03Z</time>
      </trkpt>
      <trkpt lat="48.44755" lon="7.25797">
        <ele>850.2</ele>
        <time>2021-08-03T11:06:04Z</time>
      </trkpt>
      <trkpt lat="48.44755" lon="7.25798">
        <ele>850.4</ele>
        <time>2021-08-03T11:06:06Z</time>
      </trkpt>
      <trkpt lat="48.44755" lon="7.258">
        <ele>850.5</ele>
        <time>2021-08-03T11:06:07Z</time>
      </trkpt>
      <trkpt lat="48.44755" lon="7.25801">
        <ele>850.6</ele>
        <time>2021-08-03T11:06:08Z</time>
      </trkpt>
      <trkpt lat="48.44755" lon="7.25804">
        <ele>851</ele>
        <time>2021-08-03T11:06:10Z</time>
      </trkpt>
      <trkpt lat="48.44755" lon="7.25807">
        <ele>851.3</ele>
        <time>2021-08-03T11:06:12Z</time>
      </trkpt>
      <trkpt lat="48.44756" lon="7.25809">
        <ele>851.6</ele>
        <time>2021-08-03T11:06:13Z</time>
      </trkpt>
      <trkpt lat="48.44757" lon="7.25811">
        <ele>851.9</ele>
        <time>2021-08-03T11:06:16Z</time>
      </trkpt>
      <trkpt lat="48.44757" lon="7.25811">
        <ele>851.9</ele>
        <time>2021-08-03T11:06:17Z</time>
      </trkpt>
      <trkpt lat="48.44757" lon="7.25812">
        <ele>852</ele>
        <time>2021-08-03T11:06:18Z</time>
      </trkpt>
      <trkpt lat="48.44757" lon="7.25812">
        <ele>852</ele>
        <time>2021-08-03T11:06:20Z</time>
      </trkpt>
      <trkpt lat="48.44757" lon="7.25813">
        <ele>852.2</ele>
        <time>2021-08-03T11:06:22Z</time>
      </trkpt>
      <trkpt lat="48.44758" lon="7.25813">
        <ele>852.2</ele>
        <time>2021-08-03T11:06:23Z</time>
      </trkpt>
      <trkpt lat="48.44758" lon="7.25813">
        <ele>852.3</ele>
        <time>2021-08-03T11:06:24Z</time>
      </trkpt>
      <trkpt lat="48.44759" lon="7.25814">
        <ele>852.5</ele>
        <time>2021-08-03T11:06:25Z</time>
      </trkpt>
      <trkpt lat="48.4476" lon="7.25815">
        <ele>852.7</ele>
        <time>2021-08-03T11:06:27Z</time>
      </trkpt>
      <trkpt lat="48.4477" lon="7.25832">
        <ele>855.4</ele>
        <time>2021-08-03T11:06:38Z</time>
      </trkpt>
      <trkpt lat="48.44772" lon="7.25835">
        <ele>855.9</ele>
        <time>2021-08-03T11:06:40Z</time>
      </trkpt>
      <trkpt lat="48.44773" lon="7.25838">
        <ele>856.2</ele>
        <time>2021-08-03T11:06:41Z</time>
      </trkpt>
      <trkpt lat="48.44774" lon="7.25839">
        <ele>856.5</ele>
        <time>2021-08-03T11:06:42Z</time>
      </trkpt>
      <trkpt lat="48.44774" lon="7.25841">
        <ele>856.7</ele>
        <time>2021-08-03T11:06:44Z</time>
      </trkpt>
      <trkpt lat="48.44774" lon="7.25843">
        <ele>856.9</ele>
        <time>2021-08-03T11:06:45Z</time>
      </trkpt>
      <trkpt lat="48.44773" lon="7.25844">
        <ele>857.1</ele>
        <time>2021-08-03T11:06:46Z</time>
      </trkpt>
      <trkpt lat="48.44772" lon="7.25844">
        <ele>857.3</ele>
        <time>2021-08-03T11:06:47Z</time>
      </trkpt>
      <trkpt lat="48.44772" lon="7.25844">
        <ele>857.4</ele>
        <time>2021-08-03T11:06:49Z</time>
      </trkpt>
      <trkpt lat="48.44771" lon="7.25845">
        <ele>857.5</ele>
        <time>2021-08-03T11:06:50Z</time>
      </trkpt>
      <trkpt lat="48.44771" lon="7.25845">
        <ele>857.6</ele>
        <time>2021-08-03T11:06:51Z</time>
      </trkpt>
      <trkpt lat="48.44771" lon="7.25845">
        <ele>857.6</ele>
        <time>2021-08-03T11:06:53Z</time>
      </trkpt>
      <trkpt lat="48.44771" lon="7.25846">
        <ele>857.7</ele>
        <time>2021-08-03T11:06:54Z</time>
      </trkpt>
      <trkpt lat="48.44775" lon="7.25852">
        <ele>858.6</ele>
        <time>2021-08-03T11:06:55Z</time>
      </trkpt>
      <trkpt lat="48.44778" lon="7.25857">
        <ele>859.5</ele>
        <time>2021-08-03T11:06:57Z</time>
      </trkpt>
      <trkpt lat="48.44781" lon="7.25863">
        <ele>860.3</ele>
        <time>2021-08-03T11:07:15Z</time>
      </trkpt>
      <trkpt lat="48.44784" lon="7.25868">
        <ele>861.2</ele>
        <time>2021-08-03T11:07:16Z</time>
      </trkpt>
      <trkpt lat="48.44788" lon="7.25873">
        <ele>862</ele>
        <time>2021-08-03T11:07:17Z</time>
      </trkpt>
      <trkpt lat="48.44788" lon="7.25874">
        <ele>862.2</ele>
        <time>2021-08-03T11:07:19Z</time>
      </trkpt>
      <trkpt lat="48.44788" lon="7.25875">
        <ele>862.3</ele>
        <time>2021-08-03T11:07:20Z</time>
      </trkpt>
      <trkpt lat="48.44788" lon="7.25876">
        <ele>862.4</ele>
        <time>2021-08-03T11:07:21Z</time>
      </trkpt>
      <trkpt lat="48.44788" lon="7.25877">
        <ele>862.5</ele>
        <time>2021-08-03T11:07:23Z</time>
      </trkpt>
      <trkpt lat="48.44788" lon="7.25878">
        <ele>862.6</ele>
        <time>2021-08-03T11:07:24Z</time>
      </trkpt>
      <trkpt lat="48.44788" lon="7.25879">
        <ele>862.7</ele>
        <time>2021-08-03T11:07:25Z</time>
      </trkpt>
      <trkpt lat="48.44788" lon="7.2588">
        <ele>862.9</ele>
        <time>2021-08-03T11:07:27Z</time>
      </trkpt>
      <trkpt lat="48.448" lon="7.25928">
        <ele>869.2</ele>
        <time>2021-08-03T11:08:09Z</time>
      </trkpt>
      <trkpt lat="48.44802" lon="7.25931">
        <ele>869.8</ele>
        <time>2021-08-03T11:08:11Z</time>
      </trkpt>
      <trkpt lat="48.44804" lon="7.25935">
        <ele>870.3</ele>
        <time>2021-08-03T11:08:12Z</time>
      </trkpt>
      <trkpt lat="48.44805" lon="7.25937">
        <ele>870.6</ele>
        <time>2021-08-03T11:08:13Z</time>
      </trkpt>
      <trkpt lat="48.44806" lon="7.25939">
        <ele>870.9</ele>
        <time>2021-08-03T11:08:15Z</time>
      </trkpt>
      <trkpt lat="48.44806" lon="7.2594">
        <ele>871</ele>
        <time>2021-08-03T11:08:16Z</time>
      </trkpt>
      <trkpt lat="48.44806" lon="7.25941">
        <ele>871.1</ele>
        <time>2021-08-03T11:08:17Z</time>
      </trkpt>
      <trkpt lat="48.44807" lon="7.25943">
        <ele>871.3</ele>
        <time>2021-08-03T11:08:19Z</time>
      </trkpt>
      <trkpt lat="48.44807" lon="7.25945">
        <ele>871.7</ele>
        <time>2021-08-03T11:08:21Z</time>
      </trkpt>
      <trkpt lat="48.44806" lon="7.25948">
        <ele>871.9</ele>
        <time>2021-08-03T11:08:22Z</time>
      </trkpt>
      <trkpt lat="48.44806" lon="7.25951">
        <ele>872</ele>
        <time>2021-08-03T11:08:24Z</time>
      </trkpt>
      <trkpt lat="48.44796" lon="7.25973">
        <ele>873</ele>
        <time>2021-08-03T11:08:35Z</time>
      </trkpt>
      <trkpt lat="48.44795" lon="7.25978">
        <ele>873.5</ele>
        <time>2021-08-03T11:08:37Z</time>
      </trkpt>
      <trkpt lat="48.44794" lon="7.25982">
        <ele>873.9</ele>
        <time>2021-08-03T11:08:38Z</time>
      </trkpt>
      <trkpt lat="48.44793" lon="7.25983">
        <ele>874</ele>
        <time>2021-08-03T11:08:39Z</time>
      </trkpt>
      <trkpt lat="48.44793" lon="7.25986">
        <ele>874.2</ele>
        <time>2021-08-03T11:08:41Z</time>
      </trkpt>
      <trkpt lat="48.44795" lon="7.25991">
        <ele>874.7</ele>
        <time>2021-08-03T11:08:43Z</time>
      </trkpt>
      <trkpt lat="48.44797" lon="7.25994">
        <ele>875.1</ele>
        <time>2021-08-03T11:08:44Z</time>
      </trkpt>
      <trkpt lat="48.44798" lon="7.25996">
        <ele>875.3</ele>
        <time>2021-08-03T11:08:45Z</time>
      </trkpt>
      <trkpt lat="48.44798" lon="7.25998">
        <ele>875.5</ele>
        <time>2021-08-03T11:08:47Z</time>
      </trkpt>
      <trkpt lat="48.44798" lon="7.26">
        <ele>875.7</ele>
        <time>2021-08-03T11:08:49Z</time>
      </trkpt>
      <trkpt lat="48.44798" lon="7.26">
        <ele>875.7</ele>
        <time>2021-08-03T11:08:50Z</time>
      </trkpt>
      <trkpt lat="48.44798" lon="7.26001">
        <ele>875.7</ele>
        <time>2021-08-03T11:08:52Z</time>
      </trkpt>
      <trkpt lat="48.44799" lon="7.26001">
        <ele>875.8</ele>
        <time>2021-08-03T11:08:53Z</time>
      </trkpt>
      <trkpt lat="48.44799" lon="7.26002">
        <ele>875.9</ele>
        <time>2021-08-03T11:08:54Z</time>
      </trkpt>
      <trkpt lat="48.44799" lon="7.26003">
        <ele>875.9</ele>
        <time>2021-08-03T11:08:56Z</time>
      </trkpt>
      <trkpt lat="48.44799" lon="7.26004">
        <ele>876</ele>
        <time>2021-08-03T11:08:57Z</time>
      </trkpt>
      <trkpt lat="48.44805" lon="7.26025">
        <ele>877.7</ele>
        <time>2021-08-03T11:09:18Z</time>
      </trkpt>
      <trkpt lat="48.44807" lon="7.26029">
        <ele>878.1</ele>
        <time>2021-08-03T11:09:20Z</time>
      </trkpt>
      <trkpt lat="48.44808" lon="7.26033">
        <ele>878.4</ele>
        <time>2021-08-03T11:09:21Z</time>
      </trkpt>
      <trkpt lat="48.4481" lon="7.26035">
        <ele>878.6</ele>
        <time>2021-08-03T11:09:23Z</time>
      </trkpt>
      <trkpt lat="48.44811" lon="7.26037">
        <ele>878.8</ele>
        <time>2021-08-03T11:09:24Z</time>
      </trkpt>
      <trkpt lat="48.44813" lon="7.26039">
        <ele>879</ele>
        <time>2021-08-03T11:09:26Z</time>
      </trkpt>
      <trkpt lat="48.44815" lon="7.26039">
        <ele>879.3</ele>
        <time>2021-08-03T11:09:27Z</time>
      </trkpt>
      <trkpt lat="48.44818" lon="7.26039">
        <ele>879.6</ele>
        <time>2021-08-03T11:09:29Z</time>
      </trkpt>
      <trkpt lat="48.4482" lon="7.26038">
        <ele>879.8</ele>
        <time>2021-08-03T11:09:30Z</time>
      </trkpt>
      <trkpt lat="48.44823" lon="7.26038">
        <ele>880.1</ele>
        <time>2021-08-03T11:09:32Z</time>
      </trkpt>
      <trkpt lat="48.44825" lon="7.26039">
        <ele>880.3</ele>
        <time>2021-08-03T11:09:33Z</time>
      </trkpt>
      <trkpt lat="48.44826" lon="7.26039">
        <ele>880.4</ele>
        <time>2021-08-03T11:09:35Z</time>
      </trkpt>
      <trkpt lat="48.44827" lon="7.26039">
        <ele>880.4</ele>
        <time>2021-08-03T11:09:36Z</time>
      </trkpt>
      <trkpt lat="48.44828" lon="7.2604">
        <ele>880.5</ele>
        <time>2021-08-03T11:09:37Z</time>
      </trkpt>
      <trkpt lat="48.44828" lon="7.2604">
        <ele>880.6</ele>
        <time>2021-08-03T11:09:39Z</time>
      </trkpt>
      <trkpt lat="48.4483" lon="7.26041">
        <ele>880.7</ele>
        <time>2021-08-03T11:09:41Z</time>
      </trkpt>
      <trkpt lat="48.44831" lon="7.26042">
        <ele>880.9</ele>
        <time>2021-08-03T11:09:42Z</time>
      </trkpt>
      <trkpt lat="48.44832" lon="7.26043">
        <ele>881</ele>
        <time>2021-08-03T11:09:43Z</time>
      </trkpt>
      <trkpt lat="48.4484" lon="7.261">
        <ele>883.9</ele>
        <time>2021-08-03T11:10:29Z</time>
      </trkpt>
      <trkpt lat="48.44841" lon="7.26105">
        <ele>884.2</ele>
        <time>2021-08-03T11:10:32Z</time>
      </trkpt>
      <trkpt lat="48.44842" lon="7.26109">
        <ele>884.4</ele>
        <time>2021-08-03T11:10:33Z</time>
      </trkpt>
      <trkpt lat="48.44843" lon="7.26114">
        <ele>884.6</ele>
        <time>2021-08-03T11:10:34Z</time>
      </trkpt>
      <trkpt lat="48.44844" lon="7.26115">
        <ele>884.7</ele>
        <time>2021-08-03T11:10:35Z</time>
      </trkpt>
      <trkpt lat="48.44846" lon="7.26119">
        <ele>884.9</ele>
        <time>2021-08-03T11:10:37Z</time>
      </trkpt>
      <trkpt lat="48.44846" lon="7.2612">
        <ele>885</ele>
        <time>2021-08-03T11:10:38Z</time>
      </trkpt>
      <trkpt lat="48.44848" lon="7.26123">
        <ele>885.1</ele>
        <time>2021-08-03T11:10:40Z</time>
      </trkpt>
      <trkpt lat="48.44848" lon="7.26123">
        <ele>885.1</ele>
        <time>2021-08-03T11:10:41Z</time>
      </trkpt>
      <trkpt lat="48.44846" lon="7.26125">
        <ele>885.3</ele>
        <time>2021-08-03T11:10:42Z</time>
      </trkpt>
      <trkpt lat="48.44846" lon="7.26126">
        <ele>885.3</ele>
        <time>2021-08-03T11:10:43Z</time>
      </trkpt>
      <trkpt lat="48.44845" lon="7.26126">
        <ele>885.4</ele>
        <time>2021-08-03T11:10:44Z</time>
      </trkpt>
      <trkpt lat="48.44843" lon="7.26127">
        <ele>885.5</ele>
        <time>2021-08-03T11:10:45Z</time>
      </trkpt>
      <trkpt lat="48.44843" lon="7.26127">
        <ele>885.6</ele>
        <time>2021-08-03T11:10:47Z</time>
      </trkpt>
      <trkpt lat="48.44842" lon="7.26127">
        <ele>885.6</ele>
        <time>2021-08-03T11:10:48Z</time>
      </trkpt>
      <trkpt lat="48.4484" lon="7.26127">
        <ele>885.7</ele>
        <time>2021-08-03T11:10:49Z</time>
      </trkpt>
      <trkpt lat="48.4484" lon="7.26127">
        <ele>885.7</ele>
        <time>2021-08-03T11:10:50Z</time>
      </trkpt>
      <trkpt lat="48.4484" lon="7.26127">
        <ele>885.8</ele>
        <time>2021-08-03T11:10:51Z</time>
      </trkpt>
      <trkpt lat="48.44839" lon="7.26127">
        <ele>885.8</ele>
        <time>2021-08-03T11:10:53Z</time>
      </trkpt>
      <trkpt lat="48.44854" lon="7.26179">
        <ele>888.4</ele>
        <time>2021-08-03T11:11:22Z</time>
      </trkpt>
      <trkpt lat="48.44856" lon="7.2618">
        <ele>888.5</ele>
        <time>2021-08-03T11:11:24Z</time>
      </trkpt>
      <trkpt lat="48.44857" lon="7.26182">
        <ele>888.7</ele>
        <time>2021-08-03T11:11:25Z</time>
      </trkpt>
      <trkpt lat="48.44859" lon="7.26183">
        <ele>888.8</ele>
        <time>2021-08-03T11:11:26Z</time>
      </trkpt>
      <trkpt lat="48.4486" lon="7.26184">
        <ele>888.9</ele>
        <time>2021-08-03T11:11:27Z</time>
      </trkpt>
      <trkpt lat="48.44861" lon="7.26184">
        <ele>889</ele>
        <time>2021-08-03T11:11:28Z</time>
      </trkpt>
      <trkpt lat="48.44864" lon="7.26194">
        <ele>889.5</ele>
        <time>2021-08-03T11:11:29Z</time>
      </trkpt>
      <trkpt lat="48.44866" lon="7.26202">
        <ele>890</ele>
        <time>2021-08-03T11:11:30Z</time>
      </trkpt>
      <trkpt lat="48.44868" lon="7.26211">
        <ele>890.4</ele>
        <time>2021-08-03T11:11:32Z</time>
      </trkpt>
      <trkpt lat="48.44871" lon="7.2622">
        <ele>890.8</ele>
        <time>2021-08-03T11:11:33Z</time>
      </trkpt>
      <trkpt lat="48.44873" lon="7.26229">
        <ele>891.3</ele>
        <time>2021-08-03T11:11:35Z</time>
      </trkpt>
      <trkpt lat="48.44875" lon="7.26238">
        <ele>891.7</ele>
        <time>2021-08-03T11:12:04Z</time>
      </trkpt>
      <trkpt lat="48.44877" lon="7.26247">
        <ele>892.1</ele>
        <time>2021-08-03T11:12:05Z</time>
      </trkpt>
      <trkpt lat="48.44879" lon="7.26255">
        <ele>892.5</ele>
        <time>2021-08-03T11:12:06Z</time>
      </trkpt>
      <trkpt lat="48.44881" lon="7.2626">
        <ele>892.7</ele>
        <time>2021-08-03T11:12:07Z</time>
      </trkpt>
      <trkpt lat="48.44881" lon="7.26261">
        <ele>892.8</ele>
        <time>2021-08-03T11:12:08Z</time>
      </trkpt>
      <trkpt lat="48.44882" lon="7.26264">
        <ele>892.9</ele>
        <time>2021-08-03T11:12:09Z</time>
      </trkpt>
      <trkpt lat="48.44883" lon="7.26266">
        <ele>893</ele>
        <time>2021-08-03T11:12:11Z</time>
      </trkpt>
      <trkpt lat="48.44883" lon="7.26267">
        <ele>893.1</ele>
        <time>2021-08-03T11:12:12Z</time>
      </trkpt>
      <trkpt lat="48.44883" lon="7.26268">
        <ele>893.1</ele>
        <time>2021-08-03T11:12:13Z</time>
      </trkpt>
      <trkpt lat="48.44883" lon="7.26268">
        <ele>893.2</ele>
        <time>2021-08-03T11:12:14Z</time>
      </trkpt>
      <trkpt lat="48.44883" lon="7.26269">
        <ele>893.2</ele>
        <time>2021-08-03T11:12:15Z</time>
      </trkpt>
      <trkpt lat="48.44884" lon="7.2627">
        <ele>893.3</ele>
        <time>2021-08-03T11:12:17Z</time>
      </trkpt>
      <trkpt lat="48.44885" lon="7.26272">
        <ele>893.4</ele>
        <time>2021-08-03T11:12:19Z</time>
      </trkpt>
      <trkpt lat="48.44886" lon="7.26274">
        <ele>893.5</ele>
        <time>2021-08-03T11:12:21Z</time>
      </trkpt>
      <trkpt lat="48.44887" lon="7.26277">
        <ele>893.7</ele>
        <time>2021-08-03T11:12:22Z</time>
      </trkpt>
      <trkpt lat="48.44896" lon="7.26287">
        <ele>894.5</ele>
        <time>2021-08-03T11:12:29Z</time>
      </trkpt>
      <trkpt lat="48.44899" lon="7.26294">
        <ele>894.9</ele>
        <time>2021-08-03T11:12:30Z</time>
      </trkpt>
      <trkpt lat="48.449" lon="7.26299">
        <ele>895.2</ele>
        <time>2021-08-03T11:12:32Z</time>
      </trkpt>
      <trkpt lat="48.449" lon="7.263">
        <ele>895.3</ele>
        <time>2021-08-03T11:12:33Z</time>
      </trkpt>
      <trkpt lat="48.449" lon="7.26305">
        <ele>895.5</ele>
        <time>2021-08-03T11:12:34Z</time>
      </trkpt>
      <trkpt lat="48.449" lon="7.26306">
        <ele>895.5</ele>
        <time>2021-08-03T11:12:35Z</time>
      </trkpt>
      <trkpt lat="48.449" lon="7.2631">
        <ele>895.7</ele>
        <time>2021-08-03T11:12:37Z</time>
      </trkpt>
      <trkpt lat="48.449" lon="7.26314">
        <ele>895.9</ele>
        <time>2021-08-03T11:12:38Z</time>
      </trkpt>
      <trkpt lat="48.44901" lon="7.26318">
        <ele>896</ele>
        <time>2021-08-03T11:12:40Z</time>
      </trkpt>
      <trkpt lat="48.449" lon="7.26322">
        <ele>896.2</ele>
        <time>2021-08-03T11:12:42Z</time>
      </trkpt>
      <trkpt lat="48.44899" lon="7.26326">
        <ele>896.4</ele>
        <time>2021-08-03T11:12:43Z</time>
      </trkpt>
      <trkpt lat="48.44898" lon="7.2633">
        <ele>896.5</ele>
        <time>2021-08-03T11:12:45Z</time>
      </trkpt>
      <trkpt lat="48.44897" lon="7.26331">
        <ele>896.6</ele>
        <time>2021-08-03T11:12:46Z</time>
      </trkpt>
      <trkpt lat="48.44897" lon="7.26332">
        <ele>896.6</ele>
        <time>2021-08-03T11:12:47Z</time>
      </trkpt>
      <trkpt lat="48.44897" lon="7.26333">
        <ele>896.7</ele>
        <time>2021-08-03T11:12:48Z</time>
      </trkpt>
      <trkpt lat="48.44897" lon="7.26334">
        <ele>896.7</ele>
        <time>2021-08-03T11:12:49Z</time>
      </trkpt>
      <trkpt lat="48.44897" lon="7.26335">
        <ele>896.8</ele>
        <time>2021-08-03T11:12:50Z</time>
      </trkpt>
      <trkpt lat="48.44897" lon="7.26336">
        <ele>896.8</ele>
        <time>2021-08-03T11:12:51Z</time>
      </trkpt>
      <trkpt lat="48.44898" lon="7.26337">
        <ele>896.9</ele>
        <time>2021-08-03T11:12:53Z</time>
      </trkpt>
      <trkpt lat="48.44905" lon="7.26359">
        <ele>897.8</ele>
        <time>2021-08-03T11:13:02Z</time>
      </trkpt>
      <trkpt lat="48.44906" lon="7.26365">
        <ele>898</ele>
        <time>2021-08-03T11:13:04Z</time>
      </trkpt>
      <trkpt lat="48.44907" lon="7.2637">
        <ele>898.3</ele>
        <time>2021-08-03T11:13:05Z</time>
      </trkpt>
      <trkpt lat="48.44908" lon="7.26372">
        <ele>898.4</ele>
        <time>2021-08-03T11:13:06Z</time>
      </trkpt>
      <trkpt lat="48.44909" lon="7.26376">
        <ele>898.6</ele>
        <time>2021-08-03T11:13:07Z</time>
      </trkpt>
      <trkpt lat="48.4491" lon="7.26378">
        <ele>898.7</ele>
        <time>2021-08-03T11:13:09Z</time>
      </trkpt>
      <trkpt lat="48.44911" lon="7.2638">
        <ele>898.8</ele>
        <time>2021-08-03T11:13:10Z</time>
      </trkpt>
      <trkpt lat="48.44911" lon="7.26383">
        <ele>898.9</ele>
        <time>2021-08-03T11:13:11Z</time>
      </trkpt>
      <trkpt lat="48.44914" lon="7.26387">
        <ele>899.1</ele>
        <time>2021-08-03T11:13:12Z</time>
      </trkpt>
      <trkpt lat="48.44914" lon="7.26389">
        <ele>899.2</ele>
        <time>2021-08-03T11:13:13Z</time>
      </trkpt>
      <trkpt lat="48.44915" lon="7.26393">
        <ele>899.4</ele>
        <time>2021-08-03T11:13:14Z</time>
      </trkpt>
      <trkpt lat="48.44916" lon="7.26396">
        <ele>899.6</ele>
        <time>2021-08-03T11:13:15Z</time>
      </trkpt>
      <trkpt lat="48.44916" lon="7.26398">
        <ele>899.7</ele>
        <time>2021-08-03T11:13:17Z</time>
      </trkpt>
      <trkpt lat="48.44916" lon="7.264">
        <ele>899.8</ele>
        <time>2021-08-03T11:13:18Z</time>
      </trkpt>
      <trkpt lat="48.44916" lon="7.26404">
        <ele>900.1</ele>
        <time>2021-08-03T11:13:19Z</time>
      </trkpt>
      <trkpt lat="48.44917" lon="7.26409">
        <ele>900.4</ele>
        <time>2021-08-03T11:13:21Z</time>
      </trkpt>
      <trkpt lat="48.44918" lon="7.2641">
        <ele>900.5</ele>
        <time>2021-08-03T11:13:22Z</time>
      </trkpt>
      <trkpt lat="48.44918" lon="7.2641">
        <ele>900.6</ele>
        <time>2021-08-03T11:13:24Z</time>
      </trkpt>
      <trkpt lat="48.44919" lon="7.2641">
        <ele>900.7</ele>
        <time>2021-08-03T11:13:25Z</time>
      </trkpt>
      <trkpt lat="48.4492" lon="7.2641">
        <ele>900.8</ele>
        <time>2021-08-03T11:13:26Z</time>
      </trkpt>
      <trkpt lat="48.4492" lon="7.26411">
        <ele>900.8</ele>
        <time>2021-08-03T11:13:28Z</time>
      </trkpt>
      <trkpt lat="48.44921" lon="7.26412">
        <ele>901</ele>
        <time>2021-08-03T11:13:29Z</time>
      </trkpt>
      <trkpt lat="48.44922" lon="7.26414">
        <ele>901.1</ele>
        <time>2021-08-03T11:13:31Z</time>
      </trkpt>
      <trkpt lat="48.44921" lon="7.26414">
        <ele>901.2</ele>
        <time>2021-08-03T11:13:32Z</time>
      </trkpt>
      <trkpt lat="48.44921" lon="7.26415">
        <ele>901.3</ele>
        <time>2021-08-03T11:13:34Z</time>
      </trkpt>
      <trkpt lat="48.44921" lon="7.26417">
        <ele>901.4</ele>
        <time>2021-08-03T11:13:36Z</time>
      </trkpt>
      <trkpt lat="48.44921" lon="7.26417">
        <ele>901.4</ele>
        <time>2021-08-03T11:13:38Z</time>
      </trkpt>
      <trkpt lat="48.44921" lon="7.26417">
        <ele>901.4</ele>
        <time>2021-08-03T11:13:40Z</time>
      </trkpt>
      <trkpt lat="48.44915" lon="7.26436">
        <ele>903</ele>
        <time>2021-08-03T11:14:38Z</time>
      </trkpt>
      <trkpt lat="48.44917" lon="7.26439">
        <ele>903.2</ele>
        <time>2021-08-03T11:14:39Z</time>
      </trkpt>
      <trkpt lat="48.44918" lon="7.26441">
        <ele>903.4</ele>
        <time>2021-08-03T11:14:40Z</time>
      </trkpt>
      <trkpt lat="48.44919" lon="7.26443">
        <ele>903.5</ele>
        <time>2021-08-03T11:14:42Z</time>
      </trkpt>
      <trkpt lat="48.4492" lon="7.26444">
        <ele>903.6</ele>
        <time>2021-08-03T11:14:43Z</time>
      </trkpt>
      <trkpt lat="48.44921" lon="7.26445">
        <ele>903.7</ele>
        <time>2021-08-03T11:14:44Z</time>
      </trkpt>
      <trkpt lat="48.44921" lon="7.26445">
        <ele>903.7</ele>
        <time>2021-08-03T11:14:45Z</time>
      </trkpt>
      <trkpt lat="48.44922" lon="7.26447">
        <ele>903.8</ele>
        <time>2021-08-03T11:14:47Z</time>
      </trkpt>
      <trkpt lat="48.44923" lon="7.26449">
        <ele>903.9</ele>
        <time>2021-08-03T11:14:48Z</time>
      </trkpt>
      <trkpt lat="48.44924" lon="7.26452">
        <ele>904.1</ele>
        <time>2021-08-03T11:14:50Z</time>
      </trkpt>
      <trkpt lat="48.44925" lon="7.26453">
        <ele>904.1</ele>
        <time>2021-08-03T11:14:51Z</time>
      </trkpt>
      <trkpt lat="48.44925" lon="7.26456">
        <ele>904.3</ele>
        <time>2021-08-03T11:14:52Z</time>
      </trkpt>
      <trkpt lat="48.44927" lon="7.26459">
        <ele>904.4</ele>
        <time>2021-08-03T11:14:54Z</time>
      </trkpt>
      <trkpt lat="48.44927" lon="7.2646">
        <ele>904.5</ele>
        <time>2021-08-03T11:14:55Z</time>
      </trkpt>
      <trkpt lat="48.44928" lon="7.26464">
        <ele>904.6</ele>
        <time>2021-08-03T11:14:56Z</time>
      </trkpt>
      <trkpt lat="48.44928" lon="7.26465">
        <ele>904.7</ele>
        <time>2021-08-03T11:14:57Z</time>
      </trkpt>
      <trkpt lat="48.44927" lon="7.26466">
        <ele>904.7</ele>
        <time>2021-08-03T11:14:59Z</time>
      </trkpt>
      <trkpt lat="48.44927" lon="7.26467">
        <ele>904.8</ele>
        <time>2021-08-03T11:15:00Z</time>
      </trkpt>
      <trkpt lat="48.44926" lon="7.26468">
        <ele>904.9</ele>
        <time>2021-08-03T11:15:01Z</time>
      </trkpt>
      <trkpt lat="48.44926" lon="7.26469">
        <ele>904.9</ele>
        <time>2021-08-03T11:15:02Z</time>
      </trkpt>
      <trkpt lat="48.44925" lon="7.2647">
        <ele>905</ele>
        <time>2021-08-03T11:15:03Z</time>
      </trkpt>
      <trkpt lat="48.44925" lon="7.26472">
        <ele>905.1</ele>
        <time>2021-08-03T11:15:05Z</time>
      </trkpt>
      <trkpt lat="48.44925" lon="7.26472">
        <ele>905.1</ele>
        <time>2021-08-03T11:15:06Z</time>
      </trkpt>
      <trkpt lat="48.44925" lon="7.26473">
        <ele>905.2</ele>
        <time>2021-08-03T11:15:07Z</time>
      </trkpt>
      <trkpt lat="48.44926" lon="7.26473">
        <ele>905.2</ele>
        <time>2021-08-03T11:15:09Z</time>
      </trkpt>
      <trkpt lat="48.44927" lon="7.26474">
        <ele>905.3</ele>
        <time>2021-08-03T11:15:10Z</time>
      </trkpt>
      <trkpt lat="48.44928" lon="7.26475">
        <ele>905.4</ele>
        <time>2021-08-03T11:15:11Z</time>
      </trkpt>
      <trkpt lat="48.44936" lon="7.26533">
        <ele>908.6</ele>
        <time>2021-08-03T11:15:55Z</time>
      </trkpt>
      <trkpt lat="48.44936" lon="7.26538">
        <ele>908.8</ele>
        <time>2021-08-03T11:15:57Z</time>
      </trkpt>
      <trkpt lat="48.44937" lon="7.26541">
        <ele>908.9</ele>
        <time>2021-08-03T11:15:58Z</time>
      </trkpt>
      <trkpt lat="48.44937" lon="7.26543">
        <ele>908.9</ele>
        <time>2021-08-03T11:15:59Z</time>
      </trkpt>
      <trkpt lat="48.44937" lon="7.26549">
        <ele>909.1</ele>
        <time>2021-08-03T11:16:01Z</time>
      </trkpt>
      <trkpt lat="48.44937" lon="7.26551">
        <ele>909.2</ele>
        <time>2021-08-03T11:16:02Z</time>
      </trkpt>
      <trkpt lat="48.44937" lon="7.26553">
        <ele>909.3</ele>
        <time>2021-08-03T11:16:03Z</time>
      </trkpt>
      <trkpt lat="48.44937" lon="7.26556">
        <ele>909.4</ele>
        <time>2021-08-03T11:16:04Z</time>
      </trkpt>
      <trkpt lat="48.44937" lon="7.26558">
        <ele>909.4</ele>
        <time>2021-08-03T11:16:05Z</time>
      </trkpt>
      <trkpt lat="48.44938" lon="7.2656">
        <ele>909.5</ele>
        <time>2021-08-03T11:16:07Z</time>
      </trkpt>
      <trkpt lat="48.44938" lon="7.26562">
        <ele>909.6</ele>
        <time>2021-08-03T11:16:08Z</time>
      </trkpt>
      <trkpt lat="48.44941" lon="7.26566">
        <ele>909.9</ele>
        <time>2021-08-03T11:16:09Z</time>
      </trkpt>
      <trkpt lat="48.44942" lon="7.26568">
        <ele>910</ele>
        <time>2021-08-03T11:16:10Z</time>
      </trkpt>
      <trkpt lat="48.44943" lon="7.2657">
        <ele>910.1</ele>
        <time>2021-08-03T11:16:12Z</time>
      </trkpt>
      <trkpt lat="48.44945" lon="7.26575">
        <ele>910.4</ele>
        <time>2021-08-03T11:16:14Z</time>
      </trkpt>
      <trkpt lat="48.44948" lon="7.26578">
        <ele>910.6</ele>
        <time>2021-08-03T11:16:15Z</time>
      </trkpt>
      <trkpt lat="48.4495" lon="7.26582">
        <ele>910.8</ele>
        <time>2021-08-03T11:16:17Z</time>
      </trkpt>
      <trkpt lat="48.4495" lon="7.26583">
        <ele>910.9</ele>
        <time>2021-08-03T11:16:18Z</time>
      </trkpt>
      <trkpt lat="48.44951" lon="7.26585">
        <ele>911</ele>
        <time>2021-08-03T11:16:19Z</time>
      </trkpt>
      <trkpt lat="48.44951" lon="7.26588">
        <ele>911.1</ele>
        <time>2021-08-03T11:16:20Z</time>
      </trkpt>
      <trkpt lat="48.44952" lon="7.26592">
        <ele>911.3</ele>
        <time>2021-08-03T11:16:21Z</time>
      </trkpt>
      <trkpt lat="48.44952" lon="7.26597">
        <ele>911.5</ele>
        <time>2021-08-03T11:16:23Z</time>
      </trkpt>
      <trkpt lat="48.44953" lon="7.26598">
        <ele>911.6</ele>
        <time>2021-08-03T11:16:24Z</time>
      </trkpt>
      <trkpt lat="48.44954" lon="7.26602">
        <ele>911.8</ele>
        <time>2021-08-03T11:16:25Z</time>
      </trkpt>
      <trkpt lat="48.44955" lon="7.26603">
        <ele>911.8</ele>
        <time>2021-08-03T11:16:26Z</time>
      </trkpt>
      <trkpt lat="48.44956" lon="7.26607">
        <ele>912</ele>
        <time>2021-08-03T11:16:28Z</time>
      </trkpt>
      <trkpt lat="48.44957" lon="7.26611">
        <ele>912.2</ele>
        <time>2021-08-03T11:16:29Z</time>
      </trkpt>
      <trkpt lat="48.44958" lon="7.26618">
        <ele>912.5</ele>
        <time>2021-08-03T11:16:30Z</time>
      </trkpt>
      <trkpt lat="48.44958" lon="7.26621">
        <ele>912.7</ele>
        <time>2021-08-03T11:16:31Z</time>
      </trkpt>
      <trkpt lat="48.44959" lon="7.26624">
        <ele>912.8</ele>
        <time>2021-08-03T11:16:33Z</time>
      </trkpt>
      <trkpt lat="48.4496" lon="7.26627">
        <ele>913</ele>
        <time>2021-08-03T11:16:35Z</time>
      </trkpt>
      <trkpt lat="48.4496" lon="7.26628">
        <ele>913.1</ele>
        <time>2021-08-03T11:16:36Z</time>
      </trkpt>
      <trkpt lat="48.4496" lon="7.26632">
        <ele>913.2</ele>
        <time>2021-08-03T11:16:38Z</time>
      </trkpt>
      <trkpt lat="48.4496" lon="7.26635">
        <ele>913.4</ele>
        <time>2021-08-03T11:16:39Z</time>
      </trkpt>
      <trkpt lat="48.4496" lon="7.26638">
        <ele>913.5</ele>
        <time>2021-08-03T11:16:41Z</time>
      </trkpt>
      <trkpt lat="48.4496" lon="7.2664">
        <ele>913.6</ele>
        <time>2021-08-03T11:16:43Z</time>
      </trkpt>
      <trkpt lat="48.4496" lon="7.26641">
        <ele>913.7</ele>
        <time>2021-08-03T11:16:44Z</time>
      </trkpt>
      <trkpt lat="48.4496" lon="7.26643">
        <ele>913.8</ele>
        <time>2021-08-03T11:16:46Z</time>
      </trkpt>
      <trkpt lat="48.4496" lon="7.26643">
        <ele>913.8</ele>
        <time>2021-08-03T11:16:47Z</time>
      </trkpt>
      <trkpt lat="48.4496" lon="7.26643">
        <ele>913.8</ele>
        <time>2021-08-03T11:16:48Z</time>
      </trkpt>
      <trkpt lat="48.4496" lon="7.26644">
        <ele>913.8</ele>
        <time>2021-08-03T11:16:49Z</time>
      </trkpt>
      <trkpt lat="48.4496" lon="7.26644">
        <ele>913.8</ele>
        <time>2021-08-03T11:16:50Z</time>
      </trkpt>
      <trkpt lat="48.4496" lon="7.26643">
        <ele>913.9</ele>
        <time>2021-08-03T11:16:52Z</time>
      </trkpt>
      <trkpt lat="48.44959" lon="7.26643">
        <ele>914</ele>
        <time>2021-08-03T11:16:54Z</time>
      </trkpt>
      <trkpt lat="48.44958" lon="7.26643">
        <ele>914</ele>
        <time>2021-08-03T11:16:55Z</time>
      </trkpt>
      <trkpt lat="48.44957" lon="7.26642">
        <ele>914.1</ele>
        <time>2021-08-03T11:16:56Z</time>
      </trkpt>
      <trkpt lat="48.44957" lon="7.26642">
        <ele>914.2</ele>
        <time>2021-08-03T11:16:58Z</time>
      </trkpt>
      <trkpt lat="48.44956" lon="7.26643">
        <ele>914.2</ele>
        <time>2021-08-03T11:17:00Z</time>
      </trkpt>
      <trkpt lat="48.44963" lon="7.26706">
        <ele>917.5</ele>
        <time>2021-08-03T11:17:41Z</time>
      </trkpt>
      <trkpt lat="48.44966" lon="7.26709">
        <ele>917.8</ele>
        <time>2021-08-03T11:17:42Z</time>
      </trkpt>
      <trkpt lat="48.44968" lon="7.26714">
        <ele>918.2</ele>
        <time>2021-08-03T11:17:44Z</time>
      </trkpt>
      <trkpt lat="48.44969" lon="7.26715">
        <ele>918.3</ele>
        <time>2021-08-03T11:17:45Z</time>
      </trkpt>
      <trkpt lat="48.44972" lon="7.26719">
        <ele>918.6</ele>
        <time>2021-08-03T11:17:46Z</time>
      </trkpt>
      <trkpt lat="48.44974" lon="7.26722">
        <ele>919</ele>
        <time>2021-08-03T11:17:48Z</time>
      </trkpt>
      <trkpt lat="48.44975" lon="7.26724">
        <ele>919.1</ele>
        <time>2021-08-03T11:17:49Z</time>
      </trkpt>
      <trkpt lat="48.44977" lon="7.26726">
        <ele>919.3</ele>
        <time>2021-08-03T11:17:50Z</time>
      </trkpt>
      <trkpt lat="48.44977" lon="7.26728">
        <ele>919.4</ele>
        <time>2021-08-03T11:17:52Z</time>
      </trkpt>
      <trkpt lat="48.44978" lon="7.26729">
        <ele>919.5</ele>
        <time>2021-08-03T11:17:53Z</time>
      </trkpt>
      <trkpt lat="48.44979" lon="7.2673">
        <ele>919.6</ele>
        <time>2021-08-03T11:17:54Z</time>
      </trkpt>
      <trkpt lat="48.44978" lon="7.26731">
        <ele>919.7</ele>
        <time>2021-08-03T11:17:56Z</time>
      </trkpt>
      <trkpt lat="48.44978" lon="7.26732">
        <ele>919.8</ele>
        <time>2021-08-03T11:17:57Z</time>
      </trkpt>
      <trkpt lat="48.44978" lon="7.26734">
        <ele>919.9</ele>
        <time>2021-08-03T11:17:58Z</time>
      </trkpt>
      <trkpt lat="48.44978" lon="7.26735">
        <ele>919.9</ele>
        <time>2021-08-03T11:18:00Z</time>
      </trkpt>
      <trkpt lat="48.44979" lon="7.26736">
        <ele>920</ele>
        <time>2021-08-03T11:18:01Z</time>
      </trkpt>
      <trkpt lat="48.44979" lon="7.26737">
        <ele>920.1</ele>
        <time>2021-08-03T11:18:02Z</time>
      </trkpt>
      <trkpt lat="48.4498" lon="7.26738">
        <ele>920.2</ele>
        <time>2021-08-03T11:18:03Z</time>
      </trkpt>
      <trkpt lat="48.44992" lon="7.26893">
        <ele>929.5</ele>
        <time>2021-08-03T11:20:03Z</time>
      </trkpt>
      <trkpt lat="48.44993" lon="7.26897">
        <ele>929.8</ele>
        <time>2021-08-03T11:20:04Z</time>
      </trkpt>
      <trkpt lat="48.44995" lon="7.26902">
        <ele>930</ele>
        <time>2021-08-03T11:20:06Z</time>
      </trkpt>
      <trkpt lat="48.44995" lon="7.26903">
        <ele>930.1</ele>
        <time>2021-08-03T11:20:07Z</time>
      </trkpt>
      <trkpt lat="48.44996" lon="7.26905">
        <ele>930.2</ele>
        <time>2021-08-03T11:20:08Z</time>
      </trkpt>
      <trkpt lat="48.44997" lon="7.26906">
        <ele>930.3</ele>
        <time>2021-08-03T11:20:10Z</time>
      </trkpt>
      <trkpt lat="48.44998" lon="7.26908">
        <ele>930.4</ele>
        <time>2021-08-03T11:20:11Z</time>
      </trkpt>
      <trkpt lat="48.44999" lon="7.2691">
        <ele>930.5</ele>
        <time>2021-08-03T11:20:12Z</time>
      </trkpt>
      <trkpt lat="48.45" lon="7.26912">
        <ele>930.6</ele>
        <time>2021-08-03T11:20:13Z</time>
      </trkpt>
      <trkpt lat="48.45" lon="7.26914">
        <ele>930.7</ele>
        <time>2021-08-03T11:20:15Z</time>
      </trkpt>
      <trkpt lat="48.45" lon="7.26915">
        <ele>930.8</ele>
        <time>2021-08-03T11:20:16Z</time>
      </trkpt>
      <trkpt lat="48.45008" lon="7.26909">
        <ele>931.3</ele>
        <time>2021-08-03T11:20:40Z</time>
      </trkpt>
      <trkpt lat="48.45008" lon="7.26913">
        <ele>931.5</ele>
        <time>2021-08-03T11:20:42Z</time>
      </trkpt>
      <trkpt lat="48.45008" lon="7.26917">
        <ele>931.6</ele>
        <time>2021-08-03T11:20:44Z</time>
      </trkpt>
      <trkpt lat="48.45008" lon="7.26923">
        <ele>931.9</ele>
        <time>2021-08-03T11:20:45Z</time>
      </trkpt>
      <trkpt lat="48.45008" lon="7.26927">
        <ele>932</ele>
        <time>2021-08-03T11:20:46Z</time>
      </trkpt>
      <trkpt lat="48.45008" lon="7.26933">
        <ele>932.2</ele>
        <time>2021-08-03T11:20:48Z</time>
      </trkpt>
      <trkpt lat="48.45008" lon="7.26935">
        <ele>932.3</ele>
        <time>2021-08-03T11:20:49Z</time>
      </trkpt>
      <trkpt lat="48.45007" lon="7.26939">
        <ele>932.5</ele>
        <time>2021-08-03T11:20:50Z</time>
      </trkpt>
      <trkpt lat="48.45007" lon="7.26943">
        <ele>932.6</ele>
        <time>2021-08-03T11:20:52Z</time>
      </trkpt>
      <trkpt lat="48.45006" lon="7.2695">
        <ele>932.9</ele>
        <time>2021-08-03T11:20:53Z</time>
      </trkpt>
      <trkpt lat="48.45006" lon="7.26953">
        <ele>933</ele>
        <time>2021-08-03T11:20:54Z</time>
      </trkpt>
      <trkpt lat="48.45005" lon="7.26957">
        <ele>933.1</ele>
        <time>2021-08-03T11:20:55Z</time>
      </trkpt>
      <trkpt lat="48.45004" lon="7.26961">
        <ele>933.3</ele>
        <time>2021-08-03T11:20:57Z</time>
      </trkpt>
      <trkpt lat="48.45003" lon="7.26967">
        <ele>933.5</ele>
        <time>2021-08-03T11:20:58Z</time>
      </trkpt>
      <trkpt lat="48.45002" lon="7.2697">
        <ele>933.6</ele>
        <time>2021-08-03T11:20:59Z</time>
      </trkpt>
      <trkpt lat="48.45001" lon="7.26974">
        <ele>933.7</ele>
        <time>2021-08-03T11:21:00Z</time>
      </trkpt>
      <trkpt lat="48.45001" lon="7.26977">
        <ele>933.9</ele>
        <time>2021-08-03T11:21:02Z</time>
      </trkpt>
      <trkpt lat="48.45" lon="7.26979">
        <ele>933.9</ele>
        <time>2021-08-03T11:21:03Z</time>
      </trkpt>
      <trkpt lat="48.45" lon="7.26981">
        <ele>934</ele>
        <time>2021-08-03T11:21:04Z</time>
      </trkpt>
      <trkpt lat="48.44999" lon="7.26985">
        <ele>934.2</ele>
        <time>2021-08-03T11:21:05Z</time>
      </trkpt>
      <trkpt lat="48.44998" lon="7.26987">
        <ele>934.2</ele>
        <time>2021-08-03T11:21:06Z</time>
      </trkpt>
      <trkpt lat="48.44998" lon="7.26987">
        <ele>934.3</ele>
        <time>2021-08-03T11:21:07Z</time>
      </trkpt>
      <trkpt lat="48.44997" lon="7.26989">
        <ele>934.3</ele>
        <time>2021-08-03T11:21:08Z</time>
      </trkpt>
      <trkpt lat="48.44997" lon="7.2699">
        <ele>934.4</ele>
        <time>2021-08-03T11:21:10Z</time>
      </trkpt>
      <trkpt lat="48.44996" lon="7.26991">
        <ele>934.4</ele>
        <time>2021-08-03T11:21:11Z</time>
      </trkpt>
      <trkpt lat="48.44996" lon="7.26994">
        <ele>934.5</ele>
        <time>2021-08-03T11:21:13Z</time>
      </trkpt>
      <trkpt lat="48.44995" lon="7.26995">
        <ele>934.6</ele>
        <time>2021-08-03T11:21:14Z</time>
      </trkpt>
      <trkpt lat="48.44995" lon="7.26997">
        <ele>934.7</ele>
        <time>2021-08-03T11:21:15Z</time>
      </trkpt>
      <trkpt lat="48.44994" lon="7.26999">
        <ele>934.8</ele>
        <time>2021-08-03T11:21:17Z</time>
      </trkpt>
      <trkpt lat="48.44994" lon="7.27">
        <ele>934.8</ele>
        <time>2021-08-03T11:21:18Z</time>
      </trkpt>
      <trkpt lat="48.44993" lon="7.27001">
        <ele>934.9</ele>
        <time>2021-08-03T11:21:19Z</time>
      </trkpt>
      <trkpt lat="48.44993" lon="7.27003">
        <ele>934.9</ele>
        <time>2021-08-03T11:21:20Z</time>
      </trkpt>
      <trkpt lat="48.44993" lon="7.27005">
        <ele>935</ele>
        <time>2021-08-03T11:21:21Z</time>
      </trkpt>
      <trkpt lat="48.44992" lon="7.27017">
        <ele>935.5</ele>
        <time>2021-08-03T11:21:27Z</time>
      </trkpt>
      <trkpt lat="48.44992" lon="7.2702">
        <ele>935.7</ele>
        <time>2021-08-03T11:21:28Z</time>
      </trkpt>
      <trkpt lat="48.44992" lon="7.27023">
        <ele>935.8</ele>
        <time>2021-08-03T11:21:30Z</time>
      </trkpt>
      <trkpt lat="48.44993" lon="7.27029">
        <ele>936.1</ele>
        <time>2021-08-03T11:21:31Z</time>
      </trkpt>
      <trkpt lat="48.44993" lon="7.2703">
        <ele>936.2</ele>
        <time>2021-08-03T11:21:32Z</time>
      </trkpt>
      <trkpt lat="48.44994" lon="7.27033">
        <ele>936.3</ele>
        <time>2021-08-03T11:21:33Z</time>
      </trkpt>
      <trkpt lat="48.44994" lon="7.27036">
        <ele>936.4</ele>
        <time>2021-08-03T11:21:35Z</time>
      </trkpt>
      <trkpt lat="48.44994" lon="7.27039">
        <ele>936.6</ele>
        <time>2021-08-03T11:21:36Z</time>
      </trkpt>
      <trkpt lat="48.44993" lon="7.27042">
        <ele>936.8</ele>
        <time>2021-08-03T11:21:38Z</time>
      </trkpt>
      <trkpt lat="48.44992" lon="7.27044">
        <ele>936.9</ele>
        <time>2021-08-03T11:21:39Z</time>
      </trkpt>
      <trkpt lat="48.44992" lon="7.27046">
        <ele>937</ele>
        <time>2021-08-03T11:21:40Z</time>
      </trkpt>
      <trkpt lat="48.44991" lon="7.27047">
        <ele>937.1</ele>
        <time>2021-08-03T11:21:41Z</time>
      </trkpt>
      <trkpt lat="48.44991" lon="7.2705">
        <ele>937.2</ele>
        <time>2021-08-03T11:21:42Z</time>
      </trkpt>
      <trkpt lat="48.4499" lon="7.27053">
        <ele>937.4</ele>
        <time>2021-08-03T11:21:44Z</time>
      </trkpt>
      <trkpt lat="48.44989" lon="7.27055">
        <ele>937.5</ele>
        <time>2021-08-03T11:21:46Z</time>
      </trkpt>
      <trkpt lat="48.44989" lon="7.27056">
        <ele>937.6</ele>
        <time>2021-08-03T11:21:47Z</time>
      </trkpt>
      <trkpt lat="48.44988" lon="7.27058">
        <ele>937.7</ele>
        <time>2021-08-03T11:21:48Z</time>
      </trkpt>
      <trkpt lat="48.44987" lon="7.27061">
        <ele>937.9</ele>
        <time>2021-08-03T11:21:49Z</time>
      </trkpt>
      <trkpt lat="48.44986" lon="7.27062">
        <ele>938</ele>
        <time>2021-08-03T11:21:51Z</time>
      </trkpt>
      <trkpt lat="48.44986" lon="7.27064">
        <ele>938.1</ele>
        <time>2021-08-03T11:21:52Z</time>
      </trkpt>
      <trkpt lat="48.44986" lon="7.27065">
        <ele>938.2</ele>
        <time>2021-08-03T11:21:53Z</time>
      </trkpt>
      <trkpt lat="48.44986" lon="7.27067">
        <ele>938.3</ele>
        <time>2021-08-03T11:21:54Z</time>
      </trkpt>
      <trkpt lat="48.44986" lon="7.27071">
        <ele>938.5</ele>
        <time>2021-08-03T11:21:56Z</time>
      </trkpt>
      <trkpt lat="48.44987" lon="7.27072">
        <ele>938.6</ele>
        <time>2021-08-03T11:21:57Z</time>
      </trkpt>
      <trkpt lat="48.44988" lon="7.27075">
        <ele>938.7</ele>
        <time>2021-08-03T11:21:59Z</time>
      </trkpt>
      <trkpt lat="48.44988" lon="7.27075">
        <ele>938.8</ele>
        <time>2021-08-03T11:22:00Z</time>
      </trkpt>
      <trkpt lat="48.44988" lon="7.27075">
        <ele>938.8</ele>
        <time>2021-08-03T11:22:02Z</time>
      </trkpt>
      <trkpt lat="48.44989" lon="7.27076">
        <ele>938.8</ele>
        <time>2021-08-03T11:22:03Z</time>
      </trkpt>
      <trkpt lat="48.44989" lon="7.27077">
        <ele>938.9</ele>
        <time>2021-08-03T11:22:05Z</time>
      </trkpt>
      <trkpt lat="48.44989" lon="7.27078">
        <ele>938.9</ele>
        <time>2021-08-03T11:22:06Z</time>
      </trkpt>
      <trkpt lat="48.4499" lon="7.27079">
        <ele>939</ele>
        <time>2021-08-03T11:22:08Z</time>
      </trkpt>
      <trkpt lat="48.4499" lon="7.2708">
        <ele>939.1</ele>
        <time>2021-08-03T11:22:09Z</time>
      </trkpt>
      <trkpt lat="48.44993" lon="7.27108">
        <ele>940.6</ele>
        <time>2021-08-03T11:22:23Z</time>
      </trkpt>
      <trkpt lat="48.44993" lon="7.27112">
        <ele>940.8</ele>
        <time>2021-08-03T11:22:24Z</time>
      </trkpt>
      <trkpt lat="48.44993" lon="7.27115">
        <ele>940.9</ele>
        <time>2021-08-03T11:22:26Z</time>
      </trkpt>
      <trkpt lat="48.44991" lon="7.27119">
        <ele>941.2</ele>
        <time>2021-08-03T11:22:27Z</time>
      </trkpt>
      <trkpt lat="48.44991" lon="7.27119">
        <ele>941.2</ele>
        <time>2021-08-03T11:22:28Z</time>
      </trkpt>
      <trkpt lat="48.4499" lon="7.27121">
        <ele>941.3</ele>
        <time>2021-08-03T11:22:29Z</time>
      </trkpt>
      <trkpt lat="48.44989" lon="7.27122">
        <ele>941.4</ele>
        <time>2021-08-03T11:22:31Z</time>
      </trkpt>
      <trkpt lat="48.44988" lon="7.27123">
        <ele>941.5</ele>
        <time>2021-08-03T11:22:32Z</time>
      </trkpt>
      <trkpt lat="48.44988" lon="7.27124">
        <ele>941.6</ele>
        <time>2021-08-03T11:22:33Z</time>
      </trkpt>
      <trkpt lat="48.44987" lon="7.27124">
        <ele>941.6</ele>
        <time>2021-08-03T11:22:35Z</time>
      </trkpt>
      <trkpt lat="48.44987" lon="7.27124">
        <ele>941.7</ele>
        <time>2021-08-03T11:22:36Z</time>
      </trkpt>
      <trkpt lat="48.44986" lon="7.27125">
        <ele>941.7</ele>
        <time>2021-08-03T11:22:37Z</time>
      </trkpt>
      <trkpt lat="48.44986" lon="7.27125">
        <ele>941.8</ele>
        <time>2021-08-03T11:22:39Z</time>
      </trkpt>
      <trkpt lat="48.44986" lon="7.27125">
        <ele>941.8</ele>
        <time>2021-08-03T11:22:40Z</time>
      </trkpt>
      <trkpt lat="48.44985" lon="7.27125">
        <ele>941.8</ele>
        <time>2021-08-03T11:22:41Z</time>
      </trkpt>
      <trkpt lat="48.44985" lon="7.27126">
        <ele>941.9</ele>
        <time>2021-08-03T11:22:43Z</time>
      </trkpt>
      <trkpt lat="48.44984" lon="7.27127">
        <ele>941.9</ele>
        <time>2021-08-03T11:22:44Z</time>
      </trkpt>
      <trkpt lat="48.44984" lon="7.27127">
        <ele>942</ele>
        <time>2021-08-03T11:22:45Z</time>
      </trkpt>
      <trkpt lat="48.44969" lon="7.2717">
        <ele>944.9</ele>
        <time>2021-08-03T11:23:19Z</time>
      </trkpt>
      <trkpt lat="48.44968" lon="7.27172">
        <ele>945.1</ele>
        <time>2021-08-03T11:23:21Z</time>
      </trkpt>
      <trkpt lat="48.44968" lon="7.27174">
        <ele>945.2</ele>
        <time>2021-08-03T11:23:22Z</time>
      </trkpt>
      <trkpt lat="48.44968" lon="7.27176">
        <ele>945.3</ele>
        <time>2021-08-03T11:23:23Z</time>
      </trkpt>
      <trkpt lat="48.44968" lon="7.27177">
        <ele>945.3</ele>
        <time>2021-08-03T11:23:25Z</time>
      </trkpt>
      <trkpt lat="48.44968" lon="7.27178">
        <ele>945.3</ele>
        <time>2021-08-03T11:23:26Z</time>
      </trkpt>
      <trkpt lat="48.44969" lon="7.27179">
        <ele>945.4</ele>
        <time>2021-08-03T11:23:27Z</time>
      </trkpt>
      <trkpt lat="48.44969" lon="7.27181">
        <ele>945.5</ele>
        <time>2021-08-03T11:23:29Z</time>
      </trkpt>
      <trkpt lat="48.4497" lon="7.27182">
        <ele>945.6</ele>
        <time>2021-08-03T11:23:30Z</time>
      </trkpt>
      <trkpt lat="48.4497" lon="7.27184">
        <ele>945.7</ele>
        <time>2021-08-03T11:23:32Z</time>
      </trkpt>
      <trkpt lat="48.4497" lon="7.27186">
        <ele>945.7</ele>
        <time>2021-08-03T11:23:33Z</time>
      </trkpt>
      <trkpt lat="48.4497" lon="7.27188">
        <ele>945.8</ele>
        <time>2021-08-03T11:23:34Z</time>
      </trkpt>
      <trkpt lat="48.4497" lon="7.2719">
        <ele>946</ele>
        <time>2021-08-03T11:23:36Z</time>
      </trkpt>
      <trkpt lat="48.44956" lon="7.27351">
        <ele>953.8</ele>
        <time>2021-08-03T11:25:43Z</time>
      </trkpt>
      <trkpt lat="48.44955" lon="7.27353">
        <ele>953.9</ele>
        <time>2021-08-03T11:25:45Z</time>
      </trkpt>
      <trkpt lat="48.44954" lon="7.27355">
        <ele>954</ele>
        <time>2021-08-03T11:25:46Z</time>
      </trkpt>
      <trkpt lat="48.44953" lon="7.27357">
        <ele>954.1</ele>
        <time>2021-08-03T11:25:48Z</time>
      </trkpt>
      <trkpt lat="48.44951" lon="7.27358">
        <ele>954.1</ele>
        <time>2021-08-03T11:25:49Z</time>
      </trkpt>
      <trkpt lat="48.4495" lon="7.27361">
        <ele>954.2</ele>
        <time>2021-08-03T11:25:51Z</time>
      </trkpt>
      <trkpt lat="48.44949" lon="7.27362">
        <ele>954.3</ele>
        <time>2021-08-03T11:25:52Z</time>
      </trkpt>
      <trkpt lat="48.44949" lon="7.27363">
        <ele>954.3</ele>
        <time>2021-08-03T11:25:53Z</time>
      </trkpt>
      <trkpt lat="48.44948" lon="7.27365">
        <ele>954.4</ele>
        <time>2021-08-03T11:25:55Z</time>
      </trkpt>
      <trkpt lat="48.44947" lon="7.27367">
        <ele>954.5</ele>
        <time>2021-08-03T11:25:56Z</time>
      </trkpt>
      <trkpt lat="48.44944" lon="7.27415">
        <ele>957</ele>
        <time>2021-08-03T11:26:22Z</time>
      </trkpt>
      <trkpt lat="48.44943" lon="7.2742">
        <ele>957.2</ele>
        <time>2021-08-03T11:26:23Z</time>
      </trkpt>
      <trkpt lat="48.44943" lon="7.27426">
        <ele>957.5</ele>
        <time>2021-08-03T11:26:25Z</time>
      </trkpt>
      <trkpt lat="48.44942" lon="7.27428">
        <ele>957.6</ele>
        <time>2021-08-03T11:26:26Z</time>
      </trkpt>
      <trkpt lat="48.44941" lon="7.27433">
        <ele>957.9</ele>
        <time>2021-08-03T11:26:27Z</time>
      </trkpt>
      <trkpt lat="48.4494" lon="7.27435">
        <ele>958</ele>
        <time>2021-08-03T11:26:29Z</time>
      </trkpt>
      <trkpt lat="48.4494" lon="7.27436">
        <ele>958.1</ele>
        <time>2021-08-03T11:26:30Z</time>
      </trkpt>
      <trkpt lat="48.44939" lon="7.27438">
        <ele>958.2</ele>
        <time>2021-08-03T11:26:31Z</time>
      </trkpt>
      <trkpt lat="48.44939" lon="7.2744">
        <ele>958.3</ele>
        <time>2021-08-03T11:26:33Z</time>
      </trkpt>
      <trkpt lat="48.44939" lon="7.27441">
        <ele>958.3</ele>
        <time>2021-08-03T11:26:34Z</time>
      </trkpt>
      <trkpt lat="48.44939" lon="7.2744">
        <ele>958.4</ele>
        <time>2021-08-03T11:26:35Z</time>
      </trkpt>
      <trkpt lat="48.44939" lon="7.27438">
        <ele>958.5</ele>
        <time>2021-08-03T11:26:37Z</time>
      </trkpt>
      <trkpt lat="48.44939" lon="7.27437">
        <ele>958.5</ele>
        <time>2021-08-03T11:26:38Z</time>
      </trkpt>
      <trkpt lat="48.44939" lon="7.27437">
        <ele>958.6</ele>
        <time>2021-08-03T11:26:40Z</time>
      </trkpt>
      <trkpt lat="48.44939" lon="7.27436">
        <ele>958.6</ele>
        <time>2021-08-03T11:26:41Z</time>
      </trkpt>
      <trkpt lat="48.44938" lon="7.27435">
        <ele>958.7</ele>
        <time>2021-08-03T11:26:42Z</time>
      </trkpt>
      <trkpt lat="48.44938" lon="7.27435">
        <ele>958.7</ele>
        <time>2021-08-03T11:26:43Z</time>
      </trkpt>
      <trkpt lat="48.44937" lon="7.27435">
        <ele>958.8</ele>
        <time>2021-08-03T11:26:45Z</time>
      </trkpt>
      <trkpt lat="48.44936" lon="7.27436">
        <ele>958.9</ele>
        <time>2021-08-03T11:26:46Z</time>
      </trkpt>
      <trkpt lat="48.44935" lon="7.27443">
        <ele>959.3</ele>
        <time>2021-08-03T11:26:48Z</time>
      </trkpt>
      <trkpt lat="48.44934" lon="7.27449">
        <ele>959.6</ele>
        <time>2021-08-03T11:26:57Z</time>
      </trkpt>
      <trkpt lat="48.44933" lon="7.27455">
        <ele>960</ele>
        <time>2021-08-03T11:26:59Z</time>
      </trkpt>
      <trkpt lat="48.44933" lon="7.27461">
        <ele>960.4</ele>
        <time>2021-08-03T11:27:00Z</time>
      </trkpt>
      <trkpt lat="48.44932" lon="7.27467">
        <ele>960.7</ele>
        <time>2021-08-03T11:27:01Z</time>
      </trkpt>
      <trkpt lat="48.44933" lon="7.27472">
        <ele>961</ele>
        <time>2021-08-03T11:27:03Z</time>
      </trkpt>
      <trkpt lat="48.44933" lon="7.27473">
        <ele>961.1</ele>
        <time>2021-08-03T11:27:04Z</time>
      </trkpt>
      <trkpt lat="48.44933" lon="7.27476">
        <ele>961.3</ele>
        <time>2021-08-03T11:27:06Z</time>
      </trkpt>
      <trkpt lat="48.44934" lon="7.27478">
        <ele>961.4</ele>
        <time>2021-08-03T11:27:07Z</time>
      </trkpt>
      <trkpt lat="48.44934" lon="7.27479">
        <ele>961.5</ele>
        <time>2021-08-03T11:27:09Z</time>
      </trkpt>
      <trkpt lat="48.44935" lon="7.2748">
        <ele>961.5</ele>
        <time>2021-08-03T11:27:11Z</time>
      </trkpt>
      <trkpt lat="48.44935" lon="7.27481">
        <ele>961.6</ele>
        <time>2021-08-03T11:27:12Z</time>
      </trkpt>
      <trkpt lat="48.44936" lon="7.27482">
        <ele>961.7</ele>
        <time>2021-08-03T11:27:13Z</time>
      </trkpt>
      <trkpt lat="48.44936" lon="7.27484">
        <ele>961.8</ele>
        <time>2021-08-03T11:27:15Z</time>
      </trkpt>
      <trkpt lat="48.44935" lon="7.27486">
        <ele>961.9</ele>
        <time>2021-08-03T11:27:17Z</time>
      </trkpt>
      <trkpt lat="48.44934" lon="7.27487">
        <ele>962</ele>
        <time>2021-08-03T11:27:18Z</time>
      </trkpt>
      <trkpt lat="48.44934" lon="7.27501">
        <ele>962.6</ele>
        <time>2021-08-03T11:27:19Z</time>
      </trkpt>
      <trkpt lat="48.44935" lon="7.27513">
        <ele>963</ele>
        <time>2021-08-03T11:27:21Z</time>
      </trkpt>
      <trkpt lat="48.44936" lon="7.27525">
        <ele>963.4</ele>
        <time>2021-08-03T11:27:56Z</time>
      </trkpt>
      <trkpt lat="48.44937" lon="7.27537">
        <ele>963.7</ele>
        <time>2021-08-03T11:27:58Z</time>
      </trkpt>
      <trkpt lat="48.44938" lon="7.27549">
        <ele>964.1</ele>
        <time>2021-08-03T11:27:59Z</time>
      </trkpt>
      <trkpt lat="48.44936" lon="7.27551">
        <ele>964.2</ele>
        <time>2021-08-03T11:28:00Z</time>
      </trkpt>
      <trkpt lat="48.44934" lon="7.27554">
        <ele>964.3</ele>
        <time>2021-08-03T11:28:02Z</time>
      </trkpt>
      <trkpt lat="48.4493" lon="7.27557">
        <ele>964.4</ele>
        <time>2021-08-03T11:28:03Z</time>
      </trkpt>
      <trkpt lat="48.44928" lon="7.27558">
        <ele>964.5</ele>
        <time>2021-08-03T11:28:04Z</time>
      </trkpt>
      <trkpt lat="48.44927" lon="7.27559">
        <ele>964.6</ele>
        <time>2021-08-03T11:28:06Z</time>
      </trkpt>
      <trkpt lat="48.44926" lon="7.27561">
        <ele>964.7</ele>
        <time>2021-08-03T11:28:07Z</time>
      </trkpt>
      <trkpt lat="48.44925" lon="7.27562">
        <ele>964.8</ele>
        <time>2021-08-03T11:28:08Z</time>
      </trkpt>
      <trkpt lat="48.44923" lon="7.27565">
        <ele>964.9</ele>
        <time>2021-08-03T11:28:09Z</time>
      </trkpt>
      <trkpt lat="48.44922" lon="7.27567">
        <ele>964.9</ele>
        <time>2021-08-03T11:28:10Z</time>
      </trkpt>
      <trkpt lat="48.44922" lon="7.27569">
        <ele>965</ele>
        <time>2021-08-03T11:28:12Z</time>
      </trkpt>
      <trkpt lat="48.44923" lon="7.2757">
        <ele>965.1</ele>
        <time>2021-08-03T11:28:13Z</time>
      </trkpt>
      <trkpt lat="48.44924" lon="7.27571">
        <ele>965.1</ele>
        <time>2021-08-03T11:28:15Z</time>
      </trkpt>
      <trkpt lat="48.44924" lon="7.27572">
        <ele>965.2</ele>
        <time>2021-08-03T11:28:16Z</time>
      </trkpt>
      <trkpt lat="48.44925" lon="7.27573">
        <ele>965.2</ele>
        <time>2021-08-03T11:28:17Z</time>
      </trkpt>
      <trkpt lat="48.44926" lon="7.27574">
        <ele>965.2</ele>
        <time>2021-08-03T11:28:18Z</time>
      </trkpt>
      <trkpt lat="48.44926" lon="7.27575">
        <ele>965.3</ele>
        <time>2021-08-03T11:28:19Z</time>
      </trkpt>
      <trkpt lat="48.44926" lon="7.27577">
        <ele>965.3</ele>
        <time>2021-08-03T11:28:21Z</time>
      </trkpt>
      <trkpt lat="48.44927" lon="7.27578">
        <ele>965.4</ele>
        <time>2021-08-03T11:28:22Z</time>
      </trkpt>
      <trkpt lat="48.44927" lon="7.27578">
        <ele>965.4</ele>
        <time>2021-08-03T11:28:23Z</time>
      </trkpt>
      <trkpt lat="48.44928" lon="7.27579">
        <ele>965.4</ele>
        <time>2021-08-03T11:28:25Z</time>
      </trkpt>
      <trkpt lat="48.44933" lon="7.2762">
        <ele>967</ele>
        <time>2021-08-03T11:28:48Z</time>
      </trkpt>
      <trkpt lat="48.44931" lon="7.2762">
        <ele>967.1</ele>
        <time>2021-08-03T11:28:49Z</time>
      </trkpt>
      <trkpt lat="48.44931" lon="7.27621">
        <ele>967.1</ele>
        <time>2021-08-03T11:28:51Z</time>
      </trkpt>
      <trkpt lat="48.4493" lon="7.27621">
        <ele>967.2</ele>
        <time>2021-08-03T11:28:52Z</time>
      </trkpt>
      <trkpt lat="48.4493" lon="7.27621">
        <ele>967.2</ele>
        <time>2021-08-03T11:28:53Z</time>
      </trkpt>
      <trkpt lat="48.44929" lon="7.27622">
        <ele>967.2</ele>
        <time>2021-08-03T11:28:55Z</time>
      </trkpt>
      <trkpt lat="48.44929" lon="7.27622">
        <ele>967.2</ele>
        <time>2021-08-03T11:28:56Z</time>
      </trkpt>
      <trkpt lat="48.4493" lon="7.27624">
        <ele>967.3</ele>
        <time>2021-08-03T11:28:57Z</time>
      </trkpt>
      <trkpt lat="48.44931" lon="7.27625">
        <ele>967.3</ele>
        <time>2021-08-03T11:28:59Z</time>
      </trkpt>
      <trkpt lat="48.44938" lon="7.27641">
        <ele>967.9</ele>
        <time>2021-08-03T11:29:08Z</time>
      </trkpt>
      <trkpt lat="48.44938" lon="7.27645">
        <ele>968</ele>
        <time>2021-08-03T11:29:09Z</time>
      </trkpt>
      <trkpt lat="48.44936" lon="7.27649">
        <ele>968</ele>
        <time>2021-08-03T11:29:11Z</time>
      </trkpt>
      <trkpt lat="48.44935" lon="7.27651">
        <ele>968</ele>
        <time>2021-08-03T11:29:12Z</time>
      </trkpt>
      <trkpt lat="48.44935" lon="7.27652">
        <ele>968.1</ele>
        <time>2021-08-03T11:29:13Z</time>
      </trkpt>
      <trkpt lat="48.44933" lon="7.27656">
        <ele>968.1</ele>
        <time>2021-08-03T11:29:15Z</time>
      </trkpt>
      <trkpt lat="48.44932" lon="7.27657">
        <ele>968.1</ele>
        <time>2021-08-03T11:29:16Z</time>
      </trkpt>
      <trkpt lat="48.44932" lon="7.27658">
        <ele>968.1</ele>
        <time>2021-08-03T11:29:17Z</time>
      </trkpt>
      <trkpt lat="48.4493" lon="7.27661">
        <ele>968.2</ele>
        <time>2021-08-03T11:29:19Z</time>
      </trkpt>
      <trkpt lat="48.4493" lon="7.2766">
        <ele>968.2</ele>
        <time>2021-08-03T11:29:20Z</time>
      </trkpt>
      <trkpt lat="48.4493" lon="7.27661">
        <ele>968.2</ele>
        <time>2021-08-03T11:29:21Z</time>
      </trkpt>
      <trkpt lat="48.4493" lon="7.27662">
        <ele>968.2</ele>
        <time>2021-08-03T11:29:23Z</time>
      </trkpt>
      <trkpt lat="48.4493" lon="7.27663">
        <ele>968.2</ele>
        <time>2021-08-03T11:29:24Z</time>
      </trkpt>
      <trkpt lat="48.44931" lon="7.27665">
        <ele>968.2</ele>
        <time>2021-08-03T11:29:25Z</time>
      </trkpt>
      <trkpt lat="48.44931" lon="7.27667">
        <ele>968.3</ele>
        <time>2021-08-03T11:29:27Z</time>
      </trkpt>
      <trkpt lat="48.44934" lon="7.2769">
        <ele>968.7</ele>
        <time>2021-08-03T11:29:37Z</time>
      </trkpt>
      <trkpt lat="48.44934" lon="7.27691">
        <ele>968.7</ele>
        <time>2021-08-03T11:29:38Z</time>
      </trkpt>
      <trkpt lat="48.44934" lon="7.27693">
        <ele>968.7</ele>
        <time>2021-08-03T11:29:40Z</time>
      </trkpt>
      <trkpt lat="48.44934" lon="7.27695">
        <ele>968.8</ele>
        <time>2021-08-03T11:29:41Z</time>
      </trkpt>
      <trkpt lat="48.44934" lon="7.27696">
        <ele>968.8</ele>
        <time>2021-08-03T11:29:42Z</time>
      </trkpt>
      <trkpt lat="48.44933" lon="7.27697">
        <ele>968.8</ele>
        <time>2021-08-03T11:29:44Z</time>
      </trkpt>
      <trkpt lat="48.44933" lon="7.27698">
        <ele>968.8</ele>
        <time>2021-08-03T11:29:45Z</time>
      </trkpt>
      <trkpt lat="48.44933" lon="7.27698">
        <ele>968.9</ele>
        <time>2021-08-03T11:29:46Z</time>
      </trkpt>
      <trkpt lat="48.44933" lon="7.27699">
        <ele>968.9</ele>
        <time>2021-08-03T11:29:48Z</time>
      </trkpt>
      <trkpt lat="48.44932" lon="7.277">
        <ele>968.9</ele>
        <time>2021-08-03T11:29:49Z</time>
      </trkpt>
      <trkpt lat="48.44932" lon="7.27701">
        <ele>968.9</ele>
        <time>2021-08-03T11:29:50Z</time>
      </trkpt>
      <trkpt lat="48.44922" lon="7.27761">
        <ele>970.2</ele>
        <time>2021-08-03T11:30:26Z</time>
      </trkpt>
      <trkpt lat="48.44923" lon="7.27764">
        <ele>970.2</ele>
        <time>2021-08-03T11:30:28Z</time>
      </trkpt>
      <trkpt lat="48.44923" lon="7.27766">
        <ele>970.2</ele>
        <time>2021-08-03T11:30:29Z</time>
      </trkpt>
      <trkpt lat="48.44923" lon="7.27768">
        <ele>970.2</ele>
        <time>2021-08-03T11:30:30Z</time>
      </trkpt>
      <trkpt lat="48.44923" lon="7.27773">
        <ele>970.3</ele>
        <time>2021-08-03T11:30:32Z</time>
      </trkpt>
      <trkpt lat="48.44923" lon="7.27778">
        <ele>970.3</ele>
        <time>2021-08-03T11:30:33Z</time>
      </trkpt>
      <trkpt lat="48.44922" lon="7.27779">
        <ele>970.3</ele>
        <time>2021-08-03T11:30:34Z</time>
      </trkpt>
      <trkpt lat="48.44921" lon="7.27782">
        <ele>970.3</ele>
        <time>2021-08-03T11:30:35Z</time>
      </trkpt>
      <trkpt lat="48.4492" lon="7.27784">
        <ele>970.3</ele>
        <time>2021-08-03T11:30:37Z</time>
      </trkpt>
      <trkpt lat="48.4492" lon="7.27785">
        <ele>970.3</ele>
        <time>2021-08-03T11:30:38Z</time>
      </trkpt>
      <trkpt lat="48.44918" lon="7.27787">
        <ele>970.2</ele>
        <time>2021-08-03T11:30:39Z</time>
      </trkpt>
      <trkpt lat="48.44916" lon="7.2779">
        <ele>970.2</ele>
        <time>2021-08-03T11:30:41Z</time>
      </trkpt>
      <trkpt lat="48.44916" lon="7.27791">
        <ele>970.2</ele>
        <time>2021-08-03T11:30:42Z</time>
      </trkpt>
      <trkpt lat="48.44915" lon="7.27792">
        <ele>970.2</ele>
        <time>2021-08-03T11:30:43Z</time>
      </trkpt>
      <trkpt lat="48.44913" lon="7.27794">
        <ele>970.2</ele>
        <time>2021-08-03T11:30:44Z</time>
      </trkpt>
      <trkpt lat="48.44911" lon="7.27795">
        <ele>970.2</ele>
        <time>2021-08-03T11:30:46Z</time>
      </trkpt>
      <trkpt lat="48.4491" lon="7.27796">
        <ele>970.2</ele>
        <time>2021-08-03T11:30:47Z</time>
      </trkpt>
      <trkpt lat="48.44907" lon="7.27797">
        <ele>970.1</ele>
        <time>2021-08-03T11:30:49Z</time>
      </trkpt>
      <trkpt lat="48.44905" lon="7.27799">
        <ele>970.1</ele>
        <time>2021-08-03T11:30:51Z</time>
      </trkpt>
      <trkpt lat="48.44903" lon="7.27799">
        <ele>970</ele>
        <time>2021-08-03T11:30:53Z</time>
      </trkpt>
      <trkpt lat="48.44903" lon="7.27799">
        <ele>970</ele>
        <time>2021-08-03T11:30:54Z</time>
      </trkpt>
      <trkpt lat="48.44903" lon="7.278">
        <ele>970</ele>
        <time>2021-08-03T11:30:55Z</time>
      </trkpt>
      <trkpt lat="48.44902" lon="7.27801">
        <ele>970</ele>
        <time>2021-08-03T11:30:57Z</time>
      </trkpt>
      <trkpt lat="48.44902" lon="7.27802">
        <ele>970</ele>
        <time>2021-08-03T11:30:58Z</time>
      </trkpt>
      <trkpt lat="48.44902" lon="7.27802">
        <ele>970</ele>
        <time>2021-08-03T11:30:59Z</time>
      </trkpt>
      <trkpt lat="48.44901" lon="7.27803">
        <ele>970</ele>
        <time>2021-08-03T11:31:01Z</time>
      </trkpt>
      <trkpt lat="48.44899" lon="7.27805">
        <ele>969.9</ele>
        <time>2021-08-03T11:31:03Z</time>
      </trkpt>
      <trkpt lat="48.44897" lon="7.27806">
        <ele>969.9</ele>
        <time>2021-08-03T11:31:04Z</time>
      </trkpt>
      <trkpt lat="48.44895" lon="7.27808">
        <ele>969.8</ele>
        <time>2021-08-03T11:31:06Z</time>
      </trkpt>
      <trkpt lat="48.44892" lon="7.2781">
        <ele>969.8</ele>
        <time>2021-08-03T11:31:07Z</time>
      </trkpt>
      <trkpt lat="48.4489" lon="7.27811">
        <ele>969.7</ele>
        <time>2021-08-03T11:31:09Z</time>
      </trkpt>
      <trkpt lat="48.44889" lon="7.27812">
        <ele>969.7</ele>
        <time>2021-08-03T11:31:10Z</time>
      </trkpt>
      <trkpt lat="48.44883" lon="7.27818">
        <ele>969.5</ele>
        <time>2021-08-03T11:31:12Z</time>
      </trkpt>
      <trkpt lat="48.44878" lon="7.27822">
        <ele>969.4</ele>
        <time>2021-08-03T11:31:13Z</time>
      </trkpt>
      <trkpt lat="48.44872" lon="7.27828">
        <ele>969.2</ele>
        <time>2021-08-03T11:31:15Z</time>
      </trkpt>
      <trkpt lat="48.44868" lon="7.27833">
        <ele>969.1</ele>
        <time>2021-08-03T11:31:16Z</time>
      </trkpt>
      <trkpt lat="48.44864" lon="7.27835">
        <ele>969</ele>
        <time>2021-08-03T11:31:18Z</time>
      </trkpt>
      <trkpt lat="48.44861" lon="7.27839">
        <ele>969</ele>
        <time>2021-08-03T11:31:19Z</time>
      </trkpt>
      <trkpt lat="48.44859" lon="7.27841">
        <ele>968.9</ele>
        <time>2021-08-03T11:31:20Z</time>
      </trkpt>
      <trkpt lat="48.44857" lon="7.27844">
        <ele>968.9</ele>
        <time>2021-08-03T11:31:21Z</time>
      </trkpt>
      <trkpt lat="48.44855" lon="7.27847">
        <ele>968.9</ele>
        <time>2021-08-03T11:31:23Z</time>
      </trkpt>
      <trkpt lat="48.44851" lon="7.2785">
        <ele>968.8</ele>
        <time>2021-08-03T11:31:24Z</time>
      </trkpt>
      <trkpt lat="48.44847" lon="7.27855">
        <ele>969.4</ele>
        <time>2021-08-03T11:31:26Z</time>
      </trkpt>
      <trkpt lat="48.44846" lon="7.27857">
        <ele>969.5</ele>
        <time>2021-08-03T11:31:27Z</time>
      </trkpt>
      <trkpt lat="48.44844" lon="7.27858">
        <ele>969.6</ele>
        <time>2021-08-03T11:31:28Z</time>
      </trkpt>
      <trkpt lat="48.44842" lon="7.27861">
        <ele>969.8</ele>
        <time>2021-08-03T11:31:29Z</time>
      </trkpt>
      <trkpt lat="48.44839" lon="7.27863">
        <ele>970</ele>
        <time>2021-08-03T11:31:30Z</time>
      </trkpt>
      <trkpt lat="48.44836" lon="7.27864">
        <ele>970.2</ele>
        <time>2021-08-03T11:31:31Z</time>
      </trkpt>
      <trkpt lat="48.44832" lon="7.27867">
        <ele>970.5</ele>
        <time>2021-08-03T11:31:32Z</time>
      </trkpt>
      <trkpt lat="48.44829" lon="7.27869">
        <ele>970.8</ele>
        <time>2021-08-03T11:31:34Z</time>
      </trkpt>
      <trkpt lat="48.44828" lon="7.2787">
        <ele>970.8</ele>
        <time>2021-08-03T11:31:35Z</time>
      </trkpt>
      <trkpt lat="48.44827" lon="7.27875">
        <ele>971</ele>
        <time>2021-08-03T11:31:37Z</time>
      </trkpt>
      <trkpt lat="48.44826" lon="7.27877">
        <ele>971.2</ele>
        <time>2021-08-03T11:31:38Z</time>
      </trkpt>
      <trkpt lat="48.44825" lon="7.27879">
        <ele>971.3</ele>
        <time>2021-08-03T11:31:39Z</time>
      </trkpt>
      <trkpt lat="48.44824" lon="7.27881">
        <ele>971.4</ele>
        <time>2021-08-03T11:31:40Z</time>
      </trkpt>
      <trkpt lat="48.44822" lon="7.27883">
        <ele>971.6</ele>
        <time>2021-08-03T11:31:42Z</time>
      </trkpt>
      <trkpt lat="48.44819" lon="7.27888">
        <ele>971.9</ele>
        <time>2021-08-03T11:31:44Z</time>
      </trkpt>
      <trkpt lat="48.44818" lon="7.27889">
        <ele>972</ele>
        <time>2021-08-03T11:31:45Z</time>
      </trkpt>
      <trkpt lat="48.44817" lon="7.2789">
        <ele>972.1</ele>
        <time>2021-08-03T11:31:46Z</time>
      </trkpt>
      <trkpt lat="48.44814" lon="7.27894">
        <ele>972.3</ele>
        <time>2021-08-03T11:31:48Z</time>
      </trkpt>
      <trkpt lat="48.44813" lon="7.27894">
        <ele>972.4</ele>
        <time>2021-08-03T11:31:49Z</time>
      </trkpt>
      <trkpt lat="48.44811" lon="7.27896">
        <ele>972.5</ele>
        <time>2021-08-03T11:31:50Z</time>
      </trkpt>
      <trkpt lat="48.4481" lon="7.279">
        <ele>972.7</ele>
        <time>2021-08-03T11:31:52Z</time>
      </trkpt>
      <trkpt lat="48.44807" lon="7.27905">
        <ele>973</ele>
        <time>2021-08-03T11:31:54Z</time>
      </trkpt>
      <trkpt lat="48.44806" lon="7.27907">
        <ele>973.1</ele>
        <time>2021-08-03T11:31:55Z</time>
      </trkpt>
      <trkpt lat="48.44805" lon="7.27908">
        <ele>973.2</ele>
        <time>2021-08-03T11:31:56Z</time>
      </trkpt>
      <trkpt lat="48.44802" lon="7.27911">
        <ele>973.5</ele>
        <time>2021-08-03T11:31:58Z</time>
      </trkpt>
      <trkpt lat="48.448" lon="7.27915">
        <ele>973.7</ele>
        <time>2021-08-03T11:31:59Z</time>
      </trkpt>
      <trkpt lat="48.44799" lon="7.27916">
        <ele>973.7</ele>
        <time>2021-08-03T11:32:00Z</time>
      </trkpt>
      <trkpt lat="48.44798" lon="7.27921">
        <ele>974</ele>
        <time>2021-08-03T11:32:01Z</time>
      </trkpt>
      <trkpt lat="48.44797" lon="7.27926">
        <ele>974.3</ele>
        <time>2021-08-03T11:32:03Z</time>
      </trkpt>
      <trkpt lat="48.44797" lon="7.27928">
        <ele>974.4</ele>
        <time>2021-08-03T11:32:04Z</time>
      </trkpt>
      <trkpt lat="48.44796" lon="7.27932">
        <ele>974.6</ele>
        <time>2021-08-03T11:32:05Z</time>
      </trkpt>
      <trkpt lat="48.44796" lon="7.27934">
        <ele>974.7</ele>
        <time>2021-08-03T11:32:06Z</time>
      </trkpt>
      <trkpt lat="48.44794" lon="7.27937">
        <ele>975</ele>
        <time>2021-08-03T11:32:07Z</time>
      </trkpt>
      <trkpt lat="48.44792" lon="7.27943">
        <ele>975.4</ele>
        <time>2021-08-03T11:32:09Z</time>
      </trkpt>
      <trkpt lat="48.44792" lon="7.27945">
        <ele>975.5</ele>
        <time>2021-08-03T11:32:10Z</time>
      </trkpt>
      <trkpt lat="48.44791" lon="7.27946">
        <ele>975.6</ele>
        <time>2021-08-03T11:32:11Z</time>
      </trkpt>
      <trkpt lat="48.4479" lon="7.27951">
        <ele>975.9</ele>
        <time>2021-08-03T11:32:12Z</time>
      </trkpt>
      <trkpt lat="48.4479" lon="7.27953">
        <ele>976</ele>
        <time>2021-08-03T11:32:13Z</time>
      </trkpt>
      <trkpt lat="48.44789" lon="7.27958">
        <ele>976.3</ele>
        <time>2021-08-03T11:32:15Z</time>
      </trkpt>
      <trkpt lat="48.44789" lon="7.27959">
        <ele>976.4</ele>
        <time>2021-08-03T11:32:16Z</time>
      </trkpt>
      <trkpt lat="48.44788" lon="7.2796">
        <ele>976.6</ele>
        <time>2021-08-03T11:32:17Z</time>
      </trkpt>
      <trkpt lat="48.44787" lon="7.27962">
        <ele>976.7</ele>
        <time>2021-08-03T11:32:18Z</time>
      </trkpt>
      <trkpt lat="48.44785" lon="7.27965">
        <ele>977</ele>
        <time>2021-08-03T11:32:19Z</time>
      </trkpt>
      <trkpt lat="48.44785" lon="7.27967">
        <ele>977.1</ele>
        <time>2021-08-03T11:32:21Z</time>
      </trkpt>
      <trkpt lat="48.44784" lon="7.27969">
        <ele>977.2</ele>
        <time>2021-08-03T11:32:22Z</time>
      </trkpt>
      <trkpt lat="48.44783" lon="7.2797">
        <ele>977.3</ele>
        <time>2021-08-03T11:32:23Z</time>
      </trkpt>
      <trkpt lat="48.44782" lon="7.27975">
        <ele>977.6</ele>
        <time>2021-08-03T11:32:24Z</time>
      </trkpt>
      <trkpt lat="48.44781" lon="7.27977">
        <ele>977.7</ele>
        <time>2021-08-03T11:32:25Z</time>
      </trkpt>
      <trkpt lat="48.4478" lon="7.27981">
        <ele>978</ele>
        <time>2021-08-03T11:32:27Z</time>
      </trkpt>
      <trkpt lat="48.44779" lon="7.27982">
        <ele>978.1</ele>
        <time>2021-08-03T11:32:28Z</time>
      </trkpt>
      <trkpt lat="48.44778" lon="7.27984">
        <ele>978.2</ele>
        <time>2021-08-03T11:32:29Z</time>
      </trkpt>
      <trkpt lat="48.44775" lon="7.27988">
        <ele>978.5</ele>
        <time>2021-08-03T11:32:31Z</time>
      </trkpt>
      <trkpt lat="48.44774" lon="7.27992">
        <ele>978.7</ele>
        <time>2021-08-03T11:32:32Z</time>
      </trkpt>
      <trkpt lat="48.44773" lon="7.27994">
        <ele>978.8</ele>
        <time>2021-08-03T11:32:33Z</time>
      </trkpt>
      <trkpt lat="48.44772" lon="7.27997">
        <ele>979</ele>
        <time>2021-08-03T11:32:35Z</time>
      </trkpt>
      <trkpt lat="48.44771" lon="7.27999">
        <ele>979.1</ele>
        <time>2021-08-03T11:32:36Z</time>
      </trkpt>
      <trkpt lat="48.4477" lon="7.28001">
        <ele>979.2</ele>
        <time>2021-08-03T11:32:37Z</time>
      </trkpt>
      <trkpt lat="48.44769" lon="7.28004">
        <ele>979.4</ele>
        <time>2021-08-03T11:32:39Z</time>
      </trkpt>
      <trkpt lat="48.44768" lon="7.28006">
        <ele>979.5</ele>
        <time>2021-08-03T11:32:40Z</time>
      </trkpt>
      <trkpt lat="48.44767" lon="7.28009">
        <ele>979.6</ele>
        <time>2021-08-03T11:32:41Z</time>
      </trkpt>
      <trkpt lat="48.44767" lon="7.28012">
        <ele>979.8</ele>
        <time>2021-08-03T11:32:42Z</time>
      </trkpt>
      <trkpt lat="48.44766" lon="7.28017">
        <ele>980</ele>
        <time>2021-08-03T11:32:44Z</time>
      </trkpt>
      <trkpt lat="48.44765" lon="7.28021">
        <ele>980.3</ele>
        <time>2021-08-03T11:32:45Z</time>
      </trkpt>
      <trkpt lat="48.44764" lon="7.28024">
        <ele>980.4</ele>
        <time>2021-08-03T11:32:46Z</time>
      </trkpt>
      <trkpt lat="48.44762" lon="7.28027">
        <ele>980.6</ele>
        <time>2021-08-03T11:32:48Z</time>
      </trkpt>
      <trkpt lat="48.44761" lon="7.28029">
        <ele>980.7</ele>
        <time>2021-08-03T11:32:49Z</time>
      </trkpt>
      <trkpt lat="48.4476" lon="7.28031">
        <ele>980.9</ele>
        <time>2021-08-03T11:32:50Z</time>
      </trkpt>
      <trkpt lat="48.44759" lon="7.28033">
        <ele>981</ele>
        <time>2021-08-03T11:32:51Z</time>
      </trkpt>
      <trkpt lat="48.44757" lon="7.28036">
        <ele>981.2</ele>
        <time>2021-08-03T11:32:53Z</time>
      </trkpt>
      <trkpt lat="48.44756" lon="7.28037">
        <ele>981.3</ele>
        <time>2021-08-03T11:32:54Z</time>
      </trkpt>
      <trkpt lat="48.44754" lon="7.28038">
        <ele>981.4</ele>
        <time>2021-08-03T11:32:55Z</time>
      </trkpt>
      <trkpt lat="48.44753" lon="7.28039">
        <ele>981.5</ele>
        <time>2021-08-03T11:32:56Z</time>
      </trkpt>
      <trkpt lat="48.44751" lon="7.2804">
        <ele>981.6</ele>
        <time>2021-08-03T11:32:57Z</time>
      </trkpt>
      <trkpt lat="48.44748" lon="7.28042">
        <ele>981.8</ele>
        <time>2021-08-03T11:32:59Z</time>
      </trkpt>
      <trkpt lat="48.44747" lon="7.28043">
        <ele>981.9</ele>
        <time>2021-08-03T11:33:00Z</time>
      </trkpt>
      <trkpt lat="48.44746" lon="7.28045">
        <ele>982</ele>
        <time>2021-08-03T11:33:01Z</time>
      </trkpt>
      <trkpt lat="48.44745" lon="7.28048">
        <ele>982.1</ele>
        <time>2021-08-03T11:33:03Z</time>
      </trkpt>
      <trkpt lat="48.44744" lon="7.28049">
        <ele>982.2</ele>
        <time>2021-08-03T11:33:04Z</time>
      </trkpt>
      <trkpt lat="48.44743" lon="7.28051">
        <ele>982.3</ele>
        <time>2021-08-03T11:33:05Z</time>
      </trkpt>
      <trkpt lat="48.44741" lon="7.28054">
        <ele>982.4</ele>
        <time>2021-08-03T11:33:07Z</time>
      </trkpt>
      <trkpt lat="48.4474" lon="7.28056">
        <ele>982.4</ele>
        <time>2021-08-03T11:33:08Z</time>
      </trkpt>
      <trkpt lat="48.44738" lon="7.28058">
        <ele>982.5</ele>
        <time>2021-08-03T11:33:10Z</time>
      </trkpt>
      <trkpt lat="48.44736" lon="7.2806">
        <ele>982.6</ele>
        <time>2021-08-03T11:33:12Z</time>
      </trkpt>
      <trkpt lat="48.44736" lon="7.28063">
        <ele>982.6</ele>
        <time>2021-08-03T11:33:13Z</time>
      </trkpt>
      <trkpt lat="48.44738" lon="7.28068">
        <ele>982.7</ele>
        <time>2021-08-03T11:33:15Z</time>
      </trkpt>
      <trkpt lat="48.44739" lon="7.28069">
        <ele>982.7</ele>
        <time>2021-08-03T11:33:16Z</time>
      </trkpt>
      <trkpt lat="48.44739" lon="7.28071">
        <ele>982.7</ele>
        <time>2021-08-03T11:33:17Z</time>
      </trkpt>
      <trkpt lat="48.4474" lon="7.28073">
        <ele>982.7</ele>
        <time>2021-08-03T11:33:18Z</time>
      </trkpt>
      <trkpt lat="48.44741" lon="7.2808">
        <ele>982.8</ele>
        <time>2021-08-03T11:33:20Z</time>
      </trkpt>
      <trkpt lat="48.44742" lon="7.28082">
        <ele>982.8</ele>
        <time>2021-08-03T11:33:21Z</time>
      </trkpt>
      <trkpt lat="48.44742" lon="7.28084">
        <ele>982.9</ele>
        <time>2021-08-03T11:33:22Z</time>
      </trkpt>
      <trkpt lat="48.44743" lon="7.28091">
        <ele>982.9</ele>
        <time>2021-08-03T11:33:24Z</time>
      </trkpt>
      <trkpt lat="48.44743" lon="7.28093">
        <ele>982.9</ele>
        <time>2021-08-03T11:33:25Z</time>
      </trkpt>
      <trkpt lat="48.44743" lon="7.28095">
        <ele>982.9</ele>
        <time>2021-08-03T11:33:26Z</time>
      </trkpt>
      <trkpt lat="48.44743" lon="7.28097">
        <ele>982.9</ele>
        <time>2021-08-03T11:33:27Z</time>
      </trkpt>
      <trkpt lat="48.44743" lon="7.28103">
        <ele>982.9</ele>
        <time>2021-08-03T11:33:29Z</time>
      </trkpt>
      <trkpt lat="48.44743" lon="7.28107">
        <ele>983</ele>
        <time>2021-08-03T11:33:30Z</time>
      </trkpt>
      <trkpt lat="48.44744" lon="7.28108">
        <ele>983</ele>
        <time>2021-08-03T11:33:31Z</time>
      </trkpt>
      <trkpt lat="48.44745" lon="7.28111">
        <ele>983</ele>
        <time>2021-08-03T11:33:33Z</time>
      </trkpt>
      <trkpt lat="48.44745" lon="7.28113">
        <ele>983</ele>
        <time>2021-08-03T11:33:34Z</time>
      </trkpt>
      <trkpt lat="48.44743" lon="7.28115">
        <ele>983.1</ele>
        <time>2021-08-03T11:33:35Z</time>
      </trkpt>
      <trkpt lat="48.44742" lon="7.28118">
        <ele>983.1</ele>
        <time>2021-08-03T11:33:37Z</time>
      </trkpt>
      <trkpt lat="48.44743" lon="7.28124">
        <ele>983.2</ele>
        <time>2021-08-03T11:33:40Z</time>
      </trkpt>
      <trkpt lat="48.44742" lon="7.28127">
        <ele>983.2</ele>
        <time>2021-08-03T11:33:42Z</time>
      </trkpt>
      <trkpt lat="48.4474" lon="7.28128">
        <ele>983.3</ele>
        <time>2021-08-03T11:33:44Z</time>
      </trkpt>
      <trkpt lat="48.44738" lon="7.28131">
        <ele>983.3</ele>
        <time>2021-08-03T11:33:46Z</time>
      </trkpt>
      <trkpt lat="48.44737" lon="7.28131">
        <ele>983.1</ele>
        <time>2021-08-03T11:33:48Z</time>
      </trkpt>
      <trkpt lat="48.44736" lon="7.28131">
        <ele>982.8</ele>
        <time>2021-08-03T11:33:49Z</time>
      </trkpt>
      <trkpt lat="48.44735" lon="7.2813">
        <ele>982.5</ele>
        <time>2021-08-03T11:33:51Z</time>
      </trkpt>
      <trkpt lat="48.44733" lon="7.28129">
        <ele>982</ele>
        <time>2021-08-03T11:33:52Z</time>
      </trkpt>
      <trkpt lat="48.44731" lon="7.28129">
        <ele>981.7</ele>
        <time>2021-08-03T11:33:53Z</time>
      </trkpt>
      <trkpt lat="48.4473" lon="7.28129">
        <ele>981.4</ele>
        <time>2021-08-03T11:33:55Z</time>
      </trkpt>
      <trkpt lat="48.44729" lon="7.28129">
        <ele>981.1</ele>
        <time>2021-08-03T11:33:56Z</time>
      </trkpt>
      <trkpt lat="48.44727" lon="7.28129">
        <ele>980.8</ele>
        <time>2021-08-03T11:33:57Z</time>
      </trkpt>
      <trkpt lat="48.44726" lon="7.28129">
        <ele>980.5</ele>
        <time>2021-08-03T11:33:59Z</time>
      </trkpt>
      <trkpt lat="48.44721" lon="7.28133">
        <ele>979.2</ele>
        <time>2021-08-03T11:34:02Z</time>
      </trkpt>
      <trkpt lat="48.44719" lon="7.28135">
        <ele>977.9</ele>
        <time>2021-08-03T11:34:03Z</time>
      </trkpt>
      <trkpt lat="48.44718" lon="7.28135">
        <ele>977.9</ele>
        <time>2021-08-03T11:34:04Z</time>
      </trkpt>
      <trkpt lat="48.44718" lon="7.28137">
        <ele>978</ele>
        <time>2021-08-03T11:34:05Z</time>
      </trkpt>
      <trkpt lat="48.44716" lon="7.28139">
        <ele>978.1</ele>
        <time>2021-08-03T11:34:07Z</time>
      </trkpt>
      <trkpt lat="48.44714" lon="7.28143">
        <ele>978.3</ele>
        <time>2021-08-03T11:34:09Z</time>
      </trkpt>
      <trkpt lat="48.44712" lon="7.28146">
        <ele>978.4</ele>
        <time>2021-08-03T11:34:10Z</time>
      </trkpt>
      <trkpt lat="48.44711" lon="7.28146">
        <ele>978.4</ele>
        <time>2021-08-03T11:34:12Z</time>
      </trkpt>
      <trkpt lat="48.44711" lon="7.28147">
        <ele>978.5</ele>
        <time>2021-08-03T11:34:13Z</time>
      </trkpt>
      <trkpt lat="48.44711" lon="7.2815">
        <ele>978.6</ele>
        <time>2021-08-03T11:34:15Z</time>
      </trkpt>
      <trkpt lat="48.44711" lon="7.28153">
        <ele>978.7</ele>
        <time>2021-08-03T11:34:17Z</time>
      </trkpt>
      <trkpt lat="48.44712" lon="7.28156">
        <ele>978.9</ele>
        <time>2021-08-03T11:34:19Z</time>
      </trkpt>
      <trkpt lat="48.44712" lon="7.28159">
        <ele>979</ele>
        <time>2021-08-03T11:34:21Z</time>
      </trkpt>
      <trkpt lat="48.44712" lon="7.28161">
        <ele>979.1</ele>
        <time>2021-08-03T11:34:23Z</time>
      </trkpt>
      <trkpt lat="48.44712" lon="7.28164">
        <ele>979.2</ele>
        <time>2021-08-03T11:34:24Z</time>
      </trkpt>
      <trkpt lat="48.44712" lon="7.28166">
        <ele>979.3</ele>
        <time>2021-08-03T11:34:26Z</time>
      </trkpt>
      <trkpt lat="48.44712" lon="7.28169">
        <ele>979.5</ele>
        <time>2021-08-03T11:34:27Z</time>
      </trkpt>
      <trkpt lat="48.44713" lon="7.28171">
        <ele>979.6</ele>
        <time>2021-08-03T11:34:29Z</time>
      </trkpt>
      <trkpt lat="48.44713" lon="7.28174">
        <ele>979.7</ele>
        <time>2021-08-03T11:34:31Z</time>
      </trkpt>
      <trkpt lat="48.44713" lon="7.28176">
        <ele>979.8</ele>
        <time>2021-08-03T11:35:50Z</time>
      </trkpt>
      <trkpt lat="48.44713" lon="7.28179">
        <ele>980</ele>
        <time>2021-08-03T11:35:51Z</time>
      </trkpt>
      <trkpt lat="48.44711" lon="7.28184">
        <ele>980.3</ele>
        <time>2021-08-03T11:35:52Z</time>
      </trkpt>
      <trkpt lat="48.4471" lon="7.2819">
        <ele>980.7</ele>
        <time>2021-08-03T11:35:54Z</time>
      </trkpt>
      <trkpt lat="48.44709" lon="7.28195">
        <ele>981</ele>
        <time>2021-08-03T11:35:55Z</time>
      </trkpt>
      <trkpt lat="48.44707" lon="7.28199">
        <ele>981.2</ele>
        <time>2021-08-03T11:35:56Z</time>
      </trkpt>
      <trkpt lat="48.44705" lon="7.28204">
        <ele>981.6</ele>
        <time>2021-08-03T11:35:57Z</time>
      </trkpt>
      <trkpt lat="48.44704" lon="7.28205">
        <ele>981.7</ele>
        <time>2021-08-03T11:35:58Z</time>
      </trkpt>
      <trkpt lat="48.44703" lon="7.28208">
        <ele>981.9</ele>
        <time>2021-08-03T11:35:59Z</time>
      </trkpt>
      <trkpt lat="48.44702" lon="7.28212">
        <ele>982.2</ele>
        <time>2021-08-03T11:36:01Z</time>
      </trkpt>
      <trkpt lat="48.447" lon="7.28216">
        <ele>982.5</ele>
        <time>2021-08-03T11:36:02Z</time>
      </trkpt>
      <trkpt lat="48.44699" lon="7.28218">
        <ele>982.6</ele>
        <time>2021-08-03T11:36:03Z</time>
      </trkpt>
      <trkpt lat="48.44698" lon="7.2822">
        <ele>982.9</ele>
        <time>2021-08-03T11:36:04Z</time>
      </trkpt>
      <trkpt lat="48.44696" lon="7.28224">
        <ele>983.2</ele>
        <time>2021-08-03T11:36:06Z</time>
      </trkpt>
      <trkpt lat="48.44695" lon="7.28227">
        <ele>983.5</ele>
        <time>2021-08-03T11:36:07Z</time>
      </trkpt>
      <trkpt lat="48.44693" lon="7.28232">
        <ele>983.8</ele>
        <time>2021-08-03T11:36:08Z</time>
      </trkpt>
      <trkpt lat="48.44693" lon="7.28233">
        <ele>983.9</ele>
        <time>2021-08-03T11:36:09Z</time>
      </trkpt>
      <trkpt lat="48.44692" lon="7.28237">
        <ele>984.2</ele>
        <time>2021-08-03T11:36:10Z</time>
      </trkpt>
      <trkpt lat="48.44692" lon="7.28238">
        <ele>984.3</ele>
        <time>2021-08-03T11:36:11Z</time>
      </trkpt>
      <trkpt lat="48.44691" lon="7.28242">
        <ele>984.5</ele>
        <time>2021-08-03T11:36:12Z</time>
      </trkpt>
      <trkpt lat="48.4469" lon="7.28244">
        <ele>984.6</ele>
        <time>2021-08-03T11:36:13Z</time>
      </trkpt>
      <trkpt lat="48.44689" lon="7.28248">
        <ele>985</ele>
        <time>2021-08-03T11:36:15Z</time>
      </trkpt>
      <trkpt lat="48.44689" lon="7.2825">
        <ele>985.1</ele>
        <time>2021-08-03T11:36:16Z</time>
      </trkpt>
      <trkpt lat="48.44687" lon="7.28254">
        <ele>985.4</ele>
        <time>2021-08-03T11:36:17Z</time>
      </trkpt>
      <trkpt lat="48.44687" lon="7.28256">
        <ele>985.6</ele>
        <time>2021-08-03T11:36:18Z</time>
      </trkpt>
      <trkpt lat="48.44686" lon="7.28261">
        <ele>985.9</ele>
        <time>2021-08-03T11:36:19Z</time>
      </trkpt>
      <trkpt lat="48.44685" lon="7.28262">
        <ele>986</ele>
        <time>2021-08-03T11:36:20Z</time>
      </trkpt>
      <trkpt lat="48.44684" lon="7.28266">
        <ele>986.3</ele>
        <time>2021-08-03T11:36:21Z</time>
      </trkpt>
      <trkpt lat="48.44683" lon="7.28267">
        <ele>986.4</ele>
        <time>2021-08-03T11:36:22Z</time>
      </trkpt>
      <trkpt lat="48.44682" lon="7.28269">
        <ele>986.6</ele>
        <time>2021-08-03T11:36:23Z</time>
      </trkpt>
      <trkpt lat="48.44681" lon="7.28271">
        <ele>986.7</ele>
        <time>2021-08-03T11:36:24Z</time>
      </trkpt>
      <trkpt lat="48.4468" lon="7.28273">
        <ele>986.9</ele>
        <time>2021-08-03T11:36:25Z</time>
      </trkpt>
      <trkpt lat="48.44679" lon="7.28276">
        <ele>987.1</ele>
        <time>2021-08-03T11:36:26Z</time>
      </trkpt>
      <trkpt lat="48.44678" lon="7.28278">
        <ele>987.3</ele>
        <time>2021-08-03T11:36:27Z</time>
      </trkpt>
      <trkpt lat="48.44678" lon="7.2828">
        <ele>987.4</ele>
        <time>2021-08-03T11:36:28Z</time>
      </trkpt>
      <trkpt lat="48.44678" lon="7.28281">
        <ele>987.4</ele>
        <time>2021-08-03T11:36:29Z</time>
      </trkpt>
      <trkpt lat="48.44678" lon="7.28283">
        <ele>987.6</ele>
        <time>2021-08-03T11:36:30Z</time>
      </trkpt>
      <trkpt lat="48.44677" lon="7.28285">
        <ele>987.7</ele>
        <time>2021-08-03T11:36:32Z</time>
      </trkpt>
      <trkpt lat="48.44676" lon="7.28287">
        <ele>987.9</ele>
        <time>2021-08-03T11:36:33Z</time>
      </trkpt>
      <trkpt lat="48.44675" lon="7.28289">
        <ele>988</ele>
        <time>2021-08-03T11:36:34Z</time>
      </trkpt>
      <trkpt lat="48.44674" lon="7.28291">
        <ele>988.1</ele>
        <time>2021-08-03T11:36:35Z</time>
      </trkpt>
      <trkpt lat="48.44674" lon="7.28293">
        <ele>988.3</ele>
        <time>2021-08-03T11:36:36Z</time>
      </trkpt>
      <trkpt lat="48.44672" lon="7.28297">
        <ele>988.5</ele>
        <time>2021-08-03T11:36:38Z</time>
      </trkpt>
      <trkpt lat="48.44671" lon="7.28297">
        <ele>988.6</ele>
        <time>2021-08-03T11:36:39Z</time>
      </trkpt>
      <trkpt lat="48.4467" lon="7.28298">
        <ele>988.7</ele>
        <time>2021-08-03T11:36:40Z</time>
      </trkpt>
      <trkpt lat="48.4467" lon="7.28299">
        <ele>988.8</ele>
        <time>2021-08-03T11:36:42Z</time>
      </trkpt>
      <trkpt lat="48.44669" lon="7.28301">
        <ele>988.9</ele>
        <time>2021-08-03T11:36:43Z</time>
      </trkpt>
      <trkpt lat="48.44668" lon="7.28304">
        <ele>989.1</ele>
        <time>2021-08-03T11:36:44Z</time>
      </trkpt>
      <trkpt lat="48.44668" lon="7.28306">
        <ele>989.2</ele>
        <time>2021-08-03T11:36:46Z</time>
      </trkpt>
      <trkpt lat="48.44668" lon="7.28307">
        <ele>989.3</ele>
        <time>2021-08-03T11:36:47Z</time>
      </trkpt>
      <trkpt lat="48.44668" lon="7.28309">
        <ele>989.4</ele>
        <time>2021-08-03T11:36:48Z</time>
      </trkpt>
      <trkpt lat="48.44667" lon="7.28311">
        <ele>989.5</ele>
        <time>2021-08-03T11:36:49Z</time>
      </trkpt>
      <trkpt lat="48.44666" lon="7.28314">
        <ele>989.7</ele>
        <time>2021-08-03T11:36:50Z</time>
      </trkpt>
      <trkpt lat="48.44666" lon="7.28315">
        <ele>989.8</ele>
        <time>2021-08-03T11:36:51Z</time>
      </trkpt>
      <trkpt lat="48.44665" lon="7.28317">
        <ele>989.9</ele>
        <time>2021-08-03T11:36:53Z</time>
      </trkpt>
      <trkpt lat="48.44664" lon="7.28318">
        <ele>990</ele>
        <time>2021-08-03T11:36:54Z</time>
      </trkpt>
      <trkpt lat="48.44662" lon="7.28321">
        <ele>990.2</ele>
        <time>2021-08-03T11:36:56Z</time>
      </trkpt>
      <trkpt lat="48.44661" lon="7.28323">
        <ele>990.4</ele>
        <time>2021-08-03T11:36:57Z</time>
      </trkpt>
      <trkpt lat="48.44661" lon="7.28324">
        <ele>990.5</ele>
        <time>2021-08-03T11:36:58Z</time>
      </trkpt>
      <trkpt lat="48.4466" lon="7.28325">
        <ele>990.6</ele>
        <time>2021-08-03T11:36:59Z</time>
      </trkpt>
      <trkpt lat="48.44659" lon="7.28328">
        <ele>990.7</ele>
        <time>2021-08-03T11:37:00Z</time>
      </trkpt>
      <trkpt lat="48.44658" lon="7.2833">
        <ele>990.8</ele>
        <time>2021-08-03T11:37:01Z</time>
      </trkpt>
      <trkpt lat="48.44658" lon="7.28332">
        <ele>991</ele>
        <time>2021-08-03T11:37:02Z</time>
      </trkpt>
      <trkpt lat="48.44658" lon="7.28333">
        <ele>991.1</ele>
        <time>2021-08-03T11:37:03Z</time>
      </trkpt>
      <trkpt lat="48.44657" lon="7.28335">
        <ele>991.2</ele>
        <time>2021-08-03T11:37:05Z</time>
      </trkpt>
      <trkpt lat="48.44657" lon="7.28337">
        <ele>991.3</ele>
        <time>2021-08-03T11:37:06Z</time>
      </trkpt>
      <trkpt lat="48.44656" lon="7.2834">
        <ele>991.5</ele>
        <time>2021-08-03T11:37:08Z</time>
      </trkpt>
      <trkpt lat="48.44655" lon="7.28345">
        <ele>991.8</ele>
        <time>2021-08-03T11:37:09Z</time>
      </trkpt>
      <trkpt lat="48.44655" lon="7.28347">
        <ele>991.9</ele>
        <time>2021-08-03T11:37:10Z</time>
      </trkpt>
      <trkpt lat="48.44654" lon="7.28349">
        <ele>992</ele>
        <time>2021-08-03T11:37:11Z</time>
      </trkpt>
      <trkpt lat="48.44653" lon="7.28352">
        <ele>992.2</ele>
        <time>2021-08-03T11:37:13Z</time>
      </trkpt>
      <trkpt lat="48.44652" lon="7.28353">
        <ele>992.3</ele>
        <time>2021-08-03T11:37:14Z</time>
      </trkpt>
      <trkpt lat="48.4465" lon="7.28358">
        <ele>992.6</ele>
        <time>2021-08-03T11:37:16Z</time>
      </trkpt>
      <trkpt lat="48.44649" lon="7.28362">
        <ele>992.9</ele>
        <time>2021-08-03T11:37:17Z</time>
      </trkpt>
      <trkpt lat="48.44648" lon="7.28363">
        <ele>993</ele>
        <time>2021-08-03T11:37:18Z</time>
      </trkpt>
      <trkpt lat="48.44647" lon="7.28365">
        <ele>993.2</ele>
        <time>2021-08-03T11:37:20Z</time>
      </trkpt>
      <trkpt lat="48.44645" lon="7.28369">
        <ele>993.5</ele>
        <time>2021-08-03T11:37:22Z</time>
      </trkpt>
      <trkpt lat="48.44644" lon="7.28371">
        <ele>993.6</ele>
        <time>2021-08-03T11:37:23Z</time>
      </trkpt>
      <trkpt lat="48.44643" lon="7.28373">
        <ele>993.8</ele>
        <time>2021-08-03T11:37:24Z</time>
      </trkpt>
      <trkpt lat="48.44642" lon="7.28374">
        <ele>993.9</ele>
        <time>2021-08-03T11:37:25Z</time>
      </trkpt>
      <trkpt lat="48.44641" lon="7.28376">
        <ele>994.1</ele>
        <time>2021-08-03T11:37:27Z</time>
      </trkpt>
      <trkpt lat="48.4464" lon="7.28378">
        <ele>994.3</ele>
        <time>2021-08-03T11:37:28Z</time>
      </trkpt>
      <trkpt lat="48.44639" lon="7.2838">
        <ele>994.4</ele>
        <time>2021-08-03T11:37:30Z</time>
      </trkpt>
      <trkpt lat="48.44638" lon="7.28381">
        <ele>994.5</ele>
        <time>2021-08-03T11:37:31Z</time>
      </trkpt>
      <trkpt lat="48.44637" lon="7.28382">
        <ele>994.6</ele>
        <time>2021-08-03T11:37:32Z</time>
      </trkpt>
      <trkpt lat="48.44635" lon="7.28385">
        <ele>994.9</ele>
        <time>2021-08-03T11:37:34Z</time>
      </trkpt>
      <trkpt lat="48.44634" lon="7.28387">
        <ele>995</ele>
        <time>2021-08-03T11:37:35Z</time>
      </trkpt>
      <trkpt lat="48.44632" lon="7.28388">
        <ele>995.2</ele>
        <time>2021-08-03T11:37:36Z</time>
      </trkpt>
      <trkpt lat="48.44631" lon="7.28393">
        <ele>995.5</ele>
        <time>2021-08-03T11:37:38Z</time>
      </trkpt>
      <trkpt lat="48.4463" lon="7.28394">
        <ele>995.6</ele>
        <time>2021-08-03T11:37:39Z</time>
      </trkpt>
      <trkpt lat="48.4463" lon="7.28397">
        <ele>995.7</ele>
        <time>2021-08-03T11:37:40Z</time>
      </trkpt>
      <trkpt lat="48.44629" lon="7.28399">
        <ele>995.9</ele>
        <time>2021-08-03T11:37:41Z</time>
      </trkpt>
      <trkpt lat="48.44628" lon="7.28401">
        <ele>996</ele>
        <time>2021-08-03T11:37:42Z</time>
      </trkpt>
      <trkpt lat="48.44628" lon="7.28404">
        <ele>996.2</ele>
        <time>2021-08-03T11:37:43Z</time>
      </trkpt>
      <trkpt lat="48.44627" lon="7.28406">
        <ele>996.3</ele>
        <time>2021-08-03T11:37:44Z</time>
      </trkpt>
      <trkpt lat="48.44626" lon="7.28408">
        <ele>996.5</ele>
        <time>2021-08-03T11:37:45Z</time>
      </trkpt>
      <trkpt lat="48.44626" lon="7.28409">
        <ele>996.6</ele>
        <time>2021-08-03T11:37:46Z</time>
      </trkpt>
      <trkpt lat="48.44625" lon="7.28411">
        <ele>996.7</ele>
        <time>2021-08-03T11:37:47Z</time>
      </trkpt>
      <trkpt lat="48.44624" lon="7.28413">
        <ele>996.9</ele>
        <time>2021-08-03T11:37:49Z</time>
      </trkpt>
      <trkpt lat="48.44622" lon="7.28416">
        <ele>997.1</ele>
        <time>2021-08-03T11:37:50Z</time>
      </trkpt>
      <trkpt lat="48.44621" lon="7.28417">
        <ele>997.3</ele>
        <time>2021-08-03T11:37:52Z</time>
      </trkpt>
      <trkpt lat="48.4462" lon="7.28419">
        <ele>997.4</ele>
        <time>2021-08-03T11:37:53Z</time>
      </trkpt>
      <trkpt lat="48.44618" lon="7.2842">
        <ele>997.6</ele>
        <time>2021-08-03T11:37:55Z</time>
      </trkpt>
      <trkpt lat="48.44617" lon="7.28422">
        <ele>997.8</ele>
        <time>2021-08-03T11:37:56Z</time>
      </trkpt>
      <trkpt lat="48.44616" lon="7.28423">
        <ele>997.9</ele>
        <time>2021-08-03T11:37:57Z</time>
      </trkpt>
      <trkpt lat="48.44615" lon="7.28424">
        <ele>998</ele>
        <time>2021-08-03T11:37:58Z</time>
      </trkpt>
      <trkpt lat="48.44612" lon="7.28427">
        <ele>998.3</ele>
        <time>2021-08-03T11:38:00Z</time>
      </trkpt>
      <trkpt lat="48.4461" lon="7.28429">
        <ele>998.6</ele>
        <time>2021-08-03T11:38:01Z</time>
      </trkpt>
      <trkpt lat="48.44609" lon="7.28431">
        <ele>998.7</ele>
        <time>2021-08-03T11:38:03Z</time>
      </trkpt>
      <trkpt lat="48.44608" lon="7.28434">
        <ele>999</ele>
        <time>2021-08-03T11:38:04Z</time>
      </trkpt>
      <trkpt lat="48.44608" lon="7.28435">
        <ele>999</ele>
        <time>2021-08-03T11:38:05Z</time>
      </trkpt>
      <trkpt lat="48.44607" lon="7.28436">
        <ele>999.1</ele>
        <time>2021-08-03T11:38:06Z</time>
      </trkpt>
      <trkpt lat="48.44605" lon="7.28438">
        <ele>999.3</ele>
        <time>2021-08-03T11:38:07Z</time>
      </trkpt>
      <trkpt lat="48.44605" lon="7.28439">
        <ele>999.4</ele>
        <time>2021-08-03T11:38:09Z</time>
      </trkpt>
      <trkpt lat="48.44604" lon="7.28441">
        <ele>999.5</ele>
        <time>2021-08-03T11:38:10Z</time>
      </trkpt>
      <trkpt lat="48.44603" lon="7.28442">
        <ele>999.5</ele>
        <time>2021-08-03T11:38:11Z</time>
      </trkpt>
      <trkpt lat="48.44602" lon="7.28443">
        <ele>999.6</ele>
        <time>2021-08-03T11:38:12Z</time>
      </trkpt>
      <trkpt lat="48.44599" lon="7.28442">
        <ele>999.6</ele>
        <time>2021-08-03T11:38:14Z</time>
      </trkpt>
      <trkpt lat="48.44599" lon="7.28443">
        <ele>999.6</ele>
        <time>2021-08-03T11:38:15Z</time>
      </trkpt>
      <trkpt lat="48.44598" lon="7.28444">
        <ele>999.6</ele>
        <time>2021-08-03T11:38:17Z</time>
      </trkpt>
      <trkpt lat="48.44598" lon="7.28445">
        <ele>999.6</ele>
        <time>2021-08-03T11:38:18Z</time>
      </trkpt>
      <trkpt lat="48.44598" lon="7.28446">
        <ele>999.6</ele>
        <time>2021-08-03T11:38:20Z</time>
      </trkpt>
      <trkpt lat="48.44599" lon="7.28446">
        <ele>999.7</ele>
        <time>2021-08-03T11:38:22Z</time>
      </trkpt>
      <trkpt lat="48.44599" lon="7.28446">
        <ele>999.7</ele>
        <time>2021-08-03T11:38:23Z</time>
      </trkpt>
      <trkpt lat="48.446" lon="7.28446">
        <ele>999.7</ele>
        <time>2021-08-03T11:38:24Z</time>
      </trkpt>
      <trkpt lat="48.446" lon="7.28446">
        <ele>999.7</ele>
        <time>2021-08-03T11:38:26Z</time>
      </trkpt>
      <trkpt lat="48.446" lon="7.28446">
        <ele>999.7</ele>
        <time>2021-08-03T11:38:27Z</time>
      </trkpt>
      <trkpt lat="48.44601" lon="7.28446">
        <ele>999.7</ele>
        <time>2021-08-03T11:38:28Z</time>
      </trkpt>
      <trkpt lat="48.44601" lon="7.28446">
        <ele>999.7</ele>
        <time>2021-08-03T11:38:29Z</time>
      </trkpt>
      <trkpt lat="48.44601" lon="7.28446">
        <ele>999.7</ele>
        <time>2021-08-03T11:38:30Z</time>
      </trkpt>
      <trkpt lat="48.44587" lon="7.28468">
        <ele>1000.8</ele>
        <time>2021-08-03T11:40:26Z</time>
      </trkpt>
      <trkpt lat="48.44582" lon="7.28476">
        <ele>1001.4</ele>
        <time>2021-08-03T11:40:28Z</time>
      </trkpt>
      <trkpt lat="48.44578" lon="7.28481">
        <ele>1001.8</ele>
        <time>2021-08-03T11:40:30Z</time>
      </trkpt>
      <trkpt lat="48.44575" lon="7.28486">
        <ele>1002.1</ele>
        <time>2021-08-03T11:40:31Z</time>
      </trkpt>
      <trkpt lat="48.44572" lon="7.28491">
        <ele>1002.5</ele>
        <time>2021-08-03T11:40:33Z</time>
      </trkpt>
      <trkpt lat="48.4457" lon="7.28495">
        <ele>1002.7</ele>
        <time>2021-08-03T11:40:34Z</time>
      </trkpt>
      <trkpt lat="48.44568" lon="7.28497">
        <ele>1003</ele>
        <time>2021-08-03T11:40:35Z</time>
      </trkpt>
      <trkpt lat="48.44566" lon="7.28499">
        <ele>1003.1</ele>
        <time>2021-08-03T11:40:36Z</time>
      </trkpt>
      <trkpt lat="48.44565" lon="7.285">
        <ele>1003.2</ele>
        <time>2021-08-03T11:40:38Z</time>
      </trkpt>
      <trkpt lat="48.44563" lon="7.28501">
        <ele>1003.3</ele>
        <time>2021-08-03T11:40:39Z</time>
      </trkpt>
      <trkpt lat="48.44562" lon="7.28503">
        <ele>1003.4</ele>
        <time>2021-08-03T11:40:40Z</time>
      </trkpt>
      <trkpt lat="48.44561" lon="7.28504">
        <ele>1003.5</ele>
        <time>2021-08-03T11:40:41Z</time>
      </trkpt>
      <trkpt lat="48.4456" lon="7.28506">
        <ele>1003.6</ele>
        <time>2021-08-03T11:40:42Z</time>
      </trkpt>
      <trkpt lat="48.44558" lon="7.28507">
        <ele>1003.8</ele>
        <time>2021-08-03T11:40:43Z</time>
      </trkpt>
      <trkpt lat="48.44557" lon="7.28508">
        <ele>1003.9</ele>
        <time>2021-08-03T11:40:44Z</time>
      </trkpt>
      <trkpt lat="48.44555" lon="7.28509">
        <ele>1004</ele>
        <time>2021-08-03T11:40:45Z</time>
      </trkpt>
      <trkpt lat="48.44554" lon="7.2851">
        <ele>1004.2</ele>
        <time>2021-08-03T11:40:46Z</time>
      </trkpt>
      <trkpt lat="48.44551" lon="7.28512">
        <ele>1004.4</ele>
        <time>2021-08-03T11:40:47Z</time>
      </trkpt>
      <trkpt lat="48.4455" lon="7.28513">
        <ele>1004.5</ele>
        <time>2021-08-03T11:40:48Z</time>
      </trkpt>
      <trkpt lat="48.44548" lon="7.28515">
        <ele>1004.7</ele>
        <time>2021-08-03T11:40:50Z</time>
      </trkpt>
      <trkpt lat="48.44547" lon="7.28516">
        <ele>1004.8</ele>
        <time>2021-08-03T11:40:51Z</time>
      </trkpt>
      <trkpt lat="48.44545" lon="7.28519">
        <ele>1005</ele>
        <time>2021-08-03T11:40:52Z</time>
      </trkpt>
      <trkpt lat="48.44544" lon="7.28519">
        <ele>1005.1</ele>
        <time>2021-08-03T11:40:53Z</time>
      </trkpt>
      <trkpt lat="48.44541" lon="7.28521">
        <ele>1005.3</ele>
        <time>2021-08-03T11:40:54Z</time>
      </trkpt>
      <trkpt lat="48.4454" lon="7.28521">
        <ele>1005.4</ele>
        <time>2021-08-03T11:40:55Z</time>
      </trkpt>
      <trkpt lat="48.44538" lon="7.28522">
        <ele>1005.5</ele>
        <time>2021-08-03T11:40:56Z</time>
      </trkpt>
      <trkpt lat="48.44536" lon="7.28522">
        <ele>1005.7</ele>
        <time>2021-08-03T11:40:58Z</time>
      </trkpt>
      <trkpt lat="48.44534" lon="7.28523">
        <ele>1005.9</ele>
        <time>2021-08-03T11:40:59Z</time>
      </trkpt>
      <trkpt lat="48.44533" lon="7.28523">
        <ele>1005.9</ele>
        <time>2021-08-03T11:41:00Z</time>
      </trkpt>
      <trkpt lat="48.44531" lon="7.28524">
        <ele>1006.1</ele>
        <time>2021-08-03T11:41:01Z</time>
      </trkpt>
      <trkpt lat="48.44529" lon="7.28524">
        <ele>1006.2</ele>
        <time>2021-08-03T11:41:02Z</time>
      </trkpt>
      <trkpt lat="48.44526" lon="7.28525">
        <ele>1006.4</ele>
        <time>2021-08-03T11:41:03Z</time>
      </trkpt>
      <trkpt lat="48.44525" lon="7.28525">
        <ele>1006.5</ele>
        <time>2021-08-03T11:41:04Z</time>
      </trkpt>
      <trkpt lat="48.44522" lon="7.28526">
        <ele>1006.7</ele>
        <time>2021-08-03T11:41:05Z</time>
      </trkpt>
      <trkpt lat="48.44521" lon="7.28526">
        <ele>1006.8</ele>
        <time>2021-08-03T11:41:06Z</time>
      </trkpt>
      <trkpt lat="48.44519" lon="7.28527">
        <ele>1007</ele>
        <time>2021-08-03T11:41:07Z</time>
      </trkpt>
      <trkpt lat="48.44517" lon="7.28528">
        <ele>1007.1</ele>
        <time>2021-08-03T11:41:09Z</time>
      </trkpt>
      <trkpt lat="48.44515" lon="7.28528">
        <ele>1007.3</ele>
        <time>2021-08-03T11:41:10Z</time>
      </trkpt>
      <trkpt lat="48.44514" lon="7.28528">
        <ele>1007.4</ele>
        <time>2021-08-03T11:41:11Z</time>
      </trkpt>
      <trkpt lat="48.44512" lon="7.28529">
        <ele>1007.5</ele>
        <time>2021-08-03T11:41:12Z</time>
      </trkpt>
      <trkpt lat="48.44509" lon="7.28531">
        <ele>1007.8</ele>
        <time>2021-08-03T11:41:14Z</time>
      </trkpt>
      <trkpt lat="48.44506" lon="7.28533">
        <ele>1008.1</ele>
        <time>2021-08-03T11:41:15Z</time>
      </trkpt>
      <trkpt lat="48.44505" lon="7.28533">
        <ele>1008.2</ele>
        <time>2021-08-03T11:41:16Z</time>
      </trkpt>
      <trkpt lat="48.44502" lon="7.28534">
        <ele>1008.4</ele>
        <time>2021-08-03T11:41:17Z</time>
      </trkpt>
      <trkpt lat="48.44501" lon="7.28534">
        <ele>1008.5</ele>
        <time>2021-08-03T11:41:18Z</time>
      </trkpt>
      <trkpt lat="48.44498" lon="7.28535">
        <ele>1008.7</ele>
        <time>2021-08-03T11:41:20Z</time>
      </trkpt>
      <trkpt lat="48.44497" lon="7.28535">
        <ele>1008.8</ele>
        <time>2021-08-03T11:41:21Z</time>
      </trkpt>
      <trkpt lat="48.44494" lon="7.28536">
        <ele>1009.1</ele>
        <time>2021-08-03T11:41:22Z</time>
      </trkpt>
      <trkpt lat="48.44493" lon="7.28536">
        <ele>1009.1</ele>
        <time>2021-08-03T11:41:23Z</time>
      </trkpt>
      <trkpt lat="48.44489" lon="7.28534">
        <ele>1009.4</ele>
        <time>2021-08-03T11:41:24Z</time>
      </trkpt>
      <trkpt lat="48.44488" lon="7.28534">
        <ele>1009.5</ele>
        <time>2021-08-03T11:41:25Z</time>
      </trkpt>
      <trkpt lat="48.44485" lon="7.28533">
        <ele>1009.8</ele>
        <time>2021-08-03T11:41:27Z</time>
      </trkpt>
      <trkpt lat="48.4448" lon="7.28529">
        <ele>1010.2</ele>
        <time>2021-08-03T11:41:29Z</time>
      </trkpt>
      <trkpt lat="48.44478" lon="7.28528">
        <ele>1010.4</ele>
        <time>2021-08-03T11:41:30Z</time>
      </trkpt>
      <trkpt lat="48.44473" lon="7.28528">
        <ele>1010.8</ele>
        <time>2021-08-03T11:41:32Z</time>
      </trkpt>
      <trkpt lat="48.44469" lon="7.28528">
        <ele>1011.1</ele>
        <time>2021-08-03T11:41:33Z</time>
      </trkpt>
      <trkpt lat="48.44467" lon="7.28528">
        <ele>1011.3</ele>
        <time>2021-08-03T11:41:34Z</time>
      </trkpt>
      <trkpt lat="48.44465" lon="7.28529">
        <ele>1011.5</ele>
        <time>2021-08-03T11:41:35Z</time>
      </trkpt>
      <trkpt lat="48.4446" lon="7.2853">
        <ele>1011.9</ele>
        <time>2021-08-03T11:41:37Z</time>
      </trkpt>
      <trkpt lat="48.44458" lon="7.28531">
        <ele>1012</ele>
        <time>2021-08-03T11:41:38Z</time>
      </trkpt>
      <trkpt lat="48.44455" lon="7.28534">
        <ele>1012.3</ele>
        <time>2021-08-03T11:41:40Z</time>
      </trkpt>
      <trkpt lat="48.44455" lon="7.28535">
        <ele>1012.4</ele>
        <time>2021-08-03T11:41:41Z</time>
      </trkpt>
      <trkpt lat="48.44453" lon="7.28537">
        <ele>1012.6</ele>
        <time>2021-08-03T11:41:43Z</time>
      </trkpt>
      <trkpt lat="48.44452" lon="7.28538">
        <ele>1012.7</ele>
        <time>2021-08-03T11:41:44Z</time>
      </trkpt>
      <trkpt lat="48.4445" lon="7.28538">
        <ele>1012.9</ele>
        <time>2021-08-03T11:41:45Z</time>
      </trkpt>
      <trkpt lat="48.44448" lon="7.28538">
        <ele>1013</ele>
        <time>2021-08-03T11:41:46Z</time>
      </trkpt>
      <trkpt lat="48.44445" lon="7.28538">
        <ele>1013.3</ele>
        <time>2021-08-03T11:41:47Z</time>
      </trkpt>
      <trkpt lat="48.44444" lon="7.28538">
        <ele>1013.4</ele>
        <time>2021-08-03T11:41:48Z</time>
      </trkpt>
      <trkpt lat="48.44441" lon="7.28538">
        <ele>1013.6</ele>
        <time>2021-08-03T11:41:49Z</time>
      </trkpt>
      <trkpt lat="48.4444" lon="7.28537">
        <ele>1013.7</ele>
        <time>2021-08-03T11:41:50Z</time>
      </trkpt>
      <trkpt lat="48.44435" lon="7.28536">
        <ele>1014.1</ele>
        <time>2021-08-03T11:41:52Z</time>
      </trkpt>
      <trkpt lat="48.44433" lon="7.28536">
        <ele>1014.3</ele>
        <time>2021-08-03T11:41:53Z</time>
      </trkpt>
      <trkpt lat="48.44432" lon="7.28535">
        <ele>1014.4</ele>
        <time>2021-08-03T11:41:54Z</time>
      </trkpt>
      <trkpt lat="48.44429" lon="7.28534">
        <ele>1014.6</ele>
        <time>2021-08-03T11:41:55Z</time>
      </trkpt>
      <trkpt lat="48.44425" lon="7.28534">
        <ele>1015</ele>
        <time>2021-08-03T11:41:56Z</time>
      </trkpt>
      <trkpt lat="48.44423" lon="7.28534">
        <ele>1015.1</ele>
        <time>2021-08-03T11:41:57Z</time>
      </trkpt>
      <trkpt lat="48.4442" lon="7.28534">
        <ele>1015.4</ele>
        <time>2021-08-03T11:41:59Z</time>
      </trkpt>
      <trkpt lat="48.44419" lon="7.28535">
        <ele>1015.4</ele>
        <time>2021-08-03T11:42:00Z</time>
      </trkpt>
      <trkpt lat="48.44416" lon="7.28535">
        <ele>1015.7</ele>
        <time>2021-08-03T11:42:01Z</time>
      </trkpt>
      <trkpt lat="48.44413" lon="7.28534">
        <ele>1016</ele>
        <time>2021-08-03T11:42:03Z</time>
      </trkpt>
      <trkpt lat="48.44411" lon="7.28534">
        <ele>1016.1</ele>
        <time>2021-08-03T11:42:04Z</time>
      </trkpt>
      <trkpt lat="48.44408" lon="7.28534">
        <ele>1016.3</ele>
        <time>2021-08-03T11:42:05Z</time>
      </trkpt>
      <trkpt lat="48.44405" lon="7.28536">
        <ele>1016.6</ele>
        <time>2021-08-03T11:42:07Z</time>
      </trkpt>
      <trkpt lat="48.44404" lon="7.28537">
        <ele>1016.7</ele>
        <time>2021-08-03T11:42:08Z</time>
      </trkpt>
      <trkpt lat="48.44402" lon="7.28539">
        <ele>1016.9</ele>
        <time>2021-08-03T11:42:09Z</time>
      </trkpt>
      <trkpt lat="48.44399" lon="7.28542">
        <ele>1017.1</ele>
        <time>2021-08-03T11:42:11Z</time>
      </trkpt>
      <trkpt lat="48.44397" lon="7.28545">
        <ele>1017.3</ele>
        <time>2021-08-03T11:42:12Z</time>
      </trkpt>
      <trkpt lat="48.44395" lon="7.28547">
        <ele>1017.5</ele>
        <time>2021-08-03T11:42:14Z</time>
      </trkpt>
      <trkpt lat="48.44392" lon="7.28552">
        <ele>1017.8</ele>
        <time>2021-08-03T11:42:16Z</time>
      </trkpt>
      <trkpt lat="48.4439" lon="7.28557">
        <ele>1018.1</ele>
        <time>2021-08-03T11:42:18Z</time>
      </trkpt>
      <trkpt lat="48.44388" lon="7.2856">
        <ele>1018.3</ele>
        <time>2021-08-03T11:42:19Z</time>
      </trkpt>
      <trkpt lat="48.44387" lon="7.28561">
        <ele>1018.3</ele>
        <time>2021-08-03T11:42:20Z</time>
      </trkpt>
      <trkpt lat="48.44384" lon="7.28563">
        <ele>1018.6</ele>
        <time>2021-08-03T11:42:22Z</time>
      </trkpt>
      <trkpt lat="48.4438" lon="7.28565">
        <ele>1018.8</ele>
        <time>2021-08-03T11:42:24Z</time>
      </trkpt>
      <trkpt lat="48.44375" lon="7.28568">
        <ele>1018.9</ele>
        <time>2021-08-03T11:42:26Z</time>
      </trkpt>
      <trkpt lat="48.44371" lon="7.28569">
        <ele>1019.1</ele>
        <time>2021-08-03T11:42:28Z</time>
      </trkpt>
      <trkpt lat="48.44366" lon="7.28572">
        <ele>1019.2</ele>
        <time>2021-08-03T11:42:30Z</time>
      </trkpt>
      <trkpt lat="48.44363" lon="7.28574">
        <ele>1019.3</ele>
        <time>2021-08-03T11:42:31Z</time>
      </trkpt>
      <trkpt lat="48.44362" lon="7.28577">
        <ele>1019.4</ele>
        <time>2021-08-03T11:42:32Z</time>
      </trkpt>
      <trkpt lat="48.44361" lon="7.2858">
        <ele>1019.5</ele>
        <time>2021-08-03T11:42:34Z</time>
      </trkpt>
      <trkpt lat="48.44359" lon="7.28584">
        <ele>1019.6</ele>
        <time>2021-08-03T11:42:35Z</time>
      </trkpt>
      <trkpt lat="48.44358" lon="7.28589">
        <ele>1019.7</ele>
        <time>2021-08-03T11:42:37Z</time>
      </trkpt>
      <trkpt lat="48.44356" lon="7.2859">
        <ele>1019.7</ele>
        <time>2021-08-03T11:42:38Z</time>
      </trkpt>
      <trkpt lat="48.44354" lon="7.28594">
        <ele>1019.8</ele>
        <time>2021-08-03T11:42:40Z</time>
      </trkpt>
      <trkpt lat="48.44352" lon="7.286">
        <ele>1020</ele>
        <time>2021-08-03T11:42:42Z</time>
      </trkpt>
      <trkpt lat="48.4435" lon="7.28605">
        <ele>1020.1</ele>
        <time>2021-08-03T11:42:43Z</time>
      </trkpt>
      <trkpt lat="48.44348" lon="7.28611">
        <ele>1020.3</ele>
        <time>2021-08-03T11:42:45Z</time>
      </trkpt>
      <trkpt lat="48.44347" lon="7.28614">
        <ele>1020.3</ele>
        <time>2021-08-03T11:42:46Z</time>
      </trkpt>
      <trkpt lat="48.44346" lon="7.28616">
        <ele>1020.4</ele>
        <time>2021-08-03T11:42:47Z</time>
      </trkpt>
      <trkpt lat="48.44345" lon="7.28621">
        <ele>1020.5</ele>
        <time>2021-08-03T11:42:49Z</time>
      </trkpt>
      <trkpt lat="48.44342" lon="7.28627">
        <ele>1020.7</ele>
        <time>2021-08-03T11:42:50Z</time>
      </trkpt>
      <trkpt lat="48.44341" lon="7.28629">
        <ele>1020.7</ele>
        <time>2021-08-03T11:42:51Z</time>
      </trkpt>
      <trkpt lat="48.44338" lon="7.28634">
        <ele>1020.9</ele>
        <time>2021-08-03T11:42:53Z</time>
      </trkpt>
      <trkpt lat="48.44336" lon="7.2864">
        <ele>1021</ele>
        <time>2021-08-03T11:42:55Z</time>
      </trkpt>
      <trkpt lat="48.44334" lon="7.28645">
        <ele>1021.1</ele>
        <time>2021-08-03T11:42:57Z</time>
      </trkpt>
      <trkpt lat="48.44331" lon="7.28651">
        <ele>1021.3</ele>
        <time>2021-08-03T11:42:59Z</time>
      </trkpt>
      <trkpt lat="48.4433" lon="7.28652">
        <ele>1021.3</ele>
        <time>2021-08-03T11:43:00Z</time>
      </trkpt>
      <trkpt lat="48.44329" lon="7.28654">
        <ele>1021.3</ele>
        <time>2021-08-03T11:43:01Z</time>
      </trkpt>
      <trkpt lat="48.44328" lon="7.28658">
        <ele>1021.4</ele>
        <time>2021-08-03T11:43:02Z</time>
      </trkpt>
      <trkpt lat="48.44325" lon="7.28663">
        <ele>1021.5</ele>
        <time>2021-08-03T11:43:03Z</time>
      </trkpt>
      <trkpt lat="48.44324" lon="7.28665">
        <ele>1021.5</ele>
        <time>2021-08-03T11:43:04Z</time>
      </trkpt>
      <trkpt lat="48.44323" lon="7.2867">
        <ele>1021.6</ele>
        <time>2021-08-03T11:43:05Z</time>
      </trkpt>
      <trkpt lat="48.44322" lon="7.28676">
        <ele>1021.7</ele>
        <time>2021-08-03T11:43:07Z</time>
      </trkpt>
      <trkpt lat="48.44321" lon="7.28681">
        <ele>1021.8</ele>
        <time>2021-08-03T11:43:08Z</time>
      </trkpt>
      <trkpt lat="48.4432" lon="7.28688">
        <ele>1021.8</ele>
        <time>2021-08-03T11:43:10Z</time>
      </trkpt>
      <trkpt lat="48.4432" lon="7.28693">
        <ele>1021.9</ele>
        <time>2021-08-03T11:43:11Z</time>
      </trkpt>
      <trkpt lat="48.4432" lon="7.28697">
        <ele>1022</ele>
        <time>2021-08-03T11:43:12Z</time>
      </trkpt>
      <trkpt lat="48.4432" lon="7.28702">
        <ele>1022</ele>
        <time>2021-08-03T11:43:13Z</time>
      </trkpt>
      <trkpt lat="48.4432" lon="7.28706">
        <ele>1022.1</ele>
        <time>2021-08-03T11:43:14Z</time>
      </trkpt>
      <trkpt lat="48.44319" lon="7.28711">
        <ele>1022.2</ele>
        <time>2021-08-03T11:43:16Z</time>
      </trkpt>
      <trkpt lat="48.44319" lon="7.28715">
        <ele>1022.2</ele>
        <time>2021-08-03T11:43:17Z</time>
      </trkpt>
      <trkpt lat="48.44319" lon="7.28722">
        <ele>1022.3</ele>
        <time>2021-08-03T11:43:19Z</time>
      </trkpt>
      <trkpt lat="48.44318" lon="7.28726">
        <ele>1022.3</ele>
        <time>2021-08-03T11:43:20Z</time>
      </trkpt>
      <trkpt lat="48.44319" lon="7.28734">
        <ele>1022.4</ele>
        <time>2021-08-03T11:43:22Z</time>
      </trkpt>
      <trkpt lat="48.44318" lon="7.2874">
        <ele>1022.4</ele>
        <time>2021-08-03T11:43:23Z</time>
      </trkpt>
      <trkpt lat="48.44317" lon="7.28742">
        <ele>1022.4</ele>
        <time>2021-08-03T11:43:24Z</time>
      </trkpt>
      <trkpt lat="48.44316" lon="7.28748">
        <ele>1022.3</ele>
        <time>2021-08-03T11:43:26Z</time>
      </trkpt>
      <trkpt lat="48.44313" lon="7.28751">
        <ele>1022.3</ele>
        <time>2021-08-03T11:43:27Z</time>
      </trkpt>
      <trkpt lat="48.44311" lon="7.28753">
        <ele>1022.3</ele>
        <time>2021-08-03T11:43:28Z</time>
      </trkpt>
      <trkpt lat="48.44307" lon="7.28758">
        <ele>1022.1</ele>
        <time>2021-08-03T11:43:30Z</time>
      </trkpt>
      <trkpt lat="48.44304" lon="7.28762">
        <ele>1022</ele>
        <time>2021-08-03T11:43:32Z</time>
      </trkpt>
      <trkpt lat="48.44301" lon="7.28764">
        <ele>1021.9</ele>
        <time>2021-08-03T11:43:33Z</time>
      </trkpt>
      <trkpt lat="48.443" lon="7.28768">
        <ele>1021.8</ele>
        <time>2021-08-03T11:43:35Z</time>
      </trkpt>
      <trkpt lat="48.44298" lon="7.28773">
        <ele>1021.6</ele>
        <time>2021-08-03T11:43:36Z</time>
      </trkpt>
      <trkpt lat="48.44298" lon="7.2878">
        <ele>1021.4</ele>
        <time>2021-08-03T11:43:38Z</time>
      </trkpt>
      <trkpt lat="48.44298" lon="7.28785">
        <ele>1021.2</ele>
        <time>2021-08-03T11:43:39Z</time>
      </trkpt>
      <trkpt lat="48.44297" lon="7.28794">
        <ele>1020.8</ele>
        <time>2021-08-03T11:43:41Z</time>
      </trkpt>
      <trkpt lat="48.44297" lon="7.28801">
        <ele>1020.5</ele>
        <time>2021-08-03T11:43:42Z</time>
      </trkpt>
      <trkpt lat="48.44295" lon="7.28811">
        <ele>1020</ele>
        <time>2021-08-03T11:43:44Z</time>
      </trkpt>
      <trkpt lat="48.44291" lon="7.28821">
        <ele>1019.5</ele>
        <time>2021-08-03T11:43:45Z</time>
      </trkpt>
      <trkpt lat="48.44283" lon="7.28841">
        <ele>1018.3</ele>
        <time>2021-08-03T11:43:46Z</time>
      </trkpt>
      <trkpt lat="48.44273" lon="7.28866">
        <ele>1016.7</ele>
        <time>2021-08-03T11:43:48Z</time>
      </trkpt>
      <trkpt lat="48.44261" lon="7.28893">
        <ele>1015.4</ele>
        <time>2021-08-03T11:43:50Z</time>
      </trkpt>
      <trkpt lat="48.44251" lon="7.28918">
        <ele>1014.4</ele>
        <time>2021-08-03T11:43:52Z</time>
      </trkpt>
      <trkpt lat="48.4424" lon="7.28943">
        <ele>1013.4</ele>
        <time>2021-08-03T11:43:54Z</time>
      </trkpt>
      <trkpt lat="48.44234" lon="7.28956">
        <ele>1013</ele>
        <time>2021-08-03T11:43:55Z</time>
      </trkpt>
      <trkpt lat="48.44228" lon="7.28969">
        <ele>1012.6</ele>
        <time>2021-08-03T11:43:56Z</time>
      </trkpt>
      <trkpt lat="48.44217" lon="7.28994">
        <ele>1012.1</ele>
        <time>2021-08-03T11:43:58Z</time>
      </trkpt>
      <trkpt lat="48.44212" lon="7.29005">
        <ele>1012</ele>
        <time>2021-08-03T11:43:59Z</time>
      </trkpt>
      <trkpt lat="48.44202" lon="7.29025">
        <ele>1011.8</ele>
        <time>2021-08-03T11:44:01Z</time>
      </trkpt>
      <trkpt lat="48.44196" lon="7.29034">
        <ele>1011.8</ele>
        <time>2021-08-03T11:44:02Z</time>
      </trkpt>
      <trkpt lat="48.44185" lon="7.29051">
        <ele>1011.9</ele>
        <time>2021-08-03T11:44:04Z</time>
      </trkpt>
      <trkpt lat="48.44178" lon="7.29068">
        <ele>1012</ele>
        <time>2021-08-03T11:44:06Z</time>
      </trkpt>
      <trkpt lat="48.44171" lon="7.29085">
        <ele>1012.1</ele>
        <time>2021-08-03T11:44:08Z</time>
      </trkpt>
      <trkpt lat="48.44165" lon="7.29099">
        <ele>1012.2</ele>
        <time>2021-08-03T11:44:10Z</time>
      </trkpt>
      <trkpt lat="48.4416" lon="7.29107">
        <ele>1012.2</ele>
        <time>2021-08-03T11:44:11Z</time>
      </trkpt>
      <trkpt lat="48.44157" lon="7.29115">
        <ele>1012.3</ele>
        <time>2021-08-03T11:44:12Z</time>
      </trkpt>
      <trkpt lat="48.44153" lon="7.29122">
        <ele>1012.4</ele>
        <time>2021-08-03T11:44:13Z</time>
      </trkpt>
      <trkpt lat="48.44148" lon="7.29129">
        <ele>1012.5</ele>
        <time>2021-08-03T11:44:14Z</time>
      </trkpt>
      <trkpt lat="48.4414" lon="7.29144">
        <ele>1012.7</ele>
        <time>2021-08-03T11:44:16Z</time>
      </trkpt>
      <trkpt lat="48.44134" lon="7.29158">
        <ele>1012.9</ele>
        <time>2021-08-03T11:44:18Z</time>
      </trkpt>
      <trkpt lat="48.44126" lon="7.29174">
        <ele>1013.2</ele>
        <time>2021-08-03T11:44:20Z</time>
      </trkpt>
      <trkpt lat="48.44118" lon="7.29189">
        <ele>1013.5</ele>
        <time>2021-08-03T11:44:22Z</time>
      </trkpt>
      <trkpt lat="48.4411" lon="7.29204">
        <ele>1013.7</ele>
        <time>2021-08-03T11:44:24Z</time>
      </trkpt>
      <trkpt lat="48.44102" lon="7.29218">
        <ele>1014</ele>
        <time>2021-08-03T11:44:26Z</time>
      </trkpt>
      <trkpt lat="48.44098" lon="7.29225">
        <ele>1014.1</ele>
        <time>2021-08-03T11:44:27Z</time>
      </trkpt>
      <trkpt lat="48.44092" lon="7.29239">
        <ele>1014.3</ele>
        <time>2021-08-03T11:44:29Z</time>
      </trkpt>
      <trkpt lat="48.44089" lon="7.29244">
        <ele>1014.4</ele>
        <time>2021-08-03T11:44:30Z</time>
      </trkpt>
      <trkpt lat="48.44083" lon="7.29255">
        <ele>1014.6</ele>
        <time>2021-08-03T11:44:32Z</time>
      </trkpt>
      <trkpt lat="48.4408" lon="7.29261">
        <ele>1014.7</ele>
        <time>2021-08-03T11:44:33Z</time>
      </trkpt>
      <trkpt lat="48.44076" lon="7.29271">
        <ele>1014.8</ele>
        <time>2021-08-03T11:44:35Z</time>
      </trkpt>
      <trkpt lat="48.44074" lon="7.29276">
        <ele>1014.9</ele>
        <time>2021-08-03T11:44:36Z</time>
      </trkpt>
      <trkpt lat="48.4407" lon="7.29285">
        <ele>1015</ele>
        <time>2021-08-03T11:44:38Z</time>
      </trkpt>
      <trkpt lat="48.44066" lon="7.29293">
        <ele>1015.1</ele>
        <time>2021-08-03T11:44:40Z</time>
      </trkpt>
      <trkpt lat="48.44063" lon="7.29302">
        <ele>1015.2</ele>
        <time>2021-08-03T11:44:41Z</time>
      </trkpt>
      <trkpt lat="48.4406" lon="7.29306">
        <ele>1015.3</ele>
        <time>2021-08-03T11:44:42Z</time>
      </trkpt>
      <trkpt lat="48.44056" lon="7.29309">
        <ele>1015.3</ele>
        <time>2021-08-03T11:44:44Z</time>
      </trkpt>
      <trkpt lat="48.44054" lon="7.29315">
        <ele>1015.4</ele>
        <time>2021-08-03T11:44:45Z</time>
      </trkpt>
      <trkpt lat="48.44051" lon="7.2932">
        <ele>1015.4</ele>
        <time>2021-08-03T11:44:46Z</time>
      </trkpt>
      <trkpt lat="48.44048" lon="7.29326">
        <ele>1015.4</ele>
        <time>2021-08-03T11:44:47Z</time>
      </trkpt>
      <trkpt lat="48.44044" lon="7.29341">
        <ele>1015.4</ele>
        <time>2021-08-03T11:44:49Z</time>
      </trkpt>
      <trkpt lat="48.44041" lon="7.29348">
        <ele>1015.4</ele>
        <time>2021-08-03T11:44:50Z</time>
      </trkpt>
      <trkpt lat="48.44035" lon="7.29358">
        <ele>1015.4</ele>
        <time>2021-08-03T11:44:52Z</time>
      </trkpt>
      <trkpt lat="48.44028" lon="7.29367">
        <ele>1015.4</ele>
        <time>2021-08-03T11:44:54Z</time>
      </trkpt>
      <trkpt lat="48.44025" lon="7.2937">
        <ele>1015.4</ele>
        <time>2021-08-03T11:44:55Z</time>
      </trkpt>
      <trkpt lat="48.4402" lon="7.29378">
        <ele>1015.3</ele>
        <time>2021-08-03T11:44:57Z</time>
      </trkpt>
      <trkpt lat="48.44016" lon="7.29381">
        <ele>1015.3</ele>
        <time>2021-08-03T11:44:58Z</time>
      </trkpt>
      <trkpt lat="48.44012" lon="7.29385">
        <ele>1015.2</ele>
        <time>2021-08-03T11:44:59Z</time>
      </trkpt>
      <trkpt lat="48.44006" lon="7.29392">
        <ele>1015.1</ele>
        <time>2021-08-03T11:45:01Z</time>
      </trkpt>
      <trkpt lat="48.43999" lon="7.29396">
        <ele>1015</ele>
        <time>2021-08-03T11:45:03Z</time>
      </trkpt>
      <trkpt lat="48.43995" lon="7.29399">
        <ele>1014.9</ele>
        <time>2021-08-03T11:45:04Z</time>
      </trkpt>
      <trkpt lat="48.43989" lon="7.29403">
        <ele>1014.8</ele>
        <time>2021-08-03T11:45:06Z</time>
      </trkpt>
      <trkpt lat="48.43984" lon="7.29405">
        <ele>1014.7</ele>
        <time>2021-08-03T11:45:07Z</time>
      </trkpt>
      <trkpt lat="48.4398" lon="7.29409">
        <ele>1014.5</ele>
        <time>2021-08-03T11:45:09Z</time>
      </trkpt>
      <trkpt lat="48.43975" lon="7.29413">
        <ele>1014.4</ele>
        <time>2021-08-03T11:45:10Z</time>
      </trkpt>
      <trkpt lat="48.43967" lon="7.29419">
        <ele>1014.1</ele>
        <time>2021-08-03T11:45:12Z</time>
      </trkpt>
      <trkpt lat="48.43962" lon="7.29423">
        <ele>1013.9</ele>
        <time>2021-08-03T11:45:13Z</time>
      </trkpt>
      <trkpt lat="48.43957" lon="7.29426">
        <ele>1013.6</ele>
        <time>2021-08-03T11:45:14Z</time>
      </trkpt>
      <trkpt lat="48.43953" lon="7.29431">
        <ele>1013.3</ele>
        <time>2021-08-03T11:45:15Z</time>
      </trkpt>
      <trkpt lat="48.43943" lon="7.2944">
        <ele>1012.7</ele>
        <time>2021-08-03T11:45:17Z</time>
      </trkpt>
      <trkpt lat="48.43937" lon="7.29444">
        <ele>1012.3</ele>
        <time>2021-08-03T11:45:18Z</time>
      </trkpt>
      <trkpt lat="48.43932" lon="7.29448">
        <ele>1011.9</ele>
        <time>2021-08-03T11:45:19Z</time>
      </trkpt>
      <trkpt lat="48.4392" lon="7.29454">
        <ele>1010.9</ele>
        <time>2021-08-03T11:45:21Z</time>
      </trkpt>
      <trkpt lat="48.43914" lon="7.29455">
        <ele>1010.4</ele>
        <time>2021-08-03T11:45:22Z</time>
      </trkpt>
      <trkpt lat="48.43908" lon="7.29457">
        <ele>1009.9</ele>
        <time>2021-08-03T11:45:23Z</time>
      </trkpt>
      <trkpt lat="48.43895" lon="7.29467">
        <ele>1008.8</ele>
        <time>2021-08-03T11:45:25Z</time>
      </trkpt>
      <trkpt lat="48.43888" lon="7.29472">
        <ele>1008.1</ele>
        <time>2021-08-03T11:45:26Z</time>
      </trkpt>
      <trkpt lat="48.4388" lon="7.29477">
        <ele>1007.4</ele>
        <time>2021-08-03T11:45:27Z</time>
      </trkpt>
      <trkpt lat="48.43864" lon="7.29486">
        <ele>1006</ele>
        <time>2021-08-03T11:45:29Z</time>
      </trkpt>
      <trkpt lat="48.43855" lon="7.2949">
        <ele>1005.3</ele>
        <time>2021-08-03T11:45:30Z</time>
      </trkpt>
      <trkpt lat="48.43838" lon="7.29496">
        <ele>1004</ele>
        <time>2021-08-03T11:45:32Z</time>
      </trkpt>
      <trkpt lat="48.43818" lon="7.295">
        <ele>1002.5</ele>
        <time>2021-08-03T11:45:34Z</time>
      </trkpt>
      <trkpt lat="48.43807" lon="7.29502">
        <ele>1001.8</ele>
        <time>2021-08-03T11:45:35Z</time>
      </trkpt>
      <trkpt lat="48.43797" lon="7.29505">
        <ele>1001</ele>
        <time>2021-08-03T11:45:36Z</time>
      </trkpt>
      <trkpt lat="48.43778" lon="7.29511">
        <ele>999.7</ele>
        <time>2021-08-03T11:45:38Z</time>
      </trkpt>
      <trkpt lat="48.43759" lon="7.29518">
        <ele>998.6</ele>
        <time>2021-08-03T11:45:40Z</time>
      </trkpt>
      <trkpt lat="48.4375" lon="7.29522">
        <ele>998.1</ele>
        <time>2021-08-03T11:45:41Z</time>
      </trkpt>
      <trkpt lat="48.43732" lon="7.2953">
        <ele>997.4</ele>
        <time>2021-08-03T11:45:43Z</time>
      </trkpt>
      <trkpt lat="48.43722" lon="7.29532">
        <ele>997</ele>
        <time>2021-08-03T11:45:44Z</time>
      </trkpt>
      <trkpt lat="48.43704" lon="7.2954">
        <ele>996.5</ele>
        <time>2021-08-03T11:45:46Z</time>
      </trkpt>
      <trkpt lat="48.43688" lon="7.29548">
        <ele>996.2</ele>
        <time>2021-08-03T11:45:48Z</time>
      </trkpt>
      <trkpt lat="48.4368" lon="7.29552">
        <ele>996.2</ele>
        <time>2021-08-03T11:45:49Z</time>
      </trkpt>
      <trkpt lat="48.43673" lon="7.29556">
        <ele>996.1</ele>
        <time>2021-08-03T11:45:50Z</time>
      </trkpt>
      <trkpt lat="48.43658" lon="7.29562">
        <ele>996.1</ele>
        <time>2021-08-03T11:45:52Z</time>
      </trkpt>
      <trkpt lat="48.4365" lon="7.29566">
        <ele>996.1</ele>
        <time>2021-08-03T11:45:53Z</time>
      </trkpt>
      <trkpt lat="48.43642" lon="7.29569">
        <ele>996.1</ele>
        <time>2021-08-03T11:45:54Z</time>
      </trkpt>
      <trkpt lat="48.43628" lon="7.29576">
        <ele>996.3</ele>
        <time>2021-08-03T11:45:56Z</time>
      </trkpt>
      <trkpt lat="48.43621" lon="7.29578">
        <ele>996.4</ele>
        <time>2021-08-03T11:45:57Z</time>
      </trkpt>
      <trkpt lat="48.43607" lon="7.29583">
        <ele>996.6</ele>
        <time>2021-08-03T11:45:59Z</time>
      </trkpt>
      <trkpt lat="48.43595" lon="7.29587">
        <ele>996.7</ele>
        <time>2021-08-03T11:46:01Z</time>
      </trkpt>
      <trkpt lat="48.43583" lon="7.29592">
        <ele>996.9</ele>
        <time>2021-08-03T11:46:03Z</time>
      </trkpt>
      <trkpt lat="48.43577" lon="7.29593">
        <ele>997.1</ele>
        <time>2021-08-03T11:46:04Z</time>
      </trkpt>
      <trkpt lat="48.43567" lon="7.29597">
        <ele>997.5</ele>
        <time>2021-08-03T11:46:06Z</time>
      </trkpt>
      <trkpt lat="48.43562" lon="7.296">
        <ele>997.8</ele>
        <time>2021-08-03T11:46:07Z</time>
      </trkpt>
      <trkpt lat="48.43558" lon="7.29602">
        <ele>998</ele>
        <time>2021-08-03T11:46:08Z</time>
      </trkpt>
      <trkpt lat="48.43551" lon="7.29606">
        <ele>998.4</ele>
        <time>2021-08-03T11:46:10Z</time>
      </trkpt>
      <trkpt lat="48.43547" lon="7.29608">
        <ele>998.6</ele>
        <time>2021-08-03T11:46:11Z</time>
      </trkpt>
      <trkpt lat="48.43543" lon="7.2961">
        <ele>998.9</ele>
        <time>2021-08-03T11:46:12Z</time>
      </trkpt>
      <trkpt lat="48.43536" lon="7.29613">
        <ele>999.3</ele>
        <time>2021-08-03T11:46:14Z</time>
      </trkpt>
      <trkpt lat="48.43532" lon="7.29615">
        <ele>999.6</ele>
        <time>2021-08-03T11:46:15Z</time>
      </trkpt>
      <trkpt lat="48.43532" lon="7.29617">
        <ele>999.7</ele>
        <time>2021-08-03T11:46:16Z</time>
      </trkpt>
      <trkpt lat="48.43527" lon="7.2962">
        <ele>1000</ele>
        <time>2021-08-03T11:46:18Z</time>
      </trkpt>
      <trkpt lat="48.43521" lon="7.29622">
        <ele>1000.3</ele>
        <time>2021-08-03T11:46:20Z</time>
      </trkpt>
      <trkpt lat="48.43516" lon="7.29623">
        <ele>1000.7</ele>
        <time>2021-08-03T11:46:22Z</time>
      </trkpt>
      <trkpt lat="48.4351" lon="7.29625">
        <ele>1001.1</ele>
        <time>2021-08-03T11:46:24Z</time>
      </trkpt>
      <trkpt lat="48.43504" lon="7.29628">
        <ele>1001.4</ele>
        <time>2021-08-03T11:46:26Z</time>
      </trkpt>
      <trkpt lat="48.435" lon="7.29629">
        <ele>1001.7</ele>
        <time>2021-08-03T11:46:27Z</time>
      </trkpt>
      <trkpt lat="48.43497" lon="7.2963">
        <ele>1001.9</ele>
        <time>2021-08-03T11:46:28Z</time>
      </trkpt>
      <trkpt lat="48.43493" lon="7.29631">
        <ele>1002.2</ele>
        <time>2021-08-03T11:46:30Z</time>
      </trkpt>
      <trkpt lat="48.43488" lon="7.29632">
        <ele>1002.6</ele>
        <time>2021-08-03T11:46:32Z</time>
      </trkpt>
      <trkpt lat="48.43484" lon="7.29632">
        <ele>1002.9</ele>
        <time>2021-08-03T11:46:34Z</time>
      </trkpt>
      <trkpt lat="48.43481" lon="7.29633">
        <ele>1003.2</ele>
        <time>2021-08-03T11:46:36Z</time>
      </trkpt>
      <trkpt lat="48.43479" lon="7.29634">
        <ele>1003.3</ele>
        <time>2021-08-03T11:46:37Z</time>
      </trkpt>
      <trkpt lat="48.43478" lon="7.29635">
        <ele>1003.4</ele>
        <time>2021-08-03T11:46:38Z</time>
      </trkpt>
      <trkpt lat="48.43475" lon="7.29636">
        <ele>1003.6</ele>
        <time>2021-08-03T11:46:39Z</time>
      </trkpt>
      <trkpt lat="48.43471" lon="7.29638">
        <ele>1004</ele>
        <time>2021-08-03T11:46:41Z</time>
      </trkpt>
      <trkpt lat="48.43468" lon="7.2964">
        <ele>1004.3</ele>
        <time>2021-08-03T11:46:43Z</time>
      </trkpt>
      <trkpt lat="48.43464" lon="7.29643">
        <ele>1004.7</ele>
        <time>2021-08-03T11:46:45Z</time>
      </trkpt>
      <trkpt lat="48.43462" lon="7.29645">
        <ele>1004.9</ele>
        <time>2021-08-03T11:46:46Z</time>
      </trkpt>
      <trkpt lat="48.43459" lon="7.29648">
        <ele>1005.1</ele>
        <time>2021-08-03T11:46:48Z</time>
      </trkpt>
      <trkpt lat="48.43457" lon="7.2965">
        <ele>1005.4</ele>
        <time>2021-08-03T11:46:49Z</time>
      </trkpt>
      <trkpt lat="48.43454" lon="7.29652">
        <ele>1005.7</ele>
        <time>2021-08-03T11:46:50Z</time>
      </trkpt>
      <trkpt lat="48.43453" lon="7.29653">
        <ele>1005.8</ele>
        <time>2021-08-03T11:46:51Z</time>
      </trkpt>
      <trkpt lat="48.43449" lon="7.29657">
        <ele>1006.1</ele>
        <time>2021-08-03T11:46:53Z</time>
      </trkpt>
      <trkpt lat="48.43448" lon="7.29658">
        <ele>1006.2</ele>
        <time>2021-08-03T11:46:55Z</time>
      </trkpt>
      <trkpt lat="48.43447" lon="7.29659">
        <ele>1006.3</ele>
        <time>2021-08-03T11:46:56Z</time>
      </trkpt>
      <trkpt lat="48.43445" lon="7.29661">
        <ele>1006.5</ele>
        <time>2021-08-03T11:46:57Z</time>
      </trkpt>
      <trkpt lat="48.43443" lon="7.29662">
        <ele>1006.7</ele>
        <time>2021-08-03T11:46:59Z</time>
      </trkpt>
      <trkpt lat="48.43439" lon="7.29662">
        <ele>1007</ele>
        <time>2021-08-03T11:47:00Z</time>
      </trkpt>
      <trkpt lat="48.43435" lon="7.29665">
        <ele>1007.3</ele>
        <time>2021-08-03T11:47:02Z</time>
      </trkpt>
      <trkpt lat="48.43434" lon="7.29666">
        <ele>1007.4</ele>
        <time>2021-08-03T11:47:03Z</time>
      </trkpt>
      <trkpt lat="48.43431" lon="7.29671">
        <ele>1007.7</ele>
        <time>2021-08-03T11:47:05Z</time>
      </trkpt>
      <trkpt lat="48.4343" lon="7.29673">
        <ele>1007.9</ele>
        <time>2021-08-03T11:47:06Z</time>
      </trkpt>
      <trkpt lat="48.43429" lon="7.29674">
        <ele>1008</ele>
        <time>2021-08-03T11:47:07Z</time>
      </trkpt>
      <trkpt lat="48.43427" lon="7.29675">
        <ele>1008.1</ele>
        <time>2021-08-03T11:47:08Z</time>
      </trkpt>
      <trkpt lat="48.43424" lon="7.29675">
        <ele>1008.3</ele>
        <time>2021-08-03T11:47:10Z</time>
      </trkpt>
      <trkpt lat="48.43424" lon="7.29677">
        <ele>1008.4</ele>
        <time>2021-08-03T11:47:12Z</time>
      </trkpt>
      <trkpt lat="48.43424" lon="7.29677">
        <ele>1008.4</ele>
        <time>2021-08-03T11:47:14Z</time>
      </trkpt>
      <trkpt lat="48.43425" lon="7.29677">
        <ele>1008.5</ele>
        <time>2021-08-03T11:47:16Z</time>
      </trkpt>
      <trkpt lat="48.43425" lon="7.29677">
        <ele>1008.5</ele>
        <time>2021-08-03T11:47:17Z</time>
      </trkpt>
      <trkpt lat="48.43424" lon="7.29677">
        <ele>1008.5</ele>
        <time>2021-08-03T11:47:18Z</time>
      </trkpt>
      <trkpt lat="48.43422" lon="7.29678">
        <ele>1008.7</ele>
        <time>2021-08-03T11:47:20Z</time>
      </trkpt>
      <trkpt lat="48.43416" lon="7.2968">
        <ele>1009.1</ele>
        <time>2021-08-03T11:47:24Z</time>
      </trkpt>
      <trkpt lat="48.43412" lon="7.29682">
        <ele>1009.3</ele>
        <time>2021-08-03T11:47:25Z</time>
      </trkpt>
      <trkpt lat="48.43408" lon="7.29686">
        <ele>1009.6</ele>
        <time>2021-08-03T11:47:26Z</time>
      </trkpt>
      <trkpt lat="48.43401" lon="7.29691">
        <ele>1010</ele>
        <time>2021-08-03T11:47:28Z</time>
      </trkpt>
      <trkpt lat="48.43397" lon="7.29694">
        <ele>1010.2</ele>
        <time>2021-08-03T11:47:29Z</time>
      </trkpt>
      <trkpt lat="48.4339" lon="7.29696">
        <ele>1010.5</ele>
        <time>2021-08-03T11:47:31Z</time>
      </trkpt>
      <trkpt lat="48.43386" lon="7.29699">
        <ele>1010.6</ele>
        <time>2021-08-03T11:47:32Z</time>
      </trkpt>
      <trkpt lat="48.43384" lon="7.29702">
        <ele>1010.7</ele>
        <time>2021-08-03T11:47:33Z</time>
      </trkpt>
      <trkpt lat="48.43381" lon="7.29704">
        <ele>1010.8</ele>
        <time>2021-08-03T11:47:34Z</time>
      </trkpt>
      <trkpt lat="48.43377" lon="7.29707">
        <ele>1010.9</ele>
        <time>2021-08-03T11:47:36Z</time>
      </trkpt>
      <trkpt lat="48.43373" lon="7.29708">
        <ele>1011</ele>
        <time>2021-08-03T11:47:37Z</time>
      </trkpt>
      <trkpt lat="48.4337" lon="7.29709">
        <ele>1011.1</ele>
        <time>2021-08-03T11:47:38Z</time>
      </trkpt>
      <trkpt lat="48.43366" lon="7.2971">
        <ele>1011.1</ele>
        <time>2021-08-03T11:47:39Z</time>
      </trkpt>
      <trkpt lat="48.43362" lon="7.29711">
        <ele>1011.2</ele>
        <time>2021-08-03T11:47:40Z</time>
      </trkpt>
      <trkpt lat="48.43357" lon="7.29712">
        <ele>1011.2</ele>
        <time>2021-08-03T11:47:42Z</time>
      </trkpt>
      <trkpt lat="48.43353" lon="7.29713">
        <ele>1011.3</ele>
        <time>2021-08-03T11:47:43Z</time>
      </trkpt>
      <trkpt lat="48.4335" lon="7.29715">
        <ele>1011.3</ele>
        <time>2021-08-03T11:47:44Z</time>
      </trkpt>
      <trkpt lat="48.43347" lon="7.29716">
        <ele>1011.2</ele>
        <time>2021-08-03T11:47:45Z</time>
      </trkpt>
      <trkpt lat="48.43344" lon="7.29718">
        <ele>1011.2</ele>
        <time>2021-08-03T11:47:46Z</time>
      </trkpt>
      <trkpt lat="48.43342" lon="7.2972">
        <ele>1011.2</ele>
        <time>2021-08-03T11:47:48Z</time>
      </trkpt>
      <trkpt lat="48.4334" lon="7.29721">
        <ele>1011.2</ele>
        <time>2021-08-03T11:47:49Z</time>
      </trkpt>
      <trkpt lat="48.4334" lon="7.29722">
        <ele>1011.1</ele>
        <time>2021-08-03T11:47:50Z</time>
      </trkpt>
      <trkpt lat="48.43337" lon="7.29725">
        <ele>1011.1</ele>
        <time>2021-08-03T11:47:52Z</time>
      </trkpt>
      <trkpt lat="48.43334" lon="7.29729">
        <ele>1011</ele>
        <time>2021-08-03T11:47:53Z</time>
      </trkpt>
      <trkpt lat="48.43331" lon="7.2973">
        <ele>1010.9</ele>
        <time>2021-08-03T11:47:54Z</time>
      </trkpt>
      <trkpt lat="48.43327" lon="7.29733">
        <ele>1010.8</ele>
        <time>2021-08-03T11:47:56Z</time>
      </trkpt>
      <trkpt lat="48.43324" lon="7.29736">
        <ele>1010.6</ele>
        <time>2021-08-03T11:47:57Z</time>
      </trkpt>
      <trkpt lat="48.4332" lon="7.29739">
        <ele>1010.5</ele>
        <time>2021-08-03T11:47:58Z</time>
      </trkpt>
      <trkpt lat="48.43314" lon="7.29744">
        <ele>1010.2</ele>
        <time>2021-08-03T11:47:59Z</time>
      </trkpt>
      <trkpt lat="48.43305" lon="7.29752">
        <ele>1009.7</ele>
        <time>2021-08-03T11:48:01Z</time>
      </trkpt>
      <trkpt lat="48.433" lon="7.29756">
        <ele>1009.5</ele>
        <time>2021-08-03T11:48:02Z</time>
      </trkpt>
      <trkpt lat="48.4329" lon="7.29763">
        <ele>1009</ele>
        <time>2021-08-03T11:48:04Z</time>
      </trkpt>
      <trkpt lat="48.43286" lon="7.29767">
        <ele>1008.7</ele>
        <time>2021-08-03T11:48:05Z</time>
      </trkpt>
      <trkpt lat="48.43281" lon="7.29772">
        <ele>1008.4</ele>
        <time>2021-08-03T11:48:06Z</time>
      </trkpt>
      <trkpt lat="48.43271" lon="7.29779">
        <ele>1007.9</ele>
        <time>2021-08-03T11:48:08Z</time>
      </trkpt>
      <trkpt lat="48.43259" lon="7.29785">
        <ele>1007.4</ele>
        <time>2021-08-03T11:48:10Z</time>
      </trkpt>
      <trkpt lat="48.43249" lon="7.29791">
        <ele>1007.1</ele>
        <time>2021-08-03T11:48:12Z</time>
      </trkpt>
      <trkpt lat="48.43244" lon="7.29794">
        <ele>1007</ele>
        <time>2021-08-03T11:48:13Z</time>
      </trkpt>
      <trkpt lat="48.43239" lon="7.29798">
        <ele>1006.9</ele>
        <time>2021-08-03T11:48:14Z</time>
      </trkpt>
      <trkpt lat="48.4323" lon="7.29806">
        <ele>1006.7</ele>
        <time>2021-08-03T11:48:16Z</time>
      </trkpt>
      <trkpt lat="48.43225" lon="7.29811">
        <ele>1006.6</ele>
        <time>2021-08-03T11:48:17Z</time>
      </trkpt>
      <trkpt lat="48.43219" lon="7.29819">
        <ele>1006.5</ele>
        <time>2021-08-03T11:48:19Z</time>
      </trkpt>
      <trkpt lat="48.43211" lon="7.29825">
        <ele>1006.4</ele>
        <time>2021-08-03T11:48:21Z</time>
      </trkpt>
      <trkpt lat="48.43207" lon="7.29828">
        <ele>1006.4</ele>
        <time>2021-08-03T11:48:22Z</time>
      </trkpt>
      <trkpt lat="48.43201" lon="7.29834">
        <ele>1006.3</ele>
        <time>2021-08-03T11:48:24Z</time>
      </trkpt>
      <trkpt lat="48.43196" lon="7.29843">
        <ele>1006.2</ele>
        <time>2021-08-03T11:48:26Z</time>
      </trkpt>
      <trkpt lat="48.43195" lon="7.29847">
        <ele>1006.2</ele>
        <time>2021-08-03T11:48:27Z</time>
      </trkpt>
      <trkpt lat="48.43192" lon="7.29852">
        <ele>1006.2</ele>
        <time>2021-08-03T11:48:28Z</time>
      </trkpt>
      <trkpt lat="48.43185" lon="7.29859">
        <ele>1006.2</ele>
        <time>2021-08-03T11:48:30Z</time>
      </trkpt>
      <trkpt lat="48.43178" lon="7.29866">
        <ele>1006.2</ele>
        <time>2021-08-03T11:48:32Z</time>
      </trkpt>
      <trkpt lat="48.43174" lon="7.29866">
        <ele>1006.2</ele>
        <time>2021-08-03T11:48:33Z</time>
      </trkpt>
      <trkpt lat="48.4317" lon="7.29869">
        <ele>1006.3</ele>
        <time>2021-08-03T11:48:34Z</time>
      </trkpt>
      <trkpt lat="48.43165" lon="7.29875">
        <ele>1006.3</ele>
        <time>2021-08-03T11:48:36Z</time>
      </trkpt>
      <trkpt lat="48.43157" lon="7.29884">
        <ele>1006.4</ele>
        <time>2021-08-03T11:48:37Z</time>
      </trkpt>
      <trkpt lat="48.43155" lon="7.29888">
        <ele>1006.4</ele>
        <time>2021-08-03T11:48:38Z</time>
      </trkpt>
      <trkpt lat="48.43151" lon="7.29893">
        <ele>1006.5</ele>
        <time>2021-08-03T11:48:40Z</time>
      </trkpt>
      <trkpt lat="48.43147" lon="7.29896">
        <ele>1006.5</ele>
        <time>2021-08-03T11:48:41Z</time>
      </trkpt>
      <trkpt lat="48.4314" lon="7.29901">
        <ele>1006.6</ele>
        <time>2021-08-03T11:48:42Z</time>
      </trkpt>
      <trkpt lat="48.43131" lon="7.2991">
        <ele>1006.7</ele>
        <time>2021-08-03T11:48:44Z</time>
      </trkpt>
      <trkpt lat="48.43126" lon="7.29919">
        <ele>1006.8</ele>
        <time>2021-08-03T11:48:46Z</time>
      </trkpt>
      <trkpt lat="48.43125" lon="7.29923">
        <ele>1006.8</ele>
        <time>2021-08-03T11:48:47Z</time>
      </trkpt>
      <trkpt lat="48.43121" lon="7.29927">
        <ele>1006.8</ele>
        <time>2021-08-03T11:48:48Z</time>
      </trkpt>
      <trkpt lat="48.43116" lon="7.29931">
        <ele>1006.9</ele>
        <time>2021-08-03T11:48:50Z</time>
      </trkpt>
      <trkpt lat="48.43112" lon="7.29934">
        <ele>1006.9</ele>
        <time>2021-08-03T11:48:51Z</time>
      </trkpt>
      <trkpt lat="48.43106" lon="7.2994">
        <ele>1006.9</ele>
        <time>2021-08-03T11:48:52Z</time>
      </trkpt>
      <trkpt lat="48.43103" lon="7.29944">
        <ele>1007</ele>
        <time>2021-08-03T11:48:53Z</time>
      </trkpt>
      <trkpt lat="48.43099" lon="7.29948">
        <ele>1007</ele>
        <time>2021-08-03T11:48:54Z</time>
      </trkpt>
      <trkpt lat="48.43096" lon="7.29952">
        <ele>1007.1</ele>
        <time>2021-08-03T11:48:55Z</time>
      </trkpt>
      <trkpt lat="48.43092" lon="7.29957">
        <ele>1007.1</ele>
        <time>2021-08-03T11:48:57Z</time>
      </trkpt>
      <trkpt lat="48.43088" lon="7.29961">
        <ele>1007.2</ele>
        <time>2021-08-03T11:48:58Z</time>
      </trkpt>
      <trkpt lat="48.43083" lon="7.29967">
        <ele>1007.4</ele>
        <time>2021-08-03T11:48:59Z</time>
      </trkpt>
      <trkpt lat="48.4308" lon="7.29972">
        <ele>1007.5</ele>
        <time>2021-08-03T11:49:00Z</time>
      </trkpt>
      <trkpt lat="48.43073" lon="7.29978">
        <ele>1007.8</ele>
        <time>2021-08-03T11:49:02Z</time>
      </trkpt>
      <trkpt lat="48.43069" lon="7.29984">
        <ele>1008</ele>
        <time>2021-08-03T11:49:04Z</time>
      </trkpt>
      <trkpt lat="48.43064" lon="7.29989">
        <ele>1008.2</ele>
        <time>2021-08-03T11:49:06Z</time>
      </trkpt>
      <trkpt lat="48.43061" lon="7.29992">
        <ele>1008.4</ele>
        <time>2021-08-03T11:49:07Z</time>
      </trkpt>
      <trkpt lat="48.43058" lon="7.29996">
        <ele>1008.5</ele>
        <time>2021-08-03T11:49:09Z</time>
      </trkpt>
      <trkpt lat="48.43055" lon="7.3">
        <ele>1008.7</ele>
        <time>2021-08-03T11:49:10Z</time>
      </trkpt>
      <trkpt lat="48.43054" lon="7.30001">
        <ele>1008.7</ele>
        <time>2021-08-03T11:49:11Z</time>
      </trkpt>
      <trkpt lat="48.43051" lon="7.30005">
        <ele>1008.9</ele>
        <time>2021-08-03T11:49:12Z</time>
      </trkpt>
      <trkpt lat="48.43047" lon="7.30009">
        <ele>1009.1</ele>
        <time>2021-08-03T11:49:14Z</time>
      </trkpt>
      <trkpt lat="48.43043" lon="7.30013">
        <ele>1009.3</ele>
        <time>2021-08-03T11:49:15Z</time>
      </trkpt>
      <trkpt lat="48.43041" lon="7.30016">
        <ele>1009.4</ele>
        <time>2021-08-03T11:49:16Z</time>
      </trkpt>
      <trkpt lat="48.43039" lon="7.3002">
        <ele>1009.6</ele>
        <time>2021-08-03T11:49:17Z</time>
      </trkpt>
      <trkpt lat="48.43037" lon="7.30024">
        <ele>1009.7</ele>
        <time>2021-08-03T11:49:18Z</time>
      </trkpt>
      <trkpt lat="48.43036" lon="7.30026">
        <ele>1009.8</ele>
        <time>2021-08-03T11:49:19Z</time>
      </trkpt>
      <trkpt lat="48.43035" lon="7.30028">
        <ele>1009.9</ele>
        <time>2021-08-03T11:49:21Z</time>
      </trkpt>
      <trkpt lat="48.43032" lon="7.30031">
        <ele>1010</ele>
        <time>2021-08-03T11:49:22Z</time>
      </trkpt>
      <trkpt lat="48.43031" lon="7.30032">
        <ele>1010</ele>
        <time>2021-08-03T11:49:23Z</time>
      </trkpt>
      <trkpt lat="48.43028" lon="7.30036">
        <ele>1010.2</ele>
        <time>2021-08-03T11:49:24Z</time>
      </trkpt>
      <trkpt lat="48.43026" lon="7.30038">
        <ele>1010.2</ele>
        <time>2021-08-03T11:49:25Z</time>
      </trkpt>
      <trkpt lat="48.43025" lon="7.30041">
        <ele>1010.3</ele>
        <time>2021-08-03T11:49:26Z</time>
      </trkpt>
      <trkpt lat="48.43021" lon="7.30044">
        <ele>1010.4</ele>
        <time>2021-08-03T11:49:27Z</time>
      </trkpt>
      <trkpt lat="48.4302" lon="7.30044">
        <ele>1010.4</ele>
        <time>2021-08-03T11:49:28Z</time>
      </trkpt>
      <trkpt lat="48.43017" lon="7.30046">
        <ele>1010.5</ele>
        <time>2021-08-03T11:49:30Z</time>
      </trkpt>
      <trkpt lat="48.43016" lon="7.30047">
        <ele>1010.5</ele>
        <time>2021-08-03T11:49:31Z</time>
      </trkpt>
      <trkpt lat="48.43014" lon="7.30047">
        <ele>1010.6</ele>
        <time>2021-08-03T11:49:32Z</time>
      </trkpt>
      <trkpt lat="48.43011" lon="7.30046">
        <ele>1010.7</ele>
        <time>2021-08-03T11:49:33Z</time>
      </trkpt>
      <trkpt lat="48.43007" lon="7.30042">
        <ele>1012.3</ele>
        <time>2021-08-03T11:49:35Z</time>
      </trkpt>
      <trkpt lat="48.43005" lon="7.3004">
        <ele>1012.8</ele>
        <time>2021-08-03T11:49:37Z</time>
      </trkpt>
      <trkpt lat="48.43002" lon="7.30038">
        <ele>1013.3</ele>
        <time>2021-08-03T11:49:38Z</time>
      </trkpt>
      <trkpt lat="48.43001" lon="7.30036">
        <ele>1013.6</ele>
        <time>2021-08-03T11:49:39Z</time>
      </trkpt>
      <trkpt lat="48.43" lon="7.30034">
        <ele>1013.9</ele>
        <time>2021-08-03T11:49:40Z</time>
      </trkpt>
      <trkpt lat="48.42999" lon="7.30032">
        <ele>1014.2</ele>
        <time>2021-08-03T11:49:41Z</time>
      </trkpt>
      <trkpt lat="48.42997" lon="7.30026">
        <ele>1015</ele>
        <time>2021-08-03T11:49:43Z</time>
      </trkpt>
      <trkpt lat="48.42995" lon="7.30023">
        <ele>1015.5</ele>
        <time>2021-08-03T11:49:44Z</time>
      </trkpt>
      <trkpt lat="48.42992" lon="7.30019">
        <ele>1016.3</ele>
        <time>2021-08-03T11:49:46Z</time>
      </trkpt>
      <trkpt lat="48.42989" lon="7.30017">
        <ele>1016.9</ele>
        <time>2021-08-03T11:49:47Z</time>
      </trkpt>
      <trkpt lat="48.42986" lon="7.30014">
        <ele>1017.6</ele>
        <time>2021-08-03T11:49:48Z</time>
      </trkpt>
      <trkpt lat="48.42985" lon="7.30012">
        <ele>1017.7</ele>
        <time>2021-08-03T11:49:49Z</time>
      </trkpt>
      <trkpt lat="48.42984" lon="7.3001">
        <ele>1017.7</ele>
        <time>2021-08-03T11:49:50Z</time>
      </trkpt>
      <trkpt lat="48.42981" lon="7.30007">
        <ele>1017.7</ele>
        <time>2021-08-03T11:49:52Z</time>
      </trkpt>
      <trkpt lat="48.4298" lon="7.30006">
        <ele>1017.7</ele>
        <time>2021-08-03T11:49:53Z</time>
      </trkpt>
      <trkpt lat="48.42979" lon="7.30004">
        <ele>1017.8</ele>
        <time>2021-08-03T11:49:54Z</time>
      </trkpt>
      <trkpt lat="48.42979" lon="7.30002">
        <ele>1017.8</ele>
        <time>2021-08-03T11:49:55Z</time>
      </trkpt>
      <trkpt lat="48.42978" lon="7.30001">
        <ele>1017.8</ele>
        <time>2021-08-03T11:49:56Z</time>
      </trkpt>
      <trkpt lat="48.42976" lon="7.29994">
        <ele>1017.8</ele>
        <time>2021-08-03T11:49:58Z</time>
      </trkpt>
      <trkpt lat="48.42973" lon="7.29988">
        <ele>1017.8</ele>
        <time>2021-08-03T11:50:00Z</time>
      </trkpt>
      <trkpt lat="48.4297" lon="7.29982">
        <ele>1017.8</ele>
        <time>2021-08-03T11:50:01Z</time>
      </trkpt>
      <trkpt lat="48.42968" lon="7.29978">
        <ele>1017.9</ele>
        <time>2021-08-03T11:50:02Z</time>
      </trkpt>
      <trkpt lat="48.42967" lon="7.29975">
        <ele>1017.9</ele>
        <time>2021-08-03T11:50:03Z</time>
      </trkpt>
      <trkpt lat="48.42968" lon="7.29973">
        <ele>1017.9</ele>
        <time>2021-08-03T11:50:05Z</time>
      </trkpt>
      <trkpt lat="48.42968" lon="7.29971">
        <ele>1017.9</ele>
        <time>2021-08-03T11:50:06Z</time>
      </trkpt>
      <trkpt lat="48.42968" lon="7.29971">
        <ele>1017.9</ele>
        <time>2021-08-03T11:50:07Z</time>
      </trkpt>
      <trkpt lat="48.42968" lon="7.29968">
        <ele>1017.9</ele>
        <time>2021-08-03T11:50:08Z</time>
      </trkpt>
      <trkpt lat="48.42966" lon="7.2996">
        <ele>1017.9</ele>
        <time>2021-08-03T11:50:10Z</time>
      </trkpt>
      <trkpt lat="48.42964" lon="7.29954">
        <ele>1017.9</ele>
        <time>2021-08-03T11:50:11Z</time>
      </trkpt>
      <trkpt lat="48.42962" lon="7.29947">
        <ele>1017.9</ele>
        <time>2021-08-03T11:50:12Z</time>
      </trkpt>
      <trkpt lat="48.4296" lon="7.29936">
        <ele>1017.9</ele>
        <time>2021-08-03T11:50:14Z</time>
      </trkpt>
      <trkpt lat="48.42959" lon="7.29929">
        <ele>1017.9</ele>
        <time>2021-08-03T11:50:16Z</time>
      </trkpt>
      <trkpt lat="48.4296" lon="7.29925">
        <ele>1018</ele>
        <time>2021-08-03T11:50:17Z</time>
      </trkpt>
      <trkpt lat="48.4296" lon="7.29923">
        <ele>1018</ele>
        <time>2021-08-03T11:50:18Z</time>
      </trkpt>
      <trkpt lat="48.42959" lon="7.29916">
        <ele>1018</ele>
        <time>2021-08-03T11:50:20Z</time>
      </trkpt>
      <trkpt lat="48.42957" lon="7.29915">
        <ele>1018</ele>
        <time>2021-08-03T11:50:22Z</time>
      </trkpt>
      <trkpt lat="48.42957" lon="7.29915">
        <ele>1018</ele>
        <time>2021-08-03T11:50:23Z</time>
      </trkpt>
      <trkpt lat="48.42957" lon="7.29915">
        <ele>1018</ele>
        <time>2021-08-03T11:50:24Z</time>
      </trkpt>
      <trkpt lat="48.42957" lon="7.29915">
        <ele>1018</ele>
        <time>2021-08-03T11:50:25Z</time>
      </trkpt>
      <trkpt lat="48.42957" lon="7.29915">
        <ele>1018</ele>
        <time>2021-08-03T11:50:26Z</time>
      </trkpt>
      <trkpt lat="48.42957" lon="7.29912">
        <ele>1018</ele>
        <time>2021-08-03T11:50:28Z</time>
      </trkpt>
      <trkpt lat="48.42957" lon="7.2991">
        <ele>1018</ele>
        <time>2021-08-03T11:50:29Z</time>
      </trkpt>
      <trkpt lat="48.42957" lon="7.29908">
        <ele>1018</ele>
        <time>2021-08-03T11:50:30Z</time>
      </trkpt>
      <trkpt lat="48.42956" lon="7.29906">
        <ele>1018</ele>
        <time>2021-08-03T11:50:31Z</time>
      </trkpt>
      <trkpt lat="48.42956" lon="7.29903">
        <ele>1018.1</ele>
        <time>2021-08-03T11:50:32Z</time>
      </trkpt>
      <trkpt lat="48.42745" lon="7.29482">
        <ele>1025.4</ele>
        <time>2021-08-03T11:52:33Z</time>
      </trkpt>
      <trkpt lat="48.42743" lon="7.2948">
        <ele>1025.5</ele>
        <time>2021-08-03T11:52:34Z</time>
      </trkpt>
      <trkpt lat="48.42738" lon="7.29475">
        <ele>1025.6</ele>
        <time>2021-08-03T11:52:36Z</time>
      </trkpt>
      <trkpt lat="48.42735" lon="7.29471">
        <ele>1025.7</ele>
        <time>2021-08-03T11:52:37Z</time>
      </trkpt>
      <trkpt lat="48.42733" lon="7.2947">
        <ele>1025.8</ele>
        <time>2021-08-03T11:52:38Z</time>
      </trkpt>
      <trkpt lat="48.42729" lon="7.29467">
        <ele>1025.9</ele>
        <time>2021-08-03T11:52:40Z</time>
      </trkpt>
      <trkpt lat="48.42728" lon="7.29466">
        <ele>1025.9</ele>
        <time>2021-08-03T11:52:41Z</time>
      </trkpt>
      <trkpt lat="48.42725" lon="7.29463">
        <ele>1026</ele>
        <time>2021-08-03T11:52:43Z</time>
      </trkpt>
      <trkpt lat="48.42723" lon="7.29461">
        <ele>1026.1</ele>
        <time>2021-08-03T11:52:44Z</time>
      </trkpt>
      <trkpt lat="48.4272" lon="7.29461">
        <ele>1026.2</ele>
        <time>2021-08-03T11:52:46Z</time>
      </trkpt>
      <trkpt lat="48.42717" lon="7.29461">
        <ele>1026.2</ele>
        <time>2021-08-03T11:52:47Z</time>
      </trkpt>
      <trkpt lat="48.42716" lon="7.29461">
        <ele>1026.3</ele>
        <time>2021-08-03T11:52:48Z</time>
      </trkpt>
      <trkpt lat="48.42713" lon="7.29463">
        <ele>1026.3</ele>
        <time>2021-08-03T11:52:50Z</time>
      </trkpt>
      <trkpt lat="48.42711" lon="7.29463">
        <ele>1026.4</ele>
        <time>2021-08-03T11:52:51Z</time>
      </trkpt>
      <trkpt lat="48.42708" lon="7.29466">
        <ele>1026.4</ele>
        <time>2021-08-03T11:52:53Z</time>
      </trkpt>
      <trkpt lat="48.42705" lon="7.29469">
        <ele>1026.5</ele>
        <time>2021-08-03T11:52:54Z</time>
      </trkpt>
      <trkpt lat="48.42704" lon="7.2947">
        <ele>1026.5</ele>
        <time>2021-08-03T11:52:55Z</time>
      </trkpt>
      <trkpt lat="48.42702" lon="7.29469">
        <ele>1026.6</ele>
        <time>2021-08-03T11:52:56Z</time>
      </trkpt>
      <trkpt lat="48.42698" lon="7.2947">
        <ele>1026.7</ele>
        <time>2021-08-03T11:52:58Z</time>
      </trkpt>
      <trkpt lat="48.42695" lon="7.2947">
        <ele>1026.7</ele>
        <time>2021-08-03T11:52:59Z</time>
      </trkpt>
      <trkpt lat="48.42691" lon="7.29472">
        <ele>1026.8</ele>
        <time>2021-08-03T11:53:01Z</time>
      </trkpt>
      <trkpt lat="48.42687" lon="7.29473">
        <ele>1026.9</ele>
        <time>2021-08-03T11:53:02Z</time>
      </trkpt>
      <trkpt lat="48.42685" lon="7.29473">
        <ele>1026.9</ele>
        <time>2021-08-03T11:53:03Z</time>
      </trkpt>
      <trkpt lat="48.42681" lon="7.29476">
        <ele>1027</ele>
        <time>2021-08-03T11:53:05Z</time>
      </trkpt>
      <trkpt lat="48.42679" lon="7.29478">
        <ele>1027.1</ele>
        <time>2021-08-03T11:53:06Z</time>
      </trkpt>
      <trkpt lat="48.42679" lon="7.29479">
        <ele>1027.1</ele>
        <time>2021-08-03T11:53:07Z</time>
      </trkpt>
      <trkpt lat="48.42677" lon="7.2948">
        <ele>1027.1</ele>
        <time>2021-08-03T11:53:08Z</time>
      </trkpt>
      <trkpt lat="48.42676" lon="7.29482">
        <ele>1027.2</ele>
        <time>2021-08-03T11:53:10Z</time>
      </trkpt>
      <trkpt lat="48.42675" lon="7.29483">
        <ele>1027.2</ele>
        <time>2021-08-03T11:53:11Z</time>
      </trkpt>
      <trkpt lat="48.42673" lon="7.29485">
        <ele>1027.3</ele>
        <time>2021-08-03T11:53:12Z</time>
      </trkpt>
      <trkpt lat="48.42669" lon="7.29489">
        <ele>1027.4</ele>
        <time>2021-08-03T11:53:14Z</time>
      </trkpt>
      <trkpt lat="48.42666" lon="7.29491">
        <ele>1027.5</ele>
        <time>2021-08-03T11:53:15Z</time>
      </trkpt>
      <trkpt lat="48.42663" lon="7.29494">
        <ele>1027.6</ele>
        <time>2021-08-03T11:53:16Z</time>
      </trkpt>
      <trkpt lat="48.4266" lon="7.29497">
        <ele>1027.8</ele>
        <time>2021-08-03T11:53:18Z</time>
      </trkpt>
      <trkpt lat="48.42658" lon="7.29499">
        <ele>1027.9</ele>
        <time>2021-08-03T11:53:19Z</time>
      </trkpt>
      <trkpt lat="48.42656" lon="7.29499">
        <ele>1027.9</ele>
        <time>2021-08-03T11:53:21Z</time>
      </trkpt>
      <trkpt lat="48.42655" lon="7.29499">
        <ele>1027.9</ele>
        <time>2021-08-03T11:53:22Z</time>
      </trkpt>
      <trkpt lat="48.42653" lon="7.29499">
        <ele>1028</ele>
        <time>2021-08-03T11:53:23Z</time>
      </trkpt>
      <trkpt lat="48.42653" lon="7.29498">
        <ele>1028</ele>
        <time>2021-08-03T11:53:24Z</time>
      </trkpt>
      <trkpt lat="48.42651" lon="7.29498">
        <ele>1028.1</ele>
        <time>2021-08-03T11:53:25Z</time>
      </trkpt>
      <trkpt lat="48.4265" lon="7.29498">
        <ele>1028.1</ele>
        <time>2021-08-03T11:53:26Z</time>
      </trkpt>
      <trkpt lat="48.42649" lon="7.29498">
        <ele>1028.1</ele>
        <time>2021-08-03T11:53:27Z</time>
      </trkpt>
      <trkpt lat="48.42648" lon="7.29499">
        <ele>1028.2</ele>
        <time>2021-08-03T11:53:28Z</time>
      </trkpt>
      <trkpt lat="48.42646" lon="7.29501">
        <ele>1028.2</ele>
        <time>2021-08-03T11:53:29Z</time>
      </trkpt>
      <trkpt lat="48.42643" lon="7.29504">
        <ele>1028.3</ele>
        <time>2021-08-03T11:53:31Z</time>
      </trkpt>
      <trkpt lat="48.42642" lon="7.29505">
        <ele>1028.3</ele>
        <time>2021-08-03T11:53:32Z</time>
      </trkpt>
      <trkpt lat="48.4263" lon="7.29515">
        <ele>1028.6</ele>
        <time>2021-08-03T11:53:37Z</time>
      </trkpt>
      <trkpt lat="48.42627" lon="7.29518">
        <ele>1028.6</ele>
        <time>2021-08-03T11:53:38Z</time>
      </trkpt>
      <trkpt lat="48.42621" lon="7.29522">
        <ele>1028.8</ele>
        <time>2021-08-03T11:53:40Z</time>
      </trkpt>
      <trkpt lat="48.42617" lon="7.29525">
        <ele>1028.9</ele>
        <time>2021-08-03T11:53:41Z</time>
      </trkpt>
      <trkpt lat="48.42612" lon="7.29528">
        <ele>1029.1</ele>
        <time>2021-08-03T11:53:42Z</time>
      </trkpt>
      <trkpt lat="48.42606" lon="7.29533">
        <ele>1029.2</ele>
        <time>2021-08-03T11:53:44Z</time>
      </trkpt>
      <trkpt lat="48.42603" lon="7.29538">
        <ele>1029.4</ele>
        <time>2021-08-03T11:53:46Z</time>
      </trkpt>
      <trkpt lat="48.42602" lon="7.2954">
        <ele>1029.4</ele>
        <time>2021-08-03T11:53:47Z</time>
      </trkpt>
      <trkpt lat="48.42601" lon="7.29543">
        <ele>1029.4</ele>
        <time>2021-08-03T11:53:48Z</time>
      </trkpt>
      <trkpt lat="48.42601" lon="7.29545">
        <ele>1029.5</ele>
        <time>2021-08-03T11:53:49Z</time>
      </trkpt>
      <trkpt lat="48.426" lon="7.29546">
        <ele>1029.5</ele>
        <time>2021-08-03T11:53:50Z</time>
      </trkpt>
      <trkpt lat="48.42599" lon="7.29552">
        <ele>1029.6</ele>
        <time>2021-08-03T11:53:52Z</time>
      </trkpt>
      <trkpt lat="48.42599" lon="7.29559">
        <ele>1029.7</ele>
        <time>2021-08-03T11:53:53Z</time>
      </trkpt>
      <trkpt lat="48.42598" lon="7.29563">
        <ele>1029.7</ele>
        <time>2021-08-03T11:53:54Z</time>
      </trkpt>
      <trkpt lat="48.42595" lon="7.29565">
        <ele>1029.8</ele>
        <time>2021-08-03T11:53:55Z</time>
      </trkpt>
      <trkpt lat="48.42594" lon="7.29565">
        <ele>1029.8</ele>
        <time>2021-08-03T11:53:56Z</time>
      </trkpt>
      <trkpt lat="48.4259" lon="7.29564">
        <ele>1029.9</ele>
        <time>2021-08-03T11:53:58Z</time>
      </trkpt>
      <trkpt lat="48.42587" lon="7.29563">
        <ele>1030</ele>
        <time>2021-08-03T11:53:59Z</time>
      </trkpt>
      <trkpt lat="48.42584" lon="7.29562">
        <ele>1030</ele>
        <time>2021-08-03T11:54:00Z</time>
      </trkpt>
      <trkpt lat="48.42579" lon="7.29562">
        <ele>1030.2</ele>
        <time>2021-08-03T11:54:02Z</time>
      </trkpt>
      <trkpt lat="48.42573" lon="7.29565">
        <ele>1030.3</ele>
        <time>2021-08-03T11:54:03Z</time>
      </trkpt>
      <trkpt lat="48.42568" lon="7.29565">
        <ele>1030.4</ele>
        <time>2021-08-03T11:54:04Z</time>
      </trkpt>
      <trkpt lat="48.42563" lon="7.29564">
        <ele>1030.5</ele>
        <time>2021-08-03T11:54:05Z</time>
      </trkpt>
      <trkpt lat="48.42557" lon="7.29564">
        <ele>1030.7</ele>
        <time>2021-08-03T11:54:07Z</time>
      </trkpt>
      <trkpt lat="48.42554" lon="7.29563">
        <ele>1030.8</ele>
        <time>2021-08-03T11:54:08Z</time>
      </trkpt>
      <trkpt lat="48.42551" lon="7.29565">
        <ele>1030.8</ele>
        <time>2021-08-03T11:54:09Z</time>
      </trkpt>
      <trkpt lat="48.42548" lon="7.29567">
        <ele>1030.9</ele>
        <time>2021-08-03T11:54:10Z</time>
      </trkpt>
      <trkpt lat="48.42547" lon="7.29568">
        <ele>1030.9</ele>
        <time>2021-08-03T11:54:11Z</time>
      </trkpt>
      <trkpt lat="48.42545" lon="7.29569">
        <ele>1031</ele>
        <time>2021-08-03T11:54:12Z</time>
      </trkpt>
      <trkpt lat="48.42542" lon="7.29572">
        <ele>1031.1</ele>
        <time>2021-08-03T11:54:13Z</time>
      </trkpt>
      <trkpt lat="48.42539" lon="7.29577">
        <ele>1031.2</ele>
        <time>2021-08-03T11:54:14Z</time>
      </trkpt>
      <trkpt lat="48.42537" lon="7.29583">
        <ele>1031.3</ele>
        <time>2021-08-03T11:54:16Z</time>
      </trkpt>
      <trkpt lat="48.42537" lon="7.29587">
        <ele>1031.3</ele>
        <time>2021-08-03T11:54:17Z</time>
      </trkpt>
      <trkpt lat="48.42536" lon="7.29591">
        <ele>1031.4</ele>
        <time>2021-08-03T11:54:18Z</time>
      </trkpt>
      <trkpt lat="48.42535" lon="7.29593">
        <ele>1031.4</ele>
        <time>2021-08-03T11:54:19Z</time>
      </trkpt>
      <trkpt lat="48.42534" lon="7.29594">
        <ele>1031.4</ele>
        <time>2021-08-03T11:54:20Z</time>
      </trkpt>
      <trkpt lat="48.42533" lon="7.29595">
        <ele>1031.5</ele>
        <time>2021-08-03T11:54:21Z</time>
      </trkpt>
      <trkpt lat="48.42531" lon="7.29595">
        <ele>1031.5</ele>
        <time>2021-08-03T11:54:22Z</time>
      </trkpt>
      <trkpt lat="48.4253" lon="7.29593">
        <ele>1031.6</ele>
        <time>2021-08-03T11:54:23Z</time>
      </trkpt>
      <trkpt lat="48.42527" lon="7.29589">
        <ele>1031.7</ele>
        <time>2021-08-03T11:54:25Z</time>
      </trkpt>
      <trkpt lat="48.42526" lon="7.29586">
        <ele>1031.7</ele>
        <time>2021-08-03T11:54:26Z</time>
      </trkpt>
      <trkpt lat="48.42524" lon="7.29587">
        <ele>1031.7</ele>
        <time>2021-08-03T11:54:27Z</time>
      </trkpt>
      <trkpt lat="48.42521" lon="7.29588">
        <ele>1031.8</ele>
        <time>2021-08-03T11:54:28Z</time>
      </trkpt>
      <trkpt lat="48.4252" lon="7.29589">
        <ele>1031.8</ele>
        <time>2021-08-03T11:54:29Z</time>
      </trkpt>
      <trkpt lat="48.42518" lon="7.2959">
        <ele>1031.9</ele>
        <time>2021-08-03T11:54:30Z</time>
      </trkpt>
      <trkpt lat="48.42515" lon="7.29592">
        <ele>1032</ele>
        <time>2021-08-03T11:54:32Z</time>
      </trkpt>
      <trkpt lat="48.42512" lon="7.29594">
        <ele>1032</ele>
        <time>2021-08-03T11:54:33Z</time>
      </trkpt>
      <trkpt lat="48.42509" lon="7.29597">
        <ele>1032.2</ele>
        <time>2021-08-03T11:54:35Z</time>
      </trkpt>
      <trkpt lat="48.42504" lon="7.296">
        <ele>1032.3</ele>
        <time>2021-08-03T11:54:36Z</time>
      </trkpt>
      <trkpt lat="48.42501" lon="7.296">
        <ele>1032.4</ele>
        <time>2021-08-03T11:54:37Z</time>
      </trkpt>
      <trkpt lat="48.42497" lon="7.29602">
        <ele>1032.4</ele>
        <time>2021-08-03T11:54:38Z</time>
      </trkpt>
      <trkpt lat="48.42492" lon="7.29604">
        <ele>1032.6</ele>
        <time>2021-08-03T11:54:39Z</time>
      </trkpt>
      <trkpt lat="48.42488" lon="7.29606">
        <ele>1032.7</ele>
        <time>2021-08-03T11:54:41Z</time>
      </trkpt>
      <trkpt lat="48.42484" lon="7.29608">
        <ele>1032.8</ele>
        <time>2021-08-03T11:54:42Z</time>
      </trkpt>
      <trkpt lat="48.42477" lon="7.29613">
        <ele>1033</ele>
        <time>2021-08-03T11:54:44Z</time>
      </trkpt>
      <trkpt lat="48.42473" lon="7.29616">
        <ele>1033.1</ele>
        <time>2021-08-03T11:54:45Z</time>
      </trkpt>
      <trkpt lat="48.4247" lon="7.29617">
        <ele>1033.2</ele>
        <time>2021-08-03T11:54:46Z</time>
      </trkpt>
      <trkpt lat="48.42466" lon="7.29618">
        <ele>1033.2</ele>
        <time>2021-08-03T11:54:47Z</time>
      </trkpt>
      <trkpt lat="48.42463" lon="7.29618">
        <ele>1033.3</ele>
        <time>2021-08-03T11:54:48Z</time>
      </trkpt>
      <trkpt lat="48.4246" lon="7.29616">
        <ele>1033.4</ele>
        <time>2021-08-03T11:54:49Z</time>
      </trkpt>
      <trkpt lat="48.42458" lon="7.29615">
        <ele>1033.4</ele>
        <time>2021-08-03T11:54:50Z</time>
      </trkpt>
      <trkpt lat="48.42456" lon="7.29614">
        <ele>1033.5</ele>
        <time>2021-08-03T11:54:52Z</time>
      </trkpt>
      <trkpt lat="48.42455" lon="7.29614">
        <ele>1033.5</ele>
        <time>2021-08-03T11:54:53Z</time>
      </trkpt>
      <trkpt lat="48.42452" lon="7.29614">
        <ele>1033.6</ele>
        <time>2021-08-03T11:54:54Z</time>
      </trkpt>
      <trkpt lat="48.42451" lon="7.29614">
        <ele>1033.6</ele>
        <time>2021-08-03T11:54:55Z</time>
      </trkpt>
      <trkpt lat="48.42448" lon="7.29617">
        <ele>1033.7</ele>
        <time>2021-08-03T11:54:56Z</time>
      </trkpt>
      <trkpt lat="48.42447" lon="7.29618">
        <ele>1033.7</ele>
        <time>2021-08-03T11:54:57Z</time>
      </trkpt>
      <trkpt lat="48.42444" lon="7.29619">
        <ele>1033.8</ele>
        <time>2021-08-03T11:54:59Z</time>
      </trkpt>
      <trkpt lat="48.42443" lon="7.2962">
        <ele>1033.9</ele>
        <time>2021-08-03T11:55:00Z</time>
      </trkpt>
      <trkpt lat="48.4244" lon="7.29621">
        <ele>1033.9</ele>
        <time>2021-08-03T11:55:02Z</time>
      </trkpt>
      <trkpt lat="48.42437" lon="7.29623">
        <ele>1034</ele>
        <time>2021-08-03T11:55:03Z</time>
      </trkpt>
      <trkpt lat="48.42433" lon="7.29625">
        <ele>1034.1</ele>
        <time>2021-08-03T11:55:05Z</time>
      </trkpt>
      <trkpt lat="48.4243" lon="7.29628">
        <ele>1034.2</ele>
        <time>2021-08-03T11:55:06Z</time>
      </trkpt>
      <trkpt lat="48.42429" lon="7.29629">
        <ele>1034.3</ele>
        <time>2021-08-03T11:55:07Z</time>
      </trkpt>
      <trkpt lat="48.42426" lon="7.29629">
        <ele>1034.4</ele>
        <time>2021-08-03T11:55:08Z</time>
      </trkpt>
      <trkpt lat="48.42423" lon="7.29629">
        <ele>1034.4</ele>
        <time>2021-08-03T11:55:09Z</time>
      </trkpt>
      <trkpt lat="48.42419" lon="7.29629">
        <ele>1034.6</ele>
        <time>2021-08-03T11:55:11Z</time>
      </trkpt>
      <trkpt lat="48.42418" lon="7.29629">
        <ele>1034.6</ele>
        <time>2021-08-03T11:55:12Z</time>
      </trkpt>
      <trkpt lat="48.42415" lon="7.2963">
        <ele>1034.7</ele>
        <time>2021-08-03T11:55:13Z</time>
      </trkpt>
      <trkpt lat="48.42414" lon="7.2963">
        <ele>1034.7</ele>
        <time>2021-08-03T11:55:14Z</time>
      </trkpt>
      <trkpt lat="48.42411" lon="7.29632">
        <ele>1034.8</ele>
        <time>2021-08-03T11:55:16Z</time>
      </trkpt>
      <trkpt lat="48.4241" lon="7.29633">
        <ele>1034.9</ele>
        <time>2021-08-03T11:55:17Z</time>
      </trkpt>
      <trkpt lat="48.42407" lon="7.29634">
        <ele>1035</ele>
        <time>2021-08-03T11:55:18Z</time>
      </trkpt>
      <trkpt lat="48.42406" lon="7.29634">
        <ele>1035</ele>
        <time>2021-08-03T11:55:19Z</time>
      </trkpt>
      <trkpt lat="48.42404" lon="7.29633">
        <ele>1035.1</ele>
        <time>2021-08-03T11:55:20Z</time>
      </trkpt>
      <trkpt lat="48.42401" lon="7.29629">
        <ele>1035.2</ele>
        <time>2021-08-03T11:55:22Z</time>
      </trkpt>
      <trkpt lat="48.42398" lon="7.29626">
        <ele>1035.4</ele>
        <time>2021-08-03T11:55:24Z</time>
      </trkpt>
      <trkpt lat="48.42394" lon="7.29625">
        <ele>1035.6</ele>
        <time>2021-08-03T11:55:26Z</time>
      </trkpt>
      <trkpt lat="48.42392" lon="7.29625">
        <ele>1035.6</ele>
        <time>2021-08-03T11:55:27Z</time>
      </trkpt>
      <trkpt lat="48.42388" lon="7.29629">
        <ele>1035.8</ele>
        <time>2021-08-03T11:55:29Z</time>
      </trkpt>
      <trkpt lat="48.42385" lon="7.29629">
        <ele>1036</ele>
        <time>2021-08-03T11:55:30Z</time>
      </trkpt>
      <trkpt lat="48.42381" lon="7.29628">
        <ele>1036.1</ele>
        <time>2021-08-03T11:55:31Z</time>
      </trkpt>
      <trkpt lat="48.42379" lon="7.29628">
        <ele>1036.2</ele>
        <time>2021-08-03T11:55:32Z</time>
      </trkpt>
      <trkpt lat="48.42374" lon="7.29625">
        <ele>1036.4</ele>
        <time>2021-08-03T11:55:34Z</time>
      </trkpt>
      <trkpt lat="48.42368" lon="7.29618">
        <ele>1036.8</ele>
        <time>2021-08-03T11:55:35Z</time>
      </trkpt>
      <trkpt lat="48.42363" lon="7.29613">
        <ele>1036.8</ele>
        <time>2021-08-03T11:55:37Z</time>
      </trkpt>
      <trkpt lat="48.42357" lon="7.29608">
        <ele>1036.9</ele>
        <time>2021-08-03T11:55:38Z</time>
      </trkpt>
      <trkpt lat="48.42353" lon="7.29604">
        <ele>1037</ele>
        <time>2021-08-03T11:55:39Z</time>
      </trkpt>
      <trkpt lat="48.4235" lon="7.29601">
        <ele>1037</ele>
        <time>2021-08-03T11:55:40Z</time>
      </trkpt>
      <trkpt lat="48.42345" lon="7.29597">
        <ele>1037.1</ele>
        <time>2021-08-03T11:55:42Z</time>
      </trkpt>
      <trkpt lat="48.42343" lon="7.29594">
        <ele>1037.2</ele>
        <time>2021-08-03T11:55:43Z</time>
      </trkpt>
      <trkpt lat="48.42339" lon="7.2959">
        <ele>1037.3</ele>
        <time>2021-08-03T11:55:44Z</time>
      </trkpt>
      <trkpt lat="48.42337" lon="7.29587">
        <ele>1037.4</ele>
        <time>2021-08-03T11:55:45Z</time>
      </trkpt>
      <trkpt lat="48.42336" lon="7.29586">
        <ele>1037.4</ele>
        <time>2021-08-03T11:55:46Z</time>
      </trkpt>
      <trkpt lat="48.42334" lon="7.29587">
        <ele>1037.5</ele>
        <time>2021-08-03T11:55:48Z</time>
      </trkpt>
      <trkpt lat="48.42334" lon="7.29587">
        <ele>1037.5</ele>
        <time>2021-08-03T11:55:49Z</time>
      </trkpt>
      <trkpt lat="48.42333" lon="7.29589">
        <ele>1037.5</ele>
        <time>2021-08-03T11:55:50Z</time>
      </trkpt>
      <trkpt lat="48.42332" lon="7.29591">
        <ele>1037.6</ele>
        <time>2021-08-03T11:55:51Z</time>
      </trkpt>
      <trkpt lat="48.42332" lon="7.29591">
        <ele>1037.6</ele>
        <time>2021-08-03T11:55:52Z</time>
      </trkpt>
      <trkpt lat="48.42331" lon="7.29591">
        <ele>1037.6</ele>
        <time>2021-08-03T11:55:53Z</time>
      </trkpt>
      <trkpt lat="48.42331" lon="7.29591">
        <ele>1037.6</ele>
        <time>2021-08-03T11:55:54Z</time>
      </trkpt>
      <trkpt lat="48.42331" lon="7.29591">
        <ele>1037.6</ele>
        <time>2021-08-03T11:55:55Z</time>
      </trkpt>
      <trkpt lat="48.4233" lon="7.29591">
        <ele>1037.6</ele>
        <time>2021-08-03T11:55:56Z</time>
      </trkpt>
      <trkpt lat="48.42141" lon="7.29451">
        <ele>1036</ele>
        <time>2021-08-03T11:57:03Z</time>
      </trkpt>
      <trkpt lat="48.42139" lon="7.2945">
        <ele>1036</ele>
        <time>2021-08-03T11:57:04Z</time>
      </trkpt>
      <trkpt lat="48.42138" lon="7.29451">
        <ele>1036</ele>
        <time>2021-08-03T11:57:05Z</time>
      </trkpt>
      <trkpt lat="48.42137" lon="7.29452">
        <ele>1035.9</ele>
        <time>2021-08-03T11:57:07Z</time>
      </trkpt>
      <trkpt lat="48.42137" lon="7.29456">
        <ele>1035.9</ele>
        <time>2021-08-03T11:57:09Z</time>
      </trkpt>
      <trkpt lat="48.42136" lon="7.29461">
        <ele>1035.9</ele>
        <time>2021-08-03T11:57:11Z</time>
      </trkpt>
      <trkpt lat="48.42136" lon="7.29464">
        <ele>1035.9</ele>
        <time>2021-08-03T11:57:13Z</time>
      </trkpt>
      <trkpt lat="48.42136" lon="7.29464">
        <ele>1035.9</ele>
        <time>2021-08-03T11:57:15Z</time>
      </trkpt>
      <trkpt lat="48.42137" lon="7.29466">
        <ele>1035.9</ele>
        <time>2021-08-03T11:57:16Z</time>
      </trkpt>
      <trkpt lat="48.42138" lon="7.29466">
        <ele>1035.9</ele>
        <time>2021-08-03T11:57:17Z</time>
      </trkpt>
      <trkpt lat="48.42138" lon="7.29466">
        <ele>1035.9</ele>
        <time>2021-08-03T11:57:18Z</time>
      </trkpt>
      <trkpt lat="48.4214" lon="7.29464">
        <ele>1035.8</ele>
        <time>2021-08-03T11:57:20Z</time>
      </trkpt>
      <trkpt lat="48.42141" lon="7.29464">
        <ele>1035.8</ele>
        <time>2021-08-03T11:57:21Z</time>
      </trkpt>
      <trkpt lat="48.42142" lon="7.29464">
        <ele>1035.8</ele>
        <time>2021-08-03T11:57:23Z</time>
      </trkpt>
      <trkpt lat="48.42142" lon="7.29464">
        <ele>1035.8</ele>
        <time>2021-08-03T11:57:24Z</time>
      </trkpt>
      <trkpt lat="48.42143" lon="7.29464">
        <ele>1035.8</ele>
        <time>2021-08-03T11:57:25Z</time>
      </trkpt>
      <trkpt lat="48.42139" lon="7.29461">
        <ele>1035.8</ele>
        <time>2021-08-03T11:57:26Z</time>
      </trkpt>
      <trkpt lat="48.42133" lon="7.29458">
        <ele>1035.8</ele>
        <time>2021-08-03T11:57:28Z</time>
      </trkpt>
      <trkpt lat="48.42128" lon="7.29455">
        <ele>1035.8</ele>
        <time>2021-08-03T12:03:05Z</time>
      </trkpt>
      <trkpt lat="48.42123" lon="7.29452">
        <ele>1035.8</ele>
        <time>2021-08-03T12:03:07Z</time>
      </trkpt>
      <trkpt lat="48.42118" lon="7.29449">
        <ele>1035.6</ele>
        <time>2021-08-03T12:03:08Z</time>
      </trkpt>
      <trkpt lat="48.42113" lon="7.29449">
        <ele>1035.5</ele>
        <time>2021-08-03T12:03:09Z</time>
      </trkpt>
      <trkpt lat="48.4211" lon="7.29447">
        <ele>1035.3</ele>
        <time>2021-08-03T12:03:10Z</time>
      </trkpt>
      <trkpt lat="48.42107" lon="7.29445">
        <ele>1035</ele>
        <time>2021-08-03T12:03:12Z</time>
      </trkpt>
      <trkpt lat="48.42104" lon="7.29443">
        <ele>1034.8</ele>
        <time>2021-08-03T12:03:14Z</time>
      </trkpt>
      <trkpt lat="48.42101" lon="7.29441">
        <ele>1034.5</ele>
        <time>2021-08-03T12:03:16Z</time>
      </trkpt>
      <trkpt lat="48.42098" lon="7.29439">
        <ele>1034.2</ele>
        <time>2021-08-03T12:03:17Z</time>
      </trkpt>
      <trkpt lat="48.42095" lon="7.29437">
        <ele>1033.9</ele>
        <time>2021-08-03T12:03:19Z</time>
      </trkpt>
      <trkpt lat="48.42092" lon="7.29435">
        <ele>1033.5</ele>
        <time>2021-08-03T12:04:05Z</time>
      </trkpt>
      <trkpt lat="48.42089" lon="7.29433">
        <ele>1033.2</ele>
        <time>2021-08-03T12:04:06Z</time>
      </trkpt>
      <trkpt lat="48.42081" lon="7.29437">
        <ele>1032.5</ele>
        <time>2021-08-03T12:04:07Z</time>
      </trkpt>
      <trkpt lat="48.42072" lon="7.29445">
        <ele>1031.5</ele>
        <time>2021-08-03T12:04:08Z</time>
      </trkpt>
      <trkpt lat="48.42062" lon="7.29455">
        <ele>1030.2</ele>
        <time>2021-08-03T12:04:10Z</time>
      </trkpt>
      <trkpt lat="48.42057" lon="7.29459">
        <ele>1029.6</ele>
        <time>2021-08-03T12:04:11Z</time>
      </trkpt>
      <trkpt lat="48.42048" lon="7.29464">
        <ele>1028.6</ele>
        <time>2021-08-03T12:04:13Z</time>
      </trkpt>
      <trkpt lat="48.42047" lon="7.2947">
        <ele>1028.2</ele>
        <time>2021-08-03T12:04:15Z</time>
      </trkpt>
      <trkpt lat="48.42045" lon="7.29478">
        <ele>1027.6</ele>
        <time>2021-08-03T12:04:16Z</time>
      </trkpt>
      <trkpt lat="48.42044" lon="7.29483">
        <ele>1027.2</ele>
        <time>2021-08-03T12:04:17Z</time>
      </trkpt>
      <trkpt lat="48.42042" lon="7.29483">
        <ele>1027.1</ele>
        <time>2021-08-03T12:04:18Z</time>
      </trkpt>
      <trkpt lat="48.42041" lon="7.29484">
        <ele>1027</ele>
        <time>2021-08-03T12:04:19Z</time>
      </trkpt>
      <trkpt lat="48.4204" lon="7.29484">
        <ele>1026.8</ele>
        <time>2021-08-03T12:04:21Z</time>
      </trkpt>
      <trkpt lat="48.42033" lon="7.29484">
        <ele>1023.6</ele>
        <time>2021-08-03T12:04:22Z</time>
      </trkpt>
      <trkpt lat="48.42027" lon="7.29484">
        <ele>1023</ele>
        <time>2021-08-03T12:04:23Z</time>
      </trkpt>
      <trkpt lat="48.4201" lon="7.29479">
        <ele>1021</ele>
        <time>2021-08-03T12:04:25Z</time>
      </trkpt>
      <trkpt lat="48.42002" lon="7.29477">
        <ele>1020.2</ele>
        <time>2021-08-03T12:04:26Z</time>
      </trkpt>
      <trkpt lat="48.41994" lon="7.29476">
        <ele>1019.7</ele>
        <time>2021-08-03T12:04:27Z</time>
      </trkpt>
      <trkpt lat="48.41982" lon="7.29472">
        <ele>1018.9</ele>
        <time>2021-08-03T12:04:29Z</time>
      </trkpt>
      <trkpt lat="48.41973" lon="7.29465">
        <ele>1018.3</ele>
        <time>2021-08-03T12:04:31Z</time>
      </trkpt>
      <trkpt lat="48.41965" lon="7.29459">
        <ele>1017.6</ele>
        <time>2021-08-03T12:04:33Z</time>
      </trkpt>
      <trkpt lat="48.41962" lon="7.29457">
        <ele>1017.4</ele>
        <time>2021-08-03T12:04:34Z</time>
      </trkpt>
      <trkpt lat="48.41959" lon="7.29456">
        <ele>1017.2</ele>
        <time>2021-08-03T12:04:35Z</time>
      </trkpt>
      <trkpt lat="48.41953" lon="7.29454">
        <ele>1016.6</ele>
        <time>2021-08-03T12:04:37Z</time>
      </trkpt>
      <trkpt lat="48.41946" lon="7.29451">
        <ele>1016</ele>
        <time>2021-08-03T12:04:39Z</time>
      </trkpt>
      <trkpt lat="48.41942" lon="7.2945">
        <ele>1015.6</ele>
        <time>2021-08-03T12:04:40Z</time>
      </trkpt>
      <trkpt lat="48.4194" lon="7.29445">
        <ele>1015</ele>
        <time>2021-08-03T12:04:41Z</time>
      </trkpt>
      <trkpt lat="48.41939" lon="7.29443">
        <ele>1014.7</ele>
        <time>2021-08-03T12:04:42Z</time>
      </trkpt>
      <trkpt lat="48.41934" lon="7.2944">
        <ele>1013.8</ele>
        <time>2021-08-03T12:04:44Z</time>
      </trkpt>
      <trkpt lat="48.4193" lon="7.29439">
        <ele>1013.2</ele>
        <time>2021-08-03T12:04:45Z</time>
      </trkpt>
      <trkpt lat="48.41926" lon="7.29438">
        <ele>1012.4</ele>
        <time>2021-08-03T12:04:47Z</time>
      </trkpt>
      <trkpt lat="48.41926" lon="7.29439">
        <ele>1012.3</ele>
        <time>2021-08-03T12:04:48Z</time>
      </trkpt>
      <trkpt lat="48.41926" lon="7.29439">
        <ele>1012.3</ele>
        <time>2021-08-03T12:04:50Z</time>
      </trkpt>
      <trkpt lat="48.41926" lon="7.29439">
        <ele>1012.2</ele>
        <time>2021-08-03T12:04:52Z</time>
      </trkpt>
      <trkpt lat="48.41926" lon="7.29439">
        <ele>1012.2</ele>
        <time>2021-08-03T12:04:53Z</time>
      </trkpt>
      <trkpt lat="48.41926" lon="7.29439">
        <ele>1012.2</ele>
        <time>2021-08-03T12:04:54Z</time>
      </trkpt>
      <trkpt lat="48.41927" lon="7.29439">
        <ele>1012.2</ele>
        <time>2021-08-03T12:04:56Z</time>
      </trkpt>
      <trkpt lat="48.41929" lon="7.29448">
        <ele>1011.2</ele>
        <time>2021-08-03T12:05:04Z</time>
      </trkpt>
      <trkpt lat="48.41929" lon="7.29452">
        <ele>1010.8</ele>
        <time>2021-08-03T12:05:06Z</time>
      </trkpt>
      <trkpt lat="48.41927" lon="7.29455">
        <ele>1010.2</ele>
        <time>2021-08-03T12:05:07Z</time>
      </trkpt>
      <trkpt lat="48.41924" lon="7.29457">
        <ele>1009.8</ele>
        <time>2021-08-03T12:05:08Z</time>
      </trkpt>
      <trkpt lat="48.4192" lon="7.29455">
        <ele>1009.2</ele>
        <time>2021-08-03T12:05:09Z</time>
      </trkpt>
      <trkpt lat="48.41918" lon="7.29453">
        <ele>1008.8</ele>
        <time>2021-08-03T12:05:10Z</time>
      </trkpt>
      <trkpt lat="48.41913" lon="7.29447">
        <ele>1008</ele>
        <time>2021-08-03T12:05:11Z</time>
      </trkpt>
      <trkpt lat="48.41903" lon="7.2943">
        <ele>1004.4</ele>
        <time>2021-08-03T12:05:13Z</time>
      </trkpt>
      <trkpt lat="48.41897" lon="7.29422">
        <ele>1003.9</ele>
        <time>2021-08-03T12:05:14Z</time>
      </trkpt>
      <trkpt lat="48.41885" lon="7.29406">
        <ele>1003.2</ele>
        <time>2021-08-03T12:05:16Z</time>
      </trkpt>
      <trkpt lat="48.41878" lon="7.29399">
        <ele>1002.9</ele>
        <time>2021-08-03T12:05:17Z</time>
      </trkpt>
      <trkpt lat="48.41867" lon="7.29386">
        <ele>1002.5</ele>
        <time>2021-08-03T12:05:19Z</time>
      </trkpt>
      <trkpt lat="48.41861" lon="7.2938">
        <ele>1002.4</ele>
        <time>2021-08-03T12:05:20Z</time>
      </trkpt>
      <trkpt lat="48.41854" lon="7.29375">
        <ele>1002.3</ele>
        <time>2021-08-03T12:05:21Z</time>
      </trkpt>
      <trkpt lat="48.4184" lon="7.29365">
        <ele>1002.3</ele>
        <time>2021-08-03T12:05:23Z</time>
      </trkpt>
      <trkpt lat="48.41834" lon="7.29359">
        <ele>1002.3</ele>
        <time>2021-08-03T12:05:24Z</time>
      </trkpt>
      <trkpt lat="48.41822" lon="7.29349">
        <ele>1002.4</ele>
        <time>2021-08-03T12:05:26Z</time>
      </trkpt>
      <trkpt lat="48.41816" lon="7.29344">
        <ele>1002.5</ele>
        <time>2021-08-03T12:05:27Z</time>
      </trkpt>
      <trkpt lat="48.41812" lon="7.29339">
        <ele>1002.5</ele>
        <time>2021-08-03T12:05:28Z</time>
      </trkpt>
      <trkpt lat="48.41808" lon="7.29334">
        <ele>1002.6</ele>
        <time>2021-08-03T12:05:29Z</time>
      </trkpt>
      <trkpt lat="48.418" lon="7.29322">
        <ele>1002.7</ele>
        <time>2021-08-03T12:05:31Z</time>
      </trkpt>
      <trkpt lat="48.41796" lon="7.29317">
        <ele>1002.8</ele>
        <time>2021-08-03T12:05:32Z</time>
      </trkpt>
      <trkpt lat="48.41789" lon="7.29307">
        <ele>1002.8</ele>
        <time>2021-08-03T12:05:34Z</time>
      </trkpt>
      <trkpt lat="48.41784" lon="7.29302">
        <ele>1002.7</ele>
        <time>2021-08-03T12:05:35Z</time>
      </trkpt>
      <trkpt lat="48.41776" lon="7.29293">
        <ele>1002.6</ele>
        <time>2021-08-03T12:05:37Z</time>
      </trkpt>
      <trkpt lat="48.41769" lon="7.29283">
        <ele>1002.5</ele>
        <time>2021-08-03T12:05:39Z</time>
      </trkpt>
      <trkpt lat="48.41765" lon="7.29277">
        <ele>1002.4</ele>
        <time>2021-08-03T12:05:40Z</time>
      </trkpt>
      <trkpt lat="48.41762" lon="7.29271">
        <ele>1002.2</ele>
        <time>2021-08-03T12:05:41Z</time>
      </trkpt>
      <trkpt lat="48.41754" lon="7.29259">
        <ele>1001.9</ele>
        <time>2021-08-03T12:05:43Z</time>
      </trkpt>
      <trkpt lat="48.41749" lon="7.29253">
        <ele>1001.7</ele>
        <time>2021-08-03T12:05:44Z</time>
      </trkpt>
      <trkpt lat="48.41738" lon="7.29241">
        <ele>1001.3</ele>
        <time>2021-08-03T12:05:46Z</time>
      </trkpt>
      <trkpt lat="48.41732" lon="7.29236">
        <ele>1001.1</ele>
        <time>2021-08-03T12:05:47Z</time>
      </trkpt>
      <trkpt lat="48.41721" lon="7.29223">
        <ele>1000.8</ele>
        <time>2021-08-03T12:05:49Z</time>
      </trkpt>
      <trkpt lat="48.41709" lon="7.2921">
        <ele>1000.6</ele>
        <time>2021-08-03T12:05:51Z</time>
      </trkpt>
      <trkpt lat="48.41703" lon="7.29202">
        <ele>1000.5</ele>
        <time>2021-08-03T12:05:52Z</time>
      </trkpt>
      <trkpt lat="48.41698" lon="7.29194">
        <ele>1000.5</ele>
        <time>2021-08-03T12:05:53Z</time>
      </trkpt>
      <trkpt lat="48.41688" lon="7.29182">
        <ele>1000.6</ele>
        <time>2021-08-03T12:05:55Z</time>
      </trkpt>
      <trkpt lat="48.41682" lon="7.29175">
        <ele>1000.6</ele>
        <time>2021-08-03T12:05:56Z</time>
      </trkpt>
      <trkpt lat="48.41672" lon="7.29164">
        <ele>1000.6</ele>
        <time>2021-08-03T12:05:58Z</time>
      </trkpt>
      <trkpt lat="48.41667" lon="7.2916">
        <ele>1000.7</ele>
        <time>2021-08-03T12:05:59Z</time>
      </trkpt>
      <trkpt lat="48.41658" lon="7.29151">
        <ele>1001</ele>
        <time>2021-08-03T12:06:01Z</time>
      </trkpt>
      <trkpt lat="48.41652" lon="7.29143">
        <ele>1001.4</ele>
        <time>2021-08-03T12:06:03Z</time>
      </trkpt>
      <trkpt lat="48.4165" lon="7.29141">
        <ele>1001.5</ele>
        <time>2021-08-03T12:06:04Z</time>
      </trkpt>
      <trkpt lat="48.41646" lon="7.29133">
        <ele>1001.8</ele>
        <time>2021-08-03T12:06:06Z</time>
      </trkpt>
      <trkpt lat="48.41642" lon="7.29126">
        <ele>1002.2</ele>
        <time>2021-08-03T12:06:08Z</time>
      </trkpt>
      <trkpt lat="48.4164" lon="7.29122">
        <ele>1002.4</ele>
        <time>2021-08-03T12:06:10Z</time>
      </trkpt>
      <trkpt lat="48.41639" lon="7.29118">
        <ele>1002.5</ele>
        <time>2021-08-03T12:06:11Z</time>
      </trkpt>
      <trkpt lat="48.41637" lon="7.29116">
        <ele>1002.7</ele>
        <time>2021-08-03T12:06:12Z</time>
      </trkpt>
      <trkpt lat="48.41633" lon="7.29113">
        <ele>1002.9</ele>
        <time>2021-08-03T12:06:14Z</time>
      </trkpt>
      <trkpt lat="48.4163" lon="7.2911">
        <ele>1003.1</ele>
        <time>2021-08-03T12:06:16Z</time>
      </trkpt>
      <trkpt lat="48.41628" lon="7.29108">
        <ele>1003.3</ele>
        <time>2021-08-03T12:06:17Z</time>
      </trkpt>
      <trkpt lat="48.41624" lon="7.29103">
        <ele>1003.6</ele>
        <time>2021-08-03T12:06:19Z</time>
      </trkpt>
      <trkpt lat="48.41624" lon="7.29102">
        <ele>1003.7</ele>
        <time>2021-08-03T12:06:20Z</time>
      </trkpt>
      <trkpt lat="48.41623" lon="7.291">
        <ele>1003.7</ele>
        <time>2021-08-03T12:06:21Z</time>
      </trkpt>
      <trkpt lat="48.41621" lon="7.29096">
        <ele>1003.9</ele>
        <time>2021-08-03T12:06:22Z</time>
      </trkpt>
      <trkpt lat="48.41621" lon="7.29095">
        <ele>1003.9</ele>
        <time>2021-08-03T12:06:23Z</time>
      </trkpt>
      <trkpt lat="48.4162" lon="7.29093">
        <ele>1004</ele>
        <time>2021-08-03T12:06:25Z</time>
      </trkpt>
      <trkpt lat="48.41619" lon="7.29091">
        <ele>1004.1</ele>
        <time>2021-08-03T12:06:26Z</time>
      </trkpt>
      <trkpt lat="48.41615" lon="7.29087">
        <ele>1004.3</ele>
        <time>2021-08-03T12:06:28Z</time>
      </trkpt>
      <trkpt lat="48.41613" lon="7.29084">
        <ele>1004.4</ele>
        <time>2021-08-03T12:06:29Z</time>
      </trkpt>
      <trkpt lat="48.4161" lon="7.29082">
        <ele>1004.6</ele>
        <time>2021-08-03T12:06:30Z</time>
      </trkpt>
      <trkpt lat="48.41607" lon="7.29081">
        <ele>1004.7</ele>
        <time>2021-08-03T12:06:31Z</time>
      </trkpt>
      <trkpt lat="48.41603" lon="7.29077">
        <ele>1004.8</ele>
        <time>2021-08-03T12:06:33Z</time>
      </trkpt>
      <trkpt lat="48.41599" lon="7.29072">
        <ele>1005</ele>
        <time>2021-08-03T12:06:35Z</time>
      </trkpt>
      <trkpt lat="48.41596" lon="7.29068">
        <ele>1005.1</ele>
        <time>2021-08-03T12:06:36Z</time>
      </trkpt>
      <trkpt lat="48.41593" lon="7.29066">
        <ele>1005.2</ele>
        <time>2021-08-03T12:06:37Z</time>
      </trkpt>
      <trkpt lat="48.41588" lon="7.29062">
        <ele>1005.4</ele>
        <time>2021-08-03T12:06:39Z</time>
      </trkpt>
      <trkpt lat="48.41583" lon="7.29056">
        <ele>1005.5</ele>
        <time>2021-08-03T12:06:41Z</time>
      </trkpt>
      <trkpt lat="48.41578" lon="7.29051">
        <ele>1005.6</ele>
        <time>2021-08-03T12:06:43Z</time>
      </trkpt>
      <trkpt lat="48.41574" lon="7.29046">
        <ele>1005.6</ele>
        <time>2021-08-03T12:06:45Z</time>
      </trkpt>
      <trkpt lat="48.41573" lon="7.29041">
        <ele>1005.7</ele>
        <time>2021-08-03T12:06:46Z</time>
      </trkpt>
      <trkpt lat="48.4157" lon="7.29036">
        <ele>1005.7</ele>
        <time>2021-08-03T12:06:47Z</time>
      </trkpt>
      <trkpt lat="48.41569" lon="7.29034">
        <ele>1005.7</ele>
        <time>2021-08-03T12:06:48Z</time>
      </trkpt>
      <trkpt lat="48.41564" lon="7.29028">
        <ele>1005.7</ele>
        <time>2021-08-03T12:06:50Z</time>
      </trkpt>
      <trkpt lat="48.41561" lon="7.29023">
        <ele>1005.7</ele>
        <time>2021-08-03T12:06:51Z</time>
      </trkpt>
      <trkpt lat="48.41559" lon="7.29019">
        <ele>1005.7</ele>
        <time>2021-08-03T12:06:52Z</time>
      </trkpt>
      <trkpt lat="48.41554" lon="7.29011">
        <ele>1005.8</ele>
        <time>2021-08-03T12:06:54Z</time>
      </trkpt>
      <trkpt lat="48.4155" lon="7.29007">
        <ele>1005.9</ele>
        <time>2021-08-03T12:06:56Z</time>
      </trkpt>
      <trkpt lat="48.41546" lon="7.29005">
        <ele>1005.9</ele>
        <time>2021-08-03T12:06:57Z</time>
      </trkpt>
      <trkpt lat="48.41543" lon="7.29001">
        <ele>1006</ele>
        <time>2021-08-03T12:06:58Z</time>
      </trkpt>
      <trkpt lat="48.4154" lon="7.28995">
        <ele>1006.1</ele>
        <time>2021-08-03T12:07:00Z</time>
      </trkpt>
      <trkpt lat="48.41538" lon="7.28991">
        <ele>1006.2</ele>
        <time>2021-08-03T12:07:01Z</time>
      </trkpt>
      <trkpt lat="48.41533" lon="7.28986">
        <ele>1006.3</ele>
        <time>2021-08-03T12:07:03Z</time>
      </trkpt>
      <trkpt lat="48.41528" lon="7.28981">
        <ele>1006.4</ele>
        <time>2021-08-03T12:07:05Z</time>
      </trkpt>
      <trkpt lat="48.41524" lon="7.28978">
        <ele>1006.5</ele>
        <time>2021-08-03T12:07:06Z</time>
      </trkpt>
      <trkpt lat="48.4152" lon="7.28976">
        <ele>1006.7</ele>
        <time>2021-08-03T12:07:07Z</time>
      </trkpt>
      <trkpt lat="48.41517" lon="7.28972">
        <ele>1006.8</ele>
        <time>2021-08-03T12:07:09Z</time>
      </trkpt>
      <trkpt lat="48.41513" lon="7.2897">
        <ele>1006.9</ele>
        <time>2021-08-03T12:07:11Z</time>
      </trkpt>
      <trkpt lat="48.41509" lon="7.28967">
        <ele>1007</ele>
        <time>2021-08-03T12:07:13Z</time>
      </trkpt>
      <trkpt lat="48.41505" lon="7.28967">
        <ele>1007.2</ele>
        <time>2021-08-03T12:07:15Z</time>
      </trkpt>
      <trkpt lat="48.41501" lon="7.28966">
        <ele>1007.4</ele>
        <time>2021-08-03T12:07:17Z</time>
      </trkpt>
      <trkpt lat="48.41499" lon="7.28964">
        <ele>1007.5</ele>
        <time>2021-08-03T12:07:18Z</time>
      </trkpt>
      <trkpt lat="48.41498" lon="7.28964">
        <ele>1007.5</ele>
        <time>2021-08-03T12:07:20Z</time>
      </trkpt>
      <trkpt lat="48.41498" lon="7.28963">
        <ele>1007.6</ele>
        <time>2021-08-03T12:07:21Z</time>
      </trkpt>
      <trkpt lat="48.41495" lon="7.2896">
        <ele>1007.7</ele>
        <time>2021-08-03T12:07:22Z</time>
      </trkpt>
      <trkpt lat="48.41493" lon="7.28957">
        <ele>1007.9</ele>
        <time>2021-08-03T12:07:23Z</time>
      </trkpt>
      <trkpt lat="48.41492" lon="7.28955">
        <ele>1008</ele>
        <time>2021-08-03T12:07:24Z</time>
      </trkpt>
      <trkpt lat="48.4149" lon="7.2895">
        <ele>1008.3</ele>
        <time>2021-08-03T12:07:26Z</time>
      </trkpt>
      <trkpt lat="48.41489" lon="7.28948">
        <ele>1008.4</ele>
        <time>2021-08-03T12:07:27Z</time>
      </trkpt>
      <trkpt lat="48.41488" lon="7.28946">
        <ele>1008.5</ele>
        <time>2021-08-03T12:07:28Z</time>
      </trkpt>
      <trkpt lat="48.41485" lon="7.28945">
        <ele>1008.7</ele>
        <time>2021-08-03T12:07:29Z</time>
      </trkpt>
      <trkpt lat="48.41484" lon="7.28944">
        <ele>1008.8</ele>
        <time>2021-08-03T12:07:30Z</time>
      </trkpt>
      <trkpt lat="48.4148" lon="7.28942">
        <ele>1009.1</ele>
        <time>2021-08-03T12:07:31Z</time>
      </trkpt>
      <trkpt lat="48.41479" lon="7.28941">
        <ele>1009.3</ele>
        <time>2021-08-03T12:07:32Z</time>
      </trkpt>
      <trkpt lat="48.41478" lon="7.28939">
        <ele>1009.4</ele>
        <time>2021-08-03T12:07:33Z</time>
      </trkpt>
      <trkpt lat="48.41477" lon="7.28938">
        <ele>1009.5</ele>
        <time>2021-08-03T12:07:34Z</time>
      </trkpt>
      <trkpt lat="48.41475" lon="7.28937">
        <ele>1009.7</ele>
        <time>2021-08-03T12:07:35Z</time>
      </trkpt>
      <trkpt lat="48.41474" lon="7.28936">
        <ele>1009.8</ele>
        <time>2021-08-03T12:07:36Z</time>
      </trkpt>
      <trkpt lat="48.41472" lon="7.28936">
        <ele>1009.9</ele>
        <time>2021-08-03T12:07:37Z</time>
      </trkpt>
      <trkpt lat="48.41471" lon="7.28936">
        <ele>1010.1</ele>
        <time>2021-08-03T12:07:38Z</time>
      </trkpt>
      <trkpt lat="48.41469" lon="7.28936">
        <ele>1010.2</ele>
        <time>2021-08-03T12:07:39Z</time>
      </trkpt>
      <trkpt lat="48.41468" lon="7.28936">
        <ele>1010.3</ele>
        <time>2021-08-03T12:07:40Z</time>
      </trkpt>
      <trkpt lat="48.41467" lon="7.28936">
        <ele>1010.4</ele>
        <time>2021-08-03T12:07:41Z</time>
      </trkpt>
      <trkpt lat="48.41466" lon="7.28934">
        <ele>1010.5</ele>
        <time>2021-08-03T12:07:42Z</time>
      </trkpt>
      <trkpt lat="48.41466" lon="7.28933">
        <ele>1010.6</ele>
        <time>2021-08-03T12:07:43Z</time>
      </trkpt>
      <trkpt lat="48.41465" lon="7.28932">
        <ele>1010.7</ele>
        <time>2021-08-03T12:07:44Z</time>
      </trkpt>
      <trkpt lat="48.4146" lon="7.2893">
        <ele>1011.1</ele>
        <time>2021-08-03T12:07:46Z</time>
      </trkpt>
      <trkpt lat="48.41457" lon="7.28928">
        <ele>1011.4</ele>
        <time>2021-08-03T12:07:47Z</time>
      </trkpt>
      <trkpt lat="48.41456" lon="7.28927">
        <ele>1011.5</ele>
        <time>2021-08-03T12:07:48Z</time>
      </trkpt>
      <trkpt lat="48.41455" lon="7.28927">
        <ele>1011.5</ele>
        <time>2021-08-03T12:07:49Z</time>
      </trkpt>
      <trkpt lat="48.41454" lon="7.28925">
        <ele>1011.7</ele>
        <time>2021-08-03T12:07:50Z</time>
      </trkpt>
      <trkpt lat="48.41451" lon="7.28921">
        <ele>1012.1</ele>
        <time>2021-08-03T12:07:51Z</time>
      </trkpt>
      <trkpt lat="48.4145" lon="7.28919">
        <ele>1012.2</ele>
        <time>2021-08-03T12:07:52Z</time>
      </trkpt>
      <trkpt lat="48.41448" lon="7.28916">
        <ele>1012.4</ele>
        <time>2021-08-03T12:07:53Z</time>
      </trkpt>
      <trkpt lat="48.41446" lon="7.28914">
        <ele>1012.7</ele>
        <time>2021-08-03T12:07:54Z</time>
      </trkpt>
      <trkpt lat="48.41445" lon="7.28913">
        <ele>1012.7</ele>
        <time>2021-08-03T12:07:55Z</time>
      </trkpt>
      <trkpt lat="48.41445" lon="7.28911">
        <ele>1012.8</ele>
        <time>2021-08-03T12:07:57Z</time>
      </trkpt>
      <trkpt lat="48.41444" lon="7.28909">
        <ele>1013</ele>
        <time>2021-08-03T12:07:58Z</time>
      </trkpt>
      <trkpt lat="48.41444" lon="7.28906">
        <ele>1013.1</ele>
        <time>2021-08-03T12:07:59Z</time>
      </trkpt>
      <trkpt lat="48.41443" lon="7.28904">
        <ele>1013.3</ele>
        <time>2021-08-03T12:08:00Z</time>
      </trkpt>
      <trkpt lat="48.41442" lon="7.28902">
        <ele>1013.4</ele>
        <time>2021-08-03T12:08:01Z</time>
      </trkpt>
      <trkpt lat="48.41441" lon="7.289">
        <ele>1013.6</ele>
        <time>2021-08-03T12:08:02Z</time>
      </trkpt>
      <trkpt lat="48.41438" lon="7.28897">
        <ele>1013.9</ele>
        <time>2021-08-03T12:08:03Z</time>
      </trkpt>
      <trkpt lat="48.41437" lon="7.28896">
        <ele>1014</ele>
        <time>2021-08-03T12:08:04Z</time>
      </trkpt>
      <trkpt lat="48.41434" lon="7.28891">
        <ele>1014.4</ele>
        <time>2021-08-03T12:08:06Z</time>
      </trkpt>
      <trkpt lat="48.41434" lon="7.28889">
        <ele>1014.5</ele>
        <time>2021-08-03T12:08:08Z</time>
      </trkpt>
      <trkpt lat="48.41434" lon="7.28885">
        <ele>1014.7</ele>
        <time>2021-08-03T12:08:10Z</time>
      </trkpt>
      <trkpt lat="48.41432" lon="7.2888">
        <ele>1015</ele>
        <time>2021-08-03T12:08:11Z</time>
      </trkpt>
      <trkpt lat="48.41432" lon="7.28879">
        <ele>1015.1</ele>
        <time>2021-08-03T12:08:12Z</time>
      </trkpt>
      <trkpt lat="48.41428" lon="7.28875">
        <ele>1015.4</ele>
        <time>2021-08-03T12:08:13Z</time>
      </trkpt>
      <trkpt lat="48.41427" lon="7.28874">
        <ele>1015.5</ele>
        <time>2021-08-03T12:08:14Z</time>
      </trkpt>
      <trkpt lat="48.41424" lon="7.28872">
        <ele>1015.7</ele>
        <time>2021-08-03T12:08:16Z</time>
      </trkpt>
      <trkpt lat="48.41421" lon="7.28871">
        <ele>1015.9</ele>
        <time>2021-08-03T12:08:17Z</time>
      </trkpt>
      <trkpt lat="48.41418" lon="7.2887">
        <ele>1016.1</ele>
        <time>2021-08-03T12:08:18Z</time>
      </trkpt>
      <trkpt lat="48.41417" lon="7.28869">
        <ele>1016.2</ele>
        <time>2021-08-03T12:08:19Z</time>
      </trkpt>
      <trkpt lat="48.41414" lon="7.28868">
        <ele>1016.4</ele>
        <time>2021-08-03T12:08:20Z</time>
      </trkpt>
      <trkpt lat="48.41411" lon="7.28868">
        <ele>1016.6</ele>
        <time>2021-08-03T12:08:21Z</time>
      </trkpt>
      <trkpt lat="48.41408" lon="7.28865">
        <ele>1016.8</ele>
        <time>2021-08-03T12:08:22Z</time>
      </trkpt>
      <trkpt lat="48.41407" lon="7.28865">
        <ele>1016.9</ele>
        <time>2021-08-03T12:08:23Z</time>
      </trkpt>
      <trkpt lat="48.41404" lon="7.28861">
        <ele>1017.1</ele>
        <time>2021-08-03T12:08:25Z</time>
      </trkpt>
      <trkpt lat="48.41402" lon="7.28859">
        <ele>1017.2</ele>
        <time>2021-08-03T12:08:26Z</time>
      </trkpt>
      <trkpt lat="48.41399" lon="7.28856">
        <ele>1017.5</ele>
        <time>2021-08-03T12:08:28Z</time>
      </trkpt>
      <trkpt lat="48.41396" lon="7.28853">
        <ele>1017.7</ele>
        <time>2021-08-03T12:08:29Z</time>
      </trkpt>
      <trkpt lat="48.41396" lon="7.28851">
        <ele>1017.7</ele>
        <time>2021-08-03T12:08:30Z</time>
      </trkpt>
      <trkpt lat="48.41395" lon="7.28849">
        <ele>1017.8</ele>
        <time>2021-08-03T12:08:31Z</time>
      </trkpt>
      <trkpt lat="48.41393" lon="7.28847">
        <ele>1018</ele>
        <time>2021-08-03T12:08:32Z</time>
      </trkpt>
      <trkpt lat="48.41392" lon="7.28846">
        <ele>1018</ele>
        <time>2021-08-03T12:08:33Z</time>
      </trkpt>
      <trkpt lat="48.41391" lon="7.28844">
        <ele>1018.2</ele>
        <time>2021-08-03T12:08:34Z</time>
      </trkpt>
      <trkpt lat="48.41389" lon="7.28843">
        <ele>1018.3</ele>
        <time>2021-08-03T12:08:35Z</time>
      </trkpt>
      <trkpt lat="48.41388" lon="7.28842">
        <ele>1018.3</ele>
        <time>2021-08-03T12:08:36Z</time>
      </trkpt>
      <trkpt lat="48.41385" lon="7.28841">
        <ele>1018.5</ele>
        <time>2021-08-03T12:08:37Z</time>
      </trkpt>
      <trkpt lat="48.41384" lon="7.2884">
        <ele>1018.6</ele>
        <time>2021-08-03T12:08:38Z</time>
      </trkpt>
      <trkpt lat="48.41381" lon="7.28838">
        <ele>1018.8</ele>
        <time>2021-08-03T12:08:39Z</time>
      </trkpt>
      <trkpt lat="48.4138" lon="7.28837">
        <ele>1018.8</ele>
        <time>2021-08-03T12:08:40Z</time>
      </trkpt>
      <trkpt lat="48.41379" lon="7.28836">
        <ele>1018.9</ele>
        <time>2021-08-03T12:08:41Z</time>
      </trkpt>
      <trkpt lat="48.41378" lon="7.28834">
        <ele>1018.9</ele>
        <time>2021-08-03T12:08:42Z</time>
      </trkpt>
      <trkpt lat="48.41377" lon="7.28829">
        <ele>1019.1</ele>
        <time>2021-08-03T12:08:44Z</time>
      </trkpt>
      <trkpt lat="48.41379" lon="7.28826">
        <ele>1019.2</ele>
        <time>2021-08-03T12:08:46Z</time>
      </trkpt>
      <trkpt lat="48.41378" lon="7.28826">
        <ele>1019.2</ele>
        <time>2021-08-03T12:08:48Z</time>
      </trkpt>
      <trkpt lat="48.41376" lon="7.28826">
        <ele>1019.3</ele>
        <time>2021-08-03T12:08:50Z</time>
      </trkpt>
      <trkpt lat="48.41375" lon="7.28825">
        <ele>1019.3</ele>
        <time>2021-08-03T12:08:51Z</time>
      </trkpt>
      <trkpt lat="48.41374" lon="7.28825">
        <ele>1019.4</ele>
        <time>2021-08-03T12:08:52Z</time>
      </trkpt>
      <trkpt lat="48.41365" lon="7.28817">
        <ele>1019.8</ele>
        <time>2021-08-03T12:08:58Z</time>
      </trkpt>
      <trkpt lat="48.41363" lon="7.28816">
        <ele>1019.9</ele>
        <time>2021-08-03T12:08:59Z</time>
      </trkpt>
      <trkpt lat="48.41359" lon="7.28814">
        <ele>1020.1</ele>
        <time>2021-08-03T12:09:00Z</time>
      </trkpt>
      <trkpt lat="48.41356" lon="7.28812">
        <ele>1020.2</ele>
        <time>2021-08-03T12:09:01Z</time>
      </trkpt>
      <trkpt lat="48.41353" lon="7.2881">
        <ele>1020.3</ele>
        <time>2021-08-03T12:09:02Z</time>
      </trkpt>
      <trkpt lat="48.41349" lon="7.28807">
        <ele>1020.5</ele>
        <time>2021-08-03T12:09:03Z</time>
      </trkpt>
      <trkpt lat="48.41345" lon="7.28801">
        <ele>1020.6</ele>
        <time>2021-08-03T12:09:04Z</time>
      </trkpt>
      <trkpt lat="48.41341" lon="7.28798">
        <ele>1020.7</ele>
        <time>2021-08-03T12:09:05Z</time>
      </trkpt>
      <trkpt lat="48.41338" lon="7.28795">
        <ele>1020.8</ele>
        <time>2021-08-03T12:09:06Z</time>
      </trkpt>
      <trkpt lat="48.41333" lon="7.2879">
        <ele>1020.8</ele>
        <time>2021-08-03T12:09:08Z</time>
      </trkpt>
      <trkpt lat="48.4133" lon="7.28785">
        <ele>1020.9</ele>
        <time>2021-08-03T12:09:09Z</time>
      </trkpt>
      <trkpt lat="48.41322" lon="7.28776">
        <ele>1021</ele>
        <time>2021-08-03T12:09:11Z</time>
      </trkpt>
      <trkpt lat="48.41319" lon="7.28773">
        <ele>1021.1</ele>
        <time>2021-08-03T12:09:12Z</time>
      </trkpt>
      <trkpt lat="48.41316" lon="7.28769">
        <ele>1021.1</ele>
        <time>2021-08-03T12:09:13Z</time>
      </trkpt>
      <trkpt lat="48.41313" lon="7.28766">
        <ele>1021.1</ele>
        <time>2021-08-03T12:09:14Z</time>
      </trkpt>
      <trkpt lat="48.41309" lon="7.2876">
        <ele>1021.2</ele>
        <time>2021-08-03T12:09:16Z</time>
      </trkpt>
      <trkpt lat="48.41305" lon="7.28755">
        <ele>1021.2</ele>
        <time>2021-08-03T12:09:17Z</time>
      </trkpt>
      <trkpt lat="48.41302" lon="7.28751">
        <ele>1021.2</ele>
        <time>2021-08-03T12:09:18Z</time>
      </trkpt>
      <trkpt lat="48.41298" lon="7.28748">
        <ele>1021.2</ele>
        <time>2021-08-03T12:09:19Z</time>
      </trkpt>
      <trkpt lat="48.41295" lon="7.28744">
        <ele>1021.3</ele>
        <time>2021-08-03T12:09:20Z</time>
      </trkpt>
      <trkpt lat="48.41292" lon="7.28742">
        <ele>1021.3</ele>
        <time>2021-08-03T12:09:21Z</time>
      </trkpt>
      <trkpt lat="48.4129" lon="7.28739">
        <ele>1021.3</ele>
        <time>2021-08-03T12:09:22Z</time>
      </trkpt>
      <trkpt lat="48.41287" lon="7.28737">
        <ele>1021.3</ele>
        <time>2021-08-03T12:09:23Z</time>
      </trkpt>
      <trkpt lat="48.41286" lon="7.28736">
        <ele>1021.3</ele>
        <time>2021-08-03T12:09:24Z</time>
      </trkpt>
      <trkpt lat="48.41284" lon="7.28733">
        <ele>1021.3</ele>
        <time>2021-08-03T12:09:25Z</time>
      </trkpt>
      <trkpt lat="48.41283" lon="7.28729">
        <ele>1021.3</ele>
        <time>2021-08-03T12:09:26Z</time>
      </trkpt>
      <trkpt lat="48.41281" lon="7.28727">
        <ele>1021.3</ele>
        <time>2021-08-03T12:09:28Z</time>
      </trkpt>
      <trkpt lat="48.41279" lon="7.28723">
        <ele>1021.2</ele>
        <time>2021-08-03T12:09:29Z</time>
      </trkpt>
      <trkpt lat="48.41276" lon="7.2872">
        <ele>1021.2</ele>
        <time>2021-08-03T12:09:31Z</time>
      </trkpt>
      <trkpt lat="48.41274" lon="7.28716">
        <ele>1021.2</ele>
        <time>2021-08-03T12:09:32Z</time>
      </trkpt>
      <trkpt lat="48.41273" lon="7.28712">
        <ele>1021.2</ele>
        <time>2021-08-03T12:09:33Z</time>
      </trkpt>
      <trkpt lat="48.41268" lon="7.28706">
        <ele>1021.1</ele>
        <time>2021-08-03T12:09:35Z</time>
      </trkpt>
      <trkpt lat="48.41265" lon="7.28702">
        <ele>1021.1</ele>
        <time>2021-08-03T12:09:36Z</time>
      </trkpt>
      <trkpt lat="48.4126" lon="7.28693">
        <ele>1021.1</ele>
        <time>2021-08-03T12:09:38Z</time>
      </trkpt>
      <trkpt lat="48.41254" lon="7.28687">
        <ele>1021</ele>
        <time>2021-08-03T12:09:40Z</time>
      </trkpt>
      <trkpt lat="48.4125" lon="7.28681">
        <ele>1021</ele>
        <time>2021-08-03T12:09:41Z</time>
      </trkpt>
      <trkpt lat="48.41246" lon="7.28677">
        <ele>1021</ele>
        <time>2021-08-03T12:09:42Z</time>
      </trkpt>
      <trkpt lat="48.41239" lon="7.28671">
        <ele>1021</ele>
        <time>2021-08-03T12:09:44Z</time>
      </trkpt>
      <trkpt lat="48.41231" lon="7.28668">
        <ele>1021.1</ele>
        <time>2021-08-03T12:09:46Z</time>
      </trkpt>
      <trkpt lat="48.41228" lon="7.28667">
        <ele>1021.1</ele>
        <time>2021-08-03T12:09:47Z</time>
      </trkpt>
      <trkpt lat="48.41225" lon="7.28665">
        <ele>1021.1</ele>
        <time>2021-08-03T12:09:48Z</time>
      </trkpt>
      <trkpt lat="48.41222" lon="7.28664">
        <ele>1021.2</ele>
        <time>2021-08-03T12:09:50Z</time>
      </trkpt>
      <trkpt lat="48.41219" lon="7.28664">
        <ele>1021.2</ele>
        <time>2021-08-03T12:09:51Z</time>
      </trkpt>
      <trkpt lat="48.41217" lon="7.28663">
        <ele>1021.3</ele>
        <time>2021-08-03T12:09:52Z</time>
      </trkpt>
      <trkpt lat="48.41211" lon="7.28657">
        <ele>1021.4</ele>
        <time>2021-08-03T12:09:54Z</time>
      </trkpt>
      <trkpt lat="48.41202" lon="7.28651">
        <ele>1021.7</ele>
        <time>2021-08-03T12:09:56Z</time>
      </trkpt>
      <trkpt lat="48.41196" lon="7.28646">
        <ele>1021.8</ele>
        <time>2021-08-03T12:09:57Z</time>
      </trkpt>
      <trkpt lat="48.41192" lon="7.28642">
        <ele>1022</ele>
        <time>2021-08-03T12:09:58Z</time>
      </trkpt>
      <trkpt lat="48.41186" lon="7.28634">
        <ele>1022.3</ele>
        <time>2021-08-03T12:10:00Z</time>
      </trkpt>
      <trkpt lat="48.41179" lon="7.28627">
        <ele>1022.6</ele>
        <time>2021-08-03T12:10:01Z</time>
      </trkpt>
      <trkpt lat="48.41176" lon="7.28624">
        <ele>1022.8</ele>
        <time>2021-08-03T12:10:02Z</time>
      </trkpt>
      <trkpt lat="48.41171" lon="7.28616">
        <ele>1023.1</ele>
        <time>2021-08-03T12:10:04Z</time>
      </trkpt>
      <trkpt lat="48.41168" lon="7.28612">
        <ele>1023.3</ele>
        <time>2021-08-03T12:10:05Z</time>
      </trkpt>
      <trkpt lat="48.41165" lon="7.2861">
        <ele>1023.4</ele>
        <time>2021-08-03T12:10:06Z</time>
      </trkpt>
      <trkpt lat="48.41161" lon="7.28607">
        <ele>1023.6</ele>
        <time>2021-08-03T12:10:08Z</time>
      </trkpt>
      <trkpt lat="48.4116" lon="7.28606">
        <ele>1023.7</ele>
        <time>2021-08-03T12:10:09Z</time>
      </trkpt>
      <trkpt lat="48.41158" lon="7.28604">
        <ele>1023.8</ele>
        <time>2021-08-03T12:10:11Z</time>
      </trkpt>
      <trkpt lat="48.41157" lon="7.28603">
        <ele>1023.9</ele>
        <time>2021-08-03T12:10:12Z</time>
      </trkpt>
      <trkpt lat="48.41153" lon="7.28599">
        <ele>1024.1</ele>
        <time>2021-08-03T12:10:14Z</time>
      </trkpt>
      <trkpt lat="48.41151" lon="7.28596">
        <ele>1024.2</ele>
        <time>2021-08-03T12:10:15Z</time>
      </trkpt>
      <trkpt lat="48.41148" lon="7.28591">
        <ele>1024.5</ele>
        <time>2021-08-03T12:10:17Z</time>
      </trkpt>
      <trkpt lat="48.41146" lon="7.28586">
        <ele>1024.6</ele>
        <time>2021-08-03T12:10:18Z</time>
      </trkpt>
      <trkpt lat="48.41145" lon="7.28584">
        <ele>1024.7</ele>
        <time>2021-08-03T12:10:19Z</time>
      </trkpt>
      <trkpt lat="48.41143" lon="7.28578">
        <ele>1024.9</ele>
        <time>2021-08-03T12:10:21Z</time>
      </trkpt>
      <trkpt lat="48.4114" lon="7.28572">
        <ele>1025.2</ele>
        <time>2021-08-03T12:10:23Z</time>
      </trkpt>
      <trkpt lat="48.41139" lon="7.28569">
        <ele>1025.3</ele>
        <time>2021-08-03T12:10:24Z</time>
      </trkpt>
      <trkpt lat="48.41135" lon="7.28564">
        <ele>1025.5</ele>
        <time>2021-08-03T12:10:26Z</time>
      </trkpt>
      <trkpt lat="48.41132" lon="7.2856">
        <ele>1025.7</ele>
        <time>2021-08-03T12:10:27Z</time>
      </trkpt>
      <trkpt lat="48.4113" lon="7.28559">
        <ele>1025.8</ele>
        <time>2021-08-03T12:10:28Z</time>
      </trkpt>
      <trkpt lat="48.41128" lon="7.28557">
        <ele>1025.9</ele>
        <time>2021-08-03T12:10:30Z</time>
      </trkpt>
      <trkpt lat="48.41125" lon="7.28554">
        <ele>1026.1</ele>
        <time>2021-08-03T12:10:31Z</time>
      </trkpt>
      <trkpt lat="48.41121" lon="7.28552">
        <ele>1026.2</ele>
        <time>2021-08-03T12:10:32Z</time>
      </trkpt>
      <trkpt lat="48.41119" lon="7.28549">
        <ele>1026.3</ele>
        <time>2021-08-03T12:10:33Z</time>
      </trkpt>
      <trkpt lat="48.41116" lon="7.28546">
        <ele>1026.5</ele>
        <time>2021-08-03T12:10:35Z</time>
      </trkpt>
      <trkpt lat="48.41113" lon="7.28543">
        <ele>1026.6</ele>
        <time>2021-08-03T12:10:36Z</time>
      </trkpt>
      <trkpt lat="48.41112" lon="7.28541">
        <ele>1026.6</ele>
        <time>2021-08-03T12:10:37Z</time>
      </trkpt>
      <trkpt lat="48.41109" lon="7.28538">
        <ele>1026.6</ele>
        <time>2021-08-03T12:10:38Z</time>
      </trkpt>
      <trkpt lat="48.41108" lon="7.28537">
        <ele>1026.6</ele>
        <time>2021-08-03T12:10:39Z</time>
      </trkpt>
      <trkpt lat="48.41105" lon="7.28535">
        <ele>1026.6</ele>
        <time>2021-08-03T12:10:40Z</time>
      </trkpt>
      <trkpt lat="48.41104" lon="7.28534">
        <ele>1026.6</ele>
        <time>2021-08-03T12:10:41Z</time>
      </trkpt>
      <trkpt lat="48.411" lon="7.28531">
        <ele>1026.6</ele>
        <time>2021-08-03T12:10:43Z</time>
      </trkpt>
      <trkpt lat="48.41099" lon="7.2853">
        <ele>1026.6</ele>
        <time>2021-08-03T12:10:44Z</time>
      </trkpt>
      <trkpt lat="48.41098" lon="7.2853">
        <ele>1026.7</ele>
        <time>2021-08-03T12:10:45Z</time>
      </trkpt>
      <trkpt lat="48.41095" lon="7.28529">
        <ele>1026.8</ele>
        <time>2021-08-03T12:10:47Z</time>
      </trkpt>
      <trkpt lat="48.41095" lon="7.28526">
        <ele>1026.9</ele>
        <time>2021-08-03T12:10:48Z</time>
      </trkpt>
      <trkpt lat="48.41093" lon="7.2852">
        <ele>1027</ele>
        <time>2021-08-03T12:10:50Z</time>
      </trkpt>
      <trkpt lat="48.41091" lon="7.28514">
        <ele>1027.2</ele>
        <time>2021-08-03T12:10:52Z</time>
      </trkpt>
      <trkpt lat="48.4109" lon="7.28509">
        <ele>1027.4</ele>
        <time>2021-08-03T12:10:53Z</time>
      </trkpt>
      <trkpt lat="48.41089" lon="7.28507">
        <ele>1027.5</ele>
        <time>2021-08-03T12:10:54Z</time>
      </trkpt>
      <trkpt lat="48.41087" lon="7.28499">
        <ele>1027.7</ele>
        <time>2021-08-03T12:10:56Z</time>
      </trkpt>
      <trkpt lat="48.41087" lon="7.28495">
        <ele>1027.8</ele>
        <time>2021-08-03T12:10:57Z</time>
      </trkpt>
      <trkpt lat="48.41086" lon="7.28489">
        <ele>1028</ele>
        <time>2021-08-03T12:10:59Z</time>
      </trkpt>
      <trkpt lat="48.41084" lon="7.28486">
        <ele>1028.2</ele>
        <time>2021-08-03T12:11:00Z</time>
      </trkpt>
      <trkpt lat="48.41083" lon="7.28485">
        <ele>1028.3</ele>
        <time>2021-08-03T12:11:01Z</time>
      </trkpt>
      <trkpt lat="48.41082" lon="7.28481">
        <ele>1028.4</ele>
        <time>2021-08-03T12:11:02Z</time>
      </trkpt>
      <trkpt lat="48.41081" lon="7.2848">
        <ele>1028.5</ele>
        <time>2021-08-03T12:11:03Z</time>
      </trkpt>
      <trkpt lat="48.4108" lon="7.28474">
        <ele>1028.8</ele>
        <time>2021-08-03T12:11:05Z</time>
      </trkpt>
      <trkpt lat="48.41079" lon="7.28469">
        <ele>1029</ele>
        <time>2021-08-03T12:11:06Z</time>
      </trkpt>
      <trkpt lat="48.41078" lon="7.28468">
        <ele>1029</ele>
        <time>2021-08-03T12:11:07Z</time>
      </trkpt>
      <trkpt lat="48.41076" lon="7.28461">
        <ele>1029.4</ele>
        <time>2021-08-03T12:11:09Z</time>
      </trkpt>
      <trkpt lat="48.41074" lon="7.28455">
        <ele>1029.7</ele>
        <time>2021-08-03T12:11:11Z</time>
      </trkpt>
      <trkpt lat="48.41073" lon="7.28454">
        <ele>1029.8</ele>
        <time>2021-08-03T12:11:12Z</time>
      </trkpt>
      <trkpt lat="48.41069" lon="7.28452">
        <ele>1030.1</ele>
        <time>2021-08-03T12:11:14Z</time>
      </trkpt>
      <trkpt lat="48.41065" lon="7.28451">
        <ele>1030.4</ele>
        <time>2021-08-03T12:11:15Z</time>
      </trkpt>
      <trkpt lat="48.41064" lon="7.2845">
        <ele>1030.5</ele>
        <time>2021-08-03T12:11:16Z</time>
      </trkpt>
      <trkpt lat="48.41062" lon="7.2845">
        <ele>1030.6</ele>
        <time>2021-08-03T12:11:17Z</time>
      </trkpt>
      <trkpt lat="48.4106" lon="7.2845">
        <ele>1030.8</ele>
        <time>2021-08-03T12:11:19Z</time>
      </trkpt>
      <trkpt lat="48.41057" lon="7.28447">
        <ele>1031</ele>
        <time>2021-08-03T12:11:20Z</time>
      </trkpt>
      <trkpt lat="48.41055" lon="7.28446">
        <ele>1031.1</ele>
        <time>2021-08-03T12:11:21Z</time>
      </trkpt>
      <trkpt lat="48.41053" lon="7.28444">
        <ele>1031.3</ele>
        <time>2021-08-03T12:11:22Z</time>
      </trkpt>
      <trkpt lat="48.4105" lon="7.28441">
        <ele>1031.6</ele>
        <time>2021-08-03T12:11:23Z</time>
      </trkpt>
      <trkpt lat="48.41048" lon="7.28438">
        <ele>1031.7</ele>
        <time>2021-08-03T12:11:24Z</time>
      </trkpt>
      <trkpt lat="48.41046" lon="7.28435">
        <ele>1031.9</ele>
        <time>2021-08-03T12:11:26Z</time>
      </trkpt>
      <trkpt lat="48.41046" lon="7.28433">
        <ele>1032</ele>
        <time>2021-08-03T12:11:27Z</time>
      </trkpt>
      <trkpt lat="48.41046" lon="7.2843">
        <ele>1032.2</ele>
        <time>2021-08-03T12:11:28Z</time>
      </trkpt>
      <trkpt lat="48.41046" lon="7.28425">
        <ele>1032.4</ele>
        <time>2021-08-03T12:11:29Z</time>
      </trkpt>
      <trkpt lat="48.41046" lon="7.28424">
        <ele>1032.5</ele>
        <time>2021-08-03T12:11:30Z</time>
      </trkpt>
      <trkpt lat="48.41046" lon="7.28417">
        <ele>1032.8</ele>
        <time>2021-08-03T12:11:32Z</time>
      </trkpt>
      <trkpt lat="48.41045" lon="7.28413">
        <ele>1033</ele>
        <time>2021-08-03T12:11:33Z</time>
      </trkpt>
      <trkpt lat="48.41045" lon="7.28411">
        <ele>1033</ele>
        <time>2021-08-03T12:11:34Z</time>
      </trkpt>
      <trkpt lat="48.41044" lon="7.28404">
        <ele>1033.3</ele>
        <time>2021-08-03T12:11:36Z</time>
      </trkpt>
      <trkpt lat="48.41043" lon="7.28399">
        <ele>1033.6</ele>
        <time>2021-08-03T12:11:38Z</time>
      </trkpt>
      <trkpt lat="48.41042" lon="7.28393">
        <ele>1033.8</ele>
        <time>2021-08-03T12:11:40Z</time>
      </trkpt>
      <trkpt lat="48.41041" lon="7.28385">
        <ele>1034.2</ele>
        <time>2021-08-03T12:11:42Z</time>
      </trkpt>
      <trkpt lat="48.41039" lon="7.28379">
        <ele>1034.4</ele>
        <time>2021-08-03T12:11:44Z</time>
      </trkpt>
      <trkpt lat="48.41038" lon="7.28377">
        <ele>1034.5</ele>
        <time>2021-08-03T12:11:45Z</time>
      </trkpt>
      <trkpt lat="48.41035" lon="7.28372">
        <ele>1034.8</ele>
        <time>2021-08-03T12:11:47Z</time>
      </trkpt>
      <trkpt lat="48.41034" lon="7.28369">
        <ele>1034.9</ele>
        <time>2021-08-03T12:11:48Z</time>
      </trkpt>
      <trkpt lat="48.41032" lon="7.28365">
        <ele>1035</ele>
        <time>2021-08-03T12:11:50Z</time>
      </trkpt>
      <trkpt lat="48.4103" lon="7.28362">
        <ele>1035.2</ele>
        <time>2021-08-03T12:11:51Z</time>
      </trkpt>
      <trkpt lat="48.4103" lon="7.28361">
        <ele>1035.2</ele>
        <time>2021-08-03T12:11:52Z</time>
      </trkpt>
      <trkpt lat="48.41027" lon="7.28357">
        <ele>1035.4</ele>
        <time>2021-08-03T12:11:54Z</time>
      </trkpt>
      <trkpt lat="48.41027" lon="7.28355">
        <ele>1035.5</ele>
        <time>2021-08-03T12:11:55Z</time>
      </trkpt>
      <trkpt lat="48.41027" lon="7.28353">
        <ele>1035.6</ele>
        <time>2021-08-03T12:11:56Z</time>
      </trkpt>
      <trkpt lat="48.41028" lon="7.28348">
        <ele>1035.7</ele>
        <time>2021-08-03T12:11:58Z</time>
      </trkpt>
      <trkpt lat="48.41027" lon="7.28344">
        <ele>1035.9</ele>
        <time>2021-08-03T12:11:59Z</time>
      </trkpt>
      <trkpt lat="48.41026" lon="7.28342">
        <ele>1035.9</ele>
        <time>2021-08-03T12:12:00Z</time>
      </trkpt>
      <trkpt lat="48.41026" lon="7.2834">
        <ele>1036</ele>
        <time>2021-08-03T12:12:02Z</time>
      </trkpt>
      <trkpt lat="48.41025" lon="7.28337">
        <ele>1036.1</ele>
        <time>2021-08-03T12:12:03Z</time>
      </trkpt>
      <trkpt lat="48.41023" lon="7.28333">
        <ele>1036.3</ele>
        <time>2021-08-03T12:12:04Z</time>
      </trkpt>
      <trkpt lat="48.41022" lon="7.28332">
        <ele>1036.3</ele>
        <time>2021-08-03T12:12:05Z</time>
      </trkpt>
      <trkpt lat="48.41021" lon="7.28328">
        <ele>1036.4</ele>
        <time>2021-08-03T12:12:06Z</time>
      </trkpt>
      <trkpt lat="48.41019" lon="7.28324">
        <ele>1036.6</ele>
        <time>2021-08-03T12:12:07Z</time>
      </trkpt>
      <trkpt lat="48.41019" lon="7.28323">
        <ele>1036.6</ele>
        <time>2021-08-03T12:12:08Z</time>
      </trkpt>
      <trkpt lat="48.41017" lon="7.28319">
        <ele>1036.7</ele>
        <time>2021-08-03T12:12:09Z</time>
      </trkpt>
      <trkpt lat="48.41016" lon="7.28318">
        <ele>1036.8</ele>
        <time>2021-08-03T12:12:10Z</time>
      </trkpt>
      <trkpt lat="48.41014" lon="7.28316">
        <ele>1036.9</ele>
        <time>2021-08-03T12:12:12Z</time>
      </trkpt>
      <trkpt lat="48.41013" lon="7.28316">
        <ele>1037</ele>
        <time>2021-08-03T12:12:13Z</time>
      </trkpt>
      <trkpt lat="48.4101" lon="7.28313">
        <ele>1037.1</ele>
        <time>2021-08-03T12:12:14Z</time>
      </trkpt>
      <trkpt lat="48.4101" lon="7.28311">
        <ele>1037.1</ele>
        <time>2021-08-03T12:12:15Z</time>
      </trkpt>
      <trkpt lat="48.41009" lon="7.28309">
        <ele>1037.2</ele>
        <time>2021-08-03T12:12:16Z</time>
      </trkpt>
      <trkpt lat="48.41008" lon="7.28307">
        <ele>1037.3</ele>
        <time>2021-08-03T12:12:17Z</time>
      </trkpt>
      <trkpt lat="48.41007" lon="7.28304">
        <ele>1037.4</ele>
        <time>2021-08-03T12:12:18Z</time>
      </trkpt>
      <trkpt lat="48.41005" lon="7.28298">
        <ele>1037.5</ele>
        <time>2021-08-03T12:12:20Z</time>
      </trkpt>
      <trkpt lat="48.41004" lon="7.28295">
        <ele>1037.6</ele>
        <time>2021-08-03T12:12:21Z</time>
      </trkpt>
      <trkpt lat="48.41004" lon="7.28293">
        <ele>1037.6</ele>
        <time>2021-08-03T12:12:22Z</time>
      </trkpt>
      <trkpt lat="48.41002" lon="7.28288">
        <ele>1037.8</ele>
        <time>2021-08-03T12:12:24Z</time>
      </trkpt>
      <trkpt lat="48.41001" lon="7.28287">
        <ele>1037.8</ele>
        <time>2021-08-03T12:12:25Z</time>
      </trkpt>
      <trkpt lat="48.41" lon="7.28284">
        <ele>1037.9</ele>
        <time>2021-08-03T12:12:26Z</time>
      </trkpt>
      <trkpt lat="48.40999" lon="7.28282">
        <ele>1038</ele>
        <time>2021-08-03T12:12:28Z</time>
      </trkpt>
      <trkpt lat="48.40997" lon="7.28278">
        <ele>1038.1</ele>
        <time>2021-08-03T12:12:29Z</time>
      </trkpt>
      <trkpt lat="48.40997" lon="7.28272">
        <ele>1038.2</ele>
        <time>2021-08-03T12:12:30Z</time>
      </trkpt>
      <trkpt lat="48.40996" lon="7.28271">
        <ele>1038.2</ele>
        <time>2021-08-03T12:12:31Z</time>
      </trkpt>
      <trkpt lat="48.40995" lon="7.28267">
        <ele>1038.3</ele>
        <time>2021-08-03T12:12:33Z</time>
      </trkpt>
      <trkpt lat="48.40995" lon="7.28265">
        <ele>1038.4</ele>
        <time>2021-08-03T12:12:34Z</time>
      </trkpt>
      <trkpt lat="48.40995" lon="7.28262">
        <ele>1038.4</ele>
        <time>2021-08-03T12:12:35Z</time>
      </trkpt>
      <trkpt lat="48.40995" lon="7.28257">
        <ele>1038.5</ele>
        <time>2021-08-03T12:12:36Z</time>
      </trkpt>
      <trkpt lat="48.40994" lon="7.28255">
        <ele>1038.6</ele>
        <time>2021-08-03T12:12:37Z</time>
      </trkpt>
      <trkpt lat="48.40993" lon="7.28251">
        <ele>1038.7</ele>
        <time>2021-08-03T12:12:38Z</time>
      </trkpt>
      <trkpt lat="48.40993" lon="7.28249">
        <ele>1038.7</ele>
        <time>2021-08-03T12:12:39Z</time>
      </trkpt>
      <trkpt lat="48.40993" lon="7.28245">
        <ele>1038.8</ele>
        <time>2021-08-03T12:12:41Z</time>
      </trkpt>
      <trkpt lat="48.40991" lon="7.28242">
        <ele>1038.9</ele>
        <time>2021-08-03T12:12:42Z</time>
      </trkpt>
      <trkpt lat="48.4099" lon="7.28235">
        <ele>1039.1</ele>
        <time>2021-08-03T12:12:44Z</time>
      </trkpt>
      <trkpt lat="48.40988" lon="7.2823">
        <ele>1039.2</ele>
        <time>2021-08-03T12:12:45Z</time>
      </trkpt>
      <trkpt lat="48.40986" lon="7.28225">
        <ele>1039.4</ele>
        <time>2021-08-03T12:12:47Z</time>
      </trkpt>
      <trkpt lat="48.40985" lon="7.28222">
        <ele>1039.4</ele>
        <time>2021-08-03T12:12:48Z</time>
      </trkpt>
      <trkpt lat="48.40982" lon="7.28217">
        <ele>1039.6</ele>
        <time>2021-08-03T12:12:50Z</time>
      </trkpt>
      <trkpt lat="48.40979" lon="7.28211">
        <ele>1039.8</ele>
        <time>2021-08-03T12:12:52Z</time>
      </trkpt>
      <trkpt lat="48.40977" lon="7.28207">
        <ele>1039.9</ele>
        <time>2021-08-03T12:12:53Z</time>
      </trkpt>
      <trkpt lat="48.40975" lon="7.28204">
        <ele>1040</ele>
        <time>2021-08-03T12:12:54Z</time>
      </trkpt>
      <trkpt lat="48.40972" lon="7.28197">
        <ele>1040.2</ele>
        <time>2021-08-03T12:12:56Z</time>
      </trkpt>
      <trkpt lat="48.4097" lon="7.28193">
        <ele>1040.4</ele>
        <time>2021-08-03T12:12:57Z</time>
      </trkpt>
      <trkpt lat="48.40967" lon="7.28189">
        <ele>1040.5</ele>
        <time>2021-08-03T12:12:58Z</time>
      </trkpt>
      <trkpt lat="48.40966" lon="7.28187">
        <ele>1040.6</ele>
        <time>2021-08-03T12:12:59Z</time>
      </trkpt>
      <trkpt lat="48.40964" lon="7.28184">
        <ele>1040.7</ele>
        <time>2021-08-03T12:13:00Z</time>
      </trkpt>
      <trkpt lat="48.40963" lon="7.28181">
        <ele>1040.8</ele>
        <time>2021-08-03T12:13:01Z</time>
      </trkpt>
      <trkpt lat="48.40962" lon="7.28178">
        <ele>1040.9</ele>
        <time>2021-08-03T12:13:03Z</time>
      </trkpt>
      <trkpt lat="48.40961" lon="7.28173">
        <ele>1041.1</ele>
        <time>2021-08-03T12:13:04Z</time>
      </trkpt>
      <trkpt lat="48.40961" lon="7.28172">
        <ele>1041.1</ele>
        <time>2021-08-03T12:13:05Z</time>
      </trkpt>
      <trkpt lat="48.40958" lon="7.28167">
        <ele>1041.3</ele>
        <time>2021-08-03T12:13:06Z</time>
      </trkpt>
      <trkpt lat="48.40958" lon="7.28166">
        <ele>1041.4</ele>
        <time>2021-08-03T12:13:07Z</time>
      </trkpt>
      <trkpt lat="48.40957" lon="7.28163">
        <ele>1041.5</ele>
        <time>2021-08-03T12:13:08Z</time>
      </trkpt>
      <trkpt lat="48.40958" lon="7.28157">
        <ele>1041.7</ele>
        <time>2021-08-03T12:13:10Z</time>
      </trkpt>
      <trkpt lat="48.40957" lon="7.28152">
        <ele>1041.9</ele>
        <time>2021-08-03T12:13:11Z</time>
      </trkpt>
      <trkpt lat="48.40956" lon="7.2815">
        <ele>1042</ele>
        <time>2021-08-03T12:13:12Z</time>
      </trkpt>
      <trkpt lat="48.40955" lon="7.28145">
        <ele>1042.2</ele>
        <time>2021-08-03T12:13:13Z</time>
      </trkpt>
      <trkpt lat="48.40955" lon="7.28142">
        <ele>1042.3</ele>
        <time>2021-08-03T12:13:14Z</time>
      </trkpt>
      <trkpt lat="48.40954" lon="7.28139">
        <ele>1042.4</ele>
        <time>2021-08-03T12:13:16Z</time>
      </trkpt>
      <trkpt lat="48.40952" lon="7.28134">
        <ele>1042.6</ele>
        <time>2021-08-03T12:13:17Z</time>
      </trkpt>
      <trkpt lat="48.40951" lon="7.28133">
        <ele>1042.7</ele>
        <time>2021-08-03T12:13:18Z</time>
      </trkpt>
      <trkpt lat="48.40943" lon="7.28123">
        <ele>1043.4</ele>
        <time>2021-08-03T12:13:20Z</time>
      </trkpt>
      <trkpt lat="48.40939" lon="7.28117">
        <ele>1043.8</ele>
        <time>2021-08-03T12:13:21Z</time>
      </trkpt>
      <trkpt lat="48.40937" lon="7.28114">
        <ele>1044</ele>
        <time>2021-08-03T12:13:22Z</time>
      </trkpt>
      <trkpt lat="48.40934" lon="7.2811">
        <ele>1044.3</ele>
        <time>2021-08-03T12:13:23Z</time>
      </trkpt>
      <trkpt lat="48.40934" lon="7.28108">
        <ele>1044.3</ele>
        <time>2021-08-03T12:13:24Z</time>
      </trkpt>
      <trkpt lat="48.40933" lon="7.28105">
        <ele>1044.5</ele>
        <time>2021-08-03T12:13:25Z</time>
      </trkpt>
      <trkpt lat="48.40931" lon="7.28099">
        <ele>1044.8</ele>
        <time>2021-08-03T12:13:27Z</time>
      </trkpt>
      <trkpt lat="48.4093" lon="7.28093">
        <ele>1045.1</ele>
        <time>2021-08-03T12:13:29Z</time>
      </trkpt>
      <trkpt lat="48.40928" lon="7.28091">
        <ele>1045.3</ele>
        <time>2021-08-03T12:13:30Z</time>
      </trkpt>
      <trkpt lat="48.40924" lon="7.2809">
        <ele>1045.5</ele>
        <time>2021-08-03T12:13:32Z</time>
      </trkpt>
      <trkpt lat="48.40923" lon="7.28089">
        <ele>1045.6</ele>
        <time>2021-08-03T12:13:33Z</time>
      </trkpt>
      <trkpt lat="48.40922" lon="7.28086">
        <ele>1045.7</ele>
        <time>2021-08-03T12:13:34Z</time>
      </trkpt>
      <trkpt lat="48.40921" lon="7.2808">
        <ele>1046</ele>
        <time>2021-08-03T12:13:36Z</time>
      </trkpt>
      <trkpt lat="48.40921" lon="7.28078">
        <ele>1046.1</ele>
        <time>2021-08-03T12:13:37Z</time>
      </trkpt>
      <trkpt lat="48.40919" lon="7.28071">
        <ele>1046.4</ele>
        <time>2021-08-03T12:13:39Z</time>
      </trkpt>
      <trkpt lat="48.40918" lon="7.28065">
        <ele>1046.7</ele>
        <time>2021-08-03T12:13:41Z</time>
      </trkpt>
      <trkpt lat="48.40915" lon="7.28058">
        <ele>1047.1</ele>
        <time>2021-08-03T12:13:43Z</time>
      </trkpt>
      <trkpt lat="48.40913" lon="7.28052">
        <ele>1047.5</ele>
        <time>2021-08-03T12:13:45Z</time>
      </trkpt>
      <trkpt lat="48.4091" lon="7.28047">
        <ele>1047.9</ele>
        <time>2021-08-03T12:13:47Z</time>
      </trkpt>
      <trkpt lat="48.40907" lon="7.28043">
        <ele>1048.2</ele>
        <time>2021-08-03T12:13:49Z</time>
      </trkpt>
      <trkpt lat="48.40906" lon="7.28042">
        <ele>1048.3</ele>
        <time>2021-08-03T12:13:50Z</time>
      </trkpt>
      <trkpt lat="48.40905" lon="7.2804">
        <ele>1048.4</ele>
        <time>2021-08-03T12:13:51Z</time>
      </trkpt>
      <trkpt lat="48.40905" lon="7.28039">
        <ele>1048.5</ele>
        <time>2021-08-03T12:13:52Z</time>
      </trkpt>
      <trkpt lat="48.40903" lon="7.28038">
        <ele>1048.6</ele>
        <time>2021-08-03T12:13:53Z</time>
      </trkpt>
      <trkpt lat="48.40901" lon="7.28036">
        <ele>1048.7</ele>
        <time>2021-08-03T12:13:55Z</time>
      </trkpt>
      <trkpt lat="48.409" lon="7.28035">
        <ele>1048.8</ele>
        <time>2021-08-03T12:13:56Z</time>
      </trkpt>
      <trkpt lat="48.409" lon="7.28034">
        <ele>1048.8</ele>
        <time>2021-08-03T12:13:57Z</time>
      </trkpt>
      <trkpt lat="48.40899" lon="7.28033">
        <ele>1048.9</ele>
        <time>2021-08-03T12:13:58Z</time>
      </trkpt>
      <trkpt lat="48.40899" lon="7.28032">
        <ele>1048.9</ele>
        <time>2021-08-03T12:13:59Z</time>
      </trkpt>
      <trkpt lat="48.40898" lon="7.28031">
        <ele>1049</ele>
        <time>2021-08-03T12:14:00Z</time>
      </trkpt>
      <trkpt lat="48.40895" lon="7.28027">
        <ele>1049.2</ele>
        <time>2021-08-03T12:14:02Z</time>
      </trkpt>
      <trkpt lat="48.40895" lon="7.28024">
        <ele>1049.3</ele>
        <time>2021-08-03T12:14:03Z</time>
      </trkpt>
      <trkpt lat="48.40893" lon="7.2802">
        <ele>1049.5</ele>
        <time>2021-08-03T12:14:05Z</time>
      </trkpt>
      <trkpt lat="48.40891" lon="7.28017">
        <ele>1049.7</ele>
        <time>2021-08-03T12:14:06Z</time>
      </trkpt>
      <trkpt lat="48.4089" lon="7.28016">
        <ele>1049.7</ele>
        <time>2021-08-03T12:14:07Z</time>
      </trkpt>
      <trkpt lat="48.40887" lon="7.28013">
        <ele>1049.9</ele>
        <time>2021-08-03T12:14:09Z</time>
      </trkpt>
      <trkpt lat="48.40886" lon="7.2801">
        <ele>1050</ele>
        <time>2021-08-03T12:14:10Z</time>
      </trkpt>
      <trkpt lat="48.40885" lon="7.28006">
        <ele>1050.1</ele>
        <time>2021-08-03T12:14:11Z</time>
      </trkpt>
      <trkpt lat="48.40884" lon="7.28004">
        <ele>1050.2</ele>
        <time>2021-08-03T12:14:12Z</time>
      </trkpt>
      <trkpt lat="48.40883" lon="7.28">
        <ele>1050.3</ele>
        <time>2021-08-03T12:14:13Z</time>
      </trkpt>
      <trkpt lat="48.40883" lon="7.27996">
        <ele>1050.4</ele>
        <time>2021-08-03T12:14:15Z</time>
      </trkpt>
      <trkpt lat="48.40884" lon="7.27992">
        <ele>1050.5</ele>
        <time>2021-08-03T12:14:16Z</time>
      </trkpt>
      <trkpt lat="48.40883" lon="7.27987">
        <ele>1050.5</ele>
        <time>2021-08-03T12:14:18Z</time>
      </trkpt>
      <trkpt lat="48.40883" lon="7.27984">
        <ele>1050.6</ele>
        <time>2021-08-03T12:14:19Z</time>
      </trkpt>
      <trkpt lat="48.40882" lon="7.27979">
        <ele>1050.6</ele>
        <time>2021-08-03T12:14:21Z</time>
      </trkpt>
      <trkpt lat="48.40881" lon="7.27973">
        <ele>1050.7</ele>
        <time>2021-08-03T12:14:22Z</time>
      </trkpt>
      <trkpt lat="48.4088" lon="7.27971">
        <ele>1050.7</ele>
        <time>2021-08-03T12:14:23Z</time>
      </trkpt>
      <trkpt lat="48.40879" lon="7.27965">
        <ele>1050.8</ele>
        <time>2021-08-03T12:14:24Z</time>
      </trkpt>
      <trkpt lat="48.40877" lon="7.27957">
        <ele>1050.9</ele>
        <time>2021-08-03T12:14:26Z</time>
      </trkpt>
      <trkpt lat="48.40876" lon="7.27953">
        <ele>1050.9</ele>
        <time>2021-08-03T12:14:27Z</time>
      </trkpt>
      <trkpt lat="48.40875" lon="7.27949">
        <ele>1050.9</ele>
        <time>2021-08-03T12:14:29Z</time>
      </trkpt>
      <trkpt lat="48.40875" lon="7.27943">
        <ele>1050.9</ele>
        <time>2021-08-03T12:14:30Z</time>
      </trkpt>
      <trkpt lat="48.40874" lon="7.27941">
        <ele>1050.9</ele>
        <time>2021-08-03T12:14:31Z</time>
      </trkpt>
      <trkpt lat="48.40873" lon="7.27936">
        <ele>1050.9</ele>
        <time>2021-08-03T12:14:32Z</time>
      </trkpt>
      <trkpt lat="48.40872" lon="7.27925">
        <ele>1050.9</ele>
        <time>2021-08-03T12:14:34Z</time>
      </trkpt>
      <trkpt lat="48.40871" lon="7.27919">
        <ele>1050.9</ele>
        <time>2021-08-03T12:14:35Z</time>
      </trkpt>
      <trkpt lat="48.4087" lon="7.27913">
        <ele>1050.9</ele>
        <time>2021-08-03T12:14:36Z</time>
      </trkpt>
      <trkpt lat="48.40869" lon="7.27908">
        <ele>1050.9</ele>
        <time>2021-08-03T12:14:37Z</time>
      </trkpt>
      <trkpt lat="48.40868" lon="7.27903">
        <ele>1050.9</ele>
        <time>2021-08-03T12:14:38Z</time>
      </trkpt>
      <trkpt lat="48.40866" lon="7.27898">
        <ele>1050.9</ele>
        <time>2021-08-03T12:14:39Z</time>
      </trkpt>
      <trkpt lat="48.40865" lon="7.27892">
        <ele>1050.8</ele>
        <time>2021-08-03T12:14:40Z</time>
      </trkpt>
      <trkpt lat="48.40864" lon="7.27886">
        <ele>1050.8</ele>
        <time>2021-08-03T12:14:41Z</time>
      </trkpt>
      <trkpt lat="48.40862" lon="7.27881">
        <ele>1050.7</ele>
        <time>2021-08-03T12:14:43Z</time>
      </trkpt>
      <trkpt lat="48.40861" lon="7.27877">
        <ele>1050.7</ele>
        <time>2021-08-03T12:14:44Z</time>
      </trkpt>
      <trkpt lat="48.4086" lon="7.27871">
        <ele>1050.7</ele>
        <time>2021-08-03T12:14:45Z</time>
      </trkpt>
      <trkpt lat="48.40859" lon="7.27863">
        <ele>1050.6</ele>
        <time>2021-08-03T12:14:47Z</time>
      </trkpt>
      <trkpt lat="48.40858" lon="7.27859">
        <ele>1050.6</ele>
        <time>2021-08-03T12:14:48Z</time>
      </trkpt>
      <trkpt lat="48.40857" lon="7.2785">
        <ele>1050.5</ele>
        <time>2021-08-03T12:14:50Z</time>
      </trkpt>
      <trkpt lat="48.40859" lon="7.27843">
        <ele>1050.4</ele>
        <time>2021-08-03T12:14:52Z</time>
      </trkpt>
      <trkpt lat="48.4086" lon="7.27836">
        <ele>1050.4</ele>
        <time>2021-08-03T12:14:53Z</time>
      </trkpt>
      <trkpt lat="48.40861" lon="7.2783">
        <ele>1050.3</ele>
        <time>2021-08-03T12:14:54Z</time>
      </trkpt>
      <trkpt lat="48.40864" lon="7.27818">
        <ele>1050.3</ele>
        <time>2021-08-03T12:14:55Z</time>
      </trkpt>
      <trkpt lat="48.40866" lon="7.27799">
        <ele>1050.2</ele>
        <time>2021-08-03T12:14:57Z</time>
      </trkpt>
      <trkpt lat="48.40866" lon="7.27781">
        <ele>1050.2</ele>
        <time>2021-08-03T12:14:59Z</time>
      </trkpt>
      <trkpt lat="48.40865" lon="7.27766">
        <ele>1050.1</ele>
        <time>2021-08-03T12:15:01Z</time>
      </trkpt>
      <trkpt lat="48.40865" lon="7.27759">
        <ele>1050.1</ele>
        <time>2021-08-03T12:15:02Z</time>
      </trkpt>
      <trkpt lat="48.40864" lon="7.27751">
        <ele>1050.1</ele>
        <time>2021-08-03T12:15:03Z</time>
      </trkpt>
      <trkpt lat="48.40863" lon="7.27739">
        <ele>1050.1</ele>
        <time>2021-08-03T12:15:05Z</time>
      </trkpt>
      <trkpt lat="48.40863" lon="7.27731">
        <ele>1050.1</ele>
        <time>2021-08-03T12:15:06Z</time>
      </trkpt>
      <trkpt lat="48.40862" lon="7.27724">
        <ele>1050.1</ele>
        <time>2021-08-03T12:15:07Z</time>
      </trkpt>
      <trkpt lat="48.40861" lon="7.27717">
        <ele>1050.1</ele>
        <time>2021-08-03T12:15:08Z</time>
      </trkpt>
      <trkpt lat="48.4086" lon="7.27703">
        <ele>1050.1</ele>
        <time>2021-08-03T12:15:10Z</time>
      </trkpt>
      <trkpt lat="48.4086" lon="7.27687">
        <ele>1050.1</ele>
        <time>2021-08-03T12:15:12Z</time>
      </trkpt>
      <trkpt lat="48.40857" lon="7.27673">
        <ele>1050.1</ele>
        <time>2021-08-03T12:15:14Z</time>
      </trkpt>
      <trkpt lat="48.40856" lon="7.27659">
        <ele>1050.1</ele>
        <time>2021-08-03T12:15:16Z</time>
      </trkpt>
      <trkpt lat="48.40855" lon="7.27653">
        <ele>1050.1</ele>
        <time>2021-08-03T12:15:17Z</time>
      </trkpt>
      <trkpt lat="48.40853" lon="7.27644">
        <ele>1050.1</ele>
        <time>2021-08-03T12:15:19Z</time>
      </trkpt>
      <trkpt lat="48.40852" lon="7.27639">
        <ele>1050.1</ele>
        <time>2021-08-03T12:15:20Z</time>
      </trkpt>
      <trkpt lat="48.40851" lon="7.27632">
        <ele>1050.1</ele>
        <time>2021-08-03T12:15:21Z</time>
      </trkpt>
      <trkpt lat="48.4085" lon="7.27627">
        <ele>1050.1</ele>
        <time>2021-08-03T12:15:22Z</time>
      </trkpt>
      <trkpt lat="48.40849" lon="7.27621">
        <ele>1050</ele>
        <time>2021-08-03T12:15:24Z</time>
      </trkpt>
      <trkpt lat="48.40848" lon="7.27615">
        <ele>1050</ele>
        <time>2021-08-03T12:15:25Z</time>
      </trkpt>
      <trkpt lat="48.40847" lon="7.27611">
        <ele>1050</ele>
        <time>2021-08-03T12:15:26Z</time>
      </trkpt>
      <trkpt lat="48.40846" lon="7.27607">
        <ele>1050</ele>
        <time>2021-08-03T12:15:27Z</time>
      </trkpt>
      <trkpt lat="48.40843" lon="7.276">
        <ele>1049.9</ele>
        <time>2021-08-03T12:15:29Z</time>
      </trkpt>
      <trkpt lat="48.40841" lon="7.27594">
        <ele>1049.9</ele>
        <time>2021-08-03T12:15:30Z</time>
      </trkpt>
      <trkpt lat="48.40839" lon="7.27587">
        <ele>1049.9</ele>
        <time>2021-08-03T12:15:31Z</time>
      </trkpt>
      <trkpt lat="48.40838" lon="7.27581">
        <ele>1049.8</ele>
        <time>2021-08-03T12:15:33Z</time>
      </trkpt>
      <trkpt lat="48.40836" lon="7.27576">
        <ele>1049.8</ele>
        <time>2021-08-03T12:15:34Z</time>
      </trkpt>
      <trkpt lat="48.40833" lon="7.27569">
        <ele>1049.7</ele>
        <time>2021-08-03T12:15:35Z</time>
      </trkpt>
      <trkpt lat="48.40831" lon="7.27563">
        <ele>1049.7</ele>
        <time>2021-08-03T12:15:37Z</time>
      </trkpt>
      <trkpt lat="48.40828" lon="7.27557">
        <ele>1049.7</ele>
        <time>2021-08-03T12:15:38Z</time>
      </trkpt>
      <trkpt lat="48.40827" lon="7.27551">
        <ele>1049.7</ele>
        <time>2021-08-03T12:15:39Z</time>
      </trkpt>
      <trkpt lat="48.40823" lon="7.27543">
        <ele>1049.6</ele>
        <time>2021-08-03T12:15:40Z</time>
      </trkpt>
      <trkpt lat="48.4082" lon="7.27535">
        <ele>1049.6</ele>
        <time>2021-08-03T12:15:42Z</time>
      </trkpt>
      <trkpt lat="48.40817" lon="7.27528">
        <ele>1049.6</ele>
        <time>2021-08-03T12:15:43Z</time>
      </trkpt>
      <trkpt lat="48.40816" lon="7.27522">
        <ele>1049.6</ele>
        <time>2021-08-03T12:15:44Z</time>
      </trkpt>
      <trkpt lat="48.40813" lon="7.2751">
        <ele>1049.6</ele>
        <time>2021-08-03T12:15:46Z</time>
      </trkpt>
      <trkpt lat="48.40811" lon="7.27504">
        <ele>1049.6</ele>
        <time>2021-08-03T12:15:47Z</time>
      </trkpt>
      <trkpt lat="48.4081" lon="7.27499">
        <ele>1049.7</ele>
        <time>2021-08-03T12:15:48Z</time>
      </trkpt>
      <trkpt lat="48.40809" lon="7.27493">
        <ele>1049.7</ele>
        <time>2021-08-03T12:15:49Z</time>
      </trkpt>
      <trkpt lat="48.40806" lon="7.27488">
        <ele>1049.8</ele>
        <time>2021-08-03T12:15:51Z</time>
      </trkpt>
      <trkpt lat="48.40804" lon="7.27485">
        <ele>1049.8</ele>
        <time>2021-08-03T12:15:52Z</time>
      </trkpt>
      <trkpt lat="48.40804" lon="7.27479">
        <ele>1049.9</ele>
        <time>2021-08-03T12:15:53Z</time>
      </trkpt>
      <trkpt lat="48.40803" lon="7.27472">
        <ele>1050</ele>
        <time>2021-08-03T12:15:55Z</time>
      </trkpt>
      <trkpt lat="48.40803" lon="7.27469">
        <ele>1050</ele>
        <time>2021-08-03T12:15:56Z</time>
      </trkpt>
      <trkpt lat="48.40804" lon="7.27462">
        <ele>1050.1</ele>
        <time>2021-08-03T12:15:58Z</time>
      </trkpt>
      <trkpt lat="48.40804" lon="7.27458">
        <ele>1050.2</ele>
        <time>2021-08-03T12:15:59Z</time>
      </trkpt>
      <trkpt lat="48.40804" lon="7.27451">
        <ele>1050.3</ele>
        <time>2021-08-03T12:16:01Z</time>
      </trkpt>
      <trkpt lat="48.40804" lon="7.27444">
        <ele>1050.3</ele>
        <time>2021-08-03T12:16:03Z</time>
      </trkpt>
      <trkpt lat="48.40802" lon="7.27439">
        <ele>1050.4</ele>
        <time>2021-08-03T12:16:04Z</time>
      </trkpt>
      <trkpt lat="48.408" lon="7.27434">
        <ele>1050.5</ele>
        <time>2021-08-03T12:16:06Z</time>
      </trkpt>
      <trkpt lat="48.40798" lon="7.2743">
        <ele>1050.6</ele>
        <time>2021-08-03T12:16:07Z</time>
      </trkpt>
      <trkpt lat="48.40797" lon="7.27428">
        <ele>1050.6</ele>
        <time>2021-08-03T12:16:08Z</time>
      </trkpt>
      <trkpt lat="48.40797" lon="7.27427">
        <ele>1050.6</ele>
        <time>2021-08-03T12:16:09Z</time>
      </trkpt>
      <trkpt lat="48.40799" lon="7.27425">
        <ele>1050.6</ele>
        <time>2021-08-03T12:16:11Z</time>
      </trkpt>
      <trkpt lat="48.408" lon="7.27422">
        <ele>1050.7</ele>
        <time>2021-08-03T12:16:13Z</time>
      </trkpt>
      <trkpt lat="48.40799" lon="7.27414">
        <ele>1050.8</ele>
        <time>2021-08-03T12:16:15Z</time>
      </trkpt>
      <trkpt lat="48.40798" lon="7.27406">
        <ele>1050.9</ele>
        <time>2021-08-03T12:16:16Z</time>
      </trkpt>
      <trkpt lat="48.40798" lon="7.274">
        <ele>1051</ele>
        <time>2021-08-03T12:16:17Z</time>
      </trkpt>
      <trkpt lat="48.40797" lon="7.27392">
        <ele>1051.2</ele>
        <time>2021-08-03T12:16:18Z</time>
      </trkpt>
      <trkpt lat="48.40797" lon="7.27383">
        <ele>1051.4</ele>
        <time>2021-08-03T12:16:20Z</time>
      </trkpt>
      <trkpt lat="48.40797" lon="7.27378">
        <ele>1051.5</ele>
        <time>2021-08-03T12:16:21Z</time>
      </trkpt>
      <trkpt lat="48.40797" lon="7.27373">
        <ele>1051.6</ele>
        <time>2021-08-03T12:16:22Z</time>
      </trkpt>
      <trkpt lat="48.40797" lon="7.27371">
        <ele>1051.6</ele>
        <time>2021-08-03T12:16:23Z</time>
      </trkpt>
      <trkpt lat="48.40797" lon="7.27365">
        <ele>1051.7</ele>
        <time>2021-08-03T12:16:25Z</time>
      </trkpt>
      <trkpt lat="48.40797" lon="7.27362">
        <ele>1051.8</ele>
        <time>2021-08-03T12:16:26Z</time>
      </trkpt>
      <trkpt lat="48.40797" lon="7.27357">
        <ele>1051.8</ele>
        <time>2021-08-03T12:16:28Z</time>
      </trkpt>
      <trkpt lat="48.408" lon="7.27355">
        <ele>1051.8</ele>
        <time>2021-08-03T12:16:29Z</time>
      </trkpt>
      <trkpt lat="48.40801" lon="7.27355">
        <ele>1051.8</ele>
        <time>2021-08-03T12:16:30Z</time>
      </trkpt>
      <trkpt lat="48.40802" lon="7.27351">
        <ele>1051.9</ele>
        <time>2021-08-03T12:16:32Z</time>
      </trkpt>
      <trkpt lat="48.40803" lon="7.27348">
        <ele>1051.9</ele>
        <time>2021-08-03T12:16:33Z</time>
      </trkpt>
      <trkpt lat="48.40804" lon="7.27346">
        <ele>1051.9</ele>
        <time>2021-08-03T12:16:34Z</time>
      </trkpt>
      <trkpt lat="48.40804" lon="7.27339">
        <ele>1051.9</ele>
        <time>2021-08-03T12:16:36Z</time>
      </trkpt>
      <trkpt lat="48.40801" lon="7.2733">
        <ele>1052</ele>
        <time>2021-08-03T12:16:37Z</time>
      </trkpt>
      <trkpt lat="48.40799" lon="7.27323">
        <ele>1052.1</ele>
        <time>2021-08-03T12:16:39Z</time>
      </trkpt>
      <trkpt lat="48.40798" lon="7.27317">
        <ele>1052.1</ele>
        <time>2021-08-03T12:16:40Z</time>
      </trkpt>
      <trkpt lat="48.40796" lon="7.27312">
        <ele>1052.2</ele>
        <time>2021-08-03T12:16:41Z</time>
      </trkpt>
      <trkpt lat="48.40794" lon="7.27306">
        <ele>1052.2</ele>
        <time>2021-08-03T12:16:42Z</time>
      </trkpt>
      <trkpt lat="48.40791" lon="7.27297">
        <ele>1052.3</ele>
        <time>2021-08-03T12:16:44Z</time>
      </trkpt>
      <trkpt lat="48.40789" lon="7.27292">
        <ele>1052.3</ele>
        <time>2021-08-03T12:16:45Z</time>
      </trkpt>
      <trkpt lat="48.40786" lon="7.27287">
        <ele>1052.3</ele>
        <time>2021-08-03T12:16:46Z</time>
      </trkpt>
      <trkpt lat="48.40784" lon="7.27282">
        <ele>1052.4</ele>
        <time>2021-08-03T12:16:47Z</time>
      </trkpt>
      <trkpt lat="48.40782" lon="7.27276">
        <ele>1052.5</ele>
        <time>2021-08-03T12:16:48Z</time>
      </trkpt>
      <trkpt lat="48.4078" lon="7.27271">
        <ele>1052.6</ele>
        <time>2021-08-03T12:16:49Z</time>
      </trkpt>
      <trkpt lat="48.40779" lon="7.27267">
        <ele>1052.6</ele>
        <time>2021-08-03T12:16:50Z</time>
      </trkpt>
      <trkpt lat="48.40776" lon="7.2726">
        <ele>1052.8</ele>
        <time>2021-08-03T12:16:52Z</time>
      </trkpt>
      <trkpt lat="48.40775" lon="7.27255">
        <ele>1052.9</ele>
        <time>2021-08-03T12:16:53Z</time>
      </trkpt>
      <trkpt lat="48.40773" lon="7.27251">
        <ele>1052.9</ele>
        <time>2021-08-03T12:16:54Z</time>
      </trkpt>
      <trkpt lat="48.40771" lon="7.27246">
        <ele>1053</ele>
        <time>2021-08-03T12:16:55Z</time>
      </trkpt>
      <trkpt lat="48.4077" lon="7.27243">
        <ele>1053.1</ele>
        <time>2021-08-03T12:16:56Z</time>
      </trkpt>
      <trkpt lat="48.40768" lon="7.27239">
        <ele>1053.2</ele>
        <time>2021-08-03T12:16:57Z</time>
      </trkpt>
      <trkpt lat="48.40767" lon="7.27235">
        <ele>1053.3</ele>
        <time>2021-08-03T12:16:58Z</time>
      </trkpt>
      <trkpt lat="48.40765" lon="7.27232">
        <ele>1053.4</ele>
        <time>2021-08-03T12:16:59Z</time>
      </trkpt>
      <trkpt lat="48.40763" lon="7.27227">
        <ele>1053.5</ele>
        <time>2021-08-03T12:17:00Z</time>
      </trkpt>
      <trkpt lat="48.40763" lon="7.27225">
        <ele>1053.5</ele>
        <time>2021-08-03T12:17:01Z</time>
      </trkpt>
      <trkpt lat="48.40761" lon="7.27221">
        <ele>1053.6</ele>
        <time>2021-08-03T12:17:02Z</time>
      </trkpt>
      <trkpt lat="48.40759" lon="7.27217">
        <ele>1053.8</ele>
        <time>2021-08-03T12:17:04Z</time>
      </trkpt>
      <trkpt lat="48.40758" lon="7.27215">
        <ele>1053.8</ele>
        <time>2021-08-03T12:17:05Z</time>
      </trkpt>
      <trkpt lat="48.40756" lon="7.27211">
        <ele>1053.9</ele>
        <time>2021-08-03T12:17:06Z</time>
      </trkpt>
      <trkpt lat="48.40753" lon="7.27205">
        <ele>1054.1</ele>
        <time>2021-08-03T12:17:08Z</time>
      </trkpt>
      <trkpt lat="48.40751" lon="7.27201">
        <ele>1054.3</ele>
        <time>2021-08-03T12:17:10Z</time>
      </trkpt>
      <trkpt lat="48.4075" lon="7.27196">
        <ele>1054.4</ele>
        <time>2021-08-03T12:17:11Z</time>
      </trkpt>
      <trkpt lat="48.40749" lon="7.27195">
        <ele>1054.5</ele>
        <time>2021-08-03T12:17:12Z</time>
      </trkpt>
      <trkpt lat="48.40748" lon="7.27191">
        <ele>1054.6</ele>
        <time>2021-08-03T12:17:13Z</time>
      </trkpt>
      <trkpt lat="48.40747" lon="7.27189">
        <ele>1054.7</ele>
        <time>2021-08-03T12:17:14Z</time>
      </trkpt>
      <trkpt lat="48.40744" lon="7.27183">
        <ele>1054.9</ele>
        <time>2021-08-03T12:17:16Z</time>
      </trkpt>
      <trkpt lat="48.40743" lon="7.27181">
        <ele>1055</ele>
        <time>2021-08-03T12:17:17Z</time>
      </trkpt>
      <trkpt lat="48.40742" lon="7.27179">
        <ele>1055</ele>
        <time>2021-08-03T12:17:18Z</time>
      </trkpt>
      <trkpt lat="48.40739" lon="7.27175">
        <ele>1055.2</ele>
        <time>2021-08-03T12:17:20Z</time>
      </trkpt>
      <trkpt lat="48.40737" lon="7.2717">
        <ele>1055.4</ele>
        <time>2021-08-03T12:17:21Z</time>
      </trkpt>
      <trkpt lat="48.40736" lon="7.27168">
        <ele>1055.5</ele>
        <time>2021-08-03T12:17:22Z</time>
      </trkpt>
      <trkpt lat="48.40734" lon="7.27163">
        <ele>1055.7</ele>
        <time>2021-08-03T12:17:24Z</time>
      </trkpt>
      <trkpt lat="48.40733" lon="7.27161">
        <ele>1055.8</ele>
        <time>2021-08-03T12:17:25Z</time>
      </trkpt>
      <trkpt lat="48.40731" lon="7.27157">
        <ele>1056</ele>
        <time>2021-08-03T12:17:27Z</time>
      </trkpt>
      <trkpt lat="48.40729" lon="7.27153">
        <ele>1056.2</ele>
        <time>2021-08-03T12:17:28Z</time>
      </trkpt>
      <trkpt lat="48.40728" lon="7.27152">
        <ele>1056.2</ele>
        <time>2021-08-03T12:17:29Z</time>
      </trkpt>
      <trkpt lat="48.40726" lon="7.27148">
        <ele>1056.5</ele>
        <time>2021-08-03T12:17:30Z</time>
      </trkpt>
      <trkpt lat="48.40724" lon="7.27146">
        <ele>1056.6</ele>
        <time>2021-08-03T12:17:35Z</time>
      </trkpt>
      <trkpt lat="48.40723" lon="7.27144">
        <ele>1056.7</ele>
        <time>2021-08-03T12:17:36Z</time>
      </trkpt>
      <trkpt lat="48.40721" lon="7.27142">
        <ele>1056.9</ele>
        <time>2021-08-03T12:17:37Z</time>
      </trkpt>
      <trkpt lat="48.40719" lon="7.27138">
        <ele>1057.1</ele>
        <time>2021-08-03T12:17:39Z</time>
      </trkpt>
      <trkpt lat="48.40718" lon="7.27136">
        <ele>1057.2</ele>
        <time>2021-08-03T12:17:40Z</time>
      </trkpt>
      <trkpt lat="48.40715" lon="7.27133">
        <ele>1057.4</ele>
        <time>2021-08-03T12:17:42Z</time>
      </trkpt>
      <trkpt lat="48.40714" lon="7.27132">
        <ele>1057.5</ele>
        <time>2021-08-03T12:17:43Z</time>
      </trkpt>
      <trkpt lat="48.40714" lon="7.2713">
        <ele>1057.5</ele>
        <time>2021-08-03T12:17:44Z</time>
      </trkpt>
      <trkpt lat="48.40711" lon="7.27127">
        <ele>1057.7</ele>
        <time>2021-08-03T12:17:46Z</time>
      </trkpt>
      <trkpt lat="48.40708" lon="7.27124">
        <ele>1058</ele>
        <time>2021-08-03T12:17:48Z</time>
      </trkpt>
      <trkpt lat="48.40704" lon="7.27121">
        <ele>1058.2</ele>
        <time>2021-08-03T12:17:50Z</time>
      </trkpt>
      <trkpt lat="48.40701" lon="7.27118">
        <ele>1058.4</ele>
        <time>2021-08-03T12:17:51Z</time>
      </trkpt>
      <trkpt lat="48.407" lon="7.27117">
        <ele>1058.5</ele>
        <time>2021-08-03T12:17:52Z</time>
      </trkpt>
      <trkpt lat="48.40696" lon="7.27114">
        <ele>1058.8</ele>
        <time>2021-08-03T12:17:54Z</time>
      </trkpt>
      <trkpt lat="48.40693" lon="7.27111">
        <ele>1059.1</ele>
        <time>2021-08-03T12:17:55Z</time>
      </trkpt>
      <trkpt lat="48.40692" lon="7.2711">
        <ele>1059.2</ele>
        <time>2021-08-03T12:17:56Z</time>
      </trkpt>
      <trkpt lat="48.40689" lon="7.27108">
        <ele>1059.3</ele>
        <time>2021-08-03T12:17:57Z</time>
      </trkpt>
      <trkpt lat="48.40685" lon="7.27106">
        <ele>1059.7</ele>
        <time>2021-08-03T12:17:59Z</time>
      </trkpt>
      <trkpt lat="48.40682" lon="7.27104">
        <ele>1059.9</ele>
        <time>2021-08-03T12:18:00Z</time>
      </trkpt>
      <trkpt lat="48.40681" lon="7.27103">
        <ele>1059.9</ele>
        <time>2021-08-03T12:18:01Z</time>
      </trkpt>
      <trkpt lat="48.40681" lon="7.27101">
        <ele>1060</ele>
        <time>2021-08-03T12:18:02Z</time>
      </trkpt>
      <trkpt lat="48.40679" lon="7.27099">
        <ele>1060.2</ele>
        <time>2021-08-03T12:18:03Z</time>
      </trkpt>
      <trkpt lat="48.40678" lon="7.27097">
        <ele>1060.3</ele>
        <time>2021-08-03T12:18:04Z</time>
      </trkpt>
      <trkpt lat="48.40676" lon="7.27095">
        <ele>1060.5</ele>
        <time>2021-08-03T12:18:06Z</time>
      </trkpt>
      <trkpt lat="48.40673" lon="7.27092">
        <ele>1060.7</ele>
        <time>2021-08-03T12:18:08Z</time>
      </trkpt>
      <trkpt lat="48.4067" lon="7.2709">
        <ele>1060.9</ele>
        <time>2021-08-03T12:18:10Z</time>
      </trkpt>
      <trkpt lat="48.40668" lon="7.27086">
        <ele>1061.1</ele>
        <time>2021-08-03T12:18:12Z</time>
      </trkpt>
      <trkpt lat="48.40666" lon="7.27083">
        <ele>1061.3</ele>
        <time>2021-08-03T12:18:14Z</time>
      </trkpt>
      <trkpt lat="48.40662" lon="7.2708">
        <ele>1061.6</ele>
        <time>2021-08-03T12:18:16Z</time>
      </trkpt>
      <trkpt lat="48.4066" lon="7.27077">
        <ele>1061.8</ele>
        <time>2021-08-03T12:18:18Z</time>
      </trkpt>
      <trkpt lat="48.40657" lon="7.27075">
        <ele>1062</ele>
        <time>2021-08-03T12:18:20Z</time>
      </trkpt>
      <trkpt lat="48.40655" lon="7.27074">
        <ele>1062.1</ele>
        <time>2021-08-03T12:18:21Z</time>
      </trkpt>
      <trkpt lat="48.40654" lon="7.27073">
        <ele>1062.2</ele>
        <time>2021-08-03T12:18:22Z</time>
      </trkpt>
      <trkpt lat="48.4065" lon="7.27072">
        <ele>1062.4</ele>
        <time>2021-08-03T12:18:23Z</time>
      </trkpt>
      <trkpt lat="48.40649" lon="7.27072">
        <ele>1062.5</ele>
        <time>2021-08-03T12:18:24Z</time>
      </trkpt>
      <trkpt lat="48.40646" lon="7.2707">
        <ele>1062.8</ele>
        <time>2021-08-03T12:18:26Z</time>
      </trkpt>
      <trkpt lat="48.40644" lon="7.27068">
        <ele>1062.9</ele>
        <time>2021-08-03T12:18:27Z</time>
      </trkpt>
      <trkpt lat="48.4064" lon="7.27066">
        <ele>1063.2</ele>
        <time>2021-08-03T12:18:29Z</time>
      </trkpt>
      <trkpt lat="48.40637" lon="7.27063">
        <ele>1063.4</ele>
        <time>2021-08-03T12:18:30Z</time>
      </trkpt>
      <trkpt lat="48.40636" lon="7.27062">
        <ele>1063.5</ele>
        <time>2021-08-03T12:18:31Z</time>
      </trkpt>
      <trkpt lat="48.40633" lon="7.2706">
        <ele>1063.7</ele>
        <time>2021-08-03T12:18:32Z</time>
      </trkpt>
      <trkpt lat="48.40632" lon="7.27059">
        <ele>1063.8</ele>
        <time>2021-08-03T12:18:33Z</time>
      </trkpt>
      <trkpt lat="48.40629" lon="7.27057">
        <ele>1064</ele>
        <time>2021-08-03T12:18:34Z</time>
      </trkpt>
      <trkpt lat="48.40628" lon="7.27056">
        <ele>1064.1</ele>
        <time>2021-08-03T12:18:35Z</time>
      </trkpt>
      <trkpt lat="48.40626" lon="7.27056">
        <ele>1064.2</ele>
        <time>2021-08-03T12:18:36Z</time>
      </trkpt>
      <trkpt lat="48.40623" lon="7.27055">
        <ele>1064.5</ele>
        <time>2021-08-03T12:18:38Z</time>
      </trkpt>
      <trkpt lat="48.4062" lon="7.27054">
        <ele>1064.7</ele>
        <time>2021-08-03T12:18:39Z</time>
      </trkpt>
      <trkpt lat="48.40617" lon="7.27052">
        <ele>1064.9</ele>
        <time>2021-08-03T12:18:40Z</time>
      </trkpt>
      <trkpt lat="48.40616" lon="7.27052">
        <ele>1064.9</ele>
        <time>2021-08-03T12:18:41Z</time>
      </trkpt>
      <trkpt lat="48.40611" lon="7.27048">
        <ele>1065.3</ele>
        <time>2021-08-03T12:18:43Z</time>
      </trkpt>
      <trkpt lat="48.4061" lon="7.27046">
        <ele>1065.4</ele>
        <time>2021-08-03T12:18:44Z</time>
      </trkpt>
      <trkpt lat="48.40608" lon="7.27045">
        <ele>1065.5</ele>
        <time>2021-08-03T12:18:45Z</time>
      </trkpt>
      <trkpt lat="48.40604" lon="7.27041">
        <ele>1065.8</ele>
        <time>2021-08-03T12:18:47Z</time>
      </trkpt>
      <trkpt lat="48.40602" lon="7.2704">
        <ele>1065.9</ele>
        <time>2021-08-03T12:18:48Z</time>
      </trkpt>
      <trkpt lat="48.40601" lon="7.2704">
        <ele>1066</ele>
        <time>2021-08-03T12:18:49Z</time>
      </trkpt>
      <trkpt lat="48.40598" lon="7.27038">
        <ele>1066.3</ele>
        <time>2021-08-03T12:18:50Z</time>
      </trkpt>
      <trkpt lat="48.40597" lon="7.27038">
        <ele>1066.3</ele>
        <time>2021-08-03T12:18:51Z</time>
      </trkpt>
      <trkpt lat="48.40593" lon="7.27036">
        <ele>1066.6</ele>
        <time>2021-08-03T12:18:53Z</time>
      </trkpt>
      <trkpt lat="48.40592" lon="7.27036">
        <ele>1066.7</ele>
        <time>2021-08-03T12:18:54Z</time>
      </trkpt>
      <trkpt lat="48.4059" lon="7.27035">
        <ele>1066.8</ele>
        <time>2021-08-03T12:18:55Z</time>
      </trkpt>
      <trkpt lat="48.40588" lon="7.27034">
        <ele>1067</ele>
        <time>2021-08-03T12:18:56Z</time>
      </trkpt>
      <trkpt lat="48.40586" lon="7.27033">
        <ele>1067.1</ele>
        <time>2021-08-03T12:18:57Z</time>
      </trkpt>
      <trkpt lat="48.40583" lon="7.2703">
        <ele>1067.3</ele>
        <time>2021-08-03T12:18:59Z</time>
      </trkpt>
      <trkpt lat="48.40581" lon="7.27029">
        <ele>1067.5</ele>
        <time>2021-08-03T12:19:00Z</time>
      </trkpt>
      <trkpt lat="48.4058" lon="7.27029">
        <ele>1067.5</ele>
        <time>2021-08-03T12:19:01Z</time>
      </trkpt>
      <trkpt lat="48.40577" lon="7.27027">
        <ele>1067.7</ele>
        <time>2021-08-03T12:19:02Z</time>
      </trkpt>
      <trkpt lat="48.40573" lon="7.27026">
        <ele>1068</ele>
        <time>2021-08-03T12:19:04Z</time>
      </trkpt>
      <trkpt lat="48.40572" lon="7.27025">
        <ele>1068.1</ele>
        <time>2021-08-03T12:19:05Z</time>
      </trkpt>
      <trkpt lat="48.40571" lon="7.27025">
        <ele>1068.1</ele>
        <time>2021-08-03T12:19:06Z</time>
      </trkpt>
      <trkpt lat="48.40568" lon="7.27022">
        <ele>1068.3</ele>
        <time>2021-08-03T12:19:08Z</time>
      </trkpt>
      <trkpt lat="48.40567" lon="7.27022">
        <ele>1068.4</ele>
        <time>2021-08-03T12:19:09Z</time>
      </trkpt>
      <trkpt lat="48.40564" lon="7.27021">
        <ele>1068.6</ele>
        <time>2021-08-03T12:19:10Z</time>
      </trkpt>
      <trkpt lat="48.40563" lon="7.2702">
        <ele>1068.6</ele>
        <time>2021-08-03T12:19:11Z</time>
      </trkpt>
      <trkpt lat="48.4056" lon="7.27018">
        <ele>1068.8</ele>
        <time>2021-08-03T12:19:12Z</time>
      </trkpt>
      <trkpt lat="48.4056" lon="7.27018">
        <ele>1068.9</ele>
        <time>2021-08-03T12:19:13Z</time>
      </trkpt>
      <trkpt lat="48.40558" lon="7.27016">
        <ele>1069</ele>
        <time>2021-08-03T12:19:14Z</time>
      </trkpt>
      <trkpt lat="48.40557" lon="7.27015">
        <ele>1069.1</ele>
        <time>2021-08-03T12:19:15Z</time>
      </trkpt>
      <trkpt lat="48.40554" lon="7.27013">
        <ele>1069.3</ele>
        <time>2021-08-03T12:19:16Z</time>
      </trkpt>
      <trkpt lat="48.40554" lon="7.27012">
        <ele>1069.3</ele>
        <time>2021-08-03T12:19:18Z</time>
      </trkpt>
      <trkpt lat="48.40553" lon="7.27011">
        <ele>1069.4</ele>
        <time>2021-08-03T12:19:19Z</time>
      </trkpt>
      <trkpt lat="48.40552" lon="7.2701">
        <ele>1069.5</ele>
        <time>2021-08-03T12:19:20Z</time>
      </trkpt>
      <trkpt lat="48.40551" lon="7.27009">
        <ele>1069.5</ele>
        <time>2021-08-03T12:19:21Z</time>
      </trkpt>
      <trkpt lat="48.4055" lon="7.27008">
        <ele>1069.6</ele>
        <time>2021-08-03T12:19:22Z</time>
      </trkpt>
      <trkpt lat="48.40548" lon="7.27007">
        <ele>1069.7</ele>
        <time>2021-08-03T12:19:23Z</time>
      </trkpt>
      <trkpt lat="48.40543" lon="7.27006">
        <ele>1070</ele>
        <time>2021-08-03T12:19:25Z</time>
      </trkpt>
      <trkpt lat="48.40541" lon="7.27005">
        <ele>1070.1</ele>
        <time>2021-08-03T12:19:26Z</time>
      </trkpt>
      <trkpt lat="48.4054" lon="7.27005">
        <ele>1070.2</ele>
        <time>2021-08-03T12:19:27Z</time>
      </trkpt>
      <trkpt lat="48.40536" lon="7.27004">
        <ele>1070.4</ele>
        <time>2021-08-03T12:19:28Z</time>
      </trkpt>
      <trkpt lat="48.40535" lon="7.27003">
        <ele>1070.5</ele>
        <time>2021-08-03T12:19:29Z</time>
      </trkpt>
      <trkpt lat="48.40531" lon="7.27002">
        <ele>1070.6</ele>
        <time>2021-08-03T12:19:30Z</time>
      </trkpt>
      <trkpt lat="48.4053" lon="7.27002">
        <ele>1070.7</ele>
        <time>2021-08-03T12:19:31Z</time>
      </trkpt>
      <trkpt lat="48.40527" lon="7.27">
        <ele>1070.9</ele>
        <time>2021-08-03T12:19:32Z</time>
      </trkpt>
      <trkpt lat="48.40526" lon="7.27">
        <ele>1070.9</ele>
        <time>2021-08-03T12:19:33Z</time>
      </trkpt>
      <trkpt lat="48.40522" lon="7.26998">
        <ele>1071.1</ele>
        <time>2021-08-03T12:19:35Z</time>
      </trkpt>
      <trkpt lat="48.4052" lon="7.26997">
        <ele>1071.2</ele>
        <time>2021-08-03T12:19:36Z</time>
      </trkpt>
      <trkpt lat="48.40519" lon="7.26997">
        <ele>1071.3</ele>
        <time>2021-08-03T12:19:37Z</time>
      </trkpt>
      <trkpt lat="48.40517" lon="7.26996">
        <ele>1071.3</ele>
        <time>2021-08-03T12:19:38Z</time>
      </trkpt>
      <trkpt lat="48.40514" lon="7.26995">
        <ele>1071.5</ele>
        <time>2021-08-03T12:19:40Z</time>
      </trkpt>
      <trkpt lat="48.40512" lon="7.26995">
        <ele>1071.5</ele>
        <time>2021-08-03T12:19:41Z</time>
      </trkpt>
      <trkpt lat="48.40511" lon="7.26994">
        <ele>1071.6</ele>
        <time>2021-08-03T12:19:42Z</time>
      </trkpt>
      <trkpt lat="48.40508" lon="7.26993">
        <ele>1071.7</ele>
        <time>2021-08-03T12:19:43Z</time>
      </trkpt>
      <trkpt lat="48.40505" lon="7.26992">
        <ele>1071.8</ele>
        <time>2021-08-03T12:19:44Z</time>
      </trkpt>
      <trkpt lat="48.40504" lon="7.26992">
        <ele>1071.9</ele>
        <time>2021-08-03T12:19:45Z</time>
      </trkpt>
      <trkpt lat="48.40501" lon="7.26992">
        <ele>1071.9</ele>
        <time>2021-08-03T12:19:46Z</time>
      </trkpt>
      <trkpt lat="48.405" lon="7.26992">
        <ele>1072</ele>
        <time>2021-08-03T12:19:47Z</time>
      </trkpt>
      <trkpt lat="48.40496" lon="7.26992">
        <ele>1072.1</ele>
        <time>2021-08-03T12:19:49Z</time>
      </trkpt>
      <trkpt lat="48.40494" lon="7.2699">
        <ele>1072.2</ele>
        <time>2021-08-03T12:19:50Z</time>
      </trkpt>
      <trkpt lat="48.40492" lon="7.26989">
        <ele>1072.3</ele>
        <time>2021-08-03T12:19:52Z</time>
      </trkpt>
      <trkpt lat="48.40489" lon="7.26988">
        <ele>1072.3</ele>
        <time>2021-08-03T12:19:53Z</time>
      </trkpt>
      <trkpt lat="48.40487" lon="7.26987">
        <ele>1072.4</ele>
        <time>2021-08-03T12:19:55Z</time>
      </trkpt>
      <trkpt lat="48.40485" lon="7.26986">
        <ele>1072.4</ele>
        <time>2021-08-03T12:19:56Z</time>
      </trkpt>
      <trkpt lat="48.40482" lon="7.26986">
        <ele>1072.5</ele>
        <time>2021-08-03T12:19:58Z</time>
      </trkpt>
      <trkpt lat="48.4048" lon="7.26985">
        <ele>1072.6</ele>
        <time>2021-08-03T12:19:59Z</time>
      </trkpt>
      <trkpt lat="48.40478" lon="7.26985">
        <ele>1072.6</ele>
        <time>2021-08-03T12:20:00Z</time>
      </trkpt>
      <trkpt lat="48.40477" lon="7.26984">
        <ele>1072.6</ele>
        <time>2021-08-03T12:20:01Z</time>
      </trkpt>
      <trkpt lat="48.40473" lon="7.26983">
        <ele>1072.7</ele>
        <time>2021-08-03T12:20:03Z</time>
      </trkpt>
      <trkpt lat="48.4047" lon="7.26983">
        <ele>1072.7</ele>
        <time>2021-08-03T12:20:04Z</time>
      </trkpt>
      <trkpt lat="48.40469" lon="7.26982">
        <ele>1072.8</ele>
        <time>2021-08-03T12:20:05Z</time>
      </trkpt>
      <trkpt lat="48.40466" lon="7.26981">
        <ele>1072.8</ele>
        <time>2021-08-03T12:20:06Z</time>
      </trkpt>
      <trkpt lat="48.40461" lon="7.26979">
        <ele>1072.9</ele>
        <time>2021-08-03T12:20:08Z</time>
      </trkpt>
      <trkpt lat="48.4046" lon="7.26979">
        <ele>1072.9</ele>
        <time>2021-08-03T12:20:09Z</time>
      </trkpt>
      <trkpt lat="48.40459" lon="7.26979">
        <ele>1072.9</ele>
        <time>2021-08-03T12:20:10Z</time>
      </trkpt>
      <trkpt lat="48.40456" lon="7.2698">
        <ele>1073</ele>
        <time>2021-08-03T12:20:11Z</time>
      </trkpt>
      <trkpt lat="48.40454" lon="7.26979">
        <ele>1073</ele>
        <time>2021-08-03T12:20:12Z</time>
      </trkpt>
      <trkpt lat="48.40452" lon="7.26979">
        <ele>1073</ele>
        <time>2021-08-03T12:20:14Z</time>
      </trkpt>
      <trkpt lat="48.4045" lon="7.26983">
        <ele>1073.1</ele>
        <time>2021-08-03T12:20:15Z</time>
      </trkpt>
      <trkpt lat="48.40448" lon="7.26984">
        <ele>1073.1</ele>
        <time>2021-08-03T12:20:16Z</time>
      </trkpt>
      <trkpt lat="48.40447" lon="7.26985">
        <ele>1073.1</ele>
        <time>2021-08-03T12:20:17Z</time>
      </trkpt>
      <trkpt lat="48.40444" lon="7.26983">
        <ele>1073.2</ele>
        <time>2021-08-03T12:20:19Z</time>
      </trkpt>
      <trkpt lat="48.40443" lon="7.26983">
        <ele>1073.2</ele>
        <time>2021-08-03T12:20:20Z</time>
      </trkpt>
      <trkpt lat="48.4044" lon="7.26982">
        <ele>1073.2</ele>
        <time>2021-08-03T12:20:21Z</time>
      </trkpt>
      <trkpt lat="48.40436" lon="7.2698">
        <ele>1073.3</ele>
        <time>2021-08-03T12:20:23Z</time>
      </trkpt>
      <trkpt lat="48.40432" lon="7.26979">
        <ele>1073.3</ele>
        <time>2021-08-03T12:20:24Z</time>
      </trkpt>
      <trkpt lat="48.40431" lon="7.26978">
        <ele>1073.3</ele>
        <time>2021-08-03T12:20:25Z</time>
      </trkpt>
      <trkpt lat="48.40428" lon="7.26977">
        <ele>1073.3</ele>
        <time>2021-08-03T12:20:27Z</time>
      </trkpt>
      <trkpt lat="48.40423" lon="7.26976">
        <ele>1073.3</ele>
        <time>2021-08-03T12:20:29Z</time>
      </trkpt>
      <trkpt lat="48.40419" lon="7.26976">
        <ele>1073.3</ele>
        <time>2021-08-03T12:20:30Z</time>
      </trkpt>
      <trkpt lat="48.40417" lon="7.26976">
        <ele>1073.3</ele>
        <time>2021-08-03T12:20:31Z</time>
      </trkpt>
      <trkpt lat="48.40413" lon="7.26976">
        <ele>1073.3</ele>
        <time>2021-08-03T12:20:33Z</time>
      </trkpt>
      <trkpt lat="48.40408" lon="7.26977">
        <ele>1073.2</ele>
        <time>2021-08-03T12:20:35Z</time>
      </trkpt>
      <trkpt lat="48.40405" lon="7.26978">
        <ele>1073.2</ele>
        <time>2021-08-03T12:20:36Z</time>
      </trkpt>
      <trkpt lat="48.40399" lon="7.26978">
        <ele>1073.1</ele>
        <time>2021-08-03T12:20:38Z</time>
      </trkpt>
      <trkpt lat="48.40396" lon="7.26978">
        <ele>1073</ele>
        <time>2021-08-03T12:20:39Z</time>
      </trkpt>
      <trkpt lat="48.40389" lon="7.26979">
        <ele>1072.9</ele>
        <time>2021-08-03T12:20:41Z</time>
      </trkpt>
      <trkpt lat="48.40382" lon="7.26978">
        <ele>1072.7</ele>
        <time>2021-08-03T12:20:43Z</time>
      </trkpt>
      <trkpt lat="48.40374" lon="7.26976">
        <ele>1072.4</ele>
        <time>2021-08-03T12:20:45Z</time>
      </trkpt>
      <trkpt lat="48.4036" lon="7.26976">
        <ele>1072</ele>
        <time>2021-08-03T12:20:48Z</time>
      </trkpt>
      <trkpt lat="48.40354" lon="7.26976">
        <ele>1071.8</ele>
        <time>2021-08-03T12:20:49Z</time>
      </trkpt>
      <trkpt lat="48.40349" lon="7.26977">
        <ele>1071.6</ele>
        <time>2021-08-03T12:20:50Z</time>
      </trkpt>
      <trkpt lat="48.40343" lon="7.26977">
        <ele>1071.4</ele>
        <time>2021-08-03T12:20:51Z</time>
      </trkpt>
      <trkpt lat="48.40332" lon="7.26977">
        <ele>1071.1</ele>
        <time>2021-08-03T12:20:53Z</time>
      </trkpt>
      <trkpt lat="48.40326" lon="7.26978">
        <ele>1070.9</ele>
        <time>2021-08-03T12:20:54Z</time>
      </trkpt>
      <trkpt lat="48.40315" lon="7.26979">
        <ele>1070.6</ele>
        <time>2021-08-03T12:20:56Z</time>
      </trkpt>
      <trkpt lat="48.40303" lon="7.2698">
        <ele>1070.2</ele>
        <time>2021-08-03T12:20:58Z</time>
      </trkpt>
      <trkpt lat="48.40297" lon="7.2698">
        <ele>1070.1</ele>
        <time>2021-08-03T12:20:59Z</time>
      </trkpt>
      <trkpt lat="48.40292" lon="7.2698">
        <ele>1069.9</ele>
        <time>2021-08-03T12:21:00Z</time>
      </trkpt>
      <trkpt lat="48.40281" lon="7.26981">
        <ele>1069.6</ele>
        <time>2021-08-03T12:21:02Z</time>
      </trkpt>
      <trkpt lat="48.40277" lon="7.26981">
        <ele>1069.5</ele>
        <time>2021-08-03T12:21:03Z</time>
      </trkpt>
      <trkpt lat="48.40267" lon="7.2698">
        <ele>1069.3</ele>
        <time>2021-08-03T12:21:05Z</time>
      </trkpt>
      <trkpt lat="48.40262" lon="7.26979">
        <ele>1069.2</ele>
        <time>2021-08-03T12:21:06Z</time>
      </trkpt>
      <trkpt lat="48.40252" lon="7.26976">
        <ele>1069.1</ele>
        <time>2021-08-03T12:21:08Z</time>
      </trkpt>
      <trkpt lat="48.40247" lon="7.26975">
        <ele>1069</ele>
        <time>2021-08-03T12:21:09Z</time>
      </trkpt>
      <trkpt lat="48.40238" lon="7.26971">
        <ele>1068.8</ele>
        <time>2021-08-03T12:21:11Z</time>
      </trkpt>
      <trkpt lat="48.40232" lon="7.26969">
        <ele>1068.7</ele>
        <time>2021-08-03T12:21:12Z</time>
      </trkpt>
      <trkpt lat="48.40223" lon="7.26965">
        <ele>1068.5</ele>
        <time>2021-08-03T12:21:14Z</time>
      </trkpt>
      <trkpt lat="48.40215" lon="7.26959">
        <ele>1068.3</ele>
        <time>2021-08-03T12:21:16Z</time>
      </trkpt>
      <trkpt lat="48.40211" lon="7.26956">
        <ele>1068.2</ele>
        <time>2021-08-03T12:21:17Z</time>
      </trkpt>
      <trkpt lat="48.40208" lon="7.26957">
        <ele>1068.2</ele>
        <time>2021-08-03T12:21:18Z</time>
      </trkpt>
      <trkpt lat="48.40199" lon="7.26951">
        <ele>1068</ele>
        <time>2021-08-03T12:21:20Z</time>
      </trkpt>
      <trkpt lat="48.40189" lon="7.26942">
        <ele>1067.7</ele>
        <time>2021-08-03T12:21:22Z</time>
      </trkpt>
      <trkpt lat="48.40184" lon="7.26938">
        <ele>1067.6</ele>
        <time>2021-08-03T12:21:23Z</time>
      </trkpt>
      <trkpt lat="48.4018" lon="7.26936">
        <ele>1067.5</ele>
        <time>2021-08-03T12:21:24Z</time>
      </trkpt>
      <trkpt lat="48.40178" lon="7.26931">
        <ele>1067.5</ele>
        <time>2021-08-03T12:21:25Z</time>
      </trkpt>
      <trkpt lat="48.40175" lon="7.26928">
        <ele>1067.4</ele>
        <time>2021-08-03T12:21:26Z</time>
      </trkpt>
      <trkpt lat="48.4017" lon="7.26923">
        <ele>1067.3</ele>
        <time>2021-08-03T12:21:27Z</time>
      </trkpt>
      <trkpt lat="48.40162" lon="7.26917">
        <ele>1067</ele>
        <time>2021-08-03T12:21:29Z</time>
      </trkpt>
      <trkpt lat="48.40158" lon="7.26913">
        <ele>1066.9</ele>
        <time>2021-08-03T12:21:30Z</time>
      </trkpt>
      <trkpt lat="48.40149" lon="7.26905">
        <ele>1066.6</ele>
        <time>2021-08-03T12:21:32Z</time>
      </trkpt>
      <trkpt lat="48.40145" lon="7.26901">
        <ele>1066.4</ele>
        <time>2021-08-03T12:21:33Z</time>
      </trkpt>
      <trkpt lat="48.40141" lon="7.26898">
        <ele>1066.3</ele>
        <time>2021-08-03T12:21:34Z</time>
      </trkpt>
      <trkpt lat="48.40136" lon="7.26895">
        <ele>1066.1</ele>
        <time>2021-08-03T12:21:35Z</time>
      </trkpt>
      <trkpt lat="48.40132" lon="7.26892">
        <ele>1065.9</ele>
        <time>2021-08-03T12:21:36Z</time>
      </trkpt>
      <trkpt lat="48.40124" lon="7.26885">
        <ele>1065.7</ele>
        <time>2021-08-03T12:21:38Z</time>
      </trkpt>
      <trkpt lat="48.4012" lon="7.26882">
        <ele>1065.5</ele>
        <time>2021-08-03T12:21:39Z</time>
      </trkpt>
      <trkpt lat="48.40115" lon="7.26878">
        <ele>1065.4</ele>
        <time>2021-08-03T12:21:40Z</time>
      </trkpt>
      <trkpt lat="48.4011" lon="7.26874">
        <ele>1065.2</ele>
        <time>2021-08-03T12:21:41Z</time>
      </trkpt>
      <trkpt lat="48.40106" lon="7.26871">
        <ele>1065.1</ele>
        <time>2021-08-03T12:21:42Z</time>
      </trkpt>
      <trkpt lat="48.40096" lon="7.26863">
        <ele>1065</ele>
        <time>2021-08-03T12:21:44Z</time>
      </trkpt>
      <trkpt lat="48.40092" lon="7.2686">
        <ele>1064.9</ele>
        <time>2021-08-03T12:21:45Z</time>
      </trkpt>
      <trkpt lat="48.40084" lon="7.26853">
        <ele>1064.9</ele>
        <time>2021-08-03T12:21:47Z</time>
      </trkpt>
      <trkpt lat="48.40077" lon="7.26847">
        <ele>1064.9</ele>
        <time>2021-08-03T12:21:49Z</time>
      </trkpt>
      <trkpt lat="48.40071" lon="7.26843">
        <ele>1064.9</ele>
        <time>2021-08-03T12:21:50Z</time>
      </trkpt>
      <trkpt lat="48.40064" lon="7.26836">
        <ele>1065</ele>
        <time>2021-08-03T12:21:52Z</time>
      </trkpt>
      <trkpt lat="48.4006" lon="7.26832">
        <ele>1065</ele>
        <time>2021-08-03T12:21:53Z</time>
      </trkpt>
      <trkpt lat="48.40056" lon="7.26828">
        <ele>1065.1</ele>
        <time>2021-08-03T12:21:54Z</time>
      </trkpt>
      <trkpt lat="48.40056" lon="7.26822">
        <ele>1065.2</ele>
        <time>2021-08-03T12:21:55Z</time>
      </trkpt>
      <trkpt lat="48.40049" lon="7.26816">
        <ele>1065.3</ele>
        <time>2021-08-03T12:21:57Z</time>
      </trkpt>
      <trkpt lat="48.40042" lon="7.26812">
        <ele>1065.4</ele>
        <time>2021-08-03T12:21:59Z</time>
      </trkpt>
      <trkpt lat="48.40035" lon="7.26806">
        <ele>1065.6</ele>
        <time>2021-08-03T12:22:00Z</time>
      </trkpt>
      <trkpt lat="48.40029" lon="7.26802">
        <ele>1065.8</ele>
        <time>2021-08-03T12:22:02Z</time>
      </trkpt>
      <trkpt lat="48.40025" lon="7.26799">
        <ele>1065.9</ele>
        <time>2021-08-03T12:22:04Z</time>
      </trkpt>
      <trkpt lat="48.4002" lon="7.26795">
        <ele>1066</ele>
        <time>2021-08-03T12:22:05Z</time>
      </trkpt>
      <trkpt lat="48.40017" lon="7.26794">
        <ele>1066.1</ele>
        <time>2021-08-03T12:22:06Z</time>
      </trkpt>
      <trkpt lat="48.40015" lon="7.26792">
        <ele>1066.2</ele>
        <time>2021-08-03T12:22:07Z</time>
      </trkpt>
      <trkpt lat="48.40011" lon="7.26789">
        <ele>1066.4</ele>
        <time>2021-08-03T12:22:09Z</time>
      </trkpt>
      <trkpt lat="48.40008" lon="7.26785">
        <ele>1066.5</ele>
        <time>2021-08-03T12:22:10Z</time>
      </trkpt>
      <trkpt lat="48.40005" lon="7.26781">
        <ele>1066.7</ele>
        <time>2021-08-03T12:22:12Z</time>
      </trkpt>
      <trkpt lat="48.40002" lon="7.26778">
        <ele>1066.9</ele>
        <time>2021-08-03T12:22:13Z</time>
      </trkpt>
      <trkpt lat="48.39998" lon="7.26774">
        <ele>1067.1</ele>
        <time>2021-08-03T12:22:15Z</time>
      </trkpt>
      <trkpt lat="48.39996" lon="7.26771">
        <ele>1067.2</ele>
        <time>2021-08-03T12:22:16Z</time>
      </trkpt>
      <trkpt lat="48.39993" lon="7.26768">
        <ele>1067.3</ele>
        <time>2021-08-03T12:22:18Z</time>
      </trkpt>
      <trkpt lat="48.3999" lon="7.26765">
        <ele>1067.5</ele>
        <time>2021-08-03T12:22:20Z</time>
      </trkpt>
      <trkpt lat="48.39987" lon="7.26762">
        <ele>1067.6</ele>
        <time>2021-08-03T12:22:21Z</time>
      </trkpt>
      <trkpt lat="48.39986" lon="7.26761">
        <ele>1067.7</ele>
        <time>2021-08-03T12:22:22Z</time>
      </trkpt>
      <trkpt lat="48.39984" lon="7.26761">
        <ele>1067.8</ele>
        <time>2021-08-03T12:22:23Z</time>
      </trkpt>
      <trkpt lat="48.3998" lon="7.26758">
        <ele>1068</ele>
        <time>2021-08-03T12:22:25Z</time>
      </trkpt>
      <trkpt lat="48.39976" lon="7.26756">
        <ele>1068.2</ele>
        <time>2021-08-03T12:22:27Z</time>
      </trkpt>
      <trkpt lat="48.39975" lon="7.26755">
        <ele>1068.2</ele>
        <time>2021-08-03T12:22:28Z</time>
      </trkpt>
      <trkpt lat="48.39972" lon="7.26752">
        <ele>1068.4</ele>
        <time>2021-08-03T12:22:30Z</time>
      </trkpt>
      <trkpt lat="48.39971" lon="7.26751">
        <ele>1068.5</ele>
        <time>2021-08-03T12:22:31Z</time>
      </trkpt>
      <trkpt lat="48.39968" lon="7.26749">
        <ele>1068.6</ele>
        <time>2021-08-03T12:22:33Z</time>
      </trkpt>
      <trkpt lat="48.39964" lon="7.26746">
        <ele>1068.9</ele>
        <time>2021-08-03T12:22:35Z</time>
      </trkpt>
      <trkpt lat="48.39962" lon="7.26745">
        <ele>1069</ele>
        <time>2021-08-03T12:22:36Z</time>
      </trkpt>
      <trkpt lat="48.39959" lon="7.26742">
        <ele>1069.1</ele>
        <time>2021-08-03T12:22:38Z</time>
      </trkpt>
      <trkpt lat="48.39956" lon="7.26738">
        <ele>1069.3</ele>
        <time>2021-08-03T12:22:40Z</time>
      </trkpt>
      <trkpt lat="48.39954" lon="7.26736">
        <ele>1069.4</ele>
        <time>2021-08-03T12:22:41Z</time>
      </trkpt>
      <trkpt lat="48.39951" lon="7.26733">
        <ele>1069.7</ele>
        <time>2021-08-03T12:22:43Z</time>
      </trkpt>
      <trkpt lat="48.39949" lon="7.26731">
        <ele>1069.8</ele>
        <time>2021-08-03T12:22:44Z</time>
      </trkpt>
      <trkpt lat="48.39946" lon="7.26728">
        <ele>1069.9</ele>
        <time>2021-08-03T12:22:46Z</time>
      </trkpt>
      <trkpt lat="48.39943" lon="7.26726">
        <ele>1070.2</ele>
        <time>2021-08-03T12:22:48Z</time>
      </trkpt>
      <trkpt lat="48.39939" lon="7.26724">
        <ele>1070.4</ele>
        <time>2021-08-03T12:22:50Z</time>
      </trkpt>
      <trkpt lat="48.39937" lon="7.26722">
        <ele>1070.5</ele>
        <time>2021-08-03T12:22:51Z</time>
      </trkpt>
      <trkpt lat="48.39933" lon="7.2672">
        <ele>1070.7</ele>
        <time>2021-08-03T12:22:53Z</time>
      </trkpt>
      <trkpt lat="48.39929" lon="7.26717">
        <ele>1071</ele>
        <time>2021-08-03T12:22:55Z</time>
      </trkpt>
      <trkpt lat="48.39927" lon="7.26716">
        <ele>1071.1</ele>
        <time>2021-08-03T12:22:56Z</time>
      </trkpt>
      <trkpt lat="48.39926" lon="7.26716">
        <ele>1071.2</ele>
        <time>2021-08-03T12:22:57Z</time>
      </trkpt>
      <trkpt lat="48.39923" lon="7.26713">
        <ele>1071.4</ele>
        <time>2021-08-03T12:22:59Z</time>
      </trkpt>
      <trkpt lat="48.39921" lon="7.26711">
        <ele>1071.5</ele>
        <time>2021-08-03T12:23:00Z</time>
      </trkpt>
      <trkpt lat="48.39917" lon="7.26708">
        <ele>1071.7</ele>
        <time>2021-08-03T12:23:02Z</time>
      </trkpt>
      <trkpt lat="48.39915" lon="7.26705">
        <ele>1071.9</ele>
        <time>2021-08-03T12:23:03Z</time>
      </trkpt>
      <trkpt lat="48.39914" lon="7.26704">
        <ele>1071.9</ele>
        <time>2021-08-03T12:23:04Z</time>
      </trkpt>
      <trkpt lat="48.39913" lon="7.26703">
        <ele>1072</ele>
        <time>2021-08-03T12:23:05Z</time>
      </trkpt>
      <trkpt lat="48.3991" lon="7.26701">
        <ele>1072.2</ele>
        <time>2021-08-03T12:23:07Z</time>
      </trkpt>
      <trkpt lat="48.39908" lon="7.26699">
        <ele>1072.3</ele>
        <time>2021-08-03T12:23:08Z</time>
      </trkpt>
      <trkpt lat="48.39904" lon="7.26695">
        <ele>1072.6</ele>
        <time>2021-08-03T12:23:10Z</time>
      </trkpt>
      <trkpt lat="48.39902" lon="7.26693">
        <ele>1072.7</ele>
        <time>2021-08-03T12:23:11Z</time>
      </trkpt>
      <trkpt lat="48.39899" lon="7.2669">
        <ele>1072.9</ele>
        <time>2021-08-03T12:23:13Z</time>
      </trkpt>
      <trkpt lat="48.39895" lon="7.26686">
        <ele>1073.2</ele>
        <time>2021-08-03T12:23:15Z</time>
      </trkpt>
      <trkpt lat="48.39892" lon="7.26683">
        <ele>1073.3</ele>
        <time>2021-08-03T12:23:16Z</time>
      </trkpt>
      <trkpt lat="48.39892" lon="7.26682">
        <ele>1073.4</ele>
        <time>2021-08-03T12:23:17Z</time>
      </trkpt>
      <trkpt lat="48.3989" lon="7.26681">
        <ele>1073.5</ele>
        <time>2021-08-03T12:23:18Z</time>
      </trkpt>
      <trkpt lat="48.39888" lon="7.26681">
        <ele>1073.6</ele>
        <time>2021-08-03T12:23:19Z</time>
      </trkpt>
      <trkpt lat="48.39886" lon="7.26681">
        <ele>1073.7</ele>
        <time>2021-08-03T12:23:21Z</time>
      </trkpt>
      <trkpt lat="48.39884" lon="7.26681">
        <ele>1073.8</ele>
        <time>2021-08-03T12:23:22Z</time>
      </trkpt>
      <trkpt lat="48.39883" lon="7.26681">
        <ele>1073.8</ele>
        <time>2021-08-03T12:23:23Z</time>
      </trkpt>
      <trkpt lat="48.39879" lon="7.2668">
        <ele>1074</ele>
        <time>2021-08-03T12:23:25Z</time>
      </trkpt>
      <trkpt lat="48.39879" lon="7.26679">
        <ele>1074.1</ele>
        <time>2021-08-03T12:23:26Z</time>
      </trkpt>
      <trkpt lat="48.39877" lon="7.26679">
        <ele>1074.2</ele>
        <time>2021-08-03T12:23:27Z</time>
      </trkpt>
      <trkpt lat="48.39875" lon="7.26678">
        <ele>1074.2</ele>
        <time>2021-08-03T12:23:28Z</time>
      </trkpt>
      <trkpt lat="48.39874" lon="7.26677">
        <ele>1074.3</ele>
        <time>2021-08-03T12:23:29Z</time>
      </trkpt>
      <trkpt lat="48.39874" lon="7.26676">
        <ele>1074.4</ele>
        <time>2021-08-03T12:23:30Z</time>
      </trkpt>
      <trkpt lat="48.39872" lon="7.26675">
        <ele>1074.4</ele>
        <time>2021-08-03T12:23:31Z</time>
      </trkpt>
      <trkpt lat="48.39871" lon="7.26674">
        <ele>1074.5</ele>
        <time>2021-08-03T12:23:32Z</time>
      </trkpt>
      <trkpt lat="48.3987" lon="7.26672">
        <ele>1074.6</ele>
        <time>2021-08-03T12:23:33Z</time>
      </trkpt>
      <trkpt lat="48.39868" lon="7.26671">
        <ele>1074.6</ele>
        <time>2021-08-03T12:23:34Z</time>
      </trkpt>
      <trkpt lat="48.39867" lon="7.2667">
        <ele>1074.7</ele>
        <time>2021-08-03T12:23:35Z</time>
      </trkpt>
      <trkpt lat="48.39866" lon="7.26669">
        <ele>1074.8</ele>
        <time>2021-08-03T12:23:36Z</time>
      </trkpt>
      <trkpt lat="48.39864" lon="7.26668">
        <ele>1074.8</ele>
        <time>2021-08-03T12:23:37Z</time>
      </trkpt>
      <trkpt lat="48.39862" lon="7.26667">
        <ele>1074.9</ele>
        <time>2021-08-03T12:23:39Z</time>
      </trkpt>
      <trkpt lat="48.39858" lon="7.26665">
        <ele>1075.1</ele>
        <time>2021-08-03T12:23:41Z</time>
      </trkpt>
      <trkpt lat="48.39855" lon="7.26664">
        <ele>1075.2</ele>
        <time>2021-08-03T12:23:42Z</time>
      </trkpt>
      <trkpt lat="48.39854" lon="7.26663">
        <ele>1075.2</ele>
        <time>2021-08-03T12:23:43Z</time>
      </trkpt>
      <trkpt lat="48.39852" lon="7.26663">
        <ele>1075.3</ele>
        <time>2021-08-03T12:23:44Z</time>
      </trkpt>
      <trkpt lat="48.3985" lon="7.26663">
        <ele>1075.3</ele>
        <time>2021-08-03T12:23:45Z</time>
      </trkpt>
      <trkpt lat="48.39847" lon="7.26663">
        <ele>1075.4</ele>
        <time>2021-08-03T12:23:46Z</time>
      </trkpt>
      <trkpt lat="48.39847" lon="7.26664">
        <ele>1075.5</ele>
        <time>2021-08-03T12:23:47Z</time>
      </trkpt>
      <trkpt lat="48.39844" lon="7.26663">
        <ele>1075.6</ele>
        <time>2021-08-03T12:23:48Z</time>
      </trkpt>
      <trkpt lat="48.39842" lon="7.26661">
        <ele>1075.6</ele>
        <time>2021-08-03T12:23:50Z</time>
      </trkpt>
      <trkpt lat="48.39839" lon="7.26661">
        <ele>1075.7</ele>
        <time>2021-08-03T12:23:51Z</time>
      </trkpt>
      <trkpt lat="48.39839" lon="7.2666">
        <ele>1075.8</ele>
        <time>2021-08-03T12:23:52Z</time>
      </trkpt>
      <trkpt lat="48.39835" lon="7.26659">
        <ele>1075.9</ele>
        <time>2021-08-03T12:23:54Z</time>
      </trkpt>
      <trkpt lat="48.39832" lon="7.26658">
        <ele>1076</ele>
        <time>2021-08-03T12:23:55Z</time>
      </trkpt>
      <trkpt lat="48.39831" lon="7.26658">
        <ele>1076.1</ele>
        <time>2021-08-03T12:23:56Z</time>
      </trkpt>
      <trkpt lat="48.39829" lon="7.26658">
        <ele>1076.1</ele>
        <time>2021-08-03T12:23:57Z</time>
      </trkpt>
      <trkpt lat="48.39828" lon="7.26658">
        <ele>1076.2</ele>
        <time>2021-08-03T12:23:58Z</time>
      </trkpt>
      <trkpt lat="48.39826" lon="7.26659">
        <ele>1076.2</ele>
        <time>2021-08-03T12:23:59Z</time>
      </trkpt>
      <trkpt lat="48.39825" lon="7.26659">
        <ele>1076.2</ele>
        <time>2021-08-03T12:24:00Z</time>
      </trkpt>
      <trkpt lat="48.39823" lon="7.26659">
        <ele>1076.3</ele>
        <time>2021-08-03T12:24:01Z</time>
      </trkpt>
      <trkpt lat="48.39822" lon="7.26658">
        <ele>1076.3</ele>
        <time>2021-08-03T12:24:02Z</time>
      </trkpt>
      <trkpt lat="48.3982" lon="7.26659">
        <ele>1076.4</ele>
        <time>2021-08-03T12:24:03Z</time>
      </trkpt>
      <trkpt lat="48.39818" lon="7.2666">
        <ele>1076.4</ele>
        <time>2021-08-03T12:24:05Z</time>
      </trkpt>
      <trkpt lat="48.39817" lon="7.26659">
        <ele>1076.5</ele>
        <time>2021-08-03T12:24:06Z</time>
      </trkpt>
      <trkpt lat="48.39813" lon="7.26659">
        <ele>1076.6</ele>
        <time>2021-08-03T12:24:08Z</time>
      </trkpt>
      <trkpt lat="48.39811" lon="7.2666">
        <ele>1076.6</ele>
        <time>2021-08-03T12:24:09Z</time>
      </trkpt>
      <trkpt lat="48.3981" lon="7.26661">
        <ele>1076.7</ele>
        <time>2021-08-03T12:24:10Z</time>
      </trkpt>
      <trkpt lat="48.39807" lon="7.26662">
        <ele>1076.7</ele>
        <time>2021-08-03T12:24:12Z</time>
      </trkpt>
      <trkpt lat="48.39806" lon="7.26662">
        <ele>1076.8</ele>
        <time>2021-08-03T12:24:13Z</time>
      </trkpt>
      <trkpt lat="48.39804" lon="7.26663">
        <ele>1076.8</ele>
        <time>2021-08-03T12:24:15Z</time>
      </trkpt>
      <trkpt lat="48.39801" lon="7.26663">
        <ele>1076.9</ele>
        <time>2021-08-03T12:24:17Z</time>
      </trkpt>
      <trkpt lat="48.39799" lon="7.26664">
        <ele>1076.9</ele>
        <time>2021-08-03T12:24:18Z</time>
      </trkpt>
      <trkpt lat="48.39797" lon="7.26666">
        <ele>1077</ele>
        <time>2021-08-03T12:24:20Z</time>
      </trkpt>
      <trkpt lat="48.39794" lon="7.26667">
        <ele>1077.1</ele>
        <time>2021-08-03T12:24:22Z</time>
      </trkpt>
      <trkpt lat="48.39791" lon="7.26669">
        <ele>1077.1</ele>
        <time>2021-08-03T12:24:24Z</time>
      </trkpt>
      <trkpt lat="48.39788" lon="7.2667">
        <ele>1077.2</ele>
        <time>2021-08-03T12:24:26Z</time>
      </trkpt>
      <trkpt lat="48.39786" lon="7.26669">
        <ele>1077.2</ele>
        <time>2021-08-03T12:24:27Z</time>
      </trkpt>
      <trkpt lat="48.39784" lon="7.26668">
        <ele>1077.3</ele>
        <time>2021-08-03T12:24:29Z</time>
      </trkpt>
      <trkpt lat="48.39782" lon="7.26669">
        <ele>1077.3</ele>
        <time>2021-08-03T12:24:30Z</time>
      </trkpt>
      <trkpt lat="48.39781" lon="7.26669">
        <ele>1077.3</ele>
        <time>2021-08-03T12:24:32Z</time>
      </trkpt>
      <trkpt lat="48.3978" lon="7.26669">
        <ele>1077.4</ele>
        <time>2021-08-03T12:24:33Z</time>
      </trkpt>
      <trkpt lat="48.3978" lon="7.26669">
        <ele>1077.4</ele>
        <time>2021-08-03T12:24:34Z</time>
      </trkpt>
      <trkpt lat="48.39778" lon="7.2667">
        <ele>1077.4</ele>
        <time>2021-08-03T12:24:37Z</time>
      </trkpt>
      <trkpt lat="48.39779" lon="7.26671">
        <ele>1077.4</ele>
        <time>2021-08-03T12:24:38Z</time>
      </trkpt>
      <trkpt lat="48.39779" lon="7.26671">
        <ele>1077.4</ele>
        <time>2021-08-03T12:24:39Z</time>
      </trkpt>
      <trkpt lat="48.3978" lon="7.26671">
        <ele>1077.4</ele>
        <time>2021-08-03T12:24:40Z</time>
      </trkpt>
      <trkpt lat="48.39781" lon="7.26671">
        <ele>1077.3</ele>
        <time>2021-08-03T12:24:42Z</time>
      </trkpt>
      <trkpt lat="48.39782" lon="7.26671">
        <ele>1077.3</ele>
        <time>2021-08-03T12:24:43Z</time>
      </trkpt>
      <trkpt lat="48.39791" lon="7.26668">
        <ele>1077.1</ele>
        <time>2021-08-03T12:24:45Z</time>
      </trkpt>
      <trkpt lat="48.39791" lon="7.26668">
        <ele>1077.1</ele>
        <time>2021-08-03T12:24:45Z</time>
      </trkpt>
      <trkpt lat="48.39799" lon="7.26665">
        <ele>1076.9</ele>
        <time>2021-08-03T12:24:47Z</time>
      </trkpt>
      <trkpt lat="48.39802" lon="7.26663">
        <ele>1076.9</ele>
        <time>2021-08-03T12:24:48Z</time>
      </trkpt>
      <trkpt lat="48.39809" lon="7.26662">
        <ele>1076.7</ele>
        <time>2021-08-03T12:24:50Z</time>
      </trkpt>
      <trkpt lat="48.39812" lon="7.26661">
        <ele>1076.6</ele>
        <time>2021-08-03T12:24:51Z</time>
      </trkpt>
      <trkpt lat="48.39818" lon="7.26661">
        <ele>1076.4</ele>
        <time>2021-08-03T12:24:52Z</time>
      </trkpt>
      <trkpt lat="48.39823" lon="7.26661">
        <ele>1076.3</ele>
        <time>2021-08-03T12:24:54Z</time>
      </trkpt>
      <trkpt lat="48.39831" lon="7.26664">
        <ele>1076</ele>
        <time>2021-08-03T12:24:56Z</time>
      </trkpt>
      <trkpt lat="48.39839" lon="7.26668">
        <ele>1075.7</ele>
        <time>2021-08-03T12:24:58Z</time>
      </trkpt>
      <trkpt lat="48.39846" lon="7.26669">
        <ele>1075.4</ele>
        <time>2021-08-03T12:25:00Z</time>
      </trkpt>
      <trkpt lat="48.39853" lon="7.2667">
        <ele>1075.4</ele>
        <time>2021-08-03T12:25:01Z</time>
      </trkpt>
      <trkpt lat="48.39857" lon="7.26667">
        <ele>1075.9</ele>
        <time>2021-08-03T12:25:03Z</time>
      </trkpt>
      <trkpt lat="48.39858" lon="7.26664">
        <ele>1076.1</ele>
        <time>2021-08-03T12:25:04Z</time>
      </trkpt>
      <trkpt lat="48.39858" lon="7.26661">
        <ele>1076.3</ele>
        <time>2021-08-03T12:25:06Z</time>
      </trkpt>
      <trkpt lat="48.39856" lon="7.26661">
        <ele>1076.6</ele>
        <time>2021-08-03T12:25:07Z</time>
      </trkpt>
      <trkpt lat="48.39855" lon="7.2666">
        <ele>1076.7</ele>
        <time>2021-08-03T12:25:08Z</time>
      </trkpt>
      <trkpt lat="48.39855" lon="7.26659">
        <ele>1076.8</ele>
        <time>2021-08-03T12:25:09Z</time>
      </trkpt>
      <trkpt lat="48.39856" lon="7.26656">
        <ele>1077</ele>
        <time>2021-08-03T12:25:11Z</time>
      </trkpt>
      <trkpt lat="48.39856" lon="7.26651">
        <ele>1077.4</ele>
        <time>2021-08-03T12:25:12Z</time>
      </trkpt>
      <trkpt lat="48.39856" lon="7.26642">
        <ele>1078.1</ele>
        <time>2021-08-03T12:25:14Z</time>
      </trkpt>
      <trkpt lat="48.39856" lon="7.26634">
        <ele>1078.7</ele>
        <time>2021-08-03T12:25:15Z</time>
      </trkpt>
      <trkpt lat="48.39856" lon="7.26626">
        <ele>1079.3</ele>
        <time>2021-08-03T12:25:16Z</time>
      </trkpt>
      <trkpt lat="48.39856" lon="7.26618">
        <ele>1079.9</ele>
        <time>2021-08-03T12:25:18Z</time>
      </trkpt>
      <trkpt lat="48.39856" lon="7.26609">
        <ele>1080.6</ele>
        <time>2021-08-03T12:25:19Z</time>
      </trkpt>
      <trkpt lat="48.39856" lon="7.26599">
        <ele>1081.4</ele>
        <time>2021-08-03T12:25:21Z</time>
      </trkpt>
      <trkpt lat="48.39855" lon="7.26592">
        <ele>1082</ele>
        <time>2021-08-03T12:25:23Z</time>
      </trkpt>
      <trkpt lat="48.39855" lon="7.26586">
        <ele>1082.5</ele>
        <time>2021-08-03T12:25:24Z</time>
      </trkpt>
      <trkpt lat="48.39855" lon="7.26584">
        <ele>1082.7</ele>
        <time>2021-08-03T12:25:25Z</time>
      </trkpt>
      <trkpt lat="48.39854" lon="7.26578">
        <ele>1083.2</ele>
        <time>2021-08-03T12:25:27Z</time>
      </trkpt>
      <trkpt lat="48.39854" lon="7.26572">
        <ele>1083.6</ele>
        <time>2021-08-03T12:25:28Z</time>
      </trkpt>
      <trkpt lat="48.39853" lon="7.26568">
        <ele>1084</ele>
        <time>2021-08-03T12:25:30Z</time>
      </trkpt>
      <trkpt lat="48.39853" lon="7.26566">
        <ele>1084.1</ele>
        <time>2021-08-03T12:25:31Z</time>
      </trkpt>
      <trkpt lat="48.39853" lon="7.26564">
        <ele>1084.2</ele>
        <time>2021-08-03T12:25:32Z</time>
      </trkpt>
      <trkpt lat="48.39854" lon="7.26561">
        <ele>1084.5</ele>
        <time>2021-08-03T12:25:34Z</time>
      </trkpt>
      <trkpt lat="48.39854" lon="7.26559">
        <ele>1084.6</ele>
        <time>2021-08-03T12:25:35Z</time>
      </trkpt>
      <trkpt lat="48.39855" lon="7.26557">
        <ele>1084.4</ele>
        <time>2021-08-03T12:25:36Z</time>
      </trkpt>
      <trkpt lat="48.39855" lon="7.26556">
        <ele>1084.2</ele>
        <time>2021-08-03T12:25:38Z</time>
      </trkpt>
      <trkpt lat="48.39855" lon="7.26556">
        <ele>1084.2</ele>
        <time>2021-08-03T12:25:39Z</time>
      </trkpt>
      <trkpt lat="48.39855" lon="7.26556">
        <ele>1084.1</ele>
        <time>2021-08-03T12:25:41Z</time>
      </trkpt>
      <trkpt lat="48.39855" lon="7.26556">
        <ele>1084.1</ele>
        <time>2021-08-03T12:25:43Z</time>
      </trkpt>
      <trkpt lat="48.39855" lon="7.26556">
        <ele>1084</ele>
        <time>2021-08-03T12:25:44Z</time>
      </trkpt>
      <trkpt lat="48.39855" lon="7.26555">
        <ele>1083.9</ele>
        <time>2021-08-03T12:25:45Z</time>
      </trkpt>
      <trkpt lat="48.39855" lon="7.26554">
        <ele>1083.8</ele>
        <time>2021-08-03T12:25:46Z</time>
      </trkpt>
      <trkpt lat="48.39817" lon="7.26544">
        <ele>1084.4</ele>
        <time>2021-08-03T12:30:13Z</time>
      </trkpt>
      <trkpt lat="48.39809" lon="7.26547">
        <ele>1084.6</ele>
        <time>2021-08-03T12:30:15Z</time>
      </trkpt>
      <trkpt lat="48.39804" lon="7.2655">
        <ele>1084.8</ele>
        <time>2021-08-03T12:30:17Z</time>
      </trkpt>
      <trkpt lat="48.39803" lon="7.2655">
        <ele>1084.8</ele>
        <time>2021-08-03T12:30:18Z</time>
      </trkpt>
      <trkpt lat="48.39803" lon="7.2655">
        <ele>1084.8</ele>
        <time>2021-08-03T12:30:19Z</time>
      </trkpt>
      <trkpt lat="48.39803" lon="7.2655">
        <ele>1084.8</ele>
        <time>2021-08-03T12:30:21Z</time>
      </trkpt>
      <trkpt lat="48.398" lon="7.2655">
        <ele>1084.8</ele>
        <time>2021-08-03T12:30:23Z</time>
      </trkpt>
      <trkpt lat="48.398" lon="7.2655">
        <ele>1084.8</ele>
        <time>2021-08-03T12:30:24Z</time>
      </trkpt>
      <trkpt lat="48.39799" lon="7.2655">
        <ele>1084.8</ele>
        <time>2021-08-03T12:30:25Z</time>
      </trkpt>
      <trkpt lat="48.39797" lon="7.26548">
        <ele>1084.8</ele>
        <time>2021-08-03T12:30:27Z</time>
      </trkpt>
      <trkpt lat="48.39857" lon="7.26555">
        <ele>1083.3</ele>
        <time>2021-08-03T12:45:49Z</time>
      </trkpt>
      <trkpt lat="48.39859" lon="7.26563">
        <ele>1084.2</ele>
        <time>2021-08-03T12:45:51Z</time>
      </trkpt>
      <trkpt lat="48.3986" lon="7.26568">
        <ele>1083.9</ele>
        <time>2021-08-03T12:45:52Z</time>
      </trkpt>
      <trkpt lat="48.3986" lon="7.26573">
        <ele>1083.6</ele>
        <time>2021-08-03T12:45:53Z</time>
      </trkpt>
      <trkpt lat="48.3986" lon="7.26585">
        <ele>1082.8</ele>
        <time>2021-08-03T12:45:55Z</time>
      </trkpt>
      <trkpt lat="48.3986" lon="7.2659">
        <ele>1082.5</ele>
        <time>2021-08-03T12:45:56Z</time>
      </trkpt>
      <trkpt lat="48.3986" lon="7.26601">
        <ele>1081.7</ele>
        <time>2021-08-03T12:45:58Z</time>
      </trkpt>
      <trkpt lat="48.39858" lon="7.26613">
        <ele>1080.9</ele>
        <time>2021-08-03T12:46:00Z</time>
      </trkpt>
      <trkpt lat="48.39856" lon="7.26617">
        <ele>1080.6</ele>
        <time>2021-08-03T12:46:01Z</time>
      </trkpt>
      <trkpt lat="48.39855" lon="7.26623">
        <ele>1080.2</ele>
        <time>2021-08-03T12:46:02Z</time>
      </trkpt>
      <trkpt lat="48.39852" lon="7.26635">
        <ele>1079.3</ele>
        <time>2021-08-03T12:46:04Z</time>
      </trkpt>
      <trkpt lat="48.39851" lon="7.26639">
        <ele>1079</ele>
        <time>2021-08-03T12:46:05Z</time>
      </trkpt>
      <trkpt lat="48.39849" lon="7.26645">
        <ele>1078.6</ele>
        <time>2021-08-03T12:46:06Z</time>
      </trkpt>
      <trkpt lat="48.39845" lon="7.26654">
        <ele>1077.9</ele>
        <time>2021-08-03T12:46:08Z</time>
      </trkpt>
      <trkpt lat="48.39841" lon="7.26666">
        <ele>1077.1</ele>
        <time>2021-08-03T12:46:10Z</time>
      </trkpt>
      <trkpt lat="48.39839" lon="7.26674">
        <ele>1076.6</ele>
        <time>2021-08-03T12:46:11Z</time>
      </trkpt>
      <trkpt lat="48.39837" lon="7.26687">
        <ele>1075.7</ele>
        <time>2021-08-03T12:46:13Z</time>
      </trkpt>
      <trkpt lat="48.39838" lon="7.26691">
        <ele>1075.5</ele>
        <time>2021-08-03T12:46:14Z</time>
      </trkpt>
      <trkpt lat="48.39844" lon="7.26698">
        <ele>1075.3</ele>
        <time>2021-08-03T12:46:16Z</time>
      </trkpt>
      <trkpt lat="48.39853" lon="7.26697">
        <ele>1075</ele>
        <time>2021-08-03T12:46:18Z</time>
      </trkpt>
      <trkpt lat="48.39858" lon="7.26699">
        <ele>1074.8</ele>
        <time>2021-08-03T12:46:19Z</time>
      </trkpt>
      <trkpt lat="48.39871" lon="7.26705">
        <ele>1074.1</ele>
        <time>2021-08-03T12:46:21Z</time>
      </trkpt>
      <trkpt lat="48.3988" lon="7.2671">
        <ele>1073.6</ele>
        <time>2021-08-03T12:46:22Z</time>
      </trkpt>
      <trkpt lat="48.39896" lon="7.26719">
        <ele>1072.6</ele>
        <time>2021-08-03T12:46:24Z</time>
      </trkpt>
      <trkpt lat="48.39903" lon="7.26723">
        <ele>1072.3</ele>
        <time>2021-08-03T12:46:25Z</time>
      </trkpt>
      <trkpt lat="48.39916" lon="7.26731">
        <ele>1071.5</ele>
        <time>2021-08-03T12:46:27Z</time>
      </trkpt>
      <trkpt lat="48.39922" lon="7.26736">
        <ele>1071.1</ele>
        <time>2021-08-03T12:46:28Z</time>
      </trkpt>
      <trkpt lat="48.39934" lon="7.26745">
        <ele>1070.3</ele>
        <time>2021-08-03T12:46:30Z</time>
      </trkpt>
      <trkpt lat="48.3994" lon="7.26751">
        <ele>1069.9</ele>
        <time>2021-08-03T12:46:31Z</time>
      </trkpt>
      <trkpt lat="48.39947" lon="7.26756">
        <ele>1069.4</ele>
        <time>2021-08-03T12:46:32Z</time>
      </trkpt>
      <trkpt lat="48.39962" lon="7.26768">
        <ele>1068.6</ele>
        <time>2021-08-03T12:46:34Z</time>
      </trkpt>
      <trkpt lat="48.39969" lon="7.26774">
        <ele>1068.2</ele>
        <time>2021-08-03T12:46:35Z</time>
      </trkpt>
      <trkpt lat="48.39981" lon="7.26784">
        <ele>1067.6</ele>
        <time>2021-08-03T12:46:37Z</time>
      </trkpt>
      <trkpt lat="48.3999" lon="7.26791">
        <ele>1067.1</ele>
        <time>2021-08-03T12:46:39Z</time>
      </trkpt>
      <trkpt lat="48.39994" lon="7.26793">
        <ele>1066.9</ele>
        <time>2021-08-03T12:46:40Z</time>
      </trkpt>
      <trkpt lat="48.39999" lon="7.26794">
        <ele>1066.7</ele>
        <time>2021-08-03T12:46:41Z</time>
      </trkpt>
      <trkpt lat="48.40003" lon="7.26795">
        <ele>1066.6</ele>
        <time>2021-08-03T12:46:43Z</time>
      </trkpt>
      <trkpt lat="48.40003" lon="7.26794">
        <ele>1066.6</ele>
        <time>2021-08-03T12:46:45Z</time>
      </trkpt>
      <trkpt lat="48.40002" lon="7.26793">
        <ele>1066.6</ele>
        <time>2021-08-03T12:46:47Z</time>
      </trkpt>
      <trkpt lat="48.4" lon="7.26791">
        <ele>1066.7</ele>
        <time>2021-08-03T12:46:48Z</time>
      </trkpt>
      <trkpt lat="48.39998" lon="7.2679">
        <ele>1066.8</ele>
        <time>2021-08-03T12:46:49Z</time>
      </trkpt>
      <trkpt lat="48.39996" lon="7.26785">
        <ele>1067</ele>
        <time>2021-08-03T12:46:51Z</time>
      </trkpt>
      <trkpt lat="48.39992" lon="7.26783">
        <ele>1067.1</ele>
        <time>2021-08-03T12:46:52Z</time>
      </trkpt>
      <trkpt lat="48.39989" lon="7.26783">
        <ele>1067.2</ele>
        <time>2021-08-03T12:46:53Z</time>
      </trkpt>
      <trkpt lat="48.39987" lon="7.26784">
        <ele>1068.5</ele>
        <time>2021-08-03T12:46:55Z</time>
      </trkpt>
      <trkpt lat="48.39982" lon="7.26786">
        <ele>1069.6</ele>
        <time>2021-08-03T12:46:57Z</time>
      </trkpt>
      <trkpt lat="48.39977" lon="7.2679">
        <ele>1070.9</ele>
        <time>2021-08-03T12:46:59Z</time>
      </trkpt>
      <trkpt lat="48.39975" lon="7.26794">
        <ele>1071.6</ele>
        <time>2021-08-03T12:47:00Z</time>
      </trkpt>
      <trkpt lat="48.39974" lon="7.26797">
        <ele>1072.4</ele>
        <time>2021-08-03T12:47:02Z</time>
      </trkpt>
      <trkpt lat="48.39976" lon="7.26802">
        <ele>1073.3</ele>
        <time>2021-08-03T12:47:04Z</time>
      </trkpt>
      <trkpt lat="48.39977" lon="7.26807">
        <ele>1073.9</ele>
        <time>2021-08-03T12:47:05Z</time>
      </trkpt>
      <trkpt lat="48.39977" lon="7.26809">
        <ele>1073.9</ele>
        <time>2021-08-03T12:47:06Z</time>
      </trkpt>
      <trkpt lat="48.39978" lon="7.26811">
        <ele>1073.9</ele>
        <time>2021-08-03T12:47:08Z</time>
      </trkpt>
      <trkpt lat="48.39978" lon="7.2681">
        <ele>1073.9</ele>
        <time>2021-08-03T12:47:10Z</time>
      </trkpt>
      <trkpt lat="48.39978" lon="7.26809">
        <ele>1073.9</ele>
        <time>2021-08-03T12:47:11Z</time>
      </trkpt>
      <trkpt lat="48.39978" lon="7.26809">
        <ele>1073.9</ele>
        <time>2021-08-03T12:47:12Z</time>
      </trkpt>
      <trkpt lat="48.39978" lon="7.26809">
        <ele>1073.9</ele>
        <time>2021-08-03T12:47:13Z</time>
      </trkpt>
      <trkpt lat="48.39978" lon="7.2681">
        <ele>1073.9</ele>
        <time>2021-08-03T12:47:14Z</time>
      </trkpt>
      <trkpt lat="48.39978" lon="7.2681">
        <ele>1073.9</ele>
        <time>2021-08-03T12:47:16Z</time>
      </trkpt>
      <trkpt lat="48.39975" lon="7.26814">
        <ele>1073.6</ele>
        <time>2021-08-03T12:48:39Z</time>
      </trkpt>
      <trkpt lat="48.39977" lon="7.26818">
        <ele>1073.5</ele>
        <time>2021-08-03T12:48:40Z</time>
      </trkpt>
      <trkpt lat="48.39979" lon="7.26825">
        <ele>1073.4</ele>
        <time>2021-08-03T12:48:41Z</time>
      </trkpt>
      <trkpt lat="48.39983" lon="7.26832">
        <ele>1073.3</ele>
        <time>2021-08-03T12:48:43Z</time>
      </trkpt>
      <trkpt lat="48.39987" lon="7.26839">
        <ele>1073.2</ele>
        <time>2021-08-03T12:48:45Z</time>
      </trkpt>
      <trkpt lat="48.39988" lon="7.26846">
        <ele>1073.1</ele>
        <time>2021-08-03T12:48:46Z</time>
      </trkpt>
      <trkpt lat="48.3999" lon="7.26851">
        <ele>1073.1</ele>
        <time>2021-08-03T12:48:47Z</time>
      </trkpt>
      <trkpt lat="48.3999" lon="7.26857">
        <ele>1073</ele>
        <time>2021-08-03T12:48:48Z</time>
      </trkpt>
      <trkpt lat="48.3999" lon="7.26863">
        <ele>1072.9</ele>
        <time>2021-08-03T12:48:50Z</time>
      </trkpt>
      <trkpt lat="48.39991" lon="7.26867">
        <ele>1072.9</ele>
        <time>2021-08-03T12:48:51Z</time>
      </trkpt>
      <trkpt lat="48.39992" lon="7.26872">
        <ele>1072.8</ele>
        <time>2021-08-03T12:48:52Z</time>
      </trkpt>
      <trkpt lat="48.39993" lon="7.26878">
        <ele>1072.7</ele>
        <time>2021-08-03T12:48:53Z</time>
      </trkpt>
      <trkpt lat="48.39994" lon="7.26885">
        <ele>1072.7</ele>
        <time>2021-08-03T12:48:55Z</time>
      </trkpt>
      <trkpt lat="48.39994" lon="7.2689">
        <ele>1072.6</ele>
        <time>2021-08-03T12:48:56Z</time>
      </trkpt>
      <trkpt lat="48.39994" lon="7.26896">
        <ele>1072.8</ele>
        <time>2021-08-03T12:48:58Z</time>
      </trkpt>
      <trkpt lat="48.39993" lon="7.26903">
        <ele>1072.7</ele>
        <time>2021-08-03T12:48:59Z</time>
      </trkpt>
      <trkpt lat="48.39994" lon="7.26911">
        <ele>1072.8</ele>
        <time>2021-08-03T12:49:00Z</time>
      </trkpt>
      <trkpt lat="48.39994" lon="7.26918">
        <ele>1072.9</ele>
        <time>2021-08-03T12:49:01Z</time>
      </trkpt>
      <trkpt lat="48.39995" lon="7.26929">
        <ele>1072.9</ele>
        <time>2021-08-03T12:49:03Z</time>
      </trkpt>
      <trkpt lat="48.39996" lon="7.26932">
        <ele>1072.8</ele>
        <time>2021-08-03T12:49:06Z</time>
      </trkpt>
      <trkpt lat="48.39996" lon="7.26934">
        <ele>1072.6</ele>
        <time>2021-08-03T12:49:08Z</time>
      </trkpt>
      <trkpt lat="48.39998" lon="7.26937">
        <ele>1072.6</ele>
        <time>2021-08-03T12:49:10Z</time>
      </trkpt>
      <trkpt lat="48.39998" lon="7.26938">
        <ele>1072.4</ele>
        <time>2021-08-03T12:49:11Z</time>
      </trkpt>
      <trkpt lat="48.39999" lon="7.26939">
        <ele>1072.3</ele>
        <time>2021-08-03T12:49:12Z</time>
      </trkpt>
      <trkpt lat="48.39999" lon="7.2694">
        <ele>1072.1</ele>
        <time>2021-08-03T12:49:13Z</time>
      </trkpt>
      <trkpt lat="48.39982" lon="7.26988">
        <ele>1070.5</ele>
        <time>2021-08-03T12:49:27Z</time>
      </trkpt>
      <trkpt lat="48.39983" lon="7.26996">
        <ele>1070.1</ele>
        <time>2021-08-03T12:49:28Z</time>
      </trkpt>
      <trkpt lat="48.39983" lon="7.27003">
        <ele>1069.8</ele>
        <time>2021-08-03T12:49:30Z</time>
      </trkpt>
      <trkpt lat="48.39983" lon="7.27005">
        <ele>1069.7</ele>
        <time>2021-08-03T12:49:31Z</time>
      </trkpt>
      <trkpt lat="48.39988" lon="7.27012">
        <ele>1069.4</ele>
        <time>2021-08-03T12:49:33Z</time>
      </trkpt>
      <trkpt lat="48.39989" lon="7.27015">
        <ele>1069.4</ele>
        <time>2021-08-03T12:49:34Z</time>
      </trkpt>
      <trkpt lat="48.3999" lon="7.27017">
        <ele>1069.1</ele>
        <time>2021-08-03T12:49:36Z</time>
      </trkpt>
      <trkpt lat="48.39991" lon="7.27019">
        <ele>1069</ele>
        <time>2021-08-03T12:49:37Z</time>
      </trkpt>
      <trkpt lat="48.39992" lon="7.27021">
        <ele>1068.6</ele>
        <time>2021-08-03T12:49:38Z</time>
      </trkpt>
      <trkpt lat="48.39992" lon="7.27023">
        <ele>1068.7</ele>
        <time>2021-08-03T12:49:40Z</time>
      </trkpt>
      <trkpt lat="48.40602" lon="7.27419">
        <ele>1057.1</ele>
        <time>2021-08-03T12:52:43Z</time>
      </trkpt>
      <trkpt lat="48.40597" lon="7.2742">
        <ele>1056.3</ele>
        <time>2021-08-03T12:52:45Z</time>
      </trkpt>
      <trkpt lat="48.40592" lon="7.27421">
        <ele>1055.9</ele>
        <time>2021-08-03T12:52:47Z</time>
      </trkpt>
      <trkpt lat="48.40585" lon="7.27424">
        <ele>1054.6</ele>
        <time>2021-08-03T12:52:49Z</time>
      </trkpt>
      <trkpt lat="48.40581" lon="7.27428">
        <ele>1053.5</ele>
        <time>2021-08-03T12:52:50Z</time>
      </trkpt>
      <trkpt lat="48.40576" lon="7.27431">
        <ele>1052.5</ele>
        <time>2021-08-03T12:52:52Z</time>
      </trkpt>
      <trkpt lat="48.40571" lon="7.27435">
        <ele>1051.6</ele>
        <time>2021-08-03T12:52:53Z</time>
      </trkpt>
      <trkpt lat="48.40567" lon="7.27438">
        <ele>1050.6</ele>
        <time>2021-08-03T12:57:38Z</time>
      </trkpt>
      <trkpt lat="48.40562" lon="7.27442">
        <ele>1049.6</ele>
        <time>2021-08-03T12:57:39Z</time>
      </trkpt>
      <trkpt lat="48.40546" lon="7.27438">
        <ele>1046.6</ele>
        <time>2021-08-03T12:57:40Z</time>
      </trkpt>
      <trkpt lat="48.40534" lon="7.27439">
        <ele>1045</ele>
        <time>2021-08-03T12:57:42Z</time>
      </trkpt>
      <trkpt lat="48.40529" lon="7.27441">
        <ele>1045</ele>
        <time>2021-08-03T12:57:43Z</time>
      </trkpt>
      <trkpt lat="48.40517" lon="7.27447">
        <ele>1045</ele>
        <time>2021-08-03T12:57:45Z</time>
      </trkpt>
      <trkpt lat="48.40508" lon="7.27445">
        <ele>1045</ele>
        <time>2021-08-03T12:57:47Z</time>
      </trkpt>
      <trkpt lat="48.40504" lon="7.27441">
        <ele>1045</ele>
        <time>2021-08-03T12:57:48Z</time>
      </trkpt>
      <trkpt lat="48.40494" lon="7.27437">
        <ele>1044.9</ele>
        <time>2021-08-03T12:57:50Z</time>
      </trkpt>
      <trkpt lat="48.40489" lon="7.27436">
        <ele>1044.8</ele>
        <time>2021-08-03T12:57:51Z</time>
      </trkpt>
      <trkpt lat="48.40484" lon="7.27434">
        <ele>1044.7</ele>
        <time>2021-08-03T12:57:53Z</time>
      </trkpt>
      <trkpt lat="48.40482" lon="7.27433">
        <ele>1044.6</ele>
        <time>2021-08-03T12:57:54Z</time>
      </trkpt>
      <trkpt lat="48.40477" lon="7.27433">
        <ele>1044.5</ele>
        <time>2021-08-03T12:57:56Z</time>
      </trkpt>
      <trkpt lat="48.40473" lon="7.27434">
        <ele>1044.3</ele>
        <time>2021-08-03T12:57:57Z</time>
      </trkpt>
      <trkpt lat="48.40471" lon="7.27438">
        <ele>1044.3</ele>
        <time>2021-08-03T12:57:58Z</time>
      </trkpt>
      <trkpt lat="48.40468" lon="7.27441">
        <ele>1044.2</ele>
        <time>2021-08-03T12:58:00Z</time>
      </trkpt>
      <trkpt lat="48.40461" lon="7.27444">
        <ele>1044</ele>
        <time>2021-08-03T12:58:01Z</time>
      </trkpt>
      <trkpt lat="48.40456" lon="7.27446">
        <ele>1043.9</ele>
        <time>2021-08-03T12:58:03Z</time>
      </trkpt>
      <trkpt lat="48.40451" lon="7.27449">
        <ele>1043.8</ele>
        <time>2021-08-03T12:58:04Z</time>
      </trkpt>
      <trkpt lat="48.40446" lon="7.27453">
        <ele>1043.6</ele>
        <time>2021-08-03T12:58:05Z</time>
      </trkpt>
      <trkpt lat="48.40442" lon="7.27457">
        <ele>1043.2</ele>
        <time>2021-08-03T12:58:07Z</time>
      </trkpt>
      <trkpt lat="48.40438" lon="7.27459">
        <ele>1043</ele>
        <time>2021-08-03T12:58:08Z</time>
      </trkpt>
      <trkpt lat="48.40434" lon="7.27457">
        <ele>1042.7</ele>
        <time>2021-08-03T12:58:10Z</time>
      </trkpt>
      <trkpt lat="48.40431" lon="7.27458">
        <ele>1042.4</ele>
        <time>2021-08-03T12:58:12Z</time>
      </trkpt>
      <trkpt lat="48.40425" lon="7.27463">
        <ele>1041.9</ele>
        <time>2021-08-03T12:58:14Z</time>
      </trkpt>
      <trkpt lat="48.40418" lon="7.27473">
        <ele>1041.1</ele>
        <time>2021-08-03T12:58:16Z</time>
      </trkpt>
      <trkpt lat="48.40411" lon="7.2748">
        <ele>1040.5</ele>
        <time>2021-08-03T12:58:17Z</time>
      </trkpt>
      <trkpt lat="48.40404" lon="7.27488">
        <ele>1039.9</ele>
        <time>2021-08-03T12:58:19Z</time>
      </trkpt>
      <trkpt lat="48.40395" lon="7.27494">
        <ele>1039.2</ele>
        <time>2021-08-03T12:58:21Z</time>
      </trkpt>
      <trkpt lat="48.40389" lon="7.27497">
        <ele>1038.8</ele>
        <time>2021-08-03T12:58:22Z</time>
      </trkpt>
      <trkpt lat="48.40379" lon="7.27505">
        <ele>1037.9</ele>
        <time>2021-08-03T12:58:24Z</time>
      </trkpt>
      <trkpt lat="48.40374" lon="7.2751">
        <ele>1037.5</ele>
        <time>2021-08-03T12:58:25Z</time>
      </trkpt>
      <trkpt lat="48.40369" lon="7.27514">
        <ele>1037.1</ele>
        <time>2021-08-03T12:58:26Z</time>
      </trkpt>
      <trkpt lat="48.40362" lon="7.27516">
        <ele>1036.6</ele>
        <time>2021-08-03T12:58:27Z</time>
      </trkpt>
      <trkpt lat="48.4035" lon="7.27517">
        <ele>1035.8</ele>
        <time>2021-08-03T12:58:29Z</time>
      </trkpt>
      <trkpt lat="48.40338" lon="7.27515">
        <ele>1034.9</ele>
        <time>2021-08-03T12:58:31Z</time>
      </trkpt>
      <trkpt lat="48.40332" lon="7.27511">
        <ele>1034.5</ele>
        <time>2021-08-03T12:58:32Z</time>
      </trkpt>
      <trkpt lat="48.40322" lon="7.27505">
        <ele>1033.6</ele>
        <time>2021-08-03T12:58:34Z</time>
      </trkpt>
      <trkpt lat="48.40313" lon="7.27504">
        <ele>1034.1</ele>
        <time>2021-08-03T12:58:36Z</time>
      </trkpt>
      <trkpt lat="48.40305" lon="7.27498">
        <ele>1034.6</ele>
        <time>2021-08-03T12:58:38Z</time>
      </trkpt>
      <trkpt lat="48.403" lon="7.27494">
        <ele>1035.1</ele>
        <time>2021-08-03T12:58:40Z</time>
      </trkpt>
      <trkpt lat="48.40298" lon="7.27491">
        <ele>1035.2</ele>
        <time>2021-08-03T12:58:41Z</time>
      </trkpt>
      <trkpt lat="48.40292" lon="7.2749">
        <ele>1035.6</ele>
        <time>2021-08-03T12:58:43Z</time>
      </trkpt>
      <trkpt lat="48.40289" lon="7.27491">
        <ele>1035.8</ele>
        <time>2021-08-03T12:58:44Z</time>
      </trkpt>
      <trkpt lat="48.40287" lon="7.27495">
        <ele>1036</ele>
        <time>2021-08-03T12:58:46Z</time>
      </trkpt>
      <trkpt lat="48.40286" lon="7.27493">
        <ele>1036.1</ele>
        <time>2021-08-03T12:58:47Z</time>
      </trkpt>
      <trkpt lat="48.40284" lon="7.27492">
        <ele>1036.3</ele>
        <time>2021-08-03T12:58:48Z</time>
      </trkpt>
      <trkpt lat="48.4028" lon="7.27491">
        <ele>1036.6</ele>
        <time>2021-08-03T12:58:50Z</time>
      </trkpt>
      <trkpt lat="48.40278" lon="7.2749">
        <ele>1036.7</ele>
        <time>2021-08-03T12:58:51Z</time>
      </trkpt>
      <trkpt lat="48.40275" lon="7.27488">
        <ele>1036.9</ele>
        <time>2021-08-03T12:58:52Z</time>
      </trkpt>
      <trkpt lat="48.40274" lon="7.27488">
        <ele>1037</ele>
        <time>2021-08-03T12:58:53Z</time>
      </trkpt>
      <trkpt lat="48.40271" lon="7.27486">
        <ele>1037.3</ele>
        <time>2021-08-03T12:58:54Z</time>
      </trkpt>
      <trkpt lat="48.40266" lon="7.27484">
        <ele>1037.6</ele>
        <time>2021-08-03T12:58:56Z</time>
      </trkpt>
      <trkpt lat="48.40263" lon="7.2748">
        <ele>1037.9</ele>
        <time>2021-08-03T12:58:57Z</time>
      </trkpt>
      <trkpt lat="48.4026" lon="7.27476">
        <ele>1038.2</ele>
        <time>2021-08-03T12:58:58Z</time>
      </trkpt>
      <trkpt lat="48.40257" lon="7.27471">
        <ele>1038.4</ele>
        <time>2021-08-03T12:58:59Z</time>
      </trkpt>
      <trkpt lat="48.40255" lon="7.27467">
        <ele>1038.7</ele>
        <time>2021-08-03T12:59:01Z</time>
      </trkpt>
      <trkpt lat="48.40251" lon="7.27464">
        <ele>1038.9</ele>
        <time>2021-08-03T12:59:03Z</time>
      </trkpt>
      <trkpt lat="48.40246" lon="7.27462">
        <ele>1039</ele>
        <time>2021-08-03T12:59:04Z</time>
      </trkpt>
      <trkpt lat="48.4024" lon="7.27461">
        <ele>1039.2</ele>
        <time>2021-08-03T12:59:06Z</time>
      </trkpt>
      <trkpt lat="48.40235" lon="7.27461">
        <ele>1039.3</ele>
        <time>2021-08-03T12:59:07Z</time>
      </trkpt>
      <trkpt lat="48.40228" lon="7.2746">
        <ele>1039.3</ele>
        <time>2021-08-03T12:59:09Z</time>
      </trkpt>
      <trkpt lat="48.40222" lon="7.27459">
        <ele>1039.3</ele>
        <time>2021-08-03T12:59:11Z</time>
      </trkpt>
      <trkpt lat="48.40218" lon="7.27456">
        <ele>1039.3</ele>
        <time>2021-08-03T12:59:12Z</time>
      </trkpt>
      <trkpt lat="48.40215" lon="7.27453">
        <ele>1039.3</ele>
        <time>2021-08-03T12:59:14Z</time>
      </trkpt>
      <trkpt lat="48.40214" lon="7.27448">
        <ele>1039.2</ele>
        <time>2021-08-03T12:59:15Z</time>
      </trkpt>
      <trkpt lat="48.40214" lon="7.27447">
        <ele>1039.2</ele>
        <time>2021-08-03T12:59:16Z</time>
      </trkpt>
      <trkpt lat="48.40213" lon="7.27443">
        <ele>1039.2</ele>
        <time>2021-08-03T12:59:18Z</time>
      </trkpt>
      <trkpt lat="48.40211" lon="7.27439">
        <ele>1039.3</ele>
        <time>2021-08-03T12:59:20Z</time>
      </trkpt>
      <trkpt lat="48.4021" lon="7.27439">
        <ele>1039.3</ele>
        <time>2021-08-03T12:59:21Z</time>
      </trkpt>
      <trkpt lat="48.40208" lon="7.27435">
        <ele>1039.3</ele>
        <time>2021-08-03T12:59:23Z</time>
      </trkpt>
      <trkpt lat="48.40207" lon="7.27433">
        <ele>1039.3</ele>
        <time>2021-08-03T12:59:24Z</time>
      </trkpt>
      <trkpt lat="48.40206" lon="7.27431">
        <ele>1039.3</ele>
        <time>2021-08-03T12:59:25Z</time>
      </trkpt>
      <trkpt lat="48.40205" lon="7.27428">
        <ele>1039.2</ele>
        <time>2021-08-03T12:59:27Z</time>
      </trkpt>
      <trkpt lat="48.40202" lon="7.27422">
        <ele>1039.2</ele>
        <time>2021-08-03T12:59:28Z</time>
      </trkpt>
      <trkpt lat="48.402" lon="7.27419">
        <ele>1039.2</ele>
        <time>2021-08-03T12:59:29Z</time>
      </trkpt>
      <trkpt lat="48.40198" lon="7.27415">
        <ele>1039.1</ele>
        <time>2021-08-03T12:59:31Z</time>
      </trkpt>
      <trkpt lat="48.40197" lon="7.27414">
        <ele>1039.1</ele>
        <time>2021-08-03T12:59:32Z</time>
      </trkpt>
      <trkpt lat="48.40196" lon="7.27412">
        <ele>1039</ele>
        <time>2021-08-03T12:59:34Z</time>
      </trkpt>
      <trkpt lat="48.40195" lon="7.2741">
        <ele>1039</ele>
        <time>2021-08-03T12:59:35Z</time>
      </trkpt>
      <trkpt lat="48.40193" lon="7.27407">
        <ele>1039.1</ele>
        <time>2021-08-03T12:59:36Z</time>
      </trkpt>
      <trkpt lat="48.40192" lon="7.27405">
        <ele>1039.1</ele>
        <time>2021-08-03T12:59:38Z</time>
      </trkpt>
      <trkpt lat="48.40191" lon="7.27402">
        <ele>1039.1</ele>
        <time>2021-08-03T12:59:40Z</time>
      </trkpt>
      <trkpt lat="48.40204" lon="7.27479">
        <ele>1039.2</ele>
        <time>2021-08-03T13:01:21Z</time>
      </trkpt>
      <trkpt lat="48.40211" lon="7.27477">
        <ele>1039.2</ele>
        <time>2021-08-03T13:01:23Z</time>
      </trkpt>
      <trkpt lat="48.40214" lon="7.27477">
        <ele>1039.3</ele>
        <time>2021-08-03T13:01:24Z</time>
      </trkpt>
      <trkpt lat="48.40218" lon="7.27478">
        <ele>1039.3</ele>
        <time>2021-08-03T13:01:25Z</time>
      </trkpt>
      <trkpt lat="48.40226" lon="7.27479">
        <ele>1039.3</ele>
        <time>2021-08-03T13:01:27Z</time>
      </trkpt>
      <trkpt lat="48.40229" lon="7.27481">
        <ele>1039.3</ele>
        <time>2021-08-03T13:01:28Z</time>
      </trkpt>
      <trkpt lat="48.40232" lon="7.27483">
        <ele>1039.3</ele>
        <time>2021-08-03T13:01:29Z</time>
      </trkpt>
      <trkpt lat="48.40235" lon="7.27485">
        <ele>1039.2</ele>
        <time>2021-08-03T13:01:31Z</time>
      </trkpt>
      <trkpt lat="48.40237" lon="7.27486">
        <ele>1039.2</ele>
        <time>2021-08-03T13:01:32Z</time>
      </trkpt>
      <trkpt lat="48.40238" lon="7.27487">
        <ele>1039.2</ele>
        <time>2021-08-03T13:01:33Z</time>
      </trkpt>
      <trkpt lat="48.40239" lon="7.27487">
        <ele>1039.2</ele>
        <time>2021-08-03T13:01:34Z</time>
      </trkpt>
      <trkpt lat="48.40242" lon="7.27485">
        <ele>1039.1</ele>
        <time>2021-08-03T13:01:36Z</time>
      </trkpt>
      <trkpt lat="48.40246" lon="7.27485">
        <ele>1038.9</ele>
        <time>2021-08-03T13:01:37Z</time>
      </trkpt>
      <trkpt lat="48.4025" lon="7.27485">
        <ele>1038.8</ele>
        <time>2021-08-03T13:01:38Z</time>
      </trkpt>
      <trkpt lat="48.40251" lon="7.27485">
        <ele>1038.7</ele>
        <time>2021-08-03T13:01:40Z</time>
      </trkpt>
      <trkpt lat="48.40252" lon="7.27486">
        <ele>1038.6</ele>
        <time>2021-08-03T13:01:41Z</time>
      </trkpt>
      <trkpt lat="48.40252" lon="7.27487">
        <ele>1038.6</ele>
        <time>2021-08-03T13:01:42Z</time>
      </trkpt>
      <trkpt lat="48.40256" lon="7.27491">
        <ele>1038.3</ele>
        <time>2021-08-03T13:01:44Z</time>
      </trkpt>
      <trkpt lat="48.4026" lon="7.27495">
        <ele>1037.9</ele>
        <time>2021-08-03T13:01:46Z</time>
      </trkpt>
      <trkpt lat="48.40264" lon="7.27499">
        <ele>1037.6</ele>
        <time>2021-08-03T13:01:47Z</time>
      </trkpt>
      <trkpt lat="48.40268" lon="7.27502">
        <ele>1037.2</ele>
        <time>2021-08-03T13:01:48Z</time>
      </trkpt>
      <trkpt lat="48.40272" lon="7.27506">
        <ele>1036.8</ele>
        <time>2021-08-03T13:01:59Z</time>
      </trkpt>
      <trkpt lat="48.40276" lon="7.2751">
        <ele>1036.5</ele>
        <time>2021-08-03T13:02:00Z</time>
      </trkpt>
      <trkpt lat="48.40297" lon="7.2752">
        <ele>1034.9</ele>
        <time>2021-08-03T13:02:02Z</time>
      </trkpt>
      <trkpt lat="48.40303" lon="7.27523">
        <ele>1034.5</ele>
        <time>2021-08-03T13:02:03Z</time>
      </trkpt>
      <trkpt lat="48.40311" lon="7.27526">
        <ele>1033.9</ele>
        <time>2021-08-03T13:02:04Z</time>
      </trkpt>
      <trkpt lat="48.40316" lon="7.27528">
        <ele>1033.6</ele>
        <time>2021-08-03T13:02:06Z</time>
      </trkpt>
      <trkpt lat="48.40328" lon="7.27532">
        <ele>1033.2</ele>
        <time>2021-08-03T13:02:07Z</time>
      </trkpt>
      <trkpt lat="48.40332" lon="7.27534">
        <ele>1033.1</ele>
        <time>2021-08-03T13:02:09Z</time>
      </trkpt>
      <trkpt lat="48.40356" lon="7.27546">
        <ele>1032.5</ele>
        <time>2021-08-03T13:02:11Z</time>
      </trkpt>
      <trkpt lat="48.40368" lon="7.27552">
        <ele>1032.2</ele>
        <time>2021-08-03T13:02:12Z</time>
      </trkpt>
      <trkpt lat="48.4039" lon="7.27561">
        <ele>1031.7</ele>
        <time>2021-08-03T13:02:14Z</time>
      </trkpt>
      <trkpt lat="48.40399" lon="7.27564">
        <ele>1031.6</ele>
        <time>2021-08-03T13:02:15Z</time>
      </trkpt>
      <trkpt lat="48.40406" lon="7.27566">
        <ele>1031.5</ele>
        <time>2021-08-03T13:02:17Z</time>
      </trkpt>
      <trkpt lat="48.40411" lon="7.27569">
        <ele>1031.4</ele>
        <time>2021-08-03T13:02:18Z</time>
      </trkpt>
      <trkpt lat="48.40416" lon="7.27571">
        <ele>1031.3</ele>
        <time>2021-08-03T13:02:19Z</time>
      </trkpt>
      <trkpt lat="48.40419" lon="7.27572">
        <ele>1031.2</ele>
        <time>2021-08-03T13:02:21Z</time>
      </trkpt>
      <trkpt lat="48.4042" lon="7.27572">
        <ele>1031.2</ele>
        <time>2021-08-03T13:02:22Z</time>
      </trkpt>
      <trkpt lat="48.40433" lon="7.27567">
        <ele>1031</ele>
        <time>2021-08-03T13:02:24Z</time>
      </trkpt>
      <trkpt lat="48.40446" lon="7.27562">
        <ele>1030.7</ele>
        <time>2021-08-03T13:02:25Z</time>
      </trkpt>
      <trkpt lat="48.40502" lon="7.27542">
        <ele>1029.2</ele>
        <time>2021-08-03T13:02:32Z</time>
      </trkpt>
      <trkpt lat="48.40515" lon="7.27537">
        <ele>1029</ele>
        <time>2021-08-03T13:02:33Z</time>
      </trkpt>
      <trkpt lat="48.40536" lon="7.27529">
        <ele>1028.6</ele>
        <time>2021-08-03T13:02:35Z</time>
      </trkpt>
      <trkpt lat="48.40542" lon="7.27528">
        <ele>1028.4</ele>
        <time>2021-08-03T13:02:36Z</time>
      </trkpt>
      <trkpt lat="48.40543" lon="7.27527">
        <ele>1028.4</ele>
        <time>2021-08-03T13:02:37Z</time>
      </trkpt>
      <trkpt lat="48.40546" lon="7.27526">
        <ele>1028.3</ele>
        <time>2021-08-03T13:02:39Z</time>
      </trkpt>
      <trkpt lat="48.40551" lon="7.27527">
        <ele>1028.1</ele>
        <time>2021-08-03T13:02:40Z</time>
      </trkpt>
      <trkpt lat="48.40556" lon="7.27528">
        <ele>1028</ele>
        <time>2021-08-03T13:02:42Z</time>
      </trkpt>
      <trkpt lat="48.40559" lon="7.27529">
        <ele>1027.9</ele>
        <time>2021-08-03T13:02:43Z</time>
      </trkpt>
      <trkpt lat="48.40562" lon="7.2753">
        <ele>1027.9</ele>
        <time>2021-08-03T13:02:44Z</time>
      </trkpt>
      <trkpt lat="48.40563" lon="7.2753">
        <ele>1027.8</ele>
        <time>2021-08-03T13:02:45Z</time>
      </trkpt>
      <trkpt lat="48.40532" lon="7.28964">
        <ele>888.9</ele>
        <time>2021-08-03T13:06:18Z</time>
      </trkpt>
      <trkpt lat="48.40529" lon="7.28973">
        <ele>888.1</ele>
        <time>2021-08-03T13:06:19Z</time>
      </trkpt>
      <trkpt lat="48.40525" lon="7.28987">
        <ele>886.9</ele>
        <time>2021-08-03T13:06:20Z</time>
      </trkpt>
      <trkpt lat="48.40511" lon="7.29025">
        <ele>883.2</ele>
        <time>2021-08-03T13:06:22Z</time>
      </trkpt>
      <trkpt lat="48.40509" lon="7.29048">
        <ele>881.4</ele>
        <time>2021-08-03T13:06:24Z</time>
      </trkpt>
      <trkpt lat="48.4051" lon="7.29058">
        <ele>880.5</ele>
        <time>2021-08-03T13:06:25Z</time>
      </trkpt>
      <trkpt lat="48.40512" lon="7.29077">
        <ele>878.9</ele>
        <time>2021-08-03T13:06:27Z</time>
      </trkpt>
      <trkpt lat="48.40514" lon="7.29085">
        <ele>878.2</ele>
        <time>2021-08-03T13:06:28Z</time>
      </trkpt>
      <trkpt lat="48.40517" lon="7.29092">
        <ele>877.6</ele>
        <time>2021-08-03T13:06:29Z</time>
      </trkpt>
      <trkpt lat="48.40516" lon="7.29102">
        <ele>876.7</ele>
        <time>2021-08-03T13:06:30Z</time>
      </trkpt>
      <trkpt lat="48.40514" lon="7.29115">
        <ele>875.7</ele>
        <time>2021-08-03T13:06:31Z</time>
      </trkpt>
      <trkpt lat="48.40511" lon="7.29127">
        <ele>874.6</ele>
        <time>2021-08-03T13:06:32Z</time>
      </trkpt>
      <trkpt lat="48.40507" lon="7.2914">
        <ele>873.4</ele>
        <time>2021-08-03T13:06:33Z</time>
      </trkpt>
      <trkpt lat="48.40502" lon="7.29162">
        <ele>871.5</ele>
        <time>2021-08-03T13:06:35Z</time>
      </trkpt>
      <trkpt lat="48.40502" lon="7.2917">
        <ele>870.9</ele>
        <time>2021-08-03T13:06:36Z</time>
      </trkpt>
      <trkpt lat="48.40499" lon="7.29184">
        <ele>869.6</ele>
        <time>2021-08-03T13:06:38Z</time>
      </trkpt>
      <trkpt lat="48.40494" lon="7.29202">
        <ele>868</ele>
        <time>2021-08-03T13:06:40Z</time>
      </trkpt>
      <trkpt lat="48.4049" lon="7.29224">
        <ele>865.5</ele>
        <time>2021-08-03T13:06:42Z</time>
      </trkpt>
      <trkpt lat="48.40492" lon="7.29236">
        <ele>865.4</ele>
        <time>2021-08-03T13:06:43Z</time>
      </trkpt>
      <trkpt lat="48.40493" lon="7.29242">
        <ele>865.5</ele>
        <time>2021-08-03T13:06:45Z</time>
      </trkpt>
      <trkpt lat="48.40492" lon="7.2925">
        <ele>865.1</ele>
        <time>2021-08-03T13:06:46Z</time>
      </trkpt>
      <trkpt lat="48.40486" lon="7.29267">
        <ele>862.9</ele>
        <time>2021-08-03T13:06:47Z</time>
      </trkpt>
      <trkpt lat="48.40484" lon="7.29279">
        <ele>861.7</ele>
        <time>2021-08-03T13:06:48Z</time>
      </trkpt>
      <trkpt lat="48.4048" lon="7.29293">
        <ele>860.5</ele>
        <time>2021-08-03T13:06:49Z</time>
      </trkpt>
      <trkpt lat="48.40476" lon="7.29306">
        <ele>858.6</ele>
        <time>2021-08-03T13:06:50Z</time>
      </trkpt>
      <trkpt lat="48.40475" lon="7.29325">
        <ele>857.1</ele>
        <time>2021-08-03T13:06:52Z</time>
      </trkpt>
      <trkpt lat="48.40474" lon="7.29331">
        <ele>857.1</ele>
        <time>2021-08-03T13:06:53Z</time>
      </trkpt>
      <trkpt lat="48.40473" lon="7.29336">
        <ele>856.5</ele>
        <time>2021-08-03T13:06:54Z</time>
      </trkpt>
      <trkpt lat="48.40474" lon="7.29343">
        <ele>856.7</ele>
        <time>2021-08-03T13:06:55Z</time>
      </trkpt>
      <trkpt lat="48.40474" lon="7.29349">
        <ele>856.7</ele>
        <time>2021-08-03T13:06:56Z</time>
      </trkpt>
      <trkpt lat="48.40475" lon="7.29354">
        <ele>856.8</ele>
        <time>2021-08-03T13:06:57Z</time>
      </trkpt>
      <trkpt lat="48.40472" lon="7.2936">
        <ele>856</ele>
        <time>2021-08-03T13:06:59Z</time>
      </trkpt>
      <trkpt lat="48.4047" lon="7.29363">
        <ele>855.9</ele>
        <time>2021-08-03T13:07:00Z</time>
      </trkpt>
      <trkpt lat="48.40469" lon="7.29367">
        <ele>856</ele>
        <time>2021-08-03T13:07:01Z</time>
      </trkpt>
      <trkpt lat="48.40465" lon="7.29374">
        <ele>855.3</ele>
        <time>2021-08-03T13:07:03Z</time>
      </trkpt>
      <trkpt lat="48.40457" lon="7.29383">
        <ele>854.1</ele>
        <time>2021-08-03T13:07:04Z</time>
      </trkpt>
      <trkpt lat="48.40452" lon="7.29391">
        <ele>853.2</ele>
        <time>2021-08-03T13:07:05Z</time>
      </trkpt>
      <trkpt lat="48.40435" lon="7.29415">
        <ele>850.1</ele>
        <time>2021-08-03T13:07:07Z</time>
      </trkpt>
      <trkpt lat="48.40428" lon="7.29424">
        <ele>848.8</ele>
        <time>2021-08-03T13:07:09Z</time>
      </trkpt>
      <trkpt lat="48.40419" lon="7.29439">
        <ele>847.6</ele>
        <time>2021-08-03T13:07:10Z</time>
      </trkpt>
      <trkpt lat="48.40413" lon="7.29447">
        <ele>846.1</ele>
        <time>2021-08-03T13:07:11Z</time>
      </trkpt>
      <trkpt lat="48.40406" lon="7.29454">
        <ele>845</ele>
        <time>2021-08-03T13:07:12Z</time>
      </trkpt>
      <trkpt lat="48.40396" lon="7.29466">
        <ele>843.2</ele>
        <time>2021-08-03T13:07:14Z</time>
      </trkpt>
      <trkpt lat="48.40392" lon="7.2947">
        <ele>842.7</ele>
        <time>2021-08-03T13:07:15Z</time>
      </trkpt>
      <trkpt lat="48.40385" lon="7.29476">
        <ele>841.4</ele>
        <time>2021-08-03T13:07:17Z</time>
      </trkpt>
      <trkpt lat="48.40381" lon="7.2948">
        <ele>840.6</ele>
        <time>2021-08-03T13:07:18Z</time>
      </trkpt>
      <trkpt lat="48.40374" lon="7.29486">
        <ele>839.8</ele>
        <time>2021-08-03T13:07:20Z</time>
      </trkpt>
      <trkpt lat="48.40365" lon="7.29488">
        <ele>838.2</ele>
        <time>2021-08-03T13:07:22Z</time>
      </trkpt>
      <trkpt lat="48.40357" lon="7.29492">
        <ele>837.6</ele>
        <time>2021-08-03T13:07:23Z</time>
      </trkpt>
      <trkpt lat="48.40348" lon="7.29501">
        <ele>836.1</ele>
        <time>2021-08-03T13:07:25Z</time>
      </trkpt>
      <trkpt lat="48.40345" lon="7.29503">
        <ele>835.5</ele>
        <time>2021-08-03T13:07:26Z</time>
      </trkpt>
      <trkpt lat="48.40341" lon="7.29508">
        <ele>835.3</ele>
        <time>2021-08-03T13:07:28Z</time>
      </trkpt>
      <trkpt lat="48.40338" lon="7.2951">
        <ele>835.1</ele>
        <time>2021-08-03T13:07:29Z</time>
      </trkpt>
      <trkpt lat="48.40336" lon="7.29512">
        <ele>835</ele>
        <time>2021-08-03T13:07:30Z</time>
      </trkpt>
      <trkpt lat="48.40333" lon="7.29514">
        <ele>834.7</ele>
        <time>2021-08-03T13:07:31Z</time>
      </trkpt>
      <trkpt lat="48.4033" lon="7.29515">
        <ele>834.6</ele>
        <time>2021-08-03T13:07:33Z</time>
      </trkpt>
      <trkpt lat="48.40328" lon="7.29515">
        <ele>834.4</ele>
        <time>2021-08-03T13:07:34Z</time>
      </trkpt>
      <trkpt lat="48.40326" lon="7.29515">
        <ele>834.1</ele>
        <time>2021-08-03T13:07:35Z</time>
      </trkpt>
      <trkpt lat="48.40056" lon="7.30139">
        <ele>729.8</ele>
        <time>2021-08-03T13:11:37Z</time>
      </trkpt>
      <trkpt lat="48.40055" lon="7.30144">
        <ele>729.8</ele>
        <time>2021-08-03T13:11:38Z</time>
      </trkpt>
      <trkpt lat="48.40051" lon="7.30161">
        <ele>729.8</ele>
        <time>2021-08-03T13:11:40Z</time>
      </trkpt>
      <trkpt lat="48.40053" lon="7.30165">
        <ele>730.1</ele>
        <time>2021-08-03T13:11:41Z</time>
      </trkpt>
      <trkpt lat="48.40058" lon="7.30167">
        <ele>730.2</ele>
        <time>2021-08-03T13:11:43Z</time>
      </trkpt>
      <trkpt lat="48.40058" lon="7.30167">
        <ele>730.2</ele>
        <time>2021-08-03T13:11:45Z</time>
      </trkpt>
      <trkpt lat="48.40058" lon="7.30167">
        <ele>730.2</ele>
        <time>2021-08-03T13:11:47Z</time>
      </trkpt>
      <trkpt lat="48.40058" lon="7.30167">
        <ele>730.2</ele>
        <time>2021-08-03T13:11:48Z</time>
      </trkpt>
      <trkpt lat="48.40164" lon="7.30225">
        <ele>725.1</ele>
        <time>2021-08-03T13:14:59Z</time>
      </trkpt>
      <trkpt lat="48.40166" lon="7.30233">
        <ele>725</ele>
        <time>2021-08-03T13:15:01Z</time>
      </trkpt>
      <trkpt lat="48.40167" lon="7.30237">
        <ele>725</ele>
        <time>2021-08-03T13:15:02Z</time>
      </trkpt>
      <trkpt lat="48.4017" lon="7.30244">
        <ele>724.9</ele>
        <time>2021-08-03T13:15:04Z</time>
      </trkpt>
      <trkpt lat="48.40172" lon="7.3025">
        <ele>724.8</ele>
        <time>2021-08-03T13:15:05Z</time>
      </trkpt>
      <trkpt lat="48.40174" lon="7.3026">
        <ele>724.7</ele>
        <time>2021-08-03T13:15:07Z</time>
      </trkpt>
      <trkpt lat="48.40176" lon="7.30272">
        <ele>724.7</ele>
        <time>2021-08-03T13:15:08Z</time>
      </trkpt>
      <trkpt lat="48.40178" lon="7.3028">
        <ele>724.7</ele>
        <time>2021-08-03T13:15:09Z</time>
      </trkpt>
      <trkpt lat="48.40181" lon="7.30285">
        <ele>724.6</ele>
        <time>2021-08-03T13:15:10Z</time>
      </trkpt>
      <trkpt lat="48.40185" lon="7.30292">
        <ele>724.6</ele>
        <time>2021-08-03T13:15:12Z</time>
      </trkpt>
      <trkpt lat="48.40187" lon="7.30295">
        <ele>724.6</ele>
        <time>2021-08-03T13:15:13Z</time>
      </trkpt>
      <trkpt lat="48.40188" lon="7.30296">
        <ele>724.6</ele>
        <time>2021-08-03T13:15:14Z</time>
      </trkpt>
      <trkpt lat="48.40188" lon="7.30297">
        <ele>724.6</ele>
        <time>2021-08-03T13:15:15Z</time>
      </trkpt>
      <trkpt lat="48.4057" lon="7.30727">
        <ele>718.1</ele>
        <time>2021-08-03T13:18:13Z</time>
      </trkpt>
      <trkpt lat="48.40591" lon="7.30729">
        <ele>718.3</ele>
        <time>2021-08-03T13:18:15Z</time>
      </trkpt>
      <trkpt lat="48.406" lon="7.3073">
        <ele>718.3</ele>
        <time>2021-08-03T13:18:16Z</time>
      </trkpt>
      <trkpt lat="48.40609" lon="7.30731">
        <ele>718.2</ele>
        <time>2021-08-03T13:18:17Z</time>
      </trkpt>
      <trkpt lat="48.40617" lon="7.3073">
        <ele>718.1</ele>
        <time>2021-08-03T13:18:18Z</time>
      </trkpt>
      <trkpt lat="48.40628" lon="7.30731">
        <ele>718</ele>
        <time>2021-08-03T13:18:20Z</time>
      </trkpt>
      <trkpt lat="48.40632" lon="7.30735">
        <ele>717.9</ele>
        <time>2021-08-03T13:18:22Z</time>
      </trkpt>
      <trkpt lat="48.40638" lon="7.30737">
        <ele>717.9</ele>
        <time>2021-08-03T13:18:24Z</time>
      </trkpt>
      <trkpt lat="48.40642" lon="7.30739">
        <ele>717.9</ele>
        <time>2021-08-03T13:18:25Z</time>
      </trkpt>
      <trkpt lat="48.40646" lon="7.30741">
        <ele>717.9</ele>
        <time>2021-08-03T13:18:26Z</time>
      </trkpt>
      <trkpt lat="48.40658" lon="7.30746">
        <ele>717.8</ele>
        <time>2021-08-03T13:18:28Z</time>
      </trkpt>
      <trkpt lat="48.40662" lon="7.30749">
        <ele>718.5</ele>
        <time>2021-08-03T13:18:29Z</time>
      </trkpt>
      <trkpt lat="48.4067" lon="7.30755">
        <ele>717</ele>
        <time>2021-08-03T13:18:31Z</time>
      </trkpt>
      <trkpt lat="48.40419" lon="7.31185">
        <ele>661</ele>
        <time>2021-08-03T13:21:59Z</time>
      </trkpt>
      <trkpt lat="48.40418" lon="7.31192">
        <ele>661.1</ele>
        <time>2021-08-03T13:22:00Z</time>
      </trkpt>
      <trkpt lat="48.40416" lon="7.31206">
        <ele>660.3</ele>
        <time>2021-08-03T13:22:01Z</time>
      </trkpt>
      <trkpt lat="48.40417" lon="7.31213">
        <ele>661.5</ele>
        <time>2021-08-03T13:22:03Z</time>
      </trkpt>
      <trkpt lat="48.40417" lon="7.31215">
        <ele>661.9</ele>
        <time>2021-08-03T13:22:04Z</time>
      </trkpt>
      <trkpt lat="48.40418" lon="7.31217">
        <ele>662.3</ele>
        <time>2021-08-03T13:22:06Z</time>
      </trkpt>
      <trkpt lat="48.40418" lon="7.31218">
        <ele>662.7</ele>
        <time>2021-08-03T13:22:07Z</time>
      </trkpt>
      <trkpt lat="48.40419" lon="7.31219">
        <ele>663.1</ele>
        <time>2021-08-03T13:22:08Z</time>
      </trkpt>
      <trkpt lat="48.4042" lon="7.31223">
        <ele>664.4</ele>
        <time>2021-08-03T13:22:10Z</time>
      </trkpt>
      <trkpt lat="48.40422" lon="7.31225">
        <ele>664.8</ele>
        <time>2021-08-03T13:22:11Z</time>
      </trkpt>
      <trkpt lat="48.40422" lon="7.31226">
        <ele>666.2</ele>
        <time>2021-08-03T13:22:12Z</time>
      </trkpt>
      <trkpt lat="48.40422" lon="7.31227">
        <ele>666.7</ele>
        <time>2021-08-03T13:22:13Z</time>
      </trkpt>
      <trkpt lat="48.40422" lon="7.31228">
        <ele>667.1</ele>
        <time>2021-08-03T13:22:14Z</time>
      </trkpt>
      <trkpt lat="48.40422" lon="7.3123">
        <ele>667.5</ele>
        <time>2021-08-03T13:22:16Z</time>
      </trkpt>
      <trkpt lat="48.40422" lon="7.31231">
        <ele>667.9</ele>
        <time>2021-08-03T13:22:17Z</time>
      </trkpt>
      <trkpt lat="48.40422" lon="7.31233">
        <ele>667.2</ele>
        <time>2021-08-03T13:22:19Z</time>
      </trkpt>
      <trkpt lat="48.40422" lon="7.31233">
        <ele>667.6</ele>
        <time>2021-08-03T13:22:20Z</time>
      </trkpt>
      <trkpt lat="48.40661" lon="7.32344">
        <ele>622</ele>
        <time>2021-08-03T13:25:55Z</time>
      </trkpt>
      <trkpt lat="48.40656" lon="7.32346">
        <ele>622.2</ele>
        <time>2021-08-03T13:25:57Z</time>
      </trkpt>
      <trkpt lat="48.40654" lon="7.32345">
        <ele>622.5</ele>
        <time>2021-08-03T13:25:59Z</time>
      </trkpt>
      <trkpt lat="48.40652" lon="7.32345">
        <ele>622.7</ele>
        <time>2021-08-03T13:26:00Z</time>
      </trkpt>
      <trkpt lat="48.40651" lon="7.32345">
        <ele>623.1</ele>
        <time>2021-08-03T13:26:02Z</time>
      </trkpt>
      <trkpt lat="48.4065" lon="7.32346">
        <ele>622.9</ele>
        <time>2021-08-03T13:26:04Z</time>
      </trkpt>
      <trkpt lat="48.40649" lon="7.32346">
        <ele>622.8</ele>
        <time>2021-08-03T13:26:05Z</time>
      </trkpt>
      <trkpt lat="48.40647" lon="7.32347">
        <ele>622.7</ele>
        <time>2021-08-03T13:26:07Z</time>
      </trkpt>
      <trkpt lat="48.40646" lon="7.32347">
        <ele>622.6</ele>
        <time>2021-08-03T13:26:08Z</time>
      </trkpt>
      <trkpt lat="48.40646" lon="7.32347">
        <ele>622.6</ele>
        <time>2021-08-03T13:26:09Z</time>
      </trkpt>
      <trkpt lat="48.40645" lon="7.32347">
        <ele>622.5</ele>
        <time>2021-08-03T13:26:11Z</time>
      </trkpt>
      <trkpt lat="48.40645" lon="7.32347">
        <ele>622.5</ele>
        <time>2021-08-03T13:26:12Z</time>
      </trkpt>
      <trkpt lat="48.40645" lon="7.32347">
        <ele>622.5</ele>
        <time>2021-08-03T13:26:14Z</time>
      </trkpt>
      <trkpt lat="48.40645" lon="7.32347">
        <ele>622.5</ele>
        <time>2021-08-03T13:26:15Z</time>
      </trkpt>
      <trkpt lat="48.40644" lon="7.32348">
        <ele>622.4</ele>
        <time>2021-08-03T13:26:17Z</time>
      </trkpt>
      <trkpt lat="48.40643" lon="7.32348">
        <ele>622.4</ele>
        <time>2021-08-03T13:26:18Z</time>
      </trkpt>
      <trkpt lat="48.40642" lon="7.32349">
        <ele>622.3</ele>
        <time>2021-08-03T13:26:19Z</time>
      </trkpt>
      <trkpt lat="48.4064" lon="7.32351">
        <ele>622.1</ele>
        <time>2021-08-03T13:26:21Z</time>
      </trkpt>
      <trkpt lat="48.40627" lon="7.32358">
        <ele>621.2</ele>
        <time>2021-08-03T13:26:23Z</time>
      </trkpt>
      <trkpt lat="48.40611" lon="7.32368">
        <ele>621.4</ele>
        <time>2021-08-03T13:26:25Z</time>
      </trkpt>
      <trkpt lat="48.40604" lon="7.32375">
        <ele>621.5</ele>
        <time>2021-08-03T13:26:27Z</time>
      </trkpt>
      <trkpt lat="48.40603" lon="7.32376">
        <ele>621.6</ele>
        <time>2021-08-03T13:26:28Z</time>
      </trkpt>
      <trkpt lat="48.406" lon="7.3238">
        <ele>621.6</ele>
        <time>2021-08-03T13:26:30Z</time>
      </trkpt>
      <trkpt lat="48.40596" lon="7.32388">
        <ele>621.5</ele>
        <time>2021-08-03T13:26:31Z</time>
      </trkpt>
      <trkpt lat="48.40594" lon="7.32393">
        <ele>621.3</ele>
        <time>2021-08-03T13:26:33Z</time>
      </trkpt>
      <trkpt lat="48.40592" lon="7.32397">
        <ele>621.1</ele>
        <time>2021-08-03T13:26:34Z</time>
      </trkpt>
      <trkpt lat="48.40585" lon="7.3241">
        <ele>620.6</ele>
        <time>2021-08-03T13:26:36Z</time>
      </trkpt>
      <trkpt lat="48.40582" lon="7.32414">
        <ele>620.5</ele>
        <time>2021-08-03T13:26:37Z</time>
      </trkpt>
      <trkpt lat="48.40579" lon="7.32418">
        <ele>620.3</ele>
        <time>2021-08-03T13:26:39Z</time>
      </trkpt>
      <trkpt lat="48.40577" lon="7.32421">
        <ele>620.2</ele>
        <time>2021-08-03T13:26:40Z</time>
      </trkpt>
      <trkpt lat="48.40576" lon="7.32422">
        <ele>620.1</ele>
        <time>2021-08-03T13:26:41Z</time>
      </trkpt>
      <trkpt lat="48.40573" lon="7.32425">
        <ele>620</ele>
        <time>2021-08-03T13:26:43Z</time>
      </trkpt>
      <trkpt lat="48.40571" lon="7.32427">
        <ele>619.9</ele>
        <time>2021-08-03T13:26:44Z</time>
      </trkpt>
      <trkpt lat="48.40569" lon="7.32428">
        <ele>619.9</ele>
        <time>2021-08-03T13:26:45Z</time>
      </trkpt>
      <trkpt lat="48.40565" lon="7.3243">
        <ele>619.7</ele>
        <time>2021-08-03T13:26:46Z</time>
      </trkpt>
      <trkpt lat="48.40562" lon="7.32434">
        <ele>619.5</ele>
        <time>2021-08-03T13:26:47Z</time>
      </trkpt>
      <trkpt lat="48.40557" lon="7.32437">
        <ele>619.3</ele>
        <time>2021-08-03T13:26:48Z</time>
      </trkpt>
      <trkpt lat="48.40554" lon="7.32442">
        <ele>619.1</ele>
        <time>2021-08-03T13:26:49Z</time>
      </trkpt>
      <trkpt lat="48.40551" lon="7.32447">
        <ele>618.9</ele>
        <time>2021-08-03T13:26:50Z</time>
      </trkpt>
      <trkpt lat="48.40547" lon="7.32453">
        <ele>618.6</ele>
        <time>2021-08-03T13:26:52Z</time>
      </trkpt>
      <trkpt lat="48.40542" lon="7.32462">
        <ele>618.2</ele>
        <time>2021-08-03T13:26:53Z</time>
      </trkpt>
      <trkpt lat="48.40537" lon="7.32474">
        <ele>617.6</ele>
        <time>2021-08-03T13:26:55Z</time>
      </trkpt>
      <trkpt lat="48.40533" lon="7.32484">
        <ele>617.2</ele>
        <time>2021-08-03T13:26:56Z</time>
      </trkpt>
      <trkpt lat="48.4053" lon="7.32493">
        <ele>616.8</ele>
        <time>2021-08-03T13:26:57Z</time>
      </trkpt>
      <trkpt lat="48.40524" lon="7.32511">
        <ele>615.9</ele>
        <time>2021-08-03T13:26:59Z</time>
      </trkpt>
      <trkpt lat="48.40522" lon="7.32519">
        <ele>615.6</ele>
        <time>2021-08-03T13:27:00Z</time>
      </trkpt>
      <trkpt lat="48.40518" lon="7.32529">
        <ele>615</ele>
        <time>2021-08-03T13:27:02Z</time>
      </trkpt>
      <trkpt lat="48.40514" lon="7.32533">
        <ele>614.7</ele>
        <time>2021-08-03T13:27:03Z</time>
      </trkpt>
      <trkpt lat="48.40507" lon="7.32539">
        <ele>613.8</ele>
        <time>2021-08-03T13:27:05Z</time>
      </trkpt>
      <trkpt lat="48.40499" lon="7.32546">
        <ele>612.7</ele>
        <time>2021-08-03T13:27:06Z</time>
      </trkpt>
      <trkpt lat="48.40489" lon="7.32557">
        <ele>610.9</ele>
        <time>2021-08-03T13:27:08Z</time>
      </trkpt>
      <trkpt lat="48.40479" lon="7.32565">
        <ele>609.1</ele>
        <time>2021-08-03T13:27:10Z</time>
      </trkpt>
      <trkpt lat="48.40474" lon="7.32567">
        <ele>608.1</ele>
        <time>2021-08-03T13:27:11Z</time>
      </trkpt>
      <trkpt lat="48.40469" lon="7.32571">
        <ele>607.2</ele>
        <time>2021-08-03T13:27:12Z</time>
      </trkpt>
      <trkpt lat="48.40459" lon="7.3258">
        <ele>605.3</ele>
        <time>2021-08-03T13:27:14Z</time>
      </trkpt>
      <trkpt lat="48.4045" lon="7.32586">
        <ele>603.8</ele>
        <time>2021-08-03T13:27:16Z</time>
      </trkpt>
      <trkpt lat="48.40447" lon="7.32591">
        <ele>603</ele>
        <time>2021-08-03T13:27:17Z</time>
      </trkpt>
      <trkpt lat="48.40444" lon="7.32595">
        <ele>602.4</ele>
        <time>2021-08-03T13:27:18Z</time>
      </trkpt>
      <trkpt lat="48.40438" lon="7.32599">
        <ele>601.4</ele>
        <time>2021-08-03T13:27:20Z</time>
      </trkpt>
      <trkpt lat="48.4043" lon="7.32605">
        <ele>599.9</ele>
        <time>2021-08-03T13:27:22Z</time>
      </trkpt>
      <trkpt lat="48.40427" lon="7.32605">
        <ele>599.5</ele>
        <time>2021-08-03T13:27:23Z</time>
      </trkpt>
      <trkpt lat="48.40424" lon="7.32606">
        <ele>599.2</ele>
        <time>2021-08-03T13:27:24Z</time>
      </trkpt>
      <trkpt lat="48.40422" lon="7.32609">
        <ele>598.7</ele>
        <time>2021-08-03T13:27:26Z</time>
      </trkpt>
      <trkpt lat="48.40419" lon="7.32612">
        <ele>598.2</ele>
        <time>2021-08-03T13:27:27Z</time>
      </trkpt>
      <trkpt lat="48.40414" lon="7.3262">
        <ele>597.2</ele>
        <time>2021-08-03T13:27:28Z</time>
      </trkpt>
      <trkpt lat="48.40411" lon="7.32625">
        <ele>596.7</ele>
        <time>2021-08-03T13:27:29Z</time>
      </trkpt>
      <trkpt lat="48.40408" lon="7.3263">
        <ele>596.2</ele>
        <time>2021-08-03T13:27:30Z</time>
      </trkpt>
      <trkpt lat="48.40407" lon="7.32632">
        <ele>596</ele>
        <time>2021-08-03T13:27:31Z</time>
      </trkpt>
      <trkpt lat="48.40406" lon="7.32639">
        <ele>595.4</ele>
        <time>2021-08-03T13:27:32Z</time>
      </trkpt>
      <trkpt lat="48.40411" lon="7.32661">
        <ele>593.7</ele>
        <time>2021-08-03T13:27:34Z</time>
      </trkpt>
      <trkpt lat="48.40416" lon="7.32682">
        <ele>592.2</ele>
        <time>2021-08-03T13:27:36Z</time>
      </trkpt>
      <trkpt lat="48.4042" lon="7.32703">
        <ele>590.8</ele>
        <time>2021-08-03T13:27:38Z</time>
      </trkpt>
      <trkpt lat="48.40423" lon="7.32721">
        <ele>589.5</ele>
        <time>2021-08-03T13:27:40Z</time>
      </trkpt>
      <trkpt lat="48.40424" lon="7.32731">
        <ele>588.8</ele>
        <time>2021-08-03T13:27:41Z</time>
      </trkpt>
      <trkpt lat="48.40425" lon="7.32739">
        <ele>587.9</ele>
        <time>2021-08-03T13:27:42Z</time>
      </trkpt>
      <trkpt lat="48.40427" lon="7.32748">
        <ele>586.9</ele>
        <time>2021-08-03T13:27:43Z</time>
      </trkpt>
      <trkpt lat="48.40429" lon="7.32756">
        <ele>585.8</ele>
        <time>2021-08-03T13:27:44Z</time>
      </trkpt>
      <trkpt lat="48.40431" lon="7.32774">
        <ele>583.1</ele>
        <time>2021-08-03T13:27:46Z</time>
      </trkpt>
      <trkpt lat="48.40432" lon="7.32783">
        <ele>581.7</ele>
        <time>2021-08-03T13:27:47Z</time>
      </trkpt>
      <trkpt lat="48.40434" lon="7.32795">
        <ele>579.8</ele>
        <time>2021-08-03T13:27:49Z</time>
      </trkpt>
      <trkpt lat="48.40435" lon="7.32799">
        <ele>579.1</ele>
        <time>2021-08-03T13:27:50Z</time>
      </trkpt>
      <trkpt lat="48.40437" lon="7.32806">
        <ele>578.1</ele>
        <time>2021-08-03T13:27:52Z</time>
      </trkpt>
      <trkpt lat="48.40437" lon="7.32815">
        <ele>577</ele>
        <time>2021-08-03T13:27:54Z</time>
      </trkpt>
      <trkpt lat="48.40433" lon="7.32818">
        <ele>576.3</ele>
        <time>2021-08-03T13:27:55Z</time>
      </trkpt>
      <trkpt lat="48.40431" lon="7.32826">
        <ele>575.4</ele>
        <time>2021-08-03T13:27:57Z</time>
      </trkpt>
      <trkpt lat="48.40432" lon="7.32827">
        <ele>575.2</ele>
        <time>2021-08-03T13:27:58Z</time>
      </trkpt>
      <trkpt lat="48.40432" lon="7.32828">
        <ele>575.1</ele>
        <time>2021-08-03T13:28:00Z</time>
      </trkpt>
      <trkpt lat="48.40433" lon="7.32829">
        <ele>574.9</ele>
        <time>2021-08-03T13:28:02Z</time>
      </trkpt>
      <trkpt lat="48.40433" lon="7.32829">
        <ele>574.9</ele>
        <time>2021-08-03T13:28:03Z</time>
      </trkpt>
      <trkpt lat="48.40433" lon="7.3283">
        <ele>574.8</ele>
        <time>2021-08-03T13:28:05Z</time>
      </trkpt>
      <trkpt lat="48.40432" lon="7.3283">
        <ele>574.7</ele>
        <time>2021-08-03T13:28:06Z</time>
      </trkpt>
      <trkpt lat="48.40432" lon="7.3283">
        <ele>574.6</ele>
        <time>2021-08-03T13:28:07Z</time>
      </trkpt>
      <trkpt lat="48.4042" lon="7.32851">
        <ele>572.1</ele>
        <time>2021-08-03T13:28:38Z</time>
      </trkpt>
      <trkpt lat="48.40424" lon="7.32855">
        <ele>570.4</ele>
        <time>2021-08-03T13:28:40Z</time>
      </trkpt>
      <trkpt lat="48.40424" lon="7.32858">
        <ele>570.4</ele>
        <time>2021-08-03T13:28:41Z</time>
      </trkpt>
      <trkpt lat="48.40426" lon="7.32864">
        <ele>570.4</ele>
        <time>2021-08-03T13:28:43Z</time>
      </trkpt>
      <trkpt lat="48.40428" lon="7.32868">
        <ele>570.2</ele>
        <time>2021-08-03T13:28:44Z</time>
      </trkpt>
      <trkpt lat="48.40428" lon="7.32871">
        <ele>570.2</ele>
        <time>2021-08-03T13:28:46Z</time>
      </trkpt>
      <trkpt lat="48.40426" lon="7.32876">
        <ele>570.2</ele>
        <time>2021-08-03T13:28:48Z</time>
      </trkpt>
      <trkpt lat="48.40427" lon="7.32881">
        <ele>570.1</ele>
        <time>2021-08-03T13:28:49Z</time>
      </trkpt>
      <trkpt lat="48.40428" lon="7.32882">
        <ele>570.1</ele>
        <time>2021-08-03T13:28:50Z</time>
      </trkpt>
      <trkpt lat="48.40429" lon="7.32888">
        <ele>570.1</ele>
        <time>2021-08-03T13:28:52Z</time>
      </trkpt>
      <trkpt lat="48.4043" lon="7.32895">
        <ele>570.1</ele>
        <time>2021-08-03T13:28:53Z</time>
      </trkpt>
      <trkpt lat="48.40433" lon="7.32901">
        <ele>570</ele>
        <time>2021-08-03T13:28:55Z</time>
      </trkpt>
      <trkpt lat="48.40433" lon="7.32903">
        <ele>570</ele>
        <time>2021-08-03T13:28:56Z</time>
      </trkpt>
      <trkpt lat="48.40434" lon="7.32904">
        <ele>570</ele>
        <time>2021-08-03T13:28:57Z</time>
      </trkpt>
      <trkpt lat="48.40434" lon="7.32904">
        <ele>570</ele>
        <time>2021-08-03T13:28:58Z</time>
      </trkpt>
      <trkpt lat="48.40434" lon="7.32903">
        <ele>570</ele>
        <time>2021-08-03T13:29:00Z</time>
      </trkpt>
      <trkpt lat="48.40434" lon="7.32904">
        <ele>570</ele>
        <time>2021-08-03T13:29:01Z</time>
      </trkpt>
      <trkpt lat="48.40434" lon="7.32904">
        <ele>570</ele>
        <time>2021-08-03T13:29:02Z</time>
      </trkpt>
      <trkpt lat="48.40433" lon="7.32904">
        <ele>570</ele>
        <time>2021-08-03T13:29:04Z</time>
      </trkpt>
      <trkpt lat="48.40433" lon="7.32904">
        <ele>570</ele>
        <time>2021-08-03T13:29:05Z</time>
      </trkpt>
      <trkpt lat="48.40433" lon="7.32904">
        <ele>570</ele>
        <time>2021-08-03T13:29:06Z</time>
      </trkpt>
      <trkpt lat="48.40433" lon="7.32904">
        <ele>570</ele>
        <time>2021-08-03T13:29:07Z</time>
      </trkpt>
      <trkpt lat="48.4043" lon="7.32891">
        <ele>569.9</ele>
        <time>2021-08-03T13:29:50Z</time>
      </trkpt>
      <trkpt lat="48.40425" lon="7.32882">
        <ele>569.9</ele>
        <time>2021-08-03T13:29:55Z</time>
      </trkpt>
      <trkpt lat="48.40419" lon="7.3287">
        <ele>569.8</ele>
        <time>2021-08-03T13:30:01Z</time>
      </trkpt>
      <trkpt lat="48.40415" lon="7.32865">
        <ele>569.8</ele>
        <time>2021-08-03T13:30:08Z</time>
      </trkpt>
      <trkpt lat="48.40417" lon="7.3287">
        <ele>569.8</ele>
        <time>2021-08-03T13:30:21Z</time>
      </trkpt>
      <trkpt lat="48.40417" lon="7.3287">
        <ele>569.8</ele>
        <time>2021-08-03T13:30:27Z</time>
      </trkpt>
      <trkpt lat="48.40416" lon="7.32858">
        <ele>569.7</ele>
        <time>2021-08-03T13:32:20Z</time>
      </trkpt>
      <trkpt lat="48.40417" lon="7.32865">
        <ele>569.7</ele>
        <time>2021-08-03T13:32:26Z</time>
      </trkpt>
      <trkpt lat="48.40418" lon="7.32864">
        <ele>569.7</ele>
        <time>2021-08-03T13:32:32Z</time>
      </trkpt>
      <trkpt lat="48.40418" lon="7.32858">
        <ele>569.7</ele>
        <time>2021-08-03T13:32:39Z</time>
      </trkpt>
      <trkpt lat="48.40416" lon="7.32855">
        <ele>569.7</ele>
        <time>2021-08-03T13:32:40Z</time>
      </trkpt>
      <trkpt lat="48.40415" lon="7.32854">
        <ele>569.6</ele>
        <time>2021-08-03T13:32:42Z</time>
      </trkpt>
      <trkpt lat="48.40415" lon="7.32854">
        <ele>569.6</ele>
        <time>2021-08-03T13:32:44Z</time>
      </trkpt>
      <trkpt lat="48.40415" lon="7.32854">
        <ele>569.6</ele>
        <time>2021-08-03T13:32:45Z</time>
      </trkpt>
      <trkpt lat="48.40417" lon="7.32854">
        <ele>569.6</ele>
        <time>2021-08-03T13:32:47Z</time>
      </trkpt>
      <trkpt lat="48.40417" lon="7.32855">
        <ele>569.6</ele>
        <time>2021-08-03T13:32:48Z</time>
      </trkpt>
      <trkpt lat="48.40418" lon="7.32857">
        <ele>569.6</ele>
        <time>2021-08-03T13:32:49Z</time>
      </trkpt>
      <trkpt lat="48.40421" lon="7.32863">
        <ele>569.6</ele>
        <time>2021-08-03T13:32:51Z</time>
      </trkpt>
      <trkpt lat="48.40423" lon="7.32867">
        <ele>569.6</ele>
        <time>2021-08-03T13:32:52Z</time>
      </trkpt>
      <trkpt lat="48.40417" lon="7.32889">
        <ele>569.5</ele>
        <time>2021-08-03T13:32:54Z</time>
      </trkpt>
      <trkpt lat="48.40409" lon="7.32907">
        <ele>569.5</ele>
        <time>2021-08-03T13:34:28Z</time>
      </trkpt>
      <trkpt lat="48.40402" lon="7.32924">
        <ele>569.2</ele>
        <time>2021-08-03T13:34:29Z</time>
      </trkpt>
      <trkpt lat="48.40399" lon="7.32939">
        <ele>569.1</ele>
        <time>2021-08-03T13:34:31Z</time>
      </trkpt>
      <trkpt lat="48.40395" lon="7.32953">
        <ele>569</ele>
        <time>2021-08-03T13:34:33Z</time>
      </trkpt>
      <trkpt lat="48.40391" lon="7.32963">
        <ele>568.9</ele>
        <time>2021-08-03T13:34:35Z</time>
      </trkpt>
      <trkpt lat="48.40389" lon="7.32967">
        <ele>568.9</ele>
        <time>2021-08-03T13:34:37Z</time>
      </trkpt>
      <trkpt lat="48.40385" lon="7.32967">
        <ele>568.8</ele>
        <time>2021-08-03T13:34:38Z</time>
      </trkpt>
      <trkpt lat="48.4038" lon="7.32964">
        <ele>568.8</ele>
        <time>2021-08-03T13:34:40Z</time>
      </trkpt>
      <trkpt lat="48.40378" lon="7.32957">
        <ele>568.8</ele>
        <time>2021-08-03T13:34:41Z</time>
      </trkpt>
      <trkpt lat="48.40379" lon="7.32951">
        <ele>568.7</ele>
        <time>2021-08-03T13:34:42Z</time>
      </trkpt>
      <trkpt lat="48.40377" lon="7.32943">
        <ele>568.7</ele>
        <time>2021-08-03T13:34:44Z</time>
      </trkpt>
      <trkpt lat="48.40375" lon="7.32943">
        <ele>568.7</ele>
        <time>2021-08-03T13:34:46Z</time>
      </trkpt>
      <trkpt lat="48.40373" lon="7.32944">
        <ele>568.7</ele>
        <time>2021-08-03T13:34:48Z</time>
      </trkpt>
      <trkpt lat="48.40374" lon="7.32943">
        <ele>568.7</ele>
        <time>2021-08-03T13:34:50Z</time>
      </trkpt>
      <trkpt lat="48.40374" lon="7.32944">
        <ele>568.7</ele>
        <time>2021-08-03T13:34:51Z</time>
      </trkpt>
      <trkpt lat="48.40375" lon="7.32944">
        <ele>568.7</ele>
        <time>2021-08-03T13:34:53Z</time>
      </trkpt>
      <trkpt lat="48.40375" lon="7.32946">
        <ele>568.6</ele>
        <time>2021-08-03T13:34:55Z</time>
      </trkpt>
      <trkpt lat="48.40376" lon="7.32947">
        <ele>568.6</ele>
        <time>2021-08-03T13:34:57Z</time>
      </trkpt>
      <trkpt lat="48.40377" lon="7.32977">
        <ele>568.5</ele>
        <time>2021-08-03T13:35:20Z</time>
      </trkpt>
      <trkpt lat="48.40374" lon="7.32981">
        <ele>568.5</ele>
        <time>2021-08-03T13:35:21Z</time>
      </trkpt>
      <trkpt lat="48.40374" lon="7.32981">
        <ele>568.5</ele>
        <time>2021-08-03T13:35:22Z</time>
      </trkpt>
      <trkpt lat="48.40372" lon="7.32982">
        <ele>568.5</ele>
        <time>2021-08-03T13:35:23Z</time>
      </trkpt>
      <trkpt lat="48.40363" lon="7.32992">
        <ele>568.3</ele>
        <time>2021-08-03T13:35:25Z</time>
      </trkpt>
      <trkpt lat="48.4036" lon="7.32997">
        <ele>568</ele>
        <time>2021-08-03T13:35:26Z</time>
      </trkpt>
      <trkpt lat="48.4035" lon="7.3301">
        <ele>566.4</ele>
        <time>2021-08-03T13:35:28Z</time>
      </trkpt>
      <trkpt lat="48.40346" lon="7.33013">
        <ele>565.9</ele>
        <time>2021-08-03T13:35:29Z</time>
      </trkpt>
      <trkpt lat="48.4034" lon="7.33017">
        <ele>565.1</ele>
        <time>2021-08-03T13:35:31Z</time>
      </trkpt>
      <trkpt lat="48.40327" lon="7.33025">
        <ele>563.8</ele>
        <time>2021-08-03T13:35:32Z</time>
      </trkpt>
      <trkpt lat="48.40316" lon="7.33028">
        <ele>563.6</ele>
        <time>2021-08-03T13:35:34Z</time>
      </trkpt>
      <trkpt lat="48.4031" lon="7.33027">
        <ele>563.7</ele>
        <time>2021-08-03T13:35:35Z</time>
      </trkpt>
      <trkpt lat="48.40298" lon="7.33022">
        <ele>564</ele>
        <time>2021-08-03T13:35:37Z</time>
      </trkpt>
      <trkpt lat="48.40293" lon="7.33012">
        <ele>564.2</ele>
        <time>2021-08-03T13:35:39Z</time>
      </trkpt>
      <trkpt lat="48.4029" lon="7.33005">
        <ele>564.4</ele>
        <time>2021-08-03T13:35:40Z</time>
      </trkpt>
      <trkpt lat="48.40284" lon="7.32989">
        <ele>565</ele>
        <time>2021-08-03T13:35:42Z</time>
      </trkpt>
      <trkpt lat="48.40281" lon="7.32987">
        <ele>565.2</ele>
        <time>2021-08-03T13:35:43Z</time>
      </trkpt>
      <trkpt lat="48.40278" lon="7.32984">
        <ele>565.5</ele>
        <time>2021-08-03T13:35:45Z</time>
      </trkpt>
      <trkpt lat="48.40276" lon="7.3298">
        <ele>565.8</ele>
        <time>2021-08-03T13:35:46Z</time>
      </trkpt>
      <trkpt lat="48.40271" lon="7.3297">
        <ele>566.5</ele>
        <time>2021-08-03T13:35:47Z</time>
      </trkpt>
      <trkpt lat="48.4027" lon="7.32969">
        <ele>566.6</ele>
        <time>2021-08-03T13:35:48Z</time>
      </trkpt>
      <trkpt lat="48.40267" lon="7.3296">
        <ele>567.2</ele>
        <time>2021-08-03T13:35:50Z</time>
      </trkpt>
      <trkpt lat="48.40261" lon="7.32953">
        <ele>567.9</ele>
        <time>2021-08-03T13:35:51Z</time>
      </trkpt>
      <trkpt lat="48.40254" lon="7.32943">
        <ele>568.9</ele>
        <time>2021-08-03T13:35:53Z</time>
      </trkpt>
      <trkpt lat="48.4025" lon="7.32937">
        <ele>569.6</ele>
        <time>2021-08-03T13:35:54Z</time>
      </trkpt>
      <trkpt lat="48.40243" lon="7.32933">
        <ele>570.5</ele>
        <time>2021-08-03T13:35:56Z</time>
      </trkpt>
      <trkpt lat="48.40238" lon="7.32932">
        <ele>571.1</ele>
        <time>2021-08-03T13:35:58Z</time>
      </trkpt>
      <trkpt lat="48.40235" lon="7.32934">
        <ele>571.5</ele>
        <time>2021-08-03T13:35:59Z</time>
      </trkpt>
      <trkpt lat="48.40232" lon="7.32935">
        <ele>571.9</ele>
        <time>2021-08-03T13:36:00Z</time>
      </trkpt>
      <trkpt lat="48.40228" lon="7.32935">
        <ele>572.4</ele>
        <time>2021-08-03T13:36:02Z</time>
      </trkpt>
      <trkpt lat="48.40224" lon="7.32936">
        <ele>572.9</ele>
        <time>2021-08-03T13:36:03Z</time>
      </trkpt>
      <trkpt lat="48.40219" lon="7.32938">
        <ele>573.5</ele>
        <time>2021-08-03T13:36:05Z</time>
      </trkpt>
      <trkpt lat="48.40218" lon="7.32941">
        <ele>573.8</ele>
        <time>2021-08-03T13:36:06Z</time>
      </trkpt>
      <trkpt lat="48.40218" lon="7.32945">
        <ele>574.1</ele>
        <time>2021-08-03T13:36:08Z</time>
      </trkpt>
      <trkpt lat="48.40216" lon="7.32949">
        <ele>574.5</ele>
        <time>2021-08-03T13:36:09Z</time>
      </trkpt>
      <trkpt lat="48.40214" lon="7.32952">
        <ele>574.8</ele>
        <time>2021-08-03T13:36:11Z</time>
      </trkpt>
      <trkpt lat="48.40214" lon="7.32953">
        <ele>574.8</ele>
        <time>2021-08-03T13:36:12Z</time>
      </trkpt>
      <trkpt lat="48.40213" lon="7.32953">
        <ele>575</ele>
        <time>2021-08-03T13:36:13Z</time>
      </trkpt>
      <trkpt lat="48.40211" lon="7.32953">
        <ele>575.2</ele>
        <time>2021-08-03T13:36:15Z</time>
      </trkpt>
      <trkpt lat="48.40208" lon="7.32954">
        <ele>575.5</ele>
        <time>2021-08-03T13:36:16Z</time>
      </trkpt>
      <trkpt lat="48.40206" lon="7.32953">
        <ele>575.8</ele>
        <time>2021-08-03T13:36:17Z</time>
      </trkpt>
      <trkpt lat="48.40202" lon="7.3295">
        <ele>576.3</ele>
        <time>2021-08-03T13:36:19Z</time>
      </trkpt>
      <trkpt lat="48.40198" lon="7.32948">
        <ele>576.7</ele>
        <time>2021-08-03T13:36:21Z</time>
      </trkpt>
      <trkpt lat="48.40194" lon="7.32946">
        <ele>577.1</ele>
        <time>2021-08-03T13:36:23Z</time>
      </trkpt>
      <trkpt lat="48.40191" lon="7.32948">
        <ele>577.4</ele>
        <time>2021-08-03T13:36:25Z</time>
      </trkpt>
      <trkpt lat="48.40189" lon="7.32948">
        <ele>577.5</ele>
        <time>2021-08-03T13:36:26Z</time>
      </trkpt>
      <trkpt lat="48.40185" lon="7.32948">
        <ele>577.9</ele>
        <time>2021-08-03T13:36:28Z</time>
      </trkpt>
      <trkpt lat="48.40181" lon="7.32948">
        <ele>578.2</ele>
        <time>2021-08-03T13:36:30Z</time>
      </trkpt>
      <trkpt lat="48.40179" lon="7.32947">
        <ele>578.4</ele>
        <time>2021-08-03T13:36:32Z</time>
      </trkpt>
      <trkpt lat="48.40178" lon="7.32946">
        <ele>578.5</ele>
        <time>2021-08-03T13:36:33Z</time>
      </trkpt>
      <trkpt lat="48.40176" lon="7.32945">
        <ele>578.7</ele>
        <time>2021-08-03T13:36:34Z</time>
      </trkpt>
      <trkpt lat="48.40174" lon="7.32942">
        <ele>578.9</ele>
        <time>2021-08-03T13:36:35Z</time>
      </trkpt>
      <trkpt lat="48.40173" lon="7.32942">
        <ele>579</ele>
        <time>2021-08-03T13:36:36Z</time>
      </trkpt>
      <trkpt lat="48.40171" lon="7.32942">
        <ele>579.1</ele>
        <time>2021-08-03T13:36:37Z</time>
      </trkpt>
      <trkpt lat="48.4017" lon="7.32941">
        <ele>579.2</ele>
        <time>2021-08-03T13:36:38Z</time>
      </trkpt>
      <trkpt lat="48.40169" lon="7.3294">
        <ele>579.3</ele>
        <time>2021-08-03T13:36:39Z</time>
      </trkpt>
      <trkpt lat="48.40167" lon="7.32939">
        <ele>579.5</ele>
        <time>2021-08-03T13:36:40Z</time>
      </trkpt>
      <trkpt lat="48.40166" lon="7.32938">
        <ele>579.6</ele>
        <time>2021-08-03T13:36:41Z</time>
      </trkpt>
      <trkpt lat="48.40164" lon="7.32938">
        <ele>579.7</ele>
        <time>2021-08-03T13:36:42Z</time>
      </trkpt>
      <trkpt lat="48.40162" lon="7.32936">
        <ele>579.9</ele>
        <time>2021-08-03T13:36:43Z</time>
      </trkpt>
      <trkpt lat="48.40159" lon="7.32933">
        <ele>580.1</ele>
        <time>2021-08-03T13:36:45Z</time>
      </trkpt>
      <trkpt lat="48.40156" lon="7.32931">
        <ele>580.3</ele>
        <time>2021-08-03T13:36:46Z</time>
      </trkpt>
      <trkpt lat="48.40155" lon="7.32931">
        <ele>580.4</ele>
        <time>2021-08-03T13:36:47Z</time>
      </trkpt>
      <trkpt lat="48.40152" lon="7.32928">
        <ele>580.6</ele>
        <time>2021-08-03T13:36:49Z</time>
      </trkpt>
      <trkpt lat="48.4015" lon="7.32928">
        <ele>580.7</ele>
        <time>2021-08-03T13:36:51Z</time>
      </trkpt>
      <trkpt lat="48.40148" lon="7.32928">
        <ele>580.8</ele>
        <time>2021-08-03T13:36:52Z</time>
      </trkpt>
      <trkpt lat="48.40146" lon="7.32928">
        <ele>581</ele>
        <time>2021-08-03T13:36:53Z</time>
      </trkpt>
      <trkpt lat="48.40145" lon="7.32929">
        <ele>581.1</ele>
        <time>2021-08-03T13:36:54Z</time>
      </trkpt>
      <trkpt lat="48.40144" lon="7.3293">
        <ele>581.1</ele>
        <time>2021-08-03T13:36:55Z</time>
      </trkpt>
      <trkpt lat="48.40142" lon="7.32931">
        <ele>581.2</ele>
        <time>2021-08-03T13:36:56Z</time>
      </trkpt>
      <trkpt lat="48.40141" lon="7.32931">
        <ele>581.3</ele>
        <time>2021-08-03T13:36:57Z</time>
      </trkpt>
      <trkpt lat="48.40139" lon="7.32931">
        <ele>581.4</ele>
        <time>2021-08-03T13:36:58Z</time>
      </trkpt>
      <trkpt lat="48.40137" lon="7.3293">
        <ele>581.6</ele>
        <time>2021-08-03T13:36:59Z</time>
      </trkpt>
      <trkpt lat="48.40133" lon="7.3293">
        <ele>581.8</ele>
        <time>2021-08-03T13:37:01Z</time>
      </trkpt>
      <trkpt lat="48.40129" lon="7.3293">
        <ele>582.1</ele>
        <time>2021-08-03T13:37:03Z</time>
      </trkpt>
      <trkpt lat="48.40127" lon="7.3293">
        <ele>582.2</ele>
        <time>2021-08-03T13:37:04Z</time>
      </trkpt>
      <trkpt lat="48.40126" lon="7.32931">
        <ele>582.3</ele>
        <time>2021-08-03T13:37:05Z</time>
      </trkpt>
      <trkpt lat="48.40123" lon="7.32932">
        <ele>582.5</ele>
        <time>2021-08-03T13:37:07Z</time>
      </trkpt>
      <trkpt lat="48.40121" lon="7.32934">
        <ele>582.6</ele>
        <time>2021-08-03T13:37:08Z</time>
      </trkpt>
      <trkpt lat="48.40119" lon="7.32936">
        <ele>582.8</ele>
        <time>2021-08-03T13:37:10Z</time>
      </trkpt>
      <trkpt lat="48.40118" lon="7.32936">
        <ele>582.9</ele>
        <time>2021-08-03T13:37:11Z</time>
      </trkpt>
      <trkpt lat="48.40116" lon="7.32936">
        <ele>583</ele>
        <time>2021-08-03T13:37:12Z</time>
      </trkpt>
      <trkpt lat="48.40115" lon="7.32936">
        <ele>583.1</ele>
        <time>2021-08-03T13:37:13Z</time>
      </trkpt>
      <trkpt lat="48.40115" lon="7.32935">
        <ele>583.1</ele>
        <time>2021-08-03T13:37:14Z</time>
      </trkpt>
      <trkpt lat="48.40114" lon="7.32935">
        <ele>583.1</ele>
        <time>2021-08-03T13:37:16Z</time>
      </trkpt>
      <trkpt lat="48.40113" lon="7.32935">
        <ele>583.2</ele>
        <time>2021-08-03T13:37:17Z</time>
      </trkpt>
      <trkpt lat="48.40111" lon="7.32935">
        <ele>583.4</ele>
        <time>2021-08-03T13:37:19Z</time>
      </trkpt>
      <trkpt lat="48.4011" lon="7.32935">
        <ele>583.4</ele>
        <time>2021-08-03T13:37:20Z</time>
      </trkpt>
      <trkpt lat="48.4011" lon="7.32936">
        <ele>583.5</ele>
        <time>2021-08-03T13:37:21Z</time>
      </trkpt>
      <trkpt lat="48.40109" lon="7.32936">
        <ele>583.5</ele>
        <time>2021-08-03T13:37:22Z</time>
      </trkpt>
      <trkpt lat="48.40109" lon="7.32936">
        <ele>583.5</ele>
        <time>2021-08-03T13:37:23Z</time>
      </trkpt>
      <trkpt lat="48.40106" lon="7.32935">
        <ele>583.8</ele>
        <time>2021-08-03T13:37:25Z</time>
      </trkpt>
      <trkpt lat="48.40104" lon="7.32935">
        <ele>583.9</ele>
        <time>2021-08-03T13:37:26Z</time>
      </trkpt>
      <trkpt lat="48.40103" lon="7.32935">
        <ele>584</ele>
        <time>2021-08-03T13:37:27Z</time>
      </trkpt>
      <trkpt lat="48.401" lon="7.32935">
        <ele>584.3</ele>
        <time>2021-08-03T13:37:29Z</time>
      </trkpt>
      <trkpt lat="48.40097" lon="7.32935">
        <ele>584.5</ele>
        <time>2021-08-03T13:37:30Z</time>
      </trkpt>
      <trkpt lat="48.40094" lon="7.32934">
        <ele>584.7</ele>
        <time>2021-08-03T13:37:31Z</time>
      </trkpt>
      <trkpt lat="48.40092" lon="7.32934">
        <ele>584.9</ele>
        <time>2021-08-03T13:37:33Z</time>
      </trkpt>
      <trkpt lat="48.40089" lon="7.32934">
        <ele>585.2</ele>
        <time>2021-08-03T13:37:34Z</time>
      </trkpt>
      <trkpt lat="48.40086" lon="7.32934">
        <ele>585.4</ele>
        <time>2021-08-03T13:37:36Z</time>
      </trkpt>
      <trkpt lat="48.40084" lon="7.32933">
        <ele>585.6</ele>
        <time>2021-08-03T13:37:47Z</time>
      </trkpt>
      <trkpt lat="48.40081" lon="7.32933">
        <ele>585.9</ele>
        <time>2021-08-03T13:37:49Z</time>
      </trkpt>
      <trkpt lat="48.40078" lon="7.32933">
        <ele>586.1</ele>
        <time>2021-08-03T13:37:50Z</time>
      </trkpt>
      <trkpt lat="48.40076" lon="7.32932">
        <ele>586.4</ele>
        <time>2021-08-03T13:37:51Z</time>
      </trkpt>
      <trkpt lat="48.40074" lon="7.32932">
        <ele>586.5</ele>
        <time>2021-08-03T13:37:52Z</time>
      </trkpt>
      <trkpt lat="48.40072" lon="7.32931">
        <ele>586.8</ele>
        <time>2021-08-03T13:37:54Z</time>
      </trkpt>
      <trkpt lat="48.4007" lon="7.3293">
        <ele>587</ele>
        <time>2021-08-03T13:37:55Z</time>
      </trkpt>
      <trkpt lat="48.40066" lon="7.3293">
        <ele>587.3</ele>
        <time>2021-08-03T13:37:57Z</time>
      </trkpt>
      <trkpt lat="48.40066" lon="7.32931">
        <ele>587.3</ele>
        <time>2021-08-03T13:37:58Z</time>
      </trkpt>
      <trkpt lat="48.40066" lon="7.32931">
        <ele>587.3</ele>
        <time>2021-08-03T13:37:59Z</time>
      </trkpt>
      <trkpt lat="48.40065" lon="7.3293">
        <ele>587.4</ele>
        <time>2021-08-03T13:38:01Z</time>
      </trkpt>
      <trkpt lat="48.40065" lon="7.32929">
        <ele>587.5</ele>
        <time>2021-08-03T13:38:02Z</time>
      </trkpt>
      <trkpt lat="48.40064" lon="7.32929">
        <ele>587.5</ele>
        <time>2021-08-03T13:38:03Z</time>
      </trkpt>
      <trkpt lat="48.40064" lon="7.32928">
        <ele>587.6</ele>
        <time>2021-08-03T13:38:04Z</time>
      </trkpt>
      <trkpt lat="48.40059" lon="7.32915">
        <ele>588.5</ele>
        <time>2021-08-03T13:38:06Z</time>
      </trkpt>
      <trkpt lat="48.40054" lon="7.32905">
        <ele>589.3</ele>
        <time>2021-08-03T13:38:33Z</time>
      </trkpt>
      <trkpt lat="48.4005" lon="7.32894">
        <ele>590</ele>
        <time>2021-08-03T13:38:34Z</time>
      </trkpt>
      <trkpt lat="48.40045" lon="7.32883">
        <ele>590.7</ele>
        <time>2021-08-03T13:38:35Z</time>
      </trkpt>
      <trkpt lat="48.40042" lon="7.32876">
        <ele>591</ele>
        <time>2021-08-03T13:38:37Z</time>
      </trkpt>
      <trkpt lat="48.40039" lon="7.32873">
        <ele>591.3</ele>
        <time>2021-08-03T13:38:39Z</time>
      </trkpt>
      <trkpt lat="48.40037" lon="7.32869">
        <ele>591.5</ele>
        <time>2021-08-03T13:38:40Z</time>
      </trkpt>
      <trkpt lat="48.40036" lon="7.32868">
        <ele>591.5</ele>
        <time>2021-08-03T13:38:41Z</time>
      </trkpt>
      <trkpt lat="48.40033" lon="7.32866">
        <ele>591.7</ele>
        <time>2021-08-03T13:38:43Z</time>
      </trkpt>
      <trkpt lat="48.40033" lon="7.32864">
        <ele>591.8</ele>
        <time>2021-08-03T13:38:44Z</time>
      </trkpt>
      <trkpt lat="48.40034" lon="7.3286">
        <ele>591.9</ele>
        <time>2021-08-03T13:38:45Z</time>
      </trkpt>
      <trkpt lat="48.40035" lon="7.32858">
        <ele>592</ele>
        <time>2021-08-03T13:38:46Z</time>
      </trkpt>
      <trkpt lat="48.40033" lon="7.32852">
        <ele>592.2</ele>
        <time>2021-08-03T13:38:48Z</time>
      </trkpt>
      <trkpt lat="48.40032" lon="7.3285">
        <ele>592.3</ele>
        <time>2021-08-03T13:38:50Z</time>
      </trkpt>
      <trkpt lat="48.40032" lon="7.32847">
        <ele>592.3</ele>
        <time>2021-08-03T13:38:51Z</time>
      </trkpt>
      <trkpt lat="48.40032" lon="7.32845">
        <ele>592.4</ele>
        <time>2021-08-03T13:38:52Z</time>
      </trkpt>
      <trkpt lat="48.40031" lon="7.3284">
        <ele>592.5</ele>
        <time>2021-08-03T13:38:54Z</time>
      </trkpt>
      <trkpt lat="48.40031" lon="7.32835">
        <ele>592.7</ele>
        <time>2021-08-03T13:38:55Z</time>
      </trkpt>
      <trkpt lat="48.40028" lon="7.32835">
        <ele>592.8</ele>
        <time>2021-08-03T13:38:57Z</time>
      </trkpt>
      <trkpt lat="48.40027" lon="7.32835">
        <ele>592.8</ele>
        <time>2021-08-03T13:38:59Z</time>
      </trkpt>
      <trkpt lat="48.40027" lon="7.32835">
        <ele>592.8</ele>
        <time>2021-08-03T13:39:00Z</time>
      </trkpt>
      <trkpt lat="48.40026" lon="7.32834">
        <ele>592.9</ele>
        <time>2021-08-03T13:39:02Z</time>
      </trkpt>
      <trkpt lat="48.40026" lon="7.32833">
        <ele>592.9</ele>
        <time>2021-08-03T13:39:03Z</time>
      </trkpt>
      <trkpt lat="48.40027" lon="7.3283">
        <ele>593</ele>
        <time>2021-08-03T13:39:05Z</time>
      </trkpt>
      <trkpt lat="48.40029" lon="7.32827">
        <ele>593.1</ele>
        <time>2021-08-03T13:39:07Z</time>
      </trkpt>
      <trkpt lat="48.40032" lon="7.32819">
        <ele>593.4</ele>
        <time>2021-08-03T13:39:10Z</time>
      </trkpt>
      <trkpt lat="48.40032" lon="7.32814">
        <ele>593.5</ele>
        <time>2021-08-03T13:39:11Z</time>
      </trkpt>
      <trkpt lat="48.40034" lon="7.32809">
        <ele>593.6</ele>
        <time>2021-08-03T13:39:12Z</time>
      </trkpt>
      <trkpt lat="48.40036" lon="7.32803">
        <ele>593.8</ele>
        <time>2021-08-03T13:39:13Z</time>
      </trkpt>
      <trkpt lat="48.40038" lon="7.32798">
        <ele>594</ele>
        <time>2021-08-03T13:39:15Z</time>
      </trkpt>
      <trkpt lat="48.40039" lon="7.32793">
        <ele>594.1</ele>
        <time>2021-08-03T13:39:16Z</time>
      </trkpt>
      <trkpt lat="48.40039" lon="7.32792">
        <ele>594.1</ele>
        <time>2021-08-03T13:39:17Z</time>
      </trkpt>
      <trkpt lat="48.4004" lon="7.32791">
        <ele>594.2</ele>
        <time>2021-08-03T13:39:18Z</time>
      </trkpt>
      <trkpt lat="48.40041" lon="7.32789">
        <ele>594.2</ele>
        <time>2021-08-03T13:39:19Z</time>
      </trkpt>
      <trkpt lat="48.40041" lon="7.32786">
        <ele>594.3</ele>
        <time>2021-08-03T13:39:21Z</time>
      </trkpt>
      <trkpt lat="48.40042" lon="7.32784">
        <ele>594.3</ele>
        <time>2021-08-03T13:39:22Z</time>
      </trkpt>
      <trkpt lat="48.40043" lon="7.32779">
        <ele>594.4</ele>
        <time>2021-08-03T13:39:24Z</time>
      </trkpt>
      <trkpt lat="48.40044" lon="7.32773">
        <ele>594.6</ele>
        <time>2021-08-03T13:39:26Z</time>
      </trkpt>
      <trkpt lat="48.40044" lon="7.32767">
        <ele>594.7</ele>
        <time>2021-08-03T13:39:28Z</time>
      </trkpt>
      <trkpt lat="48.40045" lon="7.3276">
        <ele>594.8</ele>
        <time>2021-08-03T13:39:30Z</time>
      </trkpt>
      <trkpt lat="48.40046" lon="7.32756">
        <ele>594.9</ele>
        <time>2021-08-03T13:39:31Z</time>
      </trkpt>
      <trkpt lat="48.40047" lon="7.3275">
        <ele>595</ele>
        <time>2021-08-03T13:39:32Z</time>
      </trkpt>
      <trkpt lat="48.40047" lon="7.32748">
        <ele>595</ele>
        <time>2021-08-03T13:39:33Z</time>
      </trkpt>
      <trkpt lat="48.40047" lon="7.32743">
        <ele>595.1</ele>
        <time>2021-08-03T13:39:34Z</time>
      </trkpt>
      <trkpt lat="48.40047" lon="7.32741">
        <ele>595.2</ele>
        <time>2021-08-03T13:39:35Z</time>
      </trkpt>
      <trkpt lat="48.40047" lon="7.32736">
        <ele>595.3</ele>
        <time>2021-08-03T13:39:36Z</time>
      </trkpt>
      <trkpt lat="48.40046" lon="7.32735">
        <ele>595.3</ele>
        <time>2021-08-03T13:39:37Z</time>
      </trkpt>
      <trkpt lat="48.40047" lon="7.32729">
        <ele>595.4</ele>
        <time>2021-08-03T13:39:39Z</time>
      </trkpt>
      <trkpt lat="48.40047" lon="7.32723">
        <ele>595.6</ele>
        <time>2021-08-03T13:39:40Z</time>
      </trkpt>
      <trkpt lat="48.40047" lon="7.32718">
        <ele>595.7</ele>
        <time>2021-08-03T13:39:41Z</time>
      </trkpt>
      <trkpt lat="48.40047" lon="7.32713">
        <ele>595.8</ele>
        <time>2021-08-03T13:39:43Z</time>
      </trkpt>
      <trkpt lat="48.40047" lon="7.32707">
        <ele>595.9</ele>
        <time>2021-08-03T13:39:44Z</time>
      </trkpt>
      <trkpt lat="48.40047" lon="7.32704">
        <ele>596</ele>
        <time>2021-08-03T13:39:45Z</time>
      </trkpt>
      <trkpt lat="48.40047" lon="7.32699">
        <ele>596.2</ele>
        <time>2021-08-03T13:39:46Z</time>
      </trkpt>
      <trkpt lat="48.40047" lon="7.32697">
        <ele>596.2</ele>
        <time>2021-08-03T13:39:47Z</time>
      </trkpt>
      <trkpt lat="48.40046" lon="7.32691">
        <ele>596.4</ele>
        <time>2021-08-03T13:39:49Z</time>
      </trkpt>
      <trkpt lat="48.40045" lon="7.32689">
        <ele>596.5</ele>
        <time>2021-08-03T13:39:50Z</time>
      </trkpt>
      <trkpt lat="48.40046" lon="7.32684">
        <ele>596.6</ele>
        <time>2021-08-03T13:39:52Z</time>
      </trkpt>
      <trkpt lat="48.40046" lon="7.3268">
        <ele>596.8</ele>
        <time>2021-08-03T13:39:54Z</time>
      </trkpt>
      <trkpt lat="48.40046" lon="7.32678">
        <ele>596.8</ele>
        <time>2021-08-03T13:39:55Z</time>
      </trkpt>
      <trkpt lat="48.40046" lon="7.32674">
        <ele>597</ele>
        <time>2021-08-03T13:39:57Z</time>
      </trkpt>
      <trkpt lat="48.40046" lon="7.3267">
        <ele>597.2</ele>
        <time>2021-08-03T13:39:58Z</time>
      </trkpt>
      <trkpt lat="48.40046" lon="7.32668">
        <ele>597.2</ele>
        <time>2021-08-03T13:39:59Z</time>
      </trkpt>
      <trkpt lat="48.40045" lon="7.32663">
        <ele>597.4</ele>
        <time>2021-08-03T13:40:01Z</time>
      </trkpt>
      <trkpt lat="48.40043" lon="7.32661">
        <ele>597.6</ele>
        <time>2021-08-03T13:40:02Z</time>
      </trkpt>
      <trkpt lat="48.40042" lon="7.32661">
        <ele>597.6</ele>
        <time>2021-08-03T13:40:04Z</time>
      </trkpt>
      <trkpt lat="48.40042" lon="7.32662">
        <ele>597.6</ele>
        <time>2021-08-03T13:40:05Z</time>
      </trkpt>
      <trkpt lat="48.40042" lon="7.32662">
        <ele>597.7</ele>
        <time>2021-08-03T13:40:07Z</time>
      </trkpt>
      <trkpt lat="48.40042" lon="7.32661">
        <ele>597.7</ele>
        <time>2021-08-03T13:40:08Z</time>
      </trkpt>
      <trkpt lat="48.40041" lon="7.3266">
        <ele>597.7</ele>
        <time>2021-08-03T13:40:09Z</time>
      </trkpt>
      <trkpt lat="48.40041" lon="7.32659">
        <ele>597.8</ele>
        <time>2021-08-03T13:40:11Z</time>
      </trkpt>
      <trkpt lat="48.40041" lon="7.32658">
        <ele>597.8</ele>
        <time>2021-08-03T13:40:12Z</time>
      </trkpt>
      <trkpt lat="48.40039" lon="7.32646">
        <ele>598.5</ele>
        <time>2021-08-03T13:40:20Z</time>
      </trkpt>
      <trkpt lat="48.40038" lon="7.32643">
        <ele>598.6</ele>
        <time>2021-08-03T13:40:21Z</time>
      </trkpt>
      <trkpt lat="48.40037" lon="7.32639">
        <ele>598.8</ele>
        <time>2021-08-03T13:40:23Z</time>
      </trkpt>
      <trkpt lat="48.40037" lon="7.32634">
        <ele>599</ele>
        <time>2021-08-03T13:40:24Z</time>
      </trkpt>
      <trkpt lat="48.40038" lon="7.32632">
        <ele>599.2</ele>
        <time>2021-08-03T13:40:26Z</time>
      </trkpt>
      <trkpt lat="48.40039" lon="7.3263">
        <ele>599.3</ele>
        <time>2021-08-03T13:40:28Z</time>
      </trkpt>
      <trkpt lat="48.40039" lon="7.32629">
        <ele>599.3</ele>
        <time>2021-08-03T13:40:30Z</time>
      </trkpt>
      <trkpt lat="48.40039" lon="7.32628">
        <ele>599.4</ele>
        <time>2021-08-03T13:40:31Z</time>
      </trkpt>
      <trkpt lat="48.40039" lon="7.32628">
        <ele>599.4</ele>
        <time>2021-08-03T13:40:33Z</time>
      </trkpt>
      <trkpt lat="48.4004" lon="7.32626">
        <ele>599.5</ele>
        <time>2021-08-03T13:40:34Z</time>
      </trkpt>
      <trkpt lat="48.40045" lon="7.32609">
        <ele>600.4</ele>
        <time>2021-08-03T13:40:42Z</time>
      </trkpt>
      <trkpt lat="48.40047" lon="7.32605">
        <ele>600.6</ele>
        <time>2021-08-03T13:40:43Z</time>
      </trkpt>
      <trkpt lat="48.40049" lon="7.326">
        <ele>600.8</ele>
        <time>2021-08-03T13:40:44Z</time>
      </trkpt>
      <trkpt lat="48.40049" lon="7.32599">
        <ele>600.9</ele>
        <time>2021-08-03T13:40:45Z</time>
      </trkpt>
      <trkpt lat="48.40049" lon="7.32594">
        <ele>601.1</ele>
        <time>2021-08-03T13:40:46Z</time>
      </trkpt>
      <trkpt lat="48.40049" lon="7.32593">
        <ele>601.2</ele>
        <time>2021-08-03T13:40:47Z</time>
      </trkpt>
      <trkpt lat="48.40049" lon="7.32588">
        <ele>601.4</ele>
        <time>2021-08-03T13:40:48Z</time>
      </trkpt>
      <trkpt lat="48.4005" lon="7.32584">
        <ele>601.6</ele>
        <time>2021-08-03T13:40:49Z</time>
      </trkpt>
      <trkpt lat="48.4005" lon="7.32582">
        <ele>601.7</ele>
        <time>2021-08-03T13:40:51Z</time>
      </trkpt>
      <trkpt lat="48.4005" lon="7.32581">
        <ele>601.8</ele>
        <time>2021-08-03T13:40:53Z</time>
      </trkpt>
      <trkpt lat="48.40051" lon="7.32581">
        <ele>601.8</ele>
        <time>2021-08-03T13:40:54Z</time>
      </trkpt>
      <trkpt lat="48.40051" lon="7.3258">
        <ele>601.8</ele>
        <time>2021-08-03T13:40:55Z</time>
      </trkpt>
      <trkpt lat="48.40051" lon="7.32578">
        <ele>601.9</ele>
        <time>2021-08-03T13:40:57Z</time>
      </trkpt>
      <trkpt lat="48.40052" lon="7.32576">
        <ele>602.1</ele>
        <time>2021-08-03T13:40:58Z</time>
      </trkpt>
      <trkpt lat="48.40052" lon="7.32574">
        <ele>602.2</ele>
        <time>2021-08-03T13:41:00Z</time>
      </trkpt>
      <trkpt lat="48.40055" lon="7.32565">
        <ele>602.7</ele>
        <time>2021-08-03T13:41:04Z</time>
      </trkpt>
      <trkpt lat="48.40057" lon="7.3256">
        <ele>603</ele>
        <time>2021-08-03T13:41:05Z</time>
      </trkpt>
      <trkpt lat="48.40058" lon="7.32558">
        <ele>603.1</ele>
        <time>2021-08-03T13:41:06Z</time>
      </trkpt>
      <trkpt lat="48.40059" lon="7.32551">
        <ele>603.5</ele>
        <time>2021-08-03T13:41:08Z</time>
      </trkpt>
      <trkpt lat="48.40059" lon="7.32548">
        <ele>603.6</ele>
        <time>2021-08-03T13:41:09Z</time>
      </trkpt>
      <trkpt lat="48.4006" lon="7.32546">
        <ele>603.8</ele>
        <time>2021-08-03T13:41:10Z</time>
      </trkpt>
      <trkpt lat="48.40061" lon="7.32541">
        <ele>604.1</ele>
        <time>2021-08-03T13:41:12Z</time>
      </trkpt>
      <trkpt lat="48.40061" lon="7.32539">
        <ele>604.2</ele>
        <time>2021-08-03T13:41:13Z</time>
      </trkpt>
      <trkpt lat="48.40062" lon="7.32537">
        <ele>604.3</ele>
        <time>2021-08-03T13:41:15Z</time>
      </trkpt>
      <trkpt lat="48.40062" lon="7.32536">
        <ele>604.4</ele>
        <time>2021-08-03T13:41:16Z</time>
      </trkpt>
      <trkpt lat="48.40062" lon="7.32535">
        <ele>604.4</ele>
        <time>2021-08-03T13:41:17Z</time>
      </trkpt>
      <trkpt lat="48.40062" lon="7.32532">
        <ele>604.6</ele>
        <time>2021-08-03T13:41:18Z</time>
      </trkpt>
      <trkpt lat="48.40062" lon="7.32531">
        <ele>604.7</ele>
        <time>2021-08-03T13:41:20Z</time>
      </trkpt>
      <trkpt lat="48.40062" lon="7.3253">
        <ele>604.8</ele>
        <time>2021-08-03T13:41:21Z</time>
      </trkpt>
      <trkpt lat="48.40062" lon="7.32527">
        <ele>604.9</ele>
        <time>2021-08-03T13:41:22Z</time>
      </trkpt>
      <trkpt lat="48.40063" lon="7.32525">
        <ele>605.1</ele>
        <time>2021-08-03T13:41:23Z</time>
      </trkpt>
      <trkpt lat="48.40064" lon="7.32523">
        <ele>605.2</ele>
        <time>2021-08-03T13:41:24Z</time>
      </trkpt>
      <trkpt lat="48.40064" lon="7.32522">
        <ele>605.3</ele>
        <time>2021-08-03T13:41:25Z</time>
      </trkpt>
      <trkpt lat="48.40064" lon="7.3252">
        <ele>605.4</ele>
        <time>2021-08-03T13:41:27Z</time>
      </trkpt>
      <trkpt lat="48.40064" lon="7.32519">
        <ele>605.5</ele>
        <time>2021-08-03T13:41:28Z</time>
      </trkpt>
      <trkpt lat="48.40064" lon="7.32518">
        <ele>605.5</ele>
        <time>2021-08-03T13:41:29Z</time>
      </trkpt>
      <trkpt lat="48.40065" lon="7.32515">
        <ele>605.7</ele>
        <time>2021-08-03T13:41:30Z</time>
      </trkpt>
      <trkpt lat="48.40065" lon="7.3251">
        <ele>606</ele>
        <time>2021-08-03T13:41:32Z</time>
      </trkpt>
      <trkpt lat="48.40065" lon="7.32509">
        <ele>606.1</ele>
        <time>2021-08-03T13:41:33Z</time>
      </trkpt>
      <trkpt lat="48.40065" lon="7.32507">
        <ele>606.3</ele>
        <time>2021-08-03T13:41:35Z</time>
      </trkpt>
      <trkpt lat="48.40065" lon="7.32506">
        <ele>606.3</ele>
        <time>2021-08-03T13:41:36Z</time>
      </trkpt>
      <trkpt lat="48.40065" lon="7.32505">
        <ele>606.4</ele>
        <time>2021-08-03T13:41:38Z</time>
      </trkpt>
      <trkpt lat="48.40065" lon="7.32504">
        <ele>606.5</ele>
        <time>2021-08-03T13:41:39Z</time>
      </trkpt>
      <trkpt lat="48.40065" lon="7.32503">
        <ele>606.5</ele>
        <time>2021-08-03T13:41:40Z</time>
      </trkpt>
      <trkpt lat="48.40065" lon="7.32502">
        <ele>606.5</ele>
        <time>2021-08-03T13:41:42Z</time>
      </trkpt>
      <trkpt lat="48.40074" lon="7.32446">
        <ele>610.5</ele>
        <time>2021-08-03T13:42:16Z</time>
      </trkpt>
      <trkpt lat="48.40073" lon="7.32437">
        <ele>611.1</ele>
        <time>2021-08-03T13:42:18Z</time>
      </trkpt>
      <trkpt lat="48.40073" lon="7.32433">
        <ele>611.4</ele>
        <time>2021-08-03T13:42:19Z</time>
      </trkpt>
      <trkpt lat="48.40071" lon="7.32425">
        <ele>611.9</ele>
        <time>2021-08-03T13:42:21Z</time>
      </trkpt>
      <trkpt lat="48.40072" lon="7.32422">
        <ele>612.2</ele>
        <time>2021-08-03T13:42:23Z</time>
      </trkpt>
      <trkpt lat="48.40073" lon="7.3242">
        <ele>612.3</ele>
        <time>2021-08-03T13:42:25Z</time>
      </trkpt>
      <trkpt lat="48.40073" lon="7.32418">
        <ele>612.4</ele>
        <time>2021-08-03T13:42:26Z</time>
      </trkpt>
      <trkpt lat="48.40074" lon="7.32412">
        <ele>612.9</ele>
        <time>2021-08-03T13:42:28Z</time>
      </trkpt>
      <trkpt lat="48.40076" lon="7.32407">
        <ele>613.2</ele>
        <time>2021-08-03T13:42:29Z</time>
      </trkpt>
      <trkpt lat="48.40077" lon="7.32404">
        <ele>613.5</ele>
        <time>2021-08-03T13:42:31Z</time>
      </trkpt>
      <trkpt lat="48.40078" lon="7.32403">
        <ele>613.6</ele>
        <time>2021-08-03T13:42:32Z</time>
      </trkpt>
      <trkpt lat="48.40082" lon="7.32398">
        <ele>614</ele>
        <time>2021-08-03T13:42:34Z</time>
      </trkpt>
      <trkpt lat="48.40083" lon="7.32393">
        <ele>614.3</ele>
        <time>2021-08-03T13:42:36Z</time>
      </trkpt>
      <trkpt lat="48.40084" lon="7.3239">
        <ele>614.5</ele>
        <time>2021-08-03T13:42:37Z</time>
      </trkpt>
      <trkpt lat="48.40085" lon="7.32387">
        <ele>614.6</ele>
        <time>2021-08-03T13:42:39Z</time>
      </trkpt>
      <trkpt lat="48.40087" lon="7.32383">
        <ele>614.9</ele>
        <time>2021-08-03T13:42:41Z</time>
      </trkpt>
      <trkpt lat="48.40089" lon="7.32378">
        <ele>615.1</ele>
        <time>2021-08-03T13:42:43Z</time>
      </trkpt>
      <trkpt lat="48.40089" lon="7.32376">
        <ele>615.2</ele>
        <time>2021-08-03T13:42:44Z</time>
      </trkpt>
      <trkpt lat="48.40089" lon="7.32373">
        <ele>615.3</ele>
        <time>2021-08-03T13:42:46Z</time>
      </trkpt>
      <trkpt lat="48.40089" lon="7.32371">
        <ele>615.4</ele>
        <time>2021-08-03T13:42:47Z</time>
      </trkpt>
      <trkpt lat="48.40089" lon="7.32366">
        <ele>615.6</ele>
        <time>2021-08-03T13:42:49Z</time>
      </trkpt>
      <trkpt lat="48.40087" lon="7.32362">
        <ele>615.8</ele>
        <time>2021-08-03T13:42:51Z</time>
      </trkpt>
      <trkpt lat="48.40086" lon="7.32361">
        <ele>615.8</ele>
        <time>2021-08-03T13:42:52Z</time>
      </trkpt>
      <trkpt lat="48.40085" lon="7.32357">
        <ele>616</ele>
        <time>2021-08-03T13:42:53Z</time>
      </trkpt>
      <trkpt lat="48.40083" lon="7.3235">
        <ele>616.2</ele>
        <time>2021-08-03T13:42:55Z</time>
      </trkpt>
      <trkpt lat="48.4008" lon="7.32342">
        <ele>616.6</ele>
        <time>2021-08-03T13:42:57Z</time>
      </trkpt>
      <trkpt lat="48.40077" lon="7.32337">
        <ele>616.8</ele>
        <time>2021-08-03T13:42:58Z</time>
      </trkpt>
      <trkpt lat="48.40075" lon="7.32334">
        <ele>616.9</ele>
        <time>2021-08-03T13:42:59Z</time>
      </trkpt>
      <trkpt lat="48.40074" lon="7.3233">
        <ele>617.1</ele>
        <time>2021-08-03T13:43:00Z</time>
      </trkpt>
      <trkpt lat="48.40072" lon="7.32325">
        <ele>617.3</ele>
        <time>2021-08-03T13:43:02Z</time>
      </trkpt>
      <trkpt lat="48.40071" lon="7.32325">
        <ele>617.4</ele>
        <time>2021-08-03T13:43:03Z</time>
      </trkpt>
      <trkpt lat="48.4007" lon="7.32322">
        <ele>617.5</ele>
        <time>2021-08-03T13:43:04Z</time>
      </trkpt>
      <trkpt lat="48.40069" lon="7.32321">
        <ele>617.6</ele>
        <time>2021-08-03T13:43:06Z</time>
      </trkpt>
      <trkpt lat="48.40068" lon="7.32318">
        <ele>617.7</ele>
        <time>2021-08-03T13:43:07Z</time>
      </trkpt>
      <trkpt lat="48.40067" lon="7.32316">
        <ele>617.8</ele>
        <time>2021-08-03T13:43:08Z</time>
      </trkpt>
      <trkpt lat="48.40067" lon="7.32315">
        <ele>617.8</ele>
        <time>2021-08-03T13:43:10Z</time>
      </trkpt>
      <trkpt lat="48.40066" lon="7.32313">
        <ele>617.9</ele>
        <time>2021-08-03T13:43:11Z</time>
      </trkpt>
      <trkpt lat="48.40065" lon="7.32312">
        <ele>618</ele>
        <time>2021-08-03T13:43:12Z</time>
      </trkpt>
      <trkpt lat="48.40063" lon="7.32307">
        <ele>618.1</ele>
        <time>2021-08-03T13:43:14Z</time>
      </trkpt>
      <trkpt lat="48.40062" lon="7.32303">
        <ele>618.1</ele>
        <time>2021-08-03T13:43:15Z</time>
      </trkpt>
      <trkpt lat="48.40061" lon="7.32297">
        <ele>618.3</ele>
        <time>2021-08-03T13:43:16Z</time>
      </trkpt>
      <trkpt lat="48.4006" lon="7.32291">
        <ele>618.6</ele>
        <time>2021-08-03T13:43:18Z</time>
      </trkpt>
      <trkpt lat="48.40059" lon="7.32285">
        <ele>618.9</ele>
        <time>2021-08-03T13:43:19Z</time>
      </trkpt>
      <trkpt lat="48.40057" lon="7.32278">
        <ele>619.2</ele>
        <time>2021-08-03T13:43:21Z</time>
      </trkpt>
      <trkpt lat="48.40056" lon="7.32276">
        <ele>619.2</ele>
        <time>2021-08-03T13:43:22Z</time>
      </trkpt>
      <trkpt lat="48.40056" lon="7.32274">
        <ele>619.3</ele>
        <time>2021-08-03T13:43:23Z</time>
      </trkpt>
      <trkpt lat="48.40054" lon="7.32268">
        <ele>619.5</ele>
        <time>2021-08-03T13:43:24Z</time>
      </trkpt>
      <trkpt lat="48.40054" lon="7.32266">
        <ele>619.6</ele>
        <time>2021-08-03T13:43:25Z</time>
      </trkpt>
      <trkpt lat="48.40052" lon="7.32261">
        <ele>619.8</ele>
        <time>2021-08-03T13:43:27Z</time>
      </trkpt>
      <trkpt lat="48.40052" lon="7.32256">
        <ele>619.9</ele>
        <time>2021-08-03T13:43:28Z</time>
      </trkpt>
      <trkpt lat="48.40051" lon="7.32251">
        <ele>620</ele>
        <time>2021-08-03T13:43:29Z</time>
      </trkpt>
      <trkpt lat="48.40051" lon="7.32245">
        <ele>620.2</ele>
        <time>2021-08-03T13:43:31Z</time>
      </trkpt>
      <trkpt lat="48.40051" lon="7.32241">
        <ele>620.3</ele>
        <time>2021-08-03T13:43:32Z</time>
      </trkpt>
      <trkpt lat="48.4005" lon="7.32234">
        <ele>620.4</ele>
        <time>2021-08-03T13:43:34Z</time>
      </trkpt>
      <trkpt lat="48.4005" lon="7.32229">
        <ele>620.5</ele>
        <time>2021-08-03T13:43:35Z</time>
      </trkpt>
      <trkpt lat="48.4005" lon="7.32227">
        <ele>620.6</ele>
        <time>2021-08-03T13:43:36Z</time>
      </trkpt>
      <trkpt lat="48.4005" lon="7.32222">
        <ele>620.7</ele>
        <time>2021-08-03T13:43:37Z</time>
      </trkpt>
      <trkpt lat="48.4005" lon="7.3222">
        <ele>620.7</ele>
        <time>2021-08-03T13:43:38Z</time>
      </trkpt>
      <trkpt lat="48.4005" lon="7.32214">
        <ele>620.8</ele>
        <time>2021-08-03T13:43:39Z</time>
      </trkpt>
      <trkpt lat="48.4005" lon="7.32213">
        <ele>620.9</ele>
        <time>2021-08-03T13:43:40Z</time>
      </trkpt>
      <trkpt lat="48.4005" lon="7.32208">
        <ele>621</ele>
        <time>2021-08-03T13:43:41Z</time>
      </trkpt>
      <trkpt lat="48.40051" lon="7.32205">
        <ele>621.1</ele>
        <time>2021-08-03T13:43:42Z</time>
      </trkpt>
      <trkpt lat="48.4005" lon="7.32197">
        <ele>621.2</ele>
        <time>2021-08-03T13:43:44Z</time>
      </trkpt>
      <trkpt lat="48.4005" lon="7.32189">
        <ele>621.5</ele>
        <time>2021-08-03T13:43:46Z</time>
      </trkpt>
      <trkpt lat="48.40051" lon="7.32184">
        <ele>621.6</ele>
        <time>2021-08-03T13:43:47Z</time>
      </trkpt>
      <trkpt lat="48.40051" lon="7.32177">
        <ele>621.8</ele>
        <time>2021-08-03T13:43:49Z</time>
      </trkpt>
      <trkpt lat="48.40051" lon="7.32174">
        <ele>621.9</ele>
        <time>2021-08-03T13:43:50Z</time>
      </trkpt>
      <trkpt lat="48.4005" lon="7.32172">
        <ele>622</ele>
        <time>2021-08-03T13:43:51Z</time>
      </trkpt>
      <trkpt lat="48.4005" lon="7.32168">
        <ele>622.1</ele>
        <time>2021-08-03T13:43:52Z</time>
      </trkpt>
      <trkpt lat="48.40051" lon="7.32162">
        <ele>622.4</ele>
        <time>2021-08-03T13:43:53Z</time>
      </trkpt>
      <trkpt lat="48.40051" lon="7.32159">
        <ele>622.5</ele>
        <time>2021-08-03T13:43:54Z</time>
      </trkpt>
      <trkpt lat="48.40052" lon="7.32154">
        <ele>622.7</ele>
        <time>2021-08-03T13:43:56Z</time>
      </trkpt>
      <trkpt lat="48.40053" lon="7.3215">
        <ele>623</ele>
        <time>2021-08-03T13:43:57Z</time>
      </trkpt>
      <trkpt lat="48.40055" lon="7.32143">
        <ele>623.4</ele>
        <time>2021-08-03T13:43:59Z</time>
      </trkpt>
      <trkpt lat="48.40055" lon="7.32141">
        <ele>623.5</ele>
        <time>2021-08-03T13:44:00Z</time>
      </trkpt>
      <trkpt lat="48.40056" lon="7.32139">
        <ele>623.6</ele>
        <time>2021-08-03T13:44:01Z</time>
      </trkpt>
      <trkpt lat="48.40056" lon="7.32137">
        <ele>623.7</ele>
        <time>2021-08-03T13:44:02Z</time>
      </trkpt>
      <trkpt lat="48.40055" lon="7.32132">
        <ele>624</ele>
        <time>2021-08-03T13:44:04Z</time>
      </trkpt>
      <trkpt lat="48.40055" lon="7.3213">
        <ele>624.1</ele>
        <time>2021-08-03T13:44:05Z</time>
      </trkpt>
      <trkpt lat="48.40055" lon="7.32129">
        <ele>624.1</ele>
        <time>2021-08-03T13:44:06Z</time>
      </trkpt>
      <trkpt lat="48.40057" lon="7.32125">
        <ele>624.4</ele>
        <time>2021-08-03T13:44:08Z</time>
      </trkpt>
      <trkpt lat="48.40058" lon="7.32121">
        <ele>624.7</ele>
        <time>2021-08-03T13:44:10Z</time>
      </trkpt>
      <trkpt lat="48.40058" lon="7.3212">
        <ele>624.7</ele>
        <time>2021-08-03T13:44:11Z</time>
      </trkpt>
      <trkpt lat="48.40059" lon="7.32118">
        <ele>624.9</ele>
        <time>2021-08-03T13:44:12Z</time>
      </trkpt>
      <trkpt lat="48.40059" lon="7.32114">
        <ele>625.1</ele>
        <time>2021-08-03T13:44:14Z</time>
      </trkpt>
      <trkpt lat="48.40059" lon="7.32111">
        <ele>625.3</ele>
        <time>2021-08-03T13:44:15Z</time>
      </trkpt>
      <trkpt lat="48.4006" lon="7.32108">
        <ele>625.5</ele>
        <time>2021-08-03T13:44:17Z</time>
      </trkpt>
      <trkpt lat="48.4006" lon="7.32106">
        <ele>625.6</ele>
        <time>2021-08-03T13:44:18Z</time>
      </trkpt>
      <trkpt lat="48.40061" lon="7.32102">
        <ele>625.9</ele>
        <time>2021-08-03T13:44:20Z</time>
      </trkpt>
      <trkpt lat="48.4006" lon="7.321">
        <ele>626</ele>
        <time>2021-08-03T13:44:21Z</time>
      </trkpt>
      <trkpt lat="48.4006" lon="7.32095">
        <ele>626.3</ele>
        <time>2021-08-03T13:44:23Z</time>
      </trkpt>
      <trkpt lat="48.4006" lon="7.32091">
        <ele>626.6</ele>
        <time>2021-08-03T13:44:25Z</time>
      </trkpt>
      <trkpt lat="48.40061" lon="7.32087">
        <ele>626.9</ele>
        <time>2021-08-03T13:44:27Z</time>
      </trkpt>
      <trkpt lat="48.4006" lon="7.32081">
        <ele>628.1</ele>
        <time>2021-08-03T13:44:29Z</time>
      </trkpt>
      <trkpt lat="48.4006" lon="7.32079">
        <ele>628.2</ele>
        <time>2021-08-03T13:44:30Z</time>
      </trkpt>
      <trkpt lat="48.4006" lon="7.32077">
        <ele>628.4</ele>
        <time>2021-08-03T13:44:32Z</time>
      </trkpt>
      <trkpt lat="48.40059" lon="7.32075">
        <ele>628.6</ele>
        <time>2021-08-03T13:44:33Z</time>
      </trkpt>
      <trkpt lat="48.40057" lon="7.32071">
        <ele>629</ele>
        <time>2021-08-03T13:44:35Z</time>
      </trkpt>
      <trkpt lat="48.40054" lon="7.32068">
        <ele>629.4</ele>
        <time>2021-08-03T13:44:36Z</time>
      </trkpt>
      <trkpt lat="48.40051" lon="7.32067">
        <ele>629.7</ele>
        <time>2021-08-03T13:44:38Z</time>
      </trkpt>
      <trkpt lat="48.40049" lon="7.32067">
        <ele>629.9</ele>
        <time>2021-08-03T13:44:39Z</time>
      </trkpt>
      <trkpt lat="48.40047" lon="7.32068">
        <ele>630.2</ele>
        <time>2021-08-03T13:44:41Z</time>
      </trkpt>
      <trkpt lat="48.40047" lon="7.32075">
        <ele>630.6</ele>
        <time>2021-08-03T13:44:43Z</time>
      </trkpt>
      <trkpt lat="48.40049" lon="7.3208">
        <ele>630.9</ele>
        <time>2021-08-03T13:44:44Z</time>
      </trkpt>
      <trkpt lat="48.40051" lon="7.32085">
        <ele>631.2</ele>
        <time>2021-08-03T13:44:45Z</time>
      </trkpt>
      <trkpt lat="48.40052" lon="7.32095">
        <ele>631.6</ele>
        <time>2021-08-03T13:44:47Z</time>
      </trkpt>
      <trkpt lat="48.40054" lon="7.321">
        <ele>631.9</ele>
        <time>2021-08-03T13:44:48Z</time>
      </trkpt>
      <trkpt lat="48.40056" lon="7.32108">
        <ele>632.2</ele>
        <time>2021-08-03T13:44:50Z</time>
      </trkpt>
      <trkpt lat="48.40057" lon="7.32113">
        <ele>632.3</ele>
        <time>2021-08-03T13:44:51Z</time>
      </trkpt>
      <trkpt lat="48.40056" lon="7.32117">
        <ele>632.4</ele>
        <time>2021-08-03T13:44:52Z</time>
      </trkpt>
      <trkpt lat="48.40056" lon="7.32119">
        <ele>632.5</ele>
        <time>2021-08-03T13:44:53Z</time>
      </trkpt>
      <trkpt lat="48.40056" lon="7.32123">
        <ele>632.6</ele>
        <time>2021-08-03T13:44:54Z</time>
      </trkpt>
      <trkpt lat="48.40054" lon="7.32128">
        <ele>632.8</ele>
        <time>2021-08-03T13:44:55Z</time>
      </trkpt>
      <trkpt lat="48.40052" lon="7.32132">
        <ele>632.9</ele>
        <time>2021-08-03T13:44:56Z</time>
      </trkpt>
      <trkpt lat="48.4005" lon="7.32139">
        <ele>633.1</ele>
        <time>2021-08-03T13:44:58Z</time>
      </trkpt>
      <trkpt lat="48.40049" lon="7.32144">
        <ele>633.3</ele>
        <time>2021-08-03T13:45:00Z</time>
      </trkpt>
      <trkpt lat="48.40049" lon="7.32145">
        <ele>633.3</ele>
        <time>2021-08-03T13:45:01Z</time>
      </trkpt>
      <trkpt lat="48.40046" lon="7.32149">
        <ele>633.5</ele>
        <time>2021-08-03T13:45:02Z</time>
      </trkpt>
      <trkpt lat="48.40041" lon="7.32151">
        <ele>633.7</ele>
        <time>2021-08-03T13:45:04Z</time>
      </trkpt>
      <trkpt lat="48.40039" lon="7.32151">
        <ele>633.8</ele>
        <time>2021-08-03T13:45:05Z</time>
      </trkpt>
      <trkpt lat="48.40036" lon="7.32152">
        <ele>633.9</ele>
        <time>2021-08-03T13:45:06Z</time>
      </trkpt>
      <trkpt lat="48.40033" lon="7.32154">
        <ele>634.1</ele>
        <time>2021-08-03T13:45:07Z</time>
      </trkpt>
      <trkpt lat="48.4003" lon="7.32157">
        <ele>634.2</ele>
        <time>2021-08-03T13:45:08Z</time>
      </trkpt>
      <trkpt lat="48.40023" lon="7.3216">
        <ele>634.5</ele>
        <time>2021-08-03T13:45:09Z</time>
      </trkpt>
      <trkpt lat="48.40016" lon="7.32164">
        <ele>634.8</ele>
        <time>2021-08-03T13:45:11Z</time>
      </trkpt>
      <trkpt lat="48.40009" lon="7.32168">
        <ele>635.1</ele>
        <time>2021-08-03T13:45:12Z</time>
      </trkpt>
      <trkpt lat="48.40004" lon="7.32171">
        <ele>635.4</ele>
        <time>2021-08-03T13:45:14Z</time>
      </trkpt>
      <trkpt lat="48.39995" lon="7.32176">
        <ele>635.8</ele>
        <time>2021-08-03T13:45:16Z</time>
      </trkpt>
      <trkpt lat="48.39991" lon="7.32179">
        <ele>636</ele>
        <time>2021-08-03T13:45:17Z</time>
      </trkpt>
      <trkpt lat="48.39987" lon="7.32182">
        <ele>636.2</ele>
        <time>2021-08-03T13:45:18Z</time>
      </trkpt>
      <trkpt lat="48.39981" lon="7.32183">
        <ele>636.5</ele>
        <time>2021-08-03T13:45:19Z</time>
      </trkpt>
      <trkpt lat="48.39974" lon="7.32183">
        <ele>636.9</ele>
        <time>2021-08-03T13:45:20Z</time>
      </trkpt>
      <trkpt lat="48.39967" lon="7.32182">
        <ele>637.2</ele>
        <time>2021-08-03T13:45:22Z</time>
      </trkpt>
      <trkpt lat="48.39959" lon="7.32179">
        <ele>637.7</ele>
        <time>2021-08-03T13:45:23Z</time>
      </trkpt>
      <trkpt lat="48.39955" lon="7.32177">
        <ele>638</ele>
        <time>2021-08-03T13:45:25Z</time>
      </trkpt>
      <trkpt lat="48.39949" lon="7.32177">
        <ele>638.3</ele>
        <time>2021-08-03T13:45:26Z</time>
      </trkpt>
      <trkpt lat="48.39944" lon="7.32176">
        <ele>638.7</ele>
        <time>2021-08-03T13:45:27Z</time>
      </trkpt>
      <trkpt lat="48.39938" lon="7.32176">
        <ele>639</ele>
        <time>2021-08-03T13:45:29Z</time>
      </trkpt>
      <trkpt lat="48.39935" lon="7.32176">
        <ele>639.3</ele>
        <time>2021-08-03T13:45:30Z</time>
      </trkpt>
      <trkpt lat="48.39931" lon="7.32175">
        <ele>639.6</ele>
        <time>2021-08-03T13:45:31Z</time>
      </trkpt>
      <trkpt lat="48.39928" lon="7.32173">
        <ele>639.8</ele>
        <time>2021-08-03T13:45:32Z</time>
      </trkpt>
      <trkpt lat="48.39925" lon="7.3217">
        <ele>640.1</ele>
        <time>2021-08-03T13:45:33Z</time>
      </trkpt>
      <trkpt lat="48.39923" lon="7.32168">
        <ele>640.3</ele>
        <time>2021-08-03T13:45:34Z</time>
      </trkpt>
      <trkpt lat="48.3992" lon="7.32165">
        <ele>640.5</ele>
        <time>2021-08-03T13:45:35Z</time>
      </trkpt>
      <trkpt lat="48.39917" lon="7.32162">
        <ele>640.7</ele>
        <time>2021-08-03T13:45:37Z</time>
      </trkpt>
      <trkpt lat="48.39915" lon="7.3216">
        <ele>640.9</ele>
        <time>2021-08-03T13:45:38Z</time>
      </trkpt>
      <trkpt lat="48.3991" lon="7.32157">
        <ele>641.3</ele>
        <time>2021-08-03T13:45:40Z</time>
      </trkpt>
      <trkpt lat="48.39906" lon="7.32156">
        <ele>641.6</ele>
        <time>2021-08-03T13:45:42Z</time>
      </trkpt>
      <trkpt lat="48.39902" lon="7.32154">
        <ele>642</ele>
        <time>2021-08-03T13:45:44Z</time>
      </trkpt>
      <trkpt lat="48.39899" lon="7.32153">
        <ele>642.1</ele>
        <time>2021-08-03T13:45:45Z</time>
      </trkpt>
      <trkpt lat="48.39896" lon="7.32152">
        <ele>642.4</ele>
        <time>2021-08-03T13:45:47Z</time>
      </trkpt>
      <trkpt lat="48.39893" lon="7.3215">
        <ele>642.7</ele>
        <time>2021-08-03T13:45:49Z</time>
      </trkpt>
      <trkpt lat="48.3989" lon="7.32148">
        <ele>642.9</ele>
        <time>2021-08-03T13:45:50Z</time>
      </trkpt>
      <trkpt lat="48.39887" lon="7.32145">
        <ele>643.2</ele>
        <time>2021-08-03T13:45:51Z</time>
      </trkpt>
      <trkpt lat="48.39886" lon="7.32144">
        <ele>643.3</ele>
        <time>2021-08-03T13:45:52Z</time>
      </trkpt>
      <trkpt lat="48.39882" lon="7.32141">
        <ele>643.6</ele>
        <time>2021-08-03T13:45:54Z</time>
      </trkpt>
      <trkpt lat="48.39879" lon="7.3214">
        <ele>643.9</ele>
        <time>2021-08-03T13:45:55Z</time>
      </trkpt>
      <trkpt lat="48.39878" lon="7.32139">
        <ele>644</ele>
        <time>2021-08-03T13:45:56Z</time>
      </trkpt>
      <trkpt lat="48.39875" lon="7.32137">
        <ele>644.3</ele>
        <time>2021-08-03T13:45:58Z</time>
      </trkpt>
      <trkpt lat="48.3987" lon="7.32134">
        <ele>644.6</ele>
        <time>2021-08-03T13:46:00Z</time>
      </trkpt>
      <trkpt lat="48.39867" lon="7.32132">
        <ele>644.9</ele>
        <time>2021-08-03T13:46:01Z</time>
      </trkpt>
      <trkpt lat="48.39866" lon="7.32132">
        <ele>644.9</ele>
        <time>2021-08-03T13:46:02Z</time>
      </trkpt>
      <trkpt lat="48.39865" lon="7.32131">
        <ele>644.9</ele>
        <time>2021-08-03T13:46:03Z</time>
      </trkpt>
      <trkpt lat="48.39864" lon="7.3213">
        <ele>644.9</ele>
        <time>2021-08-03T13:46:04Z</time>
      </trkpt>
      <trkpt lat="48.39864" lon="7.32128">
        <ele>644.9</ele>
        <time>2021-08-03T13:46:05Z</time>
      </trkpt>
      <trkpt lat="48.39862" lon="7.32125">
        <ele>644.9</ele>
        <time>2021-08-03T13:46:07Z</time>
      </trkpt>
      <trkpt lat="48.39861" lon="7.32123">
        <ele>644.9</ele>
        <time>2021-08-03T13:46:08Z</time>
      </trkpt>
      <trkpt lat="48.39859" lon="7.3212">
        <ele>644.9</ele>
        <time>2021-08-03T13:46:10Z</time>
      </trkpt>
      <trkpt lat="48.39857" lon="7.32118">
        <ele>644.9</ele>
        <time>2021-08-03T13:46:11Z</time>
      </trkpt>
      <trkpt lat="48.39857" lon="7.32118">
        <ele>644.9</ele>
        <time>2021-08-03T13:46:12Z</time>
      </trkpt>
      <trkpt lat="48.39856" lon="7.32118">
        <ele>644.9</ele>
        <time>2021-08-03T13:46:13Z</time>
      </trkpt>
      <trkpt lat="48.39856" lon="7.32119">
        <ele>644.9</ele>
        <time>2021-08-03T13:46:14Z</time>
      </trkpt>
      <trkpt lat="48.39855" lon="7.3212">
        <ele>644.9</ele>
        <time>2021-08-03T13:46:16Z</time>
      </trkpt>
      <trkpt lat="48.39855" lon="7.32121">
        <ele>644.9</ele>
        <time>2021-08-03T13:46:17Z</time>
      </trkpt>
      <trkpt lat="48.39855" lon="7.32124">
        <ele>644.9</ele>
        <time>2021-08-03T13:46:19Z</time>
      </trkpt>
      <trkpt lat="48.39855" lon="7.32126">
        <ele>644.9</ele>
        <time>2021-08-03T13:46:20Z</time>
      </trkpt>
      <trkpt lat="48.39845" lon="7.32126">
        <ele>645.3</ele>
        <time>2021-08-03T13:47:55Z</time>
      </trkpt>
      <trkpt lat="48.39841" lon="7.32118">
        <ele>645.6</ele>
        <time>2021-08-03T13:47:57Z</time>
      </trkpt>
      <trkpt lat="48.39834" lon="7.32115">
        <ele>646</ele>
        <time>2021-08-03T13:47:59Z</time>
      </trkpt>
      <trkpt lat="48.3983" lon="7.32114">
        <ele>646.3</ele>
        <time>2021-08-03T13:48:00Z</time>
      </trkpt>
      <trkpt lat="48.39828" lon="7.32114">
        <ele>646.5</ele>
        <time>2021-08-03T13:48:01Z</time>
      </trkpt>
      <trkpt lat="48.39824" lon="7.32115">
        <ele>646.7</ele>
        <time>2021-08-03T13:48:02Z</time>
      </trkpt>
      <trkpt lat="48.39824" lon="7.32114">
        <ele>646.8</ele>
        <time>2021-08-03T13:48:04Z</time>
      </trkpt>
      <trkpt lat="48.39824" lon="7.32113">
        <ele>646.8</ele>
        <time>2021-08-03T13:48:05Z</time>
      </trkpt>
      <trkpt lat="48.39822" lon="7.3211">
        <ele>647.1</ele>
        <time>2021-08-03T13:48:07Z</time>
      </trkpt>
      <trkpt lat="48.3982" lon="7.32103">
        <ele>647.6</ele>
        <time>2021-08-03T13:48:09Z</time>
      </trkpt>
      <trkpt lat="48.39819" lon="7.321">
        <ele>647.7</ele>
        <time>2021-08-03T13:48:10Z</time>
      </trkpt>
      <trkpt lat="48.39819" lon="7.32097">
        <ele>647.9</ele>
        <time>2021-08-03T13:48:11Z</time>
      </trkpt>
      <trkpt lat="48.39818" lon="7.32096">
        <ele>648</ele>
        <time>2021-08-03T13:48:12Z</time>
      </trkpt>
      <trkpt lat="48.39817" lon="7.32095">
        <ele>648.1</ele>
        <time>2021-08-03T13:48:13Z</time>
      </trkpt>
      <trkpt lat="48.39816" lon="7.32095">
        <ele>648.2</ele>
        <time>2021-08-03T13:48:14Z</time>
      </trkpt>
      <trkpt lat="48.39814" lon="7.32094">
        <ele>648.4</ele>
        <time>2021-08-03T13:48:16Z</time>
      </trkpt>
      <trkpt lat="48.39711" lon="7.32074">
        <ele>656.7</ele>
        <time>2021-08-03T13:49:44Z</time>
      </trkpt>
      <trkpt lat="48.39709" lon="7.32069">
        <ele>657</ele>
        <time>2021-08-03T13:49:45Z</time>
      </trkpt>
      <trkpt lat="48.39709" lon="7.32065">
        <ele>657.2</ele>
        <time>2021-08-03T13:49:46Z</time>
      </trkpt>
      <trkpt lat="48.39708" lon="7.32062">
        <ele>657.4</ele>
        <time>2021-08-03T13:49:48Z</time>
      </trkpt>
      <trkpt lat="48.39708" lon="7.32061">
        <ele>657.4</ele>
        <time>2021-08-03T13:49:49Z</time>
      </trkpt>
      <trkpt lat="48.39708" lon="7.32059">
        <ele>657.5</ele>
        <time>2021-08-03T13:49:50Z</time>
      </trkpt>
      <trkpt lat="48.39709" lon="7.32058">
        <ele>657.6</ele>
        <time>2021-08-03T13:49:51Z</time>
      </trkpt>
      <trkpt lat="48.39709" lon="7.32057">
        <ele>657.7</ele>
        <time>2021-08-03T13:49:53Z</time>
      </trkpt>
      <trkpt lat="48.39709" lon="7.32056">
        <ele>657.7</ele>
        <time>2021-08-03T13:49:54Z</time>
      </trkpt>
      <trkpt lat="48.39709" lon="7.32056">
        <ele>657.7</ele>
        <time>2021-08-03T13:49:55Z</time>
      </trkpt>
      <trkpt lat="48.397" lon="7.32045">
        <ele>658.8</ele>
        <time>2021-08-03T13:50:05Z</time>
      </trkpt>
      <trkpt lat="48.39696" lon="7.32043">
        <ele>659.2</ele>
        <time>2021-08-03T13:50:07Z</time>
      </trkpt>
      <trkpt lat="48.39692" lon="7.32043">
        <ele>659.6</ele>
        <time>2021-08-03T13:50:08Z</time>
      </trkpt>
      <trkpt lat="48.39688" lon="7.32044">
        <ele>660</ele>
        <time>2021-08-03T13:50:10Z</time>
      </trkpt>
      <trkpt lat="48.39681" lon="7.32047">
        <ele>660.8</ele>
        <time>2021-08-03T13:50:12Z</time>
      </trkpt>
      <trkpt lat="48.39677" lon="7.32047">
        <ele>661.2</ele>
        <time>2021-08-03T13:50:14Z</time>
      </trkpt>
      <trkpt lat="48.39675" lon="7.32047">
        <ele>661.4</ele>
        <time>2021-08-03T13:50:16Z</time>
      </trkpt>
      <trkpt lat="48.39674" lon="7.32048">
        <ele>661.5</ele>
        <time>2021-08-03T13:50:17Z</time>
      </trkpt>
      <trkpt lat="48.39672" lon="7.32048">
        <ele>661.7</ele>
        <time>2021-08-03T13:50:18Z</time>
      </trkpt>
      <trkpt lat="48.39668" lon="7.32047">
        <ele>662.1</ele>
        <time>2021-08-03T13:50:20Z</time>
      </trkpt>
      <trkpt lat="48.39665" lon="7.32045">
        <ele>662.4</ele>
        <time>2021-08-03T13:50:22Z</time>
      </trkpt>
      <trkpt lat="48.39663" lon="7.32045">
        <ele>662.6</ele>
        <time>2021-08-03T13:50:24Z</time>
      </trkpt>
      <trkpt lat="48.39661" lon="7.32046">
        <ele>662.7</ele>
        <time>2021-08-03T13:50:26Z</time>
      </trkpt>
      <trkpt lat="48.3966" lon="7.32047">
        <ele>662.8</ele>
        <time>2021-08-03T13:50:27Z</time>
      </trkpt>
      <trkpt lat="48.39658" lon="7.32048">
        <ele>663</ele>
        <time>2021-08-03T13:50:28Z</time>
      </trkpt>
      <trkpt lat="48.39655" lon="7.32052">
        <ele>663.3</ele>
        <time>2021-08-03T13:50:30Z</time>
      </trkpt>
      <trkpt lat="48.3965" lon="7.32057">
        <ele>663.8</ele>
        <time>2021-08-03T13:50:32Z</time>
      </trkpt>
      <trkpt lat="48.39647" lon="7.32058">
        <ele>664.1</ele>
        <time>2021-08-03T13:50:33Z</time>
      </trkpt>
      <trkpt lat="48.39646" lon="7.32057">
        <ele>664.2</ele>
        <time>2021-08-03T13:50:34Z</time>
      </trkpt>
      <trkpt lat="48.39644" lon="7.32055">
        <ele>664.5</ele>
        <time>2021-08-03T13:50:36Z</time>
      </trkpt>
      <trkpt lat="48.39643" lon="7.32054">
        <ele>664.5</ele>
        <time>2021-08-03T13:50:37Z</time>
      </trkpt>
      <trkpt lat="48.39642" lon="7.32053">
        <ele>664.6</ele>
        <time>2021-08-03T13:50:38Z</time>
      </trkpt>
      <trkpt lat="48.39641" lon="7.32051">
        <ele>664.8</ele>
        <time>2021-08-03T13:50:39Z</time>
      </trkpt>
      <trkpt lat="48.3964" lon="7.32049">
        <ele>664.9</ele>
        <time>2021-08-03T13:50:41Z</time>
      </trkpt>
      <trkpt lat="48.39638" lon="7.32048">
        <ele>665.1</ele>
        <time>2021-08-03T13:50:42Z</time>
      </trkpt>
      <trkpt lat="48.39637" lon="7.32048">
        <ele>665.2</ele>
        <time>2021-08-03T13:50:44Z</time>
      </trkpt>
      <trkpt lat="48.39636" lon="7.32048">
        <ele>665.3</ele>
        <time>2021-08-03T13:50:45Z</time>
      </trkpt>
      <trkpt lat="48.39635" lon="7.32048">
        <ele>665.4</ele>
        <time>2021-08-03T13:50:47Z</time>
      </trkpt>
      <trkpt lat="48.39634" lon="7.32048">
        <ele>665.4</ele>
        <time>2021-08-03T13:50:48Z</time>
      </trkpt>
      <trkpt lat="48.39634" lon="7.32047">
        <ele>665.5</ele>
        <time>2021-08-03T13:50:50Z</time>
      </trkpt>
      <trkpt lat="48.39633" lon="7.32047">
        <ele>665.6</ele>
        <time>2021-08-03T13:50:52Z</time>
      </trkpt>
      <trkpt lat="48.39633" lon="7.32047">
        <ele>665.6</ele>
        <time>2021-08-03T13:50:54Z</time>
      </trkpt>
      <trkpt lat="48.39633" lon="7.32047">
        <ele>665.6</ele>
        <time>2021-08-03T13:50:55Z</time>
      </trkpt>
      <trkpt lat="48.39632" lon="7.32047">
        <ele>665.7</ele>
        <time>2021-08-03T13:50:57Z</time>
      </trkpt>
      <trkpt lat="48.39632" lon="7.32047">
        <ele>665.7</ele>
        <time>2021-08-03T13:50:58Z</time>
      </trkpt>
      <trkpt lat="48.39632" lon="7.32047">
        <ele>665.7</ele>
        <time>2021-08-03T13:50:59Z</time>
      </trkpt>
      <trkpt lat="48.39632" lon="7.32047">
        <ele>665.7</ele>
        <time>2021-08-03T13:51:01Z</time>
      </trkpt>
      <trkpt lat="48.39632" lon="7.32048">
        <ele>665.7</ele>
        <time>2021-08-03T13:51:02Z</time>
      </trkpt>
      <trkpt lat="48.39631" lon="7.32049">
        <ele>665.9</ele>
        <time>2021-08-03T13:51:03Z</time>
      </trkpt>
      <trkpt lat="48.3963" lon="7.32049">
        <ele>666</ele>
        <time>2021-08-03T13:51:04Z</time>
      </trkpt>
      <trkpt lat="48.39628" lon="7.32049">
        <ele>666.1</ele>
        <time>2021-08-03T13:51:06Z</time>
      </trkpt>
      <trkpt lat="48.39627" lon="7.32049">
        <ele>666.2</ele>
        <time>2021-08-03T13:51:07Z</time>
      </trkpt>
      <trkpt lat="48.39626" lon="7.32049">
        <ele>666.3</ele>
        <time>2021-08-03T13:51:08Z</time>
      </trkpt>
      <trkpt lat="48.39626" lon="7.32049">
        <ele>666.4</ele>
        <time>2021-08-03T13:51:09Z</time>
      </trkpt>
      <trkpt lat="48.39625" lon="7.32049">
        <ele>666.5</ele>
        <time>2021-08-03T13:51:10Z</time>
      </trkpt>
      <trkpt lat="48.39624" lon="7.32049">
        <ele>666.6</ele>
        <time>2021-08-03T13:51:11Z</time>
      </trkpt>
      <trkpt lat="48.39623" lon="7.32049">
        <ele>666.7</ele>
        <time>2021-08-03T13:51:12Z</time>
      </trkpt>
      <trkpt lat="48.39622" lon="7.32048">
        <ele>666.8</ele>
        <time>2021-08-03T13:51:14Z</time>
      </trkpt>
      <trkpt lat="48.39621" lon="7.32048">
        <ele>666.9</ele>
        <time>2021-08-03T13:51:15Z</time>
      </trkpt>
      <trkpt lat="48.3962" lon="7.32048">
        <ele>667</ele>
        <time>2021-08-03T13:51:17Z</time>
      </trkpt>
      <trkpt lat="48.3962" lon="7.32048">
        <ele>667</ele>
        <time>2021-08-03T13:51:18Z</time>
      </trkpt>
      <trkpt lat="48.3962" lon="7.32047">
        <ele>667.1</ele>
        <time>2021-08-03T13:51:19Z</time>
      </trkpt>
      <trkpt lat="48.39618" lon="7.32045">
        <ele>667.3</ele>
        <time>2021-08-03T13:51:21Z</time>
      </trkpt>
      <trkpt lat="48.39617" lon="7.32044">
        <ele>667.5</ele>
        <time>2021-08-03T13:51:22Z</time>
      </trkpt>
      <trkpt lat="48.39617" lon="7.32043">
        <ele>667.6</ele>
        <time>2021-08-03T13:51:23Z</time>
      </trkpt>
      <trkpt lat="48.39616" lon="7.32041">
        <ele>667.7</ele>
        <time>2021-08-03T13:51:25Z</time>
      </trkpt>
      <trkpt lat="48.39615" lon="7.32041">
        <ele>667.8</ele>
        <time>2021-08-03T13:51:26Z</time>
      </trkpt>
      <trkpt lat="48.39614" lon="7.3204">
        <ele>667.9</ele>
        <time>2021-08-03T13:51:27Z</time>
      </trkpt>
      <trkpt lat="48.39613" lon="7.3204">
        <ele>668.1</ele>
        <time>2021-08-03T13:51:29Z</time>
      </trkpt>
      <trkpt lat="48.39612" lon="7.3204">
        <ele>668.2</ele>
        <time>2021-08-03T13:51:30Z</time>
      </trkpt>
      <trkpt lat="48.39611" lon="7.3204">
        <ele>668.3</ele>
        <time>2021-08-03T13:51:31Z</time>
      </trkpt>
      <trkpt lat="48.3961" lon="7.32041">
        <ele>668.4</ele>
        <time>2021-08-03T13:51:32Z</time>
      </trkpt>
      <trkpt lat="48.3961" lon="7.32043">
        <ele>668.5</ele>
        <time>2021-08-03T13:51:34Z</time>
      </trkpt>
      <trkpt lat="48.39609" lon="7.32044">
        <ele>668.6</ele>
        <time>2021-08-03T13:51:35Z</time>
      </trkpt>
      <trkpt lat="48.39609" lon="7.32045">
        <ele>668.7</ele>
        <time>2021-08-03T13:51:36Z</time>
      </trkpt>
      <trkpt lat="48.39609" lon="7.32047">
        <ele>668.9</ele>
        <time>2021-08-03T13:51:37Z</time>
      </trkpt>
      <trkpt lat="48.39609" lon="7.32052">
        <ele>669.2</ele>
        <time>2021-08-03T13:51:39Z</time>
      </trkpt>
      <trkpt lat="48.39609" lon="7.32055">
        <ele>669.4</ele>
        <time>2021-08-03T13:51:40Z</time>
      </trkpt>
      <trkpt lat="48.39609" lon="7.3206">
        <ele>669.8</ele>
        <time>2021-08-03T13:51:42Z</time>
      </trkpt>
      <trkpt lat="48.39602" lon="7.3206">
        <ele>670.4</ele>
        <time>2021-08-03T13:51:44Z</time>
      </trkpt>
      <trkpt lat="48.39597" lon="7.32056">
        <ele>671</ele>
        <time>2021-08-03T13:51:46Z</time>
      </trkpt>
      <trkpt lat="48.39591" lon="7.32052">
        <ele>671.6</ele>
        <time>2021-08-03T13:51:47Z</time>
      </trkpt>
      <trkpt lat="48.39578" lon="7.3204">
        <ele>672.9</ele>
        <time>2021-08-03T13:51:48Z</time>
      </trkpt>
      <trkpt lat="48.39567" lon="7.32032">
        <ele>673.9</ele>
        <time>2021-08-03T13:51:50Z</time>
      </trkpt>
      <trkpt lat="48.39562" lon="7.32029">
        <ele>674.3</ele>
        <time>2021-08-03T13:51:51Z</time>
      </trkpt>
      <trkpt lat="48.3956" lon="7.32027">
        <ele>674.5</ele>
        <time>2021-08-03T13:51:52Z</time>
      </trkpt>
      <trkpt lat="48.3956" lon="7.32025">
        <ele>674.5</ele>
        <time>2021-08-03T13:51:54Z</time>
      </trkpt>
      <trkpt lat="48.3956" lon="7.32024">
        <ele>674.6</ele>
        <time>2021-08-03T13:51:55Z</time>
      </trkpt>
      <trkpt lat="48.39559" lon="7.32023">
        <ele>674.7</ele>
        <time>2021-08-03T13:51:56Z</time>
      </trkpt>
      <trkpt lat="48.39559" lon="7.32021">
        <ele>674.8</ele>
        <time>2021-08-03T13:51:58Z</time>
      </trkpt>
      <trkpt lat="48.39559" lon="7.3202">
        <ele>674.8</ele>
        <time>2021-08-03T13:51:59Z</time>
      </trkpt>
      <trkpt lat="48.39558" lon="7.32018">
        <ele>674.9</ele>
        <time>2021-08-03T13:52:00Z</time>
      </trkpt>
      <trkpt lat="48.39558" lon="7.32017">
        <ele>675</ele>
        <time>2021-08-03T13:52:01Z</time>
      </trkpt>
      <trkpt lat="48.39559" lon="7.32015">
        <ele>675.1</ele>
        <time>2021-08-03T13:52:03Z</time>
      </trkpt>
      <trkpt lat="48.3956" lon="7.32013">
        <ele>675.2</ele>
        <time>2021-08-03T13:52:04Z</time>
      </trkpt>
      <trkpt lat="48.3956" lon="7.3201">
        <ele>675.4</ele>
        <time>2021-08-03T13:52:05Z</time>
      </trkpt>
      <trkpt lat="48.39561" lon="7.32008">
        <ele>675.5</ele>
        <time>2021-08-03T13:52:07Z</time>
      </trkpt>
      <trkpt lat="48.39561" lon="7.32004">
        <ele>675.7</ele>
        <time>2021-08-03T13:52:08Z</time>
      </trkpt>
      <trkpt lat="48.39561" lon="7.32001">
        <ele>675.9</ele>
        <time>2021-08-03T13:52:09Z</time>
      </trkpt>
      <trkpt lat="48.39561" lon="7.31998">
        <ele>676.1</ele>
        <time>2021-08-03T13:52:11Z</time>
      </trkpt>
      <trkpt lat="48.39561" lon="7.31993">
        <ele>676.3</ele>
        <time>2021-08-03T13:52:12Z</time>
      </trkpt>
      <trkpt lat="48.39561" lon="7.31992">
        <ele>676.4</ele>
        <time>2021-08-03T13:52:13Z</time>
      </trkpt>
      <trkpt lat="48.3956" lon="7.3199">
        <ele>676.5</ele>
        <time>2021-08-03T13:52:14Z</time>
      </trkpt>
      <trkpt lat="48.39559" lon="7.31989">
        <ele>676.6</ele>
        <time>2021-08-03T13:52:15Z</time>
      </trkpt>
      <trkpt lat="48.39558" lon="7.31988">
        <ele>676.7</ele>
        <time>2021-08-03T13:52:17Z</time>
      </trkpt>
      <trkpt lat="48.39557" lon="7.31986">
        <ele>676.8</ele>
        <time>2021-08-03T13:52:18Z</time>
      </trkpt>
      <trkpt lat="48.39556" lon="7.31985">
        <ele>676.9</ele>
        <time>2021-08-03T13:52:19Z</time>
      </trkpt>
      <trkpt lat="48.39553" lon="7.31984">
        <ele>677.2</ele>
        <time>2021-08-03T13:52:20Z</time>
      </trkpt>
      <trkpt lat="48.39552" lon="7.31985">
        <ele>677.3</ele>
        <time>2021-08-03T13:52:22Z</time>
      </trkpt>
      <trkpt lat="48.39551" lon="7.31985">
        <ele>677.4</ele>
        <time>2021-08-03T13:52:23Z</time>
      </trkpt>
      <trkpt lat="48.39549" lon="7.31985">
        <ele>677.5</ele>
        <time>2021-08-03T13:52:24Z</time>
      </trkpt>
      <trkpt lat="48.39548" lon="7.31986">
        <ele>677.7</ele>
        <time>2021-08-03T13:52:26Z</time>
      </trkpt>
      <trkpt lat="48.39545" lon="7.31987">
        <ele>677.9</ele>
        <time>2021-08-03T13:52:28Z</time>
      </trkpt>
      <trkpt lat="48.39543" lon="7.31985">
        <ele>678.1</ele>
        <time>2021-08-03T13:52:29Z</time>
      </trkpt>
      <trkpt lat="48.39537" lon="7.31996">
        <ele>679</ele>
        <time>2021-08-03T13:52:31Z</time>
      </trkpt>
      <trkpt lat="48.39532" lon="7.32004">
        <ele>679.6</ele>
        <time>2021-08-03T13:52:33Z</time>
      </trkpt>
      <trkpt lat="48.39531" lon="7.32006">
        <ele>679.8</ele>
        <time>2021-08-03T13:52:34Z</time>
      </trkpt>
      <trkpt lat="48.39531" lon="7.32006">
        <ele>679.8</ele>
        <time>2021-08-03T13:52:35Z</time>
      </trkpt>
      <trkpt lat="48.39531" lon="7.32007">
        <ele>679.9</ele>
        <time>2021-08-03T13:52:37Z</time>
      </trkpt>
      <trkpt lat="48.39531" lon="7.32007">
        <ele>679.9</ele>
        <time>2021-08-03T13:52:38Z</time>
      </trkpt>
      <trkpt lat="48.39531" lon="7.32007">
        <ele>679.9</ele>
        <time>2021-08-03T13:52:39Z</time>
      </trkpt>
      <trkpt lat="48.39457" lon="7.31873">
        <ele>691</ele>
        <time>2021-08-03T13:54:43Z</time>
      </trkpt>
      <trkpt lat="48.39456" lon="7.31868">
        <ele>691.4</ele>
        <time>2021-08-03T13:54:44Z</time>
      </trkpt>
      <trkpt lat="48.39455" lon="7.31865">
        <ele>691.6</ele>
        <time>2021-08-03T13:54:45Z</time>
      </trkpt>
      <trkpt lat="48.39455" lon="7.31864">
        <ele>691.7</ele>
        <time>2021-08-03T13:54:46Z</time>
      </trkpt>
      <trkpt lat="48.39455" lon="7.31862">
        <ele>691.8</ele>
        <time>2021-08-03T13:54:48Z</time>
      </trkpt>
      <trkpt lat="48.39454" lon="7.3186">
        <ele>691.9</ele>
        <time>2021-08-03T13:54:49Z</time>
      </trkpt>
      <trkpt lat="48.39453" lon="7.31859">
        <ele>692.1</ele>
        <time>2021-08-03T13:54:51Z</time>
      </trkpt>
      <trkpt lat="48.39452" lon="7.31858">
        <ele>692.2</ele>
        <time>2021-08-03T13:54:52Z</time>
      </trkpt>
      <trkpt lat="48.3945" lon="7.31857">
        <ele>692.4</ele>
        <time>2021-08-03T13:54:53Z</time>
      </trkpt>
      <trkpt lat="48.39449" lon="7.31856">
        <ele>692.5</ele>
        <time>2021-08-03T13:54:54Z</time>
      </trkpt>
      <trkpt lat="48.39447" lon="7.31855">
        <ele>692.6</ele>
        <time>2021-08-03T13:54:55Z</time>
      </trkpt>
      <trkpt lat="48.39446" lon="7.31854">
        <ele>692.8</ele>
        <time>2021-08-03T13:54:57Z</time>
      </trkpt>
      <trkpt lat="48.39445" lon="7.31853">
        <ele>692.9</ele>
        <time>2021-08-03T13:54:58Z</time>
      </trkpt>
      <trkpt lat="48.39445" lon="7.31853">
        <ele>692.9</ele>
        <time>2021-08-03T13:54:59Z</time>
      </trkpt>
      <trkpt lat="48.38755" lon="7.31803">
        <ele>743.8</ele>
        <time>2021-08-03T14:04:22Z</time>
      </trkpt>
      <trkpt lat="48.38751" lon="7.31808">
        <ele>743.9</ele>
        <time>2021-08-03T14:04:23Z</time>
      </trkpt>
      <trkpt lat="48.38747" lon="7.31814">
        <ele>744.1</ele>
        <time>2021-08-03T14:04:25Z</time>
      </trkpt>
      <trkpt lat="48.38741" lon="7.31823">
        <ele>744.3</ele>
        <time>2021-08-03T14:04:27Z</time>
      </trkpt>
      <trkpt lat="48.38739" lon="7.31827">
        <ele>744.3</ele>
        <time>2021-08-03T14:04:28Z</time>
      </trkpt>
      <trkpt lat="48.38737" lon="7.31833">
        <ele>744.4</ele>
        <time>2021-08-03T14:04:29Z</time>
      </trkpt>
      <trkpt lat="48.38736" lon="7.31836">
        <ele>744.5</ele>
        <time>2021-08-03T14:04:30Z</time>
      </trkpt>
      <trkpt lat="48.38736" lon="7.3184">
        <ele>744.6</ele>
        <time>2021-08-03T14:04:31Z</time>
      </trkpt>
      <trkpt lat="48.38737" lon="7.31843">
        <ele>744.6</ele>
        <time>2021-08-03T14:04:32Z</time>
      </trkpt>
      <trkpt lat="48.38737" lon="7.31845">
        <ele>744.7</ele>
        <time>2021-08-03T14:04:33Z</time>
      </trkpt>
      <trkpt lat="48.38737" lon="7.31845">
        <ele>744.7</ele>
        <time>2021-08-03T14:04:35Z</time>
      </trkpt>
      <trkpt lat="48.38739" lon="7.31848">
        <ele>744.7</ele>
        <time>2021-08-03T14:04:36Z</time>
      </trkpt>
      <trkpt lat="48.3874" lon="7.3185">
        <ele>744.8</ele>
        <time>2021-08-03T14:04:38Z</time>
      </trkpt>
      <trkpt lat="48.38741" lon="7.31852">
        <ele>744.8</ele>
        <time>2021-08-03T14:04:39Z</time>
      </trkpt>
      <trkpt lat="48.38741" lon="7.31854">
        <ele>744.8</ele>
        <time>2021-08-03T14:04:40Z</time>
      </trkpt>
      <trkpt lat="48.38742" lon="7.31857">
        <ele>744.9</ele>
        <time>2021-08-03T14:04:42Z</time>
      </trkpt>
      <trkpt lat="48.38696" lon="7.32013">
        <ele>746.5</ele>
        <time>2021-08-03T14:05:23Z</time>
      </trkpt>
      <trkpt lat="48.38694" lon="7.32019">
        <ele>746.6</ele>
        <time>2021-08-03T14:05:24Z</time>
      </trkpt>
      <trkpt lat="48.38692" lon="7.32026">
        <ele>746.7</ele>
        <time>2021-08-03T14:05:25Z</time>
      </trkpt>
      <trkpt lat="48.38691" lon="7.32034">
        <ele>746.9</ele>
        <time>2021-08-03T14:05:27Z</time>
      </trkpt>
      <trkpt lat="48.38692" lon="7.3204">
        <ele>747</ele>
        <time>2021-08-03T14:05:28Z</time>
      </trkpt>
      <trkpt lat="48.38693" lon="7.32046">
        <ele>747.1</ele>
        <time>2021-08-03T14:05:30Z</time>
      </trkpt>
      <trkpt lat="48.38694" lon="7.32051">
        <ele>747.2</ele>
        <time>2021-08-03T14:05:31Z</time>
      </trkpt>
      <trkpt lat="48.38695" lon="7.32052">
        <ele>747.2</ele>
        <time>2021-08-03T14:05:32Z</time>
      </trkpt>
      <trkpt lat="48.38697" lon="7.32055">
        <ele>747.3</ele>
        <time>2021-08-03T14:05:33Z</time>
      </trkpt>
      <trkpt lat="48.38697" lon="7.32057">
        <ele>747.3</ele>
        <time>2021-08-03T14:05:34Z</time>
      </trkpt>
      <trkpt lat="48.38698" lon="7.32063">
        <ele>747.4</ele>
        <time>2021-08-03T14:05:35Z</time>
      </trkpt>
      <trkpt lat="48.38698" lon="7.32065">
        <ele>747.5</ele>
        <time>2021-08-03T14:05:36Z</time>
      </trkpt>
      <trkpt lat="48.38697" lon="7.32072">
        <ele>747.6</ele>
        <time>2021-08-03T14:05:38Z</time>
      </trkpt>
      <trkpt lat="48.38697" lon="7.32077">
        <ele>747.7</ele>
        <time>2021-08-03T14:05:39Z</time>
      </trkpt>
      <trkpt lat="48.38698" lon="7.32083">
        <ele>747.7</ele>
        <time>2021-08-03T14:05:41Z</time>
      </trkpt>
      <trkpt lat="48.38698" lon="7.32088">
        <ele>747.8</ele>
        <time>2021-08-03T14:05:42Z</time>
      </trkpt>
      <trkpt lat="48.38699" lon="7.32093">
        <ele>747.9</ele>
        <time>2021-08-03T14:05:43Z</time>
      </trkpt>
      <trkpt lat="48.387" lon="7.32094">
        <ele>747.9</ele>
        <time>2021-08-03T14:05:44Z</time>
      </trkpt>
      <trkpt lat="48.38701" lon="7.32102">
        <ele>748</ele>
        <time>2021-08-03T14:05:46Z</time>
      </trkpt>
      <trkpt lat="48.38702" lon="7.32107">
        <ele>748</ele>
        <time>2021-08-03T14:05:47Z</time>
      </trkpt>
      <trkpt lat="48.38703" lon="7.32111">
        <ele>748</ele>
        <time>2021-08-03T14:05:48Z</time>
      </trkpt>
      <trkpt lat="48.38704" lon="7.32116">
        <ele>748.1</ele>
        <time>2021-08-03T14:05:49Z</time>
      </trkpt>
      <trkpt lat="48.38705" lon="7.32119">
        <ele>748.2</ele>
        <time>2021-08-03T14:05:50Z</time>
      </trkpt>
      <trkpt lat="48.38707" lon="7.32124">
        <ele>748.2</ele>
        <time>2021-08-03T14:05:52Z</time>
      </trkpt>
      <trkpt lat="48.38707" lon="7.32126">
        <ele>748.3</ele>
        <time>2021-08-03T14:05:53Z</time>
      </trkpt>
      <trkpt lat="48.38707" lon="7.32129">
        <ele>748.3</ele>
        <time>2021-08-03T14:05:54Z</time>
      </trkpt>
      <trkpt lat="48.38708" lon="7.32133">
        <ele>748.4</ele>
        <time>2021-08-03T14:05:56Z</time>
      </trkpt>
      <trkpt lat="48.38708" lon="7.32137">
        <ele>748.4</ele>
        <time>2021-08-03T14:05:57Z</time>
      </trkpt>
      <trkpt lat="48.38707" lon="7.32139">
        <ele>748.4</ele>
        <time>2021-08-03T14:05:58Z</time>
      </trkpt>
      <trkpt lat="48.38706" lon="7.32144">
        <ele>748.5</ele>
        <time>2021-08-03T14:05:59Z</time>
      </trkpt>
      <trkpt lat="48.38703" lon="7.32152">
        <ele>748.6</ele>
        <time>2021-08-03T14:06:01Z</time>
      </trkpt>
      <trkpt lat="48.38702" lon="7.32156">
        <ele>748.7</ele>
        <time>2021-08-03T14:06:02Z</time>
      </trkpt>
      <trkpt lat="48.387" lon="7.32162">
        <ele>748.8</ele>
        <time>2021-08-03T14:06:03Z</time>
      </trkpt>
      <trkpt lat="48.38699" lon="7.32163">
        <ele>748.8</ele>
        <time>2021-08-03T14:06:04Z</time>
      </trkpt>
      <trkpt lat="48.38696" lon="7.32168">
        <ele>748.9</ele>
        <time>2021-08-03T14:06:06Z</time>
      </trkpt>
      <trkpt lat="48.38693" lon="7.3217">
        <ele>749</ele>
        <time>2021-08-03T14:06:07Z</time>
      </trkpt>
      <trkpt lat="48.38692" lon="7.32171">
        <ele>749</ele>
        <time>2021-08-03T14:06:08Z</time>
      </trkpt>
      <trkpt lat="48.38691" lon="7.32174">
        <ele>749</ele>
        <time>2021-08-03T14:06:09Z</time>
      </trkpt>
      <trkpt lat="48.38689" lon="7.32179">
        <ele>749.1</ele>
        <time>2021-08-03T14:06:11Z</time>
      </trkpt>
      <trkpt lat="48.38687" lon="7.32184">
        <ele>749.2</ele>
        <time>2021-08-03T14:06:12Z</time>
      </trkpt>
      <trkpt lat="48.38684" lon="7.32195">
        <ele>749.4</ele>
        <time>2021-08-03T14:06:13Z</time>
      </trkpt>
      <trkpt lat="48.38682" lon="7.32205">
        <ele>749.5</ele>
        <time>2021-08-03T14:06:15Z</time>
      </trkpt>
      <trkpt lat="48.3868" lon="7.32214">
        <ele>749.6</ele>
        <time>2021-08-03T14:06:16Z</time>
      </trkpt>
      <trkpt lat="48.3868" lon="7.32219">
        <ele>749.7</ele>
        <time>2021-08-03T14:06:17Z</time>
      </trkpt>
      <trkpt lat="48.3868" lon="7.32223">
        <ele>749.8</ele>
        <time>2021-08-03T14:06:18Z</time>
      </trkpt>
      <trkpt lat="48.38681" lon="7.32227">
        <ele>749.8</ele>
        <time>2021-08-03T14:06:20Z</time>
      </trkpt>
      <trkpt lat="48.38681" lon="7.32231">
        <ele>749.9</ele>
        <time>2021-08-03T14:06:21Z</time>
      </trkpt>
      <trkpt lat="48.38682" lon="7.32233">
        <ele>749.9</ele>
        <time>2021-08-03T14:06:23Z</time>
      </trkpt>
      <trkpt lat="48.38683" lon="7.32235">
        <ele>749.9</ele>
        <time>2021-08-03T14:06:24Z</time>
      </trkpt>
      <trkpt lat="48.38683" lon="7.3224">
        <ele>750</ele>
        <time>2021-08-03T14:06:25Z</time>
      </trkpt>
      <trkpt lat="48.38682" lon="7.32243">
        <ele>750.1</ele>
        <time>2021-08-03T14:06:26Z</time>
      </trkpt>
      <trkpt lat="48.38681" lon="7.32248">
        <ele>750.2</ele>
        <time>2021-08-03T14:06:28Z</time>
      </trkpt>
      <trkpt lat="48.38681" lon="7.32251">
        <ele>750.2</ele>
        <time>2021-08-03T14:06:29Z</time>
      </trkpt>
      <trkpt lat="48.38682" lon="7.32253">
        <ele>750.2</ele>
        <time>2021-08-03T14:06:31Z</time>
      </trkpt>
      <trkpt lat="48.38683" lon="7.32255">
        <ele>750.3</ele>
        <time>2021-08-03T14:06:32Z</time>
      </trkpt>
      <trkpt lat="48.38685" lon="7.32263">
        <ele>750.4</ele>
        <time>2021-08-03T14:06:34Z</time>
      </trkpt>
      <trkpt lat="48.38687" lon="7.32269">
        <ele>750.5</ele>
        <time>2021-08-03T14:06:35Z</time>
      </trkpt>
      <trkpt lat="48.38689" lon="7.32279">
        <ele>750.7</ele>
        <time>2021-08-03T14:06:37Z</time>
      </trkpt>
      <trkpt lat="48.38689" lon="7.32286">
        <ele>750.8</ele>
        <time>2021-08-03T14:06:39Z</time>
      </trkpt>
      <trkpt lat="48.38692" lon="7.32292">
        <ele>751</ele>
        <time>2021-08-03T14:06:41Z</time>
      </trkpt>
      <trkpt lat="48.38693" lon="7.32295">
        <ele>751</ele>
        <time>2021-08-03T14:06:42Z</time>
      </trkpt>
      <trkpt lat="48.38695" lon="7.32298">
        <ele>751.1</ele>
        <time>2021-08-03T14:06:44Z</time>
      </trkpt>
      <trkpt lat="48.38698" lon="7.323">
        <ele>751.3</ele>
        <time>2021-08-03T14:06:45Z</time>
      </trkpt>
      <trkpt lat="48.387" lon="7.32301">
        <ele>751.3</ele>
        <time>2021-08-03T14:06:47Z</time>
      </trkpt>
      <trkpt lat="48.387" lon="7.32302">
        <ele>751.3</ele>
        <time>2021-08-03T14:06:48Z</time>
      </trkpt>
      <trkpt lat="48.387" lon="7.32303">
        <ele>751.4</ele>
        <time>2021-08-03T14:06:49Z</time>
      </trkpt>
      <trkpt lat="48.38699" lon="7.32304">
        <ele>751.4</ele>
        <time>2021-08-03T14:06:50Z</time>
      </trkpt>
      <trkpt lat="48.38697" lon="7.32308">
        <ele>751.5</ele>
        <time>2021-08-03T14:06:52Z</time>
      </trkpt>
      <trkpt lat="48.38695" lon="7.3231">
        <ele>751.6</ele>
        <time>2021-08-03T14:06:53Z</time>
      </trkpt>
      <trkpt lat="48.38694" lon="7.32311">
        <ele>751.7</ele>
        <time>2021-08-03T14:06:55Z</time>
      </trkpt>
      <trkpt lat="48.38678" lon="7.32318">
        <ele>752.6</ele>
        <time>2021-08-03T14:07:13Z</time>
      </trkpt>
      <trkpt lat="48.38676" lon="7.32315">
        <ele>755</ele>
        <time>2021-08-03T14:07:14Z</time>
      </trkpt>
      <trkpt lat="48.38673" lon="7.32309">
        <ele>755.4</ele>
        <time>2021-08-03T14:07:16Z</time>
      </trkpt>
      <trkpt lat="48.3867" lon="7.32308">
        <ele>755.6</ele>
        <time>2021-08-03T14:07:18Z</time>
      </trkpt>
      <trkpt lat="48.3867" lon="7.32306">
        <ele>755.7</ele>
        <time>2021-08-03T14:07:20Z</time>
      </trkpt>
      <trkpt lat="48.38671" lon="7.32305">
        <ele>755.8</ele>
        <time>2021-08-03T14:07:21Z</time>
      </trkpt>
      <trkpt lat="48.38671" lon="7.32304">
        <ele>755.8</ele>
        <time>2021-08-03T14:07:22Z</time>
      </trkpt>
      <trkpt lat="48.38671" lon="7.32303">
        <ele>755.9</ele>
        <time>2021-08-03T14:07:23Z</time>
      </trkpt>
      <trkpt lat="48.38671" lon="7.32302">
        <ele>756</ele>
        <time>2021-08-03T14:07:25Z</time>
      </trkpt>
      <trkpt lat="48.38686" lon="7.32175">
        <ele>763.7</ele>
        <time>2021-08-03T14:08:48Z</time>
      </trkpt>
      <trkpt lat="48.3868" lon="7.32171">
        <ele>764.4</ele>
        <time>2021-08-03T14:08:50Z</time>
      </trkpt>
      <trkpt lat="48.38676" lon="7.32169">
        <ele>764.8</ele>
        <time>2021-08-03T14:08:51Z</time>
      </trkpt>
      <trkpt lat="48.38673" lon="7.32167">
        <ele>765.2</ele>
        <time>2021-08-03T14:08:52Z</time>
      </trkpt>
      <trkpt lat="48.38669" lon="7.32166">
        <ele>765.5</ele>
        <time>2021-08-03T14:08:54Z</time>
      </trkpt>
      <trkpt lat="48.38664" lon="7.32164">
        <ele>766</ele>
        <time>2021-08-03T14:08:55Z</time>
      </trkpt>
      <trkpt lat="48.38661" lon="7.32163">
        <ele>766.3</ele>
        <time>2021-08-03T14:08:56Z</time>
      </trkpt>
      <trkpt lat="48.38658" lon="7.32163">
        <ele>766.6</ele>
        <time>2021-08-03T14:08:57Z</time>
      </trkpt>
      <trkpt lat="48.38657" lon="7.32163">
        <ele>766.7</ele>
        <time>2021-08-03T14:08:58Z</time>
      </trkpt>
      <trkpt lat="48.38655" lon="7.32163">
        <ele>766.9</ele>
        <time>2021-08-03T14:09:00Z</time>
      </trkpt>
      <trkpt lat="48.38654" lon="7.32163">
        <ele>766.9</ele>
        <time>2021-08-03T14:09:01Z</time>
      </trkpt>
      <trkpt lat="48.38652" lon="7.32163">
        <ele>767.2</ele>
        <time>2021-08-03T14:09:03Z</time>
      </trkpt>
      <trkpt lat="48.38648" lon="7.32164">
        <ele>767.6</ele>
        <time>2021-08-03T14:09:04Z</time>
      </trkpt>
      <trkpt lat="48.38646" lon="7.32164">
        <ele>767.8</ele>
        <time>2021-08-03T14:09:05Z</time>
      </trkpt>
      <trkpt lat="48.38645" lon="7.32165">
        <ele>767.9</ele>
        <time>2021-08-03T14:09:07Z</time>
      </trkpt>
      <trkpt lat="48.3848" lon="7.31725">
        <ele>809.5</ele>
        <time>2021-08-03T14:17:19Z</time>
      </trkpt>
      <trkpt lat="48.38479" lon="7.31723">
        <ele>809.8</ele>
        <time>2021-08-03T14:17:20Z</time>
      </trkpt>
      <trkpt lat="48.38475" lon="7.31717">
        <ele>810.5</ele>
        <time>2021-08-03T14:17:22Z</time>
      </trkpt>
      <trkpt lat="48.38473" lon="7.31714">
        <ele>810.9</ele>
        <time>2021-08-03T14:17:23Z</time>
      </trkpt>
      <trkpt lat="48.38472" lon="7.31711">
        <ele>811.1</ele>
        <time>2021-08-03T14:17:24Z</time>
      </trkpt>
      <trkpt lat="48.38472" lon="7.31709">
        <ele>811.3</ele>
        <time>2021-08-03T14:17:25Z</time>
      </trkpt>
      <trkpt lat="48.38472" lon="7.31709">
        <ele>811.4</ele>
        <time>2021-08-03T14:17:27Z</time>
      </trkpt>
      <trkpt lat="48.38472" lon="7.31708">
        <ele>811.4</ele>
        <time>2021-08-03T14:17:28Z</time>
      </trkpt>
      <trkpt lat="48.38472" lon="7.31708">
        <ele>811.5</ele>
        <time>2021-08-03T14:17:29Z</time>
      </trkpt>
      <trkpt lat="48.38472" lon="7.31707">
        <ele>811.5</ele>
        <time>2021-08-03T14:17:30Z</time>
      </trkpt>
      <trkpt lat="48.38472" lon="7.31707">
        <ele>811.6</ele>
        <time>2021-08-03T14:17:31Z</time>
      </trkpt>
      <trkpt lat="48.38472" lon="7.31707">
        <ele>811.6</ele>
        <time>2021-08-03T14:17:32Z</time>
      </trkpt>
      <trkpt lat="48.38472" lon="7.31706">
        <ele>811.6</ele>
        <time>2021-08-03T14:17:34Z</time>
      </trkpt>
      <trkpt lat="48.38476" lon="7.31677">
        <ele>814.4</ele>
        <time>2021-08-03T14:17:48Z</time>
      </trkpt>
      <trkpt lat="48.38476" lon="7.31674">
        <ele>814.7</ele>
        <time>2021-08-03T14:17:49Z</time>
      </trkpt>
      <trkpt lat="48.38476" lon="7.3167">
        <ele>815</ele>
        <time>2021-08-03T14:17:51Z</time>
      </trkpt>
      <trkpt lat="48.38475" lon="7.31666">
        <ele>815.5</ele>
        <time>2021-08-03T14:17:52Z</time>
      </trkpt>
      <trkpt lat="48.38474" lon="7.31664">
        <ele>815.7</ele>
        <time>2021-08-03T14:17:53Z</time>
      </trkpt>
      <trkpt lat="48.38473" lon="7.31662">
        <ele>816</ele>
        <time>2021-08-03T14:17:54Z</time>
      </trkpt>
      <trkpt lat="48.38472" lon="7.31659">
        <ele>816.3</ele>
        <time>2021-08-03T14:17:55Z</time>
      </trkpt>
      <trkpt lat="48.3847" lon="7.31657">
        <ele>816.6</ele>
        <time>2021-08-03T14:17:57Z</time>
      </trkpt>
      <trkpt lat="48.38469" lon="7.31656">
        <ele>816.8</ele>
        <time>2021-08-03T14:17:58Z</time>
      </trkpt>
      <trkpt lat="48.38468" lon="7.31655">
        <ele>817</ele>
        <time>2021-08-03T14:18:00Z</time>
      </trkpt>
      <trkpt lat="48.38467" lon="7.31652">
        <ele>817.4</ele>
        <time>2021-08-03T14:18:01Z</time>
      </trkpt>
      <trkpt lat="48.38467" lon="7.31651">
        <ele>817.5</ele>
        <time>2021-08-03T14:18:02Z</time>
      </trkpt>
      <trkpt lat="48.38467" lon="7.3165">
        <ele>817.6</ele>
        <time>2021-08-03T14:18:04Z</time>
      </trkpt>
      <trkpt lat="48.38466" lon="7.31649">
        <ele>817.7</ele>
        <time>2021-08-03T14:18:05Z</time>
      </trkpt>
      <trkpt lat="48.38466" lon="7.31648">
        <ele>817.8</ele>
        <time>2021-08-03T14:18:06Z</time>
      </trkpt>
      <trkpt lat="48.38466" lon="7.31647">
        <ele>817.9</ele>
        <time>2021-08-03T14:18:07Z</time>
      </trkpt>
      <trkpt lat="48.38466" lon="7.31647">
        <ele>818</ele>
        <time>2021-08-03T14:18:09Z</time>
      </trkpt>
      <trkpt lat="48.38465" lon="7.31646">
        <ele>818.1</ele>
        <time>2021-08-03T14:18:10Z</time>
      </trkpt>
      <trkpt lat="48.38465" lon="7.31646">
        <ele>818.1</ele>
        <time>2021-08-03T14:18:11Z</time>
      </trkpt>
      <trkpt lat="48.38465" lon="7.31645">
        <ele>818.2</ele>
        <time>2021-08-03T14:18:12Z</time>
      </trkpt>
      <trkpt lat="48.38465" lon="7.31643">
        <ele>818.4</ele>
        <time>2021-08-03T14:18:14Z</time>
      </trkpt>
      <trkpt lat="48.38466" lon="7.31635">
        <ele>819.3</ele>
        <time>2021-08-03T14:18:43Z</time>
      </trkpt>
      <trkpt lat="48.38462" lon="7.31638">
        <ele>822.1</ele>
        <time>2021-08-03T14:18:45Z</time>
      </trkpt>
      <trkpt lat="48.38461" lon="7.31637">
        <ele>822.1</ele>
        <time>2021-08-03T14:18:46Z</time>
      </trkpt>
      <trkpt lat="48.38458" lon="7.31635">
        <ele>822.3</ele>
        <time>2021-08-03T14:18:48Z</time>
      </trkpt>
      <trkpt lat="48.38457" lon="7.31634">
        <ele>822.3</ele>
        <time>2021-08-03T14:18:49Z</time>
      </trkpt>
      <trkpt lat="48.38456" lon="7.31632">
        <ele>822.4</ele>
        <time>2021-08-03T14:18:50Z</time>
      </trkpt>
      <trkpt lat="48.38453" lon="7.3163">
        <ele>822.5</ele>
        <time>2021-08-03T14:18:52Z</time>
      </trkpt>
      <trkpt lat="48.38442" lon="7.31637">
        <ele>822.7</ele>
        <time>2021-08-03T14:18:54Z</time>
      </trkpt>
      <trkpt lat="48.38439" lon="7.31638">
        <ele>822.7</ele>
        <time>2021-08-03T14:18:55Z</time>
      </trkpt>
      <trkpt lat="48.38431" lon="7.31641">
        <ele>822.8</ele>
        <time>2021-08-03T14:18:57Z</time>
      </trkpt>
      <trkpt lat="48.38423" lon="7.31648">
        <ele>822.8</ele>
        <time>2021-08-03T14:18:59Z</time>
      </trkpt>
      <trkpt lat="48.38419" lon="7.31651">
        <ele>822.7</ele>
        <time>2021-08-03T14:19:00Z</time>
      </trkpt>
      <trkpt lat="48.3842" lon="7.31653">
        <ele>822.7</ele>
        <time>2021-08-03T14:19:01Z</time>
      </trkpt>
      <trkpt lat="48.3842" lon="7.31655">
        <ele>822.7</ele>
        <time>2021-08-03T14:19:03Z</time>
      </trkpt>
      <trkpt lat="48.38421" lon="7.31657">
        <ele>822.7</ele>
        <time>2021-08-03T14:19:04Z</time>
      </trkpt>
      <trkpt lat="48.38424" lon="7.31662">
        <ele>822.7</ele>
        <time>2021-08-03T14:19:06Z</time>
      </trkpt>
      <trkpt lat="48.3843" lon="7.31661">
        <ele>822.7</ele>
        <time>2021-08-03T14:19:08Z</time>
      </trkpt>
      <trkpt lat="48.38466" lon="7.31571">
        <ele>821.1</ele>
        <time>2021-08-03T14:19:56Z</time>
      </trkpt>
      <trkpt lat="48.38473" lon="7.31564">
        <ele>820.4</ele>
        <time>2021-08-03T14:19:58Z</time>
      </trkpt>
      <trkpt lat="48.38474" lon="7.31563">
        <ele>820.5</ele>
        <time>2021-08-03T14:19:59Z</time>
      </trkpt>
      <trkpt lat="48.38474" lon="7.31563">
        <ele>820.6</ele>
        <time>2021-08-03T14:20:01Z</time>
      </trkpt>
      <trkpt lat="48.38472" lon="7.31565">
        <ele>820.7</ele>
        <time>2021-08-03T14:20:02Z</time>
      </trkpt>
      <trkpt lat="48.38471" lon="7.31566">
        <ele>820.8</ele>
        <time>2021-08-03T14:20:03Z</time>
      </trkpt>
      <trkpt lat="48.3847" lon="7.31567">
        <ele>820.8</ele>
        <time>2021-08-03T14:20:04Z</time>
      </trkpt>
      <trkpt lat="48.38466" lon="7.31572">
        <ele>821.1</ele>
        <time>2021-08-03T14:20:05Z</time>
      </trkpt>
      <trkpt lat="48.38462" lon="7.31579">
        <ele>821.5</ele>
        <time>2021-08-03T14:20:07Z</time>
      </trkpt>
      <trkpt lat="48.38459" lon="7.31586">
        <ele>821.8</ele>
        <time>2021-08-03T14:20:09Z</time>
      </trkpt>
      <trkpt lat="48.38458" lon="7.31586">
        <ele>821.8</ele>
        <time>2021-08-03T14:20:13Z</time>
      </trkpt>
      <trkpt lat="48.38455" lon="7.31591">
        <ele>822</ele>
        <time>2021-08-03T14:20:14Z</time>
      </trkpt>
      <trkpt lat="48.38457" lon="7.31621">
        <ele>822.6</ele>
        <time>2021-08-03T14:20:34Z</time>
      </trkpt>
      <trkpt lat="48.38455" lon="7.31621">
        <ele>822.6</ele>
        <time>2021-08-03T14:20:35Z</time>
      </trkpt>
      <trkpt lat="48.38449" lon="7.31623">
        <ele>822.7</ele>
        <time>2021-08-03T14:20:37Z</time>
      </trkpt>
      <trkpt lat="48.38443" lon="7.31627">
        <ele>822.7</ele>
        <time>2021-08-03T14:20:39Z</time>
      </trkpt>
      <trkpt lat="48.38441" lon="7.31628">
        <ele>822.8</ele>
        <time>2021-08-03T14:20:40Z</time>
      </trkpt>
      <trkpt lat="48.3844" lon="7.31629">
        <ele>822.8</ele>
        <time>2021-08-03T14:20:42Z</time>
      </trkpt>
      <trkpt lat="48.3844" lon="7.3163">
        <ele>822.8</ele>
        <time>2021-08-03T14:20:43Z</time>
      </trkpt>
      <trkpt lat="48.38436" lon="7.31623">
        <ele>822.8</ele>
        <time>2021-08-03T14:20:45Z</time>
      </trkpt>
      <trkpt lat="48.38431" lon="7.31623">
        <ele>822.8</ele>
        <time>2021-08-03T14:20:46Z</time>
      </trkpt>
      <trkpt lat="48.38428" lon="7.31626">
        <ele>822.7</ele>
        <time>2021-08-03T14:20:48Z</time>
      </trkpt>
      <trkpt lat="48.38425" lon="7.31628">
        <ele>822.7</ele>
        <time>2021-08-03T14:21:29Z</time>
      </trkpt>
      <trkpt lat="48.38422" lon="7.3163">
        <ele>822.7</ele>
        <time>2021-08-03T14:21:30Z</time>
      </trkpt>
      <trkpt lat="48.38417" lon="7.31633">
        <ele>822.7</ele>
        <time>2021-08-03T14:21:32Z</time>
      </trkpt>
      <trkpt lat="48.38414" lon="7.31634">
        <ele>822.7</ele>
        <time>2021-08-03T14:21:33Z</time>
      </trkpt>
      <trkpt lat="48.38408" lon="7.31638">
        <ele>822.7</ele>
        <time>2021-08-03T14:21:34Z</time>
      </trkpt>
      <trkpt lat="48.38405" lon="7.31642">
        <ele>822.7</ele>
        <time>2021-08-03T14:21:36Z</time>
      </trkpt>
      <trkpt lat="48.38404" lon="7.31643">
        <ele>822.7</ele>
        <time>2021-08-03T14:21:37Z</time>
      </trkpt>
      <trkpt lat="48.38401" lon="7.31645">
        <ele>822.7</ele>
        <time>2021-08-03T14:21:39Z</time>
      </trkpt>
      <trkpt lat="48.38399" lon="7.31646">
        <ele>822.7</ele>
        <time>2021-08-03T14:21:40Z</time>
      </trkpt>
      <trkpt lat="48.38398" lon="7.31646">
        <ele>822.7</ele>
        <time>2021-08-03T14:21:41Z</time>
      </trkpt>
      <trkpt lat="48.38396" lon="7.3165">
        <ele>822.7</ele>
        <time>2021-08-03T14:21:42Z</time>
      </trkpt>
      <trkpt lat="48.38395" lon="7.31651">
        <ele>822.7</ele>
        <time>2021-08-03T14:21:43Z</time>
      </trkpt>
      <trkpt lat="48.38393" lon="7.31654">
        <ele>822.7</ele>
        <time>2021-08-03T14:21:45Z</time>
      </trkpt>
      <trkpt lat="48.38392" lon="7.31656">
        <ele>822.7</ele>
        <time>2021-08-03T14:21:46Z</time>
      </trkpt>
      <trkpt lat="48.3839" lon="7.3166">
        <ele>822.7</ele>
        <time>2021-08-03T14:21:47Z</time>
      </trkpt>
      <trkpt lat="48.38389" lon="7.31662">
        <ele>822.7</ele>
        <time>2021-08-03T14:21:48Z</time>
      </trkpt>
      <trkpt lat="48.38388" lon="7.31666">
        <ele>822.7</ele>
        <time>2021-08-03T14:21:50Z</time>
      </trkpt>
      <trkpt lat="48.38388" lon="7.31667">
        <ele>822.7</ele>
        <time>2021-08-03T14:21:51Z</time>
      </trkpt>
      <trkpt lat="48.38387" lon="7.31673">
        <ele>822.7</ele>
        <time>2021-08-03T14:21:53Z</time>
      </trkpt>
      <trkpt lat="48.38387" lon="7.31676">
        <ele>822.7</ele>
        <time>2021-08-03T14:21:54Z</time>
      </trkpt>
      <trkpt lat="48.38389" lon="7.31678">
        <ele>822.7</ele>
        <time>2021-08-03T14:21:56Z</time>
      </trkpt>
      <trkpt lat="48.38391" lon="7.31677">
        <ele>822.7</ele>
        <time>2021-08-03T14:21:57Z</time>
      </trkpt>
      <trkpt lat="48.38392" lon="7.31677">
        <ele>822.7</ele>
        <time>2021-08-03T14:21:58Z</time>
      </trkpt>
      <trkpt lat="48.38393" lon="7.3168">
        <ele>822.7</ele>
        <time>2021-08-03T14:22:00Z</time>
      </trkpt>
      <trkpt lat="48.38393" lon="7.3168">
        <ele>822.7</ele>
        <time>2021-08-03T14:22:02Z</time>
      </trkpt>
      <trkpt lat="48.38392" lon="7.31681">
        <ele>822.7</ele>
        <time>2021-08-03T14:22:05Z</time>
      </trkpt>
      <trkpt lat="48.38391" lon="7.31681">
        <ele>822.7</ele>
        <time>2021-08-03T14:22:06Z</time>
      </trkpt>
      <trkpt lat="48.38389" lon="7.31682">
        <ele>822.6</ele>
        <time>2021-08-03T14:22:07Z</time>
      </trkpt>
      <trkpt lat="48.38385" lon="7.3169">
        <ele>821.9</ele>
        <time>2021-08-03T14:22:09Z</time>
      </trkpt>
      <trkpt lat="48.38374" lon="7.31695">
        <ele>820.7</ele>
        <time>2021-08-03T14:22:11Z</time>
      </trkpt>
      <trkpt lat="48.38368" lon="7.31698">
        <ele>819.4</ele>
        <time>2021-08-03T14:22:12Z</time>
      </trkpt>
      <trkpt lat="48.38355" lon="7.31702">
        <ele>819.2</ele>
        <time>2021-08-03T14:22:14Z</time>
      </trkpt>
      <trkpt lat="48.38347" lon="7.31705">
        <ele>819.1</ele>
        <time>2021-08-03T14:22:15Z</time>
      </trkpt>
      <trkpt lat="48.38341" lon="7.31706">
        <ele>819.1</ele>
        <time>2021-08-03T14:22:16Z</time>
      </trkpt>
      <trkpt lat="48.3833" lon="7.31709">
        <ele>819.1</ele>
        <time>2021-08-03T14:22:18Z</time>
      </trkpt>
      <trkpt lat="48.3832" lon="7.31713">
        <ele>819.1</ele>
        <time>2021-08-03T14:22:20Z</time>
      </trkpt>
      <trkpt lat="48.38316" lon="7.31714">
        <ele>819.2</ele>
        <time>2021-08-03T14:22:21Z</time>
      </trkpt>
      <trkpt lat="48.38311" lon="7.31715">
        <ele>819.2</ele>
        <time>2021-08-03T14:22:22Z</time>
      </trkpt>
      <trkpt lat="48.38308" lon="7.31716">
        <ele>819.2</ele>
        <time>2021-08-03T14:22:23Z</time>
      </trkpt>
      <trkpt lat="48.38305" lon="7.31717">
        <ele>819.3</ele>
        <time>2021-08-03T14:22:24Z</time>
      </trkpt>
      <trkpt lat="48.38302" lon="7.3172">
        <ele>819.3</ele>
        <time>2021-08-03T14:22:25Z</time>
      </trkpt>
      <trkpt lat="48.38299" lon="7.31722">
        <ele>819.3</ele>
        <time>2021-08-03T14:22:26Z</time>
      </trkpt>
      <trkpt lat="48.38294" lon="7.31724">
        <ele>819.3</ele>
        <time>2021-08-03T14:22:28Z</time>
      </trkpt>
      <trkpt lat="48.38291" lon="7.31725">
        <ele>819.2</ele>
        <time>2021-08-03T14:22:29Z</time>
      </trkpt>
      <trkpt lat="48.38288" lon="7.31726">
        <ele>819.2</ele>
        <time>2021-08-03T14:22:30Z</time>
      </trkpt>
      <trkpt lat="48.38284" lon="7.31729">
        <ele>819.1</ele>
        <time>2021-08-03T14:22:32Z</time>
      </trkpt>
      <trkpt lat="48.38281" lon="7.31732">
        <ele>819</ele>
        <time>2021-08-03T14:22:33Z</time>
      </trkpt>
      <trkpt lat="48.38279" lon="7.31735">
        <ele>818.7</ele>
        <time>2021-08-03T14:22:34Z</time>
      </trkpt>
      <trkpt lat="48.38277" lon="7.31737">
        <ele>818.5</ele>
        <time>2021-08-03T14:22:36Z</time>
      </trkpt>
      <trkpt lat="48.38273" lon="7.31739">
        <ele>818.3</ele>
        <time>2021-08-03T14:22:37Z</time>
      </trkpt>
      <trkpt lat="48.38269" lon="7.31744">
        <ele>818</ele>
        <time>2021-08-03T14:22:39Z</time>
      </trkpt>
      <trkpt lat="48.38266" lon="7.31747">
        <ele>817.7</ele>
        <time>2021-08-03T14:22:40Z</time>
      </trkpt>
      <trkpt lat="48.38263" lon="7.31752">
        <ele>817.4</ele>
        <time>2021-08-03T14:22:42Z</time>
      </trkpt>
      <trkpt lat="48.38261" lon="7.31755">
        <ele>817.2</ele>
        <time>2021-08-03T14:22:43Z</time>
      </trkpt>
      <trkpt lat="48.38257" lon="7.31758">
        <ele>816.9</ele>
        <time>2021-08-03T14:22:45Z</time>
      </trkpt>
      <trkpt lat="48.38255" lon="7.31761">
        <ele>816.7</ele>
        <time>2021-08-03T14:22:46Z</time>
      </trkpt>
      <trkpt lat="48.38254" lon="7.31763">
        <ele>816.6</ele>
        <time>2021-08-03T14:22:47Z</time>
      </trkpt>
      <trkpt lat="48.38253" lon="7.31764">
        <ele>816.4</ele>
        <time>2021-08-03T14:22:49Z</time>
      </trkpt>
      <trkpt lat="48.38252" lon="7.31766">
        <ele>816.3</ele>
        <time>2021-08-03T14:22:50Z</time>
      </trkpt>
      <trkpt lat="48.38252" lon="7.31769">
        <ele>816.1</ele>
        <time>2021-08-03T14:22:51Z</time>
      </trkpt>
      <trkpt lat="48.38249" lon="7.31774">
        <ele>815.8</ele>
        <time>2021-08-03T14:22:52Z</time>
      </trkpt>
      <trkpt lat="48.38246" lon="7.31782">
        <ele>815.1</ele>
        <time>2021-08-03T14:22:54Z</time>
      </trkpt>
      <trkpt lat="48.38243" lon="7.31789">
        <ele>814.4</ele>
        <time>2021-08-03T14:22:55Z</time>
      </trkpt>
      <trkpt lat="48.38232" lon="7.31803">
        <ele>812.7</ele>
        <time>2021-08-03T14:22:56Z</time>
      </trkpt>
      <trkpt lat="48.38227" lon="7.3181">
        <ele>811.7</ele>
        <time>2021-08-03T14:22:57Z</time>
      </trkpt>
      <trkpt lat="48.3822" lon="7.31815">
        <ele>810.8</ele>
        <time>2021-08-03T14:22:58Z</time>
      </trkpt>
      <trkpt lat="48.38206" lon="7.31824">
        <ele>809</ele>
        <time>2021-08-03T14:23:00Z</time>
      </trkpt>
      <trkpt lat="48.38192" lon="7.31836">
        <ele>807.2</ele>
        <time>2021-08-03T14:23:02Z</time>
      </trkpt>
      <trkpt lat="48.38186" lon="7.31842">
        <ele>806.4</ele>
        <time>2021-08-03T14:23:03Z</time>
      </trkpt>
      <trkpt lat="48.38178" lon="7.3185">
        <ele>805.5</ele>
        <time>2021-08-03T14:23:05Z</time>
      </trkpt>
      <trkpt lat="48.38173" lon="7.31856">
        <ele>805</ele>
        <time>2021-08-03T14:23:06Z</time>
      </trkpt>
      <trkpt lat="48.3817" lon="7.31862">
        <ele>804.5</ele>
        <time>2021-08-03T14:23:08Z</time>
      </trkpt>
      <trkpt lat="48.38166" lon="7.31869">
        <ele>804</ele>
        <time>2021-08-03T14:23:09Z</time>
      </trkpt>
      <trkpt lat="48.38159" lon="7.31879">
        <ele>803.1</ele>
        <time>2021-08-03T14:23:10Z</time>
      </trkpt>
      <trkpt lat="48.38155" lon="7.31887">
        <ele>802.4</ele>
        <time>2021-08-03T14:23:11Z</time>
      </trkpt>
      <trkpt lat="48.38147" lon="7.31907">
        <ele>800.9</ele>
        <time>2021-08-03T14:23:13Z</time>
      </trkpt>
      <trkpt lat="48.38143" lon="7.31916">
        <ele>800.2</ele>
        <time>2021-08-03T14:23:14Z</time>
      </trkpt>
      <trkpt lat="48.38135" lon="7.31936">
        <ele>798.8</ele>
        <time>2021-08-03T14:23:16Z</time>
      </trkpt>
      <trkpt lat="48.38127" lon="7.31957">
        <ele>797.3</ele>
        <time>2021-08-03T14:23:18Z</time>
      </trkpt>
      <trkpt lat="48.38119" lon="7.31978">
        <ele>795.8</ele>
        <time>2021-08-03T14:23:20Z</time>
      </trkpt>
      <trkpt lat="48.38112" lon="7.32002">
        <ele>794.5</ele>
        <time>2021-08-03T14:23:22Z</time>
      </trkpt>
      <trkpt lat="48.38108" lon="7.32013">
        <ele>793.8</ele>
        <time>2021-08-03T14:23:23Z</time>
      </trkpt>
      <trkpt lat="48.38105" lon="7.32024">
        <ele>793.2</ele>
        <time>2021-08-03T14:23:24Z</time>
      </trkpt>
      <trkpt lat="48.38099" lon="7.32045">
        <ele>792.1</ele>
        <time>2021-08-03T14:23:26Z</time>
      </trkpt>
      <trkpt lat="48.38095" lon="7.32065">
        <ele>791.1</ele>
        <time>2021-08-03T14:23:28Z</time>
      </trkpt>
      <trkpt lat="48.38093" lon="7.32075">
        <ele>790.6</ele>
        <time>2021-08-03T14:23:29Z</time>
      </trkpt>
      <trkpt lat="48.38092" lon="7.32082">
        <ele>790.2</ele>
        <time>2021-08-03T14:23:30Z</time>
      </trkpt>
      <trkpt lat="48.38092" lon="7.32084">
        <ele>790</ele>
        <time>2021-08-03T14:23:32Z</time>
      </trkpt>
      <trkpt lat="48.38093" lon="7.32079">
        <ele>789.7</ele>
        <time>2021-08-03T14:23:34Z</time>
      </trkpt>
      <trkpt lat="48.38093" lon="7.32077">
        <ele>789.6</ele>
        <time>2021-08-03T14:23:35Z</time>
      </trkpt>
      <trkpt lat="48.38093" lon="7.32076">
        <ele>789.5</ele>
        <time>2021-08-03T14:23:36Z</time>
      </trkpt>
      <trkpt lat="48.38093" lon="7.32074">
        <ele>789.4</ele>
        <time>2021-08-03T14:23:38Z</time>
      </trkpt>
      <trkpt lat="48.38094" lon="7.32072">
        <ele>789.3</ele>
        <time>2021-08-03T14:23:39Z</time>
      </trkpt>
      <trkpt lat="48.38093" lon="7.32069">
        <ele>789.1</ele>
        <time>2021-08-03T14:23:41Z</time>
      </trkpt>
      <trkpt lat="48.38093" lon="7.32068">
        <ele>789.1</ele>
        <time>2021-08-03T14:23:42Z</time>
      </trkpt>
      <trkpt lat="48.38101" lon="7.32119">
        <ele>786.2</ele>
        <time>2021-08-03T14:25:14Z</time>
      </trkpt>
      <trkpt lat="48.38101" lon="7.32141">
        <ele>785.2</ele>
        <time>2021-08-03T14:25:16Z</time>
      </trkpt>
      <trkpt lat="48.381" lon="7.3215">
        <ele>784.8</ele>
        <time>2021-08-03T14:25:17Z</time>
      </trkpt>
      <trkpt lat="48.38099" lon="7.32158">
        <ele>784.4</ele>
        <time>2021-08-03T14:25:18Z</time>
      </trkpt>
      <trkpt lat="48.38099" lon="7.32168">
        <ele>783.9</ele>
        <time>2021-08-03T14:25:20Z</time>
      </trkpt>
      <trkpt lat="48.38097" lon="7.32179">
        <ele>783.4</ele>
        <time>2021-08-03T14:25:21Z</time>
      </trkpt>
      <trkpt lat="48.38093" lon="7.32199">
        <ele>782.3</ele>
        <time>2021-08-03T14:25:23Z</time>
      </trkpt>
      <trkpt lat="48.38091" lon="7.32208">
        <ele>781.8</ele>
        <time>2021-08-03T14:25:24Z</time>
      </trkpt>
      <trkpt lat="48.3809" lon="7.32217">
        <ele>781.2</ele>
        <time>2021-08-03T14:25:25Z</time>
      </trkpt>
      <trkpt lat="48.3809" lon="7.32237">
        <ele>779.8</ele>
        <time>2021-08-03T14:25:27Z</time>
      </trkpt>
      <trkpt lat="48.3809" lon="7.32246">
        <ele>779.1</ele>
        <time>2021-08-03T14:25:28Z</time>
      </trkpt>
      <trkpt lat="48.38091" lon="7.32255">
        <ele>778.4</ele>
        <time>2021-08-03T14:25:29Z</time>
      </trkpt>
      <trkpt lat="48.38092" lon="7.32265">
        <ele>777.7</ele>
        <time>2021-08-03T14:25:30Z</time>
      </trkpt>
      <trkpt lat="48.38092" lon="7.32274">
        <ele>776.5</ele>
        <time>2021-08-03T14:25:31Z</time>
      </trkpt>
      <trkpt lat="48.38093" lon="7.32286">
        <ele>775.8</ele>
        <time>2021-08-03T14:25:32Z</time>
      </trkpt>
      <trkpt lat="48.38092" lon="7.32311">
        <ele>774.5</ele>
        <time>2021-08-03T14:25:34Z</time>
      </trkpt>
      <trkpt lat="48.38089" lon="7.32333">
        <ele>773.6</ele>
        <time>2021-08-03T14:25:36Z</time>
      </trkpt>
      <trkpt lat="48.38087" lon="7.32342">
        <ele>773.2</ele>
        <time>2021-08-03T14:25:37Z</time>
      </trkpt>
      <trkpt lat="48.38085" lon="7.32355">
        <ele>772.6</ele>
        <time>2021-08-03T14:25:39Z</time>
      </trkpt>
      <trkpt lat="48.38084" lon="7.3235">
        <ele>772.4</ele>
        <time>2021-08-03T14:25:41Z</time>
      </trkpt>
      <trkpt lat="48.38084" lon="7.32349">
        <ele>772.4</ele>
        <time>2021-08-03T14:25:42Z</time>
      </trkpt>
      <trkpt lat="48.38084" lon="7.32349">
        <ele>772.4</ele>
        <time>2021-08-03T14:25:44Z</time>
      </trkpt>
      <trkpt lat="48.38084" lon="7.32348">
        <ele>772.3</ele>
        <time>2021-08-03T14:25:46Z</time>
      </trkpt>
      <trkpt lat="48.38084" lon="7.32348">
        <ele>772.3</ele>
        <time>2021-08-03T14:25:47Z</time>
      </trkpt>
      <trkpt lat="48.38084" lon="7.32348">
        <ele>772.3</ele>
        <time>2021-08-03T14:25:49Z</time>
      </trkpt>
      <trkpt lat="48.38083" lon="7.32351">
        <ele>772.1</ele>
        <time>2021-08-03T14:25:51Z</time>
      </trkpt>
      <trkpt lat="48.38081" lon="7.32354">
        <ele>771.9</ele>
        <time>2021-08-03T14:25:53Z</time>
      </trkpt>
      <trkpt lat="48.38077" lon="7.32371">
        <ele>771.1</ele>
        <time>2021-08-03T14:25:58Z</time>
      </trkpt>
      <trkpt lat="48.38075" lon="7.32388">
        <ele>770.4</ele>
        <time>2021-08-03T14:26:00Z</time>
      </trkpt>
      <trkpt lat="48.38076" lon="7.32399">
        <ele>770</ele>
        <time>2021-08-03T14:26:02Z</time>
      </trkpt>
      <trkpt lat="48.38076" lon="7.3241">
        <ele>769.5</ele>
        <time>2021-08-03T14:26:03Z</time>
      </trkpt>
      <trkpt lat="48.38077" lon="7.32427">
        <ele>768.7</ele>
        <time>2021-08-03T14:26:04Z</time>
      </trkpt>
      <trkpt lat="48.38077" lon="7.32447">
        <ele>767.8</ele>
        <time>2021-08-03T14:26:06Z</time>
      </trkpt>
      <trkpt lat="48.38077" lon="7.32467">
        <ele>766.8</ele>
        <time>2021-08-03T14:26:08Z</time>
      </trkpt>
      <trkpt lat="48.38076" lon="7.3249">
        <ele>765.4</ele>
        <time>2021-08-03T14:26:10Z</time>
      </trkpt>
      <trkpt lat="48.38076" lon="7.32502">
        <ele>764.6</ele>
        <time>2021-08-03T14:26:11Z</time>
      </trkpt>
      <trkpt lat="48.38078" lon="7.32514">
        <ele>763.7</ele>
        <time>2021-08-03T14:26:12Z</time>
      </trkpt>
      <trkpt lat="48.3808" lon="7.32539">
        <ele>761.9</ele>
        <time>2021-08-03T14:26:14Z</time>
      </trkpt>
      <trkpt lat="48.38081" lon="7.32564">
        <ele>760.4</ele>
        <time>2021-08-03T14:26:16Z</time>
      </trkpt>
      <trkpt lat="48.38081" lon="7.3259">
        <ele>758.9</ele>
        <time>2021-08-03T14:26:18Z</time>
      </trkpt>
      <trkpt lat="48.38079" lon="7.32603">
        <ele>758.1</ele>
        <time>2021-08-03T14:26:19Z</time>
      </trkpt>
      <trkpt lat="48.38077" lon="7.32615">
        <ele>757.3</ele>
        <time>2021-08-03T14:26:20Z</time>
      </trkpt>
      <trkpt lat="48.38074" lon="7.32627">
        <ele>756.5</ele>
        <time>2021-08-03T14:26:21Z</time>
      </trkpt>
      <trkpt lat="48.38064" lon="7.32648">
        <ele>755.1</ele>
        <time>2021-08-03T14:26:23Z</time>
      </trkpt>
      <trkpt lat="48.38053" lon="7.32664">
        <ele>753.8</ele>
        <time>2021-08-03T14:26:25Z</time>
      </trkpt>
      <trkpt lat="48.38046" lon="7.32672">
        <ele>753.3</ele>
        <time>2021-08-03T14:26:26Z</time>
      </trkpt>
      <trkpt lat="48.3803" lon="7.32684">
        <ele>752.5</ele>
        <time>2021-08-03T14:26:28Z</time>
      </trkpt>
      <trkpt lat="48.38015" lon="7.32696">
        <ele>752.8</ele>
        <time>2021-08-03T14:26:30Z</time>
      </trkpt>
      <trkpt lat="48.38005" lon="7.32708">
        <ele>753.4</ele>
        <time>2021-08-03T14:26:32Z</time>
      </trkpt>
      <trkpt lat="48.37996" lon="7.32716">
        <ele>754.1</ele>
        <time>2021-08-03T14:26:34Z</time>
      </trkpt>
      <trkpt lat="48.37992" lon="7.32718">
        <ele>754.5</ele>
        <time>2021-08-03T14:26:35Z</time>
      </trkpt>
      <trkpt lat="48.3799" lon="7.32717">
        <ele>754.7</ele>
        <time>2021-08-03T14:26:36Z</time>
      </trkpt>
      <trkpt lat="48.37986" lon="7.32712">
        <ele>755.2</ele>
        <time>2021-08-03T14:26:38Z</time>
      </trkpt>
      <trkpt lat="48.37983" lon="7.32706">
        <ele>755.6</ele>
        <time>2021-08-03T14:26:40Z</time>
      </trkpt>
      <trkpt lat="48.37982" lon="7.32704">
        <ele>755.8</ele>
        <time>2021-08-03T14:26:41Z</time>
      </trkpt>
      <trkpt lat="48.3798" lon="7.32703">
        <ele>756</ele>
        <time>2021-08-03T14:26:43Z</time>
      </trkpt>
      <trkpt lat="48.37981" lon="7.32704">
        <ele>756</ele>
        <time>2021-08-03T14:26:44Z</time>
      </trkpt>
      <trkpt lat="48.37977" lon="7.32703">
        <ele>756.4</ele>
        <time>2021-08-03T14:26:46Z</time>
      </trkpt>
      <trkpt lat="48.37974" lon="7.32703">
        <ele>756.7</ele>
        <time>2021-08-03T14:26:48Z</time>
      </trkpt>
      <trkpt lat="48.37972" lon="7.32702">
        <ele>756.9</ele>
        <time>2021-08-03T14:26:49Z</time>
      </trkpt>
      <trkpt lat="48.37971" lon="7.32703">
        <ele>757.1</ele>
        <time>2021-08-03T14:26:51Z</time>
      </trkpt>
      <trkpt lat="48.3797" lon="7.32703">
        <ele>757.1</ele>
        <time>2021-08-03T14:26:52Z</time>
      </trkpt>
      <trkpt lat="48.37967" lon="7.32703">
        <ele>757.5</ele>
        <time>2021-08-03T14:26:54Z</time>
      </trkpt>
      <trkpt lat="48.37965" lon="7.32703">
        <ele>757.7</ele>
        <time>2021-08-03T14:26:56Z</time>
      </trkpt>
      <trkpt lat="48.37965" lon="7.32704">
        <ele>757.7</ele>
        <time>2021-08-03T14:26:57Z</time>
      </trkpt>
      <trkpt lat="48.37964" lon="7.32704">
        <ele>757.7</ele>
        <time>2021-08-03T14:26:59Z</time>
      </trkpt>
      <trkpt lat="48.37964" lon="7.32704">
        <ele>757.8</ele>
        <time>2021-08-03T14:27:01Z</time>
      </trkpt>
      <trkpt lat="48.37963" lon="7.32705">
        <ele>757.8</ele>
        <time>2021-08-03T14:27:03Z</time>
      </trkpt>
      <trkpt lat="48.37963" lon="7.32705">
        <ele>757.9</ele>
        <time>2021-08-03T14:27:04Z</time>
      </trkpt>
      <trkpt lat="48.37943" lon="7.32699">
        <ele>759.7</ele>
        <time>2021-08-03T14:27:25Z</time>
      </trkpt>
      <trkpt lat="48.3794" lon="7.32699">
        <ele>759.9</ele>
        <time>2021-08-03T14:27:26Z</time>
      </trkpt>
      <trkpt lat="48.37937" lon="7.32699">
        <ele>760.2</ele>
        <time>2021-08-03T14:27:27Z</time>
      </trkpt>
      <trkpt lat="48.37936" lon="7.32699">
        <ele>760.3</ele>
        <time>2021-08-03T14:27:28Z</time>
      </trkpt>
      <trkpt lat="48.37933" lon="7.32698">
        <ele>760.7</ele>
        <time>2021-08-03T14:27:30Z</time>
      </trkpt>
      <trkpt lat="48.37932" lon="7.32697">
        <ele>760.8</ele>
        <time>2021-08-03T14:27:31Z</time>
      </trkpt>
      <trkpt lat="48.37928" lon="7.32695">
        <ele>761.2</ele>
        <time>2021-08-03T14:27:32Z</time>
      </trkpt>
      <trkpt lat="48.37927" lon="7.32694">
        <ele>761.3</ele>
        <time>2021-08-03T14:27:33Z</time>
      </trkpt>
      <trkpt lat="48.37925" lon="7.32693">
        <ele>761.6</ele>
        <time>2021-08-03T14:27:35Z</time>
      </trkpt>
      <trkpt lat="48.37923" lon="7.32693">
        <ele>761.8</ele>
        <time>2021-08-03T14:27:36Z</time>
      </trkpt>
      <trkpt lat="48.37922" lon="7.32692">
        <ele>761.9</ele>
        <time>2021-08-03T14:27:37Z</time>
      </trkpt>
      <trkpt lat="48.3792" lon="7.32692">
        <ele>762.1</ele>
        <time>2021-08-03T14:27:39Z</time>
      </trkpt>
      <trkpt lat="48.37919" lon="7.32692">
        <ele>762.2</ele>
        <time>2021-08-03T14:27:40Z</time>
      </trkpt>
      <trkpt lat="48.37918" lon="7.32692">
        <ele>762.3</ele>
        <time>2021-08-03T14:27:41Z</time>
      </trkpt>
      <trkpt lat="48.37918" lon="7.32692">
        <ele>762.4</ele>
        <time>2021-08-03T14:27:43Z</time>
      </trkpt>
      <trkpt lat="48.37917" lon="7.32692">
        <ele>762.4</ele>
        <time>2021-08-03T14:27:44Z</time>
      </trkpt>
      <trkpt lat="48.37917" lon="7.32692">
        <ele>762.5</ele>
        <time>2021-08-03T14:27:46Z</time>
      </trkpt>
      <trkpt lat="48.37917" lon="7.32692">
        <ele>762.5</ele>
        <time>2021-08-03T14:27:47Z</time>
      </trkpt>
      <trkpt lat="48.37854" lon="7.32656">
        <ele>769.4</ele>
        <time>2021-08-03T14:28:45Z</time>
      </trkpt>
      <trkpt lat="48.37849" lon="7.32658">
        <ele>769.5</ele>
        <time>2021-08-03T14:28:47Z</time>
      </trkpt>
      <trkpt lat="48.37846" lon="7.32661">
        <ele>769.4</ele>
        <time>2021-08-03T14:28:48Z</time>
      </trkpt>
      <trkpt lat="48.37841" lon="7.32666">
        <ele>769.2</ele>
        <time>2021-08-03T14:28:50Z</time>
      </trkpt>
      <trkpt lat="48.37838" lon="7.3267">
        <ele>769</ele>
        <time>2021-08-03T14:28:51Z</time>
      </trkpt>
      <trkpt lat="48.37837" lon="7.32675">
        <ele>768.9</ele>
        <time>2021-08-03T14:28:53Z</time>
      </trkpt>
      <trkpt lat="48.37836" lon="7.3268">
        <ele>768.8</ele>
        <time>2021-08-03T14:28:54Z</time>
      </trkpt>
      <trkpt lat="48.37836" lon="7.32682">
        <ele>768.7</ele>
        <time>2021-08-03T14:28:55Z</time>
      </trkpt>
      <trkpt lat="48.37835" lon="7.32687">
        <ele>768.6</ele>
        <time>2021-08-03T14:28:56Z</time>
      </trkpt>
      <trkpt lat="48.37835" lon="7.32695">
        <ele>768.4</ele>
        <time>2021-08-03T14:28:58Z</time>
      </trkpt>
      <trkpt lat="48.37835" lon="7.32702">
        <ele>768.2</ele>
        <time>2021-08-03T14:28:59Z</time>
      </trkpt>
      <trkpt lat="48.37836" lon="7.32706">
        <ele>768.1</ele>
        <time>2021-08-03T14:29:01Z</time>
      </trkpt>
      <trkpt lat="48.37835" lon="7.32711">
        <ele>768</ele>
        <time>2021-08-03T14:29:02Z</time>
      </trkpt>
      <trkpt lat="48.37835" lon="7.3272">
        <ele>767.7</ele>
        <time>2021-08-03T14:29:04Z</time>
      </trkpt>
      <trkpt lat="48.37834" lon="7.32734">
        <ele>767.4</ele>
        <time>2021-08-03T14:29:05Z</time>
      </trkpt>
      <trkpt lat="48.37837" lon="7.32749">
        <ele>767</ele>
        <time>2021-08-03T14:29:07Z</time>
      </trkpt>
      <trkpt lat="48.37838" lon="7.32757">
        <ele>766.8</ele>
        <time>2021-08-03T14:29:08Z</time>
      </trkpt>
      <trkpt lat="48.37841" lon="7.32767">
        <ele>766.6</ele>
        <time>2021-08-03T14:29:10Z</time>
      </trkpt>
      <trkpt lat="48.37841" lon="7.32773">
        <ele>766.5</ele>
        <time>2021-08-03T14:29:11Z</time>
      </trkpt>
      <trkpt lat="48.3784" lon="7.3278">
        <ele>766.4</ele>
        <time>2021-08-03T14:29:13Z</time>
      </trkpt>
      <trkpt lat="48.3784" lon="7.32785">
        <ele>766.3</ele>
        <time>2021-08-03T14:29:14Z</time>
      </trkpt>
      <trkpt lat="48.37839" lon="7.32786">
        <ele>766.3</ele>
        <time>2021-08-03T14:29:15Z</time>
      </trkpt>
      <trkpt lat="48.37839" lon="7.32788">
        <ele>766.3</ele>
        <time>2021-08-03T14:29:17Z</time>
      </trkpt>
      <trkpt lat="48.37839" lon="7.32793">
        <ele>766.2</ele>
        <time>2021-08-03T14:29:19Z</time>
      </trkpt>
      <trkpt lat="48.37838" lon="7.32795">
        <ele>766.2</ele>
        <time>2021-08-03T14:29:20Z</time>
      </trkpt>
      <trkpt lat="48.37838" lon="7.32797">
        <ele>766.2</ele>
        <time>2021-08-03T14:29:21Z</time>
      </trkpt>
      <trkpt lat="48.37838" lon="7.32798">
        <ele>766.1</ele>
        <time>2021-08-03T14:29:22Z</time>
      </trkpt>
      <trkpt lat="48.37837" lon="7.32803">
        <ele>766.1</ele>
        <time>2021-08-03T14:29:24Z</time>
      </trkpt>
      <trkpt lat="48.37837" lon="7.32806">
        <ele>766.1</ele>
        <time>2021-08-03T14:29:25Z</time>
      </trkpt>
      <trkpt lat="48.37836" lon="7.32808">
        <ele>766</ele>
        <time>2021-08-03T14:29:26Z</time>
      </trkpt>
      <trkpt lat="48.37834" lon="7.32812">
        <ele>766</ele>
        <time>2021-08-03T14:29:28Z</time>
      </trkpt>
      <trkpt lat="48.37833" lon="7.32813">
        <ele>766</ele>
        <time>2021-08-03T14:29:29Z</time>
      </trkpt>
      <trkpt lat="48.37833" lon="7.32813">
        <ele>766</ele>
        <time>2021-08-03T14:29:30Z</time>
      </trkpt>
      <trkpt lat="48.37833" lon="7.32815">
        <ele>766</ele>
        <time>2021-08-03T14:29:31Z</time>
      </trkpt>
      <trkpt lat="48.37833" lon="7.32817">
        <ele>766</ele>
        <time>2021-08-03T14:29:32Z</time>
      </trkpt>
      <trkpt lat="48.37832" lon="7.3282">
        <ele>766</ele>
        <time>2021-08-03T14:29:34Z</time>
      </trkpt>
      <trkpt lat="48.37832" lon="7.32822">
        <ele>765.9</ele>
        <time>2021-08-03T14:29:35Z</time>
      </trkpt>
      <trkpt lat="48.37832" lon="7.32825">
        <ele>765.9</ele>
        <time>2021-08-03T14:29:37Z</time>
      </trkpt>
      <trkpt lat="48.37833" lon="7.32832">
        <ele>765.9</ele>
        <time>2021-08-03T14:29:39Z</time>
      </trkpt>
      <trkpt lat="48.37833" lon="7.32836">
        <ele>765.9</ele>
        <time>2021-08-03T14:29:40Z</time>
      </trkpt>
      <trkpt lat="48.37834" lon="7.32845">
        <ele>765.9</ele>
        <time>2021-08-03T14:29:42Z</time>
      </trkpt>
      <trkpt lat="48.37835" lon="7.32852">
        <ele>765.9</ele>
        <time>2021-08-03T14:29:43Z</time>
      </trkpt>
      <trkpt lat="48.37837" lon="7.32858">
        <ele>765.8</ele>
        <time>2021-08-03T14:29:45Z</time>
      </trkpt>
      <trkpt lat="48.37838" lon="7.32866">
        <ele>765.8</ele>
        <time>2021-08-03T14:29:46Z</time>
      </trkpt>
      <trkpt lat="48.37837" lon="7.3287">
        <ele>765.8</ele>
        <time>2021-08-03T14:29:47Z</time>
      </trkpt>
      <trkpt lat="48.37836" lon="7.32875">
        <ele>765.8</ele>
        <time>2021-08-03T14:29:48Z</time>
      </trkpt>
      <trkpt lat="48.37834" lon="7.32884">
        <ele>765.7</ele>
        <time>2021-08-03T14:29:50Z</time>
      </trkpt>
      <trkpt lat="48.37833" lon="7.32889">
        <ele>765.6</ele>
        <time>2021-08-03T14:29:51Z</time>
      </trkpt>
      <trkpt lat="48.37833" lon="7.32892">
        <ele>765.6</ele>
        <time>2021-08-03T14:29:52Z</time>
      </trkpt>
      <trkpt lat="48.37834" lon="7.32897">
        <ele>765.5</ele>
        <time>2021-08-03T14:29:54Z</time>
      </trkpt>
      <trkpt lat="48.37836" lon="7.32902">
        <ele>765.5</ele>
        <time>2021-08-03T14:29:55Z</time>
      </trkpt>
      <trkpt lat="48.37835" lon="7.32908">
        <ele>765.4</ele>
        <time>2021-08-03T14:29:57Z</time>
      </trkpt>
      <trkpt lat="48.37833" lon="7.32911">
        <ele>765.4</ele>
        <time>2021-08-03T14:29:58Z</time>
      </trkpt>
      <trkpt lat="48.37831" lon="7.32914">
        <ele>765.3</ele>
        <time>2021-08-03T14:30:00Z</time>
      </trkpt>
      <trkpt lat="48.3783" lon="7.32917">
        <ele>765.3</ele>
        <time>2021-08-03T14:30:01Z</time>
      </trkpt>
      <trkpt lat="48.37828" lon="7.3292">
        <ele>765.2</ele>
        <time>2021-08-03T14:30:03Z</time>
      </trkpt>
      <trkpt lat="48.37826" lon="7.32923">
        <ele>765.2</ele>
        <time>2021-08-03T14:30:04Z</time>
      </trkpt>
      <trkpt lat="48.37824" lon="7.32926">
        <ele>765.1</ele>
        <time>2021-08-03T14:30:05Z</time>
      </trkpt>
      <trkpt lat="48.37823" lon="7.32929">
        <ele>765.1</ele>
        <time>2021-08-03T14:30:15Z</time>
      </trkpt>
      <trkpt lat="48.37821" lon="7.32932">
        <ele>765</ele>
        <time>2021-08-03T14:30:16Z</time>
      </trkpt>
      <trkpt lat="48.37817" lon="7.32938">
        <ele>765</ele>
        <time>2021-08-03T14:30:17Z</time>
      </trkpt>
      <trkpt lat="48.37809" lon="7.32948">
        <ele>764.7</ele>
        <time>2021-08-03T14:30:19Z</time>
      </trkpt>
      <trkpt lat="48.37801" lon="7.32958">
        <ele>764.7</ele>
        <time>2021-08-03T14:30:20Z</time>
      </trkpt>
      <trkpt lat="48.37796" lon="7.32963">
        <ele>764.7</ele>
        <time>2021-08-03T14:30:21Z</time>
      </trkpt>
      <trkpt lat="48.37781" lon="7.32979">
        <ele>764.3</ele>
        <time>2021-08-03T14:30:23Z</time>
      </trkpt>
      <trkpt lat="48.37777" lon="7.32986">
        <ele>764</ele>
        <time>2021-08-03T14:30:24Z</time>
      </trkpt>
      <trkpt lat="48.3777" lon="7.32997">
        <ele>762.9</ele>
        <time>2021-08-03T14:30:26Z</time>
      </trkpt>
      <trkpt lat="48.37765" lon="7.33012">
        <ele>761.1</ele>
        <time>2021-08-03T14:30:28Z</time>
      </trkpt>
      <trkpt lat="48.37758" lon="7.3303">
        <ele>758.8</ele>
        <time>2021-08-03T14:30:30Z</time>
      </trkpt>
      <trkpt lat="48.37755" lon="7.33038">
        <ele>757.7</ele>
        <time>2021-08-03T14:30:31Z</time>
      </trkpt>
      <trkpt lat="48.37752" lon="7.33046">
        <ele>756.7</ele>
        <time>2021-08-03T14:30:32Z</time>
      </trkpt>
      <trkpt lat="48.37746" lon="7.33067">
        <ele>754.5</ele>
        <time>2021-08-03T14:30:34Z</time>
      </trkpt>
      <trkpt lat="48.37743" lon="7.33078">
        <ele>753.3</ele>
        <time>2021-08-03T14:30:35Z</time>
      </trkpt>
      <trkpt lat="48.37741" lon="7.33088">
        <ele>752.2</ele>
        <time>2021-08-03T14:30:36Z</time>
      </trkpt>
      <trkpt lat="48.37736" lon="7.33109">
        <ele>749.6</ele>
        <time>2021-08-03T14:30:38Z</time>
      </trkpt>
      <trkpt lat="48.37734" lon="7.3312">
        <ele>748.4</ele>
        <time>2021-08-03T14:30:39Z</time>
      </trkpt>
      <trkpt lat="48.37731" lon="7.33142">
        <ele>746.2</ele>
        <time>2021-08-03T14:30:41Z</time>
      </trkpt>
      <trkpt lat="48.3773" lon="7.33151">
        <ele>745.3</ele>
        <time>2021-08-03T14:30:42Z</time>
      </trkpt>
      <trkpt lat="48.37727" lon="7.33171">
        <ele>743.6</ele>
        <time>2021-08-03T14:30:44Z</time>
      </trkpt>
      <trkpt lat="48.37724" lon="7.33186">
        <ele>742.6</ele>
        <time>2021-08-03T14:30:46Z</time>
      </trkpt>
      <trkpt lat="48.37724" lon="7.33191">
        <ele>742.3</ele>
        <time>2021-08-03T14:30:47Z</time>
      </trkpt>
      <trkpt lat="48.37724" lon="7.33199">
        <ele>741.8</ele>
        <time>2021-08-03T14:30:48Z</time>
      </trkpt>
      <trkpt lat="48.37719" lon="7.3322">
        <ele>740.7</ele>
        <time>2021-08-03T14:30:50Z</time>
      </trkpt>
      <trkpt lat="48.37716" lon="7.33231">
        <ele>740.1</ele>
        <time>2021-08-03T14:30:51Z</time>
      </trkpt>
      <trkpt lat="48.37712" lon="7.33242">
        <ele>739.5</ele>
        <time>2021-08-03T14:30:52Z</time>
      </trkpt>
      <trkpt lat="48.37708" lon="7.33252">
        <ele>738.6</ele>
        <time>2021-08-03T14:30:53Z</time>
      </trkpt>
      <trkpt lat="48.37703" lon="7.33274">
        <ele>736.3</ele>
        <time>2021-08-03T14:30:55Z</time>
      </trkpt>
      <trkpt lat="48.37699" lon="7.333">
        <ele>733</ele>
        <time>2021-08-03T14:30:57Z</time>
      </trkpt>
      <trkpt lat="48.37696" lon="7.33322">
        <ele>730.5</ele>
        <time>2021-08-03T14:30:59Z</time>
      </trkpt>
      <trkpt lat="48.37695" lon="7.33331">
        <ele>729.5</ele>
        <time>2021-08-03T14:31:00Z</time>
      </trkpt>
      <trkpt lat="48.37691" lon="7.33349">
        <ele>727.7</ele>
        <time>2021-08-03T14:31:02Z</time>
      </trkpt>
      <trkpt lat="48.37689" lon="7.33357">
        <ele>726.9</ele>
        <time>2021-08-03T14:31:03Z</time>
      </trkpt>
      <trkpt lat="48.37688" lon="7.33364">
        <ele>726.2</ele>
        <time>2021-08-03T14:31:04Z</time>
      </trkpt>
      <trkpt lat="48.37687" lon="7.33373">
        <ele>725.4</ele>
        <time>2021-08-03T14:31:06Z</time>
      </trkpt>
      <trkpt lat="48.37687" lon="7.3338">
        <ele>724.8</ele>
        <time>2021-08-03T14:31:07Z</time>
      </trkpt>
      <trkpt lat="48.37685" lon="7.33392">
        <ele>723.8</ele>
        <time>2021-08-03T14:31:09Z</time>
      </trkpt>
      <trkpt lat="48.37684" lon="7.33399">
        <ele>723.2</ele>
        <time>2021-08-03T14:31:10Z</time>
      </trkpt>
      <trkpt lat="48.37678" lon="7.33417">
        <ele>721.9</ele>
        <time>2021-08-03T14:31:12Z</time>
      </trkpt>
      <trkpt lat="48.37668" lon="7.33439">
        <ele>720.4</ele>
        <time>2021-08-03T14:31:14Z</time>
      </trkpt>
      <trkpt lat="48.3766" lon="7.33458">
        <ele>719.3</ele>
        <time>2021-08-03T14:31:16Z</time>
      </trkpt>
      <trkpt lat="48.37654" lon="7.3347">
        <ele>718.7</ele>
        <time>2021-08-03T14:31:18Z</time>
      </trkpt>
      <trkpt lat="48.37653" lon="7.33466">
        <ele>718.6</ele>
        <time>2021-08-03T14:31:19Z</time>
      </trkpt>
      <trkpt lat="48.37651" lon="7.33473">
        <ele>718.4</ele>
        <time>2021-08-03T14:31:20Z</time>
      </trkpt>
      <trkpt lat="48.37649" lon="7.33489">
        <ele>718.1</ele>
        <time>2021-08-03T14:31:22Z</time>
      </trkpt>
      <trkpt lat="48.37644" lon="7.33512">
        <ele>718</ele>
        <time>2021-08-03T14:31:23Z</time>
      </trkpt>
      <trkpt lat="48.37638" lon="7.3353">
        <ele>718.4</ele>
        <time>2021-08-03T14:31:25Z</time>
      </trkpt>
      <trkpt lat="48.37636" lon="7.33537">
        <ele>718.6</ele>
        <time>2021-08-03T14:31:26Z</time>
      </trkpt>
      <trkpt lat="48.37634" lon="7.33546">
        <ele>718.8</ele>
        <time>2021-08-03T14:31:28Z</time>
      </trkpt>
      <trkpt lat="48.37632" lon="7.33554">
        <ele>719.1</ele>
        <time>2021-08-03T14:31:29Z</time>
      </trkpt>
      <trkpt lat="48.3763" lon="7.33559">
        <ele>719.6</ele>
        <time>2021-08-03T14:31:30Z</time>
      </trkpt>
      <trkpt lat="48.37629" lon="7.33564">
        <ele>719.3</ele>
        <time>2021-08-03T14:31:31Z</time>
      </trkpt>
      <trkpt lat="48.37627" lon="7.33565">
        <ele>719.2</ele>
        <time>2021-08-03T14:31:33Z</time>
      </trkpt>
      <trkpt lat="48.37626" lon="7.33566">
        <ele>719.1</ele>
        <time>2021-08-03T14:31:34Z</time>
      </trkpt>
      <trkpt lat="48.37625" lon="7.33567">
        <ele>719.1</ele>
        <time>2021-08-03T14:31:35Z</time>
      </trkpt>
      <trkpt lat="48.37623" lon="7.33563">
        <ele>718.9</ele>
        <time>2021-08-03T14:31:37Z</time>
      </trkpt>
      <trkpt lat="48.37622" lon="7.33564">
        <ele>718.8</ele>
        <time>2021-08-03T14:31:38Z</time>
      </trkpt>
      <trkpt lat="48.37621" lon="7.33565">
        <ele>718.7</ele>
        <time>2021-08-03T14:31:39Z</time>
      </trkpt>
      <trkpt lat="48.37618" lon="7.33569">
        <ele>718.5</ele>
        <time>2021-08-03T14:31:40Z</time>
      </trkpt>
      <trkpt lat="48.37614" lon="7.33573">
        <ele>718.1</ele>
        <time>2021-08-03T14:31:41Z</time>
      </trkpt>
      <trkpt lat="48.37609" lon="7.33578">
        <ele>717.6</ele>
        <time>2021-08-03T14:31:43Z</time>
      </trkpt>
      <trkpt lat="48.37604" lon="7.33584">
        <ele>717.2</ele>
        <time>2021-08-03T14:31:44Z</time>
      </trkpt>
      <trkpt lat="48.37598" lon="7.33596">
        <ele>716.5</ele>
        <time>2021-08-03T14:31:45Z</time>
      </trkpt>
      <trkpt lat="48.37595" lon="7.33599">
        <ele>716</ele>
        <time>2021-08-03T14:31:46Z</time>
      </trkpt>
      <trkpt lat="48.37587" lon="7.33609">
        <ele>714.8</ele>
        <time>2021-08-03T14:31:48Z</time>
      </trkpt>
      <trkpt lat="48.37579" lon="7.33622">
        <ele>713.7</ele>
        <time>2021-08-03T14:31:50Z</time>
      </trkpt>
      <trkpt lat="48.37576" lon="7.3363">
        <ele>713.3</ele>
        <time>2021-08-03T14:31:51Z</time>
      </trkpt>
      <trkpt lat="48.37575" lon="7.33637">
        <ele>713.1</ele>
        <time>2021-08-03T14:31:52Z</time>
      </trkpt>
      <trkpt lat="48.3757" lon="7.33647">
        <ele>712.6</ele>
        <time>2021-08-03T14:31:54Z</time>
      </trkpt>
      <trkpt lat="48.37566" lon="7.33655">
        <ele>712.5</ele>
        <time>2021-08-03T14:31:56Z</time>
      </trkpt>
      <trkpt lat="48.37564" lon="7.33661">
        <ele>712.4</ele>
        <time>2021-08-03T14:31:57Z</time>
      </trkpt>
      <trkpt lat="48.37561" lon="7.33665">
        <ele>712.3</ele>
        <time>2021-08-03T14:31:58Z</time>
      </trkpt>
      <trkpt lat="48.37557" lon="7.33672">
        <ele>712.2</ele>
        <time>2021-08-03T14:32:00Z</time>
      </trkpt>
      <trkpt lat="48.37555" lon="7.33677">
        <ele>712.1</ele>
        <time>2021-08-03T14:32:01Z</time>
      </trkpt>
      <trkpt lat="48.37553" lon="7.33682">
        <ele>712</ele>
        <time>2021-08-03T14:32:02Z</time>
      </trkpt>
      <trkpt lat="48.37551" lon="7.33687">
        <ele>711.9</ele>
        <time>2021-08-03T14:32:03Z</time>
      </trkpt>
      <trkpt lat="48.37548" lon="7.33696">
        <ele>711.7</ele>
        <time>2021-08-03T14:32:05Z</time>
      </trkpt>
      <trkpt lat="48.37547" lon="7.33699">
        <ele>711.7</ele>
        <time>2021-08-03T14:32:06Z</time>
      </trkpt>
      <trkpt lat="48.37545" lon="7.33707">
        <ele>711.6</ele>
        <time>2021-08-03T14:32:08Z</time>
      </trkpt>
      <trkpt lat="48.37543" lon="7.33716">
        <ele>711.4</ele>
        <time>2021-08-03T14:32:10Z</time>
      </trkpt>
      <trkpt lat="48.37542" lon="7.33723">
        <ele>711.3</ele>
        <time>2021-08-03T14:32:11Z</time>
      </trkpt>
      <trkpt lat="48.37541" lon="7.3373">
        <ele>711.2</ele>
        <time>2021-08-03T14:32:13Z</time>
      </trkpt>
      <trkpt lat="48.3754" lon="7.33735">
        <ele>711.1</ele>
        <time>2021-08-03T14:32:14Z</time>
      </trkpt>
      <trkpt lat="48.3754" lon="7.3374">
        <ele>711</ele>
        <time>2021-08-03T14:32:15Z</time>
      </trkpt>
      <trkpt lat="48.37542" lon="7.33741">
        <ele>710.9</ele>
        <time>2021-08-03T14:32:16Z</time>
      </trkpt>
      <trkpt lat="48.37545" lon="7.33758">
        <ele>710.5</ele>
        <time>2021-08-03T14:32:18Z</time>
      </trkpt>
      <trkpt lat="48.37546" lon="7.3377">
        <ele>710.2</ele>
        <time>2021-08-03T14:32:20Z</time>
      </trkpt>
      <trkpt lat="48.37547" lon="7.33777">
        <ele>710.1</ele>
        <time>2021-08-03T14:32:22Z</time>
      </trkpt>
      <trkpt lat="48.37547" lon="7.33781">
        <ele>710</ele>
        <time>2021-08-03T14:32:23Z</time>
      </trkpt>
      <trkpt lat="48.37544" lon="7.33796">
        <ele>709.6</ele>
        <time>2021-08-03T14:32:24Z</time>
      </trkpt>
      <trkpt lat="48.37541" lon="7.33811">
        <ele>709.3</ele>
        <time>2021-08-03T14:32:25Z</time>
      </trkpt>
      <trkpt lat="48.37537" lon="7.33823">
        <ele>709</ele>
        <time>2021-08-03T14:32:26Z</time>
      </trkpt>
      <trkpt lat="48.37531" lon="7.33843">
        <ele>708.6</ele>
        <time>2021-08-03T14:32:28Z</time>
      </trkpt>
      <trkpt lat="48.37522" lon="7.33857">
        <ele>708.3</ele>
        <time>2021-08-03T14:32:30Z</time>
      </trkpt>
      <trkpt lat="48.37518" lon="7.33863">
        <ele>708.1</ele>
        <time>2021-08-03T14:32:31Z</time>
      </trkpt>
      <trkpt lat="48.37511" lon="7.33876">
        <ele>707.9</ele>
        <time>2021-08-03T14:32:33Z</time>
      </trkpt>
      <trkpt lat="48.37507" lon="7.3389">
        <ele>707.6</ele>
        <time>2021-08-03T14:32:35Z</time>
      </trkpt>
      <trkpt lat="48.37506" lon="7.33898">
        <ele>707.4</ele>
        <time>2021-08-03T14:32:36Z</time>
      </trkpt>
      <trkpt lat="48.37507" lon="7.33915">
        <ele>707.1</ele>
        <time>2021-08-03T14:32:38Z</time>
      </trkpt>
      <trkpt lat="48.37508" lon="7.33927">
        <ele>706.8</ele>
        <time>2021-08-03T14:32:39Z</time>
      </trkpt>
      <trkpt lat="48.37508" lon="7.33941">
        <ele>706.5</ele>
        <time>2021-08-03T14:32:40Z</time>
      </trkpt>
      <trkpt lat="48.37509" lon="7.33968">
        <ele>705.9</ele>
        <time>2021-08-03T14:32:42Z</time>
      </trkpt>
      <trkpt lat="48.37508" lon="7.33995">
        <ele>705.5</ele>
        <time>2021-08-03T14:32:44Z</time>
      </trkpt>
      <trkpt lat="48.37508" lon="7.34008">
        <ele>705.3</ele>
        <time>2021-08-03T14:32:45Z</time>
      </trkpt>
      <trkpt lat="48.37508" lon="7.34035">
        <ele>705</ele>
        <time>2021-08-03T14:32:47Z</time>
      </trkpt>
      <trkpt lat="48.37508" lon="7.34046">
        <ele>704.9</ele>
        <time>2021-08-03T14:32:48Z</time>
      </trkpt>
      <trkpt lat="48.37505" lon="7.34053">
        <ele>704.8</ele>
        <time>2021-08-03T14:32:50Z</time>
      </trkpt>
      <trkpt lat="48.37504" lon="7.34065">
        <ele>704.7</ele>
        <time>2021-08-03T14:32:52Z</time>
      </trkpt>
      <trkpt lat="48.37503" lon="7.34071">
        <ele>704.7</ele>
        <time>2021-08-03T14:32:53Z</time>
      </trkpt>
      <trkpt lat="48.37502" lon="7.34082">
        <ele>704.6</ele>
        <time>2021-08-03T14:32:55Z</time>
      </trkpt>
      <trkpt lat="48.37502" lon="7.34086">
        <ele>704.6</ele>
        <time>2021-08-03T14:32:56Z</time>
      </trkpt>
      <trkpt lat="48.37501" lon="7.3409">
        <ele>704.6</ele>
        <time>2021-08-03T14:32:57Z</time>
      </trkpt>
      <trkpt lat="48.37501" lon="7.34094">
        <ele>704.6</ele>
        <time>2021-08-03T14:32:58Z</time>
      </trkpt>
      <trkpt lat="48.37521" lon="7.3426">
        <ele>704.9</ele>
        <time>2021-08-03T14:33:14Z</time>
      </trkpt>
      <trkpt lat="48.37523" lon="7.34268">
        <ele>704.8</ele>
        <time>2021-08-03T14:33:16Z</time>
      </trkpt>
      <trkpt lat="48.37526" lon="7.34278">
        <ele>704.7</ele>
        <time>2021-08-03T14:33:18Z</time>
      </trkpt>
      <trkpt lat="48.37528" lon="7.34286">
        <ele>704.5</ele>
        <time>2021-08-03T14:33:19Z</time>
      </trkpt>
      <trkpt lat="48.3753" lon="7.34301">
        <ele>704.2</ele>
        <time>2021-08-03T14:33:21Z</time>
      </trkpt>
      <trkpt lat="48.3753" lon="7.34303">
        <ele>704.2</ele>
        <time>2021-08-03T14:33:22Z</time>
      </trkpt>
      <trkpt lat="48.37531" lon="7.34311">
        <ele>703.9</ele>
        <time>2021-08-03T14:33:24Z</time>
      </trkpt>
      <trkpt lat="48.37531" lon="7.34318">
        <ele>703.8</ele>
        <time>2021-08-03T14:33:25Z</time>
      </trkpt>
      <trkpt lat="48.3753" lon="7.34322">
        <ele>703.7</ele>
        <time>2021-08-03T14:33:26Z</time>
      </trkpt>
      <trkpt lat="48.37529" lon="7.34327">
        <ele>703.5</ele>
        <time>2021-08-03T14:33:28Z</time>
      </trkpt>
      <trkpt lat="48.37527" lon="7.34331">
        <ele>703.4</ele>
        <time>2021-08-03T14:33:29Z</time>
      </trkpt>
      <trkpt lat="48.37527" lon="7.34347">
        <ele>703.1</ele>
        <time>2021-08-03T14:33:31Z</time>
      </trkpt>
      <trkpt lat="48.37528" lon="7.34359">
        <ele>702.9</ele>
        <time>2021-08-03T14:33:34Z</time>
      </trkpt>
      <trkpt lat="48.37528" lon="7.34372">
        <ele>702.7</ele>
        <time>2021-08-03T14:33:35Z</time>
      </trkpt>
      <trkpt lat="48.37526" lon="7.34385">
        <ele>702.6</ele>
        <time>2021-08-03T14:33:36Z</time>
      </trkpt>
      <trkpt lat="48.37527" lon="7.34383">
        <ele>702.6</ele>
        <time>2021-08-03T14:33:38Z</time>
      </trkpt>
      <trkpt lat="48.37522" lon="7.34398">
        <ele>702.6</ele>
        <time>2021-08-03T14:33:40Z</time>
      </trkpt>
      <trkpt lat="48.37519" lon="7.34409">
        <ele>702.6</ele>
        <time>2021-08-03T14:33:41Z</time>
      </trkpt>
      <trkpt lat="48.37512" lon="7.34427">
        <ele>702.8</ele>
        <time>2021-08-03T14:33:43Z</time>
      </trkpt>
      <trkpt lat="48.37508" lon="7.3444">
        <ele>702.9</ele>
        <time>2021-08-03T14:33:45Z</time>
      </trkpt>
      <trkpt lat="48.37505" lon="7.34446">
        <ele>703</ele>
        <time>2021-08-03T14:33:46Z</time>
      </trkpt>
      <trkpt lat="48.37503" lon="7.34454">
        <ele>703.1</ele>
        <time>2021-08-03T14:33:48Z</time>
      </trkpt>
      <trkpt lat="48.375" lon="7.34461">
        <ele>703.2</ele>
        <time>2021-08-03T14:33:49Z</time>
      </trkpt>
      <trkpt lat="48.37498" lon="7.34466">
        <ele>703.3</ele>
        <time>2021-08-03T14:33:51Z</time>
      </trkpt>
      <trkpt lat="48.37495" lon="7.3447">
        <ele>703.4</ele>
        <time>2021-08-03T14:33:52Z</time>
      </trkpt>
      <trkpt lat="48.37493" lon="7.34473">
        <ele>703.5</ele>
        <time>2021-08-03T14:33:53Z</time>
      </trkpt>
      <trkpt lat="48.37491" lon="7.34476">
        <ele>703.5</ele>
        <time>2021-08-03T14:33:54Z</time>
      </trkpt>
      <trkpt lat="48.37488" lon="7.34479">
        <ele>703.6</ele>
        <time>2021-08-03T14:33:56Z</time>
      </trkpt>
      <trkpt lat="48.37485" lon="7.34482">
        <ele>703.7</ele>
        <time>2021-08-03T14:33:57Z</time>
      </trkpt>
      <trkpt lat="48.3748" lon="7.34486">
        <ele>703.9</ele>
        <time>2021-08-03T14:33:59Z</time>
      </trkpt>
      <trkpt lat="48.37475" lon="7.3449">
        <ele>703.9</ele>
        <time>2021-08-03T14:34:00Z</time>
      </trkpt>
      <trkpt lat="48.37471" lon="7.34493">
        <ele>704</ele>
        <time>2021-08-03T14:34:01Z</time>
      </trkpt>
      <trkpt lat="48.37467" lon="7.34495">
        <ele>704</ele>
        <time>2021-08-03T14:34:03Z</time>
      </trkpt>
      <trkpt lat="48.37462" lon="7.34497">
        <ele>703.9</ele>
        <time>2021-08-03T14:34:05Z</time>
      </trkpt>
      <trkpt lat="48.37459" lon="7.34498">
        <ele>703.9</ele>
        <time>2021-08-03T14:34:06Z</time>
      </trkpt>
      <trkpt lat="48.37453" lon="7.34499">
        <ele>703.8</ele>
        <time>2021-08-03T14:34:08Z</time>
      </trkpt>
      <trkpt lat="48.37449" lon="7.34501">
        <ele>703.8</ele>
        <time>2021-08-03T14:34:10Z</time>
      </trkpt>
      <trkpt lat="48.37445" lon="7.34504">
        <ele>703.8</ele>
        <time>2021-08-03T14:34:11Z</time>
      </trkpt>
      <trkpt lat="48.37443" lon="7.34508">
        <ele>703.8</ele>
        <time>2021-08-03T14:34:12Z</time>
      </trkpt>
      <trkpt lat="48.3744" lon="7.34513">
        <ele>703.8</ele>
        <time>2021-08-03T14:34:13Z</time>
      </trkpt>
      <trkpt lat="48.37437" lon="7.34517">
        <ele>703.8</ele>
        <time>2021-08-03T14:34:14Z</time>
      </trkpt>
      <trkpt lat="48.37435" lon="7.34522">
        <ele>703.8</ele>
        <time>2021-08-03T14:34:15Z</time>
      </trkpt>
      <trkpt lat="48.37432" lon="7.34527">
        <ele>703.8</ele>
        <time>2021-08-03T14:34:16Z</time>
      </trkpt>
      <trkpt lat="48.37429" lon="7.34532">
        <ele>703.8</ele>
        <time>2021-08-03T14:34:17Z</time>
      </trkpt>
      <trkpt lat="48.37426" lon="7.34537">
        <ele>703.9</ele>
        <time>2021-08-03T14:34:18Z</time>
      </trkpt>
      <trkpt lat="48.37423" lon="7.34543">
        <ele>703.9</ele>
        <time>2021-08-03T14:34:19Z</time>
      </trkpt>
      <trkpt lat="48.37421" lon="7.34547">
        <ele>703.9</ele>
        <time>2021-08-03T14:34:20Z</time>
      </trkpt>
      <trkpt lat="48.3742" lon="7.34551">
        <ele>703.9</ele>
        <time>2021-08-03T14:34:22Z</time>
      </trkpt>
      <trkpt lat="48.37418" lon="7.34555">
        <ele>703.9</ele>
        <time>2021-08-03T14:34:23Z</time>
      </trkpt>
      <trkpt lat="48.37416" lon="7.3456">
        <ele>703.9</ele>
        <time>2021-08-03T14:34:24Z</time>
      </trkpt>
      <trkpt lat="48.37415" lon="7.34565">
        <ele>703.9</ele>
        <time>2021-08-03T14:34:25Z</time>
      </trkpt>
      <trkpt lat="48.37414" lon="7.34571">
        <ele>703.9</ele>
        <time>2021-08-03T14:34:26Z</time>
      </trkpt>
      <trkpt lat="48.37413" lon="7.34573">
        <ele>703.9</ele>
        <time>2021-08-03T14:34:27Z</time>
      </trkpt>
      <trkpt lat="48.37412" lon="7.34579">
        <ele>703.8</ele>
        <time>2021-08-03T14:34:28Z</time>
      </trkpt>
      <trkpt lat="48.37411" lon="7.34585">
        <ele>703.7</ele>
        <time>2021-08-03T14:34:30Z</time>
      </trkpt>
      <trkpt lat="48.3741" lon="7.34592">
        <ele>703.6</ele>
        <time>2021-08-03T14:34:31Z</time>
      </trkpt>
      <trkpt lat="48.3741" lon="7.34599">
        <ele>703.5</ele>
        <time>2021-08-03T14:34:32Z</time>
      </trkpt>
      <trkpt lat="48.37413" lon="7.34619">
        <ele>703</ele>
        <time>2021-08-03T14:34:34Z</time>
      </trkpt>
      <trkpt lat="48.37415" lon="7.34628">
        <ele>702.7</ele>
        <time>2021-08-03T14:34:35Z</time>
      </trkpt>
      <trkpt lat="48.3742" lon="7.34647">
        <ele>702.1</ele>
        <time>2021-08-03T14:34:37Z</time>
      </trkpt>
      <trkpt lat="48.37421" lon="7.34656">
        <ele>701.8</ele>
        <time>2021-08-03T14:34:38Z</time>
      </trkpt>
      <trkpt lat="48.37425" lon="7.34677">
        <ele>701.3</ele>
        <time>2021-08-03T14:34:40Z</time>
      </trkpt>
      <trkpt lat="48.37426" lon="7.34689">
        <ele>701.1</ele>
        <time>2021-08-03T14:34:41Z</time>
      </trkpt>
      <trkpt lat="48.37425" lon="7.34701">
        <ele>701</ele>
        <time>2021-08-03T14:34:42Z</time>
      </trkpt>
      <trkpt lat="48.37425" lon="7.34723">
        <ele>700.8</ele>
        <time>2021-08-03T14:34:44Z</time>
      </trkpt>
      <trkpt lat="48.37424" lon="7.34745">
        <ele>700.7</ele>
        <time>2021-08-03T14:34:46Z</time>
      </trkpt>
      <trkpt lat="48.37423" lon="7.34755">
        <ele>700.7</ele>
        <time>2021-08-03T14:34:47Z</time>
      </trkpt>
      <trkpt lat="48.37423" lon="7.34765">
        <ele>700.6</ele>
        <time>2021-08-03T14:34:48Z</time>
      </trkpt>
      <trkpt lat="48.3742" lon="7.34782">
        <ele>700.3</ele>
        <time>2021-08-03T14:34:50Z</time>
      </trkpt>
      <trkpt lat="48.37416" lon="7.348">
        <ele>700</ele>
        <time>2021-08-03T14:34:52Z</time>
      </trkpt>
      <trkpt lat="48.37413" lon="7.34808">
        <ele>699.9</ele>
        <time>2021-08-03T14:34:53Z</time>
      </trkpt>
      <trkpt lat="48.3741" lon="7.34813">
        <ele>699.8</ele>
        <time>2021-08-03T14:34:54Z</time>
      </trkpt>
      <trkpt lat="48.37406" lon="7.34821">
        <ele>699.6</ele>
        <time>2021-08-03T14:34:56Z</time>
      </trkpt>
      <trkpt lat="48.37402" lon="7.34826">
        <ele>699.6</ele>
        <time>2021-08-03T14:34:57Z</time>
      </trkpt>
      <trkpt lat="48.37393" lon="7.34835">
        <ele>699.4</ele>
        <time>2021-08-03T14:34:59Z</time>
      </trkpt>
      <trkpt lat="48.37388" lon="7.34838">
        <ele>699.3</ele>
        <time>2021-08-03T14:35:00Z</time>
      </trkpt>
      <trkpt lat="48.37377" lon="7.34842">
        <ele>699.3</ele>
        <time>2021-08-03T14:35:02Z</time>
      </trkpt>
      <trkpt lat="48.37367" lon="7.34846">
        <ele>699.4</ele>
        <time>2021-08-03T14:35:04Z</time>
      </trkpt>
      <trkpt lat="48.37362" lon="7.34849">
        <ele>699.4</ele>
        <time>2021-08-03T14:35:05Z</time>
      </trkpt>
      <trkpt lat="48.37357" lon="7.34851">
        <ele>699.5</ele>
        <time>2021-08-03T14:35:06Z</time>
      </trkpt>
      <trkpt lat="48.3735" lon="7.34854">
        <ele>699.7</ele>
        <time>2021-08-03T14:35:08Z</time>
      </trkpt>
      <trkpt lat="48.37342" lon="7.34855">
        <ele>699.9</ele>
        <time>2021-08-03T14:35:10Z</time>
      </trkpt>
      <trkpt lat="48.37332" lon="7.34857">
        <ele>700.3</ele>
        <time>2021-08-03T14:35:12Z</time>
      </trkpt>
      <trkpt lat="48.37326" lon="7.34864">
        <ele>700.6</ele>
        <time>2021-08-03T14:35:14Z</time>
      </trkpt>
      <trkpt lat="48.37323" lon="7.34865">
        <ele>700.7</ele>
        <time>2021-08-03T14:35:15Z</time>
      </trkpt>
      <trkpt lat="48.37318" lon="7.34863">
        <ele>700.9</ele>
        <time>2021-08-03T14:35:17Z</time>
      </trkpt>
      <trkpt lat="48.37315" lon="7.34864">
        <ele>701</ele>
        <time>2021-08-03T14:35:18Z</time>
      </trkpt>
      <trkpt lat="48.37313" lon="7.34865">
        <ele>701.1</ele>
        <time>2021-08-03T14:35:19Z</time>
      </trkpt>
      <trkpt lat="48.37312" lon="7.34865">
        <ele>701.1</ele>
        <time>2021-08-03T14:35:20Z</time>
      </trkpt>
      <trkpt lat="48.3731" lon="7.34866">
        <ele>701.2</ele>
        <time>2021-08-03T14:35:21Z</time>
      </trkpt>
      <trkpt lat="48.37309" lon="7.34867">
        <ele>701.2</ele>
        <time>2021-08-03T14:35:22Z</time>
      </trkpt>
      <trkpt lat="48.37304" lon="7.3487">
        <ele>701.3</ele>
        <time>2021-08-03T14:35:24Z</time>
      </trkpt>
      <trkpt lat="48.37298" lon="7.34873">
        <ele>701.4</ele>
        <time>2021-08-03T14:35:26Z</time>
      </trkpt>
      <trkpt lat="48.37295" lon="7.34876">
        <ele>701.4</ele>
        <time>2021-08-03T14:35:27Z</time>
      </trkpt>
      <trkpt lat="48.37287" lon="7.34883">
        <ele>701.3</ele>
        <time>2021-08-03T14:35:28Z</time>
      </trkpt>
      <trkpt lat="48.37279" lon="7.34894">
        <ele>701.2</ele>
        <time>2021-08-03T14:35:30Z</time>
      </trkpt>
      <trkpt lat="48.37271" lon="7.34905">
        <ele>701.1</ele>
        <time>2021-08-03T14:35:32Z</time>
      </trkpt>
      <trkpt lat="48.37262" lon="7.34915">
        <ele>701.1</ele>
        <time>2021-08-03T14:35:34Z</time>
      </trkpt>
      <trkpt lat="48.37254" lon="7.34923">
        <ele>701.2</ele>
        <time>2021-08-03T14:35:36Z</time>
      </trkpt>
      <trkpt lat="48.37251" lon="7.34924">
        <ele>701.2</ele>
        <time>2021-08-03T14:35:37Z</time>
      </trkpt>
      <trkpt lat="48.37246" lon="7.34929">
        <ele>701.3</ele>
        <time>2021-08-03T14:35:39Z</time>
      </trkpt>
      <trkpt lat="48.37242" lon="7.34935">
        <ele>701.4</ele>
        <time>2021-08-03T14:35:40Z</time>
      </trkpt>
      <trkpt lat="48.37238" lon="7.34937">
        <ele>701.4</ele>
        <time>2021-08-03T14:35:41Z</time>
      </trkpt>
      <trkpt lat="48.37235" lon="7.3494">
        <ele>701.5</ele>
        <time>2021-08-03T14:35:42Z</time>
      </trkpt>
      <trkpt lat="48.37231" lon="7.34944">
        <ele>701.5</ele>
        <time>2021-08-03T14:35:44Z</time>
      </trkpt>
      <trkpt lat="48.37228" lon="7.34949">
        <ele>701.5</ele>
        <time>2021-08-03T14:35:45Z</time>
      </trkpt>
      <trkpt lat="48.37225" lon="7.34951">
        <ele>701.5</ele>
        <time>2021-08-03T14:35:46Z</time>
      </trkpt>
      <trkpt lat="48.37222" lon="7.34953">
        <ele>701.5</ele>
        <time>2021-08-03T14:35:48Z</time>
      </trkpt>
      <trkpt lat="48.37219" lon="7.34954">
        <ele>701.5</ele>
        <time>2021-08-03T14:35:49Z</time>
      </trkpt>
      <trkpt lat="48.37216" lon="7.34956">
        <ele>701.4</ele>
        <time>2021-08-03T14:35:50Z</time>
      </trkpt>
      <trkpt lat="48.37212" lon="7.34958">
        <ele>701.3</ele>
        <time>2021-08-03T14:35:52Z</time>
      </trkpt>
      <trkpt lat="48.3721" lon="7.3496">
        <ele>701.2</ele>
        <time>2021-08-03T14:35:53Z</time>
      </trkpt>
      <trkpt lat="48.37205" lon="7.34963">
        <ele>700.9</ele>
        <time>2021-08-03T14:35:54Z</time>
      </trkpt>
      <trkpt lat="48.372" lon="7.34965">
        <ele>700.6</ele>
        <time>2021-08-03T14:35:56Z</time>
      </trkpt>
      <trkpt lat="48.37196" lon="7.34964">
        <ele>700.3</ele>
        <time>2021-08-03T14:35:57Z</time>
      </trkpt>
      <trkpt lat="48.37195" lon="7.34962">
        <ele>700.1</ele>
        <time>2021-08-03T14:35:59Z</time>
      </trkpt>
      <trkpt lat="48.37195" lon="7.3496">
        <ele>700</ele>
        <time>2021-08-03T14:36:00Z</time>
      </trkpt>
      <trkpt lat="48.37194" lon="7.34958">
        <ele>699.9</ele>
        <time>2021-08-03T14:36:01Z</time>
      </trkpt>
      <trkpt lat="48.37195" lon="7.34957">
        <ele>699.8</ele>
        <time>2021-08-03T14:36:02Z</time>
      </trkpt>
      <trkpt lat="48.37195" lon="7.34956">
        <ele>699.7</ele>
        <time>2021-08-03T14:36:03Z</time>
      </trkpt>
      <trkpt lat="48.37194" lon="7.34955">
        <ele>699.6</ele>
        <time>2021-08-03T14:36:04Z</time>
      </trkpt>
      <trkpt lat="48.37191" lon="7.34952">
        <ele>699.3</ele>
        <time>2021-08-03T14:36:06Z</time>
      </trkpt>
      <trkpt lat="48.37191" lon="7.34951">
        <ele>699.2</ele>
        <time>2021-08-03T14:36:07Z</time>
      </trkpt>
      <trkpt lat="48.37191" lon="7.34951">
        <ele>699.2</ele>
        <time>2021-08-03T14:36:09Z</time>
      </trkpt>
      <trkpt lat="48.37191" lon="7.34952">
        <ele>699.2</ele>
        <time>2021-08-03T14:36:10Z</time>
      </trkpt>
      <trkpt lat="48.37191" lon="7.34952">
        <ele>699.2</ele>
        <time>2021-08-03T14:36:11Z</time>
      </trkpt>
      <trkpt lat="48.37191" lon="7.34953">
        <ele>699.1</ele>
        <time>2021-08-03T14:36:13Z</time>
      </trkpt>
      <trkpt lat="48.37192" lon="7.34954">
        <ele>699</ele>
        <time>2021-08-03T14:36:15Z</time>
      </trkpt>
      <trkpt lat="48.37193" lon="7.34955">
        <ele>698.9</ele>
        <time>2021-08-03T14:36:16Z</time>
      </trkpt>
      <trkpt lat="48.37174" lon="7.34973">
        <ele>695.8</ele>
        <time>2021-08-03T14:36:24Z</time>
      </trkpt>
      <trkpt lat="48.37166" lon="7.3498">
        <ele>694.3</ele>
        <time>2021-08-03T14:36:25Z</time>
      </trkpt>
      <trkpt lat="48.3716" lon="7.34986">
        <ele>693.1</ele>
        <time>2021-08-03T14:36:26Z</time>
      </trkpt>
      <trkpt lat="48.37148" lon="7.34993">
        <ele>690.9</ele>
        <time>2021-08-03T14:36:28Z</time>
      </trkpt>
      <trkpt lat="48.37142" lon="7.34997">
        <ele>689.8</ele>
        <time>2021-08-03T14:36:29Z</time>
      </trkpt>
      <trkpt lat="48.37134" lon="7.35">
        <ele>688.7</ele>
        <time>2021-08-03T14:36:30Z</time>
      </trkpt>
      <trkpt lat="48.37121" lon="7.35009">
        <ele>686.9</ele>
        <time>2021-08-03T14:36:32Z</time>
      </trkpt>
      <trkpt lat="48.37109" lon="7.35019">
        <ele>685.6</ele>
        <time>2021-08-03T14:36:34Z</time>
      </trkpt>
      <trkpt lat="48.37103" lon="7.35023">
        <ele>685</ele>
        <time>2021-08-03T14:36:35Z</time>
      </trkpt>
      <trkpt lat="48.37098" lon="7.35028">
        <ele>684.5</ele>
        <time>2021-08-03T14:36:36Z</time>
      </trkpt>
      <trkpt lat="48.37087" lon="7.35043">
        <ele>683.6</ele>
        <time>2021-08-03T14:36:38Z</time>
      </trkpt>
      <trkpt lat="48.37077" lon="7.35058">
        <ele>683</ele>
        <time>2021-08-03T14:36:40Z</time>
      </trkpt>
      <trkpt lat="48.37072" lon="7.35065">
        <ele>682.7</ele>
        <time>2021-08-03T14:36:41Z</time>
      </trkpt>
      <trkpt lat="48.37067" lon="7.3507">
        <ele>682.4</ele>
        <time>2021-08-03T14:36:42Z</time>
      </trkpt>
      <trkpt lat="48.37061" lon="7.35075">
        <ele>682.1</ele>
        <time>2021-08-03T14:36:43Z</time>
      </trkpt>
      <trkpt lat="48.37055" lon="7.35078">
        <ele>681.8</ele>
        <time>2021-08-03T14:36:44Z</time>
      </trkpt>
      <trkpt lat="48.37048" lon="7.35081">
        <ele>681.5</ele>
        <time>2021-08-03T14:36:45Z</time>
      </trkpt>
      <trkpt lat="48.37036" lon="7.35083">
        <ele>680.9</ele>
        <time>2021-08-03T14:36:47Z</time>
      </trkpt>
      <trkpt lat="48.3703" lon="7.35084">
        <ele>680.6</ele>
        <time>2021-08-03T14:36:48Z</time>
      </trkpt>
      <trkpt lat="48.37018" lon="7.35086">
        <ele>679.9</ele>
        <time>2021-08-03T14:36:50Z</time>
      </trkpt>
      <trkpt lat="48.37008" lon="7.35088">
        <ele>679.4</ele>
        <time>2021-08-03T14:36:52Z</time>
      </trkpt>
      <trkpt lat="48.36997" lon="7.35093">
        <ele>679.2</ele>
        <time>2021-08-03T14:36:54Z</time>
      </trkpt>
      <trkpt lat="48.36992" lon="7.35098">
        <ele>679.1</ele>
        <time>2021-08-03T14:36:55Z</time>
      </trkpt>
      <trkpt lat="48.36988" lon="7.35104">
        <ele>679</ele>
        <time>2021-08-03T14:36:56Z</time>
      </trkpt>
      <trkpt lat="48.36985" lon="7.3512">
        <ele>680.1</ele>
        <time>2021-08-03T14:36:58Z</time>
      </trkpt>
      <trkpt lat="48.36986" lon="7.35127">
        <ele>680.7</ele>
        <time>2021-08-03T14:36:59Z</time>
      </trkpt>
      <trkpt lat="48.36988" lon="7.35133">
        <ele>681</ele>
        <time>2021-08-03T14:37:00Z</time>
      </trkpt>
      <trkpt lat="48.36991" lon="7.35141">
        <ele>681.3</ele>
        <time>2021-08-03T14:37:02Z</time>
      </trkpt>
      <trkpt lat="48.36992" lon="7.35145">
        <ele>681.5</ele>
        <time>2021-08-03T14:37:03Z</time>
      </trkpt>
      <trkpt lat="48.36995" lon="7.35153">
        <ele>681.8</ele>
        <time>2021-08-03T14:37:05Z</time>
      </trkpt>
      <trkpt lat="48.36996" lon="7.35157">
        <ele>682</ele>
        <time>2021-08-03T14:37:06Z</time>
      </trkpt>
      <trkpt lat="48.36997" lon="7.35166">
        <ele>682.2</ele>
        <time>2021-08-03T14:37:08Z</time>
      </trkpt>
      <trkpt lat="48.36999" lon="7.35171">
        <ele>682.2</ele>
        <time>2021-08-03T14:37:10Z</time>
      </trkpt>
      <trkpt lat="48.37" lon="7.35175">
        <ele>682.1</ele>
        <time>2021-08-03T14:37:11Z</time>
      </trkpt>
      <trkpt lat="48.37001" lon="7.35187">
        <ele>681.8</ele>
        <time>2021-08-03T14:37:13Z</time>
      </trkpt>
      <trkpt lat="48.37004" lon="7.352">
        <ele>681.4</ele>
        <time>2021-08-03T14:37:14Z</time>
      </trkpt>
      <trkpt lat="48.37005" lon="7.35208">
        <ele>681.1</ele>
        <time>2021-08-03T14:37:15Z</time>
      </trkpt>
      <trkpt lat="48.3701" lon="7.35223">
        <ele>680.5</ele>
        <time>2021-08-03T14:37:17Z</time>
      </trkpt>
      <trkpt lat="48.37015" lon="7.35238">
        <ele>679.9</ele>
        <time>2021-08-03T14:37:19Z</time>
      </trkpt>
      <trkpt lat="48.37017" lon="7.35247">
        <ele>679.6</ele>
        <time>2021-08-03T14:37:20Z</time>
      </trkpt>
      <trkpt lat="48.37023" lon="7.35264">
        <ele>678.9</ele>
        <time>2021-08-03T14:37:22Z</time>
      </trkpt>
      <trkpt lat="48.37026" lon="7.35274">
        <ele>678.5</ele>
        <time>2021-08-03T14:37:23Z</time>
      </trkpt>
      <trkpt lat="48.37031" lon="7.35294">
        <ele>677.7</ele>
        <time>2021-08-03T14:37:25Z</time>
      </trkpt>
      <trkpt lat="48.37033" lon="7.35305">
        <ele>677.2</ele>
        <time>2021-08-03T14:37:26Z</time>
      </trkpt>
      <trkpt lat="48.37035" lon="7.3533">
        <ele>676.5</ele>
        <time>2021-08-03T14:37:28Z</time>
      </trkpt>
      <trkpt lat="48.37035" lon="7.35354">
        <ele>675.8</ele>
        <time>2021-08-03T14:37:30Z</time>
      </trkpt>
      <trkpt lat="48.37033" lon="7.35377">
        <ele>675.7</ele>
        <time>2021-08-03T14:37:32Z</time>
      </trkpt>
      <trkpt lat="48.37032" lon="7.35393">
        <ele>675.9</ele>
        <time>2021-08-03T14:37:34Z</time>
      </trkpt>
      <trkpt lat="48.37031" lon="7.354">
        <ele>676</ele>
        <time>2021-08-03T14:37:35Z</time>
      </trkpt>
      <trkpt lat="48.3703" lon="7.35413">
        <ele>676.2</ele>
        <time>2021-08-03T14:37:37Z</time>
      </trkpt>
      <trkpt lat="48.3703" lon="7.35427">
        <ele>676.4</ele>
        <time>2021-08-03T14:37:39Z</time>
      </trkpt>
      <trkpt lat="48.37029" lon="7.35433">
        <ele>676.5</ele>
        <time>2021-08-03T14:37:40Z</time>
      </trkpt>
      <trkpt lat="48.37028" lon="7.35442">
        <ele>676.6</ele>
        <time>2021-08-03T14:37:42Z</time>
      </trkpt>
      <trkpt lat="48.37029" lon="7.35449">
        <ele>676.6</ele>
        <time>2021-08-03T14:37:44Z</time>
      </trkpt>
      <trkpt lat="48.3703" lon="7.35455">
        <ele>676.7</ele>
        <time>2021-08-03T14:37:46Z</time>
      </trkpt>
      <trkpt lat="48.37031" lon="7.3546">
        <ele>676.7</ele>
        <time>2021-08-03T14:37:47Z</time>
      </trkpt>
      <trkpt lat="48.37029" lon="7.35464">
        <ele>676.7</ele>
        <time>2021-08-03T14:37:49Z</time>
      </trkpt>
      <trkpt lat="48.3703" lon="7.35466">
        <ele>676.7</ele>
        <time>2021-08-03T14:37:50Z</time>
      </trkpt>
      <trkpt lat="48.37033" lon="7.35473">
        <ele>676.7</ele>
        <time>2021-08-03T14:37:52Z</time>
      </trkpt>
      <trkpt lat="48.37034" lon="7.35477">
        <ele>676.7</ele>
        <time>2021-08-03T14:37:53Z</time>
      </trkpt>
      <trkpt lat="48.37035" lon="7.35485">
        <ele>676.7</ele>
        <time>2021-08-03T14:37:55Z</time>
      </trkpt>
      <trkpt lat="48.37035" lon="7.35494">
        <ele>676.6</ele>
        <time>2021-08-03T14:37:56Z</time>
      </trkpt>
      <trkpt lat="48.37034" lon="7.35505">
        <ele>676.5</ele>
        <time>2021-08-03T14:37:58Z</time>
      </trkpt>
      <trkpt lat="48.37035" lon="7.35514">
        <ele>676.4</ele>
        <time>2021-08-03T14:37:59Z</time>
      </trkpt>
      <trkpt lat="48.37035" lon="7.35524">
        <ele>676.2</ele>
        <time>2021-08-03T14:38:01Z</time>
      </trkpt>
      <trkpt lat="48.37036" lon="7.35535">
        <ele>676.1</ele>
        <time>2021-08-03T14:38:03Z</time>
      </trkpt>
      <trkpt lat="48.37036" lon="7.35546">
        <ele>676</ele>
        <time>2021-08-03T14:38:04Z</time>
      </trkpt>
      <trkpt lat="48.37036" lon="7.35558">
        <ele>675.9</ele>
        <time>2021-08-03T14:38:05Z</time>
      </trkpt>
      <trkpt lat="48.37035" lon="7.35567">
        <ele>675.9</ele>
        <time>2021-08-03T14:38:06Z</time>
      </trkpt>
      <trkpt lat="48.37033" lon="7.35584">
        <ele>675.9</ele>
        <time>2021-08-03T14:38:08Z</time>
      </trkpt>
      <trkpt lat="48.37032" lon="7.3559">
        <ele>675.9</ele>
        <time>2021-08-03T14:38:09Z</time>
      </trkpt>
      <trkpt lat="48.37033" lon="7.35595">
        <ele>675.8</ele>
        <time>2021-08-03T14:38:10Z</time>
      </trkpt>
      <trkpt lat="48.37033" lon="7.356">
        <ele>675.8</ele>
        <time>2021-08-03T14:38:11Z</time>
      </trkpt>
      <trkpt lat="48.37032" lon="7.35608">
        <ele>675.7</ele>
        <time>2021-08-03T14:38:13Z</time>
      </trkpt>
      <trkpt lat="48.3703" lon="7.3562">
        <ele>675.4</ele>
        <time>2021-08-03T14:38:14Z</time>
      </trkpt>
      <trkpt lat="48.37025" lon="7.35624">
        <ele>675.1</ele>
        <time>2021-08-03T14:38:16Z</time>
      </trkpt>
      <trkpt lat="48.37023" lon="7.35631">
        <ele>674.8</ele>
        <time>2021-08-03T14:38:17Z</time>
      </trkpt>
      <trkpt lat="48.3702" lon="7.35637">
        <ele>674.4</ele>
        <time>2021-08-03T14:38:19Z</time>
      </trkpt>
      <trkpt lat="48.37017" lon="7.35641">
        <ele>674.2</ele>
        <time>2021-08-03T14:38:20Z</time>
      </trkpt>
      <trkpt lat="48.37015" lon="7.35645">
        <ele>673.8</ele>
        <time>2021-08-03T14:38:21Z</time>
      </trkpt>
      <trkpt lat="48.37013" lon="7.35648">
        <ele>673.6</ele>
        <time>2021-08-03T14:38:22Z</time>
      </trkpt>
      <trkpt lat="48.37011" lon="7.35651">
        <ele>673.4</ele>
        <time>2021-08-03T14:38:23Z</time>
      </trkpt>
      <trkpt lat="48.37009" lon="7.35656">
        <ele>673</ele>
        <time>2021-08-03T14:38:25Z</time>
      </trkpt>
      <trkpt lat="48.37007" lon="7.35662">
        <ele>672.6</ele>
        <time>2021-08-03T14:38:26Z</time>
      </trkpt>
      <trkpt lat="48.37003" lon="7.3567">
        <ele>672.1</ele>
        <time>2021-08-03T14:38:28Z</time>
      </trkpt>
      <trkpt lat="48.37" lon="7.35676">
        <ele>671.7</ele>
        <time>2021-08-03T14:38:29Z</time>
      </trkpt>
      <trkpt lat="48.36997" lon="7.35682">
        <ele>671.4</ele>
        <time>2021-08-03T14:38:30Z</time>
      </trkpt>
      <trkpt lat="48.36995" lon="7.35687">
        <ele>671.2</ele>
        <time>2021-08-03T14:38:31Z</time>
      </trkpt>
      <trkpt lat="48.36993" lon="7.35692">
        <ele>671</ele>
        <time>2021-08-03T14:38:32Z</time>
      </trkpt>
      <trkpt lat="48.36991" lon="7.35697">
        <ele>670.8</ele>
        <time>2021-08-03T14:38:33Z</time>
      </trkpt>
      <trkpt lat="48.36989" lon="7.35701">
        <ele>670.7</ele>
        <time>2021-08-03T14:38:34Z</time>
      </trkpt>
      <trkpt lat="48.36988" lon="7.35705">
        <ele>670.6</ele>
        <time>2021-08-03T14:38:35Z</time>
      </trkpt>
      <trkpt lat="48.36984" lon="7.35711">
        <ele>670.5</ele>
        <time>2021-08-03T14:38:37Z</time>
      </trkpt>
      <trkpt lat="48.36982" lon="7.35715">
        <ele>670.4</ele>
        <time>2021-08-03T14:38:39Z</time>
      </trkpt>
      <trkpt lat="48.3698" lon="7.35716">
        <ele>670.3</ele>
        <time>2021-08-03T14:38:40Z</time>
      </trkpt>
      <trkpt lat="48.36977" lon="7.35719">
        <ele>670.2</ele>
        <time>2021-08-03T14:38:41Z</time>
      </trkpt>
      <trkpt lat="48.36976" lon="7.3572">
        <ele>670.2</ele>
        <time>2021-08-03T14:38:42Z</time>
      </trkpt>
      <trkpt lat="48.36974" lon="7.35722">
        <ele>670.1</ele>
        <time>2021-08-03T14:38:44Z</time>
      </trkpt>
      <trkpt lat="48.36971" lon="7.35723">
        <ele>670.1</ele>
        <time>2021-08-03T14:38:46Z</time>
      </trkpt>
      <trkpt lat="48.36969" lon="7.35723">
        <ele>670</ele>
        <time>2021-08-03T14:38:47Z</time>
      </trkpt>
      <trkpt lat="48.36968" lon="7.35724">
        <ele>670</ele>
        <time>2021-08-03T14:38:48Z</time>
      </trkpt>
      <trkpt lat="48.36968" lon="7.35721">
        <ele>670</ele>
        <time>2021-08-03T14:38:50Z</time>
      </trkpt>
      <trkpt lat="48.36967" lon="7.3572">
        <ele>669.9</ele>
        <time>2021-08-03T14:38:51Z</time>
      </trkpt>
      <trkpt lat="48.36967" lon="7.35719">
        <ele>669.9</ele>
        <time>2021-08-03T14:38:52Z</time>
      </trkpt>
      <trkpt lat="48.36967" lon="7.35719">
        <ele>669.9</ele>
        <time>2021-08-03T14:38:53Z</time>
      </trkpt>
      <trkpt lat="48.36966" lon="7.35717">
        <ele>669.9</ele>
        <time>2021-08-03T14:38:54Z</time>
      </trkpt>
      <trkpt lat="48.36965" lon="7.35714">
        <ele>669.8</ele>
        <time>2021-08-03T14:38:56Z</time>
      </trkpt>
      <trkpt lat="48.36963" lon="7.35712">
        <ele>669.8</ele>
        <time>2021-08-03T14:38:57Z</time>
      </trkpt>
      <trkpt lat="48.36955" lon="7.35704">
        <ele>669.5</ele>
        <time>2021-08-03T14:39:02Z</time>
      </trkpt>
      <trkpt lat="48.36953" lon="7.35701">
        <ele>669.5</ele>
        <time>2021-08-03T14:39:03Z</time>
      </trkpt>
      <trkpt lat="48.36948" lon="7.35699">
        <ele>669.4</ele>
        <time>2021-08-03T14:39:05Z</time>
      </trkpt>
      <trkpt lat="48.36944" lon="7.35699">
        <ele>669.3</ele>
        <time>2021-08-03T14:39:06Z</time>
      </trkpt>
      <trkpt lat="48.36939" lon="7.35698">
        <ele>669.2</ele>
        <time>2021-08-03T14:39:08Z</time>
      </trkpt>
      <trkpt lat="48.36938" lon="7.35697">
        <ele>669.2</ele>
        <time>2021-08-03T14:39:09Z</time>
      </trkpt>
      <trkpt lat="48.36936" lon="7.35696">
        <ele>669.1</ele>
        <time>2021-08-03T14:39:10Z</time>
      </trkpt>
      <trkpt lat="48.36931" lon="7.35696">
        <ele>669.1</ele>
        <time>2021-08-03T14:39:12Z</time>
      </trkpt>
      <trkpt lat="48.36931" lon="7.35696">
        <ele>669.1</ele>
        <time>2021-08-03T14:39:13Z</time>
      </trkpt>
      <trkpt lat="48.36929" lon="7.35698">
        <ele>669.1</ele>
        <time>2021-08-03T14:39:15Z</time>
      </trkpt>
      <trkpt lat="48.36929" lon="7.35698">
        <ele>669.1</ele>
        <time>2021-08-03T14:39:16Z</time>
      </trkpt>
      <trkpt lat="48.36928" lon="7.35698">
        <ele>669</ele>
        <time>2021-08-03T14:39:18Z</time>
      </trkpt>
      <trkpt lat="48.36926" lon="7.357">
        <ele>669</ele>
        <time>2021-08-03T14:39:20Z</time>
      </trkpt>
      <trkpt lat="48.36793" lon="7.35846">
        <ele>686.1</ele>
        <time>2021-08-03T14:42:19Z</time>
      </trkpt>
      <trkpt lat="48.36792" lon="7.35851">
        <ele>686.2</ele>
        <time>2021-08-03T14:42:20Z</time>
      </trkpt>
      <trkpt lat="48.3679" lon="7.35858">
        <ele>686.2</ele>
        <time>2021-08-03T14:42:21Z</time>
      </trkpt>
      <trkpt lat="48.36788" lon="7.35866">
        <ele>686.2</ele>
        <time>2021-08-03T14:42:22Z</time>
      </trkpt>
      <trkpt lat="48.36786" lon="7.35876">
        <ele>686</ele>
        <time>2021-08-03T14:42:23Z</time>
      </trkpt>
      <trkpt lat="48.36783" lon="7.35885">
        <ele>685.6</ele>
        <time>2021-08-03T14:42:24Z</time>
      </trkpt>
      <trkpt lat="48.36776" lon="7.35911">
        <ele>684.1</ele>
        <time>2021-08-03T14:42:26Z</time>
      </trkpt>
      <trkpt lat="48.36771" lon="7.3593">
        <ele>683</ele>
        <time>2021-08-03T14:42:28Z</time>
      </trkpt>
      <trkpt lat="48.36768" lon="7.3594">
        <ele>682.5</ele>
        <time>2021-08-03T14:42:29Z</time>
      </trkpt>
      <trkpt lat="48.36765" lon="7.3595">
        <ele>682</ele>
        <time>2021-08-03T14:42:30Z</time>
      </trkpt>
      <trkpt lat="48.36762" lon="7.35964">
        <ele>681.4</ele>
        <time>2021-08-03T14:42:32Z</time>
      </trkpt>
      <trkpt lat="48.36763" lon="7.35967">
        <ele>681.2</ele>
        <time>2021-08-03T14:42:33Z</time>
      </trkpt>
      <trkpt lat="48.3676" lon="7.35979">
        <ele>680.8</ele>
        <time>2021-08-03T14:42:35Z</time>
      </trkpt>
      <trkpt lat="48.36757" lon="7.35986">
        <ele>680.5</ele>
        <time>2021-08-03T14:42:36Z</time>
      </trkpt>
      <trkpt lat="48.36753" lon="7.35994">
        <ele>680.2</ele>
        <time>2021-08-03T14:42:37Z</time>
      </trkpt>
      <trkpt lat="48.36748" lon="7.36001">
        <ele>679.8</ele>
        <time>2021-08-03T14:42:38Z</time>
      </trkpt>
      <trkpt lat="48.36743" lon="7.36009">
        <ele>679.4</ele>
        <time>2021-08-03T14:42:39Z</time>
      </trkpt>
      <trkpt lat="48.36738" lon="7.36017">
        <ele>679.1</ele>
        <time>2021-08-03T14:42:41Z</time>
      </trkpt>
      <trkpt lat="48.36734" lon="7.36025">
        <ele>678.7</ele>
        <time>2021-08-03T14:42:42Z</time>
      </trkpt>
      <trkpt lat="48.36729" lon="7.36032">
        <ele>678.4</ele>
        <time>2021-08-03T14:42:43Z</time>
      </trkpt>
      <trkpt lat="48.36725" lon="7.36037">
        <ele>678.1</ele>
        <time>2021-08-03T14:42:44Z</time>
      </trkpt>
      <trkpt lat="48.3672" lon="7.36044">
        <ele>677.8</ele>
        <time>2021-08-03T14:42:46Z</time>
      </trkpt>
      <trkpt lat="48.36712" lon="7.36051">
        <ele>677.4</ele>
        <time>2021-08-03T14:42:47Z</time>
      </trkpt>
      <trkpt lat="48.36706" lon="7.36057">
        <ele>677.1</ele>
        <time>2021-08-03T14:42:48Z</time>
      </trkpt>
      <trkpt lat="48.36701" lon="7.36062">
        <ele>676.7</ele>
        <time>2021-08-03T14:42:49Z</time>
      </trkpt>
      <trkpt lat="48.36695" lon="7.36067">
        <ele>676.3</ele>
        <time>2021-08-03T14:42:50Z</time>
      </trkpt>
      <trkpt lat="48.36681" lon="7.36079">
        <ele>675.3</ele>
        <time>2021-08-03T14:42:52Z</time>
      </trkpt>
      <trkpt lat="48.36674" lon="7.36083">
        <ele>674.8</ele>
        <time>2021-08-03T14:42:53Z</time>
      </trkpt>
      <trkpt lat="48.36666" lon="7.36086">
        <ele>674.2</ele>
        <time>2021-08-03T14:42:54Z</time>
      </trkpt>
      <trkpt lat="48.36651" lon="7.36092">
        <ele>673</ele>
        <time>2021-08-03T14:42:56Z</time>
      </trkpt>
      <trkpt lat="48.36636" lon="7.36099">
        <ele>671.9</ele>
        <time>2021-08-03T14:42:58Z</time>
      </trkpt>
      <trkpt lat="48.36628" lon="7.36104">
        <ele>671.4</ele>
        <time>2021-08-03T14:42:59Z</time>
      </trkpt>
      <trkpt lat="48.36621" lon="7.36109">
        <ele>671</ele>
        <time>2021-08-03T14:43:00Z</time>
      </trkpt>
      <trkpt lat="48.36608" lon="7.36123">
        <ele>670.4</ele>
        <time>2021-08-03T14:43:02Z</time>
      </trkpt>
      <trkpt lat="48.36598" lon="7.36133">
        <ele>669.9</ele>
        <time>2021-08-03T14:43:04Z</time>
      </trkpt>
      <trkpt lat="48.36587" lon="7.36143">
        <ele>669.4</ele>
        <time>2021-08-03T14:43:06Z</time>
      </trkpt>
      <trkpt lat="48.36576" lon="7.36153">
        <ele>668.9</ele>
        <time>2021-08-03T14:43:08Z</time>
      </trkpt>
      <trkpt lat="48.3657" lon="7.36159">
        <ele>668.7</ele>
        <time>2021-08-03T14:43:09Z</time>
      </trkpt>
      <trkpt lat="48.36562" lon="7.3617">
        <ele>668.3</ele>
        <time>2021-08-03T14:43:11Z</time>
      </trkpt>
      <trkpt lat="48.36558" lon="7.36176">
        <ele>668.1</ele>
        <time>2021-08-03T14:43:12Z</time>
      </trkpt>
      <trkpt lat="48.36552" lon="7.36188">
        <ele>667.6</ele>
        <time>2021-08-03T14:43:14Z</time>
      </trkpt>
      <trkpt lat="48.36549" lon="7.36194">
        <ele>667.4</ele>
        <time>2021-08-03T14:43:15Z</time>
      </trkpt>
      <trkpt lat="48.36542" lon="7.36207">
        <ele>666.8</ele>
        <time>2021-08-03T14:43:17Z</time>
      </trkpt>
      <trkpt lat="48.36538" lon="7.36216">
        <ele>666.4</ele>
        <time>2021-08-03T14:43:18Z</time>
      </trkpt>
      <trkpt lat="48.36535" lon="7.36228">
        <ele>666</ele>
        <time>2021-08-03T14:43:19Z</time>
      </trkpt>
      <trkpt lat="48.36534" lon="7.36255">
        <ele>665.1</ele>
        <time>2021-08-03T14:43:21Z</time>
      </trkpt>
      <trkpt lat="48.36533" lon="7.36271">
        <ele>664.5</ele>
        <time>2021-08-03T14:43:22Z</time>
      </trkpt>
      <trkpt lat="48.36534" lon="7.36286">
        <ele>663.8</ele>
        <time>2021-08-03T14:43:23Z</time>
      </trkpt>
      <trkpt lat="48.36532" lon="7.36301">
        <ele>662.9</ele>
        <time>2021-08-03T14:43:24Z</time>
      </trkpt>
      <trkpt lat="48.36528" lon="7.36321">
        <ele>661.7</ele>
        <time>2021-08-03T14:43:26Z</time>
      </trkpt>
      <trkpt lat="48.36525" lon="7.36331">
        <ele>661.1</ele>
        <time>2021-08-03T14:43:27Z</time>
      </trkpt>
      <trkpt lat="48.36522" lon="7.36343">
        <ele>660.1</ele>
        <time>2021-08-03T14:43:28Z</time>
      </trkpt>
      <trkpt lat="48.36515" lon="7.3637">
        <ele>658.1</ele>
        <time>2021-08-03T14:43:30Z</time>
      </trkpt>
      <trkpt lat="48.3651" lon="7.36397">
        <ele>656.2</ele>
        <time>2021-08-03T14:43:32Z</time>
      </trkpt>
      <trkpt lat="48.36509" lon="7.36401">
        <ele>655.9</ele>
        <time>2021-08-03T14:43:34Z</time>
      </trkpt>
      <trkpt lat="48.36508" lon="7.36403">
        <ele>655.7</ele>
        <time>2021-08-03T14:43:35Z</time>
      </trkpt>
      <trkpt lat="48.36503" lon="7.3642">
        <ele>654.5</ele>
        <time>2021-08-03T14:43:37Z</time>
      </trkpt>
      <trkpt lat="48.36498" lon="7.36433">
        <ele>653.5</ele>
        <time>2021-08-03T14:43:39Z</time>
      </trkpt>
      <trkpt lat="48.36495" lon="7.3644">
        <ele>652.9</ele>
        <time>2021-08-03T14:43:41Z</time>
      </trkpt>
      <trkpt lat="48.36495" lon="7.36441">
        <ele>652.9</ele>
        <time>2021-08-03T14:43:42Z</time>
      </trkpt>
      <trkpt lat="48.365" lon="7.36443">
        <ele>652.3</ele>
        <time>2021-08-03T14:43:44Z</time>
      </trkpt>
      <trkpt lat="48.36502" lon="7.36444">
        <ele>652.2</ele>
        <time>2021-08-03T14:43:46Z</time>
      </trkpt>
      <trkpt lat="48.36502" lon="7.36444">
        <ele>652.1</ele>
        <time>2021-08-03T14:43:48Z</time>
      </trkpt>
      <trkpt lat="48.36502" lon="7.36444">
        <ele>652.1</ele>
        <time>2021-08-03T14:43:49Z</time>
      </trkpt>
      <trkpt lat="48.36503" lon="7.36445">
        <ele>652</ele>
        <time>2021-08-03T14:43:50Z</time>
      </trkpt>
      <trkpt lat="48.36505" lon="7.3648">
        <ele>649.8</ele>
        <time>2021-08-03T14:43:51Z</time>
      </trkpt>
      <trkpt lat="48.36506" lon="7.36515">
        <ele>647.5</ele>
        <time>2021-08-03T14:44:57Z</time>
      </trkpt>
      <trkpt lat="48.36508" lon="7.3655">
        <ele>645.2</ele>
        <time>2021-08-03T14:44:58Z</time>
      </trkpt>
      <trkpt lat="48.36502" lon="7.36562">
        <ele>644.3</ele>
        <time>2021-08-03T14:44:59Z</time>
      </trkpt>
      <trkpt lat="48.36496" lon="7.36574">
        <ele>643.6</ele>
        <time>2021-08-03T14:45:01Z</time>
      </trkpt>
      <trkpt lat="48.36493" lon="7.36581">
        <ele>643.1</ele>
        <time>2021-08-03T14:45:02Z</time>
      </trkpt>
      <trkpt lat="48.36487" lon="7.36592">
        <ele>642.3</ele>
        <time>2021-08-03T14:45:04Z</time>
      </trkpt>
      <trkpt lat="48.36479" lon="7.36602">
        <ele>641.5</ele>
        <time>2021-08-03T14:45:05Z</time>
      </trkpt>
      <trkpt lat="48.3647" lon="7.36617">
        <ele>640.3</ele>
        <time>2021-08-03T14:45:07Z</time>
      </trkpt>
      <trkpt lat="48.36462" lon="7.36633">
        <ele>639.3</ele>
        <time>2021-08-03T14:45:09Z</time>
      </trkpt>
      <trkpt lat="48.36459" lon="7.36639">
        <ele>638.8</ele>
        <time>2021-08-03T14:45:10Z</time>
      </trkpt>
      <trkpt lat="48.36456" lon="7.36647">
        <ele>638.3</ele>
        <time>2021-08-03T14:45:11Z</time>
      </trkpt>
      <trkpt lat="48.36453" lon="7.36654">
        <ele>637.9</ele>
        <time>2021-08-03T14:45:12Z</time>
      </trkpt>
      <trkpt lat="48.36447" lon="7.36666">
        <ele>637.2</ele>
        <time>2021-08-03T14:45:14Z</time>
      </trkpt>
      <trkpt lat="48.36444" lon="7.36672">
        <ele>636.8</ele>
        <time>2021-08-03T14:45:15Z</time>
      </trkpt>
      <trkpt lat="48.36439" lon="7.36689">
        <ele>635.9</ele>
        <time>2021-08-03T14:45:17Z</time>
      </trkpt>
      <trkpt lat="48.36436" lon="7.36699">
        <ele>635.3</ele>
        <time>2021-08-03T14:45:18Z</time>
      </trkpt>
      <trkpt lat="48.36435" lon="7.36722">
        <ele>634.1</ele>
        <time>2021-08-03T14:45:20Z</time>
      </trkpt>
      <trkpt lat="48.36433" lon="7.3674">
        <ele>633.2</ele>
        <time>2021-08-03T14:45:22Z</time>
      </trkpt>
      <trkpt lat="48.36432" lon="7.36753">
        <ele>632.5</ele>
        <time>2021-08-03T14:45:23Z</time>
      </trkpt>
      <trkpt lat="48.36432" lon="7.36771">
        <ele>631.6</ele>
        <time>2021-08-03T14:45:25Z</time>
      </trkpt>
      <trkpt lat="48.36433" lon="7.36778">
        <ele>631.2</ele>
        <time>2021-08-03T14:45:26Z</time>
      </trkpt>
      <trkpt lat="48.36433" lon="7.3678">
        <ele>631.2</ele>
        <time>2021-08-03T14:45:28Z</time>
      </trkpt>
      <trkpt lat="48.36433" lon="7.36783">
        <ele>631</ele>
        <time>2021-08-03T14:45:29Z</time>
      </trkpt>
      <trkpt lat="48.36434" lon="7.36797">
        <ele>630.2</ele>
        <time>2021-08-03T14:45:30Z</time>
      </trkpt>
      <trkpt lat="48.36433" lon="7.3681">
        <ele>629.5</ele>
        <time>2021-08-03T14:45:31Z</time>
      </trkpt>
      <trkpt lat="48.36433" lon="7.36816">
        <ele>629.2</ele>
        <time>2021-08-03T14:45:33Z</time>
      </trkpt>
      <trkpt lat="48.36409" lon="7.36853">
        <ele>626.2</ele>
        <time>2021-08-03T14:45:45Z</time>
      </trkpt>
      <trkpt lat="48.36403" lon="7.3686">
        <ele>625.5</ele>
        <time>2021-08-03T14:45:47Z</time>
      </trkpt>
      <trkpt lat="48.36399" lon="7.36865">
        <ele>625</ele>
        <time>2021-08-03T14:45:48Z</time>
      </trkpt>
      <trkpt lat="48.36394" lon="7.36871">
        <ele>624.5</ele>
        <time>2021-08-03T14:45:49Z</time>
      </trkpt>
      <trkpt lat="48.36391" lon="7.36876">
        <ele>624.1</ele>
        <time>2021-08-03T14:45:51Z</time>
      </trkpt>
      <trkpt lat="48.36386" lon="7.3688">
        <ele>623.7</ele>
        <time>2021-08-03T14:45:52Z</time>
      </trkpt>
      <trkpt lat="48.36382" lon="7.36883">
        <ele>623.3</ele>
        <time>2021-08-03T14:45:53Z</time>
      </trkpt>
      <trkpt lat="48.36375" lon="7.36891">
        <ele>622.6</ele>
        <time>2021-08-03T14:45:54Z</time>
      </trkpt>
      <trkpt lat="48.36368" lon="7.36896">
        <ele>621.9</ele>
        <time>2021-08-03T14:45:56Z</time>
      </trkpt>
      <trkpt lat="48.36363" lon="7.36901">
        <ele>621.4</ele>
        <time>2021-08-03T14:45:57Z</time>
      </trkpt>
      <trkpt lat="48.36358" lon="7.36903">
        <ele>620.9</ele>
        <time>2021-08-03T14:45:58Z</time>
      </trkpt>
      <trkpt lat="48.36354" lon="7.36904">
        <ele>620.6</ele>
        <time>2021-08-03T14:46:00Z</time>
      </trkpt>
      <trkpt lat="48.36349" lon="7.36907">
        <ele>620.1</ele>
        <time>2021-08-03T14:46:01Z</time>
      </trkpt>
      <trkpt lat="48.36345" lon="7.36911">
        <ele>619.7</ele>
        <time>2021-08-03T14:46:02Z</time>
      </trkpt>
      <trkpt lat="48.36341" lon="7.36915">
        <ele>619.3</ele>
        <time>2021-08-03T14:46:03Z</time>
      </trkpt>
      <trkpt lat="48.36331" lon="7.36923">
        <ele>618.3</ele>
        <time>2021-08-03T14:46:05Z</time>
      </trkpt>
      <trkpt lat="48.36325" lon="7.36921">
        <ele>617.9</ele>
        <time>2021-08-03T14:46:07Z</time>
      </trkpt>
      <trkpt lat="48.36321" lon="7.36923">
        <ele>617.5</ele>
        <time>2021-08-03T14:46:08Z</time>
      </trkpt>
      <trkpt lat="48.36315" lon="7.36925">
        <ele>616.9</ele>
        <time>2021-08-03T14:46:09Z</time>
      </trkpt>
      <trkpt lat="48.36307" lon="7.36926">
        <ele>616.3</ele>
        <time>2021-08-03T14:46:10Z</time>
      </trkpt>
      <trkpt lat="48.36301" lon="7.36926">
        <ele>615.8</ele>
        <time>2021-08-03T14:46:11Z</time>
      </trkpt>
      <trkpt lat="48.36294" lon="7.36925">
        <ele>615.3</ele>
        <time>2021-08-03T14:46:12Z</time>
      </trkpt>
      <trkpt lat="48.36282" lon="7.36922">
        <ele>614.3</ele>
        <time>2021-08-03T14:46:14Z</time>
      </trkpt>
      <trkpt lat="48.36277" lon="7.36921">
        <ele>614</ele>
        <time>2021-08-03T14:46:15Z</time>
      </trkpt>
      <trkpt lat="48.36274" lon="7.36916">
        <ele>613.6</ele>
        <time>2021-08-03T14:46:16Z</time>
      </trkpt>
      <trkpt lat="48.36269" lon="7.36914">
        <ele>613.2</ele>
        <time>2021-08-03T14:46:18Z</time>
      </trkpt>
      <trkpt lat="48.36265" lon="7.36912">
        <ele>612.8</ele>
        <time>2021-08-03T14:46:19Z</time>
      </trkpt>
      <trkpt lat="48.36261" lon="7.36909">
        <ele>612.4</ele>
        <time>2021-08-03T14:46:20Z</time>
      </trkpt>
      <trkpt lat="48.36255" lon="7.36905">
        <ele>611.9</ele>
        <time>2021-08-03T14:46:22Z</time>
      </trkpt>
      <trkpt lat="48.3625" lon="7.36903">
        <ele>611.5</ele>
        <time>2021-08-03T14:46:23Z</time>
      </trkpt>
      <trkpt lat="48.36245" lon="7.369">
        <ele>611.1</ele>
        <time>2021-08-03T14:46:25Z</time>
      </trkpt>
      <trkpt lat="48.36242" lon="7.36901">
        <ele>610.8</ele>
        <time>2021-08-03T14:46:26Z</time>
      </trkpt>
      <trkpt lat="48.36239" lon="7.36901">
        <ele>610.5</ele>
        <time>2021-08-03T14:46:27Z</time>
      </trkpt>
      <trkpt lat="48.36234" lon="7.36901">
        <ele>610.1</ele>
        <time>2021-08-03T14:46:28Z</time>
      </trkpt>
      <trkpt lat="48.3623" lon="7.36901">
        <ele>609.8</ele>
        <time>2021-08-03T14:46:29Z</time>
      </trkpt>
      <trkpt lat="48.36225" lon="7.36902">
        <ele>609.5</ele>
        <time>2021-08-03T14:46:31Z</time>
      </trkpt>
      <trkpt lat="48.36213" lon="7.36901">
        <ele>608.7</ele>
        <time>2021-08-03T14:46:32Z</time>
      </trkpt>
      <trkpt lat="48.36208" lon="7.369">
        <ele>608.4</ele>
        <time>2021-08-03T14:46:33Z</time>
      </trkpt>
      <trkpt lat="48.36204" lon="7.36898">
        <ele>608.2</ele>
        <time>2021-08-03T14:46:34Z</time>
      </trkpt>
      <trkpt lat="48.36199" lon="7.36897">
        <ele>607.9</ele>
        <time>2021-08-03T14:46:36Z</time>
      </trkpt>
      <trkpt lat="48.36194" lon="7.36894">
        <ele>607.6</ele>
        <time>2021-08-03T14:46:37Z</time>
      </trkpt>
      <trkpt lat="48.3619" lon="7.36889">
        <ele>607.3</ele>
        <time>2021-08-03T14:46:38Z</time>
      </trkpt>
      <trkpt lat="48.36186" lon="7.36884">
        <ele>607</ele>
        <time>2021-08-03T14:46:39Z</time>
      </trkpt>
      <trkpt lat="48.3618" lon="7.36875">
        <ele>606.6</ele>
        <time>2021-08-03T14:46:40Z</time>
      </trkpt>
      <trkpt lat="48.36175" lon="7.3687">
        <ele>606.3</ele>
        <time>2021-08-03T14:46:42Z</time>
      </trkpt>
      <trkpt lat="48.36169" lon="7.36861">
        <ele>605.9</ele>
        <time>2021-08-03T14:46:43Z</time>
      </trkpt>
      <trkpt lat="48.36164" lon="7.36855">
        <ele>605.5</ele>
        <time>2021-08-03T14:46:44Z</time>
      </trkpt>
      <trkpt lat="48.36155" lon="7.3684">
        <ele>604.9</ele>
        <time>2021-08-03T14:46:46Z</time>
      </trkpt>
      <trkpt lat="48.3615" lon="7.36833">
        <ele>604.9</ele>
        <time>2021-08-03T14:46:47Z</time>
      </trkpt>
      <trkpt lat="48.36139" lon="7.36821">
        <ele>605</ele>
        <time>2021-08-03T14:46:49Z</time>
      </trkpt>
      <trkpt lat="48.36126" lon="7.36809">
        <ele>605.1</ele>
        <time>2021-08-03T14:46:51Z</time>
      </trkpt>
      <trkpt lat="48.36113" lon="7.36804">
        <ele>605.3</ele>
        <time>2021-08-03T14:46:53Z</time>
      </trkpt>
      <trkpt lat="48.36106" lon="7.36803">
        <ele>605.3</ele>
        <time>2021-08-03T14:46:54Z</time>
      </trkpt>
      <trkpt lat="48.361" lon="7.36802">
        <ele>605.3</ele>
        <time>2021-08-03T14:46:55Z</time>
      </trkpt>
      <trkpt lat="48.36092" lon="7.36803">
        <ele>602</ele>
        <time>2021-08-03T14:46:56Z</time>
      </trkpt>
      <trkpt lat="48.36079" lon="7.36808">
        <ele>599.5</ele>
        <time>2021-08-03T14:46:58Z</time>
      </trkpt>
      <trkpt lat="48.36074" lon="7.36813">
        <ele>598.4</ele>
        <time>2021-08-03T14:46:59Z</time>
      </trkpt>
      <trkpt lat="48.36065" lon="7.36824">
        <ele>596.3</ele>
        <time>2021-08-03T14:47:01Z</time>
      </trkpt>
      <trkpt lat="48.36061" lon="7.3683">
        <ele>595.1</ele>
        <time>2021-08-03T14:47:02Z</time>
      </trkpt>
      <trkpt lat="48.36056" lon="7.3684">
        <ele>593.7</ele>
        <time>2021-08-03T14:47:03Z</time>
      </trkpt>
      <trkpt lat="48.36045" lon="7.36867">
        <ele>589.7</ele>
        <time>2021-08-03T14:47:05Z</time>
      </trkpt>
      <trkpt lat="48.36041" lon="7.36883">
        <ele>587.6</ele>
        <time>2021-08-03T14:47:06Z</time>
      </trkpt>
      <trkpt lat="48.36036" lon="7.36898">
        <ele>585.7</ele>
        <time>2021-08-03T14:47:07Z</time>
      </trkpt>
      <trkpt lat="48.36025" lon="7.36924">
        <ele>582</ele>
        <time>2021-08-03T14:47:09Z</time>
      </trkpt>
      <trkpt lat="48.36015" lon="7.36949">
        <ele>578.6</ele>
        <time>2021-08-03T14:47:11Z</time>
      </trkpt>
      <trkpt lat="48.3601" lon="7.36963">
        <ele>576.7</ele>
        <time>2021-08-03T14:47:12Z</time>
      </trkpt>
      <trkpt lat="48.36005" lon="7.36978">
        <ele>574.8</ele>
        <time>2021-08-03T14:47:13Z</time>
      </trkpt>
      <trkpt lat="48.36004" lon="7.3699">
        <ele>573.4</ele>
        <time>2021-08-03T14:47:14Z</time>
      </trkpt>
      <trkpt lat="48.36005" lon="7.37011">
        <ele>570.9</ele>
        <time>2021-08-03T14:47:16Z</time>
      </trkpt>
      <trkpt lat="48.36018" lon="7.37006">
        <ele>568.4</ele>
        <time>2021-08-03T14:47:18Z</time>
      </trkpt>
      <trkpt lat="48.36019" lon="7.37006">
        <ele>568.1</ele>
        <time>2021-08-03T14:47:19Z</time>
      </trkpt>
      <trkpt lat="48.3602" lon="7.37008">
        <ele>567.8</ele>
        <time>2021-08-03T14:47:20Z</time>
      </trkpt>
      <trkpt lat="48.36014" lon="7.37017">
        <ele>566.3</ele>
        <time>2021-08-03T14:47:22Z</time>
      </trkpt>
      <trkpt lat="48.35999" lon="7.37032">
        <ele>562.9</ele>
        <time>2021-08-03T14:47:24Z</time>
      </trkpt>
      <trkpt lat="48.35994" lon="7.37037">
        <ele>561.8</ele>
        <time>2021-08-03T14:47:25Z</time>
      </trkpt>
      <trkpt lat="48.35941" lon="7.37092">
        <ele>551</ele>
        <time>2021-08-03T14:47:26Z</time>
      </trkpt>
      <trkpt lat="48.35896" lon="7.37138">
        <ele>543.3</ele>
        <time>2021-08-03T14:47:30Z</time>
      </trkpt>
      <trkpt lat="48.35875" lon="7.37165">
        <ele>540.7</ele>
        <time>2021-08-03T14:47:32Z</time>
      </trkpt>
      <trkpt lat="48.35862" lon="7.37187">
        <ele>539.1</ele>
        <time>2021-08-03T14:47:34Z</time>
      </trkpt>
      <trkpt lat="48.35857" lon="7.37198">
        <ele>538.3</ele>
        <time>2021-08-03T14:47:35Z</time>
      </trkpt>
      <trkpt lat="48.35854" lon="7.37208">
        <ele>537.6</ele>
        <time>2021-08-03T14:47:36Z</time>
      </trkpt>
      <trkpt lat="48.35846" lon="7.37225">
        <ele>536.3</ele>
        <time>2021-08-03T14:47:38Z</time>
      </trkpt>
      <trkpt lat="48.35838" lon="7.37242">
        <ele>535.1</ele>
        <time>2021-08-03T14:47:40Z</time>
      </trkpt>
      <trkpt lat="48.35834" lon="7.37249">
        <ele>534.6</ele>
        <time>2021-08-03T14:47:41Z</time>
      </trkpt>
      <trkpt lat="48.35825" lon="7.37264">
        <ele>533.6</ele>
        <time>2021-08-03T14:47:43Z</time>
      </trkpt>
      <trkpt lat="48.35821" lon="7.37273">
        <ele>533</ele>
        <time>2021-08-03T14:47:44Z</time>
      </trkpt>
      <trkpt lat="48.35817" lon="7.37283">
        <ele>532.3</ele>
        <time>2021-08-03T14:47:45Z</time>
      </trkpt>
      <trkpt lat="48.35813" lon="7.37293">
        <ele>531.6</ele>
        <time>2021-08-03T14:47:46Z</time>
      </trkpt>
      <trkpt lat="48.35806" lon="7.37313">
        <ele>530.3</ele>
        <time>2021-08-03T14:47:48Z</time>
      </trkpt>
      <trkpt lat="48.358" lon="7.37329">
        <ele>529.2</ele>
        <time>2021-08-03T14:47:50Z</time>
      </trkpt>
      <trkpt lat="48.35795" lon="7.37344">
        <ele>528.3</ele>
        <time>2021-08-03T14:47:52Z</time>
      </trkpt>
      <trkpt lat="48.35785" lon="7.37352">
        <ele>527.5</ele>
        <time>2021-08-03T14:47:54Z</time>
      </trkpt>
      <trkpt lat="48.35773" lon="7.37359">
        <ele>526.5</ele>
        <time>2021-08-03T14:47:56Z</time>
      </trkpt>
      <trkpt lat="48.3576" lon="7.37368">
        <ele>525.3</ele>
        <time>2021-08-03T14:47:58Z</time>
      </trkpt>
      <trkpt lat="48.35755" lon="7.37373">
        <ele>525</ele>
        <time>2021-08-03T14:47:59Z</time>
      </trkpt>
      <trkpt lat="48.35751" lon="7.37378">
        <ele>524.7</ele>
        <time>2021-08-03T14:48:00Z</time>
      </trkpt>
      <trkpt lat="48.35748" lon="7.37385">
        <ele>524.5</ele>
        <time>2021-08-03T14:48:01Z</time>
      </trkpt>
      <trkpt lat="48.35746" lon="7.37392">
        <ele>524.3</ele>
        <time>2021-08-03T14:48:02Z</time>
      </trkpt>
      <trkpt lat="48.35744" lon="7.37399">
        <ele>524.1</ele>
        <time>2021-08-03T14:48:04Z</time>
      </trkpt>
      <trkpt lat="48.35744" lon="7.37403">
        <ele>524</ele>
        <time>2021-08-03T14:48:06Z</time>
      </trkpt>
      <trkpt lat="48.35746" lon="7.37404">
        <ele>523.9</ele>
        <time>2021-08-03T14:48:08Z</time>
      </trkpt>
      <trkpt lat="48.35747" lon="7.37404">
        <ele>523.8</ele>
        <time>2021-08-03T14:48:09Z</time>
      </trkpt>
      <trkpt lat="48.35747" lon="7.37404">
        <ele>523.8</ele>
        <time>2021-08-03T14:48:10Z</time>
      </trkpt>
      <trkpt lat="48.35747" lon="7.37404">
        <ele>523.8</ele>
        <time>2021-08-03T14:48:11Z</time>
      </trkpt>
      <trkpt lat="48.35747" lon="7.37404">
        <ele>523.8</ele>
        <time>2021-08-03T14:48:13Z</time>
      </trkpt>
      <trkpt lat="48.35747" lon="7.37404">
        <ele>523.8</ele>
        <time>2021-08-03T14:48:14Z</time>
      </trkpt>
      <trkpt lat="48.35747" lon="7.37404">
        <ele>523.8</ele>
        <time>2021-08-03T14:48:16Z</time>
      </trkpt>
      <trkpt lat="48.3575" lon="7.37391">
        <ele>523.4</ele>
        <time>2021-08-03T14:48:23Z</time>
      </trkpt>
      <trkpt lat="48.35756" lon="7.37383">
        <ele>523</ele>
        <time>2021-08-03T14:48:25Z</time>
      </trkpt>
      <trkpt lat="48.35759" lon="7.37376">
        <ele>522.7</ele>
        <time>2021-08-03T14:48:26Z</time>
      </trkpt>
      <trkpt lat="48.35759" lon="7.37371">
        <ele>522.5</ele>
        <time>2021-08-03T14:48:28Z</time>
      </trkpt>
      <trkpt lat="48.3576" lon="7.37367">
        <ele>522.4</ele>
        <time>2021-08-03T14:48:29Z</time>
      </trkpt>
      <trkpt lat="48.35758" lon="7.37368">
        <ele>522.3</ele>
        <time>2021-08-03T14:48:30Z</time>
      </trkpt>
      <trkpt lat="48.35754" lon="7.37371">
        <ele>522.1</ele>
        <time>2021-08-03T14:48:32Z</time>
      </trkpt>
      <trkpt lat="48.35753" lon="7.37371">
        <ele>522</ele>
        <time>2021-08-03T14:48:33Z</time>
      </trkpt>
      <trkpt lat="48.3575" lon="7.37369">
        <ele>521.9</ele>
        <time>2021-08-03T14:48:35Z</time>
      </trkpt>
      <trkpt lat="48.35744" lon="7.3737">
        <ele>521.5</ele>
        <time>2021-08-03T14:48:36Z</time>
      </trkpt>
      <trkpt lat="48.35736" lon="7.37372">
        <ele>521.1</ele>
        <time>2021-08-03T14:48:37Z</time>
      </trkpt>
      <trkpt lat="48.35731" lon="7.37374">
        <ele>520.8</ele>
        <time>2021-08-03T14:48:38Z</time>
      </trkpt>
      <trkpt lat="48.35705" lon="7.37383">
        <ele>519.5</ele>
        <time>2021-08-03T14:48:40Z</time>
      </trkpt>
      <trkpt lat="48.35697" lon="7.37384">
        <ele>519</ele>
        <time>2021-08-03T14:48:41Z</time>
      </trkpt>
      <trkpt lat="48.35689" lon="7.37383">
        <ele>518.6</ele>
        <time>2021-08-03T14:48:42Z</time>
      </trkpt>
      <trkpt lat="48.35673" lon="7.37383">
        <ele>517.8</ele>
        <time>2021-08-03T14:48:44Z</time>
      </trkpt>
      <trkpt lat="48.35666" lon="7.37383">
        <ele>517.4</ele>
        <time>2021-08-03T14:48:45Z</time>
      </trkpt>
      <trkpt lat="48.35658" lon="7.37382">
        <ele>517.1</ele>
        <time>2021-08-03T14:48:46Z</time>
      </trkpt>
      <trkpt lat="48.35643" lon="7.37381">
        <ele>516.5</ele>
        <time>2021-08-03T14:48:48Z</time>
      </trkpt>
      <trkpt lat="48.35634" lon="7.37383">
        <ele>516.2</ele>
        <time>2021-08-03T14:48:49Z</time>
      </trkpt>
      <trkpt lat="48.35625" lon="7.37387">
        <ele>515.8</ele>
        <time>2021-08-03T14:48:50Z</time>
      </trkpt>
      <trkpt lat="48.35609" lon="7.37394">
        <ele>515.1</ele>
        <time>2021-08-03T14:48:52Z</time>
      </trkpt>
      <trkpt lat="48.35592" lon="7.374">
        <ele>514.4</ele>
        <time>2021-08-03T14:48:54Z</time>
      </trkpt>
      <trkpt lat="48.35583" lon="7.37404">
        <ele>513.9</ele>
        <time>2021-08-03T14:48:55Z</time>
      </trkpt>
      <trkpt lat="48.35574" lon="7.37407">
        <ele>513.5</ele>
        <time>2021-08-03T14:48:56Z</time>
      </trkpt>
      <trkpt lat="48.35565" lon="7.3741">
        <ele>513</ele>
        <time>2021-08-03T14:48:57Z</time>
      </trkpt>
      <trkpt lat="48.35549" lon="7.37414">
        <ele>512.4</ele>
        <time>2021-08-03T14:48:59Z</time>
      </trkpt>
      <trkpt lat="48.35532" lon="7.37418">
        <ele>511.8</ele>
        <time>2021-08-03T14:49:01Z</time>
      </trkpt>
      <trkpt lat="48.35523" lon="7.37419">
        <ele>511.5</ele>
        <time>2021-08-03T14:49:02Z</time>
      </trkpt>
      <trkpt lat="48.35505" lon="7.37421">
        <ele>510.9</ele>
        <time>2021-08-03T14:49:04Z</time>
      </trkpt>
      <trkpt lat="48.35489" lon="7.37419">
        <ele>510.1</ele>
        <time>2021-08-03T14:49:06Z</time>
      </trkpt>
      <trkpt lat="48.35476" lon="7.37418">
        <ele>507.5</ele>
        <time>2021-08-03T14:49:08Z</time>
      </trkpt>
      <trkpt lat="48.35467" lon="7.37418">
        <ele>505.7</ele>
        <time>2021-08-03T14:49:10Z</time>
      </trkpt>
      <trkpt lat="48.35464" lon="7.37418">
        <ele>505.2</ele>
        <time>2021-08-03T14:49:11Z</time>
      </trkpt>
      <trkpt lat="48.35462" lon="7.37418">
        <ele>504.8</ele>
        <time>2021-08-03T14:49:12Z</time>
      </trkpt>
      <trkpt lat="48.35461" lon="7.37417">
        <ele>504.6</ele>
        <time>2021-08-03T14:49:14Z</time>
      </trkpt>
      <trkpt lat="48.35461" lon="7.37417">
        <ele>504.6</ele>
        <time>2021-08-03T14:49:15Z</time>
      </trkpt>
      <trkpt lat="48.35461" lon="7.37418">
        <ele>504.5</ele>
        <time>2021-08-03T14:49:17Z</time>
      </trkpt>
      <trkpt lat="48.35461" lon="7.37418">
        <ele>504.5</ele>
        <time>2021-08-03T14:49:18Z</time>
      </trkpt>
      <trkpt lat="48.35461" lon="7.37418">
        <ele>504.5</ele>
        <time>2021-08-03T14:49:20Z</time>
      </trkpt>
      <trkpt lat="48.35461" lon="7.37418">
        <ele>504.5</ele>
        <time>2021-08-03T14:49:21Z</time>
      </trkpt>
      <trkpt lat="48.35461" lon="7.37418">
        <ele>504.4</ele>
        <time>2021-08-03T14:49:23Z</time>
      </trkpt>
      <trkpt lat="48.35435" lon="7.37414">
        <ele>499.1</ele>
        <time>2021-08-03T14:49:36Z</time>
      </trkpt>
      <trkpt lat="48.35433" lon="7.3741">
        <ele>498.3</ele>
        <time>2021-08-03T14:49:37Z</time>
      </trkpt>
      <trkpt lat="48.35429" lon="7.374">
        <ele>495.9</ele>
        <time>2021-08-03T14:49:39Z</time>
      </trkpt>
      <trkpt lat="48.35428" lon="7.3739">
        <ele>495.2</ele>
        <time>2021-08-03T14:49:41Z</time>
      </trkpt>
      <trkpt lat="48.35429" lon="7.37384">
        <ele>494.8</ele>
        <time>2021-08-03T14:49:42Z</time>
      </trkpt>
      <trkpt lat="48.3543" lon="7.37378">
        <ele>494.3</ele>
        <time>2021-08-03T14:49:43Z</time>
      </trkpt>
      <trkpt lat="48.3543" lon="7.37372">
        <ele>493.9</ele>
        <time>2021-08-03T14:49:44Z</time>
      </trkpt>
      <trkpt lat="48.3543" lon="7.37367">
        <ele>493.5</ele>
        <time>2021-08-03T14:49:45Z</time>
      </trkpt>
      <trkpt lat="48.3543" lon="7.37354">
        <ele>492.5</ele>
        <time>2021-08-03T14:49:47Z</time>
      </trkpt>
      <trkpt lat="48.3543" lon="7.37348">
        <ele>492</ele>
        <time>2021-08-03T14:49:48Z</time>
      </trkpt>
      <trkpt lat="48.35428" lon="7.37336">
        <ele>491</ele>
        <time>2021-08-03T14:49:50Z</time>
      </trkpt>
      <trkpt lat="48.35427" lon="7.37329">
        <ele>490.3</ele>
        <time>2021-08-03T14:49:52Z</time>
      </trkpt>
      <trkpt lat="48.35422" lon="7.37328">
        <ele>489.6</ele>
        <time>2021-08-03T14:49:53Z</time>
      </trkpt>
      <trkpt lat="48.35417" lon="7.37328">
        <ele>488.3</ele>
        <time>2021-08-03T14:49:54Z</time>
      </trkpt>
      <trkpt lat="48.35413" lon="7.37328">
        <ele>487.8</ele>
        <time>2021-08-03T14:49:56Z</time>
      </trkpt>
      <trkpt lat="48.35408" lon="7.37329">
        <ele>487.3</ele>
        <time>2021-08-03T14:49:58Z</time>
      </trkpt>
      <trkpt lat="48.35403" lon="7.37329">
        <ele>486.8</ele>
        <time>2021-08-03T14:49:59Z</time>
      </trkpt>
      <trkpt lat="48.35399" lon="7.37329">
        <ele>486.3</ele>
        <time>2021-08-03T14:50:01Z</time>
      </trkpt>
      <trkpt lat="48.35394" lon="7.37329">
        <ele>485.8</ele>
        <time>2021-08-03T14:50:23Z</time>
      </trkpt>
      <trkpt lat="48.35389" lon="7.3733">
        <ele>485.3</ele>
        <time>2021-08-03T14:50:24Z</time>
      </trkpt>
      <trkpt lat="48.35376" lon="7.37324">
        <ele>483.9</ele>
        <time>2021-08-03T14:50:26Z</time>
      </trkpt>
      <trkpt lat="48.35366" lon="7.37315">
        <ele>482.7</ele>
        <time>2021-08-03T14:50:28Z</time>
      </trkpt>
      <trkpt lat="48.35361" lon="7.37312">
        <ele>482.1</ele>
        <time>2021-08-03T14:50:29Z</time>
      </trkpt>
      <trkpt lat="48.35355" lon="7.37308">
        <ele>481.5</ele>
        <time>2021-08-03T14:50:30Z</time>
      </trkpt>
      <trkpt lat="48.35344" lon="7.373">
        <ele>480.2</ele>
        <time>2021-08-03T14:50:32Z</time>
      </trkpt>
      <trkpt lat="48.35333" lon="7.37298">
        <ele>478.9</ele>
        <time>2021-08-03T14:50:34Z</time>
      </trkpt>
      <trkpt lat="48.35327" lon="7.37299">
        <ele>478.3</ele>
        <time>2021-08-03T14:50:35Z</time>
      </trkpt>
      <trkpt lat="48.35322" lon="7.37301">
        <ele>477.8</ele>
        <time>2021-08-03T14:50:36Z</time>
      </trkpt>
      <trkpt lat="48.35313" lon="7.3731">
        <ele>476.6</ele>
        <time>2021-08-03T14:50:38Z</time>
      </trkpt>
      <trkpt lat="48.35305" lon="7.37322">
        <ele>475.2</ele>
        <time>2021-08-03T14:50:40Z</time>
      </trkpt>
      <trkpt lat="48.35299" lon="7.37338">
        <ele>474</ele>
        <time>2021-08-03T14:50:42Z</time>
      </trkpt>
      <trkpt lat="48.35299" lon="7.37357">
        <ele>472.7</ele>
        <time>2021-08-03T14:50:44Z</time>
      </trkpt>
      <trkpt lat="48.35302" lon="7.37368">
        <ele>472</ele>
        <time>2021-08-03T14:50:45Z</time>
      </trkpt>
      <trkpt lat="48.35306" lon="7.3738">
        <ele>471.2</ele>
        <time>2021-08-03T14:50:46Z</time>
      </trkpt>
      <trkpt lat="48.35313" lon="7.37404">
        <ele>469.5</ele>
        <time>2021-08-03T14:50:48Z</time>
      </trkpt>
      <trkpt lat="48.35321" lon="7.37428">
        <ele>467.7</ele>
        <time>2021-08-03T14:50:50Z</time>
      </trkpt>
      <trkpt lat="48.35329" lon="7.37452">
        <ele>465.9</ele>
        <time>2021-08-03T14:50:52Z</time>
      </trkpt>
      <trkpt lat="48.3534" lon="7.37476">
        <ele>464</ele>
        <time>2021-08-03T14:50:54Z</time>
      </trkpt>
      <trkpt lat="48.35345" lon="7.37489">
        <ele>463</ele>
        <time>2021-08-03T14:50:55Z</time>
      </trkpt>
      <trkpt lat="48.3535" lon="7.37502">
        <ele>461.9</ele>
        <time>2021-08-03T14:50:56Z</time>
      </trkpt>
      <trkpt lat="48.35364" lon="7.37529">
        <ele>459.5</ele>
        <time>2021-08-03T14:50:58Z</time>
      </trkpt>
      <trkpt lat="48.35378" lon="7.37556">
        <ele>457.1</ele>
        <time>2021-08-03T14:51:00Z</time>
      </trkpt>
      <trkpt lat="48.35391" lon="7.37587">
        <ele>454.8</ele>
        <time>2021-08-03T14:51:02Z</time>
      </trkpt>
      <trkpt lat="48.35397" lon="7.37603">
        <ele>453.6</ele>
        <time>2021-08-03T14:51:03Z</time>
      </trkpt>
      <trkpt lat="48.35409" lon="7.37631">
        <ele>451.3</ele>
        <time>2021-08-03T14:51:05Z</time>
      </trkpt>
      <trkpt lat="48.35414" lon="7.37645">
        <ele>450.3</ele>
        <time>2021-08-03T14:51:06Z</time>
      </trkpt>
      <trkpt lat="48.3542" lon="7.37658">
        <ele>449.3</ele>
        <time>2021-08-03T14:51:07Z</time>
      </trkpt>
      <trkpt lat="48.35424" lon="7.3767">
        <ele>448.4</ele>
        <time>2021-08-03T14:51:08Z</time>
      </trkpt>
      <trkpt lat="48.35431" lon="7.37696">
        <ele>446.5</ele>
        <time>2021-08-03T14:51:10Z</time>
      </trkpt>
      <trkpt lat="48.35435" lon="7.37709">
        <ele>445.5</ele>
        <time>2021-08-03T14:51:11Z</time>
      </trkpt>
      <trkpt lat="48.35437" lon="7.37722">
        <ele>444.5</ele>
        <time>2021-08-03T14:51:12Z</time>
      </trkpt>
      <trkpt lat="48.3544" lon="7.37735">
        <ele>443.5</ele>
        <time>2021-08-03T14:51:13Z</time>
      </trkpt>
      <trkpt lat="48.35441" lon="7.37759">
        <ele>441.7</ele>
        <time>2021-08-03T14:51:15Z</time>
      </trkpt>
      <trkpt lat="48.35443" lon="7.37771">
        <ele>440.8</ele>
        <time>2021-08-03T14:51:16Z</time>
      </trkpt>
      <trkpt lat="48.35444" lon="7.37782">
        <ele>440</ele>
        <time>2021-08-03T14:51:17Z</time>
      </trkpt>
      <trkpt lat="48.35445" lon="7.37792">
        <ele>439.3</ele>
        <time>2021-08-03T14:51:18Z</time>
      </trkpt>
      <trkpt lat="48.35446" lon="7.37803">
        <ele>438.5</ele>
        <time>2021-08-03T14:51:19Z</time>
      </trkpt>
      <trkpt lat="48.35447" lon="7.37825">
        <ele>438.1</ele>
        <time>2021-08-03T14:51:21Z</time>
      </trkpt>
      <trkpt lat="48.35448" lon="7.37849">
        <ele>437.5</ele>
        <time>2021-08-03T14:51:23Z</time>
      </trkpt>
      <trkpt lat="48.35449" lon="7.37859">
        <ele>437.2</ele>
        <time>2021-08-03T14:51:24Z</time>
      </trkpt>
      <trkpt lat="48.35449" lon="7.37874">
        <ele>436.7</ele>
        <time>2021-08-03T14:51:26Z</time>
      </trkpt>
      <trkpt lat="48.35451" lon="7.37864">
        <ele>436.4</ele>
        <time>2021-08-03T14:51:28Z</time>
      </trkpt>
      <trkpt lat="48.35452" lon="7.37859">
        <ele>436.3</ele>
        <time>2021-08-03T14:51:29Z</time>
      </trkpt>
      <trkpt lat="48.35453" lon="7.37852">
        <ele>436</ele>
        <time>2021-08-03T14:51:30Z</time>
      </trkpt>
      <trkpt lat="48.35455" lon="7.37848">
        <ele>435.9</ele>
        <time>2021-08-03T14:51:32Z</time>
      </trkpt>
      <trkpt lat="48.35455" lon="7.37846">
        <ele>435.9</ele>
        <time>2021-08-03T14:51:34Z</time>
      </trkpt>
      <trkpt lat="48.35455" lon="7.37846">
        <ele>435.9</ele>
        <time>2021-08-03T14:51:36Z</time>
      </trkpt>
      <trkpt lat="48.35455" lon="7.37846">
        <ele>435.9</ele>
        <time>2021-08-03T14:51:38Z</time>
      </trkpt>
      <trkpt lat="48.35453" lon="7.37847">
        <ele>435.8</ele>
        <time>2021-08-03T14:51:52Z</time>
      </trkpt>
      <trkpt lat="48.35451" lon="7.37851">
        <ele>435.6</ele>
        <time>2021-08-03T14:51:53Z</time>
      </trkpt>
      <trkpt lat="48.35449" lon="7.37856">
        <ele>435.5</ele>
        <time>2021-08-03T14:51:54Z</time>
      </trkpt>
      <trkpt lat="48.35442" lon="7.37867">
        <ele>435.2</ele>
        <time>2021-08-03T14:51:56Z</time>
      </trkpt>
      <trkpt lat="48.3543" lon="7.3788">
        <ele>434.8</ele>
        <time>2021-08-03T14:51:58Z</time>
      </trkpt>
      <trkpt lat="48.35424" lon="7.37885">
        <ele>434.6</ele>
        <time>2021-08-03T14:51:59Z</time>
      </trkpt>
      <trkpt lat="48.35418" lon="7.3789">
        <ele>434.5</ele>
        <time>2021-08-03T14:52:00Z</time>
      </trkpt>
      <trkpt lat="48.35412" lon="7.37894">
        <ele>434.4</ele>
        <time>2021-08-03T14:52:01Z</time>
      </trkpt>
      <trkpt lat="48.35399" lon="7.37902">
        <ele>434.2</ele>
        <time>2021-08-03T14:52:03Z</time>
      </trkpt>
      <trkpt lat="48.35388" lon="7.3791">
        <ele>434</ele>
        <time>2021-08-03T14:52:05Z</time>
      </trkpt>
      <trkpt lat="48.35382" lon="7.37914">
        <ele>433.9</ele>
        <time>2021-08-03T14:52:06Z</time>
      </trkpt>
      <trkpt lat="48.35376" lon="7.3792">
        <ele>433.8</ele>
        <time>2021-08-03T14:52:07Z</time>
      </trkpt>
      <trkpt lat="48.35364" lon="7.37933">
        <ele>433.4</ele>
        <time>2021-08-03T14:52:09Z</time>
      </trkpt>
      <trkpt lat="48.35354" lon="7.37947">
        <ele>433.1</ele>
        <time>2021-08-03T14:52:11Z</time>
      </trkpt>
      <trkpt lat="48.35348" lon="7.37954">
        <ele>433</ele>
        <time>2021-08-03T14:52:12Z</time>
      </trkpt>
      <trkpt lat="48.35337" lon="7.37967">
        <ele>432.7</ele>
        <time>2021-08-03T14:52:14Z</time>
      </trkpt>
      <trkpt lat="48.35328" lon="7.37979">
        <ele>432.4</ele>
        <time>2021-08-03T14:52:16Z</time>
      </trkpt>
      <trkpt lat="48.35323" lon="7.37985">
        <ele>432.3</ele>
        <time>2021-08-03T14:52:17Z</time>
      </trkpt>
      <trkpt lat="48.35319" lon="7.37991">
        <ele>432.2</ele>
        <time>2021-08-03T14:52:18Z</time>
      </trkpt>
      <trkpt lat="48.35312" lon="7.38005">
        <ele>432.1</ele>
        <time>2021-08-03T14:52:20Z</time>
      </trkpt>
      <trkpt lat="48.35306" lon="7.38018">
        <ele>432</ele>
        <time>2021-08-03T14:52:22Z</time>
      </trkpt>
      <trkpt lat="48.35302" lon="7.38025">
        <ele>431.9</ele>
        <time>2021-08-03T14:52:23Z</time>
      </trkpt>
      <trkpt lat="48.35298" lon="7.38033">
        <ele>431.8</ele>
        <time>2021-08-03T14:52:24Z</time>
      </trkpt>
      <trkpt lat="48.35294" lon="7.38041">
        <ele>431.8</ele>
        <time>2021-08-03T14:52:25Z</time>
      </trkpt>
      <trkpt lat="48.3529" lon="7.38048">
        <ele>431.7</ele>
        <time>2021-08-03T14:52:26Z</time>
      </trkpt>
      <trkpt lat="48.35281" lon="7.38064">
        <ele>431.6</ele>
        <time>2021-08-03T14:52:28Z</time>
      </trkpt>
      <trkpt lat="48.35278" lon="7.38073">
        <ele>431.5</ele>
        <time>2021-08-03T14:52:29Z</time>
      </trkpt>
      <trkpt lat="48.35275" lon="7.38081">
        <ele>431.4</ele>
        <time>2021-08-03T14:52:30Z</time>
      </trkpt>
      <trkpt lat="48.3527" lon="7.38095">
        <ele>431.3</ele>
        <time>2021-08-03T14:52:32Z</time>
      </trkpt>
      <trkpt lat="48.35265" lon="7.3811">
        <ele>431.2</ele>
        <time>2021-08-03T14:52:34Z</time>
      </trkpt>
      <trkpt lat="48.3526" lon="7.38125">
        <ele>431</ele>
        <time>2021-08-03T14:52:36Z</time>
      </trkpt>
      <trkpt lat="48.35258" lon="7.38133">
        <ele>430.8</ele>
        <time>2021-08-03T14:52:37Z</time>
      </trkpt>
      <trkpt lat="48.35257" lon="7.38142">
        <ele>430.7</ele>
        <time>2021-08-03T14:52:38Z</time>
      </trkpt>
      <trkpt lat="48.35254" lon="7.38158">
        <ele>430.4</ele>
        <time>2021-08-03T14:52:40Z</time>
      </trkpt>
      <trkpt lat="48.35253" lon="7.38167">
        <ele>430.2</ele>
        <time>2021-08-03T14:52:41Z</time>
      </trkpt>
      <trkpt lat="48.3525" lon="7.38186">
        <ele>429.9</ele>
        <time>2021-08-03T14:52:43Z</time>
      </trkpt>
      <trkpt lat="48.35249" lon="7.38195">
        <ele>429.6</ele>
        <time>2021-08-03T14:52:44Z</time>
      </trkpt>
      <trkpt lat="48.35248" lon="7.38213">
        <ele>429.1</ele>
        <time>2021-08-03T14:52:46Z</time>
      </trkpt>
      <trkpt lat="48.35249" lon="7.38221">
        <ele>428.9</ele>
        <time>2021-08-03T14:52:47Z</time>
      </trkpt>
      <trkpt lat="48.3525" lon="7.38229">
        <ele>428.6</ele>
        <time>2021-08-03T14:52:48Z</time>
      </trkpt>
      <trkpt lat="48.35252" lon="7.38247">
        <ele>428</ele>
        <time>2021-08-03T14:52:50Z</time>
      </trkpt>
      <trkpt lat="48.35253" lon="7.38268">
        <ele>427.2</ele>
        <time>2021-08-03T14:52:52Z</time>
      </trkpt>
      <trkpt lat="48.35254" lon="7.38291">
        <ele>426.4</ele>
        <time>2021-08-03T14:52:54Z</time>
      </trkpt>
      <trkpt lat="48.35253" lon="7.38302">
        <ele>426</ele>
        <time>2021-08-03T14:52:55Z</time>
      </trkpt>
      <trkpt lat="48.35253" lon="7.38312">
        <ele>425.6</ele>
        <time>2021-08-03T14:52:56Z</time>
      </trkpt>
      <trkpt lat="48.35251" lon="7.38333">
        <ele>424.8</ele>
        <time>2021-08-03T14:52:58Z</time>
      </trkpt>
      <trkpt lat="48.3525" lon="7.38354">
        <ele>424</ele>
        <time>2021-08-03T14:53:00Z</time>
      </trkpt>
      <trkpt lat="48.3525" lon="7.38365">
        <ele>423.5</ele>
        <time>2021-08-03T14:53:01Z</time>
      </trkpt>
      <trkpt lat="48.35248" lon="7.38387">
        <ele>422.6</ele>
        <time>2021-08-03T14:53:03Z</time>
      </trkpt>
      <trkpt lat="48.35248" lon="7.38408">
        <ele>421.6</ele>
        <time>2021-08-03T14:53:05Z</time>
      </trkpt>
      <trkpt lat="48.35248" lon="7.38419">
        <ele>421.2</ele>
        <time>2021-08-03T14:53:06Z</time>
      </trkpt>
      <trkpt lat="48.35249" lon="7.38442">
        <ele>420.3</ele>
        <time>2021-08-03T14:53:08Z</time>
      </trkpt>
      <trkpt lat="48.35249" lon="7.38453">
        <ele>419.7</ele>
        <time>2021-08-03T14:53:09Z</time>
      </trkpt>
      <trkpt lat="48.35247" lon="7.38478">
        <ele>418.7</ele>
        <time>2021-08-03T14:53:11Z</time>
      </trkpt>
      <trkpt lat="48.35245" lon="7.38491">
        <ele>418.1</ele>
        <time>2021-08-03T14:53:12Z</time>
      </trkpt>
      <trkpt lat="48.35242" lon="7.38516">
        <ele>417.1</ele>
        <time>2021-08-03T14:53:14Z</time>
      </trkpt>
      <trkpt lat="48.35242" lon="7.38527">
        <ele>416.7</ele>
        <time>2021-08-03T14:53:15Z</time>
      </trkpt>
      <trkpt lat="48.35242" lon="7.38552">
        <ele>415.9</ele>
        <time>2021-08-03T14:53:17Z</time>
      </trkpt>
      <trkpt lat="48.35241" lon="7.38567">
        <ele>415.4</ele>
        <time>2021-08-03T14:53:18Z</time>
      </trkpt>
      <trkpt lat="48.3524" lon="7.38595">
        <ele>414.4</ele>
        <time>2021-08-03T14:53:20Z</time>
      </trkpt>
      <trkpt lat="48.3524" lon="7.38607">
        <ele>413.8</ele>
        <time>2021-08-03T14:53:21Z</time>
      </trkpt>
      <trkpt lat="48.35239" lon="7.3862">
        <ele>413.3</ele>
        <time>2021-08-03T14:53:22Z</time>
      </trkpt>
      <trkpt lat="48.35238" lon="7.38644">
        <ele>412.2</ele>
        <time>2021-08-03T14:53:24Z</time>
      </trkpt>
      <trkpt lat="48.35236" lon="7.38658">
        <ele>411.6</ele>
        <time>2021-08-03T14:53:25Z</time>
      </trkpt>
      <trkpt lat="48.35234" lon="7.38687">
        <ele>410.4</ele>
        <time>2021-08-03T14:53:27Z</time>
      </trkpt>
      <trkpt lat="48.35234" lon="7.38701">
        <ele>409.8</ele>
        <time>2021-08-03T14:53:28Z</time>
      </trkpt>
      <trkpt lat="48.35234" lon="7.38729">
        <ele>408.7</ele>
        <time>2021-08-03T14:53:30Z</time>
      </trkpt>
      <trkpt lat="48.35235" lon="7.38757">
        <ele>407.6</ele>
        <time>2021-08-03T14:53:32Z</time>
      </trkpt>
      <trkpt lat="48.35236" lon="7.38785">
        <ele>406.5</ele>
        <time>2021-08-03T14:53:34Z</time>
      </trkpt>
      <trkpt lat="48.35237" lon="7.388">
        <ele>406</ele>
        <time>2021-08-03T14:53:35Z</time>
      </trkpt>
      <trkpt lat="48.35238" lon="7.38814">
        <ele>405.4</ele>
        <time>2021-08-03T14:53:36Z</time>
      </trkpt>
      <trkpt lat="48.35239" lon="7.38844">
        <ele>404.4</ele>
        <time>2021-08-03T14:53:38Z</time>
      </trkpt>
      <trkpt lat="48.3524" lon="7.38873">
        <ele>403.6</ele>
        <time>2021-08-03T14:53:40Z</time>
      </trkpt>
      <trkpt lat="48.35242" lon="7.38902">
        <ele>402.8</ele>
        <time>2021-08-03T14:53:42Z</time>
      </trkpt>
      <trkpt lat="48.35241" lon="7.38929">
        <ele>402.1</ele>
        <time>2021-08-03T14:53:44Z</time>
      </trkpt>
      <trkpt lat="48.35238" lon="7.38952">
        <ele>401.4</ele>
        <time>2021-08-03T14:53:46Z</time>
      </trkpt>
      <trkpt lat="48.35235" lon="7.38975">
        <ele>400.5</ele>
        <time>2021-08-03T14:53:48Z</time>
      </trkpt>
      <trkpt lat="48.35228" lon="7.38997">
        <ele>399.5</ele>
        <time>2021-08-03T14:53:50Z</time>
      </trkpt>
      <trkpt lat="48.35222" lon="7.39007">
        <ele>399</ele>
        <time>2021-08-03T14:53:51Z</time>
      </trkpt>
      <trkpt lat="48.35216" lon="7.39017">
        <ele>398.5</ele>
        <time>2021-08-03T14:53:52Z</time>
      </trkpt>
      <trkpt lat="48.3521" lon="7.39027">
        <ele>398</ele>
        <time>2021-08-03T14:53:53Z</time>
      </trkpt>
      <trkpt lat="48.35203" lon="7.39036">
        <ele>397.7</ele>
        <time>2021-08-03T14:53:54Z</time>
      </trkpt>
      <trkpt lat="48.3519" lon="7.39054">
        <ele>397.2</ele>
        <time>2021-08-03T14:53:56Z</time>
      </trkpt>
      <trkpt lat="48.35179" lon="7.3907">
        <ele>396.9</ele>
        <time>2021-08-03T14:53:58Z</time>
      </trkpt>
      <trkpt lat="48.3517" lon="7.39091">
        <ele>396.4</ele>
        <time>2021-08-03T14:54:00Z</time>
      </trkpt>
      <trkpt lat="48.35167" lon="7.39114">
        <ele>394.5</ele>
        <time>2021-08-03T14:54:02Z</time>
      </trkpt>
      <trkpt lat="48.35168" lon="7.39137">
        <ele>393.8</ele>
        <time>2021-08-03T14:54:04Z</time>
      </trkpt>
      <trkpt lat="48.3517" lon="7.39154">
        <ele>393.2</ele>
        <time>2021-08-03T14:54:06Z</time>
      </trkpt>
      <trkpt lat="48.3517" lon="7.3917">
        <ele>392.5</ele>
        <time>2021-08-03T14:54:08Z</time>
      </trkpt>
      <trkpt lat="48.3517" lon="7.39176">
        <ele>392.2</ele>
        <time>2021-08-03T14:54:09Z</time>
      </trkpt>
      <trkpt lat="48.35169" lon="7.39182">
        <ele>392</ele>
        <time>2021-08-03T14:54:11Z</time>
      </trkpt>
      <trkpt lat="48.35169" lon="7.39186">
        <ele>391.8</ele>
        <time>2021-08-03T14:54:12Z</time>
      </trkpt>
      <trkpt lat="48.35169" lon="7.39187">
        <ele>391.7</ele>
        <time>2021-08-03T14:54:13Z</time>
      </trkpt>
      <trkpt lat="48.35169" lon="7.39192">
        <ele>391.5</ele>
        <time>2021-08-03T14:54:15Z</time>
      </trkpt>
      <trkpt lat="48.35168" lon="7.39198">
        <ele>391.2</ele>
        <time>2021-08-03T14:54:16Z</time>
      </trkpt>
      <trkpt lat="48.35169" lon="7.39206">
        <ele>390.9</ele>
        <time>2021-08-03T14:54:18Z</time>
      </trkpt>
      <trkpt lat="48.35171" lon="7.39211">
        <ele>390.6</ele>
        <time>2021-08-03T14:54:20Z</time>
      </trkpt>
      <trkpt lat="48.35172" lon="7.39218">
        <ele>390.3</ele>
        <time>2021-08-03T14:54:22Z</time>
      </trkpt>
      <trkpt lat="48.35174" lon="7.39224">
        <ele>390</ele>
        <time>2021-08-03T14:54:24Z</time>
      </trkpt>
      <trkpt lat="48.35175" lon="7.39227">
        <ele>389.8</ele>
        <time>2021-08-03T14:54:26Z</time>
      </trkpt>
      <trkpt lat="48.35175" lon="7.39228">
        <ele>389.8</ele>
        <time>2021-08-03T14:54:28Z</time>
      </trkpt>
      <trkpt lat="48.35175" lon="7.39228">
        <ele>389.8</ele>
        <time>2021-08-03T14:54:30Z</time>
      </trkpt>
      <trkpt lat="48.35175" lon="7.39228">
        <ele>389.8</ele>
        <time>2021-08-03T14:54:32Z</time>
      </trkpt>
      <trkpt lat="48.35175" lon="7.39228">
        <ele>389.8</ele>
        <time>2021-08-03T14:54:33Z</time>
      </trkpt>
      <trkpt lat="48.35175" lon="7.39228">
        <ele>389.8</ele>
        <time>2021-08-03T14:54:35Z</time>
      </trkpt>
      <trkpt lat="48.35175" lon="7.39228">
        <ele>389.8</ele>
        <time>2021-08-03T14:54:37Z</time>
      </trkpt>
      <trkpt lat="48.35193" lon="7.39256">
        <ele>389.2</ele>
        <time>2021-08-03T14:55:47Z</time>
      </trkpt>
      <trkpt lat="48.35196" lon="7.39267">
        <ele>389.3</ele>
        <time>2021-08-03T14:55:49Z</time>
      </trkpt>
      <trkpt lat="48.35197" lon="7.39273">
        <ele>389.3</ele>
        <time>2021-08-03T14:55:50Z</time>
      </trkpt>
      <trkpt lat="48.35199" lon="7.39282">
        <ele>389.4</ele>
        <time>2021-08-03T14:55:52Z</time>
      </trkpt>
      <trkpt lat="48.35202" lon="7.39289">
        <ele>389.3</ele>
        <time>2021-08-03T14:55:54Z</time>
      </trkpt>
      <trkpt lat="48.35204" lon="7.39296">
        <ele>389.3</ele>
        <time>2021-08-03T14:55:56Z</time>
      </trkpt>
      <trkpt lat="48.35203" lon="7.39298">
        <ele>389.3</ele>
        <time>2021-08-03T14:55:58Z</time>
      </trkpt>
      <trkpt lat="48.35203" lon="7.39298">
        <ele>389.3</ele>
        <time>2021-08-03T14:55:59Z</time>
      </trkpt>
      <trkpt lat="48.35202" lon="7.39297">
        <ele>389.3</ele>
        <time>2021-08-03T14:56:00Z</time>
      </trkpt>
      <trkpt lat="48.35202" lon="7.39294">
        <ele>389.3</ele>
        <time>2021-08-03T14:56:02Z</time>
      </trkpt>
      <trkpt lat="48.35201" lon="7.39292">
        <ele>389.3</ele>
        <time>2021-08-03T14:56:03Z</time>
      </trkpt>
      <trkpt lat="48.35199" lon="7.3929">
        <ele>389.2</ele>
        <time>2021-08-03T14:56:05Z</time>
      </trkpt>
      <trkpt lat="48.35198" lon="7.39288">
        <ele>389.2</ele>
        <time>2021-08-03T14:56:06Z</time>
      </trkpt>
      <trkpt lat="48.35196" lon="7.39282">
        <ele>389.2</ele>
        <time>2021-08-03T14:56:08Z</time>
      </trkpt>
      <trkpt lat="48.35193" lon="7.39275">
        <ele>389.2</ele>
        <time>2021-08-03T14:56:10Z</time>
      </trkpt>
      <trkpt lat="48.35191" lon="7.39271">
        <ele>389.3</ele>
        <time>2021-08-03T14:56:11Z</time>
      </trkpt>
      <trkpt lat="48.3519" lon="7.39269">
        <ele>389.3</ele>
        <time>2021-08-03T14:56:12Z</time>
      </trkpt>
      <trkpt lat="48.35188" lon="7.39262">
        <ele>389.3</ele>
        <time>2021-08-03T14:56:14Z</time>
      </trkpt>
      <trkpt lat="48.35187" lon="7.39257">
        <ele>389.3</ele>
        <time>2021-08-03T14:56:15Z</time>
      </trkpt>
      <trkpt lat="48.35188" lon="7.39252">
        <ele>389.4</ele>
        <time>2021-08-03T14:56:16Z</time>
      </trkpt>
      <trkpt lat="48.35188" lon="7.39248">
        <ele>389.4</ele>
        <time>2021-08-03T14:56:17Z</time>
      </trkpt>
      <trkpt lat="48.35186" lon="7.39241">
        <ele>389.5</ele>
        <time>2021-08-03T14:56:19Z</time>
      </trkpt>
      <trkpt lat="48.35186" lon="7.39238">
        <ele>389.5</ele>
        <time>2021-08-03T14:56:20Z</time>
      </trkpt>
      <trkpt lat="48.35186" lon="7.39236">
        <ele>389.5</ele>
        <time>2021-08-03T14:56:21Z</time>
      </trkpt>
      <trkpt lat="48.35183" lon="7.39233">
        <ele>389.6</ele>
        <time>2021-08-03T14:56:23Z</time>
      </trkpt>
      <trkpt lat="48.35181" lon="7.39232">
        <ele>389.6</ele>
        <time>2021-08-03T14:56:24Z</time>
      </trkpt>
      <trkpt lat="48.35174" lon="7.39231">
        <ele>389.8</ele>
        <time>2021-08-03T14:56:26Z</time>
      </trkpt>
      <trkpt lat="48.35166" lon="7.39234">
        <ele>390.1</ele>
        <time>2021-08-03T14:56:28Z</time>
      </trkpt>
      <trkpt lat="48.35158" lon="7.39234">
        <ele>390.4</ele>
        <time>2021-08-03T14:56:30Z</time>
      </trkpt>
      <trkpt lat="48.35147" lon="7.39233">
        <ele>390.6</ele>
        <time>2021-08-03T14:56:32Z</time>
      </trkpt>
      <trkpt lat="48.35137" lon="7.3923">
        <ele>390.6</ele>
        <time>2021-08-03T14:56:34Z</time>
      </trkpt>
      <trkpt lat="48.35133" lon="7.39228">
        <ele>390.6</ele>
        <time>2021-08-03T14:56:35Z</time>
      </trkpt>
      <trkpt lat="48.35129" lon="7.39226">
        <ele>390.5</ele>
        <time>2021-08-03T14:56:36Z</time>
      </trkpt>
      <trkpt lat="48.35119" lon="7.3922">
        <ele>390.3</ele>
        <time>2021-08-03T14:56:38Z</time>
      </trkpt>
      <trkpt lat="48.3511" lon="7.39214">
        <ele>389.9</ele>
        <time>2021-08-03T14:56:40Z</time>
      </trkpt>
      <trkpt lat="48.35105" lon="7.3921">
        <ele>389.7</ele>
        <time>2021-08-03T14:56:41Z</time>
      </trkpt>
      <trkpt lat="48.35094" lon="7.39204">
        <ele>389.2</ele>
        <time>2021-08-03T14:56:43Z</time>
      </trkpt>
      <trkpt lat="48.35089" lon="7.39201">
        <ele>389</ele>
        <time>2021-08-03T14:56:44Z</time>
      </trkpt>
      <trkpt lat="48.35077" lon="7.39196">
        <ele>388.5</ele>
        <time>2021-08-03T14:56:46Z</time>
      </trkpt>
      <trkpt lat="48.35072" lon="7.39195">
        <ele>388.3</ele>
        <time>2021-08-03T14:56:47Z</time>
      </trkpt>
      <trkpt lat="48.35063" lon="7.39191">
        <ele>387.9</ele>
        <time>2021-08-03T14:56:49Z</time>
      </trkpt>
      <trkpt lat="48.35058" lon="7.39189">
        <ele>387.6</ele>
        <time>2021-08-03T14:56:50Z</time>
      </trkpt>
      <trkpt lat="48.35048" lon="7.39183">
        <ele>386.9</ele>
        <time>2021-08-03T14:56:52Z</time>
      </trkpt>
      <trkpt lat="48.35035" lon="7.39175">
        <ele>386</ele>
        <time>2021-08-03T14:56:54Z</time>
      </trkpt>
      <trkpt lat="48.35028" lon="7.39172">
        <ele>385.5</ele>
        <time>2021-08-03T14:56:55Z</time>
      </trkpt>
      <trkpt lat="48.35014" lon="7.39168">
        <ele>384.5</ele>
        <time>2021-08-03T14:56:57Z</time>
      </trkpt>
      <trkpt lat="48.35008" lon="7.39167">
        <ele>384</ele>
        <time>2021-08-03T14:56:58Z</time>
      </trkpt>
      <trkpt lat="48.35001" lon="7.39167">
        <ele>383.6</ele>
        <time>2021-08-03T14:56:59Z</time>
      </trkpt>
      <trkpt lat="48.34995" lon="7.39169">
        <ele>383.2</ele>
        <time>2021-08-03T14:57:00Z</time>
      </trkpt>
      <trkpt lat="48.34988" lon="7.39172">
        <ele>382.7</ele>
        <time>2021-08-03T14:57:01Z</time>
      </trkpt>
      <trkpt lat="48.34971" lon="7.3918">
        <ele>381.5</ele>
        <time>2021-08-03T14:57:03Z</time>
      </trkpt>
      <trkpt lat="48.34962" lon="7.39185">
        <ele>380.8</ele>
        <time>2021-08-03T14:57:04Z</time>
      </trkpt>
      <trkpt lat="48.34952" lon="7.39189">
        <ele>380.1</ele>
        <time>2021-08-03T14:57:05Z</time>
      </trkpt>
      <trkpt lat="48.34941" lon="7.39193">
        <ele>379.3</ele>
        <time>2021-08-03T14:57:06Z</time>
      </trkpt>
      <trkpt lat="48.34919" lon="7.39196">
        <ele>377.7</ele>
        <time>2021-08-03T14:57:08Z</time>
      </trkpt>
      <trkpt lat="48.34896" lon="7.39196">
        <ele>376</ele>
        <time>2021-08-03T14:57:10Z</time>
      </trkpt>
      <trkpt lat="48.34886" lon="7.39193">
        <ele>375.2</ele>
        <time>2021-08-03T14:57:11Z</time>
      </trkpt>
      <trkpt lat="48.34876" lon="7.39192">
        <ele>374.5</ele>
        <time>2021-08-03T14:57:12Z</time>
      </trkpt>
      <trkpt lat="48.34868" lon="7.39191">
        <ele>373.9</ele>
        <time>2021-08-03T14:57:13Z</time>
      </trkpt>
      <trkpt lat="48.34849" lon="7.3919">
        <ele>372.6</ele>
        <time>2021-08-03T14:57:15Z</time>
      </trkpt>
      <trkpt lat="48.34841" lon="7.39189">
        <ele>372</ele>
        <time>2021-08-03T14:57:16Z</time>
      </trkpt>
      <trkpt lat="48.34822" lon="7.39182">
        <ele>370.4</ele>
        <time>2021-08-03T14:57:18Z</time>
      </trkpt>
      <trkpt lat="48.34814" lon="7.39179">
        <ele>369.6</ele>
        <time>2021-08-03T14:57:19Z</time>
      </trkpt>
      <trkpt lat="48.34806" lon="7.39174">
        <ele>368.9</ele>
        <time>2021-08-03T14:57:20Z</time>
      </trkpt>
      <trkpt lat="48.34796" lon="7.39161">
        <ele>367.7</ele>
        <time>2021-08-03T14:57:22Z</time>
      </trkpt>
      <trkpt lat="48.34792" lon="7.39153">
        <ele>367.3</ele>
        <time>2021-08-03T14:57:23Z</time>
      </trkpt>
      <trkpt lat="48.34789" lon="7.39143">
        <ele>366.7</ele>
        <time>2021-08-03T14:57:24Z</time>
      </trkpt>
      <trkpt lat="48.3478" lon="7.39124">
        <ele>365.6</ele>
        <time>2021-08-03T14:57:26Z</time>
      </trkpt>
      <trkpt lat="48.34767" lon="7.39105">
        <ele>364.4</ele>
        <time>2021-08-03T14:57:28Z</time>
      </trkpt>
      <trkpt lat="48.34753" lon="7.39089">
        <ele>363.2</ele>
        <time>2021-08-03T14:57:30Z</time>
      </trkpt>
      <trkpt lat="48.3474" lon="7.39073">
        <ele>362.1</ele>
        <time>2021-08-03T14:57:32Z</time>
      </trkpt>
      <trkpt lat="48.34728" lon="7.39059">
        <ele>361.1</ele>
        <time>2021-08-03T14:57:34Z</time>
      </trkpt>
      <trkpt lat="48.34722" lon="7.39052">
        <ele>360.7</ele>
        <time>2021-08-03T14:57:35Z</time>
      </trkpt>
      <trkpt lat="48.34716" lon="7.39046">
        <ele>360.3</ele>
        <time>2021-08-03T14:57:36Z</time>
      </trkpt>
      <trkpt lat="48.34704" lon="7.39036">
        <ele>359.7</ele>
        <time>2021-08-03T14:57:38Z</time>
      </trkpt>
      <trkpt lat="48.34691" lon="7.39024">
        <ele>359.1</ele>
        <time>2021-08-03T14:57:40Z</time>
      </trkpt>
      <trkpt lat="48.34685" lon="7.39018">
        <ele>358.7</ele>
        <time>2021-08-03T14:57:41Z</time>
      </trkpt>
      <trkpt lat="48.34678" lon="7.39012">
        <ele>358.4</ele>
        <time>2021-08-03T14:57:42Z</time>
      </trkpt>
      <trkpt lat="48.34667" lon="7.39">
        <ele>357.8</ele>
        <time>2021-08-03T14:57:44Z</time>
      </trkpt>
      <trkpt lat="48.34657" lon="7.38989">
        <ele>357.3</ele>
        <time>2021-08-03T14:57:46Z</time>
      </trkpt>
      <trkpt lat="48.34652" lon="7.38984">
        <ele>357</ele>
        <time>2021-08-03T14:57:47Z</time>
      </trkpt>
      <trkpt lat="48.34647" lon="7.38979">
        <ele>356.8</ele>
        <time>2021-08-03T14:57:48Z</time>
      </trkpt>
      <trkpt lat="48.34643" lon="7.38971">
        <ele>356.5</ele>
        <time>2021-08-03T14:57:50Z</time>
      </trkpt>
      <trkpt lat="48.34642" lon="7.38967">
        <ele>356.3</ele>
        <time>2021-08-03T14:57:51Z</time>
      </trkpt>
      <trkpt lat="48.34642" lon="7.38962">
        <ele>356.3</ele>
        <time>2021-08-03T14:57:52Z</time>
      </trkpt>
      <trkpt lat="48.34642" lon="7.38961">
        <ele>356.3</ele>
        <time>2021-08-03T14:57:53Z</time>
      </trkpt>
      <trkpt lat="48.34644" lon="7.38957">
        <ele>356.3</ele>
        <time>2021-08-03T14:57:55Z</time>
      </trkpt>
      <trkpt lat="48.34644" lon="7.38958">
        <ele>356.3</ele>
        <time>2021-08-03T14:57:57Z</time>
      </trkpt>
      <trkpt lat="48.34643" lon="7.38958">
        <ele>356.3</ele>
        <time>2021-08-03T14:57:58Z</time>
      </trkpt>
      <trkpt lat="48.34643" lon="7.38957">
        <ele>356.3</ele>
        <time>2021-08-03T14:58:00Z</time>
      </trkpt>
      <trkpt lat="48.34643" lon="7.38958">
        <ele>356.3</ele>
        <time>2021-08-03T14:58:01Z</time>
      </trkpt>
      <trkpt lat="48.34642" lon="7.38958">
        <ele>356.3</ele>
        <time>2021-08-03T14:58:03Z</time>
      </trkpt>
      <trkpt lat="48.34642" lon="7.38958">
        <ele>356.3</ele>
        <time>2021-08-03T14:58:04Z</time>
      </trkpt>
      <trkpt lat="48.3464" lon="7.38959">
        <ele>356.2</ele>
        <time>2021-08-03T14:58:06Z</time>
      </trkpt>
      <trkpt lat="48.34639" lon="7.38967">
        <ele>356.1</ele>
        <time>2021-08-03T14:58:07Z</time>
      </trkpt>
      <trkpt lat="48.3464" lon="7.38973">
        <ele>356</ele>
        <time>2021-08-03T14:58:08Z</time>
      </trkpt>
      <trkpt lat="48.34641" lon="7.38979">
        <ele>355.9</ele>
        <time>2021-08-03T14:58:43Z</time>
      </trkpt>
      <trkpt lat="48.34642" lon="7.38985">
        <ele>355.8</ele>
        <time>2021-08-03T14:58:44Z</time>
      </trkpt>
      <trkpt lat="48.34637" lon="7.3899">
        <ele>355.7</ele>
        <time>2021-08-03T14:58:45Z</time>
      </trkpt>
      <trkpt lat="48.34632" lon="7.38996">
        <ele>355.6</ele>
        <time>2021-08-03T14:58:46Z</time>
      </trkpt>
      <trkpt lat="48.34628" lon="7.39">
        <ele>355.5</ele>
        <time>2021-08-03T14:58:48Z</time>
      </trkpt>
      <trkpt lat="48.34625" lon="7.39002">
        <ele>355.4</ele>
        <time>2021-08-03T14:58:50Z</time>
      </trkpt>
      <trkpt lat="48.34623" lon="7.39004">
        <ele>355.4</ele>
        <time>2021-08-03T14:58:51Z</time>
      </trkpt>
      <trkpt lat="48.34622" lon="7.39005">
        <ele>355.4</ele>
        <time>2021-08-03T14:58:52Z</time>
      </trkpt>
      <trkpt lat="48.34618" lon="7.39008">
        <ele>355.3</ele>
        <time>2021-08-03T14:58:54Z</time>
      </trkpt>
      <trkpt lat="48.34615" lon="7.39011">
        <ele>355.3</ele>
        <time>2021-08-03T14:58:55Z</time>
      </trkpt>
      <trkpt lat="48.34612" lon="7.39013">
        <ele>355.3</ele>
        <time>2021-08-03T14:58:56Z</time>
      </trkpt>
      <trkpt lat="48.34609" lon="7.39016">
        <ele>355.3</ele>
        <time>2021-08-03T14:58:59Z</time>
      </trkpt>
      <trkpt lat="48.34606" lon="7.39019">
        <ele>355.2</ele>
        <time>2021-08-03T14:59:00Z</time>
      </trkpt>
      <trkpt lat="48.34603" lon="7.39021">
        <ele>355.2</ele>
        <time>2021-08-03T14:59:14Z</time>
      </trkpt>
      <trkpt lat="48.346" lon="7.39024">
        <ele>355.2</ele>
        <time>2021-08-03T14:59:15Z</time>
      </trkpt>
      <trkpt lat="48.34596" lon="7.39027">
        <ele>355.2</ele>
        <time>2021-08-03T14:59:16Z</time>
      </trkpt>
      <trkpt lat="48.34589" lon="7.39032">
        <ele>355.2</ele>
        <time>2021-08-03T14:59:17Z</time>
      </trkpt>
      <trkpt lat="48.34583" lon="7.39034">
        <ele>355.2</ele>
        <time>2021-08-03T14:59:19Z</time>
      </trkpt>
      <trkpt lat="48.3458" lon="7.39034">
        <ele>355.3</ele>
        <time>2021-08-03T14:59:20Z</time>
      </trkpt>
      <trkpt lat="48.34577" lon="7.39034">
        <ele>355.3</ele>
        <time>2021-08-03T14:59:21Z</time>
      </trkpt>
      <trkpt lat="48.34573" lon="7.39036">
        <ele>355.4</ele>
        <time>2021-08-03T14:59:23Z</time>
      </trkpt>
      <trkpt lat="48.34572" lon="7.39036">
        <ele>355.4</ele>
        <time>2021-08-03T14:59:24Z</time>
      </trkpt>
      <trkpt lat="48.3457" lon="7.39036">
        <ele>355.4</ele>
        <time>2021-08-03T14:59:25Z</time>
      </trkpt>
      <trkpt lat="48.3457" lon="7.39036">
        <ele>355.4</ele>
        <time>2021-08-03T14:59:27Z</time>
      </trkpt>
      <trkpt lat="48.34569" lon="7.39036">
        <ele>355.4</ele>
        <time>2021-08-03T14:59:29Z</time>
      </trkpt>
      <trkpt lat="48.34569" lon="7.39036">
        <ele>355.4</ele>
        <time>2021-08-03T14:59:30Z</time>
      </trkpt>
      <trkpt lat="48.34569" lon="7.39036">
        <ele>355.4</ele>
        <time>2021-08-03T14:59:31Z</time>
      </trkpt>
      <trkpt lat="48.34569" lon="7.39036">
        <ele>355.4</ele>
        <time>2021-08-03T14:59:33Z</time>
      </trkpt>
      <trkpt lat="48.34559" lon="7.39041">
        <ele>355.7</ele>
        <time>2021-08-03T14:59:45Z</time>
      </trkpt>
      <trkpt lat="48.34557" lon="7.39041">
        <ele>355.8</ele>
        <time>2021-08-03T14:59:46Z</time>
      </trkpt>
      <trkpt lat="48.34557" lon="7.3904">
        <ele>355.8</ele>
        <time>2021-08-03T14:59:48Z</time>
      </trkpt>
      <trkpt lat="48.34555" lon="7.3904">
        <ele>355.9</ele>
        <time>2021-08-03T14:59:50Z</time>
      </trkpt>
      <trkpt lat="48.34554" lon="7.39041">
        <ele>355.9</ele>
        <time>2021-08-03T14:59:52Z</time>
      </trkpt>
      <trkpt lat="48.34553" lon="7.39042">
        <ele>356</ele>
        <time>2021-08-03T14:59:53Z</time>
      </trkpt>
      <trkpt lat="48.34552" lon="7.39044">
        <ele>356</ele>
        <time>2021-08-03T14:59:54Z</time>
      </trkpt>
      <trkpt lat="48.34553" lon="7.39045">
        <ele>356.1</ele>
        <time>2021-08-03T14:59:56Z</time>
      </trkpt>
      <trkpt lat="48.34553" lon="7.39046">
        <ele>356.1</ele>
        <time>2021-08-03T14:59:57Z</time>
      </trkpt>
      <trkpt lat="48.34553" lon="7.39048">
        <ele>356.1</ele>
        <time>2021-08-03T14:59:58Z</time>
      </trkpt>
      <trkpt lat="48.34553" lon="7.39052">
        <ele>356.3</ele>
        <time>2021-08-03T15:00:00Z</time>
      </trkpt>
      <trkpt lat="48.34553" lon="7.39054">
        <ele>356.3</ele>
        <time>2021-08-03T15:00:01Z</time>
      </trkpt>
      <trkpt lat="48.34552" lon="7.39057">
        <ele>356.5</ele>
        <time>2021-08-03T15:00:03Z</time>
      </trkpt>
      <trkpt lat="48.34551" lon="7.39059">
        <ele>356.6</ele>
        <time>2021-08-03T15:00:04Z</time>
      </trkpt>
      <trkpt lat="48.34546" lon="7.39062">
        <ele>356.8</ele>
        <time>2021-08-03T15:00:06Z</time>
      </trkpt>
      <trkpt lat="48.34543" lon="7.39064">
        <ele>357</ele>
        <time>2021-08-03T15:00:07Z</time>
      </trkpt>
      <trkpt lat="48.34539" lon="7.39066">
        <ele>357.3</ele>
        <time>2021-08-03T15:00:08Z</time>
      </trkpt>
      <trkpt lat="48.34537" lon="7.39067">
        <ele>357.4</ele>
        <time>2021-08-03T15:00:09Z</time>
      </trkpt>
      <trkpt lat="48.34533" lon="7.3907">
        <ele>357.7</ele>
        <time>2021-08-03T15:00:11Z</time>
      </trkpt>
      <trkpt lat="48.3453" lon="7.39073">
        <ele>357.9</ele>
        <time>2021-08-03T15:00:13Z</time>
      </trkpt>
      <trkpt lat="48.34526" lon="7.39075">
        <ele>358.2</ele>
        <time>2021-08-03T15:00:14Z</time>
      </trkpt>
      <trkpt lat="48.34525" lon="7.39075">
        <ele>358.4</ele>
        <time>2021-08-03T15:00:16Z</time>
      </trkpt>
      <trkpt lat="48.34523" lon="7.39075">
        <ele>358.5</ele>
        <time>2021-08-03T15:00:18Z</time>
      </trkpt>
      <trkpt lat="48.3452" lon="7.39073">
        <ele>358.8</ele>
        <time>2021-08-03T15:00:19Z</time>
      </trkpt>
      <trkpt lat="48.3452" lon="7.3907">
        <ele>358.9</ele>
        <time>2021-08-03T15:00:20Z</time>
      </trkpt>
      <trkpt lat="48.34519" lon="7.39067">
        <ele>359.1</ele>
        <time>2021-08-03T15:00:22Z</time>
      </trkpt>
      <trkpt lat="48.34518" lon="7.39067">
        <ele>359.3</ele>
        <time>2021-08-03T15:00:23Z</time>
      </trkpt>
      <trkpt lat="48.34516" lon="7.39066">
        <ele>359.4</ele>
        <time>2021-08-03T15:00:25Z</time>
      </trkpt>
      <trkpt lat="48.34513" lon="7.39063">
        <ele>359.7</ele>
        <time>2021-08-03T15:00:26Z</time>
      </trkpt>
      <trkpt lat="48.34513" lon="7.39061">
        <ele>359.8</ele>
        <time>2021-08-03T15:00:27Z</time>
      </trkpt>
      <trkpt lat="48.34511" lon="7.39057">
        <ele>360.3</ele>
        <time>2021-08-03T15:00:28Z</time>
      </trkpt>
      <trkpt lat="48.3451" lon="7.39055">
        <ele>360.3</ele>
        <time>2021-08-03T15:00:29Z</time>
      </trkpt>
      <trkpt lat="48.34508" lon="7.39047">
        <ele>360.7</ele>
        <time>2021-08-03T15:00:31Z</time>
      </trkpt>
      <trkpt lat="48.34507" lon="7.39042">
        <ele>360.9</ele>
        <time>2021-08-03T15:00:32Z</time>
      </trkpt>
      <trkpt lat="48.34506" lon="7.3904">
        <ele>361</ele>
        <time>2021-08-03T15:00:33Z</time>
      </trkpt>
      <trkpt lat="48.34504" lon="7.39036">
        <ele>361.2</ele>
        <time>2021-08-03T15:00:35Z</time>
      </trkpt>
      <trkpt lat="48.34502" lon="7.39035">
        <ele>361.3</ele>
        <time>2021-08-03T15:00:36Z</time>
      </trkpt>
      <trkpt lat="48.34498" lon="7.3903">
        <ele>361.6</ele>
        <time>2021-08-03T15:00:38Z</time>
      </trkpt>
      <trkpt lat="48.34494" lon="7.3903">
        <ele>362.1</ele>
        <time>2021-08-03T15:00:39Z</time>
      </trkpt>
      <trkpt lat="48.34493" lon="7.39029">
        <ele>362.3</ele>
        <time>2021-08-03T15:00:40Z</time>
      </trkpt>
      <trkpt lat="48.3449" lon="7.39028">
        <ele>362.5</ele>
        <time>2021-08-03T15:00:41Z</time>
      </trkpt>
      <trkpt lat="48.34489" lon="7.39028">
        <ele>362.5</ele>
        <time>2021-08-03T15:00:42Z</time>
      </trkpt>
      <trkpt lat="48.34486" lon="7.39027">
        <ele>362.8</ele>
        <time>2021-08-03T15:00:43Z</time>
      </trkpt>
      <trkpt lat="48.34484" lon="7.39027">
        <ele>362.9</ele>
        <time>2021-08-03T15:00:45Z</time>
      </trkpt>
      <trkpt lat="48.34483" lon="7.39026">
        <ele>363</ele>
        <time>2021-08-03T15:00:46Z</time>
      </trkpt>
      <trkpt lat="48.34484" lon="7.39026">
        <ele>363</ele>
        <time>2021-08-03T15:00:48Z</time>
      </trkpt>
      <trkpt lat="48.34483" lon="7.39025">
        <ele>363</ele>
        <time>2021-08-03T15:00:49Z</time>
      </trkpt>
      <trkpt lat="48.34482" lon="7.39024">
        <ele>363.1</ele>
        <time>2021-08-03T15:00:50Z</time>
      </trkpt>
      <trkpt lat="48.34481" lon="7.39023">
        <ele>363.2</ele>
        <time>2021-08-03T15:00:51Z</time>
      </trkpt>
      <trkpt lat="48.34481" lon="7.39021">
        <ele>363.3</ele>
        <time>2021-08-03T15:00:52Z</time>
      </trkpt>
      <trkpt lat="48.3448" lon="7.39019">
        <ele>363.4</ele>
        <time>2021-08-03T15:00:53Z</time>
      </trkpt>
      <trkpt lat="48.34478" lon="7.39016">
        <ele>363.6</ele>
        <time>2021-08-03T15:00:55Z</time>
      </trkpt>
      <trkpt lat="48.3447" lon="7.39008">
        <ele>364.3</ele>
        <time>2021-08-03T15:01:01Z</time>
      </trkpt>
      <trkpt lat="48.34467" lon="7.39005">
        <ele>364.6</ele>
        <time>2021-08-03T15:01:02Z</time>
      </trkpt>
      <trkpt lat="48.34465" lon="7.39003">
        <ele>364.7</ele>
        <time>2021-08-03T15:01:03Z</time>
      </trkpt>
      <trkpt lat="48.34462" lon="7.39">
        <ele>365</ele>
        <time>2021-08-03T15:01:04Z</time>
      </trkpt>
      <trkpt lat="48.34461" lon="7.38999">
        <ele>365.1</ele>
        <time>2021-08-03T15:01:05Z</time>
      </trkpt>
      <trkpt lat="48.34459" lon="7.38996">
        <ele>365.3</ele>
        <time>2021-08-03T15:01:06Z</time>
      </trkpt>
      <trkpt lat="48.34457" lon="7.38993">
        <ele>365.4</ele>
        <time>2021-08-03T15:01:07Z</time>
      </trkpt>
      <trkpt lat="48.34454" lon="7.3899">
        <ele>365.7</ele>
        <time>2021-08-03T15:01:08Z</time>
      </trkpt>
      <trkpt lat="48.34453" lon="7.38989">
        <ele>365.8</ele>
        <time>2021-08-03T15:01:09Z</time>
      </trkpt>
      <trkpt lat="48.34451" lon="7.38986">
        <ele>366</ele>
        <time>2021-08-03T15:01:11Z</time>
      </trkpt>
      <trkpt lat="48.3445" lon="7.38985">
        <ele>366.1</ele>
        <time>2021-08-03T15:01:12Z</time>
      </trkpt>
      <trkpt lat="48.34447" lon="7.38983">
        <ele>366.3</ele>
        <time>2021-08-03T15:01:13Z</time>
      </trkpt>
      <trkpt lat="48.34446" lon="7.38982">
        <ele>366.4</ele>
        <time>2021-08-03T15:01:14Z</time>
      </trkpt>
      <trkpt lat="48.34444" lon="7.3898">
        <ele>366.6</ele>
        <time>2021-08-03T15:01:15Z</time>
      </trkpt>
      <trkpt lat="48.34442" lon="7.38977">
        <ele>366.8</ele>
        <time>2021-08-03T15:01:17Z</time>
      </trkpt>
      <trkpt lat="48.34441" lon="7.38976">
        <ele>366.9</ele>
        <time>2021-08-03T15:01:18Z</time>
      </trkpt>
      <trkpt lat="48.34439" lon="7.38972">
        <ele>367.1</ele>
        <time>2021-08-03T15:01:20Z</time>
      </trkpt>
      <trkpt lat="48.34439" lon="7.38971">
        <ele>367.2</ele>
        <time>2021-08-03T15:01:21Z</time>
      </trkpt>
      <trkpt lat="48.34438" lon="7.38971">
        <ele>367.2</ele>
        <time>2021-08-03T15:01:22Z</time>
      </trkpt>
      <trkpt lat="48.34438" lon="7.3897">
        <ele>367.3</ele>
        <time>2021-08-03T15:01:23Z</time>
      </trkpt>
      <trkpt lat="48.34438" lon="7.3897">
        <ele>367.3</ele>
        <time>2021-08-03T15:01:25Z</time>
      </trkpt>
      <trkpt lat="48.34437" lon="7.3897">
        <ele>367.3</ele>
        <time>2021-08-03T15:01:27Z</time>
      </trkpt>
      <trkpt lat="48.34437" lon="7.38969">
        <ele>367.4</ele>
        <time>2021-08-03T15:01:28Z</time>
      </trkpt>
      <trkpt lat="48.34409" lon="7.38934">
        <ele>369.9</ele>
        <time>2021-08-03T15:01:51Z</time>
      </trkpt>
      <trkpt lat="48.34406" lon="7.3893">
        <ele>370.1</ele>
        <time>2021-08-03T15:01:52Z</time>
      </trkpt>
      <trkpt lat="48.34404" lon="7.38926">
        <ele>370.4</ele>
        <time>2021-08-03T15:01:54Z</time>
      </trkpt>
      <trkpt lat="48.34402" lon="7.38923">
        <ele>370.5</ele>
        <time>2021-08-03T15:01:55Z</time>
      </trkpt>
      <trkpt lat="48.34399" lon="7.3892">
        <ele>370.7</ele>
        <time>2021-08-03T15:01:57Z</time>
      </trkpt>
      <trkpt lat="48.34398" lon="7.38918">
        <ele>370.9</ele>
        <time>2021-08-03T15:01:58Z</time>
      </trkpt>
      <trkpt lat="48.34397" lon="7.38916">
        <ele>371</ele>
        <time>2021-08-03T15:02:00Z</time>
      </trkpt>
      <trkpt lat="48.34396" lon="7.38914">
        <ele>371.1</ele>
        <time>2021-08-03T15:02:01Z</time>
      </trkpt>
      <trkpt lat="48.34395" lon="7.38913">
        <ele>371.2</ele>
        <time>2021-08-03T15:02:02Z</time>
      </trkpt>
      <trkpt lat="48.34393" lon="7.3891">
        <ele>371.3</ele>
        <time>2021-08-03T15:02:03Z</time>
      </trkpt>
      <trkpt lat="48.34393" lon="7.38909">
        <ele>371.4</ele>
        <time>2021-08-03T15:02:04Z</time>
      </trkpt>
      <trkpt lat="48.34393" lon="7.38908">
        <ele>371.4</ele>
        <time>2021-08-03T15:02:05Z</time>
      </trkpt>
      <trkpt lat="48.34393" lon="7.38907">
        <ele>371.4</ele>
        <time>2021-08-03T15:02:06Z</time>
      </trkpt>
      <trkpt lat="48.34391" lon="7.38904">
        <ele>371.6</ele>
        <time>2021-08-03T15:02:08Z</time>
      </trkpt>
      <trkpt lat="48.3439" lon="7.38904">
        <ele>371.7</ele>
        <time>2021-08-03T15:02:09Z</time>
      </trkpt>
      <trkpt lat="48.34388" lon="7.38903">
        <ele>371.8</ele>
        <time>2021-08-03T15:02:10Z</time>
      </trkpt>
      <trkpt lat="48.34387" lon="7.38902">
        <ele>371.9</ele>
        <time>2021-08-03T15:02:11Z</time>
      </trkpt>
      <trkpt lat="48.34384" lon="7.389">
        <ele>372.1</ele>
        <time>2021-08-03T15:02:13Z</time>
      </trkpt>
      <trkpt lat="48.34381" lon="7.38898">
        <ele>372.4</ele>
        <time>2021-08-03T15:02:15Z</time>
      </trkpt>
      <trkpt lat="48.34378" lon="7.38895">
        <ele>372.7</ele>
        <time>2021-08-03T15:02:16Z</time>
      </trkpt>
      <trkpt lat="48.34376" lon="7.38892">
        <ele>372.9</ele>
        <time>2021-08-03T15:02:18Z</time>
      </trkpt>
      <trkpt lat="48.34374" lon="7.3889">
        <ele>373.1</ele>
        <time>2021-08-03T15:02:19Z</time>
      </trkpt>
      <trkpt lat="48.34371" lon="7.38887">
        <ele>373.4</ele>
        <time>2021-08-03T15:02:21Z</time>
      </trkpt>
      <trkpt lat="48.34369" lon="7.38885">
        <ele>373.6</ele>
        <time>2021-08-03T15:02:23Z</time>
      </trkpt>
      <trkpt lat="48.34367" lon="7.38882">
        <ele>373.9</ele>
        <time>2021-08-03T15:02:24Z</time>
      </trkpt>
      <trkpt lat="48.34364" lon="7.38879">
        <ele>374.1</ele>
        <time>2021-08-03T15:02:25Z</time>
      </trkpt>
      <trkpt lat="48.34362" lon="7.38877">
        <ele>374.3</ele>
        <time>2021-08-03T15:02:37Z</time>
      </trkpt>
      <trkpt lat="48.3436" lon="7.38874">
        <ele>374.6</ele>
        <time>2021-08-03T15:02:38Z</time>
      </trkpt>
      <trkpt lat="48.34358" lon="7.38871">
        <ele>374.8</ele>
        <time>2021-08-03T15:02:39Z</time>
      </trkpt>
      <trkpt lat="48.34356" lon="7.38868">
        <ele>375.1</ele>
        <time>2021-08-03T15:02:41Z</time>
      </trkpt>
      <trkpt lat="48.34354" lon="7.38863">
        <ele>375.4</ele>
        <time>2021-08-03T15:02:43Z</time>
      </trkpt>
      <trkpt lat="48.34354" lon="7.38855">
        <ele>375.8</ele>
        <time>2021-08-03T15:02:44Z</time>
      </trkpt>
      <trkpt lat="48.34354" lon="7.3885">
        <ele>376.1</ele>
        <time>2021-08-03T15:02:46Z</time>
      </trkpt>
      <trkpt lat="48.34353" lon="7.38847">
        <ele>376.3</ele>
        <time>2021-08-03T15:02:47Z</time>
      </trkpt>
      <trkpt lat="48.34352" lon="7.38845">
        <ele>376.4</ele>
        <time>2021-08-03T15:02:48Z</time>
      </trkpt>
      <trkpt lat="48.34353" lon="7.38843">
        <ele>376.5</ele>
        <time>2021-08-03T15:02:50Z</time>
      </trkpt>
      <trkpt lat="48.34354" lon="7.38842">
        <ele>376.6</ele>
        <time>2021-08-03T15:02:51Z</time>
      </trkpt>
      <trkpt lat="48.34355" lon="7.38839">
        <ele>376.8</ele>
        <time>2021-08-03T15:02:53Z</time>
      </trkpt>
      <trkpt lat="48.34356" lon="7.38835">
        <ele>377</ele>
        <time>2021-08-03T15:02:55Z</time>
      </trkpt>
      <trkpt lat="48.34357" lon="7.38831">
        <ele>377.2</ele>
        <time>2021-08-03T15:02:56Z</time>
      </trkpt>
      <trkpt lat="48.34357" lon="7.38829">
        <ele>377.3</ele>
        <time>2021-08-03T15:02:58Z</time>
      </trkpt>
      <trkpt lat="48.34357" lon="7.38814">
        <ele>378.1</ele>
        <time>2021-08-03T15:03:08Z</time>
      </trkpt>
      <trkpt lat="48.34359" lon="7.38807">
        <ele>378.5</ele>
        <time>2021-08-03T15:03:10Z</time>
      </trkpt>
      <trkpt lat="48.34361" lon="7.38803">
        <ele>378.8</ele>
        <time>2021-08-03T15:03:11Z</time>
      </trkpt>
      <trkpt lat="48.34362" lon="7.38799">
        <ele>379.1</ele>
        <time>2021-08-03T15:03:12Z</time>
      </trkpt>
      <trkpt lat="48.34364" lon="7.38794">
        <ele>379.4</ele>
        <time>2021-08-03T15:03:13Z</time>
      </trkpt>
      <trkpt lat="48.34364" lon="7.3879">
        <ele>379.6</ele>
        <time>2021-08-03T15:03:14Z</time>
      </trkpt>
      <trkpt lat="48.34364" lon="7.38788">
        <ele>379.7</ele>
        <time>2021-08-03T15:03:15Z</time>
      </trkpt>
      <trkpt lat="48.34362" lon="7.38783">
        <ele>380</ele>
        <time>2021-08-03T15:03:17Z</time>
      </trkpt>
      <trkpt lat="48.34362" lon="7.38782">
        <ele>380.1</ele>
        <time>2021-08-03T15:03:18Z</time>
      </trkpt>
      <trkpt lat="48.34361" lon="7.38779">
        <ele>380.4</ele>
        <time>2021-08-03T15:03:19Z</time>
      </trkpt>
      <trkpt lat="48.34358" lon="7.38775">
        <ele>380.7</ele>
        <time>2021-08-03T15:03:21Z</time>
      </trkpt>
      <trkpt lat="48.34358" lon="7.38774">
        <ele>380.7</ele>
        <time>2021-08-03T15:03:22Z</time>
      </trkpt>
      <trkpt lat="48.34356" lon="7.3877">
        <ele>381</ele>
        <time>2021-08-03T15:03:23Z</time>
      </trkpt>
      <trkpt lat="48.34355" lon="7.38769">
        <ele>381.1</ele>
        <time>2021-08-03T15:03:24Z</time>
      </trkpt>
      <trkpt lat="48.34352" lon="7.38768">
        <ele>381.3</ele>
        <time>2021-08-03T15:03:25Z</time>
      </trkpt>
      <trkpt lat="48.34348" lon="7.38769">
        <ele>381.7</ele>
        <time>2021-08-03T15:03:26Z</time>
      </trkpt>
      <trkpt lat="48.34343" lon="7.3877">
        <ele>382</ele>
        <time>2021-08-03T15:03:27Z</time>
      </trkpt>
      <trkpt lat="48.34337" lon="7.38772">
        <ele>382.5</ele>
        <time>2021-08-03T15:03:29Z</time>
      </trkpt>
      <trkpt lat="48.34334" lon="7.38773">
        <ele>382.7</ele>
        <time>2021-08-03T15:03:30Z</time>
      </trkpt>
      <trkpt lat="48.3433" lon="7.38774">
        <ele>383</ele>
        <time>2021-08-03T15:03:31Z</time>
      </trkpt>
      <trkpt lat="48.34327" lon="7.38772">
        <ele>383.2</ele>
        <time>2021-08-03T15:03:33Z</time>
      </trkpt>
      <trkpt lat="48.34323" lon="7.38772">
        <ele>383.4</ele>
        <time>2021-08-03T15:03:34Z</time>
      </trkpt>
      <trkpt lat="48.34322" lon="7.38772">
        <ele>383.5</ele>
        <time>2021-08-03T15:03:35Z</time>
      </trkpt>
      <trkpt lat="48.34322" lon="7.38772">
        <ele>383.5</ele>
        <time>2021-08-03T15:03:37Z</time>
      </trkpt>
      <trkpt lat="48.34322" lon="7.38772">
        <ele>383.6</ele>
        <time>2021-08-03T15:03:38Z</time>
      </trkpt>
      <trkpt lat="48.34321" lon="7.3877">
        <ele>383.6</ele>
        <time>2021-08-03T15:03:39Z</time>
      </trkpt>
      <trkpt lat="48.34319" lon="7.38764">
        <ele>384</ele>
        <time>2021-08-03T15:03:41Z</time>
      </trkpt>
      <trkpt lat="48.34318" lon="7.38761">
        <ele>384.2</ele>
        <time>2021-08-03T15:03:42Z</time>
      </trkpt>
      <trkpt lat="48.34314" lon="7.38759">
        <ele>384.4</ele>
        <time>2021-08-03T15:03:43Z</time>
      </trkpt>
      <trkpt lat="48.34312" lon="7.38756">
        <ele>384.7</ele>
        <time>2021-08-03T15:03:44Z</time>
      </trkpt>
      <trkpt lat="48.34309" lon="7.38752">
        <ele>385</ele>
        <time>2021-08-03T15:03:46Z</time>
      </trkpt>
      <trkpt lat="48.34305" lon="7.38749">
        <ele>385.4</ele>
        <time>2021-08-03T15:03:47Z</time>
      </trkpt>
      <trkpt lat="48.34302" lon="7.38749">
        <ele>385.6</ele>
        <time>2021-08-03T15:03:48Z</time>
      </trkpt>
      <trkpt lat="48.34299" lon="7.38749">
        <ele>386</ele>
        <time>2021-08-03T15:03:49Z</time>
      </trkpt>
      <trkpt lat="48.34294" lon="7.38747">
        <ele>386.4</ele>
        <time>2021-08-03T15:03:51Z</time>
      </trkpt>
      <trkpt lat="48.34292" lon="7.38746">
        <ele>386.6</ele>
        <time>2021-08-03T15:03:52Z</time>
      </trkpt>
      <trkpt lat="48.34291" lon="7.38745">
        <ele>386.8</ele>
        <time>2021-08-03T15:03:53Z</time>
      </trkpt>
      <trkpt lat="48.34288" lon="7.38743">
        <ele>387.1</ele>
        <time>2021-08-03T15:03:54Z</time>
      </trkpt>
      <trkpt lat="48.34283" lon="7.38741">
        <ele>387.5</ele>
        <time>2021-08-03T15:03:56Z</time>
      </trkpt>
      <trkpt lat="48.34279" lon="7.38743">
        <ele>387.9</ele>
        <time>2021-08-03T15:03:58Z</time>
      </trkpt>
      <trkpt lat="48.34278" lon="7.38744">
        <ele>388</ele>
        <time>2021-08-03T15:03:59Z</time>
      </trkpt>
      <trkpt lat="48.34278" lon="7.38748">
        <ele>388.3</ele>
        <time>2021-08-03T15:04:00Z</time>
      </trkpt>
      <trkpt lat="48.34278" lon="7.38749">
        <ele>388.3</ele>
        <time>2021-08-03T15:04:02Z</time>
      </trkpt>
      <trkpt lat="48.34278" lon="7.38749">
        <ele>388.3</ele>
        <time>2021-08-03T15:04:03Z</time>
      </trkpt>
      <trkpt lat="48.34278" lon="7.38749">
        <ele>388.4</ele>
        <time>2021-08-03T15:04:04Z</time>
      </trkpt>
      <trkpt lat="48.34278" lon="7.3875">
        <ele>388.4</ele>
        <time>2021-08-03T15:04:05Z</time>
      </trkpt>
      <trkpt lat="48.34278" lon="7.3875">
        <ele>388.4</ele>
        <time>2021-08-03T15:04:06Z</time>
      </trkpt>
      <trkpt lat="48.34278" lon="7.3875">
        <ele>388.4</ele>
        <time>2021-08-03T15:04:08Z</time>
      </trkpt>
      <trkpt lat="48.3421" lon="7.387">
        <ele>394.8</ele>
        <time>2021-08-03T15:05:12Z</time>
      </trkpt>
      <trkpt lat="48.34206" lon="7.38695">
        <ele>395.3</ele>
        <time>2021-08-03T15:05:14Z</time>
      </trkpt>
      <trkpt lat="48.34204" lon="7.38691">
        <ele>395.6</ele>
        <time>2021-08-03T15:05:15Z</time>
      </trkpt>
      <trkpt lat="48.34203" lon="7.38689">
        <ele>395.7</ele>
        <time>2021-08-03T15:05:16Z</time>
      </trkpt>
      <trkpt lat="48.34203" lon="7.38687">
        <ele>395.8</ele>
        <time>2021-08-03T15:05:17Z</time>
      </trkpt>
      <trkpt lat="48.34202" lon="7.38686">
        <ele>395.9</ele>
        <time>2021-08-03T15:05:19Z</time>
      </trkpt>
      <trkpt lat="48.34202" lon="7.38684">
        <ele>396</ele>
        <time>2021-08-03T15:05:20Z</time>
      </trkpt>
      <trkpt lat="48.34201" lon="7.38683">
        <ele>396.1</ele>
        <time>2021-08-03T15:05:22Z</time>
      </trkpt>
      <trkpt lat="48.34201" lon="7.38681">
        <ele>396.2</ele>
        <time>2021-08-03T15:05:23Z</time>
      </trkpt>
      <trkpt lat="48.34201" lon="7.3868">
        <ele>396.2</ele>
        <time>2021-08-03T15:05:24Z</time>
      </trkpt>
      <trkpt lat="48.34201" lon="7.38679">
        <ele>396.3</ele>
        <time>2021-08-03T15:05:25Z</time>
      </trkpt>
      <trkpt lat="48.34175" lon="7.38658">
        <ele>398.4</ele>
        <time>2021-08-03T15:06:11Z</time>
      </trkpt>
      <trkpt lat="48.34168" lon="7.38658">
        <ele>398.9</ele>
        <time>2021-08-03T15:06:13Z</time>
      </trkpt>
      <trkpt lat="48.34162" lon="7.38658">
        <ele>399.4</ele>
        <time>2021-08-03T15:06:15Z</time>
      </trkpt>
      <trkpt lat="48.34157" lon="7.38657">
        <ele>399.9</ele>
        <time>2021-08-03T15:06:16Z</time>
      </trkpt>
      <trkpt lat="48.3415" lon="7.38655">
        <ele>400.5</ele>
        <time>2021-08-03T15:06:17Z</time>
      </trkpt>
      <trkpt lat="48.34142" lon="7.38652">
        <ele>401.2</ele>
        <time>2021-08-03T15:06:19Z</time>
      </trkpt>
      <trkpt lat="48.34138" lon="7.3865">
        <ele>401.6</ele>
        <time>2021-08-03T15:06:20Z</time>
      </trkpt>
      <trkpt lat="48.34134" lon="7.38649">
        <ele>402</ele>
        <time>2021-08-03T15:06:21Z</time>
      </trkpt>
      <trkpt lat="48.34128" lon="7.38648">
        <ele>402.5</ele>
        <time>2021-08-03T15:06:23Z</time>
      </trkpt>
      <trkpt lat="48.34124" lon="7.38646">
        <ele>402.8</ele>
        <time>2021-08-03T15:06:24Z</time>
      </trkpt>
      <trkpt lat="48.34122" lon="7.38646">
        <ele>402.9</ele>
        <time>2021-08-03T15:06:25Z</time>
      </trkpt>
      <trkpt lat="48.34122" lon="7.38646">
        <ele>403</ele>
        <time>2021-08-03T15:06:27Z</time>
      </trkpt>
      <trkpt lat="48.34121" lon="7.38646">
        <ele>403</ele>
        <time>2021-08-03T15:06:29Z</time>
      </trkpt>
      <trkpt lat="48.34121" lon="7.38646">
        <ele>403</ele>
        <time>2021-08-03T15:06:31Z</time>
      </trkpt>
      <trkpt lat="48.34121" lon="7.38645">
        <ele>403.1</ele>
        <time>2021-08-03T15:06:32Z</time>
      </trkpt>
      <trkpt lat="48.34121" lon="7.38645">
        <ele>403.1</ele>
        <time>2021-08-03T15:06:33Z</time>
      </trkpt>
      <trkpt lat="48.3412" lon="7.38645">
        <ele>403.1</ele>
        <time>2021-08-03T15:06:35Z</time>
      </trkpt>
      <trkpt lat="48.3412" lon="7.38645">
        <ele>403.1</ele>
        <time>2021-08-03T15:06:37Z</time>
      </trkpt>
      <trkpt lat="48.3412" lon="7.38645">
        <ele>403.2</ele>
        <time>2021-08-03T15:06:38Z</time>
      </trkpt>
      <trkpt lat="48.34119" lon="7.38645">
        <ele>403.2</ele>
        <time>2021-08-03T15:06:39Z</time>
      </trkpt>
      <trkpt lat="48.34119" lon="7.38644">
        <ele>403.2</ele>
        <time>2021-08-03T15:06:40Z</time>
      </trkpt>
      <trkpt lat="48.34119" lon="7.38644">
        <ele>403.2</ele>
        <time>2021-08-03T15:06:42Z</time>
      </trkpt>
      <trkpt lat="48.34119" lon="7.38644">
        <ele>403.3</ele>
        <time>2021-08-03T15:06:43Z</time>
      </trkpt>
      <trkpt lat="48.34117" lon="7.38644">
        <ele>403.4</ele>
        <time>2021-08-03T15:06:44Z</time>
      </trkpt>
      <trkpt lat="48.34114" lon="7.38644">
        <ele>403.6</ele>
        <time>2021-08-03T15:06:46Z</time>
      </trkpt>
      <trkpt lat="48.34112" lon="7.38644">
        <ele>403.8</ele>
        <time>2021-08-03T15:06:47Z</time>
      </trkpt>
      <trkpt lat="48.34109" lon="7.38646">
        <ele>404</ele>
        <time>2021-08-03T15:06:49Z</time>
      </trkpt>
      <trkpt lat="48.34108" lon="7.38647">
        <ele>404</ele>
        <time>2021-08-03T15:06:50Z</time>
      </trkpt>
      <trkpt lat="48.34107" lon="7.38648">
        <ele>404.1</ele>
        <time>2021-08-03T15:06:51Z</time>
      </trkpt>
      <trkpt lat="48.34105" lon="7.3865">
        <ele>404.2</ele>
        <time>2021-08-03T15:06:53Z</time>
      </trkpt>
      <trkpt lat="48.34104" lon="7.38651">
        <ele>404.3</ele>
        <time>2021-08-03T15:06:54Z</time>
      </trkpt>
      <trkpt lat="48.34103" lon="7.38652">
        <ele>404.4</ele>
        <time>2021-08-03T15:06:55Z</time>
      </trkpt>
      <trkpt lat="48.34103" lon="7.38651">
        <ele>404.4</ele>
        <time>2021-08-03T15:06:56Z</time>
      </trkpt>
      <trkpt lat="48.34103" lon="7.38652">
        <ele>404.4</ele>
        <time>2021-08-03T15:06:57Z</time>
      </trkpt>
      <trkpt lat="48.34101" lon="7.38656">
        <ele>404.6</ele>
        <time>2021-08-03T15:06:59Z</time>
      </trkpt>
      <trkpt lat="48.34101" lon="7.38658">
        <ele>404.6</ele>
        <time>2021-08-03T15:07:00Z</time>
      </trkpt>
      <trkpt lat="48.341" lon="7.38659">
        <ele>404.6</ele>
        <time>2021-08-03T15:07:02Z</time>
      </trkpt>
      <trkpt lat="48.341" lon="7.3866">
        <ele>404.7</ele>
        <time>2021-08-03T15:07:03Z</time>
      </trkpt>
      <trkpt lat="48.341" lon="7.38662">
        <ele>404.7</ele>
        <time>2021-08-03T15:07:05Z</time>
      </trkpt>
      <trkpt lat="48.341" lon="7.38665">
        <ele>404.8</ele>
        <time>2021-08-03T15:07:06Z</time>
      </trkpt>
      <trkpt lat="48.34101" lon="7.38666">
        <ele>404.8</ele>
        <time>2021-08-03T15:07:07Z</time>
      </trkpt>
      <trkpt lat="48.34101" lon="7.38667">
        <ele>404.8</ele>
        <time>2021-08-03T15:07:08Z</time>
      </trkpt>
      <trkpt lat="48.34101" lon="7.38668">
        <ele>404.9</ele>
        <time>2021-08-03T15:07:09Z</time>
      </trkpt>
      <trkpt lat="48.34104" lon="7.38674">
        <ele>405</ele>
        <time>2021-08-03T15:07:11Z</time>
      </trkpt>
      <trkpt lat="48.34104" lon="7.38676">
        <ele>405</ele>
        <time>2021-08-03T15:07:13Z</time>
      </trkpt>
      <trkpt lat="48.34105" lon="7.38679">
        <ele>405.1</ele>
        <time>2021-08-03T15:07:14Z</time>
      </trkpt>
      <trkpt lat="48.34105" lon="7.38681">
        <ele>405.1</ele>
        <time>2021-08-03T15:07:15Z</time>
      </trkpt>
      <trkpt lat="48.34106" lon="7.38686">
        <ele>405.1</ele>
        <time>2021-08-03T15:07:16Z</time>
      </trkpt>
      <trkpt lat="48.34106" lon="7.38687">
        <ele>405.2</ele>
        <time>2021-08-03T15:07:17Z</time>
      </trkpt>
      <trkpt lat="48.34106" lon="7.38693">
        <ele>405.2</ele>
        <time>2021-08-03T15:07:19Z</time>
      </trkpt>
      <trkpt lat="48.34106" lon="7.38699">
        <ele>405.3</ele>
        <time>2021-08-03T15:07:21Z</time>
      </trkpt>
      <trkpt lat="48.34107" lon="7.38703">
        <ele>405.4</ele>
        <time>2021-08-03T15:07:22Z</time>
      </trkpt>
      <trkpt lat="48.34108" lon="7.38705">
        <ele>405.4</ele>
        <time>2021-08-03T15:07:23Z</time>
      </trkpt>
      <trkpt lat="48.34108" lon="7.38706">
        <ele>405.4</ele>
        <time>2021-08-03T15:07:25Z</time>
      </trkpt>
      <trkpt lat="48.34108" lon="7.38709">
        <ele>405.4</ele>
        <time>2021-08-03T15:07:27Z</time>
      </trkpt>
      <trkpt lat="48.34108" lon="7.3871">
        <ele>405.5</ele>
        <time>2021-08-03T15:07:29Z</time>
      </trkpt>
      <trkpt lat="48.34109" lon="7.38713">
        <ele>405.5</ele>
        <time>2021-08-03T15:07:31Z</time>
      </trkpt>
      <trkpt lat="48.34109" lon="7.38717">
        <ele>405.6</ele>
        <time>2021-08-03T15:07:33Z</time>
      </trkpt>
      <trkpt lat="48.34107" lon="7.3873">
        <ele>405.7</ele>
        <time>2021-08-03T15:07:36Z</time>
      </trkpt>
      <trkpt lat="48.34105" lon="7.38737">
        <ele>405.8</ele>
        <time>2021-08-03T15:07:37Z</time>
      </trkpt>
      <trkpt lat="48.34103" lon="7.38745">
        <ele>405.9</ele>
        <time>2021-08-03T15:07:38Z</time>
      </trkpt>
      <trkpt lat="48.34101" lon="7.38753">
        <ele>406</ele>
        <time>2021-08-03T15:07:39Z</time>
      </trkpt>
      <trkpt lat="48.34098" lon="7.38767">
        <ele>406.1</ele>
        <time>2021-08-03T15:07:40Z</time>
      </trkpt>
      <trkpt lat="48.34096" lon="7.38779">
        <ele>406.2</ele>
        <time>2021-08-03T15:07:42Z</time>
      </trkpt>
      <trkpt lat="48.34094" lon="7.38786">
        <ele>406.3</ele>
        <time>2021-08-03T15:07:43Z</time>
      </trkpt>
      <trkpt lat="48.34092" lon="7.38796">
        <ele>406.4</ele>
        <time>2021-08-03T15:07:44Z</time>
      </trkpt>
      <trkpt lat="48.3409" lon="7.38803">
        <ele>406.5</ele>
        <time>2021-08-03T15:07:45Z</time>
      </trkpt>
      <trkpt lat="48.34087" lon="7.38814">
        <ele>406.6</ele>
        <time>2021-08-03T15:07:47Z</time>
      </trkpt>
      <trkpt lat="48.34086" lon="7.38821">
        <ele>406.7</ele>
        <time>2021-08-03T15:07:48Z</time>
      </trkpt>
      <trkpt lat="48.34083" lon="7.38835">
        <ele>406.8</ele>
        <time>2021-08-03T15:07:50Z</time>
      </trkpt>
      <trkpt lat="48.3408" lon="7.38856">
        <ele>407.1</ele>
        <time>2021-08-03T15:07:52Z</time>
      </trkpt>
      <trkpt lat="48.34079" lon="7.38865">
        <ele>407.2</ele>
        <time>2021-08-03T15:07:53Z</time>
      </trkpt>
      <trkpt lat="48.34077" lon="7.38873">
        <ele>407.3</ele>
        <time>2021-08-03T15:07:54Z</time>
      </trkpt>
      <trkpt lat="48.34077" lon="7.38888">
        <ele>407.4</ele>
        <time>2021-08-03T15:07:56Z</time>
      </trkpt>
      <trkpt lat="48.34076" lon="7.389">
        <ele>407.6</ele>
        <time>2021-08-03T15:07:57Z</time>
      </trkpt>
      <trkpt lat="48.34076" lon="7.38911">
        <ele>407.7</ele>
        <time>2021-08-03T15:07:59Z</time>
      </trkpt>
      <trkpt lat="48.34075" lon="7.3892">
        <ele>407.8</ele>
        <time>2021-08-03T15:08:01Z</time>
      </trkpt>
      <trkpt lat="48.34075" lon="7.38925">
        <ele>407.8</ele>
        <time>2021-08-03T15:08:02Z</time>
      </trkpt>
      <trkpt lat="48.34076" lon="7.38931">
        <ele>407.9</ele>
        <time>2021-08-03T15:08:03Z</time>
      </trkpt>
      <trkpt lat="48.34076" lon="7.3894">
        <ele>408</ele>
        <time>2021-08-03T15:08:05Z</time>
      </trkpt>
      <trkpt lat="48.34075" lon="7.38946">
        <ele>408.1</ele>
        <time>2021-08-03T15:08:06Z</time>
      </trkpt>
      <trkpt lat="48.34075" lon="7.38952">
        <ele>408.2</ele>
        <time>2021-08-03T15:08:07Z</time>
      </trkpt>
      <trkpt lat="48.34075" lon="7.3896">
        <ele>408.3</ele>
        <time>2021-08-03T15:08:08Z</time>
      </trkpt>
      <trkpt lat="48.34076" lon="7.3897">
        <ele>408.3</ele>
        <time>2021-08-03T15:08:10Z</time>
      </trkpt>
      <trkpt lat="48.34077" lon="7.38976">
        <ele>408.4</ele>
        <time>2021-08-03T15:08:11Z</time>
      </trkpt>
      <trkpt lat="48.34077" lon="7.38978">
        <ele>408.4</ele>
        <time>2021-08-03T15:08:12Z</time>
      </trkpt>
      <trkpt lat="48.34077" lon="7.38984">
        <ele>408.5</ele>
        <time>2021-08-03T15:08:13Z</time>
      </trkpt>
      <trkpt lat="48.34078" lon="7.38996">
        <ele>408.6</ele>
        <time>2021-08-03T15:08:15Z</time>
      </trkpt>
      <trkpt lat="48.3408" lon="7.39001">
        <ele>408.6</ele>
        <time>2021-08-03T15:08:16Z</time>
      </trkpt>
      <trkpt lat="48.34082" lon="7.39007">
        <ele>408.7</ele>
        <time>2021-08-03T15:08:17Z</time>
      </trkpt>
      <trkpt lat="48.34085" lon="7.39014">
        <ele>408.7</ele>
        <time>2021-08-03T15:08:18Z</time>
      </trkpt>
      <trkpt lat="48.34089" lon="7.3903">
        <ele>408.8</ele>
        <time>2021-08-03T15:08:20Z</time>
      </trkpt>
      <trkpt lat="48.34089" lon="7.39036">
        <ele>408.8</ele>
        <time>2021-08-03T15:08:21Z</time>
      </trkpt>
      <trkpt lat="48.34089" lon="7.39041">
        <ele>408.8</ele>
        <time>2021-08-03T15:08:22Z</time>
      </trkpt>
      <trkpt lat="48.3409" lon="7.39048">
        <ele>408.8</ele>
        <time>2021-08-03T15:08:23Z</time>
      </trkpt>
      <trkpt lat="48.3409" lon="7.39054">
        <ele>408.8</ele>
        <time>2021-08-03T15:08:24Z</time>
      </trkpt>
      <trkpt lat="48.3409" lon="7.39064">
        <ele>408.8</ele>
        <time>2021-08-03T15:08:26Z</time>
      </trkpt>
      <trkpt lat="48.34089" lon="7.3907">
        <ele>408.8</ele>
        <time>2021-08-03T15:08:27Z</time>
      </trkpt>
      <trkpt lat="48.34088" lon="7.3908">
        <ele>408.8</ele>
        <time>2021-08-03T15:08:29Z</time>
      </trkpt>
      <trkpt lat="48.34087" lon="7.3909">
        <ele>408.8</ele>
        <time>2021-08-03T15:08:31Z</time>
      </trkpt>
      <trkpt lat="48.34084" lon="7.39095">
        <ele>408.8</ele>
        <time>2021-08-03T15:08:32Z</time>
      </trkpt>
      <trkpt lat="48.34081" lon="7.39104">
        <ele>408.8</ele>
        <time>2021-08-03T15:08:33Z</time>
      </trkpt>
      <trkpt lat="48.34077" lon="7.39109">
        <ele>408.7</ele>
        <time>2021-08-03T15:08:35Z</time>
      </trkpt>
      <trkpt lat="48.34074" lon="7.39112">
        <ele>408.7</ele>
        <time>2021-08-03T15:08:36Z</time>
      </trkpt>
      <trkpt lat="48.34071" lon="7.39112">
        <ele>408.7</ele>
        <time>2021-08-03T15:08:37Z</time>
      </trkpt>
      <trkpt lat="48.3407" lon="7.39112">
        <ele>408.7</ele>
        <time>2021-08-03T15:08:38Z</time>
      </trkpt>
      <trkpt lat="48.34067" lon="7.39112">
        <ele>406.3</ele>
        <time>2021-08-03T15:08:39Z</time>
      </trkpt>
      <trkpt lat="48.34063" lon="7.39111">
        <ele>406.4</ele>
        <time>2021-08-03T15:08:41Z</time>
      </trkpt>
      <trkpt lat="48.34061" lon="7.39111">
        <ele>406.4</ele>
        <time>2021-08-03T15:08:42Z</time>
      </trkpt>
      <trkpt lat="48.3406" lon="7.39111">
        <ele>406.4</ele>
        <time>2021-08-03T15:08:44Z</time>
      </trkpt>
      <trkpt lat="48.34059" lon="7.3911">
        <ele>406.4</ele>
        <time>2021-08-03T15:08:45Z</time>
      </trkpt>
      <trkpt lat="48.34058" lon="7.3911">
        <ele>406.4</ele>
        <time>2021-08-03T15:08:46Z</time>
      </trkpt>
      <trkpt lat="48.34055" lon="7.39109">
        <ele>406.4</ele>
        <time>2021-08-03T15:08:48Z</time>
      </trkpt>
      <trkpt lat="48.34054" lon="7.39109">
        <ele>406.4</ele>
        <time>2021-08-03T15:08:49Z</time>
      </trkpt>
      <trkpt lat="48.34052" lon="7.39109">
        <ele>406.5</ele>
        <time>2021-08-03T15:08:51Z</time>
      </trkpt>
      <trkpt lat="48.34049" lon="7.3911">
        <ele>406.5</ele>
        <time>2021-08-03T15:08:52Z</time>
      </trkpt>
      <trkpt lat="48.34047" lon="7.3911">
        <ele>406.5</ele>
        <time>2021-08-03T15:08:53Z</time>
      </trkpt>
      <trkpt lat="48.34044" lon="7.39111">
        <ele>406.6</ele>
        <time>2021-08-03T15:08:55Z</time>
      </trkpt>
      <trkpt lat="48.34043" lon="7.39112">
        <ele>406.6</ele>
        <time>2021-08-03T15:08:56Z</time>
      </trkpt>
      <trkpt lat="48.3404" lon="7.39115">
        <ele>406.7</ele>
        <time>2021-08-03T15:08:58Z</time>
      </trkpt>
      <trkpt lat="48.34038" lon="7.39116">
        <ele>406.8</ele>
        <time>2021-08-03T15:08:59Z</time>
      </trkpt>
      <trkpt lat="48.34038" lon="7.39116">
        <ele>406.8</ele>
        <time>2021-08-03T15:09:01Z</time>
      </trkpt>
      <trkpt lat="48.34037" lon="7.39116">
        <ele>406.8</ele>
        <time>2021-08-03T15:09:03Z</time>
      </trkpt>
      <trkpt lat="48.34035" lon="7.39115">
        <ele>406.9</ele>
        <time>2021-08-03T15:09:05Z</time>
      </trkpt>
      <trkpt lat="48.3396" lon="7.39052">
        <ele>412.4</ele>
        <time>2021-08-03T15:09:59Z</time>
      </trkpt>
      <trkpt lat="48.33957" lon="7.3905">
        <ele>412.5</ele>
        <time>2021-08-03T15:10:00Z</time>
      </trkpt>
      <trkpt lat="48.33952" lon="7.39048">
        <ele>412.9</ele>
        <time>2021-08-03T15:10:02Z</time>
      </trkpt>
      <trkpt lat="48.33946" lon="7.39047">
        <ele>413.3</ele>
        <time>2021-08-03T15:10:04Z</time>
      </trkpt>
      <trkpt lat="48.33941" lon="7.39046">
        <ele>413.7</ele>
        <time>2021-08-03T15:10:06Z</time>
      </trkpt>
      <trkpt lat="48.33935" lon="7.39046">
        <ele>414.2</ele>
        <time>2021-08-03T15:10:08Z</time>
      </trkpt>
      <trkpt lat="48.33927" lon="7.39044">
        <ele>414.8</ele>
        <time>2021-08-03T15:10:10Z</time>
      </trkpt>
      <trkpt lat="48.33922" lon="7.39041">
        <ele>415.3</ele>
        <time>2021-08-03T15:10:11Z</time>
      </trkpt>
      <trkpt lat="48.33917" lon="7.39038">
        <ele>415.7</ele>
        <time>2021-08-03T15:10:13Z</time>
      </trkpt>
      <trkpt lat="48.33912" lon="7.39034">
        <ele>416.2</ele>
        <time>2021-08-03T15:10:14Z</time>
      </trkpt>
      <trkpt lat="48.33907" lon="7.39031">
        <ele>416.7</ele>
        <time>2021-08-03T15:10:15Z</time>
      </trkpt>
      <trkpt lat="48.33902" lon="7.39028">
        <ele>417.1</ele>
        <time>2021-08-03T15:10:16Z</time>
      </trkpt>
      <trkpt lat="48.33897" lon="7.39025">
        <ele>417.5</ele>
        <time>2021-08-03T15:10:18Z</time>
      </trkpt>
      <trkpt lat="48.33892" lon="7.39022">
        <ele>418</ele>
        <time>2021-08-03T15:11:02Z</time>
      </trkpt>
      <trkpt lat="48.33887" lon="7.39019">
        <ele>418.4</ele>
        <time>2021-08-03T15:11:03Z</time>
      </trkpt>
      <trkpt lat="48.33884" lon="7.39018">
        <ele>418.7</ele>
        <time>2021-08-03T15:11:05Z</time>
      </trkpt>
      <trkpt lat="48.33882" lon="7.39018">
        <ele>418.8</ele>
        <time>2021-08-03T15:11:06Z</time>
      </trkpt>
      <trkpt lat="48.33879" lon="7.39021">
        <ele>419.1</ele>
        <time>2021-08-03T15:11:08Z</time>
      </trkpt>
      <trkpt lat="48.33878" lon="7.39022">
        <ele>419.1</ele>
        <time>2021-08-03T15:11:09Z</time>
      </trkpt>
      <trkpt lat="48.33876" lon="7.39023">
        <ele>419.4</ele>
        <time>2021-08-03T15:11:10Z</time>
      </trkpt>
      <trkpt lat="48.33875" lon="7.39023">
        <ele>419.4</ele>
        <time>2021-08-03T15:11:12Z</time>
      </trkpt>
      <trkpt lat="48.33872" lon="7.39024">
        <ele>419.6</ele>
        <time>2021-08-03T15:11:13Z</time>
      </trkpt>
      <trkpt lat="48.33871" lon="7.39024">
        <ele>419.7</ele>
        <time>2021-08-03T15:11:14Z</time>
      </trkpt>
      <trkpt lat="48.3387" lon="7.39025">
        <ele>419.8</ele>
        <time>2021-08-03T15:11:16Z</time>
      </trkpt>
      <trkpt lat="48.33869" lon="7.39025">
        <ele>419.9</ele>
        <time>2021-08-03T15:11:17Z</time>
      </trkpt>
      <trkpt lat="48.33867" lon="7.39025">
        <ele>420</ele>
        <time>2021-08-03T15:11:18Z</time>
      </trkpt>
      <trkpt lat="48.33864" lon="7.39026">
        <ele>420.3</ele>
        <time>2021-08-03T15:11:20Z</time>
      </trkpt>
      <trkpt lat="48.33831" lon="7.39055">
        <ele>423.1</ele>
        <time>2021-08-03T15:12:08Z</time>
      </trkpt>
      <trkpt lat="48.33829" lon="7.39057">
        <ele>423.3</ele>
        <time>2021-08-03T15:12:09Z</time>
      </trkpt>
      <trkpt lat="48.33825" lon="7.39061">
        <ele>423.6</ele>
        <time>2021-08-03T15:12:10Z</time>
      </trkpt>
      <trkpt lat="48.33823" lon="7.39065">
        <ele>423.9</ele>
        <time>2021-08-03T15:12:12Z</time>
      </trkpt>
      <trkpt lat="48.3382" lon="7.39069">
        <ele>424.1</ele>
        <time>2021-08-03T15:12:13Z</time>
      </trkpt>
      <trkpt lat="48.33819" lon="7.39071">
        <ele>424.3</ele>
        <time>2021-08-03T15:12:14Z</time>
      </trkpt>
      <trkpt lat="48.33818" lon="7.39072">
        <ele>424.4</ele>
        <time>2021-08-03T15:12:15Z</time>
      </trkpt>
      <trkpt lat="48.33817" lon="7.39073">
        <ele>424.5</ele>
        <time>2021-08-03T15:12:16Z</time>
      </trkpt>
      <trkpt lat="48.33816" lon="7.39075">
        <ele>424.6</ele>
        <time>2021-08-03T15:12:18Z</time>
      </trkpt>
      <trkpt lat="48.33816" lon="7.39076">
        <ele>424.7</ele>
        <time>2021-08-03T15:12:20Z</time>
      </trkpt>
      <trkpt lat="48.33815" lon="7.39077">
        <ele>424.8</ele>
        <time>2021-08-03T15:12:21Z</time>
      </trkpt>
      <trkpt lat="48.33815" lon="7.39078">
        <ele>424.8</ele>
        <time>2021-08-03T15:12:23Z</time>
      </trkpt>
      <trkpt lat="48.33814" lon="7.39078">
        <ele>424.8</ele>
        <time>2021-08-03T15:12:24Z</time>
      </trkpt>
      <trkpt lat="48.33814" lon="7.39078">
        <ele>424.8</ele>
        <time>2021-08-03T15:12:25Z</time>
      </trkpt>
      <trkpt lat="48.3373" lon="7.39054">
        <ele>431.3</ele>
        <time>2021-08-03T15:13:36Z</time>
      </trkpt>
      <trkpt lat="48.33728" lon="7.39054">
        <ele>431.4</ele>
        <time>2021-08-03T15:13:37Z</time>
      </trkpt>
      <trkpt lat="48.33727" lon="7.39054">
        <ele>431.5</ele>
        <time>2021-08-03T15:13:38Z</time>
      </trkpt>
      <trkpt lat="48.33725" lon="7.39054">
        <ele>431.6</ele>
        <time>2021-08-03T15:13:39Z</time>
      </trkpt>
      <trkpt lat="48.33724" lon="7.39054">
        <ele>431.8</ele>
        <time>2021-08-03T15:13:40Z</time>
      </trkpt>
      <trkpt lat="48.33723" lon="7.39054">
        <ele>431.8</ele>
        <time>2021-08-03T15:13:42Z</time>
      </trkpt>
      <trkpt lat="48.33722" lon="7.39054">
        <ele>431.9</ele>
        <time>2021-08-03T15:13:44Z</time>
      </trkpt>
      <trkpt lat="48.33722" lon="7.39053">
        <ele>431.9</ele>
        <time>2021-08-03T15:13:46Z</time>
      </trkpt>
      <trkpt lat="48.33722" lon="7.39053">
        <ele>432</ele>
        <time>2021-08-03T15:13:47Z</time>
      </trkpt>
      <trkpt lat="48.33721" lon="7.39053">
        <ele>432</ele>
        <time>2021-08-03T15:13:48Z</time>
      </trkpt>
      <trkpt lat="48.33721" lon="7.39053">
        <ele>432</ele>
        <time>2021-08-03T15:13:49Z</time>
      </trkpt>
      <trkpt lat="48.33721" lon="7.39053">
        <ele>432</ele>
        <time>2021-08-03T15:13:51Z</time>
      </trkpt>
      <trkpt lat="48.33702" lon="7.39064">
        <ele>433.4</ele>
        <time>2021-08-03T15:14:04Z</time>
      </trkpt>
      <trkpt lat="48.33699" lon="7.39069">
        <ele>433.7</ele>
        <time>2021-08-03T15:14:06Z</time>
      </trkpt>
      <trkpt lat="48.33696" lon="7.39073">
        <ele>433.9</ele>
        <time>2021-08-03T15:14:07Z</time>
      </trkpt>
      <trkpt lat="48.33694" lon="7.39076">
        <ele>434.1</ele>
        <time>2021-08-03T15:14:09Z</time>
      </trkpt>
      <trkpt lat="48.33692" lon="7.39079">
        <ele>434.4</ele>
        <time>2021-08-03T15:14:10Z</time>
      </trkpt>
      <trkpt lat="48.33689" lon="7.39085">
        <ele>434.7</ele>
        <time>2021-08-03T15:14:12Z</time>
      </trkpt>
      <trkpt lat="48.33688" lon="7.39087">
        <ele>434.8</ele>
        <time>2021-08-03T15:14:13Z</time>
      </trkpt>
      <trkpt lat="48.33688" lon="7.39089">
        <ele>434.9</ele>
        <time>2021-08-03T15:14:14Z</time>
      </trkpt>
      <trkpt lat="48.33687" lon="7.3909">
        <ele>435</ele>
        <time>2021-08-03T15:14:16Z</time>
      </trkpt>
      <trkpt lat="48.33686" lon="7.39092">
        <ele>435.1</ele>
        <time>2021-08-03T15:14:17Z</time>
      </trkpt>
      <trkpt lat="48.33684" lon="7.39094">
        <ele>435.3</ele>
        <time>2021-08-03T15:14:18Z</time>
      </trkpt>
      <trkpt lat="48.33684" lon="7.39095">
        <ele>435.4</ele>
        <time>2021-08-03T15:14:19Z</time>
      </trkpt>
      <trkpt lat="48.33683" lon="7.39096">
        <ele>435.4</ele>
        <time>2021-08-03T15:14:20Z</time>
      </trkpt>
      <trkpt lat="48.33681" lon="7.39098">
        <ele>435.6</ele>
        <time>2021-08-03T15:14:21Z</time>
      </trkpt>
      <trkpt lat="48.33678" lon="7.39102">
        <ele>435.8</ele>
        <time>2021-08-03T15:14:23Z</time>
      </trkpt>
      <trkpt lat="48.33677" lon="7.39104">
        <ele>436</ele>
        <time>2021-08-03T15:14:25Z</time>
      </trkpt>
      <trkpt lat="48.33677" lon="7.39104">
        <ele>436</ele>
        <time>2021-08-03T15:14:27Z</time>
      </trkpt>
      <trkpt lat="48.33677" lon="7.39104">
        <ele>436</ele>
        <time>2021-08-03T15:14:28Z</time>
      </trkpt>
      <trkpt lat="48.33678" lon="7.39105">
        <ele>436</ele>
        <time>2021-08-03T15:14:29Z</time>
      </trkpt>
      <trkpt lat="48.33678" lon="7.39107">
        <ele>436.1</ele>
        <time>2021-08-03T15:14:31Z</time>
      </trkpt>
      <trkpt lat="48.33679" lon="7.39109">
        <ele>436.2</ele>
        <time>2021-08-03T15:14:33Z</time>
      </trkpt>
      <trkpt lat="48.33679" lon="7.3911">
        <ele>436.2</ele>
        <time>2021-08-03T15:14:34Z</time>
      </trkpt>
      <trkpt lat="48.33678" lon="7.39111">
        <ele>436.3</ele>
        <time>2021-08-03T15:14:35Z</time>
      </trkpt>
      <trkpt lat="48.33672" lon="7.39128">
        <ele>436.9</ele>
        <time>2021-08-03T15:14:43Z</time>
      </trkpt>
      <trkpt lat="48.3367" lon="7.39134">
        <ele>437.1</ele>
        <time>2021-08-03T15:14:45Z</time>
      </trkpt>
      <trkpt lat="48.33667" lon="7.39137">
        <ele>437.2</ele>
        <time>2021-08-03T15:14:46Z</time>
      </trkpt>
      <trkpt lat="48.33665" lon="7.39142">
        <ele>437.4</ele>
        <time>2021-08-03T15:14:47Z</time>
      </trkpt>
      <trkpt lat="48.33665" lon="7.39147">
        <ele>437.5</ele>
        <time>2021-08-03T15:14:49Z</time>
      </trkpt>
      <trkpt lat="48.33665" lon="7.3915">
        <ele>437.6</ele>
        <time>2021-08-03T15:14:50Z</time>
      </trkpt>
      <trkpt lat="48.33661" lon="7.39157">
        <ele>437.8</ele>
        <time>2021-08-03T15:14:52Z</time>
      </trkpt>
      <trkpt lat="48.33657" lon="7.39164">
        <ele>438</ele>
        <time>2021-08-03T15:14:54Z</time>
      </trkpt>
      <trkpt lat="48.33654" lon="7.39171">
        <ele>438.2</ele>
        <time>2021-08-03T15:14:56Z</time>
      </trkpt>
      <trkpt lat="48.33653" lon="7.39174">
        <ele>438.3</ele>
        <time>2021-08-03T15:14:58Z</time>
      </trkpt>
      <trkpt lat="48.33656" lon="7.39172">
        <ele>438.3</ele>
        <time>2021-08-03T15:15:00Z</time>
      </trkpt>
      <trkpt lat="48.33656" lon="7.39172">
        <ele>438.4</ele>
        <time>2021-08-03T15:15:01Z</time>
      </trkpt>
      <trkpt lat="48.33657" lon="7.39173">
        <ele>438.4</ele>
        <time>2021-08-03T15:15:02Z</time>
      </trkpt>
      <trkpt lat="48.33656" lon="7.39178">
        <ele>438.5</ele>
        <time>2021-08-03T15:15:04Z</time>
      </trkpt>
      <trkpt lat="48.33656" lon="7.39181">
        <ele>438.5</ele>
        <time>2021-08-03T15:15:06Z</time>
      </trkpt>
      <trkpt lat="48.33649" lon="7.3919">
        <ele>438.8</ele>
        <time>2021-08-03T15:15:12Z</time>
      </trkpt>
      <trkpt lat="48.33646" lon="7.39192">
        <ele>438.8</ele>
        <time>2021-08-03T15:15:13Z</time>
      </trkpt>
      <trkpt lat="48.33641" lon="7.39196">
        <ele>439</ele>
        <time>2021-08-03T15:15:15Z</time>
      </trkpt>
      <trkpt lat="48.33635" lon="7.392">
        <ele>439.2</ele>
        <time>2021-08-03T15:15:17Z</time>
      </trkpt>
      <trkpt lat="48.33633" lon="7.39201">
        <ele>439.3</ele>
        <time>2021-08-03T15:15:18Z</time>
      </trkpt>
      <trkpt lat="48.33629" lon="7.39204">
        <ele>439.4</ele>
        <time>2021-08-03T15:15:20Z</time>
      </trkpt>
      <trkpt lat="48.33622" lon="7.39207">
        <ele>439.7</ele>
        <time>2021-08-03T15:15:22Z</time>
      </trkpt>
      <trkpt lat="48.33617" lon="7.39209">
        <ele>439.8</ele>
        <time>2021-08-03T15:15:24Z</time>
      </trkpt>
      <trkpt lat="48.33614" lon="7.39211">
        <ele>440</ele>
        <time>2021-08-03T15:15:25Z</time>
      </trkpt>
      <trkpt lat="48.33613" lon="7.39211">
        <ele>440</ele>
        <time>2021-08-03T15:15:26Z</time>
      </trkpt>
      <trkpt lat="48.33609" lon="7.39214">
        <ele>440.2</ele>
        <time>2021-08-03T15:15:27Z</time>
      </trkpt>
      <trkpt lat="48.33607" lon="7.39217">
        <ele>440.3</ele>
        <time>2021-08-03T15:15:29Z</time>
      </trkpt>
      <trkpt lat="48.33604" lon="7.39221">
        <ele>440.4</ele>
        <time>2021-08-03T15:15:30Z</time>
      </trkpt>
      <trkpt lat="48.33601" lon="7.39223">
        <ele>440.6</ele>
        <time>2021-08-03T15:15:32Z</time>
      </trkpt>
      <trkpt lat="48.33596" lon="7.39226">
        <ele>440.7</ele>
        <time>2021-08-03T15:15:33Z</time>
      </trkpt>
      <trkpt lat="48.33594" lon="7.39229">
        <ele>440.8</ele>
        <time>2021-08-03T15:15:35Z</time>
      </trkpt>
      <trkpt lat="48.33593" lon="7.39231">
        <ele>440.9</ele>
        <time>2021-08-03T15:15:36Z</time>
      </trkpt>
      <trkpt lat="48.33591" lon="7.39233">
        <ele>441</ele>
        <time>2021-08-03T15:15:37Z</time>
      </trkpt>
      <trkpt lat="48.33589" lon="7.39239">
        <ele>441.1</ele>
        <time>2021-08-03T15:15:39Z</time>
      </trkpt>
      <trkpt lat="48.33587" lon="7.39242">
        <ele>441.2</ele>
        <time>2021-08-03T15:15:40Z</time>
      </trkpt>
      <trkpt lat="48.33583" lon="7.39248">
        <ele>441.3</ele>
        <time>2021-08-03T15:15:42Z</time>
      </trkpt>
      <trkpt lat="48.33581" lon="7.39252">
        <ele>441.3</ele>
        <time>2021-08-03T15:15:43Z</time>
      </trkpt>
      <trkpt lat="48.33579" lon="7.39256">
        <ele>441.4</ele>
        <time>2021-08-03T15:15:44Z</time>
      </trkpt>
      <trkpt lat="48.33576" lon="7.3926">
        <ele>441.4</ele>
        <time>2021-08-03T15:15:45Z</time>
      </trkpt>
      <trkpt lat="48.33571" lon="7.39264">
        <ele>441.5</ele>
        <time>2021-08-03T15:15:47Z</time>
      </trkpt>
      <trkpt lat="48.33567" lon="7.39267">
        <ele>441.5</ele>
        <time>2021-08-03T15:15:48Z</time>
      </trkpt>
      <trkpt lat="48.33562" lon="7.39269">
        <ele>441.5</ele>
        <time>2021-08-03T15:15:49Z</time>
      </trkpt>
      <trkpt lat="48.33557" lon="7.39268">
        <ele>441.6</ele>
        <time>2021-08-03T15:15:51Z</time>
      </trkpt>
      <trkpt lat="48.33553" lon="7.39266">
        <ele>441.6</ele>
        <time>2021-08-03T15:15:52Z</time>
      </trkpt>
      <trkpt lat="48.33548" lon="7.39263">
        <ele>441.7</ele>
        <time>2021-08-03T15:15:54Z</time>
      </trkpt>
      <trkpt lat="48.33544" lon="7.39261">
        <ele>441.8</ele>
        <time>2021-08-03T15:15:55Z</time>
      </trkpt>
      <trkpt lat="48.33543" lon="7.39261">
        <ele>441.8</ele>
        <time>2021-08-03T15:15:56Z</time>
      </trkpt>
      <trkpt lat="48.3354" lon="7.39257">
        <ele>441.9</ele>
        <time>2021-08-03T15:15:57Z</time>
      </trkpt>
      <trkpt lat="48.33539" lon="7.39256">
        <ele>441.9</ele>
        <time>2021-08-03T15:15:58Z</time>
      </trkpt>
      <trkpt lat="48.33537" lon="7.39251">
        <ele>442</ele>
        <time>2021-08-03T15:15:59Z</time>
      </trkpt>
      <trkpt lat="48.33536" lon="7.39248">
        <ele>442</ele>
        <time>2021-08-03T15:16:00Z</time>
      </trkpt>
      <trkpt lat="48.33534" lon="7.39245">
        <ele>442</ele>
        <time>2021-08-03T15:16:01Z</time>
      </trkpt>
      <trkpt lat="48.33532" lon="7.39241">
        <ele>442.1</ele>
        <time>2021-08-03T15:16:02Z</time>
      </trkpt>
      <trkpt lat="48.3353" lon="7.39237">
        <ele>442.1</ele>
        <time>2021-08-03T15:16:03Z</time>
      </trkpt>
      <trkpt lat="48.33528" lon="7.39233">
        <ele>442.1</ele>
        <time>2021-08-03T15:16:04Z</time>
      </trkpt>
      <trkpt lat="48.33526" lon="7.39225">
        <ele>442.2</ele>
        <time>2021-08-03T15:16:06Z</time>
      </trkpt>
      <trkpt lat="48.33525" lon="7.39219">
        <ele>442.2</ele>
        <time>2021-08-03T15:16:08Z</time>
      </trkpt>
      <trkpt lat="48.33523" lon="7.39215">
        <ele>442.2</ele>
        <time>2021-08-03T15:16:09Z</time>
      </trkpt>
      <trkpt lat="48.33521" lon="7.39209">
        <ele>442.2</ele>
        <time>2021-08-03T15:16:10Z</time>
      </trkpt>
      <trkpt lat="48.33518" lon="7.39202">
        <ele>442.2</ele>
        <time>2021-08-03T15:16:12Z</time>
      </trkpt>
      <trkpt lat="48.33516" lon="7.39198">
        <ele>442.2</ele>
        <time>2021-08-03T15:16:13Z</time>
      </trkpt>
      <trkpt lat="48.33513" lon="7.39189">
        <ele>442.3</ele>
        <time>2021-08-03T15:16:14Z</time>
      </trkpt>
      <trkpt lat="48.3351" lon="7.39182">
        <ele>442.3</ele>
        <time>2021-08-03T15:16:16Z</time>
      </trkpt>
      <trkpt lat="48.33507" lon="7.39177">
        <ele>442.3</ele>
        <time>2021-08-03T15:16:18Z</time>
      </trkpt>
      <trkpt lat="48.33505" lon="7.39172">
        <ele>442.3</ele>
        <time>2021-08-03T15:16:19Z</time>
      </trkpt>
      <trkpt lat="48.33502" lon="7.39165">
        <ele>442.3</ele>
        <time>2021-08-03T15:16:21Z</time>
      </trkpt>
      <trkpt lat="48.33497" lon="7.39157">
        <ele>442.4</ele>
        <time>2021-08-03T15:16:22Z</time>
      </trkpt>
      <trkpt lat="48.3349" lon="7.39154">
        <ele>442.4</ele>
        <time>2021-08-03T15:16:24Z</time>
      </trkpt>
      <trkpt lat="48.33485" lon="7.39154">
        <ele>442.4</ele>
        <time>2021-08-03T15:16:26Z</time>
      </trkpt>
      <trkpt lat="48.33481" lon="7.39154">
        <ele>442.5</ele>
        <time>2021-08-03T15:16:28Z</time>
      </trkpt>
      <trkpt lat="48.33479" lon="7.39154">
        <ele>442.5</ele>
        <time>2021-08-03T15:16:29Z</time>
      </trkpt>
      <trkpt lat="48.33478" lon="7.39154">
        <ele>442.6</ele>
        <time>2021-08-03T15:16:30Z</time>
      </trkpt>
      <trkpt lat="48.33475" lon="7.39154">
        <ele>442.6</ele>
        <time>2021-08-03T15:16:31Z</time>
      </trkpt>
      <trkpt lat="48.33472" lon="7.39153">
        <ele>442.7</ele>
        <time>2021-08-03T15:16:32Z</time>
      </trkpt>
      <trkpt lat="48.33468" lon="7.39152">
        <ele>442.8</ele>
        <time>2021-08-03T15:16:33Z</time>
      </trkpt>
      <trkpt lat="48.33463" lon="7.3915">
        <ele>443</ele>
        <time>2021-08-03T15:16:35Z</time>
      </trkpt>
      <trkpt lat="48.33459" lon="7.39149">
        <ele>443.1</ele>
        <time>2021-08-03T15:16:36Z</time>
      </trkpt>
      <trkpt lat="48.33454" lon="7.39149">
        <ele>443.3</ele>
        <time>2021-08-03T15:16:38Z</time>
      </trkpt>
      <trkpt lat="48.3345" lon="7.39148">
        <ele>443.5</ele>
        <time>2021-08-03T15:16:39Z</time>
      </trkpt>
      <trkpt lat="48.33447" lon="7.39147">
        <ele>443.6</ele>
        <time>2021-08-03T15:16:40Z</time>
      </trkpt>
      <trkpt lat="48.33444" lon="7.39145">
        <ele>443.7</ele>
        <time>2021-08-03T15:16:41Z</time>
      </trkpt>
      <trkpt lat="48.33442" lon="7.39143">
        <ele>443.8</ele>
        <time>2021-08-03T15:16:42Z</time>
      </trkpt>
      <trkpt lat="48.33441" lon="7.39142">
        <ele>443.8</ele>
        <time>2021-08-03T15:16:43Z</time>
      </trkpt>
      <trkpt lat="48.33437" lon="7.3914">
        <ele>444</ele>
        <time>2021-08-03T15:16:44Z</time>
      </trkpt>
      <trkpt lat="48.33436" lon="7.39139">
        <ele>444.1</ele>
        <time>2021-08-03T15:16:45Z</time>
      </trkpt>
      <trkpt lat="48.33434" lon="7.39136">
        <ele>444.2</ele>
        <time>2021-08-03T15:16:46Z</time>
      </trkpt>
      <trkpt lat="48.3343" lon="7.39133">
        <ele>444.3</ele>
        <time>2021-08-03T15:16:48Z</time>
      </trkpt>
      <trkpt lat="48.33429" lon="7.39132">
        <ele>444.4</ele>
        <time>2021-08-03T15:16:49Z</time>
      </trkpt>
      <trkpt lat="48.33426" lon="7.39131">
        <ele>444.5</ele>
        <time>2021-08-03T15:16:50Z</time>
      </trkpt>
      <trkpt lat="48.33424" lon="7.3913">
        <ele>444.6</ele>
        <time>2021-08-03T15:16:51Z</time>
      </trkpt>
      <trkpt lat="48.33421" lon="7.3913">
        <ele>444.6</ele>
        <time>2021-08-03T15:16:52Z</time>
      </trkpt>
      <trkpt lat="48.33417" lon="7.39127">
        <ele>444.8</ele>
        <time>2021-08-03T15:16:53Z</time>
      </trkpt>
      <trkpt lat="48.33415" lon="7.39125">
        <ele>444.9</ele>
        <time>2021-08-03T15:16:54Z</time>
      </trkpt>
      <trkpt lat="48.33413" lon="7.39121">
        <ele>445</ele>
        <time>2021-08-03T15:16:55Z</time>
      </trkpt>
      <trkpt lat="48.33412" lon="7.39119">
        <ele>445</ele>
        <time>2021-08-03T15:16:56Z</time>
      </trkpt>
      <trkpt lat="48.33409" lon="7.39115">
        <ele>445.1</ele>
        <time>2021-08-03T15:16:58Z</time>
      </trkpt>
      <trkpt lat="48.33406" lon="7.39112">
        <ele>445.2</ele>
        <time>2021-08-03T15:17:00Z</time>
      </trkpt>
      <trkpt lat="48.33405" lon="7.39111">
        <ele>445.3</ele>
        <time>2021-08-03T15:17:01Z</time>
      </trkpt>
      <trkpt lat="48.33402" lon="7.39109">
        <ele>445.4</ele>
        <time>2021-08-03T15:17:02Z</time>
      </trkpt>
      <trkpt lat="48.33401" lon="7.39109">
        <ele>445.4</ele>
        <time>2021-08-03T15:17:03Z</time>
      </trkpt>
      <trkpt lat="48.33398" lon="7.39108">
        <ele>445.5</ele>
        <time>2021-08-03T15:17:05Z</time>
      </trkpt>
      <trkpt lat="48.33395" lon="7.39107">
        <ele>445.6</ele>
        <time>2021-08-03T15:17:06Z</time>
      </trkpt>
      <trkpt lat="48.33393" lon="7.39105">
        <ele>445.7</ele>
        <time>2021-08-03T15:17:07Z</time>
      </trkpt>
      <trkpt lat="48.3339" lon="7.39101">
        <ele>445.8</ele>
        <time>2021-08-03T15:17:08Z</time>
      </trkpt>
      <trkpt lat="48.33389" lon="7.391">
        <ele>445.9</ele>
        <time>2021-08-03T15:17:09Z</time>
      </trkpt>
      <trkpt lat="48.33386" lon="7.39095">
        <ele>446</ele>
        <time>2021-08-03T15:17:10Z</time>
      </trkpt>
      <trkpt lat="48.33385" lon="7.39094">
        <ele>446</ele>
        <time>2021-08-03T15:17:11Z</time>
      </trkpt>
      <trkpt lat="48.33383" lon="7.3909">
        <ele>446.2</ele>
        <time>2021-08-03T15:17:12Z</time>
      </trkpt>
      <trkpt lat="48.33382" lon="7.39089">
        <ele>446.2</ele>
        <time>2021-08-03T15:17:13Z</time>
      </trkpt>
      <trkpt lat="48.3338" lon="7.39087">
        <ele>446.3</ele>
        <time>2021-08-03T15:17:14Z</time>
      </trkpt>
      <trkpt lat="48.33378" lon="7.39084">
        <ele>446.4</ele>
        <time>2021-08-03T15:17:16Z</time>
      </trkpt>
      <trkpt lat="48.33376" lon="7.39081">
        <ele>446.5</ele>
        <time>2021-08-03T15:17:17Z</time>
      </trkpt>
      <trkpt lat="48.33375" lon="7.39077">
        <ele>446.5</ele>
        <time>2021-08-03T15:17:18Z</time>
      </trkpt>
      <trkpt lat="48.33371" lon="7.39072">
        <ele>446.7</ele>
        <time>2021-08-03T15:17:20Z</time>
      </trkpt>
      <trkpt lat="48.33368" lon="7.39069">
        <ele>446.8</ele>
        <time>2021-08-03T15:17:21Z</time>
      </trkpt>
      <trkpt lat="48.33366" lon="7.39063">
        <ele>447</ele>
        <time>2021-08-03T15:17:22Z</time>
      </trkpt>
      <trkpt lat="48.33363" lon="7.39058">
        <ele>447.2</ele>
        <time>2021-08-03T15:17:23Z</time>
      </trkpt>
      <trkpt lat="48.33361" lon="7.39055">
        <ele>447.3</ele>
        <time>2021-08-03T15:17:24Z</time>
      </trkpt>
      <trkpt lat="48.3336" lon="7.39052">
        <ele>447.4</ele>
        <time>2021-08-03T15:17:25Z</time>
      </trkpt>
      <trkpt lat="48.33359" lon="7.3905">
        <ele>447.4</ele>
        <time>2021-08-03T15:17:27Z</time>
      </trkpt>
      <trkpt lat="48.3336" lon="7.3905">
        <ele>447.5</ele>
        <time>2021-08-03T15:17:28Z</time>
      </trkpt>
      <trkpt lat="48.33361" lon="7.39049">
        <ele>447.5</ele>
        <time>2021-08-03T15:17:29Z</time>
      </trkpt>
      <trkpt lat="48.33361" lon="7.39048">
        <ele>447.5</ele>
        <time>2021-08-03T15:17:31Z</time>
      </trkpt>
      <trkpt lat="48.33361" lon="7.39047">
        <ele>447.6</ele>
        <time>2021-08-03T15:17:32Z</time>
      </trkpt>
      <trkpt lat="48.33361" lon="7.39045">
        <ele>447.6</ele>
        <time>2021-08-03T15:17:33Z</time>
      </trkpt>
      <trkpt lat="48.33361" lon="7.39043">
        <ele>447.7</ele>
        <time>2021-08-03T15:17:35Z</time>
      </trkpt>
      <trkpt lat="48.33344" lon="7.39037">
        <ele>448.4</ele>
        <time>2021-08-03T15:17:46Z</time>
      </trkpt>
      <trkpt lat="48.33341" lon="7.39038">
        <ele>448.6</ele>
        <time>2021-08-03T15:17:47Z</time>
      </trkpt>
      <trkpt lat="48.33337" lon="7.39039">
        <ele>448.7</ele>
        <time>2021-08-03T15:17:48Z</time>
      </trkpt>
      <trkpt lat="48.33334" lon="7.3904">
        <ele>448.9</ele>
        <time>2021-08-03T15:17:49Z</time>
      </trkpt>
      <trkpt lat="48.33328" lon="7.39042">
        <ele>449.1</ele>
        <time>2021-08-03T15:17:51Z</time>
      </trkpt>
      <trkpt lat="48.33325" lon="7.39044">
        <ele>449.3</ele>
        <time>2021-08-03T15:17:52Z</time>
      </trkpt>
      <trkpt lat="48.33322" lon="7.39046">
        <ele>449.4</ele>
        <time>2021-08-03T15:17:54Z</time>
      </trkpt>
      <trkpt lat="48.33319" lon="7.39048">
        <ele>449.6</ele>
        <time>2021-08-03T15:17:55Z</time>
      </trkpt>
      <trkpt lat="48.33315" lon="7.39052">
        <ele>449.8</ele>
        <time>2021-08-03T15:17:57Z</time>
      </trkpt>
      <trkpt lat="48.33313" lon="7.39057">
        <ele>450</ele>
        <time>2021-08-03T15:17:58Z</time>
      </trkpt>
      <trkpt lat="48.33313" lon="7.39059">
        <ele>450</ele>
        <time>2021-08-03T15:17:59Z</time>
      </trkpt>
      <trkpt lat="48.33309" lon="7.39067">
        <ele>450.3</ele>
        <time>2021-08-03T15:18:01Z</time>
      </trkpt>
      <trkpt lat="48.33306" lon="7.39071">
        <ele>450.5</ele>
        <time>2021-08-03T15:18:02Z</time>
      </trkpt>
      <trkpt lat="48.33301" lon="7.39075">
        <ele>450.7</ele>
        <time>2021-08-03T15:18:04Z</time>
      </trkpt>
      <trkpt lat="48.33298" lon="7.39077">
        <ele>450.9</ele>
        <time>2021-08-03T15:18:05Z</time>
      </trkpt>
      <trkpt lat="48.33295" lon="7.3908">
        <ele>451</ele>
        <time>2021-08-03T15:18:06Z</time>
      </trkpt>
      <trkpt lat="48.33292" lon="7.39083">
        <ele>451.2</ele>
        <time>2021-08-03T15:18:07Z</time>
      </trkpt>
      <trkpt lat="48.33286" lon="7.39085">
        <ele>451.5</ele>
        <time>2021-08-03T15:18:09Z</time>
      </trkpt>
      <trkpt lat="48.33283" lon="7.39086">
        <ele>451.6</ele>
        <time>2021-08-03T15:18:10Z</time>
      </trkpt>
      <trkpt lat="48.3328" lon="7.39086">
        <ele>451.7</ele>
        <time>2021-08-03T15:18:11Z</time>
      </trkpt>
      <trkpt lat="48.33279" lon="7.39086">
        <ele>451.8</ele>
        <time>2021-08-03T15:18:12Z</time>
      </trkpt>
      <trkpt lat="48.33275" lon="7.39088">
        <ele>451.9</ele>
        <time>2021-08-03T15:18:13Z</time>
      </trkpt>
      <trkpt lat="48.33274" lon="7.39088">
        <ele>452</ele>
        <time>2021-08-03T15:18:15Z</time>
      </trkpt>
      <trkpt lat="48.33272" lon="7.39089">
        <ele>452.1</ele>
        <time>2021-08-03T15:18:16Z</time>
      </trkpt>
      <trkpt lat="48.33268" lon="7.39091">
        <ele>452.2</ele>
        <time>2021-08-03T15:18:17Z</time>
      </trkpt>
      <trkpt lat="48.33267" lon="7.39091">
        <ele>452.3</ele>
        <time>2021-08-03T15:18:18Z</time>
      </trkpt>
      <trkpt lat="48.33264" lon="7.39093">
        <ele>452.4</ele>
        <time>2021-08-03T15:18:19Z</time>
      </trkpt>
      <trkpt lat="48.33262" lon="7.39095">
        <ele>452.6</ele>
        <time>2021-08-03T15:18:20Z</time>
      </trkpt>
      <trkpt lat="48.33259" lon="7.39098">
        <ele>452.7</ele>
        <time>2021-08-03T15:18:21Z</time>
      </trkpt>
      <trkpt lat="48.33255" lon="7.39103">
        <ele>453</ele>
        <time>2021-08-03T15:18:22Z</time>
      </trkpt>
      <trkpt lat="48.33252" lon="7.39106">
        <ele>453.1</ele>
        <time>2021-08-03T15:18:24Z</time>
      </trkpt>
      <trkpt lat="48.33249" lon="7.39109">
        <ele>453.3</ele>
        <time>2021-08-03T15:18:25Z</time>
      </trkpt>
      <trkpt lat="48.33247" lon="7.39109">
        <ele>453.4</ele>
        <time>2021-08-03T15:18:26Z</time>
      </trkpt>
      <trkpt lat="48.33245" lon="7.39108">
        <ele>453.5</ele>
        <time>2021-08-03T15:18:28Z</time>
      </trkpt>
      <trkpt lat="48.33244" lon="7.39109">
        <ele>453.5</ele>
        <time>2021-08-03T15:18:29Z</time>
      </trkpt>
      <trkpt lat="48.33242" lon="7.39109">
        <ele>453.6</ele>
        <time>2021-08-03T15:18:30Z</time>
      </trkpt>
      <trkpt lat="48.3324" lon="7.39109">
        <ele>453.7</ele>
        <time>2021-08-03T15:18:31Z</time>
      </trkpt>
      <trkpt lat="48.33238" lon="7.39113">
        <ele>453.8</ele>
        <time>2021-08-03T15:18:33Z</time>
      </trkpt>
      <trkpt lat="48.33235" lon="7.39118">
        <ele>454</ele>
        <time>2021-08-03T15:18:35Z</time>
      </trkpt>
      <trkpt lat="48.33234" lon="7.39118">
        <ele>454.1</ele>
        <time>2021-08-03T15:18:36Z</time>
      </trkpt>
      <trkpt lat="48.33233" lon="7.39119">
        <ele>454.1</ele>
        <time>2021-08-03T15:18:37Z</time>
      </trkpt>
      <trkpt lat="48.33231" lon="7.3912">
        <ele>454.2</ele>
        <time>2021-08-03T15:18:38Z</time>
      </trkpt>
      <trkpt lat="48.33228" lon="7.39121">
        <ele>454.3</ele>
        <time>2021-08-03T15:18:39Z</time>
      </trkpt>
      <trkpt lat="48.33227" lon="7.39121">
        <ele>454.4</ele>
        <time>2021-08-03T15:18:40Z</time>
      </trkpt>
      <trkpt lat="48.33223" lon="7.39124">
        <ele>454.5</ele>
        <time>2021-08-03T15:18:41Z</time>
      </trkpt>
      <trkpt lat="48.33222" lon="7.39125">
        <ele>454.6</ele>
        <time>2021-08-03T15:18:42Z</time>
      </trkpt>
      <trkpt lat="48.33219" lon="7.39127">
        <ele>454.7</ele>
        <time>2021-08-03T15:18:44Z</time>
      </trkpt>
      <trkpt lat="48.33219" lon="7.39128">
        <ele>454.7</ele>
        <time>2021-08-03T15:18:45Z</time>
      </trkpt>
      <trkpt lat="48.33215" lon="7.39127">
        <ele>454.9</ele>
        <time>2021-08-03T15:18:47Z</time>
      </trkpt>
      <trkpt lat="48.33213" lon="7.39128">
        <ele>454.9</ele>
        <time>2021-08-03T15:18:48Z</time>
      </trkpt>
      <trkpt lat="48.33212" lon="7.39129">
        <ele>455</ele>
        <time>2021-08-03T15:18:49Z</time>
      </trkpt>
      <trkpt lat="48.33209" lon="7.39132">
        <ele>455.1</ele>
        <time>2021-08-03T15:18:51Z</time>
      </trkpt>
      <trkpt lat="48.33207" lon="7.39133">
        <ele>455.2</ele>
        <time>2021-08-03T15:18:52Z</time>
      </trkpt>
      <trkpt lat="48.33206" lon="7.39132">
        <ele>455.3</ele>
        <time>2021-08-03T15:18:53Z</time>
      </trkpt>
      <trkpt lat="48.33202" lon="7.39132">
        <ele>455.4</ele>
        <time>2021-08-03T15:18:54Z</time>
      </trkpt>
      <trkpt lat="48.332" lon="7.39132">
        <ele>455.5</ele>
        <time>2021-08-03T15:18:55Z</time>
      </trkpt>
      <trkpt lat="48.33197" lon="7.39134">
        <ele>455.7</ele>
        <time>2021-08-03T15:18:57Z</time>
      </trkpt>
      <trkpt lat="48.33195" lon="7.39136">
        <ele>455.7</ele>
        <time>2021-08-03T15:18:58Z</time>
      </trkpt>
      <trkpt lat="48.33194" lon="7.39137">
        <ele>455.8</ele>
        <time>2021-08-03T15:18:59Z</time>
      </trkpt>
      <trkpt lat="48.33193" lon="7.39138">
        <ele>455.9</ele>
        <time>2021-08-03T15:19:00Z</time>
      </trkpt>
      <trkpt lat="48.3319" lon="7.39141">
        <ele>456</ele>
        <time>2021-08-03T15:19:02Z</time>
      </trkpt>
      <trkpt lat="48.33187" lon="7.39144">
        <ele>456.1</ele>
        <time>2021-08-03T15:19:03Z</time>
      </trkpt>
      <trkpt lat="48.33186" lon="7.39145">
        <ele>456.2</ele>
        <time>2021-08-03T15:19:04Z</time>
      </trkpt>
      <trkpt lat="48.33183" lon="7.39149">
        <ele>456.3</ele>
        <time>2021-08-03T15:19:06Z</time>
      </trkpt>
      <trkpt lat="48.33181" lon="7.39153">
        <ele>456.4</ele>
        <time>2021-08-03T15:19:07Z</time>
      </trkpt>
      <trkpt lat="48.3318" lon="7.39154">
        <ele>456.4</ele>
        <time>2021-08-03T15:19:08Z</time>
      </trkpt>
      <trkpt lat="48.33178" lon="7.39155">
        <ele>456.5</ele>
        <time>2021-08-03T15:19:10Z</time>
      </trkpt>
      <trkpt lat="48.33178" lon="7.39156">
        <ele>456.5</ele>
        <time>2021-08-03T15:19:11Z</time>
      </trkpt>
      <trkpt lat="48.33178" lon="7.39157">
        <ele>456.5</ele>
        <time>2021-08-03T15:19:12Z</time>
      </trkpt>
      <trkpt lat="48.33175" lon="7.3916">
        <ele>456.6</ele>
        <time>2021-08-03T15:19:14Z</time>
      </trkpt>
      <trkpt lat="48.33171" lon="7.39162">
        <ele>456.8</ele>
        <time>2021-08-03T15:19:15Z</time>
      </trkpt>
      <trkpt lat="48.3317" lon="7.39163">
        <ele>456.8</ele>
        <time>2021-08-03T15:19:16Z</time>
      </trkpt>
      <trkpt lat="48.33169" lon="7.39164">
        <ele>456.9</ele>
        <time>2021-08-03T15:19:17Z</time>
      </trkpt>
      <trkpt lat="48.33164" lon="7.39167">
        <ele>457.2</ele>
        <time>2021-08-03T15:19:19Z</time>
      </trkpt>
      <trkpt lat="48.33163" lon="7.39167">
        <ele>457.2</ele>
        <time>2021-08-03T15:19:20Z</time>
      </trkpt>
      <trkpt lat="48.33164" lon="7.39167">
        <ele>457.2</ele>
        <time>2021-08-03T15:19:21Z</time>
      </trkpt>
      <trkpt lat="48.33163" lon="7.39167">
        <ele>457.2</ele>
        <time>2021-08-03T15:19:23Z</time>
      </trkpt>
      <trkpt lat="48.33163" lon="7.39168">
        <ele>457.3</ele>
        <time>2021-08-03T15:19:25Z</time>
      </trkpt>
      <trkpt lat="48.33163" lon="7.39169">
        <ele>457.3</ele>
        <time>2021-08-03T15:19:26Z</time>
      </trkpt>
      <trkpt lat="48.33162" lon="7.39172">
        <ele>457.4</ele>
        <time>2021-08-03T15:19:28Z</time>
      </trkpt>
      <trkpt lat="48.33161" lon="7.39175">
        <ele>457.5</ele>
        <time>2021-08-03T15:19:30Z</time>
      </trkpt>
      <trkpt lat="48.33125" lon="7.39236">
        <ele>459.9</ele>
        <time>2021-08-03T15:20:00Z</time>
      </trkpt>
      <trkpt lat="48.33119" lon="7.39234">
        <ele>460.2</ele>
        <time>2021-08-03T15:20:02Z</time>
      </trkpt>
      <trkpt lat="48.33116" lon="7.39232">
        <ele>460.4</ele>
        <time>2021-08-03T15:20:04Z</time>
      </trkpt>
      <trkpt lat="48.33113" lon="7.3923">
        <ele>460.6</ele>
        <time>2021-08-03T15:20:05Z</time>
      </trkpt>
      <trkpt lat="48.33109" lon="7.39227">
        <ele>460.8</ele>
        <time>2021-08-03T15:20:07Z</time>
      </trkpt>
      <trkpt lat="48.33104" lon="7.39224">
        <ele>461.1</ele>
        <time>2021-08-03T15:20:08Z</time>
      </trkpt>
      <trkpt lat="48.331" lon="7.39222">
        <ele>461.3</ele>
        <time>2021-08-03T15:20:09Z</time>
      </trkpt>
      <trkpt lat="48.33094" lon="7.39219">
        <ele>461.7</ele>
        <time>2021-08-03T15:20:11Z</time>
      </trkpt>
      <trkpt lat="48.33091" lon="7.39217">
        <ele>462</ele>
        <time>2021-08-03T15:20:12Z</time>
      </trkpt>
      <trkpt lat="48.33086" lon="7.39215">
        <ele>462.3</ele>
        <time>2021-08-03T15:20:13Z</time>
      </trkpt>
      <trkpt lat="48.33084" lon="7.39212">
        <ele>462.5</ele>
        <time>2021-08-03T15:20:14Z</time>
      </trkpt>
      <trkpt lat="48.33082" lon="7.39209">
        <ele>462.7</ele>
        <time>2021-08-03T15:20:15Z</time>
      </trkpt>
      <trkpt lat="48.33081" lon="7.39208">
        <ele>462.8</ele>
        <time>2021-08-03T15:20:16Z</time>
      </trkpt>
      <trkpt lat="48.33081" lon="7.39208">
        <ele>462.8</ele>
        <time>2021-08-03T15:20:17Z</time>
      </trkpt>
      <trkpt lat="48.33081" lon="7.39208">
        <ele>462.8</ele>
        <time>2021-08-03T15:20:19Z</time>
      </trkpt>
      <trkpt lat="48.3308" lon="7.39208">
        <ele>462.9</ele>
        <time>2021-08-03T15:20:20Z</time>
      </trkpt>
      <trkpt lat="48.3308" lon="7.39208">
        <ele>462.9</ele>
        <time>2021-08-03T15:20:21Z</time>
      </trkpt>
      <trkpt lat="48.33079" lon="7.39209">
        <ele>463</ele>
        <time>2021-08-03T15:20:23Z</time>
      </trkpt>
      <trkpt lat="48.33078" lon="7.39209">
        <ele>463</ele>
        <time>2021-08-03T15:20:24Z</time>
      </trkpt>
      <trkpt lat="48.33076" lon="7.39211">
        <ele>463.2</ele>
        <time>2021-08-03T15:20:25Z</time>
      </trkpt>
      <trkpt lat="48.33075" lon="7.39212">
        <ele>463.2</ele>
        <time>2021-08-03T15:20:27Z</time>
      </trkpt>
      <trkpt lat="48.33049" lon="7.39212">
        <ele>464.7</ele>
        <time>2021-08-03T15:20:43Z</time>
      </trkpt>
      <trkpt lat="48.33045" lon="7.39211">
        <ele>465</ele>
        <time>2021-08-03T15:20:44Z</time>
      </trkpt>
      <trkpt lat="48.33041" lon="7.39212">
        <ele>465.2</ele>
        <time>2021-08-03T15:20:46Z</time>
      </trkpt>
      <trkpt lat="48.33035" lon="7.39213">
        <ele>465.6</ele>
        <time>2021-08-03T15:20:47Z</time>
      </trkpt>
      <trkpt lat="48.33032" lon="7.39213">
        <ele>465.8</ele>
        <time>2021-08-03T15:20:48Z</time>
      </trkpt>
      <trkpt lat="48.33029" lon="7.39214">
        <ele>466.1</ele>
        <time>2021-08-03T15:20:50Z</time>
      </trkpt>
      <trkpt lat="48.33026" lon="7.39215">
        <ele>466.3</ele>
        <time>2021-08-03T15:20:51Z</time>
      </trkpt>
      <trkpt lat="48.33022" lon="7.39217">
        <ele>466.6</ele>
        <time>2021-08-03T15:20:52Z</time>
      </trkpt>
      <trkpt lat="48.3302" lon="7.3922">
        <ele>466.9</ele>
        <time>2021-08-03T15:20:54Z</time>
      </trkpt>
      <trkpt lat="48.33018" lon="7.39223">
        <ele>467.1</ele>
        <time>2021-08-03T15:20:55Z</time>
      </trkpt>
      <trkpt lat="48.33018" lon="7.39224">
        <ele>467.2</ele>
        <time>2021-08-03T15:20:56Z</time>
      </trkpt>
      <trkpt lat="48.33017" lon="7.39226">
        <ele>467.3</ele>
        <time>2021-08-03T15:20:57Z</time>
      </trkpt>
      <trkpt lat="48.33015" lon="7.39228">
        <ele>467.5</ele>
        <time>2021-08-03T15:20:58Z</time>
      </trkpt>
      <trkpt lat="48.33015" lon="7.3923">
        <ele>467.6</ele>
        <time>2021-08-03T15:21:00Z</time>
      </trkpt>
      <trkpt lat="48.33015" lon="7.39232">
        <ele>467.7</ele>
        <time>2021-08-03T15:21:01Z</time>
      </trkpt>
      <trkpt lat="48.33014" lon="7.39234">
        <ele>467.8</ele>
        <time>2021-08-03T15:21:02Z</time>
      </trkpt>
      <trkpt lat="48.33014" lon="7.39236">
        <ele>467.9</ele>
        <time>2021-08-03T15:21:04Z</time>
      </trkpt>
      <trkpt lat="48.33013" lon="7.39238">
        <ele>468</ele>
        <time>2021-08-03T15:21:05Z</time>
      </trkpt>
      <trkpt lat="48.33013" lon="7.39239">
        <ele>468.1</ele>
        <time>2021-08-03T15:21:06Z</time>
      </trkpt>
      <trkpt lat="48.33013" lon="7.39241">
        <ele>468.2</ele>
        <time>2021-08-03T15:21:07Z</time>
      </trkpt>
      <trkpt lat="48.33012" lon="7.39243">
        <ele>468.3</ele>
        <time>2021-08-03T15:21:09Z</time>
      </trkpt>
      <trkpt lat="48.33012" lon="7.39245">
        <ele>468.4</ele>
        <time>2021-08-03T15:21:17Z</time>
      </trkpt>
      <trkpt lat="48.33011" lon="7.39247">
        <ele>468.5</ele>
        <time>2021-08-03T15:21:18Z</time>
      </trkpt>
      <trkpt lat="48.33011" lon="7.39249">
        <ele>468.6</ele>
        <time>2021-08-03T15:21:19Z</time>
      </trkpt>
      <trkpt lat="48.3301" lon="7.39252">
        <ele>468.8</ele>
        <time>2021-08-03T15:21:20Z</time>
      </trkpt>
      <trkpt lat="48.3301" lon="7.39254">
        <ele>468.8</ele>
        <time>2021-08-03T15:21:22Z</time>
      </trkpt>
      <trkpt lat="48.3301" lon="7.39254">
        <ele>468.9</ele>
        <time>2021-08-03T15:21:23Z</time>
      </trkpt>
      <trkpt lat="48.3301" lon="7.39256">
        <ele>469</ele>
        <time>2021-08-03T15:21:24Z</time>
      </trkpt>
      <trkpt lat="48.33012" lon="7.39257">
        <ele>469</ele>
        <time>2021-08-03T15:21:26Z</time>
      </trkpt>
      <trkpt lat="48.33013" lon="7.39258">
        <ele>469.1</ele>
        <time>2021-08-03T15:21:28Z</time>
      </trkpt>
      <trkpt lat="48.33014" lon="7.39264">
        <ele>469.4</ele>
        <time>2021-08-03T15:21:29Z</time>
      </trkpt>
      <trkpt lat="48.33014" lon="7.39267">
        <ele>469.5</ele>
        <time>2021-08-03T15:21:30Z</time>
      </trkpt>
      <trkpt lat="48.33014" lon="7.39271">
        <ele>469.7</ele>
        <time>2021-08-03T15:21:32Z</time>
      </trkpt>
      <trkpt lat="48.33014" lon="7.39273">
        <ele>469.8</ele>
        <time>2021-08-03T15:21:33Z</time>
      </trkpt>
      <trkpt lat="48.33014" lon="7.39278">
        <ele>470</ele>
        <time>2021-08-03T15:21:34Z</time>
      </trkpt>
      <trkpt lat="48.33015" lon="7.3928">
        <ele>470.1</ele>
        <time>2021-08-03T15:21:35Z</time>
      </trkpt>
      <trkpt lat="48.33015" lon="7.39281">
        <ele>470.2</ele>
        <time>2021-08-03T15:21:37Z</time>
      </trkpt>
      <trkpt lat="48.33015" lon="7.39282">
        <ele>470.2</ele>
        <time>2021-08-03T15:21:38Z</time>
      </trkpt>
      <trkpt lat="48.33014" lon="7.39283">
        <ele>470.3</ele>
        <time>2021-08-03T15:21:39Z</time>
      </trkpt>
      <trkpt lat="48.33014" lon="7.39284">
        <ele>470.3</ele>
        <time>2021-08-03T15:21:40Z</time>
      </trkpt>
      <trkpt lat="48.33014" lon="7.39285">
        <ele>470.4</ele>
        <time>2021-08-03T15:21:41Z</time>
      </trkpt>
      <trkpt lat="48.33014" lon="7.39288">
        <ele>470.6</ele>
        <time>2021-08-03T15:21:42Z</time>
      </trkpt>
      <trkpt lat="48.33014" lon="7.39293">
        <ele>470.8</ele>
        <time>2021-08-03T15:21:45Z</time>
      </trkpt>
      <trkpt lat="48.33013" lon="7.39294">
        <ele>470.9</ele>
        <time>2021-08-03T15:21:47Z</time>
      </trkpt>
      <trkpt lat="48.33012" lon="7.39294">
        <ele>470.9</ele>
        <time>2021-08-03T15:21:49Z</time>
      </trkpt>
      <trkpt lat="48.33012" lon="7.39295">
        <ele>471</ele>
        <time>2021-08-03T15:21:51Z</time>
      </trkpt>
      <trkpt lat="48.33012" lon="7.39295">
        <ele>471</ele>
        <time>2021-08-03T15:21:53Z</time>
      </trkpt>
      <trkpt lat="48.33012" lon="7.39295">
        <ele>471</ele>
        <time>2021-08-03T15:21:55Z</time>
      </trkpt>
      <trkpt lat="48.3291" lon="7.39563">
        <ele>487.6</ele>
        <time>2021-08-03T15:26:57Z</time>
      </trkpt>
      <trkpt lat="48.32906" lon="7.39561">
        <ele>488.2</ele>
        <time>2021-08-03T15:26:59Z</time>
      </trkpt>
      <trkpt lat="48.32903" lon="7.39558">
        <ele>488.5</ele>
        <time>2021-08-03T15:27:00Z</time>
      </trkpt>
      <trkpt lat="48.329" lon="7.39554">
        <ele>489.1</ele>
        <time>2021-08-03T15:27:01Z</time>
      </trkpt>
      <trkpt lat="48.32899" lon="7.39552">
        <ele>489.3</ele>
        <time>2021-08-03T15:27:02Z</time>
      </trkpt>
      <trkpt lat="48.32898" lon="7.39552">
        <ele>489.4</ele>
        <time>2021-08-03T15:27:04Z</time>
      </trkpt>
      <trkpt lat="48.32898" lon="7.39551">
        <ele>489.4</ele>
        <time>2021-08-03T15:27:06Z</time>
      </trkpt>
      <trkpt lat="48.32898" lon="7.39551">
        <ele>489.5</ele>
        <time>2021-08-03T15:27:07Z</time>
      </trkpt>
      <trkpt lat="48.32896" lon="7.3955">
        <ele>489.7</ele>
        <time>2021-08-03T15:27:08Z</time>
      </trkpt>
      <trkpt lat="48.32895" lon="7.39549">
        <ele>489.9</ele>
        <time>2021-08-03T15:27:10Z</time>
      </trkpt>
      <trkpt lat="48.32543" lon="7.3948">
        <ele>539.7</ele>
        <time>2021-08-03T15:35:49Z</time>
      </trkpt>
      <trkpt lat="48.3254" lon="7.39481">
        <ele>539.8</ele>
        <time>2021-08-03T15:35:51Z</time>
      </trkpt>
      <trkpt lat="48.32537" lon="7.39482">
        <ele>539.9</ele>
        <time>2021-08-03T15:35:52Z</time>
      </trkpt>
      <trkpt lat="48.32536" lon="7.39482">
        <ele>539.9</ele>
        <time>2021-08-03T15:35:54Z</time>
      </trkpt>
      <trkpt lat="48.32535" lon="7.39483">
        <ele>540</ele>
        <time>2021-08-03T15:35:55Z</time>
      </trkpt>
      <trkpt lat="48.32534" lon="7.39484">
        <ele>540</ele>
        <time>2021-08-03T15:35:56Z</time>
      </trkpt>
      <trkpt lat="48.32533" lon="7.39484">
        <ele>540</ele>
        <time>2021-08-03T15:35:57Z</time>
      </trkpt>
      <trkpt lat="48.32531" lon="7.39485">
        <ele>540.1</ele>
        <time>2021-08-03T15:35:59Z</time>
      </trkpt>
      <trkpt lat="48.3253" lon="7.39485">
        <ele>540.1</ele>
        <time>2021-08-03T15:36:00Z</time>
      </trkpt>
      <trkpt lat="48.32526" lon="7.39484">
        <ele>540.3</ele>
        <time>2021-08-03T15:36:01Z</time>
      </trkpt>
      <trkpt lat="48.32523" lon="7.39484">
        <ele>540.4</ele>
        <time>2021-08-03T15:36:03Z</time>
      </trkpt>
      <trkpt lat="48.32521" lon="7.39484">
        <ele>540.5</ele>
        <time>2021-08-03T15:36:04Z</time>
      </trkpt>
      <trkpt lat="48.32517" lon="7.39484">
        <ele>540.6</ele>
        <time>2021-08-03T15:36:05Z</time>
      </trkpt>
      <trkpt lat="48.32515" lon="7.39483">
        <ele>540.7</ele>
        <time>2021-08-03T15:36:07Z</time>
      </trkpt>
      <trkpt lat="48.32514" lon="7.39482">
        <ele>540.8</ele>
        <time>2021-08-03T15:36:09Z</time>
      </trkpt>
      <trkpt lat="48.32513" lon="7.39482">
        <ele>540.8</ele>
        <time>2021-08-03T15:36:10Z</time>
      </trkpt>
      <trkpt lat="48.32512" lon="7.39481">
        <ele>540.9</ele>
        <time>2021-08-03T15:36:11Z</time>
      </trkpt>
      <trkpt lat="48.3251" lon="7.3948">
        <ele>541.1</ele>
        <time>2021-08-03T15:36:13Z</time>
      </trkpt>
      <trkpt lat="48.32505" lon="7.39478">
        <ele>541.4</ele>
        <time>2021-08-03T15:36:14Z</time>
      </trkpt>
      <trkpt lat="48.32504" lon="7.39478">
        <ele>541.5</ele>
        <time>2021-08-03T15:36:16Z</time>
      </trkpt>
      <trkpt lat="48.32485" lon="7.39485">
        <ele>542.8</ele>
        <time>2021-08-03T15:36:34Z</time>
      </trkpt>
      <trkpt lat="48.32483" lon="7.39488">
        <ele>543</ele>
        <time>2021-08-03T15:36:35Z</time>
      </trkpt>
      <trkpt lat="48.3248" lon="7.39491">
        <ele>543.2</ele>
        <time>2021-08-03T15:36:37Z</time>
      </trkpt>
      <trkpt lat="48.32477" lon="7.39493">
        <ele>543.4</ele>
        <time>2021-08-03T15:36:38Z</time>
      </trkpt>
      <trkpt lat="48.32477" lon="7.39494">
        <ele>543.4</ele>
        <time>2021-08-03T15:36:39Z</time>
      </trkpt>
      <trkpt lat="48.32474" lon="7.39496">
        <ele>543.6</ele>
        <time>2021-08-03T15:36:41Z</time>
      </trkpt>
      <trkpt lat="48.32472" lon="7.39497">
        <ele>543.7</ele>
        <time>2021-08-03T15:36:42Z</time>
      </trkpt>
      <trkpt lat="48.32471" lon="7.39498">
        <ele>543.7</ele>
        <time>2021-08-03T15:36:43Z</time>
      </trkpt>
      <trkpt lat="48.3247" lon="7.39499">
        <ele>543.8</ele>
        <time>2021-08-03T15:36:44Z</time>
      </trkpt>
      <trkpt lat="48.32469" lon="7.395">
        <ele>543.8</ele>
        <time>2021-08-03T15:36:46Z</time>
      </trkpt>
      <trkpt lat="48.32469" lon="7.39501">
        <ele>543.9</ele>
        <time>2021-08-03T15:36:47Z</time>
      </trkpt>
      <trkpt lat="48.32468" lon="7.39503">
        <ele>543.9</ele>
        <time>2021-08-03T15:36:48Z</time>
      </trkpt>
      <trkpt lat="48.32467" lon="7.39504">
        <ele>544</ele>
        <time>2021-08-03T15:36:50Z</time>
      </trkpt>
      <trkpt lat="48.32467" lon="7.39505">
        <ele>544</ele>
        <time>2021-08-03T15:36:51Z</time>
      </trkpt>
      <trkpt lat="48.32418" lon="7.39504">
        <ele>547.1</ele>
        <time>2021-08-03T15:37:15Z</time>
      </trkpt>
      <trkpt lat="48.32413" lon="7.39504">
        <ele>547.6</ele>
        <time>2021-08-03T15:37:16Z</time>
      </trkpt>
      <trkpt lat="48.32408" lon="7.39504">
        <ele>548</ele>
        <time>2021-08-03T15:37:17Z</time>
      </trkpt>
      <trkpt lat="48.32403" lon="7.39504">
        <ele>548.4</ele>
        <time>2021-08-03T15:37:18Z</time>
      </trkpt>
      <trkpt lat="48.32395" lon="7.39505">
        <ele>549.1</ele>
        <time>2021-08-03T15:37:19Z</time>
      </trkpt>
      <trkpt lat="48.32391" lon="7.39506">
        <ele>549.4</ele>
        <time>2021-08-03T15:37:20Z</time>
      </trkpt>
      <trkpt lat="48.32388" lon="7.39506">
        <ele>549.6</ele>
        <time>2021-08-03T15:37:21Z</time>
      </trkpt>
      <trkpt lat="48.32384" lon="7.39506">
        <ele>549.8</ele>
        <time>2021-08-03T15:37:22Z</time>
      </trkpt>
      <trkpt lat="48.32383" lon="7.39505">
        <ele>549.9</ele>
        <time>2021-08-03T15:37:24Z</time>
      </trkpt>
      <trkpt lat="48.32381" lon="7.39505">
        <ele>550</ele>
        <time>2021-08-03T15:37:26Z</time>
      </trkpt>
      <trkpt lat="48.3238" lon="7.39503">
        <ele>550</ele>
        <time>2021-08-03T15:37:27Z</time>
      </trkpt>
      <trkpt lat="48.32379" lon="7.39502">
        <ele>550.1</ele>
        <time>2021-08-03T15:37:28Z</time>
      </trkpt>
      <trkpt lat="48.32377" lon="7.39501">
        <ele>550.1</ele>
        <time>2021-08-03T15:37:30Z</time>
      </trkpt>
      <trkpt lat="48.32365" lon="7.395">
        <ele>550.4</ele>
        <time>2021-08-03T15:37:35Z</time>
      </trkpt>
      <trkpt lat="48.32364" lon="7.39501">
        <ele>550.4</ele>
        <time>2021-08-03T15:37:36Z</time>
      </trkpt>
      <trkpt lat="48.32363" lon="7.39502">
        <ele>550.4</ele>
        <time>2021-08-03T15:37:38Z</time>
      </trkpt>
      <trkpt lat="48.32362" lon="7.39504">
        <ele>550.4</ele>
        <time>2021-08-03T15:37:40Z</time>
      </trkpt>
      <trkpt lat="48.32362" lon="7.39507">
        <ele>550.4</ele>
        <time>2021-08-03T15:37:41Z</time>
      </trkpt>
      <trkpt lat="48.32361" lon="7.39509">
        <ele>550.4</ele>
        <time>2021-08-03T15:37:42Z</time>
      </trkpt>
      <trkpt lat="48.32361" lon="7.3951">
        <ele>550.4</ele>
        <time>2021-08-03T15:37:43Z</time>
      </trkpt>
      <trkpt lat="48.32361" lon="7.39518">
        <ele>550.3</ele>
        <time>2021-08-03T15:37:45Z</time>
      </trkpt>
      <trkpt lat="48.32361" lon="7.39523">
        <ele>550.3</ele>
        <time>2021-08-03T15:37:46Z</time>
      </trkpt>
      <trkpt lat="48.32357" lon="7.39527">
        <ele>550.2</ele>
        <time>2021-08-03T15:37:48Z</time>
      </trkpt>
      <trkpt lat="48.32353" lon="7.39533">
        <ele>550.1</ele>
        <time>2021-08-03T15:37:49Z</time>
      </trkpt>
      <trkpt lat="48.32349" lon="7.39538">
        <ele>550</ele>
        <time>2021-08-03T15:37:51Z</time>
      </trkpt>
      <trkpt lat="48.32345" lon="7.39541">
        <ele>549.8</ele>
        <time>2021-08-03T15:37:52Z</time>
      </trkpt>
      <trkpt lat="48.32341" lon="7.39545">
        <ele>549.7</ele>
        <time>2021-08-03T15:37:54Z</time>
      </trkpt>
      <trkpt lat="48.3234" lon="7.39547">
        <ele>549.6</ele>
        <time>2021-08-03T15:37:55Z</time>
      </trkpt>
      <trkpt lat="48.32335" lon="7.39553">
        <ele>549.4</ele>
        <time>2021-08-03T15:37:56Z</time>
      </trkpt>
      <trkpt lat="48.32331" lon="7.39558">
        <ele>549.2</ele>
        <time>2021-08-03T15:37:58Z</time>
      </trkpt>
      <trkpt lat="48.32328" lon="7.39562">
        <ele>549</ele>
        <time>2021-08-03T15:37:59Z</time>
      </trkpt>
      <trkpt lat="48.32324" lon="7.39567">
        <ele>548.7</ele>
        <time>2021-08-03T15:38:00Z</time>
      </trkpt>
      <trkpt lat="48.32312" lon="7.3958">
        <ele>548</ele>
        <time>2021-08-03T15:38:02Z</time>
      </trkpt>
      <trkpt lat="48.32308" lon="7.39586">
        <ele>547.8</ele>
        <time>2021-08-03T15:38:03Z</time>
      </trkpt>
      <trkpt lat="48.32305" lon="7.39591">
        <ele>547.6</ele>
        <time>2021-08-03T15:38:04Z</time>
      </trkpt>
      <trkpt lat="48.323" lon="7.39597">
        <ele>547.3</ele>
        <time>2021-08-03T15:38:05Z</time>
      </trkpt>
      <trkpt lat="48.32294" lon="7.3961">
        <ele>547</ele>
        <time>2021-08-03T15:38:07Z</time>
      </trkpt>
      <trkpt lat="48.3229" lon="7.3962">
        <ele>546.7</ele>
        <time>2021-08-03T15:38:08Z</time>
      </trkpt>
      <trkpt lat="48.32286" lon="7.39631">
        <ele>546.5</ele>
        <time>2021-08-03T15:38:10Z</time>
      </trkpt>
      <trkpt lat="48.32284" lon="7.39642">
        <ele>546.2</ele>
        <time>2021-08-03T15:38:11Z</time>
      </trkpt>
      <trkpt lat="48.32284" lon="7.39649">
        <ele>546.1</ele>
        <time>2021-08-03T15:38:13Z</time>
      </trkpt>
      <trkpt lat="48.32287" lon="7.39662">
        <ele>545.9</ele>
        <time>2021-08-03T15:38:15Z</time>
      </trkpt>
      <trkpt lat="48.32288" lon="7.39668">
        <ele>545.8</ele>
        <time>2021-08-03T15:38:16Z</time>
      </trkpt>
      <trkpt lat="48.32288" lon="7.39675">
        <ele>545.7</ele>
        <time>2021-08-03T15:38:17Z</time>
      </trkpt>
      <trkpt lat="48.32286" lon="7.39681">
        <ele>545.7</ele>
        <time>2021-08-03T15:38:19Z</time>
      </trkpt>
      <trkpt lat="48.32281" lon="7.3969">
        <ele>545.6</ele>
        <time>2021-08-03T15:38:20Z</time>
      </trkpt>
      <trkpt lat="48.32278" lon="7.39697">
        <ele>545.6</ele>
        <time>2021-08-03T15:38:22Z</time>
      </trkpt>
      <trkpt lat="48.32273" lon="7.39705">
        <ele>545.5</ele>
        <time>2021-08-03T15:38:23Z</time>
      </trkpt>
      <trkpt lat="48.32265" lon="7.39716">
        <ele>545.5</ele>
        <time>2021-08-03T15:38:25Z</time>
      </trkpt>
      <trkpt lat="48.32261" lon="7.39721">
        <ele>545.5</ele>
        <time>2021-08-03T15:38:26Z</time>
      </trkpt>
      <trkpt lat="48.32253" lon="7.39726">
        <ele>545.6</ele>
        <time>2021-08-03T15:38:28Z</time>
      </trkpt>
      <trkpt lat="48.32248" lon="7.39734">
        <ele>545.7</ele>
        <time>2021-08-03T15:38:29Z</time>
      </trkpt>
      <trkpt lat="48.32245" lon="7.39738">
        <ele>545.8</ele>
        <time>2021-08-03T15:38:30Z</time>
      </trkpt>
      <trkpt lat="48.32242" lon="7.39743">
        <ele>545.9</ele>
        <time>2021-08-03T15:38:32Z</time>
      </trkpt>
      <trkpt lat="48.3224" lon="7.39746">
        <ele>545.9</ele>
        <time>2021-08-03T15:38:33Z</time>
      </trkpt>
      <trkpt lat="48.32237" lon="7.39751">
        <ele>546</ele>
        <time>2021-08-03T15:38:34Z</time>
      </trkpt>
      <trkpt lat="48.32236" lon="7.39755">
        <ele>546.1</ele>
        <time>2021-08-03T15:38:35Z</time>
      </trkpt>
      <trkpt lat="48.32234" lon="7.39759">
        <ele>546.1</ele>
        <time>2021-08-03T15:38:37Z</time>
      </trkpt>
      <trkpt lat="48.32232" lon="7.39762">
        <ele>546.2</ele>
        <time>2021-08-03T15:38:38Z</time>
      </trkpt>
      <trkpt lat="48.32229" lon="7.39768">
        <ele>546.3</ele>
        <time>2021-08-03T15:38:40Z</time>
      </trkpt>
      <trkpt lat="48.32228" lon="7.39772">
        <ele>546.3</ele>
        <time>2021-08-03T15:38:41Z</time>
      </trkpt>
      <trkpt lat="48.32227" lon="7.39776">
        <ele>546.3</ele>
        <time>2021-08-03T15:38:42Z</time>
      </trkpt>
      <trkpt lat="48.32226" lon="7.39777">
        <ele>546.4</ele>
        <time>2021-08-03T15:38:44Z</time>
      </trkpt>
      <trkpt lat="48.32225" lon="7.39779">
        <ele>546.4</ele>
        <time>2021-08-03T15:38:45Z</time>
      </trkpt>
      <trkpt lat="48.32224" lon="7.39781">
        <ele>546.4</ele>
        <time>2021-08-03T15:38:46Z</time>
      </trkpt>
      <trkpt lat="48.32224" lon="7.39782">
        <ele>546.4</ele>
        <time>2021-08-03T15:38:47Z</time>
      </trkpt>
      <trkpt lat="48.32224" lon="7.39783">
        <ele>546.4</ele>
        <time>2021-08-03T15:38:48Z</time>
      </trkpt>
      <trkpt lat="48.32224" lon="7.39789">
        <ele>546.4</ele>
        <time>2021-08-03T15:38:50Z</time>
      </trkpt>
      <trkpt lat="48.32224" lon="7.39792">
        <ele>546.4</ele>
        <time>2021-08-03T15:38:51Z</time>
      </trkpt>
      <trkpt lat="48.32223" lon="7.39797">
        <ele>546.4</ele>
        <time>2021-08-03T15:38:52Z</time>
      </trkpt>
      <trkpt lat="48.3222" lon="7.39804">
        <ele>546.4</ele>
        <time>2021-08-03T15:38:54Z</time>
      </trkpt>
      <trkpt lat="48.32217" lon="7.39811">
        <ele>546.4</ele>
        <time>2021-08-03T15:38:55Z</time>
      </trkpt>
      <trkpt lat="48.32215" lon="7.39817">
        <ele>546.4</ele>
        <time>2021-08-03T15:38:56Z</time>
      </trkpt>
      <trkpt lat="48.32213" lon="7.39822">
        <ele>546.5</ele>
        <time>2021-08-03T15:38:57Z</time>
      </trkpt>
      <trkpt lat="48.3221" lon="7.39827">
        <ele>546.5</ele>
        <time>2021-08-03T15:38:59Z</time>
      </trkpt>
      <trkpt lat="48.32207" lon="7.3983">
        <ele>546.5</ele>
        <time>2021-08-03T15:39:00Z</time>
      </trkpt>
      <trkpt lat="48.32202" lon="7.39837">
        <ele>546.6</ele>
        <time>2021-08-03T15:39:01Z</time>
      </trkpt>
      <trkpt lat="48.32198" lon="7.39843">
        <ele>546.7</ele>
        <time>2021-08-03T15:39:03Z</time>
      </trkpt>
      <trkpt lat="48.32193" lon="7.3985">
        <ele>546.8</ele>
        <time>2021-08-03T15:39:04Z</time>
      </trkpt>
      <trkpt lat="48.32189" lon="7.39858">
        <ele>547</ele>
        <time>2021-08-03T15:39:05Z</time>
      </trkpt>
      <trkpt lat="48.32186" lon="7.39863">
        <ele>547.1</ele>
        <time>2021-08-03T15:39:07Z</time>
      </trkpt>
      <trkpt lat="48.32182" lon="7.39869">
        <ele>547.1</ele>
        <time>2021-08-03T15:39:08Z</time>
      </trkpt>
      <trkpt lat="48.32179" lon="7.39873">
        <ele>547.2</ele>
        <time>2021-08-03T15:39:09Z</time>
      </trkpt>
      <trkpt lat="48.32176" lon="7.39876">
        <ele>547.2</ele>
        <time>2021-08-03T15:39:11Z</time>
      </trkpt>
      <trkpt lat="48.32174" lon="7.39879">
        <ele>547.3</ele>
        <time>2021-08-03T15:39:12Z</time>
      </trkpt>
      <trkpt lat="48.32171" lon="7.39884">
        <ele>547.3</ele>
        <time>2021-08-03T15:39:13Z</time>
      </trkpt>
      <trkpt lat="48.32165" lon="7.39889">
        <ele>547.3</ele>
        <time>2021-08-03T15:39:15Z</time>
      </trkpt>
      <trkpt lat="48.3216" lon="7.39891">
        <ele>547.2</ele>
        <time>2021-08-03T15:39:17Z</time>
      </trkpt>
      <trkpt lat="48.32156" lon="7.39893">
        <ele>547.2</ele>
        <time>2021-08-03T15:39:18Z</time>
      </trkpt>
      <trkpt lat="48.32151" lon="7.39895">
        <ele>547.2</ele>
        <time>2021-08-03T15:39:19Z</time>
      </trkpt>
      <trkpt lat="48.32147" lon="7.39897">
        <ele>547.2</ele>
        <time>2021-08-03T15:39:21Z</time>
      </trkpt>
      <trkpt lat="48.32143" lon="7.39899">
        <ele>547.1</ele>
        <time>2021-08-03T15:39:22Z</time>
      </trkpt>
      <trkpt lat="48.32138" lon="7.39901">
        <ele>547.1</ele>
        <time>2021-08-03T15:39:24Z</time>
      </trkpt>
      <trkpt lat="48.32134" lon="7.39903">
        <ele>547</ele>
        <time>2021-08-03T15:39:25Z</time>
      </trkpt>
      <trkpt lat="48.32129" lon="7.39905">
        <ele>546.9</ele>
        <time>2021-08-03T15:40:50Z</time>
      </trkpt>
      <trkpt lat="48.32125" lon="7.39907">
        <ele>546.8</ele>
        <time>2021-08-03T15:40:51Z</time>
      </trkpt>
      <trkpt lat="48.32121" lon="7.39912">
        <ele>546.7</ele>
        <time>2021-08-03T15:40:53Z</time>
      </trkpt>
      <trkpt lat="48.32118" lon="7.39916">
        <ele>546.7</ele>
        <time>2021-08-03T15:40:54Z</time>
      </trkpt>
      <trkpt lat="48.32112" lon="7.39922">
        <ele>546.5</ele>
        <time>2021-08-03T15:40:55Z</time>
      </trkpt>
      <trkpt lat="48.32108" lon="7.39926">
        <ele>546.4</ele>
        <time>2021-08-03T15:40:56Z</time>
      </trkpt>
      <trkpt lat="48.32101" lon="7.39932">
        <ele>546.2</ele>
        <time>2021-08-03T15:40:58Z</time>
      </trkpt>
      <trkpt lat="48.32094" lon="7.39942">
        <ele>546.1</ele>
        <time>2021-08-03T15:41:00Z</time>
      </trkpt>
      <trkpt lat="48.32089" lon="7.39949">
        <ele>545.9</ele>
        <time>2021-08-03T15:41:01Z</time>
      </trkpt>
      <trkpt lat="48.32084" lon="7.39954">
        <ele>545.8</ele>
        <time>2021-08-03T15:41:03Z</time>
      </trkpt>
      <trkpt lat="48.32079" lon="7.39961">
        <ele>545.7</ele>
        <time>2021-08-03T15:41:04Z</time>
      </trkpt>
      <trkpt lat="48.32068" lon="7.39971">
        <ele>545.3</ele>
        <time>2021-08-03T15:41:06Z</time>
      </trkpt>
      <trkpt lat="48.32058" lon="7.39981">
        <ele>544.9</ele>
        <time>2021-08-03T15:41:08Z</time>
      </trkpt>
      <trkpt lat="48.32049" lon="7.39991">
        <ele>544.4</ele>
        <time>2021-08-03T15:41:10Z</time>
      </trkpt>
      <trkpt lat="48.32045" lon="7.39995">
        <ele>544.2</ele>
        <time>2021-08-03T15:41:11Z</time>
      </trkpt>
      <trkpt lat="48.3204" lon="7.4">
        <ele>543.9</ele>
        <time>2021-08-03T15:41:12Z</time>
      </trkpt>
      <trkpt lat="48.32031" lon="7.40013">
        <ele>543.2</ele>
        <time>2021-08-03T15:41:14Z</time>
      </trkpt>
      <trkpt lat="48.32026" lon="7.4002">
        <ele>542.9</ele>
        <time>2021-08-03T15:41:15Z</time>
      </trkpt>
      <trkpt lat="48.32016" lon="7.40032">
        <ele>542.4</ele>
        <time>2021-08-03T15:41:17Z</time>
      </trkpt>
      <trkpt lat="48.32013" lon="7.4004">
        <ele>542.2</ele>
        <time>2021-08-03T15:41:19Z</time>
      </trkpt>
      <trkpt lat="48.32013" lon="7.40047">
        <ele>542</ele>
        <time>2021-08-03T15:41:21Z</time>
      </trkpt>
      <trkpt lat="48.32014" lon="7.40051">
        <ele>541.9</ele>
        <time>2021-08-03T15:41:23Z</time>
      </trkpt>
      <trkpt lat="48.32013" lon="7.40051">
        <ele>541.9</ele>
        <time>2021-08-03T15:41:24Z</time>
      </trkpt>
      <trkpt lat="48.32011" lon="7.40052">
        <ele>541.8</ele>
        <time>2021-08-03T15:41:25Z</time>
      </trkpt>
      <trkpt lat="48.3201" lon="7.40053">
        <ele>541.8</ele>
        <time>2021-08-03T15:41:26Z</time>
      </trkpt>
      <trkpt lat="48.32009" lon="7.40053">
        <ele>541.7</ele>
        <time>2021-08-03T15:41:28Z</time>
      </trkpt>
      <trkpt lat="48.32008" lon="7.40054">
        <ele>541.7</ele>
        <time>2021-08-03T15:41:29Z</time>
      </trkpt>
      <trkpt lat="48.32006" lon="7.40055">
        <ele>541.6</ele>
        <time>2021-08-03T15:41:30Z</time>
      </trkpt>
      <trkpt lat="48.32005" lon="7.40056">
        <ele>541.6</ele>
        <time>2021-08-03T15:41:31Z</time>
      </trkpt>
      <trkpt lat="48.32004" lon="7.40056">
        <ele>541.5</ele>
        <time>2021-08-03T15:42:01Z</time>
      </trkpt>
      <trkpt lat="48.32003" lon="7.40057">
        <ele>541.5</ele>
        <time>2021-08-03T15:42:02Z</time>
      </trkpt>
      <trkpt lat="48.31999" lon="7.40055">
        <ele>541.3</ele>
        <time>2021-08-03T15:42:03Z</time>
      </trkpt>
      <trkpt lat="48.31994" lon="7.40052">
        <ele>541.1</ele>
        <time>2021-08-03T15:42:04Z</time>
      </trkpt>
      <trkpt lat="48.31992" lon="7.40049">
        <ele>541</ele>
        <time>2021-08-03T15:42:05Z</time>
      </trkpt>
      <trkpt lat="48.31989" lon="7.40046">
        <ele>540.9</ele>
        <time>2021-08-03T15:42:07Z</time>
      </trkpt>
      <trkpt lat="48.31985" lon="7.40041">
        <ele>540.7</ele>
        <time>2021-08-03T15:42:08Z</time>
      </trkpt>
      <trkpt lat="48.31981" lon="7.4004">
        <ele>540.6</ele>
        <time>2021-08-03T15:42:10Z</time>
      </trkpt>
      <trkpt lat="48.31978" lon="7.40039">
        <ele>540.5</ele>
        <time>2021-08-03T15:42:11Z</time>
      </trkpt>
      <trkpt lat="48.31973" lon="7.40036">
        <ele>540.3</ele>
        <time>2021-08-03T15:42:12Z</time>
      </trkpt>
      <trkpt lat="48.31969" lon="7.40034">
        <ele>540.1</ele>
        <time>2021-08-03T15:42:14Z</time>
      </trkpt>
      <trkpt lat="48.31962" lon="7.40032">
        <ele>539.9</ele>
        <time>2021-08-03T15:42:15Z</time>
      </trkpt>
      <trkpt lat="48.31955" lon="7.40026">
        <ele>539.7</ele>
        <time>2021-08-03T15:42:18Z</time>
      </trkpt>
      <trkpt lat="48.31949" lon="7.40024">
        <ele>539.5</ele>
        <time>2021-08-03T15:42:19Z</time>
      </trkpt>
      <trkpt lat="48.31944" lon="7.40023">
        <ele>539.3</ele>
        <time>2021-08-03T15:42:21Z</time>
      </trkpt>
      <trkpt lat="48.31935" lon="7.40023">
        <ele>539</ele>
        <time>2021-08-03T15:42:22Z</time>
      </trkpt>
      <trkpt lat="48.31927" lon="7.40022">
        <ele>538.7</ele>
        <time>2021-08-03T15:42:24Z</time>
      </trkpt>
      <trkpt lat="48.31924" lon="7.40018">
        <ele>538.6</ele>
        <time>2021-08-03T15:42:25Z</time>
      </trkpt>
      <trkpt lat="48.3192" lon="7.40018">
        <ele>538.5</ele>
        <time>2021-08-03T15:42:26Z</time>
      </trkpt>
      <trkpt lat="48.31914" lon="7.4002">
        <ele>538.2</ele>
        <time>2021-08-03T15:42:28Z</time>
      </trkpt>
      <trkpt lat="48.31909" lon="7.40018">
        <ele>538</ele>
        <time>2021-08-03T15:42:29Z</time>
      </trkpt>
      <trkpt lat="48.31907" lon="7.40017">
        <ele>537.9</ele>
        <time>2021-08-03T15:42:30Z</time>
      </trkpt>
      <trkpt lat="48.31901" lon="7.40015">
        <ele>537.7</ele>
        <time>2021-08-03T15:42:32Z</time>
      </trkpt>
      <trkpt lat="48.31893" lon="7.40014">
        <ele>537.4</ele>
        <time>2021-08-03T15:42:33Z</time>
      </trkpt>
      <trkpt lat="48.31883" lon="7.40012">
        <ele>537</ele>
        <time>2021-08-03T15:42:36Z</time>
      </trkpt>
      <trkpt lat="48.31879" lon="7.4001">
        <ele>536.9</ele>
        <time>2021-08-03T15:42:37Z</time>
      </trkpt>
      <trkpt lat="48.31872" lon="7.40005">
        <ele>536.6</ele>
        <time>2021-08-03T15:42:38Z</time>
      </trkpt>
      <trkpt lat="48.31867" lon="7.40002">
        <ele>536.5</ele>
        <time>2021-08-03T15:42:39Z</time>
      </trkpt>
      <trkpt lat="48.3186" lon="7.39998">
        <ele>536.3</ele>
        <time>2021-08-03T15:42:41Z</time>
      </trkpt>
      <trkpt lat="48.31852" lon="7.39992">
        <ele>536.1</ele>
        <time>2021-08-03T15:42:42Z</time>
      </trkpt>
      <trkpt lat="48.31847" lon="7.39988">
        <ele>536</ele>
        <time>2021-08-03T15:42:44Z</time>
      </trkpt>
      <trkpt lat="48.31843" lon="7.39986">
        <ele>535.9</ele>
        <time>2021-08-03T15:42:45Z</time>
      </trkpt>
      <trkpt lat="48.31839" lon="7.39982">
        <ele>535.8</ele>
        <time>2021-08-03T15:42:46Z</time>
      </trkpt>
      <trkpt lat="48.3183" lon="7.39971">
        <ele>535.6</ele>
        <time>2021-08-03T15:42:48Z</time>
      </trkpt>
      <trkpt lat="48.31826" lon="7.39968">
        <ele>535.4</ele>
        <time>2021-08-03T15:42:49Z</time>
      </trkpt>
      <trkpt lat="48.31824" lon="7.39961">
        <ele>535.3</ele>
        <time>2021-08-03T15:42:50Z</time>
      </trkpt>
      <trkpt lat="48.31821" lon="7.39955">
        <ele>535.2</ele>
        <time>2021-08-03T15:42:51Z</time>
      </trkpt>
      <trkpt lat="48.31818" lon="7.39949">
        <ele>535</ele>
        <time>2021-08-03T15:42:52Z</time>
      </trkpt>
      <trkpt lat="48.31816" lon="7.39945">
        <ele>535</ele>
        <time>2021-08-03T15:42:54Z</time>
      </trkpt>
      <trkpt lat="48.31814" lon="7.3994">
        <ele>534.9</ele>
        <time>2021-08-03T15:42:55Z</time>
      </trkpt>
      <trkpt lat="48.31812" lon="7.39932">
        <ele>534.8</ele>
        <time>2021-08-03T15:42:56Z</time>
      </trkpt>
      <trkpt lat="48.31809" lon="7.39925">
        <ele>534.7</ele>
        <time>2021-08-03T15:42:58Z</time>
      </trkpt>
      <trkpt lat="48.31804" lon="7.39918">
        <ele>534.6</ele>
        <time>2021-08-03T15:42:59Z</time>
      </trkpt>
      <trkpt lat="48.31796" lon="7.39911">
        <ele>534.6</ele>
        <time>2021-08-03T15:43:02Z</time>
      </trkpt>
      <trkpt lat="48.31789" lon="7.39909">
        <ele>534.6</ele>
        <time>2021-08-03T15:43:03Z</time>
      </trkpt>
      <trkpt lat="48.31784" lon="7.39909">
        <ele>534.7</ele>
        <time>2021-08-03T15:43:05Z</time>
      </trkpt>
      <trkpt lat="48.31783" lon="7.39911">
        <ele>534.7</ele>
        <time>2021-08-03T15:43:07Z</time>
      </trkpt>
      <trkpt lat="48.31781" lon="7.39913">
        <ele>534.8</ele>
        <time>2021-08-03T15:43:08Z</time>
      </trkpt>
      <trkpt lat="48.3178" lon="7.39915">
        <ele>534.8</ele>
        <time>2021-08-03T15:43:09Z</time>
      </trkpt>
      <trkpt lat="48.31774" lon="7.39925">
        <ele>535.1</ele>
        <time>2021-08-03T15:43:11Z</time>
      </trkpt>
      <trkpt lat="48.31772" lon="7.39932">
        <ele>535.3</ele>
        <time>2021-08-03T15:43:13Z</time>
      </trkpt>
      <trkpt lat="48.31772" lon="7.39934">
        <ele>535.4</ele>
        <time>2021-08-03T15:43:14Z</time>
      </trkpt>
      <trkpt lat="48.31771" lon="7.39936">
        <ele>535.4</ele>
        <time>2021-08-03T15:43:15Z</time>
      </trkpt>
      <trkpt lat="48.31768" lon="7.39941">
        <ele>535.6</ele>
        <time>2021-08-03T15:43:16Z</time>
      </trkpt>
      <trkpt lat="48.31767" lon="7.39942">
        <ele>535.7</ele>
        <time>2021-08-03T15:43:17Z</time>
      </trkpt>
      <trkpt lat="48.31761" lon="7.39948">
        <ele>536</ele>
        <time>2021-08-03T15:43:19Z</time>
      </trkpt>
      <trkpt lat="48.31757" lon="7.39952">
        <ele>536.3</ele>
        <time>2021-08-03T15:43:21Z</time>
      </trkpt>
      <trkpt lat="48.31753" lon="7.39956">
        <ele>536.5</ele>
        <time>2021-08-03T15:43:22Z</time>
      </trkpt>
      <trkpt lat="48.31748" lon="7.39961">
        <ele>536.7</ele>
        <time>2021-08-03T15:43:23Z</time>
      </trkpt>
      <trkpt lat="48.31744" lon="7.39965">
        <ele>537</ele>
        <time>2021-08-03T15:43:24Z</time>
      </trkpt>
      <trkpt lat="48.31742" lon="7.39967">
        <ele>537.1</ele>
        <time>2021-08-03T15:43:25Z</time>
      </trkpt>
      <trkpt lat="48.31741" lon="7.39971">
        <ele>537.2</ele>
        <time>2021-08-03T15:43:27Z</time>
      </trkpt>
      <trkpt lat="48.31739" lon="7.39976">
        <ele>537.5</ele>
        <time>2021-08-03T15:43:28Z</time>
      </trkpt>
      <trkpt lat="48.31737" lon="7.39982">
        <ele>537.7</ele>
        <time>2021-08-03T15:43:30Z</time>
      </trkpt>
      <trkpt lat="48.31736" lon="7.39984">
        <ele>537.9</ele>
        <time>2021-08-03T15:43:31Z</time>
      </trkpt>
      <trkpt lat="48.31735" lon="7.39986">
        <ele>538</ele>
        <time>2021-08-03T15:43:32Z</time>
      </trkpt>
      <trkpt lat="48.31732" lon="7.39989">
        <ele>538.2</ele>
        <time>2021-08-03T15:43:33Z</time>
      </trkpt>
      <trkpt lat="48.31731" lon="7.3999">
        <ele>538.3</ele>
        <time>2021-08-03T15:43:34Z</time>
      </trkpt>
      <trkpt lat="48.3173" lon="7.39991">
        <ele>538.4</ele>
        <time>2021-08-03T15:43:35Z</time>
      </trkpt>
      <trkpt lat="48.31726" lon="7.39993">
        <ele>538.7</ele>
        <time>2021-08-03T15:43:37Z</time>
      </trkpt>
      <trkpt lat="48.31724" lon="7.39996">
        <ele>538.9</ele>
        <time>2021-08-03T15:43:38Z</time>
      </trkpt>
      <trkpt lat="48.31723" lon="7.39997">
        <ele>538.9</ele>
        <time>2021-08-03T15:43:39Z</time>
      </trkpt>
      <trkpt lat="48.31722" lon="7.4">
        <ele>539.1</ele>
        <time>2021-08-03T15:43:40Z</time>
      </trkpt>
      <trkpt lat="48.31721" lon="7.40001">
        <ele>539.2</ele>
        <time>2021-08-03T15:43:41Z</time>
      </trkpt>
      <trkpt lat="48.31721" lon="7.40003">
        <ele>539.2</ele>
        <time>2021-08-03T15:43:43Z</time>
      </trkpt>
      <trkpt lat="48.3172" lon="7.40004">
        <ele>539.3</ele>
        <time>2021-08-03T15:43:45Z</time>
      </trkpt>
      <trkpt lat="48.31719" lon="7.40005">
        <ele>539.4</ele>
        <time>2021-08-03T15:43:46Z</time>
      </trkpt>
      <trkpt lat="48.31719" lon="7.40006">
        <ele>539.4</ele>
        <time>2021-08-03T15:43:47Z</time>
      </trkpt>
      <trkpt lat="48.31716" lon="7.40008">
        <ele>539.7</ele>
        <time>2021-08-03T15:43:49Z</time>
      </trkpt>
      <trkpt lat="48.31713" lon="7.4001">
        <ele>539.9</ele>
        <time>2021-08-03T15:43:51Z</time>
      </trkpt>
      <trkpt lat="48.31713" lon="7.40011">
        <ele>539.9</ele>
        <time>2021-08-03T15:43:52Z</time>
      </trkpt>
      <trkpt lat="48.31713" lon="7.40012">
        <ele>539.9</ele>
        <time>2021-08-03T15:43:54Z</time>
      </trkpt>
      <trkpt lat="48.31713" lon="7.40012">
        <ele>539.9</ele>
        <time>2021-08-03T15:43:55Z</time>
      </trkpt>
      <trkpt lat="48.31713" lon="7.40013">
        <ele>540</ele>
        <time>2021-08-03T15:43:57Z</time>
      </trkpt>
      <trkpt lat="48.31713" lon="7.40013">
        <ele>540</ele>
        <time>2021-08-03T15:43:59Z</time>
      </trkpt>
      <trkpt lat="48.31597" lon="7.40156">
        <ele>550.1</ele>
        <time>2021-08-03T15:46:20Z</time>
      </trkpt>
      <trkpt lat="48.31593" lon="7.40157">
        <ele>550.3</ele>
        <time>2021-08-03T15:46:21Z</time>
      </trkpt>
      <trkpt lat="48.31589" lon="7.4016">
        <ele>550.7</ele>
        <time>2021-08-03T15:46:22Z</time>
      </trkpt>
      <trkpt lat="48.31584" lon="7.40162">
        <ele>550.9</ele>
        <time>2021-08-03T15:46:23Z</time>
      </trkpt>
      <trkpt lat="48.31579" lon="7.40165">
        <ele>551.2</ele>
        <time>2021-08-03T15:46:25Z</time>
      </trkpt>
      <trkpt lat="48.31576" lon="7.40167">
        <ele>551.3</ele>
        <time>2021-08-03T15:46:26Z</time>
      </trkpt>
      <trkpt lat="48.31573" lon="7.40169">
        <ele>551.4</ele>
        <time>2021-08-03T15:46:27Z</time>
      </trkpt>
      <trkpt lat="48.31571" lon="7.40171">
        <ele>551.4</ele>
        <time>2021-08-03T15:46:29Z</time>
      </trkpt>
      <trkpt lat="48.31571" lon="7.40172">
        <ele>551.5</ele>
        <time>2021-08-03T15:46:30Z</time>
      </trkpt>
      <trkpt lat="48.3157" lon="7.40173">
        <ele>551.5</ele>
        <time>2021-08-03T15:46:31Z</time>
      </trkpt>
      <trkpt lat="48.31568" lon="7.40176">
        <ele>551.5</ele>
        <time>2021-08-03T15:46:32Z</time>
      </trkpt>
      <trkpt lat="48.31568" lon="7.40177">
        <ele>551.5</ele>
        <time>2021-08-03T15:46:33Z</time>
      </trkpt>
      <trkpt lat="48.31567" lon="7.40178">
        <ele>551.5</ele>
        <time>2021-08-03T15:46:34Z</time>
      </trkpt>
      <trkpt lat="48.31567" lon="7.40179">
        <ele>551.5</ele>
        <time>2021-08-03T15:46:36Z</time>
      </trkpt>
      <trkpt lat="48.31567" lon="7.40179">
        <ele>551.5</ele>
        <time>2021-08-03T15:46:38Z</time>
      </trkpt>
      <trkpt lat="48.31567" lon="7.4018">
        <ele>551.5</ele>
        <time>2021-08-03T15:46:39Z</time>
      </trkpt>
      <trkpt lat="48.31567" lon="7.4018">
        <ele>551.5</ele>
        <time>2021-08-03T15:46:40Z</time>
      </trkpt>
      <trkpt lat="48.31567" lon="7.4018">
        <ele>551.5</ele>
        <time>2021-08-03T15:46:42Z</time>
      </trkpt>
      <trkpt lat="48.31567" lon="7.4018">
        <ele>551.5</ele>
        <time>2021-08-03T15:46:44Z</time>
      </trkpt>
      <trkpt lat="48.31537" lon="7.40179">
        <ele>549.5</ele>
        <time>2021-08-03T15:46:54Z</time>
      </trkpt>
      <trkpt lat="48.31529" lon="7.40174">
        <ele>548.6</ele>
        <time>2021-08-03T15:46:56Z</time>
      </trkpt>
      <trkpt lat="48.31525" lon="7.4017">
        <ele>548.2</ele>
        <time>2021-08-03T15:46:57Z</time>
      </trkpt>
      <trkpt lat="48.31524" lon="7.40168">
        <ele>548</ele>
        <time>2021-08-03T15:46:58Z</time>
      </trkpt>
      <trkpt lat="48.31527" lon="7.40163">
        <ele>547.5</ele>
        <time>2021-08-03T15:47:00Z</time>
      </trkpt>
      <trkpt lat="48.31526" lon="7.40156">
        <ele>547.1</ele>
        <time>2021-08-03T15:47:02Z</time>
      </trkpt>
      <trkpt lat="48.31521" lon="7.40152">
        <ele>546.5</ele>
        <time>2021-08-03T15:47:03Z</time>
      </trkpt>
      <trkpt lat="48.31516" lon="7.40151">
        <ele>546</ele>
        <time>2021-08-03T15:47:05Z</time>
      </trkpt>
      <trkpt lat="48.31514" lon="7.40143">
        <ele>545.5</ele>
        <time>2021-08-03T15:47:07Z</time>
      </trkpt>
      <trkpt lat="48.31513" lon="7.40139">
        <ele>545.2</ele>
        <time>2021-08-03T15:47:08Z</time>
      </trkpt>
      <trkpt lat="48.31512" lon="7.40138">
        <ele>545.1</ele>
        <time>2021-08-03T15:47:09Z</time>
      </trkpt>
      <trkpt lat="48.31512" lon="7.40137">
        <ele>545</ele>
        <time>2021-08-03T15:47:10Z</time>
      </trkpt>
      <trkpt lat="48.31511" lon="7.40136">
        <ele>544.9</ele>
        <time>2021-08-03T15:47:12Z</time>
      </trkpt>
      <trkpt lat="48.3151" lon="7.40135">
        <ele>544.8</ele>
        <time>2021-08-03T15:47:13Z</time>
      </trkpt>
      <trkpt lat="48.31347" lon="7.39948">
        <ele>522.1</ele>
        <time>2021-08-03T15:47:49Z</time>
      </trkpt>
      <trkpt lat="48.31342" lon="7.3994">
        <ele>520.8</ele>
        <time>2021-08-03T15:47:51Z</time>
      </trkpt>
      <trkpt lat="48.31339" lon="7.39932">
        <ele>519.6</ele>
        <time>2021-08-03T15:47:53Z</time>
      </trkpt>
      <trkpt lat="48.31336" lon="7.39925">
        <ele>518.6</ele>
        <time>2021-08-03T15:47:54Z</time>
      </trkpt>
      <trkpt lat="48.3133" lon="7.39918">
        <ele>516.8</ele>
        <time>2021-08-03T15:47:55Z</time>
      </trkpt>
      <trkpt lat="48.31326" lon="7.39916">
        <ele>515.9</ele>
        <time>2021-08-03T15:47:56Z</time>
      </trkpt>
      <trkpt lat="48.31319" lon="7.39909">
        <ele>514</ele>
        <time>2021-08-03T15:47:58Z</time>
      </trkpt>
      <trkpt lat="48.31315" lon="7.39905">
        <ele>513</ele>
        <time>2021-08-03T15:47:59Z</time>
      </trkpt>
      <trkpt lat="48.31307" lon="7.39894">
        <ele>510.5</ele>
        <time>2021-08-03T15:48:01Z</time>
      </trkpt>
      <trkpt lat="48.31301" lon="7.39888">
        <ele>508.9</ele>
        <time>2021-08-03T15:48:03Z</time>
      </trkpt>
      <trkpt lat="48.31297" lon="7.39884">
        <ele>507.9</ele>
        <time>2021-08-03T15:48:04Z</time>
      </trkpt>
      <trkpt lat="48.31293" lon="7.39872">
        <ele>506.1</ele>
        <time>2021-08-03T15:48:06Z</time>
      </trkpt>
      <trkpt lat="48.31291" lon="7.3986">
        <ele>504.7</ele>
        <time>2021-08-03T15:48:08Z</time>
      </trkpt>
      <trkpt lat="48.31291" lon="7.39855">
        <ele>504</ele>
        <time>2021-08-03T15:48:09Z</time>
      </trkpt>
      <trkpt lat="48.31292" lon="7.39849">
        <ele>503.3</ele>
        <time>2021-08-03T15:48:10Z</time>
      </trkpt>
      <trkpt lat="48.31291" lon="7.3984">
        <ele>502.3</ele>
        <time>2021-08-03T15:48:12Z</time>
      </trkpt>
      <trkpt lat="48.3129" lon="7.39834">
        <ele>501.7</ele>
        <time>2021-08-03T15:48:13Z</time>
      </trkpt>
      <trkpt lat="48.31287" lon="7.39817">
        <ele>500.1</ele>
        <time>2021-08-03T15:48:15Z</time>
      </trkpt>
      <trkpt lat="48.31286" lon="7.3981">
        <ele>499.5</ele>
        <time>2021-08-03T15:48:16Z</time>
      </trkpt>
      <trkpt lat="48.31286" lon="7.39804">
        <ele>498.8</ele>
        <time>2021-08-03T15:48:17Z</time>
      </trkpt>
      <trkpt lat="48.31286" lon="7.39785">
        <ele>497.2</ele>
        <time>2021-08-03T15:48:19Z</time>
      </trkpt>
      <trkpt lat="48.31285" lon="7.39774">
        <ele>496.2</ele>
        <time>2021-08-03T15:48:20Z</time>
      </trkpt>
      <trkpt lat="48.31233" lon="7.39671">
        <ele>481.3</ele>
        <time>2021-08-03T15:48:37Z</time>
      </trkpt>
      <trkpt lat="48.31228" lon="7.39666">
        <ele>480.2</ele>
        <time>2021-08-03T15:48:38Z</time>
      </trkpt>
      <trkpt lat="48.31224" lon="7.39665">
        <ele>479.6</ele>
        <time>2021-08-03T15:48:39Z</time>
      </trkpt>
      <trkpt lat="48.31219" lon="7.39658">
        <ele>478.3</ele>
        <time>2021-08-03T15:48:41Z</time>
      </trkpt>
      <trkpt lat="48.31215" lon="7.39647">
        <ele>477</ele>
        <time>2021-08-03T15:48:43Z</time>
      </trkpt>
      <trkpt lat="48.31209" lon="7.39638">
        <ele>475.5</ele>
        <time>2021-08-03T15:48:45Z</time>
      </trkpt>
      <trkpt lat="48.31206" lon="7.39633">
        <ele>474.8</ele>
        <time>2021-08-03T15:48:46Z</time>
      </trkpt>
      <trkpt lat="48.31204" lon="7.39628">
        <ele>474.2</ele>
        <time>2021-08-03T15:48:48Z</time>
      </trkpt>
      <trkpt lat="48.31201" lon="7.39623">
        <ele>473.3</ele>
        <time>2021-08-03T15:48:49Z</time>
      </trkpt>
      <trkpt lat="48.31198" lon="7.3962">
        <ele>472.7</ele>
        <time>2021-08-03T15:48:50Z</time>
      </trkpt>
      <trkpt lat="48.31191" lon="7.39615">
        <ele>471.4</ele>
        <time>2021-08-03T15:48:52Z</time>
      </trkpt>
      <trkpt lat="48.31192" lon="7.3961">
        <ele>470.8</ele>
        <time>2021-08-03T15:48:54Z</time>
      </trkpt>
      <trkpt lat="48.31189" lon="7.39602">
        <ele>469.9</ele>
        <time>2021-08-03T15:48:56Z</time>
      </trkpt>
      <trkpt lat="48.31187" lon="7.39596">
        <ele>469.4</ele>
        <time>2021-08-03T15:48:57Z</time>
      </trkpt>
      <trkpt lat="48.31187" lon="7.39594">
        <ele>469.1</ele>
        <time>2021-08-03T15:48:58Z</time>
      </trkpt>
      <trkpt lat="48.31185" lon="7.39587">
        <ele>468.5</ele>
        <time>2021-08-03T15:48:59Z</time>
      </trkpt>
      <trkpt lat="48.31179" lon="7.39575">
        <ele>467.5</ele>
        <time>2021-08-03T15:49:01Z</time>
      </trkpt>
      <trkpt lat="48.31175" lon="7.39566">
        <ele>466.8</ele>
        <time>2021-08-03T15:49:02Z</time>
      </trkpt>
      <trkpt lat="48.31172" lon="7.3956">
        <ele>466.3</ele>
        <time>2021-08-03T15:49:03Z</time>
      </trkpt>
      <trkpt lat="48.30977" lon="7.39401">
        <ele>456.7</ele>
        <time>2021-08-03T15:49:37Z</time>
      </trkpt>
      <trkpt lat="48.30969" lon="7.39395">
        <ele>456.1</ele>
        <time>2021-08-03T15:49:39Z</time>
      </trkpt>
      <trkpt lat="48.30963" lon="7.39391">
        <ele>455.8</ele>
        <time>2021-08-03T15:49:41Z</time>
      </trkpt>
      <trkpt lat="48.3096" lon="7.39389">
        <ele>455.7</ele>
        <time>2021-08-03T15:49:42Z</time>
      </trkpt>
      <trkpt lat="48.30952" lon="7.39382">
        <ele>455.4</ele>
        <time>2021-08-03T15:49:43Z</time>
      </trkpt>
      <trkpt lat="48.30946" lon="7.39376">
        <ele>455.1</ele>
        <time>2021-08-03T15:49:45Z</time>
      </trkpt>
      <trkpt lat="48.3094" lon="7.39371">
        <ele>454.6</ele>
        <time>2021-08-03T15:49:47Z</time>
      </trkpt>
      <trkpt lat="48.30937" lon="7.39369">
        <ele>454.5</ele>
        <time>2021-08-03T15:49:48Z</time>
      </trkpt>
      <trkpt lat="48.30933" lon="7.39365">
        <ele>454.4</ele>
        <time>2021-08-03T15:49:51Z</time>
      </trkpt>
      <trkpt lat="48.30927" lon="7.39359">
        <ele>454.2</ele>
        <time>2021-08-03T15:49:52Z</time>
      </trkpt>
      <trkpt lat="48.30924" lon="7.39358">
        <ele>454.1</ele>
        <time>2021-08-03T15:49:53Z</time>
      </trkpt>
      <trkpt lat="48.30918" lon="7.39354">
        <ele>453.9</ele>
        <time>2021-08-03T15:49:55Z</time>
      </trkpt>
      <trkpt lat="48.30914" lon="7.39349">
        <ele>453.4</ele>
        <time>2021-08-03T15:49:56Z</time>
      </trkpt>
      <trkpt lat="48.30908" lon="7.39345">
        <ele>453</ele>
        <time>2021-08-03T15:49:58Z</time>
      </trkpt>
      <trkpt lat="48.30901" lon="7.39338">
        <ele>452.5</ele>
        <time>2021-08-03T15:49:59Z</time>
      </trkpt>
      <trkpt lat="48.30896" lon="7.39333">
        <ele>452.2</ele>
        <time>2021-08-03T15:50:00Z</time>
      </trkpt>
      <trkpt lat="48.30891" lon="7.39328">
        <ele>451.9</ele>
        <time>2021-08-03T15:50:01Z</time>
      </trkpt>
      <trkpt lat="48.30886" lon="7.3932">
        <ele>451.6</ele>
        <time>2021-08-03T15:50:03Z</time>
      </trkpt>
      <trkpt lat="48.3088" lon="7.39311">
        <ele>451.2</ele>
        <time>2021-08-03T15:50:04Z</time>
      </trkpt>
      <trkpt lat="48.30873" lon="7.39303">
        <ele>450.9</ele>
        <time>2021-08-03T15:50:06Z</time>
      </trkpt>
      <trkpt lat="48.30859" lon="7.39298">
        <ele>450.3</ele>
        <time>2021-08-03T15:50:08Z</time>
      </trkpt>
      <trkpt lat="48.30843" lon="7.39308">
        <ele>449.7</ele>
        <time>2021-08-03T15:50:10Z</time>
      </trkpt>
      <trkpt lat="48.30837" lon="7.39313">
        <ele>449.3</ele>
        <time>2021-08-03T15:50:11Z</time>
      </trkpt>
      <trkpt lat="48.30829" lon="7.39312">
        <ele>449.1</ele>
        <time>2021-08-03T15:50:13Z</time>
      </trkpt>
      <trkpt lat="48.30826" lon="7.39315">
        <ele>448.9</ele>
        <time>2021-08-03T15:50:14Z</time>
      </trkpt>
      <trkpt lat="48.3082" lon="7.39324">
        <ele>448.7</ele>
        <time>2021-08-03T15:50:15Z</time>
      </trkpt>
      <trkpt lat="48.30813" lon="7.39328">
        <ele>448.7</ele>
        <time>2021-08-03T15:50:16Z</time>
      </trkpt>
      <trkpt lat="48.30807" lon="7.39334">
        <ele>448.7</ele>
        <time>2021-08-03T15:50:17Z</time>
      </trkpt>
      <trkpt lat="48.30802" lon="7.39337">
        <ele>448.8</ele>
        <time>2021-08-03T15:50:19Z</time>
      </trkpt>
      <trkpt lat="48.30799" lon="7.39343">
        <ele>448.9</ele>
        <time>2021-08-03T15:50:20Z</time>
      </trkpt>
      <trkpt lat="48.30797" lon="7.39343">
        <ele>449</ele>
        <time>2021-08-03T15:50:21Z</time>
      </trkpt>
      <trkpt lat="48.30793" lon="7.39343">
        <ele>449.1</ele>
        <time>2021-08-03T15:50:23Z</time>
      </trkpt>
      <trkpt lat="48.30787" lon="7.39346">
        <ele>449.3</ele>
        <time>2021-08-03T15:50:24Z</time>
      </trkpt>
      <trkpt lat="48.30783" lon="7.39349">
        <ele>449.5</ele>
        <time>2021-08-03T15:50:26Z</time>
      </trkpt>
      <trkpt lat="48.30778" lon="7.39352">
        <ele>449.7</ele>
        <time>2021-08-03T15:50:27Z</time>
      </trkpt>
      <trkpt lat="48.30772" lon="7.39355">
        <ele>450</ele>
        <time>2021-08-03T15:50:28Z</time>
      </trkpt>
      <trkpt lat="48.30768" lon="7.39359">
        <ele>450.3</ele>
        <time>2021-08-03T15:50:30Z</time>
      </trkpt>
      <trkpt lat="48.30765" lon="7.39362">
        <ele>450.5</ele>
        <time>2021-08-03T15:50:31Z</time>
      </trkpt>
      <trkpt lat="48.30764" lon="7.39363">
        <ele>450.6</ele>
        <time>2021-08-03T15:50:32Z</time>
      </trkpt>
      <trkpt lat="48.30759" lon="7.39367">
        <ele>451</ele>
        <time>2021-08-03T15:50:34Z</time>
      </trkpt>
      <trkpt lat="48.30757" lon="7.39367">
        <ele>451.1</ele>
        <time>2021-08-03T15:50:35Z</time>
      </trkpt>
      <trkpt lat="48.30751" lon="7.39364">
        <ele>451.6</ele>
        <time>2021-08-03T15:50:37Z</time>
      </trkpt>
      <trkpt lat="48.30747" lon="7.39364">
        <ele>451.8</ele>
        <time>2021-08-03T15:50:38Z</time>
      </trkpt>
      <trkpt lat="48.30746" lon="7.39364">
        <ele>451.9</ele>
        <time>2021-08-03T15:50:39Z</time>
      </trkpt>
      <trkpt lat="48.30743" lon="7.39364">
        <ele>452.1</ele>
        <time>2021-08-03T15:50:40Z</time>
      </trkpt>
      <trkpt lat="48.30742" lon="7.39364">
        <ele>452.2</ele>
        <time>2021-08-03T15:50:41Z</time>
      </trkpt>
      <trkpt lat="48.30738" lon="7.39362">
        <ele>452.5</ele>
        <time>2021-08-03T15:50:43Z</time>
      </trkpt>
      <trkpt lat="48.30734" lon="7.39362">
        <ele>452.7</ele>
        <time>2021-08-03T15:50:45Z</time>
      </trkpt>
      <trkpt lat="48.30732" lon="7.39363">
        <ele>452.9</ele>
        <time>2021-08-03T15:50:46Z</time>
      </trkpt>
      <trkpt lat="48.30728" lon="7.39368">
        <ele>453.2</ele>
        <time>2021-08-03T15:50:48Z</time>
      </trkpt>
      <trkpt lat="48.30726" lon="7.39376">
        <ele>453.6</ele>
        <time>2021-08-03T15:50:50Z</time>
      </trkpt>
      <trkpt lat="48.30721" lon="7.39382">
        <ele>453.9</ele>
        <time>2021-08-03T15:50:52Z</time>
      </trkpt>
      <trkpt lat="48.30719" lon="7.39384">
        <ele>454.1</ele>
        <time>2021-08-03T15:50:53Z</time>
      </trkpt>
      <trkpt lat="48.30716" lon="7.39387">
        <ele>454.3</ele>
        <time>2021-08-03T15:50:54Z</time>
      </trkpt>
      <trkpt lat="48.30714" lon="7.39388">
        <ele>454.3</ele>
        <time>2021-08-03T15:50:55Z</time>
      </trkpt>
      <trkpt lat="48.30709" lon="7.39389">
        <ele>454.6</ele>
        <time>2021-08-03T15:50:57Z</time>
      </trkpt>
      <trkpt lat="48.30707" lon="7.39389">
        <ele>454.8</ele>
        <time>2021-08-03T15:50:58Z</time>
      </trkpt>
      <trkpt lat="48.30702" lon="7.39389">
        <ele>455</ele>
        <time>2021-08-03T15:51:00Z</time>
      </trkpt>
      <trkpt lat="48.307" lon="7.39389">
        <ele>455.1</ele>
        <time>2021-08-03T15:51:01Z</time>
      </trkpt>
      <trkpt lat="48.30697" lon="7.39388">
        <ele>455.2</ele>
        <time>2021-08-03T15:51:03Z</time>
      </trkpt>
      <trkpt lat="48.30696" lon="7.39387">
        <ele>455.3</ele>
        <time>2021-08-03T15:51:04Z</time>
      </trkpt>
      <trkpt lat="48.30694" lon="7.39387">
        <ele>455.4</ele>
        <time>2021-08-03T15:51:05Z</time>
      </trkpt>
      <trkpt lat="48.30692" lon="7.39387">
        <ele>455.5</ele>
        <time>2021-08-03T15:51:06Z</time>
      </trkpt>
      <trkpt lat="48.30691" lon="7.39387">
        <ele>455.5</ele>
        <time>2021-08-03T15:51:07Z</time>
      </trkpt>
      <trkpt lat="48.30691" lon="7.39388">
        <ele>455.5</ele>
        <time>2021-08-03T15:51:08Z</time>
      </trkpt>
      <trkpt lat="48.30688" lon="7.39387">
        <ele>455.6</ele>
        <time>2021-08-03T15:51:10Z</time>
      </trkpt>
      <trkpt lat="48.30686" lon="7.39386">
        <ele>455.7</ele>
        <time>2021-08-03T15:51:11Z</time>
      </trkpt>
      <trkpt lat="48.30685" lon="7.39385">
        <ele>455.8</ele>
        <time>2021-08-03T15:51:12Z</time>
      </trkpt>
      <trkpt lat="48.30681" lon="7.39382">
        <ele>456</ele>
        <time>2021-08-03T15:51:14Z</time>
      </trkpt>
      <trkpt lat="48.30678" lon="7.39379">
        <ele>456.1</ele>
        <time>2021-08-03T15:51:15Z</time>
      </trkpt>
      <trkpt lat="48.30675" lon="7.39377">
        <ele>456.2</ele>
        <time>2021-08-03T15:51:16Z</time>
      </trkpt>
      <trkpt lat="48.3067" lon="7.39374">
        <ele>456.5</ele>
        <time>2021-08-03T15:51:18Z</time>
      </trkpt>
      <trkpt lat="48.30667" lon="7.39373">
        <ele>456.6</ele>
        <time>2021-08-03T15:51:19Z</time>
      </trkpt>
      <trkpt lat="48.30663" lon="7.39371">
        <ele>456.7</ele>
        <time>2021-08-03T15:51:21Z</time>
      </trkpt>
      <trkpt lat="48.3066" lon="7.39368">
        <ele>456.9</ele>
        <time>2021-08-03T15:51:22Z</time>
      </trkpt>
      <trkpt lat="48.30659" lon="7.39367">
        <ele>456.9</ele>
        <time>2021-08-03T15:51:23Z</time>
      </trkpt>
      <trkpt lat="48.3066" lon="7.39363">
        <ele>457.1</ele>
        <time>2021-08-03T15:51:25Z</time>
      </trkpt>
      <trkpt lat="48.30661" lon="7.39358">
        <ele>457.2</ele>
        <time>2021-08-03T15:51:27Z</time>
      </trkpt>
      <trkpt lat="48.30661" lon="7.39356">
        <ele>457.3</ele>
        <time>2021-08-03T15:51:28Z</time>
      </trkpt>
      <trkpt lat="48.30662" lon="7.39356">
        <ele>457.3</ele>
        <time>2021-08-03T15:51:30Z</time>
      </trkpt>
      <trkpt lat="48.30662" lon="7.39355">
        <ele>457.4</ele>
        <time>2021-08-03T15:51:31Z</time>
      </trkpt>
      <trkpt lat="48.30662" lon="7.39355">
        <ele>457.4</ele>
        <time>2021-08-03T15:51:32Z</time>
      </trkpt>
      <trkpt lat="48.30662" lon="7.39354">
        <ele>457.4</ele>
        <time>2021-08-03T15:51:33Z</time>
      </trkpt>
      <trkpt lat="48.30661" lon="7.39354">
        <ele>457.4</ele>
        <time>2021-08-03T15:51:34Z</time>
      </trkpt>
      <trkpt lat="48.3066" lon="7.39353">
        <ele>457.5</ele>
        <time>2021-08-03T15:51:35Z</time>
      </trkpt>
      <trkpt lat="48.30659" lon="7.39352">
        <ele>457.6</ele>
        <time>2021-08-03T15:51:37Z</time>
      </trkpt>
      <trkpt lat="48.30654" lon="7.39337">
        <ele>458.2</ele>
        <time>2021-08-03T15:51:44Z</time>
      </trkpt>
      <trkpt lat="48.30653" lon="7.39333">
        <ele>458.3</ele>
        <time>2021-08-03T15:51:45Z</time>
      </trkpt>
      <trkpt lat="48.30651" lon="7.39329">
        <ele>458.5</ele>
        <time>2021-08-03T15:51:46Z</time>
      </trkpt>
      <trkpt lat="48.30649" lon="7.39326">
        <ele>458.6</ele>
        <time>2021-08-03T15:51:47Z</time>
      </trkpt>
      <trkpt lat="48.30649" lon="7.39324">
        <ele>458.7</ele>
        <time>2021-08-03T15:51:48Z</time>
      </trkpt>
      <trkpt lat="48.30647" lon="7.39321">
        <ele>458.8</ele>
        <time>2021-08-03T15:51:50Z</time>
      </trkpt>
      <trkpt lat="48.30647" lon="7.3932">
        <ele>458.8</ele>
        <time>2021-08-03T15:51:51Z</time>
      </trkpt>
      <trkpt lat="48.30647" lon="7.39319">
        <ele>458.9</ele>
        <time>2021-08-03T15:51:52Z</time>
      </trkpt>
      <trkpt lat="48.30646" lon="7.39317">
        <ele>458.9</ele>
        <time>2021-08-03T15:51:53Z</time>
      </trkpt>
      <trkpt lat="48.30642" lon="7.39314">
        <ele>459</ele>
        <time>2021-08-03T15:51:55Z</time>
      </trkpt>
      <trkpt lat="48.3064" lon="7.39312">
        <ele>459.1</ele>
        <time>2021-08-03T15:51:56Z</time>
      </trkpt>
      <trkpt lat="48.3064" lon="7.39307">
        <ele>459.1</ele>
        <time>2021-08-03T15:51:58Z</time>
      </trkpt>
      <trkpt lat="48.30641" lon="7.39302">
        <ele>459.2</ele>
        <time>2021-08-03T15:51:59Z</time>
      </trkpt>
      <trkpt lat="48.3064" lon="7.39296">
        <ele>459.2</ele>
        <time>2021-08-03T15:52:01Z</time>
      </trkpt>
      <trkpt lat="48.30639" lon="7.39294">
        <ele>459.2</ele>
        <time>2021-08-03T15:52:02Z</time>
      </trkpt>
      <trkpt lat="48.30638" lon="7.39289">
        <ele>459.1</ele>
        <time>2021-08-03T15:52:04Z</time>
      </trkpt>
      <trkpt lat="48.30637" lon="7.39286">
        <ele>459.1</ele>
        <time>2021-08-03T15:52:05Z</time>
      </trkpt>
      <trkpt lat="48.30635" lon="7.3928">
        <ele>459</ele>
        <time>2021-08-03T15:52:07Z</time>
      </trkpt>
      <trkpt lat="48.30631" lon="7.3927">
        <ele>458.8</ele>
        <time>2021-08-03T15:52:08Z</time>
      </trkpt>
      <trkpt lat="48.30629" lon="7.39263">
        <ele>458.6</ele>
        <time>2021-08-03T15:52:10Z</time>
      </trkpt>
      <trkpt lat="48.30629" lon="7.39258">
        <ele>458.5</ele>
        <time>2021-08-03T15:52:11Z</time>
      </trkpt>
      <trkpt lat="48.30629" lon="7.39257">
        <ele>458.5</ele>
        <time>2021-08-03T15:52:12Z</time>
      </trkpt>
      <trkpt lat="48.30629" lon="7.3925">
        <ele>458.4</ele>
        <time>2021-08-03T15:52:14Z</time>
      </trkpt>
      <trkpt lat="48.30626" lon="7.39243">
        <ele>458.2</ele>
        <time>2021-08-03T15:52:15Z</time>
      </trkpt>
      <trkpt lat="48.30623" lon="7.39239">
        <ele>458.1</ele>
        <time>2021-08-03T15:52:16Z</time>
      </trkpt>
      <trkpt lat="48.30619" lon="7.39231">
        <ele>457.9</ele>
        <time>2021-08-03T15:52:18Z</time>
      </trkpt>
      <trkpt lat="48.30614" lon="7.39223">
        <ele>457.7</ele>
        <time>2021-08-03T15:52:20Z</time>
      </trkpt>
      <trkpt lat="48.3061" lon="7.39218">
        <ele>457.7</ele>
        <time>2021-08-03T15:52:21Z</time>
      </trkpt>
      <trkpt lat="48.30607" lon="7.39213">
        <ele>457.6</ele>
        <time>2021-08-03T15:52:22Z</time>
      </trkpt>
      <trkpt lat="48.30605" lon="7.39207">
        <ele>457.5</ele>
        <time>2021-08-03T15:52:24Z</time>
      </trkpt>
      <trkpt lat="48.306" lon="7.39198">
        <ele>457.4</ele>
        <time>2021-08-03T15:52:25Z</time>
      </trkpt>
      <trkpt lat="48.30596" lon="7.3919">
        <ele>457.4</ele>
        <time>2021-08-03T15:52:26Z</time>
      </trkpt>
      <trkpt lat="48.30589" lon="7.39185">
        <ele>457.3</ele>
        <time>2021-08-03T15:52:28Z</time>
      </trkpt>
      <trkpt lat="48.30586" lon="7.39183">
        <ele>457.3</ele>
        <time>2021-08-03T15:52:29Z</time>
      </trkpt>
      <trkpt lat="48.30581" lon="7.39182">
        <ele>457.3</ele>
        <time>2021-08-03T15:52:30Z</time>
      </trkpt>
      <trkpt lat="48.30578" lon="7.39181">
        <ele>457.4</ele>
        <time>2021-08-03T15:52:31Z</time>
      </trkpt>
      <trkpt lat="48.30573" lon="7.39178">
        <ele>457.4</ele>
        <time>2021-08-03T15:52:33Z</time>
      </trkpt>
      <trkpt lat="48.30568" lon="7.39176">
        <ele>457.5</ele>
        <time>2021-08-03T15:52:34Z</time>
      </trkpt>
      <trkpt lat="48.30562" lon="7.39175">
        <ele>457.7</ele>
        <time>2021-08-03T15:52:36Z</time>
      </trkpt>
      <trkpt lat="48.30554" lon="7.39174">
        <ele>457.8</ele>
        <time>2021-08-03T15:52:37Z</time>
      </trkpt>
      <trkpt lat="48.30549" lon="7.39172">
        <ele>457.9</ele>
        <time>2021-08-03T15:52:38Z</time>
      </trkpt>
      <trkpt lat="48.30541" lon="7.39167">
        <ele>458.2</ele>
        <time>2021-08-03T15:52:40Z</time>
      </trkpt>
      <trkpt lat="48.30537" lon="7.39163">
        <ele>458.3</ele>
        <time>2021-08-03T15:52:41Z</time>
      </trkpt>
      <trkpt lat="48.30531" lon="7.39158">
        <ele>458.6</ele>
        <time>2021-08-03T15:52:43Z</time>
      </trkpt>
      <trkpt lat="48.30523" lon="7.39153">
        <ele>459</ele>
        <time>2021-08-03T15:52:44Z</time>
      </trkpt>
      <trkpt lat="48.3052" lon="7.39148">
        <ele>459.2</ele>
        <time>2021-08-03T15:52:46Z</time>
      </trkpt>
      <trkpt lat="48.30517" lon="7.39146">
        <ele>459.4</ele>
        <time>2021-08-03T15:52:47Z</time>
      </trkpt>
      <trkpt lat="48.30513" lon="7.39142">
        <ele>459.7</ele>
        <time>2021-08-03T15:52:49Z</time>
      </trkpt>
      <trkpt lat="48.30509" lon="7.39137">
        <ele>460.1</ele>
        <time>2021-08-03T15:52:50Z</time>
      </trkpt>
      <trkpt lat="48.30506" lon="7.39132">
        <ele>460.4</ele>
        <time>2021-08-03T15:52:51Z</time>
      </trkpt>
      <trkpt lat="48.30502" lon="7.39127">
        <ele>460.7</ele>
        <time>2021-08-03T15:52:53Z</time>
      </trkpt>
      <trkpt lat="48.30499" lon="7.39123">
        <ele>460.9</ele>
        <time>2021-08-03T15:52:54Z</time>
      </trkpt>
      <trkpt lat="48.30495" lon="7.39119">
        <ele>461.2</ele>
        <time>2021-08-03T15:52:55Z</time>
      </trkpt>
      <trkpt lat="48.30493" lon="7.39116">
        <ele>461.4</ele>
        <time>2021-08-03T15:52:57Z</time>
      </trkpt>
      <trkpt lat="48.30491" lon="7.3911">
        <ele>461.5</ele>
        <time>2021-08-03T15:52:58Z</time>
      </trkpt>
      <trkpt lat="48.3049" lon="7.39107">
        <ele>461.6</ele>
        <time>2021-08-03T15:52:59Z</time>
      </trkpt>
      <trkpt lat="48.30489" lon="7.39103">
        <ele>461.7</ele>
        <time>2021-08-03T15:53:01Z</time>
      </trkpt>
      <trkpt lat="48.30488" lon="7.39101">
        <ele>461.8</ele>
        <time>2021-08-03T15:53:02Z</time>
      </trkpt>
      <trkpt lat="48.30487" lon="7.39099">
        <ele>461.8</ele>
        <time>2021-08-03T15:53:03Z</time>
      </trkpt>
      <trkpt lat="48.30484" lon="7.39098">
        <ele>461.9</ele>
        <time>2021-08-03T15:53:04Z</time>
      </trkpt>
      <trkpt lat="48.30483" lon="7.39097">
        <ele>461.9</ele>
        <time>2021-08-03T15:53:05Z</time>
      </trkpt>
      <trkpt lat="48.30482" lon="7.39096">
        <ele>461.9</ele>
        <time>2021-08-03T15:53:07Z</time>
      </trkpt>
      <trkpt lat="48.30481" lon="7.39095">
        <ele>461.9</ele>
        <time>2021-08-03T15:53:08Z</time>
      </trkpt>
      <trkpt lat="48.3048" lon="7.39094">
        <ele>461.9</ele>
        <time>2021-08-03T15:53:09Z</time>
      </trkpt>
      <trkpt lat="48.30478" lon="7.39091">
        <ele>462</ele>
        <time>2021-08-03T15:53:11Z</time>
      </trkpt>
      <trkpt lat="48.30474" lon="7.3909">
        <ele>462</ele>
        <time>2021-08-03T15:53:13Z</time>
      </trkpt>
      <trkpt lat="48.30471" lon="7.3909">
        <ele>462</ele>
        <time>2021-08-03T15:53:14Z</time>
      </trkpt>
      <trkpt lat="48.30468" lon="7.3909">
        <ele>461.9</ele>
        <time>2021-08-03T15:53:16Z</time>
      </trkpt>
      <trkpt lat="48.30467" lon="7.39089">
        <ele>461.9</ele>
        <time>2021-08-03T15:53:17Z</time>
      </trkpt>
      <trkpt lat="48.30466" lon="7.39088">
        <ele>461.9</ele>
        <time>2021-08-03T15:53:19Z</time>
      </trkpt>
      <trkpt lat="48.30463" lon="7.39087">
        <ele>461.9</ele>
        <time>2021-08-03T15:53:20Z</time>
      </trkpt>
      <trkpt lat="48.3046" lon="7.39089">
        <ele>461.8</ele>
        <time>2021-08-03T15:53:22Z</time>
      </trkpt>
      <trkpt lat="48.30458" lon="7.39089">
        <ele>461.8</ele>
        <time>2021-08-03T15:53:23Z</time>
      </trkpt>
      <trkpt lat="48.30454" lon="7.3909">
        <ele>461.7</ele>
        <time>2021-08-03T15:53:25Z</time>
      </trkpt>
      <trkpt lat="48.30454" lon="7.39091">
        <ele>461.7</ele>
        <time>2021-08-03T15:53:26Z</time>
      </trkpt>
      <trkpt lat="48.30453" lon="7.3909">
        <ele>461.7</ele>
        <time>2021-08-03T15:53:27Z</time>
      </trkpt>
      <trkpt lat="48.30449" lon="7.39089">
        <ele>461.6</ele>
        <time>2021-08-03T15:53:29Z</time>
      </trkpt>
      <trkpt lat="48.30446" lon="7.39088">
        <ele>461.5</ele>
        <time>2021-08-03T15:53:30Z</time>
      </trkpt>
      <trkpt lat="48.30444" lon="7.39087">
        <ele>461.5</ele>
        <time>2021-08-03T15:53:31Z</time>
      </trkpt>
      <trkpt lat="48.30439" lon="7.39087">
        <ele>461.4</ele>
        <time>2021-08-03T15:53:33Z</time>
      </trkpt>
      <trkpt lat="48.30435" lon="7.39085">
        <ele>461.3</ele>
        <time>2021-08-03T15:53:35Z</time>
      </trkpt>
      <trkpt lat="48.3043" lon="7.39083">
        <ele>461.1</ele>
        <time>2021-08-03T15:53:36Z</time>
      </trkpt>
      <trkpt lat="48.30424" lon="7.39081">
        <ele>461</ele>
        <time>2021-08-03T15:53:38Z</time>
      </trkpt>
      <trkpt lat="48.30418" lon="7.39077">
        <ele>460.9</ele>
        <time>2021-08-03T15:53:39Z</time>
      </trkpt>
      <trkpt lat="48.30414" lon="7.39073">
        <ele>460.8</ele>
        <time>2021-08-03T15:53:41Z</time>
      </trkpt>
      <trkpt lat="48.3041" lon="7.39069">
        <ele>460.7</ele>
        <time>2021-08-03T15:53:42Z</time>
      </trkpt>
      <trkpt lat="48.30408" lon="7.39068">
        <ele>460.7</ele>
        <time>2021-08-03T15:53:43Z</time>
      </trkpt>
      <trkpt lat="48.30406" lon="7.39065">
        <ele>460.6</ele>
        <time>2021-08-03T15:53:45Z</time>
      </trkpt>
      <trkpt lat="48.30403" lon="7.39063">
        <ele>460.6</ele>
        <time>2021-08-03T15:53:46Z</time>
      </trkpt>
      <trkpt lat="48.304" lon="7.39061">
        <ele>460.6</ele>
        <time>2021-08-03T15:53:47Z</time>
      </trkpt>
      <trkpt lat="48.30396" lon="7.39056">
        <ele>460.5</ele>
        <time>2021-08-03T15:53:49Z</time>
      </trkpt>
      <trkpt lat="48.30394" lon="7.39053">
        <ele>460.5</ele>
        <time>2021-08-03T15:53:50Z</time>
      </trkpt>
      <trkpt lat="48.30392" lon="7.3905">
        <ele>460.4</ele>
        <time>2021-08-03T15:53:52Z</time>
      </trkpt>
      <trkpt lat="48.30389" lon="7.39046">
        <ele>460.4</ele>
        <time>2021-08-03T15:53:53Z</time>
      </trkpt>
      <trkpt lat="48.30384" lon="7.3904">
        <ele>460.3</ele>
        <time>2021-08-03T15:53:54Z</time>
      </trkpt>
      <trkpt lat="48.3038" lon="7.39035">
        <ele>460.3</ele>
        <time>2021-08-03T15:53:56Z</time>
      </trkpt>
      <trkpt lat="48.30378" lon="7.39032">
        <ele>460.2</ele>
        <time>2021-08-03T15:53:57Z</time>
      </trkpt>
      <trkpt lat="48.30375" lon="7.39029">
        <ele>460.2</ele>
        <time>2021-08-03T15:53:58Z</time>
      </trkpt>
      <trkpt lat="48.30372" lon="7.39026">
        <ele>460.1</ele>
        <time>2021-08-03T15:53:59Z</time>
      </trkpt>
      <trkpt lat="48.30368" lon="7.39023">
        <ele>460.1</ele>
        <time>2021-08-03T15:54:00Z</time>
      </trkpt>
      <trkpt lat="48.30365" lon="7.39019">
        <ele>460</ele>
        <time>2021-08-03T15:54:01Z</time>
      </trkpt>
      <trkpt lat="48.30357" lon="7.39013">
        <ele>459.8</ele>
        <time>2021-08-03T15:54:03Z</time>
      </trkpt>
      <trkpt lat="48.30348" lon="7.39008">
        <ele>459.6</ele>
        <time>2021-08-03T15:54:05Z</time>
      </trkpt>
      <trkpt lat="48.3034" lon="7.39002">
        <ele>459.3</ele>
        <time>2021-08-03T15:54:07Z</time>
      </trkpt>
      <trkpt lat="48.3033" lon="7.38994">
        <ele>459.1</ele>
        <time>2021-08-03T15:54:08Z</time>
      </trkpt>
      <trkpt lat="48.30323" lon="7.3899">
        <ele>459</ele>
        <time>2021-08-03T15:54:10Z</time>
      </trkpt>
      <trkpt lat="48.30317" lon="7.38986">
        <ele>458.9</ele>
        <time>2021-08-03T15:54:11Z</time>
      </trkpt>
      <trkpt lat="48.30311" lon="7.38984">
        <ele>458.9</ele>
        <time>2021-08-03T15:54:13Z</time>
      </trkpt>
      <trkpt lat="48.30304" lon="7.38983">
        <ele>458.8</ele>
        <time>2021-08-03T15:54:14Z</time>
      </trkpt>
      <trkpt lat="48.303" lon="7.38983">
        <ele>458.7</ele>
        <time>2021-08-03T15:54:15Z</time>
      </trkpt>
      <trkpt lat="48.30294" lon="7.38984">
        <ele>458.6</ele>
        <time>2021-08-03T15:54:17Z</time>
      </trkpt>
      <trkpt lat="48.30287" lon="7.38987">
        <ele>458.5</ele>
        <time>2021-08-03T15:54:18Z</time>
      </trkpt>
      <trkpt lat="48.30279" lon="7.39001">
        <ele>458.6</ele>
        <time>2021-08-03T15:54:20Z</time>
      </trkpt>
      <trkpt lat="48.30276" lon="7.39007">
        <ele>458.7</ele>
        <time>2021-08-03T15:54:21Z</time>
      </trkpt>
      <trkpt lat="48.30274" lon="7.39013">
        <ele>458.8</ele>
        <time>2021-08-03T15:54:22Z</time>
      </trkpt>
      <trkpt lat="48.30272" lon="7.39019">
        <ele>458.9</ele>
        <time>2021-08-03T15:54:23Z</time>
      </trkpt>
      <trkpt lat="48.30269" lon="7.39028">
        <ele>459.2</ele>
        <time>2021-08-03T15:54:25Z</time>
      </trkpt>
      <trkpt lat="48.30267" lon="7.39037">
        <ele>459.4</ele>
        <time>2021-08-03T15:54:27Z</time>
      </trkpt>
      <trkpt lat="48.30266" lon="7.39043">
        <ele>459.6</ele>
        <time>2021-08-03T15:54:28Z</time>
      </trkpt>
      <trkpt lat="48.30264" lon="7.39049">
        <ele>459.7</ele>
        <time>2021-08-03T15:54:30Z</time>
      </trkpt>
      <trkpt lat="48.30262" lon="7.39056">
        <ele>460</ele>
        <time>2021-08-03T15:54:31Z</time>
      </trkpt>
      <trkpt lat="48.30259" lon="7.39063">
        <ele>460.2</ele>
        <time>2021-08-03T15:54:33Z</time>
      </trkpt>
      <trkpt lat="48.30257" lon="7.39068">
        <ele>460.3</ele>
        <time>2021-08-03T15:54:34Z</time>
      </trkpt>
      <trkpt lat="48.30253" lon="7.39075">
        <ele>460.6</ele>
        <time>2021-08-03T15:54:35Z</time>
      </trkpt>
      <trkpt lat="48.30251" lon="7.3908">
        <ele>460.7</ele>
        <time>2021-08-03T15:54:36Z</time>
      </trkpt>
      <trkpt lat="48.30248" lon="7.39085">
        <ele>460.7</ele>
        <time>2021-08-03T15:54:37Z</time>
      </trkpt>
      <trkpt lat="48.30247" lon="7.39089">
        <ele>460.8</ele>
        <time>2021-08-03T15:54:38Z</time>
      </trkpt>
      <trkpt lat="48.30246" lon="7.39094">
        <ele>460.8</ele>
        <time>2021-08-03T15:54:40Z</time>
      </trkpt>
      <trkpt lat="48.30246" lon="7.39095">
        <ele>460.8</ele>
        <time>2021-08-03T15:54:41Z</time>
      </trkpt>
      <trkpt lat="48.30245" lon="7.39099">
        <ele>460.8</ele>
        <time>2021-08-03T15:54:42Z</time>
      </trkpt>
      <trkpt lat="48.30244" lon="7.39103">
        <ele>460.7</ele>
        <time>2021-08-03T15:54:44Z</time>
      </trkpt>
      <trkpt lat="48.30243" lon="7.39108">
        <ele>460.6</ele>
        <time>2021-08-03T15:54:45Z</time>
      </trkpt>
      <trkpt lat="48.30243" lon="7.39109">
        <ele>460.6</ele>
        <time>2021-08-03T15:54:46Z</time>
      </trkpt>
      <trkpt lat="48.30239" lon="7.39114">
        <ele>460.4</ele>
        <time>2021-08-03T15:54:47Z</time>
      </trkpt>
      <trkpt lat="48.30235" lon="7.39118">
        <ele>460.2</ele>
        <time>2021-08-03T15:54:48Z</time>
      </trkpt>
      <trkpt lat="48.30228" lon="7.39123">
        <ele>459.8</ele>
        <time>2021-08-03T15:54:50Z</time>
      </trkpt>
      <trkpt lat="48.30221" lon="7.39127">
        <ele>459.4</ele>
        <time>2021-08-03T15:54:51Z</time>
      </trkpt>
      <trkpt lat="48.30213" lon="7.39127">
        <ele>459.2</ele>
        <time>2021-08-03T15:54:53Z</time>
      </trkpt>
      <trkpt lat="48.30209" lon="7.39122">
        <ele>459.1</ele>
        <time>2021-08-03T15:54:54Z</time>
      </trkpt>
      <trkpt lat="48.30205" lon="7.39114">
        <ele>459.1</ele>
        <time>2021-08-03T15:54:56Z</time>
      </trkpt>
      <trkpt lat="48.30201" lon="7.39107">
        <ele>459.2</ele>
        <time>2021-08-03T15:54:57Z</time>
      </trkpt>
      <trkpt lat="48.30197" lon="7.39102">
        <ele>459.3</ele>
        <time>2021-08-03T15:54:59Z</time>
      </trkpt>
      <trkpt lat="48.30194" lon="7.39099">
        <ele>459.5</ele>
        <time>2021-08-03T15:55:00Z</time>
      </trkpt>
      <trkpt lat="48.30189" lon="7.39099">
        <ele>459.8</ele>
        <time>2021-08-03T15:55:02Z</time>
      </trkpt>
      <trkpt lat="48.30187" lon="7.39098">
        <ele>459.8</ele>
        <time>2021-08-03T15:55:03Z</time>
      </trkpt>
      <trkpt lat="48.30186" lon="7.39098">
        <ele>459.9</ele>
        <time>2021-08-03T15:55:04Z</time>
      </trkpt>
      <trkpt lat="48.30182" lon="7.39095">
        <ele>460.2</ele>
        <time>2021-08-03T15:55:06Z</time>
      </trkpt>
      <trkpt lat="48.3018" lon="7.39094">
        <ele>460.3</ele>
        <time>2021-08-03T15:55:08Z</time>
      </trkpt>
      <trkpt lat="48.30178" lon="7.39093">
        <ele>460.4</ele>
        <time>2021-08-03T15:55:09Z</time>
      </trkpt>
      <trkpt lat="48.30177" lon="7.39092">
        <ele>460.4</ele>
        <time>2021-08-03T15:55:10Z</time>
      </trkpt>
      <trkpt lat="48.30173" lon="7.39091">
        <ele>460.6</ele>
        <time>2021-08-03T15:55:12Z</time>
      </trkpt>
      <trkpt lat="48.3017" lon="7.39092">
        <ele>460.7</ele>
        <time>2021-08-03T15:55:13Z</time>
      </trkpt>
      <trkpt lat="48.30167" lon="7.39094">
        <ele>460.7</ele>
        <time>2021-08-03T15:55:14Z</time>
      </trkpt>
      <trkpt lat="48.30165" lon="7.39096">
        <ele>460.7</ele>
        <time>2021-08-03T15:55:16Z</time>
      </trkpt>
      <trkpt lat="48.30162" lon="7.391">
        <ele>460.6</ele>
        <time>2021-08-03T15:55:17Z</time>
      </trkpt>
      <trkpt lat="48.3016" lon="7.39103">
        <ele>460.5</ele>
        <time>2021-08-03T15:55:19Z</time>
      </trkpt>
      <trkpt lat="48.30158" lon="7.39106">
        <ele>460.4</ele>
        <time>2021-08-03T15:55:20Z</time>
      </trkpt>
      <trkpt lat="48.30155" lon="7.39111">
        <ele>460.1</ele>
        <time>2021-08-03T15:55:21Z</time>
      </trkpt>
      <trkpt lat="48.30152" lon="7.39115">
        <ele>459.8</ele>
        <time>2021-08-03T15:55:22Z</time>
      </trkpt>
      <trkpt lat="48.30147" lon="7.39118">
        <ele>459.2</ele>
        <time>2021-08-03T15:55:24Z</time>
      </trkpt>
      <trkpt lat="48.30142" lon="7.3912">
        <ele>458.5</ele>
        <time>2021-08-03T15:55:25Z</time>
      </trkpt>
      <trkpt lat="48.30137" lon="7.39122">
        <ele>457.8</ele>
        <time>2021-08-03T15:55:26Z</time>
      </trkpt>
      <trkpt lat="48.3013" lon="7.39127">
        <ele>456.6</ele>
        <time>2021-08-03T15:55:27Z</time>
      </trkpt>
      <trkpt lat="48.30118" lon="7.39134">
        <ele>454.7</ele>
        <time>2021-08-03T15:55:29Z</time>
      </trkpt>
      <trkpt lat="48.30107" lon="7.3914">
        <ele>453.1</ele>
        <time>2021-08-03T15:55:31Z</time>
      </trkpt>
      <trkpt lat="48.30095" lon="7.39146">
        <ele>451.9</ele>
        <time>2021-08-03T15:55:33Z</time>
      </trkpt>
      <trkpt lat="48.30082" lon="7.39145">
        <ele>451.3</ele>
        <time>2021-08-03T15:55:35Z</time>
      </trkpt>
      <trkpt lat="48.3007" lon="7.39141">
        <ele>451.4</ele>
        <time>2021-08-03T15:55:37Z</time>
      </trkpt>
      <trkpt lat="48.30065" lon="7.39141">
        <ele>451.3</ele>
        <time>2021-08-03T15:55:39Z</time>
      </trkpt>
      <trkpt lat="48.30061" lon="7.3914">
        <ele>451.3</ele>
        <time>2021-08-03T15:55:40Z</time>
      </trkpt>
      <trkpt lat="48.30056" lon="7.39138">
        <ele>451.3</ele>
        <time>2021-08-03T15:55:41Z</time>
      </trkpt>
      <trkpt lat="48.30052" lon="7.39136">
        <ele>451.2</ele>
        <time>2021-08-03T15:55:42Z</time>
      </trkpt>
      <trkpt lat="48.30041" lon="7.3913">
        <ele>451</ele>
        <time>2021-08-03T15:55:43Z</time>
      </trkpt>
      <trkpt lat="48.30035" lon="7.39126">
        <ele>450.8</ele>
        <time>2021-08-03T15:55:44Z</time>
      </trkpt>
      <trkpt lat="48.30029" lon="7.39121">
        <ele>450.6</ele>
        <time>2021-08-03T15:55:45Z</time>
      </trkpt>
      <trkpt lat="48.30018" lon="7.39114">
        <ele>450.2</ele>
        <time>2021-08-03T15:55:47Z</time>
      </trkpt>
      <trkpt lat="48.30007" lon="7.39104">
        <ele>450</ele>
        <time>2021-08-03T15:55:49Z</time>
      </trkpt>
      <trkpt lat="48.30003" lon="7.391">
        <ele>449.9</ele>
        <time>2021-08-03T15:55:50Z</time>
      </trkpt>
      <trkpt lat="48.29998" lon="7.39093">
        <ele>449.8</ele>
        <time>2021-08-03T15:55:51Z</time>
      </trkpt>
      <trkpt lat="48.29994" lon="7.39086">
        <ele>449.7</ele>
        <time>2021-08-03T15:55:52Z</time>
      </trkpt>
      <trkpt lat="48.2999" lon="7.39079">
        <ele>449.7</ele>
        <time>2021-08-03T15:55:53Z</time>
      </trkpt>
      <trkpt lat="48.29982" lon="7.39063">
        <ele>449.4</ele>
        <time>2021-08-03T15:55:55Z</time>
      </trkpt>
      <trkpt lat="48.29972" lon="7.39045">
        <ele>448.8</ele>
        <time>2021-08-03T15:55:57Z</time>
      </trkpt>
      <trkpt lat="48.29966" lon="7.39039">
        <ele>448.4</ele>
        <time>2021-08-03T15:55:58Z</time>
      </trkpt>
      <trkpt lat="48.2996" lon="7.39036">
        <ele>448</ele>
        <time>2021-08-03T15:55:59Z</time>
      </trkpt>
      <trkpt lat="48.29953" lon="7.39033">
        <ele>447.6</ele>
        <time>2021-08-03T15:56:00Z</time>
      </trkpt>
      <trkpt lat="48.29947" lon="7.3903">
        <ele>447.4</ele>
        <time>2021-08-03T15:56:01Z</time>
      </trkpt>
      <trkpt lat="48.29934" lon="7.39021">
        <ele>447.5</ele>
        <time>2021-08-03T15:56:03Z</time>
      </trkpt>
      <trkpt lat="48.29924" lon="7.3901">
        <ele>448.1</ele>
        <time>2021-08-03T15:56:05Z</time>
      </trkpt>
      <trkpt lat="48.2992" lon="7.39003">
        <ele>448.3</ele>
        <time>2021-08-03T15:56:06Z</time>
      </trkpt>
      <trkpt lat="48.29911" lon="7.38995">
        <ele>448.6</ele>
        <time>2021-08-03T15:56:08Z</time>
      </trkpt>
      <trkpt lat="48.29908" lon="7.38992">
        <ele>448.7</ele>
        <time>2021-08-03T15:56:09Z</time>
      </trkpt>
      <trkpt lat="48.29905" lon="7.3899">
        <ele>448.8</ele>
        <time>2021-08-03T15:56:11Z</time>
      </trkpt>
      <trkpt lat="48.299" lon="7.38988">
        <ele>448.9</ele>
        <time>2021-08-03T15:56:13Z</time>
      </trkpt>
      <trkpt lat="48.29899" lon="7.38989">
        <ele>448.9</ele>
        <time>2021-08-03T15:56:14Z</time>
      </trkpt>
      <trkpt lat="48.29894" lon="7.3899">
        <ele>449</ele>
        <time>2021-08-03T15:56:16Z</time>
      </trkpt>
      <trkpt lat="48.2989" lon="7.38993">
        <ele>449.1</ele>
        <time>2021-08-03T15:56:17Z</time>
      </trkpt>
      <trkpt lat="48.29889" lon="7.38992">
        <ele>449.1</ele>
        <time>2021-08-03T15:56:19Z</time>
      </trkpt>
      <trkpt lat="48.29888" lon="7.38993">
        <ele>449.2</ele>
        <time>2021-08-03T15:56:20Z</time>
      </trkpt>
      <trkpt lat="48.29887" lon="7.38994">
        <ele>449.2</ele>
        <time>2021-08-03T15:56:21Z</time>
      </trkpt>
      <trkpt lat="48.29886" lon="7.38995">
        <ele>449.2</ele>
        <time>2021-08-03T15:56:22Z</time>
      </trkpt>
      <trkpt lat="48.29884" lon="7.38997">
        <ele>449.3</ele>
        <time>2021-08-03T15:56:23Z</time>
      </trkpt>
      <trkpt lat="48.29879" lon="7.38999">
        <ele>449.4</ele>
        <time>2021-08-03T15:56:25Z</time>
      </trkpt>
      <trkpt lat="48.29875" lon="7.38999">
        <ele>449.5</ele>
        <time>2021-08-03T15:56:27Z</time>
      </trkpt>
      <trkpt lat="48.29872" lon="7.39">
        <ele>449.6</ele>
        <time>2021-08-03T15:56:29Z</time>
      </trkpt>
      <trkpt lat="48.29869" lon="7.39003">
        <ele>449.7</ele>
        <time>2021-08-03T15:56:30Z</time>
      </trkpt>
      <trkpt lat="48.29868" lon="7.39003">
        <ele>449.7</ele>
        <time>2021-08-03T15:56:31Z</time>
      </trkpt>
      <trkpt lat="48.29863" lon="7.39003">
        <ele>449.9</ele>
        <time>2021-08-03T15:56:33Z</time>
      </trkpt>
      <trkpt lat="48.29859" lon="7.39003">
        <ele>450</ele>
        <time>2021-08-03T15:56:34Z</time>
      </trkpt>
      <trkpt lat="48.29856" lon="7.39003">
        <ele>450.1</ele>
        <time>2021-08-03T15:56:35Z</time>
      </trkpt>
      <trkpt lat="48.2985" lon="7.39001">
        <ele>450.3</ele>
        <time>2021-08-03T15:56:37Z</time>
      </trkpt>
      <trkpt lat="48.29846" lon="7.39002">
        <ele>450.3</ele>
        <time>2021-08-03T15:56:38Z</time>
      </trkpt>
      <trkpt lat="48.29845" lon="7.39002">
        <ele>450.3</ele>
        <time>2021-08-03T15:56:39Z</time>
      </trkpt>
      <trkpt lat="48.29843" lon="7.39003">
        <ele>450.4</ele>
        <time>2021-08-03T15:56:40Z</time>
      </trkpt>
      <trkpt lat="48.2984" lon="7.39003">
        <ele>450.4</ele>
        <time>2021-08-03T15:56:42Z</time>
      </trkpt>
      <trkpt lat="48.29837" lon="7.39005">
        <ele>450.4</ele>
        <time>2021-08-03T15:56:43Z</time>
      </trkpt>
      <trkpt lat="48.29836" lon="7.39006">
        <ele>450.4</ele>
        <time>2021-08-03T15:56:45Z</time>
      </trkpt>
      <trkpt lat="48.29834" lon="7.39011">
        <ele>450.3</ele>
        <time>2021-08-03T15:56:46Z</time>
      </trkpt>
      <trkpt lat="48.29833" lon="7.39013">
        <ele>450.3</ele>
        <time>2021-08-03T15:56:47Z</time>
      </trkpt>
      <trkpt lat="48.29832" lon="7.39017">
        <ele>450.3</ele>
        <time>2021-08-03T15:56:48Z</time>
      </trkpt>
      <trkpt lat="48.29831" lon="7.39024">
        <ele>450.2</ele>
        <time>2021-08-03T15:56:50Z</time>
      </trkpt>
      <trkpt lat="48.29831" lon="7.3903">
        <ele>450.1</ele>
        <time>2021-08-03T15:56:51Z</time>
      </trkpt>
      <trkpt lat="48.2983" lon="7.39036">
        <ele>450</ele>
        <time>2021-08-03T15:56:53Z</time>
      </trkpt>
      <trkpt lat="48.29828" lon="7.39044">
        <ele>449.9</ele>
        <time>2021-08-03T15:56:54Z</time>
      </trkpt>
      <trkpt lat="48.29824" lon="7.39052">
        <ele>449.8</ele>
        <time>2021-08-03T15:56:56Z</time>
      </trkpt>
      <trkpt lat="48.29822" lon="7.39056">
        <ele>449.7</ele>
        <time>2021-08-03T15:56:57Z</time>
      </trkpt>
      <trkpt lat="48.29818" lon="7.3906">
        <ele>449.7</ele>
        <time>2021-08-03T15:56:58Z</time>
      </trkpt>
      <trkpt lat="48.29815" lon="7.39063">
        <ele>449.6</ele>
        <time>2021-08-03T15:56:59Z</time>
      </trkpt>
      <trkpt lat="48.29811" lon="7.39067">
        <ele>449.6</ele>
        <time>2021-08-03T15:57:01Z</time>
      </trkpt>
      <trkpt lat="48.29804" lon="7.39071">
        <ele>449.6</ele>
        <time>2021-08-03T15:57:02Z</time>
      </trkpt>
      <trkpt lat="48.29796" lon="7.39077">
        <ele>449.6</ele>
        <time>2021-08-03T15:57:04Z</time>
      </trkpt>
      <trkpt lat="48.29787" lon="7.39081">
        <ele>449.6</ele>
        <time>2021-08-03T15:57:06Z</time>
      </trkpt>
      <trkpt lat="48.29783" lon="7.39082">
        <ele>449.4</ele>
        <time>2021-08-03T15:57:07Z</time>
      </trkpt>
      <trkpt lat="48.29779" lon="7.39083">
        <ele>449.3</ele>
        <time>2021-08-03T15:57:08Z</time>
      </trkpt>
      <trkpt lat="48.29774" lon="7.39085">
        <ele>449.1</ele>
        <time>2021-08-03T15:57:10Z</time>
      </trkpt>
      <trkpt lat="48.29769" lon="7.39083">
        <ele>448.9</ele>
        <time>2021-08-03T15:57:12Z</time>
      </trkpt>
      <trkpt lat="48.29768" lon="7.39082">
        <ele>448.9</ele>
        <time>2021-08-03T15:57:14Z</time>
      </trkpt>
      <trkpt lat="48.29766" lon="7.39081">
        <ele>448.8</ele>
        <time>2021-08-03T15:57:15Z</time>
      </trkpt>
      <trkpt lat="48.29764" lon="7.3908">
        <ele>448.8</ele>
        <time>2021-08-03T15:57:16Z</time>
      </trkpt>
      <trkpt lat="48.29763" lon="7.39079">
        <ele>448.7</ele>
        <time>2021-08-03T15:57:17Z</time>
      </trkpt>
      <trkpt lat="48.2976" lon="7.39078">
        <ele>448.6</ele>
        <time>2021-08-03T15:57:19Z</time>
      </trkpt>
      <trkpt lat="48.29757" lon="7.3908">
        <ele>448.6</ele>
        <time>2021-08-03T15:57:20Z</time>
      </trkpt>
      <trkpt lat="48.29754" lon="7.39083">
        <ele>448.5</ele>
        <time>2021-08-03T15:57:21Z</time>
      </trkpt>
      <trkpt lat="48.29747" lon="7.39087">
        <ele>448.2</ele>
        <time>2021-08-03T15:57:23Z</time>
      </trkpt>
      <trkpt lat="48.29742" lon="7.3909">
        <ele>448</ele>
        <time>2021-08-03T15:57:25Z</time>
      </trkpt>
      <trkpt lat="48.29739" lon="7.39093">
        <ele>447.8</ele>
        <time>2021-08-03T15:57:26Z</time>
      </trkpt>
      <trkpt lat="48.29737" lon="7.39096">
        <ele>447.5</ele>
        <time>2021-08-03T15:57:28Z</time>
      </trkpt>
      <trkpt lat="48.29731" lon="7.39101">
        <ele>447</ele>
        <time>2021-08-03T15:57:29Z</time>
      </trkpt>
      <trkpt lat="48.29724" lon="7.39108">
        <ele>446.1</ele>
        <time>2021-08-03T15:57:31Z</time>
      </trkpt>
      <trkpt lat="48.29718" lon="7.39113">
        <ele>445.4</ele>
        <time>2021-08-03T15:57:32Z</time>
      </trkpt>
      <trkpt lat="48.29715" lon="7.39116">
        <ele>445</ele>
        <time>2021-08-03T15:57:33Z</time>
      </trkpt>
      <trkpt lat="48.29709" lon="7.39118">
        <ele>444.5</ele>
        <time>2021-08-03T15:57:35Z</time>
      </trkpt>
      <trkpt lat="48.29704" lon="7.39118">
        <ele>444.2</ele>
        <time>2021-08-03T15:57:36Z</time>
      </trkpt>
      <trkpt lat="48.29699" lon="7.39116">
        <ele>443.9</ele>
        <time>2021-08-03T15:57:37Z</time>
      </trkpt>
      <trkpt lat="48.29694" lon="7.39114">
        <ele>443.7</ele>
        <time>2021-08-03T15:57:38Z</time>
      </trkpt>
      <trkpt lat="48.29686" lon="7.39112">
        <ele>443.7</ele>
        <time>2021-08-03T15:57:40Z</time>
      </trkpt>
      <trkpt lat="48.29679" lon="7.39113">
        <ele>443.8</ele>
        <time>2021-08-03T15:57:42Z</time>
      </trkpt>
      <trkpt lat="48.29674" lon="7.39116">
        <ele>443.8</ele>
        <time>2021-08-03T15:57:43Z</time>
      </trkpt>
      <trkpt lat="48.2967" lon="7.39117">
        <ele>443.9</ele>
        <time>2021-08-03T15:57:45Z</time>
      </trkpt>
      <trkpt lat="48.29667" lon="7.39118">
        <ele>443.9</ele>
        <time>2021-08-03T15:57:46Z</time>
      </trkpt>
      <trkpt lat="48.29665" lon="7.39117">
        <ele>443.9</ele>
        <time>2021-08-03T15:57:47Z</time>
      </trkpt>
      <trkpt lat="48.2966" lon="7.39117">
        <ele>443.8</ele>
        <time>2021-08-03T15:57:49Z</time>
      </trkpt>
      <trkpt lat="48.29657" lon="7.39117">
        <ele>443.7</ele>
        <time>2021-08-03T15:57:50Z</time>
      </trkpt>
      <trkpt lat="48.29656" lon="7.39117">
        <ele>443.7</ele>
        <time>2021-08-03T15:57:51Z</time>
      </trkpt>
      <trkpt lat="48.29652" lon="7.39118">
        <ele>443.5</ele>
        <time>2021-08-03T15:57:53Z</time>
      </trkpt>
      <trkpt lat="48.2965" lon="7.39119">
        <ele>443.4</ele>
        <time>2021-08-03T15:57:54Z</time>
      </trkpt>
      <trkpt lat="48.29647" lon="7.3912">
        <ele>443.2</ele>
        <time>2021-08-03T15:57:55Z</time>
      </trkpt>
      <trkpt lat="48.29636" lon="7.39119">
        <ele>441.8</ele>
        <time>2021-08-03T15:57:57Z</time>
      </trkpt>
      <trkpt lat="48.29633" lon="7.39121">
        <ele>441.2</ele>
        <time>2021-08-03T15:57:58Z</time>
      </trkpt>
      <trkpt lat="48.29631" lon="7.39123">
        <ele>440.8</ele>
        <time>2021-08-03T15:57:59Z</time>
      </trkpt>
      <trkpt lat="48.29627" lon="7.3912">
        <ele>439.9</ele>
        <time>2021-08-03T15:58:01Z</time>
      </trkpt>
      <trkpt lat="48.29624" lon="7.39117">
        <ele>439.1</ele>
        <time>2021-08-03T15:58:02Z</time>
      </trkpt>
      <trkpt lat="48.29622" lon="7.39115">
        <ele>438.5</ele>
        <time>2021-08-03T15:58:03Z</time>
      </trkpt>
      <trkpt lat="48.2962" lon="7.39113">
        <ele>437.7</ele>
        <time>2021-08-03T15:58:05Z</time>
      </trkpt>
      <trkpt lat="48.29617" lon="7.39111">
        <ele>436.9</ele>
        <time>2021-08-03T15:58:06Z</time>
      </trkpt>
      <trkpt lat="48.29614" lon="7.39107">
        <ele>436.1</ele>
        <time>2021-08-03T15:58:07Z</time>
      </trkpt>
      <trkpt lat="48.29612" lon="7.39106">
        <ele>435.4</ele>
        <time>2021-08-03T15:58:08Z</time>
      </trkpt>
      <trkpt lat="48.29608" lon="7.39106">
        <ele>434.5</ele>
        <time>2021-08-03T15:58:10Z</time>
      </trkpt>
      <trkpt lat="48.29604" lon="7.39107">
        <ele>433.7</ele>
        <time>2021-08-03T15:58:11Z</time>
      </trkpt>
      <trkpt lat="48.29602" lon="7.39109">
        <ele>433.2</ele>
        <time>2021-08-03T15:58:12Z</time>
      </trkpt>
      <trkpt lat="48.296" lon="7.39115">
        <ele>432.4</ele>
        <time>2021-08-03T15:58:14Z</time>
      </trkpt>
      <trkpt lat="48.29598" lon="7.3912">
        <ele>431.7</ele>
        <time>2021-08-03T15:58:15Z</time>
      </trkpt>
      <trkpt lat="48.29594" lon="7.39127">
        <ele>430.9</ele>
        <time>2021-08-03T15:58:17Z</time>
      </trkpt>
      <trkpt lat="48.29592" lon="7.39133">
        <ele>430.4</ele>
        <time>2021-08-03T15:58:18Z</time>
      </trkpt>
      <trkpt lat="48.2959" lon="7.39136">
        <ele>430</ele>
        <time>2021-08-03T15:58:19Z</time>
      </trkpt>
      <trkpt lat="48.29586" lon="7.39139">
        <ele>429.4</ele>
        <time>2021-08-03T15:58:21Z</time>
      </trkpt>
      <trkpt lat="48.29584" lon="7.39143">
        <ele>428.9</ele>
        <time>2021-08-03T15:58:22Z</time>
      </trkpt>
      <trkpt lat="48.29583" lon="7.39145">
        <ele>428.7</ele>
        <time>2021-08-03T15:58:23Z</time>
      </trkpt>
      <trkpt lat="48.29582" lon="7.39148">
        <ele>428.3</ele>
        <time>2021-08-03T15:58:24Z</time>
      </trkpt>
      <trkpt lat="48.29581" lon="7.39154">
        <ele>426.3</ele>
        <time>2021-08-03T15:58:26Z</time>
      </trkpt>
      <trkpt lat="48.29579" lon="7.39156">
        <ele>426.3</ele>
        <time>2021-08-03T15:58:27Z</time>
      </trkpt>
      <trkpt lat="48.29578" lon="7.39155">
        <ele>426.2</ele>
        <time>2021-08-03T15:58:28Z</time>
      </trkpt>
      <trkpt lat="48.29577" lon="7.39155">
        <ele>426.2</ele>
        <time>2021-08-03T15:58:29Z</time>
      </trkpt>
      <trkpt lat="48.29574" lon="7.39156">
        <ele>426.1</ele>
        <time>2021-08-03T15:58:31Z</time>
      </trkpt>
      <trkpt lat="48.29572" lon="7.39156">
        <ele>424.7</ele>
        <time>2021-08-03T15:58:32Z</time>
      </trkpt>
      <trkpt lat="48.2957" lon="7.39156">
        <ele>424.2</ele>
        <time>2021-08-03T15:58:33Z</time>
      </trkpt>
      <trkpt lat="48.29565" lon="7.39144">
        <ele>420.8</ele>
        <time>2021-08-03T15:58:35Z</time>
      </trkpt>
      <trkpt lat="48.29561" lon="7.39132">
        <ele>417.8</ele>
        <time>2021-08-03T15:58:36Z</time>
      </trkpt>
      <trkpt lat="48.29557" lon="7.39121">
        <ele>415.1</ele>
        <time>2021-08-03T15:59:37Z</time>
      </trkpt>
      <trkpt lat="48.29553" lon="7.3911">
        <ele>412.6</ele>
        <time>2021-08-03T15:59:38Z</time>
      </trkpt>
      <trkpt lat="48.29551" lon="7.39101">
        <ele>411.1</ele>
        <time>2021-08-03T15:59:39Z</time>
      </trkpt>
      <trkpt lat="48.2955" lon="7.39089">
        <ele>409.2</ele>
        <time>2021-08-03T15:59:41Z</time>
      </trkpt>
      <trkpt lat="48.2955" lon="7.39084">
        <ele>408.4</ele>
        <time>2021-08-03T15:59:42Z</time>
      </trkpt>
      <trkpt lat="48.2955" lon="7.3908">
        <ele>407.9</ele>
        <time>2021-08-03T15:59:43Z</time>
      </trkpt>
      <trkpt lat="48.29549" lon="7.39073">
        <ele>406.9</ele>
        <time>2021-08-03T15:59:45Z</time>
      </trkpt>
      <trkpt lat="48.29548" lon="7.39068">
        <ele>406.2</ele>
        <time>2021-08-03T15:59:47Z</time>
      </trkpt>
      <trkpt lat="48.29549" lon="7.39065">
        <ele>405.9</ele>
        <time>2021-08-03T15:59:48Z</time>
      </trkpt>
      <trkpt lat="48.2955" lon="7.39061">
        <ele>405.2</ele>
        <time>2021-08-03T15:59:50Z</time>
      </trkpt>
      <trkpt lat="48.2955" lon="7.39057">
        <ele>404.7</ele>
        <time>2021-08-03T15:59:51Z</time>
      </trkpt>
      <trkpt lat="48.29551" lon="7.39053">
        <ele>404.1</ele>
        <time>2021-08-03T15:59:53Z</time>
      </trkpt>
      <trkpt lat="48.29551" lon="7.39049">
        <ele>403.5</ele>
        <time>2021-08-03T15:59:54Z</time>
      </trkpt>
      <trkpt lat="48.29551" lon="7.39044">
        <ele>402.6</ele>
        <time>2021-08-03T15:59:56Z</time>
      </trkpt>
      <trkpt lat="48.29552" lon="7.39039">
        <ele>401.7</ele>
        <time>2021-08-03T15:59:57Z</time>
      </trkpt>
      <trkpt lat="48.29551" lon="7.39034">
        <ele>400.8</ele>
        <time>2021-08-03T15:59:58Z</time>
      </trkpt>
      <trkpt lat="48.29551" lon="7.39032">
        <ele>400.5</ele>
        <time>2021-08-03T15:59:59Z</time>
      </trkpt>
      <trkpt lat="48.29548" lon="7.39029">
        <ele>399.6</ele>
        <time>2021-08-03T16:00:01Z</time>
      </trkpt>
      <trkpt lat="48.29547" lon="7.39029">
        <ele>399.3</ele>
        <time>2021-08-03T16:00:02Z</time>
      </trkpt>
      <trkpt lat="48.29546" lon="7.39026">
        <ele>398.5</ele>
        <time>2021-08-03T16:00:03Z</time>
      </trkpt>
      <trkpt lat="48.29545" lon="7.39023">
        <ele>397.9</ele>
        <time>2021-08-03T16:00:05Z</time>
      </trkpt>
      <trkpt lat="48.29545" lon="7.39021">
        <ele>397.6</ele>
        <time>2021-08-03T16:00:06Z</time>
      </trkpt>
      <trkpt lat="48.29544" lon="7.39019">
        <ele>397.1</ele>
        <time>2021-08-03T16:00:07Z</time>
      </trkpt>
      <trkpt lat="48.2954" lon="7.39014">
        <ele>395.8</ele>
        <time>2021-08-03T16:00:09Z</time>
      </trkpt>
      <trkpt lat="48.29537" lon="7.3901">
        <ele>394.8</ele>
        <time>2021-08-03T16:00:10Z</time>
      </trkpt>
      <trkpt lat="48.29536" lon="7.39005">
        <ele>394</ele>
        <time>2021-08-03T16:00:11Z</time>
      </trkpt>
      <trkpt lat="48.29534" lon="7.38996">
        <ele>392.8</ele>
        <time>2021-08-03T16:00:13Z</time>
      </trkpt>
      <trkpt lat="48.29532" lon="7.3899">
        <ele>392.1</ele>
        <time>2021-08-03T16:00:14Z</time>
      </trkpt>
      <trkpt lat="48.29531" lon="7.38988">
        <ele>391.8</ele>
        <time>2021-08-03T16:00:15Z</time>
      </trkpt>
      <trkpt lat="48.29531" lon="7.38986">
        <ele>391.5</ele>
        <time>2021-08-03T16:00:16Z</time>
      </trkpt>
      <trkpt lat="48.2953" lon="7.38984">
        <ele>391.3</ele>
        <time>2021-08-03T16:00:17Z</time>
      </trkpt>
      <trkpt lat="48.2953" lon="7.38981">
        <ele>390.9</ele>
        <time>2021-08-03T16:00:18Z</time>
      </trkpt>
      <trkpt lat="48.29529" lon="7.38977">
        <ele>390.6</ele>
        <time>2021-08-03T16:00:20Z</time>
      </trkpt>
      <trkpt lat="48.29528" lon="7.38974">
        <ele>390.2</ele>
        <time>2021-08-03T16:00:21Z</time>
      </trkpt>
      <trkpt lat="48.29527" lon="7.38971">
        <ele>389.9</ele>
        <time>2021-08-03T16:00:22Z</time>
      </trkpt>
      <trkpt lat="48.29527" lon="7.38968">
        <ele>389.5</ele>
        <time>2021-08-03T16:00:23Z</time>
      </trkpt>
      <trkpt lat="48.29526" lon="7.38965">
        <ele>389.2</ele>
        <time>2021-08-03T16:00:25Z</time>
      </trkpt>
      <trkpt lat="48.29525" lon="7.38961">
        <ele>388.9</ele>
        <time>2021-08-03T16:00:27Z</time>
      </trkpt>
      <trkpt lat="48.29524" lon="7.38958">
        <ele>388.6</ele>
        <time>2021-08-03T16:00:40Z</time>
      </trkpt>
      <trkpt lat="48.29523" lon="7.38955">
        <ele>388.4</ele>
        <time>2021-08-03T16:00:41Z</time>
      </trkpt>
      <trkpt lat="48.29522" lon="7.3895">
        <ele>388</ele>
        <time>2021-08-03T16:00:42Z</time>
      </trkpt>
      <trkpt lat="48.29521" lon="7.38943">
        <ele>387.6</ele>
        <time>2021-08-03T16:00:44Z</time>
      </trkpt>
      <trkpt lat="48.29522" lon="7.38937">
        <ele>386.8</ele>
        <time>2021-08-03T16:00:45Z</time>
      </trkpt>
      <trkpt lat="48.29523" lon="7.38933">
        <ele>386.6</ele>
        <time>2021-08-03T16:00:46Z</time>
      </trkpt>
      <trkpt lat="48.29522" lon="7.38929">
        <ele>386.3</ele>
        <time>2021-08-03T16:00:47Z</time>
      </trkpt>
      <trkpt lat="48.29524" lon="7.38924">
        <ele>385.9</ele>
        <time>2021-08-03T16:00:49Z</time>
      </trkpt>
      <trkpt lat="48.29525" lon="7.38922">
        <ele>385.7</ele>
        <time>2021-08-03T16:00:50Z</time>
      </trkpt>
      <trkpt lat="48.29528" lon="7.38917">
        <ele>385</ele>
        <time>2021-08-03T16:00:52Z</time>
      </trkpt>
      <trkpt lat="48.29529" lon="7.38914">
        <ele>384.6</ele>
        <time>2021-08-03T16:00:53Z</time>
      </trkpt>
      <trkpt lat="48.29534" lon="7.3891">
        <ele>383.6</ele>
        <time>2021-08-03T16:00:55Z</time>
      </trkpt>
      <trkpt lat="48.29537" lon="7.38907">
        <ele>383</ele>
        <time>2021-08-03T16:00:56Z</time>
      </trkpt>
      <trkpt lat="48.29537" lon="7.38901">
        <ele>382.3</ele>
        <time>2021-08-03T16:00:58Z</time>
      </trkpt>
      <trkpt lat="48.29537" lon="7.389">
        <ele>382.1</ele>
        <time>2021-08-03T16:00:59Z</time>
      </trkpt>
      <trkpt lat="48.29537" lon="7.38896">
        <ele>381.6</ele>
        <time>2021-08-03T16:01:00Z</time>
      </trkpt>
      <trkpt lat="48.29536" lon="7.3889">
        <ele>380.8</ele>
        <time>2021-08-03T16:01:01Z</time>
      </trkpt>
      <trkpt lat="48.29535" lon="7.38888">
        <ele>380.5</ele>
        <time>2021-08-03T16:01:02Z</time>
      </trkpt>
      <trkpt lat="48.29535" lon="7.38883">
        <ele>379.9</ele>
        <time>2021-08-03T16:01:04Z</time>
      </trkpt>
      <trkpt lat="48.29536" lon="7.38883">
        <ele>379.8</ele>
        <time>2021-08-03T16:01:05Z</time>
      </trkpt>
      <trkpt lat="48.29536" lon="7.38882">
        <ele>379.7</ele>
        <time>2021-08-03T16:01:06Z</time>
      </trkpt>
      <trkpt lat="48.29537" lon="7.38882">
        <ele>379.5</ele>
        <time>2021-08-03T16:01:08Z</time>
      </trkpt>
      <trkpt lat="48.29538" lon="7.38881">
        <ele>379.4</ele>
        <time>2021-08-03T16:01:09Z</time>
      </trkpt>
      <trkpt lat="48.29539" lon="7.38881">
        <ele>379.1</ele>
        <time>2021-08-03T16:01:10Z</time>
      </trkpt>
      <trkpt lat="48.2954" lon="7.38881">
        <ele>378.9</ele>
        <time>2021-08-03T16:01:11Z</time>
      </trkpt>
      <trkpt lat="48.29543" lon="7.3888">
        <ele>378.8</ele>
        <time>2021-08-03T16:01:13Z</time>
      </trkpt>
      <trkpt lat="48.29555" lon="7.38877">
        <ele>378.4</ele>
        <time>2021-08-03T16:01:21Z</time>
      </trkpt>
      <trkpt lat="48.29561" lon="7.38874">
        <ele>378.2</ele>
        <time>2021-08-03T16:01:22Z</time>
      </trkpt>
      <trkpt lat="48.29564" lon="7.38872">
        <ele>378.1</ele>
        <time>2021-08-03T16:01:23Z</time>
      </trkpt>
      <trkpt lat="48.29571" lon="7.38869">
        <ele>377.7</ele>
        <time>2021-08-03T16:01:25Z</time>
      </trkpt>
      <trkpt lat="48.29578" lon="7.38866">
        <ele>376.8</ele>
        <time>2021-08-03T16:01:27Z</time>
      </trkpt>
      <trkpt lat="48.29579" lon="7.38867">
        <ele>376.5</ele>
        <time>2021-08-03T16:01:28Z</time>
      </trkpt>
      <trkpt lat="48.29584" lon="7.3887">
        <ele>375.3</ele>
        <time>2021-08-03T16:01:30Z</time>
      </trkpt>
      <trkpt lat="48.29584" lon="7.38865">
        <ele>374.5</ele>
        <time>2021-08-03T16:01:31Z</time>
      </trkpt>
      <trkpt lat="48.29583" lon="7.3886">
        <ele>373.6</ele>
        <time>2021-08-03T16:01:32Z</time>
      </trkpt>
      <trkpt lat="48.29582" lon="7.38856">
        <ele>372.7</ele>
        <time>2021-08-03T16:01:34Z</time>
      </trkpt>
      <trkpt lat="48.29581" lon="7.38851">
        <ele>371.9</ele>
        <time>2021-08-03T16:01:35Z</time>
      </trkpt>
      <trkpt lat="48.2958" lon="7.38846">
        <ele>371.1</ele>
        <time>2021-08-03T16:02:23Z</time>
      </trkpt>
      <trkpt lat="48.29579" lon="7.38842">
        <ele>370.3</ele>
        <time>2021-08-03T16:02:24Z</time>
      </trkpt>
      <trkpt lat="48.29577" lon="7.38839">
        <ele>369.7</ele>
        <time>2021-08-03T16:02:26Z</time>
      </trkpt>
      <trkpt lat="48.29574" lon="7.38835">
        <ele>368.6</ele>
        <time>2021-08-03T16:02:27Z</time>
      </trkpt>
      <trkpt lat="48.29571" lon="7.38831">
        <ele>367.6</ele>
        <time>2021-08-03T16:02:28Z</time>
      </trkpt>
      <trkpt lat="48.2957" lon="7.38829">
        <ele>367.3</ele>
        <time>2021-08-03T16:02:29Z</time>
      </trkpt>
      <trkpt lat="48.29568" lon="7.38825">
        <ele>366.4</ele>
        <time>2021-08-03T16:02:30Z</time>
      </trkpt>
      <trkpt lat="48.29567" lon="7.38821">
        <ele>365.7</ele>
        <time>2021-08-03T16:02:31Z</time>
      </trkpt>
      <trkpt lat="48.29566" lon="7.38813">
        <ele>364.3</ele>
        <time>2021-08-03T16:02:33Z</time>
      </trkpt>
      <trkpt lat="48.29566" lon="7.38808">
        <ele>363.6</ele>
        <time>2021-08-03T16:02:34Z</time>
      </trkpt>
      <trkpt lat="48.29565" lon="7.38803">
        <ele>362.8</ele>
        <time>2021-08-03T16:02:35Z</time>
      </trkpt>
      <trkpt lat="48.29564" lon="7.38797">
        <ele>361.9</ele>
        <time>2021-08-03T16:02:36Z</time>
      </trkpt>
      <trkpt lat="48.29563" lon="7.38787">
        <ele>360.6</ele>
        <time>2021-08-03T16:02:38Z</time>
      </trkpt>
      <trkpt lat="48.29562" lon="7.38781">
        <ele>359.7</ele>
        <time>2021-08-03T16:02:39Z</time>
      </trkpt>
      <trkpt lat="48.2956" lon="7.38775">
        <ele>358.8</ele>
        <time>2021-08-03T16:02:40Z</time>
      </trkpt>
      <trkpt lat="48.29558" lon="7.38767">
        <ele>357.7</ele>
        <time>2021-08-03T16:02:42Z</time>
      </trkpt>
      <trkpt lat="48.29555" lon="7.38763">
        <ele>356.9</ele>
        <time>2021-08-03T16:02:43Z</time>
      </trkpt>
      <trkpt lat="48.29554" lon="7.38762">
        <ele>356.6</ele>
        <time>2021-08-03T16:02:44Z</time>
      </trkpt>
      <trkpt lat="48.29553" lon="7.38757">
        <ele>355.9</ele>
        <time>2021-08-03T16:02:45Z</time>
      </trkpt>
      <trkpt lat="48.29552" lon="7.38756">
        <ele>355.6</ele>
        <time>2021-08-03T16:02:46Z</time>
      </trkpt>
      <trkpt lat="48.2955" lon="7.38754">
        <ele>355.2</ele>
        <time>2021-08-03T16:02:47Z</time>
      </trkpt>
      <trkpt lat="48.29548" lon="7.38751">
        <ele>354.5</ele>
        <time>2021-08-03T16:02:49Z</time>
      </trkpt>
      <trkpt lat="48.29546" lon="7.38748">
        <ele>354.1</ele>
        <time>2021-08-03T16:02:50Z</time>
      </trkpt>
      <trkpt lat="48.29545" lon="7.38748">
        <ele>353.9</ele>
        <time>2021-08-03T16:02:51Z</time>
      </trkpt>
      <trkpt lat="48.29543" lon="7.38747">
        <ele>353.4</ele>
        <time>2021-08-03T16:02:52Z</time>
      </trkpt>
      <trkpt lat="48.29542" lon="7.38745">
        <ele>353.2</ele>
        <time>2021-08-03T16:02:54Z</time>
      </trkpt>
      <trkpt lat="48.29541" lon="7.38744">
        <ele>352.9</ele>
        <time>2021-08-03T16:02:55Z</time>
      </trkpt>
      <trkpt lat="48.29539" lon="7.3874">
        <ele>352.3</ele>
        <time>2021-08-03T16:02:57Z</time>
      </trkpt>
      <trkpt lat="48.29539" lon="7.38738">
        <ele>352.1</ele>
        <time>2021-08-03T16:02:58Z</time>
      </trkpt>
      <trkpt lat="48.29538" lon="7.38737">
        <ele>351.8</ele>
        <time>2021-08-03T16:02:59Z</time>
      </trkpt>
      <trkpt lat="48.29537" lon="7.38736">
        <ele>351.6</ele>
        <time>2021-08-03T16:03:01Z</time>
      </trkpt>
      <trkpt lat="48.29536" lon="7.38736">
        <ele>351.5</ele>
        <time>2021-08-03T16:03:02Z</time>
      </trkpt>
      <trkpt lat="48.29535" lon="7.38735">
        <ele>351.3</ele>
        <time>2021-08-03T16:03:04Z</time>
      </trkpt>
      <trkpt lat="48.29534" lon="7.38734">
        <ele>351.1</ele>
        <time>2021-08-03T16:03:06Z</time>
      </trkpt>
      <trkpt lat="48.29533" lon="7.38734">
        <ele>350.8</ele>
        <time>2021-08-03T16:03:07Z</time>
      </trkpt>
      <trkpt lat="48.29532" lon="7.38732">
        <ele>350.5</ele>
        <time>2021-08-03T16:03:09Z</time>
      </trkpt>
      <trkpt lat="48.29446" lon="7.38636">
        <ele>329.3</ele>
        <time>2021-08-03T16:03:44Z</time>
      </trkpt>
      <trkpt lat="48.29438" lon="7.38635">
        <ele>327.9</ele>
        <time>2021-08-03T16:03:45Z</time>
      </trkpt>
      <trkpt lat="48.2943" lon="7.38635">
        <ele>326.4</ele>
        <time>2021-08-03T16:03:46Z</time>
      </trkpt>
      <trkpt lat="48.29423" lon="7.38635">
        <ele>325</ele>
        <time>2021-08-03T16:03:47Z</time>
      </trkpt>
      <trkpt lat="48.29409" lon="7.38633">
        <ele>322.7</ele>
        <time>2021-08-03T16:03:49Z</time>
      </trkpt>
      <trkpt lat="48.29405" lon="7.38631">
        <ele>322</ele>
        <time>2021-08-03T16:03:50Z</time>
      </trkpt>
      <trkpt lat="48.29385" lon="7.38622">
        <ele>318.6</ele>
        <time>2021-08-03T16:03:52Z</time>
      </trkpt>
      <trkpt lat="48.29376" lon="7.38618">
        <ele>317.3</ele>
        <time>2021-08-03T16:03:53Z</time>
      </trkpt>
      <trkpt lat="48.29369" lon="7.38615">
        <ele>316.4</ele>
        <time>2021-08-03T16:03:54Z</time>
      </trkpt>
      <trkpt lat="48.29364" lon="7.38613">
        <ele>315.8</ele>
        <time>2021-08-03T16:03:55Z</time>
      </trkpt>
      <trkpt lat="48.2936" lon="7.38612">
        <ele>315.3</ele>
        <time>2021-08-03T16:03:57Z</time>
      </trkpt>
      <trkpt lat="48.29358" lon="7.38614">
        <ele>315</ele>
        <time>2021-08-03T16:03:58Z</time>
      </trkpt>
      <trkpt lat="48.29352" lon="7.38611">
        <ele>315</ele>
        <time>2021-08-03T16:04:00Z</time>
      </trkpt>
      <trkpt lat="48.29349" lon="7.3861">
        <ele>315</ele>
        <time>2021-08-03T16:04:02Z</time>
      </trkpt>
      <trkpt lat="48.29347" lon="7.38608">
        <ele>314.9</ele>
        <time>2021-08-03T16:04:03Z</time>
      </trkpt>
      <trkpt lat="48.29345" lon="7.38607">
        <ele>314.7</ele>
        <time>2021-08-03T16:04:05Z</time>
      </trkpt>
      <trkpt lat="48.29341" lon="7.38609">
        <ele>314.3</ele>
        <time>2021-08-03T16:04:06Z</time>
      </trkpt>
      <trkpt lat="48.2934" lon="7.38611">
        <ele>314.1</ele>
        <time>2021-08-03T16:04:07Z</time>
      </trkpt>
      <trkpt lat="48.29337" lon="7.38616">
        <ele>313.6</ele>
        <time>2021-08-03T16:04:08Z</time>
      </trkpt>
      <trkpt lat="48.29335" lon="7.38622">
        <ele>313.1</ele>
        <time>2021-08-03T16:04:10Z</time>
      </trkpt>
      <trkpt lat="48.29333" lon="7.38629">
        <ele>312.9</ele>
        <time>2021-08-03T16:04:11Z</time>
      </trkpt>
      <trkpt lat="48.2933" lon="7.38638">
        <ele>312.3</ele>
        <time>2021-08-03T16:04:12Z</time>
      </trkpt>
      <trkpt lat="48.29326" lon="7.38647">
        <ele>311.5</ele>
        <time>2021-08-03T16:04:14Z</time>
      </trkpt>
      <trkpt lat="48.29322" lon="7.38654">
        <ele>310.5</ele>
        <time>2021-08-03T16:04:15Z</time>
      </trkpt>
      <trkpt lat="48.2932" lon="7.38661">
        <ele>309.6</ele>
        <time>2021-08-03T16:04:16Z</time>
      </trkpt>
      <trkpt lat="48.29312" lon="7.38678">
        <ele>306.6</ele>
        <time>2021-08-03T16:04:18Z</time>
      </trkpt>
      <trkpt lat="48.2931" lon="7.38684">
        <ele>305.6</ele>
        <time>2021-08-03T16:04:19Z</time>
      </trkpt>
      <trkpt lat="48.29308" lon="7.38689">
        <ele>304.9</ele>
        <time>2021-08-03T16:04:20Z</time>
      </trkpt>
      <trkpt lat="48.29307" lon="7.38697">
        <ele>303.8</ele>
        <time>2021-08-03T16:04:22Z</time>
      </trkpt>
      <trkpt lat="48.29307" lon="7.38703">
        <ele>303.1</ele>
        <time>2021-08-03T16:04:23Z</time>
      </trkpt>
      <trkpt lat="48.29305" lon="7.3871">
        <ele>302.2</ele>
        <time>2021-08-03T16:04:24Z</time>
      </trkpt>
      <trkpt lat="48.29303" lon="7.38718">
        <ele>301.4</ele>
        <time>2021-08-03T16:04:25Z</time>
      </trkpt>
      <trkpt lat="48.29303" lon="7.38729">
        <ele>300.2</ele>
        <time>2021-08-03T16:04:27Z</time>
      </trkpt>
      <trkpt lat="48.29302" lon="7.38738">
        <ele>299.4</ele>
        <time>2021-08-03T16:04:28Z</time>
      </trkpt>
      <trkpt lat="48.29302" lon="7.38745">
        <ele>298.8</ele>
        <time>2021-08-03T16:04:29Z</time>
      </trkpt>
      <trkpt lat="48.29301" lon="7.38755">
        <ele>297.8</ele>
        <time>2021-08-03T16:04:31Z</time>
      </trkpt>
      <trkpt lat="48.29301" lon="7.38763">
        <ele>297.1</ele>
        <time>2021-08-03T16:04:32Z</time>
      </trkpt>
      <trkpt lat="48.29299" lon="7.38776">
        <ele>295.6</ele>
        <time>2021-08-03T16:04:33Z</time>
      </trkpt>
      <trkpt lat="48.29298" lon="7.38784">
        <ele>294.6</ele>
        <time>2021-08-03T16:04:35Z</time>
      </trkpt>
      <trkpt lat="48.29295" lon="7.388">
        <ele>292.8</ele>
        <time>2021-08-03T16:04:36Z</time>
      </trkpt>
      <trkpt lat="48.29292" lon="7.38808">
        <ele>291.8</ele>
        <time>2021-08-03T16:04:37Z</time>
      </trkpt>
      <trkpt lat="48.29291" lon="7.38814">
        <ele>291</ele>
        <time>2021-08-03T16:04:38Z</time>
      </trkpt>
      <trkpt lat="48.29291" lon="7.38814">
        <ele>290.9</ele>
        <time>2021-08-03T16:04:40Z</time>
      </trkpt>
      <trkpt lat="48.29289" lon="7.38823">
        <ele>289.8</ele>
        <time>2021-08-03T16:04:42Z</time>
      </trkpt>
      <trkpt lat="48.29288" lon="7.38833">
        <ele>288.5</ele>
        <time>2021-08-03T16:04:43Z</time>
      </trkpt>
      <trkpt lat="48.29287" lon="7.38843">
        <ele>287.3</ele>
        <time>2021-08-03T16:04:45Z</time>
      </trkpt>
      <trkpt lat="48.29287" lon="7.38847">
        <ele>286.6</ele>
        <time>2021-08-03T16:04:47Z</time>
      </trkpt>
      <trkpt lat="48.29286" lon="7.38852">
        <ele>286</ele>
        <time>2021-08-03T16:04:48Z</time>
      </trkpt>
      <trkpt lat="48.29285" lon="7.38853">
        <ele>285.8</ele>
        <time>2021-08-03T16:04:49Z</time>
      </trkpt>
      <trkpt lat="48.29284" lon="7.38855">
        <ele>285.4</ele>
        <time>2021-08-03T16:04:50Z</time>
      </trkpt>
      <trkpt lat="48.29283" lon="7.38859">
        <ele>284.6</ele>
        <time>2021-08-03T16:04:52Z</time>
      </trkpt>
      <trkpt lat="48.29282" lon="7.38864">
        <ele>283.9</ele>
        <time>2021-08-03T16:04:54Z</time>
      </trkpt>
      <trkpt lat="48.29281" lon="7.3887">
        <ele>282.7</ele>
        <time>2021-08-03T16:04:55Z</time>
      </trkpt>
      <trkpt lat="48.29281" lon="7.38873">
        <ele>282.1</ele>
        <time>2021-08-03T16:04:56Z</time>
      </trkpt>
      <trkpt lat="48.2928" lon="7.38875">
        <ele>281.7</ele>
        <time>2021-08-03T16:04:57Z</time>
      </trkpt>
      <trkpt lat="48.29277" lon="7.38878">
        <ele>280.6</ele>
        <time>2021-08-03T16:04:59Z</time>
      </trkpt>
      <trkpt lat="48.29273" lon="7.38883">
        <ele>279.1</ele>
        <time>2021-08-03T16:05:00Z</time>
      </trkpt>
      <trkpt lat="48.29269" lon="7.38884">
        <ele>277.9</ele>
        <time>2021-08-03T16:05:01Z</time>
      </trkpt>
      <trkpt lat="48.29264" lon="7.38883">
        <ele>276.6</ele>
        <time>2021-08-03T16:05:03Z</time>
      </trkpt>
      <trkpt lat="48.29263" lon="7.38881">
        <ele>276.1</ele>
        <time>2021-08-03T16:05:04Z</time>
      </trkpt>
      <trkpt lat="48.29261" lon="7.3888">
        <ele>275.7</ele>
        <time>2021-08-03T16:05:05Z</time>
      </trkpt>
      <trkpt lat="48.29258" lon="7.38875">
        <ele>274.7</ele>
        <time>2021-08-03T16:05:06Z</time>
      </trkpt>
      <trkpt lat="48.29254" lon="7.38865">
        <ele>273</ele>
        <time>2021-08-03T16:05:08Z</time>
      </trkpt>
      <trkpt lat="48.29251" lon="7.38861">
        <ele>272.2</ele>
        <time>2021-08-03T16:05:09Z</time>
      </trkpt>
      <trkpt lat="48.29245" lon="7.38851">
        <ele>270.8</ele>
        <time>2021-08-03T16:05:11Z</time>
      </trkpt>
      <trkpt lat="48.29242" lon="7.38843">
        <ele>269.9</ele>
        <time>2021-08-03T16:05:12Z</time>
      </trkpt>
      <trkpt lat="48.29238" lon="7.38836">
        <ele>269.5</ele>
        <time>2021-08-03T16:05:13Z</time>
      </trkpt>
      <trkpt lat="48.29236" lon="7.38829">
        <ele>269.1</ele>
        <time>2021-08-03T16:05:14Z</time>
      </trkpt>
      <trkpt lat="48.29231" lon="7.38813">
        <ele>268.6</ele>
        <time>2021-08-03T16:05:16Z</time>
      </trkpt>
      <trkpt lat="48.29229" lon="7.38795">
        <ele>267.9</ele>
        <time>2021-08-03T16:05:18Z</time>
      </trkpt>
      <trkpt lat="48.29228" lon="7.38787">
        <ele>267.3</ele>
        <time>2021-08-03T16:05:19Z</time>
      </trkpt>
      <trkpt lat="48.29223" lon="7.38773">
        <ele>265.8</ele>
        <time>2021-08-03T16:05:21Z</time>
      </trkpt>
      <trkpt lat="48.29221" lon="7.38773">
        <ele>265.5</ele>
        <time>2021-08-03T16:05:23Z</time>
      </trkpt>
      <trkpt lat="48.29216" lon="7.38765">
        <ele>264</ele>
        <time>2021-08-03T16:05:25Z</time>
      </trkpt>
      <trkpt lat="48.29213" lon="7.38763">
        <ele>263.2</ele>
        <time>2021-08-03T16:05:26Z</time>
      </trkpt>
      <trkpt lat="48.29209" lon="7.38764">
        <ele>262.4</ele>
        <time>2021-08-03T16:05:28Z</time>
      </trkpt>
      <trkpt lat="48.2921" lon="7.38779">
        <ele>260.3</ele>
        <time>2021-08-03T16:05:29Z</time>
      </trkpt>
      <trkpt lat="48.29206" lon="7.38797">
        <ele>258</ele>
        <time>2021-08-03T16:05:31Z</time>
      </trkpt>
      <trkpt lat="48.29203" lon="7.38815">
        <ele>255.8</ele>
        <time>2021-08-03T16:05:33Z</time>
      </trkpt>
      <trkpt lat="48.29202" lon="7.38823">
        <ele>255</ele>
        <time>2021-08-03T16:05:34Z</time>
      </trkpt>
      <trkpt lat="48.29201" lon="7.38826">
        <ele>254.6</ele>
        <time>2021-08-03T16:05:35Z</time>
      </trkpt>
      <trkpt lat="48.292" lon="7.38833">
        <ele>253.8</ele>
        <time>2021-08-03T16:05:37Z</time>
      </trkpt>
      <trkpt lat="48.292" lon="7.38842">
        <ele>252.8</ele>
        <time>2021-08-03T16:05:38Z</time>
      </trkpt>
      <trkpt lat="48.29201" lon="7.38847">
        <ele>252.3</ele>
        <time>2021-08-03T16:05:39Z</time>
      </trkpt>
      <trkpt lat="48.29201" lon="7.38851">
        <ele>251.8</ele>
        <time>2021-08-03T16:05:40Z</time>
      </trkpt>
      <trkpt lat="48.29201" lon="7.38857">
        <ele>251.1</ele>
        <time>2021-08-03T16:05:42Z</time>
      </trkpt>
      <trkpt lat="48.292" lon="7.38859">
        <ele>250.8</ele>
        <time>2021-08-03T16:05:44Z</time>
      </trkpt>
      <trkpt lat="48.29198" lon="7.3886">
        <ele>250.6</ele>
        <time>2021-08-03T16:05:45Z</time>
      </trkpt>
      <trkpt lat="48.29195" lon="7.38861">
        <ele>250</ele>
        <time>2021-08-03T16:05:46Z</time>
      </trkpt>
      <trkpt lat="48.29194" lon="7.38861">
        <ele>249.8</ele>
        <time>2021-08-03T16:05:47Z</time>
      </trkpt>
      <trkpt lat="48.29192" lon="7.38859">
        <ele>249.4</ele>
        <time>2021-08-03T16:05:48Z</time>
      </trkpt>
      <trkpt lat="48.29188" lon="7.38857">
        <ele>248.7</ele>
        <time>2021-08-03T16:05:50Z</time>
      </trkpt>
      <trkpt lat="48.29184" lon="7.38854">
        <ele>248.1</ele>
        <time>2021-08-03T16:05:51Z</time>
      </trkpt>
      <trkpt lat="48.29182" lon="7.38851">
        <ele>247.7</ele>
        <time>2021-08-03T16:05:52Z</time>
      </trkpt>
      <trkpt lat="48.2918" lon="7.38847">
        <ele>247.3</ele>
        <time>2021-08-03T16:05:53Z</time>
      </trkpt>
      <trkpt lat="48.29179" lon="7.3884">
        <ele>246.8</ele>
        <time>2021-08-03T16:05:55Z</time>
      </trkpt>
      <trkpt lat="48.29178" lon="7.38833">
        <ele>246.4</ele>
        <time>2021-08-03T16:05:56Z</time>
      </trkpt>
      <trkpt lat="48.29177" lon="7.38826">
        <ele>246.1</ele>
        <time>2021-08-03T16:05:57Z</time>
      </trkpt>
      <trkpt lat="48.29175" lon="7.38817">
        <ele>245.7</ele>
        <time>2021-08-03T16:05:59Z</time>
      </trkpt>
      <trkpt lat="48.29171" lon="7.38809">
        <ele>245.3</ele>
        <time>2021-08-03T16:06:00Z</time>
      </trkpt>
      <trkpt lat="48.29167" lon="7.38799">
        <ele>244.9</ele>
        <time>2021-08-03T16:06:02Z</time>
      </trkpt>
      <trkpt lat="48.29166" lon="7.38791">
        <ele>244.5</ele>
        <time>2021-08-03T16:06:03Z</time>
      </trkpt>
      <trkpt lat="48.29165" lon="7.38785">
        <ele>244.2</ele>
        <time>2021-08-03T16:06:04Z</time>
      </trkpt>
      <trkpt lat="48.29163" lon="7.38778">
        <ele>243.8</ele>
        <time>2021-08-03T16:06:05Z</time>
      </trkpt>
      <trkpt lat="48.2916" lon="7.3877">
        <ele>243.1</ele>
        <time>2021-08-03T16:06:07Z</time>
      </trkpt>
      <trkpt lat="48.29157" lon="7.38769">
        <ele>242.7</ele>
        <time>2021-08-03T16:06:08Z</time>
      </trkpt>
      <trkpt lat="48.29155" lon="7.38772">
        <ele>242.3</ele>
        <time>2021-08-03T16:06:10Z</time>
      </trkpt>
      <trkpt lat="48.29155" lon="7.38775">
        <ele>242</ele>
        <time>2021-08-03T16:06:11Z</time>
      </trkpt>
      <trkpt lat="48.29156" lon="7.38793">
        <ele>240.5</ele>
        <time>2021-08-03T16:06:13Z</time>
      </trkpt>
      <trkpt lat="48.29156" lon="7.38803">
        <ele>239.9</ele>
        <time>2021-08-03T16:06:15Z</time>
      </trkpt>
      <trkpt lat="48.29155" lon="7.38818">
        <ele>239.1</ele>
        <time>2021-08-03T16:06:16Z</time>
      </trkpt>
      <trkpt lat="48.29154" lon="7.38826">
        <ele>238.8</ele>
        <time>2021-08-03T16:06:17Z</time>
      </trkpt>
      <trkpt lat="48.29154" lon="7.38832">
        <ele>238.5</ele>
        <time>2021-08-03T16:06:18Z</time>
      </trkpt>
      <trkpt lat="48.29155" lon="7.38845">
        <ele>237.8</ele>
        <time>2021-08-03T16:06:20Z</time>
      </trkpt>
      <trkpt lat="48.29157" lon="7.3885">
        <ele>237.5</ele>
        <time>2021-08-03T16:06:21Z</time>
      </trkpt>
      <trkpt lat="48.29159" lon="7.38861">
        <ele>237</ele>
        <time>2021-08-03T16:06:23Z</time>
      </trkpt>
      <trkpt lat="48.2916" lon="7.38872">
        <ele>236.5</ele>
        <time>2021-08-03T16:06:25Z</time>
      </trkpt>
      <trkpt lat="48.29162" lon="7.38879">
        <ele>236.2</ele>
        <time>2021-08-03T16:06:27Z</time>
      </trkpt>
      <trkpt lat="48.29164" lon="7.38885">
        <ele>235.9</ele>
        <time>2021-08-03T16:06:29Z</time>
      </trkpt>
      <trkpt lat="48.29165" lon="7.38892">
        <ele>235.5</ele>
        <time>2021-08-03T16:06:31Z</time>
      </trkpt>
      <trkpt lat="48.29163" lon="7.38897">
        <ele>235</ele>
        <time>2021-08-03T16:06:33Z</time>
      </trkpt>
      <trkpt lat="48.29158" lon="7.38896">
        <ele>234.3</ele>
        <time>2021-08-03T16:06:35Z</time>
      </trkpt>
      <trkpt lat="48.29148" lon="7.38884">
        <ele>231.6</ele>
        <time>2021-08-03T16:06:37Z</time>
      </trkpt>
      <trkpt lat="48.29143" lon="7.38877">
        <ele>230.1</ele>
        <time>2021-08-03T16:06:38Z</time>
      </trkpt>
      <trkpt lat="48.29131" lon="7.38865">
        <ele>227.4</ele>
        <time>2021-08-03T16:06:40Z</time>
      </trkpt>
      <trkpt lat="48.29128" lon="7.38862">
        <ele>226.6</ele>
        <time>2021-08-03T16:06:41Z</time>
      </trkpt>
      <trkpt lat="48.29125" lon="7.38861">
        <ele>226.1</ele>
        <time>2021-08-03T16:06:42Z</time>
      </trkpt>
      <trkpt lat="48.29119" lon="7.38858">
        <ele>224.9</ele>
        <time>2021-08-03T16:06:44Z</time>
      </trkpt>
      <trkpt lat="48.29114" lon="7.38851">
        <ele>223.5</ele>
        <time>2021-08-03T16:06:46Z</time>
      </trkpt>
      <trkpt lat="48.2911" lon="7.38846">
        <ele>222.5</ele>
        <time>2021-08-03T16:06:48Z</time>
      </trkpt>
      <trkpt lat="48.29107" lon="7.38844">
        <ele>221.9</ele>
        <time>2021-08-03T16:06:49Z</time>
      </trkpt>
      <trkpt lat="48.29106" lon="7.38844">
        <ele>221.7</ele>
        <time>2021-08-03T16:06:50Z</time>
      </trkpt>
      <trkpt lat="48.291" lon="7.38844">
        <ele>220.5</ele>
        <time>2021-08-03T16:06:52Z</time>
      </trkpt>
      <trkpt lat="48.29097" lon="7.38841">
        <ele>219.7</ele>
        <time>2021-08-03T16:06:53Z</time>
      </trkpt>
      <trkpt lat="48.29094" lon="7.38837">
        <ele>219</ele>
        <time>2021-08-03T16:06:54Z</time>
      </trkpt>
      <trkpt lat="48.29093" lon="7.38835">
        <ele>218.4</ele>
        <time>2021-08-03T16:06:55Z</time>
      </trkpt>
      <trkpt lat="48.2909" lon="7.3883">
        <ele>217.6</ele>
        <time>2021-08-03T16:06:57Z</time>
      </trkpt>
      <trkpt lat="48.29089" lon="7.38827">
        <ele>217.2</ele>
        <time>2021-08-03T16:06:58Z</time>
      </trkpt>
      <trkpt lat="48.29086" lon="7.38819">
        <ele>216</ele>
        <time>2021-08-03T16:07:00Z</time>
      </trkpt>
      <trkpt lat="48.29083" lon="7.38813">
        <ele>215.2</ele>
        <time>2021-08-03T16:07:01Z</time>
      </trkpt>
      <trkpt lat="48.29073" lon="7.38803">
        <ele>213.4</ele>
        <time>2021-08-03T16:07:03Z</time>
      </trkpt>
      <trkpt lat="48.29068" lon="7.388">
        <ele>212.6</ele>
        <time>2021-08-03T16:07:04Z</time>
      </trkpt>
      <trkpt lat="48.29064" lon="7.38795">
        <ele>211.9</ele>
        <time>2021-08-03T16:07:05Z</time>
      </trkpt>
      <trkpt lat="48.29058" lon="7.38784">
        <ele>210.7</ele>
        <time>2021-08-03T16:07:07Z</time>
      </trkpt>
      <trkpt lat="48.29057" lon="7.3877">
        <ele>209.2</ele>
        <time>2021-08-03T16:07:09Z</time>
      </trkpt>
      <trkpt lat="48.29056" lon="7.38755">
        <ele>209.6</ele>
        <time>2021-08-03T16:07:11Z</time>
      </trkpt>
      <trkpt lat="48.29056" lon="7.38744">
        <ele>209.9</ele>
        <time>2021-08-03T16:07:13Z</time>
      </trkpt>
      <trkpt lat="48.29056" lon="7.38737">
        <ele>210.1</ele>
        <time>2021-08-03T16:07:14Z</time>
      </trkpt>
      <trkpt lat="48.29057" lon="7.38731">
        <ele>210.3</ele>
        <time>2021-08-03T16:07:15Z</time>
      </trkpt>
      <trkpt lat="48.29056" lon="7.38719">
        <ele>210.5</ele>
        <time>2021-08-03T16:07:17Z</time>
      </trkpt>
      <trkpt lat="48.29056" lon="7.38709">
        <ele>210.8</ele>
        <time>2021-08-03T16:07:19Z</time>
      </trkpt>
      <trkpt lat="48.29057" lon="7.387">
        <ele>211</ele>
        <time>2021-08-03T16:07:20Z</time>
      </trkpt>
      <trkpt lat="48.29059" lon="7.38694">
        <ele>211.2</ele>
        <time>2021-08-03T16:07:21Z</time>
      </trkpt>
      <trkpt lat="48.2906" lon="7.38684">
        <ele>211.5</ele>
        <time>2021-08-03T16:07:23Z</time>
      </trkpt>
      <trkpt lat="48.29061" lon="7.38673">
        <ele>211.8</ele>
        <time>2021-08-03T16:07:25Z</time>
      </trkpt>
      <trkpt lat="48.29061" lon="7.38665">
        <ele>212.1</ele>
        <time>2021-08-03T16:07:26Z</time>
      </trkpt>
      <trkpt lat="48.2906" lon="7.3866">
        <ele>212</ele>
        <time>2021-08-03T16:07:27Z</time>
      </trkpt>
      <trkpt lat="48.2906" lon="7.38654">
        <ele>212</ele>
        <time>2021-08-03T16:07:28Z</time>
      </trkpt>
      <trkpt lat="48.2906" lon="7.38648">
        <ele>211.9</ele>
        <time>2021-08-03T16:07:29Z</time>
      </trkpt>
      <trkpt lat="48.29059" lon="7.38637">
        <ele>211.7</ele>
        <time>2021-08-03T16:07:31Z</time>
      </trkpt>
      <trkpt lat="48.29058" lon="7.38625">
        <ele>211.4</ele>
        <time>2021-08-03T16:07:33Z</time>
      </trkpt>
      <trkpt lat="48.29057" lon="7.38612">
        <ele>210.9</ele>
        <time>2021-08-03T16:07:34Z</time>
      </trkpt>
      <trkpt lat="48.29054" lon="7.38603">
        <ele>210.6</ele>
        <time>2021-08-03T16:07:35Z</time>
      </trkpt>
      <trkpt lat="48.29046" lon="7.38588">
        <ele>209.9</ele>
        <time>2021-08-03T16:07:37Z</time>
      </trkpt>
      <trkpt lat="48.29037" lon="7.38573">
        <ele>209</ele>
        <time>2021-08-03T16:07:39Z</time>
      </trkpt>
      <trkpt lat="48.29033" lon="7.38566">
        <ele>208.6</ele>
        <time>2021-08-03T16:07:40Z</time>
      </trkpt>
      <trkpt lat="48.29028" lon="7.38558">
        <ele>208.2</ele>
        <time>2021-08-03T16:07:41Z</time>
      </trkpt>
      <trkpt lat="48.29022" lon="7.3854">
        <ele>207.3</ele>
        <time>2021-08-03T16:07:43Z</time>
      </trkpt>
      <trkpt lat="48.2902" lon="7.38531">
        <ele>206.8</ele>
        <time>2021-08-03T16:07:44Z</time>
      </trkpt>
      <trkpt lat="48.29019" lon="7.38521">
        <ele>206.3</ele>
        <time>2021-08-03T16:07:45Z</time>
      </trkpt>
      <trkpt lat="48.29017" lon="7.385">
        <ele>205.3</ele>
        <time>2021-08-03T16:07:47Z</time>
      </trkpt>
      <trkpt lat="48.29016" lon="7.38479">
        <ele>204.2</ele>
        <time>2021-08-03T16:07:49Z</time>
      </trkpt>
      <trkpt lat="48.29015" lon="7.38461">
        <ele>203.3</ele>
        <time>2021-08-03T16:07:51Z</time>
      </trkpt>
      <trkpt lat="48.29015" lon="7.38448">
        <ele>202.7</ele>
        <time>2021-08-03T16:07:53Z</time>
      </trkpt>
      <trkpt lat="48.29016" lon="7.38436">
        <ele>202.3</ele>
        <time>2021-08-03T16:07:55Z</time>
      </trkpt>
      <trkpt lat="48.29018" lon="7.38422">
        <ele>201.9</ele>
        <time>2021-08-03T16:07:57Z</time>
      </trkpt>
      <trkpt lat="48.29021" lon="7.38407">
        <ele>201.8</ele>
        <time>2021-08-03T16:07:59Z</time>
      </trkpt>
      <trkpt lat="48.29022" lon="7.38399">
        <ele>201.7</ele>
        <time>2021-08-03T16:08:00Z</time>
      </trkpt>
      <trkpt lat="48.29022" lon="7.38394">
        <ele>201.7</ele>
        <time>2021-08-03T16:08:02Z</time>
      </trkpt>
      <trkpt lat="48.29023" lon="7.3839">
        <ele>201.6</ele>
        <time>2021-08-03T16:08:03Z</time>
      </trkpt>
      <trkpt lat="48.29025" lon="7.38385">
        <ele>201.6</ele>
        <time>2021-08-03T16:08:04Z</time>
      </trkpt>
      <trkpt lat="48.2903" lon="7.3838">
        <ele>201.6</ele>
        <time>2021-08-03T16:08:06Z</time>
      </trkpt>
      <trkpt lat="48.29034" lon="7.38371">
        <ele>201.5</ele>
        <time>2021-08-03T16:08:08Z</time>
      </trkpt>
      <trkpt lat="48.29036" lon="7.38365">
        <ele>201.5</ele>
        <time>2021-08-03T16:08:09Z</time>
      </trkpt>
      <trkpt lat="48.29036" lon="7.3836">
        <ele>201.4</ele>
        <time>2021-08-03T16:08:10Z</time>
      </trkpt>
      <trkpt lat="48.29035" lon="7.3835">
        <ele>201.4</ele>
        <time>2021-08-03T16:08:12Z</time>
      </trkpt>
      <trkpt lat="48.29034" lon="7.38345">
        <ele>201.4</ele>
        <time>2021-08-03T16:08:13Z</time>
      </trkpt>
      <trkpt lat="48.29031" lon="7.38337">
        <ele>201.3</ele>
        <time>2021-08-03T16:08:15Z</time>
      </trkpt>
      <trkpt lat="48.29024" lon="7.38334">
        <ele>201.2</ele>
        <time>2021-08-03T16:08:17Z</time>
      </trkpt>
      <trkpt lat="48.29021" lon="7.38332">
        <ele>201.2</ele>
        <time>2021-08-03T16:08:18Z</time>
      </trkpt>
      <trkpt lat="48.29017" lon="7.38332">
        <ele>201.2</ele>
        <time>2021-08-03T16:08:19Z</time>
      </trkpt>
      <trkpt lat="48.29014" lon="7.38332">
        <ele>201.2</ele>
        <time>2021-08-03T16:08:20Z</time>
      </trkpt>
      <trkpt lat="48.2901" lon="7.38333">
        <ele>201.2</ele>
        <time>2021-08-03T16:08:21Z</time>
      </trkpt>
      <trkpt lat="48.29007" lon="7.38336">
        <ele>201.1</ele>
        <time>2021-08-03T16:08:22Z</time>
      </trkpt>
      <trkpt lat="48.29007" lon="7.38337">
        <ele>201.1</ele>
        <time>2021-08-03T16:08:23Z</time>
      </trkpt>
      <trkpt lat="48.29003" lon="7.38342">
        <ele>201.1</ele>
        <time>2021-08-03T16:08:25Z</time>
      </trkpt>
      <trkpt lat="48.29001" lon="7.38345">
        <ele>201.1</ele>
        <time>2021-08-03T16:08:26Z</time>
      </trkpt>
      <trkpt lat="48.29" lon="7.38346">
        <ele>201.1</ele>
        <time>2021-08-03T16:08:27Z</time>
      </trkpt>
      <trkpt lat="48.28999" lon="7.38347">
        <ele>201.1</ele>
        <time>2021-08-03T16:08:29Z</time>
      </trkpt>
      <trkpt lat="48.28979" lon="7.3837">
        <ele>200.9</ele>
        <time>2021-08-03T16:08:33Z</time>
      </trkpt>
      <trkpt lat="48.28973" lon="7.38378">
        <ele>200.9</ele>
        <time>2021-08-03T16:08:34Z</time>
      </trkpt>
      <trkpt lat="48.28969" lon="7.38383">
        <ele>200.9</ele>
        <time>2021-08-03T16:08:35Z</time>
      </trkpt>
      <trkpt lat="48.28963" lon="7.38387">
        <ele>200.9</ele>
        <time>2021-08-03T16:08:36Z</time>
      </trkpt>
      <trkpt lat="48.28953" lon="7.38399">
        <ele>200.9</ele>
        <time>2021-08-03T16:08:38Z</time>
      </trkpt>
      <trkpt lat="48.28948" lon="7.38405">
        <ele>200.9</ele>
        <time>2021-08-03T16:08:39Z</time>
      </trkpt>
      <trkpt lat="48.28941" lon="7.38416">
        <ele>200.9</ele>
        <time>2021-08-03T16:08:41Z</time>
      </trkpt>
      <trkpt lat="48.28936" lon="7.38425">
        <ele>200.8</ele>
        <time>2021-08-03T16:08:42Z</time>
      </trkpt>
      <trkpt lat="48.28932" lon="7.38431">
        <ele>200.8</ele>
        <time>2021-08-03T16:08:43Z</time>
      </trkpt>
      <trkpt lat="48.28929" lon="7.38437">
        <ele>200.9</ele>
        <time>2021-08-03T16:08:44Z</time>
      </trkpt>
      <trkpt lat="48.28923" lon="7.38446">
        <ele>201</ele>
        <time>2021-08-03T16:08:46Z</time>
      </trkpt>
      <trkpt lat="48.2892" lon="7.38451">
        <ele>201</ele>
        <time>2021-08-03T16:08:47Z</time>
      </trkpt>
      <trkpt lat="48.28918" lon="7.38456">
        <ele>201.1</ele>
        <time>2021-08-03T16:08:48Z</time>
      </trkpt>
      <trkpt lat="48.28914" lon="7.38461">
        <ele>201.2</ele>
        <time>2021-08-03T16:08:49Z</time>
      </trkpt>
      <trkpt lat="48.28909" lon="7.38467">
        <ele>201.3</ele>
        <time>2021-08-03T16:08:51Z</time>
      </trkpt>
      <trkpt lat="48.28905" lon="7.38475">
        <ele>201.5</ele>
        <time>2021-08-03T16:08:52Z</time>
      </trkpt>
      <trkpt lat="48.28902" lon="7.38479">
        <ele>201.6</ele>
        <time>2021-08-03T16:08:53Z</time>
      </trkpt>
      <trkpt lat="48.28899" lon="7.38482">
        <ele>201.6</ele>
        <time>2021-08-03T16:08:55Z</time>
      </trkpt>
      <trkpt lat="48.28895" lon="7.38487">
        <ele>201.7</ele>
        <time>2021-08-03T16:08:56Z</time>
      </trkpt>
      <trkpt lat="48.28893" lon="7.38491">
        <ele>201.7</ele>
        <time>2021-08-03T16:08:58Z</time>
      </trkpt>
      <trkpt lat="48.28892" lon="7.38496">
        <ele>201.7</ele>
        <time>2021-08-03T16:08:59Z</time>
      </trkpt>
      <trkpt lat="48.28891" lon="7.38501">
        <ele>201.7</ele>
        <time>2021-08-03T16:09:00Z</time>
      </trkpt>
      <trkpt lat="48.28889" lon="7.38509">
        <ele>201.7</ele>
        <time>2021-08-03T16:09:02Z</time>
      </trkpt>
      <trkpt lat="48.28886" lon="7.38516">
        <ele>201.7</ele>
        <time>2021-08-03T16:09:04Z</time>
      </trkpt>
      <trkpt lat="48.28884" lon="7.38521">
        <ele>201.7</ele>
        <time>2021-08-03T16:09:05Z</time>
      </trkpt>
      <trkpt lat="48.28883" lon="7.38525">
        <ele>201.7</ele>
        <time>2021-08-03T16:09:06Z</time>
      </trkpt>
      <trkpt lat="48.28881" lon="7.3853">
        <ele>201.7</ele>
        <time>2021-08-03T16:09:07Z</time>
      </trkpt>
      <trkpt lat="48.28877" lon="7.38536">
        <ele>201.7</ele>
        <time>2021-08-03T16:09:08Z</time>
      </trkpt>
      <trkpt lat="48.28873" lon="7.38543">
        <ele>201.7</ele>
        <time>2021-08-03T16:09:09Z</time>
      </trkpt>
      <trkpt lat="48.28868" lon="7.38549">
        <ele>201.6</ele>
        <time>2021-08-03T16:09:11Z</time>
      </trkpt>
      <trkpt lat="48.28863" lon="7.38554">
        <ele>201.5</ele>
        <time>2021-08-03T16:09:12Z</time>
      </trkpt>
      <trkpt lat="48.28858" lon="7.38561">
        <ele>201.3</ele>
        <time>2021-08-03T16:09:14Z</time>
      </trkpt>
      <trkpt lat="48.28853" lon="7.38566">
        <ele>201.2</ele>
        <time>2021-08-03T16:09:15Z</time>
      </trkpt>
      <trkpt lat="48.28847" lon="7.38571">
        <ele>201</ele>
        <time>2021-08-03T16:09:17Z</time>
      </trkpt>
      <trkpt lat="48.28843" lon="7.38572">
        <ele>200.9</ele>
        <time>2021-08-03T16:09:18Z</time>
      </trkpt>
      <trkpt lat="48.2884" lon="7.38573">
        <ele>200.8</ele>
        <time>2021-08-03T16:09:19Z</time>
      </trkpt>
      <trkpt lat="48.28838" lon="7.38576">
        <ele>200.7</ele>
        <time>2021-08-03T16:09:21Z</time>
      </trkpt>
      <trkpt lat="48.28837" lon="7.3858">
        <ele>200.7</ele>
        <time>2021-08-03T16:09:22Z</time>
      </trkpt>
      <trkpt lat="48.28835" lon="7.38585">
        <ele>200.6</ele>
        <time>2021-08-03T16:09:23Z</time>
      </trkpt>
      <trkpt lat="48.28833" lon="7.3859">
        <ele>200.5</ele>
        <time>2021-08-03T16:09:24Z</time>
      </trkpt>
      <trkpt lat="48.28831" lon="7.38596">
        <ele>200.4</ele>
        <time>2021-08-03T16:09:26Z</time>
      </trkpt>
      <trkpt lat="48.28827" lon="7.38602">
        <ele>200.3</ele>
        <time>2021-08-03T16:09:27Z</time>
      </trkpt>
      <trkpt lat="48.28824" lon="7.38608">
        <ele>200.2</ele>
        <time>2021-08-03T16:09:28Z</time>
      </trkpt>
      <trkpt lat="48.28821" lon="7.38614">
        <ele>200.1</ele>
        <time>2021-08-03T16:09:30Z</time>
      </trkpt>
      <trkpt lat="48.28819" lon="7.38618">
        <ele>200</ele>
        <time>2021-08-03T16:09:31Z</time>
      </trkpt>
      <trkpt lat="48.28815" lon="7.38624">
        <ele>200</ele>
        <time>2021-08-03T16:09:32Z</time>
      </trkpt>
      <trkpt lat="48.28812" lon="7.38627">
        <ele>199.9</ele>
        <time>2021-08-03T16:09:33Z</time>
      </trkpt>
      <trkpt lat="48.28809" lon="7.38631">
        <ele>199.9</ele>
        <time>2021-08-03T16:09:34Z</time>
      </trkpt>
      <trkpt lat="48.28805" lon="7.38635">
        <ele>199.8</ele>
        <time>2021-08-03T16:09:36Z</time>
      </trkpt>
      <trkpt lat="48.28801" lon="7.38639">
        <ele>199.8</ele>
        <time>2021-08-03T16:09:37Z</time>
      </trkpt>
      <trkpt lat="48.28798" lon="7.38643">
        <ele>199.7</ele>
        <time>2021-08-03T16:09:38Z</time>
      </trkpt>
      <trkpt lat="48.28792" lon="7.3865">
        <ele>199.7</ele>
        <time>2021-08-03T16:09:40Z</time>
      </trkpt>
      <trkpt lat="48.28787" lon="7.38655">
        <ele>199.6</ele>
        <time>2021-08-03T16:09:42Z</time>
      </trkpt>
      <trkpt lat="48.28784" lon="7.38661">
        <ele>199.5</ele>
        <time>2021-08-03T16:09:43Z</time>
      </trkpt>
      <trkpt lat="48.28781" lon="7.38665">
        <ele>199.5</ele>
        <time>2021-08-03T16:09:44Z</time>
      </trkpt>
      <trkpt lat="48.28776" lon="7.38672">
        <ele>199.4</ele>
        <time>2021-08-03T16:09:46Z</time>
      </trkpt>
      <trkpt lat="48.28772" lon="7.38678">
        <ele>199.3</ele>
        <time>2021-08-03T16:09:47Z</time>
      </trkpt>
      <trkpt lat="48.28768" lon="7.38682">
        <ele>199.3</ele>
        <time>2021-08-03T16:09:48Z</time>
      </trkpt>
      <trkpt lat="48.28764" lon="7.38688">
        <ele>199.3</ele>
        <time>2021-08-03T16:09:49Z</time>
      </trkpt>
      <trkpt lat="48.28759" lon="7.38696">
        <ele>199.3</ele>
        <time>2021-08-03T16:09:51Z</time>
      </trkpt>
      <trkpt lat="48.28755" lon="7.38701">
        <ele>199.2</ele>
        <time>2021-08-03T16:09:52Z</time>
      </trkpt>
      <trkpt lat="48.28752" lon="7.38704">
        <ele>199.2</ele>
        <time>2021-08-03T16:09:53Z</time>
      </trkpt>
      <trkpt lat="48.28746" lon="7.38709">
        <ele>199.2</ele>
        <time>2021-08-03T16:09:55Z</time>
      </trkpt>
      <trkpt lat="48.28741" lon="7.38715">
        <ele>199.2</ele>
        <time>2021-08-03T16:09:57Z</time>
      </trkpt>
      <trkpt lat="48.28738" lon="7.38718">
        <ele>199.2</ele>
        <time>2021-08-03T16:09:58Z</time>
      </trkpt>
      <trkpt lat="48.28733" lon="7.38722">
        <ele>199.1</ele>
        <time>2021-08-03T16:10:00Z</time>
      </trkpt>
      <trkpt lat="48.28728" lon="7.38729">
        <ele>199.1</ele>
        <time>2021-08-03T16:10:01Z</time>
      </trkpt>
      <trkpt lat="48.28725" lon="7.38734">
        <ele>199.1</ele>
        <time>2021-08-03T16:10:02Z</time>
      </trkpt>
      <trkpt lat="48.28721" lon="7.38742">
        <ele>199.1</ele>
        <time>2021-08-03T16:10:04Z</time>
      </trkpt>
      <trkpt lat="48.28716" lon="7.3875">
        <ele>199.1</ele>
        <time>2021-08-03T16:10:05Z</time>
      </trkpt>
      <trkpt lat="48.28713" lon="7.38756">
        <ele>199</ele>
        <time>2021-08-03T16:10:06Z</time>
      </trkpt>
      <trkpt lat="48.28711" lon="7.38759">
        <ele>199</ele>
        <time>2021-08-03T16:10:07Z</time>
      </trkpt>
      <trkpt lat="48.28708" lon="7.38764">
        <ele>199</ele>
        <time>2021-08-03T16:10:09Z</time>
      </trkpt>
      <trkpt lat="48.28707" lon="7.38768">
        <ele>199</ele>
        <time>2021-08-03T16:10:10Z</time>
      </trkpt>
      <trkpt lat="48.28705" lon="7.38772">
        <ele>199</ele>
        <time>2021-08-03T16:10:12Z</time>
      </trkpt>
      <trkpt lat="48.28702" lon="7.38777">
        <ele>199</ele>
        <time>2021-08-03T16:10:13Z</time>
      </trkpt>
      <trkpt lat="48.28699" lon="7.38781">
        <ele>198.9</ele>
        <time>2021-08-03T16:10:14Z</time>
      </trkpt>
      <trkpt lat="48.28695" lon="7.38786">
        <ele>198.9</ele>
        <time>2021-08-03T16:10:16Z</time>
      </trkpt>
      <trkpt lat="48.28694" lon="7.38789">
        <ele>198.9</ele>
        <time>2021-08-03T16:10:17Z</time>
      </trkpt>
      <trkpt lat="48.28689" lon="7.38793">
        <ele>198.8</ele>
        <time>2021-08-03T16:10:19Z</time>
      </trkpt>
      <trkpt lat="48.28685" lon="7.38797">
        <ele>198.7</ele>
        <time>2021-08-03T16:10:20Z</time>
      </trkpt>
      <trkpt lat="48.28681" lon="7.38805">
        <ele>198.6</ele>
        <time>2021-08-03T16:10:22Z</time>
      </trkpt>
      <trkpt lat="48.28678" lon="7.38812">
        <ele>198.5</ele>
        <time>2021-08-03T16:10:23Z</time>
      </trkpt>
      <trkpt lat="48.28674" lon="7.38821">
        <ele>198.3</ele>
        <time>2021-08-03T16:10:25Z</time>
      </trkpt>
      <trkpt lat="48.28673" lon="7.38826">
        <ele>198.2</ele>
        <time>2021-08-03T16:10:26Z</time>
      </trkpt>
      <trkpt lat="48.2867" lon="7.38834">
        <ele>198.1</ele>
        <time>2021-08-03T16:10:28Z</time>
      </trkpt>
      <trkpt lat="48.28664" lon="7.38845">
        <ele>198</ele>
        <time>2021-08-03T16:10:30Z</time>
      </trkpt>
      <trkpt lat="48.28661" lon="7.38849">
        <ele>197.9</ele>
        <time>2021-08-03T16:10:31Z</time>
      </trkpt>
      <trkpt lat="48.28658" lon="7.38855">
        <ele>197.9</ele>
        <time>2021-08-03T16:10:32Z</time>
      </trkpt>
      <trkpt lat="48.28656" lon="7.3886">
        <ele>197.9</ele>
        <time>2021-08-03T16:10:33Z</time>
      </trkpt>
      <trkpt lat="48.28653" lon="7.3887">
        <ele>197.8</ele>
        <time>2021-08-03T16:10:35Z</time>
      </trkpt>
      <trkpt lat="48.28649" lon="7.3888">
        <ele>197.8</ele>
        <time>2021-08-03T16:10:38Z</time>
      </trkpt>
      <trkpt lat="48.28643" lon="7.38888">
        <ele>197.7</ele>
        <time>2021-08-03T16:10:39Z</time>
      </trkpt>
      <trkpt lat="48.2864" lon="7.38894">
        <ele>197.6</ele>
        <time>2021-08-03T16:10:40Z</time>
      </trkpt>
      <trkpt lat="48.28637" lon="7.38901">
        <ele>197.6</ele>
        <time>2021-08-03T16:10:41Z</time>
      </trkpt>
      <trkpt lat="48.28635" lon="7.38908">
        <ele>197.5</ele>
        <time>2021-08-03T16:10:42Z</time>
      </trkpt>
      <trkpt lat="48.28634" lon="7.38914">
        <ele>197.5</ele>
        <time>2021-08-03T16:10:43Z</time>
      </trkpt>
      <trkpt lat="48.28632" lon="7.38925">
        <ele>197.5</ele>
        <time>2021-08-03T16:10:45Z</time>
      </trkpt>
      <trkpt lat="48.28632" lon="7.3893">
        <ele>197.4</ele>
        <time>2021-08-03T16:10:46Z</time>
      </trkpt>
      <trkpt lat="48.28631" lon="7.38937">
        <ele>197.4</ele>
        <time>2021-08-03T16:10:48Z</time>
      </trkpt>
      <trkpt lat="48.2863" lon="7.38945">
        <ele>197.4</ele>
        <time>2021-08-03T16:10:50Z</time>
      </trkpt>
      <trkpt lat="48.2863" lon="7.3895">
        <ele>197.4</ele>
        <time>2021-08-03T16:10:51Z</time>
      </trkpt>
      <trkpt lat="48.28629" lon="7.38958">
        <ele>197.4</ele>
        <time>2021-08-03T16:10:52Z</time>
      </trkpt>
      <trkpt lat="48.2863" lon="7.38962">
        <ele>197.4</ele>
        <time>2021-08-03T16:10:54Z</time>
      </trkpt>
      <trkpt lat="48.2863" lon="7.38966">
        <ele>197.4</ele>
        <time>2021-08-03T16:10:55Z</time>
      </trkpt>
      <trkpt lat="48.28631" lon="7.38973">
        <ele>197.5</ele>
        <time>2021-08-03T16:10:57Z</time>
      </trkpt>
      <trkpt lat="48.28629" lon="7.38978">
        <ele>197.5</ele>
        <time>2021-08-03T16:10:59Z</time>
      </trkpt>
      <trkpt lat="48.28627" lon="7.38983">
        <ele>197.5</ele>
        <time>2021-08-03T16:11:00Z</time>
      </trkpt>
      <trkpt lat="48.28625" lon="7.38987">
        <ele>197.5</ele>
        <time>2021-08-03T16:11:01Z</time>
      </trkpt>
      <trkpt lat="48.28624" lon="7.38992">
        <ele>197.5</ele>
        <time>2021-08-03T16:11:02Z</time>
      </trkpt>
      <trkpt lat="48.28624" lon="7.38997">
        <ele>197.5</ele>
        <time>2021-08-03T16:11:04Z</time>
      </trkpt>
      <trkpt lat="48.28624" lon="7.39001">
        <ele>197.5</ele>
        <time>2021-08-03T16:11:05Z</time>
      </trkpt>
      <trkpt lat="48.28624" lon="7.39007">
        <ele>197.5</ele>
        <time>2021-08-03T16:11:06Z</time>
      </trkpt>
      <trkpt lat="48.28626" lon="7.39014">
        <ele>197.5</ele>
        <time>2021-08-03T16:11:08Z</time>
      </trkpt>
      <trkpt lat="48.28628" lon="7.39019">
        <ele>197.5</ele>
        <time>2021-08-03T16:11:09Z</time>
      </trkpt>
      <trkpt lat="48.28629" lon="7.39023">
        <ele>197.5</ele>
        <time>2021-08-03T16:11:10Z</time>
      </trkpt>
      <trkpt lat="48.2863" lon="7.39026">
        <ele>197.5</ele>
        <time>2021-08-03T16:11:11Z</time>
      </trkpt>
      <trkpt lat="48.28629" lon="7.39032">
        <ele>197.4</ele>
        <time>2021-08-03T16:11:13Z</time>
      </trkpt>
      <trkpt lat="48.28629" lon="7.39036">
        <ele>197.4</ele>
        <time>2021-08-03T16:11:14Z</time>
      </trkpt>
      <trkpt lat="48.28629" lon="7.39041">
        <ele>197.4</ele>
        <time>2021-08-03T16:11:15Z</time>
      </trkpt>
      <trkpt lat="48.28629" lon="7.39046">
        <ele>197.4</ele>
        <time>2021-08-03T16:11:16Z</time>
      </trkpt>
      <trkpt lat="48.2863" lon="7.39049">
        <ele>197.4</ele>
        <time>2021-08-03T16:11:17Z</time>
      </trkpt>
      <trkpt lat="48.28633" lon="7.39053">
        <ele>197.4</ele>
        <time>2021-08-03T16:11:19Z</time>
      </trkpt>
      <trkpt lat="48.28635" lon="7.39056">
        <ele>197.3</ele>
        <time>2021-08-03T16:11:20Z</time>
      </trkpt>
      <trkpt lat="48.28637" lon="7.39062">
        <ele>197.3</ele>
        <time>2021-08-03T16:11:22Z</time>
      </trkpt>
      <trkpt lat="48.28641" lon="7.39069">
        <ele>197.3</ele>
        <time>2021-08-03T16:11:24Z</time>
      </trkpt>
      <trkpt lat="48.28642" lon="7.39071">
        <ele>197.3</ele>
        <time>2021-08-03T16:11:25Z</time>
      </trkpt>
      <trkpt lat="48.28645" lon="7.39075">
        <ele>197.3</ele>
        <time>2021-08-03T16:11:27Z</time>
      </trkpt>
      <trkpt lat="48.28646" lon="7.39077">
        <ele>197.3</ele>
        <time>2021-08-03T16:11:29Z</time>
      </trkpt>
      <trkpt lat="48.28647" lon="7.3908">
        <ele>197.3</ele>
        <time>2021-08-03T16:11:30Z</time>
      </trkpt>
      <trkpt lat="48.28648" lon="7.39083">
        <ele>197.3</ele>
        <time>2021-08-03T16:11:31Z</time>
      </trkpt>
      <trkpt lat="48.28649" lon="7.39088">
        <ele>197.3</ele>
        <time>2021-08-03T16:11:33Z</time>
      </trkpt>
      <trkpt lat="48.2865" lon="7.39094">
        <ele>197.3</ele>
        <time>2021-08-03T16:11:34Z</time>
      </trkpt>
      <trkpt lat="48.2865" lon="7.39099">
        <ele>197.3</ele>
        <time>2021-08-03T16:11:35Z</time>
      </trkpt>
      <trkpt lat="48.28649" lon="7.39104">
        <ele>197.3</ele>
        <time>2021-08-03T16:11:36Z</time>
      </trkpt>
      <trkpt lat="48.28648" lon="7.39111">
        <ele>197.2</ele>
        <time>2021-08-03T16:11:38Z</time>
      </trkpt>
      <trkpt lat="48.28647" lon="7.39117">
        <ele>197.2</ele>
        <time>2021-08-03T16:11:39Z</time>
      </trkpt>
      <trkpt lat="48.28646" lon="7.39121">
        <ele>197.2</ele>
        <time>2021-08-03T16:11:40Z</time>
      </trkpt>
      <trkpt lat="48.28646" lon="7.39126">
        <ele>197.2</ele>
        <time>2021-08-03T16:11:41Z</time>
      </trkpt>
      <trkpt lat="48.28645" lon="7.39132">
        <ele>197.2</ele>
        <time>2021-08-03T16:11:43Z</time>
      </trkpt>
      <trkpt lat="48.28645" lon="7.39138">
        <ele>197.1</ele>
        <time>2021-08-03T16:11:44Z</time>
      </trkpt>
      <trkpt lat="48.28645" lon="7.39142">
        <ele>197.1</ele>
        <time>2021-08-03T16:11:45Z</time>
      </trkpt>
      <trkpt lat="48.28645" lon="7.39148">
        <ele>197.1</ele>
        <time>2021-08-03T16:11:46Z</time>
      </trkpt>
      <trkpt lat="48.28645" lon="7.39149">
        <ele>197.1</ele>
        <time>2021-08-03T16:11:47Z</time>
      </trkpt>
      <trkpt lat="48.28647" lon="7.39157">
        <ele>197.1</ele>
        <time>2021-08-03T16:11:49Z</time>
      </trkpt>
      <trkpt lat="48.28648" lon="7.39161">
        <ele>197.1</ele>
        <time>2021-08-03T16:11:50Z</time>
      </trkpt>
      <trkpt lat="48.28649" lon="7.39168">
        <ele>197</ele>
        <time>2021-08-03T16:11:52Z</time>
      </trkpt>
      <trkpt lat="48.2865" lon="7.39173">
        <ele>197</ele>
        <time>2021-08-03T16:11:53Z</time>
      </trkpt>
      <trkpt lat="48.28651" lon="7.39175">
        <ele>197</ele>
        <time>2021-08-03T16:11:54Z</time>
      </trkpt>
      <trkpt lat="48.28652" lon="7.3918">
        <ele>197</ele>
        <time>2021-08-03T16:11:55Z</time>
      </trkpt>
      <trkpt lat="48.28652" lon="7.39182">
        <ele>197</ele>
        <time>2021-08-03T16:11:56Z</time>
      </trkpt>
      <trkpt lat="48.28654" lon="7.39188">
        <ele>197</ele>
        <time>2021-08-03T16:11:58Z</time>
      </trkpt>
      <trkpt lat="48.28655" lon="7.39193">
        <ele>197</ele>
        <time>2021-08-03T16:11:59Z</time>
      </trkpt>
      <trkpt lat="48.28657" lon="7.39198">
        <ele>197</ele>
        <time>2021-08-03T16:12:01Z</time>
      </trkpt>
      <trkpt lat="48.28658" lon="7.39202">
        <ele>196.9</ele>
        <time>2021-08-03T16:12:02Z</time>
      </trkpt>
      <trkpt lat="48.28659" lon="7.39204">
        <ele>196.9</ele>
        <time>2021-08-03T16:12:03Z</time>
      </trkpt>
      <trkpt lat="48.28662" lon="7.39207">
        <ele>196.9</ele>
        <time>2021-08-03T16:12:04Z</time>
      </trkpt>
      <trkpt lat="48.28663" lon="7.39208">
        <ele>196.9</ele>
        <time>2021-08-03T16:12:05Z</time>
      </trkpt>
      <trkpt lat="48.28666" lon="7.39211">
        <ele>196.8</ele>
        <time>2021-08-03T16:12:07Z</time>
      </trkpt>
      <trkpt lat="48.28669" lon="7.39215">
        <ele>196.8</ele>
        <time>2021-08-03T16:12:08Z</time>
      </trkpt>
      <trkpt lat="48.28672" lon="7.39216">
        <ele>196.8</ele>
        <time>2021-08-03T16:12:09Z</time>
      </trkpt>
      <trkpt lat="48.28674" lon="7.39219">
        <ele>196.7</ele>
        <time>2021-08-03T16:12:10Z</time>
      </trkpt>
      <trkpt lat="48.28674" lon="7.39221">
        <ele>196.7</ele>
        <time>2021-08-03T16:12:11Z</time>
      </trkpt>
      <trkpt lat="48.28674" lon="7.39226">
        <ele>196.7</ele>
        <time>2021-08-03T16:12:13Z</time>
      </trkpt>
      <trkpt lat="48.28675" lon="7.39232">
        <ele>196.6</ele>
        <time>2021-08-03T16:12:14Z</time>
      </trkpt>
      <trkpt lat="48.28675" lon="7.39239">
        <ele>196.6</ele>
        <time>2021-08-03T16:12:16Z</time>
      </trkpt>
      <trkpt lat="48.28675" lon="7.39247">
        <ele>196.5</ele>
        <time>2021-08-03T16:12:17Z</time>
      </trkpt>
      <trkpt lat="48.28671" lon="7.39261">
        <ele>196.4</ele>
        <time>2021-08-03T16:12:19Z</time>
      </trkpt>
      <trkpt lat="48.2867" lon="7.39267">
        <ele>196.4</ele>
        <time>2021-08-03T16:12:20Z</time>
      </trkpt>
      <trkpt lat="48.28666" lon="7.39277">
        <ele>196.3</ele>
        <time>2021-08-03T16:12:22Z</time>
      </trkpt>
      <trkpt lat="48.28662" lon="7.39285">
        <ele>196.3</ele>
        <time>2021-08-03T16:12:23Z</time>
      </trkpt>
      <trkpt lat="48.2866" lon="7.3929">
        <ele>196.3</ele>
        <time>2021-08-03T16:12:24Z</time>
      </trkpt>
      <trkpt lat="48.28658" lon="7.39293">
        <ele>196.2</ele>
        <time>2021-08-03T16:12:25Z</time>
      </trkpt>
      <trkpt lat="48.28655" lon="7.39301">
        <ele>196.2</ele>
        <time>2021-08-03T16:12:27Z</time>
      </trkpt>
      <trkpt lat="48.28653" lon="7.39305">
        <ele>196.2</ele>
        <time>2021-08-03T16:12:28Z</time>
      </trkpt>
      <trkpt lat="48.28651" lon="7.39312">
        <ele>196.2</ele>
        <time>2021-08-03T16:12:30Z</time>
      </trkpt>
      <trkpt lat="48.28649" lon="7.39317">
        <ele>196.1</ele>
        <time>2021-08-03T16:12:31Z</time>
      </trkpt>
      <trkpt lat="48.28647" lon="7.39325">
        <ele>196.1</ele>
        <time>2021-08-03T16:12:33Z</time>
      </trkpt>
      <trkpt lat="48.28647" lon="7.39331">
        <ele>196.1</ele>
        <time>2021-08-03T16:12:34Z</time>
      </trkpt>
      <trkpt lat="48.28646" lon="7.39336">
        <ele>196.1</ele>
        <time>2021-08-03T16:12:35Z</time>
      </trkpt>
      <trkpt lat="48.28648" lon="7.3934">
        <ele>196.1</ele>
        <time>2021-08-03T16:12:36Z</time>
      </trkpt>
      <trkpt lat="48.28648" lon="7.39342">
        <ele>196.1</ele>
        <time>2021-08-03T16:12:37Z</time>
      </trkpt>
      <trkpt lat="48.28647" lon="7.3935">
        <ele>196.1</ele>
        <time>2021-08-03T16:12:39Z</time>
      </trkpt>
      <trkpt lat="48.28646" lon="7.39355">
        <ele>196.1</ele>
        <time>2021-08-03T16:12:40Z</time>
      </trkpt>
      <trkpt lat="48.28645" lon="7.3936">
        <ele>196.1</ele>
        <time>2021-08-03T16:12:41Z</time>
      </trkpt>
      <trkpt lat="48.28641" lon="7.39367">
        <ele>196</ele>
        <time>2021-08-03T16:12:43Z</time>
      </trkpt>
      <trkpt lat="48.28639" lon="7.3937">
        <ele>196</ele>
        <time>2021-08-03T16:12:44Z</time>
      </trkpt>
      <trkpt lat="48.28637" lon="7.39375">
        <ele>196</ele>
        <time>2021-08-03T16:12:46Z</time>
      </trkpt>
      <trkpt lat="48.28634" lon="7.39383">
        <ele>196</ele>
        <time>2021-08-03T16:12:47Z</time>
      </trkpt>
      <trkpt lat="48.28632" lon="7.39387">
        <ele>196</ele>
        <time>2021-08-03T16:12:48Z</time>
      </trkpt>
      <trkpt lat="48.28629" lon="7.39394">
        <ele>196</ele>
        <time>2021-08-03T16:12:50Z</time>
      </trkpt>
      <trkpt lat="48.28627" lon="7.39398">
        <ele>196</ele>
        <time>2021-08-03T16:12:51Z</time>
      </trkpt>
      <trkpt lat="48.28626" lon="7.39402">
        <ele>196</ele>
        <time>2021-08-03T16:12:52Z</time>
      </trkpt>
      <trkpt lat="48.28626" lon="7.39404">
        <ele>196</ele>
        <time>2021-08-03T16:12:53Z</time>
      </trkpt>
      <trkpt lat="48.28624" lon="7.3941">
        <ele>196</ele>
        <time>2021-08-03T16:12:55Z</time>
      </trkpt>
      <trkpt lat="48.28624" lon="7.39415">
        <ele>196</ele>
        <time>2021-08-03T16:12:56Z</time>
      </trkpt>
      <trkpt lat="48.28622" lon="7.39423">
        <ele>196</ele>
        <time>2021-08-03T16:12:58Z</time>
      </trkpt>
      <trkpt lat="48.2862" lon="7.39435">
        <ele>195.9</ele>
        <time>2021-08-03T16:13:00Z</time>
      </trkpt>
      <trkpt lat="48.2862" lon="7.39442">
        <ele>195.9</ele>
        <time>2021-08-03T16:13:01Z</time>
      </trkpt>
      <trkpt lat="48.28621" lon="7.39453">
        <ele>195.9</ele>
        <time>2021-08-03T16:13:03Z</time>
      </trkpt>
      <trkpt lat="48.28621" lon="7.3946">
        <ele>195.8</ele>
        <time>2021-08-03T16:13:04Z</time>
      </trkpt>
      <trkpt lat="48.28621" lon="7.39467">
        <ele>195.8</ele>
        <time>2021-08-03T16:13:06Z</time>
      </trkpt>
      <trkpt lat="48.2862" lon="7.39475">
        <ele>195.8</ele>
        <time>2021-08-03T16:13:07Z</time>
      </trkpt>
      <trkpt lat="48.28619" lon="7.39481">
        <ele>195.7</ele>
        <time>2021-08-03T16:13:08Z</time>
      </trkpt>
      <trkpt lat="48.28616" lon="7.39487">
        <ele>195.7</ele>
        <time>2021-08-03T16:13:10Z</time>
      </trkpt>
      <trkpt lat="48.28613" lon="7.39494">
        <ele>195.7</ele>
        <time>2021-08-03T16:13:11Z</time>
      </trkpt>
      <trkpt lat="48.28612" lon="7.39506">
        <ele>195.6</ele>
        <time>2021-08-03T16:13:13Z</time>
      </trkpt>
      <trkpt lat="48.28613" lon="7.39517">
        <ele>195.6</ele>
        <time>2021-08-03T16:13:15Z</time>
      </trkpt>
      <trkpt lat="48.28614" lon="7.39526">
        <ele>195.6</ele>
        <time>2021-08-03T16:13:16Z</time>
      </trkpt>
      <trkpt lat="48.28614" lon="7.39534">
        <ele>195.6</ele>
        <time>2021-08-03T16:13:18Z</time>
      </trkpt>
      <trkpt lat="48.28615" lon="7.39539">
        <ele>195.6</ele>
        <time>2021-08-03T16:13:19Z</time>
      </trkpt>
      <trkpt lat="48.28615" lon="7.39544">
        <ele>195.6</ele>
        <time>2021-08-03T16:13:20Z</time>
      </trkpt>
      <trkpt lat="48.28615" lon="7.39547">
        <ele>195.6</ele>
        <time>2021-08-03T16:13:21Z</time>
      </trkpt>
      <trkpt lat="48.28614" lon="7.39556">
        <ele>195.6</ele>
        <time>2021-08-03T16:13:22Z</time>
      </trkpt>
      <trkpt lat="48.28611" lon="7.39561">
        <ele>195.6</ele>
        <time>2021-08-03T16:13:23Z</time>
      </trkpt>
      <trkpt lat="48.28607" lon="7.39566">
        <ele>195.6</ele>
        <time>2021-08-03T16:13:25Z</time>
      </trkpt>
      <trkpt lat="48.28603" lon="7.39569">
        <ele>195.5</ele>
        <time>2021-08-03T16:13:26Z</time>
      </trkpt>
      <trkpt lat="48.286" lon="7.39573">
        <ele>195.5</ele>
        <time>2021-08-03T16:13:27Z</time>
      </trkpt>
      <trkpt lat="48.28598" lon="7.39578">
        <ele>195.5</ele>
        <time>2021-08-03T16:13:28Z</time>
      </trkpt>
      <trkpt lat="48.28595" lon="7.39584">
        <ele>195.5</ele>
        <time>2021-08-03T16:13:29Z</time>
      </trkpt>
      <trkpt lat="48.28592" lon="7.3959">
        <ele>195.5</ele>
        <time>2021-08-03T16:13:30Z</time>
      </trkpt>
      <trkpt lat="48.2859" lon="7.39594">
        <ele>195.5</ele>
        <time>2021-08-03T16:13:31Z</time>
      </trkpt>
      <trkpt lat="48.28586" lon="7.396">
        <ele>195.5</ele>
        <time>2021-08-03T16:13:33Z</time>
      </trkpt>
      <trkpt lat="48.28583" lon="7.39603">
        <ele>195.5</ele>
        <time>2021-08-03T16:13:34Z</time>
      </trkpt>
      <trkpt lat="48.28581" lon="7.39606">
        <ele>195.5</ele>
        <time>2021-08-03T16:13:35Z</time>
      </trkpt>
      <trkpt lat="48.28578" lon="7.39609">
        <ele>195.5</ele>
        <time>2021-08-03T16:13:36Z</time>
      </trkpt>
      <trkpt lat="48.28575" lon="7.39612">
        <ele>195.5</ele>
        <time>2021-08-03T16:13:37Z</time>
      </trkpt>
      <trkpt lat="48.2857" lon="7.39618">
        <ele>195.5</ele>
        <time>2021-08-03T16:13:39Z</time>
      </trkpt>
      <trkpt lat="48.28566" lon="7.39625">
        <ele>195.5</ele>
        <time>2021-08-03T16:13:41Z</time>
      </trkpt>
      <trkpt lat="48.28563" lon="7.39631">
        <ele>195.5</ele>
        <time>2021-08-03T16:13:43Z</time>
      </trkpt>
      <trkpt lat="48.2856" lon="7.39637">
        <ele>195.5</ele>
        <time>2021-08-03T16:13:44Z</time>
      </trkpt>
      <trkpt lat="48.28556" lon="7.39644">
        <ele>195.4</ele>
        <time>2021-08-03T16:13:46Z</time>
      </trkpt>
      <trkpt lat="48.28552" lon="7.3965">
        <ele>195.4</ele>
        <time>2021-08-03T16:13:47Z</time>
      </trkpt>
      <trkpt lat="48.28548" lon="7.39661">
        <ele>195.3</ele>
        <time>2021-08-03T16:13:49Z</time>
      </trkpt>
      <trkpt lat="48.28546" lon="7.39666">
        <ele>195.3</ele>
        <time>2021-08-03T16:13:50Z</time>
      </trkpt>
      <trkpt lat="48.28544" lon="7.39674">
        <ele>195.2</ele>
        <time>2021-08-03T16:13:52Z</time>
      </trkpt>
      <trkpt lat="48.28542" lon="7.3968">
        <ele>195.2</ele>
        <time>2021-08-03T16:13:53Z</time>
      </trkpt>
      <trkpt lat="48.2854" lon="7.39686">
        <ele>195.2</ele>
        <time>2021-08-03T16:13:54Z</time>
      </trkpt>
      <trkpt lat="48.28538" lon="7.39695">
        <ele>195.1</ele>
        <time>2021-08-03T16:13:56Z</time>
      </trkpt>
      <trkpt lat="48.28538" lon="7.39698">
        <ele>195.1</ele>
        <time>2021-08-03T16:13:57Z</time>
      </trkpt>
      <trkpt lat="48.28539" lon="7.39703">
        <ele>195.1</ele>
        <time>2021-08-03T16:13:59Z</time>
      </trkpt>
      <trkpt lat="48.28539" lon="7.39707">
        <ele>195.1</ele>
        <time>2021-08-03T16:14:00Z</time>
      </trkpt>
      <trkpt lat="48.28538" lon="7.39713">
        <ele>195.1</ele>
        <time>2021-08-03T16:14:01Z</time>
      </trkpt>
      <trkpt lat="48.28536" lon="7.3972">
        <ele>195</ele>
        <time>2021-08-03T16:14:02Z</time>
      </trkpt>
      <trkpt lat="48.28535" lon="7.39725">
        <ele>195</ele>
        <time>2021-08-03T16:14:03Z</time>
      </trkpt>
      <trkpt lat="48.28533" lon="7.3973">
        <ele>195</ele>
        <time>2021-08-03T16:14:04Z</time>
      </trkpt>
      <trkpt lat="48.28532" lon="7.39736">
        <ele>195</ele>
        <time>2021-08-03T16:14:05Z</time>
      </trkpt>
      <trkpt lat="48.28532" lon="7.39741">
        <ele>195</ele>
        <time>2021-08-03T16:14:06Z</time>
      </trkpt>
      <trkpt lat="48.28531" lon="7.39748">
        <ele>194.9</ele>
        <time>2021-08-03T16:14:08Z</time>
      </trkpt>
      <trkpt lat="48.2853" lon="7.39754">
        <ele>194.9</ele>
        <time>2021-08-03T16:14:09Z</time>
      </trkpt>
      <trkpt lat="48.2853" lon="7.39757">
        <ele>194.9</ele>
        <time>2021-08-03T16:14:10Z</time>
      </trkpt>
      <trkpt lat="48.28529" lon="7.39762">
        <ele>194.9</ele>
        <time>2021-08-03T16:14:11Z</time>
      </trkpt>
      <trkpt lat="48.28528" lon="7.39769">
        <ele>194.9</ele>
        <time>2021-08-03T16:14:13Z</time>
      </trkpt>
      <trkpt lat="48.28527" lon="7.39777">
        <ele>194.9</ele>
        <time>2021-08-03T16:14:14Z</time>
      </trkpt>
      <trkpt lat="48.28526" lon="7.39782">
        <ele>194.8</ele>
        <time>2021-08-03T16:14:15Z</time>
      </trkpt>
      <trkpt lat="48.28522" lon="7.39787">
        <ele>194.8</ele>
        <time>2021-08-03T16:14:17Z</time>
      </trkpt>
      <trkpt lat="48.28518" lon="7.39792">
        <ele>194.8</ele>
        <time>2021-08-03T16:14:18Z</time>
      </trkpt>
      <trkpt lat="48.28514" lon="7.39797">
        <ele>194.8</ele>
        <time>2021-08-03T16:14:19Z</time>
      </trkpt>
      <trkpt lat="48.28511" lon="7.39801">
        <ele>194.8</ele>
        <time>2021-08-03T16:14:20Z</time>
      </trkpt>
      <trkpt lat="48.28508" lon="7.39806">
        <ele>194.8</ele>
        <time>2021-08-03T16:14:21Z</time>
      </trkpt>
      <trkpt lat="48.28504" lon="7.3981">
        <ele>194.7</ele>
        <time>2021-08-03T16:14:22Z</time>
      </trkpt>
      <trkpt lat="48.28497" lon="7.39818">
        <ele>194.6</ele>
        <time>2021-08-03T16:14:24Z</time>
      </trkpt>
      <trkpt lat="48.28494" lon="7.39822">
        <ele>194.6</ele>
        <time>2021-08-03T16:14:25Z</time>
      </trkpt>
      <trkpt lat="48.2849" lon="7.39827">
        <ele>194.6</ele>
        <time>2021-08-03T16:14:27Z</time>
      </trkpt>
      <trkpt lat="48.28486" lon="7.39831">
        <ele>194.5</ele>
        <time>2021-08-03T16:14:28Z</time>
      </trkpt>
      <trkpt lat="48.2848" lon="7.39836">
        <ele>194.5</ele>
        <time>2021-08-03T16:14:30Z</time>
      </trkpt>
      <trkpt lat="48.28476" lon="7.39841">
        <ele>194.5</ele>
        <time>2021-08-03T16:14:31Z</time>
      </trkpt>
      <trkpt lat="48.28471" lon="7.39844">
        <ele>194.4</ele>
        <time>2021-08-03T16:14:32Z</time>
      </trkpt>
      <trkpt lat="48.28465" lon="7.39849">
        <ele>194.4</ele>
        <time>2021-08-03T16:14:34Z</time>
      </trkpt>
      <trkpt lat="48.28461" lon="7.39853">
        <ele>194.4</ele>
        <time>2021-08-03T16:14:35Z</time>
      </trkpt>
      <trkpt lat="48.28458" lon="7.39855">
        <ele>194.4</ele>
        <time>2021-08-03T16:14:36Z</time>
      </trkpt>
      <trkpt lat="48.28453" lon="7.39859">
        <ele>194.4</ele>
        <time>2021-08-03T16:14:38Z</time>
      </trkpt>
      <trkpt lat="48.28446" lon="7.39865">
        <ele>194.3</ele>
        <time>2021-08-03T16:14:41Z</time>
      </trkpt>
      <trkpt lat="48.28443" lon="7.39867">
        <ele>194.3</ele>
        <time>2021-08-03T16:14:42Z</time>
      </trkpt>
      <trkpt lat="48.2844" lon="7.3987">
        <ele>194.3</ele>
        <time>2021-08-03T16:14:43Z</time>
      </trkpt>
      <trkpt lat="48.28435" lon="7.39874">
        <ele>194.3</ele>
        <time>2021-08-03T16:14:45Z</time>
      </trkpt>
      <trkpt lat="48.28431" lon="7.39877">
        <ele>194.3</ele>
        <time>2021-08-03T16:14:46Z</time>
      </trkpt>
      <trkpt lat="48.28426" lon="7.39881">
        <ele>194.2</ele>
        <time>2021-08-03T16:14:48Z</time>
      </trkpt>
      <trkpt lat="48.28422" lon="7.39887">
        <ele>194.2</ele>
        <time>2021-08-03T16:14:49Z</time>
      </trkpt>
      <trkpt lat="48.28417" lon="7.39891">
        <ele>194.1</ele>
        <time>2021-08-03T16:14:51Z</time>
      </trkpt>
      <trkpt lat="48.28414" lon="7.39893">
        <ele>194.1</ele>
        <time>2021-08-03T16:14:52Z</time>
      </trkpt>
      <trkpt lat="48.28411" lon="7.39898">
        <ele>194.1</ele>
        <time>2021-08-03T16:14:53Z</time>
      </trkpt>
      <trkpt lat="48.28408" lon="7.39904">
        <ele>194</ele>
        <time>2021-08-03T16:14:55Z</time>
      </trkpt>
      <trkpt lat="48.28407" lon="7.39909">
        <ele>194</ele>
        <time>2021-08-03T16:14:56Z</time>
      </trkpt>
      <trkpt lat="48.28405" lon="7.39914">
        <ele>194</ele>
        <time>2021-08-03T16:14:58Z</time>
      </trkpt>
      <trkpt lat="48.28404" lon="7.39919">
        <ele>194</ele>
        <time>2021-08-03T16:14:59Z</time>
      </trkpt>
      <trkpt lat="48.28404" lon="7.39924">
        <ele>193.9</ele>
        <time>2021-08-03T16:15:00Z</time>
      </trkpt>
      <trkpt lat="48.28402" lon="7.3993">
        <ele>193.9</ele>
        <time>2021-08-03T16:15:02Z</time>
      </trkpt>
      <trkpt lat="48.28401" lon="7.39935">
        <ele>193.9</ele>
        <time>2021-08-03T16:15:03Z</time>
      </trkpt>
      <trkpt lat="48.284" lon="7.3994">
        <ele>193.9</ele>
        <time>2021-08-03T16:15:04Z</time>
      </trkpt>
      <trkpt lat="48.28399" lon="7.39945">
        <ele>193.8</ele>
        <time>2021-08-03T16:15:05Z</time>
      </trkpt>
      <trkpt lat="48.28396" lon="7.39955">
        <ele>193.8</ele>
        <time>2021-08-03T16:15:07Z</time>
      </trkpt>
      <trkpt lat="48.28394" lon="7.39961">
        <ele>193.8</ele>
        <time>2021-08-03T16:15:08Z</time>
      </trkpt>
      <trkpt lat="48.28392" lon="7.39967">
        <ele>193.8</ele>
        <time>2021-08-03T16:15:09Z</time>
      </trkpt>
      <trkpt lat="48.28389" lon="7.39975">
        <ele>193.7</ele>
        <time>2021-08-03T16:15:11Z</time>
      </trkpt>
      <trkpt lat="48.28387" lon="7.39981">
        <ele>193.7</ele>
        <time>2021-08-03T16:15:12Z</time>
      </trkpt>
      <trkpt lat="48.28385" lon="7.39986">
        <ele>193.7</ele>
        <time>2021-08-03T16:15:13Z</time>
      </trkpt>
      <trkpt lat="48.28382" lon="7.39994">
        <ele>193.6</ele>
        <time>2021-08-03T16:15:15Z</time>
      </trkpt>
      <trkpt lat="48.28379" lon="7.39999">
        <ele>193.6</ele>
        <time>2021-08-03T16:15:16Z</time>
      </trkpt>
      <trkpt lat="48.28377" lon="7.40004">
        <ele>193.6</ele>
        <time>2021-08-03T16:15:17Z</time>
      </trkpt>
      <trkpt lat="48.28373" lon="7.4001">
        <ele>193.5</ele>
        <time>2021-08-03T16:15:19Z</time>
      </trkpt>
      <trkpt lat="48.28371" lon="7.40015">
        <ele>193.5</ele>
        <time>2021-08-03T16:15:20Z</time>
      </trkpt>
      <trkpt lat="48.28368" lon="7.40021">
        <ele>193.4</ele>
        <time>2021-08-03T16:15:22Z</time>
      </trkpt>
      <trkpt lat="48.28366" lon="7.40024">
        <ele>193.4</ele>
        <time>2021-08-03T16:15:23Z</time>
      </trkpt>
      <trkpt lat="48.28363" lon="7.40026">
        <ele>193.4</ele>
        <time>2021-08-03T16:15:24Z</time>
      </trkpt>
      <trkpt lat="48.28357" lon="7.4003">
        <ele>193.3</ele>
        <time>2021-08-03T16:15:26Z</time>
      </trkpt>
      <trkpt lat="48.28354" lon="7.40034">
        <ele>193.3</ele>
        <time>2021-08-03T16:15:28Z</time>
      </trkpt>
      <trkpt lat="48.28351" lon="7.40036">
        <ele>193.2</ele>
        <time>2021-08-03T16:15:29Z</time>
      </trkpt>
      <trkpt lat="48.28347" lon="7.40038">
        <ele>193.2</ele>
        <time>2021-08-03T16:15:30Z</time>
      </trkpt>
      <trkpt lat="48.28342" lon="7.4004">
        <ele>193.1</ele>
        <time>2021-08-03T16:15:31Z</time>
      </trkpt>
      <trkpt lat="48.28337" lon="7.40041">
        <ele>193.1</ele>
        <time>2021-08-03T16:15:32Z</time>
      </trkpt>
      <trkpt lat="48.28327" lon="7.40045">
        <ele>193</ele>
        <time>2021-08-03T16:15:33Z</time>
      </trkpt>
      <trkpt lat="48.28322" lon="7.40048">
        <ele>192.9</ele>
        <time>2021-08-03T16:15:34Z</time>
      </trkpt>
      <trkpt lat="48.28317" lon="7.40051">
        <ele>192.8</ele>
        <time>2021-08-03T16:15:35Z</time>
      </trkpt>
      <trkpt lat="48.28312" lon="7.40052">
        <ele>192.7</ele>
        <time>2021-08-03T16:15:37Z</time>
      </trkpt>
      <trkpt lat="48.28308" lon="7.40054">
        <ele>192.7</ele>
        <time>2021-08-03T16:15:38Z</time>
      </trkpt>
      <trkpt lat="48.28303" lon="7.4006">
        <ele>192.6</ele>
        <time>2021-08-03T16:15:39Z</time>
      </trkpt>
      <trkpt lat="48.28298" lon="7.40062">
        <ele>192.5</ele>
        <time>2021-08-03T16:15:40Z</time>
      </trkpt>
      <trkpt lat="48.28295" lon="7.40064">
        <ele>192.5</ele>
        <time>2021-08-03T16:15:41Z</time>
      </trkpt>
      <trkpt lat="48.2829" lon="7.40066">
        <ele>192.5</ele>
        <time>2021-08-03T16:15:43Z</time>
      </trkpt>
      <trkpt lat="48.28281" lon="7.40072">
        <ele>192.4</ele>
        <time>2021-08-03T16:15:44Z</time>
      </trkpt>
      <trkpt lat="48.28276" lon="7.40075">
        <ele>192.4</ele>
        <time>2021-08-03T16:15:45Z</time>
      </trkpt>
      <trkpt lat="48.28273" lon="7.40077">
        <ele>192.4</ele>
        <time>2021-08-03T16:15:46Z</time>
      </trkpt>
      <trkpt lat="48.28268" lon="7.40082">
        <ele>192.3</ele>
        <time>2021-08-03T16:15:48Z</time>
      </trkpt>
      <trkpt lat="48.28264" lon="7.40087">
        <ele>192.3</ele>
        <time>2021-08-03T16:15:49Z</time>
      </trkpt>
      <trkpt lat="48.2826" lon="7.40092">
        <ele>192.2</ele>
        <time>2021-08-03T16:15:50Z</time>
      </trkpt>
      <trkpt lat="48.28257" lon="7.40097">
        <ele>192.2</ele>
        <time>2021-08-03T16:15:51Z</time>
      </trkpt>
      <trkpt lat="48.28252" lon="7.40103">
        <ele>192.2</ele>
        <time>2021-08-03T16:15:52Z</time>
      </trkpt>
      <trkpt lat="48.28249" lon="7.40109">
        <ele>192.1</ele>
        <time>2021-08-03T16:15:53Z</time>
      </trkpt>
      <trkpt lat="48.28246" lon="7.40114">
        <ele>192.1</ele>
        <time>2021-08-03T16:15:54Z</time>
      </trkpt>
      <trkpt lat="48.2824" lon="7.4012">
        <ele>192</ele>
        <time>2021-08-03T16:15:56Z</time>
      </trkpt>
      <trkpt lat="48.28237" lon="7.40125">
        <ele>192</ele>
        <time>2021-08-03T16:15:57Z</time>
      </trkpt>
      <trkpt lat="48.28236" lon="7.40126">
        <ele>192</ele>
        <time>2021-08-03T16:15:58Z</time>
      </trkpt>
      <trkpt lat="48.28232" lon="7.40132">
        <ele>191.9</ele>
        <time>2021-08-03T16:16:00Z</time>
      </trkpt>
      <trkpt lat="48.28229" lon="7.40136">
        <ele>191.9</ele>
        <time>2021-08-03T16:16:01Z</time>
      </trkpt>
      <trkpt lat="48.28226" lon="7.4014">
        <ele>191.9</ele>
        <time>2021-08-03T16:16:02Z</time>
      </trkpt>
      <trkpt lat="48.28223" lon="7.40143">
        <ele>191.9</ele>
        <time>2021-08-03T16:16:03Z</time>
      </trkpt>
      <trkpt lat="48.28218" lon="7.40148">
        <ele>191.9</ele>
        <time>2021-08-03T16:16:05Z</time>
      </trkpt>
      <trkpt lat="48.28213" lon="7.40154">
        <ele>191.9</ele>
        <time>2021-08-03T16:16:06Z</time>
      </trkpt>
      <trkpt lat="48.2821" lon="7.40158">
        <ele>191.9</ele>
        <time>2021-08-03T16:16:07Z</time>
      </trkpt>
      <trkpt lat="48.28204" lon="7.40164">
        <ele>192</ele>
        <time>2021-08-03T16:16:09Z</time>
      </trkpt>
      <trkpt lat="48.28202" lon="7.40169">
        <ele>192</ele>
        <time>2021-08-03T16:16:11Z</time>
      </trkpt>
      <trkpt lat="48.28202" lon="7.40175">
        <ele>192.2</ele>
        <time>2021-08-03T16:16:12Z</time>
      </trkpt>
      <trkpt lat="48.28201" lon="7.40182">
        <ele>192.3</ele>
        <time>2021-08-03T16:16:13Z</time>
      </trkpt>
      <trkpt lat="48.28201" lon="7.40187">
        <ele>192.5</ele>
        <time>2021-08-03T16:16:14Z</time>
      </trkpt>
      <trkpt lat="48.28204" lon="7.40192">
        <ele>192.6</ele>
        <time>2021-08-03T16:16:16Z</time>
      </trkpt>
      <trkpt lat="48.28207" lon="7.40194">
        <ele>192.6</ele>
        <time>2021-08-03T16:16:17Z</time>
      </trkpt>
      <trkpt lat="48.28212" lon="7.40194">
        <ele>192.5</ele>
        <time>2021-08-03T16:16:18Z</time>
      </trkpt>
      <trkpt lat="48.28218" lon="7.40194">
        <ele>192.5</ele>
        <time>2021-08-03T16:16:19Z</time>
      </trkpt>
      <trkpt lat="48.28223" lon="7.40195">
        <ele>192.5</ele>
        <time>2021-08-03T16:16:20Z</time>
      </trkpt>
      <trkpt lat="48.2823" lon="7.40196">
        <ele>192.6</ele>
        <time>2021-08-03T16:16:22Z</time>
      </trkpt>
      <trkpt lat="48.28234" lon="7.40197">
        <ele>192.7</ele>
        <time>2021-08-03T16:16:23Z</time>
      </trkpt>
      <trkpt lat="48.2824" lon="7.40202">
        <ele>192.8</ele>
        <time>2021-08-03T16:16:24Z</time>
      </trkpt>
      <trkpt lat="48.28241" lon="7.40205">
        <ele>193</ele>
        <time>2021-08-03T16:16:25Z</time>
      </trkpt>
      <trkpt lat="48.28242" lon="7.4021">
        <ele>193.2</ele>
        <time>2021-08-03T16:16:27Z</time>
      </trkpt>
      <trkpt lat="48.2824" lon="7.40215">
        <ele>193.4</ele>
        <time>2021-08-03T16:16:28Z</time>
      </trkpt>
      <trkpt lat="48.28236" lon="7.40217">
        <ele>193.5</ele>
        <time>2021-08-03T16:16:30Z</time>
      </trkpt>
      <trkpt lat="48.28233" lon="7.40217">
        <ele>193.4</ele>
        <time>2021-08-03T16:16:31Z</time>
      </trkpt>
      <trkpt lat="48.28231" lon="7.40217">
        <ele>193.4</ele>
        <time>2021-08-03T16:16:33Z</time>
      </trkpt>
      <trkpt lat="48.28226" lon="7.40218">
        <ele>193.4</ele>
        <time>2021-08-03T16:16:34Z</time>
      </trkpt>
      <trkpt lat="48.28224" lon="7.40218">
        <ele>193.4</ele>
        <time>2021-08-03T16:16:35Z</time>
      </trkpt>
      <trkpt lat="48.28219" lon="7.40219">
        <ele>193.3</ele>
        <time>2021-08-03T16:16:37Z</time>
      </trkpt>
      <trkpt lat="48.28216" lon="7.4022">
        <ele>193.3</ele>
        <time>2021-08-03T16:16:38Z</time>
      </trkpt>
      <trkpt lat="48.28211" lon="7.40219">
        <ele>193.3</ele>
        <time>2021-08-03T16:16:40Z</time>
      </trkpt>
      <trkpt lat="48.28205" lon="7.40217">
        <ele>193.3</ele>
        <time>2021-08-03T16:16:42Z</time>
      </trkpt>
      <trkpt lat="48.28202" lon="7.40217">
        <ele>193.3</ele>
        <time>2021-08-03T16:16:43Z</time>
      </trkpt>
      <trkpt lat="48.28198" lon="7.40217">
        <ele>193.2</ele>
        <time>2021-08-03T16:16:45Z</time>
      </trkpt>
      <trkpt lat="48.28194" lon="7.40217">
        <ele>193.2</ele>
        <time>2021-08-03T16:16:46Z</time>
      </trkpt>
      <trkpt lat="48.28192" lon="7.40217">
        <ele>193.2</ele>
        <time>2021-08-03T16:16:47Z</time>
      </trkpt>
      <trkpt lat="48.28189" lon="7.40218">
        <ele>193.2</ele>
        <time>2021-08-03T16:16:49Z</time>
      </trkpt>
      <trkpt lat="48.28184" lon="7.40218">
        <ele>193.2</ele>
        <time>2021-08-03T16:16:50Z</time>
      </trkpt>
      <trkpt lat="48.28181" lon="7.40218">
        <ele>193.2</ele>
        <time>2021-08-03T16:16:52Z</time>
      </trkpt>
      <trkpt lat="48.28177" lon="7.40218">
        <ele>193.1</ele>
        <time>2021-08-03T16:16:53Z</time>
      </trkpt>
      <trkpt lat="48.28175" lon="7.40218">
        <ele>193.1</ele>
        <time>2021-08-03T16:16:54Z</time>
      </trkpt>
      <trkpt lat="48.28173" lon="7.40218">
        <ele>193.1</ele>
        <time>2021-08-03T16:16:55Z</time>
      </trkpt>
      <trkpt lat="48.28168" lon="7.40217">
        <ele>193.1</ele>
        <time>2021-08-03T16:16:57Z</time>
      </trkpt>
      <trkpt lat="48.28167" lon="7.40217">
        <ele>193.1</ele>
        <time>2021-08-03T16:16:58Z</time>
      </trkpt>
      <trkpt lat="48.28164" lon="7.40216">
        <ele>193.1</ele>
        <time>2021-08-03T16:17:00Z</time>
      </trkpt>
      <trkpt lat="48.2816" lon="7.40216">
        <ele>193</ele>
        <time>2021-08-03T16:17:01Z</time>
      </trkpt>
      <trkpt lat="48.28159" lon="7.40216">
        <ele>193</ele>
        <time>2021-08-03T16:17:02Z</time>
      </trkpt>
      <trkpt lat="48.28155" lon="7.40215">
        <ele>193</ele>
        <time>2021-08-03T16:17:04Z</time>
      </trkpt>
      <trkpt lat="48.28151" lon="7.40215">
        <ele>193</ele>
        <time>2021-08-03T16:17:05Z</time>
      </trkpt>
      <trkpt lat="48.28149" lon="7.40215">
        <ele>193</ele>
        <time>2021-08-03T16:17:06Z</time>
      </trkpt>
      <trkpt lat="48.28146" lon="7.40215">
        <ele>193</ele>
        <time>2021-08-03T16:17:08Z</time>
      </trkpt>
      <trkpt lat="48.28143" lon="7.40215">
        <ele>193</ele>
        <time>2021-08-03T16:17:09Z</time>
      </trkpt>
      <trkpt lat="48.2814" lon="7.40214">
        <ele>193</ele>
        <time>2021-08-03T16:17:10Z</time>
      </trkpt>
      <trkpt lat="48.28139" lon="7.40214">
        <ele>193</ele>
        <time>2021-08-03T16:17:11Z</time>
      </trkpt>
      <trkpt lat="48.28132" lon="7.40212">
        <ele>192.9</ele>
        <time>2021-08-03T16:17:13Z</time>
      </trkpt>
      <trkpt lat="48.28127" lon="7.40211">
        <ele>192.9</ele>
        <time>2021-08-03T16:17:15Z</time>
      </trkpt>
      <trkpt lat="48.28124" lon="7.40209">
        <ele>192.9</ele>
        <time>2021-08-03T16:17:17Z</time>
      </trkpt>
      <trkpt lat="48.2812" lon="7.40208">
        <ele>192.9</ele>
        <time>2021-08-03T16:17:19Z</time>
      </trkpt>
      <trkpt lat="48.28116" lon="7.40209">
        <ele>192.9</ele>
        <time>2021-08-03T16:17:21Z</time>
      </trkpt>
      <trkpt lat="48.28112" lon="7.40209">
        <ele>192.9</ele>
        <time>2021-08-03T16:17:22Z</time>
      </trkpt>
      <trkpt lat="48.28111" lon="7.40209">
        <ele>192.9</ele>
        <time>2021-08-03T16:17:23Z</time>
      </trkpt>
      <trkpt lat="48.28107" lon="7.40207">
        <ele>192.9</ele>
        <time>2021-08-03T16:17:25Z</time>
      </trkpt>
      <trkpt lat="48.28103" lon="7.40205">
        <ele>192.9</ele>
        <time>2021-08-03T16:17:26Z</time>
      </trkpt>
      <trkpt lat="48.281" lon="7.40204">
        <ele>192.9</ele>
        <time>2021-08-03T16:17:28Z</time>
      </trkpt>
      <trkpt lat="48.28096" lon="7.40203">
        <ele>192.9</ele>
        <time>2021-08-03T16:17:29Z</time>
      </trkpt>
      <trkpt lat="48.28092" lon="7.40201">
        <ele>192.8</ele>
        <time>2021-08-03T16:17:32Z</time>
      </trkpt>
      <trkpt lat="48.28088" lon="7.402">
        <ele>192.8</ele>
        <time>2021-08-03T16:17:33Z</time>
      </trkpt>
      <trkpt lat="48.28084" lon="7.402">
        <ele>192.8</ele>
        <time>2021-08-03T16:17:35Z</time>
      </trkpt>
      <trkpt lat="48.28079" lon="7.40198">
        <ele>192.8</ele>
        <time>2021-08-03T16:17:37Z</time>
      </trkpt>
      <trkpt lat="48.28078" lon="7.40197">
        <ele>192.8</ele>
        <time>2021-08-03T16:17:38Z</time>
      </trkpt>
      <trkpt lat="48.28076" lon="7.40196">
        <ele>192.8</ele>
        <time>2021-08-03T16:17:39Z</time>
      </trkpt>
      <trkpt lat="48.28073" lon="7.40196">
        <ele>192.8</ele>
        <time>2021-08-03T16:17:40Z</time>
      </trkpt>
      <trkpt lat="48.2807" lon="7.40196">
        <ele>192.8</ele>
        <time>2021-08-03T16:17:41Z</time>
      </trkpt>
      <trkpt lat="48.28066" lon="7.40195">
        <ele>192.7</ele>
        <time>2021-08-03T16:17:43Z</time>
      </trkpt>
      <trkpt lat="48.28063" lon="7.40194">
        <ele>192.7</ele>
        <time>2021-08-03T16:17:44Z</time>
      </trkpt>
      <trkpt lat="48.28059" lon="7.40193">
        <ele>192.7</ele>
        <time>2021-08-03T16:17:45Z</time>
      </trkpt>
      <trkpt lat="48.28056" lon="7.40192">
        <ele>192.7</ele>
        <time>2021-08-03T16:17:46Z</time>
      </trkpt>
      <trkpt lat="48.28052" lon="7.40191">
        <ele>192.7</ele>
        <time>2021-08-03T16:17:47Z</time>
      </trkpt>
      <trkpt lat="48.28046" lon="7.40191">
        <ele>192.7</ele>
        <time>2021-08-03T16:17:49Z</time>
      </trkpt>
      <trkpt lat="48.28039" lon="7.4019">
        <ele>192.7</ele>
        <time>2021-08-03T16:17:51Z</time>
      </trkpt>
      <trkpt lat="48.28033" lon="7.40189">
        <ele>192.7</ele>
        <time>2021-08-03T16:17:53Z</time>
      </trkpt>
      <trkpt lat="48.28027" lon="7.40187">
        <ele>192.7</ele>
        <time>2021-08-03T16:17:54Z</time>
      </trkpt>
      <trkpt lat="48.28024" lon="7.40186">
        <ele>192.7</ele>
        <time>2021-08-03T16:17:55Z</time>
      </trkpt>
      <trkpt lat="48.28016" lon="7.40183">
        <ele>192.7</ele>
        <time>2021-08-03T16:17:57Z</time>
      </trkpt>
      <trkpt lat="48.28012" lon="7.40183">
        <ele>192.7</ele>
        <time>2021-08-03T16:17:58Z</time>
      </trkpt>
      <trkpt lat="48.28003" lon="7.40184">
        <ele>192.7</ele>
        <time>2021-08-03T16:18:00Z</time>
      </trkpt>
      <trkpt lat="48.27997" lon="7.40183">
        <ele>192.6</ele>
        <time>2021-08-03T16:18:01Z</time>
      </trkpt>
      <trkpt lat="48.27986" lon="7.40184">
        <ele>192.6</ele>
        <time>2021-08-03T16:18:03Z</time>
      </trkpt>
      <trkpt lat="48.27981" lon="7.40186">
        <ele>192.6</ele>
        <time>2021-08-03T16:18:04Z</time>
      </trkpt>
      <trkpt lat="48.27975" lon="7.40187">
        <ele>192.6</ele>
        <time>2021-08-03T16:18:05Z</time>
      </trkpt>
      <trkpt lat="48.27969" lon="7.40189">
        <ele>192.6</ele>
        <time>2021-08-03T16:18:06Z</time>
      </trkpt>
      <trkpt lat="48.27956" lon="7.40192">
        <ele>192.6</ele>
        <time>2021-08-03T16:18:08Z</time>
      </trkpt>
      <trkpt lat="48.27944" lon="7.40197">
        <ele>192.5</ele>
        <time>2021-08-03T16:18:10Z</time>
      </trkpt>
      <trkpt lat="48.27937" lon="7.40198">
        <ele>192.5</ele>
        <time>2021-08-03T16:18:11Z</time>
      </trkpt>
      <trkpt lat="48.27923" lon="7.40199">
        <ele>192.4</ele>
        <time>2021-08-03T16:18:13Z</time>
      </trkpt>
      <trkpt lat="48.27917" lon="7.402">
        <ele>192.4</ele>
        <time>2021-08-03T16:18:14Z</time>
      </trkpt>
      <trkpt lat="48.27905" lon="7.40202">
        <ele>192.3</ele>
        <time>2021-08-03T16:18:16Z</time>
      </trkpt>
      <trkpt lat="48.279" lon="7.40202">
        <ele>192.3</ele>
        <time>2021-08-03T16:18:17Z</time>
      </trkpt>
      <trkpt lat="48.27895" lon="7.40202">
        <ele>192.2</ele>
        <time>2021-08-03T16:18:18Z</time>
      </trkpt>
      <trkpt lat="48.27886" lon="7.40202">
        <ele>192.2</ele>
        <time>2021-08-03T16:18:20Z</time>
      </trkpt>
      <trkpt lat="48.27881" lon="7.40201">
        <ele>192.1</ele>
        <time>2021-08-03T16:18:21Z</time>
      </trkpt>
      <trkpt lat="48.27877" lon="7.40199">
        <ele>192.1</ele>
        <time>2021-08-03T16:18:22Z</time>
      </trkpt>
      <trkpt lat="48.27866" lon="7.40196">
        <ele>192</ele>
        <time>2021-08-03T16:18:24Z</time>
      </trkpt>
      <trkpt lat="48.27861" lon="7.40195">
        <ele>192</ele>
        <time>2021-08-03T16:18:25Z</time>
      </trkpt>
      <trkpt lat="48.27852" lon="7.40192">
        <ele>192</ele>
        <time>2021-08-03T16:18:27Z</time>
      </trkpt>
      <trkpt lat="48.27843" lon="7.40189">
        <ele>191.9</ele>
        <time>2021-08-03T16:18:29Z</time>
      </trkpt>
      <trkpt lat="48.27835" lon="7.40185">
        <ele>191.9</ele>
        <time>2021-08-03T16:18:31Z</time>
      </trkpt>
      <trkpt lat="48.27828" lon="7.40184">
        <ele>191.9</ele>
        <time>2021-08-03T16:18:33Z</time>
      </trkpt>
      <trkpt lat="48.27824" lon="7.40183">
        <ele>191.9</ele>
        <time>2021-08-03T16:18:34Z</time>
      </trkpt>
      <trkpt lat="48.27816" lon="7.40179">
        <ele>191.9</ele>
        <time>2021-08-03T16:18:36Z</time>
      </trkpt>
      <trkpt lat="48.27812" lon="7.40179">
        <ele>191.9</ele>
        <time>2021-08-03T16:18:37Z</time>
      </trkpt>
      <trkpt lat="48.27808" lon="7.4018">
        <ele>191.9</ele>
        <time>2021-08-03T16:18:38Z</time>
      </trkpt>
      <trkpt lat="48.27804" lon="7.40176">
        <ele>191.9</ele>
        <time>2021-08-03T16:18:39Z</time>
      </trkpt>
      <trkpt lat="48.27801" lon="7.40176">
        <ele>191.9</ele>
        <time>2021-08-03T16:18:40Z</time>
      </trkpt>
      <trkpt lat="48.27794" lon="7.40176">
        <ele>191.9</ele>
        <time>2021-08-03T16:18:42Z</time>
      </trkpt>
      <trkpt lat="48.2779" lon="7.40175">
        <ele>191.8</ele>
        <time>2021-08-03T16:18:43Z</time>
      </trkpt>
      <trkpt lat="48.27786" lon="7.40172">
        <ele>191.8</ele>
        <time>2021-08-03T16:18:44Z</time>
      </trkpt>
      <trkpt lat="48.2778" lon="7.40168">
        <ele>191.8</ele>
        <time>2021-08-03T16:18:46Z</time>
      </trkpt>
      <trkpt lat="48.27776" lon="7.40166">
        <ele>191.8</ele>
        <time>2021-08-03T16:18:47Z</time>
      </trkpt>
      <trkpt lat="48.27769" lon="7.40163">
        <ele>191.8</ele>
        <time>2021-08-03T16:18:49Z</time>
      </trkpt>
      <trkpt lat="48.27765" lon="7.40161">
        <ele>191.8</ele>
        <time>2021-08-03T16:18:50Z</time>
      </trkpt>
      <trkpt lat="48.27759" lon="7.4016">
        <ele>191.8</ele>
        <time>2021-08-03T16:18:52Z</time>
      </trkpt>
      <trkpt lat="48.27755" lon="7.4016">
        <ele>191.8</ele>
        <time>2021-08-03T16:18:53Z</time>
      </trkpt>
      <trkpt lat="48.2775" lon="7.40162">
        <ele>191.8</ele>
        <time>2021-08-03T16:18:54Z</time>
      </trkpt>
      <trkpt lat="48.27746" lon="7.40162">
        <ele>191.8</ele>
        <time>2021-08-03T16:18:55Z</time>
      </trkpt>
      <trkpt lat="48.2774" lon="7.40162">
        <ele>191.8</ele>
        <time>2021-08-03T16:18:57Z</time>
      </trkpt>
      <trkpt lat="48.27737" lon="7.40161">
        <ele>191.8</ele>
        <time>2021-08-03T16:18:58Z</time>
      </trkpt>
      <trkpt lat="48.27734" lon="7.40159">
        <ele>191.8</ele>
        <time>2021-08-03T16:18:59Z</time>
      </trkpt>
      <trkpt lat="48.2773" lon="7.40156">
        <ele>191.8</ele>
        <time>2021-08-03T16:19:00Z</time>
      </trkpt>
      <trkpt lat="48.27727" lon="7.40154">
        <ele>191.8</ele>
        <time>2021-08-03T16:19:01Z</time>
      </trkpt>
      <trkpt lat="48.2772" lon="7.4015">
        <ele>191.8</ele>
        <time>2021-08-03T16:19:03Z</time>
      </trkpt>
      <trkpt lat="48.27715" lon="7.40148">
        <ele>191.8</ele>
        <time>2021-08-03T16:19:04Z</time>
      </trkpt>
      <trkpt lat="48.2771" lon="7.40145">
        <ele>191.9</ele>
        <time>2021-08-03T16:19:05Z</time>
      </trkpt>
      <trkpt lat="48.27704" lon="7.40138">
        <ele>191.9</ele>
        <time>2021-08-03T16:19:06Z</time>
      </trkpt>
      <trkpt lat="48.27695" lon="7.40127">
        <ele>191.9</ele>
        <time>2021-08-03T16:19:08Z</time>
      </trkpt>
      <trkpt lat="48.2769" lon="7.40124">
        <ele>191.9</ele>
        <time>2021-08-03T16:19:09Z</time>
      </trkpt>
      <trkpt lat="48.27688" lon="7.4012">
        <ele>191.9</ele>
        <time>2021-08-03T16:19:10Z</time>
      </trkpt>
      <trkpt lat="48.27685" lon="7.40117">
        <ele>191.9</ele>
        <time>2021-08-03T16:19:11Z</time>
      </trkpt>
      <trkpt lat="48.2768" lon="7.40112">
        <ele>192</ele>
        <time>2021-08-03T16:19:13Z</time>
      </trkpt>
      <trkpt lat="48.27673" lon="7.40106">
        <ele>192</ele>
        <time>2021-08-03T16:19:14Z</time>
      </trkpt>
      <trkpt lat="48.27669" lon="7.40105">
        <ele>192</ele>
        <time>2021-08-03T16:19:16Z</time>
      </trkpt>
      <trkpt lat="48.27667" lon="7.40102">
        <ele>192.1</ele>
        <time>2021-08-03T16:19:17Z</time>
      </trkpt>
      <trkpt lat="48.27664" lon="7.401">
        <ele>192.1</ele>
        <time>2021-08-03T16:19:18Z</time>
      </trkpt>
      <trkpt lat="48.27661" lon="7.40096">
        <ele>192.1</ele>
        <time>2021-08-03T16:19:19Z</time>
      </trkpt>
      <trkpt lat="48.27658" lon="7.40092">
        <ele>192.1</ele>
        <time>2021-08-03T16:19:20Z</time>
      </trkpt>
      <trkpt lat="48.27652" lon="7.40088">
        <ele>192.2</ele>
        <time>2021-08-03T16:19:22Z</time>
      </trkpt>
      <trkpt lat="48.27648" lon="7.40085">
        <ele>192.2</ele>
        <time>2021-08-03T16:19:23Z</time>
      </trkpt>
      <trkpt lat="48.27646" lon="7.40082">
        <ele>192.2</ele>
        <time>2021-08-03T16:19:24Z</time>
      </trkpt>
      <trkpt lat="48.27645" lon="7.40079">
        <ele>192.2</ele>
        <time>2021-08-03T16:19:25Z</time>
      </trkpt>
      <trkpt lat="48.27645" lon="7.40074">
        <ele>192.3</ele>
        <time>2021-08-03T16:19:27Z</time>
      </trkpt>
      <trkpt lat="48.27643" lon="7.40069">
        <ele>192.3</ele>
        <time>2021-08-03T16:19:29Z</time>
      </trkpt>
      <trkpt lat="48.2764" lon="7.40068">
        <ele>192.3</ele>
        <time>2021-08-03T16:19:31Z</time>
      </trkpt>
      <trkpt lat="48.27637" lon="7.40067">
        <ele>192.4</ele>
        <time>2021-08-03T16:19:33Z</time>
      </trkpt>
      <trkpt lat="48.27635" lon="7.40065">
        <ele>192.4</ele>
        <time>2021-08-03T16:19:35Z</time>
      </trkpt>
      <trkpt lat="48.27632" lon="7.40064">
        <ele>192.4</ele>
        <time>2021-08-03T16:19:37Z</time>
      </trkpt>
      <trkpt lat="48.27629" lon="7.40063">
        <ele>192.4</ele>
        <time>2021-08-03T16:19:46Z</time>
      </trkpt>
      <trkpt lat="48.27627" lon="7.40061">
        <ele>192.4</ele>
        <time>2021-08-03T16:19:47Z</time>
      </trkpt>
      <trkpt lat="48.27622" lon="7.4006">
        <ele>192.4</ele>
        <time>2021-08-03T16:19:49Z</time>
      </trkpt>
      <trkpt lat="48.27619" lon="7.4006">
        <ele>192.4</ele>
        <time>2021-08-03T16:19:50Z</time>
      </trkpt>
      <trkpt lat="48.27615" lon="7.40059">
        <ele>192.3</ele>
        <time>2021-08-03T16:19:51Z</time>
      </trkpt>
      <trkpt lat="48.27611" lon="7.40058">
        <ele>192.3</ele>
        <time>2021-08-03T16:19:53Z</time>
      </trkpt>
      <trkpt lat="48.27609" lon="7.40057">
        <ele>192.3</ele>
        <time>2021-08-03T16:19:54Z</time>
      </trkpt>
      <trkpt lat="48.27605" lon="7.40051">
        <ele>192.2</ele>
        <time>2021-08-03T16:19:55Z</time>
      </trkpt>
      <trkpt lat="48.27599" lon="7.40042">
        <ele>192.1</ele>
        <time>2021-08-03T16:19:57Z</time>
      </trkpt>
      <trkpt lat="48.27592" lon="7.40034">
        <ele>191.9</ele>
        <time>2021-08-03T16:19:58Z</time>
      </trkpt>
      <trkpt lat="48.27587" lon="7.40028">
        <ele>191.8</ele>
        <time>2021-08-03T16:19:59Z</time>
      </trkpt>
      <trkpt lat="48.27583" lon="7.40023">
        <ele>191.8</ele>
        <time>2021-08-03T16:20:00Z</time>
      </trkpt>
      <trkpt lat="48.2758" lon="7.40019">
        <ele>191.7</ele>
        <time>2021-08-03T16:20:01Z</time>
      </trkpt>
      <trkpt lat="48.27574" lon="7.40011">
        <ele>191.6</ele>
        <time>2021-08-03T16:20:03Z</time>
      </trkpt>
      <trkpt lat="48.2757" lon="7.40006">
        <ele>191.6</ele>
        <time>2021-08-03T16:20:04Z</time>
      </trkpt>
      <trkpt lat="48.27561" lon="7.39998">
        <ele>191.5</ele>
        <time>2021-08-03T16:20:06Z</time>
      </trkpt>
      <trkpt lat="48.27554" lon="7.39991">
        <ele>191.4</ele>
        <time>2021-08-03T16:20:08Z</time>
      </trkpt>
      <trkpt lat="48.27546" lon="7.39984">
        <ele>191.4</ele>
        <time>2021-08-03T16:20:10Z</time>
      </trkpt>
      <trkpt lat="48.27541" lon="7.39979">
        <ele>191.3</ele>
        <time>2021-08-03T16:20:11Z</time>
      </trkpt>
      <trkpt lat="48.27534" lon="7.39974">
        <ele>191.3</ele>
        <time>2021-08-03T16:20:13Z</time>
      </trkpt>
      <trkpt lat="48.27529" lon="7.3997">
        <ele>191.3</ele>
        <time>2021-08-03T16:20:14Z</time>
      </trkpt>
      <trkpt lat="48.27525" lon="7.39968">
        <ele>191.4</ele>
        <time>2021-08-03T16:20:15Z</time>
      </trkpt>
      <trkpt lat="48.2752" lon="7.39965">
        <ele>191.4</ele>
        <time>2021-08-03T16:20:17Z</time>
      </trkpt>
      <trkpt lat="48.27518" lon="7.39963">
        <ele>191.4</ele>
        <time>2021-08-03T16:20:18Z</time>
      </trkpt>
      <trkpt lat="48.27516" lon="7.39963">
        <ele>191.4</ele>
        <time>2021-08-03T16:20:19Z</time>
      </trkpt>
      <trkpt lat="48.27509" lon="7.39959">
        <ele>191.4</ele>
        <time>2021-08-03T16:20:21Z</time>
      </trkpt>
      <trkpt lat="48.27505" lon="7.39956">
        <ele>191.4</ele>
        <time>2021-08-03T16:20:22Z</time>
      </trkpt>
      <trkpt lat="48.27502" lon="7.39956">
        <ele>191.4</ele>
        <time>2021-08-03T16:20:23Z</time>
      </trkpt>
      <trkpt lat="48.27498" lon="7.39955">
        <ele>191.4</ele>
        <time>2021-08-03T16:20:25Z</time>
      </trkpt>
      <trkpt lat="48.27492" lon="7.39953">
        <ele>191.4</ele>
        <time>2021-08-03T16:20:26Z</time>
      </trkpt>
      <trkpt lat="48.27484" lon="7.39951">
        <ele>191.4</ele>
        <time>2021-08-03T16:20:28Z</time>
      </trkpt>
      <trkpt lat="48.27478" lon="7.39949">
        <ele>191.4</ele>
        <time>2021-08-03T16:20:30Z</time>
      </trkpt>
      <trkpt lat="48.27475" lon="7.39948">
        <ele>191.4</ele>
        <time>2021-08-03T16:20:31Z</time>
      </trkpt>
      <trkpt lat="48.27472" lon="7.39948">
        <ele>191.4</ele>
        <time>2021-08-03T16:20:32Z</time>
      </trkpt>
      <trkpt lat="48.27471" lon="7.39947">
        <ele>191.4</ele>
        <time>2021-08-03T16:20:33Z</time>
      </trkpt>
      <trkpt lat="48.27467" lon="7.39945">
        <ele>191.4</ele>
        <time>2021-08-03T16:20:35Z</time>
      </trkpt>
      <trkpt lat="48.27464" lon="7.39944">
        <ele>191.5</ele>
        <time>2021-08-03T16:20:36Z</time>
      </trkpt>
      <trkpt lat="48.27458" lon="7.39942">
        <ele>191.5</ele>
        <time>2021-08-03T16:20:38Z</time>
      </trkpt>
      <trkpt lat="48.27455" lon="7.3994">
        <ele>191.4</ele>
        <time>2021-08-03T16:20:39Z</time>
      </trkpt>
      <trkpt lat="48.27451" lon="7.39939">
        <ele>191.4</ele>
        <time>2021-08-03T16:20:40Z</time>
      </trkpt>
      <trkpt lat="48.27445" lon="7.39939">
        <ele>191.4</ele>
        <time>2021-08-03T16:20:42Z</time>
      </trkpt>
      <trkpt lat="48.27441" lon="7.39939">
        <ele>191.4</ele>
        <time>2021-08-03T16:20:43Z</time>
      </trkpt>
      <trkpt lat="48.2744" lon="7.39939">
        <ele>191.4</ele>
        <time>2021-08-03T16:20:44Z</time>
      </trkpt>
      <trkpt lat="48.27435" lon="7.39937">
        <ele>191.4</ele>
        <time>2021-08-03T16:20:46Z</time>
      </trkpt>
      <trkpt lat="48.2743" lon="7.39935">
        <ele>191.4</ele>
        <time>2021-08-03T16:20:47Z</time>
      </trkpt>
      <trkpt lat="48.27426" lon="7.39934">
        <ele>191.3</ele>
        <time>2021-08-03T16:20:48Z</time>
      </trkpt>
      <trkpt lat="48.27423" lon="7.39933">
        <ele>191.3</ele>
        <time>2021-08-03T16:20:49Z</time>
      </trkpt>
      <trkpt lat="48.27416" lon="7.39932">
        <ele>191.3</ele>
        <time>2021-08-03T16:20:51Z</time>
      </trkpt>
      <trkpt lat="48.2741" lon="7.3993">
        <ele>191.3</ele>
        <time>2021-08-03T16:20:53Z</time>
      </trkpt>
      <trkpt lat="48.27408" lon="7.39929">
        <ele>191.3</ele>
        <time>2021-08-03T16:20:54Z</time>
      </trkpt>
      <trkpt lat="48.27402" lon="7.39928">
        <ele>191.3</ele>
        <time>2021-08-03T16:20:56Z</time>
      </trkpt>
      <trkpt lat="48.27399" lon="7.39926">
        <ele>191.3</ele>
        <time>2021-08-03T16:20:57Z</time>
      </trkpt>
      <trkpt lat="48.27398" lon="7.39926">
        <ele>191.3</ele>
        <time>2021-08-03T16:20:58Z</time>
      </trkpt>
      <trkpt lat="48.27396" lon="7.39925">
        <ele>191.2</ele>
        <time>2021-08-03T16:20:59Z</time>
      </trkpt>
      <trkpt lat="48.27392" lon="7.39924">
        <ele>191.2</ele>
        <time>2021-08-03T16:21:01Z</time>
      </trkpt>
      <trkpt lat="48.27387" lon="7.39925">
        <ele>191.2</ele>
        <time>2021-08-03T16:21:03Z</time>
      </trkpt>
      <trkpt lat="48.27384" lon="7.39926">
        <ele>191.2</ele>
        <time>2021-08-03T16:21:05Z</time>
      </trkpt>
      <trkpt lat="48.27382" lon="7.39927">
        <ele>191.2</ele>
        <time>2021-08-03T16:21:06Z</time>
      </trkpt>
      <trkpt lat="48.2738" lon="7.39928">
        <ele>191.2</ele>
        <time>2021-08-03T16:21:07Z</time>
      </trkpt>
      <trkpt lat="48.27378" lon="7.39928">
        <ele>191.2</ele>
        <time>2021-08-03T16:21:08Z</time>
      </trkpt>
      <trkpt lat="48.27376" lon="7.39928">
        <ele>191.2</ele>
        <time>2021-08-03T16:21:09Z</time>
      </trkpt>
      <trkpt lat="48.27372" lon="7.39928">
        <ele>191.2</ele>
        <time>2021-08-03T16:21:11Z</time>
      </trkpt>
      <trkpt lat="48.27368" lon="7.39926">
        <ele>191.1</ele>
        <time>2021-08-03T16:21:12Z</time>
      </trkpt>
      <trkpt lat="48.27364" lon="7.39924">
        <ele>191.1</ele>
        <time>2021-08-03T16:21:14Z</time>
      </trkpt>
      <trkpt lat="48.27359" lon="7.39925">
        <ele>191.1</ele>
        <time>2021-08-03T16:21:16Z</time>
      </trkpt>
      <trkpt lat="48.27358" lon="7.39924">
        <ele>191.1</ele>
        <time>2021-08-03T16:21:17Z</time>
      </trkpt>
      <trkpt lat="48.27357" lon="7.3992">
        <ele>191</ele>
        <time>2021-08-03T16:21:19Z</time>
      </trkpt>
      <trkpt lat="48.27353" lon="7.39915">
        <ele>191</ele>
        <time>2021-08-03T16:21:21Z</time>
      </trkpt>
      <trkpt lat="48.27349" lon="7.39913">
        <ele>191</ele>
        <time>2021-08-03T16:21:22Z</time>
      </trkpt>
      <trkpt lat="48.27344" lon="7.39911">
        <ele>191</ele>
        <time>2021-08-03T16:21:24Z</time>
      </trkpt>
      <trkpt lat="48.2734" lon="7.39909">
        <ele>190.9</ele>
        <time>2021-08-03T16:21:25Z</time>
      </trkpt>
      <trkpt lat="48.27336" lon="7.39907">
        <ele>190.9</ele>
        <time>2021-08-03T16:21:26Z</time>
      </trkpt>
      <trkpt lat="48.27332" lon="7.39905">
        <ele>190.9</ele>
        <time>2021-08-03T16:21:28Z</time>
      </trkpt>
      <trkpt lat="48.27327" lon="7.39903">
        <ele>190.9</ele>
        <time>2021-08-03T16:24:54Z</time>
      </trkpt>
      <trkpt lat="48.27323" lon="7.39902">
        <ele>190.9</ele>
        <time>2021-08-03T16:25:00Z</time>
      </trkpt>
      <trkpt lat="48.27319" lon="7.399">
        <ele>190.9</ele>
        <time>2021-08-03T16:25:07Z</time>
      </trkpt>
      <trkpt lat="48.27315" lon="7.39898">
        <ele>190.9</ele>
        <time>2021-08-03T16:25:13Z</time>
      </trkpt>
      <trkpt lat="48.2731" lon="7.39896">
        <ele>190.8</ele>
        <time>2021-08-03T16:25:19Z</time>
      </trkpt>
      <trkpt lat="48.27306" lon="7.39894">
        <ele>190.8</ele>
        <time>2021-08-03T16:25:26Z</time>
      </trkpt>
      <trkpt lat="48.27302" lon="7.39892">
        <ele>190.8</ele>
        <time>2021-08-03T16:25:26Z</time>
      </trkpt>
      <trkpt lat="48.27309" lon="7.39893">
        <ele>190.8</ele>
        <time>2021-08-03T16:25:32Z</time>
      </trkpt>
      <trkpt lat="48.27313" lon="7.39893">
        <ele>190.8</ele>
        <time>2021-08-03T16:25:38Z</time>
      </trkpt>
      <trkpt lat="48.27315" lon="7.39893">
        <ele>190.8</ele>
        <time>2021-08-03T16:25:44Z</time>
      </trkpt>
      <trkpt lat="48.27312" lon="7.39893">
        <ele>190.8</ele>
        <time>2021-08-03T16:25:51Z</time>
      </trkpt>
      <trkpt lat="48.27307" lon="7.39895">
        <ele>190.8</ele>
        <time>2021-08-03T16:25:57Z</time>
      </trkpt>
      <trkpt lat="48.27307" lon="7.39894">
        <ele>190.8</ele>
        <time>2021-08-03T16:26:03Z</time>
      </trkpt>
      <trkpt lat="48.27309" lon="7.39893">
        <ele>190.8</ele>
        <time>2021-08-03T16:26:10Z</time>
      </trkpt>
      <trkpt lat="48.27311" lon="7.39893">
        <ele>190.8</ele>
        <time>2021-08-03T16:26:16Z</time>
      </trkpt>
      <trkpt lat="48.27313" lon="7.39892">
        <ele>190.8</ele>
        <time>2021-08-03T16:26:22Z</time>
      </trkpt>
      <trkpt lat="48.27312" lon="7.39893">
        <ele>190.8</ele>
        <time>2021-08-03T16:26:28Z</time>
      </trkpt>
      <trkpt lat="48.27312" lon="7.39893">
        <ele>190.8</ele>
        <time>2021-08-03T16:26:35Z</time>
      </trkpt>
      <trkpt lat="48.27311" lon="7.39893">
        <ele>190.8</ele>
        <time>2021-08-03T16:26:41Z</time>
      </trkpt>
      <trkpt lat="48.27309" lon="7.39893">
        <ele>190.8</ele>
        <time>2021-08-03T16:26:47Z</time>
      </trkpt>
      <trkpt lat="48.27309" lon="7.39894">
        <ele>190.8</ele>
        <time>2021-08-03T16:26:54Z</time>
      </trkpt>
      <trkpt lat="48.2731" lon="7.39893">
        <ele>190.8</ele>
        <time>2021-08-03T16:27:00Z</time>
      </trkpt>
      <trkpt lat="48.27301" lon="7.39893">
        <ele>190.8</ele>
        <time>2021-08-03T16:27:12Z</time>
      </trkpt>
      <trkpt lat="48.27315" lon="7.39892">
        <ele>190.8</ele>
        <time>2021-08-03T16:27:37Z</time>
      </trkpt>
      <trkpt lat="48.27312" lon="7.39894">
        <ele>190.8</ele>
        <time>2021-08-03T16:27:44Z</time>
      </trkpt>
      <trkpt lat="48.27306" lon="7.39894">
        <ele>190.8</ele>
        <time>2021-08-03T16:27:50Z</time>
      </trkpt>
      <trkpt lat="48.27306" lon="7.39894">
        <ele>190.8</ele>
        <time>2021-08-03T16:27:56Z</time>
      </trkpt>
      <trkpt lat="48.2731" lon="7.39893">
        <ele>190.8</ele>
        <time>2021-08-03T16:28:02Z</time>
      </trkpt>
      <trkpt lat="48.27296" lon="7.39895">
        <ele>190.8</ele>
        <time>2021-08-03T16:28:28Z</time>
      </trkpt>
      <trkpt lat="48.27301" lon="7.39895">
        <ele>190.8</ele>
        <time>2021-08-03T16:28:34Z</time>
      </trkpt>
      <trkpt lat="48.27309" lon="7.39894">
        <ele>190.8</ele>
        <time>2021-08-03T16:28:46Z</time>
      </trkpt>
      <trkpt lat="48.27305" lon="7.39895">
        <ele>190.8</ele>
        <time>2021-08-03T16:28:54Z</time>
      </trkpt>
      <trkpt lat="48.27298" lon="7.39893">
        <ele>190.8</ele>
        <time>2021-08-03T16:29:13Z</time>
      </trkpt>
      <trkpt lat="48.27304" lon="7.39893">
        <ele>190.8</ele>
        <time>2021-08-03T16:29:19Z</time>
      </trkpt>
      <trkpt lat="48.27303" lon="7.39895">
        <ele>190.8</ele>
        <time>2021-08-03T16:29:20Z</time>
      </trkpt>
      <trkpt lat="48.27302" lon="7.39896">
        <ele>190.8</ele>
        <time>2021-08-03T16:29:25Z</time>
      </trkpt>
      <trkpt lat="48.27302" lon="7.39897">
        <ele>190.8</ele>
        <time>2021-08-03T16:29:27Z</time>
      </trkpt>
      <trkpt lat="48.27302" lon="7.39898">
        <ele>190.8</ele>
        <time>2021-08-03T16:29:29Z</time>
      </trkpt>
      <trkpt lat="48.27302" lon="7.39898">
        <ele>190.8</ele>
        <time>2021-08-03T16:29:30Z</time>
      </trkpt>
      <trkpt lat="48.27302" lon="7.39899">
        <ele>190.8</ele>
        <time>2021-08-03T16:29:32Z</time>
      </trkpt>
      <trkpt lat="48.27302" lon="7.39899">
        <ele>190.8</ele>
        <time>2021-08-03T16:29:33Z</time>
      </trkpt>
      <trkpt lat="48.27302" lon="7.39899">
        <ele>190.8</ele>
        <time>2021-08-03T16:29:34Z</time>
      </trkpt>
      <trkpt lat="48.27302" lon="7.39899">
        <ele>190.8</ele>
        <time>2021-08-03T16:29:35Z</time>
      </trkpt>
      <trkpt lat="48.27302" lon="7.39899">
        <ele>190.8</ele>
        <time>2021-08-03T16:29:37Z</time>
      </trkpt>
      <trkpt lat="48.27302" lon="7.39899">
        <ele>190.8</ele>
        <time>2021-08-03T16:29:38Z</time>
      </trkpt>
      <trkpt lat="48.27303" lon="7.39898">
        <ele>190.8</ele>
        <time>2021-08-03T16:29:39Z</time>
      </trkpt>
      <trkpt lat="48.27304" lon="7.39897">
        <ele>190.8</ele>
        <time>2021-08-03T16:29:41Z</time>
      </trkpt>
      <trkpt lat="48.27305" lon="7.39896">
        <ele>190.8</ele>
        <time>2021-08-03T16:29:45Z</time>
      </trkpt>
      <trkpt lat="48.27305" lon="7.39896">
        <ele>190.8</ele>
        <time>2021-08-03T16:29:46Z</time>
      </trkpt>
      <trkpt lat="48.27305" lon="7.39896">
        <ele>190.8</ele>
        <time>2021-08-03T16:29:51Z</time>
      </trkpt>
      <trkpt lat="48.27304" lon="7.39896">
        <ele>190.8</ele>
        <time>2021-08-03T16:29:54Z</time>
      </trkpt>
      <trkpt lat="48.27304" lon="7.39895">
        <ele>190.8</ele>
        <time>2021-08-03T16:29:55Z</time>
      </trkpt>
      <trkpt lat="48.27304" lon="7.399">
        <ele>190.8</ele>
        <time>2021-08-04T07:35:47Z</time>
      </trkpt>
      <trkpt lat="48.27304" lon="7.399">
        <ele>190.8</ele>
        <time>2021-08-04T07:35:47Z</time>
      </trkpt>
      <trkpt lat="48.27304" lon="7.39899">
        <ele>190.8</ele>
        <time>2021-08-04T07:35:49Z</time>
      </trkpt>
      <trkpt lat="48.27304" lon="7.39898">
        <ele>190.8</ele>
        <time>2021-08-04T07:35:51Z</time>
      </trkpt>
      <trkpt lat="48.27304" lon="7.39899">
        <ele>190.8</ele>
        <time>2021-08-04T07:35:53Z</time>
      </trkpt>
      <trkpt lat="48.27304" lon="7.39899">
        <ele>190.8</ele>
        <time>2021-08-04T07:35:55Z</time>
      </trkpt>
      <trkpt lat="48.27305" lon="7.39899">
        <ele>190.8</ele>
        <time>2021-08-04T07:35:56Z</time>
      </trkpt>
      <trkpt lat="48.27305" lon="7.39899">
        <ele>190.8</ele>
        <time>2021-08-04T07:35:58Z</time>
      </trkpt>
      <trkpt lat="48.27296" lon="7.39897">
        <ele>190.8</ele>
        <time>2021-08-04T07:36:16Z</time>
      </trkpt>
      <trkpt lat="48.27292" lon="7.39897">
        <ele>190.8</ele>
        <time>2021-08-04T07:36:18Z</time>
      </trkpt>
      <trkpt lat="48.27289" lon="7.39901">
        <ele>190.8</ele>
        <time>2021-08-04T07:36:20Z</time>
      </trkpt>
      <trkpt lat="48.27287" lon="7.39904">
        <ele>190.7</ele>
        <time>2021-08-04T07:36:21Z</time>
      </trkpt>
      <trkpt lat="48.27282" lon="7.39909">
        <ele>190.7</ele>
        <time>2021-08-04T07:36:23Z</time>
      </trkpt>
      <trkpt lat="48.27279" lon="7.39912">
        <ele>190.7</ele>
        <time>2021-08-04T07:36:24Z</time>
      </trkpt>
      <trkpt lat="48.27273" lon="7.39914">
        <ele>190.7</ele>
        <time>2021-08-04T07:36:26Z</time>
      </trkpt>
      <trkpt lat="48.27269" lon="7.39915">
        <ele>190.7</ele>
        <time>2021-08-04T07:36:27Z</time>
      </trkpt>
      <trkpt lat="48.27265" lon="7.39916">
        <ele>190.7</ele>
        <time>2021-08-04T07:36:28Z</time>
      </trkpt>
      <trkpt lat="48.27261" lon="7.39916">
        <ele>190.7</ele>
        <time>2021-08-04T07:36:29Z</time>
      </trkpt>
      <trkpt lat="48.27254" lon="7.39916">
        <ele>190.6</ele>
        <time>2021-08-04T07:36:31Z</time>
      </trkpt>
      <trkpt lat="48.2725" lon="7.39915">
        <ele>190.6</ele>
        <time>2021-08-04T07:36:32Z</time>
      </trkpt>
      <trkpt lat="48.27247" lon="7.39915">
        <ele>190.6</ele>
        <time>2021-08-04T07:36:33Z</time>
      </trkpt>
      <trkpt lat="48.27242" lon="7.39914">
        <ele>190.6</ele>
        <time>2021-08-04T07:36:35Z</time>
      </trkpt>
      <trkpt lat="48.27237" lon="7.39914">
        <ele>190.6</ele>
        <time>2021-08-04T07:36:36Z</time>
      </trkpt>
      <trkpt lat="48.2723" lon="7.39912">
        <ele>190.6</ele>
        <time>2021-08-04T07:36:38Z</time>
      </trkpt>
      <trkpt lat="48.27227" lon="7.39912">
        <ele>190.5</ele>
        <time>2021-08-04T07:36:39Z</time>
      </trkpt>
      <trkpt lat="48.27223" lon="7.39912">
        <ele>190.5</ele>
        <time>2021-08-04T07:36:41Z</time>
      </trkpt>
      <trkpt lat="48.27218" lon="7.39914">
        <ele>190.5</ele>
        <time>2021-08-04T07:36:42Z</time>
      </trkpt>
      <trkpt lat="48.27213" lon="7.39917">
        <ele>190.5</ele>
        <time>2021-08-04T07:36:44Z</time>
      </trkpt>
      <trkpt lat="48.27207" lon="7.39918">
        <ele>190.5</ele>
        <time>2021-08-04T07:36:45Z</time>
      </trkpt>
      <trkpt lat="48.27204" lon="7.39919">
        <ele>190.4</ele>
        <time>2021-08-04T07:36:46Z</time>
      </trkpt>
      <trkpt lat="48.27198" lon="7.39921">
        <ele>190.4</ele>
        <time>2021-08-04T07:36:48Z</time>
      </trkpt>
      <trkpt lat="48.27195" lon="7.39923">
        <ele>190.4</ele>
        <time>2021-08-04T07:36:49Z</time>
      </trkpt>
      <trkpt lat="48.27191" lon="7.39924">
        <ele>190.4</ele>
        <time>2021-08-04T07:36:51Z</time>
      </trkpt>
      <trkpt lat="48.27187" lon="7.39927">
        <ele>190.4</ele>
        <time>2021-08-04T07:36:52Z</time>
      </trkpt>
      <trkpt lat="48.27184" lon="7.39931">
        <ele>190.4</ele>
        <time>2021-08-04T07:36:53Z</time>
      </trkpt>
      <trkpt lat="48.27181" lon="7.39935">
        <ele>190.3</ele>
        <time>2021-08-04T07:36:55Z</time>
      </trkpt>
      <trkpt lat="48.27178" lon="7.3994">
        <ele>190.3</ele>
        <time>2021-08-04T07:36:56Z</time>
      </trkpt>
      <trkpt lat="48.27178" lon="7.39944">
        <ele>190.3</ele>
        <time>2021-08-04T07:36:57Z</time>
      </trkpt>
      <trkpt lat="48.27178" lon="7.39948">
        <ele>190.3</ele>
        <time>2021-08-04T07:36:59Z</time>
      </trkpt>
      <trkpt lat="48.27177" lon="7.39951">
        <ele>190.3</ele>
        <time>2021-08-04T07:37:00Z</time>
      </trkpt>
      <trkpt lat="48.27178" lon="7.39955">
        <ele>190.3</ele>
        <time>2021-08-04T07:37:02Z</time>
      </trkpt>
      <trkpt lat="48.27178" lon="7.39956">
        <ele>190.3</ele>
        <time>2021-08-04T07:37:03Z</time>
      </trkpt>
      <trkpt lat="48.27178" lon="7.39957">
        <ele>190.3</ele>
        <time>2021-08-04T07:37:05Z</time>
      </trkpt>
      <trkpt lat="48.27177" lon="7.39956">
        <ele>190.3</ele>
        <time>2021-08-04T07:37:06Z</time>
      </trkpt>
      <trkpt lat="48.27176" lon="7.39952">
        <ele>190.3</ele>
        <time>2021-08-04T07:37:07Z</time>
      </trkpt>
      <trkpt lat="48.27176" lon="7.39951">
        <ele>190.3</ele>
        <time>2021-08-04T07:37:08Z</time>
      </trkpt>
      <trkpt lat="48.2718" lon="7.39948">
        <ele>190.4</ele>
        <time>2021-08-04T07:37:09Z</time>
      </trkpt>
      <trkpt lat="48.27184" lon="7.39946">
        <ele>190.4</ele>
        <time>2021-08-04T07:37:11Z</time>
      </trkpt>
      <trkpt lat="48.27187" lon="7.39945">
        <ele>190.4</ele>
        <time>2021-08-04T07:37:12Z</time>
      </trkpt>
      <trkpt lat="48.27191" lon="7.39944">
        <ele>190.4</ele>
        <time>2021-08-04T07:37:13Z</time>
      </trkpt>
      <trkpt lat="48.27194" lon="7.39943">
        <ele>190.4</ele>
        <time>2021-08-04T07:37:14Z</time>
      </trkpt>
      <trkpt lat="48.27198" lon="7.39942">
        <ele>190.4</ele>
        <time>2021-08-04T07:37:16Z</time>
      </trkpt>
      <trkpt lat="48.27201" lon="7.39941">
        <ele>190.4</ele>
        <time>2021-08-04T07:37:17Z</time>
      </trkpt>
      <trkpt lat="48.27205" lon="7.3994">
        <ele>190.4</ele>
        <time>2021-08-04T07:37:18Z</time>
      </trkpt>
      <trkpt lat="48.27208" lon="7.39938">
        <ele>190.5</ele>
        <time>2021-08-04T07:37:19Z</time>
      </trkpt>
      <trkpt lat="48.27212" lon="7.39937">
        <ele>190.5</ele>
        <time>2021-08-04T07:38:04Z</time>
      </trkpt>
      <trkpt lat="48.27215" lon="7.39936">
        <ele>190.5</ele>
        <time>2021-08-04T07:38:06Z</time>
      </trkpt>
      <trkpt lat="48.27219" lon="7.39935">
        <ele>190.5</ele>
        <time>2021-08-04T07:38:07Z</time>
      </trkpt>
      <trkpt lat="48.27213" lon="7.39932">
        <ele>190.5</ele>
        <time>2021-08-04T07:38:09Z</time>
      </trkpt>
      <trkpt lat="48.27205" lon="7.3993">
        <ele>190.5</ele>
        <time>2021-08-04T07:38:11Z</time>
      </trkpt>
      <trkpt lat="48.27197" lon="7.39928">
        <ele>190.4</ele>
        <time>2021-08-04T07:38:12Z</time>
      </trkpt>
      <trkpt lat="48.2719" lon="7.39926">
        <ele>190.4</ele>
        <time>2021-08-04T07:38:13Z</time>
      </trkpt>
      <trkpt lat="48.27182" lon="7.39924">
        <ele>190.3</ele>
        <time>2021-08-04T07:38:14Z</time>
      </trkpt>
      <trkpt lat="48.27174" lon="7.39922">
        <ele>190.3</ele>
        <time>2021-08-04T07:38:16Z</time>
      </trkpt>
      <trkpt lat="48.27166" lon="7.3992">
        <ele>190.3</ele>
        <time>2021-08-04T07:39:37Z</time>
      </trkpt>
      <trkpt lat="48.27159" lon="7.39917">
        <ele>190.2</ele>
        <time>2021-08-04T07:39:38Z</time>
      </trkpt>
      <trkpt lat="48.27149" lon="7.39918">
        <ele>190.2</ele>
        <time>2021-08-04T07:39:39Z</time>
      </trkpt>
      <trkpt lat="48.27141" lon="7.3992">
        <ele>190.2</ele>
        <time>2021-08-04T07:39:41Z</time>
      </trkpt>
      <trkpt lat="48.27135" lon="7.39921">
        <ele>190.2</ele>
        <time>2021-08-04T07:39:42Z</time>
      </trkpt>
      <trkpt lat="48.27128" lon="7.39923">
        <ele>190.1</ele>
        <time>2021-08-04T07:39:44Z</time>
      </trkpt>
      <trkpt lat="48.27123" lon="7.39923">
        <ele>190.1</ele>
        <time>2021-08-04T07:39:45Z</time>
      </trkpt>
      <trkpt lat="48.27118" lon="7.39924">
        <ele>190.1</ele>
        <time>2021-08-04T07:39:46Z</time>
      </trkpt>
      <trkpt lat="48.27114" lon="7.39925">
        <ele>190.1</ele>
        <time>2021-08-04T07:39:47Z</time>
      </trkpt>
      <trkpt lat="48.27109" lon="7.39926">
        <ele>190</ele>
        <time>2021-08-04T07:39:48Z</time>
      </trkpt>
      <trkpt lat="48.27103" lon="7.39928">
        <ele>190</ele>
        <time>2021-08-04T07:39:50Z</time>
      </trkpt>
      <trkpt lat="48.27099" lon="7.3993">
        <ele>190</ele>
        <time>2021-08-04T07:39:51Z</time>
      </trkpt>
      <trkpt lat="48.27092" lon="7.39934">
        <ele>190</ele>
        <time>2021-08-04T07:39:53Z</time>
      </trkpt>
      <trkpt lat="48.27089" lon="7.39936">
        <ele>190</ele>
        <time>2021-08-04T07:39:54Z</time>
      </trkpt>
      <trkpt lat="48.27086" lon="7.39938">
        <ele>190</ele>
        <time>2021-08-04T07:39:55Z</time>
      </trkpt>
      <trkpt lat="48.27084" lon="7.39939">
        <ele>190</ele>
        <time>2021-08-04T07:39:56Z</time>
      </trkpt>
      <trkpt lat="48.27078" lon="7.39941">
        <ele>190</ele>
        <time>2021-08-04T07:39:58Z</time>
      </trkpt>
      <trkpt lat="48.27074" lon="7.39943">
        <ele>189.9</ele>
        <time>2021-08-04T07:40:00Z</time>
      </trkpt>
      <trkpt lat="48.27071" lon="7.39945">
        <ele>189.9</ele>
        <time>2021-08-04T07:40:01Z</time>
      </trkpt>
      <trkpt lat="48.2707" lon="7.39946">
        <ele>189.9</ele>
        <time>2021-08-04T07:40:02Z</time>
      </trkpt>
      <trkpt lat="48.27068" lon="7.39948">
        <ele>189.9</ele>
        <time>2021-08-04T07:40:03Z</time>
      </trkpt>
      <trkpt lat="48.27067" lon="7.39949">
        <ele>189.9</ele>
        <time>2021-08-04T07:40:04Z</time>
      </trkpt>
      <trkpt lat="48.27063" lon="7.3995">
        <ele>189.9</ele>
        <time>2021-08-04T07:40:06Z</time>
      </trkpt>
      <trkpt lat="48.27059" lon="7.39952">
        <ele>189.9</ele>
        <time>2021-08-04T07:40:08Z</time>
      </trkpt>
      <trkpt lat="48.27056" lon="7.39954">
        <ele>189.9</ele>
        <time>2021-08-04T07:40:09Z</time>
      </trkpt>
      <trkpt lat="48.27051" lon="7.39956">
        <ele>189.9</ele>
        <time>2021-08-04T07:40:11Z</time>
      </trkpt>
      <trkpt lat="48.27048" lon="7.39957">
        <ele>189.9</ele>
        <time>2021-08-04T07:40:12Z</time>
      </trkpt>
      <trkpt lat="48.27044" lon="7.39959">
        <ele>189.9</ele>
        <time>2021-08-04T07:40:14Z</time>
      </trkpt>
      <trkpt lat="48.2704" lon="7.39961">
        <ele>189.9</ele>
        <time>2021-08-04T07:40:15Z</time>
      </trkpt>
      <trkpt lat="48.27035" lon="7.39963">
        <ele>189.9</ele>
        <time>2021-08-04T07:40:17Z</time>
      </trkpt>
      <trkpt lat="48.27032" lon="7.39967">
        <ele>189.9</ele>
        <time>2021-08-04T07:40:19Z</time>
      </trkpt>
      <trkpt lat="48.27029" lon="7.39969">
        <ele>189.9</ele>
        <time>2021-08-04T07:40:20Z</time>
      </trkpt>
      <trkpt lat="48.27026" lon="7.39972">
        <ele>189.9</ele>
        <time>2021-08-04T07:40:22Z</time>
      </trkpt>
      <trkpt lat="48.27023" lon="7.39975">
        <ele>190</ele>
        <time>2021-08-04T07:40:23Z</time>
      </trkpt>
      <trkpt lat="48.27021" lon="7.39976">
        <ele>190</ele>
        <time>2021-08-04T07:40:24Z</time>
      </trkpt>
      <trkpt lat="48.27016" lon="7.39977">
        <ele>190</ele>
        <time>2021-08-04T07:40:26Z</time>
      </trkpt>
      <trkpt lat="48.27012" lon="7.39977">
        <ele>190</ele>
        <time>2021-08-04T07:40:27Z</time>
      </trkpt>
      <trkpt lat="48.27009" lon="7.39977">
        <ele>190</ele>
        <time>2021-08-04T07:40:28Z</time>
      </trkpt>
      <trkpt lat="48.27005" lon="7.39977">
        <ele>190</ele>
        <time>2021-08-04T07:40:30Z</time>
      </trkpt>
      <trkpt lat="48.27002" lon="7.39978">
        <ele>190</ele>
        <time>2021-08-04T07:40:31Z</time>
      </trkpt>
      <trkpt lat="48.26999" lon="7.39979">
        <ele>190</ele>
        <time>2021-08-04T07:40:32Z</time>
      </trkpt>
      <trkpt lat="48.26998" lon="7.3998">
        <ele>190</ele>
        <time>2021-08-04T07:40:33Z</time>
      </trkpt>
      <trkpt lat="48.26995" lon="7.39982">
        <ele>190</ele>
        <time>2021-08-04T07:40:35Z</time>
      </trkpt>
      <trkpt lat="48.26991" lon="7.39983">
        <ele>190</ele>
        <time>2021-08-04T07:40:37Z</time>
      </trkpt>
      <trkpt lat="48.26989" lon="7.39984">
        <ele>190</ele>
        <time>2021-08-04T07:40:38Z</time>
      </trkpt>
      <trkpt lat="48.26985" lon="7.39985">
        <ele>190</ele>
        <time>2021-08-04T07:40:40Z</time>
      </trkpt>
      <trkpt lat="48.26982" lon="7.39987">
        <ele>190</ele>
        <time>2021-08-04T07:40:41Z</time>
      </trkpt>
      <trkpt lat="48.26981" lon="7.39987">
        <ele>190</ele>
        <time>2021-08-04T07:40:42Z</time>
      </trkpt>
      <trkpt lat="48.26978" lon="7.39988">
        <ele>190</ele>
        <time>2021-08-04T07:40:43Z</time>
      </trkpt>
      <trkpt lat="48.26977" lon="7.39989">
        <ele>190</ele>
        <time>2021-08-04T07:40:44Z</time>
      </trkpt>
      <trkpt lat="48.26973" lon="7.39989">
        <ele>190</ele>
        <time>2021-08-04T07:40:46Z</time>
      </trkpt>
      <trkpt lat="48.2697" lon="7.3999">
        <ele>190.1</ele>
        <time>2021-08-04T07:40:47Z</time>
      </trkpt>
      <trkpt lat="48.26969" lon="7.3999">
        <ele>190.1</ele>
        <time>2021-08-04T07:40:48Z</time>
      </trkpt>
      <trkpt lat="48.26969" lon="7.39989">
        <ele>190.1</ele>
        <time>2021-08-04T07:40:49Z</time>
      </trkpt>
      <trkpt lat="48.26969" lon="7.39986">
        <ele>190.1</ele>
        <time>2021-08-04T07:40:50Z</time>
      </trkpt>
      <trkpt lat="48.26969" lon="7.39984">
        <ele>190.1</ele>
        <time>2021-08-04T07:40:52Z</time>
      </trkpt>
      <trkpt lat="48.26969" lon="7.39981">
        <ele>190.1</ele>
        <time>2021-08-04T07:40:53Z</time>
      </trkpt>
      <trkpt lat="48.2697" lon="7.39978">
        <ele>190.1</ele>
        <time>2021-08-04T07:40:55Z</time>
      </trkpt>
      <trkpt lat="48.26971" lon="7.39976">
        <ele>190.1</ele>
        <time>2021-08-04T07:40:57Z</time>
      </trkpt>
      <trkpt lat="48.2697" lon="7.39976">
        <ele>190.1</ele>
        <time>2021-08-04T07:40:59Z</time>
      </trkpt>
      <trkpt lat="48.2697" lon="7.39975">
        <ele>190.1</ele>
        <time>2021-08-04T07:41:00Z</time>
      </trkpt>
      <trkpt lat="48.2697" lon="7.39975">
        <ele>190.1</ele>
        <time>2021-08-04T07:41:02Z</time>
      </trkpt>
      <trkpt lat="48.2697" lon="7.39975">
        <ele>190.1</ele>
        <time>2021-08-04T07:41:03Z</time>
      </trkpt>
      <trkpt lat="48.26969" lon="7.39974">
        <ele>190.1</ele>
        <time>2021-08-04T07:41:05Z</time>
      </trkpt>
      <trkpt lat="48.26969" lon="7.39974">
        <ele>190.1</ele>
        <time>2021-08-04T07:41:06Z</time>
      </trkpt>
      <trkpt lat="48.26969" lon="7.39974">
        <ele>190.1</ele>
        <time>2021-08-04T07:41:07Z</time>
      </trkpt>
      <trkpt lat="48.26969" lon="7.39973">
        <ele>190.1</ele>
        <time>2021-08-04T07:41:09Z</time>
      </trkpt>
      <trkpt lat="48.26969" lon="7.39973">
        <ele>190.1</ele>
        <time>2021-08-04T07:41:10Z</time>
      </trkpt>
      <trkpt lat="48.26968" lon="7.39973">
        <ele>190.1</ele>
        <time>2021-08-04T07:41:11Z</time>
      </trkpt>
      <trkpt lat="48.26968" lon="7.39972">
        <ele>190.1</ele>
        <time>2021-08-04T07:41:12Z</time>
      </trkpt>
      <trkpt lat="48.26968" lon="7.39972">
        <ele>190.1</ele>
        <time>2021-08-04T07:41:14Z</time>
      </trkpt>
      <trkpt lat="48.26968" lon="7.39972">
        <ele>190.1</ele>
        <time>2021-08-04T07:41:39Z</time>
      </trkpt>
      <trkpt lat="48.26967" lon="7.39971">
        <ele>190.1</ele>
        <time>2021-08-04T07:41:41Z</time>
      </trkpt>
      <trkpt lat="48.26967" lon="7.39971">
        <ele>190.1</ele>
        <time>2021-08-04T07:41:42Z</time>
      </trkpt>
      <trkpt lat="48.26967" lon="7.39972">
        <ele>190.1</ele>
        <time>2021-08-04T07:41:43Z</time>
      </trkpt>
      <trkpt lat="48.26964" lon="7.39975">
        <ele>190.1</ele>
        <time>2021-08-04T07:41:45Z</time>
      </trkpt>
      <trkpt lat="48.26959" lon="7.39976">
        <ele>190.1</ele>
        <time>2021-08-04T07:41:46Z</time>
      </trkpt>
      <trkpt lat="48.26951" lon="7.39979">
        <ele>190.1</ele>
        <time>2021-08-04T07:41:48Z</time>
      </trkpt>
      <trkpt lat="48.26945" lon="7.39981">
        <ele>190.1</ele>
        <time>2021-08-04T07:41:49Z</time>
      </trkpt>
      <trkpt lat="48.26937" lon="7.39983">
        <ele>190.1</ele>
        <time>2021-08-04T07:41:51Z</time>
      </trkpt>
      <trkpt lat="48.2693" lon="7.39981">
        <ele>190.2</ele>
        <time>2021-08-04T07:41:53Z</time>
      </trkpt>
      <trkpt lat="48.26927" lon="7.39978">
        <ele>190.2</ele>
        <time>2021-08-04T07:41:54Z</time>
      </trkpt>
      <trkpt lat="48.26922" lon="7.39973">
        <ele>190.2</ele>
        <time>2021-08-04T07:41:56Z</time>
      </trkpt>
      <trkpt lat="48.26919" lon="7.39967">
        <ele>190.5</ele>
        <time>2021-08-04T07:41:58Z</time>
      </trkpt>
      <trkpt lat="48.26919" lon="7.39962">
        <ele>190.6</ele>
        <time>2021-08-04T07:41:59Z</time>
      </trkpt>
      <trkpt lat="48.2692" lon="7.39954">
        <ele>190.7</ele>
        <time>2021-08-04T07:42:01Z</time>
      </trkpt>
      <trkpt lat="48.26919" lon="7.3995">
        <ele>190.8</ele>
        <time>2021-08-04T07:42:02Z</time>
      </trkpt>
      <trkpt lat="48.26917" lon="7.39941">
        <ele>190.9</ele>
        <time>2021-08-04T07:42:04Z</time>
      </trkpt>
      <trkpt lat="48.26916" lon="7.39937">
        <ele>190.9</ele>
        <time>2021-08-04T07:42:05Z</time>
      </trkpt>
      <trkpt lat="48.26915" lon="7.39934">
        <ele>190.9</ele>
        <time>2021-08-04T07:42:06Z</time>
      </trkpt>
      <trkpt lat="48.26913" lon="7.39927">
        <ele>191.2</ele>
        <time>2021-08-04T07:42:08Z</time>
      </trkpt>
      <trkpt lat="48.26912" lon="7.39922">
        <ele>191.3</ele>
        <time>2021-08-04T07:42:09Z</time>
      </trkpt>
      <trkpt lat="48.26911" lon="7.39915">
        <ele>191.4</ele>
        <time>2021-08-04T07:42:10Z</time>
      </trkpt>
      <trkpt lat="48.26911" lon="7.39912">
        <ele>191.5</ele>
        <time>2021-08-04T07:42:11Z</time>
      </trkpt>
      <trkpt lat="48.26911" lon="7.39907">
        <ele>191.6</ele>
        <time>2021-08-04T07:42:13Z</time>
      </trkpt>
      <trkpt lat="48.26911" lon="7.39902">
        <ele>191.7</ele>
        <time>2021-08-04T07:42:14Z</time>
      </trkpt>
      <trkpt lat="48.26911" lon="7.39895">
        <ele>191.8</ele>
        <time>2021-08-04T07:42:16Z</time>
      </trkpt>
      <trkpt lat="48.26911" lon="7.39889">
        <ele>192</ele>
        <time>2021-08-04T07:42:18Z</time>
      </trkpt>
      <trkpt lat="48.26912" lon="7.39884">
        <ele>192.1</ele>
        <time>2021-08-04T07:42:19Z</time>
      </trkpt>
      <trkpt lat="48.26911" lon="7.39877">
        <ele>192.4</ele>
        <time>2021-08-04T07:42:21Z</time>
      </trkpt>
      <trkpt lat="48.26911" lon="7.39875">
        <ele>192.4</ele>
        <time>2021-08-04T07:42:22Z</time>
      </trkpt>
      <trkpt lat="48.26911" lon="7.39872">
        <ele>192.5</ele>
        <time>2021-08-04T07:42:23Z</time>
      </trkpt>
      <trkpt lat="48.26912" lon="7.39867">
        <ele>192.7</ele>
        <time>2021-08-04T07:42:25Z</time>
      </trkpt>
      <trkpt lat="48.26912" lon="7.39865">
        <ele>192.8</ele>
        <time>2021-08-04T07:42:26Z</time>
      </trkpt>
      <trkpt lat="48.26911" lon="7.3986">
        <ele>193</ele>
        <time>2021-08-04T07:42:27Z</time>
      </trkpt>
      <trkpt lat="48.26911" lon="7.39858">
        <ele>193.1</ele>
        <time>2021-08-04T07:42:28Z</time>
      </trkpt>
      <trkpt lat="48.26908" lon="7.39854">
        <ele>193.3</ele>
        <time>2021-08-04T07:42:30Z</time>
      </trkpt>
      <trkpt lat="48.26907" lon="7.39854">
        <ele>193.4</ele>
        <time>2021-08-04T07:42:31Z</time>
      </trkpt>
      <trkpt lat="48.26906" lon="7.39854">
        <ele>193.5</ele>
        <time>2021-08-04T07:42:32Z</time>
      </trkpt>
      <trkpt lat="48.26904" lon="7.39853">
        <ele>193.6</ele>
        <time>2021-08-04T07:42:33Z</time>
      </trkpt>
      <trkpt lat="48.26902" lon="7.39852">
        <ele>193.7</ele>
        <time>2021-08-04T07:42:34Z</time>
      </trkpt>
      <trkpt lat="48.26899" lon="7.3985">
        <ele>194</ele>
        <time>2021-08-04T07:42:36Z</time>
      </trkpt>
      <trkpt lat="48.26896" lon="7.39848">
        <ele>194.2</ele>
        <time>2021-08-04T07:42:37Z</time>
      </trkpt>
      <trkpt lat="48.26895" lon="7.39848">
        <ele>194.3</ele>
        <time>2021-08-04T07:42:38Z</time>
      </trkpt>
      <trkpt lat="48.26892" lon="7.39847">
        <ele>194.5</ele>
        <time>2021-08-04T07:42:39Z</time>
      </trkpt>
      <trkpt lat="48.26889" lon="7.39845">
        <ele>194.7</ele>
        <time>2021-08-04T07:42:41Z</time>
      </trkpt>
      <trkpt lat="48.26886" lon="7.39844">
        <ele>195</ele>
        <time>2021-08-04T07:42:43Z</time>
      </trkpt>
      <trkpt lat="48.26884" lon="7.39843">
        <ele>195.1</ele>
        <time>2021-08-04T07:42:44Z</time>
      </trkpt>
      <trkpt lat="48.26881" lon="7.39842">
        <ele>195.3</ele>
        <time>2021-08-04T07:42:46Z</time>
      </trkpt>
      <trkpt lat="48.26878" lon="7.39842">
        <ele>195.5</ele>
        <time>2021-08-04T07:42:47Z</time>
      </trkpt>
      <trkpt lat="48.26877" lon="7.39842">
        <ele>195.6</ele>
        <time>2021-08-04T07:42:48Z</time>
      </trkpt>
      <trkpt lat="48.26876" lon="7.39841">
        <ele>195.7</ele>
        <time>2021-08-04T07:42:49Z</time>
      </trkpt>
      <trkpt lat="48.26874" lon="7.39839">
        <ele>195.9</ele>
        <time>2021-08-04T07:42:50Z</time>
      </trkpt>
      <trkpt lat="48.26871" lon="7.39836">
        <ele>196.1</ele>
        <time>2021-08-04T07:42:51Z</time>
      </trkpt>
      <trkpt lat="48.2687" lon="7.39835">
        <ele>196.2</ele>
        <time>2021-08-04T07:42:52Z</time>
      </trkpt>
      <trkpt lat="48.26868" lon="7.39831">
        <ele>196.4</ele>
        <time>2021-08-04T07:42:54Z</time>
      </trkpt>
      <trkpt lat="48.26868" lon="7.3983">
        <ele>196.5</ele>
        <time>2021-08-04T07:42:55Z</time>
      </trkpt>
      <trkpt lat="48.26866" lon="7.39827">
        <ele>196.7</ele>
        <time>2021-08-04T07:42:56Z</time>
      </trkpt>
      <trkpt lat="48.26865" lon="7.39826">
        <ele>196.7</ele>
        <time>2021-08-04T07:42:57Z</time>
      </trkpt>
      <trkpt lat="48.26863" lon="7.39823">
        <ele>196.9</ele>
        <time>2021-08-04T07:42:58Z</time>
      </trkpt>
      <trkpt lat="48.26862" lon="7.39822">
        <ele>197</ele>
        <time>2021-08-04T07:42:59Z</time>
      </trkpt>
      <trkpt lat="48.26861" lon="7.39821">
        <ele>197.1</ele>
        <time>2021-08-04T07:43:00Z</time>
      </trkpt>
      <trkpt lat="48.2686" lon="7.39818">
        <ele>197.2</ele>
        <time>2021-08-04T07:43:01Z</time>
      </trkpt>
      <trkpt lat="48.2686" lon="7.39816">
        <ele>197.3</ele>
        <time>2021-08-04T07:43:02Z</time>
      </trkpt>
      <trkpt lat="48.26859" lon="7.39812">
        <ele>197.5</ele>
        <time>2021-08-04T07:43:04Z</time>
      </trkpt>
      <trkpt lat="48.26859" lon="7.3981">
        <ele>197.6</ele>
        <time>2021-08-04T07:43:05Z</time>
      </trkpt>
      <trkpt lat="48.26859" lon="7.39807">
        <ele>197.7</ele>
        <time>2021-08-04T07:43:06Z</time>
      </trkpt>
      <trkpt lat="48.2686" lon="7.39801">
        <ele>198</ele>
        <time>2021-08-04T07:43:08Z</time>
      </trkpt>
      <trkpt lat="48.2686" lon="7.398">
        <ele>198.1</ele>
        <time>2021-08-04T07:43:09Z</time>
      </trkpt>
      <trkpt lat="48.26861" lon="7.39798">
        <ele>198.1</ele>
        <time>2021-08-04T07:43:10Z</time>
      </trkpt>
      <trkpt lat="48.26862" lon="7.39794">
        <ele>198.3</ele>
        <time>2021-08-04T07:43:11Z</time>
      </trkpt>
      <trkpt lat="48.26862" lon="7.39792">
        <ele>198.4</ele>
        <time>2021-08-04T07:43:12Z</time>
      </trkpt>
      <trkpt lat="48.26863" lon="7.39789">
        <ele>198.6</ele>
        <time>2021-08-04T07:43:13Z</time>
      </trkpt>
      <trkpt lat="48.26863" lon="7.39787">
        <ele>198.7</ele>
        <time>2021-08-04T07:43:15Z</time>
      </trkpt>
      <trkpt lat="48.26862" lon="7.39783">
        <ele>198.9</ele>
        <time>2021-08-04T07:43:16Z</time>
      </trkpt>
      <trkpt lat="48.26862" lon="7.39782">
        <ele>198.9</ele>
        <time>2021-08-04T07:43:17Z</time>
      </trkpt>
      <trkpt lat="48.26861" lon="7.39779">
        <ele>199.1</ele>
        <time>2021-08-04T07:43:19Z</time>
      </trkpt>
      <trkpt lat="48.2686" lon="7.39777">
        <ele>199.2</ele>
        <time>2021-08-04T07:43:20Z</time>
      </trkpt>
      <trkpt lat="48.26859" lon="7.39776">
        <ele>199.3</ele>
        <time>2021-08-04T07:43:21Z</time>
      </trkpt>
      <trkpt lat="48.26857" lon="7.39774">
        <ele>199.4</ele>
        <time>2021-08-04T07:43:22Z</time>
      </trkpt>
      <trkpt lat="48.26855" lon="7.39772">
        <ele>199.6</ele>
        <time>2021-08-04T07:43:23Z</time>
      </trkpt>
      <trkpt lat="48.26855" lon="7.39771">
        <ele>199.7</ele>
        <time>2021-08-04T07:43:25Z</time>
      </trkpt>
      <trkpt lat="48.26855" lon="7.39769">
        <ele>199.7</ele>
        <time>2021-08-04T07:43:26Z</time>
      </trkpt>
      <trkpt lat="48.26854" lon="7.39768">
        <ele>199.8</ele>
        <time>2021-08-04T07:43:27Z</time>
      </trkpt>
      <trkpt lat="48.26852" lon="7.39765">
        <ele>200</ele>
        <time>2021-08-04T07:43:29Z</time>
      </trkpt>
      <trkpt lat="48.2685" lon="7.39761">
        <ele>200.2</ele>
        <time>2021-08-04T07:43:31Z</time>
      </trkpt>
      <trkpt lat="48.26849" lon="7.3976">
        <ele>200.4</ele>
        <time>2021-08-04T07:43:32Z</time>
      </trkpt>
      <trkpt lat="48.26848" lon="7.39758">
        <ele>200.5</ele>
        <time>2021-08-04T07:43:34Z</time>
      </trkpt>
      <trkpt lat="48.26848" lon="7.39756">
        <ele>200.6</ele>
        <time>2021-08-04T07:43:35Z</time>
      </trkpt>
      <trkpt lat="48.26848" lon="7.39755">
        <ele>200.7</ele>
        <time>2021-08-04T07:43:36Z</time>
      </trkpt>
      <trkpt lat="48.26847" lon="7.39753">
        <ele>200.7</ele>
        <time>2021-08-04T07:43:37Z</time>
      </trkpt>
      <trkpt lat="48.26847" lon="7.39752">
        <ele>200.8</ele>
        <time>2021-08-04T07:43:38Z</time>
      </trkpt>
      <trkpt lat="48.26847" lon="7.3975">
        <ele>200.9</ele>
        <time>2021-08-04T07:43:40Z</time>
      </trkpt>
      <trkpt lat="48.26847" lon="7.39748">
        <ele>201</ele>
        <time>2021-08-04T07:43:42Z</time>
      </trkpt>
      <trkpt lat="48.26847" lon="7.39749">
        <ele>201</ele>
        <time>2021-08-04T07:43:43Z</time>
      </trkpt>
      <trkpt lat="48.26847" lon="7.39748">
        <ele>201.1</ele>
        <time>2021-08-04T07:43:44Z</time>
      </trkpt>
      <trkpt lat="48.26848" lon="7.39747">
        <ele>201.1</ele>
        <time>2021-08-04T07:43:45Z</time>
      </trkpt>
      <trkpt lat="48.26848" lon="7.39745">
        <ele>201.2</ele>
        <time>2021-08-04T07:43:46Z</time>
      </trkpt>
      <trkpt lat="48.26848" lon="7.39744">
        <ele>201.3</ele>
        <time>2021-08-04T07:43:47Z</time>
      </trkpt>
      <trkpt lat="48.26848" lon="7.39742">
        <ele>201.4</ele>
        <time>2021-08-04T07:43:49Z</time>
      </trkpt>
      <trkpt lat="48.26848" lon="7.39741">
        <ele>201.5</ele>
        <time>2021-08-04T07:43:50Z</time>
      </trkpt>
      <trkpt lat="48.26848" lon="7.39739">
        <ele>201.6</ele>
        <time>2021-08-04T07:43:51Z</time>
      </trkpt>
      <trkpt lat="48.26848" lon="7.39735">
        <ele>201.8</ele>
        <time>2021-08-04T07:43:52Z</time>
      </trkpt>
      <trkpt lat="48.26849" lon="7.39733">
        <ele>201.9</ele>
        <time>2021-08-04T07:43:53Z</time>
      </trkpt>
      <trkpt lat="48.2685" lon="7.39729">
        <ele>202.2</ele>
        <time>2021-08-04T07:43:55Z</time>
      </trkpt>
      <trkpt lat="48.2685" lon="7.39724">
        <ele>202.5</ele>
        <time>2021-08-04T07:43:56Z</time>
      </trkpt>
      <trkpt lat="48.2685" lon="7.39722">
        <ele>202.7</ele>
        <time>2021-08-04T07:43:57Z</time>
      </trkpt>
      <trkpt lat="48.26851" lon="7.39717">
        <ele>203.1</ele>
        <time>2021-08-04T07:43:59Z</time>
      </trkpt>
      <trkpt lat="48.26852" lon="7.39713">
        <ele>203.4</ele>
        <time>2021-08-04T07:44:01Z</time>
      </trkpt>
      <trkpt lat="48.26853" lon="7.39712">
        <ele>203.6</ele>
        <time>2021-08-04T07:44:02Z</time>
      </trkpt>
      <trkpt lat="48.26854" lon="7.39709">
        <ele>203.8</ele>
        <time>2021-08-04T07:44:04Z</time>
      </trkpt>
      <trkpt lat="48.26855" lon="7.39707">
        <ele>203.9</ele>
        <time>2021-08-04T07:44:05Z</time>
      </trkpt>
      <trkpt lat="48.26855" lon="7.39706">
        <ele>204.1</ele>
        <time>2021-08-04T07:44:06Z</time>
      </trkpt>
      <trkpt lat="48.26855" lon="7.39703">
        <ele>204.3</ele>
        <time>2021-08-04T07:44:08Z</time>
      </trkpt>
      <trkpt lat="48.26855" lon="7.39701">
        <ele>204.4</ele>
        <time>2021-08-04T07:44:10Z</time>
      </trkpt>
      <trkpt lat="48.26855" lon="7.397">
        <ele>204.5</ele>
        <time>2021-08-04T07:44:11Z</time>
      </trkpt>
      <trkpt lat="48.26856" lon="7.39698">
        <ele>204.7</ele>
        <time>2021-08-04T07:44:12Z</time>
      </trkpt>
      <trkpt lat="48.26857" lon="7.39696">
        <ele>204.9</ele>
        <time>2021-08-04T07:44:13Z</time>
      </trkpt>
      <trkpt lat="48.26859" lon="7.39694">
        <ele>205.1</ele>
        <time>2021-08-04T07:44:14Z</time>
      </trkpt>
      <trkpt lat="48.2686" lon="7.39693">
        <ele>205.3</ele>
        <time>2021-08-04T07:44:15Z</time>
      </trkpt>
      <trkpt lat="48.2686" lon="7.39691">
        <ele>205.4</ele>
        <time>2021-08-04T07:44:16Z</time>
      </trkpt>
      <trkpt lat="48.2686" lon="7.39689">
        <ele>205.6</ele>
        <time>2021-08-04T07:44:18Z</time>
      </trkpt>
      <trkpt lat="48.2686" lon="7.39687">
        <ele>205.7</ele>
        <time>2021-08-04T07:44:19Z</time>
      </trkpt>
      <trkpt lat="48.2686" lon="7.39685">
        <ele>205.9</ele>
        <time>2021-08-04T07:44:20Z</time>
      </trkpt>
      <trkpt lat="48.2686" lon="7.39684">
        <ele>206</ele>
        <time>2021-08-04T07:44:21Z</time>
      </trkpt>
      <trkpt lat="48.26859" lon="7.39683">
        <ele>206.1</ele>
        <time>2021-08-04T07:44:22Z</time>
      </trkpt>
      <trkpt lat="48.26859" lon="7.39682">
        <ele>206.2</ele>
        <time>2021-08-04T07:44:23Z</time>
      </trkpt>
      <trkpt lat="48.26858" lon="7.39681">
        <ele>206.3</ele>
        <time>2021-08-04T07:44:25Z</time>
      </trkpt>
      <trkpt lat="48.26856" lon="7.39677">
        <ele>206.7</ele>
        <time>2021-08-04T07:44:27Z</time>
      </trkpt>
      <trkpt lat="48.26855" lon="7.39674">
        <ele>207</ele>
        <time>2021-08-04T07:44:29Z</time>
      </trkpt>
      <trkpt lat="48.26854" lon="7.39671">
        <ele>207.3</ele>
        <time>2021-08-04T07:44:31Z</time>
      </trkpt>
      <trkpt lat="48.26854" lon="7.39667">
        <ele>207.6</ele>
        <time>2021-08-04T07:44:33Z</time>
      </trkpt>
      <trkpt lat="48.26854" lon="7.39665">
        <ele>207.7</ele>
        <time>2021-08-04T07:44:34Z</time>
      </trkpt>
      <trkpt lat="48.26854" lon="7.39664">
        <ele>207.8</ele>
        <time>2021-08-04T07:44:35Z</time>
      </trkpt>
      <trkpt lat="48.26855" lon="7.39661">
        <ele>208.1</ele>
        <time>2021-08-04T07:44:37Z</time>
      </trkpt>
      <trkpt lat="48.26855" lon="7.3966">
        <ele>208.2</ele>
        <time>2021-08-04T07:44:38Z</time>
      </trkpt>
      <trkpt lat="48.26855" lon="7.39658">
        <ele>208.3</ele>
        <time>2021-08-04T07:44:39Z</time>
      </trkpt>
      <trkpt lat="48.26854" lon="7.39656">
        <ele>208.5</ele>
        <time>2021-08-04T07:44:41Z</time>
      </trkpt>
      <trkpt lat="48.26855" lon="7.39654">
        <ele>208.6</ele>
        <time>2021-08-04T07:44:42Z</time>
      </trkpt>
      <trkpt lat="48.26854" lon="7.39653">
        <ele>208.7</ele>
        <time>2021-08-04T07:44:43Z</time>
      </trkpt>
      <trkpt lat="48.26854" lon="7.3965">
        <ele>209</ele>
        <time>2021-08-04T07:44:45Z</time>
      </trkpt>
      <trkpt lat="48.26854" lon="7.39649">
        <ele>209</ele>
        <time>2021-08-04T07:44:46Z</time>
      </trkpt>
      <trkpt lat="48.26855" lon="7.39648">
        <ele>209.2</ele>
        <time>2021-08-04T07:44:48Z</time>
      </trkpt>
      <trkpt lat="48.26856" lon="7.39647">
        <ele>209.4</ele>
        <time>2021-08-04T07:44:49Z</time>
      </trkpt>
      <trkpt lat="48.26857" lon="7.39646">
        <ele>209.8</ele>
        <time>2021-08-04T07:44:50Z</time>
      </trkpt>
      <trkpt lat="48.26858" lon="7.39645">
        <ele>209.9</ele>
        <time>2021-08-04T07:44:51Z</time>
      </trkpt>
      <trkpt lat="48.2686" lon="7.39644">
        <ele>209.9</ele>
        <time>2021-08-04T07:44:53Z</time>
      </trkpt>
      <trkpt lat="48.26862" lon="7.39644">
        <ele>210</ele>
        <time>2021-08-04T07:44:54Z</time>
      </trkpt>
      <trkpt lat="48.26864" lon="7.39643">
        <ele>210</ele>
        <time>2021-08-04T07:44:55Z</time>
      </trkpt>
      <trkpt lat="48.26867" lon="7.39642">
        <ele>210.1</ele>
        <time>2021-08-04T07:44:57Z</time>
      </trkpt>
      <trkpt lat="48.26868" lon="7.39642">
        <ele>210.1</ele>
        <time>2021-08-04T07:44:58Z</time>
      </trkpt>
      <trkpt lat="48.26869" lon="7.39641">
        <ele>210.1</ele>
        <time>2021-08-04T07:44:59Z</time>
      </trkpt>
      <trkpt lat="48.26872" lon="7.39638">
        <ele>210.2</ele>
        <time>2021-08-04T07:45:01Z</time>
      </trkpt>
      <trkpt lat="48.26872" lon="7.39635">
        <ele>210.3</ele>
        <time>2021-08-04T07:45:02Z</time>
      </trkpt>
      <trkpt lat="48.2687" lon="7.39634">
        <ele>210.3</ele>
        <time>2021-08-04T07:45:03Z</time>
      </trkpt>
      <trkpt lat="48.26869" lon="7.39633">
        <ele>210.3</ele>
        <time>2021-08-04T07:45:05Z</time>
      </trkpt>
      <trkpt lat="48.26868" lon="7.39632">
        <ele>210.4</ele>
        <time>2021-08-04T07:45:06Z</time>
      </trkpt>
      <trkpt lat="48.26867" lon="7.39631">
        <ele>210.4</ele>
        <time>2021-08-04T07:45:08Z</time>
      </trkpt>
      <trkpt lat="48.26866" lon="7.3963">
        <ele>210.4</ele>
        <time>2021-08-04T07:45:09Z</time>
      </trkpt>
      <trkpt lat="48.26865" lon="7.39628">
        <ele>210.5</ele>
        <time>2021-08-04T07:45:10Z</time>
      </trkpt>
      <trkpt lat="48.26865" lon="7.39628">
        <ele>210.5</ele>
        <time>2021-08-04T07:45:11Z</time>
      </trkpt>
      <trkpt lat="48.26864" lon="7.39629">
        <ele>210.5</ele>
        <time>2021-08-04T07:45:12Z</time>
      </trkpt>
      <trkpt lat="48.26865" lon="7.39631">
        <ele>210.5</ele>
        <time>2021-08-04T07:45:14Z</time>
      </trkpt>
      <trkpt lat="48.26865" lon="7.39633">
        <ele>210.6</ele>
        <time>2021-08-04T07:45:15Z</time>
      </trkpt>
      <trkpt lat="48.26866" lon="7.39633">
        <ele>210.6</ele>
        <time>2021-08-04T07:45:16Z</time>
      </trkpt>
      <trkpt lat="48.26866" lon="7.39633">
        <ele>210.6</ele>
        <time>2021-08-04T07:45:17Z</time>
      </trkpt>
      <trkpt lat="48.26867" lon="7.39633">
        <ele>210.6</ele>
        <time>2021-08-04T07:45:19Z</time>
      </trkpt>
      <trkpt lat="48.26868" lon="7.39634">
        <ele>210.6</ele>
        <time>2021-08-04T07:45:20Z</time>
      </trkpt>
      <trkpt lat="48.26869" lon="7.39634">
        <ele>210.7</ele>
        <time>2021-08-04T07:45:22Z</time>
      </trkpt>
      <trkpt lat="48.2687" lon="7.39635">
        <ele>210.7</ele>
        <time>2021-08-04T07:45:23Z</time>
      </trkpt>
      <trkpt lat="48.26871" lon="7.39635">
        <ele>210.7</ele>
        <time>2021-08-04T07:45:24Z</time>
      </trkpt>
      <trkpt lat="48.26878" lon="7.39636">
        <ele>211.2</ele>
        <time>2021-08-04T07:45:28Z</time>
      </trkpt>
      <trkpt lat="48.26882" lon="7.39636">
        <ele>211.2</ele>
        <time>2021-08-04T07:45:29Z</time>
      </trkpt>
      <trkpt lat="48.26885" lon="7.39636">
        <ele>211.3</ele>
        <time>2021-08-04T07:45:30Z</time>
      </trkpt>
      <trkpt lat="48.26888" lon="7.39635">
        <ele>211.3</ele>
        <time>2021-08-04T07:45:31Z</time>
      </trkpt>
      <trkpt lat="48.26891" lon="7.39635">
        <ele>211.3</ele>
        <time>2021-08-04T07:45:32Z</time>
      </trkpt>
      <trkpt lat="48.26896" lon="7.39635">
        <ele>211.2</ele>
        <time>2021-08-04T07:45:34Z</time>
      </trkpt>
      <trkpt lat="48.26901" lon="7.39634">
        <ele>211.2</ele>
        <time>2021-08-04T07:45:35Z</time>
      </trkpt>
      <trkpt lat="48.26907" lon="7.39635">
        <ele>211.1</ele>
        <time>2021-08-04T07:45:37Z</time>
      </trkpt>
      <trkpt lat="48.26913" lon="7.39635">
        <ele>211.1</ele>
        <time>2021-08-04T07:45:38Z</time>
      </trkpt>
      <trkpt lat="48.26921" lon="7.39635">
        <ele>211</ele>
        <time>2021-08-04T07:45:40Z</time>
      </trkpt>
      <trkpt lat="48.26926" lon="7.39636">
        <ele>211</ele>
        <time>2021-08-04T07:45:41Z</time>
      </trkpt>
      <trkpt lat="48.26931" lon="7.39636">
        <ele>210.9</ele>
        <time>2021-08-04T07:45:42Z</time>
      </trkpt>
      <trkpt lat="48.26938" lon="7.39635">
        <ele>210.9</ele>
        <time>2021-08-04T07:45:44Z</time>
      </trkpt>
      <trkpt lat="48.26945" lon="7.39636">
        <ele>210.9</ele>
        <time>2021-08-04T07:45:45Z</time>
      </trkpt>
      <trkpt lat="48.26952" lon="7.39636">
        <ele>210.9</ele>
        <time>2021-08-04T07:45:47Z</time>
      </trkpt>
      <trkpt lat="48.26958" lon="7.39636">
        <ele>210.9</ele>
        <time>2021-08-04T07:45:48Z</time>
      </trkpt>
      <trkpt lat="48.26967" lon="7.39635">
        <ele>210.9</ele>
        <time>2021-08-04T07:45:50Z</time>
      </trkpt>
      <trkpt lat="48.26972" lon="7.39635">
        <ele>210.9</ele>
        <time>2021-08-04T07:45:51Z</time>
      </trkpt>
      <trkpt lat="48.26976" lon="7.39636">
        <ele>210.9</ele>
        <time>2021-08-04T07:45:52Z</time>
      </trkpt>
      <trkpt lat="48.2698" lon="7.39636">
        <ele>210.9</ele>
        <time>2021-08-04T07:45:53Z</time>
      </trkpt>
      <trkpt lat="48.26984" lon="7.39635">
        <ele>210.9</ele>
        <time>2021-08-04T07:45:54Z</time>
      </trkpt>
      <trkpt lat="48.26992" lon="7.39634">
        <ele>210.8</ele>
        <time>2021-08-04T07:45:56Z</time>
      </trkpt>
      <trkpt lat="48.26995" lon="7.39633">
        <ele>210.7</ele>
        <time>2021-08-04T07:45:57Z</time>
      </trkpt>
      <trkpt lat="48.27" lon="7.39632">
        <ele>210.6</ele>
        <time>2021-08-04T07:45:58Z</time>
      </trkpt>
      <trkpt lat="48.27003" lon="7.39633">
        <ele>210.5</ele>
        <time>2021-08-04T07:46:00Z</time>
      </trkpt>
      <trkpt lat="48.27007" lon="7.39633">
        <ele>210.3</ele>
        <time>2021-08-04T07:46:01Z</time>
      </trkpt>
      <trkpt lat="48.2701" lon="7.39633">
        <ele>210.2</ele>
        <time>2021-08-04T07:46:02Z</time>
      </trkpt>
      <trkpt lat="48.27013" lon="7.39634">
        <ele>210</ele>
        <time>2021-08-04T07:46:03Z</time>
      </trkpt>
      <trkpt lat="48.2702" lon="7.39633">
        <ele>209.7</ele>
        <time>2021-08-04T07:46:05Z</time>
      </trkpt>
      <trkpt lat="48.27023" lon="7.39631">
        <ele>209.5</ele>
        <time>2021-08-04T07:46:06Z</time>
      </trkpt>
      <trkpt lat="48.27028" lon="7.39625">
        <ele>209.9</ele>
        <time>2021-08-04T07:46:07Z</time>
      </trkpt>
      <trkpt lat="48.27031" lon="7.3962">
        <ele>210.2</ele>
        <time>2021-08-04T07:46:08Z</time>
      </trkpt>
      <trkpt lat="48.27036" lon="7.39612">
        <ele>210.9</ele>
        <time>2021-08-04T07:46:10Z</time>
      </trkpt>
      <trkpt lat="48.2704" lon="7.39607">
        <ele>211.4</ele>
        <time>2021-08-04T07:46:11Z</time>
      </trkpt>
      <trkpt lat="48.27042" lon="7.39603">
        <ele>211.7</ele>
        <time>2021-08-04T07:46:12Z</time>
      </trkpt>
      <trkpt lat="48.27046" lon="7.39598">
        <ele>212.2</ele>
        <time>2021-08-04T07:46:14Z</time>
      </trkpt>
      <trkpt lat="48.27049" lon="7.39596">
        <ele>212.5</ele>
        <time>2021-08-04T07:46:15Z</time>
      </trkpt>
      <trkpt lat="48.2705" lon="7.39595">
        <ele>212.5</ele>
        <time>2021-08-04T07:46:16Z</time>
      </trkpt>
      <trkpt lat="48.27054" lon="7.39594">
        <ele>212.8</ele>
        <time>2021-08-04T07:46:18Z</time>
      </trkpt>
      <trkpt lat="48.27055" lon="7.39593">
        <ele>212.9</ele>
        <time>2021-08-04T07:46:19Z</time>
      </trkpt>
      <trkpt lat="48.27058" lon="7.3959">
        <ele>213.1</ele>
        <time>2021-08-04T07:46:21Z</time>
      </trkpt>
      <trkpt lat="48.2706" lon="7.39588">
        <ele>213.3</ele>
        <time>2021-08-04T07:46:22Z</time>
      </trkpt>
      <trkpt lat="48.27062" lon="7.39586">
        <ele>213.4</ele>
        <time>2021-08-04T07:46:24Z</time>
      </trkpt>
      <trkpt lat="48.27065" lon="7.39583">
        <ele>213.6</ele>
        <time>2021-08-04T07:46:25Z</time>
      </trkpt>
      <trkpt lat="48.27066" lon="7.39582">
        <ele>213.7</ele>
        <time>2021-08-04T07:46:26Z</time>
      </trkpt>
      <trkpt lat="48.27067" lon="7.3958">
        <ele>213.8</ele>
        <time>2021-08-04T07:46:27Z</time>
      </trkpt>
      <trkpt lat="48.27069" lon="7.39576">
        <ele>214</ele>
        <time>2021-08-04T07:46:29Z</time>
      </trkpt>
      <trkpt lat="48.2707" lon="7.39574">
        <ele>214.1</ele>
        <time>2021-08-04T07:46:30Z</time>
      </trkpt>
      <trkpt lat="48.27071" lon="7.39572">
        <ele>214.2</ele>
        <time>2021-08-04T07:46:31Z</time>
      </trkpt>
      <trkpt lat="48.27072" lon="7.39569">
        <ele>214.3</ele>
        <time>2021-08-04T07:46:32Z</time>
      </trkpt>
      <trkpt lat="48.27073" lon="7.39567">
        <ele>214.4</ele>
        <time>2021-08-04T07:46:33Z</time>
      </trkpt>
      <trkpt lat="48.27074" lon="7.39562">
        <ele>214.6</ele>
        <time>2021-08-04T07:46:35Z</time>
      </trkpt>
      <trkpt lat="48.27074" lon="7.3956">
        <ele>214.7</ele>
        <time>2021-08-04T07:46:36Z</time>
      </trkpt>
      <trkpt lat="48.27075" lon="7.39555">
        <ele>214.9</ele>
        <time>2021-08-04T07:46:38Z</time>
      </trkpt>
      <trkpt lat="48.27075" lon="7.39549">
        <ele>215.1</ele>
        <time>2021-08-04T07:46:40Z</time>
      </trkpt>
      <trkpt lat="48.27075" lon="7.39547">
        <ele>215.2</ele>
        <time>2021-08-04T07:46:41Z</time>
      </trkpt>
      <trkpt lat="48.27076" lon="7.39545">
        <ele>215.3</ele>
        <time>2021-08-04T07:46:42Z</time>
      </trkpt>
      <trkpt lat="48.27076" lon="7.39543">
        <ele>215.4</ele>
        <time>2021-08-04T07:46:43Z</time>
      </trkpt>
      <trkpt lat="48.27076" lon="7.39541">
        <ele>215.5</ele>
        <time>2021-08-04T07:46:44Z</time>
      </trkpt>
      <trkpt lat="48.27076" lon="7.39537">
        <ele>215.7</ele>
        <time>2021-08-04T07:46:46Z</time>
      </trkpt>
      <trkpt lat="48.27077" lon="7.39532">
        <ele>216</ele>
        <time>2021-08-04T07:46:48Z</time>
      </trkpt>
      <trkpt lat="48.27077" lon="7.3953">
        <ele>216</ele>
        <time>2021-08-04T07:46:49Z</time>
      </trkpt>
      <trkpt lat="48.27078" lon="7.39529">
        <ele>216.2</ele>
        <time>2021-08-04T07:46:50Z</time>
      </trkpt>
      <trkpt lat="48.27078" lon="7.39526">
        <ele>216.3</ele>
        <time>2021-08-04T07:46:52Z</time>
      </trkpt>
      <trkpt lat="48.2708" lon="7.39525">
        <ele>216.4</ele>
        <time>2021-08-04T07:46:53Z</time>
      </trkpt>
      <trkpt lat="48.27081" lon="7.39524">
        <ele>216.6</ele>
        <time>2021-08-04T07:46:54Z</time>
      </trkpt>
      <trkpt lat="48.27084" lon="7.39522">
        <ele>216.8</ele>
        <time>2021-08-04T07:46:55Z</time>
      </trkpt>
      <trkpt lat="48.27085" lon="7.39521">
        <ele>216.9</ele>
        <time>2021-08-04T07:46:56Z</time>
      </trkpt>
      <trkpt lat="48.27087" lon="7.39518">
        <ele>217.2</ele>
        <time>2021-08-04T07:46:57Z</time>
      </trkpt>
      <trkpt lat="48.27089" lon="7.39516">
        <ele>217.4</ele>
        <time>2021-08-04T07:46:59Z</time>
      </trkpt>
      <trkpt lat="48.27092" lon="7.39515">
        <ele>217.7</ele>
        <time>2021-08-04T07:47:01Z</time>
      </trkpt>
      <trkpt lat="48.27093" lon="7.39514">
        <ele>217.8</ele>
        <time>2021-08-04T07:47:02Z</time>
      </trkpt>
      <trkpt lat="48.27095" lon="7.39512">
        <ele>218.1</ele>
        <time>2021-08-04T07:47:03Z</time>
      </trkpt>
      <trkpt lat="48.27096" lon="7.3951">
        <ele>218.3</ele>
        <time>2021-08-04T07:47:05Z</time>
      </trkpt>
      <trkpt lat="48.27098" lon="7.39509">
        <ele>218.5</ele>
        <time>2021-08-04T07:47:06Z</time>
      </trkpt>
      <trkpt lat="48.27099" lon="7.39508">
        <ele>218.6</ele>
        <time>2021-08-04T07:47:07Z</time>
      </trkpt>
      <trkpt lat="48.271" lon="7.39507">
        <ele>218.8</ele>
        <time>2021-08-04T07:47:08Z</time>
      </trkpt>
      <trkpt lat="48.27103" lon="7.39506">
        <ele>219.1</ele>
        <time>2021-08-04T07:47:10Z</time>
      </trkpt>
      <trkpt lat="48.27104" lon="7.39505">
        <ele>219.3</ele>
        <time>2021-08-04T07:47:11Z</time>
      </trkpt>
      <trkpt lat="48.27106" lon="7.39504">
        <ele>219.5</ele>
        <time>2021-08-04T07:47:13Z</time>
      </trkpt>
      <trkpt lat="48.27107" lon="7.39502">
        <ele>219.7</ele>
        <time>2021-08-04T07:47:14Z</time>
      </trkpt>
      <trkpt lat="48.27108" lon="7.39502">
        <ele>219.8</ele>
        <time>2021-08-04T07:47:15Z</time>
      </trkpt>
      <trkpt lat="48.27111" lon="7.39501">
        <ele>220.1</ele>
        <time>2021-08-04T07:47:17Z</time>
      </trkpt>
      <trkpt lat="48.27112" lon="7.395">
        <ele>220.3</ele>
        <time>2021-08-04T07:47:18Z</time>
      </trkpt>
      <trkpt lat="48.27114" lon="7.395">
        <ele>220.6</ele>
        <time>2021-08-04T07:47:20Z</time>
      </trkpt>
      <trkpt lat="48.27116" lon="7.395">
        <ele>220.9</ele>
        <time>2021-08-04T07:47:21Z</time>
      </trkpt>
      <trkpt lat="48.27117" lon="7.39499">
        <ele>221.1</ele>
        <time>2021-08-04T07:47:23Z</time>
      </trkpt>
      <trkpt lat="48.27119" lon="7.39499">
        <ele>221.3</ele>
        <time>2021-08-04T07:47:24Z</time>
      </trkpt>
      <trkpt lat="48.27119" lon="7.39498">
        <ele>221.4</ele>
        <time>2021-08-04T07:47:25Z</time>
      </trkpt>
      <trkpt lat="48.2712" lon="7.39498">
        <ele>221.5</ele>
        <time>2021-08-04T07:47:26Z</time>
      </trkpt>
      <trkpt lat="48.27122" lon="7.39497">
        <ele>221.7</ele>
        <time>2021-08-04T07:47:27Z</time>
      </trkpt>
      <trkpt lat="48.27122" lon="7.39497">
        <ele>221.9</ele>
        <time>2021-08-04T07:47:28Z</time>
      </trkpt>
      <trkpt lat="48.27123" lon="7.39496">
        <ele>222</ele>
        <time>2021-08-04T07:47:29Z</time>
      </trkpt>
      <trkpt lat="48.27125" lon="7.39496">
        <ele>222.2</ele>
        <time>2021-08-04T07:47:30Z</time>
      </trkpt>
      <trkpt lat="48.27126" lon="7.39496">
        <ele>222.4</ele>
        <time>2021-08-04T07:47:31Z</time>
      </trkpt>
      <trkpt lat="48.27128" lon="7.39495">
        <ele>222.7</ele>
        <time>2021-08-04T07:47:33Z</time>
      </trkpt>
      <trkpt lat="48.27131" lon="7.39493">
        <ele>223.2</ele>
        <time>2021-08-04T07:47:34Z</time>
      </trkpt>
      <trkpt lat="48.27133" lon="7.39493">
        <ele>223.4</ele>
        <time>2021-08-04T07:47:35Z</time>
      </trkpt>
      <trkpt lat="48.27136" lon="7.39492">
        <ele>223.8</ele>
        <time>2021-08-04T07:47:37Z</time>
      </trkpt>
      <trkpt lat="48.27137" lon="7.39492">
        <ele>223.9</ele>
        <time>2021-08-04T07:47:38Z</time>
      </trkpt>
      <trkpt lat="48.27138" lon="7.39491">
        <ele>224.2</ele>
        <time>2021-08-04T07:47:39Z</time>
      </trkpt>
      <trkpt lat="48.27141" lon="7.3949">
        <ele>224.6</ele>
        <time>2021-08-04T07:47:41Z</time>
      </trkpt>
      <trkpt lat="48.27143" lon="7.3949">
        <ele>224.8</ele>
        <time>2021-08-04T07:47:42Z</time>
      </trkpt>
      <trkpt lat="48.27145" lon="7.39489">
        <ele>225.1</ele>
        <time>2021-08-04T07:47:44Z</time>
      </trkpt>
      <trkpt lat="48.27147" lon="7.39489">
        <ele>225.3</ele>
        <time>2021-08-04T07:47:46Z</time>
      </trkpt>
      <trkpt lat="48.27148" lon="7.39489">
        <ele>225.5</ele>
        <time>2021-08-04T07:47:47Z</time>
      </trkpt>
      <trkpt lat="48.27149" lon="7.3949">
        <ele>225.6</ele>
        <time>2021-08-04T07:47:48Z</time>
      </trkpt>
      <trkpt lat="48.27151" lon="7.39489">
        <ele>225.8</ele>
        <time>2021-08-04T07:47:49Z</time>
      </trkpt>
      <trkpt lat="48.27151" lon="7.39489">
        <ele>225.9</ele>
        <time>2021-08-04T07:47:50Z</time>
      </trkpt>
      <trkpt lat="48.27152" lon="7.39489">
        <ele>226</ele>
        <time>2021-08-04T07:47:51Z</time>
      </trkpt>
      <trkpt lat="48.27153" lon="7.39488">
        <ele>226.1</ele>
        <time>2021-08-04T07:47:53Z</time>
      </trkpt>
      <trkpt lat="48.27153" lon="7.39487">
        <ele>226.3</ele>
        <time>2021-08-04T07:47:54Z</time>
      </trkpt>
      <trkpt lat="48.27155" lon="7.39486">
        <ele>226.5</ele>
        <time>2021-08-04T07:47:55Z</time>
      </trkpt>
      <trkpt lat="48.27157" lon="7.39486">
        <ele>226.7</ele>
        <time>2021-08-04T07:47:57Z</time>
      </trkpt>
      <trkpt lat="48.27158" lon="7.39486">
        <ele>226.8</ele>
        <time>2021-08-04T07:47:58Z</time>
      </trkpt>
      <trkpt lat="48.27159" lon="7.39486">
        <ele>227</ele>
        <time>2021-08-04T07:47:59Z</time>
      </trkpt>
      <trkpt lat="48.2716" lon="7.39486">
        <ele>227.2</ele>
        <time>2021-08-04T07:48:00Z</time>
      </trkpt>
      <trkpt lat="48.27161" lon="7.39486">
        <ele>227.3</ele>
        <time>2021-08-04T07:48:01Z</time>
      </trkpt>
      <trkpt lat="48.27163" lon="7.39486">
        <ele>227.5</ele>
        <time>2021-08-04T07:48:02Z</time>
      </trkpt>
      <trkpt lat="48.27164" lon="7.39486">
        <ele>227.6</ele>
        <time>2021-08-04T07:48:03Z</time>
      </trkpt>
      <trkpt lat="48.27165" lon="7.39485">
        <ele>227.7</ele>
        <time>2021-08-04T07:48:04Z</time>
      </trkpt>
      <trkpt lat="48.27166" lon="7.39485">
        <ele>227.8</ele>
        <time>2021-08-04T07:48:05Z</time>
      </trkpt>
      <trkpt lat="48.27167" lon="7.39485">
        <ele>228</ele>
        <time>2021-08-04T07:48:07Z</time>
      </trkpt>
      <trkpt lat="48.27167" lon="7.39486">
        <ele>228.1</ele>
        <time>2021-08-04T07:48:08Z</time>
      </trkpt>
      <trkpt lat="48.27169" lon="7.39486">
        <ele>228.3</ele>
        <time>2021-08-04T07:48:10Z</time>
      </trkpt>
      <trkpt lat="48.2717" lon="7.39485">
        <ele>228.4</ele>
        <time>2021-08-04T07:48:11Z</time>
      </trkpt>
      <trkpt lat="48.27172" lon="7.39484">
        <ele>228.7</ele>
        <time>2021-08-04T07:48:13Z</time>
      </trkpt>
      <trkpt lat="48.27174" lon="7.39483">
        <ele>228.9</ele>
        <time>2021-08-04T07:48:14Z</time>
      </trkpt>
      <trkpt lat="48.27176" lon="7.39482">
        <ele>229.1</ele>
        <time>2021-08-04T07:48:15Z</time>
      </trkpt>
      <trkpt lat="48.27177" lon="7.39481">
        <ele>229.3</ele>
        <time>2021-08-04T07:48:17Z</time>
      </trkpt>
      <trkpt lat="48.27178" lon="7.3948">
        <ele>229.5</ele>
        <time>2021-08-04T07:48:18Z</time>
      </trkpt>
      <trkpt lat="48.2718" lon="7.3948">
        <ele>229.6</ele>
        <time>2021-08-04T07:48:19Z</time>
      </trkpt>
      <trkpt lat="48.27183" lon="7.39478">
        <ele>230</ele>
        <time>2021-08-04T07:48:21Z</time>
      </trkpt>
      <trkpt lat="48.27183" lon="7.39478">
        <ele>230</ele>
        <time>2021-08-04T07:48:22Z</time>
      </trkpt>
      <trkpt lat="48.27185" lon="7.39477">
        <ele>230.2</ele>
        <time>2021-08-04T07:48:23Z</time>
      </trkpt>
      <trkpt lat="48.27186" lon="7.39476">
        <ele>230.3</ele>
        <time>2021-08-04T07:48:24Z</time>
      </trkpt>
      <trkpt lat="48.27188" lon="7.39475">
        <ele>230.5</ele>
        <time>2021-08-04T07:48:25Z</time>
      </trkpt>
      <trkpt lat="48.27189" lon="7.39475">
        <ele>230.6</ele>
        <time>2021-08-04T07:48:26Z</time>
      </trkpt>
      <trkpt lat="48.27191" lon="7.39474">
        <ele>230.8</ele>
        <time>2021-08-04T07:48:28Z</time>
      </trkpt>
      <trkpt lat="48.27192" lon="7.39473">
        <ele>230.9</ele>
        <time>2021-08-04T07:48:29Z</time>
      </trkpt>
      <trkpt lat="48.27194" lon="7.39471">
        <ele>231.1</ele>
        <time>2021-08-04T07:48:31Z</time>
      </trkpt>
      <trkpt lat="48.27197" lon="7.3947">
        <ele>231.4</ele>
        <time>2021-08-04T07:48:33Z</time>
      </trkpt>
      <trkpt lat="48.27199" lon="7.39469">
        <ele>231.6</ele>
        <time>2021-08-04T07:48:35Z</time>
      </trkpt>
      <trkpt lat="48.27201" lon="7.39468">
        <ele>231.7</ele>
        <time>2021-08-04T07:48:36Z</time>
      </trkpt>
      <trkpt lat="48.27204" lon="7.39467">
        <ele>231.9</ele>
        <time>2021-08-04T07:48:38Z</time>
      </trkpt>
      <trkpt lat="48.27207" lon="7.39466">
        <ele>232.1</ele>
        <time>2021-08-04T07:48:40Z</time>
      </trkpt>
      <trkpt lat="48.27208" lon="7.39466">
        <ele>232.2</ele>
        <time>2021-08-04T07:48:41Z</time>
      </trkpt>
      <trkpt lat="48.27209" lon="7.39465">
        <ele>232.3</ele>
        <time>2021-08-04T07:48:42Z</time>
      </trkpt>
      <trkpt lat="48.27211" lon="7.39465">
        <ele>232.4</ele>
        <time>2021-08-04T07:48:43Z</time>
      </trkpt>
      <trkpt lat="48.27214" lon="7.39464">
        <ele>232.6</ele>
        <time>2021-08-04T07:48:45Z</time>
      </trkpt>
      <trkpt lat="48.27215" lon="7.39463">
        <ele>232.6</ele>
        <time>2021-08-04T07:48:46Z</time>
      </trkpt>
      <trkpt lat="48.27218" lon="7.39462">
        <ele>232.8</ele>
        <time>2021-08-04T07:48:48Z</time>
      </trkpt>
      <trkpt lat="48.27219" lon="7.39462">
        <ele>232.9</ele>
        <time>2021-08-04T07:48:49Z</time>
      </trkpt>
      <trkpt lat="48.27221" lon="7.39461">
        <ele>233</ele>
        <time>2021-08-04T07:48:50Z</time>
      </trkpt>
      <trkpt lat="48.27224" lon="7.3946">
        <ele>233.2</ele>
        <time>2021-08-04T07:48:52Z</time>
      </trkpt>
      <trkpt lat="48.27227" lon="7.39459">
        <ele>233.4</ele>
        <time>2021-08-04T07:48:53Z</time>
      </trkpt>
      <trkpt lat="48.27228" lon="7.39459">
        <ele>233.4</ele>
        <time>2021-08-04T07:48:54Z</time>
      </trkpt>
      <trkpt lat="48.27233" lon="7.39458">
        <ele>233.7</ele>
        <time>2021-08-04T07:48:56Z</time>
      </trkpt>
      <trkpt lat="48.27235" lon="7.39458">
        <ele>233.8</ele>
        <time>2021-08-04T07:48:57Z</time>
      </trkpt>
      <trkpt lat="48.27236" lon="7.39457">
        <ele>233.9</ele>
        <time>2021-08-04T07:48:58Z</time>
      </trkpt>
      <trkpt lat="48.27239" lon="7.39456">
        <ele>234</ele>
        <time>2021-08-04T07:49:00Z</time>
      </trkpt>
      <trkpt lat="48.27244" lon="7.39455">
        <ele>234.3</ele>
        <time>2021-08-04T07:49:02Z</time>
      </trkpt>
      <trkpt lat="48.27247" lon="7.39453">
        <ele>234.5</ele>
        <time>2021-08-04T07:49:04Z</time>
      </trkpt>
      <trkpt lat="48.27251" lon="7.3945">
        <ele>234.8</ele>
        <time>2021-08-04T07:49:06Z</time>
      </trkpt>
      <trkpt lat="48.27253" lon="7.39449">
        <ele>234.9</ele>
        <time>2021-08-04T07:49:07Z</time>
      </trkpt>
      <trkpt lat="48.27254" lon="7.39449">
        <ele>235</ele>
        <time>2021-08-04T07:49:08Z</time>
      </trkpt>
      <trkpt lat="48.27256" lon="7.39448">
        <ele>235.2</ele>
        <time>2021-08-04T07:49:09Z</time>
      </trkpt>
      <trkpt lat="48.27259" lon="7.39447">
        <ele>235.5</ele>
        <time>2021-08-04T07:49:11Z</time>
      </trkpt>
      <trkpt lat="48.27261" lon="7.39445">
        <ele>235.6</ele>
        <time>2021-08-04T07:49:12Z</time>
      </trkpt>
      <trkpt lat="48.27263" lon="7.39444">
        <ele>235.9</ele>
        <time>2021-08-04T07:49:14Z</time>
      </trkpt>
      <trkpt lat="48.27265" lon="7.39443">
        <ele>236</ele>
        <time>2021-08-04T07:49:15Z</time>
      </trkpt>
      <trkpt lat="48.27268" lon="7.39441">
        <ele>236.3</ele>
        <time>2021-08-04T07:49:17Z</time>
      </trkpt>
      <trkpt lat="48.27271" lon="7.39439">
        <ele>236.6</ele>
        <time>2021-08-04T07:49:19Z</time>
      </trkpt>
      <trkpt lat="48.27274" lon="7.39433">
        <ele>237</ele>
        <time>2021-08-04T07:49:21Z</time>
      </trkpt>
      <trkpt lat="48.27276" lon="7.39428">
        <ele>237.4</ele>
        <time>2021-08-04T07:49:22Z</time>
      </trkpt>
      <trkpt lat="48.27278" lon="7.39424">
        <ele>237.7</ele>
        <time>2021-08-04T07:49:23Z</time>
      </trkpt>
      <trkpt lat="48.2728" lon="7.3942">
        <ele>237.9</ele>
        <time>2021-08-04T07:49:24Z</time>
      </trkpt>
      <trkpt lat="48.27283" lon="7.39417">
        <ele>238.2</ele>
        <time>2021-08-04T07:49:26Z</time>
      </trkpt>
      <trkpt lat="48.27285" lon="7.39415">
        <ele>238.5</ele>
        <time>2021-08-04T07:49:27Z</time>
      </trkpt>
      <trkpt lat="48.27288" lon="7.39415">
        <ele>238.7</ele>
        <time>2021-08-04T07:49:28Z</time>
      </trkpt>
      <trkpt lat="48.27291" lon="7.39414">
        <ele>238.9</ele>
        <time>2021-08-04T07:49:30Z</time>
      </trkpt>
      <trkpt lat="48.27292" lon="7.39414">
        <ele>239</ele>
        <time>2021-08-04T07:49:31Z</time>
      </trkpt>
      <trkpt lat="48.27295" lon="7.39415">
        <ele>239.1</ele>
        <time>2021-08-04T07:49:32Z</time>
      </trkpt>
      <trkpt lat="48.27296" lon="7.39415">
        <ele>239.2</ele>
        <time>2021-08-04T07:49:33Z</time>
      </trkpt>
      <trkpt lat="48.27299" lon="7.39417">
        <ele>239.4</ele>
        <time>2021-08-04T07:49:35Z</time>
      </trkpt>
      <trkpt lat="48.27301" lon="7.39418">
        <ele>239.5</ele>
        <time>2021-08-04T07:49:36Z</time>
      </trkpt>
      <trkpt lat="48.27304" lon="7.39417">
        <ele>239.6</ele>
        <time>2021-08-04T07:49:38Z</time>
      </trkpt>
      <trkpt lat="48.27307" lon="7.39416">
        <ele>239.7</ele>
        <time>2021-08-04T07:49:40Z</time>
      </trkpt>
      <trkpt lat="48.2731" lon="7.39413">
        <ele>239.8</ele>
        <time>2021-08-04T07:49:42Z</time>
      </trkpt>
      <trkpt lat="48.27311" lon="7.39411">
        <ele>239.8</ele>
        <time>2021-08-04T07:49:43Z</time>
      </trkpt>
      <trkpt lat="48.27314" lon="7.39408">
        <ele>239.9</ele>
        <time>2021-08-04T07:49:45Z</time>
      </trkpt>
      <trkpt lat="48.27317" lon="7.39408">
        <ele>239.9</ele>
        <time>2021-08-04T07:49:46Z</time>
      </trkpt>
      <trkpt lat="48.27318" lon="7.39408">
        <ele>239.9</ele>
        <time>2021-08-04T07:49:47Z</time>
      </trkpt>
      <trkpt lat="48.27322" lon="7.39408">
        <ele>239.9</ele>
        <time>2021-08-04T07:49:49Z</time>
      </trkpt>
      <trkpt lat="48.27325" lon="7.39408">
        <ele>239.9</ele>
        <time>2021-08-04T07:49:50Z</time>
      </trkpt>
      <trkpt lat="48.27328" lon="7.39408">
        <ele>239.8</ele>
        <time>2021-08-04T07:49:51Z</time>
      </trkpt>
      <trkpt lat="48.27331" lon="7.39408">
        <ele>239.7</ele>
        <time>2021-08-04T07:49:52Z</time>
      </trkpt>
      <trkpt lat="48.27338" lon="7.39409">
        <ele>239.6</ele>
        <time>2021-08-04T07:49:54Z</time>
      </trkpt>
      <trkpt lat="48.27345" lon="7.39409">
        <ele>239.5</ele>
        <time>2021-08-04T07:49:56Z</time>
      </trkpt>
      <trkpt lat="48.27349" lon="7.3941">
        <ele>239.5</ele>
        <time>2021-08-04T07:49:57Z</time>
      </trkpt>
      <trkpt lat="48.27353" lon="7.3941">
        <ele>239.4</ele>
        <time>2021-08-04T07:49:58Z</time>
      </trkpt>
      <trkpt lat="48.27357" lon="7.3941">
        <ele>239.4</ele>
        <time>2021-08-04T07:49:59Z</time>
      </trkpt>
      <trkpt lat="48.27362" lon="7.3941">
        <ele>239.4</ele>
        <time>2021-08-04T07:50:01Z</time>
      </trkpt>
      <trkpt lat="48.27365" lon="7.39409">
        <ele>239.4</ele>
        <time>2021-08-04T07:50:02Z</time>
      </trkpt>
      <trkpt lat="48.2737" lon="7.39406">
        <ele>239.4</ele>
        <time>2021-08-04T07:50:04Z</time>
      </trkpt>
      <trkpt lat="48.27373" lon="7.39404">
        <ele>239.5</ele>
        <time>2021-08-04T07:50:05Z</time>
      </trkpt>
      <trkpt lat="48.27374" lon="7.39403">
        <ele>239.6</ele>
        <time>2021-08-04T07:50:06Z</time>
      </trkpt>
      <trkpt lat="48.27377" lon="7.39399">
        <ele>239.7</ele>
        <time>2021-08-04T07:50:07Z</time>
      </trkpt>
      <trkpt lat="48.27379" lon="7.39393">
        <ele>239.9</ele>
        <time>2021-08-04T07:50:09Z</time>
      </trkpt>
      <trkpt lat="48.27379" lon="7.39391">
        <ele>240</ele>
        <time>2021-08-04T07:50:10Z</time>
      </trkpt>
      <trkpt lat="48.27379" lon="7.39389">
        <ele>240.1</ele>
        <time>2021-08-04T07:50:11Z</time>
      </trkpt>
      <trkpt lat="48.27376" lon="7.39387">
        <ele>240.3</ele>
        <time>2021-08-04T07:50:12Z</time>
      </trkpt>
      <trkpt lat="48.27374" lon="7.39387">
        <ele>240.3</ele>
        <time>2021-08-04T07:50:13Z</time>
      </trkpt>
      <trkpt lat="48.27373" lon="7.39387">
        <ele>240.4</ele>
        <time>2021-08-04T07:50:14Z</time>
      </trkpt>
      <trkpt lat="48.27371" lon="7.39387">
        <ele>240.5</ele>
        <time>2021-08-04T07:50:15Z</time>
      </trkpt>
      <trkpt lat="48.27369" lon="7.39387">
        <ele>240.6</ele>
        <time>2021-08-04T07:50:16Z</time>
      </trkpt>
      <trkpt lat="48.27368" lon="7.39387">
        <ele>240.7</ele>
        <time>2021-08-04T07:50:17Z</time>
      </trkpt>
      <trkpt lat="48.27367" lon="7.39388">
        <ele>240.7</ele>
        <time>2021-08-04T07:50:18Z</time>
      </trkpt>
      <trkpt lat="48.27365" lon="7.39392">
        <ele>240.9</ele>
        <time>2021-08-04T07:50:20Z</time>
      </trkpt>
      <trkpt lat="48.27364" lon="7.39393">
        <ele>240.9</ele>
        <time>2021-08-04T07:50:21Z</time>
      </trkpt>
      <trkpt lat="48.27362" lon="7.39394">
        <ele>241</ele>
        <time>2021-08-04T07:50:22Z</time>
      </trkpt>
      <trkpt lat="48.27361" lon="7.39395">
        <ele>241.1</ele>
        <time>2021-08-04T07:50:24Z</time>
      </trkpt>
      <trkpt lat="48.27359" lon="7.39395">
        <ele>241.1</ele>
        <time>2021-08-04T07:50:25Z</time>
      </trkpt>
      <trkpt lat="48.27358" lon="7.39394">
        <ele>241.2</ele>
        <time>2021-08-04T07:50:26Z</time>
      </trkpt>
      <trkpt lat="48.27356" lon="7.39393">
        <ele>241.3</ele>
        <time>2021-08-04T07:50:27Z</time>
      </trkpt>
      <trkpt lat="48.27355" lon="7.39392">
        <ele>241.3</ele>
        <time>2021-08-04T07:50:29Z</time>
      </trkpt>
      <trkpt lat="48.27355" lon="7.39391">
        <ele>241.3</ele>
        <time>2021-08-04T07:50:30Z</time>
      </trkpt>
      <trkpt lat="48.27354" lon="7.39391">
        <ele>241.4</ele>
        <time>2021-08-04T07:50:31Z</time>
      </trkpt>
      <trkpt lat="48.27352" lon="7.39391">
        <ele>241.4</ele>
        <time>2021-08-04T07:50:32Z</time>
      </trkpt>
      <trkpt lat="48.2735" lon="7.39391">
        <ele>241.5</ele>
        <time>2021-08-04T07:50:34Z</time>
      </trkpt>
      <trkpt lat="48.27347" lon="7.39393">
        <ele>241.6</ele>
        <time>2021-08-04T07:50:36Z</time>
      </trkpt>
      <trkpt lat="48.27346" lon="7.39393">
        <ele>241.6</ele>
        <time>2021-08-04T07:50:37Z</time>
      </trkpt>
      <trkpt lat="48.27345" lon="7.39395">
        <ele>241.7</ele>
        <time>2021-08-04T07:50:38Z</time>
      </trkpt>
      <trkpt lat="48.27344" lon="7.39396">
        <ele>241.8</ele>
        <time>2021-08-04T07:50:39Z</time>
      </trkpt>
      <trkpt lat="48.27342" lon="7.39396">
        <ele>241.8</ele>
        <time>2021-08-04T07:50:41Z</time>
      </trkpt>
      <trkpt lat="48.2734" lon="7.39397">
        <ele>241.9</ele>
        <time>2021-08-04T07:50:42Z</time>
      </trkpt>
      <trkpt lat="48.27338" lon="7.39397">
        <ele>242</ele>
        <time>2021-08-04T07:50:44Z</time>
      </trkpt>
      <trkpt lat="48.27336" lon="7.39397">
        <ele>242</ele>
        <time>2021-08-04T07:50:46Z</time>
      </trkpt>
      <trkpt lat="48.27335" lon="7.39395">
        <ele>242.1</ele>
        <time>2021-08-04T07:50:47Z</time>
      </trkpt>
      <trkpt lat="48.27334" lon="7.39394">
        <ele>242.2</ele>
        <time>2021-08-04T07:50:48Z</time>
      </trkpt>
      <trkpt lat="48.27333" lon="7.39393">
        <ele>242.2</ele>
        <time>2021-08-04T07:50:49Z</time>
      </trkpt>
      <trkpt lat="48.27332" lon="7.39392">
        <ele>242.2</ele>
        <time>2021-08-04T07:50:51Z</time>
      </trkpt>
      <trkpt lat="48.27333" lon="7.39392">
        <ele>242.2</ele>
        <time>2021-08-04T07:50:53Z</time>
      </trkpt>
      <trkpt lat="48.27332" lon="7.39391">
        <ele>242.3</ele>
        <time>2021-08-04T07:50:54Z</time>
      </trkpt>
      <trkpt lat="48.27332" lon="7.39391">
        <ele>242.3</ele>
        <time>2021-08-04T07:50:55Z</time>
      </trkpt>
      <trkpt lat="48.27331" lon="7.39391">
        <ele>242.3</ele>
        <time>2021-08-04T07:50:57Z</time>
      </trkpt>
      <trkpt lat="48.27331" lon="7.39391">
        <ele>242.3</ele>
        <time>2021-08-04T07:50:58Z</time>
      </trkpt>
      <trkpt lat="48.27331" lon="7.39392">
        <ele>242.3</ele>
        <time>2021-08-04T07:50:59Z</time>
      </trkpt>
      <trkpt lat="48.2733" lon="7.39392">
        <ele>242.4</ele>
        <time>2021-08-04T07:51:00Z</time>
      </trkpt>
      <trkpt lat="48.2733" lon="7.39393">
        <ele>242.4</ele>
        <time>2021-08-04T07:51:02Z</time>
      </trkpt>
      <trkpt lat="48.27296" lon="7.39383">
        <ele>249.2</ele>
        <time>2021-08-04T07:51:27Z</time>
      </trkpt>
      <trkpt lat="48.27297" lon="7.39381">
        <ele>249.5</ele>
        <time>2021-08-04T07:51:28Z</time>
      </trkpt>
      <trkpt lat="48.27299" lon="7.3938">
        <ele>249.7</ele>
        <time>2021-08-04T07:51:29Z</time>
      </trkpt>
      <trkpt lat="48.273" lon="7.39378">
        <ele>250</ele>
        <time>2021-08-04T07:51:31Z</time>
      </trkpt>
      <trkpt lat="48.27301" lon="7.39377">
        <ele>250.1</ele>
        <time>2021-08-04T07:51:32Z</time>
      </trkpt>
      <trkpt lat="48.27302" lon="7.39376">
        <ele>250.3</ele>
        <time>2021-08-04T07:51:33Z</time>
      </trkpt>
      <trkpt lat="48.27302" lon="7.39376">
        <ele>250.3</ele>
        <time>2021-08-04T07:51:34Z</time>
      </trkpt>
      <trkpt lat="48.27302" lon="7.39376">
        <ele>250.3</ele>
        <time>2021-08-04T07:51:36Z</time>
      </trkpt>
      <trkpt lat="48.27302" lon="7.39376">
        <ele>250.3</ele>
        <time>2021-08-04T07:51:37Z</time>
      </trkpt>
      <trkpt lat="48.27302" lon="7.39376">
        <ele>250.3</ele>
        <time>2021-08-04T07:51:38Z</time>
      </trkpt>
      <trkpt lat="48.27302" lon="7.39375">
        <ele>250.4</ele>
        <time>2021-08-04T07:51:39Z</time>
      </trkpt>
      <trkpt lat="48.27303" lon="7.39374">
        <ele>250.5</ele>
        <time>2021-08-04T07:51:40Z</time>
      </trkpt>
      <trkpt lat="48.27303" lon="7.39374">
        <ele>250.6</ele>
        <time>2021-08-04T07:51:41Z</time>
      </trkpt>
      <trkpt lat="48.27304" lon="7.39373">
        <ele>250.7</ele>
        <time>2021-08-04T07:51:42Z</time>
      </trkpt>
      <trkpt lat="48.27304" lon="7.39373">
        <ele>250.7</ele>
        <time>2021-08-04T07:51:43Z</time>
      </trkpt>
      <trkpt lat="48.27307" lon="7.39369">
        <ele>251.2</ele>
        <time>2021-08-04T07:51:46Z</time>
      </trkpt>
      <trkpt lat="48.2731" lon="7.39365">
        <ele>251.6</ele>
        <time>2021-08-04T07:51:48Z</time>
      </trkpt>
      <trkpt lat="48.27311" lon="7.39363">
        <ele>251.8</ele>
        <time>2021-08-04T07:51:49Z</time>
      </trkpt>
      <trkpt lat="48.27312" lon="7.39362">
        <ele>252</ele>
        <time>2021-08-04T07:51:50Z</time>
      </trkpt>
      <trkpt lat="48.27313" lon="7.39361">
        <ele>252.1</ele>
        <time>2021-08-04T07:51:51Z</time>
      </trkpt>
      <trkpt lat="48.27314" lon="7.3936">
        <ele>252.2</ele>
        <time>2021-08-04T07:51:52Z</time>
      </trkpt>
      <trkpt lat="48.27316" lon="7.39358">
        <ele>252.4</ele>
        <time>2021-08-04T07:51:54Z</time>
      </trkpt>
      <trkpt lat="48.27317" lon="7.39358">
        <ele>252.5</ele>
        <time>2021-08-04T07:51:55Z</time>
      </trkpt>
      <trkpt lat="48.27318" lon="7.39358">
        <ele>252.6</ele>
        <time>2021-08-04T07:51:56Z</time>
      </trkpt>
      <trkpt lat="48.27318" lon="7.39359">
        <ele>252.7</ele>
        <time>2021-08-04T07:51:58Z</time>
      </trkpt>
      <trkpt lat="48.27318" lon="7.39359">
        <ele>252.7</ele>
        <time>2021-08-04T07:51:59Z</time>
      </trkpt>
      <trkpt lat="48.27319" lon="7.39359">
        <ele>252.8</ele>
        <time>2021-08-04T07:52:01Z</time>
      </trkpt>
      <trkpt lat="48.2732" lon="7.39358">
        <ele>252.9</ele>
        <time>2021-08-04T07:52:02Z</time>
      </trkpt>
      <trkpt lat="48.27321" lon="7.39358">
        <ele>253</ele>
        <time>2021-08-04T07:52:03Z</time>
      </trkpt>
      <trkpt lat="48.27322" lon="7.39357">
        <ele>253.1</ele>
        <time>2021-08-04T07:52:04Z</time>
      </trkpt>
      <trkpt lat="48.27323" lon="7.39356">
        <ele>253.3</ele>
        <time>2021-08-04T07:52:06Z</time>
      </trkpt>
      <trkpt lat="48.2733" lon="7.39349">
        <ele>254.2</ele>
        <time>2021-08-04T07:52:12Z</time>
      </trkpt>
      <trkpt lat="48.27331" lon="7.39347">
        <ele>254.4</ele>
        <time>2021-08-04T07:52:13Z</time>
      </trkpt>
      <trkpt lat="48.27332" lon="7.39346">
        <ele>254.5</ele>
        <time>2021-08-04T07:52:14Z</time>
      </trkpt>
      <trkpt lat="48.27333" lon="7.39344">
        <ele>254.7</ele>
        <time>2021-08-04T07:52:15Z</time>
      </trkpt>
      <trkpt lat="48.27333" lon="7.39344">
        <ele>254.8</ele>
        <time>2021-08-04T07:52:16Z</time>
      </trkpt>
      <trkpt lat="48.27334" lon="7.39343">
        <ele>254.9</ele>
        <time>2021-08-04T07:52:18Z</time>
      </trkpt>
      <trkpt lat="48.27334" lon="7.39342">
        <ele>255</ele>
        <time>2021-08-04T07:52:19Z</time>
      </trkpt>
      <trkpt lat="48.27335" lon="7.39341">
        <ele>255.1</ele>
        <time>2021-08-04T07:52:20Z</time>
      </trkpt>
      <trkpt lat="48.27336" lon="7.3934">
        <ele>255.2</ele>
        <time>2021-08-04T07:52:21Z</time>
      </trkpt>
      <trkpt lat="48.2734" lon="7.39337">
        <ele>255.7</ele>
        <time>2021-08-04T07:52:22Z</time>
      </trkpt>
      <trkpt lat="48.27345" lon="7.39336">
        <ele>256.2</ele>
        <time>2021-08-04T07:52:24Z</time>
      </trkpt>
      <trkpt lat="48.27349" lon="7.39334">
        <ele>256.6</ele>
        <time>2021-08-04T07:52:38Z</time>
      </trkpt>
      <trkpt lat="48.27353" lon="7.39332">
        <ele>257</ele>
        <time>2021-08-04T07:52:40Z</time>
      </trkpt>
      <trkpt lat="48.27357" lon="7.3933">
        <ele>257.4</ele>
        <time>2021-08-04T07:52:41Z</time>
      </trkpt>
      <trkpt lat="48.27358" lon="7.3933">
        <ele>257.5</ele>
        <time>2021-08-04T07:52:42Z</time>
      </trkpt>
      <trkpt lat="48.27359" lon="7.3933">
        <ele>257.6</ele>
        <time>2021-08-04T07:52:43Z</time>
      </trkpt>
      <trkpt lat="48.2736" lon="7.3933">
        <ele>257.6</ele>
        <time>2021-08-04T07:52:44Z</time>
      </trkpt>
      <trkpt lat="48.2736" lon="7.3933">
        <ele>257.7</ele>
        <time>2021-08-04T07:52:46Z</time>
      </trkpt>
      <trkpt lat="48.27361" lon="7.3933">
        <ele>257.8</ele>
        <time>2021-08-04T07:52:47Z</time>
      </trkpt>
      <trkpt lat="48.27362" lon="7.39329">
        <ele>257.8</ele>
        <time>2021-08-04T07:52:48Z</time>
      </trkpt>
      <trkpt lat="48.27362" lon="7.39329">
        <ele>257.9</ele>
        <time>2021-08-04T07:52:49Z</time>
      </trkpt>
      <trkpt lat="48.27363" lon="7.39328">
        <ele>258</ele>
        <time>2021-08-04T07:52:50Z</time>
      </trkpt>
      <trkpt lat="48.27365" lon="7.39328">
        <ele>258.1</ele>
        <time>2021-08-04T07:52:52Z</time>
      </trkpt>
      <trkpt lat="48.27395" lon="7.39306">
        <ele>260.6</ele>
        <time>2021-08-04T07:53:11Z</time>
      </trkpt>
      <trkpt lat="48.27398" lon="7.39306">
        <ele>260.8</ele>
        <time>2021-08-04T07:53:12Z</time>
      </trkpt>
      <trkpt lat="48.27401" lon="7.39305">
        <ele>261.1</ele>
        <time>2021-08-04T07:53:13Z</time>
      </trkpt>
      <trkpt lat="48.27403" lon="7.39305">
        <ele>261.2</ele>
        <time>2021-08-04T07:53:14Z</time>
      </trkpt>
      <trkpt lat="48.27406" lon="7.39303">
        <ele>261.5</ele>
        <time>2021-08-04T07:53:16Z</time>
      </trkpt>
      <trkpt lat="48.2741" lon="7.39301">
        <ele>261.8</ele>
        <time>2021-08-04T07:53:17Z</time>
      </trkpt>
      <trkpt lat="48.2741" lon="7.39301">
        <ele>261.8</ele>
        <time>2021-08-04T07:53:18Z</time>
      </trkpt>
      <trkpt lat="48.27412" lon="7.393">
        <ele>262</ele>
        <time>2021-08-04T07:53:19Z</time>
      </trkpt>
      <trkpt lat="48.27413" lon="7.393">
        <ele>262.1</ele>
        <time>2021-08-04T07:53:20Z</time>
      </trkpt>
      <trkpt lat="48.27417" lon="7.393">
        <ele>262.4</ele>
        <time>2021-08-04T07:53:22Z</time>
      </trkpt>
      <trkpt lat="48.27417" lon="7.393">
        <ele>262.4</ele>
        <time>2021-08-04T07:53:23Z</time>
      </trkpt>
      <trkpt lat="48.2742" lon="7.39299">
        <ele>262.6</ele>
        <time>2021-08-04T07:53:25Z</time>
      </trkpt>
      <trkpt lat="48.27422" lon="7.39298">
        <ele>262.8</ele>
        <time>2021-08-04T07:53:26Z</time>
      </trkpt>
      <trkpt lat="48.27423" lon="7.39298">
        <ele>262.9</ele>
        <time>2021-08-04T07:53:27Z</time>
      </trkpt>
      <trkpt lat="48.27426" lon="7.39296">
        <ele>263.1</ele>
        <time>2021-08-04T07:53:29Z</time>
      </trkpt>
      <trkpt lat="48.27426" lon="7.39296">
        <ele>263.2</ele>
        <time>2021-08-04T07:53:30Z</time>
      </trkpt>
      <trkpt lat="48.2743" lon="7.39294">
        <ele>263.5</ele>
        <time>2021-08-04T07:53:32Z</time>
      </trkpt>
      <trkpt lat="48.27431" lon="7.39293">
        <ele>263.6</ele>
        <time>2021-08-04T07:53:33Z</time>
      </trkpt>
      <trkpt lat="48.27432" lon="7.39292">
        <ele>263.7</ele>
        <time>2021-08-04T07:53:34Z</time>
      </trkpt>
      <trkpt lat="48.27433" lon="7.39292">
        <ele>263.8</ele>
        <time>2021-08-04T07:53:35Z</time>
      </trkpt>
      <trkpt lat="48.27435" lon="7.39292">
        <ele>264</ele>
        <time>2021-08-04T07:53:36Z</time>
      </trkpt>
      <trkpt lat="48.27436" lon="7.39292">
        <ele>264.1</ele>
        <time>2021-08-04T07:53:38Z</time>
      </trkpt>
      <trkpt lat="48.27437" lon="7.39292">
        <ele>264.2</ele>
        <time>2021-08-04T07:53:39Z</time>
      </trkpt>
      <trkpt lat="48.27438" lon="7.39292">
        <ele>264.3</ele>
        <time>2021-08-04T07:53:41Z</time>
      </trkpt>
      <trkpt lat="48.27439" lon="7.39292">
        <ele>264.4</ele>
        <time>2021-08-04T07:53:42Z</time>
      </trkpt>
      <trkpt lat="48.27441" lon="7.39293">
        <ele>264.5</ele>
        <time>2021-08-04T07:53:43Z</time>
      </trkpt>
      <trkpt lat="48.27442" lon="7.39295">
        <ele>264.7</ele>
        <time>2021-08-04T07:53:45Z</time>
      </trkpt>
      <trkpt lat="48.27443" lon="7.39297">
        <ele>264.8</ele>
        <time>2021-08-04T07:53:46Z</time>
      </trkpt>
      <trkpt lat="48.27445" lon="7.393">
        <ele>265.1</ele>
        <time>2021-08-04T07:53:48Z</time>
      </trkpt>
      <trkpt lat="48.27445" lon="7.39301">
        <ele>265.1</ele>
        <time>2021-08-04T07:53:49Z</time>
      </trkpt>
      <trkpt lat="48.27447" lon="7.39303">
        <ele>265.4</ele>
        <time>2021-08-04T07:53:51Z</time>
      </trkpt>
      <trkpt lat="48.27448" lon="7.39304">
        <ele>265.5</ele>
        <time>2021-08-04T07:53:52Z</time>
      </trkpt>
      <trkpt lat="48.27449" lon="7.39305">
        <ele>265.6</ele>
        <time>2021-08-04T07:53:53Z</time>
      </trkpt>
      <trkpt lat="48.2745" lon="7.39306">
        <ele>265.7</ele>
        <time>2021-08-04T07:53:55Z</time>
      </trkpt>
      <trkpt lat="48.27451" lon="7.39307">
        <ele>265.8</ele>
        <time>2021-08-04T07:53:57Z</time>
      </trkpt>
      <trkpt lat="48.27452" lon="7.39308">
        <ele>265.9</ele>
        <time>2021-08-04T07:53:58Z</time>
      </trkpt>
      <trkpt lat="48.27452" lon="7.39309">
        <ele>266</ele>
        <time>2021-08-04T07:54:00Z</time>
      </trkpt>
      <trkpt lat="48.27453" lon="7.39309">
        <ele>266</ele>
        <time>2021-08-04T07:54:01Z</time>
      </trkpt>
      <trkpt lat="48.27454" lon="7.39309">
        <ele>266.1</ele>
        <time>2021-08-04T07:54:03Z</time>
      </trkpt>
      <trkpt lat="48.27455" lon="7.3931">
        <ele>266.2</ele>
        <time>2021-08-04T07:54:04Z</time>
      </trkpt>
      <trkpt lat="48.27456" lon="7.3931">
        <ele>266.3</ele>
        <time>2021-08-04T07:54:05Z</time>
      </trkpt>
      <trkpt lat="48.27457" lon="7.3931">
        <ele>266.4</ele>
        <time>2021-08-04T07:54:06Z</time>
      </trkpt>
      <trkpt lat="48.27459" lon="7.3931">
        <ele>266.6</ele>
        <time>2021-08-04T07:54:08Z</time>
      </trkpt>
      <trkpt lat="48.27466" lon="7.39315">
        <ele>267.3</ele>
        <time>2021-08-04T07:54:14Z</time>
      </trkpt>
      <trkpt lat="48.27469" lon="7.39316">
        <ele>267.6</ele>
        <time>2021-08-04T07:54:15Z</time>
      </trkpt>
      <trkpt lat="48.27471" lon="7.39316">
        <ele>267.7</ele>
        <time>2021-08-04T07:54:16Z</time>
      </trkpt>
      <trkpt lat="48.27472" lon="7.39317">
        <ele>267.8</ele>
        <time>2021-08-04T07:54:17Z</time>
      </trkpt>
      <trkpt lat="48.27475" lon="7.39316">
        <ele>268</ele>
        <time>2021-08-04T07:54:18Z</time>
      </trkpt>
      <trkpt lat="48.27477" lon="7.39316">
        <ele>268.2</ele>
        <time>2021-08-04T07:54:20Z</time>
      </trkpt>
      <trkpt lat="48.2748" lon="7.39315">
        <ele>268.4</ele>
        <time>2021-08-04T07:54:21Z</time>
      </trkpt>
      <trkpt lat="48.27481" lon="7.39315">
        <ele>268.5</ele>
        <time>2021-08-04T07:54:22Z</time>
      </trkpt>
      <trkpt lat="48.27482" lon="7.39314">
        <ele>268.6</ele>
        <time>2021-08-04T07:54:24Z</time>
      </trkpt>
      <trkpt lat="48.27484" lon="7.39314">
        <ele>268.7</ele>
        <time>2021-08-04T07:54:25Z</time>
      </trkpt>
      <trkpt lat="48.27485" lon="7.39314">
        <ele>268.7</ele>
        <time>2021-08-04T07:54:26Z</time>
      </trkpt>
      <trkpt lat="48.27488" lon="7.39314">
        <ele>268.9</ele>
        <time>2021-08-04T07:54:28Z</time>
      </trkpt>
      <trkpt lat="48.2749" lon="7.39314">
        <ele>269</ele>
        <time>2021-08-04T07:54:29Z</time>
      </trkpt>
      <trkpt lat="48.27491" lon="7.39314">
        <ele>269</ele>
        <time>2021-08-04T07:54:31Z</time>
      </trkpt>
      <trkpt lat="48.27493" lon="7.39315">
        <ele>269.1</ele>
        <time>2021-08-04T07:54:32Z</time>
      </trkpt>
      <trkpt lat="48.27496" lon="7.39316">
        <ele>269.2</ele>
        <time>2021-08-04T07:54:34Z</time>
      </trkpt>
      <trkpt lat="48.27497" lon="7.39317">
        <ele>269.3</ele>
        <time>2021-08-04T07:54:35Z</time>
      </trkpt>
      <trkpt lat="48.27499" lon="7.39317">
        <ele>269.3</ele>
        <time>2021-08-04T07:54:36Z</time>
      </trkpt>
      <trkpt lat="48.27502" lon="7.39318">
        <ele>269.4</ele>
        <time>2021-08-04T07:54:38Z</time>
      </trkpt>
      <trkpt lat="48.27505" lon="7.39319">
        <ele>269.5</ele>
        <time>2021-08-04T07:54:39Z</time>
      </trkpt>
      <trkpt lat="48.27508" lon="7.39321">
        <ele>269.6</ele>
        <time>2021-08-04T07:54:40Z</time>
      </trkpt>
      <trkpt lat="48.27513" lon="7.39323">
        <ele>269.6</ele>
        <time>2021-08-04T07:54:42Z</time>
      </trkpt>
      <trkpt lat="48.27518" lon="7.39325">
        <ele>269.7</ele>
        <time>2021-08-04T07:54:44Z</time>
      </trkpt>
      <trkpt lat="48.27525" lon="7.39325">
        <ele>269.8</ele>
        <time>2021-08-04T07:54:46Z</time>
      </trkpt>
      <trkpt lat="48.2753" lon="7.39325">
        <ele>269.9</ele>
        <time>2021-08-04T07:54:47Z</time>
      </trkpt>
      <trkpt lat="48.27533" lon="7.39325">
        <ele>269.9</ele>
        <time>2021-08-04T07:54:48Z</time>
      </trkpt>
      <trkpt lat="48.27537" lon="7.39324">
        <ele>269.9</ele>
        <time>2021-08-04T07:54:49Z</time>
      </trkpt>
      <trkpt lat="48.27542" lon="7.39323">
        <ele>270</ele>
        <time>2021-08-04T07:54:51Z</time>
      </trkpt>
      <trkpt lat="48.27545" lon="7.39323">
        <ele>270</ele>
        <time>2021-08-04T07:54:52Z</time>
      </trkpt>
      <trkpt lat="48.2755" lon="7.39322">
        <ele>270</ele>
        <time>2021-08-04T07:54:54Z</time>
      </trkpt>
      <trkpt lat="48.27553" lon="7.39321">
        <ele>270</ele>
        <time>2021-08-04T07:54:55Z</time>
      </trkpt>
      <trkpt lat="48.27556" lon="7.3932">
        <ele>269.9</ele>
        <time>2021-08-04T07:54:56Z</time>
      </trkpt>
      <trkpt lat="48.27558" lon="7.3932">
        <ele>269.9</ele>
        <time>2021-08-04T07:54:57Z</time>
      </trkpt>
      <trkpt lat="48.27562" lon="7.39321">
        <ele>269.9</ele>
        <time>2021-08-04T07:54:59Z</time>
      </trkpt>
      <trkpt lat="48.27567" lon="7.39322">
        <ele>269.8</ele>
        <time>2021-08-04T07:55:01Z</time>
      </trkpt>
      <trkpt lat="48.27573" lon="7.39324">
        <ele>269.8</ele>
        <time>2021-08-04T07:55:03Z</time>
      </trkpt>
      <trkpt lat="48.27577" lon="7.39326">
        <ele>269.7</ele>
        <time>2021-08-04T07:55:04Z</time>
      </trkpt>
      <trkpt lat="48.2758" lon="7.39327">
        <ele>269.7</ele>
        <time>2021-08-04T07:55:05Z</time>
      </trkpt>
      <trkpt lat="48.27583" lon="7.39328">
        <ele>269.7</ele>
        <time>2021-08-04T07:55:06Z</time>
      </trkpt>
      <trkpt lat="48.2759" lon="7.39329">
        <ele>269.7</ele>
        <time>2021-08-04T07:55:08Z</time>
      </trkpt>
      <trkpt lat="48.27593" lon="7.3933">
        <ele>269.7</ele>
        <time>2021-08-04T07:55:09Z</time>
      </trkpt>
      <trkpt lat="48.27599" lon="7.39331">
        <ele>269.7</ele>
        <time>2021-08-04T07:55:11Z</time>
      </trkpt>
      <trkpt lat="48.27604" lon="7.39333">
        <ele>269.7</ele>
        <time>2021-08-04T07:55:12Z</time>
      </trkpt>
      <trkpt lat="48.27609" lon="7.39333">
        <ele>269.8</ele>
        <time>2021-08-04T07:55:13Z</time>
      </trkpt>
      <trkpt lat="48.27613" lon="7.39334">
        <ele>269.8</ele>
        <time>2021-08-04T07:55:14Z</time>
      </trkpt>
      <trkpt lat="48.27618" lon="7.39336">
        <ele>269.9</ele>
        <time>2021-08-04T07:55:16Z</time>
      </trkpt>
      <trkpt lat="48.27624" lon="7.39338">
        <ele>270</ele>
        <time>2021-08-04T07:55:17Z</time>
      </trkpt>
      <trkpt lat="48.27628" lon="7.39339">
        <ele>270.1</ele>
        <time>2021-08-04T07:55:18Z</time>
      </trkpt>
      <trkpt lat="48.27632" lon="7.3934">
        <ele>270.3</ele>
        <time>2021-08-04T07:55:20Z</time>
      </trkpt>
      <trkpt lat="48.27638" lon="7.39342">
        <ele>270.4</ele>
        <time>2021-08-04T07:55:22Z</time>
      </trkpt>
      <trkpt lat="48.27641" lon="7.39343">
        <ele>270.4</ele>
        <time>2021-08-04T07:55:23Z</time>
      </trkpt>
      <trkpt lat="48.27644" lon="7.39343">
        <ele>270.6</ele>
        <time>2021-08-04T07:55:24Z</time>
      </trkpt>
      <trkpt lat="48.27647" lon="7.39345">
        <ele>270.7</ele>
        <time>2021-08-04T07:55:25Z</time>
      </trkpt>
      <trkpt lat="48.2765" lon="7.39347">
        <ele>270.9</ele>
        <time>2021-08-04T07:55:26Z</time>
      </trkpt>
      <trkpt lat="48.27653" lon="7.39348">
        <ele>271.1</ele>
        <time>2021-08-04T07:55:28Z</time>
      </trkpt>
      <trkpt lat="48.27657" lon="7.39348">
        <ele>271.3</ele>
        <time>2021-08-04T07:55:29Z</time>
      </trkpt>
      <trkpt lat="48.27658" lon="7.39348">
        <ele>271.4</ele>
        <time>2021-08-04T07:55:30Z</time>
      </trkpt>
      <trkpt lat="48.27663" lon="7.39348">
        <ele>271.7</ele>
        <time>2021-08-04T07:55:32Z</time>
      </trkpt>
      <trkpt lat="48.27666" lon="7.39349">
        <ele>271.9</ele>
        <time>2021-08-04T07:55:33Z</time>
      </trkpt>
      <trkpt lat="48.27668" lon="7.3935">
        <ele>272</ele>
        <time>2021-08-04T07:55:34Z</time>
      </trkpt>
      <trkpt lat="48.2767" lon="7.3935">
        <ele>272.2</ele>
        <time>2021-08-04T07:55:36Z</time>
      </trkpt>
      <trkpt lat="48.27673" lon="7.39349">
        <ele>272.3</ele>
        <time>2021-08-04T07:55:38Z</time>
      </trkpt>
      <trkpt lat="48.27676" lon="7.39348">
        <ele>272.5</ele>
        <time>2021-08-04T07:55:40Z</time>
      </trkpt>
      <trkpt lat="48.27678" lon="7.39348">
        <ele>272.6</ele>
        <time>2021-08-04T07:55:41Z</time>
      </trkpt>
      <trkpt lat="48.2768" lon="7.39347">
        <ele>272.8</ele>
        <time>2021-08-04T07:55:43Z</time>
      </trkpt>
      <trkpt lat="48.27682" lon="7.39348">
        <ele>272.9</ele>
        <time>2021-08-04T07:55:44Z</time>
      </trkpt>
      <trkpt lat="48.27684" lon="7.39348">
        <ele>273</ele>
        <time>2021-08-04T07:55:46Z</time>
      </trkpt>
      <trkpt lat="48.27686" lon="7.39348">
        <ele>273.1</ele>
        <time>2021-08-04T07:55:47Z</time>
      </trkpt>
      <trkpt lat="48.2769" lon="7.3935">
        <ele>273.3</ele>
        <time>2021-08-04T07:55:49Z</time>
      </trkpt>
      <trkpt lat="48.27693" lon="7.3935">
        <ele>273.5</ele>
        <time>2021-08-04T07:55:50Z</time>
      </trkpt>
      <trkpt lat="48.27694" lon="7.3935">
        <ele>273.6</ele>
        <time>2021-08-04T07:55:51Z</time>
      </trkpt>
      <trkpt lat="48.27695" lon="7.39349">
        <ele>273.7</ele>
        <time>2021-08-04T07:55:52Z</time>
      </trkpt>
      <trkpt lat="48.27697" lon="7.39348">
        <ele>273.8</ele>
        <time>2021-08-04T07:55:53Z</time>
      </trkpt>
      <trkpt lat="48.277" lon="7.39345">
        <ele>274</ele>
        <time>2021-08-04T07:55:55Z</time>
      </trkpt>
      <trkpt lat="48.277" lon="7.39344">
        <ele>274</ele>
        <time>2021-08-04T07:55:56Z</time>
      </trkpt>
      <trkpt lat="48.27702" lon="7.39341">
        <ele>274.1</ele>
        <time>2021-08-04T07:55:57Z</time>
      </trkpt>
      <trkpt lat="48.27703" lon="7.39338">
        <ele>274.3</ele>
        <time>2021-08-04T07:55:59Z</time>
      </trkpt>
      <trkpt lat="48.27704" lon="7.39334">
        <ele>274.4</ele>
        <time>2021-08-04T07:56:00Z</time>
      </trkpt>
      <trkpt lat="48.27704" lon="7.39332">
        <ele>274.5</ele>
        <time>2021-08-04T07:56:02Z</time>
      </trkpt>
      <trkpt lat="48.27705" lon="7.39327">
        <ele>274.6</ele>
        <time>2021-08-04T07:56:03Z</time>
      </trkpt>
      <trkpt lat="48.27706" lon="7.39325">
        <ele>274.7</ele>
        <time>2021-08-04T07:56:04Z</time>
      </trkpt>
      <trkpt lat="48.27707" lon="7.3932">
        <ele>274.8</ele>
        <time>2021-08-04T07:56:05Z</time>
      </trkpt>
      <trkpt lat="48.27708" lon="7.39318">
        <ele>274.9</ele>
        <time>2021-08-04T07:56:06Z</time>
      </trkpt>
      <trkpt lat="48.27709" lon="7.39314">
        <ele>275</ele>
        <time>2021-08-04T07:56:07Z</time>
      </trkpt>
      <trkpt lat="48.27709" lon="7.39313">
        <ele>275.1</ele>
        <time>2021-08-04T07:56:08Z</time>
      </trkpt>
      <trkpt lat="48.27709" lon="7.39308">
        <ele>275.2</ele>
        <time>2021-08-04T07:56:10Z</time>
      </trkpt>
      <trkpt lat="48.27709" lon="7.39305">
        <ele>275.3</ele>
        <time>2021-08-04T07:56:11Z</time>
      </trkpt>
      <trkpt lat="48.27709" lon="7.39302">
        <ele>275.4</ele>
        <time>2021-08-04T07:56:12Z</time>
      </trkpt>
      <trkpt lat="48.27709" lon="7.39297">
        <ele>275.6</ele>
        <time>2021-08-04T07:56:14Z</time>
      </trkpt>
      <trkpt lat="48.27709" lon="7.39295">
        <ele>275.6</ele>
        <time>2021-08-04T07:56:15Z</time>
      </trkpt>
      <trkpt lat="48.2771" lon="7.39293">
        <ele>275.7</ele>
        <time>2021-08-04T07:56:16Z</time>
      </trkpt>
      <trkpt lat="48.2771" lon="7.39291">
        <ele>275.8</ele>
        <time>2021-08-04T07:56:17Z</time>
      </trkpt>
      <trkpt lat="48.2771" lon="7.39288">
        <ele>275.9</ele>
        <time>2021-08-04T07:56:18Z</time>
      </trkpt>
      <trkpt lat="48.2771" lon="7.39286">
        <ele>275.9</ele>
        <time>2021-08-04T07:56:19Z</time>
      </trkpt>
      <trkpt lat="48.2771" lon="7.39285">
        <ele>276</ele>
        <time>2021-08-04T07:56:20Z</time>
      </trkpt>
      <trkpt lat="48.27709" lon="7.39283">
        <ele>276.1</ele>
        <time>2021-08-04T07:56:21Z</time>
      </trkpt>
      <trkpt lat="48.27709" lon="7.39279">
        <ele>276.2</ele>
        <time>2021-08-04T07:56:23Z</time>
      </trkpt>
      <trkpt lat="48.27709" lon="7.39277">
        <ele>276.3</ele>
        <time>2021-08-04T07:56:24Z</time>
      </trkpt>
      <trkpt lat="48.27708" lon="7.39274">
        <ele>276.4</ele>
        <time>2021-08-04T07:56:25Z</time>
      </trkpt>
      <trkpt lat="48.27708" lon="7.39269">
        <ele>276.6</ele>
        <time>2021-08-04T07:56:27Z</time>
      </trkpt>
      <trkpt lat="48.27708" lon="7.39268">
        <ele>276.7</ele>
        <time>2021-08-04T07:56:28Z</time>
      </trkpt>
      <trkpt lat="48.27707" lon="7.39265">
        <ele>276.8</ele>
        <time>2021-08-04T07:56:29Z</time>
      </trkpt>
      <trkpt lat="48.27707" lon="7.39263">
        <ele>276.8</ele>
        <time>2021-08-04T07:56:30Z</time>
      </trkpt>
      <trkpt lat="48.27707" lon="7.39261">
        <ele>276.9</ele>
        <time>2021-08-04T07:56:31Z</time>
      </trkpt>
      <trkpt lat="48.27706" lon="7.39259">
        <ele>277</ele>
        <time>2021-08-04T07:56:32Z</time>
      </trkpt>
      <trkpt lat="48.27706" lon="7.39254">
        <ele>277.2</ele>
        <time>2021-08-04T07:56:34Z</time>
      </trkpt>
      <trkpt lat="48.27706" lon="7.39253">
        <ele>277.2</ele>
        <time>2021-08-04T07:56:35Z</time>
      </trkpt>
      <trkpt lat="48.27707" lon="7.39249">
        <ele>277.4</ele>
        <time>2021-08-04T07:56:37Z</time>
      </trkpt>
      <trkpt lat="48.27707" lon="7.39248">
        <ele>277.5</ele>
        <time>2021-08-04T07:56:38Z</time>
      </trkpt>
      <trkpt lat="48.27707" lon="7.39245">
        <ele>277.6</ele>
        <time>2021-08-04T07:56:39Z</time>
      </trkpt>
      <trkpt lat="48.27708" lon="7.39243">
        <ele>277.6</ele>
        <time>2021-08-04T07:56:41Z</time>
      </trkpt>
      <trkpt lat="48.27709" lon="7.39238">
        <ele>277.7</ele>
        <time>2021-08-04T07:56:42Z</time>
      </trkpt>
      <trkpt lat="48.2771" lon="7.39237">
        <ele>277.8</ele>
        <time>2021-08-04T07:56:43Z</time>
      </trkpt>
      <trkpt lat="48.2771" lon="7.39236">
        <ele>277.8</ele>
        <time>2021-08-04T07:56:44Z</time>
      </trkpt>
      <trkpt lat="48.27711" lon="7.39232">
        <ele>277.9</ele>
        <time>2021-08-04T07:56:46Z</time>
      </trkpt>
      <trkpt lat="48.27711" lon="7.3923">
        <ele>278</ele>
        <time>2021-08-04T07:56:47Z</time>
      </trkpt>
      <trkpt lat="48.27712" lon="7.39228">
        <ele>278.1</ele>
        <time>2021-08-04T07:56:48Z</time>
      </trkpt>
      <trkpt lat="48.27713" lon="7.39224">
        <ele>278.2</ele>
        <time>2021-08-04T07:56:50Z</time>
      </trkpt>
      <trkpt lat="48.27714" lon="7.39221">
        <ele>278.3</ele>
        <time>2021-08-04T07:56:51Z</time>
      </trkpt>
      <trkpt lat="48.27714" lon="7.39217">
        <ele>278.5</ele>
        <time>2021-08-04T07:56:53Z</time>
      </trkpt>
      <trkpt lat="48.27715" lon="7.39215">
        <ele>278.6</ele>
        <time>2021-08-04T07:56:54Z</time>
      </trkpt>
      <trkpt lat="48.27715" lon="7.39212">
        <ele>278.7</ele>
        <time>2021-08-04T07:56:55Z</time>
      </trkpt>
      <trkpt lat="48.27716" lon="7.3921">
        <ele>278.8</ele>
        <time>2021-08-04T07:56:56Z</time>
      </trkpt>
      <trkpt lat="48.27717" lon="7.39209">
        <ele>278.8</ele>
        <time>2021-08-04T07:56:57Z</time>
      </trkpt>
      <trkpt lat="48.27718" lon="7.39205">
        <ele>279</ele>
        <time>2021-08-04T07:56:59Z</time>
      </trkpt>
      <trkpt lat="48.27717" lon="7.39201">
        <ele>279.1</ele>
        <time>2021-08-04T07:57:01Z</time>
      </trkpt>
      <trkpt lat="48.27717" lon="7.392">
        <ele>279.2</ele>
        <time>2021-08-04T07:57:02Z</time>
      </trkpt>
      <trkpt lat="48.27716" lon="7.39199">
        <ele>279.3</ele>
        <time>2021-08-04T07:57:04Z</time>
      </trkpt>
      <trkpt lat="48.27713" lon="7.39197">
        <ele>279.4</ele>
        <time>2021-08-04T07:57:06Z</time>
      </trkpt>
      <trkpt lat="48.27711" lon="7.39195">
        <ele>279.5</ele>
        <time>2021-08-04T07:57:07Z</time>
      </trkpt>
      <trkpt lat="48.27709" lon="7.39194">
        <ele>279.7</ele>
        <time>2021-08-04T07:57:08Z</time>
      </trkpt>
      <trkpt lat="48.27707" lon="7.39192">
        <ele>279.8</ele>
        <time>2021-08-04T07:57:10Z</time>
      </trkpt>
      <trkpt lat="48.27705" lon="7.3919">
        <ele>280</ele>
        <time>2021-08-04T07:57:12Z</time>
      </trkpt>
      <trkpt lat="48.27702" lon="7.39188">
        <ele>280.8</ele>
        <time>2021-08-04T07:57:13Z</time>
      </trkpt>
      <trkpt lat="48.277" lon="7.39187">
        <ele>280.9</ele>
        <time>2021-08-04T07:57:14Z</time>
      </trkpt>
      <trkpt lat="48.27698" lon="7.39185">
        <ele>281</ele>
        <time>2021-08-04T07:59:20Z</time>
      </trkpt>
      <trkpt lat="48.27696" lon="7.39183">
        <ele>281</ele>
        <time>2021-08-04T07:59:21Z</time>
      </trkpt>
      <trkpt lat="48.27688" lon="7.39186">
        <ele>281.3</ele>
        <time>2021-08-04T07:59:22Z</time>
      </trkpt>
      <trkpt lat="48.27684" lon="7.39189">
        <ele>281.5</ele>
        <time>2021-08-04T07:59:24Z</time>
      </trkpt>
      <trkpt lat="48.27681" lon="7.39192">
        <ele>281.6</ele>
        <time>2021-08-04T07:59:25Z</time>
      </trkpt>
      <trkpt lat="48.27678" lon="7.39196">
        <ele>281.8</ele>
        <time>2021-08-04T07:59:26Z</time>
      </trkpt>
      <trkpt lat="48.27677" lon="7.39197">
        <ele>281.8</ele>
        <time>2021-08-04T07:59:27Z</time>
      </trkpt>
      <trkpt lat="48.27675" lon="7.39199">
        <ele>281.9</ele>
        <time>2021-08-04T07:59:29Z</time>
      </trkpt>
      <trkpt lat="48.27677" lon="7.39199">
        <ele>282</ele>
        <time>2021-08-04T07:59:30Z</time>
      </trkpt>
      <trkpt lat="48.27678" lon="7.39199">
        <ele>282</ele>
        <time>2021-08-04T07:59:31Z</time>
      </trkpt>
      <trkpt lat="48.27682" lon="7.39202">
        <ele>282.2</ele>
        <time>2021-08-04T07:59:33Z</time>
      </trkpt>
      <trkpt lat="48.27685" lon="7.39205">
        <ele>282.3</ele>
        <time>2021-08-04T07:59:34Z</time>
      </trkpt>
      <trkpt lat="48.27686" lon="7.39205">
        <ele>282.1</ele>
        <time>2021-08-04T07:59:35Z</time>
      </trkpt>
      <trkpt lat="48.27687" lon="7.39205">
        <ele>282</ele>
        <time>2021-08-04T07:59:36Z</time>
      </trkpt>
      <trkpt lat="48.27688" lon="7.39205">
        <ele>281.9</ele>
        <time>2021-08-04T07:59:38Z</time>
      </trkpt>
      <trkpt lat="48.2769" lon="7.39205">
        <ele>281.9</ele>
        <time>2021-08-04T07:59:39Z</time>
      </trkpt>
      <trkpt lat="48.27693" lon="7.39206">
        <ele>281.8</ele>
        <time>2021-08-04T07:59:41Z</time>
      </trkpt>
      <trkpt lat="48.27696" lon="7.39206">
        <ele>281.7</ele>
        <time>2021-08-04T07:59:42Z</time>
      </trkpt>
      <trkpt lat="48.27697" lon="7.39206">
        <ele>281.6</ele>
        <time>2021-08-04T07:59:44Z</time>
      </trkpt>
      <trkpt lat="48.27708" lon="7.3918">
        <ele>280.8</ele>
        <time>2021-08-04T08:00:57Z</time>
      </trkpt>
      <trkpt lat="48.27707" lon="7.3918">
        <ele>280.3</ele>
        <time>2021-08-04T08:00:58Z</time>
      </trkpt>
      <trkpt lat="48.27705" lon="7.39182">
        <ele>280.3</ele>
        <time>2021-08-04T08:00:59Z</time>
      </trkpt>
      <trkpt lat="48.27705" lon="7.39183">
        <ele>280.3</ele>
        <time>2021-08-04T08:01:00Z</time>
      </trkpt>
      <trkpt lat="48.27706" lon="7.39184">
        <ele>280.3</ele>
        <time>2021-08-04T08:01:02Z</time>
      </trkpt>
      <trkpt lat="48.27708" lon="7.39183">
        <ele>280.3</ele>
        <time>2021-08-04T08:01:03Z</time>
      </trkpt>
      <trkpt lat="48.2771" lon="7.39183">
        <ele>280.3</ele>
        <time>2021-08-04T08:01:04Z</time>
      </trkpt>
      <trkpt lat="48.27711" lon="7.39182">
        <ele>280.3</ele>
        <time>2021-08-04T08:01:05Z</time>
      </trkpt>
      <trkpt lat="48.2771" lon="7.39181">
        <ele>280.3</ele>
        <time>2021-08-04T08:01:07Z</time>
      </trkpt>
      <trkpt lat="48.27711" lon="7.39182">
        <ele>280.2</ele>
        <time>2021-08-04T08:01:08Z</time>
      </trkpt>
      <trkpt lat="48.27711" lon="7.39183">
        <ele>280.2</ele>
        <time>2021-08-04T08:01:09Z</time>
      </trkpt>
      <trkpt lat="48.27713" lon="7.39183">
        <ele>280.2</ele>
        <time>2021-08-04T08:01:11Z</time>
      </trkpt>
      <trkpt lat="48.27714" lon="7.39183">
        <ele>280.2</ele>
        <time>2021-08-04T08:01:12Z</time>
      </trkpt>
      <trkpt lat="48.27724" lon="7.39197">
        <ele>280.2</ele>
        <time>2021-08-04T08:03:09Z</time>
      </trkpt>
      <trkpt lat="48.27724" lon="7.39197">
        <ele>280.1</ele>
        <time>2021-08-04T08:03:10Z</time>
      </trkpt>
      <trkpt lat="48.27725" lon="7.39197">
        <ele>280.1</ele>
        <time>2021-08-04T08:03:12Z</time>
      </trkpt>
      <trkpt lat="48.27726" lon="7.39193">
        <ele>280.1</ele>
        <time>2021-08-04T08:03:14Z</time>
      </trkpt>
      <trkpt lat="48.27726" lon="7.39192">
        <ele>280.1</ele>
        <time>2021-08-04T08:03:16Z</time>
      </trkpt>
      <trkpt lat="48.27728" lon="7.39191">
        <ele>280.1</ele>
        <time>2021-08-04T08:03:18Z</time>
      </trkpt>
      <trkpt lat="48.27731" lon="7.39192">
        <ele>280.1</ele>
        <time>2021-08-04T08:03:19Z</time>
      </trkpt>
      <trkpt lat="48.27732" lon="7.39193">
        <ele>280.1</ele>
        <time>2021-08-04T08:03:20Z</time>
      </trkpt>
      <trkpt lat="48.27701" lon="7.39193">
        <ele>279.9</ele>
        <time>2021-08-04T08:03:49Z</time>
      </trkpt>
      <trkpt lat="48.27699" lon="7.39192">
        <ele>279.9</ele>
        <time>2021-08-04T08:03:50Z</time>
      </trkpt>
      <trkpt lat="48.27695" lon="7.39187">
        <ele>279.9</ele>
        <time>2021-08-04T08:03:52Z</time>
      </trkpt>
      <trkpt lat="48.27694" lon="7.39185">
        <ele>279.9</ele>
        <time>2021-08-04T08:03:54Z</time>
      </trkpt>
      <trkpt lat="48.27692" lon="7.39183">
        <ele>279.9</ele>
        <time>2021-08-04T08:03:56Z</time>
      </trkpt>
      <trkpt lat="48.27692" lon="7.39183">
        <ele>279.9</ele>
        <time>2021-08-04T08:03:57Z</time>
      </trkpt>
      <trkpt lat="48.27695" lon="7.39182">
        <ele>279.8</ele>
        <time>2021-08-04T08:03:59Z</time>
      </trkpt>
      <trkpt lat="48.27697" lon="7.39181">
        <ele>279.8</ele>
        <time>2021-08-04T08:04:01Z</time>
      </trkpt>
      <trkpt lat="48.27698" lon="7.39181">
        <ele>279.8</ele>
        <time>2021-08-04T08:04:02Z</time>
      </trkpt>
      <trkpt lat="48.27699" lon="7.3918">
        <ele>279.8</ele>
        <time>2021-08-04T08:04:03Z</time>
      </trkpt>
      <trkpt lat="48.27701" lon="7.3918">
        <ele>279.8</ele>
        <time>2021-08-04T08:04:04Z</time>
      </trkpt>
      <trkpt lat="48.27706" lon="7.39179">
        <ele>279.8</ele>
        <time>2021-08-04T08:04:06Z</time>
      </trkpt>
      <trkpt lat="48.27709" lon="7.39179">
        <ele>279.8</ele>
        <time>2021-08-04T08:04:08Z</time>
      </trkpt>
      <trkpt lat="48.2771" lon="7.39179">
        <ele>279.7</ele>
        <time>2021-08-04T08:04:09Z</time>
      </trkpt>
      <trkpt lat="48.27711" lon="7.3918">
        <ele>279.7</ele>
        <time>2021-08-04T08:04:11Z</time>
      </trkpt>
      <trkpt lat="48.27712" lon="7.3918">
        <ele>279.7</ele>
        <time>2021-08-04T08:04:13Z</time>
      </trkpt>
      <trkpt lat="48.27712" lon="7.39181">
        <ele>279.7</ele>
        <time>2021-08-04T08:04:15Z</time>
      </trkpt>
      <trkpt lat="48.27718" lon="7.39161">
        <ele>279.7</ele>
        <time>2021-08-04T08:06:27Z</time>
      </trkpt>
      <trkpt lat="48.27717" lon="7.39161">
        <ele>279.7</ele>
        <time>2021-08-04T08:06:28Z</time>
      </trkpt>
      <trkpt lat="48.27716" lon="7.39163">
        <ele>279.6</ele>
        <time>2021-08-04T08:06:29Z</time>
      </trkpt>
      <trkpt lat="48.27715" lon="7.39167">
        <ele>279.6</ele>
        <time>2021-08-04T08:06:31Z</time>
      </trkpt>
      <trkpt lat="48.27714" lon="7.39171">
        <ele>279.6</ele>
        <time>2021-08-04T08:06:33Z</time>
      </trkpt>
      <trkpt lat="48.27714" lon="7.39173">
        <ele>279.6</ele>
        <time>2021-08-04T08:06:34Z</time>
      </trkpt>
      <trkpt lat="48.27714" lon="7.39175">
        <ele>279.6</ele>
        <time>2021-08-04T08:06:35Z</time>
      </trkpt>
      <trkpt lat="48.27714" lon="7.39178">
        <ele>279.6</ele>
        <time>2021-08-04T08:06:37Z</time>
      </trkpt>
      <trkpt lat="48.27714" lon="7.39179">
        <ele>279.6</ele>
        <time>2021-08-04T08:06:38Z</time>
      </trkpt>
      <trkpt lat="48.27714" lon="7.3918">
        <ele>279.6</ele>
        <time>2021-08-04T08:06:39Z</time>
      </trkpt>
      <trkpt lat="48.27714" lon="7.3918">
        <ele>279.6</ele>
        <time>2021-08-04T08:06:41Z</time>
      </trkpt>
      <trkpt lat="48.27714" lon="7.3918">
        <ele>279.6</ele>
        <time>2021-08-04T08:06:42Z</time>
      </trkpt>
      <trkpt lat="48.27714" lon="7.39181">
        <ele>279.6</ele>
        <time>2021-08-04T08:06:43Z</time>
      </trkpt>
      <trkpt lat="48.27714" lon="7.39181">
        <ele>279.6</ele>
        <time>2021-08-04T08:06:45Z</time>
      </trkpt>
      <trkpt lat="48.27714" lon="7.39182">
        <ele>279.6</ele>
        <time>2021-08-04T08:06:46Z</time>
      </trkpt>
      <trkpt lat="48.27714" lon="7.39182">
        <ele>279.6</ele>
        <time>2021-08-04T08:06:48Z</time>
      </trkpt>
      <trkpt lat="48.27714" lon="7.39183">
        <ele>279.6</ele>
        <time>2021-08-04T08:06:50Z</time>
      </trkpt>
      <trkpt lat="48.27714" lon="7.39183">
        <ele>279.6</ele>
        <time>2021-08-04T08:06:52Z</time>
      </trkpt>
      <trkpt lat="48.27714" lon="7.39184">
        <ele>279.6</ele>
        <time>2021-08-04T08:06:53Z</time>
      </trkpt>
      <trkpt lat="48.27714" lon="7.39185">
        <ele>279.6</ele>
        <time>2021-08-04T08:06:55Z</time>
      </trkpt>
      <trkpt lat="48.27714" lon="7.39185">
        <ele>279.6</ele>
        <time>2021-08-04T08:06:56Z</time>
      </trkpt>
      <trkpt lat="48.27714" lon="7.39188">
        <ele>279.5</ele>
        <time>2021-08-04T08:06:58Z</time>
      </trkpt>
      <trkpt lat="48.27714" lon="7.39188">
        <ele>279.5</ele>
        <time>2021-08-04T08:06:59Z</time>
      </trkpt>
      <trkpt lat="48.27714" lon="7.39188">
        <ele>279.5</ele>
        <time>2021-08-04T08:07:01Z</time>
      </trkpt>
      <trkpt lat="48.27715" lon="7.39188">
        <ele>279.5</ele>
        <time>2021-08-04T08:07:03Z</time>
      </trkpt>
      <trkpt lat="48.27716" lon="7.39188">
        <ele>279.5</ele>
        <time>2021-08-04T08:07:04Z</time>
      </trkpt>
      <trkpt lat="48.27716" lon="7.39189">
        <ele>279.5</ele>
        <time>2021-08-04T08:07:06Z</time>
      </trkpt>
      <trkpt lat="48.27716" lon="7.39189">
        <ele>279.5</ele>
        <time>2021-08-04T08:07:07Z</time>
      </trkpt>
      <trkpt lat="48.27716" lon="7.3919">
        <ele>279.5</ele>
        <time>2021-08-04T08:07:09Z</time>
      </trkpt>
      <trkpt lat="48.27716" lon="7.39191">
        <ele>279.5</ele>
        <time>2021-08-04T08:07:11Z</time>
      </trkpt>
      <trkpt lat="48.27716" lon="7.39192">
        <ele>279.5</ele>
        <time>2021-08-04T08:07:12Z</time>
      </trkpt>
      <trkpt lat="48.27715" lon="7.39192">
        <ele>279.5</ele>
        <time>2021-08-04T08:07:13Z</time>
      </trkpt>
      <trkpt lat="48.27714" lon="7.39192">
        <ele>279.5</ele>
        <time>2021-08-04T08:07:15Z</time>
      </trkpt>
      <trkpt lat="48.2771" lon="7.39185">
        <ele>279.5</ele>
        <time>2021-08-04T08:07:17Z</time>
      </trkpt>
      <trkpt lat="48.27711" lon="7.39178">
        <ele>279.4</ele>
        <time>2021-08-04T08:07:18Z</time>
      </trkpt>
      <trkpt lat="48.27711" lon="7.39167">
        <ele>279.4</ele>
        <time>2021-08-04T08:07:20Z</time>
      </trkpt>
      <trkpt lat="48.27711" lon="7.39163">
        <ele>279.4</ele>
        <time>2021-08-04T08:07:22Z</time>
      </trkpt>
      <trkpt lat="48.27712" lon="7.39163">
        <ele>279.4</ele>
        <time>2021-08-04T08:07:23Z</time>
      </trkpt>
      <trkpt lat="48.27711" lon="7.39162">
        <ele>279.4</ele>
        <time>2021-08-04T08:07:24Z</time>
      </trkpt>
      <trkpt lat="48.27712" lon="7.39162">
        <ele>279.4</ele>
        <time>2021-08-04T08:07:25Z</time>
      </trkpt>
      <trkpt lat="48.27711" lon="7.39162">
        <ele>279.4</ele>
        <time>2021-08-04T08:07:27Z</time>
      </trkpt>
      <trkpt lat="48.27711" lon="7.39162">
        <ele>279.4</ele>
        <time>2021-08-04T08:07:28Z</time>
      </trkpt>
      <trkpt lat="48.2771" lon="7.39164">
        <ele>279.4</ele>
        <time>2021-08-04T08:07:29Z</time>
      </trkpt>
      <trkpt lat="48.27709" lon="7.39165">
        <ele>279.4</ele>
        <time>2021-08-04T08:07:31Z</time>
      </trkpt>
      <trkpt lat="48.27709" lon="7.39167">
        <ele>279.4</ele>
        <time>2021-08-04T08:07:32Z</time>
      </trkpt>
      <trkpt lat="48.27709" lon="7.3917">
        <ele>279.3</ele>
        <time>2021-08-04T08:07:34Z</time>
      </trkpt>
      <trkpt lat="48.27709" lon="7.39171">
        <ele>279.3</ele>
        <time>2021-08-04T08:07:36Z</time>
      </trkpt>
      <trkpt lat="48.27709" lon="7.39172">
        <ele>279.3</ele>
        <time>2021-08-04T08:07:37Z</time>
      </trkpt>
      <trkpt lat="48.27709" lon="7.39172">
        <ele>279.3</ele>
        <time>2021-08-04T08:07:38Z</time>
      </trkpt>
      <trkpt lat="48.27709" lon="7.39177">
        <ele>279.3</ele>
        <time>2021-08-04T08:07:40Z</time>
      </trkpt>
      <trkpt lat="48.27709" lon="7.3918">
        <ele>279.3</ele>
        <time>2021-08-04T08:07:42Z</time>
      </trkpt>
      <trkpt lat="48.27709" lon="7.39181">
        <ele>279.3</ele>
        <time>2021-08-04T08:07:43Z</time>
      </trkpt>
      <trkpt lat="48.27711" lon="7.39188">
        <ele>279.3</ele>
        <time>2021-08-04T08:07:45Z</time>
      </trkpt>
      <trkpt lat="48.27712" lon="7.39194">
        <ele>279.3</ele>
        <time>2021-08-04T08:07:47Z</time>
      </trkpt>
      <trkpt lat="48.27713" lon="7.39196">
        <ele>279.2</ele>
        <time>2021-08-04T08:07:48Z</time>
      </trkpt>
      <trkpt lat="48.27714" lon="7.39197">
        <ele>279.2</ele>
        <time>2021-08-04T08:07:50Z</time>
      </trkpt>
      <trkpt lat="48.27714" lon="7.39198">
        <ele>279.2</ele>
        <time>2021-08-04T08:07:52Z</time>
      </trkpt>
      <trkpt lat="48.27714" lon="7.39199">
        <ele>279.2</ele>
        <time>2021-08-04T08:07:53Z</time>
      </trkpt>
      <trkpt lat="48.27714" lon="7.39199">
        <ele>279.2</ele>
        <time>2021-08-04T08:07:54Z</time>
      </trkpt>
      <trkpt lat="48.27715" lon="7.39199">
        <ele>279.2</ele>
        <time>2021-08-04T08:07:56Z</time>
      </trkpt>
      <trkpt lat="48.27715" lon="7.39198">
        <ele>279.2</ele>
        <time>2021-08-04T08:07:57Z</time>
      </trkpt>
      <trkpt lat="48.27714" lon="7.39198">
        <ele>279.2</ele>
        <time>2021-08-04T08:07:58Z</time>
      </trkpt>
      <trkpt lat="48.27714" lon="7.39198">
        <ele>279.2</ele>
        <time>2021-08-04T08:07:59Z</time>
      </trkpt>
      <trkpt lat="48.27714" lon="7.39198">
        <ele>279.2</ele>
        <time>2021-08-04T08:08:01Z</time>
      </trkpt>
      <trkpt lat="48.27715" lon="7.39195">
        <ele>279.2</ele>
        <time>2021-08-04T08:08:02Z</time>
      </trkpt>
      <trkpt lat="48.27715" lon="7.39192">
        <ele>279.2</ele>
        <time>2021-08-04T08:08:04Z</time>
      </trkpt>
      <trkpt lat="48.27715" lon="7.39188">
        <ele>279.2</ele>
        <time>2021-08-04T08:08:05Z</time>
      </trkpt>
      <trkpt lat="48.27715" lon="7.39184">
        <ele>279.2</ele>
        <time>2021-08-04T08:08:07Z</time>
      </trkpt>
      <trkpt lat="48.27714" lon="7.39184">
        <ele>279.2</ele>
        <time>2021-08-04T08:08:08Z</time>
      </trkpt>
      <trkpt lat="48.27713" lon="7.39183">
        <ele>279.2</ele>
        <time>2021-08-04T08:08:10Z</time>
      </trkpt>
      <trkpt lat="48.27712" lon="7.39184">
        <ele>279.1</ele>
        <time>2021-08-04T08:08:12Z</time>
      </trkpt>
      <trkpt lat="48.27711" lon="7.39186">
        <ele>279.1</ele>
        <time>2021-08-04T08:08:13Z</time>
      </trkpt>
      <trkpt lat="48.2771" lon="7.39187">
        <ele>279.1</ele>
        <time>2021-08-04T08:08:14Z</time>
      </trkpt>
      <trkpt lat="48.27709" lon="7.39189">
        <ele>279.1</ele>
        <time>2021-08-04T08:08:16Z</time>
      </trkpt>
      <trkpt lat="48.27709" lon="7.39191">
        <ele>279.1</ele>
        <time>2021-08-04T08:08:18Z</time>
      </trkpt>
      <trkpt lat="48.27709" lon="7.39191">
        <ele>279.1</ele>
        <time>2021-08-04T08:08:19Z</time>
      </trkpt>
      <trkpt lat="48.2771" lon="7.39191">
        <ele>279.1</ele>
        <time>2021-08-04T08:08:21Z</time>
      </trkpt>
      <trkpt lat="48.2771" lon="7.39191">
        <ele>279.1</ele>
        <time>2021-08-04T08:08:22Z</time>
      </trkpt>
      <trkpt lat="48.2771" lon="7.39191">
        <ele>279.1</ele>
        <time>2021-08-04T08:08:24Z</time>
      </trkpt>
      <trkpt lat="48.2771" lon="7.39191">
        <ele>279.1</ele>
        <time>2021-08-04T08:08:26Z</time>
      </trkpt>
      <trkpt lat="48.2771" lon="7.39191">
        <ele>279.1</ele>
        <time>2021-08-04T08:08:27Z</time>
      </trkpt>
      <trkpt lat="48.27713" lon="7.39187">
        <ele>279.1</ele>
        <time>2021-08-04T08:08:29Z</time>
      </trkpt>
      <trkpt lat="48.27714" lon="7.39185">
        <ele>279.1</ele>
        <time>2021-08-04T08:08:31Z</time>
      </trkpt>
      <trkpt lat="48.27713" lon="7.39181">
        <ele>279.1</ele>
        <time>2021-08-04T08:08:33Z</time>
      </trkpt>
      <trkpt lat="48.27712" lon="7.39179">
        <ele>279.1</ele>
        <time>2021-08-04T08:08:35Z</time>
      </trkpt>
      <trkpt lat="48.27711" lon="7.39178">
        <ele>279</ele>
        <time>2021-08-04T08:08:36Z</time>
      </trkpt>
      <trkpt lat="48.2771" lon="7.39178">
        <ele>279</ele>
        <time>2021-08-04T08:08:37Z</time>
      </trkpt>
      <trkpt lat="48.27709" lon="7.39179">
        <ele>279</ele>
        <time>2021-08-04T08:08:38Z</time>
      </trkpt>
      <trkpt lat="48.27709" lon="7.3918">
        <ele>279</ele>
        <time>2021-08-04T08:08:40Z</time>
      </trkpt>
      <trkpt lat="48.27709" lon="7.3918">
        <ele>279</ele>
        <time>2021-08-04T08:08:41Z</time>
      </trkpt>
      <trkpt lat="48.27709" lon="7.39181">
        <ele>279</ele>
        <time>2021-08-04T08:08:43Z</time>
      </trkpt>
      <trkpt lat="48.27709" lon="7.39182">
        <ele>279</ele>
        <time>2021-08-04T08:08:44Z</time>
      </trkpt>
      <trkpt lat="48.27709" lon="7.39182">
        <ele>279</ele>
        <time>2021-08-04T08:08:46Z</time>
      </trkpt>
      <trkpt lat="48.27709" lon="7.39183">
        <ele>279</ele>
        <time>2021-08-04T08:08:47Z</time>
      </trkpt>
      <trkpt lat="48.27708" lon="7.39183">
        <ele>279</ele>
        <time>2021-08-04T08:08:49Z</time>
      </trkpt>
      <trkpt lat="48.27708" lon="7.39184">
        <ele>279</ele>
        <time>2021-08-04T08:08:51Z</time>
      </trkpt>
      <trkpt lat="48.27708" lon="7.39185">
        <ele>279</ele>
        <time>2021-08-04T08:08:52Z</time>
      </trkpt>
      <trkpt lat="48.27708" lon="7.39185">
        <ele>279</ele>
        <time>2021-08-04T08:08:53Z</time>
      </trkpt>
      <trkpt lat="48.27708" lon="7.39186">
        <ele>279</ele>
        <time>2021-08-04T08:08:55Z</time>
      </trkpt>
      <trkpt lat="48.27708" lon="7.39187">
        <ele>279</ele>
        <time>2021-08-04T08:08:57Z</time>
      </trkpt>
      <trkpt lat="48.27707" lon="7.39187">
        <ele>279</ele>
        <time>2021-08-04T08:08:58Z</time>
      </trkpt>
      <trkpt lat="48.27707" lon="7.39188">
        <ele>279</ele>
        <time>2021-08-04T08:08:59Z</time>
      </trkpt>
      <trkpt lat="48.27707" lon="7.3919">
        <ele>279</ele>
        <time>2021-08-04T08:09:01Z</time>
      </trkpt>
      <trkpt lat="48.27706" lon="7.39191">
        <ele>279</ele>
        <time>2021-08-04T08:09:03Z</time>
      </trkpt>
      <trkpt lat="48.27707" lon="7.39191">
        <ele>279</ele>
        <time>2021-08-04T08:09:04Z</time>
      </trkpt>
      <trkpt lat="48.27708" lon="7.39191">
        <ele>279</ele>
        <time>2021-08-04T08:09:06Z</time>
      </trkpt>
      <trkpt lat="48.2771" lon="7.39192">
        <ele>279</ele>
        <time>2021-08-04T08:09:08Z</time>
      </trkpt>
      <trkpt lat="48.27712" lon="7.39193">
        <ele>279</ele>
        <time>2021-08-04T08:09:09Z</time>
      </trkpt>
      <trkpt lat="48.27713" lon="7.39195">
        <ele>279</ele>
        <time>2021-08-04T08:09:11Z</time>
      </trkpt>
      <trkpt lat="48.27714" lon="7.39195">
        <ele>278.9</ele>
        <time>2021-08-04T08:09:13Z</time>
      </trkpt>
      <trkpt lat="48.27715" lon="7.39195">
        <ele>278.9</ele>
        <time>2021-08-04T08:09:15Z</time>
      </trkpt>
      <trkpt lat="48.27716" lon="7.39192">
        <ele>278.9</ele>
        <time>2021-08-04T08:09:17Z</time>
      </trkpt>
      <trkpt lat="48.27715" lon="7.39189">
        <ele>278.9</ele>
        <time>2021-08-04T08:09:19Z</time>
      </trkpt>
      <trkpt lat="48.27714" lon="7.39187">
        <ele>278.9</ele>
        <time>2021-08-04T08:09:21Z</time>
      </trkpt>
      <trkpt lat="48.27714" lon="7.39185">
        <ele>278.9</ele>
        <time>2021-08-04T08:09:22Z</time>
      </trkpt>
      <trkpt lat="48.27714" lon="7.39185">
        <ele>278.9</ele>
        <time>2021-08-04T08:09:23Z</time>
      </trkpt>
      <trkpt lat="48.27713" lon="7.39185">
        <ele>278.9</ele>
        <time>2021-08-04T08:09:25Z</time>
      </trkpt>
      <trkpt lat="48.27714" lon="7.39187">
        <ele>278.9</ele>
        <time>2021-08-04T08:09:27Z</time>
      </trkpt>
      <trkpt lat="48.27715" lon="7.39188">
        <ele>278.9</ele>
        <time>2021-08-04T08:09:28Z</time>
      </trkpt>
      <trkpt lat="48.27716" lon="7.39188">
        <ele>278.9</ele>
        <time>2021-08-04T08:09:30Z</time>
      </trkpt>
      <trkpt lat="48.27716" lon="7.39188">
        <ele>278.9</ele>
        <time>2021-08-04T08:09:31Z</time>
      </trkpt>
      <trkpt lat="48.27716" lon="7.39189">
        <ele>278.9</ele>
        <time>2021-08-04T08:09:32Z</time>
      </trkpt>
      <trkpt lat="48.27714" lon="7.39191">
        <ele>278.9</ele>
        <time>2021-08-04T08:09:34Z</time>
      </trkpt>
      <trkpt lat="48.27714" lon="7.39192">
        <ele>278.9</ele>
        <time>2021-08-04T08:09:35Z</time>
      </trkpt>
      <trkpt lat="48.27713" lon="7.39193">
        <ele>278.8</ele>
        <time>2021-08-04T08:09:36Z</time>
      </trkpt>
      <trkpt lat="48.27712" lon="7.39196">
        <ele>278.8</ele>
        <time>2021-08-04T08:09:38Z</time>
      </trkpt>
      <trkpt lat="48.27712" lon="7.39197">
        <ele>278.8</ele>
        <time>2021-08-04T08:09:39Z</time>
      </trkpt>
      <trkpt lat="48.27713" lon="7.39199">
        <ele>278.8</ele>
        <time>2021-08-04T08:09:41Z</time>
      </trkpt>
      <trkpt lat="48.27713" lon="7.392">
        <ele>278.8</ele>
        <time>2021-08-04T08:09:42Z</time>
      </trkpt>
      <trkpt lat="48.27713" lon="7.392">
        <ele>278.8</ele>
        <time>2021-08-04T08:09:43Z</time>
      </trkpt>
      <trkpt lat="48.27712" lon="7.392">
        <ele>278.8</ele>
        <time>2021-08-04T08:09:45Z</time>
      </trkpt>
      <trkpt lat="48.27712" lon="7.392">
        <ele>278.8</ele>
        <time>2021-08-04T08:09:46Z</time>
      </trkpt>
      <trkpt lat="48.27709" lon="7.39195">
        <ele>278.8</ele>
        <time>2021-08-04T08:09:48Z</time>
      </trkpt>
      <trkpt lat="48.27708" lon="7.39193">
        <ele>278.8</ele>
        <time>2021-08-04T08:09:49Z</time>
      </trkpt>
      <trkpt lat="48.27706" lon="7.39189">
        <ele>278.8</ele>
        <time>2021-08-04T08:09:51Z</time>
      </trkpt>
      <trkpt lat="48.27706" lon="7.39186">
        <ele>278.8</ele>
        <time>2021-08-04T08:09:53Z</time>
      </trkpt>
      <trkpt lat="48.27706" lon="7.39185">
        <ele>278.7</ele>
        <time>2021-08-04T08:09:54Z</time>
      </trkpt>
      <trkpt lat="48.27706" lon="7.39184">
        <ele>278.7</ele>
        <time>2021-08-04T08:09:56Z</time>
      </trkpt>
      <trkpt lat="48.27706" lon="7.39184">
        <ele>278.7</ele>
        <time>2021-08-04T08:09:57Z</time>
      </trkpt>
      <trkpt lat="48.27706" lon="7.39183">
        <ele>278.7</ele>
        <time>2021-08-04T08:09:59Z</time>
      </trkpt>
      <trkpt lat="48.27706" lon="7.39183">
        <ele>278.7</ele>
        <time>2021-08-04T08:10:00Z</time>
      </trkpt>
      <trkpt lat="48.27706" lon="7.39183">
        <ele>278.7</ele>
        <time>2021-08-04T08:10:02Z</time>
      </trkpt>
      <trkpt lat="48.27706" lon="7.39183">
        <ele>278.7</ele>
        <time>2021-08-04T08:10:03Z</time>
      </trkpt>
      <trkpt lat="48.27706" lon="7.39183">
        <ele>278.7</ele>
        <time>2021-08-04T08:10:05Z</time>
      </trkpt>
      <trkpt lat="48.27706" lon="7.39183">
        <ele>278.7</ele>
        <time>2021-08-04T08:10:06Z</time>
      </trkpt>
      <trkpt lat="48.27706" lon="7.39183">
        <ele>278.7</ele>
        <time>2021-08-04T08:10:08Z</time>
      </trkpt>
      <trkpt lat="48.27706" lon="7.39183">
        <ele>278.7</ele>
        <time>2021-08-04T08:10:10Z</time>
      </trkpt>
      <trkpt lat="48.27706" lon="7.39183">
        <ele>278.7</ele>
        <time>2021-08-04T08:10:11Z</time>
      </trkpt>
      <trkpt lat="48.27711" lon="7.39185">
        <ele>278.7</ele>
        <time>2021-08-04T08:10:13Z</time>
      </trkpt>
      <trkpt lat="48.27713" lon="7.39184">
        <ele>278.7</ele>
        <time>2021-08-04T08:10:14Z</time>
      </trkpt>
      <trkpt lat="48.27713" lon="7.39183">
        <ele>278.7</ele>
        <time>2021-08-04T08:10:15Z</time>
      </trkpt>
      <trkpt lat="48.27714" lon="7.39185">
        <ele>278.7</ele>
        <time>2021-08-04T08:10:17Z</time>
      </trkpt>
      <trkpt lat="48.27715" lon="7.39186">
        <ele>278.7</ele>
        <time>2021-08-04T08:10:18Z</time>
      </trkpt>
      <trkpt lat="48.27715" lon="7.39187">
        <ele>278.7</ele>
        <time>2021-08-04T08:10:20Z</time>
      </trkpt>
      <trkpt lat="48.27715" lon="7.39187">
        <ele>278.7</ele>
        <time>2021-08-04T08:10:22Z</time>
      </trkpt>
      <trkpt lat="48.27715" lon="7.39187">
        <ele>278.7</ele>
        <time>2021-08-04T08:10:24Z</time>
      </trkpt>
      <trkpt lat="48.27714" lon="7.39187">
        <ele>278.7</ele>
        <time>2021-08-04T08:10:25Z</time>
      </trkpt>
      <trkpt lat="48.27714" lon="7.39187">
        <ele>278.7</ele>
        <time>2021-08-04T08:10:26Z</time>
      </trkpt>
      <trkpt lat="48.27713" lon="7.39188">
        <ele>278.7</ele>
        <time>2021-08-04T08:10:27Z</time>
      </trkpt>
      <trkpt lat="48.27712" lon="7.39191">
        <ele>278.7</ele>
        <time>2021-08-04T08:10:29Z</time>
      </trkpt>
      <trkpt lat="48.27712" lon="7.39192">
        <ele>278.7</ele>
        <time>2021-08-04T08:10:31Z</time>
      </trkpt>
      <trkpt lat="48.27712" lon="7.39192">
        <ele>278.7</ele>
        <time>2021-08-04T08:10:32Z</time>
      </trkpt>
      <trkpt lat="48.2771" lon="7.39194">
        <ele>278.6</ele>
        <time>2021-08-04T08:10:34Z</time>
      </trkpt>
      <trkpt lat="48.2771" lon="7.39195">
        <ele>278.6</ele>
        <time>2021-08-04T08:10:35Z</time>
      </trkpt>
      <trkpt lat="48.2771" lon="7.39196">
        <ele>278.6</ele>
        <time>2021-08-04T08:10:37Z</time>
      </trkpt>
      <trkpt lat="48.2771" lon="7.39195">
        <ele>278.6</ele>
        <time>2021-08-04T08:10:38Z</time>
      </trkpt>
      <trkpt lat="48.2771" lon="7.39195">
        <ele>278.6</ele>
        <time>2021-08-04T08:10:39Z</time>
      </trkpt>
      <trkpt lat="48.27711" lon="7.39194">
        <ele>278.6</ele>
        <time>2021-08-04T08:10:41Z</time>
      </trkpt>
      <trkpt lat="48.27712" lon="7.39193">
        <ele>278.6</ele>
        <time>2021-08-04T08:10:42Z</time>
      </trkpt>
      <trkpt lat="48.27712" lon="7.39192">
        <ele>278.6</ele>
        <time>2021-08-04T08:10:44Z</time>
      </trkpt>
      <trkpt lat="48.27713" lon="7.39191">
        <ele>278.6</ele>
        <time>2021-08-04T08:10:45Z</time>
      </trkpt>
      <trkpt lat="48.27713" lon="7.39192">
        <ele>278.6</ele>
        <time>2021-08-04T08:10:47Z</time>
      </trkpt>
      <trkpt lat="48.27713" lon="7.39191">
        <ele>278.6</ele>
        <time>2021-08-04T08:10:48Z</time>
      </trkpt>
      <trkpt lat="48.27713" lon="7.3919">
        <ele>278.6</ele>
        <time>2021-08-04T08:10:50Z</time>
      </trkpt>
      <trkpt lat="48.27714" lon="7.39188">
        <ele>278.6</ele>
        <time>2021-08-04T08:10:51Z</time>
      </trkpt>
      <trkpt lat="48.27714" lon="7.39188">
        <ele>278.6</ele>
        <time>2021-08-04T08:10:52Z</time>
      </trkpt>
      <trkpt lat="48.27714" lon="7.39187">
        <ele>278.6</ele>
        <time>2021-08-04T08:10:53Z</time>
      </trkpt>
      <trkpt lat="48.27714" lon="7.39186">
        <ele>278.6</ele>
        <time>2021-08-04T08:10:55Z</time>
      </trkpt>
      <trkpt lat="48.27715" lon="7.39185">
        <ele>278.6</ele>
        <time>2021-08-04T08:10:56Z</time>
      </trkpt>
      <trkpt lat="48.27715" lon="7.39185">
        <ele>278.6</ele>
        <time>2021-08-04T08:10:58Z</time>
      </trkpt>
      <trkpt lat="48.27716" lon="7.39186">
        <ele>278.6</ele>
        <time>2021-08-04T08:10:59Z</time>
      </trkpt>
      <trkpt lat="48.27716" lon="7.39187">
        <ele>278.6</ele>
        <time>2021-08-04T08:11:00Z</time>
      </trkpt>
      <trkpt lat="48.27717" lon="7.39187">
        <ele>278.6</ele>
        <time>2021-08-04T08:11:02Z</time>
      </trkpt>
      <trkpt lat="48.27717" lon="7.39188">
        <ele>278.6</ele>
        <time>2021-08-04T08:11:03Z</time>
      </trkpt>
      <trkpt lat="48.27717" lon="7.39188">
        <ele>278.6</ele>
        <time>2021-08-04T08:11:05Z</time>
      </trkpt>
      <trkpt lat="48.27717" lon="7.39188">
        <ele>278.6</ele>
        <time>2021-08-04T08:11:07Z</time>
      </trkpt>
      <trkpt lat="48.27717" lon="7.39188">
        <ele>278.6</ele>
        <time>2021-08-04T08:11:08Z</time>
      </trkpt>
      <trkpt lat="48.27717" lon="7.39188">
        <ele>278.6</ele>
        <time>2021-08-04T08:11:09Z</time>
      </trkpt>
      <trkpt lat="48.27717" lon="7.39188">
        <ele>278.6</ele>
        <time>2021-08-04T08:11:10Z</time>
      </trkpt>
      <trkpt lat="48.27717" lon="7.39188">
        <ele>278.6</ele>
        <time>2021-08-04T08:11:12Z</time>
      </trkpt>
      <trkpt lat="48.27717" lon="7.39188">
        <ele>278.6</ele>
        <time>2021-08-04T08:11:13Z</time>
      </trkpt>
      <trkpt lat="48.27717" lon="7.39188">
        <ele>278.6</ele>
        <time>2021-08-04T08:11:15Z</time>
      </trkpt>
      <trkpt lat="48.27717" lon="7.39188">
        <ele>278.6</ele>
        <time>2021-08-04T08:11:16Z</time>
      </trkpt>
      <trkpt lat="48.27717" lon="7.39188">
        <ele>278.6</ele>
        <time>2021-08-04T08:11:17Z</time>
      </trkpt>
      <trkpt lat="48.27717" lon="7.39188">
        <ele>278.6</ele>
        <time>2021-08-04T08:11:19Z</time>
      </trkpt>
      <trkpt lat="48.27717" lon="7.39188">
        <ele>278.6</ele>
        <time>2021-08-04T08:11:21Z</time>
      </trkpt>
      <trkpt lat="48.27717" lon="7.39188">
        <ele>278.6</ele>
        <time>2021-08-04T08:11:22Z</time>
      </trkpt>
      <trkpt lat="48.27717" lon="7.39188">
        <ele>278.6</ele>
        <time>2021-08-04T08:11:23Z</time>
      </trkpt>
      <trkpt lat="48.27717" lon="7.39188">
        <ele>278.6</ele>
        <time>2021-08-04T08:11:25Z</time>
      </trkpt>
      <trkpt lat="48.27717" lon="7.39188">
        <ele>278.6</ele>
        <time>2021-08-04T08:11:26Z</time>
      </trkpt>
      <trkpt lat="48.27717" lon="7.39188">
        <ele>278.6</ele>
        <time>2021-08-04T08:11:28Z</time>
      </trkpt>
      <trkpt lat="48.27717" lon="7.39188">
        <ele>278.6</ele>
        <time>2021-08-04T08:11:29Z</time>
      </trkpt>
      <trkpt lat="48.27717" lon="7.39188">
        <ele>278.6</ele>
        <time>2021-08-04T08:11:31Z</time>
      </trkpt>
      <trkpt lat="48.27717" lon="7.39188">
        <ele>278.6</ele>
        <time>2021-08-04T08:11:32Z</time>
      </trkpt>
      <trkpt lat="48.27714" lon="7.39192">
        <ele>278.6</ele>
        <time>2021-08-04T08:11:34Z</time>
      </trkpt>
      <trkpt lat="48.27713" lon="7.39192">
        <ele>278.5</ele>
        <time>2021-08-04T08:11:36Z</time>
      </trkpt>
      <trkpt lat="48.27713" lon="7.39191">
        <ele>278.5</ele>
        <time>2021-08-04T08:11:37Z</time>
      </trkpt>
      <trkpt lat="48.27713" lon="7.39189">
        <ele>278.5</ele>
        <time>2021-08-04T08:11:38Z</time>
      </trkpt>
      <trkpt lat="48.27714" lon="7.39186">
        <ele>278.5</ele>
        <time>2021-08-04T08:11:40Z</time>
      </trkpt>
      <trkpt lat="48.27716" lon="7.39182">
        <ele>278.5</ele>
        <time>2021-08-04T08:11:42Z</time>
      </trkpt>
      <trkpt lat="48.27717" lon="7.39181">
        <ele>278.5</ele>
        <time>2021-08-04T08:11:43Z</time>
      </trkpt>
      <trkpt lat="48.27718" lon="7.39181">
        <ele>278.5</ele>
        <time>2021-08-04T08:11:44Z</time>
      </trkpt>
      <trkpt lat="48.27718" lon="7.3918">
        <ele>278.5</ele>
        <time>2021-08-04T08:11:46Z</time>
      </trkpt>
      <trkpt lat="48.27719" lon="7.3918">
        <ele>278.5</ele>
        <time>2021-08-04T08:11:47Z</time>
      </trkpt>
      <trkpt lat="48.2772" lon="7.3918">
        <ele>278.5</ele>
        <time>2021-08-04T08:11:49Z</time>
      </trkpt>
      <trkpt lat="48.27721" lon="7.3918">
        <ele>278.5</ele>
        <time>2021-08-04T08:11:50Z</time>
      </trkpt>
      <trkpt lat="48.27722" lon="7.39181">
        <ele>278.5</ele>
        <time>2021-08-04T08:11:52Z</time>
      </trkpt>
      <trkpt lat="48.27723" lon="7.39181">
        <ele>278.5</ele>
        <time>2021-08-04T08:11:54Z</time>
      </trkpt>
      <trkpt lat="48.27723" lon="7.39181">
        <ele>278.5</ele>
        <time>2021-08-04T08:11:56Z</time>
      </trkpt>
      <trkpt lat="48.27723" lon="7.39181">
        <ele>278.5</ele>
        <time>2021-08-04T08:11:57Z</time>
      </trkpt>
      <trkpt lat="48.27724" lon="7.39181">
        <ele>278.5</ele>
        <time>2021-08-04T08:11:58Z</time>
      </trkpt>
      <trkpt lat="48.27725" lon="7.39179">
        <ele>278.5</ele>
        <time>2021-08-04T08:12:00Z</time>
      </trkpt>
      <trkpt lat="48.27726" lon="7.39178">
        <ele>278.5</ele>
        <time>2021-08-04T08:12:01Z</time>
      </trkpt>
      <trkpt lat="48.27725" lon="7.39179">
        <ele>278.4</ele>
        <time>2021-08-04T08:12:03Z</time>
      </trkpt>
      <trkpt lat="48.27724" lon="7.39181">
        <ele>278.4</ele>
        <time>2021-08-04T08:12:04Z</time>
      </trkpt>
      <trkpt lat="48.27722" lon="7.39183">
        <ele>278.4</ele>
        <time>2021-08-04T08:12:06Z</time>
      </trkpt>
      <trkpt lat="48.27722" lon="7.39184">
        <ele>278.4</ele>
        <time>2021-08-04T08:12:08Z</time>
      </trkpt>
      <trkpt lat="48.27722" lon="7.39184">
        <ele>278.4</ele>
        <time>2021-08-04T08:12:09Z</time>
      </trkpt>
      <trkpt lat="48.27721" lon="7.39184">
        <ele>278.4</ele>
        <time>2021-08-04T08:12:11Z</time>
      </trkpt>
      <trkpt lat="48.27721" lon="7.39185">
        <ele>278.4</ele>
        <time>2021-08-04T08:12:12Z</time>
      </trkpt>
      <trkpt lat="48.27721" lon="7.39185">
        <ele>278.4</ele>
        <time>2021-08-04T08:12:13Z</time>
      </trkpt>
      <trkpt lat="48.27721" lon="7.39185">
        <ele>278.4</ele>
        <time>2021-08-04T08:12:14Z</time>
      </trkpt>
      <trkpt lat="48.27721" lon="7.39186">
        <ele>278.4</ele>
        <time>2021-08-04T08:12:16Z</time>
      </trkpt>
      <trkpt lat="48.27721" lon="7.39186">
        <ele>278.4</ele>
        <time>2021-08-04T08:12:17Z</time>
      </trkpt>
      <trkpt lat="48.2772" lon="7.39186">
        <ele>278.4</ele>
        <time>2021-08-04T08:12:18Z</time>
      </trkpt>
      <trkpt lat="48.2772" lon="7.39187">
        <ele>278.4</ele>
        <time>2021-08-04T08:12:19Z</time>
      </trkpt>
      <trkpt lat="48.2772" lon="7.39187">
        <ele>278.4</ele>
        <time>2021-08-04T08:12:21Z</time>
      </trkpt>
      <trkpt lat="48.2772" lon="7.39187">
        <ele>278.4</ele>
        <time>2021-08-04T08:12:22Z</time>
      </trkpt>
      <trkpt lat="48.2772" lon="7.39188">
        <ele>278.4</ele>
        <time>2021-08-04T08:12:23Z</time>
      </trkpt>
      <trkpt lat="48.2772" lon="7.39188">
        <ele>278.4</ele>
        <time>2021-08-04T08:12:25Z</time>
      </trkpt>
      <trkpt lat="48.2772" lon="7.39188">
        <ele>278.4</ele>
        <time>2021-08-04T08:12:27Z</time>
      </trkpt>
      <trkpt lat="48.27719" lon="7.39188">
        <ele>278.4</ele>
        <time>2021-08-04T08:12:29Z</time>
      </trkpt>
      <trkpt lat="48.27719" lon="7.39189">
        <ele>278.4</ele>
        <time>2021-08-04T08:12:30Z</time>
      </trkpt>
      <trkpt lat="48.27719" lon="7.39189">
        <ele>278.4</ele>
        <time>2021-08-04T08:12:31Z</time>
      </trkpt>
      <trkpt lat="48.27719" lon="7.39189">
        <ele>278.4</ele>
        <time>2021-08-04T08:12:32Z</time>
      </trkpt>
      <trkpt lat="48.27719" lon="7.3919">
        <ele>278.4</ele>
        <time>2021-08-04T08:12:34Z</time>
      </trkpt>
      <trkpt lat="48.27719" lon="7.3919">
        <ele>278.4</ele>
        <time>2021-08-04T08:12:36Z</time>
      </trkpt>
      <trkpt lat="48.27718" lon="7.3919">
        <ele>278.4</ele>
        <time>2021-08-04T08:12:37Z</time>
      </trkpt>
      <trkpt lat="48.27718" lon="7.39192">
        <ele>278.4</ele>
        <time>2021-08-04T08:12:38Z</time>
      </trkpt>
      <trkpt lat="48.27717" lon="7.39193">
        <ele>278.4</ele>
        <time>2021-08-04T08:12:40Z</time>
      </trkpt>
      <trkpt lat="48.27714" lon="7.39193">
        <ele>278.4</ele>
        <time>2021-08-04T08:12:42Z</time>
      </trkpt>
      <trkpt lat="48.27712" lon="7.39193">
        <ele>278.4</ele>
        <time>2021-08-04T08:12:43Z</time>
      </trkpt>
      <trkpt lat="48.27711" lon="7.39192">
        <ele>278.4</ele>
        <time>2021-08-04T08:12:45Z</time>
      </trkpt>
      <trkpt lat="48.27711" lon="7.39192">
        <ele>278.3</ele>
        <time>2021-08-04T08:12:46Z</time>
      </trkpt>
      <trkpt lat="48.27712" lon="7.3919">
        <ele>278.3</ele>
        <time>2021-08-04T08:12:48Z</time>
      </trkpt>
      <trkpt lat="48.27713" lon="7.3919">
        <ele>278.3</ele>
        <time>2021-08-04T08:12:49Z</time>
      </trkpt>
      <trkpt lat="48.27713" lon="7.39189">
        <ele>278.3</ele>
        <time>2021-08-04T08:12:50Z</time>
      </trkpt>
      <trkpt lat="48.27715" lon="7.39187">
        <ele>278.3</ele>
        <time>2021-08-04T08:12:52Z</time>
      </trkpt>
      <trkpt lat="48.27716" lon="7.39187">
        <ele>278.3</ele>
        <time>2021-08-04T08:12:54Z</time>
      </trkpt>
      <trkpt lat="48.27716" lon="7.39187">
        <ele>278.3</ele>
        <time>2021-08-04T08:12:55Z</time>
      </trkpt>
      <trkpt lat="48.27717" lon="7.39188">
        <ele>278.3</ele>
        <time>2021-08-04T08:12:57Z</time>
      </trkpt>
      <trkpt lat="48.27717" lon="7.39185">
        <ele>278.3</ele>
        <time>2021-08-04T08:12:58Z</time>
      </trkpt>
      <trkpt lat="48.27718" lon="7.3918">
        <ele>278.3</ele>
        <time>2021-08-04T08:13:00Z</time>
      </trkpt>
      <trkpt lat="48.27719" lon="7.39177">
        <ele>278.3</ele>
        <time>2021-08-04T08:13:01Z</time>
      </trkpt>
      <trkpt lat="48.27719" lon="7.39177">
        <ele>278.3</ele>
        <time>2021-08-04T08:13:03Z</time>
      </trkpt>
      <trkpt lat="48.27719" lon="7.39178">
        <ele>278.3</ele>
        <time>2021-08-04T08:13:04Z</time>
      </trkpt>
      <trkpt lat="48.2772" lon="7.39179">
        <ele>278.3</ele>
        <time>2021-08-04T08:13:05Z</time>
      </trkpt>
      <trkpt lat="48.27722" lon="7.39181">
        <ele>278.2</ele>
        <time>2021-08-04T08:13:07Z</time>
      </trkpt>
      <trkpt lat="48.27722" lon="7.39181">
        <ele>278.2</ele>
        <time>2021-08-04T08:13:08Z</time>
      </trkpt>
      <trkpt lat="48.27722" lon="7.39182">
        <ele>278.2</ele>
        <time>2021-08-04T08:13:09Z</time>
      </trkpt>
      <trkpt lat="48.27722" lon="7.39183">
        <ele>278.2</ele>
        <time>2021-08-04T08:13:11Z</time>
      </trkpt>
      <trkpt lat="48.27722" lon="7.39184">
        <ele>278.2</ele>
        <time>2021-08-04T08:13:13Z</time>
      </trkpt>
      <trkpt lat="48.27722" lon="7.39184">
        <ele>278.2</ele>
        <time>2021-08-04T08:13:14Z</time>
      </trkpt>
      <trkpt lat="48.27722" lon="7.39185">
        <ele>278.2</ele>
        <time>2021-08-04T08:13:16Z</time>
      </trkpt>
      <trkpt lat="48.27722" lon="7.39185">
        <ele>278.2</ele>
        <time>2021-08-04T08:13:17Z</time>
      </trkpt>
      <trkpt lat="48.27723" lon="7.39188">
        <ele>278.2</ele>
        <time>2021-08-04T08:13:19Z</time>
      </trkpt>
      <trkpt lat="48.27724" lon="7.39189">
        <ele>278.2</ele>
        <time>2021-08-04T08:13:20Z</time>
      </trkpt>
      <trkpt lat="48.27725" lon="7.3919">
        <ele>278.2</ele>
        <time>2021-08-04T08:13:22Z</time>
      </trkpt>
      <trkpt lat="48.27725" lon="7.3919">
        <ele>278.2</ele>
        <time>2021-08-04T08:13:23Z</time>
      </trkpt>
      <trkpt lat="48.27725" lon="7.3919">
        <ele>278.2</ele>
        <time>2021-08-04T08:13:25Z</time>
      </trkpt>
      <trkpt lat="48.27725" lon="7.3919">
        <ele>278.2</ele>
        <time>2021-08-04T08:13:26Z</time>
      </trkpt>
      <trkpt lat="48.27723" lon="7.39193">
        <ele>278.2</ele>
        <time>2021-08-04T08:13:27Z</time>
      </trkpt>
      <trkpt lat="48.2772" lon="7.39196">
        <ele>278.2</ele>
        <time>2021-08-04T08:13:29Z</time>
      </trkpt>
      <trkpt lat="48.27719" lon="7.39197">
        <ele>278.2</ele>
        <time>2021-08-04T08:13:30Z</time>
      </trkpt>
      <trkpt lat="48.27719" lon="7.39196">
        <ele>278.2</ele>
        <time>2021-08-04T08:13:32Z</time>
      </trkpt>
      <trkpt lat="48.27719" lon="7.39196">
        <ele>278.2</ele>
        <time>2021-08-04T08:13:33Z</time>
      </trkpt>
      <trkpt lat="48.27721" lon="7.39196">
        <ele>278.2</ele>
        <time>2021-08-04T08:13:35Z</time>
      </trkpt>
      <trkpt lat="48.27721" lon="7.39196">
        <ele>278.2</ele>
        <time>2021-08-04T08:13:36Z</time>
      </trkpt>
      <trkpt lat="48.27722" lon="7.39197">
        <ele>278.2</ele>
        <time>2021-08-04T08:13:38Z</time>
      </trkpt>
      <trkpt lat="48.27722" lon="7.39197">
        <ele>278.2</ele>
        <time>2021-08-04T08:13:39Z</time>
      </trkpt>
      <trkpt lat="48.27723" lon="7.39197">
        <ele>278.1</ele>
        <time>2021-08-04T08:13:41Z</time>
      </trkpt>
      <trkpt lat="48.27724" lon="7.39196">
        <ele>278.1</ele>
        <time>2021-08-04T08:13:43Z</time>
      </trkpt>
      <trkpt lat="48.27726" lon="7.39194">
        <ele>278.1</ele>
        <time>2021-08-04T08:13:45Z</time>
      </trkpt>
      <trkpt lat="48.27727" lon="7.39194">
        <ele>278.1</ele>
        <time>2021-08-04T08:13:46Z</time>
      </trkpt>
      <trkpt lat="48.27728" lon="7.39193">
        <ele>278.1</ele>
        <time>2021-08-04T08:13:47Z</time>
      </trkpt>
      <trkpt lat="48.2773" lon="7.39191">
        <ele>278.1</ele>
        <time>2021-08-04T08:13:49Z</time>
      </trkpt>
      <trkpt lat="48.27731" lon="7.3919">
        <ele>278.1</ele>
        <time>2021-08-04T08:13:50Z</time>
      </trkpt>
      <trkpt lat="48.27731" lon="7.39188">
        <ele>278.1</ele>
        <time>2021-08-04T08:13:52Z</time>
      </trkpt>
      <trkpt lat="48.2773" lon="7.39187">
        <ele>278.1</ele>
        <time>2021-08-04T08:13:53Z</time>
      </trkpt>
      <trkpt lat="48.27729" lon="7.39186">
        <ele>278.1</ele>
        <time>2021-08-04T08:13:54Z</time>
      </trkpt>
      <trkpt lat="48.27727" lon="7.39184">
        <ele>278.1</ele>
        <time>2021-08-04T08:13:56Z</time>
      </trkpt>
      <trkpt lat="48.27725" lon="7.39183">
        <ele>278.1</ele>
        <time>2021-08-04T08:13:57Z</time>
      </trkpt>
      <trkpt lat="48.27722" lon="7.39179">
        <ele>278</ele>
        <time>2021-08-04T08:13:59Z</time>
      </trkpt>
      <trkpt lat="48.27719" lon="7.39187">
        <ele>278</ele>
        <time>2021-08-04T08:14:00Z</time>
      </trkpt>
      <trkpt lat="48.27718" lon="7.39195">
        <ele>278</ele>
        <time>2021-08-04T08:14:02Z</time>
      </trkpt>
      <trkpt lat="48.27716" lon="7.39203">
        <ele>277.9</ele>
        <time>2021-08-04T08:14:03Z</time>
      </trkpt>
      <trkpt lat="48.27714" lon="7.39211">
        <ele>277.9</ele>
        <time>2021-08-04T08:14:05Z</time>
      </trkpt>
      <trkpt lat="48.27713" lon="7.39219">
        <ele>277.9</ele>
        <time>2021-08-04T08:14:06Z</time>
      </trkpt>
      <trkpt lat="48.27711" lon="7.39227">
        <ele>277.9</ele>
        <time>2021-08-04T08:14:07Z</time>
      </trkpt>
      <trkpt lat="48.2771" lon="7.39235">
        <ele>277.8</ele>
        <time>2021-08-04T08:15:04Z</time>
      </trkpt>
      <trkpt lat="48.27708" lon="7.39243">
        <ele>277.8</ele>
        <time>2021-08-04T08:15:05Z</time>
      </trkpt>
      <trkpt lat="48.27708" lon="7.39252">
        <ele>278.2</ele>
        <time>2021-08-04T08:15:07Z</time>
      </trkpt>
      <trkpt lat="48.27707" lon="7.39256">
        <ele>278.4</ele>
        <time>2021-08-04T08:15:08Z</time>
      </trkpt>
      <trkpt lat="48.27706" lon="7.39264">
        <ele>278.8</ele>
        <time>2021-08-04T08:15:10Z</time>
      </trkpt>
      <trkpt lat="48.27704" lon="7.39271">
        <ele>279.1</ele>
        <time>2021-08-04T08:15:12Z</time>
      </trkpt>
      <trkpt lat="48.27704" lon="7.39273">
        <ele>279.2</ele>
        <time>2021-08-04T08:15:13Z</time>
      </trkpt>
      <trkpt lat="48.27703" lon="7.39275">
        <ele>279.3</ele>
        <time>2021-08-04T08:15:14Z</time>
      </trkpt>
      <trkpt lat="48.27702" lon="7.39278">
        <ele>279.6</ele>
        <time>2021-08-04T08:15:15Z</time>
      </trkpt>
      <trkpt lat="48.277" lon="7.39284">
        <ele>280</ele>
        <time>2021-08-04T08:15:17Z</time>
      </trkpt>
      <trkpt lat="48.27698" lon="7.39289">
        <ele>280.3</ele>
        <time>2021-08-04T08:15:19Z</time>
      </trkpt>
      <trkpt lat="48.27696" lon="7.39294">
        <ele>280.6</ele>
        <time>2021-08-04T08:15:21Z</time>
      </trkpt>
      <trkpt lat="48.27694" lon="7.39299">
        <ele>281</ele>
        <time>2021-08-04T08:15:23Z</time>
      </trkpt>
      <trkpt lat="48.27693" lon="7.39301">
        <ele>281.1</ele>
        <time>2021-08-04T08:15:24Z</time>
      </trkpt>
      <trkpt lat="48.27693" lon="7.39303">
        <ele>281.2</ele>
        <time>2021-08-04T08:15:25Z</time>
      </trkpt>
      <trkpt lat="48.2769" lon="7.39307">
        <ele>281.5</ele>
        <time>2021-08-04T08:15:27Z</time>
      </trkpt>
      <trkpt lat="48.27688" lon="7.39311">
        <ele>281.8</ele>
        <time>2021-08-04T08:15:29Z</time>
      </trkpt>
      <trkpt lat="48.27687" lon="7.39312">
        <ele>281.9</ele>
        <time>2021-08-04T08:15:30Z</time>
      </trkpt>
      <trkpt lat="48.27686" lon="7.39314">
        <ele>282</ele>
        <time>2021-08-04T08:15:31Z</time>
      </trkpt>
      <trkpt lat="48.27685" lon="7.39315">
        <ele>282</ele>
        <time>2021-08-04T08:15:32Z</time>
      </trkpt>
      <trkpt lat="48.27683" lon="7.39316">
        <ele>282.2</ele>
        <time>2021-08-04T08:15:34Z</time>
      </trkpt>
      <trkpt lat="48.2768" lon="7.39319">
        <ele>282.4</ele>
        <time>2021-08-04T08:15:36Z</time>
      </trkpt>
      <trkpt lat="48.27678" lon="7.3932">
        <ele>282.6</ele>
        <time>2021-08-04T08:15:38Z</time>
      </trkpt>
      <trkpt lat="48.27676" lon="7.3932">
        <ele>282.7</ele>
        <time>2021-08-04T08:15:40Z</time>
      </trkpt>
      <trkpt lat="48.27673" lon="7.39318">
        <ele>282.9</ele>
        <time>2021-08-04T08:15:42Z</time>
      </trkpt>
      <trkpt lat="48.27672" lon="7.39317">
        <ele>283</ele>
        <time>2021-08-04T08:15:44Z</time>
      </trkpt>
      <trkpt lat="48.27671" lon="7.39318">
        <ele>283.1</ele>
        <time>2021-08-04T08:15:45Z</time>
      </trkpt>
      <trkpt lat="48.2767" lon="7.3932">
        <ele>283.2</ele>
        <time>2021-08-04T08:15:47Z</time>
      </trkpt>
      <trkpt lat="48.27669" lon="7.39321">
        <ele>283.3</ele>
        <time>2021-08-04T08:15:48Z</time>
      </trkpt>
      <trkpt lat="48.27669" lon="7.39322">
        <ele>283.3</ele>
        <time>2021-08-04T08:15:49Z</time>
      </trkpt>
      <trkpt lat="48.27669" lon="7.39323">
        <ele>283.4</ele>
        <time>2021-08-04T08:15:51Z</time>
      </trkpt>
      <trkpt lat="48.27668" lon="7.39323">
        <ele>283.5</ele>
        <time>2021-08-04T08:15:53Z</time>
      </trkpt>
      <trkpt lat="48.27668" lon="7.39323">
        <ele>283.5</ele>
        <time>2021-08-04T08:15:54Z</time>
      </trkpt>
      <trkpt lat="48.27668" lon="7.39322">
        <ele>283.5</ele>
        <time>2021-08-04T08:15:55Z</time>
      </trkpt>
      <trkpt lat="48.27667" lon="7.39322">
        <ele>283.6</ele>
        <time>2021-08-04T08:15:57Z</time>
      </trkpt>
      <trkpt lat="48.27667" lon="7.39322">
        <ele>283.6</ele>
        <time>2021-08-04T08:15:58Z</time>
      </trkpt>
      <trkpt lat="48.27667" lon="7.39322">
        <ele>283.6</ele>
        <time>2021-08-04T08:15:59Z</time>
      </trkpt>
      <trkpt lat="48.27665" lon="7.39321">
        <ele>283.7</ele>
        <time>2021-08-04T08:16:01Z</time>
      </trkpt>
      <trkpt lat="48.27664" lon="7.3932">
        <ele>283.8</ele>
        <time>2021-08-04T08:16:03Z</time>
      </trkpt>
      <trkpt lat="48.27644" lon="7.39314">
        <ele>285.3</ele>
        <time>2021-08-04T08:16:13Z</time>
      </trkpt>
      <trkpt lat="48.27641" lon="7.39313">
        <ele>285.5</ele>
        <time>2021-08-04T08:16:14Z</time>
      </trkpt>
      <trkpt lat="48.2764" lon="7.39312">
        <ele>285.6</ele>
        <time>2021-08-04T08:16:15Z</time>
      </trkpt>
      <trkpt lat="48.27637" lon="7.39311">
        <ele>285.7</ele>
        <time>2021-08-04T08:16:16Z</time>
      </trkpt>
      <trkpt lat="48.27634" lon="7.39309">
        <ele>285.9</ele>
        <time>2021-08-04T08:16:18Z</time>
      </trkpt>
      <trkpt lat="48.27633" lon="7.39308">
        <ele>286</ele>
        <time>2021-08-04T08:16:19Z</time>
      </trkpt>
      <trkpt lat="48.27632" lon="7.39307">
        <ele>286.1</ele>
        <time>2021-08-04T08:16:20Z</time>
      </trkpt>
      <trkpt lat="48.27629" lon="7.39305">
        <ele>286.3</ele>
        <time>2021-08-04T08:16:22Z</time>
      </trkpt>
      <trkpt lat="48.27628" lon="7.39304">
        <ele>286.4</ele>
        <time>2021-08-04T08:16:23Z</time>
      </trkpt>
      <trkpt lat="48.27626" lon="7.39302">
        <ele>286.5</ele>
        <time>2021-08-04T08:16:24Z</time>
      </trkpt>
      <trkpt lat="48.27624" lon="7.39301">
        <ele>286.6</ele>
        <time>2021-08-04T08:16:25Z</time>
      </trkpt>
      <trkpt lat="48.27622" lon="7.39298">
        <ele>286.8</ele>
        <time>2021-08-04T08:16:27Z</time>
      </trkpt>
      <trkpt lat="48.2762" lon="7.39297">
        <ele>286.9</ele>
        <time>2021-08-04T08:16:28Z</time>
      </trkpt>
      <trkpt lat="48.27619" lon="7.39295">
        <ele>287</ele>
        <time>2021-08-04T08:16:29Z</time>
      </trkpt>
      <trkpt lat="48.27618" lon="7.39292">
        <ele>287.2</ele>
        <time>2021-08-04T08:16:30Z</time>
      </trkpt>
      <trkpt lat="48.27616" lon="7.39289">
        <ele>287.4</ele>
        <time>2021-08-04T08:16:32Z</time>
      </trkpt>
      <trkpt lat="48.27615" lon="7.39287">
        <ele>287.4</ele>
        <time>2021-08-04T08:16:33Z</time>
      </trkpt>
      <trkpt lat="48.27614" lon="7.39285">
        <ele>287.6</ele>
        <time>2021-08-04T08:16:34Z</time>
      </trkpt>
      <trkpt lat="48.27612" lon="7.39284">
        <ele>287.8</ele>
        <time>2021-08-04T08:16:35Z</time>
      </trkpt>
      <trkpt lat="48.27611" lon="7.39283">
        <ele>287.8</ele>
        <time>2021-08-04T08:16:36Z</time>
      </trkpt>
      <trkpt lat="48.2761" lon="7.39283">
        <ele>287.9</ele>
        <time>2021-08-04T08:16:38Z</time>
      </trkpt>
      <trkpt lat="48.2761" lon="7.39282">
        <ele>288</ele>
        <time>2021-08-04T08:16:39Z</time>
      </trkpt>
      <trkpt lat="48.27609" lon="7.39282">
        <ele>288.1</ele>
        <time>2021-08-04T08:16:40Z</time>
      </trkpt>
      <trkpt lat="48.27608" lon="7.39281">
        <ele>288.1</ele>
        <time>2021-08-04T08:16:41Z</time>
      </trkpt>
      <trkpt lat="48.27605" lon="7.39281">
        <ele>288.4</ele>
        <time>2021-08-04T08:16:43Z</time>
      </trkpt>
      <trkpt lat="48.27602" lon="7.39281">
        <ele>288.7</ele>
        <time>2021-08-04T08:16:45Z</time>
      </trkpt>
      <trkpt lat="48.27598" lon="7.39282">
        <ele>289</ele>
        <time>2021-08-04T08:16:47Z</time>
      </trkpt>
      <trkpt lat="48.27598" lon="7.39282">
        <ele>289.1</ele>
        <time>2021-08-04T08:16:48Z</time>
      </trkpt>
      <trkpt lat="48.27594" lon="7.39283">
        <ele>289.4</ele>
        <time>2021-08-04T08:16:49Z</time>
      </trkpt>
      <trkpt lat="48.27593" lon="7.39283">
        <ele>289.5</ele>
        <time>2021-08-04T08:16:50Z</time>
      </trkpt>
      <trkpt lat="48.27591" lon="7.39283">
        <ele>289.7</ele>
        <time>2021-08-04T08:16:52Z</time>
      </trkpt>
      <trkpt lat="48.27589" lon="7.39282">
        <ele>289.8</ele>
        <time>2021-08-04T08:16:53Z</time>
      </trkpt>
      <trkpt lat="48.27586" lon="7.39282">
        <ele>290.1</ele>
        <time>2021-08-04T08:16:55Z</time>
      </trkpt>
      <trkpt lat="48.27583" lon="7.39282">
        <ele>290.3</ele>
        <time>2021-08-04T08:16:56Z</time>
      </trkpt>
      <trkpt lat="48.27581" lon="7.39281">
        <ele>290.5</ele>
        <time>2021-08-04T08:16:58Z</time>
      </trkpt>
      <trkpt lat="48.27578" lon="7.39278">
        <ele>290.8</ele>
        <time>2021-08-04T08:16:59Z</time>
      </trkpt>
      <trkpt lat="48.27577" lon="7.39276">
        <ele>290.9</ele>
        <time>2021-08-04T08:17:00Z</time>
      </trkpt>
      <trkpt lat="48.27575" lon="7.39274">
        <ele>291.1</ele>
        <time>2021-08-04T08:17:02Z</time>
      </trkpt>
      <trkpt lat="48.27573" lon="7.39271">
        <ele>291.2</ele>
        <time>2021-08-04T08:17:04Z</time>
      </trkpt>
      <trkpt lat="48.27573" lon="7.3927">
        <ele>291.3</ele>
        <time>2021-08-04T08:17:05Z</time>
      </trkpt>
      <trkpt lat="48.27572" lon="7.39269">
        <ele>291.4</ele>
        <time>2021-08-04T08:17:06Z</time>
      </trkpt>
      <trkpt lat="48.27571" lon="7.39268">
        <ele>291.5</ele>
        <time>2021-08-04T08:17:07Z</time>
      </trkpt>
      <trkpt lat="48.27568" lon="7.39265">
        <ele>291.7</ele>
        <time>2021-08-04T08:17:09Z</time>
      </trkpt>
      <trkpt lat="48.27567" lon="7.39264">
        <ele>291.7</ele>
        <time>2021-08-04T08:17:10Z</time>
      </trkpt>
      <trkpt lat="48.27566" lon="7.39262">
        <ele>291.9</ele>
        <time>2021-08-04T08:17:11Z</time>
      </trkpt>
      <trkpt lat="48.27565" lon="7.39261">
        <ele>291.9</ele>
        <time>2021-08-04T08:17:13Z</time>
      </trkpt>
      <trkpt lat="48.27564" lon="7.3926">
        <ele>292</ele>
        <time>2021-08-04T08:17:14Z</time>
      </trkpt>
      <trkpt lat="48.27563" lon="7.39259">
        <ele>292.1</ele>
        <time>2021-08-04T08:17:16Z</time>
      </trkpt>
      <trkpt lat="48.27562" lon="7.39258">
        <ele>292.2</ele>
        <time>2021-08-04T08:17:17Z</time>
      </trkpt>
      <trkpt lat="48.27561" lon="7.39258">
        <ele>292.2</ele>
        <time>2021-08-04T08:17:18Z</time>
      </trkpt>
      <trkpt lat="48.2756" lon="7.39258">
        <ele>292.3</ele>
        <time>2021-08-04T08:17:19Z</time>
      </trkpt>
      <trkpt lat="48.27557" lon="7.39257">
        <ele>292.5</ele>
        <time>2021-08-04T08:17:21Z</time>
      </trkpt>
      <trkpt lat="48.27556" lon="7.39257">
        <ele>292.6</ele>
        <time>2021-08-04T08:17:22Z</time>
      </trkpt>
      <trkpt lat="48.27555" lon="7.39256">
        <ele>292.7</ele>
        <time>2021-08-04T08:17:23Z</time>
      </trkpt>
      <trkpt lat="48.27552" lon="7.39257">
        <ele>292.8</ele>
        <time>2021-08-04T08:17:25Z</time>
      </trkpt>
      <trkpt lat="48.27551" lon="7.39257">
        <ele>292.9</ele>
        <time>2021-08-04T08:17:26Z</time>
      </trkpt>
      <trkpt lat="48.27548" lon="7.39258">
        <ele>293.1</ele>
        <time>2021-08-04T08:17:27Z</time>
      </trkpt>
      <trkpt lat="48.27545" lon="7.39259">
        <ele>293.3</ele>
        <time>2021-08-04T08:17:29Z</time>
      </trkpt>
      <trkpt lat="48.27542" lon="7.39259">
        <ele>293.5</ele>
        <time>2021-08-04T08:17:30Z</time>
      </trkpt>
      <trkpt lat="48.27541" lon="7.3926">
        <ele>293.6</ele>
        <time>2021-08-04T08:17:31Z</time>
      </trkpt>
      <trkpt lat="48.27537" lon="7.39259">
        <ele>293.9</ele>
        <time>2021-08-04T08:17:32Z</time>
      </trkpt>
      <trkpt lat="48.27536" lon="7.39259">
        <ele>294</ele>
        <time>2021-08-04T08:17:33Z</time>
      </trkpt>
      <trkpt lat="48.27533" lon="7.39258">
        <ele>294.2</ele>
        <time>2021-08-04T08:17:34Z</time>
      </trkpt>
      <trkpt lat="48.27532" lon="7.39257">
        <ele>294.3</ele>
        <time>2021-08-04T08:17:35Z</time>
      </trkpt>
      <trkpt lat="48.2753" lon="7.39256">
        <ele>294.4</ele>
        <time>2021-08-04T08:17:36Z</time>
      </trkpt>
      <trkpt lat="48.27529" lon="7.39254">
        <ele>294.4</ele>
        <time>2021-08-04T08:17:38Z</time>
      </trkpt>
      <trkpt lat="48.27527" lon="7.39252">
        <ele>294.6</ele>
        <time>2021-08-04T08:17:39Z</time>
      </trkpt>
      <trkpt lat="48.27525" lon="7.3925">
        <ele>294.7</ele>
        <time>2021-08-04T08:17:41Z</time>
      </trkpt>
      <trkpt lat="48.27523" lon="7.39247">
        <ele>294.8</ele>
        <time>2021-08-04T08:17:42Z</time>
      </trkpt>
      <trkpt lat="48.27522" lon="7.39245">
        <ele>294.9</ele>
        <time>2021-08-04T08:17:43Z</time>
      </trkpt>
      <trkpt lat="48.2752" lon="7.39243">
        <ele>295</ele>
        <time>2021-08-04T08:17:45Z</time>
      </trkpt>
      <trkpt lat="48.27519" lon="7.39242">
        <ele>295.1</ele>
        <time>2021-08-04T08:17:46Z</time>
      </trkpt>
      <trkpt lat="48.27519" lon="7.39242">
        <ele>295.1</ele>
        <time>2021-08-04T08:17:47Z</time>
      </trkpt>
      <trkpt lat="48.27518" lon="7.39241">
        <ele>295.2</ele>
        <time>2021-08-04T08:17:48Z</time>
      </trkpt>
      <trkpt lat="48.27517" lon="7.39238">
        <ele>295.3</ele>
        <time>2021-08-04T08:17:49Z</time>
      </trkpt>
      <trkpt lat="48.27516" lon="7.39234">
        <ele>295.4</ele>
        <time>2021-08-04T08:17:51Z</time>
      </trkpt>
      <trkpt lat="48.27515" lon="7.39232">
        <ele>295.5</ele>
        <time>2021-08-04T08:17:52Z</time>
      </trkpt>
      <trkpt lat="48.27515" lon="7.39229">
        <ele>295.6</ele>
        <time>2021-08-04T08:17:54Z</time>
      </trkpt>
      <trkpt lat="48.27515" lon="7.39227">
        <ele>295.7</ele>
        <time>2021-08-04T08:17:55Z</time>
      </trkpt>
      <trkpt lat="48.27515" lon="7.39225">
        <ele>295.7</ele>
        <time>2021-08-04T08:17:56Z</time>
      </trkpt>
      <trkpt lat="48.27516" lon="7.3922">
        <ele>295.9</ele>
        <time>2021-08-04T08:17:58Z</time>
      </trkpt>
      <trkpt lat="48.27516" lon="7.39219">
        <ele>295.9</ele>
        <time>2021-08-04T08:17:59Z</time>
      </trkpt>
      <trkpt lat="48.27516" lon="7.39218">
        <ele>296</ele>
        <time>2021-08-04T08:18:00Z</time>
      </trkpt>
      <trkpt lat="48.27516" lon="7.39217">
        <ele>296</ele>
        <time>2021-08-04T08:18:01Z</time>
      </trkpt>
      <trkpt lat="48.27515" lon="7.39215">
        <ele>296</ele>
        <time>2021-08-04T08:18:02Z</time>
      </trkpt>
      <trkpt lat="48.27514" lon="7.39215">
        <ele>296.1</ele>
        <time>2021-08-04T08:18:03Z</time>
      </trkpt>
      <trkpt lat="48.27512" lon="7.39214">
        <ele>296.2</ele>
        <time>2021-08-04T08:18:04Z</time>
      </trkpt>
      <trkpt lat="48.2751" lon="7.39214">
        <ele>296.3</ele>
        <time>2021-08-04T08:18:06Z</time>
      </trkpt>
      <trkpt lat="48.27507" lon="7.39212">
        <ele>296.4</ele>
        <time>2021-08-04T08:18:08Z</time>
      </trkpt>
      <trkpt lat="48.27504" lon="7.39211">
        <ele>296.5</ele>
        <time>2021-08-04T08:18:09Z</time>
      </trkpt>
      <trkpt lat="48.27503" lon="7.39211">
        <ele>296.5</ele>
        <time>2021-08-04T08:18:10Z</time>
      </trkpt>
      <trkpt lat="48.27502" lon="7.3921">
        <ele>296.6</ele>
        <time>2021-08-04T08:18:11Z</time>
      </trkpt>
      <trkpt lat="48.27499" lon="7.39209">
        <ele>296.7</ele>
        <time>2021-08-04T08:18:13Z</time>
      </trkpt>
      <trkpt lat="48.27497" lon="7.39208">
        <ele>296.8</ele>
        <time>2021-08-04T08:18:14Z</time>
      </trkpt>
      <trkpt lat="48.27497" lon="7.39208">
        <ele>296.8</ele>
        <time>2021-08-04T08:18:15Z</time>
      </trkpt>
      <trkpt lat="48.27496" lon="7.39207">
        <ele>296.9</ele>
        <time>2021-08-04T08:18:17Z</time>
      </trkpt>
      <trkpt lat="48.27495" lon="7.39206">
        <ele>296.9</ele>
        <time>2021-08-04T08:18:18Z</time>
      </trkpt>
      <trkpt lat="48.27494" lon="7.39206">
        <ele>297</ele>
        <time>2021-08-04T08:18:19Z</time>
      </trkpt>
      <trkpt lat="48.27492" lon="7.39205">
        <ele>297.1</ele>
        <time>2021-08-04T08:18:21Z</time>
      </trkpt>
      <trkpt lat="48.2749" lon="7.39207">
        <ele>297.2</ele>
        <time>2021-08-04T08:18:22Z</time>
      </trkpt>
      <trkpt lat="48.27489" lon="7.39208">
        <ele>297.2</ele>
        <time>2021-08-04T08:18:23Z</time>
      </trkpt>
      <trkpt lat="48.27488" lon="7.39209">
        <ele>297.3</ele>
        <time>2021-08-04T08:18:24Z</time>
      </trkpt>
      <trkpt lat="48.27485" lon="7.39211">
        <ele>297.4</ele>
        <time>2021-08-04T08:18:26Z</time>
      </trkpt>
      <trkpt lat="48.27484" lon="7.39211">
        <ele>297.5</ele>
        <time>2021-08-04T08:18:27Z</time>
      </trkpt>
      <trkpt lat="48.27472" lon="7.39209">
        <ele>298.1</ele>
        <time>2021-08-04T08:18:28Z</time>
      </trkpt>
      <trkpt lat="48.27461" lon="7.39206">
        <ele>298.7</ele>
        <time>2021-08-04T08:18:29Z</time>
      </trkpt>
      <trkpt lat="48.2745" lon="7.39203">
        <ele>299.4</ele>
        <time>2021-08-04T08:19:21Z</time>
      </trkpt>
      <trkpt lat="48.27439" lon="7.392">
        <ele>300.4</ele>
        <time>2021-08-04T08:19:23Z</time>
      </trkpt>
      <trkpt lat="48.27428" lon="7.39197">
        <ele>301.4</ele>
        <time>2021-08-04T08:19:24Z</time>
      </trkpt>
      <trkpt lat="48.27416" lon="7.39194">
        <ele>302.4</ele>
        <time>2021-08-04T08:19:25Z</time>
      </trkpt>
      <trkpt lat="48.27413" lon="7.39194">
        <ele>302.7</ele>
        <time>2021-08-04T08:19:27Z</time>
      </trkpt>
      <trkpt lat="48.27413" lon="7.39194">
        <ele>302.8</ele>
        <time>2021-08-04T08:19:28Z</time>
      </trkpt>
      <trkpt lat="48.27411" lon="7.39193">
        <ele>302.9</ele>
        <time>2021-08-04T08:19:29Z</time>
      </trkpt>
      <trkpt lat="48.2741" lon="7.39192">
        <ele>303.1</ele>
        <time>2021-08-04T08:19:30Z</time>
      </trkpt>
      <trkpt lat="48.27408" lon="7.39191">
        <ele>303.2</ele>
        <time>2021-08-04T08:19:31Z</time>
      </trkpt>
      <trkpt lat="48.27407" lon="7.3919">
        <ele>303.3</ele>
        <time>2021-08-04T08:19:33Z</time>
      </trkpt>
      <trkpt lat="48.27406" lon="7.3919">
        <ele>303.4</ele>
        <time>2021-08-04T08:19:34Z</time>
      </trkpt>
      <trkpt lat="48.27405" lon="7.39189">
        <ele>303.5</ele>
        <time>2021-08-04T08:19:35Z</time>
      </trkpt>
      <trkpt lat="48.27404" lon="7.39189">
        <ele>303.6</ele>
        <time>2021-08-04T08:19:36Z</time>
      </trkpt>
      <trkpt lat="48.27403" lon="7.39188">
        <ele>303.7</ele>
        <time>2021-08-04T08:19:37Z</time>
      </trkpt>
      <trkpt lat="48.27401" lon="7.39188">
        <ele>303.9</ele>
        <time>2021-08-04T08:19:38Z</time>
      </trkpt>
      <trkpt lat="48.274" lon="7.39187">
        <ele>304.1</ele>
        <time>2021-08-04T08:19:39Z</time>
      </trkpt>
      <trkpt lat="48.27397" lon="7.39187">
        <ele>304.3</ele>
        <time>2021-08-04T08:19:41Z</time>
      </trkpt>
      <trkpt lat="48.27397" lon="7.39186">
        <ele>304.4</ele>
        <time>2021-08-04T08:19:42Z</time>
      </trkpt>
      <trkpt lat="48.27395" lon="7.39185">
        <ele>304.5</ele>
        <time>2021-08-04T08:19:44Z</time>
      </trkpt>
      <trkpt lat="48.27395" lon="7.39183">
        <ele>304.7</ele>
        <time>2021-08-04T08:19:46Z</time>
      </trkpt>
      <trkpt lat="48.27394" lon="7.39182">
        <ele>304.8</ele>
        <time>2021-08-04T08:19:47Z</time>
      </trkpt>
      <trkpt lat="48.27394" lon="7.39181">
        <ele>304.8</ele>
        <time>2021-08-04T08:19:48Z</time>
      </trkpt>
      <trkpt lat="48.27394" lon="7.3918">
        <ele>304.9</ele>
        <time>2021-08-04T08:19:49Z</time>
      </trkpt>
      <trkpt lat="48.27394" lon="7.3918">
        <ele>304.9</ele>
        <time>2021-08-04T08:19:50Z</time>
      </trkpt>
      <trkpt lat="48.27394" lon="7.39179">
        <ele>305</ele>
        <time>2021-08-04T08:19:51Z</time>
      </trkpt>
      <trkpt lat="48.27392" lon="7.39178">
        <ele>305.2</ele>
        <time>2021-08-04T08:19:53Z</time>
      </trkpt>
      <trkpt lat="48.27391" lon="7.39177">
        <ele>305.3</ele>
        <time>2021-08-04T08:19:54Z</time>
      </trkpt>
      <trkpt lat="48.2739" lon="7.39177">
        <ele>305.3</ele>
        <time>2021-08-04T08:19:55Z</time>
      </trkpt>
      <trkpt lat="48.27388" lon="7.39175">
        <ele>305.6</ele>
        <time>2021-08-04T08:19:56Z</time>
      </trkpt>
      <trkpt lat="48.27387" lon="7.39175">
        <ele>305.7</ele>
        <time>2021-08-04T08:19:58Z</time>
      </trkpt>
      <trkpt lat="48.27372" lon="7.3917">
        <ele>306.9</ele>
        <time>2021-08-04T08:20:08Z</time>
      </trkpt>
      <trkpt lat="48.2737" lon="7.39169">
        <ele>307.1</ele>
        <time>2021-08-04T08:20:09Z</time>
      </trkpt>
      <trkpt lat="48.27368" lon="7.39167">
        <ele>307.2</ele>
        <time>2021-08-04T08:20:11Z</time>
      </trkpt>
      <trkpt lat="48.27366" lon="7.39166">
        <ele>307.3</ele>
        <time>2021-08-04T08:20:13Z</time>
      </trkpt>
      <trkpt lat="48.27366" lon="7.39164">
        <ele>307.4</ele>
        <time>2021-08-04T08:20:14Z</time>
      </trkpt>
      <trkpt lat="48.27367" lon="7.39165">
        <ele>307.4</ele>
        <time>2021-08-04T08:20:16Z</time>
      </trkpt>
      <trkpt lat="48.27367" lon="7.39165">
        <ele>307.4</ele>
        <time>2021-08-04T08:20:17Z</time>
      </trkpt>
      <trkpt lat="48.27367" lon="7.39166">
        <ele>307.4</ele>
        <time>2021-08-04T08:20:18Z</time>
      </trkpt>
      <trkpt lat="48.27367" lon="7.39166">
        <ele>307.4</ele>
        <time>2021-08-04T08:20:20Z</time>
      </trkpt>
      <trkpt lat="48.27367" lon="7.39167">
        <ele>307.5</ele>
        <time>2021-08-04T08:20:21Z</time>
      </trkpt>
      <trkpt lat="48.27367" lon="7.39167">
        <ele>307.5</ele>
        <time>2021-08-04T08:20:22Z</time>
      </trkpt>
      <trkpt lat="48.27366" lon="7.39168">
        <ele>307.5</ele>
        <time>2021-08-04T08:20:24Z</time>
      </trkpt>
      <trkpt lat="48.27357" lon="7.39172">
        <ele>307.8</ele>
        <time>2021-08-04T08:20:34Z</time>
      </trkpt>
      <trkpt lat="48.27352" lon="7.39173">
        <ele>307.9</ele>
        <time>2021-08-04T08:20:36Z</time>
      </trkpt>
      <trkpt lat="48.27348" lon="7.39174">
        <ele>308</ele>
        <time>2021-08-04T08:20:37Z</time>
      </trkpt>
      <trkpt lat="48.27347" lon="7.39175">
        <ele>308.1</ele>
        <time>2021-08-04T08:20:38Z</time>
      </trkpt>
      <trkpt lat="48.27343" lon="7.39177">
        <ele>308.1</ele>
        <time>2021-08-04T08:20:40Z</time>
      </trkpt>
      <trkpt lat="48.2734" lon="7.39179">
        <ele>308.2</ele>
        <time>2021-08-04T08:20:41Z</time>
      </trkpt>
      <trkpt lat="48.27339" lon="7.3918">
        <ele>308.2</ele>
        <time>2021-08-04T08:20:42Z</time>
      </trkpt>
      <trkpt lat="48.27336" lon="7.39183">
        <ele>308.2</ele>
        <time>2021-08-04T08:20:43Z</time>
      </trkpt>
      <trkpt lat="48.27335" lon="7.39183">
        <ele>308.2</ele>
        <time>2021-08-04T08:20:44Z</time>
      </trkpt>
      <trkpt lat="48.27333" lon="7.39184">
        <ele>308.3</ele>
        <time>2021-08-04T08:20:46Z</time>
      </trkpt>
      <trkpt lat="48.2733" lon="7.39186">
        <ele>308.3</ele>
        <time>2021-08-04T08:20:48Z</time>
      </trkpt>
      <trkpt lat="48.27328" lon="7.39186">
        <ele>308.3</ele>
        <time>2021-08-04T08:20:49Z</time>
      </trkpt>
      <trkpt lat="48.27325" lon="7.39186">
        <ele>308.3</ele>
        <time>2021-08-04T08:20:51Z</time>
      </trkpt>
      <trkpt lat="48.27324" lon="7.39186">
        <ele>308.4</ele>
        <time>2021-08-04T08:20:52Z</time>
      </trkpt>
      <trkpt lat="48.27322" lon="7.39186">
        <ele>308.4</ele>
        <time>2021-08-04T08:20:53Z</time>
      </trkpt>
      <trkpt lat="48.2732" lon="7.39187">
        <ele>308.4</ele>
        <time>2021-08-04T08:20:54Z</time>
      </trkpt>
      <trkpt lat="48.27317" lon="7.39186">
        <ele>308.4</ele>
        <time>2021-08-04T08:20:56Z</time>
      </trkpt>
      <trkpt lat="48.27313" lon="7.39186">
        <ele>308.5</ele>
        <time>2021-08-04T08:20:58Z</time>
      </trkpt>
      <trkpt lat="48.27311" lon="7.39186">
        <ele>308.5</ele>
        <time>2021-08-04T08:20:59Z</time>
      </trkpt>
      <trkpt lat="48.27307" lon="7.39187">
        <ele>308.5</ele>
        <time>2021-08-04T08:21:01Z</time>
      </trkpt>
      <trkpt lat="48.27304" lon="7.39188">
        <ele>308.5</ele>
        <time>2021-08-04T08:21:02Z</time>
      </trkpt>
      <trkpt lat="48.273" lon="7.39189">
        <ele>308.6</ele>
        <time>2021-08-04T08:21:04Z</time>
      </trkpt>
      <trkpt lat="48.27297" lon="7.3919">
        <ele>308.6</ele>
        <time>2021-08-04T08:21:05Z</time>
      </trkpt>
      <trkpt lat="48.27295" lon="7.3919">
        <ele>308.6</ele>
        <time>2021-08-04T08:21:06Z</time>
      </trkpt>
      <trkpt lat="48.2729" lon="7.3919">
        <ele>308.6</ele>
        <time>2021-08-04T08:21:08Z</time>
      </trkpt>
      <trkpt lat="48.27285" lon="7.39189">
        <ele>308.7</ele>
        <time>2021-08-04T08:21:10Z</time>
      </trkpt>
      <trkpt lat="48.2728" lon="7.39187">
        <ele>308.7</ele>
        <time>2021-08-04T08:21:12Z</time>
      </trkpt>
      <trkpt lat="48.27277" lon="7.39186">
        <ele>308.8</ele>
        <time>2021-08-04T08:21:13Z</time>
      </trkpt>
      <trkpt lat="48.27274" lon="7.39186">
        <ele>308.8</ele>
        <time>2021-08-04T08:21:14Z</time>
      </trkpt>
      <trkpt lat="48.27269" lon="7.39186">
        <ele>308.9</ele>
        <time>2021-08-04T08:21:16Z</time>
      </trkpt>
      <trkpt lat="48.27266" lon="7.39186">
        <ele>308.9</ele>
        <time>2021-08-04T08:21:17Z</time>
      </trkpt>
      <trkpt lat="48.27263" lon="7.39186">
        <ele>309</ele>
        <time>2021-08-04T08:21:18Z</time>
      </trkpt>
      <trkpt lat="48.2726" lon="7.39185">
        <ele>309</ele>
        <time>2021-08-04T08:21:19Z</time>
      </trkpt>
      <trkpt lat="48.27257" lon="7.39185">
        <ele>309.1</ele>
        <time>2021-08-04T08:21:20Z</time>
      </trkpt>
      <trkpt lat="48.27252" lon="7.39184">
        <ele>309.2</ele>
        <time>2021-08-04T08:21:22Z</time>
      </trkpt>
      <trkpt lat="48.27248" lon="7.39186">
        <ele>309.3</ele>
        <time>2021-08-04T08:21:23Z</time>
      </trkpt>
      <trkpt lat="48.27246" lon="7.39186">
        <ele>309.3</ele>
        <time>2021-08-04T08:21:24Z</time>
      </trkpt>
      <trkpt lat="48.27243" lon="7.39187">
        <ele>309.4</ele>
        <time>2021-08-04T08:21:26Z</time>
      </trkpt>
      <trkpt lat="48.27241" lon="7.39187">
        <ele>309.4</ele>
        <time>2021-08-04T08:21:27Z</time>
      </trkpt>
      <trkpt lat="48.27237" lon="7.39188">
        <ele>309.6</ele>
        <time>2021-08-04T08:21:29Z</time>
      </trkpt>
      <trkpt lat="48.27236" lon="7.39189">
        <ele>309.6</ele>
        <time>2021-08-04T08:21:30Z</time>
      </trkpt>
      <trkpt lat="48.27234" lon="7.39189">
        <ele>309.7</ele>
        <time>2021-08-04T08:21:31Z</time>
      </trkpt>
      <trkpt lat="48.27233" lon="7.39189">
        <ele>309.7</ele>
        <time>2021-08-04T08:21:32Z</time>
      </trkpt>
      <trkpt lat="48.27231" lon="7.39189">
        <ele>309.8</ele>
        <time>2021-08-04T08:21:33Z</time>
      </trkpt>
      <trkpt lat="48.27227" lon="7.39189">
        <ele>309.9</ele>
        <time>2021-08-04T08:21:35Z</time>
      </trkpt>
      <trkpt lat="48.27223" lon="7.39189">
        <ele>310</ele>
        <time>2021-08-04T08:21:36Z</time>
      </trkpt>
      <trkpt lat="48.27222" lon="7.39189">
        <ele>310.1</ele>
        <time>2021-08-04T08:21:37Z</time>
      </trkpt>
      <trkpt lat="48.27218" lon="7.39189">
        <ele>310.2</ele>
        <time>2021-08-04T08:21:39Z</time>
      </trkpt>
      <trkpt lat="48.27214" lon="7.39189">
        <ele>310.3</ele>
        <time>2021-08-04T08:21:40Z</time>
      </trkpt>
      <trkpt lat="48.27213" lon="7.39189">
        <ele>310.4</ele>
        <time>2021-08-04T08:21:41Z</time>
      </trkpt>
      <trkpt lat="48.27209" lon="7.39189">
        <ele>310.5</ele>
        <time>2021-08-04T08:21:42Z</time>
      </trkpt>
      <trkpt lat="48.27208" lon="7.39188">
        <ele>310.6</ele>
        <time>2021-08-04T08:21:43Z</time>
      </trkpt>
      <trkpt lat="48.27205" lon="7.39187">
        <ele>310.7</ele>
        <time>2021-08-04T08:21:44Z</time>
      </trkpt>
      <trkpt lat="48.27204" lon="7.39187">
        <ele>310.7</ele>
        <time>2021-08-04T08:21:45Z</time>
      </trkpt>
      <trkpt lat="48.27201" lon="7.39185">
        <ele>310.9</ele>
        <time>2021-08-04T08:21:47Z</time>
      </trkpt>
      <trkpt lat="48.27196" lon="7.39184">
        <ele>311.1</ele>
        <time>2021-08-04T08:21:49Z</time>
      </trkpt>
      <trkpt lat="48.27194" lon="7.39183">
        <ele>311.2</ele>
        <time>2021-08-04T08:21:50Z</time>
      </trkpt>
      <trkpt lat="48.27193" lon="7.39183">
        <ele>311.2</ele>
        <time>2021-08-04T08:21:51Z</time>
      </trkpt>
      <trkpt lat="48.27189" lon="7.39182">
        <ele>311.4</ele>
        <time>2021-08-04T08:21:52Z</time>
      </trkpt>
      <trkpt lat="48.27188" lon="7.39182">
        <ele>311.4</ele>
        <time>2021-08-04T08:21:53Z</time>
      </trkpt>
      <trkpt lat="48.27184" lon="7.3918">
        <ele>311.6</ele>
        <time>2021-08-04T08:21:55Z</time>
      </trkpt>
      <trkpt lat="48.27181" lon="7.3918">
        <ele>311.7</ele>
        <time>2021-08-04T08:21:56Z</time>
      </trkpt>
      <trkpt lat="48.27177" lon="7.39179">
        <ele>311.9</ele>
        <time>2021-08-04T08:21:58Z</time>
      </trkpt>
      <trkpt lat="48.27174" lon="7.39179">
        <ele>312</ele>
        <time>2021-08-04T08:21:59Z</time>
      </trkpt>
      <trkpt lat="48.27173" lon="7.39179">
        <ele>312</ele>
        <time>2021-08-04T08:22:00Z</time>
      </trkpt>
      <trkpt lat="48.27171" lon="7.39178">
        <ele>312.1</ele>
        <time>2021-08-04T08:22:01Z</time>
      </trkpt>
      <trkpt lat="48.2717" lon="7.39178">
        <ele>312.1</ele>
        <time>2021-08-04T08:22:02Z</time>
      </trkpt>
      <trkpt lat="48.27168" lon="7.39178">
        <ele>312.2</ele>
        <time>2021-08-04T08:22:03Z</time>
      </trkpt>
      <trkpt lat="48.27167" lon="7.39178">
        <ele>312.3</ele>
        <time>2021-08-04T08:22:04Z</time>
      </trkpt>
      <trkpt lat="48.27163" lon="7.39177">
        <ele>312.4</ele>
        <time>2021-08-04T08:22:05Z</time>
      </trkpt>
      <trkpt lat="48.27162" lon="7.39177">
        <ele>312.4</ele>
        <time>2021-08-04T08:22:06Z</time>
      </trkpt>
      <trkpt lat="48.2716" lon="7.39177">
        <ele>312.5</ele>
        <time>2021-08-04T08:22:07Z</time>
      </trkpt>
      <trkpt lat="48.27157" lon="7.39177">
        <ele>312.6</ele>
        <time>2021-08-04T08:22:09Z</time>
      </trkpt>
      <trkpt lat="48.27154" lon="7.39176">
        <ele>312.7</ele>
        <time>2021-08-04T08:22:10Z</time>
      </trkpt>
      <trkpt lat="48.27152" lon="7.39176">
        <ele>312.8</ele>
        <time>2021-08-04T08:22:11Z</time>
      </trkpt>
      <trkpt lat="48.27148" lon="7.39175">
        <ele>312.9</ele>
        <time>2021-08-04T08:22:13Z</time>
      </trkpt>
      <trkpt lat="48.27145" lon="7.39175">
        <ele>313</ele>
        <time>2021-08-04T08:22:14Z</time>
      </trkpt>
      <trkpt lat="48.2714" lon="7.39173">
        <ele>313.1</ele>
        <time>2021-08-04T08:22:16Z</time>
      </trkpt>
      <trkpt lat="48.27136" lon="7.39171">
        <ele>313.2</ele>
        <time>2021-08-04T08:22:18Z</time>
      </trkpt>
      <trkpt lat="48.27133" lon="7.3917">
        <ele>313.3</ele>
        <time>2021-08-04T08:22:19Z</time>
      </trkpt>
      <trkpt lat="48.2713" lon="7.39168">
        <ele>313.3</ele>
        <time>2021-08-04T08:22:20Z</time>
      </trkpt>
      <trkpt lat="48.27127" lon="7.39166">
        <ele>313.4</ele>
        <time>2021-08-04T08:22:22Z</time>
      </trkpt>
      <trkpt lat="48.27126" lon="7.39166">
        <ele>313.4</ele>
        <time>2021-08-04T08:22:23Z</time>
      </trkpt>
      <trkpt lat="48.27125" lon="7.39166">
        <ele>313.4</ele>
        <time>2021-08-04T08:22:24Z</time>
      </trkpt>
      <trkpt lat="48.27123" lon="7.39166">
        <ele>313.4</ele>
        <time>2021-08-04T08:22:25Z</time>
      </trkpt>
      <trkpt lat="48.2712" lon="7.39164">
        <ele>313.5</ele>
        <time>2021-08-04T08:22:27Z</time>
      </trkpt>
      <trkpt lat="48.27119" lon="7.39164">
        <ele>313.5</ele>
        <time>2021-08-04T08:22:28Z</time>
      </trkpt>
      <trkpt lat="48.27118" lon="7.39163">
        <ele>313.5</ele>
        <time>2021-08-04T08:22:29Z</time>
      </trkpt>
      <trkpt lat="48.27116" lon="7.39162">
        <ele>313.6</ele>
        <time>2021-08-04T08:22:30Z</time>
      </trkpt>
      <trkpt lat="48.27112" lon="7.39159">
        <ele>313.6</ele>
        <time>2021-08-04T08:22:32Z</time>
      </trkpt>
      <trkpt lat="48.2711" lon="7.39157">
        <ele>313.7</ele>
        <time>2021-08-04T08:22:33Z</time>
      </trkpt>
      <trkpt lat="48.27105" lon="7.39154">
        <ele>313.8</ele>
        <time>2021-08-04T08:22:35Z</time>
      </trkpt>
      <trkpt lat="48.27102" lon="7.39154">
        <ele>313.8</ele>
        <time>2021-08-04T08:22:36Z</time>
      </trkpt>
      <trkpt lat="48.27098" lon="7.39152">
        <ele>313.9</ele>
        <time>2021-08-04T08:22:38Z</time>
      </trkpt>
      <trkpt lat="48.27095" lon="7.39149">
        <ele>314</ele>
        <time>2021-08-04T08:22:39Z</time>
      </trkpt>
      <trkpt lat="48.27095" lon="7.39147">
        <ele>314</ele>
        <time>2021-08-04T08:22:40Z</time>
      </trkpt>
      <trkpt lat="48.27092" lon="7.39143">
        <ele>314.1</ele>
        <time>2021-08-04T08:22:41Z</time>
      </trkpt>
      <trkpt lat="48.27091" lon="7.39141">
        <ele>314.1</ele>
        <time>2021-08-04T08:22:42Z</time>
      </trkpt>
      <trkpt lat="48.27088" lon="7.39137">
        <ele>314.2</ele>
        <time>2021-08-04T08:22:44Z</time>
      </trkpt>
      <trkpt lat="48.27086" lon="7.39135">
        <ele>314.2</ele>
        <time>2021-08-04T08:22:45Z</time>
      </trkpt>
      <trkpt lat="48.27083" lon="7.3913">
        <ele>314.3</ele>
        <time>2021-08-04T08:22:47Z</time>
      </trkpt>
      <trkpt lat="48.2708" lon="7.39126">
        <ele>314.4</ele>
        <time>2021-08-04T08:22:48Z</time>
      </trkpt>
      <trkpt lat="48.27079" lon="7.39124">
        <ele>314.5</ele>
        <time>2021-08-04T08:22:49Z</time>
      </trkpt>
      <trkpt lat="48.27077" lon="7.39121">
        <ele>314.6</ele>
        <time>2021-08-04T08:22:50Z</time>
      </trkpt>
      <trkpt lat="48.27074" lon="7.39116">
        <ele>314.7</ele>
        <time>2021-08-04T08:22:52Z</time>
      </trkpt>
      <trkpt lat="48.27072" lon="7.39112">
        <ele>314.8</ele>
        <time>2021-08-04T08:22:53Z</time>
      </trkpt>
      <trkpt lat="48.27069" lon="7.39108">
        <ele>314.9</ele>
        <time>2021-08-04T08:22:54Z</time>
      </trkpt>
      <trkpt lat="48.27066" lon="7.39104">
        <ele>315</ele>
        <time>2021-08-04T08:22:55Z</time>
      </trkpt>
      <trkpt lat="48.27065" lon="7.39103">
        <ele>315</ele>
        <time>2021-08-04T08:22:56Z</time>
      </trkpt>
      <trkpt lat="48.27063" lon="7.391">
        <ele>315.1</ele>
        <time>2021-08-04T08:22:58Z</time>
      </trkpt>
      <trkpt lat="48.2706" lon="7.39097">
        <ele>315.2</ele>
        <time>2021-08-04T08:22:59Z</time>
      </trkpt>
      <trkpt lat="48.27058" lon="7.39092">
        <ele>315.2</ele>
        <time>2021-08-04T08:23:00Z</time>
      </trkpt>
      <trkpt lat="48.27057" lon="7.39091">
        <ele>315.3</ele>
        <time>2021-08-04T08:23:01Z</time>
      </trkpt>
      <trkpt lat="48.27054" lon="7.39087">
        <ele>315.4</ele>
        <time>2021-08-04T08:23:03Z</time>
      </trkpt>
      <trkpt lat="48.27052" lon="7.39084">
        <ele>315.4</ele>
        <time>2021-08-04T08:23:04Z</time>
      </trkpt>
      <trkpt lat="48.27049" lon="7.39081">
        <ele>315.5</ele>
        <time>2021-08-04T08:23:06Z</time>
      </trkpt>
      <trkpt lat="48.27047" lon="7.39079">
        <ele>315.5</ele>
        <time>2021-08-04T08:23:07Z</time>
      </trkpt>
      <trkpt lat="48.27044" lon="7.39075">
        <ele>315.6</ele>
        <time>2021-08-04T08:23:09Z</time>
      </trkpt>
      <trkpt lat="48.27042" lon="7.39073">
        <ele>315.7</ele>
        <time>2021-08-04T08:23:10Z</time>
      </trkpt>
      <trkpt lat="48.27038" lon="7.3907">
        <ele>315.8</ele>
        <time>2021-08-04T08:23:12Z</time>
      </trkpt>
      <trkpt lat="48.27034" lon="7.39068">
        <ele>315.9</ele>
        <time>2021-08-04T08:23:13Z</time>
      </trkpt>
      <trkpt lat="48.27033" lon="7.39068">
        <ele>316</ele>
        <time>2021-08-04T08:23:14Z</time>
      </trkpt>
      <trkpt lat="48.2703" lon="7.39069">
        <ele>316.1</ele>
        <time>2021-08-04T08:23:16Z</time>
      </trkpt>
      <trkpt lat="48.27026" lon="7.3907">
        <ele>316.2</ele>
        <time>2021-08-04T08:23:18Z</time>
      </trkpt>
      <trkpt lat="48.27023" lon="7.39071">
        <ele>316.3</ele>
        <time>2021-08-04T08:23:19Z</time>
      </trkpt>
      <trkpt lat="48.27018" lon="7.39074">
        <ele>316.5</ele>
        <time>2021-08-04T08:23:21Z</time>
      </trkpt>
      <trkpt lat="48.27013" lon="7.39075">
        <ele>316.7</ele>
        <time>2021-08-04T08:23:23Z</time>
      </trkpt>
      <trkpt lat="48.2701" lon="7.39077">
        <ele>316.9</ele>
        <time>2021-08-04T08:23:24Z</time>
      </trkpt>
      <trkpt lat="48.27009" lon="7.39077">
        <ele>316.9</ele>
        <time>2021-08-04T08:23:25Z</time>
      </trkpt>
      <trkpt lat="48.27006" lon="7.39079">
        <ele>317</ele>
        <time>2021-08-04T08:23:26Z</time>
      </trkpt>
      <trkpt lat="48.27003" lon="7.39081">
        <ele>317.2</ele>
        <time>2021-08-04T08:23:28Z</time>
      </trkpt>
      <trkpt lat="48.27003" lon="7.39082">
        <ele>317.2</ele>
        <time>2021-08-04T08:23:29Z</time>
      </trkpt>
      <trkpt lat="48.27" lon="7.39084">
        <ele>317.3</ele>
        <time>2021-08-04T08:23:31Z</time>
      </trkpt>
      <trkpt lat="48.26999" lon="7.39085">
        <ele>317.4</ele>
        <time>2021-08-04T08:23:32Z</time>
      </trkpt>
      <trkpt lat="48.26996" lon="7.39087">
        <ele>317.6</ele>
        <time>2021-08-04T08:23:34Z</time>
      </trkpt>
      <trkpt lat="48.26993" lon="7.39088">
        <ele>317.7</ele>
        <time>2021-08-04T08:23:35Z</time>
      </trkpt>
      <trkpt lat="48.26992" lon="7.39089">
        <ele>317.7</ele>
        <time>2021-08-04T08:23:36Z</time>
      </trkpt>
      <trkpt lat="48.26989" lon="7.39092">
        <ele>317.9</ele>
        <time>2021-08-04T08:23:37Z</time>
      </trkpt>
      <trkpt lat="48.26988" lon="7.39093">
        <ele>317.9</ele>
        <time>2021-08-04T08:23:38Z</time>
      </trkpt>
      <trkpt lat="48.26987" lon="7.39097">
        <ele>318</ele>
        <time>2021-08-04T08:23:40Z</time>
      </trkpt>
      <trkpt lat="48.26986" lon="7.39098">
        <ele>318.1</ele>
        <time>2021-08-04T08:23:41Z</time>
      </trkpt>
      <trkpt lat="48.26987" lon="7.39102">
        <ele>318.2</ele>
        <time>2021-08-04T08:23:42Z</time>
      </trkpt>
      <trkpt lat="48.26987" lon="7.39104">
        <ele>318.2</ele>
        <time>2021-08-04T08:23:43Z</time>
      </trkpt>
      <trkpt lat="48.26985" lon="7.39105">
        <ele>318.3</ele>
        <time>2021-08-04T08:23:45Z</time>
      </trkpt>
      <trkpt lat="48.26984" lon="7.39107">
        <ele>318.4</ele>
        <time>2021-08-04T08:23:47Z</time>
      </trkpt>
      <trkpt lat="48.26981" lon="7.39109">
        <ele>318.5</ele>
        <time>2021-08-04T08:23:48Z</time>
      </trkpt>
      <trkpt lat="48.2698" lon="7.3911">
        <ele>318.5</ele>
        <time>2021-08-04T08:23:49Z</time>
      </trkpt>
      <trkpt lat="48.26979" lon="7.39111">
        <ele>318.6</ele>
        <time>2021-08-04T08:23:50Z</time>
      </trkpt>
      <trkpt lat="48.26978" lon="7.39112">
        <ele>318.6</ele>
        <time>2021-08-04T08:23:51Z</time>
      </trkpt>
      <trkpt lat="48.26976" lon="7.39112">
        <ele>318.7</ele>
        <time>2021-08-04T08:23:52Z</time>
      </trkpt>
      <trkpt lat="48.26973" lon="7.39113">
        <ele>318.8</ele>
        <time>2021-08-04T08:23:54Z</time>
      </trkpt>
      <trkpt lat="48.26972" lon="7.39113">
        <ele>318.8</ele>
        <time>2021-08-04T08:23:55Z</time>
      </trkpt>
      <trkpt lat="48.26968" lon="7.39113">
        <ele>319</ele>
        <time>2021-08-04T08:23:57Z</time>
      </trkpt>
      <trkpt lat="48.26967" lon="7.39112">
        <ele>319</ele>
        <time>2021-08-04T08:23:58Z</time>
      </trkpt>
      <trkpt lat="48.26961" lon="7.39111">
        <ele>319.2</ele>
        <time>2021-08-04T08:24:00Z</time>
      </trkpt>
      <trkpt lat="48.26959" lon="7.3911">
        <ele>319.3</ele>
        <time>2021-08-04T08:24:01Z</time>
      </trkpt>
      <trkpt lat="48.26955" lon="7.39108">
        <ele>319.4</ele>
        <time>2021-08-04T08:24:02Z</time>
      </trkpt>
      <trkpt lat="48.26953" lon="7.39108">
        <ele>319.5</ele>
        <time>2021-08-04T08:24:03Z</time>
      </trkpt>
      <trkpt lat="48.2695" lon="7.39105">
        <ele>319.6</ele>
        <time>2021-08-04T08:24:04Z</time>
      </trkpt>
      <trkpt lat="48.26947" lon="7.39103">
        <ele>319.7</ele>
        <time>2021-08-04T08:24:06Z</time>
      </trkpt>
      <trkpt lat="48.26944" lon="7.39101">
        <ele>319.9</ele>
        <time>2021-08-04T08:24:07Z</time>
      </trkpt>
      <trkpt lat="48.26941" lon="7.39099">
        <ele>320</ele>
        <time>2021-08-04T08:24:08Z</time>
      </trkpt>
      <trkpt lat="48.26938" lon="7.39097">
        <ele>320.1</ele>
        <time>2021-08-04T08:24:09Z</time>
      </trkpt>
      <trkpt lat="48.26935" lon="7.39097">
        <ele>320.2</ele>
        <time>2021-08-04T08:24:10Z</time>
      </trkpt>
      <trkpt lat="48.2693" lon="7.39096">
        <ele>320.4</ele>
        <time>2021-08-04T08:24:11Z</time>
      </trkpt>
      <trkpt lat="48.26928" lon="7.39096">
        <ele>320.5</ele>
        <time>2021-08-04T08:24:12Z</time>
      </trkpt>
      <trkpt lat="48.26925" lon="7.39097">
        <ele>320.6</ele>
        <time>2021-08-04T08:24:13Z</time>
      </trkpt>
      <trkpt lat="48.26922" lon="7.39098">
        <ele>320.7</ele>
        <time>2021-08-04T08:24:14Z</time>
      </trkpt>
      <trkpt lat="48.26921" lon="7.39098">
        <ele>320.7</ele>
        <time>2021-08-04T08:24:15Z</time>
      </trkpt>
      <trkpt lat="48.26917" lon="7.39099">
        <ele>320.9</ele>
        <time>2021-08-04T08:24:17Z</time>
      </trkpt>
      <trkpt lat="48.26914" lon="7.39101">
        <ele>321</ele>
        <time>2021-08-04T08:24:18Z</time>
      </trkpt>
      <trkpt lat="48.2691" lon="7.39103">
        <ele>321.2</ele>
        <time>2021-08-04T08:24:19Z</time>
      </trkpt>
      <trkpt lat="48.26909" lon="7.39103">
        <ele>321.2</ele>
        <time>2021-08-04T08:24:20Z</time>
      </trkpt>
      <trkpt lat="48.26905" lon="7.39105">
        <ele>321.3</ele>
        <time>2021-08-04T08:24:21Z</time>
      </trkpt>
      <trkpt lat="48.26902" lon="7.39106">
        <ele>321.5</ele>
        <time>2021-08-04T08:24:22Z</time>
      </trkpt>
      <trkpt lat="48.26899" lon="7.39107">
        <ele>321.6</ele>
        <time>2021-08-04T08:24:23Z</time>
      </trkpt>
      <trkpt lat="48.26896" lon="7.39108">
        <ele>321.7</ele>
        <time>2021-08-04T08:24:24Z</time>
      </trkpt>
      <trkpt lat="48.26892" lon="7.3911">
        <ele>321.9</ele>
        <time>2021-08-04T08:24:26Z</time>
      </trkpt>
      <trkpt lat="48.2689" lon="7.39111">
        <ele>322</ele>
        <time>2021-08-04T08:24:27Z</time>
      </trkpt>
      <trkpt lat="48.26889" lon="7.39111">
        <ele>322.1</ele>
        <time>2021-08-04T08:24:28Z</time>
      </trkpt>
      <trkpt lat="48.26885" lon="7.39112">
        <ele>322.2</ele>
        <time>2021-08-04T08:24:29Z</time>
      </trkpt>
      <trkpt lat="48.26884" lon="7.39113">
        <ele>322.3</ele>
        <time>2021-08-04T08:24:30Z</time>
      </trkpt>
      <trkpt lat="48.26882" lon="7.39114">
        <ele>322.4</ele>
        <time>2021-08-04T08:24:31Z</time>
      </trkpt>
      <trkpt lat="48.26878" lon="7.39116">
        <ele>322.5</ele>
        <time>2021-08-04T08:24:33Z</time>
      </trkpt>
      <trkpt lat="48.26875" lon="7.39117">
        <ele>322.7</ele>
        <time>2021-08-04T08:24:34Z</time>
      </trkpt>
      <trkpt lat="48.26874" lon="7.39117">
        <ele>322.7</ele>
        <time>2021-08-04T08:24:35Z</time>
      </trkpt>
      <trkpt lat="48.26872" lon="7.39118">
        <ele>322.8</ele>
        <time>2021-08-04T08:24:36Z</time>
      </trkpt>
      <trkpt lat="48.2687" lon="7.39119">
        <ele>322.9</ele>
        <time>2021-08-04T08:24:38Z</time>
      </trkpt>
      <trkpt lat="48.26868" lon="7.3912">
        <ele>323</ele>
        <time>2021-08-04T08:24:39Z</time>
      </trkpt>
      <trkpt lat="48.26867" lon="7.3912">
        <ele>323</ele>
        <time>2021-08-04T08:24:40Z</time>
      </trkpt>
      <trkpt lat="48.26864" lon="7.39119">
        <ele>323.1</ele>
        <time>2021-08-04T08:24:42Z</time>
      </trkpt>
      <trkpt lat="48.26863" lon="7.39119">
        <ele>323.2</ele>
        <time>2021-08-04T08:24:43Z</time>
      </trkpt>
      <trkpt lat="48.26861" lon="7.39119">
        <ele>323.3</ele>
        <time>2021-08-04T08:24:44Z</time>
      </trkpt>
      <trkpt lat="48.26859" lon="7.3912">
        <ele>323.3</ele>
        <time>2021-08-04T08:24:45Z</time>
      </trkpt>
      <trkpt lat="48.26857" lon="7.39121">
        <ele>323.4</ele>
        <time>2021-08-04T08:24:46Z</time>
      </trkpt>
      <trkpt lat="48.26854" lon="7.39123">
        <ele>323.6</ele>
        <time>2021-08-04T08:24:47Z</time>
      </trkpt>
      <trkpt lat="48.26853" lon="7.39124">
        <ele>323.6</ele>
        <time>2021-08-04T08:24:48Z</time>
      </trkpt>
      <trkpt lat="48.26851" lon="7.39125">
        <ele>323.7</ele>
        <time>2021-08-04T08:24:49Z</time>
      </trkpt>
      <trkpt lat="48.26849" lon="7.39126">
        <ele>323.8</ele>
        <time>2021-08-04T08:24:51Z</time>
      </trkpt>
      <trkpt lat="48.26846" lon="7.39128">
        <ele>323.9</ele>
        <time>2021-08-04T08:24:52Z</time>
      </trkpt>
      <trkpt lat="48.26843" lon="7.39129">
        <ele>324</ele>
        <time>2021-08-04T08:24:54Z</time>
      </trkpt>
      <trkpt lat="48.2684" lon="7.39129">
        <ele>324.1</ele>
        <time>2021-08-04T08:24:55Z</time>
      </trkpt>
      <trkpt lat="48.26838" lon="7.3913">
        <ele>324.1</ele>
        <time>2021-08-04T08:24:57Z</time>
      </trkpt>
      <trkpt lat="48.26835" lon="7.39131">
        <ele>324.2</ele>
        <time>2021-08-04T08:24:58Z</time>
      </trkpt>
      <trkpt lat="48.26834" lon="7.39131">
        <ele>324.2</ele>
        <time>2021-08-04T08:24:59Z</time>
      </trkpt>
      <trkpt lat="48.2683" lon="7.39132">
        <ele>324.3</ele>
        <time>2021-08-04T08:25:00Z</time>
      </trkpt>
      <trkpt lat="48.26829" lon="7.39133">
        <ele>324.3</ele>
        <time>2021-08-04T08:25:01Z</time>
      </trkpt>
      <trkpt lat="48.26826" lon="7.39134">
        <ele>324.4</ele>
        <time>2021-08-04T08:25:03Z</time>
      </trkpt>
      <trkpt lat="48.26825" lon="7.39135">
        <ele>324.5</ele>
        <time>2021-08-04T08:25:04Z</time>
      </trkpt>
      <trkpt lat="48.26824" lon="7.39136">
        <ele>324.5</ele>
        <time>2021-08-04T08:25:05Z</time>
      </trkpt>
      <trkpt lat="48.26822" lon="7.39137">
        <ele>324.5</ele>
        <time>2021-08-04T08:25:06Z</time>
      </trkpt>
      <trkpt lat="48.2682" lon="7.39138">
        <ele>324.6</ele>
        <time>2021-08-04T08:25:07Z</time>
      </trkpt>
      <trkpt lat="48.26819" lon="7.39139">
        <ele>324.6</ele>
        <time>2021-08-04T08:25:08Z</time>
      </trkpt>
      <trkpt lat="48.26816" lon="7.3914">
        <ele>324.7</ele>
        <time>2021-08-04T08:25:10Z</time>
      </trkpt>
      <trkpt lat="48.26814" lon="7.3914">
        <ele>324.7</ele>
        <time>2021-08-04T08:25:11Z</time>
      </trkpt>
      <trkpt lat="48.26812" lon="7.3914">
        <ele>324.8</ele>
        <time>2021-08-04T08:25:12Z</time>
      </trkpt>
      <trkpt lat="48.26809" lon="7.39141">
        <ele>324.8</ele>
        <time>2021-08-04T08:25:13Z</time>
      </trkpt>
      <trkpt lat="48.26806" lon="7.39142">
        <ele>324.9</ele>
        <time>2021-08-04T08:25:14Z</time>
      </trkpt>
      <trkpt lat="48.26805" lon="7.39142">
        <ele>324.9</ele>
        <time>2021-08-04T08:25:15Z</time>
      </trkpt>
      <trkpt lat="48.26802" lon="7.39144">
        <ele>325</ele>
        <time>2021-08-04T08:25:17Z</time>
      </trkpt>
      <trkpt lat="48.26801" lon="7.39145">
        <ele>325</ele>
        <time>2021-08-04T08:25:18Z</time>
      </trkpt>
      <trkpt lat="48.26797" lon="7.39148">
        <ele>325.2</ele>
        <time>2021-08-04T08:25:20Z</time>
      </trkpt>
      <trkpt lat="48.26794" lon="7.3915">
        <ele>325.2</ele>
        <time>2021-08-04T08:25:22Z</time>
      </trkpt>
      <trkpt lat="48.26792" lon="7.39151">
        <ele>325.3</ele>
        <time>2021-08-04T08:25:24Z</time>
      </trkpt>
      <trkpt lat="48.2679" lon="7.39152">
        <ele>325.3</ele>
        <time>2021-08-04T08:25:26Z</time>
      </trkpt>
      <trkpt lat="48.26788" lon="7.39153">
        <ele>325.4</ele>
        <time>2021-08-04T08:25:27Z</time>
      </trkpt>
      <trkpt lat="48.26786" lon="7.39154">
        <ele>325.4</ele>
        <time>2021-08-04T08:25:28Z</time>
      </trkpt>
      <trkpt lat="48.26785" lon="7.39154">
        <ele>325.4</ele>
        <time>2021-08-04T08:25:29Z</time>
      </trkpt>
      <trkpt lat="48.26781" lon="7.39155">
        <ele>325.5</ele>
        <time>2021-08-04T08:25:31Z</time>
      </trkpt>
      <trkpt lat="48.2678" lon="7.39156">
        <ele>325.6</ele>
        <time>2021-08-04T08:25:32Z</time>
      </trkpt>
      <trkpt lat="48.26778" lon="7.39156">
        <ele>325.6</ele>
        <time>2021-08-04T08:25:33Z</time>
      </trkpt>
      <trkpt lat="48.26773" lon="7.39158">
        <ele>325.7</ele>
        <time>2021-08-04T08:25:35Z</time>
      </trkpt>
      <trkpt lat="48.26771" lon="7.39159">
        <ele>325.8</ele>
        <time>2021-08-04T08:25:37Z</time>
      </trkpt>
      <trkpt lat="48.2677" lon="7.3916">
        <ele>325.8</ele>
        <time>2021-08-04T08:25:38Z</time>
      </trkpt>
      <trkpt lat="48.26768" lon="7.3916">
        <ele>325.9</ele>
        <time>2021-08-04T08:25:39Z</time>
      </trkpt>
      <trkpt lat="48.26765" lon="7.39161">
        <ele>326</ele>
        <time>2021-08-04T08:25:41Z</time>
      </trkpt>
      <trkpt lat="48.26763" lon="7.39161">
        <ele>326</ele>
        <time>2021-08-04T08:25:42Z</time>
      </trkpt>
      <trkpt lat="48.2676" lon="7.3916">
        <ele>326.1</ele>
        <time>2021-08-04T08:25:44Z</time>
      </trkpt>
      <trkpt lat="48.26758" lon="7.39159">
        <ele>326.1</ele>
        <time>2021-08-04T08:25:45Z</time>
      </trkpt>
      <trkpt lat="48.26756" lon="7.39159">
        <ele>326.2</ele>
        <time>2021-08-04T08:25:47Z</time>
      </trkpt>
      <trkpt lat="48.26753" lon="7.39158">
        <ele>326.2</ele>
        <time>2021-08-04T08:25:49Z</time>
      </trkpt>
      <trkpt lat="48.26752" lon="7.39158">
        <ele>326.3</ele>
        <time>2021-08-04T08:25:50Z</time>
      </trkpt>
      <trkpt lat="48.2675" lon="7.39158">
        <ele>326.3</ele>
        <time>2021-08-04T08:25:51Z</time>
      </trkpt>
      <trkpt lat="48.26748" lon="7.39158">
        <ele>326.3</ele>
        <time>2021-08-04T08:25:53Z</time>
      </trkpt>
      <trkpt lat="48.26746" lon="7.39158">
        <ele>326.4</ele>
        <time>2021-08-04T08:25:54Z</time>
      </trkpt>
      <trkpt lat="48.26744" lon="7.39158">
        <ele>326.4</ele>
        <time>2021-08-04T08:25:55Z</time>
      </trkpt>
      <trkpt lat="48.26741" lon="7.39157">
        <ele>326.5</ele>
        <time>2021-08-04T08:25:57Z</time>
      </trkpt>
      <trkpt lat="48.2674" lon="7.39157">
        <ele>326.5</ele>
        <time>2021-08-04T08:25:58Z</time>
      </trkpt>
      <trkpt lat="48.26737" lon="7.39157">
        <ele>326.5</ele>
        <time>2021-08-04T08:25:59Z</time>
      </trkpt>
      <trkpt lat="48.26736" lon="7.39158">
        <ele>326.5</ele>
        <time>2021-08-04T08:26:00Z</time>
      </trkpt>
      <trkpt lat="48.26733" lon="7.39158">
        <ele>326.6</ele>
        <time>2021-08-04T08:26:02Z</time>
      </trkpt>
      <trkpt lat="48.26732" lon="7.39158">
        <ele>326.6</ele>
        <time>2021-08-04T08:26:03Z</time>
      </trkpt>
      <trkpt lat="48.26729" lon="7.39159">
        <ele>326.7</ele>
        <time>2021-08-04T08:26:05Z</time>
      </trkpt>
      <trkpt lat="48.26726" lon="7.3916">
        <ele>326.8</ele>
        <time>2021-08-04T08:26:06Z</time>
      </trkpt>
      <trkpt lat="48.26724" lon="7.3916">
        <ele>326.8</ele>
        <time>2021-08-04T08:26:07Z</time>
      </trkpt>
      <trkpt lat="48.2672" lon="7.39161">
        <ele>326.9</ele>
        <time>2021-08-04T08:26:09Z</time>
      </trkpt>
      <trkpt lat="48.26717" lon="7.39161">
        <ele>327</ele>
        <time>2021-08-04T08:26:10Z</time>
      </trkpt>
      <trkpt lat="48.26715" lon="7.39161">
        <ele>327.1</ele>
        <time>2021-08-04T08:26:11Z</time>
      </trkpt>
      <trkpt lat="48.26713" lon="7.39161">
        <ele>327.2</ele>
        <time>2021-08-04T08:26:13Z</time>
      </trkpt>
      <trkpt lat="48.2671" lon="7.39162">
        <ele>327.3</ele>
        <time>2021-08-04T08:26:14Z</time>
      </trkpt>
      <trkpt lat="48.26707" lon="7.39162">
        <ele>327.4</ele>
        <time>2021-08-04T08:26:15Z</time>
      </trkpt>
      <trkpt lat="48.26705" lon="7.39162">
        <ele>327.5</ele>
        <time>2021-08-04T08:26:17Z</time>
      </trkpt>
      <trkpt lat="48.26702" lon="7.39163">
        <ele>327.6</ele>
        <time>2021-08-04T08:26:18Z</time>
      </trkpt>
      <trkpt lat="48.26701" lon="7.39163">
        <ele>327.7</ele>
        <time>2021-08-04T08:26:19Z</time>
      </trkpt>
      <trkpt lat="48.26699" lon="7.39163">
        <ele>327.7</ele>
        <time>2021-08-04T08:26:20Z</time>
      </trkpt>
      <trkpt lat="48.26696" lon="7.39164">
        <ele>327.9</ele>
        <time>2021-08-04T08:26:22Z</time>
      </trkpt>
      <trkpt lat="48.26693" lon="7.39164">
        <ele>328</ele>
        <time>2021-08-04T08:26:23Z</time>
      </trkpt>
      <trkpt lat="48.26692" lon="7.39164">
        <ele>328</ele>
        <time>2021-08-04T08:26:24Z</time>
      </trkpt>
      <trkpt lat="48.26691" lon="7.39165">
        <ele>328.1</ele>
        <time>2021-08-04T08:26:25Z</time>
      </trkpt>
      <trkpt lat="48.26689" lon="7.39165">
        <ele>328.1</ele>
        <time>2021-08-04T08:26:26Z</time>
      </trkpt>
      <trkpt lat="48.26688" lon="7.39165">
        <ele>328.2</ele>
        <time>2021-08-04T08:26:27Z</time>
      </trkpt>
      <trkpt lat="48.26685" lon="7.39165">
        <ele>328.3</ele>
        <time>2021-08-04T08:26:29Z</time>
      </trkpt>
      <trkpt lat="48.26682" lon="7.39162">
        <ele>328.4</ele>
        <time>2021-08-04T08:26:31Z</time>
      </trkpt>
      <trkpt lat="48.26682" lon="7.39162">
        <ele>328.4</ele>
        <time>2021-08-04T08:26:32Z</time>
      </trkpt>
      <trkpt lat="48.2668" lon="7.39161">
        <ele>328.5</ele>
        <time>2021-08-04T08:26:33Z</time>
      </trkpt>
      <trkpt lat="48.26678" lon="7.39159">
        <ele>328.5</ele>
        <time>2021-08-04T08:26:35Z</time>
      </trkpt>
      <trkpt lat="48.26676" lon="7.39157">
        <ele>328.6</ele>
        <time>2021-08-04T08:26:36Z</time>
      </trkpt>
      <trkpt lat="48.26673" lon="7.39156">
        <ele>328.7</ele>
        <time>2021-08-04T08:26:38Z</time>
      </trkpt>
      <trkpt lat="48.2667" lon="7.39154">
        <ele>328.8</ele>
        <time>2021-08-04T08:26:39Z</time>
      </trkpt>
      <trkpt lat="48.26669" lon="7.39153">
        <ele>328.9</ele>
        <time>2021-08-04T08:26:40Z</time>
      </trkpt>
      <trkpt lat="48.26666" lon="7.39151">
        <ele>329</ele>
        <time>2021-08-04T08:26:41Z</time>
      </trkpt>
      <trkpt lat="48.26665" lon="7.39151">
        <ele>329</ele>
        <time>2021-08-04T08:26:42Z</time>
      </trkpt>
      <trkpt lat="48.26662" lon="7.39149">
        <ele>329.1</ele>
        <time>2021-08-04T08:26:43Z</time>
      </trkpt>
      <trkpt lat="48.26661" lon="7.39149">
        <ele>329.2</ele>
        <time>2021-08-04T08:26:44Z</time>
      </trkpt>
      <trkpt lat="48.26658" lon="7.39148">
        <ele>329.3</ele>
        <time>2021-08-04T08:26:46Z</time>
      </trkpt>
      <trkpt lat="48.26655" lon="7.39146">
        <ele>329.4</ele>
        <time>2021-08-04T08:26:47Z</time>
      </trkpt>
      <trkpt lat="48.26654" lon="7.39146">
        <ele>329.4</ele>
        <time>2021-08-04T08:26:48Z</time>
      </trkpt>
      <trkpt lat="48.26651" lon="7.39144">
        <ele>329.6</ele>
        <time>2021-08-04T08:26:49Z</time>
      </trkpt>
      <trkpt lat="48.26651" lon="7.39144">
        <ele>329.6</ele>
        <time>2021-08-04T08:26:50Z</time>
      </trkpt>
      <trkpt lat="48.26649" lon="7.39145">
        <ele>329.6</ele>
        <time>2021-08-04T08:26:52Z</time>
      </trkpt>
      <trkpt lat="48.26648" lon="7.39145">
        <ele>329.7</ele>
        <time>2021-08-04T08:26:53Z</time>
      </trkpt>
      <trkpt lat="48.26646" lon="7.39144">
        <ele>329.8</ele>
        <time>2021-08-04T08:26:54Z</time>
      </trkpt>
      <trkpt lat="48.26645" lon="7.39144">
        <ele>329.8</ele>
        <time>2021-08-04T08:26:55Z</time>
      </trkpt>
      <trkpt lat="48.26644" lon="7.39144">
        <ele>329.8</ele>
        <time>2021-08-04T08:26:56Z</time>
      </trkpt>
      <trkpt lat="48.26643" lon="7.39144">
        <ele>329.9</ele>
        <time>2021-08-04T08:26:57Z</time>
      </trkpt>
      <trkpt lat="48.26642" lon="7.39144">
        <ele>329.9</ele>
        <time>2021-08-04T08:26:58Z</time>
      </trkpt>
      <trkpt lat="48.26641" lon="7.39143">
        <ele>330</ele>
        <time>2021-08-04T08:26:59Z</time>
      </trkpt>
      <trkpt lat="48.2664" lon="7.39143">
        <ele>330</ele>
        <time>2021-08-04T08:27:00Z</time>
      </trkpt>
      <trkpt lat="48.26639" lon="7.39143">
        <ele>330</ele>
        <time>2021-08-04T08:27:01Z</time>
      </trkpt>
      <trkpt lat="48.26637" lon="7.39142">
        <ele>330.1</ele>
        <time>2021-08-04T08:27:02Z</time>
      </trkpt>
      <trkpt lat="48.26635" lon="7.39139">
        <ele>330.1</ele>
        <time>2021-08-04T08:27:04Z</time>
      </trkpt>
      <trkpt lat="48.26634" lon="7.39138">
        <ele>330.2</ele>
        <time>2021-08-04T08:27:05Z</time>
      </trkpt>
      <trkpt lat="48.2663" lon="7.39135">
        <ele>330.3</ele>
        <time>2021-08-04T08:27:07Z</time>
      </trkpt>
      <trkpt lat="48.26629" lon="7.39134">
        <ele>330.3</ele>
        <time>2021-08-04T08:27:08Z</time>
      </trkpt>
      <trkpt lat="48.26628" lon="7.39133">
        <ele>330.3</ele>
        <time>2021-08-04T08:27:09Z</time>
      </trkpt>
      <trkpt lat="48.26624" lon="7.39129">
        <ele>330.5</ele>
        <time>2021-08-04T08:27:11Z</time>
      </trkpt>
      <trkpt lat="48.26623" lon="7.39128">
        <ele>330.5</ele>
        <time>2021-08-04T08:27:12Z</time>
      </trkpt>
      <trkpt lat="48.26621" lon="7.39127">
        <ele>330.5</ele>
        <time>2021-08-04T08:27:13Z</time>
      </trkpt>
      <trkpt lat="48.26618" lon="7.39124">
        <ele>330.6</ele>
        <time>2021-08-04T08:27:14Z</time>
      </trkpt>
      <trkpt lat="48.26617" lon="7.39123">
        <ele>330.6</ele>
        <time>2021-08-04T08:27:15Z</time>
      </trkpt>
      <trkpt lat="48.26614" lon="7.39121">
        <ele>330.7</ele>
        <time>2021-08-04T08:27:16Z</time>
      </trkpt>
      <trkpt lat="48.26613" lon="7.39121">
        <ele>330.7</ele>
        <time>2021-08-04T08:27:17Z</time>
      </trkpt>
      <trkpt lat="48.26608" lon="7.39118">
        <ele>330.8</ele>
        <time>2021-08-04T08:27:19Z</time>
      </trkpt>
      <trkpt lat="48.26607" lon="7.39117">
        <ele>330.9</ele>
        <time>2021-08-04T08:27:20Z</time>
      </trkpt>
      <trkpt lat="48.26605" lon="7.39116">
        <ele>330.9</ele>
        <time>2021-08-04T08:27:21Z</time>
      </trkpt>
      <trkpt lat="48.26602" lon="7.39113">
        <ele>331</ele>
        <time>2021-08-04T08:27:23Z</time>
      </trkpt>
      <trkpt lat="48.26599" lon="7.3911">
        <ele>331</ele>
        <time>2021-08-04T08:27:24Z</time>
      </trkpt>
      <trkpt lat="48.26598" lon="7.3911">
        <ele>331.1</ele>
        <time>2021-08-04T08:27:25Z</time>
      </trkpt>
      <trkpt lat="48.26597" lon="7.39109">
        <ele>331.1</ele>
        <time>2021-08-04T08:27:26Z</time>
      </trkpt>
      <trkpt lat="48.26595" lon="7.39107">
        <ele>331.1</ele>
        <time>2021-08-04T08:27:28Z</time>
      </trkpt>
      <trkpt lat="48.26593" lon="7.39106">
        <ele>331.2</ele>
        <time>2021-08-04T08:27:29Z</time>
      </trkpt>
      <trkpt lat="48.26589" lon="7.39104">
        <ele>331.3</ele>
        <time>2021-08-04T08:27:31Z</time>
      </trkpt>
      <trkpt lat="48.26588" lon="7.39103">
        <ele>331.3</ele>
        <time>2021-08-04T08:27:32Z</time>
      </trkpt>
      <trkpt lat="48.26584" lon="7.39101">
        <ele>331.4</ele>
        <time>2021-08-04T08:27:34Z</time>
      </trkpt>
      <trkpt lat="48.26583" lon="7.391">
        <ele>331.5</ele>
        <time>2021-08-04T08:27:35Z</time>
      </trkpt>
      <trkpt lat="48.26581" lon="7.39098">
        <ele>331.5</ele>
        <time>2021-08-04T08:27:36Z</time>
      </trkpt>
      <trkpt lat="48.26579" lon="7.39096">
        <ele>331.6</ele>
        <time>2021-08-04T08:27:37Z</time>
      </trkpt>
      <trkpt lat="48.26578" lon="7.39095">
        <ele>331.6</ele>
        <time>2021-08-04T08:27:38Z</time>
      </trkpt>
      <trkpt lat="48.26576" lon="7.39093">
        <ele>331.7</ele>
        <time>2021-08-04T08:27:39Z</time>
      </trkpt>
      <trkpt lat="48.26572" lon="7.39092">
        <ele>331.8</ele>
        <time>2021-08-04T08:27:41Z</time>
      </trkpt>
      <trkpt lat="48.26569" lon="7.39091">
        <ele>332</ele>
        <time>2021-08-04T08:27:43Z</time>
      </trkpt>
      <trkpt lat="48.26567" lon="7.39091">
        <ele>332</ele>
        <time>2021-08-04T08:27:44Z</time>
      </trkpt>
      <trkpt lat="48.26565" lon="7.3909">
        <ele>332.1</ele>
        <time>2021-08-04T08:27:46Z</time>
      </trkpt>
      <trkpt lat="48.26564" lon="7.39088">
        <ele>332.2</ele>
        <time>2021-08-04T08:27:47Z</time>
      </trkpt>
      <trkpt lat="48.26565" lon="7.39088">
        <ele>332.2</ele>
        <time>2021-08-04T08:27:48Z</time>
      </trkpt>
      <trkpt lat="48.26563" lon="7.39086">
        <ele>332.3</ele>
        <time>2021-08-04T08:27:50Z</time>
      </trkpt>
      <trkpt lat="48.26562" lon="7.39084">
        <ele>332.4</ele>
        <time>2021-08-04T08:27:52Z</time>
      </trkpt>
      <trkpt lat="48.26561" lon="7.39083">
        <ele>332.4</ele>
        <time>2021-08-04T08:27:54Z</time>
      </trkpt>
      <trkpt lat="48.26559" lon="7.39082">
        <ele>332.5</ele>
        <time>2021-08-04T08:27:55Z</time>
      </trkpt>
      <trkpt lat="48.26559" lon="7.39082">
        <ele>332.5</ele>
        <time>2021-08-04T08:27:56Z</time>
      </trkpt>
      <trkpt lat="48.26558" lon="7.39081">
        <ele>332.6</ele>
        <time>2021-08-04T08:27:58Z</time>
      </trkpt>
      <trkpt lat="48.26558" lon="7.39082">
        <ele>332.6</ele>
        <time>2021-08-04T08:28:00Z</time>
      </trkpt>
      <trkpt lat="48.26558" lon="7.39083">
        <ele>332.6</ele>
        <time>2021-08-04T08:28:01Z</time>
      </trkpt>
      <trkpt lat="48.26558" lon="7.39084">
        <ele>332.6</ele>
        <time>2021-08-04T08:28:02Z</time>
      </trkpt>
      <trkpt lat="48.26557" lon="7.39085">
        <ele>332.7</ele>
        <time>2021-08-04T08:28:04Z</time>
      </trkpt>
      <trkpt lat="48.26557" lon="7.39086">
        <ele>332.7</ele>
        <time>2021-08-04T08:28:05Z</time>
      </trkpt>
      <trkpt lat="48.26556" lon="7.39086">
        <ele>332.7</ele>
        <time>2021-08-04T08:28:07Z</time>
      </trkpt>
      <trkpt lat="48.26556" lon="7.39086">
        <ele>332.8</ele>
        <time>2021-08-04T08:28:08Z</time>
      </trkpt>
      <trkpt lat="48.2653" lon="7.3907">
        <ele>334.5</ele>
        <time>2021-08-04T08:28:39Z</time>
      </trkpt>
      <trkpt lat="48.26528" lon="7.39068">
        <ele>334.7</ele>
        <time>2021-08-04T08:28:41Z</time>
      </trkpt>
      <trkpt lat="48.26525" lon="7.39065">
        <ele>334.9</ele>
        <time>2021-08-04T08:28:43Z</time>
      </trkpt>
      <trkpt lat="48.26523" lon="7.39064">
        <ele>335.1</ele>
        <time>2021-08-04T08:28:44Z</time>
      </trkpt>
      <trkpt lat="48.26521" lon="7.39063">
        <ele>335.2</ele>
        <time>2021-08-04T08:28:46Z</time>
      </trkpt>
      <trkpt lat="48.26519" lon="7.39063">
        <ele>335.3</ele>
        <time>2021-08-04T08:28:47Z</time>
      </trkpt>
      <trkpt lat="48.26518" lon="7.39063">
        <ele>335.4</ele>
        <time>2021-08-04T08:28:48Z</time>
      </trkpt>
      <trkpt lat="48.26515" lon="7.39064">
        <ele>335.6</ele>
        <time>2021-08-04T08:28:50Z</time>
      </trkpt>
      <trkpt lat="48.26514" lon="7.39064">
        <ele>335.6</ele>
        <time>2021-08-04T08:28:51Z</time>
      </trkpt>
      <trkpt lat="48.26512" lon="7.39065">
        <ele>335.8</ele>
        <time>2021-08-04T08:28:53Z</time>
      </trkpt>
      <trkpt lat="48.2651" lon="7.39065">
        <ele>335.9</ele>
        <time>2021-08-04T08:28:55Z</time>
      </trkpt>
      <trkpt lat="48.26509" lon="7.39064">
        <ele>335.9</ele>
        <time>2021-08-04T08:28:57Z</time>
      </trkpt>
      <trkpt lat="48.26508" lon="7.39063">
        <ele>336</ele>
        <time>2021-08-04T08:28:58Z</time>
      </trkpt>
      <trkpt lat="48.26507" lon="7.39061">
        <ele>336.1</ele>
        <time>2021-08-04T08:29:00Z</time>
      </trkpt>
      <trkpt lat="48.26505" lon="7.39059">
        <ele>336.2</ele>
        <time>2021-08-04T08:29:02Z</time>
      </trkpt>
      <trkpt lat="48.26505" lon="7.39057">
        <ele>336.3</ele>
        <time>2021-08-04T08:29:03Z</time>
      </trkpt>
      <trkpt lat="48.26505" lon="7.39055">
        <ele>336.4</ele>
        <time>2021-08-04T08:29:05Z</time>
      </trkpt>
      <trkpt lat="48.26505" lon="7.39053">
        <ele>336.4</ele>
        <time>2021-08-04T08:29:06Z</time>
      </trkpt>
      <trkpt lat="48.26504" lon="7.39052">
        <ele>336.5</ele>
        <time>2021-08-04T08:29:07Z</time>
      </trkpt>
      <trkpt lat="48.26503" lon="7.39048">
        <ele>336.6</ele>
        <time>2021-08-04T08:29:09Z</time>
      </trkpt>
      <trkpt lat="48.26501" lon="7.3904">
        <ele>336.9</ele>
        <time>2021-08-04T08:29:11Z</time>
      </trkpt>
      <trkpt lat="48.26496" lon="7.39028">
        <ele>337.4</ele>
        <time>2021-08-04T08:29:15Z</time>
      </trkpt>
      <trkpt lat="48.26493" lon="7.39024">
        <ele>337.6</ele>
        <time>2021-08-04T08:29:17Z</time>
      </trkpt>
      <trkpt lat="48.26491" lon="7.3902">
        <ele>337.8</ele>
        <time>2021-08-04T08:29:18Z</time>
      </trkpt>
      <trkpt lat="48.26489" lon="7.39018">
        <ele>337.9</ele>
        <time>2021-08-04T08:29:19Z</time>
      </trkpt>
      <trkpt lat="48.26486" lon="7.39014">
        <ele>338.2</ele>
        <time>2021-08-04T08:29:21Z</time>
      </trkpt>
      <trkpt lat="48.26482" lon="7.39011">
        <ele>338.4</ele>
        <time>2021-08-04T08:29:22Z</time>
      </trkpt>
      <trkpt lat="48.26479" lon="7.39009">
        <ele>338.6</ele>
        <time>2021-08-04T08:29:23Z</time>
      </trkpt>
      <trkpt lat="48.26476" lon="7.39005">
        <ele>338.8</ele>
        <time>2021-08-04T08:29:24Z</time>
      </trkpt>
      <trkpt lat="48.26474" lon="7.39002">
        <ele>339</ele>
        <time>2021-08-04T08:29:26Z</time>
      </trkpt>
      <trkpt lat="48.26472" lon="7.38999">
        <ele>339.2</ele>
        <time>2021-08-04T08:29:27Z</time>
      </trkpt>
      <trkpt lat="48.26469" lon="7.38995">
        <ele>339.4</ele>
        <time>2021-08-04T08:29:29Z</time>
      </trkpt>
      <trkpt lat="48.26468" lon="7.38993">
        <ele>339.5</ele>
        <time>2021-08-04T08:29:30Z</time>
      </trkpt>
      <trkpt lat="48.26465" lon="7.38989">
        <ele>339.7</ele>
        <time>2021-08-04T08:29:32Z</time>
      </trkpt>
      <trkpt lat="48.26462" lon="7.38986">
        <ele>339.9</ele>
        <time>2021-08-04T08:29:34Z</time>
      </trkpt>
      <trkpt lat="48.26461" lon="7.38985">
        <ele>340</ele>
        <time>2021-08-04T08:29:35Z</time>
      </trkpt>
      <trkpt lat="48.26459" lon="7.38984">
        <ele>340.1</ele>
        <time>2021-08-04T08:29:36Z</time>
      </trkpt>
      <trkpt lat="48.26456" lon="7.38982">
        <ele>340.3</ele>
        <time>2021-08-04T08:29:37Z</time>
      </trkpt>
      <trkpt lat="48.26455" lon="7.38982">
        <ele>340.3</ele>
        <time>2021-08-04T08:29:38Z</time>
      </trkpt>
      <trkpt lat="48.26452" lon="7.38981">
        <ele>340.5</ele>
        <time>2021-08-04T08:29:40Z</time>
      </trkpt>
      <trkpt lat="48.26451" lon="7.3898">
        <ele>340.6</ele>
        <time>2021-08-04T08:29:41Z</time>
      </trkpt>
      <trkpt lat="48.26448" lon="7.38979">
        <ele>340.7</ele>
        <time>2021-08-04T08:29:43Z</time>
      </trkpt>
      <trkpt lat="48.26447" lon="7.38979">
        <ele>340.8</ele>
        <time>2021-08-04T08:29:44Z</time>
      </trkpt>
      <trkpt lat="48.26445" lon="7.38979">
        <ele>340.9</ele>
        <time>2021-08-04T08:29:46Z</time>
      </trkpt>
      <trkpt lat="48.26445" lon="7.38978">
        <ele>340.9</ele>
        <time>2021-08-04T08:29:47Z</time>
      </trkpt>
      <trkpt lat="48.26444" lon="7.38977">
        <ele>341</ele>
        <time>2021-08-04T08:29:48Z</time>
      </trkpt>
      <trkpt lat="48.26444" lon="7.38976">
        <ele>341</ele>
        <time>2021-08-04T08:29:49Z</time>
      </trkpt>
      <trkpt lat="48.26444" lon="7.38974">
        <ele>341.1</ele>
        <time>2021-08-04T08:29:51Z</time>
      </trkpt>
      <trkpt lat="48.26443" lon="7.38973">
        <ele>341.1</ele>
        <time>2021-08-04T08:29:52Z</time>
      </trkpt>
      <trkpt lat="48.26443" lon="7.38973">
        <ele>341.1</ele>
        <time>2021-08-04T08:29:53Z</time>
      </trkpt>
      <trkpt lat="48.26442" lon="7.38972">
        <ele>341.2</ele>
        <time>2021-08-04T08:29:55Z</time>
      </trkpt>
      <trkpt lat="48.26442" lon="7.38971">
        <ele>341.2</ele>
        <time>2021-08-04T08:29:56Z</time>
      </trkpt>
      <trkpt lat="48.26441" lon="7.38971">
        <ele>341.3</ele>
        <time>2021-08-04T08:29:57Z</time>
      </trkpt>
      <trkpt lat="48.26435" lon="7.38968">
        <ele>341.7</ele>
        <time>2021-08-04T08:29:59Z</time>
      </trkpt>
      <trkpt lat="48.2643" lon="7.38966">
        <ele>341.9</ele>
        <time>2021-08-04T08:30:08Z</time>
      </trkpt>
      <trkpt lat="48.26426" lon="7.38965">
        <ele>342.2</ele>
        <time>2021-08-04T08:30:09Z</time>
      </trkpt>
      <trkpt lat="48.26421" lon="7.38963">
        <ele>342.4</ele>
        <time>2021-08-04T08:30:10Z</time>
      </trkpt>
      <trkpt lat="48.26418" lon="7.38962">
        <ele>342.6</ele>
        <time>2021-08-04T08:30:11Z</time>
      </trkpt>
      <trkpt lat="48.26417" lon="7.38961">
        <ele>342.7</ele>
        <time>2021-08-04T08:30:12Z</time>
      </trkpt>
      <trkpt lat="48.26413" lon="7.3896">
        <ele>342.9</ele>
        <time>2021-08-04T08:30:14Z</time>
      </trkpt>
      <trkpt lat="48.26409" lon="7.3896">
        <ele>343.1</ele>
        <time>2021-08-04T08:30:16Z</time>
      </trkpt>
      <trkpt lat="48.26407" lon="7.38959">
        <ele>343.2</ele>
        <time>2021-08-04T08:30:17Z</time>
      </trkpt>
      <trkpt lat="48.26405" lon="7.38958">
        <ele>343.3</ele>
        <time>2021-08-04T08:30:18Z</time>
      </trkpt>
      <trkpt lat="48.26403" lon="7.38957">
        <ele>343.4</ele>
        <time>2021-08-04T08:30:19Z</time>
      </trkpt>
      <trkpt lat="48.26402" lon="7.38956">
        <ele>343.5</ele>
        <time>2021-08-04T08:30:21Z</time>
      </trkpt>
      <trkpt lat="48.26399" lon="7.38953">
        <ele>343.7</ele>
        <time>2021-08-04T08:30:23Z</time>
      </trkpt>
      <trkpt lat="48.26398" lon="7.38949">
        <ele>343.9</ele>
        <time>2021-08-04T08:30:25Z</time>
      </trkpt>
      <trkpt lat="48.26399" lon="7.38941">
        <ele>344.2</ele>
        <time>2021-08-04T08:30:27Z</time>
      </trkpt>
      <trkpt lat="48.26398" lon="7.38939">
        <ele>344.3</ele>
        <time>2021-08-04T08:30:28Z</time>
      </trkpt>
      <trkpt lat="48.26398" lon="7.38937">
        <ele>344.3</ele>
        <time>2021-08-04T08:30:29Z</time>
      </trkpt>
      <trkpt lat="48.26398" lon="7.38935">
        <ele>344.4</ele>
        <time>2021-08-04T08:30:30Z</time>
      </trkpt>
      <trkpt lat="48.26397" lon="7.38934">
        <ele>344.5</ele>
        <time>2021-08-04T08:30:31Z</time>
      </trkpt>
      <trkpt lat="48.26396" lon="7.3893">
        <ele>344.6</ele>
        <time>2021-08-04T08:30:33Z</time>
      </trkpt>
      <trkpt lat="48.26396" lon="7.38929">
        <ele>344.7</ele>
        <time>2021-08-04T08:30:34Z</time>
      </trkpt>
      <trkpt lat="48.26395" lon="7.38928">
        <ele>344.7</ele>
        <time>2021-08-04T08:30:35Z</time>
      </trkpt>
      <trkpt lat="48.26395" lon="7.38926">
        <ele>344.8</ele>
        <time>2021-08-04T08:30:37Z</time>
      </trkpt>
      <trkpt lat="48.26395" lon="7.38924">
        <ele>344.8</ele>
        <time>2021-08-04T08:30:38Z</time>
      </trkpt>
      <trkpt lat="48.26395" lon="7.38923">
        <ele>344.9</ele>
        <time>2021-08-04T08:30:39Z</time>
      </trkpt>
      <trkpt lat="48.26396" lon="7.38923">
        <ele>344.9</ele>
        <time>2021-08-04T08:30:40Z</time>
      </trkpt>
      <trkpt lat="48.26396" lon="7.38923">
        <ele>344.9</ele>
        <time>2021-08-04T08:30:41Z</time>
      </trkpt>
      <trkpt lat="48.26396" lon="7.38925">
        <ele>345</ele>
        <time>2021-08-04T08:30:42Z</time>
      </trkpt>
      <trkpt lat="48.26396" lon="7.38926">
        <ele>345.1</ele>
        <time>2021-08-04T08:30:43Z</time>
      </trkpt>
      <trkpt lat="48.26395" lon="7.38927">
        <ele>345.1</ele>
        <time>2021-08-04T08:30:45Z</time>
      </trkpt>
      <trkpt lat="48.26394" lon="7.38928">
        <ele>345.1</ele>
        <time>2021-08-04T08:30:47Z</time>
      </trkpt>
      <trkpt lat="48.26394" lon="7.38927">
        <ele>345.2</ele>
        <time>2021-08-04T08:30:49Z</time>
      </trkpt>
      <trkpt lat="48.26393" lon="7.38927">
        <ele>345.2</ele>
        <time>2021-08-04T08:30:50Z</time>
      </trkpt>
      <trkpt lat="48.26392" lon="7.38925">
        <ele>345.3</ele>
        <time>2021-08-04T08:30:52Z</time>
      </trkpt>
      <trkpt lat="48.2639" lon="7.38921">
        <ele>345.5</ele>
        <time>2021-08-04T08:30:54Z</time>
      </trkpt>
      <trkpt lat="48.26388" lon="7.38917">
        <ele>345.7</ele>
        <time>2021-08-04T08:30:55Z</time>
      </trkpt>
      <trkpt lat="48.26387" lon="7.38915">
        <ele>345.8</ele>
        <time>2021-08-04T08:30:56Z</time>
      </trkpt>
      <trkpt lat="48.26385" lon="7.38912">
        <ele>345.9</ele>
        <time>2021-08-04T08:30:58Z</time>
      </trkpt>
      <trkpt lat="48.26384" lon="7.38911">
        <ele>346</ele>
        <time>2021-08-04T08:30:59Z</time>
      </trkpt>
      <trkpt lat="48.26382" lon="7.38908">
        <ele>346.2</ele>
        <time>2021-08-04T08:31:01Z</time>
      </trkpt>
      <trkpt lat="48.2638" lon="7.38905">
        <ele>346.4</ele>
        <time>2021-08-04T08:31:02Z</time>
      </trkpt>
      <trkpt lat="48.2638" lon="7.38904">
        <ele>346.4</ele>
        <time>2021-08-04T08:31:03Z</time>
      </trkpt>
      <trkpt lat="48.26379" lon="7.38903">
        <ele>346.5</ele>
        <time>2021-08-04T08:31:04Z</time>
      </trkpt>
      <trkpt lat="48.26379" lon="7.38901">
        <ele>346.6</ele>
        <time>2021-08-04T08:31:06Z</time>
      </trkpt>
      <trkpt lat="48.26378" lon="7.38899">
        <ele>346.7</ele>
        <time>2021-08-04T08:31:07Z</time>
      </trkpt>
      <trkpt lat="48.26378" lon="7.38897">
        <ele>346.8</ele>
        <time>2021-08-04T08:31:08Z</time>
      </trkpt>
      <trkpt lat="48.26378" lon="7.38893">
        <ele>347</ele>
        <time>2021-08-04T08:31:10Z</time>
      </trkpt>
      <trkpt lat="48.26377" lon="7.38891">
        <ele>347.1</ele>
        <time>2021-08-04T08:31:12Z</time>
      </trkpt>
      <trkpt lat="48.26376" lon="7.3889">
        <ele>347.1</ele>
        <time>2021-08-04T08:31:13Z</time>
      </trkpt>
      <trkpt lat="48.26376" lon="7.38889">
        <ele>347.1</ele>
        <time>2021-08-04T08:31:14Z</time>
      </trkpt>
      <trkpt lat="48.26376" lon="7.3889">
        <ele>347.2</ele>
        <time>2021-08-04T08:31:15Z</time>
      </trkpt>
      <trkpt lat="48.26375" lon="7.3889">
        <ele>347.2</ele>
        <time>2021-08-04T08:31:16Z</time>
      </trkpt>
      <trkpt lat="48.26375" lon="7.3889">
        <ele>347.2</ele>
        <time>2021-08-04T08:31:17Z</time>
      </trkpt>
      <trkpt lat="48.26374" lon="7.3889">
        <ele>347.3</ele>
        <time>2021-08-04T08:31:18Z</time>
      </trkpt>
      <trkpt lat="48.26373" lon="7.38889">
        <ele>347.4</ele>
        <time>2021-08-04T08:31:19Z</time>
      </trkpt>
      <trkpt lat="48.26372" lon="7.38889">
        <ele>347.4</ele>
        <time>2021-08-04T08:31:20Z</time>
      </trkpt>
      <trkpt lat="48.2637" lon="7.38888">
        <ele>347.5</ele>
        <time>2021-08-04T08:31:21Z</time>
      </trkpt>
      <trkpt lat="48.26369" lon="7.38886">
        <ele>347.7</ele>
        <time>2021-08-04T08:31:23Z</time>
      </trkpt>
      <trkpt lat="48.26366" lon="7.38883">
        <ele>347.8</ele>
        <time>2021-08-04T08:31:25Z</time>
      </trkpt>
      <trkpt lat="48.26366" lon="7.38883">
        <ele>347.9</ele>
        <time>2021-08-04T08:31:26Z</time>
      </trkpt>
      <trkpt lat="48.26364" lon="7.38881">
        <ele>348</ele>
        <time>2021-08-04T08:31:27Z</time>
      </trkpt>
      <trkpt lat="48.26362" lon="7.38877">
        <ele>348.2</ele>
        <time>2021-08-04T08:31:29Z</time>
      </trkpt>
      <trkpt lat="48.26361" lon="7.38876">
        <ele>348.3</ele>
        <time>2021-08-04T08:31:30Z</time>
      </trkpt>
      <trkpt lat="48.2636" lon="7.38874">
        <ele>348.4</ele>
        <time>2021-08-04T08:31:31Z</time>
      </trkpt>
      <trkpt lat="48.26358" lon="7.38872">
        <ele>348.5</ele>
        <time>2021-08-04T08:31:32Z</time>
      </trkpt>
      <trkpt lat="48.26357" lon="7.38868">
        <ele>348.7</ele>
        <time>2021-08-04T08:31:34Z</time>
      </trkpt>
      <trkpt lat="48.26355" lon="7.38865">
        <ele>348.8</ele>
        <time>2021-08-04T08:31:36Z</time>
      </trkpt>
      <trkpt lat="48.26355" lon="7.38865">
        <ele>348.8</ele>
        <time>2021-08-04T08:31:37Z</time>
      </trkpt>
      <trkpt lat="48.26355" lon="7.38865">
        <ele>348.8</ele>
        <time>2021-08-04T08:31:38Z</time>
      </trkpt>
      <trkpt lat="48.26355" lon="7.38864">
        <ele>348.9</ele>
        <time>2021-08-04T08:31:39Z</time>
      </trkpt>
      <trkpt lat="48.26354" lon="7.38863">
        <ele>349</ele>
        <time>2021-08-04T08:31:41Z</time>
      </trkpt>
      <trkpt lat="48.26353" lon="7.38863">
        <ele>349</ele>
        <time>2021-08-04T08:31:42Z</time>
      </trkpt>
      <trkpt lat="48.26352" lon="7.38862">
        <ele>349.1</ele>
        <time>2021-08-04T08:31:43Z</time>
      </trkpt>
      <trkpt lat="48.26351" lon="7.38861">
        <ele>349.1</ele>
        <time>2021-08-04T08:31:45Z</time>
      </trkpt>
      <trkpt lat="48.2633" lon="7.38818">
        <ele>351.2</ele>
        <time>2021-08-04T08:33:46Z</time>
      </trkpt>
      <trkpt lat="48.26327" lon="7.38815">
        <ele>351.4</ele>
        <time>2021-08-04T08:33:48Z</time>
      </trkpt>
      <trkpt lat="48.26325" lon="7.38813">
        <ele>351.6</ele>
        <time>2021-08-04T08:33:49Z</time>
      </trkpt>
      <trkpt lat="48.26321" lon="7.3881">
        <ele>351.8</ele>
        <time>2021-08-04T08:33:51Z</time>
      </trkpt>
      <trkpt lat="48.26319" lon="7.38808">
        <ele>351.9</ele>
        <time>2021-08-04T08:33:52Z</time>
      </trkpt>
      <trkpt lat="48.26315" lon="7.38805">
        <ele>352.2</ele>
        <time>2021-08-04T08:33:54Z</time>
      </trkpt>
      <trkpt lat="48.26312" lon="7.38801">
        <ele>352.5</ele>
        <time>2021-08-04T08:33:55Z</time>
      </trkpt>
      <trkpt lat="48.2631" lon="7.388">
        <ele>352.6</ele>
        <time>2021-08-04T08:33:56Z</time>
      </trkpt>
      <trkpt lat="48.26308" lon="7.38797">
        <ele>352.8</ele>
        <time>2021-08-04T08:33:58Z</time>
      </trkpt>
      <trkpt lat="48.26305" lon="7.38795">
        <ele>353</ele>
        <time>2021-08-04T08:33:59Z</time>
      </trkpt>
      <trkpt lat="48.26303" lon="7.38792">
        <ele>353.2</ele>
        <time>2021-08-04T08:34:00Z</time>
      </trkpt>
      <trkpt lat="48.26301" lon="7.38788">
        <ele>353.4</ele>
        <time>2021-08-04T08:34:02Z</time>
      </trkpt>
      <trkpt lat="48.263" lon="7.38785">
        <ele>353.6</ele>
        <time>2021-08-04T08:34:03Z</time>
      </trkpt>
      <trkpt lat="48.26298" lon="7.38781">
        <ele>353.8</ele>
        <time>2021-08-04T08:34:05Z</time>
      </trkpt>
      <trkpt lat="48.26297" lon="7.38778">
        <ele>353.9</ele>
        <time>2021-08-04T08:34:06Z</time>
      </trkpt>
      <trkpt lat="48.26297" lon="7.38776">
        <ele>354</ele>
        <time>2021-08-04T08:34:07Z</time>
      </trkpt>
      <trkpt lat="48.26296" lon="7.38774">
        <ele>354.1</ele>
        <time>2021-08-04T08:34:08Z</time>
      </trkpt>
      <trkpt lat="48.26295" lon="7.38772">
        <ele>354.2</ele>
        <time>2021-08-04T08:34:09Z</time>
      </trkpt>
      <trkpt lat="48.26295" lon="7.38771">
        <ele>354.2</ele>
        <time>2021-08-04T08:34:11Z</time>
      </trkpt>
      <trkpt lat="48.26294" lon="7.3877">
        <ele>354.3</ele>
        <time>2021-08-04T08:34:12Z</time>
      </trkpt>
      <trkpt lat="48.26294" lon="7.38769">
        <ele>354.4</ele>
        <time>2021-08-04T08:34:14Z</time>
      </trkpt>
      <trkpt lat="48.26293" lon="7.38768">
        <ele>354.4</ele>
        <time>2021-08-04T08:34:15Z</time>
      </trkpt>
      <trkpt lat="48.26292" lon="7.38765">
        <ele>354.6</ele>
        <time>2021-08-04T08:34:17Z</time>
      </trkpt>
      <trkpt lat="48.26292" lon="7.38764">
        <ele>354.6</ele>
        <time>2021-08-04T08:34:18Z</time>
      </trkpt>
      <trkpt lat="48.26291" lon="7.38761">
        <ele>354.8</ele>
        <time>2021-08-04T08:34:19Z</time>
      </trkpt>
      <trkpt lat="48.26291" lon="7.3876">
        <ele>354.9</ele>
        <time>2021-08-04T08:34:21Z</time>
      </trkpt>
      <trkpt lat="48.2629" lon="7.38758">
        <ele>354.9</ele>
        <time>2021-08-04T08:34:22Z</time>
      </trkpt>
      <trkpt lat="48.26289" lon="7.38757">
        <ele>355</ele>
        <time>2021-08-04T08:34:23Z</time>
      </trkpt>
      <trkpt lat="48.26288" lon="7.38755">
        <ele>355.2</ele>
        <time>2021-08-04T08:34:25Z</time>
      </trkpt>
      <trkpt lat="48.26287" lon="7.38753">
        <ele>355.3</ele>
        <time>2021-08-04T08:34:26Z</time>
      </trkpt>
      <trkpt lat="48.26287" lon="7.3875">
        <ele>355.4</ele>
        <time>2021-08-04T08:34:27Z</time>
      </trkpt>
      <trkpt lat="48.26285" lon="7.38745">
        <ele>355.7</ele>
        <time>2021-08-04T08:34:29Z</time>
      </trkpt>
      <trkpt lat="48.26285" lon="7.38744">
        <ele>355.8</ele>
        <time>2021-08-04T08:34:30Z</time>
      </trkpt>
      <trkpt lat="48.26285" lon="7.38741">
        <ele>355.9</ele>
        <time>2021-08-04T08:34:31Z</time>
      </trkpt>
      <trkpt lat="48.26284" lon="7.38739">
        <ele>356</ele>
        <time>2021-08-04T08:34:33Z</time>
      </trkpt>
      <trkpt lat="48.26284" lon="7.38737">
        <ele>356.1</ele>
        <time>2021-08-04T08:34:34Z</time>
      </trkpt>
      <trkpt lat="48.26283" lon="7.38734">
        <ele>356.3</ele>
        <time>2021-08-04T08:34:36Z</time>
      </trkpt>
      <trkpt lat="48.26283" lon="7.38734">
        <ele>356.3</ele>
        <time>2021-08-04T08:34:37Z</time>
      </trkpt>
      <trkpt lat="48.26283" lon="7.38732">
        <ele>356.4</ele>
        <time>2021-08-04T08:34:39Z</time>
      </trkpt>
      <trkpt lat="48.26283" lon="7.38731">
        <ele>356.4</ele>
        <time>2021-08-04T08:34:40Z</time>
      </trkpt>
      <trkpt lat="48.26282" lon="7.38729">
        <ele>356.5</ele>
        <time>2021-08-04T08:34:42Z</time>
      </trkpt>
      <trkpt lat="48.26282" lon="7.38728">
        <ele>356.6</ele>
        <time>2021-08-04T08:34:43Z</time>
      </trkpt>
      <trkpt lat="48.2628" lon="7.38725">
        <ele>356.8</ele>
        <time>2021-08-04T08:34:44Z</time>
      </trkpt>
      <trkpt lat="48.26279" lon="7.38723">
        <ele>356.9</ele>
        <time>2021-08-04T08:34:46Z</time>
      </trkpt>
      <trkpt lat="48.26278" lon="7.38721">
        <ele>357.1</ele>
        <time>2021-08-04T08:34:47Z</time>
      </trkpt>
      <trkpt lat="48.26277" lon="7.38719">
        <ele>357.2</ele>
        <time>2021-08-04T08:34:48Z</time>
      </trkpt>
      <trkpt lat="48.26276" lon="7.38717">
        <ele>357.3</ele>
        <time>2021-08-04T08:34:49Z</time>
      </trkpt>
      <trkpt lat="48.26275" lon="7.38716">
        <ele>357.4</ele>
        <time>2021-08-04T08:34:50Z</time>
      </trkpt>
      <trkpt lat="48.26274" lon="7.38715">
        <ele>357.5</ele>
        <time>2021-08-04T08:34:51Z</time>
      </trkpt>
      <trkpt lat="48.26273" lon="7.38714">
        <ele>357.6</ele>
        <time>2021-08-04T08:34:53Z</time>
      </trkpt>
      <trkpt lat="48.26272" lon="7.38712">
        <ele>357.7</ele>
        <time>2021-08-04T08:34:54Z</time>
      </trkpt>
      <trkpt lat="48.26272" lon="7.38707">
        <ele>357.9</ele>
        <time>2021-08-04T08:34:55Z</time>
      </trkpt>
      <trkpt lat="48.26271" lon="7.38702">
        <ele>358.2</ele>
        <time>2021-08-04T08:34:57Z</time>
      </trkpt>
      <trkpt lat="48.26271" lon="7.38698">
        <ele>358.4</ele>
        <time>2021-08-04T08:34:59Z</time>
      </trkpt>
      <trkpt lat="48.2627" lon="7.38694">
        <ele>358.4</ele>
        <time>2021-08-04T08:35:07Z</time>
      </trkpt>
      <trkpt lat="48.2627" lon="7.3869">
        <ele>358.5</ele>
        <time>2021-08-04T08:35:09Z</time>
      </trkpt>
      <trkpt lat="48.26269" lon="7.38685">
        <ele>358.7</ele>
        <time>2021-08-04T08:35:10Z</time>
      </trkpt>
      <trkpt lat="48.26268" lon="7.3868">
        <ele>359</ele>
        <time>2021-08-04T08:35:11Z</time>
      </trkpt>
      <trkpt lat="48.26266" lon="7.38677">
        <ele>359.3</ele>
        <time>2021-08-04T08:35:12Z</time>
      </trkpt>
      <trkpt lat="48.26264" lon="7.38677">
        <ele>359.4</ele>
        <time>2021-08-04T08:35:14Z</time>
      </trkpt>
      <trkpt lat="48.26262" lon="7.38677">
        <ele>359.6</ele>
        <time>2021-08-04T08:35:15Z</time>
      </trkpt>
      <trkpt lat="48.2626" lon="7.38677">
        <ele>359.8</ele>
        <time>2021-08-04T08:35:16Z</time>
      </trkpt>
      <trkpt lat="48.26258" lon="7.38677">
        <ele>359.9</ele>
        <time>2021-08-04T08:35:17Z</time>
      </trkpt>
      <trkpt lat="48.26256" lon="7.38677">
        <ele>360.1</ele>
        <time>2021-08-04T08:35:19Z</time>
      </trkpt>
      <trkpt lat="48.26254" lon="7.38677">
        <ele>360.2</ele>
        <time>2021-08-04T08:35:21Z</time>
      </trkpt>
      <trkpt lat="48.26252" lon="7.38677">
        <ele>360.4</ele>
        <time>2021-08-04T08:35:22Z</time>
      </trkpt>
      <trkpt lat="48.2625" lon="7.38677">
        <ele>360.5</ele>
        <time>2021-08-04T08:35:23Z</time>
      </trkpt>
      <trkpt lat="48.26249" lon="7.38677">
        <ele>360.7</ele>
        <time>2021-08-04T08:35:25Z</time>
      </trkpt>
      <trkpt lat="48.26247" lon="7.38677">
        <ele>360.8</ele>
        <time>2021-08-04T08:35:40Z</time>
      </trkpt>
      <trkpt lat="48.26245" lon="7.38677">
        <ele>361</ele>
        <time>2021-08-04T08:35:42Z</time>
      </trkpt>
      <trkpt lat="48.26243" lon="7.38677">
        <ele>361.1</ele>
        <time>2021-08-04T08:35:43Z</time>
      </trkpt>
      <trkpt lat="48.2624" lon="7.38678">
        <ele>361.3</ele>
        <time>2021-08-04T08:35:44Z</time>
      </trkpt>
      <trkpt lat="48.26239" lon="7.38679">
        <ele>361.4</ele>
        <time>2021-08-04T08:35:45Z</time>
      </trkpt>
      <trkpt lat="48.26235" lon="7.3868">
        <ele>361.7</ele>
        <time>2021-08-04T08:35:47Z</time>
      </trkpt>
      <trkpt lat="48.26233" lon="7.3868">
        <ele>361.8</ele>
        <time>2021-08-04T08:35:48Z</time>
      </trkpt>
      <trkpt lat="48.26232" lon="7.38679">
        <ele>361.9</ele>
        <time>2021-08-04T08:35:49Z</time>
      </trkpt>
      <trkpt lat="48.26229" lon="7.38679">
        <ele>362.1</ele>
        <time>2021-08-04T08:35:50Z</time>
      </trkpt>
      <trkpt lat="48.26226" lon="7.38678">
        <ele>362.3</ele>
        <time>2021-08-04T08:35:51Z</time>
      </trkpt>
      <trkpt lat="48.26224" lon="7.38678">
        <ele>362.4</ele>
        <time>2021-08-04T08:35:53Z</time>
      </trkpt>
      <trkpt lat="48.26222" lon="7.38678">
        <ele>362.5</ele>
        <time>2021-08-04T08:35:54Z</time>
      </trkpt>
      <trkpt lat="48.26221" lon="7.38677">
        <ele>362.6</ele>
        <time>2021-08-04T08:35:55Z</time>
      </trkpt>
      <trkpt lat="48.26218" lon="7.38677">
        <ele>362.8</ele>
        <time>2021-08-04T08:35:56Z</time>
      </trkpt>
      <trkpt lat="48.26217" lon="7.38677">
        <ele>362.9</ele>
        <time>2021-08-04T08:35:57Z</time>
      </trkpt>
      <trkpt lat="48.26216" lon="7.38676">
        <ele>362.9</ele>
        <time>2021-08-04T08:35:58Z</time>
      </trkpt>
      <trkpt lat="48.26216" lon="7.38676">
        <ele>363</ele>
        <time>2021-08-04T08:35:59Z</time>
      </trkpt>
      <trkpt lat="48.26215" lon="7.38676">
        <ele>363.1</ele>
        <time>2021-08-04T08:36:00Z</time>
      </trkpt>
      <trkpt lat="48.26215" lon="7.38678">
        <ele>363.1</ele>
        <time>2021-08-04T08:36:02Z</time>
      </trkpt>
      <trkpt lat="48.26216" lon="7.38679">
        <ele>363.2</ele>
        <time>2021-08-04T08:36:03Z</time>
      </trkpt>
      <trkpt lat="48.26217" lon="7.38682">
        <ele>363.3</ele>
        <time>2021-08-04T08:36:05Z</time>
      </trkpt>
      <trkpt lat="48.26217" lon="7.38683">
        <ele>363.4</ele>
        <time>2021-08-04T08:36:06Z</time>
      </trkpt>
      <trkpt lat="48.26216" lon="7.38684">
        <ele>363.5</ele>
        <time>2021-08-04T08:36:08Z</time>
      </trkpt>
      <trkpt lat="48.26216" lon="7.38685">
        <ele>363.5</ele>
        <time>2021-08-04T08:36:09Z</time>
      </trkpt>
      <trkpt lat="48.26215" lon="7.38686">
        <ele>363.6</ele>
        <time>2021-08-04T08:36:10Z</time>
      </trkpt>
      <trkpt lat="48.26159" lon="7.3864">
        <ele>368.6</ele>
        <time>2021-08-04T08:37:06Z</time>
      </trkpt>
      <trkpt lat="48.26158" lon="7.38636">
        <ele>368.8</ele>
        <time>2021-08-04T08:37:07Z</time>
      </trkpt>
      <trkpt lat="48.26156" lon="7.38632">
        <ele>369</ele>
        <time>2021-08-04T08:37:08Z</time>
      </trkpt>
      <trkpt lat="48.26155" lon="7.38631">
        <ele>369.1</ele>
        <time>2021-08-04T08:37:09Z</time>
      </trkpt>
      <trkpt lat="48.26154" lon="7.38632">
        <ele>369.2</ele>
        <time>2021-08-04T08:37:11Z</time>
      </trkpt>
      <trkpt lat="48.26153" lon="7.38632">
        <ele>369.3</ele>
        <time>2021-08-04T08:37:12Z</time>
      </trkpt>
      <trkpt lat="48.26151" lon="7.38633">
        <ele>369.4</ele>
        <time>2021-08-04T08:37:14Z</time>
      </trkpt>
      <trkpt lat="48.2615" lon="7.38632">
        <ele>369.5</ele>
        <time>2021-08-04T08:37:15Z</time>
      </trkpt>
      <trkpt lat="48.26149" lon="7.38632">
        <ele>369.6</ele>
        <time>2021-08-04T08:37:16Z</time>
      </trkpt>
      <trkpt lat="48.26148" lon="7.38632">
        <ele>369.6</ele>
        <time>2021-08-04T08:37:17Z</time>
      </trkpt>
      <trkpt lat="48.26147" lon="7.38631">
        <ele>369.7</ele>
        <time>2021-08-04T08:37:18Z</time>
      </trkpt>
      <trkpt lat="48.26146" lon="7.38629">
        <ele>369.8</ele>
        <time>2021-08-04T08:37:20Z</time>
      </trkpt>
      <trkpt lat="48.26134" lon="7.38616">
        <ele>371</ele>
        <time>2021-08-04T08:37:27Z</time>
      </trkpt>
      <trkpt lat="48.26133" lon="7.38614">
        <ele>371.1</ele>
        <time>2021-08-04T08:37:29Z</time>
      </trkpt>
      <trkpt lat="48.26131" lon="7.38613">
        <ele>371.2</ele>
        <time>2021-08-04T08:37:30Z</time>
      </trkpt>
      <trkpt lat="48.2613" lon="7.38612">
        <ele>371.4</ele>
        <time>2021-08-04T08:37:32Z</time>
      </trkpt>
      <trkpt lat="48.2613" lon="7.3861">
        <ele>371.5</ele>
        <time>2021-08-04T08:37:33Z</time>
      </trkpt>
      <trkpt lat="48.26129" lon="7.38609">
        <ele>371.5</ele>
        <time>2021-08-04T08:37:34Z</time>
      </trkpt>
      <trkpt lat="48.26129" lon="7.38609">
        <ele>371.6</ele>
        <time>2021-08-04T08:37:36Z</time>
      </trkpt>
      <trkpt lat="48.26129" lon="7.38608">
        <ele>371.6</ele>
        <time>2021-08-04T08:37:37Z</time>
      </trkpt>
      <trkpt lat="48.26129" lon="7.38607">
        <ele>371.6</ele>
        <time>2021-08-04T08:37:38Z</time>
      </trkpt>
      <trkpt lat="48.26129" lon="7.38606">
        <ele>371.7</ele>
        <time>2021-08-04T08:37:39Z</time>
      </trkpt>
      <trkpt lat="48.26128" lon="7.38603">
        <ele>371.9</ele>
        <time>2021-08-04T08:37:40Z</time>
      </trkpt>
      <trkpt lat="48.26128" lon="7.38602">
        <ele>372</ele>
        <time>2021-08-04T08:37:41Z</time>
      </trkpt>
      <trkpt lat="48.26127" lon="7.386">
        <ele>372.1</ele>
        <time>2021-08-04T08:37:42Z</time>
      </trkpt>
      <trkpt lat="48.26127" lon="7.38599">
        <ele>372.2</ele>
        <time>2021-08-04T08:37:43Z</time>
      </trkpt>
      <trkpt lat="48.26124" lon="7.38592">
        <ele>372.6</ele>
        <time>2021-08-04T08:37:46Z</time>
      </trkpt>
      <trkpt lat="48.26122" lon="7.38589">
        <ele>372.9</ele>
        <time>2021-08-04T08:37:48Z</time>
      </trkpt>
      <trkpt lat="48.26121" lon="7.38588">
        <ele>372.9</ele>
        <time>2021-08-04T08:37:49Z</time>
      </trkpt>
      <trkpt lat="48.26119" lon="7.38586">
        <ele>373.2</ele>
        <time>2021-08-04T08:37:50Z</time>
      </trkpt>
      <trkpt lat="48.26118" lon="7.38584">
        <ele>373.3</ele>
        <time>2021-08-04T08:37:52Z</time>
      </trkpt>
      <trkpt lat="48.26118" lon="7.38582">
        <ele>373.4</ele>
        <time>2021-08-04T08:37:53Z</time>
      </trkpt>
      <trkpt lat="48.26118" lon="7.38579">
        <ele>373.6</ele>
        <time>2021-08-04T08:37:54Z</time>
      </trkpt>
      <trkpt lat="48.26119" lon="7.38575">
        <ele>373.8</ele>
        <time>2021-08-04T08:37:55Z</time>
      </trkpt>
      <trkpt lat="48.26119" lon="7.38573">
        <ele>373.9</ele>
        <time>2021-08-04T08:37:56Z</time>
      </trkpt>
      <trkpt lat="48.26121" lon="7.38565">
        <ele>374.4</ele>
        <time>2021-08-04T08:37:58Z</time>
      </trkpt>
      <trkpt lat="48.26123" lon="7.38561">
        <ele>374.7</ele>
        <time>2021-08-04T08:38:00Z</time>
      </trkpt>
      <trkpt lat="48.26123" lon="7.3856">
        <ele>374.8</ele>
        <time>2021-08-04T08:38:01Z</time>
      </trkpt>
      <trkpt lat="48.26124" lon="7.38557">
        <ele>375</ele>
        <time>2021-08-04T08:38:03Z</time>
      </trkpt>
      <trkpt lat="48.26125" lon="7.38555">
        <ele>375.1</ele>
        <time>2021-08-04T08:38:04Z</time>
      </trkpt>
      <trkpt lat="48.26125" lon="7.38552">
        <ele>375.2</ele>
        <time>2021-08-04T08:38:05Z</time>
      </trkpt>
      <trkpt lat="48.26124" lon="7.38552">
        <ele>375.3</ele>
        <time>2021-08-04T08:38:07Z</time>
      </trkpt>
      <trkpt lat="48.26124" lon="7.38552">
        <ele>375.3</ele>
        <time>2021-08-04T08:38:08Z</time>
      </trkpt>
      <trkpt lat="48.26123" lon="7.38552">
        <ele>375.4</ele>
        <time>2021-08-04T08:38:09Z</time>
      </trkpt>
      <trkpt lat="48.26122" lon="7.38551">
        <ele>375.4</ele>
        <time>2021-08-04T08:38:11Z</time>
      </trkpt>
      <trkpt lat="48.26122" lon="7.38551">
        <ele>375.5</ele>
        <time>2021-08-04T08:38:12Z</time>
      </trkpt>
      <trkpt lat="48.26121" lon="7.38551">
        <ele>375.5</ele>
        <time>2021-08-04T08:38:13Z</time>
      </trkpt>
      <trkpt lat="48.2612" lon="7.3855">
        <ele>375.6</ele>
        <time>2021-08-04T08:38:14Z</time>
      </trkpt>
      <trkpt lat="48.26118" lon="7.38549">
        <ele>375.8</ele>
        <time>2021-08-04T08:38:15Z</time>
      </trkpt>
      <trkpt lat="48.26107" lon="7.38539">
        <ele>376.9</ele>
        <time>2021-08-04T08:38:23Z</time>
      </trkpt>
      <trkpt lat="48.26104" lon="7.38536">
        <ele>377.2</ele>
        <time>2021-08-04T08:38:24Z</time>
      </trkpt>
      <trkpt lat="48.26103" lon="7.38535">
        <ele>377.3</ele>
        <time>2021-08-04T08:38:25Z</time>
      </trkpt>
      <trkpt lat="48.26101" lon="7.38532">
        <ele>377.5</ele>
        <time>2021-08-04T08:38:26Z</time>
      </trkpt>
      <trkpt lat="48.261" lon="7.38531">
        <ele>377.6</ele>
        <time>2021-08-04T08:38:27Z</time>
      </trkpt>
      <trkpt lat="48.26098" lon="7.38528">
        <ele>377.8</ele>
        <time>2021-08-04T08:38:28Z</time>
      </trkpt>
      <trkpt lat="48.26097" lon="7.38524">
        <ele>378.1</ele>
        <time>2021-08-04T08:38:30Z</time>
      </trkpt>
      <trkpt lat="48.26096" lon="7.38522">
        <ele>378.2</ele>
        <time>2021-08-04T08:38:31Z</time>
      </trkpt>
      <trkpt lat="48.26096" lon="7.3852">
        <ele>378.3</ele>
        <time>2021-08-04T08:38:32Z</time>
      </trkpt>
      <trkpt lat="48.26096" lon="7.38515">
        <ele>378.5</ele>
        <time>2021-08-04T08:38:34Z</time>
      </trkpt>
      <trkpt lat="48.26096" lon="7.38514">
        <ele>378.6</ele>
        <time>2021-08-04T08:38:35Z</time>
      </trkpt>
      <trkpt lat="48.26097" lon="7.3851">
        <ele>378.8</ele>
        <time>2021-08-04T08:38:36Z</time>
      </trkpt>
      <trkpt lat="48.26097" lon="7.38509">
        <ele>378.9</ele>
        <time>2021-08-04T08:38:37Z</time>
      </trkpt>
      <trkpt lat="48.26097" lon="7.38505">
        <ele>379</ele>
        <time>2021-08-04T08:38:38Z</time>
      </trkpt>
      <trkpt lat="48.26097" lon="7.38504">
        <ele>379.1</ele>
        <time>2021-08-04T08:38:39Z</time>
      </trkpt>
      <trkpt lat="48.26097" lon="7.38502">
        <ele>379.2</ele>
        <time>2021-08-04T08:38:40Z</time>
      </trkpt>
      <trkpt lat="48.26096" lon="7.38501">
        <ele>379.3</ele>
        <time>2021-08-04T08:38:41Z</time>
      </trkpt>
      <trkpt lat="48.26095" lon="7.38498">
        <ele>379.4</ele>
        <time>2021-08-04T08:38:42Z</time>
      </trkpt>
      <trkpt lat="48.26094" lon="7.38496">
        <ele>379.5</ele>
        <time>2021-08-04T08:38:44Z</time>
      </trkpt>
      <trkpt lat="48.26093" lon="7.38494">
        <ele>379.6</ele>
        <time>2021-08-04T08:38:45Z</time>
      </trkpt>
      <trkpt lat="48.26093" lon="7.38491">
        <ele>379.8</ele>
        <time>2021-08-04T08:38:47Z</time>
      </trkpt>
      <trkpt lat="48.26092" lon="7.38488">
        <ele>379.9</ele>
        <time>2021-08-04T08:38:49Z</time>
      </trkpt>
      <trkpt lat="48.26092" lon="7.38486">
        <ele>380</ele>
        <time>2021-08-04T08:38:51Z</time>
      </trkpt>
      <trkpt lat="48.26093" lon="7.38487">
        <ele>380</ele>
        <time>2021-08-04T08:38:52Z</time>
      </trkpt>
      <trkpt lat="48.26093" lon="7.38488">
        <ele>380.1</ele>
        <time>2021-08-04T08:38:54Z</time>
      </trkpt>
      <trkpt lat="48.26093" lon="7.38488">
        <ele>380.1</ele>
        <time>2021-08-04T08:38:55Z</time>
      </trkpt>
      <trkpt lat="48.26093" lon="7.38488">
        <ele>380.1</ele>
        <time>2021-08-04T08:38:56Z</time>
      </trkpt>
      <trkpt lat="48.26092" lon="7.38488">
        <ele>380.1</ele>
        <time>2021-08-04T08:38:58Z</time>
      </trkpt>
      <trkpt lat="48.26091" lon="7.38487">
        <ele>380.2</ele>
        <time>2021-08-04T08:38:59Z</time>
      </trkpt>
      <trkpt lat="48.2609" lon="7.38486">
        <ele>380.3</ele>
        <time>2021-08-04T08:39:00Z</time>
      </trkpt>
      <trkpt lat="48.26089" lon="7.38484">
        <ele>380.4</ele>
        <time>2021-08-04T08:39:02Z</time>
      </trkpt>
      <trkpt lat="48.2608" lon="7.38476">
        <ele>381</ele>
        <time>2021-08-04T08:39:09Z</time>
      </trkpt>
      <trkpt lat="48.26078" lon="7.38474">
        <ele>381.2</ele>
        <time>2021-08-04T08:39:10Z</time>
      </trkpt>
      <trkpt lat="48.26076" lon="7.38473">
        <ele>381.4</ele>
        <time>2021-08-04T08:39:11Z</time>
      </trkpt>
      <trkpt lat="48.26073" lon="7.38471">
        <ele>381.6</ele>
        <time>2021-08-04T08:39:13Z</time>
      </trkpt>
      <trkpt lat="48.2607" lon="7.38467">
        <ele>381.8</ele>
        <time>2021-08-04T08:39:14Z</time>
      </trkpt>
      <trkpt lat="48.26069" lon="7.38466">
        <ele>381.9</ele>
        <time>2021-08-04T08:39:15Z</time>
      </trkpt>
      <trkpt lat="48.26067" lon="7.38463">
        <ele>382.1</ele>
        <time>2021-08-04T08:39:16Z</time>
      </trkpt>
      <trkpt lat="48.26064" lon="7.38458">
        <ele>382.4</ele>
        <time>2021-08-04T08:39:18Z</time>
      </trkpt>
      <trkpt lat="48.26063" lon="7.38457">
        <ele>382.5</ele>
        <time>2021-08-04T08:39:19Z</time>
      </trkpt>
      <trkpt lat="48.26062" lon="7.38455">
        <ele>382.6</ele>
        <time>2021-08-04T08:39:20Z</time>
      </trkpt>
      <trkpt lat="48.26059" lon="7.38452">
        <ele>382.8</ele>
        <time>2021-08-04T08:39:22Z</time>
      </trkpt>
      <trkpt lat="48.26058" lon="7.38451">
        <ele>382.9</ele>
        <time>2021-08-04T08:39:23Z</time>
      </trkpt>
      <trkpt lat="48.26057" lon="7.38448">
        <ele>383.1</ele>
        <time>2021-08-04T08:39:24Z</time>
      </trkpt>
      <trkpt lat="48.26056" lon="7.38447">
        <ele>383.1</ele>
        <time>2021-08-04T08:39:25Z</time>
      </trkpt>
      <trkpt lat="48.26055" lon="7.38444">
        <ele>383.3</ele>
        <time>2021-08-04T08:39:26Z</time>
      </trkpt>
      <trkpt lat="48.26054" lon="7.38442">
        <ele>383.4</ele>
        <time>2021-08-04T08:39:28Z</time>
      </trkpt>
      <trkpt lat="48.26054" lon="7.38441">
        <ele>383.5</ele>
        <time>2021-08-04T08:39:29Z</time>
      </trkpt>
      <trkpt lat="48.26053" lon="7.38439">
        <ele>383.5</ele>
        <time>2021-08-04T08:39:30Z</time>
      </trkpt>
      <trkpt lat="48.26053" lon="7.38438">
        <ele>383.6</ele>
        <time>2021-08-04T08:39:31Z</time>
      </trkpt>
      <trkpt lat="48.26053" lon="7.38435">
        <ele>383.7</ele>
        <time>2021-08-04T08:39:33Z</time>
      </trkpt>
      <trkpt lat="48.26053" lon="7.38433">
        <ele>383.9</ele>
        <time>2021-08-04T08:39:34Z</time>
      </trkpt>
      <trkpt lat="48.26053" lon="7.38431">
        <ele>383.9</ele>
        <time>2021-08-04T08:39:35Z</time>
      </trkpt>
      <trkpt lat="48.26051" lon="7.38427">
        <ele>384.1</ele>
        <time>2021-08-04T08:39:37Z</time>
      </trkpt>
      <trkpt lat="48.26048" lon="7.38426">
        <ele>384.4</ele>
        <time>2021-08-04T08:39:39Z</time>
      </trkpt>
      <trkpt lat="48.26045" lon="7.38426">
        <ele>384.6</ele>
        <time>2021-08-04T08:39:41Z</time>
      </trkpt>
      <trkpt lat="48.26041" lon="7.38425">
        <ele>384.9</ele>
        <time>2021-08-04T08:39:42Z</time>
      </trkpt>
      <trkpt lat="48.26038" lon="7.38424">
        <ele>385.1</ele>
        <time>2021-08-04T08:39:43Z</time>
      </trkpt>
      <trkpt lat="48.26034" lon="7.38423">
        <ele>385.4</ele>
        <time>2021-08-04T08:39:44Z</time>
      </trkpt>
      <trkpt lat="48.26031" lon="7.38422">
        <ele>385.6</ele>
        <time>2021-08-04T08:39:46Z</time>
      </trkpt>
      <trkpt lat="48.26029" lon="7.38422">
        <ele>385.7</ele>
        <time>2021-08-04T08:39:47Z</time>
      </trkpt>
      <trkpt lat="48.26028" lon="7.38423">
        <ele>385.8</ele>
        <time>2021-08-04T08:39:48Z</time>
      </trkpt>
      <trkpt lat="48.26027" lon="7.38423">
        <ele>385.9</ele>
        <time>2021-08-04T08:39:49Z</time>
      </trkpt>
      <trkpt lat="48.26026" lon="7.38422">
        <ele>386</ele>
        <time>2021-08-04T08:39:51Z</time>
      </trkpt>
      <trkpt lat="48.26024" lon="7.38421">
        <ele>386.1</ele>
        <time>2021-08-04T08:39:52Z</time>
      </trkpt>
      <trkpt lat="48.26023" lon="7.38419">
        <ele>386.2</ele>
        <time>2021-08-04T08:39:54Z</time>
      </trkpt>
      <trkpt lat="48.26023" lon="7.38418">
        <ele>386.2</ele>
        <time>2021-08-04T08:39:55Z</time>
      </trkpt>
      <trkpt lat="48.26023" lon="7.38417">
        <ele>386.3</ele>
        <time>2021-08-04T08:39:56Z</time>
      </trkpt>
      <trkpt lat="48.26023" lon="7.38414">
        <ele>386.4</ele>
        <time>2021-08-04T08:39:57Z</time>
      </trkpt>
      <trkpt lat="48.26022" lon="7.38413">
        <ele>386.4</ele>
        <time>2021-08-04T08:39:59Z</time>
      </trkpt>
      <trkpt lat="48.26022" lon="7.38411">
        <ele>386.5</ele>
        <time>2021-08-04T08:40:00Z</time>
      </trkpt>
      <trkpt lat="48.26021" lon="7.3841">
        <ele>386.6</ele>
        <time>2021-08-04T08:40:01Z</time>
      </trkpt>
      <trkpt lat="48.2602" lon="7.38408">
        <ele>386.7</ele>
        <time>2021-08-04T08:40:02Z</time>
      </trkpt>
      <trkpt lat="48.2602" lon="7.38406">
        <ele>386.7</ele>
        <time>2021-08-04T08:40:04Z</time>
      </trkpt>
      <trkpt lat="48.26019" lon="7.38405">
        <ele>386.8</ele>
        <time>2021-08-04T08:40:05Z</time>
      </trkpt>
      <trkpt lat="48.26018" lon="7.38403">
        <ele>386.8</ele>
        <time>2021-08-04T08:40:10Z</time>
      </trkpt>
      <trkpt lat="48.26018" lon="7.38401">
        <ele>386.9</ele>
        <time>2021-08-04T08:40:12Z</time>
      </trkpt>
      <trkpt lat="48.26017" lon="7.384">
        <ele>387</ele>
        <time>2021-08-04T08:40:13Z</time>
      </trkpt>
      <trkpt lat="48.26016" lon="7.38398">
        <ele>387</ele>
        <time>2021-08-04T08:40:14Z</time>
      </trkpt>
      <trkpt lat="48.26017" lon="7.38395">
        <ele>387.1</ele>
        <time>2021-08-04T08:40:16Z</time>
      </trkpt>
      <trkpt lat="48.26018" lon="7.38394">
        <ele>387.2</ele>
        <time>2021-08-04T08:40:17Z</time>
      </trkpt>
      <trkpt lat="48.26018" lon="7.38393">
        <ele>387.2</ele>
        <time>2021-08-04T08:40:18Z</time>
      </trkpt>
      <trkpt lat="48.26019" lon="7.38391">
        <ele>387.3</ele>
        <time>2021-08-04T08:40:20Z</time>
      </trkpt>
      <trkpt lat="48.26019" lon="7.38388">
        <ele>387.4</ele>
        <time>2021-08-04T08:40:22Z</time>
      </trkpt>
      <trkpt lat="48.26019" lon="7.38386">
        <ele>387.4</ele>
        <time>2021-08-04T08:40:23Z</time>
      </trkpt>
      <trkpt lat="48.26019" lon="7.38384">
        <ele>387.5</ele>
        <time>2021-08-04T08:40:24Z</time>
      </trkpt>
      <trkpt lat="48.26018" lon="7.3838">
        <ele>387.6</ele>
        <time>2021-08-04T08:40:26Z</time>
      </trkpt>
      <trkpt lat="48.26011" lon="7.3837">
        <ele>388.1</ele>
        <time>2021-08-04T08:40:33Z</time>
      </trkpt>
      <trkpt lat="48.26008" lon="7.38367">
        <ele>388.2</ele>
        <time>2021-08-04T08:40:35Z</time>
      </trkpt>
      <trkpt lat="48.26007" lon="7.38365">
        <ele>388.3</ele>
        <time>2021-08-04T08:40:36Z</time>
      </trkpt>
      <trkpt lat="48.26006" lon="7.38362">
        <ele>388.4</ele>
        <time>2021-08-04T08:40:38Z</time>
      </trkpt>
      <trkpt lat="48.26005" lon="7.3836">
        <ele>388.5</ele>
        <time>2021-08-04T08:40:39Z</time>
      </trkpt>
      <trkpt lat="48.26005" lon="7.38357">
        <ele>388.6</ele>
        <time>2021-08-04T08:40:41Z</time>
      </trkpt>
      <trkpt lat="48.26005" lon="7.38353">
        <ele>388.7</ele>
        <time>2021-08-04T08:40:43Z</time>
      </trkpt>
      <trkpt lat="48.26006" lon="7.38349">
        <ele>388.8</ele>
        <time>2021-08-04T08:40:45Z</time>
      </trkpt>
      <trkpt lat="48.26006" lon="7.38347">
        <ele>388.9</ele>
        <time>2021-08-04T08:40:46Z</time>
      </trkpt>
      <trkpt lat="48.26007" lon="7.38345">
        <ele>389</ele>
        <time>2021-08-04T08:40:47Z</time>
      </trkpt>
      <trkpt lat="48.26007" lon="7.38342">
        <ele>389.1</ele>
        <time>2021-08-04T08:40:48Z</time>
      </trkpt>
      <trkpt lat="48.26008" lon="7.38339">
        <ele>389.1</ele>
        <time>2021-08-04T08:40:49Z</time>
      </trkpt>
      <trkpt lat="48.26008" lon="7.38335">
        <ele>389.3</ele>
        <time>2021-08-04T08:40:51Z</time>
      </trkpt>
      <trkpt lat="48.26007" lon="7.38334">
        <ele>389.3</ele>
        <time>2021-08-04T08:40:52Z</time>
      </trkpt>
      <trkpt lat="48.26007" lon="7.38333">
        <ele>389.4</ele>
        <time>2021-08-04T08:40:53Z</time>
      </trkpt>
      <trkpt lat="48.26006" lon="7.38332">
        <ele>389.4</ele>
        <time>2021-08-04T08:40:54Z</time>
      </trkpt>
      <trkpt lat="48.26005" lon="7.38332">
        <ele>389.4</ele>
        <time>2021-08-04T08:40:55Z</time>
      </trkpt>
      <trkpt lat="48.26003" lon="7.38331">
        <ele>389.5</ele>
        <time>2021-08-04T08:40:57Z</time>
      </trkpt>
      <trkpt lat="48.26002" lon="7.3833">
        <ele>389.6</ele>
        <time>2021-08-04T08:40:58Z</time>
      </trkpt>
      <trkpt lat="48.26002" lon="7.38328">
        <ele>389.6</ele>
        <time>2021-08-04T08:41:00Z</time>
      </trkpt>
      <trkpt lat="48.26001" lon="7.38328">
        <ele>389.7</ele>
        <time>2021-08-04T08:41:01Z</time>
      </trkpt>
      <trkpt lat="48.26" lon="7.38326">
        <ele>389.8</ele>
        <time>2021-08-04T08:41:02Z</time>
      </trkpt>
      <trkpt lat="48.25999" lon="7.38324">
        <ele>389.8</ele>
        <time>2021-08-04T08:41:04Z</time>
      </trkpt>
      <trkpt lat="48.25999" lon="7.38324">
        <ele>389.8</ele>
        <time>2021-08-04T08:41:05Z</time>
      </trkpt>
      <trkpt lat="48.25999" lon="7.38323">
        <ele>389.9</ele>
        <time>2021-08-04T08:41:06Z</time>
      </trkpt>
      <trkpt lat="48.25999" lon="7.38323">
        <ele>389.9</ele>
        <time>2021-08-04T08:41:08Z</time>
      </trkpt>
      <trkpt lat="48.25998" lon="7.38322">
        <ele>389.9</ele>
        <time>2021-08-04T08:41:10Z</time>
      </trkpt>
      <trkpt lat="48.25997" lon="7.38321">
        <ele>390</ele>
        <time>2021-08-04T08:41:12Z</time>
      </trkpt>
      <trkpt lat="48.25996" lon="7.38319">
        <ele>390</ele>
        <time>2021-08-04T08:41:13Z</time>
      </trkpt>
      <trkpt lat="48.25995" lon="7.38318">
        <ele>390.1</ele>
        <time>2021-08-04T08:41:14Z</time>
      </trkpt>
      <trkpt lat="48.25984" lon="7.38306">
        <ele>390.7</ele>
        <time>2021-08-04T08:41:24Z</time>
      </trkpt>
      <trkpt lat="48.25983" lon="7.38304">
        <ele>390.8</ele>
        <time>2021-08-04T08:41:25Z</time>
      </trkpt>
      <trkpt lat="48.25981" lon="7.383">
        <ele>390.9</ele>
        <time>2021-08-04T08:41:27Z</time>
      </trkpt>
      <trkpt lat="48.25979" lon="7.38297">
        <ele>391</ele>
        <time>2021-08-04T08:41:28Z</time>
      </trkpt>
      <trkpt lat="48.25978" lon="7.38295">
        <ele>391.1</ele>
        <time>2021-08-04T08:41:29Z</time>
      </trkpt>
      <trkpt lat="48.25978" lon="7.38292">
        <ele>391.2</ele>
        <time>2021-08-04T08:41:30Z</time>
      </trkpt>
      <trkpt lat="48.25976" lon="7.38289">
        <ele>391.3</ele>
        <time>2021-08-04T08:41:31Z</time>
      </trkpt>
      <trkpt lat="48.25976" lon="7.38287">
        <ele>391.4</ele>
        <time>2021-08-04T08:41:32Z</time>
      </trkpt>
      <trkpt lat="48.25974" lon="7.38283">
        <ele>391.5</ele>
        <time>2021-08-04T08:41:34Z</time>
      </trkpt>
      <trkpt lat="48.25972" lon="7.38279">
        <ele>391.7</ele>
        <time>2021-08-04T08:41:35Z</time>
      </trkpt>
      <trkpt lat="48.25971" lon="7.38277">
        <ele>391.8</ele>
        <time>2021-08-04T08:41:36Z</time>
      </trkpt>
      <trkpt lat="48.25969" lon="7.38273">
        <ele>391.9</ele>
        <time>2021-08-04T08:41:38Z</time>
      </trkpt>
      <trkpt lat="48.25967" lon="7.38269">
        <ele>392.1</ele>
        <time>2021-08-04T08:41:39Z</time>
      </trkpt>
      <trkpt lat="48.25966" lon="7.38268">
        <ele>392.1</ele>
        <time>2021-08-04T08:41:40Z</time>
      </trkpt>
      <trkpt lat="48.25966" lon="7.38265">
        <ele>392.2</ele>
        <time>2021-08-04T08:41:41Z</time>
      </trkpt>
      <trkpt lat="48.25966" lon="7.3826">
        <ele>392.4</ele>
        <time>2021-08-04T08:41:43Z</time>
      </trkpt>
      <trkpt lat="48.25965" lon="7.38257">
        <ele>392.5</ele>
        <time>2021-08-04T08:41:44Z</time>
      </trkpt>
      <trkpt lat="48.25966" lon="7.38252">
        <ele>392.7</ele>
        <time>2021-08-04T08:41:46Z</time>
      </trkpt>
      <trkpt lat="48.25967" lon="7.38247">
        <ele>392.9</ele>
        <time>2021-08-04T08:41:47Z</time>
      </trkpt>
      <trkpt lat="48.25967" lon="7.38247">
        <ele>392.9</ele>
        <time>2021-08-04T08:41:48Z</time>
      </trkpt>
      <trkpt lat="48.25966" lon="7.38245">
        <ele>393</ele>
        <time>2021-08-04T08:41:49Z</time>
      </trkpt>
      <trkpt lat="48.25966" lon="7.38243">
        <ele>393.1</ele>
        <time>2021-08-04T08:41:50Z</time>
      </trkpt>
      <trkpt lat="48.25965" lon="7.3824">
        <ele>393.2</ele>
        <time>2021-08-04T08:41:52Z</time>
      </trkpt>
      <trkpt lat="48.25965" lon="7.38237">
        <ele>393.4</ele>
        <time>2021-08-04T08:41:53Z</time>
      </trkpt>
      <trkpt lat="48.25965" lon="7.38235">
        <ele>393.5</ele>
        <time>2021-08-04T08:41:54Z</time>
      </trkpt>
      <trkpt lat="48.25963" lon="7.38231">
        <ele>393.6</ele>
        <time>2021-08-04T08:41:56Z</time>
      </trkpt>
      <trkpt lat="48.25962" lon="7.3823">
        <ele>393.6</ele>
        <time>2021-08-04T08:41:57Z</time>
      </trkpt>
      <trkpt lat="48.2596" lon="7.38227">
        <ele>393.8</ele>
        <time>2021-08-04T08:41:58Z</time>
      </trkpt>
      <trkpt lat="48.25959" lon="7.38225">
        <ele>393.8</ele>
        <time>2021-08-04T08:41:59Z</time>
      </trkpt>
      <trkpt lat="48.25957" lon="7.38223">
        <ele>394</ele>
        <time>2021-08-04T08:42:00Z</time>
      </trkpt>
      <trkpt lat="48.25956" lon="7.38222">
        <ele>394</ele>
        <time>2021-08-04T08:42:01Z</time>
      </trkpt>
      <trkpt lat="48.25952" lon="7.38221">
        <ele>394.1</ele>
        <time>2021-08-04T08:42:02Z</time>
      </trkpt>
      <trkpt lat="48.25951" lon="7.3822">
        <ele>394.1</ele>
        <time>2021-08-04T08:42:03Z</time>
      </trkpt>
      <trkpt lat="48.25946" lon="7.38217">
        <ele>394.3</ele>
        <time>2021-08-04T08:42:05Z</time>
      </trkpt>
      <trkpt lat="48.25944" lon="7.38214">
        <ele>394.3</ele>
        <time>2021-08-04T08:42:07Z</time>
      </trkpt>
      <trkpt lat="48.25944" lon="7.38213">
        <ele>394.3</ele>
        <time>2021-08-04T08:42:08Z</time>
      </trkpt>
      <trkpt lat="48.25943" lon="7.38212">
        <ele>394.3</ele>
        <time>2021-08-04T08:42:09Z</time>
      </trkpt>
      <trkpt lat="48.25941" lon="7.3821">
        <ele>394.4</ele>
        <time>2021-08-04T08:42:11Z</time>
      </trkpt>
      <trkpt lat="48.2594" lon="7.38208">
        <ele>394.4</ele>
        <time>2021-08-04T08:42:13Z</time>
      </trkpt>
      <trkpt lat="48.2594" lon="7.38206">
        <ele>394.4</ele>
        <time>2021-08-04T08:42:14Z</time>
      </trkpt>
      <trkpt lat="48.2594" lon="7.38203">
        <ele>394.4</ele>
        <time>2021-08-04T08:42:15Z</time>
      </trkpt>
      <trkpt lat="48.25941" lon="7.38197">
        <ele>394.4</ele>
        <time>2021-08-04T08:42:17Z</time>
      </trkpt>
      <trkpt lat="48.25942" lon="7.38193">
        <ele>394.4</ele>
        <time>2021-08-04T08:42:18Z</time>
      </trkpt>
      <trkpt lat="48.25944" lon="7.38186">
        <ele>394.4</ele>
        <time>2021-08-04T08:42:20Z</time>
      </trkpt>
      <trkpt lat="48.25946" lon="7.38181">
        <ele>394.4</ele>
        <time>2021-08-04T08:42:21Z</time>
      </trkpt>
      <trkpt lat="48.25949" lon="7.38173">
        <ele>394.4</ele>
        <time>2021-08-04T08:42:23Z</time>
      </trkpt>
      <trkpt lat="48.25953" lon="7.38168">
        <ele>394.5</ele>
        <time>2021-08-04T08:42:24Z</time>
      </trkpt>
      <trkpt lat="48.2596" lon="7.38162">
        <ele>394.6</ele>
        <time>2021-08-04T08:42:26Z</time>
      </trkpt>
      <trkpt lat="48.25967" lon="7.38158">
        <ele>394.7</ele>
        <time>2021-08-04T08:42:28Z</time>
      </trkpt>
      <trkpt lat="48.2597" lon="7.38156">
        <ele>394.8</ele>
        <time>2021-08-04T08:42:29Z</time>
      </trkpt>
      <trkpt lat="48.25974" lon="7.38153">
        <ele>394.8</ele>
        <time>2021-08-04T08:42:30Z</time>
      </trkpt>
      <trkpt lat="48.25978" lon="7.38151">
        <ele>395</ele>
        <time>2021-08-04T08:42:32Z</time>
      </trkpt>
      <trkpt lat="48.25983" lon="7.38148">
        <ele>395.1</ele>
        <time>2021-08-04T08:42:33Z</time>
      </trkpt>
      <trkpt lat="48.25986" lon="7.38146">
        <ele>395.2</ele>
        <time>2021-08-04T08:42:34Z</time>
      </trkpt>
      <trkpt lat="48.25993" lon="7.38143">
        <ele>395.4</ele>
        <time>2021-08-04T08:42:36Z</time>
      </trkpt>
      <trkpt lat="48.25996" lon="7.38142">
        <ele>395.5</ele>
        <time>2021-08-04T08:42:37Z</time>
      </trkpt>
      <trkpt lat="48.25999" lon="7.3814">
        <ele>395.6</ele>
        <time>2021-08-04T08:42:38Z</time>
      </trkpt>
      <trkpt lat="48.26005" lon="7.38138">
        <ele>395.9</ele>
        <time>2021-08-04T08:42:40Z</time>
      </trkpt>
      <trkpt lat="48.26008" lon="7.38138">
        <ele>395.9</ele>
        <time>2021-08-04T08:42:41Z</time>
      </trkpt>
      <trkpt lat="48.26011" lon="7.38139">
        <ele>396</ele>
        <time>2021-08-04T08:42:42Z</time>
      </trkpt>
      <trkpt lat="48.26014" lon="7.38139">
        <ele>396.1</ele>
        <time>2021-08-04T08:42:43Z</time>
      </trkpt>
      <trkpt lat="48.26018" lon="7.38139">
        <ele>396.1</ele>
        <time>2021-08-04T08:42:44Z</time>
      </trkpt>
      <trkpt lat="48.26022" lon="7.38137">
        <ele>396.2</ele>
        <time>2021-08-04T08:42:46Z</time>
      </trkpt>
      <trkpt lat="48.26026" lon="7.38136">
        <ele>396.3</ele>
        <time>2021-08-04T08:42:47Z</time>
      </trkpt>
      <trkpt lat="48.26028" lon="7.38136">
        <ele>396.3</ele>
        <time>2021-08-04T08:42:48Z</time>
      </trkpt>
      <trkpt lat="48.26031" lon="7.38137">
        <ele>396.3</ele>
        <time>2021-08-04T08:42:50Z</time>
      </trkpt>
      <trkpt lat="48.26033" lon="7.38138">
        <ele>396.3</ele>
        <time>2021-08-04T08:42:51Z</time>
      </trkpt>
      <trkpt lat="48.26036" lon="7.3814">
        <ele>396.3</ele>
        <time>2021-08-04T08:42:53Z</time>
      </trkpt>
      <trkpt lat="48.26038" lon="7.3814">
        <ele>396.3</ele>
        <time>2021-08-04T08:42:54Z</time>
      </trkpt>
      <trkpt lat="48.2604" lon="7.3814">
        <ele>396.3</ele>
        <time>2021-08-04T08:42:56Z</time>
      </trkpt>
      <trkpt lat="48.26042" lon="7.38139">
        <ele>396.3</ele>
        <time>2021-08-04T08:42:57Z</time>
      </trkpt>
      <trkpt lat="48.26044" lon="7.38138">
        <ele>396.2</ele>
        <time>2021-08-04T08:42:59Z</time>
      </trkpt>
      <trkpt lat="48.26046" lon="7.38138">
        <ele>396.2</ele>
        <time>2021-08-04T08:43:00Z</time>
      </trkpt>
      <trkpt lat="48.26047" lon="7.38137">
        <ele>396.2</ele>
        <time>2021-08-04T08:43:01Z</time>
      </trkpt>
      <trkpt lat="48.26049" lon="7.38136">
        <ele>396.2</ele>
        <time>2021-08-04T08:43:02Z</time>
      </trkpt>
      <trkpt lat="48.26052" lon="7.38133">
        <ele>396.2</ele>
        <time>2021-08-04T08:43:04Z</time>
      </trkpt>
      <trkpt lat="48.26054" lon="7.38129">
        <ele>396.2</ele>
        <time>2021-08-04T08:43:05Z</time>
      </trkpt>
      <trkpt lat="48.26056" lon="7.38125">
        <ele>396.2</ele>
        <time>2021-08-04T08:43:06Z</time>
      </trkpt>
      <trkpt lat="48.26057" lon="7.38121">
        <ele>396.2</ele>
        <time>2021-08-04T08:43:07Z</time>
      </trkpt>
      <trkpt lat="48.26059" lon="7.38116">
        <ele>396.3</ele>
        <time>2021-08-04T08:43:08Z</time>
      </trkpt>
      <trkpt lat="48.2606" lon="7.3811">
        <ele>396.4</ele>
        <time>2021-08-04T08:43:10Z</time>
      </trkpt>
      <trkpt lat="48.26062" lon="7.38104">
        <ele>396.4</ele>
        <time>2021-08-04T08:43:11Z</time>
      </trkpt>
      <trkpt lat="48.26063" lon="7.381">
        <ele>396.5</ele>
        <time>2021-08-04T08:43:12Z</time>
      </trkpt>
      <trkpt lat="48.26064" lon="7.38094">
        <ele>396.5</ele>
        <time>2021-08-04T08:43:13Z</time>
      </trkpt>
      <trkpt lat="48.26066" lon="7.38089">
        <ele>396.6</ele>
        <time>2021-08-04T08:43:15Z</time>
      </trkpt>
      <trkpt lat="48.26068" lon="7.38087">
        <ele>396.6</ele>
        <time>2021-08-04T08:43:16Z</time>
      </trkpt>
      <trkpt lat="48.26071" lon="7.38084">
        <ele>396.7</ele>
        <time>2021-08-04T08:43:17Z</time>
      </trkpt>
      <trkpt lat="48.26072" lon="7.38083">
        <ele>396.7</ele>
        <time>2021-08-04T08:43:18Z</time>
      </trkpt>
      <trkpt lat="48.26075" lon="7.38082">
        <ele>396.8</ele>
        <time>2021-08-04T08:43:20Z</time>
      </trkpt>
      <trkpt lat="48.26078" lon="7.38083">
        <ele>396.8</ele>
        <time>2021-08-04T08:43:22Z</time>
      </trkpt>
      <trkpt lat="48.26076" lon="7.38088">
        <ele>396.8</ele>
        <time>2021-08-04T08:43:24Z</time>
      </trkpt>
      <trkpt lat="48.26075" lon="7.38089">
        <ele>396.8</ele>
        <time>2021-08-04T08:43:25Z</time>
      </trkpt>
      <trkpt lat="48.26075" lon="7.3809">
        <ele>396.8</ele>
        <time>2021-08-04T08:43:26Z</time>
      </trkpt>
      <trkpt lat="48.26075" lon="7.38091">
        <ele>396.8</ele>
        <time>2021-08-04T08:43:27Z</time>
      </trkpt>
      <trkpt lat="48.26074" lon="7.3809">
        <ele>396.9</ele>
        <time>2021-08-04T08:43:29Z</time>
      </trkpt>
      <trkpt lat="48.26073" lon="7.3809">
        <ele>396.9</ele>
        <time>2021-08-04T08:43:30Z</time>
      </trkpt>
      <trkpt lat="48.26072" lon="7.38091">
        <ele>396.9</ele>
        <time>2021-08-04T08:43:32Z</time>
      </trkpt>
      <trkpt lat="48.26072" lon="7.38091">
        <ele>396.9</ele>
        <time>2021-08-04T08:43:33Z</time>
      </trkpt>
      <trkpt lat="48.2607" lon="7.38092">
        <ele>396.9</ele>
        <time>2021-08-04T08:43:35Z</time>
      </trkpt>
      <trkpt lat="48.26069" lon="7.38092">
        <ele>396.9</ele>
        <time>2021-08-04T08:43:36Z</time>
      </trkpt>
      <trkpt lat="48.26076" lon="7.38108">
        <ele>396.9</ele>
        <time>2021-08-04T08:44:23Z</time>
      </trkpt>
      <trkpt lat="48.26077" lon="7.38107">
        <ele>396.9</ele>
        <time>2021-08-04T08:44:24Z</time>
      </trkpt>
      <trkpt lat="48.26078" lon="7.38105">
        <ele>396.9</ele>
        <time>2021-08-04T08:44:25Z</time>
      </trkpt>
      <trkpt lat="48.26079" lon="7.38104">
        <ele>396.9</ele>
        <time>2021-08-04T08:44:27Z</time>
      </trkpt>
      <trkpt lat="48.2608" lon="7.38102">
        <ele>396.9</ele>
        <time>2021-08-04T08:44:28Z</time>
      </trkpt>
      <trkpt lat="48.26081" lon="7.38103">
        <ele>396.9</ele>
        <time>2021-08-04T08:44:29Z</time>
      </trkpt>
      <trkpt lat="48.26081" lon="7.38104">
        <ele>396.9</ele>
        <time>2021-08-04T08:44:30Z</time>
      </trkpt>
      <trkpt lat="48.26086" lon="7.381">
        <ele>397</ele>
        <time>2021-08-04T08:44:32Z</time>
      </trkpt>
      <trkpt lat="48.26089" lon="7.38096">
        <ele>397</ele>
        <time>2021-08-04T08:44:33Z</time>
      </trkpt>
      <trkpt lat="48.26093" lon="7.38092">
        <ele>397</ele>
        <time>2021-08-04T08:44:34Z</time>
      </trkpt>
      <trkpt lat="48.26096" lon="7.38089">
        <ele>397</ele>
        <time>2021-08-04T08:44:35Z</time>
      </trkpt>
      <trkpt lat="48.26099" lon="7.38085">
        <ele>397</ele>
        <time>2021-08-04T08:44:36Z</time>
      </trkpt>
      <trkpt lat="48.26102" lon="7.38082">
        <ele>397</ele>
        <time>2021-08-04T08:44:37Z</time>
      </trkpt>
      <trkpt lat="48.26105" lon="7.38077">
        <ele>397</ele>
        <time>2021-08-04T08:44:38Z</time>
      </trkpt>
      <trkpt lat="48.26108" lon="7.38073">
        <ele>397</ele>
        <time>2021-08-04T08:44:40Z</time>
      </trkpt>
      <trkpt lat="48.26111" lon="7.3807">
        <ele>397</ele>
        <time>2021-08-04T08:44:41Z</time>
      </trkpt>
      <trkpt lat="48.26115" lon="7.38068">
        <ele>397</ele>
        <time>2021-08-04T08:44:42Z</time>
      </trkpt>
      <trkpt lat="48.26118" lon="7.38067">
        <ele>397</ele>
        <time>2021-08-04T08:44:43Z</time>
      </trkpt>
      <trkpt lat="48.26122" lon="7.38066">
        <ele>397</ele>
        <time>2021-08-04T08:44:44Z</time>
      </trkpt>
      <trkpt lat="48.26124" lon="7.38066">
        <ele>397</ele>
        <time>2021-08-04T08:44:45Z</time>
      </trkpt>
      <trkpt lat="48.26128" lon="7.38066">
        <ele>397</ele>
        <time>2021-08-04T08:44:46Z</time>
      </trkpt>
      <trkpt lat="48.26131" lon="7.38066">
        <ele>396.9</ele>
        <time>2021-08-04T08:44:48Z</time>
      </trkpt>
      <trkpt lat="48.26136" lon="7.38064">
        <ele>396.9</ele>
        <time>2021-08-04T08:44:50Z</time>
      </trkpt>
      <trkpt lat="48.26139" lon="7.38065">
        <ele>396.9</ele>
        <time>2021-08-04T08:44:52Z</time>
      </trkpt>
      <trkpt lat="48.26141" lon="7.38065">
        <ele>396.8</ele>
        <time>2021-08-04T08:44:53Z</time>
      </trkpt>
      <trkpt lat="48.26143" lon="7.38063">
        <ele>396.8</ele>
        <time>2021-08-04T08:44:55Z</time>
      </trkpt>
      <trkpt lat="48.26144" lon="7.38063">
        <ele>396.8</ele>
        <time>2021-08-04T08:44:56Z</time>
      </trkpt>
      <trkpt lat="48.26144" lon="7.38061">
        <ele>396.8</ele>
        <time>2021-08-04T08:44:58Z</time>
      </trkpt>
      <trkpt lat="48.26144" lon="7.38062">
        <ele>396.8</ele>
        <time>2021-08-04T08:44:59Z</time>
      </trkpt>
      <trkpt lat="48.26144" lon="7.38061">
        <ele>396.8</ele>
        <time>2021-08-04T08:45:01Z</time>
      </trkpt>
      <trkpt lat="48.26145" lon="7.3806">
        <ele>396.8</ele>
        <time>2021-08-04T08:45:02Z</time>
      </trkpt>
      <trkpt lat="48.26146" lon="7.38061">
        <ele>396.8</ele>
        <time>2021-08-04T08:45:03Z</time>
      </trkpt>
      <trkpt lat="48.26147" lon="7.38062">
        <ele>396.8</ele>
        <time>2021-08-04T08:45:04Z</time>
      </trkpt>
      <trkpt lat="48.26148" lon="7.38062">
        <ele>396.7</ele>
        <time>2021-08-04T08:45:05Z</time>
      </trkpt>
      <trkpt lat="48.26151" lon="7.38062">
        <ele>396.7</ele>
        <time>2021-08-04T08:45:06Z</time>
      </trkpt>
      <trkpt lat="48.26152" lon="7.38062">
        <ele>396.7</ele>
        <time>2021-08-04T08:45:07Z</time>
      </trkpt>
      <trkpt lat="48.26154" lon="7.38062">
        <ele>396.7</ele>
        <time>2021-08-04T08:45:08Z</time>
      </trkpt>
      <trkpt lat="48.26155" lon="7.38062">
        <ele>396.7</ele>
        <time>2021-08-04T08:45:09Z</time>
      </trkpt>
      <trkpt lat="48.26158" lon="7.38062">
        <ele>396.7</ele>
        <time>2021-08-04T08:45:11Z</time>
      </trkpt>
      <trkpt lat="48.26166" lon="7.38066">
        <ele>396.8</ele>
        <time>2021-08-04T08:45:16Z</time>
      </trkpt>
      <trkpt lat="48.26171" lon="7.38064">
        <ele>396.9</ele>
        <time>2021-08-04T08:45:18Z</time>
      </trkpt>
      <trkpt lat="48.26177" lon="7.38062">
        <ele>397</ele>
        <time>2021-08-04T08:45:19Z</time>
      </trkpt>
      <trkpt lat="48.26182" lon="7.38061">
        <ele>397</ele>
        <time>2021-08-04T08:45:20Z</time>
      </trkpt>
      <trkpt lat="48.26188" lon="7.38058">
        <ele>397.1</ele>
        <time>2021-08-04T08:45:22Z</time>
      </trkpt>
      <trkpt lat="48.26191" lon="7.38057">
        <ele>397.1</ele>
        <time>2021-08-04T08:45:23Z</time>
      </trkpt>
      <trkpt lat="48.26196" lon="7.38055">
        <ele>397.1</ele>
        <time>2021-08-04T08:45:24Z</time>
      </trkpt>
      <trkpt lat="48.262" lon="7.38052">
        <ele>397.2</ele>
        <time>2021-08-04T08:45:25Z</time>
      </trkpt>
      <trkpt lat="48.26204" lon="7.3805">
        <ele>397.2</ele>
        <time>2021-08-04T08:45:26Z</time>
      </trkpt>
      <trkpt lat="48.2621" lon="7.38047">
        <ele>397.2</ele>
        <time>2021-08-04T08:45:28Z</time>
      </trkpt>
      <trkpt lat="48.26214" lon="7.38044">
        <ele>397.3</ele>
        <time>2021-08-04T08:45:29Z</time>
      </trkpt>
      <trkpt lat="48.26218" lon="7.38041">
        <ele>397.4</ele>
        <time>2021-08-04T08:45:31Z</time>
      </trkpt>
      <trkpt lat="48.26223" lon="7.3804">
        <ele>397.4</ele>
        <time>2021-08-04T08:45:32Z</time>
      </trkpt>
      <trkpt lat="48.26227" lon="7.38039">
        <ele>397.5</ele>
        <time>2021-08-04T08:45:34Z</time>
      </trkpt>
      <trkpt lat="48.26231" lon="7.38038">
        <ele>397.6</ele>
        <time>2021-08-04T08:45:35Z</time>
      </trkpt>
      <trkpt lat="48.26236" lon="7.38038">
        <ele>397.7</ele>
        <time>2021-08-04T08:45:37Z</time>
      </trkpt>
      <trkpt lat="48.2624" lon="7.38037">
        <ele>397.7</ele>
        <time>2021-08-04T08:45:38Z</time>
      </trkpt>
      <trkpt lat="48.26241" lon="7.38037">
        <ele>397.8</ele>
        <time>2021-08-04T08:45:39Z</time>
      </trkpt>
      <trkpt lat="48.26245" lon="7.38035">
        <ele>397.8</ele>
        <time>2021-08-04T08:45:41Z</time>
      </trkpt>
      <trkpt lat="48.26247" lon="7.38033">
        <ele>397.9</ele>
        <time>2021-08-04T08:45:42Z</time>
      </trkpt>
      <trkpt lat="48.2625" lon="7.38029">
        <ele>397.9</ele>
        <time>2021-08-04T08:45:44Z</time>
      </trkpt>
      <trkpt lat="48.26251" lon="7.38027">
        <ele>398</ele>
        <time>2021-08-04T08:45:45Z</time>
      </trkpt>
      <trkpt lat="48.26254" lon="7.38023">
        <ele>398</ele>
        <time>2021-08-04T08:45:47Z</time>
      </trkpt>
      <trkpt lat="48.26254" lon="7.38022">
        <ele>398</ele>
        <time>2021-08-04T08:45:48Z</time>
      </trkpt>
      <trkpt lat="48.26256" lon="7.38019">
        <ele>398.1</ele>
        <time>2021-08-04T08:45:49Z</time>
      </trkpt>
      <trkpt lat="48.26257" lon="7.38017">
        <ele>398.1</ele>
        <time>2021-08-04T08:45:51Z</time>
      </trkpt>
      <trkpt lat="48.26256" lon="7.38014">
        <ele>398.2</ele>
        <time>2021-08-04T08:45:52Z</time>
      </trkpt>
      <trkpt lat="48.26256" lon="7.38011">
        <ele>398.2</ele>
        <time>2021-08-04T08:45:53Z</time>
      </trkpt>
      <trkpt lat="48.26256" lon="7.38009">
        <ele>398.2</ele>
        <time>2021-08-04T08:45:54Z</time>
      </trkpt>
      <trkpt lat="48.26256" lon="7.38007">
        <ele>398.2</ele>
        <time>2021-08-04T08:45:55Z</time>
      </trkpt>
      <trkpt lat="48.26256" lon="7.38001">
        <ele>398.3</ele>
        <time>2021-08-04T08:45:57Z</time>
      </trkpt>
      <trkpt lat="48.26256" lon="7.38">
        <ele>398.3</ele>
        <time>2021-08-04T08:45:58Z</time>
      </trkpt>
      <trkpt lat="48.26256" lon="7.37997">
        <ele>398.4</ele>
        <time>2021-08-04T08:45:59Z</time>
      </trkpt>
      <trkpt lat="48.26254" lon="7.37992">
        <ele>398.4</ele>
        <time>2021-08-04T08:46:01Z</time>
      </trkpt>
      <trkpt lat="48.26253" lon="7.37989">
        <ele>398.5</ele>
        <time>2021-08-04T08:46:02Z</time>
      </trkpt>
      <trkpt lat="48.26251" lon="7.37985">
        <ele>398.5</ele>
        <time>2021-08-04T08:46:04Z</time>
      </trkpt>
      <trkpt lat="48.26249" lon="7.3798">
        <ele>398.6</ele>
        <time>2021-08-04T08:46:06Z</time>
      </trkpt>
      <trkpt lat="48.26247" lon="7.37976">
        <ele>398.6</ele>
        <time>2021-08-04T08:46:08Z</time>
      </trkpt>
      <trkpt lat="48.26245" lon="7.37974">
        <ele>398.7</ele>
        <time>2021-08-04T08:46:09Z</time>
      </trkpt>
      <trkpt lat="48.26242" lon="7.37971">
        <ele>398.7</ele>
        <time>2021-08-04T08:46:11Z</time>
      </trkpt>
      <trkpt lat="48.26241" lon="7.3797">
        <ele>398.7</ele>
        <time>2021-08-04T08:46:12Z</time>
      </trkpt>
      <trkpt lat="48.26238" lon="7.37967">
        <ele>398.8</ele>
        <time>2021-08-04T08:46:14Z</time>
      </trkpt>
      <trkpt lat="48.26236" lon="7.37963">
        <ele>398.8</ele>
        <time>2021-08-04T08:46:15Z</time>
      </trkpt>
      <trkpt lat="48.26235" lon="7.37962">
        <ele>398.8</ele>
        <time>2021-08-04T08:46:16Z</time>
      </trkpt>
      <trkpt lat="48.26232" lon="7.37957">
        <ele>398.9</ele>
        <time>2021-08-04T08:46:18Z</time>
      </trkpt>
      <trkpt lat="48.26231" lon="7.37952">
        <ele>398.9</ele>
        <time>2021-08-04T08:46:19Z</time>
      </trkpt>
      <trkpt lat="48.2623" lon="7.37951">
        <ele>399</ele>
        <time>2021-08-04T08:46:20Z</time>
      </trkpt>
      <trkpt lat="48.26228" lon="7.37947">
        <ele>399.1</ele>
        <time>2021-08-04T08:46:22Z</time>
      </trkpt>
      <trkpt lat="48.26227" lon="7.37946">
        <ele>399.1</ele>
        <time>2021-08-04T08:46:23Z</time>
      </trkpt>
      <trkpt lat="48.26224" lon="7.37942">
        <ele>399.2</ele>
        <time>2021-08-04T08:46:24Z</time>
      </trkpt>
      <trkpt lat="48.26223" lon="7.37941">
        <ele>399.2</ele>
        <time>2021-08-04T08:46:25Z</time>
      </trkpt>
      <trkpt lat="48.26221" lon="7.37938">
        <ele>399.3</ele>
        <time>2021-08-04T08:46:26Z</time>
      </trkpt>
      <trkpt lat="48.26218" lon="7.37931">
        <ele>399.4</ele>
        <time>2021-08-04T08:46:28Z</time>
      </trkpt>
      <trkpt lat="48.26215" lon="7.37927">
        <ele>399.5</ele>
        <time>2021-08-04T08:46:29Z</time>
      </trkpt>
      <trkpt lat="48.26212" lon="7.37924">
        <ele>399.7</ele>
        <time>2021-08-04T08:46:30Z</time>
      </trkpt>
      <trkpt lat="48.26207" lon="7.37918">
        <ele>399.9</ele>
        <time>2021-08-04T08:46:32Z</time>
      </trkpt>
      <trkpt lat="48.26204" lon="7.37916">
        <ele>400</ele>
        <time>2021-08-04T08:46:33Z</time>
      </trkpt>
      <trkpt lat="48.26201" lon="7.37914">
        <ele>400.1</ele>
        <time>2021-08-04T08:46:34Z</time>
      </trkpt>
      <trkpt lat="48.26195" lon="7.3791">
        <ele>400.2</ele>
        <time>2021-08-04T08:46:36Z</time>
      </trkpt>
      <trkpt lat="48.26193" lon="7.37907">
        <ele>400.3</ele>
        <time>2021-08-04T08:46:37Z</time>
      </trkpt>
      <trkpt lat="48.2619" lon="7.37904">
        <ele>400.4</ele>
        <time>2021-08-04T08:46:38Z</time>
      </trkpt>
      <trkpt lat="48.26185" lon="7.37899">
        <ele>400.5</ele>
        <time>2021-08-04T08:46:40Z</time>
      </trkpt>
      <trkpt lat="48.26184" lon="7.37898">
        <ele>400.5</ele>
        <time>2021-08-04T08:46:41Z</time>
      </trkpt>
      <trkpt lat="48.26182" lon="7.37896">
        <ele>400.6</ele>
        <time>2021-08-04T08:46:42Z</time>
      </trkpt>
      <trkpt lat="48.2618" lon="7.37894">
        <ele>400.6</ele>
        <time>2021-08-04T08:46:44Z</time>
      </trkpt>
      <trkpt lat="48.26179" lon="7.37893">
        <ele>400.7</ele>
        <time>2021-08-04T08:46:45Z</time>
      </trkpt>
      <trkpt lat="48.26176" lon="7.3789">
        <ele>400.7</ele>
        <time>2021-08-04T08:46:46Z</time>
      </trkpt>
      <trkpt lat="48.26175" lon="7.37889">
        <ele>400.7</ele>
        <time>2021-08-04T08:46:47Z</time>
      </trkpt>
      <trkpt lat="48.26171" lon="7.37887">
        <ele>400.8</ele>
        <time>2021-08-04T08:46:49Z</time>
      </trkpt>
      <trkpt lat="48.26167" lon="7.37885">
        <ele>400.8</ele>
        <time>2021-08-04T08:46:50Z</time>
      </trkpt>
      <trkpt lat="48.26163" lon="7.37883">
        <ele>400.8</ele>
        <time>2021-08-04T08:46:52Z</time>
      </trkpt>
      <trkpt lat="48.2616" lon="7.3788">
        <ele>400.8</ele>
        <time>2021-08-04T08:46:53Z</time>
      </trkpt>
      <trkpt lat="48.26157" lon="7.37877">
        <ele>400.9</ele>
        <time>2021-08-04T08:46:54Z</time>
      </trkpt>
      <trkpt lat="48.26155" lon="7.37874">
        <ele>400.9</ele>
        <time>2021-08-04T08:46:55Z</time>
      </trkpt>
      <trkpt lat="48.26153" lon="7.37871">
        <ele>400.9</ele>
        <time>2021-08-04T08:46:56Z</time>
      </trkpt>
      <trkpt lat="48.26151" lon="7.37864">
        <ele>400.8</ele>
        <time>2021-08-04T08:46:58Z</time>
      </trkpt>
      <trkpt lat="48.2615" lon="7.37861">
        <ele>400.8</ele>
        <time>2021-08-04T08:46:59Z</time>
      </trkpt>
      <trkpt lat="48.2615" lon="7.37856">
        <ele>400.8</ele>
        <time>2021-08-04T08:47:01Z</time>
      </trkpt>
      <trkpt lat="48.2615" lon="7.37852">
        <ele>400.8</ele>
        <time>2021-08-04T08:47:02Z</time>
      </trkpt>
      <trkpt lat="48.2615" lon="7.37846">
        <ele>400.8</ele>
        <time>2021-08-04T08:47:03Z</time>
      </trkpt>
      <trkpt lat="48.26151" lon="7.37841">
        <ele>400.7</ele>
        <time>2021-08-04T08:47:05Z</time>
      </trkpt>
      <trkpt lat="48.26152" lon="7.37834">
        <ele>400.7</ele>
        <time>2021-08-04T08:47:06Z</time>
      </trkpt>
      <trkpt lat="48.26152" lon="7.37831">
        <ele>400.7</ele>
        <time>2021-08-04T08:47:07Z</time>
      </trkpt>
      <trkpt lat="48.26154" lon="7.37824">
        <ele>400.7</ele>
        <time>2021-08-04T08:47:09Z</time>
      </trkpt>
      <trkpt lat="48.26155" lon="7.3782">
        <ele>400.7</ele>
        <time>2021-08-04T08:47:10Z</time>
      </trkpt>
      <trkpt lat="48.26156" lon="7.37816">
        <ele>400.6</ele>
        <time>2021-08-04T08:47:11Z</time>
      </trkpt>
      <trkpt lat="48.26156" lon="7.37811">
        <ele>400.6</ele>
        <time>2021-08-04T08:47:12Z</time>
      </trkpt>
      <trkpt lat="48.26156" lon="7.37802">
        <ele>400.6</ele>
        <time>2021-08-04T08:47:14Z</time>
      </trkpt>
      <trkpt lat="48.26155" lon="7.37792">
        <ele>400.6</ele>
        <time>2021-08-04T08:47:16Z</time>
      </trkpt>
      <trkpt lat="48.26156" lon="7.37788">
        <ele>400.6</ele>
        <time>2021-08-04T08:47:17Z</time>
      </trkpt>
      <trkpt lat="48.26155" lon="7.37783">
        <ele>400.6</ele>
        <time>2021-08-04T08:47:18Z</time>
      </trkpt>
      <trkpt lat="48.26154" lon="7.37776">
        <ele>400.6</ele>
        <time>2021-08-04T08:47:20Z</time>
      </trkpt>
      <trkpt lat="48.26154" lon="7.3777">
        <ele>400.6</ele>
        <time>2021-08-04T08:47:21Z</time>
      </trkpt>
      <trkpt lat="48.26153" lon="7.37765">
        <ele>400.6</ele>
        <time>2021-08-04T08:47:22Z</time>
      </trkpt>
      <trkpt lat="48.26153" lon="7.3776">
        <ele>400.6</ele>
        <time>2021-08-04T08:47:23Z</time>
      </trkpt>
      <trkpt lat="48.26153" lon="7.37756">
        <ele>400.6</ele>
        <time>2021-08-04T08:47:24Z</time>
      </trkpt>
      <trkpt lat="48.26153" lon="7.37751">
        <ele>400.6</ele>
        <time>2021-08-04T08:47:25Z</time>
      </trkpt>
      <trkpt lat="48.26154" lon="7.37748">
        <ele>400.6</ele>
        <time>2021-08-04T08:47:26Z</time>
      </trkpt>
      <trkpt lat="48.26156" lon="7.37742">
        <ele>400.6</ele>
        <time>2021-08-04T08:47:28Z</time>
      </trkpt>
      <trkpt lat="48.26157" lon="7.37738">
        <ele>400.6</ele>
        <time>2021-08-04T08:47:29Z</time>
      </trkpt>
      <trkpt lat="48.26159" lon="7.37734">
        <ele>400.6</ele>
        <time>2021-08-04T08:47:30Z</time>
      </trkpt>
      <trkpt lat="48.26161" lon="7.37729">
        <ele>400.6</ele>
        <time>2021-08-04T08:47:31Z</time>
      </trkpt>
      <trkpt lat="48.26161" lon="7.37725">
        <ele>400.6</ele>
        <time>2021-08-04T08:47:32Z</time>
      </trkpt>
      <trkpt lat="48.26161" lon="7.37717">
        <ele>400.7</ele>
        <time>2021-08-04T08:47:34Z</time>
      </trkpt>
      <trkpt lat="48.26162" lon="7.3771">
        <ele>400.7</ele>
        <time>2021-08-04T08:47:36Z</time>
      </trkpt>
      <trkpt lat="48.26163" lon="7.37706">
        <ele>400.7</ele>
        <time>2021-08-04T08:47:37Z</time>
      </trkpt>
      <trkpt lat="48.26165" lon="7.37701">
        <ele>400.7</ele>
        <time>2021-08-04T08:47:38Z</time>
      </trkpt>
      <trkpt lat="48.26167" lon="7.37694">
        <ele>400.7</ele>
        <time>2021-08-04T08:47:40Z</time>
      </trkpt>
      <trkpt lat="48.26168" lon="7.3769">
        <ele>400.7</ele>
        <time>2021-08-04T08:47:41Z</time>
      </trkpt>
      <trkpt lat="48.26168" lon="7.37689">
        <ele>400.7</ele>
        <time>2021-08-04T08:47:42Z</time>
      </trkpt>
      <trkpt lat="48.26168" lon="7.37684">
        <ele>400.7</ele>
        <time>2021-08-04T08:47:44Z</time>
      </trkpt>
      <trkpt lat="48.26167" lon="7.37679">
        <ele>400.7</ele>
        <time>2021-08-04T08:47:46Z</time>
      </trkpt>
      <trkpt lat="48.26165" lon="7.37676">
        <ele>400.7</ele>
        <time>2021-08-04T08:47:48Z</time>
      </trkpt>
      <trkpt lat="48.26164" lon="7.37674">
        <ele>400.7</ele>
        <time>2021-08-04T08:47:49Z</time>
      </trkpt>
      <trkpt lat="48.26164" lon="7.3767">
        <ele>400.7</ele>
        <time>2021-08-04T08:47:51Z</time>
      </trkpt>
      <trkpt lat="48.26162" lon="7.37668">
        <ele>400.7</ele>
        <time>2021-08-04T08:47:53Z</time>
      </trkpt>
      <trkpt lat="48.26161" lon="7.37666">
        <ele>400.7</ele>
        <time>2021-08-04T08:47:55Z</time>
      </trkpt>
      <trkpt lat="48.2616" lon="7.37664">
        <ele>400.7</ele>
        <time>2021-08-04T08:47:57Z</time>
      </trkpt>
      <trkpt lat="48.26159" lon="7.37663">
        <ele>400.7</ele>
        <time>2021-08-04T08:47:58Z</time>
      </trkpt>
      <trkpt lat="48.26158" lon="7.3766">
        <ele>400.7</ele>
        <time>2021-08-04T08:48:00Z</time>
      </trkpt>
      <trkpt lat="48.26158" lon="7.37656">
        <ele>400.7</ele>
        <time>2021-08-04T08:48:02Z</time>
      </trkpt>
      <trkpt lat="48.26158" lon="7.3765">
        <ele>400.7</ele>
        <time>2021-08-04T08:48:04Z</time>
      </trkpt>
      <trkpt lat="48.26159" lon="7.37648">
        <ele>400.7</ele>
        <time>2021-08-04T08:48:05Z</time>
      </trkpt>
      <trkpt lat="48.26158" lon="7.37643">
        <ele>400.7</ele>
        <time>2021-08-04T08:48:07Z</time>
      </trkpt>
      <trkpt lat="48.26159" lon="7.3764">
        <ele>400.7</ele>
        <time>2021-08-04T08:48:08Z</time>
      </trkpt>
      <trkpt lat="48.26158" lon="7.37639">
        <ele>400.7</ele>
        <time>2021-08-04T08:48:10Z</time>
      </trkpt>
      <trkpt lat="48.26158" lon="7.37637">
        <ele>400.7</ele>
        <time>2021-08-04T08:48:11Z</time>
      </trkpt>
      <trkpt lat="48.26158" lon="7.37636">
        <ele>400.7</ele>
        <time>2021-08-04T08:48:12Z</time>
      </trkpt>
      <trkpt lat="48.26157" lon="7.37636">
        <ele>400.7</ele>
        <time>2021-08-04T08:48:14Z</time>
      </trkpt>
      <trkpt lat="48.26157" lon="7.37638">
        <ele>400.7</ele>
        <time>2021-08-04T08:48:15Z</time>
      </trkpt>
      <trkpt lat="48.26158" lon="7.3764">
        <ele>400.7</ele>
        <time>2021-08-04T08:48:17Z</time>
      </trkpt>
      <trkpt lat="48.26158" lon="7.37642">
        <ele>400.7</ele>
        <time>2021-08-04T08:48:18Z</time>
      </trkpt>
      <trkpt lat="48.26157" lon="7.37642">
        <ele>400.7</ele>
        <time>2021-08-04T08:48:20Z</time>
      </trkpt>
      <trkpt lat="48.26156" lon="7.37642">
        <ele>400.6</ele>
        <time>2021-08-04T08:48:21Z</time>
      </trkpt>
      <trkpt lat="48.26154" lon="7.3764">
        <ele>400.6</ele>
        <time>2021-08-04T08:48:23Z</time>
      </trkpt>
      <trkpt lat="48.26138" lon="7.37629">
        <ele>400.6</ele>
        <time>2021-08-04T08:48:25Z</time>
      </trkpt>
      <trkpt lat="48.26124" lon="7.37619">
        <ele>399.7</ele>
        <time>2021-08-04T08:50:28Z</time>
      </trkpt>
      <trkpt lat="48.2611" lon="7.3761">
        <ele>397.9</ele>
        <time>2021-08-04T08:50:29Z</time>
      </trkpt>
      <trkpt lat="48.26102" lon="7.37609">
        <ele>397.2</ele>
        <time>2021-08-04T08:50:31Z</time>
      </trkpt>
      <trkpt lat="48.26097" lon="7.37608">
        <ele>396.9</ele>
        <time>2021-08-04T08:50:32Z</time>
      </trkpt>
      <trkpt lat="48.26093" lon="7.37608">
        <ele>396.5</ele>
        <time>2021-08-04T08:50:33Z</time>
      </trkpt>
      <trkpt lat="48.26089" lon="7.37608">
        <ele>396.2</ele>
        <time>2021-08-04T08:50:34Z</time>
      </trkpt>
      <trkpt lat="48.26082" lon="7.37606">
        <ele>395.8</ele>
        <time>2021-08-04T08:50:36Z</time>
      </trkpt>
      <trkpt lat="48.26078" lon="7.37605">
        <ele>395.5</ele>
        <time>2021-08-04T08:50:38Z</time>
      </trkpt>
      <trkpt lat="48.26075" lon="7.37604">
        <ele>395.3</ele>
        <time>2021-08-04T08:50:39Z</time>
      </trkpt>
      <trkpt lat="48.26072" lon="7.37602">
        <ele>395.2</ele>
        <time>2021-08-04T08:50:40Z</time>
      </trkpt>
      <trkpt lat="48.2607" lon="7.37598">
        <ele>395.1</ele>
        <time>2021-08-04T08:50:42Z</time>
      </trkpt>
      <trkpt lat="48.26069" lon="7.37595">
        <ele>395.2</ele>
        <time>2021-08-04T08:50:43Z</time>
      </trkpt>
      <trkpt lat="48.2607" lon="7.37591">
        <ele>395.3</ele>
        <time>2021-08-04T08:50:45Z</time>
      </trkpt>
      <trkpt lat="48.2607" lon="7.37587">
        <ele>395.4</ele>
        <time>2021-08-04T08:50:46Z</time>
      </trkpt>
      <trkpt lat="48.26071" lon="7.37585">
        <ele>395.5</ele>
        <time>2021-08-04T08:50:48Z</time>
      </trkpt>
      <trkpt lat="48.26071" lon="7.37583">
        <ele>395.7</ele>
        <time>2021-08-04T08:50:49Z</time>
      </trkpt>
      <trkpt lat="48.26072" lon="7.3758">
        <ele>395.7</ele>
        <time>2021-08-04T08:50:50Z</time>
      </trkpt>
      <trkpt lat="48.26075" lon="7.37577">
        <ele>395.9</ele>
        <time>2021-08-04T08:50:52Z</time>
      </trkpt>
      <trkpt lat="48.26077" lon="7.37575">
        <ele>396</ele>
        <time>2021-08-04T08:50:53Z</time>
      </trkpt>
      <trkpt lat="48.26079" lon="7.37572">
        <ele>396.1</ele>
        <time>2021-08-04T08:50:55Z</time>
      </trkpt>
      <trkpt lat="48.26082" lon="7.37568">
        <ele>396.3</ele>
        <time>2021-08-04T08:50:57Z</time>
      </trkpt>
      <trkpt lat="48.26085" lon="7.37565">
        <ele>396.5</ele>
        <time>2021-08-04T08:50:58Z</time>
      </trkpt>
      <trkpt lat="48.26087" lon="7.37562">
        <ele>396.6</ele>
        <time>2021-08-04T08:50:59Z</time>
      </trkpt>
      <trkpt lat="48.26089" lon="7.3756">
        <ele>396.8</ele>
        <time>2021-08-04T08:51:00Z</time>
      </trkpt>
      <trkpt lat="48.26091" lon="7.37555">
        <ele>396.8</ele>
        <time>2021-08-04T08:51:02Z</time>
      </trkpt>
      <trkpt lat="48.26093" lon="7.37552">
        <ele>397</ele>
        <time>2021-08-04T08:51:03Z</time>
      </trkpt>
      <trkpt lat="48.26095" lon="7.37549">
        <ele>397.2</ele>
        <time>2021-08-04T08:51:04Z</time>
      </trkpt>
      <trkpt lat="48.26098" lon="7.37545">
        <ele>397.4</ele>
        <time>2021-08-04T08:51:06Z</time>
      </trkpt>
      <trkpt lat="48.26101" lon="7.37542">
        <ele>397.6</ele>
        <time>2021-08-04T08:51:07Z</time>
      </trkpt>
      <trkpt lat="48.26104" lon="7.37538">
        <ele>397.8</ele>
        <time>2021-08-04T08:51:09Z</time>
      </trkpt>
      <trkpt lat="48.26107" lon="7.37534">
        <ele>398</ele>
        <time>2021-08-04T08:51:11Z</time>
      </trkpt>
      <trkpt lat="48.26107" lon="7.37534">
        <ele>398.1</ele>
        <time>2021-08-04T08:51:12Z</time>
      </trkpt>
      <trkpt lat="48.2611" lon="7.37531">
        <ele>398.3</ele>
        <time>2021-08-04T08:51:13Z</time>
      </trkpt>
      <trkpt lat="48.26111" lon="7.37531">
        <ele>398.3</ele>
        <time>2021-08-04T08:51:14Z</time>
      </trkpt>
      <trkpt lat="48.26114" lon="7.3753">
        <ele>398.5</ele>
        <time>2021-08-04T08:51:16Z</time>
      </trkpt>
      <trkpt lat="48.26115" lon="7.37529">
        <ele>398.7</ele>
        <time>2021-08-04T08:51:17Z</time>
      </trkpt>
      <trkpt lat="48.26116" lon="7.37528">
        <ele>398.7</ele>
        <time>2021-08-04T08:51:18Z</time>
      </trkpt>
      <trkpt lat="48.26118" lon="7.37528">
        <ele>398.9</ele>
        <time>2021-08-04T08:51:19Z</time>
      </trkpt>
      <trkpt lat="48.26119" lon="7.37528">
        <ele>399</ele>
        <time>2021-08-04T08:51:20Z</time>
      </trkpt>
      <trkpt lat="48.26122" lon="7.37528">
        <ele>399.1</ele>
        <time>2021-08-04T08:51:22Z</time>
      </trkpt>
      <trkpt lat="48.26124" lon="7.37527">
        <ele>399.3</ele>
        <time>2021-08-04T08:51:23Z</time>
      </trkpt>
      <trkpt lat="48.26125" lon="7.37524">
        <ele>399.2</ele>
        <time>2021-08-04T08:51:25Z</time>
      </trkpt>
      <trkpt lat="48.26127" lon="7.37519">
        <ele>399.3</ele>
        <time>2021-08-04T08:51:26Z</time>
      </trkpt>
      <trkpt lat="48.26127" lon="7.37518">
        <ele>399.3</ele>
        <time>2021-08-04T08:51:27Z</time>
      </trkpt>
      <trkpt lat="48.26128" lon="7.37511">
        <ele>399.1</ele>
        <time>2021-08-04T08:51:29Z</time>
      </trkpt>
      <trkpt lat="48.26128" lon="7.37506">
        <ele>399</ele>
        <time>2021-08-04T08:51:30Z</time>
      </trkpt>
      <trkpt lat="48.26127" lon="7.375">
        <ele>398.8</ele>
        <time>2021-08-04T08:51:31Z</time>
      </trkpt>
      <trkpt lat="48.26125" lon="7.37497">
        <ele>398.7</ele>
        <time>2021-08-04T08:51:32Z</time>
      </trkpt>
      <trkpt lat="48.26121" lon="7.37491">
        <ele>398.4</ele>
        <time>2021-08-04T08:51:34Z</time>
      </trkpt>
      <trkpt lat="48.26119" lon="7.37488">
        <ele>398.2</ele>
        <time>2021-08-04T08:51:35Z</time>
      </trkpt>
      <trkpt lat="48.26117" lon="7.37481">
        <ele>397.9</ele>
        <time>2021-08-04T08:51:37Z</time>
      </trkpt>
      <trkpt lat="48.26115" lon="7.37478">
        <ele>397.8</ele>
        <time>2021-08-04T08:51:38Z</time>
      </trkpt>
      <trkpt lat="48.26112" lon="7.37475">
        <ele>397.6</ele>
        <time>2021-08-04T08:51:40Z</time>
      </trkpt>
      <trkpt lat="48.2611" lon="7.37471">
        <ele>397.4</ele>
        <time>2021-08-04T08:51:41Z</time>
      </trkpt>
      <trkpt lat="48.26108" lon="7.37468">
        <ele>397.3</ele>
        <time>2021-08-04T08:51:42Z</time>
      </trkpt>
      <trkpt lat="48.26103" lon="7.37464">
        <ele>397</ele>
        <time>2021-08-04T08:51:44Z</time>
      </trkpt>
      <trkpt lat="48.26098" lon="7.3746">
        <ele>396.8</ele>
        <time>2021-08-04T08:51:45Z</time>
      </trkpt>
      <trkpt lat="48.26092" lon="7.37454">
        <ele>396.6</ele>
        <time>2021-08-04T08:51:47Z</time>
      </trkpt>
      <trkpt lat="48.26088" lon="7.3745">
        <ele>396.4</ele>
        <time>2021-08-04T08:51:48Z</time>
      </trkpt>
      <trkpt lat="48.26085" lon="7.37447">
        <ele>396.3</ele>
        <time>2021-08-04T08:51:49Z</time>
      </trkpt>
      <trkpt lat="48.26079" lon="7.37442">
        <ele>396.2</ele>
        <time>2021-08-04T08:51:51Z</time>
      </trkpt>
      <trkpt lat="48.26075" lon="7.37438">
        <ele>396.1</ele>
        <time>2021-08-04T08:51:53Z</time>
      </trkpt>
      <trkpt lat="48.26072" lon="7.37434">
        <ele>396.1</ele>
        <time>2021-08-04T08:51:54Z</time>
      </trkpt>
      <trkpt lat="48.26069" lon="7.37429">
        <ele>396.1</ele>
        <time>2021-08-04T08:51:56Z</time>
      </trkpt>
      <trkpt lat="48.26067" lon="7.37424">
        <ele>396.1</ele>
        <time>2021-08-04T08:51:57Z</time>
      </trkpt>
      <trkpt lat="48.26065" lon="7.37417">
        <ele>396.1</ele>
        <time>2021-08-04T08:51:59Z</time>
      </trkpt>
      <trkpt lat="48.26063" lon="7.37412">
        <ele>396.1</ele>
        <time>2021-08-04T08:52:00Z</time>
      </trkpt>
      <trkpt lat="48.26061" lon="7.37404">
        <ele>396.2</ele>
        <time>2021-08-04T08:52:02Z</time>
      </trkpt>
      <trkpt lat="48.26059" lon="7.37396">
        <ele>396.2</ele>
        <time>2021-08-04T08:52:03Z</time>
      </trkpt>
      <trkpt lat="48.26058" lon="7.37386">
        <ele>396.2</ele>
        <time>2021-08-04T08:52:05Z</time>
      </trkpt>
      <trkpt lat="48.26056" lon="7.37377">
        <ele>396</ele>
        <time>2021-08-04T08:52:06Z</time>
      </trkpt>
      <trkpt lat="48.26055" lon="7.37369">
        <ele>395.8</ele>
        <time>2021-08-04T08:52:07Z</time>
      </trkpt>
      <trkpt lat="48.26054" lon="7.37362">
        <ele>395.7</ele>
        <time>2021-08-04T08:52:08Z</time>
      </trkpt>
      <trkpt lat="48.26053" lon="7.37352">
        <ele>395.5</ele>
        <time>2021-08-04T08:52:10Z</time>
      </trkpt>
      <trkpt lat="48.26052" lon="7.37344">
        <ele>395.3</ele>
        <time>2021-08-04T08:52:11Z</time>
      </trkpt>
      <trkpt lat="48.26051" lon="7.37336">
        <ele>395.1</ele>
        <time>2021-08-04T08:52:12Z</time>
      </trkpt>
      <trkpt lat="48.2605" lon="7.37327">
        <ele>394.9</ele>
        <time>2021-08-04T08:52:13Z</time>
      </trkpt>
      <trkpt lat="48.26049" lon="7.37316">
        <ele>394.5</ele>
        <time>2021-08-04T08:52:15Z</time>
      </trkpt>
      <trkpt lat="48.26048" lon="7.37307">
        <ele>394.3</ele>
        <time>2021-08-04T08:52:16Z</time>
      </trkpt>
      <trkpt lat="48.26046" lon="7.373">
        <ele>394</ele>
        <time>2021-08-04T08:52:17Z</time>
      </trkpt>
      <trkpt lat="48.26043" lon="7.37286">
        <ele>393.6</ele>
        <time>2021-08-04T08:52:19Z</time>
      </trkpt>
      <trkpt lat="48.26042" lon="7.37278">
        <ele>393.4</ele>
        <time>2021-08-04T08:52:20Z</time>
      </trkpt>
      <trkpt lat="48.2604" lon="7.37269">
        <ele>393.1</ele>
        <time>2021-08-04T08:52:21Z</time>
      </trkpt>
      <trkpt lat="48.26037" lon="7.37255">
        <ele>392.7</ele>
        <time>2021-08-04T08:52:23Z</time>
      </trkpt>
      <trkpt lat="48.26036" lon="7.37236">
        <ele>392.1</ele>
        <time>2021-08-04T08:52:24Z</time>
      </trkpt>
      <trkpt lat="48.26036" lon="7.37214">
        <ele>391.4</ele>
        <time>2021-08-04T08:52:26Z</time>
      </trkpt>
      <trkpt lat="48.26035" lon="7.37193">
        <ele>390.5</ele>
        <time>2021-08-04T08:52:28Z</time>
      </trkpt>
      <trkpt lat="48.26034" lon="7.37168">
        <ele>389.2</ele>
        <time>2021-08-04T08:52:30Z</time>
      </trkpt>
      <trkpt lat="48.26033" lon="7.37148">
        <ele>388.2</ele>
        <time>2021-08-04T08:52:32Z</time>
      </trkpt>
      <trkpt lat="48.26033" lon="7.37126">
        <ele>387.1</ele>
        <time>2021-08-04T08:52:34Z</time>
      </trkpt>
      <trkpt lat="48.26032" lon="7.37114">
        <ele>386.4</ele>
        <time>2021-08-04T08:52:35Z</time>
      </trkpt>
      <trkpt lat="48.26032" lon="7.37101">
        <ele>385.7</ele>
        <time>2021-08-04T08:52:36Z</time>
      </trkpt>
      <trkpt lat="48.2603" lon="7.37074">
        <ele>384.2</ele>
        <time>2021-08-04T08:52:38Z</time>
      </trkpt>
      <trkpt lat="48.26031" lon="7.37061">
        <ele>383.5</ele>
        <time>2021-08-04T08:52:39Z</time>
      </trkpt>
      <trkpt lat="48.26032" lon="7.37038">
        <ele>382.3</ele>
        <time>2021-08-04T08:52:41Z</time>
      </trkpt>
      <trkpt lat="48.26033" lon="7.37029">
        <ele>381.8</ele>
        <time>2021-08-04T08:52:42Z</time>
      </trkpt>
      <trkpt lat="48.26033" lon="7.37013">
        <ele>381</ele>
        <time>2021-08-04T08:52:44Z</time>
      </trkpt>
      <trkpt lat="48.26031" lon="7.36998">
        <ele>380.3</ele>
        <time>2021-08-04T08:52:46Z</time>
      </trkpt>
      <trkpt lat="48.2603" lon="7.36993">
        <ele>380</ele>
        <time>2021-08-04T08:52:47Z</time>
      </trkpt>
      <trkpt lat="48.26027" lon="7.36983">
        <ele>379.6</ele>
        <time>2021-08-04T08:52:49Z</time>
      </trkpt>
      <trkpt lat="48.26025" lon="7.36978">
        <ele>379.3</ele>
        <time>2021-08-04T08:52:50Z</time>
      </trkpt>
      <trkpt lat="48.26022" lon="7.36975">
        <ele>379.3</ele>
        <time>2021-08-04T08:52:51Z</time>
      </trkpt>
      <trkpt lat="48.26015" lon="7.36973">
        <ele>379.8</ele>
        <time>2021-08-04T08:52:53Z</time>
      </trkpt>
      <trkpt lat="48.26015" lon="7.36972">
        <ele>379.8</ele>
        <time>2021-08-04T08:52:55Z</time>
      </trkpt>
      <trkpt lat="48.26012" lon="7.36971">
        <ele>380</ele>
        <time>2021-08-04T08:52:56Z</time>
      </trkpt>
      <trkpt lat="48.26007" lon="7.36971">
        <ele>380.5</ele>
        <time>2021-08-04T08:52:58Z</time>
      </trkpt>
      <trkpt lat="48.26003" lon="7.36971">
        <ele>380.9</ele>
        <time>2021-08-04T08:53:00Z</time>
      </trkpt>
      <trkpt lat="48.26001" lon="7.36972">
        <ele>381.1</ele>
        <time>2021-08-04T08:53:01Z</time>
      </trkpt>
      <trkpt lat="48.26" lon="7.36972">
        <ele>381.2</ele>
        <time>2021-08-04T08:53:03Z</time>
      </trkpt>
      <trkpt lat="48.25999" lon="7.36973">
        <ele>381.3</ele>
        <time>2021-08-04T08:53:04Z</time>
      </trkpt>
      <trkpt lat="48.25994" lon="7.36972">
        <ele>381.7</ele>
        <time>2021-08-04T08:53:06Z</time>
      </trkpt>
      <trkpt lat="48.2599" lon="7.36972">
        <ele>382.1</ele>
        <time>2021-08-04T08:53:07Z</time>
      </trkpt>
      <trkpt lat="48.25986" lon="7.36971">
        <ele>382.4</ele>
        <time>2021-08-04T08:53:08Z</time>
      </trkpt>
      <trkpt lat="48.25982" lon="7.3697">
        <ele>382.7</ele>
        <time>2021-08-04T08:53:10Z</time>
      </trkpt>
      <trkpt lat="48.25978" lon="7.36969">
        <ele>383</ele>
        <time>2021-08-04T08:53:11Z</time>
      </trkpt>
      <trkpt lat="48.25974" lon="7.36969">
        <ele>383.2</ele>
        <time>2021-08-04T08:53:13Z</time>
      </trkpt>
      <trkpt lat="48.2597" lon="7.36968">
        <ele>383.5</ele>
        <time>2021-08-04T08:53:14Z</time>
      </trkpt>
      <trkpt lat="48.25966" lon="7.36967">
        <ele>383.8</ele>
        <time>2021-08-04T08:53:41Z</time>
      </trkpt>
      <trkpt lat="48.25962" lon="7.36967">
        <ele>384</ele>
        <time>2021-08-04T08:53:42Z</time>
      </trkpt>
      <trkpt lat="48.25958" lon="7.36966">
        <ele>384.3</ele>
        <time>2021-08-04T08:53:43Z</time>
      </trkpt>
      <trkpt lat="48.25953" lon="7.36965">
        <ele>384.6</ele>
        <time>2021-08-04T08:53:45Z</time>
      </trkpt>
      <trkpt lat="48.2595" lon="7.36963">
        <ele>384.8</ele>
        <time>2021-08-04T08:53:46Z</time>
      </trkpt>
      <trkpt lat="48.25949" lon="7.36963">
        <ele>384.9</ele>
        <time>2021-08-04T08:53:47Z</time>
      </trkpt>
      <trkpt lat="48.25947" lon="7.36962">
        <ele>385</ele>
        <time>2021-08-04T08:53:48Z</time>
      </trkpt>
      <trkpt lat="48.25944" lon="7.36961">
        <ele>385.2</ele>
        <time>2021-08-04T08:53:50Z</time>
      </trkpt>
      <trkpt lat="48.25941" lon="7.3696">
        <ele>385.4</ele>
        <time>2021-08-04T08:53:51Z</time>
      </trkpt>
      <trkpt lat="48.2594" lon="7.3696">
        <ele>385.4</ele>
        <time>2021-08-04T08:53:52Z</time>
      </trkpt>
      <trkpt lat="48.25939" lon="7.36959">
        <ele>385.5</ele>
        <time>2021-08-04T08:53:53Z</time>
      </trkpt>
      <trkpt lat="48.25935" lon="7.3696">
        <ele>385.7</ele>
        <time>2021-08-04T08:53:55Z</time>
      </trkpt>
      <trkpt lat="48.2593" lon="7.36959">
        <ele>385.9</ele>
        <time>2021-08-04T08:53:57Z</time>
      </trkpt>
      <trkpt lat="48.25929" lon="7.3696">
        <ele>386</ele>
        <time>2021-08-04T08:53:58Z</time>
      </trkpt>
      <trkpt lat="48.25928" lon="7.3696">
        <ele>386.1</ele>
        <time>2021-08-04T08:53:59Z</time>
      </trkpt>
      <trkpt lat="48.25924" lon="7.36959">
        <ele>386.3</ele>
        <time>2021-08-04T08:54:00Z</time>
      </trkpt>
      <trkpt lat="48.25922" lon="7.36959">
        <ele>386.4</ele>
        <time>2021-08-04T08:54:01Z</time>
      </trkpt>
      <trkpt lat="48.25919" lon="7.36957">
        <ele>386.5</ele>
        <time>2021-08-04T08:54:02Z</time>
      </trkpt>
      <trkpt lat="48.25917" lon="7.36954">
        <ele>386.7</ele>
        <time>2021-08-04T08:54:03Z</time>
      </trkpt>
      <trkpt lat="48.25911" lon="7.36952">
        <ele>387</ele>
        <time>2021-08-04T08:54:05Z</time>
      </trkpt>
      <trkpt lat="48.25909" lon="7.3695">
        <ele>387.1</ele>
        <time>2021-08-04T08:54:06Z</time>
      </trkpt>
      <trkpt lat="48.25906" lon="7.36949">
        <ele>387.3</ele>
        <time>2021-08-04T08:54:08Z</time>
      </trkpt>
      <trkpt lat="48.25905" lon="7.3695">
        <ele>387.3</ele>
        <time>2021-08-04T08:54:09Z</time>
      </trkpt>
      <trkpt lat="48.25904" lon="7.3695">
        <ele>387.4</ele>
        <time>2021-08-04T08:54:10Z</time>
      </trkpt>
      <trkpt lat="48.25903" lon="7.3695">
        <ele>387.4</ele>
        <time>2021-08-04T08:54:11Z</time>
      </trkpt>
      <trkpt lat="48.25902" lon="7.3695">
        <ele>387.5</ele>
        <time>2021-08-04T08:54:12Z</time>
      </trkpt>
      <trkpt lat="48.25902" lon="7.3695">
        <ele>387.5</ele>
        <time>2021-08-04T08:54:13Z</time>
      </trkpt>
      <trkpt lat="48.25901" lon="7.36951">
        <ele>387.5</ele>
        <time>2021-08-04T08:54:14Z</time>
      </trkpt>
      <trkpt lat="48.25901" lon="7.36951">
        <ele>387.5</ele>
        <time>2021-08-04T08:54:15Z</time>
      </trkpt>
      <trkpt lat="48.25899" lon="7.36951">
        <ele>387.6</ele>
        <time>2021-08-04T08:54:17Z</time>
      </trkpt>
      <trkpt lat="48.25884" lon="7.36953">
        <ele>388.3</ele>
        <time>2021-08-04T08:54:25Z</time>
      </trkpt>
      <trkpt lat="48.25879" lon="7.36954">
        <ele>388.5</ele>
        <time>2021-08-04T08:54:26Z</time>
      </trkpt>
      <trkpt lat="48.25872" lon="7.36956">
        <ele>388.6</ele>
        <time>2021-08-04T08:54:27Z</time>
      </trkpt>
      <trkpt lat="48.25867" lon="7.36957">
        <ele>388.7</ele>
        <time>2021-08-04T08:54:29Z</time>
      </trkpt>
      <trkpt lat="48.25862" lon="7.36958">
        <ele>388.8</ele>
        <time>2021-08-04T08:54:30Z</time>
      </trkpt>
      <trkpt lat="48.25858" lon="7.36959">
        <ele>388.9</ele>
        <time>2021-08-04T08:54:31Z</time>
      </trkpt>
      <trkpt lat="48.25854" lon="7.3696">
        <ele>389</ele>
        <time>2021-08-04T08:54:32Z</time>
      </trkpt>
      <trkpt lat="48.2585" lon="7.36962">
        <ele>389</ele>
        <time>2021-08-04T08:54:34Z</time>
      </trkpt>
      <trkpt lat="48.25847" lon="7.36963">
        <ele>389.1</ele>
        <time>2021-08-04T08:54:35Z</time>
      </trkpt>
      <trkpt lat="48.25844" lon="7.36965">
        <ele>389.1</ele>
        <time>2021-08-04T08:54:36Z</time>
      </trkpt>
      <trkpt lat="48.25841" lon="7.36967">
        <ele>389.2</ele>
        <time>2021-08-04T08:54:37Z</time>
      </trkpt>
      <trkpt lat="48.25839" lon="7.36968">
        <ele>389.2</ele>
        <time>2021-08-04T08:54:38Z</time>
      </trkpt>
      <trkpt lat="48.25835" lon="7.36971">
        <ele>389.3</ele>
        <time>2021-08-04T08:54:40Z</time>
      </trkpt>
      <trkpt lat="48.25832" lon="7.36973">
        <ele>389.3</ele>
        <time>2021-08-04T08:54:41Z</time>
      </trkpt>
      <trkpt lat="48.25829" lon="7.36975">
        <ele>389.4</ele>
        <time>2021-08-04T08:54:43Z</time>
      </trkpt>
      <trkpt lat="48.25827" lon="7.36978">
        <ele>389.4</ele>
        <time>2021-08-04T08:54:44Z</time>
      </trkpt>
      <trkpt lat="48.25825" lon="7.36981">
        <ele>389.4</ele>
        <time>2021-08-04T08:54:45Z</time>
      </trkpt>
      <trkpt lat="48.25822" lon="7.36984">
        <ele>389.4</ele>
        <time>2021-08-04T08:54:46Z</time>
      </trkpt>
      <trkpt lat="48.25821" lon="7.36985">
        <ele>389.4</ele>
        <time>2021-08-04T08:54:47Z</time>
      </trkpt>
      <trkpt lat="48.25818" lon="7.36986">
        <ele>389.4</ele>
        <time>2021-08-04T08:54:48Z</time>
      </trkpt>
      <trkpt lat="48.25815" lon="7.36986">
        <ele>389.4</ele>
        <time>2021-08-04T08:54:49Z</time>
      </trkpt>
      <trkpt lat="48.25812" lon="7.36985">
        <ele>389.4</ele>
        <time>2021-08-04T08:54:50Z</time>
      </trkpt>
      <trkpt lat="48.25808" lon="7.36983">
        <ele>389.4</ele>
        <time>2021-08-04T08:54:51Z</time>
      </trkpt>
      <trkpt lat="48.25807" lon="7.36982">
        <ele>389.4</ele>
        <time>2021-08-04T08:54:52Z</time>
      </trkpt>
      <trkpt lat="48.25802" lon="7.36976">
        <ele>389.2</ele>
        <time>2021-08-04T08:54:54Z</time>
      </trkpt>
      <trkpt lat="48.25798" lon="7.36971">
        <ele>389.1</ele>
        <time>2021-08-04T08:54:55Z</time>
      </trkpt>
      <trkpt lat="48.25795" lon="7.36968">
        <ele>389</ele>
        <time>2021-08-04T08:54:56Z</time>
      </trkpt>
      <trkpt lat="48.25791" lon="7.36964">
        <ele>388.9</ele>
        <time>2021-08-04T08:54:58Z</time>
      </trkpt>
      <trkpt lat="48.25788" lon="7.36961">
        <ele>388.8</ele>
        <time>2021-08-04T08:54:59Z</time>
      </trkpt>
      <trkpt lat="48.25785" lon="7.36957">
        <ele>388.8</ele>
        <time>2021-08-04T08:55:00Z</time>
      </trkpt>
      <trkpt lat="48.25783" lon="7.36955">
        <ele>388.8</ele>
        <time>2021-08-04T08:55:01Z</time>
      </trkpt>
      <trkpt lat="48.2578" lon="7.36953">
        <ele>388.8</ele>
        <time>2021-08-04T08:55:02Z</time>
      </trkpt>
      <trkpt lat="48.25775" lon="7.36951">
        <ele>388.7</ele>
        <time>2021-08-04T08:55:04Z</time>
      </trkpt>
      <trkpt lat="48.25772" lon="7.36948">
        <ele>388.8</ele>
        <time>2021-08-04T08:55:06Z</time>
      </trkpt>
      <trkpt lat="48.2577" lon="7.36947">
        <ele>388.8</ele>
        <time>2021-08-04T08:55:07Z</time>
      </trkpt>
      <trkpt lat="48.25769" lon="7.36946">
        <ele>388.8</ele>
        <time>2021-08-04T08:55:08Z</time>
      </trkpt>
      <trkpt lat="48.25764" lon="7.36942">
        <ele>388.8</ele>
        <time>2021-08-04T08:55:10Z</time>
      </trkpt>
      <trkpt lat="48.25763" lon="7.36941">
        <ele>388.9</ele>
        <time>2021-08-04T08:55:11Z</time>
      </trkpt>
      <trkpt lat="48.25761" lon="7.36939">
        <ele>388.9</ele>
        <time>2021-08-04T08:55:12Z</time>
      </trkpt>
      <trkpt lat="48.25758" lon="7.36935">
        <ele>389</ele>
        <time>2021-08-04T08:55:13Z</time>
      </trkpt>
      <trkpt lat="48.25756" lon="7.36933">
        <ele>389</ele>
        <time>2021-08-04T08:55:14Z</time>
      </trkpt>
      <trkpt lat="48.25753" lon="7.36929">
        <ele>389.1</ele>
        <time>2021-08-04T08:55:16Z</time>
      </trkpt>
      <trkpt lat="48.2575" lon="7.36926">
        <ele>389.1</ele>
        <time>2021-08-04T08:55:17Z</time>
      </trkpt>
      <trkpt lat="48.25748" lon="7.36922">
        <ele>389.2</ele>
        <time>2021-08-04T08:55:18Z</time>
      </trkpt>
      <trkpt lat="48.25746" lon="7.36918">
        <ele>389.2</ele>
        <time>2021-08-04T08:55:19Z</time>
      </trkpt>
      <trkpt lat="48.25744" lon="7.36912">
        <ele>389.4</ele>
        <time>2021-08-04T08:55:21Z</time>
      </trkpt>
      <trkpt lat="48.25742" lon="7.36907">
        <ele>389.5</ele>
        <time>2021-08-04T08:55:23Z</time>
      </trkpt>
      <trkpt lat="48.25741" lon="7.36906">
        <ele>389.5</ele>
        <time>2021-08-04T08:55:24Z</time>
      </trkpt>
      <trkpt lat="48.25738" lon="7.36904">
        <ele>389.6</ele>
        <time>2021-08-04T08:55:25Z</time>
      </trkpt>
      <trkpt lat="48.25738" lon="7.36903">
        <ele>389.6</ele>
        <time>2021-08-04T08:55:26Z</time>
      </trkpt>
      <trkpt lat="48.25735" lon="7.369">
        <ele>389.7</ele>
        <time>2021-08-04T08:55:27Z</time>
      </trkpt>
      <trkpt lat="48.25734" lon="7.36899">
        <ele>389.8</ele>
        <time>2021-08-04T08:55:28Z</time>
      </trkpt>
      <trkpt lat="48.25732" lon="7.36896">
        <ele>389.9</ele>
        <time>2021-08-04T08:55:29Z</time>
      </trkpt>
      <trkpt lat="48.25731" lon="7.36895">
        <ele>389.9</ele>
        <time>2021-08-04T08:55:30Z</time>
      </trkpt>
      <trkpt lat="48.2573" lon="7.36888">
        <ele>390.1</ele>
        <time>2021-08-04T08:55:32Z</time>
      </trkpt>
      <trkpt lat="48.25729" lon="7.36886">
        <ele>390.1</ele>
        <time>2021-08-04T08:55:33Z</time>
      </trkpt>
      <trkpt lat="48.25729" lon="7.36884">
        <ele>390.2</ele>
        <time>2021-08-04T08:55:34Z</time>
      </trkpt>
      <trkpt lat="48.25728" lon="7.36882">
        <ele>390.3</ele>
        <time>2021-08-04T08:55:35Z</time>
      </trkpt>
      <trkpt lat="48.25727" lon="7.3688">
        <ele>390.3</ele>
        <time>2021-08-04T08:55:36Z</time>
      </trkpt>
      <trkpt lat="48.25723" lon="7.36877">
        <ele>390.5</ele>
        <time>2021-08-04T08:55:37Z</time>
      </trkpt>
      <trkpt lat="48.25721" lon="7.36875">
        <ele>390.6</ele>
        <time>2021-08-04T08:55:38Z</time>
      </trkpt>
      <trkpt lat="48.25719" lon="7.36872">
        <ele>390.7</ele>
        <time>2021-08-04T08:55:39Z</time>
      </trkpt>
      <trkpt lat="48.25716" lon="7.36868">
        <ele>390.9</ele>
        <time>2021-08-04T08:55:41Z</time>
      </trkpt>
      <trkpt lat="48.25712" lon="7.36863">
        <ele>391.1</ele>
        <time>2021-08-04T08:55:42Z</time>
      </trkpt>
      <trkpt lat="48.25708" lon="7.36862">
        <ele>391.3</ele>
        <time>2021-08-04T08:55:43Z</time>
      </trkpt>
      <trkpt lat="48.25706" lon="7.3686">
        <ele>391.4</ele>
        <time>2021-08-04T08:55:45Z</time>
      </trkpt>
      <trkpt lat="48.25703" lon="7.36855">
        <ele>391.6</ele>
        <time>2021-08-04T08:55:46Z</time>
      </trkpt>
      <trkpt lat="48.25701" lon="7.36852">
        <ele>391.7</ele>
        <time>2021-08-04T08:55:47Z</time>
      </trkpt>
      <trkpt lat="48.257" lon="7.3685">
        <ele>391.8</ele>
        <time>2021-08-04T08:55:49Z</time>
      </trkpt>
      <trkpt lat="48.25696" lon="7.36848">
        <ele>392</ele>
        <time>2021-08-04T08:55:50Z</time>
      </trkpt>
      <trkpt lat="48.25694" lon="7.36846">
        <ele>392.1</ele>
        <time>2021-08-04T08:55:51Z</time>
      </trkpt>
      <trkpt lat="48.25692" lon="7.36845">
        <ele>392.1</ele>
        <time>2021-08-04T08:55:53Z</time>
      </trkpt>
      <trkpt lat="48.2569" lon="7.36841">
        <ele>392.3</ele>
        <time>2021-08-04T08:55:55Z</time>
      </trkpt>
      <trkpt lat="48.2569" lon="7.3684">
        <ele>392.3</ele>
        <time>2021-08-04T08:55:56Z</time>
      </trkpt>
      <trkpt lat="48.25689" lon="7.36837">
        <ele>392.4</ele>
        <time>2021-08-04T08:55:57Z</time>
      </trkpt>
      <trkpt lat="48.25688" lon="7.36833">
        <ele>392.5</ele>
        <time>2021-08-04T08:55:58Z</time>
      </trkpt>
      <trkpt lat="48.25688" lon="7.36832">
        <ele>392.5</ele>
        <time>2021-08-04T08:55:59Z</time>
      </trkpt>
      <trkpt lat="48.25686" lon="7.36828">
        <ele>392.6</ele>
        <time>2021-08-04T08:56:01Z</time>
      </trkpt>
      <trkpt lat="48.25685" lon="7.36825">
        <ele>392.7</ele>
        <time>2021-08-04T08:56:02Z</time>
      </trkpt>
      <trkpt lat="48.25685" lon="7.36823">
        <ele>392.7</ele>
        <time>2021-08-04T08:56:04Z</time>
      </trkpt>
      <trkpt lat="48.25683" lon="7.36821">
        <ele>392.8</ele>
        <time>2021-08-04T08:56:06Z</time>
      </trkpt>
      <trkpt lat="48.25683" lon="7.3682">
        <ele>392.8</ele>
        <time>2021-08-04T08:56:07Z</time>
      </trkpt>
      <trkpt lat="48.25681" lon="7.36815">
        <ele>393</ele>
        <time>2021-08-04T08:56:09Z</time>
      </trkpt>
      <trkpt lat="48.2568" lon="7.36813">
        <ele>393</ele>
        <time>2021-08-04T08:56:10Z</time>
      </trkpt>
      <trkpt lat="48.25678" lon="7.36809">
        <ele>393.2</ele>
        <time>2021-08-04T08:56:11Z</time>
      </trkpt>
      <trkpt lat="48.25677" lon="7.36808">
        <ele>393.2</ele>
        <time>2021-08-04T08:56:12Z</time>
      </trkpt>
      <trkpt lat="48.25676" lon="7.36803">
        <ele>393.3</ele>
        <time>2021-08-04T08:56:14Z</time>
      </trkpt>
      <trkpt lat="48.25675" lon="7.36802">
        <ele>393.4</ele>
        <time>2021-08-04T08:56:15Z</time>
      </trkpt>
      <trkpt lat="48.25673" lon="7.368">
        <ele>393.5</ele>
        <time>2021-08-04T08:56:16Z</time>
      </trkpt>
      <trkpt lat="48.25671" lon="7.36799">
        <ele>393.6</ele>
        <time>2021-08-04T08:56:17Z</time>
      </trkpt>
      <trkpt lat="48.2567" lon="7.36799">
        <ele>393.6</ele>
        <time>2021-08-04T08:56:19Z</time>
      </trkpt>
      <trkpt lat="48.25669" lon="7.36799">
        <ele>393.7</ele>
        <time>2021-08-04T08:56:20Z</time>
      </trkpt>
      <trkpt lat="48.25668" lon="7.36798">
        <ele>393.7</ele>
        <time>2021-08-04T08:56:21Z</time>
      </trkpt>
      <trkpt lat="48.25667" lon="7.36798">
        <ele>393.7</ele>
        <time>2021-08-04T08:56:23Z</time>
      </trkpt>
      <trkpt lat="48.25667" lon="7.36797">
        <ele>393.8</ele>
        <time>2021-08-04T08:56:25Z</time>
      </trkpt>
      <trkpt lat="48.25666" lon="7.36797">
        <ele>393.8</ele>
        <time>2021-08-04T08:56:26Z</time>
      </trkpt>
      <trkpt lat="48.25642" lon="7.36756">
        <ele>395.6</ele>
        <time>2021-08-04T08:56:47Z</time>
      </trkpt>
      <trkpt lat="48.25641" lon="7.36753">
        <ele>395.7</ele>
        <time>2021-08-04T08:56:48Z</time>
      </trkpt>
      <trkpt lat="48.25639" lon="7.36749">
        <ele>395.8</ele>
        <time>2021-08-04T08:56:50Z</time>
      </trkpt>
      <trkpt lat="48.25639" lon="7.36748">
        <ele>395.9</ele>
        <time>2021-08-04T08:56:51Z</time>
      </trkpt>
      <trkpt lat="48.25639" lon="7.36747">
        <ele>395.9</ele>
        <time>2021-08-04T08:56:52Z</time>
      </trkpt>
      <trkpt lat="48.25638" lon="7.36744">
        <ele>396.1</ele>
        <time>2021-08-04T08:56:53Z</time>
      </trkpt>
      <trkpt lat="48.25637" lon="7.36741">
        <ele>396.2</ele>
        <time>2021-08-04T08:56:54Z</time>
      </trkpt>
      <trkpt lat="48.25637" lon="7.36735">
        <ele>396.5</ele>
        <time>2021-08-04T08:56:56Z</time>
      </trkpt>
      <trkpt lat="48.25637" lon="7.36732">
        <ele>396.7</ele>
        <time>2021-08-04T08:56:57Z</time>
      </trkpt>
      <trkpt lat="48.25637" lon="7.36729">
        <ele>396.8</ele>
        <time>2021-08-04T08:56:59Z</time>
      </trkpt>
      <trkpt lat="48.25636" lon="7.36725">
        <ele>397.1</ele>
        <time>2021-08-04T08:57:00Z</time>
      </trkpt>
      <trkpt lat="48.25636" lon="7.36723">
        <ele>397.2</ele>
        <time>2021-08-04T08:57:01Z</time>
      </trkpt>
      <trkpt lat="48.25634" lon="7.36719">
        <ele>397.4</ele>
        <time>2021-08-04T08:57:03Z</time>
      </trkpt>
      <trkpt lat="48.25634" lon="7.36717">
        <ele>397.5</ele>
        <time>2021-08-04T08:57:04Z</time>
      </trkpt>
      <trkpt lat="48.25633" lon="7.36716">
        <ele>397.6</ele>
        <time>2021-08-04T08:57:06Z</time>
      </trkpt>
      <trkpt lat="48.25632" lon="7.36716">
        <ele>397.7</ele>
        <time>2021-08-04T08:57:07Z</time>
      </trkpt>
      <trkpt lat="48.25629" lon="7.36715">
        <ele>398</ele>
        <time>2021-08-04T08:57:08Z</time>
      </trkpt>
      <trkpt lat="48.25627" lon="7.36714">
        <ele>398.2</ele>
        <time>2021-08-04T08:57:10Z</time>
      </trkpt>
      <trkpt lat="48.25624" lon="7.36713">
        <ele>398.4</ele>
        <time>2021-08-04T08:57:12Z</time>
      </trkpt>
      <trkpt lat="48.25623" lon="7.36713">
        <ele>398.5</ele>
        <time>2021-08-04T08:57:13Z</time>
      </trkpt>
      <trkpt lat="48.25622" lon="7.36712">
        <ele>398.6</ele>
        <time>2021-08-04T08:57:15Z</time>
      </trkpt>
      <trkpt lat="48.25622" lon="7.36713">
        <ele>398.6</ele>
        <time>2021-08-04T08:57:16Z</time>
      </trkpt>
      <trkpt lat="48.25622" lon="7.36713">
        <ele>398.7</ele>
        <time>2021-08-04T08:57:17Z</time>
      </trkpt>
      <trkpt lat="48.25621" lon="7.36713">
        <ele>398.7</ele>
        <time>2021-08-04T08:57:18Z</time>
      </trkpt>
      <trkpt lat="48.25621" lon="7.36713">
        <ele>398.7</ele>
        <time>2021-08-04T08:57:19Z</time>
      </trkpt>
      <trkpt lat="48.25621" lon="7.36713">
        <ele>398.7</ele>
        <time>2021-08-04T08:57:21Z</time>
      </trkpt>
      <trkpt lat="48.25575" lon="7.36678">
        <ele>402.2</ele>
        <time>2021-08-04T08:57:59Z</time>
      </trkpt>
      <trkpt lat="48.25573" lon="7.36675">
        <ele>402.3</ele>
        <time>2021-08-04T08:58:00Z</time>
      </trkpt>
      <trkpt lat="48.2557" lon="7.3667">
        <ele>402.5</ele>
        <time>2021-08-04T08:58:01Z</time>
      </trkpt>
      <trkpt lat="48.25568" lon="7.36667">
        <ele>402.7</ele>
        <time>2021-08-04T08:58:02Z</time>
      </trkpt>
      <trkpt lat="48.25565" lon="7.36665">
        <ele>402.8</ele>
        <time>2021-08-04T08:58:03Z</time>
      </trkpt>
      <trkpt lat="48.25563" lon="7.36663">
        <ele>403</ele>
        <time>2021-08-04T08:58:05Z</time>
      </trkpt>
      <trkpt lat="48.25561" lon="7.36662">
        <ele>403.1</ele>
        <time>2021-08-04T08:58:06Z</time>
      </trkpt>
      <trkpt lat="48.25557" lon="7.3666">
        <ele>403.2</ele>
        <time>2021-08-04T08:58:07Z</time>
      </trkpt>
      <trkpt lat="48.25556" lon="7.36659">
        <ele>403.3</ele>
        <time>2021-08-04T08:58:08Z</time>
      </trkpt>
      <trkpt lat="48.25553" lon="7.36657">
        <ele>403.4</ele>
        <time>2021-08-04T08:58:09Z</time>
      </trkpt>
      <trkpt lat="48.25551" lon="7.36656">
        <ele>403.5</ele>
        <time>2021-08-04T08:58:11Z</time>
      </trkpt>
      <trkpt lat="48.2555" lon="7.36654">
        <ele>403.6</ele>
        <time>2021-08-04T08:58:12Z</time>
      </trkpt>
      <trkpt lat="48.25547" lon="7.36651">
        <ele>403.7</ele>
        <time>2021-08-04T08:58:13Z</time>
      </trkpt>
      <trkpt lat="48.25544" lon="7.36647">
        <ele>403.8</ele>
        <time>2021-08-04T08:58:14Z</time>
      </trkpt>
      <trkpt lat="48.25543" lon="7.36645">
        <ele>403.9</ele>
        <time>2021-08-04T08:58:15Z</time>
      </trkpt>
      <trkpt lat="48.2554" lon="7.36642">
        <ele>404</ele>
        <time>2021-08-04T08:58:17Z</time>
      </trkpt>
      <trkpt lat="48.25537" lon="7.3664">
        <ele>404.1</ele>
        <time>2021-08-04T08:58:18Z</time>
      </trkpt>
      <trkpt lat="48.25534" lon="7.36637">
        <ele>404.2</ele>
        <time>2021-08-04T08:58:19Z</time>
      </trkpt>
      <trkpt lat="48.25531" lon="7.3663">
        <ele>404.3</ele>
        <time>2021-08-04T08:58:21Z</time>
      </trkpt>
      <trkpt lat="48.2553" lon="7.36627">
        <ele>404.4</ele>
        <time>2021-08-04T08:58:22Z</time>
      </trkpt>
      <trkpt lat="48.25529" lon="7.36624">
        <ele>404.5</ele>
        <time>2021-08-04T08:58:23Z</time>
      </trkpt>
      <trkpt lat="48.25528" lon="7.36618">
        <ele>404.6</ele>
        <time>2021-08-04T08:58:25Z</time>
      </trkpt>
      <trkpt lat="48.25527" lon="7.36614">
        <ele>404.7</ele>
        <time>2021-08-04T08:58:26Z</time>
      </trkpt>
      <trkpt lat="48.25526" lon="7.36609">
        <ele>405.1</ele>
        <time>2021-08-04T08:58:28Z</time>
      </trkpt>
      <trkpt lat="48.25525" lon="7.36608">
        <ele>405.2</ele>
        <time>2021-08-04T08:58:29Z</time>
      </trkpt>
      <trkpt lat="48.25523" lon="7.36609">
        <ele>405.3</ele>
        <time>2021-08-04T08:58:30Z</time>
      </trkpt>
      <trkpt lat="48.25521" lon="7.36609">
        <ele>405.4</ele>
        <time>2021-08-04T08:58:32Z</time>
      </trkpt>
      <trkpt lat="48.25521" lon="7.36608">
        <ele>405.4</ele>
        <time>2021-08-04T08:58:33Z</time>
      </trkpt>
      <trkpt lat="48.25521" lon="7.36607">
        <ele>405.4</ele>
        <time>2021-08-04T08:58:34Z</time>
      </trkpt>
      <trkpt lat="48.2552" lon="7.36607">
        <ele>405.5</ele>
        <time>2021-08-04T08:58:36Z</time>
      </trkpt>
      <trkpt lat="48.25518" lon="7.36605">
        <ele>405.6</ele>
        <time>2021-08-04T08:58:38Z</time>
      </trkpt>
      <trkpt lat="48.2551" lon="7.36588">
        <ele>406.5</ele>
        <time>2021-08-04T08:58:47Z</time>
      </trkpt>
      <trkpt lat="48.25509" lon="7.36584">
        <ele>406.7</ele>
        <time>2021-08-04T08:58:48Z</time>
      </trkpt>
      <trkpt lat="48.25507" lon="7.36583">
        <ele>406.8</ele>
        <time>2021-08-04T08:58:50Z</time>
      </trkpt>
      <trkpt lat="48.25506" lon="7.36581">
        <ele>406.9</ele>
        <time>2021-08-04T08:58:51Z</time>
      </trkpt>
      <trkpt lat="48.25505" lon="7.36577">
        <ele>407.1</ele>
        <time>2021-08-04T08:58:52Z</time>
      </trkpt>
      <trkpt lat="48.25502" lon="7.36573">
        <ele>407.3</ele>
        <time>2021-08-04T08:58:54Z</time>
      </trkpt>
      <trkpt lat="48.25501" lon="7.36572">
        <ele>407.4</ele>
        <time>2021-08-04T08:58:55Z</time>
      </trkpt>
      <trkpt lat="48.25497" lon="7.36567">
        <ele>407.8</ele>
        <time>2021-08-04T08:58:57Z</time>
      </trkpt>
      <trkpt lat="48.25496" lon="7.36566">
        <ele>407.9</ele>
        <time>2021-08-04T08:58:58Z</time>
      </trkpt>
      <trkpt lat="48.25496" lon="7.36566">
        <ele>407.9</ele>
        <time>2021-08-04T08:59:00Z</time>
      </trkpt>
      <trkpt lat="48.25495" lon="7.36564">
        <ele>408</ele>
        <time>2021-08-04T08:59:01Z</time>
      </trkpt>
      <trkpt lat="48.25494" lon="7.36563">
        <ele>408.1</ele>
        <time>2021-08-04T08:59:03Z</time>
      </trkpt>
      <trkpt lat="48.25493" lon="7.3656">
        <ele>408.3</ele>
        <time>2021-08-04T08:59:05Z</time>
      </trkpt>
      <trkpt lat="48.25481" lon="7.36547">
        <ele>409.2</ele>
        <time>2021-08-04T08:59:13Z</time>
      </trkpt>
      <trkpt lat="48.25478" lon="7.36544">
        <ele>409.4</ele>
        <time>2021-08-04T08:59:15Z</time>
      </trkpt>
      <trkpt lat="48.25477" lon="7.36539">
        <ele>409.6</ele>
        <time>2021-08-04T08:59:16Z</time>
      </trkpt>
      <trkpt lat="48.25477" lon="7.36538">
        <ele>409.6</ele>
        <time>2021-08-04T08:59:17Z</time>
      </trkpt>
      <trkpt lat="48.25476" lon="7.36536">
        <ele>409.7</ele>
        <time>2021-08-04T08:59:18Z</time>
      </trkpt>
      <trkpt lat="48.25476" lon="7.36533">
        <ele>409.8</ele>
        <time>2021-08-04T08:59:19Z</time>
      </trkpt>
      <trkpt lat="48.25475" lon="7.3653">
        <ele>410</ele>
        <time>2021-08-04T08:59:20Z</time>
      </trkpt>
      <trkpt lat="48.25473" lon="7.36527">
        <ele>410.1</ele>
        <time>2021-08-04T08:59:22Z</time>
      </trkpt>
      <trkpt lat="48.25472" lon="7.36526">
        <ele>410.2</ele>
        <time>2021-08-04T08:59:23Z</time>
      </trkpt>
      <trkpt lat="48.25472" lon="7.36524">
        <ele>410.3</ele>
        <time>2021-08-04T08:59:24Z</time>
      </trkpt>
      <trkpt lat="48.2547" lon="7.3652">
        <ele>410.5</ele>
        <time>2021-08-04T08:59:26Z</time>
      </trkpt>
      <trkpt lat="48.25468" lon="7.36517">
        <ele>410.6</ele>
        <time>2021-08-04T08:59:27Z</time>
      </trkpt>
      <trkpt lat="48.25466" lon="7.36513">
        <ele>410.8</ele>
        <time>2021-08-04T08:59:28Z</time>
      </trkpt>
      <trkpt lat="48.25465" lon="7.36512">
        <ele>410.9</ele>
        <time>2021-08-04T08:59:30Z</time>
      </trkpt>
      <trkpt lat="48.25464" lon="7.3651">
        <ele>411</ele>
        <time>2021-08-04T08:59:31Z</time>
      </trkpt>
      <trkpt lat="48.25463" lon="7.36508">
        <ele>411.1</ele>
        <time>2021-08-04T08:59:32Z</time>
      </trkpt>
      <trkpt lat="48.25462" lon="7.36506">
        <ele>411.2</ele>
        <time>2021-08-04T08:59:33Z</time>
      </trkpt>
      <trkpt lat="48.25462" lon="7.36504">
        <ele>411.3</ele>
        <time>2021-08-04T08:59:34Z</time>
      </trkpt>
      <trkpt lat="48.2546" lon="7.36501">
        <ele>411.4</ele>
        <time>2021-08-04T08:59:36Z</time>
      </trkpt>
      <trkpt lat="48.2546" lon="7.365">
        <ele>411.5</ele>
        <time>2021-08-04T08:59:37Z</time>
      </trkpt>
      <trkpt lat="48.2546" lon="7.36499">
        <ele>411.5</ele>
        <time>2021-08-04T08:59:38Z</time>
      </trkpt>
      <trkpt lat="48.25459" lon="7.36497">
        <ele>411.6</ele>
        <time>2021-08-04T08:59:39Z</time>
      </trkpt>
      <trkpt lat="48.25458" lon="7.36494">
        <ele>411.7</ele>
        <time>2021-08-04T08:59:40Z</time>
      </trkpt>
      <trkpt lat="48.25457" lon="7.36493">
        <ele>411.8</ele>
        <time>2021-08-04T08:59:41Z</time>
      </trkpt>
      <trkpt lat="48.25457" lon="7.36491">
        <ele>411.9</ele>
        <time>2021-08-04T08:59:42Z</time>
      </trkpt>
      <trkpt lat="48.25457" lon="7.36489">
        <ele>412</ele>
        <time>2021-08-04T08:59:44Z</time>
      </trkpt>
      <trkpt lat="48.25455" lon="7.36487">
        <ele>412.1</ele>
        <time>2021-08-04T08:59:45Z</time>
      </trkpt>
      <trkpt lat="48.25454" lon="7.36486">
        <ele>412.2</ele>
        <time>2021-08-04T08:59:46Z</time>
      </trkpt>
      <trkpt lat="48.25453" lon="7.36484">
        <ele>412.3</ele>
        <time>2021-08-04T08:59:47Z</time>
      </trkpt>
      <trkpt lat="48.25452" lon="7.36483">
        <ele>412.4</ele>
        <time>2021-08-04T08:59:49Z</time>
      </trkpt>
      <trkpt lat="48.2545" lon="7.36481">
        <ele>412.5</ele>
        <time>2021-08-04T08:59:50Z</time>
      </trkpt>
      <trkpt lat="48.25448" lon="7.36478">
        <ele>412.7</ele>
        <time>2021-08-04T08:59:52Z</time>
      </trkpt>
      <trkpt lat="48.25447" lon="7.36475">
        <ele>412.8</ele>
        <time>2021-08-04T08:59:53Z</time>
      </trkpt>
      <trkpt lat="48.25447" lon="7.36474">
        <ele>412.9</ele>
        <time>2021-08-04T08:59:54Z</time>
      </trkpt>
      <trkpt lat="48.25446" lon="7.3647">
        <ele>413.1</ele>
        <time>2021-08-04T08:59:55Z</time>
      </trkpt>
      <trkpt lat="48.25444" lon="7.36465">
        <ele>413.4</ele>
        <time>2021-08-04T08:59:57Z</time>
      </trkpt>
      <trkpt lat="48.25443" lon="7.36463">
        <ele>413.5</ele>
        <time>2021-08-04T08:59:58Z</time>
      </trkpt>
      <trkpt lat="48.25441" lon="7.36459">
        <ele>413.7</ele>
        <time>2021-08-04T09:00:00Z</time>
      </trkpt>
      <trkpt lat="48.25441" lon="7.36458">
        <ele>413.8</ele>
        <time>2021-08-04T09:00:01Z</time>
      </trkpt>
      <trkpt lat="48.25441" lon="7.36456">
        <ele>413.9</ele>
        <time>2021-08-04T09:00:03Z</time>
      </trkpt>
      <trkpt lat="48.25441" lon="7.36454">
        <ele>413.9</ele>
        <time>2021-08-04T09:00:04Z</time>
      </trkpt>
      <trkpt lat="48.25441" lon="7.36453">
        <ele>414</ele>
        <time>2021-08-04T09:00:05Z</time>
      </trkpt>
      <trkpt lat="48.25442" lon="7.36453">
        <ele>414</ele>
        <time>2021-08-04T09:00:06Z</time>
      </trkpt>
      <trkpt lat="48.25442" lon="7.36452">
        <ele>414</ele>
        <time>2021-08-04T09:00:07Z</time>
      </trkpt>
      <trkpt lat="48.25442" lon="7.36452">
        <ele>414.1</ele>
        <time>2021-08-04T09:00:09Z</time>
      </trkpt>
      <trkpt lat="48.25443" lon="7.36451">
        <ele>414.1</ele>
        <time>2021-08-04T09:00:11Z</time>
      </trkpt>
      <trkpt lat="48.25443" lon="7.36451">
        <ele>414.1</ele>
        <time>2021-08-04T09:00:12Z</time>
      </trkpt>
      <trkpt lat="48.25442" lon="7.36449">
        <ele>414.2</ele>
        <time>2021-08-04T09:00:13Z</time>
      </trkpt>
      <trkpt lat="48.25441" lon="7.36447">
        <ele>414.3</ele>
        <time>2021-08-04T09:00:14Z</time>
      </trkpt>
      <trkpt lat="48.25438" lon="7.36441">
        <ele>414.7</ele>
        <time>2021-08-04T09:00:17Z</time>
      </trkpt>
      <trkpt lat="48.25437" lon="7.36437">
        <ele>414.8</ele>
        <time>2021-08-04T09:00:18Z</time>
      </trkpt>
      <trkpt lat="48.25435" lon="7.36433">
        <ele>415.1</ele>
        <time>2021-08-04T09:00:20Z</time>
      </trkpt>
      <trkpt lat="48.25434" lon="7.36432">
        <ele>415.1</ele>
        <time>2021-08-04T09:00:21Z</time>
      </trkpt>
      <trkpt lat="48.25433" lon="7.36428">
        <ele>415.3</ele>
        <time>2021-08-04T09:00:22Z</time>
      </trkpt>
      <trkpt lat="48.25432" lon="7.36427">
        <ele>415.4</ele>
        <time>2021-08-04T09:00:23Z</time>
      </trkpt>
      <trkpt lat="48.2543" lon="7.36422">
        <ele>415.6</ele>
        <time>2021-08-04T09:00:25Z</time>
      </trkpt>
      <trkpt lat="48.2543" lon="7.36421">
        <ele>415.6</ele>
        <time>2021-08-04T09:00:26Z</time>
      </trkpt>
      <trkpt lat="48.25429" lon="7.36419">
        <ele>415.7</ele>
        <time>2021-08-04T09:00:27Z</time>
      </trkpt>
      <trkpt lat="48.25421" lon="7.36396">
        <ele>416.6</ele>
        <time>2021-08-04T09:00:40Z</time>
      </trkpt>
      <trkpt lat="48.2542" lon="7.3639">
        <ele>416.7</ele>
        <time>2021-08-04T09:00:42Z</time>
      </trkpt>
      <trkpt lat="48.25418" lon="7.36385">
        <ele>416.7</ele>
        <time>2021-08-04T09:00:44Z</time>
      </trkpt>
      <trkpt lat="48.25418" lon="7.36381">
        <ele>416.8</ele>
        <time>2021-08-04T09:00:45Z</time>
      </trkpt>
      <trkpt lat="48.25417" lon="7.36377">
        <ele>416.8</ele>
        <time>2021-08-04T09:00:46Z</time>
      </trkpt>
      <trkpt lat="48.25417" lon="7.36372">
        <ele>416.8</ele>
        <time>2021-08-04T09:00:47Z</time>
      </trkpt>
      <trkpt lat="48.25416" lon="7.36363">
        <ele>416.8</ele>
        <time>2021-08-04T09:00:49Z</time>
      </trkpt>
      <trkpt lat="48.25414" lon="7.36356">
        <ele>416.8</ele>
        <time>2021-08-04T09:00:51Z</time>
      </trkpt>
      <trkpt lat="48.25412" lon="7.36351">
        <ele>416.9</ele>
        <time>2021-08-04T09:00:52Z</time>
      </trkpt>
      <trkpt lat="48.25411" lon="7.36345">
        <ele>416.9</ele>
        <time>2021-08-04T09:00:53Z</time>
      </trkpt>
      <trkpt lat="48.2541" lon="7.36341">
        <ele>416.9</ele>
        <time>2021-08-04T09:00:54Z</time>
      </trkpt>
      <trkpt lat="48.25408" lon="7.36334">
        <ele>416.9</ele>
        <time>2021-08-04T09:00:56Z</time>
      </trkpt>
      <trkpt lat="48.25407" lon="7.36329">
        <ele>416.9</ele>
        <time>2021-08-04T09:00:57Z</time>
      </trkpt>
      <trkpt lat="48.25406" lon="7.36324">
        <ele>416.9</ele>
        <time>2021-08-04T09:00:59Z</time>
      </trkpt>
      <trkpt lat="48.25405" lon="7.36319">
        <ele>416.9</ele>
        <time>2021-08-04T09:01:00Z</time>
      </trkpt>
      <trkpt lat="48.25405" lon="7.36316">
        <ele>416.9</ele>
        <time>2021-08-04T09:01:01Z</time>
      </trkpt>
      <trkpt lat="48.25404" lon="7.3631">
        <ele>417</ele>
        <time>2021-08-04T09:01:03Z</time>
      </trkpt>
      <trkpt lat="48.25402" lon="7.36302">
        <ele>417</ele>
        <time>2021-08-04T09:01:04Z</time>
      </trkpt>
      <trkpt lat="48.25401" lon="7.36297">
        <ele>417</ele>
        <time>2021-08-04T09:01:06Z</time>
      </trkpt>
      <trkpt lat="48.254" lon="7.3629">
        <ele>417.1</ele>
        <time>2021-08-04T09:01:08Z</time>
      </trkpt>
      <trkpt lat="48.25398" lon="7.36286">
        <ele>417.1</ele>
        <time>2021-08-04T09:01:09Z</time>
      </trkpt>
      <trkpt lat="48.25396" lon="7.36281">
        <ele>417.1</ele>
        <time>2021-08-04T09:01:10Z</time>
      </trkpt>
      <trkpt lat="48.25394" lon="7.36278">
        <ele>417.2</ele>
        <time>2021-08-04T09:01:11Z</time>
      </trkpt>
      <trkpt lat="48.25391" lon="7.36273">
        <ele>417.2</ele>
        <time>2021-08-04T09:01:13Z</time>
      </trkpt>
      <trkpt lat="48.2539" lon="7.3627">
        <ele>417.3</ele>
        <time>2021-08-04T09:01:14Z</time>
      </trkpt>
      <trkpt lat="48.25389" lon="7.36268">
        <ele>417.3</ele>
        <time>2021-08-04T09:01:15Z</time>
      </trkpt>
      <trkpt lat="48.25388" lon="7.36263">
        <ele>417.4</ele>
        <time>2021-08-04T09:01:17Z</time>
      </trkpt>
      <trkpt lat="48.25388" lon="7.36257">
        <ele>417.4</ele>
        <time>2021-08-04T09:01:18Z</time>
      </trkpt>
      <trkpt lat="48.25388" lon="7.36253">
        <ele>417.5</ele>
        <time>2021-08-04T09:01:19Z</time>
      </trkpt>
      <trkpt lat="48.25387" lon="7.36249">
        <ele>417.6</ele>
        <time>2021-08-04T09:01:21Z</time>
      </trkpt>
      <trkpt lat="48.25386" lon="7.36244">
        <ele>417.6</ele>
        <time>2021-08-04T09:01:22Z</time>
      </trkpt>
      <trkpt lat="48.25385" lon="7.3624">
        <ele>417.7</ele>
        <time>2021-08-04T09:01:23Z</time>
      </trkpt>
      <trkpt lat="48.25383" lon="7.36236">
        <ele>417.8</ele>
        <time>2021-08-04T09:01:24Z</time>
      </trkpt>
      <trkpt lat="48.25381" lon="7.36234">
        <ele>417.8</ele>
        <time>2021-08-04T09:01:25Z</time>
      </trkpt>
      <trkpt lat="48.25379" lon="7.36231">
        <ele>417.9</ele>
        <time>2021-08-04T09:01:26Z</time>
      </trkpt>
      <trkpt lat="48.25378" lon="7.36228">
        <ele>417.9</ele>
        <time>2021-08-04T09:01:28Z</time>
      </trkpt>
      <trkpt lat="48.25378" lon="7.36225">
        <ele>418</ele>
        <time>2021-08-04T09:01:30Z</time>
      </trkpt>
      <trkpt lat="48.25379" lon="7.36223">
        <ele>418</ele>
        <time>2021-08-04T09:01:31Z</time>
      </trkpt>
      <trkpt lat="48.25379" lon="7.36221">
        <ele>418</ele>
        <time>2021-08-04T09:01:32Z</time>
      </trkpt>
      <trkpt lat="48.25379" lon="7.36219">
        <ele>418.1</ele>
        <time>2021-08-04T09:01:34Z</time>
      </trkpt>
      <trkpt lat="48.25379" lon="7.36217">
        <ele>418.1</ele>
        <time>2021-08-04T09:01:35Z</time>
      </trkpt>
      <trkpt lat="48.25378" lon="7.36214">
        <ele>418.1</ele>
        <time>2021-08-04T09:01:36Z</time>
      </trkpt>
      <trkpt lat="48.25377" lon="7.36208">
        <ele>418.2</ele>
        <time>2021-08-04T09:01:38Z</time>
      </trkpt>
      <trkpt lat="48.25377" lon="7.362">
        <ele>418.3</ele>
        <time>2021-08-04T09:01:39Z</time>
      </trkpt>
      <trkpt lat="48.25377" lon="7.36197">
        <ele>418.4</ele>
        <time>2021-08-04T09:01:40Z</time>
      </trkpt>
      <trkpt lat="48.25377" lon="7.36191">
        <ele>418.5</ele>
        <time>2021-08-04T09:01:42Z</time>
      </trkpt>
      <trkpt lat="48.25378" lon="7.36185">
        <ele>418.6</ele>
        <time>2021-08-04T09:01:44Z</time>
      </trkpt>
      <trkpt lat="48.25378" lon="7.36181">
        <ele>418.6</ele>
        <time>2021-08-04T09:01:45Z</time>
      </trkpt>
      <trkpt lat="48.25378" lon="7.3618">
        <ele>418.6</ele>
        <time>2021-08-04T09:01:46Z</time>
      </trkpt>
      <trkpt lat="48.25377" lon="7.36173">
        <ele>418.7</ele>
        <time>2021-08-04T09:01:48Z</time>
      </trkpt>
      <trkpt lat="48.25378" lon="7.36168">
        <ele>418.8</ele>
        <time>2021-08-04T09:01:49Z</time>
      </trkpt>
      <trkpt lat="48.25379" lon="7.36165">
        <ele>418.8</ele>
        <time>2021-08-04T09:01:50Z</time>
      </trkpt>
      <trkpt lat="48.25378" lon="7.36159">
        <ele>418.9</ele>
        <time>2021-08-04T09:01:51Z</time>
      </trkpt>
      <trkpt lat="48.25377" lon="7.36157">
        <ele>418.9</ele>
        <time>2021-08-04T09:01:52Z</time>
      </trkpt>
      <trkpt lat="48.25376" lon="7.36151">
        <ele>419</ele>
        <time>2021-08-04T09:01:54Z</time>
      </trkpt>
      <trkpt lat="48.25375" lon="7.36146">
        <ele>419</ele>
        <time>2021-08-04T09:01:55Z</time>
      </trkpt>
      <trkpt lat="48.25375" lon="7.36141">
        <ele>419.1</ele>
        <time>2021-08-04T09:01:56Z</time>
      </trkpt>
      <trkpt lat="48.25376" lon="7.36135">
        <ele>419.1</ele>
        <time>2021-08-04T09:01:58Z</time>
      </trkpt>
      <trkpt lat="48.25377" lon="7.3613">
        <ele>419.2</ele>
        <time>2021-08-04T09:01:59Z</time>
      </trkpt>
      <trkpt lat="48.25377" lon="7.36128">
        <ele>419.2</ele>
        <time>2021-08-04T09:02:00Z</time>
      </trkpt>
      <trkpt lat="48.25375" lon="7.36125">
        <ele>419.2</ele>
        <time>2021-08-04T09:02:02Z</time>
      </trkpt>
      <trkpt lat="48.25374" lon="7.36121">
        <ele>419.3</ele>
        <time>2021-08-04T09:02:03Z</time>
      </trkpt>
      <trkpt lat="48.25374" lon="7.36117">
        <ele>419.3</ele>
        <time>2021-08-04T09:02:04Z</time>
      </trkpt>
      <trkpt lat="48.25375" lon="7.36113">
        <ele>419.3</ele>
        <time>2021-08-04T09:02:06Z</time>
      </trkpt>
      <trkpt lat="48.25377" lon="7.36108">
        <ele>419.3</ele>
        <time>2021-08-04T09:02:08Z</time>
      </trkpt>
      <trkpt lat="48.25378" lon="7.36102">
        <ele>419.3</ele>
        <time>2021-08-04T09:02:10Z</time>
      </trkpt>
      <trkpt lat="48.25379" lon="7.36095">
        <ele>419.2</ele>
        <time>2021-08-04T09:02:11Z</time>
      </trkpt>
      <trkpt lat="48.2538" lon="7.3609">
        <ele>419.2</ele>
        <time>2021-08-04T09:02:12Z</time>
      </trkpt>
      <trkpt lat="48.2538" lon="7.36085">
        <ele>419.1</ele>
        <time>2021-08-04T09:02:14Z</time>
      </trkpt>
      <trkpt lat="48.25381" lon="7.3608">
        <ele>419</ele>
        <time>2021-08-04T09:02:15Z</time>
      </trkpt>
      <trkpt lat="48.25381" lon="7.3607">
        <ele>418.8</ele>
        <time>2021-08-04T09:02:17Z</time>
      </trkpt>
      <trkpt lat="48.25382" lon="7.36063">
        <ele>418.7</ele>
        <time>2021-08-04T09:02:18Z</time>
      </trkpt>
      <trkpt lat="48.25382" lon="7.36057">
        <ele>418.5</ele>
        <time>2021-08-04T09:02:19Z</time>
      </trkpt>
      <trkpt lat="48.25382" lon="7.36048">
        <ele>418.4</ele>
        <time>2021-08-04T09:02:21Z</time>
      </trkpt>
      <trkpt lat="48.2538" lon="7.36037">
        <ele>418.1</ele>
        <time>2021-08-04T09:02:22Z</time>
      </trkpt>
      <trkpt lat="48.25381" lon="7.3603">
        <ele>418</ele>
        <time>2021-08-04T09:02:23Z</time>
      </trkpt>
      <trkpt lat="48.25381" lon="7.36022">
        <ele>417.8</ele>
        <time>2021-08-04T09:02:25Z</time>
      </trkpt>
      <trkpt lat="48.25381" lon="7.36017">
        <ele>417.7</ele>
        <time>2021-08-04T09:02:26Z</time>
      </trkpt>
      <trkpt lat="48.25381" lon="7.36012">
        <ele>417.6</ele>
        <time>2021-08-04T09:02:27Z</time>
      </trkpt>
      <trkpt lat="48.25379" lon="7.36004">
        <ele>417.4</ele>
        <time>2021-08-04T09:02:28Z</time>
      </trkpt>
      <trkpt lat="48.25378" lon="7.35999">
        <ele>417.2</ele>
        <time>2021-08-04T09:02:30Z</time>
      </trkpt>
      <trkpt lat="48.25377" lon="7.35993">
        <ele>417</ele>
        <time>2021-08-04T09:02:31Z</time>
      </trkpt>
      <trkpt lat="48.25375" lon="7.35984">
        <ele>416.6</ele>
        <time>2021-08-04T09:02:32Z</time>
      </trkpt>
      <trkpt lat="48.25373" lon="7.35978">
        <ele>416.4</ele>
        <time>2021-08-04T09:02:34Z</time>
      </trkpt>
      <trkpt lat="48.25372" lon="7.3597">
        <ele>416.1</ele>
        <time>2021-08-04T09:02:35Z</time>
      </trkpt>
      <trkpt lat="48.25371" lon="7.3596">
        <ele>415.8</ele>
        <time>2021-08-04T09:02:37Z</time>
      </trkpt>
      <trkpt lat="48.25371" lon="7.35953">
        <ele>415.5</ele>
        <time>2021-08-04T09:02:38Z</time>
      </trkpt>
      <trkpt lat="48.25371" lon="7.35933">
        <ele>414.9</ele>
        <time>2021-08-04T09:02:40Z</time>
      </trkpt>
      <trkpt lat="48.25373" lon="7.35919">
        <ele>414.4</ele>
        <time>2021-08-04T09:02:42Z</time>
      </trkpt>
      <trkpt lat="48.25374" lon="7.3591">
        <ele>414.2</ele>
        <time>2021-08-04T09:02:43Z</time>
      </trkpt>
      <trkpt lat="48.25374" lon="7.35892">
        <ele>413.6</ele>
        <time>2021-08-04T09:02:45Z</time>
      </trkpt>
      <trkpt lat="48.25374" lon="7.35875">
        <ele>412.8</ele>
        <time>2021-08-04T09:02:47Z</time>
      </trkpt>
      <trkpt lat="48.25371" lon="7.35861">
        <ele>412</ele>
        <time>2021-08-04T09:02:49Z</time>
      </trkpt>
      <trkpt lat="48.25372" lon="7.35855">
        <ele>411.7</ele>
        <time>2021-08-04T09:02:50Z</time>
      </trkpt>
      <trkpt lat="48.25371" lon="7.35849">
        <ele>411.3</ele>
        <time>2021-08-04T09:02:51Z</time>
      </trkpt>
      <trkpt lat="48.25368" lon="7.35841">
        <ele>410.8</ele>
        <time>2021-08-04T09:02:52Z</time>
      </trkpt>
      <trkpt lat="48.25361" lon="7.35823">
        <ele>409.4</ele>
        <time>2021-08-04T09:02:54Z</time>
      </trkpt>
      <trkpt lat="48.25351" lon="7.358">
        <ele>407.9</ele>
        <time>2021-08-04T09:02:56Z</time>
      </trkpt>
      <trkpt lat="48.25342" lon="7.35778">
        <ele>406.7</ele>
        <time>2021-08-04T09:02:58Z</time>
      </trkpt>
      <trkpt lat="48.25335" lon="7.35768">
        <ele>406</ele>
        <time>2021-08-04T09:02:59Z</time>
      </trkpt>
      <trkpt lat="48.25328" lon="7.35757">
        <ele>405.3</ele>
        <time>2021-08-04T09:03:00Z</time>
      </trkpt>
      <trkpt lat="48.25314" lon="7.35742">
        <ele>404</ele>
        <time>2021-08-04T09:03:02Z</time>
      </trkpt>
      <trkpt lat="48.25308" lon="7.35735">
        <ele>403.4</ele>
        <time>2021-08-04T09:03:03Z</time>
      </trkpt>
      <trkpt lat="48.25294" lon="7.3572">
        <ele>402.3</ele>
        <time>2021-08-04T09:03:05Z</time>
      </trkpt>
      <trkpt lat="48.25286" lon="7.35712">
        <ele>401.7</ele>
        <time>2021-08-04T09:03:06Z</time>
      </trkpt>
      <trkpt lat="48.25271" lon="7.35695">
        <ele>400.4</ele>
        <time>2021-08-04T09:03:08Z</time>
      </trkpt>
      <trkpt lat="48.25264" lon="7.35687">
        <ele>399.8</ele>
        <time>2021-08-04T09:03:09Z</time>
      </trkpt>
      <trkpt lat="48.2525" lon="7.3567">
        <ele>398.6</ele>
        <time>2021-08-04T09:03:11Z</time>
      </trkpt>
      <trkpt lat="48.25243" lon="7.35662">
        <ele>398.1</ele>
        <time>2021-08-04T09:03:12Z</time>
      </trkpt>
      <trkpt lat="48.25231" lon="7.35645">
        <ele>397.4</ele>
        <time>2021-08-04T09:03:14Z</time>
      </trkpt>
      <trkpt lat="48.25225" lon="7.35636">
        <ele>397</ele>
        <time>2021-08-04T09:03:15Z</time>
      </trkpt>
      <trkpt lat="48.25213" lon="7.35618">
        <ele>396.6</ele>
        <time>2021-08-04T09:03:17Z</time>
      </trkpt>
      <trkpt lat="48.25208" lon="7.35612">
        <ele>396.6</ele>
        <time>2021-08-04T09:03:18Z</time>
      </trkpt>
      <trkpt lat="48.25198" lon="7.35601">
        <ele>396.8</ele>
        <time>2021-08-04T09:03:20Z</time>
      </trkpt>
      <trkpt lat="48.25195" lon="7.35596">
        <ele>397</ele>
        <time>2021-08-04T09:03:21Z</time>
      </trkpt>
      <trkpt lat="48.25191" lon="7.35592">
        <ele>397.2</ele>
        <time>2021-08-04T09:03:22Z</time>
      </trkpt>
      <trkpt lat="48.25189" lon="7.35584">
        <ele>397.5</ele>
        <time>2021-08-04T09:03:24Z</time>
      </trkpt>
      <trkpt lat="48.25192" lon="7.35579">
        <ele>397.8</ele>
        <time>2021-08-04T09:03:26Z</time>
      </trkpt>
      <trkpt lat="48.25196" lon="7.35577">
        <ele>398.1</ele>
        <time>2021-08-04T09:03:27Z</time>
      </trkpt>
      <trkpt lat="48.25198" lon="7.35576">
        <ele>398.4</ele>
        <time>2021-08-04T09:03:28Z</time>
      </trkpt>
      <trkpt lat="48.25201" lon="7.35575">
        <ele>398.6</ele>
        <time>2021-08-04T09:03:30Z</time>
      </trkpt>
      <trkpt lat="48.25201" lon="7.35576">
        <ele>398.6</ele>
        <time>2021-08-04T09:03:31Z</time>
      </trkpt>
      <trkpt lat="48.25206" lon="7.35577">
        <ele>399</ele>
        <time>2021-08-04T09:03:33Z</time>
      </trkpt>
      <trkpt lat="48.25208" lon="7.35579">
        <ele>399.3</ele>
        <time>2021-08-04T09:03:34Z</time>
      </trkpt>
      <trkpt lat="48.25213" lon="7.35578">
        <ele>399.6</ele>
        <time>2021-08-04T09:03:36Z</time>
      </trkpt>
      <trkpt lat="48.25216" lon="7.35578">
        <ele>399.9</ele>
        <time>2021-08-04T09:03:37Z</time>
      </trkpt>
      <trkpt lat="48.25219" lon="7.35581">
        <ele>400.2</ele>
        <time>2021-08-04T09:03:38Z</time>
      </trkpt>
      <trkpt lat="48.2522" lon="7.35581">
        <ele>400.3</ele>
        <time>2021-08-04T09:03:39Z</time>
      </trkpt>
      <trkpt lat="48.25223" lon="7.35586">
        <ele>400.6</ele>
        <time>2021-08-04T09:03:41Z</time>
      </trkpt>
      <trkpt lat="48.25225" lon="7.35588">
        <ele>400.8</ele>
        <time>2021-08-04T09:03:42Z</time>
      </trkpt>
      <trkpt lat="48.25226" lon="7.3559">
        <ele>400.9</ele>
        <time>2021-08-04T09:03:43Z</time>
      </trkpt>
      <trkpt lat="48.25227" lon="7.35591">
        <ele>401</ele>
        <time>2021-08-04T09:03:44Z</time>
      </trkpt>
      <trkpt lat="48.25229" lon="7.35591">
        <ele>401.2</ele>
        <time>2021-08-04T09:03:45Z</time>
      </trkpt>
      <trkpt lat="48.25231" lon="7.35592">
        <ele>401.3</ele>
        <time>2021-08-04T09:03:46Z</time>
      </trkpt>
      <trkpt lat="48.25232" lon="7.35592">
        <ele>401.4</ele>
        <time>2021-08-04T09:03:47Z</time>
      </trkpt>
      <trkpt lat="48.25235" lon="7.35592">
        <ele>401.6</ele>
        <time>2021-08-04T09:03:49Z</time>
      </trkpt>
      <trkpt lat="48.25265" lon="7.35549">
        <ele>404.1</ele>
        <time>2021-08-04T09:04:11Z</time>
      </trkpt>
      <trkpt lat="48.25269" lon="7.35544">
        <ele>404.4</ele>
        <time>2021-08-04T09:04:13Z</time>
      </trkpt>
      <trkpt lat="48.2527" lon="7.35542">
        <ele>404.5</ele>
        <time>2021-08-04T09:04:14Z</time>
      </trkpt>
      <trkpt lat="48.25273" lon="7.35537">
        <ele>404.7</ele>
        <time>2021-08-04T09:04:16Z</time>
      </trkpt>
      <trkpt lat="48.25275" lon="7.35532">
        <ele>404.9</ele>
        <time>2021-08-04T09:04:18Z</time>
      </trkpt>
      <trkpt lat="48.25277" lon="7.35531">
        <ele>405</ele>
        <time>2021-08-04T09:04:19Z</time>
      </trkpt>
      <trkpt lat="48.25278" lon="7.35529">
        <ele>405.1</ele>
        <time>2021-08-04T09:04:20Z</time>
      </trkpt>
      <trkpt lat="48.25279" lon="7.35525">
        <ele>405.2</ele>
        <time>2021-08-04T09:04:21Z</time>
      </trkpt>
      <trkpt lat="48.25279" lon="7.35522">
        <ele>405.3</ele>
        <time>2021-08-04T09:04:23Z</time>
      </trkpt>
      <trkpt lat="48.25281" lon="7.35519">
        <ele>405.5</ele>
        <time>2021-08-04T09:04:24Z</time>
      </trkpt>
      <trkpt lat="48.25283" lon="7.35515">
        <ele>405.6</ele>
        <time>2021-08-04T09:04:26Z</time>
      </trkpt>
      <trkpt lat="48.25286" lon="7.35511">
        <ele>405.8</ele>
        <time>2021-08-04T09:04:27Z</time>
      </trkpt>
      <trkpt lat="48.25286" lon="7.35509">
        <ele>405.9</ele>
        <time>2021-08-04T09:04:28Z</time>
      </trkpt>
      <trkpt lat="48.25287" lon="7.35505">
        <ele>406</ele>
        <time>2021-08-04T09:04:29Z</time>
      </trkpt>
      <trkpt lat="48.25289" lon="7.355">
        <ele>406.2</ele>
        <time>2021-08-04T09:04:30Z</time>
      </trkpt>
      <trkpt lat="48.2529" lon="7.35498">
        <ele>406.3</ele>
        <time>2021-08-04T09:04:31Z</time>
      </trkpt>
      <trkpt lat="48.2529" lon="7.35498">
        <ele>406.3</ele>
        <time>2021-08-04T09:04:32Z</time>
      </trkpt>
      <trkpt lat="48.25291" lon="7.35494">
        <ele>406.4</ele>
        <time>2021-08-04T09:04:35Z</time>
      </trkpt>
      <trkpt lat="48.25292" lon="7.3549">
        <ele>406.5</ele>
        <time>2021-08-04T09:04:36Z</time>
      </trkpt>
      <trkpt lat="48.25294" lon="7.35485">
        <ele>406.7</ele>
        <time>2021-08-04T09:04:38Z</time>
      </trkpt>
      <trkpt lat="48.25295" lon="7.35481">
        <ele>406.8</ele>
        <time>2021-08-04T09:04:39Z</time>
      </trkpt>
      <trkpt lat="48.25298" lon="7.35475">
        <ele>407.1</ele>
        <time>2021-08-04T09:04:41Z</time>
      </trkpt>
      <trkpt lat="48.25299" lon="7.35473">
        <ele>407.1</ele>
        <time>2021-08-04T09:04:42Z</time>
      </trkpt>
      <trkpt lat="48.253" lon="7.35471">
        <ele>407.2</ele>
        <time>2021-08-04T09:04:43Z</time>
      </trkpt>
      <trkpt lat="48.25302" lon="7.35466">
        <ele>407.4</ele>
        <time>2021-08-04T09:04:44Z</time>
      </trkpt>
      <trkpt lat="48.25302" lon="7.35464">
        <ele>407.4</ele>
        <time>2021-08-04T09:04:45Z</time>
      </trkpt>
      <trkpt lat="48.25302" lon="7.3546">
        <ele>407.6</ele>
        <time>2021-08-04T09:04:46Z</time>
      </trkpt>
      <trkpt lat="48.25301" lon="7.35458">
        <ele>407.6</ele>
        <time>2021-08-04T09:04:47Z</time>
      </trkpt>
      <trkpt lat="48.25302" lon="7.35452">
        <ele>407.8</ele>
        <time>2021-08-04T09:04:49Z</time>
      </trkpt>
      <trkpt lat="48.25302" lon="7.3545">
        <ele>407.9</ele>
        <time>2021-08-04T09:04:50Z</time>
      </trkpt>
      <trkpt lat="48.25303" lon="7.35448">
        <ele>407.9</ele>
        <time>2021-08-04T09:04:51Z</time>
      </trkpt>
      <trkpt lat="48.25304" lon="7.35444">
        <ele>408.1</ele>
        <time>2021-08-04T09:04:52Z</time>
      </trkpt>
      <trkpt lat="48.25305" lon="7.35442">
        <ele>408.2</ele>
        <time>2021-08-04T09:04:53Z</time>
      </trkpt>
      <trkpt lat="48.25306" lon="7.35438">
        <ele>408.3</ele>
        <time>2021-08-04T09:04:54Z</time>
      </trkpt>
      <trkpt lat="48.25307" lon="7.35436">
        <ele>408.4</ele>
        <time>2021-08-04T09:04:56Z</time>
      </trkpt>
      <trkpt lat="48.25308" lon="7.35434">
        <ele>408.4</ele>
        <time>2021-08-04T09:04:57Z</time>
      </trkpt>
      <trkpt lat="48.25308" lon="7.35433">
        <ele>408.5</ele>
        <time>2021-08-04T09:04:58Z</time>
      </trkpt>
      <trkpt lat="48.25309" lon="7.35431">
        <ele>408.5</ele>
        <time>2021-08-04T09:04:59Z</time>
      </trkpt>
      <trkpt lat="48.2531" lon="7.35428">
        <ele>408.6</ele>
        <time>2021-08-04T09:05:01Z</time>
      </trkpt>
      <trkpt lat="48.2531" lon="7.35427">
        <ele>408.7</ele>
        <time>2021-08-04T09:05:03Z</time>
      </trkpt>
      <trkpt lat="48.2531" lon="7.35426">
        <ele>408.7</ele>
        <time>2021-08-04T09:05:04Z</time>
      </trkpt>
      <trkpt lat="48.2531" lon="7.35424">
        <ele>408.8</ele>
        <time>2021-08-04T09:05:05Z</time>
      </trkpt>
      <trkpt lat="48.2531" lon="7.35422">
        <ele>408.8</ele>
        <time>2021-08-04T09:05:06Z</time>
      </trkpt>
      <trkpt lat="48.25311" lon="7.35417">
        <ele>409</ele>
        <time>2021-08-04T09:05:07Z</time>
      </trkpt>
      <trkpt lat="48.25311" lon="7.35409">
        <ele>409.2</ele>
        <time>2021-08-04T09:05:09Z</time>
      </trkpt>
      <trkpt lat="48.2531" lon="7.35406">
        <ele>409.3</ele>
        <time>2021-08-04T09:05:10Z</time>
      </trkpt>
      <trkpt lat="48.2531" lon="7.35403">
        <ele>409.4</ele>
        <time>2021-08-04T09:05:11Z</time>
      </trkpt>
      <trkpt lat="48.2531" lon="7.35399">
        <ele>409.5</ele>
        <time>2021-08-04T09:05:12Z</time>
      </trkpt>
      <trkpt lat="48.2531" lon="7.35395">
        <ele>409.6</ele>
        <time>2021-08-04T09:05:13Z</time>
      </trkpt>
      <trkpt lat="48.2531" lon="7.35395">
        <ele>409.7</ele>
        <time>2021-08-04T09:05:14Z</time>
      </trkpt>
      <trkpt lat="48.25311" lon="7.35392">
        <ele>409.8</ele>
        <time>2021-08-04T09:05:16Z</time>
      </trkpt>
      <trkpt lat="48.25311" lon="7.35391">
        <ele>409.8</ele>
        <time>2021-08-04T09:05:17Z</time>
      </trkpt>
      <trkpt lat="48.25311" lon="7.3539">
        <ele>409.8</ele>
        <time>2021-08-04T09:05:18Z</time>
      </trkpt>
      <trkpt lat="48.25312" lon="7.35389">
        <ele>409.9</ele>
        <time>2021-08-04T09:05:19Z</time>
      </trkpt>
      <trkpt lat="48.25312" lon="7.35388">
        <ele>409.9</ele>
        <time>2021-08-04T09:05:21Z</time>
      </trkpt>
      <trkpt lat="48.25312" lon="7.35386">
        <ele>410</ele>
        <time>2021-08-04T09:05:22Z</time>
      </trkpt>
      <trkpt lat="48.25287" lon="7.35284">
        <ele>414.5</ele>
        <time>2021-08-04T09:06:06Z</time>
      </trkpt>
      <trkpt lat="48.25287" lon="7.3528">
        <ele>414.8</ele>
        <time>2021-08-04T09:06:07Z</time>
      </trkpt>
      <trkpt lat="48.25287" lon="7.35277">
        <ele>414.9</ele>
        <time>2021-08-04T09:06:09Z</time>
      </trkpt>
      <trkpt lat="48.25287" lon="7.35275">
        <ele>415</ele>
        <time>2021-08-04T09:06:10Z</time>
      </trkpt>
      <trkpt lat="48.25287" lon="7.35272">
        <ele>415.1</ele>
        <time>2021-08-04T09:06:12Z</time>
      </trkpt>
      <trkpt lat="48.25287" lon="7.3527">
        <ele>415.3</ele>
        <time>2021-08-04T09:06:13Z</time>
      </trkpt>
      <trkpt lat="48.25288" lon="7.35268">
        <ele>415.4</ele>
        <time>2021-08-04T09:06:14Z</time>
      </trkpt>
      <trkpt lat="48.25288" lon="7.35264">
        <ele>415.5</ele>
        <time>2021-08-04T09:06:15Z</time>
      </trkpt>
      <trkpt lat="48.25287" lon="7.35263">
        <ele>415.6</ele>
        <time>2021-08-04T09:06:16Z</time>
      </trkpt>
      <trkpt lat="48.25285" lon="7.35256">
        <ele>416</ele>
        <time>2021-08-04T09:06:18Z</time>
      </trkpt>
      <trkpt lat="48.25283" lon="7.35253">
        <ele>416.1</ele>
        <time>2021-08-04T09:06:19Z</time>
      </trkpt>
      <trkpt lat="48.25283" lon="7.35252">
        <ele>416.2</ele>
        <time>2021-08-04T09:06:21Z</time>
      </trkpt>
      <trkpt lat="48.25283" lon="7.3525">
        <ele>416.3</ele>
        <time>2021-08-04T09:06:22Z</time>
      </trkpt>
      <trkpt lat="48.25281" lon="7.35247">
        <ele>416.5</ele>
        <time>2021-08-04T09:06:24Z</time>
      </trkpt>
      <trkpt lat="48.25276" lon="7.35246">
        <ele>416.8</ele>
        <time>2021-08-04T09:06:26Z</time>
      </trkpt>
      <trkpt lat="48.25276" lon="7.35237">
        <ele>417.4</ele>
        <time>2021-08-04T09:06:27Z</time>
      </trkpt>
      <trkpt lat="48.25277" lon="7.35228">
        <ele>418.2</ele>
        <time>2021-08-04T09:06:28Z</time>
      </trkpt>
      <trkpt lat="48.25277" lon="7.3522">
        <ele>418.7</ele>
        <time>2021-08-04T09:06:29Z</time>
      </trkpt>
      <trkpt lat="48.25278" lon="7.35212">
        <ele>419.5</ele>
        <time>2021-08-04T09:06:30Z</time>
      </trkpt>
      <trkpt lat="48.25278" lon="7.35203">
        <ele>420.3</ele>
        <time>2021-08-04T09:06:32Z</time>
      </trkpt>
      <trkpt lat="48.25279" lon="7.35195">
        <ele>421</ele>
        <time>2021-08-04T09:06:33Z</time>
      </trkpt>
      <trkpt lat="48.25279" lon="7.35186">
        <ele>421.9</ele>
        <time>2021-08-04T09:06:34Z</time>
      </trkpt>
      <trkpt lat="48.25279" lon="7.35178">
        <ele>422.8</ele>
        <time>2021-08-04T09:07:44Z</time>
      </trkpt>
      <trkpt lat="48.2528" lon="7.3517">
        <ele>423.1</ele>
        <time>2021-08-04T09:07:45Z</time>
      </trkpt>
      <trkpt lat="48.2528" lon="7.35161">
        <ele>423.5</ele>
        <time>2021-08-04T09:07:46Z</time>
      </trkpt>
      <trkpt lat="48.25281" lon="7.3516">
        <ele>423.5</ele>
        <time>2021-08-04T09:07:47Z</time>
      </trkpt>
      <trkpt lat="48.25281" lon="7.35159">
        <ele>423.6</ele>
        <time>2021-08-04T09:07:49Z</time>
      </trkpt>
      <trkpt lat="48.25282" lon="7.35158">
        <ele>423.6</ele>
        <time>2021-08-04T09:07:51Z</time>
      </trkpt>
      <trkpt lat="48.25282" lon="7.35157">
        <ele>423.6</ele>
        <time>2021-08-04T09:07:53Z</time>
      </trkpt>
      <trkpt lat="48.25282" lon="7.35156">
        <ele>423.7</ele>
        <time>2021-08-04T09:07:55Z</time>
      </trkpt>
      <trkpt lat="48.25283" lon="7.35156">
        <ele>423.7</ele>
        <time>2021-08-04T09:07:57Z</time>
      </trkpt>
      <trkpt lat="48.25294" lon="7.35138">
        <ele>424.6</ele>
        <time>2021-08-04T09:08:12Z</time>
      </trkpt>
      <trkpt lat="48.25296" lon="7.35136">
        <ele>424.8</ele>
        <time>2021-08-04T09:08:13Z</time>
      </trkpt>
      <trkpt lat="48.25301" lon="7.35134">
        <ele>425.1</ele>
        <time>2021-08-04T09:08:15Z</time>
      </trkpt>
      <trkpt lat="48.25302" lon="7.35131">
        <ele>425.3</ele>
        <time>2021-08-04T09:08:17Z</time>
      </trkpt>
      <trkpt lat="48.25304" lon="7.35129">
        <ele>425.4</ele>
        <time>2021-08-04T09:08:19Z</time>
      </trkpt>
      <trkpt lat="48.25306" lon="7.35128">
        <ele>425.5</ele>
        <time>2021-08-04T09:08:21Z</time>
      </trkpt>
      <trkpt lat="48.25307" lon="7.35128">
        <ele>425.6</ele>
        <time>2021-08-04T09:08:22Z</time>
      </trkpt>
      <trkpt lat="48.25308" lon="7.35128">
        <ele>425.7</ele>
        <time>2021-08-04T09:08:23Z</time>
      </trkpt>
      <trkpt lat="48.25309" lon="7.35127">
        <ele>425.7</ele>
        <time>2021-08-04T09:08:25Z</time>
      </trkpt>
      <trkpt lat="48.25402" lon="7.35155">
        <ele>430.8</ele>
        <time>2021-08-04T09:10:35Z</time>
      </trkpt>
      <trkpt lat="48.25404" lon="7.35158">
        <ele>431</ele>
        <time>2021-08-04T09:10:36Z</time>
      </trkpt>
      <trkpt lat="48.25405" lon="7.35158">
        <ele>431</ele>
        <time>2021-08-04T09:10:38Z</time>
      </trkpt>
      <trkpt lat="48.25405" lon="7.35158">
        <ele>431</ele>
        <time>2021-08-04T09:10:39Z</time>
      </trkpt>
      <trkpt lat="48.25406" lon="7.35159">
        <ele>431.1</ele>
        <time>2021-08-04T09:10:40Z</time>
      </trkpt>
      <trkpt lat="48.25407" lon="7.35159">
        <ele>431.1</ele>
        <time>2021-08-04T09:10:41Z</time>
      </trkpt>
      <trkpt lat="48.25407" lon="7.3516">
        <ele>431.1</ele>
        <time>2021-08-04T09:10:43Z</time>
      </trkpt>
      <trkpt lat="48.25408" lon="7.3516">
        <ele>431.1</ele>
        <time>2021-08-04T09:10:44Z</time>
      </trkpt>
      <trkpt lat="48.25408" lon="7.35161">
        <ele>431.2</ele>
        <time>2021-08-04T09:10:45Z</time>
      </trkpt>
      <trkpt lat="48.2541" lon="7.35162">
        <ele>431.2</ele>
        <time>2021-08-04T09:10:46Z</time>
      </trkpt>
      <trkpt lat="48.25426" lon="7.35171">
        <ele>431.4</ele>
        <time>2021-08-04T09:10:53Z</time>
      </trkpt>
      <trkpt lat="48.2543" lon="7.35172">
        <ele>431.4</ele>
        <time>2021-08-04T09:10:54Z</time>
      </trkpt>
      <trkpt lat="48.25437" lon="7.35172">
        <ele>431.1</ele>
        <time>2021-08-04T09:10:56Z</time>
      </trkpt>
      <trkpt lat="48.25444" lon="7.35173">
        <ele>430.2</ele>
        <time>2021-08-04T09:10:57Z</time>
      </trkpt>
      <trkpt lat="48.2545" lon="7.35174">
        <ele>429.4</ele>
        <time>2021-08-04T09:10:59Z</time>
      </trkpt>
      <trkpt lat="48.25457" lon="7.35177">
        <ele>428.4</ele>
        <time>2021-08-04T09:11:00Z</time>
      </trkpt>
      <trkpt lat="48.25468" lon="7.35181">
        <ele>426.8</ele>
        <time>2021-08-04T09:11:02Z</time>
      </trkpt>
      <trkpt lat="48.25472" lon="7.35182">
        <ele>426.3</ele>
        <time>2021-08-04T09:11:03Z</time>
      </trkpt>
      <trkpt lat="48.25481" lon="7.35182">
        <ele>425.1</ele>
        <time>2021-08-04T09:11:05Z</time>
      </trkpt>
      <trkpt lat="48.25486" lon="7.35181">
        <ele>424.4</ele>
        <time>2021-08-04T09:11:06Z</time>
      </trkpt>
      <trkpt lat="48.25493" lon="7.35179">
        <ele>423.5</ele>
        <time>2021-08-04T09:11:08Z</time>
      </trkpt>
      <trkpt lat="48.25497" lon="7.35176">
        <ele>422.9</ele>
        <time>2021-08-04T09:11:09Z</time>
      </trkpt>
      <trkpt lat="48.25502" lon="7.35169">
        <ele>421.9</ele>
        <time>2021-08-04T09:11:10Z</time>
      </trkpt>
      <trkpt lat="48.25511" lon="7.35154">
        <ele>420</ele>
        <time>2021-08-04T09:11:12Z</time>
      </trkpt>
      <trkpt lat="48.25518" lon="7.35138">
        <ele>418.1</ele>
        <time>2021-08-04T09:11:14Z</time>
      </trkpt>
      <trkpt lat="48.25525" lon="7.35123">
        <ele>416.4</ele>
        <time>2021-08-04T09:11:16Z</time>
      </trkpt>
      <trkpt lat="48.25531" lon="7.35107">
        <ele>414.9</ele>
        <time>2021-08-04T09:11:18Z</time>
      </trkpt>
      <trkpt lat="48.25537" lon="7.3509">
        <ele>413.7</ele>
        <time>2021-08-04T09:11:20Z</time>
      </trkpt>
      <trkpt lat="48.25542" lon="7.35074">
        <ele>412.6</ele>
        <time>2021-08-04T09:11:22Z</time>
      </trkpt>
      <trkpt lat="48.25545" lon="7.35067">
        <ele>412.1</ele>
        <time>2021-08-04T09:11:23Z</time>
      </trkpt>
      <trkpt lat="48.2555" lon="7.35052">
        <ele>411</ele>
        <time>2021-08-04T09:11:25Z</time>
      </trkpt>
      <trkpt lat="48.25552" lon="7.35046">
        <ele>410.5</ele>
        <time>2021-08-04T09:11:26Z</time>
      </trkpt>
      <trkpt lat="48.25555" lon="7.35037">
        <ele>409.9</ele>
        <time>2021-08-04T09:11:28Z</time>
      </trkpt>
      <trkpt lat="48.25558" lon="7.35032">
        <ele>409.5</ele>
        <time>2021-08-04T09:11:29Z</time>
      </trkpt>
      <trkpt lat="48.25563" lon="7.35025">
        <ele>408.7</ele>
        <time>2021-08-04T09:11:31Z</time>
      </trkpt>
      <trkpt lat="48.25568" lon="7.35021">
        <ele>408.2</ele>
        <time>2021-08-04T09:11:32Z</time>
      </trkpt>
      <trkpt lat="48.25572" lon="7.35018">
        <ele>407.7</ele>
        <time>2021-08-04T09:11:33Z</time>
      </trkpt>
      <trkpt lat="48.25579" lon="7.35007">
        <ele>406.7</ele>
        <time>2021-08-04T09:11:35Z</time>
      </trkpt>
      <trkpt lat="48.25582" lon="7.35008">
        <ele>406.4</ele>
        <time>2021-08-04T09:11:36Z</time>
      </trkpt>
      <trkpt lat="48.25584" lon="7.35009">
        <ele>406.1</ele>
        <time>2021-08-04T09:11:37Z</time>
      </trkpt>
      <trkpt lat="48.25589" lon="7.35008">
        <ele>405.5</ele>
        <time>2021-08-04T09:11:39Z</time>
      </trkpt>
      <trkpt lat="48.25592" lon="7.35007">
        <ele>404.9</ele>
        <time>2021-08-04T09:11:40Z</time>
      </trkpt>
      <trkpt lat="48.25596" lon="7.35005">
        <ele>404.2</ele>
        <time>2021-08-04T09:11:41Z</time>
      </trkpt>
      <trkpt lat="48.25596" lon="7.35004">
        <ele>404.3</ele>
        <time>2021-08-04T09:11:42Z</time>
      </trkpt>
      <trkpt lat="48.25597" lon="7.35003">
        <ele>403.7</ele>
        <time>2021-08-04T09:11:43Z</time>
      </trkpt>
      <trkpt lat="48.25599" lon="7.35002">
        <ele>403.7</ele>
        <time>2021-08-04T09:11:45Z</time>
      </trkpt>
      <trkpt lat="48.256" lon="7.35001">
        <ele>403.1</ele>
        <time>2021-08-04T09:11:46Z</time>
      </trkpt>
      <trkpt lat="48.25601" lon="7.34999">
        <ele>403.2</ele>
        <time>2021-08-04T09:11:47Z</time>
      </trkpt>
      <trkpt lat="48.25601" lon="7.34998">
        <ele>403.2</ele>
        <time>2021-08-04T09:11:48Z</time>
      </trkpt>
      <trkpt lat="48.256" lon="7.34998">
        <ele>403.3</ele>
        <time>2021-08-04T09:11:50Z</time>
      </trkpt>
      <trkpt lat="48.25598" lon="7.34998">
        <ele>404.1</ele>
        <time>2021-08-04T09:11:51Z</time>
      </trkpt>
      <trkpt lat="48.25598" lon="7.34997">
        <ele>404.2</ele>
        <time>2021-08-04T09:11:52Z</time>
      </trkpt>
      <trkpt lat="48.256" lon="7.34994">
        <ele>404.3</ele>
        <time>2021-08-04T09:11:54Z</time>
      </trkpt>
      <trkpt lat="48.25601" lon="7.34993">
        <ele>403.6</ele>
        <time>2021-08-04T09:11:55Z</time>
      </trkpt>
      <trkpt lat="48.25601" lon="7.34994">
        <ele>403.7</ele>
        <time>2021-08-04T09:11:56Z</time>
      </trkpt>
      <trkpt lat="48.25602" lon="7.34994">
        <ele>403.8</ele>
        <time>2021-08-04T09:11:58Z</time>
      </trkpt>
      <trkpt lat="48.25603" lon="7.34992">
        <ele>403.1</ele>
        <time>2021-08-04T09:11:59Z</time>
      </trkpt>
      <trkpt lat="48.25604" lon="7.3499">
        <ele>403.2</ele>
        <time>2021-08-04T09:12:00Z</time>
      </trkpt>
      <trkpt lat="48.25605" lon="7.34985">
        <ele>403.2</ele>
        <time>2021-08-04T09:12:02Z</time>
      </trkpt>
      <trkpt lat="48.25607" lon="7.34979">
        <ele>402.4</ele>
        <time>2021-08-04T09:12:03Z</time>
      </trkpt>
      <trkpt lat="48.25611" lon="7.34972">
        <ele>401.6</ele>
        <time>2021-08-04T09:12:04Z</time>
      </trkpt>
      <trkpt lat="48.25614" lon="7.34967">
        <ele>400.7</ele>
        <time>2021-08-04T09:12:05Z</time>
      </trkpt>
      <trkpt lat="48.25624" lon="7.34953">
        <ele>397.5</ele>
        <time>2021-08-04T09:12:07Z</time>
      </trkpt>
      <trkpt lat="48.25626" lon="7.34946">
        <ele>396.9</ele>
        <time>2021-08-04T09:12:08Z</time>
      </trkpt>
      <trkpt lat="48.25623" lon="7.3494">
        <ele>397.6</ele>
        <time>2021-08-04T09:12:10Z</time>
      </trkpt>
      <trkpt lat="48.25628" lon="7.34933">
        <ele>396.9</ele>
        <time>2021-08-04T09:12:11Z</time>
      </trkpt>
      <trkpt lat="48.25641" lon="7.34916">
        <ele>392.7</ele>
        <time>2021-08-04T09:12:13Z</time>
      </trkpt>
      <trkpt lat="48.25645" lon="7.34908">
        <ele>391.6</ele>
        <time>2021-08-04T09:12:14Z</time>
      </trkpt>
      <trkpt lat="48.25653" lon="7.34891">
        <ele>388.9</ele>
        <time>2021-08-04T09:12:16Z</time>
      </trkpt>
      <trkpt lat="48.2566" lon="7.34877">
        <ele>387.2</ele>
        <time>2021-08-04T09:12:18Z</time>
      </trkpt>
      <trkpt lat="48.25661" lon="7.34869">
        <ele>386.1</ele>
        <time>2021-08-04T09:12:20Z</time>
      </trkpt>
      <trkpt lat="48.25664" lon="7.34864">
        <ele>385.3</ele>
        <time>2021-08-04T09:12:21Z</time>
      </trkpt>
      <trkpt lat="48.25667" lon="7.34861">
        <ele>384.5</ele>
        <time>2021-08-04T09:12:22Z</time>
      </trkpt>
      <trkpt lat="48.2567" lon="7.34858">
        <ele>384</ele>
        <time>2021-08-04T09:12:23Z</time>
      </trkpt>
      <trkpt lat="48.25675" lon="7.34857">
        <ele>383.2</ele>
        <time>2021-08-04T09:12:25Z</time>
      </trkpt>
      <trkpt lat="48.25678" lon="7.34857">
        <ele>382.5</ele>
        <time>2021-08-04T09:12:26Z</time>
      </trkpt>
      <trkpt lat="48.25682" lon="7.34858">
        <ele>382.5</ele>
        <time>2021-08-04T09:12:27Z</time>
      </trkpt>
      <trkpt lat="48.25685" lon="7.3486">
        <ele>382.1</ele>
        <time>2021-08-04T09:12:28Z</time>
      </trkpt>
      <trkpt lat="48.25689" lon="7.34862">
        <ele>381.2</ele>
        <time>2021-08-04T09:12:30Z</time>
      </trkpt>
      <trkpt lat="48.25691" lon="7.34863">
        <ele>380.7</ele>
        <time>2021-08-04T09:12:31Z</time>
      </trkpt>
      <trkpt lat="48.25694" lon="7.34864">
        <ele>380.8</ele>
        <time>2021-08-04T09:12:32Z</time>
      </trkpt>
      <trkpt lat="48.25695" lon="7.34865">
        <ele>380.2</ele>
        <time>2021-08-04T09:12:33Z</time>
      </trkpt>
      <trkpt lat="48.25699" lon="7.34866">
        <ele>379.7</ele>
        <time>2021-08-04T09:12:35Z</time>
      </trkpt>
      <trkpt lat="48.25702" lon="7.34867">
        <ele>379.1</ele>
        <time>2021-08-04T09:12:36Z</time>
      </trkpt>
      <trkpt lat="48.25703" lon="7.34867">
        <ele>378.6</ele>
        <time>2021-08-04T09:12:37Z</time>
      </trkpt>
      <trkpt lat="48.25705" lon="7.34867">
        <ele>378.7</ele>
        <time>2021-08-04T09:12:39Z</time>
      </trkpt>
      <trkpt lat="48.25707" lon="7.34868">
        <ele>378.2</ele>
        <time>2021-08-04T09:12:40Z</time>
      </trkpt>
      <trkpt lat="48.2571" lon="7.34868">
        <ele>377.8</ele>
        <time>2021-08-04T09:12:42Z</time>
      </trkpt>
      <trkpt lat="48.25713" lon="7.34868">
        <ele>377.3</ele>
        <time>2021-08-04T09:12:43Z</time>
      </trkpt>
      <trkpt lat="48.25724" lon="7.34834">
        <ele>374.9</ele>
        <time>2021-08-04T09:14:18Z</time>
      </trkpt>
      <trkpt lat="48.25724" lon="7.34829">
        <ele>375</ele>
        <time>2021-08-04T09:14:20Z</time>
      </trkpt>
      <trkpt lat="48.25725" lon="7.34825">
        <ele>375</ele>
        <time>2021-08-04T09:14:21Z</time>
      </trkpt>
      <trkpt lat="48.25726" lon="7.3482">
        <ele>374.4</ele>
        <time>2021-08-04T09:14:22Z</time>
      </trkpt>
      <trkpt lat="48.25727" lon="7.34818">
        <ele>374.5</ele>
        <time>2021-08-04T09:14:23Z</time>
      </trkpt>
      <trkpt lat="48.25728" lon="7.34814">
        <ele>374.5</ele>
        <time>2021-08-04T09:14:24Z</time>
      </trkpt>
      <trkpt lat="48.25732" lon="7.34807">
        <ele>373.2</ele>
        <time>2021-08-04T09:14:26Z</time>
      </trkpt>
      <trkpt lat="48.25734" lon="7.34801">
        <ele>373.1</ele>
        <time>2021-08-04T09:14:27Z</time>
      </trkpt>
      <trkpt lat="48.25735" lon="7.34797">
        <ele>372.5</ele>
        <time>2021-08-04T09:14:28Z</time>
      </trkpt>
      <trkpt lat="48.25737" lon="7.34786">
        <ele>372.1</ele>
        <time>2021-08-04T09:14:30Z</time>
      </trkpt>
      <trkpt lat="48.25735" lon="7.34777">
        <ele>372.3</ele>
        <time>2021-08-04T09:14:32Z</time>
      </trkpt>
      <trkpt lat="48.25733" lon="7.3477">
        <ele>372.4</ele>
        <time>2021-08-04T09:14:33Z</time>
      </trkpt>
      <trkpt lat="48.25731" lon="7.34764">
        <ele>372.6</ele>
        <time>2021-08-04T09:14:34Z</time>
      </trkpt>
      <trkpt lat="48.25729" lon="7.34759">
        <ele>372.7</ele>
        <time>2021-08-04T09:14:36Z</time>
      </trkpt>
      <trkpt lat="48.25727" lon="7.34754">
        <ele>372.8</ele>
        <time>2021-08-04T09:14:37Z</time>
      </trkpt>
      <trkpt lat="48.25725" lon="7.34749">
        <ele>372.9</ele>
        <time>2021-08-04T09:14:38Z</time>
      </trkpt>
      <trkpt lat="48.25723" lon="7.34745">
        <ele>373</ele>
        <time>2021-08-04T09:14:39Z</time>
      </trkpt>
      <trkpt lat="48.25722" lon="7.34743">
        <ele>373.1</ele>
        <time>2021-08-04T09:14:41Z</time>
      </trkpt>
      <trkpt lat="48.25721" lon="7.34742">
        <ele>373.1</ele>
        <time>2021-08-04T09:14:42Z</time>
      </trkpt>
      <trkpt lat="48.2572" lon="7.34739">
        <ele>373.2</ele>
        <time>2021-08-04T09:14:44Z</time>
      </trkpt>
      <trkpt lat="48.2572" lon="7.34738">
        <ele>373.2</ele>
        <time>2021-08-04T09:14:45Z</time>
      </trkpt>
      <trkpt lat="48.25719" lon="7.34737">
        <ele>373.2</ele>
        <time>2021-08-04T09:14:46Z</time>
      </trkpt>
      <trkpt lat="48.25718" lon="7.34736">
        <ele>373.3</ele>
        <time>2021-08-04T09:14:47Z</time>
      </trkpt>
      <trkpt lat="48.25717" lon="7.34737">
        <ele>373.3</ele>
        <time>2021-08-04T09:14:49Z</time>
      </trkpt>
      <trkpt lat="48.25716" lon="7.34737">
        <ele>373.3</ele>
        <time>2021-08-04T09:14:50Z</time>
      </trkpt>
      <trkpt lat="48.25716" lon="7.34739">
        <ele>373.4</ele>
        <time>2021-08-04T09:14:51Z</time>
      </trkpt>
      <trkpt lat="48.25716" lon="7.34741">
        <ele>373.4</ele>
        <time>2021-08-04T09:14:53Z</time>
      </trkpt>
      <trkpt lat="48.25716" lon="7.34742">
        <ele>373.4</ele>
        <time>2021-08-04T09:14:54Z</time>
      </trkpt>
      <trkpt lat="48.25716" lon="7.34742">
        <ele>373.4</ele>
        <time>2021-08-04T09:14:55Z</time>
      </trkpt>
      <trkpt lat="48.25715" lon="7.34741">
        <ele>373.5</ele>
        <time>2021-08-04T09:14:57Z</time>
      </trkpt>
      <trkpt lat="48.25716" lon="7.34741">
        <ele>373.5</ele>
        <time>2021-08-04T09:14:58Z</time>
      </trkpt>
      <trkpt lat="48.25716" lon="7.3474">
        <ele>373.5</ele>
        <time>2021-08-04T09:14:59Z</time>
      </trkpt>
      <trkpt lat="48.25716" lon="7.34739">
        <ele>373.5</ele>
        <time>2021-08-04T09:15:00Z</time>
      </trkpt>
      <trkpt lat="48.25697" lon="7.3469">
        <ele>374.7</ele>
        <time>2021-08-04T09:15:12Z</time>
      </trkpt>
      <trkpt lat="48.25697" lon="7.34686">
        <ele>374.9</ele>
        <time>2021-08-04T09:15:13Z</time>
      </trkpt>
      <trkpt lat="48.25698" lon="7.34679">
        <ele>375</ele>
        <time>2021-08-04T09:15:15Z</time>
      </trkpt>
      <trkpt lat="48.25698" lon="7.34672">
        <ele>375.2</ele>
        <time>2021-08-04T09:15:17Z</time>
      </trkpt>
      <trkpt lat="48.25697" lon="7.34665">
        <ele>375.4</ele>
        <time>2021-08-04T09:15:18Z</time>
      </trkpt>
      <trkpt lat="48.25696" lon="7.34662">
        <ele>375.5</ele>
        <time>2021-08-04T09:15:19Z</time>
      </trkpt>
      <trkpt lat="48.25695" lon="7.34658">
        <ele>375.6</ele>
        <time>2021-08-04T09:15:20Z</time>
      </trkpt>
      <trkpt lat="48.25695" lon="7.34654">
        <ele>375.7</ele>
        <time>2021-08-04T09:15:22Z</time>
      </trkpt>
      <trkpt lat="48.25694" lon="7.34647">
        <ele>375.9</ele>
        <time>2021-08-04T09:15:23Z</time>
      </trkpt>
      <trkpt lat="48.25693" lon="7.34641">
        <ele>376.1</ele>
        <time>2021-08-04T09:15:24Z</time>
      </trkpt>
      <trkpt lat="48.25693" lon="7.34636">
        <ele>376.3</ele>
        <time>2021-08-04T09:15:26Z</time>
      </trkpt>
      <trkpt lat="48.25693" lon="7.34631">
        <ele>376.4</ele>
        <time>2021-08-04T09:15:27Z</time>
      </trkpt>
      <trkpt lat="48.25694" lon="7.34624">
        <ele>376.6</ele>
        <time>2021-08-04T09:15:28Z</time>
      </trkpt>
      <trkpt lat="48.25696" lon="7.34617">
        <ele>376.8</ele>
        <time>2021-08-04T09:15:30Z</time>
      </trkpt>
      <trkpt lat="48.25696" lon="7.34609">
        <ele>377</ele>
        <time>2021-08-04T09:15:32Z</time>
      </trkpt>
      <trkpt lat="48.25696" lon="7.34604">
        <ele>377.2</ele>
        <time>2021-08-04T09:15:33Z</time>
      </trkpt>
      <trkpt lat="48.25696" lon="7.346">
        <ele>377.3</ele>
        <time>2021-08-04T09:15:34Z</time>
      </trkpt>
      <trkpt lat="48.25697" lon="7.34596">
        <ele>377.4</ele>
        <time>2021-08-04T09:15:35Z</time>
      </trkpt>
      <trkpt lat="48.25697" lon="7.34591">
        <ele>377.6</ele>
        <time>2021-08-04T09:15:37Z</time>
      </trkpt>
      <trkpt lat="48.25696" lon="7.34586">
        <ele>377.7</ele>
        <time>2021-08-04T09:15:38Z</time>
      </trkpt>
      <trkpt lat="48.25695" lon="7.34582">
        <ele>377.9</ele>
        <time>2021-08-04T09:15:40Z</time>
      </trkpt>
      <trkpt lat="48.25693" lon="7.34579">
        <ele>378</ele>
        <time>2021-08-04T09:15:41Z</time>
      </trkpt>
      <trkpt lat="48.25688" lon="7.34575">
        <ele>378.3</ele>
        <time>2021-08-04T09:15:43Z</time>
      </trkpt>
      <trkpt lat="48.25686" lon="7.34572">
        <ele>378.4</ele>
        <time>2021-08-04T09:15:44Z</time>
      </trkpt>
      <trkpt lat="48.25684" lon="7.34569">
        <ele>378.5</ele>
        <time>2021-08-04T09:15:45Z</time>
      </trkpt>
      <trkpt lat="48.25682" lon="7.34567">
        <ele>378.6</ele>
        <time>2021-08-04T09:15:46Z</time>
      </trkpt>
      <trkpt lat="48.25678" lon="7.34564">
        <ele>378.8</ele>
        <time>2021-08-04T09:15:48Z</time>
      </trkpt>
      <trkpt lat="48.25675" lon="7.34561">
        <ele>378.9</ele>
        <time>2021-08-04T09:15:49Z</time>
      </trkpt>
      <trkpt lat="48.25674" lon="7.3456">
        <ele>378.9</ele>
        <time>2021-08-04T09:15:50Z</time>
      </trkpt>
      <trkpt lat="48.25672" lon="7.34558">
        <ele>379.1</ele>
        <time>2021-08-04T09:15:51Z</time>
      </trkpt>
      <trkpt lat="48.2567" lon="7.34557">
        <ele>379.1</ele>
        <time>2021-08-04T09:15:52Z</time>
      </trkpt>
      <trkpt lat="48.25669" lon="7.34555">
        <ele>379.2</ele>
        <time>2021-08-04T09:15:53Z</time>
      </trkpt>
      <trkpt lat="48.25667" lon="7.34553">
        <ele>379.3</ele>
        <time>2021-08-04T09:15:54Z</time>
      </trkpt>
      <trkpt lat="48.25666" lon="7.34551">
        <ele>379.3</ele>
        <time>2021-08-04T09:15:55Z</time>
      </trkpt>
      <trkpt lat="48.25664" lon="7.34549">
        <ele>379.4</ele>
        <time>2021-08-04T09:15:57Z</time>
      </trkpt>
      <trkpt lat="48.25662" lon="7.34545">
        <ele>379.5</ele>
        <time>2021-08-04T09:15:58Z</time>
      </trkpt>
      <trkpt lat="48.2566" lon="7.34542">
        <ele>379.6</ele>
        <time>2021-08-04T09:15:59Z</time>
      </trkpt>
      <trkpt lat="48.25657" lon="7.34537">
        <ele>379.8</ele>
        <time>2021-08-04T09:16:01Z</time>
      </trkpt>
      <trkpt lat="48.25657" lon="7.34535">
        <ele>379.8</ele>
        <time>2021-08-04T09:16:02Z</time>
      </trkpt>
      <trkpt lat="48.25656" lon="7.34534">
        <ele>379.9</ele>
        <time>2021-08-04T09:16:04Z</time>
      </trkpt>
      <trkpt lat="48.25656" lon="7.34532">
        <ele>379.9</ele>
        <time>2021-08-04T09:16:05Z</time>
      </trkpt>
      <trkpt lat="48.25655" lon="7.34531">
        <ele>380</ele>
        <time>2021-08-04T09:16:06Z</time>
      </trkpt>
      <trkpt lat="48.25655" lon="7.34529">
        <ele>380</ele>
        <time>2021-08-04T09:16:07Z</time>
      </trkpt>
      <trkpt lat="48.25654" lon="7.34527">
        <ele>380.1</ele>
        <time>2021-08-04T09:16:08Z</time>
      </trkpt>
      <trkpt lat="48.25652" lon="7.34523">
        <ele>380.2</ele>
        <time>2021-08-04T09:16:10Z</time>
      </trkpt>
      <trkpt lat="48.25651" lon="7.34518">
        <ele>380.3</ele>
        <time>2021-08-04T09:16:11Z</time>
      </trkpt>
      <trkpt lat="48.2565" lon="7.34516">
        <ele>380.4</ele>
        <time>2021-08-04T09:16:12Z</time>
      </trkpt>
      <trkpt lat="48.2565" lon="7.34514">
        <ele>380.4</ele>
        <time>2021-08-04T09:16:13Z</time>
      </trkpt>
      <trkpt lat="48.2565" lon="7.34508">
        <ele>380.6</ele>
        <time>2021-08-04T09:16:15Z</time>
      </trkpt>
      <trkpt lat="48.2565" lon="7.34505">
        <ele>380.6</ele>
        <time>2021-08-04T09:16:16Z</time>
      </trkpt>
      <trkpt lat="48.25649" lon="7.34503">
        <ele>380.7</ele>
        <time>2021-08-04T09:16:17Z</time>
      </trkpt>
      <trkpt lat="48.2565" lon="7.34499">
        <ele>380.8</ele>
        <time>2021-08-04T09:16:18Z</time>
      </trkpt>
      <trkpt lat="48.2565" lon="7.34497">
        <ele>380.8</ele>
        <time>2021-08-04T09:16:19Z</time>
      </trkpt>
      <trkpt lat="48.25651" lon="7.34491">
        <ele>381</ele>
        <time>2021-08-04T09:16:21Z</time>
      </trkpt>
      <trkpt lat="48.25651" lon="7.34486">
        <ele>381.1</ele>
        <time>2021-08-04T09:16:22Z</time>
      </trkpt>
      <trkpt lat="48.25651" lon="7.34484">
        <ele>381.2</ele>
        <time>2021-08-04T09:16:23Z</time>
      </trkpt>
      <trkpt lat="48.25651" lon="7.3448">
        <ele>381.3</ele>
        <time>2021-08-04T09:16:24Z</time>
      </trkpt>
      <trkpt lat="48.25652" lon="7.34476">
        <ele>381.4</ele>
        <time>2021-08-04T09:16:26Z</time>
      </trkpt>
      <trkpt lat="48.25652" lon="7.34473">
        <ele>381.5</ele>
        <time>2021-08-04T09:16:27Z</time>
      </trkpt>
      <trkpt lat="48.25652" lon="7.3447">
        <ele>381.5</ele>
        <time>2021-08-04T09:16:29Z</time>
      </trkpt>
      <trkpt lat="48.2565" lon="7.34465">
        <ele>381.7</ele>
        <time>2021-08-04T09:16:30Z</time>
      </trkpt>
      <trkpt lat="48.25648" lon="7.34464">
        <ele>381.8</ele>
        <time>2021-08-04T09:16:31Z</time>
      </trkpt>
      <trkpt lat="48.25646" lon="7.3446">
        <ele>381.9</ele>
        <time>2021-08-04T09:16:32Z</time>
      </trkpt>
      <trkpt lat="48.25645" lon="7.34459">
        <ele>382</ele>
        <time>2021-08-04T09:16:33Z</time>
      </trkpt>
      <trkpt lat="48.25644" lon="7.34458">
        <ele>382</ele>
        <time>2021-08-04T09:16:35Z</time>
      </trkpt>
      <trkpt lat="48.25643" lon="7.34459">
        <ele>382.1</ele>
        <time>2021-08-04T09:16:36Z</time>
      </trkpt>
      <trkpt lat="48.25643" lon="7.34457">
        <ele>382.1</ele>
        <time>2021-08-04T09:16:37Z</time>
      </trkpt>
      <trkpt lat="48.25643" lon="7.34456">
        <ele>382.1</ele>
        <time>2021-08-04T09:16:39Z</time>
      </trkpt>
      <trkpt lat="48.25643" lon="7.34454">
        <ele>382.2</ele>
        <time>2021-08-04T09:16:40Z</time>
      </trkpt>
      <trkpt lat="48.25644" lon="7.34453">
        <ele>382.2</ele>
        <time>2021-08-04T09:16:41Z</time>
      </trkpt>
      <trkpt lat="48.25646" lon="7.34451">
        <ele>382.3</ele>
        <time>2021-08-04T09:16:43Z</time>
      </trkpt>
      <trkpt lat="48.25656" lon="7.34431">
        <ele>382.9</ele>
        <time>2021-08-04T09:16:53Z</time>
      </trkpt>
      <trkpt lat="48.25656" lon="7.34427">
        <ele>383</ele>
        <time>2021-08-04T09:16:54Z</time>
      </trkpt>
      <trkpt lat="48.25656" lon="7.34424">
        <ele>383.1</ele>
        <time>2021-08-04T09:16:55Z</time>
      </trkpt>
      <trkpt lat="48.25657" lon="7.3442">
        <ele>383.2</ele>
        <time>2021-08-04T09:16:57Z</time>
      </trkpt>
      <trkpt lat="48.25658" lon="7.34417">
        <ele>383.2</ele>
        <time>2021-08-04T09:16:58Z</time>
      </trkpt>
      <trkpt lat="48.25658" lon="7.34415">
        <ele>383.3</ele>
        <time>2021-08-04T09:16:59Z</time>
      </trkpt>
      <trkpt lat="48.25658" lon="7.34413">
        <ele>383.3</ele>
        <time>2021-08-04T09:17:00Z</time>
      </trkpt>
      <trkpt lat="48.2566" lon="7.34409">
        <ele>383.4</ele>
        <time>2021-08-04T09:17:01Z</time>
      </trkpt>
      <trkpt lat="48.2566" lon="7.34407">
        <ele>383.4</ele>
        <time>2021-08-04T09:17:02Z</time>
      </trkpt>
      <trkpt lat="48.25662" lon="7.344">
        <ele>383.6</ele>
        <time>2021-08-04T09:17:04Z</time>
      </trkpt>
      <trkpt lat="48.25662" lon="7.34398">
        <ele>383.6</ele>
        <time>2021-08-04T09:17:05Z</time>
      </trkpt>
      <trkpt lat="48.25662" lon="7.34395">
        <ele>383.6</ele>
        <time>2021-08-04T09:17:06Z</time>
      </trkpt>
      <trkpt lat="48.25663" lon="7.34391">
        <ele>383.7</ele>
        <time>2021-08-04T09:17:07Z</time>
      </trkpt>
      <trkpt lat="48.25663" lon="7.34389">
        <ele>383.8</ele>
        <time>2021-08-04T09:17:08Z</time>
      </trkpt>
      <trkpt lat="48.25663" lon="7.34385">
        <ele>383.8</ele>
        <time>2021-08-04T09:17:09Z</time>
      </trkpt>
      <trkpt lat="48.25663" lon="7.34384">
        <ele>383.9</ele>
        <time>2021-08-04T09:17:10Z</time>
      </trkpt>
      <trkpt lat="48.25664" lon="7.34379">
        <ele>383.9</ele>
        <time>2021-08-04T09:17:11Z</time>
      </trkpt>
      <trkpt lat="48.25664" lon="7.34373">
        <ele>384</ele>
        <time>2021-08-04T09:17:13Z</time>
      </trkpt>
      <trkpt lat="48.25665" lon="7.34371">
        <ele>384.1</ele>
        <time>2021-08-04T09:17:14Z</time>
      </trkpt>
      <trkpt lat="48.25666" lon="7.34368">
        <ele>384.1</ele>
        <time>2021-08-04T09:17:15Z</time>
      </trkpt>
      <trkpt lat="48.25667" lon="7.34365">
        <ele>384.2</ele>
        <time>2021-08-04T09:17:17Z</time>
      </trkpt>
      <trkpt lat="48.25668" lon="7.34363">
        <ele>384.2</ele>
        <time>2021-08-04T09:17:18Z</time>
      </trkpt>
      <trkpt lat="48.25668" lon="7.34362">
        <ele>384.2</ele>
        <time>2021-08-04T09:17:19Z</time>
      </trkpt>
      <trkpt lat="48.25668" lon="7.34361">
        <ele>384.2</ele>
        <time>2021-08-04T09:17:20Z</time>
      </trkpt>
      <trkpt lat="48.25668" lon="7.3436">
        <ele>384.3</ele>
        <time>2021-08-04T09:17:21Z</time>
      </trkpt>
      <trkpt lat="48.25668" lon="7.34359">
        <ele>384.3</ele>
        <time>2021-08-04T09:17:22Z</time>
      </trkpt>
      <trkpt lat="48.25667" lon="7.34354">
        <ele>384.4</ele>
        <time>2021-08-04T09:17:24Z</time>
      </trkpt>
      <trkpt lat="48.25667" lon="7.34349">
        <ele>384.5</ele>
        <time>2021-08-04T09:17:25Z</time>
      </trkpt>
      <trkpt lat="48.25666" lon="7.34344">
        <ele>384.6</ele>
        <time>2021-08-04T09:17:26Z</time>
      </trkpt>
      <trkpt lat="48.25665" lon="7.3434">
        <ele>384.7</ele>
        <time>2021-08-04T09:17:27Z</time>
      </trkpt>
      <trkpt lat="48.25664" lon="7.34333">
        <ele>384.8</ele>
        <time>2021-08-04T09:17:29Z</time>
      </trkpt>
      <trkpt lat="48.25664" lon="7.3433">
        <ele>384.9</ele>
        <time>2021-08-04T09:17:30Z</time>
      </trkpt>
      <trkpt lat="48.25664" lon="7.34328">
        <ele>384.9</ele>
        <time>2021-08-04T09:17:31Z</time>
      </trkpt>
      <trkpt lat="48.25663" lon="7.34323">
        <ele>385</ele>
        <time>2021-08-04T09:17:33Z</time>
      </trkpt>
      <trkpt lat="48.25662" lon="7.34322">
        <ele>385</ele>
        <time>2021-08-04T09:17:34Z</time>
      </trkpt>
      <trkpt lat="48.25661" lon="7.3432">
        <ele>385.1</ele>
        <time>2021-08-04T09:17:35Z</time>
      </trkpt>
      <trkpt lat="48.2566" lon="7.34317">
        <ele>385.1</ele>
        <time>2021-08-04T09:17:36Z</time>
      </trkpt>
      <trkpt lat="48.2566" lon="7.34312">
        <ele>385.2</ele>
        <time>2021-08-04T09:17:37Z</time>
      </trkpt>
      <trkpt lat="48.25661" lon="7.34308">
        <ele>385.3</ele>
        <time>2021-08-04T09:17:39Z</time>
      </trkpt>
      <trkpt lat="48.25662" lon="7.34304">
        <ele>385.4</ele>
        <time>2021-08-04T09:17:40Z</time>
      </trkpt>
      <trkpt lat="48.25664" lon="7.34299">
        <ele>385.5</ele>
        <time>2021-08-04T09:17:41Z</time>
      </trkpt>
      <trkpt lat="48.25664" lon="7.34297">
        <ele>385.5</ele>
        <time>2021-08-04T09:17:42Z</time>
      </trkpt>
      <trkpt lat="48.25665" lon="7.34294">
        <ele>385.6</ele>
        <time>2021-08-04T09:17:43Z</time>
      </trkpt>
      <trkpt lat="48.25666" lon="7.34291">
        <ele>385.6</ele>
        <time>2021-08-04T09:17:45Z</time>
      </trkpt>
      <trkpt lat="48.25665" lon="7.34287">
        <ele>385.7</ele>
        <time>2021-08-04T09:17:46Z</time>
      </trkpt>
      <trkpt lat="48.25664" lon="7.34286">
        <ele>385.7</ele>
        <time>2021-08-04T09:17:47Z</time>
      </trkpt>
      <trkpt lat="48.25662" lon="7.34282">
        <ele>385.8</ele>
        <time>2021-08-04T09:17:48Z</time>
      </trkpt>
      <trkpt lat="48.25662" lon="7.34281">
        <ele>385.9</ele>
        <time>2021-08-04T09:17:49Z</time>
      </trkpt>
      <trkpt lat="48.25661" lon="7.34278">
        <ele>385.9</ele>
        <time>2021-08-04T09:17:50Z</time>
      </trkpt>
      <trkpt lat="48.2566" lon="7.34275">
        <ele>386</ele>
        <time>2021-08-04T09:17:52Z</time>
      </trkpt>
      <trkpt lat="48.25657" lon="7.3427">
        <ele>386.1</ele>
        <time>2021-08-04T09:17:53Z</time>
      </trkpt>
      <trkpt lat="48.25656" lon="7.34269">
        <ele>386.2</ele>
        <time>2021-08-04T09:17:54Z</time>
      </trkpt>
      <trkpt lat="48.25656" lon="7.34264">
        <ele>386.3</ele>
        <time>2021-08-04T09:17:55Z</time>
      </trkpt>
      <trkpt lat="48.25656" lon="7.34263">
        <ele>386.3</ele>
        <time>2021-08-04T09:17:56Z</time>
      </trkpt>
      <trkpt lat="48.25656" lon="7.3426">
        <ele>386.4</ele>
        <time>2021-08-04T09:17:58Z</time>
      </trkpt>
      <trkpt lat="48.25655" lon="7.34258">
        <ele>386.4</ele>
        <time>2021-08-04T09:17:59Z</time>
      </trkpt>
      <trkpt lat="48.25652" lon="7.34256">
        <ele>386.5</ele>
        <time>2021-08-04T09:18:01Z</time>
      </trkpt>
      <trkpt lat="48.25649" lon="7.34255">
        <ele>386.6</ele>
        <time>2021-08-04T09:18:03Z</time>
      </trkpt>
      <trkpt lat="48.25646" lon="7.34253">
        <ele>386.7</ele>
        <time>2021-08-04T09:18:04Z</time>
      </trkpt>
      <trkpt lat="48.25642" lon="7.3425">
        <ele>386.9</ele>
        <time>2021-08-04T09:18:05Z</time>
      </trkpt>
      <trkpt lat="48.25641" lon="7.34249">
        <ele>387</ele>
        <time>2021-08-04T09:18:06Z</time>
      </trkpt>
      <trkpt lat="48.25638" lon="7.34248">
        <ele>387.1</ele>
        <time>2021-08-04T09:18:07Z</time>
      </trkpt>
      <trkpt lat="48.25634" lon="7.34246">
        <ele>387.2</ele>
        <time>2021-08-04T09:18:09Z</time>
      </trkpt>
      <trkpt lat="48.25632" lon="7.34246">
        <ele>387.3</ele>
        <time>2021-08-04T09:18:10Z</time>
      </trkpt>
      <trkpt lat="48.25631" lon="7.34245">
        <ele>387.3</ele>
        <time>2021-08-04T09:18:11Z</time>
      </trkpt>
      <trkpt lat="48.2563" lon="7.34244">
        <ele>387.4</ele>
        <time>2021-08-04T09:18:12Z</time>
      </trkpt>
      <trkpt lat="48.25629" lon="7.34244">
        <ele>387.4</ele>
        <time>2021-08-04T09:18:14Z</time>
      </trkpt>
      <trkpt lat="48.25629" lon="7.34243">
        <ele>387.4</ele>
        <time>2021-08-04T09:18:15Z</time>
      </trkpt>
      <trkpt lat="48.25628" lon="7.34242">
        <ele>387.5</ele>
        <time>2021-08-04T09:18:16Z</time>
      </trkpt>
      <trkpt lat="48.25623" lon="7.34241">
        <ele>387.6</ele>
        <time>2021-08-04T09:18:18Z</time>
      </trkpt>
      <trkpt lat="48.25622" lon="7.3424">
        <ele>387.7</ele>
        <time>2021-08-04T09:18:19Z</time>
      </trkpt>
      <trkpt lat="48.25621" lon="7.3424">
        <ele>387.7</ele>
        <time>2021-08-04T09:18:20Z</time>
      </trkpt>
      <trkpt lat="48.25618" lon="7.3424">
        <ele>387.8</ele>
        <time>2021-08-04T09:18:22Z</time>
      </trkpt>
      <trkpt lat="48.25617" lon="7.34239">
        <ele>387.9</ele>
        <time>2021-08-04T09:18:23Z</time>
      </trkpt>
      <trkpt lat="48.25615" lon="7.34238">
        <ele>387.9</ele>
        <time>2021-08-04T09:18:24Z</time>
      </trkpt>
      <trkpt lat="48.25614" lon="7.34238">
        <ele>388</ele>
        <time>2021-08-04T09:18:26Z</time>
      </trkpt>
      <trkpt lat="48.25612" lon="7.34238">
        <ele>388</ele>
        <time>2021-08-04T09:18:27Z</time>
      </trkpt>
      <trkpt lat="48.25611" lon="7.34237">
        <ele>388.1</ele>
        <time>2021-08-04T09:18:28Z</time>
      </trkpt>
      <trkpt lat="48.25608" lon="7.34236">
        <ele>388.2</ele>
        <time>2021-08-04T09:18:29Z</time>
      </trkpt>
      <trkpt lat="48.25607" lon="7.34235">
        <ele>388.2</ele>
        <time>2021-08-04T09:18:30Z</time>
      </trkpt>
      <trkpt lat="48.25604" lon="7.34234">
        <ele>388.4</ele>
        <time>2021-08-04T09:18:32Z</time>
      </trkpt>
      <trkpt lat="48.25603" lon="7.34234">
        <ele>388.4</ele>
        <time>2021-08-04T09:18:33Z</time>
      </trkpt>
      <trkpt lat="48.256" lon="7.34232">
        <ele>388.5</ele>
        <time>2021-08-04T09:18:34Z</time>
      </trkpt>
      <trkpt lat="48.25599" lon="7.34232">
        <ele>388.6</ele>
        <time>2021-08-04T09:18:35Z</time>
      </trkpt>
      <trkpt lat="48.25597" lon="7.3423">
        <ele>388.6</ele>
        <time>2021-08-04T09:18:36Z</time>
      </trkpt>
      <trkpt lat="48.25597" lon="7.34229">
        <ele>388.7</ele>
        <time>2021-08-04T09:18:37Z</time>
      </trkpt>
      <trkpt lat="48.25598" lon="7.34228">
        <ele>388.7</ele>
        <time>2021-08-04T09:18:39Z</time>
      </trkpt>
      <trkpt lat="48.25598" lon="7.34228">
        <ele>388.7</ele>
        <time>2021-08-04T09:18:40Z</time>
      </trkpt>
      <trkpt lat="48.25598" lon="7.34228">
        <ele>388.7</ele>
        <time>2021-08-04T09:18:41Z</time>
      </trkpt>
      <trkpt lat="48.25598" lon="7.34227">
        <ele>388.7</ele>
        <time>2021-08-04T09:18:42Z</time>
      </trkpt>
      <trkpt lat="48.25597" lon="7.34224">
        <ele>388.8</ele>
        <time>2021-08-04T09:18:43Z</time>
      </trkpt>
      <trkpt lat="48.25597" lon="7.34222">
        <ele>388.8</ele>
        <time>2021-08-04T09:18:45Z</time>
      </trkpt>
      <trkpt lat="48.25597" lon="7.3422">
        <ele>388.9</ele>
        <time>2021-08-04T09:18:46Z</time>
      </trkpt>
      <trkpt lat="48.25597" lon="7.34185">
        <ele>389.8</ele>
        <time>2021-08-04T09:19:00Z</time>
      </trkpt>
      <trkpt lat="48.25597" lon="7.3418">
        <ele>390</ele>
        <time>2021-08-04T09:19:01Z</time>
      </trkpt>
      <trkpt lat="48.25598" lon="7.34176">
        <ele>390.1</ele>
        <time>2021-08-04T09:19:02Z</time>
      </trkpt>
      <trkpt lat="48.256" lon="7.34171">
        <ele>390.2</ele>
        <time>2021-08-04T09:19:04Z</time>
      </trkpt>
      <trkpt lat="48.25598" lon="7.34167">
        <ele>390.4</ele>
        <time>2021-08-04T09:19:06Z</time>
      </trkpt>
      <trkpt lat="48.25598" lon="7.34166">
        <ele>390.4</ele>
        <time>2021-08-04T09:19:07Z</time>
      </trkpt>
      <trkpt lat="48.25597" lon="7.34163">
        <ele>390.5</ele>
        <time>2021-08-04T09:19:08Z</time>
      </trkpt>
      <trkpt lat="48.25596" lon="7.34162">
        <ele>390.5</ele>
        <time>2021-08-04T09:19:09Z</time>
      </trkpt>
      <trkpt lat="48.25596" lon="7.3416">
        <ele>390.6</ele>
        <time>2021-08-04T09:19:10Z</time>
      </trkpt>
      <trkpt lat="48.25594" lon="7.34157">
        <ele>390.7</ele>
        <time>2021-08-04T09:19:12Z</time>
      </trkpt>
      <trkpt lat="48.25594" lon="7.34156">
        <ele>390.7</ele>
        <time>2021-08-04T09:19:13Z</time>
      </trkpt>
      <trkpt lat="48.25594" lon="7.34153">
        <ele>390.8</ele>
        <time>2021-08-04T09:19:14Z</time>
      </trkpt>
      <trkpt lat="48.25598" lon="7.34133">
        <ele>391.2</ele>
        <time>2021-08-04T09:19:21Z</time>
      </trkpt>
      <trkpt lat="48.25598" lon="7.34129">
        <ele>391.3</ele>
        <time>2021-08-04T09:19:22Z</time>
      </trkpt>
      <trkpt lat="48.25597" lon="7.34124">
        <ele>391.4</ele>
        <time>2021-08-04T09:19:23Z</time>
      </trkpt>
      <trkpt lat="48.25596" lon="7.3412">
        <ele>391.5</ele>
        <time>2021-08-04T09:19:24Z</time>
      </trkpt>
      <trkpt lat="48.25597" lon="7.34113">
        <ele>391.6</ele>
        <time>2021-08-04T09:19:26Z</time>
      </trkpt>
      <trkpt lat="48.25597" lon="7.34109">
        <ele>391.7</ele>
        <time>2021-08-04T09:19:27Z</time>
      </trkpt>
      <trkpt lat="48.25597" lon="7.34104">
        <ele>391.8</ele>
        <time>2021-08-04T09:19:28Z</time>
      </trkpt>
      <trkpt lat="48.25596" lon="7.34102">
        <ele>391.9</ele>
        <time>2021-08-04T09:19:29Z</time>
      </trkpt>
      <trkpt lat="48.25595" lon="7.34099">
        <ele>391.9</ele>
        <time>2021-08-04T09:19:30Z</time>
      </trkpt>
      <trkpt lat="48.25595" lon="7.34094">
        <ele>392</ele>
        <time>2021-08-04T09:19:32Z</time>
      </trkpt>
      <trkpt lat="48.25594" lon="7.34091">
        <ele>392.1</ele>
        <time>2021-08-04T09:19:33Z</time>
      </trkpt>
      <trkpt lat="48.25595" lon="7.34091">
        <ele>392.1</ele>
        <time>2021-08-04T09:19:34Z</time>
      </trkpt>
      <trkpt lat="48.25594" lon="7.3409">
        <ele>392.1</ele>
        <time>2021-08-04T09:19:35Z</time>
      </trkpt>
      <trkpt lat="48.25593" lon="7.34086">
        <ele>392.2</ele>
        <time>2021-08-04T09:19:36Z</time>
      </trkpt>
      <trkpt lat="48.25593" lon="7.34083">
        <ele>392.3</ele>
        <time>2021-08-04T09:19:38Z</time>
      </trkpt>
      <trkpt lat="48.25592" lon="7.34077">
        <ele>392.4</ele>
        <time>2021-08-04T09:19:39Z</time>
      </trkpt>
      <trkpt lat="48.25592" lon="7.34075">
        <ele>392.5</ele>
        <time>2021-08-04T09:19:40Z</time>
      </trkpt>
      <trkpt lat="48.25591" lon="7.3407">
        <ele>392.6</ele>
        <time>2021-08-04T09:19:41Z</time>
      </trkpt>
      <trkpt lat="48.25591" lon="7.34068">
        <ele>392.6</ele>
        <time>2021-08-04T09:19:42Z</time>
      </trkpt>
      <trkpt lat="48.25591" lon="7.34067">
        <ele>392.6</ele>
        <time>2021-08-04T09:19:43Z</time>
      </trkpt>
      <trkpt lat="48.25591" lon="7.34064">
        <ele>392.7</ele>
        <time>2021-08-04T09:19:44Z</time>
      </trkpt>
      <trkpt lat="48.25591" lon="7.34061">
        <ele>392.8</ele>
        <time>2021-08-04T09:19:46Z</time>
      </trkpt>
      <trkpt lat="48.25591" lon="7.34058">
        <ele>392.8</ele>
        <time>2021-08-04T09:19:47Z</time>
      </trkpt>
      <trkpt lat="48.25592" lon="7.34057">
        <ele>392.9</ele>
        <time>2021-08-04T09:19:49Z</time>
      </trkpt>
      <trkpt lat="48.25592" lon="7.34056">
        <ele>392.9</ele>
        <time>2021-08-04T09:19:50Z</time>
      </trkpt>
      <trkpt lat="48.25592" lon="7.34052">
        <ele>393</ele>
        <time>2021-08-04T09:19:52Z</time>
      </trkpt>
      <trkpt lat="48.25593" lon="7.34048">
        <ele>393.1</ele>
        <time>2021-08-04T09:19:54Z</time>
      </trkpt>
      <trkpt lat="48.25593" lon="7.34042">
        <ele>393.2</ele>
        <time>2021-08-04T09:19:55Z</time>
      </trkpt>
      <trkpt lat="48.25594" lon="7.34039">
        <ele>393.2</ele>
        <time>2021-08-04T09:19:56Z</time>
      </trkpt>
      <trkpt lat="48.25595" lon="7.34032">
        <ele>393.4</ele>
        <time>2021-08-04T09:19:58Z</time>
      </trkpt>
      <trkpt lat="48.25596" lon="7.34026">
        <ele>393.5</ele>
        <time>2021-08-04T09:19:59Z</time>
      </trkpt>
      <trkpt lat="48.25597" lon="7.3402">
        <ele>393.7</ele>
        <time>2021-08-04T09:20:01Z</time>
      </trkpt>
      <trkpt lat="48.25597" lon="7.34018">
        <ele>393.7</ele>
        <time>2021-08-04T09:20:02Z</time>
      </trkpt>
      <trkpt lat="48.25596" lon="7.34016">
        <ele>393.8</ele>
        <time>2021-08-04T09:20:03Z</time>
      </trkpt>
      <trkpt lat="48.25596" lon="7.34015">
        <ele>393.8</ele>
        <time>2021-08-04T09:20:04Z</time>
      </trkpt>
      <trkpt lat="48.25596" lon="7.34014">
        <ele>393.8</ele>
        <time>2021-08-04T09:20:05Z</time>
      </trkpt>
      <trkpt lat="48.25597" lon="7.34013">
        <ele>393.8</ele>
        <time>2021-08-04T09:20:06Z</time>
      </trkpt>
      <trkpt lat="48.256" lon="7.34008">
        <ele>394</ele>
        <time>2021-08-04T09:20:08Z</time>
      </trkpt>
      <trkpt lat="48.256" lon="7.34006">
        <ele>394</ele>
        <time>2021-08-04T09:20:09Z</time>
      </trkpt>
      <trkpt lat="48.25601" lon="7.34004">
        <ele>394.1</ele>
        <time>2021-08-04T09:20:10Z</time>
      </trkpt>
      <trkpt lat="48.25603" lon="7.34">
        <ele>394.2</ele>
        <time>2021-08-04T09:20:11Z</time>
      </trkpt>
      <trkpt lat="48.25603" lon="7.33999">
        <ele>394.2</ele>
        <time>2021-08-04T09:20:12Z</time>
      </trkpt>
      <trkpt lat="48.25605" lon="7.33995">
        <ele>394.3</ele>
        <time>2021-08-04T09:20:13Z</time>
      </trkpt>
      <trkpt lat="48.25608" lon="7.33991">
        <ele>394.4</ele>
        <time>2021-08-04T09:20:15Z</time>
      </trkpt>
      <trkpt lat="48.25609" lon="7.3399">
        <ele>394.5</ele>
        <time>2021-08-04T09:20:16Z</time>
      </trkpt>
      <trkpt lat="48.25611" lon="7.33988">
        <ele>394.5</ele>
        <time>2021-08-04T09:20:17Z</time>
      </trkpt>
      <trkpt lat="48.25611" lon="7.33987">
        <ele>394.6</ele>
        <time>2021-08-04T09:20:19Z</time>
      </trkpt>
      <trkpt lat="48.2561" lon="7.33986">
        <ele>394.6</ele>
        <time>2021-08-04T09:20:20Z</time>
      </trkpt>
      <trkpt lat="48.2561" lon="7.33985">
        <ele>394.6</ele>
        <time>2021-08-04T09:20:21Z</time>
      </trkpt>
      <trkpt lat="48.2561" lon="7.33985">
        <ele>394.6</ele>
        <time>2021-08-04T09:20:23Z</time>
      </trkpt>
      <trkpt lat="48.2561" lon="7.33984">
        <ele>394.7</ele>
        <time>2021-08-04T09:20:24Z</time>
      </trkpt>
      <trkpt lat="48.2561" lon="7.33982">
        <ele>394.7</ele>
        <time>2021-08-04T09:20:26Z</time>
      </trkpt>
      <trkpt lat="48.25611" lon="7.3398">
        <ele>394.7</ele>
        <time>2021-08-04T09:20:27Z</time>
      </trkpt>
      <trkpt lat="48.25619" lon="7.33965">
        <ele>395.1</ele>
        <time>2021-08-04T09:20:36Z</time>
      </trkpt>
      <trkpt lat="48.25622" lon="7.33959">
        <ele>395.3</ele>
        <time>2021-08-04T09:20:38Z</time>
      </trkpt>
      <trkpt lat="48.25623" lon="7.33955">
        <ele>395.4</ele>
        <time>2021-08-04T09:20:39Z</time>
      </trkpt>
      <trkpt lat="48.25624" lon="7.33951">
        <ele>395.4</ele>
        <time>2021-08-04T09:20:40Z</time>
      </trkpt>
      <trkpt lat="48.25626" lon="7.33946">
        <ele>395.5</ele>
        <time>2021-08-04T09:20:41Z</time>
      </trkpt>
      <trkpt lat="48.25626" lon="7.33944">
        <ele>395.6</ele>
        <time>2021-08-04T09:20:42Z</time>
      </trkpt>
      <trkpt lat="48.25627" lon="7.33939">
        <ele>395.7</ele>
        <time>2021-08-04T09:20:43Z</time>
      </trkpt>
      <trkpt lat="48.25626" lon="7.33933">
        <ele>395.8</ele>
        <time>2021-08-04T09:20:45Z</time>
      </trkpt>
      <trkpt lat="48.25625" lon="7.33931">
        <ele>395.8</ele>
        <time>2021-08-04T09:20:46Z</time>
      </trkpt>
      <trkpt lat="48.25625" lon="7.33925">
        <ele>396</ele>
        <time>2021-08-04T09:20:47Z</time>
      </trkpt>
      <trkpt lat="48.25626" lon="7.33923">
        <ele>396</ele>
        <time>2021-08-04T09:20:48Z</time>
      </trkpt>
      <trkpt lat="48.2563" lon="7.33914">
        <ele>396.2</ele>
        <time>2021-08-04T09:20:50Z</time>
      </trkpt>
      <trkpt lat="48.25631" lon="7.33909">
        <ele>396.3</ele>
        <time>2021-08-04T09:20:51Z</time>
      </trkpt>
      <trkpt lat="48.25632" lon="7.33907">
        <ele>396.4</ele>
        <time>2021-08-04T09:20:52Z</time>
      </trkpt>
      <trkpt lat="48.25634" lon="7.33902">
        <ele>396.5</ele>
        <time>2021-08-04T09:20:53Z</time>
      </trkpt>
      <trkpt lat="48.25634" lon="7.33901">
        <ele>396.5</ele>
        <time>2021-08-04T09:20:54Z</time>
      </trkpt>
      <trkpt lat="48.25635" lon="7.33898">
        <ele>396.6</ele>
        <time>2021-08-04T09:20:55Z</time>
      </trkpt>
      <trkpt lat="48.25635" lon="7.33896">
        <ele>396.6</ele>
        <time>2021-08-04T09:20:56Z</time>
      </trkpt>
      <trkpt lat="48.25635" lon="7.33893">
        <ele>396.7</ele>
        <time>2021-08-04T09:20:57Z</time>
      </trkpt>
      <trkpt lat="48.25637" lon="7.33888">
        <ele>396.8</ele>
        <time>2021-08-04T09:20:59Z</time>
      </trkpt>
      <trkpt lat="48.25639" lon="7.33883">
        <ele>396.9</ele>
        <time>2021-08-04T09:21:00Z</time>
      </trkpt>
      <trkpt lat="48.25639" lon="7.33881">
        <ele>396.9</ele>
        <time>2021-08-04T09:21:01Z</time>
      </trkpt>
      <trkpt lat="48.2564" lon="7.33879">
        <ele>397</ele>
        <time>2021-08-04T09:21:02Z</time>
      </trkpt>
      <trkpt lat="48.25641" lon="7.33873">
        <ele>397.1</ele>
        <time>2021-08-04T09:21:04Z</time>
      </trkpt>
      <trkpt lat="48.25643" lon="7.3387">
        <ele>397.2</ele>
        <time>2021-08-04T09:21:05Z</time>
      </trkpt>
      <trkpt lat="48.25644" lon="7.3387">
        <ele>397.2</ele>
        <time>2021-08-04T09:21:06Z</time>
      </trkpt>
      <trkpt lat="48.25644" lon="7.33869">
        <ele>397.2</ele>
        <time>2021-08-04T09:21:07Z</time>
      </trkpt>
      <trkpt lat="48.25646" lon="7.33867">
        <ele>397.3</ele>
        <time>2021-08-04T09:21:09Z</time>
      </trkpt>
      <trkpt lat="48.25646" lon="7.33866">
        <ele>397.3</ele>
        <time>2021-08-04T09:21:10Z</time>
      </trkpt>
      <trkpt lat="48.25647" lon="7.33865">
        <ele>397.4</ele>
        <time>2021-08-04T09:21:11Z</time>
      </trkpt>
      <trkpt lat="48.25648" lon="7.33863">
        <ele>397.4</ele>
        <time>2021-08-04T09:21:13Z</time>
      </trkpt>
      <trkpt lat="48.25649" lon="7.33861">
        <ele>397.5</ele>
        <time>2021-08-04T09:21:14Z</time>
      </trkpt>
      <trkpt lat="48.25654" lon="7.33843">
        <ele>397.9</ele>
        <time>2021-08-04T09:21:25Z</time>
      </trkpt>
      <trkpt lat="48.25658" lon="7.33837">
        <ele>398</ele>
        <time>2021-08-04T09:21:27Z</time>
      </trkpt>
      <trkpt lat="48.25661" lon="7.33832">
        <ele>398.2</ele>
        <time>2021-08-04T09:21:28Z</time>
      </trkpt>
      <trkpt lat="48.25664" lon="7.33825">
        <ele>398.3</ele>
        <time>2021-08-04T09:21:30Z</time>
      </trkpt>
      <trkpt lat="48.25665" lon="7.33822">
        <ele>398.4</ele>
        <time>2021-08-04T09:21:31Z</time>
      </trkpt>
      <trkpt lat="48.25667" lon="7.33816">
        <ele>398.6</ele>
        <time>2021-08-04T09:21:33Z</time>
      </trkpt>
      <trkpt lat="48.25668" lon="7.33813">
        <ele>398.6</ele>
        <time>2021-08-04T09:21:34Z</time>
      </trkpt>
      <trkpt lat="48.25667" lon="7.33806">
        <ele>398.8</ele>
        <time>2021-08-04T09:21:36Z</time>
      </trkpt>
      <trkpt lat="48.25668" lon="7.33801">
        <ele>398.9</ele>
        <time>2021-08-04T09:21:37Z</time>
      </trkpt>
      <trkpt lat="48.25668" lon="7.338">
        <ele>398.9</ele>
        <time>2021-08-04T09:21:38Z</time>
      </trkpt>
      <trkpt lat="48.2567" lon="7.33794">
        <ele>399.1</ele>
        <time>2021-08-04T09:21:40Z</time>
      </trkpt>
      <trkpt lat="48.25671" lon="7.3379">
        <ele>399.2</ele>
        <time>2021-08-04T09:21:41Z</time>
      </trkpt>
      <trkpt lat="48.25673" lon="7.33784">
        <ele>399.3</ele>
        <time>2021-08-04T09:21:43Z</time>
      </trkpt>
      <trkpt lat="48.25674" lon="7.33781">
        <ele>399.4</ele>
        <time>2021-08-04T09:21:44Z</time>
      </trkpt>
      <trkpt lat="48.25673" lon="7.33775">
        <ele>399.6</ele>
        <time>2021-08-04T09:21:46Z</time>
      </trkpt>
      <trkpt lat="48.25673" lon="7.33772">
        <ele>399.6</ele>
        <time>2021-08-04T09:21:47Z</time>
      </trkpt>
      <trkpt lat="48.25673" lon="7.33769">
        <ele>399.7</ele>
        <time>2021-08-04T09:21:49Z</time>
      </trkpt>
      <trkpt lat="48.25674" lon="7.33765">
        <ele>399.8</ele>
        <time>2021-08-04T09:21:50Z</time>
      </trkpt>
      <trkpt lat="48.25674" lon="7.33763">
        <ele>399.9</ele>
        <time>2021-08-04T09:21:51Z</time>
      </trkpt>
      <trkpt lat="48.25675" lon="7.33759">
        <ele>400</ele>
        <time>2021-08-04T09:21:52Z</time>
      </trkpt>
      <trkpt lat="48.25676" lon="7.33755">
        <ele>400.1</ele>
        <time>2021-08-04T09:21:54Z</time>
      </trkpt>
      <trkpt lat="48.25677" lon="7.33751">
        <ele>400.2</ele>
        <time>2021-08-04T09:21:55Z</time>
      </trkpt>
      <trkpt lat="48.25677" lon="7.33749">
        <ele>400.3</ele>
        <time>2021-08-04T09:21:56Z</time>
      </trkpt>
      <trkpt lat="48.25678" lon="7.33744">
        <ele>400.4</ele>
        <time>2021-08-04T09:21:58Z</time>
      </trkpt>
      <trkpt lat="48.25678" lon="7.33744">
        <ele>400.4</ele>
        <time>2021-08-04T09:21:59Z</time>
      </trkpt>
      <trkpt lat="48.25678" lon="7.33744">
        <ele>400.4</ele>
        <time>2021-08-04T09:22:00Z</time>
      </trkpt>
      <trkpt lat="48.25678" lon="7.33744">
        <ele>400.4</ele>
        <time>2021-08-04T09:22:01Z</time>
      </trkpt>
      <trkpt lat="48.25678" lon="7.33742">
        <ele>400.4</ele>
        <time>2021-08-04T09:22:03Z</time>
      </trkpt>
      <trkpt lat="48.25678" lon="7.33741">
        <ele>400.5</ele>
        <time>2021-08-04T09:22:04Z</time>
      </trkpt>
      <trkpt lat="48.25678" lon="7.33739">
        <ele>400.5</ele>
        <time>2021-08-04T09:22:05Z</time>
      </trkpt>
      <trkpt lat="48.25678" lon="7.33736">
        <ele>400.6</ele>
        <time>2021-08-04T09:22:06Z</time>
      </trkpt>
      <trkpt lat="48.25676" lon="7.33688">
        <ele>401.9</ele>
        <time>2021-08-04T09:22:23Z</time>
      </trkpt>
      <trkpt lat="48.25677" lon="7.33682">
        <ele>402</ele>
        <time>2021-08-04T09:22:24Z</time>
      </trkpt>
      <trkpt lat="48.25677" lon="7.33676">
        <ele>402.1</ele>
        <time>2021-08-04T09:22:26Z</time>
      </trkpt>
      <trkpt lat="48.25678" lon="7.3367">
        <ele>402.3</ele>
        <time>2021-08-04T09:22:27Z</time>
      </trkpt>
      <trkpt lat="48.25678" lon="7.33664">
        <ele>402.4</ele>
        <time>2021-08-04T09:22:28Z</time>
      </trkpt>
      <trkpt lat="48.25678" lon="7.33655">
        <ele>402.6</ele>
        <time>2021-08-04T09:22:30Z</time>
      </trkpt>
      <trkpt lat="48.25677" lon="7.33649">
        <ele>402.8</ele>
        <time>2021-08-04T09:22:31Z</time>
      </trkpt>
      <trkpt lat="48.25677" lon="7.33642">
        <ele>403</ele>
        <time>2021-08-04T09:22:33Z</time>
      </trkpt>
      <trkpt lat="48.25678" lon="7.33638">
        <ele>403.1</ele>
        <time>2021-08-04T09:22:35Z</time>
      </trkpt>
      <trkpt lat="48.25678" lon="7.33637">
        <ele>403.2</ele>
        <time>2021-08-04T09:22:36Z</time>
      </trkpt>
      <trkpt lat="48.25678" lon="7.33634">
        <ele>403.2</ele>
        <time>2021-08-04T09:22:37Z</time>
      </trkpt>
      <trkpt lat="48.25678" lon="7.33633">
        <ele>403.3</ele>
        <time>2021-08-04T09:22:39Z</time>
      </trkpt>
      <trkpt lat="48.25678" lon="7.33632">
        <ele>403.3</ele>
        <time>2021-08-04T09:22:40Z</time>
      </trkpt>
      <trkpt lat="48.25678" lon="7.33631">
        <ele>403.3</ele>
        <time>2021-08-04T09:22:41Z</time>
      </trkpt>
      <trkpt lat="48.25678" lon="7.33626">
        <ele>403.4</ele>
        <time>2021-08-04T09:22:43Z</time>
      </trkpt>
      <trkpt lat="48.25678" lon="7.33624">
        <ele>403.5</ele>
        <time>2021-08-04T09:22:44Z</time>
      </trkpt>
      <trkpt lat="48.25679" lon="7.33622">
        <ele>403.5</ele>
        <time>2021-08-04T09:22:46Z</time>
      </trkpt>
      <trkpt lat="48.25683" lon="7.33605">
        <ele>403.9</ele>
        <time>2021-08-04T09:22:51Z</time>
      </trkpt>
      <trkpt lat="48.25684" lon="7.33601">
        <ele>404</ele>
        <time>2021-08-04T09:22:52Z</time>
      </trkpt>
      <trkpt lat="48.25688" lon="7.33593">
        <ele>404.3</ele>
        <time>2021-08-04T09:22:54Z</time>
      </trkpt>
      <trkpt lat="48.2569" lon="7.33588">
        <ele>404.4</ele>
        <time>2021-08-04T09:22:55Z</time>
      </trkpt>
      <trkpt lat="48.25692" lon="7.33583">
        <ele>404.6</ele>
        <time>2021-08-04T09:22:56Z</time>
      </trkpt>
      <trkpt lat="48.25694" lon="7.33578">
        <ele>404.7</ele>
        <time>2021-08-04T09:22:57Z</time>
      </trkpt>
      <trkpt lat="48.25695" lon="7.33576">
        <ele>404.8</ele>
        <time>2021-08-04T09:22:58Z</time>
      </trkpt>
      <trkpt lat="48.25696" lon="7.33574">
        <ele>404.9</ele>
        <time>2021-08-04T09:23:00Z</time>
      </trkpt>
      <trkpt lat="48.25697" lon="7.3357">
        <ele>405</ele>
        <time>2021-08-04T09:23:01Z</time>
      </trkpt>
      <trkpt lat="48.25697" lon="7.33569">
        <ele>405</ele>
        <time>2021-08-04T09:23:02Z</time>
      </trkpt>
      <trkpt lat="48.257" lon="7.33566">
        <ele>405.1</ele>
        <time>2021-08-04T09:23:03Z</time>
      </trkpt>
      <trkpt lat="48.25701" lon="7.33565">
        <ele>405.2</ele>
        <time>2021-08-04T09:23:04Z</time>
      </trkpt>
      <trkpt lat="48.25703" lon="7.33564">
        <ele>405.3</ele>
        <time>2021-08-04T09:23:05Z</time>
      </trkpt>
      <trkpt lat="48.25705" lon="7.33559">
        <ele>405.4</ele>
        <time>2021-08-04T09:23:07Z</time>
      </trkpt>
      <trkpt lat="48.25707" lon="7.33555">
        <ele>405.6</ele>
        <time>2021-08-04T09:23:08Z</time>
      </trkpt>
      <trkpt lat="48.2571" lon="7.33552">
        <ele>405.7</ele>
        <time>2021-08-04T09:23:09Z</time>
      </trkpt>
      <trkpt lat="48.25712" lon="7.33548">
        <ele>405.8</ele>
        <time>2021-08-04T09:23:10Z</time>
      </trkpt>
      <trkpt lat="48.25712" lon="7.33546">
        <ele>405.9</ele>
        <time>2021-08-04T09:23:11Z</time>
      </trkpt>
      <trkpt lat="48.25714" lon="7.33544">
        <ele>405.9</ele>
        <time>2021-08-04T09:23:12Z</time>
      </trkpt>
      <trkpt lat="48.25715" lon="7.33541">
        <ele>406</ele>
        <time>2021-08-04T09:23:14Z</time>
      </trkpt>
      <trkpt lat="48.25717" lon="7.33539">
        <ele>406.1</ele>
        <time>2021-08-04T09:23:15Z</time>
      </trkpt>
      <trkpt lat="48.25719" lon="7.33535">
        <ele>406.2</ele>
        <time>2021-08-04T09:23:17Z</time>
      </trkpt>
      <trkpt lat="48.25719" lon="7.33533">
        <ele>406.3</ele>
        <time>2021-08-04T09:23:18Z</time>
      </trkpt>
      <trkpt lat="48.2572" lon="7.33531">
        <ele>406.3</ele>
        <time>2021-08-04T09:23:19Z</time>
      </trkpt>
      <trkpt lat="48.25725" lon="7.3353">
        <ele>406.5</ele>
        <time>2021-08-04T09:23:21Z</time>
      </trkpt>
      <trkpt lat="48.25726" lon="7.33529">
        <ele>406.6</ele>
        <time>2021-08-04T09:23:22Z</time>
      </trkpt>
      <trkpt lat="48.25728" lon="7.33529">
        <ele>406.6</ele>
        <time>2021-08-04T09:23:23Z</time>
      </trkpt>
      <trkpt lat="48.2573" lon="7.33526">
        <ele>406.7</ele>
        <time>2021-08-04T09:23:24Z</time>
      </trkpt>
      <trkpt lat="48.25731" lon="7.33525">
        <ele>406.8</ele>
        <time>2021-08-04T09:23:25Z</time>
      </trkpt>
      <trkpt lat="48.25735" lon="7.33521">
        <ele>406.9</ele>
        <time>2021-08-04T09:23:27Z</time>
      </trkpt>
      <trkpt lat="48.25737" lon="7.33518">
        <ele>407</ele>
        <time>2021-08-04T09:23:28Z</time>
      </trkpt>
      <trkpt lat="48.25739" lon="7.33515">
        <ele>407.1</ele>
        <time>2021-08-04T09:23:29Z</time>
      </trkpt>
      <trkpt lat="48.25742" lon="7.33512">
        <ele>407.2</ele>
        <time>2021-08-04T09:23:30Z</time>
      </trkpt>
      <trkpt lat="48.25742" lon="7.33511">
        <ele>407.3</ele>
        <time>2021-08-04T09:23:31Z</time>
      </trkpt>
      <trkpt lat="48.25745" lon="7.33508">
        <ele>407.3</ele>
        <time>2021-08-04T09:23:33Z</time>
      </trkpt>
      <trkpt lat="48.25746" lon="7.33506">
        <ele>407.4</ele>
        <time>2021-08-04T09:23:34Z</time>
      </trkpt>
      <trkpt lat="48.25747" lon="7.33504">
        <ele>407.4</ele>
        <time>2021-08-04T09:23:35Z</time>
      </trkpt>
      <trkpt lat="48.25748" lon="7.33503">
        <ele>407.4</ele>
        <time>2021-08-04T09:23:36Z</time>
      </trkpt>
      <trkpt lat="48.25749" lon="7.33503">
        <ele>407.4</ele>
        <time>2021-08-04T09:23:37Z</time>
      </trkpt>
      <trkpt lat="48.25751" lon="7.33499">
        <ele>407.5</ele>
        <time>2021-08-04T09:23:39Z</time>
      </trkpt>
      <trkpt lat="48.25751" lon="7.33497">
        <ele>407.6</ele>
        <time>2021-08-04T09:23:40Z</time>
      </trkpt>
      <trkpt lat="48.25752" lon="7.33495">
        <ele>407.6</ele>
        <time>2021-08-04T09:23:41Z</time>
      </trkpt>
      <trkpt lat="48.25753" lon="7.33491">
        <ele>407.7</ele>
        <time>2021-08-04T09:23:42Z</time>
      </trkpt>
      <trkpt lat="48.25755" lon="7.33486">
        <ele>407.8</ele>
        <time>2021-08-04T09:23:44Z</time>
      </trkpt>
      <trkpt lat="48.25756" lon="7.33485">
        <ele>407.8</ele>
        <time>2021-08-04T09:23:45Z</time>
      </trkpt>
      <trkpt lat="48.25758" lon="7.33482">
        <ele>407.9</ele>
        <time>2021-08-04T09:23:46Z</time>
      </trkpt>
      <trkpt lat="48.25759" lon="7.33481">
        <ele>407.9</ele>
        <time>2021-08-04T09:23:47Z</time>
      </trkpt>
      <trkpt lat="48.25761" lon="7.33477">
        <ele>408</ele>
        <time>2021-08-04T09:23:49Z</time>
      </trkpt>
      <trkpt lat="48.25761" lon="7.33474">
        <ele>408</ele>
        <time>2021-08-04T09:23:50Z</time>
      </trkpt>
      <trkpt lat="48.25762" lon="7.33468">
        <ele>408.1</ele>
        <time>2021-08-04T09:23:52Z</time>
      </trkpt>
      <trkpt lat="48.25763" lon="7.33464">
        <ele>408.2</ele>
        <time>2021-08-04T09:23:53Z</time>
      </trkpt>
      <trkpt lat="48.25764" lon="7.33457">
        <ele>408.3</ele>
        <time>2021-08-04T09:23:55Z</time>
      </trkpt>
      <trkpt lat="48.25764" lon="7.33454">
        <ele>408.4</ele>
        <time>2021-08-04T09:23:56Z</time>
      </trkpt>
      <trkpt lat="48.25764" lon="7.33452">
        <ele>408.4</ele>
        <time>2021-08-04T09:23:57Z</time>
      </trkpt>
      <trkpt lat="48.25764" lon="7.33446">
        <ele>408.5</ele>
        <time>2021-08-04T09:23:58Z</time>
      </trkpt>
      <trkpt lat="48.25765" lon="7.33444">
        <ele>408.6</ele>
        <time>2021-08-04T09:23:59Z</time>
      </trkpt>
      <trkpt lat="48.25765" lon="7.33437">
        <ele>408.7</ele>
        <time>2021-08-04T09:24:01Z</time>
      </trkpt>
      <trkpt lat="48.25766" lon="7.33434">
        <ele>408.7</ele>
        <time>2021-08-04T09:24:02Z</time>
      </trkpt>
      <trkpt lat="48.25766" lon="7.33431">
        <ele>408.8</ele>
        <time>2021-08-04T09:24:03Z</time>
      </trkpt>
      <trkpt lat="48.25765" lon="7.33423">
        <ele>408.9</ele>
        <time>2021-08-04T09:24:05Z</time>
      </trkpt>
      <trkpt lat="48.25765" lon="7.33418">
        <ele>409</ele>
        <time>2021-08-04T09:24:06Z</time>
      </trkpt>
      <trkpt lat="48.25764" lon="7.33412">
        <ele>409.1</ele>
        <time>2021-08-04T09:24:07Z</time>
      </trkpt>
      <trkpt lat="48.25764" lon="7.33405">
        <ele>409.2</ele>
        <time>2021-08-04T09:24:08Z</time>
      </trkpt>
      <trkpt lat="48.25765" lon="7.334">
        <ele>409.3</ele>
        <time>2021-08-04T09:24:10Z</time>
      </trkpt>
      <trkpt lat="48.25766" lon="7.33395">
        <ele>409.4</ele>
        <time>2021-08-04T09:24:11Z</time>
      </trkpt>
      <trkpt lat="48.25767" lon="7.33391">
        <ele>409.5</ele>
        <time>2021-08-04T09:24:12Z</time>
      </trkpt>
      <trkpt lat="48.25767" lon="7.33383">
        <ele>409.6</ele>
        <time>2021-08-04T09:24:14Z</time>
      </trkpt>
      <trkpt lat="48.25768" lon="7.33381">
        <ele>409.7</ele>
        <time>2021-08-04T09:24:15Z</time>
      </trkpt>
      <trkpt lat="48.25768" lon="7.33379">
        <ele>409.7</ele>
        <time>2021-08-04T09:24:16Z</time>
      </trkpt>
      <trkpt lat="48.25769" lon="7.33373">
        <ele>409.8</ele>
        <time>2021-08-04T09:24:18Z</time>
      </trkpt>
      <trkpt lat="48.25769" lon="7.33368">
        <ele>409.9</ele>
        <time>2021-08-04T09:24:19Z</time>
      </trkpt>
      <trkpt lat="48.2577" lon="7.33364">
        <ele>410</ele>
        <time>2021-08-04T09:24:20Z</time>
      </trkpt>
      <trkpt lat="48.25771" lon="7.3336">
        <ele>410.1</ele>
        <time>2021-08-04T09:24:21Z</time>
      </trkpt>
      <trkpt lat="48.25771" lon="7.33355">
        <ele>410.2</ele>
        <time>2021-08-04T09:24:23Z</time>
      </trkpt>
      <trkpt lat="48.25771" lon="7.33349">
        <ele>410.3</ele>
        <time>2021-08-04T09:24:25Z</time>
      </trkpt>
      <trkpt lat="48.25771" lon="7.33344">
        <ele>410.4</ele>
        <time>2021-08-04T09:24:26Z</time>
      </trkpt>
      <trkpt lat="48.25771" lon="7.33342">
        <ele>410.4</ele>
        <time>2021-08-04T09:24:27Z</time>
      </trkpt>
      <trkpt lat="48.25772" lon="7.33336">
        <ele>410.6</ele>
        <time>2021-08-04T09:24:28Z</time>
      </trkpt>
      <trkpt lat="48.25773" lon="7.33328">
        <ele>410.7</ele>
        <time>2021-08-04T09:24:30Z</time>
      </trkpt>
      <trkpt lat="48.25773" lon="7.33326">
        <ele>410.8</ele>
        <time>2021-08-04T09:24:31Z</time>
      </trkpt>
      <trkpt lat="48.25773" lon="7.33323">
        <ele>410.8</ele>
        <time>2021-08-04T09:24:32Z</time>
      </trkpt>
      <trkpt lat="48.25772" lon="7.33316">
        <ele>411</ele>
        <time>2021-08-04T09:24:34Z</time>
      </trkpt>
      <trkpt lat="48.25772" lon="7.33313">
        <ele>411</ele>
        <time>2021-08-04T09:24:35Z</time>
      </trkpt>
      <trkpt lat="48.25772" lon="7.33311">
        <ele>411.1</ele>
        <time>2021-08-04T09:24:36Z</time>
      </trkpt>
      <trkpt lat="48.25774" lon="7.33306">
        <ele>411.2</ele>
        <time>2021-08-04T09:24:37Z</time>
      </trkpt>
      <trkpt lat="48.25774" lon="7.33305">
        <ele>411.2</ele>
        <time>2021-08-04T09:24:38Z</time>
      </trkpt>
      <trkpt lat="48.25774" lon="7.33301">
        <ele>411.3</ele>
        <time>2021-08-04T09:24:40Z</time>
      </trkpt>
      <trkpt lat="48.25773" lon="7.33299">
        <ele>411.3</ele>
        <time>2021-08-04T09:24:41Z</time>
      </trkpt>
      <trkpt lat="48.25772" lon="7.33297">
        <ele>411.4</ele>
        <time>2021-08-04T09:24:42Z</time>
      </trkpt>
      <trkpt lat="48.25773" lon="7.33292">
        <ele>411.5</ele>
        <time>2021-08-04T09:24:44Z</time>
      </trkpt>
      <trkpt lat="48.25775" lon="7.33289">
        <ele>411.6</ele>
        <time>2021-08-04T09:24:45Z</time>
      </trkpt>
      <trkpt lat="48.25776" lon="7.33287">
        <ele>411.6</ele>
        <time>2021-08-04T09:24:46Z</time>
      </trkpt>
      <trkpt lat="48.25777" lon="7.33285">
        <ele>411.6</ele>
        <time>2021-08-04T09:24:47Z</time>
      </trkpt>
      <trkpt lat="48.25778" lon="7.33279">
        <ele>411.7</ele>
        <time>2021-08-04T09:24:49Z</time>
      </trkpt>
      <trkpt lat="48.25779" lon="7.33275">
        <ele>411.8</ele>
        <time>2021-08-04T09:24:50Z</time>
      </trkpt>
      <trkpt lat="48.25778" lon="7.33271">
        <ele>411.9</ele>
        <time>2021-08-04T09:24:51Z</time>
      </trkpt>
      <trkpt lat="48.25776" lon="7.33265">
        <ele>412</ele>
        <time>2021-08-04T09:24:52Z</time>
      </trkpt>
      <trkpt lat="48.25775" lon="7.33264">
        <ele>412</ele>
        <time>2021-08-04T09:24:53Z</time>
      </trkpt>
      <trkpt lat="48.25773" lon="7.3326">
        <ele>412.1</ele>
        <time>2021-08-04T09:24:55Z</time>
      </trkpt>
      <trkpt lat="48.25771" lon="7.33258">
        <ele>412.2</ele>
        <time>2021-08-04T09:24:56Z</time>
      </trkpt>
      <trkpt lat="48.25771" lon="7.33253">
        <ele>412.3</ele>
        <time>2021-08-04T09:24:58Z</time>
      </trkpt>
      <trkpt lat="48.2577" lon="7.33249">
        <ele>412.3</ele>
        <time>2021-08-04T09:24:59Z</time>
      </trkpt>
      <trkpt lat="48.25768" lon="7.33244">
        <ele>412.4</ele>
        <time>2021-08-04T09:25:01Z</time>
      </trkpt>
      <trkpt lat="48.25768" lon="7.3324">
        <ele>412.5</ele>
        <time>2021-08-04T09:25:02Z</time>
      </trkpt>
      <trkpt lat="48.25767" lon="7.33235">
        <ele>412.6</ele>
        <time>2021-08-04T09:25:03Z</time>
      </trkpt>
      <trkpt lat="48.25765" lon="7.33231">
        <ele>412.7</ele>
        <time>2021-08-04T09:25:04Z</time>
      </trkpt>
      <trkpt lat="48.25762" lon="7.33226">
        <ele>412.9</ele>
        <time>2021-08-04T09:25:06Z</time>
      </trkpt>
      <trkpt lat="48.25761" lon="7.33221">
        <ele>413</ele>
        <time>2021-08-04T09:25:07Z</time>
      </trkpt>
      <trkpt lat="48.2576" lon="7.33218">
        <ele>413</ele>
        <time>2021-08-04T09:25:08Z</time>
      </trkpt>
      <trkpt lat="48.25758" lon="7.33214">
        <ele>413.1</ele>
        <time>2021-08-04T09:25:10Z</time>
      </trkpt>
      <trkpt lat="48.25757" lon="7.3321">
        <ele>413.2</ele>
        <time>2021-08-04T09:25:11Z</time>
      </trkpt>
      <trkpt lat="48.25756" lon="7.33204">
        <ele>413.3</ele>
        <time>2021-08-04T09:25:13Z</time>
      </trkpt>
      <trkpt lat="48.25756" lon="7.332">
        <ele>413.4</ele>
        <time>2021-08-04T09:25:14Z</time>
      </trkpt>
      <trkpt lat="48.25755" lon="7.33193">
        <ele>413.5</ele>
        <time>2021-08-04T09:25:16Z</time>
      </trkpt>
      <trkpt lat="48.25754" lon="7.33189">
        <ele>413.6</ele>
        <time>2021-08-04T09:25:17Z</time>
      </trkpt>
      <trkpt lat="48.25753" lon="7.33185">
        <ele>413.7</ele>
        <time>2021-08-04T09:25:18Z</time>
      </trkpt>
      <trkpt lat="48.25751" lon="7.3318">
        <ele>413.8</ele>
        <time>2021-08-04T09:25:19Z</time>
      </trkpt>
      <trkpt lat="48.2575" lon="7.33179">
        <ele>413.8</ele>
        <time>2021-08-04T09:25:20Z</time>
      </trkpt>
      <trkpt lat="48.25749" lon="7.33174">
        <ele>413.9</ele>
        <time>2021-08-04T09:25:22Z</time>
      </trkpt>
      <trkpt lat="48.25747" lon="7.3317">
        <ele>414</ele>
        <time>2021-08-04T09:25:23Z</time>
      </trkpt>
      <trkpt lat="48.25746" lon="7.33165">
        <ele>414.1</ele>
        <time>2021-08-04T09:25:24Z</time>
      </trkpt>
      <trkpt lat="48.25745" lon="7.33163">
        <ele>414.1</ele>
        <time>2021-08-04T09:25:25Z</time>
      </trkpt>
      <trkpt lat="48.25743" lon="7.33156">
        <ele>414.2</ele>
        <time>2021-08-04T09:25:27Z</time>
      </trkpt>
      <trkpt lat="48.25743" lon="7.33151">
        <ele>414.3</ele>
        <time>2021-08-04T09:25:28Z</time>
      </trkpt>
      <trkpt lat="48.25742" lon="7.33149">
        <ele>414.3</ele>
        <time>2021-08-04T09:25:29Z</time>
      </trkpt>
      <trkpt lat="48.25741" lon="7.33144">
        <ele>414.4</ele>
        <time>2021-08-04T09:25:31Z</time>
      </trkpt>
      <trkpt lat="48.25742" lon="7.33137">
        <ele>414.5</ele>
        <time>2021-08-04T09:25:33Z</time>
      </trkpt>
      <trkpt lat="48.25743" lon="7.33132">
        <ele>414.6</ele>
        <time>2021-08-04T09:25:35Z</time>
      </trkpt>
      <trkpt lat="48.25743" lon="7.3313">
        <ele>414.6</ele>
        <time>2021-08-04T09:25:36Z</time>
      </trkpt>
      <trkpt lat="48.25745" lon="7.33127">
        <ele>414.7</ele>
        <time>2021-08-04T09:25:37Z</time>
      </trkpt>
      <trkpt lat="48.25746" lon="7.33123">
        <ele>414.8</ele>
        <time>2021-08-04T09:25:39Z</time>
      </trkpt>
      <trkpt lat="48.25747" lon="7.33121">
        <ele>414.8</ele>
        <time>2021-08-04T09:25:40Z</time>
      </trkpt>
      <trkpt lat="48.25748" lon="7.33117">
        <ele>414.9</ele>
        <time>2021-08-04T09:25:41Z</time>
      </trkpt>
      <trkpt lat="48.2575" lon="7.33112">
        <ele>415</ele>
        <time>2021-08-04T09:25:43Z</time>
      </trkpt>
      <trkpt lat="48.25752" lon="7.33106">
        <ele>415.1</ele>
        <time>2021-08-04T09:25:45Z</time>
      </trkpt>
      <trkpt lat="48.25753" lon="7.331">
        <ele>415.3</ele>
        <time>2021-08-04T09:25:47Z</time>
      </trkpt>
      <trkpt lat="48.25754" lon="7.33098">
        <ele>415.3</ele>
        <time>2021-08-04T09:25:48Z</time>
      </trkpt>
      <trkpt lat="48.25754" lon="7.33097">
        <ele>415.3</ele>
        <time>2021-08-04T09:25:49Z</time>
      </trkpt>
      <trkpt lat="48.25755" lon="7.33094">
        <ele>415.4</ele>
        <time>2021-08-04T09:25:51Z</time>
      </trkpt>
      <trkpt lat="48.25755" lon="7.33094">
        <ele>415.4</ele>
        <time>2021-08-04T09:25:52Z</time>
      </trkpt>
      <trkpt lat="48.25755" lon="7.33095">
        <ele>415.5</ele>
        <time>2021-08-04T09:25:53Z</time>
      </trkpt>
      <trkpt lat="48.25755" lon="7.33095">
        <ele>415.5</ele>
        <time>2021-08-04T09:25:55Z</time>
      </trkpt>
      <trkpt lat="48.25755" lon="7.33095">
        <ele>415.5</ele>
        <time>2021-08-04T09:25:56Z</time>
      </trkpt>
      <trkpt lat="48.25755" lon="7.33095">
        <ele>415.5</ele>
        <time>2021-08-04T09:25:58Z</time>
      </trkpt>
      <trkpt lat="48.25755" lon="7.33095">
        <ele>415.5</ele>
        <time>2021-08-04T09:25:59Z</time>
      </trkpt>
      <trkpt lat="48.25747" lon="7.33055">
        <ele>417.2</ele>
        <time>2021-08-04T09:27:24Z</time>
      </trkpt>
      <trkpt lat="48.25745" lon="7.33051">
        <ele>417.5</ele>
        <time>2021-08-04T09:27:25Z</time>
      </trkpt>
      <trkpt lat="48.25743" lon="7.33048">
        <ele>417.7</ele>
        <time>2021-08-04T09:27:27Z</time>
      </trkpt>
      <trkpt lat="48.2574" lon="7.33045">
        <ele>417.9</ele>
        <time>2021-08-04T09:27:28Z</time>
      </trkpt>
      <trkpt lat="48.25737" lon="7.33042">
        <ele>418.1</ele>
        <time>2021-08-04T09:27:29Z</time>
      </trkpt>
      <trkpt lat="48.25735" lon="7.33041">
        <ele>418.2</ele>
        <time>2021-08-04T09:27:31Z</time>
      </trkpt>
      <trkpt lat="48.25734" lon="7.33039">
        <ele>418.3</ele>
        <time>2021-08-04T09:27:32Z</time>
      </trkpt>
      <trkpt lat="48.25732" lon="7.33036">
        <ele>418.5</ele>
        <time>2021-08-04T09:27:34Z</time>
      </trkpt>
      <trkpt lat="48.2573" lon="7.33033">
        <ele>418.7</ele>
        <time>2021-08-04T09:27:35Z</time>
      </trkpt>
      <trkpt lat="48.2573" lon="7.33031">
        <ele>418.8</ele>
        <time>2021-08-04T09:27:36Z</time>
      </trkpt>
      <trkpt lat="48.25728" lon="7.33028">
        <ele>419</ele>
        <time>2021-08-04T09:27:37Z</time>
      </trkpt>
      <trkpt lat="48.25727" lon="7.33027">
        <ele>419.1</ele>
        <time>2021-08-04T09:27:38Z</time>
      </trkpt>
      <trkpt lat="48.25725" lon="7.33024">
        <ele>419.3</ele>
        <time>2021-08-04T09:27:40Z</time>
      </trkpt>
      <trkpt lat="48.25724" lon="7.33024">
        <ele>419.3</ele>
        <time>2021-08-04T09:27:41Z</time>
      </trkpt>
      <trkpt lat="48.25722" lon="7.33021">
        <ele>419.5</ele>
        <time>2021-08-04T09:27:42Z</time>
      </trkpt>
      <trkpt lat="48.25721" lon="7.3302">
        <ele>419.6</ele>
        <time>2021-08-04T09:27:43Z</time>
      </trkpt>
      <trkpt lat="48.2572" lon="7.33019">
        <ele>419.7</ele>
        <time>2021-08-04T09:27:45Z</time>
      </trkpt>
      <trkpt lat="48.25719" lon="7.3302">
        <ele>419.8</ele>
        <time>2021-08-04T09:27:46Z</time>
      </trkpt>
      <trkpt lat="48.25718" lon="7.33019">
        <ele>419.9</ele>
        <time>2021-08-04T09:27:47Z</time>
      </trkpt>
      <trkpt lat="48.25716" lon="7.33018">
        <ele>420.1</ele>
        <time>2021-08-04T09:27:48Z</time>
      </trkpt>
      <trkpt lat="48.25715" lon="7.33017">
        <ele>420.1</ele>
        <time>2021-08-04T09:27:49Z</time>
      </trkpt>
      <trkpt lat="48.25714" lon="7.33015">
        <ele>420.2</ele>
        <time>2021-08-04T09:27:51Z</time>
      </trkpt>
      <trkpt lat="48.25713" lon="7.33014">
        <ele>420.3</ele>
        <time>2021-08-04T09:27:52Z</time>
      </trkpt>
      <trkpt lat="48.25712" lon="7.33014">
        <ele>420.4</ele>
        <time>2021-08-04T09:27:53Z</time>
      </trkpt>
      <trkpt lat="48.25711" lon="7.33013">
        <ele>420.5</ele>
        <time>2021-08-04T09:27:55Z</time>
      </trkpt>
      <trkpt lat="48.2571" lon="7.33013">
        <ele>420.6</ele>
        <time>2021-08-04T09:27:56Z</time>
      </trkpt>
      <trkpt lat="48.25708" lon="7.33012">
        <ele>420.8</ele>
        <time>2021-08-04T09:27:58Z</time>
      </trkpt>
      <trkpt lat="48.25696" lon="7.33009">
        <ele>421.7</ele>
        <time>2021-08-04T09:28:06Z</time>
      </trkpt>
      <trkpt lat="48.25692" lon="7.33008">
        <ele>421.9</ele>
        <time>2021-08-04T09:28:07Z</time>
      </trkpt>
      <trkpt lat="48.25688" lon="7.33006">
        <ele>422.2</ele>
        <time>2021-08-04T09:28:08Z</time>
      </trkpt>
      <trkpt lat="48.25687" lon="7.33006">
        <ele>422.3</ele>
        <time>2021-08-04T09:28:09Z</time>
      </trkpt>
      <trkpt lat="48.25685" lon="7.33004">
        <ele>422.4</ele>
        <time>2021-08-04T09:28:10Z</time>
      </trkpt>
      <trkpt lat="48.25684" lon="7.33003">
        <ele>422.5</ele>
        <time>2021-08-04T09:28:11Z</time>
      </trkpt>
      <trkpt lat="48.25683" lon="7.33002">
        <ele>422.6</ele>
        <time>2021-08-04T09:28:12Z</time>
      </trkpt>
      <trkpt lat="48.25681" lon="7.33">
        <ele>422.7</ele>
        <time>2021-08-04T09:28:14Z</time>
      </trkpt>
      <trkpt lat="48.25679" lon="7.32999">
        <ele>422.9</ele>
        <time>2021-08-04T09:28:15Z</time>
      </trkpt>
      <trkpt lat="48.2568" lon="7.32999">
        <ele>422.9</ele>
        <time>2021-08-04T09:28:17Z</time>
      </trkpt>
      <trkpt lat="48.25679" lon="7.32998">
        <ele>423</ele>
        <time>2021-08-04T09:28:18Z</time>
      </trkpt>
      <trkpt lat="48.25675" lon="7.32997">
        <ele>423.2</ele>
        <time>2021-08-04T09:28:19Z</time>
      </trkpt>
      <trkpt lat="48.25674" lon="7.32997">
        <ele>423.3</ele>
        <time>2021-08-04T09:28:20Z</time>
      </trkpt>
      <trkpt lat="48.25672" lon="7.32995">
        <ele>423.5</ele>
        <time>2021-08-04T09:28:22Z</time>
      </trkpt>
      <trkpt lat="48.25671" lon="7.32994">
        <ele>423.5</ele>
        <time>2021-08-04T09:28:23Z</time>
      </trkpt>
      <trkpt lat="48.25669" lon="7.32994">
        <ele>423.6</ele>
        <time>2021-08-04T09:28:24Z</time>
      </trkpt>
      <trkpt lat="48.25668" lon="7.32994">
        <ele>423.7</ele>
        <time>2021-08-04T09:28:25Z</time>
      </trkpt>
      <trkpt lat="48.25667" lon="7.32994">
        <ele>423.8</ele>
        <time>2021-08-04T09:28:27Z</time>
      </trkpt>
      <trkpt lat="48.25665" lon="7.32994">
        <ele>423.9</ele>
        <time>2021-08-04T09:28:29Z</time>
      </trkpt>
      <trkpt lat="48.25664" lon="7.32994">
        <ele>424</ele>
        <time>2021-08-04T09:28:30Z</time>
      </trkpt>
      <trkpt lat="48.25662" lon="7.32993">
        <ele>424.1</ele>
        <time>2021-08-04T09:28:31Z</time>
      </trkpt>
      <trkpt lat="48.25661" lon="7.32993">
        <ele>424.2</ele>
        <time>2021-08-04T09:28:32Z</time>
      </trkpt>
      <trkpt lat="48.25613" lon="7.32961">
        <ele>427.6</ele>
        <time>2021-08-04T09:29:12Z</time>
      </trkpt>
      <trkpt lat="48.2561" lon="7.3296">
        <ele>427.7</ele>
        <time>2021-08-04T09:29:13Z</time>
      </trkpt>
      <trkpt lat="48.25608" lon="7.3296">
        <ele>427.8</ele>
        <time>2021-08-04T09:29:14Z</time>
      </trkpt>
      <trkpt lat="48.25607" lon="7.3296">
        <ele>427.9</ele>
        <time>2021-08-04T09:29:15Z</time>
      </trkpt>
      <trkpt lat="48.25605" lon="7.3296">
        <ele>428.1</ele>
        <time>2021-08-04T09:29:16Z</time>
      </trkpt>
      <trkpt lat="48.25604" lon="7.3296">
        <ele>428.1</ele>
        <time>2021-08-04T09:29:17Z</time>
      </trkpt>
      <trkpt lat="48.25603" lon="7.3296">
        <ele>428.2</ele>
        <time>2021-08-04T09:29:19Z</time>
      </trkpt>
      <trkpt lat="48.25602" lon="7.3296">
        <ele>428.2</ele>
        <time>2021-08-04T09:29:21Z</time>
      </trkpt>
      <trkpt lat="48.25601" lon="7.3296">
        <ele>428.3</ele>
        <time>2021-08-04T09:29:22Z</time>
      </trkpt>
      <trkpt lat="48.25601" lon="7.32961">
        <ele>428.3</ele>
        <time>2021-08-04T09:29:24Z</time>
      </trkpt>
      <trkpt lat="48.256" lon="7.32961">
        <ele>428.4</ele>
        <time>2021-08-04T09:29:25Z</time>
      </trkpt>
      <trkpt lat="48.25597" lon="7.32961">
        <ele>428.5</ele>
        <time>2021-08-04T09:29:26Z</time>
      </trkpt>
      <trkpt lat="48.25596" lon="7.32961">
        <ele>428.6</ele>
        <time>2021-08-04T09:29:28Z</time>
      </trkpt>
      <trkpt lat="48.25596" lon="7.32961">
        <ele>428.6</ele>
        <time>2021-08-04T09:29:29Z</time>
      </trkpt>
      <trkpt lat="48.25594" lon="7.32961">
        <ele>428.8</ele>
        <time>2021-08-04T09:29:30Z</time>
      </trkpt>
      <trkpt lat="48.25592" lon="7.32963">
        <ele>428.9</ele>
        <time>2021-08-04T09:29:32Z</time>
      </trkpt>
      <trkpt lat="48.25591" lon="7.32963">
        <ele>429</ele>
        <time>2021-08-04T09:29:33Z</time>
      </trkpt>
      <trkpt lat="48.2559" lon="7.32963">
        <ele>429</ele>
        <time>2021-08-04T09:29:34Z</time>
      </trkpt>
      <trkpt lat="48.25586" lon="7.32964">
        <ele>429.3</ele>
        <time>2021-08-04T09:29:36Z</time>
      </trkpt>
      <trkpt lat="48.25581" lon="7.32965">
        <ele>429.6</ele>
        <time>2021-08-04T09:29:37Z</time>
      </trkpt>
      <trkpt lat="48.25578" lon="7.32967">
        <ele>429.9</ele>
        <time>2021-08-04T09:29:39Z</time>
      </trkpt>
      <trkpt lat="48.25575" lon="7.32969">
        <ele>430.1</ele>
        <time>2021-08-04T09:29:41Z</time>
      </trkpt>
      <trkpt lat="48.25574" lon="7.3297">
        <ele>430.2</ele>
        <time>2021-08-04T09:29:42Z</time>
      </trkpt>
      <trkpt lat="48.2557" lon="7.32972">
        <ele>430.5</ele>
        <time>2021-08-04T09:29:43Z</time>
      </trkpt>
      <trkpt lat="48.25569" lon="7.32973">
        <ele>430.6</ele>
        <time>2021-08-04T09:29:45Z</time>
      </trkpt>
      <trkpt lat="48.25567" lon="7.32975">
        <ele>430.7</ele>
        <time>2021-08-04T09:29:46Z</time>
      </trkpt>
      <trkpt lat="48.25567" lon="7.32976">
        <ele>430.8</ele>
        <time>2021-08-04T09:29:47Z</time>
      </trkpt>
      <trkpt lat="48.25565" lon="7.32977">
        <ele>430.9</ele>
        <time>2021-08-04T09:29:48Z</time>
      </trkpt>
      <trkpt lat="48.25564" lon="7.32979">
        <ele>431.1</ele>
        <time>2021-08-04T09:29:50Z</time>
      </trkpt>
      <trkpt lat="48.25562" lon="7.3298">
        <ele>431.2</ele>
        <time>2021-08-04T09:29:51Z</time>
      </trkpt>
      <trkpt lat="48.25561" lon="7.32981">
        <ele>431.3</ele>
        <time>2021-08-04T09:29:52Z</time>
      </trkpt>
      <trkpt lat="48.2556" lon="7.32982">
        <ele>431.4</ele>
        <time>2021-08-04T09:29:53Z</time>
      </trkpt>
      <trkpt lat="48.25559" lon="7.32983">
        <ele>431.6</ele>
        <time>2021-08-04T09:29:55Z</time>
      </trkpt>
      <trkpt lat="48.25557" lon="7.32984">
        <ele>431.7</ele>
        <time>2021-08-04T09:29:56Z</time>
      </trkpt>
      <trkpt lat="48.25556" lon="7.32985">
        <ele>431.8</ele>
        <time>2021-08-04T09:29:57Z</time>
      </trkpt>
      <trkpt lat="48.25554" lon="7.32985">
        <ele>431.9</ele>
        <time>2021-08-04T09:29:59Z</time>
      </trkpt>
      <trkpt lat="48.25553" lon="7.32986">
        <ele>432.1</ele>
        <time>2021-08-04T09:30:00Z</time>
      </trkpt>
      <trkpt lat="48.25552" lon="7.32986">
        <ele>432.1</ele>
        <time>2021-08-04T09:30:01Z</time>
      </trkpt>
      <trkpt lat="48.25551" lon="7.32987">
        <ele>432.2</ele>
        <time>2021-08-04T09:30:03Z</time>
      </trkpt>
      <trkpt lat="48.2555" lon="7.32988">
        <ele>432.3</ele>
        <time>2021-08-04T09:30:04Z</time>
      </trkpt>
      <trkpt lat="48.25549" lon="7.32989">
        <ele>432.4</ele>
        <time>2021-08-04T09:30:06Z</time>
      </trkpt>
      <trkpt lat="48.25548" lon="7.3299">
        <ele>432.5</ele>
        <time>2021-08-04T09:30:07Z</time>
      </trkpt>
      <trkpt lat="48.25547" lon="7.32991">
        <ele>432.6</ele>
        <time>2021-08-04T09:30:08Z</time>
      </trkpt>
      <trkpt lat="48.25545" lon="7.32994">
        <ele>432.8</ele>
        <time>2021-08-04T09:30:10Z</time>
      </trkpt>
      <trkpt lat="48.25471" lon="7.33076">
        <ele>439.9</ele>
        <time>2021-08-04T09:31:48Z</time>
      </trkpt>
      <trkpt lat="48.25469" lon="7.3308">
        <ele>440.2</ele>
        <time>2021-08-04T09:31:50Z</time>
      </trkpt>
      <trkpt lat="48.25468" lon="7.33082">
        <ele>440.3</ele>
        <time>2021-08-04T09:31:51Z</time>
      </trkpt>
      <trkpt lat="48.25467" lon="7.33087">
        <ele>440.6</ele>
        <time>2021-08-04T09:31:52Z</time>
      </trkpt>
      <trkpt lat="48.25466" lon="7.3309">
        <ele>440.7</ele>
        <time>2021-08-04T09:31:53Z</time>
      </trkpt>
      <trkpt lat="48.25465" lon="7.33095">
        <ele>441</ele>
        <time>2021-08-04T09:31:55Z</time>
      </trkpt>
      <trkpt lat="48.25463" lon="7.33098">
        <ele>441.2</ele>
        <time>2021-08-04T09:31:56Z</time>
      </trkpt>
      <trkpt lat="48.25461" lon="7.33103">
        <ele>441.4</ele>
        <time>2021-08-04T09:31:58Z</time>
      </trkpt>
      <trkpt lat="48.2546" lon="7.33106">
        <ele>441.6</ele>
        <time>2021-08-04T09:31:59Z</time>
      </trkpt>
      <trkpt lat="48.25459" lon="7.33112">
        <ele>441.8</ele>
        <time>2021-08-04T09:32:01Z</time>
      </trkpt>
      <trkpt lat="48.25458" lon="7.33113">
        <ele>441.9</ele>
        <time>2021-08-04T09:32:02Z</time>
      </trkpt>
      <trkpt lat="48.25458" lon="7.33114">
        <ele>442</ele>
        <time>2021-08-04T09:32:03Z</time>
      </trkpt>
      <trkpt lat="48.25456" lon="7.33117">
        <ele>442.2</ele>
        <time>2021-08-04T09:32:05Z</time>
      </trkpt>
      <trkpt lat="48.25454" lon="7.33121">
        <ele>442.3</ele>
        <time>2021-08-04T09:32:06Z</time>
      </trkpt>
      <trkpt lat="48.25451" lon="7.33125">
        <ele>442.6</ele>
        <time>2021-08-04T09:32:07Z</time>
      </trkpt>
      <trkpt lat="48.2545" lon="7.33126">
        <ele>442.7</ele>
        <time>2021-08-04T09:32:09Z</time>
      </trkpt>
      <trkpt lat="48.25449" lon="7.33127">
        <ele>442.8</ele>
        <time>2021-08-04T09:32:11Z</time>
      </trkpt>
      <trkpt lat="48.25448" lon="7.33127">
        <ele>442.8</ele>
        <time>2021-08-04T09:32:12Z</time>
      </trkpt>
      <trkpt lat="48.25448" lon="7.33128">
        <ele>442.9</ele>
        <time>2021-08-04T09:32:13Z</time>
      </trkpt>
      <trkpt lat="48.25448" lon="7.33129">
        <ele>442.9</ele>
        <time>2021-08-04T09:32:14Z</time>
      </trkpt>
      <trkpt lat="48.25447" lon="7.33131">
        <ele>443</ele>
        <time>2021-08-04T09:32:15Z</time>
      </trkpt>
      <trkpt lat="48.25446" lon="7.33135">
        <ele>443.2</ele>
        <time>2021-08-04T09:32:17Z</time>
      </trkpt>
      <trkpt lat="48.25445" lon="7.33136">
        <ele>443.2</ele>
        <time>2021-08-04T09:32:18Z</time>
      </trkpt>
      <trkpt lat="48.25443" lon="7.33141">
        <ele>443.5</ele>
        <time>2021-08-04T09:32:20Z</time>
      </trkpt>
      <trkpt lat="48.25441" lon="7.33144">
        <ele>443.6</ele>
        <time>2021-08-04T09:32:21Z</time>
      </trkpt>
      <trkpt lat="48.25439" lon="7.33148">
        <ele>443.8</ele>
        <time>2021-08-04T09:32:23Z</time>
      </trkpt>
      <trkpt lat="48.25437" lon="7.33152">
        <ele>444.1</ele>
        <time>2021-08-04T09:32:24Z</time>
      </trkpt>
      <trkpt lat="48.25436" lon="7.33156">
        <ele>444.2</ele>
        <time>2021-08-04T09:32:26Z</time>
      </trkpt>
      <trkpt lat="48.25436" lon="7.33158">
        <ele>444.3</ele>
        <time>2021-08-04T09:32:27Z</time>
      </trkpt>
      <trkpt lat="48.25436" lon="7.3316">
        <ele>444.4</ele>
        <time>2021-08-04T09:32:28Z</time>
      </trkpt>
      <trkpt lat="48.25436" lon="7.33165">
        <ele>444.6</ele>
        <time>2021-08-04T09:32:30Z</time>
      </trkpt>
      <trkpt lat="48.25436" lon="7.33166">
        <ele>444.6</ele>
        <time>2021-08-04T09:32:31Z</time>
      </trkpt>
      <trkpt lat="48.25436" lon="7.33167">
        <ele>444.7</ele>
        <time>2021-08-04T09:32:32Z</time>
      </trkpt>
      <trkpt lat="48.25436" lon="7.33167">
        <ele>444.7</ele>
        <time>2021-08-04T09:32:33Z</time>
      </trkpt>
      <trkpt lat="48.25437" lon="7.33168">
        <ele>444.7</ele>
        <time>2021-08-04T09:32:34Z</time>
      </trkpt>
      <trkpt lat="48.25437" lon="7.33169">
        <ele>444.7</ele>
        <time>2021-08-04T09:32:36Z</time>
      </trkpt>
      <trkpt lat="48.25438" lon="7.33171">
        <ele>444.8</ele>
        <time>2021-08-04T09:32:38Z</time>
      </trkpt>
      <trkpt lat="48.25438" lon="7.33172">
        <ele>444.9</ele>
        <time>2021-08-04T09:32:39Z</time>
      </trkpt>
      <trkpt lat="48.25438" lon="7.33173">
        <ele>444.9</ele>
        <time>2021-08-04T09:32:40Z</time>
      </trkpt>
      <trkpt lat="48.25439" lon="7.33174">
        <ele>445</ele>
        <time>2021-08-04T09:32:41Z</time>
      </trkpt>
      <trkpt lat="48.2544" lon="7.33177">
        <ele>445.1</ele>
        <time>2021-08-04T09:32:42Z</time>
      </trkpt>
      <trkpt lat="48.2544" lon="7.3318">
        <ele>445.3</ele>
        <time>2021-08-04T09:32:44Z</time>
      </trkpt>
      <trkpt lat="48.2544" lon="7.33182">
        <ele>445.3</ele>
        <time>2021-08-04T09:32:45Z</time>
      </trkpt>
      <trkpt lat="48.2544" lon="7.33184">
        <ele>445.4</ele>
        <time>2021-08-04T09:32:46Z</time>
      </trkpt>
      <trkpt lat="48.2544" lon="7.33186">
        <ele>445.5</ele>
        <time>2021-08-04T09:32:48Z</time>
      </trkpt>
      <trkpt lat="48.2544" lon="7.33187">
        <ele>445.5</ele>
        <time>2021-08-04T09:32:49Z</time>
      </trkpt>
      <trkpt lat="48.25442" lon="7.33194">
        <ele>445.8</ele>
        <time>2021-08-04T09:32:50Z</time>
      </trkpt>
      <trkpt lat="48.25444" lon="7.33201">
        <ele>446.1</ele>
        <time>2021-08-04T09:32:52Z</time>
      </trkpt>
      <trkpt lat="48.25446" lon="7.33208">
        <ele>446.3</ele>
        <time>2021-08-04T09:32:53Z</time>
      </trkpt>
      <trkpt lat="48.25448" lon="7.33214">
        <ele>446.6</ele>
        <time>2021-08-04T09:32:54Z</time>
      </trkpt>
      <trkpt lat="48.25449" lon="7.33221">
        <ele>446.9</ele>
        <time>2021-08-04T09:32:56Z</time>
      </trkpt>
      <trkpt lat="48.25451" lon="7.33228">
        <ele>447.2</ele>
        <time>2021-08-04T09:32:58Z</time>
      </trkpt>
      <trkpt lat="48.25453" lon="7.33234">
        <ele>447.4</ele>
        <time>2021-08-04T09:33:32Z</time>
      </trkpt>
      <trkpt lat="48.25455" lon="7.33241">
        <ele>447.7</ele>
        <time>2021-08-04T09:33:33Z</time>
      </trkpt>
      <trkpt lat="48.25457" lon="7.33248">
        <ele>447.9</ele>
        <time>2021-08-04T09:33:34Z</time>
      </trkpt>
      <trkpt lat="48.25457" lon="7.33249">
        <ele>448</ele>
        <time>2021-08-04T09:33:36Z</time>
      </trkpt>
      <trkpt lat="48.25457" lon="7.33251">
        <ele>448</ele>
        <time>2021-08-04T09:33:37Z</time>
      </trkpt>
      <trkpt lat="48.25456" lon="7.33252">
        <ele>448.1</ele>
        <time>2021-08-04T09:33:38Z</time>
      </trkpt>
      <trkpt lat="48.25453" lon="7.33255">
        <ele>448.3</ele>
        <time>2021-08-04T09:33:39Z</time>
      </trkpt>
      <trkpt lat="48.25451" lon="7.33257">
        <ele>448.4</ele>
        <time>2021-08-04T09:33:40Z</time>
      </trkpt>
      <trkpt lat="48.2545" lon="7.33259">
        <ele>448.5</ele>
        <time>2021-08-04T09:33:42Z</time>
      </trkpt>
      <trkpt lat="48.2545" lon="7.3326">
        <ele>448.5</ele>
        <time>2021-08-04T09:33:43Z</time>
      </trkpt>
      <trkpt lat="48.2545" lon="7.3326">
        <ele>448.5</ele>
        <time>2021-08-04T09:33:44Z</time>
      </trkpt>
      <trkpt lat="48.2545" lon="7.3326">
        <ele>448.6</ele>
        <time>2021-08-04T09:33:45Z</time>
      </trkpt>
      <trkpt lat="48.25451" lon="7.33261">
        <ele>448.6</ele>
        <time>2021-08-04T09:33:47Z</time>
      </trkpt>
      <trkpt lat="48.25451" lon="7.33261">
        <ele>448.6</ele>
        <time>2021-08-04T09:33:48Z</time>
      </trkpt>
      <trkpt lat="48.25451" lon="7.33261">
        <ele>448.6</ele>
        <time>2021-08-04T09:33:49Z</time>
      </trkpt>
      <trkpt lat="48.25451" lon="7.33261">
        <ele>448.6</ele>
        <time>2021-08-04T09:33:50Z</time>
      </trkpt>
      <trkpt lat="48.25451" lon="7.33261">
        <ele>448.6</ele>
        <time>2021-08-04T09:33:51Z</time>
      </trkpt>
      <trkpt lat="48.25452" lon="7.33262">
        <ele>448.7</ele>
        <time>2021-08-04T09:33:53Z</time>
      </trkpt>
      <trkpt lat="48.25456" lon="7.333">
        <ele>449.9</ele>
        <time>2021-08-04T09:34:07Z</time>
      </trkpt>
      <trkpt lat="48.25455" lon="7.33304">
        <ele>450</ele>
        <time>2021-08-04T09:34:08Z</time>
      </trkpt>
      <trkpt lat="48.25455" lon="7.33308">
        <ele>450.1</ele>
        <time>2021-08-04T09:34:10Z</time>
      </trkpt>
      <trkpt lat="48.25455" lon="7.33311">
        <ele>450.2</ele>
        <time>2021-08-04T09:34:12Z</time>
      </trkpt>
      <trkpt lat="48.25455" lon="7.33312">
        <ele>450.2</ele>
        <time>2021-08-04T09:34:13Z</time>
      </trkpt>
      <trkpt lat="48.25457" lon="7.33314">
        <ele>450.3</ele>
        <time>2021-08-04T09:34:15Z</time>
      </trkpt>
      <trkpt lat="48.25458" lon="7.33315">
        <ele>450.3</ele>
        <time>2021-08-04T09:34:16Z</time>
      </trkpt>
      <trkpt lat="48.25459" lon="7.33317">
        <ele>450.4</ele>
        <time>2021-08-04T09:34:18Z</time>
      </trkpt>
      <trkpt lat="48.2546" lon="7.33319">
        <ele>450.5</ele>
        <time>2021-08-04T09:34:19Z</time>
      </trkpt>
      <trkpt lat="48.2546" lon="7.33321">
        <ele>450.5</ele>
        <time>2021-08-04T09:34:20Z</time>
      </trkpt>
      <trkpt lat="48.25462" lon="7.33326">
        <ele>450.6</ele>
        <time>2021-08-04T09:34:22Z</time>
      </trkpt>
      <trkpt lat="48.25462" lon="7.3333">
        <ele>450.7</ele>
        <time>2021-08-04T09:34:24Z</time>
      </trkpt>
      <trkpt lat="48.25462" lon="7.33332">
        <ele>450.8</ele>
        <time>2021-08-04T09:34:26Z</time>
      </trkpt>
      <trkpt lat="48.25462" lon="7.33333">
        <ele>450.8</ele>
        <time>2021-08-04T09:34:27Z</time>
      </trkpt>
      <trkpt lat="48.25463" lon="7.33335">
        <ele>450.9</ele>
        <time>2021-08-04T09:34:28Z</time>
      </trkpt>
      <trkpt lat="48.25463" lon="7.33336">
        <ele>450.9</ele>
        <time>2021-08-04T09:34:29Z</time>
      </trkpt>
      <trkpt lat="48.25463" lon="7.33339">
        <ele>451</ele>
        <time>2021-08-04T09:34:31Z</time>
      </trkpt>
      <trkpt lat="48.25463" lon="7.33342">
        <ele>451.1</ele>
        <time>2021-08-04T09:34:33Z</time>
      </trkpt>
      <trkpt lat="48.25463" lon="7.33345">
        <ele>451.1</ele>
        <time>2021-08-04T09:34:34Z</time>
      </trkpt>
      <trkpt lat="48.25463" lon="7.33347">
        <ele>451.2</ele>
        <time>2021-08-04T09:34:35Z</time>
      </trkpt>
      <trkpt lat="48.25463" lon="7.3335">
        <ele>451.3</ele>
        <time>2021-08-04T09:34:37Z</time>
      </trkpt>
      <trkpt lat="48.25463" lon="7.33352">
        <ele>451.3</ele>
        <time>2021-08-04T09:34:38Z</time>
      </trkpt>
      <trkpt lat="48.25463" lon="7.33353">
        <ele>451.3</ele>
        <time>2021-08-04T09:34:39Z</time>
      </trkpt>
      <trkpt lat="48.25463" lon="7.33356">
        <ele>451.4</ele>
        <time>2021-08-04T09:34:40Z</time>
      </trkpt>
      <trkpt lat="48.25463" lon="7.33358">
        <ele>451.5</ele>
        <time>2021-08-04T09:34:41Z</time>
      </trkpt>
      <trkpt lat="48.25462" lon="7.33361">
        <ele>451.5</ele>
        <time>2021-08-04T09:34:43Z</time>
      </trkpt>
      <trkpt lat="48.25462" lon="7.33362">
        <ele>451.6</ele>
        <time>2021-08-04T09:34:44Z</time>
      </trkpt>
      <trkpt lat="48.25462" lon="7.33363">
        <ele>451.6</ele>
        <time>2021-08-04T09:34:45Z</time>
      </trkpt>
      <trkpt lat="48.25462" lon="7.33368">
        <ele>451.7</ele>
        <time>2021-08-04T09:34:47Z</time>
      </trkpt>
      <trkpt lat="48.25461" lon="7.33369">
        <ele>451.8</ele>
        <time>2021-08-04T09:34:48Z</time>
      </trkpt>
      <trkpt lat="48.25461" lon="7.33374">
        <ele>451.9</ele>
        <time>2021-08-04T09:34:50Z</time>
      </trkpt>
      <trkpt lat="48.2546" lon="7.33375">
        <ele>451.9</ele>
        <time>2021-08-04T09:34:51Z</time>
      </trkpt>
      <trkpt lat="48.2546" lon="7.33377">
        <ele>452</ele>
        <time>2021-08-04T09:34:52Z</time>
      </trkpt>
      <trkpt lat="48.25459" lon="7.33379">
        <ele>452</ele>
        <time>2021-08-04T09:34:53Z</time>
      </trkpt>
      <trkpt lat="48.25459" lon="7.33382">
        <ele>452.1</ele>
        <time>2021-08-04T09:34:55Z</time>
      </trkpt>
      <trkpt lat="48.25459" lon="7.33384">
        <ele>452.2</ele>
        <time>2021-08-04T09:34:56Z</time>
      </trkpt>
      <trkpt lat="48.25459" lon="7.33385">
        <ele>452.2</ele>
        <time>2021-08-04T09:34:57Z</time>
      </trkpt>
      <trkpt lat="48.25459" lon="7.33387">
        <ele>452.3</ele>
        <time>2021-08-04T09:34:58Z</time>
      </trkpt>
      <trkpt lat="48.25459" lon="7.33389">
        <ele>452.3</ele>
        <time>2021-08-04T09:34:59Z</time>
      </trkpt>
      <trkpt lat="48.25459" lon="7.3339">
        <ele>452.3</ele>
        <time>2021-08-04T09:35:01Z</time>
      </trkpt>
      <trkpt lat="48.25459" lon="7.33391">
        <ele>452.4</ele>
        <time>2021-08-04T09:35:02Z</time>
      </trkpt>
      <trkpt lat="48.25459" lon="7.33392">
        <ele>452.4</ele>
        <time>2021-08-04T09:35:03Z</time>
      </trkpt>
      <trkpt lat="48.25459" lon="7.33394">
        <ele>452.4</ele>
        <time>2021-08-04T09:35:04Z</time>
      </trkpt>
      <trkpt lat="48.25459" lon="7.33399">
        <ele>452.6</ele>
        <time>2021-08-04T09:35:06Z</time>
      </trkpt>
      <trkpt lat="48.25459" lon="7.334">
        <ele>452.6</ele>
        <time>2021-08-04T09:35:07Z</time>
      </trkpt>
      <trkpt lat="48.25459" lon="7.33403">
        <ele>452.7</ele>
        <time>2021-08-04T09:35:08Z</time>
      </trkpt>
      <trkpt lat="48.25459" lon="7.33405">
        <ele>452.7</ele>
        <time>2021-08-04T09:35:09Z</time>
      </trkpt>
      <trkpt lat="48.25458" lon="7.33407">
        <ele>452.8</ele>
        <time>2021-08-04T09:35:10Z</time>
      </trkpt>
      <trkpt lat="48.25458" lon="7.33409">
        <ele>452.8</ele>
        <time>2021-08-04T09:35:12Z</time>
      </trkpt>
      <trkpt lat="48.25458" lon="7.33412">
        <ele>452.9</ele>
        <time>2021-08-04T09:35:13Z</time>
      </trkpt>
      <trkpt lat="48.25458" lon="7.33413">
        <ele>452.9</ele>
        <time>2021-08-04T09:35:14Z</time>
      </trkpt>
      <trkpt lat="48.25458" lon="7.33414">
        <ele>453</ele>
        <time>2021-08-04T09:35:15Z</time>
      </trkpt>
      <trkpt lat="48.25458" lon="7.33415">
        <ele>453</ele>
        <time>2021-08-04T09:35:17Z</time>
      </trkpt>
      <trkpt lat="48.25458" lon="7.33417">
        <ele>453</ele>
        <time>2021-08-04T09:35:18Z</time>
      </trkpt>
      <trkpt lat="48.25459" lon="7.33419">
        <ele>453.1</ele>
        <time>2021-08-04T09:35:19Z</time>
      </trkpt>
      <trkpt lat="48.25459" lon="7.33421">
        <ele>453.2</ele>
        <time>2021-08-04T09:35:20Z</time>
      </trkpt>
      <trkpt lat="48.2546" lon="7.33423">
        <ele>453.2</ele>
        <time>2021-08-04T09:35:21Z</time>
      </trkpt>
      <trkpt lat="48.2546" lon="7.33425">
        <ele>453.3</ele>
        <time>2021-08-04T09:35:23Z</time>
      </trkpt>
      <trkpt lat="48.25461" lon="7.33429">
        <ele>453.4</ele>
        <time>2021-08-04T09:35:24Z</time>
      </trkpt>
      <trkpt lat="48.25461" lon="7.3343">
        <ele>453.4</ele>
        <time>2021-08-04T09:35:25Z</time>
      </trkpt>
      <trkpt lat="48.25461" lon="7.33432">
        <ele>453.5</ele>
        <time>2021-08-04T09:35:26Z</time>
      </trkpt>
      <trkpt lat="48.25461" lon="7.33434">
        <ele>453.5</ele>
        <time>2021-08-04T09:35:28Z</time>
      </trkpt>
      <trkpt lat="48.2546" lon="7.33436">
        <ele>453.6</ele>
        <time>2021-08-04T09:35:29Z</time>
      </trkpt>
      <trkpt lat="48.2546" lon="7.3344">
        <ele>453.7</ele>
        <time>2021-08-04T09:35:30Z</time>
      </trkpt>
      <trkpt lat="48.2546" lon="7.33441">
        <ele>453.7</ele>
        <time>2021-08-04T09:35:31Z</time>
      </trkpt>
      <trkpt lat="48.25459" lon="7.33443">
        <ele>453.8</ele>
        <time>2021-08-04T09:35:32Z</time>
      </trkpt>
      <trkpt lat="48.25459" lon="7.33445">
        <ele>453.8</ele>
        <time>2021-08-04T09:35:34Z</time>
      </trkpt>
      <trkpt lat="48.25459" lon="7.33446">
        <ele>453.9</ele>
        <time>2021-08-04T09:35:35Z</time>
      </trkpt>
      <trkpt lat="48.25458" lon="7.33447">
        <ele>453.9</ele>
        <time>2021-08-04T09:35:36Z</time>
      </trkpt>
      <trkpt lat="48.25457" lon="7.33449">
        <ele>454</ele>
        <time>2021-08-04T09:35:37Z</time>
      </trkpt>
      <trkpt lat="48.25456" lon="7.3345">
        <ele>454</ele>
        <time>2021-08-04T09:35:39Z</time>
      </trkpt>
      <trkpt lat="48.25455" lon="7.33451">
        <ele>454.1</ele>
        <time>2021-08-04T09:35:40Z</time>
      </trkpt>
      <trkpt lat="48.25453" lon="7.33453">
        <ele>454.2</ele>
        <time>2021-08-04T09:35:41Z</time>
      </trkpt>
      <trkpt lat="48.25452" lon="7.33455">
        <ele>454.2</ele>
        <time>2021-08-04T09:35:42Z</time>
      </trkpt>
      <trkpt lat="48.25451" lon="7.33456">
        <ele>454.3</ele>
        <time>2021-08-04T09:35:44Z</time>
      </trkpt>
      <trkpt lat="48.25449" lon="7.33458">
        <ele>454.4</ele>
        <time>2021-08-04T09:35:45Z</time>
      </trkpt>
      <trkpt lat="48.25447" lon="7.33461">
        <ele>454.5</ele>
        <time>2021-08-04T09:35:46Z</time>
      </trkpt>
      <trkpt lat="48.25447" lon="7.33462">
        <ele>454.5</ele>
        <time>2021-08-04T09:35:47Z</time>
      </trkpt>
      <trkpt lat="48.25446" lon="7.33463">
        <ele>454.6</ele>
        <time>2021-08-04T09:35:48Z</time>
      </trkpt>
      <trkpt lat="48.25445" lon="7.33464">
        <ele>454.6</ele>
        <time>2021-08-04T09:35:50Z</time>
      </trkpt>
      <trkpt lat="48.25445" lon="7.33465">
        <ele>454.6</ele>
        <time>2021-08-04T09:35:51Z</time>
      </trkpt>
      <trkpt lat="48.25445" lon="7.33466">
        <ele>454.7</ele>
        <time>2021-08-04T09:35:52Z</time>
      </trkpt>
      <trkpt lat="48.25444" lon="7.33468">
        <ele>454.7</ele>
        <time>2021-08-04T09:35:53Z</time>
      </trkpt>
      <trkpt lat="48.25444" lon="7.3347">
        <ele>454.8</ele>
        <time>2021-08-04T09:35:54Z</time>
      </trkpt>
      <trkpt lat="48.25445" lon="7.33472">
        <ele>454.8</ele>
        <time>2021-08-04T09:35:55Z</time>
      </trkpt>
      <trkpt lat="48.25446" lon="7.33473">
        <ele>454.9</ele>
        <time>2021-08-04T09:35:57Z</time>
      </trkpt>
      <trkpt lat="48.25447" lon="7.33475">
        <ele>455</ele>
        <time>2021-08-04T09:35:58Z</time>
      </trkpt>
      <trkpt lat="48.25447" lon="7.33477">
        <ele>455</ele>
        <time>2021-08-04T09:35:59Z</time>
      </trkpt>
      <trkpt lat="48.25448" lon="7.33478">
        <ele>455.1</ele>
        <time>2021-08-04T09:36:00Z</time>
      </trkpt>
      <trkpt lat="48.25449" lon="7.33479">
        <ele>455.1</ele>
        <time>2021-08-04T09:36:01Z</time>
      </trkpt>
      <trkpt lat="48.2545" lon="7.33479">
        <ele>455.2</ele>
        <time>2021-08-04T09:36:03Z</time>
      </trkpt>
      <trkpt lat="48.25451" lon="7.3348">
        <ele>455.2</ele>
        <time>2021-08-04T09:36:04Z</time>
      </trkpt>
      <trkpt lat="48.25452" lon="7.33481">
        <ele>455.3</ele>
        <time>2021-08-04T09:36:05Z</time>
      </trkpt>
      <trkpt lat="48.25454" lon="7.33482">
        <ele>455.4</ele>
        <time>2021-08-04T09:36:07Z</time>
      </trkpt>
      <trkpt lat="48.25455" lon="7.33483">
        <ele>455.4</ele>
        <time>2021-08-04T09:36:08Z</time>
      </trkpt>
      <trkpt lat="48.25456" lon="7.33484">
        <ele>455.5</ele>
        <time>2021-08-04T09:36:09Z</time>
      </trkpt>
      <trkpt lat="48.25456" lon="7.33487">
        <ele>455.5</ele>
        <time>2021-08-04T09:36:11Z</time>
      </trkpt>
      <trkpt lat="48.25456" lon="7.33491">
        <ele>455.7</ele>
        <time>2021-08-04T09:36:12Z</time>
      </trkpt>
      <trkpt lat="48.25456" lon="7.33494">
        <ele>455.8</ele>
        <time>2021-08-04T09:36:14Z</time>
      </trkpt>
      <trkpt lat="48.25456" lon="7.33498">
        <ele>455.9</ele>
        <time>2021-08-04T09:36:16Z</time>
      </trkpt>
      <trkpt lat="48.25456" lon="7.33501">
        <ele>456</ele>
        <time>2021-08-04T09:36:18Z</time>
      </trkpt>
      <trkpt lat="48.25455" lon="7.33502">
        <ele>456.1</ele>
        <time>2021-08-04T09:36:19Z</time>
      </trkpt>
      <trkpt lat="48.25455" lon="7.33504">
        <ele>456.1</ele>
        <time>2021-08-04T09:36:21Z</time>
      </trkpt>
      <trkpt lat="48.25455" lon="7.33505">
        <ele>456.2</ele>
        <time>2021-08-04T09:36:22Z</time>
      </trkpt>
      <trkpt lat="48.25455" lon="7.33507">
        <ele>456.2</ele>
        <time>2021-08-04T09:36:23Z</time>
      </trkpt>
      <trkpt lat="48.25456" lon="7.33513">
        <ele>456.4</ele>
        <time>2021-08-04T09:36:25Z</time>
      </trkpt>
      <trkpt lat="48.25456" lon="7.33514">
        <ele>456.5</ele>
        <time>2021-08-04T09:36:26Z</time>
      </trkpt>
      <trkpt lat="48.25457" lon="7.33519">
        <ele>456.6</ele>
        <time>2021-08-04T09:36:27Z</time>
      </trkpt>
      <trkpt lat="48.25457" lon="7.33524">
        <ele>456.8</ele>
        <time>2021-08-04T09:36:28Z</time>
      </trkpt>
      <trkpt lat="48.25457" lon="7.33526">
        <ele>456.8</ele>
        <time>2021-08-04T09:36:30Z</time>
      </trkpt>
      <trkpt lat="48.25457" lon="7.33527">
        <ele>456.9</ele>
        <time>2021-08-04T09:36:31Z</time>
      </trkpt>
      <trkpt lat="48.25458" lon="7.33529">
        <ele>456.9</ele>
        <time>2021-08-04T09:36:32Z</time>
      </trkpt>
      <trkpt lat="48.25458" lon="7.33531">
        <ele>457</ele>
        <time>2021-08-04T09:36:33Z</time>
      </trkpt>
      <trkpt lat="48.25458" lon="7.33533">
        <ele>457</ele>
        <time>2021-08-04T09:36:34Z</time>
      </trkpt>
      <trkpt lat="48.25458" lon="7.33537">
        <ele>457.2</ele>
        <time>2021-08-04T09:36:35Z</time>
      </trkpt>
      <trkpt lat="48.25458" lon="7.33539">
        <ele>457.2</ele>
        <time>2021-08-04T09:36:36Z</time>
      </trkpt>
      <trkpt lat="48.25458" lon="7.33542">
        <ele>457.3</ele>
        <time>2021-08-04T09:36:38Z</time>
      </trkpt>
      <trkpt lat="48.25458" lon="7.33544">
        <ele>457.4</ele>
        <time>2021-08-04T09:36:39Z</time>
      </trkpt>
      <trkpt lat="48.25458" lon="7.33547">
        <ele>457.5</ele>
        <time>2021-08-04T09:36:40Z</time>
      </trkpt>
      <trkpt lat="48.25457" lon="7.33551">
        <ele>457.6</ele>
        <time>2021-08-04T09:36:42Z</time>
      </trkpt>
      <trkpt lat="48.25456" lon="7.33555">
        <ele>457.7</ele>
        <time>2021-08-04T09:36:43Z</time>
      </trkpt>
      <trkpt lat="48.25456" lon="7.33556">
        <ele>457.8</ele>
        <time>2021-08-04T09:36:44Z</time>
      </trkpt>
      <trkpt lat="48.25454" lon="7.3356">
        <ele>457.9</ele>
        <time>2021-08-04T09:36:46Z</time>
      </trkpt>
      <trkpt lat="48.25453" lon="7.33565">
        <ele>458.1</ele>
        <time>2021-08-04T09:36:47Z</time>
      </trkpt>
      <trkpt lat="48.25451" lon="7.33569">
        <ele>458.2</ele>
        <time>2021-08-04T09:36:48Z</time>
      </trkpt>
      <trkpt lat="48.25451" lon="7.33573">
        <ele>458.4</ele>
        <time>2021-08-04T09:36:50Z</time>
      </trkpt>
      <trkpt lat="48.2545" lon="7.33576">
        <ele>458.5</ele>
        <time>2021-08-04T09:36:51Z</time>
      </trkpt>
      <trkpt lat="48.2545" lon="7.33582">
        <ele>458.7</ele>
        <time>2021-08-04T09:36:53Z</time>
      </trkpt>
      <trkpt lat="48.2545" lon="7.33584">
        <ele>458.7</ele>
        <time>2021-08-04T09:36:54Z</time>
      </trkpt>
      <trkpt lat="48.2545" lon="7.33585">
        <ele>458.8</ele>
        <time>2021-08-04T09:36:55Z</time>
      </trkpt>
      <trkpt lat="48.25449" lon="7.33586">
        <ele>458.8</ele>
        <time>2021-08-04T09:36:56Z</time>
      </trkpt>
      <trkpt lat="48.25449" lon="7.33586">
        <ele>458.8</ele>
        <time>2021-08-04T09:36:57Z</time>
      </trkpt>
      <trkpt lat="48.25449" lon="7.33594">
        <ele>459.1</ele>
        <time>2021-08-04T09:36:59Z</time>
      </trkpt>
      <trkpt lat="48.25449" lon="7.336">
        <ele>459.3</ele>
        <time>2021-08-04T09:37:00Z</time>
      </trkpt>
      <trkpt lat="48.25449" lon="7.33607">
        <ele>459.5</ele>
        <time>2021-08-04T09:37:01Z</time>
      </trkpt>
      <trkpt lat="48.25449" lon="7.33614">
        <ele>459.7</ele>
        <time>2021-08-04T09:37:18Z</time>
      </trkpt>
      <trkpt lat="48.25449" lon="7.3362">
        <ele>459.9</ele>
        <time>2021-08-04T09:37:19Z</time>
      </trkpt>
      <trkpt lat="48.25448" lon="7.33627">
        <ele>460.1</ele>
        <time>2021-08-04T09:37:21Z</time>
      </trkpt>
      <trkpt lat="48.25447" lon="7.33632">
        <ele>460.3</ele>
        <time>2021-08-04T09:37:23Z</time>
      </trkpt>
      <trkpt lat="48.25446" lon="7.33636">
        <ele>460.4</ele>
        <time>2021-08-04T09:37:24Z</time>
      </trkpt>
      <trkpt lat="48.25446" lon="7.33639">
        <ele>460.5</ele>
        <time>2021-08-04T09:37:25Z</time>
      </trkpt>
      <trkpt lat="48.25445" lon="7.33644">
        <ele>460.6</ele>
        <time>2021-08-04T09:37:27Z</time>
      </trkpt>
      <trkpt lat="48.25445" lon="7.33647">
        <ele>460.7</ele>
        <time>2021-08-04T09:37:28Z</time>
      </trkpt>
      <trkpt lat="48.25444" lon="7.33649">
        <ele>460.7</ele>
        <time>2021-08-04T09:37:30Z</time>
      </trkpt>
      <trkpt lat="48.25445" lon="7.3365">
        <ele>460.7</ele>
        <time>2021-08-04T09:37:31Z</time>
      </trkpt>
      <trkpt lat="48.25445" lon="7.33651">
        <ele>460.8</ele>
        <time>2021-08-04T09:37:32Z</time>
      </trkpt>
      <trkpt lat="48.25445" lon="7.33652">
        <ele>460.8</ele>
        <time>2021-08-04T09:37:33Z</time>
      </trkpt>
      <trkpt lat="48.25445" lon="7.33653">
        <ele>460.8</ele>
        <time>2021-08-04T09:37:34Z</time>
      </trkpt>
      <trkpt lat="48.25445" lon="7.33655">
        <ele>460.9</ele>
        <time>2021-08-04T09:37:35Z</time>
      </trkpt>
      <trkpt lat="48.25444" lon="7.33656">
        <ele>460.9</ele>
        <time>2021-08-04T09:37:36Z</time>
      </trkpt>
      <trkpt lat="48.25444" lon="7.33657">
        <ele>460.9</ele>
        <time>2021-08-04T09:37:38Z</time>
      </trkpt>
      <trkpt lat="48.25444" lon="7.33719">
        <ele>462.2</ele>
        <time>2021-08-04T09:38:05Z</time>
      </trkpt>
      <trkpt lat="48.25443" lon="7.33725">
        <ele>462.4</ele>
        <time>2021-08-04T09:38:06Z</time>
      </trkpt>
      <trkpt lat="48.25442" lon="7.33733">
        <ele>462.6</ele>
        <time>2021-08-04T09:38:08Z</time>
      </trkpt>
      <trkpt lat="48.25441" lon="7.33737">
        <ele>462.7</ele>
        <time>2021-08-04T09:38:09Z</time>
      </trkpt>
      <trkpt lat="48.25441" lon="7.33744">
        <ele>462.8</ele>
        <time>2021-08-04T09:38:10Z</time>
      </trkpt>
      <trkpt lat="48.25441" lon="7.33746">
        <ele>462.8</ele>
        <time>2021-08-04T09:38:12Z</time>
      </trkpt>
      <trkpt lat="48.25441" lon="7.33747">
        <ele>462.9</ele>
        <time>2021-08-04T09:38:13Z</time>
      </trkpt>
      <trkpt lat="48.2544" lon="7.33747">
        <ele>462.9</ele>
        <time>2021-08-04T09:38:14Z</time>
      </trkpt>
      <trkpt lat="48.2544" lon="7.33748">
        <ele>462.9</ele>
        <time>2021-08-04T09:38:15Z</time>
      </trkpt>
      <trkpt lat="48.25441" lon="7.33749">
        <ele>462.9</ele>
        <time>2021-08-04T09:38:17Z</time>
      </trkpt>
      <trkpt lat="48.2544" lon="7.33751">
        <ele>463</ele>
        <time>2021-08-04T09:38:18Z</time>
      </trkpt>
      <trkpt lat="48.2544" lon="7.33754">
        <ele>463</ele>
        <time>2021-08-04T09:38:20Z</time>
      </trkpt>
      <trkpt lat="48.25441" lon="7.33773">
        <ele>463.5</ele>
        <time>2021-08-04T09:38:29Z</time>
      </trkpt>
      <trkpt lat="48.25442" lon="7.33782">
        <ele>463.7</ele>
        <time>2021-08-04T09:38:31Z</time>
      </trkpt>
      <trkpt lat="48.25443" lon="7.3379">
        <ele>463.8</ele>
        <time>2021-08-04T09:38:33Z</time>
      </trkpt>
      <trkpt lat="48.25443" lon="7.33794">
        <ele>463.9</ele>
        <time>2021-08-04T09:38:34Z</time>
      </trkpt>
      <trkpt lat="48.25443" lon="7.338">
        <ele>464</ele>
        <time>2021-08-04T09:38:35Z</time>
      </trkpt>
      <trkpt lat="48.25443" lon="7.33802">
        <ele>464.1</ele>
        <time>2021-08-04T09:38:36Z</time>
      </trkpt>
      <trkpt lat="48.25442" lon="7.33805">
        <ele>464.2</ele>
        <time>2021-08-04T09:38:38Z</time>
      </trkpt>
      <trkpt lat="48.25442" lon="7.33807">
        <ele>464.2</ele>
        <time>2021-08-04T09:38:39Z</time>
      </trkpt>
      <trkpt lat="48.2544" lon="7.33811">
        <ele>464.3</ele>
        <time>2021-08-04T09:38:40Z</time>
      </trkpt>
      <trkpt lat="48.2544" lon="7.33813">
        <ele>464.4</ele>
        <time>2021-08-04T09:38:41Z</time>
      </trkpt>
      <trkpt lat="48.25438" lon="7.33817">
        <ele>464.5</ele>
        <time>2021-08-04T09:38:42Z</time>
      </trkpt>
      <trkpt lat="48.25438" lon="7.33818">
        <ele>464.6</ele>
        <time>2021-08-04T09:38:43Z</time>
      </trkpt>
      <trkpt lat="48.25437" lon="7.33822">
        <ele>464.7</ele>
        <time>2021-08-04T09:38:44Z</time>
      </trkpt>
      <trkpt lat="48.25435" lon="7.33826">
        <ele>464.8</ele>
        <time>2021-08-04T09:38:46Z</time>
      </trkpt>
      <trkpt lat="48.25433" lon="7.3383">
        <ele>464.9</ele>
        <time>2021-08-04T09:38:47Z</time>
      </trkpt>
      <trkpt lat="48.25431" lon="7.33835">
        <ele>465.1</ele>
        <time>2021-08-04T09:38:49Z</time>
      </trkpt>
      <trkpt lat="48.25429" lon="7.3384">
        <ele>465.3</ele>
        <time>2021-08-04T09:38:50Z</time>
      </trkpt>
      <trkpt lat="48.25428" lon="7.33841">
        <ele>465.3</ele>
        <time>2021-08-04T09:38:51Z</time>
      </trkpt>
      <trkpt lat="48.25426" lon="7.33845">
        <ele>465.5</ele>
        <time>2021-08-04T09:38:52Z</time>
      </trkpt>
      <trkpt lat="48.25424" lon="7.33849">
        <ele>465.7</ele>
        <time>2021-08-04T09:38:53Z</time>
      </trkpt>
      <trkpt lat="48.25423" lon="7.3385">
        <ele>465.7</ele>
        <time>2021-08-04T09:38:54Z</time>
      </trkpt>
      <trkpt lat="48.25422" lon="7.33852">
        <ele>465.8</ele>
        <time>2021-08-04T09:38:55Z</time>
      </trkpt>
      <trkpt lat="48.25422" lon="7.33854">
        <ele>465.8</ele>
        <time>2021-08-04T09:38:56Z</time>
      </trkpt>
      <trkpt lat="48.25419" lon="7.33859">
        <ele>466</ele>
        <time>2021-08-04T09:38:58Z</time>
      </trkpt>
      <trkpt lat="48.25418" lon="7.3386">
        <ele>466</ele>
        <time>2021-08-04T09:38:59Z</time>
      </trkpt>
      <trkpt lat="48.25417" lon="7.33863">
        <ele>466.2</ele>
        <time>2021-08-04T09:39:01Z</time>
      </trkpt>
      <trkpt lat="48.25418" lon="7.33863">
        <ele>466.2</ele>
        <time>2021-08-04T09:39:02Z</time>
      </trkpt>
      <trkpt lat="48.25418" lon="7.33863">
        <ele>466.2</ele>
        <time>2021-08-04T09:39:04Z</time>
      </trkpt>
      <trkpt lat="48.25417" lon="7.33864">
        <ele>466.3</ele>
        <time>2021-08-04T09:39:05Z</time>
      </trkpt>
      <trkpt lat="48.25414" lon="7.33868">
        <ele>466.5</ele>
        <time>2021-08-04T09:39:06Z</time>
      </trkpt>
      <trkpt lat="48.25413" lon="7.33873">
        <ele>466.6</ele>
        <time>2021-08-04T09:39:08Z</time>
      </trkpt>
      <trkpt lat="48.25412" lon="7.33878">
        <ele>466.8</ele>
        <time>2021-08-04T09:39:09Z</time>
      </trkpt>
      <trkpt lat="48.2541" lon="7.33883">
        <ele>467</ele>
        <time>2021-08-04T09:39:10Z</time>
      </trkpt>
      <trkpt lat="48.25408" lon="7.33888">
        <ele>467.2</ele>
        <time>2021-08-04T09:39:12Z</time>
      </trkpt>
      <trkpt lat="48.25407" lon="7.33893">
        <ele>467.5</ele>
        <time>2021-08-04T09:39:13Z</time>
      </trkpt>
      <trkpt lat="48.25405" lon="7.33898">
        <ele>467.7</ele>
        <time>2021-08-04T09:39:14Z</time>
      </trkpt>
      <trkpt lat="48.25403" lon="7.33903">
        <ele>467.9</ele>
        <time>2021-08-04T09:39:15Z</time>
      </trkpt>
      <trkpt lat="48.25402" lon="7.33908">
        <ele>468.1</ele>
        <time>2021-08-04T09:39:41Z</time>
      </trkpt>
      <trkpt lat="48.254" lon="7.33914">
        <ele>468.4</ele>
        <time>2021-08-04T09:39:43Z</time>
      </trkpt>
      <trkpt lat="48.25398" lon="7.33919">
        <ele>468.6</ele>
        <time>2021-08-04T09:39:44Z</time>
      </trkpt>
      <trkpt lat="48.25397" lon="7.33924">
        <ele>468.9</ele>
        <time>2021-08-04T09:39:45Z</time>
      </trkpt>
      <trkpt lat="48.25395" lon="7.33929">
        <ele>474.4</ele>
        <time>2021-08-04T09:39:46Z</time>
      </trkpt>
      <trkpt lat="48.25392" lon="7.33933">
        <ele>475</ele>
        <time>2021-08-04T09:39:48Z</time>
      </trkpt>
      <trkpt lat="48.2539" lon="7.33937">
        <ele>475.5</ele>
        <time>2021-08-04T09:39:50Z</time>
      </trkpt>
      <trkpt lat="48.25389" lon="7.3394">
        <ele>475.7</ele>
        <time>2021-08-04T09:39:52Z</time>
      </trkpt>
      <trkpt lat="48.25389" lon="7.3394">
        <ele>475.8</ele>
        <time>2021-08-04T09:39:53Z</time>
      </trkpt>
      <trkpt lat="48.2539" lon="7.3394">
        <ele>475.8</ele>
        <time>2021-08-04T09:39:54Z</time>
      </trkpt>
      <trkpt lat="48.25391" lon="7.3394">
        <ele>475.9</ele>
        <time>2021-08-04T09:39:55Z</time>
      </trkpt>
      <trkpt lat="48.25391" lon="7.33941">
        <ele>476</ele>
        <time>2021-08-04T09:39:57Z</time>
      </trkpt>
      <trkpt lat="48.25392" lon="7.33941">
        <ele>476.1</ele>
        <time>2021-08-04T09:39:58Z</time>
      </trkpt>
      <trkpt lat="48.25392" lon="7.33941">
        <ele>476.1</ele>
        <time>2021-08-04T09:39:59Z</time>
      </trkpt>
      <trkpt lat="48.25392" lon="7.33942">
        <ele>476.2</ele>
        <time>2021-08-04T09:40:01Z</time>
      </trkpt>
      <trkpt lat="48.25392" lon="7.33942">
        <ele>476.2</ele>
        <time>2021-08-04T09:40:02Z</time>
      </trkpt>
      <trkpt lat="48.25308" lon="7.33576">
        <ele>506.9</ele>
        <time>2021-08-04T09:46:17Z</time>
      </trkpt>
      <trkpt lat="48.25305" lon="7.33575">
        <ele>507.2</ele>
        <time>2021-08-04T09:46:18Z</time>
      </trkpt>
      <trkpt lat="48.25303" lon="7.33574">
        <ele>507.4</ele>
        <time>2021-08-04T09:46:20Z</time>
      </trkpt>
      <trkpt lat="48.25302" lon="7.33573">
        <ele>507.5</ele>
        <time>2021-08-04T09:46:21Z</time>
      </trkpt>
      <trkpt lat="48.25302" lon="7.33572">
        <ele>507.6</ele>
        <time>2021-08-04T09:46:23Z</time>
      </trkpt>
      <trkpt lat="48.25301" lon="7.33571">
        <ele>507.6</ele>
        <time>2021-08-04T09:46:24Z</time>
      </trkpt>
      <trkpt lat="48.25301" lon="7.33571">
        <ele>507.7</ele>
        <time>2021-08-04T09:46:26Z</time>
      </trkpt>
      <trkpt lat="48.25301" lon="7.33569">
        <ele>507.8</ele>
        <time>2021-08-04T09:46:28Z</time>
      </trkpt>
      <trkpt lat="48.25191" lon="7.3342">
        <ele>525.1</ele>
        <time>2021-08-04T09:49:31Z</time>
      </trkpt>
      <trkpt lat="48.25191" lon="7.33421">
        <ele>525.2</ele>
        <time>2021-08-04T09:49:32Z</time>
      </trkpt>
      <trkpt lat="48.2519" lon="7.33422">
        <ele>525.3</ele>
        <time>2021-08-04T09:49:34Z</time>
      </trkpt>
      <trkpt lat="48.25189" lon="7.33422">
        <ele>525.4</ele>
        <time>2021-08-04T09:49:35Z</time>
      </trkpt>
      <trkpt lat="48.25189" lon="7.33423">
        <ele>525.5</ele>
        <time>2021-08-04T09:49:37Z</time>
      </trkpt>
      <trkpt lat="48.25188" lon="7.33423">
        <ele>525.6</ele>
        <time>2021-08-04T09:49:39Z</time>
      </trkpt>
      <trkpt lat="48.25188" lon="7.33423">
        <ele>525.6</ele>
        <time>2021-08-04T09:49:40Z</time>
      </trkpt>
      <trkpt lat="48.25187" lon="7.33424">
        <ele>525.7</ele>
        <time>2021-08-04T09:49:41Z</time>
      </trkpt>
      <trkpt lat="48.25186" lon="7.33423">
        <ele>525.9</ele>
        <time>2021-08-04T09:49:43Z</time>
      </trkpt>
      <trkpt lat="48.25087" lon="7.33327">
        <ele>542.3</ele>
        <time>2021-08-04T09:59:55Z</time>
      </trkpt>
      <trkpt lat="48.25085" lon="7.33321">
        <ele>542.3</ele>
        <time>2021-08-04T09:59:56Z</time>
      </trkpt>
      <trkpt lat="48.25082" lon="7.33314">
        <ele>542.3</ele>
        <time>2021-08-04T09:59:57Z</time>
      </trkpt>
      <trkpt lat="48.25079" lon="7.3331">
        <ele>542.3</ele>
        <time>2021-08-04T09:59:58Z</time>
      </trkpt>
      <trkpt lat="48.25076" lon="7.33306">
        <ele>542.4</ele>
        <time>2021-08-04T09:59:59Z</time>
      </trkpt>
      <trkpt lat="48.25073" lon="7.33302">
        <ele>542.6</ele>
        <time>2021-08-04T10:00:01Z</time>
      </trkpt>
      <trkpt lat="48.25071" lon="7.333">
        <ele>542.7</ele>
        <time>2021-08-04T10:00:02Z</time>
      </trkpt>
      <trkpt lat="48.25068" lon="7.33296">
        <ele>543</ele>
        <time>2021-08-04T10:00:04Z</time>
      </trkpt>
      <trkpt lat="48.25068" lon="7.33296">
        <ele>543</ele>
        <time>2021-08-04T10:00:05Z</time>
      </trkpt>
      <trkpt lat="48.25068" lon="7.33295">
        <ele>543</ele>
        <time>2021-08-04T10:00:07Z</time>
      </trkpt>
      <trkpt lat="48.25068" lon="7.33293">
        <ele>543.1</ele>
        <time>2021-08-04T10:00:08Z</time>
      </trkpt>
      <trkpt lat="48.25068" lon="7.3329">
        <ele>543.3</ele>
        <time>2021-08-04T10:00:10Z</time>
      </trkpt>
      <trkpt lat="48.25067" lon="7.33288">
        <ele>543.4</ele>
        <time>2021-08-04T10:00:11Z</time>
      </trkpt>
      <trkpt lat="48.25067" lon="7.33287">
        <ele>543.5</ele>
        <time>2021-08-04T10:00:12Z</time>
      </trkpt>
      <trkpt lat="48.25067" lon="7.33285">
        <ele>543.5</ele>
        <time>2021-08-04T10:00:13Z</time>
      </trkpt>
      <trkpt lat="48.25067" lon="7.33283">
        <ele>543.7</ele>
        <time>2021-08-04T10:00:15Z</time>
      </trkpt>
      <trkpt lat="48.25066" lon="7.3328">
        <ele>543.8</ele>
        <time>2021-08-04T10:00:16Z</time>
      </trkpt>
      <trkpt lat="48.25066" lon="7.33279">
        <ele>543.9</ele>
        <time>2021-08-04T10:00:17Z</time>
      </trkpt>
      <trkpt lat="48.25065" lon="7.33277">
        <ele>544</ele>
        <time>2021-08-04T10:00:19Z</time>
      </trkpt>
      <trkpt lat="48.25026" lon="7.33182">
        <ele>550.7</ele>
        <time>2021-08-04T10:01:32Z</time>
      </trkpt>
      <trkpt lat="48.25023" lon="7.33179">
        <ele>551</ele>
        <time>2021-08-04T10:01:34Z</time>
      </trkpt>
      <trkpt lat="48.25022" lon="7.33178">
        <ele>551.1</ele>
        <time>2021-08-04T10:01:35Z</time>
      </trkpt>
      <trkpt lat="48.25021" lon="7.33177">
        <ele>551.3</ele>
        <time>2021-08-04T10:01:36Z</time>
      </trkpt>
      <trkpt lat="48.25019" lon="7.33176">
        <ele>551.5</ele>
        <time>2021-08-04T10:01:38Z</time>
      </trkpt>
      <trkpt lat="48.25019" lon="7.33175">
        <ele>551.6</ele>
        <time>2021-08-04T10:01:40Z</time>
      </trkpt>
      <trkpt lat="48.25018" lon="7.33175">
        <ele>551.7</ele>
        <time>2021-08-04T10:01:41Z</time>
      </trkpt>
      <trkpt lat="48.25018" lon="7.33175">
        <ele>551.7</ele>
        <time>2021-08-04T10:01:42Z</time>
      </trkpt>
      <trkpt lat="48.25018" lon="7.33174">
        <ele>551.7</ele>
        <time>2021-08-04T10:01:44Z</time>
      </trkpt>
      <trkpt lat="48.25017" lon="7.33174">
        <ele>551.8</ele>
        <time>2021-08-04T10:01:46Z</time>
      </trkpt>
      <trkpt lat="48.24882" lon="7.33171">
        <ele>568.7</ele>
        <time>2021-08-04T10:04:56Z</time>
      </trkpt>
      <trkpt lat="48.24878" lon="7.33173">
        <ele>569.2</ele>
        <time>2021-08-04T10:04:58Z</time>
      </trkpt>
      <trkpt lat="48.24875" lon="7.33173">
        <ele>569.5</ele>
        <time>2021-08-04T10:05:00Z</time>
      </trkpt>
      <trkpt lat="48.24875" lon="7.33174">
        <ele>569.6</ele>
        <time>2021-08-04T10:05:01Z</time>
      </trkpt>
      <trkpt lat="48.24874" lon="7.33174">
        <ele>569.7</ele>
        <time>2021-08-04T10:05:02Z</time>
      </trkpt>
      <trkpt lat="48.24873" lon="7.33175">
        <ele>569.8</ele>
        <time>2021-08-04T10:05:04Z</time>
      </trkpt>
      <trkpt lat="48.24872" lon="7.33176">
        <ele>569.9</ele>
        <time>2021-08-04T10:05:06Z</time>
      </trkpt>
      <trkpt lat="48.24872" lon="7.33177">
        <ele>570</ele>
        <time>2021-08-04T10:05:07Z</time>
      </trkpt>
      <trkpt lat="48.24871" lon="7.33177">
        <ele>570</ele>
        <time>2021-08-04T10:05:08Z</time>
      </trkpt>
      <trkpt lat="48.24871" lon="7.33178">
        <ele>570.1</ele>
        <time>2021-08-04T10:05:10Z</time>
      </trkpt>
      <trkpt lat="48.24871" lon="7.33179">
        <ele>570.2</ele>
        <time>2021-08-04T10:05:11Z</time>
      </trkpt>
      <trkpt lat="48.24871" lon="7.3318">
        <ele>570.3</ele>
        <time>2021-08-04T10:05:12Z</time>
      </trkpt>
      <trkpt lat="48.2487" lon="7.33181">
        <ele>570.4</ele>
        <time>2021-08-04T10:05:13Z</time>
      </trkpt>
      <trkpt lat="48.2487" lon="7.33182">
        <ele>570.5</ele>
        <time>2021-08-04T10:05:15Z</time>
      </trkpt>
      <trkpt lat="48.2487" lon="7.33183">
        <ele>570.5</ele>
        <time>2021-08-04T10:05:16Z</time>
      </trkpt>
      <trkpt lat="48.2487" lon="7.33184">
        <ele>570.6</ele>
        <time>2021-08-04T10:05:18Z</time>
      </trkpt>
      <trkpt lat="48.2487" lon="7.33185">
        <ele>570.7</ele>
        <time>2021-08-04T10:05:19Z</time>
      </trkpt>
      <trkpt lat="48.2487" lon="7.33185">
        <ele>570.7</ele>
        <time>2021-08-04T10:05:21Z</time>
      </trkpt>
      <trkpt lat="48.2487" lon="7.33186">
        <ele>570.7</ele>
        <time>2021-08-04T10:05:22Z</time>
      </trkpt>
      <trkpt lat="48.2487" lon="7.33186">
        <ele>570.8</ele>
        <time>2021-08-04T10:05:24Z</time>
      </trkpt>
      <trkpt lat="48.24869" lon="7.33186">
        <ele>570.8</ele>
        <time>2021-08-04T10:05:25Z</time>
      </trkpt>
      <trkpt lat="48.24869" lon="7.33186">
        <ele>570.8</ele>
        <time>2021-08-04T10:05:26Z</time>
      </trkpt>
      <trkpt lat="48.24869" lon="7.33186">
        <ele>570.8</ele>
        <time>2021-08-04T10:05:28Z</time>
      </trkpt>
      <trkpt lat="48.24869" lon="7.33187">
        <ele>570.8</ele>
        <time>2021-08-04T10:05:29Z</time>
      </trkpt>
      <trkpt lat="48.24869" lon="7.33187">
        <ele>570.8</ele>
        <time>2021-08-04T10:05:31Z</time>
      </trkpt>
      <trkpt lat="48.24869" lon="7.33187">
        <ele>570.8</ele>
        <time>2021-08-04T10:05:32Z</time>
      </trkpt>
      <trkpt lat="48.24869" lon="7.33187">
        <ele>570.9</ele>
        <time>2021-08-04T10:05:34Z</time>
      </trkpt>
      <trkpt lat="48.24869" lon="7.33187">
        <ele>570.9</ele>
        <time>2021-08-04T10:05:35Z</time>
      </trkpt>
      <trkpt lat="48.24869" lon="7.33187">
        <ele>570.9</ele>
        <time>2021-08-04T10:05:37Z</time>
      </trkpt>
      <trkpt lat="48.24869" lon="7.33187">
        <ele>570.9</ele>
        <time>2021-08-04T10:05:38Z</time>
      </trkpt>
      <trkpt lat="48.24867" lon="7.33187">
        <ele>571.2</ele>
        <time>2021-08-04T10:05:39Z</time>
      </trkpt>
      <trkpt lat="48.24863" lon="7.33188">
        <ele>571.6</ele>
        <time>2021-08-04T10:05:41Z</time>
      </trkpt>
      <trkpt lat="48.24859" lon="7.33187">
        <ele>572.1</ele>
        <time>2021-08-04T10:05:43Z</time>
      </trkpt>
      <trkpt lat="48.24857" lon="7.33187">
        <ele>572.4</ele>
        <time>2021-08-04T10:05:44Z</time>
      </trkpt>
      <trkpt lat="48.24854" lon="7.33187">
        <ele>572.7</ele>
        <time>2021-08-04T10:05:46Z</time>
      </trkpt>
      <trkpt lat="48.2485" lon="7.33187">
        <ele>573.2</ele>
        <time>2021-08-04T10:05:47Z</time>
      </trkpt>
      <trkpt lat="48.24848" lon="7.33187">
        <ele>573.4</ele>
        <time>2021-08-04T10:05:48Z</time>
      </trkpt>
      <trkpt lat="48.24845" lon="7.33186">
        <ele>573.8</ele>
        <time>2021-08-04T10:05:50Z</time>
      </trkpt>
      <trkpt lat="48.24844" lon="7.33186">
        <ele>573.9</ele>
        <time>2021-08-04T10:05:51Z</time>
      </trkpt>
      <trkpt lat="48.24841" lon="7.33185">
        <ele>574.4</ele>
        <time>2021-08-04T10:05:53Z</time>
      </trkpt>
      <trkpt lat="48.24837" lon="7.33183">
        <ele>574.8</ele>
        <time>2021-08-04T10:05:54Z</time>
      </trkpt>
      <trkpt lat="48.24836" lon="7.33183">
        <ele>575</ele>
        <time>2021-08-04T10:05:55Z</time>
      </trkpt>
      <trkpt lat="48.24835" lon="7.33182">
        <ele>575.3</ele>
        <time>2021-08-04T10:05:57Z</time>
      </trkpt>
      <trkpt lat="48.24833" lon="7.33181">
        <ele>575.5</ele>
        <time>2021-08-04T10:05:58Z</time>
      </trkpt>
      <trkpt lat="48.24832" lon="7.3318">
        <ele>575.6</ele>
        <time>2021-08-04T10:06:00Z</time>
      </trkpt>
      <trkpt lat="48.24832" lon="7.33179">
        <ele>575.7</ele>
        <time>2021-08-04T10:06:02Z</time>
      </trkpt>
      <trkpt lat="48.24831" lon="7.33178">
        <ele>575.8</ele>
        <time>2021-08-04T10:06:03Z</time>
      </trkpt>
      <trkpt lat="48.24831" lon="7.33178">
        <ele>575.9</ele>
        <time>2021-08-04T10:06:05Z</time>
      </trkpt>
      <trkpt lat="48.24831" lon="7.33177">
        <ele>575.9</ele>
        <time>2021-08-04T10:06:06Z</time>
      </trkpt>
      <trkpt lat="48.24831" lon="7.33177">
        <ele>575.9</ele>
        <time>2021-08-04T10:06:08Z</time>
      </trkpt>
      <trkpt lat="48.2483" lon="7.33177">
        <ele>576.1</ele>
        <time>2021-08-04T10:06:09Z</time>
      </trkpt>
      <trkpt lat="48.24828" lon="7.33176">
        <ele>576.3</ele>
        <time>2021-08-04T10:06:10Z</time>
      </trkpt>
      <trkpt lat="48.24826" lon="7.33176">
        <ele>576.6</ele>
        <time>2021-08-04T10:06:11Z</time>
      </trkpt>
      <trkpt lat="48.24823" lon="7.33175">
        <ele>577</ele>
        <time>2021-08-04T10:06:13Z</time>
      </trkpt>
      <trkpt lat="48.24822" lon="7.33174">
        <ele>577.2</ele>
        <time>2021-08-04T10:06:14Z</time>
      </trkpt>
      <trkpt lat="48.24821" lon="7.33174">
        <ele>577.2</ele>
        <time>2021-08-04T10:06:15Z</time>
      </trkpt>
      <trkpt lat="48.24821" lon="7.33174">
        <ele>577.3</ele>
        <time>2021-08-04T10:06:17Z</time>
      </trkpt>
      <trkpt lat="48.2482" lon="7.33174">
        <ele>577.3</ele>
        <time>2021-08-04T10:06:18Z</time>
      </trkpt>
      <trkpt lat="48.2482" lon="7.33174">
        <ele>577.4</ele>
        <time>2021-08-04T10:06:20Z</time>
      </trkpt>
      <trkpt lat="48.24819" lon="7.33173">
        <ele>577.6</ele>
        <time>2021-08-04T10:06:21Z</time>
      </trkpt>
      <trkpt lat="48.24818" lon="7.33172">
        <ele>577.8</ele>
        <time>2021-08-04T10:06:22Z</time>
      </trkpt>
      <trkpt lat="48.24817" lon="7.3317">
        <ele>577.9</ele>
        <time>2021-08-04T10:06:24Z</time>
      </trkpt>
      <trkpt lat="48.24816" lon="7.33169">
        <ele>578.1</ele>
        <time>2021-08-04T10:06:26Z</time>
      </trkpt>
      <trkpt lat="48.24815" lon="7.33169">
        <ele>578.1</ele>
        <time>2021-08-04T10:06:27Z</time>
      </trkpt>
      <trkpt lat="48.24815" lon="7.33168">
        <ele>578.2</ele>
        <time>2021-08-04T10:06:29Z</time>
      </trkpt>
      <trkpt lat="48.24815" lon="7.33168">
        <ele>578.2</ele>
        <time>2021-08-04T10:06:30Z</time>
      </trkpt>
      <trkpt lat="48.24814" lon="7.33167">
        <ele>578.3</ele>
        <time>2021-08-04T10:06:32Z</time>
      </trkpt>
      <trkpt lat="48.24814" lon="7.33167">
        <ele>578.4</ele>
        <time>2021-08-04T10:06:33Z</time>
      </trkpt>
      <trkpt lat="48.24812" lon="7.33166">
        <ele>578.6</ele>
        <time>2021-08-04T10:06:35Z</time>
      </trkpt>
      <trkpt lat="48.24811" lon="7.33166">
        <ele>578.7</ele>
        <time>2021-08-04T10:06:36Z</time>
      </trkpt>
      <trkpt lat="48.24811" lon="7.33166">
        <ele>578.8</ele>
        <time>2021-08-04T10:06:37Z</time>
      </trkpt>
      <trkpt lat="48.2481" lon="7.33165">
        <ele>578.9</ele>
        <time>2021-08-04T10:06:38Z</time>
      </trkpt>
      <trkpt lat="48.2481" lon="7.33165">
        <ele>579</ele>
        <time>2021-08-04T10:06:39Z</time>
      </trkpt>
      <trkpt lat="48.24809" lon="7.33165">
        <ele>579</ele>
        <time>2021-08-04T10:06:41Z</time>
      </trkpt>
      <trkpt lat="48.24809" lon="7.33165">
        <ele>579</ele>
        <time>2021-08-04T10:06:42Z</time>
      </trkpt>
      <trkpt lat="48.24809" lon="7.33165">
        <ele>579.1</ele>
        <time>2021-08-04T10:06:44Z</time>
      </trkpt>
      <trkpt lat="48.24809" lon="7.33164">
        <ele>579.1</ele>
        <time>2021-08-04T10:06:46Z</time>
      </trkpt>
      <trkpt lat="48.24809" lon="7.33164">
        <ele>579.1</ele>
        <time>2021-08-04T10:06:47Z</time>
      </trkpt>
      <trkpt lat="48.24809" lon="7.33164">
        <ele>579.1</ele>
        <time>2021-08-04T10:06:49Z</time>
      </trkpt>
      <trkpt lat="48.24809" lon="7.33164">
        <ele>579.2</ele>
        <time>2021-08-04T10:06:50Z</time>
      </trkpt>
      <trkpt lat="48.24808" lon="7.33164">
        <ele>579.2</ele>
        <time>2021-08-04T10:06:51Z</time>
      </trkpt>
      <trkpt lat="48.24808" lon="7.33164">
        <ele>579.3</ele>
        <time>2021-08-04T10:06:52Z</time>
      </trkpt>
      <trkpt lat="48.24806" lon="7.33163">
        <ele>579.6</ele>
        <time>2021-08-04T10:06:54Z</time>
      </trkpt>
      <trkpt lat="48.24804" lon="7.33162">
        <ele>579.9</ele>
        <time>2021-08-04T10:06:55Z</time>
      </trkpt>
      <trkpt lat="48.24802" lon="7.33161">
        <ele>580.2</ele>
        <time>2021-08-04T10:06:57Z</time>
      </trkpt>
      <trkpt lat="48.248" lon="7.3316">
        <ele>580.5</ele>
        <time>2021-08-04T10:06:58Z</time>
      </trkpt>
      <trkpt lat="48.248" lon="7.3316">
        <ele>580.6</ele>
        <time>2021-08-04T10:07:00Z</time>
      </trkpt>
      <trkpt lat="48.24799" lon="7.3316">
        <ele>580.7</ele>
        <time>2021-08-04T10:07:01Z</time>
      </trkpt>
      <trkpt lat="48.24798" lon="7.33159">
        <ele>580.8</ele>
        <time>2021-08-04T10:07:03Z</time>
      </trkpt>
      <trkpt lat="48.24798" lon="7.33159">
        <ele>581</ele>
        <time>2021-08-04T10:07:05Z</time>
      </trkpt>
      <trkpt lat="48.24797" lon="7.33158">
        <ele>581.1</ele>
        <time>2021-08-04T10:07:06Z</time>
      </trkpt>
      <trkpt lat="48.24796" lon="7.33158">
        <ele>581.2</ele>
        <time>2021-08-04T10:07:08Z</time>
      </trkpt>
      <trkpt lat="48.24795" lon="7.33158">
        <ele>581.4</ele>
        <time>2021-08-04T10:07:09Z</time>
      </trkpt>
      <trkpt lat="48.24795" lon="7.33157">
        <ele>581.5</ele>
        <time>2021-08-04T10:07:10Z</time>
      </trkpt>
      <trkpt lat="48.24791" lon="7.33157">
        <ele>582.1</ele>
        <time>2021-08-04T10:07:12Z</time>
      </trkpt>
      <trkpt lat="48.2479" lon="7.33157">
        <ele>582.3</ele>
        <time>2021-08-04T10:07:13Z</time>
      </trkpt>
      <trkpt lat="48.24788" lon="7.33156">
        <ele>582.6</ele>
        <time>2021-08-04T10:07:15Z</time>
      </trkpt>
      <trkpt lat="48.24787" lon="7.33156">
        <ele>582.9</ele>
        <time>2021-08-04T10:07:16Z</time>
      </trkpt>
      <trkpt lat="48.24785" lon="7.33156">
        <ele>583.1</ele>
        <time>2021-08-04T10:07:17Z</time>
      </trkpt>
      <trkpt lat="48.24782" lon="7.33154">
        <ele>583.6</ele>
        <time>2021-08-04T10:07:19Z</time>
      </trkpt>
      <trkpt lat="48.2478" lon="7.33152">
        <ele>583.9</ele>
        <time>2021-08-04T10:07:20Z</time>
      </trkpt>
      <trkpt lat="48.2478" lon="7.33151">
        <ele>584</ele>
        <time>2021-08-04T10:07:22Z</time>
      </trkpt>
      <trkpt lat="48.24779" lon="7.33151">
        <ele>584</ele>
        <time>2021-08-04T10:07:23Z</time>
      </trkpt>
      <trkpt lat="48.24777" lon="7.33149">
        <ele>584.3</ele>
        <time>2021-08-04T10:07:24Z</time>
      </trkpt>
      <trkpt lat="48.24776" lon="7.33149">
        <ele>584.4</ele>
        <time>2021-08-04T10:07:25Z</time>
      </trkpt>
      <trkpt lat="48.24775" lon="7.33148">
        <ele>584.6</ele>
        <time>2021-08-04T10:07:26Z</time>
      </trkpt>
      <trkpt lat="48.24772" lon="7.33146">
        <ele>584.9</ele>
        <time>2021-08-04T10:07:28Z</time>
      </trkpt>
      <trkpt lat="48.24772" lon="7.33145">
        <ele>584.9</ele>
        <time>2021-08-04T10:07:29Z</time>
      </trkpt>
      <trkpt lat="48.2477" lon="7.33144">
        <ele>585.1</ele>
        <time>2021-08-04T10:07:30Z</time>
      </trkpt>
      <trkpt lat="48.24769" lon="7.33144">
        <ele>585.2</ele>
        <time>2021-08-04T10:07:31Z</time>
      </trkpt>
      <trkpt lat="48.24768" lon="7.33143">
        <ele>585.3</ele>
        <time>2021-08-04T10:07:34Z</time>
      </trkpt>
      <trkpt lat="48.24768" lon="7.33143">
        <ele>585.4</ele>
        <time>2021-08-04T10:07:35Z</time>
      </trkpt>
      <trkpt lat="48.24767" lon="7.33143">
        <ele>585.4</ele>
        <time>2021-08-04T10:07:37Z</time>
      </trkpt>
      <trkpt lat="48.24767" lon="7.33143">
        <ele>585.5</ele>
        <time>2021-08-04T10:07:38Z</time>
      </trkpt>
      <trkpt lat="48.24767" lon="7.33143">
        <ele>585.5</ele>
        <time>2021-08-04T10:07:40Z</time>
      </trkpt>
      <trkpt lat="48.24766" lon="7.33143">
        <ele>585.5</ele>
        <time>2021-08-04T10:07:41Z</time>
      </trkpt>
      <trkpt lat="48.24766" lon="7.33143">
        <ele>585.5</ele>
        <time>2021-08-04T10:07:43Z</time>
      </trkpt>
      <trkpt lat="48.24766" lon="7.33143">
        <ele>585.5</ele>
        <time>2021-08-04T10:07:44Z</time>
      </trkpt>
      <trkpt lat="48.24766" lon="7.33142">
        <ele>585.6</ele>
        <time>2021-08-04T10:07:45Z</time>
      </trkpt>
      <trkpt lat="48.24765" lon="7.33141">
        <ele>585.7</ele>
        <time>2021-08-04T10:07:47Z</time>
      </trkpt>
      <trkpt lat="48.24765" lon="7.3314">
        <ele>585.8</ele>
        <time>2021-08-04T10:07:48Z</time>
      </trkpt>
      <trkpt lat="48.24764" lon="7.33138">
        <ele>586</ele>
        <time>2021-08-04T10:07:50Z</time>
      </trkpt>
      <trkpt lat="48.24763" lon="7.33137">
        <ele>586.1</ele>
        <time>2021-08-04T10:07:51Z</time>
      </trkpt>
      <trkpt lat="48.24762" lon="7.33136">
        <ele>586.2</ele>
        <time>2021-08-04T10:07:52Z</time>
      </trkpt>
      <trkpt lat="48.2476" lon="7.33135">
        <ele>586.5</ele>
        <time>2021-08-04T10:07:54Z</time>
      </trkpt>
      <trkpt lat="48.24759" lon="7.33133">
        <ele>586.7</ele>
        <time>2021-08-04T10:07:55Z</time>
      </trkpt>
      <trkpt lat="48.24756" lon="7.33132">
        <ele>587</ele>
        <time>2021-08-04T10:07:57Z</time>
      </trkpt>
      <trkpt lat="48.24755" lon="7.33131">
        <ele>587.3</ele>
        <time>2021-08-04T10:07:58Z</time>
      </trkpt>
      <trkpt lat="48.24753" lon="7.3313">
        <ele>587.5</ele>
        <time>2021-08-04T10:07:59Z</time>
      </trkpt>
      <trkpt lat="48.24751" lon="7.33131">
        <ele>587.8</ele>
        <time>2021-08-04T10:08:00Z</time>
      </trkpt>
      <trkpt lat="48.24749" lon="7.33131">
        <ele>588.2</ele>
        <time>2021-08-04T10:08:02Z</time>
      </trkpt>
      <trkpt lat="48.24746" lon="7.33131">
        <ele>588.6</ele>
        <time>2021-08-04T10:08:03Z</time>
      </trkpt>
      <trkpt lat="48.24744" lon="7.33131">
        <ele>588.8</ele>
        <time>2021-08-04T10:08:04Z</time>
      </trkpt>
      <trkpt lat="48.24743" lon="7.33131">
        <ele>589</ele>
        <time>2021-08-04T10:08:06Z</time>
      </trkpt>
      <trkpt lat="48.24742" lon="7.3313">
        <ele>589.2</ele>
        <time>2021-08-04T10:08:07Z</time>
      </trkpt>
      <trkpt lat="48.24741" lon="7.3313">
        <ele>589.3</ele>
        <time>2021-08-04T10:08:08Z</time>
      </trkpt>
      <trkpt lat="48.24741" lon="7.33129">
        <ele>589.4</ele>
        <time>2021-08-04T10:08:10Z</time>
      </trkpt>
      <trkpt lat="48.2474" lon="7.33129">
        <ele>589.4</ele>
        <time>2021-08-04T10:08:11Z</time>
      </trkpt>
      <trkpt lat="48.2474" lon="7.33129">
        <ele>589.4</ele>
        <time>2021-08-04T10:08:13Z</time>
      </trkpt>
      <trkpt lat="48.2474" lon="7.33129">
        <ele>589.5</ele>
        <time>2021-08-04T10:08:14Z</time>
      </trkpt>
      <trkpt lat="48.2474" lon="7.33129">
        <ele>589.5</ele>
        <time>2021-08-04T10:08:15Z</time>
      </trkpt>
      <trkpt lat="48.2474" lon="7.33129">
        <ele>589.5</ele>
        <time>2021-08-04T10:08:17Z</time>
      </trkpt>
      <trkpt lat="48.2474" lon="7.33129">
        <ele>589.5</ele>
        <time>2021-08-04T10:08:18Z</time>
      </trkpt>
      <trkpt lat="48.24739" lon="7.33129">
        <ele>589.6</ele>
        <time>2021-08-04T10:08:19Z</time>
      </trkpt>
      <trkpt lat="48.24739" lon="7.33129">
        <ele>589.6</ele>
        <time>2021-08-04T10:08:21Z</time>
      </trkpt>
      <trkpt lat="48.24739" lon="7.33129">
        <ele>589.6</ele>
        <time>2021-08-04T10:08:22Z</time>
      </trkpt>
      <trkpt lat="48.24739" lon="7.33129">
        <ele>589.6</ele>
        <time>2021-08-04T10:08:24Z</time>
      </trkpt>
      <trkpt lat="48.24739" lon="7.33129">
        <ele>589.6</ele>
        <time>2021-08-04T10:08:25Z</time>
      </trkpt>
      <trkpt lat="48.24738" lon="7.33127">
        <ele>589.8</ele>
        <time>2021-08-04T10:08:26Z</time>
      </trkpt>
      <trkpt lat="48.24737" lon="7.33124">
        <ele>590.1</ele>
        <time>2021-08-04T10:08:28Z</time>
      </trkpt>
      <trkpt lat="48.24736" lon="7.33121">
        <ele>590.4</ele>
        <time>2021-08-04T10:08:30Z</time>
      </trkpt>
      <trkpt lat="48.24735" lon="7.3312">
        <ele>590.5</ele>
        <time>2021-08-04T10:08:31Z</time>
      </trkpt>
      <trkpt lat="48.24734" lon="7.33119">
        <ele>590.7</ele>
        <time>2021-08-04T10:08:32Z</time>
      </trkpt>
      <trkpt lat="48.24734" lon="7.33117">
        <ele>590.8</ele>
        <time>2021-08-04T10:08:34Z</time>
      </trkpt>
      <trkpt lat="48.24733" lon="7.33117">
        <ele>590.8</ele>
        <time>2021-08-04T10:08:35Z</time>
      </trkpt>
      <trkpt lat="48.24733" lon="7.33116">
        <ele>590.9</ele>
        <time>2021-08-04T10:08:37Z</time>
      </trkpt>
      <trkpt lat="48.24732" lon="7.33116">
        <ele>591</ele>
        <time>2021-08-04T10:08:38Z</time>
      </trkpt>
      <trkpt lat="48.24729" lon="7.33115">
        <ele>591.4</ele>
        <time>2021-08-04T10:08:40Z</time>
      </trkpt>
      <trkpt lat="48.24726" lon="7.33114">
        <ele>591.6</ele>
        <time>2021-08-04T10:08:41Z</time>
      </trkpt>
      <trkpt lat="48.24723" lon="7.33114">
        <ele>592</ele>
        <time>2021-08-04T10:08:42Z</time>
      </trkpt>
      <trkpt lat="48.24721" lon="7.33113">
        <ele>592.1</ele>
        <time>2021-08-04T10:08:44Z</time>
      </trkpt>
      <trkpt lat="48.24719" lon="7.33113">
        <ele>592.3</ele>
        <time>2021-08-04T10:08:45Z</time>
      </trkpt>
      <trkpt lat="48.24718" lon="7.33113">
        <ele>592.4</ele>
        <time>2021-08-04T10:08:46Z</time>
      </trkpt>
      <trkpt lat="48.24715" lon="7.33112">
        <ele>592.7</ele>
        <time>2021-08-04T10:08:48Z</time>
      </trkpt>
      <trkpt lat="48.24712" lon="7.33111">
        <ele>593</ele>
        <time>2021-08-04T10:08:49Z</time>
      </trkpt>
      <trkpt lat="48.24709" lon="7.33111">
        <ele>593.3</ele>
        <time>2021-08-04T10:08:50Z</time>
      </trkpt>
      <trkpt lat="48.24708" lon="7.33111">
        <ele>593.4</ele>
        <time>2021-08-04T10:08:51Z</time>
      </trkpt>
      <trkpt lat="48.24704" lon="7.33111">
        <ele>593.6</ele>
        <time>2021-08-04T10:08:53Z</time>
      </trkpt>
      <trkpt lat="48.24702" lon="7.33111">
        <ele>593.8</ele>
        <time>2021-08-04T10:08:54Z</time>
      </trkpt>
      <trkpt lat="48.247" lon="7.33112">
        <ele>594</ele>
        <time>2021-08-04T10:08:56Z</time>
      </trkpt>
      <trkpt lat="48.24698" lon="7.33112">
        <ele>594.2</ele>
        <time>2021-08-04T10:08:58Z</time>
      </trkpt>
      <trkpt lat="48.24697" lon="7.33113">
        <ele>594.3</ele>
        <time>2021-08-04T10:09:00Z</time>
      </trkpt>
      <trkpt lat="48.24696" lon="7.33114">
        <ele>594.4</ele>
        <time>2021-08-04T10:09:01Z</time>
      </trkpt>
      <trkpt lat="48.24695" lon="7.33114">
        <ele>594.5</ele>
        <time>2021-08-04T10:09:02Z</time>
      </trkpt>
      <trkpt lat="48.24695" lon="7.33114">
        <ele>594.5</ele>
        <time>2021-08-04T10:09:04Z</time>
      </trkpt>
      <trkpt lat="48.24694" lon="7.33114">
        <ele>594.6</ele>
        <time>2021-08-04T10:09:06Z</time>
      </trkpt>
      <trkpt lat="48.24693" lon="7.33113">
        <ele>594.6</ele>
        <time>2021-08-04T10:09:07Z</time>
      </trkpt>
      <trkpt lat="48.24693" lon="7.33112">
        <ele>594.7</ele>
        <time>2021-08-04T10:09:08Z</time>
      </trkpt>
      <trkpt lat="48.24691" lon="7.33111">
        <ele>594.8</ele>
        <time>2021-08-04T10:09:10Z</time>
      </trkpt>
      <trkpt lat="48.24689" lon="7.33109">
        <ele>595</ele>
        <time>2021-08-04T10:09:11Z</time>
      </trkpt>
      <trkpt lat="48.24688" lon="7.33108">
        <ele>595</ele>
        <time>2021-08-04T10:09:13Z</time>
      </trkpt>
      <trkpt lat="48.24687" lon="7.33107">
        <ele>595.1</ele>
        <time>2021-08-04T10:09:14Z</time>
      </trkpt>
      <trkpt lat="48.24685" lon="7.33105">
        <ele>595.2</ele>
        <time>2021-08-04T10:09:16Z</time>
      </trkpt>
      <trkpt lat="48.24683" lon="7.33102">
        <ele>595.3</ele>
        <time>2021-08-04T10:09:17Z</time>
      </trkpt>
      <trkpt lat="48.24681" lon="7.33099">
        <ele>595.4</ele>
        <time>2021-08-04T10:09:18Z</time>
      </trkpt>
      <trkpt lat="48.2468" lon="7.33098">
        <ele>595.4</ele>
        <time>2021-08-04T10:09:19Z</time>
      </trkpt>
      <trkpt lat="48.24677" lon="7.33094">
        <ele>595.5</ele>
        <time>2021-08-04T10:09:21Z</time>
      </trkpt>
      <trkpt lat="48.24674" lon="7.33091">
        <ele>595.6</ele>
        <time>2021-08-04T10:09:22Z</time>
      </trkpt>
      <trkpt lat="48.24672" lon="7.33091">
        <ele>595.6</ele>
        <time>2021-08-04T10:09:23Z</time>
      </trkpt>
      <trkpt lat="48.2467" lon="7.3309">
        <ele>595.7</ele>
        <time>2021-08-04T10:09:24Z</time>
      </trkpt>
      <trkpt lat="48.24665" lon="7.33087">
        <ele>595.8</ele>
        <time>2021-08-04T10:09:26Z</time>
      </trkpt>
      <trkpt lat="48.24662" lon="7.33084">
        <ele>595.9</ele>
        <time>2021-08-04T10:09:27Z</time>
      </trkpt>
      <trkpt lat="48.24661" lon="7.33083">
        <ele>596</ele>
        <time>2021-08-04T10:09:28Z</time>
      </trkpt>
      <trkpt lat="48.24659" lon="7.33081">
        <ele>596.1</ele>
        <time>2021-08-04T10:09:30Z</time>
      </trkpt>
      <trkpt lat="48.24658" lon="7.33079">
        <ele>596.1</ele>
        <time>2021-08-04T10:09:31Z</time>
      </trkpt>
      <trkpt lat="48.24657" lon="7.33077">
        <ele>596.2</ele>
        <time>2021-08-04T10:09:32Z</time>
      </trkpt>
      <trkpt lat="48.24656" lon="7.33074">
        <ele>596.3</ele>
        <time>2021-08-04T10:09:34Z</time>
      </trkpt>
      <trkpt lat="48.24657" lon="7.33073">
        <ele>596.3</ele>
        <time>2021-08-04T10:09:35Z</time>
      </trkpt>
      <trkpt lat="48.24657" lon="7.33072">
        <ele>596.3</ele>
        <time>2021-08-04T10:09:36Z</time>
      </trkpt>
      <trkpt lat="48.24657" lon="7.33072">
        <ele>596.3</ele>
        <time>2021-08-04T10:09:37Z</time>
      </trkpt>
      <trkpt lat="48.24657" lon="7.33072">
        <ele>596.4</ele>
        <time>2021-08-04T10:09:39Z</time>
      </trkpt>
      <trkpt lat="48.24657" lon="7.33071">
        <ele>596.4</ele>
        <time>2021-08-04T10:09:40Z</time>
      </trkpt>
      <trkpt lat="48.24657" lon="7.33071">
        <ele>596.4</ele>
        <time>2021-08-04T10:09:41Z</time>
      </trkpt>
      <trkpt lat="48.24656" lon="7.3307">
        <ele>596.4</ele>
        <time>2021-08-04T10:09:43Z</time>
      </trkpt>
      <trkpt lat="48.24647" lon="7.33048">
        <ele>597.3</ele>
        <time>2021-08-04T10:09:47Z</time>
      </trkpt>
      <trkpt lat="48.24641" lon="7.33023">
        <ele>595.5</ele>
        <time>2021-08-04T10:09:49Z</time>
      </trkpt>
      <trkpt lat="48.24638" lon="7.33012">
        <ele>594.8</ele>
        <time>2021-08-04T10:09:50Z</time>
      </trkpt>
      <trkpt lat="48.24634" lon="7.32993">
        <ele>593.8</ele>
        <time>2021-08-04T10:09:52Z</time>
      </trkpt>
      <trkpt lat="48.24632" lon="7.32984">
        <ele>593.4</ele>
        <time>2021-08-04T10:09:53Z</time>
      </trkpt>
      <trkpt lat="48.24627" lon="7.32969">
        <ele>592.8</ele>
        <time>2021-08-04T10:09:55Z</time>
      </trkpt>
      <trkpt lat="48.24625" lon="7.32966">
        <ele>592.6</ele>
        <time>2021-08-04T10:09:57Z</time>
      </trkpt>
      <trkpt lat="48.24624" lon="7.32963">
        <ele>592.5</ele>
        <time>2021-08-04T10:09:58Z</time>
      </trkpt>
      <trkpt lat="48.24621" lon="7.32958">
        <ele>592.2</ele>
        <time>2021-08-04T10:09:59Z</time>
      </trkpt>
      <trkpt lat="48.24619" lon="7.32955">
        <ele>592.1</ele>
        <time>2021-08-04T10:10:01Z</time>
      </trkpt>
      <trkpt lat="48.24618" lon="7.32955">
        <ele>592</ele>
        <time>2021-08-04T10:10:02Z</time>
      </trkpt>
      <trkpt lat="48.24618" lon="7.32954">
        <ele>592</ele>
        <time>2021-08-04T10:10:03Z</time>
      </trkpt>
      <trkpt lat="48.24617" lon="7.32953">
        <ele>591.9</ele>
        <time>2021-08-04T10:10:05Z</time>
      </trkpt>
      <trkpt lat="48.24616" lon="7.32951">
        <ele>591.8</ele>
        <time>2021-08-04T10:10:07Z</time>
      </trkpt>
      <trkpt lat="48.24616" lon="7.32951">
        <ele>591.8</ele>
        <time>2021-08-04T10:10:08Z</time>
      </trkpt>
      <trkpt lat="48.24615" lon="7.3295">
        <ele>591.8</ele>
        <time>2021-08-04T10:10:10Z</time>
      </trkpt>
      <trkpt lat="48.24615" lon="7.3295">
        <ele>591.8</ele>
        <time>2021-08-04T10:10:11Z</time>
      </trkpt>
      <trkpt lat="48.24615" lon="7.3295">
        <ele>591.8</ele>
        <time>2021-08-04T10:10:12Z</time>
      </trkpt>
      <trkpt lat="48.24614" lon="7.32949">
        <ele>591.7</ele>
        <time>2021-08-04T10:10:14Z</time>
      </trkpt>
      <trkpt lat="48.24613" lon="7.32948">
        <ele>591.6</ele>
        <time>2021-08-04T10:10:15Z</time>
      </trkpt>
      <trkpt lat="48.24603" lon="7.3294">
        <ele>591</ele>
        <time>2021-08-04T10:10:23Z</time>
      </trkpt>
      <trkpt lat="48.246" lon="7.32935">
        <ele>590.8</ele>
        <time>2021-08-04T10:10:24Z</time>
      </trkpt>
      <trkpt lat="48.24596" lon="7.3293">
        <ele>590.5</ele>
        <time>2021-08-04T10:10:25Z</time>
      </trkpt>
      <trkpt lat="48.2459" lon="7.32922">
        <ele>590</ele>
        <time>2021-08-04T10:10:26Z</time>
      </trkpt>
      <trkpt lat="48.24586" lon="7.32915">
        <ele>589.7</ele>
        <time>2021-08-04T10:10:28Z</time>
      </trkpt>
      <trkpt lat="48.24581" lon="7.32906">
        <ele>588.6</ele>
        <time>2021-08-04T10:10:29Z</time>
      </trkpt>
      <trkpt lat="48.24578" lon="7.32898">
        <ele>588.3</ele>
        <time>2021-08-04T10:10:30Z</time>
      </trkpt>
      <trkpt lat="48.24576" lon="7.32888">
        <ele>588</ele>
        <time>2021-08-04T10:10:31Z</time>
      </trkpt>
      <trkpt lat="48.24575" lon="7.32877">
        <ele>587.7</ele>
        <time>2021-08-04T10:10:33Z</time>
      </trkpt>
      <trkpt lat="48.24573" lon="7.32866">
        <ele>587.4</ele>
        <time>2021-08-04T10:10:34Z</time>
      </trkpt>
      <trkpt lat="48.24572" lon="7.3286">
        <ele>587.2</ele>
        <time>2021-08-04T10:10:35Z</time>
      </trkpt>
      <trkpt lat="48.24568" lon="7.32854">
        <ele>586.9</ele>
        <time>2021-08-04T10:10:36Z</time>
      </trkpt>
      <trkpt lat="48.24561" lon="7.32843">
        <ele>586.4</ele>
        <time>2021-08-04T10:10:38Z</time>
      </trkpt>
      <trkpt lat="48.24557" lon="7.32836">
        <ele>586.2</ele>
        <time>2021-08-04T10:10:39Z</time>
      </trkpt>
      <trkpt lat="48.24554" lon="7.32828">
        <ele>585.9</ele>
        <time>2021-08-04T10:10:40Z</time>
      </trkpt>
      <trkpt lat="48.2455" lon="7.32822">
        <ele>585.7</ele>
        <time>2021-08-04T10:10:41Z</time>
      </trkpt>
      <trkpt lat="48.24543" lon="7.32809">
        <ele>585.2</ele>
        <time>2021-08-04T10:10:43Z</time>
      </trkpt>
      <trkpt lat="48.24539" lon="7.32803">
        <ele>585</ele>
        <time>2021-08-04T10:10:44Z</time>
      </trkpt>
      <trkpt lat="48.24525" lon="7.32794">
        <ele>584.5</ele>
        <time>2021-08-04T10:10:46Z</time>
      </trkpt>
      <trkpt lat="48.24518" lon="7.32788">
        <ele>584.3</ele>
        <time>2021-08-04T10:10:47Z</time>
      </trkpt>
      <trkpt lat="48.24507" lon="7.32776">
        <ele>584</ele>
        <time>2021-08-04T10:10:49Z</time>
      </trkpt>
      <trkpt lat="48.24502" lon="7.3277">
        <ele>583.9</ele>
        <time>2021-08-04T10:10:50Z</time>
      </trkpt>
      <trkpt lat="48.24497" lon="7.32765">
        <ele>583.8</ele>
        <time>2021-08-04T10:10:51Z</time>
      </trkpt>
      <trkpt lat="48.24487" lon="7.32758">
        <ele>583.7</ele>
        <time>2021-08-04T10:10:53Z</time>
      </trkpt>
      <trkpt lat="48.24483" lon="7.32755">
        <ele>583.7</ele>
        <time>2021-08-04T10:10:54Z</time>
      </trkpt>
      <trkpt lat="48.2448" lon="7.32753">
        <ele>583.7</ele>
        <time>2021-08-04T10:10:55Z</time>
      </trkpt>
      <trkpt lat="48.24477" lon="7.3275">
        <ele>583.7</ele>
        <time>2021-08-04T10:10:56Z</time>
      </trkpt>
      <trkpt lat="48.24472" lon="7.32744">
        <ele>583.6</ele>
        <time>2021-08-04T10:10:58Z</time>
      </trkpt>
      <trkpt lat="48.24466" lon="7.32736">
        <ele>583.6</ele>
        <time>2021-08-04T10:11:00Z</time>
      </trkpt>
      <trkpt lat="48.24462" lon="7.3273">
        <ele>583.6</ele>
        <time>2021-08-04T10:11:02Z</time>
      </trkpt>
      <trkpt lat="48.24458" lon="7.3273">
        <ele>583.6</ele>
        <time>2021-08-04T10:11:03Z</time>
      </trkpt>
      <trkpt lat="48.24456" lon="7.3273">
        <ele>583.6</ele>
        <time>2021-08-04T10:11:04Z</time>
      </trkpt>
      <trkpt lat="48.24453" lon="7.32732">
        <ele>583.6</ele>
        <time>2021-08-04T10:11:05Z</time>
      </trkpt>
      <trkpt lat="48.24448" lon="7.32737">
        <ele>583.6</ele>
        <time>2021-08-04T10:11:07Z</time>
      </trkpt>
      <trkpt lat="48.24445" lon="7.32741">
        <ele>583.6</ele>
        <time>2021-08-04T10:11:08Z</time>
      </trkpt>
      <trkpt lat="48.24443" lon="7.32743">
        <ele>583.6</ele>
        <time>2021-08-04T10:11:09Z</time>
      </trkpt>
      <trkpt lat="48.2444" lon="7.32747">
        <ele>583.5</ele>
        <time>2021-08-04T10:11:10Z</time>
      </trkpt>
      <trkpt lat="48.24439" lon="7.32749">
        <ele>583.5</ele>
        <time>2021-08-04T10:11:11Z</time>
      </trkpt>
      <trkpt lat="48.24439" lon="7.32751">
        <ele>583.5</ele>
        <time>2021-08-04T10:11:12Z</time>
      </trkpt>
      <trkpt lat="48.24442" lon="7.32754">
        <ele>583.4</ele>
        <time>2021-08-04T10:11:14Z</time>
      </trkpt>
      <trkpt lat="48.24445" lon="7.32754">
        <ele>583.4</ele>
        <time>2021-08-04T10:11:15Z</time>
      </trkpt>
      <trkpt lat="48.24447" lon="7.32753">
        <ele>583.4</ele>
        <time>2021-08-04T10:11:16Z</time>
      </trkpt>
      <trkpt lat="48.24449" lon="7.32752">
        <ele>583.3</ele>
        <time>2021-08-04T10:11:17Z</time>
      </trkpt>
      <trkpt lat="48.24449" lon="7.32748">
        <ele>583.3</ele>
        <time>2021-08-04T10:11:19Z</time>
      </trkpt>
      <trkpt lat="48.24449" lon="7.32743">
        <ele>583.2</ele>
        <time>2021-08-04T10:11:20Z</time>
      </trkpt>
      <trkpt lat="48.24449" lon="7.32742">
        <ele>583.2</ele>
        <time>2021-08-04T10:11:21Z</time>
      </trkpt>
      <trkpt lat="48.24449" lon="7.32738">
        <ele>583.1</ele>
        <time>2021-08-04T10:11:23Z</time>
      </trkpt>
      <trkpt lat="48.24449" lon="7.32733">
        <ele>583.1</ele>
        <time>2021-08-04T10:11:24Z</time>
      </trkpt>
      <trkpt lat="48.24449" lon="7.32729">
        <ele>583</ele>
        <time>2021-08-04T10:11:25Z</time>
      </trkpt>
      <trkpt lat="48.24449" lon="7.32722">
        <ele>582.9</ele>
        <time>2021-08-04T10:11:26Z</time>
      </trkpt>
      <trkpt lat="48.24448" lon="7.32717">
        <ele>582.9</ele>
        <time>2021-08-04T10:11:27Z</time>
      </trkpt>
      <trkpt lat="48.24447" lon="7.32712">
        <ele>582.8</ele>
        <time>2021-08-04T10:11:29Z</time>
      </trkpt>
      <trkpt lat="48.24446" lon="7.32708">
        <ele>582.7</ele>
        <time>2021-08-04T10:11:30Z</time>
      </trkpt>
      <trkpt lat="48.24443" lon="7.32704">
        <ele>582.7</ele>
        <time>2021-08-04T10:11:31Z</time>
      </trkpt>
      <trkpt lat="48.2444" lon="7.327">
        <ele>582.6</ele>
        <time>2021-08-04T10:11:32Z</time>
      </trkpt>
      <trkpt lat="48.24437" lon="7.32695">
        <ele>582.6</ele>
        <time>2021-08-04T10:11:34Z</time>
      </trkpt>
      <trkpt lat="48.24433" lon="7.3269">
        <ele>582.5</ele>
        <time>2021-08-04T10:11:35Z</time>
      </trkpt>
      <trkpt lat="48.2443" lon="7.32684">
        <ele>582.5</ele>
        <time>2021-08-04T10:11:37Z</time>
      </trkpt>
      <trkpt lat="48.24426" lon="7.3268">
        <ele>582.2</ele>
        <time>2021-08-04T10:11:38Z</time>
      </trkpt>
      <trkpt lat="48.24422" lon="7.32674">
        <ele>581.6</ele>
        <time>2021-08-04T10:11:40Z</time>
      </trkpt>
      <trkpt lat="48.2442" lon="7.3267">
        <ele>581.3</ele>
        <time>2021-08-04T10:11:41Z</time>
      </trkpt>
      <trkpt lat="48.24418" lon="7.32666">
        <ele>580.9</ele>
        <time>2021-08-04T10:11:42Z</time>
      </trkpt>
      <trkpt lat="48.24416" lon="7.32663">
        <ele>580.7</ele>
        <time>2021-08-04T10:11:44Z</time>
      </trkpt>
      <trkpt lat="48.24415" lon="7.32658">
        <ele>580.3</ele>
        <time>2021-08-04T10:11:45Z</time>
      </trkpt>
      <trkpt lat="48.24413" lon="7.32655">
        <ele>580</ele>
        <time>2021-08-04T10:11:46Z</time>
      </trkpt>
      <trkpt lat="48.24411" lon="7.3265">
        <ele>579</ele>
        <time>2021-08-04T10:11:47Z</time>
      </trkpt>
      <trkpt lat="48.24411" lon="7.32642">
        <ele>578.9</ele>
        <time>2021-08-04T10:11:48Z</time>
      </trkpt>
      <trkpt lat="48.2441" lon="7.32634">
        <ele>578.8</ele>
        <time>2021-08-04T10:11:50Z</time>
      </trkpt>
      <trkpt lat="48.2441" lon="7.32627">
        <ele>578.8</ele>
        <time>2021-08-04T10:11:51Z</time>
      </trkpt>
      <trkpt lat="48.2441" lon="7.32619">
        <ele>578.7</ele>
        <time>2021-08-04T10:11:52Z</time>
      </trkpt>
      <trkpt lat="48.24409" lon="7.32612">
        <ele>578.6</ele>
        <time>2021-08-04T10:11:53Z</time>
      </trkpt>
      <trkpt lat="48.24407" lon="7.32602">
        <ele>578.5</ele>
        <time>2021-08-04T10:11:55Z</time>
      </trkpt>
      <trkpt lat="48.24406" lon="7.32592">
        <ele>579.6</ele>
        <time>2021-08-04T10:11:56Z</time>
      </trkpt>
      <trkpt lat="48.24403" lon="7.32582">
        <ele>580.9</ele>
        <time>2021-08-04T10:11:58Z</time>
      </trkpt>
      <trkpt lat="48.24401" lon="7.32572">
        <ele>582.4</ele>
        <time>2021-08-04T10:12:00Z</time>
      </trkpt>
      <trkpt lat="48.24399" lon="7.32566">
        <ele>583.3</ele>
        <time>2021-08-04T10:12:01Z</time>
      </trkpt>
      <trkpt lat="48.24397" lon="7.3256">
        <ele>584.4</ele>
        <time>2021-08-04T10:12:03Z</time>
      </trkpt>
      <trkpt lat="48.24396" lon="7.32554">
        <ele>584.9</ele>
        <time>2021-08-04T10:12:04Z</time>
      </trkpt>
      <trkpt lat="48.24395" lon="7.32552">
        <ele>585.1</ele>
        <time>2021-08-04T10:12:05Z</time>
      </trkpt>
      <trkpt lat="48.24396" lon="7.32549">
        <ele>585.2</ele>
        <time>2021-08-04T10:12:06Z</time>
      </trkpt>
      <trkpt lat="48.24397" lon="7.32547">
        <ele>585.3</ele>
        <time>2021-08-04T10:12:07Z</time>
      </trkpt>
      <trkpt lat="48.24397" lon="7.32548">
        <ele>585.4</ele>
        <time>2021-08-04T10:12:08Z</time>
      </trkpt>
      <trkpt lat="48.24397" lon="7.32547">
        <ele>585.4</ele>
        <time>2021-08-04T10:12:10Z</time>
      </trkpt>
      <trkpt lat="48.24397" lon="7.32544">
        <ele>585.6</ele>
        <time>2021-08-04T10:12:11Z</time>
      </trkpt>
      <trkpt lat="48.24398" lon="7.3254">
        <ele>585.8</ele>
        <time>2021-08-04T10:12:13Z</time>
      </trkpt>
      <trkpt lat="48.24398" lon="7.32538">
        <ele>585.9</ele>
        <time>2021-08-04T10:12:15Z</time>
      </trkpt>
      <trkpt lat="48.24396" lon="7.32534">
        <ele>586.1</ele>
        <time>2021-08-04T10:12:16Z</time>
      </trkpt>
      <trkpt lat="48.24395" lon="7.32534">
        <ele>586.2</ele>
        <time>2021-08-04T10:12:18Z</time>
      </trkpt>
      <trkpt lat="48.24393" lon="7.32532">
        <ele>586.3</ele>
        <time>2021-08-04T10:12:19Z</time>
      </trkpt>
      <trkpt lat="48.24392" lon="7.3253">
        <ele>586.4</ele>
        <time>2021-08-04T10:12:20Z</time>
      </trkpt>
      <trkpt lat="48.24391" lon="7.3253">
        <ele>586.4</ele>
        <time>2021-08-04T10:12:21Z</time>
      </trkpt>
      <trkpt lat="48.24391" lon="7.32529">
        <ele>586.5</ele>
        <time>2021-08-04T10:12:23Z</time>
      </trkpt>
      <trkpt lat="48.24391" lon="7.32526">
        <ele>586.6</ele>
        <time>2021-08-04T10:12:25Z</time>
      </trkpt>
      <trkpt lat="48.24391" lon="7.32524">
        <ele>586.7</ele>
        <time>2021-08-04T10:12:26Z</time>
      </trkpt>
      <trkpt lat="48.24391" lon="7.32523">
        <ele>586.7</ele>
        <time>2021-08-04T10:12:27Z</time>
      </trkpt>
      <trkpt lat="48.24392" lon="7.3252">
        <ele>586.8</ele>
        <time>2021-08-04T10:12:28Z</time>
      </trkpt>
      <trkpt lat="48.24392" lon="7.32518">
        <ele>586.9</ele>
        <time>2021-08-04T10:12:30Z</time>
      </trkpt>
      <trkpt lat="48.24394" lon="7.32377">
        <ele>587.7</ele>
        <time>2021-08-04T10:13:08Z</time>
      </trkpt>
      <trkpt lat="48.24394" lon="7.32365">
        <ele>587.7</ele>
        <time>2021-08-04T10:13:09Z</time>
      </trkpt>
      <trkpt lat="48.24396" lon="7.32357">
        <ele>587.7</ele>
        <time>2021-08-04T10:13:10Z</time>
      </trkpt>
      <trkpt lat="48.24402" lon="7.32344">
        <ele>587.9</ele>
        <time>2021-08-04T10:13:12Z</time>
      </trkpt>
      <trkpt lat="48.24412" lon="7.32335">
        <ele>588.3</ele>
        <time>2021-08-04T10:13:14Z</time>
      </trkpt>
      <trkpt lat="48.24419" lon="7.32328">
        <ele>588.7</ele>
        <time>2021-08-04T10:13:15Z</time>
      </trkpt>
      <trkpt lat="48.24426" lon="7.32322">
        <ele>589.1</ele>
        <time>2021-08-04T10:13:17Z</time>
      </trkpt>
      <trkpt lat="48.2443" lon="7.32319">
        <ele>589.5</ele>
        <time>2021-08-04T10:13:18Z</time>
      </trkpt>
      <trkpt lat="48.24434" lon="7.32315">
        <ele>589.8</ele>
        <time>2021-08-04T10:13:20Z</time>
      </trkpt>
      <trkpt lat="48.24438" lon="7.32313">
        <ele>590.2</ele>
        <time>2021-08-04T10:13:21Z</time>
      </trkpt>
      <trkpt lat="48.24442" lon="7.32312">
        <ele>590.5</ele>
        <time>2021-08-04T10:13:23Z</time>
      </trkpt>
      <trkpt lat="48.24446" lon="7.32313">
        <ele>590.8</ele>
        <time>2021-08-04T10:13:24Z</time>
      </trkpt>
      <trkpt lat="48.24446" lon="7.32314">
        <ele>590.9</ele>
        <time>2021-08-04T10:13:25Z</time>
      </trkpt>
      <trkpt lat="48.24446" lon="7.32315">
        <ele>591</ele>
        <time>2021-08-04T10:13:26Z</time>
      </trkpt>
      <trkpt lat="48.24446" lon="7.32318">
        <ele>591.2</ele>
        <time>2021-08-04T10:13:27Z</time>
      </trkpt>
      <trkpt lat="48.24446" lon="7.32318">
        <ele>591.2</ele>
        <time>2021-08-04T10:13:29Z</time>
      </trkpt>
      <trkpt lat="48.24446" lon="7.32318">
        <ele>591.2</ele>
        <time>2021-08-04T10:13:30Z</time>
      </trkpt>
      <trkpt lat="48.24446" lon="7.32318">
        <ele>591.3</ele>
        <time>2021-08-04T10:13:31Z</time>
      </trkpt>
      <trkpt lat="48.24447" lon="7.32318">
        <ele>591.3</ele>
        <time>2021-08-04T10:13:33Z</time>
      </trkpt>
      <trkpt lat="48.24447" lon="7.32318">
        <ele>591.3</ele>
        <time>2021-08-04T10:13:34Z</time>
      </trkpt>
      <trkpt lat="48.24449" lon="7.32301">
        <ele>592.3</ele>
        <time>2021-08-04T10:13:55Z</time>
      </trkpt>
      <trkpt lat="48.2445" lon="7.32297">
        <ele>592.6</ele>
        <time>2021-08-04T10:13:56Z</time>
      </trkpt>
      <trkpt lat="48.24452" lon="7.32291">
        <ele>592.9</ele>
        <time>2021-08-04T10:13:58Z</time>
      </trkpt>
      <trkpt lat="48.24452" lon="7.32286">
        <ele>593.1</ele>
        <time>2021-08-04T10:13:59Z</time>
      </trkpt>
      <trkpt lat="48.24453" lon="7.32282">
        <ele>593.3</ele>
        <time>2021-08-04T10:14:00Z</time>
      </trkpt>
      <trkpt lat="48.24451" lon="7.32277">
        <ele>593.5</ele>
        <time>2021-08-04T10:14:02Z</time>
      </trkpt>
      <trkpt lat="48.2445" lon="7.32273">
        <ele>593.6</ele>
        <time>2021-08-04T10:14:03Z</time>
      </trkpt>
      <trkpt lat="48.24451" lon="7.32269">
        <ele>593.7</ele>
        <time>2021-08-04T10:14:04Z</time>
      </trkpt>
      <trkpt lat="48.24451" lon="7.32267">
        <ele>593.8</ele>
        <time>2021-08-04T10:14:05Z</time>
      </trkpt>
      <trkpt lat="48.24451" lon="7.32265">
        <ele>593.9</ele>
        <time>2021-08-04T10:14:07Z</time>
      </trkpt>
      <trkpt lat="48.24451" lon="7.32265">
        <ele>593.9</ele>
        <time>2021-08-04T10:14:09Z</time>
      </trkpt>
      <trkpt lat="48.24451" lon="7.32265">
        <ele>593.9</ele>
        <time>2021-08-04T10:14:10Z</time>
      </trkpt>
      <trkpt lat="48.2445" lon="7.32264">
        <ele>593.9</ele>
        <time>2021-08-04T10:14:11Z</time>
      </trkpt>
      <trkpt lat="48.2445" lon="7.32264">
        <ele>593.9</ele>
        <time>2021-08-04T10:14:13Z</time>
      </trkpt>
      <trkpt lat="48.2445" lon="7.32262">
        <ele>594</ele>
        <time>2021-08-04T10:14:14Z</time>
      </trkpt>
      <trkpt lat="48.24449" lon="7.32261">
        <ele>594</ele>
        <time>2021-08-04T10:14:15Z</time>
      </trkpt>
      <trkpt lat="48.2445" lon="7.32238">
        <ele>594.7</ele>
        <time>2021-08-04T10:14:25Z</time>
      </trkpt>
      <trkpt lat="48.24451" lon="7.32235">
        <ele>594.8</ele>
        <time>2021-08-04T10:14:26Z</time>
      </trkpt>
      <trkpt lat="48.24451" lon="7.3223">
        <ele>595</ele>
        <time>2021-08-04T10:14:28Z</time>
      </trkpt>
      <trkpt lat="48.24451" lon="7.32226">
        <ele>595.1</ele>
        <time>2021-08-04T10:14:29Z</time>
      </trkpt>
      <trkpt lat="48.24452" lon="7.32221">
        <ele>595.3</ele>
        <time>2021-08-04T10:14:30Z</time>
      </trkpt>
      <trkpt lat="48.24452" lon="7.32217">
        <ele>595.5</ele>
        <time>2021-08-04T10:14:31Z</time>
      </trkpt>
      <trkpt lat="48.24452" lon="7.32216">
        <ele>595.5</ele>
        <time>2021-08-04T10:14:32Z</time>
      </trkpt>
      <trkpt lat="48.24452" lon="7.3221">
        <ele>595.7</ele>
        <time>2021-08-04T10:14:34Z</time>
      </trkpt>
      <trkpt lat="48.24452" lon="7.32207">
        <ele>595.9</ele>
        <time>2021-08-04T10:14:35Z</time>
      </trkpt>
      <trkpt lat="48.24452" lon="7.32203">
        <ele>596</ele>
        <time>2021-08-04T10:14:37Z</time>
      </trkpt>
      <trkpt lat="48.24452" lon="7.32199">
        <ele>596.2</ele>
        <time>2021-08-04T10:14:38Z</time>
      </trkpt>
      <trkpt lat="48.24452" lon="7.32197">
        <ele>596.3</ele>
        <time>2021-08-04T10:14:39Z</time>
      </trkpt>
      <trkpt lat="48.24453" lon="7.32188">
        <ele>596.7</ele>
        <time>2021-08-04T10:14:41Z</time>
      </trkpt>
      <trkpt lat="48.24454" lon="7.32179">
        <ele>597.1</ele>
        <time>2021-08-04T10:14:43Z</time>
      </trkpt>
      <trkpt lat="48.24454" lon="7.32169">
        <ele>597.6</ele>
        <time>2021-08-04T10:14:45Z</time>
      </trkpt>
      <trkpt lat="48.24455" lon="7.32162">
        <ele>597.9</ele>
        <time>2021-08-04T10:14:47Z</time>
      </trkpt>
      <trkpt lat="48.24456" lon="7.32157">
        <ele>598.1</ele>
        <time>2021-08-04T10:14:48Z</time>
      </trkpt>
      <trkpt lat="48.24457" lon="7.32156">
        <ele>598.2</ele>
        <time>2021-08-04T10:14:49Z</time>
      </trkpt>
      <trkpt lat="48.24458" lon="7.32152">
        <ele>598.4</ele>
        <time>2021-08-04T10:14:50Z</time>
      </trkpt>
      <trkpt lat="48.24458" lon="7.3215">
        <ele>598.5</ele>
        <time>2021-08-04T10:14:51Z</time>
      </trkpt>
      <trkpt lat="48.2446" lon="7.32146">
        <ele>598.7</ele>
        <time>2021-08-04T10:14:52Z</time>
      </trkpt>
      <trkpt lat="48.2446" lon="7.32145">
        <ele>598.7</ele>
        <time>2021-08-04T10:14:53Z</time>
      </trkpt>
      <trkpt lat="48.2446" lon="7.32143">
        <ele>598.8</ele>
        <time>2021-08-04T10:14:54Z</time>
      </trkpt>
      <trkpt lat="48.24461" lon="7.32141">
        <ele>598.9</ele>
        <time>2021-08-04T10:14:55Z</time>
      </trkpt>
      <trkpt lat="48.24461" lon="7.32137">
        <ele>599.1</ele>
        <time>2021-08-04T10:14:56Z</time>
      </trkpt>
      <trkpt lat="48.24461" lon="7.32135">
        <ele>599.2</ele>
        <time>2021-08-04T10:14:57Z</time>
      </trkpt>
      <trkpt lat="48.24462" lon="7.3213">
        <ele>599.4</ele>
        <time>2021-08-04T10:14:59Z</time>
      </trkpt>
      <trkpt lat="48.24461" lon="7.32128">
        <ele>599.5</ele>
        <time>2021-08-04T10:15:00Z</time>
      </trkpt>
      <trkpt lat="48.24462" lon="7.32125">
        <ele>599.6</ele>
        <time>2021-08-04T10:15:02Z</time>
      </trkpt>
      <trkpt lat="48.24462" lon="7.32125">
        <ele>599.6</ele>
        <time>2021-08-04T10:15:03Z</time>
      </trkpt>
      <trkpt lat="48.24463" lon="7.32122">
        <ele>599.8</ele>
        <time>2021-08-04T10:15:04Z</time>
      </trkpt>
      <trkpt lat="48.24464" lon="7.3212">
        <ele>599.9</ele>
        <time>2021-08-04T10:15:06Z</time>
      </trkpt>
      <trkpt lat="48.24464" lon="7.32119">
        <ele>600</ele>
        <time>2021-08-04T10:15:08Z</time>
      </trkpt>
      <trkpt lat="48.24465" lon="7.32116">
        <ele>600.1</ele>
        <time>2021-08-04T10:15:09Z</time>
      </trkpt>
      <trkpt lat="48.24465" lon="7.32112">
        <ele>600.3</ele>
        <time>2021-08-04T10:15:10Z</time>
      </trkpt>
      <trkpt lat="48.24466" lon="7.32106">
        <ele>600.6</ele>
        <time>2021-08-04T10:15:12Z</time>
      </trkpt>
      <trkpt lat="48.24466" lon="7.321">
        <ele>601</ele>
        <time>2021-08-04T10:15:14Z</time>
      </trkpt>
      <trkpt lat="48.24466" lon="7.32096">
        <ele>601.2</ele>
        <time>2021-08-04T10:15:15Z</time>
      </trkpt>
      <trkpt lat="48.24467" lon="7.32095">
        <ele>601.3</ele>
        <time>2021-08-04T10:15:17Z</time>
      </trkpt>
      <trkpt lat="48.24467" lon="7.32093">
        <ele>601.3</ele>
        <time>2021-08-04T10:15:18Z</time>
      </trkpt>
      <trkpt lat="48.24466" lon="7.32086">
        <ele>601.7</ele>
        <time>2021-08-04T10:15:19Z</time>
      </trkpt>
      <trkpt lat="48.24466" lon="7.32083">
        <ele>601.9</ele>
        <time>2021-08-04T10:15:20Z</time>
      </trkpt>
      <trkpt lat="48.24466" lon="7.32078">
        <ele>602.2</ele>
        <time>2021-08-04T10:15:22Z</time>
      </trkpt>
      <trkpt lat="48.24466" lon="7.32077">
        <ele>602.3</ele>
        <time>2021-08-04T10:15:23Z</time>
      </trkpt>
      <trkpt lat="48.24464" lon="7.32074">
        <ele>602.5</ele>
        <time>2021-08-04T10:15:24Z</time>
      </trkpt>
      <trkpt lat="48.24464" lon="7.3207">
        <ele>602.8</ele>
        <time>2021-08-04T10:15:26Z</time>
      </trkpt>
      <trkpt lat="48.24464" lon="7.3207">
        <ele>602.8</ele>
        <time>2021-08-04T10:15:27Z</time>
      </trkpt>
      <trkpt lat="48.24464" lon="7.3207">
        <ele>602.8</ele>
        <time>2021-08-04T10:15:28Z</time>
      </trkpt>
      <trkpt lat="48.24464" lon="7.3207">
        <ele>602.8</ele>
        <time>2021-08-04T10:15:30Z</time>
      </trkpt>
      <trkpt lat="48.24464" lon="7.32068">
        <ele>602.9</ele>
        <time>2021-08-04T10:15:31Z</time>
      </trkpt>
      <trkpt lat="48.24464" lon="7.32066">
        <ele>603.1</ele>
        <time>2021-08-04T10:15:33Z</time>
      </trkpt>
      <trkpt lat="48.24463" lon="7.32064">
        <ele>603.2</ele>
        <time>2021-08-04T10:15:34Z</time>
      </trkpt>
      <trkpt lat="48.2446" lon="7.32045">
        <ele>604.5</ele>
        <time>2021-08-04T10:15:41Z</time>
      </trkpt>
      <trkpt lat="48.24458" lon="7.32038">
        <ele>605</ele>
        <time>2021-08-04T10:15:43Z</time>
      </trkpt>
      <trkpt lat="48.24456" lon="7.32034">
        <ele>605.4</ele>
        <time>2021-08-04T10:15:44Z</time>
      </trkpt>
      <trkpt lat="48.24455" lon="7.32032">
        <ele>605.5</ele>
        <time>2021-08-04T10:15:45Z</time>
      </trkpt>
      <trkpt lat="48.24453" lon="7.32027">
        <ele>606</ele>
        <time>2021-08-04T10:15:47Z</time>
      </trkpt>
      <trkpt lat="48.24452" lon="7.32024">
        <ele>606.2</ele>
        <time>2021-08-04T10:15:48Z</time>
      </trkpt>
      <trkpt lat="48.24452" lon="7.32021">
        <ele>606.5</ele>
        <time>2021-08-04T10:15:50Z</time>
      </trkpt>
      <trkpt lat="48.24452" lon="7.32017">
        <ele>606.8</ele>
        <time>2021-08-04T10:15:51Z</time>
      </trkpt>
      <trkpt lat="48.24452" lon="7.32015">
        <ele>606.9</ele>
        <time>2021-08-04T10:15:52Z</time>
      </trkpt>
      <trkpt lat="48.24453" lon="7.32013">
        <ele>607</ele>
        <time>2021-08-04T10:15:53Z</time>
      </trkpt>
      <trkpt lat="48.24452" lon="7.32012">
        <ele>607.2</ele>
        <time>2021-08-04T10:15:55Z</time>
      </trkpt>
      <trkpt lat="48.24451" lon="7.32011">
        <ele>607.3</ele>
        <time>2021-08-04T10:15:57Z</time>
      </trkpt>
      <trkpt lat="48.2445" lon="7.3201">
        <ele>607.4</ele>
        <time>2021-08-04T10:15:58Z</time>
      </trkpt>
      <trkpt lat="48.2445" lon="7.3201">
        <ele>607.5</ele>
        <time>2021-08-04T10:16:00Z</time>
      </trkpt>
      <trkpt lat="48.24449" lon="7.32009">
        <ele>607.5</ele>
        <time>2021-08-04T10:16:01Z</time>
      </trkpt>
      <trkpt lat="48.24449" lon="7.32009">
        <ele>607.5</ele>
        <time>2021-08-04T10:16:02Z</time>
      </trkpt>
      <trkpt lat="48.24381" lon="7.31889">
        <ele>618.9</ele>
        <time>2021-08-04T10:18:12Z</time>
      </trkpt>
      <trkpt lat="48.2438" lon="7.31887">
        <ele>619</ele>
        <time>2021-08-04T10:18:14Z</time>
      </trkpt>
      <trkpt lat="48.24379" lon="7.31886">
        <ele>619.1</ele>
        <time>2021-08-04T10:18:15Z</time>
      </trkpt>
      <trkpt lat="48.24378" lon="7.31885">
        <ele>619.1</ele>
        <time>2021-08-04T10:18:16Z</time>
      </trkpt>
      <trkpt lat="48.24377" lon="7.31883">
        <ele>619.3</ele>
        <time>2021-08-04T10:18:17Z</time>
      </trkpt>
      <trkpt lat="48.24376" lon="7.31883">
        <ele>619.4</ele>
        <time>2021-08-04T10:18:19Z</time>
      </trkpt>
      <trkpt lat="48.24375" lon="7.31882">
        <ele>619.4</ele>
        <time>2021-08-04T10:18:20Z</time>
      </trkpt>
      <trkpt lat="48.24373" lon="7.31881">
        <ele>619.6</ele>
        <time>2021-08-04T10:18:21Z</time>
      </trkpt>
      <trkpt lat="48.24372" lon="7.3188">
        <ele>619.7</ele>
        <time>2021-08-04T10:18:23Z</time>
      </trkpt>
      <trkpt lat="48.24371" lon="7.31879">
        <ele>619.7</ele>
        <time>2021-08-04T10:18:24Z</time>
      </trkpt>
      <trkpt lat="48.2437" lon="7.31879">
        <ele>619.8</ele>
        <time>2021-08-04T10:18:26Z</time>
      </trkpt>
      <trkpt lat="48.24369" lon="7.31878">
        <ele>619.9</ele>
        <time>2021-08-04T10:18:27Z</time>
      </trkpt>
      <trkpt lat="48.24368" lon="7.31877">
        <ele>620</ele>
        <time>2021-08-04T10:18:28Z</time>
      </trkpt>
      <trkpt lat="48.24368" lon="7.31877">
        <ele>620</ele>
        <time>2021-08-04T10:18:29Z</time>
      </trkpt>
      <trkpt lat="48.24367" lon="7.31876">
        <ele>620.1</ele>
        <time>2021-08-04T10:18:30Z</time>
      </trkpt>
      <trkpt lat="48.24367" lon="7.31876">
        <ele>620.1</ele>
        <time>2021-08-04T10:18:31Z</time>
      </trkpt>
      <trkpt lat="48.24367" lon="7.31876">
        <ele>620.1</ele>
        <time>2021-08-04T10:18:32Z</time>
      </trkpt>
      <trkpt lat="48.24366" lon="7.31876">
        <ele>620.1</ele>
        <time>2021-08-04T10:18:33Z</time>
      </trkpt>
      <trkpt lat="48.24366" lon="7.31875">
        <ele>620.2</ele>
        <time>2021-08-04T10:18:35Z</time>
      </trkpt>
      <trkpt lat="48.24366" lon="7.31875">
        <ele>620.2</ele>
        <time>2021-08-04T10:18:36Z</time>
      </trkpt>
      <trkpt lat="48.24367" lon="7.31875">
        <ele>620.2</ele>
        <time>2021-08-04T10:18:38Z</time>
      </trkpt>
      <trkpt lat="48.24367" lon="7.31875">
        <ele>620.2</ele>
        <time>2021-08-04T10:18:39Z</time>
      </trkpt>
      <trkpt lat="48.24367" lon="7.31874">
        <ele>620.2</ele>
        <time>2021-08-04T10:18:42Z</time>
      </trkpt>
      <trkpt lat="48.24367" lon="7.31874">
        <ele>620.2</ele>
        <time>2021-08-04T10:18:44Z</time>
      </trkpt>
      <trkpt lat="48.24367" lon="7.31874">
        <ele>620.2</ele>
        <time>2021-08-04T10:18:45Z</time>
      </trkpt>
      <trkpt lat="48.24367" lon="7.31874">
        <ele>620.3</ele>
        <time>2021-08-04T10:18:48Z</time>
      </trkpt>
      <trkpt lat="48.24367" lon="7.31873">
        <ele>620.3</ele>
        <time>2021-08-04T10:18:50Z</time>
      </trkpt>
      <trkpt lat="48.24367" lon="7.31873">
        <ele>620.3</ele>
        <time>2021-08-04T10:18:52Z</time>
      </trkpt>
      <trkpt lat="48.24367" lon="7.31873">
        <ele>620.3</ele>
        <time>2021-08-04T10:18:53Z</time>
      </trkpt>
      <trkpt lat="48.24367" lon="7.31873">
        <ele>620.3</ele>
        <time>2021-08-04T10:18:54Z</time>
      </trkpt>
      <trkpt lat="48.24367" lon="7.31872">
        <ele>620.3</ele>
        <time>2021-08-04T10:18:55Z</time>
      </trkpt>
      <trkpt lat="48.24367" lon="7.31872">
        <ele>620.3</ele>
        <time>2021-08-04T10:18:56Z</time>
      </trkpt>
      <trkpt lat="48.24368" lon="7.31872">
        <ele>620.4</ele>
        <time>2021-08-04T10:18:58Z</time>
      </trkpt>
      <trkpt lat="48.24368" lon="7.31872">
        <ele>620.4</ele>
        <time>2021-08-04T10:19:00Z</time>
      </trkpt>
      <trkpt lat="48.24368" lon="7.31872">
        <ele>620.4</ele>
        <time>2021-08-04T10:19:01Z</time>
      </trkpt>
      <trkpt lat="48.24368" lon="7.31871">
        <ele>620.4</ele>
        <time>2021-08-04T10:19:03Z</time>
      </trkpt>
      <trkpt lat="48.24368" lon="7.31871">
        <ele>620.4</ele>
        <time>2021-08-04T10:19:04Z</time>
      </trkpt>
      <trkpt lat="48.24368" lon="7.31871">
        <ele>620.4</ele>
        <time>2021-08-04T10:19:06Z</time>
      </trkpt>
      <trkpt lat="48.24368" lon="7.31871">
        <ele>620.4</ele>
        <time>2021-08-04T10:19:08Z</time>
      </trkpt>
      <trkpt lat="48.24368" lon="7.3187">
        <ele>620.4</ele>
        <time>2021-08-04T10:19:09Z</time>
      </trkpt>
      <trkpt lat="48.24371" lon="7.31866">
        <ele>620.7</ele>
        <time>2021-08-04T10:19:11Z</time>
      </trkpt>
      <trkpt lat="48.24371" lon="7.31865">
        <ele>620.8</ele>
        <time>2021-08-04T10:19:12Z</time>
      </trkpt>
      <trkpt lat="48.24371" lon="7.31865">
        <ele>620.8</ele>
        <time>2021-08-04T10:19:13Z</time>
      </trkpt>
      <trkpt lat="48.24371" lon="7.31865">
        <ele>620.8</ele>
        <time>2021-08-04T10:19:14Z</time>
      </trkpt>
      <trkpt lat="48.24371" lon="7.31865">
        <ele>620.8</ele>
        <time>2021-08-04T10:19:15Z</time>
      </trkpt>
      <trkpt lat="48.24371" lon="7.31865">
        <ele>620.8</ele>
        <time>2021-08-04T10:19:16Z</time>
      </trkpt>
      <trkpt lat="48.24371" lon="7.31865">
        <ele>620.8</ele>
        <time>2021-08-04T10:19:18Z</time>
      </trkpt>
      <trkpt lat="48.24371" lon="7.31865">
        <ele>620.8</ele>
        <time>2021-08-04T10:19:19Z</time>
      </trkpt>
      <trkpt lat="48.24371" lon="7.31865">
        <ele>620.8</ele>
        <time>2021-08-04T10:19:21Z</time>
      </trkpt>
      <trkpt lat="48.24371" lon="7.31865">
        <ele>620.8</ele>
        <time>2021-08-04T10:19:22Z</time>
      </trkpt>
      <trkpt lat="48.24371" lon="7.31865">
        <ele>620.8</ele>
        <time>2021-08-04T10:19:24Z</time>
      </trkpt>
      <trkpt lat="48.24371" lon="7.31865">
        <ele>620.8</ele>
        <time>2021-08-04T10:19:25Z</time>
      </trkpt>
      <trkpt lat="48.24371" lon="7.31865">
        <ele>620.8</ele>
        <time>2021-08-04T10:19:26Z</time>
      </trkpt>
      <trkpt lat="48.24371" lon="7.31865">
        <ele>620.8</ele>
        <time>2021-08-04T10:19:28Z</time>
      </trkpt>
      <trkpt lat="48.24371" lon="7.31864">
        <ele>620.8</ele>
        <time>2021-08-04T10:19:30Z</time>
      </trkpt>
      <trkpt lat="48.24372" lon="7.31864">
        <ele>620.8</ele>
        <time>2021-08-04T10:19:31Z</time>
      </trkpt>
      <trkpt lat="48.24372" lon="7.31864">
        <ele>620.8</ele>
        <time>2021-08-04T10:19:32Z</time>
      </trkpt>
      <trkpt lat="48.24371" lon="7.31864">
        <ele>620.8</ele>
        <time>2021-08-04T10:19:33Z</time>
      </trkpt>
      <trkpt lat="48.24371" lon="7.31865">
        <ele>620.9</ele>
        <time>2021-08-04T10:19:35Z</time>
      </trkpt>
      <trkpt lat="48.2437" lon="7.31865">
        <ele>621</ele>
        <time>2021-08-04T10:19:36Z</time>
      </trkpt>
      <trkpt lat="48.24369" lon="7.31865">
        <ele>621</ele>
        <time>2021-08-04T10:19:37Z</time>
      </trkpt>
      <trkpt lat="48.24368" lon="7.31865">
        <ele>621.1</ele>
        <time>2021-08-04T10:19:38Z</time>
      </trkpt>
      <trkpt lat="48.24366" lon="7.31865">
        <ele>621.2</ele>
        <time>2021-08-04T10:19:40Z</time>
      </trkpt>
      <trkpt lat="48.24365" lon="7.31865">
        <ele>621.3</ele>
        <time>2021-08-04T10:19:41Z</time>
      </trkpt>
      <trkpt lat="48.24364" lon="7.31865">
        <ele>621.4</ele>
        <time>2021-08-04T10:19:42Z</time>
      </trkpt>
      <trkpt lat="48.24361" lon="7.31865">
        <ele>621.6</ele>
        <time>2021-08-04T10:19:44Z</time>
      </trkpt>
      <trkpt lat="48.24357" lon="7.31865">
        <ele>621.9</ele>
        <time>2021-08-04T10:19:45Z</time>
      </trkpt>
      <trkpt lat="48.24356" lon="7.31865">
        <ele>622</ele>
        <time>2021-08-04T10:19:46Z</time>
      </trkpt>
      <trkpt lat="48.24352" lon="7.31865">
        <ele>622.3</ele>
        <time>2021-08-04T10:19:48Z</time>
      </trkpt>
      <trkpt lat="48.24349" lon="7.31865">
        <ele>622.5</ele>
        <time>2021-08-04T10:19:49Z</time>
      </trkpt>
      <trkpt lat="48.24347" lon="7.31863">
        <ele>622.8</ele>
        <time>2021-08-04T10:19:51Z</time>
      </trkpt>
      <trkpt lat="48.24346" lon="7.31862">
        <ele>622.9</ele>
        <time>2021-08-04T10:19:52Z</time>
      </trkpt>
      <trkpt lat="48.24346" lon="7.31861">
        <ele>623</ele>
        <time>2021-08-04T10:19:53Z</time>
      </trkpt>
      <trkpt lat="48.24345" lon="7.3186">
        <ele>623</ele>
        <time>2021-08-04T10:19:55Z</time>
      </trkpt>
      <trkpt lat="48.24345" lon="7.3186">
        <ele>623.1</ele>
        <time>2021-08-04T10:19:57Z</time>
      </trkpt>
      <trkpt lat="48.24345" lon="7.3186">
        <ele>623.1</ele>
        <time>2021-08-04T10:19:58Z</time>
      </trkpt>
      <trkpt lat="48.24345" lon="7.31859">
        <ele>623.1</ele>
        <time>2021-08-04T10:19:59Z</time>
      </trkpt>
      <trkpt lat="48.24343" lon="7.31859">
        <ele>623.2</ele>
        <time>2021-08-04T10:20:01Z</time>
      </trkpt>
      <trkpt lat="48.24341" lon="7.31859">
        <ele>623.4</ele>
        <time>2021-08-04T10:20:02Z</time>
      </trkpt>
      <trkpt lat="48.24339" lon="7.31859">
        <ele>623.7</ele>
        <time>2021-08-04T10:20:04Z</time>
      </trkpt>
      <trkpt lat="48.24337" lon="7.31859">
        <ele>623.8</ele>
        <time>2021-08-04T10:20:05Z</time>
      </trkpt>
      <trkpt lat="48.24334" lon="7.31858">
        <ele>624.1</ele>
        <time>2021-08-04T10:20:07Z</time>
      </trkpt>
      <trkpt lat="48.24201" lon="7.31721">
        <ele>638.7</ele>
        <time>2021-08-04T10:23:39Z</time>
      </trkpt>
      <trkpt lat="48.242" lon="7.31715">
        <ele>638.7</ele>
        <time>2021-08-04T10:23:40Z</time>
      </trkpt>
      <trkpt lat="48.24199" lon="7.31707">
        <ele>638.6</ele>
        <time>2021-08-04T10:23:42Z</time>
      </trkpt>
      <trkpt lat="48.24197" lon="7.31701">
        <ele>638.6</ele>
        <time>2021-08-04T10:23:43Z</time>
      </trkpt>
      <trkpt lat="48.24196" lon="7.31696">
        <ele>638.5</ele>
        <time>2021-08-04T10:23:44Z</time>
      </trkpt>
      <trkpt lat="48.24195" lon="7.31689">
        <ele>638.4</ele>
        <time>2021-08-04T10:23:45Z</time>
      </trkpt>
      <trkpt lat="48.24193" lon="7.31682">
        <ele>638.3</ele>
        <time>2021-08-04T10:23:47Z</time>
      </trkpt>
      <trkpt lat="48.24192" lon="7.31676">
        <ele>638.2</ele>
        <time>2021-08-04T10:23:49Z</time>
      </trkpt>
      <trkpt lat="48.2419" lon="7.31671">
        <ele>638.1</ele>
        <time>2021-08-04T10:23:50Z</time>
      </trkpt>
      <trkpt lat="48.24188" lon="7.31664">
        <ele>638</ele>
        <time>2021-08-04T10:23:51Z</time>
      </trkpt>
      <trkpt lat="48.24188" lon="7.31661">
        <ele>638</ele>
        <time>2021-08-04T10:23:52Z</time>
      </trkpt>
      <trkpt lat="48.24187" lon="7.31654">
        <ele>637.9</ele>
        <time>2021-08-04T10:23:54Z</time>
      </trkpt>
      <trkpt lat="48.24186" lon="7.31649">
        <ele>637.8</ele>
        <time>2021-08-04T10:23:55Z</time>
      </trkpt>
      <trkpt lat="48.24184" lon="7.31644">
        <ele>637.8</ele>
        <time>2021-08-04T10:23:56Z</time>
      </trkpt>
      <trkpt lat="48.24184" lon="7.3164">
        <ele>637.8</ele>
        <time>2021-08-04T10:23:57Z</time>
      </trkpt>
      <trkpt lat="48.24184" lon="7.31639">
        <ele>637.8</ele>
        <time>2021-08-04T10:23:58Z</time>
      </trkpt>
      <trkpt lat="48.24184" lon="7.31632">
        <ele>637.7</ele>
        <time>2021-08-04T10:24:00Z</time>
      </trkpt>
      <trkpt lat="48.24183" lon="7.31627">
        <ele>637.7</ele>
        <time>2021-08-04T10:24:01Z</time>
      </trkpt>
      <trkpt lat="48.24182" lon="7.31623">
        <ele>637.7</ele>
        <time>2021-08-04T10:24:02Z</time>
      </trkpt>
      <trkpt lat="48.24181" lon="7.31617">
        <ele>637.7</ele>
        <time>2021-08-04T10:24:03Z</time>
      </trkpt>
      <trkpt lat="48.24179" lon="7.31611">
        <ele>637.7</ele>
        <time>2021-08-04T10:24:05Z</time>
      </trkpt>
      <trkpt lat="48.24178" lon="7.31605">
        <ele>637.7</ele>
        <time>2021-08-04T10:24:06Z</time>
      </trkpt>
      <trkpt lat="48.24177" lon="7.31597">
        <ele>637.7</ele>
        <time>2021-08-04T10:24:08Z</time>
      </trkpt>
      <trkpt lat="48.24177" lon="7.31592">
        <ele>637.7</ele>
        <time>2021-08-04T10:24:09Z</time>
      </trkpt>
      <trkpt lat="48.24177" lon="7.31587">
        <ele>637.7</ele>
        <time>2021-08-04T10:24:10Z</time>
      </trkpt>
      <trkpt lat="48.24177" lon="7.31584">
        <ele>637.7</ele>
        <time>2021-08-04T10:24:11Z</time>
      </trkpt>
      <trkpt lat="48.24177" lon="7.31576">
        <ele>637.7</ele>
        <time>2021-08-04T10:24:13Z</time>
      </trkpt>
      <trkpt lat="48.24176" lon="7.3157">
        <ele>637.7</ele>
        <time>2021-08-04T10:24:14Z</time>
      </trkpt>
      <trkpt lat="48.24176" lon="7.31568">
        <ele>637.7</ele>
        <time>2021-08-04T10:24:15Z</time>
      </trkpt>
      <trkpt lat="48.24176" lon="7.31564">
        <ele>637.7</ele>
        <time>2021-08-04T10:24:16Z</time>
      </trkpt>
      <trkpt lat="48.24176" lon="7.31558">
        <ele>637.6</ele>
        <time>2021-08-04T10:24:18Z</time>
      </trkpt>
      <trkpt lat="48.24175" lon="7.31553">
        <ele>637.6</ele>
        <time>2021-08-04T10:24:19Z</time>
      </trkpt>
      <trkpt lat="48.24173" lon="7.31547">
        <ele>637.6</ele>
        <time>2021-08-04T10:24:21Z</time>
      </trkpt>
      <trkpt lat="48.24171" lon="7.31543">
        <ele>637.6</ele>
        <time>2021-08-04T10:24:22Z</time>
      </trkpt>
      <trkpt lat="48.24171" lon="7.31542">
        <ele>637.6</ele>
        <time>2021-08-04T10:24:23Z</time>
      </trkpt>
      <trkpt lat="48.24169" lon="7.31536">
        <ele>637.6</ele>
        <time>2021-08-04T10:24:24Z</time>
      </trkpt>
      <trkpt lat="48.24168" lon="7.31533">
        <ele>637.6</ele>
        <time>2021-08-04T10:24:25Z</time>
      </trkpt>
      <trkpt lat="48.24166" lon="7.31528">
        <ele>637.6</ele>
        <time>2021-08-04T10:24:26Z</time>
      </trkpt>
      <trkpt lat="48.24165" lon="7.31524">
        <ele>637.6</ele>
        <time>2021-08-04T10:24:28Z</time>
      </trkpt>
      <trkpt lat="48.24162" lon="7.3152">
        <ele>637.5</ele>
        <time>2021-08-04T10:24:29Z</time>
      </trkpt>
      <trkpt lat="48.2416" lon="7.31515">
        <ele>637.5</ele>
        <time>2021-08-04T10:24:30Z</time>
      </trkpt>
      <trkpt lat="48.24158" lon="7.31509">
        <ele>637.5</ele>
        <time>2021-08-04T10:24:31Z</time>
      </trkpt>
      <trkpt lat="48.24156" lon="7.31503">
        <ele>637.4</ele>
        <time>2021-08-04T10:24:32Z</time>
      </trkpt>
      <trkpt lat="48.24154" lon="7.31496">
        <ele>637.4</ele>
        <time>2021-08-04T10:24:33Z</time>
      </trkpt>
      <trkpt lat="48.24151" lon="7.31488">
        <ele>637.3</ele>
        <time>2021-08-04T10:24:35Z</time>
      </trkpt>
      <trkpt lat="48.24149" lon="7.31481">
        <ele>637.2</ele>
        <time>2021-08-04T10:24:36Z</time>
      </trkpt>
      <trkpt lat="48.24145" lon="7.31472">
        <ele>637.1</ele>
        <time>2021-08-04T10:24:37Z</time>
      </trkpt>
      <trkpt lat="48.24143" lon="7.31461">
        <ele>637</ele>
        <time>2021-08-04T10:24:39Z</time>
      </trkpt>
      <trkpt lat="48.24142" lon="7.31448">
        <ele>636.9</ele>
        <time>2021-08-04T10:24:40Z</time>
      </trkpt>
      <trkpt lat="48.2414" lon="7.3144">
        <ele>636.7</ele>
        <time>2021-08-04T10:24:41Z</time>
      </trkpt>
      <trkpt lat="48.24137" lon="7.3143">
        <ele>636.6</ele>
        <time>2021-08-04T10:24:42Z</time>
      </trkpt>
      <trkpt lat="48.24132" lon="7.31422">
        <ele>636.5</ele>
        <time>2021-08-04T10:24:44Z</time>
      </trkpt>
      <trkpt lat="48.24129" lon="7.31415">
        <ele>636.4</ele>
        <time>2021-08-04T10:24:45Z</time>
      </trkpt>
      <trkpt lat="48.24126" lon="7.31409">
        <ele>636.3</ele>
        <time>2021-08-04T10:24:46Z</time>
      </trkpt>
      <trkpt lat="48.24123" lon="7.31402">
        <ele>636.3</ele>
        <time>2021-08-04T10:24:47Z</time>
      </trkpt>
      <trkpt lat="48.24117" lon="7.31393">
        <ele>636.3</ele>
        <time>2021-08-04T10:24:49Z</time>
      </trkpt>
      <trkpt lat="48.24114" lon="7.31386">
        <ele>636.3</ele>
        <time>2021-08-04T10:24:50Z</time>
      </trkpt>
      <trkpt lat="48.24111" lon="7.3138">
        <ele>636.3</ele>
        <time>2021-08-04T10:24:51Z</time>
      </trkpt>
      <trkpt lat="48.24106" lon="7.31374">
        <ele>636.3</ele>
        <time>2021-08-04T10:24:52Z</time>
      </trkpt>
      <trkpt lat="48.24102" lon="7.31367">
        <ele>636.4</ele>
        <time>2021-08-04T10:24:54Z</time>
      </trkpt>
      <trkpt lat="48.24098" lon="7.31359">
        <ele>636.5</ele>
        <time>2021-08-04T10:24:55Z</time>
      </trkpt>
      <trkpt lat="48.24095" lon="7.31351">
        <ele>636.7</ele>
        <time>2021-08-04T10:24:57Z</time>
      </trkpt>
      <trkpt lat="48.24093" lon="7.31345">
        <ele>636.8</ele>
        <time>2021-08-04T10:24:58Z</time>
      </trkpt>
      <trkpt lat="48.24091" lon="7.31336">
        <ele>636.9</ele>
        <time>2021-08-04T10:24:59Z</time>
      </trkpt>
      <trkpt lat="48.24089" lon="7.31329">
        <ele>637</ele>
        <time>2021-08-04T10:25:01Z</time>
      </trkpt>
      <trkpt lat="48.24085" lon="7.31321">
        <ele>637.2</ele>
        <time>2021-08-04T10:25:02Z</time>
      </trkpt>
      <trkpt lat="48.24083" lon="7.31316">
        <ele>637.3</ele>
        <time>2021-08-04T10:25:03Z</time>
      </trkpt>
      <trkpt lat="48.24081" lon="7.3131">
        <ele>637.4</ele>
        <time>2021-08-04T10:25:04Z</time>
      </trkpt>
      <trkpt lat="48.2408" lon="7.31302">
        <ele>637.5</ele>
        <time>2021-08-04T10:25:06Z</time>
      </trkpt>
      <trkpt lat="48.24079" lon="7.31291">
        <ele>637.8</ele>
        <time>2021-08-04T10:25:08Z</time>
      </trkpt>
      <trkpt lat="48.24078" lon="7.3128">
        <ele>638</ele>
        <time>2021-08-04T10:25:10Z</time>
      </trkpt>
      <trkpt lat="48.24077" lon="7.31275">
        <ele>638</ele>
        <time>2021-08-04T10:25:11Z</time>
      </trkpt>
      <trkpt lat="48.24076" lon="7.31269">
        <ele>638.1</ele>
        <time>2021-08-04T10:25:12Z</time>
      </trkpt>
      <trkpt lat="48.24076" lon="7.31262">
        <ele>638.2</ele>
        <time>2021-08-04T10:25:13Z</time>
      </trkpt>
      <trkpt lat="48.24076" lon="7.31257">
        <ele>638.3</ele>
        <time>2021-08-04T10:25:14Z</time>
      </trkpt>
      <trkpt lat="48.24076" lon="7.31252">
        <ele>638.4</ele>
        <time>2021-08-04T10:25:15Z</time>
      </trkpt>
      <trkpt lat="48.24076" lon="7.31248">
        <ele>638.4</ele>
        <time>2021-08-04T10:25:16Z</time>
      </trkpt>
      <trkpt lat="48.24076" lon="7.31243">
        <ele>638.5</ele>
        <time>2021-08-04T10:25:17Z</time>
      </trkpt>
      <trkpt lat="48.24076" lon="7.31238">
        <ele>638.5</ele>
        <time>2021-08-04T10:25:19Z</time>
      </trkpt>
      <trkpt lat="48.24076" lon="7.31233">
        <ele>638.6</ele>
        <time>2021-08-04T10:25:20Z</time>
      </trkpt>
      <trkpt lat="48.24076" lon="7.31228">
        <ele>638.6</ele>
        <time>2021-08-04T10:25:21Z</time>
      </trkpt>
      <trkpt lat="48.24077" lon="7.31223">
        <ele>638.7</ele>
        <time>2021-08-04T10:25:22Z</time>
      </trkpt>
      <trkpt lat="48.24077" lon="7.31214">
        <ele>638.8</ele>
        <time>2021-08-04T10:25:23Z</time>
      </trkpt>
      <trkpt lat="48.24077" lon="7.31208">
        <ele>638.9</ele>
        <time>2021-08-04T10:25:25Z</time>
      </trkpt>
      <trkpt lat="48.24078" lon="7.31203">
        <ele>638.9</ele>
        <time>2021-08-04T10:25:26Z</time>
      </trkpt>
      <trkpt lat="48.2408" lon="7.31198">
        <ele>639</ele>
        <time>2021-08-04T10:25:27Z</time>
      </trkpt>
      <trkpt lat="48.24082" lon="7.31193">
        <ele>639</ele>
        <time>2021-08-04T10:25:28Z</time>
      </trkpt>
      <trkpt lat="48.24083" lon="7.31188">
        <ele>639.1</ele>
        <time>2021-08-04T10:25:29Z</time>
      </trkpt>
      <trkpt lat="48.24084" lon="7.31181">
        <ele>639.2</ele>
        <time>2021-08-04T10:25:31Z</time>
      </trkpt>
      <trkpt lat="48.24085" lon="7.31174">
        <ele>639.3</ele>
        <time>2021-08-04T10:25:32Z</time>
      </trkpt>
      <trkpt lat="48.24086" lon="7.31169">
        <ele>639.3</ele>
        <time>2021-08-04T10:25:33Z</time>
      </trkpt>
      <trkpt lat="48.24085" lon="7.31164">
        <ele>639.4</ele>
        <time>2021-08-04T10:25:34Z</time>
      </trkpt>
      <trkpt lat="48.24084" lon="7.31159">
        <ele>639.4</ele>
        <time>2021-08-04T10:25:35Z</time>
      </trkpt>
      <trkpt lat="48.24084" lon="7.31154">
        <ele>639.4</ele>
        <time>2021-08-04T10:25:37Z</time>
      </trkpt>
      <trkpt lat="48.24082" lon="7.3115">
        <ele>639.5</ele>
        <time>2021-08-04T10:25:38Z</time>
      </trkpt>
      <trkpt lat="48.24081" lon="7.31147">
        <ele>639.5</ele>
        <time>2021-08-04T10:25:39Z</time>
      </trkpt>
      <trkpt lat="48.24082" lon="7.31141">
        <ele>639.5</ele>
        <time>2021-08-04T10:25:41Z</time>
      </trkpt>
      <trkpt lat="48.24083" lon="7.31137">
        <ele>639.5</ele>
        <time>2021-08-04T10:25:42Z</time>
      </trkpt>
      <trkpt lat="48.24082" lon="7.3113">
        <ele>639.5</ele>
        <time>2021-08-04T10:25:44Z</time>
      </trkpt>
      <trkpt lat="48.24083" lon="7.31125">
        <ele>639.5</ele>
        <time>2021-08-04T10:25:45Z</time>
      </trkpt>
      <trkpt lat="48.24085" lon="7.31119">
        <ele>639.6</ele>
        <time>2021-08-04T10:25:46Z</time>
      </trkpt>
      <trkpt lat="48.24085" lon="7.31111">
        <ele>639.6</ele>
        <time>2021-08-04T10:25:48Z</time>
      </trkpt>
      <trkpt lat="48.24086" lon="7.31107">
        <ele>639.6</ele>
        <time>2021-08-04T10:25:49Z</time>
      </trkpt>
      <trkpt lat="48.24085" lon="7.31099">
        <ele>639.6</ele>
        <time>2021-08-04T10:25:51Z</time>
      </trkpt>
      <trkpt lat="48.24084" lon="7.31093">
        <ele>639.6</ele>
        <time>2021-08-04T10:25:52Z</time>
      </trkpt>
      <trkpt lat="48.24084" lon="7.31084">
        <ele>639.6</ele>
        <time>2021-08-04T10:25:54Z</time>
      </trkpt>
      <trkpt lat="48.24085" lon="7.31076">
        <ele>639.6</ele>
        <time>2021-08-04T10:25:55Z</time>
      </trkpt>
      <trkpt lat="48.24086" lon="7.31071">
        <ele>639.7</ele>
        <time>2021-08-04T10:25:57Z</time>
      </trkpt>
      <trkpt lat="48.24088" lon="7.31064">
        <ele>639.7</ele>
        <time>2021-08-04T10:25:59Z</time>
      </trkpt>
      <trkpt lat="48.2409" lon="7.3106">
        <ele>639.7</ele>
        <time>2021-08-04T10:26:00Z</time>
      </trkpt>
      <trkpt lat="48.2409" lon="7.31054">
        <ele>639.7</ele>
        <time>2021-08-04T10:26:01Z</time>
      </trkpt>
      <trkpt lat="48.2409" lon="7.31053">
        <ele>639.7</ele>
        <time>2021-08-04T10:26:02Z</time>
      </trkpt>
      <trkpt lat="48.2409" lon="7.31047">
        <ele>639.7</ele>
        <time>2021-08-04T10:26:03Z</time>
      </trkpt>
      <trkpt lat="48.24089" lon="7.31041">
        <ele>639.7</ele>
        <time>2021-08-04T10:26:05Z</time>
      </trkpt>
      <trkpt lat="48.24088" lon="7.31037">
        <ele>639.7</ele>
        <time>2021-08-04T10:26:06Z</time>
      </trkpt>
      <trkpt lat="48.24087" lon="7.31033">
        <ele>639.7</ele>
        <time>2021-08-04T10:26:07Z</time>
      </trkpt>
      <trkpt lat="48.24086" lon="7.31026">
        <ele>639.7</ele>
        <time>2021-08-04T10:26:09Z</time>
      </trkpt>
      <trkpt lat="48.24086" lon="7.3102">
        <ele>639.7</ele>
        <time>2021-08-04T10:26:10Z</time>
      </trkpt>
      <trkpt lat="48.24086" lon="7.31015">
        <ele>639.6</ele>
        <time>2021-08-04T10:26:11Z</time>
      </trkpt>
      <trkpt lat="48.24086" lon="7.3101">
        <ele>639.6</ele>
        <time>2021-08-04T10:26:12Z</time>
      </trkpt>
      <trkpt lat="48.24087" lon="7.31003">
        <ele>639.6</ele>
        <time>2021-08-04T10:26:14Z</time>
      </trkpt>
      <trkpt lat="48.24088" lon="7.30998">
        <ele>639.6</ele>
        <time>2021-08-04T10:26:15Z</time>
      </trkpt>
      <trkpt lat="48.24091" lon="7.3099">
        <ele>639.5</ele>
        <time>2021-08-04T10:26:16Z</time>
      </trkpt>
      <trkpt lat="48.24093" lon="7.30982">
        <ele>639.5</ele>
        <time>2021-08-04T10:26:18Z</time>
      </trkpt>
      <trkpt lat="48.24096" lon="7.30975">
        <ele>639.4</ele>
        <time>2021-08-04T10:26:19Z</time>
      </trkpt>
      <trkpt lat="48.24098" lon="7.30969">
        <ele>639.4</ele>
        <time>2021-08-04T10:26:20Z</time>
      </trkpt>
      <trkpt lat="48.24101" lon="7.30963">
        <ele>639.4</ele>
        <time>2021-08-04T10:26:21Z</time>
      </trkpt>
      <trkpt lat="48.24104" lon="7.30955">
        <ele>639.4</ele>
        <time>2021-08-04T10:26:23Z</time>
      </trkpt>
      <trkpt lat="48.24107" lon="7.30947">
        <ele>639.3</ele>
        <time>2021-08-04T10:26:24Z</time>
      </trkpt>
      <trkpt lat="48.24111" lon="7.3094">
        <ele>639.3</ele>
        <time>2021-08-04T10:26:25Z</time>
      </trkpt>
      <trkpt lat="48.24116" lon="7.30935">
        <ele>639.4</ele>
        <time>2021-08-04T10:26:27Z</time>
      </trkpt>
      <trkpt lat="48.2412" lon="7.30929">
        <ele>639.4</ele>
        <time>2021-08-04T10:26:29Z</time>
      </trkpt>
      <trkpt lat="48.24124" lon="7.30925">
        <ele>639.5</ele>
        <time>2021-08-04T10:26:30Z</time>
      </trkpt>
      <trkpt lat="48.24128" lon="7.30921">
        <ele>639.5</ele>
        <time>2021-08-04T10:26:31Z</time>
      </trkpt>
      <trkpt lat="48.24132" lon="7.30919">
        <ele>639.5</ele>
        <time>2021-08-04T10:26:32Z</time>
      </trkpt>
      <trkpt lat="48.24135" lon="7.30917">
        <ele>639.5</ele>
        <time>2021-08-04T10:26:34Z</time>
      </trkpt>
      <trkpt lat="48.2414" lon="7.30914">
        <ele>639.6</ele>
        <time>2021-08-04T10:26:35Z</time>
      </trkpt>
      <trkpt lat="48.24144" lon="7.3091">
        <ele>639.6</ele>
        <time>2021-08-04T10:26:36Z</time>
      </trkpt>
      <trkpt lat="48.24148" lon="7.30907">
        <ele>639.6</ele>
        <time>2021-08-04T10:26:37Z</time>
      </trkpt>
      <trkpt lat="48.24152" lon="7.30904">
        <ele>639.6</ele>
        <time>2021-08-04T10:26:38Z</time>
      </trkpt>
      <trkpt lat="48.24157" lon="7.309">
        <ele>639.5</ele>
        <time>2021-08-04T10:26:39Z</time>
      </trkpt>
      <trkpt lat="48.2416" lon="7.30898">
        <ele>639.5</ele>
        <time>2021-08-04T10:26:40Z</time>
      </trkpt>
      <trkpt lat="48.24163" lon="7.30895">
        <ele>639.5</ele>
        <time>2021-08-04T10:26:41Z</time>
      </trkpt>
      <trkpt lat="48.24167" lon="7.30891">
        <ele>639.5</ele>
        <time>2021-08-04T10:26:42Z</time>
      </trkpt>
      <trkpt lat="48.24171" lon="7.30886">
        <ele>639.5</ele>
        <time>2021-08-04T10:26:44Z</time>
      </trkpt>
      <trkpt lat="48.24175" lon="7.30881">
        <ele>639.5</ele>
        <time>2021-08-04T10:26:45Z</time>
      </trkpt>
      <trkpt lat="48.2418" lon="7.30871">
        <ele>639.5</ele>
        <time>2021-08-04T10:26:47Z</time>
      </trkpt>
      <trkpt lat="48.24182" lon="7.30865">
        <ele>639.5</ele>
        <time>2021-08-04T10:26:48Z</time>
      </trkpt>
      <trkpt lat="48.24185" lon="7.30858">
        <ele>639.5</ele>
        <time>2021-08-04T10:26:49Z</time>
      </trkpt>
      <trkpt lat="48.24187" lon="7.30851">
        <ele>639.5</ele>
        <time>2021-08-04T10:26:50Z</time>
      </trkpt>
      <trkpt lat="48.24189" lon="7.30846">
        <ele>639.5</ele>
        <time>2021-08-04T10:26:51Z</time>
      </trkpt>
      <trkpt lat="48.24193" lon="7.30836">
        <ele>639.5</ele>
        <time>2021-08-04T10:26:52Z</time>
      </trkpt>
      <trkpt lat="48.24194" lon="7.30829">
        <ele>639.6</ele>
        <time>2021-08-04T10:26:54Z</time>
      </trkpt>
      <trkpt lat="48.24195" lon="7.30823">
        <ele>639.6</ele>
        <time>2021-08-04T10:26:55Z</time>
      </trkpt>
      <trkpt lat="48.24196" lon="7.30813">
        <ele>639.7</ele>
        <time>2021-08-04T10:26:56Z</time>
      </trkpt>
      <trkpt lat="48.24196" lon="7.30806">
        <ele>639.8</ele>
        <time>2021-08-04T10:26:58Z</time>
      </trkpt>
      <trkpt lat="48.24197" lon="7.30802">
        <ele>639.9</ele>
        <time>2021-08-04T10:26:59Z</time>
      </trkpt>
      <trkpt lat="48.24197" lon="7.30797">
        <ele>640</ele>
        <time>2021-08-04T10:27:00Z</time>
      </trkpt>
      <trkpt lat="48.24196" lon="7.30789">
        <ele>640.1</ele>
        <time>2021-08-04T10:27:02Z</time>
      </trkpt>
      <trkpt lat="48.24196" lon="7.30785">
        <ele>640.2</ele>
        <time>2021-08-04T10:27:03Z</time>
      </trkpt>
      <trkpt lat="48.24195" lon="7.30781">
        <ele>640.3</ele>
        <time>2021-08-04T10:27:04Z</time>
      </trkpt>
      <trkpt lat="48.24196" lon="7.30775">
        <ele>640.4</ele>
        <time>2021-08-04T10:27:06Z</time>
      </trkpt>
      <trkpt lat="48.24195" lon="7.30768">
        <ele>640.5</ele>
        <time>2021-08-04T10:27:08Z</time>
      </trkpt>
      <trkpt lat="48.24195" lon="7.30764">
        <ele>640.6</ele>
        <time>2021-08-04T10:27:09Z</time>
      </trkpt>
      <trkpt lat="48.24195" lon="7.30762">
        <ele>640.6</ele>
        <time>2021-08-04T10:27:10Z</time>
      </trkpt>
      <trkpt lat="48.24195" lon="7.30759">
        <ele>640.7</ele>
        <time>2021-08-04T10:27:11Z</time>
      </trkpt>
      <trkpt lat="48.24195" lon="7.30755">
        <ele>640.7</ele>
        <time>2021-08-04T10:27:13Z</time>
      </trkpt>
      <trkpt lat="48.24195" lon="7.30753">
        <ele>640.8</ele>
        <time>2021-08-04T10:27:14Z</time>
      </trkpt>
      <trkpt lat="48.24195" lon="7.3075">
        <ele>640.8</ele>
        <time>2021-08-04T10:27:15Z</time>
      </trkpt>
      <trkpt lat="48.24194" lon="7.30744">
        <ele>640.9</ele>
        <time>2021-08-04T10:27:17Z</time>
      </trkpt>
      <trkpt lat="48.24194" lon="7.3074">
        <ele>640.9</ele>
        <time>2021-08-04T10:27:18Z</time>
      </trkpt>
      <trkpt lat="48.24193" lon="7.30736">
        <ele>640.9</ele>
        <time>2021-08-04T10:27:20Z</time>
      </trkpt>
      <trkpt lat="48.24191" lon="7.30729">
        <ele>641</ele>
        <time>2021-08-04T10:27:21Z</time>
      </trkpt>
      <trkpt lat="48.24191" lon="7.30727">
        <ele>641</ele>
        <time>2021-08-04T10:27:22Z</time>
      </trkpt>
      <trkpt lat="48.24191" lon="7.30718">
        <ele>641</ele>
        <time>2021-08-04T10:27:24Z</time>
      </trkpt>
      <trkpt lat="48.24193" lon="7.30713">
        <ele>641</ele>
        <time>2021-08-04T10:27:25Z</time>
      </trkpt>
      <trkpt lat="48.24193" lon="7.30711">
        <ele>641</ele>
        <time>2021-08-04T10:27:26Z</time>
      </trkpt>
      <trkpt lat="48.24193" lon="7.30703">
        <ele>641.1</ele>
        <time>2021-08-04T10:27:28Z</time>
      </trkpt>
      <trkpt lat="48.24194" lon="7.30698">
        <ele>641.1</ele>
        <time>2021-08-04T10:27:29Z</time>
      </trkpt>
      <trkpt lat="48.24195" lon="7.30693">
        <ele>641.1</ele>
        <time>2021-08-04T10:27:30Z</time>
      </trkpt>
      <trkpt lat="48.24195" lon="7.30687">
        <ele>641.1</ele>
        <time>2021-08-04T10:27:31Z</time>
      </trkpt>
      <trkpt lat="48.24195" lon="7.30681">
        <ele>641.1</ele>
        <time>2021-08-04T10:27:33Z</time>
      </trkpt>
      <trkpt lat="48.24195" lon="7.30676">
        <ele>641.2</ele>
        <time>2021-08-04T10:27:34Z</time>
      </trkpt>
      <trkpt lat="48.24195" lon="7.30671">
        <ele>641.2</ele>
        <time>2021-08-04T10:27:35Z</time>
      </trkpt>
      <trkpt lat="48.24194" lon="7.30665">
        <ele>641.2</ele>
        <time>2021-08-04T10:27:36Z</time>
      </trkpt>
      <trkpt lat="48.24193" lon="7.3066">
        <ele>641.3</ele>
        <time>2021-08-04T10:27:37Z</time>
      </trkpt>
      <trkpt lat="48.24192" lon="7.30653">
        <ele>641.3</ele>
        <time>2021-08-04T10:27:39Z</time>
      </trkpt>
      <trkpt lat="48.2419" lon="7.30646">
        <ele>641.4</ele>
        <time>2021-08-04T10:27:40Z</time>
      </trkpt>
      <trkpt lat="48.24189" lon="7.30642">
        <ele>641.5</ele>
        <time>2021-08-04T10:27:41Z</time>
      </trkpt>
      <trkpt lat="48.2419" lon="7.30636">
        <ele>641.5</ele>
        <time>2021-08-04T10:27:43Z</time>
      </trkpt>
      <trkpt lat="48.2419" lon="7.30632">
        <ele>641.6</ele>
        <time>2021-08-04T10:27:44Z</time>
      </trkpt>
      <trkpt lat="48.24189" lon="7.30627">
        <ele>641.6</ele>
        <time>2021-08-04T10:27:46Z</time>
      </trkpt>
      <trkpt lat="48.24188" lon="7.30623">
        <ele>641.7</ele>
        <time>2021-08-04T10:27:47Z</time>
      </trkpt>
      <trkpt lat="48.24189" lon="7.30619">
        <ele>641.7</ele>
        <time>2021-08-04T10:27:48Z</time>
      </trkpt>
      <trkpt lat="48.24189" lon="7.30617">
        <ele>641.7</ele>
        <time>2021-08-04T10:27:49Z</time>
      </trkpt>
      <trkpt lat="48.24193" lon="7.30612">
        <ele>641.8</ele>
        <time>2021-08-04T10:27:51Z</time>
      </trkpt>
      <trkpt lat="48.24195" lon="7.3061">
        <ele>641.8</ele>
        <time>2021-08-04T10:27:52Z</time>
      </trkpt>
      <trkpt lat="48.24197" lon="7.30609">
        <ele>641.9</ele>
        <time>2021-08-04T10:27:53Z</time>
      </trkpt>
      <trkpt lat="48.24198" lon="7.30608">
        <ele>641.9</ele>
        <time>2021-08-04T10:27:55Z</time>
      </trkpt>
      <trkpt lat="48.24198" lon="7.30608">
        <ele>641.9</ele>
        <time>2021-08-04T10:27:56Z</time>
      </trkpt>
      <trkpt lat="48.24199" lon="7.30606">
        <ele>641.9</ele>
        <time>2021-08-04T10:27:57Z</time>
      </trkpt>
      <trkpt lat="48.24199" lon="7.30604">
        <ele>642</ele>
        <time>2021-08-04T10:27:58Z</time>
      </trkpt>
      <trkpt lat="48.242" lon="7.30601">
        <ele>642</ele>
        <time>2021-08-04T10:27:59Z</time>
      </trkpt>
      <trkpt lat="48.24201" lon="7.30597">
        <ele>642</ele>
        <time>2021-08-04T10:28:01Z</time>
      </trkpt>
      <trkpt lat="48.24202" lon="7.30594">
        <ele>642.1</ele>
        <time>2021-08-04T10:28:02Z</time>
      </trkpt>
      <trkpt lat="48.24205" lon="7.30585">
        <ele>642.2</ele>
        <time>2021-08-04T10:28:03Z</time>
      </trkpt>
      <trkpt lat="48.24207" lon="7.30578">
        <ele>642.2</ele>
        <time>2021-08-04T10:28:04Z</time>
      </trkpt>
      <trkpt lat="48.2421" lon="7.30571">
        <ele>642.3</ele>
        <time>2021-08-04T10:28:06Z</time>
      </trkpt>
      <trkpt lat="48.24212" lon="7.30566">
        <ele>642.4</ele>
        <time>2021-08-04T10:28:07Z</time>
      </trkpt>
      <trkpt lat="48.24214" lon="7.3056">
        <ele>642.4</ele>
        <time>2021-08-04T10:28:08Z</time>
      </trkpt>
      <trkpt lat="48.24216" lon="7.30556">
        <ele>642.5</ele>
        <time>2021-08-04T10:28:09Z</time>
      </trkpt>
      <trkpt lat="48.24218" lon="7.30553">
        <ele>642.6</ele>
        <time>2021-08-04T10:28:11Z</time>
      </trkpt>
      <trkpt lat="48.24219" lon="7.30549">
        <ele>642.6</ele>
        <time>2021-08-04T10:28:12Z</time>
      </trkpt>
      <trkpt lat="48.24221" lon="7.30546">
        <ele>642.7</ele>
        <time>2021-08-04T10:28:13Z</time>
      </trkpt>
      <trkpt lat="48.24223" lon="7.30542">
        <ele>642.7</ele>
        <time>2021-08-04T10:28:14Z</time>
      </trkpt>
      <trkpt lat="48.24224" lon="7.30538">
        <ele>642.8</ele>
        <time>2021-08-04T10:28:15Z</time>
      </trkpt>
      <trkpt lat="48.24225" lon="7.30534">
        <ele>642.9</ele>
        <time>2021-08-04T10:28:16Z</time>
      </trkpt>
      <trkpt lat="48.24226" lon="7.30529">
        <ele>642.9</ele>
        <time>2021-08-04T10:28:18Z</time>
      </trkpt>
      <trkpt lat="48.24226" lon="7.30528">
        <ele>643</ele>
        <time>2021-08-04T10:28:19Z</time>
      </trkpt>
      <trkpt lat="48.24227" lon="7.30523">
        <ele>643</ele>
        <time>2021-08-04T10:28:20Z</time>
      </trkpt>
      <trkpt lat="48.24227" lon="7.30522">
        <ele>643.1</ele>
        <time>2021-08-04T10:28:21Z</time>
      </trkpt>
      <trkpt lat="48.24229" lon="7.30516">
        <ele>643.2</ele>
        <time>2021-08-04T10:28:22Z</time>
      </trkpt>
      <trkpt lat="48.2423" lon="7.30512">
        <ele>643.2</ele>
        <time>2021-08-04T10:28:24Z</time>
      </trkpt>
      <trkpt lat="48.24231" lon="7.30509">
        <ele>643.3</ele>
        <time>2021-08-04T10:28:25Z</time>
      </trkpt>
      <trkpt lat="48.24233" lon="7.30507">
        <ele>643.3</ele>
        <time>2021-08-04T10:28:26Z</time>
      </trkpt>
      <trkpt lat="48.24236" lon="7.30502">
        <ele>643.4</ele>
        <time>2021-08-04T10:28:28Z</time>
      </trkpt>
      <trkpt lat="48.2424" lon="7.30498">
        <ele>643.6</ele>
        <time>2021-08-04T10:28:29Z</time>
      </trkpt>
      <trkpt lat="48.24243" lon="7.30495">
        <ele>643.7</ele>
        <time>2021-08-04T10:28:31Z</time>
      </trkpt>
      <trkpt lat="48.24245" lon="7.30492">
        <ele>643.7</ele>
        <time>2021-08-04T10:28:32Z</time>
      </trkpt>
      <trkpt lat="48.24246" lon="7.30489">
        <ele>643.8</ele>
        <time>2021-08-04T10:28:34Z</time>
      </trkpt>
      <trkpt lat="48.24247" lon="7.30486">
        <ele>643.8</ele>
        <time>2021-08-04T10:28:35Z</time>
      </trkpt>
      <trkpt lat="48.24247" lon="7.30484">
        <ele>643.9</ele>
        <time>2021-08-04T10:28:36Z</time>
      </trkpt>
      <trkpt lat="48.24248" lon="7.3048">
        <ele>643.9</ele>
        <time>2021-08-04T10:28:37Z</time>
      </trkpt>
      <trkpt lat="48.24248" lon="7.30478">
        <ele>643.9</ele>
        <time>2021-08-04T10:28:38Z</time>
      </trkpt>
      <trkpt lat="48.24249" lon="7.30476">
        <ele>644</ele>
        <time>2021-08-04T10:28:39Z</time>
      </trkpt>
      <trkpt lat="48.2425" lon="7.30474">
        <ele>644</ele>
        <time>2021-08-04T10:28:41Z</time>
      </trkpt>
      <trkpt lat="48.24251" lon="7.30472">
        <ele>644</ele>
        <time>2021-08-04T10:28:42Z</time>
      </trkpt>
      <trkpt lat="48.24251" lon="7.3047">
        <ele>644</ele>
        <time>2021-08-04T10:28:43Z</time>
      </trkpt>
      <trkpt lat="48.24253" lon="7.30467">
        <ele>644.1</ele>
        <time>2021-08-04T10:28:45Z</time>
      </trkpt>
      <trkpt lat="48.24254" lon="7.30465">
        <ele>644.1</ele>
        <time>2021-08-04T10:28:46Z</time>
      </trkpt>
      <trkpt lat="48.24256" lon="7.30461">
        <ele>644.2</ele>
        <time>2021-08-04T10:28:48Z</time>
      </trkpt>
      <trkpt lat="48.24258" lon="7.30457">
        <ele>644.2</ele>
        <time>2021-08-04T10:28:49Z</time>
      </trkpt>
      <trkpt lat="48.24259" lon="7.30455">
        <ele>644.3</ele>
        <time>2021-08-04T10:28:50Z</time>
      </trkpt>
      <trkpt lat="48.24262" lon="7.30452">
        <ele>644.3</ele>
        <time>2021-08-04T10:28:51Z</time>
      </trkpt>
      <trkpt lat="48.24266" lon="7.30448">
        <ele>644.4</ele>
        <time>2021-08-04T10:28:53Z</time>
      </trkpt>
      <trkpt lat="48.24269" lon="7.30446">
        <ele>644.5</ele>
        <time>2021-08-04T10:28:54Z</time>
      </trkpt>
      <trkpt lat="48.24273" lon="7.30442">
        <ele>644.6</ele>
        <time>2021-08-04T10:28:55Z</time>
      </trkpt>
      <trkpt lat="48.24277" lon="7.30438">
        <ele>644.7</ele>
        <time>2021-08-04T10:28:57Z</time>
      </trkpt>
      <trkpt lat="48.2428" lon="7.30434">
        <ele>644.8</ele>
        <time>2021-08-04T10:28:58Z</time>
      </trkpt>
      <trkpt lat="48.24284" lon="7.3043">
        <ele>644.9</ele>
        <time>2021-08-04T10:28:59Z</time>
      </trkpt>
      <trkpt lat="48.24287" lon="7.30427">
        <ele>645</ele>
        <time>2021-08-04T10:29:01Z</time>
      </trkpt>
      <trkpt lat="48.2429" lon="7.30424">
        <ele>645.1</ele>
        <time>2021-08-04T10:29:02Z</time>
      </trkpt>
      <trkpt lat="48.24294" lon="7.3042">
        <ele>645.2</ele>
        <time>2021-08-04T10:29:03Z</time>
      </trkpt>
      <trkpt lat="48.24297" lon="7.30418">
        <ele>645.3</ele>
        <time>2021-08-04T10:29:04Z</time>
      </trkpt>
      <trkpt lat="48.24299" lon="7.30415">
        <ele>645.3</ele>
        <time>2021-08-04T10:29:06Z</time>
      </trkpt>
      <trkpt lat="48.24303" lon="7.30412">
        <ele>645.5</ele>
        <time>2021-08-04T10:29:07Z</time>
      </trkpt>
      <trkpt lat="48.24307" lon="7.30409">
        <ele>645.6</ele>
        <time>2021-08-04T10:29:08Z</time>
      </trkpt>
      <trkpt lat="48.2431" lon="7.30407">
        <ele>645.7</ele>
        <time>2021-08-04T10:29:10Z</time>
      </trkpt>
      <trkpt lat="48.24313" lon="7.30405">
        <ele>645.8</ele>
        <time>2021-08-04T10:29:11Z</time>
      </trkpt>
      <trkpt lat="48.24315" lon="7.30403">
        <ele>645.9</ele>
        <time>2021-08-04T10:29:12Z</time>
      </trkpt>
      <trkpt lat="48.24318" lon="7.304">
        <ele>646</ele>
        <time>2021-08-04T10:29:13Z</time>
      </trkpt>
      <trkpt lat="48.24321" lon="7.30398">
        <ele>646.1</ele>
        <time>2021-08-04T10:29:14Z</time>
      </trkpt>
      <trkpt lat="48.24324" lon="7.30395">
        <ele>646.3</ele>
        <time>2021-08-04T10:29:15Z</time>
      </trkpt>
      <trkpt lat="48.24328" lon="7.30393">
        <ele>646.4</ele>
        <time>2021-08-04T10:29:17Z</time>
      </trkpt>
      <trkpt lat="48.2433" lon="7.30391">
        <ele>646.5</ele>
        <time>2021-08-04T10:29:18Z</time>
      </trkpt>
      <trkpt lat="48.24332" lon="7.30389">
        <ele>646.6</ele>
        <time>2021-08-04T10:29:19Z</time>
      </trkpt>
      <trkpt lat="48.24333" lon="7.30388">
        <ele>646.6</ele>
        <time>2021-08-04T10:29:20Z</time>
      </trkpt>
      <trkpt lat="48.24336" lon="7.30385">
        <ele>646.7</ele>
        <time>2021-08-04T10:29:21Z</time>
      </trkpt>
      <trkpt lat="48.24338" lon="7.30383">
        <ele>646.8</ele>
        <time>2021-08-04T10:29:22Z</time>
      </trkpt>
      <trkpt lat="48.24341" lon="7.30379">
        <ele>646.9</ele>
        <time>2021-08-04T10:29:24Z</time>
      </trkpt>
      <trkpt lat="48.24345" lon="7.30375">
        <ele>647.1</ele>
        <time>2021-08-04T10:29:25Z</time>
      </trkpt>
      <trkpt lat="48.24348" lon="7.3037">
        <ele>647.2</ele>
        <time>2021-08-04T10:29:27Z</time>
      </trkpt>
      <trkpt lat="48.24351" lon="7.30365">
        <ele>647.4</ele>
        <time>2021-08-04T10:29:28Z</time>
      </trkpt>
      <trkpt lat="48.24352" lon="7.30363">
        <ele>647.5</ele>
        <time>2021-08-04T10:29:29Z</time>
      </trkpt>
      <trkpt lat="48.24354" lon="7.30359">
        <ele>647.6</ele>
        <time>2021-08-04T10:29:30Z</time>
      </trkpt>
      <trkpt lat="48.24357" lon="7.30353">
        <ele>647.8</ele>
        <time>2021-08-04T10:29:32Z</time>
      </trkpt>
      <trkpt lat="48.24357" lon="7.30351">
        <ele>647.8</ele>
        <time>2021-08-04T10:29:33Z</time>
      </trkpt>
      <trkpt lat="48.24358" lon="7.30349">
        <ele>647.9</ele>
        <time>2021-08-04T10:29:34Z</time>
      </trkpt>
      <trkpt lat="48.24359" lon="7.30344">
        <ele>648</ele>
        <time>2021-08-04T10:29:35Z</time>
      </trkpt>
      <trkpt lat="48.24359" lon="7.30343">
        <ele>648.1</ele>
        <time>2021-08-04T10:29:36Z</time>
      </trkpt>
      <trkpt lat="48.2436" lon="7.30341">
        <ele>648.1</ele>
        <time>2021-08-04T10:29:38Z</time>
      </trkpt>
      <trkpt lat="48.24359" lon="7.30339">
        <ele>648.2</ele>
        <time>2021-08-04T10:29:40Z</time>
      </trkpt>
      <trkpt lat="48.24358" lon="7.30338">
        <ele>648.3</ele>
        <time>2021-08-04T10:29:41Z</time>
      </trkpt>
      <trkpt lat="48.24359" lon="7.30336">
        <ele>648.4</ele>
        <time>2021-08-04T10:29:42Z</time>
      </trkpt>
      <trkpt lat="48.24359" lon="7.30333">
        <ele>648.4</ele>
        <time>2021-08-04T10:29:43Z</time>
      </trkpt>
      <trkpt lat="48.24359" lon="7.30332">
        <ele>648.5</ele>
        <time>2021-08-04T10:29:45Z</time>
      </trkpt>
      <trkpt lat="48.24358" lon="7.3033">
        <ele>648.6</ele>
        <time>2021-08-04T10:29:46Z</time>
      </trkpt>
      <trkpt lat="48.24358" lon="7.30329">
        <ele>648.6</ele>
        <time>2021-08-04T10:29:47Z</time>
      </trkpt>
      <trkpt lat="48.24358" lon="7.30328">
        <ele>648.6</ele>
        <time>2021-08-04T10:29:49Z</time>
      </trkpt>
      <trkpt lat="48.24358" lon="7.30327">
        <ele>648.7</ele>
        <time>2021-08-04T10:29:51Z</time>
      </trkpt>
      <trkpt lat="48.24359" lon="7.30326">
        <ele>648.7</ele>
        <time>2021-08-04T10:29:52Z</time>
      </trkpt>
      <trkpt lat="48.24392" lon="7.30214">
        <ele>653.1</ele>
        <time>2021-08-04T10:30:59Z</time>
      </trkpt>
      <trkpt lat="48.24392" lon="7.30207">
        <ele>653.4</ele>
        <time>2021-08-04T10:31:01Z</time>
      </trkpt>
      <trkpt lat="48.24392" lon="7.30204">
        <ele>653.5</ele>
        <time>2021-08-04T10:31:03Z</time>
      </trkpt>
      <trkpt lat="48.24392" lon="7.30202">
        <ele>653.6</ele>
        <time>2021-08-04T10:31:04Z</time>
      </trkpt>
      <trkpt lat="48.2439" lon="7.30199">
        <ele>653.7</ele>
        <time>2021-08-04T10:31:05Z</time>
      </trkpt>
      <trkpt lat="48.24389" lon="7.30196">
        <ele>653.8</ele>
        <time>2021-08-04T10:31:07Z</time>
      </trkpt>
      <trkpt lat="48.24387" lon="7.30193">
        <ele>654</ele>
        <time>2021-08-04T10:31:08Z</time>
      </trkpt>
      <trkpt lat="48.24387" lon="7.30192">
        <ele>654.1</ele>
        <time>2021-08-04T10:31:09Z</time>
      </trkpt>
      <trkpt lat="48.24389" lon="7.30188">
        <ele>654.3</ele>
        <time>2021-08-04T10:31:10Z</time>
      </trkpt>
      <trkpt lat="48.24389" lon="7.30187">
        <ele>654.3</ele>
        <time>2021-08-04T10:31:11Z</time>
      </trkpt>
      <trkpt lat="48.2439" lon="7.30186">
        <ele>654.4</ele>
        <time>2021-08-04T10:31:13Z</time>
      </trkpt>
      <trkpt lat="48.2439" lon="7.30185">
        <ele>654.4</ele>
        <time>2021-08-04T10:31:14Z</time>
      </trkpt>
      <trkpt lat="48.24391" lon="7.30184">
        <ele>654.5</ele>
        <time>2021-08-04T10:31:15Z</time>
      </trkpt>
      <trkpt lat="48.2439" lon="7.30183">
        <ele>654.5</ele>
        <time>2021-08-04T10:31:16Z</time>
      </trkpt>
      <trkpt lat="48.2439" lon="7.30182">
        <ele>654.6</ele>
        <time>2021-08-04T10:31:17Z</time>
      </trkpt>
      <trkpt lat="48.24389" lon="7.30181">
        <ele>654.7</ele>
        <time>2021-08-04T10:31:19Z</time>
      </trkpt>
      <trkpt lat="48.24387" lon="7.30181">
        <ele>654.7</ele>
        <time>2021-08-04T10:31:20Z</time>
      </trkpt>
      <trkpt lat="48.24386" lon="7.30179">
        <ele>654.9</ele>
        <time>2021-08-04T10:31:21Z</time>
      </trkpt>
      <trkpt lat="48.24385" lon="7.30178">
        <ele>654.9</ele>
        <time>2021-08-04T10:31:22Z</time>
      </trkpt>
      <trkpt lat="48.24385" lon="7.30177">
        <ele>655</ele>
        <time>2021-08-04T10:31:24Z</time>
      </trkpt>
      <trkpt lat="48.24385" lon="7.30175">
        <ele>655.1</ele>
        <time>2021-08-04T10:31:25Z</time>
      </trkpt>
      <trkpt lat="48.24385" lon="7.30174">
        <ele>655.1</ele>
        <time>2021-08-04T10:31:27Z</time>
      </trkpt>
      <trkpt lat="48.24385" lon="7.30172">
        <ele>655.2</ele>
        <time>2021-08-04T10:31:28Z</time>
      </trkpt>
      <trkpt lat="48.24386" lon="7.30159">
        <ele>655.8</ele>
        <time>2021-08-04T10:31:33Z</time>
      </trkpt>
      <trkpt lat="48.24387" lon="7.30155">
        <ele>656</ele>
        <time>2021-08-04T10:31:34Z</time>
      </trkpt>
      <trkpt lat="48.24389" lon="7.30152">
        <ele>656.2</ele>
        <time>2021-08-04T10:31:35Z</time>
      </trkpt>
      <trkpt lat="48.2439" lon="7.30151">
        <ele>656.3</ele>
        <time>2021-08-04T10:31:36Z</time>
      </trkpt>
      <trkpt lat="48.24392" lon="7.30148">
        <ele>656.5</ele>
        <time>2021-08-04T10:31:38Z</time>
      </trkpt>
      <trkpt lat="48.24392" lon="7.30145">
        <ele>656.7</ele>
        <time>2021-08-04T10:31:39Z</time>
      </trkpt>
      <trkpt lat="48.24392" lon="7.30143">
        <ele>656.7</ele>
        <time>2021-08-04T10:31:40Z</time>
      </trkpt>
      <trkpt lat="48.24392" lon="7.30142">
        <ele>656.8</ele>
        <time>2021-08-04T10:31:41Z</time>
      </trkpt>
      <trkpt lat="48.24392" lon="7.3014">
        <ele>656.9</ele>
        <time>2021-08-04T10:31:43Z</time>
      </trkpt>
      <trkpt lat="48.24392" lon="7.3014">
        <ele>656.9</ele>
        <time>2021-08-04T10:31:44Z</time>
      </trkpt>
      <trkpt lat="48.24392" lon="7.3014">
        <ele>656.9</ele>
        <time>2021-08-04T10:31:45Z</time>
      </trkpt>
      <trkpt lat="48.24392" lon="7.30139">
        <ele>656.9</ele>
        <time>2021-08-04T10:31:46Z</time>
      </trkpt>
      <trkpt lat="48.24391" lon="7.30139">
        <ele>656.9</ele>
        <time>2021-08-04T10:31:47Z</time>
      </trkpt>
      <trkpt lat="48.24391" lon="7.30139">
        <ele>657</ele>
        <time>2021-08-04T10:31:49Z</time>
      </trkpt>
      <trkpt lat="48.24392" lon="7.30137">
        <ele>657.1</ele>
        <time>2021-08-04T10:31:51Z</time>
      </trkpt>
      <trkpt lat="48.24393" lon="7.30135">
        <ele>657.2</ele>
        <time>2021-08-04T10:31:52Z</time>
      </trkpt>
      <trkpt lat="48.24394" lon="7.30131">
        <ele>657.4</ele>
        <time>2021-08-04T10:31:53Z</time>
      </trkpt>
      <trkpt lat="48.24394" lon="7.3013">
        <ele>657.5</ele>
        <time>2021-08-04T10:31:54Z</time>
      </trkpt>
      <trkpt lat="48.2441" lon="7.30096">
        <ele>659</ele>
        <time>2021-08-04T10:32:14Z</time>
      </trkpt>
      <trkpt lat="48.24411" lon="7.30094">
        <ele>659.1</ele>
        <time>2021-08-04T10:32:15Z</time>
      </trkpt>
      <trkpt lat="48.24413" lon="7.30089">
        <ele>659.3</ele>
        <time>2021-08-04T10:32:17Z</time>
      </trkpt>
      <trkpt lat="48.24413" lon="7.30087">
        <ele>659.3</ele>
        <time>2021-08-04T10:32:18Z</time>
      </trkpt>
      <trkpt lat="48.24413" lon="7.30085">
        <ele>659.4</ele>
        <time>2021-08-04T10:32:20Z</time>
      </trkpt>
      <trkpt lat="48.24414" lon="7.30084">
        <ele>659.5</ele>
        <time>2021-08-04T10:32:21Z</time>
      </trkpt>
      <trkpt lat="48.24414" lon="7.30083">
        <ele>659.5</ele>
        <time>2021-08-04T10:32:22Z</time>
      </trkpt>
      <trkpt lat="48.24415" lon="7.3008">
        <ele>659.6</ele>
        <time>2021-08-04T10:32:23Z</time>
      </trkpt>
      <trkpt lat="48.24416" lon="7.30077">
        <ele>659.7</ele>
        <time>2021-08-04T10:32:24Z</time>
      </trkpt>
      <trkpt lat="48.24417" lon="7.30075">
        <ele>659.8</ele>
        <time>2021-08-04T10:32:26Z</time>
      </trkpt>
      <trkpt lat="48.24419" lon="7.30072">
        <ele>659.9</ele>
        <time>2021-08-04T10:32:27Z</time>
      </trkpt>
      <trkpt lat="48.24422" lon="7.30069">
        <ele>660.1</ele>
        <time>2021-08-04T10:32:29Z</time>
      </trkpt>
      <trkpt lat="48.24424" lon="7.30067">
        <ele>660.2</ele>
        <time>2021-08-04T10:32:30Z</time>
      </trkpt>
      <trkpt lat="48.24425" lon="7.30065">
        <ele>660.3</ele>
        <time>2021-08-04T10:32:32Z</time>
      </trkpt>
      <trkpt lat="48.24427" lon="7.30062">
        <ele>660.4</ele>
        <time>2021-08-04T10:32:33Z</time>
      </trkpt>
      <trkpt lat="48.24427" lon="7.30061">
        <ele>660.5</ele>
        <time>2021-08-04T10:32:34Z</time>
      </trkpt>
      <trkpt lat="48.24428" lon="7.30059">
        <ele>660.5</ele>
        <time>2021-08-04T10:32:36Z</time>
      </trkpt>
      <trkpt lat="48.24429" lon="7.30058">
        <ele>660.5</ele>
        <time>2021-08-04T10:32:38Z</time>
      </trkpt>
      <trkpt lat="48.24429" lon="7.30058">
        <ele>660.6</ele>
        <time>2021-08-04T10:32:39Z</time>
      </trkpt>
      <trkpt lat="48.24429" lon="7.30058">
        <ele>660.6</ele>
        <time>2021-08-04T10:32:40Z</time>
      </trkpt>
      <trkpt lat="48.24429" lon="7.30057">
        <ele>660.6</ele>
        <time>2021-08-04T10:32:42Z</time>
      </trkpt>
      <trkpt lat="48.24429" lon="7.30056">
        <ele>660.6</ele>
        <time>2021-08-04T10:32:44Z</time>
      </trkpt>
      <trkpt lat="48.2443" lon="7.30055">
        <ele>660.6</ele>
        <time>2021-08-04T10:32:45Z</time>
      </trkpt>
      <trkpt lat="48.2443" lon="7.30054">
        <ele>660.7</ele>
        <time>2021-08-04T10:32:46Z</time>
      </trkpt>
      <trkpt lat="48.24434" lon="7.30039">
        <ele>661</ele>
        <time>2021-08-04T10:32:53Z</time>
      </trkpt>
      <trkpt lat="48.24435" lon="7.30033">
        <ele>661.1</ele>
        <time>2021-08-04T10:32:55Z</time>
      </trkpt>
      <trkpt lat="48.24435" lon="7.30028">
        <ele>661.2</ele>
        <time>2021-08-04T10:32:56Z</time>
      </trkpt>
      <trkpt lat="48.24434" lon="7.3002">
        <ele>661.4</ele>
        <time>2021-08-04T10:32:57Z</time>
      </trkpt>
      <trkpt lat="48.24434" lon="7.30014">
        <ele>661.5</ele>
        <time>2021-08-04T10:32:59Z</time>
      </trkpt>
      <trkpt lat="48.24434" lon="7.30009">
        <ele>661.6</ele>
        <time>2021-08-04T10:33:00Z</time>
      </trkpt>
      <trkpt lat="48.24434" lon="7.30004">
        <ele>661.7</ele>
        <time>2021-08-04T10:33:01Z</time>
      </trkpt>
      <trkpt lat="48.24432" lon="7.29999">
        <ele>661.8</ele>
        <time>2021-08-04T10:33:02Z</time>
      </trkpt>
      <trkpt lat="48.24432" lon="7.29998">
        <ele>661.8</ele>
        <time>2021-08-04T10:33:03Z</time>
      </trkpt>
      <trkpt lat="48.24431" lon="7.29993">
        <ele>661.9</ele>
        <time>2021-08-04T10:33:05Z</time>
      </trkpt>
      <trkpt lat="48.24431" lon="7.29991">
        <ele>661.9</ele>
        <time>2021-08-04T10:33:06Z</time>
      </trkpt>
      <trkpt lat="48.2443" lon="7.29987">
        <ele>662</ele>
        <time>2021-08-04T10:33:07Z</time>
      </trkpt>
      <trkpt lat="48.2443" lon="7.29984">
        <ele>662</ele>
        <time>2021-08-04T10:33:08Z</time>
      </trkpt>
      <trkpt lat="48.2443" lon="7.29981">
        <ele>662.1</ele>
        <time>2021-08-04T10:33:10Z</time>
      </trkpt>
      <trkpt lat="48.2443" lon="7.29979">
        <ele>662.1</ele>
        <time>2021-08-04T10:33:11Z</time>
      </trkpt>
      <trkpt lat="48.24429" lon="7.29976">
        <ele>662.2</ele>
        <time>2021-08-04T10:33:12Z</time>
      </trkpt>
      <trkpt lat="48.24427" lon="7.29972">
        <ele>662.3</ele>
        <time>2021-08-04T10:33:14Z</time>
      </trkpt>
      <trkpt lat="48.24426" lon="7.2997">
        <ele>662.3</ele>
        <time>2021-08-04T10:33:15Z</time>
      </trkpt>
      <trkpt lat="48.24425" lon="7.29966">
        <ele>662.4</ele>
        <time>2021-08-04T10:33:16Z</time>
      </trkpt>
      <trkpt lat="48.24424" lon="7.29964">
        <ele>662.4</ele>
        <time>2021-08-04T10:33:17Z</time>
      </trkpt>
      <trkpt lat="48.24424" lon="7.29958">
        <ele>662.5</ele>
        <time>2021-08-04T10:33:18Z</time>
      </trkpt>
      <trkpt lat="48.24424" lon="7.29956">
        <ele>662.6</ele>
        <time>2021-08-04T10:33:19Z</time>
      </trkpt>
      <trkpt lat="48.24423" lon="7.29952">
        <ele>662.7</ele>
        <time>2021-08-04T10:33:20Z</time>
      </trkpt>
      <trkpt lat="48.24423" lon="7.2995">
        <ele>662.7</ele>
        <time>2021-08-04T10:33:22Z</time>
      </trkpt>
      <trkpt lat="48.24423" lon="7.29948">
        <ele>662.8</ele>
        <time>2021-08-04T10:33:23Z</time>
      </trkpt>
      <trkpt lat="48.24423" lon="7.29944">
        <ele>662.8</ele>
        <time>2021-08-04T10:33:24Z</time>
      </trkpt>
      <trkpt lat="48.24421" lon="7.29941">
        <ele>662.9</ele>
        <time>2021-08-04T10:33:25Z</time>
      </trkpt>
      <trkpt lat="48.2442" lon="7.29938">
        <ele>663</ele>
        <time>2021-08-04T10:33:27Z</time>
      </trkpt>
      <trkpt lat="48.24418" lon="7.29933">
        <ele>663.1</ele>
        <time>2021-08-04T10:33:28Z</time>
      </trkpt>
      <trkpt lat="48.24417" lon="7.29932">
        <ele>663.1</ele>
        <time>2021-08-04T10:33:29Z</time>
      </trkpt>
      <trkpt lat="48.24416" lon="7.29927">
        <ele>663.2</ele>
        <time>2021-08-04T10:33:31Z</time>
      </trkpt>
      <trkpt lat="48.24416" lon="7.29925">
        <ele>663.3</ele>
        <time>2021-08-04T10:33:32Z</time>
      </trkpt>
      <trkpt lat="48.24415" lon="7.29918">
        <ele>663.4</ele>
        <time>2021-08-04T10:33:34Z</time>
      </trkpt>
      <trkpt lat="48.24414" lon="7.29915">
        <ele>663.5</ele>
        <time>2021-08-04T10:33:36Z</time>
      </trkpt>
      <trkpt lat="48.24414" lon="7.29912">
        <ele>663.5</ele>
        <time>2021-08-04T10:33:37Z</time>
      </trkpt>
      <trkpt lat="48.24413" lon="7.29909">
        <ele>663.6</ele>
        <time>2021-08-04T10:33:38Z</time>
      </trkpt>
      <trkpt lat="48.24412" lon="7.29904">
        <ele>663.7</ele>
        <time>2021-08-04T10:33:40Z</time>
      </trkpt>
      <trkpt lat="48.24412" lon="7.29902">
        <ele>663.7</ele>
        <time>2021-08-04T10:33:41Z</time>
      </trkpt>
      <trkpt lat="48.24412" lon="7.29897">
        <ele>663.8</ele>
        <time>2021-08-04T10:33:42Z</time>
      </trkpt>
      <trkpt lat="48.24411" lon="7.29895">
        <ele>663.8</ele>
        <time>2021-08-04T10:33:43Z</time>
      </trkpt>
      <trkpt lat="48.2441" lon="7.29891">
        <ele>663.9</ele>
        <time>2021-08-04T10:33:44Z</time>
      </trkpt>
      <trkpt lat="48.24409" lon="7.29886">
        <ele>663.9</ele>
        <time>2021-08-04T10:33:46Z</time>
      </trkpt>
      <trkpt lat="48.24408" lon="7.29882">
        <ele>664</ele>
        <time>2021-08-04T10:33:47Z</time>
      </trkpt>
      <trkpt lat="48.24407" lon="7.29879">
        <ele>664.1</ele>
        <time>2021-08-04T10:33:48Z</time>
      </trkpt>
      <trkpt lat="48.24406" lon="7.29873">
        <ele>664.1</ele>
        <time>2021-08-04T10:33:50Z</time>
      </trkpt>
      <trkpt lat="48.24405" lon="7.29871">
        <ele>664.2</ele>
        <time>2021-08-04T10:33:51Z</time>
      </trkpt>
      <trkpt lat="48.24403" lon="7.29868">
        <ele>664.2</ele>
        <time>2021-08-04T10:33:52Z</time>
      </trkpt>
      <trkpt lat="48.244" lon="7.29865">
        <ele>664.3</ele>
        <time>2021-08-04T10:33:53Z</time>
      </trkpt>
      <trkpt lat="48.24398" lon="7.29861">
        <ele>664.4</ele>
        <time>2021-08-04T10:33:55Z</time>
      </trkpt>
      <trkpt lat="48.24395" lon="7.29857">
        <ele>664.5</ele>
        <time>2021-08-04T10:33:56Z</time>
      </trkpt>
      <trkpt lat="48.24394" lon="7.29855">
        <ele>664.5</ele>
        <time>2021-08-04T10:33:57Z</time>
      </trkpt>
      <trkpt lat="48.24392" lon="7.2985">
        <ele>664.6</ele>
        <time>2021-08-04T10:33:59Z</time>
      </trkpt>
      <trkpt lat="48.24391" lon="7.29846">
        <ele>664.7</ele>
        <time>2021-08-04T10:34:00Z</time>
      </trkpt>
      <trkpt lat="48.24391" lon="7.29844">
        <ele>664.7</ele>
        <time>2021-08-04T10:34:01Z</time>
      </trkpt>
      <trkpt lat="48.24391" lon="7.29838">
        <ele>664.8</ele>
        <time>2021-08-04T10:34:02Z</time>
      </trkpt>
      <trkpt lat="48.2439" lon="7.29835">
        <ele>664.9</ele>
        <time>2021-08-04T10:34:03Z</time>
      </trkpt>
      <trkpt lat="48.24389" lon="7.29831">
        <ele>665</ele>
        <time>2021-08-04T10:34:04Z</time>
      </trkpt>
      <trkpt lat="48.24388" lon="7.29826">
        <ele>665.1</ele>
        <time>2021-08-04T10:34:06Z</time>
      </trkpt>
      <trkpt lat="48.24387" lon="7.29822">
        <ele>665.2</ele>
        <time>2021-08-04T10:34:07Z</time>
      </trkpt>
      <trkpt lat="48.24386" lon="7.29818">
        <ele>665.3</ele>
        <time>2021-08-04T10:34:08Z</time>
      </trkpt>
      <trkpt lat="48.24385" lon="7.29812">
        <ele>665.4</ele>
        <time>2021-08-04T10:34:10Z</time>
      </trkpt>
      <trkpt lat="48.24386" lon="7.29811">
        <ele>665.5</ele>
        <time>2021-08-04T10:34:11Z</time>
      </trkpt>
      <trkpt lat="48.24387" lon="7.29807">
        <ele>665.5</ele>
        <time>2021-08-04T10:34:12Z</time>
      </trkpt>
      <trkpt lat="48.24389" lon="7.29803">
        <ele>665.6</ele>
        <time>2021-08-04T10:34:14Z</time>
      </trkpt>
      <trkpt lat="48.2439" lon="7.29798">
        <ele>665.8</ele>
        <time>2021-08-04T10:34:15Z</time>
      </trkpt>
      <trkpt lat="48.2439" lon="7.29797">
        <ele>665.8</ele>
        <time>2021-08-04T10:34:16Z</time>
      </trkpt>
      <trkpt lat="48.24391" lon="7.29791">
        <ele>665.9</ele>
        <time>2021-08-04T10:34:17Z</time>
      </trkpt>
      <trkpt lat="48.24391" lon="7.29789">
        <ele>666</ele>
        <time>2021-08-04T10:34:18Z</time>
      </trkpt>
      <trkpt lat="48.24391" lon="7.29784">
        <ele>666.1</ele>
        <time>2021-08-04T10:34:20Z</time>
      </trkpt>
      <trkpt lat="48.24391" lon="7.29783">
        <ele>666.1</ele>
        <time>2021-08-04T10:34:21Z</time>
      </trkpt>
      <trkpt lat="48.24391" lon="7.29778">
        <ele>666.2</ele>
        <time>2021-08-04T10:34:22Z</time>
      </trkpt>
      <trkpt lat="48.24392" lon="7.29773">
        <ele>666.3</ele>
        <time>2021-08-04T10:34:24Z</time>
      </trkpt>
      <trkpt lat="48.24393" lon="7.29771">
        <ele>666.4</ele>
        <time>2021-08-04T10:34:25Z</time>
      </trkpt>
      <trkpt lat="48.24393" lon="7.29766">
        <ele>666.5</ele>
        <time>2021-08-04T10:34:26Z</time>
      </trkpt>
      <trkpt lat="48.24393" lon="7.29764">
        <ele>666.5</ele>
        <time>2021-08-04T10:34:27Z</time>
      </trkpt>
      <trkpt lat="48.24393" lon="7.2976">
        <ele>666.6</ele>
        <time>2021-08-04T10:34:28Z</time>
      </trkpt>
      <trkpt lat="48.24392" lon="7.29756">
        <ele>666.7</ele>
        <time>2021-08-04T10:34:29Z</time>
      </trkpt>
      <trkpt lat="48.24391" lon="7.29751">
        <ele>666.8</ele>
        <time>2021-08-04T10:34:31Z</time>
      </trkpt>
      <trkpt lat="48.2439" lon="7.29747">
        <ele>666.9</ele>
        <time>2021-08-04T10:34:32Z</time>
      </trkpt>
      <trkpt lat="48.2439" lon="7.29744">
        <ele>667</ele>
        <time>2021-08-04T10:34:33Z</time>
      </trkpt>
      <trkpt lat="48.24391" lon="7.2974">
        <ele>667</ele>
        <time>2021-08-04T10:34:35Z</time>
      </trkpt>
      <trkpt lat="48.24393" lon="7.29736">
        <ele>667.1</ele>
        <time>2021-08-04T10:34:36Z</time>
      </trkpt>
      <trkpt lat="48.24394" lon="7.29733">
        <ele>667.2</ele>
        <time>2021-08-04T10:34:38Z</time>
      </trkpt>
      <trkpt lat="48.24395" lon="7.29728">
        <ele>667.3</ele>
        <time>2021-08-04T10:34:40Z</time>
      </trkpt>
      <trkpt lat="48.24395" lon="7.29723">
        <ele>667.4</ele>
        <time>2021-08-04T10:34:41Z</time>
      </trkpt>
      <trkpt lat="48.24395" lon="7.29721">
        <ele>667.4</ele>
        <time>2021-08-04T10:34:42Z</time>
      </trkpt>
      <trkpt lat="48.24394" lon="7.29716">
        <ele>667.5</ele>
        <time>2021-08-04T10:34:44Z</time>
      </trkpt>
      <trkpt lat="48.24393" lon="7.29711">
        <ele>667.5</ele>
        <time>2021-08-04T10:34:45Z</time>
      </trkpt>
      <trkpt lat="48.24392" lon="7.29706">
        <ele>667.6</ele>
        <time>2021-08-04T10:34:46Z</time>
      </trkpt>
      <trkpt lat="48.24391" lon="7.29701">
        <ele>667.7</ele>
        <time>2021-08-04T10:34:48Z</time>
      </trkpt>
      <trkpt lat="48.24388" lon="7.29697">
        <ele>667.8</ele>
        <time>2021-08-04T10:34:49Z</time>
      </trkpt>
      <trkpt lat="48.24383" lon="7.29694">
        <ele>667.9</ele>
        <time>2021-08-04T10:34:51Z</time>
      </trkpt>
      <trkpt lat="48.2438" lon="7.29689">
        <ele>668</ele>
        <time>2021-08-04T10:34:52Z</time>
      </trkpt>
      <trkpt lat="48.2438" lon="7.29688">
        <ele>668</ele>
        <time>2021-08-04T10:34:53Z</time>
      </trkpt>
      <trkpt lat="48.24378" lon="7.29683">
        <ele>668.1</ele>
        <time>2021-08-04T10:34:55Z</time>
      </trkpt>
      <trkpt lat="48.24378" lon="7.2968">
        <ele>668.2</ele>
        <time>2021-08-04T10:34:56Z</time>
      </trkpt>
      <trkpt lat="48.24379" lon="7.29674">
        <ele>668.3</ele>
        <time>2021-08-04T10:34:58Z</time>
      </trkpt>
      <trkpt lat="48.24378" lon="7.2967">
        <ele>668.4</ele>
        <time>2021-08-04T10:34:59Z</time>
      </trkpt>
      <trkpt lat="48.24377" lon="7.29665">
        <ele>668.5</ele>
        <time>2021-08-04T10:35:00Z</time>
      </trkpt>
      <trkpt lat="48.24376" lon="7.29663">
        <ele>668.5</ele>
        <time>2021-08-04T10:35:01Z</time>
      </trkpt>
      <trkpt lat="48.24374" lon="7.29658">
        <ele>668.6</ele>
        <time>2021-08-04T10:35:03Z</time>
      </trkpt>
      <trkpt lat="48.24373" lon="7.29657">
        <ele>668.7</ele>
        <time>2021-08-04T10:35:04Z</time>
      </trkpt>
      <trkpt lat="48.24372" lon="7.29652">
        <ele>668.8</ele>
        <time>2021-08-04T10:35:06Z</time>
      </trkpt>
      <trkpt lat="48.24372" lon="7.2965">
        <ele>668.8</ele>
        <time>2021-08-04T10:35:07Z</time>
      </trkpt>
      <trkpt lat="48.24371" lon="7.29647">
        <ele>668.9</ele>
        <time>2021-08-04T10:35:08Z</time>
      </trkpt>
      <trkpt lat="48.2437" lon="7.29645">
        <ele>669</ele>
        <time>2021-08-04T10:35:09Z</time>
      </trkpt>
      <trkpt lat="48.24369" lon="7.29643">
        <ele>669</ele>
        <time>2021-08-04T10:35:11Z</time>
      </trkpt>
      <trkpt lat="48.24368" lon="7.29641">
        <ele>669.1</ele>
        <time>2021-08-04T10:35:12Z</time>
      </trkpt>
      <trkpt lat="48.24367" lon="7.2964">
        <ele>669.1</ele>
        <time>2021-08-04T10:35:13Z</time>
      </trkpt>
      <trkpt lat="48.24363" lon="7.29637">
        <ele>669.3</ele>
        <time>2021-08-04T10:35:15Z</time>
      </trkpt>
      <trkpt lat="48.24362" lon="7.29635">
        <ele>669.4</ele>
        <time>2021-08-04T10:35:16Z</time>
      </trkpt>
      <trkpt lat="48.24361" lon="7.29634">
        <ele>669.4</ele>
        <time>2021-08-04T10:35:17Z</time>
      </trkpt>
      <trkpt lat="48.2436" lon="7.2963">
        <ele>669.5</ele>
        <time>2021-08-04T10:35:19Z</time>
      </trkpt>
      <trkpt lat="48.24359" lon="7.29629">
        <ele>669.6</ele>
        <time>2021-08-04T10:35:20Z</time>
      </trkpt>
      <trkpt lat="48.24358" lon="7.29625">
        <ele>669.7</ele>
        <time>2021-08-04T10:35:21Z</time>
      </trkpt>
      <trkpt lat="48.24357" lon="7.29622">
        <ele>669.8</ele>
        <time>2021-08-04T10:35:22Z</time>
      </trkpt>
      <trkpt lat="48.24357" lon="7.29619">
        <ele>669.9</ele>
        <time>2021-08-04T10:35:24Z</time>
      </trkpt>
      <trkpt lat="48.24357" lon="7.29617">
        <ele>670</ele>
        <time>2021-08-04T10:35:25Z</time>
      </trkpt>
      <trkpt lat="48.24357" lon="7.29616">
        <ele>670</ele>
        <time>2021-08-04T10:35:26Z</time>
      </trkpt>
      <trkpt lat="48.24358" lon="7.29615">
        <ele>670</ele>
        <time>2021-08-04T10:35:27Z</time>
      </trkpt>
      <trkpt lat="48.24357" lon="7.29612">
        <ele>670.1</ele>
        <time>2021-08-04T10:35:28Z</time>
      </trkpt>
      <trkpt lat="48.24357" lon="7.29611">
        <ele>670.2</ele>
        <time>2021-08-04T10:35:30Z</time>
      </trkpt>
      <trkpt lat="48.24357" lon="7.29609">
        <ele>670.2</ele>
        <time>2021-08-04T10:35:31Z</time>
      </trkpt>
      <trkpt lat="48.24355" lon="7.29602">
        <ele>670.5</ele>
        <time>2021-08-04T10:35:33Z</time>
      </trkpt>
      <trkpt lat="48.24355" lon="7.296">
        <ele>670.5</ele>
        <time>2021-08-04T10:35:34Z</time>
      </trkpt>
      <trkpt lat="48.24355" lon="7.29598">
        <ele>670.6</ele>
        <time>2021-08-04T10:35:35Z</time>
      </trkpt>
      <trkpt lat="48.24355" lon="7.29593">
        <ele>670.8</ele>
        <time>2021-08-04T10:35:37Z</time>
      </trkpt>
      <trkpt lat="48.24355" lon="7.2959">
        <ele>670.9</ele>
        <time>2021-08-04T10:35:38Z</time>
      </trkpt>
      <trkpt lat="48.24355" lon="7.29583">
        <ele>671.1</ele>
        <time>2021-08-04T10:35:40Z</time>
      </trkpt>
      <trkpt lat="48.24354" lon="7.29578">
        <ele>671.3</ele>
        <time>2021-08-04T10:35:41Z</time>
      </trkpt>
      <trkpt lat="48.24353" lon="7.29577">
        <ele>671.3</ele>
        <time>2021-08-04T10:35:42Z</time>
      </trkpt>
      <trkpt lat="48.24352" lon="7.29573">
        <ele>671.5</ele>
        <time>2021-08-04T10:35:44Z</time>
      </trkpt>
      <trkpt lat="48.24351" lon="7.29572">
        <ele>671.5</ele>
        <time>2021-08-04T10:35:45Z</time>
      </trkpt>
      <trkpt lat="48.2435" lon="7.29567">
        <ele>671.7</ele>
        <time>2021-08-04T10:35:46Z</time>
      </trkpt>
      <trkpt lat="48.2435" lon="7.29566">
        <ele>671.7</ele>
        <time>2021-08-04T10:35:47Z</time>
      </trkpt>
      <trkpt lat="48.24349" lon="7.29564">
        <ele>671.8</ele>
        <time>2021-08-04T10:35:49Z</time>
      </trkpt>
      <trkpt lat="48.24349" lon="7.29563">
        <ele>671.9</ele>
        <time>2021-08-04T10:35:50Z</time>
      </trkpt>
      <trkpt lat="48.24348" lon="7.29562">
        <ele>672</ele>
        <time>2021-08-04T10:35:51Z</time>
      </trkpt>
      <trkpt lat="48.24348" lon="7.29558">
        <ele>672.1</ele>
        <time>2021-08-04T10:35:53Z</time>
      </trkpt>
      <trkpt lat="48.24348" lon="7.29555">
        <ele>672.2</ele>
        <time>2021-08-04T10:35:54Z</time>
      </trkpt>
      <trkpt lat="48.24348" lon="7.2955">
        <ele>672.4</ele>
        <time>2021-08-04T10:35:56Z</time>
      </trkpt>
      <trkpt lat="48.24348" lon="7.29546">
        <ele>672.6</ele>
        <time>2021-08-04T10:35:57Z</time>
      </trkpt>
      <trkpt lat="48.24348" lon="7.29542">
        <ele>672.7</ele>
        <time>2021-08-04T10:35:58Z</time>
      </trkpt>
      <trkpt lat="48.24348" lon="7.2954">
        <ele>672.8</ele>
        <time>2021-08-04T10:35:59Z</time>
      </trkpt>
      <trkpt lat="48.24348" lon="7.29537">
        <ele>672.9</ele>
        <time>2021-08-04T10:36:01Z</time>
      </trkpt>
      <trkpt lat="48.24347" lon="7.29532">
        <ele>673.1</ele>
        <time>2021-08-04T10:36:03Z</time>
      </trkpt>
      <trkpt lat="48.24346" lon="7.2953">
        <ele>673.2</ele>
        <time>2021-08-04T10:36:04Z</time>
      </trkpt>
      <trkpt lat="48.24346" lon="7.29528">
        <ele>673.3</ele>
        <time>2021-08-04T10:36:05Z</time>
      </trkpt>
      <trkpt lat="48.24346" lon="7.29524">
        <ele>673.5</ele>
        <time>2021-08-04T10:36:07Z</time>
      </trkpt>
      <trkpt lat="48.24345" lon="7.29521">
        <ele>673.6</ele>
        <time>2021-08-04T10:36:08Z</time>
      </trkpt>
      <trkpt lat="48.24344" lon="7.29518">
        <ele>673.7</ele>
        <time>2021-08-04T10:36:10Z</time>
      </trkpt>
      <trkpt lat="48.24343" lon="7.29517">
        <ele>673.8</ele>
        <time>2021-08-04T10:36:11Z</time>
      </trkpt>
      <trkpt lat="48.24342" lon="7.29515">
        <ele>673.9</ele>
        <time>2021-08-04T10:36:12Z</time>
      </trkpt>
      <trkpt lat="48.24342" lon="7.29514">
        <ele>673.9</ele>
        <time>2021-08-04T10:36:13Z</time>
      </trkpt>
      <trkpt lat="48.24342" lon="7.29511">
        <ele>674</ele>
        <time>2021-08-04T10:36:14Z</time>
      </trkpt>
      <trkpt lat="48.24342" lon="7.29508">
        <ele>674.1</ele>
        <time>2021-08-04T10:36:16Z</time>
      </trkpt>
      <trkpt lat="48.24342" lon="7.29506">
        <ele>674.2</ele>
        <time>2021-08-04T10:36:17Z</time>
      </trkpt>
      <trkpt lat="48.24342" lon="7.29502">
        <ele>674.4</ele>
        <time>2021-08-04T10:36:19Z</time>
      </trkpt>
      <trkpt lat="48.24341" lon="7.29501">
        <ele>674.4</ele>
        <time>2021-08-04T10:36:20Z</time>
      </trkpt>
      <trkpt lat="48.24341" lon="7.295">
        <ele>674.5</ele>
        <time>2021-08-04T10:36:21Z</time>
      </trkpt>
      <trkpt lat="48.2434" lon="7.29499">
        <ele>674.5</ele>
        <time>2021-08-04T10:36:23Z</time>
      </trkpt>
      <trkpt lat="48.2434" lon="7.29499">
        <ele>674.5</ele>
        <time>2021-08-04T10:36:24Z</time>
      </trkpt>
      <trkpt lat="48.24339" lon="7.29495">
        <ele>674.7</ele>
        <time>2021-08-04T10:36:26Z</time>
      </trkpt>
      <trkpt lat="48.24338" lon="7.29494">
        <ele>674.8</ele>
        <time>2021-08-04T10:36:27Z</time>
      </trkpt>
      <trkpt lat="48.24337" lon="7.29491">
        <ele>674.9</ele>
        <time>2021-08-04T10:36:28Z</time>
      </trkpt>
      <trkpt lat="48.24336" lon="7.29488">
        <ele>675</ele>
        <time>2021-08-04T10:36:29Z</time>
      </trkpt>
      <trkpt lat="48.24334" lon="7.29485">
        <ele>675.2</ele>
        <time>2021-08-04T10:36:31Z</time>
      </trkpt>
      <trkpt lat="48.24333" lon="7.29484">
        <ele>675.2</ele>
        <time>2021-08-04T10:36:32Z</time>
      </trkpt>
      <trkpt lat="48.24332" lon="7.29478">
        <ele>675.4</ele>
        <time>2021-08-04T10:36:34Z</time>
      </trkpt>
      <trkpt lat="48.24331" lon="7.29476">
        <ele>675.5</ele>
        <time>2021-08-04T10:36:35Z</time>
      </trkpt>
      <trkpt lat="48.24331" lon="7.29475">
        <ele>675.6</ele>
        <time>2021-08-04T10:36:36Z</time>
      </trkpt>
      <trkpt lat="48.2433" lon="7.29474">
        <ele>675.6</ele>
        <time>2021-08-04T10:36:37Z</time>
      </trkpt>
      <trkpt lat="48.24329" lon="7.2947">
        <ele>675.8</ele>
        <time>2021-08-04T10:36:39Z</time>
      </trkpt>
      <trkpt lat="48.24328" lon="7.29468">
        <ele>675.8</ele>
        <time>2021-08-04T10:36:40Z</time>
      </trkpt>
      <trkpt lat="48.24327" lon="7.29465">
        <ele>675.9</ele>
        <time>2021-08-04T10:36:41Z</time>
      </trkpt>
      <trkpt lat="48.24326" lon="7.29462">
        <ele>676</ele>
        <time>2021-08-04T10:36:42Z</time>
      </trkpt>
      <trkpt lat="48.24325" lon="7.29459">
        <ele>676.1</ele>
        <time>2021-08-04T10:36:44Z</time>
      </trkpt>
      <trkpt lat="48.24325" lon="7.29457">
        <ele>676.2</ele>
        <time>2021-08-04T10:36:45Z</time>
      </trkpt>
      <trkpt lat="48.24325" lon="7.29455">
        <ele>676.3</ele>
        <time>2021-08-04T10:36:47Z</time>
      </trkpt>
      <trkpt lat="48.24324" lon="7.29449">
        <ele>676.4</ele>
        <time>2021-08-04T10:36:48Z</time>
      </trkpt>
      <trkpt lat="48.24324" lon="7.29443">
        <ele>676.6</ele>
        <time>2021-08-04T10:36:49Z</time>
      </trkpt>
      <trkpt lat="48.24324" lon="7.29442">
        <ele>676.7</ele>
        <time>2021-08-04T10:36:50Z</time>
      </trkpt>
      <trkpt lat="48.24323" lon="7.29438">
        <ele>676.8</ele>
        <time>2021-08-04T10:36:52Z</time>
      </trkpt>
      <trkpt lat="48.24322" lon="7.29436">
        <ele>676.8</ele>
        <time>2021-08-04T10:36:53Z</time>
      </trkpt>
      <trkpt lat="48.24321" lon="7.29434">
        <ele>676.9</ele>
        <time>2021-08-04T10:36:54Z</time>
      </trkpt>
      <trkpt lat="48.24319" lon="7.2943">
        <ele>677.1</ele>
        <time>2021-08-04T10:36:56Z</time>
      </trkpt>
      <trkpt lat="48.24316" lon="7.29427">
        <ele>677.2</ele>
        <time>2021-08-04T10:36:57Z</time>
      </trkpt>
      <trkpt lat="48.24315" lon="7.29426">
        <ele>677.2</ele>
        <time>2021-08-04T10:36:58Z</time>
      </trkpt>
      <trkpt lat="48.24312" lon="7.29422">
        <ele>677.4</ele>
        <time>2021-08-04T10:36:59Z</time>
      </trkpt>
      <trkpt lat="48.2431" lon="7.2942">
        <ele>677.5</ele>
        <time>2021-08-04T10:37:00Z</time>
      </trkpt>
      <trkpt lat="48.24308" lon="7.29416">
        <ele>677.6</ele>
        <time>2021-08-04T10:37:02Z</time>
      </trkpt>
      <trkpt lat="48.24307" lon="7.29415">
        <ele>677.7</ele>
        <time>2021-08-04T10:37:03Z</time>
      </trkpt>
      <trkpt lat="48.24304" lon="7.29412">
        <ele>677.7</ele>
        <time>2021-08-04T10:37:05Z</time>
      </trkpt>
      <trkpt lat="48.24303" lon="7.29411">
        <ele>677.8</ele>
        <time>2021-08-04T10:37:06Z</time>
      </trkpt>
      <trkpt lat="48.243" lon="7.29409">
        <ele>677.8</ele>
        <time>2021-08-04T10:37:07Z</time>
      </trkpt>
      <trkpt lat="48.24298" lon="7.29406">
        <ele>677.9</ele>
        <time>2021-08-04T10:37:09Z</time>
      </trkpt>
      <trkpt lat="48.24297" lon="7.29405">
        <ele>677.9</ele>
        <time>2021-08-04T10:37:10Z</time>
      </trkpt>
      <trkpt lat="48.24296" lon="7.29403">
        <ele>677.9</ele>
        <time>2021-08-04T10:37:11Z</time>
      </trkpt>
      <trkpt lat="48.24295" lon="7.29401">
        <ele>678</ele>
        <time>2021-08-04T10:37:12Z</time>
      </trkpt>
      <trkpt lat="48.24292" lon="7.29399">
        <ele>678</ele>
        <time>2021-08-04T10:37:14Z</time>
      </trkpt>
      <trkpt lat="48.24289" lon="7.29396">
        <ele>678.1</ele>
        <time>2021-08-04T10:37:15Z</time>
      </trkpt>
      <trkpt lat="48.24287" lon="7.2939">
        <ele>678.2</ele>
        <time>2021-08-04T10:37:17Z</time>
      </trkpt>
      <trkpt lat="48.24287" lon="7.29388">
        <ele>678.2</ele>
        <time>2021-08-04T10:37:18Z</time>
      </trkpt>
      <trkpt lat="48.24286" lon="7.29387">
        <ele>678.2</ele>
        <time>2021-08-04T10:37:19Z</time>
      </trkpt>
      <trkpt lat="48.24285" lon="7.29383">
        <ele>678.3</ele>
        <time>2021-08-04T10:37:20Z</time>
      </trkpt>
      <trkpt lat="48.24285" lon="7.29381">
        <ele>678.3</ele>
        <time>2021-08-04T10:37:22Z</time>
      </trkpt>
      <trkpt lat="48.24284" lon="7.29378">
        <ele>678.3</ele>
        <time>2021-08-04T10:37:23Z</time>
      </trkpt>
      <trkpt lat="48.24284" lon="7.29376">
        <ele>678.4</ele>
        <time>2021-08-04T10:37:24Z</time>
      </trkpt>
      <trkpt lat="48.24283" lon="7.29371">
        <ele>678.4</ele>
        <time>2021-08-04T10:37:26Z</time>
      </trkpt>
      <trkpt lat="48.24282" lon="7.29367">
        <ele>678.5</ele>
        <time>2021-08-04T10:37:27Z</time>
      </trkpt>
      <trkpt lat="48.24281" lon="7.29364">
        <ele>678.6</ele>
        <time>2021-08-04T10:37:29Z</time>
      </trkpt>
      <trkpt lat="48.24281" lon="7.29362">
        <ele>678.6</ele>
        <time>2021-08-04T10:37:30Z</time>
      </trkpt>
      <trkpt lat="48.2428" lon="7.29363">
        <ele>678.6</ele>
        <time>2021-08-04T10:37:32Z</time>
      </trkpt>
      <trkpt lat="48.2428" lon="7.29365">
        <ele>678.5</ele>
        <time>2021-08-04T10:37:33Z</time>
      </trkpt>
      <trkpt lat="48.24281" lon="7.29367">
        <ele>678.5</ele>
        <time>2021-08-04T10:37:35Z</time>
      </trkpt>
      <trkpt lat="48.24281" lon="7.29369">
        <ele>678.5</ele>
        <time>2021-08-04T10:37:36Z</time>
      </trkpt>
      <trkpt lat="48.24281" lon="7.29371">
        <ele>678.5</ele>
        <time>2021-08-04T10:37:38Z</time>
      </trkpt>
      <trkpt lat="48.24281" lon="7.29373">
        <ele>678.5</ele>
        <time>2021-08-04T10:37:39Z</time>
      </trkpt>
      <trkpt lat="48.24281" lon="7.29375">
        <ele>678.4</ele>
        <time>2021-08-04T10:37:40Z</time>
      </trkpt>
      <trkpt lat="48.24281" lon="7.29377">
        <ele>678.4</ele>
        <time>2021-08-04T10:38:37Z</time>
      </trkpt>
      <trkpt lat="48.24281" lon="7.29379">
        <ele>678.4</ele>
        <time>2021-08-04T10:38:39Z</time>
      </trkpt>
      <trkpt lat="48.24282" lon="7.29381">
        <ele>678.3</ele>
        <time>2021-08-04T10:38:40Z</time>
      </trkpt>
      <trkpt lat="48.24283" lon="7.29386">
        <ele>678.3</ele>
        <time>2021-08-04T10:38:41Z</time>
      </trkpt>
      <trkpt lat="48.24285" lon="7.29391">
        <ele>678.2</ele>
        <time>2021-08-04T10:38:43Z</time>
      </trkpt>
      <trkpt lat="48.24285" lon="7.29395">
        <ele>678.1</ele>
        <time>2021-08-04T10:38:44Z</time>
      </trkpt>
      <trkpt lat="48.24288" lon="7.294">
        <ele>678.1</ele>
        <time>2021-08-04T10:38:46Z</time>
      </trkpt>
      <trkpt lat="48.24289" lon="7.29402">
        <ele>678</ele>
        <time>2021-08-04T10:38:47Z</time>
      </trkpt>
      <trkpt lat="48.24291" lon="7.29405">
        <ele>678</ele>
        <time>2021-08-04T10:38:48Z</time>
      </trkpt>
      <trkpt lat="48.24294" lon="7.29408">
        <ele>677.9</ele>
        <time>2021-08-04T10:38:50Z</time>
      </trkpt>
      <trkpt lat="48.24301" lon="7.29408">
        <ele>678.2</ele>
        <time>2021-08-04T10:38:52Z</time>
      </trkpt>
      <trkpt lat="48.24305" lon="7.29404">
        <ele>678.4</ele>
        <time>2021-08-04T10:38:53Z</time>
      </trkpt>
      <trkpt lat="48.24307" lon="7.29399">
        <ele>678.6</ele>
        <time>2021-08-04T10:38:55Z</time>
      </trkpt>
      <trkpt lat="48.2431" lon="7.29394">
        <ele>678.8</ele>
        <time>2021-08-04T10:38:56Z</time>
      </trkpt>
      <trkpt lat="48.24312" lon="7.29389">
        <ele>679</ele>
        <time>2021-08-04T10:38:57Z</time>
      </trkpt>
      <trkpt lat="48.24315" lon="7.29382">
        <ele>679.3</ele>
        <time>2021-08-04T10:38:59Z</time>
      </trkpt>
      <trkpt lat="48.24318" lon="7.29375">
        <ele>679.7</ele>
        <time>2021-08-04T10:39:00Z</time>
      </trkpt>
      <trkpt lat="48.2432" lon="7.29369">
        <ele>680</ele>
        <time>2021-08-04T10:39:02Z</time>
      </trkpt>
      <trkpt lat="48.24322" lon="7.29363">
        <ele>680.4</ele>
        <time>2021-08-04T10:39:03Z</time>
      </trkpt>
      <trkpt lat="48.24323" lon="7.2936">
        <ele>680.6</ele>
        <time>2021-08-04T10:39:05Z</time>
      </trkpt>
      <trkpt lat="48.24326" lon="7.29357">
        <ele>680.8</ele>
        <time>2021-08-04T10:39:06Z</time>
      </trkpt>
      <trkpt lat="48.24327" lon="7.29356">
        <ele>681</ele>
        <time>2021-08-04T10:39:08Z</time>
      </trkpt>
      <trkpt lat="48.24329" lon="7.29356">
        <ele>681.1</ele>
        <time>2021-08-04T10:39:09Z</time>
      </trkpt>
      <trkpt lat="48.24332" lon="7.29355">
        <ele>681.3</ele>
        <time>2021-08-04T10:39:10Z</time>
      </trkpt>
      <trkpt lat="48.24333" lon="7.29354">
        <ele>681.4</ele>
        <time>2021-08-04T10:39:11Z</time>
      </trkpt>
      <trkpt lat="48.24335" lon="7.29353">
        <ele>681.6</ele>
        <time>2021-08-04T10:39:13Z</time>
      </trkpt>
      <trkpt lat="48.24336" lon="7.29353">
        <ele>681.8</ele>
        <time>2021-08-04T10:39:14Z</time>
      </trkpt>
      <trkpt lat="48.24338" lon="7.29352">
        <ele>681.9</ele>
        <time>2021-08-04T10:39:15Z</time>
      </trkpt>
      <trkpt lat="48.24339" lon="7.29351">
        <ele>682.1</ele>
        <time>2021-08-04T10:39:16Z</time>
      </trkpt>
      <trkpt lat="48.24342" lon="7.29349">
        <ele>682.4</ele>
        <time>2021-08-04T10:39:18Z</time>
      </trkpt>
      <trkpt lat="48.24343" lon="7.29349">
        <ele>682.5</ele>
        <time>2021-08-04T10:39:19Z</time>
      </trkpt>
      <trkpt lat="48.24347" lon="7.29346">
        <ele>683</ele>
        <time>2021-08-04T10:39:20Z</time>
      </trkpt>
      <trkpt lat="48.24348" lon="7.29344">
        <ele>683.1</ele>
        <time>2021-08-04T10:39:21Z</time>
      </trkpt>
      <trkpt lat="48.2435" lon="7.29343">
        <ele>683.4</ele>
        <time>2021-08-04T10:39:22Z</time>
      </trkpt>
      <trkpt lat="48.24352" lon="7.29342">
        <ele>683.7</ele>
        <time>2021-08-04T10:39:24Z</time>
      </trkpt>
      <trkpt lat="48.24355" lon="7.29339">
        <ele>684.1</ele>
        <time>2021-08-04T10:39:25Z</time>
      </trkpt>
      <trkpt lat="48.24356" lon="7.29338">
        <ele>684.2</ele>
        <time>2021-08-04T10:39:26Z</time>
      </trkpt>
      <trkpt lat="48.2436" lon="7.29335">
        <ele>684.7</ele>
        <time>2021-08-04T10:39:27Z</time>
      </trkpt>
      <trkpt lat="48.24363" lon="7.29332">
        <ele>685.1</ele>
        <time>2021-08-04T10:39:29Z</time>
      </trkpt>
      <trkpt lat="48.24365" lon="7.2933">
        <ele>685.4</ele>
        <time>2021-08-04T10:39:30Z</time>
      </trkpt>
      <trkpt lat="48.24368" lon="7.29327">
        <ele>685.8</ele>
        <time>2021-08-04T10:39:31Z</time>
      </trkpt>
      <trkpt lat="48.2437" lon="7.29325">
        <ele>686.1</ele>
        <time>2021-08-04T10:39:32Z</time>
      </trkpt>
      <trkpt lat="48.24374" lon="7.29321">
        <ele>686.5</ele>
        <time>2021-08-04T10:39:33Z</time>
      </trkpt>
      <trkpt lat="48.24376" lon="7.29319">
        <ele>686.8</ele>
        <time>2021-08-04T10:39:34Z</time>
      </trkpt>
      <trkpt lat="48.24379" lon="7.29318">
        <ele>687.1</ele>
        <time>2021-08-04T10:39:36Z</time>
      </trkpt>
      <trkpt lat="48.24384" lon="7.29315">
        <ele>687.6</ele>
        <time>2021-08-04T10:39:38Z</time>
      </trkpt>
      <trkpt lat="48.24386" lon="7.29314">
        <ele>687.8</ele>
        <time>2021-08-04T10:39:39Z</time>
      </trkpt>
      <trkpt lat="48.24389" lon="7.29313">
        <ele>688.1</ele>
        <time>2021-08-04T10:39:41Z</time>
      </trkpt>
      <trkpt lat="48.24391" lon="7.29312">
        <ele>688.3</ele>
        <time>2021-08-04T10:39:42Z</time>
      </trkpt>
      <trkpt lat="48.24393" lon="7.29311">
        <ele>688.5</ele>
        <time>2021-08-04T10:39:43Z</time>
      </trkpt>
      <trkpt lat="48.24396" lon="7.29309">
        <ele>688.8</ele>
        <time>2021-08-04T10:39:45Z</time>
      </trkpt>
      <trkpt lat="48.24397" lon="7.29309">
        <ele>688.9</ele>
        <time>2021-08-04T10:39:46Z</time>
      </trkpt>
      <trkpt lat="48.244" lon="7.29307">
        <ele>689.2</ele>
        <time>2021-08-04T10:39:48Z</time>
      </trkpt>
      <trkpt lat="48.24401" lon="7.29307">
        <ele>689.3</ele>
        <time>2021-08-04T10:39:49Z</time>
      </trkpt>
      <trkpt lat="48.24403" lon="7.29307">
        <ele>689.5</ele>
        <time>2021-08-04T10:39:50Z</time>
      </trkpt>
      <trkpt lat="48.24406" lon="7.29307">
        <ele>689.7</ele>
        <time>2021-08-04T10:39:52Z</time>
      </trkpt>
      <trkpt lat="48.24407" lon="7.29307">
        <ele>689.9</ele>
        <time>2021-08-04T10:39:53Z</time>
      </trkpt>
      <trkpt lat="48.24409" lon="7.29306">
        <ele>690.1</ele>
        <time>2021-08-04T10:39:54Z</time>
      </trkpt>
      <trkpt lat="48.24412" lon="7.29305">
        <ele>690.3</ele>
        <time>2021-08-04T10:39:55Z</time>
      </trkpt>
      <trkpt lat="48.24413" lon="7.29304">
        <ele>690.4</ele>
        <time>2021-08-04T10:39:56Z</time>
      </trkpt>
      <trkpt lat="48.24415" lon="7.29302">
        <ele>690.5</ele>
        <time>2021-08-04T10:39:57Z</time>
      </trkpt>
      <trkpt lat="48.24416" lon="7.29301">
        <ele>690.7</ele>
        <time>2021-08-04T10:39:59Z</time>
      </trkpt>
      <trkpt lat="48.24418" lon="7.29301">
        <ele>690.8</ele>
        <time>2021-08-04T10:40:00Z</time>
      </trkpt>
      <trkpt lat="48.2442" lon="7.293">
        <ele>690.9</ele>
        <time>2021-08-04T10:40:01Z</time>
      </trkpt>
      <trkpt lat="48.24423" lon="7.293">
        <ele>691.1</ele>
        <time>2021-08-04T10:40:02Z</time>
      </trkpt>
      <trkpt lat="48.24424" lon="7.293">
        <ele>691.1</ele>
        <time>2021-08-04T10:40:03Z</time>
      </trkpt>
      <trkpt lat="48.24427" lon="7.29301">
        <ele>691.3</ele>
        <time>2021-08-04T10:40:04Z</time>
      </trkpt>
      <trkpt lat="48.24428" lon="7.29302">
        <ele>691.3</ele>
        <time>2021-08-04T10:40:05Z</time>
      </trkpt>
      <trkpt lat="48.24432" lon="7.29302">
        <ele>691.5</ele>
        <time>2021-08-04T10:40:07Z</time>
      </trkpt>
      <trkpt lat="48.24434" lon="7.29303">
        <ele>691.6</ele>
        <time>2021-08-04T10:40:08Z</time>
      </trkpt>
      <trkpt lat="48.24438" lon="7.29304">
        <ele>691.8</ele>
        <time>2021-08-04T10:40:10Z</time>
      </trkpt>
      <trkpt lat="48.2444" lon="7.29306">
        <ele>691.9</ele>
        <time>2021-08-04T10:40:11Z</time>
      </trkpt>
      <trkpt lat="48.24442" lon="7.29307">
        <ele>691.9</ele>
        <time>2021-08-04T10:40:12Z</time>
      </trkpt>
      <trkpt lat="48.24446" lon="7.29309">
        <ele>692</ele>
        <time>2021-08-04T10:40:14Z</time>
      </trkpt>
      <trkpt lat="48.24447" lon="7.2931">
        <ele>692.1</ele>
        <time>2021-08-04T10:40:15Z</time>
      </trkpt>
      <trkpt lat="48.2445" lon="7.2931">
        <ele>692.1</ele>
        <time>2021-08-04T10:40:16Z</time>
      </trkpt>
      <trkpt lat="48.24455" lon="7.2931">
        <ele>692.3</ele>
        <time>2021-08-04T10:40:18Z</time>
      </trkpt>
      <trkpt lat="48.24459" lon="7.2931">
        <ele>692.4</ele>
        <time>2021-08-04T10:40:19Z</time>
      </trkpt>
      <trkpt lat="48.24462" lon="7.29311">
        <ele>692.4</ele>
        <time>2021-08-04T10:40:20Z</time>
      </trkpt>
      <trkpt lat="48.24465" lon="7.29311">
        <ele>692.5</ele>
        <time>2021-08-04T10:40:21Z</time>
      </trkpt>
      <trkpt lat="48.2447" lon="7.29312">
        <ele>692.6</ele>
        <time>2021-08-04T10:40:23Z</time>
      </trkpt>
      <trkpt lat="48.24474" lon="7.29312">
        <ele>692.6</ele>
        <time>2021-08-04T10:40:24Z</time>
      </trkpt>
      <trkpt lat="48.24479" lon="7.29312">
        <ele>692.8</ele>
        <time>2021-08-04T10:40:25Z</time>
      </trkpt>
      <trkpt lat="48.24483" lon="7.29312">
        <ele>692.9</ele>
        <time>2021-08-04T10:40:26Z</time>
      </trkpt>
      <trkpt lat="48.24488" lon="7.29312">
        <ele>693</ele>
        <time>2021-08-04T10:40:28Z</time>
      </trkpt>
      <trkpt lat="48.24493" lon="7.2931">
        <ele>693.2</ele>
        <time>2021-08-04T10:40:29Z</time>
      </trkpt>
      <trkpt lat="48.24499" lon="7.29308">
        <ele>693.3</ele>
        <time>2021-08-04T10:40:31Z</time>
      </trkpt>
      <trkpt lat="48.24502" lon="7.29307">
        <ele>693.5</ele>
        <time>2021-08-04T10:40:32Z</time>
      </trkpt>
      <trkpt lat="48.24507" lon="7.29306">
        <ele>693.6</ele>
        <time>2021-08-04T10:40:33Z</time>
      </trkpt>
      <trkpt lat="48.24512" lon="7.29305">
        <ele>693.8</ele>
        <time>2021-08-04T10:40:35Z</time>
      </trkpt>
      <trkpt lat="48.24516" lon="7.29304">
        <ele>694</ele>
        <time>2021-08-04T10:40:36Z</time>
      </trkpt>
      <trkpt lat="48.24522" lon="7.29303">
        <ele>694.2</ele>
        <time>2021-08-04T10:40:38Z</time>
      </trkpt>
      <trkpt lat="48.2453" lon="7.29302">
        <ele>694.6</ele>
        <time>2021-08-04T10:40:40Z</time>
      </trkpt>
      <trkpt lat="48.24534" lon="7.29303">
        <ele>694.7</ele>
        <time>2021-08-04T10:40:41Z</time>
      </trkpt>
      <trkpt lat="48.24539" lon="7.29303">
        <ele>694.9</ele>
        <time>2021-08-04T10:40:43Z</time>
      </trkpt>
      <trkpt lat="48.24544" lon="7.29305">
        <ele>695.2</ele>
        <time>2021-08-04T10:40:45Z</time>
      </trkpt>
      <trkpt lat="48.24546" lon="7.29306">
        <ele>695.3</ele>
        <time>2021-08-04T10:40:46Z</time>
      </trkpt>
      <trkpt lat="48.24547" lon="7.29306">
        <ele>695.3</ele>
        <time>2021-08-04T10:40:47Z</time>
      </trkpt>
      <trkpt lat="48.24551" lon="7.29307">
        <ele>695.5</ele>
        <time>2021-08-04T10:40:48Z</time>
      </trkpt>
      <trkpt lat="48.24555" lon="7.29307">
        <ele>695.7</ele>
        <time>2021-08-04T10:40:50Z</time>
      </trkpt>
      <trkpt lat="48.24558" lon="7.29305">
        <ele>695.8</ele>
        <time>2021-08-04T10:40:51Z</time>
      </trkpt>
      <trkpt lat="48.24563" lon="7.29301">
        <ele>696.1</ele>
        <time>2021-08-04T10:40:53Z</time>
      </trkpt>
      <trkpt lat="48.24566" lon="7.293">
        <ele>696.2</ele>
        <time>2021-08-04T10:40:54Z</time>
      </trkpt>
      <trkpt lat="48.2457" lon="7.29299">
        <ele>696.4</ele>
        <time>2021-08-04T10:40:56Z</time>
      </trkpt>
      <trkpt lat="48.24574" lon="7.29299">
        <ele>696.5</ele>
        <time>2021-08-04T10:40:57Z</time>
      </trkpt>
      <trkpt lat="48.24575" lon="7.29299">
        <ele>696.5</ele>
        <time>2021-08-04T10:40:58Z</time>
      </trkpt>
      <trkpt lat="48.24578" lon="7.29297">
        <ele>696.7</ele>
        <time>2021-08-04T10:40:59Z</time>
      </trkpt>
      <trkpt lat="48.2458" lon="7.29297">
        <ele>696.7</ele>
        <time>2021-08-04T10:41:00Z</time>
      </trkpt>
      <trkpt lat="48.24583" lon="7.29296">
        <ele>696.8</ele>
        <time>2021-08-04T10:41:02Z</time>
      </trkpt>
      <trkpt lat="48.24588" lon="7.29295">
        <ele>697</ele>
        <time>2021-08-04T10:41:03Z</time>
      </trkpt>
      <trkpt lat="48.24593" lon="7.29294">
        <ele>697.2</ele>
        <time>2021-08-04T10:41:04Z</time>
      </trkpt>
      <trkpt lat="48.24598" lon="7.29294">
        <ele>697.4</ele>
        <time>2021-08-04T10:41:06Z</time>
      </trkpt>
      <trkpt lat="48.24601" lon="7.29294">
        <ele>697.5</ele>
        <time>2021-08-04T10:41:07Z</time>
      </trkpt>
      <trkpt lat="48.24605" lon="7.29294">
        <ele>697.7</ele>
        <time>2021-08-04T10:41:08Z</time>
      </trkpt>
      <trkpt lat="48.24608" lon="7.29294">
        <ele>697.8</ele>
        <time>2021-08-04T10:41:09Z</time>
      </trkpt>
      <trkpt lat="48.24612" lon="7.29293">
        <ele>698</ele>
        <time>2021-08-04T10:41:10Z</time>
      </trkpt>
      <trkpt lat="48.24615" lon="7.29294">
        <ele>698.1</ele>
        <time>2021-08-04T10:41:12Z</time>
      </trkpt>
      <trkpt lat="48.24619" lon="7.29293">
        <ele>698.2</ele>
        <time>2021-08-04T10:41:14Z</time>
      </trkpt>
      <trkpt lat="48.24618" lon="7.29289">
        <ele>698.1</ele>
        <time>2021-08-04T10:41:16Z</time>
      </trkpt>
      <trkpt lat="48.24616" lon="7.29288">
        <ele>698.1</ele>
        <time>2021-08-04T10:41:17Z</time>
      </trkpt>
      <trkpt lat="48.24614" lon="7.29288">
        <ele>698</ele>
        <time>2021-08-04T10:41:19Z</time>
      </trkpt>
      <trkpt lat="48.24612" lon="7.29287">
        <ele>697.9</ele>
        <time>2021-08-04T10:41:20Z</time>
      </trkpt>
      <trkpt lat="48.2461" lon="7.29286">
        <ele>697.8</ele>
        <time>2021-08-04T10:41:21Z</time>
      </trkpt>
      <trkpt lat="48.24608" lon="7.29285">
        <ele>697.7</ele>
        <time>2021-08-04T10:41:23Z</time>
      </trkpt>
      <trkpt lat="48.24606" lon="7.29284">
        <ele>697.7</ele>
        <time>2021-08-04T10:41:32Z</time>
      </trkpt>
      <trkpt lat="48.24604" lon="7.29283">
        <ele>697.6</ele>
        <time>2021-08-04T10:41:33Z</time>
      </trkpt>
      <trkpt lat="48.24597" lon="7.29284">
        <ele>697.3</ele>
        <time>2021-08-04T10:41:35Z</time>
      </trkpt>
      <trkpt lat="48.24593" lon="7.29283">
        <ele>697.1</ele>
        <time>2021-08-04T10:41:36Z</time>
      </trkpt>
      <trkpt lat="48.24586" lon="7.29282">
        <ele>696.9</ele>
        <time>2021-08-04T10:41:38Z</time>
      </trkpt>
      <trkpt lat="48.24582" lon="7.29281">
        <ele>696.8</ele>
        <time>2021-08-04T10:41:39Z</time>
      </trkpt>
      <trkpt lat="48.2458" lon="7.2928">
        <ele>696.7</ele>
        <time>2021-08-04T10:41:41Z</time>
      </trkpt>
      <trkpt lat="48.24579" lon="7.29279">
        <ele>696.6</ele>
        <time>2021-08-04T10:41:42Z</time>
      </trkpt>
      <trkpt lat="48.24576" lon="7.29278">
        <ele>696.5</ele>
        <time>2021-08-04T10:41:43Z</time>
      </trkpt>
      <trkpt lat="48.24572" lon="7.29279">
        <ele>696.4</ele>
        <time>2021-08-04T10:41:45Z</time>
      </trkpt>
      <trkpt lat="48.24567" lon="7.29279">
        <ele>696.2</ele>
        <time>2021-08-04T10:41:46Z</time>
      </trkpt>
      <trkpt lat="48.24564" lon="7.29279">
        <ele>696.1</ele>
        <time>2021-08-04T10:41:47Z</time>
      </trkpt>
      <trkpt lat="48.24561" lon="7.29279">
        <ele>696</ele>
        <time>2021-08-04T10:41:48Z</time>
      </trkpt>
      <trkpt lat="48.24558" lon="7.29279">
        <ele>695.8</ele>
        <time>2021-08-04T10:41:49Z</time>
      </trkpt>
      <trkpt lat="48.24555" lon="7.29279">
        <ele>695.7</ele>
        <time>2021-08-04T10:41:51Z</time>
      </trkpt>
      <trkpt lat="48.24552" lon="7.29279">
        <ele>695.5</ele>
        <time>2021-08-04T10:41:52Z</time>
      </trkpt>
      <trkpt lat="48.24547" lon="7.29278">
        <ele>695.3</ele>
        <time>2021-08-04T10:41:54Z</time>
      </trkpt>
      <trkpt lat="48.24545" lon="7.29279">
        <ele>695.2</ele>
        <time>2021-08-04T10:41:55Z</time>
      </trkpt>
      <trkpt lat="48.24543" lon="7.29279">
        <ele>695.1</ele>
        <time>2021-08-04T10:41:56Z</time>
      </trkpt>
      <trkpt lat="48.24538" lon="7.2928">
        <ele>694.9</ele>
        <time>2021-08-04T10:41:57Z</time>
      </trkpt>
      <trkpt lat="48.24533" lon="7.29283">
        <ele>694.7</ele>
        <time>2021-08-04T10:41:59Z</time>
      </trkpt>
      <trkpt lat="48.24527" lon="7.29283">
        <ele>694.4</ele>
        <time>2021-08-04T10:42:00Z</time>
      </trkpt>
      <trkpt lat="48.24522" lon="7.29284">
        <ele>694.2</ele>
        <time>2021-08-04T10:42:01Z</time>
      </trkpt>
      <trkpt lat="48.24516" lon="7.29285">
        <ele>694</ele>
        <time>2021-08-04T10:42:03Z</time>
      </trkpt>
      <trkpt lat="48.24513" lon="7.29284">
        <ele>693.9</ele>
        <time>2021-08-04T10:42:04Z</time>
      </trkpt>
      <trkpt lat="48.24511" lon="7.29285">
        <ele>693.8</ele>
        <time>2021-08-04T10:42:05Z</time>
      </trkpt>
      <trkpt lat="48.2451" lon="7.29285">
        <ele>693.8</ele>
        <time>2021-08-04T10:42:07Z</time>
      </trkpt>
      <trkpt lat="48.24509" lon="7.29286">
        <ele>693.7</ele>
        <time>2021-08-04T10:42:08Z</time>
      </trkpt>
      <trkpt lat="48.24508" lon="7.29286">
        <ele>693.7</ele>
        <time>2021-08-04T10:42:09Z</time>
      </trkpt>
      <trkpt lat="48.24507" lon="7.29286">
        <ele>693.6</ele>
        <time>2021-08-04T10:42:10Z</time>
      </trkpt>
      <trkpt lat="48.24506" lon="7.29286">
        <ele>693.6</ele>
        <time>2021-08-04T10:42:12Z</time>
      </trkpt>
      <trkpt lat="48.24504" lon="7.29285">
        <ele>693.6</ele>
        <time>2021-08-04T10:42:13Z</time>
      </trkpt>
      <trkpt lat="48.24503" lon="7.29285">
        <ele>693.5</ele>
        <time>2021-08-04T10:42:14Z</time>
      </trkpt>
      <trkpt lat="48.24502" lon="7.29285">
        <ele>693.5</ele>
        <time>2021-08-04T10:42:15Z</time>
      </trkpt>
      <trkpt lat="48.24486" lon="7.29285">
        <ele>693</ele>
        <time>2021-08-04T10:42:21Z</time>
      </trkpt>
      <trkpt lat="48.24477" lon="7.29283">
        <ele>692.7</ele>
        <time>2021-08-04T10:42:22Z</time>
      </trkpt>
      <trkpt lat="48.24474" lon="7.29283">
        <ele>692.7</ele>
        <time>2021-08-04T10:42:23Z</time>
      </trkpt>
      <trkpt lat="48.24471" lon="7.29284">
        <ele>692.6</ele>
        <time>2021-08-04T10:42:25Z</time>
      </trkpt>
      <trkpt lat="48.24467" lon="7.29284">
        <ele>692.5</ele>
        <time>2021-08-04T10:42:26Z</time>
      </trkpt>
      <trkpt lat="48.24463" lon="7.29284">
        <ele>692.4</ele>
        <time>2021-08-04T10:42:27Z</time>
      </trkpt>
      <trkpt lat="48.24458" lon="7.29283">
        <ele>692.3</ele>
        <time>2021-08-04T10:42:28Z</time>
      </trkpt>
      <trkpt lat="48.24453" lon="7.29282">
        <ele>692.2</ele>
        <time>2021-08-04T10:42:29Z</time>
      </trkpt>
      <trkpt lat="48.24448" lon="7.29281">
        <ele>692.1</ele>
        <time>2021-08-04T10:42:30Z</time>
      </trkpt>
      <trkpt lat="48.24444" lon="7.29281">
        <ele>692</ele>
        <time>2021-08-04T10:42:32Z</time>
      </trkpt>
      <trkpt lat="48.24439" lon="7.29283">
        <ele>691.9</ele>
        <time>2021-08-04T10:42:34Z</time>
      </trkpt>
      <trkpt lat="48.24437" lon="7.29284">
        <ele>691.8</ele>
        <time>2021-08-04T10:42:35Z</time>
      </trkpt>
      <trkpt lat="48.24431" lon="7.29284">
        <ele>691.6</ele>
        <time>2021-08-04T10:42:37Z</time>
      </trkpt>
      <trkpt lat="48.24428" lon="7.29284">
        <ele>691.4</ele>
        <time>2021-08-04T10:42:39Z</time>
      </trkpt>
      <trkpt lat="48.24427" lon="7.29284">
        <ele>691.4</ele>
        <time>2021-08-04T10:42:40Z</time>
      </trkpt>
      <trkpt lat="48.24426" lon="7.29284">
        <ele>691.3</ele>
        <time>2021-08-04T10:42:41Z</time>
      </trkpt>
      <trkpt lat="48.24425" lon="7.29285">
        <ele>691.3</ele>
        <time>2021-08-04T10:42:43Z</time>
      </trkpt>
      <trkpt lat="48.24425" lon="7.29285">
        <ele>691.2</ele>
        <time>2021-08-04T10:42:44Z</time>
      </trkpt>
      <trkpt lat="48.24403" lon="7.29295">
        <ele>689.7</ele>
        <time>2021-08-04T10:42:48Z</time>
      </trkpt>
      <trkpt lat="48.244" lon="7.29297">
        <ele>689.4</ele>
        <time>2021-08-04T10:42:50Z</time>
      </trkpt>
      <trkpt lat="48.24395" lon="7.29299">
        <ele>688.9</ele>
        <time>2021-08-04T10:42:51Z</time>
      </trkpt>
      <trkpt lat="48.2439" lon="7.29302">
        <ele>688.4</ele>
        <time>2021-08-04T10:42:52Z</time>
      </trkpt>
      <trkpt lat="48.24383" lon="7.29307">
        <ele>687.6</ele>
        <time>2021-08-04T10:42:53Z</time>
      </trkpt>
      <trkpt lat="48.24377" lon="7.29311">
        <ele>687</ele>
        <time>2021-08-04T10:42:55Z</time>
      </trkpt>
      <trkpt lat="48.24366" lon="7.29317">
        <ele>685.9</ele>
        <time>2021-08-04T10:42:56Z</time>
      </trkpt>
      <trkpt lat="48.24361" lon="7.29322">
        <ele>685.2</ele>
        <time>2021-08-04T10:42:57Z</time>
      </trkpt>
      <trkpt lat="48.24355" lon="7.29326">
        <ele>684.5</ele>
        <time>2021-08-04T10:42:58Z</time>
      </trkpt>
      <trkpt lat="48.24349" lon="7.29336">
        <ele>683.5</ele>
        <time>2021-08-04T10:43:00Z</time>
      </trkpt>
      <trkpt lat="48.2434" lon="7.29347">
        <ele>682.1</ele>
        <time>2021-08-04T10:43:02Z</time>
      </trkpt>
      <trkpt lat="48.24334" lon="7.29354">
        <ele>681.5</ele>
        <time>2021-08-04T10:43:03Z</time>
      </trkpt>
      <trkpt lat="48.2433" lon="7.2936">
        <ele>680.9</ele>
        <time>2021-08-04T10:43:04Z</time>
      </trkpt>
      <trkpt lat="48.24325" lon="7.29368">
        <ele>680.5</ele>
        <time>2021-08-04T10:43:05Z</time>
      </trkpt>
      <trkpt lat="48.24317" lon="7.29383">
        <ele>679.3</ele>
        <time>2021-08-04T10:43:07Z</time>
      </trkpt>
      <trkpt lat="48.24314" lon="7.2939">
        <ele>679</ele>
        <time>2021-08-04T10:43:08Z</time>
      </trkpt>
      <trkpt lat="48.24308" lon="7.29404">
        <ele>678.4</ele>
        <time>2021-08-04T10:43:10Z</time>
      </trkpt>
      <trkpt lat="48.24307" lon="7.29409">
        <ele>678.3</ele>
        <time>2021-08-04T10:43:11Z</time>
      </trkpt>
      <trkpt lat="48.24303" lon="7.29414">
        <ele>678.1</ele>
        <time>2021-08-04T10:43:12Z</time>
      </trkpt>
      <trkpt lat="48.24298" lon="7.29416">
        <ele>677.7</ele>
        <time>2021-08-04T10:43:13Z</time>
      </trkpt>
      <trkpt lat="48.24294" lon="7.29415">
        <ele>677.8</ele>
        <time>2021-08-04T10:43:15Z</time>
      </trkpt>
      <trkpt lat="48.24291" lon="7.29411">
        <ele>677.9</ele>
        <time>2021-08-04T10:43:16Z</time>
      </trkpt>
      <trkpt lat="48.24289" lon="7.29404">
        <ele>678</ele>
        <time>2021-08-04T10:43:17Z</time>
      </trkpt>
      <trkpt lat="48.24288" lon="7.29396">
        <ele>678.1</ele>
        <time>2021-08-04T10:43:19Z</time>
      </trkpt>
      <trkpt lat="48.24287" lon="7.2939">
        <ele>678.2</ele>
        <time>2021-08-04T10:43:20Z</time>
      </trkpt>
      <trkpt lat="48.24287" lon="7.29385">
        <ele>678.2</ele>
        <time>2021-08-04T10:43:22Z</time>
      </trkpt>
      <trkpt lat="48.24287" lon="7.2938">
        <ele>678.3</ele>
        <time>2021-08-04T10:43:24Z</time>
      </trkpt>
      <trkpt lat="48.24287" lon="7.29375">
        <ele>678.4</ele>
        <time>2021-08-04T10:43:26Z</time>
      </trkpt>
      <trkpt lat="48.24286" lon="7.29371">
        <ele>678.4</ele>
        <time>2021-08-04T10:43:27Z</time>
      </trkpt>
      <trkpt lat="48.24286" lon="7.29369">
        <ele>678.5</ele>
        <time>2021-08-04T10:43:29Z</time>
      </trkpt>
      <trkpt lat="48.24285" lon="7.29369">
        <ele>678.5</ele>
        <time>2021-08-04T10:43:30Z</time>
      </trkpt>
      <trkpt lat="48.24285" lon="7.29368">
        <ele>678.5</ele>
        <time>2021-08-04T10:43:31Z</time>
      </trkpt>
      <trkpt lat="48.24285" lon="7.29368">
        <ele>678.5</ele>
        <time>2021-08-04T10:43:33Z</time>
      </trkpt>
      <trkpt lat="48.24285" lon="7.29367">
        <ele>678.5</ele>
        <time>2021-08-04T10:43:35Z</time>
      </trkpt>
      <trkpt lat="48.24285" lon="7.29368">
        <ele>678.5</ele>
        <time>2021-08-04T10:43:36Z</time>
      </trkpt>
      <trkpt lat="48.24285" lon="7.29368">
        <ele>678.5</ele>
        <time>2021-08-04T10:43:38Z</time>
      </trkpt>
      <trkpt lat="48.24285" lon="7.29368">
        <ele>678.5</ele>
        <time>2021-08-04T10:43:39Z</time>
      </trkpt>
      <trkpt lat="48.24276" lon="7.29338">
        <ele>678.9</ele>
        <time>2021-08-04T10:45:04Z</time>
      </trkpt>
      <trkpt lat="48.24276" lon="7.29335">
        <ele>678.9</ele>
        <time>2021-08-04T10:45:05Z</time>
      </trkpt>
      <trkpt lat="48.24275" lon="7.29327">
        <ele>679</ele>
        <time>2021-08-04T10:45:07Z</time>
      </trkpt>
      <trkpt lat="48.24275" lon="7.29321">
        <ele>679.1</ele>
        <time>2021-08-04T10:45:08Z</time>
      </trkpt>
      <trkpt lat="48.24274" lon="7.29315">
        <ele>679.2</ele>
        <time>2021-08-04T10:45:10Z</time>
      </trkpt>
      <trkpt lat="48.24274" lon="7.29313">
        <ele>679.2</ele>
        <time>2021-08-04T10:45:11Z</time>
      </trkpt>
      <trkpt lat="48.24274" lon="7.2931">
        <ele>679.3</ele>
        <time>2021-08-04T10:45:12Z</time>
      </trkpt>
      <trkpt lat="48.24273" lon="7.29303">
        <ele>679.4</ele>
        <time>2021-08-04T10:45:14Z</time>
      </trkpt>
      <trkpt lat="48.24273" lon="7.29298">
        <ele>679.5</ele>
        <time>2021-08-04T10:45:15Z</time>
      </trkpt>
      <trkpt lat="48.24274" lon="7.29293">
        <ele>679.6</ele>
        <time>2021-08-04T10:45:16Z</time>
      </trkpt>
      <trkpt lat="48.24275" lon="7.29289">
        <ele>679.7</ele>
        <time>2021-08-04T10:45:18Z</time>
      </trkpt>
      <trkpt lat="48.24276" lon="7.29286">
        <ele>679.7</ele>
        <time>2021-08-04T10:45:19Z</time>
      </trkpt>
      <trkpt lat="48.24277" lon="7.29282">
        <ele>679.8</ele>
        <time>2021-08-04T10:45:21Z</time>
      </trkpt>
      <trkpt lat="48.24278" lon="7.29281">
        <ele>679.9</ele>
        <time>2021-08-04T10:45:22Z</time>
      </trkpt>
      <trkpt lat="48.24279" lon="7.29278">
        <ele>679.9</ele>
        <time>2021-08-04T10:45:23Z</time>
      </trkpt>
      <trkpt lat="48.24279" lon="7.29277">
        <ele>680</ele>
        <time>2021-08-04T10:45:24Z</time>
      </trkpt>
      <trkpt lat="48.24279" lon="7.29277">
        <ele>680</ele>
        <time>2021-08-04T10:45:25Z</time>
      </trkpt>
      <trkpt lat="48.24279" lon="7.29278">
        <ele>680</ele>
        <time>2021-08-04T10:45:26Z</time>
      </trkpt>
      <trkpt lat="48.2428" lon="7.29279">
        <ele>680</ele>
        <time>2021-08-04T10:45:28Z</time>
      </trkpt>
      <trkpt lat="48.2428" lon="7.2928">
        <ele>680.1</ele>
        <time>2021-08-04T10:45:29Z</time>
      </trkpt>
      <trkpt lat="48.24282" lon="7.29286">
        <ele>680.2</ele>
        <time>2021-08-04T10:45:31Z</time>
      </trkpt>
      <trkpt lat="48.24284" lon="7.2929">
        <ele>680.3</ele>
        <time>2021-08-04T10:45:32Z</time>
      </trkpt>
      <trkpt lat="48.24288" lon="7.29293">
        <ele>680.5</ele>
        <time>2021-08-04T10:45:34Z</time>
      </trkpt>
      <trkpt lat="48.2429" lon="7.29294">
        <ele>680.6</ele>
        <time>2021-08-04T10:45:35Z</time>
      </trkpt>
      <trkpt lat="48.24293" lon="7.29295">
        <ele>680.8</ele>
        <time>2021-08-04T10:45:37Z</time>
      </trkpt>
      <trkpt lat="48.24295" lon="7.29297">
        <ele>680.8</ele>
        <time>2021-08-04T10:45:38Z</time>
      </trkpt>
      <trkpt lat="48.24297" lon="7.29297">
        <ele>680.9</ele>
        <time>2021-08-04T10:45:40Z</time>
      </trkpt>
      <trkpt lat="48.24299" lon="7.29296">
        <ele>681</ele>
        <time>2021-08-04T10:45:42Z</time>
      </trkpt>
      <trkpt lat="48.243" lon="7.29297">
        <ele>681.1</ele>
        <time>2021-08-04T10:45:43Z</time>
      </trkpt>
      <trkpt lat="48.24301" lon="7.29298">
        <ele>681.1</ele>
        <time>2021-08-04T10:45:44Z</time>
      </trkpt>
      <trkpt lat="48.24303" lon="7.29297">
        <ele>681.2</ele>
        <time>2021-08-04T10:45:45Z</time>
      </trkpt>
      <trkpt lat="48.24305" lon="7.29294">
        <ele>681.3</ele>
        <time>2021-08-04T10:45:47Z</time>
      </trkpt>
      <trkpt lat="48.24305" lon="7.29292">
        <ele>681.4</ele>
        <time>2021-08-04T10:45:48Z</time>
      </trkpt>
      <trkpt lat="48.24304" lon="7.29292">
        <ele>681.4</ele>
        <time>2021-08-04T10:45:49Z</time>
      </trkpt>
      <trkpt lat="48.24304" lon="7.29292">
        <ele>681.4</ele>
        <time>2021-08-04T10:45:51Z</time>
      </trkpt>
      <trkpt lat="48.24304" lon="7.29292">
        <ele>681.4</ele>
        <time>2021-08-04T10:45:52Z</time>
      </trkpt>
      <trkpt lat="48.24302" lon="7.29292">
        <ele>681.5</ele>
        <time>2021-08-04T10:45:54Z</time>
      </trkpt>
      <trkpt lat="48.24301" lon="7.29292">
        <ele>681.6</ele>
        <time>2021-08-04T10:45:55Z</time>
      </trkpt>
      <trkpt lat="48.24294" lon="7.2929">
        <ele>681.9</ele>
        <time>2021-08-04T10:45:58Z</time>
      </trkpt>
      <trkpt lat="48.2429" lon="7.29287">
        <ele>682.1</ele>
        <time>2021-08-04T10:46:00Z</time>
      </trkpt>
      <trkpt lat="48.24285" lon="7.29286">
        <ele>682.2</ele>
        <time>2021-08-04T10:46:01Z</time>
      </trkpt>
      <trkpt lat="48.24282" lon="7.29281">
        <ele>682.4</ele>
        <time>2021-08-04T10:46:02Z</time>
      </trkpt>
      <trkpt lat="48.24281" lon="7.29279">
        <ele>682.5</ele>
        <time>2021-08-04T10:46:03Z</time>
      </trkpt>
      <trkpt lat="48.2428" lon="7.29275">
        <ele>682.6</ele>
        <time>2021-08-04T10:46:04Z</time>
      </trkpt>
      <trkpt lat="48.24278" lon="7.2927">
        <ele>682.7</ele>
        <time>2021-08-04T10:46:06Z</time>
      </trkpt>
      <trkpt lat="48.24277" lon="7.29265">
        <ele>682.8</ele>
        <time>2021-08-04T10:46:07Z</time>
      </trkpt>
      <trkpt lat="48.24277" lon="7.29259">
        <ele>683</ele>
        <time>2021-08-04T10:46:08Z</time>
      </trkpt>
      <trkpt lat="48.24277" lon="7.29255">
        <ele>683.1</ele>
        <time>2021-08-04T10:46:09Z</time>
      </trkpt>
      <trkpt lat="48.24277" lon="7.2925">
        <ele>683.2</ele>
        <time>2021-08-04T10:46:10Z</time>
      </trkpt>
      <trkpt lat="48.24276" lon="7.29248">
        <ele>683.2</ele>
        <time>2021-08-04T10:46:11Z</time>
      </trkpt>
      <trkpt lat="48.24275" lon="7.29244">
        <ele>683.3</ele>
        <time>2021-08-04T10:46:12Z</time>
      </trkpt>
      <trkpt lat="48.24275" lon="7.29238">
        <ele>683.4</ele>
        <time>2021-08-04T10:46:14Z</time>
      </trkpt>
      <trkpt lat="48.24275" lon="7.29231">
        <ele>683.6</ele>
        <time>2021-08-04T10:46:16Z</time>
      </trkpt>
      <trkpt lat="48.24276" lon="7.29224">
        <ele>683.6</ele>
        <time>2021-08-04T10:46:17Z</time>
      </trkpt>
      <trkpt lat="48.24276" lon="7.29222">
        <ele>683.7</ele>
        <time>2021-08-04T10:46:18Z</time>
      </trkpt>
      <trkpt lat="48.24276" lon="7.29219">
        <ele>683.7</ele>
        <time>2021-08-04T10:46:19Z</time>
      </trkpt>
      <trkpt lat="48.24276" lon="7.29217">
        <ele>683.8</ele>
        <time>2021-08-04T10:46:21Z</time>
      </trkpt>
      <trkpt lat="48.24275" lon="7.29214">
        <ele>683.8</ele>
        <time>2021-08-04T10:46:22Z</time>
      </trkpt>
      <trkpt lat="48.24276" lon="7.29212">
        <ele>683.8</ele>
        <time>2021-08-04T10:46:23Z</time>
      </trkpt>
      <trkpt lat="48.24277" lon="7.29209">
        <ele>683.8</ele>
        <time>2021-08-04T10:46:24Z</time>
      </trkpt>
      <trkpt lat="48.24278" lon="7.29207">
        <ele>683.9</ele>
        <time>2021-08-04T10:46:26Z</time>
      </trkpt>
      <trkpt lat="48.2428" lon="7.29204">
        <ele>683.9</ele>
        <time>2021-08-04T10:46:27Z</time>
      </trkpt>
      <trkpt lat="48.2428" lon="7.29203">
        <ele>683.9</ele>
        <time>2021-08-04T10:46:28Z</time>
      </trkpt>
      <trkpt lat="48.24278" lon="7.29202">
        <ele>684</ele>
        <time>2021-08-04T10:46:29Z</time>
      </trkpt>
      <trkpt lat="48.24277" lon="7.29201">
        <ele>684</ele>
        <time>2021-08-04T10:46:31Z</time>
      </trkpt>
      <trkpt lat="48.24277" lon="7.292">
        <ele>684</ele>
        <time>2021-08-04T10:46:32Z</time>
      </trkpt>
      <trkpt lat="48.24276" lon="7.292">
        <ele>684</ele>
        <time>2021-08-04T10:46:33Z</time>
      </trkpt>
      <trkpt lat="48.24276" lon="7.29198">
        <ele>684</ele>
        <time>2021-08-04T10:46:34Z</time>
      </trkpt>
      <trkpt lat="48.24275" lon="7.29197">
        <ele>684</ele>
        <time>2021-08-04T10:46:36Z</time>
      </trkpt>
      <trkpt lat="48.24275" lon="7.29194">
        <ele>684.1</ele>
        <time>2021-08-04T10:46:38Z</time>
      </trkpt>
      <trkpt lat="48.24273" lon="7.2918">
        <ele>684.2</ele>
        <time>2021-08-04T10:46:43Z</time>
      </trkpt>
      <trkpt lat="48.24271" lon="7.29175">
        <ele>684.2</ele>
        <time>2021-08-04T10:46:44Z</time>
      </trkpt>
      <trkpt lat="48.24269" lon="7.29173">
        <ele>684.2</ele>
        <time>2021-08-04T10:46:45Z</time>
      </trkpt>
      <trkpt lat="48.24266" lon="7.2917">
        <ele>684.2</ele>
        <time>2021-08-04T10:46:46Z</time>
      </trkpt>
      <trkpt lat="48.24263" lon="7.29166">
        <ele>684.2</ele>
        <time>2021-08-04T10:46:48Z</time>
      </trkpt>
      <trkpt lat="48.24261" lon="7.29163">
        <ele>684.3</ele>
        <time>2021-08-04T10:46:49Z</time>
      </trkpt>
      <trkpt lat="48.24258" lon="7.29158">
        <ele>684.3</ele>
        <time>2021-08-04T10:46:50Z</time>
      </trkpt>
      <trkpt lat="48.24257" lon="7.29156">
        <ele>684.3</ele>
        <time>2021-08-04T10:46:51Z</time>
      </trkpt>
      <trkpt lat="48.24257" lon="7.2915">
        <ele>684.3</ele>
        <time>2021-08-04T10:46:53Z</time>
      </trkpt>
      <trkpt lat="48.24257" lon="7.29149">
        <ele>684.3</ele>
        <time>2021-08-04T10:46:54Z</time>
      </trkpt>
      <trkpt lat="48.24257" lon="7.29143">
        <ele>684.3</ele>
        <time>2021-08-04T10:46:56Z</time>
      </trkpt>
      <trkpt lat="48.24256" lon="7.29138">
        <ele>684.3</ele>
        <time>2021-08-04T10:46:57Z</time>
      </trkpt>
      <trkpt lat="48.24256" lon="7.29133">
        <ele>684.3</ele>
        <time>2021-08-04T10:46:58Z</time>
      </trkpt>
      <trkpt lat="48.24256" lon="7.29129">
        <ele>684.3</ele>
        <time>2021-08-04T10:46:59Z</time>
      </trkpt>
      <trkpt lat="48.24256" lon="7.29126">
        <ele>684.3</ele>
        <time>2021-08-04T10:47:01Z</time>
      </trkpt>
      <trkpt lat="48.24257" lon="7.29121">
        <ele>684.3</ele>
        <time>2021-08-04T10:47:02Z</time>
      </trkpt>
      <trkpt lat="48.24258" lon="7.29119">
        <ele>684.3</ele>
        <time>2021-08-04T10:47:03Z</time>
      </trkpt>
      <trkpt lat="48.24262" lon="7.29117">
        <ele>684.4</ele>
        <time>2021-08-04T10:47:05Z</time>
      </trkpt>
      <trkpt lat="48.24264" lon="7.29114">
        <ele>684.4</ele>
        <time>2021-08-04T10:47:06Z</time>
      </trkpt>
      <trkpt lat="48.24266" lon="7.29109">
        <ele>684.4</ele>
        <time>2021-08-04T10:47:07Z</time>
      </trkpt>
      <trkpt lat="48.24267" lon="7.29107">
        <ele>684.4</ele>
        <time>2021-08-04T10:47:08Z</time>
      </trkpt>
      <trkpt lat="48.24271" lon="7.29102">
        <ele>684.4</ele>
        <time>2021-08-04T10:47:09Z</time>
      </trkpt>
      <trkpt lat="48.24274" lon="7.29096">
        <ele>684.4</ele>
        <time>2021-08-04T10:47:11Z</time>
      </trkpt>
      <trkpt lat="48.24276" lon="7.29088">
        <ele>684.4</ele>
        <time>2021-08-04T10:47:12Z</time>
      </trkpt>
      <trkpt lat="48.24279" lon="7.29083">
        <ele>684.4</ele>
        <time>2021-08-04T10:47:14Z</time>
      </trkpt>
      <trkpt lat="48.24281" lon="7.29078">
        <ele>684.4</ele>
        <time>2021-08-04T10:47:15Z</time>
      </trkpt>
      <trkpt lat="48.24285" lon="7.29071">
        <ele>684.5</ele>
        <time>2021-08-04T10:47:16Z</time>
      </trkpt>
      <trkpt lat="48.2429" lon="7.29065">
        <ele>684.5</ele>
        <time>2021-08-04T10:47:18Z</time>
      </trkpt>
      <trkpt lat="48.24295" lon="7.29056">
        <ele>684.5</ele>
        <time>2021-08-04T10:47:19Z</time>
      </trkpt>
      <trkpt lat="48.24296" lon="7.29049">
        <ele>684.5</ele>
        <time>2021-08-04T10:47:21Z</time>
      </trkpt>
      <trkpt lat="48.24296" lon="7.29044">
        <ele>684.6</ele>
        <time>2021-08-04T10:47:22Z</time>
      </trkpt>
      <trkpt lat="48.24297" lon="7.2904">
        <ele>684.6</ele>
        <time>2021-08-04T10:47:23Z</time>
      </trkpt>
      <trkpt lat="48.24299" lon="7.29035">
        <ele>684.6</ele>
        <time>2021-08-04T10:47:24Z</time>
      </trkpt>
      <trkpt lat="48.24301" lon="7.2903">
        <ele>684.6</ele>
        <time>2021-08-04T10:47:25Z</time>
      </trkpt>
      <trkpt lat="48.24303" lon="7.29018">
        <ele>684.7</ele>
        <time>2021-08-04T10:47:27Z</time>
      </trkpt>
      <trkpt lat="48.24304" lon="7.29012">
        <ele>684.7</ele>
        <time>2021-08-04T10:47:28Z</time>
      </trkpt>
      <trkpt lat="48.24304" lon="7.29006">
        <ele>684.7</ele>
        <time>2021-08-04T10:47:29Z</time>
      </trkpt>
      <trkpt lat="48.24304" lon="7.29002">
        <ele>684.7</ele>
        <time>2021-08-04T10:47:30Z</time>
      </trkpt>
      <trkpt lat="48.24305" lon="7.28998">
        <ele>684.8</ele>
        <time>2021-08-04T10:47:32Z</time>
      </trkpt>
      <trkpt lat="48.24306" lon="7.28992">
        <ele>684.8</ele>
        <time>2021-08-04T10:47:33Z</time>
      </trkpt>
      <trkpt lat="48.24306" lon="7.28986">
        <ele>684.8</ele>
        <time>2021-08-04T10:47:34Z</time>
      </trkpt>
      <trkpt lat="48.24308" lon="7.28978">
        <ele>684.8</ele>
        <time>2021-08-04T10:47:35Z</time>
      </trkpt>
      <trkpt lat="48.24309" lon="7.28973">
        <ele>684.8</ele>
        <time>2021-08-04T10:47:36Z</time>
      </trkpt>
      <trkpt lat="48.2431" lon="7.28967">
        <ele>684.8</ele>
        <time>2021-08-04T10:47:37Z</time>
      </trkpt>
      <trkpt lat="48.24312" lon="7.2896">
        <ele>684.7</ele>
        <time>2021-08-04T10:47:39Z</time>
      </trkpt>
      <trkpt lat="48.24314" lon="7.28955">
        <ele>684.7</ele>
        <time>2021-08-04T10:47:40Z</time>
      </trkpt>
      <trkpt lat="48.24317" lon="7.28951">
        <ele>684.7</ele>
        <time>2021-08-04T10:47:41Z</time>
      </trkpt>
      <trkpt lat="48.2432" lon="7.28944">
        <ele>684.7</ele>
        <time>2021-08-04T10:47:42Z</time>
      </trkpt>
      <trkpt lat="48.24322" lon="7.28938">
        <ele>684.7</ele>
        <time>2021-08-04T10:47:44Z</time>
      </trkpt>
      <trkpt lat="48.24324" lon="7.28933">
        <ele>684.7</ele>
        <time>2021-08-04T10:47:45Z</time>
      </trkpt>
      <trkpt lat="48.24325" lon="7.28928">
        <ele>684.6</ele>
        <time>2021-08-04T10:47:46Z</time>
      </trkpt>
      <trkpt lat="48.24326" lon="7.28921">
        <ele>684.6</ele>
        <time>2021-08-04T10:47:47Z</time>
      </trkpt>
      <trkpt lat="48.24328" lon="7.28914">
        <ele>684.6</ele>
        <time>2021-08-04T10:47:49Z</time>
      </trkpt>
      <trkpt lat="48.24329" lon="7.28909">
        <ele>684.5</ele>
        <time>2021-08-04T10:47:50Z</time>
      </trkpt>
      <trkpt lat="48.24329" lon="7.28905">
        <ele>684.5</ele>
        <time>2021-08-04T10:47:51Z</time>
      </trkpt>
      <trkpt lat="48.2433" lon="7.28899">
        <ele>684.5</ele>
        <time>2021-08-04T10:47:52Z</time>
      </trkpt>
      <trkpt lat="48.24332" lon="7.28892">
        <ele>684.4</ele>
        <time>2021-08-04T10:47:54Z</time>
      </trkpt>
      <trkpt lat="48.24335" lon="7.28884">
        <ele>684.4</ele>
        <time>2021-08-04T10:47:56Z</time>
      </trkpt>
      <trkpt lat="48.24337" lon="7.28878">
        <ele>684.4</ele>
        <time>2021-08-04T10:47:57Z</time>
      </trkpt>
      <trkpt lat="48.24341" lon="7.2887">
        <ele>684.3</ele>
        <time>2021-08-04T10:47:59Z</time>
      </trkpt>
      <trkpt lat="48.24343" lon="7.28867">
        <ele>684.3</ele>
        <time>2021-08-04T10:48:00Z</time>
      </trkpt>
      <trkpt lat="48.24346" lon="7.28863">
        <ele>684.3</ele>
        <time>2021-08-04T10:48:01Z</time>
      </trkpt>
      <trkpt lat="48.24348" lon="7.28859">
        <ele>684.3</ele>
        <time>2021-08-04T10:48:02Z</time>
      </trkpt>
      <trkpt lat="48.2435" lon="7.28856">
        <ele>684.3</ele>
        <time>2021-08-04T10:48:03Z</time>
      </trkpt>
      <trkpt lat="48.24353" lon="7.2885">
        <ele>684.2</ele>
        <time>2021-08-04T10:48:05Z</time>
      </trkpt>
      <trkpt lat="48.24355" lon="7.28844">
        <ele>684.2</ele>
        <time>2021-08-04T10:48:06Z</time>
      </trkpt>
      <trkpt lat="48.24358" lon="7.2884">
        <ele>684.2</ele>
        <time>2021-08-04T10:48:08Z</time>
      </trkpt>
      <trkpt lat="48.2436" lon="7.28835">
        <ele>684.2</ele>
        <time>2021-08-04T10:48:09Z</time>
      </trkpt>
      <trkpt lat="48.24362" lon="7.28831">
        <ele>684.2</ele>
        <time>2021-08-04T10:48:10Z</time>
      </trkpt>
      <trkpt lat="48.24363" lon="7.28827">
        <ele>684.2</ele>
        <time>2021-08-04T10:48:11Z</time>
      </trkpt>
      <trkpt lat="48.24364" lon="7.28821">
        <ele>684.2</ele>
        <time>2021-08-04T10:48:13Z</time>
      </trkpt>
      <trkpt lat="48.24366" lon="7.28816">
        <ele>684.2</ele>
        <time>2021-08-04T10:48:14Z</time>
      </trkpt>
      <trkpt lat="48.24366" lon="7.28814">
        <ele>684.2</ele>
        <time>2021-08-04T10:48:15Z</time>
      </trkpt>
      <trkpt lat="48.24368" lon="7.28809">
        <ele>684.2</ele>
        <time>2021-08-04T10:48:16Z</time>
      </trkpt>
      <trkpt lat="48.2437" lon="7.28805">
        <ele>684.3</ele>
        <time>2021-08-04T10:48:17Z</time>
      </trkpt>
      <trkpt lat="48.24373" lon="7.28801">
        <ele>684.3</ele>
        <time>2021-08-04T10:48:18Z</time>
      </trkpt>
      <trkpt lat="48.24376" lon="7.28797">
        <ele>684.3</ele>
        <time>2021-08-04T10:48:20Z</time>
      </trkpt>
      <trkpt lat="48.24377" lon="7.28795">
        <ele>684.3</ele>
        <time>2021-08-04T10:48:21Z</time>
      </trkpt>
      <trkpt lat="48.2438" lon="7.28791">
        <ele>684.3</ele>
        <time>2021-08-04T10:48:23Z</time>
      </trkpt>
      <trkpt lat="48.24382" lon="7.28788">
        <ele>684.4</ele>
        <time>2021-08-04T10:48:24Z</time>
      </trkpt>
      <trkpt lat="48.24387" lon="7.28785">
        <ele>684.4</ele>
        <time>2021-08-04T10:48:26Z</time>
      </trkpt>
      <trkpt lat="48.24389" lon="7.28782">
        <ele>684.4</ele>
        <time>2021-08-04T10:48:27Z</time>
      </trkpt>
      <trkpt lat="48.24391" lon="7.28779">
        <ele>684.4</ele>
        <time>2021-08-04T10:48:29Z</time>
      </trkpt>
      <trkpt lat="48.24393" lon="7.28775">
        <ele>684.5</ele>
        <time>2021-08-04T10:48:30Z</time>
      </trkpt>
      <trkpt lat="48.24395" lon="7.2877">
        <ele>684.5</ele>
        <time>2021-08-04T10:48:31Z</time>
      </trkpt>
      <trkpt lat="48.24397" lon="7.28765">
        <ele>684.5</ele>
        <time>2021-08-04T10:48:32Z</time>
      </trkpt>
      <trkpt lat="48.24401" lon="7.28759">
        <ele>684.6</ele>
        <time>2021-08-04T10:48:34Z</time>
      </trkpt>
      <trkpt lat="48.24403" lon="7.28755">
        <ele>684.6</ele>
        <time>2021-08-04T10:48:35Z</time>
      </trkpt>
      <trkpt lat="48.24405" lon="7.2875">
        <ele>684.7</ele>
        <time>2021-08-04T10:48:36Z</time>
      </trkpt>
      <trkpt lat="48.24405" lon="7.28749">
        <ele>684.7</ele>
        <time>2021-08-04T10:48:37Z</time>
      </trkpt>
      <trkpt lat="48.24408" lon="7.28745">
        <ele>684.7</ele>
        <time>2021-08-04T10:48:39Z</time>
      </trkpt>
      <trkpt lat="48.24408" lon="7.28743">
        <ele>684.7</ele>
        <time>2021-08-04T10:48:40Z</time>
      </trkpt>
      <trkpt lat="48.24408" lon="7.28743">
        <ele>684.7</ele>
        <time>2021-08-04T10:48:41Z</time>
      </trkpt>
      <trkpt lat="48.24408" lon="7.28745">
        <ele>684.7</ele>
        <time>2021-08-04T10:48:43Z</time>
      </trkpt>
      <trkpt lat="48.24408" lon="7.28745">
        <ele>684.7</ele>
        <time>2021-08-04T10:48:44Z</time>
      </trkpt>
      <trkpt lat="48.24408" lon="7.28745">
        <ele>684.7</ele>
        <time>2021-08-04T10:48:46Z</time>
      </trkpt>
      <trkpt lat="48.24408" lon="7.28745">
        <ele>684.7</ele>
        <time>2021-08-04T10:48:48Z</time>
      </trkpt>
      <trkpt lat="48.24408" lon="7.28745">
        <ele>684.7</ele>
        <time>2021-08-04T10:48:50Z</time>
      </trkpt>
      <trkpt lat="48.24414" lon="7.28743">
        <ele>684.8</ele>
        <time>2021-08-04T10:49:08Z</time>
      </trkpt>
      <trkpt lat="48.24417" lon="7.28744">
        <ele>684.8</ele>
        <time>2021-08-04T10:49:10Z</time>
      </trkpt>
      <trkpt lat="48.24419" lon="7.28745">
        <ele>684.9</ele>
        <time>2021-08-04T10:49:11Z</time>
      </trkpt>
      <trkpt lat="48.24423" lon="7.28748">
        <ele>684.9</ele>
        <time>2021-08-04T10:49:13Z</time>
      </trkpt>
      <trkpt lat="48.24426" lon="7.28749">
        <ele>684.9</ele>
        <time>2021-08-04T10:49:14Z</time>
      </trkpt>
      <trkpt lat="48.24429" lon="7.28749">
        <ele>685</ele>
        <time>2021-08-04T10:49:15Z</time>
      </trkpt>
      <trkpt lat="48.24431" lon="7.28751">
        <ele>685</ele>
        <time>2021-08-04T10:49:17Z</time>
      </trkpt>
      <trkpt lat="48.24432" lon="7.28752">
        <ele>685</ele>
        <time>2021-08-04T10:49:19Z</time>
      </trkpt>
      <trkpt lat="48.24434" lon="7.28753">
        <ele>685.1</ele>
        <time>2021-08-04T10:49:20Z</time>
      </trkpt>
      <trkpt lat="48.24436" lon="7.28754">
        <ele>685.1</ele>
        <time>2021-08-04T10:49:22Z</time>
      </trkpt>
      <trkpt lat="48.24438" lon="7.28755">
        <ele>685.2</ele>
        <time>2021-08-04T10:49:23Z</time>
      </trkpt>
      <trkpt lat="48.2444" lon="7.28756">
        <ele>685.2</ele>
        <time>2021-08-04T10:49:33Z</time>
      </trkpt>
      <trkpt lat="48.24442" lon="7.28757">
        <ele>685.3</ele>
        <time>2021-08-04T10:49:34Z</time>
      </trkpt>
      <trkpt lat="48.24447" lon="7.28752">
        <ele>685.4</ele>
        <time>2021-08-04T10:49:36Z</time>
      </trkpt>
      <trkpt lat="48.24451" lon="7.2875">
        <ele>685.5</ele>
        <time>2021-08-04T10:49:37Z</time>
      </trkpt>
      <trkpt lat="48.24454" lon="7.28747">
        <ele>685.6</ele>
        <time>2021-08-04T10:49:38Z</time>
      </trkpt>
      <trkpt lat="48.24459" lon="7.28743">
        <ele>685.8</ele>
        <time>2021-08-04T10:49:40Z</time>
      </trkpt>
      <trkpt lat="48.24461" lon="7.28739">
        <ele>685.9</ele>
        <time>2021-08-04T10:49:41Z</time>
      </trkpt>
      <trkpt lat="48.24463" lon="7.28735">
        <ele>686</ele>
        <time>2021-08-04T10:49:42Z</time>
      </trkpt>
      <trkpt lat="48.24463" lon="7.28729">
        <ele>686.1</ele>
        <time>2021-08-04T10:49:44Z</time>
      </trkpt>
      <trkpt lat="48.24464" lon="7.2872">
        <ele>686.3</ele>
        <time>2021-08-04T10:49:46Z</time>
      </trkpt>
      <trkpt lat="48.24464" lon="7.28714">
        <ele>686.4</ele>
        <time>2021-08-04T10:49:47Z</time>
      </trkpt>
      <trkpt lat="48.24465" lon="7.28709">
        <ele>686.5</ele>
        <time>2021-08-04T10:49:48Z</time>
      </trkpt>
      <trkpt lat="48.24464" lon="7.28705">
        <ele>686.7</ele>
        <time>2021-08-04T10:49:49Z</time>
      </trkpt>
      <trkpt lat="48.24464" lon="7.28701">
        <ele>686.8</ele>
        <time>2021-08-04T10:49:50Z</time>
      </trkpt>
      <trkpt lat="48.24463" lon="7.28698">
        <ele>686.8</ele>
        <time>2021-08-04T10:49:52Z</time>
      </trkpt>
      <trkpt lat="48.2446" lon="7.28696">
        <ele>687</ele>
        <time>2021-08-04T10:49:53Z</time>
      </trkpt>
      <trkpt lat="48.2446" lon="7.28695">
        <ele>687</ele>
        <time>2021-08-04T10:49:54Z</time>
      </trkpt>
      <trkpt lat="48.24459" lon="7.28694">
        <ele>687</ele>
        <time>2021-08-04T10:49:55Z</time>
      </trkpt>
      <trkpt lat="48.24459" lon="7.28694">
        <ele>687.1</ele>
        <time>2021-08-04T10:49:56Z</time>
      </trkpt>
      <trkpt lat="48.24459" lon="7.28694">
        <ele>687.1</ele>
        <time>2021-08-04T10:49:58Z</time>
      </trkpt>
      <trkpt lat="48.24459" lon="7.28694">
        <ele>687.1</ele>
        <time>2021-08-04T10:49:59Z</time>
      </trkpt>
      <trkpt lat="48.24459" lon="7.28693">
        <ele>687.1</ele>
        <time>2021-08-04T10:50:00Z</time>
      </trkpt>
      <trkpt lat="48.24473" lon="7.2868">
        <ele>687.8</ele>
        <time>2021-08-04T10:50:11Z</time>
      </trkpt>
      <trkpt lat="48.24474" lon="7.28679">
        <ele>687.9</ele>
        <time>2021-08-04T10:50:12Z</time>
      </trkpt>
      <trkpt lat="48.24476" lon="7.28676">
        <ele>688</ele>
        <time>2021-08-04T10:50:14Z</time>
      </trkpt>
      <trkpt lat="48.24478" lon="7.28673">
        <ele>688.2</ele>
        <time>2021-08-04T10:50:15Z</time>
      </trkpt>
      <trkpt lat="48.24479" lon="7.28672">
        <ele>688.3</ele>
        <time>2021-08-04T10:50:16Z</time>
      </trkpt>
      <trkpt lat="48.24482" lon="7.28668">
        <ele>688.5</ele>
        <time>2021-08-04T10:50:18Z</time>
      </trkpt>
      <trkpt lat="48.24483" lon="7.28667">
        <ele>688.6</ele>
        <time>2021-08-04T10:50:19Z</time>
      </trkpt>
      <trkpt lat="48.24486" lon="7.28662">
        <ele>688.8</ele>
        <time>2021-08-04T10:50:20Z</time>
      </trkpt>
      <trkpt lat="48.24489" lon="7.28658">
        <ele>689.1</ele>
        <time>2021-08-04T10:50:21Z</time>
      </trkpt>
      <trkpt lat="48.2449" lon="7.28657">
        <ele>689.2</ele>
        <time>2021-08-04T10:50:22Z</time>
      </trkpt>
      <trkpt lat="48.24494" lon="7.28652">
        <ele>689.6</ele>
        <time>2021-08-04T10:50:24Z</time>
      </trkpt>
      <trkpt lat="48.24496" lon="7.2865">
        <ele>689.7</ele>
        <time>2021-08-04T10:50:25Z</time>
      </trkpt>
      <trkpt lat="48.24497" lon="7.28649">
        <ele>689.8</ele>
        <time>2021-08-04T10:50:26Z</time>
      </trkpt>
      <trkpt lat="48.24499" lon="7.28647">
        <ele>690.1</ele>
        <time>2021-08-04T10:50:27Z</time>
      </trkpt>
      <trkpt lat="48.24501" lon="7.28646">
        <ele>690.2</ele>
        <time>2021-08-04T10:50:29Z</time>
      </trkpt>
      <trkpt lat="48.24504" lon="7.28644">
        <ele>690.4</ele>
        <time>2021-08-04T10:50:30Z</time>
      </trkpt>
      <trkpt lat="48.24508" lon="7.2864">
        <ele>690.8</ele>
        <time>2021-08-04T10:50:32Z</time>
      </trkpt>
      <trkpt lat="48.24511" lon="7.28637">
        <ele>691.1</ele>
        <time>2021-08-04T10:50:33Z</time>
      </trkpt>
      <trkpt lat="48.24513" lon="7.28635">
        <ele>691.3</ele>
        <time>2021-08-04T10:50:34Z</time>
      </trkpt>
      <trkpt lat="48.24515" lon="7.28633">
        <ele>691.6</ele>
        <time>2021-08-04T10:50:36Z</time>
      </trkpt>
      <trkpt lat="48.24518" lon="7.2863">
        <ele>691.9</ele>
        <time>2021-08-04T10:50:37Z</time>
      </trkpt>
      <trkpt lat="48.2452" lon="7.28628">
        <ele>692.1</ele>
        <time>2021-08-04T10:50:39Z</time>
      </trkpt>
      <trkpt lat="48.24521" lon="7.28627">
        <ele>692.2</ele>
        <time>2021-08-04T10:50:40Z</time>
      </trkpt>
      <trkpt lat="48.24522" lon="7.28627">
        <ele>692.3</ele>
        <time>2021-08-04T10:50:41Z</time>
      </trkpt>
      <trkpt lat="48.24522" lon="7.28627">
        <ele>692.3</ele>
        <time>2021-08-04T10:50:43Z</time>
      </trkpt>
      <trkpt lat="48.24521" lon="7.28627">
        <ele>692.4</ele>
        <time>2021-08-04T10:50:44Z</time>
      </trkpt>
      <trkpt lat="48.2452" lon="7.28627">
        <ele>692.5</ele>
        <time>2021-08-04T10:50:46Z</time>
      </trkpt>
      <trkpt lat="48.2452" lon="7.28627">
        <ele>692.5</ele>
        <time>2021-08-04T10:50:47Z</time>
      </trkpt>
      <trkpt lat="48.2452" lon="7.28627">
        <ele>692.5</ele>
        <time>2021-08-04T10:50:48Z</time>
      </trkpt>
      <trkpt lat="48.2452" lon="7.28626">
        <ele>692.6</ele>
        <time>2021-08-04T10:50:49Z</time>
      </trkpt>
      <trkpt lat="48.24519" lon="7.28625">
        <ele>692.7</ele>
        <time>2021-08-04T10:50:50Z</time>
      </trkpt>
      <trkpt lat="48.24519" lon="7.28623">
        <ele>692.8</ele>
        <time>2021-08-04T10:50:52Z</time>
      </trkpt>
      <trkpt lat="48.24408" lon="7.28185">
        <ele>730.4</ele>
        <time>2021-08-04T10:58:48Z</time>
      </trkpt>
      <trkpt lat="48.24402" lon="7.28183">
        <ele>730.8</ele>
        <time>2021-08-04T10:58:49Z</time>
      </trkpt>
      <trkpt lat="48.24398" lon="7.28182">
        <ele>731.1</ele>
        <time>2021-08-04T10:58:51Z</time>
      </trkpt>
      <trkpt lat="48.24393" lon="7.28179">
        <ele>731.4</ele>
        <time>2021-08-04T10:58:52Z</time>
      </trkpt>
      <trkpt lat="48.24392" lon="7.28177">
        <ele>731.5</ele>
        <time>2021-08-04T10:58:54Z</time>
      </trkpt>
      <trkpt lat="48.24391" lon="7.28177">
        <ele>731.5</ele>
        <time>2021-08-04T10:58:55Z</time>
      </trkpt>
      <trkpt lat="48.24391" lon="7.28177">
        <ele>731.6</ele>
        <time>2021-08-04T10:58:56Z</time>
      </trkpt>
      <trkpt lat="48.24391" lon="7.28177">
        <ele>731.6</ele>
        <time>2021-08-04T10:58:58Z</time>
      </trkpt>
      <trkpt lat="48.24391" lon="7.28177">
        <ele>731.6</ele>
        <time>2021-08-04T10:58:59Z</time>
      </trkpt>
      <trkpt lat="48.2439" lon="7.28176">
        <ele>731.6</ele>
        <time>2021-08-04T10:59:00Z</time>
      </trkpt>
      <trkpt lat="48.24389" lon="7.28175">
        <ele>731.7</ele>
        <time>2021-08-04T10:59:02Z</time>
      </trkpt>
      <trkpt lat="48.24373" lon="7.28161">
        <ele>733</ele>
        <time>2021-08-04T10:59:16Z</time>
      </trkpt>
      <trkpt lat="48.2437" lon="7.28158">
        <ele>733.2</ele>
        <time>2021-08-04T10:59:18Z</time>
      </trkpt>
      <trkpt lat="48.24366" lon="7.28155">
        <ele>733.5</ele>
        <time>2021-08-04T10:59:20Z</time>
      </trkpt>
      <trkpt lat="48.24364" lon="7.28153">
        <ele>733.7</ele>
        <time>2021-08-04T10:59:21Z</time>
      </trkpt>
      <trkpt lat="48.24362" lon="7.2815">
        <ele>733.9</ele>
        <time>2021-08-04T10:59:23Z</time>
      </trkpt>
      <trkpt lat="48.2436" lon="7.28148">
        <ele>734.1</ele>
        <time>2021-08-04T10:59:24Z</time>
      </trkpt>
      <trkpt lat="48.24358" lon="7.28146">
        <ele>734.2</ele>
        <time>2021-08-04T10:59:25Z</time>
      </trkpt>
      <trkpt lat="48.24356" lon="7.28144">
        <ele>734.4</ele>
        <time>2021-08-04T10:59:27Z</time>
      </trkpt>
      <trkpt lat="48.24354" lon="7.28142">
        <ele>734.6</ele>
        <time>2021-08-04T10:59:28Z</time>
      </trkpt>
      <trkpt lat="48.24352" lon="7.2814">
        <ele>734.8</ele>
        <time>2021-08-04T11:00:42Z</time>
      </trkpt>
      <trkpt lat="48.24351" lon="7.28138">
        <ele>735</ele>
        <time>2021-08-04T11:00:43Z</time>
      </trkpt>
      <trkpt lat="48.24355" lon="7.28143">
        <ele>735.5</ele>
        <time>2021-08-04T11:00:44Z</time>
      </trkpt>
      <trkpt lat="48.24362" lon="7.28151">
        <ele>736.2</ele>
        <time>2021-08-04T11:00:46Z</time>
      </trkpt>
      <trkpt lat="48.24365" lon="7.28158">
        <ele>735.5</ele>
        <time>2021-08-04T11:00:48Z</time>
      </trkpt>
      <trkpt lat="48.24367" lon="7.28167">
        <ele>734.7</ele>
        <time>2021-08-04T11:00:49Z</time>
      </trkpt>
      <trkpt lat="48.24369" lon="7.28174">
        <ele>734.2</ele>
        <time>2021-08-04T11:00:50Z</time>
      </trkpt>
      <trkpt lat="48.24373" lon="7.28182">
        <ele>733.5</ele>
        <time>2021-08-04T11:00:51Z</time>
      </trkpt>
      <trkpt lat="48.24378" lon="7.28188">
        <ele>732.8</ele>
        <time>2021-08-04T11:00:53Z</time>
      </trkpt>
      <trkpt lat="48.24382" lon="7.28193">
        <ele>732.4</ele>
        <time>2021-08-04T11:00:54Z</time>
      </trkpt>
      <trkpt lat="48.24387" lon="7.28198">
        <ele>731.8</ele>
        <time>2021-08-04T11:00:55Z</time>
      </trkpt>
      <trkpt lat="48.24393" lon="7.28202">
        <ele>731.2</ele>
        <time>2021-08-04T11:00:57Z</time>
      </trkpt>
      <trkpt lat="48.24396" lon="7.28204">
        <ele>730.5</ele>
        <time>2021-08-04T11:00:58Z</time>
      </trkpt>
      <trkpt lat="48.24397" lon="7.28204">
        <ele>730.5</ele>
        <time>2021-08-04T11:00:59Z</time>
      </trkpt>
      <trkpt lat="48.244" lon="7.28201">
        <ele>730.5</ele>
        <time>2021-08-04T11:01:01Z</time>
      </trkpt>
      <trkpt lat="48.24402" lon="7.282">
        <ele>730.5</ele>
        <time>2021-08-04T11:01:02Z</time>
      </trkpt>
      <trkpt lat="48.24406" lon="7.28198">
        <ele>730</ele>
        <time>2021-08-04T11:01:04Z</time>
      </trkpt>
      <trkpt lat="48.24405" lon="7.28184">
        <ele>730.6</ele>
        <time>2021-08-04T11:01:06Z</time>
      </trkpt>
      <trkpt lat="48.24404" lon="7.28172">
        <ele>731</ele>
        <time>2021-08-04T11:01:07Z</time>
      </trkpt>
      <trkpt lat="48.24403" lon="7.28165">
        <ele>731.3</ele>
        <time>2021-08-04T11:01:08Z</time>
      </trkpt>
      <trkpt lat="48.24402" lon="7.28157">
        <ele>731.6</ele>
        <time>2021-08-04T11:01:10Z</time>
      </trkpt>
      <trkpt lat="48.24398" lon="7.2815">
        <ele>732</ele>
        <time>2021-08-04T11:01:12Z</time>
      </trkpt>
      <trkpt lat="48.24395" lon="7.28145">
        <ele>732.3</ele>
        <time>2021-08-04T11:01:13Z</time>
      </trkpt>
      <trkpt lat="48.24391" lon="7.2814">
        <ele>732.6</ele>
        <time>2021-08-04T11:01:14Z</time>
      </trkpt>
      <trkpt lat="48.24386" lon="7.28137">
        <ele>732.9</ele>
        <time>2021-08-04T11:01:16Z</time>
      </trkpt>
      <trkpt lat="48.24382" lon="7.28134">
        <ele>733.2</ele>
        <time>2021-08-04T11:01:17Z</time>
      </trkpt>
      <trkpt lat="48.24379" lon="7.28132">
        <ele>733.4</ele>
        <time>2021-08-04T11:01:18Z</time>
      </trkpt>
      <trkpt lat="48.24378" lon="7.28131">
        <ele>733.5</ele>
        <time>2021-08-04T11:01:19Z</time>
      </trkpt>
      <trkpt lat="48.24376" lon="7.28127">
        <ele>733.7</ele>
        <time>2021-08-04T11:01:21Z</time>
      </trkpt>
      <trkpt lat="48.24376" lon="7.28126">
        <ele>733.8</ele>
        <time>2021-08-04T11:01:22Z</time>
      </trkpt>
      <trkpt lat="48.24375" lon="7.28121">
        <ele>734</ele>
        <time>2021-08-04T11:01:23Z</time>
      </trkpt>
      <trkpt lat="48.24375" lon="7.28119">
        <ele>734.1</ele>
        <time>2021-08-04T11:01:24Z</time>
      </trkpt>
      <trkpt lat="48.24376" lon="7.28113">
        <ele>734.3</ele>
        <time>2021-08-04T11:01:26Z</time>
      </trkpt>
      <trkpt lat="48.24378" lon="7.28109">
        <ele>734.5</ele>
        <time>2021-08-04T11:01:27Z</time>
      </trkpt>
      <trkpt lat="48.24379" lon="7.28105">
        <ele>734.7</ele>
        <time>2021-08-04T11:01:28Z</time>
      </trkpt>
      <trkpt lat="48.24379" lon="7.28104">
        <ele>734.8</ele>
        <time>2021-08-04T11:01:29Z</time>
      </trkpt>
      <trkpt lat="48.24379" lon="7.28102">
        <ele>734.9</ele>
        <time>2021-08-04T11:01:31Z</time>
      </trkpt>
      <trkpt lat="48.24379" lon="7.281">
        <ele>734.9</ele>
        <time>2021-08-04T11:01:32Z</time>
      </trkpt>
      <trkpt lat="48.24379" lon="7.28099">
        <ele>735</ele>
        <time>2021-08-04T11:01:33Z</time>
      </trkpt>
      <trkpt lat="48.24379" lon="7.28097">
        <ele>735</ele>
        <time>2021-08-04T11:01:34Z</time>
      </trkpt>
      <trkpt lat="48.24379" lon="7.28093">
        <ele>735.2</ele>
        <time>2021-08-04T11:01:36Z</time>
      </trkpt>
      <trkpt lat="48.24379" lon="7.28088">
        <ele>735.4</ele>
        <time>2021-08-04T11:01:37Z</time>
      </trkpt>
      <trkpt lat="48.24379" lon="7.28086">
        <ele>735.5</ele>
        <time>2021-08-04T11:01:38Z</time>
      </trkpt>
      <trkpt lat="48.24379" lon="7.28081">
        <ele>735.7</ele>
        <time>2021-08-04T11:01:39Z</time>
      </trkpt>
      <trkpt lat="48.24379" lon="7.28077">
        <ele>736</ele>
        <time>2021-08-04T11:01:41Z</time>
      </trkpt>
      <trkpt lat="48.24379" lon="7.28075">
        <ele>736</ele>
        <time>2021-08-04T11:01:42Z</time>
      </trkpt>
      <trkpt lat="48.24379" lon="7.28072">
        <ele>736.2</ele>
        <time>2021-08-04T11:01:43Z</time>
      </trkpt>
      <trkpt lat="48.24378" lon="7.28068">
        <ele>736.4</ele>
        <time>2021-08-04T11:01:45Z</time>
      </trkpt>
      <trkpt lat="48.24378" lon="7.28066">
        <ele>736.5</ele>
        <time>2021-08-04T11:01:46Z</time>
      </trkpt>
      <trkpt lat="48.24377" lon="7.28062">
        <ele>736.7</ele>
        <time>2021-08-04T11:01:47Z</time>
      </trkpt>
      <trkpt lat="48.24376" lon="7.28059">
        <ele>736.9</ele>
        <time>2021-08-04T11:01:49Z</time>
      </trkpt>
      <trkpt lat="48.24377" lon="7.28055">
        <ele>737.1</ele>
        <time>2021-08-04T11:01:51Z</time>
      </trkpt>
      <trkpt lat="48.2438" lon="7.28054">
        <ele>737.4</ele>
        <time>2021-08-04T11:01:52Z</time>
      </trkpt>
      <trkpt lat="48.24381" lon="7.28053">
        <ele>737.5</ele>
        <time>2021-08-04T11:01:54Z</time>
      </trkpt>
      <trkpt lat="48.24381" lon="7.28052">
        <ele>737.6</ele>
        <time>2021-08-04T11:01:56Z</time>
      </trkpt>
      <trkpt lat="48.24381" lon="7.28052">
        <ele>737.6</ele>
        <time>2021-08-04T11:01:58Z</time>
      </trkpt>
      <trkpt lat="48.24381" lon="7.28052">
        <ele>737.6</ele>
        <time>2021-08-04T11:01:59Z</time>
      </trkpt>
      <trkpt lat="48.24221" lon="7.2753">
        <ele>780</ele>
        <time>2021-08-04T11:10:33Z</time>
      </trkpt>
      <trkpt lat="48.24219" lon="7.27531">
        <ele>780.2</ele>
        <time>2021-08-04T11:10:34Z</time>
      </trkpt>
      <trkpt lat="48.24215" lon="7.27531">
        <ele>780.5</ele>
        <time>2021-08-04T11:10:36Z</time>
      </trkpt>
      <trkpt lat="48.24211" lon="7.2753">
        <ele>780.8</ele>
        <time>2021-08-04T11:10:37Z</time>
      </trkpt>
      <trkpt lat="48.2421" lon="7.2753">
        <ele>780.9</ele>
        <time>2021-08-04T11:10:38Z</time>
      </trkpt>
      <trkpt lat="48.2421" lon="7.27529">
        <ele>780.9</ele>
        <time>2021-08-04T11:10:40Z</time>
      </trkpt>
      <trkpt lat="48.2421" lon="7.27529">
        <ele>781</ele>
        <time>2021-08-04T11:10:42Z</time>
      </trkpt>
      <trkpt lat="48.24209" lon="7.27528">
        <ele>781</ele>
        <time>2021-08-04T11:10:43Z</time>
      </trkpt>
      <trkpt lat="48.24209" lon="7.27528">
        <ele>781.1</ele>
        <time>2021-08-04T11:10:44Z</time>
      </trkpt>
      <trkpt lat="48.24209" lon="7.27528">
        <ele>781.1</ele>
        <time>2021-08-04T11:10:45Z</time>
      </trkpt>
      <trkpt lat="48.24209" lon="7.27528">
        <ele>781.1</ele>
        <time>2021-08-04T11:10:47Z</time>
      </trkpt>
      <trkpt lat="48.24208" lon="7.27528">
        <ele>781.2</ele>
        <time>2021-08-04T11:10:48Z</time>
      </trkpt>
      <trkpt lat="48.24208" lon="7.27527">
        <ele>781.2</ele>
        <time>2021-08-04T11:10:49Z</time>
      </trkpt>
      <trkpt lat="48.24208" lon="7.27527">
        <ele>781.2</ele>
        <time>2021-08-04T11:10:51Z</time>
      </trkpt>
      <trkpt lat="48.24208" lon="7.27527">
        <ele>781.2</ele>
        <time>2021-08-04T11:10:52Z</time>
      </trkpt>
      <trkpt lat="48.24208" lon="7.27527">
        <ele>781.2</ele>
        <time>2021-08-04T11:10:53Z</time>
      </trkpt>
      <trkpt lat="48.24206" lon="7.27525">
        <ele>781.5</ele>
        <time>2021-08-04T11:10:55Z</time>
      </trkpt>
      <trkpt lat="48.24118" lon="7.27449">
        <ele>791</ele>
        <time>2021-08-04T11:12:52Z</time>
      </trkpt>
      <trkpt lat="48.24116" lon="7.27445">
        <ele>791.2</ele>
        <time>2021-08-04T11:12:53Z</time>
      </trkpt>
      <trkpt lat="48.24115" lon="7.27444">
        <ele>791.3</ele>
        <time>2021-08-04T11:12:54Z</time>
      </trkpt>
      <trkpt lat="48.24113" lon="7.2744">
        <ele>791.6</ele>
        <time>2021-08-04T11:12:56Z</time>
      </trkpt>
      <trkpt lat="48.24113" lon="7.27439">
        <ele>791.6</ele>
        <time>2021-08-04T11:12:57Z</time>
      </trkpt>
      <trkpt lat="48.24112" lon="7.27438">
        <ele>791.7</ele>
        <time>2021-08-04T11:12:58Z</time>
      </trkpt>
      <trkpt lat="48.24112" lon="7.27438">
        <ele>791.7</ele>
        <time>2021-08-04T11:13:00Z</time>
      </trkpt>
      <trkpt lat="48.24112" lon="7.27438">
        <ele>791.7</ele>
        <time>2021-08-04T11:13:01Z</time>
      </trkpt>
      <trkpt lat="48.24112" lon="7.27437">
        <ele>791.8</ele>
        <time>2021-08-04T11:13:02Z</time>
      </trkpt>
      <trkpt lat="48.24113" lon="7.27437">
        <ele>791.8</ele>
        <time>2021-08-04T11:13:04Z</time>
      </trkpt>
      <trkpt lat="48.24114" lon="7.27435">
        <ele>791.9</ele>
        <time>2021-08-04T11:13:06Z</time>
      </trkpt>
      <trkpt lat="48.24114" lon="7.27434">
        <ele>792</ele>
        <time>2021-08-04T11:13:07Z</time>
      </trkpt>
      <trkpt lat="48.24115" lon="7.27433">
        <ele>792.1</ele>
        <time>2021-08-04T11:13:08Z</time>
      </trkpt>
      <trkpt lat="48.24116" lon="7.27432">
        <ele>792.2</ele>
        <time>2021-08-04T11:13:10Z</time>
      </trkpt>
      <trkpt lat="48.24116" lon="7.2743">
        <ele>792.3</ele>
        <time>2021-08-04T11:13:12Z</time>
      </trkpt>
      <trkpt lat="48.24054" lon="7.27308">
        <ele>799.9</ele>
        <time>2021-08-04T11:15:02Z</time>
      </trkpt>
      <trkpt lat="48.24053" lon="7.27303">
        <ele>800.1</ele>
        <time>2021-08-04T11:15:03Z</time>
      </trkpt>
      <trkpt lat="48.24052" lon="7.273">
        <ele>800.2</ele>
        <time>2021-08-04T11:15:05Z</time>
      </trkpt>
      <trkpt lat="48.24052" lon="7.27299">
        <ele>800.3</ele>
        <time>2021-08-04T11:15:06Z</time>
      </trkpt>
      <trkpt lat="48.24052" lon="7.27297">
        <ele>800.3</ele>
        <time>2021-08-04T11:15:07Z</time>
      </trkpt>
      <trkpt lat="48.24051" lon="7.27295">
        <ele>800.4</ele>
        <time>2021-08-04T11:15:08Z</time>
      </trkpt>
      <trkpt lat="48.24051" lon="7.27294">
        <ele>800.5</ele>
        <time>2021-08-04T11:15:09Z</time>
      </trkpt>
      <trkpt lat="48.24051" lon="7.2729">
        <ele>800.6</ele>
        <time>2021-08-04T11:15:10Z</time>
      </trkpt>
      <trkpt lat="48.2405" lon="7.27285">
        <ele>800.8</ele>
        <time>2021-08-04T11:15:12Z</time>
      </trkpt>
      <trkpt lat="48.2405" lon="7.27284">
        <ele>800.8</ele>
        <time>2021-08-04T11:15:13Z</time>
      </trkpt>
      <trkpt lat="48.2405" lon="7.27282">
        <ele>800.8</ele>
        <time>2021-08-04T11:15:14Z</time>
      </trkpt>
      <trkpt lat="48.24049" lon="7.27281">
        <ele>800.9</ele>
        <time>2021-08-04T11:15:16Z</time>
      </trkpt>
      <trkpt lat="48.24049" lon="7.2728">
        <ele>800.9</ele>
        <time>2021-08-04T11:15:17Z</time>
      </trkpt>
      <trkpt lat="48.24049" lon="7.27279">
        <ele>800.9</ele>
        <time>2021-08-04T11:15:18Z</time>
      </trkpt>
      <trkpt lat="48.24049" lon="7.27279">
        <ele>800.9</ele>
        <time>2021-08-04T11:15:19Z</time>
      </trkpt>
      <trkpt lat="48.24048" lon="7.27277">
        <ele>801</ele>
        <time>2021-08-04T11:15:21Z</time>
      </trkpt>
      <trkpt lat="48.23996" lon="7.27091">
        <ele>810.9</ele>
        <time>2021-08-04T11:17:44Z</time>
      </trkpt>
      <trkpt lat="48.23996" lon="7.27086">
        <ele>811.2</ele>
        <time>2021-08-04T11:17:45Z</time>
      </trkpt>
      <trkpt lat="48.23996" lon="7.27081">
        <ele>811.4</ele>
        <time>2021-08-04T11:17:46Z</time>
      </trkpt>
      <trkpt lat="48.23995" lon="7.2707">
        <ele>812</ele>
        <time>2021-08-04T11:17:48Z</time>
      </trkpt>
      <trkpt lat="48.23994" lon="7.27065">
        <ele>812.2</ele>
        <time>2021-08-04T11:17:50Z</time>
      </trkpt>
      <trkpt lat="48.23994" lon="7.27064">
        <ele>812.3</ele>
        <time>2021-08-04T11:17:52Z</time>
      </trkpt>
      <trkpt lat="48.23994" lon="7.27062">
        <ele>812.4</ele>
        <time>2021-08-04T11:17:53Z</time>
      </trkpt>
      <trkpt lat="48.23995" lon="7.27061">
        <ele>812.4</ele>
        <time>2021-08-04T11:17:54Z</time>
      </trkpt>
      <trkpt lat="48.23995" lon="7.27058">
        <ele>812.5</ele>
        <time>2021-08-04T11:17:56Z</time>
      </trkpt>
      <trkpt lat="48.23995" lon="7.27056">
        <ele>812.6</ele>
        <time>2021-08-04T11:17:57Z</time>
      </trkpt>
      <trkpt lat="48.23995" lon="7.27054">
        <ele>812.7</ele>
        <time>2021-08-04T11:17:58Z</time>
      </trkpt>
      <trkpt lat="48.23995" lon="7.27051">
        <ele>812.8</ele>
        <time>2021-08-04T11:18:00Z</time>
      </trkpt>
      <trkpt lat="48.23996" lon="7.27049">
        <ele>812.9</ele>
        <time>2021-08-04T11:18:01Z</time>
      </trkpt>
      <trkpt lat="48.23996" lon="7.27047">
        <ele>813</ele>
        <time>2021-08-04T11:18:02Z</time>
      </trkpt>
      <trkpt lat="48.23997" lon="7.27046">
        <ele>813.1</ele>
        <time>2021-08-04T11:18:03Z</time>
      </trkpt>
      <trkpt lat="48.23998" lon="7.27044">
        <ele>813.2</ele>
        <time>2021-08-04T11:18:05Z</time>
      </trkpt>
      <trkpt lat="48.23946" lon="7.2686">
        <ele>823.9</ele>
        <time>2021-08-04T11:20:34Z</time>
      </trkpt>
      <trkpt lat="48.23944" lon="7.26854">
        <ele>824.2</ele>
        <time>2021-08-04T11:20:36Z</time>
      </trkpt>
      <trkpt lat="48.23943" lon="7.2685">
        <ele>824.5</ele>
        <time>2021-08-04T11:20:37Z</time>
      </trkpt>
      <trkpt lat="48.2394" lon="7.26846">
        <ele>824.7</ele>
        <time>2021-08-04T11:20:38Z</time>
      </trkpt>
      <trkpt lat="48.23939" lon="7.26845">
        <ele>824.8</ele>
        <time>2021-08-04T11:20:39Z</time>
      </trkpt>
      <trkpt lat="48.23937" lon="7.26842">
        <ele>825</ele>
        <time>2021-08-04T11:20:41Z</time>
      </trkpt>
      <trkpt lat="48.23937" lon="7.26842">
        <ele>825</ele>
        <time>2021-08-04T11:20:42Z</time>
      </trkpt>
      <trkpt lat="48.23937" lon="7.26841">
        <ele>825.1</ele>
        <time>2021-08-04T11:20:43Z</time>
      </trkpt>
      <trkpt lat="48.23935" lon="7.26837">
        <ele>825.3</ele>
        <time>2021-08-04T11:20:44Z</time>
      </trkpt>
      <trkpt lat="48.23934" lon="7.26836">
        <ele>825.4</ele>
        <time>2021-08-04T11:20:45Z</time>
      </trkpt>
      <trkpt lat="48.23933" lon="7.26834">
        <ele>825.5</ele>
        <time>2021-08-04T11:20:46Z</time>
      </trkpt>
      <trkpt lat="48.23932" lon="7.26833">
        <ele>825.5</ele>
        <time>2021-08-04T11:20:47Z</time>
      </trkpt>
      <trkpt lat="48.23931" lon="7.26832">
        <ele>825.6</ele>
        <time>2021-08-04T11:20:49Z</time>
      </trkpt>
      <trkpt lat="48.23931" lon="7.26831">
        <ele>825.7</ele>
        <time>2021-08-04T11:20:51Z</time>
      </trkpt>
      <trkpt lat="48.2393" lon="7.2683">
        <ele>825.7</ele>
        <time>2021-08-04T11:20:52Z</time>
      </trkpt>
      <trkpt lat="48.2393" lon="7.2683">
        <ele>825.7</ele>
        <time>2021-08-04T11:20:53Z</time>
      </trkpt>
      <trkpt lat="48.2393" lon="7.26828">
        <ele>825.8</ele>
        <time>2021-08-04T11:20:55Z</time>
      </trkpt>
      <trkpt lat="48.23929" lon="7.26827">
        <ele>825.9</ele>
        <time>2021-08-04T11:20:56Z</time>
      </trkpt>
      <trkpt lat="48.23929" lon="7.26825">
        <ele>825.9</ele>
        <time>2021-08-04T11:20:58Z</time>
      </trkpt>
      <trkpt lat="48.23929" lon="7.26823">
        <ele>826</ele>
        <time>2021-08-04T11:20:59Z</time>
      </trkpt>
      <trkpt lat="48.23898" lon="7.26709">
        <ele>831.6</ele>
        <time>2021-08-04T11:22:10Z</time>
      </trkpt>
      <trkpt lat="48.23897" lon="7.26704">
        <ele>831.9</ele>
        <time>2021-08-04T11:22:11Z</time>
      </trkpt>
      <trkpt lat="48.23896" lon="7.26702">
        <ele>831.9</ele>
        <time>2021-08-04T11:22:12Z</time>
      </trkpt>
      <trkpt lat="48.23895" lon="7.26699">
        <ele>832.2</ele>
        <time>2021-08-04T11:22:14Z</time>
      </trkpt>
      <trkpt lat="48.23895" lon="7.26697">
        <ele>832.2</ele>
        <time>2021-08-04T11:22:15Z</time>
      </trkpt>
      <trkpt lat="48.23894" lon="7.26696">
        <ele>832.3</ele>
        <time>2021-08-04T11:22:17Z</time>
      </trkpt>
      <trkpt lat="48.23894" lon="7.26695">
        <ele>832.4</ele>
        <time>2021-08-04T11:22:18Z</time>
      </trkpt>
      <trkpt lat="48.23894" lon="7.26694">
        <ele>832.4</ele>
        <time>2021-08-04T11:22:19Z</time>
      </trkpt>
      <trkpt lat="48.23894" lon="7.26691">
        <ele>832.6</ele>
        <time>2021-08-04T11:22:21Z</time>
      </trkpt>
      <trkpt lat="48.23894" lon="7.2669">
        <ele>832.6</ele>
        <time>2021-08-04T11:22:22Z</time>
      </trkpt>
      <trkpt lat="48.23868" lon="7.26619">
        <ele>836.7</ele>
        <time>2021-08-04T11:23:29Z</time>
      </trkpt>
      <trkpt lat="48.23861" lon="7.26616">
        <ele>837.2</ele>
        <time>2021-08-04T11:23:31Z</time>
      </trkpt>
      <trkpt lat="48.23858" lon="7.26613">
        <ele>837.5</ele>
        <time>2021-08-04T11:23:32Z</time>
      </trkpt>
      <trkpt lat="48.23855" lon="7.2661">
        <ele>837.7</ele>
        <time>2021-08-04T11:23:34Z</time>
      </trkpt>
      <trkpt lat="48.23853" lon="7.26609">
        <ele>837.9</ele>
        <time>2021-08-04T11:23:35Z</time>
      </trkpt>
      <trkpt lat="48.23852" lon="7.26608">
        <ele>838</ele>
        <time>2021-08-04T11:23:37Z</time>
      </trkpt>
      <trkpt lat="48.23852" lon="7.26608">
        <ele>838</ele>
        <time>2021-08-04T11:23:38Z</time>
      </trkpt>
      <trkpt lat="48.23852" lon="7.26608">
        <ele>838</ele>
        <time>2021-08-04T11:23:40Z</time>
      </trkpt>
      <trkpt lat="48.23852" lon="7.26607">
        <ele>838</ele>
        <time>2021-08-04T11:23:41Z</time>
      </trkpt>
      <trkpt lat="48.23852" lon="7.26607">
        <ele>838</ele>
        <time>2021-08-04T11:23:42Z</time>
      </trkpt>
      <trkpt lat="48.23816" lon="7.2636">
        <ele>853.2</ele>
        <time>2021-08-04T11:27:08Z</time>
      </trkpt>
      <trkpt lat="48.23815" lon="7.26357">
        <ele>853.3</ele>
        <time>2021-08-04T11:27:09Z</time>
      </trkpt>
      <trkpt lat="48.23814" lon="7.26354">
        <ele>853.5</ele>
        <time>2021-08-04T11:27:11Z</time>
      </trkpt>
      <trkpt lat="48.23813" lon="7.26351">
        <ele>853.7</ele>
        <time>2021-08-04T11:27:12Z</time>
      </trkpt>
      <trkpt lat="48.23813" lon="7.26349">
        <ele>853.8</ele>
        <time>2021-08-04T11:27:13Z</time>
      </trkpt>
      <trkpt lat="48.23812" lon="7.26345">
        <ele>854</ele>
        <time>2021-08-04T11:27:15Z</time>
      </trkpt>
      <trkpt lat="48.23812" lon="7.26344">
        <ele>854.1</ele>
        <time>2021-08-04T11:27:16Z</time>
      </trkpt>
      <trkpt lat="48.23812" lon="7.26342">
        <ele>854.2</ele>
        <time>2021-08-04T11:27:17Z</time>
      </trkpt>
      <trkpt lat="48.23812" lon="7.2634">
        <ele>854.3</ele>
        <time>2021-08-04T11:27:18Z</time>
      </trkpt>
      <trkpt lat="48.23811" lon="7.26337">
        <ele>854.5</ele>
        <time>2021-08-04T11:27:20Z</time>
      </trkpt>
      <trkpt lat="48.2381" lon="7.2633">
        <ele>854.8</ele>
        <time>2021-08-04T11:27:21Z</time>
      </trkpt>
      <trkpt lat="48.23809" lon="7.26328">
        <ele>855</ele>
        <time>2021-08-04T11:27:22Z</time>
      </trkpt>
      <trkpt lat="48.23809" lon="7.26325">
        <ele>855.2</ele>
        <time>2021-08-04T11:27:23Z</time>
      </trkpt>
      <trkpt lat="48.23808" lon="7.26323">
        <ele>855.3</ele>
        <time>2021-08-04T11:27:24Z</time>
      </trkpt>
      <trkpt lat="48.23805" lon="7.26318">
        <ele>855.7</ele>
        <time>2021-08-04T11:27:26Z</time>
      </trkpt>
      <trkpt lat="48.23803" lon="7.26316">
        <ele>855.8</ele>
        <time>2021-08-04T11:27:27Z</time>
      </trkpt>
      <trkpt lat="48.23802" lon="7.26315">
        <ele>855.9</ele>
        <time>2021-08-04T11:27:28Z</time>
      </trkpt>
      <trkpt lat="48.23803" lon="7.26319">
        <ele>856.2</ele>
        <time>2021-08-04T11:27:30Z</time>
      </trkpt>
      <trkpt lat="48.23803" lon="7.26321">
        <ele>856.3</ele>
        <time>2021-08-04T11:27:32Z</time>
      </trkpt>
      <trkpt lat="48.23803" lon="7.26321">
        <ele>856.3</ele>
        <time>2021-08-04T11:27:33Z</time>
      </trkpt>
      <trkpt lat="48.23803" lon="7.26321">
        <ele>856.3</ele>
        <time>2021-08-04T11:27:34Z</time>
      </trkpt>
      <trkpt lat="48.23803" lon="7.26321">
        <ele>856.3</ele>
        <time>2021-08-04T11:27:35Z</time>
      </trkpt>
      <trkpt lat="48.23803" lon="7.26321">
        <ele>856.3</ele>
        <time>2021-08-04T11:27:36Z</time>
      </trkpt>
      <trkpt lat="48.23803" lon="7.26321">
        <ele>856.3</ele>
        <time>2021-08-04T11:27:38Z</time>
      </trkpt>
      <trkpt lat="48.23789" lon="7.26277">
        <ele>858.9</ele>
        <time>2021-08-04T11:28:25Z</time>
      </trkpt>
      <trkpt lat="48.23791" lon="7.2627">
        <ele>859.2</ele>
        <time>2021-08-04T11:28:27Z</time>
      </trkpt>
      <trkpt lat="48.23792" lon="7.26266">
        <ele>859.4</ele>
        <time>2021-08-04T11:28:28Z</time>
      </trkpt>
      <trkpt lat="48.23794" lon="7.26253">
        <ele>860</ele>
        <time>2021-08-04T11:28:31Z</time>
      </trkpt>
      <trkpt lat="48.23794" lon="7.26252">
        <ele>860</ele>
        <time>2021-08-04T11:28:32Z</time>
      </trkpt>
      <trkpt lat="48.23794" lon="7.2625">
        <ele>860.1</ele>
        <time>2021-08-04T11:28:34Z</time>
      </trkpt>
      <trkpt lat="48.23794" lon="7.26246">
        <ele>860.2</ele>
        <time>2021-08-04T11:28:36Z</time>
      </trkpt>
      <trkpt lat="48.23793" lon="7.26243">
        <ele>860.4</ele>
        <time>2021-08-04T11:28:37Z</time>
      </trkpt>
      <trkpt lat="48.23792" lon="7.26242">
        <ele>860.4</ele>
        <time>2021-08-04T11:28:38Z</time>
      </trkpt>
      <trkpt lat="48.23791" lon="7.26241">
        <ele>860.5</ele>
        <time>2021-08-04T11:28:39Z</time>
      </trkpt>
      <trkpt lat="48.2379" lon="7.2624">
        <ele>860.5</ele>
        <time>2021-08-04T11:28:40Z</time>
      </trkpt>
      <trkpt lat="48.23789" lon="7.26237">
        <ele>860.7</ele>
        <time>2021-08-04T11:28:42Z</time>
      </trkpt>
      <trkpt lat="48.23788" lon="7.26231">
        <ele>860.9</ele>
        <time>2021-08-04T11:28:44Z</time>
      </trkpt>
      <trkpt lat="48.23787" lon="7.26227">
        <ele>861.1</ele>
        <time>2021-08-04T11:28:45Z</time>
      </trkpt>
      <trkpt lat="48.23787" lon="7.26221">
        <ele>861.3</ele>
        <time>2021-08-04T11:28:47Z</time>
      </trkpt>
      <trkpt lat="48.23786" lon="7.26215">
        <ele>861.5</ele>
        <time>2021-08-04T11:28:48Z</time>
      </trkpt>
      <trkpt lat="48.23786" lon="7.26212">
        <ele>861.6</ele>
        <time>2021-08-04T11:28:49Z</time>
      </trkpt>
      <trkpt lat="48.23786" lon="7.26211">
        <ele>861.6</ele>
        <time>2021-08-04T11:28:51Z</time>
      </trkpt>
      <trkpt lat="48.23786" lon="7.26212">
        <ele>861.6</ele>
        <time>2021-08-04T11:28:52Z</time>
      </trkpt>
      <trkpt lat="48.23786" lon="7.26212">
        <ele>861.6</ele>
        <time>2021-08-04T11:28:53Z</time>
      </trkpt>
      <trkpt lat="48.23785" lon="7.26211">
        <ele>861.6</ele>
        <time>2021-08-04T11:28:55Z</time>
      </trkpt>
      <trkpt lat="48.23784" lon="7.2621">
        <ele>861.7</ele>
        <time>2021-08-04T11:28:56Z</time>
      </trkpt>
      <trkpt lat="48.23782" lon="7.26207">
        <ele>861.8</ele>
        <time>2021-08-04T11:28:58Z</time>
      </trkpt>
      <trkpt lat="48.23782" lon="7.26206">
        <ele>861.9</ele>
        <time>2021-08-04T11:28:59Z</time>
      </trkpt>
      <trkpt lat="48.23777" lon="7.26199">
        <ele>862.1</ele>
        <time>2021-08-04T11:29:00Z</time>
      </trkpt>
      <trkpt lat="48.23774" lon="7.26194">
        <ele>862.3</ele>
        <time>2021-08-04T11:29:01Z</time>
      </trkpt>
      <trkpt lat="48.23768" lon="7.26182">
        <ele>862.6</ele>
        <time>2021-08-04T11:29:03Z</time>
      </trkpt>
      <trkpt lat="48.23767" lon="7.26178">
        <ele>862.7</ele>
        <time>2021-08-04T11:29:04Z</time>
      </trkpt>
      <trkpt lat="48.23766" lon="7.26173">
        <ele>862.8</ele>
        <time>2021-08-04T11:29:05Z</time>
      </trkpt>
      <trkpt lat="48.23766" lon="7.26171">
        <ele>862.8</ele>
        <time>2021-08-04T11:29:06Z</time>
      </trkpt>
      <trkpt lat="48.23763" lon="7.26164">
        <ele>863</ele>
        <time>2021-08-04T11:29:08Z</time>
      </trkpt>
      <trkpt lat="48.2376" lon="7.26159">
        <ele>863.1</ele>
        <time>2021-08-04T11:29:09Z</time>
      </trkpt>
      <trkpt lat="48.23759" lon="7.26152">
        <ele>863.2</ele>
        <time>2021-08-04T11:29:11Z</time>
      </trkpt>
      <trkpt lat="48.23758" lon="7.2615">
        <ele>863.2</ele>
        <time>2021-08-04T11:29:12Z</time>
      </trkpt>
      <trkpt lat="48.23758" lon="7.26148">
        <ele>863.3</ele>
        <time>2021-08-04T11:29:13Z</time>
      </trkpt>
      <trkpt lat="48.23757" lon="7.26145">
        <ele>863.3</ele>
        <time>2021-08-04T11:29:14Z</time>
      </trkpt>
      <trkpt lat="48.23755" lon="7.2614">
        <ele>863.5</ele>
        <time>2021-08-04T11:29:16Z</time>
      </trkpt>
      <trkpt lat="48.23753" lon="7.26137">
        <ele>863.5</ele>
        <time>2021-08-04T11:29:17Z</time>
      </trkpt>
      <trkpt lat="48.23749" lon="7.26131">
        <ele>863.7</ele>
        <time>2021-08-04T11:29:19Z</time>
      </trkpt>
      <trkpt lat="48.23746" lon="7.26127">
        <ele>863.8</ele>
        <time>2021-08-04T11:29:21Z</time>
      </trkpt>
      <trkpt lat="48.23744" lon="7.26123">
        <ele>863.9</ele>
        <time>2021-08-04T11:29:22Z</time>
      </trkpt>
      <trkpt lat="48.23743" lon="7.26118">
        <ele>863.9</ele>
        <time>2021-08-04T11:29:23Z</time>
      </trkpt>
      <trkpt lat="48.23743" lon="7.26113">
        <ele>864</ele>
        <time>2021-08-04T11:29:25Z</time>
      </trkpt>
      <trkpt lat="48.23742" lon="7.26112">
        <ele>864</ele>
        <time>2021-08-04T11:29:26Z</time>
      </trkpt>
      <trkpt lat="48.23741" lon="7.26111">
        <ele>864.1</ele>
        <time>2021-08-04T11:29:27Z</time>
      </trkpt>
      <trkpt lat="48.23741" lon="7.2611">
        <ele>864.1</ele>
        <time>2021-08-04T11:29:29Z</time>
      </trkpt>
      <trkpt lat="48.2374" lon="7.26109">
        <ele>864.1</ele>
        <time>2021-08-04T11:29:30Z</time>
      </trkpt>
      <trkpt lat="48.23739" lon="7.26108">
        <ele>864.1</ele>
        <time>2021-08-04T11:29:31Z</time>
      </trkpt>
      <trkpt lat="48.23739" lon="7.26107">
        <ele>864.2</ele>
        <time>2021-08-04T11:29:32Z</time>
      </trkpt>
      <trkpt lat="48.23736" lon="7.26105">
        <ele>864.2</ele>
        <time>2021-08-04T11:29:34Z</time>
      </trkpt>
      <trkpt lat="48.23729" lon="7.26087">
        <ele>864.6</ele>
        <time>2021-08-04T11:29:41Z</time>
      </trkpt>
      <trkpt lat="48.23729" lon="7.26081">
        <ele>864.7</ele>
        <time>2021-08-04T11:29:42Z</time>
      </trkpt>
      <trkpt lat="48.23731" lon="7.26073">
        <ele>864.9</ele>
        <time>2021-08-04T11:29:44Z</time>
      </trkpt>
      <trkpt lat="48.23733" lon="7.26067">
        <ele>865.1</ele>
        <time>2021-08-04T11:29:45Z</time>
      </trkpt>
      <trkpt lat="48.23734" lon="7.26063">
        <ele>865.2</ele>
        <time>2021-08-04T11:29:46Z</time>
      </trkpt>
      <trkpt lat="48.23733" lon="7.26058">
        <ele>865.3</ele>
        <time>2021-08-04T11:29:48Z</time>
      </trkpt>
      <trkpt lat="48.2373" lon="7.26057">
        <ele>865.4</ele>
        <time>2021-08-04T11:29:49Z</time>
      </trkpt>
      <trkpt lat="48.23729" lon="7.26056">
        <ele>865.5</ele>
        <time>2021-08-04T11:29:50Z</time>
      </trkpt>
      <trkpt lat="48.23726" lon="7.26054">
        <ele>865.6</ele>
        <time>2021-08-04T11:29:51Z</time>
      </trkpt>
      <trkpt lat="48.23725" lon="7.26053">
        <ele>865.6</ele>
        <time>2021-08-04T11:29:52Z</time>
      </trkpt>
      <trkpt lat="48.23723" lon="7.26049">
        <ele>865.7</ele>
        <time>2021-08-04T11:29:54Z</time>
      </trkpt>
      <trkpt lat="48.23722" lon="7.26048">
        <ele>865.8</ele>
        <time>2021-08-04T11:29:55Z</time>
      </trkpt>
      <trkpt lat="48.23722" lon="7.26046">
        <ele>865.8</ele>
        <time>2021-08-04T11:29:56Z</time>
      </trkpt>
      <trkpt lat="48.23721" lon="7.26027">
        <ele>866.3</ele>
        <time>2021-08-04T11:30:01Z</time>
      </trkpt>
      <trkpt lat="48.2372" lon="7.26019">
        <ele>866.5</ele>
        <time>2021-08-04T11:30:03Z</time>
      </trkpt>
      <trkpt lat="48.2372" lon="7.26013">
        <ele>866.7</ele>
        <time>2021-08-04T11:30:05Z</time>
      </trkpt>
      <trkpt lat="48.23722" lon="7.26009">
        <ele>866.8</ele>
        <time>2021-08-04T11:30:06Z</time>
      </trkpt>
      <trkpt lat="48.23723" lon="7.26007">
        <ele>866.9</ele>
        <time>2021-08-04T11:30:07Z</time>
      </trkpt>
      <trkpt lat="48.23723" lon="7.26005">
        <ele>866.9</ele>
        <time>2021-08-04T11:30:08Z</time>
      </trkpt>
      <trkpt lat="48.23723" lon="7.26004">
        <ele>867</ele>
        <time>2021-08-04T11:30:09Z</time>
      </trkpt>
      <trkpt lat="48.23724" lon="7.26001">
        <ele>867</ele>
        <time>2021-08-04T11:30:11Z</time>
      </trkpt>
      <trkpt lat="48.23724" lon="7.25999">
        <ele>867.1</ele>
        <time>2021-08-04T11:30:12Z</time>
      </trkpt>
      <trkpt lat="48.23724" lon="7.25997">
        <ele>867.1</ele>
        <time>2021-08-04T11:30:13Z</time>
      </trkpt>
      <trkpt lat="48.23724" lon="7.25996">
        <ele>867.2</ele>
        <time>2021-08-04T11:30:14Z</time>
      </trkpt>
      <trkpt lat="48.23724" lon="7.25994">
        <ele>867.2</ele>
        <time>2021-08-04T11:30:15Z</time>
      </trkpt>
      <trkpt lat="48.23725" lon="7.25971">
        <ele>867.7</ele>
        <time>2021-08-04T11:30:23Z</time>
      </trkpt>
      <trkpt lat="48.23725" lon="7.25964">
        <ele>867.9</ele>
        <time>2021-08-04T11:30:24Z</time>
      </trkpt>
      <trkpt lat="48.23725" lon="7.25955">
        <ele>868</ele>
        <time>2021-08-04T11:30:25Z</time>
      </trkpt>
      <trkpt lat="48.23726" lon="7.25944">
        <ele>868.3</ele>
        <time>2021-08-04T11:30:27Z</time>
      </trkpt>
      <trkpt lat="48.23726" lon="7.25938">
        <ele>868.4</ele>
        <time>2021-08-04T11:30:28Z</time>
      </trkpt>
      <trkpt lat="48.23726" lon="7.25935">
        <ele>868.4</ele>
        <time>2021-08-04T11:30:29Z</time>
      </trkpt>
      <trkpt lat="48.23725" lon="7.25933">
        <ele>868.5</ele>
        <time>2021-08-04T11:30:31Z</time>
      </trkpt>
      <trkpt lat="48.23725" lon="7.25932">
        <ele>868.5</ele>
        <time>2021-08-04T11:30:32Z</time>
      </trkpt>
      <trkpt lat="48.23726" lon="7.25932">
        <ele>868.5</ele>
        <time>2021-08-04T11:30:33Z</time>
      </trkpt>
      <trkpt lat="48.23726" lon="7.25932">
        <ele>868.5</ele>
        <time>2021-08-04T11:30:35Z</time>
      </trkpt>
      <trkpt lat="48.23726" lon="7.25932">
        <ele>868.5</ele>
        <time>2021-08-04T11:30:36Z</time>
      </trkpt>
      <trkpt lat="48.23726" lon="7.25932">
        <ele>868.5</ele>
        <time>2021-08-04T11:30:37Z</time>
      </trkpt>
      <trkpt lat="48.23726" lon="7.25932">
        <ele>868.5</ele>
        <time>2021-08-04T11:30:39Z</time>
      </trkpt>
      <trkpt lat="48.23715" lon="7.25927">
        <ele>868.9</ele>
        <time>2021-08-04T11:30:52Z</time>
      </trkpt>
      <trkpt lat="48.23711" lon="7.25924">
        <ele>869</ele>
        <time>2021-08-04T11:30:53Z</time>
      </trkpt>
      <trkpt lat="48.23708" lon="7.2592">
        <ele>869.1</ele>
        <time>2021-08-04T11:30:54Z</time>
      </trkpt>
      <trkpt lat="48.23707" lon="7.25917">
        <ele>869.2</ele>
        <time>2021-08-04T11:30:55Z</time>
      </trkpt>
      <trkpt lat="48.237" lon="7.2591">
        <ele>869.4</ele>
        <time>2021-08-04T11:30:57Z</time>
      </trkpt>
      <trkpt lat="48.23698" lon="7.25907">
        <ele>869.5</ele>
        <time>2021-08-04T11:30:58Z</time>
      </trkpt>
      <trkpt lat="48.23697" lon="7.25906">
        <ele>869.5</ele>
        <time>2021-08-04T11:30:59Z</time>
      </trkpt>
      <trkpt lat="48.23698" lon="7.25904">
        <ele>869.6</ele>
        <time>2021-08-04T11:31:01Z</time>
      </trkpt>
      <trkpt lat="48.23699" lon="7.25903">
        <ele>869.6</ele>
        <time>2021-08-04T11:31:03Z</time>
      </trkpt>
      <trkpt lat="48.237" lon="7.25903">
        <ele>869.6</ele>
        <time>2021-08-04T11:31:04Z</time>
      </trkpt>
      <trkpt lat="48.23713" lon="7.25869">
        <ele>870.5</ele>
        <time>2021-08-04T11:32:00Z</time>
      </trkpt>
      <trkpt lat="48.23712" lon="7.25863">
        <ele>870.6</ele>
        <time>2021-08-04T11:32:02Z</time>
      </trkpt>
      <trkpt lat="48.23711" lon="7.25857">
        <ele>870.7</ele>
        <time>2021-08-04T11:32:03Z</time>
      </trkpt>
      <trkpt lat="48.23711" lon="7.25856">
        <ele>870.8</ele>
        <time>2021-08-04T11:32:04Z</time>
      </trkpt>
      <trkpt lat="48.2371" lon="7.25851">
        <ele>870.9</ele>
        <time>2021-08-04T11:32:06Z</time>
      </trkpt>
      <trkpt lat="48.23709" lon="7.25847">
        <ele>871</ele>
        <time>2021-08-04T11:32:07Z</time>
      </trkpt>
      <trkpt lat="48.23709" lon="7.25846">
        <ele>871</ele>
        <time>2021-08-04T11:32:08Z</time>
      </trkpt>
      <trkpt lat="48.23709" lon="7.25842">
        <ele>871.1</ele>
        <time>2021-08-04T11:32:09Z</time>
      </trkpt>
      <trkpt lat="48.23708" lon="7.2584">
        <ele>871.1</ele>
        <time>2021-08-04T11:32:10Z</time>
      </trkpt>
      <trkpt lat="48.23708" lon="7.25838">
        <ele>871.1</ele>
        <time>2021-08-04T11:32:11Z</time>
      </trkpt>
      <trkpt lat="48.23709" lon="7.25836">
        <ele>871.2</ele>
        <time>2021-08-04T11:32:13Z</time>
      </trkpt>
      <trkpt lat="48.23709" lon="7.25832">
        <ele>871.2</ele>
        <time>2021-08-04T11:32:14Z</time>
      </trkpt>
      <trkpt lat="48.2371" lon="7.2583">
        <ele>871.3</ele>
        <time>2021-08-04T11:32:15Z</time>
      </trkpt>
      <trkpt lat="48.2371" lon="7.25828">
        <ele>871.3</ele>
        <time>2021-08-04T11:32:16Z</time>
      </trkpt>
      <trkpt lat="48.23712" lon="7.25817">
        <ele>871.5</ele>
        <time>2021-08-04T11:32:20Z</time>
      </trkpt>
      <trkpt lat="48.23713" lon="7.25811">
        <ele>871.6</ele>
        <time>2021-08-04T11:32:21Z</time>
      </trkpt>
      <trkpt lat="48.23714" lon="7.25809">
        <ele>871.7</ele>
        <time>2021-08-04T11:32:22Z</time>
      </trkpt>
      <trkpt lat="48.23716" lon="7.25805">
        <ele>871.8</ele>
        <time>2021-08-04T11:32:23Z</time>
      </trkpt>
      <trkpt lat="48.23717" lon="7.25804">
        <ele>871.8</ele>
        <time>2021-08-04T11:32:24Z</time>
      </trkpt>
      <trkpt lat="48.23719" lon="7.25797">
        <ele>871.9</ele>
        <time>2021-08-04T11:32:26Z</time>
      </trkpt>
      <trkpt lat="48.23719" lon="7.25795">
        <ele>872</ele>
        <time>2021-08-04T11:32:27Z</time>
      </trkpt>
      <trkpt lat="48.2372" lon="7.25792">
        <ele>872</ele>
        <time>2021-08-04T11:32:28Z</time>
      </trkpt>
      <trkpt lat="48.23721" lon="7.25787">
        <ele>872.1</ele>
        <time>2021-08-04T11:32:29Z</time>
      </trkpt>
      <trkpt lat="48.23721" lon="7.25786">
        <ele>872.2</ele>
        <time>2021-08-04T11:32:30Z</time>
      </trkpt>
      <trkpt lat="48.23721" lon="7.25779">
        <ele>872.3</ele>
        <time>2021-08-04T11:32:32Z</time>
      </trkpt>
      <trkpt lat="48.23722" lon="7.25776">
        <ele>872.4</ele>
        <time>2021-08-04T11:32:33Z</time>
      </trkpt>
      <trkpt lat="48.23723" lon="7.25774">
        <ele>872.4</ele>
        <time>2021-08-04T11:32:34Z</time>
      </trkpt>
      <trkpt lat="48.23723" lon="7.2577">
        <ele>872.5</ele>
        <time>2021-08-04T11:32:35Z</time>
      </trkpt>
      <trkpt lat="48.23724" lon="7.25766">
        <ele>872.6</ele>
        <time>2021-08-04T11:32:37Z</time>
      </trkpt>
      <trkpt lat="48.23726" lon="7.25761">
        <ele>872.7</ele>
        <time>2021-08-04T11:32:38Z</time>
      </trkpt>
      <trkpt lat="48.23726" lon="7.25759">
        <ele>872.8</ele>
        <time>2021-08-04T11:32:39Z</time>
      </trkpt>
      <trkpt lat="48.23729" lon="7.25753">
        <ele>872.9</ele>
        <time>2021-08-04T11:32:41Z</time>
      </trkpt>
      <trkpt lat="48.2373" lon="7.25749">
        <ele>873.1</ele>
        <time>2021-08-04T11:32:42Z</time>
      </trkpt>
      <trkpt lat="48.23731" lon="7.25747">
        <ele>873.1</ele>
        <time>2021-08-04T11:32:43Z</time>
      </trkpt>
      <trkpt lat="48.23732" lon="7.25745">
        <ele>873.2</ele>
        <time>2021-08-04T11:32:44Z</time>
      </trkpt>
      <trkpt lat="48.23732" lon="7.25741">
        <ele>873.2</ele>
        <time>2021-08-04T11:32:46Z</time>
      </trkpt>
      <trkpt lat="48.23734" lon="7.25737">
        <ele>873.3</ele>
        <time>2021-08-04T11:32:47Z</time>
      </trkpt>
      <trkpt lat="48.23734" lon="7.25735">
        <ele>873.4</ele>
        <time>2021-08-04T11:32:48Z</time>
      </trkpt>
      <trkpt lat="48.23733" lon="7.25732">
        <ele>873.4</ele>
        <time>2021-08-04T11:32:50Z</time>
      </trkpt>
      <trkpt lat="48.23733" lon="7.25733">
        <ele>873.4</ele>
        <time>2021-08-04T11:32:51Z</time>
      </trkpt>
      <trkpt lat="48.23732" lon="7.25733">
        <ele>873.4</ele>
        <time>2021-08-04T11:32:52Z</time>
      </trkpt>
      <trkpt lat="48.23732" lon="7.25732">
        <ele>873.4</ele>
        <time>2021-08-04T11:32:53Z</time>
      </trkpt>
      <trkpt lat="48.23732" lon="7.25732">
        <ele>873.4</ele>
        <time>2021-08-04T11:32:54Z</time>
      </trkpt>
      <trkpt lat="48.23734" lon="7.25719">
        <ele>873.5</ele>
        <time>2021-08-04T11:32:56Z</time>
      </trkpt>
      <trkpt lat="48.23735" lon="7.25709">
        <ele>873.4</ele>
        <time>2021-08-04T11:32:57Z</time>
      </trkpt>
      <trkpt lat="48.23736" lon="7.25699">
        <ele>873.2</ele>
        <time>2021-08-04T11:32:59Z</time>
      </trkpt>
      <trkpt lat="48.23737" lon="7.25688">
        <ele>872.7</ele>
        <time>2021-08-04T11:34:04Z</time>
      </trkpt>
      <trkpt lat="48.23738" lon="7.25678">
        <ele>872.2</ele>
        <time>2021-08-04T11:34:05Z</time>
      </trkpt>
      <trkpt lat="48.23742" lon="7.25671">
        <ele>871.5</ele>
        <time>2021-08-04T11:34:06Z</time>
      </trkpt>
      <trkpt lat="48.23752" lon="7.25659">
        <ele>870.1</ele>
        <time>2021-08-04T11:34:07Z</time>
      </trkpt>
      <trkpt lat="48.23756" lon="7.25655">
        <ele>869.6</ele>
        <time>2021-08-04T11:34:08Z</time>
      </trkpt>
      <trkpt lat="48.2376" lon="7.25649">
        <ele>868.9</ele>
        <time>2021-08-04T11:34:09Z</time>
      </trkpt>
      <trkpt lat="48.23766" lon="7.25643">
        <ele>868</ele>
        <time>2021-08-04T11:34:11Z</time>
      </trkpt>
      <trkpt lat="48.23769" lon="7.25642">
        <ele>867.6</ele>
        <time>2021-08-04T11:34:12Z</time>
      </trkpt>
      <trkpt lat="48.23772" lon="7.25642">
        <ele>867.2</ele>
        <time>2021-08-04T11:34:14Z</time>
      </trkpt>
      <trkpt lat="48.23773" lon="7.25643">
        <ele>867.1</ele>
        <time>2021-08-04T11:34:15Z</time>
      </trkpt>
      <trkpt lat="48.23773" lon="7.25646">
        <ele>866.8</ele>
        <time>2021-08-04T11:34:17Z</time>
      </trkpt>
      <trkpt lat="48.23773" lon="7.25648">
        <ele>866.7</ele>
        <time>2021-08-04T11:34:18Z</time>
      </trkpt>
      <trkpt lat="48.23774" lon="7.25642">
        <ele>866.2</ele>
        <time>2021-08-04T11:34:19Z</time>
      </trkpt>
      <trkpt lat="48.23775" lon="7.25635">
        <ele>865.5</ele>
        <time>2021-08-04T11:34:20Z</time>
      </trkpt>
      <trkpt lat="48.23775" lon="7.25628">
        <ele>864.9</ele>
        <time>2021-08-04T11:34:22Z</time>
      </trkpt>
      <trkpt lat="48.23776" lon="7.25622">
        <ele>864.3</ele>
        <time>2021-08-04T11:34:23Z</time>
      </trkpt>
      <trkpt lat="48.23776" lon="7.25615">
        <ele>863.6</ele>
        <time>2021-08-04T11:34:25Z</time>
      </trkpt>
      <trkpt lat="48.23777" lon="7.25608">
        <ele>863</ele>
        <time>2021-08-04T11:35:11Z</time>
      </trkpt>
      <trkpt lat="48.23777" lon="7.25601">
        <ele>862.3</ele>
        <time>2021-08-04T11:35:12Z</time>
      </trkpt>
      <trkpt lat="48.23782" lon="7.25597">
        <ele>861.4</ele>
        <time>2021-08-04T11:35:14Z</time>
      </trkpt>
      <trkpt lat="48.23787" lon="7.25595">
        <ele>860.7</ele>
        <time>2021-08-04T11:35:15Z</time>
      </trkpt>
      <trkpt lat="48.23791" lon="7.25593">
        <ele>860.1</ele>
        <time>2021-08-04T11:35:17Z</time>
      </trkpt>
      <trkpt lat="48.23792" lon="7.25593">
        <ele>859.9</ele>
        <time>2021-08-04T11:35:18Z</time>
      </trkpt>
      <trkpt lat="48.23794" lon="7.25594">
        <ele>859.6</ele>
        <time>2021-08-04T11:35:20Z</time>
      </trkpt>
      <trkpt lat="48.23795" lon="7.25595">
        <ele>859.4</ele>
        <time>2021-08-04T11:35:22Z</time>
      </trkpt>
      <trkpt lat="48.23797" lon="7.25598">
        <ele>859</ele>
        <time>2021-08-04T11:35:24Z</time>
      </trkpt>
      <trkpt lat="48.23798" lon="7.256">
        <ele>858.8</ele>
        <time>2021-08-04T11:35:25Z</time>
      </trkpt>
      <trkpt lat="48.23799" lon="7.25602">
        <ele>858.6</ele>
        <time>2021-08-04T11:35:26Z</time>
      </trkpt>
      <trkpt lat="48.23798" lon="7.25604">
        <ele>858.4</ele>
        <time>2021-08-04T11:35:28Z</time>
      </trkpt>
      <trkpt lat="48.23798" lon="7.25604">
        <ele>858.3</ele>
        <time>2021-08-04T11:35:29Z</time>
      </trkpt>
      <trkpt lat="48.23798" lon="7.25601">
        <ele>858.1</ele>
        <time>2021-08-04T11:35:30Z</time>
      </trkpt>
      <trkpt lat="48.23798" lon="7.25598">
        <ele>857.8</ele>
        <time>2021-08-04T11:35:32Z</time>
      </trkpt>
      <trkpt lat="48.23799" lon="7.25593">
        <ele>857.4</ele>
        <time>2021-08-04T11:35:33Z</time>
      </trkpt>
      <trkpt lat="48.23799" lon="7.25589">
        <ele>857.1</ele>
        <time>2021-08-04T11:35:35Z</time>
      </trkpt>
      <trkpt lat="48.23799" lon="7.25589">
        <ele>857</ele>
        <time>2021-08-04T11:35:36Z</time>
      </trkpt>
      <trkpt lat="48.23818" lon="7.25547">
        <ele>852.9</ele>
        <time>2021-08-04T11:35:49Z</time>
      </trkpt>
      <trkpt lat="48.23822" lon="7.25542">
        <ele>852.2</ele>
        <time>2021-08-04T11:35:51Z</time>
      </trkpt>
      <trkpt lat="48.23825" lon="7.25533">
        <ele>851.5</ele>
        <time>2021-08-04T11:35:52Z</time>
      </trkpt>
      <trkpt lat="48.23827" lon="7.25525">
        <ele>850.7</ele>
        <time>2021-08-04T11:35:53Z</time>
      </trkpt>
      <trkpt lat="48.23829" lon="7.25518">
        <ele>850.1</ele>
        <time>2021-08-04T11:35:54Z</time>
      </trkpt>
      <trkpt lat="48.23829" lon="7.25512">
        <ele>849.6</ele>
        <time>2021-08-04T11:35:56Z</time>
      </trkpt>
      <trkpt lat="48.23829" lon="7.25503">
        <ele>848.8</ele>
        <time>2021-08-04T11:35:57Z</time>
      </trkpt>
      <trkpt lat="48.23828" lon="7.25498">
        <ele>848.3</ele>
        <time>2021-08-04T11:35:58Z</time>
      </trkpt>
      <trkpt lat="48.23827" lon="7.25491">
        <ele>847.6</ele>
        <time>2021-08-04T11:35:59Z</time>
      </trkpt>
      <trkpt lat="48.23827" lon="7.25481">
        <ele>846.7</ele>
        <time>2021-08-04T11:36:01Z</time>
      </trkpt>
      <trkpt lat="48.23828" lon="7.25473">
        <ele>846.1</ele>
        <time>2021-08-04T11:36:02Z</time>
      </trkpt>
      <trkpt lat="48.23829" lon="7.25468">
        <ele>845.6</ele>
        <time>2021-08-04T11:36:03Z</time>
      </trkpt>
      <trkpt lat="48.23831" lon="7.25464">
        <ele>845.2</ele>
        <time>2021-08-04T11:36:04Z</time>
      </trkpt>
      <trkpt lat="48.23832" lon="7.25463">
        <ele>845.1</ele>
        <time>2021-08-04T11:36:06Z</time>
      </trkpt>
      <trkpt lat="48.23834" lon="7.25466">
        <ele>844.8</ele>
        <time>2021-08-04T11:36:08Z</time>
      </trkpt>
      <trkpt lat="48.23834" lon="7.25466">
        <ele>844.7</ele>
        <time>2021-08-04T11:36:09Z</time>
      </trkpt>
      <trkpt lat="48.23834" lon="7.25466">
        <ele>844.7</ele>
        <time>2021-08-04T11:36:11Z</time>
      </trkpt>
      <trkpt lat="48.23834" lon="7.25466">
        <ele>844.7</ele>
        <time>2021-08-04T11:36:13Z</time>
      </trkpt>
      <trkpt lat="48.23834" lon="7.25466">
        <ele>844.7</ele>
        <time>2021-08-04T11:36:14Z</time>
      </trkpt>
      <trkpt lat="48.2383" lon="7.25416">
        <ele>841</ele>
        <time>2021-08-04T11:36:31Z</time>
      </trkpt>
      <trkpt lat="48.23825" lon="7.25403">
        <ele>840.1</ele>
        <time>2021-08-04T11:36:32Z</time>
      </trkpt>
      <trkpt lat="48.23816" lon="7.25383">
        <ele>838.8</ele>
        <time>2021-08-04T11:36:34Z</time>
      </trkpt>
      <trkpt lat="48.23812" lon="7.25375">
        <ele>838.2</ele>
        <time>2021-08-04T11:36:35Z</time>
      </trkpt>
      <trkpt lat="48.23807" lon="7.25367">
        <ele>837.7</ele>
        <time>2021-08-04T11:36:36Z</time>
      </trkpt>
      <trkpt lat="48.23805" lon="7.25362">
        <ele>837.3</ele>
        <time>2021-08-04T11:36:37Z</time>
      </trkpt>
      <trkpt lat="48.23803" lon="7.2536">
        <ele>837.1</ele>
        <time>2021-08-04T11:36:39Z</time>
      </trkpt>
      <trkpt lat="48.23801" lon="7.25354">
        <ele>836.8</ele>
        <time>2021-08-04T11:36:40Z</time>
      </trkpt>
      <trkpt lat="48.23793" lon="7.25337">
        <ele>835.6</ele>
        <time>2021-08-04T11:36:41Z</time>
      </trkpt>
      <trkpt lat="48.23785" lon="7.25322">
        <ele>834.5</ele>
        <time>2021-08-04T11:36:43Z</time>
      </trkpt>
      <trkpt lat="48.23781" lon="7.25316">
        <ele>834</ele>
        <time>2021-08-04T11:36:44Z</time>
      </trkpt>
      <trkpt lat="48.23773" lon="7.25303">
        <ele>833</ele>
        <time>2021-08-04T11:36:46Z</time>
      </trkpt>
      <trkpt lat="48.23768" lon="7.25298">
        <ele>832.6</ele>
        <time>2021-08-04T11:36:47Z</time>
      </trkpt>
      <trkpt lat="48.23764" lon="7.25293">
        <ele>832.2</ele>
        <time>2021-08-04T11:36:48Z</time>
      </trkpt>
      <trkpt lat="48.23756" lon="7.25283">
        <ele>831.4</ele>
        <time>2021-08-04T11:36:50Z</time>
      </trkpt>
      <trkpt lat="48.23751" lon="7.25279">
        <ele>830.9</ele>
        <time>2021-08-04T11:36:52Z</time>
      </trkpt>
      <trkpt lat="48.23748" lon="7.25281">
        <ele>830.7</ele>
        <time>2021-08-04T11:36:53Z</time>
      </trkpt>
      <trkpt lat="48.23744" lon="7.25278">
        <ele>830.3</ele>
        <time>2021-08-04T11:36:54Z</time>
      </trkpt>
      <trkpt lat="48.23738" lon="7.25274">
        <ele>829.8</ele>
        <time>2021-08-04T11:36:56Z</time>
      </trkpt>
      <trkpt lat="48.2373" lon="7.25269">
        <ele>829.1</ele>
        <time>2021-08-04T11:36:57Z</time>
      </trkpt>
      <trkpt lat="48.23729" lon="7.25264">
        <ele>828.8</ele>
        <time>2021-08-04T11:36:59Z</time>
      </trkpt>
      <trkpt lat="48.23723" lon="7.25259">
        <ele>828.2</ele>
        <time>2021-08-04T11:37:00Z</time>
      </trkpt>
      <trkpt lat="48.2372" lon="7.25255">
        <ele>827.8</ele>
        <time>2021-08-04T11:37:01Z</time>
      </trkpt>
      <trkpt lat="48.23716" lon="7.25249">
        <ele>827.3</ele>
        <time>2021-08-04T11:37:03Z</time>
      </trkpt>
      <trkpt lat="48.23715" lon="7.25247">
        <ele>827.1</ele>
        <time>2021-08-04T11:37:04Z</time>
      </trkpt>
      <trkpt lat="48.23714" lon="7.25243">
        <ele>826.8</ele>
        <time>2021-08-04T11:37:06Z</time>
      </trkpt>
      <trkpt lat="48.23715" lon="7.25241">
        <ele>826.6</ele>
        <time>2021-08-04T11:37:08Z</time>
      </trkpt>
      <trkpt lat="48.23718" lon="7.25243">
        <ele>826.3</ele>
        <time>2021-08-04T11:37:10Z</time>
      </trkpt>
      <trkpt lat="48.23719" lon="7.25243">
        <ele>826.3</ele>
        <time>2021-08-04T11:37:11Z</time>
      </trkpt>
      <trkpt lat="48.23719" lon="7.25243">
        <ele>826.2</ele>
        <time>2021-08-04T11:37:12Z</time>
      </trkpt>
      <trkpt lat="48.23719" lon="7.25244">
        <ele>826.2</ele>
        <time>2021-08-04T11:37:14Z</time>
      </trkpt>
      <trkpt lat="48.23719" lon="7.25244">
        <ele>826.2</ele>
        <time>2021-08-04T11:37:15Z</time>
      </trkpt>
      <trkpt lat="48.23719" lon="7.25244">
        <ele>826.2</ele>
        <time>2021-08-04T11:37:16Z</time>
      </trkpt>
      <trkpt lat="48.23718" lon="7.25244">
        <ele>826.2</ele>
        <time>2021-08-04T11:37:18Z</time>
      </trkpt>
      <trkpt lat="48.23718" lon="7.25244">
        <ele>826.2</ele>
        <time>2021-08-04T11:37:19Z</time>
      </trkpt>
      <trkpt lat="48.23718" lon="7.25243">
        <ele>826.1</ele>
        <time>2021-08-04T11:37:21Z</time>
      </trkpt>
      <trkpt lat="48.23684" lon="7.25219">
        <ele>822.5</ele>
        <time>2021-08-04T11:37:38Z</time>
      </trkpt>
      <trkpt lat="48.23681" lon="7.25216">
        <ele>822.1</ele>
        <time>2021-08-04T11:37:39Z</time>
      </trkpt>
      <trkpt lat="48.23677" lon="7.25213">
        <ele>821.6</ele>
        <time>2021-08-04T11:37:40Z</time>
      </trkpt>
      <trkpt lat="48.23673" lon="7.25212">
        <ele>821.2</ele>
        <time>2021-08-04T11:37:41Z</time>
      </trkpt>
      <trkpt lat="48.2367" lon="7.25212">
        <ele>820.9</ele>
        <time>2021-08-04T11:37:42Z</time>
      </trkpt>
      <trkpt lat="48.23664" lon="7.25212">
        <ele>820.3</ele>
        <time>2021-08-04T11:37:44Z</time>
      </trkpt>
      <trkpt lat="48.23661" lon="7.25212">
        <ele>820</ele>
        <time>2021-08-04T11:37:45Z</time>
      </trkpt>
      <trkpt lat="48.23657" lon="7.25211">
        <ele>819.5</ele>
        <time>2021-08-04T11:37:46Z</time>
      </trkpt>
      <trkpt lat="48.2365" lon="7.25207">
        <ele>818.7</ele>
        <time>2021-08-04T11:37:48Z</time>
      </trkpt>
      <trkpt lat="48.2364" lon="7.25203">
        <ele>817.6</ele>
        <time>2021-08-04T11:37:49Z</time>
      </trkpt>
      <trkpt lat="48.23634" lon="7.25199">
        <ele>816.9</ele>
        <time>2021-08-04T11:37:50Z</time>
      </trkpt>
      <trkpt lat="48.23629" lon="7.25196">
        <ele>816.4</ele>
        <time>2021-08-04T11:37:51Z</time>
      </trkpt>
      <trkpt lat="48.23626" lon="7.25194">
        <ele>816</ele>
        <time>2021-08-04T11:37:53Z</time>
      </trkpt>
      <trkpt lat="48.23621" lon="7.2519">
        <ele>815.6</ele>
        <time>2021-08-04T11:37:54Z</time>
      </trkpt>
      <trkpt lat="48.23617" lon="7.25186">
        <ele>815.1</ele>
        <time>2021-08-04T11:37:56Z</time>
      </trkpt>
      <trkpt lat="48.23613" lon="7.25182">
        <ele>814.7</ele>
        <time>2021-08-04T11:37:57Z</time>
      </trkpt>
      <trkpt lat="48.23611" lon="7.2518">
        <ele>814.5</ele>
        <time>2021-08-04T11:37:58Z</time>
      </trkpt>
      <trkpt lat="48.23598" lon="7.25175">
        <ele>813.2</ele>
        <time>2021-08-04T11:38:00Z</time>
      </trkpt>
      <trkpt lat="48.23577" lon="7.25166">
        <ele>811.6</ele>
        <time>2021-08-04T11:38:02Z</time>
      </trkpt>
      <trkpt lat="48.23567" lon="7.2516">
        <ele>810.9</ele>
        <time>2021-08-04T11:38:03Z</time>
      </trkpt>
      <trkpt lat="48.23559" lon="7.25151">
        <ele>810.2</ele>
        <time>2021-08-04T11:38:04Z</time>
      </trkpt>
      <trkpt lat="48.23547" lon="7.25131">
        <ele>808.8</ele>
        <time>2021-08-04T11:38:06Z</time>
      </trkpt>
      <trkpt lat="48.23542" lon="7.25121">
        <ele>808.2</ele>
        <time>2021-08-04T11:38:07Z</time>
      </trkpt>
      <trkpt lat="48.23533" lon="7.25099">
        <ele>806.8</ele>
        <time>2021-08-04T11:38:09Z</time>
      </trkpt>
      <trkpt lat="48.2352" lon="7.25076">
        <ele>805.3</ele>
        <time>2021-08-04T11:38:11Z</time>
      </trkpt>
      <trkpt lat="48.23515" lon="7.25064">
        <ele>804.7</ele>
        <time>2021-08-04T11:38:12Z</time>
      </trkpt>
      <trkpt lat="48.23506" lon="7.25043">
        <ele>803.7</ele>
        <time>2021-08-04T11:38:14Z</time>
      </trkpt>
      <trkpt lat="48.23502" lon="7.25032">
        <ele>803.1</ele>
        <time>2021-08-04T11:38:15Z</time>
      </trkpt>
      <trkpt lat="48.23497" lon="7.25022">
        <ele>802.5</ele>
        <time>2021-08-04T11:38:16Z</time>
      </trkpt>
      <trkpt lat="48.23494" lon="7.25013">
        <ele>801.9</ele>
        <time>2021-08-04T11:38:17Z</time>
      </trkpt>
      <trkpt lat="48.23491" lon="7.25004">
        <ele>801.3</ele>
        <time>2021-08-04T11:38:18Z</time>
      </trkpt>
      <trkpt lat="48.23486" lon="7.24992">
        <ele>800.3</ele>
        <time>2021-08-04T11:38:20Z</time>
      </trkpt>
      <trkpt lat="48.23482" lon="7.24986">
        <ele>799.8</ele>
        <time>2021-08-04T11:38:22Z</time>
      </trkpt>
      <trkpt lat="48.23485" lon="7.2499">
        <ele>799.5</ele>
        <time>2021-08-04T11:38:23Z</time>
      </trkpt>
      <trkpt lat="48.23486" lon="7.2499">
        <ele>799.4</ele>
        <time>2021-08-04T11:38:24Z</time>
      </trkpt>
      <trkpt lat="48.23487" lon="7.2499">
        <ele>799.3</ele>
        <time>2021-08-04T11:38:26Z</time>
      </trkpt>
      <trkpt lat="48.2349" lon="7.24986">
        <ele>798.9</ele>
        <time>2021-08-04T11:38:28Z</time>
      </trkpt>
      <trkpt lat="48.23488" lon="7.24978">
        <ele>798.4</ele>
        <time>2021-08-04T11:38:29Z</time>
      </trkpt>
      <trkpt lat="48.23484" lon="7.24971">
        <ele>797.9</ele>
        <time>2021-08-04T11:38:31Z</time>
      </trkpt>
      <trkpt lat="48.23481" lon="7.24963">
        <ele>797.3</ele>
        <time>2021-08-04T11:39:06Z</time>
      </trkpt>
      <trkpt lat="48.23477" lon="7.24956">
        <ele>796.7</ele>
        <time>2021-08-04T11:39:07Z</time>
      </trkpt>
      <trkpt lat="48.23476" lon="7.2495">
        <ele>796.3</ele>
        <time>2021-08-04T11:39:08Z</time>
      </trkpt>
      <trkpt lat="48.23475" lon="7.24946">
        <ele>796.1</ele>
        <time>2021-08-04T11:39:09Z</time>
      </trkpt>
      <trkpt lat="48.23474" lon="7.24944">
        <ele>796</ele>
        <time>2021-08-04T11:39:11Z</time>
      </trkpt>
      <trkpt lat="48.23474" lon="7.24946">
        <ele>795.8</ele>
        <time>2021-08-04T11:39:13Z</time>
      </trkpt>
      <trkpt lat="48.23474" lon="7.24946">
        <ele>795.8</ele>
        <time>2021-08-04T11:39:14Z</time>
      </trkpt>
      <trkpt lat="48.23474" lon="7.24946">
        <ele>795.8</ele>
        <time>2021-08-04T11:39:16Z</time>
      </trkpt>
      <trkpt lat="48.23474" lon="7.24946">
        <ele>795.8</ele>
        <time>2021-08-04T11:39:18Z</time>
      </trkpt>
      <trkpt lat="48.23474" lon="7.24946">
        <ele>795.8</ele>
        <time>2021-08-04T11:39:19Z</time>
      </trkpt>
      <trkpt lat="48.23468" lon="7.2483">
        <ele>788.9</ele>
        <time>2021-08-04T11:42:07Z</time>
      </trkpt>
      <trkpt lat="48.23465" lon="7.24817">
        <ele>788.2</ele>
        <time>2021-08-04T11:42:08Z</time>
      </trkpt>
      <trkpt lat="48.23463" lon="7.24807">
        <ele>787.7</ele>
        <time>2021-08-04T11:42:09Z</time>
      </trkpt>
      <trkpt lat="48.23461" lon="7.24797">
        <ele>787.2</ele>
        <time>2021-08-04T11:42:10Z</time>
      </trkpt>
      <trkpt lat="48.23459" lon="7.24778">
        <ele>784.5</ele>
        <time>2021-08-04T11:42:12Z</time>
      </trkpt>
      <trkpt lat="48.23458" lon="7.24756">
        <ele>781.5</ele>
        <time>2021-08-04T11:42:14Z</time>
      </trkpt>
      <trkpt lat="48.23454" lon="7.24733">
        <ele>778.3</ele>
        <time>2021-08-04T11:42:16Z</time>
      </trkpt>
      <trkpt lat="48.23453" lon="7.2472">
        <ele>776.8</ele>
        <time>2021-08-04T11:42:17Z</time>
      </trkpt>
      <trkpt lat="48.23453" lon="7.24708">
        <ele>775.2</ele>
        <time>2021-08-04T11:42:18Z</time>
      </trkpt>
      <trkpt lat="48.23453" lon="7.24685">
        <ele>772.6</ele>
        <time>2021-08-04T11:42:20Z</time>
      </trkpt>
      <trkpt lat="48.23453" lon="7.24674">
        <ele>771.5</ele>
        <time>2021-08-04T11:42:21Z</time>
      </trkpt>
      <trkpt lat="48.23453" lon="7.24665">
        <ele>770.4</ele>
        <time>2021-08-04T11:42:22Z</time>
      </trkpt>
      <trkpt lat="48.23454" lon="7.24649">
        <ele>768.9</ele>
        <time>2021-08-04T11:42:24Z</time>
      </trkpt>
      <trkpt lat="48.23454" lon="7.24638">
        <ele>767.7</ele>
        <time>2021-08-04T11:42:26Z</time>
      </trkpt>
      <trkpt lat="48.23454" lon="7.24632">
        <ele>767.2</ele>
        <time>2021-08-04T11:42:27Z</time>
      </trkpt>
      <trkpt lat="48.23454" lon="7.24627">
        <ele>766.6</ele>
        <time>2021-08-04T11:42:28Z</time>
      </trkpt>
      <trkpt lat="48.23456" lon="7.24613">
        <ele>765.3</ele>
        <time>2021-08-04T11:42:30Z</time>
      </trkpt>
      <trkpt lat="48.23458" lon="7.24606">
        <ele>764.6</ele>
        <time>2021-08-04T11:42:32Z</time>
      </trkpt>
      <trkpt lat="48.23461" lon="7.24601">
        <ele>764</ele>
        <time>2021-08-04T11:42:33Z</time>
      </trkpt>
      <trkpt lat="48.23462" lon="7.24594">
        <ele>763.4</ele>
        <time>2021-08-04T11:42:34Z</time>
      </trkpt>
      <trkpt lat="48.23464" lon="7.24578">
        <ele>762.5</ele>
        <time>2021-08-04T11:42:35Z</time>
      </trkpt>
      <trkpt lat="48.23465" lon="7.24567">
        <ele>762.3</ele>
        <time>2021-08-04T11:42:36Z</time>
      </trkpt>
      <trkpt lat="48.23467" lon="7.24556">
        <ele>762.2</ele>
        <time>2021-08-04T11:42:37Z</time>
      </trkpt>
      <trkpt lat="48.23472" lon="7.24539">
        <ele>761.9</ele>
        <time>2021-08-04T11:42:39Z</time>
      </trkpt>
      <trkpt lat="48.23478" lon="7.24526">
        <ele>761.6</ele>
        <time>2021-08-04T11:42:41Z</time>
      </trkpt>
      <trkpt lat="48.23479" lon="7.24522">
        <ele>761.5</ele>
        <time>2021-08-04T11:42:42Z</time>
      </trkpt>
      <trkpt lat="48.23482" lon="7.24515">
        <ele>761.3</ele>
        <time>2021-08-04T11:42:44Z</time>
      </trkpt>
      <trkpt lat="48.23485" lon="7.24509">
        <ele>761.1</ele>
        <time>2021-08-04T11:42:45Z</time>
      </trkpt>
      <trkpt lat="48.23486" lon="7.24504">
        <ele>760.9</ele>
        <time>2021-08-04T11:42:46Z</time>
      </trkpt>
      <trkpt lat="48.23487" lon="7.24495">
        <ele>760.6</ele>
        <time>2021-08-04T11:42:47Z</time>
      </trkpt>
      <trkpt lat="48.23488" lon="7.24487">
        <ele>760.4</ele>
        <time>2021-08-04T11:42:48Z</time>
      </trkpt>
      <trkpt lat="48.23491" lon="7.24467">
        <ele>759.7</ele>
        <time>2021-08-04T11:42:50Z</time>
      </trkpt>
      <trkpt lat="48.23491" lon="7.24458">
        <ele>759.4</ele>
        <time>2021-08-04T11:42:51Z</time>
      </trkpt>
      <trkpt lat="48.23491" lon="7.2444">
        <ele>758.9</ele>
        <time>2021-08-04T11:42:53Z</time>
      </trkpt>
      <trkpt lat="48.23493" lon="7.24431">
        <ele>758.7</ele>
        <time>2021-08-04T11:42:54Z</time>
      </trkpt>
      <trkpt lat="48.23496" lon="7.24413">
        <ele>758.3</ele>
        <time>2021-08-04T11:42:56Z</time>
      </trkpt>
      <trkpt lat="48.23499" lon="7.24391">
        <ele>757.8</ele>
        <time>2021-08-04T11:42:58Z</time>
      </trkpt>
      <trkpt lat="48.23502" lon="7.2437">
        <ele>757.4</ele>
        <time>2021-08-04T11:43:00Z</time>
      </trkpt>
      <trkpt lat="48.23504" lon="7.24354">
        <ele>757.1</ele>
        <time>2021-08-04T11:43:02Z</time>
      </trkpt>
      <trkpt lat="48.23503" lon="7.24345">
        <ele>757</ele>
        <time>2021-08-04T11:43:04Z</time>
      </trkpt>
      <trkpt lat="48.23503" lon="7.24343">
        <ele>757</ele>
        <time>2021-08-04T11:43:05Z</time>
      </trkpt>
      <trkpt lat="48.23503" lon="7.24341">
        <ele>756.9</ele>
        <time>2021-08-04T11:43:06Z</time>
      </trkpt>
      <trkpt lat="48.23507" lon="7.24335">
        <ele>756.9</ele>
        <time>2021-08-04T11:43:08Z</time>
      </trkpt>
      <trkpt lat="48.2351" lon="7.2433">
        <ele>756.8</ele>
        <time>2021-08-04T11:43:09Z</time>
      </trkpt>
      <trkpt lat="48.23513" lon="7.24326">
        <ele>756.7</ele>
        <time>2021-08-04T11:43:10Z</time>
      </trkpt>
      <trkpt lat="48.23517" lon="7.24321">
        <ele>756.6</ele>
        <time>2021-08-04T11:43:12Z</time>
      </trkpt>
      <trkpt lat="48.2352" lon="7.24316">
        <ele>756.5</ele>
        <time>2021-08-04T11:43:14Z</time>
      </trkpt>
      <trkpt lat="48.23523" lon="7.24311">
        <ele>756.5</ele>
        <time>2021-08-04T11:43:15Z</time>
      </trkpt>
      <trkpt lat="48.23527" lon="7.24306">
        <ele>756.4</ele>
        <time>2021-08-04T11:43:16Z</time>
      </trkpt>
      <trkpt lat="48.2353" lon="7.24301">
        <ele>756.2</ele>
        <time>2021-08-04T11:43:40Z</time>
      </trkpt>
      <trkpt lat="48.23533" lon="7.24297">
        <ele>756.1</ele>
        <time>2021-08-04T11:43:41Z</time>
      </trkpt>
      <trkpt lat="48.23534" lon="7.24289">
        <ele>756</ele>
        <time>2021-08-04T11:43:42Z</time>
      </trkpt>
      <trkpt lat="48.23533" lon="7.24281">
        <ele>755.9</ele>
        <time>2021-08-04T11:43:44Z</time>
      </trkpt>
      <trkpt lat="48.23532" lon="7.24271">
        <ele>755.7</ele>
        <time>2021-08-04T11:43:45Z</time>
      </trkpt>
      <trkpt lat="48.23527" lon="7.24256">
        <ele>755.5</ele>
        <time>2021-08-04T11:43:47Z</time>
      </trkpt>
      <trkpt lat="48.23525" lon="7.24248">
        <ele>755.4</ele>
        <time>2021-08-04T11:43:48Z</time>
      </trkpt>
      <trkpt lat="48.23524" lon="7.24241">
        <ele>755.3</ele>
        <time>2021-08-04T11:43:49Z</time>
      </trkpt>
      <trkpt lat="48.23521" lon="7.24237">
        <ele>755.3</ele>
        <time>2021-08-04T11:43:50Z</time>
      </trkpt>
      <trkpt lat="48.23518" lon="7.24232">
        <ele>755.1</ele>
        <time>2021-08-04T11:43:52Z</time>
      </trkpt>
      <trkpt lat="48.23515" lon="7.24228">
        <ele>754.9</ele>
        <time>2021-08-04T11:43:53Z</time>
      </trkpt>
      <trkpt lat="48.23511" lon="7.24225">
        <ele>754.8</ele>
        <time>2021-08-04T11:43:55Z</time>
      </trkpt>
      <trkpt lat="48.23508" lon="7.24223">
        <ele>754.6</ele>
        <time>2021-08-04T11:43:56Z</time>
      </trkpt>
      <trkpt lat="48.23505" lon="7.24221">
        <ele>754.4</ele>
        <time>2021-08-04T11:43:57Z</time>
      </trkpt>
      <trkpt lat="48.23499" lon="7.24219">
        <ele>754.1</ele>
        <time>2021-08-04T11:43:59Z</time>
      </trkpt>
      <trkpt lat="48.23497" lon="7.24216">
        <ele>753.9</ele>
        <time>2021-08-04T11:44:00Z</time>
      </trkpt>
      <trkpt lat="48.23493" lon="7.24212">
        <ele>753.7</ele>
        <time>2021-08-04T11:44:01Z</time>
      </trkpt>
      <trkpt lat="48.2349" lon="7.24207">
        <ele>753.4</ele>
        <time>2021-08-04T11:44:02Z</time>
      </trkpt>
      <trkpt lat="48.23487" lon="7.24203">
        <ele>753.2</ele>
        <time>2021-08-04T11:44:03Z</time>
      </trkpt>
      <trkpt lat="48.23482" lon="7.24194">
        <ele>752.9</ele>
        <time>2021-08-04T11:44:05Z</time>
      </trkpt>
      <trkpt lat="48.23475" lon="7.24186">
        <ele>752.5</ele>
        <time>2021-08-04T11:44:07Z</time>
      </trkpt>
      <trkpt lat="48.23472" lon="7.24185">
        <ele>752.3</ele>
        <time>2021-08-04T11:44:08Z</time>
      </trkpt>
      <trkpt lat="48.23462" lon="7.24181">
        <ele>751.9</ele>
        <time>2021-08-04T11:44:09Z</time>
      </trkpt>
      <trkpt lat="48.23457" lon="7.24177">
        <ele>751.6</ele>
        <time>2021-08-04T11:44:11Z</time>
      </trkpt>
      <trkpt lat="48.23454" lon="7.24173">
        <ele>751.5</ele>
        <time>2021-08-04T11:44:12Z</time>
      </trkpt>
      <trkpt lat="48.23453" lon="7.24171">
        <ele>751.4</ele>
        <time>2021-08-04T11:44:13Z</time>
      </trkpt>
      <trkpt lat="48.23449" lon="7.24159">
        <ele>751.1</ele>
        <time>2021-08-04T11:44:15Z</time>
      </trkpt>
      <trkpt lat="48.23447" lon="7.2415">
        <ele>750.8</ele>
        <time>2021-08-04T11:44:16Z</time>
      </trkpt>
      <trkpt lat="48.23443" lon="7.24141">
        <ele>750.5</ele>
        <time>2021-08-04T11:44:17Z</time>
      </trkpt>
      <trkpt lat="48.23439" lon="7.24131">
        <ele>750.2</ele>
        <time>2021-08-04T11:44:18Z</time>
      </trkpt>
      <trkpt lat="48.23433" lon="7.24114">
        <ele>749.7</ele>
        <time>2021-08-04T11:44:20Z</time>
      </trkpt>
      <trkpt lat="48.23429" lon="7.24099">
        <ele>749.3</ele>
        <time>2021-08-04T11:44:22Z</time>
      </trkpt>
      <trkpt lat="48.23425" lon="7.24088">
        <ele>749.1</ele>
        <time>2021-08-04T11:44:23Z</time>
      </trkpt>
      <trkpt lat="48.23423" lon="7.2408">
        <ele>748.9</ele>
        <time>2021-08-04T11:44:24Z</time>
      </trkpt>
      <trkpt lat="48.23421" lon="7.24067">
        <ele>748.6</ele>
        <time>2021-08-04T11:44:26Z</time>
      </trkpt>
      <trkpt lat="48.23419" lon="7.24056">
        <ele>748.3</ele>
        <time>2021-08-04T11:44:27Z</time>
      </trkpt>
      <trkpt lat="48.23416" lon="7.24042">
        <ele>748</ele>
        <time>2021-08-04T11:44:29Z</time>
      </trkpt>
      <trkpt lat="48.23411" lon="7.24026">
        <ele>747.6</ele>
        <time>2021-08-04T11:44:30Z</time>
      </trkpt>
      <trkpt lat="48.23407" lon="7.24008">
        <ele>747</ele>
        <time>2021-08-04T11:44:32Z</time>
      </trkpt>
      <trkpt lat="48.23408" lon="7.23995">
        <ele>746.6</ele>
        <time>2021-08-04T11:44:34Z</time>
      </trkpt>
      <trkpt lat="48.23407" lon="7.23987">
        <ele>746.4</ele>
        <time>2021-08-04T11:44:35Z</time>
      </trkpt>
      <trkpt lat="48.23406" lon="7.2398">
        <ele>746.1</ele>
        <time>2021-08-04T11:44:36Z</time>
      </trkpt>
      <trkpt lat="48.23405" lon="7.23972">
        <ele>745.9</ele>
        <time>2021-08-04T11:44:37Z</time>
      </trkpt>
      <trkpt lat="48.23404" lon="7.23961">
        <ele>745.6</ele>
        <time>2021-08-04T11:44:38Z</time>
      </trkpt>
      <trkpt lat="48.23405" lon="7.23952">
        <ele>745.5</ele>
        <time>2021-08-04T11:44:40Z</time>
      </trkpt>
      <trkpt lat="48.23406" lon="7.23935">
        <ele>745.1</ele>
        <time>2021-08-04T11:44:41Z</time>
      </trkpt>
      <trkpt lat="48.23408" lon="7.23926">
        <ele>745</ele>
        <time>2021-08-04T11:44:42Z</time>
      </trkpt>
      <trkpt lat="48.23412" lon="7.2391">
        <ele>744.7</ele>
        <time>2021-08-04T11:44:44Z</time>
      </trkpt>
      <trkpt lat="48.23413" lon="7.23902">
        <ele>744.6</ele>
        <time>2021-08-04T11:44:45Z</time>
      </trkpt>
      <trkpt lat="48.23415" lon="7.23883">
        <ele>744.2</ele>
        <time>2021-08-04T11:44:47Z</time>
      </trkpt>
      <trkpt lat="48.23417" lon="7.23864">
        <ele>743.9</ele>
        <time>2021-08-04T11:44:49Z</time>
      </trkpt>
      <trkpt lat="48.23418" lon="7.23857">
        <ele>743.8</ele>
        <time>2021-08-04T11:44:50Z</time>
      </trkpt>
      <trkpt lat="48.23419" lon="7.23855">
        <ele>743.8</ele>
        <time>2021-08-04T11:44:51Z</time>
      </trkpt>
      <trkpt lat="48.23419" lon="7.23846">
        <ele>743.7</ele>
        <time>2021-08-04T11:44:53Z</time>
      </trkpt>
      <trkpt lat="48.23417" lon="7.23838">
        <ele>743.6</ele>
        <time>2021-08-04T11:44:54Z</time>
      </trkpt>
      <trkpt lat="48.23414" lon="7.23829">
        <ele>743.5</ele>
        <time>2021-08-04T11:44:56Z</time>
      </trkpt>
      <trkpt lat="48.23414" lon="7.23822">
        <ele>743.3</ele>
        <time>2021-08-04T11:44:57Z</time>
      </trkpt>
      <trkpt lat="48.23414" lon="7.23814">
        <ele>743.2</ele>
        <time>2021-08-04T11:44:58Z</time>
      </trkpt>
      <trkpt lat="48.23415" lon="7.23808">
        <ele>743</ele>
        <time>2021-08-04T11:44:59Z</time>
      </trkpt>
      <trkpt lat="48.23415" lon="7.23802">
        <ele>742.9</ele>
        <time>2021-08-04T11:45:00Z</time>
      </trkpt>
      <trkpt lat="48.23415" lon="7.23793">
        <ele>742.7</ele>
        <time>2021-08-04T11:45:02Z</time>
      </trkpt>
      <trkpt lat="48.23415" lon="7.23785">
        <ele>742.4</ele>
        <time>2021-08-04T11:45:03Z</time>
      </trkpt>
      <trkpt lat="48.23417" lon="7.23765">
        <ele>741.7</ele>
        <time>2021-08-04T11:45:04Z</time>
      </trkpt>
      <trkpt lat="48.23417" lon="7.23756">
        <ele>741.4</ele>
        <time>2021-08-04T11:45:05Z</time>
      </trkpt>
      <trkpt lat="48.23418" lon="7.23748">
        <ele>741.1</ele>
        <time>2021-08-04T11:45:06Z</time>
      </trkpt>
      <trkpt lat="48.23419" lon="7.23729">
        <ele>740.4</ele>
        <time>2021-08-04T11:45:08Z</time>
      </trkpt>
      <trkpt lat="48.23421" lon="7.23718">
        <ele>740</ele>
        <time>2021-08-04T11:45:09Z</time>
      </trkpt>
      <trkpt lat="48.23423" lon="7.23707">
        <ele>739.6</ele>
        <time>2021-08-04T11:45:10Z</time>
      </trkpt>
      <trkpt lat="48.23427" lon="7.23688">
        <ele>738.9</ele>
        <time>2021-08-04T11:45:12Z</time>
      </trkpt>
      <trkpt lat="48.23429" lon="7.23669">
        <ele>738.4</ele>
        <time>2021-08-04T11:45:14Z</time>
      </trkpt>
      <trkpt lat="48.23432" lon="7.23651">
        <ele>737.9</ele>
        <time>2021-08-04T11:45:16Z</time>
      </trkpt>
      <trkpt lat="48.23433" lon="7.23643">
        <ele>737.8</ele>
        <time>2021-08-04T11:45:17Z</time>
      </trkpt>
      <trkpt lat="48.23433" lon="7.23634">
        <ele>737.6</ele>
        <time>2021-08-04T11:45:18Z</time>
      </trkpt>
      <trkpt lat="48.23432" lon="7.23615">
        <ele>737.2</ele>
        <time>2021-08-04T11:45:20Z</time>
      </trkpt>
      <trkpt lat="48.23432" lon="7.23606">
        <ele>737</ele>
        <time>2021-08-04T11:45:21Z</time>
      </trkpt>
      <trkpt lat="48.23432" lon="7.23596">
        <ele>736.7</ele>
        <time>2021-08-04T11:45:22Z</time>
      </trkpt>
      <trkpt lat="48.2343" lon="7.23578">
        <ele>736.4</ele>
        <time>2021-08-04T11:45:24Z</time>
      </trkpt>
      <trkpt lat="48.2343" lon="7.23571">
        <ele>736.2</ele>
        <time>2021-08-04T11:45:25Z</time>
      </trkpt>
      <trkpt lat="48.23429" lon="7.23564">
        <ele>736.1</ele>
        <time>2021-08-04T11:45:26Z</time>
      </trkpt>
      <trkpt lat="48.23427" lon="7.2356">
        <ele>736</ele>
        <time>2021-08-04T11:45:27Z</time>
      </trkpt>
      <trkpt lat="48.23425" lon="7.23553">
        <ele>735.8</ele>
        <time>2021-08-04T11:45:28Z</time>
      </trkpt>
      <trkpt lat="48.23421" lon="7.23542">
        <ele>735.5</ele>
        <time>2021-08-04T11:45:30Z</time>
      </trkpt>
      <trkpt lat="48.23417" lon="7.23535">
        <ele>735.3</ele>
        <time>2021-08-04T11:45:31Z</time>
      </trkpt>
      <trkpt lat="48.2341" lon="7.2352">
        <ele>735</ele>
        <time>2021-08-04T11:45:33Z</time>
      </trkpt>
      <trkpt lat="48.23409" lon="7.23515">
        <ele>734.9</ele>
        <time>2021-08-04T11:45:34Z</time>
      </trkpt>
      <trkpt lat="48.23406" lon="7.23507">
        <ele>734.7</ele>
        <time>2021-08-04T11:45:36Z</time>
      </trkpt>
      <trkpt lat="48.23403" lon="7.235">
        <ele>734.5</ele>
        <time>2021-08-04T11:45:37Z</time>
      </trkpt>
      <trkpt lat="48.23399" lon="7.23493">
        <ele>734.4</ele>
        <time>2021-08-04T11:45:38Z</time>
      </trkpt>
      <trkpt lat="48.23395" lon="7.23482">
        <ele>734.2</ele>
        <time>2021-08-04T11:45:40Z</time>
      </trkpt>
      <trkpt lat="48.23393" lon="7.23471">
        <ele>734</ele>
        <time>2021-08-04T11:45:41Z</time>
      </trkpt>
      <trkpt lat="48.23391" lon="7.23462">
        <ele>733.9</ele>
        <time>2021-08-04T11:45:43Z</time>
      </trkpt>
      <trkpt lat="48.2339" lon="7.23456">
        <ele>733.8</ele>
        <time>2021-08-04T11:45:44Z</time>
      </trkpt>
      <trkpt lat="48.23389" lon="7.23449">
        <ele>733.8</ele>
        <time>2021-08-04T11:45:45Z</time>
      </trkpt>
      <trkpt lat="48.2339" lon="7.23443">
        <ele>733.7</ele>
        <time>2021-08-04T11:45:46Z</time>
      </trkpt>
      <trkpt lat="48.23392" lon="7.23435">
        <ele>733.7</ele>
        <time>2021-08-04T11:45:47Z</time>
      </trkpt>
      <trkpt lat="48.23393" lon="7.23431">
        <ele>733.6</ele>
        <time>2021-08-04T11:45:48Z</time>
      </trkpt>
      <trkpt lat="48.23394" lon="7.23426">
        <ele>733.6</ele>
        <time>2021-08-04T11:45:50Z</time>
      </trkpt>
      <trkpt lat="48.23395" lon="7.2342">
        <ele>733.5</ele>
        <time>2021-08-04T11:45:51Z</time>
      </trkpt>
      <trkpt lat="48.23397" lon="7.23415">
        <ele>733.4</ele>
        <time>2021-08-04T11:45:52Z</time>
      </trkpt>
      <trkpt lat="48.23398" lon="7.23408">
        <ele>733.3</ele>
        <time>2021-08-04T11:45:54Z</time>
      </trkpt>
      <trkpt lat="48.23397" lon="7.23404">
        <ele>733.4</ele>
        <time>2021-08-04T11:45:55Z</time>
      </trkpt>
      <trkpt lat="48.23396" lon="7.23403">
        <ele>733.4</ele>
        <time>2021-08-04T11:45:56Z</time>
      </trkpt>
      <trkpt lat="48.23392" lon="7.234">
        <ele>733.6</ele>
        <time>2021-08-04T11:45:57Z</time>
      </trkpt>
      <trkpt lat="48.23386" lon="7.23397">
        <ele>733.8</ele>
        <time>2021-08-04T11:45:59Z</time>
      </trkpt>
      <trkpt lat="48.23383" lon="7.23393">
        <ele>733.9</ele>
        <time>2021-08-04T11:46:01Z</time>
      </trkpt>
      <trkpt lat="48.23382" lon="7.23391">
        <ele>733.9</ele>
        <time>2021-08-04T11:46:03Z</time>
      </trkpt>
      <trkpt lat="48.2338" lon="7.23391">
        <ele>734</ele>
        <time>2021-08-04T11:46:04Z</time>
      </trkpt>
      <trkpt lat="48.23379" lon="7.23392">
        <ele>734</ele>
        <time>2021-08-04T11:46:06Z</time>
      </trkpt>
      <trkpt lat="48.23378" lon="7.23392">
        <ele>734</ele>
        <time>2021-08-04T11:46:07Z</time>
      </trkpt>
      <trkpt lat="48.23377" lon="7.23392">
        <ele>734</ele>
        <time>2021-08-04T11:46:08Z</time>
      </trkpt>
      <trkpt lat="48.23375" lon="7.23393">
        <ele>734</ele>
        <time>2021-08-04T11:46:09Z</time>
      </trkpt>
      <trkpt lat="48.23373" lon="7.23393">
        <ele>734.1</ele>
        <time>2021-08-04T11:46:11Z</time>
      </trkpt>
      <trkpt lat="48.23365" lon="7.23389">
        <ele>734.1</ele>
        <time>2021-08-04T11:46:15Z</time>
      </trkpt>
      <trkpt lat="48.23357" lon="7.2339">
        <ele>734.1</ele>
        <time>2021-08-04T11:46:17Z</time>
      </trkpt>
      <trkpt lat="48.23348" lon="7.23394">
        <ele>734.1</ele>
        <time>2021-08-04T11:46:18Z</time>
      </trkpt>
      <trkpt lat="48.23337" lon="7.23399">
        <ele>734</ele>
        <time>2021-08-04T11:46:19Z</time>
      </trkpt>
      <trkpt lat="48.23311" lon="7.23406">
        <ele>733.9</ele>
        <time>2021-08-04T11:46:20Z</time>
      </trkpt>
      <trkpt lat="48.23307" lon="7.23407">
        <ele>733.9</ele>
        <time>2021-08-04T11:46:21Z</time>
      </trkpt>
      <trkpt lat="48.2329" lon="7.23407">
        <ele>734.2</ele>
        <time>2021-08-04T11:46:23Z</time>
      </trkpt>
      <trkpt lat="48.23277" lon="7.23407">
        <ele>734.8</ele>
        <time>2021-08-04T11:46:25Z</time>
      </trkpt>
      <trkpt lat="48.2327" lon="7.23405">
        <ele>735.3</ele>
        <time>2021-08-04T11:46:26Z</time>
      </trkpt>
      <trkpt lat="48.23256" lon="7.23403">
        <ele>737.1</ele>
        <time>2021-08-04T11:46:28Z</time>
      </trkpt>
      <trkpt lat="48.2325" lon="7.23401">
        <ele>737.2</ele>
        <time>2021-08-04T11:46:29Z</time>
      </trkpt>
      <trkpt lat="48.23244" lon="7.23399">
        <ele>737.3</ele>
        <time>2021-08-04T11:46:30Z</time>
      </trkpt>
      <trkpt lat="48.2324" lon="7.23398">
        <ele>737.4</ele>
        <time>2021-08-04T11:46:31Z</time>
      </trkpt>
      <trkpt lat="48.23233" lon="7.23394">
        <ele>737.5</ele>
        <time>2021-08-04T11:46:33Z</time>
      </trkpt>
      <trkpt lat="48.23226" lon="7.23388">
        <ele>737.6</ele>
        <time>2021-08-04T11:46:35Z</time>
      </trkpt>
      <trkpt lat="48.23221" lon="7.23387">
        <ele>737.7</ele>
        <time>2021-08-04T11:46:36Z</time>
      </trkpt>
      <trkpt lat="48.23217" lon="7.23382">
        <ele>737.8</ele>
        <time>2021-08-04T11:46:38Z</time>
      </trkpt>
      <trkpt lat="48.23214" lon="7.23382">
        <ele>737.8</ele>
        <time>2021-08-04T11:46:39Z</time>
      </trkpt>
      <trkpt lat="48.23211" lon="7.23382">
        <ele>737.9</ele>
        <time>2021-08-04T11:46:40Z</time>
      </trkpt>
      <trkpt lat="48.23206" lon="7.23382">
        <ele>738</ele>
        <time>2021-08-04T11:46:41Z</time>
      </trkpt>
      <trkpt lat="48.23204" lon="7.23381">
        <ele>738</ele>
        <time>2021-08-04T11:46:42Z</time>
      </trkpt>
      <trkpt lat="48.232" lon="7.23381">
        <ele>738.1</ele>
        <time>2021-08-04T11:46:44Z</time>
      </trkpt>
      <trkpt lat="48.23201" lon="7.2338">
        <ele>738.1</ele>
        <time>2021-08-04T11:46:45Z</time>
      </trkpt>
      <trkpt lat="48.23205" lon="7.23376">
        <ele>738.1</ele>
        <time>2021-08-04T11:46:47Z</time>
      </trkpt>
      <trkpt lat="48.23205" lon="7.23376">
        <ele>738.1</ele>
        <time>2021-08-04T11:46:48Z</time>
      </trkpt>
      <trkpt lat="48.23204" lon="7.23375">
        <ele>738.1</ele>
        <time>2021-08-04T11:46:50Z</time>
      </trkpt>
      <trkpt lat="48.23204" lon="7.23374">
        <ele>738.1</ele>
        <time>2021-08-04T11:46:51Z</time>
      </trkpt>
      <trkpt lat="48.23203" lon="7.23373">
        <ele>738.1</ele>
        <time>2021-08-04T11:46:52Z</time>
      </trkpt>
      <trkpt lat="48.23202" lon="7.23372">
        <ele>738.1</ele>
        <time>2021-08-04T11:46:53Z</time>
      </trkpt>
      <trkpt lat="48.232" lon="7.2337">
        <ele>738.2</ele>
        <time>2021-08-04T11:46:55Z</time>
      </trkpt>
      <trkpt lat="48.23193" lon="7.23368">
        <ele>738.2</ele>
        <time>2021-08-04T11:46:59Z</time>
      </trkpt>
      <trkpt lat="48.2319" lon="7.2337">
        <ele>738.2</ele>
        <time>2021-08-04T11:47:00Z</time>
      </trkpt>
      <trkpt lat="48.23188" lon="7.23372">
        <ele>738.2</ele>
        <time>2021-08-04T11:47:01Z</time>
      </trkpt>
      <trkpt lat="48.23184" lon="7.23375">
        <ele>738.2</ele>
        <time>2021-08-04T11:47:03Z</time>
      </trkpt>
      <trkpt lat="48.23181" lon="7.23379">
        <ele>738.2</ele>
        <time>2021-08-04T11:47:04Z</time>
      </trkpt>
      <trkpt lat="48.23176" lon="7.23382">
        <ele>738.3</ele>
        <time>2021-08-04T11:47:05Z</time>
      </trkpt>
      <trkpt lat="48.23171" lon="7.23385">
        <ele>738.3</ele>
        <time>2021-08-04T11:47:06Z</time>
      </trkpt>
      <trkpt lat="48.23166" lon="7.23388">
        <ele>738.3</ele>
        <time>2021-08-04T11:47:07Z</time>
      </trkpt>
      <trkpt lat="48.23161" lon="7.23392">
        <ele>738.4</ele>
        <time>2021-08-04T11:47:09Z</time>
      </trkpt>
      <trkpt lat="48.23158" lon="7.23393">
        <ele>738.4</ele>
        <time>2021-08-04T11:47:10Z</time>
      </trkpt>
      <trkpt lat="48.23154" lon="7.23394">
        <ele>738.4</ele>
        <time>2021-08-04T11:47:12Z</time>
      </trkpt>
      <trkpt lat="48.2315" lon="7.23394">
        <ele>738.4</ele>
        <time>2021-08-04T11:47:13Z</time>
      </trkpt>
      <trkpt lat="48.23149" lon="7.23394">
        <ele>738.4</ele>
        <time>2021-08-04T11:47:14Z</time>
      </trkpt>
      <trkpt lat="48.23145" lon="7.23395">
        <ele>738.4</ele>
        <time>2021-08-04T11:47:15Z</time>
      </trkpt>
      <trkpt lat="48.23144" lon="7.23394">
        <ele>738.4</ele>
        <time>2021-08-04T11:47:16Z</time>
      </trkpt>
      <trkpt lat="48.23143" lon="7.23394">
        <ele>738.4</ele>
        <time>2021-08-04T11:47:17Z</time>
      </trkpt>
      <trkpt lat="48.23139" lon="7.23393">
        <ele>738.4</ele>
        <time>2021-08-04T11:47:19Z</time>
      </trkpt>
      <trkpt lat="48.23137" lon="7.23392">
        <ele>738.4</ele>
        <time>2021-08-04T11:47:20Z</time>
      </trkpt>
      <trkpt lat="48.23134" lon="7.23392">
        <ele>738.4</ele>
        <time>2021-08-04T11:47:22Z</time>
      </trkpt>
      <trkpt lat="48.23132" lon="7.23392">
        <ele>738.4</ele>
        <time>2021-08-04T11:47:23Z</time>
      </trkpt>
      <trkpt lat="48.2313" lon="7.23392">
        <ele>738.4</ele>
        <time>2021-08-04T11:47:25Z</time>
      </trkpt>
      <trkpt lat="48.23128" lon="7.23392">
        <ele>738.4</ele>
        <time>2021-08-04T11:47:26Z</time>
      </trkpt>
      <trkpt lat="48.23127" lon="7.23392">
        <ele>738.4</ele>
        <time>2021-08-04T11:47:27Z</time>
      </trkpt>
      <trkpt lat="48.23126" lon="7.23393">
        <ele>738.4</ele>
        <time>2021-08-04T11:47:28Z</time>
      </trkpt>
      <trkpt lat="48.23123" lon="7.23394">
        <ele>738.4</ele>
        <time>2021-08-04T11:47:30Z</time>
      </trkpt>
      <trkpt lat="48.23121" lon="7.23394">
        <ele>738.4</ele>
        <time>2021-08-04T11:47:31Z</time>
      </trkpt>
      <trkpt lat="48.23119" lon="7.23396">
        <ele>738.4</ele>
        <time>2021-08-04T11:47:33Z</time>
      </trkpt>
      <trkpt lat="48.23116" lon="7.23398">
        <ele>738.4</ele>
        <time>2021-08-04T11:47:34Z</time>
      </trkpt>
      <trkpt lat="48.23113" lon="7.23398">
        <ele>738.4</ele>
        <time>2021-08-04T11:47:35Z</time>
      </trkpt>
      <trkpt lat="48.23112" lon="7.23397">
        <ele>738.4</ele>
        <time>2021-08-04T11:47:37Z</time>
      </trkpt>
      <trkpt lat="48.2311" lon="7.23396">
        <ele>738.5</ele>
        <time>2021-08-04T11:47:38Z</time>
      </trkpt>
      <trkpt lat="48.23109" lon="7.23396">
        <ele>738.5</ele>
        <time>2021-08-04T11:47:39Z</time>
      </trkpt>
      <trkpt lat="48.23108" lon="7.23396">
        <ele>738.5</ele>
        <time>2021-08-04T11:47:41Z</time>
      </trkpt>
      <trkpt lat="48.23106" lon="7.23396">
        <ele>738.5</ele>
        <time>2021-08-04T11:47:42Z</time>
      </trkpt>
      <trkpt lat="48.23105" lon="7.23396">
        <ele>738.5</ele>
        <time>2021-08-04T11:47:43Z</time>
      </trkpt>
      <trkpt lat="48.23103" lon="7.23397">
        <ele>738.5</ele>
        <time>2021-08-04T11:47:44Z</time>
      </trkpt>
      <trkpt lat="48.23103" lon="7.23398">
        <ele>738.5</ele>
        <time>2021-08-04T11:47:45Z</time>
      </trkpt>
      <trkpt lat="48.23102" lon="7.23399">
        <ele>738.5</ele>
        <time>2021-08-04T11:47:47Z</time>
      </trkpt>
      <trkpt lat="48.23099" lon="7.23401">
        <ele>738.6</ele>
        <time>2021-08-04T11:47:48Z</time>
      </trkpt>
      <trkpt lat="48.23098" lon="7.23402">
        <ele>738.6</ele>
        <time>2021-08-04T11:47:49Z</time>
      </trkpt>
      <trkpt lat="48.23096" lon="7.23403">
        <ele>738.6</ele>
        <time>2021-08-04T11:47:50Z</time>
      </trkpt>
      <trkpt lat="48.23094" lon="7.23405">
        <ele>738.6</ele>
        <time>2021-08-04T11:47:51Z</time>
      </trkpt>
      <trkpt lat="48.23093" lon="7.23406">
        <ele>738.7</ele>
        <time>2021-08-04T11:47:53Z</time>
      </trkpt>
      <trkpt lat="48.23092" lon="7.23408">
        <ele>738.7</ele>
        <time>2021-08-04T11:47:54Z</time>
      </trkpt>
      <trkpt lat="48.23091" lon="7.23409">
        <ele>738.7</ele>
        <time>2021-08-04T11:47:55Z</time>
      </trkpt>
      <trkpt lat="48.23091" lon="7.23409">
        <ele>738.7</ele>
        <time>2021-08-04T11:47:56Z</time>
      </trkpt>
      <trkpt lat="48.2309" lon="7.2341">
        <ele>738.7</ele>
        <time>2021-08-04T11:47:58Z</time>
      </trkpt>
      <trkpt lat="48.23089" lon="7.2341">
        <ele>738.8</ele>
        <time>2021-08-04T11:47:59Z</time>
      </trkpt>
      <trkpt lat="48.23088" lon="7.23411">
        <ele>738.8</ele>
        <time>2021-08-04T11:48:01Z</time>
      </trkpt>
      <trkpt lat="48.23064" lon="7.2342">
        <ele>739.3</ele>
        <time>2021-08-04T11:48:25Z</time>
      </trkpt>
      <trkpt lat="48.23056" lon="7.23417">
        <ele>739.6</ele>
        <time>2021-08-04T11:48:27Z</time>
      </trkpt>
      <trkpt lat="48.23049" lon="7.23413">
        <ele>739.8</ele>
        <time>2021-08-04T11:48:28Z</time>
      </trkpt>
      <trkpt lat="48.23044" lon="7.23411">
        <ele>739.9</ele>
        <time>2021-08-04T11:48:29Z</time>
      </trkpt>
      <trkpt lat="48.23039" lon="7.2341">
        <ele>740.1</ele>
        <time>2021-08-04T11:48:31Z</time>
      </trkpt>
      <trkpt lat="48.23036" lon="7.2341">
        <ele>740.2</ele>
        <time>2021-08-04T11:48:32Z</time>
      </trkpt>
      <trkpt lat="48.23034" lon="7.2341">
        <ele>740.2</ele>
        <time>2021-08-04T11:48:34Z</time>
      </trkpt>
      <trkpt lat="48.23034" lon="7.2341">
        <ele>740.3</ele>
        <time>2021-08-04T11:48:35Z</time>
      </trkpt>
      <trkpt lat="48.23033" lon="7.2341">
        <ele>740.3</ele>
        <time>2021-08-04T11:48:36Z</time>
      </trkpt>
      <trkpt lat="48.23033" lon="7.2341">
        <ele>740.3</ele>
        <time>2021-08-04T11:48:37Z</time>
      </trkpt>
      <trkpt lat="48.23026" lon="7.23415">
        <ele>740.5</ele>
        <time>2021-08-04T11:48:38Z</time>
      </trkpt>
      <trkpt lat="48.23019" lon="7.23419">
        <ele>740.7</ele>
        <time>2021-08-04T11:48:40Z</time>
      </trkpt>
      <trkpt lat="48.23012" lon="7.23424">
        <ele>740.9</ele>
        <time>2021-08-04T11:48:41Z</time>
      </trkpt>
      <trkpt lat="48.23005" lon="7.23429">
        <ele>741.1</ele>
        <time>2021-08-04T11:48:42Z</time>
      </trkpt>
      <trkpt lat="48.22998" lon="7.23433">
        <ele>741.2</ele>
        <time>2021-08-04T11:49:38Z</time>
      </trkpt>
      <trkpt lat="48.22991" lon="7.23438">
        <ele>741.3</ele>
        <time>2021-08-04T11:49:40Z</time>
      </trkpt>
      <trkpt lat="48.22984" lon="7.23442">
        <ele>741.5</ele>
        <time>2021-08-04T11:49:41Z</time>
      </trkpt>
      <trkpt lat="48.22977" lon="7.23447">
        <ele>741.6</ele>
        <time>2021-08-04T11:49:42Z</time>
      </trkpt>
      <trkpt lat="48.22976" lon="7.23448">
        <ele>741.6</ele>
        <time>2021-08-04T11:49:43Z</time>
      </trkpt>
      <trkpt lat="48.22976" lon="7.23449">
        <ele>741.6</ele>
        <time>2021-08-04T11:49:45Z</time>
      </trkpt>
      <trkpt lat="48.22976" lon="7.2345">
        <ele>741.7</ele>
        <time>2021-08-04T11:49:46Z</time>
      </trkpt>
      <trkpt lat="48.22976" lon="7.23452">
        <ele>741.7</ele>
        <time>2021-08-04T11:49:47Z</time>
      </trkpt>
      <trkpt lat="48.22969" lon="7.23457">
        <ele>741.8</ele>
        <time>2021-08-04T11:49:48Z</time>
      </trkpt>
      <trkpt lat="48.22962" lon="7.23461">
        <ele>741.8</ele>
        <time>2021-08-04T11:49:49Z</time>
      </trkpt>
      <trkpt lat="48.22955" lon="7.23466">
        <ele>741.7</ele>
        <time>2021-08-04T11:49:51Z</time>
      </trkpt>
      <trkpt lat="48.22947" lon="7.2347">
        <ele>741.5</ele>
        <time>2021-08-04T11:49:52Z</time>
      </trkpt>
      <trkpt lat="48.2294" lon="7.23474">
        <ele>741.3</ele>
        <time>2021-08-04T11:52:32Z</time>
      </trkpt>
      <trkpt lat="48.22933" lon="7.23478">
        <ele>741</ele>
        <time>2021-08-04T11:52:33Z</time>
      </trkpt>
      <trkpt lat="48.22931" lon="7.23471">
        <ele>741.1</ele>
        <time>2021-08-04T11:52:34Z</time>
      </trkpt>
      <trkpt lat="48.2293" lon="7.23466">
        <ele>741.6</ele>
        <time>2021-08-04T11:52:35Z</time>
      </trkpt>
      <trkpt lat="48.22929" lon="7.23461">
        <ele>741.8</ele>
        <time>2021-08-04T11:52:37Z</time>
      </trkpt>
      <trkpt lat="48.22929" lon="7.23462">
        <ele>742.1</ele>
        <time>2021-08-04T11:52:39Z</time>
      </trkpt>
      <trkpt lat="48.22929" lon="7.23462">
        <ele>742.5</ele>
        <time>2021-08-04T11:52:40Z</time>
      </trkpt>
      <trkpt lat="48.2293" lon="7.23462">
        <ele>742.8</ele>
        <time>2021-08-04T11:52:41Z</time>
      </trkpt>
      <trkpt lat="48.2293" lon="7.23462">
        <ele>743.1</ele>
        <time>2021-08-04T11:52:42Z</time>
      </trkpt>
      <trkpt lat="48.22931" lon="7.23463">
        <ele>743.3</ele>
        <time>2021-08-04T11:52:44Z</time>
      </trkpt>
      <trkpt lat="48.22931" lon="7.23464">
        <ele>743.7</ele>
        <time>2021-08-04T11:52:45Z</time>
      </trkpt>
      <trkpt lat="48.22926" lon="7.23426">
        <ele>744.3</ele>
        <time>2021-08-04T11:53:23Z</time>
      </trkpt>
      <trkpt lat="48.22928" lon="7.23422">
        <ele>744.3</ele>
        <time>2021-08-04T11:53:24Z</time>
      </trkpt>
      <trkpt lat="48.2293" lon="7.23417">
        <ele>744.7</ele>
        <time>2021-08-04T11:53:25Z</time>
      </trkpt>
      <trkpt lat="48.22931" lon="7.23412">
        <ele>744.6</ele>
        <time>2021-08-04T11:53:26Z</time>
      </trkpt>
      <trkpt lat="48.22932" lon="7.23405">
        <ele>744.9</ele>
        <time>2021-08-04T11:53:28Z</time>
      </trkpt>
      <trkpt lat="48.22933" lon="7.234">
        <ele>745.3</ele>
        <time>2021-08-04T11:53:29Z</time>
      </trkpt>
      <trkpt lat="48.22934" lon="7.23393">
        <ele>745.1</ele>
        <time>2021-08-04T11:53:30Z</time>
      </trkpt>
      <trkpt lat="48.22935" lon="7.23389">
        <ele>745.4</ele>
        <time>2021-08-04T11:53:31Z</time>
      </trkpt>
      <trkpt lat="48.22937" lon="7.23385">
        <ele>745.2</ele>
        <time>2021-08-04T11:53:32Z</time>
      </trkpt>
      <trkpt lat="48.22938" lon="7.23378">
        <ele>745.5</ele>
        <time>2021-08-04T11:53:34Z</time>
      </trkpt>
      <trkpt lat="48.22939" lon="7.23376">
        <ele>745.9</ele>
        <time>2021-08-04T11:53:35Z</time>
      </trkpt>
      <trkpt lat="48.22939" lon="7.23373">
        <ele>746.2</ele>
        <time>2021-08-04T11:53:36Z</time>
      </trkpt>
      <trkpt lat="48.22936" lon="7.23369">
        <ele>747</ele>
        <time>2021-08-04T11:53:37Z</time>
      </trkpt>
      <trkpt lat="48.22935" lon="7.23367">
        <ele>747.3</ele>
        <time>2021-08-04T11:53:38Z</time>
      </trkpt>
      <trkpt lat="48.22936" lon="7.23366">
        <ele>747.7</ele>
        <time>2021-08-04T11:53:40Z</time>
      </trkpt>
      <trkpt lat="48.22936" lon="7.23365">
        <ele>748</ele>
        <time>2021-08-04T11:53:41Z</time>
      </trkpt>
      <trkpt lat="48.22936" lon="7.23364">
        <ele>747.8</ele>
        <time>2021-08-04T11:53:43Z</time>
      </trkpt>
      <trkpt lat="48.22937" lon="7.23363">
        <ele>747.9</ele>
        <time>2021-08-04T11:53:44Z</time>
      </trkpt>
      <trkpt lat="48.22938" lon="7.2336">
        <ele>748</ele>
        <time>2021-08-04T11:53:46Z</time>
      </trkpt>
      <trkpt lat="48.22939" lon="7.23349">
        <ele>748.4</ele>
        <time>2021-08-04T11:53:50Z</time>
      </trkpt>
      <trkpt lat="48.22939" lon="7.23344">
        <ele>748.5</ele>
        <time>2021-08-04T11:53:51Z</time>
      </trkpt>
      <trkpt lat="48.22939" lon="7.23339">
        <ele>748.7</ele>
        <time>2021-08-04T11:53:52Z</time>
      </trkpt>
      <trkpt lat="48.22938" lon="7.23334">
        <ele>748.8</ele>
        <time>2021-08-04T11:53:53Z</time>
      </trkpt>
      <trkpt lat="48.22936" lon="7.23328">
        <ele>748.9</ele>
        <time>2021-08-04T11:53:54Z</time>
      </trkpt>
      <trkpt lat="48.22935" lon="7.23321">
        <ele>749.1</ele>
        <time>2021-08-04T11:53:56Z</time>
      </trkpt>
      <trkpt lat="48.22934" lon="7.23315">
        <ele>749.2</ele>
        <time>2021-08-04T11:53:57Z</time>
      </trkpt>
      <trkpt lat="48.22933" lon="7.23313">
        <ele>749.3</ele>
        <time>2021-08-04T11:53:58Z</time>
      </trkpt>
      <trkpt lat="48.22932" lon="7.23308">
        <ele>749.4</ele>
        <time>2021-08-04T11:53:59Z</time>
      </trkpt>
      <trkpt lat="48.22931" lon="7.23307">
        <ele>749.4</ele>
        <time>2021-08-04T11:54:00Z</time>
      </trkpt>
      <trkpt lat="48.2293" lon="7.23304">
        <ele>749.5</ele>
        <time>2021-08-04T11:54:02Z</time>
      </trkpt>
      <trkpt lat="48.2293" lon="7.23304">
        <ele>749.5</ele>
        <time>2021-08-04T11:54:03Z</time>
      </trkpt>
      <trkpt lat="48.22929" lon="7.23301">
        <ele>749.7</ele>
        <time>2021-08-04T11:54:05Z</time>
      </trkpt>
      <trkpt lat="48.22928" lon="7.233">
        <ele>749.7</ele>
        <time>2021-08-04T11:54:06Z</time>
      </trkpt>
      <trkpt lat="48.22928" lon="7.233">
        <ele>749.7</ele>
        <time>2021-08-04T11:54:07Z</time>
      </trkpt>
      <trkpt lat="48.22928" lon="7.23299">
        <ele>749.8</ele>
        <time>2021-08-04T11:54:09Z</time>
      </trkpt>
      <trkpt lat="48.22928" lon="7.23297">
        <ele>749.8</ele>
        <time>2021-08-04T11:54:11Z</time>
      </trkpt>
      <trkpt lat="48.22928" lon="7.23295">
        <ele>749.9</ele>
        <time>2021-08-04T11:54:12Z</time>
      </trkpt>
      <trkpt lat="48.22928" lon="7.23293">
        <ele>749.9</ele>
        <time>2021-08-04T11:54:13Z</time>
      </trkpt>
      <trkpt lat="48.22929" lon="7.23286">
        <ele>750.1</ele>
        <time>2021-08-04T11:54:15Z</time>
      </trkpt>
      <trkpt lat="48.22926" lon="7.23271">
        <ele>750.6</ele>
        <time>2021-08-04T11:54:21Z</time>
      </trkpt>
      <trkpt lat="48.22923" lon="7.23266">
        <ele>750.8</ele>
        <time>2021-08-04T11:54:22Z</time>
      </trkpt>
      <trkpt lat="48.2292" lon="7.23263">
        <ele>751</ele>
        <time>2021-08-04T11:54:23Z</time>
      </trkpt>
      <trkpt lat="48.22918" lon="7.2326">
        <ele>751.2</ele>
        <time>2021-08-04T11:54:24Z</time>
      </trkpt>
      <trkpt lat="48.22913" lon="7.23255">
        <ele>751.5</ele>
        <time>2021-08-04T11:54:26Z</time>
      </trkpt>
      <trkpt lat="48.22909" lon="7.23251">
        <ele>751.7</ele>
        <time>2021-08-04T11:54:27Z</time>
      </trkpt>
      <trkpt lat="48.22904" lon="7.23244">
        <ele>752.1</ele>
        <time>2021-08-04T11:54:29Z</time>
      </trkpt>
      <trkpt lat="48.22897" lon="7.23239">
        <ele>752.6</ele>
        <time>2021-08-04T11:54:31Z</time>
      </trkpt>
      <trkpt lat="48.22894" lon="7.23238">
        <ele>752.7</ele>
        <time>2021-08-04T11:54:32Z</time>
      </trkpt>
      <trkpt lat="48.22897" lon="7.23231">
        <ele>753</ele>
        <time>2021-08-04T11:54:34Z</time>
      </trkpt>
      <trkpt lat="48.22898" lon="7.23226">
        <ele>753.2</ele>
        <time>2021-08-04T11:54:35Z</time>
      </trkpt>
      <trkpt lat="48.22898" lon="7.23225">
        <ele>753.2</ele>
        <time>2021-08-04T11:54:36Z</time>
      </trkpt>
      <trkpt lat="48.22899" lon="7.2322">
        <ele>753.4</ele>
        <time>2021-08-04T11:54:38Z</time>
      </trkpt>
      <trkpt lat="48.229" lon="7.23218">
        <ele>753.5</ele>
        <time>2021-08-04T11:54:39Z</time>
      </trkpt>
      <trkpt lat="48.22901" lon="7.23216">
        <ele>753.6</ele>
        <time>2021-08-04T11:54:40Z</time>
      </trkpt>
      <trkpt lat="48.22901" lon="7.23214">
        <ele>753.7</ele>
        <time>2021-08-04T11:54:41Z</time>
      </trkpt>
      <trkpt lat="48.22909" lon="7.23171">
        <ele>755.5</ele>
        <time>2021-08-04T11:54:53Z</time>
      </trkpt>
      <trkpt lat="48.22909" lon="7.23166">
        <ele>755.7</ele>
        <time>2021-08-04T11:54:55Z</time>
      </trkpt>
      <trkpt lat="48.22909" lon="7.23165">
        <ele>755.7</ele>
        <time>2021-08-04T11:54:56Z</time>
      </trkpt>
      <trkpt lat="48.22909" lon="7.23163">
        <ele>755.8</ele>
        <time>2021-08-04T11:54:58Z</time>
      </trkpt>
      <trkpt lat="48.22909" lon="7.23161">
        <ele>755.9</ele>
        <time>2021-08-04T11:54:59Z</time>
      </trkpt>
      <trkpt lat="48.22908" lon="7.23158">
        <ele>756</ele>
        <time>2021-08-04T11:55:00Z</time>
      </trkpt>
      <trkpt lat="48.22908" lon="7.23154">
        <ele>756.2</ele>
        <time>2021-08-04T11:55:02Z</time>
      </trkpt>
      <trkpt lat="48.22907" lon="7.23152">
        <ele>756.3</ele>
        <time>2021-08-04T11:55:03Z</time>
      </trkpt>
      <trkpt lat="48.22905" lon="7.23151">
        <ele>756.4</ele>
        <time>2021-08-04T11:55:05Z</time>
      </trkpt>
      <trkpt lat="48.22904" lon="7.23151">
        <ele>756.5</ele>
        <time>2021-08-04T11:55:06Z</time>
      </trkpt>
      <trkpt lat="48.22902" lon="7.23149">
        <ele>756.6</ele>
        <time>2021-08-04T11:55:07Z</time>
      </trkpt>
      <trkpt lat="48.22899" lon="7.23145">
        <ele>756.8</ele>
        <time>2021-08-04T11:55:09Z</time>
      </trkpt>
      <trkpt lat="48.22899" lon="7.23139">
        <ele>757.1</ele>
        <time>2021-08-04T11:55:10Z</time>
      </trkpt>
      <trkpt lat="48.22898" lon="7.23135">
        <ele>757.2</ele>
        <time>2021-08-04T11:55:11Z</time>
      </trkpt>
      <trkpt lat="48.22897" lon="7.23129">
        <ele>757.4</ele>
        <time>2021-08-04T11:55:13Z</time>
      </trkpt>
      <trkpt lat="48.229" lon="7.23124">
        <ele>757.6</ele>
        <time>2021-08-04T11:55:14Z</time>
      </trkpt>
      <trkpt lat="48.22903" lon="7.23117">
        <ele>757.8</ele>
        <time>2021-08-04T11:55:15Z</time>
      </trkpt>
      <trkpt lat="48.22905" lon="7.23112">
        <ele>757.9</ele>
        <time>2021-08-04T11:55:17Z</time>
      </trkpt>
      <trkpt lat="48.22907" lon="7.23106">
        <ele>758</ele>
        <time>2021-08-04T11:55:18Z</time>
      </trkpt>
      <trkpt lat="48.2291" lon="7.23099">
        <ele>758.2</ele>
        <time>2021-08-04T11:55:19Z</time>
      </trkpt>
      <trkpt lat="48.22912" lon="7.23093">
        <ele>758.4</ele>
        <time>2021-08-04T11:55:21Z</time>
      </trkpt>
      <trkpt lat="48.22914" lon="7.23084">
        <ele>758.6</ele>
        <time>2021-08-04T11:55:23Z</time>
      </trkpt>
      <trkpt lat="48.22915" lon="7.23079">
        <ele>758.7</ele>
        <time>2021-08-04T11:55:24Z</time>
      </trkpt>
      <trkpt lat="48.22915" lon="7.23074">
        <ele>758.8</ele>
        <time>2021-08-04T11:55:25Z</time>
      </trkpt>
      <trkpt lat="48.22914" lon="7.23073">
        <ele>758.9</ele>
        <time>2021-08-04T11:55:26Z</time>
      </trkpt>
      <trkpt lat="48.22912" lon="7.23069">
        <ele>759</ele>
        <time>2021-08-04T11:55:28Z</time>
      </trkpt>
      <trkpt lat="48.22911" lon="7.23068">
        <ele>759</ele>
        <time>2021-08-04T11:55:29Z</time>
      </trkpt>
      <trkpt lat="48.22908" lon="7.23066">
        <ele>759.1</ele>
        <time>2021-08-04T11:55:30Z</time>
      </trkpt>
      <trkpt lat="48.22906" lon="7.23065">
        <ele>759.2</ele>
        <time>2021-08-04T11:55:31Z</time>
      </trkpt>
      <trkpt lat="48.22902" lon="7.23062">
        <ele>759.3</ele>
        <time>2021-08-04T11:55:32Z</time>
      </trkpt>
      <trkpt lat="48.22901" lon="7.23061">
        <ele>759.4</ele>
        <time>2021-08-04T11:55:33Z</time>
      </trkpt>
      <trkpt lat="48.22899" lon="7.2306">
        <ele>759.5</ele>
        <time>2021-08-04T11:55:34Z</time>
      </trkpt>
      <trkpt lat="48.22897" lon="7.23058">
        <ele>759.6</ele>
        <time>2021-08-04T11:55:36Z</time>
      </trkpt>
      <trkpt lat="48.22894" lon="7.23057">
        <ele>759.7</ele>
        <time>2021-08-04T11:55:37Z</time>
      </trkpt>
      <trkpt lat="48.22891" lon="7.23054">
        <ele>759.8</ele>
        <time>2021-08-04T11:55:38Z</time>
      </trkpt>
      <trkpt lat="48.2289" lon="7.23053">
        <ele>759.8</ele>
        <time>2021-08-04T11:55:39Z</time>
      </trkpt>
      <trkpt lat="48.22886" lon="7.23051">
        <ele>760</ele>
        <time>2021-08-04T11:55:41Z</time>
      </trkpt>
      <trkpt lat="48.22883" lon="7.2305">
        <ele>760.1</ele>
        <time>2021-08-04T11:55:42Z</time>
      </trkpt>
      <trkpt lat="48.22882" lon="7.23049">
        <ele>760.1</ele>
        <time>2021-08-04T11:55:43Z</time>
      </trkpt>
      <trkpt lat="48.22878" lon="7.23048">
        <ele>760.2</ele>
        <time>2021-08-04T11:55:45Z</time>
      </trkpt>
      <trkpt lat="48.22875" lon="7.23047">
        <ele>760.3</ele>
        <time>2021-08-04T11:55:46Z</time>
      </trkpt>
      <trkpt lat="48.22873" lon="7.23046">
        <ele>760.4</ele>
        <time>2021-08-04T11:55:47Z</time>
      </trkpt>
      <trkpt lat="48.2287" lon="7.23047">
        <ele>760.4</ele>
        <time>2021-08-04T11:55:48Z</time>
      </trkpt>
      <trkpt lat="48.22865" lon="7.23048">
        <ele>760.5</ele>
        <time>2021-08-04T11:55:49Z</time>
      </trkpt>
      <trkpt lat="48.22861" lon="7.2305">
        <ele>760.6</ele>
        <time>2021-08-04T11:55:51Z</time>
      </trkpt>
      <trkpt lat="48.22858" lon="7.2305">
        <ele>760.6</ele>
        <time>2021-08-04T11:55:52Z</time>
      </trkpt>
      <trkpt lat="48.22854" lon="7.2305">
        <ele>760.6</ele>
        <time>2021-08-04T11:55:53Z</time>
      </trkpt>
      <trkpt lat="48.22848" lon="7.23051">
        <ele>760.6</ele>
        <time>2021-08-04T11:55:55Z</time>
      </trkpt>
      <trkpt lat="48.22843" lon="7.23052">
        <ele>760.6</ele>
        <time>2021-08-04T11:55:56Z</time>
      </trkpt>
      <trkpt lat="48.22836" lon="7.23052">
        <ele>760.5</ele>
        <time>2021-08-04T11:55:58Z</time>
      </trkpt>
      <trkpt lat="48.22831" lon="7.23053">
        <ele>760.4</ele>
        <time>2021-08-04T11:55:59Z</time>
      </trkpt>
      <trkpt lat="48.22825" lon="7.23055">
        <ele>760.3</ele>
        <time>2021-08-04T11:56:01Z</time>
      </trkpt>
      <trkpt lat="48.22822" lon="7.23055">
        <ele>760.2</ele>
        <time>2021-08-04T11:56:02Z</time>
      </trkpt>
      <trkpt lat="48.22816" lon="7.23059">
        <ele>760</ele>
        <time>2021-08-04T11:56:04Z</time>
      </trkpt>
      <trkpt lat="48.22812" lon="7.23064">
        <ele>759.8</ele>
        <time>2021-08-04T11:56:05Z</time>
      </trkpt>
      <trkpt lat="48.22806" lon="7.23071">
        <ele>759.6</ele>
        <time>2021-08-04T11:56:06Z</time>
      </trkpt>
      <trkpt lat="48.22801" lon="7.23076">
        <ele>759.4</ele>
        <time>2021-08-04T11:56:07Z</time>
      </trkpt>
      <trkpt lat="48.22794" lon="7.23082">
        <ele>759.1</ele>
        <time>2021-08-04T11:56:09Z</time>
      </trkpt>
      <trkpt lat="48.22786" lon="7.23091">
        <ele>758.9</ele>
        <time>2021-08-04T11:56:11Z</time>
      </trkpt>
      <trkpt lat="48.22783" lon="7.23097">
        <ele>758.8</ele>
        <time>2021-08-04T11:56:12Z</time>
      </trkpt>
      <trkpt lat="48.22774" lon="7.23111">
        <ele>758.7</ele>
        <time>2021-08-04T11:56:14Z</time>
      </trkpt>
      <trkpt lat="48.22767" lon="7.23117">
        <ele>758.6</ele>
        <time>2021-08-04T11:56:15Z</time>
      </trkpt>
      <trkpt lat="48.22755" lon="7.23126">
        <ele>758.6</ele>
        <time>2021-08-04T11:56:17Z</time>
      </trkpt>
      <trkpt lat="48.2275" lon="7.2313">
        <ele>758.7</ele>
        <time>2021-08-04T11:56:18Z</time>
      </trkpt>
      <trkpt lat="48.22741" lon="7.23137">
        <ele>758.9</ele>
        <time>2021-08-04T11:56:20Z</time>
      </trkpt>
      <trkpt lat="48.22739" lon="7.23139">
        <ele>759</ele>
        <time>2021-08-04T11:56:21Z</time>
      </trkpt>
      <trkpt lat="48.22733" lon="7.23142">
        <ele>759.2</ele>
        <time>2021-08-04T11:56:23Z</time>
      </trkpt>
      <trkpt lat="48.22729" lon="7.23145">
        <ele>759.3</ele>
        <time>2021-08-04T11:56:24Z</time>
      </trkpt>
      <trkpt lat="48.22726" lon="7.23146">
        <ele>759.4</ele>
        <time>2021-08-04T11:56:25Z</time>
      </trkpt>
      <trkpt lat="48.22724" lon="7.23148">
        <ele>759.5</ele>
        <time>2021-08-04T11:56:26Z</time>
      </trkpt>
      <trkpt lat="48.22719" lon="7.23152">
        <ele>759.6</ele>
        <time>2021-08-04T11:56:28Z</time>
      </trkpt>
      <trkpt lat="48.22716" lon="7.23153">
        <ele>759.7</ele>
        <time>2021-08-04T11:56:29Z</time>
      </trkpt>
      <trkpt lat="48.22713" lon="7.23155">
        <ele>759.8</ele>
        <time>2021-08-04T11:56:30Z</time>
      </trkpt>
      <trkpt lat="48.22708" lon="7.23159">
        <ele>760</ele>
        <time>2021-08-04T11:56:32Z</time>
      </trkpt>
      <trkpt lat="48.22706" lon="7.23159">
        <ele>760</ele>
        <time>2021-08-04T11:56:33Z</time>
      </trkpt>
      <trkpt lat="48.22705" lon="7.23159">
        <ele>760</ele>
        <time>2021-08-04T11:56:34Z</time>
      </trkpt>
      <trkpt lat="48.22705" lon="7.23156">
        <ele>760.1</ele>
        <time>2021-08-04T11:56:36Z</time>
      </trkpt>
      <trkpt lat="48.22706" lon="7.23155">
        <ele>760.1</ele>
        <time>2021-08-04T11:56:37Z</time>
      </trkpt>
      <trkpt lat="48.22706" lon="7.23155">
        <ele>760.1</ele>
        <time>2021-08-04T11:56:38Z</time>
      </trkpt>
      <trkpt lat="48.22703" lon="7.23152">
        <ele>760.2</ele>
        <time>2021-08-04T11:56:40Z</time>
      </trkpt>
      <trkpt lat="48.22699" lon="7.23149">
        <ele>747.5</ele>
        <time>2021-08-04T11:56:41Z</time>
      </trkpt>
      <trkpt lat="48.22695" lon="7.23146">
        <ele>747.5</ele>
        <time>2021-08-04T11:56:42Z</time>
      </trkpt>
      <trkpt lat="48.22691" lon="7.23142">
        <ele>747.5</ele>
        <time>2021-08-04T11:56:43Z</time>
      </trkpt>
      <trkpt lat="48.22687" lon="7.23139">
        <ele>734</ele>
        <time>2021-08-04T11:56:45Z</time>
      </trkpt>
      <trkpt lat="48.22683" lon="7.23136">
        <ele>734</ele>
        <time>2021-08-04T11:58:53Z</time>
      </trkpt>
      <trkpt lat="48.22679" lon="7.23133">
        <ele>734</ele>
        <time>2021-08-04T11:58:54Z</time>
      </trkpt>
      <trkpt lat="48.22676" lon="7.23124">
        <ele>734</ele>
        <time>2021-08-04T11:58:55Z</time>
      </trkpt>
      <trkpt lat="48.22674" lon="7.23119">
        <ele>734</ele>
        <time>2021-08-04T11:58:56Z</time>
      </trkpt>
      <trkpt lat="48.22672" lon="7.23113">
        <ele>734.1</ele>
        <time>2021-08-04T11:58:58Z</time>
      </trkpt>
      <trkpt lat="48.22668" lon="7.23102">
        <ele>734.1</ele>
        <time>2021-08-04T11:58:59Z</time>
      </trkpt>
      <trkpt lat="48.22662" lon="7.23088">
        <ele>734</ele>
        <time>2021-08-04T11:59:01Z</time>
      </trkpt>
      <trkpt lat="48.22659" lon="7.2308">
        <ele>734</ele>
        <time>2021-08-04T11:59:02Z</time>
      </trkpt>
      <trkpt lat="48.22656" lon="7.23073">
        <ele>734</ele>
        <time>2021-08-04T11:59:03Z</time>
      </trkpt>
      <trkpt lat="48.22654" lon="7.23067">
        <ele>734</ele>
        <time>2021-08-04T11:59:04Z</time>
      </trkpt>
      <trkpt lat="48.22652" lon="7.23062">
        <ele>734</ele>
        <time>2021-08-04T11:59:05Z</time>
      </trkpt>
      <trkpt lat="48.2265" lon="7.23056">
        <ele>734</ele>
        <time>2021-08-04T11:59:06Z</time>
      </trkpt>
      <trkpt lat="48.22648" lon="7.23048">
        <ele>734</ele>
        <time>2021-08-04T11:59:08Z</time>
      </trkpt>
      <trkpt lat="48.2265" lon="7.23044">
        <ele>734</ele>
        <time>2021-08-04T11:59:09Z</time>
      </trkpt>
      <trkpt lat="48.2265" lon="7.23041">
        <ele>734</ele>
        <time>2021-08-04T11:59:10Z</time>
      </trkpt>
      <trkpt lat="48.22651" lon="7.23036">
        <ele>734</ele>
        <time>2021-08-04T11:59:11Z</time>
      </trkpt>
      <trkpt lat="48.22652" lon="7.23032">
        <ele>734</ele>
        <time>2021-08-04T11:59:12Z</time>
      </trkpt>
      <trkpt lat="48.22652" lon="7.23026">
        <ele>734.1</ele>
        <time>2021-08-04T11:59:14Z</time>
      </trkpt>
      <trkpt lat="48.22651" lon="7.23022">
        <ele>734.1</ele>
        <time>2021-08-04T11:59:15Z</time>
      </trkpt>
      <trkpt lat="48.2265" lon="7.23021">
        <ele>734.1</ele>
        <time>2021-08-04T11:59:16Z</time>
      </trkpt>
      <trkpt lat="48.2265" lon="7.23016">
        <ele>734.1</ele>
        <time>2021-08-04T11:59:17Z</time>
      </trkpt>
      <trkpt lat="48.22649" lon="7.23013">
        <ele>734.1</ele>
        <time>2021-08-04T11:59:18Z</time>
      </trkpt>
      <trkpt lat="48.2265" lon="7.23009">
        <ele>734.1</ele>
        <time>2021-08-04T11:59:19Z</time>
      </trkpt>
      <trkpt lat="48.22649" lon="7.23005">
        <ele>734.2</ele>
        <time>2021-08-04T11:59:20Z</time>
      </trkpt>
      <trkpt lat="48.22649" lon="7.23001">
        <ele>734.2</ele>
        <time>2021-08-04T11:59:22Z</time>
      </trkpt>
      <trkpt lat="48.22648" lon="7.22995">
        <ele>734.2</ele>
        <time>2021-08-04T11:59:23Z</time>
      </trkpt>
      <trkpt lat="48.22647" lon="7.22989">
        <ele>734.2</ele>
        <time>2021-08-04T11:59:24Z</time>
      </trkpt>
      <trkpt lat="48.22647" lon="7.22982">
        <ele>734.2</ele>
        <time>2021-08-04T11:59:25Z</time>
      </trkpt>
      <trkpt lat="48.22646" lon="7.22977">
        <ele>734.2</ele>
        <time>2021-08-04T11:59:26Z</time>
      </trkpt>
      <trkpt lat="48.22646" lon="7.22971">
        <ele>734.2</ele>
        <time>2021-08-04T11:59:27Z</time>
      </trkpt>
      <trkpt lat="48.22646" lon="7.22966">
        <ele>734.3</ele>
        <time>2021-08-04T11:59:29Z</time>
      </trkpt>
      <trkpt lat="48.22646" lon="7.22959">
        <ele>734.3</ele>
        <time>2021-08-04T11:59:30Z</time>
      </trkpt>
      <trkpt lat="48.22647" lon="7.22951">
        <ele>734.3</ele>
        <time>2021-08-04T11:59:31Z</time>
      </trkpt>
      <trkpt lat="48.22647" lon="7.22946">
        <ele>734.3</ele>
        <time>2021-08-04T11:59:32Z</time>
      </trkpt>
      <trkpt lat="48.22646" lon="7.22944">
        <ele>734.3</ele>
        <time>2021-08-04T11:59:33Z</time>
      </trkpt>
      <trkpt lat="48.22646" lon="7.22942">
        <ele>734.3</ele>
        <time>2021-08-04T11:59:34Z</time>
      </trkpt>
      <trkpt lat="48.22646" lon="7.22936">
        <ele>734.3</ele>
        <time>2021-08-04T11:59:36Z</time>
      </trkpt>
      <trkpt lat="48.22647" lon="7.2293">
        <ele>734.3</ele>
        <time>2021-08-04T11:59:37Z</time>
      </trkpt>
      <trkpt lat="48.22652" lon="7.22917">
        <ele>734.5</ele>
        <time>2021-08-04T11:59:39Z</time>
      </trkpt>
      <trkpt lat="48.22654" lon="7.22911">
        <ele>734.5</ele>
        <time>2021-08-04T11:59:40Z</time>
      </trkpt>
      <trkpt lat="48.22659" lon="7.22899">
        <ele>734.7</ele>
        <time>2021-08-04T11:59:42Z</time>
      </trkpt>
      <trkpt lat="48.22664" lon="7.2289">
        <ele>734.8</ele>
        <time>2021-08-04T11:59:43Z</time>
      </trkpt>
      <trkpt lat="48.22669" lon="7.22882">
        <ele>734.9</ele>
        <time>2021-08-04T11:59:45Z</time>
      </trkpt>
      <trkpt lat="48.22673" lon="7.2287">
        <ele>735</ele>
        <time>2021-08-04T11:59:47Z</time>
      </trkpt>
      <trkpt lat="48.22675" lon="7.22859">
        <ele>735.2</ele>
        <time>2021-08-04T11:59:49Z</time>
      </trkpt>
      <trkpt lat="48.22677" lon="7.2285">
        <ele>735.3</ele>
        <time>2021-08-04T11:59:50Z</time>
      </trkpt>
      <trkpt lat="48.22678" lon="7.22845">
        <ele>735.3</ele>
        <time>2021-08-04T11:59:51Z</time>
      </trkpt>
      <trkpt lat="48.22678" lon="7.2284">
        <ele>735.4</ele>
        <time>2021-08-04T11:59:52Z</time>
      </trkpt>
      <trkpt lat="48.22678" lon="7.22834">
        <ele>735.4</ele>
        <time>2021-08-04T11:59:53Z</time>
      </trkpt>
      <trkpt lat="48.22677" lon="7.22824">
        <ele>735.5</ele>
        <time>2021-08-04T11:59:55Z</time>
      </trkpt>
      <trkpt lat="48.22676" lon="7.22817">
        <ele>735.6</ele>
        <time>2021-08-04T11:59:56Z</time>
      </trkpt>
      <trkpt lat="48.22676" lon="7.22812">
        <ele>735.6</ele>
        <time>2021-08-04T11:59:57Z</time>
      </trkpt>
      <trkpt lat="48.22674" lon="7.22805">
        <ele>735.7</ele>
        <time>2021-08-04T11:59:59Z</time>
      </trkpt>
      <trkpt lat="48.22671" lon="7.22799">
        <ele>735.8</ele>
        <time>2021-08-04T12:00:00Z</time>
      </trkpt>
      <trkpt lat="48.22669" lon="7.22796">
        <ele>735.8</ele>
        <time>2021-08-04T12:00:01Z</time>
      </trkpt>
      <trkpt lat="48.22661" lon="7.22797">
        <ele>735.9</ele>
        <time>2021-08-04T12:00:03Z</time>
      </trkpt>
      <trkpt lat="48.22656" lon="7.22797">
        <ele>735.9</ele>
        <time>2021-08-04T12:00:04Z</time>
      </trkpt>
      <trkpt lat="48.22654" lon="7.22797">
        <ele>735.9</ele>
        <time>2021-08-04T12:00:06Z</time>
      </trkpt>
      <trkpt lat="48.22654" lon="7.22796">
        <ele>735.9</ele>
        <time>2021-08-04T12:00:07Z</time>
      </trkpt>
      <trkpt lat="48.22653" lon="7.22796">
        <ele>735.9</ele>
        <time>2021-08-04T12:00:08Z</time>
      </trkpt>
      <trkpt lat="48.22652" lon="7.22797">
        <ele>735.9</ele>
        <time>2021-08-04T12:00:09Z</time>
      </trkpt>
      <trkpt lat="48.22651" lon="7.22798">
        <ele>736</ele>
        <time>2021-08-04T12:00:10Z</time>
      </trkpt>
      <trkpt lat="48.22634" lon="7.22824">
        <ele>736.2</ele>
        <time>2021-08-04T12:00:14Z</time>
      </trkpt>
      <trkpt lat="48.22631" lon="7.22829">
        <ele>736.2</ele>
        <time>2021-08-04T12:00:16Z</time>
      </trkpt>
      <trkpt lat="48.2263" lon="7.22835">
        <ele>736.3</ele>
        <time>2021-08-04T12:00:17Z</time>
      </trkpt>
      <trkpt lat="48.22629" lon="7.22839">
        <ele>736.3</ele>
        <time>2021-08-04T12:00:18Z</time>
      </trkpt>
      <trkpt lat="48.22628" lon="7.22841">
        <ele>736.3</ele>
        <time>2021-08-04T12:00:19Z</time>
      </trkpt>
      <trkpt lat="48.22629" lon="7.22843">
        <ele>736.3</ele>
        <time>2021-08-04T12:00:20Z</time>
      </trkpt>
      <trkpt lat="48.22628" lon="7.22844">
        <ele>736.4</ele>
        <time>2021-08-04T12:00:21Z</time>
      </trkpt>
      <trkpt lat="48.22628" lon="7.22845">
        <ele>736.4</ele>
        <time>2021-08-04T12:00:22Z</time>
      </trkpt>
      <trkpt lat="48.22628" lon="7.22846">
        <ele>736.4</ele>
        <time>2021-08-04T12:00:23Z</time>
      </trkpt>
      <trkpt lat="48.22628" lon="7.22847">
        <ele>736.4</ele>
        <time>2021-08-04T12:00:24Z</time>
      </trkpt>
      <trkpt lat="48.22627" lon="7.22851">
        <ele>736.5</ele>
        <time>2021-08-04T12:00:26Z</time>
      </trkpt>
      <trkpt lat="48.22624" lon="7.22857">
        <ele>736.5</ele>
        <time>2021-08-04T12:00:28Z</time>
      </trkpt>
      <trkpt lat="48.22623" lon="7.22859">
        <ele>736.6</ele>
        <time>2021-08-04T12:00:29Z</time>
      </trkpt>
      <trkpt lat="48.22621" lon="7.22863">
        <ele>736.6</ele>
        <time>2021-08-04T12:00:30Z</time>
      </trkpt>
      <trkpt lat="48.22619" lon="7.22873">
        <ele>736.8</ele>
        <time>2021-08-04T12:00:32Z</time>
      </trkpt>
      <trkpt lat="48.22617" lon="7.22882">
        <ele>736.9</ele>
        <time>2021-08-04T12:00:33Z</time>
      </trkpt>
      <trkpt lat="48.22615" lon="7.22888">
        <ele>737</ele>
        <time>2021-08-04T12:00:34Z</time>
      </trkpt>
      <trkpt lat="48.22612" lon="7.22903">
        <ele>737.4</ele>
        <time>2021-08-04T12:00:36Z</time>
      </trkpt>
      <trkpt lat="48.22612" lon="7.22907">
        <ele>737.5</ele>
        <time>2021-08-04T12:00:37Z</time>
      </trkpt>
      <trkpt lat="48.2261" lon="7.22917">
        <ele>737.8</ele>
        <time>2021-08-04T12:00:39Z</time>
      </trkpt>
      <trkpt lat="48.2261" lon="7.22922">
        <ele>737.9</ele>
        <time>2021-08-04T12:00:41Z</time>
      </trkpt>
      <trkpt lat="48.2261" lon="7.22924">
        <ele>738</ele>
        <time>2021-08-04T12:00:42Z</time>
      </trkpt>
      <trkpt lat="48.22612" lon="7.22926">
        <ele>738.1</ele>
        <time>2021-08-04T12:00:44Z</time>
      </trkpt>
      <trkpt lat="48.22608" lon="7.22949">
        <ele>738.9</ele>
        <time>2021-08-04T12:00:47Z</time>
      </trkpt>
      <trkpt lat="48.22605" lon="7.22959">
        <ele>739.3</ele>
        <time>2021-08-04T12:00:48Z</time>
      </trkpt>
      <trkpt lat="48.22604" lon="7.2297">
        <ele>739.7</ele>
        <time>2021-08-04T12:00:50Z</time>
      </trkpt>
      <trkpt lat="48.22604" lon="7.22976">
        <ele>740</ele>
        <time>2021-08-04T12:00:51Z</time>
      </trkpt>
      <trkpt lat="48.22605" lon="7.22981">
        <ele>740.2</ele>
        <time>2021-08-04T12:00:52Z</time>
      </trkpt>
      <trkpt lat="48.22604" lon="7.22988">
        <ele>740.5</ele>
        <time>2021-08-04T12:00:54Z</time>
      </trkpt>
      <trkpt lat="48.22604" lon="7.22998">
        <ele>741</ele>
        <time>2021-08-04T12:00:56Z</time>
      </trkpt>
      <trkpt lat="48.22604" lon="7.23002">
        <ele>741.2</ele>
        <time>2021-08-04T12:00:57Z</time>
      </trkpt>
      <trkpt lat="48.22604" lon="7.23006">
        <ele>741.4</ele>
        <time>2021-08-04T12:00:58Z</time>
      </trkpt>
      <trkpt lat="48.22604" lon="7.23013">
        <ele>741.7</ele>
        <time>2021-08-04T12:01:00Z</time>
      </trkpt>
      <trkpt lat="48.22605" lon="7.23019">
        <ele>741.9</ele>
        <time>2021-08-04T12:01:01Z</time>
      </trkpt>
      <trkpt lat="48.22605" lon="7.23021">
        <ele>742</ele>
        <time>2021-08-04T12:01:02Z</time>
      </trkpt>
      <trkpt lat="48.22605" lon="7.23024">
        <ele>742.2</ele>
        <time>2021-08-04T12:01:04Z</time>
      </trkpt>
      <trkpt lat="48.22604" lon="7.23025">
        <ele>742.3</ele>
        <time>2021-08-04T12:01:06Z</time>
      </trkpt>
      <trkpt lat="48.22603" lon="7.23026">
        <ele>742.4</ele>
        <time>2021-08-04T12:01:08Z</time>
      </trkpt>
      <trkpt lat="48.22603" lon="7.23029">
        <ele>742.5</ele>
        <time>2021-08-04T12:01:10Z</time>
      </trkpt>
      <trkpt lat="48.22603" lon="7.2303">
        <ele>742.6</ele>
        <time>2021-08-04T12:01:11Z</time>
      </trkpt>
      <trkpt lat="48.22603" lon="7.2303">
        <ele>742.6</ele>
        <time>2021-08-04T12:01:12Z</time>
      </trkpt>
      <trkpt lat="48.22602" lon="7.23031">
        <ele>742.6</ele>
        <time>2021-08-04T12:01:14Z</time>
      </trkpt>
      <trkpt lat="48.22602" lon="7.23032">
        <ele>742.7</ele>
        <time>2021-08-04T12:01:16Z</time>
      </trkpt>
      <trkpt lat="48.22602" lon="7.23033">
        <ele>742.7</ele>
        <time>2021-08-04T12:01:17Z</time>
      </trkpt>
      <trkpt lat="48.22602" lon="7.23033">
        <ele>742.8</ele>
        <time>2021-08-04T12:01:18Z</time>
      </trkpt>
      <trkpt lat="48.22601" lon="7.23034">
        <ele>742.8</ele>
        <time>2021-08-04T12:01:19Z</time>
      </trkpt>
      <trkpt lat="48.22598" lon="7.23041">
        <ele>743.2</ele>
        <time>2021-08-04T12:01:21Z</time>
      </trkpt>
      <trkpt lat="48.22583" lon="7.23121">
        <ele>748.9</ele>
        <time>2021-08-04T12:02:21Z</time>
      </trkpt>
      <trkpt lat="48.2258" lon="7.23123">
        <ele>749</ele>
        <time>2021-08-04T12:02:22Z</time>
      </trkpt>
      <trkpt lat="48.22578" lon="7.23124">
        <ele>749.1</ele>
        <time>2021-08-04T12:02:23Z</time>
      </trkpt>
      <trkpt lat="48.22575" lon="7.23125">
        <ele>749.3</ele>
        <time>2021-08-04T12:02:25Z</time>
      </trkpt>
      <trkpt lat="48.22573" lon="7.23126">
        <ele>749.3</ele>
        <time>2021-08-04T12:02:26Z</time>
      </trkpt>
      <trkpt lat="48.22573" lon="7.23126">
        <ele>749.3</ele>
        <time>2021-08-04T12:02:27Z</time>
      </trkpt>
      <trkpt lat="48.22572" lon="7.23127">
        <ele>749.3</ele>
        <time>2021-08-04T12:02:28Z</time>
      </trkpt>
      <trkpt lat="48.22572" lon="7.23127">
        <ele>749.4</ele>
        <time>2021-08-04T12:02:29Z</time>
      </trkpt>
      <trkpt lat="48.22571" lon="7.23128">
        <ele>749.4</ele>
        <time>2021-08-04T12:02:30Z</time>
      </trkpt>
      <trkpt lat="48.2257" lon="7.23128">
        <ele>749.4</ele>
        <time>2021-08-04T12:02:31Z</time>
      </trkpt>
      <trkpt lat="48.22569" lon="7.23128">
        <ele>749.5</ele>
        <time>2021-08-04T12:02:33Z</time>
      </trkpt>
      <trkpt lat="48.22569" lon="7.23128">
        <ele>749.5</ele>
        <time>2021-08-04T12:02:35Z</time>
      </trkpt>
      <trkpt lat="48.22553" lon="7.23143">
        <ele>750.3</ele>
        <time>2021-08-04T12:03:25Z</time>
      </trkpt>
      <trkpt lat="48.22549" lon="7.23143">
        <ele>750.6</ele>
        <time>2021-08-04T12:03:27Z</time>
      </trkpt>
      <trkpt lat="48.22544" lon="7.23142">
        <ele>750.9</ele>
        <time>2021-08-04T12:03:28Z</time>
      </trkpt>
      <trkpt lat="48.22539" lon="7.23139">
        <ele>751.1</ele>
        <time>2021-08-04T12:03:30Z</time>
      </trkpt>
      <trkpt lat="48.22537" lon="7.23137">
        <ele>751.3</ele>
        <time>2021-08-04T12:03:31Z</time>
      </trkpt>
      <trkpt lat="48.22534" lon="7.23134">
        <ele>751.4</ele>
        <time>2021-08-04T12:03:32Z</time>
      </trkpt>
      <trkpt lat="48.22531" lon="7.23132">
        <ele>751.6</ele>
        <time>2021-08-04T12:03:34Z</time>
      </trkpt>
      <trkpt lat="48.22528" lon="7.2313">
        <ele>751.8</ele>
        <time>2021-08-04T12:03:35Z</time>
      </trkpt>
      <trkpt lat="48.22525" lon="7.23129">
        <ele>752</ele>
        <time>2021-08-04T12:03:36Z</time>
      </trkpt>
      <trkpt lat="48.22522" lon="7.23128">
        <ele>752.1</ele>
        <time>2021-08-04T12:03:37Z</time>
      </trkpt>
      <trkpt lat="48.2252" lon="7.23128">
        <ele>752.2</ele>
        <time>2021-08-04T12:03:38Z</time>
      </trkpt>
      <trkpt lat="48.22518" lon="7.23127">
        <ele>752.3</ele>
        <time>2021-08-04T12:03:39Z</time>
      </trkpt>
      <trkpt lat="48.22517" lon="7.23126">
        <ele>752.4</ele>
        <time>2021-08-04T12:03:40Z</time>
      </trkpt>
      <trkpt lat="48.22515" lon="7.23123">
        <ele>752.5</ele>
        <time>2021-08-04T12:03:42Z</time>
      </trkpt>
      <trkpt lat="48.22514" lon="7.23121">
        <ele>752.6</ele>
        <time>2021-08-04T12:03:43Z</time>
      </trkpt>
      <trkpt lat="48.22513" lon="7.23119">
        <ele>752.7</ele>
        <time>2021-08-04T12:03:44Z</time>
      </trkpt>
      <trkpt lat="48.22514" lon="7.23119">
        <ele>752.7</ele>
        <time>2021-08-04T12:03:45Z</time>
      </trkpt>
      <trkpt lat="48.22513" lon="7.23118">
        <ele>752.8</ele>
        <time>2021-08-04T12:03:46Z</time>
      </trkpt>
      <trkpt lat="48.22513" lon="7.23116">
        <ele>752.9</ele>
        <time>2021-08-04T12:03:47Z</time>
      </trkpt>
      <trkpt lat="48.22512" lon="7.23113">
        <ele>753</ele>
        <time>2021-08-04T12:03:49Z</time>
      </trkpt>
      <trkpt lat="48.22511" lon="7.23111">
        <ele>753.1</ele>
        <time>2021-08-04T12:03:50Z</time>
      </trkpt>
      <trkpt lat="48.22511" lon="7.23109">
        <ele>753.1</ele>
        <time>2021-08-04T12:03:51Z</time>
      </trkpt>
      <trkpt lat="48.2251" lon="7.23107">
        <ele>753.3</ele>
        <time>2021-08-04T12:03:52Z</time>
      </trkpt>
      <trkpt lat="48.2251" lon="7.23105">
        <ele>753.3</ele>
        <time>2021-08-04T12:03:53Z</time>
      </trkpt>
      <trkpt lat="48.2251" lon="7.23104">
        <ele>753.4</ele>
        <time>2021-08-04T12:03:54Z</time>
      </trkpt>
      <trkpt lat="48.22509" lon="7.23102">
        <ele>753.5</ele>
        <time>2021-08-04T12:03:55Z</time>
      </trkpt>
      <trkpt lat="48.22509" lon="7.23102">
        <ele>753.5</ele>
        <time>2021-08-04T12:03:56Z</time>
      </trkpt>
      <trkpt lat="48.22509" lon="7.23103">
        <ele>753.6</ele>
        <time>2021-08-04T12:03:57Z</time>
      </trkpt>
      <trkpt lat="48.22509" lon="7.23104">
        <ele>753.6</ele>
        <time>2021-08-04T12:03:58Z</time>
      </trkpt>
      <trkpt lat="48.22509" lon="7.23102">
        <ele>753.7</ele>
        <time>2021-08-04T12:03:59Z</time>
      </trkpt>
      <trkpt lat="48.22508" lon="7.23097">
        <ele>753.9</ele>
        <time>2021-08-04T12:04:01Z</time>
      </trkpt>
      <trkpt lat="48.22507" lon="7.23094">
        <ele>754</ele>
        <time>2021-08-04T12:04:02Z</time>
      </trkpt>
      <trkpt lat="48.22507" lon="7.23089">
        <ele>754.2</ele>
        <time>2021-08-04T12:04:04Z</time>
      </trkpt>
      <trkpt lat="48.22507" lon="7.23084">
        <ele>754.4</ele>
        <time>2021-08-04T12:04:05Z</time>
      </trkpt>
      <trkpt lat="48.22506" lon="7.23078">
        <ele>754.7</ele>
        <time>2021-08-04T12:04:07Z</time>
      </trkpt>
      <trkpt lat="48.22505" lon="7.23076">
        <ele>754.8</ele>
        <time>2021-08-04T12:04:08Z</time>
      </trkpt>
      <trkpt lat="48.22504" lon="7.23074">
        <ele>754.9</ele>
        <time>2021-08-04T12:04:09Z</time>
      </trkpt>
      <trkpt lat="48.22502" lon="7.23072">
        <ele>755.1</ele>
        <time>2021-08-04T12:04:10Z</time>
      </trkpt>
      <trkpt lat="48.225" lon="7.23069">
        <ele>755.3</ele>
        <time>2021-08-04T12:04:12Z</time>
      </trkpt>
      <trkpt lat="48.22499" lon="7.23067">
        <ele>755.4</ele>
        <time>2021-08-04T12:04:13Z</time>
      </trkpt>
      <trkpt lat="48.22497" lon="7.23066">
        <ele>755.5</ele>
        <time>2021-08-04T12:04:14Z</time>
      </trkpt>
      <trkpt lat="48.22496" lon="7.23065">
        <ele>755.6</ele>
        <time>2021-08-04T12:04:15Z</time>
      </trkpt>
      <trkpt lat="48.22496" lon="7.23065">
        <ele>755.6</ele>
        <time>2021-08-04T12:04:16Z</time>
      </trkpt>
      <trkpt lat="48.22496" lon="7.23065">
        <ele>755.7</ele>
        <time>2021-08-04T12:04:17Z</time>
      </trkpt>
      <trkpt lat="48.22496" lon="7.23065">
        <ele>755.7</ele>
        <time>2021-08-04T12:04:18Z</time>
      </trkpt>
      <trkpt lat="48.22495" lon="7.23064">
        <ele>755.8</ele>
        <time>2021-08-04T12:04:20Z</time>
      </trkpt>
      <trkpt lat="48.22495" lon="7.23063">
        <ele>755.8</ele>
        <time>2021-08-04T12:04:21Z</time>
      </trkpt>
      <trkpt lat="48.22492" lon="7.2306">
        <ele>756</ele>
        <time>2021-08-04T12:04:23Z</time>
      </trkpt>
      <trkpt lat="48.22491" lon="7.23057">
        <ele>756.2</ele>
        <time>2021-08-04T12:04:24Z</time>
      </trkpt>
      <trkpt lat="48.22491" lon="7.23055">
        <ele>756.3</ele>
        <time>2021-08-04T12:04:25Z</time>
      </trkpt>
      <trkpt lat="48.22492" lon="7.23054">
        <ele>756.3</ele>
        <time>2021-08-04T12:04:26Z</time>
      </trkpt>
      <trkpt lat="48.22493" lon="7.23052">
        <ele>756.4</ele>
        <time>2021-08-04T12:04:28Z</time>
      </trkpt>
      <trkpt lat="48.22493" lon="7.23052">
        <ele>756.5</ele>
        <time>2021-08-04T12:04:29Z</time>
      </trkpt>
      <trkpt lat="48.22493" lon="7.23051">
        <ele>756.5</ele>
        <time>2021-08-04T12:04:30Z</time>
      </trkpt>
      <trkpt lat="48.22493" lon="7.2305">
        <ele>756.5</ele>
        <time>2021-08-04T12:04:31Z</time>
      </trkpt>
      <trkpt lat="48.22493" lon="7.2305">
        <ele>756.6</ele>
        <time>2021-08-04T12:04:32Z</time>
      </trkpt>
      <trkpt lat="48.22494" lon="7.23049">
        <ele>756.6</ele>
        <time>2021-08-04T12:04:34Z</time>
      </trkpt>
      <trkpt lat="48.22466" lon="7.23037">
        <ele>758.3</ele>
        <time>2021-08-04T12:04:53Z</time>
      </trkpt>
      <trkpt lat="48.22463" lon="7.23037">
        <ele>758.5</ele>
        <time>2021-08-04T12:04:54Z</time>
      </trkpt>
      <trkpt lat="48.22456" lon="7.23037">
        <ele>758.8</ele>
        <time>2021-08-04T12:04:56Z</time>
      </trkpt>
      <trkpt lat="48.22451" lon="7.23037">
        <ele>759.1</ele>
        <time>2021-08-04T12:04:58Z</time>
      </trkpt>
      <trkpt lat="48.22448" lon="7.23036">
        <ele>759.2</ele>
        <time>2021-08-04T12:04:59Z</time>
      </trkpt>
      <trkpt lat="48.22444" lon="7.23036">
        <ele>759.5</ele>
        <time>2021-08-04T12:05:01Z</time>
      </trkpt>
      <trkpt lat="48.22441" lon="7.23035">
        <ele>759.6</ele>
        <time>2021-08-04T12:05:02Z</time>
      </trkpt>
      <trkpt lat="48.22438" lon="7.23033">
        <ele>759.8</ele>
        <time>2021-08-04T12:05:04Z</time>
      </trkpt>
      <trkpt lat="48.22436" lon="7.23032">
        <ele>759.9</ele>
        <time>2021-08-04T12:05:05Z</time>
      </trkpt>
      <trkpt lat="48.22435" lon="7.23032">
        <ele>760</ele>
        <time>2021-08-04T12:05:06Z</time>
      </trkpt>
      <trkpt lat="48.22433" lon="7.23032">
        <ele>760.1</ele>
        <time>2021-08-04T12:05:07Z</time>
      </trkpt>
      <trkpt lat="48.22431" lon="7.23033">
        <ele>760.2</ele>
        <time>2021-08-04T12:05:08Z</time>
      </trkpt>
      <trkpt lat="48.22428" lon="7.23035">
        <ele>760.3</ele>
        <time>2021-08-04T12:05:10Z</time>
      </trkpt>
      <trkpt lat="48.22428" lon="7.23035">
        <ele>760.4</ele>
        <time>2021-08-04T12:05:11Z</time>
      </trkpt>
      <trkpt lat="48.22427" lon="7.23037">
        <ele>760.4</ele>
        <time>2021-08-04T12:05:13Z</time>
      </trkpt>
      <trkpt lat="48.22427" lon="7.23037">
        <ele>760.4</ele>
        <time>2021-08-04T12:05:14Z</time>
      </trkpt>
      <trkpt lat="48.22427" lon="7.23038">
        <ele>760.5</ele>
        <time>2021-08-04T12:05:15Z</time>
      </trkpt>
      <trkpt lat="48.22427" lon="7.23038">
        <ele>760.5</ele>
        <time>2021-08-04T12:05:16Z</time>
      </trkpt>
      <trkpt lat="48.22427" lon="7.23039">
        <ele>760.5</ele>
        <time>2021-08-04T12:05:17Z</time>
      </trkpt>
      <trkpt lat="48.22426" lon="7.23039">
        <ele>760.5</ele>
        <time>2021-08-04T12:05:18Z</time>
      </trkpt>
      <trkpt lat="48.22425" lon="7.2304">
        <ele>760.6</ele>
        <time>2021-08-04T12:05:19Z</time>
      </trkpt>
      <trkpt lat="48.22424" lon="7.2304">
        <ele>760.6</ele>
        <time>2021-08-04T12:05:20Z</time>
      </trkpt>
      <trkpt lat="48.22423" lon="7.23041">
        <ele>760.7</ele>
        <time>2021-08-04T12:05:21Z</time>
      </trkpt>
      <trkpt lat="48.22412" lon="7.23041">
        <ele>761.3</ele>
        <time>2021-08-04T12:05:27Z</time>
      </trkpt>
      <trkpt lat="48.2241" lon="7.2304">
        <ele>761.4</ele>
        <time>2021-08-04T12:05:28Z</time>
      </trkpt>
      <trkpt lat="48.22407" lon="7.23039">
        <ele>761.6</ele>
        <time>2021-08-04T12:05:29Z</time>
      </trkpt>
      <trkpt lat="48.22404" lon="7.23039">
        <ele>761.8</ele>
        <time>2021-08-04T12:05:30Z</time>
      </trkpt>
      <trkpt lat="48.22403" lon="7.23039">
        <ele>761.8</ele>
        <time>2021-08-04T12:05:32Z</time>
      </trkpt>
      <trkpt lat="48.22402" lon="7.23038">
        <ele>761.9</ele>
        <time>2021-08-04T12:05:33Z</time>
      </trkpt>
      <trkpt lat="48.22401" lon="7.23038">
        <ele>762</ele>
        <time>2021-08-04T12:05:34Z</time>
      </trkpt>
      <trkpt lat="48.224" lon="7.23038">
        <ele>762</ele>
        <time>2021-08-04T12:05:35Z</time>
      </trkpt>
      <trkpt lat="48.22398" lon="7.23037">
        <ele>762.1</ele>
        <time>2021-08-04T12:05:36Z</time>
      </trkpt>
      <trkpt lat="48.22397" lon="7.23037">
        <ele>762.2</ele>
        <time>2021-08-04T12:05:37Z</time>
      </trkpt>
      <trkpt lat="48.22396" lon="7.23036">
        <ele>762.2</ele>
        <time>2021-08-04T12:05:38Z</time>
      </trkpt>
      <trkpt lat="48.22394" lon="7.23034">
        <ele>762.4</ele>
        <time>2021-08-04T12:05:40Z</time>
      </trkpt>
      <trkpt lat="48.22391" lon="7.2303">
        <ele>762.6</ele>
        <time>2021-08-04T12:05:43Z</time>
      </trkpt>
      <trkpt lat="48.22389" lon="7.23027">
        <ele>762.8</ele>
        <time>2021-08-04T12:05:44Z</time>
      </trkpt>
      <trkpt lat="48.22387" lon="7.23023">
        <ele>763</ele>
        <time>2021-08-04T12:05:45Z</time>
      </trkpt>
      <trkpt lat="48.22386" lon="7.23022">
        <ele>763.1</ele>
        <time>2021-08-04T12:05:46Z</time>
      </trkpt>
      <trkpt lat="48.22383" lon="7.23018">
        <ele>763.3</ele>
        <time>2021-08-04T12:05:48Z</time>
      </trkpt>
      <trkpt lat="48.22383" lon="7.23017">
        <ele>763.4</ele>
        <time>2021-08-04T12:05:49Z</time>
      </trkpt>
      <trkpt lat="48.22382" lon="7.23017">
        <ele>763.4</ele>
        <time>2021-08-04T12:05:51Z</time>
      </trkpt>
      <trkpt lat="48.22382" lon="7.23016">
        <ele>763.4</ele>
        <time>2021-08-04T12:05:52Z</time>
      </trkpt>
      <trkpt lat="48.22381" lon="7.23016">
        <ele>763.5</ele>
        <time>2021-08-04T12:05:53Z</time>
      </trkpt>
      <trkpt lat="48.2238" lon="7.23014">
        <ele>763.6</ele>
        <time>2021-08-04T12:05:55Z</time>
      </trkpt>
      <trkpt lat="48.22368" lon="7.23007">
        <ele>764.4</ele>
        <time>2021-08-04T12:06:02Z</time>
      </trkpt>
      <trkpt lat="48.22365" lon="7.23006">
        <ele>764.5</ele>
        <time>2021-08-04T12:06:03Z</time>
      </trkpt>
      <trkpt lat="48.22361" lon="7.23007">
        <ele>764.8</ele>
        <time>2021-08-04T12:06:04Z</time>
      </trkpt>
      <trkpt lat="48.22357" lon="7.23008">
        <ele>765.1</ele>
        <time>2021-08-04T12:06:05Z</time>
      </trkpt>
      <trkpt lat="48.22353" lon="7.23009">
        <ele>765.3</ele>
        <time>2021-08-04T12:06:06Z</time>
      </trkpt>
      <trkpt lat="48.2235" lon="7.2301">
        <ele>765.5</ele>
        <time>2021-08-04T12:06:07Z</time>
      </trkpt>
      <trkpt lat="48.22347" lon="7.2301">
        <ele>765.7</ele>
        <time>2021-08-04T12:06:08Z</time>
      </trkpt>
      <trkpt lat="48.22344" lon="7.23011">
        <ele>765.9</ele>
        <time>2021-08-04T12:06:09Z</time>
      </trkpt>
      <trkpt lat="48.22341" lon="7.23011">
        <ele>766.2</ele>
        <time>2021-08-04T12:06:10Z</time>
      </trkpt>
      <trkpt lat="48.22339" lon="7.23011">
        <ele>766.3</ele>
        <time>2021-08-04T12:06:11Z</time>
      </trkpt>
      <trkpt lat="48.22336" lon="7.23011">
        <ele>766.5</ele>
        <time>2021-08-04T12:06:13Z</time>
      </trkpt>
      <trkpt lat="48.22335" lon="7.23012">
        <ele>766.6</ele>
        <time>2021-08-04T12:06:15Z</time>
      </trkpt>
      <trkpt lat="48.22335" lon="7.23012">
        <ele>766.6</ele>
        <time>2021-08-04T12:06:16Z</time>
      </trkpt>
      <trkpt lat="48.22336" lon="7.23011">
        <ele>766.7</ele>
        <time>2021-08-04T12:06:17Z</time>
      </trkpt>
      <trkpt lat="48.22336" lon="7.2301">
        <ele>766.7</ele>
        <time>2021-08-04T12:06:18Z</time>
      </trkpt>
      <trkpt lat="48.22336" lon="7.2301">
        <ele>766.8</ele>
        <time>2021-08-04T12:06:19Z</time>
      </trkpt>
      <trkpt lat="48.22335" lon="7.23009">
        <ele>766.8</ele>
        <time>2021-08-04T12:06:20Z</time>
      </trkpt>
      <trkpt lat="48.22335" lon="7.23009">
        <ele>766.8</ele>
        <time>2021-08-04T12:06:21Z</time>
      </trkpt>
      <trkpt lat="48.22334" lon="7.23009">
        <ele>766.9</ele>
        <time>2021-08-04T12:06:22Z</time>
      </trkpt>
      <trkpt lat="48.22334" lon="7.23008">
        <ele>766.9</ele>
        <time>2021-08-04T12:06:23Z</time>
      </trkpt>
      <trkpt lat="48.22319" lon="7.2301">
        <ele>767.8</ele>
        <time>2021-08-04T12:06:33Z</time>
      </trkpt>
      <trkpt lat="48.22316" lon="7.23009">
        <ele>768</ele>
        <time>2021-08-04T12:06:34Z</time>
      </trkpt>
      <trkpt lat="48.22314" lon="7.23008">
        <ele>768.2</ele>
        <time>2021-08-04T12:06:35Z</time>
      </trkpt>
      <trkpt lat="48.22311" lon="7.23008">
        <ele>768.4</ele>
        <time>2021-08-04T12:06:37Z</time>
      </trkpt>
      <trkpt lat="48.22307" lon="7.23008">
        <ele>768.6</ele>
        <time>2021-08-04T12:06:38Z</time>
      </trkpt>
      <trkpt lat="48.22306" lon="7.23008">
        <ele>768.7</ele>
        <time>2021-08-04T12:06:39Z</time>
      </trkpt>
      <trkpt lat="48.22305" lon="7.23008">
        <ele>768.8</ele>
        <time>2021-08-04T12:06:40Z</time>
      </trkpt>
      <trkpt lat="48.223" lon="7.23008">
        <ele>769</ele>
        <time>2021-08-04T12:06:42Z</time>
      </trkpt>
      <trkpt lat="48.22298" lon="7.23009">
        <ele>769.2</ele>
        <time>2021-08-04T12:06:43Z</time>
      </trkpt>
      <trkpt lat="48.22297" lon="7.23009">
        <ele>769.3</ele>
        <time>2021-08-04T12:06:44Z</time>
      </trkpt>
      <trkpt lat="48.22294" lon="7.2301">
        <ele>769.5</ele>
        <time>2021-08-04T12:06:45Z</time>
      </trkpt>
      <trkpt lat="48.22292" lon="7.23009">
        <ele>769.5</ele>
        <time>2021-08-04T12:06:46Z</time>
      </trkpt>
      <trkpt lat="48.22291" lon="7.23009">
        <ele>769.6</ele>
        <time>2021-08-04T12:06:47Z</time>
      </trkpt>
      <trkpt lat="48.22289" lon="7.2301">
        <ele>769.7</ele>
        <time>2021-08-04T12:06:48Z</time>
      </trkpt>
      <trkpt lat="48.22287" lon="7.2301">
        <ele>769.9</ele>
        <time>2021-08-04T12:06:50Z</time>
      </trkpt>
      <trkpt lat="48.22285" lon="7.2301">
        <ele>770</ele>
        <time>2021-08-04T12:06:51Z</time>
      </trkpt>
      <trkpt lat="48.22282" lon="7.23011">
        <ele>770.1</ele>
        <time>2021-08-04T12:06:53Z</time>
      </trkpt>
      <trkpt lat="48.22279" lon="7.23012">
        <ele>770.3</ele>
        <time>2021-08-04T12:06:54Z</time>
      </trkpt>
      <trkpt lat="48.22279" lon="7.23012">
        <ele>770.4</ele>
        <time>2021-08-04T12:06:55Z</time>
      </trkpt>
      <trkpt lat="48.22277" lon="7.23012">
        <ele>770.5</ele>
        <time>2021-08-04T12:06:56Z</time>
      </trkpt>
      <trkpt lat="48.22275" lon="7.23012">
        <ele>770.6</ele>
        <time>2021-08-04T12:06:57Z</time>
      </trkpt>
      <trkpt lat="48.22274" lon="7.23011">
        <ele>770.7</ele>
        <time>2021-08-04T12:06:58Z</time>
      </trkpt>
      <trkpt lat="48.22272" lon="7.23012">
        <ele>770.8</ele>
        <time>2021-08-04T12:06:59Z</time>
      </trkpt>
      <trkpt lat="48.2227" lon="7.23014">
        <ele>770.9</ele>
        <time>2021-08-04T12:07:01Z</time>
      </trkpt>
      <trkpt lat="48.22269" lon="7.23013">
        <ele>771</ele>
        <time>2021-08-04T12:07:02Z</time>
      </trkpt>
      <trkpt lat="48.22267" lon="7.23012">
        <ele>771.1</ele>
        <time>2021-08-04T12:07:03Z</time>
      </trkpt>
      <trkpt lat="48.22267" lon="7.23012">
        <ele>771.1</ele>
        <time>2021-08-04T12:07:04Z</time>
      </trkpt>
      <trkpt lat="48.22265" lon="7.23013">
        <ele>771.2</ele>
        <time>2021-08-04T12:07:05Z</time>
      </trkpt>
      <trkpt lat="48.22264" lon="7.23014">
        <ele>771.3</ele>
        <time>2021-08-04T12:07:06Z</time>
      </trkpt>
      <trkpt lat="48.22263" lon="7.23015">
        <ele>771.4</ele>
        <time>2021-08-04T12:07:07Z</time>
      </trkpt>
      <trkpt lat="48.22262" lon="7.23016">
        <ele>771.4</ele>
        <time>2021-08-04T12:07:08Z</time>
      </trkpt>
      <trkpt lat="48.22262" lon="7.23016">
        <ele>771.5</ele>
        <time>2021-08-04T12:07:09Z</time>
      </trkpt>
      <trkpt lat="48.22261" lon="7.23017">
        <ele>771.5</ele>
        <time>2021-08-04T12:07:11Z</time>
      </trkpt>
      <trkpt lat="48.2226" lon="7.23018">
        <ele>771.6</ele>
        <time>2021-08-04T12:07:12Z</time>
      </trkpt>
      <trkpt lat="48.2226" lon="7.23019">
        <ele>771.7</ele>
        <time>2021-08-04T12:07:13Z</time>
      </trkpt>
      <trkpt lat="48.22259" lon="7.2302">
        <ele>771.7</ele>
        <time>2021-08-04T12:07:14Z</time>
      </trkpt>
      <trkpt lat="48.22257" lon="7.23021">
        <ele>771.8</ele>
        <time>2021-08-04T12:07:15Z</time>
      </trkpt>
      <trkpt lat="48.22256" lon="7.23022">
        <ele>771.9</ele>
        <time>2021-08-04T12:07:16Z</time>
      </trkpt>
      <trkpt lat="48.22255" lon="7.23021">
        <ele>772</ele>
        <time>2021-08-04T12:07:17Z</time>
      </trkpt>
      <trkpt lat="48.22255" lon="7.2302">
        <ele>772</ele>
        <time>2021-08-04T12:07:19Z</time>
      </trkpt>
      <trkpt lat="48.22254" lon="7.23019">
        <ele>772.2</ele>
        <time>2021-08-04T12:07:21Z</time>
      </trkpt>
      <trkpt lat="48.2225" lon="7.23017">
        <ele>772.4</ele>
        <time>2021-08-04T12:07:22Z</time>
      </trkpt>
      <trkpt lat="48.22249" lon="7.23017">
        <ele>772.5</ele>
        <time>2021-08-04T12:07:23Z</time>
      </trkpt>
      <trkpt lat="48.22247" lon="7.23017">
        <ele>772.7</ele>
        <time>2021-08-04T12:07:25Z</time>
      </trkpt>
      <trkpt lat="48.22246" lon="7.23016">
        <ele>772.7</ele>
        <time>2021-08-04T12:07:26Z</time>
      </trkpt>
      <trkpt lat="48.22244" lon="7.23016">
        <ele>772.8</ele>
        <time>2021-08-04T12:07:27Z</time>
      </trkpt>
      <trkpt lat="48.22242" lon="7.23017">
        <ele>773</ele>
        <time>2021-08-04T12:07:28Z</time>
      </trkpt>
      <trkpt lat="48.2224" lon="7.23017">
        <ele>773.1</ele>
        <time>2021-08-04T12:07:29Z</time>
      </trkpt>
      <trkpt lat="48.22239" lon="7.23017">
        <ele>773.2</ele>
        <time>2021-08-04T12:07:30Z</time>
      </trkpt>
      <trkpt lat="48.22238" lon="7.23017">
        <ele>773.3</ele>
        <time>2021-08-04T12:07:31Z</time>
      </trkpt>
      <trkpt lat="48.22237" lon="7.23017">
        <ele>773.3</ele>
        <time>2021-08-04T12:07:33Z</time>
      </trkpt>
      <trkpt lat="48.22236" lon="7.23017">
        <ele>773.4</ele>
        <time>2021-08-04T12:07:34Z</time>
      </trkpt>
      <trkpt lat="48.22237" lon="7.23017">
        <ele>773.4</ele>
        <time>2021-08-04T12:07:35Z</time>
      </trkpt>
      <trkpt lat="48.22236" lon="7.23017">
        <ele>773.4</ele>
        <time>2021-08-04T12:07:36Z</time>
      </trkpt>
      <trkpt lat="48.22236" lon="7.23017">
        <ele>773.4</ele>
        <time>2021-08-04T12:07:37Z</time>
      </trkpt>
      <trkpt lat="48.22235" lon="7.23017">
        <ele>773.5</ele>
        <time>2021-08-04T12:07:38Z</time>
      </trkpt>
      <trkpt lat="48.22234" lon="7.23017">
        <ele>773.5</ele>
        <time>2021-08-04T12:07:40Z</time>
      </trkpt>
      <trkpt lat="48.22234" lon="7.23016">
        <ele>773.6</ele>
        <time>2021-08-04T12:07:41Z</time>
      </trkpt>
      <trkpt lat="48.22233" lon="7.23015">
        <ele>773.6</ele>
        <time>2021-08-04T12:07:42Z</time>
      </trkpt>
      <trkpt lat="48.22233" lon="7.23014">
        <ele>773.7</ele>
        <time>2021-08-04T12:07:43Z</time>
      </trkpt>
      <trkpt lat="48.22213" lon="7.23005">
        <ele>775.1</ele>
        <time>2021-08-04T12:08:00Z</time>
      </trkpt>
      <trkpt lat="48.22211" lon="7.23006">
        <ele>775.2</ele>
        <time>2021-08-04T12:08:01Z</time>
      </trkpt>
      <trkpt lat="48.22211" lon="7.23007">
        <ele>775.3</ele>
        <time>2021-08-04T12:08:02Z</time>
      </trkpt>
      <trkpt lat="48.22208" lon="7.2301">
        <ele>775.5</ele>
        <time>2021-08-04T12:08:03Z</time>
      </trkpt>
      <trkpt lat="48.22208" lon="7.2301">
        <ele>775.5</ele>
        <time>2021-08-04T12:08:04Z</time>
      </trkpt>
      <trkpt lat="48.22206" lon="7.23012">
        <ele>775.6</ele>
        <time>2021-08-04T12:08:05Z</time>
      </trkpt>
      <trkpt lat="48.22205" lon="7.23012">
        <ele>775.7</ele>
        <time>2021-08-04T12:08:07Z</time>
      </trkpt>
      <trkpt lat="48.22204" lon="7.23013">
        <ele>775.8</ele>
        <time>2021-08-04T12:08:08Z</time>
      </trkpt>
      <trkpt lat="48.22203" lon="7.23013">
        <ele>775.8</ele>
        <time>2021-08-04T12:08:09Z</time>
      </trkpt>
      <trkpt lat="48.22203" lon="7.23014">
        <ele>775.9</ele>
        <time>2021-08-04T12:08:10Z</time>
      </trkpt>
      <trkpt lat="48.22202" lon="7.23015">
        <ele>775.9</ele>
        <time>2021-08-04T12:08:11Z</time>
      </trkpt>
      <trkpt lat="48.22201" lon="7.23016">
        <ele>776</ele>
        <time>2021-08-04T12:08:12Z</time>
      </trkpt>
      <trkpt lat="48.222" lon="7.23018">
        <ele>776.1</ele>
        <time>2021-08-04T12:08:14Z</time>
      </trkpt>
      <trkpt lat="48.22199" lon="7.23019">
        <ele>776.2</ele>
        <time>2021-08-04T12:08:15Z</time>
      </trkpt>
      <trkpt lat="48.22196" lon="7.23023">
        <ele>776.5</ele>
        <time>2021-08-04T12:08:16Z</time>
      </trkpt>
      <trkpt lat="48.22194" lon="7.23024">
        <ele>776.6</ele>
        <time>2021-08-04T12:08:17Z</time>
      </trkpt>
      <trkpt lat="48.22193" lon="7.23026">
        <ele>776.7</ele>
        <time>2021-08-04T12:08:18Z</time>
      </trkpt>
      <trkpt lat="48.22192" lon="7.23027">
        <ele>776.7</ele>
        <time>2021-08-04T12:08:19Z</time>
      </trkpt>
      <trkpt lat="48.22192" lon="7.23027">
        <ele>776.7</ele>
        <time>2021-08-04T12:08:21Z</time>
      </trkpt>
      <trkpt lat="48.22192" lon="7.23027">
        <ele>776.8</ele>
        <time>2021-08-04T12:08:22Z</time>
      </trkpt>
      <trkpt lat="48.22189" lon="7.23029">
        <ele>777</ele>
        <time>2021-08-04T12:08:23Z</time>
      </trkpt>
      <trkpt lat="48.22188" lon="7.23029">
        <ele>777.1</ele>
        <time>2021-08-04T12:08:24Z</time>
      </trkpt>
      <trkpt lat="48.22185" lon="7.23031">
        <ele>777.3</ele>
        <time>2021-08-04T12:08:25Z</time>
      </trkpt>
      <trkpt lat="48.22182" lon="7.23034">
        <ele>777.6</ele>
        <time>2021-08-04T12:08:26Z</time>
      </trkpt>
      <trkpt lat="48.22179" lon="7.23036">
        <ele>777.8</ele>
        <time>2021-08-04T12:08:27Z</time>
      </trkpt>
      <trkpt lat="48.22177" lon="7.23036">
        <ele>777.9</ele>
        <time>2021-08-04T12:08:29Z</time>
      </trkpt>
      <trkpt lat="48.22177" lon="7.23036">
        <ele>777.9</ele>
        <time>2021-08-04T12:08:30Z</time>
      </trkpt>
      <trkpt lat="48.22174" lon="7.23037">
        <ele>778.1</ele>
        <time>2021-08-04T12:08:32Z</time>
      </trkpt>
      <trkpt lat="48.22172" lon="7.23037">
        <ele>778.3</ele>
        <time>2021-08-04T12:08:33Z</time>
      </trkpt>
      <trkpt lat="48.2217" lon="7.23037">
        <ele>778.4</ele>
        <time>2021-08-04T12:08:35Z</time>
      </trkpt>
      <trkpt lat="48.22169" lon="7.23037">
        <ele>778.5</ele>
        <time>2021-08-04T12:08:36Z</time>
      </trkpt>
      <trkpt lat="48.22168" lon="7.23037">
        <ele>778.5</ele>
        <time>2021-08-04T12:08:37Z</time>
      </trkpt>
      <trkpt lat="48.22168" lon="7.23037">
        <ele>778.5</ele>
        <time>2021-08-04T12:08:38Z</time>
      </trkpt>
      <trkpt lat="48.22167" lon="7.23037">
        <ele>778.6</ele>
        <time>2021-08-04T12:08:39Z</time>
      </trkpt>
      <trkpt lat="48.22165" lon="7.23036">
        <ele>778.8</ele>
        <time>2021-08-04T12:08:40Z</time>
      </trkpt>
      <trkpt lat="48.22163" lon="7.23035">
        <ele>778.8</ele>
        <time>2021-08-04T12:08:41Z</time>
      </trkpt>
      <trkpt lat="48.22162" lon="7.23035">
        <ele>778.9</ele>
        <time>2021-08-04T12:08:43Z</time>
      </trkpt>
      <trkpt lat="48.22161" lon="7.23034">
        <ele>779</ele>
        <time>2021-08-04T12:08:44Z</time>
      </trkpt>
      <trkpt lat="48.2216" lon="7.23034">
        <ele>779.1</ele>
        <time>2021-08-04T12:08:45Z</time>
      </trkpt>
      <trkpt lat="48.22156" lon="7.2303">
        <ele>779.4</ele>
        <time>2021-08-04T12:08:47Z</time>
      </trkpt>
      <trkpt lat="48.22155" lon="7.23028">
        <ele>779.5</ele>
        <time>2021-08-04T12:08:48Z</time>
      </trkpt>
      <trkpt lat="48.22152" lon="7.23019">
        <ele>779.9</ele>
        <time>2021-08-04T12:08:50Z</time>
      </trkpt>
      <trkpt lat="48.22152" lon="7.23017">
        <ele>780</ele>
        <time>2021-08-04T12:08:51Z</time>
      </trkpt>
      <trkpt lat="48.22152" lon="7.23014">
        <ele>780.1</ele>
        <time>2021-08-04T12:08:52Z</time>
      </trkpt>
      <trkpt lat="48.22151" lon="7.2301">
        <ele>780.3</ele>
        <time>2021-08-04T12:08:53Z</time>
      </trkpt>
      <trkpt lat="48.2215" lon="7.23009">
        <ele>780.4</ele>
        <time>2021-08-04T12:08:54Z</time>
      </trkpt>
      <trkpt lat="48.22149" lon="7.23003">
        <ele>780.6</ele>
        <time>2021-08-04T12:08:55Z</time>
      </trkpt>
      <trkpt lat="48.22149" lon="7.22996">
        <ele>780.8</ele>
        <time>2021-08-04T12:08:57Z</time>
      </trkpt>
      <trkpt lat="48.22149" lon="7.22994">
        <ele>780.9</ele>
        <time>2021-08-04T12:08:58Z</time>
      </trkpt>
      <trkpt lat="48.22149" lon="7.22992">
        <ele>781</ele>
        <time>2021-08-04T12:08:59Z</time>
      </trkpt>
      <trkpt lat="48.22147" lon="7.22988">
        <ele>781.1</ele>
        <time>2021-08-04T12:09:01Z</time>
      </trkpt>
      <trkpt lat="48.22146" lon="7.22986">
        <ele>781.2</ele>
        <time>2021-08-04T12:09:02Z</time>
      </trkpt>
      <trkpt lat="48.22145" lon="7.22984">
        <ele>781.2</ele>
        <time>2021-08-04T12:09:03Z</time>
      </trkpt>
      <trkpt lat="48.22143" lon="7.22981">
        <ele>781.4</ele>
        <time>2021-08-04T12:09:05Z</time>
      </trkpt>
      <trkpt lat="48.22142" lon="7.2298">
        <ele>781.4</ele>
        <time>2021-08-04T12:09:06Z</time>
      </trkpt>
      <trkpt lat="48.22139" lon="7.22978">
        <ele>781.5</ele>
        <time>2021-08-04T12:09:07Z</time>
      </trkpt>
      <trkpt lat="48.22136" lon="7.22977">
        <ele>781.7</ele>
        <time>2021-08-04T12:09:09Z</time>
      </trkpt>
      <trkpt lat="48.22135" lon="7.22976">
        <ele>781.7</ele>
        <time>2021-08-04T12:09:10Z</time>
      </trkpt>
      <trkpt lat="48.22133" lon="7.22974">
        <ele>781.8</ele>
        <time>2021-08-04T12:09:11Z</time>
      </trkpt>
      <trkpt lat="48.22132" lon="7.22973">
        <ele>781.9</ele>
        <time>2021-08-04T12:09:12Z</time>
      </trkpt>
      <trkpt lat="48.2213" lon="7.22972">
        <ele>781.9</ele>
        <time>2021-08-04T12:09:13Z</time>
      </trkpt>
      <trkpt lat="48.22129" lon="7.2297">
        <ele>782</ele>
        <time>2021-08-04T12:09:14Z</time>
      </trkpt>
      <trkpt lat="48.22128" lon="7.22969">
        <ele>782.1</ele>
        <time>2021-08-04T12:09:15Z</time>
      </trkpt>
      <trkpt lat="48.22127" lon="7.22968">
        <ele>782.1</ele>
        <time>2021-08-04T12:09:16Z</time>
      </trkpt>
      <trkpt lat="48.22126" lon="7.22966">
        <ele>782.2</ele>
        <time>2021-08-04T12:09:17Z</time>
      </trkpt>
      <trkpt lat="48.22124" lon="7.22965">
        <ele>782.3</ele>
        <time>2021-08-04T12:09:19Z</time>
      </trkpt>
      <trkpt lat="48.22123" lon="7.22964">
        <ele>782.3</ele>
        <time>2021-08-04T12:09:20Z</time>
      </trkpt>
      <trkpt lat="48.22122" lon="7.22962">
        <ele>782.4</ele>
        <time>2021-08-04T12:09:21Z</time>
      </trkpt>
      <trkpt lat="48.22121" lon="7.22961">
        <ele>782.5</ele>
        <time>2021-08-04T12:09:22Z</time>
      </trkpt>
      <trkpt lat="48.2212" lon="7.22959">
        <ele>782.5</ele>
        <time>2021-08-04T12:09:23Z</time>
      </trkpt>
      <trkpt lat="48.22118" lon="7.22957">
        <ele>782.7</ele>
        <time>2021-08-04T12:09:24Z</time>
      </trkpt>
      <trkpt lat="48.22117" lon="7.22955">
        <ele>782.8</ele>
        <time>2021-08-04T12:09:26Z</time>
      </trkpt>
      <trkpt lat="48.22116" lon="7.22952">
        <ele>782.9</ele>
        <time>2021-08-04T12:09:27Z</time>
      </trkpt>
      <trkpt lat="48.22114" lon="7.22948">
        <ele>783.1</ele>
        <time>2021-08-04T12:09:29Z</time>
      </trkpt>
      <trkpt lat="48.22114" lon="7.22947">
        <ele>783.1</ele>
        <time>2021-08-04T12:09:30Z</time>
      </trkpt>
      <trkpt lat="48.22114" lon="7.22943">
        <ele>783.2</ele>
        <time>2021-08-04T12:09:31Z</time>
      </trkpt>
      <trkpt lat="48.22115" lon="7.22937">
        <ele>783.5</ele>
        <time>2021-08-04T12:09:33Z</time>
      </trkpt>
      <trkpt lat="48.22115" lon="7.22935">
        <ele>783.5</ele>
        <time>2021-08-04T12:09:34Z</time>
      </trkpt>
      <trkpt lat="48.22115" lon="7.22934">
        <ele>783.6</ele>
        <time>2021-08-04T12:09:35Z</time>
      </trkpt>
      <trkpt lat="48.22115" lon="7.22931">
        <ele>783.7</ele>
        <time>2021-08-04T12:09:37Z</time>
      </trkpt>
      <trkpt lat="48.22115" lon="7.22931">
        <ele>783.7</ele>
        <time>2021-08-04T12:09:38Z</time>
      </trkpt>
      <trkpt lat="48.22115" lon="7.22925">
        <ele>783.9</ele>
        <time>2021-08-04T12:09:40Z</time>
      </trkpt>
      <trkpt lat="48.22115" lon="7.22921">
        <ele>784</ele>
        <time>2021-08-04T12:09:42Z</time>
      </trkpt>
      <trkpt lat="48.22116" lon="7.2292">
        <ele>784.1</ele>
        <time>2021-08-04T12:09:43Z</time>
      </trkpt>
      <trkpt lat="48.22116" lon="7.22919">
        <ele>784.1</ele>
        <time>2021-08-04T12:09:44Z</time>
      </trkpt>
      <trkpt lat="48.22116" lon="7.22918">
        <ele>784.2</ele>
        <time>2021-08-04T12:09:46Z</time>
      </trkpt>
      <trkpt lat="48.22116" lon="7.22916">
        <ele>784.2</ele>
        <time>2021-08-04T12:09:47Z</time>
      </trkpt>
      <trkpt lat="48.22116" lon="7.22915">
        <ele>784.3</ele>
        <time>2021-08-04T12:09:48Z</time>
      </trkpt>
      <trkpt lat="48.22115" lon="7.22912">
        <ele>784.4</ele>
        <time>2021-08-04T12:09:50Z</time>
      </trkpt>
      <trkpt lat="48.22109" lon="7.22875">
        <ele>785.7</ele>
        <time>2021-08-04T12:10:28Z</time>
      </trkpt>
      <trkpt lat="48.22111" lon="7.22871">
        <ele>785.9</ele>
        <time>2021-08-04T12:10:29Z</time>
      </trkpt>
      <trkpt lat="48.22114" lon="7.22864">
        <ele>786.2</ele>
        <time>2021-08-04T12:10:31Z</time>
      </trkpt>
      <trkpt lat="48.22116" lon="7.2286">
        <ele>786.3</ele>
        <time>2021-08-04T12:10:32Z</time>
      </trkpt>
      <trkpt lat="48.22118" lon="7.22856">
        <ele>786.6</ele>
        <time>2021-08-04T12:10:33Z</time>
      </trkpt>
      <trkpt lat="48.2212" lon="7.22853">
        <ele>786.6</ele>
        <time>2021-08-04T12:10:34Z</time>
      </trkpt>
      <trkpt lat="48.2212" lon="7.2285">
        <ele>786.7</ele>
        <time>2021-08-04T12:10:36Z</time>
      </trkpt>
      <trkpt lat="48.2212" lon="7.22849">
        <ele>786.8</ele>
        <time>2021-08-04T12:10:37Z</time>
      </trkpt>
      <trkpt lat="48.2212" lon="7.22847">
        <ele>786.9</ele>
        <time>2021-08-04T12:10:38Z</time>
      </trkpt>
      <trkpt lat="48.2212" lon="7.22842">
        <ele>787</ele>
        <time>2021-08-04T12:10:39Z</time>
      </trkpt>
      <trkpt lat="48.2212" lon="7.22837">
        <ele>787.2</ele>
        <time>2021-08-04T12:10:41Z</time>
      </trkpt>
      <trkpt lat="48.2212" lon="7.22836">
        <ele>787.2</ele>
        <time>2021-08-04T12:10:42Z</time>
      </trkpt>
      <trkpt lat="48.22119" lon="7.22832">
        <ele>787.4</ele>
        <time>2021-08-04T12:10:44Z</time>
      </trkpt>
      <trkpt lat="48.22119" lon="7.22829">
        <ele>787.5</ele>
        <time>2021-08-04T12:10:45Z</time>
      </trkpt>
      <trkpt lat="48.2212" lon="7.22827">
        <ele>787.5</ele>
        <time>2021-08-04T12:10:46Z</time>
      </trkpt>
      <trkpt lat="48.22119" lon="7.22825">
        <ele>787.6</ele>
        <time>2021-08-04T12:10:47Z</time>
      </trkpt>
      <trkpt lat="48.22117" lon="7.22825">
        <ele>787.7</ele>
        <time>2021-08-04T12:10:48Z</time>
      </trkpt>
      <trkpt lat="48.22115" lon="7.22824">
        <ele>787.8</ele>
        <time>2021-08-04T12:10:49Z</time>
      </trkpt>
      <trkpt lat="48.22113" lon="7.22822">
        <ele>788</ele>
        <time>2021-08-04T12:10:51Z</time>
      </trkpt>
      <trkpt lat="48.22112" lon="7.22818">
        <ele>788.1</ele>
        <time>2021-08-04T12:10:52Z</time>
      </trkpt>
      <trkpt lat="48.2211" lon="7.22816">
        <ele>788.2</ele>
        <time>2021-08-04T12:10:54Z</time>
      </trkpt>
      <trkpt lat="48.22106" lon="7.22812">
        <ele>788.4</ele>
        <time>2021-08-04T12:10:55Z</time>
      </trkpt>
      <trkpt lat="48.22104" lon="7.22811">
        <ele>788.5</ele>
        <time>2021-08-04T12:10:56Z</time>
      </trkpt>
      <trkpt lat="48.22101" lon="7.22806">
        <ele>788.7</ele>
        <time>2021-08-04T12:10:58Z</time>
      </trkpt>
      <trkpt lat="48.22099" lon="7.22802">
        <ele>788.9</ele>
        <time>2021-08-04T12:10:59Z</time>
      </trkpt>
      <trkpt lat="48.22099" lon="7.22798">
        <ele>789</ele>
        <time>2021-08-04T12:11:00Z</time>
      </trkpt>
      <trkpt lat="48.22094" lon="7.22792">
        <ele>789.3</ele>
        <time>2021-08-04T12:11:02Z</time>
      </trkpt>
      <trkpt lat="48.22092" lon="7.22789">
        <ele>789.4</ele>
        <time>2021-08-04T12:11:03Z</time>
      </trkpt>
      <trkpt lat="48.22088" lon="7.22787">
        <ele>789.6</ele>
        <time>2021-08-04T12:11:04Z</time>
      </trkpt>
      <trkpt lat="48.22082" lon="7.22782">
        <ele>789.9</ele>
        <time>2021-08-04T12:11:06Z</time>
      </trkpt>
      <trkpt lat="48.2208" lon="7.2278">
        <ele>790.1</ele>
        <time>2021-08-04T12:11:07Z</time>
      </trkpt>
      <trkpt lat="48.22079" lon="7.22774">
        <ele>790.3</ele>
        <time>2021-08-04T12:11:09Z</time>
      </trkpt>
      <trkpt lat="48.22079" lon="7.22769">
        <ele>790.4</ele>
        <time>2021-08-04T12:11:10Z</time>
      </trkpt>
      <trkpt lat="48.2208" lon="7.2276">
        <ele>790.7</ele>
        <time>2021-08-04T12:11:12Z</time>
      </trkpt>
      <trkpt lat="48.22081" lon="7.22755">
        <ele>790.9</ele>
        <time>2021-08-04T12:11:13Z</time>
      </trkpt>
      <trkpt lat="48.22082" lon="7.22753">
        <ele>791</ele>
        <time>2021-08-04T12:11:14Z</time>
      </trkpt>
      <trkpt lat="48.22082" lon="7.22751">
        <ele>791.1</ele>
        <time>2021-08-04T12:11:16Z</time>
      </trkpt>
      <trkpt lat="48.22084" lon="7.22749">
        <ele>791.2</ele>
        <time>2021-08-04T12:11:17Z</time>
      </trkpt>
      <trkpt lat="48.22085" lon="7.22748">
        <ele>791.3</ele>
        <time>2021-08-04T12:11:18Z</time>
      </trkpt>
      <trkpt lat="48.22087" lon="7.22747">
        <ele>791.4</ele>
        <time>2021-08-04T12:11:19Z</time>
      </trkpt>
      <trkpt lat="48.22088" lon="7.22747">
        <ele>791.4</ele>
        <time>2021-08-04T12:11:22Z</time>
      </trkpt>
      <trkpt lat="48.22089" lon="7.22746">
        <ele>792</ele>
        <time>2021-08-04T12:11:23Z</time>
      </trkpt>
      <trkpt lat="48.2209" lon="7.22745">
        <ele>792.1</ele>
        <time>2021-08-04T12:11:24Z</time>
      </trkpt>
      <trkpt lat="48.22091" lon="7.22745">
        <ele>792.2</ele>
        <time>2021-08-04T12:11:25Z</time>
      </trkpt>
      <trkpt lat="48.22092" lon="7.22743">
        <ele>792.4</ele>
        <time>2021-08-04T12:11:26Z</time>
      </trkpt>
      <trkpt lat="48.22097" lon="7.2273">
        <ele>793</ele>
        <time>2021-08-04T12:11:31Z</time>
      </trkpt>
      <trkpt lat="48.22097" lon="7.22723">
        <ele>793.2</ele>
        <time>2021-08-04T12:11:33Z</time>
      </trkpt>
      <trkpt lat="48.22098" lon="7.22716">
        <ele>793.3</ele>
        <time>2021-08-04T12:11:34Z</time>
      </trkpt>
      <trkpt lat="48.22098" lon="7.22703">
        <ele>793.5</ele>
        <time>2021-08-04T12:11:35Z</time>
      </trkpt>
      <trkpt lat="48.22105" lon="7.22681">
        <ele>793.7</ele>
        <time>2021-08-04T12:11:37Z</time>
      </trkpt>
      <trkpt lat="48.2211" lon="7.2267">
        <ele>793.9</ele>
        <time>2021-08-04T12:11:38Z</time>
      </trkpt>
      <trkpt lat="48.2212" lon="7.22655">
        <ele>794.1</ele>
        <time>2021-08-04T12:11:40Z</time>
      </trkpt>
      <trkpt lat="48.22129" lon="7.22644">
        <ele>794.4</ele>
        <time>2021-08-04T12:11:42Z</time>
      </trkpt>
      <trkpt lat="48.22133" lon="7.22639">
        <ele>794.5</ele>
        <time>2021-08-04T12:11:43Z</time>
      </trkpt>
      <trkpt lat="48.22137" lon="7.22634">
        <ele>794.6</ele>
        <time>2021-08-04T12:11:44Z</time>
      </trkpt>
      <trkpt lat="48.22145" lon="7.22622">
        <ele>795</ele>
        <time>2021-08-04T12:11:46Z</time>
      </trkpt>
      <trkpt lat="48.22153" lon="7.22612">
        <ele>795.4</ele>
        <time>2021-08-04T12:11:48Z</time>
      </trkpt>
      <trkpt lat="48.22161" lon="7.22601">
        <ele>795.8</ele>
        <time>2021-08-04T12:11:50Z</time>
      </trkpt>
      <trkpt lat="48.2217" lon="7.22591">
        <ele>796.2</ele>
        <time>2021-08-04T12:11:52Z</time>
      </trkpt>
      <trkpt lat="48.22177" lon="7.22581">
        <ele>796.7</ele>
        <time>2021-08-04T12:11:54Z</time>
      </trkpt>
      <trkpt lat="48.22181" lon="7.22574">
        <ele>797</ele>
        <time>2021-08-04T12:11:56Z</time>
      </trkpt>
      <trkpt lat="48.22182" lon="7.2257">
        <ele>797.2</ele>
        <time>2021-08-04T12:11:57Z</time>
      </trkpt>
      <trkpt lat="48.22185" lon="7.22558">
        <ele>797.6</ele>
        <time>2021-08-04T12:11:59Z</time>
      </trkpt>
      <trkpt lat="48.22188" lon="7.22552">
        <ele>797.8</ele>
        <time>2021-08-04T12:12:00Z</time>
      </trkpt>
      <trkpt lat="48.2219" lon="7.22547">
        <ele>797.9</ele>
        <time>2021-08-04T12:12:01Z</time>
      </trkpt>
      <trkpt lat="48.22189" lon="7.22548">
        <ele>798</ele>
        <time>2021-08-04T12:12:02Z</time>
      </trkpt>
      <trkpt lat="48.22191" lon="7.22537">
        <ele>798.2</ele>
        <time>2021-08-04T12:12:04Z</time>
      </trkpt>
      <trkpt lat="48.22194" lon="7.22525">
        <ele>798.5</ele>
        <time>2021-08-04T12:12:06Z</time>
      </trkpt>
      <trkpt lat="48.22197" lon="7.22515">
        <ele>798.7</ele>
        <time>2021-08-04T12:12:07Z</time>
      </trkpt>
      <trkpt lat="48.22202" lon="7.22503">
        <ele>799</ele>
        <time>2021-08-04T12:12:09Z</time>
      </trkpt>
      <trkpt lat="48.22206" lon="7.22494">
        <ele>799.2</ele>
        <time>2021-08-04T12:12:10Z</time>
      </trkpt>
      <trkpt lat="48.2221" lon="7.22483">
        <ele>799.4</ele>
        <time>2021-08-04T12:12:11Z</time>
      </trkpt>
      <trkpt lat="48.22213" lon="7.2247">
        <ele>799.6</ele>
        <time>2021-08-04T12:12:12Z</time>
      </trkpt>
      <trkpt lat="48.22217" lon="7.22446">
        <ele>799.8</ele>
        <time>2021-08-04T12:12:14Z</time>
      </trkpt>
      <trkpt lat="48.2222" lon="7.22422">
        <ele>800.2</ele>
        <time>2021-08-04T12:12:16Z</time>
      </trkpt>
      <trkpt lat="48.22224" lon="7.22401">
        <ele>800.7</ele>
        <time>2021-08-04T12:12:18Z</time>
      </trkpt>
      <trkpt lat="48.22231" lon="7.22382">
        <ele>801.3</ele>
        <time>2021-08-04T12:12:20Z</time>
      </trkpt>
      <trkpt lat="48.22234" lon="7.22374">
        <ele>801.6</ele>
        <time>2021-08-04T12:12:21Z</time>
      </trkpt>
      <trkpt lat="48.2224" lon="7.22359">
        <ele>802.2</ele>
        <time>2021-08-04T12:12:23Z</time>
      </trkpt>
      <trkpt lat="48.22242" lon="7.22352">
        <ele>802.5</ele>
        <time>2021-08-04T12:12:24Z</time>
      </trkpt>
      <trkpt lat="48.22243" lon="7.22345">
        <ele>802.8</ele>
        <time>2021-08-04T12:12:25Z</time>
      </trkpt>
      <trkpt lat="48.22242" lon="7.22338">
        <ele>803.1</ele>
        <time>2021-08-04T12:12:26Z</time>
      </trkpt>
      <trkpt lat="48.22241" lon="7.22325">
        <ele>803.7</ele>
        <time>2021-08-04T12:12:28Z</time>
      </trkpt>
      <trkpt lat="48.22241" lon="7.2232">
        <ele>803.9</ele>
        <time>2021-08-04T12:12:29Z</time>
      </trkpt>
      <trkpt lat="48.2224" lon="7.22312">
        <ele>804.3</ele>
        <time>2021-08-04T12:12:31Z</time>
      </trkpt>
      <trkpt lat="48.22238" lon="7.22307">
        <ele>804.6</ele>
        <time>2021-08-04T12:12:32Z</time>
      </trkpt>
      <trkpt lat="48.22236" lon="7.22304">
        <ele>804.8</ele>
        <time>2021-08-04T12:12:33Z</time>
      </trkpt>
      <trkpt lat="48.22234" lon="7.22299">
        <ele>805.1</ele>
        <time>2021-08-04T12:12:35Z</time>
      </trkpt>
      <trkpt lat="48.22233" lon="7.22295">
        <ele>805.4</ele>
        <time>2021-08-04T12:12:36Z</time>
      </trkpt>
      <trkpt lat="48.22231" lon="7.22292">
        <ele>805.6</ele>
        <time>2021-08-04T12:12:38Z</time>
      </trkpt>
      <trkpt lat="48.22229" lon="7.2229">
        <ele>805.7</ele>
        <time>2021-08-04T12:12:39Z</time>
      </trkpt>
      <trkpt lat="48.22228" lon="7.22289">
        <ele>805.9</ele>
        <time>2021-08-04T12:12:48Z</time>
      </trkpt>
      <trkpt lat="48.22226" lon="7.22287">
        <ele>806</ele>
        <time>2021-08-04T12:12:49Z</time>
      </trkpt>
      <trkpt lat="48.22224" lon="7.22286">
        <ele>806.1</ele>
        <time>2021-08-04T12:12:50Z</time>
      </trkpt>
      <trkpt lat="48.22225" lon="7.2228">
        <ele>806.4</ele>
        <time>2021-08-04T12:12:51Z</time>
      </trkpt>
      <trkpt lat="48.22227" lon="7.22273">
        <ele>806.8</ele>
        <time>2021-08-04T12:12:52Z</time>
      </trkpt>
      <trkpt lat="48.2223" lon="7.22265">
        <ele>807.1</ele>
        <time>2021-08-04T12:12:53Z</time>
      </trkpt>
      <trkpt lat="48.22232" lon="7.2226">
        <ele>807.4</ele>
        <time>2021-08-04T12:12:54Z</time>
      </trkpt>
      <trkpt lat="48.22233" lon="7.22255">
        <ele>807.6</ele>
        <time>2021-08-04T12:12:55Z</time>
      </trkpt>
      <trkpt lat="48.22236" lon="7.22246">
        <ele>807.9</ele>
        <time>2021-08-04T12:12:58Z</time>
      </trkpt>
      <trkpt lat="48.22236" lon="7.22242">
        <ele>808.1</ele>
        <time>2021-08-04T12:12:59Z</time>
      </trkpt>
      <trkpt lat="48.22237" lon="7.22236">
        <ele>808.2</ele>
        <time>2021-08-04T12:13:00Z</time>
      </trkpt>
      <trkpt lat="48.2224" lon="7.22229">
        <ele>808.5</ele>
        <time>2021-08-04T12:13:01Z</time>
      </trkpt>
      <trkpt lat="48.22242" lon="7.2222">
        <ele>808.8</ele>
        <time>2021-08-04T12:13:03Z</time>
      </trkpt>
      <trkpt lat="48.22242" lon="7.22214">
        <ele>809.1</ele>
        <time>2021-08-04T12:13:04Z</time>
      </trkpt>
      <trkpt lat="48.22241" lon="7.22208">
        <ele>809.3</ele>
        <time>2021-08-04T12:13:05Z</time>
      </trkpt>
      <trkpt lat="48.22239" lon="7.22204">
        <ele>809.5</ele>
        <time>2021-08-04T12:13:06Z</time>
      </trkpt>
      <trkpt lat="48.22234" lon="7.22195">
        <ele>810</ele>
        <time>2021-08-04T12:13:08Z</time>
      </trkpt>
      <trkpt lat="48.22231" lon="7.22191">
        <ele>810.2</ele>
        <time>2021-08-04T12:13:09Z</time>
      </trkpt>
      <trkpt lat="48.22226" lon="7.22186">
        <ele>810.6</ele>
        <time>2021-08-04T12:13:11Z</time>
      </trkpt>
      <trkpt lat="48.22223" lon="7.2218">
        <ele>811</ele>
        <time>2021-08-04T12:13:13Z</time>
      </trkpt>
      <trkpt lat="48.22221" lon="7.22175">
        <ele>811.2</ele>
        <time>2021-08-04T12:13:14Z</time>
      </trkpt>
      <trkpt lat="48.2222" lon="7.22169">
        <ele>811.4</ele>
        <time>2021-08-04T12:13:15Z</time>
      </trkpt>
      <trkpt lat="48.22218" lon="7.22164">
        <ele>811.6</ele>
        <time>2021-08-04T12:13:16Z</time>
      </trkpt>
      <trkpt lat="48.22216" lon="7.22151">
        <ele>812.1</ele>
        <time>2021-08-04T12:13:18Z</time>
      </trkpt>
      <trkpt lat="48.22216" lon="7.22136">
        <ele>812.5</ele>
        <time>2021-08-04T12:13:20Z</time>
      </trkpt>
      <trkpt lat="48.22215" lon="7.22129">
        <ele>812.7</ele>
        <time>2021-08-04T12:13:21Z</time>
      </trkpt>
      <trkpt lat="48.22214" lon="7.22123">
        <ele>812.9</ele>
        <time>2021-08-04T12:13:22Z</time>
      </trkpt>
      <trkpt lat="48.2221" lon="7.22116">
        <ele>813.1</ele>
        <time>2021-08-04T12:13:23Z</time>
      </trkpt>
      <trkpt lat="48.22206" lon="7.22109">
        <ele>813.3</ele>
        <time>2021-08-04T12:13:25Z</time>
      </trkpt>
      <trkpt lat="48.22201" lon="7.22099">
        <ele>813.7</ele>
        <time>2021-08-04T12:13:27Z</time>
      </trkpt>
      <trkpt lat="48.222" lon="7.22095">
        <ele>813.8</ele>
        <time>2021-08-04T12:13:28Z</time>
      </trkpt>
      <trkpt lat="48.222" lon="7.22093">
        <ele>813.8</ele>
        <time>2021-08-04T12:13:29Z</time>
      </trkpt>
      <trkpt lat="48.222" lon="7.22086">
        <ele>814</ele>
        <time>2021-08-04T12:13:31Z</time>
      </trkpt>
      <trkpt lat="48.222" lon="7.22079">
        <ele>814.2</ele>
        <time>2021-08-04T12:13:32Z</time>
      </trkpt>
      <trkpt lat="48.222" lon="7.22075">
        <ele>814.3</ele>
        <time>2021-08-04T12:13:33Z</time>
      </trkpt>
      <trkpt lat="48.22199" lon="7.22063">
        <ele>814.6</ele>
        <time>2021-08-04T12:13:35Z</time>
      </trkpt>
      <trkpt lat="48.22198" lon="7.22057">
        <ele>814.8</ele>
        <time>2021-08-04T12:13:36Z</time>
      </trkpt>
      <trkpt lat="48.22199" lon="7.22054">
        <ele>814.8</ele>
        <time>2021-08-04T12:13:37Z</time>
      </trkpt>
      <trkpt lat="48.22199" lon="7.22051">
        <ele>814.9</ele>
        <time>2021-08-04T12:13:39Z</time>
      </trkpt>
      <trkpt lat="48.22199" lon="7.22049">
        <ele>815</ele>
        <time>2021-08-04T12:13:40Z</time>
      </trkpt>
      <trkpt lat="48.22198" lon="7.22046">
        <ele>815.2</ele>
        <time>2021-08-04T12:13:41Z</time>
      </trkpt>
      <trkpt lat="48.22198" lon="7.22043">
        <ele>815.2</ele>
        <time>2021-08-04T12:13:43Z</time>
      </trkpt>
      <trkpt lat="48.22174" lon="7.22002">
        <ele>816.7</ele>
        <time>2021-08-04T12:13:47Z</time>
      </trkpt>
      <trkpt lat="48.22171" lon="7.21998">
        <ele>816.9</ele>
        <time>2021-08-04T12:13:48Z</time>
      </trkpt>
      <trkpt lat="48.22167" lon="7.21989">
        <ele>817.2</ele>
        <time>2021-08-04T12:13:49Z</time>
      </trkpt>
      <trkpt lat="48.22161" lon="7.21976">
        <ele>817.7</ele>
        <time>2021-08-04T12:13:51Z</time>
      </trkpt>
      <trkpt lat="48.22149" lon="7.21934">
        <ele>819</ele>
        <time>2021-08-04T12:13:52Z</time>
      </trkpt>
      <trkpt lat="48.22149" lon="7.21928">
        <ele>819.1</ele>
        <time>2021-08-04T12:13:53Z</time>
      </trkpt>
      <trkpt lat="48.22148" lon="7.21921">
        <ele>819.4</ele>
        <time>2021-08-04T12:13:54Z</time>
      </trkpt>
      <trkpt lat="48.22146" lon="7.21914">
        <ele>819.6</ele>
        <time>2021-08-04T12:13:55Z</time>
      </trkpt>
      <trkpt lat="48.22144" lon="7.21908">
        <ele>819.8</ele>
        <time>2021-08-04T12:13:56Z</time>
      </trkpt>
      <trkpt lat="48.22143" lon="7.21904">
        <ele>819.9</ele>
        <time>2021-08-04T12:13:57Z</time>
      </trkpt>
      <trkpt lat="48.2214" lon="7.21898">
        <ele>820.1</ele>
        <time>2021-08-04T12:13:59Z</time>
      </trkpt>
      <trkpt lat="48.22138" lon="7.21894">
        <ele>820.3</ele>
        <time>2021-08-04T12:14:00Z</time>
      </trkpt>
      <trkpt lat="48.22137" lon="7.21884">
        <ele>820.6</ele>
        <time>2021-08-04T12:14:02Z</time>
      </trkpt>
      <trkpt lat="48.22137" lon="7.21877">
        <ele>820.8</ele>
        <time>2021-08-04T12:14:03Z</time>
      </trkpt>
      <trkpt lat="48.22137" lon="7.21874">
        <ele>820.9</ele>
        <time>2021-08-04T12:14:05Z</time>
      </trkpt>
      <trkpt lat="48.22138" lon="7.21873">
        <ele>820.9</ele>
        <time>2021-08-04T12:14:06Z</time>
      </trkpt>
      <trkpt lat="48.22138" lon="7.21873">
        <ele>821</ele>
        <time>2021-08-04T12:14:07Z</time>
      </trkpt>
      <trkpt lat="48.22139" lon="7.21873">
        <ele>821</ele>
        <time>2021-08-04T12:14:08Z</time>
      </trkpt>
      <trkpt lat="48.22146" lon="7.21888">
        <ele>820.6</ele>
        <time>2021-08-04T12:14:09Z</time>
      </trkpt>
      <trkpt lat="48.22153" lon="7.21903">
        <ele>820</ele>
        <time>2021-08-04T12:14:11Z</time>
      </trkpt>
      <trkpt lat="48.22159" lon="7.21919">
        <ele>819.4</ele>
        <time>2021-08-04T12:14:12Z</time>
      </trkpt>
      <trkpt lat="48.22165" lon="7.21935">
        <ele>818.9</ele>
        <time>2021-08-04T12:14:47Z</time>
      </trkpt>
      <trkpt lat="48.22172" lon="7.2195">
        <ele>818.4</ele>
        <time>2021-08-04T12:14:48Z</time>
      </trkpt>
      <trkpt lat="48.22172" lon="7.21955">
        <ele>818.2</ele>
        <time>2021-08-04T12:14:50Z</time>
      </trkpt>
      <trkpt lat="48.22172" lon="7.21957">
        <ele>818.2</ele>
        <time>2021-08-04T12:14:51Z</time>
      </trkpt>
      <trkpt lat="48.22169" lon="7.21964">
        <ele>817.9</ele>
        <time>2021-08-04T12:14:53Z</time>
      </trkpt>
      <trkpt lat="48.22169" lon="7.21965">
        <ele>817.9</ele>
        <time>2021-08-04T12:14:54Z</time>
      </trkpt>
      <trkpt lat="48.22169" lon="7.21966">
        <ele>817.9</ele>
        <time>2021-08-04T12:14:55Z</time>
      </trkpt>
      <trkpt lat="48.2217" lon="7.21968">
        <ele>817.8</ele>
        <time>2021-08-04T12:14:57Z</time>
      </trkpt>
      <trkpt lat="48.2217" lon="7.21969">
        <ele>817.8</ele>
        <time>2021-08-04T12:14:58Z</time>
      </trkpt>
      <trkpt lat="48.2217" lon="7.21971">
        <ele>817.7</ele>
        <time>2021-08-04T12:14:59Z</time>
      </trkpt>
      <trkpt lat="48.2217" lon="7.21972">
        <ele>817.7</ele>
        <time>2021-08-04T12:15:01Z</time>
      </trkpt>
      <trkpt lat="48.2217" lon="7.21983">
        <ele>817.3</ele>
        <time>2021-08-04T12:15:04Z</time>
      </trkpt>
      <trkpt lat="48.2217" lon="7.2199">
        <ele>817.1</ele>
        <time>2021-08-04T12:15:05Z</time>
      </trkpt>
      <trkpt lat="48.2217" lon="7.21993">
        <ele>817</ele>
        <time>2021-08-04T12:15:06Z</time>
      </trkpt>
      <trkpt lat="48.2217" lon="7.21997">
        <ele>816.9</ele>
        <time>2021-08-04T12:15:08Z</time>
      </trkpt>
      <trkpt lat="48.2217" lon="7.22002">
        <ele>816.7</ele>
        <time>2021-08-04T12:15:09Z</time>
      </trkpt>
      <trkpt lat="48.2217" lon="7.22006">
        <ele>816.6</ele>
        <time>2021-08-04T12:15:10Z</time>
      </trkpt>
      <trkpt lat="48.22171" lon="7.2201">
        <ele>816.4</ele>
        <time>2021-08-04T12:15:11Z</time>
      </trkpt>
      <trkpt lat="48.22171" lon="7.22011">
        <ele>816.4</ele>
        <time>2021-08-04T12:15:12Z</time>
      </trkpt>
      <trkpt lat="48.22172" lon="7.22013">
        <ele>816.3</ele>
        <time>2021-08-04T12:15:13Z</time>
      </trkpt>
      <trkpt lat="48.22172" lon="7.22014">
        <ele>816.4</ele>
        <time>2021-08-04T12:15:15Z</time>
      </trkpt>
      <trkpt lat="48.22173" lon="7.22015">
        <ele>816.4</ele>
        <time>2021-08-04T12:15:16Z</time>
      </trkpt>
      <trkpt lat="48.22173" lon="7.22016">
        <ele>816.5</ele>
        <time>2021-08-04T12:15:17Z</time>
      </trkpt>
      <trkpt lat="48.22174" lon="7.22019">
        <ele>816.6</ele>
        <time>2021-08-04T12:15:19Z</time>
      </trkpt>
      <trkpt lat="48.22175" lon="7.2202">
        <ele>816.7</ele>
        <time>2021-08-04T12:15:20Z</time>
      </trkpt>
      <trkpt lat="48.22176" lon="7.22021">
        <ele>816.7</ele>
        <time>2021-08-04T12:15:21Z</time>
      </trkpt>
      <trkpt lat="48.22176" lon="7.22022">
        <ele>816.8</ele>
        <time>2021-08-04T12:15:22Z</time>
      </trkpt>
      <trkpt lat="48.22176" lon="7.22023">
        <ele>816.8</ele>
        <time>2021-08-04T12:15:23Z</time>
      </trkpt>
      <trkpt lat="48.22176" lon="7.22023">
        <ele>816.8</ele>
        <time>2021-08-04T12:15:25Z</time>
      </trkpt>
      <trkpt lat="48.22176" lon="7.22023">
        <ele>816.8</ele>
        <time>2021-08-04T12:15:26Z</time>
      </trkpt>
      <trkpt lat="48.22176" lon="7.22023">
        <ele>816.8</ele>
        <time>2021-08-04T12:15:28Z</time>
      </trkpt>
      <trkpt lat="48.22177" lon="7.22023">
        <ele>816.8</ele>
        <time>2021-08-04T12:15:29Z</time>
      </trkpt>
      <trkpt lat="48.22177" lon="7.22023">
        <ele>816.8</ele>
        <time>2021-08-04T12:15:30Z</time>
      </trkpt>
      <trkpt lat="48.22183" lon="7.21931">
        <ele>820.1</ele>
        <time>2021-08-04T12:16:23Z</time>
      </trkpt>
      <trkpt lat="48.22185" lon="7.21924">
        <ele>820.4</ele>
        <time>2021-08-04T12:16:25Z</time>
      </trkpt>
      <trkpt lat="48.22188" lon="7.2192">
        <ele>820.7</ele>
        <time>2021-08-04T12:16:26Z</time>
      </trkpt>
      <trkpt lat="48.22191" lon="7.21915">
        <ele>820.9</ele>
        <time>2021-08-04T12:16:27Z</time>
      </trkpt>
      <trkpt lat="48.22196" lon="7.2191">
        <ele>821.3</ele>
        <time>2021-08-04T12:16:29Z</time>
      </trkpt>
      <trkpt lat="48.22198" lon="7.21909">
        <ele>821.5</ele>
        <time>2021-08-04T12:16:31Z</time>
      </trkpt>
      <trkpt lat="48.22199" lon="7.21908">
        <ele>821.6</ele>
        <time>2021-08-04T12:16:32Z</time>
      </trkpt>
      <trkpt lat="48.22201" lon="7.21906">
        <ele>821.7</ele>
        <time>2021-08-04T12:16:33Z</time>
      </trkpt>
      <trkpt lat="48.22201" lon="7.21905">
        <ele>821.8</ele>
        <time>2021-08-04T12:16:34Z</time>
      </trkpt>
      <trkpt lat="48.22202" lon="7.21904">
        <ele>821.9</ele>
        <time>2021-08-04T12:16:35Z</time>
      </trkpt>
      <trkpt lat="48.22203" lon="7.21904">
        <ele>821.9</ele>
        <time>2021-08-04T12:16:36Z</time>
      </trkpt>
      <trkpt lat="48.22203" lon="7.21903">
        <ele>822</ele>
        <time>2021-08-04T12:16:37Z</time>
      </trkpt>
      <trkpt lat="48.22204" lon="7.21903">
        <ele>822.1</ele>
        <time>2021-08-04T12:16:39Z</time>
      </trkpt>
      <trkpt lat="48.22204" lon="7.21902">
        <ele>822.1</ele>
        <time>2021-08-04T12:16:40Z</time>
      </trkpt>
      <trkpt lat="48.22204" lon="7.21902">
        <ele>822.1</ele>
        <time>2021-08-04T12:16:41Z</time>
      </trkpt>
      <trkpt lat="48.22204" lon="7.21902">
        <ele>822.1</ele>
        <time>2021-08-04T12:16:42Z</time>
      </trkpt>
      <trkpt lat="48.22205" lon="7.21902">
        <ele>822.1</ele>
        <time>2021-08-04T12:16:43Z</time>
      </trkpt>
      <trkpt lat="48.22205" lon="7.21902">
        <ele>822.1</ele>
        <time>2021-08-04T12:16:45Z</time>
      </trkpt>
      <trkpt lat="48.22209" lon="7.21871">
        <ele>823.8</ele>
        <time>2021-08-04T12:17:15Z</time>
      </trkpt>
      <trkpt lat="48.22211" lon="7.21867">
        <ele>824</ele>
        <time>2021-08-04T12:17:16Z</time>
      </trkpt>
      <trkpt lat="48.22214" lon="7.21863">
        <ele>824.2</ele>
        <time>2021-08-04T12:17:17Z</time>
      </trkpt>
      <trkpt lat="48.22216" lon="7.2186">
        <ele>824.4</ele>
        <time>2021-08-04T12:17:18Z</time>
      </trkpt>
      <trkpt lat="48.22218" lon="7.21858">
        <ele>824.4</ele>
        <time>2021-08-04T12:17:19Z</time>
      </trkpt>
      <trkpt lat="48.2222" lon="7.21857">
        <ele>824.5</ele>
        <time>2021-08-04T12:17:21Z</time>
      </trkpt>
      <trkpt lat="48.22221" lon="7.21858">
        <ele>824.5</ele>
        <time>2021-08-04T12:17:22Z</time>
      </trkpt>
      <trkpt lat="48.2222" lon="7.21856">
        <ele>824.6</ele>
        <time>2021-08-04T12:17:24Z</time>
      </trkpt>
      <trkpt lat="48.2222" lon="7.21855">
        <ele>824.6</ele>
        <time>2021-08-04T12:17:25Z</time>
      </trkpt>
      <trkpt lat="48.22219" lon="7.21854">
        <ele>824.6</ele>
        <time>2021-08-04T12:17:27Z</time>
      </trkpt>
      <trkpt lat="48.22219" lon="7.21854">
        <ele>824.7</ele>
        <time>2021-08-04T12:17:29Z</time>
      </trkpt>
      <trkpt lat="48.22218" lon="7.21853">
        <ele>824.7</ele>
        <time>2021-08-04T12:17:30Z</time>
      </trkpt>
      <trkpt lat="48.22218" lon="7.21853">
        <ele>824.7</ele>
        <time>2021-08-04T12:17:32Z</time>
      </trkpt>
      <trkpt lat="48.2222" lon="7.21701">
        <ele>831.8</ele>
        <time>2021-08-04T12:19:31Z</time>
      </trkpt>
      <trkpt lat="48.22227" lon="7.21702">
        <ele>832.5</ele>
        <time>2021-08-04T12:19:33Z</time>
      </trkpt>
      <trkpt lat="48.22231" lon="7.21704">
        <ele>832.9</ele>
        <time>2021-08-04T12:19:34Z</time>
      </trkpt>
      <trkpt lat="48.22235" lon="7.21703">
        <ele>833.3</ele>
        <time>2021-08-04T12:19:36Z</time>
      </trkpt>
      <trkpt lat="48.22236" lon="7.21703">
        <ele>833.4</ele>
        <time>2021-08-04T12:19:37Z</time>
      </trkpt>
      <trkpt lat="48.22237" lon="7.21703">
        <ele>833.4</ele>
        <time>2021-08-04T12:19:38Z</time>
      </trkpt>
      <trkpt lat="48.22237" lon="7.21703">
        <ele>833.5</ele>
        <time>2021-08-04T12:19:39Z</time>
      </trkpt>
      <trkpt lat="48.22239" lon="7.21702">
        <ele>833.7</ele>
        <time>2021-08-04T12:19:41Z</time>
      </trkpt>
      <trkpt lat="48.22241" lon="7.21702">
        <ele>833.8</ele>
        <time>2021-08-04T12:19:42Z</time>
      </trkpt>
      <trkpt lat="48.22242" lon="7.21702">
        <ele>833.9</ele>
        <time>2021-08-04T12:19:43Z</time>
      </trkpt>
      <trkpt lat="48.22281" lon="7.21619">
        <ele>838.2</ele>
        <time>2021-08-04T12:20:55Z</time>
      </trkpt>
      <trkpt lat="48.22283" lon="7.21616">
        <ele>838.3</ele>
        <time>2021-08-04T12:20:56Z</time>
      </trkpt>
      <trkpt lat="48.22286" lon="7.21613">
        <ele>838.4</ele>
        <time>2021-08-04T12:20:57Z</time>
      </trkpt>
      <trkpt lat="48.22288" lon="7.21609">
        <ele>838.5</ele>
        <time>2021-08-04T12:20:58Z</time>
      </trkpt>
      <trkpt lat="48.22289" lon="7.21605">
        <ele>838.6</ele>
        <time>2021-08-04T12:20:59Z</time>
      </trkpt>
      <trkpt lat="48.2229" lon="7.21599">
        <ele>838.6</ele>
        <time>2021-08-04T12:21:01Z</time>
      </trkpt>
      <trkpt lat="48.22291" lon="7.21595">
        <ele>838.7</ele>
        <time>2021-08-04T12:21:02Z</time>
      </trkpt>
      <trkpt lat="48.22291" lon="7.21593">
        <ele>838.7</ele>
        <time>2021-08-04T12:21:03Z</time>
      </trkpt>
      <trkpt lat="48.22292" lon="7.21592">
        <ele>838.7</ele>
        <time>2021-08-04T12:21:05Z</time>
      </trkpt>
      <trkpt lat="48.22292" lon="7.21591">
        <ele>838.7</ele>
        <time>2021-08-04T12:21:06Z</time>
      </trkpt>
      <trkpt lat="48.22292" lon="7.2159">
        <ele>838.7</ele>
        <time>2021-08-04T12:21:07Z</time>
      </trkpt>
      <trkpt lat="48.22294" lon="7.21586">
        <ele>838.8</ele>
        <time>2021-08-04T12:21:09Z</time>
      </trkpt>
      <trkpt lat="48.22295" lon="7.21585">
        <ele>838.8</ele>
        <time>2021-08-04T12:21:10Z</time>
      </trkpt>
      <trkpt lat="48.22297" lon="7.21584">
        <ele>838.8</ele>
        <time>2021-08-04T12:21:11Z</time>
      </trkpt>
      <trkpt lat="48.22315" lon="7.21556">
        <ele>839.7</ele>
        <time>2021-08-04T12:21:23Z</time>
      </trkpt>
      <trkpt lat="48.22318" lon="7.21552">
        <ele>840</ele>
        <time>2021-08-04T12:21:24Z</time>
      </trkpt>
      <trkpt lat="48.22321" lon="7.21548">
        <ele>840.2</ele>
        <time>2021-08-04T12:21:25Z</time>
      </trkpt>
      <trkpt lat="48.22322" lon="7.21546">
        <ele>840.2</ele>
        <time>2021-08-04T12:21:26Z</time>
      </trkpt>
      <trkpt lat="48.22324" lon="7.21541">
        <ele>840.5</ele>
        <time>2021-08-04T12:21:27Z</time>
      </trkpt>
      <trkpt lat="48.22325" lon="7.21538">
        <ele>840.6</ele>
        <time>2021-08-04T12:21:28Z</time>
      </trkpt>
      <trkpt lat="48.22327" lon="7.21533">
        <ele>840.9</ele>
        <time>2021-08-04T12:21:30Z</time>
      </trkpt>
      <trkpt lat="48.22328" lon="7.2153">
        <ele>841</ele>
        <time>2021-08-04T12:21:31Z</time>
      </trkpt>
      <trkpt lat="48.22328" lon="7.21527">
        <ele>841.2</ele>
        <time>2021-08-04T12:21:33Z</time>
      </trkpt>
      <trkpt lat="48.22326" lon="7.21522">
        <ele>841.4</ele>
        <time>2021-08-04T12:21:34Z</time>
      </trkpt>
      <trkpt lat="48.22326" lon="7.21521">
        <ele>841.4</ele>
        <time>2021-08-04T12:21:35Z</time>
      </trkpt>
      <trkpt lat="48.22326" lon="7.2152">
        <ele>841.4</ele>
        <time>2021-08-04T12:21:36Z</time>
      </trkpt>
      <trkpt lat="48.22326" lon="7.2152">
        <ele>841.4</ele>
        <time>2021-08-04T12:21:37Z</time>
      </trkpt>
      <trkpt lat="48.22326" lon="7.21519">
        <ele>841.5</ele>
        <time>2021-08-04T12:21:39Z</time>
      </trkpt>
      <trkpt lat="48.22326" lon="7.21519">
        <ele>841.5</ele>
        <time>2021-08-04T12:21:41Z</time>
      </trkpt>
      <trkpt lat="48.22333" lon="7.2148">
        <ele>842.9</ele>
        <time>2021-08-04T12:22:05Z</time>
      </trkpt>
      <trkpt lat="48.22335" lon="7.21477">
        <ele>843</ele>
        <time>2021-08-04T12:22:06Z</time>
      </trkpt>
      <trkpt lat="48.22337" lon="7.21475">
        <ele>843.1</ele>
        <time>2021-08-04T12:22:07Z</time>
      </trkpt>
      <trkpt lat="48.22339" lon="7.21473">
        <ele>843.2</ele>
        <time>2021-08-04T12:22:09Z</time>
      </trkpt>
      <trkpt lat="48.22339" lon="7.21471">
        <ele>843.3</ele>
        <time>2021-08-04T12:22:10Z</time>
      </trkpt>
      <trkpt lat="48.2234" lon="7.2147">
        <ele>843.3</ele>
        <time>2021-08-04T12:22:11Z</time>
      </trkpt>
      <trkpt lat="48.2234" lon="7.21469">
        <ele>843.3</ele>
        <time>2021-08-04T12:22:12Z</time>
      </trkpt>
      <trkpt lat="48.2234" lon="7.21469">
        <ele>843.3</ele>
        <time>2021-08-04T12:22:13Z</time>
      </trkpt>
      <trkpt lat="48.2234" lon="7.21467">
        <ele>843.4</ele>
        <time>2021-08-04T12:22:14Z</time>
      </trkpt>
      <trkpt lat="48.2234" lon="7.21464">
        <ele>843.5</ele>
        <time>2021-08-04T12:22:16Z</time>
      </trkpt>
      <trkpt lat="48.22339" lon="7.21412">
        <ele>843.9</ele>
        <time>2021-08-04T12:22:46Z</time>
      </trkpt>
      <trkpt lat="48.22339" lon="7.21409">
        <ele>843.9</ele>
        <time>2021-08-04T12:22:47Z</time>
      </trkpt>
      <trkpt lat="48.22339" lon="7.21404">
        <ele>843.9</ele>
        <time>2021-08-04T12:22:49Z</time>
      </trkpt>
      <trkpt lat="48.22339" lon="7.21398">
        <ele>843.9</ele>
        <time>2021-08-04T12:22:50Z</time>
      </trkpt>
      <trkpt lat="48.22339" lon="7.21394">
        <ele>844</ele>
        <time>2021-08-04T12:22:51Z</time>
      </trkpt>
      <trkpt lat="48.22339" lon="7.21388">
        <ele>844</ele>
        <time>2021-08-04T12:22:53Z</time>
      </trkpt>
      <trkpt lat="48.22339" lon="7.21386">
        <ele>844</ele>
        <time>2021-08-04T12:22:54Z</time>
      </trkpt>
      <trkpt lat="48.22339" lon="7.21379">
        <ele>844.1</ele>
        <time>2021-08-04T12:22:55Z</time>
      </trkpt>
      <trkpt lat="48.22339" lon="7.21377">
        <ele>844.2</ele>
        <time>2021-08-04T12:22:56Z</time>
      </trkpt>
      <trkpt lat="48.22338" lon="7.21376">
        <ele>844.2</ele>
        <time>2021-08-04T12:22:57Z</time>
      </trkpt>
      <trkpt lat="48.22338" lon="7.21374">
        <ele>844.3</ele>
        <time>2021-08-04T12:22:58Z</time>
      </trkpt>
      <trkpt lat="48.22335" lon="7.2137">
        <ele>844.4</ele>
        <time>2021-08-04T12:23:00Z</time>
      </trkpt>
      <trkpt lat="48.22334" lon="7.21368">
        <ele>844.5</ele>
        <time>2021-08-04T12:23:01Z</time>
      </trkpt>
      <trkpt lat="48.22331" lon="7.21364">
        <ele>844.7</ele>
        <time>2021-08-04T12:23:03Z</time>
      </trkpt>
      <trkpt lat="48.2233" lon="7.21362">
        <ele>844.8</ele>
        <time>2021-08-04T12:23:04Z</time>
      </trkpt>
      <trkpt lat="48.22329" lon="7.21361">
        <ele>844.9</ele>
        <time>2021-08-04T12:23:05Z</time>
      </trkpt>
      <trkpt lat="48.22328" lon="7.21359">
        <ele>844.9</ele>
        <time>2021-08-04T12:23:06Z</time>
      </trkpt>
      <trkpt lat="48.22326" lon="7.21357">
        <ele>845.1</ele>
        <time>2021-08-04T12:23:07Z</time>
      </trkpt>
      <trkpt lat="48.22326" lon="7.21355">
        <ele>845.1</ele>
        <time>2021-08-04T12:23:08Z</time>
      </trkpt>
      <trkpt lat="48.22324" lon="7.21352">
        <ele>845.3</ele>
        <time>2021-08-04T12:23:10Z</time>
      </trkpt>
      <trkpt lat="48.22323" lon="7.2135">
        <ele>845.4</ele>
        <time>2021-08-04T12:23:11Z</time>
      </trkpt>
      <trkpt lat="48.22322" lon="7.21348">
        <ele>845.5</ele>
        <time>2021-08-04T12:23:13Z</time>
      </trkpt>
      <trkpt lat="48.22319" lon="7.21343">
        <ele>845.7</ele>
        <time>2021-08-04T12:23:14Z</time>
      </trkpt>
      <trkpt lat="48.22318" lon="7.21341">
        <ele>845.8</ele>
        <time>2021-08-04T12:23:15Z</time>
      </trkpt>
      <trkpt lat="48.22317" lon="7.21338">
        <ele>845.9</ele>
        <time>2021-08-04T12:23:17Z</time>
      </trkpt>
      <trkpt lat="48.22316" lon="7.21334">
        <ele>846.1</ele>
        <time>2021-08-04T12:23:19Z</time>
      </trkpt>
      <trkpt lat="48.22316" lon="7.21332">
        <ele>846.2</ele>
        <time>2021-08-04T12:23:20Z</time>
      </trkpt>
      <trkpt lat="48.22315" lon="7.21328">
        <ele>846.4</ele>
        <time>2021-08-04T12:23:21Z</time>
      </trkpt>
      <trkpt lat="48.22315" lon="7.21327">
        <ele>846.5</ele>
        <time>2021-08-04T12:23:23Z</time>
      </trkpt>
      <trkpt lat="48.22315" lon="7.21325">
        <ele>846.6</ele>
        <time>2021-08-04T12:23:24Z</time>
      </trkpt>
      <trkpt lat="48.22314" lon="7.21324">
        <ele>846.6</ele>
        <time>2021-08-04T12:23:26Z</time>
      </trkpt>
      <trkpt lat="48.22314" lon="7.21322">
        <ele>846.7</ele>
        <time>2021-08-04T12:23:27Z</time>
      </trkpt>
      <trkpt lat="48.22314" lon="7.21321">
        <ele>846.8</ele>
        <time>2021-08-04T12:23:28Z</time>
      </trkpt>
      <trkpt lat="48.22313" lon="7.21319">
        <ele>846.9</ele>
        <time>2021-08-04T12:23:29Z</time>
      </trkpt>
      <trkpt lat="48.22313" lon="7.21318">
        <ele>846.9</ele>
        <time>2021-08-04T12:23:31Z</time>
      </trkpt>
      <trkpt lat="48.22313" lon="7.21316">
        <ele>847</ele>
        <time>2021-08-04T12:23:32Z</time>
      </trkpt>
      <trkpt lat="48.22312" lon="7.21315">
        <ele>847.1</ele>
        <time>2021-08-04T12:23:33Z</time>
      </trkpt>
      <trkpt lat="48.22312" lon="7.21313">
        <ele>847.2</ele>
        <time>2021-08-04T12:23:36Z</time>
      </trkpt>
      <trkpt lat="48.22311" lon="7.21312">
        <ele>847.3</ele>
        <time>2021-08-04T12:23:37Z</time>
      </trkpt>
      <trkpt lat="48.22311" lon="7.2131">
        <ele>847.3</ele>
        <time>2021-08-04T12:23:38Z</time>
      </trkpt>
      <trkpt lat="48.2231" lon="7.21307">
        <ele>847.5</ele>
        <time>2021-08-04T12:23:39Z</time>
      </trkpt>
      <trkpt lat="48.22308" lon="7.21304">
        <ele>847.7</ele>
        <time>2021-08-04T12:23:41Z</time>
      </trkpt>
      <trkpt lat="48.22306" lon="7.21302">
        <ele>847.9</ele>
        <time>2021-08-04T12:23:42Z</time>
      </trkpt>
      <trkpt lat="48.22305" lon="7.21299">
        <ele>848.1</ele>
        <time>2021-08-04T12:23:44Z</time>
      </trkpt>
      <trkpt lat="48.22305" lon="7.21295">
        <ele>848.3</ele>
        <time>2021-08-04T12:23:45Z</time>
      </trkpt>
      <trkpt lat="48.22304" lon="7.21289">
        <ele>848.6</ele>
        <time>2021-08-04T12:23:47Z</time>
      </trkpt>
      <trkpt lat="48.22303" lon="7.21286">
        <ele>848.8</ele>
        <time>2021-08-04T12:23:48Z</time>
      </trkpt>
      <trkpt lat="48.22303" lon="7.21285">
        <ele>848.8</ele>
        <time>2021-08-04T12:23:49Z</time>
      </trkpt>
      <trkpt lat="48.22303" lon="7.21284">
        <ele>848.9</ele>
        <time>2021-08-04T12:23:50Z</time>
      </trkpt>
      <trkpt lat="48.22301" lon="7.2128">
        <ele>849.2</ele>
        <time>2021-08-04T12:23:52Z</time>
      </trkpt>
      <trkpt lat="48.223" lon="7.2128">
        <ele>849.2</ele>
        <time>2021-08-04T12:23:53Z</time>
      </trkpt>
      <trkpt lat="48.22299" lon="7.21277">
        <ele>849.4</ele>
        <time>2021-08-04T12:23:55Z</time>
      </trkpt>
      <trkpt lat="48.22298" lon="7.21276">
        <ele>849.5</ele>
        <time>2021-08-04T12:23:56Z</time>
      </trkpt>
      <trkpt lat="48.22298" lon="7.21272">
        <ele>849.7</ele>
        <time>2021-08-04T12:23:57Z</time>
      </trkpt>
      <trkpt lat="48.22299" lon="7.21271">
        <ele>849.8</ele>
        <time>2021-08-04T12:23:58Z</time>
      </trkpt>
      <trkpt lat="48.22299" lon="7.21269">
        <ele>849.9</ele>
        <time>2021-08-04T12:23:59Z</time>
      </trkpt>
      <trkpt lat="48.22301" lon="7.21261">
        <ele>850.3</ele>
        <time>2021-08-04T12:24:01Z</time>
      </trkpt>
      <trkpt lat="48.22303" lon="7.21259">
        <ele>850.5</ele>
        <time>2021-08-04T12:24:03Z</time>
      </trkpt>
      <trkpt lat="48.22304" lon="7.21259">
        <ele>850.5</ele>
        <time>2021-08-04T12:24:04Z</time>
      </trkpt>
      <trkpt lat="48.22304" lon="7.21258">
        <ele>850.6</ele>
        <time>2021-08-04T12:24:05Z</time>
      </trkpt>
      <trkpt lat="48.22303" lon="7.21256">
        <ele>850.6</ele>
        <time>2021-08-04T12:24:06Z</time>
      </trkpt>
      <trkpt lat="48.22301" lon="7.21257">
        <ele>850.7</ele>
        <time>2021-08-04T12:24:07Z</time>
      </trkpt>
      <trkpt lat="48.22297" lon="7.21258">
        <ele>850.9</ele>
        <time>2021-08-04T12:24:09Z</time>
      </trkpt>
      <trkpt lat="48.22295" lon="7.2126">
        <ele>851</ele>
        <time>2021-08-04T12:24:10Z</time>
      </trkpt>
      <trkpt lat="48.22294" lon="7.2126">
        <ele>851</ele>
        <time>2021-08-04T12:24:11Z</time>
      </trkpt>
      <trkpt lat="48.22293" lon="7.2126">
        <ele>851.1</ele>
        <time>2021-08-04T12:24:13Z</time>
      </trkpt>
      <trkpt lat="48.22292" lon="7.2126">
        <ele>851.1</ele>
        <time>2021-08-04T12:24:14Z</time>
      </trkpt>
      <trkpt lat="48.22289" lon="7.21258">
        <ele>851.1</ele>
        <time>2021-08-04T12:24:15Z</time>
      </trkpt>
      <trkpt lat="48.22288" lon="7.21257">
        <ele>851.1</ele>
        <time>2021-08-04T12:24:16Z</time>
      </trkpt>
      <trkpt lat="48.22287" lon="7.21256">
        <ele>851.1</ele>
        <time>2021-08-04T12:24:17Z</time>
      </trkpt>
      <trkpt lat="48.22286" lon="7.21255">
        <ele>851.1</ele>
        <time>2021-08-04T12:24:18Z</time>
      </trkpt>
      <trkpt lat="48.22286" lon="7.21255">
        <ele>851.1</ele>
        <time>2021-08-04T12:24:19Z</time>
      </trkpt>
      <trkpt lat="48.22283" lon="7.21254">
        <ele>851</ele>
        <time>2021-08-04T12:24:21Z</time>
      </trkpt>
      <trkpt lat="48.22283" lon="7.21253">
        <ele>851</ele>
        <time>2021-08-04T12:24:22Z</time>
      </trkpt>
      <trkpt lat="48.22282" lon="7.21253">
        <ele>851</ele>
        <time>2021-08-04T12:24:23Z</time>
      </trkpt>
      <trkpt lat="48.22281" lon="7.21253">
        <ele>851</ele>
        <time>2021-08-04T12:24:24Z</time>
      </trkpt>
      <trkpt lat="48.22281" lon="7.21253">
        <ele>851</ele>
        <time>2021-08-04T12:24:25Z</time>
      </trkpt>
      <trkpt lat="48.2228" lon="7.21253">
        <ele>851</ele>
        <time>2021-08-04T12:24:27Z</time>
      </trkpt>
      <trkpt lat="48.2228" lon="7.21253">
        <ele>850.9</ele>
        <time>2021-08-04T12:24:28Z</time>
      </trkpt>
      <trkpt lat="48.22279" lon="7.21253">
        <ele>850.9</ele>
        <time>2021-08-04T12:24:30Z</time>
      </trkpt>
      <trkpt lat="48.22278" lon="7.21254">
        <ele>850.9</ele>
        <time>2021-08-04T12:24:31Z</time>
      </trkpt>
      <trkpt lat="48.22277" lon="7.21254">
        <ele>850.9</ele>
        <time>2021-08-04T12:24:32Z</time>
      </trkpt>
      <trkpt lat="48.22275" lon="7.21258">
        <ele>850.7</ele>
        <time>2021-08-04T12:24:35Z</time>
      </trkpt>
      <trkpt lat="48.22272" lon="7.21261">
        <ele>850.5</ele>
        <time>2021-08-04T12:24:36Z</time>
      </trkpt>
      <trkpt lat="48.22271" lon="7.21264">
        <ele>850.4</ele>
        <time>2021-08-04T12:24:37Z</time>
      </trkpt>
      <trkpt lat="48.22269" lon="7.21267">
        <ele>850.2</ele>
        <time>2021-08-04T12:24:39Z</time>
      </trkpt>
      <trkpt lat="48.22267" lon="7.2127">
        <ele>850</ele>
        <time>2021-08-04T12:24:40Z</time>
      </trkpt>
      <trkpt lat="48.22266" lon="7.21273">
        <ele>849.8</ele>
        <time>2021-08-04T12:24:41Z</time>
      </trkpt>
      <trkpt lat="48.22266" lon="7.21278">
        <ele>849.5</ele>
        <time>2021-08-04T12:24:43Z</time>
      </trkpt>
      <trkpt lat="48.22269" lon="7.21284">
        <ele>849.1</ele>
        <time>2021-08-04T12:24:44Z</time>
      </trkpt>
      <trkpt lat="48.2227" lon="7.21288">
        <ele>848.8</ele>
        <time>2021-08-04T12:24:45Z</time>
      </trkpt>
      <trkpt lat="48.2227" lon="7.21293">
        <ele>848.4</ele>
        <time>2021-08-04T12:24:47Z</time>
      </trkpt>
      <trkpt lat="48.22271" lon="7.21302">
        <ele>847.8</ele>
        <time>2021-08-04T12:24:49Z</time>
      </trkpt>
      <trkpt lat="48.2227" lon="7.21308">
        <ele>847.3</ele>
        <time>2021-08-04T12:24:50Z</time>
      </trkpt>
      <trkpt lat="48.22269" lon="7.21315">
        <ele>846.8</ele>
        <time>2021-08-04T12:24:51Z</time>
      </trkpt>
      <trkpt lat="48.22268" lon="7.21323">
        <ele>846.2</ele>
        <time>2021-08-04T12:24:52Z</time>
      </trkpt>
      <trkpt lat="48.22264" lon="7.21336">
        <ele>845.3</ele>
        <time>2021-08-04T12:24:54Z</time>
      </trkpt>
      <trkpt lat="48.22261" lon="7.21343">
        <ele>844.8</ele>
        <time>2021-08-04T12:24:55Z</time>
      </trkpt>
      <trkpt lat="48.22258" lon="7.2135">
        <ele>844.3</ele>
        <time>2021-08-04T12:24:56Z</time>
      </trkpt>
      <trkpt lat="48.22255" lon="7.21357">
        <ele>843.9</ele>
        <time>2021-08-04T12:24:57Z</time>
      </trkpt>
      <trkpt lat="48.22252" lon="7.21364">
        <ele>843.5</ele>
        <time>2021-08-04T12:24:58Z</time>
      </trkpt>
      <trkpt lat="48.22245" lon="7.21374">
        <ele>842.7</ele>
        <time>2021-08-04T12:25:00Z</time>
      </trkpt>
      <trkpt lat="48.22238" lon="7.21383">
        <ele>841.9</ele>
        <time>2021-08-04T12:25:01Z</time>
      </trkpt>
      <trkpt lat="48.2223" lon="7.2139">
        <ele>841.1</ele>
        <time>2021-08-04T12:25:03Z</time>
      </trkpt>
      <trkpt lat="48.22224" lon="7.21392">
        <ele>840.6</ele>
        <time>2021-08-04T12:25:04Z</time>
      </trkpt>
      <trkpt lat="48.22218" lon="7.2139">
        <ele>840</ele>
        <time>2021-08-04T12:25:05Z</time>
      </trkpt>
      <trkpt lat="48.22209" lon="7.21389">
        <ele>839.4</ele>
        <time>2021-08-04T12:25:07Z</time>
      </trkpt>
      <trkpt lat="48.22204" lon="7.21388">
        <ele>839.1</ele>
        <time>2021-08-04T12:25:08Z</time>
      </trkpt>
      <trkpt lat="48.222" lon="7.21384">
        <ele>838.9</ele>
        <time>2021-08-04T12:25:09Z</time>
      </trkpt>
      <trkpt lat="48.22196" lon="7.2138">
        <ele>838.8</ele>
        <time>2021-08-04T12:25:10Z</time>
      </trkpt>
      <trkpt lat="48.22188" lon="7.21373">
        <ele>838.9</ele>
        <time>2021-08-04T12:25:12Z</time>
      </trkpt>
      <trkpt lat="48.22183" lon="7.21368">
        <ele>839.1</ele>
        <time>2021-08-04T12:25:13Z</time>
      </trkpt>
      <trkpt lat="48.22179" lon="7.21364">
        <ele>839.4</ele>
        <time>2021-08-04T12:25:15Z</time>
      </trkpt>
      <trkpt lat="48.22176" lon="7.2136">
        <ele>839.6</ele>
        <time>2021-08-04T12:25:16Z</time>
      </trkpt>
      <trkpt lat="48.22171" lon="7.21357">
        <ele>840</ele>
        <time>2021-08-04T12:25:18Z</time>
      </trkpt>
      <trkpt lat="48.22169" lon="7.21355">
        <ele>840.2</ele>
        <time>2021-08-04T12:25:19Z</time>
      </trkpt>
      <trkpt lat="48.22166" lon="7.21354">
        <ele>840.4</ele>
        <time>2021-08-04T12:25:20Z</time>
      </trkpt>
      <trkpt lat="48.22161" lon="7.21353">
        <ele>840.7</ele>
        <time>2021-08-04T12:25:21Z</time>
      </trkpt>
      <trkpt lat="48.22158" lon="7.2135">
        <ele>840.9</ele>
        <time>2021-08-04T12:25:23Z</time>
      </trkpt>
      <trkpt lat="48.22158" lon="7.2135">
        <ele>841</ele>
        <time>2021-08-04T12:25:24Z</time>
      </trkpt>
      <trkpt lat="48.22155" lon="7.21348">
        <ele>841.2</ele>
        <time>2021-08-04T12:25:25Z</time>
      </trkpt>
      <trkpt lat="48.22152" lon="7.21345">
        <ele>841.4</ele>
        <time>2021-08-04T12:25:27Z</time>
      </trkpt>
      <trkpt lat="48.22151" lon="7.21344">
        <ele>841.5</ele>
        <time>2021-08-04T12:25:28Z</time>
      </trkpt>
      <trkpt lat="48.22149" lon="7.21343">
        <ele>841.7</ele>
        <time>2021-08-04T12:25:29Z</time>
      </trkpt>
      <trkpt lat="48.22127" lon="7.21317">
        <ele>843.1</ele>
        <time>2021-08-04T12:25:33Z</time>
      </trkpt>
      <trkpt lat="48.22125" lon="7.21314">
        <ele>843.2</ele>
        <time>2021-08-04T12:25:34Z</time>
      </trkpt>
      <trkpt lat="48.22122" lon="7.21312">
        <ele>843.3</ele>
        <time>2021-08-04T12:25:35Z</time>
      </trkpt>
      <trkpt lat="48.22118" lon="7.2131">
        <ele>843.4</ele>
        <time>2021-08-04T12:25:37Z</time>
      </trkpt>
      <trkpt lat="48.22112" lon="7.21303">
        <ele>843.7</ele>
        <time>2021-08-04T12:25:39Z</time>
      </trkpt>
      <trkpt lat="48.2211" lon="7.213">
        <ele>843.7</ele>
        <time>2021-08-04T12:25:40Z</time>
      </trkpt>
      <trkpt lat="48.22106" lon="7.21295">
        <ele>843.9</ele>
        <time>2021-08-04T12:25:42Z</time>
      </trkpt>
      <trkpt lat="48.22104" lon="7.21293">
        <ele>843.9</ele>
        <time>2021-08-04T12:25:43Z</time>
      </trkpt>
      <trkpt lat="48.22102" lon="7.21287">
        <ele>844.1</ele>
        <time>2021-08-04T12:25:45Z</time>
      </trkpt>
      <trkpt lat="48.22101" lon="7.21281">
        <ele>844.2</ele>
        <time>2021-08-04T12:25:46Z</time>
      </trkpt>
      <trkpt lat="48.221" lon="7.21279">
        <ele>844.2</ele>
        <time>2021-08-04T12:25:47Z</time>
      </trkpt>
      <trkpt lat="48.22098" lon="7.21277">
        <ele>844.3</ele>
        <time>2021-08-04T12:25:49Z</time>
      </trkpt>
      <trkpt lat="48.22097" lon="7.21278">
        <ele>844.3</ele>
        <time>2021-08-04T12:25:51Z</time>
      </trkpt>
      <trkpt lat="48.22096" lon="7.21278">
        <ele>844.4</ele>
        <time>2021-08-04T12:25:52Z</time>
      </trkpt>
      <trkpt lat="48.22094" lon="7.2128">
        <ele>844.4</ele>
        <time>2021-08-04T12:25:54Z</time>
      </trkpt>
      <trkpt lat="48.22094" lon="7.21279">
        <ele>844.4</ele>
        <time>2021-08-04T12:25:55Z</time>
      </trkpt>
      <trkpt lat="48.22094" lon="7.21279">
        <ele>844.4</ele>
        <time>2021-08-04T12:25:56Z</time>
      </trkpt>
      <trkpt lat="48.22093" lon="7.21278">
        <ele>844.5</ele>
        <time>2021-08-04T12:25:58Z</time>
      </trkpt>
      <trkpt lat="48.22071" lon="7.21269">
        <ele>845.2</ele>
        <time>2021-08-04T12:26:16Z</time>
      </trkpt>
      <trkpt lat="48.22067" lon="7.21269">
        <ele>845.3</ele>
        <time>2021-08-04T12:26:18Z</time>
      </trkpt>
      <trkpt lat="48.22063" lon="7.21271">
        <ele>845.5</ele>
        <time>2021-08-04T12:26:19Z</time>
      </trkpt>
      <trkpt lat="48.22059" lon="7.21275">
        <ele>845.7</ele>
        <time>2021-08-04T12:26:21Z</time>
      </trkpt>
      <trkpt lat="48.22056" lon="7.21278">
        <ele>845.8</ele>
        <time>2021-08-04T12:26:22Z</time>
      </trkpt>
      <trkpt lat="48.22052" lon="7.21281">
        <ele>846</ele>
        <time>2021-08-04T12:26:23Z</time>
      </trkpt>
      <trkpt lat="48.22047" lon="7.21286">
        <ele>846.2</ele>
        <time>2021-08-04T12:26:25Z</time>
      </trkpt>
      <trkpt lat="48.22043" lon="7.21289">
        <ele>846.4</ele>
        <time>2021-08-04T12:26:26Z</time>
      </trkpt>
      <trkpt lat="48.22039" lon="7.21293">
        <ele>846.7</ele>
        <time>2021-08-04T12:26:27Z</time>
      </trkpt>
      <trkpt lat="48.22031" lon="7.21302">
        <ele>847.1</ele>
        <time>2021-08-04T12:26:28Z</time>
      </trkpt>
      <trkpt lat="48.22028" lon="7.21307">
        <ele>847.4</ele>
        <time>2021-08-04T12:26:30Z</time>
      </trkpt>
      <trkpt lat="48.22025" lon="7.21312">
        <ele>847.6</ele>
        <time>2021-08-04T12:26:31Z</time>
      </trkpt>
      <trkpt lat="48.22021" lon="7.21318">
        <ele>847.7</ele>
        <time>2021-08-04T12:26:32Z</time>
      </trkpt>
      <trkpt lat="48.22017" lon="7.21323">
        <ele>847.9</ele>
        <time>2021-08-04T12:26:34Z</time>
      </trkpt>
      <trkpt lat="48.22015" lon="7.21327">
        <ele>848</ele>
        <time>2021-08-04T12:26:35Z</time>
      </trkpt>
      <trkpt lat="48.22012" lon="7.2133">
        <ele>848</ele>
        <time>2021-08-04T12:26:36Z</time>
      </trkpt>
      <trkpt lat="48.22009" lon="7.21332">
        <ele>848.1</ele>
        <time>2021-08-04T12:26:37Z</time>
      </trkpt>
      <trkpt lat="48.22006" lon="7.21339">
        <ele>848.2</ele>
        <time>2021-08-04T12:26:39Z</time>
      </trkpt>
      <trkpt lat="48.22005" lon="7.21343">
        <ele>848.2</ele>
        <time>2021-08-04T12:26:40Z</time>
      </trkpt>
      <trkpt lat="48.22006" lon="7.21347">
        <ele>848.2</ele>
        <time>2021-08-04T12:26:41Z</time>
      </trkpt>
      <trkpt lat="48.22007" lon="7.21349">
        <ele>848.2</ele>
        <time>2021-08-04T12:26:42Z</time>
      </trkpt>
      <trkpt lat="48.2201" lon="7.21352">
        <ele>848.2</ele>
        <time>2021-08-04T12:26:44Z</time>
      </trkpt>
      <trkpt lat="48.22011" lon="7.21353">
        <ele>848.2</ele>
        <time>2021-08-04T12:26:45Z</time>
      </trkpt>
      <trkpt lat="48.22011" lon="7.21353">
        <ele>848.2</ele>
        <time>2021-08-04T12:26:46Z</time>
      </trkpt>
      <trkpt lat="48.22012" lon="7.21353">
        <ele>848.2</ele>
        <time>2021-08-04T12:26:47Z</time>
      </trkpt>
      <trkpt lat="48.22013" lon="7.21353">
        <ele>848.2</ele>
        <time>2021-08-04T12:26:48Z</time>
      </trkpt>
      <trkpt lat="48.22013" lon="7.21354">
        <ele>848.2</ele>
        <time>2021-08-04T12:26:49Z</time>
      </trkpt>
      <trkpt lat="48.22014" lon="7.21355">
        <ele>848.2</ele>
        <time>2021-08-04T12:26:51Z</time>
      </trkpt>
      <trkpt lat="48.22014" lon="7.21356">
        <ele>848.1</ele>
        <time>2021-08-04T12:26:52Z</time>
      </trkpt>
      <trkpt lat="48.22015" lon="7.21359">
        <ele>848.1</ele>
        <time>2021-08-04T12:26:53Z</time>
      </trkpt>
      <trkpt lat="48.22014" lon="7.21361">
        <ele>848.1</ele>
        <time>2021-08-04T12:26:55Z</time>
      </trkpt>
      <trkpt lat="48.22015" lon="7.21365">
        <ele>848.1</ele>
        <time>2021-08-04T12:26:57Z</time>
      </trkpt>
      <trkpt lat="48.22017" lon="7.2137">
        <ele>848</ele>
        <time>2021-08-04T12:26:58Z</time>
      </trkpt>
      <trkpt lat="48.22016" lon="7.21375">
        <ele>847.9</ele>
        <time>2021-08-04T12:26:59Z</time>
      </trkpt>
      <trkpt lat="48.22011" lon="7.21385">
        <ele>847.7</ele>
        <time>2021-08-04T12:27:01Z</time>
      </trkpt>
      <trkpt lat="48.22009" lon="7.21391">
        <ele>847.6</ele>
        <time>2021-08-04T12:27:02Z</time>
      </trkpt>
      <trkpt lat="48.22006" lon="7.21396">
        <ele>847.5</ele>
        <time>2021-08-04T12:27:03Z</time>
      </trkpt>
      <trkpt lat="48.22004" lon="7.21401">
        <ele>847.4</ele>
        <time>2021-08-04T12:27:04Z</time>
      </trkpt>
      <trkpt lat="48.22003" lon="7.21406">
        <ele>847.3</ele>
        <time>2021-08-04T12:27:05Z</time>
      </trkpt>
      <trkpt lat="48.22003" lon="7.21412">
        <ele>847.2</ele>
        <time>2021-08-04T12:27:06Z</time>
      </trkpt>
      <trkpt lat="48.22004" lon="7.21415">
        <ele>847.2</ele>
        <time>2021-08-04T12:27:07Z</time>
      </trkpt>
      <trkpt lat="48.22006" lon="7.21419">
        <ele>847.1</ele>
        <time>2021-08-04T12:27:09Z</time>
      </trkpt>
      <trkpt lat="48.22006" lon="7.21423">
        <ele>847</ele>
        <time>2021-08-04T12:27:10Z</time>
      </trkpt>
      <trkpt lat="48.22007" lon="7.21428">
        <ele>846.9</ele>
        <time>2021-08-04T12:27:11Z</time>
      </trkpt>
      <trkpt lat="48.22008" lon="7.21432">
        <ele>846.9</ele>
        <time>2021-08-04T12:27:12Z</time>
      </trkpt>
      <trkpt lat="48.22007" lon="7.21436">
        <ele>846.8</ele>
        <time>2021-08-04T12:27:13Z</time>
      </trkpt>
      <trkpt lat="48.22008" lon="7.21441">
        <ele>846.7</ele>
        <time>2021-08-04T12:27:15Z</time>
      </trkpt>
      <trkpt lat="48.22008" lon="7.21446">
        <ele>846.6</ele>
        <time>2021-08-04T12:27:16Z</time>
      </trkpt>
      <trkpt lat="48.22007" lon="7.2145">
        <ele>846.6</ele>
        <time>2021-08-04T12:27:18Z</time>
      </trkpt>
      <trkpt lat="48.22006" lon="7.21454">
        <ele>846.5</ele>
        <time>2021-08-04T12:27:19Z</time>
      </trkpt>
      <trkpt lat="48.22004" lon="7.21461">
        <ele>846.3</ele>
        <time>2021-08-04T12:27:21Z</time>
      </trkpt>
      <trkpt lat="48.22001" lon="7.21463">
        <ele>846.2</ele>
        <time>2021-08-04T12:27:22Z</time>
      </trkpt>
      <trkpt lat="48.21998" lon="7.21466">
        <ele>846.1</ele>
        <time>2021-08-04T12:27:23Z</time>
      </trkpt>
      <trkpt lat="48.21995" lon="7.21471">
        <ele>846</ele>
        <time>2021-08-04T12:27:25Z</time>
      </trkpt>
      <trkpt lat="48.21995" lon="7.21474">
        <ele>845.9</ele>
        <time>2021-08-04T12:27:26Z</time>
      </trkpt>
      <trkpt lat="48.21995" lon="7.21476">
        <ele>845.9</ele>
        <time>2021-08-04T12:27:27Z</time>
      </trkpt>
      <trkpt lat="48.21997" lon="7.2148">
        <ele>845.8</ele>
        <time>2021-08-04T12:27:29Z</time>
      </trkpt>
      <trkpt lat="48.21999" lon="7.21486">
        <ele>845.6</ele>
        <time>2021-08-04T12:27:30Z</time>
      </trkpt>
      <trkpt lat="48.22002" lon="7.21491">
        <ele>845.5</ele>
        <time>2021-08-04T12:27:32Z</time>
      </trkpt>
      <trkpt lat="48.22003" lon="7.21496">
        <ele>845.4</ele>
        <time>2021-08-04T12:27:33Z</time>
      </trkpt>
      <trkpt lat="48.22004" lon="7.21498">
        <ele>845.4</ele>
        <time>2021-08-04T12:27:34Z</time>
      </trkpt>
      <trkpt lat="48.22007" lon="7.21504">
        <ele>845.2</ele>
        <time>2021-08-04T12:27:36Z</time>
      </trkpt>
      <trkpt lat="48.22008" lon="7.21508">
        <ele>845.1</ele>
        <time>2021-08-04T12:27:37Z</time>
      </trkpt>
      <trkpt lat="48.2201" lon="7.21512">
        <ele>845</ele>
        <time>2021-08-04T12:27:38Z</time>
      </trkpt>
      <trkpt lat="48.22011" lon="7.21519">
        <ele>844.8</ele>
        <time>2021-08-04T12:27:40Z</time>
      </trkpt>
      <trkpt lat="48.22012" lon="7.21524">
        <ele>844.7</ele>
        <time>2021-08-04T12:27:41Z</time>
      </trkpt>
      <trkpt lat="48.22014" lon="7.21531">
        <ele>844.5</ele>
        <time>2021-08-04T12:27:42Z</time>
      </trkpt>
      <trkpt lat="48.22015" lon="7.21535">
        <ele>844.4</ele>
        <time>2021-08-04T12:27:43Z</time>
      </trkpt>
      <trkpt lat="48.22017" lon="7.21543">
        <ele>844.2</ele>
        <time>2021-08-04T12:27:45Z</time>
      </trkpt>
      <trkpt lat="48.22018" lon="7.21547">
        <ele>844.1</ele>
        <time>2021-08-04T12:27:46Z</time>
      </trkpt>
      <trkpt lat="48.22018" lon="7.21553">
        <ele>843.9</ele>
        <time>2021-08-04T12:27:48Z</time>
      </trkpt>
      <trkpt lat="48.22018" lon="7.21558">
        <ele>843.8</ele>
        <time>2021-08-04T12:27:49Z</time>
      </trkpt>
      <trkpt lat="48.22016" lon="7.21564">
        <ele>843.6</ele>
        <time>2021-08-04T12:27:51Z</time>
      </trkpt>
      <trkpt lat="48.22015" lon="7.2157">
        <ele>843.4</ele>
        <time>2021-08-04T12:27:52Z</time>
      </trkpt>
      <trkpt lat="48.22014" lon="7.21576">
        <ele>843.3</ele>
        <time>2021-08-04T12:27:53Z</time>
      </trkpt>
      <trkpt lat="48.22014" lon="7.21582">
        <ele>843.1</ele>
        <time>2021-08-04T12:27:55Z</time>
      </trkpt>
      <trkpt lat="48.22014" lon="7.21588">
        <ele>842.9</ele>
        <time>2021-08-04T12:27:56Z</time>
      </trkpt>
      <trkpt lat="48.22014" lon="7.21595">
        <ele>842.7</ele>
        <time>2021-08-04T12:27:57Z</time>
      </trkpt>
      <trkpt lat="48.22012" lon="7.21601">
        <ele>842.5</ele>
        <time>2021-08-04T12:27:59Z</time>
      </trkpt>
      <trkpt lat="48.22012" lon="7.21606">
        <ele>842.3</ele>
        <time>2021-08-04T12:28:00Z</time>
      </trkpt>
      <trkpt lat="48.22012" lon="7.21611">
        <ele>842.2</ele>
        <time>2021-08-04T12:28:01Z</time>
      </trkpt>
      <trkpt lat="48.22011" lon="7.2162">
        <ele>842</ele>
        <time>2021-08-04T12:28:03Z</time>
      </trkpt>
      <trkpt lat="48.22009" lon="7.21629">
        <ele>841.8</ele>
        <time>2021-08-04T12:28:04Z</time>
      </trkpt>
      <trkpt lat="48.22005" lon="7.21642">
        <ele>841.6</ele>
        <time>2021-08-04T12:28:05Z</time>
      </trkpt>
      <trkpt lat="48.22002" lon="7.21652">
        <ele>841.6</ele>
        <time>2021-08-04T12:28:06Z</time>
      </trkpt>
      <trkpt lat="48.22" lon="7.21662">
        <ele>841.6</ele>
        <time>2021-08-04T12:28:07Z</time>
      </trkpt>
      <trkpt lat="48.21997" lon="7.21682">
        <ele>841.5</ele>
        <time>2021-08-04T12:28:09Z</time>
      </trkpt>
      <trkpt lat="48.21993" lon="7.21701">
        <ele>841.4</ele>
        <time>2021-08-04T12:28:11Z</time>
      </trkpt>
      <trkpt lat="48.21988" lon="7.21717">
        <ele>841.2</ele>
        <time>2021-08-04T12:28:13Z</time>
      </trkpt>
      <trkpt lat="48.21982" lon="7.21733">
        <ele>840.9</ele>
        <time>2021-08-04T12:28:15Z</time>
      </trkpt>
      <trkpt lat="48.2198" lon="7.21737">
        <ele>840.7</ele>
        <time>2021-08-04T12:28:16Z</time>
      </trkpt>
      <trkpt lat="48.21977" lon="7.21742">
        <ele>840.5</ele>
        <time>2021-08-04T12:28:17Z</time>
      </trkpt>
      <trkpt lat="48.21973" lon="7.21747">
        <ele>840.3</ele>
        <time>2021-08-04T12:28:18Z</time>
      </trkpt>
      <trkpt lat="48.21969" lon="7.2175">
        <ele>840.1</ele>
        <time>2021-08-04T12:28:19Z</time>
      </trkpt>
      <trkpt lat="48.21961" lon="7.21752">
        <ele>839.8</ele>
        <time>2021-08-04T12:28:21Z</time>
      </trkpt>
      <trkpt lat="48.21958" lon="7.21753">
        <ele>839.7</ele>
        <time>2021-08-04T12:28:22Z</time>
      </trkpt>
      <trkpt lat="48.21955" lon="7.21754">
        <ele>839.6</ele>
        <time>2021-08-04T12:28:23Z</time>
      </trkpt>
      <trkpt lat="48.21952" lon="7.21756">
        <ele>839.4</ele>
        <time>2021-08-04T12:28:24Z</time>
      </trkpt>
      <trkpt lat="48.21949" lon="7.21759">
        <ele>839.3</ele>
        <time>2021-08-04T12:28:25Z</time>
      </trkpt>
      <trkpt lat="48.21944" lon="7.21763">
        <ele>839</ele>
        <time>2021-08-04T12:28:26Z</time>
      </trkpt>
      <trkpt lat="48.21936" lon="7.21772">
        <ele>838.6</ele>
        <time>2021-08-04T12:28:28Z</time>
      </trkpt>
      <trkpt lat="48.2193" lon="7.21772">
        <ele>838.4</ele>
        <time>2021-08-04T12:28:29Z</time>
      </trkpt>
      <trkpt lat="48.21925" lon="7.21778">
        <ele>838.2</ele>
        <time>2021-08-04T12:28:30Z</time>
      </trkpt>
      <trkpt lat="48.2192" lon="7.21782">
        <ele>838</ele>
        <time>2021-08-04T12:28:32Z</time>
      </trkpt>
      <trkpt lat="48.21916" lon="7.21786">
        <ele>837.9</ele>
        <time>2021-08-04T12:28:33Z</time>
      </trkpt>
      <trkpt lat="48.21913" lon="7.21793">
        <ele>837.9</ele>
        <time>2021-08-04T12:28:34Z</time>
      </trkpt>
      <trkpt lat="48.21909" lon="7.218">
        <ele>837.8</ele>
        <time>2021-08-04T12:28:37Z</time>
      </trkpt>
      <trkpt lat="48.21906" lon="7.21805">
        <ele>837.7</ele>
        <time>2021-08-04T12:28:38Z</time>
      </trkpt>
      <trkpt lat="48.21904" lon="7.2181">
        <ele>837.6</ele>
        <time>2021-08-04T12:28:40Z</time>
      </trkpt>
      <trkpt lat="48.21903" lon="7.21815">
        <ele>837.6</ele>
        <time>2021-08-04T12:28:41Z</time>
      </trkpt>
      <trkpt lat="48.21901" lon="7.21821">
        <ele>837.5</ele>
        <time>2021-08-04T12:28:42Z</time>
      </trkpt>
      <trkpt lat="48.21899" lon="7.21825">
        <ele>837.4</ele>
        <time>2021-08-04T12:28:43Z</time>
      </trkpt>
      <trkpt lat="48.21896" lon="7.21831">
        <ele>837.3</ele>
        <time>2021-08-04T12:28:45Z</time>
      </trkpt>
      <trkpt lat="48.21895" lon="7.21834">
        <ele>837.2</ele>
        <time>2021-08-04T12:28:46Z</time>
      </trkpt>
      <trkpt lat="48.21894" lon="7.21836">
        <ele>837.2</ele>
        <time>2021-08-04T12:28:47Z</time>
      </trkpt>
      <trkpt lat="48.21893" lon="7.21841">
        <ele>837.1</ele>
        <time>2021-08-04T12:28:48Z</time>
      </trkpt>
      <trkpt lat="48.21891" lon="7.21849">
        <ele>836.9</ele>
        <time>2021-08-04T12:28:50Z</time>
      </trkpt>
      <trkpt lat="48.21891" lon="7.21853">
        <ele>836.8</ele>
        <time>2021-08-04T12:28:51Z</time>
      </trkpt>
      <trkpt lat="48.2189" lon="7.21857">
        <ele>836.6</ele>
        <time>2021-08-04T12:28:52Z</time>
      </trkpt>
      <trkpt lat="48.21887" lon="7.21861">
        <ele>836.5</ele>
        <time>2021-08-04T12:28:53Z</time>
      </trkpt>
      <trkpt lat="48.21884" lon="7.21864">
        <ele>836.3</ele>
        <time>2021-08-04T12:28:55Z</time>
      </trkpt>
      <trkpt lat="48.21883" lon="7.21866">
        <ele>836.3</ele>
        <time>2021-08-04T12:28:56Z</time>
      </trkpt>
      <trkpt lat="48.21882" lon="7.2187">
        <ele>836.1</ele>
        <time>2021-08-04T12:28:57Z</time>
      </trkpt>
      <trkpt lat="48.21882" lon="7.21874">
        <ele>836</ele>
        <time>2021-08-04T12:28:58Z</time>
      </trkpt>
      <trkpt lat="48.21881" lon="7.21877">
        <ele>835.8</ele>
        <time>2021-08-04T12:29:00Z</time>
      </trkpt>
      <trkpt lat="48.2188" lon="7.21881">
        <ele>835.7</ele>
        <time>2021-08-04T12:29:01Z</time>
      </trkpt>
      <trkpt lat="48.21879" lon="7.21885">
        <ele>835.5</ele>
        <time>2021-08-04T12:29:03Z</time>
      </trkpt>
      <trkpt lat="48.21878" lon="7.21889">
        <ele>835.3</ele>
        <time>2021-08-04T12:29:04Z</time>
      </trkpt>
      <trkpt lat="48.21878" lon="7.21892">
        <ele>835.1</ele>
        <time>2021-08-04T12:29:05Z</time>
      </trkpt>
      <trkpt lat="48.21877" lon="7.21896">
        <ele>834.9</ele>
        <time>2021-08-04T12:29:51Z</time>
      </trkpt>
      <trkpt lat="48.21876" lon="7.219">
        <ele>834.7</ele>
        <time>2021-08-04T12:29:52Z</time>
      </trkpt>
      <trkpt lat="48.21871" lon="7.21914">
        <ele>833.7</ele>
        <time>2021-08-04T12:29:53Z</time>
      </trkpt>
      <trkpt lat="48.21867" lon="7.21925">
        <ele>832.8</ele>
        <time>2021-08-04T12:29:54Z</time>
      </trkpt>
      <trkpt lat="48.21863" lon="7.21935">
        <ele>832</ele>
        <time>2021-08-04T12:29:55Z</time>
      </trkpt>
      <trkpt lat="48.2186" lon="7.21945">
        <ele>831.2</ele>
        <time>2021-08-04T12:29:56Z</time>
      </trkpt>
      <trkpt lat="48.21858" lon="7.2195">
        <ele>830.8</ele>
        <time>2021-08-04T12:29:57Z</time>
      </trkpt>
      <trkpt lat="48.21855" lon="7.21954">
        <ele>830.4</ele>
        <time>2021-08-04T12:29:59Z</time>
      </trkpt>
      <trkpt lat="48.21854" lon="7.21956">
        <ele>830.3</ele>
        <time>2021-08-04T12:30:00Z</time>
      </trkpt>
      <trkpt lat="48.21853" lon="7.21957">
        <ele>830.2</ele>
        <time>2021-08-04T12:30:01Z</time>
      </trkpt>
      <trkpt lat="48.2185" lon="7.2196">
        <ele>829.8</ele>
        <time>2021-08-04T12:30:02Z</time>
      </trkpt>
      <trkpt lat="48.21847" lon="7.21967">
        <ele>829.4</ele>
        <time>2021-08-04T12:30:04Z</time>
      </trkpt>
      <trkpt lat="48.21846" lon="7.21969">
        <ele>829.3</ele>
        <time>2021-08-04T12:30:05Z</time>
      </trkpt>
      <trkpt lat="48.21845" lon="7.21972">
        <ele>829.1</ele>
        <time>2021-08-04T12:30:06Z</time>
      </trkpt>
      <trkpt lat="48.21841" lon="7.21977">
        <ele>828.7</ele>
        <time>2021-08-04T12:30:07Z</time>
      </trkpt>
      <trkpt lat="48.21839" lon="7.2198">
        <ele>828.6</ele>
        <time>2021-08-04T12:30:08Z</time>
      </trkpt>
      <trkpt lat="48.21837" lon="7.21983">
        <ele>828.3</ele>
        <time>2021-08-04T12:30:09Z</time>
      </trkpt>
      <trkpt lat="48.21832" lon="7.21987">
        <ele>828</ele>
        <time>2021-08-04T12:30:11Z</time>
      </trkpt>
      <trkpt lat="48.21821" lon="7.21994">
        <ele>827.4</ele>
        <time>2021-08-04T12:30:12Z</time>
      </trkpt>
      <trkpt lat="48.21813" lon="7.21997">
        <ele>827.2</ele>
        <time>2021-08-04T12:30:13Z</time>
      </trkpt>
      <trkpt lat="48.21802" lon="7.22003">
        <ele>827.2</ele>
        <time>2021-08-04T12:30:15Z</time>
      </trkpt>
      <trkpt lat="48.21797" lon="7.22008">
        <ele>827.3</ele>
        <time>2021-08-04T12:30:16Z</time>
      </trkpt>
      <trkpt lat="48.2179" lon="7.22012">
        <ele>827.5</ele>
        <time>2021-08-04T12:30:18Z</time>
      </trkpt>
      <trkpt lat="48.21783" lon="7.22013">
        <ele>827.7</ele>
        <time>2021-08-04T12:30:19Z</time>
      </trkpt>
      <trkpt lat="48.21778" lon="7.22015">
        <ele>827.9</ele>
        <time>2021-08-04T12:30:20Z</time>
      </trkpt>
      <trkpt lat="48.21772" lon="7.22015">
        <ele>828.1</ele>
        <time>2021-08-04T12:30:21Z</time>
      </trkpt>
      <trkpt lat="48.21766" lon="7.22018">
        <ele>828.3</ele>
        <time>2021-08-04T12:30:23Z</time>
      </trkpt>
      <trkpt lat="48.2176" lon="7.22021">
        <ele>828.5</ele>
        <time>2021-08-04T12:30:24Z</time>
      </trkpt>
      <trkpt lat="48.21756" lon="7.22025">
        <ele>828.7</ele>
        <time>2021-08-04T12:30:25Z</time>
      </trkpt>
      <trkpt lat="48.21753" lon="7.22028">
        <ele>828.8</ele>
        <time>2021-08-04T12:30:27Z</time>
      </trkpt>
      <trkpt lat="48.21751" lon="7.22028">
        <ele>828.8</ele>
        <time>2021-08-04T12:30:28Z</time>
      </trkpt>
      <trkpt lat="48.21749" lon="7.22028">
        <ele>828.9</ele>
        <time>2021-08-04T12:30:29Z</time>
      </trkpt>
      <trkpt lat="48.21747" lon="7.22027">
        <ele>829</ele>
        <time>2021-08-04T12:30:31Z</time>
      </trkpt>
      <trkpt lat="48.21746" lon="7.22027">
        <ele>829</ele>
        <time>2021-08-04T12:30:32Z</time>
      </trkpt>
      <trkpt lat="48.21744" lon="7.22023">
        <ele>829.1</ele>
        <time>2021-08-04T12:30:33Z</time>
      </trkpt>
      <trkpt lat="48.21743" lon="7.22022">
        <ele>829.2</ele>
        <time>2021-08-04T12:30:35Z</time>
      </trkpt>
      <trkpt lat="48.21743" lon="7.2202">
        <ele>829.3</ele>
        <time>2021-08-04T12:30:36Z</time>
      </trkpt>
      <trkpt lat="48.21742" lon="7.22018">
        <ele>829.3</ele>
        <time>2021-08-04T12:30:38Z</time>
      </trkpt>
      <trkpt lat="48.21742" lon="7.22016">
        <ele>829.4</ele>
        <time>2021-08-04T12:30:39Z</time>
      </trkpt>
      <trkpt lat="48.21741" lon="7.22015">
        <ele>829.4</ele>
        <time>2021-08-04T12:30:41Z</time>
      </trkpt>
      <trkpt lat="48.2174" lon="7.22013">
        <ele>829.5</ele>
        <time>2021-08-04T12:30:42Z</time>
      </trkpt>
      <trkpt lat="48.21739" lon="7.22012">
        <ele>829.5</ele>
        <time>2021-08-04T12:30:43Z</time>
      </trkpt>
      <trkpt lat="48.21678" lon="7.21928">
        <ele>831.7</ele>
        <time>2021-08-04T12:31:49Z</time>
      </trkpt>
      <trkpt lat="48.21673" lon="7.2192">
        <ele>831.7</ele>
        <time>2021-08-04T12:31:51Z</time>
      </trkpt>
      <trkpt lat="48.21671" lon="7.21914">
        <ele>831.7</ele>
        <time>2021-08-04T12:31:53Z</time>
      </trkpt>
      <trkpt lat="48.21668" lon="7.21909">
        <ele>831.7</ele>
        <time>2021-08-04T12:31:55Z</time>
      </trkpt>
      <trkpt lat="48.21668" lon="7.21908">
        <ele>831.7</ele>
        <time>2021-08-04T12:31:56Z</time>
      </trkpt>
      <trkpt lat="48.21666" lon="7.21906">
        <ele>831.7</ele>
        <time>2021-08-04T12:31:57Z</time>
      </trkpt>
      <trkpt lat="48.21662" lon="7.21904">
        <ele>831.7</ele>
        <time>2021-08-04T12:31:59Z</time>
      </trkpt>
      <trkpt lat="48.21659" lon="7.21903">
        <ele>831.7</ele>
        <time>2021-08-04T12:32:00Z</time>
      </trkpt>
      <trkpt lat="48.21656" lon="7.21903">
        <ele>831.7</ele>
        <time>2021-08-04T12:32:01Z</time>
      </trkpt>
      <trkpt lat="48.21651" lon="7.21902">
        <ele>831.7</ele>
        <time>2021-08-04T12:32:03Z</time>
      </trkpt>
      <trkpt lat="48.21647" lon="7.21904">
        <ele>831.8</ele>
        <time>2021-08-04T12:32:04Z</time>
      </trkpt>
      <trkpt lat="48.21643" lon="7.21907">
        <ele>831.8</ele>
        <time>2021-08-04T12:32:05Z</time>
      </trkpt>
      <trkpt lat="48.21639" lon="7.21909">
        <ele>831.9</ele>
        <time>2021-08-04T12:32:06Z</time>
      </trkpt>
      <trkpt lat="48.21635" lon="7.2191">
        <ele>831.9</ele>
        <time>2021-08-04T12:32:07Z</time>
      </trkpt>
      <trkpt lat="48.21629" lon="7.21911">
        <ele>832</ele>
        <time>2021-08-04T12:32:09Z</time>
      </trkpt>
      <trkpt lat="48.21626" lon="7.21913">
        <ele>832.1</ele>
        <time>2021-08-04T12:32:10Z</time>
      </trkpt>
      <trkpt lat="48.21623" lon="7.21916">
        <ele>832.2</ele>
        <time>2021-08-04T12:32:11Z</time>
      </trkpt>
      <trkpt lat="48.21619" lon="7.21918">
        <ele>832.3</ele>
        <time>2021-08-04T12:32:13Z</time>
      </trkpt>
      <trkpt lat="48.21618" lon="7.21919">
        <ele>832.4</ele>
        <time>2021-08-04T12:32:14Z</time>
      </trkpt>
      <trkpt lat="48.21616" lon="7.21922">
        <ele>832.4</ele>
        <time>2021-08-04T12:32:16Z</time>
      </trkpt>
      <trkpt lat="48.21614" lon="7.2192">
        <ele>832.5</ele>
        <time>2021-08-04T12:32:18Z</time>
      </trkpt>
      <trkpt lat="48.21614" lon="7.21918">
        <ele>832.5</ele>
        <time>2021-08-04T12:32:19Z</time>
      </trkpt>
      <trkpt lat="48.21613" lon="7.21917">
        <ele>832.6</ele>
        <time>2021-08-04T12:32:21Z</time>
      </trkpt>
      <trkpt lat="48.21613" lon="7.21917">
        <ele>832.6</ele>
        <time>2021-08-04T12:32:22Z</time>
      </trkpt>
      <trkpt lat="48.21612" lon="7.21917">
        <ele>832.6</ele>
        <time>2021-08-04T12:32:24Z</time>
      </trkpt>
      <trkpt lat="48.21612" lon="7.21916">
        <ele>832.6</ele>
        <time>2021-08-04T12:32:25Z</time>
      </trkpt>
      <trkpt lat="48.21612" lon="7.21916">
        <ele>832.6</ele>
        <time>2021-08-04T12:32:27Z</time>
      </trkpt>
      <trkpt lat="48.21573" lon="7.21921">
        <ele>833.9</ele>
        <time>2021-08-04T12:33:00Z</time>
      </trkpt>
      <trkpt lat="48.2157" lon="7.21923">
        <ele>834</ele>
        <time>2021-08-04T12:33:01Z</time>
      </trkpt>
      <trkpt lat="48.21569" lon="7.21925">
        <ele>834.1</ele>
        <time>2021-08-04T12:33:03Z</time>
      </trkpt>
      <trkpt lat="48.21568" lon="7.21927">
        <ele>834.1</ele>
        <time>2021-08-04T12:33:04Z</time>
      </trkpt>
      <trkpt lat="48.21566" lon="7.2193">
        <ele>834.2</ele>
        <time>2021-08-04T12:33:05Z</time>
      </trkpt>
      <trkpt lat="48.21565" lon="7.21933">
        <ele>834.3</ele>
        <time>2021-08-04T12:33:07Z</time>
      </trkpt>
      <trkpt lat="48.21563" lon="7.21936">
        <ele>834.4</ele>
        <time>2021-08-04T12:33:09Z</time>
      </trkpt>
      <trkpt lat="48.21561" lon="7.2194">
        <ele>834.5</ele>
        <time>2021-08-04T12:33:10Z</time>
      </trkpt>
      <trkpt lat="48.21561" lon="7.21942">
        <ele>834.6</ele>
        <time>2021-08-04T12:33:11Z</time>
      </trkpt>
      <trkpt lat="48.21559" lon="7.21947">
        <ele>834.7</ele>
        <time>2021-08-04T12:33:12Z</time>
      </trkpt>
      <trkpt lat="48.21558" lon="7.21951">
        <ele>834.8</ele>
        <time>2021-08-04T12:33:14Z</time>
      </trkpt>
      <trkpt lat="48.21557" lon="7.21955">
        <ele>834.9</ele>
        <time>2021-08-04T12:33:15Z</time>
      </trkpt>
      <trkpt lat="48.21556" lon="7.21959">
        <ele>835</ele>
        <time>2021-08-04T12:33:16Z</time>
      </trkpt>
      <trkpt lat="48.21556" lon="7.2196">
        <ele>835</ele>
        <time>2021-08-04T12:33:17Z</time>
      </trkpt>
      <trkpt lat="48.21557" lon="7.21961">
        <ele>835</ele>
        <time>2021-08-04T12:33:18Z</time>
      </trkpt>
      <trkpt lat="48.21557" lon="7.21962">
        <ele>835</ele>
        <time>2021-08-04T12:33:20Z</time>
      </trkpt>
      <trkpt lat="48.21556" lon="7.21962">
        <ele>835</ele>
        <time>2021-08-04T12:33:21Z</time>
      </trkpt>
      <trkpt lat="48.21556" lon="7.21962">
        <ele>835.1</ele>
        <time>2021-08-04T12:33:22Z</time>
      </trkpt>
      <trkpt lat="48.21556" lon="7.21962">
        <ele>835.1</ele>
        <time>2021-08-04T12:33:23Z</time>
      </trkpt>
      <trkpt lat="48.21556" lon="7.21962">
        <ele>835.1</ele>
        <time>2021-08-04T12:33:25Z</time>
      </trkpt>
      <trkpt lat="48.21556" lon="7.21962">
        <ele>835.1</ele>
        <time>2021-08-04T12:33:26Z</time>
      </trkpt>
      <trkpt lat="48.21553" lon="7.21971">
        <ele>835.3</ele>
        <time>2021-08-04T12:33:34Z</time>
      </trkpt>
      <trkpt lat="48.21551" lon="7.21975">
        <ele>835.4</ele>
        <time>2021-08-04T12:33:35Z</time>
      </trkpt>
      <trkpt lat="48.21548" lon="7.21983">
        <ele>835.5</ele>
        <time>2021-08-04T12:33:37Z</time>
      </trkpt>
      <trkpt lat="48.21548" lon="7.21987">
        <ele>835.6</ele>
        <time>2021-08-04T12:33:38Z</time>
      </trkpt>
      <trkpt lat="48.21547" lon="7.2199">
        <ele>835.6</ele>
        <time>2021-08-04T12:33:39Z</time>
      </trkpt>
      <trkpt lat="48.21549" lon="7.21997">
        <ele>835.8</ele>
        <time>2021-08-04T12:33:41Z</time>
      </trkpt>
      <trkpt lat="48.2155" lon="7.21999">
        <ele>835.8</ele>
        <time>2021-08-04T12:33:42Z</time>
      </trkpt>
      <trkpt lat="48.21552" lon="7.22">
        <ele>835.9</ele>
        <time>2021-08-04T12:33:43Z</time>
      </trkpt>
      <trkpt lat="48.21552" lon="7.22006">
        <ele>836</ele>
        <time>2021-08-04T12:33:44Z</time>
      </trkpt>
      <trkpt lat="48.21551" lon="7.2201">
        <ele>836.1</ele>
        <time>2021-08-04T12:33:46Z</time>
      </trkpt>
      <trkpt lat="48.2155" lon="7.22015">
        <ele>836.2</ele>
        <time>2021-08-04T12:33:47Z</time>
      </trkpt>
      <trkpt lat="48.21549" lon="7.22019">
        <ele>836.3</ele>
        <time>2021-08-04T12:34:10Z</time>
      </trkpt>
      <trkpt lat="48.21548" lon="7.22023">
        <ele>836.5</ele>
        <time>2021-08-04T12:34:12Z</time>
      </trkpt>
      <trkpt lat="48.21547" lon="7.22028">
        <ele>836.6</ele>
        <time>2021-08-04T12:34:13Z</time>
      </trkpt>
      <trkpt lat="48.21543" lon="7.22025">
        <ele>836.8</ele>
        <time>2021-08-04T12:34:15Z</time>
      </trkpt>
      <trkpt lat="48.21542" lon="7.22025">
        <ele>836.9</ele>
        <time>2021-08-04T12:34:16Z</time>
      </trkpt>
      <trkpt lat="48.21541" lon="7.22024">
        <ele>836.9</ele>
        <time>2021-08-04T12:34:17Z</time>
      </trkpt>
      <trkpt lat="48.21541" lon="7.22023">
        <ele>837</ele>
        <time>2021-08-04T12:34:18Z</time>
      </trkpt>
      <trkpt lat="48.2154" lon="7.22022">
        <ele>837</ele>
        <time>2021-08-04T12:34:20Z</time>
      </trkpt>
      <trkpt lat="48.21539" lon="7.22021">
        <ele>837.1</ele>
        <time>2021-08-04T12:34:21Z</time>
      </trkpt>
      <trkpt lat="48.21539" lon="7.2202">
        <ele>837.1</ele>
        <time>2021-08-04T12:34:23Z</time>
      </trkpt>
      <trkpt lat="48.21539" lon="7.2202">
        <ele>837.1</ele>
        <time>2021-08-04T12:34:24Z</time>
      </trkpt>
      <trkpt lat="48.21537" lon="7.22018">
        <ele>837.2</ele>
        <time>2021-08-04T12:34:25Z</time>
      </trkpt>
      <trkpt lat="48.21536" lon="7.22018">
        <ele>837.3</ele>
        <time>2021-08-04T12:34:27Z</time>
      </trkpt>
      <trkpt lat="48.21535" lon="7.22017">
        <ele>837.3</ele>
        <time>2021-08-04T12:34:28Z</time>
      </trkpt>
      <trkpt lat="48.21532" lon="7.22017">
        <ele>837.5</ele>
        <time>2021-08-04T12:34:29Z</time>
      </trkpt>
      <trkpt lat="48.2153" lon="7.22015">
        <ele>837.6</ele>
        <time>2021-08-04T12:34:31Z</time>
      </trkpt>
      <trkpt lat="48.21529" lon="7.22015">
        <ele>837.7</ele>
        <time>2021-08-04T12:34:32Z</time>
      </trkpt>
      <trkpt lat="48.21526" lon="7.22013">
        <ele>837.8</ele>
        <time>2021-08-04T12:34:34Z</time>
      </trkpt>
      <trkpt lat="48.21525" lon="7.22013">
        <ele>837.9</ele>
        <time>2021-08-04T12:34:35Z</time>
      </trkpt>
      <trkpt lat="48.21524" lon="7.22012">
        <ele>838</ele>
        <time>2021-08-04T12:34:36Z</time>
      </trkpt>
      <trkpt lat="48.21523" lon="7.22013">
        <ele>838</ele>
        <time>2021-08-04T12:34:38Z</time>
      </trkpt>
      <trkpt lat="48.21522" lon="7.22015">
        <ele>838.1</ele>
        <time>2021-08-04T12:34:39Z</time>
      </trkpt>
      <trkpt lat="48.21522" lon="7.22016">
        <ele>838.1</ele>
        <time>2021-08-04T12:34:40Z</time>
      </trkpt>
      <trkpt lat="48.21522" lon="7.22017">
        <ele>838.2</ele>
        <time>2021-08-04T12:34:42Z</time>
      </trkpt>
      <trkpt lat="48.21522" lon="7.22018">
        <ele>838.2</ele>
        <time>2021-08-04T12:34:43Z</time>
      </trkpt>
      <trkpt lat="48.21522" lon="7.22019">
        <ele>838.3</ele>
        <time>2021-08-04T12:34:44Z</time>
      </trkpt>
      <trkpt lat="48.21521" lon="7.2202">
        <ele>838.3</ele>
        <time>2021-08-04T12:34:46Z</time>
      </trkpt>
      <trkpt lat="48.21521" lon="7.22021">
        <ele>838.3</ele>
        <time>2021-08-04T12:34:47Z</time>
      </trkpt>
      <trkpt lat="48.2152" lon="7.22024">
        <ele>838.4</ele>
        <time>2021-08-04T12:34:48Z</time>
      </trkpt>
      <trkpt lat="48.21519" lon="7.22026">
        <ele>838.5</ele>
        <time>2021-08-04T12:34:49Z</time>
      </trkpt>
      <trkpt lat="48.21518" lon="7.22028">
        <ele>838.6</ele>
        <time>2021-08-04T12:34:51Z</time>
      </trkpt>
      <trkpt lat="48.21518" lon="7.2203">
        <ele>838.7</ele>
        <time>2021-08-04T12:34:52Z</time>
      </trkpt>
      <trkpt lat="48.21517" lon="7.22032">
        <ele>838.8</ele>
        <time>2021-08-04T12:34:54Z</time>
      </trkpt>
      <trkpt lat="48.21417" lon="7.22152">
        <ele>846.9</ele>
        <time>2021-08-04T12:38:27Z</time>
      </trkpt>
      <trkpt lat="48.21414" lon="7.22156">
        <ele>847.2</ele>
        <time>2021-08-04T12:38:28Z</time>
      </trkpt>
      <trkpt lat="48.21413" lon="7.22158">
        <ele>847.3</ele>
        <time>2021-08-04T12:38:29Z</time>
      </trkpt>
      <trkpt lat="48.21409" lon="7.22165">
        <ele>847.9</ele>
        <time>2021-08-04T12:38:31Z</time>
      </trkpt>
      <trkpt lat="48.21405" lon="7.22173">
        <ele>848.4</ele>
        <time>2021-08-04T12:38:33Z</time>
      </trkpt>
      <trkpt lat="48.21404" lon="7.22177">
        <ele>848.7</ele>
        <time>2021-08-04T12:38:34Z</time>
      </trkpt>
      <trkpt lat="48.21403" lon="7.22179">
        <ele>848.8</ele>
        <time>2021-08-04T12:38:35Z</time>
      </trkpt>
      <trkpt lat="48.21403" lon="7.22181">
        <ele>848.9</ele>
        <time>2021-08-04T12:38:36Z</time>
      </trkpt>
      <trkpt lat="48.21403" lon="7.22181">
        <ele>849</ele>
        <time>2021-08-04T12:38:38Z</time>
      </trkpt>
      <trkpt lat="48.21403" lon="7.22182">
        <ele>849</ele>
        <time>2021-08-04T12:38:39Z</time>
      </trkpt>
      <trkpt lat="48.21403" lon="7.22182">
        <ele>849</ele>
        <time>2021-08-04T12:38:41Z</time>
      </trkpt>
      <trkpt lat="48.21404" lon="7.22182">
        <ele>849</ele>
        <time>2021-08-04T12:38:43Z</time>
      </trkpt>
      <trkpt lat="48.21404" lon="7.22182">
        <ele>849</ele>
        <time>2021-08-04T12:38:44Z</time>
      </trkpt>
      <trkpt lat="48.21367" lon="7.22204">
        <ele>852.4</ele>
        <time>2021-08-04T12:40:18Z</time>
      </trkpt>
      <trkpt lat="48.21368" lon="7.22207">
        <ele>852.5</ele>
        <time>2021-08-04T12:40:19Z</time>
      </trkpt>
      <trkpt lat="48.2137" lon="7.2221">
        <ele>852.5</ele>
        <time>2021-08-04T12:40:21Z</time>
      </trkpt>
      <trkpt lat="48.2137" lon="7.2221">
        <ele>852.7</ele>
        <time>2021-08-04T12:40:22Z</time>
      </trkpt>
      <trkpt lat="48.2137" lon="7.22211">
        <ele>852.9</ele>
        <time>2021-08-04T12:40:23Z</time>
      </trkpt>
      <trkpt lat="48.2137" lon="7.22212">
        <ele>853.1</ele>
        <time>2021-08-04T12:40:25Z</time>
      </trkpt>
      <trkpt lat="48.21369" lon="7.2221">
        <ele>853.3</ele>
        <time>2021-08-04T12:40:27Z</time>
      </trkpt>
      <trkpt lat="48.21369" lon="7.22208">
        <ele>853.8</ele>
        <time>2021-08-04T12:40:29Z</time>
      </trkpt>
      <trkpt lat="48.21368" lon="7.22208">
        <ele>854</ele>
        <time>2021-08-04T12:40:30Z</time>
      </trkpt>
      <trkpt lat="48.21368" lon="7.22207">
        <ele>854.2</ele>
        <time>2021-08-04T12:40:31Z</time>
      </trkpt>
      <trkpt lat="48.21368" lon="7.22207">
        <ele>854.4</ele>
        <time>2021-08-04T12:40:32Z</time>
      </trkpt>
      <trkpt lat="48.21368" lon="7.22208">
        <ele>854.6</ele>
        <time>2021-08-04T12:40:33Z</time>
      </trkpt>
      <trkpt lat="48.21374" lon="7.22221">
        <ele>853.8</ele>
        <time>2021-08-04T12:40:39Z</time>
      </trkpt>
      <trkpt lat="48.21376" lon="7.22226">
        <ele>853.4</ele>
        <time>2021-08-04T12:40:40Z</time>
      </trkpt>
      <trkpt lat="48.21377" lon="7.22238">
        <ele>852.6</ele>
        <time>2021-08-04T12:40:42Z</time>
      </trkpt>
      <trkpt lat="48.21378" lon="7.22245">
        <ele>852.5</ele>
        <time>2021-08-04T12:40:43Z</time>
      </trkpt>
      <trkpt lat="48.2138" lon="7.22255">
        <ele>852.3</ele>
        <time>2021-08-04T12:40:44Z</time>
      </trkpt>
      <trkpt lat="48.21382" lon="7.22262">
        <ele>852.2</ele>
        <time>2021-08-04T12:40:46Z</time>
      </trkpt>
      <trkpt lat="48.21383" lon="7.2227">
        <ele>852.1</ele>
        <time>2021-08-04T12:40:48Z</time>
      </trkpt>
      <trkpt lat="48.21384" lon="7.22275">
        <ele>852</ele>
        <time>2021-08-04T12:40:49Z</time>
      </trkpt>
      <trkpt lat="48.21386" lon="7.22281">
        <ele>852</ele>
        <time>2021-08-04T12:40:51Z</time>
      </trkpt>
      <trkpt lat="48.21386" lon="7.22285">
        <ele>852</ele>
        <time>2021-08-04T12:40:52Z</time>
      </trkpt>
      <trkpt lat="48.21387" lon="7.2229">
        <ele>851.9</ele>
        <time>2021-08-04T12:40:53Z</time>
      </trkpt>
      <trkpt lat="48.21388" lon="7.22297">
        <ele>851.9</ele>
        <time>2021-08-04T12:40:55Z</time>
      </trkpt>
      <trkpt lat="48.21389" lon="7.22303">
        <ele>851.9</ele>
        <time>2021-08-04T12:40:56Z</time>
      </trkpt>
      <trkpt lat="48.21387" lon="7.22311">
        <ele>851.8</ele>
        <time>2021-08-04T12:40:58Z</time>
      </trkpt>
      <trkpt lat="48.21386" lon="7.22315">
        <ele>851.8</ele>
        <time>2021-08-04T12:40:59Z</time>
      </trkpt>
      <trkpt lat="48.21385" lon="7.22322">
        <ele>851.7</ele>
        <time>2021-08-04T12:41:01Z</time>
      </trkpt>
      <trkpt lat="48.21385" lon="7.22328">
        <ele>851.7</ele>
        <time>2021-08-04T12:41:02Z</time>
      </trkpt>
      <trkpt lat="48.21385" lon="7.2233">
        <ele>851.7</ele>
        <time>2021-08-04T12:41:03Z</time>
      </trkpt>
      <trkpt lat="48.21385" lon="7.22335">
        <ele>851.6</ele>
        <time>2021-08-04T12:41:04Z</time>
      </trkpt>
      <trkpt lat="48.21386" lon="7.22337">
        <ele>851.6</ele>
        <time>2021-08-04T12:41:05Z</time>
      </trkpt>
      <trkpt lat="48.21387" lon="7.22342">
        <ele>851.5</ele>
        <time>2021-08-04T12:41:07Z</time>
      </trkpt>
      <trkpt lat="48.21385" lon="7.22345">
        <ele>851.5</ele>
        <time>2021-08-04T12:41:08Z</time>
      </trkpt>
      <trkpt lat="48.21385" lon="7.22349">
        <ele>851.5</ele>
        <time>2021-08-04T12:41:10Z</time>
      </trkpt>
      <trkpt lat="48.21387" lon="7.22351">
        <ele>851.5</ele>
        <time>2021-08-04T12:41:11Z</time>
      </trkpt>
      <trkpt lat="48.2139" lon="7.22354">
        <ele>851.4</ele>
        <time>2021-08-04T12:41:13Z</time>
      </trkpt>
      <trkpt lat="48.21392" lon="7.22357">
        <ele>851.4</ele>
        <time>2021-08-04T12:41:14Z</time>
      </trkpt>
      <trkpt lat="48.21394" lon="7.22365">
        <ele>851.3</ele>
        <time>2021-08-04T12:41:16Z</time>
      </trkpt>
      <trkpt lat="48.21396" lon="7.22371">
        <ele>851.3</ele>
        <time>2021-08-04T12:41:17Z</time>
      </trkpt>
      <trkpt lat="48.21398" lon="7.22377">
        <ele>851.3</ele>
        <time>2021-08-04T12:41:18Z</time>
      </trkpt>
      <trkpt lat="48.21403" lon="7.22391">
        <ele>851.2</ele>
        <time>2021-08-04T12:41:20Z</time>
      </trkpt>
      <trkpt lat="48.21403" lon="7.22398">
        <ele>851.2</ele>
        <time>2021-08-04T12:41:21Z</time>
      </trkpt>
      <trkpt lat="48.21399" lon="7.22409">
        <ele>851.2</ele>
        <time>2021-08-04T12:41:23Z</time>
      </trkpt>
      <trkpt lat="48.21396" lon="7.22412">
        <ele>851.2</ele>
        <time>2021-08-04T12:41:24Z</time>
      </trkpt>
      <trkpt lat="48.21396" lon="7.22414">
        <ele>851.2</ele>
        <time>2021-08-04T12:41:26Z</time>
      </trkpt>
      <trkpt lat="48.21399" lon="7.22416">
        <ele>851.2</ele>
        <time>2021-08-04T12:41:28Z</time>
      </trkpt>
      <trkpt lat="48.21402" lon="7.22416">
        <ele>851.2</ele>
        <time>2021-08-04T12:41:29Z</time>
      </trkpt>
      <trkpt lat="48.21403" lon="7.22416">
        <ele>851.2</ele>
        <time>2021-08-04T12:41:30Z</time>
      </trkpt>
      <trkpt lat="48.21404" lon="7.22417">
        <ele>851.2</ele>
        <time>2021-08-04T12:41:32Z</time>
      </trkpt>
      <trkpt lat="48.21407" lon="7.22419">
        <ele>851.2</ele>
        <time>2021-08-04T12:41:34Z</time>
      </trkpt>
      <trkpt lat="48.21407" lon="7.22449">
        <ele>851.1</ele>
        <time>2021-08-04T12:41:39Z</time>
      </trkpt>
      <trkpt lat="48.21404" lon="7.2247">
        <ele>851.1</ele>
        <time>2021-08-04T12:41:41Z</time>
      </trkpt>
      <trkpt lat="48.21405" lon="7.22474">
        <ele>851.1</ele>
        <time>2021-08-04T12:41:43Z</time>
      </trkpt>
      <trkpt lat="48.21409" lon="7.22476">
        <ele>851.1</ele>
        <time>2021-08-04T12:41:45Z</time>
      </trkpt>
      <trkpt lat="48.21414" lon="7.22479">
        <ele>851.1</ele>
        <time>2021-08-04T12:41:47Z</time>
      </trkpt>
      <trkpt lat="48.21417" lon="7.22481">
        <ele>851.1</ele>
        <time>2021-08-04T12:41:48Z</time>
      </trkpt>
      <trkpt lat="48.21419" lon="7.22483">
        <ele>851.1</ele>
        <time>2021-08-04T12:41:49Z</time>
      </trkpt>
      <trkpt lat="48.21425" lon="7.22488">
        <ele>851.1</ele>
        <time>2021-08-04T12:41:51Z</time>
      </trkpt>
      <trkpt lat="48.21381" lon="7.22594">
        <ele>851.2</ele>
        <time>2021-08-04T12:42:16Z</time>
      </trkpt>
      <trkpt lat="48.21379" lon="7.22601">
        <ele>851.3</ele>
        <time>2021-08-04T12:42:17Z</time>
      </trkpt>
      <trkpt lat="48.21376" lon="7.2261">
        <ele>851.3</ele>
        <time>2021-08-04T12:42:18Z</time>
      </trkpt>
      <trkpt lat="48.21373" lon="7.22619">
        <ele>851.3</ele>
        <time>2021-08-04T12:42:19Z</time>
      </trkpt>
      <trkpt lat="48.21371" lon="7.22626">
        <ele>851.4</ele>
        <time>2021-08-04T12:42:20Z</time>
      </trkpt>
      <trkpt lat="48.21367" lon="7.22635">
        <ele>851.4</ele>
        <time>2021-08-04T12:42:22Z</time>
      </trkpt>
      <trkpt lat="48.21364" lon="7.22642">
        <ele>851.5</ele>
        <time>2021-08-04T12:42:23Z</time>
      </trkpt>
      <trkpt lat="48.21362" lon="7.22649">
        <ele>851.5</ele>
        <time>2021-08-04T12:42:24Z</time>
      </trkpt>
      <trkpt lat="48.21362" lon="7.22656">
        <ele>851.6</ele>
        <time>2021-08-04T12:42:25Z</time>
      </trkpt>
      <trkpt lat="48.21362" lon="7.22661">
        <ele>851.6</ele>
        <time>2021-08-04T12:42:26Z</time>
      </trkpt>
      <trkpt lat="48.21361" lon="7.2267">
        <ele>851.6</ele>
        <time>2021-08-04T12:42:27Z</time>
      </trkpt>
      <trkpt lat="48.21361" lon="7.22677">
        <ele>851.7</ele>
        <time>2021-08-04T12:42:28Z</time>
      </trkpt>
      <trkpt lat="48.21361" lon="7.22684">
        <ele>851.7</ele>
        <time>2021-08-04T12:42:29Z</time>
      </trkpt>
      <trkpt lat="48.21362" lon="7.22694">
        <ele>851.7</ele>
        <time>2021-08-04T12:42:31Z</time>
      </trkpt>
      <trkpt lat="48.21365" lon="7.22702">
        <ele>851.7</ele>
        <time>2021-08-04T12:42:32Z</time>
      </trkpt>
      <trkpt lat="48.21367" lon="7.22708">
        <ele>851.7</ele>
        <time>2021-08-04T12:42:33Z</time>
      </trkpt>
      <trkpt lat="48.21369" lon="7.22714">
        <ele>851.7</ele>
        <time>2021-08-04T12:42:34Z</time>
      </trkpt>
      <trkpt lat="48.21373" lon="7.22721">
        <ele>851.8</ele>
        <time>2021-08-04T12:42:36Z</time>
      </trkpt>
      <trkpt lat="48.21375" lon="7.22725">
        <ele>851.8</ele>
        <time>2021-08-04T12:42:37Z</time>
      </trkpt>
      <trkpt lat="48.21377" lon="7.22728">
        <ele>851.8</ele>
        <time>2021-08-04T12:42:38Z</time>
      </trkpt>
      <trkpt lat="48.21377" lon="7.2273">
        <ele>851.8</ele>
        <time>2021-08-04T12:42:39Z</time>
      </trkpt>
      <trkpt lat="48.21378" lon="7.22735">
        <ele>851.8</ele>
        <time>2021-08-04T12:42:40Z</time>
      </trkpt>
      <trkpt lat="48.21379" lon="7.22741">
        <ele>851.8</ele>
        <time>2021-08-04T12:42:42Z</time>
      </trkpt>
      <trkpt lat="48.21379" lon="7.22743">
        <ele>851.8</ele>
        <time>2021-08-04T12:42:43Z</time>
      </trkpt>
      <trkpt lat="48.21378" lon="7.2275">
        <ele>851.8</ele>
        <time>2021-08-04T12:42:44Z</time>
      </trkpt>
      <trkpt lat="48.21376" lon="7.22758">
        <ele>851.8</ele>
        <time>2021-08-04T12:42:45Z</time>
      </trkpt>
      <trkpt lat="48.21375" lon="7.22763">
        <ele>851.8</ele>
        <time>2021-08-04T12:42:46Z</time>
      </trkpt>
      <trkpt lat="48.21375" lon="7.22768">
        <ele>851.8</ele>
        <time>2021-08-04T12:42:47Z</time>
      </trkpt>
      <trkpt lat="48.21374" lon="7.22774">
        <ele>851.8</ele>
        <time>2021-08-04T12:42:49Z</time>
      </trkpt>
      <trkpt lat="48.21373" lon="7.2278">
        <ele>851.8</ele>
        <time>2021-08-04T12:42:50Z</time>
      </trkpt>
      <trkpt lat="48.21374" lon="7.22782">
        <ele>851.7</ele>
        <time>2021-08-04T12:42:51Z</time>
      </trkpt>
      <trkpt lat="48.21374" lon="7.22788">
        <ele>851.7</ele>
        <time>2021-08-04T12:42:52Z</time>
      </trkpt>
      <trkpt lat="48.21375" lon="7.2279">
        <ele>851.7</ele>
        <time>2021-08-04T12:42:53Z</time>
      </trkpt>
      <trkpt lat="48.21374" lon="7.22796">
        <ele>851.7</ele>
        <time>2021-08-04T12:42:54Z</time>
      </trkpt>
      <trkpt lat="48.21374" lon="7.22805">
        <ele>851.7</ele>
        <time>2021-08-04T12:42:56Z</time>
      </trkpt>
      <trkpt lat="48.21375" lon="7.22811">
        <ele>851.8</ele>
        <time>2021-08-04T12:42:57Z</time>
      </trkpt>
      <trkpt lat="48.21378" lon="7.2282">
        <ele>851.8</ele>
        <time>2021-08-04T12:42:59Z</time>
      </trkpt>
      <trkpt lat="48.21379" lon="7.22827">
        <ele>851.8</ele>
        <time>2021-08-04T12:43:00Z</time>
      </trkpt>
      <trkpt lat="48.2138" lon="7.22832">
        <ele>851.8</ele>
        <time>2021-08-04T12:43:01Z</time>
      </trkpt>
      <trkpt lat="48.2138" lon="7.22838">
        <ele>851.8</ele>
        <time>2021-08-04T12:43:02Z</time>
      </trkpt>
      <trkpt lat="48.21378" lon="7.22848">
        <ele>851.8</ele>
        <time>2021-08-04T12:43:04Z</time>
      </trkpt>
      <trkpt lat="48.21378" lon="7.22853">
        <ele>851.8</ele>
        <time>2021-08-04T12:43:05Z</time>
      </trkpt>
      <trkpt lat="48.21378" lon="7.22855">
        <ele>851.8</ele>
        <time>2021-08-04T12:43:06Z</time>
      </trkpt>
      <trkpt lat="48.2138" lon="7.22857">
        <ele>851.8</ele>
        <time>2021-08-04T12:43:08Z</time>
      </trkpt>
      <trkpt lat="48.2138" lon="7.22859">
        <ele>851.8</ele>
        <time>2021-08-04T12:43:09Z</time>
      </trkpt>
      <trkpt lat="48.2138" lon="7.2286">
        <ele>851.8</ele>
        <time>2021-08-04T12:43:10Z</time>
      </trkpt>
      <trkpt lat="48.21379" lon="7.22867">
        <ele>851.8</ele>
        <time>2021-08-04T12:43:12Z</time>
      </trkpt>
      <trkpt lat="48.21377" lon="7.22873">
        <ele>851.8</ele>
        <time>2021-08-04T12:43:13Z</time>
      </trkpt>
      <trkpt lat="48.21375" lon="7.2288">
        <ele>851.9</ele>
        <time>2021-08-04T12:43:14Z</time>
      </trkpt>
      <trkpt lat="48.21372" lon="7.2289">
        <ele>851.9</ele>
        <time>2021-08-04T12:43:16Z</time>
      </trkpt>
      <trkpt lat="48.21365" lon="7.22903">
        <ele>852</ele>
        <time>2021-08-04T12:43:18Z</time>
      </trkpt>
      <trkpt lat="48.21362" lon="7.22912">
        <ele>852</ele>
        <time>2021-08-04T12:43:19Z</time>
      </trkpt>
      <trkpt lat="48.21359" lon="7.22919">
        <ele>852</ele>
        <time>2021-08-04T12:43:20Z</time>
      </trkpt>
      <trkpt lat="48.21354" lon="7.22928">
        <ele>852.1</ele>
        <time>2021-08-04T12:43:22Z</time>
      </trkpt>
      <trkpt lat="48.2135" lon="7.22933">
        <ele>852.1</ele>
        <time>2021-08-04T12:43:23Z</time>
      </trkpt>
      <trkpt lat="48.21345" lon="7.22938">
        <ele>852.1</ele>
        <time>2021-08-04T12:43:25Z</time>
      </trkpt>
      <trkpt lat="48.21341" lon="7.2294">
        <ele>852.2</ele>
        <time>2021-08-04T12:43:26Z</time>
      </trkpt>
      <trkpt lat="48.21334" lon="7.22944">
        <ele>852.2</ele>
        <time>2021-08-04T12:43:28Z</time>
      </trkpt>
      <trkpt lat="48.21329" lon="7.2295">
        <ele>852.2</ele>
        <time>2021-08-04T12:43:29Z</time>
      </trkpt>
      <trkpt lat="48.21323" lon="7.22956">
        <ele>852.1</ele>
        <time>2021-08-04T12:43:31Z</time>
      </trkpt>
      <trkpt lat="48.21319" lon="7.22961">
        <ele>852</ele>
        <time>2021-08-04T12:43:32Z</time>
      </trkpt>
      <trkpt lat="48.21316" lon="7.22964">
        <ele>851.9</ele>
        <time>2021-08-04T12:43:33Z</time>
      </trkpt>
      <trkpt lat="48.21314" lon="7.22966">
        <ele>851.9</ele>
        <time>2021-08-04T12:43:35Z</time>
      </trkpt>
      <trkpt lat="48.21313" lon="7.22967">
        <ele>851.8</ele>
        <time>2021-08-04T12:43:36Z</time>
      </trkpt>
      <trkpt lat="48.21309" lon="7.22967">
        <ele>851.7</ele>
        <time>2021-08-04T12:43:38Z</time>
      </trkpt>
      <trkpt lat="48.21307" lon="7.22968">
        <ele>851.7</ele>
        <time>2021-08-04T12:43:39Z</time>
      </trkpt>
      <trkpt lat="48.21304" lon="7.2297">
        <ele>851.6</ele>
        <time>2021-08-04T12:43:41Z</time>
      </trkpt>
      <trkpt lat="48.21303" lon="7.22972">
        <ele>851.5</ele>
        <time>2021-08-04T12:43:42Z</time>
      </trkpt>
      <trkpt lat="48.21302" lon="7.22973">
        <ele>851.5</ele>
        <time>2021-08-04T12:43:43Z</time>
      </trkpt>
      <trkpt lat="48.21301" lon="7.22972">
        <ele>851.5</ele>
        <time>2021-08-04T12:43:44Z</time>
      </trkpt>
      <trkpt lat="48.213" lon="7.22971">
        <ele>851.4</ele>
        <time>2021-08-04T12:43:46Z</time>
      </trkpt>
      <trkpt lat="48.21299" lon="7.22971">
        <ele>851.4</ele>
        <time>2021-08-04T12:43:47Z</time>
      </trkpt>
      <trkpt lat="48.21298" lon="7.2297">
        <ele>851.4</ele>
        <time>2021-08-04T12:43:48Z</time>
      </trkpt>
      <trkpt lat="48.21297" lon="7.22969">
        <ele>851.3</ele>
        <time>2021-08-04T12:43:50Z</time>
      </trkpt>
      <trkpt lat="48.21296" lon="7.22968">
        <ele>851.3</ele>
        <time>2021-08-04T12:43:51Z</time>
      </trkpt>
      <trkpt lat="48.21294" lon="7.22967">
        <ele>851.3</ele>
        <time>2021-08-04T12:43:52Z</time>
      </trkpt>
      <trkpt lat="48.21292" lon="7.22965">
        <ele>851.2</ele>
        <time>2021-08-04T12:43:53Z</time>
      </trkpt>
      <trkpt lat="48.21289" lon="7.22958">
        <ele>851</ele>
        <time>2021-08-04T12:43:55Z</time>
      </trkpt>
      <trkpt lat="48.21287" lon="7.22953">
        <ele>850.9</ele>
        <time>2021-08-04T12:43:56Z</time>
      </trkpt>
      <trkpt lat="48.21284" lon="7.22949">
        <ele>850.8</ele>
        <time>2021-08-04T12:43:57Z</time>
      </trkpt>
      <trkpt lat="48.21279" lon="7.22943">
        <ele>850.6</ele>
        <time>2021-08-04T12:43:59Z</time>
      </trkpt>
      <trkpt lat="48.21276" lon="7.2294">
        <ele>850.4</ele>
        <time>2021-08-04T12:44:01Z</time>
      </trkpt>
      <trkpt lat="48.21274" lon="7.22937">
        <ele>850.3</ele>
        <time>2021-08-04T12:44:02Z</time>
      </trkpt>
      <trkpt lat="48.21272" lon="7.22933">
        <ele>850.2</ele>
        <time>2021-08-04T12:44:03Z</time>
      </trkpt>
      <trkpt lat="48.2127" lon="7.22931">
        <ele>850.1</ele>
        <time>2021-08-04T12:44:04Z</time>
      </trkpt>
      <trkpt lat="48.21269" lon="7.2293">
        <ele>850.1</ele>
        <time>2021-08-04T12:44:05Z</time>
      </trkpt>
      <trkpt lat="48.21268" lon="7.22929">
        <ele>850</ele>
        <time>2021-08-04T12:44:07Z</time>
      </trkpt>
      <trkpt lat="48.21266" lon="7.22929">
        <ele>849.9</ele>
        <time>2021-08-04T12:44:08Z</time>
      </trkpt>
      <trkpt lat="48.21262" lon="7.22927">
        <ele>849.8</ele>
        <time>2021-08-04T12:44:10Z</time>
      </trkpt>
      <trkpt lat="48.21258" lon="7.22924">
        <ele>849.6</ele>
        <time>2021-08-04T12:44:11Z</time>
      </trkpt>
      <trkpt lat="48.21253" lon="7.2292">
        <ele>849.3</ele>
        <time>2021-08-04T12:44:12Z</time>
      </trkpt>
      <trkpt lat="48.21248" lon="7.22918">
        <ele>849</ele>
        <time>2021-08-04T12:44:13Z</time>
      </trkpt>
      <trkpt lat="48.21239" lon="7.22914">
        <ele>848.5</ele>
        <time>2021-08-04T12:44:15Z</time>
      </trkpt>
      <trkpt lat="48.21233" lon="7.2291">
        <ele>848.2</ele>
        <time>2021-08-04T12:44:16Z</time>
      </trkpt>
      <trkpt lat="48.21225" lon="7.22906">
        <ele>847.7</ele>
        <time>2021-08-04T12:44:17Z</time>
      </trkpt>
      <trkpt lat="48.21219" lon="7.22902">
        <ele>847.4</ele>
        <time>2021-08-04T12:44:18Z</time>
      </trkpt>
      <trkpt lat="48.21213" lon="7.22898">
        <ele>847.1</ele>
        <time>2021-08-04T12:44:19Z</time>
      </trkpt>
      <trkpt lat="48.21201" lon="7.2289">
        <ele>846.4</ele>
        <time>2021-08-04T12:44:20Z</time>
      </trkpt>
      <trkpt lat="48.21187" lon="7.22886">
        <ele>845.6</ele>
        <time>2021-08-04T12:44:22Z</time>
      </trkpt>
      <trkpt lat="48.21167" lon="7.22877">
        <ele>844.3</ele>
        <time>2021-08-04T12:44:24Z</time>
      </trkpt>
      <trkpt lat="48.21145" lon="7.22866">
        <ele>842.5</ele>
        <time>2021-08-04T12:44:26Z</time>
      </trkpt>
      <trkpt lat="48.21122" lon="7.22857">
        <ele>840.8</ele>
        <time>2021-08-04T12:44:28Z</time>
      </trkpt>
      <trkpt lat="48.21105" lon="7.22851">
        <ele>839.8</ele>
        <time>2021-08-04T12:44:30Z</time>
      </trkpt>
      <trkpt lat="48.21097" lon="7.22848">
        <ele>839.4</ele>
        <time>2021-08-04T12:44:31Z</time>
      </trkpt>
      <trkpt lat="48.21087" lon="7.22846">
        <ele>839</ele>
        <time>2021-08-04T12:44:32Z</time>
      </trkpt>
      <trkpt lat="48.21069" lon="7.22841">
        <ele>838.5</ele>
        <time>2021-08-04T12:44:34Z</time>
      </trkpt>
      <trkpt lat="48.21061" lon="7.2284">
        <ele>838.3</ele>
        <time>2021-08-04T12:44:35Z</time>
      </trkpt>
      <trkpt lat="48.21045" lon="7.22834">
        <ele>837.9</ele>
        <time>2021-08-04T12:44:37Z</time>
      </trkpt>
      <trkpt lat="48.21037" lon="7.2283">
        <ele>837.7</ele>
        <time>2021-08-04T12:44:38Z</time>
      </trkpt>
      <trkpt lat="48.21022" lon="7.22823">
        <ele>837.5</ele>
        <time>2021-08-04T12:44:40Z</time>
      </trkpt>
      <trkpt lat="48.21015" lon="7.22822">
        <ele>837.3</ele>
        <time>2021-08-04T12:44:41Z</time>
      </trkpt>
      <trkpt lat="48.21003" lon="7.22822">
        <ele>836.4</ele>
        <time>2021-08-04T12:44:43Z</time>
      </trkpt>
      <trkpt lat="48.20998" lon="7.22822">
        <ele>836.4</ele>
        <time>2021-08-04T12:44:44Z</time>
      </trkpt>
      <trkpt lat="48.20988" lon="7.2282">
        <ele>835.5</ele>
        <time>2021-08-04T12:44:46Z</time>
      </trkpt>
      <trkpt lat="48.20983" lon="7.22819">
        <ele>835.2</ele>
        <time>2021-08-04T12:44:47Z</time>
      </trkpt>
      <trkpt lat="48.20978" lon="7.22819">
        <ele>835</ele>
        <time>2021-08-04T12:44:48Z</time>
      </trkpt>
      <trkpt lat="48.20969" lon="7.22822">
        <ele>834.6</ele>
        <time>2021-08-04T12:44:50Z</time>
      </trkpt>
      <trkpt lat="48.20961" lon="7.22824">
        <ele>834.3</ele>
        <time>2021-08-04T12:44:52Z</time>
      </trkpt>
      <trkpt lat="48.20958" lon="7.22825">
        <ele>834.2</ele>
        <time>2021-08-04T12:44:53Z</time>
      </trkpt>
      <trkpt lat="48.20951" lon="7.22826">
        <ele>833.9</ele>
        <time>2021-08-04T12:44:55Z</time>
      </trkpt>
      <trkpt lat="48.20948" lon="7.22827">
        <ele>833.7</ele>
        <time>2021-08-04T12:44:56Z</time>
      </trkpt>
      <trkpt lat="48.20947" lon="7.2283">
        <ele>833.6</ele>
        <time>2021-08-04T12:44:57Z</time>
      </trkpt>
      <trkpt lat="48.2095" lon="7.2284">
        <ele>833.3</ele>
        <time>2021-08-04T12:44:59Z</time>
      </trkpt>
      <trkpt lat="48.20951" lon="7.22847">
        <ele>833.1</ele>
        <time>2021-08-04T12:45:00Z</time>
      </trkpt>
      <trkpt lat="48.20951" lon="7.22852">
        <ele>832.9</ele>
        <time>2021-08-04T12:45:02Z</time>
      </trkpt>
      <trkpt lat="48.20947" lon="7.22854">
        <ele>832.7</ele>
        <time>2021-08-04T12:45:03Z</time>
      </trkpt>
      <trkpt lat="48.20946" lon="7.22855">
        <ele>832.6</ele>
        <time>2021-08-04T12:45:04Z</time>
      </trkpt>
      <trkpt lat="48.2094" lon="7.22855">
        <ele>832.3</ele>
        <time>2021-08-04T12:45:06Z</time>
      </trkpt>
      <trkpt lat="48.20926" lon="7.22842">
        <ele>831.5</ele>
        <time>2021-08-04T12:45:07Z</time>
      </trkpt>
      <trkpt lat="48.2092" lon="7.22836">
        <ele>831</ele>
        <time>2021-08-04T12:45:09Z</time>
      </trkpt>
      <trkpt lat="48.20912" lon="7.22827">
        <ele>830.4</ele>
        <time>2021-08-04T12:45:10Z</time>
      </trkpt>
      <trkpt lat="48.20899" lon="7.22814">
        <ele>829.3</ele>
        <time>2021-08-04T12:45:12Z</time>
      </trkpt>
      <trkpt lat="48.2089" lon="7.22803">
        <ele>828.3</ele>
        <time>2021-08-04T12:45:14Z</time>
      </trkpt>
      <trkpt lat="48.20876" lon="7.2278">
        <ele>826.4</ele>
        <time>2021-08-04T12:45:16Z</time>
      </trkpt>
      <trkpt lat="48.20873" lon="7.22773">
        <ele>825.8</ele>
        <time>2021-08-04T12:45:17Z</time>
      </trkpt>
      <trkpt lat="48.20868" lon="7.22766">
        <ele>825.1</ele>
        <time>2021-08-04T12:45:18Z</time>
      </trkpt>
      <trkpt lat="48.20862" lon="7.22756">
        <ele>824.1</ele>
        <time>2021-08-04T12:45:19Z</time>
      </trkpt>
      <trkpt lat="48.20855" lon="7.2274">
        <ele>822.8</ele>
        <time>2021-08-04T12:45:21Z</time>
      </trkpt>
      <trkpt lat="48.20849" lon="7.22726">
        <ele>821.6</ele>
        <time>2021-08-04T12:45:23Z</time>
      </trkpt>
      <trkpt lat="48.20845" lon="7.22718">
        <ele>820.9</ele>
        <time>2021-08-04T12:45:24Z</time>
      </trkpt>
      <trkpt lat="48.2084" lon="7.22711">
        <ele>820.2</ele>
        <time>2021-08-04T12:45:25Z</time>
      </trkpt>
      <trkpt lat="48.2083" lon="7.22697">
        <ele>818.7</ele>
        <time>2021-08-04T12:45:27Z</time>
      </trkpt>
      <trkpt lat="48.20825" lon="7.2269">
        <ele>817.9</ele>
        <time>2021-08-04T12:45:28Z</time>
      </trkpt>
      <trkpt lat="48.20818" lon="7.22682">
        <ele>816.9</ele>
        <time>2021-08-04T12:45:29Z</time>
      </trkpt>
      <trkpt lat="48.20783" lon="7.22634">
        <ele>810.6</ele>
        <time>2021-08-04T12:45:35Z</time>
      </trkpt>
      <trkpt lat="48.20777" lon="7.22626">
        <ele>809.6</ele>
        <time>2021-08-04T12:45:36Z</time>
      </trkpt>
      <trkpt lat="48.20768" lon="7.22613">
        <ele>808.2</ele>
        <time>2021-08-04T12:45:38Z</time>
      </trkpt>
      <trkpt lat="48.20757" lon="7.22599">
        <ele>806.5</ele>
        <time>2021-08-04T12:45:40Z</time>
      </trkpt>
      <trkpt lat="48.20747" lon="7.22587">
        <ele>805</ele>
        <time>2021-08-04T12:45:42Z</time>
      </trkpt>
      <trkpt lat="48.20742" lon="7.22581">
        <ele>804.1</ele>
        <time>2021-08-04T12:45:43Z</time>
      </trkpt>
      <trkpt lat="48.20733" lon="7.22569">
        <ele>802.7</ele>
        <time>2021-08-04T12:45:45Z</time>
      </trkpt>
      <trkpt lat="48.2073" lon="7.22563">
        <ele>802.1</ele>
        <time>2021-08-04T12:45:46Z</time>
      </trkpt>
      <trkpt lat="48.20729" lon="7.22558">
        <ele>801.7</ele>
        <time>2021-08-04T12:45:47Z</time>
      </trkpt>
      <trkpt lat="48.20728" lon="7.22556">
        <ele>801.5</ele>
        <time>2021-08-04T12:45:48Z</time>
      </trkpt>
      <trkpt lat="48.20724" lon="7.22544">
        <ele>800.5</ele>
        <time>2021-08-04T12:45:50Z</time>
      </trkpt>
      <trkpt lat="48.2072" lon="7.22535">
        <ele>799.6</ele>
        <time>2021-08-04T12:45:52Z</time>
      </trkpt>
      <trkpt lat="48.2072" lon="7.22535">
        <ele>799.5</ele>
        <time>2021-08-04T12:45:53Z</time>
      </trkpt>
      <trkpt lat="48.20717" lon="7.2253">
        <ele>799</ele>
        <time>2021-08-04T12:45:55Z</time>
      </trkpt>
      <trkpt lat="48.20716" lon="7.22527">
        <ele>798.7</ele>
        <time>2021-08-04T12:45:56Z</time>
      </trkpt>
      <trkpt lat="48.20713" lon="7.2252">
        <ele>798</ele>
        <time>2021-08-04T12:45:58Z</time>
      </trkpt>
      <trkpt lat="48.2071" lon="7.22515">
        <ele>797.5</ele>
        <time>2021-08-04T12:45:59Z</time>
      </trkpt>
      <trkpt lat="48.20705" lon="7.22509">
        <ele>796.7</ele>
        <time>2021-08-04T12:46:00Z</time>
      </trkpt>
      <trkpt lat="48.20701" lon="7.22503">
        <ele>796</ele>
        <time>2021-08-04T12:46:02Z</time>
      </trkpt>
      <trkpt lat="48.20698" lon="7.22497">
        <ele>795.5</ele>
        <time>2021-08-04T12:46:03Z</time>
      </trkpt>
      <trkpt lat="48.20696" lon="7.22493">
        <ele>795.1</ele>
        <time>2021-08-04T12:46:04Z</time>
      </trkpt>
      <trkpt lat="48.20694" lon="7.22491">
        <ele>794.9</ele>
        <time>2021-08-04T12:46:05Z</time>
      </trkpt>
      <trkpt lat="48.20692" lon="7.22487">
        <ele>794.6</ele>
        <time>2021-08-04T12:46:06Z</time>
      </trkpt>
      <trkpt lat="48.20692" lon="7.22486">
        <ele>794.5</ele>
        <time>2021-08-04T12:46:07Z</time>
      </trkpt>
      <trkpt lat="48.20692" lon="7.22485">
        <ele>794.4</ele>
        <time>2021-08-04T12:46:08Z</time>
      </trkpt>
      <trkpt lat="48.20691" lon="7.22481">
        <ele>794.1</ele>
        <time>2021-08-04T12:46:10Z</time>
      </trkpt>
      <trkpt lat="48.20691" lon="7.22479">
        <ele>793.9</ele>
        <time>2021-08-04T12:46:11Z</time>
      </trkpt>
      <trkpt lat="48.20691" lon="7.22477">
        <ele>793.9</ele>
        <time>2021-08-04T12:46:12Z</time>
      </trkpt>
      <trkpt lat="48.2069" lon="7.22476">
        <ele>793.8</ele>
        <time>2021-08-04T12:46:13Z</time>
      </trkpt>
      <trkpt lat="48.20785" lon="7.22209">
        <ele>779.7</ele>
        <time>2021-08-04T12:46:58Z</time>
      </trkpt>
      <trkpt lat="48.20786" lon="7.22205">
        <ele>779.7</ele>
        <time>2021-08-04T12:46:59Z</time>
      </trkpt>
      <trkpt lat="48.20787" lon="7.22197">
        <ele>779.7</ele>
        <time>2021-08-04T12:47:00Z</time>
      </trkpt>
      <trkpt lat="48.2079" lon="7.22192">
        <ele>779.6</ele>
        <time>2021-08-04T12:47:01Z</time>
      </trkpt>
      <trkpt lat="48.20794" lon="7.22182">
        <ele>779.5</ele>
        <time>2021-08-04T12:47:03Z</time>
      </trkpt>
      <trkpt lat="48.20797" lon="7.22174">
        <ele>779.3</ele>
        <time>2021-08-04T12:47:04Z</time>
      </trkpt>
      <trkpt lat="48.20799" lon="7.22166">
        <ele>778.9</ele>
        <time>2021-08-04T12:47:06Z</time>
      </trkpt>
      <trkpt lat="48.208" lon="7.22159">
        <ele>778.6</ele>
        <time>2021-08-04T12:47:07Z</time>
      </trkpt>
      <trkpt lat="48.208" lon="7.22154">
        <ele>778.3</ele>
        <time>2021-08-04T12:47:08Z</time>
      </trkpt>
      <trkpt lat="48.208" lon="7.22152">
        <ele>778.2</ele>
        <time>2021-08-04T12:47:09Z</time>
      </trkpt>
      <trkpt lat="48.208" lon="7.22151">
        <ele>778.2</ele>
        <time>2021-08-04T12:47:10Z</time>
      </trkpt>
      <trkpt lat="48.20799" lon="7.2215">
        <ele>778</ele>
        <time>2021-08-04T12:47:11Z</time>
      </trkpt>
      <trkpt lat="48.20799" lon="7.22148">
        <ele>777.9</ele>
        <time>2021-08-04T12:47:13Z</time>
      </trkpt>
      <trkpt lat="48.20798" lon="7.22146">
        <ele>777.7</ele>
        <time>2021-08-04T12:47:14Z</time>
      </trkpt>
      <trkpt lat="48.20797" lon="7.22146">
        <ele>777.6</ele>
        <time>2021-08-04T12:47:15Z</time>
      </trkpt>
      <trkpt lat="48.20796" lon="7.22146">
        <ele>777.5</ele>
        <time>2021-08-04T12:47:16Z</time>
      </trkpt>
      <trkpt lat="48.20795" lon="7.22147">
        <ele>777.3</ele>
        <time>2021-08-04T12:47:17Z</time>
      </trkpt>
      <trkpt lat="48.20794" lon="7.22149">
        <ele>777.1</ele>
        <time>2021-08-04T12:47:19Z</time>
      </trkpt>
      <trkpt lat="48.20728" lon="7.22237">
        <ele>765</ele>
        <time>2021-08-04T12:47:48Z</time>
      </trkpt>
      <trkpt lat="48.20713" lon="7.22247">
        <ele>762.9</ele>
        <time>2021-08-04T12:47:50Z</time>
      </trkpt>
      <trkpt lat="48.20701" lon="7.22255">
        <ele>761.5</ele>
        <time>2021-08-04T12:47:52Z</time>
      </trkpt>
      <trkpt lat="48.20696" lon="7.22259">
        <ele>760.9</ele>
        <time>2021-08-04T12:47:53Z</time>
      </trkpt>
      <trkpt lat="48.2069" lon="7.22264">
        <ele>760.3</ele>
        <time>2021-08-04T12:47:54Z</time>
      </trkpt>
      <trkpt lat="48.20684" lon="7.22266">
        <ele>759.5</ele>
        <time>2021-08-04T12:47:55Z</time>
      </trkpt>
      <trkpt lat="48.20678" lon="7.22269">
        <ele>758.8</ele>
        <time>2021-08-04T12:47:56Z</time>
      </trkpt>
      <trkpt lat="48.20665" lon="7.22272">
        <ele>757.7</ele>
        <time>2021-08-04T12:47:58Z</time>
      </trkpt>
      <trkpt lat="48.20658" lon="7.22271">
        <ele>756.9</ele>
        <time>2021-08-04T12:47:59Z</time>
      </trkpt>
      <trkpt lat="48.20651" lon="7.22271">
        <ele>756.1</ele>
        <time>2021-08-04T12:48:00Z</time>
      </trkpt>
      <trkpt lat="48.20634" lon="7.22274">
        <ele>754.3</ele>
        <time>2021-08-04T12:48:02Z</time>
      </trkpt>
      <trkpt lat="48.20626" lon="7.22276">
        <ele>753.5</ele>
        <time>2021-08-04T12:48:03Z</time>
      </trkpt>
      <trkpt lat="48.20611" lon="7.22281">
        <ele>752</ele>
        <time>2021-08-04T12:48:05Z</time>
      </trkpt>
      <trkpt lat="48.20596" lon="7.22282">
        <ele>750.5</ele>
        <time>2021-08-04T12:48:07Z</time>
      </trkpt>
      <trkpt lat="48.2059" lon="7.2228">
        <ele>749.7</ele>
        <time>2021-08-04T12:48:08Z</time>
      </trkpt>
      <trkpt lat="48.20579" lon="7.22268">
        <ele>748</ele>
        <time>2021-08-04T12:48:10Z</time>
      </trkpt>
      <trkpt lat="48.20574" lon="7.22261">
        <ele>747.2</ele>
        <time>2021-08-04T12:48:11Z</time>
      </trkpt>
      <trkpt lat="48.20571" lon="7.22257">
        <ele>746.6</ele>
        <time>2021-08-04T12:48:12Z</time>
      </trkpt>
      <trkpt lat="48.20565" lon="7.22245">
        <ele>745.3</ele>
        <time>2021-08-04T12:48:14Z</time>
      </trkpt>
      <trkpt lat="48.20564" lon="7.22227">
        <ele>743.8</ele>
        <time>2021-08-04T12:48:16Z</time>
      </trkpt>
      <trkpt lat="48.20559" lon="7.222">
        <ele>742.1</ele>
        <time>2021-08-04T12:48:18Z</time>
      </trkpt>
      <trkpt lat="48.20554" lon="7.22184">
        <ele>741.3</ele>
        <time>2021-08-04T12:48:19Z</time>
      </trkpt>
      <trkpt lat="48.20547" lon="7.22169">
        <ele>740.8</ele>
        <time>2021-08-04T12:48:20Z</time>
      </trkpt>
      <trkpt lat="48.20532" lon="7.22141">
        <ele>740.2</ele>
        <time>2021-08-04T12:48:22Z</time>
      </trkpt>
      <trkpt lat="48.20524" lon="7.22128">
        <ele>740.1</ele>
        <time>2021-08-04T12:48:23Z</time>
      </trkpt>
      <trkpt lat="48.20515" lon="7.22116">
        <ele>740.1</ele>
        <time>2021-08-04T12:48:24Z</time>
      </trkpt>
      <trkpt lat="48.20495" lon="7.22088">
        <ele>743</ele>
        <time>2021-08-04T12:48:26Z</time>
      </trkpt>
      <trkpt lat="48.20476" lon="7.22062">
        <ele>748.8</ele>
        <time>2021-08-04T12:48:28Z</time>
      </trkpt>
      <trkpt lat="48.20458" lon="7.22039">
        <ele>755.8</ele>
        <time>2021-08-04T12:48:30Z</time>
      </trkpt>
      <trkpt lat="48.20447" lon="7.22029">
        <ele>758.2</ele>
        <time>2021-08-04T12:48:31Z</time>
      </trkpt>
      <trkpt lat="48.20437" lon="7.22022">
        <ele>760.1</ele>
        <time>2021-08-04T12:48:32Z</time>
      </trkpt>
      <trkpt lat="48.20418" lon="7.22009">
        <ele>761.8</ele>
        <time>2021-08-04T12:48:34Z</time>
      </trkpt>
      <trkpt lat="48.20409" lon="7.22002">
        <ele>763.3</ele>
        <time>2021-08-04T12:48:35Z</time>
      </trkpt>
      <trkpt lat="48.20406" lon="7.22005">
        <ele>762.1</ele>
        <time>2021-08-04T12:48:36Z</time>
      </trkpt>
      <trkpt lat="48.20411" lon="7.22027">
        <ele>757.6</ele>
        <time>2021-08-04T12:48:38Z</time>
      </trkpt>
      <trkpt lat="48.20424" lon="7.22052">
        <ele>753.1</ele>
        <time>2021-08-04T12:48:40Z</time>
      </trkpt>
      <trkpt lat="48.20432" lon="7.22075">
        <ele>749.2</ele>
        <time>2021-08-04T12:48:42Z</time>
      </trkpt>
      <trkpt lat="48.20431" lon="7.2209">
        <ele>746.7</ele>
        <time>2021-08-04T12:48:44Z</time>
      </trkpt>
      <trkpt lat="48.20429" lon="7.22091">
        <ele>746.7</ele>
        <time>2021-08-04T12:48:45Z</time>
      </trkpt>
      <trkpt lat="48.20428" lon="7.22092">
        <ele>746.7</ele>
        <time>2021-08-04T12:48:46Z</time>
      </trkpt>
      <trkpt lat="48.20428" lon="7.22092">
        <ele>746.7</ele>
        <time>2021-08-04T12:48:47Z</time>
      </trkpt>
      <trkpt lat="48.20425" lon="7.22095">
        <ele>746.2</ele>
        <time>2021-08-04T12:48:49Z</time>
      </trkpt>
      <trkpt lat="48.20423" lon="7.22098">
        <ele>745.8</ele>
        <time>2021-08-04T12:48:50Z</time>
      </trkpt>
      <trkpt lat="48.20421" lon="7.22102">
        <ele>745.8</ele>
        <time>2021-08-04T12:48:51Z</time>
      </trkpt>
      <trkpt lat="48.20421" lon="7.22106">
        <ele>745.3</ele>
        <time>2021-08-04T12:48:52Z</time>
      </trkpt>
      <trkpt lat="48.20422" lon="7.22114">
        <ele>744.3</ele>
        <time>2021-08-04T12:48:54Z</time>
      </trkpt>
      <trkpt lat="48.20423" lon="7.2212">
        <ele>743.4</ele>
        <time>2021-08-04T12:48:55Z</time>
      </trkpt>
      <trkpt lat="48.20423" lon="7.22123">
        <ele>743.4</ele>
        <time>2021-08-04T12:48:56Z</time>
      </trkpt>
      <trkpt lat="48.20424" lon="7.2213">
        <ele>742.6</ele>
        <time>2021-08-04T12:48:57Z</time>
      </trkpt>
      <trkpt lat="48.20423" lon="7.22134">
        <ele>742.7</ele>
        <time>2021-08-04T12:48:59Z</time>
      </trkpt>
      <trkpt lat="48.20421" lon="7.22138">
        <ele>742.8</ele>
        <time>2021-08-04T12:49:00Z</time>
      </trkpt>
      <trkpt lat="48.20418" lon="7.22139">
        <ele>742.9</ele>
        <time>2021-08-04T12:49:01Z</time>
      </trkpt>
      <trkpt lat="48.20417" lon="7.2214">
        <ele>742.9</ele>
        <time>2021-08-04T12:49:02Z</time>
      </trkpt>
      <trkpt lat="48.20414" lon="7.22139">
        <ele>743</ele>
        <time>2021-08-04T12:49:04Z</time>
      </trkpt>
      <trkpt lat="48.20414" lon="7.22137">
        <ele>743.1</ele>
        <time>2021-08-04T12:49:06Z</time>
      </trkpt>
      <trkpt lat="48.20413" lon="7.22137">
        <ele>743.1</ele>
        <time>2021-08-04T12:49:07Z</time>
      </trkpt>
      <trkpt lat="48.20409" lon="7.22137">
        <ele>743.2</ele>
        <time>2021-08-04T12:49:09Z</time>
      </trkpt>
      <trkpt lat="48.20405" lon="7.22134">
        <ele>743.4</ele>
        <time>2021-08-04T12:49:11Z</time>
      </trkpt>
      <trkpt lat="48.20403" lon="7.22133">
        <ele>743.5</ele>
        <time>2021-08-04T12:49:12Z</time>
      </trkpt>
      <trkpt lat="48.20402" lon="7.22133">
        <ele>743.5</ele>
        <time>2021-08-04T12:49:13Z</time>
      </trkpt>
      <trkpt lat="48.20399" lon="7.22135">
        <ele>743.6</ele>
        <time>2021-08-04T12:49:15Z</time>
      </trkpt>
      <trkpt lat="48.20398" lon="7.22136">
        <ele>743.7</ele>
        <time>2021-08-04T12:49:16Z</time>
      </trkpt>
      <trkpt lat="48.20396" lon="7.22138">
        <ele>743.8</ele>
        <time>2021-08-04T12:49:17Z</time>
      </trkpt>
      <trkpt lat="48.20395" lon="7.22138">
        <ele>743.8</ele>
        <time>2021-08-04T12:49:18Z</time>
      </trkpt>
      <trkpt lat="48.20392" lon="7.22139">
        <ele>743.9</ele>
        <time>2021-08-04T12:49:19Z</time>
      </trkpt>
      <trkpt lat="48.2039" lon="7.2214">
        <ele>744</ele>
        <time>2021-08-04T12:49:21Z</time>
      </trkpt>
      <trkpt lat="48.2039" lon="7.22144">
        <ele>744.1</ele>
        <time>2021-08-04T12:49:23Z</time>
      </trkpt>
      <trkpt lat="48.2039" lon="7.22146">
        <ele>744.1</ele>
        <time>2021-08-04T12:49:25Z</time>
      </trkpt>
      <trkpt lat="48.2039" lon="7.22147">
        <ele>744.1</ele>
        <time>2021-08-04T12:49:27Z</time>
      </trkpt>
      <trkpt lat="48.2039" lon="7.22148">
        <ele>744.2</ele>
        <time>2021-08-04T12:49:29Z</time>
      </trkpt>
      <trkpt lat="48.20389" lon="7.22149">
        <ele>744.2</ele>
        <time>2021-08-04T12:49:30Z</time>
      </trkpt>
      <trkpt lat="48.20388" lon="7.22151">
        <ele>744.3</ele>
        <time>2021-08-04T12:49:32Z</time>
      </trkpt>
      <trkpt lat="48.20369" lon="7.22164">
        <ele>744.9</ele>
        <time>2021-08-04T12:49:44Z</time>
      </trkpt>
      <trkpt lat="48.20365" lon="7.22168">
        <ele>745</ele>
        <time>2021-08-04T12:49:46Z</time>
      </trkpt>
      <trkpt lat="48.20362" lon="7.22171">
        <ele>745.1</ele>
        <time>2021-08-04T12:49:47Z</time>
      </trkpt>
      <trkpt lat="48.20361" lon="7.22173">
        <ele>745.2</ele>
        <time>2021-08-04T12:49:48Z</time>
      </trkpt>
      <trkpt lat="48.20359" lon="7.22175">
        <ele>745.3</ele>
        <time>2021-08-04T12:49:50Z</time>
      </trkpt>
      <trkpt lat="48.20358" lon="7.22175">
        <ele>745.4</ele>
        <time>2021-08-04T12:49:51Z</time>
      </trkpt>
      <trkpt lat="48.20358" lon="7.22176">
        <ele>745.4</ele>
        <time>2021-08-04T12:49:52Z</time>
      </trkpt>
      <trkpt lat="48.20357" lon="7.22176">
        <ele>745.4</ele>
        <time>2021-08-04T12:49:54Z</time>
      </trkpt>
      <trkpt lat="48.20356" lon="7.22175">
        <ele>745.5</ele>
        <time>2021-08-04T12:49:55Z</time>
      </trkpt>
      <trkpt lat="48.20356" lon="7.22175">
        <ele>745.5</ele>
        <time>2021-08-04T12:49:56Z</time>
      </trkpt>
      <trkpt lat="48.20355" lon="7.22175">
        <ele>745.6</ele>
        <time>2021-08-04T12:49:58Z</time>
      </trkpt>
      <trkpt lat="48.20331" lon="7.2218">
        <ele>747.2</ele>
        <time>2021-08-04T12:50:11Z</time>
      </trkpt>
      <trkpt lat="48.20327" lon="7.2218">
        <ele>747.4</ele>
        <time>2021-08-04T12:50:12Z</time>
      </trkpt>
      <trkpt lat="48.20324" lon="7.2218">
        <ele>747.6</ele>
        <time>2021-08-04T12:50:13Z</time>
      </trkpt>
      <trkpt lat="48.2032" lon="7.2218">
        <ele>747.8</ele>
        <time>2021-08-04T12:50:15Z</time>
      </trkpt>
      <trkpt lat="48.20317" lon="7.2218">
        <ele>748</ele>
        <time>2021-08-04T12:50:16Z</time>
      </trkpt>
      <trkpt lat="48.20314" lon="7.22181">
        <ele>748.2</ele>
        <time>2021-08-04T12:50:17Z</time>
      </trkpt>
      <trkpt lat="48.20312" lon="7.22181">
        <ele>748.3</ele>
        <time>2021-08-04T12:50:18Z</time>
      </trkpt>
      <trkpt lat="48.2031" lon="7.22182">
        <ele>748.4</ele>
        <time>2021-08-04T12:50:19Z</time>
      </trkpt>
      <trkpt lat="48.20307" lon="7.22184">
        <ele>748.6</ele>
        <time>2021-08-04T12:50:21Z</time>
      </trkpt>
      <trkpt lat="48.20305" lon="7.22186">
        <ele>748.7</ele>
        <time>2021-08-04T12:50:23Z</time>
      </trkpt>
      <trkpt lat="48.20303" lon="7.22186">
        <ele>748.8</ele>
        <time>2021-08-04T12:50:24Z</time>
      </trkpt>
      <trkpt lat="48.20301" lon="7.22186">
        <ele>749</ele>
        <time>2021-08-04T12:50:26Z</time>
      </trkpt>
      <trkpt lat="48.20298" lon="7.22186">
        <ele>749.1</ele>
        <time>2021-08-04T12:50:27Z</time>
      </trkpt>
      <trkpt lat="48.20296" lon="7.22187">
        <ele>749.2</ele>
        <time>2021-08-04T12:50:28Z</time>
      </trkpt>
      <trkpt lat="48.20295" lon="7.22187">
        <ele>749.3</ele>
        <time>2021-08-04T12:50:29Z</time>
      </trkpt>
      <trkpt lat="48.20294" lon="7.22187">
        <ele>749.3</ele>
        <time>2021-08-04T12:50:30Z</time>
      </trkpt>
      <trkpt lat="48.20291" lon="7.22185">
        <ele>749.4</ele>
        <time>2021-08-04T12:50:32Z</time>
      </trkpt>
      <trkpt lat="48.2029" lon="7.22185">
        <ele>749.5</ele>
        <time>2021-08-04T12:50:34Z</time>
      </trkpt>
      <trkpt lat="48.2029" lon="7.22184">
        <ele>749.5</ele>
        <time>2021-08-04T12:50:35Z</time>
      </trkpt>
      <trkpt lat="48.2029" lon="7.22184">
        <ele>749.6</ele>
        <time>2021-08-04T12:50:36Z</time>
      </trkpt>
      <trkpt lat="48.20287" lon="7.22183">
        <ele>749.7</ele>
        <time>2021-08-04T12:50:38Z</time>
      </trkpt>
      <trkpt lat="48.20286" lon="7.22182">
        <ele>749.7</ele>
        <time>2021-08-04T12:50:40Z</time>
      </trkpt>
      <trkpt lat="48.20286" lon="7.22182">
        <ele>749.7</ele>
        <time>2021-08-04T12:50:41Z</time>
      </trkpt>
      <trkpt lat="48.20285" lon="7.22183">
        <ele>749.8</ele>
        <time>2021-08-04T12:50:42Z</time>
      </trkpt>
      <trkpt lat="48.20285" lon="7.22183">
        <ele>749.8</ele>
        <time>2021-08-04T12:50:44Z</time>
      </trkpt>
      <trkpt lat="48.20284" lon="7.22183">
        <ele>749.8</ele>
        <time>2021-08-04T12:50:46Z</time>
      </trkpt>
      <trkpt lat="48.20283" lon="7.22183">
        <ele>749.9</ele>
        <time>2021-08-04T12:50:47Z</time>
      </trkpt>
      <trkpt lat="48.20282" lon="7.22184">
        <ele>749.9</ele>
        <time>2021-08-04T12:50:48Z</time>
      </trkpt>
      <trkpt lat="48.2027" lon="7.22187">
        <ele>750.3</ele>
        <time>2021-08-04T12:50:55Z</time>
      </trkpt>
      <trkpt lat="48.20267" lon="7.22188">
        <ele>750.4</ele>
        <time>2021-08-04T12:50:56Z</time>
      </trkpt>
      <trkpt lat="48.20262" lon="7.22189">
        <ele>750.6</ele>
        <time>2021-08-04T12:50:58Z</time>
      </trkpt>
      <trkpt lat="48.20259" lon="7.2219">
        <ele>750.7</ele>
        <time>2021-08-04T12:50:59Z</time>
      </trkpt>
      <trkpt lat="48.20257" lon="7.2219">
        <ele>750.8</ele>
        <time>2021-08-04T12:51:00Z</time>
      </trkpt>
      <trkpt lat="48.20251" lon="7.22189">
        <ele>750.9</ele>
        <time>2021-08-04T12:51:02Z</time>
      </trkpt>
      <trkpt lat="48.2025" lon="7.2219">
        <ele>751</ele>
        <time>2021-08-04T12:51:04Z</time>
      </trkpt>
      <trkpt lat="48.20248" lon="7.22191">
        <ele>751</ele>
        <time>2021-08-04T12:51:05Z</time>
      </trkpt>
      <trkpt lat="48.20247" lon="7.22192">
        <ele>751</ele>
        <time>2021-08-04T12:51:07Z</time>
      </trkpt>
      <trkpt lat="48.20246" lon="7.22194">
        <ele>751.1</ele>
        <time>2021-08-04T12:51:08Z</time>
      </trkpt>
      <trkpt lat="48.20244" lon="7.22195">
        <ele>751.1</ele>
        <time>2021-08-04T12:51:10Z</time>
      </trkpt>
      <trkpt lat="48.20243" lon="7.22196">
        <ele>751.1</ele>
        <time>2021-08-04T12:51:11Z</time>
      </trkpt>
      <trkpt lat="48.20242" lon="7.22197">
        <ele>751.1</ele>
        <time>2021-08-04T12:51:12Z</time>
      </trkpt>
      <trkpt lat="48.20241" lon="7.22198">
        <ele>751.2</ele>
        <time>2021-08-04T12:51:13Z</time>
      </trkpt>
      <trkpt lat="48.20239" lon="7.22199">
        <ele>751.2</ele>
        <time>2021-08-04T12:51:14Z</time>
      </trkpt>
      <trkpt lat="48.20238" lon="7.22201">
        <ele>751.2</ele>
        <time>2021-08-04T12:51:16Z</time>
      </trkpt>
      <trkpt lat="48.20237" lon="7.22202">
        <ele>751.2</ele>
        <time>2021-08-04T12:51:26Z</time>
      </trkpt>
      <trkpt lat="48.20235" lon="7.22203">
        <ele>751.2</ele>
        <time>2021-08-04T12:51:27Z</time>
      </trkpt>
      <trkpt lat="48.20234" lon="7.22204">
        <ele>751.3</ele>
        <time>2021-08-04T12:51:28Z</time>
      </trkpt>
      <trkpt lat="48.2023" lon="7.22205">
        <ele>751.3</ele>
        <time>2021-08-04T12:51:29Z</time>
      </trkpt>
      <trkpt lat="48.20225" lon="7.22206">
        <ele>751.3</ele>
        <time>2021-08-04T12:51:30Z</time>
      </trkpt>
      <trkpt lat="48.2022" lon="7.22208">
        <ele>751.4</ele>
        <time>2021-08-04T12:51:31Z</time>
      </trkpt>
      <trkpt lat="48.20215" lon="7.2221">
        <ele>751.4</ele>
        <time>2021-08-04T12:51:33Z</time>
      </trkpt>
      <trkpt lat="48.20213" lon="7.22212">
        <ele>751.4</ele>
        <time>2021-08-04T12:51:34Z</time>
      </trkpt>
      <trkpt lat="48.20208" lon="7.22215">
        <ele>751.5</ele>
        <time>2021-08-04T12:51:36Z</time>
      </trkpt>
      <trkpt lat="48.20206" lon="7.22217">
        <ele>751.5</ele>
        <time>2021-08-04T12:51:37Z</time>
      </trkpt>
      <trkpt lat="48.20205" lon="7.22217">
        <ele>751.5</ele>
        <time>2021-08-04T12:51:38Z</time>
      </trkpt>
      <trkpt lat="48.20202" lon="7.22219">
        <ele>751.6</ele>
        <time>2021-08-04T12:51:39Z</time>
      </trkpt>
      <trkpt lat="48.20201" lon="7.2222">
        <ele>751.6</ele>
        <time>2021-08-04T12:51:41Z</time>
      </trkpt>
      <trkpt lat="48.202" lon="7.22221">
        <ele>751.6</ele>
        <time>2021-08-04T12:51:42Z</time>
      </trkpt>
      <trkpt lat="48.20198" lon="7.22222">
        <ele>751.6</ele>
        <time>2021-08-04T12:51:43Z</time>
      </trkpt>
      <trkpt lat="48.20195" lon="7.22223">
        <ele>751.7</ele>
        <time>2021-08-04T12:51:45Z</time>
      </trkpt>
      <trkpt lat="48.20194" lon="7.22223">
        <ele>751.7</ele>
        <time>2021-08-04T12:51:46Z</time>
      </trkpt>
      <trkpt lat="48.2019" lon="7.22223">
        <ele>751.7</ele>
        <time>2021-08-04T12:51:47Z</time>
      </trkpt>
      <trkpt lat="48.20189" lon="7.22222">
        <ele>751.7</ele>
        <time>2021-08-04T12:51:48Z</time>
      </trkpt>
      <trkpt lat="48.20186" lon="7.22222">
        <ele>751.8</ele>
        <time>2021-08-04T12:51:49Z</time>
      </trkpt>
      <trkpt lat="48.20185" lon="7.22221">
        <ele>751.8</ele>
        <time>2021-08-04T12:51:50Z</time>
      </trkpt>
      <trkpt lat="48.20183" lon="7.22221">
        <ele>751.8</ele>
        <time>2021-08-04T12:51:51Z</time>
      </trkpt>
      <trkpt lat="48.20179" lon="7.22221">
        <ele>751.9</ele>
        <time>2021-08-04T12:51:53Z</time>
      </trkpt>
      <trkpt lat="48.20176" lon="7.22218">
        <ele>752</ele>
        <time>2021-08-04T12:51:54Z</time>
      </trkpt>
      <trkpt lat="48.20175" lon="7.22217">
        <ele>752</ele>
        <time>2021-08-04T12:51:55Z</time>
      </trkpt>
      <trkpt lat="48.20172" lon="7.22214">
        <ele>752.1</ele>
        <time>2021-08-04T12:51:57Z</time>
      </trkpt>
      <trkpt lat="48.20169" lon="7.22211">
        <ele>752.1</ele>
        <time>2021-08-04T12:51:58Z</time>
      </trkpt>
      <trkpt lat="48.20166" lon="7.22209">
        <ele>752.2</ele>
        <time>2021-08-04T12:51:59Z</time>
      </trkpt>
      <trkpt lat="48.20163" lon="7.22206">
        <ele>752.3</ele>
        <time>2021-08-04T12:52:00Z</time>
      </trkpt>
      <trkpt lat="48.20158" lon="7.22206">
        <ele>752.4</ele>
        <time>2021-08-04T12:52:02Z</time>
      </trkpt>
      <trkpt lat="48.20157" lon="7.22206">
        <ele>752.5</ele>
        <time>2021-08-04T12:52:03Z</time>
      </trkpt>
      <trkpt lat="48.20156" lon="7.22205">
        <ele>752.5</ele>
        <time>2021-08-04T12:52:05Z</time>
      </trkpt>
      <trkpt lat="48.20155" lon="7.22205">
        <ele>752.5</ele>
        <time>2021-08-04T12:52:06Z</time>
      </trkpt>
      <trkpt lat="48.20153" lon="7.22205">
        <ele>752.6</ele>
        <time>2021-08-04T12:52:07Z</time>
      </trkpt>
      <trkpt lat="48.20152" lon="7.22205">
        <ele>752.6</ele>
        <time>2021-08-04T12:52:08Z</time>
      </trkpt>
      <trkpt lat="48.2015" lon="7.22207">
        <ele>752.7</ele>
        <time>2021-08-04T12:52:10Z</time>
      </trkpt>
      <trkpt lat="48.20148" lon="7.2221">
        <ele>752.8</ele>
        <time>2021-08-04T12:52:12Z</time>
      </trkpt>
      <trkpt lat="48.20146" lon="7.22212">
        <ele>752.8</ele>
        <time>2021-08-04T12:52:13Z</time>
      </trkpt>
      <trkpt lat="48.20145" lon="7.22213">
        <ele>752.9</ele>
        <time>2021-08-04T12:52:14Z</time>
      </trkpt>
      <trkpt lat="48.20144" lon="7.22214">
        <ele>752.9</ele>
        <time>2021-08-04T12:52:16Z</time>
      </trkpt>
      <trkpt lat="48.20144" lon="7.22215">
        <ele>753</ele>
        <time>2021-08-04T12:52:17Z</time>
      </trkpt>
      <trkpt lat="48.20143" lon="7.22216">
        <ele>753</ele>
        <time>2021-08-04T12:52:18Z</time>
      </trkpt>
      <trkpt lat="48.20139" lon="7.22218">
        <ele>753.1</ele>
        <time>2021-08-04T12:52:20Z</time>
      </trkpt>
      <trkpt lat="48.20138" lon="7.22218">
        <ele>753.2</ele>
        <time>2021-08-04T12:52:21Z</time>
      </trkpt>
      <trkpt lat="48.20135" lon="7.22218">
        <ele>753.3</ele>
        <time>2021-08-04T12:52:23Z</time>
      </trkpt>
      <trkpt lat="48.20133" lon="7.22218">
        <ele>753.3</ele>
        <time>2021-08-04T12:52:24Z</time>
      </trkpt>
      <trkpt lat="48.2013" lon="7.2222">
        <ele>753.5</ele>
        <time>2021-08-04T12:52:26Z</time>
      </trkpt>
      <trkpt lat="48.20127" lon="7.22223">
        <ele>753.6</ele>
        <time>2021-08-04T12:52:28Z</time>
      </trkpt>
      <trkpt lat="48.20126" lon="7.22224">
        <ele>753.7</ele>
        <time>2021-08-04T12:52:29Z</time>
      </trkpt>
      <trkpt lat="48.20124" lon="7.22226">
        <ele>753.8</ele>
        <time>2021-08-04T12:52:31Z</time>
      </trkpt>
      <trkpt lat="48.20121" lon="7.22227">
        <ele>754</ele>
        <time>2021-08-04T12:52:32Z</time>
      </trkpt>
      <trkpt lat="48.20118" lon="7.22229">
        <ele>754.1</ele>
        <time>2021-08-04T12:52:33Z</time>
      </trkpt>
      <trkpt lat="48.20117" lon="7.22229">
        <ele>754.2</ele>
        <time>2021-08-04T12:52:34Z</time>
      </trkpt>
      <trkpt lat="48.20116" lon="7.22231">
        <ele>754.3</ele>
        <time>2021-08-04T12:52:35Z</time>
      </trkpt>
      <trkpt lat="48.20113" lon="7.22235">
        <ele>754.5</ele>
        <time>2021-08-04T12:52:37Z</time>
      </trkpt>
      <trkpt lat="48.20111" lon="7.22236">
        <ele>754.6</ele>
        <time>2021-08-04T12:52:38Z</time>
      </trkpt>
      <trkpt lat="48.20109" lon="7.22237">
        <ele>754.7</ele>
        <time>2021-08-04T12:52:40Z</time>
      </trkpt>
      <trkpt lat="48.20107" lon="7.2224">
        <ele>754.9</ele>
        <time>2021-08-04T12:52:41Z</time>
      </trkpt>
      <trkpt lat="48.20106" lon="7.22241">
        <ele>755</ele>
        <time>2021-08-04T12:52:42Z</time>
      </trkpt>
      <trkpt lat="48.20106" lon="7.22241">
        <ele>755</ele>
        <time>2021-08-04T12:52:44Z</time>
      </trkpt>
      <trkpt lat="48.20107" lon="7.22241">
        <ele>755</ele>
        <time>2021-08-04T12:52:45Z</time>
      </trkpt>
      <trkpt lat="48.20107" lon="7.22241">
        <ele>755</ele>
        <time>2021-08-04T12:52:46Z</time>
      </trkpt>
      <trkpt lat="48.20107" lon="7.22241">
        <ele>755</ele>
        <time>2021-08-04T12:52:47Z</time>
      </trkpt>
      <trkpt lat="48.20107" lon="7.22241">
        <ele>755</ele>
        <time>2021-08-04T12:52:48Z</time>
      </trkpt>
      <trkpt lat="48.20107" lon="7.22241">
        <ele>755</ele>
        <time>2021-08-04T12:52:49Z</time>
      </trkpt>
      <trkpt lat="48.20107" lon="7.22241">
        <ele>755</ele>
        <time>2021-08-04T12:52:50Z</time>
      </trkpt>
      <trkpt lat="48.20107" lon="7.22241">
        <ele>755</ele>
        <time>2021-08-04T12:52:52Z</time>
      </trkpt>
      <trkpt lat="48.20025" lon="7.22216">
        <ele>764.3</ele>
        <time>2021-08-04T13:00:02Z</time>
      </trkpt>
      <trkpt lat="48.20023" lon="7.22213">
        <ele>764.6</ele>
        <time>2021-08-04T13:00:04Z</time>
      </trkpt>
      <trkpt lat="48.20022" lon="7.2221">
        <ele>764.8</ele>
        <time>2021-08-04T13:00:05Z</time>
      </trkpt>
      <trkpt lat="48.20019" lon="7.22209">
        <ele>765</ele>
        <time>2021-08-04T13:00:07Z</time>
      </trkpt>
      <trkpt lat="48.20018" lon="7.22209">
        <ele>765.2</ele>
        <time>2021-08-04T13:00:08Z</time>
      </trkpt>
      <trkpt lat="48.20017" lon="7.22209">
        <ele>765.3</ele>
        <time>2021-08-04T13:00:09Z</time>
      </trkpt>
      <trkpt lat="48.20016" lon="7.22208">
        <ele>765.3</ele>
        <time>2021-08-04T13:00:10Z</time>
      </trkpt>
      <trkpt lat="48.20016" lon="7.22208">
        <ele>765.4</ele>
        <time>2021-08-04T13:00:11Z</time>
      </trkpt>
      <trkpt lat="48.20015" lon="7.22207">
        <ele>765.5</ele>
        <time>2021-08-04T13:00:12Z</time>
      </trkpt>
      <trkpt lat="48.20013" lon="7.22207">
        <ele>765.7</ele>
        <time>2021-08-04T13:00:14Z</time>
      </trkpt>
      <trkpt lat="48.20012" lon="7.22206">
        <ele>765.8</ele>
        <time>2021-08-04T13:00:16Z</time>
      </trkpt>
      <trkpt lat="48.2" lon="7.22201">
        <ele>767</ele>
        <time>2021-08-04T13:00:24Z</time>
      </trkpt>
      <trkpt lat="48.19998" lon="7.22197">
        <ele>767.4</ele>
        <time>2021-08-04T13:00:26Z</time>
      </trkpt>
      <trkpt lat="48.19995" lon="7.22194">
        <ele>767.7</ele>
        <time>2021-08-04T13:00:27Z</time>
      </trkpt>
      <trkpt lat="48.19994" lon="7.22193">
        <ele>767.8</ele>
        <time>2021-08-04T13:00:28Z</time>
      </trkpt>
      <trkpt lat="48.19992" lon="7.22192">
        <ele>768.1</ele>
        <time>2021-08-04T13:00:29Z</time>
      </trkpt>
      <trkpt lat="48.19991" lon="7.22192">
        <ele>768.2</ele>
        <time>2021-08-04T13:00:30Z</time>
      </trkpt>
      <trkpt lat="48.19986" lon="7.22193">
        <ele>768.6</ele>
        <time>2021-08-04T13:00:32Z</time>
      </trkpt>
      <trkpt lat="48.19983" lon="7.22194">
        <ele>769</ele>
        <time>2021-08-04T13:00:33Z</time>
      </trkpt>
      <trkpt lat="48.19982" lon="7.22194">
        <ele>769.1</ele>
        <time>2021-08-04T13:00:34Z</time>
      </trkpt>
      <trkpt lat="48.19981" lon="7.22194">
        <ele>769.3</ele>
        <time>2021-08-04T13:00:35Z</time>
      </trkpt>
      <trkpt lat="48.1998" lon="7.22194">
        <ele>769.3</ele>
        <time>2021-08-04T13:00:36Z</time>
      </trkpt>
      <trkpt lat="48.1998" lon="7.22194">
        <ele>769.4</ele>
        <time>2021-08-04T13:00:38Z</time>
      </trkpt>
      <trkpt lat="48.19979" lon="7.22194">
        <ele>769.5</ele>
        <time>2021-08-04T13:00:39Z</time>
      </trkpt>
      <trkpt lat="48.19978" lon="7.22194">
        <ele>769.6</ele>
        <time>2021-08-04T13:00:41Z</time>
      </trkpt>
      <trkpt lat="48.19977" lon="7.22194">
        <ele>769.7</ele>
        <time>2021-08-04T13:00:42Z</time>
      </trkpt>
      <trkpt lat="48.19976" lon="7.22195">
        <ele>769.8</ele>
        <time>2021-08-04T13:00:44Z</time>
      </trkpt>
      <trkpt lat="48.19976" lon="7.22194">
        <ele>769.8</ele>
        <time>2021-08-04T13:00:45Z</time>
      </trkpt>
      <trkpt lat="48.19975" lon="7.22194">
        <ele>769.9</ele>
        <time>2021-08-04T13:00:46Z</time>
      </trkpt>
      <trkpt lat="48.19973" lon="7.22192">
        <ele>770.1</ele>
        <time>2021-08-04T13:00:48Z</time>
      </trkpt>
      <trkpt lat="48.19972" lon="7.22191">
        <ele>770.2</ele>
        <time>2021-08-04T13:00:49Z</time>
      </trkpt>
      <trkpt lat="48.19901" lon="7.22162">
        <ele>778.2</ele>
        <time>2021-08-04T13:01:58Z</time>
      </trkpt>
      <trkpt lat="48.19898" lon="7.2216">
        <ele>778.5</ele>
        <time>2021-08-04T13:01:59Z</time>
      </trkpt>
      <trkpt lat="48.19897" lon="7.2216">
        <ele>778.6</ele>
        <time>2021-08-04T13:02:00Z</time>
      </trkpt>
      <trkpt lat="48.19895" lon="7.22158">
        <ele>778.9</ele>
        <time>2021-08-04T13:02:01Z</time>
      </trkpt>
      <trkpt lat="48.19893" lon="7.22155">
        <ele>779</ele>
        <time>2021-08-04T13:02:03Z</time>
      </trkpt>
      <trkpt lat="48.19892" lon="7.22154">
        <ele>779.1</ele>
        <time>2021-08-04T13:02:04Z</time>
      </trkpt>
      <trkpt lat="48.19892" lon="7.22154">
        <ele>779.1</ele>
        <time>2021-08-04T13:02:05Z</time>
      </trkpt>
      <trkpt lat="48.19891" lon="7.22153">
        <ele>779.2</ele>
        <time>2021-08-04T13:02:06Z</time>
      </trkpt>
      <trkpt lat="48.19889" lon="7.22152">
        <ele>779.3</ele>
        <time>2021-08-04T13:02:07Z</time>
      </trkpt>
      <trkpt lat="48.19887" lon="7.22151">
        <ele>779.4</ele>
        <time>2021-08-04T13:02:08Z</time>
      </trkpt>
      <trkpt lat="48.19886" lon="7.22149">
        <ele>779.5</ele>
        <time>2021-08-04T13:02:09Z</time>
      </trkpt>
      <trkpt lat="48.19882" lon="7.22146">
        <ele>779.8</ele>
        <time>2021-08-04T13:02:11Z</time>
      </trkpt>
      <trkpt lat="48.19881" lon="7.22144">
        <ele>779.9</ele>
        <time>2021-08-04T13:02:12Z</time>
      </trkpt>
      <trkpt lat="48.1988" lon="7.22143">
        <ele>780</ele>
        <time>2021-08-04T13:02:14Z</time>
      </trkpt>
      <trkpt lat="48.1988" lon="7.22143">
        <ele>780</ele>
        <time>2021-08-04T13:02:15Z</time>
      </trkpt>
      <trkpt lat="48.1988" lon="7.22143">
        <ele>780.1</ele>
        <time>2021-08-04T13:02:17Z</time>
      </trkpt>
      <trkpt lat="48.1988" lon="7.22143">
        <ele>780.1</ele>
        <time>2021-08-04T13:02:19Z</time>
      </trkpt>
      <trkpt lat="48.1988" lon="7.22144">
        <ele>780.1</ele>
        <time>2021-08-04T13:02:21Z</time>
      </trkpt>
      <trkpt lat="48.1988" lon="7.22144">
        <ele>780.1</ele>
        <time>2021-08-04T13:02:22Z</time>
      </trkpt>
      <trkpt lat="48.19801" lon="7.22104">
        <ele>788.9</ele>
        <time>2021-08-04T13:04:17Z</time>
      </trkpt>
      <trkpt lat="48.19798" lon="7.22107">
        <ele>789.2</ele>
        <time>2021-08-04T13:04:19Z</time>
      </trkpt>
      <trkpt lat="48.19796" lon="7.22109">
        <ele>789.3</ele>
        <time>2021-08-04T13:04:20Z</time>
      </trkpt>
      <trkpt lat="48.19795" lon="7.2211">
        <ele>789.3</ele>
        <time>2021-08-04T13:04:21Z</time>
      </trkpt>
      <trkpt lat="48.19794" lon="7.22111">
        <ele>789.4</ele>
        <time>2021-08-04T13:04:23Z</time>
      </trkpt>
      <trkpt lat="48.19794" lon="7.22112">
        <ele>789.4</ele>
        <time>2021-08-04T13:04:24Z</time>
      </trkpt>
      <trkpt lat="48.19793" lon="7.22113">
        <ele>789.5</ele>
        <time>2021-08-04T13:04:25Z</time>
      </trkpt>
      <trkpt lat="48.19792" lon="7.22114">
        <ele>789.5</ele>
        <time>2021-08-04T13:04:26Z</time>
      </trkpt>
      <trkpt lat="48.19792" lon="7.22114">
        <ele>789.6</ele>
        <time>2021-08-04T13:04:27Z</time>
      </trkpt>
      <trkpt lat="48.19791" lon="7.22116">
        <ele>789.7</ele>
        <time>2021-08-04T13:04:29Z</time>
      </trkpt>
      <trkpt lat="48.1979" lon="7.22117">
        <ele>789.8</ele>
        <time>2021-08-04T13:04:30Z</time>
      </trkpt>
      <trkpt lat="48.1978" lon="7.22132">
        <ele>790.6</ele>
        <time>2021-08-04T13:04:44Z</time>
      </trkpt>
      <trkpt lat="48.19778" lon="7.22137">
        <ele>790.9</ele>
        <time>2021-08-04T13:04:46Z</time>
      </trkpt>
      <trkpt lat="48.19778" lon="7.22139">
        <ele>791</ele>
        <time>2021-08-04T13:04:47Z</time>
      </trkpt>
      <trkpt lat="48.19778" lon="7.2214">
        <ele>791</ele>
        <time>2021-08-04T13:04:48Z</time>
      </trkpt>
      <trkpt lat="48.19777" lon="7.22142">
        <ele>791.1</ele>
        <time>2021-08-04T13:04:50Z</time>
      </trkpt>
      <trkpt lat="48.19777" lon="7.22142">
        <ele>791.1</ele>
        <time>2021-08-04T13:04:51Z</time>
      </trkpt>
      <trkpt lat="48.19777" lon="7.22143">
        <ele>791.1</ele>
        <time>2021-08-04T13:04:53Z</time>
      </trkpt>
      <trkpt lat="48.19776" lon="7.22143">
        <ele>791.2</ele>
        <time>2021-08-04T13:04:54Z</time>
      </trkpt>
      <trkpt lat="48.19776" lon="7.22143">
        <ele>791.2</ele>
        <time>2021-08-04T13:04:55Z</time>
      </trkpt>
      <trkpt lat="48.19776" lon="7.22144">
        <ele>791.2</ele>
        <time>2021-08-04T13:04:57Z</time>
      </trkpt>
      <trkpt lat="48.19762" lon="7.22169">
        <ele>792.4</ele>
        <time>2021-08-04T13:05:17Z</time>
      </trkpt>
      <trkpt lat="48.1976" lon="7.22172">
        <ele>792.5</ele>
        <time>2021-08-04T13:05:18Z</time>
      </trkpt>
      <trkpt lat="48.19757" lon="7.22175">
        <ele>792.5</ele>
        <time>2021-08-04T13:05:20Z</time>
      </trkpt>
      <trkpt lat="48.19755" lon="7.22175">
        <ele>792.5</ele>
        <time>2021-08-04T13:05:21Z</time>
      </trkpt>
      <trkpt lat="48.19754" lon="7.22175">
        <ele>792.5</ele>
        <time>2021-08-04T13:05:22Z</time>
      </trkpt>
      <trkpt lat="48.19751" lon="7.22173">
        <ele>792.5</ele>
        <time>2021-08-04T13:05:24Z</time>
      </trkpt>
      <trkpt lat="48.1975" lon="7.22172">
        <ele>792.5</ele>
        <time>2021-08-04T13:05:25Z</time>
      </trkpt>
      <trkpt lat="48.19748" lon="7.22171">
        <ele>792.5</ele>
        <time>2021-08-04T13:05:26Z</time>
      </trkpt>
      <trkpt lat="48.19745" lon="7.2217">
        <ele>792.5</ele>
        <time>2021-08-04T13:05:28Z</time>
      </trkpt>
      <trkpt lat="48.19744" lon="7.2217">
        <ele>792.1</ele>
        <time>2021-08-04T13:05:29Z</time>
      </trkpt>
      <trkpt lat="48.19741" lon="7.22166">
        <ele>791.9</ele>
        <time>2021-08-04T13:05:31Z</time>
      </trkpt>
      <trkpt lat="48.19741" lon="7.22161">
        <ele>791.7</ele>
        <time>2021-08-04T13:05:33Z</time>
      </trkpt>
      <trkpt lat="48.19742" lon="7.2216">
        <ele>791.7</ele>
        <time>2021-08-04T13:05:34Z</time>
      </trkpt>
      <trkpt lat="48.19742" lon="7.2216">
        <ele>791.7</ele>
        <time>2021-08-04T13:05:35Z</time>
      </trkpt>
      <trkpt lat="48.19742" lon="7.2216">
        <ele>791.7</ele>
        <time>2021-08-04T13:05:36Z</time>
      </trkpt>
      <trkpt lat="48.19742" lon="7.22159">
        <ele>791.6</ele>
        <time>2021-08-04T13:05:38Z</time>
      </trkpt>
      <trkpt lat="48.19742" lon="7.22159">
        <ele>791.6</ele>
        <time>2021-08-04T13:05:40Z</time>
      </trkpt>
      <trkpt lat="48.19742" lon="7.22159">
        <ele>791.6</ele>
        <time>2021-08-04T13:05:41Z</time>
      </trkpt>
      <trkpt lat="48.19737" lon="7.22166">
        <ele>791.3</ele>
        <time>2021-08-04T13:08:16Z</time>
      </trkpt>
      <trkpt lat="48.19738" lon="7.2217">
        <ele>791.1</ele>
        <time>2021-08-04T13:08:17Z</time>
      </trkpt>
      <trkpt lat="48.19742" lon="7.22178">
        <ele>790.8</ele>
        <time>2021-08-04T13:08:18Z</time>
      </trkpt>
      <trkpt lat="48.19743" lon="7.22184">
        <ele>790.6</ele>
        <time>2021-08-04T13:08:19Z</time>
      </trkpt>
      <trkpt lat="48.19744" lon="7.2219">
        <ele>790.4</ele>
        <time>2021-08-04T13:08:21Z</time>
      </trkpt>
      <trkpt lat="48.19744" lon="7.22198">
        <ele>790.2</ele>
        <time>2021-08-04T13:08:23Z</time>
      </trkpt>
      <trkpt lat="48.19744" lon="7.22203">
        <ele>790.1</ele>
        <time>2021-08-04T13:08:24Z</time>
      </trkpt>
      <trkpt lat="48.19744" lon="7.22214">
        <ele>789.8</ele>
        <time>2021-08-04T13:08:26Z</time>
      </trkpt>
      <trkpt lat="48.19744" lon="7.22227">
        <ele>789.5</ele>
        <time>2021-08-04T13:08:28Z</time>
      </trkpt>
      <trkpt lat="48.19742" lon="7.22233">
        <ele>789.3</ele>
        <time>2021-08-04T13:08:29Z</time>
      </trkpt>
      <trkpt lat="48.1974" lon="7.22245">
        <ele>789</ele>
        <time>2021-08-04T13:08:31Z</time>
      </trkpt>
      <trkpt lat="48.19739" lon="7.22252">
        <ele>788.9</ele>
        <time>2021-08-04T13:08:32Z</time>
      </trkpt>
      <trkpt lat="48.19738" lon="7.22265">
        <ele>788.6</ele>
        <time>2021-08-04T13:08:34Z</time>
      </trkpt>
      <trkpt lat="48.19736" lon="7.22276">
        <ele>788.4</ele>
        <time>2021-08-04T13:08:36Z</time>
      </trkpt>
      <trkpt lat="48.19735" lon="7.22287">
        <ele>788.2</ele>
        <time>2021-08-04T13:08:38Z</time>
      </trkpt>
      <trkpt lat="48.19734" lon="7.22295">
        <ele>788.1</ele>
        <time>2021-08-04T13:08:40Z</time>
      </trkpt>
      <trkpt lat="48.19733" lon="7.22304">
        <ele>788</ele>
        <time>2021-08-04T13:08:42Z</time>
      </trkpt>
      <trkpt lat="48.19732" lon="7.22312">
        <ele>787.8</ele>
        <time>2021-08-04T13:08:44Z</time>
      </trkpt>
      <trkpt lat="48.19729" lon="7.2232">
        <ele>787.7</ele>
        <time>2021-08-04T13:08:46Z</time>
      </trkpt>
      <trkpt lat="48.19728" lon="7.22328">
        <ele>787.6</ele>
        <time>2021-08-04T13:08:48Z</time>
      </trkpt>
      <trkpt lat="48.19727" lon="7.22333">
        <ele>787.5</ele>
        <time>2021-08-04T13:08:49Z</time>
      </trkpt>
      <trkpt lat="48.19727" lon="7.22334">
        <ele>787.4</ele>
        <time>2021-08-04T13:08:50Z</time>
      </trkpt>
      <trkpt lat="48.19725" lon="7.22341">
        <ele>787.3</ele>
        <time>2021-08-04T13:08:52Z</time>
      </trkpt>
      <trkpt lat="48.19724" lon="7.22344">
        <ele>787.3</ele>
        <time>2021-08-04T13:08:53Z</time>
      </trkpt>
      <trkpt lat="48.19724" lon="7.2235">
        <ele>787.2</ele>
        <time>2021-08-04T13:08:55Z</time>
      </trkpt>
      <trkpt lat="48.19726" lon="7.2235">
        <ele>787.2</ele>
        <time>2021-08-04T13:08:56Z</time>
      </trkpt>
      <trkpt lat="48.19728" lon="7.22348">
        <ele>787.2</ele>
        <time>2021-08-04T13:08:58Z</time>
      </trkpt>
      <trkpt lat="48.19729" lon="7.22346">
        <ele>787.2</ele>
        <time>2021-08-04T13:08:59Z</time>
      </trkpt>
      <trkpt lat="48.1973" lon="7.22342">
        <ele>787.2</ele>
        <time>2021-08-04T13:09:01Z</time>
      </trkpt>
      <trkpt lat="48.19731" lon="7.22339">
        <ele>787.2</ele>
        <time>2021-08-04T13:09:02Z</time>
      </trkpt>
      <trkpt lat="48.19733" lon="7.22338">
        <ele>787.2</ele>
        <time>2021-08-04T13:09:04Z</time>
      </trkpt>
      <trkpt lat="48.19735" lon="7.22335">
        <ele>787.1</ele>
        <time>2021-08-04T13:09:06Z</time>
      </trkpt>
      <trkpt lat="48.19737" lon="7.22331">
        <ele>787.1</ele>
        <time>2021-08-04T13:09:08Z</time>
      </trkpt>
      <trkpt lat="48.19739" lon="7.22329">
        <ele>787.1</ele>
        <time>2021-08-04T13:09:10Z</time>
      </trkpt>
      <trkpt lat="48.1974" lon="7.22328">
        <ele>787.1</ele>
        <time>2021-08-04T13:09:11Z</time>
      </trkpt>
      <trkpt lat="48.1974" lon="7.22329">
        <ele>787.1</ele>
        <time>2021-08-04T13:09:12Z</time>
      </trkpt>
      <trkpt lat="48.19741" lon="7.22334">
        <ele>787.1</ele>
        <time>2021-08-04T13:09:14Z</time>
      </trkpt>
      <trkpt lat="48.19741" lon="7.2234">
        <ele>787.1</ele>
        <time>2021-08-04T13:09:15Z</time>
      </trkpt>
      <trkpt lat="48.1974" lon="7.22342">
        <ele>787.1</ele>
        <time>2021-08-04T13:09:16Z</time>
      </trkpt>
      <trkpt lat="48.1974" lon="7.22347">
        <ele>787</ele>
        <time>2021-08-04T13:09:17Z</time>
      </trkpt>
      <trkpt lat="48.1974" lon="7.22348">
        <ele>787</ele>
        <time>2021-08-04T13:09:18Z</time>
      </trkpt>
      <trkpt lat="48.19739" lon="7.22351">
        <ele>787</ele>
        <time>2021-08-04T13:09:20Z</time>
      </trkpt>
      <trkpt lat="48.19739" lon="7.2235">
        <ele>787</ele>
        <time>2021-08-04T13:09:21Z</time>
      </trkpt>
      <trkpt lat="48.19739" lon="7.22349">
        <ele>787</ele>
        <time>2021-08-04T13:09:22Z</time>
      </trkpt>
      <trkpt lat="48.19739" lon="7.22349">
        <ele>787</ele>
        <time>2021-08-04T13:09:23Z</time>
      </trkpt>
      <trkpt lat="48.19739" lon="7.2235">
        <ele>787</ele>
        <time>2021-08-04T13:09:24Z</time>
      </trkpt>
      <trkpt lat="48.19739" lon="7.22355">
        <ele>787</ele>
        <time>2021-08-04T13:09:26Z</time>
      </trkpt>
      <trkpt lat="48.19738" lon="7.22359">
        <ele>786.9</ele>
        <time>2021-08-04T13:09:28Z</time>
      </trkpt>
      <trkpt lat="48.19739" lon="7.22322">
        <ele>787.7</ele>
        <time>2021-08-04T13:10:01Z</time>
      </trkpt>
      <trkpt lat="48.19741" lon="7.2231">
        <ele>787.9</ele>
        <time>2021-08-04T13:10:03Z</time>
      </trkpt>
      <trkpt lat="48.19742" lon="7.22307">
        <ele>788</ele>
        <time>2021-08-04T13:10:04Z</time>
      </trkpt>
      <trkpt lat="48.19742" lon="7.22304">
        <ele>788</ele>
        <time>2021-08-04T13:10:06Z</time>
      </trkpt>
      <trkpt lat="48.19743" lon="7.22303">
        <ele>788</ele>
        <time>2021-08-04T13:10:07Z</time>
      </trkpt>
      <trkpt lat="48.19744" lon="7.223">
        <ele>788.1</ele>
        <time>2021-08-04T13:10:08Z</time>
      </trkpt>
      <trkpt lat="48.19745" lon="7.22297">
        <ele>788.1</ele>
        <time>2021-08-04T13:10:09Z</time>
      </trkpt>
      <trkpt lat="48.19746" lon="7.22295">
        <ele>788.1</ele>
        <time>2021-08-04T13:10:11Z</time>
      </trkpt>
      <trkpt lat="48.19747" lon="7.22293">
        <ele>788.2</ele>
        <time>2021-08-04T13:10:12Z</time>
      </trkpt>
      <trkpt lat="48.19748" lon="7.22291">
        <ele>788.2</ele>
        <time>2021-08-04T13:10:13Z</time>
      </trkpt>
      <trkpt lat="48.19748" lon="7.22287">
        <ele>788.3</ele>
        <time>2021-08-04T13:10:15Z</time>
      </trkpt>
      <trkpt lat="48.19748" lon="7.22285">
        <ele>788.3</ele>
        <time>2021-08-04T13:10:16Z</time>
      </trkpt>
      <trkpt lat="48.19747" lon="7.22279">
        <ele>788.4</ele>
        <time>2021-08-04T13:10:18Z</time>
      </trkpt>
      <trkpt lat="48.19746" lon="7.22276">
        <ele>788.5</ele>
        <time>2021-08-04T13:10:19Z</time>
      </trkpt>
      <trkpt lat="48.19746" lon="7.22271">
        <ele>788.6</ele>
        <time>2021-08-04T13:10:21Z</time>
      </trkpt>
      <trkpt lat="48.19746" lon="7.22266">
        <ele>788.7</ele>
        <time>2021-08-04T13:10:22Z</time>
      </trkpt>
      <trkpt lat="48.19747" lon="7.2226">
        <ele>788.8</ele>
        <time>2021-08-04T13:10:24Z</time>
      </trkpt>
      <trkpt lat="48.19747" lon="7.22258">
        <ele>788.9</ele>
        <time>2021-08-04T13:10:25Z</time>
      </trkpt>
      <trkpt lat="48.19747" lon="7.22253">
        <ele>789</ele>
        <time>2021-08-04T13:10:27Z</time>
      </trkpt>
      <trkpt lat="48.19746" lon="7.22251">
        <ele>789.1</ele>
        <time>2021-08-04T13:10:28Z</time>
      </trkpt>
      <trkpt lat="48.19747" lon="7.22247">
        <ele>789.2</ele>
        <time>2021-08-04T13:10:29Z</time>
      </trkpt>
      <trkpt lat="48.19746" lon="7.22242">
        <ele>789.3</ele>
        <time>2021-08-04T13:10:31Z</time>
      </trkpt>
      <trkpt lat="48.19746" lon="7.22238">
        <ele>789.4</ele>
        <time>2021-08-04T13:10:32Z</time>
      </trkpt>
      <trkpt lat="48.19745" lon="7.22233">
        <ele>789.5</ele>
        <time>2021-08-04T13:10:33Z</time>
      </trkpt>
      <trkpt lat="48.19744" lon="7.22229">
        <ele>789.7</ele>
        <time>2021-08-04T13:10:35Z</time>
      </trkpt>
      <trkpt lat="48.19744" lon="7.22227">
        <ele>789.7</ele>
        <time>2021-08-04T13:10:36Z</time>
      </trkpt>
      <trkpt lat="48.19743" lon="7.22224">
        <ele>789.8</ele>
        <time>2021-08-04T13:10:37Z</time>
      </trkpt>
      <trkpt lat="48.19742" lon="7.22225">
        <ele>789.8</ele>
        <time>2021-08-04T13:10:38Z</time>
      </trkpt>
      <trkpt lat="48.19742" lon="7.22225">
        <ele>789.9</ele>
        <time>2021-08-04T13:10:39Z</time>
      </trkpt>
      <trkpt lat="48.19742" lon="7.22224">
        <ele>789.9</ele>
        <time>2021-08-04T13:10:40Z</time>
      </trkpt>
      <trkpt lat="48.19742" lon="7.22222">
        <ele>790</ele>
        <time>2021-08-04T13:10:42Z</time>
      </trkpt>
      <trkpt lat="48.19743" lon="7.22219">
        <ele>790</ele>
        <time>2021-08-04T13:10:43Z</time>
      </trkpt>
      <trkpt lat="48.19742" lon="7.22215">
        <ele>790.2</ele>
        <time>2021-08-04T13:10:44Z</time>
      </trkpt>
      <trkpt lat="48.19741" lon="7.22209">
        <ele>790.4</ele>
        <time>2021-08-04T13:10:45Z</time>
      </trkpt>
      <trkpt lat="48.1974" lon="7.22204">
        <ele>790.6</ele>
        <time>2021-08-04T13:10:47Z</time>
      </trkpt>
      <trkpt lat="48.19739" lon="7.22199">
        <ele>790.8</ele>
        <time>2021-08-04T13:10:49Z</time>
      </trkpt>
      <trkpt lat="48.19739" lon="7.22196">
        <ele>790.8</ele>
        <time>2021-08-04T13:10:50Z</time>
      </trkpt>
      <trkpt lat="48.19739" lon="7.22195">
        <ele>790.9</ele>
        <time>2021-08-04T13:10:51Z</time>
      </trkpt>
      <trkpt lat="48.1974" lon="7.2219">
        <ele>791.1</ele>
        <time>2021-08-04T13:10:52Z</time>
      </trkpt>
      <trkpt lat="48.1974" lon="7.22189">
        <ele>791.1</ele>
        <time>2021-08-04T13:10:53Z</time>
      </trkpt>
      <trkpt lat="48.19741" lon="7.22185">
        <ele>791.3</ele>
        <time>2021-08-04T13:10:54Z</time>
      </trkpt>
      <trkpt lat="48.19739" lon="7.22181">
        <ele>791.5</ele>
        <time>2021-08-04T13:10:56Z</time>
      </trkpt>
      <trkpt lat="48.19738" lon="7.22177">
        <ele>791.6</ele>
        <time>2021-08-04T13:10:57Z</time>
      </trkpt>
      <trkpt lat="48.19736" lon="7.22174">
        <ele>791.8</ele>
        <time>2021-08-04T13:10:59Z</time>
      </trkpt>
      <trkpt lat="48.19736" lon="7.22173">
        <ele>791.9</ele>
        <time>2021-08-04T13:11:00Z</time>
      </trkpt>
      <trkpt lat="48.19737" lon="7.2217">
        <ele>791.8</ele>
        <time>2021-08-04T13:11:01Z</time>
      </trkpt>
      <trkpt lat="48.19736" lon="7.22166">
        <ele>791.7</ele>
        <time>2021-08-04T13:11:03Z</time>
      </trkpt>
      <trkpt lat="48.19734" lon="7.22162">
        <ele>791.5</ele>
        <time>2021-08-04T13:11:05Z</time>
      </trkpt>
      <trkpt lat="48.19732" lon="7.22161">
        <ele>791.4</ele>
        <time>2021-08-04T13:11:06Z</time>
      </trkpt>
      <trkpt lat="48.19731" lon="7.22159">
        <ele>791.3</ele>
        <time>2021-08-04T13:11:07Z</time>
      </trkpt>
      <trkpt lat="48.1973" lon="7.22157">
        <ele>791.2</ele>
        <time>2021-08-04T13:11:08Z</time>
      </trkpt>
      <trkpt lat="48.19729" lon="7.22158">
        <ele>791.2</ele>
        <time>2021-08-04T13:11:10Z</time>
      </trkpt>
      <trkpt lat="48.19731" lon="7.22161">
        <ele>791.1</ele>
        <time>2021-08-04T13:11:12Z</time>
      </trkpt>
      <trkpt lat="48.19733" lon="7.22165">
        <ele>790.9</ele>
        <time>2021-08-04T13:11:14Z</time>
      </trkpt>
      <trkpt lat="48.19735" lon="7.22168">
        <ele>790.8</ele>
        <time>2021-08-04T13:11:16Z</time>
      </trkpt>
      <trkpt lat="48.19737" lon="7.22171">
        <ele>790.7</ele>
        <time>2021-08-04T13:11:18Z</time>
      </trkpt>
      <trkpt lat="48.19739" lon="7.22175">
        <ele>790.6</ele>
        <time>2021-08-04T13:12:20Z</time>
      </trkpt>
      <trkpt lat="48.1974" lon="7.22178">
        <ele>790.5</ele>
        <time>2021-08-04T13:12:21Z</time>
      </trkpt>
      <trkpt lat="48.1974" lon="7.22191">
        <ele>790.1</ele>
        <time>2021-08-04T13:12:22Z</time>
      </trkpt>
      <trkpt lat="48.19739" lon="7.22202">
        <ele>789.9</ele>
        <time>2021-08-04T13:12:23Z</time>
      </trkpt>
      <trkpt lat="48.19738" lon="7.22213">
        <ele>789.6</ele>
        <time>2021-08-04T13:12:25Z</time>
      </trkpt>
      <trkpt lat="48.19737" lon="7.22219">
        <ele>789.5</ele>
        <time>2021-08-04T13:12:26Z</time>
      </trkpt>
      <trkpt lat="48.19737" lon="7.22231">
        <ele>789.2</ele>
        <time>2021-08-04T13:12:28Z</time>
      </trkpt>
      <trkpt lat="48.19736" lon="7.22239">
        <ele>789.1</ele>
        <time>2021-08-04T13:12:29Z</time>
      </trkpt>
      <trkpt lat="48.19736" lon="7.22246">
        <ele>789</ele>
        <time>2021-08-04T13:12:30Z</time>
      </trkpt>
      <trkpt lat="48.19735" lon="7.22258">
        <ele>788.7</ele>
        <time>2021-08-04T13:12:32Z</time>
      </trkpt>
      <trkpt lat="48.19735" lon="7.22267">
        <ele>788.6</ele>
        <time>2021-08-04T13:12:34Z</time>
      </trkpt>
      <trkpt lat="48.19734" lon="7.22269">
        <ele>788.6</ele>
        <time>2021-08-04T13:12:35Z</time>
      </trkpt>
      <trkpt lat="48.19733" lon="7.22272">
        <ele>788.5</ele>
        <time>2021-08-04T13:12:36Z</time>
      </trkpt>
      <trkpt lat="48.19731" lon="7.22286">
        <ele>788.2</ele>
        <time>2021-08-04T13:12:38Z</time>
      </trkpt>
      <trkpt lat="48.19729" lon="7.223">
        <ele>788</ele>
        <time>2021-08-04T13:12:40Z</time>
      </trkpt>
      <trkpt lat="48.19728" lon="7.22307">
        <ele>787.9</ele>
        <time>2021-08-04T13:12:41Z</time>
      </trkpt>
      <trkpt lat="48.19725" lon="7.22322">
        <ele>787.6</ele>
        <time>2021-08-04T13:12:43Z</time>
      </trkpt>
      <trkpt lat="48.19722" lon="7.22338">
        <ele>787.3</ele>
        <time>2021-08-04T13:12:45Z</time>
      </trkpt>
      <trkpt lat="48.19719" lon="7.22354">
        <ele>786.8</ele>
        <time>2021-08-04T13:12:47Z</time>
      </trkpt>
      <trkpt lat="48.19717" lon="7.22362">
        <ele>786.5</ele>
        <time>2021-08-04T13:12:48Z</time>
      </trkpt>
      <trkpt lat="48.19715" lon="7.22376">
        <ele>785.9</ele>
        <time>2021-08-04T13:12:50Z</time>
      </trkpt>
      <trkpt lat="48.1971" lon="7.22391">
        <ele>785.1</ele>
        <time>2021-08-04T13:12:52Z</time>
      </trkpt>
      <trkpt lat="48.19708" lon="7.22398">
        <ele>784.7</ele>
        <time>2021-08-04T13:12:53Z</time>
      </trkpt>
      <trkpt lat="48.19706" lon="7.22405">
        <ele>784.6</ele>
        <time>2021-08-04T13:12:54Z</time>
      </trkpt>
      <trkpt lat="48.19702" lon="7.22412">
        <ele>784.4</ele>
        <time>2021-08-04T13:12:55Z</time>
      </trkpt>
      <trkpt lat="48.19697" lon="7.22418">
        <ele>783.9</ele>
        <time>2021-08-04T13:12:56Z</time>
      </trkpt>
      <trkpt lat="48.19683" lon="7.22426">
        <ele>782.6</ele>
        <time>2021-08-04T13:12:58Z</time>
      </trkpt>
      <trkpt lat="48.19675" lon="7.22428">
        <ele>782</ele>
        <time>2021-08-04T13:12:59Z</time>
      </trkpt>
      <trkpt lat="48.19668" lon="7.22429">
        <ele>781.4</ele>
        <time>2021-08-04T13:13:00Z</time>
      </trkpt>
      <trkpt lat="48.19655" lon="7.22432">
        <ele>780.3</ele>
        <time>2021-08-04T13:13:02Z</time>
      </trkpt>
      <trkpt lat="48.19647" lon="7.22434">
        <ele>779.5</ele>
        <time>2021-08-04T13:13:04Z</time>
      </trkpt>
      <trkpt lat="48.19635" lon="7.22434">
        <ele>778.5</ele>
        <time>2021-08-04T13:13:06Z</time>
      </trkpt>
      <trkpt lat="48.19628" lon="7.22434">
        <ele>777.9</ele>
        <time>2021-08-04T13:13:07Z</time>
      </trkpt>
      <trkpt lat="48.19621" lon="7.22436">
        <ele>777.3</ele>
        <time>2021-08-04T13:13:08Z</time>
      </trkpt>
      <trkpt lat="48.19617" lon="7.22437">
        <ele>776.9</ele>
        <time>2021-08-04T13:13:09Z</time>
      </trkpt>
      <trkpt lat="48.19616" lon="7.22437">
        <ele>776.8</ele>
        <time>2021-08-04T13:13:10Z</time>
      </trkpt>
      <trkpt lat="48.19614" lon="7.22437">
        <ele>776.7</ele>
        <time>2021-08-04T13:13:12Z</time>
      </trkpt>
      <trkpt lat="48.19611" lon="7.22377">
        <ele>782.8</ele>
        <time>2021-08-04T13:13:24Z</time>
      </trkpt>
      <trkpt lat="48.19611" lon="7.22373">
        <ele>783</ele>
        <time>2021-08-04T13:13:26Z</time>
      </trkpt>
      <trkpt lat="48.19611" lon="7.2237">
        <ele>783.1</ele>
        <time>2021-08-04T13:13:27Z</time>
      </trkpt>
      <trkpt lat="48.19611" lon="7.22369">
        <ele>783.2</ele>
        <time>2021-08-04T13:13:28Z</time>
      </trkpt>
      <trkpt lat="48.19613" lon="7.22359">
        <ele>783.6</ele>
        <time>2021-08-04T13:13:30Z</time>
      </trkpt>
      <trkpt lat="48.19614" lon="7.22355">
        <ele>783.7</ele>
        <time>2021-08-04T13:13:31Z</time>
      </trkpt>
      <trkpt lat="48.19614" lon="7.22353">
        <ele>783.8</ele>
        <time>2021-08-04T13:13:32Z</time>
      </trkpt>
      <trkpt lat="48.19614" lon="7.2235">
        <ele>783.9</ele>
        <time>2021-08-04T13:13:34Z</time>
      </trkpt>
      <trkpt lat="48.19613" lon="7.22349">
        <ele>784</ele>
        <time>2021-08-04T13:13:35Z</time>
      </trkpt>
      <trkpt lat="48.19615" lon="7.22361">
        <ele>784.5</ele>
        <time>2021-08-04T13:13:37Z</time>
      </trkpt>
      <trkpt lat="48.19616" lon="7.22375">
        <ele>782.9</ele>
        <time>2021-08-04T13:17:23Z</time>
      </trkpt>
      <trkpt lat="48.19618" lon="7.22388">
        <ele>781.6</ele>
        <time>2021-08-04T13:17:24Z</time>
      </trkpt>
      <trkpt lat="48.19621" lon="7.22394">
        <ele>780.9</ele>
        <time>2021-08-04T13:17:26Z</time>
      </trkpt>
      <trkpt lat="48.1962" lon="7.22401">
        <ele>780.3</ele>
        <time>2021-08-04T13:17:27Z</time>
      </trkpt>
      <trkpt lat="48.19617" lon="7.2241">
        <ele>779.3</ele>
        <time>2021-08-04T13:17:29Z</time>
      </trkpt>
      <trkpt lat="48.19615" lon="7.22418">
        <ele>778.5</ele>
        <time>2021-08-04T13:17:31Z</time>
      </trkpt>
      <trkpt lat="48.19614" lon="7.22421">
        <ele>778.2</ele>
        <time>2021-08-04T13:17:32Z</time>
      </trkpt>
      <trkpt lat="48.19614" lon="7.22422">
        <ele>778.1</ele>
        <time>2021-08-04T13:17:33Z</time>
      </trkpt>
      <trkpt lat="48.19612" lon="7.22422">
        <ele>777.7</ele>
        <time>2021-08-04T13:17:35Z</time>
      </trkpt>
      <trkpt lat="48.19611" lon="7.22422">
        <ele>777.6</ele>
        <time>2021-08-04T13:17:36Z</time>
      </trkpt>
      <trkpt lat="48.19611" lon="7.22422">
        <ele>777.6</ele>
        <time>2021-08-04T13:17:37Z</time>
      </trkpt>
      <trkpt lat="48.19611" lon="7.22422">
        <ele>777.6</ele>
        <time>2021-08-04T13:17:38Z</time>
      </trkpt>
      <trkpt lat="48.19611" lon="7.22422">
        <ele>777.5</ele>
        <time>2021-08-04T13:17:40Z</time>
      </trkpt>
      <trkpt lat="48.19611" lon="7.22423">
        <ele>777.5</ele>
        <time>2021-08-04T13:17:41Z</time>
      </trkpt>
      <trkpt lat="48.19611" lon="7.22423">
        <ele>777.5</ele>
        <time>2021-08-04T13:17:42Z</time>
      </trkpt>
      <trkpt lat="48.19633" lon="7.22436">
        <ele>777.2</ele>
        <time>2021-08-04T13:18:19Z</time>
      </trkpt>
      <trkpt lat="48.19636" lon="7.22435">
        <ele>777.6</ele>
        <time>2021-08-04T13:18:20Z</time>
      </trkpt>
      <trkpt lat="48.19639" lon="7.22434">
        <ele>777.9</ele>
        <time>2021-08-04T13:18:21Z</time>
      </trkpt>
      <trkpt lat="48.19643" lon="7.22431">
        <ele>778.4</ele>
        <time>2021-08-04T13:18:22Z</time>
      </trkpt>
      <trkpt lat="48.19644" lon="7.22429">
        <ele>778.6</ele>
        <time>2021-08-04T13:18:23Z</time>
      </trkpt>
      <trkpt lat="48.19647" lon="7.22427">
        <ele>778.9</ele>
        <time>2021-08-04T13:18:25Z</time>
      </trkpt>
      <trkpt lat="48.19648" lon="7.22426">
        <ele>779</ele>
        <time>2021-08-04T13:18:26Z</time>
      </trkpt>
      <trkpt lat="48.19648" lon="7.22426">
        <ele>779</ele>
        <time>2021-08-04T13:18:27Z</time>
      </trkpt>
      <trkpt lat="48.19649" lon="7.22425">
        <ele>779.2</ele>
        <time>2021-08-04T13:18:28Z</time>
      </trkpt>
      <trkpt lat="48.1965" lon="7.22424">
        <ele>779.3</ele>
        <time>2021-08-04T13:18:29Z</time>
      </trkpt>
      <trkpt lat="48.19651" lon="7.22422">
        <ele>779.5</ele>
        <time>2021-08-04T13:18:31Z</time>
      </trkpt>
      <trkpt lat="48.19652" lon="7.22421">
        <ele>779.6</ele>
        <time>2021-08-04T13:18:32Z</time>
      </trkpt>
      <trkpt lat="48.19654" lon="7.2242">
        <ele>779.8</ele>
        <time>2021-08-04T13:18:33Z</time>
      </trkpt>
      <trkpt lat="48.19655" lon="7.22421">
        <ele>779.9</ele>
        <time>2021-08-04T13:18:34Z</time>
      </trkpt>
      <trkpt lat="48.19654" lon="7.22422">
        <ele>780.1</ele>
        <time>2021-08-04T13:18:35Z</time>
      </trkpt>
      <trkpt lat="48.19655" lon="7.22423">
        <ele>780.1</ele>
        <time>2021-08-04T13:18:36Z</time>
      </trkpt>
      <trkpt lat="48.19655" lon="7.22423">
        <ele>780.1</ele>
        <time>2021-08-04T13:18:38Z</time>
      </trkpt>
      <trkpt lat="48.19655" lon="7.22423">
        <ele>780.2</ele>
        <time>2021-08-04T13:18:39Z</time>
      </trkpt>
      <trkpt lat="48.19656" lon="7.22421">
        <ele>780.3</ele>
        <time>2021-08-04T13:18:41Z</time>
      </trkpt>
      <trkpt lat="48.19657" lon="7.2242">
        <ele>780.4</ele>
        <time>2021-08-04T13:18:42Z</time>
      </trkpt>
      <trkpt lat="48.19657" lon="7.22419">
        <ele>780.5</ele>
        <time>2021-08-04T13:18:43Z</time>
      </trkpt>
      <trkpt lat="48.19674" lon="7.22414">
        <ele>782.3</ele>
        <time>2021-08-04T13:18:57Z</time>
      </trkpt>
      <trkpt lat="48.19677" lon="7.22413">
        <ele>782.6</ele>
        <time>2021-08-04T13:18:58Z</time>
      </trkpt>
      <trkpt lat="48.1968" lon="7.22411">
        <ele>782.9</ele>
        <time>2021-08-04T13:18:59Z</time>
      </trkpt>
      <trkpt lat="48.19683" lon="7.22409">
        <ele>783.2</ele>
        <time>2021-08-04T13:19:00Z</time>
      </trkpt>
      <trkpt lat="48.19687" lon="7.22403">
        <ele>783.8</ele>
        <time>2021-08-04T13:19:02Z</time>
      </trkpt>
      <trkpt lat="48.19689" lon="7.22399">
        <ele>784.1</ele>
        <time>2021-08-04T13:19:03Z</time>
      </trkpt>
      <trkpt lat="48.19691" lon="7.22395">
        <ele>784.6</ele>
        <time>2021-08-04T13:19:04Z</time>
      </trkpt>
      <trkpt lat="48.19692" lon="7.2239">
        <ele>784.6</ele>
        <time>2021-08-04T13:19:06Z</time>
      </trkpt>
      <trkpt lat="48.19692" lon="7.22386">
        <ele>784.6</ele>
        <time>2021-08-04T13:19:07Z</time>
      </trkpt>
      <trkpt lat="48.19692" lon="7.22378">
        <ele>785.2</ele>
        <time>2021-08-04T13:19:09Z</time>
      </trkpt>
      <trkpt lat="48.19691" lon="7.22376">
        <ele>785.3</ele>
        <time>2021-08-04T13:19:10Z</time>
      </trkpt>
      <trkpt lat="48.19691" lon="7.22374">
        <ele>785.4</ele>
        <time>2021-08-04T13:19:11Z</time>
      </trkpt>
      <trkpt lat="48.19692" lon="7.22374">
        <ele>785.5</ele>
        <time>2021-08-04T13:19:12Z</time>
      </trkpt>
      <trkpt lat="48.19694" lon="7.22376">
        <ele>785.6</ele>
        <time>2021-08-04T13:19:14Z</time>
      </trkpt>
      <trkpt lat="48.19695" lon="7.22377">
        <ele>785.7</ele>
        <time>2021-08-04T13:19:15Z</time>
      </trkpt>
      <trkpt lat="48.19697" lon="7.22375">
        <ele>785.8</ele>
        <time>2021-08-04T13:19:16Z</time>
      </trkpt>
      <trkpt lat="48.19698" lon="7.22371">
        <ele>786</ele>
        <time>2021-08-04T13:19:17Z</time>
      </trkpt>
      <trkpt lat="48.19697" lon="7.22369">
        <ele>786</ele>
        <time>2021-08-04T13:19:19Z</time>
      </trkpt>
      <trkpt lat="48.19697" lon="7.22367">
        <ele>786.1</ele>
        <time>2021-08-04T13:19:20Z</time>
      </trkpt>
      <trkpt lat="48.19697" lon="7.22365">
        <ele>786.2</ele>
        <time>2021-08-04T13:19:21Z</time>
      </trkpt>
      <trkpt lat="48.19697" lon="7.22362">
        <ele>786.3</ele>
        <time>2021-08-04T13:19:22Z</time>
      </trkpt>
      <trkpt lat="48.19696" lon="7.22359">
        <ele>786.4</ele>
        <time>2021-08-04T13:19:23Z</time>
      </trkpt>
      <trkpt lat="48.19696" lon="7.22358">
        <ele>786.4</ele>
        <time>2021-08-04T13:19:24Z</time>
      </trkpt>
      <trkpt lat="48.19695" lon="7.22357">
        <ele>786.5</ele>
        <time>2021-08-04T13:19:25Z</time>
      </trkpt>
      <trkpt lat="48.19695" lon="7.22354">
        <ele>786.5</ele>
        <time>2021-08-04T13:19:26Z</time>
      </trkpt>
      <trkpt lat="48.19696" lon="7.22352">
        <ele>786.6</ele>
        <time>2021-08-04T13:19:27Z</time>
      </trkpt>
      <trkpt lat="48.19697" lon="7.22348">
        <ele>786.7</ele>
        <time>2021-08-04T13:19:29Z</time>
      </trkpt>
      <trkpt lat="48.19698" lon="7.22344">
        <ele>786.9</ele>
        <time>2021-08-04T13:19:30Z</time>
      </trkpt>
      <trkpt lat="48.19701" lon="7.22341">
        <ele>787</ele>
        <time>2021-08-04T13:19:31Z</time>
      </trkpt>
      <trkpt lat="48.19704" lon="7.22335">
        <ele>787.2</ele>
        <time>2021-08-04T13:19:33Z</time>
      </trkpt>
      <trkpt lat="48.19705" lon="7.22332">
        <ele>787.3</ele>
        <time>2021-08-04T13:19:34Z</time>
      </trkpt>
      <trkpt lat="48.19706" lon="7.22329">
        <ele>787.4</ele>
        <time>2021-08-04T13:19:35Z</time>
      </trkpt>
      <trkpt lat="48.19709" lon="7.22326">
        <ele>787.5</ele>
        <time>2021-08-04T13:19:37Z</time>
      </trkpt>
      <trkpt lat="48.19711" lon="7.22321">
        <ele>787.6</ele>
        <time>2021-08-04T13:19:38Z</time>
      </trkpt>
      <trkpt lat="48.19712" lon="7.22319">
        <ele>787.6</ele>
        <time>2021-08-04T13:19:39Z</time>
      </trkpt>
      <trkpt lat="48.19714" lon="7.22315">
        <ele>787.7</ele>
        <time>2021-08-04T13:19:40Z</time>
      </trkpt>
      <trkpt lat="48.19714" lon="7.22313">
        <ele>787.7</ele>
        <time>2021-08-04T13:19:41Z</time>
      </trkpt>
      <trkpt lat="48.19717" lon="7.22307">
        <ele>787.8</ele>
        <time>2021-08-04T13:19:43Z</time>
      </trkpt>
      <trkpt lat="48.19718" lon="7.22305">
        <ele>787.9</ele>
        <time>2021-08-04T13:19:44Z</time>
      </trkpt>
      <trkpt lat="48.19719" lon="7.22302">
        <ele>787.9</ele>
        <time>2021-08-04T13:19:45Z</time>
      </trkpt>
      <trkpt lat="48.1972" lon="7.22298">
        <ele>788</ele>
        <time>2021-08-04T13:19:46Z</time>
      </trkpt>
      <trkpt lat="48.19723" lon="7.22291">
        <ele>788.1</ele>
        <time>2021-08-04T13:19:48Z</time>
      </trkpt>
      <trkpt lat="48.19726" lon="7.22286">
        <ele>788.2</ele>
        <time>2021-08-04T13:19:49Z</time>
      </trkpt>
      <trkpt lat="48.19727" lon="7.22282">
        <ele>788.2</ele>
        <time>2021-08-04T13:19:50Z</time>
      </trkpt>
      <trkpt lat="48.19727" lon="7.2228">
        <ele>788.3</ele>
        <time>2021-08-04T13:19:51Z</time>
      </trkpt>
      <trkpt lat="48.19728" lon="7.22278">
        <ele>788.3</ele>
        <time>2021-08-04T13:19:52Z</time>
      </trkpt>
      <trkpt lat="48.19729" lon="7.22276">
        <ele>788.4</ele>
        <time>2021-08-04T13:19:53Z</time>
      </trkpt>
      <trkpt lat="48.1973" lon="7.22273">
        <ele>788.5</ele>
        <time>2021-08-04T13:19:54Z</time>
      </trkpt>
      <trkpt lat="48.19731" lon="7.2227">
        <ele>788.5</ele>
        <time>2021-08-04T13:19:56Z</time>
      </trkpt>
      <trkpt lat="48.19732" lon="7.22268">
        <ele>788.6</ele>
        <time>2021-08-04T13:19:57Z</time>
      </trkpt>
      <trkpt lat="48.19733" lon="7.22266">
        <ele>788.6</ele>
        <time>2021-08-04T13:19:58Z</time>
      </trkpt>
      <trkpt lat="48.19734" lon="7.22262">
        <ele>788.7</ele>
        <time>2021-08-04T13:19:59Z</time>
      </trkpt>
      <trkpt lat="48.19735" lon="7.2226">
        <ele>788.8</ele>
        <time>2021-08-04T13:20:00Z</time>
      </trkpt>
      <trkpt lat="48.19737" lon="7.22256">
        <ele>788.9</ele>
        <time>2021-08-04T13:20:01Z</time>
      </trkpt>
      <trkpt lat="48.19737" lon="7.22252">
        <ele>789</ele>
        <time>2021-08-04T13:20:02Z</time>
      </trkpt>
      <trkpt lat="48.19738" lon="7.22247">
        <ele>789.1</ele>
        <time>2021-08-04T13:20:04Z</time>
      </trkpt>
      <trkpt lat="48.19738" lon="7.22246">
        <ele>789.2</ele>
        <time>2021-08-04T13:20:05Z</time>
      </trkpt>
      <trkpt lat="48.19739" lon="7.22244">
        <ele>789.2</ele>
        <time>2021-08-04T13:20:06Z</time>
      </trkpt>
      <trkpt lat="48.1974" lon="7.22242">
        <ele>789.3</ele>
        <time>2021-08-04T13:20:07Z</time>
      </trkpt>
      <trkpt lat="48.1974" lon="7.2224">
        <ele>789.4</ele>
        <time>2021-08-04T13:20:08Z</time>
      </trkpt>
      <trkpt lat="48.1974" lon="7.22236">
        <ele>789.5</ele>
        <time>2021-08-04T13:20:10Z</time>
      </trkpt>
      <trkpt lat="48.1974" lon="7.22233">
        <ele>789.6</ele>
        <time>2021-08-04T13:20:11Z</time>
      </trkpt>
      <trkpt lat="48.19741" lon="7.22228">
        <ele>789.7</ele>
        <time>2021-08-04T13:20:13Z</time>
      </trkpt>
      <trkpt lat="48.19741" lon="7.22225">
        <ele>789.8</ele>
        <time>2021-08-04T13:20:14Z</time>
      </trkpt>
      <trkpt lat="48.19743" lon="7.2222">
        <ele>790</ele>
        <time>2021-08-04T13:20:16Z</time>
      </trkpt>
      <trkpt lat="48.19745" lon="7.22217">
        <ele>790.1</ele>
        <time>2021-08-04T13:20:18Z</time>
      </trkpt>
      <trkpt lat="48.19745" lon="7.22212">
        <ele>790.1</ele>
        <time>2021-08-04T13:20:19Z</time>
      </trkpt>
      <trkpt lat="48.19745" lon="7.22207">
        <ele>790</ele>
        <time>2021-08-04T13:20:21Z</time>
      </trkpt>
      <trkpt lat="48.19746" lon="7.22205">
        <ele>790</ele>
        <time>2021-08-04T13:20:22Z</time>
      </trkpt>
      <trkpt lat="48.19746" lon="7.22202">
        <ele>789.9</ele>
        <time>2021-08-04T13:20:24Z</time>
      </trkpt>
      <trkpt lat="48.19746" lon="7.222">
        <ele>789.9</ele>
        <time>2021-08-04T13:20:25Z</time>
      </trkpt>
      <trkpt lat="48.19746" lon="7.22198">
        <ele>789.9</ele>
        <time>2021-08-04T13:20:26Z</time>
      </trkpt>
      <trkpt lat="48.19744" lon="7.22195">
        <ele>789.8</ele>
        <time>2021-08-04T13:20:28Z</time>
      </trkpt>
      <trkpt lat="48.19744" lon="7.22198">
        <ele>789.8</ele>
        <time>2021-08-04T13:20:29Z</time>
      </trkpt>
      <trkpt lat="48.19743" lon="7.22199">
        <ele>789.8</ele>
        <time>2021-08-04T13:20:31Z</time>
      </trkpt>
      <trkpt lat="48.19743" lon="7.22201">
        <ele>789.8</ele>
        <time>2021-08-04T13:20:32Z</time>
      </trkpt>
      <trkpt lat="48.19742" lon="7.22202">
        <ele>789.7</ele>
        <time>2021-08-04T13:20:34Z</time>
      </trkpt>
      <trkpt lat="48.19741" lon="7.22203">
        <ele>789.7</ele>
        <time>2021-08-04T13:20:35Z</time>
      </trkpt>
      <trkpt lat="48.1974" lon="7.22205">
        <ele>789.7</ele>
        <time>2021-08-04T13:20:36Z</time>
      </trkpt>
      <trkpt lat="48.19739" lon="7.22206">
        <ele>789.7</ele>
        <time>2021-08-04T13:22:01Z</time>
      </trkpt>
      <trkpt lat="48.19738" lon="7.22207">
        <ele>789.6</ele>
        <time>2021-08-04T13:22:02Z</time>
      </trkpt>
      <trkpt lat="48.19736" lon="7.22221">
        <ele>789.5</ele>
        <time>2021-08-04T13:22:04Z</time>
      </trkpt>
      <trkpt lat="48.19734" lon="7.22228">
        <ele>789.4</ele>
        <time>2021-08-04T13:22:05Z</time>
      </trkpt>
      <trkpt lat="48.19733" lon="7.22234">
        <ele>789.3</ele>
        <time>2021-08-04T13:22:06Z</time>
      </trkpt>
      <trkpt lat="48.19733" lon="7.22235">
        <ele>789.3</ele>
        <time>2021-08-04T13:22:08Z</time>
      </trkpt>
      <trkpt lat="48.19732" lon="7.22237">
        <ele>789.3</ele>
        <time>2021-08-04T13:22:10Z</time>
      </trkpt>
      <trkpt lat="48.19731" lon="7.22239">
        <ele>789.2</ele>
        <time>2021-08-04T13:22:12Z</time>
      </trkpt>
      <trkpt lat="48.19731" lon="7.22242">
        <ele>789.2</ele>
        <time>2021-08-04T13:22:14Z</time>
      </trkpt>
      <trkpt lat="48.1973" lon="7.22244">
        <ele>789.2</ele>
        <time>2021-08-04T13:22:16Z</time>
      </trkpt>
      <trkpt lat="48.19567" lon="7.21937">
        <ele>805.3</ele>
        <time>2021-08-05T06:21:17Z</time>
      </trkpt>
      <trkpt lat="48.19567" lon="7.21937">
        <ele>805.3</ele>
        <time>2021-08-05T06:21:17Z</time>
      </trkpt>
      <trkpt lat="48.19565" lon="7.21932">
        <ele>805.3</ele>
        <time>2021-08-05T06:21:18Z</time>
      </trkpt>
      <trkpt lat="48.19564" lon="7.2193">
        <ele>805.3</ele>
        <time>2021-08-05T06:21:19Z</time>
      </trkpt>
      <trkpt lat="48.19562" lon="7.21926">
        <ele>805.4</ele>
        <time>2021-08-05T06:21:20Z</time>
      </trkpt>
      <trkpt lat="48.19561" lon="7.21925">
        <ele>805.4</ele>
        <time>2021-08-05T06:21:21Z</time>
      </trkpt>
      <trkpt lat="48.19557" lon="7.21923">
        <ele>805.4</ele>
        <time>2021-08-05T06:21:23Z</time>
      </trkpt>
      <trkpt lat="48.19556" lon="7.21919">
        <ele>805.4</ele>
        <time>2021-08-05T06:21:24Z</time>
      </trkpt>
      <trkpt lat="48.19554" lon="7.21915">
        <ele>805.4</ele>
        <time>2021-08-05T06:21:25Z</time>
      </trkpt>
      <trkpt lat="48.19554" lon="7.21913">
        <ele>805.4</ele>
        <time>2021-08-05T06:21:26Z</time>
      </trkpt>
      <trkpt lat="48.19552" lon="7.2191">
        <ele>805.4</ele>
        <time>2021-08-05T06:21:27Z</time>
      </trkpt>
      <trkpt lat="48.19549" lon="7.21907">
        <ele>805.5</ele>
        <time>2021-08-05T06:21:29Z</time>
      </trkpt>
      <trkpt lat="48.19548" lon="7.21906">
        <ele>805.5</ele>
        <time>2021-08-05T06:21:30Z</time>
      </trkpt>
      <trkpt lat="48.19546" lon="7.21903">
        <ele>805.5</ele>
        <time>2021-08-05T06:21:31Z</time>
      </trkpt>
      <trkpt lat="48.19543" lon="7.219">
        <ele>805.5</ele>
        <time>2021-08-05T06:21:33Z</time>
      </trkpt>
      <trkpt lat="48.19539" lon="7.21897">
        <ele>805.5</ele>
        <time>2021-08-05T06:21:34Z</time>
      </trkpt>
      <trkpt lat="48.19538" lon="7.21897">
        <ele>805.5</ele>
        <time>2021-08-05T06:21:35Z</time>
      </trkpt>
      <trkpt lat="48.19535" lon="7.21894">
        <ele>805.5</ele>
        <time>2021-08-05T06:21:36Z</time>
      </trkpt>
      <trkpt lat="48.19534" lon="7.21893">
        <ele>805.5</ele>
        <time>2021-08-05T06:21:37Z</time>
      </trkpt>
      <trkpt lat="48.19532" lon="7.2189">
        <ele>805.5</ele>
        <time>2021-08-05T06:21:38Z</time>
      </trkpt>
      <trkpt lat="48.19529" lon="7.21887">
        <ele>805.5</ele>
        <time>2021-08-05T06:21:40Z</time>
      </trkpt>
      <trkpt lat="48.19526" lon="7.21885">
        <ele>805.5</ele>
        <time>2021-08-05T06:21:41Z</time>
      </trkpt>
      <trkpt lat="48.19522" lon="7.21882">
        <ele>805.5</ele>
        <time>2021-08-05T06:21:43Z</time>
      </trkpt>
      <trkpt lat="48.19521" lon="7.21881">
        <ele>805.5</ele>
        <time>2021-08-05T06:21:44Z</time>
      </trkpt>
      <trkpt lat="48.19519" lon="7.21879">
        <ele>805.5</ele>
        <time>2021-08-05T06:21:45Z</time>
      </trkpt>
      <trkpt lat="48.19517" lon="7.21876">
        <ele>805.6</ele>
        <time>2021-08-05T06:21:46Z</time>
      </trkpt>
      <trkpt lat="48.19516" lon="7.21875">
        <ele>805.6</ele>
        <time>2021-08-05T06:21:47Z</time>
      </trkpt>
      <trkpt lat="48.19512" lon="7.21875">
        <ele>805.6</ele>
        <time>2021-08-05T06:21:49Z</time>
      </trkpt>
      <trkpt lat="48.19511" lon="7.21874">
        <ele>805.6</ele>
        <time>2021-08-05T06:21:50Z</time>
      </trkpt>
      <trkpt lat="48.19506" lon="7.21872">
        <ele>805.7</ele>
        <time>2021-08-05T06:21:52Z</time>
      </trkpt>
      <trkpt lat="48.19504" lon="7.21871">
        <ele>805.7</ele>
        <time>2021-08-05T06:21:53Z</time>
      </trkpt>
      <trkpt lat="48.19503" lon="7.2187">
        <ele>805.7</ele>
        <time>2021-08-05T06:21:54Z</time>
      </trkpt>
      <trkpt lat="48.195" lon="7.21864">
        <ele>805.8</ele>
        <time>2021-08-05T06:21:56Z</time>
      </trkpt>
      <trkpt lat="48.19499" lon="7.21862">
        <ele>805.8</ele>
        <time>2021-08-05T06:21:57Z</time>
      </trkpt>
      <trkpt lat="48.19498" lon="7.2186">
        <ele>805.8</ele>
        <time>2021-08-05T06:21:58Z</time>
      </trkpt>
      <trkpt lat="48.19494" lon="7.21858">
        <ele>805.8</ele>
        <time>2021-08-05T06:22:00Z</time>
      </trkpt>
      <trkpt lat="48.19491" lon="7.21856">
        <ele>805.9</ele>
        <time>2021-08-05T06:22:01Z</time>
      </trkpt>
      <trkpt lat="48.19488" lon="7.21855">
        <ele>805.9</ele>
        <time>2021-08-05T06:22:02Z</time>
      </trkpt>
      <trkpt lat="48.19487" lon="7.21855">
        <ele>805.9</ele>
        <time>2021-08-05T06:22:03Z</time>
      </trkpt>
      <trkpt lat="48.19484" lon="7.21852">
        <ele>806</ele>
        <time>2021-08-05T06:22:05Z</time>
      </trkpt>
      <trkpt lat="48.19483" lon="7.21849">
        <ele>806</ele>
        <time>2021-08-05T06:22:06Z</time>
      </trkpt>
      <trkpt lat="48.1948" lon="7.21852">
        <ele>806.1</ele>
        <time>2021-08-05T06:22:07Z</time>
      </trkpt>
      <trkpt lat="48.19477" lon="7.21855">
        <ele>806.1</ele>
        <time>2021-08-05T06:22:09Z</time>
      </trkpt>
      <trkpt lat="48.19474" lon="7.21856">
        <ele>806.2</ele>
        <time>2021-08-05T06:22:10Z</time>
      </trkpt>
      <trkpt lat="48.19473" lon="7.21855">
        <ele>806.2</ele>
        <time>2021-08-05T06:22:11Z</time>
      </trkpt>
      <trkpt lat="48.1947" lon="7.21852">
        <ele>806.3</ele>
        <time>2021-08-05T06:22:13Z</time>
      </trkpt>
      <trkpt lat="48.19469" lon="7.21851">
        <ele>806.3</ele>
        <time>2021-08-05T06:22:14Z</time>
      </trkpt>
      <trkpt lat="48.19467" lon="7.21848">
        <ele>806.4</ele>
        <time>2021-08-05T06:22:16Z</time>
      </trkpt>
      <trkpt lat="48.19465" lon="7.21844">
        <ele>806.4</ele>
        <time>2021-08-05T06:22:17Z</time>
      </trkpt>
      <trkpt lat="48.19463" lon="7.2184">
        <ele>806.5</ele>
        <time>2021-08-05T06:22:18Z</time>
      </trkpt>
      <trkpt lat="48.19461" lon="7.21837">
        <ele>806.6</ele>
        <time>2021-08-05T06:22:19Z</time>
      </trkpt>
      <trkpt lat="48.1946" lon="7.21834">
        <ele>806.7</ele>
        <time>2021-08-05T06:22:20Z</time>
      </trkpt>
      <trkpt lat="48.1946" lon="7.21834">
        <ele>806.7</ele>
        <time>2021-08-05T06:22:21Z</time>
      </trkpt>
      <trkpt lat="48.19459" lon="7.21829">
        <ele>806.8</ele>
        <time>2021-08-05T06:22:22Z</time>
      </trkpt>
      <trkpt lat="48.19459" lon="7.21826">
        <ele>806.9</ele>
        <time>2021-08-05T06:22:23Z</time>
      </trkpt>
      <trkpt lat="48.1946" lon="7.21822">
        <ele>807</ele>
        <time>2021-08-05T06:22:25Z</time>
      </trkpt>
      <trkpt lat="48.19459" lon="7.21818">
        <ele>807.1</ele>
        <time>2021-08-05T06:22:27Z</time>
      </trkpt>
      <trkpt lat="48.19459" lon="7.21817">
        <ele>807.1</ele>
        <time>2021-08-05T06:22:28Z</time>
      </trkpt>
      <trkpt lat="48.19459" lon="7.21815">
        <ele>807.2</ele>
        <time>2021-08-05T06:22:29Z</time>
      </trkpt>
      <trkpt lat="48.19458" lon="7.21813">
        <ele>807.2</ele>
        <time>2021-08-05T06:22:30Z</time>
      </trkpt>
      <trkpt lat="48.19457" lon="7.21808">
        <ele>807.4</ele>
        <time>2021-08-05T06:22:31Z</time>
      </trkpt>
      <trkpt lat="48.19455" lon="7.218">
        <ele>807.7</ele>
        <time>2021-08-05T06:22:33Z</time>
      </trkpt>
      <trkpt lat="48.19453" lon="7.21797">
        <ele>807.8</ele>
        <time>2021-08-05T06:22:34Z</time>
      </trkpt>
      <trkpt lat="48.19452" lon="7.21793">
        <ele>808</ele>
        <time>2021-08-05T06:22:36Z</time>
      </trkpt>
      <trkpt lat="48.19453" lon="7.21793">
        <ele>808</ele>
        <time>2021-08-05T06:22:37Z</time>
      </trkpt>
      <trkpt lat="48.19453" lon="7.21793">
        <ele>808</ele>
        <time>2021-08-05T06:22:38Z</time>
      </trkpt>
      <trkpt lat="48.19453" lon="7.21793">
        <ele>808.1</ele>
        <time>2021-08-05T06:22:39Z</time>
      </trkpt>
      <trkpt lat="48.19454" lon="7.21793">
        <ele>808.1</ele>
        <time>2021-08-05T06:22:40Z</time>
      </trkpt>
      <trkpt lat="48.19454" lon="7.21792">
        <ele>808.1</ele>
        <time>2021-08-05T06:22:41Z</time>
      </trkpt>
      <trkpt lat="48.19453" lon="7.21792">
        <ele>808.1</ele>
        <time>2021-08-05T06:22:43Z</time>
      </trkpt>
      <trkpt lat="48.19453" lon="7.21791">
        <ele>808.1</ele>
        <time>2021-08-05T06:22:44Z</time>
      </trkpt>
      <trkpt lat="48.19388" lon="7.21728">
        <ele>812.8</ele>
        <time>2021-08-05T06:23:28Z</time>
      </trkpt>
      <trkpt lat="48.19385" lon="7.21725">
        <ele>813</ele>
        <time>2021-08-05T06:23:29Z</time>
      </trkpt>
      <trkpt lat="48.19383" lon="7.21722">
        <ele>813.2</ele>
        <time>2021-08-05T06:23:30Z</time>
      </trkpt>
      <trkpt lat="48.1938" lon="7.2172">
        <ele>813.4</ele>
        <time>2021-08-05T06:23:32Z</time>
      </trkpt>
      <trkpt lat="48.19379" lon="7.21719">
        <ele>813.5</ele>
        <time>2021-08-05T06:23:33Z</time>
      </trkpt>
      <trkpt lat="48.19377" lon="7.21718">
        <ele>813.6</ele>
        <time>2021-08-05T06:23:34Z</time>
      </trkpt>
      <trkpt lat="48.19375" lon="7.21717">
        <ele>813.8</ele>
        <time>2021-08-05T06:23:36Z</time>
      </trkpt>
      <trkpt lat="48.19371" lon="7.21715">
        <ele>814</ele>
        <time>2021-08-05T06:23:37Z</time>
      </trkpt>
      <trkpt lat="48.1937" lon="7.21714">
        <ele>814.1</ele>
        <time>2021-08-05T06:23:38Z</time>
      </trkpt>
      <trkpt lat="48.19367" lon="7.21715">
        <ele>814.3</ele>
        <time>2021-08-05T06:23:39Z</time>
      </trkpt>
      <trkpt lat="48.19362" lon="7.21719">
        <ele>814.7</ele>
        <time>2021-08-05T06:23:40Z</time>
      </trkpt>
      <trkpt lat="48.19358" lon="7.21722">
        <ele>815</ele>
        <time>2021-08-05T06:23:42Z</time>
      </trkpt>
      <trkpt lat="48.19355" lon="7.21722">
        <ele>815.2</ele>
        <time>2021-08-05T06:23:43Z</time>
      </trkpt>
      <trkpt lat="48.19354" lon="7.21722">
        <ele>815.3</ele>
        <time>2021-08-05T06:23:44Z</time>
      </trkpt>
      <trkpt lat="48.19353" lon="7.2172">
        <ele>815.4</ele>
        <time>2021-08-05T06:23:45Z</time>
      </trkpt>
      <trkpt lat="48.19351" lon="7.21717">
        <ele>815.6</ele>
        <time>2021-08-05T06:23:47Z</time>
      </trkpt>
      <trkpt lat="48.19349" lon="7.21714">
        <ele>815.8</ele>
        <time>2021-08-05T06:23:48Z</time>
      </trkpt>
      <trkpt lat="48.19348" lon="7.21709">
        <ele>816</ele>
        <time>2021-08-05T06:23:49Z</time>
      </trkpt>
      <trkpt lat="48.19348" lon="7.21707">
        <ele>816.2</ele>
        <time>2021-08-05T06:23:50Z</time>
      </trkpt>
      <trkpt lat="48.19349" lon="7.21701">
        <ele>816.4</ele>
        <time>2021-08-05T06:23:52Z</time>
      </trkpt>
      <trkpt lat="48.1935" lon="7.21699">
        <ele>816.5</ele>
        <time>2021-08-05T06:23:53Z</time>
      </trkpt>
      <trkpt lat="48.19351" lon="7.21695">
        <ele>816.8</ele>
        <time>2021-08-05T06:23:55Z</time>
      </trkpt>
      <trkpt lat="48.19352" lon="7.21693">
        <ele>816.9</ele>
        <time>2021-08-05T06:23:56Z</time>
      </trkpt>
      <trkpt lat="48.19353" lon="7.21692">
        <ele>817</ele>
        <time>2021-08-05T06:23:57Z</time>
      </trkpt>
      <trkpt lat="48.19353" lon="7.21691">
        <ele>817</ele>
        <time>2021-08-05T06:23:58Z</time>
      </trkpt>
      <trkpt lat="48.19354" lon="7.2169">
        <ele>817.1</ele>
        <time>2021-08-05T06:24:00Z</time>
      </trkpt>
      <trkpt lat="48.19354" lon="7.21688">
        <ele>817.2</ele>
        <time>2021-08-05T06:24:01Z</time>
      </trkpt>
      <trkpt lat="48.19354" lon="7.21686">
        <ele>817.3</ele>
        <time>2021-08-05T06:24:02Z</time>
      </trkpt>
      <trkpt lat="48.19363" lon="7.21649">
        <ele>818.7</ele>
        <time>2021-08-05T06:24:14Z</time>
      </trkpt>
      <trkpt lat="48.19366" lon="7.2164">
        <ele>819.1</ele>
        <time>2021-08-05T06:24:15Z</time>
      </trkpt>
      <trkpt lat="48.19368" lon="7.21632">
        <ele>819.5</ele>
        <time>2021-08-05T06:24:17Z</time>
      </trkpt>
      <trkpt lat="48.19369" lon="7.21623">
        <ele>819.8</ele>
        <time>2021-08-05T06:24:18Z</time>
      </trkpt>
      <trkpt lat="48.1937" lon="7.21614">
        <ele>820.2</ele>
        <time>2021-08-05T06:24:20Z</time>
      </trkpt>
      <trkpt lat="48.19368" lon="7.21613">
        <ele>820.4</ele>
        <time>2021-08-05T06:24:21Z</time>
      </trkpt>
      <trkpt lat="48.19366" lon="7.21612">
        <ele>820.5</ele>
        <time>2021-08-05T06:24:22Z</time>
      </trkpt>
      <trkpt lat="48.19362" lon="7.2161">
        <ele>820.8</ele>
        <time>2021-08-05T06:24:24Z</time>
      </trkpt>
      <trkpt lat="48.19361" lon="7.21609">
        <ele>820.9</ele>
        <time>2021-08-05T06:24:25Z</time>
      </trkpt>
      <trkpt lat="48.1936" lon="7.21609">
        <ele>820.9</ele>
        <time>2021-08-05T06:24:26Z</time>
      </trkpt>
      <trkpt lat="48.19359" lon="7.21608">
        <ele>821</ele>
        <time>2021-08-05T06:24:27Z</time>
      </trkpt>
      <trkpt lat="48.19357" lon="7.21607">
        <ele>821.1</ele>
        <time>2021-08-05T06:24:29Z</time>
      </trkpt>
      <trkpt lat="48.19356" lon="7.21606">
        <ele>821.2</ele>
        <time>2021-08-05T06:24:30Z</time>
      </trkpt>
      <trkpt lat="48.19311" lon="7.21533">
        <ele>824.6</ele>
        <time>2021-08-05T06:25:22Z</time>
      </trkpt>
      <trkpt lat="48.19307" lon="7.21533">
        <ele>824.7</ele>
        <time>2021-08-05T06:25:23Z</time>
      </trkpt>
      <trkpt lat="48.19305" lon="7.21535">
        <ele>824.8</ele>
        <time>2021-08-05T06:25:24Z</time>
      </trkpt>
      <trkpt lat="48.19304" lon="7.21536">
        <ele>824.8</ele>
        <time>2021-08-05T06:25:25Z</time>
      </trkpt>
      <trkpt lat="48.19298" lon="7.21546">
        <ele>825</ele>
        <time>2021-08-05T06:25:27Z</time>
      </trkpt>
      <trkpt lat="48.19295" lon="7.21549">
        <ele>825</ele>
        <time>2021-08-05T06:25:28Z</time>
      </trkpt>
      <trkpt lat="48.19295" lon="7.21546">
        <ele>825</ele>
        <time>2021-08-05T06:25:30Z</time>
      </trkpt>
      <trkpt lat="48.19295" lon="7.21545">
        <ele>825</ele>
        <time>2021-08-05T06:25:31Z</time>
      </trkpt>
      <trkpt lat="48.19295" lon="7.21543">
        <ele>825</ele>
        <time>2021-08-05T06:25:32Z</time>
      </trkpt>
      <trkpt lat="48.19296" lon="7.21537">
        <ele>825</ele>
        <time>2021-08-05T06:25:33Z</time>
      </trkpt>
      <trkpt lat="48.19296" lon="7.21534">
        <ele>825</ele>
        <time>2021-08-05T06:25:34Z</time>
      </trkpt>
      <trkpt lat="48.19297" lon="7.2153">
        <ele>825</ele>
        <time>2021-08-05T06:25:35Z</time>
      </trkpt>
      <trkpt lat="48.19297" lon="7.21527">
        <ele>825</ele>
        <time>2021-08-05T06:25:36Z</time>
      </trkpt>
      <trkpt lat="48.19298" lon="7.21522">
        <ele>825</ele>
        <time>2021-08-05T06:25:38Z</time>
      </trkpt>
      <trkpt lat="48.19297" lon="7.21517">
        <ele>825</ele>
        <time>2021-08-05T06:25:39Z</time>
      </trkpt>
      <trkpt lat="48.19297" lon="7.21516">
        <ele>825</ele>
        <time>2021-08-05T06:25:40Z</time>
      </trkpt>
      <trkpt lat="48.19295" lon="7.21513">
        <ele>824.8</ele>
        <time>2021-08-05T06:25:41Z</time>
      </trkpt>
      <trkpt lat="48.19294" lon="7.21512">
        <ele>824.8</ele>
        <time>2021-08-05T06:25:42Z</time>
      </trkpt>
      <trkpt lat="48.19291" lon="7.21508">
        <ele>824.8</ele>
        <time>2021-08-05T06:25:44Z</time>
      </trkpt>
      <trkpt lat="48.19289" lon="7.21506">
        <ele>824.8</ele>
        <time>2021-08-05T06:25:45Z</time>
      </trkpt>
      <trkpt lat="48.19288" lon="7.21505">
        <ele>824.7</ele>
        <time>2021-08-05T06:25:46Z</time>
      </trkpt>
      <trkpt lat="48.19286" lon="7.21504">
        <ele>824.7</ele>
        <time>2021-08-05T06:25:47Z</time>
      </trkpt>
      <trkpt lat="48.19285" lon="7.21505">
        <ele>824.7</ele>
        <time>2021-08-05T06:25:48Z</time>
      </trkpt>
      <trkpt lat="48.19288" lon="7.21506">
        <ele>824.6</ele>
        <time>2021-08-05T06:25:50Z</time>
      </trkpt>
      <trkpt lat="48.19289" lon="7.21506">
        <ele>824.6</ele>
        <time>2021-08-05T06:25:51Z</time>
      </trkpt>
      <trkpt lat="48.19291" lon="7.21506">
        <ele>824.6</ele>
        <time>2021-08-05T06:25:53Z</time>
      </trkpt>
      <trkpt lat="48.19291" lon="7.21507">
        <ele>824.6</ele>
        <time>2021-08-05T06:25:55Z</time>
      </trkpt>
      <trkpt lat="48.19292" lon="7.21508">
        <ele>824.6</ele>
        <time>2021-08-05T06:25:57Z</time>
      </trkpt>
      <trkpt lat="48.19292" lon="7.21508">
        <ele>824.6</ele>
        <time>2021-08-05T06:25:58Z</time>
      </trkpt>
      <trkpt lat="48.19292" lon="7.2151">
        <ele>824.5</ele>
        <time>2021-08-05T06:26:00Z</time>
      </trkpt>
      <trkpt lat="48.19292" lon="7.21511">
        <ele>824.5</ele>
        <time>2021-08-05T06:26:01Z</time>
      </trkpt>
      <trkpt lat="48.19292" lon="7.21511">
        <ele>824.5</ele>
        <time>2021-08-05T06:26:02Z</time>
      </trkpt>
      <trkpt lat="48.19292" lon="7.21511">
        <ele>824.5</ele>
        <time>2021-08-05T06:26:04Z</time>
      </trkpt>
      <trkpt lat="48.19292" lon="7.21512">
        <ele>824.5</ele>
        <time>2021-08-05T06:26:05Z</time>
      </trkpt>
      <trkpt lat="48.19331" lon="7.21463">
        <ele>824.5</ele>
        <time>2021-08-05T06:32:00Z</time>
      </trkpt>
      <trkpt lat="48.19336" lon="7.21449">
        <ele>824.6</ele>
        <time>2021-08-05T06:32:02Z</time>
      </trkpt>
      <trkpt lat="48.19347" lon="7.21422">
        <ele>824.8</ele>
        <time>2021-08-05T06:32:04Z</time>
      </trkpt>
      <trkpt lat="48.19349" lon="7.21408">
        <ele>824.9</ele>
        <time>2021-08-05T06:32:06Z</time>
      </trkpt>
      <trkpt lat="48.19351" lon="7.21401">
        <ele>825</ele>
        <time>2021-08-05T06:32:07Z</time>
      </trkpt>
      <trkpt lat="48.1935" lon="7.21397">
        <ele>825</ele>
        <time>2021-08-05T06:32:08Z</time>
      </trkpt>
      <trkpt lat="48.19349" lon="7.21396">
        <ele>825</ele>
        <time>2021-08-05T06:32:09Z</time>
      </trkpt>
      <trkpt lat="48.19349" lon="7.21395">
        <ele>825</ele>
        <time>2021-08-05T06:32:11Z</time>
      </trkpt>
      <trkpt lat="48.19348" lon="7.21394">
        <ele>825</ele>
        <time>2021-08-05T06:32:12Z</time>
      </trkpt>
      <trkpt lat="48.19348" lon="7.21393">
        <ele>825</ele>
        <time>2021-08-05T06:32:13Z</time>
      </trkpt>
      <trkpt lat="48.19347" lon="7.21392">
        <ele>825</ele>
        <time>2021-08-05T06:32:14Z</time>
      </trkpt>
      <trkpt lat="48.19347" lon="7.21386">
        <ele>825</ele>
        <time>2021-08-05T06:32:15Z</time>
      </trkpt>
      <trkpt lat="48.19347" lon="7.21382">
        <ele>825.1</ele>
        <time>2021-08-05T06:32:17Z</time>
      </trkpt>
      <trkpt lat="48.19347" lon="7.21378">
        <ele>825.1</ele>
        <time>2021-08-05T06:32:18Z</time>
      </trkpt>
      <trkpt lat="48.19346" lon="7.21371">
        <ele>825.1</ele>
        <time>2021-08-05T06:32:20Z</time>
      </trkpt>
      <trkpt lat="48.19344" lon="7.21364">
        <ele>825.2</ele>
        <time>2021-08-05T06:32:21Z</time>
      </trkpt>
      <trkpt lat="48.19342" lon="7.21357">
        <ele>825.2</ele>
        <time>2021-08-05T06:32:23Z</time>
      </trkpt>
      <trkpt lat="48.19342" lon="7.21351">
        <ele>825.2</ele>
        <time>2021-08-05T06:32:24Z</time>
      </trkpt>
      <trkpt lat="48.19341" lon="7.21343">
        <ele>825.3</ele>
        <time>2021-08-05T06:32:25Z</time>
      </trkpt>
      <trkpt lat="48.19341" lon="7.21337">
        <ele>825.3</ele>
        <time>2021-08-05T06:32:27Z</time>
      </trkpt>
      <trkpt lat="48.1934" lon="7.21333">
        <ele>825.4</ele>
        <time>2021-08-05T06:32:28Z</time>
      </trkpt>
      <trkpt lat="48.19341" lon="7.21332">
        <ele>825.4</ele>
        <time>2021-08-05T06:32:29Z</time>
      </trkpt>
      <trkpt lat="48.19342" lon="7.21333">
        <ele>825.4</ele>
        <time>2021-08-05T06:32:31Z</time>
      </trkpt>
      <trkpt lat="48.19342" lon="7.21332">
        <ele>825.4</ele>
        <time>2021-08-05T06:32:33Z</time>
      </trkpt>
      <trkpt lat="48.19342" lon="7.21332">
        <ele>825.4</ele>
        <time>2021-08-05T06:32:34Z</time>
      </trkpt>
      <trkpt lat="48.19341" lon="7.21332">
        <ele>825.4</ele>
        <time>2021-08-05T06:32:35Z</time>
      </trkpt>
      <trkpt lat="48.19339" lon="7.21333">
        <ele>825.4</ele>
        <time>2021-08-05T06:32:36Z</time>
      </trkpt>
      <trkpt lat="48.19338" lon="7.21334">
        <ele>825.5</ele>
        <time>2021-08-05T06:32:38Z</time>
      </trkpt>
      <trkpt lat="48.19337" lon="7.21334">
        <ele>825.5</ele>
        <time>2021-08-05T06:32:39Z</time>
      </trkpt>
      <trkpt lat="48.19336" lon="7.21335">
        <ele>825.5</ele>
        <time>2021-08-05T06:32:41Z</time>
      </trkpt>
      <trkpt lat="48.19335" lon="7.21335">
        <ele>825.5</ele>
        <time>2021-08-05T06:32:42Z</time>
      </trkpt>
      <trkpt lat="48.19334" lon="7.21335">
        <ele>825.5</ele>
        <time>2021-08-05T06:32:43Z</time>
      </trkpt>
      <trkpt lat="48.19336" lon="7.21327">
        <ele>825.6</ele>
        <time>2021-08-05T06:32:45Z</time>
      </trkpt>
      <trkpt lat="48.19339" lon="7.21318">
        <ele>825.7</ele>
        <time>2021-08-05T06:34:41Z</time>
      </trkpt>
      <trkpt lat="48.19343" lon="7.21309">
        <ele>825.8</ele>
        <time>2021-08-05T06:34:42Z</time>
      </trkpt>
      <trkpt lat="48.19346" lon="7.21295">
        <ele>826</ele>
        <time>2021-08-05T06:34:44Z</time>
      </trkpt>
      <trkpt lat="48.19348" lon="7.21284">
        <ele>826</ele>
        <time>2021-08-05T06:34:45Z</time>
      </trkpt>
      <trkpt lat="48.19349" lon="7.21275">
        <ele>826.1</ele>
        <time>2021-08-05T06:34:47Z</time>
      </trkpt>
      <trkpt lat="48.1935" lon="7.21268">
        <ele>826.2</ele>
        <time>2021-08-05T06:34:48Z</time>
      </trkpt>
      <trkpt lat="48.19351" lon="7.21258">
        <ele>826.3</ele>
        <time>2021-08-05T06:34:49Z</time>
      </trkpt>
      <trkpt lat="48.19351" lon="7.21251">
        <ele>826.3</ele>
        <time>2021-08-05T06:34:51Z</time>
      </trkpt>
      <trkpt lat="48.19351" lon="7.21244">
        <ele>826.4</ele>
        <time>2021-08-05T06:34:52Z</time>
      </trkpt>
      <trkpt lat="48.1935" lon="7.21236">
        <ele>826.5</ele>
        <time>2021-08-05T06:34:54Z</time>
      </trkpt>
      <trkpt lat="48.19349" lon="7.21227">
        <ele>826.7</ele>
        <time>2021-08-05T06:34:56Z</time>
      </trkpt>
      <trkpt lat="48.19348" lon="7.21222">
        <ele>826.7</ele>
        <time>2021-08-05T06:34:57Z</time>
      </trkpt>
      <trkpt lat="48.19347" lon="7.2122">
        <ele>826.8</ele>
        <time>2021-08-05T06:34:58Z</time>
      </trkpt>
      <trkpt lat="48.19346" lon="7.21219">
        <ele>826.8</ele>
        <time>2021-08-05T06:34:59Z</time>
      </trkpt>
      <trkpt lat="48.19344" lon="7.21224">
        <ele>826.9</ele>
        <time>2021-08-05T06:35:01Z</time>
      </trkpt>
      <trkpt lat="48.19341" lon="7.21229">
        <ele>827.1</ele>
        <time>2021-08-05T06:35:02Z</time>
      </trkpt>
      <trkpt lat="48.19338" lon="7.21235">
        <ele>827.2</ele>
        <time>2021-08-05T06:35:04Z</time>
      </trkpt>
      <trkpt lat="48.19337" lon="7.21237">
        <ele>827.3</ele>
        <time>2021-08-05T06:35:06Z</time>
      </trkpt>
      <trkpt lat="48.19337" lon="7.21239">
        <ele>827.3</ele>
        <time>2021-08-05T06:35:07Z</time>
      </trkpt>
      <trkpt lat="48.19336" lon="7.2124">
        <ele>827.3</ele>
        <time>2021-08-05T06:35:08Z</time>
      </trkpt>
      <trkpt lat="48.19336" lon="7.2124">
        <ele>827.4</ele>
        <time>2021-08-05T06:35:09Z</time>
      </trkpt>
      <trkpt lat="48.19335" lon="7.2124">
        <ele>827.4</ele>
        <time>2021-08-05T06:35:11Z</time>
      </trkpt>
      <trkpt lat="48.19335" lon="7.2124">
        <ele>827.4</ele>
        <time>2021-08-05T06:35:13Z</time>
      </trkpt>
      <trkpt lat="48.19335" lon="7.2124">
        <ele>827.4</ele>
        <time>2021-08-05T06:35:14Z</time>
      </trkpt>
      <trkpt lat="48.19397" lon="7.20415">
        <ele>884.8</ele>
        <time>2021-08-05T06:39:18Z</time>
      </trkpt>
      <trkpt lat="48.19398" lon="7.20411">
        <ele>884.5</ele>
        <time>2021-08-05T06:39:19Z</time>
      </trkpt>
      <trkpt lat="48.19399" lon="7.20407">
        <ele>884.9</ele>
        <time>2021-08-05T06:39:20Z</time>
      </trkpt>
      <trkpt lat="48.194" lon="7.20408">
        <ele>885</ele>
        <time>2021-08-05T06:39:23Z</time>
      </trkpt>
      <trkpt lat="48.194" lon="7.20405">
        <ele>884.6</ele>
        <time>2021-08-05T06:39:24Z</time>
      </trkpt>
      <trkpt lat="48.19401" lon="7.20401">
        <ele>884.1</ele>
        <time>2021-08-05T06:39:26Z</time>
      </trkpt>
      <trkpt lat="48.19392" lon="7.20406">
        <ele>881.4</ele>
        <time>2021-08-05T06:39:27Z</time>
      </trkpt>
      <trkpt lat="48.19382" lon="7.2041">
        <ele>878.5</ele>
        <time>2021-08-05T06:39:29Z</time>
      </trkpt>
      <trkpt lat="48.19373" lon="7.20415">
        <ele>875.1</ele>
        <time>2021-08-05T06:39:30Z</time>
      </trkpt>
      <trkpt lat="48.19363" lon="7.2042">
        <ele>872</ele>
        <time>2021-08-05T06:39:46Z</time>
      </trkpt>
      <trkpt lat="48.19354" lon="7.20425">
        <ele>868.5</ele>
        <time>2021-08-05T06:39:47Z</time>
      </trkpt>
      <trkpt lat="48.19344" lon="7.2043">
        <ele>864.1</ele>
        <time>2021-08-05T06:39:48Z</time>
      </trkpt>
      <trkpt lat="48.19319" lon="7.20438">
        <ele>853.7</ele>
        <time>2021-08-05T06:39:50Z</time>
      </trkpt>
      <trkpt lat="48.19312" lon="7.20437">
        <ele>849.9</ele>
        <time>2021-08-05T06:39:51Z</time>
      </trkpt>
      <trkpt lat="48.1931" lon="7.20434">
        <ele>848.5</ele>
        <time>2021-08-05T06:39:52Z</time>
      </trkpt>
      <trkpt lat="48.19346" lon="7.20414">
        <ele>864.4</ele>
        <time>2021-08-05T06:39:54Z</time>
      </trkpt>
      <trkpt lat="48.19349" lon="7.20404">
        <ele>865</ele>
        <time>2021-08-05T06:39:55Z</time>
      </trkpt>
      <trkpt lat="48.19353" lon="7.20391">
        <ele>866.3</ele>
        <time>2021-08-05T06:39:56Z</time>
      </trkpt>
      <trkpt lat="48.19355" lon="7.20385">
        <ele>865.7</ele>
        <time>2021-08-05T06:39:57Z</time>
      </trkpt>
      <trkpt lat="48.19356" lon="7.2038">
        <ele>866.3</ele>
        <time>2021-08-05T06:39:58Z</time>
      </trkpt>
      <trkpt lat="48.19357" lon="7.20377">
        <ele>865.8</ele>
        <time>2021-08-05T06:39:59Z</time>
      </trkpt>
      <trkpt lat="48.19359" lon="7.20373">
        <ele>865.6</ele>
        <time>2021-08-05T06:40:00Z</time>
      </trkpt>
      <trkpt lat="48.19361" lon="7.20364">
        <ele>865.5</ele>
        <time>2021-08-05T06:40:02Z</time>
      </trkpt>
      <trkpt lat="48.19435" lon="7.20375">
        <ele>889.1</ele>
        <time>2021-08-05T06:43:49Z</time>
      </trkpt>
      <trkpt lat="48.19434" lon="7.20378">
        <ele>889.4</ele>
        <time>2021-08-05T06:43:50Z</time>
      </trkpt>
      <trkpt lat="48.19435" lon="7.2038">
        <ele>889.2</ele>
        <time>2021-08-05T06:43:52Z</time>
      </trkpt>
      <trkpt lat="48.19435" lon="7.20377">
        <ele>889</ele>
        <time>2021-08-05T06:43:54Z</time>
      </trkpt>
      <trkpt lat="48.19435" lon="7.20377">
        <ele>888.4</ele>
        <time>2021-08-05T06:43:55Z</time>
      </trkpt>
      <trkpt lat="48.19435" lon="7.20377">
        <ele>888.2</ele>
        <time>2021-08-05T06:43:56Z</time>
      </trkpt>
      <trkpt lat="48.19435" lon="7.20377">
        <ele>888</ele>
        <time>2021-08-05T06:43:58Z</time>
      </trkpt>
      <trkpt lat="48.19435" lon="7.20377">
        <ele>888.3</ele>
        <time>2021-08-05T06:43:59Z</time>
      </trkpt>
      <trkpt lat="48.19435" lon="7.20378">
        <ele>888.1</ele>
        <time>2021-08-05T06:44:01Z</time>
      </trkpt>
      <trkpt lat="48.19435" lon="7.20378">
        <ele>887.9</ele>
        <time>2021-08-05T06:44:02Z</time>
      </trkpt>
      <trkpt lat="48.19435" lon="7.20377">
        <ele>887.8</ele>
        <time>2021-08-05T06:44:03Z</time>
      </trkpt>
      <trkpt lat="48.19435" lon="7.20376">
        <ele>887.1</ele>
        <time>2021-08-05T06:44:05Z</time>
      </trkpt>
      <trkpt lat="48.19435" lon="7.20376">
        <ele>886.9</ele>
        <time>2021-08-05T06:44:07Z</time>
      </trkpt>
      <trkpt lat="48.19435" lon="7.20376">
        <ele>886.7</ele>
        <time>2021-08-05T06:44:08Z</time>
      </trkpt>
      <trkpt lat="48.19435" lon="7.20376">
        <ele>886.5</ele>
        <time>2021-08-05T06:44:09Z</time>
      </trkpt>
      <trkpt lat="48.19435" lon="7.20376">
        <ele>886.4</ele>
        <time>2021-08-05T06:44:11Z</time>
      </trkpt>
      <trkpt lat="48.19435" lon="7.20376">
        <ele>886.2</ele>
        <time>2021-08-05T06:44:12Z</time>
      </trkpt>
      <trkpt lat="48.19435" lon="7.20376">
        <ele>886</ele>
        <time>2021-08-05T06:44:13Z</time>
      </trkpt>
      <trkpt lat="48.1944" lon="7.20377">
        <ele>887.7</ele>
        <time>2021-08-05T06:44:17Z</time>
      </trkpt>
      <trkpt lat="48.19442" lon="7.20377">
        <ele>887.7</ele>
        <time>2021-08-05T06:44:18Z</time>
      </trkpt>
      <trkpt lat="48.19441" lon="7.20373">
        <ele>886.8</ele>
        <time>2021-08-05T06:44:20Z</time>
      </trkpt>
      <trkpt lat="48.19441" lon="7.20372">
        <ele>886.1</ele>
        <time>2021-08-05T06:44:21Z</time>
      </trkpt>
      <trkpt lat="48.19441" lon="7.20372">
        <ele>885.9</ele>
        <time>2021-08-05T06:44:23Z</time>
      </trkpt>
      <trkpt lat="48.19441" lon="7.20372">
        <ele>885.7</ele>
        <time>2021-08-05T06:44:24Z</time>
      </trkpt>
      <trkpt lat="48.19434" lon="7.20356">
        <ele>882.6</ele>
        <time>2021-08-05T06:44:26Z</time>
      </trkpt>
      <trkpt lat="48.19433" lon="7.20352">
        <ele>881.2</ele>
        <time>2021-08-05T06:44:28Z</time>
      </trkpt>
      <trkpt lat="48.19433" lon="7.20351">
        <ele>881.1</ele>
        <time>2021-08-05T06:44:29Z</time>
      </trkpt>
      <trkpt lat="48.19433" lon="7.20352">
        <ele>880.9</ele>
        <time>2021-08-05T06:44:30Z</time>
      </trkpt>
      <trkpt lat="48.19433" lon="7.20352">
        <ele>880.7</ele>
        <time>2021-08-05T06:44:31Z</time>
      </trkpt>
      <trkpt lat="48.19433" lon="7.20352">
        <ele>880.5</ele>
        <time>2021-08-05T06:44:32Z</time>
      </trkpt>
      <trkpt lat="48.19431" lon="7.20349">
        <ele>879.8</ele>
        <time>2021-08-05T06:44:34Z</time>
      </trkpt>
      <trkpt lat="48.19429" lon="7.20346">
        <ele>878.4</ele>
        <time>2021-08-05T06:44:36Z</time>
      </trkpt>
      <trkpt lat="48.19429" lon="7.20346">
        <ele>878.2</ele>
        <time>2021-08-05T06:44:37Z</time>
      </trkpt>
      <trkpt lat="48.19429" lon="7.20345">
        <ele>878</ele>
        <time>2021-08-05T06:44:38Z</time>
      </trkpt>
      <trkpt lat="48.19429" lon="7.20345">
        <ele>878</ele>
        <time>2021-08-05T06:44:39Z</time>
      </trkpt>
      <trkpt lat="48.1943" lon="7.20346">
        <ele>878.2</ele>
        <time>2021-08-05T06:44:41Z</time>
      </trkpt>
      <trkpt lat="48.19431" lon="7.20347">
        <ele>878.3</ele>
        <time>2021-08-05T06:44:42Z</time>
      </trkpt>
      <trkpt lat="48.19433" lon="7.20349">
        <ele>878.5</ele>
        <time>2021-08-05T06:44:44Z</time>
      </trkpt>
      <trkpt lat="48.19433" lon="7.20349">
        <ele>878.5</ele>
        <time>2021-08-05T06:44:45Z</time>
      </trkpt>
      <trkpt lat="48.19433" lon="7.20349">
        <ele>878.5</ele>
        <time>2021-08-05T06:44:46Z</time>
      </trkpt>
      <trkpt lat="48.19433" lon="7.20349">
        <ele>878.5</ele>
        <time>2021-08-05T06:44:48Z</time>
      </trkpt>
      <trkpt lat="48.19433" lon="7.20349">
        <ele>878.5</ele>
        <time>2021-08-05T06:44:50Z</time>
      </trkpt>
      <trkpt lat="48.19433" lon="7.20349">
        <ele>878.5</ele>
        <time>2021-08-05T06:44:51Z</time>
      </trkpt>
      <trkpt lat="48.19433" lon="7.20349">
        <ele>878.5</ele>
        <time>2021-08-05T06:44:52Z</time>
      </trkpt>
      <trkpt lat="48.19433" lon="7.20349">
        <ele>878.5</ele>
        <time>2021-08-05T06:44:54Z</time>
      </trkpt>
      <trkpt lat="48.19433" lon="7.20349">
        <ele>878.5</ele>
        <time>2021-08-05T06:44:55Z</time>
      </trkpt>
      <trkpt lat="48.19431" lon="7.20346">
        <ele>878.8</ele>
        <time>2021-08-05T06:45:03Z</time>
      </trkpt>
      <trkpt lat="48.19431" lon="7.20345">
        <ele>878.8</ele>
        <time>2021-08-05T06:45:05Z</time>
      </trkpt>
      <trkpt lat="48.19432" lon="7.20345">
        <ele>878.9</ele>
        <time>2021-08-05T06:45:07Z</time>
      </trkpt>
      <trkpt lat="48.19432" lon="7.20345">
        <ele>878.9</ele>
        <time>2021-08-05T06:45:08Z</time>
      </trkpt>
      <trkpt lat="48.19432" lon="7.20345">
        <ele>878.9</ele>
        <time>2021-08-05T06:45:09Z</time>
      </trkpt>
      <trkpt lat="48.19435" lon="7.20347">
        <ele>879.2</ele>
        <time>2021-08-05T06:45:11Z</time>
      </trkpt>
      <trkpt lat="48.19436" lon="7.20349">
        <ele>879.4</ele>
        <time>2021-08-05T06:45:13Z</time>
      </trkpt>
      <trkpt lat="48.19437" lon="7.2035">
        <ele>879.4</ele>
        <time>2021-08-05T06:45:14Z</time>
      </trkpt>
      <trkpt lat="48.19438" lon="7.2035">
        <ele>879.6</ele>
        <time>2021-08-05T06:45:16Z</time>
      </trkpt>
      <trkpt lat="48.19439" lon="7.20351">
        <ele>879.7</ele>
        <time>2021-08-05T06:45:17Z</time>
      </trkpt>
      <trkpt lat="48.1944" lon="7.20351">
        <ele>879.8</ele>
        <time>2021-08-05T06:45:18Z</time>
      </trkpt>
      <trkpt lat="48.19441" lon="7.20353">
        <ele>879.9</ele>
        <time>2021-08-05T06:45:20Z</time>
      </trkpt>
      <trkpt lat="48.1944" lon="7.20354">
        <ele>879.9</ele>
        <time>2021-08-05T06:45:22Z</time>
      </trkpt>
      <trkpt lat="48.1944" lon="7.20354">
        <ele>880</ele>
        <time>2021-08-05T06:45:23Z</time>
      </trkpt>
      <trkpt lat="48.1944" lon="7.20355">
        <ele>880</ele>
        <time>2021-08-05T06:45:25Z</time>
      </trkpt>
      <trkpt lat="48.1944" lon="7.20355">
        <ele>880</ele>
        <time>2021-08-05T06:45:26Z</time>
      </trkpt>
      <trkpt lat="48.1944" lon="7.20356">
        <ele>880.1</ele>
        <time>2021-08-05T06:45:27Z</time>
      </trkpt>
      <trkpt lat="48.1944" lon="7.20356">
        <ele>880.1</ele>
        <time>2021-08-05T06:45:28Z</time>
      </trkpt>
      <trkpt lat="48.1944" lon="7.20357">
        <ele>880.1</ele>
        <time>2021-08-05T06:45:29Z</time>
      </trkpt>
      <trkpt lat="48.1944" lon="7.20357">
        <ele>880.2</ele>
        <time>2021-08-05T06:45:31Z</time>
      </trkpt>
      <trkpt lat="48.1944" lon="7.20358">
        <ele>880.2</ele>
        <time>2021-08-05T06:45:32Z</time>
      </trkpt>
      <trkpt lat="48.1944" lon="7.20358">
        <ele>880.2</ele>
        <time>2021-08-05T06:45:33Z</time>
      </trkpt>
      <trkpt lat="48.1944" lon="7.20359">
        <ele>880.3</ele>
        <time>2021-08-05T06:45:35Z</time>
      </trkpt>
      <trkpt lat="48.1944" lon="7.20359">
        <ele>880.3</ele>
        <time>2021-08-05T06:45:36Z</time>
      </trkpt>
      <trkpt lat="48.1944" lon="7.2036">
        <ele>880.3</ele>
        <time>2021-08-05T06:45:38Z</time>
      </trkpt>
      <trkpt lat="48.1944" lon="7.2036">
        <ele>880.4</ele>
        <time>2021-08-05T06:45:39Z</time>
      </trkpt>
      <trkpt lat="48.1944" lon="7.20361">
        <ele>880.4</ele>
        <time>2021-08-05T06:45:40Z</time>
      </trkpt>
      <trkpt lat="48.1944" lon="7.20361">
        <ele>880.4</ele>
        <time>2021-08-05T06:45:42Z</time>
      </trkpt>
      <trkpt lat="48.1944" lon="7.20362">
        <ele>880.5</ele>
        <time>2021-08-05T06:45:44Z</time>
      </trkpt>
      <trkpt lat="48.1944" lon="7.20362">
        <ele>880.5</ele>
        <time>2021-08-05T06:45:45Z</time>
      </trkpt>
      <trkpt lat="48.1944" lon="7.20365">
        <ele>880.7</ele>
        <time>2021-08-05T06:45:46Z</time>
      </trkpt>
      <trkpt lat="48.19441" lon="7.20368">
        <ele>880.9</ele>
        <time>2021-08-05T06:45:47Z</time>
      </trkpt>
      <trkpt lat="48.19441" lon="7.20369">
        <ele>881</ele>
        <time>2021-08-05T06:45:48Z</time>
      </trkpt>
      <trkpt lat="48.19442" lon="7.20371">
        <ele>881.1</ele>
        <time>2021-08-05T06:45:49Z</time>
      </trkpt>
      <trkpt lat="48.19443" lon="7.20371">
        <ele>881.2</ele>
        <time>2021-08-05T06:45:51Z</time>
      </trkpt>
      <trkpt lat="48.19444" lon="7.20371">
        <ele>881.3</ele>
        <time>2021-08-05T06:45:53Z</time>
      </trkpt>
      <trkpt lat="48.19444" lon="7.20369">
        <ele>881.4</ele>
        <time>2021-08-05T06:45:55Z</time>
      </trkpt>
      <trkpt lat="48.19443" lon="7.20364">
        <ele>881.7</ele>
        <time>2021-08-05T06:45:57Z</time>
      </trkpt>
      <trkpt lat="48.19441" lon="7.20361">
        <ele>882</ele>
        <time>2021-08-05T06:45:58Z</time>
      </trkpt>
      <trkpt lat="48.19441" lon="7.2036">
        <ele>882.1</ele>
        <time>2021-08-05T06:45:59Z</time>
      </trkpt>
      <trkpt lat="48.1944" lon="7.20357">
        <ele>882.2</ele>
        <time>2021-08-05T06:46:01Z</time>
      </trkpt>
      <trkpt lat="48.1944" lon="7.20355">
        <ele>882.4</ele>
        <time>2021-08-05T06:46:03Z</time>
      </trkpt>
      <trkpt lat="48.1944" lon="7.20354">
        <ele>882.4</ele>
        <time>2021-08-05T06:46:04Z</time>
      </trkpt>
      <trkpt lat="48.19439" lon="7.20353">
        <ele>882.5</ele>
        <time>2021-08-05T06:46:05Z</time>
      </trkpt>
      <trkpt lat="48.19437" lon="7.20347">
        <ele>883</ele>
        <time>2021-08-05T06:46:07Z</time>
      </trkpt>
      <trkpt lat="48.19436" lon="7.20345">
        <ele>883.1</ele>
        <time>2021-08-05T06:46:08Z</time>
      </trkpt>
      <trkpt lat="48.19435" lon="7.20346">
        <ele>883.1</ele>
        <time>2021-08-05T06:46:10Z</time>
      </trkpt>
      <trkpt lat="48.19436" lon="7.20347">
        <ele>883.2</ele>
        <time>2021-08-05T06:46:11Z</time>
      </trkpt>
      <trkpt lat="48.19436" lon="7.20347">
        <ele>883.3</ele>
        <time>2021-08-05T06:46:12Z</time>
      </trkpt>
      <trkpt lat="48.19436" lon="7.20347">
        <ele>883.3</ele>
        <time>2021-08-05T06:46:13Z</time>
      </trkpt>
      <trkpt lat="48.19439" lon="7.20351">
        <ele>883.6</ele>
        <time>2021-08-05T06:46:15Z</time>
      </trkpt>
      <trkpt lat="48.1944" lon="7.20352">
        <ele>883.7</ele>
        <time>2021-08-05T06:46:17Z</time>
      </trkpt>
      <trkpt lat="48.19441" lon="7.20352">
        <ele>883.8</ele>
        <time>2021-08-05T06:46:18Z</time>
      </trkpt>
      <trkpt lat="48.19441" lon="7.20352">
        <ele>883.8</ele>
        <time>2021-08-05T06:46:19Z</time>
      </trkpt>
      <trkpt lat="48.19441" lon="7.20352">
        <ele>883.8</ele>
        <time>2021-08-05T06:46:20Z</time>
      </trkpt>
      <trkpt lat="48.19441" lon="7.20353">
        <ele>883.8</ele>
        <time>2021-08-05T06:46:22Z</time>
      </trkpt>
      <trkpt lat="48.19442" lon="7.20353">
        <ele>883.9</ele>
        <time>2021-08-05T06:46:23Z</time>
      </trkpt>
      <trkpt lat="48.19441" lon="7.20348">
        <ele>884.1</ele>
        <time>2021-08-05T06:46:24Z</time>
      </trkpt>
      <trkpt lat="48.19441" lon="7.20344">
        <ele>884.4</ele>
        <time>2021-08-05T06:46:25Z</time>
      </trkpt>
      <trkpt lat="48.1944" lon="7.20339">
        <ele>884.7</ele>
        <time>2021-08-05T06:47:01Z</time>
      </trkpt>
      <trkpt lat="48.1944" lon="7.20335">
        <ele>884.9</ele>
        <time>2021-08-05T06:47:02Z</time>
      </trkpt>
      <trkpt lat="48.19434" lon="7.20327">
        <ele>885.6</ele>
        <time>2021-08-05T06:47:04Z</time>
      </trkpt>
      <trkpt lat="48.19434" lon="7.20326">
        <ele>885.6</ele>
        <time>2021-08-05T06:47:05Z</time>
      </trkpt>
      <trkpt lat="48.19436" lon="7.20327">
        <ele>885.8</ele>
        <time>2021-08-05T06:47:07Z</time>
      </trkpt>
      <trkpt lat="48.19438" lon="7.20329">
        <ele>886</ele>
        <time>2021-08-05T06:47:09Z</time>
      </trkpt>
      <trkpt lat="48.1944" lon="7.20334">
        <ele>886.3</ele>
        <time>2021-08-05T06:47:11Z</time>
      </trkpt>
      <trkpt lat="48.19441" lon="7.20336">
        <ele>886.5</ele>
        <time>2021-08-05T06:47:12Z</time>
      </trkpt>
      <trkpt lat="48.19441" lon="7.20338">
        <ele>886.5</ele>
        <time>2021-08-05T06:47:13Z</time>
      </trkpt>
      <trkpt lat="48.19441" lon="7.20339">
        <ele>886.6</ele>
        <time>2021-08-05T06:47:14Z</time>
      </trkpt>
      <trkpt lat="48.19441" lon="7.20339">
        <ele>886.6</ele>
        <time>2021-08-05T06:47:15Z</time>
      </trkpt>
      <trkpt lat="48.19443" lon="7.20339">
        <ele>886.8</ele>
        <time>2021-08-05T06:47:17Z</time>
      </trkpt>
      <trkpt lat="48.19443" lon="7.20339">
        <ele>886.8</ele>
        <time>2021-08-05T06:47:18Z</time>
      </trkpt>
      <trkpt lat="48.19443" lon="7.20339">
        <ele>886.9</ele>
        <time>2021-08-05T06:47:20Z</time>
      </trkpt>
      <trkpt lat="48.19443" lon="7.20339">
        <ele>886.9</ele>
        <time>2021-08-05T06:47:21Z</time>
      </trkpt>
      <trkpt lat="48.19442" lon="7.20338">
        <ele>886.9</ele>
        <time>2021-08-05T06:47:22Z</time>
      </trkpt>
      <trkpt lat="48.19441" lon="7.20337">
        <ele>887</ele>
        <time>2021-08-05T06:47:24Z</time>
      </trkpt>
      <trkpt lat="48.19441" lon="7.20336">
        <ele>887.1</ele>
        <time>2021-08-05T06:47:25Z</time>
      </trkpt>
      <trkpt lat="48.19454" lon="7.20349">
        <ele>888.4</ele>
        <time>2021-08-05T06:48:07Z</time>
      </trkpt>
      <trkpt lat="48.19456" lon="7.20351">
        <ele>888.6</ele>
        <time>2021-08-05T06:48:08Z</time>
      </trkpt>
      <trkpt lat="48.19455" lon="7.20351">
        <ele>888.7</ele>
        <time>2021-08-05T06:48:10Z</time>
      </trkpt>
      <trkpt lat="48.19454" lon="7.20352">
        <ele>888.8</ele>
        <time>2021-08-05T06:48:12Z</time>
      </trkpt>
      <trkpt lat="48.19454" lon="7.20352">
        <ele>888.9</ele>
        <time>2021-08-05T06:48:13Z</time>
      </trkpt>
      <trkpt lat="48.19453" lon="7.20353">
        <ele>888.9</ele>
        <time>2021-08-05T06:48:15Z</time>
      </trkpt>
      <trkpt lat="48.19453" lon="7.20355">
        <ele>889.1</ele>
        <time>2021-08-05T06:48:17Z</time>
      </trkpt>
      <trkpt lat="48.19453" lon="7.20357">
        <ele>889.1</ele>
        <time>2021-08-05T06:48:18Z</time>
      </trkpt>
      <trkpt lat="48.19453" lon="7.20356">
        <ele>889.2</ele>
        <time>2021-08-05T06:48:19Z</time>
      </trkpt>
      <trkpt lat="48.19453" lon="7.20358">
        <ele>889.3</ele>
        <time>2021-08-05T06:48:21Z</time>
      </trkpt>
      <trkpt lat="48.19453" lon="7.20358">
        <ele>889.3</ele>
        <time>2021-08-05T06:48:22Z</time>
      </trkpt>
      <trkpt lat="48.19453" lon="7.20359">
        <ele>889.4</ele>
        <time>2021-08-05T06:48:23Z</time>
      </trkpt>
      <trkpt lat="48.19452" lon="7.20361">
        <ele>889.5</ele>
        <time>2021-08-05T06:48:25Z</time>
      </trkpt>
      <trkpt lat="48.19451" lon="7.20362">
        <ele>889.6</ele>
        <time>2021-08-05T06:48:27Z</time>
      </trkpt>
      <trkpt lat="48.19451" lon="7.20363">
        <ele>889.6</ele>
        <time>2021-08-05T06:48:28Z</time>
      </trkpt>
      <trkpt lat="48.1945" lon="7.20364">
        <ele>889.7</ele>
        <time>2021-08-05T06:48:29Z</time>
      </trkpt>
      <trkpt lat="48.1945" lon="7.20365">
        <ele>889.8</ele>
        <time>2021-08-05T06:48:31Z</time>
      </trkpt>
      <trkpt lat="48.19449" lon="7.20365">
        <ele>889.8</ele>
        <time>2021-08-05T06:48:32Z</time>
      </trkpt>
      <trkpt lat="48.19449" lon="7.20366">
        <ele>889.9</ele>
        <time>2021-08-05T06:48:33Z</time>
      </trkpt>
      <trkpt lat="48.19449" lon="7.20368">
        <ele>890</ele>
        <time>2021-08-05T06:48:35Z</time>
      </trkpt>
      <trkpt lat="48.19449" lon="7.2037">
        <ele>890.1</ele>
        <time>2021-08-05T06:48:37Z</time>
      </trkpt>
      <trkpt lat="48.1945" lon="7.20371">
        <ele>890.2</ele>
        <time>2021-08-05T06:48:38Z</time>
      </trkpt>
      <trkpt lat="48.1945" lon="7.20372">
        <ele>890.3</ele>
        <time>2021-08-05T06:48:39Z</time>
      </trkpt>
      <trkpt lat="48.19452" lon="7.20373">
        <ele>890.4</ele>
        <time>2021-08-05T06:48:41Z</time>
      </trkpt>
      <trkpt lat="48.19452" lon="7.20374">
        <ele>890.5</ele>
        <time>2021-08-05T06:48:42Z</time>
      </trkpt>
      <trkpt lat="48.19454" lon="7.20376">
        <ele>890.7</ele>
        <time>2021-08-05T06:48:43Z</time>
      </trkpt>
      <trkpt lat="48.19451" lon="7.20368">
        <ele>891.2</ele>
        <time>2021-08-05T06:48:44Z</time>
      </trkpt>
      <trkpt lat="48.19451" lon="7.20368">
        <ele>891.2</ele>
        <time>2021-08-05T06:48:46Z</time>
      </trkpt>
      <trkpt lat="48.19452" lon="7.20368">
        <ele>891.3</ele>
        <time>2021-08-05T06:48:48Z</time>
      </trkpt>
      <trkpt lat="48.19453" lon="7.20369">
        <ele>891.3</ele>
        <time>2021-08-05T06:48:49Z</time>
      </trkpt>
      <trkpt lat="48.19453" lon="7.20369">
        <ele>891.3</ele>
        <time>2021-08-05T06:48:50Z</time>
      </trkpt>
      <trkpt lat="48.19453" lon="7.20368">
        <ele>891.4</ele>
        <time>2021-08-05T06:48:52Z</time>
      </trkpt>
      <trkpt lat="48.19453" lon="7.20367">
        <ele>891.5</ele>
        <time>2021-08-05T06:48:53Z</time>
      </trkpt>
      <trkpt lat="48.19452" lon="7.20349">
        <ele>892.5</ele>
        <time>2021-08-05T06:49:01Z</time>
      </trkpt>
      <trkpt lat="48.19453" lon="7.20347">
        <ele>892.7</ele>
        <time>2021-08-05T06:49:02Z</time>
      </trkpt>
      <trkpt lat="48.19453" lon="7.20343">
        <ele>892.9</ele>
        <time>2021-08-05T06:49:04Z</time>
      </trkpt>
      <trkpt lat="48.19453" lon="7.20341">
        <ele>893.1</ele>
        <time>2021-08-05T06:49:05Z</time>
      </trkpt>
      <trkpt lat="48.19453" lon="7.20339">
        <ele>893.2</ele>
        <time>2021-08-05T06:49:06Z</time>
      </trkpt>
      <trkpt lat="48.19452" lon="7.20338">
        <ele>893.3</ele>
        <time>2021-08-05T06:49:08Z</time>
      </trkpt>
      <trkpt lat="48.19451" lon="7.20337">
        <ele>893.4</ele>
        <time>2021-08-05T06:49:09Z</time>
      </trkpt>
      <trkpt lat="48.1945" lon="7.20337">
        <ele>893.4</ele>
        <time>2021-08-05T06:49:10Z</time>
      </trkpt>
      <trkpt lat="48.1945" lon="7.20336">
        <ele>893.5</ele>
        <time>2021-08-05T06:49:11Z</time>
      </trkpt>
      <trkpt lat="48.19449" lon="7.20336">
        <ele>893.6</ele>
        <time>2021-08-05T06:49:13Z</time>
      </trkpt>
      <trkpt lat="48.19448" lon="7.20335">
        <ele>893.7</ele>
        <time>2021-08-05T06:49:14Z</time>
      </trkpt>
      <trkpt lat="48.19447" lon="7.20335">
        <ele>893.7</ele>
        <time>2021-08-05T06:49:16Z</time>
      </trkpt>
      <trkpt lat="48.19447" lon="7.20334">
        <ele>893.8</ele>
        <time>2021-08-05T06:49:17Z</time>
      </trkpt>
      <trkpt lat="48.19445" lon="7.20334">
        <ele>894</ele>
        <time>2021-08-05T06:49:19Z</time>
      </trkpt>
      <trkpt lat="48.19445" lon="7.20334">
        <ele>894</ele>
        <time>2021-08-05T06:49:20Z</time>
      </trkpt>
      <trkpt lat="48.19444" lon="7.20334">
        <ele>894</ele>
        <time>2021-08-05T06:49:21Z</time>
      </trkpt>
      <trkpt lat="48.19445" lon="7.20335">
        <ele>894.1</ele>
        <time>2021-08-05T06:49:23Z</time>
      </trkpt>
      <trkpt lat="48.19445" lon="7.20335">
        <ele>894.2</ele>
        <time>2021-08-05T06:49:24Z</time>
      </trkpt>
      <trkpt lat="48.19446" lon="7.20336">
        <ele>894.3</ele>
        <time>2021-08-05T06:49:26Z</time>
      </trkpt>
      <trkpt lat="48.19447" lon="7.20337">
        <ele>894.3</ele>
        <time>2021-08-05T06:49:27Z</time>
      </trkpt>
      <trkpt lat="48.19447" lon="7.20338">
        <ele>894.4</ele>
        <time>2021-08-05T06:49:28Z</time>
      </trkpt>
      <trkpt lat="48.19448" lon="7.20338">
        <ele>894.5</ele>
        <time>2021-08-05T06:49:30Z</time>
      </trkpt>
      <trkpt lat="48.19449" lon="7.20338">
        <ele>894.6</ele>
        <time>2021-08-05T06:49:31Z</time>
      </trkpt>
      <trkpt lat="48.19449" lon="7.20338">
        <ele>894.6</ele>
        <time>2021-08-05T06:49:32Z</time>
      </trkpt>
      <trkpt lat="48.1945" lon="7.20337">
        <ele>894.7</ele>
        <time>2021-08-05T06:49:34Z</time>
      </trkpt>
      <trkpt lat="48.19451" lon="7.20337">
        <ele>894.8</ele>
        <time>2021-08-05T06:49:35Z</time>
      </trkpt>
      <trkpt lat="48.19452" lon="7.20337">
        <ele>894.8</ele>
        <time>2021-08-05T06:49:37Z</time>
      </trkpt>
      <trkpt lat="48.19452" lon="7.20336">
        <ele>894.9</ele>
        <time>2021-08-05T06:49:38Z</time>
      </trkpt>
      <trkpt lat="48.19452" lon="7.20336">
        <ele>894.9</ele>
        <time>2021-08-05T06:49:39Z</time>
      </trkpt>
      <trkpt lat="48.19451" lon="7.20334">
        <ele>895</ele>
        <time>2021-08-05T06:49:41Z</time>
      </trkpt>
      <trkpt lat="48.19451" lon="7.20334">
        <ele>895</ele>
        <time>2021-08-05T06:49:42Z</time>
      </trkpt>
      <trkpt lat="48.19452" lon="7.20335">
        <ele>895.1</ele>
        <time>2021-08-05T06:49:44Z</time>
      </trkpt>
      <trkpt lat="48.19452" lon="7.20335">
        <ele>895.2</ele>
        <time>2021-08-05T06:49:46Z</time>
      </trkpt>
      <trkpt lat="48.19453" lon="7.20336">
        <ele>895.3</ele>
        <time>2021-08-05T06:49:47Z</time>
      </trkpt>
      <trkpt lat="48.19453" lon="7.20336">
        <ele>895.3</ele>
        <time>2021-08-05T06:49:48Z</time>
      </trkpt>
      <trkpt lat="48.19455" lon="7.20337">
        <ele>895.4</ele>
        <time>2021-08-05T06:49:50Z</time>
      </trkpt>
      <trkpt lat="48.19456" lon="7.20338">
        <ele>895.6</ele>
        <time>2021-08-05T06:49:51Z</time>
      </trkpt>
      <trkpt lat="48.19457" lon="7.20338">
        <ele>895.7</ele>
        <time>2021-08-05T06:49:52Z</time>
      </trkpt>
      <trkpt lat="48.19459" lon="7.2034">
        <ele>895.9</ele>
        <time>2021-08-05T06:49:54Z</time>
      </trkpt>
      <trkpt lat="48.1946" lon="7.2034">
        <ele>896</ele>
        <time>2021-08-05T06:49:56Z</time>
      </trkpt>
      <trkpt lat="48.19461" lon="7.2034">
        <ele>896.1</ele>
        <time>2021-08-05T06:49:57Z</time>
      </trkpt>
      <trkpt lat="48.19463" lon="7.20341">
        <ele>896.2</ele>
        <time>2021-08-05T06:49:59Z</time>
      </trkpt>
      <trkpt lat="48.19464" lon="7.20341">
        <ele>896.3</ele>
        <time>2021-08-05T06:50:00Z</time>
      </trkpt>
      <trkpt lat="48.19465" lon="7.20341">
        <ele>896.4</ele>
        <time>2021-08-05T06:50:01Z</time>
      </trkpt>
      <trkpt lat="48.19467" lon="7.20342">
        <ele>896.6</ele>
        <time>2021-08-05T06:50:03Z</time>
      </trkpt>
      <trkpt lat="48.19469" lon="7.20342">
        <ele>896.8</ele>
        <time>2021-08-05T06:50:04Z</time>
      </trkpt>
      <trkpt lat="48.19471" lon="7.20343">
        <ele>897</ele>
        <time>2021-08-05T06:50:05Z</time>
      </trkpt>
      <trkpt lat="48.19475" lon="7.20344">
        <ele>897.3</ele>
        <time>2021-08-05T06:50:07Z</time>
      </trkpt>
      <trkpt lat="48.19476" lon="7.20345">
        <ele>897.5</ele>
        <time>2021-08-05T06:50:08Z</time>
      </trkpt>
      <trkpt lat="48.19478" lon="7.20346">
        <ele>897.6</ele>
        <time>2021-08-05T06:50:09Z</time>
      </trkpt>
      <trkpt lat="48.1948" lon="7.20349">
        <ele>897.9</ele>
        <time>2021-08-05T06:50:11Z</time>
      </trkpt>
      <trkpt lat="48.19482" lon="7.20352">
        <ele>898.2</ele>
        <time>2021-08-05T06:50:13Z</time>
      </trkpt>
      <trkpt lat="48.19484" lon="7.20353">
        <ele>898.3</ele>
        <time>2021-08-05T06:50:14Z</time>
      </trkpt>
      <trkpt lat="48.19486" lon="7.20354">
        <ele>898.5</ele>
        <time>2021-08-05T06:50:16Z</time>
      </trkpt>
      <trkpt lat="48.19487" lon="7.20355">
        <ele>898.6</ele>
        <time>2021-08-05T06:50:17Z</time>
      </trkpt>
      <trkpt lat="48.19488" lon="7.20355">
        <ele>898.7</ele>
        <time>2021-08-05T06:50:18Z</time>
      </trkpt>
      <trkpt lat="48.1949" lon="7.20355">
        <ele>898.9</ele>
        <time>2021-08-05T06:50:20Z</time>
      </trkpt>
      <trkpt lat="48.19491" lon="7.20354">
        <ele>899</ele>
        <time>2021-08-05T06:50:21Z</time>
      </trkpt>
      <trkpt lat="48.19492" lon="7.20353">
        <ele>899.1</ele>
        <time>2021-08-05T06:50:22Z</time>
      </trkpt>
      <trkpt lat="48.19494" lon="7.20352">
        <ele>899.4</ele>
        <time>2021-08-05T06:50:24Z</time>
      </trkpt>
      <trkpt lat="48.19496" lon="7.20351">
        <ele>899.5</ele>
        <time>2021-08-05T06:50:26Z</time>
      </trkpt>
      <trkpt lat="48.19498" lon="7.20351">
        <ele>899.7</ele>
        <time>2021-08-05T06:50:27Z</time>
      </trkpt>
      <trkpt lat="48.19501" lon="7.2035">
        <ele>900</ele>
        <time>2021-08-05T06:50:29Z</time>
      </trkpt>
      <trkpt lat="48.19502" lon="7.20349">
        <ele>900.1</ele>
        <time>2021-08-05T06:50:30Z</time>
      </trkpt>
      <trkpt lat="48.19503" lon="7.20349">
        <ele>900.2</ele>
        <time>2021-08-05T06:50:31Z</time>
      </trkpt>
      <trkpt lat="48.19504" lon="7.20348">
        <ele>900.3</ele>
        <time>2021-08-05T06:50:33Z</time>
      </trkpt>
      <trkpt lat="48.19505" lon="7.20347">
        <ele>900.4</ele>
        <time>2021-08-05T06:50:34Z</time>
      </trkpt>
      <trkpt lat="48.19506" lon="7.20345">
        <ele>900.5</ele>
        <time>2021-08-05T06:50:35Z</time>
      </trkpt>
      <trkpt lat="48.19506" lon="7.20344">
        <ele>900.6</ele>
        <time>2021-08-05T06:50:36Z</time>
      </trkpt>
      <trkpt lat="48.19507" lon="7.20342">
        <ele>900.8</ele>
        <time>2021-08-05T06:50:37Z</time>
      </trkpt>
      <trkpt lat="48.19509" lon="7.2034">
        <ele>901</ele>
        <time>2021-08-05T06:50:39Z</time>
      </trkpt>
      <trkpt lat="48.19512" lon="7.20339">
        <ele>901.3</ele>
        <time>2021-08-05T06:50:40Z</time>
      </trkpt>
      <trkpt lat="48.19513" lon="7.20338">
        <ele>901.4</ele>
        <time>2021-08-05T06:50:41Z</time>
      </trkpt>
      <trkpt lat="48.19515" lon="7.20338">
        <ele>901.6</ele>
        <time>2021-08-05T06:50:42Z</time>
      </trkpt>
      <trkpt lat="48.19518" lon="7.20338">
        <ele>901.9</ele>
        <time>2021-08-05T06:50:44Z</time>
      </trkpt>
      <trkpt lat="48.19519" lon="7.20338">
        <ele>901.9</ele>
        <time>2021-08-05T06:50:45Z</time>
      </trkpt>
      <trkpt lat="48.19519" lon="7.20337">
        <ele>902</ele>
        <time>2021-08-05T06:50:46Z</time>
      </trkpt>
      <trkpt lat="48.19519" lon="7.20336">
        <ele>902.1</ele>
        <time>2021-08-05T06:50:48Z</time>
      </trkpt>
      <trkpt lat="48.19519" lon="7.20334">
        <ele>902.2</ele>
        <time>2021-08-05T06:50:49Z</time>
      </trkpt>
      <trkpt lat="48.19519" lon="7.20333">
        <ele>902.3</ele>
        <time>2021-08-05T06:50:51Z</time>
      </trkpt>
      <trkpt lat="48.19519" lon="7.20332">
        <ele>902.3</ele>
        <time>2021-08-05T06:50:52Z</time>
      </trkpt>
      <trkpt lat="48.1952" lon="7.20331">
        <ele>902.4</ele>
        <time>2021-08-05T06:50:53Z</time>
      </trkpt>
      <trkpt lat="48.1952" lon="7.20331">
        <ele>902.4</ele>
        <time>2021-08-05T06:50:54Z</time>
      </trkpt>
      <trkpt lat="48.1952" lon="7.20331">
        <ele>902.5</ele>
        <time>2021-08-05T06:50:55Z</time>
      </trkpt>
      <trkpt lat="48.19521" lon="7.2033">
        <ele>902.5</ele>
        <time>2021-08-05T06:50:57Z</time>
      </trkpt>
      <trkpt lat="48.19521" lon="7.2033">
        <ele>902.6</ele>
        <time>2021-08-05T06:50:58Z</time>
      </trkpt>
      <trkpt lat="48.19522" lon="7.20329">
        <ele>902.7</ele>
        <time>2021-08-05T06:50:59Z</time>
      </trkpt>
      <trkpt lat="48.19523" lon="7.20328">
        <ele>902.7</ele>
        <time>2021-08-05T06:51:01Z</time>
      </trkpt>
      <trkpt lat="48.19524" lon="7.20328">
        <ele>902.8</ele>
        <time>2021-08-05T06:51:02Z</time>
      </trkpt>
      <trkpt lat="48.19525" lon="7.20328">
        <ele>903</ele>
        <time>2021-08-05T06:51:04Z</time>
      </trkpt>
      <trkpt lat="48.19526" lon="7.20328">
        <ele>903.1</ele>
        <time>2021-08-05T06:51:05Z</time>
      </trkpt>
      <trkpt lat="48.19528" lon="7.20329">
        <ele>903.2</ele>
        <time>2021-08-05T06:51:07Z</time>
      </trkpt>
      <trkpt lat="48.19529" lon="7.2033">
        <ele>903.4</ele>
        <time>2021-08-05T06:51:08Z</time>
      </trkpt>
      <trkpt lat="48.1953" lon="7.20331">
        <ele>903.5</ele>
        <time>2021-08-05T06:51:09Z</time>
      </trkpt>
      <trkpt lat="48.19531" lon="7.20331">
        <ele>903.6</ele>
        <time>2021-08-05T06:51:10Z</time>
      </trkpt>
      <trkpt lat="48.19532" lon="7.20332">
        <ele>903.6</ele>
        <time>2021-08-05T06:51:11Z</time>
      </trkpt>
      <trkpt lat="48.19532" lon="7.20333">
        <ele>903.7</ele>
        <time>2021-08-05T06:51:12Z</time>
      </trkpt>
      <trkpt lat="48.19533" lon="7.20333">
        <ele>903.8</ele>
        <time>2021-08-05T06:51:14Z</time>
      </trkpt>
      <trkpt lat="48.19534" lon="7.20334">
        <ele>903.9</ele>
        <time>2021-08-05T06:51:15Z</time>
      </trkpt>
      <trkpt lat="48.19535" lon="7.20334">
        <ele>903.9</ele>
        <time>2021-08-05T06:51:16Z</time>
      </trkpt>
      <trkpt lat="48.19535" lon="7.20335">
        <ele>904</ele>
        <time>2021-08-05T06:51:18Z</time>
      </trkpt>
      <trkpt lat="48.19536" lon="7.20335">
        <ele>904.1</ele>
        <time>2021-08-05T06:51:19Z</time>
      </trkpt>
      <trkpt lat="48.19536" lon="7.20335">
        <ele>904.1</ele>
        <time>2021-08-05T06:51:20Z</time>
      </trkpt>
      <trkpt lat="48.19536" lon="7.20335">
        <ele>904.1</ele>
        <time>2021-08-05T06:51:22Z</time>
      </trkpt>
      <trkpt lat="48.19536" lon="7.20335">
        <ele>904.1</ele>
        <time>2021-08-05T06:51:23Z</time>
      </trkpt>
      <trkpt lat="48.19536" lon="7.20335">
        <ele>904.1</ele>
        <time>2021-08-05T06:51:24Z</time>
      </trkpt>
      <trkpt lat="48.19536" lon="7.20335">
        <ele>904.1</ele>
        <time>2021-08-05T06:51:25Z</time>
      </trkpt>
      <trkpt lat="48.19536" lon="7.20335">
        <ele>904.2</ele>
        <time>2021-08-05T06:51:26Z</time>
      </trkpt>
      <trkpt lat="48.19536" lon="7.20335">
        <ele>904.2</ele>
        <time>2021-08-05T06:51:27Z</time>
      </trkpt>
      <trkpt lat="48.19536" lon="7.20335">
        <ele>904.2</ele>
        <time>2021-08-05T06:51:29Z</time>
      </trkpt>
      <trkpt lat="48.19536" lon="7.20335">
        <ele>904.2</ele>
        <time>2021-08-05T06:51:30Z</time>
      </trkpt>
      <trkpt lat="48.19536" lon="7.20336">
        <ele>904.2</ele>
        <time>2021-08-05T06:51:31Z</time>
      </trkpt>
      <trkpt lat="48.19536" lon="7.20336">
        <ele>904.3</ele>
        <time>2021-08-05T06:51:33Z</time>
      </trkpt>
      <trkpt lat="48.19536" lon="7.20337">
        <ele>904.3</ele>
        <time>2021-08-05T06:51:34Z</time>
      </trkpt>
      <trkpt lat="48.19536" lon="7.20337">
        <ele>904.3</ele>
        <time>2021-08-05T06:51:35Z</time>
      </trkpt>
      <trkpt lat="48.19537" lon="7.20337">
        <ele>904.3</ele>
        <time>2021-08-05T06:51:37Z</time>
      </trkpt>
      <trkpt lat="48.19537" lon="7.20337">
        <ele>904.4</ele>
        <time>2021-08-05T06:51:38Z</time>
      </trkpt>
      <trkpt lat="48.19538" lon="7.20337">
        <ele>904.4</ele>
        <time>2021-08-05T06:51:39Z</time>
      </trkpt>
      <trkpt lat="48.19538" lon="7.20337">
        <ele>904.5</ele>
        <time>2021-08-05T06:51:41Z</time>
      </trkpt>
      <trkpt lat="48.19539" lon="7.20337">
        <ele>904.6</ele>
        <time>2021-08-05T06:51:42Z</time>
      </trkpt>
      <trkpt lat="48.1954" lon="7.20337">
        <ele>904.7</ele>
        <time>2021-08-05T06:51:44Z</time>
      </trkpt>
      <trkpt lat="48.19541" lon="7.20337">
        <ele>904.8</ele>
        <time>2021-08-05T06:51:46Z</time>
      </trkpt>
      <trkpt lat="48.19541" lon="7.20337">
        <ele>904.8</ele>
        <time>2021-08-05T06:51:47Z</time>
      </trkpt>
      <trkpt lat="48.19542" lon="7.20338">
        <ele>904.9</ele>
        <time>2021-08-05T06:51:49Z</time>
      </trkpt>
      <trkpt lat="48.19543" lon="7.20339">
        <ele>905</ele>
        <time>2021-08-05T06:51:50Z</time>
      </trkpt>
      <trkpt lat="48.19543" lon="7.2034">
        <ele>905.1</ele>
        <time>2021-08-05T06:51:51Z</time>
      </trkpt>
      <trkpt lat="48.19544" lon="7.20341">
        <ele>905.1</ele>
        <time>2021-08-05T06:51:53Z</time>
      </trkpt>
      <trkpt lat="48.19545" lon="7.20342">
        <ele>905.2</ele>
        <time>2021-08-05T06:51:54Z</time>
      </trkpt>
      <trkpt lat="48.19545" lon="7.20343">
        <ele>905.3</ele>
        <time>2021-08-05T06:51:56Z</time>
      </trkpt>
      <trkpt lat="48.19546" lon="7.20344">
        <ele>905.4</ele>
        <time>2021-08-05T06:51:57Z</time>
      </trkpt>
      <trkpt lat="48.19546" lon="7.20345">
        <ele>905.5</ele>
        <time>2021-08-05T06:51:58Z</time>
      </trkpt>
      <trkpt lat="48.19548" lon="7.20347">
        <ele>905.6</ele>
        <time>2021-08-05T06:52:00Z</time>
      </trkpt>
      <trkpt lat="48.19549" lon="7.20348">
        <ele>905.7</ele>
        <time>2021-08-05T06:52:01Z</time>
      </trkpt>
      <trkpt lat="48.1955" lon="7.20349">
        <ele>905.9</ele>
        <time>2021-08-05T06:52:03Z</time>
      </trkpt>
      <trkpt lat="48.1955" lon="7.20351">
        <ele>906</ele>
        <time>2021-08-05T06:52:05Z</time>
      </trkpt>
      <trkpt lat="48.19551" lon="7.20352">
        <ele>906.1</ele>
        <time>2021-08-05T06:52:06Z</time>
      </trkpt>
      <trkpt lat="48.19551" lon="7.20352">
        <ele>906.1</ele>
        <time>2021-08-05T06:52:07Z</time>
      </trkpt>
      <trkpt lat="48.19552" lon="7.20354">
        <ele>906.3</ele>
        <time>2021-08-05T06:52:09Z</time>
      </trkpt>
      <trkpt lat="48.19553" lon="7.20356">
        <ele>906.4</ele>
        <time>2021-08-05T06:52:10Z</time>
      </trkpt>
      <trkpt lat="48.19554" lon="7.20358">
        <ele>906.6</ele>
        <time>2021-08-05T06:52:12Z</time>
      </trkpt>
      <trkpt lat="48.19555" lon="7.2036">
        <ele>906.8</ele>
        <time>2021-08-05T06:52:13Z</time>
      </trkpt>
      <trkpt lat="48.19556" lon="7.20362">
        <ele>906.9</ele>
        <time>2021-08-05T06:52:14Z</time>
      </trkpt>
      <trkpt lat="48.19556" lon="7.20364">
        <ele>907</ele>
        <time>2021-08-05T06:52:16Z</time>
      </trkpt>
      <trkpt lat="48.19557" lon="7.20365">
        <ele>907.2</ele>
        <time>2021-08-05T06:52:17Z</time>
      </trkpt>
      <trkpt lat="48.19558" lon="7.20365">
        <ele>907.3</ele>
        <time>2021-08-05T06:52:18Z</time>
      </trkpt>
      <trkpt lat="48.1956" lon="7.20366">
        <ele>907.4</ele>
        <time>2021-08-05T06:52:20Z</time>
      </trkpt>
      <trkpt lat="48.19561" lon="7.20367">
        <ele>907.5</ele>
        <time>2021-08-05T06:52:21Z</time>
      </trkpt>
      <trkpt lat="48.19563" lon="7.20368">
        <ele>907.8</ele>
        <time>2021-08-05T06:52:23Z</time>
      </trkpt>
      <trkpt lat="48.19566" lon="7.20369">
        <ele>908.1</ele>
        <time>2021-08-05T06:52:25Z</time>
      </trkpt>
      <trkpt lat="48.19568" lon="7.20369">
        <ele>908.3</ele>
        <time>2021-08-05T06:52:26Z</time>
      </trkpt>
      <trkpt lat="48.1957" lon="7.2037">
        <ele>908.4</ele>
        <time>2021-08-05T06:52:27Z</time>
      </trkpt>
      <trkpt lat="48.19574" lon="7.20372">
        <ele>908.9</ele>
        <time>2021-08-05T06:52:29Z</time>
      </trkpt>
      <trkpt lat="48.19576" lon="7.20372">
        <ele>909</ele>
        <time>2021-08-05T06:52:30Z</time>
      </trkpt>
      <trkpt lat="48.19577" lon="7.20373">
        <ele>909.1</ele>
        <time>2021-08-05T06:52:31Z</time>
      </trkpt>
      <trkpt lat="48.1958" lon="7.20376">
        <ele>909.5</ele>
        <time>2021-08-05T06:52:33Z</time>
      </trkpt>
      <trkpt lat="48.19581" lon="7.20377">
        <ele>909.6</ele>
        <time>2021-08-05T06:52:34Z</time>
      </trkpt>
      <trkpt lat="48.19582" lon="7.20379">
        <ele>909.8</ele>
        <time>2021-08-05T06:52:35Z</time>
      </trkpt>
      <trkpt lat="48.19584" lon="7.20382">
        <ele>910</ele>
        <time>2021-08-05T06:52:37Z</time>
      </trkpt>
      <trkpt lat="48.19587" lon="7.20385">
        <ele>910.3</ele>
        <time>2021-08-05T06:52:39Z</time>
      </trkpt>
      <trkpt lat="48.19588" lon="7.20386">
        <ele>910.5</ele>
        <time>2021-08-05T06:52:40Z</time>
      </trkpt>
      <trkpt lat="48.1959" lon="7.20388">
        <ele>910.7</ele>
        <time>2021-08-05T06:52:42Z</time>
      </trkpt>
      <trkpt lat="48.19591" lon="7.2039">
        <ele>910.8</ele>
        <time>2021-08-05T06:52:43Z</time>
      </trkpt>
      <trkpt lat="48.19592" lon="7.20391">
        <ele>911</ele>
        <time>2021-08-05T06:52:44Z</time>
      </trkpt>
      <trkpt lat="48.19593" lon="7.20392">
        <ele>911.1</ele>
        <time>2021-08-05T06:52:46Z</time>
      </trkpt>
      <trkpt lat="48.19595" lon="7.20393">
        <ele>911.2</ele>
        <time>2021-08-05T06:52:47Z</time>
      </trkpt>
      <trkpt lat="48.19597" lon="7.20396">
        <ele>911.5</ele>
        <time>2021-08-05T06:52:49Z</time>
      </trkpt>
      <trkpt lat="48.19598" lon="7.20397">
        <ele>911.7</ele>
        <time>2021-08-05T06:52:50Z</time>
      </trkpt>
      <trkpt lat="48.19599" lon="7.20399">
        <ele>911.8</ele>
        <time>2021-08-05T06:52:51Z</time>
      </trkpt>
      <trkpt lat="48.196" lon="7.20401">
        <ele>911.9</ele>
        <time>2021-08-05T06:52:53Z</time>
      </trkpt>
      <trkpt lat="48.19601" lon="7.20402">
        <ele>912</ele>
        <time>2021-08-05T06:52:54Z</time>
      </trkpt>
      <trkpt lat="48.19602" lon="7.20406">
        <ele>912.3</ele>
        <time>2021-08-05T06:52:56Z</time>
      </trkpt>
      <trkpt lat="48.19604" lon="7.20409">
        <ele>912.6</ele>
        <time>2021-08-05T06:52:57Z</time>
      </trkpt>
      <trkpt lat="48.19607" lon="7.2042">
        <ele>913.3</ele>
        <time>2021-08-05T06:52:59Z</time>
      </trkpt>
      <trkpt lat="48.19608" lon="7.20424">
        <ele>913.6</ele>
        <time>2021-08-05T06:53:00Z</time>
      </trkpt>
      <trkpt lat="48.19609" lon="7.20426">
        <ele>913.8</ele>
        <time>2021-08-05T06:53:01Z</time>
      </trkpt>
      <trkpt lat="48.19612" lon="7.2043">
        <ele>914.2</ele>
        <time>2021-08-05T06:53:04Z</time>
      </trkpt>
      <trkpt lat="48.19614" lon="7.20434">
        <ele>914.5</ele>
        <time>2021-08-05T06:53:05Z</time>
      </trkpt>
      <trkpt lat="48.19615" lon="7.20435">
        <ele>914.6</ele>
        <time>2021-08-05T06:53:06Z</time>
      </trkpt>
      <trkpt lat="48.19617" lon="7.20442">
        <ele>915</ele>
        <time>2021-08-05T06:53:08Z</time>
      </trkpt>
      <trkpt lat="48.19618" lon="7.20445">
        <ele>915.2</ele>
        <time>2021-08-05T06:53:09Z</time>
      </trkpt>
      <trkpt lat="48.19618" lon="7.20447">
        <ele>915.3</ele>
        <time>2021-08-05T06:53:10Z</time>
      </trkpt>
      <trkpt lat="48.19618" lon="7.20447">
        <ele>915.3</ele>
        <time>2021-08-05T06:53:11Z</time>
      </trkpt>
      <trkpt lat="48.19622" lon="7.20463">
        <ele>916.3</ele>
        <time>2021-08-05T06:53:13Z</time>
      </trkpt>
      <trkpt lat="48.19626" lon="7.2048">
        <ele>917.3</ele>
        <time>2021-08-05T06:53:14Z</time>
      </trkpt>
      <trkpt lat="48.19627" lon="7.20486">
        <ele>917.8</ele>
        <time>2021-08-05T06:53:15Z</time>
      </trkpt>
      <trkpt lat="48.19628" lon="7.2049">
        <ele>918</ele>
        <time>2021-08-05T06:53:16Z</time>
      </trkpt>
      <trkpt lat="48.19629" lon="7.20494">
        <ele>918.3</ele>
        <time>2021-08-05T06:53:18Z</time>
      </trkpt>
      <trkpt lat="48.19629" lon="7.20496">
        <ele>918.4</ele>
        <time>2021-08-05T06:53:19Z</time>
      </trkpt>
      <trkpt lat="48.19629" lon="7.20496">
        <ele>918.4</ele>
        <time>2021-08-05T06:53:20Z</time>
      </trkpt>
      <trkpt lat="48.1963" lon="7.20496">
        <ele>918.5</ele>
        <time>2021-08-05T06:53:22Z</time>
      </trkpt>
      <trkpt lat="48.19631" lon="7.20495">
        <ele>918.6</ele>
        <time>2021-08-05T06:53:24Z</time>
      </trkpt>
      <trkpt lat="48.19632" lon="7.20494">
        <ele>918.7</ele>
        <time>2021-08-05T06:53:25Z</time>
      </trkpt>
      <trkpt lat="48.19633" lon="7.20492">
        <ele>918.9</ele>
        <time>2021-08-05T06:53:27Z</time>
      </trkpt>
      <trkpt lat="48.19635" lon="7.2049">
        <ele>919.1</ele>
        <time>2021-08-05T06:53:29Z</time>
      </trkpt>
      <trkpt lat="48.19683" lon="7.2047">
        <ele>923.7</ele>
        <time>2021-08-05T06:54:43Z</time>
      </trkpt>
      <trkpt lat="48.19686" lon="7.20472">
        <ele>924.1</ele>
        <time>2021-08-05T06:54:45Z</time>
      </trkpt>
      <trkpt lat="48.19687" lon="7.20473">
        <ele>924.1</ele>
        <time>2021-08-05T06:54:46Z</time>
      </trkpt>
      <trkpt lat="48.19689" lon="7.20473">
        <ele>924.3</ele>
        <time>2021-08-05T06:54:48Z</time>
      </trkpt>
      <trkpt lat="48.1969" lon="7.20474">
        <ele>924.4</ele>
        <time>2021-08-05T06:54:49Z</time>
      </trkpt>
      <trkpt lat="48.19691" lon="7.20475">
        <ele>924.6</ele>
        <time>2021-08-05T06:54:50Z</time>
      </trkpt>
      <trkpt lat="48.19692" lon="7.20476">
        <ele>924.7</ele>
        <time>2021-08-05T06:54:52Z</time>
      </trkpt>
      <trkpt lat="48.19694" lon="7.20478">
        <ele>924.9</ele>
        <time>2021-08-05T06:54:54Z</time>
      </trkpt>
      <trkpt lat="48.19695" lon="7.20479">
        <ele>925</ele>
        <time>2021-08-05T06:54:55Z</time>
      </trkpt>
      <trkpt lat="48.19697" lon="7.2048">
        <ele>925.2</ele>
        <time>2021-08-05T06:54:56Z</time>
      </trkpt>
      <trkpt lat="48.19698" lon="7.20481">
        <ele>925.3</ele>
        <time>2021-08-05T06:54:58Z</time>
      </trkpt>
      <trkpt lat="48.19699" lon="7.20481">
        <ele>925.4</ele>
        <time>2021-08-05T06:54:59Z</time>
      </trkpt>
      <trkpt lat="48.197" lon="7.20482">
        <ele>925.6</ele>
        <time>2021-08-05T06:55:01Z</time>
      </trkpt>
      <trkpt lat="48.19702" lon="7.20483">
        <ele>925.7</ele>
        <time>2021-08-05T06:55:02Z</time>
      </trkpt>
      <trkpt lat="48.19704" lon="7.20483">
        <ele>925.9</ele>
        <time>2021-08-05T06:55:04Z</time>
      </trkpt>
      <trkpt lat="48.19706" lon="7.20482">
        <ele>926</ele>
        <time>2021-08-05T06:55:05Z</time>
      </trkpt>
      <trkpt lat="48.19708" lon="7.20482">
        <ele>926.2</ele>
        <time>2021-08-05T06:55:06Z</time>
      </trkpt>
      <trkpt lat="48.19709" lon="7.20481">
        <ele>926.3</ele>
        <time>2021-08-05T06:55:08Z</time>
      </trkpt>
      <trkpt lat="48.1971" lon="7.20481">
        <ele>926.4</ele>
        <time>2021-08-05T06:55:09Z</time>
      </trkpt>
      <trkpt lat="48.19711" lon="7.20481">
        <ele>926.6</ele>
        <time>2021-08-05T06:55:10Z</time>
      </trkpt>
      <trkpt lat="48.19713" lon="7.2048">
        <ele>926.7</ele>
        <time>2021-08-05T06:55:12Z</time>
      </trkpt>
      <trkpt lat="48.19714" lon="7.20479">
        <ele>926.9</ele>
        <time>2021-08-05T06:55:13Z</time>
      </trkpt>
      <trkpt lat="48.19716" lon="7.20478">
        <ele>927.1</ele>
        <time>2021-08-05T06:55:15Z</time>
      </trkpt>
      <trkpt lat="48.19717" lon="7.20477">
        <ele>927.2</ele>
        <time>2021-08-05T06:55:16Z</time>
      </trkpt>
      <trkpt lat="48.19718" lon="7.20476">
        <ele>927.3</ele>
        <time>2021-08-05T06:55:17Z</time>
      </trkpt>
      <trkpt lat="48.19721" lon="7.20474">
        <ele>927.6</ele>
        <time>2021-08-05T06:55:19Z</time>
      </trkpt>
      <trkpt lat="48.19722" lon="7.20472">
        <ele>927.8</ele>
        <time>2021-08-05T06:55:21Z</time>
      </trkpt>
      <trkpt lat="48.19723" lon="7.2047">
        <ele>927.9</ele>
        <time>2021-08-05T06:55:22Z</time>
      </trkpt>
      <trkpt lat="48.19725" lon="7.20466">
        <ele>928.3</ele>
        <time>2021-08-05T06:55:24Z</time>
      </trkpt>
      <trkpt lat="48.19726" lon="7.20463">
        <ele>928.5</ele>
        <time>2021-08-05T06:55:26Z</time>
      </trkpt>
      <trkpt lat="48.19726" lon="7.20462">
        <ele>928.5</ele>
        <time>2021-08-05T06:55:27Z</time>
      </trkpt>
      <trkpt lat="48.19727" lon="7.20461">
        <ele>928.7</ele>
        <time>2021-08-05T06:55:29Z</time>
      </trkpt>
      <trkpt lat="48.19728" lon="7.2046">
        <ele>928.8</ele>
        <time>2021-08-05T06:55:31Z</time>
      </trkpt>
      <trkpt lat="48.19729" lon="7.20461">
        <ele>928.9</ele>
        <time>2021-08-05T06:55:32Z</time>
      </trkpt>
      <trkpt lat="48.19731" lon="7.20463">
        <ele>929.1</ele>
        <time>2021-08-05T06:55:34Z</time>
      </trkpt>
      <trkpt lat="48.19733" lon="7.20464">
        <ele>929.3</ele>
        <time>2021-08-05T06:55:36Z</time>
      </trkpt>
      <trkpt lat="48.19734" lon="7.20465">
        <ele>929.4</ele>
        <time>2021-08-05T06:55:37Z</time>
      </trkpt>
      <trkpt lat="48.19736" lon="7.20467">
        <ele>929.6</ele>
        <time>2021-08-05T06:55:39Z</time>
      </trkpt>
      <trkpt lat="48.19737" lon="7.20468">
        <ele>929.7</ele>
        <time>2021-08-05T06:55:41Z</time>
      </trkpt>
      <trkpt lat="48.19738" lon="7.20469">
        <ele>929.8</ele>
        <time>2021-08-05T06:55:42Z</time>
      </trkpt>
      <trkpt lat="48.19739" lon="7.20471">
        <ele>930.1</ele>
        <time>2021-08-05T06:55:44Z</time>
      </trkpt>
      <trkpt lat="48.19742" lon="7.20475">
        <ele>930.4</ele>
        <time>2021-08-05T06:55:46Z</time>
      </trkpt>
      <trkpt lat="48.19743" lon="7.20476">
        <ele>930.5</ele>
        <time>2021-08-05T06:55:47Z</time>
      </trkpt>
      <trkpt lat="48.19745" lon="7.2048">
        <ele>930.9</ele>
        <time>2021-08-05T06:55:49Z</time>
      </trkpt>
      <trkpt lat="48.19748" lon="7.20484">
        <ele>931.2</ele>
        <time>2021-08-05T06:55:51Z</time>
      </trkpt>
      <trkpt lat="48.19748" lon="7.20485">
        <ele>931.3</ele>
        <time>2021-08-05T06:55:52Z</time>
      </trkpt>
      <trkpt lat="48.19752" lon="7.20489">
        <ele>931.7</ele>
        <time>2021-08-05T06:55:54Z</time>
      </trkpt>
      <trkpt lat="48.19754" lon="7.2049">
        <ele>931.9</ele>
        <time>2021-08-05T06:55:56Z</time>
      </trkpt>
      <trkpt lat="48.19755" lon="7.20491">
        <ele>932</ele>
        <time>2021-08-05T06:55:57Z</time>
      </trkpt>
      <trkpt lat="48.19759" lon="7.20491">
        <ele>932.3</ele>
        <time>2021-08-05T06:55:59Z</time>
      </trkpt>
      <trkpt lat="48.19761" lon="7.20491">
        <ele>932.5</ele>
        <time>2021-08-05T06:56:01Z</time>
      </trkpt>
      <trkpt lat="48.19762" lon="7.20491">
        <ele>932.6</ele>
        <time>2021-08-05T06:56:02Z</time>
      </trkpt>
      <trkpt lat="48.19764" lon="7.20491">
        <ele>932.8</ele>
        <time>2021-08-05T06:56:04Z</time>
      </trkpt>
      <trkpt lat="48.19767" lon="7.20491">
        <ele>933.1</ele>
        <time>2021-08-05T06:56:06Z</time>
      </trkpt>
      <trkpt lat="48.19769" lon="7.20491">
        <ele>933.3</ele>
        <time>2021-08-05T06:56:07Z</time>
      </trkpt>
      <trkpt lat="48.19773" lon="7.20492">
        <ele>933.6</ele>
        <time>2021-08-05T06:56:09Z</time>
      </trkpt>
      <trkpt lat="48.19774" lon="7.20491">
        <ele>933.7</ele>
        <time>2021-08-05T06:56:10Z</time>
      </trkpt>
      <trkpt lat="48.19775" lon="7.20491">
        <ele>933.8</ele>
        <time>2021-08-05T06:56:12Z</time>
      </trkpt>
      <trkpt lat="48.19775" lon="7.20491">
        <ele>933.9</ele>
        <time>2021-08-05T06:56:13Z</time>
      </trkpt>
      <trkpt lat="48.19775" lon="7.2049">
        <ele>933.9</ele>
        <time>2021-08-05T06:56:15Z</time>
      </trkpt>
      <trkpt lat="48.19776" lon="7.2049">
        <ele>933.9</ele>
        <time>2021-08-05T06:56:16Z</time>
      </trkpt>
      <trkpt lat="48.19776" lon="7.2049">
        <ele>933.9</ele>
        <time>2021-08-05T06:56:17Z</time>
      </trkpt>
      <trkpt lat="48.19776" lon="7.2049">
        <ele>933.9</ele>
        <time>2021-08-05T06:56:19Z</time>
      </trkpt>
      <trkpt lat="48.1981" lon="7.20479">
        <ele>937.1</ele>
        <time>2021-08-05T06:57:56Z</time>
      </trkpt>
      <trkpt lat="48.19812" lon="7.20482">
        <ele>937.4</ele>
        <time>2021-08-05T06:57:57Z</time>
      </trkpt>
      <trkpt lat="48.19815" lon="7.20485">
        <ele>937.7</ele>
        <time>2021-08-05T06:57:58Z</time>
      </trkpt>
      <trkpt lat="48.19817" lon="7.2049">
        <ele>938.1</ele>
        <time>2021-08-05T06:58:00Z</time>
      </trkpt>
      <trkpt lat="48.19817" lon="7.20493">
        <ele>938.3</ele>
        <time>2021-08-05T06:58:01Z</time>
      </trkpt>
      <trkpt lat="48.19818" lon="7.20502">
        <ele>938.8</ele>
        <time>2021-08-05T06:58:03Z</time>
      </trkpt>
      <trkpt lat="48.19818" lon="7.20504">
        <ele>939</ele>
        <time>2021-08-05T06:58:04Z</time>
      </trkpt>
      <trkpt lat="48.19819" lon="7.20505">
        <ele>939</ele>
        <time>2021-08-05T06:58:05Z</time>
      </trkpt>
      <trkpt lat="48.19819" lon="7.20505">
        <ele>939.1</ele>
        <time>2021-08-05T06:58:06Z</time>
      </trkpt>
      <trkpt lat="48.19819" lon="7.20505">
        <ele>939.1</ele>
        <time>2021-08-05T06:58:08Z</time>
      </trkpt>
      <trkpt lat="48.19819" lon="7.20505">
        <ele>939.1</ele>
        <time>2021-08-05T06:58:09Z</time>
      </trkpt>
      <trkpt lat="48.1982" lon="7.20504">
        <ele>939.2</ele>
        <time>2021-08-05T06:58:11Z</time>
      </trkpt>
      <trkpt lat="48.20033" lon="7.20376">
        <ele>967.3</ele>
        <time>2021-08-05T07:03:42Z</time>
      </trkpt>
      <trkpt lat="48.20028" lon="7.20364">
        <ele>968.1</ele>
        <time>2021-08-05T07:03:44Z</time>
      </trkpt>
      <trkpt lat="48.20025" lon="7.20358">
        <ele>968.6</ele>
        <time>2021-08-05T07:03:45Z</time>
      </trkpt>
      <trkpt lat="48.20023" lon="7.20353">
        <ele>969</ele>
        <time>2021-08-05T07:03:46Z</time>
      </trkpt>
      <trkpt lat="48.20022" lon="7.20351">
        <ele>969.1</ele>
        <time>2021-08-05T07:03:47Z</time>
      </trkpt>
      <trkpt lat="48.20021" lon="7.20348">
        <ele>969.2</ele>
        <time>2021-08-05T07:03:48Z</time>
      </trkpt>
      <trkpt lat="48.2002" lon="7.20344">
        <ele>969.5</ele>
        <time>2021-08-05T07:03:50Z</time>
      </trkpt>
      <trkpt lat="48.2002" lon="7.20343">
        <ele>969.6</ele>
        <time>2021-08-05T07:03:51Z</time>
      </trkpt>
      <trkpt lat="48.20019" lon="7.20341">
        <ele>969.7</ele>
        <time>2021-08-05T07:03:52Z</time>
      </trkpt>
      <trkpt lat="48.20019" lon="7.20339">
        <ele>969.8</ele>
        <time>2021-08-05T07:03:53Z</time>
      </trkpt>
      <trkpt lat="48.20021" lon="7.20335">
        <ele>970.1</ele>
        <time>2021-08-05T07:03:55Z</time>
      </trkpt>
      <trkpt lat="48.20022" lon="7.20333">
        <ele>970.2</ele>
        <time>2021-08-05T07:03:56Z</time>
      </trkpt>
      <trkpt lat="48.20026" lon="7.20329">
        <ele>970.5</ele>
        <time>2021-08-05T07:03:57Z</time>
      </trkpt>
      <trkpt lat="48.20027" lon="7.20328">
        <ele>970.6</ele>
        <time>2021-08-05T07:03:58Z</time>
      </trkpt>
      <trkpt lat="48.2003" lon="7.20325">
        <ele>971</ele>
        <time>2021-08-05T07:03:59Z</time>
      </trkpt>
      <trkpt lat="48.20031" lon="7.20324">
        <ele>971.1</ele>
        <time>2021-08-05T07:04:00Z</time>
      </trkpt>
      <trkpt lat="48.20032" lon="7.20322">
        <ele>971.2</ele>
        <time>2021-08-05T07:04:01Z</time>
      </trkpt>
      <trkpt lat="48.20034" lon="7.20319">
        <ele>971.4</ele>
        <time>2021-08-05T07:04:03Z</time>
      </trkpt>
      <trkpt lat="48.20035" lon="7.20317">
        <ele>971.6</ele>
        <time>2021-08-05T07:04:05Z</time>
      </trkpt>
      <trkpt lat="48.20035" lon="7.20316">
        <ele>971.6</ele>
        <time>2021-08-05T07:04:06Z</time>
      </trkpt>
      <trkpt lat="48.20036" lon="7.20315">
        <ele>971.7</ele>
        <time>2021-08-05T07:04:08Z</time>
      </trkpt>
      <trkpt lat="48.20036" lon="7.20315">
        <ele>971.7</ele>
        <time>2021-08-05T07:04:09Z</time>
      </trkpt>
      <trkpt lat="48.20036" lon="7.20314">
        <ele>971.8</ele>
        <time>2021-08-05T07:04:10Z</time>
      </trkpt>
      <trkpt lat="48.20037" lon="7.20313">
        <ele>971.9</ele>
        <time>2021-08-05T07:04:11Z</time>
      </trkpt>
      <trkpt lat="48.20037" lon="7.20313">
        <ele>971.9</ele>
        <time>2021-08-05T07:04:12Z</time>
      </trkpt>
      <trkpt lat="48.20037" lon="7.20313">
        <ele>971.9</ele>
        <time>2021-08-05T07:04:14Z</time>
      </trkpt>
      <trkpt lat="48.20038" lon="7.20312">
        <ele>972</ele>
        <time>2021-08-05T07:04:15Z</time>
      </trkpt>
      <trkpt lat="48.20038" lon="7.20313">
        <ele>972</ele>
        <time>2021-08-05T07:04:16Z</time>
      </trkpt>
      <trkpt lat="48.20039" lon="7.20312">
        <ele>972.1</ele>
        <time>2021-08-05T07:04:17Z</time>
      </trkpt>
      <trkpt lat="48.20038" lon="7.20313">
        <ele>972.1</ele>
        <time>2021-08-05T07:04:19Z</time>
      </trkpt>
      <trkpt lat="48.20038" lon="7.20313">
        <ele>972.2</ele>
        <time>2021-08-05T07:04:20Z</time>
      </trkpt>
      <trkpt lat="48.20038" lon="7.20313">
        <ele>972.2</ele>
        <time>2021-08-05T07:04:21Z</time>
      </trkpt>
      <trkpt lat="48.20038" lon="7.20313">
        <ele>972.2</ele>
        <time>2021-08-05T07:04:22Z</time>
      </trkpt>
      <trkpt lat="48.20038" lon="7.20312">
        <ele>972.3</ele>
        <time>2021-08-05T07:04:24Z</time>
      </trkpt>
      <trkpt lat="48.20038" lon="7.2031">
        <ele>972.4</ele>
        <time>2021-08-05T07:04:25Z</time>
      </trkpt>
      <trkpt lat="48.20038" lon="7.20309">
        <ele>972.4</ele>
        <time>2021-08-05T07:04:26Z</time>
      </trkpt>
      <trkpt lat="48.20038" lon="7.20307">
        <ele>972.6</ele>
        <time>2021-08-05T07:04:27Z</time>
      </trkpt>
      <trkpt lat="48.20052" lon="7.20252">
        <ele>976.1</ele>
        <time>2021-08-05T07:05:12Z</time>
      </trkpt>
      <trkpt lat="48.20051" lon="7.20246">
        <ele>976.4</ele>
        <time>2021-08-05T07:05:13Z</time>
      </trkpt>
      <trkpt lat="48.20049" lon="7.20239">
        <ele>976.9</ele>
        <time>2021-08-05T07:05:14Z</time>
      </trkpt>
      <trkpt lat="48.20047" lon="7.20234">
        <ele>977.2</ele>
        <time>2021-08-05T07:05:15Z</time>
      </trkpt>
      <trkpt lat="48.20047" lon="7.20231">
        <ele>977.4</ele>
        <time>2021-08-05T07:05:16Z</time>
      </trkpt>
      <trkpt lat="48.20046" lon="7.20226">
        <ele>977.7</ele>
        <time>2021-08-05T07:05:18Z</time>
      </trkpt>
      <trkpt lat="48.20045" lon="7.20223">
        <ele>977.9</ele>
        <time>2021-08-05T07:05:19Z</time>
      </trkpt>
      <trkpt lat="48.20045" lon="7.2022">
        <ele>978.1</ele>
        <time>2021-08-05T07:05:21Z</time>
      </trkpt>
      <trkpt lat="48.20044" lon="7.20218">
        <ele>978.2</ele>
        <time>2021-08-05T07:05:22Z</time>
      </trkpt>
      <trkpt lat="48.20045" lon="7.20216">
        <ele>978.4</ele>
        <time>2021-08-05T07:05:23Z</time>
      </trkpt>
      <trkpt lat="48.20046" lon="7.20211">
        <ele>978.6</ele>
        <time>2021-08-05T07:05:25Z</time>
      </trkpt>
      <trkpt lat="48.20046" lon="7.2021">
        <ele>978.7</ele>
        <time>2021-08-05T07:05:26Z</time>
      </trkpt>
      <trkpt lat="48.20047" lon="7.20209">
        <ele>978.9</ele>
        <time>2021-08-05T07:05:27Z</time>
      </trkpt>
      <trkpt lat="48.20049" lon="7.20206">
        <ele>979</ele>
        <time>2021-08-05T07:05:29Z</time>
      </trkpt>
      <trkpt lat="48.2005" lon="7.20203">
        <ele>979.3</ele>
        <time>2021-08-05T07:05:30Z</time>
      </trkpt>
      <trkpt lat="48.2005" lon="7.20202">
        <ele>979.3</ele>
        <time>2021-08-05T07:05:31Z</time>
      </trkpt>
      <trkpt lat="48.20051" lon="7.20197">
        <ele>979.6</ele>
        <time>2021-08-05T07:05:33Z</time>
      </trkpt>
      <trkpt lat="48.20051" lon="7.20196">
        <ele>979.7</ele>
        <time>2021-08-05T07:05:34Z</time>
      </trkpt>
      <trkpt lat="48.20052" lon="7.20192">
        <ele>980</ele>
        <time>2021-08-05T07:05:35Z</time>
      </trkpt>
      <trkpt lat="48.20053" lon="7.20187">
        <ele>980.2</ele>
        <time>2021-08-05T07:05:37Z</time>
      </trkpt>
      <trkpt lat="48.20053" lon="7.20185">
        <ele>980.3</ele>
        <time>2021-08-05T07:05:38Z</time>
      </trkpt>
      <trkpt lat="48.20054" lon="7.20181">
        <ele>980.6</ele>
        <time>2021-08-05T07:05:39Z</time>
      </trkpt>
      <trkpt lat="48.20055" lon="7.20179">
        <ele>980.7</ele>
        <time>2021-08-05T07:05:40Z</time>
      </trkpt>
      <trkpt lat="48.20055" lon="7.20176">
        <ele>980.9</ele>
        <time>2021-08-05T07:05:41Z</time>
      </trkpt>
      <trkpt lat="48.20056" lon="7.2017">
        <ele>981.2</ele>
        <time>2021-08-05T07:05:43Z</time>
      </trkpt>
      <trkpt lat="48.20057" lon="7.20164">
        <ele>981.4</ele>
        <time>2021-08-05T07:05:44Z</time>
      </trkpt>
      <trkpt lat="48.20057" lon="7.20162">
        <ele>981.6</ele>
        <time>2021-08-05T07:05:45Z</time>
      </trkpt>
      <trkpt lat="48.20056" lon="7.20157">
        <ele>981.8</ele>
        <time>2021-08-05T07:05:47Z</time>
      </trkpt>
      <trkpt lat="48.20056" lon="7.20155">
        <ele>981.9</ele>
        <time>2021-08-05T07:05:48Z</time>
      </trkpt>
      <trkpt lat="48.20055" lon="7.2015">
        <ele>982.2</ele>
        <time>2021-08-05T07:05:50Z</time>
      </trkpt>
      <trkpt lat="48.20054" lon="7.20149">
        <ele>982.3</ele>
        <time>2021-08-05T07:05:51Z</time>
      </trkpt>
      <trkpt lat="48.20053" lon="7.20147">
        <ele>982.4</ele>
        <time>2021-08-05T07:05:52Z</time>
      </trkpt>
      <trkpt lat="48.20051" lon="7.20144">
        <ele>982.6</ele>
        <time>2021-08-05T07:05:54Z</time>
      </trkpt>
      <trkpt lat="48.20049" lon="7.20141">
        <ele>982.8</ele>
        <time>2021-08-05T07:05:55Z</time>
      </trkpt>
      <trkpt lat="48.20047" lon="7.20138">
        <ele>983.1</ele>
        <time>2021-08-05T07:05:57Z</time>
      </trkpt>
      <trkpt lat="48.20046" lon="7.20137">
        <ele>983.1</ele>
        <time>2021-08-05T07:05:58Z</time>
      </trkpt>
      <trkpt lat="48.20044" lon="7.20133">
        <ele>983.4</ele>
        <time>2021-08-05T07:05:59Z</time>
      </trkpt>
      <trkpt lat="48.20043" lon="7.20132">
        <ele>983.5</ele>
        <time>2021-08-05T07:06:00Z</time>
      </trkpt>
      <trkpt lat="48.20041" lon="7.20128">
        <ele>983.8</ele>
        <time>2021-08-05T07:06:02Z</time>
      </trkpt>
      <trkpt lat="48.2004" lon="7.20127">
        <ele>983.9</ele>
        <time>2021-08-05T07:06:03Z</time>
      </trkpt>
      <trkpt lat="48.20039" lon="7.20124">
        <ele>984</ele>
        <time>2021-08-05T07:06:04Z</time>
      </trkpt>
      <trkpt lat="48.20038" lon="7.2012">
        <ele>984.3</ele>
        <time>2021-08-05T07:06:06Z</time>
      </trkpt>
      <trkpt lat="48.20037" lon="7.20114">
        <ele>984.6</ele>
        <time>2021-08-05T07:06:08Z</time>
      </trkpt>
      <trkpt lat="48.20036" lon="7.20112">
        <ele>984.7</ele>
        <time>2021-08-05T07:06:09Z</time>
      </trkpt>
      <trkpt lat="48.20036" lon="7.20111">
        <ele>984.8</ele>
        <time>2021-08-05T07:06:10Z</time>
      </trkpt>
      <trkpt lat="48.20034" lon="7.20106">
        <ele>985.1</ele>
        <time>2021-08-05T07:06:12Z</time>
      </trkpt>
      <trkpt lat="48.20034" lon="7.20106">
        <ele>985.1</ele>
        <time>2021-08-05T07:06:13Z</time>
      </trkpt>
      <trkpt lat="48.20033" lon="7.20103">
        <ele>985.3</ele>
        <time>2021-08-05T07:06:14Z</time>
      </trkpt>
      <trkpt lat="48.20032" lon="7.201">
        <ele>985.4</ele>
        <time>2021-08-05T07:06:16Z</time>
      </trkpt>
      <trkpt lat="48.20031" lon="7.20098">
        <ele>985.6</ele>
        <time>2021-08-05T07:06:17Z</time>
      </trkpt>
      <trkpt lat="48.2003" lon="7.20096">
        <ele>985.7</ele>
        <time>2021-08-05T07:06:18Z</time>
      </trkpt>
      <trkpt lat="48.2003" lon="7.20093">
        <ele>985.8</ele>
        <time>2021-08-05T07:06:19Z</time>
      </trkpt>
      <trkpt lat="48.2003" lon="7.20091">
        <ele>985.9</ele>
        <time>2021-08-05T07:06:21Z</time>
      </trkpt>
      <trkpt lat="48.2003" lon="7.20089">
        <ele>986</ele>
        <time>2021-08-05T07:06:22Z</time>
      </trkpt>
      <trkpt lat="48.20029" lon="7.20086">
        <ele>986.1</ele>
        <time>2021-08-05T07:06:23Z</time>
      </trkpt>
      <trkpt lat="48.20029" lon="7.20084">
        <ele>986.2</ele>
        <time>2021-08-05T07:06:24Z</time>
      </trkpt>
      <trkpt lat="48.20028" lon="7.2008">
        <ele>986.4</ele>
        <time>2021-08-05T07:06:26Z</time>
      </trkpt>
      <trkpt lat="48.20027" lon="7.20078">
        <ele>986.5</ele>
        <time>2021-08-05T07:06:27Z</time>
      </trkpt>
      <trkpt lat="48.20026" lon="7.20074">
        <ele>986.7</ele>
        <time>2021-08-05T07:06:29Z</time>
      </trkpt>
      <trkpt lat="48.20026" lon="7.20071">
        <ele>986.9</ele>
        <time>2021-08-05T07:06:30Z</time>
      </trkpt>
      <trkpt lat="48.20025" lon="7.2007">
        <ele>986.9</ele>
        <time>2021-08-05T07:06:31Z</time>
      </trkpt>
      <trkpt lat="48.20025" lon="7.20069">
        <ele>987</ele>
        <time>2021-08-05T07:06:32Z</time>
      </trkpt>
      <trkpt lat="48.20025" lon="7.20067">
        <ele>987</ele>
        <time>2021-08-05T07:06:33Z</time>
      </trkpt>
      <trkpt lat="48.20025" lon="7.20066">
        <ele>987.1</ele>
        <time>2021-08-05T07:06:34Z</time>
      </trkpt>
      <trkpt lat="48.20024" lon="7.20066">
        <ele>987.1</ele>
        <time>2021-08-05T07:06:35Z</time>
      </trkpt>
      <trkpt lat="48.20024" lon="7.20065">
        <ele>987.2</ele>
        <time>2021-08-05T07:06:36Z</time>
      </trkpt>
      <trkpt lat="48.20024" lon="7.20063">
        <ele>987.3</ele>
        <time>2021-08-05T07:06:37Z</time>
      </trkpt>
      <trkpt lat="48.20023" lon="7.20059">
        <ele>987.5</ele>
        <time>2021-08-05T07:06:39Z</time>
      </trkpt>
      <trkpt lat="48.20023" lon="7.20056">
        <ele>987.6</ele>
        <time>2021-08-05T07:06:40Z</time>
      </trkpt>
      <trkpt lat="48.20023" lon="7.20053">
        <ele>987.7</ele>
        <time>2021-08-05T07:06:42Z</time>
      </trkpt>
      <trkpt lat="48.20023" lon="7.20048">
        <ele>987.9</ele>
        <time>2021-08-05T07:06:43Z</time>
      </trkpt>
      <trkpt lat="48.20023" lon="7.20047">
        <ele>988</ele>
        <time>2021-08-05T07:06:44Z</time>
      </trkpt>
      <trkpt lat="48.20023" lon="7.20045">
        <ele>988.1</ele>
        <time>2021-08-05T07:06:45Z</time>
      </trkpt>
      <trkpt lat="48.20023" lon="7.20042">
        <ele>988.2</ele>
        <time>2021-08-05T07:06:47Z</time>
      </trkpt>
      <trkpt lat="48.20023" lon="7.2004">
        <ele>988.3</ele>
        <time>2021-08-05T07:06:48Z</time>
      </trkpt>
      <trkpt lat="48.20023" lon="7.20037">
        <ele>988.4</ele>
        <time>2021-08-05T07:06:49Z</time>
      </trkpt>
      <trkpt lat="48.20024" lon="7.20036">
        <ele>988.5</ele>
        <time>2021-08-05T07:06:50Z</time>
      </trkpt>
      <trkpt lat="48.20026" lon="7.20033">
        <ele>988.7</ele>
        <time>2021-08-05T07:06:52Z</time>
      </trkpt>
      <trkpt lat="48.20029" lon="7.20029">
        <ele>988.9</ele>
        <time>2021-08-05T07:06:53Z</time>
      </trkpt>
      <trkpt lat="48.2003" lon="7.20027">
        <ele>989</ele>
        <time>2021-08-05T07:06:54Z</time>
      </trkpt>
      <trkpt lat="48.20031" lon="7.20026">
        <ele>989.1</ele>
        <time>2021-08-05T07:06:55Z</time>
      </trkpt>
      <trkpt lat="48.20032" lon="7.20024">
        <ele>989.2</ele>
        <time>2021-08-05T07:06:56Z</time>
      </trkpt>
      <trkpt lat="48.20034" lon="7.20019">
        <ele>989.4</ele>
        <time>2021-08-05T07:06:58Z</time>
      </trkpt>
      <trkpt lat="48.20037" lon="7.20014">
        <ele>989.7</ele>
        <time>2021-08-05T07:07:00Z</time>
      </trkpt>
      <trkpt lat="48.20038" lon="7.20013">
        <ele>989.8</ele>
        <time>2021-08-05T07:07:02Z</time>
      </trkpt>
      <trkpt lat="48.20039" lon="7.20011">
        <ele>989.9</ele>
        <time>2021-08-05T07:07:03Z</time>
      </trkpt>
      <trkpt lat="48.2004" lon="7.20009">
        <ele>990</ele>
        <time>2021-08-05T07:07:04Z</time>
      </trkpt>
      <trkpt lat="48.20041" lon="7.20007">
        <ele>990.1</ele>
        <time>2021-08-05T07:07:05Z</time>
      </trkpt>
      <trkpt lat="48.20042" lon="7.20003">
        <ele>990.3</ele>
        <time>2021-08-05T07:07:06Z</time>
      </trkpt>
      <trkpt lat="48.20043" lon="7.20001">
        <ele>990.3</ele>
        <time>2021-08-05T07:07:07Z</time>
      </trkpt>
      <trkpt lat="48.20044" lon="7.2">
        <ele>990.4</ele>
        <time>2021-08-05T07:07:08Z</time>
      </trkpt>
      <trkpt lat="48.20045" lon="7.19997">
        <ele>990.6</ele>
        <time>2021-08-05T07:07:10Z</time>
      </trkpt>
      <trkpt lat="48.20046" lon="7.19995">
        <ele>990.7</ele>
        <time>2021-08-05T07:07:11Z</time>
      </trkpt>
      <trkpt lat="48.20047" lon="7.19993">
        <ele>990.7</ele>
        <time>2021-08-05T07:07:12Z</time>
      </trkpt>
      <trkpt lat="48.20047" lon="7.19992">
        <ele>990.8</ele>
        <time>2021-08-05T07:07:13Z</time>
      </trkpt>
      <trkpt lat="48.20048" lon="7.1999">
        <ele>990.9</ele>
        <time>2021-08-05T07:07:14Z</time>
      </trkpt>
      <trkpt lat="48.20049" lon="7.19987">
        <ele>991</ele>
        <time>2021-08-05T07:07:16Z</time>
      </trkpt>
      <trkpt lat="48.2005" lon="7.19983">
        <ele>991.2</ele>
        <time>2021-08-05T07:07:17Z</time>
      </trkpt>
      <trkpt lat="48.20051" lon="7.19982">
        <ele>991.3</ele>
        <time>2021-08-05T07:07:18Z</time>
      </trkpt>
      <trkpt lat="48.20051" lon="7.1998">
        <ele>991.3</ele>
        <time>2021-08-05T07:07:19Z</time>
      </trkpt>
      <trkpt lat="48.20052" lon="7.19976">
        <ele>991.5</ele>
        <time>2021-08-05T07:07:21Z</time>
      </trkpt>
      <trkpt lat="48.20053" lon="7.19974">
        <ele>991.6</ele>
        <time>2021-08-05T07:07:22Z</time>
      </trkpt>
      <trkpt lat="48.20055" lon="7.19969">
        <ele>991.8</ele>
        <time>2021-08-05T07:07:24Z</time>
      </trkpt>
      <trkpt lat="48.20055" lon="7.19968">
        <ele>991.9</ele>
        <time>2021-08-05T07:07:25Z</time>
      </trkpt>
      <trkpt lat="48.20057" lon="7.19966">
        <ele>992</ele>
        <time>2021-08-05T07:07:26Z</time>
      </trkpt>
      <trkpt lat="48.2006" lon="7.19963">
        <ele>992.2</ele>
        <time>2021-08-05T07:07:28Z</time>
      </trkpt>
      <trkpt lat="48.2006" lon="7.19962">
        <ele>992.3</ele>
        <time>2021-08-05T07:07:29Z</time>
      </trkpt>
      <trkpt lat="48.20061" lon="7.19962">
        <ele>992.3</ele>
        <time>2021-08-05T07:07:30Z</time>
      </trkpt>
      <trkpt lat="48.20063" lon="7.19962">
        <ele>992.4</ele>
        <time>2021-08-05T07:07:31Z</time>
      </trkpt>
      <trkpt lat="48.20063" lon="7.19962">
        <ele>992.5</ele>
        <time>2021-08-05T07:07:32Z</time>
      </trkpt>
      <trkpt lat="48.20066" lon="7.19958">
        <ele>992.7</ele>
        <time>2021-08-05T07:07:34Z</time>
      </trkpt>
      <trkpt lat="48.20067" lon="7.19957">
        <ele>992.8</ele>
        <time>2021-08-05T07:07:35Z</time>
      </trkpt>
      <trkpt lat="48.20067" lon="7.19956">
        <ele>992.8</ele>
        <time>2021-08-05T07:07:36Z</time>
      </trkpt>
      <trkpt lat="48.20068" lon="7.19954">
        <ele>992.9</ele>
        <time>2021-08-05T07:07:37Z</time>
      </trkpt>
      <trkpt lat="48.20069" lon="7.19953">
        <ele>993</ele>
        <time>2021-08-05T07:07:38Z</time>
      </trkpt>
      <trkpt lat="48.20069" lon="7.19951">
        <ele>993.1</ele>
        <time>2021-08-05T07:07:39Z</time>
      </trkpt>
      <trkpt lat="48.2007" lon="7.1995">
        <ele>993.1</ele>
        <time>2021-08-05T07:07:40Z</time>
      </trkpt>
      <trkpt lat="48.2007" lon="7.19948">
        <ele>993.2</ele>
        <time>2021-08-05T07:07:42Z</time>
      </trkpt>
      <trkpt lat="48.20071" lon="7.19946">
        <ele>993.3</ele>
        <time>2021-08-05T07:07:43Z</time>
      </trkpt>
      <trkpt lat="48.20072" lon="7.19945">
        <ele>993.4</ele>
        <time>2021-08-05T07:07:44Z</time>
      </trkpt>
      <trkpt lat="48.20115" lon="7.19895">
        <ele>996.6</ele>
        <time>2021-08-05T07:08:12Z</time>
      </trkpt>
      <trkpt lat="48.20116" lon="7.19891">
        <ele>996.8</ele>
        <time>2021-08-05T07:08:13Z</time>
      </trkpt>
      <trkpt lat="48.20118" lon="7.19886">
        <ele>997</ele>
        <time>2021-08-05T07:08:15Z</time>
      </trkpt>
      <trkpt lat="48.20119" lon="7.19882">
        <ele>997.1</ele>
        <time>2021-08-05T07:08:16Z</time>
      </trkpt>
      <trkpt lat="48.2012" lon="7.19877">
        <ele>997.3</ele>
        <time>2021-08-05T07:08:17Z</time>
      </trkpt>
      <trkpt lat="48.20121" lon="7.19871">
        <ele>997.6</ele>
        <time>2021-08-05T07:08:18Z</time>
      </trkpt>
      <trkpt lat="48.20122" lon="7.19869">
        <ele>997.7</ele>
        <time>2021-08-05T07:08:19Z</time>
      </trkpt>
      <trkpt lat="48.20124" lon="7.19865">
        <ele>997.9</ele>
        <time>2021-08-05T07:08:20Z</time>
      </trkpt>
      <trkpt lat="48.20127" lon="7.19861">
        <ele>998.1</ele>
        <time>2021-08-05T07:08:21Z</time>
      </trkpt>
      <trkpt lat="48.20128" lon="7.1986">
        <ele>998.2</ele>
        <time>2021-08-05T07:08:22Z</time>
      </trkpt>
      <trkpt lat="48.2013" lon="7.19857">
        <ele>998.3</ele>
        <time>2021-08-05T07:08:23Z</time>
      </trkpt>
      <trkpt lat="48.20136" lon="7.19853">
        <ele>998.7</ele>
        <time>2021-08-05T07:08:25Z</time>
      </trkpt>
      <trkpt lat="48.20138" lon="7.19851">
        <ele>998.8</ele>
        <time>2021-08-05T07:08:26Z</time>
      </trkpt>
      <trkpt lat="48.20142" lon="7.19849">
        <ele>999</ele>
        <time>2021-08-05T07:08:27Z</time>
      </trkpt>
      <trkpt lat="48.20146" lon="7.19845">
        <ele>999.2</ele>
        <time>2021-08-05T07:08:29Z</time>
      </trkpt>
      <trkpt lat="48.20147" lon="7.19844">
        <ele>999.3</ele>
        <time>2021-08-05T07:08:30Z</time>
      </trkpt>
      <trkpt lat="48.20148" lon="7.19843">
        <ele>999.4</ele>
        <time>2021-08-05T07:08:31Z</time>
      </trkpt>
      <trkpt lat="48.2015" lon="7.19841">
        <ele>999.5</ele>
        <time>2021-08-05T07:08:32Z</time>
      </trkpt>
      <trkpt lat="48.20151" lon="7.19839">
        <ele>999.6</ele>
        <time>2021-08-05T07:08:34Z</time>
      </trkpt>
      <trkpt lat="48.20154" lon="7.19835">
        <ele>999.8</ele>
        <time>2021-08-05T07:08:36Z</time>
      </trkpt>
      <trkpt lat="48.20156" lon="7.19834">
        <ele>999.8</ele>
        <time>2021-08-05T07:08:37Z</time>
      </trkpt>
      <trkpt lat="48.20156" lon="7.19833">
        <ele>999.9</ele>
        <time>2021-08-05T07:08:38Z</time>
      </trkpt>
      <trkpt lat="48.20158" lon="7.19832">
        <ele>1000</ele>
        <time>2021-08-05T07:08:40Z</time>
      </trkpt>
      <trkpt lat="48.2016" lon="7.19831">
        <ele>1000.1</ele>
        <time>2021-08-05T07:08:41Z</time>
      </trkpt>
      <trkpt lat="48.20161" lon="7.1983">
        <ele>1000.1</ele>
        <time>2021-08-05T07:08:42Z</time>
      </trkpt>
      <trkpt lat="48.20165" lon="7.19827">
        <ele>1000.3</ele>
        <time>2021-08-05T07:08:44Z</time>
      </trkpt>
      <trkpt lat="48.20168" lon="7.19824">
        <ele>1000.5</ele>
        <time>2021-08-05T07:08:45Z</time>
      </trkpt>
      <trkpt lat="48.20169" lon="7.19824">
        <ele>1000.5</ele>
        <time>2021-08-05T07:08:46Z</time>
      </trkpt>
      <trkpt lat="48.2017" lon="7.19821">
        <ele>1000.6</ele>
        <time>2021-08-05T07:08:47Z</time>
      </trkpt>
      <trkpt lat="48.2017" lon="7.19819">
        <ele>1000.7</ele>
        <time>2021-08-05T07:08:49Z</time>
      </trkpt>
      <trkpt lat="48.2017" lon="7.19818">
        <ele>1000.7</ele>
        <time>2021-08-05T07:08:50Z</time>
      </trkpt>
      <trkpt lat="48.2017" lon="7.19815">
        <ele>1000.8</ele>
        <time>2021-08-05T07:08:51Z</time>
      </trkpt>
      <trkpt lat="48.20171" lon="7.19812">
        <ele>1000.9</ele>
        <time>2021-08-05T07:08:53Z</time>
      </trkpt>
      <trkpt lat="48.20171" lon="7.19807">
        <ele>1001.1</ele>
        <time>2021-08-05T07:08:54Z</time>
      </trkpt>
      <trkpt lat="48.20171" lon="7.19804">
        <ele>1001.1</ele>
        <time>2021-08-05T07:08:55Z</time>
      </trkpt>
      <trkpt lat="48.20171" lon="7.19799">
        <ele>1001.3</ele>
        <time>2021-08-05T07:08:56Z</time>
      </trkpt>
      <trkpt lat="48.20171" lon="7.19795">
        <ele>1001.4</ele>
        <time>2021-08-05T07:08:57Z</time>
      </trkpt>
      <trkpt lat="48.2017" lon="7.19789">
        <ele>1001.6</ele>
        <time>2021-08-05T07:08:58Z</time>
      </trkpt>
      <trkpt lat="48.20169" lon="7.19782">
        <ele>1001.9</ele>
        <time>2021-08-05T07:09:00Z</time>
      </trkpt>
      <trkpt lat="48.20168" lon="7.19777">
        <ele>1002</ele>
        <time>2021-08-05T07:09:01Z</time>
      </trkpt>
      <trkpt lat="48.20168" lon="7.19776">
        <ele>1002.1</ele>
        <time>2021-08-05T07:09:02Z</time>
      </trkpt>
      <trkpt lat="48.20169" lon="7.19771">
        <ele>1002.2</ele>
        <time>2021-08-05T07:09:03Z</time>
      </trkpt>
      <trkpt lat="48.20169" lon="7.1977">
        <ele>1002.3</ele>
        <time>2021-08-05T07:09:04Z</time>
      </trkpt>
      <trkpt lat="48.2017" lon="7.19762">
        <ele>1002.5</ele>
        <time>2021-08-05T07:09:06Z</time>
      </trkpt>
      <trkpt lat="48.20171" lon="7.19759">
        <ele>1002.6</ele>
        <time>2021-08-05T07:09:07Z</time>
      </trkpt>
      <trkpt lat="48.20171" lon="7.19756">
        <ele>1002.7</ele>
        <time>2021-08-05T07:09:08Z</time>
      </trkpt>
      <trkpt lat="48.20172" lon="7.1975">
        <ele>1002.9</ele>
        <time>2021-08-05T07:09:10Z</time>
      </trkpt>
      <trkpt lat="48.20172" lon="7.19745">
        <ele>1003</ele>
        <time>2021-08-05T07:09:11Z</time>
      </trkpt>
      <trkpt lat="48.20173" lon="7.19739">
        <ele>1003.2</ele>
        <time>2021-08-05T07:09:12Z</time>
      </trkpt>
      <trkpt lat="48.20174" lon="7.19733">
        <ele>1003.4</ele>
        <time>2021-08-05T07:09:13Z</time>
      </trkpt>
      <trkpt lat="48.20175" lon="7.19728">
        <ele>1003.5</ele>
        <time>2021-08-05T07:09:14Z</time>
      </trkpt>
      <trkpt lat="48.20175" lon="7.19723">
        <ele>1003.7</ele>
        <time>2021-08-05T07:09:15Z</time>
      </trkpt>
      <trkpt lat="48.20175" lon="7.19719">
        <ele>1003.8</ele>
        <time>2021-08-05T07:09:16Z</time>
      </trkpt>
      <trkpt lat="48.20175" lon="7.1971">
        <ele>1004.1</ele>
        <time>2021-08-05T07:09:18Z</time>
      </trkpt>
      <trkpt lat="48.20174" lon="7.19704">
        <ele>1004.3</ele>
        <time>2021-08-05T07:09:19Z</time>
      </trkpt>
      <trkpt lat="48.20174" lon="7.197">
        <ele>1004.4</ele>
        <time>2021-08-05T07:09:20Z</time>
      </trkpt>
      <trkpt lat="48.20174" lon="7.19692">
        <ele>1004.7</ele>
        <time>2021-08-05T07:09:22Z</time>
      </trkpt>
      <trkpt lat="48.20174" lon="7.19687">
        <ele>1004.9</ele>
        <time>2021-08-05T07:09:23Z</time>
      </trkpt>
      <trkpt lat="48.20173" lon="7.19684">
        <ele>1004.9</ele>
        <time>2021-08-05T07:09:24Z</time>
      </trkpt>
      <trkpt lat="48.20173" lon="7.19682">
        <ele>1005</ele>
        <time>2021-08-05T07:09:25Z</time>
      </trkpt>
      <trkpt lat="48.20175" lon="7.19625">
        <ele>1006.8</ele>
        <time>2021-08-05T07:09:41Z</time>
      </trkpt>
      <trkpt lat="48.20174" lon="7.19618">
        <ele>1007</ele>
        <time>2021-08-05T07:09:43Z</time>
      </trkpt>
      <trkpt lat="48.20173" lon="7.19612">
        <ele>1007.1</ele>
        <time>2021-08-05T07:09:44Z</time>
      </trkpt>
      <trkpt lat="48.20171" lon="7.19602">
        <ele>1007.4</ele>
        <time>2021-08-05T07:09:46Z</time>
      </trkpt>
      <trkpt lat="48.2017" lon="7.19593">
        <ele>1007.6</ele>
        <time>2021-08-05T07:09:47Z</time>
      </trkpt>
      <trkpt lat="48.2017" lon="7.19589">
        <ele>1007.7</ele>
        <time>2021-08-05T07:09:49Z</time>
      </trkpt>
      <trkpt lat="48.2017" lon="7.19587">
        <ele>1007.8</ele>
        <time>2021-08-05T07:09:50Z</time>
      </trkpt>
      <trkpt lat="48.2017" lon="7.19584">
        <ele>1007.8</ele>
        <time>2021-08-05T07:09:51Z</time>
      </trkpt>
      <trkpt lat="48.2017" lon="7.19583">
        <ele>1007.9</ele>
        <time>2021-08-05T07:09:52Z</time>
      </trkpt>
      <trkpt lat="48.2017" lon="7.19581">
        <ele>1007.9</ele>
        <time>2021-08-05T07:09:54Z</time>
      </trkpt>
      <trkpt lat="48.20085" lon="7.19463">
        <ele>1013.1</ele>
        <time>2021-08-05T07:10:59Z</time>
      </trkpt>
      <trkpt lat="48.2008" lon="7.19461">
        <ele>1013.3</ele>
        <time>2021-08-05T07:11:00Z</time>
      </trkpt>
      <trkpt lat="48.20079" lon="7.19461">
        <ele>1013.4</ele>
        <time>2021-08-05T07:11:01Z</time>
      </trkpt>
      <trkpt lat="48.20077" lon="7.19461">
        <ele>1013.5</ele>
        <time>2021-08-05T07:11:02Z</time>
      </trkpt>
      <trkpt lat="48.20076" lon="7.19461">
        <ele>1013.5</ele>
        <time>2021-08-05T07:11:03Z</time>
      </trkpt>
      <trkpt lat="48.20073" lon="7.1946">
        <ele>1013.7</ele>
        <time>2021-08-05T07:11:06Z</time>
      </trkpt>
      <trkpt lat="48.20072" lon="7.19461">
        <ele>1013.7</ele>
        <time>2021-08-05T07:11:07Z</time>
      </trkpt>
      <trkpt lat="48.20069" lon="7.19461">
        <ele>1013.9</ele>
        <time>2021-08-05T07:11:08Z</time>
      </trkpt>
      <trkpt lat="48.20067" lon="7.19461">
        <ele>1014</ele>
        <time>2021-08-05T07:11:09Z</time>
      </trkpt>
      <trkpt lat="48.20063" lon="7.19461">
        <ele>1014.1</ele>
        <time>2021-08-05T07:11:11Z</time>
      </trkpt>
      <trkpt lat="48.20014" lon="7.19429">
        <ele>1016.6</ele>
        <time>2021-08-05T07:11:40Z</time>
      </trkpt>
      <trkpt lat="48.20013" lon="7.19423">
        <ele>1016.8</ele>
        <time>2021-08-05T07:11:41Z</time>
      </trkpt>
      <trkpt lat="48.20012" lon="7.19418">
        <ele>1017</ele>
        <time>2021-08-05T07:11:42Z</time>
      </trkpt>
      <trkpt lat="48.20011" lon="7.19411">
        <ele>1017.2</ele>
        <time>2021-08-05T07:11:43Z</time>
      </trkpt>
      <trkpt lat="48.20011" lon="7.19405">
        <ele>1017.4</ele>
        <time>2021-08-05T07:11:44Z</time>
      </trkpt>
      <trkpt lat="48.2001" lon="7.19399">
        <ele>1017.6</ele>
        <time>2021-08-05T07:11:45Z</time>
      </trkpt>
      <trkpt lat="48.2001" lon="7.19393">
        <ele>1017.8</ele>
        <time>2021-08-05T07:11:47Z</time>
      </trkpt>
      <trkpt lat="48.2001" lon="7.19388">
        <ele>1017.9</ele>
        <time>2021-08-05T07:11:48Z</time>
      </trkpt>
      <trkpt lat="48.2001" lon="7.19384">
        <ele>1018.1</ele>
        <time>2021-08-05T07:11:49Z</time>
      </trkpt>
      <trkpt lat="48.20009" lon="7.19378">
        <ele>1018.2</ele>
        <time>2021-08-05T07:11:50Z</time>
      </trkpt>
      <trkpt lat="48.2001" lon="7.19374">
        <ele>1018.4</ele>
        <time>2021-08-05T07:11:51Z</time>
      </trkpt>
      <trkpt lat="48.20009" lon="7.19369">
        <ele>1018.5</ele>
        <time>2021-08-05T07:11:52Z</time>
      </trkpt>
      <trkpt lat="48.20009" lon="7.19364">
        <ele>1018.7</ele>
        <time>2021-08-05T07:11:54Z</time>
      </trkpt>
      <trkpt lat="48.20008" lon="7.19362">
        <ele>1018.7</ele>
        <time>2021-08-05T07:11:55Z</time>
      </trkpt>
      <trkpt lat="48.20009" lon="7.19359">
        <ele>1018.9</ele>
        <time>2021-08-05T07:11:56Z</time>
      </trkpt>
      <trkpt lat="48.20008" lon="7.19354">
        <ele>1019</ele>
        <time>2021-08-05T07:11:58Z</time>
      </trkpt>
      <trkpt lat="48.20007" lon="7.19349">
        <ele>1019.2</ele>
        <time>2021-08-05T07:11:59Z</time>
      </trkpt>
      <trkpt lat="48.20007" lon="7.19348">
        <ele>1019.2</ele>
        <time>2021-08-05T07:12:00Z</time>
      </trkpt>
      <trkpt lat="48.20006" lon="7.19345">
        <ele>1019.3</ele>
        <time>2021-08-05T07:12:01Z</time>
      </trkpt>
      <trkpt lat="48.20005" lon="7.19343">
        <ele>1019.4</ele>
        <time>2021-08-05T07:12:02Z</time>
      </trkpt>
      <trkpt lat="48.20003" lon="7.1934">
        <ele>1019.5</ele>
        <time>2021-08-05T07:12:04Z</time>
      </trkpt>
      <trkpt lat="48.20001" lon="7.19338">
        <ele>1019.6</ele>
        <time>2021-08-05T07:12:05Z</time>
      </trkpt>
      <trkpt lat="48.19998" lon="7.19334">
        <ele>1019.9</ele>
        <time>2021-08-05T07:12:07Z</time>
      </trkpt>
      <trkpt lat="48.19996" lon="7.19329">
        <ele>1020</ele>
        <time>2021-08-05T07:12:08Z</time>
      </trkpt>
      <trkpt lat="48.19995" lon="7.19328">
        <ele>1020</ele>
        <time>2021-08-05T07:12:09Z</time>
      </trkpt>
      <trkpt lat="48.19994" lon="7.19324">
        <ele>1020.2</ele>
        <time>2021-08-05T07:12:11Z</time>
      </trkpt>
      <trkpt lat="48.19992" lon="7.1932">
        <ele>1020</ele>
        <time>2021-08-05T07:12:12Z</time>
      </trkpt>
      <trkpt lat="48.19991" lon="7.19318">
        <ele>1020</ele>
        <time>2021-08-05T07:12:13Z</time>
      </trkpt>
      <trkpt lat="48.19989" lon="7.19314">
        <ele>1019.8</ele>
        <time>2021-08-05T07:12:15Z</time>
      </trkpt>
      <trkpt lat="48.19989" lon="7.19312">
        <ele>1019.7</ele>
        <time>2021-08-05T07:12:16Z</time>
      </trkpt>
      <trkpt lat="48.19988" lon="7.1931">
        <ele>1019.6</ele>
        <time>2021-08-05T07:12:17Z</time>
      </trkpt>
      <trkpt lat="48.19987" lon="7.19303">
        <ele>1019.3</ele>
        <time>2021-08-05T07:12:19Z</time>
      </trkpt>
      <trkpt lat="48.19988" lon="7.193">
        <ele>1019.2</ele>
        <time>2021-08-05T07:12:21Z</time>
      </trkpt>
      <trkpt lat="48.19988" lon="7.19298">
        <ele>1019.1</ele>
        <time>2021-08-05T07:12:22Z</time>
      </trkpt>
      <trkpt lat="48.19989" lon="7.19296">
        <ele>1019</ele>
        <time>2021-08-05T07:12:23Z</time>
      </trkpt>
      <trkpt lat="48.1999" lon="7.1929">
        <ele>1018.8</ele>
        <time>2021-08-05T07:12:25Z</time>
      </trkpt>
      <trkpt lat="48.19991" lon="7.19288">
        <ele>1018.7</ele>
        <time>2021-08-05T07:12:26Z</time>
      </trkpt>
      <trkpt lat="48.19991" lon="7.19286">
        <ele>1018.6</ele>
        <time>2021-08-05T07:12:27Z</time>
      </trkpt>
      <trkpt lat="48.19991" lon="7.1928">
        <ele>1018.4</ele>
        <time>2021-08-05T07:12:28Z</time>
      </trkpt>
      <trkpt lat="48.19991" lon="7.19278">
        <ele>1018.3</ele>
        <time>2021-08-05T07:12:29Z</time>
      </trkpt>
      <trkpt lat="48.1999" lon="7.19271">
        <ele>1018</ele>
        <time>2021-08-05T07:12:31Z</time>
      </trkpt>
      <trkpt lat="48.1999" lon="7.19269">
        <ele>1018</ele>
        <time>2021-08-05T07:12:32Z</time>
      </trkpt>
      <trkpt lat="48.19989" lon="7.19266">
        <ele>1017.8</ele>
        <time>2021-08-05T07:12:33Z</time>
      </trkpt>
      <trkpt lat="48.19989" lon="7.19263">
        <ele>1017.9</ele>
        <time>2021-08-05T07:12:34Z</time>
      </trkpt>
      <trkpt lat="48.19988" lon="7.19259">
        <ele>1018.2</ele>
        <time>2021-08-05T07:12:36Z</time>
      </trkpt>
      <trkpt lat="48.19987" lon="7.19255">
        <ele>1018.6</ele>
        <time>2021-08-05T07:12:37Z</time>
      </trkpt>
      <trkpt lat="48.19985" lon="7.19251">
        <ele>1019</ele>
        <time>2021-08-05T07:12:38Z</time>
      </trkpt>
      <trkpt lat="48.19985" lon="7.19249">
        <ele>1019.1</ele>
        <time>2021-08-05T07:12:39Z</time>
      </trkpt>
      <trkpt lat="48.19984" lon="7.19246">
        <ele>1019.4</ele>
        <time>2021-08-05T07:12:40Z</time>
      </trkpt>
      <trkpt lat="48.19983" lon="7.19243">
        <ele>1019.7</ele>
        <time>2021-08-05T07:12:42Z</time>
      </trkpt>
      <trkpt lat="48.19982" lon="7.19237">
        <ele>1020.2</ele>
        <time>2021-08-05T07:12:43Z</time>
      </trkpt>
      <trkpt lat="48.19981" lon="7.19236">
        <ele>1020.3</ele>
        <time>2021-08-05T07:12:44Z</time>
      </trkpt>
      <trkpt lat="48.1998" lon="7.19231">
        <ele>1020.7</ele>
        <time>2021-08-05T07:12:45Z</time>
      </trkpt>
      <trkpt lat="48.1998" lon="7.1923">
        <ele>1020.8</ele>
        <time>2021-08-05T07:12:46Z</time>
      </trkpt>
      <trkpt lat="48.1998" lon="7.19225">
        <ele>1021.2</ele>
        <time>2021-08-05T07:12:47Z</time>
      </trkpt>
      <trkpt lat="48.1998" lon="7.19224">
        <ele>1021.4</ele>
        <time>2021-08-05T07:12:48Z</time>
      </trkpt>
      <trkpt lat="48.19978" lon="7.19219">
        <ele>1021.8</ele>
        <time>2021-08-05T07:12:50Z</time>
      </trkpt>
      <trkpt lat="48.19977" lon="7.19218">
        <ele>1021.9</ele>
        <time>2021-08-05T07:12:51Z</time>
      </trkpt>
      <trkpt lat="48.19976" lon="7.19216">
        <ele>1022.2</ele>
        <time>2021-08-05T07:12:52Z</time>
      </trkpt>
      <trkpt lat="48.19975" lon="7.19213">
        <ele>1022.5</ele>
        <time>2021-08-05T07:12:54Z</time>
      </trkpt>
      <trkpt lat="48.19975" lon="7.19209">
        <ele>1022.8</ele>
        <time>2021-08-05T07:12:55Z</time>
      </trkpt>
      <trkpt lat="48.19974" lon="7.19205">
        <ele>1023.3</ele>
        <time>2021-08-05T07:12:57Z</time>
      </trkpt>
      <trkpt lat="48.19974" lon="7.192">
        <ele>1023.4</ele>
        <time>2021-08-05T07:12:58Z</time>
      </trkpt>
      <trkpt lat="48.19974" lon="7.19197">
        <ele>1023.4</ele>
        <time>2021-08-05T07:12:59Z</time>
      </trkpt>
      <trkpt lat="48.19974" lon="7.19193">
        <ele>1023.3</ele>
        <time>2021-08-05T07:13:01Z</time>
      </trkpt>
      <trkpt lat="48.19975" lon="7.19188">
        <ele>1023.2</ele>
        <time>2021-08-05T07:13:02Z</time>
      </trkpt>
      <trkpt lat="48.19975" lon="7.19187">
        <ele>1023.2</ele>
        <time>2021-08-05T07:13:03Z</time>
      </trkpt>
      <trkpt lat="48.19978" lon="7.19182">
        <ele>1023.1</ele>
        <time>2021-08-05T07:13:05Z</time>
      </trkpt>
      <trkpt lat="48.19978" lon="7.19181">
        <ele>1023.1</ele>
        <time>2021-08-05T07:13:06Z</time>
      </trkpt>
      <trkpt lat="48.19981" lon="7.19177">
        <ele>1023</ele>
        <time>2021-08-05T07:13:08Z</time>
      </trkpt>
      <trkpt lat="48.19981" lon="7.19176">
        <ele>1022.9</ele>
        <time>2021-08-05T07:13:09Z</time>
      </trkpt>
      <trkpt lat="48.19984" lon="7.19172">
        <ele>1022.8</ele>
        <time>2021-08-05T07:13:11Z</time>
      </trkpt>
      <trkpt lat="48.19985" lon="7.19171">
        <ele>1022.8</ele>
        <time>2021-08-05T07:13:12Z</time>
      </trkpt>
      <trkpt lat="48.19987" lon="7.19167">
        <ele>1022.7</ele>
        <time>2021-08-05T07:13:13Z</time>
      </trkpt>
      <trkpt lat="48.19988" lon="7.19166">
        <ele>1022.6</ele>
        <time>2021-08-05T07:13:14Z</time>
      </trkpt>
      <trkpt lat="48.1999" lon="7.19163">
        <ele>1022.5</ele>
        <time>2021-08-05T07:13:16Z</time>
      </trkpt>
      <trkpt lat="48.19991" lon="7.19162">
        <ele>1022.5</ele>
        <time>2021-08-05T07:13:17Z</time>
      </trkpt>
      <trkpt lat="48.19992" lon="7.1916">
        <ele>1022.4</ele>
        <time>2021-08-05T07:13:18Z</time>
      </trkpt>
      <trkpt lat="48.19993" lon="7.19157">
        <ele>1022.4</ele>
        <time>2021-08-05T07:13:19Z</time>
      </trkpt>
      <trkpt lat="48.19994" lon="7.19154">
        <ele>1022.3</ele>
        <time>2021-08-05T07:13:21Z</time>
      </trkpt>
      <trkpt lat="48.19996" lon="7.19151">
        <ele>1022.4</ele>
        <time>2021-08-05T07:13:23Z</time>
      </trkpt>
      <trkpt lat="48.19998" lon="7.19145">
        <ele>1022.4</ele>
        <time>2021-08-05T07:13:25Z</time>
      </trkpt>
      <trkpt lat="48.20001" lon="7.19141">
        <ele>1022.5</ele>
        <time>2021-08-05T07:13:27Z</time>
      </trkpt>
      <trkpt lat="48.20001" lon="7.1914">
        <ele>1022.5</ele>
        <time>2021-08-05T07:13:28Z</time>
      </trkpt>
      <trkpt lat="48.20004" lon="7.19138">
        <ele>1022.5</ele>
        <time>2021-08-05T07:13:29Z</time>
      </trkpt>
      <trkpt lat="48.20006" lon="7.19135">
        <ele>1022.6</ele>
        <time>2021-08-05T07:13:31Z</time>
      </trkpt>
      <trkpt lat="48.20009" lon="7.19132">
        <ele>1022.6</ele>
        <time>2021-08-05T07:13:32Z</time>
      </trkpt>
      <trkpt lat="48.20009" lon="7.19131">
        <ele>1022.6</ele>
        <time>2021-08-05T07:13:33Z</time>
      </trkpt>
      <trkpt lat="48.20011" lon="7.19127">
        <ele>1022.6</ele>
        <time>2021-08-05T07:13:35Z</time>
      </trkpt>
      <trkpt lat="48.20012" lon="7.19124">
        <ele>1022.7</ele>
        <time>2021-08-05T07:13:36Z</time>
      </trkpt>
      <trkpt lat="48.20014" lon="7.19121">
        <ele>1022.7</ele>
        <time>2021-08-05T07:13:38Z</time>
      </trkpt>
      <trkpt lat="48.20015" lon="7.19117">
        <ele>1022.7</ele>
        <time>2021-08-05T07:13:39Z</time>
      </trkpt>
      <trkpt lat="48.20016" lon="7.19116">
        <ele>1022.7</ele>
        <time>2021-08-05T07:13:40Z</time>
      </trkpt>
      <trkpt lat="48.20016" lon="7.19111">
        <ele>1022.8</ele>
        <time>2021-08-05T07:13:42Z</time>
      </trkpt>
      <trkpt lat="48.20016" lon="7.1911">
        <ele>1022.8</ele>
        <time>2021-08-05T07:13:43Z</time>
      </trkpt>
      <trkpt lat="48.20016" lon="7.19107">
        <ele>1022.8</ele>
        <time>2021-08-05T07:13:44Z</time>
      </trkpt>
      <trkpt lat="48.20016" lon="7.19103">
        <ele>1022.8</ele>
        <time>2021-08-05T07:13:46Z</time>
      </trkpt>
      <trkpt lat="48.20017" lon="7.19102">
        <ele>1022.8</ele>
        <time>2021-08-05T07:13:47Z</time>
      </trkpt>
      <trkpt lat="48.20018" lon="7.191">
        <ele>1022.9</ele>
        <time>2021-08-05T07:13:48Z</time>
      </trkpt>
      <trkpt lat="48.20019" lon="7.19098">
        <ele>1022.9</ele>
        <time>2021-08-05T07:13:49Z</time>
      </trkpt>
      <trkpt lat="48.2002" lon="7.19096">
        <ele>1022.9</ele>
        <time>2021-08-05T07:13:50Z</time>
      </trkpt>
      <trkpt lat="48.20022" lon="7.19093">
        <ele>1022.9</ele>
        <time>2021-08-05T07:13:52Z</time>
      </trkpt>
      <trkpt lat="48.20023" lon="7.19093">
        <ele>1023</ele>
        <time>2021-08-05T07:13:53Z</time>
      </trkpt>
      <trkpt lat="48.20025" lon="7.19092">
        <ele>1023</ele>
        <time>2021-08-05T07:13:55Z</time>
      </trkpt>
      <trkpt lat="48.20026" lon="7.19092">
        <ele>1023</ele>
        <time>2021-08-05T07:13:56Z</time>
      </trkpt>
      <trkpt lat="48.20027" lon="7.19092">
        <ele>1023</ele>
        <time>2021-08-05T07:13:58Z</time>
      </trkpt>
      <trkpt lat="48.20028" lon="7.19091">
        <ele>1023.1</ele>
        <time>2021-08-05T07:13:59Z</time>
      </trkpt>
      <trkpt lat="48.20029" lon="7.19091">
        <ele>1023.1</ele>
        <time>2021-08-05T07:14:00Z</time>
      </trkpt>
      <trkpt lat="48.20032" lon="7.19089">
        <ele>1023.1</ele>
        <time>2021-08-05T07:14:02Z</time>
      </trkpt>
      <trkpt lat="48.20033" lon="7.19089">
        <ele>1023.1</ele>
        <time>2021-08-05T07:14:03Z</time>
      </trkpt>
      <trkpt lat="48.20035" lon="7.19089">
        <ele>1023.2</ele>
        <time>2021-08-05T07:14:05Z</time>
      </trkpt>
      <trkpt lat="48.20036" lon="7.19091">
        <ele>1023.2</ele>
        <time>2021-08-05T07:14:07Z</time>
      </trkpt>
      <trkpt lat="48.20036" lon="7.19092">
        <ele>1023.2</ele>
        <time>2021-08-05T07:14:08Z</time>
      </trkpt>
      <trkpt lat="48.20037" lon="7.19093">
        <ele>1023.2</ele>
        <time>2021-08-05T07:14:10Z</time>
      </trkpt>
      <trkpt lat="48.20037" lon="7.19093">
        <ele>1023.2</ele>
        <time>2021-08-05T07:14:11Z</time>
      </trkpt>
      <trkpt lat="48.20037" lon="7.19094">
        <ele>1023.2</ele>
        <time>2021-08-05T07:14:13Z</time>
      </trkpt>
      <trkpt lat="48.20047" lon="7.19059">
        <ele>1023.7</ele>
        <time>2021-08-05T07:15:27Z</time>
      </trkpt>
      <trkpt lat="48.2005" lon="7.19057">
        <ele>1023.7</ele>
        <time>2021-08-05T07:15:29Z</time>
      </trkpt>
      <trkpt lat="48.20054" lon="7.19054">
        <ele>1023.8</ele>
        <time>2021-08-05T07:15:30Z</time>
      </trkpt>
      <trkpt lat="48.20057" lon="7.19051">
        <ele>1023.8</ele>
        <time>2021-08-05T07:15:31Z</time>
      </trkpt>
      <trkpt lat="48.20058" lon="7.1905">
        <ele>1023.8</ele>
        <time>2021-08-05T07:15:32Z</time>
      </trkpt>
      <trkpt lat="48.20063" lon="7.19048">
        <ele>1023.9</ele>
        <time>2021-08-05T07:15:34Z</time>
      </trkpt>
      <trkpt lat="48.20064" lon="7.19047">
        <ele>1023.9</ele>
        <time>2021-08-05T07:15:35Z</time>
      </trkpt>
      <trkpt lat="48.20065" lon="7.19047">
        <ele>1024</ele>
        <time>2021-08-05T07:15:36Z</time>
      </trkpt>
      <trkpt lat="48.20067" lon="7.19046">
        <ele>1024</ele>
        <time>2021-08-05T07:15:38Z</time>
      </trkpt>
      <trkpt lat="48.20071" lon="7.19044">
        <ele>1024.1</ele>
        <time>2021-08-05T07:15:40Z</time>
      </trkpt>
      <trkpt lat="48.20072" lon="7.19043">
        <ele>1024.1</ele>
        <time>2021-08-05T07:15:41Z</time>
      </trkpt>
      <trkpt lat="48.20073" lon="7.19041">
        <ele>1024.1</ele>
        <time>2021-08-05T07:15:42Z</time>
      </trkpt>
      <trkpt lat="48.20076" lon="7.19037">
        <ele>1024.2</ele>
        <time>2021-08-05T07:15:43Z</time>
      </trkpt>
      <trkpt lat="48.20076" lon="7.19036">
        <ele>1024.2</ele>
        <time>2021-08-05T07:15:44Z</time>
      </trkpt>
      <trkpt lat="48.20079" lon="7.19035">
        <ele>1024.2</ele>
        <time>2021-08-05T07:15:46Z</time>
      </trkpt>
      <trkpt lat="48.20082" lon="7.19033">
        <ele>1024.3</ele>
        <time>2021-08-05T07:15:47Z</time>
      </trkpt>
      <trkpt lat="48.20083" lon="7.19031">
        <ele>1024.3</ele>
        <time>2021-08-05T07:15:49Z</time>
      </trkpt>
      <trkpt lat="48.20083" lon="7.19029">
        <ele>1024.3</ele>
        <time>2021-08-05T07:15:50Z</time>
      </trkpt>
      <trkpt lat="48.20084" lon="7.19024">
        <ele>1024.3</ele>
        <time>2021-08-05T07:15:51Z</time>
      </trkpt>
      <trkpt lat="48.20085" lon="7.19022">
        <ele>1024.4</ele>
        <time>2021-08-05T07:15:52Z</time>
      </trkpt>
      <trkpt lat="48.20086" lon="7.1902">
        <ele>1024.4</ele>
        <time>2021-08-05T07:15:54Z</time>
      </trkpt>
      <trkpt lat="48.20086" lon="7.19018">
        <ele>1024.4</ele>
        <time>2021-08-05T07:15:55Z</time>
      </trkpt>
      <trkpt lat="48.20089" lon="7.19013">
        <ele>1024.5</ele>
        <time>2021-08-05T07:15:56Z</time>
      </trkpt>
      <trkpt lat="48.20092" lon="7.1901">
        <ele>1024.5</ele>
        <time>2021-08-05T07:15:58Z</time>
      </trkpt>
      <trkpt lat="48.20093" lon="7.19009">
        <ele>1024.5</ele>
        <time>2021-08-05T07:15:59Z</time>
      </trkpt>
      <trkpt lat="48.20095" lon="7.19007">
        <ele>1024.6</ele>
        <time>2021-08-05T07:16:00Z</time>
      </trkpt>
      <trkpt lat="48.20097" lon="7.19007">
        <ele>1024.6</ele>
        <time>2021-08-05T07:16:02Z</time>
      </trkpt>
      <trkpt lat="48.20099" lon="7.19006">
        <ele>1024.6</ele>
        <time>2021-08-05T07:16:03Z</time>
      </trkpt>
      <trkpt lat="48.201" lon="7.19005">
        <ele>1024.6</ele>
        <time>2021-08-05T07:16:04Z</time>
      </trkpt>
      <trkpt lat="48.20103" lon="7.19004">
        <ele>1024.7</ele>
        <time>2021-08-05T07:16:05Z</time>
      </trkpt>
      <trkpt lat="48.20104" lon="7.19003">
        <ele>1024.7</ele>
        <time>2021-08-05T07:16:06Z</time>
      </trkpt>
      <trkpt lat="48.20106" lon="7.18999">
        <ele>1024.7</ele>
        <time>2021-08-05T07:16:07Z</time>
      </trkpt>
      <trkpt lat="48.20106" lon="7.18998">
        <ele>1024.7</ele>
        <time>2021-08-05T07:16:08Z</time>
      </trkpt>
      <trkpt lat="48.20108" lon="7.18995">
        <ele>1024.8</ele>
        <time>2021-08-05T07:16:10Z</time>
      </trkpt>
      <trkpt lat="48.20109" lon="7.18993">
        <ele>1024.8</ele>
        <time>2021-08-05T07:16:11Z</time>
      </trkpt>
      <trkpt lat="48.2011" lon="7.1899">
        <ele>1024.8</ele>
        <time>2021-08-05T07:16:13Z</time>
      </trkpt>
      <trkpt lat="48.20112" lon="7.18986">
        <ele>1024.9</ele>
        <time>2021-08-05T07:16:15Z</time>
      </trkpt>
      <trkpt lat="48.20113" lon="7.18984">
        <ele>1024.9</ele>
        <time>2021-08-05T07:16:16Z</time>
      </trkpt>
      <trkpt lat="48.20114" lon="7.18983">
        <ele>1024.9</ele>
        <time>2021-08-05T07:16:17Z</time>
      </trkpt>
      <trkpt lat="48.20117" lon="7.1898">
        <ele>1024.9</ele>
        <time>2021-08-05T07:16:18Z</time>
      </trkpt>
      <trkpt lat="48.20118" lon="7.1898">
        <ele>1024.9</ele>
        <time>2021-08-05T07:16:19Z</time>
      </trkpt>
      <trkpt lat="48.2012" lon="7.18979">
        <ele>1025</ele>
        <time>2021-08-05T07:16:21Z</time>
      </trkpt>
      <trkpt lat="48.20121" lon="7.18978">
        <ele>1025</ele>
        <time>2021-08-05T07:16:22Z</time>
      </trkpt>
      <trkpt lat="48.20124" lon="7.18978">
        <ele>1025</ele>
        <time>2021-08-05T07:16:23Z</time>
      </trkpt>
      <trkpt lat="48.20125" lon="7.18977">
        <ele>1025</ele>
        <time>2021-08-05T07:16:24Z</time>
      </trkpt>
      <trkpt lat="48.20128" lon="7.18976">
        <ele>1025.1</ele>
        <time>2021-08-05T07:16:26Z</time>
      </trkpt>
      <trkpt lat="48.20129" lon="7.18976">
        <ele>1025.1</ele>
        <time>2021-08-05T07:16:27Z</time>
      </trkpt>
      <trkpt lat="48.20132" lon="7.18974">
        <ele>1025.1</ele>
        <time>2021-08-05T07:16:29Z</time>
      </trkpt>
      <trkpt lat="48.20133" lon="7.18973">
        <ele>1025.1</ele>
        <time>2021-08-05T07:16:30Z</time>
      </trkpt>
      <trkpt lat="48.20136" lon="7.18971">
        <ele>1025.2</ele>
        <time>2021-08-05T07:16:32Z</time>
      </trkpt>
      <trkpt lat="48.20139" lon="7.18969">
        <ele>1025.2</ele>
        <time>2021-08-05T07:16:33Z</time>
      </trkpt>
      <trkpt lat="48.2014" lon="7.18969">
        <ele>1025.2</ele>
        <time>2021-08-05T07:16:34Z</time>
      </trkpt>
      <trkpt lat="48.20141" lon="7.18967">
        <ele>1025.3</ele>
        <time>2021-08-05T07:16:35Z</time>
      </trkpt>
      <trkpt lat="48.20144" lon="7.18966">
        <ele>1025.3</ele>
        <time>2021-08-05T07:16:37Z</time>
      </trkpt>
      <trkpt lat="48.20145" lon="7.18965">
        <ele>1025.3</ele>
        <time>2021-08-05T07:16:38Z</time>
      </trkpt>
      <trkpt lat="48.20147" lon="7.18963">
        <ele>1025.3</ele>
        <time>2021-08-05T07:16:39Z</time>
      </trkpt>
      <trkpt lat="48.20148" lon="7.18962">
        <ele>1025.4</ele>
        <time>2021-08-05T07:16:40Z</time>
      </trkpt>
      <trkpt lat="48.2015" lon="7.18961">
        <ele>1025.4</ele>
        <time>2021-08-05T07:16:41Z</time>
      </trkpt>
      <trkpt lat="48.20151" lon="7.1896">
        <ele>1025.4</ele>
        <time>2021-08-05T07:16:42Z</time>
      </trkpt>
      <trkpt lat="48.20152" lon="7.18959">
        <ele>1025.4</ele>
        <time>2021-08-05T07:16:43Z</time>
      </trkpt>
      <trkpt lat="48.20152" lon="7.18956">
        <ele>1025.4</ele>
        <time>2021-08-05T07:16:44Z</time>
      </trkpt>
      <trkpt lat="48.20153" lon="7.18954">
        <ele>1025.5</ele>
        <time>2021-08-05T07:16:46Z</time>
      </trkpt>
      <trkpt lat="48.20154" lon="7.18952">
        <ele>1025.5</ele>
        <time>2021-08-05T07:16:47Z</time>
      </trkpt>
      <trkpt lat="48.20155" lon="7.1895">
        <ele>1025.5</ele>
        <time>2021-08-05T07:16:48Z</time>
      </trkpt>
      <trkpt lat="48.20157" lon="7.18947">
        <ele>1025.5</ele>
        <time>2021-08-05T07:16:49Z</time>
      </trkpt>
      <trkpt lat="48.20157" lon="7.18945">
        <ele>1025.6</ele>
        <time>2021-08-05T07:16:50Z</time>
      </trkpt>
      <trkpt lat="48.20158" lon="7.18941">
        <ele>1025.6</ele>
        <time>2021-08-05T07:16:52Z</time>
      </trkpt>
      <trkpt lat="48.20158" lon="7.1894">
        <ele>1025.6</ele>
        <time>2021-08-05T07:16:53Z</time>
      </trkpt>
      <trkpt lat="48.20159" lon="7.18937">
        <ele>1025.6</ele>
        <time>2021-08-05T07:16:54Z</time>
      </trkpt>
      <trkpt lat="48.2016" lon="7.18933">
        <ele>1025.7</ele>
        <time>2021-08-05T07:16:56Z</time>
      </trkpt>
      <trkpt lat="48.2016" lon="7.18931">
        <ele>1025.7</ele>
        <time>2021-08-05T07:16:57Z</time>
      </trkpt>
      <trkpt lat="48.2016" lon="7.18928">
        <ele>1025.7</ele>
        <time>2021-08-05T07:16:58Z</time>
      </trkpt>
      <trkpt lat="48.20161" lon="7.18925">
        <ele>1025.7</ele>
        <time>2021-08-05T07:16:59Z</time>
      </trkpt>
      <trkpt lat="48.20161" lon="7.18922">
        <ele>1025.8</ele>
        <time>2021-08-05T07:17:01Z</time>
      </trkpt>
      <trkpt lat="48.20163" lon="7.1892">
        <ele>1025.8</ele>
        <time>2021-08-05T07:17:02Z</time>
      </trkpt>
      <trkpt lat="48.20163" lon="7.18919">
        <ele>1025.8</ele>
        <time>2021-08-05T07:17:03Z</time>
      </trkpt>
      <trkpt lat="48.20164" lon="7.18918">
        <ele>1025.8</ele>
        <time>2021-08-05T07:17:04Z</time>
      </trkpt>
      <trkpt lat="48.20167" lon="7.18916">
        <ele>1025.9</ele>
        <time>2021-08-05T07:17:06Z</time>
      </trkpt>
      <trkpt lat="48.20168" lon="7.18915">
        <ele>1025.9</ele>
        <time>2021-08-05T07:17:07Z</time>
      </trkpt>
      <trkpt lat="48.2017" lon="7.18914">
        <ele>1025.9</ele>
        <time>2021-08-05T07:17:08Z</time>
      </trkpt>
      <trkpt lat="48.20171" lon="7.18914">
        <ele>1025.9</ele>
        <time>2021-08-05T07:17:09Z</time>
      </trkpt>
      <trkpt lat="48.20173" lon="7.18913">
        <ele>1026</ele>
        <time>2021-08-05T07:17:11Z</time>
      </trkpt>
      <trkpt lat="48.20174" lon="7.18912">
        <ele>1026</ele>
        <time>2021-08-05T07:17:12Z</time>
      </trkpt>
      <trkpt lat="48.20175" lon="7.18912">
        <ele>1026</ele>
        <time>2021-08-05T07:17:13Z</time>
      </trkpt>
      <trkpt lat="48.20176" lon="7.18912">
        <ele>1026</ele>
        <time>2021-08-05T07:17:14Z</time>
      </trkpt>
      <trkpt lat="48.20178" lon="7.18912">
        <ele>1026.1</ele>
        <time>2021-08-05T07:17:16Z</time>
      </trkpt>
      <trkpt lat="48.20179" lon="7.18912">
        <ele>1026.1</ele>
        <time>2021-08-05T07:17:17Z</time>
      </trkpt>
      <trkpt lat="48.2018" lon="7.18912">
        <ele>1026.1</ele>
        <time>2021-08-05T07:17:18Z</time>
      </trkpt>
      <trkpt lat="48.20181" lon="7.18912">
        <ele>1026.1</ele>
        <time>2021-08-05T07:17:19Z</time>
      </trkpt>
      <trkpt lat="48.20182" lon="7.18912">
        <ele>1026.1</ele>
        <time>2021-08-05T07:17:20Z</time>
      </trkpt>
      <trkpt lat="48.20184" lon="7.18911">
        <ele>1026.2</ele>
        <time>2021-08-05T07:17:21Z</time>
      </trkpt>
      <trkpt lat="48.20188" lon="7.1891">
        <ele>1026.2</ele>
        <time>2021-08-05T07:17:22Z</time>
      </trkpt>
      <trkpt lat="48.20191" lon="7.18909">
        <ele>1026.3</ele>
        <time>2021-08-05T07:17:27Z</time>
      </trkpt>
      <trkpt lat="48.20194" lon="7.18908">
        <ele>1026.4</ele>
        <time>2021-08-05T07:17:28Z</time>
      </trkpt>
      <trkpt lat="48.20197" lon="7.18907">
        <ele>1026.7</ele>
        <time>2021-08-05T07:17:29Z</time>
      </trkpt>
      <trkpt lat="48.20199" lon="7.18906">
        <ele>1026.8</ele>
        <time>2021-08-05T07:17:30Z</time>
      </trkpt>
      <trkpt lat="48.20201" lon="7.18905">
        <ele>1026.9</ele>
        <time>2021-08-05T07:17:32Z</time>
      </trkpt>
      <trkpt lat="48.20202" lon="7.18905">
        <ele>1027.1</ele>
        <time>2021-08-05T07:17:33Z</time>
      </trkpt>
      <trkpt lat="48.20204" lon="7.18904">
        <ele>1027.1</ele>
        <time>2021-08-05T07:17:35Z</time>
      </trkpt>
      <trkpt lat="48.20205" lon="7.18903">
        <ele>1027.2</ele>
        <time>2021-08-05T07:17:36Z</time>
      </trkpt>
      <trkpt lat="48.20205" lon="7.18904">
        <ele>1027.3</ele>
        <time>2021-08-05T07:17:37Z</time>
      </trkpt>
      <trkpt lat="48.20206" lon="7.18904">
        <ele>1027.3</ele>
        <time>2021-08-05T07:17:38Z</time>
      </trkpt>
      <trkpt lat="48.20206" lon="7.18903">
        <ele>1027.3</ele>
        <time>2021-08-05T07:17:39Z</time>
      </trkpt>
      <trkpt lat="48.20207" lon="7.18903">
        <ele>1027.4</ele>
        <time>2021-08-05T07:17:41Z</time>
      </trkpt>
      <trkpt lat="48.20209" lon="7.18903">
        <ele>1027.5</ele>
        <time>2021-08-05T07:17:42Z</time>
      </trkpt>
      <trkpt lat="48.2021" lon="7.18902">
        <ele>1027.5</ele>
        <time>2021-08-05T07:17:43Z</time>
      </trkpt>
      <trkpt lat="48.20211" lon="7.18901">
        <ele>1027.6</ele>
        <time>2021-08-05T07:17:45Z</time>
      </trkpt>
      <trkpt lat="48.20212" lon="7.189">
        <ele>1027.7</ele>
        <time>2021-08-05T07:17:46Z</time>
      </trkpt>
      <trkpt lat="48.20239" lon="7.18878">
        <ele>1029.7</ele>
        <time>2021-08-05T07:18:16Z</time>
      </trkpt>
      <trkpt lat="48.2024" lon="7.18877">
        <ele>1029.8</ele>
        <time>2021-08-05T07:18:17Z</time>
      </trkpt>
      <trkpt lat="48.20244" lon="7.18875">
        <ele>1030</ele>
        <time>2021-08-05T07:18:19Z</time>
      </trkpt>
      <trkpt lat="48.20249" lon="7.18874">
        <ele>1030.4</ele>
        <time>2021-08-05T07:18:21Z</time>
      </trkpt>
      <trkpt lat="48.20251" lon="7.18875">
        <ele>1030.6</ele>
        <time>2021-08-05T07:18:22Z</time>
      </trkpt>
      <trkpt lat="48.20254" lon="7.18876">
        <ele>1030.8</ele>
        <time>2021-08-05T07:18:24Z</time>
      </trkpt>
      <trkpt lat="48.20257" lon="7.18876">
        <ele>1031</ele>
        <time>2021-08-05T07:18:25Z</time>
      </trkpt>
      <trkpt lat="48.20261" lon="7.18876">
        <ele>1031.2</ele>
        <time>2021-08-05T07:18:26Z</time>
      </trkpt>
      <trkpt lat="48.20265" lon="7.18876">
        <ele>1031.5</ele>
        <time>2021-08-05T07:18:28Z</time>
      </trkpt>
      <trkpt lat="48.20269" lon="7.18876">
        <ele>1031.8</ele>
        <time>2021-08-05T07:18:30Z</time>
      </trkpt>
      <trkpt lat="48.20271" lon="7.18876">
        <ele>1031.9</ele>
        <time>2021-08-05T07:18:31Z</time>
      </trkpt>
      <trkpt lat="48.20272" lon="7.18877">
        <ele>1032</ele>
        <time>2021-08-05T07:18:32Z</time>
      </trkpt>
      <trkpt lat="48.20275" lon="7.18878">
        <ele>1032.2</ele>
        <time>2021-08-05T07:18:33Z</time>
      </trkpt>
      <trkpt lat="48.20278" lon="7.18879">
        <ele>1032.4</ele>
        <time>2021-08-05T07:18:34Z</time>
      </trkpt>
      <trkpt lat="48.20282" lon="7.1888">
        <ele>1032.6</ele>
        <time>2021-08-05T07:18:36Z</time>
      </trkpt>
      <trkpt lat="48.20284" lon="7.18881">
        <ele>1032.7</ele>
        <time>2021-08-05T07:18:37Z</time>
      </trkpt>
      <trkpt lat="48.20285" lon="7.18881">
        <ele>1032.8</ele>
        <time>2021-08-05T07:18:38Z</time>
      </trkpt>
      <trkpt lat="48.20289" lon="7.18881">
        <ele>1033.1</ele>
        <time>2021-08-05T07:18:39Z</time>
      </trkpt>
      <trkpt lat="48.20289" lon="7.18882">
        <ele>1033.1</ele>
        <time>2021-08-05T07:18:40Z</time>
      </trkpt>
      <trkpt lat="48.20292" lon="7.18882">
        <ele>1033.3</ele>
        <time>2021-08-05T07:18:41Z</time>
      </trkpt>
      <trkpt lat="48.20294" lon="7.18883">
        <ele>1033.4</ele>
        <time>2021-08-05T07:18:43Z</time>
      </trkpt>
      <trkpt lat="48.20295" lon="7.18884">
        <ele>1033.5</ele>
        <time>2021-08-05T07:18:44Z</time>
      </trkpt>
      <trkpt lat="48.20296" lon="7.18884">
        <ele>1033.6</ele>
        <time>2021-08-05T07:18:45Z</time>
      </trkpt>
      <trkpt lat="48.20297" lon="7.18885">
        <ele>1033.6</ele>
        <time>2021-08-05T07:18:46Z</time>
      </trkpt>
      <trkpt lat="48.20299" lon="7.18886">
        <ele>1033.7</ele>
        <time>2021-08-05T07:18:47Z</time>
      </trkpt>
      <trkpt lat="48.203" lon="7.18888">
        <ele>1033.9</ele>
        <time>2021-08-05T07:18:48Z</time>
      </trkpt>
      <trkpt lat="48.20302" lon="7.18889">
        <ele>1034</ele>
        <time>2021-08-05T07:18:49Z</time>
      </trkpt>
      <trkpt lat="48.20303" lon="7.18891">
        <ele>1034.1</ele>
        <time>2021-08-05T07:18:50Z</time>
      </trkpt>
      <trkpt lat="48.20304" lon="7.18892">
        <ele>1034.2</ele>
        <time>2021-08-05T07:18:52Z</time>
      </trkpt>
      <trkpt lat="48.20305" lon="7.18892">
        <ele>1034.3</ele>
        <time>2021-08-05T07:18:53Z</time>
      </trkpt>
      <trkpt lat="48.20308" lon="7.18894">
        <ele>1034.5</ele>
        <time>2021-08-05T07:18:54Z</time>
      </trkpt>
      <trkpt lat="48.20309" lon="7.18895">
        <ele>1034.5</ele>
        <time>2021-08-05T07:18:56Z</time>
      </trkpt>
      <trkpt lat="48.2031" lon="7.18896">
        <ele>1034.6</ele>
        <time>2021-08-05T07:18:57Z</time>
      </trkpt>
      <trkpt lat="48.20313" lon="7.18898">
        <ele>1034.9</ele>
        <time>2021-08-05T07:18:58Z</time>
      </trkpt>
      <trkpt lat="48.20315" lon="7.18898">
        <ele>1035</ele>
        <time>2021-08-05T07:18:59Z</time>
      </trkpt>
      <trkpt lat="48.20316" lon="7.18899">
        <ele>1035.1</ele>
        <time>2021-08-05T07:19:00Z</time>
      </trkpt>
      <trkpt lat="48.20319" lon="7.18901">
        <ele>1035.3</ele>
        <time>2021-08-05T07:19:02Z</time>
      </trkpt>
      <trkpt lat="48.20322" lon="7.18903">
        <ele>1035.5</ele>
        <time>2021-08-05T07:19:03Z</time>
      </trkpt>
      <trkpt lat="48.20323" lon="7.18904">
        <ele>1035.6</ele>
        <time>2021-08-05T07:19:04Z</time>
      </trkpt>
      <trkpt lat="48.20324" lon="7.18905">
        <ele>1035.7</ele>
        <time>2021-08-05T07:19:06Z</time>
      </trkpt>
      <trkpt lat="48.20326" lon="7.18906">
        <ele>1035.8</ele>
        <time>2021-08-05T07:19:07Z</time>
      </trkpt>
      <trkpt lat="48.2033" lon="7.18909">
        <ele>1036.1</ele>
        <time>2021-08-05T07:19:08Z</time>
      </trkpt>
      <trkpt lat="48.20331" lon="7.1891">
        <ele>1036.2</ele>
        <time>2021-08-05T07:19:09Z</time>
      </trkpt>
      <trkpt lat="48.20333" lon="7.18911">
        <ele>1036.3</ele>
        <time>2021-08-05T07:19:10Z</time>
      </trkpt>
      <trkpt lat="48.20335" lon="7.18912">
        <ele>1036.4</ele>
        <time>2021-08-05T07:19:12Z</time>
      </trkpt>
      <trkpt lat="48.20338" lon="7.18913">
        <ele>1036.7</ele>
        <time>2021-08-05T07:19:13Z</time>
      </trkpt>
      <trkpt lat="48.20339" lon="7.18913">
        <ele>1036.7</ele>
        <time>2021-08-05T07:19:14Z</time>
      </trkpt>
      <trkpt lat="48.20342" lon="7.18915">
        <ele>1036.9</ele>
        <time>2021-08-05T07:19:15Z</time>
      </trkpt>
      <trkpt lat="48.20343" lon="7.18916">
        <ele>1037</ele>
        <time>2021-08-05T07:19:16Z</time>
      </trkpt>
      <trkpt lat="48.20346" lon="7.18917">
        <ele>1037.2</ele>
        <time>2021-08-05T07:19:17Z</time>
      </trkpt>
      <trkpt lat="48.20348" lon="7.18918">
        <ele>1037.3</ele>
        <time>2021-08-05T07:19:18Z</time>
      </trkpt>
      <trkpt lat="48.20352" lon="7.18919">
        <ele>1037.5</ele>
        <time>2021-08-05T07:19:21Z</time>
      </trkpt>
      <trkpt lat="48.20356" lon="7.1892">
        <ele>1037.7</ele>
        <time>2021-08-05T07:19:22Z</time>
      </trkpt>
      <trkpt lat="48.20357" lon="7.1892">
        <ele>1037.8</ele>
        <time>2021-08-05T07:19:23Z</time>
      </trkpt>
      <trkpt lat="48.20359" lon="7.1892">
        <ele>1037.9</ele>
        <time>2021-08-05T07:19:24Z</time>
      </trkpt>
      <trkpt lat="48.20362" lon="7.18919">
        <ele>1038</ele>
        <time>2021-08-05T07:19:26Z</time>
      </trkpt>
      <trkpt lat="48.20364" lon="7.18918">
        <ele>1038.1</ele>
        <time>2021-08-05T07:19:27Z</time>
      </trkpt>
      <trkpt lat="48.20366" lon="7.18917">
        <ele>1038.2</ele>
        <time>2021-08-05T07:19:29Z</time>
      </trkpt>
      <trkpt lat="48.20368" lon="7.18915">
        <ele>1038.4</ele>
        <time>2021-08-05T07:19:30Z</time>
      </trkpt>
      <trkpt lat="48.20371" lon="7.18912">
        <ele>1038.5</ele>
        <time>2021-08-05T07:19:31Z</time>
      </trkpt>
      <trkpt lat="48.20372" lon="7.18911">
        <ele>1038.6</ele>
        <time>2021-08-05T07:19:32Z</time>
      </trkpt>
      <trkpt lat="48.20374" lon="7.18909">
        <ele>1038.7</ele>
        <time>2021-08-05T07:19:33Z</time>
      </trkpt>
      <trkpt lat="48.20376" lon="7.18908">
        <ele>1038.9</ele>
        <time>2021-08-05T07:19:34Z</time>
      </trkpt>
      <trkpt lat="48.20379" lon="7.18905">
        <ele>1039</ele>
        <time>2021-08-05T07:19:36Z</time>
      </trkpt>
      <trkpt lat="48.2038" lon="7.18905">
        <ele>1039.1</ele>
        <time>2021-08-05T07:19:37Z</time>
      </trkpt>
      <trkpt lat="48.20382" lon="7.18904">
        <ele>1039.2</ele>
        <time>2021-08-05T07:19:38Z</time>
      </trkpt>
      <trkpt lat="48.20384" lon="7.18903">
        <ele>1039.3</ele>
        <time>2021-08-05T07:19:39Z</time>
      </trkpt>
      <trkpt lat="48.20386" lon="7.18901">
        <ele>1039.4</ele>
        <time>2021-08-05T07:19:41Z</time>
      </trkpt>
      <trkpt lat="48.20387" lon="7.189">
        <ele>1039.6</ele>
        <time>2021-08-05T07:19:42Z</time>
      </trkpt>
      <trkpt lat="48.20389" lon="7.18899">
        <ele>1039.7</ele>
        <time>2021-08-05T07:19:44Z</time>
      </trkpt>
      <trkpt lat="48.20393" lon="7.18898">
        <ele>1039.9</ele>
        <time>2021-08-05T07:19:45Z</time>
      </trkpt>
      <trkpt lat="48.20394" lon="7.18898">
        <ele>1040</ele>
        <time>2021-08-05T07:19:46Z</time>
      </trkpt>
      <trkpt lat="48.20396" lon="7.18898">
        <ele>1040.1</ele>
        <time>2021-08-05T07:19:47Z</time>
      </trkpt>
      <trkpt lat="48.20398" lon="7.18897">
        <ele>1040.2</ele>
        <time>2021-08-05T07:19:48Z</time>
      </trkpt>
      <trkpt lat="48.20401" lon="7.18896">
        <ele>1040.4</ele>
        <time>2021-08-05T07:19:49Z</time>
      </trkpt>
      <trkpt lat="48.20402" lon="7.18896">
        <ele>1040.5</ele>
        <time>2021-08-05T07:19:50Z</time>
      </trkpt>
      <trkpt lat="48.20404" lon="7.18896">
        <ele>1040.7</ele>
        <time>2021-08-05T07:19:52Z</time>
      </trkpt>
      <trkpt lat="48.20406" lon="7.18897">
        <ele>1040.7</ele>
        <time>2021-08-05T07:19:53Z</time>
      </trkpt>
      <trkpt lat="48.20407" lon="7.18898">
        <ele>1040.9</ele>
        <time>2021-08-05T07:19:54Z</time>
      </trkpt>
      <trkpt lat="48.2041" lon="7.18899">
        <ele>1041</ele>
        <time>2021-08-05T07:19:56Z</time>
      </trkpt>
      <trkpt lat="48.20413" lon="7.189">
        <ele>1041.2</ele>
        <time>2021-08-05T07:19:57Z</time>
      </trkpt>
      <trkpt lat="48.20414" lon="7.189">
        <ele>1041.3</ele>
        <time>2021-08-05T07:19:58Z</time>
      </trkpt>
      <trkpt lat="48.20417" lon="7.189">
        <ele>1041.4</ele>
        <time>2021-08-05T07:19:59Z</time>
      </trkpt>
      <trkpt lat="48.20419" lon="7.189">
        <ele>1041.6</ele>
        <time>2021-08-05T07:20:01Z</time>
      </trkpt>
      <trkpt lat="48.20422" lon="7.189">
        <ele>1041.8</ele>
        <time>2021-08-05T07:20:02Z</time>
      </trkpt>
      <trkpt lat="48.20425" lon="7.18898">
        <ele>1042</ele>
        <time>2021-08-05T07:20:04Z</time>
      </trkpt>
      <trkpt lat="48.20426" lon="7.18898">
        <ele>1042.1</ele>
        <time>2021-08-05T07:20:05Z</time>
      </trkpt>
      <trkpt lat="48.20428" lon="7.18897">
        <ele>1042.2</ele>
        <time>2021-08-05T07:20:07Z</time>
      </trkpt>
      <trkpt lat="48.2043" lon="7.18897">
        <ele>1042.3</ele>
        <time>2021-08-05T07:20:08Z</time>
      </trkpt>
      <trkpt lat="48.20431" lon="7.18896">
        <ele>1042.4</ele>
        <time>2021-08-05T07:20:09Z</time>
      </trkpt>
      <trkpt lat="48.20433" lon="7.18895">
        <ele>1042.5</ele>
        <time>2021-08-05T07:20:10Z</time>
      </trkpt>
      <trkpt lat="48.20434" lon="7.18895">
        <ele>1042.6</ele>
        <time>2021-08-05T07:20:11Z</time>
      </trkpt>
      <trkpt lat="48.20436" lon="7.18895">
        <ele>1042.7</ele>
        <time>2021-08-05T07:20:13Z</time>
      </trkpt>
      <trkpt lat="48.20439" lon="7.18894">
        <ele>1042.9</ele>
        <time>2021-08-05T07:20:14Z</time>
      </trkpt>
      <trkpt lat="48.20439" lon="7.18894">
        <ele>1042.9</ele>
        <time>2021-08-05T07:20:16Z</time>
      </trkpt>
      <trkpt lat="48.20441" lon="7.18894">
        <ele>1043</ele>
        <time>2021-08-05T07:20:17Z</time>
      </trkpt>
      <trkpt lat="48.20442" lon="7.18894">
        <ele>1043.1</ele>
        <time>2021-08-05T07:20:19Z</time>
      </trkpt>
      <trkpt lat="48.20445" lon="7.18895">
        <ele>1043.3</ele>
        <time>2021-08-05T07:20:20Z</time>
      </trkpt>
      <trkpt lat="48.20446" lon="7.18895">
        <ele>1043.4</ele>
        <time>2021-08-05T07:20:21Z</time>
      </trkpt>
      <trkpt lat="48.20446" lon="7.18896">
        <ele>1043.4</ele>
        <time>2021-08-05T07:20:22Z</time>
      </trkpt>
      <trkpt lat="48.2045" lon="7.18896">
        <ele>1043.7</ele>
        <time>2021-08-05T07:20:24Z</time>
      </trkpt>
      <trkpt lat="48.20451" lon="7.18895">
        <ele>1043.7</ele>
        <time>2021-08-05T07:20:25Z</time>
      </trkpt>
      <trkpt lat="48.20454" lon="7.18894">
        <ele>1043.9</ele>
        <time>2021-08-05T07:20:26Z</time>
      </trkpt>
      <trkpt lat="48.20455" lon="7.18894">
        <ele>1044</ele>
        <time>2021-08-05T07:20:27Z</time>
      </trkpt>
      <trkpt lat="48.20459" lon="7.18892">
        <ele>1044.2</ele>
        <time>2021-08-05T07:20:29Z</time>
      </trkpt>
      <trkpt lat="48.2046" lon="7.18892">
        <ele>1044.3</ele>
        <time>2021-08-05T07:20:30Z</time>
      </trkpt>
      <trkpt lat="48.20464" lon="7.1889">
        <ele>1044.6</ele>
        <time>2021-08-05T07:20:31Z</time>
      </trkpt>
      <trkpt lat="48.20465" lon="7.18889">
        <ele>1044.7</ele>
        <time>2021-08-05T07:20:32Z</time>
      </trkpt>
      <trkpt lat="48.20469" lon="7.18887">
        <ele>1044.9</ele>
        <time>2021-08-05T07:20:34Z</time>
      </trkpt>
      <trkpt lat="48.20472" lon="7.18883">
        <ele>1045.2</ele>
        <time>2021-08-05T07:20:36Z</time>
      </trkpt>
      <trkpt lat="48.20472" lon="7.18882">
        <ele>1045.2</ele>
        <time>2021-08-05T07:20:37Z</time>
      </trkpt>
      <trkpt lat="48.20473" lon="7.18879">
        <ele>1045.4</ele>
        <time>2021-08-05T07:20:38Z</time>
      </trkpt>
      <trkpt lat="48.20474" lon="7.18878">
        <ele>1045.4</ele>
        <time>2021-08-05T07:20:40Z</time>
      </trkpt>
      <trkpt lat="48.20474" lon="7.18877">
        <ele>1045.5</ele>
        <time>2021-08-05T07:20:41Z</time>
      </trkpt>
      <trkpt lat="48.20475" lon="7.18876">
        <ele>1045.6</ele>
        <time>2021-08-05T07:20:42Z</time>
      </trkpt>
      <trkpt lat="48.20476" lon="7.18874">
        <ele>1045.7</ele>
        <time>2021-08-05T07:20:43Z</time>
      </trkpt>
      <trkpt lat="48.20477" lon="7.18872">
        <ele>1045.8</ele>
        <time>2021-08-05T07:20:45Z</time>
      </trkpt>
      <trkpt lat="48.20478" lon="7.18871">
        <ele>1045.9</ele>
        <time>2021-08-05T07:20:46Z</time>
      </trkpt>
      <trkpt lat="48.20479" lon="7.18869">
        <ele>1046.1</ele>
        <time>2021-08-05T07:20:47Z</time>
      </trkpt>
      <trkpt lat="48.2048" lon="7.18866">
        <ele>1046.3</ele>
        <time>2021-08-05T07:20:48Z</time>
      </trkpt>
      <trkpt lat="48.20481" lon="7.18865">
        <ele>1046.4</ele>
        <time>2021-08-05T07:20:50Z</time>
      </trkpt>
      <trkpt lat="48.20484" lon="7.18862">
        <ele>1046.6</ele>
        <time>2021-08-05T07:20:51Z</time>
      </trkpt>
      <trkpt lat="48.20485" lon="7.18862">
        <ele>1046.7</ele>
        <time>2021-08-05T07:20:52Z</time>
      </trkpt>
      <trkpt lat="48.20486" lon="7.1886">
        <ele>1046.8</ele>
        <time>2021-08-05T07:20:53Z</time>
      </trkpt>
      <trkpt lat="48.20487" lon="7.18858">
        <ele>1046.9</ele>
        <time>2021-08-05T07:20:54Z</time>
      </trkpt>
      <trkpt lat="48.20489" lon="7.18852">
        <ele>1047.2</ele>
        <time>2021-08-05T07:20:56Z</time>
      </trkpt>
      <trkpt lat="48.20489" lon="7.1885">
        <ele>1047.3</ele>
        <time>2021-08-05T07:20:57Z</time>
      </trkpt>
      <trkpt lat="48.2049" lon="7.18848">
        <ele>1047.4</ele>
        <time>2021-08-05T07:20:58Z</time>
      </trkpt>
      <trkpt lat="48.2049" lon="7.18844">
        <ele>1047.6</ele>
        <time>2021-08-05T07:20:59Z</time>
      </trkpt>
      <trkpt lat="48.20491" lon="7.1884">
        <ele>1047.7</ele>
        <time>2021-08-05T07:21:01Z</time>
      </trkpt>
      <trkpt lat="48.20492" lon="7.18838">
        <ele>1047.8</ele>
        <time>2021-08-05T07:21:02Z</time>
      </trkpt>
      <trkpt lat="48.20492" lon="7.18836">
        <ele>1047.9</ele>
        <time>2021-08-05T07:21:03Z</time>
      </trkpt>
      <trkpt lat="48.20493" lon="7.18835">
        <ele>1048</ele>
        <time>2021-08-05T07:21:04Z</time>
      </trkpt>
      <trkpt lat="48.20495" lon="7.18831">
        <ele>1048.2</ele>
        <time>2021-08-05T07:21:06Z</time>
      </trkpt>
      <trkpt lat="48.20496" lon="7.1883">
        <ele>1048.3</ele>
        <time>2021-08-05T07:21:07Z</time>
      </trkpt>
      <trkpt lat="48.20498" lon="7.18829">
        <ele>1048.5</ele>
        <time>2021-08-05T07:21:08Z</time>
      </trkpt>
      <trkpt lat="48.205" lon="7.18828">
        <ele>1048.6</ele>
        <time>2021-08-05T07:21:09Z</time>
      </trkpt>
      <trkpt lat="48.20502" lon="7.18826">
        <ele>1048.8</ele>
        <time>2021-08-05T07:21:11Z</time>
      </trkpt>
      <trkpt lat="48.20505" lon="7.18824">
        <ele>1049</ele>
        <time>2021-08-05T07:21:12Z</time>
      </trkpt>
      <trkpt lat="48.20506" lon="7.18823">
        <ele>1049</ele>
        <time>2021-08-05T07:21:13Z</time>
      </trkpt>
      <trkpt lat="48.20508" lon="7.18822">
        <ele>1049.2</ele>
        <time>2021-08-05T07:21:14Z</time>
      </trkpt>
      <trkpt lat="48.20511" lon="7.18819">
        <ele>1049.3</ele>
        <time>2021-08-05T07:21:16Z</time>
      </trkpt>
      <trkpt lat="48.20514" lon="7.18817">
        <ele>1049.6</ele>
        <time>2021-08-05T07:21:17Z</time>
      </trkpt>
      <trkpt lat="48.20514" lon="7.18816">
        <ele>1049.7</ele>
        <time>2021-08-05T07:21:18Z</time>
      </trkpt>
      <trkpt lat="48.20516" lon="7.18814">
        <ele>1049.8</ele>
        <time>2021-08-05T07:21:19Z</time>
      </trkpt>
      <trkpt lat="48.20518" lon="7.18812">
        <ele>1050</ele>
        <time>2021-08-05T07:21:21Z</time>
      </trkpt>
      <trkpt lat="48.20521" lon="7.1881">
        <ele>1050.2</ele>
        <time>2021-08-05T07:21:22Z</time>
      </trkpt>
      <trkpt lat="48.20522" lon="7.18809">
        <ele>1050.2</ele>
        <time>2021-08-05T07:21:23Z</time>
      </trkpt>
      <trkpt lat="48.20523" lon="7.18808">
        <ele>1050.3</ele>
        <time>2021-08-05T07:21:24Z</time>
      </trkpt>
      <trkpt lat="48.20525" lon="7.18807">
        <ele>1050.4</ele>
        <time>2021-08-05T07:21:26Z</time>
      </trkpt>
      <trkpt lat="48.20527" lon="7.18806">
        <ele>1050.6</ele>
        <time>2021-08-05T07:21:27Z</time>
      </trkpt>
      <trkpt lat="48.20529" lon="7.18805">
        <ele>1050.7</ele>
        <time>2021-08-05T07:21:29Z</time>
      </trkpt>
      <trkpt lat="48.20532" lon="7.18804">
        <ele>1050.9</ele>
        <time>2021-08-05T07:21:30Z</time>
      </trkpt>
      <trkpt lat="48.20533" lon="7.18803">
        <ele>1051</ele>
        <time>2021-08-05T07:21:31Z</time>
      </trkpt>
      <trkpt lat="48.20535" lon="7.18802">
        <ele>1051.1</ele>
        <time>2021-08-05T07:21:33Z</time>
      </trkpt>
      <trkpt lat="48.20537" lon="7.18801">
        <ele>1051.2</ele>
        <time>2021-08-05T07:21:34Z</time>
      </trkpt>
      <trkpt lat="48.2054" lon="7.18798">
        <ele>1051.5</ele>
        <time>2021-08-05T07:21:36Z</time>
      </trkpt>
      <trkpt lat="48.20542" lon="7.18795">
        <ele>1051.6</ele>
        <time>2021-08-05T07:21:37Z</time>
      </trkpt>
      <trkpt lat="48.20543" lon="7.18794">
        <ele>1051.7</ele>
        <time>2021-08-05T07:21:38Z</time>
      </trkpt>
      <trkpt lat="48.20545" lon="7.18792">
        <ele>1051.8</ele>
        <time>2021-08-05T07:21:39Z</time>
      </trkpt>
      <trkpt lat="48.20546" lon="7.1879">
        <ele>1052</ele>
        <time>2021-08-05T07:21:41Z</time>
      </trkpt>
      <trkpt lat="48.20548" lon="7.18786">
        <ele>1052.2</ele>
        <time>2021-08-05T07:21:42Z</time>
      </trkpt>
      <trkpt lat="48.20549" lon="7.18785">
        <ele>1052.3</ele>
        <time>2021-08-05T07:21:43Z</time>
      </trkpt>
      <trkpt lat="48.20549" lon="7.18783">
        <ele>1052.3</ele>
        <time>2021-08-05T07:21:44Z</time>
      </trkpt>
      <trkpt lat="48.20552" lon="7.1878">
        <ele>1052.5</ele>
        <time>2021-08-05T07:21:46Z</time>
      </trkpt>
      <trkpt lat="48.20552" lon="7.1878">
        <ele>1052.6</ele>
        <time>2021-08-05T07:21:47Z</time>
      </trkpt>
      <trkpt lat="48.20553" lon="7.18779">
        <ele>1052.7</ele>
        <time>2021-08-05T07:21:48Z</time>
      </trkpt>
      <trkpt lat="48.20555" lon="7.18778">
        <ele>1052.8</ele>
        <time>2021-08-05T07:21:49Z</time>
      </trkpt>
      <trkpt lat="48.20557" lon="7.18775">
        <ele>1053</ele>
        <time>2021-08-05T07:21:51Z</time>
      </trkpt>
      <trkpt lat="48.20558" lon="7.18774">
        <ele>1053</ele>
        <time>2021-08-05T07:21:52Z</time>
      </trkpt>
      <trkpt lat="48.2056" lon="7.18772">
        <ele>1053.3</ele>
        <time>2021-08-05T07:21:53Z</time>
      </trkpt>
      <trkpt lat="48.20563" lon="7.18769">
        <ele>1053.5</ele>
        <time>2021-08-05T07:21:55Z</time>
      </trkpt>
      <trkpt lat="48.20564" lon="7.18767">
        <ele>1053.6</ele>
        <time>2021-08-05T07:21:56Z</time>
      </trkpt>
      <trkpt lat="48.20566" lon="7.18764">
        <ele>1053.7</ele>
        <time>2021-08-05T07:21:57Z</time>
      </trkpt>
      <trkpt lat="48.20568" lon="7.18762">
        <ele>1053.9</ele>
        <time>2021-08-05T07:21:59Z</time>
      </trkpt>
      <trkpt lat="48.20572" lon="7.18757">
        <ele>1054.1</ele>
        <time>2021-08-05T07:22:01Z</time>
      </trkpt>
      <trkpt lat="48.20573" lon="7.18755">
        <ele>1054.3</ele>
        <time>2021-08-05T07:22:02Z</time>
      </trkpt>
      <trkpt lat="48.20574" lon="7.18754">
        <ele>1054.3</ele>
        <time>2021-08-05T07:22:03Z</time>
      </trkpt>
      <trkpt lat="48.20575" lon="7.18753">
        <ele>1054.4</ele>
        <time>2021-08-05T07:22:04Z</time>
      </trkpt>
      <trkpt lat="48.20579" lon="7.18749">
        <ele>1054.6</ele>
        <time>2021-08-05T07:22:06Z</time>
      </trkpt>
      <trkpt lat="48.2058" lon="7.18749">
        <ele>1054.7</ele>
        <time>2021-08-05T07:22:07Z</time>
      </trkpt>
      <trkpt lat="48.20581" lon="7.18748">
        <ele>1054.8</ele>
        <time>2021-08-05T07:22:08Z</time>
      </trkpt>
      <trkpt lat="48.20584" lon="7.18746">
        <ele>1054.9</ele>
        <time>2021-08-05T07:22:09Z</time>
      </trkpt>
      <trkpt lat="48.20586" lon="7.18744">
        <ele>1055.1</ele>
        <time>2021-08-05T07:22:11Z</time>
      </trkpt>
      <trkpt lat="48.2059" lon="7.18741">
        <ele>1055.3</ele>
        <time>2021-08-05T07:22:13Z</time>
      </trkpt>
      <trkpt lat="48.20591" lon="7.1874">
        <ele>1055.3</ele>
        <time>2021-08-05T07:22:14Z</time>
      </trkpt>
      <trkpt lat="48.20594" lon="7.18735">
        <ele>1055.5</ele>
        <time>2021-08-05T07:22:16Z</time>
      </trkpt>
      <trkpt lat="48.20596" lon="7.18733">
        <ele>1055.6</ele>
        <time>2021-08-05T07:22:17Z</time>
      </trkpt>
      <trkpt lat="48.20598" lon="7.18729">
        <ele>1055.7</ele>
        <time>2021-08-05T07:22:19Z</time>
      </trkpt>
      <trkpt lat="48.206" lon="7.18724">
        <ele>1055.9</ele>
        <time>2021-08-05T07:22:20Z</time>
      </trkpt>
      <trkpt lat="48.20602" lon="7.1872">
        <ele>1056</ele>
        <time>2021-08-05T07:22:22Z</time>
      </trkpt>
      <trkpt lat="48.20604" lon="7.18717">
        <ele>1056.1</ele>
        <time>2021-08-05T07:22:23Z</time>
      </trkpt>
      <trkpt lat="48.20607" lon="7.18713">
        <ele>1056.2</ele>
        <time>2021-08-05T07:22:24Z</time>
      </trkpt>
      <trkpt lat="48.20611" lon="7.18709">
        <ele>1056.3</ele>
        <time>2021-08-05T07:22:26Z</time>
      </trkpt>
      <trkpt lat="48.20613" lon="7.18707">
        <ele>1056.4</ele>
        <time>2021-08-05T07:22:27Z</time>
      </trkpt>
      <trkpt lat="48.20617" lon="7.18704">
        <ele>1056.5</ele>
        <time>2021-08-05T07:22:28Z</time>
      </trkpt>
      <trkpt lat="48.20621" lon="7.18702">
        <ele>1056.6</ele>
        <time>2021-08-05T07:22:30Z</time>
      </trkpt>
      <trkpt lat="48.20626" lon="7.18699">
        <ele>1056.8</ele>
        <time>2021-08-05T07:22:31Z</time>
      </trkpt>
      <trkpt lat="48.2063" lon="7.18697">
        <ele>1056.9</ele>
        <time>2021-08-05T07:22:33Z</time>
      </trkpt>
      <trkpt lat="48.20633" lon="7.18694">
        <ele>1057</ele>
        <time>2021-08-05T07:22:34Z</time>
      </trkpt>
      <trkpt lat="48.20636" lon="7.18692">
        <ele>1057.1</ele>
        <time>2021-08-05T07:22:35Z</time>
      </trkpt>
      <trkpt lat="48.20642" lon="7.18686">
        <ele>1057.2</ele>
        <time>2021-08-05T07:22:37Z</time>
      </trkpt>
      <trkpt lat="48.20644" lon="7.18684">
        <ele>1057.3</ele>
        <time>2021-08-05T07:22:38Z</time>
      </trkpt>
      <trkpt lat="48.20649" lon="7.18678">
        <ele>1057.5</ele>
        <time>2021-08-05T07:22:39Z</time>
      </trkpt>
      <trkpt lat="48.20652" lon="7.18675">
        <ele>1057.5</ele>
        <time>2021-08-05T07:22:40Z</time>
      </trkpt>
      <trkpt lat="48.20654" lon="7.18672">
        <ele>1057.6</ele>
        <time>2021-08-05T07:22:41Z</time>
      </trkpt>
      <trkpt lat="48.20656" lon="7.18668">
        <ele>1057.7</ele>
        <time>2021-08-05T07:22:42Z</time>
      </trkpt>
      <trkpt lat="48.20659" lon="7.18664">
        <ele>1057.8</ele>
        <time>2021-08-05T07:22:44Z</time>
      </trkpt>
      <trkpt lat="48.20661" lon="7.18662">
        <ele>1057.9</ele>
        <time>2021-08-05T07:22:45Z</time>
      </trkpt>
      <trkpt lat="48.20665" lon="7.18657">
        <ele>1058.1</ele>
        <time>2021-08-05T07:22:46Z</time>
      </trkpt>
      <trkpt lat="48.20667" lon="7.18654">
        <ele>1058.2</ele>
        <time>2021-08-05T07:22:47Z</time>
      </trkpt>
      <trkpt lat="48.20669" lon="7.18651">
        <ele>1058.3</ele>
        <time>2021-08-05T07:22:48Z</time>
      </trkpt>
      <trkpt lat="48.20671" lon="7.18648">
        <ele>1058.4</ele>
        <time>2021-08-05T07:22:49Z</time>
      </trkpt>
      <trkpt lat="48.20673" lon="7.18645">
        <ele>1058.5</ele>
        <time>2021-08-05T07:22:50Z</time>
      </trkpt>
      <trkpt lat="48.20676" lon="7.18638">
        <ele>1058.7</ele>
        <time>2021-08-05T07:22:52Z</time>
      </trkpt>
      <trkpt lat="48.20677" lon="7.18635">
        <ele>1058.7</ele>
        <time>2021-08-05T07:22:53Z</time>
      </trkpt>
      <trkpt lat="48.20678" lon="7.18632">
        <ele>1058.8</ele>
        <time>2021-08-05T07:22:54Z</time>
      </trkpt>
      <trkpt lat="48.2068" lon="7.18628">
        <ele>1058.9</ele>
        <time>2021-08-05T07:22:56Z</time>
      </trkpt>
      <trkpt lat="48.2068" lon="7.18626">
        <ele>1059</ele>
        <time>2021-08-05T07:22:57Z</time>
      </trkpt>
      <trkpt lat="48.20682" lon="7.1862">
        <ele>1059.1</ele>
        <time>2021-08-05T07:22:58Z</time>
      </trkpt>
      <trkpt lat="48.20682" lon="7.18617">
        <ele>1059.2</ele>
        <time>2021-08-05T07:22:59Z</time>
      </trkpt>
      <trkpt lat="48.20683" lon="7.18609">
        <ele>1059.3</ele>
        <time>2021-08-05T07:23:01Z</time>
      </trkpt>
      <trkpt lat="48.20683" lon="7.18606">
        <ele>1059.4</ele>
        <time>2021-08-05T07:23:02Z</time>
      </trkpt>
      <trkpt lat="48.20683" lon="7.18603">
        <ele>1059.5</ele>
        <time>2021-08-05T07:23:03Z</time>
      </trkpt>
      <trkpt lat="48.20683" lon="7.18598">
        <ele>1059.6</ele>
        <time>2021-08-05T07:23:05Z</time>
      </trkpt>
      <trkpt lat="48.20683" lon="7.18597">
        <ele>1059.7</ele>
        <time>2021-08-05T07:23:06Z</time>
      </trkpt>
      <trkpt lat="48.20683" lon="7.18594">
        <ele>1059.7</ele>
        <time>2021-08-05T07:23:07Z</time>
      </trkpt>
      <trkpt lat="48.20684" lon="7.18592">
        <ele>1059.8</ele>
        <time>2021-08-05T07:23:08Z</time>
      </trkpt>
      <trkpt lat="48.20685" lon="7.18589">
        <ele>1059.9</ele>
        <time>2021-08-05T07:23:09Z</time>
      </trkpt>
      <trkpt lat="48.20686" lon="7.18588">
        <ele>1060</ele>
        <time>2021-08-05T07:23:10Z</time>
      </trkpt>
      <trkpt lat="48.20688" lon="7.18586">
        <ele>1060.1</ele>
        <time>2021-08-05T07:23:11Z</time>
      </trkpt>
      <trkpt lat="48.20689" lon="7.18586">
        <ele>1060.2</ele>
        <time>2021-08-05T07:23:12Z</time>
      </trkpt>
      <trkpt lat="48.20691" lon="7.18585">
        <ele>1060.3</ele>
        <time>2021-08-05T07:23:13Z</time>
      </trkpt>
      <trkpt lat="48.20693" lon="7.18585">
        <ele>1060.4</ele>
        <time>2021-08-05T07:23:15Z</time>
      </trkpt>
      <trkpt lat="48.20699" lon="7.18587">
        <ele>1060.8</ele>
        <time>2021-08-05T07:23:16Z</time>
      </trkpt>
      <trkpt lat="48.207" lon="7.18584">
        <ele>1060.9</ele>
        <time>2021-08-05T07:23:18Z</time>
      </trkpt>
      <trkpt lat="48.20701" lon="7.18583">
        <ele>1061</ele>
        <time>2021-08-05T07:23:19Z</time>
      </trkpt>
      <trkpt lat="48.20701" lon="7.18582">
        <ele>1061</ele>
        <time>2021-08-05T07:23:20Z</time>
      </trkpt>
      <trkpt lat="48.20703" lon="7.18579">
        <ele>1061.2</ele>
        <time>2021-08-05T07:23:21Z</time>
      </trkpt>
      <trkpt lat="48.20704" lon="7.18577">
        <ele>1061.3</ele>
        <time>2021-08-05T07:23:23Z</time>
      </trkpt>
      <trkpt lat="48.20705" lon="7.18575">
        <ele>1061.4</ele>
        <time>2021-08-05T07:23:24Z</time>
      </trkpt>
      <trkpt lat="48.20706" lon="7.18574">
        <ele>1061.5</ele>
        <time>2021-08-05T07:23:25Z</time>
      </trkpt>
      <trkpt lat="48.20708" lon="7.18568">
        <ele>1061.8</ele>
        <time>2021-08-05T07:23:26Z</time>
      </trkpt>
      <trkpt lat="48.20709" lon="7.18567">
        <ele>1061.9</ele>
        <time>2021-08-05T07:23:27Z</time>
      </trkpt>
      <trkpt lat="48.20711" lon="7.18565">
        <ele>1062.1</ele>
        <time>2021-08-05T07:23:29Z</time>
      </trkpt>
      <trkpt lat="48.20713" lon="7.18559">
        <ele>1062.4</ele>
        <time>2021-08-05T07:23:30Z</time>
      </trkpt>
      <trkpt lat="48.20714" lon="7.18557">
        <ele>1062.6</ele>
        <time>2021-08-05T07:23:31Z</time>
      </trkpt>
      <trkpt lat="48.20715" lon="7.18555">
        <ele>1062.7</ele>
        <time>2021-08-05T07:23:32Z</time>
      </trkpt>
      <trkpt lat="48.20715" lon="7.18552">
        <ele>1062.8</ele>
        <time>2021-08-05T07:23:33Z</time>
      </trkpt>
      <trkpt lat="48.20716" lon="7.1855">
        <ele>1063</ele>
        <time>2021-08-05T07:23:34Z</time>
      </trkpt>
      <trkpt lat="48.20717" lon="7.18543">
        <ele>1063.3</ele>
        <time>2021-08-05T07:23:36Z</time>
      </trkpt>
      <trkpt lat="48.20718" lon="7.18539">
        <ele>1063.5</ele>
        <time>2021-08-05T07:23:38Z</time>
      </trkpt>
      <trkpt lat="48.20719" lon="7.18537">
        <ele>1063.7</ele>
        <time>2021-08-05T07:23:40Z</time>
      </trkpt>
      <trkpt lat="48.20718" lon="7.18531">
        <ele>1064</ele>
        <time>2021-08-05T07:23:42Z</time>
      </trkpt>
      <trkpt lat="48.20718" lon="7.1853">
        <ele>1064</ele>
        <time>2021-08-05T07:23:43Z</time>
      </trkpt>
      <trkpt lat="48.2072" lon="7.18526">
        <ele>1064.3</ele>
        <time>2021-08-05T07:23:45Z</time>
      </trkpt>
      <trkpt lat="48.2072" lon="7.18524">
        <ele>1064.4</ele>
        <time>2021-08-05T07:23:46Z</time>
      </trkpt>
      <trkpt lat="48.20719" lon="7.18521">
        <ele>1064.6</ele>
        <time>2021-08-05T07:23:48Z</time>
      </trkpt>
      <trkpt lat="48.20719" lon="7.1852">
        <ele>1064.6</ele>
        <time>2021-08-05T07:23:49Z</time>
      </trkpt>
      <trkpt lat="48.20719" lon="7.18519">
        <ele>1064.7</ele>
        <time>2021-08-05T07:23:52Z</time>
      </trkpt>
      <trkpt lat="48.2072" lon="7.18518">
        <ele>1064.7</ele>
        <time>2021-08-05T07:23:53Z</time>
      </trkpt>
      <trkpt lat="48.2072" lon="7.18518">
        <ele>1064.8</ele>
        <time>2021-08-05T07:23:54Z</time>
      </trkpt>
      <trkpt lat="48.20721" lon="7.18518">
        <ele>1064.8</ele>
        <time>2021-08-05T07:23:55Z</time>
      </trkpt>
      <trkpt lat="48.20736" lon="7.18289">
        <ele>1079.3</ele>
        <time>2021-08-05T07:26:23Z</time>
      </trkpt>
      <trkpt lat="48.20737" lon="7.18283">
        <ele>1079.6</ele>
        <time>2021-08-05T07:26:25Z</time>
      </trkpt>
      <trkpt lat="48.20739" lon="7.1828">
        <ele>1079.9</ele>
        <time>2021-08-05T07:26:27Z</time>
      </trkpt>
      <trkpt lat="48.2074" lon="7.18279">
        <ele>1079.9</ele>
        <time>2021-08-05T07:26:28Z</time>
      </trkpt>
      <trkpt lat="48.2074" lon="7.18279">
        <ele>1080</ele>
        <time>2021-08-05T07:26:30Z</time>
      </trkpt>
      <trkpt lat="48.2074" lon="7.18279">
        <ele>1080</ele>
        <time>2021-08-05T07:26:31Z</time>
      </trkpt>
      <trkpt lat="48.2074" lon="7.18279">
        <ele>1080</ele>
        <time>2021-08-05T07:26:32Z</time>
      </trkpt>
      <trkpt lat="48.2074" lon="7.18278">
        <ele>1080</ele>
        <time>2021-08-05T07:26:34Z</time>
      </trkpt>
      <trkpt lat="48.2074" lon="7.18278">
        <ele>1080.1</ele>
        <time>2021-08-05T07:26:36Z</time>
      </trkpt>
      <trkpt lat="48.20739" lon="7.18278">
        <ele>1080.1</ele>
        <time>2021-08-05T07:26:37Z</time>
      </trkpt>
      <trkpt lat="48.20739" lon="7.18277">
        <ele>1080.1</ele>
        <time>2021-08-05T07:26:38Z</time>
      </trkpt>
      <trkpt lat="48.20787" lon="7.18191">
        <ele>1084.5</ele>
        <time>2021-08-05T07:29:31Z</time>
      </trkpt>
      <trkpt lat="48.20788" lon="7.18188">
        <ele>1084.2</ele>
        <time>2021-08-05T07:29:32Z</time>
      </trkpt>
      <trkpt lat="48.20789" lon="7.18184">
        <ele>1083.9</ele>
        <time>2021-08-05T07:29:34Z</time>
      </trkpt>
      <trkpt lat="48.20789" lon="7.18182">
        <ele>1083.8</ele>
        <time>2021-08-05T07:29:35Z</time>
      </trkpt>
      <trkpt lat="48.20791" lon="7.18179">
        <ele>1083.6</ele>
        <time>2021-08-05T07:29:36Z</time>
      </trkpt>
      <trkpt lat="48.20791" lon="7.18177">
        <ele>1083.4</ele>
        <time>2021-08-05T07:29:37Z</time>
      </trkpt>
      <trkpt lat="48.20791" lon="7.18176">
        <ele>1083.4</ele>
        <time>2021-08-05T07:29:38Z</time>
      </trkpt>
      <trkpt lat="48.20792" lon="7.18173">
        <ele>1083.4</ele>
        <time>2021-08-05T07:29:39Z</time>
      </trkpt>
      <trkpt lat="48.20792" lon="7.18171">
        <ele>1083.4</ele>
        <time>2021-08-05T07:29:41Z</time>
      </trkpt>
      <trkpt lat="48.20792" lon="7.18168">
        <ele>1083.4</ele>
        <time>2021-08-05T07:29:42Z</time>
      </trkpt>
      <trkpt lat="48.20792" lon="7.18166">
        <ele>1083.4</ele>
        <time>2021-08-05T07:29:43Z</time>
      </trkpt>
      <trkpt lat="48.20792" lon="7.18165">
        <ele>1083.4</ele>
        <time>2021-08-05T07:29:44Z</time>
      </trkpt>
      <trkpt lat="48.20794" lon="7.18162">
        <ele>1083.4</ele>
        <time>2021-08-05T07:29:45Z</time>
      </trkpt>
      <trkpt lat="48.20795" lon="7.1816">
        <ele>1083.4</ele>
        <time>2021-08-05T07:29:46Z</time>
      </trkpt>
      <trkpt lat="48.20796" lon="7.18158">
        <ele>1083.4</ele>
        <time>2021-08-05T07:29:48Z</time>
      </trkpt>
      <trkpt lat="48.20796" lon="7.18156">
        <ele>1083.4</ele>
        <time>2021-08-05T07:29:49Z</time>
      </trkpt>
      <trkpt lat="48.20797" lon="7.18154">
        <ele>1083.4</ele>
        <time>2021-08-05T07:29:50Z</time>
      </trkpt>
      <trkpt lat="48.20797" lon="7.1815">
        <ele>1083.4</ele>
        <time>2021-08-05T07:29:51Z</time>
      </trkpt>
      <trkpt lat="48.20797" lon="7.18148">
        <ele>1083.4</ele>
        <time>2021-08-05T07:29:52Z</time>
      </trkpt>
      <trkpt lat="48.20797" lon="7.18145">
        <ele>1083.4</ele>
        <time>2021-08-05T07:29:54Z</time>
      </trkpt>
      <trkpt lat="48.20797" lon="7.18144">
        <ele>1083.4</ele>
        <time>2021-08-05T07:29:55Z</time>
      </trkpt>
      <trkpt lat="48.20797" lon="7.18143">
        <ele>1083.4</ele>
        <time>2021-08-05T07:29:56Z</time>
      </trkpt>
      <trkpt lat="48.20798" lon="7.18139">
        <ele>1083.5</ele>
        <time>2021-08-05T07:29:57Z</time>
      </trkpt>
      <trkpt lat="48.20799" lon="7.18138">
        <ele>1083.5</ele>
        <time>2021-08-05T07:29:58Z</time>
      </trkpt>
      <trkpt lat="48.20799" lon="7.18136">
        <ele>1083.5</ele>
        <time>2021-08-05T07:29:59Z</time>
      </trkpt>
      <trkpt lat="48.208" lon="7.18132">
        <ele>1083.5</ele>
        <time>2021-08-05T07:30:01Z</time>
      </trkpt>
      <trkpt lat="48.20801" lon="7.18131">
        <ele>1083.5</ele>
        <time>2021-08-05T07:30:02Z</time>
      </trkpt>
      <trkpt lat="48.20801" lon="7.1813">
        <ele>1083.6</ele>
        <time>2021-08-05T07:30:03Z</time>
      </trkpt>
      <trkpt lat="48.20802" lon="7.18128">
        <ele>1083.6</ele>
        <time>2021-08-05T07:30:05Z</time>
      </trkpt>
      <trkpt lat="48.20802" lon="7.18126">
        <ele>1083.6</ele>
        <time>2021-08-05T07:30:06Z</time>
      </trkpt>
      <trkpt lat="48.20802" lon="7.18126">
        <ele>1083.6</ele>
        <time>2021-08-05T07:30:07Z</time>
      </trkpt>
      <trkpt lat="48.20801" lon="7.18125">
        <ele>1083.6</ele>
        <time>2021-08-05T07:30:08Z</time>
      </trkpt>
      <trkpt lat="48.208" lon="7.18124">
        <ele>1083.6</ele>
        <time>2021-08-05T07:30:10Z</time>
      </trkpt>
      <trkpt lat="48.208" lon="7.18123">
        <ele>1083.6</ele>
        <time>2021-08-05T07:30:11Z</time>
      </trkpt>
      <trkpt lat="48.20799" lon="7.18121">
        <ele>1083.7</ele>
        <time>2021-08-05T07:30:12Z</time>
      </trkpt>
      <trkpt lat="48.20799" lon="7.1812">
        <ele>1083.7</ele>
        <time>2021-08-05T07:30:13Z</time>
      </trkpt>
      <trkpt lat="48.20798" lon="7.18119">
        <ele>1083.7</ele>
        <time>2021-08-05T07:30:15Z</time>
      </trkpt>
      <trkpt lat="48.208" lon="7.18091">
        <ele>1084.2</ele>
        <time>2021-08-05T07:30:31Z</time>
      </trkpt>
      <trkpt lat="48.208" lon="7.18086">
        <ele>1084.3</ele>
        <time>2021-08-05T07:30:32Z</time>
      </trkpt>
      <trkpt lat="48.208" lon="7.18081">
        <ele>1084.4</ele>
        <time>2021-08-05T07:30:33Z</time>
      </trkpt>
      <trkpt lat="48.20799" lon="7.18079">
        <ele>1084.4</ele>
        <time>2021-08-05T07:30:34Z</time>
      </trkpt>
      <trkpt lat="48.20799" lon="7.18075">
        <ele>1084.5</ele>
        <time>2021-08-05T07:30:36Z</time>
      </trkpt>
      <trkpt lat="48.20799" lon="7.1807">
        <ele>1084.6</ele>
        <time>2021-08-05T07:30:37Z</time>
      </trkpt>
      <trkpt lat="48.20799" lon="7.18066">
        <ele>1084.7</ele>
        <time>2021-08-05T07:30:38Z</time>
      </trkpt>
      <trkpt lat="48.20799" lon="7.18063">
        <ele>1084.8</ele>
        <time>2021-08-05T07:30:40Z</time>
      </trkpt>
      <trkpt lat="48.20799" lon="7.18059">
        <ele>1084.9</ele>
        <time>2021-08-05T07:30:41Z</time>
      </trkpt>
      <trkpt lat="48.20798" lon="7.18057">
        <ele>1084.9</ele>
        <time>2021-08-05T07:30:42Z</time>
      </trkpt>
      <trkpt lat="48.20798" lon="7.18056">
        <ele>1084.9</ele>
        <time>2021-08-05T07:30:43Z</time>
      </trkpt>
      <trkpt lat="48.20798" lon="7.18055">
        <ele>1085</ele>
        <time>2021-08-05T07:30:44Z</time>
      </trkpt>
      <trkpt lat="48.20797" lon="7.18054">
        <ele>1085</ele>
        <time>2021-08-05T07:30:46Z</time>
      </trkpt>
      <trkpt lat="48.20797" lon="7.18054">
        <ele>1085</ele>
        <time>2021-08-05T07:30:47Z</time>
      </trkpt>
      <trkpt lat="48.20798" lon="7.18053">
        <ele>1085</ele>
        <time>2021-08-05T07:30:48Z</time>
      </trkpt>
      <trkpt lat="48.20798" lon="7.18052">
        <ele>1085</ele>
        <time>2021-08-05T07:30:50Z</time>
      </trkpt>
      <trkpt lat="48.20798" lon="7.18051">
        <ele>1085</ele>
        <time>2021-08-05T07:30:51Z</time>
      </trkpt>
      <trkpt lat="48.20799" lon="7.18049">
        <ele>1085.1</ele>
        <time>2021-08-05T07:30:52Z</time>
      </trkpt>
      <trkpt lat="48.208" lon="7.18048">
        <ele>1085.1</ele>
        <time>2021-08-05T07:30:54Z</time>
      </trkpt>
      <trkpt lat="48.208" lon="7.17989">
        <ele>1086</ele>
        <time>2021-08-05T07:31:34Z</time>
      </trkpt>
      <trkpt lat="48.208" lon="7.17984">
        <ele>1086.1</ele>
        <time>2021-08-05T07:31:36Z</time>
      </trkpt>
      <trkpt lat="48.208" lon="7.17981">
        <ele>1086.1</ele>
        <time>2021-08-05T07:31:37Z</time>
      </trkpt>
      <trkpt lat="48.208" lon="7.17979">
        <ele>1086.1</ele>
        <time>2021-08-05T07:31:38Z</time>
      </trkpt>
      <trkpt lat="48.208" lon="7.17978">
        <ele>1086.2</ele>
        <time>2021-08-05T07:31:40Z</time>
      </trkpt>
      <trkpt lat="48.20799" lon="7.17977">
        <ele>1086.2</ele>
        <time>2021-08-05T07:31:41Z</time>
      </trkpt>
      <trkpt lat="48.20799" lon="7.17977">
        <ele>1086.2</ele>
        <time>2021-08-05T07:31:42Z</time>
      </trkpt>
      <trkpt lat="48.20799" lon="7.17977">
        <ele>1086.2</ele>
        <time>2021-08-05T07:31:43Z</time>
      </trkpt>
      <trkpt lat="48.20799" lon="7.17976">
        <ele>1086.2</ele>
        <time>2021-08-05T07:31:45Z</time>
      </trkpt>
      <trkpt lat="48.20798" lon="7.17974">
        <ele>1086.3</ele>
        <time>2021-08-05T07:31:47Z</time>
      </trkpt>
      <trkpt lat="48.20798" lon="7.17972">
        <ele>1086.3</ele>
        <time>2021-08-05T07:31:48Z</time>
      </trkpt>
      <trkpt lat="48.20797" lon="7.17971">
        <ele>1086.3</ele>
        <time>2021-08-05T07:31:49Z</time>
      </trkpt>
      <trkpt lat="48.20797" lon="7.17969">
        <ele>1086.4</ele>
        <time>2021-08-05T07:31:51Z</time>
      </trkpt>
      <trkpt lat="48.20792" lon="7.17954">
        <ele>1086.6</ele>
        <time>2021-08-05T07:31:57Z</time>
      </trkpt>
      <trkpt lat="48.20791" lon="7.17952">
        <ele>1086.7</ele>
        <time>2021-08-05T07:31:58Z</time>
      </trkpt>
      <trkpt lat="48.2079" lon="7.17947">
        <ele>1086.8</ele>
        <time>2021-08-05T07:32:00Z</time>
      </trkpt>
      <trkpt lat="48.20789" lon="7.17943">
        <ele>1086.8</ele>
        <time>2021-08-05T07:32:01Z</time>
      </trkpt>
      <trkpt lat="48.20789" lon="7.17941">
        <ele>1086.9</ele>
        <time>2021-08-05T07:32:02Z</time>
      </trkpt>
      <trkpt lat="48.20787" lon="7.17939">
        <ele>1086.9</ele>
        <time>2021-08-05T07:32:03Z</time>
      </trkpt>
      <trkpt lat="48.20786" lon="7.17939">
        <ele>1086.9</ele>
        <time>2021-08-05T07:32:04Z</time>
      </trkpt>
      <trkpt lat="48.20785" lon="7.17938">
        <ele>1087</ele>
        <time>2021-08-05T07:32:05Z</time>
      </trkpt>
      <trkpt lat="48.20784" lon="7.17937">
        <ele>1087</ele>
        <time>2021-08-05T07:32:06Z</time>
      </trkpt>
      <trkpt lat="48.20782" lon="7.17935">
        <ele>1087.1</ele>
        <time>2021-08-05T07:32:08Z</time>
      </trkpt>
      <trkpt lat="48.20781" lon="7.17934">
        <ele>1087.1</ele>
        <time>2021-08-05T07:32:09Z</time>
      </trkpt>
      <trkpt lat="48.2078" lon="7.17934">
        <ele>1087.1</ele>
        <time>2021-08-05T07:32:10Z</time>
      </trkpt>
      <trkpt lat="48.2078" lon="7.17932">
        <ele>1087.1</ele>
        <time>2021-08-05T07:32:12Z</time>
      </trkpt>
      <trkpt lat="48.20779" lon="7.1793">
        <ele>1087.1</ele>
        <time>2021-08-05T07:32:13Z</time>
      </trkpt>
      <trkpt lat="48.20779" lon="7.17928">
        <ele>1087.1</ele>
        <time>2021-08-05T07:32:14Z</time>
      </trkpt>
      <trkpt lat="48.20778" lon="7.17926">
        <ele>1087.2</ele>
        <time>2021-08-05T07:32:15Z</time>
      </trkpt>
      <trkpt lat="48.20776" lon="7.17922">
        <ele>1087.2</ele>
        <time>2021-08-05T07:32:17Z</time>
      </trkpt>
      <trkpt lat="48.20775" lon="7.17919">
        <ele>1087.2</ele>
        <time>2021-08-05T07:32:18Z</time>
      </trkpt>
      <trkpt lat="48.20772" lon="7.17911">
        <ele>1087.3</ele>
        <time>2021-08-05T07:32:22Z</time>
      </trkpt>
      <trkpt lat="48.20769" lon="7.17904">
        <ele>1087.3</ele>
        <time>2021-08-05T07:32:23Z</time>
      </trkpt>
      <trkpt lat="48.20767" lon="7.179">
        <ele>1087.3</ele>
        <time>2021-08-05T07:32:24Z</time>
      </trkpt>
      <trkpt lat="48.20766" lon="7.17898">
        <ele>1087.3</ele>
        <time>2021-08-05T07:32:25Z</time>
      </trkpt>
      <trkpt lat="48.20765" lon="7.17894">
        <ele>1087.3</ele>
        <time>2021-08-05T07:32:26Z</time>
      </trkpt>
      <trkpt lat="48.20764" lon="7.1789">
        <ele>1087.3</ele>
        <time>2021-08-05T07:32:28Z</time>
      </trkpt>
      <trkpt lat="48.20762" lon="7.17886">
        <ele>1087.2</ele>
        <time>2021-08-05T07:32:29Z</time>
      </trkpt>
      <trkpt lat="48.20761" lon="7.17881">
        <ele>1087.2</ele>
        <time>2021-08-05T07:32:31Z</time>
      </trkpt>
      <trkpt lat="48.20759" lon="7.17874">
        <ele>1087.2</ele>
        <time>2021-08-05T07:32:33Z</time>
      </trkpt>
      <trkpt lat="48.20758" lon="7.1787">
        <ele>1087.2</ele>
        <time>2021-08-05T07:32:34Z</time>
      </trkpt>
      <trkpt lat="48.20757" lon="7.17868">
        <ele>1087.1</ele>
        <time>2021-08-05T07:32:35Z</time>
      </trkpt>
      <trkpt lat="48.20756" lon="7.17865">
        <ele>1087.1</ele>
        <time>2021-08-05T07:32:36Z</time>
      </trkpt>
      <trkpt lat="48.20754" lon="7.17859">
        <ele>1087</ele>
        <time>2021-08-05T07:32:37Z</time>
      </trkpt>
      <trkpt lat="48.20753" lon="7.17857">
        <ele>1087</ele>
        <time>2021-08-05T07:32:38Z</time>
      </trkpt>
      <trkpt lat="48.20752" lon="7.17854">
        <ele>1087</ele>
        <time>2021-08-05T07:32:39Z</time>
      </trkpt>
      <trkpt lat="48.20751" lon="7.1785">
        <ele>1086.9</ele>
        <time>2021-08-05T07:32:41Z</time>
      </trkpt>
      <trkpt lat="48.20749" lon="7.17847">
        <ele>1086.9</ele>
        <time>2021-08-05T07:32:42Z</time>
      </trkpt>
      <trkpt lat="48.20748" lon="7.17844">
        <ele>1086.8</ele>
        <time>2021-08-05T07:32:44Z</time>
      </trkpt>
      <trkpt lat="48.20747" lon="7.17842">
        <ele>1086.7</ele>
        <time>2021-08-05T07:32:45Z</time>
      </trkpt>
      <trkpt lat="48.20746" lon="7.17838">
        <ele>1086.6</ele>
        <time>2021-08-05T07:32:47Z</time>
      </trkpt>
      <trkpt lat="48.20744" lon="7.17832">
        <ele>1086.4</ele>
        <time>2021-08-05T07:32:48Z</time>
      </trkpt>
      <trkpt lat="48.20744" lon="7.1783">
        <ele>1086.4</ele>
        <time>2021-08-05T07:32:49Z</time>
      </trkpt>
      <trkpt lat="48.20742" lon="7.17825">
        <ele>1086.2</ele>
        <time>2021-08-05T07:32:50Z</time>
      </trkpt>
      <trkpt lat="48.20741" lon="7.17823">
        <ele>1086.2</ele>
        <time>2021-08-05T07:32:51Z</time>
      </trkpt>
      <trkpt lat="48.20739" lon="7.17818">
        <ele>1086</ele>
        <time>2021-08-05T07:32:53Z</time>
      </trkpt>
      <trkpt lat="48.20738" lon="7.17813">
        <ele>1085.9</ele>
        <time>2021-08-05T07:32:54Z</time>
      </trkpt>
      <trkpt lat="48.20734" lon="7.17806">
        <ele>1085.7</ele>
        <time>2021-08-05T07:32:56Z</time>
      </trkpt>
      <trkpt lat="48.20731" lon="7.17801">
        <ele>1085.6</ele>
        <time>2021-08-05T07:32:57Z</time>
      </trkpt>
      <trkpt lat="48.20728" lon="7.17795">
        <ele>1085.4</ele>
        <time>2021-08-05T07:32:58Z</time>
      </trkpt>
      <trkpt lat="48.20726" lon="7.17791">
        <ele>1085.3</ele>
        <time>2021-08-05T07:32:59Z</time>
      </trkpt>
      <trkpt lat="48.20724" lon="7.17788">
        <ele>1085.2</ele>
        <time>2021-08-05T07:33:00Z</time>
      </trkpt>
      <trkpt lat="48.20721" lon="7.17783">
        <ele>1085.1</ele>
        <time>2021-08-05T07:33:02Z</time>
      </trkpt>
      <trkpt lat="48.20719" lon="7.17779">
        <ele>1085</ele>
        <time>2021-08-05T07:33:03Z</time>
      </trkpt>
      <trkpt lat="48.20716" lon="7.17776">
        <ele>1085</ele>
        <time>2021-08-05T07:33:04Z</time>
      </trkpt>
      <trkpt lat="48.20713" lon="7.17771">
        <ele>1084.9</ele>
        <time>2021-08-05T07:33:06Z</time>
      </trkpt>
      <trkpt lat="48.2071" lon="7.17768">
        <ele>1084.8</ele>
        <time>2021-08-05T07:33:07Z</time>
      </trkpt>
      <trkpt lat="48.20707" lon="7.17764">
        <ele>1084.8</ele>
        <time>2021-08-05T07:33:08Z</time>
      </trkpt>
      <trkpt lat="48.20706" lon="7.17763">
        <ele>1084.8</ele>
        <time>2021-08-05T07:33:09Z</time>
      </trkpt>
      <trkpt lat="48.20704" lon="7.17759">
        <ele>1084.8</ele>
        <time>2021-08-05T07:33:10Z</time>
      </trkpt>
      <trkpt lat="48.20702" lon="7.17754">
        <ele>1084.8</ele>
        <time>2021-08-05T07:33:12Z</time>
      </trkpt>
      <trkpt lat="48.20702" lon="7.17753">
        <ele>1084.8</ele>
        <time>2021-08-05T07:33:13Z</time>
      </trkpt>
      <trkpt lat="48.20701" lon="7.17751">
        <ele>1084.8</ele>
        <time>2021-08-05T07:33:14Z</time>
      </trkpt>
      <trkpt lat="48.207" lon="7.17747">
        <ele>1084.9</ele>
        <time>2021-08-05T07:33:15Z</time>
      </trkpt>
      <trkpt lat="48.20698" lon="7.17743">
        <ele>1084.9</ele>
        <time>2021-08-05T07:33:17Z</time>
      </trkpt>
      <trkpt lat="48.20697" lon="7.17742">
        <ele>1084.9</ele>
        <time>2021-08-05T07:33:18Z</time>
      </trkpt>
      <trkpt lat="48.20696" lon="7.17741">
        <ele>1085</ele>
        <time>2021-08-05T07:33:19Z</time>
      </trkpt>
      <trkpt lat="48.20693" lon="7.17738">
        <ele>1085.1</ele>
        <time>2021-08-05T07:33:21Z</time>
      </trkpt>
      <trkpt lat="48.2069" lon="7.17735">
        <ele>1085.2</ele>
        <time>2021-08-05T07:33:23Z</time>
      </trkpt>
      <trkpt lat="48.20689" lon="7.17733">
        <ele>1085.2</ele>
        <time>2021-08-05T07:33:24Z</time>
      </trkpt>
      <trkpt lat="48.20687" lon="7.17729">
        <ele>1085.4</ele>
        <time>2021-08-05T07:33:26Z</time>
      </trkpt>
      <trkpt lat="48.20687" lon="7.17728">
        <ele>1085.4</ele>
        <time>2021-08-05T07:33:27Z</time>
      </trkpt>
      <trkpt lat="48.20686" lon="7.17725">
        <ele>1085.5</ele>
        <time>2021-08-05T07:33:28Z</time>
      </trkpt>
      <trkpt lat="48.20685" lon="7.17722">
        <ele>1085.6</ele>
        <time>2021-08-05T07:33:29Z</time>
      </trkpt>
      <trkpt lat="48.20684" lon="7.17718">
        <ele>1085.7</ele>
        <time>2021-08-05T07:33:31Z</time>
      </trkpt>
      <trkpt lat="48.20684" lon="7.17717">
        <ele>1085.8</ele>
        <time>2021-08-05T07:33:32Z</time>
      </trkpt>
      <trkpt lat="48.20683" lon="7.17714">
        <ele>1085.9</ele>
        <time>2021-08-05T07:33:34Z</time>
      </trkpt>
      <trkpt lat="48.20681" lon="7.17711">
        <ele>1086</ele>
        <time>2021-08-05T07:33:36Z</time>
      </trkpt>
      <trkpt lat="48.20681" lon="7.17709">
        <ele>1086.1</ele>
        <time>2021-08-05T07:33:37Z</time>
      </trkpt>
      <trkpt lat="48.20679" lon="7.17706">
        <ele>1086.3</ele>
        <time>2021-08-05T07:33:39Z</time>
      </trkpt>
      <trkpt lat="48.20678" lon="7.17705">
        <ele>1086.3</ele>
        <time>2021-08-05T07:33:40Z</time>
      </trkpt>
      <trkpt lat="48.20678" lon="7.17703">
        <ele>1086.4</ele>
        <time>2021-08-05T07:33:41Z</time>
      </trkpt>
      <trkpt lat="48.20677" lon="7.17702">
        <ele>1086.5</ele>
        <time>2021-08-05T07:33:43Z</time>
      </trkpt>
      <trkpt lat="48.20676" lon="7.17701">
        <ele>1086.5</ele>
        <time>2021-08-05T07:33:44Z</time>
      </trkpt>
      <trkpt lat="48.20676" lon="7.177">
        <ele>1086.5</ele>
        <time>2021-08-05T07:33:46Z</time>
      </trkpt>
      <trkpt lat="48.20676" lon="7.177">
        <ele>1086.6</ele>
        <time>2021-08-05T07:33:47Z</time>
      </trkpt>
      <trkpt lat="48.20676" lon="7.17699">
        <ele>1086.6</ele>
        <time>2021-08-05T07:33:48Z</time>
      </trkpt>
      <trkpt lat="48.20676" lon="7.17698">
        <ele>1086.7</ele>
        <time>2021-08-05T07:33:49Z</time>
      </trkpt>
      <trkpt lat="48.20676" lon="7.17697">
        <ele>1086.7</ele>
        <time>2021-08-05T07:33:50Z</time>
      </trkpt>
      <trkpt lat="48.20675" lon="7.17695">
        <ele>1086.8</ele>
        <time>2021-08-05T07:33:52Z</time>
      </trkpt>
      <trkpt lat="48.20675" lon="7.17693">
        <ele>1086.9</ele>
        <time>2021-08-05T07:33:53Z</time>
      </trkpt>
      <trkpt lat="48.20669" lon="7.17674">
        <ele>1087.7</ele>
        <time>2021-08-05T07:34:03Z</time>
      </trkpt>
      <trkpt lat="48.20668" lon="7.17671">
        <ele>1087.9</ele>
        <time>2021-08-05T07:34:04Z</time>
      </trkpt>
      <trkpt lat="48.20667" lon="7.17665">
        <ele>1088.1</ele>
        <time>2021-08-05T07:34:06Z</time>
      </trkpt>
      <trkpt lat="48.20666" lon="7.17663">
        <ele>1088.2</ele>
        <time>2021-08-05T07:34:07Z</time>
      </trkpt>
      <trkpt lat="48.20665" lon="7.17661">
        <ele>1088.2</ele>
        <time>2021-08-05T07:34:08Z</time>
      </trkpt>
      <trkpt lat="48.20664" lon="7.17659">
        <ele>1088.3</ele>
        <time>2021-08-05T07:34:09Z</time>
      </trkpt>
      <trkpt lat="48.20663" lon="7.17655">
        <ele>1088.4</ele>
        <time>2021-08-05T07:34:11Z</time>
      </trkpt>
      <trkpt lat="48.20663" lon="7.17654">
        <ele>1088.5</ele>
        <time>2021-08-05T07:34:12Z</time>
      </trkpt>
      <trkpt lat="48.20662" lon="7.17652">
        <ele>1088.5</ele>
        <time>2021-08-05T07:34:13Z</time>
      </trkpt>
      <trkpt lat="48.20661" lon="7.1765">
        <ele>1088.6</ele>
        <time>2021-08-05T07:34:14Z</time>
      </trkpt>
      <trkpt lat="48.2066" lon="7.17648">
        <ele>1088.7</ele>
        <time>2021-08-05T07:34:15Z</time>
      </trkpt>
      <trkpt lat="48.20659" lon="7.17646">
        <ele>1088.7</ele>
        <time>2021-08-05T07:34:16Z</time>
      </trkpt>
      <trkpt lat="48.20658" lon="7.17645">
        <ele>1088.8</ele>
        <time>2021-08-05T07:34:17Z</time>
      </trkpt>
      <trkpt lat="48.20657" lon="7.17643">
        <ele>1088.8</ele>
        <time>2021-08-05T07:34:18Z</time>
      </trkpt>
      <trkpt lat="48.20657" lon="7.17642">
        <ele>1088.9</ele>
        <time>2021-08-05T07:34:19Z</time>
      </trkpt>
      <trkpt lat="48.20656" lon="7.17638">
        <ele>1089</ele>
        <time>2021-08-05T07:34:21Z</time>
      </trkpt>
      <trkpt lat="48.20655" lon="7.17636">
        <ele>1089.1</ele>
        <time>2021-08-05T07:34:22Z</time>
      </trkpt>
      <trkpt lat="48.20654" lon="7.17635">
        <ele>1089.1</ele>
        <time>2021-08-05T07:34:23Z</time>
      </trkpt>
      <trkpt lat="48.20652" lon="7.17632">
        <ele>1089.2</ele>
        <time>2021-08-05T07:34:25Z</time>
      </trkpt>
      <trkpt lat="48.2065" lon="7.17628">
        <ele>1089.4</ele>
        <time>2021-08-05T07:34:27Z</time>
      </trkpt>
      <trkpt lat="48.20647" lon="7.17624">
        <ele>1089.6</ele>
        <time>2021-08-05T07:34:28Z</time>
      </trkpt>
      <trkpt lat="48.20646" lon="7.17622">
        <ele>1089.6</ele>
        <time>2021-08-05T07:34:29Z</time>
      </trkpt>
      <trkpt lat="48.20645" lon="7.1762">
        <ele>1089.7</ele>
        <time>2021-08-05T07:34:30Z</time>
      </trkpt>
      <trkpt lat="48.20643" lon="7.17617">
        <ele>1089.8</ele>
        <time>2021-08-05T07:34:32Z</time>
      </trkpt>
      <trkpt lat="48.20641" lon="7.17614">
        <ele>1090</ele>
        <time>2021-08-05T07:34:33Z</time>
      </trkpt>
      <trkpt lat="48.20638" lon="7.17609">
        <ele>1090.1</ele>
        <time>2021-08-05T07:34:35Z</time>
      </trkpt>
      <trkpt lat="48.20636" lon="7.17605">
        <ele>1090.2</ele>
        <time>2021-08-05T07:34:36Z</time>
      </trkpt>
      <trkpt lat="48.20635" lon="7.17603">
        <ele>1090.2</ele>
        <time>2021-08-05T07:34:37Z</time>
      </trkpt>
      <trkpt lat="48.20634" lon="7.176">
        <ele>1090.3</ele>
        <time>2021-08-05T07:34:38Z</time>
      </trkpt>
      <trkpt lat="48.20631" lon="7.17594">
        <ele>1090.4</ele>
        <time>2021-08-05T07:34:40Z</time>
      </trkpt>
      <trkpt lat="48.2063" lon="7.17592">
        <ele>1090.4</ele>
        <time>2021-08-05T07:34:41Z</time>
      </trkpt>
      <trkpt lat="48.20629" lon="7.1759">
        <ele>1090.4</ele>
        <time>2021-08-05T07:34:42Z</time>
      </trkpt>
      <trkpt lat="48.20628" lon="7.17588">
        <ele>1090.5</ele>
        <time>2021-08-05T07:34:43Z</time>
      </trkpt>
      <trkpt lat="48.20625" lon="7.17583">
        <ele>1090.6</ele>
        <time>2021-08-05T07:34:45Z</time>
      </trkpt>
      <trkpt lat="48.20624" lon="7.17582">
        <ele>1090.6</ele>
        <time>2021-08-05T07:34:46Z</time>
      </trkpt>
      <trkpt lat="48.20623" lon="7.1758">
        <ele>1090.6</ele>
        <time>2021-08-05T07:34:47Z</time>
      </trkpt>
      <trkpt lat="48.20622" lon="7.17577">
        <ele>1090.7</ele>
        <time>2021-08-05T07:34:49Z</time>
      </trkpt>
      <trkpt lat="48.2062" lon="7.17574">
        <ele>1090.8</ele>
        <time>2021-08-05T07:34:51Z</time>
      </trkpt>
      <trkpt lat="48.20618" lon="7.17571">
        <ele>1090.9</ele>
        <time>2021-08-05T07:34:52Z</time>
      </trkpt>
      <trkpt lat="48.20617" lon="7.17569">
        <ele>1090.9</ele>
        <time>2021-08-05T07:34:54Z</time>
      </trkpt>
      <trkpt lat="48.20616" lon="7.17566">
        <ele>1091</ele>
        <time>2021-08-05T07:34:55Z</time>
      </trkpt>
      <trkpt lat="48.20613" lon="7.17562">
        <ele>1091.1</ele>
        <time>2021-08-05T07:34:57Z</time>
      </trkpt>
      <trkpt lat="48.20612" lon="7.17561">
        <ele>1091.2</ele>
        <time>2021-08-05T07:34:58Z</time>
      </trkpt>
      <trkpt lat="48.2061" lon="7.17559">
        <ele>1091.2</ele>
        <time>2021-08-05T07:34:59Z</time>
      </trkpt>
      <trkpt lat="48.20607" lon="7.17557">
        <ele>1091.3</ele>
        <time>2021-08-05T07:35:01Z</time>
      </trkpt>
      <trkpt lat="48.20604" lon="7.17554">
        <ele>1091.4</ele>
        <time>2021-08-05T07:35:03Z</time>
      </trkpt>
      <trkpt lat="48.206" lon="7.17551">
        <ele>1091.5</ele>
        <time>2021-08-05T07:35:04Z</time>
      </trkpt>
      <trkpt lat="48.20598" lon="7.1755">
        <ele>1091.5</ele>
        <time>2021-08-05T07:35:05Z</time>
      </trkpt>
      <trkpt lat="48.20594" lon="7.17547">
        <ele>1091.5</ele>
        <time>2021-08-05T07:35:07Z</time>
      </trkpt>
      <trkpt lat="48.20591" lon="7.17543">
        <ele>1091.5</ele>
        <time>2021-08-05T07:35:08Z</time>
      </trkpt>
      <trkpt lat="48.20588" lon="7.1754">
        <ele>1091.5</ele>
        <time>2021-08-05T07:35:09Z</time>
      </trkpt>
      <trkpt lat="48.20583" lon="7.17534">
        <ele>1091.4</ele>
        <time>2021-08-05T07:35:10Z</time>
      </trkpt>
      <trkpt lat="48.20578" lon="7.17529">
        <ele>1091.2</ele>
        <time>2021-08-05T07:35:12Z</time>
      </trkpt>
      <trkpt lat="48.20573" lon="7.17524">
        <ele>1091</ele>
        <time>2021-08-05T07:35:13Z</time>
      </trkpt>
      <trkpt lat="48.20568" lon="7.17518">
        <ele>1090.8</ele>
        <time>2021-08-05T07:35:15Z</time>
      </trkpt>
      <trkpt lat="48.20563" lon="7.17512">
        <ele>1090.5</ele>
        <time>2021-08-05T07:35:16Z</time>
      </trkpt>
      <trkpt lat="48.20559" lon="7.17507">
        <ele>1090.3</ele>
        <time>2021-08-05T07:35:17Z</time>
      </trkpt>
      <trkpt lat="48.20555" lon="7.17504">
        <ele>1090.1</ele>
        <time>2021-08-05T07:35:19Z</time>
      </trkpt>
      <trkpt lat="48.20552" lon="7.17501">
        <ele>1089.9</ele>
        <time>2021-08-05T07:35:20Z</time>
      </trkpt>
      <trkpt lat="48.20547" lon="7.17497">
        <ele>1089.7</ele>
        <time>2021-08-05T07:35:21Z</time>
      </trkpt>
      <trkpt lat="48.20544" lon="7.17493">
        <ele>1089.6</ele>
        <time>2021-08-05T07:35:23Z</time>
      </trkpt>
      <trkpt lat="48.20542" lon="7.17489">
        <ele>1089.6</ele>
        <time>2021-08-05T07:35:25Z</time>
      </trkpt>
      <trkpt lat="48.20538" lon="7.17486">
        <ele>1089.6</ele>
        <time>2021-08-05T07:35:26Z</time>
      </trkpt>
      <trkpt lat="48.20536" lon="7.17483">
        <ele>1089.6</ele>
        <time>2021-08-05T07:35:28Z</time>
      </trkpt>
      <trkpt lat="48.20535" lon="7.17482">
        <ele>1089.6</ele>
        <time>2021-08-05T07:35:29Z</time>
      </trkpt>
      <trkpt lat="48.20534" lon="7.1748">
        <ele>1089.7</ele>
        <time>2021-08-05T07:35:30Z</time>
      </trkpt>
      <trkpt lat="48.20532" lon="7.17478">
        <ele>1089.7</ele>
        <time>2021-08-05T07:35:31Z</time>
      </trkpt>
      <trkpt lat="48.20531" lon="7.17477">
        <ele>1089.8</ele>
        <time>2021-08-05T07:35:33Z</time>
      </trkpt>
      <trkpt lat="48.2053" lon="7.17476">
        <ele>1089.8</ele>
        <time>2021-08-05T07:35:34Z</time>
      </trkpt>
      <trkpt lat="48.20529" lon="7.17476">
        <ele>1089.9</ele>
        <time>2021-08-05T07:35:36Z</time>
      </trkpt>
      <trkpt lat="48.20528" lon="7.17475">
        <ele>1089.9</ele>
        <time>2021-08-05T07:35:37Z</time>
      </trkpt>
      <trkpt lat="48.20525" lon="7.17473">
        <ele>1090.1</ele>
        <time>2021-08-05T07:35:38Z</time>
      </trkpt>
      <trkpt lat="48.20525" lon="7.17472">
        <ele>1090.1</ele>
        <time>2021-08-05T07:35:39Z</time>
      </trkpt>
      <trkpt lat="48.20522" lon="7.17469">
        <ele>1090.3</ele>
        <time>2021-08-05T07:35:41Z</time>
      </trkpt>
      <trkpt lat="48.20521" lon="7.17468">
        <ele>1090.4</ele>
        <time>2021-08-05T07:35:42Z</time>
      </trkpt>
      <trkpt lat="48.20521" lon="7.17468">
        <ele>1090.4</ele>
        <time>2021-08-05T07:35:44Z</time>
      </trkpt>
      <trkpt lat="48.2052" lon="7.17468">
        <ele>1090.4</ele>
        <time>2021-08-05T07:35:45Z</time>
      </trkpt>
      <trkpt lat="48.20519" lon="7.17468">
        <ele>1090.5</ele>
        <time>2021-08-05T07:35:46Z</time>
      </trkpt>
      <trkpt lat="48.20518" lon="7.17467">
        <ele>1090.5</ele>
        <time>2021-08-05T07:35:48Z</time>
      </trkpt>
      <trkpt lat="48.20517" lon="7.17467">
        <ele>1090.7</ele>
        <time>2021-08-05T07:35:49Z</time>
      </trkpt>
      <trkpt lat="48.20513" lon="7.17463">
        <ele>1091</ele>
        <time>2021-08-05T07:35:51Z</time>
      </trkpt>
      <trkpt lat="48.2051" lon="7.17461">
        <ele>1091.2</ele>
        <time>2021-08-05T07:35:57Z</time>
      </trkpt>
      <trkpt lat="48.20507" lon="7.17458">
        <ele>1091.5</ele>
        <time>2021-08-05T07:35:59Z</time>
      </trkpt>
      <trkpt lat="48.20505" lon="7.17455">
        <ele>1091.7</ele>
        <time>2021-08-05T07:36:00Z</time>
      </trkpt>
      <trkpt lat="48.20502" lon="7.17453">
        <ele>1092</ele>
        <time>2021-08-05T07:36:01Z</time>
      </trkpt>
      <trkpt lat="48.20501" lon="7.17452">
        <ele>1092.1</ele>
        <time>2021-08-05T07:36:02Z</time>
      </trkpt>
      <trkpt lat="48.205" lon="7.17451">
        <ele>1092.1</ele>
        <time>2021-08-05T07:36:03Z</time>
      </trkpt>
      <trkpt lat="48.205" lon="7.1745">
        <ele>1092.2</ele>
        <time>2021-08-05T07:36:05Z</time>
      </trkpt>
      <trkpt lat="48.20498" lon="7.17449">
        <ele>1092.3</ele>
        <time>2021-08-05T07:36:06Z</time>
      </trkpt>
      <trkpt lat="48.20498" lon="7.17448">
        <ele>1092.4</ele>
        <time>2021-08-05T07:36:07Z</time>
      </trkpt>
      <trkpt lat="48.20497" lon="7.17447">
        <ele>1092.5</ele>
        <time>2021-08-05T07:36:08Z</time>
      </trkpt>
      <trkpt lat="48.20495" lon="7.17445">
        <ele>1092.7</ele>
        <time>2021-08-05T07:36:10Z</time>
      </trkpt>
      <trkpt lat="48.20494" lon="7.17443">
        <ele>1092.9</ele>
        <time>2021-08-05T07:36:11Z</time>
      </trkpt>
      <trkpt lat="48.20478" lon="7.17431">
        <ele>1094.7</ele>
        <time>2021-08-05T07:36:23Z</time>
      </trkpt>
      <trkpt lat="48.20475" lon="7.17428">
        <ele>1095.1</ele>
        <time>2021-08-05T07:36:24Z</time>
      </trkpt>
      <trkpt lat="48.20471" lon="7.17422">
        <ele>1095.7</ele>
        <time>2021-08-05T07:36:26Z</time>
      </trkpt>
      <trkpt lat="48.20468" lon="7.17419">
        <ele>1096.2</ele>
        <time>2021-08-05T07:36:27Z</time>
      </trkpt>
      <trkpt lat="48.20467" lon="7.17418">
        <ele>1096.4</ele>
        <time>2021-08-05T07:36:28Z</time>
      </trkpt>
      <trkpt lat="48.20464" lon="7.17415">
        <ele>1096.7</ele>
        <time>2021-08-05T07:36:30Z</time>
      </trkpt>
      <trkpt lat="48.20462" lon="7.17412">
        <ele>1097.1</ele>
        <time>2021-08-05T07:36:31Z</time>
      </trkpt>
      <trkpt lat="48.20459" lon="7.1741">
        <ele>1097.4</ele>
        <time>2021-08-05T07:36:32Z</time>
      </trkpt>
      <trkpt lat="48.20459" lon="7.1741">
        <ele>1097.5</ele>
        <time>2021-08-05T07:36:33Z</time>
      </trkpt>
      <trkpt lat="48.20456" lon="7.17407">
        <ele>1097.9</ele>
        <time>2021-08-05T07:36:34Z</time>
      </trkpt>
      <trkpt lat="48.20454" lon="7.17405">
        <ele>1098.2</ele>
        <time>2021-08-05T07:36:35Z</time>
      </trkpt>
      <trkpt lat="48.20452" lon="7.17404">
        <ele>1098.3</ele>
        <time>2021-08-05T07:36:37Z</time>
      </trkpt>
      <trkpt lat="48.20451" lon="7.17404">
        <ele>1098.5</ele>
        <time>2021-08-05T07:36:38Z</time>
      </trkpt>
      <trkpt lat="48.20448" lon="7.17401">
        <ele>1098.9</ele>
        <time>2021-08-05T07:36:40Z</time>
      </trkpt>
      <trkpt lat="48.20446" lon="7.17398">
        <ele>1099.2</ele>
        <time>2021-08-05T07:36:41Z</time>
      </trkpt>
      <trkpt lat="48.20445" lon="7.17398">
        <ele>1099.2</ele>
        <time>2021-08-05T07:36:42Z</time>
      </trkpt>
      <trkpt lat="48.20442" lon="7.17394">
        <ele>1099.6</ele>
        <time>2021-08-05T07:36:44Z</time>
      </trkpt>
      <trkpt lat="48.20441" lon="7.17393">
        <ele>1099.7</ele>
        <time>2021-08-05T07:36:45Z</time>
      </trkpt>
      <trkpt lat="48.2044" lon="7.17392">
        <ele>1099.9</ele>
        <time>2021-08-05T07:36:46Z</time>
      </trkpt>
      <trkpt lat="48.20439" lon="7.17391">
        <ele>1100</ele>
        <time>2021-08-05T07:36:47Z</time>
      </trkpt>
      <trkpt lat="48.20437" lon="7.1739">
        <ele>1100.1</ele>
        <time>2021-08-05T07:36:48Z</time>
      </trkpt>
      <trkpt lat="48.20435" lon="7.17388">
        <ele>1100.3</ele>
        <time>2021-08-05T07:36:50Z</time>
      </trkpt>
      <trkpt lat="48.20433" lon="7.17385">
        <ele>1100.5</ele>
        <time>2021-08-05T07:36:51Z</time>
      </trkpt>
      <trkpt lat="48.20432" lon="7.17384">
        <ele>1100.6</ele>
        <time>2021-08-05T07:36:52Z</time>
      </trkpt>
      <trkpt lat="48.2043" lon="7.17382">
        <ele>1100.8</ele>
        <time>2021-08-05T07:36:53Z</time>
      </trkpt>
      <trkpt lat="48.20429" lon="7.17381">
        <ele>1100.9</ele>
        <time>2021-08-05T07:36:54Z</time>
      </trkpt>
      <trkpt lat="48.20427" lon="7.17379">
        <ele>1101.1</ele>
        <time>2021-08-05T07:36:56Z</time>
      </trkpt>
      <trkpt lat="48.20425" lon="7.17378">
        <ele>1101.2</ele>
        <time>2021-08-05T07:36:58Z</time>
      </trkpt>
      <trkpt lat="48.20423" lon="7.17375">
        <ele>1101.4</ele>
        <time>2021-08-05T07:36:59Z</time>
      </trkpt>
      <trkpt lat="48.20421" lon="7.17374">
        <ele>1101.5</ele>
        <time>2021-08-05T07:37:00Z</time>
      </trkpt>
      <trkpt lat="48.20421" lon="7.17374">
        <ele>1101.6</ele>
        <time>2021-08-05T07:37:02Z</time>
      </trkpt>
      <trkpt lat="48.2042" lon="7.17373">
        <ele>1101.6</ele>
        <time>2021-08-05T07:37:03Z</time>
      </trkpt>
      <trkpt lat="48.20419" lon="7.17371">
        <ele>1101.7</ele>
        <time>2021-08-05T07:37:04Z</time>
      </trkpt>
      <trkpt lat="48.20416" lon="7.17367">
        <ele>1102</ele>
        <time>2021-08-05T07:37:06Z</time>
      </trkpt>
      <trkpt lat="48.20415" lon="7.17366">
        <ele>1102</ele>
        <time>2021-08-05T07:37:07Z</time>
      </trkpt>
      <trkpt lat="48.20414" lon="7.17365">
        <ele>1102.1</ele>
        <time>2021-08-05T07:37:08Z</time>
      </trkpt>
      <trkpt lat="48.20413" lon="7.17364">
        <ele>1102.2</ele>
        <time>2021-08-05T07:37:09Z</time>
      </trkpt>
      <trkpt lat="48.20411" lon="7.17361">
        <ele>1102.3</ele>
        <time>2021-08-05T07:37:10Z</time>
      </trkpt>
      <trkpt lat="48.20409" lon="7.17359">
        <ele>1102.4</ele>
        <time>2021-08-05T07:37:12Z</time>
      </trkpt>
      <trkpt lat="48.20407" lon="7.17355">
        <ele>1102.6</ele>
        <time>2021-08-05T07:37:14Z</time>
      </trkpt>
      <trkpt lat="48.20403" lon="7.17351">
        <ele>1102.7</ele>
        <time>2021-08-05T07:37:16Z</time>
      </trkpt>
      <trkpt lat="48.20401" lon="7.17349">
        <ele>1102.9</ele>
        <time>2021-08-05T07:37:17Z</time>
      </trkpt>
      <trkpt lat="48.204" lon="7.17348">
        <ele>1102.9</ele>
        <time>2021-08-05T07:37:18Z</time>
      </trkpt>
      <trkpt lat="48.20397" lon="7.17346">
        <ele>1103</ele>
        <time>2021-08-05T07:37:19Z</time>
      </trkpt>
      <trkpt lat="48.20394" lon="7.17343">
        <ele>1103.1</ele>
        <time>2021-08-05T07:37:20Z</time>
      </trkpt>
      <trkpt lat="48.20393" lon="7.17342">
        <ele>1103.1</ele>
        <time>2021-08-05T07:37:21Z</time>
      </trkpt>
      <trkpt lat="48.20389" lon="7.17339">
        <ele>1103.2</ele>
        <time>2021-08-05T07:37:22Z</time>
      </trkpt>
      <trkpt lat="48.20385" lon="7.17336">
        <ele>1103.3</ele>
        <time>2021-08-05T07:37:24Z</time>
      </trkpt>
      <trkpt lat="48.20381" lon="7.17333">
        <ele>1103.4</ele>
        <time>2021-08-05T07:37:26Z</time>
      </trkpt>
      <trkpt lat="48.20378" lon="7.1733">
        <ele>1103.4</ele>
        <time>2021-08-05T07:37:27Z</time>
      </trkpt>
      <trkpt lat="48.20376" lon="7.1733">
        <ele>1103.4</ele>
        <time>2021-08-05T07:37:28Z</time>
      </trkpt>
      <trkpt lat="48.20374" lon="7.17328">
        <ele>1103.5</ele>
        <time>2021-08-05T07:37:29Z</time>
      </trkpt>
      <trkpt lat="48.2037" lon="7.17327">
        <ele>1103.5</ele>
        <time>2021-08-05T07:37:30Z</time>
      </trkpt>
      <trkpt lat="48.2037" lon="7.17327">
        <ele>1103.5</ele>
        <time>2021-08-05T07:37:31Z</time>
      </trkpt>
      <trkpt lat="48.20368" lon="7.17326">
        <ele>1103.6</ele>
        <time>2021-08-05T07:37:32Z</time>
      </trkpt>
      <trkpt lat="48.20366" lon="7.17325">
        <ele>1103.6</ele>
        <time>2021-08-05T07:37:33Z</time>
      </trkpt>
      <trkpt lat="48.20365" lon="7.17324">
        <ele>1103.6</ele>
        <time>2021-08-05T07:37:34Z</time>
      </trkpt>
      <trkpt lat="48.20363" lon="7.17322">
        <ele>1103.7</ele>
        <time>2021-08-05T07:37:36Z</time>
      </trkpt>
      <trkpt lat="48.20361" lon="7.1732">
        <ele>1103.7</ele>
        <time>2021-08-05T07:37:37Z</time>
      </trkpt>
      <trkpt lat="48.2036" lon="7.17319">
        <ele>1103.8</ele>
        <time>2021-08-05T07:37:38Z</time>
      </trkpt>
      <trkpt lat="48.20357" lon="7.17316">
        <ele>1103.8</ele>
        <time>2021-08-05T07:37:40Z</time>
      </trkpt>
      <trkpt lat="48.20357" lon="7.17315">
        <ele>1103.8</ele>
        <time>2021-08-05T07:37:41Z</time>
      </trkpt>
      <trkpt lat="48.20354" lon="7.17313">
        <ele>1103.9</ele>
        <time>2021-08-05T07:37:42Z</time>
      </trkpt>
      <trkpt lat="48.20354" lon="7.17312">
        <ele>1103.9</ele>
        <time>2021-08-05T07:37:43Z</time>
      </trkpt>
      <trkpt lat="48.20352" lon="7.1731">
        <ele>1104</ele>
        <time>2021-08-05T07:37:44Z</time>
      </trkpt>
      <trkpt lat="48.20351" lon="7.17309">
        <ele>1104</ele>
        <time>2021-08-05T07:37:46Z</time>
      </trkpt>
      <trkpt lat="48.20349" lon="7.17308">
        <ele>1104.1</ele>
        <time>2021-08-05T07:37:47Z</time>
      </trkpt>
      <trkpt lat="48.20348" lon="7.17306">
        <ele>1104.1</ele>
        <time>2021-08-05T07:37:48Z</time>
      </trkpt>
      <trkpt lat="48.20346" lon="7.17304">
        <ele>1104.2</ele>
        <time>2021-08-05T07:37:49Z</time>
      </trkpt>
      <trkpt lat="48.20344" lon="7.17303">
        <ele>1104.2</ele>
        <time>2021-08-05T07:37:50Z</time>
      </trkpt>
      <trkpt lat="48.20343" lon="7.17301">
        <ele>1104.3</ele>
        <time>2021-08-05T07:37:51Z</time>
      </trkpt>
      <trkpt lat="48.2034" lon="7.17298">
        <ele>1104.4</ele>
        <time>2021-08-05T07:37:52Z</time>
      </trkpt>
      <trkpt lat="48.20339" lon="7.17298">
        <ele>1104.4</ele>
        <time>2021-08-05T07:37:53Z</time>
      </trkpt>
      <trkpt lat="48.20338" lon="7.17297">
        <ele>1104.4</ele>
        <time>2021-08-05T07:37:55Z</time>
      </trkpt>
      <trkpt lat="48.20337" lon="7.17296">
        <ele>1104.5</ele>
        <time>2021-08-05T07:37:56Z</time>
      </trkpt>
      <trkpt lat="48.20336" lon="7.17295">
        <ele>1104.5</ele>
        <time>2021-08-05T07:37:57Z</time>
      </trkpt>
      <trkpt lat="48.20334" lon="7.17293">
        <ele>1104.6</ele>
        <time>2021-08-05T07:37:58Z</time>
      </trkpt>
      <trkpt lat="48.20332" lon="7.17291">
        <ele>1104.6</ele>
        <time>2021-08-05T07:38:00Z</time>
      </trkpt>
      <trkpt lat="48.2033" lon="7.17287">
        <ele>1104.7</ele>
        <time>2021-08-05T07:38:01Z</time>
      </trkpt>
      <trkpt lat="48.20329" lon="7.17286">
        <ele>1104.8</ele>
        <time>2021-08-05T07:38:02Z</time>
      </trkpt>
      <trkpt lat="48.20326" lon="7.17281">
        <ele>1104.9</ele>
        <time>2021-08-05T07:38:04Z</time>
      </trkpt>
      <trkpt lat="48.20325" lon="7.17279">
        <ele>1104.9</ele>
        <time>2021-08-05T07:38:06Z</time>
      </trkpt>
      <trkpt lat="48.20324" lon="7.17278">
        <ele>1105</ele>
        <time>2021-08-05T07:38:07Z</time>
      </trkpt>
      <trkpt lat="48.20322" lon="7.17275">
        <ele>1105.1</ele>
        <time>2021-08-05T07:38:08Z</time>
      </trkpt>
      <trkpt lat="48.20321" lon="7.17274">
        <ele>1105.1</ele>
        <time>2021-08-05T07:38:09Z</time>
      </trkpt>
      <trkpt lat="48.20319" lon="7.17271">
        <ele>1105.2</ele>
        <time>2021-08-05T07:38:10Z</time>
      </trkpt>
      <trkpt lat="48.20318" lon="7.1727">
        <ele>1105.2</ele>
        <time>2021-08-05T07:38:11Z</time>
      </trkpt>
      <trkpt lat="48.20315" lon="7.17267">
        <ele>1105.3</ele>
        <time>2021-08-05T07:38:12Z</time>
      </trkpt>
      <trkpt lat="48.20313" lon="7.17265">
        <ele>1105.3</ele>
        <time>2021-08-05T07:38:14Z</time>
      </trkpt>
      <trkpt lat="48.2031" lon="7.17263">
        <ele>1105.4</ele>
        <time>2021-08-05T07:38:15Z</time>
      </trkpt>
      <trkpt lat="48.20306" lon="7.17261">
        <ele>1105.4</ele>
        <time>2021-08-05T07:38:16Z</time>
      </trkpt>
      <trkpt lat="48.20301" lon="7.17259">
        <ele>1105.5</ele>
        <time>2021-08-05T07:38:18Z</time>
      </trkpt>
      <trkpt lat="48.20298" lon="7.17257">
        <ele>1105.5</ele>
        <time>2021-08-05T07:38:19Z</time>
      </trkpt>
      <trkpt lat="48.20293" lon="7.17254">
        <ele>1105.5</ele>
        <time>2021-08-05T07:38:20Z</time>
      </trkpt>
      <trkpt lat="48.2029" lon="7.17251">
        <ele>1105.6</ele>
        <time>2021-08-05T07:38:22Z</time>
      </trkpt>
      <trkpt lat="48.20286" lon="7.17248">
        <ele>1105.6</ele>
        <time>2021-08-05T07:38:23Z</time>
      </trkpt>
      <trkpt lat="48.20282" lon="7.17245">
        <ele>1105.6</ele>
        <time>2021-08-05T07:38:24Z</time>
      </trkpt>
      <trkpt lat="48.20278" lon="7.17242">
        <ele>1105.6</ele>
        <time>2021-08-05T07:38:26Z</time>
      </trkpt>
      <trkpt lat="48.20273" lon="7.17239">
        <ele>1105.7</ele>
        <time>2021-08-05T07:38:27Z</time>
      </trkpt>
      <trkpt lat="48.20269" lon="7.17237">
        <ele>1105.7</ele>
        <time>2021-08-05T07:38:29Z</time>
      </trkpt>
      <trkpt lat="48.20264" lon="7.17233">
        <ele>1105.7</ele>
        <time>2021-08-05T07:38:30Z</time>
      </trkpt>
      <trkpt lat="48.20261" lon="7.1723">
        <ele>1105.7</ele>
        <time>2021-08-05T07:38:31Z</time>
      </trkpt>
      <trkpt lat="48.20258" lon="7.17226">
        <ele>1105.7</ele>
        <time>2021-08-05T07:38:33Z</time>
      </trkpt>
      <trkpt lat="48.20255" lon="7.17222">
        <ele>1105.8</ele>
        <time>2021-08-05T07:38:34Z</time>
      </trkpt>
      <trkpt lat="48.20252" lon="7.17219">
        <ele>1105.8</ele>
        <time>2021-08-05T07:38:35Z</time>
      </trkpt>
      <trkpt lat="48.2025" lon="7.17214">
        <ele>1105.8</ele>
        <time>2021-08-05T07:38:36Z</time>
      </trkpt>
      <trkpt lat="48.20247" lon="7.17211">
        <ele>1105.8</ele>
        <time>2021-08-05T07:38:38Z</time>
      </trkpt>
      <trkpt lat="48.20245" lon="7.17206">
        <ele>1105.8</ele>
        <time>2021-08-05T07:38:39Z</time>
      </trkpt>
      <trkpt lat="48.20242" lon="7.17202">
        <ele>1105.8</ele>
        <time>2021-08-05T07:38:41Z</time>
      </trkpt>
      <trkpt lat="48.2024" lon="7.17199">
        <ele>1105.8</ele>
        <time>2021-08-05T07:38:42Z</time>
      </trkpt>
      <trkpt lat="48.20237" lon="7.17193">
        <ele>1105.8</ele>
        <time>2021-08-05T07:38:44Z</time>
      </trkpt>
      <trkpt lat="48.20233" lon="7.17189">
        <ele>1105.9</ele>
        <time>2021-08-05T07:38:46Z</time>
      </trkpt>
      <trkpt lat="48.2023" lon="7.17185">
        <ele>1105.9</ele>
        <time>2021-08-05T07:38:47Z</time>
      </trkpt>
      <trkpt lat="48.20228" lon="7.17184">
        <ele>1105.9</ele>
        <time>2021-08-05T07:38:48Z</time>
      </trkpt>
      <trkpt lat="48.20226" lon="7.1718">
        <ele>1105.9</ele>
        <time>2021-08-05T07:38:49Z</time>
      </trkpt>
      <trkpt lat="48.20224" lon="7.17177">
        <ele>1105.9</ele>
        <time>2021-08-05T07:38:51Z</time>
      </trkpt>
      <trkpt lat="48.20221" lon="7.17174">
        <ele>1105.9</ele>
        <time>2021-08-05T07:38:52Z</time>
      </trkpt>
      <trkpt lat="48.20219" lon="7.17171">
        <ele>1106</ele>
        <time>2021-08-05T07:38:53Z</time>
      </trkpt>
      <trkpt lat="48.20217" lon="7.17167">
        <ele>1106</ele>
        <time>2021-08-05T07:38:54Z</time>
      </trkpt>
      <trkpt lat="48.20214" lon="7.17162">
        <ele>1106</ele>
        <time>2021-08-05T07:38:55Z</time>
      </trkpt>
      <trkpt lat="48.20211" lon="7.17158">
        <ele>1106</ele>
        <time>2021-08-05T07:38:56Z</time>
      </trkpt>
      <trkpt lat="48.20209" lon="7.17155">
        <ele>1106</ele>
        <time>2021-08-05T07:38:58Z</time>
      </trkpt>
      <trkpt lat="48.20208" lon="7.17151">
        <ele>1106.1</ele>
        <time>2021-08-05T07:38:59Z</time>
      </trkpt>
      <trkpt lat="48.20206" lon="7.17145">
        <ele>1106.1</ele>
        <time>2021-08-05T07:39:00Z</time>
      </trkpt>
      <trkpt lat="48.20205" lon="7.17142">
        <ele>1106.1</ele>
        <time>2021-08-05T07:39:01Z</time>
      </trkpt>
      <trkpt lat="48.20204" lon="7.17139">
        <ele>1106.1</ele>
        <time>2021-08-05T07:39:02Z</time>
      </trkpt>
      <trkpt lat="48.20202" lon="7.17134">
        <ele>1106.1</ele>
        <time>2021-08-05T07:39:04Z</time>
      </trkpt>
      <trkpt lat="48.202" lon="7.17128">
        <ele>1106.1</ele>
        <time>2021-08-05T07:39:05Z</time>
      </trkpt>
      <trkpt lat="48.20199" lon="7.17123">
        <ele>1106.1</ele>
        <time>2021-08-05T07:39:07Z</time>
      </trkpt>
      <trkpt lat="48.20198" lon="7.17119">
        <ele>1106.1</ele>
        <time>2021-08-05T07:39:08Z</time>
      </trkpt>
      <trkpt lat="48.20196" lon="7.17112">
        <ele>1106.1</ele>
        <time>2021-08-05T07:39:10Z</time>
      </trkpt>
      <trkpt lat="48.20196" lon="7.17108">
        <ele>1106.1</ele>
        <time>2021-08-05T07:39:11Z</time>
      </trkpt>
      <trkpt lat="48.20194" lon="7.17101">
        <ele>1106</ele>
        <time>2021-08-05T07:39:12Z</time>
      </trkpt>
      <trkpt lat="48.20194" lon="7.17094">
        <ele>1106</ele>
        <time>2021-08-05T07:39:14Z</time>
      </trkpt>
      <trkpt lat="48.20192" lon="7.17087">
        <ele>1106</ele>
        <time>2021-08-05T07:39:15Z</time>
      </trkpt>
      <trkpt lat="48.20191" lon="7.17083">
        <ele>1106</ele>
        <time>2021-08-05T07:39:16Z</time>
      </trkpt>
      <trkpt lat="48.20188" lon="7.17075">
        <ele>1106</ele>
        <time>2021-08-05T07:39:18Z</time>
      </trkpt>
      <trkpt lat="48.20187" lon="7.17072">
        <ele>1105.9</ele>
        <time>2021-08-05T07:39:19Z</time>
      </trkpt>
      <trkpt lat="48.20185" lon="7.17067">
        <ele>1105.9</ele>
        <time>2021-08-05T07:39:21Z</time>
      </trkpt>
      <trkpt lat="48.20183" lon="7.17059">
        <ele>1105.9</ele>
        <time>2021-08-05T07:39:23Z</time>
      </trkpt>
      <trkpt lat="48.2018" lon="7.17052">
        <ele>1105.9</ele>
        <time>2021-08-05T07:39:24Z</time>
      </trkpt>
      <trkpt lat="48.20178" lon="7.17048">
        <ele>1106</ele>
        <time>2021-08-05T07:39:25Z</time>
      </trkpt>
      <trkpt lat="48.20175" lon="7.17044">
        <ele>1106</ele>
        <time>2021-08-05T07:39:27Z</time>
      </trkpt>
      <trkpt lat="48.20171" lon="7.17038">
        <ele>1106</ele>
        <time>2021-08-05T07:39:29Z</time>
      </trkpt>
      <trkpt lat="48.20168" lon="7.17035">
        <ele>1106</ele>
        <time>2021-08-05T07:39:30Z</time>
      </trkpt>
      <trkpt lat="48.20165" lon="7.1703">
        <ele>1106</ele>
        <time>2021-08-05T07:39:31Z</time>
      </trkpt>
      <trkpt lat="48.20162" lon="7.17027">
        <ele>1106</ele>
        <time>2021-08-05T07:39:32Z</time>
      </trkpt>
      <trkpt lat="48.20159" lon="7.17025">
        <ele>1106</ele>
        <time>2021-08-05T07:39:34Z</time>
      </trkpt>
      <trkpt lat="48.20157" lon="7.17025">
        <ele>1106</ele>
        <time>2021-08-05T07:39:35Z</time>
      </trkpt>
      <trkpt lat="48.20152" lon="7.1702">
        <ele>1106</ele>
        <time>2021-08-05T07:39:37Z</time>
      </trkpt>
      <trkpt lat="48.20151" lon="7.17017">
        <ele>1106</ele>
        <time>2021-08-05T07:39:38Z</time>
      </trkpt>
      <trkpt lat="48.20146" lon="7.17011">
        <ele>1106</ele>
        <time>2021-08-05T07:39:40Z</time>
      </trkpt>
      <trkpt lat="48.20144" lon="7.17005">
        <ele>1106</ele>
        <time>2021-08-05T07:39:42Z</time>
      </trkpt>
      <trkpt lat="48.20144" lon="7.17002">
        <ele>1106</ele>
        <time>2021-08-05T07:39:43Z</time>
      </trkpt>
      <trkpt lat="48.20146" lon="7.17">
        <ele>1106</ele>
        <time>2021-08-05T07:39:45Z</time>
      </trkpt>
      <trkpt lat="48.20147" lon="7.17002">
        <ele>1106</ele>
        <time>2021-08-05T07:39:46Z</time>
      </trkpt>
      <trkpt lat="48.20147" lon="7.17003">
        <ele>1106</ele>
        <time>2021-08-05T07:39:47Z</time>
      </trkpt>
      <trkpt lat="48.2015" lon="7.17004">
        <ele>1106</ele>
        <time>2021-08-05T07:39:49Z</time>
      </trkpt>
      <trkpt lat="48.2015" lon="7.17003">
        <ele>1106</ele>
        <time>2021-08-05T07:39:50Z</time>
      </trkpt>
      <trkpt lat="48.2015" lon="7.17003">
        <ele>1106</ele>
        <time>2021-08-05T07:39:52Z</time>
      </trkpt>
      <trkpt lat="48.20151" lon="7.17003">
        <ele>1106</ele>
        <time>2021-08-05T07:39:54Z</time>
      </trkpt>
      <trkpt lat="48.20151" lon="7.17003">
        <ele>1106</ele>
        <time>2021-08-05T07:39:55Z</time>
      </trkpt>
      <trkpt lat="48.20151" lon="7.17002">
        <ele>1106</ele>
        <time>2021-08-05T07:39:57Z</time>
      </trkpt>
      <trkpt lat="48.20152" lon="7.17001">
        <ele>1106</ele>
        <time>2021-08-05T07:39:59Z</time>
      </trkpt>
      <trkpt lat="48.20145" lon="7.16945">
        <ele>1105.6</ele>
        <time>2021-08-05T07:40:50Z</time>
      </trkpt>
      <trkpt lat="48.20145" lon="7.16939">
        <ele>1105.6</ele>
        <time>2021-08-05T07:40:51Z</time>
      </trkpt>
      <trkpt lat="48.20144" lon="7.16933">
        <ele>1105.6</ele>
        <time>2021-08-05T07:40:52Z</time>
      </trkpt>
      <trkpt lat="48.20143" lon="7.16927">
        <ele>1105.5</ele>
        <time>2021-08-05T07:40:53Z</time>
      </trkpt>
      <trkpt lat="48.20143" lon="7.1692">
        <ele>1105.5</ele>
        <time>2021-08-05T07:40:55Z</time>
      </trkpt>
      <trkpt lat="48.20142" lon="7.16912">
        <ele>1105.4</ele>
        <time>2021-08-05T07:40:56Z</time>
      </trkpt>
      <trkpt lat="48.20142" lon="7.16905">
        <ele>1105.4</ele>
        <time>2021-08-05T07:40:57Z</time>
      </trkpt>
      <trkpt lat="48.20141" lon="7.16899">
        <ele>1105.3</ele>
        <time>2021-08-05T07:40:59Z</time>
      </trkpt>
      <trkpt lat="48.20141" lon="7.16892">
        <ele>1105.3</ele>
        <time>2021-08-05T07:41:00Z</time>
      </trkpt>
      <trkpt lat="48.2014" lon="7.16887">
        <ele>1105.2</ele>
        <time>2021-08-05T07:41:01Z</time>
      </trkpt>
      <trkpt lat="48.20138" lon="7.16882">
        <ele>1105.2</ele>
        <time>2021-08-05T07:41:03Z</time>
      </trkpt>
      <trkpt lat="48.20137" lon="7.16878">
        <ele>1105.2</ele>
        <time>2021-08-05T07:41:04Z</time>
      </trkpt>
      <trkpt lat="48.20135" lon="7.16874">
        <ele>1105.1</ele>
        <time>2021-08-05T07:41:05Z</time>
      </trkpt>
      <trkpt lat="48.20133" lon="7.16868">
        <ele>1105.1</ele>
        <time>2021-08-05T07:41:06Z</time>
      </trkpt>
      <trkpt lat="48.20131" lon="7.16864">
        <ele>1105</ele>
        <time>2021-08-05T07:41:07Z</time>
      </trkpt>
      <trkpt lat="48.2013" lon="7.1686">
        <ele>1105</ele>
        <time>2021-08-05T07:41:08Z</time>
      </trkpt>
      <trkpt lat="48.20127" lon="7.16854">
        <ele>1104.9</ele>
        <time>2021-08-05T07:41:10Z</time>
      </trkpt>
      <trkpt lat="48.20124" lon="7.16848">
        <ele>1104.8</ele>
        <time>2021-08-05T07:41:11Z</time>
      </trkpt>
      <trkpt lat="48.20122" lon="7.16841">
        <ele>1104.7</ele>
        <time>2021-08-05T07:41:13Z</time>
      </trkpt>
      <trkpt lat="48.20118" lon="7.16832">
        <ele>1104.6</ele>
        <time>2021-08-05T07:41:14Z</time>
      </trkpt>
      <trkpt lat="48.20115" lon="7.16826">
        <ele>1104.5</ele>
        <time>2021-08-05T07:41:16Z</time>
      </trkpt>
      <trkpt lat="48.20112" lon="7.16819">
        <ele>1104.3</ele>
        <time>2021-08-05T07:41:17Z</time>
      </trkpt>
      <trkpt lat="48.20109" lon="7.16813">
        <ele>1104.2</ele>
        <time>2021-08-05T07:41:18Z</time>
      </trkpt>
      <trkpt lat="48.20105" lon="7.16805">
        <ele>1104.1</ele>
        <time>2021-08-05T07:41:20Z</time>
      </trkpt>
      <trkpt lat="48.201" lon="7.16795">
        <ele>1103.9</ele>
        <time>2021-08-05T07:41:21Z</time>
      </trkpt>
      <trkpt lat="48.20096" lon="7.16788">
        <ele>1103.7</ele>
        <time>2021-08-05T07:41:22Z</time>
      </trkpt>
      <trkpt lat="48.20093" lon="7.1678">
        <ele>1103.6</ele>
        <time>2021-08-05T07:41:23Z</time>
      </trkpt>
      <trkpt lat="48.20091" lon="7.16773">
        <ele>1103.4</ele>
        <time>2021-08-05T07:41:25Z</time>
      </trkpt>
      <trkpt lat="48.20088" lon="7.16764">
        <ele>1103.3</ele>
        <time>2021-08-05T07:41:26Z</time>
      </trkpt>
      <trkpt lat="48.20085" lon="7.16756">
        <ele>1103.1</ele>
        <time>2021-08-05T07:41:27Z</time>
      </trkpt>
      <trkpt lat="48.20083" lon="7.16747">
        <ele>1102.9</ele>
        <time>2021-08-05T07:41:29Z</time>
      </trkpt>
      <trkpt lat="48.20081" lon="7.1674">
        <ele>1102.8</ele>
        <time>2021-08-05T07:41:30Z</time>
      </trkpt>
      <trkpt lat="48.20078" lon="7.16729">
        <ele>1102.6</ele>
        <time>2021-08-05T07:41:31Z</time>
      </trkpt>
      <trkpt lat="48.20076" lon="7.16722">
        <ele>1102.5</ele>
        <time>2021-08-05T07:41:32Z</time>
      </trkpt>
      <trkpt lat="48.20074" lon="7.16715">
        <ele>1102.3</ele>
        <time>2021-08-05T07:41:34Z</time>
      </trkpt>
      <trkpt lat="48.20072" lon="7.16708">
        <ele>1102.1</ele>
        <time>2021-08-05T07:41:35Z</time>
      </trkpt>
      <trkpt lat="48.2007" lon="7.16702">
        <ele>1101.9</ele>
        <time>2021-08-05T07:41:36Z</time>
      </trkpt>
      <trkpt lat="48.20067" lon="7.16692">
        <ele>1101.6</ele>
        <time>2021-08-05T07:41:37Z</time>
      </trkpt>
      <trkpt lat="48.20063" lon="7.16682">
        <ele>1101.2</ele>
        <time>2021-08-05T07:41:39Z</time>
      </trkpt>
      <trkpt lat="48.2006" lon="7.16671">
        <ele>1100.9</ele>
        <time>2021-08-05T07:41:40Z</time>
      </trkpt>
      <trkpt lat="48.20057" lon="7.16659">
        <ele>1100.5</ele>
        <time>2021-08-05T07:41:42Z</time>
      </trkpt>
      <trkpt lat="48.20057" lon="7.16645">
        <ele>1100.1</ele>
        <time>2021-08-05T07:41:43Z</time>
      </trkpt>
      <trkpt lat="48.20056" lon="7.16635">
        <ele>1099.8</ele>
        <time>2021-08-05T07:41:44Z</time>
      </trkpt>
      <trkpt lat="48.20057" lon="7.16616">
        <ele>1099.2</ele>
        <time>2021-08-05T07:41:46Z</time>
      </trkpt>
      <trkpt lat="48.20057" lon="7.16607">
        <ele>1098.9</ele>
        <time>2021-08-05T07:41:47Z</time>
      </trkpt>
      <trkpt lat="48.20057" lon="7.16599">
        <ele>1098.7</ele>
        <time>2021-08-05T07:41:48Z</time>
      </trkpt>
      <trkpt lat="48.20057" lon="7.16591">
        <ele>1098.4</ele>
        <time>2021-08-05T07:41:49Z</time>
      </trkpt>
      <trkpt lat="48.20057" lon="7.16575">
        <ele>1097.9</ele>
        <time>2021-08-05T07:41:51Z</time>
      </trkpt>
      <trkpt lat="48.20057" lon="7.16568">
        <ele>1097.7</ele>
        <time>2021-08-05T07:41:52Z</time>
      </trkpt>
      <trkpt lat="48.20056" lon="7.16561">
        <ele>1097.5</ele>
        <time>2021-08-05T07:41:53Z</time>
      </trkpt>
      <trkpt lat="48.20054" lon="7.16551">
        <ele>1097.2</ele>
        <time>2021-08-05T07:41:54Z</time>
      </trkpt>
      <trkpt lat="48.20054" lon="7.16543">
        <ele>1097</ele>
        <time>2021-08-05T07:41:56Z</time>
      </trkpt>
      <trkpt lat="48.20054" lon="7.16538">
        <ele>1096.8</ele>
        <time>2021-08-05T07:41:57Z</time>
      </trkpt>
      <trkpt lat="48.20054" lon="7.1653">
        <ele>1096.6</ele>
        <time>2021-08-05T07:41:59Z</time>
      </trkpt>
      <trkpt lat="48.20055" lon="7.16525">
        <ele>1096.4</ele>
        <time>2021-08-05T07:42:00Z</time>
      </trkpt>
      <trkpt lat="48.20055" lon="7.16524">
        <ele>1096.4</ele>
        <time>2021-08-05T07:42:01Z</time>
      </trkpt>
      <trkpt lat="48.20056" lon="7.16521">
        <ele>1096.3</ele>
        <time>2021-08-05T07:42:03Z</time>
      </trkpt>
      <trkpt lat="48.20057" lon="7.1652">
        <ele>1096.3</ele>
        <time>2021-08-05T07:42:04Z</time>
      </trkpt>
      <trkpt lat="48.20057" lon="7.16519">
        <ele>1096.2</ele>
        <time>2021-08-05T07:42:05Z</time>
      </trkpt>
      <trkpt lat="48.20059" lon="7.1652">
        <ele>1096.1</ele>
        <time>2021-08-05T07:42:06Z</time>
      </trkpt>
      <trkpt lat="48.2006" lon="7.16519">
        <ele>1096.1</ele>
        <time>2021-08-05T07:42:07Z</time>
      </trkpt>
      <trkpt lat="48.2006" lon="7.16517">
        <ele>1096</ele>
        <time>2021-08-05T07:42:09Z</time>
      </trkpt>
      <trkpt lat="48.20061" lon="7.16516">
        <ele>1096</ele>
        <time>2021-08-05T07:42:10Z</time>
      </trkpt>
      <trkpt lat="48.20061" lon="7.16514">
        <ele>1095.9</ele>
        <time>2021-08-05T07:42:11Z</time>
      </trkpt>
      <trkpt lat="48.20062" lon="7.16514">
        <ele>1095.9</ele>
        <time>2021-08-05T07:42:13Z</time>
      </trkpt>
      <trkpt lat="48.20062" lon="7.16513">
        <ele>1095.9</ele>
        <time>2021-08-05T07:42:14Z</time>
      </trkpt>
      <trkpt lat="48.20063" lon="7.16513">
        <ele>1095.8</ele>
        <time>2021-08-05T07:42:15Z</time>
      </trkpt>
      <trkpt lat="48.20064" lon="7.16512">
        <ele>1095.8</ele>
        <time>2021-08-05T07:42:16Z</time>
      </trkpt>
      <trkpt lat="48.20065" lon="7.16511">
        <ele>1095.7</ele>
        <time>2021-08-05T07:42:17Z</time>
      </trkpt>
      <trkpt lat="48.20065" lon="7.1651">
        <ele>1095.7</ele>
        <time>2021-08-05T07:42:18Z</time>
      </trkpt>
      <trkpt lat="48.20065" lon="7.16509">
        <ele>1095.7</ele>
        <time>2021-08-05T07:42:20Z</time>
      </trkpt>
      <trkpt lat="48.20066" lon="7.16506">
        <ele>1095.6</ele>
        <time>2021-08-05T07:42:21Z</time>
      </trkpt>
      <trkpt lat="48.20065" lon="7.16489">
        <ele>1095.1</ele>
        <time>2021-08-05T07:42:28Z</time>
      </trkpt>
      <trkpt lat="48.20064" lon="7.16485">
        <ele>1094.9</ele>
        <time>2021-08-05T07:42:30Z</time>
      </trkpt>
      <trkpt lat="48.20064" lon="7.16479">
        <ele>1094.8</ele>
        <time>2021-08-05T07:42:31Z</time>
      </trkpt>
      <trkpt lat="48.20064" lon="7.16474">
        <ele>1094.7</ele>
        <time>2021-08-05T07:42:33Z</time>
      </trkpt>
      <trkpt lat="48.20064" lon="7.16472">
        <ele>1094.6</ele>
        <time>2021-08-05T07:42:34Z</time>
      </trkpt>
      <trkpt lat="48.20063" lon="7.16468">
        <ele>1094.5</ele>
        <time>2021-08-05T07:42:35Z</time>
      </trkpt>
      <trkpt lat="48.20062" lon="7.16467">
        <ele>1094.5</ele>
        <time>2021-08-05T07:42:36Z</time>
      </trkpt>
      <trkpt lat="48.20062" lon="7.16463">
        <ele>1094.4</ele>
        <time>2021-08-05T07:42:37Z</time>
      </trkpt>
      <trkpt lat="48.20061" lon="7.16462">
        <ele>1094.4</ele>
        <time>2021-08-05T07:42:39Z</time>
      </trkpt>
      <trkpt lat="48.20061" lon="7.16461">
        <ele>1094.4</ele>
        <time>2021-08-05T07:42:40Z</time>
      </trkpt>
      <trkpt lat="48.20062" lon="7.16458">
        <ele>1094.3</ele>
        <time>2021-08-05T07:42:43Z</time>
      </trkpt>
      <trkpt lat="48.20063" lon="7.16457">
        <ele>1094.3</ele>
        <time>2021-08-05T07:42:44Z</time>
      </trkpt>
      <trkpt lat="48.20064" lon="7.16455">
        <ele>1094.2</ele>
        <time>2021-08-05T07:42:46Z</time>
      </trkpt>
      <trkpt lat="48.20065" lon="7.16451">
        <ele>1094.1</ele>
        <time>2021-08-05T07:42:48Z</time>
      </trkpt>
      <trkpt lat="48.20065" lon="7.16448">
        <ele>1094.1</ele>
        <time>2021-08-05T07:42:49Z</time>
      </trkpt>
      <trkpt lat="48.20066" lon="7.16447">
        <ele>1094.1</ele>
        <time>2021-08-05T07:42:50Z</time>
      </trkpt>
      <trkpt lat="48.20066" lon="7.16445">
        <ele>1094</ele>
        <time>2021-08-05T07:42:51Z</time>
      </trkpt>
      <trkpt lat="48.20066" lon="7.16444">
        <ele>1094</ele>
        <time>2021-08-05T07:42:53Z</time>
      </trkpt>
      <trkpt lat="48.20067" lon="7.16443">
        <ele>1094</ele>
        <time>2021-08-05T07:42:54Z</time>
      </trkpt>
      <trkpt lat="48.20067" lon="7.16441">
        <ele>1094</ele>
        <time>2021-08-05T07:42:55Z</time>
      </trkpt>
      <trkpt lat="48.20067" lon="7.16439">
        <ele>1093.9</ele>
        <time>2021-08-05T07:42:57Z</time>
      </trkpt>
      <trkpt lat="48.20067" lon="7.16437">
        <ele>1093.9</ele>
        <time>2021-08-05T07:42:58Z</time>
      </trkpt>
      <trkpt lat="48.20066" lon="7.16436">
        <ele>1093.9</ele>
        <time>2021-08-05T07:42:59Z</time>
      </trkpt>
      <trkpt lat="48.20066" lon="7.16434">
        <ele>1093.9</ele>
        <time>2021-08-05T07:43:00Z</time>
      </trkpt>
      <trkpt lat="48.20066" lon="7.16432">
        <ele>1093.8</ele>
        <time>2021-08-05T07:43:02Z</time>
      </trkpt>
      <trkpt lat="48.20065" lon="7.1643">
        <ele>1093.8</ele>
        <time>2021-08-05T07:43:03Z</time>
      </trkpt>
      <trkpt lat="48.20065" lon="7.16428">
        <ele>1093.8</ele>
        <time>2021-08-05T07:43:05Z</time>
      </trkpt>
      <trkpt lat="48.20064" lon="7.16425">
        <ele>1093.8</ele>
        <time>2021-08-05T07:43:07Z</time>
      </trkpt>
      <trkpt lat="48.20064" lon="7.16423">
        <ele>1093.7</ele>
        <time>2021-08-05T07:43:08Z</time>
      </trkpt>
      <trkpt lat="48.20064" lon="7.16423">
        <ele>1093.7</ele>
        <time>2021-08-05T07:43:09Z</time>
      </trkpt>
      <trkpt lat="48.20063" lon="7.16421">
        <ele>1093.7</ele>
        <time>2021-08-05T07:43:10Z</time>
      </trkpt>
      <trkpt lat="48.20063" lon="7.16419">
        <ele>1093.7</ele>
        <time>2021-08-05T07:43:11Z</time>
      </trkpt>
      <trkpt lat="48.20062" lon="7.16415">
        <ele>1093.6</ele>
        <time>2021-08-05T07:43:13Z</time>
      </trkpt>
      <trkpt lat="48.20062" lon="7.16414">
        <ele>1093.6</ele>
        <time>2021-08-05T07:43:14Z</time>
      </trkpt>
      <trkpt lat="48.20061" lon="7.16411">
        <ele>1093.5</ele>
        <time>2021-08-05T07:43:15Z</time>
      </trkpt>
      <trkpt lat="48.20061" lon="7.16409">
        <ele>1093.5</ele>
        <time>2021-08-05T07:43:16Z</time>
      </trkpt>
      <trkpt lat="48.20059" lon="7.16405">
        <ele>1093.4</ele>
        <time>2021-08-05T07:43:18Z</time>
      </trkpt>
      <trkpt lat="48.20058" lon="7.16404">
        <ele>1093.4</ele>
        <time>2021-08-05T07:43:19Z</time>
      </trkpt>
      <trkpt lat="48.20056" lon="7.16401">
        <ele>1093.3</ele>
        <time>2021-08-05T07:43:21Z</time>
      </trkpt>
      <trkpt lat="48.20055" lon="7.16397">
        <ele>1093.2</ele>
        <time>2021-08-05T07:43:23Z</time>
      </trkpt>
      <trkpt lat="48.20054" lon="7.16395">
        <ele>1093.2</ele>
        <time>2021-08-05T07:43:24Z</time>
      </trkpt>
      <trkpt lat="48.20053" lon="7.16394">
        <ele>1093.2</ele>
        <time>2021-08-05T07:43:25Z</time>
      </trkpt>
      <trkpt lat="48.20052" lon="7.1639">
        <ele>1093.1</ele>
        <time>2021-08-05T07:43:26Z</time>
      </trkpt>
      <trkpt lat="48.20052" lon="7.16388">
        <ele>1093.1</ele>
        <time>2021-08-05T07:43:27Z</time>
      </trkpt>
      <trkpt lat="48.20051" lon="7.16383">
        <ele>1093.1</ele>
        <time>2021-08-05T07:43:30Z</time>
      </trkpt>
      <trkpt lat="48.2005" lon="7.16377">
        <ele>1093</ele>
        <time>2021-08-05T07:43:31Z</time>
      </trkpt>
      <trkpt lat="48.20049" lon="7.1637">
        <ele>1093</ele>
        <time>2021-08-05T07:43:33Z</time>
      </trkpt>
      <trkpt lat="48.20048" lon="7.16363">
        <ele>1092.9</ele>
        <time>2021-08-05T07:43:34Z</time>
      </trkpt>
      <trkpt lat="48.20046" lon="7.16355">
        <ele>1092.9</ele>
        <time>2021-08-05T07:43:36Z</time>
      </trkpt>
      <trkpt lat="48.20044" lon="7.16345">
        <ele>1092.9</ele>
        <time>2021-08-05T07:43:37Z</time>
      </trkpt>
      <trkpt lat="48.20043" lon="7.16337">
        <ele>1092.8</ele>
        <time>2021-08-05T07:43:39Z</time>
      </trkpt>
      <trkpt lat="48.20041" lon="7.16325">
        <ele>1092.8</ele>
        <time>2021-08-05T07:43:41Z</time>
      </trkpt>
      <trkpt lat="48.20038" lon="7.16315">
        <ele>1092.7</ele>
        <time>2021-08-05T07:43:42Z</time>
      </trkpt>
      <trkpt lat="48.20036" lon="7.16309">
        <ele>1092.7</ele>
        <time>2021-08-05T07:43:43Z</time>
      </trkpt>
      <trkpt lat="48.20032" lon="7.163">
        <ele>1092.6</ele>
        <time>2021-08-05T07:43:45Z</time>
      </trkpt>
      <trkpt lat="48.20029" lon="7.16294">
        <ele>1092.6</ele>
        <time>2021-08-05T07:43:47Z</time>
      </trkpt>
      <trkpt lat="48.20025" lon="7.16287">
        <ele>1092.5</ele>
        <time>2021-08-05T07:43:48Z</time>
      </trkpt>
      <trkpt lat="48.20023" lon="7.16281">
        <ele>1092.5</ele>
        <time>2021-08-05T07:43:49Z</time>
      </trkpt>
      <trkpt lat="48.2002" lon="7.16276">
        <ele>1092.4</ele>
        <time>2021-08-05T07:43:50Z</time>
      </trkpt>
      <trkpt lat="48.20018" lon="7.16271">
        <ele>1092.4</ele>
        <time>2021-08-05T07:43:51Z</time>
      </trkpt>
      <trkpt lat="48.20015" lon="7.16266">
        <ele>1092.3</ele>
        <time>2021-08-05T07:43:52Z</time>
      </trkpt>
      <trkpt lat="48.20013" lon="7.1626">
        <ele>1092.3</ele>
        <time>2021-08-05T07:43:53Z</time>
      </trkpt>
      <trkpt lat="48.2001" lon="7.16255">
        <ele>1092.3</ele>
        <time>2021-08-05T07:43:54Z</time>
      </trkpt>
      <trkpt lat="48.20008" lon="7.1625">
        <ele>1092.2</ele>
        <time>2021-08-05T07:43:55Z</time>
      </trkpt>
      <trkpt lat="48.20003" lon="7.16242">
        <ele>1092.2</ele>
        <time>2021-08-05T07:43:57Z</time>
      </trkpt>
      <trkpt lat="48.19999" lon="7.16235">
        <ele>1092.1</ele>
        <time>2021-08-05T07:43:58Z</time>
      </trkpt>
      <trkpt lat="48.19996" lon="7.1623">
        <ele>1092.1</ele>
        <time>2021-08-05T07:44:00Z</time>
      </trkpt>
      <trkpt lat="48.19993" lon="7.16225">
        <ele>1092.1</ele>
        <time>2021-08-05T07:44:01Z</time>
      </trkpt>
      <trkpt lat="48.19989" lon="7.1622">
        <ele>1092.1</ele>
        <time>2021-08-05T07:44:02Z</time>
      </trkpt>
      <trkpt lat="48.19986" lon="7.16216">
        <ele>1092</ele>
        <time>2021-08-05T07:44:03Z</time>
      </trkpt>
      <trkpt lat="48.19979" lon="7.16207">
        <ele>1092</ele>
        <time>2021-08-05T07:44:05Z</time>
      </trkpt>
      <trkpt lat="48.19976" lon="7.16203">
        <ele>1092</ele>
        <time>2021-08-05T07:44:06Z</time>
      </trkpt>
      <trkpt lat="48.19972" lon="7.16198">
        <ele>1092</ele>
        <time>2021-08-05T07:44:07Z</time>
      </trkpt>
      <trkpt lat="48.19969" lon="7.16194">
        <ele>1092</ele>
        <time>2021-08-05T07:44:08Z</time>
      </trkpt>
      <trkpt lat="48.19965" lon="7.1619">
        <ele>1092</ele>
        <time>2021-08-05T07:44:09Z</time>
      </trkpt>
      <trkpt lat="48.19961" lon="7.16186">
        <ele>1092</ele>
        <time>2021-08-05T07:44:10Z</time>
      </trkpt>
      <trkpt lat="48.19958" lon="7.16182">
        <ele>1092</ele>
        <time>2021-08-05T07:44:11Z</time>
      </trkpt>
      <trkpt lat="48.19956" lon="7.16178">
        <ele>1092</ele>
        <time>2021-08-05T07:44:12Z</time>
      </trkpt>
      <trkpt lat="48.19953" lon="7.16172">
        <ele>1092</ele>
        <time>2021-08-05T07:44:14Z</time>
      </trkpt>
      <trkpt lat="48.19949" lon="7.16165">
        <ele>1092</ele>
        <time>2021-08-05T07:44:15Z</time>
      </trkpt>
      <trkpt lat="48.19945" lon="7.16159">
        <ele>1091.9</ele>
        <time>2021-08-05T07:44:17Z</time>
      </trkpt>
      <trkpt lat="48.19943" lon="7.16154">
        <ele>1091.9</ele>
        <time>2021-08-05T07:44:18Z</time>
      </trkpt>
      <trkpt lat="48.1994" lon="7.16149">
        <ele>1091.8</ele>
        <time>2021-08-05T07:44:19Z</time>
      </trkpt>
      <trkpt lat="48.19935" lon="7.16141">
        <ele>1091.8</ele>
        <time>2021-08-05T07:44:21Z</time>
      </trkpt>
      <trkpt lat="48.19932" lon="7.16135">
        <ele>1091.7</ele>
        <time>2021-08-05T07:44:22Z</time>
      </trkpt>
      <trkpt lat="48.1993" lon="7.16129">
        <ele>1091.7</ele>
        <time>2021-08-05T07:44:23Z</time>
      </trkpt>
      <trkpt lat="48.19927" lon="7.16123">
        <ele>1091.7</ele>
        <time>2021-08-05T07:44:24Z</time>
      </trkpt>
      <trkpt lat="48.19925" lon="7.16117">
        <ele>1091.7</ele>
        <time>2021-08-05T07:44:25Z</time>
      </trkpt>
      <trkpt lat="48.19923" lon="7.16111">
        <ele>1091.6</ele>
        <time>2021-08-05T07:44:26Z</time>
      </trkpt>
      <trkpt lat="48.19921" lon="7.16105">
        <ele>1091.6</ele>
        <time>2021-08-05T07:44:27Z</time>
      </trkpt>
      <trkpt lat="48.19919" lon="7.16099">
        <ele>1091.6</ele>
        <time>2021-08-05T07:44:28Z</time>
      </trkpt>
      <trkpt lat="48.19917" lon="7.16093">
        <ele>1091.5</ele>
        <time>2021-08-05T07:44:29Z</time>
      </trkpt>
      <trkpt lat="48.19916" lon="7.16086">
        <ele>1091.5</ele>
        <time>2021-08-05T07:44:30Z</time>
      </trkpt>
      <trkpt lat="48.19914" lon="7.1608">
        <ele>1091.5</ele>
        <time>2021-08-05T07:44:31Z</time>
      </trkpt>
      <trkpt lat="48.19913" lon="7.16074">
        <ele>1091.4</ele>
        <time>2021-08-05T07:44:33Z</time>
      </trkpt>
      <trkpt lat="48.19911" lon="7.16067">
        <ele>1091.4</ele>
        <time>2021-08-05T07:44:34Z</time>
      </trkpt>
      <trkpt lat="48.19909" lon="7.16061">
        <ele>1091.4</ele>
        <time>2021-08-05T07:44:35Z</time>
      </trkpt>
      <trkpt lat="48.19907" lon="7.16055">
        <ele>1091.4</ele>
        <time>2021-08-05T07:44:36Z</time>
      </trkpt>
      <trkpt lat="48.19905" lon="7.16046">
        <ele>1091.4</ele>
        <time>2021-08-05T07:44:37Z</time>
      </trkpt>
      <trkpt lat="48.19904" lon="7.16038">
        <ele>1091.4</ele>
        <time>2021-08-05T07:44:39Z</time>
      </trkpt>
      <trkpt lat="48.19902" lon="7.16031">
        <ele>1091.4</ele>
        <time>2021-08-05T07:44:40Z</time>
      </trkpt>
      <trkpt lat="48.199" lon="7.16022">
        <ele>1091.4</ele>
        <time>2021-08-05T07:44:41Z</time>
      </trkpt>
      <trkpt lat="48.19899" lon="7.16015">
        <ele>1091.4</ele>
        <time>2021-08-05T07:44:43Z</time>
      </trkpt>
      <trkpt lat="48.19897" lon="7.16005">
        <ele>1091.3</ele>
        <time>2021-08-05T07:44:44Z</time>
      </trkpt>
      <trkpt lat="48.19896" lon="7.15998">
        <ele>1091.3</ele>
        <time>2021-08-05T07:44:46Z</time>
      </trkpt>
      <trkpt lat="48.19894" lon="7.15988">
        <ele>1091.2</ele>
        <time>2021-08-05T07:44:47Z</time>
      </trkpt>
      <trkpt lat="48.19892" lon="7.15982">
        <ele>1091.2</ele>
        <time>2021-08-05T07:44:48Z</time>
      </trkpt>
      <trkpt lat="48.19891" lon="7.15975">
        <ele>1091.2</ele>
        <time>2021-08-05T07:44:49Z</time>
      </trkpt>
      <trkpt lat="48.1989" lon="7.15969">
        <ele>1091.2</ele>
        <time>2021-08-05T07:44:50Z</time>
      </trkpt>
      <trkpt lat="48.19888" lon="7.15963">
        <ele>1091.2</ele>
        <time>2021-08-05T07:44:51Z</time>
      </trkpt>
      <trkpt lat="48.19886" lon="7.15957">
        <ele>1091.2</ele>
        <time>2021-08-05T07:44:52Z</time>
      </trkpt>
      <trkpt lat="48.19884" lon="7.1595">
        <ele>1091.2</ele>
        <time>2021-08-05T07:44:53Z</time>
      </trkpt>
      <trkpt lat="48.19882" lon="7.15943">
        <ele>1091.2</ele>
        <time>2021-08-05T07:44:55Z</time>
      </trkpt>
      <trkpt lat="48.19881" lon="7.15936">
        <ele>1091.2</ele>
        <time>2021-08-05T07:44:56Z</time>
      </trkpt>
      <trkpt lat="48.1988" lon="7.1593">
        <ele>1091.2</ele>
        <time>2021-08-05T07:44:57Z</time>
      </trkpt>
      <trkpt lat="48.19879" lon="7.15924">
        <ele>1091.2</ele>
        <time>2021-08-05T07:44:58Z</time>
      </trkpt>
      <trkpt lat="48.19879" lon="7.15917">
        <ele>1091.1</ele>
        <time>2021-08-05T07:44:59Z</time>
      </trkpt>
      <trkpt lat="48.19878" lon="7.15911">
        <ele>1091.1</ele>
        <time>2021-08-05T07:45:00Z</time>
      </trkpt>
      <trkpt lat="48.19876" lon="7.15903">
        <ele>1091</ele>
        <time>2021-08-05T07:45:02Z</time>
      </trkpt>
      <trkpt lat="48.19875" lon="7.15897">
        <ele>1091</ele>
        <time>2021-08-05T07:45:03Z</time>
      </trkpt>
      <trkpt lat="48.19873" lon="7.15889">
        <ele>1091</ele>
        <time>2021-08-05T07:45:04Z</time>
      </trkpt>
      <trkpt lat="48.19872" lon="7.15883">
        <ele>1091</ele>
        <time>2021-08-05T07:45:05Z</time>
      </trkpt>
      <trkpt lat="48.19871" lon="7.15877">
        <ele>1091</ele>
        <time>2021-08-05T07:45:07Z</time>
      </trkpt>
      <trkpt lat="48.1987" lon="7.15871">
        <ele>1090.9</ele>
        <time>2021-08-05T07:45:08Z</time>
      </trkpt>
      <trkpt lat="48.19868" lon="7.15865">
        <ele>1090.9</ele>
        <time>2021-08-05T07:45:09Z</time>
      </trkpt>
      <trkpt lat="48.19866" lon="7.15856">
        <ele>1090.8</ele>
        <time>2021-08-05T07:45:10Z</time>
      </trkpt>
      <trkpt lat="48.19864" lon="7.15849">
        <ele>1090.7</ele>
        <time>2021-08-05T07:45:12Z</time>
      </trkpt>
      <trkpt lat="48.19861" lon="7.1584">
        <ele>1090.7</ele>
        <time>2021-08-05T07:45:13Z</time>
      </trkpt>
      <trkpt lat="48.19859" lon="7.15836">
        <ele>1090.7</ele>
        <time>2021-08-05T07:45:14Z</time>
      </trkpt>
      <trkpt lat="48.19857" lon="7.1583">
        <ele>1090.7</ele>
        <time>2021-08-05T07:45:15Z</time>
      </trkpt>
      <trkpt lat="48.19855" lon="7.15825">
        <ele>1090.7</ele>
        <time>2021-08-05T07:45:17Z</time>
      </trkpt>
      <trkpt lat="48.19853" lon="7.1582">
        <ele>1090.7</ele>
        <time>2021-08-05T07:45:18Z</time>
      </trkpt>
      <trkpt lat="48.1985" lon="7.15814">
        <ele>1090.8</ele>
        <time>2021-08-05T07:45:19Z</time>
      </trkpt>
      <trkpt lat="48.19847" lon="7.15808">
        <ele>1090.8</ele>
        <time>2021-08-05T07:45:20Z</time>
      </trkpt>
      <trkpt lat="48.19844" lon="7.15803">
        <ele>1090.8</ele>
        <time>2021-08-05T07:45:21Z</time>
      </trkpt>
      <trkpt lat="48.19841" lon="7.15798">
        <ele>1090.8</ele>
        <time>2021-08-05T07:45:23Z</time>
      </trkpt>
      <trkpt lat="48.19838" lon="7.15794">
        <ele>1090.7</ele>
        <time>2021-08-05T07:45:24Z</time>
      </trkpt>
      <trkpt lat="48.19833" lon="7.15786">
        <ele>1090.7</ele>
        <time>2021-08-05T07:45:25Z</time>
      </trkpt>
      <trkpt lat="48.1983" lon="7.15781">
        <ele>1090.7</ele>
        <time>2021-08-05T07:45:27Z</time>
      </trkpt>
      <trkpt lat="48.19828" lon="7.15776">
        <ele>1090.7</ele>
        <time>2021-08-05T07:45:28Z</time>
      </trkpt>
      <trkpt lat="48.19825" lon="7.15768">
        <ele>1090.6</ele>
        <time>2021-08-05T07:45:29Z</time>
      </trkpt>
      <trkpt lat="48.19824" lon="7.15763">
        <ele>1090.6</ele>
        <time>2021-08-05T07:45:30Z</time>
      </trkpt>
      <trkpt lat="48.19822" lon="7.15756">
        <ele>1090.6</ele>
        <time>2021-08-05T07:45:32Z</time>
      </trkpt>
      <trkpt lat="48.1982" lon="7.15749">
        <ele>1090.6</ele>
        <time>2021-08-05T07:45:33Z</time>
      </trkpt>
      <trkpt lat="48.19818" lon="7.15741">
        <ele>1090.6</ele>
        <time>2021-08-05T07:45:35Z</time>
      </trkpt>
      <trkpt lat="48.19817" lon="7.15736">
        <ele>1090.6</ele>
        <time>2021-08-05T07:45:36Z</time>
      </trkpt>
      <trkpt lat="48.19815" lon="7.15731">
        <ele>1090.6</ele>
        <time>2021-08-05T07:45:37Z</time>
      </trkpt>
      <trkpt lat="48.19814" lon="7.15726">
        <ele>1090.6</ele>
        <time>2021-08-05T07:45:38Z</time>
      </trkpt>
      <trkpt lat="48.19811" lon="7.15718">
        <ele>1090.5</ele>
        <time>2021-08-05T07:45:39Z</time>
      </trkpt>
      <trkpt lat="48.19808" lon="7.15713">
        <ele>1090.5</ele>
        <time>2021-08-05T07:45:41Z</time>
      </trkpt>
      <trkpt lat="48.19805" lon="7.15709">
        <ele>1090.5</ele>
        <time>2021-08-05T07:45:42Z</time>
      </trkpt>
      <trkpt lat="48.19801" lon="7.15704">
        <ele>1090.5</ele>
        <time>2021-08-05T07:45:43Z</time>
      </trkpt>
      <trkpt lat="48.19798" lon="7.157">
        <ele>1090.4</ele>
        <time>2021-08-05T07:45:44Z</time>
      </trkpt>
      <trkpt lat="48.19794" lon="7.15696">
        <ele>1090.4</ele>
        <time>2021-08-05T07:45:46Z</time>
      </trkpt>
      <trkpt lat="48.19791" lon="7.15692">
        <ele>1090.4</ele>
        <time>2021-08-05T07:45:47Z</time>
      </trkpt>
      <trkpt lat="48.19787" lon="7.15689">
        <ele>1090.3</ele>
        <time>2021-08-05T07:45:48Z</time>
      </trkpt>
      <trkpt lat="48.19783" lon="7.15683">
        <ele>1090.3</ele>
        <time>2021-08-05T07:45:49Z</time>
      </trkpt>
      <trkpt lat="48.19779" lon="7.15679">
        <ele>1090.3</ele>
        <time>2021-08-05T07:45:50Z</time>
      </trkpt>
      <trkpt lat="48.19776" lon="7.15675">
        <ele>1090.2</ele>
        <time>2021-08-05T07:45:51Z</time>
      </trkpt>
      <trkpt lat="48.19772" lon="7.15669">
        <ele>1090.2</ele>
        <time>2021-08-05T07:45:53Z</time>
      </trkpt>
      <trkpt lat="48.19769" lon="7.15664">
        <ele>1090.2</ele>
        <time>2021-08-05T07:45:54Z</time>
      </trkpt>
      <trkpt lat="48.19763" lon="7.15656">
        <ele>1090.2</ele>
        <time>2021-08-05T07:45:56Z</time>
      </trkpt>
      <trkpt lat="48.1976" lon="7.15651">
        <ele>1090.2</ele>
        <time>2021-08-05T07:45:57Z</time>
      </trkpt>
      <trkpt lat="48.19756" lon="7.15644">
        <ele>1090.2</ele>
        <time>2021-08-05T07:45:58Z</time>
      </trkpt>
      <trkpt lat="48.19753" lon="7.1564">
        <ele>1090.3</ele>
        <time>2021-08-05T07:45:59Z</time>
      </trkpt>
      <trkpt lat="48.19749" lon="7.15635">
        <ele>1090.3</ele>
        <time>2021-08-05T07:46:01Z</time>
      </trkpt>
      <trkpt lat="48.19746" lon="7.15631">
        <ele>1090.3</ele>
        <time>2021-08-05T07:46:02Z</time>
      </trkpt>
      <trkpt lat="48.19743" lon="7.15626">
        <ele>1090.3</ele>
        <time>2021-08-05T07:46:03Z</time>
      </trkpt>
      <trkpt lat="48.1974" lon="7.15622">
        <ele>1090.3</ele>
        <time>2021-08-05T07:46:04Z</time>
      </trkpt>
      <trkpt lat="48.19736" lon="7.15617">
        <ele>1090.3</ele>
        <time>2021-08-05T07:46:05Z</time>
      </trkpt>
      <trkpt lat="48.19733" lon="7.15611">
        <ele>1090.3</ele>
        <time>2021-08-05T07:46:06Z</time>
      </trkpt>
      <trkpt lat="48.19729" lon="7.15606">
        <ele>1090.3</ele>
        <time>2021-08-05T07:46:08Z</time>
      </trkpt>
      <trkpt lat="48.19727" lon="7.15601">
        <ele>1090.3</ele>
        <time>2021-08-05T07:46:09Z</time>
      </trkpt>
      <trkpt lat="48.19722" lon="7.15593">
        <ele>1090.4</ele>
        <time>2021-08-05T07:46:10Z</time>
      </trkpt>
      <trkpt lat="48.1972" lon="7.15588">
        <ele>1090.4</ele>
        <time>2021-08-05T07:46:11Z</time>
      </trkpt>
      <trkpt lat="48.19717" lon="7.15582">
        <ele>1090.4</ele>
        <time>2021-08-05T07:46:13Z</time>
      </trkpt>
      <trkpt lat="48.19712" lon="7.15574">
        <ele>1090.4</ele>
        <time>2021-08-05T07:46:14Z</time>
      </trkpt>
      <trkpt lat="48.19709" lon="7.15569">
        <ele>1090.4</ele>
        <time>2021-08-05T07:46:15Z</time>
      </trkpt>
      <trkpt lat="48.19706" lon="7.15565">
        <ele>1090.5</ele>
        <time>2021-08-05T07:46:17Z</time>
      </trkpt>
      <trkpt lat="48.19702" lon="7.1556">
        <ele>1090.5</ele>
        <time>2021-08-05T07:46:18Z</time>
      </trkpt>
      <trkpt lat="48.19698" lon="7.15556">
        <ele>1090.6</ele>
        <time>2021-08-05T07:46:19Z</time>
      </trkpt>
      <trkpt lat="48.19695" lon="7.15551">
        <ele>1090.6</ele>
        <time>2021-08-05T07:46:20Z</time>
      </trkpt>
      <trkpt lat="48.19692" lon="7.15547">
        <ele>1090.7</ele>
        <time>2021-08-05T07:46:21Z</time>
      </trkpt>
      <trkpt lat="48.19688" lon="7.15541">
        <ele>1090.7</ele>
        <time>2021-08-05T07:46:22Z</time>
      </trkpt>
      <trkpt lat="48.19685" lon="7.15537">
        <ele>1090.7</ele>
        <time>2021-08-05T07:46:24Z</time>
      </trkpt>
      <trkpt lat="48.19682" lon="7.15533">
        <ele>1090.8</ele>
        <time>2021-08-05T07:46:25Z</time>
      </trkpt>
      <trkpt lat="48.19679" lon="7.15529">
        <ele>1090.8</ele>
        <time>2021-08-05T07:46:26Z</time>
      </trkpt>
      <trkpt lat="48.19673" lon="7.15518">
        <ele>1091</ele>
        <time>2021-08-05T07:46:30Z</time>
      </trkpt>
      <trkpt lat="48.19671" lon="7.15514">
        <ele>1091</ele>
        <time>2021-08-05T07:46:31Z</time>
      </trkpt>
      <trkpt lat="48.19668" lon="7.1551">
        <ele>1091.1</ele>
        <time>2021-08-05T07:46:32Z</time>
      </trkpt>
      <trkpt lat="48.19667" lon="7.15506">
        <ele>1091.1</ele>
        <time>2021-08-05T07:46:34Z</time>
      </trkpt>
      <trkpt lat="48.19665" lon="7.15502">
        <ele>1091.1</ele>
        <time>2021-08-05T07:46:35Z</time>
      </trkpt>
      <trkpt lat="48.19663" lon="7.15496">
        <ele>1091.2</ele>
        <time>2021-08-05T07:46:36Z</time>
      </trkpt>
      <trkpt lat="48.19662" lon="7.15492">
        <ele>1091.2</ele>
        <time>2021-08-05T07:46:37Z</time>
      </trkpt>
      <trkpt lat="48.19661" lon="7.15487">
        <ele>1091.2</ele>
        <time>2021-08-05T07:46:38Z</time>
      </trkpt>
      <trkpt lat="48.1966" lon="7.15483">
        <ele>1091.2</ele>
        <time>2021-08-05T07:46:40Z</time>
      </trkpt>
      <trkpt lat="48.19658" lon="7.15478">
        <ele>1091.3</ele>
        <time>2021-08-05T07:46:41Z</time>
      </trkpt>
      <trkpt lat="48.19656" lon="7.15473">
        <ele>1091.3</ele>
        <time>2021-08-05T07:46:42Z</time>
      </trkpt>
      <trkpt lat="48.19654" lon="7.15468">
        <ele>1091.3</ele>
        <time>2021-08-05T07:46:43Z</time>
      </trkpt>
      <trkpt lat="48.19652" lon="7.15463">
        <ele>1091.3</ele>
        <time>2021-08-05T07:46:44Z</time>
      </trkpt>
      <trkpt lat="48.19649" lon="7.15456">
        <ele>1091.3</ele>
        <time>2021-08-05T07:46:46Z</time>
      </trkpt>
      <trkpt lat="48.19646" lon="7.15451">
        <ele>1091.3</ele>
        <time>2021-08-05T07:46:47Z</time>
      </trkpt>
      <trkpt lat="48.19642" lon="7.15444">
        <ele>1091.2</ele>
        <time>2021-08-05T07:46:48Z</time>
      </trkpt>
      <trkpt lat="48.19639" lon="7.15439">
        <ele>1091.2</ele>
        <time>2021-08-05T07:46:49Z</time>
      </trkpt>
      <trkpt lat="48.19636" lon="7.15435">
        <ele>1091.2</ele>
        <time>2021-08-05T07:46:50Z</time>
      </trkpt>
      <trkpt lat="48.19632" lon="7.15431">
        <ele>1091.2</ele>
        <time>2021-08-05T07:46:51Z</time>
      </trkpt>
      <trkpt lat="48.19629" lon="7.15426">
        <ele>1091.1</ele>
        <time>2021-08-05T07:46:52Z</time>
      </trkpt>
      <trkpt lat="48.19625" lon="7.15421">
        <ele>1091.1</ele>
        <time>2021-08-05T07:46:53Z</time>
      </trkpt>
      <trkpt lat="48.19621" lon="7.15416">
        <ele>1091.1</ele>
        <time>2021-08-05T07:46:55Z</time>
      </trkpt>
      <trkpt lat="48.19618" lon="7.15412">
        <ele>1091.1</ele>
        <time>2021-08-05T07:46:56Z</time>
      </trkpt>
      <trkpt lat="48.19613" lon="7.15406">
        <ele>1091.1</ele>
        <time>2021-08-05T07:46:57Z</time>
      </trkpt>
      <trkpt lat="48.19606" lon="7.15398">
        <ele>1091</ele>
        <time>2021-08-05T07:46:59Z</time>
      </trkpt>
      <trkpt lat="48.19603" lon="7.15394">
        <ele>1091</ele>
        <time>2021-08-05T07:47:00Z</time>
      </trkpt>
      <trkpt lat="48.19599" lon="7.15389">
        <ele>1091</ele>
        <time>2021-08-05T07:47:02Z</time>
      </trkpt>
      <trkpt lat="48.19596" lon="7.15384">
        <ele>1091</ele>
        <time>2021-08-05T07:47:03Z</time>
      </trkpt>
      <trkpt lat="48.19592" lon="7.15376">
        <ele>1091</ele>
        <time>2021-08-05T07:47:04Z</time>
      </trkpt>
      <trkpt lat="48.19589" lon="7.15369">
        <ele>1091</ele>
        <time>2021-08-05T07:47:06Z</time>
      </trkpt>
      <trkpt lat="48.19585" lon="7.1536">
        <ele>1091.1</ele>
        <time>2021-08-05T07:47:07Z</time>
      </trkpt>
      <trkpt lat="48.19582" lon="7.15355">
        <ele>1091.1</ele>
        <time>2021-08-05T07:47:09Z</time>
      </trkpt>
      <trkpt lat="48.1958" lon="7.1535">
        <ele>1091.1</ele>
        <time>2021-08-05T07:47:10Z</time>
      </trkpt>
      <trkpt lat="48.19577" lon="7.15346">
        <ele>1091.1</ele>
        <time>2021-08-05T07:47:11Z</time>
      </trkpt>
      <trkpt lat="48.19575" lon="7.15341">
        <ele>1091.1</ele>
        <time>2021-08-05T07:47:12Z</time>
      </trkpt>
      <trkpt lat="48.19572" lon="7.15336">
        <ele>1091.2</ele>
        <time>2021-08-05T07:47:13Z</time>
      </trkpt>
      <trkpt lat="48.19569" lon="7.1533">
        <ele>1091.2</ele>
        <time>2021-08-05T07:47:14Z</time>
      </trkpt>
      <trkpt lat="48.19566" lon="7.15323">
        <ele>1091.2</ele>
        <time>2021-08-05T07:47:16Z</time>
      </trkpt>
      <trkpt lat="48.19563" lon="7.15316">
        <ele>1091.2</ele>
        <time>2021-08-05T07:47:17Z</time>
      </trkpt>
      <trkpt lat="48.1956" lon="7.1531">
        <ele>1091.2</ele>
        <time>2021-08-05T07:47:18Z</time>
      </trkpt>
      <trkpt lat="48.19558" lon="7.15305">
        <ele>1091.2</ele>
        <time>2021-08-05T07:47:19Z</time>
      </trkpt>
      <trkpt lat="48.19555" lon="7.153">
        <ele>1091.2</ele>
        <time>2021-08-05T07:47:20Z</time>
      </trkpt>
      <trkpt lat="48.19552" lon="7.15294">
        <ele>1091.2</ele>
        <time>2021-08-05T07:47:21Z</time>
      </trkpt>
      <trkpt lat="48.1955" lon="7.15288">
        <ele>1091.1</ele>
        <time>2021-08-05T07:47:23Z</time>
      </trkpt>
      <trkpt lat="48.19548" lon="7.15282">
        <ele>1091.1</ele>
        <time>2021-08-05T07:47:24Z</time>
      </trkpt>
      <trkpt lat="48.19545" lon="7.15275">
        <ele>1091</ele>
        <time>2021-08-05T07:47:25Z</time>
      </trkpt>
      <trkpt lat="48.19542" lon="7.15267">
        <ele>1091</ele>
        <time>2021-08-05T07:47:26Z</time>
      </trkpt>
      <trkpt lat="48.19539" lon="7.15261">
        <ele>1090.9</ele>
        <time>2021-08-05T07:47:27Z</time>
      </trkpt>
      <trkpt lat="48.19536" lon="7.15255">
        <ele>1090.9</ele>
        <time>2021-08-05T07:47:28Z</time>
      </trkpt>
      <trkpt lat="48.19533" lon="7.15248">
        <ele>1090.8</ele>
        <time>2021-08-05T07:47:30Z</time>
      </trkpt>
      <trkpt lat="48.19528" lon="7.15238">
        <ele>1090.9</ele>
        <time>2021-08-05T07:47:32Z</time>
      </trkpt>
      <trkpt lat="48.19525" lon="7.1523">
        <ele>1091</ele>
        <time>2021-08-05T07:47:33Z</time>
      </trkpt>
      <trkpt lat="48.19522" lon="7.15224">
        <ele>1091</ele>
        <time>2021-08-05T07:47:35Z</time>
      </trkpt>
      <trkpt lat="48.1952" lon="7.15219">
        <ele>1091.1</ele>
        <time>2021-08-05T07:47:36Z</time>
      </trkpt>
      <trkpt lat="48.19518" lon="7.15215">
        <ele>1091.1</ele>
        <time>2021-08-05T07:47:37Z</time>
      </trkpt>
      <trkpt lat="48.19517" lon="7.1521">
        <ele>1091.1</ele>
        <time>2021-08-05T07:47:38Z</time>
      </trkpt>
      <trkpt lat="48.19515" lon="7.15206">
        <ele>1091.1</ele>
        <time>2021-08-05T07:47:39Z</time>
      </trkpt>
      <trkpt lat="48.19512" lon="7.15199">
        <ele>1091.1</ele>
        <time>2021-08-05T07:47:40Z</time>
      </trkpt>
      <trkpt lat="48.1951" lon="7.15193">
        <ele>1091.1</ele>
        <time>2021-08-05T07:47:42Z</time>
      </trkpt>
      <trkpt lat="48.19508" lon="7.15184">
        <ele>1091.2</ele>
        <time>2021-08-05T07:47:43Z</time>
      </trkpt>
      <trkpt lat="48.19506" lon="7.15178">
        <ele>1091.2</ele>
        <time>2021-08-05T07:47:45Z</time>
      </trkpt>
      <trkpt lat="48.19504" lon="7.15174">
        <ele>1091.2</ele>
        <time>2021-08-05T07:47:46Z</time>
      </trkpt>
      <trkpt lat="48.19502" lon="7.15167">
        <ele>1091.2</ele>
        <time>2021-08-05T07:47:47Z</time>
      </trkpt>
      <trkpt lat="48.19502" lon="7.15162">
        <ele>1091.2</ele>
        <time>2021-08-05T07:47:49Z</time>
      </trkpt>
      <trkpt lat="48.19501" lon="7.15161">
        <ele>1091.2</ele>
        <time>2021-08-05T07:47:50Z</time>
      </trkpt>
      <trkpt lat="48.195" lon="7.15161">
        <ele>1091.2</ele>
        <time>2021-08-05T07:47:51Z</time>
      </trkpt>
      <trkpt lat="48.19501" lon="7.15166">
        <ele>1091.3</ele>
        <time>2021-08-05T07:47:53Z</time>
      </trkpt>
      <trkpt lat="48.19504" lon="7.15171">
        <ele>1091.3</ele>
        <time>2021-08-05T07:47:55Z</time>
      </trkpt>
      <trkpt lat="48.19504" lon="7.15175">
        <ele>1091.3</ele>
        <time>2021-08-05T07:47:56Z</time>
      </trkpt>
      <trkpt lat="48.19504" lon="7.15176">
        <ele>1091.3</ele>
        <time>2021-08-05T07:47:57Z</time>
      </trkpt>
      <trkpt lat="48.19504" lon="7.15178">
        <ele>1091.3</ele>
        <time>2021-08-05T07:47:58Z</time>
      </trkpt>
      <trkpt lat="48.19504" lon="7.15179">
        <ele>1091.3</ele>
        <time>2021-08-05T07:47:59Z</time>
      </trkpt>
      <trkpt lat="48.19503" lon="7.1518">
        <ele>1091.3</ele>
        <time>2021-08-05T07:48:01Z</time>
      </trkpt>
      <trkpt lat="48.19503" lon="7.15181">
        <ele>1091.3</ele>
        <time>2021-08-05T07:48:03Z</time>
      </trkpt>
      <trkpt lat="48.19504" lon="7.15182">
        <ele>1091.3</ele>
        <time>2021-08-05T07:48:04Z</time>
      </trkpt>
      <trkpt lat="48.19504" lon="7.15183">
        <ele>1091.3</ele>
        <time>2021-08-05T07:48:05Z</time>
      </trkpt>
      <trkpt lat="48.19504" lon="7.15184">
        <ele>1091.3</ele>
        <time>2021-08-05T07:48:06Z</time>
      </trkpt>
      <trkpt lat="48.19504" lon="7.15185">
        <ele>1091.3</ele>
        <time>2021-08-05T07:48:08Z</time>
      </trkpt>
      <trkpt lat="48.19498" lon="7.15198">
        <ele>1091.3</ele>
        <time>2021-08-05T07:49:11Z</time>
      </trkpt>
      <trkpt lat="48.19498" lon="7.15197">
        <ele>1091.3</ele>
        <time>2021-08-05T07:49:12Z</time>
      </trkpt>
      <trkpt lat="48.19498" lon="7.15196">
        <ele>1091.2</ele>
        <time>2021-08-05T07:49:14Z</time>
      </trkpt>
      <trkpt lat="48.19498" lon="7.15196">
        <ele>1091.2</ele>
        <time>2021-08-05T07:49:15Z</time>
      </trkpt>
      <trkpt lat="48.19498" lon="7.15195">
        <ele>1091.2</ele>
        <time>2021-08-05T07:49:16Z</time>
      </trkpt>
      <trkpt lat="48.19498" lon="7.15194">
        <ele>1091.2</ele>
        <time>2021-08-05T07:49:17Z</time>
      </trkpt>
      <trkpt lat="48.19498" lon="7.15194">
        <ele>1091.2</ele>
        <time>2021-08-05T07:49:19Z</time>
      </trkpt>
      <trkpt lat="48.19498" lon="7.15193">
        <ele>1091.2</ele>
        <time>2021-08-05T07:49:21Z</time>
      </trkpt>
      <trkpt lat="48.19489" lon="7.15172">
        <ele>1091.1</ele>
        <time>2021-08-05T07:50:16Z</time>
      </trkpt>
      <trkpt lat="48.19488" lon="7.15168">
        <ele>1091</ele>
        <time>2021-08-05T07:50:17Z</time>
      </trkpt>
      <trkpt lat="48.19485" lon="7.15161">
        <ele>1090.9</ele>
        <time>2021-08-05T07:50:19Z</time>
      </trkpt>
      <trkpt lat="48.19482" lon="7.15154">
        <ele>1090.8</ele>
        <time>2021-08-05T07:50:20Z</time>
      </trkpt>
      <trkpt lat="48.1948" lon="7.15151">
        <ele>1090.8</ele>
        <time>2021-08-05T07:50:21Z</time>
      </trkpt>
      <trkpt lat="48.19478" lon="7.15148">
        <ele>1090.7</ele>
        <time>2021-08-05T07:50:23Z</time>
      </trkpt>
      <trkpt lat="48.19476" lon="7.15142">
        <ele>1090.6</ele>
        <time>2021-08-05T07:50:24Z</time>
      </trkpt>
      <trkpt lat="48.19475" lon="7.15139">
        <ele>1090.5</ele>
        <time>2021-08-05T07:50:26Z</time>
      </trkpt>
      <trkpt lat="48.19473" lon="7.15136">
        <ele>1090.5</ele>
        <time>2021-08-05T07:50:27Z</time>
      </trkpt>
      <trkpt lat="48.19471" lon="7.1513">
        <ele>1090.4</ele>
        <time>2021-08-05T07:50:29Z</time>
      </trkpt>
      <trkpt lat="48.19469" lon="7.15124">
        <ele>1090.3</ele>
        <time>2021-08-05T07:50:30Z</time>
      </trkpt>
      <trkpt lat="48.19468" lon="7.15122">
        <ele>1090.3</ele>
        <time>2021-08-05T07:50:31Z</time>
      </trkpt>
      <trkpt lat="48.19467" lon="7.15118">
        <ele>1090.2</ele>
        <time>2021-08-05T07:50:33Z</time>
      </trkpt>
      <trkpt lat="48.19465" lon="7.15114">
        <ele>1090.1</ele>
        <time>2021-08-05T07:50:34Z</time>
      </trkpt>
      <trkpt lat="48.19464" lon="7.1511">
        <ele>1090.1</ele>
        <time>2021-08-05T07:50:35Z</time>
      </trkpt>
      <trkpt lat="48.19463" lon="7.15105">
        <ele>1090</ele>
        <time>2021-08-05T07:50:36Z</time>
      </trkpt>
      <trkpt lat="48.19461" lon="7.15097">
        <ele>1089.9</ele>
        <time>2021-08-05T07:50:37Z</time>
      </trkpt>
      <trkpt lat="48.19459" lon="7.15092">
        <ele>1089.8</ele>
        <time>2021-08-05T07:50:39Z</time>
      </trkpt>
      <trkpt lat="48.19457" lon="7.15087">
        <ele>1089.7</ele>
        <time>2021-08-05T07:50:40Z</time>
      </trkpt>
      <trkpt lat="48.19455" lon="7.15082">
        <ele>1089.6</ele>
        <time>2021-08-05T07:50:41Z</time>
      </trkpt>
      <trkpt lat="48.19454" lon="7.15078">
        <ele>1089.5</ele>
        <time>2021-08-05T07:50:42Z</time>
      </trkpt>
      <trkpt lat="48.19452" lon="7.15074">
        <ele>1089.4</ele>
        <time>2021-08-05T07:50:43Z</time>
      </trkpt>
      <trkpt lat="48.1945" lon="7.15069">
        <ele>1089.3</ele>
        <time>2021-08-05T07:50:44Z</time>
      </trkpt>
      <trkpt lat="48.19449" lon="7.15061">
        <ele>1089.1</ele>
        <time>2021-08-05T07:50:45Z</time>
      </trkpt>
      <trkpt lat="48.19447" lon="7.15055">
        <ele>1089</ele>
        <time>2021-08-05T07:50:46Z</time>
      </trkpt>
      <trkpt lat="48.19445" lon="7.15049">
        <ele>1088.8</ele>
        <time>2021-08-05T07:50:48Z</time>
      </trkpt>
      <trkpt lat="48.19442" lon="7.15042">
        <ele>1088.5</ele>
        <time>2021-08-05T07:50:49Z</time>
      </trkpt>
      <trkpt lat="48.1944" lon="7.15037">
        <ele>1088.3</ele>
        <time>2021-08-05T07:50:50Z</time>
      </trkpt>
      <trkpt lat="48.19437" lon="7.1503">
        <ele>1088.1</ele>
        <time>2021-08-05T07:50:51Z</time>
      </trkpt>
      <trkpt lat="48.19434" lon="7.15024">
        <ele>1087.8</ele>
        <time>2021-08-05T07:50:53Z</time>
      </trkpt>
      <trkpt lat="48.19432" lon="7.15019">
        <ele>1087.6</ele>
        <time>2021-08-05T07:50:54Z</time>
      </trkpt>
      <trkpt lat="48.19427" lon="7.1501">
        <ele>1087.3</ele>
        <time>2021-08-05T07:50:55Z</time>
      </trkpt>
      <trkpt lat="48.19423" lon="7.15001">
        <ele>1086.9</ele>
        <time>2021-08-05T07:50:57Z</time>
      </trkpt>
      <trkpt lat="48.19421" lon="7.14994">
        <ele>1086.6</ele>
        <time>2021-08-05T07:50:58Z</time>
      </trkpt>
      <trkpt lat="48.19414" lon="7.14979">
        <ele>1085.8</ele>
        <time>2021-08-05T07:51:00Z</time>
      </trkpt>
      <trkpt lat="48.19407" lon="7.14963">
        <ele>1085.1</ele>
        <time>2021-08-05T07:51:02Z</time>
      </trkpt>
      <trkpt lat="48.19403" lon="7.14955">
        <ele>1084.8</ele>
        <time>2021-08-05T07:51:03Z</time>
      </trkpt>
      <trkpt lat="48.19397" lon="7.14938">
        <ele>1084.3</ele>
        <time>2021-08-05T07:51:05Z</time>
      </trkpt>
      <trkpt lat="48.19394" lon="7.14929">
        <ele>1084</ele>
        <time>2021-08-05T07:51:06Z</time>
      </trkpt>
      <trkpt lat="48.1939" lon="7.14911">
        <ele>1083.5</ele>
        <time>2021-08-05T07:51:08Z</time>
      </trkpt>
      <trkpt lat="48.19388" lon="7.14901">
        <ele>1083.2</ele>
        <time>2021-08-05T07:51:09Z</time>
      </trkpt>
      <trkpt lat="48.19386" lon="7.14891">
        <ele>1082.9</ele>
        <time>2021-08-05T07:51:10Z</time>
      </trkpt>
      <trkpt lat="48.19383" lon="7.14871">
        <ele>1082.4</ele>
        <time>2021-08-05T07:51:12Z</time>
      </trkpt>
      <trkpt lat="48.1938" lon="7.14851">
        <ele>1081.8</ele>
        <time>2021-08-05T07:51:14Z</time>
      </trkpt>
      <trkpt lat="48.19379" lon="7.14841">
        <ele>1081.5</ele>
        <time>2021-08-05T07:51:15Z</time>
      </trkpt>
      <trkpt lat="48.19378" lon="7.14831">
        <ele>1081.1</ele>
        <time>2021-08-05T07:51:16Z</time>
      </trkpt>
      <trkpt lat="48.19377" lon="7.14821">
        <ele>1080.8</ele>
        <time>2021-08-05T07:51:17Z</time>
      </trkpt>
      <trkpt lat="48.19377" lon="7.1481">
        <ele>1080.4</ele>
        <time>2021-08-05T07:51:18Z</time>
      </trkpt>
      <trkpt lat="48.19375" lon="7.14789">
        <ele>1079.7</ele>
        <time>2021-08-05T07:51:20Z</time>
      </trkpt>
      <trkpt lat="48.19371" lon="7.14768">
        <ele>1078.8</ele>
        <time>2021-08-05T07:51:22Z</time>
      </trkpt>
      <trkpt lat="48.19368" lon="7.14756">
        <ele>1078.4</ele>
        <time>2021-08-05T07:51:23Z</time>
      </trkpt>
      <trkpt lat="48.19365" lon="7.14745">
        <ele>1077.9</ele>
        <time>2021-08-05T07:51:24Z</time>
      </trkpt>
      <trkpt lat="48.1936" lon="7.14722">
        <ele>1076.5</ele>
        <time>2021-08-05T07:51:26Z</time>
      </trkpt>
      <trkpt lat="48.19356" lon="7.14703">
        <ele>1075.4</ele>
        <time>2021-08-05T07:51:28Z</time>
      </trkpt>
      <trkpt lat="48.19355" lon="7.14695">
        <ele>1074.9</ele>
        <time>2021-08-05T07:51:29Z</time>
      </trkpt>
      <trkpt lat="48.19354" lon="7.14686">
        <ele>1074.5</ele>
        <time>2021-08-05T07:51:30Z</time>
      </trkpt>
      <trkpt lat="48.19353" lon="7.14679">
        <ele>1074.1</ele>
        <time>2021-08-05T07:51:31Z</time>
      </trkpt>
      <trkpt lat="48.19352" lon="7.14665">
        <ele>1073.6</ele>
        <time>2021-08-05T07:51:33Z</time>
      </trkpt>
      <trkpt lat="48.19353" lon="7.14659">
        <ele>1073.6</ele>
        <time>2021-08-05T07:51:34Z</time>
      </trkpt>
      <trkpt lat="48.19356" lon="7.14651">
        <ele>1073.5</ele>
        <time>2021-08-05T07:51:36Z</time>
      </trkpt>
      <trkpt lat="48.1936" lon="7.14641">
        <ele>1073.4</ele>
        <time>2021-08-05T07:51:38Z</time>
      </trkpt>
      <trkpt lat="48.19362" lon="7.14638">
        <ele>1073.4</ele>
        <time>2021-08-05T07:51:39Z</time>
      </trkpt>
      <trkpt lat="48.19367" lon="7.1463">
        <ele>1073.3</ele>
        <time>2021-08-05T07:51:41Z</time>
      </trkpt>
      <trkpt lat="48.19369" lon="7.1463">
        <ele>1073.3</ele>
        <time>2021-08-05T07:51:42Z</time>
      </trkpt>
      <trkpt lat="48.1937" lon="7.14629">
        <ele>1073.3</ele>
        <time>2021-08-05T07:51:44Z</time>
      </trkpt>
      <trkpt lat="48.19368" lon="7.1463">
        <ele>1073.3</ele>
        <time>2021-08-05T07:51:45Z</time>
      </trkpt>
      <trkpt lat="48.19367" lon="7.1463">
        <ele>1073.3</ele>
        <time>2021-08-05T07:51:46Z</time>
      </trkpt>
      <trkpt lat="48.19366" lon="7.1463">
        <ele>1073.3</ele>
        <time>2021-08-05T07:51:48Z</time>
      </trkpt>
      <trkpt lat="48.19366" lon="7.1463">
        <ele>1073.3</ele>
        <time>2021-08-05T07:51:49Z</time>
      </trkpt>
      <trkpt lat="48.19366" lon="7.1463">
        <ele>1073.3</ele>
        <time>2021-08-05T07:51:50Z</time>
      </trkpt>
      <trkpt lat="48.19367" lon="7.1463">
        <ele>1073.3</ele>
        <time>2021-08-05T07:51:52Z</time>
      </trkpt>
      <trkpt lat="48.19357" lon="7.14631">
        <ele>1073.5</ele>
        <time>2021-08-05T08:02:56Z</time>
      </trkpt>
      <trkpt lat="48.19352" lon="7.14632">
        <ele>1073.6</ele>
        <time>2021-08-05T08:02:58Z</time>
      </trkpt>
      <trkpt lat="48.19349" lon="7.14632">
        <ele>1073.7</ele>
        <time>2021-08-05T08:02:59Z</time>
      </trkpt>
      <trkpt lat="48.19345" lon="7.14632">
        <ele>1073.8</ele>
        <time>2021-08-05T08:03:00Z</time>
      </trkpt>
      <trkpt lat="48.19338" lon="7.14631">
        <ele>1074.2</ele>
        <time>2021-08-05T08:03:02Z</time>
      </trkpt>
      <trkpt lat="48.19334" lon="7.14628">
        <ele>1074.3</ele>
        <time>2021-08-05T08:03:03Z</time>
      </trkpt>
      <trkpt lat="48.19331" lon="7.14625">
        <ele>1074.4</ele>
        <time>2021-08-05T08:03:04Z</time>
      </trkpt>
      <trkpt lat="48.19328" lon="7.14622">
        <ele>1074.5</ele>
        <time>2021-08-05T08:03:05Z</time>
      </trkpt>
      <trkpt lat="48.19323" lon="7.1461">
        <ele>1074.7</ele>
        <time>2021-08-05T08:03:06Z</time>
      </trkpt>
      <trkpt lat="48.19321" lon="7.14605">
        <ele>1074.8</ele>
        <time>2021-08-05T08:03:08Z</time>
      </trkpt>
      <trkpt lat="48.19321" lon="7.146">
        <ele>1074.8</ele>
        <time>2021-08-05T08:03:09Z</time>
      </trkpt>
      <trkpt lat="48.19322" lon="7.14591">
        <ele>1074.8</ele>
        <time>2021-08-05T08:03:10Z</time>
      </trkpt>
      <trkpt lat="48.19323" lon="7.14586">
        <ele>1074.8</ele>
        <time>2021-08-05T08:03:11Z</time>
      </trkpt>
      <trkpt lat="48.19323" lon="7.1458">
        <ele>1074.9</ele>
        <time>2021-08-05T08:03:13Z</time>
      </trkpt>
      <trkpt lat="48.19324" lon="7.14575">
        <ele>1074.9</ele>
        <time>2021-08-05T08:03:14Z</time>
      </trkpt>
      <trkpt lat="48.19326" lon="7.14568">
        <ele>1075</ele>
        <time>2021-08-05T08:03:15Z</time>
      </trkpt>
      <trkpt lat="48.19329" lon="7.14559">
        <ele>1074.9</ele>
        <time>2021-08-05T08:03:16Z</time>
      </trkpt>
      <trkpt lat="48.19333" lon="7.14549">
        <ele>1074.9</ele>
        <time>2021-08-05T08:03:18Z</time>
      </trkpt>
      <trkpt lat="48.19335" lon="7.14543">
        <ele>1074.8</ele>
        <time>2021-08-05T08:03:19Z</time>
      </trkpt>
      <trkpt lat="48.19337" lon="7.14537">
        <ele>1074.8</ele>
        <time>2021-08-05T08:03:20Z</time>
      </trkpt>
      <trkpt lat="48.19339" lon="7.14531">
        <ele>1074.8</ele>
        <time>2021-08-05T08:03:21Z</time>
      </trkpt>
      <trkpt lat="48.19342" lon="7.14522">
        <ele>1074.8</ele>
        <time>2021-08-05T08:03:23Z</time>
      </trkpt>
      <trkpt lat="48.19345" lon="7.14515">
        <ele>1074.8</ele>
        <time>2021-08-05T08:03:24Z</time>
      </trkpt>
      <trkpt lat="48.19348" lon="7.14508">
        <ele>1074.7</ele>
        <time>2021-08-05T08:03:25Z</time>
      </trkpt>
      <trkpt lat="48.1935" lon="7.14503">
        <ele>1074.7</ele>
        <time>2021-08-05T08:03:26Z</time>
      </trkpt>
      <trkpt lat="48.19353" lon="7.14497">
        <ele>1074.7</ele>
        <time>2021-08-05T08:03:27Z</time>
      </trkpt>
      <trkpt lat="48.19355" lon="7.14492">
        <ele>1074.7</ele>
        <time>2021-08-05T08:03:29Z</time>
      </trkpt>
      <trkpt lat="48.19358" lon="7.14488">
        <ele>1074.7</ele>
        <time>2021-08-05T08:03:30Z</time>
      </trkpt>
      <trkpt lat="48.1936" lon="7.14483">
        <ele>1074.7</ele>
        <time>2021-08-05T08:03:31Z</time>
      </trkpt>
      <trkpt lat="48.19364" lon="7.14474">
        <ele>1074.7</ele>
        <time>2021-08-05T08:03:32Z</time>
      </trkpt>
      <trkpt lat="48.19367" lon="7.14469">
        <ele>1074.6</ele>
        <time>2021-08-05T08:03:33Z</time>
      </trkpt>
      <trkpt lat="48.1937" lon="7.14462">
        <ele>1074.6</ele>
        <time>2021-08-05T08:03:35Z</time>
      </trkpt>
      <trkpt lat="48.19373" lon="7.14455">
        <ele>1074.6</ele>
        <time>2021-08-05T08:03:36Z</time>
      </trkpt>
      <trkpt lat="48.19375" lon="7.14448">
        <ele>1074.6</ele>
        <time>2021-08-05T08:03:37Z</time>
      </trkpt>
      <trkpt lat="48.19379" lon="7.14439">
        <ele>1074.6</ele>
        <time>2021-08-05T08:03:39Z</time>
      </trkpt>
      <trkpt lat="48.19382" lon="7.1443">
        <ele>1074.6</ele>
        <time>2021-08-05T08:03:41Z</time>
      </trkpt>
      <trkpt lat="48.19386" lon="7.14423">
        <ele>1074.6</ele>
        <time>2021-08-05T08:03:43Z</time>
      </trkpt>
      <trkpt lat="48.19388" lon="7.14418">
        <ele>1074.6</ele>
        <time>2021-08-05T08:03:44Z</time>
      </trkpt>
      <trkpt lat="48.1939" lon="7.14413">
        <ele>1074.6</ele>
        <time>2021-08-05T08:03:45Z</time>
      </trkpt>
      <trkpt lat="48.19392" lon="7.14406">
        <ele>1074.6</ele>
        <time>2021-08-05T08:03:46Z</time>
      </trkpt>
      <trkpt lat="48.19394" lon="7.144">
        <ele>1074.6</ele>
        <time>2021-08-05T08:03:48Z</time>
      </trkpt>
      <trkpt lat="48.19396" lon="7.14396">
        <ele>1074.6</ele>
        <time>2021-08-05T08:03:49Z</time>
      </trkpt>
      <trkpt lat="48.19397" lon="7.14391">
        <ele>1074.6</ele>
        <time>2021-08-05T08:03:50Z</time>
      </trkpt>
      <trkpt lat="48.19398" lon="7.14385">
        <ele>1074.6</ele>
        <time>2021-08-05T08:03:51Z</time>
      </trkpt>
      <trkpt lat="48.19398" lon="7.14378">
        <ele>1074.5</ele>
        <time>2021-08-05T08:03:53Z</time>
      </trkpt>
      <trkpt lat="48.19397" lon="7.14371">
        <ele>1074.5</ele>
        <time>2021-08-05T08:03:54Z</time>
      </trkpt>
      <trkpt lat="48.19396" lon="7.14365">
        <ele>1074.5</ele>
        <time>2021-08-05T08:03:55Z</time>
      </trkpt>
      <trkpt lat="48.19395" lon="7.14359">
        <ele>1074.5</ele>
        <time>2021-08-05T08:03:56Z</time>
      </trkpt>
      <trkpt lat="48.19394" lon="7.14353">
        <ele>1074.5</ele>
        <time>2021-08-05T08:03:57Z</time>
      </trkpt>
      <trkpt lat="48.19393" lon="7.14347">
        <ele>1074.4</ele>
        <time>2021-08-05T08:03:59Z</time>
      </trkpt>
      <trkpt lat="48.19392" lon="7.14337">
        <ele>1074.4</ele>
        <time>2021-08-05T08:04:01Z</time>
      </trkpt>
      <trkpt lat="48.1939" lon="7.14329">
        <ele>1074.4</ele>
        <time>2021-08-05T08:04:02Z</time>
      </trkpt>
      <trkpt lat="48.19389" lon="7.14323">
        <ele>1074.4</ele>
        <time>2021-08-05T08:04:03Z</time>
      </trkpt>
      <trkpt lat="48.19389" lon="7.14316">
        <ele>1074.4</ele>
        <time>2021-08-05T08:04:04Z</time>
      </trkpt>
      <trkpt lat="48.19388" lon="7.14308">
        <ele>1074.4</ele>
        <time>2021-08-05T08:04:05Z</time>
      </trkpt>
      <trkpt lat="48.19387" lon="7.14299">
        <ele>1074.4</ele>
        <time>2021-08-05T08:04:07Z</time>
      </trkpt>
      <trkpt lat="48.19385" lon="7.14287">
        <ele>1074.5</ele>
        <time>2021-08-05T08:04:08Z</time>
      </trkpt>
      <trkpt lat="48.19385" lon="7.14278">
        <ele>1074.5</ele>
        <time>2021-08-05T08:04:09Z</time>
      </trkpt>
      <trkpt lat="48.19384" lon="7.1427">
        <ele>1074.5</ele>
        <time>2021-08-05T08:04:10Z</time>
      </trkpt>
      <trkpt lat="48.19384" lon="7.14262">
        <ele>1074.5</ele>
        <time>2021-08-05T08:04:12Z</time>
      </trkpt>
      <trkpt lat="48.19382" lon="7.14253">
        <ele>1074.5</ele>
        <time>2021-08-05T08:04:13Z</time>
      </trkpt>
      <trkpt lat="48.19381" lon="7.14246">
        <ele>1074.5</ele>
        <time>2021-08-05T08:04:14Z</time>
      </trkpt>
      <trkpt lat="48.19379" lon="7.1424">
        <ele>1074.5</ele>
        <time>2021-08-05T08:04:15Z</time>
      </trkpt>
      <trkpt lat="48.19377" lon="7.14235">
        <ele>1074.5</ele>
        <time>2021-08-05T08:04:16Z</time>
      </trkpt>
      <trkpt lat="48.19375" lon="7.1423">
        <ele>1074.5</ele>
        <time>2021-08-05T08:04:18Z</time>
      </trkpt>
      <trkpt lat="48.19373" lon="7.14225">
        <ele>1074.5</ele>
        <time>2021-08-05T08:04:19Z</time>
      </trkpt>
      <trkpt lat="48.19371" lon="7.1422">
        <ele>1074.6</ele>
        <time>2021-08-05T08:04:20Z</time>
      </trkpt>
      <trkpt lat="48.19369" lon="7.14214">
        <ele>1074.6</ele>
        <time>2021-08-05T08:04:22Z</time>
      </trkpt>
      <trkpt lat="48.19367" lon="7.14209">
        <ele>1074.6</ele>
        <time>2021-08-05T08:04:23Z</time>
      </trkpt>
      <trkpt lat="48.19365" lon="7.14204">
        <ele>1074.6</ele>
        <time>2021-08-05T08:04:24Z</time>
      </trkpt>
      <trkpt lat="48.19363" lon="7.14198">
        <ele>1074.6</ele>
        <time>2021-08-05T08:04:25Z</time>
      </trkpt>
      <trkpt lat="48.1936" lon="7.1419">
        <ele>1074.6</ele>
        <time>2021-08-05T08:04:27Z</time>
      </trkpt>
      <trkpt lat="48.19357" lon="7.14183">
        <ele>1074.6</ele>
        <time>2021-08-05T08:04:28Z</time>
      </trkpt>
      <trkpt lat="48.19355" lon="7.14178">
        <ele>1074.6</ele>
        <time>2021-08-05T08:04:29Z</time>
      </trkpt>
      <trkpt lat="48.19352" lon="7.14173">
        <ele>1074.6</ele>
        <time>2021-08-05T08:04:30Z</time>
      </trkpt>
      <trkpt lat="48.19349" lon="7.14169">
        <ele>1074.7</ele>
        <time>2021-08-05T08:04:31Z</time>
      </trkpt>
      <trkpt lat="48.19345" lon="7.14164">
        <ele>1074.7</ele>
        <time>2021-08-05T08:04:32Z</time>
      </trkpt>
      <trkpt lat="48.19341" lon="7.14159">
        <ele>1074.7</ele>
        <time>2021-08-05T08:04:33Z</time>
      </trkpt>
      <trkpt lat="48.19337" lon="7.14154">
        <ele>1074.7</ele>
        <time>2021-08-05T08:04:34Z</time>
      </trkpt>
      <trkpt lat="48.19333" lon="7.1415">
        <ele>1074.7</ele>
        <time>2021-08-05T08:04:35Z</time>
      </trkpt>
      <trkpt lat="48.1933" lon="7.14144">
        <ele>1074.7</ele>
        <time>2021-08-05T08:04:37Z</time>
      </trkpt>
      <trkpt lat="48.19327" lon="7.1414">
        <ele>1074.7</ele>
        <time>2021-08-05T08:04:38Z</time>
      </trkpt>
      <trkpt lat="48.19323" lon="7.14132">
        <ele>1074.7</ele>
        <time>2021-08-05T08:04:39Z</time>
      </trkpt>
      <trkpt lat="48.1932" lon="7.14125">
        <ele>1074.7</ele>
        <time>2021-08-05T08:04:41Z</time>
      </trkpt>
      <trkpt lat="48.19317" lon="7.1412">
        <ele>1074.8</ele>
        <time>2021-08-05T08:04:42Z</time>
      </trkpt>
      <trkpt lat="48.19313" lon="7.14112">
        <ele>1074.8</ele>
        <time>2021-08-05T08:04:43Z</time>
      </trkpt>
      <trkpt lat="48.19309" lon="7.14106">
        <ele>1074.9</ele>
        <time>2021-08-05T08:04:45Z</time>
      </trkpt>
      <trkpt lat="48.19306" lon="7.14102">
        <ele>1074.9</ele>
        <time>2021-08-05T08:04:46Z</time>
      </trkpt>
      <trkpt lat="48.19302" lon="7.14096">
        <ele>1074.9</ele>
        <time>2021-08-05T08:04:47Z</time>
      </trkpt>
      <trkpt lat="48.19298" lon="7.14092">
        <ele>1074.9</ele>
        <time>2021-08-05T08:04:48Z</time>
      </trkpt>
      <trkpt lat="48.19295" lon="7.14087">
        <ele>1074.9</ele>
        <time>2021-08-05T08:04:49Z</time>
      </trkpt>
      <trkpt lat="48.19291" lon="7.14083">
        <ele>1074.9</ele>
        <time>2021-08-05T08:04:50Z</time>
      </trkpt>
      <trkpt lat="48.19287" lon="7.14078">
        <ele>1074.9</ele>
        <time>2021-08-05T08:04:51Z</time>
      </trkpt>
      <trkpt lat="48.19284" lon="7.14072">
        <ele>1074.9</ele>
        <time>2021-08-05T08:04:52Z</time>
      </trkpt>
      <trkpt lat="48.1928" lon="7.14066">
        <ele>1074.9</ele>
        <time>2021-08-05T08:04:54Z</time>
      </trkpt>
      <trkpt lat="48.19277" lon="7.14059">
        <ele>1074.9</ele>
        <time>2021-08-05T08:04:55Z</time>
      </trkpt>
      <trkpt lat="48.19273" lon="7.14051">
        <ele>1074.9</ele>
        <time>2021-08-05T08:04:56Z</time>
      </trkpt>
      <trkpt lat="48.19269" lon="7.14046">
        <ele>1074.9</ele>
        <time>2021-08-05T08:04:57Z</time>
      </trkpt>
      <trkpt lat="48.19266" lon="7.1404">
        <ele>1075</ele>
        <time>2021-08-05T08:04:58Z</time>
      </trkpt>
      <trkpt lat="48.19263" lon="7.14035">
        <ele>1075</ele>
        <time>2021-08-05T08:05:00Z</time>
      </trkpt>
      <trkpt lat="48.19261" lon="7.14031">
        <ele>1075</ele>
        <time>2021-08-05T08:05:01Z</time>
      </trkpt>
      <trkpt lat="48.19258" lon="7.14025">
        <ele>1075.1</ele>
        <time>2021-08-05T08:05:02Z</time>
      </trkpt>
      <trkpt lat="48.19256" lon="7.1402">
        <ele>1075.1</ele>
        <time>2021-08-05T08:05:03Z</time>
      </trkpt>
      <trkpt lat="48.19253" lon="7.14014">
        <ele>1075.1</ele>
        <time>2021-08-05T08:05:05Z</time>
      </trkpt>
      <trkpt lat="48.19252" lon="7.14011">
        <ele>1075.1</ele>
        <time>2021-08-05T08:05:06Z</time>
      </trkpt>
      <trkpt lat="48.1925" lon="7.14006">
        <ele>1075.1</ele>
        <time>2021-08-05T08:05:07Z</time>
      </trkpt>
      <trkpt lat="48.19248" lon="7.14001">
        <ele>1075.2</ele>
        <time>2021-08-05T08:05:08Z</time>
      </trkpt>
      <trkpt lat="48.19246" lon="7.13996">
        <ele>1075.2</ele>
        <time>2021-08-05T08:05:09Z</time>
      </trkpt>
      <trkpt lat="48.19244" lon="7.13991">
        <ele>1075.2</ele>
        <time>2021-08-05T08:05:10Z</time>
      </trkpt>
      <trkpt lat="48.19242" lon="7.13986">
        <ele>1075.2</ele>
        <time>2021-08-05T08:05:12Z</time>
      </trkpt>
      <trkpt lat="48.19238" lon="7.13979">
        <ele>1075.2</ele>
        <time>2021-08-05T08:05:13Z</time>
      </trkpt>
      <trkpt lat="48.19236" lon="7.13973">
        <ele>1075.3</ele>
        <time>2021-08-05T08:05:15Z</time>
      </trkpt>
      <trkpt lat="48.19232" lon="7.13965">
        <ele>1075.3</ele>
        <time>2021-08-05T08:05:16Z</time>
      </trkpt>
      <trkpt lat="48.19231" lon="7.1396">
        <ele>1075.3</ele>
        <time>2021-08-05T08:05:17Z</time>
      </trkpt>
      <trkpt lat="48.19229" lon="7.13954">
        <ele>1075.3</ele>
        <time>2021-08-05T08:05:19Z</time>
      </trkpt>
      <trkpt lat="48.19228" lon="7.13948">
        <ele>1075.3</ele>
        <time>2021-08-05T08:05:20Z</time>
      </trkpt>
      <trkpt lat="48.19226" lon="7.13943">
        <ele>1075.3</ele>
        <time>2021-08-05T08:05:21Z</time>
      </trkpt>
      <trkpt lat="48.19223" lon="7.13933">
        <ele>1075.3</ele>
        <time>2021-08-05T08:05:23Z</time>
      </trkpt>
      <trkpt lat="48.19222" lon="7.13929">
        <ele>1075.3</ele>
        <time>2021-08-05T08:05:24Z</time>
      </trkpt>
      <trkpt lat="48.1922" lon="7.13924">
        <ele>1075.3</ele>
        <time>2021-08-05T08:05:25Z</time>
      </trkpt>
      <trkpt lat="48.19219" lon="7.13918">
        <ele>1075.3</ele>
        <time>2021-08-05T08:05:26Z</time>
      </trkpt>
      <trkpt lat="48.19218" lon="7.13912">
        <ele>1075.3</ele>
        <time>2021-08-05T08:05:27Z</time>
      </trkpt>
      <trkpt lat="48.19216" lon="7.139">
        <ele>1075.3</ele>
        <time>2021-08-05T08:05:29Z</time>
      </trkpt>
      <trkpt lat="48.19215" lon="7.13888">
        <ele>1075.3</ele>
        <time>2021-08-05T08:05:31Z</time>
      </trkpt>
      <trkpt lat="48.19216" lon="7.13881">
        <ele>1075.3</ele>
        <time>2021-08-05T08:05:32Z</time>
      </trkpt>
      <trkpt lat="48.19218" lon="7.13875">
        <ele>1075.3</ele>
        <time>2021-08-05T08:05:33Z</time>
      </trkpt>
      <trkpt lat="48.19221" lon="7.13866">
        <ele>1075.3</ele>
        <time>2021-08-05T08:05:34Z</time>
      </trkpt>
      <trkpt lat="48.19224" lon="7.13859">
        <ele>1075.3</ele>
        <time>2021-08-05T08:05:35Z</time>
      </trkpt>
      <trkpt lat="48.19227" lon="7.13852">
        <ele>1075.3</ele>
        <time>2021-08-05T08:05:36Z</time>
      </trkpt>
      <trkpt lat="48.1923" lon="7.13843">
        <ele>1075.3</ele>
        <time>2021-08-05T08:05:38Z</time>
      </trkpt>
      <trkpt lat="48.19235" lon="7.13832">
        <ele>1075.3</ele>
        <time>2021-08-05T08:05:39Z</time>
      </trkpt>
      <trkpt lat="48.19239" lon="7.13823">
        <ele>1075.3</ele>
        <time>2021-08-05T08:05:41Z</time>
      </trkpt>
      <trkpt lat="48.19242" lon="7.13818">
        <ele>1075.2</ele>
        <time>2021-08-05T08:05:42Z</time>
      </trkpt>
      <trkpt lat="48.19247" lon="7.13809">
        <ele>1075.2</ele>
        <time>2021-08-05T08:05:43Z</time>
      </trkpt>
      <trkpt lat="48.1925" lon="7.13802">
        <ele>1075.1</ele>
        <time>2021-08-05T08:05:45Z</time>
      </trkpt>
      <trkpt lat="48.19253" lon="7.13797">
        <ele>1075.1</ele>
        <time>2021-08-05T08:05:46Z</time>
      </trkpt>
      <trkpt lat="48.19255" lon="7.13792">
        <ele>1075.1</ele>
        <time>2021-08-05T08:05:47Z</time>
      </trkpt>
      <trkpt lat="48.19261" lon="7.13783">
        <ele>1075.1</ele>
        <time>2021-08-05T08:05:49Z</time>
      </trkpt>
      <trkpt lat="48.19266" lon="7.13777">
        <ele>1075</ele>
        <time>2021-08-05T08:05:50Z</time>
      </trkpt>
      <trkpt lat="48.19269" lon="7.13773">
        <ele>1075</ele>
        <time>2021-08-05T08:05:51Z</time>
      </trkpt>
      <trkpt lat="48.19272" lon="7.13769">
        <ele>1075</ele>
        <time>2021-08-05T08:05:53Z</time>
      </trkpt>
      <trkpt lat="48.19275" lon="7.13765">
        <ele>1074.9</ele>
        <time>2021-08-05T08:05:54Z</time>
      </trkpt>
      <trkpt lat="48.1928" lon="7.1376">
        <ele>1074.9</ele>
        <time>2021-08-05T08:05:55Z</time>
      </trkpt>
      <trkpt lat="48.19283" lon="7.13755">
        <ele>1074.8</ele>
        <time>2021-08-05T08:05:57Z</time>
      </trkpt>
      <trkpt lat="48.19287" lon="7.1375">
        <ele>1074.7</ele>
        <time>2021-08-05T08:05:58Z</time>
      </trkpt>
      <trkpt lat="48.1929" lon="7.13745">
        <ele>1074.7</ele>
        <time>2021-08-05T08:05:59Z</time>
      </trkpt>
      <trkpt lat="48.19293" lon="7.13741">
        <ele>1074.6</ele>
        <time>2021-08-05T08:06:00Z</time>
      </trkpt>
      <trkpt lat="48.19298" lon="7.13735">
        <ele>1074.6</ele>
        <time>2021-08-05T08:06:01Z</time>
      </trkpt>
      <trkpt lat="48.19301" lon="7.13732">
        <ele>1074.5</ele>
        <time>2021-08-05T08:06:02Z</time>
      </trkpt>
      <trkpt lat="48.19304" lon="7.13729">
        <ele>1074.4</ele>
        <time>2021-08-05T08:06:03Z</time>
      </trkpt>
      <trkpt lat="48.19307" lon="7.13726">
        <ele>1074.4</ele>
        <time>2021-08-05T08:06:05Z</time>
      </trkpt>
      <trkpt lat="48.19312" lon="7.13723">
        <ele>1074.3</ele>
        <time>2021-08-05T08:06:06Z</time>
      </trkpt>
      <trkpt lat="48.19316" lon="7.1372">
        <ele>1074.2</ele>
        <time>2021-08-05T08:06:08Z</time>
      </trkpt>
      <trkpt lat="48.19319" lon="7.13718">
        <ele>1074.2</ele>
        <time>2021-08-05T08:06:09Z</time>
      </trkpt>
      <trkpt lat="48.19325" lon="7.13715">
        <ele>1074.1</ele>
        <time>2021-08-05T08:06:10Z</time>
      </trkpt>
      <trkpt lat="48.19329" lon="7.13712">
        <ele>1074.1</ele>
        <time>2021-08-05T08:06:11Z</time>
      </trkpt>
      <trkpt lat="48.19334" lon="7.13709">
        <ele>1074.1</ele>
        <time>2021-08-05T08:06:13Z</time>
      </trkpt>
      <trkpt lat="48.19339" lon="7.13708">
        <ele>1074.1</ele>
        <time>2021-08-05T08:06:14Z</time>
      </trkpt>
      <trkpt lat="48.19345" lon="7.13705">
        <ele>1074</ele>
        <time>2021-08-05T08:06:15Z</time>
      </trkpt>
      <trkpt lat="48.19348" lon="7.13703">
        <ele>1074</ele>
        <time>2021-08-05T08:06:16Z</time>
      </trkpt>
      <trkpt lat="48.19354" lon="7.13701">
        <ele>1074</ele>
        <time>2021-08-05T08:06:18Z</time>
      </trkpt>
      <trkpt lat="48.19359" lon="7.13699">
        <ele>1074</ele>
        <time>2021-08-05T08:06:19Z</time>
      </trkpt>
      <trkpt lat="48.19365" lon="7.13696">
        <ele>1073.9</ele>
        <time>2021-08-05T08:06:21Z</time>
      </trkpt>
      <trkpt lat="48.19369" lon="7.13695">
        <ele>1073.9</ele>
        <time>2021-08-05T08:06:22Z</time>
      </trkpt>
      <trkpt lat="48.19373" lon="7.13694">
        <ele>1073.9</ele>
        <time>2021-08-05T08:06:23Z</time>
      </trkpt>
      <trkpt lat="48.19382" lon="7.13694">
        <ele>1073.8</ele>
        <time>2021-08-05T08:06:25Z</time>
      </trkpt>
      <trkpt lat="48.19387" lon="7.13693">
        <ele>1073.8</ele>
        <time>2021-08-05T08:06:26Z</time>
      </trkpt>
      <trkpt lat="48.19394" lon="7.13691">
        <ele>1073.8</ele>
        <time>2021-08-05T08:06:27Z</time>
      </trkpt>
      <trkpt lat="48.19399" lon="7.13688">
        <ele>1073.7</ele>
        <time>2021-08-05T08:06:28Z</time>
      </trkpt>
      <trkpt lat="48.19404" lon="7.13686">
        <ele>1073.7</ele>
        <time>2021-08-05T08:06:29Z</time>
      </trkpt>
      <trkpt lat="48.19409" lon="7.13681">
        <ele>1073.7</ele>
        <time>2021-08-05T08:06:31Z</time>
      </trkpt>
      <trkpt lat="48.19413" lon="7.13677">
        <ele>1073.7</ele>
        <time>2021-08-05T08:06:32Z</time>
      </trkpt>
      <trkpt lat="48.19417" lon="7.13674">
        <ele>1073.7</ele>
        <time>2021-08-05T08:06:33Z</time>
      </trkpt>
      <trkpt lat="48.19421" lon="7.1367">
        <ele>1073.7</ele>
        <time>2021-08-05T08:06:34Z</time>
      </trkpt>
      <trkpt lat="48.19424" lon="7.13667">
        <ele>1073.7</ele>
        <time>2021-08-05T08:06:35Z</time>
      </trkpt>
      <trkpt lat="48.1943" lon="7.13663">
        <ele>1073.8</ele>
        <time>2021-08-05T08:06:37Z</time>
      </trkpt>
      <trkpt lat="48.19433" lon="7.13661">
        <ele>1073.8</ele>
        <time>2021-08-05T08:06:38Z</time>
      </trkpt>
      <trkpt lat="48.19439" lon="7.13657">
        <ele>1073.7</ele>
        <time>2021-08-05T08:06:39Z</time>
      </trkpt>
      <trkpt lat="48.19446" lon="7.13654">
        <ele>1073.6</ele>
        <time>2021-08-05T08:06:41Z</time>
      </trkpt>
      <trkpt lat="48.1945" lon="7.13652">
        <ele>1073.6</ele>
        <time>2021-08-05T08:06:42Z</time>
      </trkpt>
      <trkpt lat="48.19455" lon="7.1365">
        <ele>1073.4</ele>
        <time>2021-08-05T08:06:43Z</time>
      </trkpt>
      <trkpt lat="48.19461" lon="7.13649">
        <ele>1073.3</ele>
        <time>2021-08-05T08:06:45Z</time>
      </trkpt>
      <trkpt lat="48.19465" lon="7.13648">
        <ele>1073.3</ele>
        <time>2021-08-05T08:06:46Z</time>
      </trkpt>
      <trkpt lat="48.1947" lon="7.13648">
        <ele>1073.2</ele>
        <time>2021-08-05T08:06:47Z</time>
      </trkpt>
      <trkpt lat="48.19473" lon="7.13648">
        <ele>1073.1</ele>
        <time>2021-08-05T08:06:48Z</time>
      </trkpt>
      <trkpt lat="48.19477" lon="7.13648">
        <ele>1073</ele>
        <time>2021-08-05T08:06:49Z</time>
      </trkpt>
      <trkpt lat="48.1948" lon="7.13649">
        <ele>1072.9</ele>
        <time>2021-08-05T08:06:51Z</time>
      </trkpt>
      <trkpt lat="48.19483" lon="7.13651">
        <ele>1072.7</ele>
        <time>2021-08-05T08:06:53Z</time>
      </trkpt>
      <trkpt lat="48.19484" lon="7.13651">
        <ele>1072.6</ele>
        <time>2021-08-05T08:06:54Z</time>
      </trkpt>
      <trkpt lat="48.19484" lon="7.1365">
        <ele>1072.5</ele>
        <time>2021-08-05T08:06:55Z</time>
      </trkpt>
      <trkpt lat="48.19484" lon="7.13649">
        <ele>1072.5</ele>
        <time>2021-08-05T08:06:57Z</time>
      </trkpt>
      <trkpt lat="48.19484" lon="7.13649">
        <ele>1072.5</ele>
        <time>2021-08-05T08:06:58Z</time>
      </trkpt>
      <trkpt lat="48.19484" lon="7.13649">
        <ele>1072.5</ele>
        <time>2021-08-05T08:07:00Z</time>
      </trkpt>
      <trkpt lat="48.19483" lon="7.13649">
        <ele>1072.4</ele>
        <time>2021-08-05T08:07:01Z</time>
      </trkpt>
      <trkpt lat="48.1948" lon="7.13637">
        <ele>1071.7</ele>
        <time>2021-08-05T08:07:06Z</time>
      </trkpt>
      <trkpt lat="48.1948" lon="7.13618">
        <ele>1070.3</ele>
        <time>2021-08-05T08:07:08Z</time>
      </trkpt>
      <trkpt lat="48.1948" lon="7.13597">
        <ele>1068.9</ele>
        <time>2021-08-05T08:07:10Z</time>
      </trkpt>
      <trkpt lat="48.1948" lon="7.13588">
        <ele>1068.3</ele>
        <time>2021-08-05T08:07:11Z</time>
      </trkpt>
      <trkpt lat="48.1948" lon="7.13579">
        <ele>1067.7</ele>
        <time>2021-08-05T08:07:12Z</time>
      </trkpt>
      <trkpt lat="48.1948" lon="7.1357">
        <ele>1067.2</ele>
        <time>2021-08-05T08:07:13Z</time>
      </trkpt>
      <trkpt lat="48.19478" lon="7.13551">
        <ele>1066.3</ele>
        <time>2021-08-05T08:07:15Z</time>
      </trkpt>
      <trkpt lat="48.19476" lon="7.13534">
        <ele>1065.3</ele>
        <time>2021-08-05T08:07:17Z</time>
      </trkpt>
      <trkpt lat="48.19475" lon="7.1352">
        <ele>1064.2</ele>
        <time>2021-08-05T08:07:19Z</time>
      </trkpt>
      <trkpt lat="48.19474" lon="7.13513">
        <ele>1063.6</ele>
        <time>2021-08-05T08:07:20Z</time>
      </trkpt>
      <trkpt lat="48.19474" lon="7.13508">
        <ele>1063.1</ele>
        <time>2021-08-05T08:07:21Z</time>
      </trkpt>
      <trkpt lat="48.19472" lon="7.13492">
        <ele>1061.3</ele>
        <time>2021-08-05T08:07:23Z</time>
      </trkpt>
      <trkpt lat="48.19471" lon="7.13482">
        <ele>1060.2</ele>
        <time>2021-08-05T08:07:24Z</time>
      </trkpt>
      <trkpt lat="48.19471" lon="7.13461">
        <ele>1058.2</ele>
        <time>2021-08-05T08:07:26Z</time>
      </trkpt>
      <trkpt lat="48.1947" lon="7.13451">
        <ele>1057.3</ele>
        <time>2021-08-05T08:07:27Z</time>
      </trkpt>
      <trkpt lat="48.19469" lon="7.13441">
        <ele>1056.5</ele>
        <time>2021-08-05T08:07:28Z</time>
      </trkpt>
      <trkpt lat="48.19466" lon="7.13423">
        <ele>1054.9</ele>
        <time>2021-08-05T08:07:30Z</time>
      </trkpt>
      <trkpt lat="48.19463" lon="7.13407">
        <ele>1053.5</ele>
        <time>2021-08-05T08:07:32Z</time>
      </trkpt>
      <trkpt lat="48.1946" lon="7.13392">
        <ele>1052.1</ele>
        <time>2021-08-05T08:07:34Z</time>
      </trkpt>
      <trkpt lat="48.19459" lon="7.13385">
        <ele>1051.4</ele>
        <time>2021-08-05T08:07:35Z</time>
      </trkpt>
      <trkpt lat="48.19457" lon="7.13377">
        <ele>1050.7</ele>
        <time>2021-08-05T08:07:36Z</time>
      </trkpt>
      <trkpt lat="48.19454" lon="7.13363">
        <ele>1049.1</ele>
        <time>2021-08-05T08:07:38Z</time>
      </trkpt>
      <trkpt lat="48.1945" lon="7.13347">
        <ele>1047.6</ele>
        <time>2021-08-05T08:07:40Z</time>
      </trkpt>
      <trkpt lat="48.19447" lon="7.13339">
        <ele>1046.7</ele>
        <time>2021-08-05T08:07:41Z</time>
      </trkpt>
      <trkpt lat="48.19445" lon="7.13331">
        <ele>1045.9</ele>
        <time>2021-08-05T08:07:42Z</time>
      </trkpt>
      <trkpt lat="48.19442" lon="7.13322">
        <ele>1045</ele>
        <time>2021-08-05T08:07:43Z</time>
      </trkpt>
      <trkpt lat="48.1944" lon="7.13314">
        <ele>1044.2</ele>
        <time>2021-08-05T08:07:44Z</time>
      </trkpt>
      <trkpt lat="48.19437" lon="7.13299">
        <ele>1042.8</ele>
        <time>2021-08-05T08:07:46Z</time>
      </trkpt>
      <trkpt lat="48.19436" lon="7.13292">
        <ele>1042.2</ele>
        <time>2021-08-05T08:07:47Z</time>
      </trkpt>
      <trkpt lat="48.19433" lon="7.13278">
        <ele>1040.8</ele>
        <time>2021-08-05T08:07:49Z</time>
      </trkpt>
      <trkpt lat="48.19428" lon="7.13262">
        <ele>1039.4</ele>
        <time>2021-08-05T08:07:51Z</time>
      </trkpt>
      <trkpt lat="48.19424" lon="7.13246">
        <ele>1037.9</ele>
        <time>2021-08-05T08:07:53Z</time>
      </trkpt>
      <trkpt lat="48.19422" lon="7.13238">
        <ele>1037.2</ele>
        <time>2021-08-05T08:07:54Z</time>
      </trkpt>
      <trkpt lat="48.19418" lon="7.1322">
        <ele>1035.7</ele>
        <time>2021-08-05T08:07:56Z</time>
      </trkpt>
      <trkpt lat="48.19415" lon="7.13204">
        <ele>1034.2</ele>
        <time>2021-08-05T08:07:58Z</time>
      </trkpt>
      <trkpt lat="48.19412" lon="7.13195">
        <ele>1033.4</ele>
        <time>2021-08-05T08:07:59Z</time>
      </trkpt>
      <trkpt lat="48.19409" lon="7.13179">
        <ele>1032.2</ele>
        <time>2021-08-05T08:08:01Z</time>
      </trkpt>
      <trkpt lat="48.19408" lon="7.13172">
        <ele>1031.7</ele>
        <time>2021-08-05T08:08:02Z</time>
      </trkpt>
      <trkpt lat="48.19404" lon="7.13157">
        <ele>1030.8</ele>
        <time>2021-08-05T08:08:04Z</time>
      </trkpt>
      <trkpt lat="48.19402" lon="7.13149">
        <ele>1030.3</ele>
        <time>2021-08-05T08:08:05Z</time>
      </trkpt>
      <trkpt lat="48.194" lon="7.13141">
        <ele>1029.8</ele>
        <time>2021-08-05T08:08:06Z</time>
      </trkpt>
      <trkpt lat="48.19393" lon="7.13124">
        <ele>1029</ele>
        <time>2021-08-05T08:08:08Z</time>
      </trkpt>
      <trkpt lat="48.1939" lon="7.13116">
        <ele>1028.7</ele>
        <time>2021-08-05T08:08:09Z</time>
      </trkpt>
      <trkpt lat="48.19387" lon="7.13107">
        <ele>1028.3</ele>
        <time>2021-08-05T08:08:10Z</time>
      </trkpt>
      <trkpt lat="48.1938" lon="7.13088">
        <ele>1027.6</ele>
        <time>2021-08-05T08:08:12Z</time>
      </trkpt>
      <trkpt lat="48.19373" lon="7.13071">
        <ele>1027</ele>
        <time>2021-08-05T08:08:14Z</time>
      </trkpt>
      <trkpt lat="48.1937" lon="7.13063">
        <ele>1026.8</ele>
        <time>2021-08-05T08:08:15Z</time>
      </trkpt>
      <trkpt lat="48.19364" lon="7.13048">
        <ele>1026.6</ele>
        <time>2021-08-05T08:08:17Z</time>
      </trkpt>
      <trkpt lat="48.19361" lon="7.13041">
        <ele>1026.5</ele>
        <time>2021-08-05T08:08:18Z</time>
      </trkpt>
      <trkpt lat="48.19355" lon="7.13027">
        <ele>1026.5</ele>
        <time>2021-08-05T08:08:20Z</time>
      </trkpt>
      <trkpt lat="48.19352" lon="7.13021">
        <ele>1026.5</ele>
        <time>2021-08-05T08:08:21Z</time>
      </trkpt>
      <trkpt lat="48.19349" lon="7.13014">
        <ele>1026.6</ele>
        <time>2021-08-05T08:08:22Z</time>
      </trkpt>
      <trkpt lat="48.19347" lon="7.13007">
        <ele>1026.6</ele>
        <time>2021-08-05T08:08:23Z</time>
      </trkpt>
      <trkpt lat="48.19344" lon="7.12996">
        <ele>1026.8</ele>
        <time>2021-08-05T08:08:25Z</time>
      </trkpt>
      <trkpt lat="48.19341" lon="7.1299">
        <ele>1026.9</ele>
        <time>2021-08-05T08:08:26Z</time>
      </trkpt>
      <trkpt lat="48.19335" lon="7.12978">
        <ele>1027.1</ele>
        <time>2021-08-05T08:08:28Z</time>
      </trkpt>
      <trkpt lat="48.19332" lon="7.12973">
        <ele>1027.3</ele>
        <time>2021-08-05T08:08:29Z</time>
      </trkpt>
      <trkpt lat="48.19329" lon="7.12967">
        <ele>1027.6</ele>
        <time>2021-08-05T08:08:30Z</time>
      </trkpt>
      <trkpt lat="48.19325" lon="7.12962">
        <ele>1027.8</ele>
        <time>2021-08-05T08:08:31Z</time>
      </trkpt>
      <trkpt lat="48.19318" lon="7.12952">
        <ele>1028.3</ele>
        <time>2021-08-05T08:08:33Z</time>
      </trkpt>
      <trkpt lat="48.19313" lon="7.12943">
        <ele>1028.5</ele>
        <time>2021-08-05T08:08:35Z</time>
      </trkpt>
      <trkpt lat="48.19308" lon="7.12932">
        <ele>1028.7</ele>
        <time>2021-08-05T08:08:37Z</time>
      </trkpt>
      <trkpt lat="48.19305" lon="7.12925">
        <ele>1028.9</ele>
        <time>2021-08-05T08:08:38Z</time>
      </trkpt>
      <trkpt lat="48.19303" lon="7.12921">
        <ele>1029</ele>
        <time>2021-08-05T08:08:39Z</time>
      </trkpt>
      <trkpt lat="48.193" lon="7.12918">
        <ele>1029.1</ele>
        <time>2021-08-05T08:08:40Z</time>
      </trkpt>
      <trkpt lat="48.19299" lon="7.12924">
        <ele>1029.2</ele>
        <time>2021-08-05T08:08:42Z</time>
      </trkpt>
      <trkpt lat="48.19295" lon="7.12916">
        <ele>1029.3</ele>
        <time>2021-08-05T08:08:43Z</time>
      </trkpt>
      <trkpt lat="48.19292" lon="7.12909">
        <ele>1029.4</ele>
        <time>2021-08-05T08:08:44Z</time>
      </trkpt>
      <trkpt lat="48.19288" lon="7.129">
        <ele>1029.5</ele>
        <time>2021-08-05T08:08:45Z</time>
      </trkpt>
      <trkpt lat="48.19286" lon="7.12892">
        <ele>1029.5</ele>
        <time>2021-08-05T08:08:47Z</time>
      </trkpt>
      <trkpt lat="48.19287" lon="7.12886">
        <ele>1029.5</ele>
        <time>2021-08-05T08:08:48Z</time>
      </trkpt>
      <trkpt lat="48.19287" lon="7.12879">
        <ele>1029.4</ele>
        <time>2021-08-05T08:08:50Z</time>
      </trkpt>
      <trkpt lat="48.19287" lon="7.12875">
        <ele>1029.4</ele>
        <time>2021-08-05T08:08:51Z</time>
      </trkpt>
      <trkpt lat="48.19286" lon="7.12868">
        <ele>1029.3</ele>
        <time>2021-08-05T08:08:53Z</time>
      </trkpt>
      <trkpt lat="48.19284" lon="7.12862">
        <ele>1029.2</ele>
        <time>2021-08-05T08:08:54Z</time>
      </trkpt>
      <trkpt lat="48.19282" lon="7.12857">
        <ele>1029.1</ele>
        <time>2021-08-05T08:08:55Z</time>
      </trkpt>
      <trkpt lat="48.1928" lon="7.12852">
        <ele>1029</ele>
        <time>2021-08-05T08:08:57Z</time>
      </trkpt>
      <trkpt lat="48.19278" lon="7.12848">
        <ele>1028.9</ele>
        <time>2021-08-05T08:08:58Z</time>
      </trkpt>
      <trkpt lat="48.19276" lon="7.12843">
        <ele>1028.8</ele>
        <time>2021-08-05T08:08:59Z</time>
      </trkpt>
      <trkpt lat="48.19272" lon="7.12837">
        <ele>1028.6</ele>
        <time>2021-08-05T08:09:01Z</time>
      </trkpt>
      <trkpt lat="48.19269" lon="7.12832">
        <ele>1028.4</ele>
        <time>2021-08-05T08:09:02Z</time>
      </trkpt>
      <trkpt lat="48.19266" lon="7.12825">
        <ele>1028.1</ele>
        <time>2021-08-05T08:09:04Z</time>
      </trkpt>
      <trkpt lat="48.19263" lon="7.1282">
        <ele>1027.9</ele>
        <time>2021-08-05T08:09:05Z</time>
      </trkpt>
      <trkpt lat="48.19259" lon="7.12812">
        <ele>1027.6</ele>
        <time>2021-08-05T08:09:07Z</time>
      </trkpt>
      <trkpt lat="48.19255" lon="7.12805">
        <ele>1027.3</ele>
        <time>2021-08-05T08:09:08Z</time>
      </trkpt>
      <trkpt lat="48.19251" lon="7.12798">
        <ele>1027</ele>
        <time>2021-08-05T08:09:09Z</time>
      </trkpt>
      <trkpt lat="48.19243" lon="7.12786">
        <ele>1026.5</ele>
        <time>2021-08-05T08:09:11Z</time>
      </trkpt>
      <trkpt lat="48.19234" lon="7.12773">
        <ele>1025.9</ele>
        <time>2021-08-05T08:09:13Z</time>
      </trkpt>
      <trkpt lat="48.19228" lon="7.1276">
        <ele>1025.5</ele>
        <time>2021-08-05T08:09:15Z</time>
      </trkpt>
      <trkpt lat="48.19225" lon="7.12755">
        <ele>1025.3</ele>
        <time>2021-08-05T08:09:16Z</time>
      </trkpt>
      <trkpt lat="48.19222" lon="7.12751">
        <ele>1025.2</ele>
        <time>2021-08-05T08:09:17Z</time>
      </trkpt>
      <trkpt lat="48.19216" lon="7.12741">
        <ele>1025.1</ele>
        <time>2021-08-05T08:09:19Z</time>
      </trkpt>
      <trkpt lat="48.19216" lon="7.12733">
        <ele>1025</ele>
        <time>2021-08-05T08:09:21Z</time>
      </trkpt>
      <trkpt lat="48.1921" lon="7.12726">
        <ele>1025</ele>
        <time>2021-08-05T08:09:23Z</time>
      </trkpt>
      <trkpt lat="48.19207" lon="7.12722">
        <ele>1025</ele>
        <time>2021-08-05T08:09:24Z</time>
      </trkpt>
      <trkpt lat="48.19203" lon="7.12719">
        <ele>1025</ele>
        <time>2021-08-05T08:09:25Z</time>
      </trkpt>
      <trkpt lat="48.19202" lon="7.12715">
        <ele>1025.1</ele>
        <time>2021-08-05T08:09:26Z</time>
      </trkpt>
      <trkpt lat="48.19201" lon="7.12712">
        <ele>1025.1</ele>
        <time>2021-08-05T08:09:28Z</time>
      </trkpt>
      <trkpt lat="48.19206" lon="7.12711">
        <ele>1025.1</ele>
        <time>2021-08-05T08:09:30Z</time>
      </trkpt>
      <trkpt lat="48.19207" lon="7.1271">
        <ele>1025.2</ele>
        <time>2021-08-05T08:09:32Z</time>
      </trkpt>
      <trkpt lat="48.19207" lon="7.1271">
        <ele>1025.2</ele>
        <time>2021-08-05T08:09:34Z</time>
      </trkpt>
      <trkpt lat="48.19208" lon="7.1271">
        <ele>1025.2</ele>
        <time>2021-08-05T08:09:35Z</time>
      </trkpt>
      <trkpt lat="48.19208" lon="7.1271">
        <ele>1025.2</ele>
        <time>2021-08-05T08:09:37Z</time>
      </trkpt>
      <trkpt lat="48.19208" lon="7.1271">
        <ele>1025.2</ele>
        <time>2021-08-05T08:09:38Z</time>
      </trkpt>
      <trkpt lat="48.19198" lon="7.12698">
        <ele>1025.4</ele>
        <time>2021-08-05T08:09:48Z</time>
      </trkpt>
      <trkpt lat="48.19193" lon="7.12696">
        <ele>1025.5</ele>
        <time>2021-08-05T08:09:49Z</time>
      </trkpt>
      <trkpt lat="48.1919" lon="7.12694">
        <ele>1025.6</ele>
        <time>2021-08-05T08:09:50Z</time>
      </trkpt>
      <trkpt lat="48.19187" lon="7.12692">
        <ele>1025.7</ele>
        <time>2021-08-05T08:09:52Z</time>
      </trkpt>
      <trkpt lat="48.19184" lon="7.1269">
        <ele>1025.8</ele>
        <time>2021-08-05T08:09:53Z</time>
      </trkpt>
      <trkpt lat="48.1918" lon="7.12687">
        <ele>1026</ele>
        <time>2021-08-05T08:09:55Z</time>
      </trkpt>
      <trkpt lat="48.19176" lon="7.12685">
        <ele>1026.1</ele>
        <time>2021-08-05T08:09:56Z</time>
      </trkpt>
      <trkpt lat="48.19173" lon="7.12684">
        <ele>1026.1</ele>
        <time>2021-08-05T08:09:57Z</time>
      </trkpt>
      <trkpt lat="48.19168" lon="7.12681">
        <ele>1026.2</ele>
        <time>2021-08-05T08:09:59Z</time>
      </trkpt>
      <trkpt lat="48.19163" lon="7.12679">
        <ele>1026.2</ele>
        <time>2021-08-05T08:10:00Z</time>
      </trkpt>
      <trkpt lat="48.19159" lon="7.12676">
        <ele>1026.2</ele>
        <time>2021-08-05T08:10:01Z</time>
      </trkpt>
      <trkpt lat="48.19155" lon="7.12673">
        <ele>1026.2</ele>
        <time>2021-08-05T08:10:02Z</time>
      </trkpt>
      <trkpt lat="48.19151" lon="7.12671">
        <ele>1026.2</ele>
        <time>2021-08-05T08:10:04Z</time>
      </trkpt>
      <trkpt lat="48.19146" lon="7.12667">
        <ele>1026.1</ele>
        <time>2021-08-05T08:10:05Z</time>
      </trkpt>
      <trkpt lat="48.19142" lon="7.12664">
        <ele>1026</ele>
        <time>2021-08-05T08:10:06Z</time>
      </trkpt>
      <trkpt lat="48.19135" lon="7.12657">
        <ele>1025.8</ele>
        <time>2021-08-05T08:10:08Z</time>
      </trkpt>
      <trkpt lat="48.1913" lon="7.12651">
        <ele>1025.5</ele>
        <time>2021-08-05T08:10:09Z</time>
      </trkpt>
      <trkpt lat="48.19122" lon="7.1264">
        <ele>1025</ele>
        <time>2021-08-05T08:10:11Z</time>
      </trkpt>
      <trkpt lat="48.19118" lon="7.12633">
        <ele>1024.7</ele>
        <time>2021-08-05T08:10:12Z</time>
      </trkpt>
      <trkpt lat="48.19109" lon="7.12622">
        <ele>1023.9</ele>
        <time>2021-08-05T08:10:14Z</time>
      </trkpt>
      <trkpt lat="48.19105" lon="7.12616">
        <ele>1023.5</ele>
        <time>2021-08-05T08:10:15Z</time>
      </trkpt>
      <trkpt lat="48.19102" lon="7.12609">
        <ele>1023.1</ele>
        <time>2021-08-05T08:10:16Z</time>
      </trkpt>
      <trkpt lat="48.19098" lon="7.12602">
        <ele>1022.6</ele>
        <time>2021-08-05T08:10:17Z</time>
      </trkpt>
      <trkpt lat="48.19091" lon="7.12588">
        <ele>1021.7</ele>
        <time>2021-08-05T08:10:19Z</time>
      </trkpt>
      <trkpt lat="48.19087" lon="7.12581">
        <ele>1021.2</ele>
        <time>2021-08-05T08:10:20Z</time>
      </trkpt>
      <trkpt lat="48.19082" lon="7.12574">
        <ele>1020.7</ele>
        <time>2021-08-05T08:10:21Z</time>
      </trkpt>
      <trkpt lat="48.19077" lon="7.12567">
        <ele>1020.2</ele>
        <time>2021-08-05T08:10:22Z</time>
      </trkpt>
      <trkpt lat="48.19068" lon="7.12551">
        <ele>1019.1</ele>
        <time>2021-08-05T08:10:24Z</time>
      </trkpt>
      <trkpt lat="48.1906" lon="7.12533">
        <ele>1018</ele>
        <time>2021-08-05T08:10:26Z</time>
      </trkpt>
      <trkpt lat="48.19057" lon="7.12523">
        <ele>1017.5</ele>
        <time>2021-08-05T08:10:27Z</time>
      </trkpt>
      <trkpt lat="48.19049" lon="7.12503">
        <ele>1016.5</ele>
        <time>2021-08-05T08:10:29Z</time>
      </trkpt>
      <trkpt lat="48.19045" lon="7.12493">
        <ele>1015.9</ele>
        <time>2021-08-05T08:10:30Z</time>
      </trkpt>
      <trkpt lat="48.19037" lon="7.12472">
        <ele>1015</ele>
        <time>2021-08-05T08:10:32Z</time>
      </trkpt>
      <trkpt lat="48.19033" lon="7.12462">
        <ele>1014.5</ele>
        <time>2021-08-05T08:10:33Z</time>
      </trkpt>
      <trkpt lat="48.19024" lon="7.12441">
        <ele>1013.7</ele>
        <time>2021-08-05T08:10:35Z</time>
      </trkpt>
      <trkpt lat="48.1902" lon="7.1243">
        <ele>1013.3</ele>
        <time>2021-08-05T08:10:36Z</time>
      </trkpt>
      <trkpt lat="48.19013" lon="7.12412">
        <ele>1012.4</ele>
        <time>2021-08-05T08:10:38Z</time>
      </trkpt>
      <trkpt lat="48.19005" lon="7.12398">
        <ele>1011.3</ele>
        <time>2021-08-05T08:10:40Z</time>
      </trkpt>
      <trkpt lat="48.19002" lon="7.12392">
        <ele>1010.8</ele>
        <time>2021-08-05T08:10:41Z</time>
      </trkpt>
      <trkpt lat="48.18998" lon="7.12387">
        <ele>1010.2</ele>
        <time>2021-08-05T08:10:42Z</time>
      </trkpt>
      <trkpt lat="48.18994" lon="7.12382">
        <ele>1009.7</ele>
        <time>2021-08-05T08:10:43Z</time>
      </trkpt>
      <trkpt lat="48.1899" lon="7.12378">
        <ele>1009.1</ele>
        <time>2021-08-05T08:10:44Z</time>
      </trkpt>
      <trkpt lat="48.18985" lon="7.12374">
        <ele>1008.6</ele>
        <time>2021-08-05T08:10:45Z</time>
      </trkpt>
      <trkpt lat="48.18981" lon="7.1237">
        <ele>1008</ele>
        <time>2021-08-05T08:10:46Z</time>
      </trkpt>
      <trkpt lat="48.18976" lon="7.12366">
        <ele>1007.2</ele>
        <time>2021-08-05T08:10:47Z</time>
      </trkpt>
      <trkpt lat="48.18972" lon="7.1236">
        <ele>1006.5</ele>
        <time>2021-08-05T08:10:48Z</time>
      </trkpt>
      <trkpt lat="48.18968" lon="7.12353">
        <ele>1005.8</ele>
        <time>2021-08-05T08:10:49Z</time>
      </trkpt>
      <trkpt lat="48.1896" lon="7.1234">
        <ele>1004.2</ele>
        <time>2021-08-05T08:10:51Z</time>
      </trkpt>
      <trkpt lat="48.18953" lon="7.12326">
        <ele>1002.5</ele>
        <time>2021-08-05T08:10:53Z</time>
      </trkpt>
      <trkpt lat="48.1895" lon="7.12319">
        <ele>1001.7</ele>
        <time>2021-08-05T08:10:54Z</time>
      </trkpt>
      <trkpt lat="48.18945" lon="7.12308">
        <ele>1000.3</ele>
        <time>2021-08-05T08:10:56Z</time>
      </trkpt>
      <trkpt lat="48.18939" lon="7.12296">
        <ele>998.9</ele>
        <time>2021-08-05T08:10:58Z</time>
      </trkpt>
      <trkpt lat="48.18936" lon="7.12289">
        <ele>998</ele>
        <time>2021-08-05T08:10:59Z</time>
      </trkpt>
      <trkpt lat="48.18933" lon="7.12282">
        <ele>997.2</ele>
        <time>2021-08-05T08:11:00Z</time>
      </trkpt>
      <trkpt lat="48.18929" lon="7.12268">
        <ele>995.8</ele>
        <time>2021-08-05T08:11:02Z</time>
      </trkpt>
      <trkpt lat="48.18926" lon="7.12252">
        <ele>994.3</ele>
        <time>2021-08-05T08:11:04Z</time>
      </trkpt>
      <trkpt lat="48.18925" lon="7.12244">
        <ele>993.6</ele>
        <time>2021-08-05T08:11:05Z</time>
      </trkpt>
      <trkpt lat="48.18923" lon="7.12236">
        <ele>992.8</ele>
        <time>2021-08-05T08:11:06Z</time>
      </trkpt>
      <trkpt lat="48.18921" lon="7.1222">
        <ele>991.3</ele>
        <time>2021-08-05T08:11:08Z</time>
      </trkpt>
      <trkpt lat="48.1892" lon="7.12212">
        <ele>990.5</ele>
        <time>2021-08-05T08:11:09Z</time>
      </trkpt>
      <trkpt lat="48.18919" lon="7.12205">
        <ele>989.8</ele>
        <time>2021-08-05T08:11:10Z</time>
      </trkpt>
      <trkpt lat="48.18916" lon="7.12192">
        <ele>988.3</ele>
        <time>2021-08-05T08:11:12Z</time>
      </trkpt>
      <trkpt lat="48.18914" lon="7.12185">
        <ele>987.4</ele>
        <time>2021-08-05T08:11:13Z</time>
      </trkpt>
      <trkpt lat="48.18913" lon="7.12178">
        <ele>986.6</ele>
        <time>2021-08-05T08:11:14Z</time>
      </trkpt>
      <trkpt lat="48.18912" lon="7.12171">
        <ele>985.8</ele>
        <time>2021-08-05T08:11:15Z</time>
      </trkpt>
      <trkpt lat="48.1891" lon="7.12159">
        <ele>984.5</ele>
        <time>2021-08-05T08:11:17Z</time>
      </trkpt>
      <trkpt lat="48.18909" lon="7.12154">
        <ele>983.8</ele>
        <time>2021-08-05T08:11:18Z</time>
      </trkpt>
      <trkpt lat="48.18909" lon="7.12149">
        <ele>983.3</ele>
        <time>2021-08-05T08:11:19Z</time>
      </trkpt>
      <trkpt lat="48.18906" lon="7.12135">
        <ele>981.7</ele>
        <time>2021-08-05T08:11:21Z</time>
      </trkpt>
      <trkpt lat="48.18903" lon="7.12124">
        <ele>980.3</ele>
        <time>2021-08-05T08:11:23Z</time>
      </trkpt>
      <trkpt lat="48.189" lon="7.12121">
        <ele>979.8</ele>
        <time>2021-08-05T08:11:24Z</time>
      </trkpt>
      <trkpt lat="48.18893" lon="7.12114">
        <ele>978.5</ele>
        <time>2021-08-05T08:11:26Z</time>
      </trkpt>
      <trkpt lat="48.1889" lon="7.1211">
        <ele>977.8</ele>
        <time>2021-08-05T08:11:27Z</time>
      </trkpt>
      <trkpt lat="48.18883" lon="7.121">
        <ele>976.5</ele>
        <time>2021-08-05T08:11:29Z</time>
      </trkpt>
      <trkpt lat="48.1888" lon="7.12095">
        <ele>975.9</ele>
        <time>2021-08-05T08:11:30Z</time>
      </trkpt>
      <trkpt lat="48.18877" lon="7.12089">
        <ele>975.3</ele>
        <time>2021-08-05T08:11:31Z</time>
      </trkpt>
      <trkpt lat="48.18875" lon="7.12084">
        <ele>974.8</ele>
        <time>2021-08-05T08:11:32Z</time>
      </trkpt>
      <trkpt lat="48.18873" lon="7.12072">
        <ele>972.6</ele>
        <time>2021-08-05T08:11:34Z</time>
      </trkpt>
      <trkpt lat="48.18873" lon="7.12065">
        <ele>972.5</ele>
        <time>2021-08-05T08:11:35Z</time>
      </trkpt>
      <trkpt lat="48.18874" lon="7.1206">
        <ele>972.4</ele>
        <time>2021-08-05T08:11:36Z</time>
      </trkpt>
      <trkpt lat="48.18878" lon="7.12055">
        <ele>972.4</ele>
        <time>2021-08-05T08:11:37Z</time>
      </trkpt>
      <trkpt lat="48.18884" lon="7.12051">
        <ele>971.7</ele>
        <time>2021-08-05T08:11:39Z</time>
      </trkpt>
      <trkpt lat="48.18895" lon="7.12047">
        <ele>971.2</ele>
        <time>2021-08-05T08:11:40Z</time>
      </trkpt>
      <trkpt lat="48.18901" lon="7.12046">
        <ele>970.9</ele>
        <time>2021-08-05T08:11:41Z</time>
      </trkpt>
      <trkpt lat="48.18911" lon="7.12043">
        <ele>970.4</ele>
        <time>2021-08-05T08:11:43Z</time>
      </trkpt>
      <trkpt lat="48.18922" lon="7.1204">
        <ele>969.8</ele>
        <time>2021-08-05T08:11:45Z</time>
      </trkpt>
      <trkpt lat="48.18932" lon="7.12038">
        <ele>969.1</ele>
        <time>2021-08-05T08:11:47Z</time>
      </trkpt>
      <trkpt lat="48.18938" lon="7.12038">
        <ele>968.7</ele>
        <time>2021-08-05T08:11:48Z</time>
      </trkpt>
      <trkpt lat="48.1895" lon="7.12037">
        <ele>968</ele>
        <time>2021-08-05T08:11:50Z</time>
      </trkpt>
      <trkpt lat="48.18956" lon="7.12038">
        <ele>967.6</ele>
        <time>2021-08-05T08:11:51Z</time>
      </trkpt>
      <trkpt lat="48.18967" lon="7.12039">
        <ele>967.1</ele>
        <time>2021-08-05T08:11:53Z</time>
      </trkpt>
      <trkpt lat="48.18973" lon="7.12039">
        <ele>966.7</ele>
        <time>2021-08-05T08:11:54Z</time>
      </trkpt>
      <trkpt lat="48.18978" lon="7.12039">
        <ele>966.4</ele>
        <time>2021-08-05T08:11:55Z</time>
      </trkpt>
      <trkpt lat="48.18988" lon="7.1204">
        <ele>965.8</ele>
        <time>2021-08-05T08:11:57Z</time>
      </trkpt>
      <trkpt lat="48.18995" lon="7.12041">
        <ele>965.3</ele>
        <time>2021-08-05T08:11:59Z</time>
      </trkpt>
      <trkpt lat="48.18999" lon="7.12042">
        <ele>964.9</ele>
        <time>2021-08-05T08:12:00Z</time>
      </trkpt>
      <trkpt lat="48.19008" lon="7.12044">
        <ele>964.1</ele>
        <time>2021-08-05T08:12:02Z</time>
      </trkpt>
      <trkpt lat="48.19019" lon="7.12047">
        <ele>962.8</ele>
        <time>2021-08-05T08:12:04Z</time>
      </trkpt>
      <trkpt lat="48.19025" lon="7.12049">
        <ele>962.1</ele>
        <time>2021-08-05T08:12:05Z</time>
      </trkpt>
      <trkpt lat="48.1903" lon="7.12052">
        <ele>961.3</ele>
        <time>2021-08-05T08:12:07Z</time>
      </trkpt>
      <trkpt lat="48.19033" lon="7.12054">
        <ele>960.8</ele>
        <time>2021-08-05T08:12:08Z</time>
      </trkpt>
      <trkpt lat="48.19037" lon="7.12055">
        <ele>960.1</ele>
        <time>2021-08-05T08:12:09Z</time>
      </trkpt>
      <trkpt lat="48.19048" lon="7.12063">
        <ele>958.3</ele>
        <time>2021-08-05T08:12:11Z</time>
      </trkpt>
      <trkpt lat="48.19054" lon="7.12066">
        <ele>957.5</ele>
        <time>2021-08-05T08:12:12Z</time>
      </trkpt>
      <trkpt lat="48.19065" lon="7.12073">
        <ele>955.9</ele>
        <time>2021-08-05T08:12:14Z</time>
      </trkpt>
      <trkpt lat="48.1907" lon="7.12076">
        <ele>955.2</ele>
        <time>2021-08-05T08:12:15Z</time>
      </trkpt>
      <trkpt lat="48.19075" lon="7.12079">
        <ele>954.6</ele>
        <time>2021-08-05T08:12:16Z</time>
      </trkpt>
      <trkpt lat="48.19085" lon="7.12082">
        <ele>953.4</ele>
        <time>2021-08-05T08:12:18Z</time>
      </trkpt>
      <trkpt lat="48.19095" lon="7.12079">
        <ele>952.4</ele>
        <time>2021-08-05T08:12:20Z</time>
      </trkpt>
      <trkpt lat="48.191" lon="7.12074">
        <ele>951.7</ele>
        <time>2021-08-05T08:12:21Z</time>
      </trkpt>
      <trkpt lat="48.19109" lon="7.12064">
        <ele>950.7</ele>
        <time>2021-08-05T08:12:23Z</time>
      </trkpt>
      <trkpt lat="48.19113" lon="7.12059">
        <ele>950.1</ele>
        <time>2021-08-05T08:12:24Z</time>
      </trkpt>
      <trkpt lat="48.19119" lon="7.12046">
        <ele>949</ele>
        <time>2021-08-05T08:12:26Z</time>
      </trkpt>
      <trkpt lat="48.19123" lon="7.12037">
        <ele>948.4</ele>
        <time>2021-08-05T08:12:27Z</time>
      </trkpt>
      <trkpt lat="48.19127" lon="7.12028">
        <ele>947.7</ele>
        <time>2021-08-05T08:12:28Z</time>
      </trkpt>
      <trkpt lat="48.19136" lon="7.12004">
        <ele>946.1</ele>
        <time>2021-08-05T08:12:30Z</time>
      </trkpt>
      <trkpt lat="48.19144" lon="7.11982">
        <ele>945</ele>
        <time>2021-08-05T08:12:32Z</time>
      </trkpt>
      <trkpt lat="48.19151" lon="7.11959">
        <ele>944.1</ele>
        <time>2021-08-05T08:12:34Z</time>
      </trkpt>
      <trkpt lat="48.19159" lon="7.1194">
        <ele>943.4</ele>
        <time>2021-08-05T08:12:36Z</time>
      </trkpt>
      <trkpt lat="48.19167" lon="7.11923">
        <ele>942.5</ele>
        <time>2021-08-05T08:12:38Z</time>
      </trkpt>
      <trkpt lat="48.19176" lon="7.11906">
        <ele>941.4</ele>
        <time>2021-08-05T08:12:40Z</time>
      </trkpt>
      <trkpt lat="48.19182" lon="7.11891">
        <ele>940.5</ele>
        <time>2021-08-05T08:12:42Z</time>
      </trkpt>
      <trkpt lat="48.19187" lon="7.11878">
        <ele>939.7</ele>
        <time>2021-08-05T08:12:44Z</time>
      </trkpt>
      <trkpt lat="48.19188" lon="7.11872">
        <ele>939.2</ele>
        <time>2021-08-05T08:12:45Z</time>
      </trkpt>
      <trkpt lat="48.19191" lon="7.11865">
        <ele>938.6</ele>
        <time>2021-08-05T08:12:46Z</time>
      </trkpt>
      <trkpt lat="48.19193" lon="7.11857">
        <ele>938</ele>
        <time>2021-08-05T08:12:47Z</time>
      </trkpt>
      <trkpt lat="48.19197" lon="7.11848">
        <ele>937.1</ele>
        <time>2021-08-05T08:12:48Z</time>
      </trkpt>
      <trkpt lat="48.19203" lon="7.1183">
        <ele>935.7</ele>
        <time>2021-08-05T08:12:50Z</time>
      </trkpt>
      <trkpt lat="48.19211" lon="7.11812">
        <ele>934.5</ele>
        <time>2021-08-05T08:12:52Z</time>
      </trkpt>
      <trkpt lat="48.19215" lon="7.11802">
        <ele>934</ele>
        <time>2021-08-05T08:12:53Z</time>
      </trkpt>
      <trkpt lat="48.19217" lon="7.11794">
        <ele>933.5</ele>
        <time>2021-08-05T08:12:54Z</time>
      </trkpt>
      <trkpt lat="48.19219" lon="7.11785">
        <ele>933</ele>
        <time>2021-08-05T08:12:55Z</time>
      </trkpt>
      <trkpt lat="48.1922" lon="7.11769">
        <ele>931.9</ele>
        <time>2021-08-05T08:12:57Z</time>
      </trkpt>
      <trkpt lat="48.1922" lon="7.11761">
        <ele>931.7</ele>
        <time>2021-08-05T08:12:58Z</time>
      </trkpt>
      <trkpt lat="48.19219" lon="7.11754">
        <ele>931.5</ele>
        <time>2021-08-05T08:12:59Z</time>
      </trkpt>
      <trkpt lat="48.19217" lon="7.11738">
        <ele>931.1</ele>
        <time>2021-08-05T08:13:01Z</time>
      </trkpt>
      <trkpt lat="48.19216" lon="7.1173">
        <ele>930.9</ele>
        <time>2021-08-05T08:13:02Z</time>
      </trkpt>
      <trkpt lat="48.19215" lon="7.11721">
        <ele>930.8</ele>
        <time>2021-08-05T08:13:03Z</time>
      </trkpt>
      <trkpt lat="48.19214" lon="7.11712">
        <ele>930.7</ele>
        <time>2021-08-05T08:13:04Z</time>
      </trkpt>
      <trkpt lat="48.19211" lon="7.11695">
        <ele>930.3</ele>
        <time>2021-08-05T08:13:06Z</time>
      </trkpt>
      <trkpt lat="48.1921" lon="7.11686">
        <ele>930</ele>
        <time>2021-08-05T08:13:07Z</time>
      </trkpt>
      <trkpt lat="48.19207" lon="7.1167">
        <ele>929.4</ele>
        <time>2021-08-05T08:13:09Z</time>
      </trkpt>
      <trkpt lat="48.19206" lon="7.11663">
        <ele>929.1</ele>
        <time>2021-08-05T08:13:10Z</time>
      </trkpt>
      <trkpt lat="48.19205" lon="7.11657">
        <ele>928.7</ele>
        <time>2021-08-05T08:13:11Z</time>
      </trkpt>
      <trkpt lat="48.19204" lon="7.11646">
        <ele>927.9</ele>
        <time>2021-08-05T08:13:13Z</time>
      </trkpt>
      <trkpt lat="48.19202" lon="7.11634">
        <ele>927</ele>
        <time>2021-08-05T08:13:15Z</time>
      </trkpt>
      <trkpt lat="48.19202" lon="7.11628">
        <ele>926.6</ele>
        <time>2021-08-05T08:13:16Z</time>
      </trkpt>
      <trkpt lat="48.19201" lon="7.11611">
        <ele>925</ele>
        <time>2021-08-05T08:13:18Z</time>
      </trkpt>
      <trkpt lat="48.192" lon="7.11605">
        <ele>924.4</ele>
        <time>2021-08-05T08:13:19Z</time>
      </trkpt>
      <trkpt lat="48.19199" lon="7.11592">
        <ele>923.1</ele>
        <time>2021-08-05T08:13:21Z</time>
      </trkpt>
      <trkpt lat="48.19201" lon="7.11578">
        <ele>921.6</ele>
        <time>2021-08-05T08:13:23Z</time>
      </trkpt>
      <trkpt lat="48.19202" lon="7.1157">
        <ele>920.8</ele>
        <time>2021-08-05T08:13:24Z</time>
      </trkpt>
      <trkpt lat="48.19203" lon="7.11562">
        <ele>920.1</ele>
        <time>2021-08-05T08:13:25Z</time>
      </trkpt>
      <trkpt lat="48.19204" lon="7.11555">
        <ele>919.3</ele>
        <time>2021-08-05T08:13:26Z</time>
      </trkpt>
      <trkpt lat="48.19204" lon="7.11545">
        <ele>918.5</ele>
        <time>2021-08-05T08:13:28Z</time>
      </trkpt>
      <trkpt lat="48.19206" lon="7.11532">
        <ele>917.4</ele>
        <time>2021-08-05T08:13:30Z</time>
      </trkpt>
      <trkpt lat="48.19208" lon="7.11526">
        <ele>916.8</ele>
        <time>2021-08-05T08:13:31Z</time>
      </trkpt>
      <trkpt lat="48.19211" lon="7.11519">
        <ele>916.1</ele>
        <time>2021-08-05T08:13:32Z</time>
      </trkpt>
      <trkpt lat="48.19213" lon="7.1151">
        <ele>915.4</ele>
        <time>2021-08-05T08:13:34Z</time>
      </trkpt>
      <trkpt lat="48.19215" lon="7.115">
        <ele>914.5</ele>
        <time>2021-08-05T08:13:35Z</time>
      </trkpt>
      <trkpt lat="48.19217" lon="7.11492">
        <ele>913.8</ele>
        <time>2021-08-05T08:13:36Z</time>
      </trkpt>
      <trkpt lat="48.19218" lon="7.11485">
        <ele>913.2</ele>
        <time>2021-08-05T08:13:37Z</time>
      </trkpt>
      <trkpt lat="48.19222" lon="7.11471">
        <ele>911.7</ele>
        <time>2021-08-05T08:13:39Z</time>
      </trkpt>
      <trkpt lat="48.19225" lon="7.11457">
        <ele>910.2</ele>
        <time>2021-08-05T08:13:41Z</time>
      </trkpt>
      <trkpt lat="48.19226" lon="7.11451">
        <ele>909.4</ele>
        <time>2021-08-05T08:13:42Z</time>
      </trkpt>
      <trkpt lat="48.19228" lon="7.11444">
        <ele>908.7</ele>
        <time>2021-08-05T08:13:43Z</time>
      </trkpt>
      <trkpt lat="48.1923" lon="7.1144">
        <ele>908.2</ele>
        <time>2021-08-05T08:13:44Z</time>
      </trkpt>
      <trkpt lat="48.19232" lon="7.11436">
        <ele>907.5</ele>
        <time>2021-08-05T08:13:45Z</time>
      </trkpt>
      <trkpt lat="48.19234" lon="7.11429">
        <ele>906.8</ele>
        <time>2021-08-05T08:13:46Z</time>
      </trkpt>
      <trkpt lat="48.19235" lon="7.11423">
        <ele>906</ele>
        <time>2021-08-05T08:13:47Z</time>
      </trkpt>
      <trkpt lat="48.19237" lon="7.11416">
        <ele>905.1</ele>
        <time>2021-08-05T08:13:49Z</time>
      </trkpt>
      <trkpt lat="48.19239" lon="7.11413">
        <ele>904.7</ele>
        <time>2021-08-05T08:13:50Z</time>
      </trkpt>
      <trkpt lat="48.19242" lon="7.11413">
        <ele>904.2</ele>
        <time>2021-08-05T08:13:51Z</time>
      </trkpt>
      <trkpt lat="48.19244" lon="7.11413">
        <ele>903.7</ele>
        <time>2021-08-05T08:13:52Z</time>
      </trkpt>
      <trkpt lat="48.1925" lon="7.11416">
        <ele>902</ele>
        <time>2021-08-05T08:13:54Z</time>
      </trkpt>
      <trkpt lat="48.19254" lon="7.11421">
        <ele>901.6</ele>
        <time>2021-08-05T08:13:56Z</time>
      </trkpt>
      <trkpt lat="48.19258" lon="7.11426">
        <ele>901.2</ele>
        <time>2021-08-05T08:13:58Z</time>
      </trkpt>
      <trkpt lat="48.1926" lon="7.11428">
        <ele>901</ele>
        <time>2021-08-05T08:13:59Z</time>
      </trkpt>
      <trkpt lat="48.19263" lon="7.11433">
        <ele>900.6</ele>
        <time>2021-08-05T08:14:01Z</time>
      </trkpt>
      <trkpt lat="48.19267" lon="7.1144">
        <ele>900</ele>
        <time>2021-08-05T08:14:03Z</time>
      </trkpt>
      <trkpt lat="48.19269" lon="7.11444">
        <ele>899.8</ele>
        <time>2021-08-05T08:14:04Z</time>
      </trkpt>
      <trkpt lat="48.19271" lon="7.11448">
        <ele>899.5</ele>
        <time>2021-08-05T08:14:05Z</time>
      </trkpt>
      <trkpt lat="48.19272" lon="7.11449">
        <ele>899.3</ele>
        <time>2021-08-05T08:14:06Z</time>
      </trkpt>
      <trkpt lat="48.19274" lon="7.11452">
        <ele>899.1</ele>
        <time>2021-08-05T08:14:07Z</time>
      </trkpt>
      <trkpt lat="48.19277" lon="7.11456">
        <ele>898.8</ele>
        <time>2021-08-05T08:14:09Z</time>
      </trkpt>
      <trkpt lat="48.19279" lon="7.11461">
        <ele>898.4</ele>
        <time>2021-08-05T08:14:11Z</time>
      </trkpt>
      <trkpt lat="48.1928" lon="7.11464">
        <ele>898.2</ele>
        <time>2021-08-05T08:14:12Z</time>
      </trkpt>
      <trkpt lat="48.19282" lon="7.11469">
        <ele>897.9</ele>
        <time>2021-08-05T08:14:14Z</time>
      </trkpt>
      <trkpt lat="48.19283" lon="7.11472">
        <ele>897.8</ele>
        <time>2021-08-05T08:14:15Z</time>
      </trkpt>
      <trkpt lat="48.19285" lon="7.11476">
        <ele>897.5</ele>
        <time>2021-08-05T08:14:17Z</time>
      </trkpt>
      <trkpt lat="48.19287" lon="7.11481">
        <ele>897.3</ele>
        <time>2021-08-05T08:14:19Z</time>
      </trkpt>
      <trkpt lat="48.19288" lon="7.11483">
        <ele>897.2</ele>
        <time>2021-08-05T08:14:20Z</time>
      </trkpt>
      <trkpt lat="48.19289" lon="7.11485">
        <ele>897.1</ele>
        <time>2021-08-05T08:14:21Z</time>
      </trkpt>
      <trkpt lat="48.19292" lon="7.11489">
        <ele>896.8</ele>
        <time>2021-08-05T08:14:23Z</time>
      </trkpt>
      <trkpt lat="48.19292" lon="7.11492">
        <ele>896.7</ele>
        <time>2021-08-05T08:14:24Z</time>
      </trkpt>
      <trkpt lat="48.19293" lon="7.11494">
        <ele>896.6</ele>
        <time>2021-08-05T08:14:25Z</time>
      </trkpt>
      <trkpt lat="48.19295" lon="7.11498">
        <ele>896.3</ele>
        <time>2021-08-05T08:14:26Z</time>
      </trkpt>
      <trkpt lat="48.19297" lon="7.11501">
        <ele>896.1</ele>
        <time>2021-08-05T08:14:28Z</time>
      </trkpt>
      <trkpt lat="48.19299" lon="7.11504">
        <ele>895.9</ele>
        <time>2021-08-05T08:14:29Z</time>
      </trkpt>
      <trkpt lat="48.193" lon="7.11508">
        <ele>895.7</ele>
        <time>2021-08-05T08:14:30Z</time>
      </trkpt>
      <trkpt lat="48.19303" lon="7.11515">
        <ele>895.4</ele>
        <time>2021-08-05T08:14:32Z</time>
      </trkpt>
      <trkpt lat="48.19304" lon="7.11519">
        <ele>895.2</ele>
        <time>2021-08-05T08:14:33Z</time>
      </trkpt>
      <trkpt lat="48.19305" lon="7.11523">
        <ele>895</ele>
        <time>2021-08-05T08:14:34Z</time>
      </trkpt>
      <trkpt lat="48.19308" lon="7.1153">
        <ele>894.6</ele>
        <time>2021-08-05T08:14:36Z</time>
      </trkpt>
      <trkpt lat="48.19308" lon="7.11532">
        <ele>894.5</ele>
        <time>2021-08-05T08:14:37Z</time>
      </trkpt>
      <trkpt lat="48.19309" lon="7.11534">
        <ele>894.4</ele>
        <time>2021-08-05T08:14:38Z</time>
      </trkpt>
      <trkpt lat="48.1931" lon="7.11537">
        <ele>894.2</ele>
        <time>2021-08-05T08:14:39Z</time>
      </trkpt>
      <trkpt lat="48.19313" lon="7.11542">
        <ele>893.9</ele>
        <time>2021-08-05T08:14:41Z</time>
      </trkpt>
      <trkpt lat="48.19315" lon="7.11546">
        <ele>893.7</ele>
        <time>2021-08-05T08:14:42Z</time>
      </trkpt>
      <trkpt lat="48.19317" lon="7.11552">
        <ele>893.4</ele>
        <time>2021-08-05T08:14:44Z</time>
      </trkpt>
      <trkpt lat="48.19319" lon="7.11557">
        <ele>893.1</ele>
        <time>2021-08-05T08:14:45Z</time>
      </trkpt>
      <trkpt lat="48.19319" lon="7.1156">
        <ele>893</ele>
        <time>2021-08-05T08:14:46Z</time>
      </trkpt>
      <trkpt lat="48.19319" lon="7.11564">
        <ele>892.8</ele>
        <time>2021-08-05T08:14:48Z</time>
      </trkpt>
      <trkpt lat="48.1932" lon="7.11568">
        <ele>892.6</ele>
        <time>2021-08-05T08:14:49Z</time>
      </trkpt>
      <trkpt lat="48.1932" lon="7.11575">
        <ele>892.3</ele>
        <time>2021-08-05T08:14:51Z</time>
      </trkpt>
      <trkpt lat="48.19321" lon="7.11579">
        <ele>892.1</ele>
        <time>2021-08-05T08:14:52Z</time>
      </trkpt>
      <trkpt lat="48.1932" lon="7.1158">
        <ele>892.1</ele>
        <time>2021-08-05T08:14:53Z</time>
      </trkpt>
      <trkpt lat="48.1932" lon="7.11582">
        <ele>892</ele>
        <time>2021-08-05T08:14:54Z</time>
      </trkpt>
      <trkpt lat="48.19318" lon="7.11587">
        <ele>891.7</ele>
        <time>2021-08-05T08:14:56Z</time>
      </trkpt>
      <trkpt lat="48.19318" lon="7.11592">
        <ele>891.5</ele>
        <time>2021-08-05T08:14:58Z</time>
      </trkpt>
      <trkpt lat="48.19318" lon="7.11593">
        <ele>891.5</ele>
        <time>2021-08-05T08:14:59Z</time>
      </trkpt>
      <trkpt lat="48.19318" lon="7.11593">
        <ele>891.5</ele>
        <time>2021-08-05T08:15:00Z</time>
      </trkpt>
      <trkpt lat="48.19318" lon="7.11591">
        <ele>891.5</ele>
        <time>2021-08-05T08:15:01Z</time>
      </trkpt>
      <trkpt lat="48.19318" lon="7.1159">
        <ele>891.6</ele>
        <time>2021-08-05T08:15:03Z</time>
      </trkpt>
      <trkpt lat="48.19318" lon="7.11589">
        <ele>891.7</ele>
        <time>2021-08-05T08:15:04Z</time>
      </trkpt>
      <trkpt lat="48.19318" lon="7.11588">
        <ele>891.7</ele>
        <time>2021-08-05T08:15:05Z</time>
      </trkpt>
      <trkpt lat="48.19318" lon="7.11586">
        <ele>891.8</ele>
        <time>2021-08-05T08:15:07Z</time>
      </trkpt>
      <trkpt lat="48.19318" lon="7.11585">
        <ele>891.8</ele>
        <time>2021-08-05T08:15:08Z</time>
      </trkpt>
      <trkpt lat="48.19318" lon="7.11584">
        <ele>891.9</ele>
        <time>2021-08-05T08:15:09Z</time>
      </trkpt>
      <trkpt lat="48.19315" lon="7.11579">
        <ele>892.1</ele>
        <time>2021-08-05T08:15:10Z</time>
      </trkpt>
      <trkpt lat="48.19311" lon="7.11575">
        <ele>892.4</ele>
        <time>2021-08-05T08:15:12Z</time>
      </trkpt>
      <trkpt lat="48.19307" lon="7.11572">
        <ele>892.7</ele>
        <time>2021-08-05T08:15:13Z</time>
      </trkpt>
      <trkpt lat="48.19301" lon="7.11564">
        <ele>893.3</ele>
        <time>2021-08-05T08:15:15Z</time>
      </trkpt>
      <trkpt lat="48.19297" lon="7.11558">
        <ele>893.6</ele>
        <time>2021-08-05T08:15:17Z</time>
      </trkpt>
      <trkpt lat="48.19293" lon="7.11553">
        <ele>894</ele>
        <time>2021-08-05T08:15:19Z</time>
      </trkpt>
      <trkpt lat="48.19289" lon="7.11547">
        <ele>894.3</ele>
        <time>2021-08-05T08:15:21Z</time>
      </trkpt>
      <trkpt lat="48.19286" lon="7.11541">
        <ele>894.7</ele>
        <time>2021-08-05T08:15:22Z</time>
      </trkpt>
      <trkpt lat="48.19282" lon="7.11536">
        <ele>895</ele>
        <time>2021-08-05T08:15:23Z</time>
      </trkpt>
      <trkpt lat="48.19278" lon="7.1153">
        <ele>895.4</ele>
        <time>2021-08-05T08:17:31Z</time>
      </trkpt>
      <trkpt lat="48.19274" lon="7.11524">
        <ele>895.7</ele>
        <time>2021-08-05T08:17:33Z</time>
      </trkpt>
      <trkpt lat="48.19289" lon="7.11462">
        <ele>898.4</ele>
        <time>2021-08-05T08:17:35Z</time>
      </trkpt>
      <trkpt lat="48.19299" lon="7.11421">
        <ele>900</ele>
        <time>2021-08-05T08:17:36Z</time>
      </trkpt>
      <trkpt lat="48.19303" lon="7.11407">
        <ele>900.4</ele>
        <time>2021-08-05T08:17:38Z</time>
      </trkpt>
      <trkpt lat="48.19305" lon="7.11396">
        <ele>900.8</ele>
        <time>2021-08-05T08:17:39Z</time>
      </trkpt>
      <trkpt lat="48.19308" lon="7.11384">
        <ele>901.1</ele>
        <time>2021-08-05T08:17:42Z</time>
      </trkpt>
      <trkpt lat="48.19304" lon="7.11403">
        <ele>900.8</ele>
        <time>2021-08-05T08:17:43Z</time>
      </trkpt>
      <trkpt lat="48.19303" lon="7.11406">
        <ele>900.7</ele>
        <time>2021-08-05T08:17:45Z</time>
      </trkpt>
      <trkpt lat="48.19303" lon="7.11408">
        <ele>900.6</ele>
        <time>2021-08-05T08:17:47Z</time>
      </trkpt>
      <trkpt lat="48.19301" lon="7.11417">
        <ele>900.3</ele>
        <time>2021-08-05T08:17:52Z</time>
      </trkpt>
      <trkpt lat="48.193" lon="7.11428">
        <ele>900</ele>
        <time>2021-08-05T08:17:57Z</time>
      </trkpt>
      <trkpt lat="48.193" lon="7.11431">
        <ele>899.9</ele>
        <time>2021-08-05T08:18:02Z</time>
      </trkpt>
      <trkpt lat="48.193" lon="7.11431">
        <ele>899.9</ele>
        <time>2021-08-05T08:18:07Z</time>
      </trkpt>
      <trkpt lat="48.19299" lon="7.11431">
        <ele>899.9</ele>
        <time>2021-08-05T08:18:12Z</time>
      </trkpt>
      <trkpt lat="48.193" lon="7.1143">
        <ele>899.9</ele>
        <time>2021-08-05T08:18:17Z</time>
      </trkpt>
      <trkpt lat="48.19294" lon="7.11571">
        <ele>892.9</ele>
        <time>2021-08-05T08:39:18Z</time>
      </trkpt>
      <trkpt lat="48.19292" lon="7.11568">
        <ele>893.1</ele>
        <time>2021-08-05T08:39:19Z</time>
      </trkpt>
      <trkpt lat="48.19291" lon="7.11565">
        <ele>893.2</ele>
        <time>2021-08-05T08:39:20Z</time>
      </trkpt>
      <trkpt lat="48.1929" lon="7.11561">
        <ele>893.4</ele>
        <time>2021-08-05T08:39:21Z</time>
      </trkpt>
      <trkpt lat="48.19288" lon="7.11552">
        <ele>893.8</ele>
        <time>2021-08-05T08:39:23Z</time>
      </trkpt>
      <trkpt lat="48.19288" lon="7.11547">
        <ele>894</ele>
        <time>2021-08-05T08:39:24Z</time>
      </trkpt>
      <trkpt lat="48.19288" lon="7.11541">
        <ele>894.2</ele>
        <time>2021-08-05T08:39:26Z</time>
      </trkpt>
      <trkpt lat="48.1929" lon="7.11535">
        <ele>894.5</ele>
        <time>2021-08-05T08:39:28Z</time>
      </trkpt>
      <trkpt lat="48.19292" lon="7.1153">
        <ele>894.7</ele>
        <time>2021-08-05T08:39:29Z</time>
      </trkpt>
      <trkpt lat="48.19295" lon="7.11525">
        <ele>895</ele>
        <time>2021-08-05T08:39:30Z</time>
      </trkpt>
      <trkpt lat="48.19298" lon="7.1152">
        <ele>895.3</ele>
        <time>2021-08-05T08:39:32Z</time>
      </trkpt>
      <trkpt lat="48.19298" lon="7.11515">
        <ele>895.5</ele>
        <time>2021-08-05T08:39:33Z</time>
      </trkpt>
      <trkpt lat="48.19298" lon="7.11514">
        <ele>895.6</ele>
        <time>2021-08-05T08:39:34Z</time>
      </trkpt>
      <trkpt lat="48.19299" lon="7.11513">
        <ele>895.6</ele>
        <time>2021-08-05T08:39:35Z</time>
      </trkpt>
      <trkpt lat="48.193" lon="7.11507">
        <ele>895.9</ele>
        <time>2021-08-05T08:39:37Z</time>
      </trkpt>
      <trkpt lat="48.193" lon="7.11503">
        <ele>896.1</ele>
        <time>2021-08-05T08:39:38Z</time>
      </trkpt>
      <trkpt lat="48.193" lon="7.11499">
        <ele>896.2</ele>
        <time>2021-08-05T08:39:39Z</time>
      </trkpt>
      <trkpt lat="48.193" lon="7.11493">
        <ele>896.5</ele>
        <time>2021-08-05T08:39:41Z</time>
      </trkpt>
      <trkpt lat="48.19297" lon="7.11487">
        <ele>896.8</ele>
        <time>2021-08-05T08:39:42Z</time>
      </trkpt>
      <trkpt lat="48.19291" lon="7.11481">
        <ele>897.2</ele>
        <time>2021-08-05T08:39:44Z</time>
      </trkpt>
      <trkpt lat="48.1929" lon="7.1148">
        <ele>897.3</ele>
        <time>2021-08-05T08:39:45Z</time>
      </trkpt>
      <trkpt lat="48.19288" lon="7.11477">
        <ele>897.5</ele>
        <time>2021-08-05T08:39:47Z</time>
      </trkpt>
      <trkpt lat="48.19286" lon="7.11473">
        <ele>897.7</ele>
        <time>2021-08-05T08:39:48Z</time>
      </trkpt>
      <trkpt lat="48.19283" lon="7.11469">
        <ele>897.9</ele>
        <time>2021-08-05T08:39:50Z</time>
      </trkpt>
      <trkpt lat="48.19282" lon="7.11467">
        <ele>898</ele>
        <time>2021-08-05T08:39:51Z</time>
      </trkpt>
      <trkpt lat="48.19281" lon="7.11462">
        <ele>898.2</ele>
        <time>2021-08-05T08:39:53Z</time>
      </trkpt>
      <trkpt lat="48.19279" lon="7.11458">
        <ele>898.5</ele>
        <time>2021-08-05T08:39:54Z</time>
      </trkpt>
      <trkpt lat="48.19279" lon="7.11456">
        <ele>898.6</ele>
        <time>2021-08-05T08:39:55Z</time>
      </trkpt>
      <trkpt lat="48.19279" lon="7.11452">
        <ele>898.7</ele>
        <time>2021-08-05T08:39:57Z</time>
      </trkpt>
      <trkpt lat="48.19279" lon="7.11451">
        <ele>898.7</ele>
        <time>2021-08-05T08:39:58Z</time>
      </trkpt>
      <trkpt lat="48.19279" lon="7.11451">
        <ele>898.7</ele>
        <time>2021-08-05T08:39:59Z</time>
      </trkpt>
      <trkpt lat="48.19277" lon="7.1145">
        <ele>898.8</ele>
        <time>2021-08-05T08:40:00Z</time>
      </trkpt>
      <trkpt lat="48.19275" lon="7.11452">
        <ele>898.9</ele>
        <time>2021-08-05T08:40:02Z</time>
      </trkpt>
      <trkpt lat="48.19273" lon="7.11454">
        <ele>899</ele>
        <time>2021-08-05T08:40:03Z</time>
      </trkpt>
      <trkpt lat="48.19272" lon="7.1146">
        <ele>899.2</ele>
        <time>2021-08-05T08:40:05Z</time>
      </trkpt>
      <trkpt lat="48.19271" lon="7.11465">
        <ele>899.3</ele>
        <time>2021-08-05T08:40:06Z</time>
      </trkpt>
      <trkpt lat="48.19272" lon="7.1147">
        <ele>899.5</ele>
        <time>2021-08-05T08:40:07Z</time>
      </trkpt>
      <trkpt lat="48.19272" lon="7.11472">
        <ele>899.5</ele>
        <time>2021-08-05T08:40:08Z</time>
      </trkpt>
      <trkpt lat="48.19273" lon="7.11477">
        <ele>899.7</ele>
        <time>2021-08-05T08:40:10Z</time>
      </trkpt>
      <trkpt lat="48.19273" lon="7.11479">
        <ele>899.7</ele>
        <time>2021-08-05T08:40:11Z</time>
      </trkpt>
      <trkpt lat="48.19273" lon="7.11475">
        <ele>899.9</ele>
        <time>2021-08-05T08:40:13Z</time>
      </trkpt>
      <trkpt lat="48.19272" lon="7.11465">
        <ele>900.1</ele>
        <time>2021-08-05T08:40:14Z</time>
      </trkpt>
      <trkpt lat="48.19272" lon="7.11456">
        <ele>900.4</ele>
        <time>2021-08-05T08:40:15Z</time>
      </trkpt>
      <trkpt lat="48.19271" lon="7.11446">
        <ele>900.7</ele>
        <time>2021-08-05T08:40:16Z</time>
      </trkpt>
      <trkpt lat="48.19271" lon="7.11436">
        <ele>900.9</ele>
        <time>2021-08-05T08:40:18Z</time>
      </trkpt>
      <trkpt lat="48.1927" lon="7.11427">
        <ele>901.2</ele>
        <time>2021-08-05T08:40:19Z</time>
      </trkpt>
      <trkpt lat="48.1927" lon="7.11417">
        <ele>901.4</ele>
        <time>2021-08-05T08:40:21Z</time>
      </trkpt>
      <trkpt lat="48.19269" lon="7.11408">
        <ele>901.7</ele>
        <time>2021-08-05T08:40:22Z</time>
      </trkpt>
      <trkpt lat="48.19268" lon="7.11398">
        <ele>901.9</ele>
        <time>2021-08-05T08:41:39Z</time>
      </trkpt>
      <trkpt lat="48.19268" lon="7.11389">
        <ele>902.2</ele>
        <time>2021-08-05T08:41:40Z</time>
      </trkpt>
      <trkpt lat="48.19265" lon="7.11384">
        <ele>902.2</ele>
        <time>2021-08-05T08:41:41Z</time>
      </trkpt>
      <trkpt lat="48.19257" lon="7.11378">
        <ele>902.1</ele>
        <time>2021-08-05T08:41:43Z</time>
      </trkpt>
      <trkpt lat="48.19249" lon="7.11371">
        <ele>902.1</ele>
        <time>2021-08-05T08:41:45Z</time>
      </trkpt>
      <trkpt lat="48.19244" lon="7.11367">
        <ele>902.3</ele>
        <time>2021-08-05T08:41:46Z</time>
      </trkpt>
      <trkpt lat="48.1924" lon="7.11364">
        <ele>902.5</ele>
        <time>2021-08-05T08:41:47Z</time>
      </trkpt>
      <trkpt lat="48.19234" lon="7.11356">
        <ele>902.8</ele>
        <time>2021-08-05T08:41:49Z</time>
      </trkpt>
      <trkpt lat="48.19232" lon="7.11353">
        <ele>903</ele>
        <time>2021-08-05T08:41:50Z</time>
      </trkpt>
      <trkpt lat="48.19229" lon="7.11352">
        <ele>903.1</ele>
        <time>2021-08-05T08:41:52Z</time>
      </trkpt>
      <trkpt lat="48.19228" lon="7.11351">
        <ele>903.2</ele>
        <time>2021-08-05T08:41:53Z</time>
      </trkpt>
      <trkpt lat="48.19227" lon="7.11346">
        <ele>903</ele>
        <time>2021-08-05T08:41:55Z</time>
      </trkpt>
      <trkpt lat="48.19223" lon="7.11323">
        <ele>901.9</ele>
        <time>2021-08-05T08:41:56Z</time>
      </trkpt>
      <trkpt lat="48.19214" lon="7.11272">
        <ele>899.5</ele>
        <time>2021-08-05T08:41:58Z</time>
      </trkpt>
      <trkpt lat="48.19209" lon="7.11235">
        <ele>897.9</ele>
        <time>2021-08-05T08:42:00Z</time>
      </trkpt>
      <trkpt lat="48.19199" lon="7.11199">
        <ele>896.2</ele>
        <time>2021-08-05T08:42:02Z</time>
      </trkpt>
      <trkpt lat="48.19185" lon="7.1116">
        <ele>894.5</ele>
        <time>2021-08-05T08:42:04Z</time>
      </trkpt>
      <trkpt lat="48.19176" lon="7.1113">
        <ele>893.5</ele>
        <time>2021-08-05T08:42:06Z</time>
      </trkpt>
      <trkpt lat="48.19169" lon="7.111">
        <ele>892.5</ele>
        <time>2021-08-05T08:42:08Z</time>
      </trkpt>
      <trkpt lat="48.19167" lon="7.11086">
        <ele>892</ele>
        <time>2021-08-05T08:42:09Z</time>
      </trkpt>
      <trkpt lat="48.19165" lon="7.11073">
        <ele>891.6</ele>
        <time>2021-08-05T08:42:10Z</time>
      </trkpt>
      <trkpt lat="48.19163" lon="7.1106">
        <ele>891.2</ele>
        <time>2021-08-05T08:42:11Z</time>
      </trkpt>
      <trkpt lat="48.19158" lon="7.11037">
        <ele>890.9</ele>
        <time>2021-08-05T08:42:13Z</time>
      </trkpt>
      <trkpt lat="48.19155" lon="7.11026">
        <ele>890.8</ele>
        <time>2021-08-05T08:42:14Z</time>
      </trkpt>
      <trkpt lat="48.19147" lon="7.11006">
        <ele>890.9</ele>
        <time>2021-08-05T08:42:16Z</time>
      </trkpt>
      <trkpt lat="48.19142" lon="7.10997">
        <ele>891.1</ele>
        <time>2021-08-05T08:42:17Z</time>
      </trkpt>
      <trkpt lat="48.1913" lon="7.10982">
        <ele>891.6</ele>
        <time>2021-08-05T08:42:19Z</time>
      </trkpt>
      <trkpt lat="48.19126" lon="7.10976">
        <ele>891.8</ele>
        <time>2021-08-05T08:42:20Z</time>
      </trkpt>
      <trkpt lat="48.19122" lon="7.10971">
        <ele>892</ele>
        <time>2021-08-05T08:42:21Z</time>
      </trkpt>
      <trkpt lat="48.19115" lon="7.10961">
        <ele>892.5</ele>
        <time>2021-08-05T08:42:23Z</time>
      </trkpt>
      <trkpt lat="48.19111" lon="7.10954">
        <ele>892.9</ele>
        <time>2021-08-05T08:42:25Z</time>
      </trkpt>
      <trkpt lat="48.19109" lon="7.1095">
        <ele>893</ele>
        <time>2021-08-05T08:42:26Z</time>
      </trkpt>
      <trkpt lat="48.19107" lon="7.10942">
        <ele>893.3</ele>
        <time>2021-08-05T08:42:28Z</time>
      </trkpt>
      <trkpt lat="48.19105" lon="7.1094">
        <ele>893.5</ele>
        <time>2021-08-05T08:42:29Z</time>
      </trkpt>
      <trkpt lat="48.19103" lon="7.10939">
        <ele>893.6</ele>
        <time>2021-08-05T08:42:31Z</time>
      </trkpt>
      <trkpt lat="48.19102" lon="7.10938">
        <ele>893.7</ele>
        <time>2021-08-05T08:42:32Z</time>
      </trkpt>
      <trkpt lat="48.191" lon="7.10936">
        <ele>893.8</ele>
        <time>2021-08-05T08:42:33Z</time>
      </trkpt>
      <trkpt lat="48.19097" lon="7.10936">
        <ele>894</ele>
        <time>2021-08-05T08:42:35Z</time>
      </trkpt>
      <trkpt lat="48.19097" lon="7.10938">
        <ele>894.1</ele>
        <time>2021-08-05T08:42:36Z</time>
      </trkpt>
      <trkpt lat="48.19092" lon="7.10931">
        <ele>894.5</ele>
        <time>2021-08-05T08:42:38Z</time>
      </trkpt>
      <trkpt lat="48.19088" lon="7.10924">
        <ele>895</ele>
        <time>2021-08-05T08:42:39Z</time>
      </trkpt>
      <trkpt lat="48.19085" lon="7.10919">
        <ele>895.2</ele>
        <time>2021-08-05T08:42:40Z</time>
      </trkpt>
      <trkpt lat="48.19082" lon="7.10915">
        <ele>895.6</ele>
        <time>2021-08-05T08:42:41Z</time>
      </trkpt>
      <trkpt lat="48.19079" lon="7.1091">
        <ele>895.9</ele>
        <time>2021-08-05T08:42:43Z</time>
      </trkpt>
      <trkpt lat="48.19077" lon="7.10905">
        <ele>896.3</ele>
        <time>2021-08-05T08:42:44Z</time>
      </trkpt>
      <trkpt lat="48.19076" lon="7.10899">
        <ele>896.6</ele>
        <time>2021-08-05T08:42:45Z</time>
      </trkpt>
      <trkpt lat="48.19077" lon="7.10893">
        <ele>896.9</ele>
        <time>2021-08-05T08:42:46Z</time>
      </trkpt>
      <trkpt lat="48.19077" lon="7.1089">
        <ele>897.1</ele>
        <time>2021-08-05T08:42:47Z</time>
      </trkpt>
      <trkpt lat="48.19079" lon="7.10887">
        <ele>897.4</ele>
        <time>2021-08-05T08:42:49Z</time>
      </trkpt>
      <trkpt lat="48.19081" lon="7.10882">
        <ele>897.7</ele>
        <time>2021-08-05T08:42:51Z</time>
      </trkpt>
      <trkpt lat="48.19082" lon="7.10877">
        <ele>898</ele>
        <time>2021-08-05T08:42:52Z</time>
      </trkpt>
      <trkpt lat="48.19082" lon="7.10874">
        <ele>898.2</ele>
        <time>2021-08-05T08:42:53Z</time>
      </trkpt>
      <trkpt lat="48.19082" lon="7.10871">
        <ele>898.4</ele>
        <time>2021-08-05T08:42:54Z</time>
      </trkpt>
      <trkpt lat="48.1908" lon="7.1087">
        <ele>898.6</ele>
        <time>2021-08-05T08:42:55Z</time>
      </trkpt>
      <trkpt lat="48.19078" lon="7.10869">
        <ele>898.7</ele>
        <time>2021-08-05T08:42:56Z</time>
      </trkpt>
      <trkpt lat="48.19073" lon="7.10865">
        <ele>899.3</ele>
        <time>2021-08-05T08:42:58Z</time>
      </trkpt>
      <trkpt lat="48.1907" lon="7.10863">
        <ele>899.6</ele>
        <time>2021-08-05T08:42:59Z</time>
      </trkpt>
      <trkpt lat="48.19068" lon="7.10861">
        <ele>899.8</ele>
        <time>2021-08-05T08:43:00Z</time>
      </trkpt>
      <trkpt lat="48.19067" lon="7.1086">
        <ele>899.9</ele>
        <time>2021-08-05T08:43:01Z</time>
      </trkpt>
      <trkpt lat="48.19066" lon="7.10857">
        <ele>900.1</ele>
        <time>2021-08-05T08:43:03Z</time>
      </trkpt>
      <trkpt lat="48.19066" lon="7.10855">
        <ele>900.2</ele>
        <time>2021-08-05T08:43:04Z</time>
      </trkpt>
      <trkpt lat="48.19085" lon="7.10819">
        <ele>902</ele>
        <time>2021-08-05T08:43:07Z</time>
      </trkpt>
      <trkpt lat="48.19086" lon="7.10814">
        <ele>902.1</ele>
        <time>2021-08-05T08:43:08Z</time>
      </trkpt>
      <trkpt lat="48.1909" lon="7.10793">
        <ele>902.3</ele>
        <time>2021-08-05T08:43:10Z</time>
      </trkpt>
      <trkpt lat="48.1909" lon="7.1078">
        <ele>902.3</ele>
        <time>2021-08-05T08:43:11Z</time>
      </trkpt>
      <trkpt lat="48.19091" lon="7.10762">
        <ele>902.4</ele>
        <time>2021-08-05T08:43:13Z</time>
      </trkpt>
      <trkpt lat="48.19089" lon="7.10748">
        <ele>902.5</ele>
        <time>2021-08-05T08:43:15Z</time>
      </trkpt>
      <trkpt lat="48.19087" lon="7.1074">
        <ele>902.6</ele>
        <time>2021-08-05T08:43:16Z</time>
      </trkpt>
      <trkpt lat="48.19084" lon="7.10732">
        <ele>902.7</ele>
        <time>2021-08-05T08:43:17Z</time>
      </trkpt>
      <trkpt lat="48.1908" lon="7.10723">
        <ele>902.9</ele>
        <time>2021-08-05T08:43:18Z</time>
      </trkpt>
      <trkpt lat="48.19078" lon="7.10716">
        <ele>903</ele>
        <time>2021-08-05T08:43:19Z</time>
      </trkpt>
      <trkpt lat="48.19068" lon="7.10713">
        <ele>903.4</ele>
        <time>2021-08-05T08:43:20Z</time>
      </trkpt>
      <trkpt lat="48.1906" lon="7.1071">
        <ele>903.6</ele>
        <time>2021-08-05T08:43:22Z</time>
      </trkpt>
      <trkpt lat="48.19056" lon="7.10709">
        <ele>903.8</ele>
        <time>2021-08-05T08:43:23Z</time>
      </trkpt>
      <trkpt lat="48.19051" lon="7.10706">
        <ele>904</ele>
        <time>2021-08-05T08:43:24Z</time>
      </trkpt>
      <trkpt lat="48.19033" lon="7.10696">
        <ele>904.9</ele>
        <time>2021-08-05T08:43:26Z</time>
      </trkpt>
      <trkpt lat="48.19026" lon="7.10693">
        <ele>905.2</ele>
        <time>2021-08-05T08:43:27Z</time>
      </trkpt>
      <trkpt lat="48.19024" lon="7.10691">
        <ele>905.4</ele>
        <time>2021-08-05T08:43:28Z</time>
      </trkpt>
      <trkpt lat="48.19022" lon="7.10691">
        <ele>905.4</ele>
        <time>2021-08-05T08:43:30Z</time>
      </trkpt>
      <trkpt lat="48.18919" lon="7.10678">
        <ele>908.6</ele>
        <time>2021-08-05T08:43:55Z</time>
      </trkpt>
      <trkpt lat="48.18915" lon="7.10674">
        <ele>908.9</ele>
        <time>2021-08-05T08:43:56Z</time>
      </trkpt>
      <trkpt lat="48.18913" lon="7.1067">
        <ele>909.1</ele>
        <time>2021-08-05T08:43:57Z</time>
      </trkpt>
      <trkpt lat="48.18912" lon="7.10669">
        <ele>909.2</ele>
        <time>2021-08-05T08:43:58Z</time>
      </trkpt>
      <trkpt lat="48.18907" lon="7.10664">
        <ele>909.5</ele>
        <time>2021-08-05T08:44:00Z</time>
      </trkpt>
      <trkpt lat="48.18905" lon="7.10663">
        <ele>909.6</ele>
        <time>2021-08-05T08:44:02Z</time>
      </trkpt>
      <trkpt lat="48.18904" lon="7.10662">
        <ele>909.7</ele>
        <time>2021-08-05T08:44:03Z</time>
      </trkpt>
      <trkpt lat="48.18903" lon="7.10662">
        <ele>909.7</ele>
        <time>2021-08-05T08:44:04Z</time>
      </trkpt>
      <trkpt lat="48.18896" lon="7.10656">
        <ele>910.2</ele>
        <time>2021-08-05T08:44:05Z</time>
      </trkpt>
      <trkpt lat="48.18893" lon="7.10652">
        <ele>910.4</ele>
        <time>2021-08-05T08:44:07Z</time>
      </trkpt>
      <trkpt lat="48.18891" lon="7.10649">
        <ele>910.5</ele>
        <time>2021-08-05T08:44:08Z</time>
      </trkpt>
      <trkpt lat="48.1889" lon="7.10646">
        <ele>910.7</ele>
        <time>2021-08-05T08:44:09Z</time>
      </trkpt>
      <trkpt lat="48.1889" lon="7.10645">
        <ele>910.7</ele>
        <time>2021-08-05T08:44:10Z</time>
      </trkpt>
      <trkpt lat="48.1889" lon="7.10643">
        <ele>910.7</ele>
        <time>2021-08-05T08:44:11Z</time>
      </trkpt>
      <trkpt lat="48.18889" lon="7.10643">
        <ele>910.8</ele>
        <time>2021-08-05T08:44:12Z</time>
      </trkpt>
      <trkpt lat="48.18889" lon="7.10642">
        <ele>910.8</ele>
        <time>2021-08-05T08:44:13Z</time>
      </trkpt>
      <trkpt lat="48.18888" lon="7.1064">
        <ele>910.9</ele>
        <time>2021-08-05T08:44:15Z</time>
      </trkpt>
      <trkpt lat="48.18886" lon="7.10637">
        <ele>911</ele>
        <time>2021-08-05T08:44:17Z</time>
      </trkpt>
      <trkpt lat="48.18885" lon="7.10634">
        <ele>911.1</ele>
        <time>2021-08-05T08:44:18Z</time>
      </trkpt>
      <trkpt lat="48.18883" lon="7.10625">
        <ele>911.4</ele>
        <time>2021-08-05T08:44:20Z</time>
      </trkpt>
      <trkpt lat="48.1888" lon="7.10605">
        <ele>911.9</ele>
        <time>2021-08-05T08:44:23Z</time>
      </trkpt>
      <trkpt lat="48.18879" lon="7.10596">
        <ele>912.2</ele>
        <time>2021-08-05T08:44:24Z</time>
      </trkpt>
      <trkpt lat="48.18878" lon="7.10591">
        <ele>912.3</ele>
        <time>2021-08-05T08:44:25Z</time>
      </trkpt>
      <trkpt lat="48.18878" lon="7.10589">
        <ele>912.4</ele>
        <time>2021-08-05T08:44:26Z</time>
      </trkpt>
      <trkpt lat="48.18876" lon="7.10562">
        <ele>912.9</ele>
        <time>2021-08-05T08:44:28Z</time>
      </trkpt>
      <trkpt lat="48.18875" lon="7.10549">
        <ele>913</ele>
        <time>2021-08-05T08:44:29Z</time>
      </trkpt>
      <trkpt lat="48.18874" lon="7.10537">
        <ele>913</ele>
        <time>2021-08-05T08:44:30Z</time>
      </trkpt>
      <trkpt lat="48.18872" lon="7.10526">
        <ele>913.1</ele>
        <time>2021-08-05T08:44:31Z</time>
      </trkpt>
      <trkpt lat="48.18871" lon="7.10518">
        <ele>913.1</ele>
        <time>2021-08-05T08:44:32Z</time>
      </trkpt>
      <trkpt lat="48.18868" lon="7.10505">
        <ele>913.3</ele>
        <time>2021-08-05T08:44:33Z</time>
      </trkpt>
      <trkpt lat="48.18864" lon="7.10494">
        <ele>913.5</ele>
        <time>2021-08-05T08:44:35Z</time>
      </trkpt>
      <trkpt lat="48.18863" lon="7.10489">
        <ele>913.6</ele>
        <time>2021-08-05T08:44:36Z</time>
      </trkpt>
      <trkpt lat="48.1886" lon="7.10482">
        <ele>913.7</ele>
        <time>2021-08-05T08:44:38Z</time>
      </trkpt>
      <trkpt lat="48.18859" lon="7.10478">
        <ele>913.8</ele>
        <time>2021-08-05T08:44:39Z</time>
      </trkpt>
      <trkpt lat="48.18858" lon="7.10476">
        <ele>913.9</ele>
        <time>2021-08-05T08:44:40Z</time>
      </trkpt>
      <trkpt lat="48.18857" lon="7.10475">
        <ele>913.9</ele>
        <time>2021-08-05T08:44:41Z</time>
      </trkpt>
      <trkpt lat="48.18855" lon="7.10472">
        <ele>914</ele>
        <time>2021-08-05T08:44:43Z</time>
      </trkpt>
      <trkpt lat="48.18853" lon="7.10469">
        <ele>914.1</ele>
        <time>2021-08-05T08:44:44Z</time>
      </trkpt>
      <trkpt lat="48.1885" lon="7.10464">
        <ele>914.3</ele>
        <time>2021-08-05T08:44:45Z</time>
      </trkpt>
      <trkpt lat="48.18845" lon="7.10458">
        <ele>914.5</ele>
        <time>2021-08-05T08:44:47Z</time>
      </trkpt>
      <trkpt lat="48.1884" lon="7.10452">
        <ele>914.7</ele>
        <time>2021-08-05T08:44:49Z</time>
      </trkpt>
      <trkpt lat="48.18837" lon="7.10448">
        <ele>914.9</ele>
        <time>2021-08-05T08:44:50Z</time>
      </trkpt>
      <trkpt lat="48.18834" lon="7.10444">
        <ele>915.1</ele>
        <time>2021-08-05T08:44:52Z</time>
      </trkpt>
      <trkpt lat="48.18831" lon="7.10441">
        <ele>915.2</ele>
        <time>2021-08-05T08:44:53Z</time>
      </trkpt>
      <trkpt lat="48.18825" lon="7.10432">
        <ele>915.6</ele>
        <time>2021-08-05T08:44:54Z</time>
      </trkpt>
      <trkpt lat="48.18821" lon="7.10428">
        <ele>915.9</ele>
        <time>2021-08-05T08:44:56Z</time>
      </trkpt>
      <trkpt lat="48.18818" lon="7.10426">
        <ele>916.1</ele>
        <time>2021-08-05T08:44:58Z</time>
      </trkpt>
      <trkpt lat="48.18816" lon="7.10424">
        <ele>916.2</ele>
        <time>2021-08-05T08:44:59Z</time>
      </trkpt>
      <trkpt lat="48.18814" lon="7.10423">
        <ele>916.4</ele>
        <time>2021-08-05T08:45:01Z</time>
      </trkpt>
      <trkpt lat="48.18811" lon="7.10421">
        <ele>916.5</ele>
        <time>2021-08-05T08:45:02Z</time>
      </trkpt>
      <trkpt lat="48.1881" lon="7.1042">
        <ele>916.7</ele>
        <time>2021-08-05T08:45:03Z</time>
      </trkpt>
      <trkpt lat="48.18808" lon="7.10419">
        <ele>916.8</ele>
        <time>2021-08-05T08:45:04Z</time>
      </trkpt>
      <trkpt lat="48.18805" lon="7.10416">
        <ele>917</ele>
        <time>2021-08-05T08:45:06Z</time>
      </trkpt>
      <trkpt lat="48.18804" lon="7.10415">
        <ele>917.1</ele>
        <time>2021-08-05T08:45:07Z</time>
      </trkpt>
      <trkpt lat="48.18803" lon="7.10414">
        <ele>917.2</ele>
        <time>2021-08-05T08:45:08Z</time>
      </trkpt>
      <trkpt lat="48.18801" lon="7.10413">
        <ele>917.3</ele>
        <time>2021-08-05T08:45:09Z</time>
      </trkpt>
      <trkpt lat="48.188" lon="7.10413">
        <ele>917.4</ele>
        <time>2021-08-05T08:45:10Z</time>
      </trkpt>
      <trkpt lat="48.18797" lon="7.10412">
        <ele>917.6</ele>
        <time>2021-08-05T08:45:12Z</time>
      </trkpt>
      <trkpt lat="48.18794" lon="7.1041">
        <ele>917.8</ele>
        <time>2021-08-05T08:45:13Z</time>
      </trkpt>
      <trkpt lat="48.18793" lon="7.1041">
        <ele>917.9</ele>
        <time>2021-08-05T08:45:14Z</time>
      </trkpt>
      <trkpt lat="48.1879" lon="7.10409">
        <ele>918.1</ele>
        <time>2021-08-05T08:45:16Z</time>
      </trkpt>
      <trkpt lat="48.18789" lon="7.10408">
        <ele>918.2</ele>
        <time>2021-08-05T08:45:17Z</time>
      </trkpt>
      <trkpt lat="48.18788" lon="7.10408">
        <ele>918.3</ele>
        <time>2021-08-05T08:45:18Z</time>
      </trkpt>
      <trkpt lat="48.18786" lon="7.10406">
        <ele>918.5</ele>
        <time>2021-08-05T08:45:19Z</time>
      </trkpt>
      <trkpt lat="48.18784" lon="7.10402">
        <ele>918.7</ele>
        <time>2021-08-05T08:45:21Z</time>
      </trkpt>
      <trkpt lat="48.18784" lon="7.10399">
        <ele>918.8</ele>
        <time>2021-08-05T08:45:22Z</time>
      </trkpt>
      <trkpt lat="48.18783" lon="7.10397">
        <ele>918.9</ele>
        <time>2021-08-05T08:45:23Z</time>
      </trkpt>
      <trkpt lat="48.18783" lon="7.10395">
        <ele>919</ele>
        <time>2021-08-05T08:45:24Z</time>
      </trkpt>
      <trkpt lat="48.18783" lon="7.10394">
        <ele>919.1</ele>
        <time>2021-08-05T08:45:26Z</time>
      </trkpt>
      <trkpt lat="48.18782" lon="7.10393">
        <ele>919.1</ele>
        <time>2021-08-05T08:45:28Z</time>
      </trkpt>
      <trkpt lat="48.18781" lon="7.10393">
        <ele>919.2</ele>
        <time>2021-08-05T08:45:29Z</time>
      </trkpt>
      <trkpt lat="48.18779" lon="7.10393">
        <ele>919.3</ele>
        <time>2021-08-05T08:45:31Z</time>
      </trkpt>
      <trkpt lat="48.18778" lon="7.10393">
        <ele>919.4</ele>
        <time>2021-08-05T08:45:32Z</time>
      </trkpt>
      <trkpt lat="48.18775" lon="7.10394">
        <ele>919.6</ele>
        <time>2021-08-05T08:45:34Z</time>
      </trkpt>
      <trkpt lat="48.1877" lon="7.10395">
        <ele>919.8</ele>
        <time>2021-08-05T08:45:36Z</time>
      </trkpt>
      <trkpt lat="48.18768" lon="7.10394">
        <ele>920</ele>
        <time>2021-08-05T08:45:37Z</time>
      </trkpt>
      <trkpt lat="48.18766" lon="7.10392">
        <ele>920.1</ele>
        <time>2021-08-05T08:45:39Z</time>
      </trkpt>
      <trkpt lat="48.18765" lon="7.10389">
        <ele>920.3</ele>
        <time>2021-08-05T08:45:40Z</time>
      </trkpt>
      <trkpt lat="48.18763" lon="7.10381">
        <ele>920.6</ele>
        <time>2021-08-05T08:45:42Z</time>
      </trkpt>
      <trkpt lat="48.18762" lon="7.10375">
        <ele>920.8</ele>
        <time>2021-08-05T08:45:43Z</time>
      </trkpt>
      <trkpt lat="48.18761" lon="7.10369">
        <ele>921.1</ele>
        <time>2021-08-05T08:45:45Z</time>
      </trkpt>
      <trkpt lat="48.1876" lon="7.10366">
        <ele>921.2</ele>
        <time>2021-08-05T08:45:46Z</time>
      </trkpt>
      <trkpt lat="48.18758" lon="7.10363">
        <ele>921.4</ele>
        <time>2021-08-05T08:45:47Z</time>
      </trkpt>
      <trkpt lat="48.18755" lon="7.1036">
        <ele>921.6</ele>
        <time>2021-08-05T08:45:48Z</time>
      </trkpt>
      <trkpt lat="48.18748" lon="7.10364">
        <ele>921.9</ele>
        <time>2021-08-05T08:45:50Z</time>
      </trkpt>
      <trkpt lat="48.18742" lon="7.10368">
        <ele>922.1</ele>
        <time>2021-08-05T08:45:51Z</time>
      </trkpt>
      <trkpt lat="48.18737" lon="7.10372">
        <ele>922.3</ele>
        <time>2021-08-05T08:45:52Z</time>
      </trkpt>
      <trkpt lat="48.18732" lon="7.10375">
        <ele>922.4</ele>
        <time>2021-08-05T08:45:53Z</time>
      </trkpt>
      <trkpt lat="48.18724" lon="7.10378">
        <ele>921.6</ele>
        <time>2021-08-05T08:45:54Z</time>
      </trkpt>
      <trkpt lat="48.18718" lon="7.10376">
        <ele>920.4</ele>
        <time>2021-08-05T08:45:56Z</time>
      </trkpt>
      <trkpt lat="48.18716" lon="7.10374">
        <ele>919.8</ele>
        <time>2021-08-05T08:45:57Z</time>
      </trkpt>
      <trkpt lat="48.18714" lon="7.10372">
        <ele>919.2</ele>
        <time>2021-08-05T08:45:59Z</time>
      </trkpt>
      <trkpt lat="48.18711" lon="7.1037">
        <ele>918.5</ele>
        <time>2021-08-05T08:46:00Z</time>
      </trkpt>
      <trkpt lat="48.18694" lon="7.10354">
        <ele>916</ele>
        <time>2021-08-05T08:46:01Z</time>
      </trkpt>
      <trkpt lat="48.18676" lon="7.10343">
        <ele>915.2</ele>
        <time>2021-08-05T08:46:03Z</time>
      </trkpt>
      <trkpt lat="48.18672" lon="7.10342">
        <ele>915.1</ele>
        <time>2021-08-05T08:46:04Z</time>
      </trkpt>
      <trkpt lat="48.18668" lon="7.10341">
        <ele>915</ele>
        <time>2021-08-05T08:46:05Z</time>
      </trkpt>
      <trkpt lat="48.18662" lon="7.10337">
        <ele>914.9</ele>
        <time>2021-08-05T08:46:07Z</time>
      </trkpt>
      <trkpt lat="48.1866" lon="7.10334">
        <ele>914.8</ele>
        <time>2021-08-05T08:46:08Z</time>
      </trkpt>
      <trkpt lat="48.18656" lon="7.10327">
        <ele>914.7</ele>
        <time>2021-08-05T08:46:09Z</time>
      </trkpt>
      <trkpt lat="48.18648" lon="7.10317">
        <ele>914.6</ele>
        <time>2021-08-05T08:46:11Z</time>
      </trkpt>
      <trkpt lat="48.18644" lon="7.10313">
        <ele>914.6</ele>
        <time>2021-08-05T08:46:13Z</time>
      </trkpt>
      <trkpt lat="48.1864" lon="7.1031">
        <ele>914.6</ele>
        <time>2021-08-05T08:46:14Z</time>
      </trkpt>
      <trkpt lat="48.18636" lon="7.10309">
        <ele>914.6</ele>
        <time>2021-08-05T08:46:15Z</time>
      </trkpt>
      <trkpt lat="48.18629" lon="7.10307">
        <ele>914.7</ele>
        <time>2021-08-05T08:46:17Z</time>
      </trkpt>
      <trkpt lat="48.18622" lon="7.10306">
        <ele>914.7</ele>
        <time>2021-08-05T08:46:19Z</time>
      </trkpt>
      <trkpt lat="48.18619" lon="7.10305">
        <ele>914.8</ele>
        <time>2021-08-05T08:46:20Z</time>
      </trkpt>
      <trkpt lat="48.18615" lon="7.10304">
        <ele>914.8</ele>
        <time>2021-08-05T08:46:22Z</time>
      </trkpt>
      <trkpt lat="48.18611" lon="7.10304">
        <ele>914.8</ele>
        <time>2021-08-05T08:46:23Z</time>
      </trkpt>
      <trkpt lat="48.18608" lon="7.10304">
        <ele>914.8</ele>
        <time>2021-08-05T08:46:24Z</time>
      </trkpt>
      <trkpt lat="48.18604" lon="7.10304">
        <ele>914.8</ele>
        <time>2021-08-05T08:46:25Z</time>
      </trkpt>
      <trkpt lat="48.186" lon="7.10305">
        <ele>914.8</ele>
        <time>2021-08-05T08:46:26Z</time>
      </trkpt>
      <trkpt lat="48.18596" lon="7.10305">
        <ele>914.8</ele>
        <time>2021-08-05T08:46:27Z</time>
      </trkpt>
      <trkpt lat="48.18596" lon="7.10305">
        <ele>914.8</ele>
        <time>2021-08-05T08:46:28Z</time>
      </trkpt>
      <trkpt lat="48.18595" lon="7.10306">
        <ele>914.7</ele>
        <time>2021-08-05T08:46:30Z</time>
      </trkpt>
      <trkpt lat="48.18593" lon="7.10307">
        <ele>914.7</ele>
        <time>2021-08-05T08:46:31Z</time>
      </trkpt>
      <trkpt lat="48.18588" lon="7.10308">
        <ele>914.7</ele>
        <time>2021-08-05T08:46:32Z</time>
      </trkpt>
      <trkpt lat="48.18586" lon="7.10309">
        <ele>914.6</ele>
        <time>2021-08-05T08:46:33Z</time>
      </trkpt>
      <trkpt lat="48.18581" lon="7.1031">
        <ele>914.6</ele>
        <time>2021-08-05T08:46:34Z</time>
      </trkpt>
      <trkpt lat="48.18575" lon="7.10312">
        <ele>914.4</ele>
        <time>2021-08-05T08:46:35Z</time>
      </trkpt>
      <trkpt lat="48.18564" lon="7.10319">
        <ele>913.8</ele>
        <time>2021-08-05T08:46:37Z</time>
      </trkpt>
      <trkpt lat="48.18559" lon="7.1032">
        <ele>913.4</ele>
        <time>2021-08-05T08:46:38Z</time>
      </trkpt>
      <trkpt lat="48.18552" lon="7.10321">
        <ele>912.8</ele>
        <time>2021-08-05T08:46:40Z</time>
      </trkpt>
      <trkpt lat="48.1854" lon="7.10321">
        <ele>911.7</ele>
        <time>2021-08-05T08:46:42Z</time>
      </trkpt>
      <trkpt lat="48.18534" lon="7.10321">
        <ele>911.1</ele>
        <time>2021-08-05T08:46:43Z</time>
      </trkpt>
      <trkpt lat="48.18528" lon="7.10321">
        <ele>910.6</ele>
        <time>2021-08-05T08:46:44Z</time>
      </trkpt>
      <trkpt lat="48.18516" lon="7.10321">
        <ele>909.4</ele>
        <time>2021-08-05T08:46:46Z</time>
      </trkpt>
      <trkpt lat="48.1851" lon="7.1032">
        <ele>908.8</ele>
        <time>2021-08-05T08:46:47Z</time>
      </trkpt>
      <trkpt lat="48.18504" lon="7.1032">
        <ele>908.3</ele>
        <time>2021-08-05T08:46:48Z</time>
      </trkpt>
      <trkpt lat="48.18497" lon="7.10323">
        <ele>907.7</ele>
        <time>2021-08-05T08:46:49Z</time>
      </trkpt>
      <trkpt lat="48.18486" lon="7.10325">
        <ele>906.7</ele>
        <time>2021-08-05T08:46:51Z</time>
      </trkpt>
      <trkpt lat="48.18477" lon="7.10324">
        <ele>906</ele>
        <time>2021-08-05T08:46:53Z</time>
      </trkpt>
      <trkpt lat="48.18472" lon="7.10323">
        <ele>905.5</ele>
        <time>2021-08-05T08:46:54Z</time>
      </trkpt>
      <trkpt lat="48.18466" lon="7.10321">
        <ele>904.9</ele>
        <time>2021-08-05T08:46:55Z</time>
      </trkpt>
      <trkpt lat="48.18455" lon="7.10318">
        <ele>903.7</ele>
        <time>2021-08-05T08:46:57Z</time>
      </trkpt>
      <trkpt lat="48.1845" lon="7.10316">
        <ele>903.1</ele>
        <time>2021-08-05T08:46:58Z</time>
      </trkpt>
      <trkpt lat="48.18438" lon="7.10316">
        <ele>901.7</ele>
        <time>2021-08-05T08:47:00Z</time>
      </trkpt>
      <trkpt lat="48.18435" lon="7.10311">
        <ele>901.1</ele>
        <time>2021-08-05T08:47:01Z</time>
      </trkpt>
      <trkpt lat="48.18433" lon="7.10309">
        <ele>900.9</ele>
        <time>2021-08-05T08:47:02Z</time>
      </trkpt>
      <trkpt lat="48.18425" lon="7.10296">
        <ele>899.6</ele>
        <time>2021-08-05T08:47:04Z</time>
      </trkpt>
      <trkpt lat="48.1842" lon="7.10291">
        <ele>899</ele>
        <time>2021-08-05T08:47:05Z</time>
      </trkpt>
      <trkpt lat="48.18413" lon="7.10285">
        <ele>898.2</ele>
        <time>2021-08-05T08:47:07Z</time>
      </trkpt>
      <trkpt lat="48.18408" lon="7.10281">
        <ele>897.7</ele>
        <time>2021-08-05T08:47:09Z</time>
      </trkpt>
      <trkpt lat="48.18409" lon="7.10285">
        <ele>897.5</ele>
        <time>2021-08-05T08:47:11Z</time>
      </trkpt>
      <trkpt lat="48.18407" lon="7.10284">
        <ele>897.4</ele>
        <time>2021-08-05T08:47:12Z</time>
      </trkpt>
      <trkpt lat="48.18405" lon="7.10282">
        <ele>897.2</ele>
        <time>2021-08-05T08:47:13Z</time>
      </trkpt>
      <trkpt lat="48.18404" lon="7.10281">
        <ele>897.1</ele>
        <time>2021-08-05T08:47:14Z</time>
      </trkpt>
      <trkpt lat="48.18396" lon="7.10274">
        <ele>896.3</ele>
        <time>2021-08-05T08:47:16Z</time>
      </trkpt>
      <trkpt lat="48.18385" lon="7.10263">
        <ele>895.2</ele>
        <time>2021-08-05T08:47:17Z</time>
      </trkpt>
      <trkpt lat="48.18383" lon="7.10262">
        <ele>895</ele>
        <time>2021-08-05T08:47:19Z</time>
      </trkpt>
      <trkpt lat="48.1835" lon="7.10191">
        <ele>887.5</ele>
        <time>2021-08-05T08:47:59Z</time>
      </trkpt>
      <trkpt lat="48.18349" lon="7.10181">
        <ele>886.7</ele>
        <time>2021-08-05T08:48:01Z</time>
      </trkpt>
      <trkpt lat="48.1835" lon="7.1017">
        <ele>885.9</ele>
        <time>2021-08-05T08:48:02Z</time>
      </trkpt>
      <trkpt lat="48.18351" lon="7.10161">
        <ele>885.3</ele>
        <time>2021-08-05T08:48:03Z</time>
      </trkpt>
      <trkpt lat="48.18364" lon="7.10136">
        <ele>883.3</ele>
        <time>2021-08-05T08:48:05Z</time>
      </trkpt>
      <trkpt lat="48.18368" lon="7.10129">
        <ele>882.8</ele>
        <time>2021-08-05T08:48:06Z</time>
      </trkpt>
      <trkpt lat="48.18375" lon="7.10116">
        <ele>881.9</ele>
        <time>2021-08-05T08:48:08Z</time>
      </trkpt>
      <trkpt lat="48.18382" lon="7.10105">
        <ele>881</ele>
        <time>2021-08-05T08:48:10Z</time>
      </trkpt>
      <trkpt lat="48.18386" lon="7.10098">
        <ele>880.5</ele>
        <time>2021-08-05T08:48:11Z</time>
      </trkpt>
      <trkpt lat="48.18391" lon="7.10091">
        <ele>880</ele>
        <time>2021-08-05T08:48:12Z</time>
      </trkpt>
      <trkpt lat="48.18395" lon="7.10083">
        <ele>879.5</ele>
        <time>2021-08-05T08:48:13Z</time>
      </trkpt>
      <trkpt lat="48.18402" lon="7.10068">
        <ele>878.8</ele>
        <time>2021-08-05T08:48:15Z</time>
      </trkpt>
      <trkpt lat="48.18408" lon="7.10052">
        <ele>878.2</ele>
        <time>2021-08-05T08:48:17Z</time>
      </trkpt>
      <trkpt lat="48.18416" lon="7.10036">
        <ele>877.7</ele>
        <time>2021-08-05T08:48:19Z</time>
      </trkpt>
      <trkpt lat="48.18424" lon="7.1002">
        <ele>877.2</ele>
        <time>2021-08-05T08:48:21Z</time>
      </trkpt>
      <trkpt lat="48.18429" lon="7.1001">
        <ele>876.8</ele>
        <time>2021-08-05T08:48:22Z</time>
      </trkpt>
      <trkpt lat="48.18433" lon="7.10001">
        <ele>876.4</ele>
        <time>2021-08-05T08:48:23Z</time>
      </trkpt>
      <trkpt lat="48.18443" lon="7.09987">
        <ele>875.4</ele>
        <time>2021-08-05T08:48:25Z</time>
      </trkpt>
      <trkpt lat="48.18449" lon="7.09979">
        <ele>874.7</ele>
        <time>2021-08-05T08:48:26Z</time>
      </trkpt>
      <trkpt lat="48.18459" lon="7.09961">
        <ele>873.1</ele>
        <time>2021-08-05T08:48:28Z</time>
      </trkpt>
      <trkpt lat="48.18465" lon="7.09952">
        <ele>872.4</ele>
        <time>2021-08-05T08:48:30Z</time>
      </trkpt>
      <trkpt lat="48.18468" lon="7.09947">
        <ele>871.9</ele>
        <time>2021-08-05T08:48:31Z</time>
      </trkpt>
      <trkpt lat="48.18471" lon="7.09937">
        <ele>871.3</ele>
        <time>2021-08-05T08:48:33Z</time>
      </trkpt>
      <trkpt lat="48.18467" lon="7.09922">
        <ele>870.4</ele>
        <time>2021-08-05T08:48:35Z</time>
      </trkpt>
      <trkpt lat="48.18462" lon="7.09916">
        <ele>870</ele>
        <time>2021-08-05T08:48:36Z</time>
      </trkpt>
      <trkpt lat="48.18381" lon="7.0989">
        <ele>852.8</ele>
        <time>2021-08-05T08:48:49Z</time>
      </trkpt>
      <trkpt lat="48.18364" lon="7.09889">
        <ele>851.1</ele>
        <time>2021-08-05T08:48:51Z</time>
      </trkpt>
      <trkpt lat="48.18353" lon="7.09893">
        <ele>851</ele>
        <time>2021-08-05T08:48:53Z</time>
      </trkpt>
      <trkpt lat="48.1835" lon="7.09897">
        <ele>851</ele>
        <time>2021-08-05T08:48:54Z</time>
      </trkpt>
      <trkpt lat="48.18347" lon="7.09902">
        <ele>851.1</ele>
        <time>2021-08-05T08:48:55Z</time>
      </trkpt>
      <trkpt lat="48.18341" lon="7.09909">
        <ele>851.1</ele>
        <time>2021-08-05T08:48:57Z</time>
      </trkpt>
      <trkpt lat="48.1834" lon="7.0991">
        <ele>851.1</ele>
        <time>2021-08-05T08:48:58Z</time>
      </trkpt>
      <trkpt lat="48.18335" lon="7.09914">
        <ele>851.1</ele>
        <time>2021-08-05T08:49:00Z</time>
      </trkpt>
      <trkpt lat="48.18342" lon="7.09929">
        <ele>851.2</ele>
        <time>2021-08-05T08:49:02Z</time>
      </trkpt>
      <trkpt lat="48.18347" lon="7.09939">
        <ele>851.3</ele>
        <time>2021-08-05T08:49:04Z</time>
      </trkpt>
      <trkpt lat="48.18345" lon="7.09943">
        <ele>851.3</ele>
        <time>2021-08-05T08:49:05Z</time>
      </trkpt>
      <trkpt lat="48.18344" lon="7.09944">
        <ele>851.3</ele>
        <time>2021-08-05T08:49:06Z</time>
      </trkpt>
      <trkpt lat="48.18338" lon="7.09947">
        <ele>851.4</ele>
        <time>2021-08-05T08:49:08Z</time>
      </trkpt>
      <trkpt lat="48.18329" lon="7.09952">
        <ele>851.5</ele>
        <time>2021-08-05T08:49:10Z</time>
      </trkpt>
      <trkpt lat="48.18321" lon="7.09955">
        <ele>851.6</ele>
        <time>2021-08-05T08:49:11Z</time>
      </trkpt>
      <trkpt lat="48.18308" lon="7.0996">
        <ele>851.8</ele>
        <time>2021-08-05T08:49:13Z</time>
      </trkpt>
      <trkpt lat="48.18297" lon="7.09964">
        <ele>851.8</ele>
        <time>2021-08-05T08:49:15Z</time>
      </trkpt>
      <trkpt lat="48.18292" lon="7.09966">
        <ele>851.9</ele>
        <time>2021-08-05T08:49:16Z</time>
      </trkpt>
      <trkpt lat="48.18289" lon="7.09967">
        <ele>851.9</ele>
        <time>2021-08-05T08:49:17Z</time>
      </trkpt>
      <trkpt lat="48.18279" lon="7.09973">
        <ele>851.9</ele>
        <time>2021-08-05T08:49:19Z</time>
      </trkpt>
      <trkpt lat="48.18266" lon="7.09979">
        <ele>851.9</ele>
        <time>2021-08-05T08:49:21Z</time>
      </trkpt>
      <trkpt lat="48.18253" lon="7.09989">
        <ele>851.8</ele>
        <time>2021-08-05T08:49:23Z</time>
      </trkpt>
      <trkpt lat="48.18248" lon="7.09993">
        <ele>851.8</ele>
        <time>2021-08-05T08:49:24Z</time>
      </trkpt>
      <trkpt lat="48.18243" lon="7.09996">
        <ele>851.8</ele>
        <time>2021-08-05T08:49:25Z</time>
      </trkpt>
      <trkpt lat="48.18233" lon="7.09998">
        <ele>851.7</ele>
        <time>2021-08-05T08:49:27Z</time>
      </trkpt>
      <trkpt lat="48.18229" lon="7.09999">
        <ele>851.7</ele>
        <time>2021-08-05T08:49:28Z</time>
      </trkpt>
      <trkpt lat="48.18225" lon="7.1">
        <ele>851.6</ele>
        <time>2021-08-05T08:49:29Z</time>
      </trkpt>
      <trkpt lat="48.18221" lon="7.10001">
        <ele>851.6</ele>
        <time>2021-08-05T08:49:30Z</time>
      </trkpt>
      <trkpt lat="48.18215" lon="7.10005">
        <ele>851.5</ele>
        <time>2021-08-05T08:49:31Z</time>
      </trkpt>
      <trkpt lat="48.18209" lon="7.10009">
        <ele>851.4</ele>
        <time>2021-08-05T08:49:32Z</time>
      </trkpt>
      <trkpt lat="48.18195" lon="7.10019">
        <ele>851</ele>
        <time>2021-08-05T08:49:34Z</time>
      </trkpt>
      <trkpt lat="48.18189" lon="7.10025">
        <ele>850.9</ele>
        <time>2021-08-05T08:49:35Z</time>
      </trkpt>
      <trkpt lat="48.18171" lon="7.1004">
        <ele>850.4</ele>
        <time>2021-08-05T08:49:37Z</time>
      </trkpt>
      <trkpt lat="48.18161" lon="7.10049">
        <ele>850.2</ele>
        <time>2021-08-05T08:49:38Z</time>
      </trkpt>
      <trkpt lat="48.1814" lon="7.10069">
        <ele>849.7</ele>
        <time>2021-08-05T08:49:40Z</time>
      </trkpt>
      <trkpt lat="48.18116" lon="7.10094">
        <ele>849.1</ele>
        <time>2021-08-05T08:49:42Z</time>
      </trkpt>
      <trkpt lat="48.18108" lon="7.10104">
        <ele>848.7</ele>
        <time>2021-08-05T08:49:43Z</time>
      </trkpt>
      <trkpt lat="48.18095" lon="7.1012">
        <ele>848.1</ele>
        <time>2021-08-05T08:49:45Z</time>
      </trkpt>
      <trkpt lat="48.18084" lon="7.10132">
        <ele>847.6</ele>
        <time>2021-08-05T08:49:47Z</time>
      </trkpt>
      <trkpt lat="48.18072" lon="7.10143">
        <ele>847.2</ele>
        <time>2021-08-05T08:49:49Z</time>
      </trkpt>
      <trkpt lat="48.18065" lon="7.10148">
        <ele>847</ele>
        <time>2021-08-05T08:49:50Z</time>
      </trkpt>
      <trkpt lat="48.18052" lon="7.1016">
        <ele>846.9</ele>
        <time>2021-08-05T08:49:52Z</time>
      </trkpt>
      <trkpt lat="48.1804" lon="7.10174">
        <ele>846.9</ele>
        <time>2021-08-05T08:49:54Z</time>
      </trkpt>
      <trkpt lat="48.18033" lon="7.1018">
        <ele>846.9</ele>
        <time>2021-08-05T08:49:55Z</time>
      </trkpt>
      <trkpt lat="48.1805" lon="7.10199">
        <ele>847.4</ele>
        <time>2021-08-05T08:50:11Z</time>
      </trkpt>
      <trkpt lat="48.1805" lon="7.10199">
        <ele>847.4</ele>
        <time>2021-08-05T08:50:11Z</time>
      </trkpt>
      <trkpt lat="48.18049" lon="7.10193">
        <ele>847.5</ele>
        <time>2021-08-05T08:50:12Z</time>
      </trkpt>
      <trkpt lat="48.18048" lon="7.10189">
        <ele>847.5</ele>
        <time>2021-08-05T08:50:13Z</time>
      </trkpt>
      <trkpt lat="48.18045" lon="7.10177">
        <ele>847.8</ele>
        <time>2021-08-05T08:50:15Z</time>
      </trkpt>
      <trkpt lat="48.18042" lon="7.10169">
        <ele>848</ele>
        <time>2021-08-05T08:50:16Z</time>
      </trkpt>
      <trkpt lat="48.1804" lon="7.10164">
        <ele>848</ele>
        <time>2021-08-05T08:50:17Z</time>
      </trkpt>
      <trkpt lat="48.18039" lon="7.10166">
        <ele>848.1</ele>
        <time>2021-08-05T08:50:18Z</time>
      </trkpt>
      <trkpt lat="48.18038" lon="7.10166">
        <ele>848.1</ele>
        <time>2021-08-05T08:50:20Z</time>
      </trkpt>
      <trkpt lat="48.18037" lon="7.10166">
        <ele>848.1</ele>
        <time>2021-08-05T08:50:21Z</time>
      </trkpt>
      <trkpt lat="48.18034" lon="7.10164">
        <ele>848.1</ele>
        <time>2021-08-05T08:50:22Z</time>
      </trkpt>
      <trkpt lat="48.18033" lon="7.10163">
        <ele>848.1</ele>
        <time>2021-08-05T08:50:23Z</time>
      </trkpt>
      <trkpt lat="48.18031" lon="7.1016">
        <ele>848.1</ele>
        <time>2021-08-05T08:50:24Z</time>
      </trkpt>
      <trkpt lat="48.18029" lon="7.10159">
        <ele>848.1</ele>
        <time>2021-08-05T08:50:26Z</time>
      </trkpt>
      <trkpt lat="48.18029" lon="7.10156">
        <ele>848.1</ele>
        <time>2021-08-05T08:50:28Z</time>
      </trkpt>
      <trkpt lat="48.18029" lon="7.10156">
        <ele>848.1</ele>
        <time>2021-08-05T08:50:29Z</time>
      </trkpt>
      <trkpt lat="48.18028" lon="7.10154">
        <ele>848.1</ele>
        <time>2021-08-05T08:50:30Z</time>
      </trkpt>
      <trkpt lat="48.18023" lon="7.10143">
        <ele>848</ele>
        <time>2021-08-05T08:50:31Z</time>
      </trkpt>
      <trkpt lat="48.18015" lon="7.10134">
        <ele>848</ele>
        <time>2021-08-05T08:50:32Z</time>
      </trkpt>
      <trkpt lat="48.1801" lon="7.10132">
        <ele>848</ele>
        <time>2021-08-05T08:50:34Z</time>
      </trkpt>
      <trkpt lat="48.18008" lon="7.1013">
        <ele>848</ele>
        <time>2021-08-05T08:50:35Z</time>
      </trkpt>
      <trkpt lat="48.18006" lon="7.10129">
        <ele>848</ele>
        <time>2021-08-05T08:50:36Z</time>
      </trkpt>
      <trkpt lat="48.17977" lon="7.10068">
        <ele>848.8</ele>
        <time>2021-08-05T08:50:51Z</time>
      </trkpt>
      <trkpt lat="48.1797" lon="7.10069">
        <ele>849</ele>
        <time>2021-08-05T08:50:52Z</time>
      </trkpt>
      <trkpt lat="48.17962" lon="7.10069">
        <ele>849.1</ele>
        <time>2021-08-05T08:50:54Z</time>
      </trkpt>
      <trkpt lat="48.17961" lon="7.10068">
        <ele>849.1</ele>
        <time>2021-08-05T08:50:55Z</time>
      </trkpt>
      <trkpt lat="48.17962" lon="7.10068">
        <ele>849.1</ele>
        <time>2021-08-05T08:50:56Z</time>
      </trkpt>
      <trkpt lat="48.17962" lon="7.10068">
        <ele>849.1</ele>
        <time>2021-08-05T08:50:57Z</time>
      </trkpt>
      <trkpt lat="48.17961" lon="7.10068">
        <ele>849.1</ele>
        <time>2021-08-05T08:50:58Z</time>
      </trkpt>
      <trkpt lat="48.17957" lon="7.10066">
        <ele>849.2</ele>
        <time>2021-08-05T08:51:00Z</time>
      </trkpt>
      <trkpt lat="48.17953" lon="7.10064">
        <ele>849.2</ele>
        <time>2021-08-05T08:51:02Z</time>
      </trkpt>
      <trkpt lat="48.17952" lon="7.10063">
        <ele>849.2</ele>
        <time>2021-08-05T08:51:03Z</time>
      </trkpt>
      <trkpt lat="48.17948" lon="7.10064">
        <ele>849.2</ele>
        <time>2021-08-05T08:51:05Z</time>
      </trkpt>
      <trkpt lat="48.17917" lon="7.10035">
        <ele>849</ele>
        <time>2021-08-05T08:51:21Z</time>
      </trkpt>
      <trkpt lat="48.17917" lon="7.1003">
        <ele>849</ele>
        <time>2021-08-05T08:51:23Z</time>
      </trkpt>
      <trkpt lat="48.17918" lon="7.10029">
        <ele>849</ele>
        <time>2021-08-05T08:51:24Z</time>
      </trkpt>
      <trkpt lat="48.17919" lon="7.10028">
        <ele>848.9</ele>
        <time>2021-08-05T08:51:25Z</time>
      </trkpt>
      <trkpt lat="48.1792" lon="7.10028">
        <ele>848.9</ele>
        <time>2021-08-05T08:51:26Z</time>
      </trkpt>
      <trkpt lat="48.17921" lon="7.10028">
        <ele>848.9</ele>
        <time>2021-08-05T08:51:27Z</time>
      </trkpt>
      <trkpt lat="48.17922" lon="7.10029">
        <ele>848.9</ele>
        <time>2021-08-05T08:51:29Z</time>
      </trkpt>
      <trkpt lat="48.17922" lon="7.10029">
        <ele>848.9</ele>
        <time>2021-08-05T08:51:30Z</time>
      </trkpt>
      <trkpt lat="48.17923" lon="7.10033">
        <ele>848.8</ele>
        <time>2021-08-05T08:51:32Z</time>
      </trkpt>
      <trkpt lat="48.17922" lon="7.10032">
        <ele>848.8</ele>
        <time>2021-08-05T08:51:34Z</time>
      </trkpt>
      <trkpt lat="48.17923" lon="7.10034">
        <ele>848.8</ele>
        <time>2021-08-05T08:51:35Z</time>
      </trkpt>
      <trkpt lat="48.17923" lon="7.10036">
        <ele>848.7</ele>
        <time>2021-08-05T08:51:36Z</time>
      </trkpt>
      <trkpt lat="48.17924" lon="7.10038">
        <ele>848.7</ele>
        <time>2021-08-05T08:51:37Z</time>
      </trkpt>
      <trkpt lat="48.17925" lon="7.1004">
        <ele>848.7</ele>
        <time>2021-08-05T08:51:39Z</time>
      </trkpt>
      <trkpt lat="48.17925" lon="7.1004">
        <ele>848.7</ele>
        <time>2021-08-05T08:51:40Z</time>
      </trkpt>
      <trkpt lat="48.17926" lon="7.10041">
        <ele>848.7</ele>
        <time>2021-08-05T08:51:42Z</time>
      </trkpt>
      <trkpt lat="48.17926" lon="7.10041">
        <ele>848.7</ele>
        <time>2021-08-05T08:51:43Z</time>
      </trkpt>
      <trkpt lat="48.1793" lon="7.10053">
        <ele>848.5</ele>
        <time>2021-08-05T08:51:44Z</time>
      </trkpt>
      <trkpt lat="48.17931" lon="7.10058">
        <ele>848.4</ele>
        <time>2021-08-05T08:51:45Z</time>
      </trkpt>
      <trkpt lat="48.17932" lon="7.10061">
        <ele>848.3</ele>
        <time>2021-08-05T08:51:47Z</time>
      </trkpt>
      <trkpt lat="48.17932" lon="7.10063">
        <ele>848.3</ele>
        <time>2021-08-05T08:51:48Z</time>
      </trkpt>
      <trkpt lat="48.17932" lon="7.10064">
        <ele>848.3</ele>
        <time>2021-08-05T08:51:49Z</time>
      </trkpt>
      <trkpt lat="48.1793" lon="7.10064">
        <ele>848.2</ele>
        <time>2021-08-05T08:51:50Z</time>
      </trkpt>
      <trkpt lat="48.17928" lon="7.10064">
        <ele>848.2</ele>
        <time>2021-08-05T08:51:52Z</time>
      </trkpt>
      <trkpt lat="48.17922" lon="7.10066">
        <ele>848.1</ele>
        <time>2021-08-05T08:51:53Z</time>
      </trkpt>
      <trkpt lat="48.17912" lon="7.10059">
        <ele>847.9</ele>
        <time>2021-08-05T08:51:55Z</time>
      </trkpt>
      <trkpt lat="48.17902" lon="7.10052">
        <ele>847.8</ele>
        <time>2021-08-05T08:51:56Z</time>
      </trkpt>
      <trkpt lat="48.17893" lon="7.10044">
        <ele>847.8</ele>
        <time>2021-08-05T08:51:58Z</time>
      </trkpt>
      <trkpt lat="48.17887" lon="7.10038">
        <ele>847.9</ele>
        <time>2021-08-05T08:51:59Z</time>
      </trkpt>
      <trkpt lat="48.17882" lon="7.10029">
        <ele>848.1</ele>
        <time>2021-08-05T08:52:00Z</time>
      </trkpt>
      <trkpt lat="48.17877" lon="7.10023">
        <ele>848.3</ele>
        <time>2021-08-05T08:52:01Z</time>
      </trkpt>
      <trkpt lat="48.17874" lon="7.10019">
        <ele>848.5</ele>
        <time>2021-08-05T08:52:02Z</time>
      </trkpt>
      <trkpt lat="48.1787" lon="7.10013">
        <ele>849.3</ele>
        <time>2021-08-05T08:52:04Z</time>
      </trkpt>
      <trkpt lat="48.17867" lon="7.1001">
        <ele>849.7</ele>
        <time>2021-08-05T08:52:05Z</time>
      </trkpt>
      <trkpt lat="48.17865" lon="7.10009">
        <ele>849.9</ele>
        <time>2021-08-05T08:52:06Z</time>
      </trkpt>
      <trkpt lat="48.17863" lon="7.10007">
        <ele>850.2</ele>
        <time>2021-08-05T08:52:08Z</time>
      </trkpt>
      <trkpt lat="48.17864" lon="7.10008">
        <ele>850.3</ele>
        <time>2021-08-05T08:52:09Z</time>
      </trkpt>
      <trkpt lat="48.17866" lon="7.10007">
        <ele>850.6</ele>
        <time>2021-08-05T08:52:10Z</time>
      </trkpt>
      <trkpt lat="48.17866" lon="7.10003">
        <ele>850.9</ele>
        <time>2021-08-05T08:52:12Z</time>
      </trkpt>
      <trkpt lat="48.17866" lon="7.10001">
        <ele>851.1</ele>
        <time>2021-08-05T08:52:13Z</time>
      </trkpt>
      <trkpt lat="48.17866" lon="7.1">
        <ele>851.1</ele>
        <time>2021-08-05T08:52:14Z</time>
      </trkpt>
      <trkpt lat="48.17867" lon="7.09999">
        <ele>851.2</ele>
        <time>2021-08-05T08:52:16Z</time>
      </trkpt>
      <trkpt lat="48.17866" lon="7.09997">
        <ele>851.4</ele>
        <time>2021-08-05T08:52:18Z</time>
      </trkpt>
      <trkpt lat="48.17866" lon="7.09996">
        <ele>851.5</ele>
        <time>2021-08-05T08:52:19Z</time>
      </trkpt>
      <trkpt lat="48.17865" lon="7.09992">
        <ele>851.9</ele>
        <time>2021-08-05T08:52:20Z</time>
      </trkpt>
      <trkpt lat="48.17864" lon="7.09991">
        <ele>852</ele>
        <time>2021-08-05T08:52:21Z</time>
      </trkpt>
      <trkpt lat="48.17863" lon="7.09988">
        <ele>852.3</ele>
        <time>2021-08-05T08:52:22Z</time>
      </trkpt>
      <trkpt lat="48.17862" lon="7.09983">
        <ele>852.8</ele>
        <time>2021-08-05T08:52:24Z</time>
      </trkpt>
      <trkpt lat="48.17859" lon="7.09978">
        <ele>853.3</ele>
        <time>2021-08-05T08:52:25Z</time>
      </trkpt>
      <trkpt lat="48.17858" lon="7.09973">
        <ele>853.8</ele>
        <time>2021-08-05T08:52:26Z</time>
      </trkpt>
      <trkpt lat="48.17857" lon="7.09967">
        <ele>854.4</ele>
        <time>2021-08-05T08:52:28Z</time>
      </trkpt>
      <trkpt lat="48.17856" lon="7.09965">
        <ele>854.5</ele>
        <time>2021-08-05T08:52:29Z</time>
      </trkpt>
      <trkpt lat="48.17856" lon="7.09965">
        <ele>854.6</ele>
        <time>2021-08-05T08:52:31Z</time>
      </trkpt>
      <trkpt lat="48.17856" lon="7.09965">
        <ele>854.6</ele>
        <time>2021-08-05T08:52:32Z</time>
      </trkpt>
      <trkpt lat="48.17856" lon="7.09964">
        <ele>854.6</ele>
        <time>2021-08-05T08:52:33Z</time>
      </trkpt>
      <trkpt lat="48.17856" lon="7.09964">
        <ele>854.6</ele>
        <time>2021-08-05T08:52:34Z</time>
      </trkpt>
      <trkpt lat="48.17856" lon="7.09964">
        <ele>854.6</ele>
        <time>2021-08-05T08:52:35Z</time>
      </trkpt>
      <trkpt lat="48.17857" lon="7.09964">
        <ele>854.7</ele>
        <time>2021-08-05T08:52:37Z</time>
      </trkpt>
      <trkpt lat="48.17857" lon="7.09964">
        <ele>854.7</ele>
        <time>2021-08-05T08:52:38Z</time>
      </trkpt>
      <trkpt lat="48.17857" lon="7.09963">
        <ele>854.7</ele>
        <time>2021-08-05T08:52:40Z</time>
      </trkpt>
      <trkpt lat="48.17837" lon="7.09909">
        <ele>859.7</ele>
        <time>2021-08-05T08:53:21Z</time>
      </trkpt>
      <trkpt lat="48.17837" lon="7.099">
        <ele>860.5</ele>
        <time>2021-08-05T08:53:23Z</time>
      </trkpt>
      <trkpt lat="48.17838" lon="7.09892">
        <ele>861.1</ele>
        <time>2021-08-05T08:53:24Z</time>
      </trkpt>
      <trkpt lat="48.17838" lon="7.09886">
        <ele>861.6</ele>
        <time>2021-08-05T08:53:25Z</time>
      </trkpt>
      <trkpt lat="48.17837" lon="7.09884">
        <ele>861.7</ele>
        <time>2021-08-05T08:53:27Z</time>
      </trkpt>
      <trkpt lat="48.17837" lon="7.09883">
        <ele>861.9</ele>
        <time>2021-08-05T08:53:28Z</time>
      </trkpt>
      <trkpt lat="48.17837" lon="7.09882">
        <ele>861.9</ele>
        <time>2021-08-05T08:53:29Z</time>
      </trkpt>
      <trkpt lat="48.17835" lon="7.0988">
        <ele>862.2</ele>
        <time>2021-08-05T08:53:30Z</time>
      </trkpt>
      <trkpt lat="48.17835" lon="7.09879">
        <ele>862.3</ele>
        <time>2021-08-05T08:53:32Z</time>
      </trkpt>
      <trkpt lat="48.17834" lon="7.09878">
        <ele>862.4</ele>
        <time>2021-08-05T08:53:33Z</time>
      </trkpt>
      <trkpt lat="48.17832" lon="7.09878">
        <ele>862.6</ele>
        <time>2021-08-05T08:53:35Z</time>
      </trkpt>
      <trkpt lat="48.17825" lon="7.09872">
        <ele>863.7</ele>
        <time>2021-08-05T08:53:41Z</time>
      </trkpt>
      <trkpt lat="48.17823" lon="7.09867">
        <ele>864.1</ele>
        <time>2021-08-05T08:53:43Z</time>
      </trkpt>
      <trkpt lat="48.17822" lon="7.09865">
        <ele>864.3</ele>
        <time>2021-08-05T08:53:44Z</time>
      </trkpt>
      <trkpt lat="48.17821" lon="7.09864">
        <ele>864.4</ele>
        <time>2021-08-05T08:53:45Z</time>
      </trkpt>
      <trkpt lat="48.17821" lon="7.09863">
        <ele>864.5</ele>
        <time>2021-08-05T08:53:47Z</time>
      </trkpt>
      <trkpt lat="48.1782" lon="7.09861">
        <ele>864.7</ele>
        <time>2021-08-05T08:53:48Z</time>
      </trkpt>
      <trkpt lat="48.1782" lon="7.09861">
        <ele>864.8</ele>
        <time>2021-08-05T08:53:49Z</time>
      </trkpt>
      <trkpt lat="48.17818" lon="7.09858">
        <ele>865</ele>
        <time>2021-08-05T08:53:50Z</time>
      </trkpt>
      <trkpt lat="48.17818" lon="7.09856">
        <ele>865.2</ele>
        <time>2021-08-05T08:53:51Z</time>
      </trkpt>
      <trkpt lat="48.17818" lon="7.09853">
        <ele>865.5</ele>
        <time>2021-08-05T08:53:52Z</time>
      </trkpt>
      <trkpt lat="48.17818" lon="7.09851">
        <ele>865.6</ele>
        <time>2021-08-05T08:53:53Z</time>
      </trkpt>
      <trkpt lat="48.17818" lon="7.09848">
        <ele>865.8</ele>
        <time>2021-08-05T08:53:54Z</time>
      </trkpt>
      <trkpt lat="48.17818" lon="7.09844">
        <ele>866.2</ele>
        <time>2021-08-05T08:53:56Z</time>
      </trkpt>
      <trkpt lat="48.17818" lon="7.09839">
        <ele>866.6</ele>
        <time>2021-08-05T08:53:57Z</time>
      </trkpt>
      <trkpt lat="48.17817" lon="7.09833">
        <ele>867.1</ele>
        <time>2021-08-05T08:53:58Z</time>
      </trkpt>
      <trkpt lat="48.17816" lon="7.09825">
        <ele>867.7</ele>
        <time>2021-08-05T08:53:59Z</time>
      </trkpt>
      <trkpt lat="48.17816" lon="7.09808">
        <ele>867.6</ele>
        <time>2021-08-05T08:54:00Z</time>
      </trkpt>
      <trkpt lat="48.17813" lon="7.09783">
        <ele>866.2</ele>
        <time>2021-08-05T08:54:02Z</time>
      </trkpt>
      <trkpt lat="48.17808" lon="7.09763">
        <ele>864.8</ele>
        <time>2021-08-05T08:54:04Z</time>
      </trkpt>
      <trkpt lat="48.17806" lon="7.09753">
        <ele>864.2</ele>
        <time>2021-08-05T08:54:05Z</time>
      </trkpt>
      <trkpt lat="48.17804" lon="7.09743">
        <ele>863.6</ele>
        <time>2021-08-05T08:54:06Z</time>
      </trkpt>
      <trkpt lat="48.17799" lon="7.09724">
        <ele>862.5</ele>
        <time>2021-08-05T08:54:08Z</time>
      </trkpt>
      <trkpt lat="48.17793" lon="7.09705">
        <ele>861.7</ele>
        <time>2021-08-05T08:54:10Z</time>
      </trkpt>
      <trkpt lat="48.1779" lon="7.09696">
        <ele>861.3</ele>
        <time>2021-08-05T08:54:11Z</time>
      </trkpt>
      <trkpt lat="48.17788" lon="7.09687">
        <ele>861.1</ele>
        <time>2021-08-05T08:54:12Z</time>
      </trkpt>
      <trkpt lat="48.17787" lon="7.09679">
        <ele>861</ele>
        <time>2021-08-05T08:54:13Z</time>
      </trkpt>
      <trkpt lat="48.17787" lon="7.0967">
        <ele>860.8</ele>
        <time>2021-08-05T08:54:14Z</time>
      </trkpt>
      <trkpt lat="48.17786" lon="7.09656">
        <ele>860.7</ele>
        <time>2021-08-05T08:54:16Z</time>
      </trkpt>
      <trkpt lat="48.17788" lon="7.09649">
        <ele>860.6</ele>
        <time>2021-08-05T08:54:17Z</time>
      </trkpt>
      <trkpt lat="48.17789" lon="7.09641">
        <ele>860.5</ele>
        <time>2021-08-05T08:54:18Z</time>
      </trkpt>
      <trkpt lat="48.17791" lon="7.09627">
        <ele>860.4</ele>
        <time>2021-08-05T08:54:20Z</time>
      </trkpt>
      <trkpt lat="48.17791" lon="7.0962">
        <ele>860.3</ele>
        <time>2021-08-05T08:54:21Z</time>
      </trkpt>
      <trkpt lat="48.17791" lon="7.09612">
        <ele>860.2</ele>
        <time>2021-08-05T08:54:22Z</time>
      </trkpt>
      <trkpt lat="48.17791" lon="7.09605">
        <ele>860.1</ele>
        <time>2021-08-05T08:54:23Z</time>
      </trkpt>
      <trkpt lat="48.1779" lon="7.09592">
        <ele>859.8</ele>
        <time>2021-08-05T08:54:25Z</time>
      </trkpt>
      <trkpt lat="48.17786" lon="7.09592">
        <ele>859.7</ele>
        <time>2021-08-05T08:54:26Z</time>
      </trkpt>
      <trkpt lat="48.1778" lon="7.0959">
        <ele>859.5</ele>
        <time>2021-08-05T08:54:27Z</time>
      </trkpt>
      <trkpt lat="48.17776" lon="7.09587">
        <ele>859.4</ele>
        <time>2021-08-05T08:54:28Z</time>
      </trkpt>
      <trkpt lat="48.17775" lon="7.09583">
        <ele>859.3</ele>
        <time>2021-08-05T08:54:29Z</time>
      </trkpt>
      <trkpt lat="48.17773" lon="7.09573">
        <ele>859.1</ele>
        <time>2021-08-05T08:54:31Z</time>
      </trkpt>
      <trkpt lat="48.1777" lon="7.09563">
        <ele>858.8</ele>
        <time>2021-08-05T08:54:32Z</time>
      </trkpt>
      <trkpt lat="48.17764" lon="7.0955">
        <ele>858.2</ele>
        <time>2021-08-05T08:54:34Z</time>
      </trkpt>
      <trkpt lat="48.17764" lon="7.09541">
        <ele>857.9</ele>
        <time>2021-08-05T08:54:35Z</time>
      </trkpt>
      <trkpt lat="48.17764" lon="7.09524">
        <ele>857.2</ele>
        <time>2021-08-05T08:54:37Z</time>
      </trkpt>
      <trkpt lat="48.17765" lon="7.09516">
        <ele>856.8</ele>
        <time>2021-08-05T08:54:38Z</time>
      </trkpt>
      <trkpt lat="48.17765" lon="7.09508">
        <ele>856.4</ele>
        <time>2021-08-05T08:54:39Z</time>
      </trkpt>
      <trkpt lat="48.17765" lon="7.09491">
        <ele>855.7</ele>
        <time>2021-08-05T08:54:41Z</time>
      </trkpt>
      <trkpt lat="48.17762" lon="7.09476">
        <ele>855.2</ele>
        <time>2021-08-05T08:54:43Z</time>
      </trkpt>
      <trkpt lat="48.17755" lon="7.09464">
        <ele>854.8</ele>
        <time>2021-08-05T08:54:44Z</time>
      </trkpt>
      <trkpt lat="48.17753" lon="7.09457">
        <ele>854.6</ele>
        <time>2021-08-05T08:54:45Z</time>
      </trkpt>
      <trkpt lat="48.17747" lon="7.09447">
        <ele>854.3</ele>
        <time>2021-08-05T08:54:47Z</time>
      </trkpt>
      <trkpt lat="48.17745" lon="7.09443">
        <ele>854.2</ele>
        <time>2021-08-05T08:54:48Z</time>
      </trkpt>
      <trkpt lat="48.17745" lon="7.09442">
        <ele>854.1</ele>
        <time>2021-08-05T08:54:49Z</time>
      </trkpt>
      <trkpt lat="48.17742" lon="7.0944">
        <ele>854</ele>
        <time>2021-08-05T08:55:00Z</time>
      </trkpt>
      <trkpt lat="48.17274" lon="7.09425">
        <ele>823.4</ele>
        <time>2021-08-05T08:56:08Z</time>
      </trkpt>
      <trkpt lat="48.17258" lon="7.09434">
        <ele>823.3</ele>
        <time>2021-08-05T08:56:10Z</time>
      </trkpt>
      <trkpt lat="48.17248" lon="7.0944">
        <ele>823.1</ele>
        <time>2021-08-05T08:56:11Z</time>
      </trkpt>
      <trkpt lat="48.17241" lon="7.09446">
        <ele>823</ele>
        <time>2021-08-05T08:56:12Z</time>
      </trkpt>
      <trkpt lat="48.17228" lon="7.09454">
        <ele>822.8</ele>
        <time>2021-08-05T08:56:14Z</time>
      </trkpt>
      <trkpt lat="48.17222" lon="7.09459">
        <ele>822.6</ele>
        <time>2021-08-05T08:56:15Z</time>
      </trkpt>
      <trkpt lat="48.17211" lon="7.09469">
        <ele>822.1</ele>
        <time>2021-08-05T08:56:17Z</time>
      </trkpt>
      <trkpt lat="48.17205" lon="7.09473">
        <ele>821.7</ele>
        <time>2021-08-05T08:56:18Z</time>
      </trkpt>
      <trkpt lat="48.17199" lon="7.09476">
        <ele>821.2</ele>
        <time>2021-08-05T08:56:19Z</time>
      </trkpt>
      <trkpt lat="48.17187" lon="7.09481">
        <ele>820.2</ele>
        <time>2021-08-05T08:56:21Z</time>
      </trkpt>
      <trkpt lat="48.17181" lon="7.09483">
        <ele>819.7</ele>
        <time>2021-08-05T08:56:22Z</time>
      </trkpt>
      <trkpt lat="48.17171" lon="7.09488">
        <ele>818.8</ele>
        <time>2021-08-05T08:56:24Z</time>
      </trkpt>
      <trkpt lat="48.1717" lon="7.0949">
        <ele>818.7</ele>
        <time>2021-08-05T08:56:25Z</time>
      </trkpt>
      <trkpt lat="48.17168" lon="7.09495">
        <ele>818.3</ele>
        <time>2021-08-05T08:56:27Z</time>
      </trkpt>
      <trkpt lat="48.17167" lon="7.095">
        <ele>818</ele>
        <time>2021-08-05T08:56:29Z</time>
      </trkpt>
      <trkpt lat="48.17185" lon="7.09905">
        <ele>810.7</ele>
        <time>2021-08-05T08:57:29Z</time>
      </trkpt>
      <trkpt lat="48.17184" lon="7.09909">
        <ele>810.2</ele>
        <time>2021-08-05T08:57:30Z</time>
      </trkpt>
      <trkpt lat="48.17184" lon="7.09913">
        <ele>809.7</ele>
        <time>2021-08-05T08:57:32Z</time>
      </trkpt>
      <trkpt lat="48.17185" lon="7.09916">
        <ele>809.2</ele>
        <time>2021-08-05T08:57:33Z</time>
      </trkpt>
      <trkpt lat="48.17191" lon="7.09918">
        <ele>807.9</ele>
        <time>2021-08-05T08:57:35Z</time>
      </trkpt>
      <trkpt lat="48.17193" lon="7.09915">
        <ele>807.3</ele>
        <time>2021-08-05T08:57:37Z</time>
      </trkpt>
      <trkpt lat="48.17194" lon="7.09912">
        <ele>806.9</ele>
        <time>2021-08-05T08:57:38Z</time>
      </trkpt>
      <trkpt lat="48.17193" lon="7.09907">
        <ele>806.1</ele>
        <time>2021-08-05T08:57:40Z</time>
      </trkpt>
      <trkpt lat="48.17193" lon="7.09904">
        <ele>805.8</ele>
        <time>2021-08-05T08:57:41Z</time>
      </trkpt>
      <trkpt lat="48.17192" lon="7.09903">
        <ele>805.6</ele>
        <time>2021-08-05T08:57:43Z</time>
      </trkpt>
      <trkpt lat="48.17192" lon="7.09903">
        <ele>805.4</ele>
        <time>2021-08-05T08:57:44Z</time>
      </trkpt>
      <trkpt lat="48.17191" lon="7.09901">
        <ele>805.2</ele>
        <time>2021-08-05T08:57:46Z</time>
      </trkpt>
      <trkpt lat="48.17191" lon="7.09901">
        <ele>805.1</ele>
        <time>2021-08-05T08:57:48Z</time>
      </trkpt>
      <trkpt lat="48.17191" lon="7.099">
        <ele>805.1</ele>
        <time>2021-08-05T08:57:49Z</time>
      </trkpt>
      <trkpt lat="48.1719" lon="7.099">
        <ele>805</ele>
        <time>2021-08-05T08:57:51Z</time>
      </trkpt>
      <trkpt lat="48.17192" lon="7.09904">
        <ele>804.2</ele>
        <time>2021-08-05T08:58:02Z</time>
      </trkpt>
      <trkpt lat="48.17192" lon="7.09912">
        <ele>803.2</ele>
        <time>2021-08-05T08:58:04Z</time>
      </trkpt>
      <trkpt lat="48.17192" lon="7.0992">
        <ele>802.1</ele>
        <time>2021-08-05T08:58:05Z</time>
      </trkpt>
      <trkpt lat="48.17191" lon="7.0993">
        <ele>800.7</ele>
        <time>2021-08-05T08:58:06Z</time>
      </trkpt>
      <trkpt lat="48.17191" lon="7.09939">
        <ele>799.5</ele>
        <time>2021-08-05T08:58:08Z</time>
      </trkpt>
      <trkpt lat="48.17192" lon="7.09945">
        <ele>799.8</ele>
        <time>2021-08-05T08:58:09Z</time>
      </trkpt>
      <trkpt lat="48.17192" lon="7.09953">
        <ele>800.3</ele>
        <time>2021-08-05T08:58:11Z</time>
      </trkpt>
      <trkpt lat="48.17191" lon="7.09959">
        <ele>800.6</ele>
        <time>2021-08-05T08:58:12Z</time>
      </trkpt>
      <trkpt lat="48.1719" lon="7.09967">
        <ele>801</ele>
        <time>2021-08-05T08:58:14Z</time>
      </trkpt>
      <trkpt lat="48.17191" lon="7.09973">
        <ele>801.4</ele>
        <time>2021-08-05T08:58:15Z</time>
      </trkpt>
      <trkpt lat="48.17191" lon="7.09978">
        <ele>801.7</ele>
        <time>2021-08-05T08:58:16Z</time>
      </trkpt>
      <trkpt lat="48.17192" lon="7.09983">
        <ele>802</ele>
        <time>2021-08-05T08:58:17Z</time>
      </trkpt>
      <trkpt lat="48.17191" lon="7.09995">
        <ele>802.8</ele>
        <time>2021-08-05T08:58:19Z</time>
      </trkpt>
      <trkpt lat="48.1719" lon="7.10004">
        <ele>803.4</ele>
        <time>2021-08-05T08:58:21Z</time>
      </trkpt>
      <trkpt lat="48.1719" lon="7.10013">
        <ele>803.9</ele>
        <time>2021-08-05T08:58:22Z</time>
      </trkpt>
      <trkpt lat="48.17191" lon="7.10018">
        <ele>804.2</ele>
        <time>2021-08-05T08:58:23Z</time>
      </trkpt>
      <trkpt lat="48.17191" lon="7.10027">
        <ele>804.8</ele>
        <time>2021-08-05T08:58:25Z</time>
      </trkpt>
      <trkpt lat="48.17192" lon="7.10034">
        <ele>805.3</ele>
        <time>2021-08-05T08:58:26Z</time>
      </trkpt>
      <trkpt lat="48.17192" lon="7.1004">
        <ele>805.7</ele>
        <time>2021-08-05T08:58:27Z</time>
      </trkpt>
      <trkpt lat="48.17194" lon="7.10053">
        <ele>806.6</ele>
        <time>2021-08-05T08:58:29Z</time>
      </trkpt>
      <trkpt lat="48.17196" lon="7.10059">
        <ele>807.1</ele>
        <time>2021-08-05T08:58:30Z</time>
      </trkpt>
      <trkpt lat="48.172" lon="7.10067">
        <ele>807.7</ele>
        <time>2021-08-05T08:58:32Z</time>
      </trkpt>
      <trkpt lat="48.17204" lon="7.1007">
        <ele>808.2</ele>
        <time>2021-08-05T08:58:33Z</time>
      </trkpt>
      <trkpt lat="48.17206" lon="7.10072">
        <ele>808.4</ele>
        <time>2021-08-05T08:58:34Z</time>
      </trkpt>
      <trkpt lat="48.17208" lon="7.10077">
        <ele>808.8</ele>
        <time>2021-08-05T08:58:35Z</time>
      </trkpt>
      <trkpt lat="48.17209" lon="7.10083">
        <ele>809.3</ele>
        <time>2021-08-05T08:58:36Z</time>
      </trkpt>
      <trkpt lat="48.1721" lon="7.10089">
        <ele>809.4</ele>
        <time>2021-08-05T08:58:37Z</time>
      </trkpt>
      <trkpt lat="48.17213" lon="7.10098">
        <ele>809.4</ele>
        <time>2021-08-05T08:58:39Z</time>
      </trkpt>
      <trkpt lat="48.17213" lon="7.101">
        <ele>809.4</ele>
        <time>2021-08-05T08:58:40Z</time>
      </trkpt>
      <trkpt lat="48.17212" lon="7.10103">
        <ele>809.4</ele>
        <time>2021-08-05T08:58:42Z</time>
      </trkpt>
      <trkpt lat="48.17211" lon="7.10106">
        <ele>809.4</ele>
        <time>2021-08-05T08:58:43Z</time>
      </trkpt>
      <trkpt lat="48.1721" lon="7.10107">
        <ele>809.4</ele>
        <time>2021-08-05T08:58:44Z</time>
      </trkpt>
      <trkpt lat="48.1721" lon="7.10104">
        <ele>809.4</ele>
        <time>2021-08-05T08:58:45Z</time>
      </trkpt>
      <trkpt lat="48.1721" lon="7.101">
        <ele>809.4</ele>
        <time>2021-08-05T08:58:47Z</time>
      </trkpt>
      <trkpt lat="48.1721" lon="7.10097">
        <ele>809.4</ele>
        <time>2021-08-05T08:58:48Z</time>
      </trkpt>
      <trkpt lat="48.1721" lon="7.10094">
        <ele>809.4</ele>
        <time>2021-08-05T08:58:49Z</time>
      </trkpt>
      <trkpt lat="48.17209" lon="7.10091">
        <ele>809.4</ele>
        <time>2021-08-05T08:58:51Z</time>
      </trkpt>
      <trkpt lat="48.17209" lon="7.10088">
        <ele>809.4</ele>
        <time>2021-08-05T08:58:52Z</time>
      </trkpt>
      <trkpt lat="48.17209" lon="7.10085">
        <ele>809.4</ele>
        <time>2021-08-05T08:58:53Z</time>
      </trkpt>
      <trkpt lat="48.17209" lon="7.10081">
        <ele>809.2</ele>
        <time>2021-08-05T08:59:43Z</time>
      </trkpt>
      <trkpt lat="48.17208" lon="7.10078">
        <ele>808.9</ele>
        <time>2021-08-05T08:59:44Z</time>
      </trkpt>
      <trkpt lat="48.17206" lon="7.10069">
        <ele>808.3</ele>
        <time>2021-08-05T08:59:46Z</time>
      </trkpt>
      <trkpt lat="48.17202" lon="7.10055">
        <ele>807.2</ele>
        <time>2021-08-05T08:59:48Z</time>
      </trkpt>
      <trkpt lat="48.17199" lon="7.10045">
        <ele>806.5</ele>
        <time>2021-08-05T08:59:49Z</time>
      </trkpt>
      <trkpt lat="48.17195" lon="7.10034">
        <ele>805.6</ele>
        <time>2021-08-05T08:59:50Z</time>
      </trkpt>
      <trkpt lat="48.17193" lon="7.10024">
        <ele>804.9</ele>
        <time>2021-08-05T08:59:51Z</time>
      </trkpt>
      <trkpt lat="48.17192" lon="7.10017">
        <ele>804.4</ele>
        <time>2021-08-05T08:59:52Z</time>
      </trkpt>
      <trkpt lat="48.17191" lon="7.10007">
        <ele>803.8</ele>
        <time>2021-08-05T08:59:54Z</time>
      </trkpt>
      <trkpt lat="48.17191" lon="7.09998">
        <ele>803.3</ele>
        <time>2021-08-05T08:59:55Z</time>
      </trkpt>
      <trkpt lat="48.17191" lon="7.09994">
        <ele>803</ele>
        <time>2021-08-05T08:59:56Z</time>
      </trkpt>
      <trkpt lat="48.17191" lon="7.09982">
        <ele>802.2</ele>
        <time>2021-08-05T08:59:58Z</time>
      </trkpt>
      <trkpt lat="48.17189" lon="7.09972">
        <ele>801.6</ele>
        <time>2021-08-05T09:00:00Z</time>
      </trkpt>
      <trkpt lat="48.17189" lon="7.09964">
        <ele>801.1</ele>
        <time>2021-08-05T09:00:01Z</time>
      </trkpt>
      <trkpt lat="48.17189" lon="7.0996">
        <ele>800.9</ele>
        <time>2021-08-05T09:00:03Z</time>
      </trkpt>
      <trkpt lat="48.17189" lon="7.09957">
        <ele>800.7</ele>
        <time>2021-08-05T09:00:04Z</time>
      </trkpt>
      <trkpt lat="48.17188" lon="7.09953">
        <ele>800.5</ele>
        <time>2021-08-05T09:00:06Z</time>
      </trkpt>
      <trkpt lat="48.17186" lon="7.0995">
        <ele>800.2</ele>
        <time>2021-08-05T09:00:07Z</time>
      </trkpt>
      <trkpt lat="48.17186" lon="7.09949">
        <ele>800.2</ele>
        <time>2021-08-05T09:00:08Z</time>
      </trkpt>
      <trkpt lat="48.17179" lon="7.09942">
        <ele>799.6</ele>
        <time>2021-08-05T09:00:09Z</time>
      </trkpt>
      <trkpt lat="48.17173" lon="7.09936">
        <ele>800.6</ele>
        <time>2021-08-05T09:00:10Z</time>
      </trkpt>
      <trkpt lat="48.1717" lon="7.09931">
        <ele>802.8</ele>
        <time>2021-08-05T09:00:11Z</time>
      </trkpt>
      <trkpt lat="48.1717" lon="7.09908">
        <ele>811.4</ele>
        <time>2021-08-05T09:00:17Z</time>
      </trkpt>
      <trkpt lat="48.17168" lon="7.09898">
        <ele>815.1</ele>
        <time>2021-08-05T09:00:18Z</time>
      </trkpt>
      <trkpt lat="48.17164" lon="7.09885">
        <ele>815.9</ele>
        <time>2021-08-05T09:00:20Z</time>
      </trkpt>
      <trkpt lat="48.17164" lon="7.09876">
        <ele>816.1</ele>
        <time>2021-08-05T09:00:21Z</time>
      </trkpt>
      <trkpt lat="48.17165" lon="7.09869">
        <ele>816.3</ele>
        <time>2021-08-05T09:00:22Z</time>
      </trkpt>
      <trkpt lat="48.17166" lon="7.09865">
        <ele>816.5</ele>
        <time>2021-08-05T09:00:23Z</time>
      </trkpt>
      <trkpt lat="48.17167" lon="7.0986">
        <ele>816.7</ele>
        <time>2021-08-05T09:00:24Z</time>
      </trkpt>
      <trkpt lat="48.17169" lon="7.09852">
        <ele>817</ele>
        <time>2021-08-05T09:00:26Z</time>
      </trkpt>
      <trkpt lat="48.1717" lon="7.09846">
        <ele>817.2</ele>
        <time>2021-08-05T09:00:27Z</time>
      </trkpt>
      <trkpt lat="48.17172" lon="7.09839">
        <ele>817.5</ele>
        <time>2021-08-05T09:00:28Z</time>
      </trkpt>
      <trkpt lat="48.17172" lon="7.09833">
        <ele>817.8</ele>
        <time>2021-08-05T09:00:30Z</time>
      </trkpt>
      <trkpt lat="48.17172" lon="7.09827">
        <ele>818.1</ele>
        <time>2021-08-05T09:00:31Z</time>
      </trkpt>
      <trkpt lat="48.17172" lon="7.09825">
        <ele>818.2</ele>
        <time>2021-08-05T09:00:32Z</time>
      </trkpt>
      <trkpt lat="48.17171" lon="7.09822">
        <ele>818.3</ele>
        <time>2021-08-05T09:00:33Z</time>
      </trkpt>
      <trkpt lat="48.1717" lon="7.09816">
        <ele>818.6</ele>
        <time>2021-08-05T09:00:35Z</time>
      </trkpt>
      <trkpt lat="48.1717" lon="7.09811">
        <ele>818.9</ele>
        <time>2021-08-05T09:00:36Z</time>
      </trkpt>
      <trkpt lat="48.1717" lon="7.0981">
        <ele>819</ele>
        <time>2021-08-05T09:00:37Z</time>
      </trkpt>
      <trkpt lat="48.1717" lon="7.09805">
        <ele>819.2</ele>
        <time>2021-08-05T09:00:38Z</time>
      </trkpt>
      <trkpt lat="48.1717" lon="7.09804">
        <ele>819.3</ele>
        <time>2021-08-05T09:00:39Z</time>
      </trkpt>
      <trkpt lat="48.17171" lon="7.09798">
        <ele>819.7</ele>
        <time>2021-08-05T09:00:41Z</time>
      </trkpt>
      <trkpt lat="48.17171" lon="7.09796">
        <ele>819.8</ele>
        <time>2021-08-05T09:00:42Z</time>
      </trkpt>
      <trkpt lat="48.17172" lon="7.09794">
        <ele>820</ele>
        <time>2021-08-05T09:00:43Z</time>
      </trkpt>
      <trkpt lat="48.17171" lon="7.09791">
        <ele>820.2</ele>
        <time>2021-08-05T09:00:44Z</time>
      </trkpt>
      <trkpt lat="48.17171" lon="7.09789">
        <ele>820.3</ele>
        <time>2021-08-05T09:00:45Z</time>
      </trkpt>
      <trkpt lat="48.1717" lon="7.09787">
        <ele>820.5</ele>
        <time>2021-08-05T09:00:47Z</time>
      </trkpt>
      <trkpt lat="48.17169" lon="7.09785">
        <ele>820.6</ele>
        <time>2021-08-05T09:00:48Z</time>
      </trkpt>
      <trkpt lat="48.17168" lon="7.09784">
        <ele>820.7</ele>
        <time>2021-08-05T09:00:49Z</time>
      </trkpt>
      <trkpt lat="48.17168" lon="7.09782">
        <ele>820.9</ele>
        <time>2021-08-05T09:00:50Z</time>
      </trkpt>
      <trkpt lat="48.17169" lon="7.09778">
        <ele>821.1</ele>
        <time>2021-08-05T09:00:52Z</time>
      </trkpt>
      <trkpt lat="48.17169" lon="7.09776">
        <ele>821.2</ele>
        <time>2021-08-05T09:00:53Z</time>
      </trkpt>
      <trkpt lat="48.17169" lon="7.09773">
        <ele>821.4</ele>
        <time>2021-08-05T09:00:54Z</time>
      </trkpt>
      <trkpt lat="48.17167" lon="7.09771">
        <ele>821.6</ele>
        <time>2021-08-05T09:00:56Z</time>
      </trkpt>
      <trkpt lat="48.17166" lon="7.0977">
        <ele>821.7</ele>
        <time>2021-08-05T09:00:57Z</time>
      </trkpt>
      <trkpt lat="48.17165" lon="7.09768">
        <ele>821.9</ele>
        <time>2021-08-05T09:00:58Z</time>
      </trkpt>
      <trkpt lat="48.17164" lon="7.09767">
        <ele>822.1</ele>
        <time>2021-08-05T09:01:00Z</time>
      </trkpt>
      <trkpt lat="48.17164" lon="7.09767">
        <ele>822.1</ele>
        <time>2021-08-05T09:01:01Z</time>
      </trkpt>
      <trkpt lat="48.17164" lon="7.09767">
        <ele>822.1</ele>
        <time>2021-08-05T09:01:02Z</time>
      </trkpt>
      <trkpt lat="48.17163" lon="7.09766">
        <ele>822.2</ele>
        <time>2021-08-05T09:01:03Z</time>
      </trkpt>
      <trkpt lat="48.17161" lon="7.09763">
        <ele>822.5</ele>
        <time>2021-08-05T09:01:04Z</time>
      </trkpt>
      <trkpt lat="48.17161" lon="7.09763">
        <ele>822.5</ele>
        <time>2021-08-05T09:01:06Z</time>
      </trkpt>
      <trkpt lat="48.1716" lon="7.0976">
        <ele>822.7</ele>
        <time>2021-08-05T09:01:07Z</time>
      </trkpt>
      <trkpt lat="48.17159" lon="7.09759">
        <ele>822.8</ele>
        <time>2021-08-05T09:01:08Z</time>
      </trkpt>
      <trkpt lat="48.17159" lon="7.09758">
        <ele>822.9</ele>
        <time>2021-08-05T09:01:09Z</time>
      </trkpt>
      <trkpt lat="48.17158" lon="7.09757">
        <ele>823</ele>
        <time>2021-08-05T09:01:11Z</time>
      </trkpt>
      <trkpt lat="48.17157" lon="7.09756">
        <ele>823.1</ele>
        <time>2021-08-05T09:01:12Z</time>
      </trkpt>
      <trkpt lat="48.17155" lon="7.09755">
        <ele>823.3</ele>
        <time>2021-08-05T09:01:13Z</time>
      </trkpt>
      <trkpt lat="48.17152" lon="7.09753">
        <ele>823.7</ele>
        <time>2021-08-05T09:01:15Z</time>
      </trkpt>
      <trkpt lat="48.17148" lon="7.09751">
        <ele>824</ele>
        <time>2021-08-05T09:01:17Z</time>
      </trkpt>
      <trkpt lat="48.17146" lon="7.09748">
        <ele>824.3</ele>
        <time>2021-08-05T09:01:18Z</time>
      </trkpt>
      <trkpt lat="48.17144" lon="7.09744">
        <ele>824.6</ele>
        <time>2021-08-05T09:01:19Z</time>
      </trkpt>
      <trkpt lat="48.1714" lon="7.09741">
        <ele>825</ele>
        <time>2021-08-05T09:01:20Z</time>
      </trkpt>
      <trkpt lat="48.17139" lon="7.09738">
        <ele>825.3</ele>
        <time>2021-08-05T09:01:21Z</time>
      </trkpt>
      <trkpt lat="48.17139" lon="7.09733">
        <ele>825.6</ele>
        <time>2021-08-05T09:01:23Z</time>
      </trkpt>
      <trkpt lat="48.17138" lon="7.0973">
        <ele>825.8</ele>
        <time>2021-08-05T09:01:25Z</time>
      </trkpt>
      <trkpt lat="48.17138" lon="7.09728">
        <ele>825.9</ele>
        <time>2021-08-05T09:01:26Z</time>
      </trkpt>
      <trkpt lat="48.17139" lon="7.09725">
        <ele>826.1</ele>
        <time>2021-08-05T09:01:27Z</time>
      </trkpt>
      <trkpt lat="48.17139" lon="7.09723">
        <ele>826.3</ele>
        <time>2021-08-05T09:01:28Z</time>
      </trkpt>
      <trkpt lat="48.17139" lon="7.09719">
        <ele>826.6</ele>
        <time>2021-08-05T09:01:29Z</time>
      </trkpt>
      <trkpt lat="48.17139" lon="7.09717">
        <ele>826.7</ele>
        <time>2021-08-05T09:01:30Z</time>
      </trkpt>
      <trkpt lat="48.17139" lon="7.09715">
        <ele>826.9</ele>
        <time>2021-08-05T09:01:31Z</time>
      </trkpt>
      <trkpt lat="48.17139" lon="7.09715">
        <ele>826.9</ele>
        <time>2021-08-05T09:01:32Z</time>
      </trkpt>
      <trkpt lat="48.17139" lon="7.09716">
        <ele>827</ele>
        <time>2021-08-05T09:01:33Z</time>
      </trkpt>
      <trkpt lat="48.17138" lon="7.09715">
        <ele>827</ele>
        <time>2021-08-05T09:01:34Z</time>
      </trkpt>
      <trkpt lat="48.17138" lon="7.09714">
        <ele>827.1</ele>
        <time>2021-08-05T09:01:36Z</time>
      </trkpt>
      <trkpt lat="48.17138" lon="7.09713">
        <ele>827.3</ele>
        <time>2021-08-05T09:01:37Z</time>
      </trkpt>
      <trkpt lat="48.17137" lon="7.09711">
        <ele>827.4</ele>
        <time>2021-08-05T09:01:38Z</time>
      </trkpt>
      <trkpt lat="48.17136" lon="7.09708">
        <ele>827.7</ele>
        <time>2021-08-05T09:01:39Z</time>
      </trkpt>
      <trkpt lat="48.17135" lon="7.09706">
        <ele>827.8</ele>
        <time>2021-08-05T09:01:40Z</time>
      </trkpt>
      <trkpt lat="48.17135" lon="7.09704">
        <ele>828</ele>
        <time>2021-08-05T09:01:42Z</time>
      </trkpt>
      <trkpt lat="48.17135" lon="7.09703">
        <ele>828.2</ele>
        <time>2021-08-05T09:01:43Z</time>
      </trkpt>
      <trkpt lat="48.17136" lon="7.09701">
        <ele>828.3</ele>
        <time>2021-08-05T09:01:44Z</time>
      </trkpt>
      <trkpt lat="48.17136" lon="7.097">
        <ele>828.4</ele>
        <time>2021-08-05T09:01:45Z</time>
      </trkpt>
      <trkpt lat="48.17137" lon="7.09698">
        <ele>828.7</ele>
        <time>2021-08-05T09:01:47Z</time>
      </trkpt>
      <trkpt lat="48.17138" lon="7.09695">
        <ele>828.9</ele>
        <time>2021-08-05T09:01:48Z</time>
      </trkpt>
      <trkpt lat="48.1714" lon="7.09691">
        <ele>829.3</ele>
        <time>2021-08-05T09:01:50Z</time>
      </trkpt>
      <trkpt lat="48.17142" lon="7.0968">
        <ele>830.3</ele>
        <time>2021-08-05T09:01:56Z</time>
      </trkpt>
      <trkpt lat="48.17139" lon="7.09677">
        <ele>830.6</ele>
        <time>2021-08-05T09:01:57Z</time>
      </trkpt>
      <trkpt lat="48.17139" lon="7.09676">
        <ele>830.7</ele>
        <time>2021-08-05T09:01:58Z</time>
      </trkpt>
      <trkpt lat="48.17137" lon="7.09673">
        <ele>831.1</ele>
        <time>2021-08-05T09:01:59Z</time>
      </trkpt>
      <trkpt lat="48.17136" lon="7.09672">
        <ele>831.2</ele>
        <time>2021-08-05T09:02:00Z</time>
      </trkpt>
      <trkpt lat="48.17134" lon="7.09669">
        <ele>831.5</ele>
        <time>2021-08-05T09:02:01Z</time>
      </trkpt>
      <trkpt lat="48.1713" lon="7.09666">
        <ele>832.1</ele>
        <time>2021-08-05T09:02:03Z</time>
      </trkpt>
      <trkpt lat="48.17128" lon="7.09664">
        <ele>832.3</ele>
        <time>2021-08-05T09:02:04Z</time>
      </trkpt>
      <trkpt lat="48.17126" lon="7.09662">
        <ele>832.5</ele>
        <time>2021-08-05T09:02:05Z</time>
      </trkpt>
      <trkpt lat="48.17122" lon="7.09659">
        <ele>833</ele>
        <time>2021-08-05T09:02:07Z</time>
      </trkpt>
      <trkpt lat="48.1712" lon="7.09656">
        <ele>833.3</ele>
        <time>2021-08-05T09:02:09Z</time>
      </trkpt>
      <trkpt lat="48.1712" lon="7.09655">
        <ele>833.4</ele>
        <time>2021-08-05T09:02:10Z</time>
      </trkpt>
      <trkpt lat="48.17118" lon="7.09655">
        <ele>833.5</ele>
        <time>2021-08-05T09:02:11Z</time>
      </trkpt>
      <trkpt lat="48.17112" lon="7.09654">
        <ele>834.1</ele>
        <time>2021-08-05T09:02:13Z</time>
      </trkpt>
      <trkpt lat="48.17111" lon="7.09654">
        <ele>834.2</ele>
        <time>2021-08-05T09:02:14Z</time>
      </trkpt>
      <trkpt lat="48.1711" lon="7.09653">
        <ele>834.2</ele>
        <time>2021-08-05T09:02:16Z</time>
      </trkpt>
      <trkpt lat="48.17109" lon="7.09653">
        <ele>834.3</ele>
        <time>2021-08-05T09:02:17Z</time>
      </trkpt>
      <trkpt lat="48.17108" lon="7.09653">
        <ele>834.4</ele>
        <time>2021-08-05T09:02:18Z</time>
      </trkpt>
      <trkpt lat="48.17106" lon="7.09652">
        <ele>834.5</ele>
        <time>2021-08-05T09:02:20Z</time>
      </trkpt>
      <trkpt lat="48.16999" lon="7.09528">
        <ele>843</ele>
        <time>2021-08-05T09:04:06Z</time>
      </trkpt>
      <trkpt lat="48.16998" lon="7.09522">
        <ele>843</ele>
        <time>2021-08-05T09:04:08Z</time>
      </trkpt>
      <trkpt lat="48.16998" lon="7.09517">
        <ele>843</ele>
        <time>2021-08-05T09:04:09Z</time>
      </trkpt>
      <trkpt lat="48.16998" lon="7.09509">
        <ele>843</ele>
        <time>2021-08-05T09:04:11Z</time>
      </trkpt>
      <trkpt lat="48.16998" lon="7.09505">
        <ele>842.9</ele>
        <time>2021-08-05T09:04:12Z</time>
      </trkpt>
      <trkpt lat="48.16995" lon="7.09497">
        <ele>842.9</ele>
        <time>2021-08-05T09:04:14Z</time>
      </trkpt>
      <trkpt lat="48.16994" lon="7.09491">
        <ele>843.1</ele>
        <time>2021-08-05T09:04:16Z</time>
      </trkpt>
      <trkpt lat="48.16993" lon="7.09486">
        <ele>843.2</ele>
        <time>2021-08-05T09:04:17Z</time>
      </trkpt>
      <trkpt lat="48.16993" lon="7.09481">
        <ele>843.4</ele>
        <time>2021-08-05T09:04:19Z</time>
      </trkpt>
      <trkpt lat="48.16993" lon="7.09478">
        <ele>843.5</ele>
        <time>2021-08-05T09:04:20Z</time>
      </trkpt>
      <trkpt lat="48.16995" lon="7.09473">
        <ele>843.7</ele>
        <time>2021-08-05T09:04:22Z</time>
      </trkpt>
      <trkpt lat="48.16996" lon="7.0947">
        <ele>843.8</ele>
        <time>2021-08-05T09:04:23Z</time>
      </trkpt>
      <trkpt lat="48.16997" lon="7.09467">
        <ele>843.9</ele>
        <time>2021-08-05T09:04:25Z</time>
      </trkpt>
      <trkpt lat="48.16999" lon="7.09462">
        <ele>844.1</ele>
        <time>2021-08-05T09:04:26Z</time>
      </trkpt>
      <trkpt lat="48.16999" lon="7.0946">
        <ele>844.1</ele>
        <time>2021-08-05T09:04:27Z</time>
      </trkpt>
      <trkpt lat="48.17" lon="7.09455">
        <ele>844.3</ele>
        <time>2021-08-05T09:04:28Z</time>
      </trkpt>
      <trkpt lat="48.17001" lon="7.09453">
        <ele>844.4</ele>
        <time>2021-08-05T09:04:29Z</time>
      </trkpt>
      <trkpt lat="48.17001" lon="7.09449">
        <ele>844.5</ele>
        <time>2021-08-05T09:04:30Z</time>
      </trkpt>
      <trkpt lat="48.17002" lon="7.09445">
        <ele>844.7</ele>
        <time>2021-08-05T09:04:32Z</time>
      </trkpt>
      <trkpt lat="48.17002" lon="7.09441">
        <ele>844.8</ele>
        <time>2021-08-05T09:04:33Z</time>
      </trkpt>
      <trkpt lat="48.17002" lon="7.09433">
        <ele>845.1</ele>
        <time>2021-08-05T09:04:35Z</time>
      </trkpt>
      <trkpt lat="48.17002" lon="7.09431">
        <ele>845.2</ele>
        <time>2021-08-05T09:04:36Z</time>
      </trkpt>
      <trkpt lat="48.17003" lon="7.09428">
        <ele>845.3</ele>
        <time>2021-08-05T09:04:37Z</time>
      </trkpt>
      <trkpt lat="48.17003" lon="7.09423">
        <ele>845.5</ele>
        <time>2021-08-05T09:04:38Z</time>
      </trkpt>
      <trkpt lat="48.17003" lon="7.09421">
        <ele>845.5</ele>
        <time>2021-08-05T09:04:39Z</time>
      </trkpt>
      <trkpt lat="48.17002" lon="7.09416">
        <ele>845.8</ele>
        <time>2021-08-05T09:04:41Z</time>
      </trkpt>
      <trkpt lat="48.17001" lon="7.09411">
        <ele>846</ele>
        <time>2021-08-05T09:04:42Z</time>
      </trkpt>
      <trkpt lat="48.17001" lon="7.09409">
        <ele>846</ele>
        <time>2021-08-05T09:04:43Z</time>
      </trkpt>
      <trkpt lat="48.17001" lon="7.09406">
        <ele>846.2</ele>
        <time>2021-08-05T09:04:44Z</time>
      </trkpt>
      <trkpt lat="48.17001" lon="7.09402">
        <ele>846.3</ele>
        <time>2021-08-05T09:04:46Z</time>
      </trkpt>
      <trkpt lat="48.17001" lon="7.09397">
        <ele>846.6</ele>
        <time>2021-08-05T09:04:47Z</time>
      </trkpt>
      <trkpt lat="48.17001" lon="7.09395">
        <ele>846.6</ele>
        <time>2021-08-05T09:04:48Z</time>
      </trkpt>
      <trkpt lat="48.17" lon="7.09391">
        <ele>846.9</ele>
        <time>2021-08-05T09:04:49Z</time>
      </trkpt>
      <trkpt lat="48.17" lon="7.0939">
        <ele>846.9</ele>
        <time>2021-08-05T09:04:50Z</time>
      </trkpt>
      <trkpt lat="48.16999" lon="7.09385">
        <ele>847.2</ele>
        <time>2021-08-05T09:04:52Z</time>
      </trkpt>
      <trkpt lat="48.16998" lon="7.09384">
        <ele>847.2</ele>
        <time>2021-08-05T09:04:53Z</time>
      </trkpt>
      <trkpt lat="48.16998" lon="7.09381">
        <ele>847.4</ele>
        <time>2021-08-05T09:04:54Z</time>
      </trkpt>
      <trkpt lat="48.16998" lon="7.09379">
        <ele>847.5</ele>
        <time>2021-08-05T09:04:55Z</time>
      </trkpt>
      <trkpt lat="48.16998" lon="7.09375">
        <ele>847.7</ele>
        <time>2021-08-05T09:04:56Z</time>
      </trkpt>
      <trkpt lat="48.16997" lon="7.09371">
        <ele>847.9</ele>
        <time>2021-08-05T09:04:58Z</time>
      </trkpt>
      <trkpt lat="48.16996" lon="7.09366">
        <ele>848.3</ele>
        <time>2021-08-05T09:05:00Z</time>
      </trkpt>
      <trkpt lat="48.16995" lon="7.09364">
        <ele>848.4</ele>
        <time>2021-08-05T09:05:01Z</time>
      </trkpt>
      <trkpt lat="48.16994" lon="7.09362">
        <ele>848.5</ele>
        <time>2021-08-05T09:05:02Z</time>
      </trkpt>
      <trkpt lat="48.16994" lon="7.0936">
        <ele>848.7</ele>
        <time>2021-08-05T09:05:03Z</time>
      </trkpt>
      <trkpt lat="48.16993" lon="7.09358">
        <ele>848.8</ele>
        <time>2021-08-05T09:05:04Z</time>
      </trkpt>
      <trkpt lat="48.16993" lon="7.09357">
        <ele>848.9</ele>
        <time>2021-08-05T09:05:05Z</time>
      </trkpt>
      <trkpt lat="48.16993" lon="7.09355">
        <ele>849</ele>
        <time>2021-08-05T09:05:07Z</time>
      </trkpt>
      <trkpt lat="48.16994" lon="7.0935">
        <ele>849.3</ele>
        <time>2021-08-05T09:05:09Z</time>
      </trkpt>
      <trkpt lat="48.16994" lon="7.09347">
        <ele>849.5</ele>
        <time>2021-08-05T09:05:10Z</time>
      </trkpt>
      <trkpt lat="48.16994" lon="7.09345">
        <ele>849.6</ele>
        <time>2021-08-05T09:05:11Z</time>
      </trkpt>
      <trkpt lat="48.16994" lon="7.09343">
        <ele>849.7</ele>
        <time>2021-08-05T09:05:12Z</time>
      </trkpt>
      <trkpt lat="48.16994" lon="7.09343">
        <ele>849.8</ele>
        <time>2021-08-05T09:05:13Z</time>
      </trkpt>
      <trkpt lat="48.16994" lon="7.09343">
        <ele>849.8</ele>
        <time>2021-08-05T09:05:15Z</time>
      </trkpt>
      <trkpt lat="48.16994" lon="7.09342">
        <ele>849.8</ele>
        <time>2021-08-05T09:05:17Z</time>
      </trkpt>
      <trkpt lat="48.16994" lon="7.09341">
        <ele>849.9</ele>
        <time>2021-08-05T09:05:18Z</time>
      </trkpt>
      <trkpt lat="48.16993" lon="7.09339">
        <ele>850.1</ele>
        <time>2021-08-05T09:05:20Z</time>
      </trkpt>
      <trkpt lat="48.16992" lon="7.09339">
        <ele>850.1</ele>
        <time>2021-08-05T09:05:21Z</time>
      </trkpt>
      <trkpt lat="48.16992" lon="7.09338">
        <ele>850.2</ele>
        <time>2021-08-05T09:05:22Z</time>
      </trkpt>
      <trkpt lat="48.16989" lon="7.0933">
        <ele>850.8</ele>
        <time>2021-08-05T09:05:29Z</time>
      </trkpt>
      <trkpt lat="48.16988" lon="7.09328">
        <ele>851</ele>
        <time>2021-08-05T09:05:30Z</time>
      </trkpt>
      <trkpt lat="48.16987" lon="7.09327">
        <ele>851.1</ele>
        <time>2021-08-05T09:05:31Z</time>
      </trkpt>
      <trkpt lat="48.16985" lon="7.09328">
        <ele>851.3</ele>
        <time>2021-08-05T09:05:33Z</time>
      </trkpt>
      <trkpt lat="48.16984" lon="7.09327">
        <ele>851.4</ele>
        <time>2021-08-05T09:05:34Z</time>
      </trkpt>
      <trkpt lat="48.16983" lon="7.09326">
        <ele>851.5</ele>
        <time>2021-08-05T09:05:35Z</time>
      </trkpt>
      <trkpt lat="48.16983" lon="7.09322">
        <ele>851.7</ele>
        <time>2021-08-05T09:05:37Z</time>
      </trkpt>
      <trkpt lat="48.16983" lon="7.09318">
        <ele>852</ele>
        <time>2021-08-05T09:05:38Z</time>
      </trkpt>
      <trkpt lat="48.16982" lon="7.09317">
        <ele>852.1</ele>
        <time>2021-08-05T09:05:39Z</time>
      </trkpt>
      <trkpt lat="48.16982" lon="7.09314">
        <ele>852.2</ele>
        <time>2021-08-05T09:05:40Z</time>
      </trkpt>
      <trkpt lat="48.16981" lon="7.09312">
        <ele>852.4</ele>
        <time>2021-08-05T09:05:41Z</time>
      </trkpt>
      <trkpt lat="48.16981" lon="7.09308">
        <ele>852.6</ele>
        <time>2021-08-05T09:05:42Z</time>
      </trkpt>
      <trkpt lat="48.16979" lon="7.09301">
        <ele>853.1</ele>
        <time>2021-08-05T09:05:44Z</time>
      </trkpt>
      <trkpt lat="48.16978" lon="7.09297">
        <ele>853.4</ele>
        <time>2021-08-05T09:05:45Z</time>
      </trkpt>
      <trkpt lat="48.16975" lon="7.0929">
        <ele>854</ele>
        <time>2021-08-05T09:05:47Z</time>
      </trkpt>
      <trkpt lat="48.16974" lon="7.09285">
        <ele>854.2</ele>
        <time>2021-08-05T09:05:49Z</time>
      </trkpt>
      <trkpt lat="48.16973" lon="7.09283">
        <ele>854.4</ele>
        <time>2021-08-05T09:05:50Z</time>
      </trkpt>
      <trkpt lat="48.16977" lon="7.09279">
        <ele>854.8</ele>
        <time>2021-08-05T09:05:52Z</time>
      </trkpt>
      <trkpt lat="48.16981" lon="7.09278">
        <ele>855.2</ele>
        <time>2021-08-05T09:05:53Z</time>
      </trkpt>
      <trkpt lat="48.16983" lon="7.09277">
        <ele>855.5</ele>
        <time>2021-08-05T09:05:54Z</time>
      </trkpt>
      <trkpt lat="48.16986" lon="7.09276">
        <ele>855.7</ele>
        <time>2021-08-05T09:05:56Z</time>
      </trkpt>
      <trkpt lat="48.16986" lon="7.09275">
        <ele>855.8</ele>
        <time>2021-08-05T09:05:57Z</time>
      </trkpt>
      <trkpt lat="48.16987" lon="7.09273">
        <ele>855.9</ele>
        <time>2021-08-05T09:05:58Z</time>
      </trkpt>
      <trkpt lat="48.16986" lon="7.0927">
        <ele>856.1</ele>
        <time>2021-08-05T09:05:59Z</time>
      </trkpt>
      <trkpt lat="48.16985" lon="7.09267">
        <ele>856.3</ele>
        <time>2021-08-05T09:06:00Z</time>
      </trkpt>
      <trkpt lat="48.16985" lon="7.09266">
        <ele>856.4</ele>
        <time>2021-08-05T09:06:01Z</time>
      </trkpt>
      <trkpt lat="48.16984" lon="7.09265">
        <ele>856.5</ele>
        <time>2021-08-05T09:06:02Z</time>
      </trkpt>
      <trkpt lat="48.16983" lon="7.09263">
        <ele>856.6</ele>
        <time>2021-08-05T09:06:03Z</time>
      </trkpt>
      <trkpt lat="48.16983" lon="7.09262">
        <ele>856.7</ele>
        <time>2021-08-05T09:06:04Z</time>
      </trkpt>
      <trkpt lat="48.16982" lon="7.09261">
        <ele>856.8</ele>
        <time>2021-08-05T09:06:05Z</time>
      </trkpt>
      <trkpt lat="48.16981" lon="7.09262">
        <ele>856.9</ele>
        <time>2021-08-05T09:06:06Z</time>
      </trkpt>
      <trkpt lat="48.1698" lon="7.09262">
        <ele>857</ele>
        <time>2021-08-05T09:06:08Z</time>
      </trkpt>
      <trkpt lat="48.16979" lon="7.09261">
        <ele>857.1</ele>
        <time>2021-08-05T09:06:09Z</time>
      </trkpt>
      <trkpt lat="48.16978" lon="7.09261">
        <ele>857.1</ele>
        <time>2021-08-05T09:06:11Z</time>
      </trkpt>
      <trkpt lat="48.16978" lon="7.09261">
        <ele>857.2</ele>
        <time>2021-08-05T09:06:12Z</time>
      </trkpt>
      <trkpt lat="48.16973" lon="7.09261">
        <ele>857.6</ele>
        <time>2021-08-05T09:06:14Z</time>
      </trkpt>
      <trkpt lat="48.16969" lon="7.09262">
        <ele>858</ele>
        <time>2021-08-05T09:06:16Z</time>
      </trkpt>
      <trkpt lat="48.16967" lon="7.09263">
        <ele>858.2</ele>
        <time>2021-08-05T09:06:17Z</time>
      </trkpt>
      <trkpt lat="48.16965" lon="7.09263">
        <ele>858.5</ele>
        <time>2021-08-05T09:06:19Z</time>
      </trkpt>
      <trkpt lat="48.16965" lon="7.0926">
        <ele>858.6</ele>
        <time>2021-08-05T09:06:20Z</time>
      </trkpt>
      <trkpt lat="48.16965" lon="7.09254">
        <ele>859</ele>
        <time>2021-08-05T09:06:22Z</time>
      </trkpt>
      <trkpt lat="48.16966" lon="7.09251">
        <ele>859.2</ele>
        <time>2021-08-05T09:06:23Z</time>
      </trkpt>
      <trkpt lat="48.16966" lon="7.09247">
        <ele>859.5</ele>
        <time>2021-08-05T09:06:25Z</time>
      </trkpt>
      <trkpt lat="48.16965" lon="7.09243">
        <ele>859.9</ele>
        <time>2021-08-05T09:06:27Z</time>
      </trkpt>
      <trkpt lat="48.16964" lon="7.09241">
        <ele>860</ele>
        <time>2021-08-05T09:06:28Z</time>
      </trkpt>
      <trkpt lat="48.16964" lon="7.09239">
        <ele>860.1</ele>
        <time>2021-08-05T09:06:29Z</time>
      </trkpt>
      <trkpt lat="48.16965" lon="7.09238">
        <ele>860.3</ele>
        <time>2021-08-05T09:06:31Z</time>
      </trkpt>
      <trkpt lat="48.16965" lon="7.09237">
        <ele>860.4</ele>
        <time>2021-08-05T09:06:32Z</time>
      </trkpt>
      <trkpt lat="48.16965" lon="7.09236">
        <ele>860.4</ele>
        <time>2021-08-05T09:06:33Z</time>
      </trkpt>
      <trkpt lat="48.16965" lon="7.09236">
        <ele>860.5</ele>
        <time>2021-08-05T09:06:35Z</time>
      </trkpt>
      <trkpt lat="48.16965" lon="7.09235">
        <ele>860.5</ele>
        <time>2021-08-05T09:06:36Z</time>
      </trkpt>
      <trkpt lat="48.16964" lon="7.09234">
        <ele>860.6</ele>
        <time>2021-08-05T09:06:37Z</time>
      </trkpt>
      <trkpt lat="48.16963" lon="7.09233">
        <ele>860.7</ele>
        <time>2021-08-05T09:06:38Z</time>
      </trkpt>
      <trkpt lat="48.1696" lon="7.09225">
        <ele>861.5</ele>
        <time>2021-08-05T09:06:43Z</time>
      </trkpt>
      <trkpt lat="48.16959" lon="7.09222">
        <ele>861.8</ele>
        <time>2021-08-05T09:06:44Z</time>
      </trkpt>
      <trkpt lat="48.16957" lon="7.09216">
        <ele>862.6</ele>
        <time>2021-08-05T09:06:46Z</time>
      </trkpt>
      <trkpt lat="48.16956" lon="7.09212">
        <ele>863</ele>
        <time>2021-08-05T09:06:47Z</time>
      </trkpt>
      <trkpt lat="48.16955" lon="7.09211">
        <ele>863.1</ele>
        <time>2021-08-05T09:06:48Z</time>
      </trkpt>
      <trkpt lat="48.16954" lon="7.09206">
        <ele>863.5</ele>
        <time>2021-08-05T09:06:50Z</time>
      </trkpt>
      <trkpt lat="48.16953" lon="7.09203">
        <ele>863.9</ele>
        <time>2021-08-05T09:06:51Z</time>
      </trkpt>
      <trkpt lat="48.16952" lon="7.09199">
        <ele>864.2</ele>
        <time>2021-08-05T09:06:53Z</time>
      </trkpt>
      <trkpt lat="48.16951" lon="7.09198">
        <ele>864.4</ele>
        <time>2021-08-05T09:06:54Z</time>
      </trkpt>
      <trkpt lat="48.16951" lon="7.09197">
        <ele>864.5</ele>
        <time>2021-08-05T09:06:55Z</time>
      </trkpt>
      <trkpt lat="48.1695" lon="7.09197">
        <ele>864.6</ele>
        <time>2021-08-05T09:06:56Z</time>
      </trkpt>
      <trkpt lat="48.1695" lon="7.09197">
        <ele>864.7</ele>
        <time>2021-08-05T09:06:58Z</time>
      </trkpt>
      <trkpt lat="48.16949" lon="7.09197">
        <ele>864.7</ele>
        <time>2021-08-05T09:06:59Z</time>
      </trkpt>
      <trkpt lat="48.16948" lon="7.09199">
        <ele>865</ele>
        <time>2021-08-05T09:07:01Z</time>
      </trkpt>
      <trkpt lat="48.16947" lon="7.092">
        <ele>865.1</ele>
        <time>2021-08-05T09:07:03Z</time>
      </trkpt>
      <trkpt lat="48.16946" lon="7.092">
        <ele>865.2</ele>
        <time>2021-08-05T09:07:05Z</time>
      </trkpt>
      <trkpt lat="48.16946" lon="7.092">
        <ele>865.3</ele>
        <time>2021-08-05T09:07:06Z</time>
      </trkpt>
      <trkpt lat="48.16946" lon="7.092">
        <ele>865.3</ele>
        <time>2021-08-05T09:07:07Z</time>
      </trkpt>
      <trkpt lat="48.16946" lon="7.092">
        <ele>865.3</ele>
        <time>2021-08-05T09:07:08Z</time>
      </trkpt>
      <trkpt lat="48.16945" lon="7.092">
        <ele>865.4</ele>
        <time>2021-08-05T09:07:10Z</time>
      </trkpt>
      <trkpt lat="48.16945" lon="7.09199">
        <ele>865.4</ele>
        <time>2021-08-05T09:07:11Z</time>
      </trkpt>
      <trkpt lat="48.16945" lon="7.09199">
        <ele>865.5</ele>
        <time>2021-08-05T09:07:13Z</time>
      </trkpt>
      <trkpt lat="48.16944" lon="7.09198">
        <ele>865.6</ele>
        <time>2021-08-05T09:07:14Z</time>
      </trkpt>
      <trkpt lat="48.16944" lon="7.09197">
        <ele>865.7</ele>
        <time>2021-08-05T09:07:15Z</time>
      </trkpt>
      <trkpt lat="48.16858" lon="7.08921">
        <ele>893.1</ele>
        <time>2021-08-05T09:11:54Z</time>
      </trkpt>
      <trkpt lat="48.16857" lon="7.08918">
        <ele>893.4</ele>
        <time>2021-08-05T09:11:55Z</time>
      </trkpt>
      <trkpt lat="48.16856" lon="7.08917">
        <ele>893.5</ele>
        <time>2021-08-05T09:11:56Z</time>
      </trkpt>
      <trkpt lat="48.16856" lon="7.08916">
        <ele>893.6</ele>
        <time>2021-08-05T09:11:57Z</time>
      </trkpt>
      <trkpt lat="48.16855" lon="7.08912">
        <ele>894</ele>
        <time>2021-08-05T09:11:59Z</time>
      </trkpt>
      <trkpt lat="48.16855" lon="7.08911">
        <ele>894</ele>
        <time>2021-08-05T09:12:00Z</time>
      </trkpt>
      <trkpt lat="48.16855" lon="7.0891">
        <ele>894.1</ele>
        <time>2021-08-05T09:12:01Z</time>
      </trkpt>
      <trkpt lat="48.16854" lon="7.08908">
        <ele>894.3</ele>
        <time>2021-08-05T09:12:02Z</time>
      </trkpt>
      <trkpt lat="48.16853" lon="7.08904">
        <ele>894.6</ele>
        <time>2021-08-05T09:12:04Z</time>
      </trkpt>
      <trkpt lat="48.16852" lon="7.08901">
        <ele>894.8</ele>
        <time>2021-08-05T09:12:05Z</time>
      </trkpt>
      <trkpt lat="48.16852" lon="7.08899">
        <ele>895</ele>
        <time>2021-08-05T09:12:06Z</time>
      </trkpt>
      <trkpt lat="48.16852" lon="7.08897">
        <ele>895.1</ele>
        <time>2021-08-05T09:12:07Z</time>
      </trkpt>
      <trkpt lat="48.16851" lon="7.08896">
        <ele>895.2</ele>
        <time>2021-08-05T09:12:09Z</time>
      </trkpt>
      <trkpt lat="48.16851" lon="7.08896">
        <ele>895.2</ele>
        <time>2021-08-05T09:12:10Z</time>
      </trkpt>
      <trkpt lat="48.16851" lon="7.08896">
        <ele>895.3</ele>
        <time>2021-08-05T09:12:11Z</time>
      </trkpt>
      <trkpt lat="48.16851" lon="7.08895">
        <ele>895.3</ele>
        <time>2021-08-05T09:12:12Z</time>
      </trkpt>
      <trkpt lat="48.16851" lon="7.08895">
        <ele>895.3</ele>
        <time>2021-08-05T09:12:14Z</time>
      </trkpt>
      <trkpt lat="48.16851" lon="7.08894">
        <ele>895.4</ele>
        <time>2021-08-05T09:12:15Z</time>
      </trkpt>
      <trkpt lat="48.1685" lon="7.08893">
        <ele>895.5</ele>
        <time>2021-08-05T09:12:16Z</time>
      </trkpt>
      <trkpt lat="48.1685" lon="7.08892">
        <ele>895.6</ele>
        <time>2021-08-05T09:12:18Z</time>
      </trkpt>
      <trkpt lat="48.16803" lon="7.08724">
        <ele>908.5</ele>
        <time>2021-08-05T09:14:27Z</time>
      </trkpt>
      <trkpt lat="48.16804" lon="7.08719">
        <ele>908.8</ele>
        <time>2021-08-05T09:14:29Z</time>
      </trkpt>
      <trkpt lat="48.16804" lon="7.08714">
        <ele>909.1</ele>
        <time>2021-08-05T09:14:30Z</time>
      </trkpt>
      <trkpt lat="48.16806" lon="7.08709">
        <ele>909.3</ele>
        <time>2021-08-05T09:14:31Z</time>
      </trkpt>
      <trkpt lat="48.16807" lon="7.08707">
        <ele>909.4</ele>
        <time>2021-08-05T09:14:32Z</time>
      </trkpt>
      <trkpt lat="48.16809" lon="7.08701">
        <ele>909.8</ele>
        <time>2021-08-05T09:14:34Z</time>
      </trkpt>
      <trkpt lat="48.16809" lon="7.08697">
        <ele>910</ele>
        <time>2021-08-05T09:14:35Z</time>
      </trkpt>
      <trkpt lat="48.16808" lon="7.08695">
        <ele>910.1</ele>
        <time>2021-08-05T09:14:36Z</time>
      </trkpt>
      <trkpt lat="48.16808" lon="7.0869">
        <ele>910.3</ele>
        <time>2021-08-05T09:14:38Z</time>
      </trkpt>
      <trkpt lat="48.16807" lon="7.08684">
        <ele>910.6</ele>
        <time>2021-08-05T09:14:40Z</time>
      </trkpt>
      <trkpt lat="48.16807" lon="7.08681">
        <ele>910.8</ele>
        <time>2021-08-05T09:14:41Z</time>
      </trkpt>
      <trkpt lat="48.16806" lon="7.08679">
        <ele>910.9</ele>
        <time>2021-08-05T09:14:42Z</time>
      </trkpt>
      <trkpt lat="48.16806" lon="7.08674">
        <ele>911.1</ele>
        <time>2021-08-05T09:14:44Z</time>
      </trkpt>
      <trkpt lat="48.16805" lon="7.08672">
        <ele>911.2</ele>
        <time>2021-08-05T09:14:45Z</time>
      </trkpt>
      <trkpt lat="48.16805" lon="7.0867">
        <ele>911.3</ele>
        <time>2021-08-05T09:14:46Z</time>
      </trkpt>
      <trkpt lat="48.16806" lon="7.08668">
        <ele>911.5</ele>
        <time>2021-08-05T09:14:47Z</time>
      </trkpt>
      <trkpt lat="48.16806" lon="7.08665">
        <ele>911.6</ele>
        <time>2021-08-05T09:14:49Z</time>
      </trkpt>
      <trkpt lat="48.16808" lon="7.08662">
        <ele>911.8</ele>
        <time>2021-08-05T09:14:50Z</time>
      </trkpt>
      <trkpt lat="48.16812" lon="7.0866">
        <ele>912.1</ele>
        <time>2021-08-05T09:14:52Z</time>
      </trkpt>
      <trkpt lat="48.16814" lon="7.08659">
        <ele>912.3</ele>
        <time>2021-08-05T09:14:53Z</time>
      </trkpt>
      <trkpt lat="48.16815" lon="7.08659">
        <ele>912.4</ele>
        <time>2021-08-05T09:14:54Z</time>
      </trkpt>
      <trkpt lat="48.16816" lon="7.08655">
        <ele>912.6</ele>
        <time>2021-08-05T09:14:56Z</time>
      </trkpt>
      <trkpt lat="48.16814" lon="7.08651">
        <ele>912.9</ele>
        <time>2021-08-05T09:14:58Z</time>
      </trkpt>
      <trkpt lat="48.16812" lon="7.08648">
        <ele>913.1</ele>
        <time>2021-08-05T09:14:59Z</time>
      </trkpt>
      <trkpt lat="48.16806" lon="7.08645">
        <ele>913.6</ele>
        <time>2021-08-05T09:15:01Z</time>
      </trkpt>
      <trkpt lat="48.16804" lon="7.0864">
        <ele>913.9</ele>
        <time>2021-08-05T09:15:02Z</time>
      </trkpt>
      <trkpt lat="48.16803" lon="7.08639">
        <ele>913.9</ele>
        <time>2021-08-05T09:15:03Z</time>
      </trkpt>
      <trkpt lat="48.16802" lon="7.08637">
        <ele>914.1</ele>
        <time>2021-08-05T09:15:04Z</time>
      </trkpt>
      <trkpt lat="48.16801" lon="7.08633">
        <ele>914.3</ele>
        <time>2021-08-05T09:15:06Z</time>
      </trkpt>
      <trkpt lat="48.16799" lon="7.08629">
        <ele>914.6</ele>
        <time>2021-08-05T09:15:07Z</time>
      </trkpt>
      <trkpt lat="48.16798" lon="7.08627">
        <ele>914.6</ele>
        <time>2021-08-05T09:15:08Z</time>
      </trkpt>
      <trkpt lat="48.16798" lon="7.08623">
        <ele>914.8</ele>
        <time>2021-08-05T09:15:09Z</time>
      </trkpt>
      <trkpt lat="48.16797" lon="7.0862">
        <ele>915</ele>
        <time>2021-08-05T09:15:11Z</time>
      </trkpt>
      <trkpt lat="48.16796" lon="7.08617">
        <ele>915.2</ele>
        <time>2021-08-05T09:15:12Z</time>
      </trkpt>
      <trkpt lat="48.16794" lon="7.08613">
        <ele>915.4</ele>
        <time>2021-08-05T09:15:14Z</time>
      </trkpt>
      <trkpt lat="48.16791" lon="7.08608">
        <ele>915.6</ele>
        <time>2021-08-05T09:15:16Z</time>
      </trkpt>
      <trkpt lat="48.1679" lon="7.08602">
        <ele>915.9</ele>
        <time>2021-08-05T09:15:18Z</time>
      </trkpt>
      <trkpt lat="48.16792" lon="7.08598">
        <ele>916.1</ele>
        <time>2021-08-05T09:15:19Z</time>
      </trkpt>
      <trkpt lat="48.16793" lon="7.08594">
        <ele>916.2</ele>
        <time>2021-08-05T09:15:20Z</time>
      </trkpt>
      <trkpt lat="48.16794" lon="7.08592">
        <ele>916.3</ele>
        <time>2021-08-05T09:15:22Z</time>
      </trkpt>
      <trkpt lat="48.16794" lon="7.08591">
        <ele>916.4</ele>
        <time>2021-08-05T09:15:23Z</time>
      </trkpt>
      <trkpt lat="48.16795" lon="7.08591">
        <ele>916.4</ele>
        <time>2021-08-05T09:15:24Z</time>
      </trkpt>
      <trkpt lat="48.16795" lon="7.0859">
        <ele>916.4</ele>
        <time>2021-08-05T09:15:25Z</time>
      </trkpt>
      <trkpt lat="48.16795" lon="7.08589">
        <ele>916.5</ele>
        <time>2021-08-05T09:15:26Z</time>
      </trkpt>
      <trkpt lat="48.16795" lon="7.08587">
        <ele>916.6</ele>
        <time>2021-08-05T09:15:27Z</time>
      </trkpt>
      <trkpt lat="48.16795" lon="7.08582">
        <ele>916.8</ele>
        <time>2021-08-05T09:15:29Z</time>
      </trkpt>
      <trkpt lat="48.16795" lon="7.0858">
        <ele>916.9</ele>
        <time>2021-08-05T09:15:30Z</time>
      </trkpt>
      <trkpt lat="48.16794" lon="7.08576">
        <ele>917.1</ele>
        <time>2021-08-05T09:15:32Z</time>
      </trkpt>
      <trkpt lat="48.16793" lon="7.08575">
        <ele>917.1</ele>
        <time>2021-08-05T09:15:33Z</time>
      </trkpt>
      <trkpt lat="48.16794" lon="7.08572">
        <ele>917.2</ele>
        <time>2021-08-05T09:15:34Z</time>
      </trkpt>
      <trkpt lat="48.16794" lon="7.0857">
        <ele>917.3</ele>
        <time>2021-08-05T09:15:35Z</time>
      </trkpt>
      <trkpt lat="48.16794" lon="7.08567">
        <ele>917.5</ele>
        <time>2021-08-05T09:15:36Z</time>
      </trkpt>
      <trkpt lat="48.16794" lon="7.0856">
        <ele>917.8</ele>
        <time>2021-08-05T09:15:38Z</time>
      </trkpt>
      <trkpt lat="48.16793" lon="7.08557">
        <ele>918</ele>
        <time>2021-08-05T09:15:39Z</time>
      </trkpt>
      <trkpt lat="48.16791" lon="7.08554">
        <ele>918.2</ele>
        <time>2021-08-05T09:15:41Z</time>
      </trkpt>
      <trkpt lat="48.16791" lon="7.08552">
        <ele>918.3</ele>
        <time>2021-08-05T09:15:42Z</time>
      </trkpt>
      <trkpt lat="48.1679" lon="7.08549">
        <ele>918.4</ele>
        <time>2021-08-05T09:15:43Z</time>
      </trkpt>
      <trkpt lat="48.1679" lon="7.08547">
        <ele>918.6</ele>
        <time>2021-08-05T09:15:44Z</time>
      </trkpt>
      <trkpt lat="48.16789" lon="7.08545">
        <ele>918.7</ele>
        <time>2021-08-05T09:15:46Z</time>
      </trkpt>
      <trkpt lat="48.16788" lon="7.08542">
        <ele>918.9</ele>
        <time>2021-08-05T09:15:47Z</time>
      </trkpt>
      <trkpt lat="48.16787" lon="7.08541">
        <ele>919.1</ele>
        <time>2021-08-05T09:15:48Z</time>
      </trkpt>
      <trkpt lat="48.16784" lon="7.08537">
        <ele>919.4</ele>
        <time>2021-08-05T09:15:50Z</time>
      </trkpt>
      <trkpt lat="48.16783" lon="7.08535">
        <ele>919.6</ele>
        <time>2021-08-05T09:15:52Z</time>
      </trkpt>
      <trkpt lat="48.16782" lon="7.08534">
        <ele>919.7</ele>
        <time>2021-08-05T09:15:53Z</time>
      </trkpt>
      <trkpt lat="48.16782" lon="7.08535">
        <ele>919.8</ele>
        <time>2021-08-05T09:15:54Z</time>
      </trkpt>
      <trkpt lat="48.16781" lon="7.08535">
        <ele>919.8</ele>
        <time>2021-08-05T09:15:55Z</time>
      </trkpt>
      <trkpt lat="48.16781" lon="7.08535">
        <ele>919.9</ele>
        <time>2021-08-05T09:15:57Z</time>
      </trkpt>
      <trkpt lat="48.1678" lon="7.08535">
        <ele>919.9</ele>
        <time>2021-08-05T09:15:58Z</time>
      </trkpt>
      <trkpt lat="48.1678" lon="7.08534">
        <ele>919.9</ele>
        <time>2021-08-05T09:15:59Z</time>
      </trkpt>
      <trkpt lat="48.16781" lon="7.08533">
        <ele>920</ele>
        <time>2021-08-05T09:16:01Z</time>
      </trkpt>
      <trkpt lat="48.16781" lon="7.08532">
        <ele>920.1</ele>
        <time>2021-08-05T09:16:02Z</time>
      </trkpt>
      <trkpt lat="48.16788" lon="7.08481">
        <ele>923.5</ele>
        <time>2021-08-05T09:18:43Z</time>
      </trkpt>
      <trkpt lat="48.16786" lon="7.08478">
        <ele>923.8</ele>
        <time>2021-08-05T09:18:44Z</time>
      </trkpt>
      <trkpt lat="48.16783" lon="7.08473">
        <ele>924.1</ele>
        <time>2021-08-05T09:18:45Z</time>
      </trkpt>
      <trkpt lat="48.16782" lon="7.08466">
        <ele>924.5</ele>
        <time>2021-08-05T09:18:47Z</time>
      </trkpt>
      <trkpt lat="48.16782" lon="7.08463">
        <ele>924.8</ele>
        <time>2021-08-05T09:18:48Z</time>
      </trkpt>
      <trkpt lat="48.1678" lon="7.08456">
        <ele>925.2</ele>
        <time>2021-08-05T09:18:50Z</time>
      </trkpt>
      <trkpt lat="48.16779" lon="7.08453">
        <ele>925.4</ele>
        <time>2021-08-05T09:18:52Z</time>
      </trkpt>
      <trkpt lat="48.16779" lon="7.08454">
        <ele>925.4</ele>
        <time>2021-08-05T09:18:53Z</time>
      </trkpt>
      <trkpt lat="48.16778" lon="7.08455">
        <ele>925.6</ele>
        <time>2021-08-05T09:18:55Z</time>
      </trkpt>
      <trkpt lat="48.16778" lon="7.08454">
        <ele>925.6</ele>
        <time>2021-08-05T09:18:57Z</time>
      </trkpt>
      <trkpt lat="48.16778" lon="7.08454">
        <ele>925.6</ele>
        <time>2021-08-05T09:18:58Z</time>
      </trkpt>
      <trkpt lat="48.16778" lon="7.08454">
        <ele>925.7</ele>
        <time>2021-08-05T09:18:59Z</time>
      </trkpt>
      <trkpt lat="48.16778" lon="7.08454">
        <ele>925.7</ele>
        <time>2021-08-05T09:19:00Z</time>
      </trkpt>
      <trkpt lat="48.16778" lon="7.08453">
        <ele>925.7</ele>
        <time>2021-08-05T09:19:02Z</time>
      </trkpt>
      <trkpt lat="48.16779" lon="7.08452">
        <ele>925.8</ele>
        <time>2021-08-05T09:19:03Z</time>
      </trkpt>
      <trkpt lat="48.16779" lon="7.08451">
        <ele>925.9</ele>
        <time>2021-08-05T09:19:04Z</time>
      </trkpt>
      <trkpt lat="48.16779" lon="7.08449">
        <ele>926</ele>
        <time>2021-08-05T09:19:05Z</time>
      </trkpt>
      <trkpt lat="48.1678" lon="7.08448">
        <ele>926.1</ele>
        <time>2021-08-05T09:19:07Z</time>
      </trkpt>
      <trkpt lat="48.1678" lon="7.08447">
        <ele>926.1</ele>
        <time>2021-08-05T09:19:07Z</time>
      </trkpt>
      <trkpt lat="48.16783" lon="7.08442">
        <ele>926.5</ele>
        <time>2021-08-05T09:19:08Z</time>
      </trkpt>
      <trkpt lat="48.16784" lon="7.0844">
        <ele>926.7</ele>
        <time>2021-08-05T09:19:09Z</time>
      </trkpt>
      <trkpt lat="48.16789" lon="7.08437">
        <ele>927.1</ele>
        <time>2021-08-05T09:19:11Z</time>
      </trkpt>
      <trkpt lat="48.16792" lon="7.08434">
        <ele>927.5</ele>
        <time>2021-08-05T09:19:12Z</time>
      </trkpt>
      <trkpt lat="48.16793" lon="7.08432">
        <ele>927.6</ele>
        <time>2021-08-05T09:19:13Z</time>
      </trkpt>
      <trkpt lat="48.16795" lon="7.0843">
        <ele>927.8</ele>
        <time>2021-08-05T09:19:14Z</time>
      </trkpt>
      <trkpt lat="48.16797" lon="7.08426">
        <ele>928.1</ele>
        <time>2021-08-05T09:19:16Z</time>
      </trkpt>
      <trkpt lat="48.16799" lon="7.08423">
        <ele>928.3</ele>
        <time>2021-08-05T09:19:17Z</time>
      </trkpt>
      <trkpt lat="48.16802" lon="7.08417">
        <ele>928.8</ele>
        <time>2021-08-05T09:19:19Z</time>
      </trkpt>
      <trkpt lat="48.16803" lon="7.08411">
        <ele>929.1</ele>
        <time>2021-08-05T09:19:21Z</time>
      </trkpt>
      <trkpt lat="48.16802" lon="7.08409">
        <ele>929.3</ele>
        <time>2021-08-05T09:19:22Z</time>
      </trkpt>
      <trkpt lat="48.16801" lon="7.08404">
        <ele>929.6</ele>
        <time>2021-08-05T09:19:24Z</time>
      </trkpt>
      <trkpt lat="48.16801" lon="7.08402">
        <ele>929.7</ele>
        <time>2021-08-05T09:19:25Z</time>
      </trkpt>
      <trkpt lat="48.168" lon="7.08398">
        <ele>930</ele>
        <time>2021-08-05T09:19:27Z</time>
      </trkpt>
      <trkpt lat="48.168" lon="7.08396">
        <ele>930.1</ele>
        <time>2021-08-05T09:19:28Z</time>
      </trkpt>
      <trkpt lat="48.168" lon="7.08394">
        <ele>930.2</ele>
        <time>2021-08-05T09:19:29Z</time>
      </trkpt>
      <trkpt lat="48.168" lon="7.08394">
        <ele>930.2</ele>
        <time>2021-08-05T09:19:31Z</time>
      </trkpt>
      <trkpt lat="48.168" lon="7.08395">
        <ele>930.2</ele>
        <time>2021-08-05T09:19:32Z</time>
      </trkpt>
      <trkpt lat="48.16799" lon="7.08395">
        <ele>930.2</ele>
        <time>2021-08-05T09:19:33Z</time>
      </trkpt>
      <trkpt lat="48.16799" lon="7.08394">
        <ele>930.3</ele>
        <time>2021-08-05T09:19:34Z</time>
      </trkpt>
      <trkpt lat="48.168" lon="7.08392">
        <ele>930.4</ele>
        <time>2021-08-05T09:19:35Z</time>
      </trkpt>
      <trkpt lat="48.16801" lon="7.08387">
        <ele>930.8</ele>
        <time>2021-08-05T09:19:37Z</time>
      </trkpt>
      <trkpt lat="48.16803" lon="7.08384">
        <ele>931</ele>
        <time>2021-08-05T09:19:38Z</time>
      </trkpt>
      <trkpt lat="48.16804" lon="7.08383">
        <ele>931.1</ele>
        <time>2021-08-05T09:19:40Z</time>
      </trkpt>
      <trkpt lat="48.16805" lon="7.08383">
        <ele>931.2</ele>
        <time>2021-08-05T09:19:41Z</time>
      </trkpt>
      <trkpt lat="48.16806" lon="7.08382">
        <ele>931.3</ele>
        <time>2021-08-05T09:19:43Z</time>
      </trkpt>
      <trkpt lat="48.16807" lon="7.08381">
        <ele>931.4</ele>
        <time>2021-08-05T09:19:44Z</time>
      </trkpt>
      <trkpt lat="48.16808" lon="7.08379">
        <ele>931.6</ele>
        <time>2021-08-05T09:19:46Z</time>
      </trkpt>
      <trkpt lat="48.1681" lon="7.08379">
        <ele>931.7</ele>
        <time>2021-08-05T09:19:47Z</time>
      </trkpt>
      <trkpt lat="48.1681" lon="7.08378">
        <ele>931.7</ele>
        <time>2021-08-05T09:19:48Z</time>
      </trkpt>
      <trkpt lat="48.16811" lon="7.08377">
        <ele>931.8</ele>
        <time>2021-08-05T09:19:50Z</time>
      </trkpt>
      <trkpt lat="48.16812" lon="7.08376">
        <ele>932</ele>
        <time>2021-08-05T09:19:51Z</time>
      </trkpt>
      <trkpt lat="48.16815" lon="7.08372">
        <ele>932.3</ele>
        <time>2021-08-05T09:19:52Z</time>
      </trkpt>
      <trkpt lat="48.16815" lon="7.0837">
        <ele>932.5</ele>
        <time>2021-08-05T09:19:53Z</time>
      </trkpt>
      <trkpt lat="48.16816" lon="7.08368">
        <ele>932.6</ele>
        <time>2021-08-05T09:19:54Z</time>
      </trkpt>
      <trkpt lat="48.16817" lon="7.08364">
        <ele>932.9</ele>
        <time>2021-08-05T09:19:55Z</time>
      </trkpt>
      <trkpt lat="48.16818" lon="7.08362">
        <ele>933</ele>
        <time>2021-08-05T09:19:56Z</time>
      </trkpt>
      <trkpt lat="48.16818" lon="7.08358">
        <ele>933.3</ele>
        <time>2021-08-05T09:19:57Z</time>
      </trkpt>
      <trkpt lat="48.16818" lon="7.08356">
        <ele>933.4</ele>
        <time>2021-08-05T09:19:59Z</time>
      </trkpt>
      <trkpt lat="48.16818" lon="7.08355">
        <ele>933.5</ele>
        <time>2021-08-05T09:20:00Z</time>
      </trkpt>
      <trkpt lat="48.16818" lon="7.08354">
        <ele>933.6</ele>
        <time>2021-08-05T09:20:02Z</time>
      </trkpt>
      <trkpt lat="48.16818" lon="7.08354">
        <ele>933.6</ele>
        <time>2021-08-05T09:20:04Z</time>
      </trkpt>
      <trkpt lat="48.16818" lon="7.08353">
        <ele>933.6</ele>
        <time>2021-08-05T09:20:05Z</time>
      </trkpt>
      <trkpt lat="48.16818" lon="7.08353">
        <ele>933.6</ele>
        <time>2021-08-05T09:20:06Z</time>
      </trkpt>
      <trkpt lat="48.16818" lon="7.08353">
        <ele>933.6</ele>
        <time>2021-08-05T09:20:07Z</time>
      </trkpt>
      <trkpt lat="48.16844" lon="7.08272">
        <ele>938</ele>
        <time>2021-08-05T09:20:50Z</time>
      </trkpt>
      <trkpt lat="48.16842" lon="7.08267">
        <ele>938.2</ele>
        <time>2021-08-05T09:20:51Z</time>
      </trkpt>
      <trkpt lat="48.1684" lon="7.08263">
        <ele>938.3</ele>
        <time>2021-08-05T09:20:52Z</time>
      </trkpt>
      <trkpt lat="48.16838" lon="7.08261">
        <ele>938.3</ele>
        <time>2021-08-05T09:20:53Z</time>
      </trkpt>
      <trkpt lat="48.16833" lon="7.08257">
        <ele>938.4</ele>
        <time>2021-08-05T09:20:55Z</time>
      </trkpt>
      <trkpt lat="48.1683" lon="7.08255">
        <ele>938.5</ele>
        <time>2021-08-05T09:20:56Z</time>
      </trkpt>
      <trkpt lat="48.16825" lon="7.08253">
        <ele>938.6</ele>
        <time>2021-08-05T09:20:57Z</time>
      </trkpt>
      <trkpt lat="48.16821" lon="7.08251">
        <ele>938.8</ele>
        <time>2021-08-05T09:20:58Z</time>
      </trkpt>
      <trkpt lat="48.16817" lon="7.08248">
        <ele>938.9</ele>
        <time>2021-08-05T09:20:59Z</time>
      </trkpt>
      <trkpt lat="48.16812" lon="7.08247">
        <ele>939</ele>
        <time>2021-08-05T09:21:00Z</time>
      </trkpt>
      <trkpt lat="48.16805" lon="7.08245">
        <ele>939.2</ele>
        <time>2021-08-05T09:21:02Z</time>
      </trkpt>
      <trkpt lat="48.168" lon="7.08243">
        <ele>939.4</ele>
        <time>2021-08-05T09:21:03Z</time>
      </trkpt>
      <trkpt lat="48.16792" lon="7.08242">
        <ele>939.7</ele>
        <time>2021-08-05T09:21:05Z</time>
      </trkpt>
      <trkpt lat="48.16788" lon="7.08243">
        <ele>939.8</ele>
        <time>2021-08-05T09:21:06Z</time>
      </trkpt>
      <trkpt lat="48.16785" lon="7.08239">
        <ele>939.9</ele>
        <time>2021-08-05T09:21:08Z</time>
      </trkpt>
      <trkpt lat="48.16784" lon="7.08238">
        <ele>940</ele>
        <time>2021-08-05T09:21:09Z</time>
      </trkpt>
      <trkpt lat="48.16782" lon="7.08237">
        <ele>940</ele>
        <time>2021-08-05T09:21:10Z</time>
      </trkpt>
      <trkpt lat="48.16781" lon="7.08237">
        <ele>940.1</ele>
        <time>2021-08-05T09:21:12Z</time>
      </trkpt>
      <trkpt lat="48.1678" lon="7.08236">
        <ele>940.1</ele>
        <time>2021-08-05T09:21:13Z</time>
      </trkpt>
      <trkpt lat="48.16776" lon="7.08236">
        <ele>940.2</ele>
        <time>2021-08-05T09:21:15Z</time>
      </trkpt>
      <trkpt lat="48.16775" lon="7.08237">
        <ele>940.3</ele>
        <time>2021-08-05T09:21:16Z</time>
      </trkpt>
      <trkpt lat="48.16667" lon="7.08213">
        <ele>944.7</ele>
        <time>2021-08-05T09:22:09Z</time>
      </trkpt>
      <trkpt lat="48.16665" lon="7.08209">
        <ele>944.9</ele>
        <time>2021-08-05T09:22:10Z</time>
      </trkpt>
      <trkpt lat="48.16661" lon="7.08202">
        <ele>945.4</ele>
        <time>2021-08-05T09:22:12Z</time>
      </trkpt>
      <trkpt lat="48.16658" lon="7.08196">
        <ele>945.7</ele>
        <time>2021-08-05T09:22:13Z</time>
      </trkpt>
      <trkpt lat="48.16654" lon="7.0819">
        <ele>946.1</ele>
        <time>2021-08-05T09:22:14Z</time>
      </trkpt>
      <trkpt lat="48.16651" lon="7.08185">
        <ele>946.4</ele>
        <time>2021-08-05T09:22:15Z</time>
      </trkpt>
      <trkpt lat="48.16647" lon="7.0818">
        <ele>946.8</ele>
        <time>2021-08-05T09:22:16Z</time>
      </trkpt>
      <trkpt lat="48.16641" lon="7.08174">
        <ele>946.8</ele>
        <time>2021-08-05T09:22:18Z</time>
      </trkpt>
      <trkpt lat="48.16638" lon="7.08173">
        <ele>946.8</ele>
        <time>2021-08-05T09:22:19Z</time>
      </trkpt>
      <trkpt lat="48.16635" lon="7.08172">
        <ele>946.8</ele>
        <time>2021-08-05T09:22:20Z</time>
      </trkpt>
      <trkpt lat="48.16629" lon="7.08175">
        <ele>946.7</ele>
        <time>2021-08-05T09:22:22Z</time>
      </trkpt>
      <trkpt lat="48.16626" lon="7.08175">
        <ele>946.7</ele>
        <time>2021-08-05T09:22:23Z</time>
      </trkpt>
      <trkpt lat="48.1662" lon="7.08174">
        <ele>946.7</ele>
        <time>2021-08-05T09:22:24Z</time>
      </trkpt>
      <trkpt lat="48.16616" lon="7.08172">
        <ele>946.7</ele>
        <time>2021-08-05T09:22:26Z</time>
      </trkpt>
      <trkpt lat="48.16613" lon="7.08171">
        <ele>946.6</ele>
        <time>2021-08-05T09:22:27Z</time>
      </trkpt>
      <trkpt lat="48.1661" lon="7.08172">
        <ele>946.6</ele>
        <time>2021-08-05T09:22:28Z</time>
      </trkpt>
      <trkpt lat="48.16607" lon="7.08172">
        <ele>946.6</ele>
        <time>2021-08-05T09:22:30Z</time>
      </trkpt>
      <trkpt lat="48.16606" lon="7.08172">
        <ele>946.6</ele>
        <time>2021-08-05T09:22:31Z</time>
      </trkpt>
      <trkpt lat="48.16607" lon="7.08171">
        <ele>946.6</ele>
        <time>2021-08-05T09:22:32Z</time>
      </trkpt>
      <trkpt lat="48.16607" lon="7.0817">
        <ele>946.6</ele>
        <time>2021-08-05T09:22:33Z</time>
      </trkpt>
      <trkpt lat="48.16607" lon="7.08169">
        <ele>946.6</ele>
        <time>2021-08-05T09:22:34Z</time>
      </trkpt>
      <trkpt lat="48.16608" lon="7.08168">
        <ele>946.6</ele>
        <time>2021-08-05T09:22:35Z</time>
      </trkpt>
      <trkpt lat="48.16608" lon="7.08167">
        <ele>946.6</ele>
        <time>2021-08-05T09:22:36Z</time>
      </trkpt>
      <trkpt lat="48.1661" lon="7.08162">
        <ele>946.5</ele>
        <time>2021-08-05T09:22:38Z</time>
      </trkpt>
      <trkpt lat="48.1661" lon="7.0816">
        <ele>946.5</ele>
        <time>2021-08-05T09:22:39Z</time>
      </trkpt>
      <trkpt lat="48.16611" lon="7.08158">
        <ele>946.5</ele>
        <time>2021-08-05T09:22:41Z</time>
      </trkpt>
      <trkpt lat="48.1661" lon="7.08157">
        <ele>946.5</ele>
        <time>2021-08-05T09:22:42Z</time>
      </trkpt>
      <trkpt lat="48.1661" lon="7.08156">
        <ele>946.5</ele>
        <time>2021-08-05T09:22:44Z</time>
      </trkpt>
      <trkpt lat="48.166" lon="7.08148">
        <ele>946.4</ele>
        <time>2021-08-05T09:22:50Z</time>
      </trkpt>
      <trkpt lat="48.16594" lon="7.08144">
        <ele>946.4</ele>
        <time>2021-08-05T09:22:51Z</time>
      </trkpt>
      <trkpt lat="48.16592" lon="7.08143">
        <ele>946.4</ele>
        <time>2021-08-05T09:22:52Z</time>
      </trkpt>
      <trkpt lat="48.16591" lon="7.08143">
        <ele>946.4</ele>
        <time>2021-08-05T09:22:53Z</time>
      </trkpt>
      <trkpt lat="48.16586" lon="7.0814">
        <ele>946.4</ele>
        <time>2021-08-05T09:22:55Z</time>
      </trkpt>
      <trkpt lat="48.16584" lon="7.08139">
        <ele>946.4</ele>
        <time>2021-08-05T09:22:57Z</time>
      </trkpt>
      <trkpt lat="48.16583" lon="7.08138">
        <ele>946.4</ele>
        <time>2021-08-05T09:22:59Z</time>
      </trkpt>
      <trkpt lat="48.16583" lon="7.08138">
        <ele>946.4</ele>
        <time>2021-08-05T09:23:01Z</time>
      </trkpt>
      <trkpt lat="48.16516" lon="7.0809">
        <ele>947.1</ele>
        <time>2021-08-05T09:24:18Z</time>
      </trkpt>
      <trkpt lat="48.16514" lon="7.08087">
        <ele>947.2</ele>
        <time>2021-08-05T09:24:20Z</time>
      </trkpt>
      <trkpt lat="48.16509" lon="7.08082">
        <ele>947.3</ele>
        <time>2021-08-05T09:24:22Z</time>
      </trkpt>
      <trkpt lat="48.16508" lon="7.0808">
        <ele>947.3</ele>
        <time>2021-08-05T09:24:23Z</time>
      </trkpt>
      <trkpt lat="48.16505" lon="7.08078">
        <ele>947.3</ele>
        <time>2021-08-05T09:24:25Z</time>
      </trkpt>
      <trkpt lat="48.16504" lon="7.08079">
        <ele>947.4</ele>
        <time>2021-08-05T09:24:26Z</time>
      </trkpt>
      <trkpt lat="48.16502" lon="7.0808">
        <ele>947.4</ele>
        <time>2021-08-05T09:24:28Z</time>
      </trkpt>
      <trkpt lat="48.16502" lon="7.0808">
        <ele>947.4</ele>
        <time>2021-08-05T09:24:29Z</time>
      </trkpt>
      <trkpt lat="48.16501" lon="7.0808">
        <ele>947.4</ele>
        <time>2021-08-05T09:24:30Z</time>
      </trkpt>
      <trkpt lat="48.16501" lon="7.0808">
        <ele>947.4</ele>
        <time>2021-08-05T09:24:31Z</time>
      </trkpt>
      <trkpt lat="48.165" lon="7.08079">
        <ele>947.4</ele>
        <time>2021-08-05T09:24:32Z</time>
      </trkpt>
      <trkpt lat="48.165" lon="7.08077">
        <ele>947.4</ele>
        <time>2021-08-05T09:24:34Z</time>
      </trkpt>
      <trkpt lat="48.165" lon="7.08076">
        <ele>947.5</ele>
        <time>2021-08-05T09:24:35Z</time>
      </trkpt>
      <trkpt lat="48.165" lon="7.08075">
        <ele>947.5</ele>
        <time>2021-08-05T09:24:36Z</time>
      </trkpt>
      <trkpt lat="48.16492" lon="7.08006">
        <ele>947.9</ele>
        <time>2021-08-05T09:25:15Z</time>
      </trkpt>
      <trkpt lat="48.1649" lon="7.08003">
        <ele>947.9</ele>
        <time>2021-08-05T09:25:16Z</time>
      </trkpt>
      <trkpt lat="48.16489" lon="7.08001">
        <ele>947.9</ele>
        <time>2021-08-05T09:25:18Z</time>
      </trkpt>
      <trkpt lat="48.16488" lon="7.08">
        <ele>947.9</ele>
        <time>2021-08-05T09:25:19Z</time>
      </trkpt>
      <trkpt lat="48.16488" lon="7.07999">
        <ele>947.9</ele>
        <time>2021-08-05T09:25:21Z</time>
      </trkpt>
      <trkpt lat="48.16488" lon="7.07998">
        <ele>947.9</ele>
        <time>2021-08-05T09:25:22Z</time>
      </trkpt>
      <trkpt lat="48.16487" lon="7.07998">
        <ele>947.9</ele>
        <time>2021-08-05T09:25:23Z</time>
      </trkpt>
      <trkpt lat="48.16487" lon="7.07998">
        <ele>947.9</ele>
        <time>2021-08-05T09:25:25Z</time>
      </trkpt>
      <trkpt lat="48.16487" lon="7.07998">
        <ele>947.9</ele>
        <time>2021-08-05T09:25:26Z</time>
      </trkpt>
      <trkpt lat="48.16487" lon="7.07997">
        <ele>947.9</ele>
        <time>2021-08-05T09:25:27Z</time>
      </trkpt>
      <trkpt lat="48.16487" lon="7.07997">
        <ele>947.9</ele>
        <time>2021-08-05T09:25:28Z</time>
      </trkpt>
      <trkpt lat="48.16487" lon="7.07997">
        <ele>947.9</ele>
        <time>2021-08-05T09:25:30Z</time>
      </trkpt>
      <trkpt lat="48.16487" lon="7.07997">
        <ele>947.9</ele>
        <time>2021-08-05T09:25:31Z</time>
      </trkpt>
      <trkpt lat="48.16488" lon="7.07995">
        <ele>947.9</ele>
        <time>2021-08-05T09:25:32Z</time>
      </trkpt>
      <trkpt lat="48.16488" lon="7.07995">
        <ele>947.9</ele>
        <time>2021-08-05T09:25:33Z</time>
      </trkpt>
      <trkpt lat="48.16488" lon="7.07994">
        <ele>947.9</ele>
        <time>2021-08-05T09:25:35Z</time>
      </trkpt>
      <trkpt lat="48.16489" lon="7.07994">
        <ele>947.9</ele>
        <time>2021-08-05T09:25:36Z</time>
      </trkpt>
      <trkpt lat="48.16489" lon="7.07993">
        <ele>947.9</ele>
        <time>2021-08-05T09:25:37Z</time>
      </trkpt>
      <trkpt lat="48.1649" lon="7.07993">
        <ele>947.9</ele>
        <time>2021-08-05T09:25:38Z</time>
      </trkpt>
      <trkpt lat="48.1649" lon="7.07993">
        <ele>947.9</ele>
        <time>2021-08-05T09:25:40Z</time>
      </trkpt>
      <trkpt lat="48.1649" lon="7.07993">
        <ele>947.9</ele>
        <time>2021-08-05T09:25:41Z</time>
      </trkpt>
      <trkpt lat="48.1649" lon="7.07992">
        <ele>947.9</ele>
        <time>2021-08-05T09:25:43Z</time>
      </trkpt>
      <trkpt lat="48.16491" lon="7.07992">
        <ele>947.9</ele>
        <time>2021-08-05T09:25:45Z</time>
      </trkpt>
      <trkpt lat="48.16491" lon="7.07992">
        <ele>947.9</ele>
        <time>2021-08-05T09:25:46Z</time>
      </trkpt>
      <trkpt lat="48.16491" lon="7.07991">
        <ele>947.9</ele>
        <time>2021-08-05T09:25:48Z</time>
      </trkpt>
      <trkpt lat="48.16492" lon="7.07991">
        <ele>947.9</ele>
        <time>2021-08-05T09:25:50Z</time>
      </trkpt>
      <trkpt lat="48.16492" lon="7.0799">
        <ele>947.9</ele>
        <time>2021-08-05T09:25:52Z</time>
      </trkpt>
      <trkpt lat="48.16492" lon="7.0799">
        <ele>947.9</ele>
        <time>2021-08-05T09:25:53Z</time>
      </trkpt>
      <trkpt lat="48.16492" lon="7.0799">
        <ele>947.9</ele>
        <time>2021-08-05T09:25:55Z</time>
      </trkpt>
      <trkpt lat="48.16492" lon="7.0799">
        <ele>947.9</ele>
        <time>2021-08-05T09:25:56Z</time>
      </trkpt>
      <trkpt lat="48.16493" lon="7.0799">
        <ele>947.9</ele>
        <time>2021-08-05T09:25:58Z</time>
      </trkpt>
      <trkpt lat="48.16494" lon="7.0799">
        <ele>947.9</ele>
        <time>2021-08-05T09:26:00Z</time>
      </trkpt>
      <trkpt lat="48.16494" lon="7.07991">
        <ele>947.9</ele>
        <time>2021-08-05T09:26:02Z</time>
      </trkpt>
      <trkpt lat="48.16494" lon="7.07991">
        <ele>947.9</ele>
        <time>2021-08-05T09:26:04Z</time>
      </trkpt>
      <trkpt lat="48.16494" lon="7.07991">
        <ele>947.9</ele>
        <time>2021-08-05T09:26:05Z</time>
      </trkpt>
      <trkpt lat="48.16494" lon="7.07991">
        <ele>947.9</ele>
        <time>2021-08-05T09:26:07Z</time>
      </trkpt>
      <trkpt lat="48.16494" lon="7.07991">
        <ele>947.9</ele>
        <time>2021-08-05T09:26:08Z</time>
      </trkpt>
      <trkpt lat="48.16494" lon="7.07991">
        <ele>947.9</ele>
        <time>2021-08-05T09:26:09Z</time>
      </trkpt>
      <trkpt lat="48.16494" lon="7.07991">
        <ele>947.9</ele>
        <time>2021-08-05T09:26:11Z</time>
      </trkpt>
      <trkpt lat="48.16494" lon="7.07991">
        <ele>947.9</ele>
        <time>2021-08-05T09:26:12Z</time>
      </trkpt>
      <trkpt lat="48.16494" lon="7.07991">
        <ele>947.9</ele>
        <time>2021-08-05T09:26:14Z</time>
      </trkpt>
      <trkpt lat="48.16494" lon="7.07991">
        <ele>947.9</ele>
        <time>2021-08-05T09:26:16Z</time>
      </trkpt>
      <trkpt lat="48.16494" lon="7.07991">
        <ele>947.9</ele>
        <time>2021-08-05T09:26:17Z</time>
      </trkpt>
      <trkpt lat="48.16494" lon="7.07991">
        <ele>947.9</ele>
        <time>2021-08-05T09:26:19Z</time>
      </trkpt>
      <trkpt lat="48.16494" lon="7.07991">
        <ele>947.9</ele>
        <time>2021-08-05T09:26:21Z</time>
      </trkpt>
      <trkpt lat="48.16494" lon="7.07991">
        <ele>947.9</ele>
        <time>2021-08-05T09:26:22Z</time>
      </trkpt>
      <trkpt lat="48.16494" lon="7.07991">
        <ele>947.9</ele>
        <time>2021-08-05T09:26:23Z</time>
      </trkpt>
      <trkpt lat="48.16494" lon="7.07991">
        <ele>947.9</ele>
        <time>2021-08-05T09:26:25Z</time>
      </trkpt>
      <trkpt lat="48.16494" lon="7.07991">
        <ele>947.9</ele>
        <time>2021-08-05T09:26:26Z</time>
      </trkpt>
      <trkpt lat="48.16494" lon="7.07991">
        <ele>947.9</ele>
        <time>2021-08-05T09:26:28Z</time>
      </trkpt>
      <trkpt lat="48.16494" lon="7.07991">
        <ele>947.9</ele>
        <time>2021-08-05T09:26:30Z</time>
      </trkpt>
      <trkpt lat="48.16489" lon="7.0799">
        <ele>947.8</ele>
        <time>2021-08-05T09:26:31Z</time>
      </trkpt>
      <trkpt lat="48.16486" lon="7.0799">
        <ele>947.8</ele>
        <time>2021-08-05T09:26:32Z</time>
      </trkpt>
      <trkpt lat="48.16486" lon="7.0799">
        <ele>947.8</ele>
        <time>2021-08-05T09:26:33Z</time>
      </trkpt>
      <trkpt lat="48.16485" lon="7.0799">
        <ele>947.8</ele>
        <time>2021-08-05T09:26:34Z</time>
      </trkpt>
      <trkpt lat="48.16485" lon="7.07989">
        <ele>947.8</ele>
        <time>2021-08-05T09:26:36Z</time>
      </trkpt>
      <trkpt lat="48.16485" lon="7.07989">
        <ele>947.8</ele>
        <time>2021-08-05T09:26:37Z</time>
      </trkpt>
      <trkpt lat="48.16485" lon="7.0799">
        <ele>947.8</ele>
        <time>2021-08-05T09:26:38Z</time>
      </trkpt>
      <trkpt lat="48.16485" lon="7.0799">
        <ele>947.8</ele>
        <time>2021-08-05T09:26:40Z</time>
      </trkpt>
      <trkpt lat="48.16485" lon="7.0799">
        <ele>947.8</ele>
        <time>2021-08-05T09:26:41Z</time>
      </trkpt>
      <trkpt lat="48.16485" lon="7.0799">
        <ele>947.8</ele>
        <time>2021-08-05T09:26:42Z</time>
      </trkpt>
      <trkpt lat="48.16485" lon="7.0799">
        <ele>947.8</ele>
        <time>2021-08-05T09:26:44Z</time>
      </trkpt>
      <trkpt lat="48.16485" lon="7.0799">
        <ele>947.8</ele>
        <time>2021-08-05T09:26:45Z</time>
      </trkpt>
      <trkpt lat="48.16486" lon="7.07989">
        <ele>947.8</ele>
        <time>2021-08-05T09:26:46Z</time>
      </trkpt>
      <trkpt lat="48.16487" lon="7.07987">
        <ele>947.8</ele>
        <time>2021-08-05T09:26:48Z</time>
      </trkpt>
      <trkpt lat="48.16487" lon="7.07986">
        <ele>947.8</ele>
        <time>2021-08-05T09:26:49Z</time>
      </trkpt>
      <trkpt lat="48.16488" lon="7.07985">
        <ele>947.8</ele>
        <time>2021-08-05T09:26:51Z</time>
      </trkpt>
      <trkpt lat="48.16488" lon="7.07985">
        <ele>947.8</ele>
        <time>2021-08-05T09:26:52Z</time>
      </trkpt>
      <trkpt lat="48.16488" lon="7.07984">
        <ele>947.8</ele>
        <time>2021-08-05T09:26:53Z</time>
      </trkpt>
      <trkpt lat="48.16489" lon="7.07983">
        <ele>947.8</ele>
        <time>2021-08-05T09:26:54Z</time>
      </trkpt>
      <trkpt lat="48.16489" lon="7.0798">
        <ele>947.8</ele>
        <time>2021-08-05T09:26:56Z</time>
      </trkpt>
      <trkpt lat="48.16489" lon="7.07978">
        <ele>947.8</ele>
        <time>2021-08-05T09:26:57Z</time>
      </trkpt>
      <trkpt lat="48.1649" lon="7.07973">
        <ele>947.6</ele>
        <time>2021-08-05T09:26:59Z</time>
      </trkpt>
      <trkpt lat="48.16489" lon="7.07965">
        <ele>947.6</ele>
        <time>2021-08-05T09:27:00Z</time>
      </trkpt>
      <trkpt lat="48.16488" lon="7.07959">
        <ele>947.5</ele>
        <time>2021-08-05T09:27:01Z</time>
      </trkpt>
      <trkpt lat="48.16487" lon="7.07952">
        <ele>947.4</ele>
        <time>2021-08-05T09:27:02Z</time>
      </trkpt>
      <trkpt lat="48.16486" lon="7.07945">
        <ele>947.3</ele>
        <time>2021-08-05T09:27:04Z</time>
      </trkpt>
      <trkpt lat="48.16483" lon="7.07935">
        <ele>947.2</ele>
        <time>2021-08-05T09:27:05Z</time>
      </trkpt>
      <trkpt lat="48.1648" lon="7.07928">
        <ele>947.1</ele>
        <time>2021-08-05T09:27:07Z</time>
      </trkpt>
      <trkpt lat="48.16478" lon="7.07923">
        <ele>947.1</ele>
        <time>2021-08-05T09:27:08Z</time>
      </trkpt>
      <trkpt lat="48.16474" lon="7.07917">
        <ele>947</ele>
        <time>2021-08-05T09:27:09Z</time>
      </trkpt>
      <trkpt lat="48.1647" lon="7.07912">
        <ele>946.9</ele>
        <time>2021-08-05T09:27:11Z</time>
      </trkpt>
      <trkpt lat="48.16465" lon="7.07909">
        <ele>946.9</ele>
        <time>2021-08-05T09:27:12Z</time>
      </trkpt>
      <trkpt lat="48.1646" lon="7.07907">
        <ele>947</ele>
        <time>2021-08-05T09:27:13Z</time>
      </trkpt>
      <trkpt lat="48.16456" lon="7.07906">
        <ele>947.1</ele>
        <time>2021-08-05T09:27:14Z</time>
      </trkpt>
      <trkpt lat="48.16452" lon="7.07905">
        <ele>947.3</ele>
        <time>2021-08-05T09:27:16Z</time>
      </trkpt>
      <trkpt lat="48.16446" lon="7.07903">
        <ele>947.5</ele>
        <time>2021-08-05T09:27:17Z</time>
      </trkpt>
      <trkpt lat="48.16441" lon="7.07902">
        <ele>947.6</ele>
        <time>2021-08-05T09:27:18Z</time>
      </trkpt>
      <trkpt lat="48.16437" lon="7.07902">
        <ele>947.8</ele>
        <time>2021-08-05T09:27:19Z</time>
      </trkpt>
      <trkpt lat="48.16432" lon="7.07902">
        <ele>948</ele>
        <time>2021-08-05T09:27:20Z</time>
      </trkpt>
      <trkpt lat="48.16426" lon="7.07901">
        <ele>948.3</ele>
        <time>2021-08-05T09:27:22Z</time>
      </trkpt>
      <trkpt lat="48.16422" lon="7.07899">
        <ele>948.5</ele>
        <time>2021-08-05T09:27:23Z</time>
      </trkpt>
      <trkpt lat="48.16419" lon="7.07898">
        <ele>948.6</ele>
        <time>2021-08-05T09:27:24Z</time>
      </trkpt>
      <trkpt lat="48.16415" lon="7.07897">
        <ele>948.8</ele>
        <time>2021-08-05T09:27:26Z</time>
      </trkpt>
      <trkpt lat="48.16413" lon="7.07895">
        <ele>948.9</ele>
        <time>2021-08-05T09:27:27Z</time>
      </trkpt>
      <trkpt lat="48.1641" lon="7.07892">
        <ele>949.1</ele>
        <time>2021-08-05T09:27:28Z</time>
      </trkpt>
      <trkpt lat="48.16407" lon="7.07888">
        <ele>949.4</ele>
        <time>2021-08-05T09:27:30Z</time>
      </trkpt>
      <trkpt lat="48.16403" lon="7.07884">
        <ele>949.7</ele>
        <time>2021-08-05T09:27:31Z</time>
      </trkpt>
      <trkpt lat="48.16401" lon="7.07881">
        <ele>949.8</ele>
        <time>2021-08-05T09:27:32Z</time>
      </trkpt>
      <trkpt lat="48.16398" lon="7.07874">
        <ele>950.2</ele>
        <time>2021-08-05T09:27:34Z</time>
      </trkpt>
      <trkpt lat="48.16398" lon="7.07871">
        <ele>950.3</ele>
        <time>2021-08-05T09:27:35Z</time>
      </trkpt>
      <trkpt lat="48.16398" lon="7.07865">
        <ele>950.6</ele>
        <time>2021-08-05T09:27:37Z</time>
      </trkpt>
      <trkpt lat="48.16398" lon="7.0786">
        <ele>950.8</ele>
        <time>2021-08-05T09:27:38Z</time>
      </trkpt>
      <trkpt lat="48.16398" lon="7.07854">
        <ele>951.1</ele>
        <time>2021-08-05T09:27:40Z</time>
      </trkpt>
      <trkpt lat="48.16397" lon="7.07848">
        <ele>951.4</ele>
        <time>2021-08-05T09:27:41Z</time>
      </trkpt>
      <trkpt lat="48.16396" lon="7.07844">
        <ele>951.6</ele>
        <time>2021-08-05T09:27:42Z</time>
      </trkpt>
      <trkpt lat="48.16394" lon="7.07839">
        <ele>951.9</ele>
        <time>2021-08-05T09:27:44Z</time>
      </trkpt>
      <trkpt lat="48.16394" lon="7.07834">
        <ele>952.2</ele>
        <time>2021-08-05T09:27:45Z</time>
      </trkpt>
      <trkpt lat="48.16394" lon="7.07828">
        <ele>952.6</ele>
        <time>2021-08-05T09:27:47Z</time>
      </trkpt>
      <trkpt lat="48.16394" lon="7.07825">
        <ele>952.7</ele>
        <time>2021-08-05T09:27:48Z</time>
      </trkpt>
      <trkpt lat="48.16394" lon="7.07823">
        <ele>952.8</ele>
        <time>2021-08-05T09:27:49Z</time>
      </trkpt>
      <trkpt lat="48.16393" lon="7.07824">
        <ele>952.9</ele>
        <time>2021-08-05T09:27:50Z</time>
      </trkpt>
      <trkpt lat="48.16393" lon="7.07824">
        <ele>953</ele>
        <time>2021-08-05T09:27:52Z</time>
      </trkpt>
      <trkpt lat="48.16392" lon="7.07822">
        <ele>953.1</ele>
        <time>2021-08-05T09:27:53Z</time>
      </trkpt>
      <trkpt lat="48.16393" lon="7.07818">
        <ele>953.4</ele>
        <time>2021-08-05T09:27:54Z</time>
      </trkpt>
      <trkpt lat="48.16394" lon="7.07818">
        <ele>953.5</ele>
        <time>2021-08-05T09:27:56Z</time>
      </trkpt>
      <trkpt lat="48.16394" lon="7.07818">
        <ele>953.5</ele>
        <time>2021-08-05T09:27:58Z</time>
      </trkpt>
      <trkpt lat="48.16394" lon="7.07818">
        <ele>953.5</ele>
        <time>2021-08-05T09:27:59Z</time>
      </trkpt>
      <trkpt lat="48.16394" lon="7.07818">
        <ele>953.5</ele>
        <time>2021-08-05T09:28:01Z</time>
      </trkpt>
      <trkpt lat="48.16394" lon="7.07818">
        <ele>953.6</ele>
        <time>2021-08-05T09:28:02Z</time>
      </trkpt>
      <trkpt lat="48.16393" lon="7.07818">
        <ele>953.6</ele>
        <time>2021-08-05T09:28:04Z</time>
      </trkpt>
      <trkpt lat="48.16348" lon="7.07698">
        <ele>964</ele>
        <time>2021-08-05T09:29:39Z</time>
      </trkpt>
      <trkpt lat="48.16346" lon="7.07696">
        <ele>964.3</ele>
        <time>2021-08-05T09:29:40Z</time>
      </trkpt>
      <trkpt lat="48.16342" lon="7.07692">
        <ele>964.6</ele>
        <time>2021-08-05T09:29:42Z</time>
      </trkpt>
      <trkpt lat="48.1634" lon="7.07689">
        <ele>964.8</ele>
        <time>2021-08-05T09:29:43Z</time>
      </trkpt>
      <trkpt lat="48.16339" lon="7.07687">
        <ele>964.9</ele>
        <time>2021-08-05T09:29:45Z</time>
      </trkpt>
      <trkpt lat="48.16338" lon="7.07686">
        <ele>965</ele>
        <time>2021-08-05T09:29:46Z</time>
      </trkpt>
      <trkpt lat="48.16337" lon="7.07684">
        <ele>965.1</ele>
        <time>2021-08-05T09:29:47Z</time>
      </trkpt>
      <trkpt lat="48.16336" lon="7.07683">
        <ele>965.2</ele>
        <time>2021-08-05T09:29:48Z</time>
      </trkpt>
      <trkpt lat="48.16335" lon="7.07682">
        <ele>965.3</ele>
        <time>2021-08-05T09:29:50Z</time>
      </trkpt>
      <trkpt lat="48.16334" lon="7.07683">
        <ele>965.3</ele>
        <time>2021-08-05T09:29:52Z</time>
      </trkpt>
      <trkpt lat="48.16335" lon="7.07683">
        <ele>965.3</ele>
        <time>2021-08-05T09:29:53Z</time>
      </trkpt>
      <trkpt lat="48.16335" lon="7.07683">
        <ele>965.4</ele>
        <time>2021-08-05T09:29:55Z</time>
      </trkpt>
      <trkpt lat="48.16335" lon="7.07683">
        <ele>965.4</ele>
        <time>2021-08-05T09:29:56Z</time>
      </trkpt>
      <trkpt lat="48.16335" lon="7.07683">
        <ele>965.4</ele>
        <time>2021-08-05T09:29:58Z</time>
      </trkpt>
      <trkpt lat="48.16335" lon="7.07683">
        <ele>965.4</ele>
        <time>2021-08-05T09:29:59Z</time>
      </trkpt>
      <trkpt lat="48.16335" lon="7.07683">
        <ele>965.4</ele>
        <time>2021-08-05T09:30:00Z</time>
      </trkpt>
      <trkpt lat="48.16335" lon="7.07682">
        <ele>965.5</ele>
        <time>2021-08-05T09:30:02Z</time>
      </trkpt>
      <trkpt lat="48.16334" lon="7.07681">
        <ele>965.5</ele>
        <time>2021-08-05T09:30:03Z</time>
      </trkpt>
      <trkpt lat="48.16326" lon="7.07667">
        <ele>966.4</ele>
        <time>2021-08-05T09:30:11Z</time>
      </trkpt>
      <trkpt lat="48.16323" lon="7.07661">
        <ele>966.8</ele>
        <time>2021-08-05T09:30:13Z</time>
      </trkpt>
      <trkpt lat="48.16321" lon="7.07658">
        <ele>967</ele>
        <time>2021-08-05T09:30:14Z</time>
      </trkpt>
      <trkpt lat="48.16317" lon="7.07654">
        <ele>967.4</ele>
        <time>2021-08-05T09:30:16Z</time>
      </trkpt>
      <trkpt lat="48.16315" lon="7.07651">
        <ele>967.6</ele>
        <time>2021-08-05T09:30:17Z</time>
      </trkpt>
      <trkpt lat="48.16314" lon="7.0765">
        <ele>967.7</ele>
        <time>2021-08-05T09:30:18Z</time>
      </trkpt>
      <trkpt lat="48.1631" lon="7.07648">
        <ele>968.1</ele>
        <time>2021-08-05T09:30:20Z</time>
      </trkpt>
      <trkpt lat="48.16307" lon="7.07647">
        <ele>968.4</ele>
        <time>2021-08-05T09:30:21Z</time>
      </trkpt>
      <trkpt lat="48.16306" lon="7.07646">
        <ele>968.5</ele>
        <time>2021-08-05T09:30:22Z</time>
      </trkpt>
      <trkpt lat="48.16301" lon="7.07645">
        <ele>968.9</ele>
        <time>2021-08-05T09:30:24Z</time>
      </trkpt>
      <trkpt lat="48.163" lon="7.07645">
        <ele>969</ele>
        <time>2021-08-05T09:30:25Z</time>
      </trkpt>
      <trkpt lat="48.16298" lon="7.07645">
        <ele>969.2</ele>
        <time>2021-08-05T09:30:26Z</time>
      </trkpt>
      <trkpt lat="48.16295" lon="7.07646">
        <ele>969.4</ele>
        <time>2021-08-05T09:30:27Z</time>
      </trkpt>
      <trkpt lat="48.16292" lon="7.07648">
        <ele>969.7</ele>
        <time>2021-08-05T09:30:29Z</time>
      </trkpt>
      <trkpt lat="48.16289" lon="7.07651">
        <ele>970.1</ele>
        <time>2021-08-05T09:30:30Z</time>
      </trkpt>
      <trkpt lat="48.16287" lon="7.07653">
        <ele>970.4</ele>
        <time>2021-08-05T09:30:31Z</time>
      </trkpt>
      <trkpt lat="48.1628" lon="7.07657">
        <ele>971.1</ele>
        <time>2021-08-05T09:30:32Z</time>
      </trkpt>
      <trkpt lat="48.16276" lon="7.0766">
        <ele>971.5</ele>
        <time>2021-08-05T09:30:33Z</time>
      </trkpt>
      <trkpt lat="48.1627" lon="7.07662">
        <ele>972.1</ele>
        <time>2021-08-05T09:30:35Z</time>
      </trkpt>
      <trkpt lat="48.16269" lon="7.07663">
        <ele>972.4</ele>
        <time>2021-08-05T09:30:36Z</time>
      </trkpt>
      <trkpt lat="48.16269" lon="7.07662">
        <ele>972.5</ele>
        <time>2021-08-05T09:30:37Z</time>
      </trkpt>
      <trkpt lat="48.1627" lon="7.07661">
        <ele>972.5</ele>
        <time>2021-08-05T09:30:38Z</time>
      </trkpt>
      <trkpt lat="48.1627" lon="7.0766">
        <ele>972.6</ele>
        <time>2021-08-05T09:30:40Z</time>
      </trkpt>
      <trkpt lat="48.1627" lon="7.07659">
        <ele>972.7</ele>
        <time>2021-08-05T09:30:41Z</time>
      </trkpt>
      <trkpt lat="48.1627" lon="7.07658">
        <ele>972.8</ele>
        <time>2021-08-05T09:30:42Z</time>
      </trkpt>
      <trkpt lat="48.1627" lon="7.07658">
        <ele>972.8</ele>
        <time>2021-08-05T09:30:43Z</time>
      </trkpt>
      <trkpt lat="48.1627" lon="7.07658">
        <ele>972.8</ele>
        <time>2021-08-05T09:30:44Z</time>
      </trkpt>
      <trkpt lat="48.1627" lon="7.07657">
        <ele>972.9</ele>
        <time>2021-08-05T09:30:46Z</time>
      </trkpt>
      <trkpt lat="48.1623" lon="7.07557">
        <ele>980.8</ele>
        <time>2021-08-05T09:32:14Z</time>
      </trkpt>
      <trkpt lat="48.16226" lon="7.07556">
        <ele>980.8</ele>
        <time>2021-08-05T09:32:15Z</time>
      </trkpt>
      <trkpt lat="48.16219" lon="7.07554">
        <ele>980.6</ele>
        <time>2021-08-05T09:32:17Z</time>
      </trkpt>
      <trkpt lat="48.16214" lon="7.07554">
        <ele>980.5</ele>
        <time>2021-08-05T09:32:18Z</time>
      </trkpt>
      <trkpt lat="48.16209" lon="7.07554">
        <ele>980.3</ele>
        <time>2021-08-05T09:32:19Z</time>
      </trkpt>
      <trkpt lat="48.16205" lon="7.07553">
        <ele>980.2</ele>
        <time>2021-08-05T09:32:20Z</time>
      </trkpt>
      <trkpt lat="48.16199" lon="7.07551">
        <ele>979.9</ele>
        <time>2021-08-05T09:32:22Z</time>
      </trkpt>
      <trkpt lat="48.16192" lon="7.07551">
        <ele>979.5</ele>
        <time>2021-08-05T09:32:23Z</time>
      </trkpt>
      <trkpt lat="48.16186" lon="7.0755">
        <ele>979.1</ele>
        <time>2021-08-05T09:32:24Z</time>
      </trkpt>
      <trkpt lat="48.16178" lon="7.07546">
        <ele>978.6</ele>
        <time>2021-08-05T09:32:26Z</time>
      </trkpt>
      <trkpt lat="48.16168" lon="7.07547">
        <ele>977.9</ele>
        <time>2021-08-05T09:32:27Z</time>
      </trkpt>
      <trkpt lat="48.1616" lon="7.07547">
        <ele>977.3</ele>
        <time>2021-08-05T09:32:29Z</time>
      </trkpt>
      <trkpt lat="48.16157" lon="7.07547">
        <ele>977.1</ele>
        <time>2021-08-05T09:32:30Z</time>
      </trkpt>
      <trkpt lat="48.16152" lon="7.07547">
        <ele>976.7</ele>
        <time>2021-08-05T09:32:32Z</time>
      </trkpt>
      <trkpt lat="48.16154" lon="7.07547">
        <ele>976.6</ele>
        <time>2021-08-05T09:32:34Z</time>
      </trkpt>
      <trkpt lat="48.16154" lon="7.07547">
        <ele>976.6</ele>
        <time>2021-08-05T09:32:35Z</time>
      </trkpt>
      <trkpt lat="48.16155" lon="7.07547">
        <ele>976.5</ele>
        <time>2021-08-05T09:32:36Z</time>
      </trkpt>
      <trkpt lat="48.16155" lon="7.07547">
        <ele>976.5</ele>
        <time>2021-08-05T09:32:38Z</time>
      </trkpt>
      <trkpt lat="48.16156" lon="7.07547">
        <ele>976.5</ele>
        <time>2021-08-05T09:32:40Z</time>
      </trkpt>
      <trkpt lat="48.16156" lon="7.07547">
        <ele>976.5</ele>
        <time>2021-08-05T09:32:41Z</time>
      </trkpt>
      <trkpt lat="48.16156" lon="7.07547">
        <ele>976.4</ele>
        <time>2021-08-05T09:32:42Z</time>
      </trkpt>
      <trkpt lat="48.16155" lon="7.07545">
        <ele>976.3</ele>
        <time>2021-08-05T09:32:57Z</time>
      </trkpt>
      <trkpt lat="48.16145" lon="7.07538">
        <ele>975.5</ele>
        <time>2021-08-05T09:32:59Z</time>
      </trkpt>
      <trkpt lat="48.16137" lon="7.07532">
        <ele>974.9</ele>
        <time>2021-08-05T09:33:00Z</time>
      </trkpt>
      <trkpt lat="48.16122" lon="7.0752">
        <ele>973.6</ele>
        <time>2021-08-05T09:33:01Z</time>
      </trkpt>
      <trkpt lat="48.16115" lon="7.07518">
        <ele>973.1</ele>
        <time>2021-08-05T09:33:02Z</time>
      </trkpt>
      <trkpt lat="48.16107" lon="7.07518">
        <ele>972.5</ele>
        <time>2021-08-05T09:33:04Z</time>
      </trkpt>
      <trkpt lat="48.16105" lon="7.0752">
        <ele>972.3</ele>
        <time>2021-08-05T09:33:05Z</time>
      </trkpt>
      <trkpt lat="48.16102" lon="7.0752">
        <ele>972.2</ele>
        <time>2021-08-05T09:33:06Z</time>
      </trkpt>
      <trkpt lat="48.16096" lon="7.0752">
        <ele>971.9</ele>
        <time>2021-08-05T09:33:08Z</time>
      </trkpt>
      <trkpt lat="48.16089" lon="7.07519">
        <ele>971.6</ele>
        <time>2021-08-05T09:33:09Z</time>
      </trkpt>
      <trkpt lat="48.16083" lon="7.07517">
        <ele>971.5</ele>
        <time>2021-08-05T09:33:10Z</time>
      </trkpt>
      <trkpt lat="48.16079" lon="7.07515">
        <ele>971.4</ele>
        <time>2021-08-05T09:33:11Z</time>
      </trkpt>
      <trkpt lat="48.16074" lon="7.07514">
        <ele>971.4</ele>
        <time>2021-08-05T09:33:13Z</time>
      </trkpt>
      <trkpt lat="48.16071" lon="7.07515">
        <ele>971.5</ele>
        <time>2021-08-05T09:33:14Z</time>
      </trkpt>
      <trkpt lat="48.16067" lon="7.07515">
        <ele>971.5</ele>
        <time>2021-08-05T09:33:15Z</time>
      </trkpt>
      <trkpt lat="48.16062" lon="7.07512">
        <ele>971.7</ele>
        <time>2021-08-05T09:33:17Z</time>
      </trkpt>
      <trkpt lat="48.16057" lon="7.0751">
        <ele>971.8</ele>
        <time>2021-08-05T09:33:19Z</time>
      </trkpt>
      <trkpt lat="48.16054" lon="7.07509">
        <ele>972</ele>
        <time>2021-08-05T09:33:20Z</time>
      </trkpt>
      <trkpt lat="48.16049" lon="7.07507">
        <ele>972.2</ele>
        <time>2021-08-05T09:33:22Z</time>
      </trkpt>
      <trkpt lat="48.16046" lon="7.07504">
        <ele>972.4</ele>
        <time>2021-08-05T09:33:23Z</time>
      </trkpt>
      <trkpt lat="48.16044" lon="7.07502">
        <ele>972.5</ele>
        <time>2021-08-05T09:33:25Z</time>
      </trkpt>
      <trkpt lat="48.16044" lon="7.07501">
        <ele>972.5</ele>
        <time>2021-08-05T09:33:26Z</time>
      </trkpt>
      <trkpt lat="48.16046" lon="7.07499">
        <ele>972.6</ele>
        <time>2021-08-05T09:33:28Z</time>
      </trkpt>
      <trkpt lat="48.16046" lon="7.07499">
        <ele>972.6</ele>
        <time>2021-08-05T09:33:29Z</time>
      </trkpt>
      <trkpt lat="48.16045" lon="7.07498">
        <ele>972.7</ele>
        <time>2021-08-05T09:33:31Z</time>
      </trkpt>
      <trkpt lat="48.16044" lon="7.07497">
        <ele>972.7</ele>
        <time>2021-08-05T09:33:32Z</time>
      </trkpt>
      <trkpt lat="48.16043" lon="7.07495">
        <ele>972.8</ele>
        <time>2021-08-05T09:33:34Z</time>
      </trkpt>
      <trkpt lat="48.16041" lon="7.07494">
        <ele>972.9</ele>
        <time>2021-08-05T09:33:36Z</time>
      </trkpt>
      <trkpt lat="48.16029" lon="7.07485">
        <ele>973.4</ele>
        <time>2021-08-05T09:33:42Z</time>
      </trkpt>
      <trkpt lat="48.16026" lon="7.07483">
        <ele>973.5</ele>
        <time>2021-08-05T09:33:43Z</time>
      </trkpt>
      <trkpt lat="48.16024" lon="7.07481">
        <ele>973.5</ele>
        <time>2021-08-05T09:33:44Z</time>
      </trkpt>
      <trkpt lat="48.16015" lon="7.07474">
        <ele>973.7</ele>
        <time>2021-08-05T09:33:46Z</time>
      </trkpt>
      <trkpt lat="48.16007" lon="7.07467">
        <ele>973.6</ele>
        <time>2021-08-05T09:33:48Z</time>
      </trkpt>
      <trkpt lat="48.16004" lon="7.07463">
        <ele>973.6</ele>
        <time>2021-08-05T09:33:49Z</time>
      </trkpt>
      <trkpt lat="48.16001" lon="7.0746">
        <ele>973.5</ele>
        <time>2021-08-05T09:33:51Z</time>
      </trkpt>
      <trkpt lat="48.15998" lon="7.07458">
        <ele>973.5</ele>
        <time>2021-08-05T09:33:52Z</time>
      </trkpt>
      <trkpt lat="48.15997" lon="7.07457">
        <ele>973.4</ele>
        <time>2021-08-05T09:33:53Z</time>
      </trkpt>
      <trkpt lat="48.15668" lon="7.07126">
        <ele>1001.8</ele>
        <time>2021-08-05T09:40:17Z</time>
      </trkpt>
      <trkpt lat="48.15659" lon="7.07131">
        <ele>1003.1</ele>
        <time>2021-08-05T09:40:19Z</time>
      </trkpt>
      <trkpt lat="48.15655" lon="7.07133">
        <ele>1003.6</ele>
        <time>2021-08-05T09:40:20Z</time>
      </trkpt>
      <trkpt lat="48.15653" lon="7.07133">
        <ele>1004</ele>
        <time>2021-08-05T09:40:21Z</time>
      </trkpt>
      <trkpt lat="48.15649" lon="7.07131">
        <ele>1004.6</ele>
        <time>2021-08-05T09:40:23Z</time>
      </trkpt>
      <trkpt lat="48.15646" lon="7.0713">
        <ele>1005</ele>
        <time>2021-08-05T09:40:24Z</time>
      </trkpt>
      <trkpt lat="48.15644" lon="7.0713">
        <ele>1005.3</ele>
        <time>2021-08-05T09:40:25Z</time>
      </trkpt>
      <trkpt lat="48.15642" lon="7.07131">
        <ele>1005.6</ele>
        <time>2021-08-05T09:40:26Z</time>
      </trkpt>
      <trkpt lat="48.1564" lon="7.07131">
        <ele>1005.9</ele>
        <time>2021-08-05T09:40:28Z</time>
      </trkpt>
      <trkpt lat="48.15637" lon="7.07132">
        <ele>1006.3</ele>
        <time>2021-08-05T09:40:29Z</time>
      </trkpt>
      <trkpt lat="48.15635" lon="7.07132">
        <ele>1006.6</ele>
        <time>2021-08-05T09:40:30Z</time>
      </trkpt>
      <trkpt lat="48.15633" lon="7.07133">
        <ele>1006.9</ele>
        <time>2021-08-05T09:40:31Z</time>
      </trkpt>
      <trkpt lat="48.15631" lon="7.07134">
        <ele>1007.2</ele>
        <time>2021-08-05T09:40:32Z</time>
      </trkpt>
      <trkpt lat="48.15629" lon="7.07134">
        <ele>1007.5</ele>
        <time>2021-08-05T09:40:34Z</time>
      </trkpt>
      <trkpt lat="48.15627" lon="7.07135">
        <ele>1007.7</ele>
        <time>2021-08-05T09:41:27Z</time>
      </trkpt>
      <trkpt lat="48.15625" lon="7.07135">
        <ele>1008</ele>
        <time>2021-08-05T09:41:28Z</time>
      </trkpt>
      <trkpt lat="48.15622" lon="7.07135">
        <ele>1008.2</ele>
        <time>2021-08-05T09:41:29Z</time>
      </trkpt>
      <trkpt lat="48.15619" lon="7.07135">
        <ele>1008.6</ele>
        <time>2021-08-05T09:41:31Z</time>
      </trkpt>
      <trkpt lat="48.15619" lon="7.07132">
        <ele>1008.7</ele>
        <time>2021-08-05T09:41:33Z</time>
      </trkpt>
      <trkpt lat="48.15618" lon="7.07131">
        <ele>1008.8</ele>
        <time>2021-08-05T09:41:34Z</time>
      </trkpt>
      <trkpt lat="48.15618" lon="7.0713">
        <ele>1008.8</ele>
        <time>2021-08-05T09:41:36Z</time>
      </trkpt>
      <trkpt lat="48.15618" lon="7.07128">
        <ele>1008.9</ele>
        <time>2021-08-05T09:41:37Z</time>
      </trkpt>
      <trkpt lat="48.15618" lon="7.07126">
        <ele>1009</ele>
        <time>2021-08-05T09:41:39Z</time>
      </trkpt>
      <trkpt lat="48.15618" lon="7.07125">
        <ele>1009</ele>
        <time>2021-08-05T09:41:40Z</time>
      </trkpt>
      <trkpt lat="48.15619" lon="7.07124">
        <ele>1009.1</ele>
        <time>2021-08-05T09:41:41Z</time>
      </trkpt>
      <trkpt lat="48.15619" lon="7.07123">
        <ele>1009.1</ele>
        <time>2021-08-05T09:41:43Z</time>
      </trkpt>
      <trkpt lat="48.15619" lon="7.07123">
        <ele>1009.2</ele>
        <time>2021-08-05T09:41:44Z</time>
      </trkpt>
      <trkpt lat="48.15623" lon="7.07117">
        <ele>1009.4</ele>
        <time>2021-08-05T09:41:45Z</time>
      </trkpt>
      <trkpt lat="48.15627" lon="7.07112">
        <ele>1009.4</ele>
        <time>2021-08-05T09:41:46Z</time>
      </trkpt>
      <trkpt lat="48.15631" lon="7.07106">
        <ele>1009.4</ele>
        <time>2021-08-05T09:41:47Z</time>
      </trkpt>
      <trkpt lat="48.15632" lon="7.07103">
        <ele>1009.3</ele>
        <time>2021-08-05T09:41:49Z</time>
      </trkpt>
      <trkpt lat="48.15631" lon="7.07102">
        <ele>1009.3</ele>
        <time>2021-08-05T09:41:50Z</time>
      </trkpt>
      <trkpt lat="48.15629" lon="7.07101">
        <ele>1009.3</ele>
        <time>2021-08-05T09:41:52Z</time>
      </trkpt>
      <trkpt lat="48.15626" lon="7.071">
        <ele>1009.1</ele>
        <time>2021-08-05T09:41:54Z</time>
      </trkpt>
      <trkpt lat="48.15622" lon="7.071">
        <ele>1008.9</ele>
        <time>2021-08-05T09:41:55Z</time>
      </trkpt>
      <trkpt lat="48.15618" lon="7.071">
        <ele>1008.7</ele>
        <time>2021-08-05T09:41:56Z</time>
      </trkpt>
      <trkpt lat="48.15612" lon="7.07102">
        <ele>1008.3</ele>
        <time>2021-08-05T09:41:57Z</time>
      </trkpt>
      <trkpt lat="48.1561" lon="7.07104">
        <ele>1008.2</ele>
        <time>2021-08-05T09:41:58Z</time>
      </trkpt>
      <trkpt lat="48.15607" lon="7.07104">
        <ele>1008</ele>
        <time>2021-08-05T09:42:00Z</time>
      </trkpt>
      <trkpt lat="48.15603" lon="7.07103">
        <ele>1007.7</ele>
        <time>2021-08-05T09:42:01Z</time>
      </trkpt>
      <trkpt lat="48.15599" lon="7.07104">
        <ele>1007.4</ele>
        <time>2021-08-05T09:42:03Z</time>
      </trkpt>
      <trkpt lat="48.15596" lon="7.07105">
        <ele>1007.1</ele>
        <time>2021-08-05T09:42:04Z</time>
      </trkpt>
      <trkpt lat="48.15592" lon="7.07106">
        <ele>1006.7</ele>
        <time>2021-08-05T09:42:05Z</time>
      </trkpt>
      <trkpt lat="48.15588" lon="7.07107">
        <ele>1006.3</ele>
        <time>2021-08-05T09:42:06Z</time>
      </trkpt>
      <trkpt lat="48.15583" lon="7.07108">
        <ele>1005.8</ele>
        <time>2021-08-05T09:42:08Z</time>
      </trkpt>
      <trkpt lat="48.15574" lon="7.07107">
        <ele>1004.8</ele>
        <time>2021-08-05T09:42:09Z</time>
      </trkpt>
      <trkpt lat="48.1557" lon="7.0711">
        <ele>1004.4</ele>
        <time>2021-08-05T09:42:11Z</time>
      </trkpt>
      <trkpt lat="48.15564" lon="7.07112">
        <ele>1003.8</ele>
        <time>2021-08-05T09:42:12Z</time>
      </trkpt>
      <trkpt lat="48.15559" lon="7.07112">
        <ele>1003.3</ele>
        <time>2021-08-05T09:42:13Z</time>
      </trkpt>
      <trkpt lat="48.15554" lon="7.07113">
        <ele>1002.9</ele>
        <time>2021-08-05T09:42:15Z</time>
      </trkpt>
      <trkpt lat="48.1555" lon="7.07114">
        <ele>1002.6</ele>
        <time>2021-08-05T09:42:16Z</time>
      </trkpt>
      <trkpt lat="48.15547" lon="7.07115">
        <ele>1002.2</ele>
        <time>2021-08-05T09:42:17Z</time>
      </trkpt>
      <trkpt lat="48.15541" lon="7.07116">
        <ele>1001.8</ele>
        <time>2021-08-05T09:42:18Z</time>
      </trkpt>
      <trkpt lat="48.15538" lon="7.07116">
        <ele>1001.4</ele>
        <time>2021-08-05T09:42:19Z</time>
      </trkpt>
      <trkpt lat="48.15533" lon="7.07117">
        <ele>1000.9</ele>
        <time>2021-08-05T09:42:20Z</time>
      </trkpt>
      <trkpt lat="48.15529" lon="7.0712">
        <ele>1000.3</ele>
        <time>2021-08-05T09:42:22Z</time>
      </trkpt>
      <trkpt lat="48.15525" lon="7.07123">
        <ele>999.8</ele>
        <time>2021-08-05T09:42:23Z</time>
      </trkpt>
      <trkpt lat="48.15521" lon="7.07124">
        <ele>999.1</ele>
        <time>2021-08-05T09:42:24Z</time>
      </trkpt>
      <trkpt lat="48.15515" lon="7.07126">
        <ele>998.2</ele>
        <time>2021-08-05T09:42:26Z</time>
      </trkpt>
      <trkpt lat="48.1551" lon="7.07127">
        <ele>997.5</ele>
        <time>2021-08-05T09:42:27Z</time>
      </trkpt>
      <trkpt lat="48.15506" lon="7.07128">
        <ele>996.9</ele>
        <time>2021-08-05T09:42:29Z</time>
      </trkpt>
      <trkpt lat="48.15503" lon="7.07127">
        <ele>996.3</ele>
        <time>2021-08-05T09:42:30Z</time>
      </trkpt>
      <trkpt lat="48.15498" lon="7.07126">
        <ele>995.7</ele>
        <time>2021-08-05T09:42:31Z</time>
      </trkpt>
      <trkpt lat="48.15495" lon="7.07126">
        <ele>995.1</ele>
        <time>2021-08-05T09:42:32Z</time>
      </trkpt>
      <trkpt lat="48.15489" lon="7.07126">
        <ele>994.3</ele>
        <time>2021-08-05T09:42:34Z</time>
      </trkpt>
      <trkpt lat="48.15486" lon="7.07126">
        <ele>993.7</ele>
        <time>2021-08-05T09:42:35Z</time>
      </trkpt>
      <trkpt lat="48.15481" lon="7.07125">
        <ele>993.1</ele>
        <time>2021-08-05T09:42:36Z</time>
      </trkpt>
      <trkpt lat="48.15477" lon="7.07124">
        <ele>992.5</ele>
        <time>2021-08-05T09:42:37Z</time>
      </trkpt>
      <trkpt lat="48.15472" lon="7.07123">
        <ele>991.8</ele>
        <time>2021-08-05T09:42:38Z</time>
      </trkpt>
      <trkpt lat="48.15467" lon="7.07121">
        <ele>991.1</ele>
        <time>2021-08-05T09:42:40Z</time>
      </trkpt>
      <trkpt lat="48.15462" lon="7.07118">
        <ele>990.5</ele>
        <time>2021-08-05T09:42:41Z</time>
      </trkpt>
      <trkpt lat="48.15458" lon="7.07116">
        <ele>989.8</ele>
        <time>2021-08-05T09:42:42Z</time>
      </trkpt>
      <trkpt lat="48.15452" lon="7.07113">
        <ele>989.1</ele>
        <time>2021-08-05T09:42:43Z</time>
      </trkpt>
      <trkpt lat="48.15446" lon="7.0711">
        <ele>988.2</ele>
        <time>2021-08-05T09:42:45Z</time>
      </trkpt>
      <trkpt lat="48.15437" lon="7.07107">
        <ele>986.9</ele>
        <time>2021-08-05T09:42:46Z</time>
      </trkpt>
      <trkpt lat="48.15432" lon="7.07106">
        <ele>986.2</ele>
        <time>2021-08-05T09:42:47Z</time>
      </trkpt>
      <trkpt lat="48.1542" lon="7.07102">
        <ele>984.6</ele>
        <time>2021-08-05T09:42:49Z</time>
      </trkpt>
      <trkpt lat="48.15413" lon="7.07101">
        <ele>983.8</ele>
        <time>2021-08-05T09:42:50Z</time>
      </trkpt>
      <trkpt lat="48.15401" lon="7.07098">
        <ele>982.4</ele>
        <time>2021-08-05T09:42:52Z</time>
      </trkpt>
      <trkpt lat="48.15396" lon="7.07096">
        <ele>981.9</ele>
        <time>2021-08-05T09:42:53Z</time>
      </trkpt>
      <trkpt lat="48.1539" lon="7.07094">
        <ele>981.4</ele>
        <time>2021-08-05T09:42:54Z</time>
      </trkpt>
      <trkpt lat="48.15385" lon="7.07092">
        <ele>980.9</ele>
        <time>2021-08-05T09:42:55Z</time>
      </trkpt>
      <trkpt lat="48.1538" lon="7.07091">
        <ele>980.6</ele>
        <time>2021-08-05T09:42:56Z</time>
      </trkpt>
      <trkpt lat="48.15369" lon="7.0709">
        <ele>979.9</ele>
        <time>2021-08-05T09:42:58Z</time>
      </trkpt>
      <trkpt lat="48.15363" lon="7.07089">
        <ele>979.7</ele>
        <time>2021-08-05T09:42:59Z</time>
      </trkpt>
      <trkpt lat="48.15358" lon="7.07089">
        <ele>979.4</ele>
        <time>2021-08-05T09:43:00Z</time>
      </trkpt>
      <trkpt lat="48.15347" lon="7.07089">
        <ele>979.1</ele>
        <time>2021-08-05T09:43:02Z</time>
      </trkpt>
      <trkpt lat="48.15338" lon="7.07088">
        <ele>978.9</ele>
        <time>2021-08-05T09:43:04Z</time>
      </trkpt>
      <trkpt lat="48.1533" lon="7.0709">
        <ele>978.8</ele>
        <time>2021-08-05T09:43:06Z</time>
      </trkpt>
      <trkpt lat="48.15326" lon="7.07092">
        <ele>978.8</ele>
        <time>2021-08-05T09:43:08Z</time>
      </trkpt>
      <trkpt lat="48.15323" lon="7.07093">
        <ele>978.7</ele>
        <time>2021-08-05T09:43:10Z</time>
      </trkpt>
      <trkpt lat="48.15323" lon="7.07093">
        <ele>978.7</ele>
        <time>2021-08-05T09:43:11Z</time>
      </trkpt>
      <trkpt lat="48.15323" lon="7.07092">
        <ele>978.7</ele>
        <time>2021-08-05T09:43:12Z</time>
      </trkpt>
      <trkpt lat="48.15321" lon="7.07093">
        <ele>978.7</ele>
        <time>2021-08-05T09:43:14Z</time>
      </trkpt>
      <trkpt lat="48.1532" lon="7.07095">
        <ele>978.6</ele>
        <time>2021-08-05T09:43:15Z</time>
      </trkpt>
      <trkpt lat="48.1532" lon="7.07096">
        <ele>978.6</ele>
        <time>2021-08-05T09:43:16Z</time>
      </trkpt>
      <trkpt lat="48.15321" lon="7.07096">
        <ele>978.6</ele>
        <time>2021-08-05T09:43:17Z</time>
      </trkpt>
      <trkpt lat="48.15323" lon="7.07098">
        <ele>978.6</ele>
        <time>2021-08-05T09:43:19Z</time>
      </trkpt>
      <trkpt lat="48.15324" lon="7.07097">
        <ele>978.6</ele>
        <time>2021-08-05T09:43:20Z</time>
      </trkpt>
      <trkpt lat="48.15326" lon="7.07096">
        <ele>978.5</ele>
        <time>2021-08-05T09:43:21Z</time>
      </trkpt>
      <trkpt lat="48.15326" lon="7.07094">
        <ele>978.5</ele>
        <time>2021-08-05T09:43:23Z</time>
      </trkpt>
      <trkpt lat="48.15325" lon="7.07092">
        <ele>978.4</ele>
        <time>2021-08-05T09:43:24Z</time>
      </trkpt>
      <trkpt lat="48.15322" lon="7.07089">
        <ele>978.3</ele>
        <time>2021-08-05T09:43:25Z</time>
      </trkpt>
      <trkpt lat="48.15319" lon="7.07087">
        <ele>978.2</ele>
        <time>2021-08-05T09:43:26Z</time>
      </trkpt>
      <trkpt lat="48.15316" lon="7.07082">
        <ele>978.2</ele>
        <time>2021-08-05T09:43:28Z</time>
      </trkpt>
      <trkpt lat="48.15311" lon="7.07077">
        <ele>978.2</ele>
        <time>2021-08-05T09:43:30Z</time>
      </trkpt>
      <trkpt lat="48.15307" lon="7.07076">
        <ele>978.2</ele>
        <time>2021-08-05T09:43:31Z</time>
      </trkpt>
      <trkpt lat="48.15305" lon="7.07073">
        <ele>978.2</ele>
        <time>2021-08-05T09:43:33Z</time>
      </trkpt>
      <trkpt lat="48.15304" lon="7.07067">
        <ele>978.2</ele>
        <time>2021-08-05T09:43:34Z</time>
      </trkpt>
      <trkpt lat="48.15302" lon="7.07064">
        <ele>978.2</ele>
        <time>2021-08-05T09:43:36Z</time>
      </trkpt>
      <trkpt lat="48.15299" lon="7.07058">
        <ele>978.3</ele>
        <time>2021-08-05T09:43:37Z</time>
      </trkpt>
      <trkpt lat="48.15297" lon="7.07054">
        <ele>978.4</ele>
        <time>2021-08-05T09:43:39Z</time>
      </trkpt>
      <trkpt lat="48.15295" lon="7.07051">
        <ele>978.4</ele>
        <time>2021-08-05T09:43:41Z</time>
      </trkpt>
      <trkpt lat="48.15293" lon="7.07048">
        <ele>978.5</ele>
        <time>2021-08-05T09:43:42Z</time>
      </trkpt>
      <trkpt lat="48.15292" lon="7.07043">
        <ele>978.6</ele>
        <time>2021-08-05T09:43:43Z</time>
      </trkpt>
      <trkpt lat="48.15291" lon="7.07042">
        <ele>978.6</ele>
        <time>2021-08-05T09:43:44Z</time>
      </trkpt>
      <trkpt lat="48.1529" lon="7.0704">
        <ele>978.6</ele>
        <time>2021-08-05T09:43:45Z</time>
      </trkpt>
      <trkpt lat="48.1529" lon="7.07038">
        <ele>978.7</ele>
        <time>2021-08-05T09:43:46Z</time>
      </trkpt>
      <trkpt lat="48.15289" lon="7.07035">
        <ele>978.7</ele>
        <time>2021-08-05T09:43:47Z</time>
      </trkpt>
      <trkpt lat="48.15288" lon="7.07033">
        <ele>978.8</ele>
        <time>2021-08-05T09:43:49Z</time>
      </trkpt>
      <trkpt lat="48.15288" lon="7.07033">
        <ele>978.8</ele>
        <time>2021-08-05T09:43:50Z</time>
      </trkpt>
      <trkpt lat="48.15288" lon="7.07033">
        <ele>978.8</ele>
        <time>2021-08-05T09:43:51Z</time>
      </trkpt>
      <trkpt lat="48.15287" lon="7.07032">
        <ele>978.8</ele>
        <time>2021-08-05T09:43:52Z</time>
      </trkpt>
      <trkpt lat="48.15286" lon="7.0703">
        <ele>978.8</ele>
        <time>2021-08-05T09:43:53Z</time>
      </trkpt>
      <trkpt lat="48.15283" lon="7.07029">
        <ele>978.9</ele>
        <time>2021-08-05T09:43:54Z</time>
      </trkpt>
      <trkpt lat="48.15282" lon="7.07028">
        <ele>978.9</ele>
        <time>2021-08-05T09:43:55Z</time>
      </trkpt>
      <trkpt lat="48.15278" lon="7.07026">
        <ele>979</ele>
        <time>2021-08-05T09:43:57Z</time>
      </trkpt>
      <trkpt lat="48.15275" lon="7.07024">
        <ele>979.1</ele>
        <time>2021-08-05T09:43:58Z</time>
      </trkpt>
      <trkpt lat="48.15274" lon="7.07023">
        <ele>979.1</ele>
        <time>2021-08-05T09:43:59Z</time>
      </trkpt>
      <trkpt lat="48.15274" lon="7.07021">
        <ele>979.1</ele>
        <time>2021-08-05T09:44:00Z</time>
      </trkpt>
      <trkpt lat="48.15273" lon="7.07018">
        <ele>979.1</ele>
        <time>2021-08-05T09:44:02Z</time>
      </trkpt>
      <trkpt lat="48.15273" lon="7.07016">
        <ele>979.1</ele>
        <time>2021-08-05T09:44:03Z</time>
      </trkpt>
      <trkpt lat="48.15271" lon="7.07014">
        <ele>979.2</ele>
        <time>2021-08-05T09:44:04Z</time>
      </trkpt>
      <trkpt lat="48.15269" lon="7.0701">
        <ele>979.2</ele>
        <time>2021-08-05T09:44:05Z</time>
      </trkpt>
      <trkpt lat="48.15266" lon="7.07008">
        <ele>979.2</ele>
        <time>2021-08-05T09:44:06Z</time>
      </trkpt>
      <trkpt lat="48.15264" lon="7.07003">
        <ele>979.3</ele>
        <time>2021-08-05T09:44:08Z</time>
      </trkpt>
      <trkpt lat="48.15263" lon="7.07001">
        <ele>979.3</ele>
        <time>2021-08-05T09:44:09Z</time>
      </trkpt>
      <trkpt lat="48.15263" lon="7.06999">
        <ele>979.3</ele>
        <time>2021-08-05T09:44:10Z</time>
      </trkpt>
      <trkpt lat="48.15262" lon="7.06998">
        <ele>979.3</ele>
        <time>2021-08-05T09:44:11Z</time>
      </trkpt>
      <trkpt lat="48.1526" lon="7.06997">
        <ele>979.3</ele>
        <time>2021-08-05T09:44:13Z</time>
      </trkpt>
      <trkpt lat="48.15257" lon="7.06996">
        <ele>979.4</ele>
        <time>2021-08-05T09:44:14Z</time>
      </trkpt>
      <trkpt lat="48.15255" lon="7.06996">
        <ele>979.4</ele>
        <time>2021-08-05T09:44:16Z</time>
      </trkpt>
      <trkpt lat="48.15255" lon="7.06996">
        <ele>979.4</ele>
        <time>2021-08-05T09:44:17Z</time>
      </trkpt>
      <trkpt lat="48.15255" lon="7.06995">
        <ele>979.4</ele>
        <time>2021-08-05T09:44:18Z</time>
      </trkpt>
      <trkpt lat="48.15254" lon="7.06995">
        <ele>979.4</ele>
        <time>2021-08-05T09:44:20Z</time>
      </trkpt>
      <trkpt lat="48.15253" lon="7.06995">
        <ele>979.4</ele>
        <time>2021-08-05T09:44:21Z</time>
      </trkpt>
      <trkpt lat="48.15252" lon="7.06994">
        <ele>979.5</ele>
        <time>2021-08-05T09:44:22Z</time>
      </trkpt>
      <trkpt lat="48.15249" lon="7.06993">
        <ele>979.5</ele>
        <time>2021-08-05T09:44:24Z</time>
      </trkpt>
      <trkpt lat="48.15242" lon="7.06989">
        <ele>979.6</ele>
        <time>2021-08-05T09:44:28Z</time>
      </trkpt>
      <trkpt lat="48.15239" lon="7.06987">
        <ele>979.7</ele>
        <time>2021-08-05T09:44:29Z</time>
      </trkpt>
      <trkpt lat="48.15238" lon="7.06987">
        <ele>979.7</ele>
        <time>2021-08-05T09:44:30Z</time>
      </trkpt>
      <trkpt lat="48.15237" lon="7.06985">
        <ele>979.7</ele>
        <time>2021-08-05T09:44:32Z</time>
      </trkpt>
      <trkpt lat="48.15236" lon="7.06984">
        <ele>979.8</ele>
        <time>2021-08-05T09:44:33Z</time>
      </trkpt>
      <trkpt lat="48.15235" lon="7.06984">
        <ele>979.8</ele>
        <time>2021-08-05T09:44:34Z</time>
      </trkpt>
      <trkpt lat="48.15234" lon="7.06983">
        <ele>979.8</ele>
        <time>2021-08-05T09:44:35Z</time>
      </trkpt>
      <trkpt lat="48.15233" lon="7.06983">
        <ele>979.8</ele>
        <time>2021-08-05T09:44:36Z</time>
      </trkpt>
      <trkpt lat="48.15232" lon="7.06983">
        <ele>979.8</ele>
        <time>2021-08-05T09:44:38Z</time>
      </trkpt>
      <trkpt lat="48.15232" lon="7.06983">
        <ele>979.9</ele>
        <time>2021-08-05T09:44:40Z</time>
      </trkpt>
      <trkpt lat="48.15231" lon="7.06983">
        <ele>979.9</ele>
        <time>2021-08-05T09:44:41Z</time>
      </trkpt>
      <trkpt lat="48.15231" lon="7.06983">
        <ele>979.9</ele>
        <time>2021-08-05T09:44:42Z</time>
      </trkpt>
      <trkpt lat="48.1523" lon="7.06982">
        <ele>979.9</ele>
        <time>2021-08-05T09:44:44Z</time>
      </trkpt>
      <trkpt lat="48.1523" lon="7.06982">
        <ele>979.9</ele>
        <time>2021-08-05T09:44:45Z</time>
      </trkpt>
      <trkpt lat="48.15229" lon="7.06981">
        <ele>979.9</ele>
        <time>2021-08-05T09:44:46Z</time>
      </trkpt>
      <trkpt lat="48.15229" lon="7.0698">
        <ele>980</ele>
        <time>2021-08-05T09:44:47Z</time>
      </trkpt>
      <trkpt lat="48.15228" lon="7.06978">
        <ele>980</ele>
        <time>2021-08-05T09:44:49Z</time>
      </trkpt>
      <trkpt lat="48.15226" lon="7.06974">
        <ele>980.1</ele>
        <time>2021-08-05T09:44:50Z</time>
      </trkpt>
      <trkpt lat="48.15225" lon="7.06972">
        <ele>980.2</ele>
        <time>2021-08-05T09:44:51Z</time>
      </trkpt>
      <trkpt lat="48.15224" lon="7.06967">
        <ele>980.3</ele>
        <time>2021-08-05T09:44:53Z</time>
      </trkpt>
      <trkpt lat="48.15224" lon="7.06965">
        <ele>980.3</ele>
        <time>2021-08-05T09:44:54Z</time>
      </trkpt>
      <trkpt lat="48.15223" lon="7.06963">
        <ele>980.4</ele>
        <time>2021-08-05T09:44:55Z</time>
      </trkpt>
      <trkpt lat="48.15223" lon="7.06961">
        <ele>980.5</ele>
        <time>2021-08-05T09:44:57Z</time>
      </trkpt>
      <trkpt lat="48.15222" lon="7.0696">
        <ele>980.5</ele>
        <time>2021-08-05T09:44:58Z</time>
      </trkpt>
      <trkpt lat="48.15222" lon="7.06959">
        <ele>980.6</ele>
        <time>2021-08-05T09:44:59Z</time>
      </trkpt>
      <trkpt lat="48.1522" lon="7.06957">
        <ele>980.6</ele>
        <time>2021-08-05T09:45:01Z</time>
      </trkpt>
      <trkpt lat="48.15218" lon="7.06956">
        <ele>980.7</ele>
        <time>2021-08-05T09:45:02Z</time>
      </trkpt>
      <trkpt lat="48.15217" lon="7.06956">
        <ele>980.8</ele>
        <time>2021-08-05T09:45:03Z</time>
      </trkpt>
      <trkpt lat="48.15215" lon="7.06957">
        <ele>980.9</ele>
        <time>2021-08-05T09:45:04Z</time>
      </trkpt>
      <trkpt lat="48.15213" lon="7.06957">
        <ele>981</ele>
        <time>2021-08-05T09:45:06Z</time>
      </trkpt>
      <trkpt lat="48.15213" lon="7.06957">
        <ele>981</ele>
        <time>2021-08-05T09:45:07Z</time>
      </trkpt>
      <trkpt lat="48.15212" lon="7.06958">
        <ele>981.1</ele>
        <time>2021-08-05T09:45:08Z</time>
      </trkpt>
      <trkpt lat="48.15211" lon="7.06958">
        <ele>981.1</ele>
        <time>2021-08-05T09:45:10Z</time>
      </trkpt>
      <trkpt lat="48.15211" lon="7.06958">
        <ele>981.1</ele>
        <time>2021-08-05T09:45:11Z</time>
      </trkpt>
      <trkpt lat="48.1521" lon="7.06957">
        <ele>981.2</ele>
        <time>2021-08-05T09:45:12Z</time>
      </trkpt>
      <trkpt lat="48.15207" lon="7.06955">
        <ele>981.4</ele>
        <time>2021-08-05T09:45:14Z</time>
      </trkpt>
      <trkpt lat="48.15206" lon="7.06955">
        <ele>981.4</ele>
        <time>2021-08-05T09:45:15Z</time>
      </trkpt>
      <trkpt lat="48.15203" lon="7.06953">
        <ele>981.6</ele>
        <time>2021-08-05T09:45:16Z</time>
      </trkpt>
      <trkpt lat="48.15202" lon="7.06953">
        <ele>981.7</ele>
        <time>2021-08-05T09:45:17Z</time>
      </trkpt>
      <trkpt lat="48.15197" lon="7.06952">
        <ele>982.1</ele>
        <time>2021-08-05T09:45:19Z</time>
      </trkpt>
      <trkpt lat="48.15196" lon="7.06952">
        <ele>982.2</ele>
        <time>2021-08-05T09:45:20Z</time>
      </trkpt>
      <trkpt lat="48.15194" lon="7.06952">
        <ele>982.3</ele>
        <time>2021-08-05T09:45:21Z</time>
      </trkpt>
      <trkpt lat="48.15191" lon="7.06951">
        <ele>982.6</ele>
        <time>2021-08-05T09:45:23Z</time>
      </trkpt>
      <trkpt lat="48.1519" lon="7.06951">
        <ele>982.6</ele>
        <time>2021-08-05T09:45:24Z</time>
      </trkpt>
      <trkpt lat="48.15188" lon="7.0695">
        <ele>982.8</ele>
        <time>2021-08-05T09:45:25Z</time>
      </trkpt>
      <trkpt lat="48.15186" lon="7.0695">
        <ele>983</ele>
        <time>2021-08-05T09:45:27Z</time>
      </trkpt>
      <trkpt lat="48.15185" lon="7.06949">
        <ele>983.1</ele>
        <time>2021-08-05T09:45:28Z</time>
      </trkpt>
      <trkpt lat="48.15183" lon="7.06949">
        <ele>983.2</ele>
        <time>2021-08-05T09:45:29Z</time>
      </trkpt>
      <trkpt lat="48.15181" lon="7.06948">
        <ele>983.5</ele>
        <time>2021-08-05T09:45:31Z</time>
      </trkpt>
      <trkpt lat="48.15179" lon="7.06947">
        <ele>983.6</ele>
        <time>2021-08-05T09:45:33Z</time>
      </trkpt>
      <trkpt lat="48.15177" lon="7.06947">
        <ele>983.8</ele>
        <time>2021-08-05T09:45:34Z</time>
      </trkpt>
      <trkpt lat="48.15176" lon="7.06946">
        <ele>983.9</ele>
        <time>2021-08-05T09:45:35Z</time>
      </trkpt>
      <trkpt lat="48.15175" lon="7.06945">
        <ele>984</ele>
        <time>2021-08-05T09:45:37Z</time>
      </trkpt>
      <trkpt lat="48.15174" lon="7.06944">
        <ele>984.1</ele>
        <time>2021-08-05T09:45:38Z</time>
      </trkpt>
      <trkpt lat="48.15174" lon="7.06943">
        <ele>984.2</ele>
        <time>2021-08-05T09:45:39Z</time>
      </trkpt>
      <trkpt lat="48.15173" lon="7.06943">
        <ele>984.2</ele>
        <time>2021-08-05T09:45:41Z</time>
      </trkpt>
      <trkpt lat="48.15173" lon="7.06942">
        <ele>984.3</ele>
        <time>2021-08-05T09:45:43Z</time>
      </trkpt>
      <trkpt lat="48.15172" lon="7.06942">
        <ele>984.3</ele>
        <time>2021-08-05T09:45:44Z</time>
      </trkpt>
      <trkpt lat="48.15172" lon="7.06942">
        <ele>984.3</ele>
        <time>2021-08-05T09:45:45Z</time>
      </trkpt>
      <trkpt lat="48.15172" lon="7.06942">
        <ele>984.3</ele>
        <time>2021-08-05T09:45:46Z</time>
      </trkpt>
      <trkpt lat="48.15172" lon="7.06942">
        <ele>984.3</ele>
        <time>2021-08-05T09:45:47Z</time>
      </trkpt>
      <trkpt lat="48.15172" lon="7.06942">
        <ele>984.4</ele>
        <time>2021-08-05T09:45:49Z</time>
      </trkpt>
      <trkpt lat="48.15172" lon="7.06941">
        <ele>984.4</ele>
        <time>2021-08-05T09:45:51Z</time>
      </trkpt>
      <trkpt lat="48.15172" lon="7.06941">
        <ele>984.4</ele>
        <time>2021-08-05T09:45:52Z</time>
      </trkpt>
      <trkpt lat="48.1517" lon="7.0694">
        <ele>984.6</ele>
        <time>2021-08-05T09:45:54Z</time>
      </trkpt>
      <trkpt lat="48.15169" lon="7.06937">
        <ele>984.7</ele>
        <time>2021-08-05T09:45:55Z</time>
      </trkpt>
      <trkpt lat="48.15167" lon="7.06934">
        <ele>985</ele>
        <time>2021-08-05T09:45:57Z</time>
      </trkpt>
      <trkpt lat="48.15165" lon="7.0693">
        <ele>985.4</ele>
        <time>2021-08-05T09:45:58Z</time>
      </trkpt>
      <trkpt lat="48.15164" lon="7.06929">
        <ele>985.5</ele>
        <time>2021-08-05T09:45:59Z</time>
      </trkpt>
      <trkpt lat="48.15161" lon="7.06925">
        <ele>985.8</ele>
        <time>2021-08-05T09:46:01Z</time>
      </trkpt>
      <trkpt lat="48.1516" lon="7.06924">
        <ele>985.9</ele>
        <time>2021-08-05T09:46:02Z</time>
      </trkpt>
      <trkpt lat="48.15159" lon="7.06922">
        <ele>986.1</ele>
        <time>2021-08-05T09:46:04Z</time>
      </trkpt>
      <trkpt lat="48.15158" lon="7.0692">
        <ele>986.3</ele>
        <time>2021-08-05T09:46:05Z</time>
      </trkpt>
      <trkpt lat="48.15157" lon="7.06919">
        <ele>986.4</ele>
        <time>2021-08-05T09:46:06Z</time>
      </trkpt>
      <trkpt lat="48.15157" lon="7.06918">
        <ele>986.5</ele>
        <time>2021-08-05T09:46:08Z</time>
      </trkpt>
      <trkpt lat="48.15156" lon="7.06917">
        <ele>986.6</ele>
        <time>2021-08-05T09:46:09Z</time>
      </trkpt>
      <trkpt lat="48.15156" lon="7.06916">
        <ele>986.7</ele>
        <time>2021-08-05T09:46:10Z</time>
      </trkpt>
      <trkpt lat="48.15155" lon="7.06913">
        <ele>986.8</ele>
        <time>2021-08-05T09:46:12Z</time>
      </trkpt>
      <trkpt lat="48.15155" lon="7.06912">
        <ele>986.9</ele>
        <time>2021-08-05T09:46:13Z</time>
      </trkpt>
      <trkpt lat="48.15155" lon="7.0691">
        <ele>987.1</ele>
        <time>2021-08-05T09:46:15Z</time>
      </trkpt>
      <trkpt lat="48.15155" lon="7.0691">
        <ele>987.1</ele>
        <time>2021-08-05T09:46:16Z</time>
      </trkpt>
      <trkpt lat="48.15154" lon="7.06909">
        <ele>987.1</ele>
        <time>2021-08-05T09:46:17Z</time>
      </trkpt>
      <trkpt lat="48.15154" lon="7.06909">
        <ele>987.2</ele>
        <time>2021-08-05T09:46:19Z</time>
      </trkpt>
      <trkpt lat="48.15154" lon="7.06908">
        <ele>987.2</ele>
        <time>2021-08-05T09:46:20Z</time>
      </trkpt>
      <trkpt lat="48.15154" lon="7.06908">
        <ele>987.2</ele>
        <time>2021-08-05T09:46:21Z</time>
      </trkpt>
      <trkpt lat="48.15154" lon="7.06908">
        <ele>987.3</ele>
        <time>2021-08-05T09:46:22Z</time>
      </trkpt>
      <trkpt lat="48.15153" lon="7.06907">
        <ele>987.4</ele>
        <time>2021-08-05T09:46:23Z</time>
      </trkpt>
      <trkpt lat="48.15152" lon="7.06906">
        <ele>987.5</ele>
        <time>2021-08-05T09:46:24Z</time>
      </trkpt>
      <trkpt lat="48.1515" lon="7.06904">
        <ele>987.8</ele>
        <time>2021-08-05T09:46:26Z</time>
      </trkpt>
      <trkpt lat="48.15148" lon="7.06904">
        <ele>988</ele>
        <time>2021-08-05T09:46:28Z</time>
      </trkpt>
      <trkpt lat="48.15147" lon="7.06903">
        <ele>988.1</ele>
        <time>2021-08-05T09:46:29Z</time>
      </trkpt>
      <trkpt lat="48.15146" lon="7.06903">
        <ele>988.2</ele>
        <time>2021-08-05T09:46:31Z</time>
      </trkpt>
      <trkpt lat="48.15145" lon="7.06903">
        <ele>988.3</ele>
        <time>2021-08-05T09:46:32Z</time>
      </trkpt>
      <trkpt lat="48.15145" lon="7.06903">
        <ele>988.4</ele>
        <time>2021-08-05T09:46:34Z</time>
      </trkpt>
      <trkpt lat="48.15144" lon="7.06903">
        <ele>988.5</ele>
        <time>2021-08-05T09:46:35Z</time>
      </trkpt>
      <trkpt lat="48.15143" lon="7.06902">
        <ele>988.6</ele>
        <time>2021-08-05T09:46:36Z</time>
      </trkpt>
      <trkpt lat="48.15142" lon="7.06902">
        <ele>988.7</ele>
        <time>2021-08-05T09:46:38Z</time>
      </trkpt>
      <trkpt lat="48.15141" lon="7.06902">
        <ele>988.8</ele>
        <time>2021-08-05T09:46:39Z</time>
      </trkpt>
      <trkpt lat="48.15138" lon="7.06901">
        <ele>989.2</ele>
        <time>2021-08-05T09:46:41Z</time>
      </trkpt>
      <trkpt lat="48.15137" lon="7.069">
        <ele>989.3</ele>
        <time>2021-08-05T09:46:42Z</time>
      </trkpt>
      <trkpt lat="48.15134" lon="7.06899">
        <ele>989.7</ele>
        <time>2021-08-05T09:46:43Z</time>
      </trkpt>
      <trkpt lat="48.15134" lon="7.06898">
        <ele>989.8</ele>
        <time>2021-08-05T09:46:44Z</time>
      </trkpt>
      <trkpt lat="48.15132" lon="7.06897">
        <ele>990</ele>
        <time>2021-08-05T09:46:46Z</time>
      </trkpt>
      <trkpt lat="48.15131" lon="7.06897">
        <ele>990.1</ele>
        <time>2021-08-05T09:46:47Z</time>
      </trkpt>
      <trkpt lat="48.1513" lon="7.06897">
        <ele>990.2</ele>
        <time>2021-08-05T09:46:48Z</time>
      </trkpt>
      <trkpt lat="48.15129" lon="7.06896">
        <ele>990.3</ele>
        <time>2021-08-05T09:46:49Z</time>
      </trkpt>
      <trkpt lat="48.15127" lon="7.06896">
        <ele>990.6</ele>
        <time>2021-08-05T09:46:51Z</time>
      </trkpt>
      <trkpt lat="48.15125" lon="7.06895">
        <ele>990.8</ele>
        <time>2021-08-05T09:46:52Z</time>
      </trkpt>
      <trkpt lat="48.15123" lon="7.06894">
        <ele>991.2</ele>
        <time>2021-08-05T09:46:54Z</time>
      </trkpt>
      <trkpt lat="48.15121" lon="7.06893">
        <ele>991.4</ele>
        <time>2021-08-05T09:46:55Z</time>
      </trkpt>
      <trkpt lat="48.15119" lon="7.06892">
        <ele>991.6</ele>
        <time>2021-08-05T09:46:56Z</time>
      </trkpt>
      <trkpt lat="48.15118" lon="7.06892">
        <ele>991.7</ele>
        <time>2021-08-05T09:46:58Z</time>
      </trkpt>
      <trkpt lat="48.15117" lon="7.06891">
        <ele>991.9</ele>
        <time>2021-08-05T09:46:59Z</time>
      </trkpt>
      <trkpt lat="48.15117" lon="7.06891">
        <ele>991.9</ele>
        <time>2021-08-05T09:47:00Z</time>
      </trkpt>
      <trkpt lat="48.15116" lon="7.06891">
        <ele>992</ele>
        <time>2021-08-05T09:47:01Z</time>
      </trkpt>
      <trkpt lat="48.15116" lon="7.06891">
        <ele>992.1</ele>
        <time>2021-08-05T09:47:02Z</time>
      </trkpt>
      <trkpt lat="48.15115" lon="7.06891">
        <ele>992.1</ele>
        <time>2021-08-05T09:47:04Z</time>
      </trkpt>
      <trkpt lat="48.15115" lon="7.0689">
        <ele>992.3</ele>
        <time>2021-08-05T09:47:06Z</time>
      </trkpt>
      <trkpt lat="48.15114" lon="7.06887">
        <ele>992.5</ele>
        <time>2021-08-05T09:47:07Z</time>
      </trkpt>
      <trkpt lat="48.15114" lon="7.06886">
        <ele>992.6</ele>
        <time>2021-08-05T09:47:08Z</time>
      </trkpt>
      <trkpt lat="48.15113" lon="7.06883">
        <ele>992.9</ele>
        <time>2021-08-05T09:47:10Z</time>
      </trkpt>
      <trkpt lat="48.15112" lon="7.06881">
        <ele>993</ele>
        <time>2021-08-05T09:47:11Z</time>
      </trkpt>
      <trkpt lat="48.15112" lon="7.0688">
        <ele>993.2</ele>
        <time>2021-08-05T09:47:13Z</time>
      </trkpt>
      <trkpt lat="48.15112" lon="7.06879">
        <ele>993.3</ele>
        <time>2021-08-05T09:47:14Z</time>
      </trkpt>
      <trkpt lat="48.1511" lon="7.06876">
        <ele>993.6</ele>
        <time>2021-08-05T09:47:16Z</time>
      </trkpt>
      <trkpt lat="48.15109" lon="7.06874">
        <ele>993.9</ele>
        <time>2021-08-05T09:47:18Z</time>
      </trkpt>
      <trkpt lat="48.15108" lon="7.06872">
        <ele>994.1</ele>
        <time>2021-08-05T09:47:19Z</time>
      </trkpt>
      <trkpt lat="48.15106" lon="7.06869">
        <ele>994.4</ele>
        <time>2021-08-05T09:47:21Z</time>
      </trkpt>
      <trkpt lat="48.15106" lon="7.06867">
        <ele>994.6</ele>
        <time>2021-08-05T09:47:23Z</time>
      </trkpt>
      <trkpt lat="48.15105" lon="7.06866">
        <ele>994.7</ele>
        <time>2021-08-05T09:47:25Z</time>
      </trkpt>
      <trkpt lat="48.15105" lon="7.06865">
        <ele>994.7</ele>
        <time>2021-08-05T09:47:27Z</time>
      </trkpt>
      <trkpt lat="48.15105" lon="7.06865">
        <ele>994.8</ele>
        <time>2021-08-05T09:47:28Z</time>
      </trkpt>
      <trkpt lat="48.15105" lon="7.06865">
        <ele>994.8</ele>
        <time>2021-08-05T09:47:29Z</time>
      </trkpt>
      <trkpt lat="48.15105" lon="7.06865">
        <ele>994.8</ele>
        <time>2021-08-05T09:47:32Z</time>
      </trkpt>
      <trkpt lat="48.15105" lon="7.06864">
        <ele>994.8</ele>
        <time>2021-08-05T09:47:34Z</time>
      </trkpt>
      <trkpt lat="48.15104" lon="7.06864">
        <ele>994.9</ele>
        <time>2021-08-05T09:47:37Z</time>
      </trkpt>
      <trkpt lat="48.15104" lon="7.06864">
        <ele>994.9</ele>
        <time>2021-08-05T09:47:39Z</time>
      </trkpt>
      <trkpt lat="48.15104" lon="7.06864">
        <ele>994.9</ele>
        <time>2021-08-05T09:47:41Z</time>
      </trkpt>
      <trkpt lat="48.15104" lon="7.06864">
        <ele>994.9</ele>
        <time>2021-08-05T09:47:43Z</time>
      </trkpt>
      <trkpt lat="48.15104" lon="7.06865">
        <ele>994.9</ele>
        <time>2021-08-05T09:47:44Z</time>
      </trkpt>
      <trkpt lat="48.15105" lon="7.06871">
        <ele>995.5</ele>
        <time>2021-08-05T09:47:46Z</time>
      </trkpt>
      <trkpt lat="48.15106" lon="7.06877">
        <ele>996</ele>
        <time>2021-08-05T09:47:48Z</time>
      </trkpt>
      <trkpt lat="48.15106" lon="7.06877">
        <ele>996</ele>
        <time>2021-08-05T09:47:50Z</time>
      </trkpt>
      <trkpt lat="48.15106" lon="7.06878">
        <ele>996</ele>
        <time>2021-08-05T09:47:51Z</time>
      </trkpt>
      <trkpt lat="48.15106" lon="7.06878">
        <ele>996</ele>
        <time>2021-08-05T09:47:52Z</time>
      </trkpt>
      <trkpt lat="48.15106" lon="7.06878">
        <ele>996</ele>
        <time>2021-08-05T09:47:54Z</time>
      </trkpt>
      <trkpt lat="48.15106" lon="7.06878">
        <ele>996.1</ele>
        <time>2021-08-05T09:47:56Z</time>
      </trkpt>
      <trkpt lat="48.15106" lon="7.06878">
        <ele>996.1</ele>
        <time>2021-08-05T09:47:57Z</time>
      </trkpt>
      <trkpt lat="48.15106" lon="7.06878">
        <ele>996.1</ele>
        <time>2021-08-05T09:47:59Z</time>
      </trkpt>
      <trkpt lat="48.15106" lon="7.06878">
        <ele>996.1</ele>
        <time>2021-08-05T09:48:00Z</time>
      </trkpt>
      <trkpt lat="48.15106" lon="7.06878">
        <ele>996.1</ele>
        <time>2021-08-05T09:48:01Z</time>
      </trkpt>
      <trkpt lat="48.15106" lon="7.06878">
        <ele>996.1</ele>
        <time>2021-08-05T09:48:03Z</time>
      </trkpt>
      <trkpt lat="48.15106" lon="7.06878">
        <ele>996.1</ele>
        <time>2021-08-05T09:48:04Z</time>
      </trkpt>
      <trkpt lat="48.15106" lon="7.06878">
        <ele>996.1</ele>
        <time>2021-08-05T09:48:06Z</time>
      </trkpt>
      <trkpt lat="48.15106" lon="7.06878">
        <ele>996.1</ele>
        <time>2021-08-05T09:48:07Z</time>
      </trkpt>
      <trkpt lat="48.15106" lon="7.06878">
        <ele>996.1</ele>
        <time>2021-08-05T09:48:09Z</time>
      </trkpt>
      <trkpt lat="48.15106" lon="7.06878">
        <ele>996.1</ele>
        <time>2021-08-05T09:48:11Z</time>
      </trkpt>
      <trkpt lat="48.15106" lon="7.06878">
        <ele>996.1</ele>
        <time>2021-08-05T09:48:12Z</time>
      </trkpt>
      <trkpt lat="48.15106" lon="7.06878">
        <ele>996.1</ele>
        <time>2021-08-05T09:48:13Z</time>
      </trkpt>
      <trkpt lat="48.15106" lon="7.06878">
        <ele>996.1</ele>
        <time>2021-08-05T09:48:14Z</time>
      </trkpt>
      <trkpt lat="48.15106" lon="7.06878">
        <ele>996.1</ele>
        <time>2021-08-05T09:48:16Z</time>
      </trkpt>
      <trkpt lat="48.15106" lon="7.06878">
        <ele>996.1</ele>
        <time>2021-08-05T09:48:18Z</time>
      </trkpt>
      <trkpt lat="48.15106" lon="7.06878">
        <ele>996.1</ele>
        <time>2021-08-05T09:48:19Z</time>
      </trkpt>
      <trkpt lat="48.15108" lon="7.06891">
        <ele>997.1</ele>
        <time>2021-08-05T09:48:21Z</time>
      </trkpt>
      <trkpt lat="48.15108" lon="7.06894">
        <ele>997.3</ele>
        <time>2021-08-05T09:48:22Z</time>
      </trkpt>
      <trkpt lat="48.15107" lon="7.06892">
        <ele>997.4</ele>
        <time>2021-08-05T09:48:24Z</time>
      </trkpt>
      <trkpt lat="48.15106" lon="7.0689">
        <ele>997.6</ele>
        <time>2021-08-05T09:48:25Z</time>
      </trkpt>
      <trkpt lat="48.15106" lon="7.06891">
        <ele>997.7</ele>
        <time>2021-08-05T09:48:27Z</time>
      </trkpt>
      <trkpt lat="48.15105" lon="7.06892">
        <ele>997.8</ele>
        <time>2021-08-05T09:48:28Z</time>
      </trkpt>
      <trkpt lat="48.15106" lon="7.06895">
        <ele>998</ele>
        <time>2021-08-05T09:48:29Z</time>
      </trkpt>
      <trkpt lat="48.15105" lon="7.06895">
        <ele>998</ele>
        <time>2021-08-05T09:48:31Z</time>
      </trkpt>
      <trkpt lat="48.15105" lon="7.06896">
        <ele>998</ele>
        <time>2021-08-05T09:48:32Z</time>
      </trkpt>
      <trkpt lat="48.15106" lon="7.06896">
        <ele>998.1</ele>
        <time>2021-08-05T09:48:33Z</time>
      </trkpt>
      <trkpt lat="48.15107" lon="7.06897">
        <ele>998.1</ele>
        <time>2021-08-05T09:48:34Z</time>
      </trkpt>
      <trkpt lat="48.15116" lon="7.06892">
        <ele>998.9</ele>
        <time>2021-08-05T09:48:36Z</time>
      </trkpt>
      <trkpt lat="48.15134" lon="7.06883">
        <ele>1000.2</ele>
        <time>2021-08-05T09:48:37Z</time>
      </trkpt>
      <trkpt lat="48.15136" lon="7.06882">
        <ele>1000.4</ele>
        <time>2021-08-05T09:48:38Z</time>
      </trkpt>
      <trkpt lat="48.15139" lon="7.06881">
        <ele>1000.6</ele>
        <time>2021-08-05T09:48:40Z</time>
      </trkpt>
      <trkpt lat="48.15139" lon="7.0688">
        <ele>1000.6</ele>
        <time>2021-08-05T09:48:42Z</time>
      </trkpt>
      <trkpt lat="48.15138" lon="7.0688">
        <ele>1000.6</ele>
        <time>2021-08-05T09:48:44Z</time>
      </trkpt>
      <trkpt lat="48.15138" lon="7.0688">
        <ele>1000.7</ele>
        <time>2021-08-05T09:48:46Z</time>
      </trkpt>
      <trkpt lat="48.15138" lon="7.06879">
        <ele>1000.7</ele>
        <time>2021-08-05T09:48:47Z</time>
      </trkpt>
      <trkpt lat="48.15138" lon="7.06879">
        <ele>1000.7</ele>
        <time>2021-08-05T09:48:48Z</time>
      </trkpt>
      <trkpt lat="48.15138" lon="7.06879">
        <ele>1000.7</ele>
        <time>2021-08-05T09:48:49Z</time>
      </trkpt>
      <trkpt lat="48.15137" lon="7.06879">
        <ele>1000.7</ele>
        <time>2021-08-05T09:48:51Z</time>
      </trkpt>
      <trkpt lat="48.15137" lon="7.06879">
        <ele>1000.7</ele>
        <time>2021-08-05T09:48:52Z</time>
      </trkpt>
      <trkpt lat="48.15137" lon="7.06879">
        <ele>1000.7</ele>
        <time>2021-08-05T09:48:53Z</time>
      </trkpt>
      <trkpt lat="48.15137" lon="7.06879">
        <ele>1000.7</ele>
        <time>2021-08-05T09:48:55Z</time>
      </trkpt>
      <trkpt lat="48.15137" lon="7.06879">
        <ele>1000.7</ele>
        <time>2021-08-05T09:48:56Z</time>
      </trkpt>
      <trkpt lat="48.15137" lon="7.06879">
        <ele>1000.7</ele>
        <time>2021-08-05T09:48:58Z</time>
      </trkpt>
      <trkpt lat="48.15137" lon="7.06879">
        <ele>1000.7</ele>
        <time>2021-08-05T09:49:00Z</time>
      </trkpt>
      <trkpt lat="48.15137" lon="7.06879">
        <ele>1000.7</ele>
        <time>2021-08-05T09:49:01Z</time>
      </trkpt>
      <trkpt lat="48.15137" lon="7.06879">
        <ele>1000.7</ele>
        <time>2021-08-05T09:49:02Z</time>
      </trkpt>
      <trkpt lat="48.15137" lon="7.06879">
        <ele>1000.8</ele>
        <time>2021-08-05T09:49:04Z</time>
      </trkpt>
      <trkpt lat="48.15137" lon="7.06878">
        <ele>1000.8</ele>
        <time>2021-08-05T09:49:05Z</time>
      </trkpt>
      <trkpt lat="48.15137" lon="7.06878">
        <ele>1000.8</ele>
        <time>2021-08-05T09:49:07Z</time>
      </trkpt>
      <trkpt lat="48.15137" lon="7.06878">
        <ele>1000.8</ele>
        <time>2021-08-05T09:49:08Z</time>
      </trkpt>
      <trkpt lat="48.15136" lon="7.06878">
        <ele>1000.8</ele>
        <time>2021-08-05T09:49:10Z</time>
      </trkpt>
      <trkpt lat="48.15134" lon="7.06876">
        <ele>1001</ele>
        <time>2021-08-05T09:49:12Z</time>
      </trkpt>
      <trkpt lat="48.15133" lon="7.06875">
        <ele>1001</ele>
        <time>2021-08-05T09:49:13Z</time>
      </trkpt>
      <trkpt lat="48.15132" lon="7.06874">
        <ele>1001.1</ele>
        <time>2021-08-05T09:49:14Z</time>
      </trkpt>
      <trkpt lat="48.15131" lon="7.06873">
        <ele>1001.2</ele>
        <time>2021-08-05T09:49:16Z</time>
      </trkpt>
      <trkpt lat="48.1513" lon="7.06872">
        <ele>1001.2</ele>
        <time>2021-08-05T09:49:17Z</time>
      </trkpt>
      <trkpt lat="48.1513" lon="7.06871">
        <ele>1001.2</ele>
        <time>2021-08-05T09:49:18Z</time>
      </trkpt>
      <trkpt lat="48.15129" lon="7.06871">
        <ele>1001.3</ele>
        <time>2021-08-05T09:49:19Z</time>
      </trkpt>
      <trkpt lat="48.15128" lon="7.06871">
        <ele>1001.3</ele>
        <time>2021-08-05T09:49:21Z</time>
      </trkpt>
      <trkpt lat="48.15128" lon="7.0687">
        <ele>1001.3</ele>
        <time>2021-08-05T09:49:22Z</time>
      </trkpt>
      <trkpt lat="48.15128" lon="7.0687">
        <ele>1001.3</ele>
        <time>2021-08-05T09:49:24Z</time>
      </trkpt>
      <trkpt lat="48.15127" lon="7.0687">
        <ele>1001.3</ele>
        <time>2021-08-05T09:49:26Z</time>
      </trkpt>
      <trkpt lat="48.15127" lon="7.0687">
        <ele>1001.4</ele>
        <time>2021-08-05T09:49:27Z</time>
      </trkpt>
      <trkpt lat="48.15124" lon="7.06869">
        <ele>1001.5</ele>
        <time>2021-08-05T09:49:29Z</time>
      </trkpt>
      <trkpt lat="48.15121" lon="7.06867">
        <ele>1001.5</ele>
        <time>2021-08-05T09:49:31Z</time>
      </trkpt>
      <trkpt lat="48.1512" lon="7.06867">
        <ele>1001.6</ele>
        <time>2021-08-05T09:49:32Z</time>
      </trkpt>
      <trkpt lat="48.15119" lon="7.06866">
        <ele>1001.6</ele>
        <time>2021-08-05T09:49:33Z</time>
      </trkpt>
      <trkpt lat="48.15108" lon="7.06863">
        <ele>1001.6</ele>
        <time>2021-08-05T09:49:34Z</time>
      </trkpt>
      <trkpt lat="48.15103" lon="7.06862">
        <ele>1001.4</ele>
        <time>2021-08-05T09:49:36Z</time>
      </trkpt>
      <trkpt lat="48.15099" lon="7.06861">
        <ele>1001.3</ele>
        <time>2021-08-05T09:49:37Z</time>
      </trkpt>
      <trkpt lat="48.15097" lon="7.06861">
        <ele>1001.3</ele>
        <time>2021-08-05T09:49:38Z</time>
      </trkpt>
      <trkpt lat="48.15095" lon="7.06859">
        <ele>1001.2</ele>
        <time>2021-08-05T09:49:40Z</time>
      </trkpt>
      <trkpt lat="48.15094" lon="7.06857">
        <ele>1001.2</ele>
        <time>2021-08-05T09:49:41Z</time>
      </trkpt>
      <trkpt lat="48.15093" lon="7.06856">
        <ele>1001.1</ele>
        <time>2021-08-05T09:49:42Z</time>
      </trkpt>
      <trkpt lat="48.15092" lon="7.06855">
        <ele>1001.1</ele>
        <time>2021-08-05T09:49:44Z</time>
      </trkpt>
      <trkpt lat="48.15091" lon="7.06854">
        <ele>1001.1</ele>
        <time>2021-08-05T09:49:45Z</time>
      </trkpt>
      <trkpt lat="48.1509" lon="7.06853">
        <ele>1001</ele>
        <time>2021-08-05T09:49:47Z</time>
      </trkpt>
      <trkpt lat="48.15089" lon="7.06852">
        <ele>1001</ele>
        <time>2021-08-05T09:49:48Z</time>
      </trkpt>
      <trkpt lat="48.15088" lon="7.06851">
        <ele>1001</ele>
        <time>2021-08-05T09:49:49Z</time>
      </trkpt>
      <trkpt lat="48.15088" lon="7.0685">
        <ele>1001</ele>
        <time>2021-08-05T09:49:51Z</time>
      </trkpt>
      <trkpt lat="48.15069" lon="7.06831">
        <ele>1000.5</ele>
        <time>2021-08-05T09:50:15Z</time>
      </trkpt>
      <trkpt lat="48.15064" lon="7.06823">
        <ele>1000.3</ele>
        <time>2021-08-05T09:50:17Z</time>
      </trkpt>
      <trkpt lat="48.15058" lon="7.06815">
        <ele>1000.2</ele>
        <time>2021-08-05T09:50:19Z</time>
      </trkpt>
      <trkpt lat="48.15053" lon="7.06809">
        <ele>1000</ele>
        <time>2021-08-05T09:50:20Z</time>
      </trkpt>
      <trkpt lat="48.15048" lon="7.06802">
        <ele>999.8</ele>
        <time>2021-08-05T09:50:21Z</time>
      </trkpt>
      <trkpt lat="48.15044" lon="7.06797">
        <ele>999.7</ele>
        <time>2021-08-05T09:50:22Z</time>
      </trkpt>
      <trkpt lat="48.1504" lon="7.06793">
        <ele>999.4</ele>
        <time>2021-08-05T09:50:23Z</time>
      </trkpt>
      <trkpt lat="48.15036" lon="7.0679">
        <ele>999.2</ele>
        <time>2021-08-05T09:50:25Z</time>
      </trkpt>
      <trkpt lat="48.15032" lon="7.06789">
        <ele>998.9</ele>
        <time>2021-08-05T09:50:26Z</time>
      </trkpt>
      <trkpt lat="48.15031" lon="7.06789">
        <ele>998.8</ele>
        <time>2021-08-05T09:50:27Z</time>
      </trkpt>
      <trkpt lat="48.15029" lon="7.06788">
        <ele>998.7</ele>
        <time>2021-08-05T09:50:28Z</time>
      </trkpt>
      <trkpt lat="48.15026" lon="7.06788">
        <ele>998.5</ele>
        <time>2021-08-05T09:50:30Z</time>
      </trkpt>
      <trkpt lat="48.15024" lon="7.06788">
        <ele>998.4</ele>
        <time>2021-08-05T09:50:31Z</time>
      </trkpt>
      <trkpt lat="48.15021" lon="7.06788">
        <ele>998.2</ele>
        <time>2021-08-05T09:50:33Z</time>
      </trkpt>
      <trkpt lat="48.15019" lon="7.06786">
        <ele>998</ele>
        <time>2021-08-05T09:50:34Z</time>
      </trkpt>
      <trkpt lat="48.15016" lon="7.06784">
        <ele>997.8</ele>
        <time>2021-08-05T09:50:36Z</time>
      </trkpt>
      <trkpt lat="48.15014" lon="7.06781">
        <ele>997.6</ele>
        <time>2021-08-05T09:50:37Z</time>
      </trkpt>
      <trkpt lat="48.1501" lon="7.06775">
        <ele>997.3</ele>
        <time>2021-08-05T09:50:39Z</time>
      </trkpt>
      <trkpt lat="48.15004" lon="7.06768">
        <ele>996.9</ele>
        <time>2021-08-05T09:50:41Z</time>
      </trkpt>
      <trkpt lat="48.15" lon="7.06763">
        <ele>996.6</ele>
        <time>2021-08-05T09:50:43Z</time>
      </trkpt>
      <trkpt lat="48.14995" lon="7.06758">
        <ele>996.3</ele>
        <time>2021-08-05T09:50:44Z</time>
      </trkpt>
      <trkpt lat="48.14991" lon="7.06754">
        <ele>996.1</ele>
        <time>2021-08-05T09:50:45Z</time>
      </trkpt>
      <trkpt lat="48.14988" lon="7.0675">
        <ele>995.9</ele>
        <time>2021-08-05T09:50:46Z</time>
      </trkpt>
      <trkpt lat="48.14983" lon="7.06744">
        <ele>995.6</ele>
        <time>2021-08-05T09:50:48Z</time>
      </trkpt>
      <trkpt lat="48.14978" lon="7.06737">
        <ele>995.4</ele>
        <time>2021-08-05T09:50:49Z</time>
      </trkpt>
      <trkpt lat="48.14976" lon="7.06734">
        <ele>995.2</ele>
        <time>2021-08-05T09:50:51Z</time>
      </trkpt>
      <trkpt lat="48.14974" lon="7.06728">
        <ele>995.1</ele>
        <time>2021-08-05T09:50:52Z</time>
      </trkpt>
      <trkpt lat="48.1497" lon="7.06723">
        <ele>994.9</ele>
        <time>2021-08-05T09:50:54Z</time>
      </trkpt>
      <trkpt lat="48.14962" lon="7.06715">
        <ele>994.5</ele>
        <time>2021-08-05T09:50:55Z</time>
      </trkpt>
      <trkpt lat="48.14959" lon="7.0671">
        <ele>994.2</ele>
        <time>2021-08-05T09:50:57Z</time>
      </trkpt>
      <trkpt lat="48.14953" lon="7.06704">
        <ele>993.9</ele>
        <time>2021-08-05T09:50:58Z</time>
      </trkpt>
      <trkpt lat="48.14936" lon="7.0669">
        <ele>992.8</ele>
        <time>2021-08-05T09:50:59Z</time>
      </trkpt>
      <trkpt lat="48.1493" lon="7.06685">
        <ele>992.5</ele>
        <time>2021-08-05T09:51:00Z</time>
      </trkpt>
      <trkpt lat="48.1492" lon="7.06677">
        <ele>992</ele>
        <time>2021-08-05T09:51:02Z</time>
      </trkpt>
      <trkpt lat="48.14911" lon="7.06671">
        <ele>991.7</ele>
        <time>2021-08-05T09:51:04Z</time>
      </trkpt>
      <trkpt lat="48.14907" lon="7.06669">
        <ele>991.6</ele>
        <time>2021-08-05T09:51:05Z</time>
      </trkpt>
      <trkpt lat="48.14897" lon="7.06665">
        <ele>991.3</ele>
        <time>2021-08-05T09:51:07Z</time>
      </trkpt>
      <trkpt lat="48.14892" lon="7.06661">
        <ele>991.2</ele>
        <time>2021-08-05T09:51:08Z</time>
      </trkpt>
      <trkpt lat="48.14882" lon="7.06656">
        <ele>991.1</ele>
        <time>2021-08-05T09:51:10Z</time>
      </trkpt>
      <trkpt lat="48.14873" lon="7.06651">
        <ele>990.9</ele>
        <time>2021-08-05T09:51:12Z</time>
      </trkpt>
      <trkpt lat="48.14869" lon="7.06648">
        <ele>990.9</ele>
        <time>2021-08-05T09:51:13Z</time>
      </trkpt>
      <trkpt lat="48.14864" lon="7.06646">
        <ele>990.8</ele>
        <time>2021-08-05T09:51:14Z</time>
      </trkpt>
      <trkpt lat="48.14856" lon="7.06645">
        <ele>990.9</ele>
        <time>2021-08-05T09:51:16Z</time>
      </trkpt>
      <trkpt lat="48.14852" lon="7.06651">
        <ele>990.9</ele>
        <time>2021-08-05T09:51:18Z</time>
      </trkpt>
      <trkpt lat="48.14847" lon="7.06653">
        <ele>990.9</ele>
        <time>2021-08-05T09:51:19Z</time>
      </trkpt>
      <trkpt lat="48.14845" lon="7.06654">
        <ele>991</ele>
        <time>2021-08-05T09:51:21Z</time>
      </trkpt>
      <trkpt lat="48.14843" lon="7.06656">
        <ele>991</ele>
        <time>2021-08-05T09:51:22Z</time>
      </trkpt>
      <trkpt lat="48.14834" lon="7.06662">
        <ele>991.2</ele>
        <time>2021-08-05T09:51:24Z</time>
      </trkpt>
      <trkpt lat="48.14831" lon="7.06664">
        <ele>991.3</ele>
        <time>2021-08-05T09:51:25Z</time>
      </trkpt>
      <trkpt lat="48.14827" lon="7.06667">
        <ele>991.4</ele>
        <time>2021-08-05T09:51:27Z</time>
      </trkpt>
      <trkpt lat="48.14824" lon="7.06668">
        <ele>991.5</ele>
        <time>2021-08-05T09:51:28Z</time>
      </trkpt>
      <trkpt lat="48.14823" lon="7.06668">
        <ele>991.6</ele>
        <time>2021-08-05T09:51:29Z</time>
      </trkpt>
      <trkpt lat="48.14822" lon="7.06668">
        <ele>991.6</ele>
        <time>2021-08-05T09:51:31Z</time>
      </trkpt>
      <trkpt lat="48.1482" lon="7.06667">
        <ele>991.7</ele>
        <time>2021-08-05T09:51:32Z</time>
      </trkpt>
      <trkpt lat="48.14816" lon="7.06666">
        <ele>991.8</ele>
        <time>2021-08-05T09:51:33Z</time>
      </trkpt>
      <trkpt lat="48.14815" lon="7.06667">
        <ele>991.8</ele>
        <time>2021-08-05T09:51:34Z</time>
      </trkpt>
      <trkpt lat="48.14814" lon="7.06667">
        <ele>991.9</ele>
        <time>2021-08-05T09:51:35Z</time>
      </trkpt>
      <trkpt lat="48.14812" lon="7.0667">
        <ele>991.9</ele>
        <time>2021-08-05T09:51:37Z</time>
      </trkpt>
      <trkpt lat="48.14808" lon="7.06675">
        <ele>992.1</ele>
        <time>2021-08-05T09:51:38Z</time>
      </trkpt>
      <trkpt lat="48.14806" lon="7.06677">
        <ele>992.1</ele>
        <time>2021-08-05T09:51:39Z</time>
      </trkpt>
      <trkpt lat="48.14803" lon="7.0668">
        <ele>992.2</ele>
        <time>2021-08-05T09:51:40Z</time>
      </trkpt>
      <trkpt lat="48.14801" lon="7.06682">
        <ele>992.2</ele>
        <time>2021-08-05T09:51:41Z</time>
      </trkpt>
      <trkpt lat="48.14799" lon="7.06684">
        <ele>992.3</ele>
        <time>2021-08-05T09:51:43Z</time>
      </trkpt>
      <trkpt lat="48.14798" lon="7.06686">
        <ele>992.3</ele>
        <time>2021-08-05T09:51:44Z</time>
      </trkpt>
      <trkpt lat="48.14796" lon="7.06688">
        <ele>992.3</ele>
        <time>2021-08-05T09:51:45Z</time>
      </trkpt>
      <trkpt lat="48.14795" lon="7.06692">
        <ele>992.3</ele>
        <time>2021-08-05T09:51:46Z</time>
      </trkpt>
      <trkpt lat="48.14793" lon="7.067">
        <ele>992.2</ele>
        <time>2021-08-05T09:51:48Z</time>
      </trkpt>
      <trkpt lat="48.14789" lon="7.0671">
        <ele>989.6</ele>
        <time>2021-08-05T09:51:49Z</time>
      </trkpt>
      <trkpt lat="48.14785" lon="7.06718">
        <ele>987.4</ele>
        <time>2021-08-05T09:51:51Z</time>
      </trkpt>
      <trkpt lat="48.14782" lon="7.06725">
        <ele>987.3</ele>
        <time>2021-08-05T09:51:52Z</time>
      </trkpt>
      <trkpt lat="48.1478" lon="7.0673">
        <ele>987.3</ele>
        <time>2021-08-05T09:51:53Z</time>
      </trkpt>
      <trkpt lat="48.14775" lon="7.06736">
        <ele>987.1</ele>
        <time>2021-08-05T09:51:55Z</time>
      </trkpt>
      <trkpt lat="48.14772" lon="7.06738">
        <ele>987</ele>
        <time>2021-08-05T09:51:56Z</time>
      </trkpt>
      <trkpt lat="48.14769" lon="7.0674">
        <ele>986.9</ele>
        <time>2021-08-05T09:51:57Z</time>
      </trkpt>
      <trkpt lat="48.14764" lon="7.06742">
        <ele>986.8</ele>
        <time>2021-08-05T09:51:58Z</time>
      </trkpt>
      <trkpt lat="48.14759" lon="7.06746">
        <ele>986.6</ele>
        <time>2021-08-05T09:51:59Z</time>
      </trkpt>
      <trkpt lat="48.14743" lon="7.06765">
        <ele>986.1</ele>
        <time>2021-08-05T09:52:01Z</time>
      </trkpt>
      <trkpt lat="48.14736" lon="7.06775">
        <ele>985.9</ele>
        <time>2021-08-05T09:52:02Z</time>
      </trkpt>
      <trkpt lat="48.14725" lon="7.06793">
        <ele>985.9</ele>
        <time>2021-08-05T09:52:04Z</time>
      </trkpt>
      <trkpt lat="48.14721" lon="7.068">
        <ele>985.9</ele>
        <time>2021-08-05T09:52:05Z</time>
      </trkpt>
      <trkpt lat="48.14717" lon="7.06807">
        <ele>986</ele>
        <time>2021-08-05T09:52:06Z</time>
      </trkpt>
      <trkpt lat="48.14711" lon="7.06818">
        <ele>986</ele>
        <time>2021-08-05T09:52:08Z</time>
      </trkpt>
      <trkpt lat="48.14709" lon="7.06825">
        <ele>986.1</ele>
        <time>2021-08-05T09:52:10Z</time>
      </trkpt>
      <trkpt lat="48.14706" lon="7.06829">
        <ele>986.1</ele>
        <time>2021-08-05T09:52:11Z</time>
      </trkpt>
      <trkpt lat="48.14703" lon="7.06833">
        <ele>986.1</ele>
        <time>2021-08-05T09:52:12Z</time>
      </trkpt>
      <trkpt lat="48.14698" lon="7.06837">
        <ele>986.1</ele>
        <time>2021-08-05T09:52:14Z</time>
      </trkpt>
      <trkpt lat="48.14696" lon="7.06839">
        <ele>986.1</ele>
        <time>2021-08-05T09:52:15Z</time>
      </trkpt>
      <trkpt lat="48.14693" lon="7.06842">
        <ele>986.1</ele>
        <time>2021-08-05T09:52:16Z</time>
      </trkpt>
      <trkpt lat="48.14688" lon="7.06846">
        <ele>986.1</ele>
        <time>2021-08-05T09:52:18Z</time>
      </trkpt>
      <trkpt lat="48.1468" lon="7.06853">
        <ele>986</ele>
        <time>2021-08-05T09:52:19Z</time>
      </trkpt>
      <trkpt lat="48.14675" lon="7.06857">
        <ele>985.9</ele>
        <time>2021-08-05T09:52:20Z</time>
      </trkpt>
      <trkpt lat="48.14665" lon="7.06862">
        <ele>985.8</ele>
        <time>2021-08-05T09:52:22Z</time>
      </trkpt>
      <trkpt lat="48.1466" lon="7.06863">
        <ele>985.8</ele>
        <time>2021-08-05T09:52:23Z</time>
      </trkpt>
      <trkpt lat="48.1465" lon="7.06865">
        <ele>985.8</ele>
        <time>2021-08-05T09:52:25Z</time>
      </trkpt>
      <trkpt lat="48.14643" lon="7.06867">
        <ele>985.8</ele>
        <time>2021-08-05T09:52:26Z</time>
      </trkpt>
      <trkpt lat="48.14638" lon="7.06869">
        <ele>985.9</ele>
        <time>2021-08-05T09:52:28Z</time>
      </trkpt>
      <trkpt lat="48.14638" lon="7.06872">
        <ele>986</ele>
        <time>2021-08-05T09:52:29Z</time>
      </trkpt>
      <trkpt lat="48.14634" lon="7.06882">
        <ele>986.3</ele>
        <time>2021-08-05T09:52:31Z</time>
      </trkpt>
      <trkpt lat="48.14631" lon="7.06885">
        <ele>986.5</ele>
        <time>2021-08-05T09:52:32Z</time>
      </trkpt>
      <trkpt lat="48.14629" lon="7.06887">
        <ele>986.6</ele>
        <time>2021-08-05T09:52:33Z</time>
      </trkpt>
      <trkpt lat="48.14615" lon="7.06898">
        <ele>987.3</ele>
        <time>2021-08-05T09:52:34Z</time>
      </trkpt>
      <trkpt lat="48.14602" lon="7.06906">
        <ele>988</ele>
        <time>2021-08-05T09:52:35Z</time>
      </trkpt>
      <trkpt lat="48.14594" lon="7.0691">
        <ele>988.4</ele>
        <time>2021-08-05T09:52:36Z</time>
      </trkpt>
      <trkpt lat="48.14587" lon="7.06914">
        <ele>988.8</ele>
        <time>2021-08-05T09:52:37Z</time>
      </trkpt>
      <trkpt lat="48.14582" lon="7.06918">
        <ele>989</ele>
        <time>2021-08-05T09:52:38Z</time>
      </trkpt>
      <trkpt lat="48.14573" lon="7.06922">
        <ele>989.3</ele>
        <time>2021-08-05T09:52:40Z</time>
      </trkpt>
      <trkpt lat="48.14571" lon="7.06924">
        <ele>989.4</ele>
        <time>2021-08-05T09:52:41Z</time>
      </trkpt>
      <trkpt lat="48.14567" lon="7.06926">
        <ele>989.5</ele>
        <time>2021-08-05T09:52:43Z</time>
      </trkpt>
      <trkpt lat="48.14562" lon="7.06926">
        <ele>989.6</ele>
        <time>2021-08-05T09:52:44Z</time>
      </trkpt>
      <trkpt lat="48.14556" lon="7.06923">
        <ele>989.7</ele>
        <time>2021-08-05T09:52:46Z</time>
      </trkpt>
      <trkpt lat="48.14552" lon="7.06922">
        <ele>989.8</ele>
        <time>2021-08-05T09:52:47Z</time>
      </trkpt>
      <trkpt lat="48.1455" lon="7.06917">
        <ele>989.8</ele>
        <time>2021-08-05T09:52:48Z</time>
      </trkpt>
      <trkpt lat="48.14549" lon="7.06914">
        <ele>989.8</ele>
        <time>2021-08-05T09:52:49Z</time>
      </trkpt>
      <trkpt lat="48.14548" lon="7.06913">
        <ele>989.8</ele>
        <time>2021-08-05T09:52:50Z</time>
      </trkpt>
      <trkpt lat="48.14545" lon="7.06912">
        <ele>989.8</ele>
        <time>2021-08-05T09:52:52Z</time>
      </trkpt>
      <trkpt lat="48.14544" lon="7.06912">
        <ele>989.7</ele>
        <time>2021-08-05T09:52:53Z</time>
      </trkpt>
      <trkpt lat="48.14542" lon="7.06912">
        <ele>989.7</ele>
        <time>2021-08-05T09:52:54Z</time>
      </trkpt>
      <trkpt lat="48.14539" lon="7.06913">
        <ele>989.7</ele>
        <time>2021-08-05T09:52:55Z</time>
      </trkpt>
      <trkpt lat="48.14537" lon="7.06914">
        <ele>989.6</ele>
        <time>2021-08-05T09:52:57Z</time>
      </trkpt>
      <trkpt lat="48.14493" lon="7.06908">
        <ele>990.3</ele>
        <time>2021-08-05T09:53:12Z</time>
      </trkpt>
      <trkpt lat="48.14489" lon="7.06901">
        <ele>990.7</ele>
        <time>2021-08-05T09:53:14Z</time>
      </trkpt>
      <trkpt lat="48.14485" lon="7.06894">
        <ele>991.1</ele>
        <time>2021-08-05T09:53:15Z</time>
      </trkpt>
      <trkpt lat="48.14481" lon="7.06886">
        <ele>991.5</ele>
        <time>2021-08-05T09:53:17Z</time>
      </trkpt>
      <trkpt lat="48.14478" lon="7.0688">
        <ele>991.8</ele>
        <time>2021-08-05T09:53:19Z</time>
      </trkpt>
      <trkpt lat="48.14477" lon="7.0688">
        <ele>991.9</ele>
        <time>2021-08-05T09:53:20Z</time>
      </trkpt>
      <trkpt lat="48.14477" lon="7.06882">
        <ele>992</ele>
        <time>2021-08-05T09:53:22Z</time>
      </trkpt>
      <trkpt lat="48.14476" lon="7.06883">
        <ele>992</ele>
        <time>2021-08-05T09:53:23Z</time>
      </trkpt>
      <trkpt lat="48.14476" lon="7.06882">
        <ele>992.1</ele>
        <time>2021-08-05T09:53:25Z</time>
      </trkpt>
      <trkpt lat="48.14476" lon="7.06882">
        <ele>992.1</ele>
        <time>2021-08-05T09:53:26Z</time>
      </trkpt>
      <trkpt lat="48.14474" lon="7.06879">
        <ele>992.2</ele>
        <time>2021-08-05T09:53:28Z</time>
      </trkpt>
      <trkpt lat="48.14474" lon="7.06879">
        <ele>992.3</ele>
        <time>2021-08-05T09:53:29Z</time>
      </trkpt>
      <trkpt lat="48.14461" lon="7.06855">
        <ele>993.6</ele>
        <time>2021-08-05T09:53:40Z</time>
      </trkpt>
      <trkpt lat="48.14459" lon="7.0685">
        <ele>993.8</ele>
        <time>2021-08-05T09:53:41Z</time>
      </trkpt>
      <trkpt lat="48.14457" lon="7.06843">
        <ele>994.1</ele>
        <time>2021-08-05T09:53:43Z</time>
      </trkpt>
      <trkpt lat="48.14451" lon="7.06832">
        <ele>994.7</ele>
        <time>2021-08-05T09:53:44Z</time>
      </trkpt>
      <trkpt lat="48.14448" lon="7.06828">
        <ele>995</ele>
        <time>2021-08-05T09:53:45Z</time>
      </trkpt>
      <trkpt lat="48.14444" lon="7.06825">
        <ele>995.2</ele>
        <time>2021-08-05T09:53:47Z</time>
      </trkpt>
      <trkpt lat="48.14442" lon="7.06824">
        <ele>995.3</ele>
        <time>2021-08-05T09:53:48Z</time>
      </trkpt>
      <trkpt lat="48.14437" lon="7.06823">
        <ele>995.5</ele>
        <time>2021-08-05T09:53:49Z</time>
      </trkpt>
      <trkpt lat="48.1443" lon="7.06821">
        <ele>995.8</ele>
        <time>2021-08-05T09:53:51Z</time>
      </trkpt>
      <trkpt lat="48.14424" lon="7.06821">
        <ele>995.9</ele>
        <time>2021-08-05T09:53:52Z</time>
      </trkpt>
      <trkpt lat="48.14419" lon="7.06822">
        <ele>995.9</ele>
        <time>2021-08-05T09:53:53Z</time>
      </trkpt>
      <trkpt lat="48.14415" lon="7.06824">
        <ele>995.9</ele>
        <time>2021-08-05T09:53:54Z</time>
      </trkpt>
      <trkpt lat="48.14411" lon="7.06826">
        <ele>995.9</ele>
        <time>2021-08-05T09:53:56Z</time>
      </trkpt>
      <trkpt lat="48.14406" lon="7.06827">
        <ele>995.8</ele>
        <time>2021-08-05T09:53:57Z</time>
      </trkpt>
      <trkpt lat="48.14404" lon="7.06827">
        <ele>995.8</ele>
        <time>2021-08-05T09:53:58Z</time>
      </trkpt>
      <trkpt lat="48.144" lon="7.06827">
        <ele>995.7</ele>
        <time>2021-08-05T09:54:00Z</time>
      </trkpt>
      <trkpt lat="48.14388" lon="7.06825">
        <ele>995.2</ele>
        <time>2021-08-05T09:54:01Z</time>
      </trkpt>
      <trkpt lat="48.14379" lon="7.06823">
        <ele>994.7</ele>
        <time>2021-08-05T09:54:02Z</time>
      </trkpt>
      <trkpt lat="48.14367" lon="7.0682">
        <ele>994</ele>
        <time>2021-08-05T09:54:03Z</time>
      </trkpt>
      <trkpt lat="48.14367" lon="7.0682">
        <ele>994</ele>
        <time>2021-08-05T09:54:03Z</time>
      </trkpt>
      <trkpt lat="48.1435" lon="7.06816">
        <ele>993.2</ele>
        <time>2021-08-05T09:54:05Z</time>
      </trkpt>
      <trkpt lat="48.14337" lon="7.06814">
        <ele>992.5</ele>
        <time>2021-08-05T09:54:07Z</time>
      </trkpt>
      <trkpt lat="48.14331" lon="7.06811">
        <ele>992.2</ele>
        <time>2021-08-05T09:54:08Z</time>
      </trkpt>
      <trkpt lat="48.14321" lon="7.06804">
        <ele>991.6</ele>
        <time>2021-08-05T09:54:10Z</time>
      </trkpt>
      <trkpt lat="48.14314" lon="7.06798">
        <ele>991.3</ele>
        <time>2021-08-05T09:54:11Z</time>
      </trkpt>
      <trkpt lat="48.14307" lon="7.06793">
        <ele>991</ele>
        <time>2021-08-05T09:54:12Z</time>
      </trkpt>
      <trkpt lat="48.14301" lon="7.06789">
        <ele>990.7</ele>
        <time>2021-08-05T09:54:13Z</time>
      </trkpt>
      <trkpt lat="48.14296" lon="7.06787">
        <ele>990.4</ele>
        <time>2021-08-05T09:54:14Z</time>
      </trkpt>
      <trkpt lat="48.14284" lon="7.06782">
        <ele>989.9</ele>
        <time>2021-08-05T09:54:16Z</time>
      </trkpt>
      <trkpt lat="48.14274" lon="7.06776">
        <ele>989.4</ele>
        <time>2021-08-05T09:54:18Z</time>
      </trkpt>
      <trkpt lat="48.14269" lon="7.06774">
        <ele>989.2</ele>
        <time>2021-08-05T09:54:19Z</time>
      </trkpt>
      <trkpt lat="48.14263" lon="7.06772">
        <ele>989</ele>
        <time>2021-08-05T09:54:20Z</time>
      </trkpt>
      <trkpt lat="48.14253" lon="7.06765">
        <ele>988.7</ele>
        <time>2021-08-05T09:54:22Z</time>
      </trkpt>
      <trkpt lat="48.1425" lon="7.06761">
        <ele>988.5</ele>
        <time>2021-08-05T09:54:23Z</time>
      </trkpt>
      <trkpt lat="48.14245" lon="7.06755">
        <ele>988.3</ele>
        <time>2021-08-05T09:54:24Z</time>
      </trkpt>
      <trkpt lat="48.14239" lon="7.06749">
        <ele>988</ele>
        <time>2021-08-05T09:54:25Z</time>
      </trkpt>
      <trkpt lat="48.14232" lon="7.06742">
        <ele>987.6</ele>
        <time>2021-08-05T09:54:26Z</time>
      </trkpt>
      <trkpt lat="48.1422" lon="7.06723">
        <ele>986.9</ele>
        <time>2021-08-05T09:54:28Z</time>
      </trkpt>
      <trkpt lat="48.14215" lon="7.06714">
        <ele>986.5</ele>
        <time>2021-08-05T09:54:29Z</time>
      </trkpt>
      <trkpt lat="48.14204" lon="7.06699">
        <ele>985.9</ele>
        <time>2021-08-05T09:54:31Z</time>
      </trkpt>
      <trkpt lat="48.14199" lon="7.06693">
        <ele>985.6</ele>
        <time>2021-08-05T09:54:32Z</time>
      </trkpt>
      <trkpt lat="48.14188" lon="7.06682">
        <ele>985.1</ele>
        <time>2021-08-05T09:54:34Z</time>
      </trkpt>
      <trkpt lat="48.14177" lon="7.06673">
        <ele>984.7</ele>
        <time>2021-08-05T09:54:36Z</time>
      </trkpt>
      <trkpt lat="48.14171" lon="7.06669">
        <ele>984.5</ele>
        <time>2021-08-05T09:54:37Z</time>
      </trkpt>
      <trkpt lat="48.14166" lon="7.06669">
        <ele>984.3</ele>
        <time>2021-08-05T09:54:38Z</time>
      </trkpt>
      <trkpt lat="48.14158" lon="7.0667">
        <ele>984.1</ele>
        <time>2021-08-05T09:54:40Z</time>
      </trkpt>
      <trkpt lat="48.14149" lon="7.06668">
        <ele>983.8</ele>
        <time>2021-08-05T09:54:42Z</time>
      </trkpt>
      <trkpt lat="48.14145" lon="7.06666">
        <ele>983.6</ele>
        <time>2021-08-05T09:54:43Z</time>
      </trkpt>
      <trkpt lat="48.14139" lon="7.06661">
        <ele>983.4</ele>
        <time>2021-08-05T09:54:44Z</time>
      </trkpt>
      <trkpt lat="48.14136" lon="7.06657">
        <ele>983.2</ele>
        <time>2021-08-05T09:54:46Z</time>
      </trkpt>
      <trkpt lat="48.14134" lon="7.06658">
        <ele>983.1</ele>
        <time>2021-08-05T09:54:48Z</time>
      </trkpt>
      <trkpt lat="48.14132" lon="7.06659">
        <ele>983</ele>
        <time>2021-08-05T09:54:50Z</time>
      </trkpt>
      <trkpt lat="48.1413" lon="7.0666">
        <ele>982.9</ele>
        <time>2021-08-05T09:54:51Z</time>
      </trkpt>
      <trkpt lat="48.14127" lon="7.06662">
        <ele>982.8</ele>
        <time>2021-08-05T09:54:52Z</time>
      </trkpt>
      <trkpt lat="48.14125" lon="7.06663">
        <ele>982.7</ele>
        <time>2021-08-05T09:54:53Z</time>
      </trkpt>
      <trkpt lat="48.14123" lon="7.06664">
        <ele>982.6</ele>
        <time>2021-08-05T09:56:10Z</time>
      </trkpt>
      <trkpt lat="48.14121" lon="7.06666">
        <ele>982.5</ele>
        <time>2021-08-05T09:56:11Z</time>
      </trkpt>
      <trkpt lat="48.14112" lon="7.06663">
        <ele>982.2</ele>
        <time>2021-08-05T09:56:13Z</time>
      </trkpt>
      <trkpt lat="48.14105" lon="7.06662">
        <ele>981.9</ele>
        <time>2021-08-05T09:56:14Z</time>
      </trkpt>
      <trkpt lat="48.14097" lon="7.06661">
        <ele>981.4</ele>
        <time>2021-08-05T09:56:16Z</time>
      </trkpt>
      <trkpt lat="48.14085" lon="7.06659">
        <ele>980.8</ele>
        <time>2021-08-05T09:56:17Z</time>
      </trkpt>
      <trkpt lat="48.14081" lon="7.06657">
        <ele>980.6</ele>
        <time>2021-08-05T09:56:18Z</time>
      </trkpt>
      <trkpt lat="48.14078" lon="7.06654">
        <ele>980.3</ele>
        <time>2021-08-05T09:56:19Z</time>
      </trkpt>
      <trkpt lat="48.14074" lon="7.06653">
        <ele>980</ele>
        <time>2021-08-05T09:56:21Z</time>
      </trkpt>
      <trkpt lat="48.14068" lon="7.06652">
        <ele>979.7</ele>
        <time>2021-08-05T09:56:22Z</time>
      </trkpt>
      <trkpt lat="48.14063" lon="7.06648">
        <ele>979.3</ele>
        <time>2021-08-05T09:56:23Z</time>
      </trkpt>
      <trkpt lat="48.14058" lon="7.06645">
        <ele>979</ele>
        <time>2021-08-05T09:56:25Z</time>
      </trkpt>
      <trkpt lat="48.14054" lon="7.06642">
        <ele>978.6</ele>
        <time>2021-08-05T09:56:26Z</time>
      </trkpt>
      <trkpt lat="48.14047" lon="7.06637">
        <ele>978.1</ele>
        <time>2021-08-05T09:56:27Z</time>
      </trkpt>
      <trkpt lat="48.14042" lon="7.06632">
        <ele>977.6</ele>
        <time>2021-08-05T09:56:28Z</time>
      </trkpt>
      <trkpt lat="48.14034" lon="7.06622">
        <ele>976.9</ele>
        <time>2021-08-05T09:56:30Z</time>
      </trkpt>
      <trkpt lat="48.14031" lon="7.06617">
        <ele>976.5</ele>
        <time>2021-08-05T09:56:31Z</time>
      </trkpt>
      <trkpt lat="48.1403" lon="7.06611">
        <ele>976.2</ele>
        <time>2021-08-05T09:56:32Z</time>
      </trkpt>
      <trkpt lat="48.14028" lon="7.06592">
        <ele>975.2</ele>
        <time>2021-08-05T09:56:34Z</time>
      </trkpt>
      <trkpt lat="48.14024" lon="7.06577">
        <ele>974.5</ele>
        <time>2021-08-05T09:56:36Z</time>
      </trkpt>
      <trkpt lat="48.14016" lon="7.06561">
        <ele>973.6</ele>
        <time>2021-08-05T09:56:38Z</time>
      </trkpt>
      <trkpt lat="48.1401" lon="7.06546">
        <ele>972.9</ele>
        <time>2021-08-05T09:56:40Z</time>
      </trkpt>
      <trkpt lat="48.14001" lon="7.06534">
        <ele>972.4</ele>
        <time>2021-08-05T09:56:42Z</time>
      </trkpt>
      <trkpt lat="48.13991" lon="7.06525">
        <ele>972</ele>
        <time>2021-08-05T09:56:44Z</time>
      </trkpt>
      <trkpt lat="48.13981" lon="7.06517">
        <ele>971.7</ele>
        <time>2021-08-05T09:56:46Z</time>
      </trkpt>
      <trkpt lat="48.13973" lon="7.06517">
        <ele>971.1</ele>
        <time>2021-08-05T09:56:48Z</time>
      </trkpt>
      <trkpt lat="48.1397" lon="7.06526">
        <ele>969.9</ele>
        <time>2021-08-05T09:56:50Z</time>
      </trkpt>
      <trkpt lat="48.13973" lon="7.06544">
        <ele>968.2</ele>
        <time>2021-08-05T09:56:52Z</time>
      </trkpt>
      <trkpt lat="48.13976" lon="7.06573">
        <ele>964.8</ele>
        <time>2021-08-05T09:56:54Z</time>
      </trkpt>
      <trkpt lat="48.13976" lon="7.066">
        <ele>961.8</ele>
        <time>2021-08-05T09:56:56Z</time>
      </trkpt>
      <trkpt lat="48.13974" lon="7.06612">
        <ele>960.3</ele>
        <time>2021-08-05T09:56:57Z</time>
      </trkpt>
      <trkpt lat="48.13973" lon="7.06623">
        <ele>959.4</ele>
        <time>2021-08-05T09:56:58Z</time>
      </trkpt>
      <trkpt lat="48.13971" lon="7.06643">
        <ele>958.1</ele>
        <time>2021-08-05T09:57:00Z</time>
      </trkpt>
      <trkpt lat="48.13971" lon="7.06653">
        <ele>957.3</ele>
        <time>2021-08-05T09:57:01Z</time>
      </trkpt>
      <trkpt lat="48.13972" lon="7.06663">
        <ele>957</ele>
        <time>2021-08-05T09:57:02Z</time>
      </trkpt>
      <trkpt lat="48.13974" lon="7.06673">
        <ele>956.3</ele>
        <time>2021-08-05T09:57:03Z</time>
      </trkpt>
      <trkpt lat="48.13979" lon="7.06689">
        <ele>954.9</ele>
        <time>2021-08-05T09:57:05Z</time>
      </trkpt>
      <trkpt lat="48.13981" lon="7.06696">
        <ele>954</ele>
        <time>2021-08-05T09:57:06Z</time>
      </trkpt>
      <trkpt lat="48.13984" lon="7.06702">
        <ele>953.5</ele>
        <time>2021-08-05T09:57:07Z</time>
      </trkpt>
      <trkpt lat="48.13985" lon="7.06708">
        <ele>953.1</ele>
        <time>2021-08-05T09:57:08Z</time>
      </trkpt>
      <trkpt lat="48.13987" lon="7.06717">
        <ele>952.2</ele>
        <time>2021-08-05T09:57:10Z</time>
      </trkpt>
      <trkpt lat="48.13987" lon="7.06721">
        <ele>951.9</ele>
        <time>2021-08-05T09:57:11Z</time>
      </trkpt>
      <trkpt lat="48.13985" lon="7.06724">
        <ele>951.6</ele>
        <time>2021-08-05T09:57:12Z</time>
      </trkpt>
      <trkpt lat="48.1398" lon="7.06729">
        <ele>951.4</ele>
        <time>2021-08-05T09:57:14Z</time>
      </trkpt>
      <trkpt lat="48.13973" lon="7.06733">
        <ele>951.1</ele>
        <time>2021-08-05T09:57:16Z</time>
      </trkpt>
      <trkpt lat="48.1397" lon="7.06733">
        <ele>951.2</ele>
        <time>2021-08-05T09:57:17Z</time>
      </trkpt>
      <trkpt lat="48.13966" lon="7.06734">
        <ele>951.2</ele>
        <time>2021-08-05T09:57:19Z</time>
      </trkpt>
      <trkpt lat="48.13959" lon="7.06732">
        <ele>951.6</ele>
        <time>2021-08-05T09:57:20Z</time>
      </trkpt>
      <trkpt lat="48.13955" lon="7.0673">
        <ele>952.1</ele>
        <time>2021-08-05T09:57:21Z</time>
      </trkpt>
      <trkpt lat="48.13947" lon="7.06717">
        <ele>953.5</ele>
        <time>2021-08-05T09:57:22Z</time>
      </trkpt>
      <trkpt lat="48.13939" lon="7.0671">
        <ele>953.8</ele>
        <time>2021-08-05T09:57:24Z</time>
      </trkpt>
      <trkpt lat="48.1393" lon="7.06697">
        <ele>954.5</ele>
        <time>2021-08-05T09:57:25Z</time>
      </trkpt>
      <trkpt lat="48.13923" lon="7.06692">
        <ele>954.9</ele>
        <time>2021-08-05T09:57:26Z</time>
      </trkpt>
      <trkpt lat="48.13915" lon="7.06686">
        <ele>955.7</ele>
        <time>2021-08-05T09:57:28Z</time>
      </trkpt>
      <trkpt lat="48.1391" lon="7.06685">
        <ele>955.4</ele>
        <time>2021-08-05T09:57:29Z</time>
      </trkpt>
      <trkpt lat="48.13911" lon="7.06687">
        <ele>955.4</ele>
        <time>2021-08-05T09:57:30Z</time>
      </trkpt>
      <trkpt lat="48.13915" lon="7.06696">
        <ele>955.1</ele>
        <time>2021-08-05T09:57:32Z</time>
      </trkpt>
      <trkpt lat="48.13918" lon="7.06701">
        <ele>954.9</ele>
        <time>2021-08-05T09:57:34Z</time>
      </trkpt>
      <trkpt lat="48.13918" lon="7.06704">
        <ele>954.8</ele>
        <time>2021-08-05T09:57:35Z</time>
      </trkpt>
      <trkpt lat="48.13918" lon="7.06706">
        <ele>954.8</ele>
        <time>2021-08-05T09:57:37Z</time>
      </trkpt>
      <trkpt lat="48.13918" lon="7.06707">
        <ele>954.7</ele>
        <time>2021-08-05T09:57:38Z</time>
      </trkpt>
      <trkpt lat="48.13918" lon="7.06707">
        <ele>954.7</ele>
        <time>2021-08-05T09:57:40Z</time>
      </trkpt>
      <trkpt lat="48.13925" lon="7.06747">
        <ele>952.7</ele>
        <time>2021-08-05T09:57:50Z</time>
      </trkpt>
      <trkpt lat="48.13928" lon="7.06752">
        <ele>952.3</ele>
        <time>2021-08-05T09:57:52Z</time>
      </trkpt>
      <trkpt lat="48.13943" lon="7.06767">
        <ele>951.1</ele>
        <time>2021-08-05T09:57:53Z</time>
      </trkpt>
      <trkpt lat="48.13947" lon="7.06772">
        <ele>950.8</ele>
        <time>2021-08-05T09:57:54Z</time>
      </trkpt>
      <trkpt lat="48.13949" lon="7.06775">
        <ele>950.6</ele>
        <time>2021-08-05T09:57:56Z</time>
      </trkpt>
      <trkpt lat="48.13953" lon="7.0678">
        <ele>950.3</ele>
        <time>2021-08-05T09:57:58Z</time>
      </trkpt>
      <trkpt lat="48.13955" lon="7.06787">
        <ele>950.1</ele>
        <time>2021-08-05T09:57:59Z</time>
      </trkpt>
      <trkpt lat="48.13956" lon="7.06792">
        <ele>949.9</ele>
        <time>2021-08-05T09:58:00Z</time>
      </trkpt>
      <trkpt lat="48.13956" lon="7.06796">
        <ele>949.8</ele>
        <time>2021-08-05T09:58:02Z</time>
      </trkpt>
      <trkpt lat="48.13957" lon="7.068">
        <ele>949.6</ele>
        <time>2021-08-05T09:58:03Z</time>
      </trkpt>
      <trkpt lat="48.13955" lon="7.06808">
        <ele>949.3</ele>
        <time>2021-08-05T09:58:04Z</time>
      </trkpt>
      <trkpt lat="48.13954" lon="7.06814">
        <ele>949.1</ele>
        <time>2021-08-05T09:58:05Z</time>
      </trkpt>
      <trkpt lat="48.1395" lon="7.06831">
        <ele>948.5</ele>
        <time>2021-08-05T09:58:07Z</time>
      </trkpt>
      <trkpt lat="48.13948" lon="7.0684">
        <ele>948.2</ele>
        <time>2021-08-05T09:58:08Z</time>
      </trkpt>
      <trkpt lat="48.13947" lon="7.06846">
        <ele>948</ele>
        <time>2021-08-05T09:58:10Z</time>
      </trkpt>
      <trkpt lat="48.13947" lon="7.06852">
        <ele>947.8</ele>
        <time>2021-08-05T09:58:11Z</time>
      </trkpt>
      <trkpt lat="48.13951" lon="7.06861">
        <ele>947.5</ele>
        <time>2021-08-05T09:58:12Z</time>
      </trkpt>
      <trkpt lat="48.13956" lon="7.06871">
        <ele>947.2</ele>
        <time>2021-08-05T09:58:14Z</time>
      </trkpt>
      <trkpt lat="48.13961" lon="7.0688">
        <ele>946.9</ele>
        <time>2021-08-05T09:58:15Z</time>
      </trkpt>
      <trkpt lat="48.13965" lon="7.06886">
        <ele>946.6</ele>
        <time>2021-08-05T09:58:16Z</time>
      </trkpt>
      <trkpt lat="48.13969" lon="7.06892">
        <ele>946.4</ele>
        <time>2021-08-05T09:58:18Z</time>
      </trkpt>
      <trkpt lat="48.13974" lon="7.069">
        <ele>946.1</ele>
        <time>2021-08-05T09:58:19Z</time>
      </trkpt>
      <trkpt lat="48.13979" lon="7.06907">
        <ele>945.8</ele>
        <time>2021-08-05T09:58:21Z</time>
      </trkpt>
      <trkpt lat="48.13982" lon="7.06912">
        <ele>945.6</ele>
        <time>2021-08-05T09:58:22Z</time>
      </trkpt>
      <trkpt lat="48.13987" lon="7.06916">
        <ele>945.4</ele>
        <time>2021-08-05T09:58:24Z</time>
      </trkpt>
      <trkpt lat="48.13989" lon="7.06913">
        <ele>945.3</ele>
        <time>2021-08-05T09:58:25Z</time>
      </trkpt>
      <trkpt lat="48.13991" lon="7.06911">
        <ele>945.2</ele>
        <time>2021-08-05T09:58:26Z</time>
      </trkpt>
      <trkpt lat="48.13992" lon="7.06911">
        <ele>945.1</ele>
        <time>2021-08-05T09:58:27Z</time>
      </trkpt>
      <trkpt lat="48.13994" lon="7.06912">
        <ele>945.1</ele>
        <time>2021-08-05T09:58:28Z</time>
      </trkpt>
      <trkpt lat="48.13995" lon="7.06912">
        <ele>945</ele>
        <time>2021-08-05T09:58:29Z</time>
      </trkpt>
      <trkpt lat="48.13996" lon="7.06913">
        <ele>945</ele>
        <time>2021-08-05T09:58:30Z</time>
      </trkpt>
      <trkpt lat="48.13998" lon="7.06915">
        <ele>944.9</ele>
        <time>2021-08-05T09:58:31Z</time>
      </trkpt>
      <trkpt lat="48.13999" lon="7.06917">
        <ele>944.8</ele>
        <time>2021-08-05T09:58:32Z</time>
      </trkpt>
      <trkpt lat="48.14002" lon="7.06922">
        <ele>944.6</ele>
        <time>2021-08-05T09:58:35Z</time>
      </trkpt>
      <trkpt lat="48.14006" lon="7.06928">
        <ele>944.4</ele>
        <time>2021-08-05T09:58:36Z</time>
      </trkpt>
      <trkpt lat="48.1401" lon="7.06931">
        <ele>944.2</ele>
        <time>2021-08-05T09:58:38Z</time>
      </trkpt>
      <trkpt lat="48.14011" lon="7.06933">
        <ele>944.1</ele>
        <time>2021-08-05T09:58:39Z</time>
      </trkpt>
      <trkpt lat="48.14015" lon="7.06936">
        <ele>943.9</ele>
        <time>2021-08-05T09:58:41Z</time>
      </trkpt>
      <trkpt lat="48.14018" lon="7.06938">
        <ele>943.7</ele>
        <time>2021-08-05T09:58:42Z</time>
      </trkpt>
      <trkpt lat="48.1402" lon="7.06939">
        <ele>943.6</ele>
        <time>2021-08-05T09:58:43Z</time>
      </trkpt>
      <trkpt lat="48.14025" lon="7.06942">
        <ele>943.3</ele>
        <time>2021-08-05T09:58:44Z</time>
      </trkpt>
      <trkpt lat="48.14029" lon="7.06946">
        <ele>943.1</ele>
        <time>2021-08-05T09:58:45Z</time>
      </trkpt>
      <trkpt lat="48.14034" lon="7.06951">
        <ele>942.7</ele>
        <time>2021-08-05T09:58:46Z</time>
      </trkpt>
      <trkpt lat="48.1404" lon="7.06954">
        <ele>942.2</ele>
        <time>2021-08-05T09:58:48Z</time>
      </trkpt>
      <trkpt lat="48.14043" lon="7.06957">
        <ele>942</ele>
        <time>2021-08-05T09:58:49Z</time>
      </trkpt>
      <trkpt lat="48.14047" lon="7.0696">
        <ele>941.6</ele>
        <time>2021-08-05T09:58:50Z</time>
      </trkpt>
      <trkpt lat="48.14056" lon="7.06971">
        <ele>940.8</ele>
        <time>2021-08-05T09:58:52Z</time>
      </trkpt>
      <trkpt lat="48.14063" lon="7.06993">
        <ele>939.7</ele>
        <time>2021-08-05T09:58:54Z</time>
      </trkpt>
      <trkpt lat="48.14071" lon="7.07011">
        <ele>938.8</ele>
        <time>2021-08-05T09:58:56Z</time>
      </trkpt>
      <trkpt lat="48.14075" lon="7.07017">
        <ele>938.6</ele>
        <time>2021-08-05T09:58:57Z</time>
      </trkpt>
      <trkpt lat="48.14078" lon="7.07023">
        <ele>938.4</ele>
        <time>2021-08-05T09:58:58Z</time>
      </trkpt>
      <trkpt lat="48.14082" lon="7.07028">
        <ele>938.3</ele>
        <time>2021-08-05T09:58:59Z</time>
      </trkpt>
      <trkpt lat="48.14087" lon="7.07036">
        <ele>938.2</ele>
        <time>2021-08-05T09:59:00Z</time>
      </trkpt>
      <trkpt lat="48.14092" lon="7.07047">
        <ele>938.1</ele>
        <time>2021-08-05T09:59:02Z</time>
      </trkpt>
      <trkpt lat="48.14095" lon="7.07052">
        <ele>938</ele>
        <time>2021-08-05T09:59:04Z</time>
      </trkpt>
      <trkpt lat="48.14097" lon="7.07054">
        <ele>938</ele>
        <time>2021-08-05T09:59:05Z</time>
      </trkpt>
      <trkpt lat="48.14098" lon="7.07056">
        <ele>938</ele>
        <time>2021-08-05T09:59:06Z</time>
      </trkpt>
      <trkpt lat="48.14098" lon="7.07057">
        <ele>938</ele>
        <time>2021-08-05T09:59:07Z</time>
      </trkpt>
      <trkpt lat="48.14099" lon="7.07059">
        <ele>938</ele>
        <time>2021-08-05T09:59:08Z</time>
      </trkpt>
      <trkpt lat="48.14099" lon="7.07061">
        <ele>938</ele>
        <time>2021-08-05T09:59:09Z</time>
      </trkpt>
      <trkpt lat="48.141" lon="7.07062">
        <ele>938</ele>
        <time>2021-08-05T09:59:10Z</time>
      </trkpt>
      <trkpt lat="48.14101" lon="7.07064">
        <ele>938</ele>
        <time>2021-08-05T09:59:11Z</time>
      </trkpt>
      <trkpt lat="48.14102" lon="7.07065">
        <ele>937.9</ele>
        <time>2021-08-05T09:59:12Z</time>
      </trkpt>
      <trkpt lat="48.14151" lon="7.07163">
        <ele>937.5</ele>
        <time>2021-08-05T10:00:11Z</time>
      </trkpt>
      <trkpt lat="48.14152" lon="7.07169">
        <ele>937.5</ele>
        <time>2021-08-05T10:00:12Z</time>
      </trkpt>
      <trkpt lat="48.14153" lon="7.07177">
        <ele>937.4</ele>
        <time>2021-08-05T10:00:13Z</time>
      </trkpt>
      <trkpt lat="48.14154" lon="7.07184">
        <ele>937.3</ele>
        <time>2021-08-05T10:00:14Z</time>
      </trkpt>
      <trkpt lat="48.14155" lon="7.07187">
        <ele>937.3</ele>
        <time>2021-08-05T10:00:15Z</time>
      </trkpt>
      <trkpt lat="48.14154" lon="7.072">
        <ele>937.2</ele>
        <time>2021-08-05T10:00:17Z</time>
      </trkpt>
      <trkpt lat="48.14154" lon="7.07204">
        <ele>937.2</ele>
        <time>2021-08-05T10:00:18Z</time>
      </trkpt>
      <trkpt lat="48.14154" lon="7.07205">
        <ele>937.2</ele>
        <time>2021-08-05T10:00:19Z</time>
      </trkpt>
      <trkpt lat="48.14153" lon="7.07206">
        <ele>937.2</ele>
        <time>2021-08-05T10:00:20Z</time>
      </trkpt>
      <trkpt lat="48.14153" lon="7.07207">
        <ele>937.2</ele>
        <time>2021-08-05T10:00:21Z</time>
      </trkpt>
      <trkpt lat="48.14154" lon="7.07207">
        <ele>937.2</ele>
        <time>2021-08-05T10:00:23Z</time>
      </trkpt>
      <trkpt lat="48.14155" lon="7.07208">
        <ele>937.2</ele>
        <time>2021-08-05T10:00:24Z</time>
      </trkpt>
      <trkpt lat="48.14155" lon="7.07209">
        <ele>937.2</ele>
        <time>2021-08-05T10:00:25Z</time>
      </trkpt>
      <trkpt lat="48.14157" lon="7.07211">
        <ele>937.2</ele>
        <time>2021-08-05T10:00:26Z</time>
      </trkpt>
      <trkpt lat="48.14158" lon="7.07213">
        <ele>937.3</ele>
        <time>2021-08-05T10:00:28Z</time>
      </trkpt>
      <trkpt lat="48.14184" lon="7.07254">
        <ele>938.5</ele>
        <time>2021-08-05T10:02:43Z</time>
      </trkpt>
      <trkpt lat="48.14183" lon="7.07253">
        <ele>941</ele>
        <time>2021-08-05T10:02:44Z</time>
      </trkpt>
      <trkpt lat="48.14182" lon="7.07252">
        <ele>941.1</ele>
        <time>2021-08-05T10:02:46Z</time>
      </trkpt>
      <trkpt lat="48.14177" lon="7.07253">
        <ele>941.5</ele>
        <time>2021-08-05T10:02:48Z</time>
      </trkpt>
      <trkpt lat="48.14174" lon="7.07255">
        <ele>941.8</ele>
        <time>2021-08-05T10:02:49Z</time>
      </trkpt>
      <trkpt lat="48.14173" lon="7.07256">
        <ele>941.9</ele>
        <time>2021-08-05T10:02:50Z</time>
      </trkpt>
      <trkpt lat="48.14171" lon="7.07259">
        <ele>942.2</ele>
        <time>2021-08-05T10:02:52Z</time>
      </trkpt>
      <trkpt lat="48.1417" lon="7.07261">
        <ele>942.3</ele>
        <time>2021-08-05T10:02:53Z</time>
      </trkpt>
      <trkpt lat="48.14169" lon="7.07263">
        <ele>942.4</ele>
        <time>2021-08-05T10:02:54Z</time>
      </trkpt>
      <trkpt lat="48.14168" lon="7.07264">
        <ele>942.6</ele>
        <time>2021-08-05T10:02:55Z</time>
      </trkpt>
      <trkpt lat="48.14167" lon="7.07264">
        <ele>942.6</ele>
        <time>2021-08-05T10:02:57Z</time>
      </trkpt>
      <trkpt lat="48.14168" lon="7.07266">
        <ele>942.7</ele>
        <time>2021-08-05T10:02:58Z</time>
      </trkpt>
      <trkpt lat="48.14168" lon="7.07267">
        <ele>942.8</ele>
        <time>2021-08-05T10:03:00Z</time>
      </trkpt>
      <trkpt lat="48.14166" lon="7.07269">
        <ele>943</ele>
        <time>2021-08-05T10:03:01Z</time>
      </trkpt>
      <trkpt lat="48.14165" lon="7.07271">
        <ele>943.1</ele>
        <time>2021-08-05T10:03:02Z</time>
      </trkpt>
      <trkpt lat="48.14166" lon="7.07272">
        <ele>943.2</ele>
        <time>2021-08-05T10:03:03Z</time>
      </trkpt>
      <trkpt lat="48.14166" lon="7.07274">
        <ele>943.3</ele>
        <time>2021-08-05T10:03:04Z</time>
      </trkpt>
      <trkpt lat="48.14165" lon="7.07276">
        <ele>943.4</ele>
        <time>2021-08-05T10:03:06Z</time>
      </trkpt>
      <trkpt lat="48.14166" lon="7.07278">
        <ele>943.5</ele>
        <time>2021-08-05T10:03:07Z</time>
      </trkpt>
      <trkpt lat="48.14167" lon="7.0728">
        <ele>943.7</ele>
        <time>2021-08-05T10:03:08Z</time>
      </trkpt>
      <trkpt lat="48.14168" lon="7.0728">
        <ele>943.7</ele>
        <time>2021-08-05T10:03:10Z</time>
      </trkpt>
      <trkpt lat="48.14168" lon="7.07281">
        <ele>943.8</ele>
        <time>2021-08-05T10:03:11Z</time>
      </trkpt>
      <trkpt lat="48.14168" lon="7.07282">
        <ele>943.8</ele>
        <time>2021-08-05T10:03:12Z</time>
      </trkpt>
      <trkpt lat="48.14167" lon="7.07285">
        <ele>944</ele>
        <time>2021-08-05T10:03:13Z</time>
      </trkpt>
      <trkpt lat="48.14167" lon="7.07284">
        <ele>944.1</ele>
        <time>2021-08-05T10:03:14Z</time>
      </trkpt>
      <trkpt lat="48.14166" lon="7.07283">
        <ele>944.1</ele>
        <time>2021-08-05T10:03:16Z</time>
      </trkpt>
      <trkpt lat="48.14165" lon="7.07282">
        <ele>944.2</ele>
        <time>2021-08-05T10:03:18Z</time>
      </trkpt>
      <trkpt lat="48.14164" lon="7.07282">
        <ele>944.3</ele>
        <time>2021-08-05T10:03:19Z</time>
      </trkpt>
      <trkpt lat="48.14164" lon="7.07283">
        <ele>944.4</ele>
        <time>2021-08-05T10:03:20Z</time>
      </trkpt>
      <trkpt lat="48.14164" lon="7.07283">
        <ele>944.4</ele>
        <time>2021-08-05T10:03:21Z</time>
      </trkpt>
      <trkpt lat="48.14164" lon="7.07283">
        <ele>944.4</ele>
        <time>2021-08-05T10:03:22Z</time>
      </trkpt>
      <trkpt lat="48.14164" lon="7.07283">
        <ele>944.4</ele>
        <time>2021-08-05T10:03:24Z</time>
      </trkpt>
      <trkpt lat="48.14164" lon="7.07283">
        <ele>944.4</ele>
        <time>2021-08-05T10:03:26Z</time>
      </trkpt>
      <trkpt lat="48.14164" lon="7.07283">
        <ele>944.4</ele>
        <time>2021-08-05T10:03:27Z</time>
      </trkpt>
      <trkpt lat="48.14164" lon="7.07283">
        <ele>944.4</ele>
        <time>2021-08-05T10:03:28Z</time>
      </trkpt>
      <trkpt lat="48.14164" lon="7.07283">
        <ele>944.4</ele>
        <time>2021-08-05T10:03:29Z</time>
      </trkpt>
      <trkpt lat="48.14164" lon="7.07283">
        <ele>944.4</ele>
        <time>2021-08-05T10:03:31Z</time>
      </trkpt>
      <trkpt lat="48.14101" lon="7.07322">
        <ele>951.3</ele>
        <time>2021-08-05T10:04:55Z</time>
      </trkpt>
      <trkpt lat="48.141" lon="7.07323">
        <ele>951.4</ele>
        <time>2021-08-05T10:04:56Z</time>
      </trkpt>
      <trkpt lat="48.14099" lon="7.07325">
        <ele>951.5</ele>
        <time>2021-08-05T10:04:57Z</time>
      </trkpt>
      <trkpt lat="48.14098" lon="7.07327">
        <ele>951.7</ele>
        <time>2021-08-05T10:04:59Z</time>
      </trkpt>
      <trkpt lat="48.14097" lon="7.07327">
        <ele>951.7</ele>
        <time>2021-08-05T10:05:00Z</time>
      </trkpt>
      <trkpt lat="48.14097" lon="7.07328">
        <ele>951.8</ele>
        <time>2021-08-05T10:05:02Z</time>
      </trkpt>
      <trkpt lat="48.14096" lon="7.07329">
        <ele>951.9</ele>
        <time>2021-08-05T10:05:04Z</time>
      </trkpt>
      <trkpt lat="48.14096" lon="7.07329">
        <ele>951.9</ele>
        <time>2021-08-05T10:05:05Z</time>
      </trkpt>
      <trkpt lat="48.14096" lon="7.07329">
        <ele>951.9</ele>
        <time>2021-08-05T10:05:06Z</time>
      </trkpt>
      <trkpt lat="48.14096" lon="7.07329">
        <ele>951.9</ele>
        <time>2021-08-05T10:05:07Z</time>
      </trkpt>
      <trkpt lat="48.14096" lon="7.07329">
        <ele>951.9</ele>
        <time>2021-08-05T10:05:09Z</time>
      </trkpt>
      <trkpt lat="48.14072" lon="7.07325">
        <ele>955.1</ele>
        <time>2021-08-05T10:05:36Z</time>
      </trkpt>
      <trkpt lat="48.1407" lon="7.07323">
        <ele>955.6</ele>
        <time>2021-08-05T10:05:37Z</time>
      </trkpt>
      <trkpt lat="48.14068" lon="7.07322">
        <ele>955.9</ele>
        <time>2021-08-05T10:05:39Z</time>
      </trkpt>
      <trkpt lat="48.14067" lon="7.07322">
        <ele>956</ele>
        <time>2021-08-05T10:05:40Z</time>
      </trkpt>
      <trkpt lat="48.14067" lon="7.07321">
        <ele>956</ele>
        <time>2021-08-05T10:05:42Z</time>
      </trkpt>
      <trkpt lat="48.14067" lon="7.07321">
        <ele>956</ele>
        <time>2021-08-05T10:05:43Z</time>
      </trkpt>
      <trkpt lat="48.14067" lon="7.07321">
        <ele>956</ele>
        <time>2021-08-05T10:05:44Z</time>
      </trkpt>
      <trkpt lat="48.14067" lon="7.07321">
        <ele>956.1</ele>
        <time>2021-08-05T10:05:46Z</time>
      </trkpt>
      <trkpt lat="48.14067" lon="7.07321">
        <ele>956.1</ele>
        <time>2021-08-05T10:05:47Z</time>
      </trkpt>
      <trkpt lat="48.14066" lon="7.07321">
        <ele>956.1</ele>
        <time>2021-08-05T10:05:49Z</time>
      </trkpt>
      <trkpt lat="48.14066" lon="7.07321">
        <ele>956.1</ele>
        <time>2021-08-05T10:05:50Z</time>
      </trkpt>
      <trkpt lat="48.14066" lon="7.07321">
        <ele>956.2</ele>
        <time>2021-08-05T10:05:51Z</time>
      </trkpt>
      <trkpt lat="48.14064" lon="7.0732">
        <ele>956.4</ele>
        <time>2021-08-05T10:05:52Z</time>
      </trkpt>
      <trkpt lat="48.14056" lon="7.07318">
        <ele>957.7</ele>
        <time>2021-08-05T10:05:57Z</time>
      </trkpt>
      <trkpt lat="48.14053" lon="7.07317">
        <ele>958.1</ele>
        <time>2021-08-05T10:05:59Z</time>
      </trkpt>
      <trkpt lat="48.14052" lon="7.07316">
        <ele>958.3</ele>
        <time>2021-08-05T10:06:00Z</time>
      </trkpt>
      <trkpt lat="48.14049" lon="7.07315">
        <ele>958.6</ele>
        <time>2021-08-05T10:06:02Z</time>
      </trkpt>
      <trkpt lat="48.14048" lon="7.07315">
        <ele>958.7</ele>
        <time>2021-08-05T10:06:03Z</time>
      </trkpt>
      <trkpt lat="48.14047" lon="7.07314">
        <ele>958.8</ele>
        <time>2021-08-05T10:06:04Z</time>
      </trkpt>
      <trkpt lat="48.14046" lon="7.07314">
        <ele>958.9</ele>
        <time>2021-08-05T10:06:06Z</time>
      </trkpt>
      <trkpt lat="48.14046" lon="7.07314">
        <ele>959</ele>
        <time>2021-08-05T10:06:08Z</time>
      </trkpt>
      <trkpt lat="48.14045" lon="7.07314">
        <ele>959</ele>
        <time>2021-08-05T10:06:09Z</time>
      </trkpt>
      <trkpt lat="48.14045" lon="7.07314">
        <ele>959</ele>
        <time>2021-08-05T10:06:10Z</time>
      </trkpt>
      <trkpt lat="48.14015" lon="7.07285">
        <ele>962.8</ele>
        <time>2021-08-05T10:06:41Z</time>
      </trkpt>
      <trkpt lat="48.14012" lon="7.07281">
        <ele>963.3</ele>
        <time>2021-08-05T10:06:42Z</time>
      </trkpt>
      <trkpt lat="48.14009" lon="7.07279">
        <ele>963.7</ele>
        <time>2021-08-05T10:06:43Z</time>
      </trkpt>
      <trkpt lat="48.14007" lon="7.07278">
        <ele>963.9</ele>
        <time>2021-08-05T10:06:45Z</time>
      </trkpt>
      <trkpt lat="48.14006" lon="7.07278">
        <ele>964.1</ele>
        <time>2021-08-05T10:06:46Z</time>
      </trkpt>
      <trkpt lat="48.14005" lon="7.07277">
        <ele>964.2</ele>
        <time>2021-08-05T10:06:47Z</time>
      </trkpt>
      <trkpt lat="48.14004" lon="7.07277">
        <ele>964.4</ele>
        <time>2021-08-05T10:06:49Z</time>
      </trkpt>
      <trkpt lat="48.14003" lon="7.07276">
        <ele>964.4</ele>
        <time>2021-08-05T10:06:50Z</time>
      </trkpt>
      <trkpt lat="48.14003" lon="7.07276">
        <ele>964.5</ele>
        <time>2021-08-05T10:06:52Z</time>
      </trkpt>
      <trkpt lat="48.14002" lon="7.07276">
        <ele>964.5</ele>
        <time>2021-08-05T10:06:54Z</time>
      </trkpt>
      <trkpt lat="48.14002" lon="7.07276">
        <ele>964.6</ele>
        <time>2021-08-05T10:06:55Z</time>
      </trkpt>
      <trkpt lat="48.13985" lon="7.07263">
        <ele>966.9</ele>
        <time>2021-08-05T10:07:12Z</time>
      </trkpt>
      <trkpt lat="48.1398" lon="7.07261">
        <ele>967.4</ele>
        <time>2021-08-05T10:07:14Z</time>
      </trkpt>
      <trkpt lat="48.13977" lon="7.07261">
        <ele>967.8</ele>
        <time>2021-08-05T10:07:16Z</time>
      </trkpt>
      <trkpt lat="48.13976" lon="7.07261">
        <ele>967.9</ele>
        <time>2021-08-05T10:07:17Z</time>
      </trkpt>
      <trkpt lat="48.13975" lon="7.07261">
        <ele>968.1</ele>
        <time>2021-08-05T10:07:18Z</time>
      </trkpt>
      <trkpt lat="48.13974" lon="7.07262">
        <ele>968.2</ele>
        <time>2021-08-05T10:07:19Z</time>
      </trkpt>
      <trkpt lat="48.13973" lon="7.07262">
        <ele>968.2</ele>
        <time>2021-08-05T10:07:21Z</time>
      </trkpt>
      <trkpt lat="48.13971" lon="7.07261">
        <ele>968.5</ele>
        <time>2021-08-05T10:07:22Z</time>
      </trkpt>
      <trkpt lat="48.13966" lon="7.07258">
        <ele>968.9</ele>
        <time>2021-08-05T10:07:24Z</time>
      </trkpt>
      <trkpt lat="48.13964" lon="7.07256">
        <ele>969.1</ele>
        <time>2021-08-05T10:07:25Z</time>
      </trkpt>
      <trkpt lat="48.13963" lon="7.07254">
        <ele>969.3</ele>
        <time>2021-08-05T10:07:27Z</time>
      </trkpt>
      <trkpt lat="48.1396" lon="7.07251">
        <ele>969.6</ele>
        <time>2021-08-05T10:07:29Z</time>
      </trkpt>
      <trkpt lat="48.13957" lon="7.07249">
        <ele>969.9</ele>
        <time>2021-08-05T10:07:30Z</time>
      </trkpt>
      <trkpt lat="48.13953" lon="7.07245">
        <ele>970.2</ele>
        <time>2021-08-05T10:07:32Z</time>
      </trkpt>
      <trkpt lat="48.13952" lon="7.07244">
        <ele>970.3</ele>
        <time>2021-08-05T10:07:33Z</time>
      </trkpt>
      <trkpt lat="48.13951" lon="7.07242">
        <ele>970.4</ele>
        <time>2021-08-05T10:07:34Z</time>
      </trkpt>
      <trkpt lat="48.1395" lon="7.07241">
        <ele>970.5</ele>
        <time>2021-08-05T10:07:36Z</time>
      </trkpt>
      <trkpt lat="48.13949" lon="7.07239">
        <ele>970.6</ele>
        <time>2021-08-05T10:07:37Z</time>
      </trkpt>
      <trkpt lat="48.13947" lon="7.07235">
        <ele>970.9</ele>
        <time>2021-08-05T10:07:38Z</time>
      </trkpt>
      <trkpt lat="48.13946" lon="7.07233">
        <ele>970.9</ele>
        <time>2021-08-05T10:07:39Z</time>
      </trkpt>
      <trkpt lat="48.13944" lon="7.07231">
        <ele>971.1</ele>
        <time>2021-08-05T10:07:41Z</time>
      </trkpt>
      <trkpt lat="48.13943" lon="7.0723">
        <ele>971.1</ele>
        <time>2021-08-05T10:07:42Z</time>
      </trkpt>
      <trkpt lat="48.13941" lon="7.07228">
        <ele>971.4</ele>
        <time>2021-08-05T10:07:43Z</time>
      </trkpt>
      <trkpt lat="48.1394" lon="7.07228">
        <ele>971.5</ele>
        <time>2021-08-05T10:07:44Z</time>
      </trkpt>
      <trkpt lat="48.13937" lon="7.07227">
        <ele>971.7</ele>
        <time>2021-08-05T10:07:46Z</time>
      </trkpt>
      <trkpt lat="48.13936" lon="7.07227">
        <ele>971.8</ele>
        <time>2021-08-05T10:07:47Z</time>
      </trkpt>
      <trkpt lat="48.13932" lon="7.07225">
        <ele>972</ele>
        <time>2021-08-05T10:07:48Z</time>
      </trkpt>
      <trkpt lat="48.13929" lon="7.07224">
        <ele>972.3</ele>
        <time>2021-08-05T10:07:49Z</time>
      </trkpt>
      <trkpt lat="48.13927" lon="7.07224">
        <ele>972.4</ele>
        <time>2021-08-05T10:07:50Z</time>
      </trkpt>
      <trkpt lat="48.13924" lon="7.07222">
        <ele>972.6</ele>
        <time>2021-08-05T10:07:52Z</time>
      </trkpt>
      <trkpt lat="48.13921" lon="7.07221">
        <ele>972.9</ele>
        <time>2021-08-05T10:07:53Z</time>
      </trkpt>
      <trkpt lat="48.13918" lon="7.07222">
        <ele>973.2</ele>
        <time>2021-08-05T10:07:55Z</time>
      </trkpt>
      <trkpt lat="48.13917" lon="7.07221">
        <ele>973.3</ele>
        <time>2021-08-05T10:07:56Z</time>
      </trkpt>
      <trkpt lat="48.13915" lon="7.07221">
        <ele>973.5</ele>
        <time>2021-08-05T10:07:57Z</time>
      </trkpt>
      <trkpt lat="48.13914" lon="7.07221">
        <ele>973.6</ele>
        <time>2021-08-05T10:07:59Z</time>
      </trkpt>
      <trkpt lat="48.13914" lon="7.07221">
        <ele>973.6</ele>
        <time>2021-08-05T10:08:00Z</time>
      </trkpt>
      <trkpt lat="48.13911" lon="7.0722">
        <ele>973.8</ele>
        <time>2021-08-05T10:08:01Z</time>
      </trkpt>
      <trkpt lat="48.13909" lon="7.0722">
        <ele>974</ele>
        <time>2021-08-05T10:08:03Z</time>
      </trkpt>
      <trkpt lat="48.13909" lon="7.0722">
        <ele>974.1</ele>
        <time>2021-08-05T10:08:04Z</time>
      </trkpt>
      <trkpt lat="48.13907" lon="7.07219">
        <ele>974.3</ele>
        <time>2021-08-05T10:08:05Z</time>
      </trkpt>
      <trkpt lat="48.13906" lon="7.07219">
        <ele>974.4</ele>
        <time>2021-08-05T10:08:06Z</time>
      </trkpt>
      <trkpt lat="48.13906" lon="7.07219">
        <ele>974.4</ele>
        <time>2021-08-05T10:08:07Z</time>
      </trkpt>
      <trkpt lat="48.13903" lon="7.07219">
        <ele>974.7</ele>
        <time>2021-08-05T10:08:09Z</time>
      </trkpt>
      <trkpt lat="48.139" lon="7.07218">
        <ele>975.1</ele>
        <time>2021-08-05T10:08:11Z</time>
      </trkpt>
      <trkpt lat="48.13898" lon="7.07217">
        <ele>975.3</ele>
        <time>2021-08-05T10:08:12Z</time>
      </trkpt>
      <trkpt lat="48.13897" lon="7.07217">
        <ele>975.4</ele>
        <time>2021-08-05T10:08:13Z</time>
      </trkpt>
      <trkpt lat="48.13896" lon="7.07217">
        <ele>975.5</ele>
        <time>2021-08-05T10:08:14Z</time>
      </trkpt>
      <trkpt lat="48.13895" lon="7.07215">
        <ele>975.6</ele>
        <time>2021-08-05T10:08:16Z</time>
      </trkpt>
      <trkpt lat="48.13894" lon="7.07215">
        <ele>975.7</ele>
        <time>2021-08-05T10:08:17Z</time>
      </trkpt>
      <trkpt lat="48.13893" lon="7.07214">
        <ele>975.8</ele>
        <time>2021-08-05T10:08:18Z</time>
      </trkpt>
      <trkpt lat="48.13893" lon="7.07214">
        <ele>975.9</ele>
        <time>2021-08-05T10:08:19Z</time>
      </trkpt>
      <trkpt lat="48.13888" lon="7.07212">
        <ele>976.4</ele>
        <time>2021-08-05T10:08:21Z</time>
      </trkpt>
      <trkpt lat="48.13887" lon="7.07211">
        <ele>976.6</ele>
        <time>2021-08-05T10:08:22Z</time>
      </trkpt>
      <trkpt lat="48.13886" lon="7.07211">
        <ele>976.7</ele>
        <time>2021-08-05T10:08:24Z</time>
      </trkpt>
      <trkpt lat="48.13886" lon="7.07211">
        <ele>976.8</ele>
        <time>2021-08-05T10:08:25Z</time>
      </trkpt>
      <trkpt lat="48.13885" lon="7.07211">
        <ele>976.9</ele>
        <time>2021-08-05T10:08:27Z</time>
      </trkpt>
      <trkpt lat="48.13885" lon="7.07211">
        <ele>976.9</ele>
        <time>2021-08-05T10:08:28Z</time>
      </trkpt>
      <trkpt lat="48.13885" lon="7.07211">
        <ele>976.9</ele>
        <time>2021-08-05T10:08:30Z</time>
      </trkpt>
      <trkpt lat="48.13883" lon="7.0721">
        <ele>977.1</ele>
        <time>2021-08-05T10:08:31Z</time>
      </trkpt>
      <trkpt lat="48.13882" lon="7.0721">
        <ele>977.3</ele>
        <time>2021-08-05T10:08:33Z</time>
      </trkpt>
      <trkpt lat="48.1386" lon="7.07205">
        <ele>979.9</ele>
        <time>2021-08-05T10:08:58Z</time>
      </trkpt>
      <trkpt lat="48.13858" lon="7.07203">
        <ele>980.2</ele>
        <time>2021-08-05T10:08:59Z</time>
      </trkpt>
      <trkpt lat="48.13856" lon="7.07202">
        <ele>980.5</ele>
        <time>2021-08-05T10:09:01Z</time>
      </trkpt>
      <trkpt lat="48.13852" lon="7.072">
        <ele>980.9</ele>
        <time>2021-08-05T10:09:02Z</time>
      </trkpt>
      <trkpt lat="48.1385" lon="7.072">
        <ele>981.1</ele>
        <time>2021-08-05T10:09:03Z</time>
      </trkpt>
      <trkpt lat="48.13849" lon="7.07199">
        <ele>981.2</ele>
        <time>2021-08-05T10:09:04Z</time>
      </trkpt>
      <trkpt lat="48.13848" lon="7.07199">
        <ele>981.3</ele>
        <time>2021-08-05T10:09:06Z</time>
      </trkpt>
      <trkpt lat="48.13848" lon="7.07199">
        <ele>981.3</ele>
        <time>2021-08-05T10:09:07Z</time>
      </trkpt>
      <trkpt lat="48.13847" lon="7.072">
        <ele>981.4</ele>
        <time>2021-08-05T10:09:08Z</time>
      </trkpt>
      <trkpt lat="48.13845" lon="7.072">
        <ele>981.6</ele>
        <time>2021-08-05T10:09:09Z</time>
      </trkpt>
      <trkpt lat="48.13843" lon="7.07201">
        <ele>981.8</ele>
        <time>2021-08-05T10:09:11Z</time>
      </trkpt>
      <trkpt lat="48.13842" lon="7.07201">
        <ele>981.9</ele>
        <time>2021-08-05T10:09:12Z</time>
      </trkpt>
      <trkpt lat="48.13841" lon="7.072">
        <ele>982</ele>
        <time>2021-08-05T10:09:14Z</time>
      </trkpt>
      <trkpt lat="48.1384" lon="7.072">
        <ele>982.1</ele>
        <time>2021-08-05T10:09:15Z</time>
      </trkpt>
      <trkpt lat="48.1384" lon="7.072">
        <ele>982.1</ele>
        <time>2021-08-05T10:09:17Z</time>
      </trkpt>
      <trkpt lat="48.1384" lon="7.072">
        <ele>982.1</ele>
        <time>2021-08-05T10:09:18Z</time>
      </trkpt>
      <trkpt lat="48.1384" lon="7.072">
        <ele>982.2</ele>
        <time>2021-08-05T10:09:19Z</time>
      </trkpt>
      <trkpt lat="48.1384" lon="7.072">
        <ele>982.2</ele>
        <time>2021-08-05T10:09:20Z</time>
      </trkpt>
      <trkpt lat="48.1384" lon="7.072">
        <ele>982.2</ele>
        <time>2021-08-05T10:09:22Z</time>
      </trkpt>
      <trkpt lat="48.13556" lon="7.07365">
        <ele>1029.7</ele>
        <time>2021-08-05T10:17:47Z</time>
      </trkpt>
      <trkpt lat="48.13553" lon="7.07368">
        <ele>1030.3</ele>
        <time>2021-08-05T10:17:48Z</time>
      </trkpt>
      <trkpt lat="48.13549" lon="7.0737">
        <ele>1031</ele>
        <time>2021-08-05T10:17:49Z</time>
      </trkpt>
      <trkpt lat="48.13546" lon="7.07372">
        <ele>1031.5</ele>
        <time>2021-08-05T10:17:51Z</time>
      </trkpt>
      <trkpt lat="48.13545" lon="7.07374">
        <ele>1031.8</ele>
        <time>2021-08-05T10:17:52Z</time>
      </trkpt>
      <trkpt lat="48.13543" lon="7.07376">
        <ele>1032.1</ele>
        <time>2021-08-05T10:17:54Z</time>
      </trkpt>
      <trkpt lat="48.13542" lon="7.07376">
        <ele>1032.3</ele>
        <time>2021-08-05T10:17:55Z</time>
      </trkpt>
      <trkpt lat="48.13541" lon="7.07377">
        <ele>1032.4</ele>
        <time>2021-08-05T10:17:57Z</time>
      </trkpt>
      <trkpt lat="48.1354" lon="7.07377">
        <ele>1032.6</ele>
        <time>2021-08-05T10:17:58Z</time>
      </trkpt>
      <trkpt lat="48.1354" lon="7.07378">
        <ele>1032.7</ele>
        <time>2021-08-05T10:17:59Z</time>
      </trkpt>
      <trkpt lat="48.13534" lon="7.07382">
        <ele>1034</ele>
        <time>2021-08-05T10:18:01Z</time>
      </trkpt>
      <trkpt lat="48.13528" lon="7.07386">
        <ele>1035.2</ele>
        <time>2021-08-05T10:18:47Z</time>
      </trkpt>
      <trkpt lat="48.13523" lon="7.0739">
        <ele>1036.4</ele>
        <time>2021-08-05T10:18:48Z</time>
      </trkpt>
      <trkpt lat="48.13517" lon="7.07393">
        <ele>1037.6</ele>
        <time>2021-08-05T10:18:49Z</time>
      </trkpt>
      <trkpt lat="48.13514" lon="7.07393">
        <ele>1038.3</ele>
        <time>2021-08-05T10:18:50Z</time>
      </trkpt>
      <trkpt lat="48.13513" lon="7.07393">
        <ele>1038.6</ele>
        <time>2021-08-05T10:18:51Z</time>
      </trkpt>
      <trkpt lat="48.1351" lon="7.07389">
        <ele>1039.2</ele>
        <time>2021-08-05T10:18:53Z</time>
      </trkpt>
      <trkpt lat="48.13511" lon="7.07387">
        <ele>1039.5</ele>
        <time>2021-08-05T10:18:54Z</time>
      </trkpt>
      <trkpt lat="48.13511" lon="7.07384">
        <ele>1039.8</ele>
        <time>2021-08-05T10:18:55Z</time>
      </trkpt>
      <trkpt lat="48.13511" lon="7.07383">
        <ele>1039.9</ele>
        <time>2021-08-05T10:18:56Z</time>
      </trkpt>
      <trkpt lat="48.13511" lon="7.07383">
        <ele>1040</ele>
        <time>2021-08-05T10:18:58Z</time>
      </trkpt>
      <trkpt lat="48.13511" lon="7.07383">
        <ele>1040.1</ele>
        <time>2021-08-05T10:18:59Z</time>
      </trkpt>
      <trkpt lat="48.13511" lon="7.07383">
        <ele>1040.1</ele>
        <time>2021-08-05T10:19:00Z</time>
      </trkpt>
      <trkpt lat="48.13511" lon="7.07383">
        <ele>1040.1</ele>
        <time>2021-08-05T10:19:02Z</time>
      </trkpt>
      <trkpt lat="48.13512" lon="7.07382">
        <ele>1040.1</ele>
        <time>2021-08-05T10:19:03Z</time>
      </trkpt>
      <trkpt lat="48.13512" lon="7.07382">
        <ele>1040.2</ele>
        <time>2021-08-05T10:19:05Z</time>
      </trkpt>
      <trkpt lat="48.13494" lon="7.07356">
        <ele>1043.7</ele>
        <time>2021-08-05T10:19:49Z</time>
      </trkpt>
      <trkpt lat="48.13493" lon="7.0735">
        <ele>1044</ele>
        <time>2021-08-05T10:19:51Z</time>
      </trkpt>
      <trkpt lat="48.13493" lon="7.07346">
        <ele>1044.2</ele>
        <time>2021-08-05T10:19:52Z</time>
      </trkpt>
      <trkpt lat="48.13491" lon="7.07338">
        <ele>1044.6</ele>
        <time>2021-08-05T10:19:54Z</time>
      </trkpt>
      <trkpt lat="48.13489" lon="7.07333">
        <ele>1044.8</ele>
        <time>2021-08-05T10:19:55Z</time>
      </trkpt>
      <trkpt lat="48.13486" lon="7.07324">
        <ele>1045.1</ele>
        <time>2021-08-05T10:19:56Z</time>
      </trkpt>
      <trkpt lat="48.13482" lon="7.07316">
        <ele>1045.4</ele>
        <time>2021-08-05T10:19:58Z</time>
      </trkpt>
      <trkpt lat="48.13478" lon="7.07309">
        <ele>1045.8</ele>
        <time>2021-08-05T10:19:59Z</time>
      </trkpt>
      <trkpt lat="48.13475" lon="7.07303">
        <ele>1046.3</ele>
        <time>2021-08-05T10:20:00Z</time>
      </trkpt>
      <trkpt lat="48.13469" lon="7.07293">
        <ele>1047.4</ele>
        <time>2021-08-05T10:20:01Z</time>
      </trkpt>
      <trkpt lat="48.13465" lon="7.07284">
        <ele>1048.2</ele>
        <time>2021-08-05T10:20:03Z</time>
      </trkpt>
      <trkpt lat="48.13463" lon="7.07278">
        <ele>1048.7</ele>
        <time>2021-08-05T10:20:04Z</time>
      </trkpt>
      <trkpt lat="48.1346" lon="7.07273">
        <ele>1049</ele>
        <time>2021-08-05T10:20:05Z</time>
      </trkpt>
      <trkpt lat="48.13456" lon="7.0727">
        <ele>1049.2</ele>
        <time>2021-08-05T10:20:06Z</time>
      </trkpt>
      <trkpt lat="48.13453" lon="7.07265">
        <ele>1049.4</ele>
        <time>2021-08-05T10:20:07Z</time>
      </trkpt>
      <trkpt lat="48.1345" lon="7.07261">
        <ele>1049.5</ele>
        <time>2021-08-05T10:20:09Z</time>
      </trkpt>
      <trkpt lat="48.13446" lon="7.07257">
        <ele>1049.6</ele>
        <time>2021-08-05T10:20:10Z</time>
      </trkpt>
      <trkpt lat="48.13443" lon="7.07254">
        <ele>1049.7</ele>
        <time>2021-08-05T10:20:11Z</time>
      </trkpt>
      <trkpt lat="48.13441" lon="7.07253">
        <ele>1049.8</ele>
        <time>2021-08-05T10:20:14Z</time>
      </trkpt>
      <trkpt lat="48.1344" lon="7.07252">
        <ele>1049.9</ele>
        <time>2021-08-05T10:20:16Z</time>
      </trkpt>
      <trkpt lat="48.13434" lon="7.07251">
        <ele>1050.2</ele>
        <time>2021-08-05T10:20:17Z</time>
      </trkpt>
      <trkpt lat="48.1343" lon="7.0725">
        <ele>1050.6</ele>
        <time>2021-08-05T10:20:18Z</time>
      </trkpt>
      <trkpt lat="48.13426" lon="7.07249">
        <ele>1051.7</ele>
        <time>2021-08-05T10:20:20Z</time>
      </trkpt>
      <trkpt lat="48.13422" lon="7.07248">
        <ele>1053.1</ele>
        <time>2021-08-05T10:21:26Z</time>
      </trkpt>
      <trkpt lat="48.13418" lon="7.07247">
        <ele>1055.3</ele>
        <time>2021-08-05T10:21:27Z</time>
      </trkpt>
      <trkpt lat="48.13414" lon="7.07246">
        <ele>1056.7</ele>
        <time>2021-08-05T10:21:28Z</time>
      </trkpt>
      <trkpt lat="48.13414" lon="7.07251">
        <ele>1057.8</ele>
        <time>2021-08-05T10:21:30Z</time>
      </trkpt>
      <trkpt lat="48.13414" lon="7.07253">
        <ele>1058.5</ele>
        <time>2021-08-05T10:21:31Z</time>
      </trkpt>
      <trkpt lat="48.13414" lon="7.07255">
        <ele>1059.5</ele>
        <time>2021-08-05T10:21:32Z</time>
      </trkpt>
      <trkpt lat="48.13414" lon="7.07258">
        <ele>1060.2</ele>
        <time>2021-08-05T10:21:33Z</time>
      </trkpt>
      <trkpt lat="48.13414" lon="7.07259">
        <ele>1061.2</ele>
        <time>2021-08-05T10:21:34Z</time>
      </trkpt>
      <trkpt lat="48.13414" lon="7.07261">
        <ele>1061.3</ele>
        <time>2021-08-05T10:21:35Z</time>
      </trkpt>
      <trkpt lat="48.13414" lon="7.0726">
        <ele>1061.3</ele>
        <time>2021-08-05T10:21:37Z</time>
      </trkpt>
      <trkpt lat="48.13414" lon="7.07261">
        <ele>1061.4</ele>
        <time>2021-08-05T10:21:38Z</time>
      </trkpt>
      <trkpt lat="48.13414" lon="7.07261">
        <ele>1061.4</ele>
        <time>2021-08-05T10:21:39Z</time>
      </trkpt>
      <trkpt lat="48.13414" lon="7.07261">
        <ele>1061.4</ele>
        <time>2021-08-05T10:21:41Z</time>
      </trkpt>
      <trkpt lat="48.13414" lon="7.07261">
        <ele>1061.4</ele>
        <time>2021-08-05T10:21:42Z</time>
      </trkpt>
      <trkpt lat="48.13414" lon="7.07261">
        <ele>1061.4</ele>
        <time>2021-08-05T10:21:44Z</time>
      </trkpt>
      <trkpt lat="48.13414" lon="7.07261">
        <ele>1061.4</ele>
        <time>2021-08-05T10:21:45Z</time>
      </trkpt>
      <trkpt lat="48.13414" lon="7.07262">
        <ele>1061.4</ele>
        <time>2021-08-05T10:21:46Z</time>
      </trkpt>
      <trkpt lat="48.13414" lon="7.07262">
        <ele>1061.4</ele>
        <time>2021-08-05T10:21:47Z</time>
      </trkpt>
      <trkpt lat="48.13413" lon="7.07263">
        <ele>1061.5</ele>
        <time>2021-08-05T10:21:49Z</time>
      </trkpt>
      <trkpt lat="48.13379" lon="7.07402">
        <ele>1073.8</ele>
        <time>2021-08-05T10:23:41Z</time>
      </trkpt>
      <trkpt lat="48.13378" lon="7.07403">
        <ele>1073.8</ele>
        <time>2021-08-05T10:23:42Z</time>
      </trkpt>
      <trkpt lat="48.13378" lon="7.07404">
        <ele>1073.9</ele>
        <time>2021-08-05T10:23:43Z</time>
      </trkpt>
      <trkpt lat="48.13378" lon="7.07409">
        <ele>1074</ele>
        <time>2021-08-05T10:23:45Z</time>
      </trkpt>
      <trkpt lat="48.13379" lon="7.07414">
        <ele>1074.2</ele>
        <time>2021-08-05T10:23:47Z</time>
      </trkpt>
      <trkpt lat="48.13379" lon="7.07415">
        <ele>1074.2</ele>
        <time>2021-08-05T10:23:48Z</time>
      </trkpt>
      <trkpt lat="48.1338" lon="7.07419">
        <ele>1074.4</ele>
        <time>2021-08-05T10:23:49Z</time>
      </trkpt>
      <trkpt lat="48.13382" lon="7.07421">
        <ele>1074.5</ele>
        <time>2021-08-05T10:23:50Z</time>
      </trkpt>
      <trkpt lat="48.13382" lon="7.07423">
        <ele>1074.5</ele>
        <time>2021-08-05T10:23:53Z</time>
      </trkpt>
      <trkpt lat="48.13382" lon="7.07424">
        <ele>1074.6</ele>
        <time>2021-08-05T10:23:54Z</time>
      </trkpt>
      <trkpt lat="48.13383" lon="7.07427">
        <ele>1074.7</ele>
        <time>2021-08-05T10:23:55Z</time>
      </trkpt>
      <trkpt lat="48.13384" lon="7.07428">
        <ele>1074.7</ele>
        <time>2021-08-05T10:23:57Z</time>
      </trkpt>
      <trkpt lat="48.13385" lon="7.0743">
        <ele>1074.8</ele>
        <time>2021-08-05T10:23:58Z</time>
      </trkpt>
      <trkpt lat="48.13385" lon="7.07433">
        <ele>1074.9</ele>
        <time>2021-08-05T10:23:59Z</time>
      </trkpt>
      <trkpt lat="48.13406" lon="7.07451">
        <ele>1078.5</ele>
        <time>2021-08-05T10:24:17Z</time>
      </trkpt>
      <trkpt lat="48.13408" lon="7.07453">
        <ele>1078.7</ele>
        <time>2021-08-05T10:24:18Z</time>
      </trkpt>
      <trkpt lat="48.13412" lon="7.07453">
        <ele>1079</ele>
        <time>2021-08-05T10:24:20Z</time>
      </trkpt>
      <trkpt lat="48.13413" lon="7.07453">
        <ele>1079.1</ele>
        <time>2021-08-05T10:24:21Z</time>
      </trkpt>
      <trkpt lat="48.13419" lon="7.07454">
        <ele>1079.5</ele>
        <time>2021-08-05T10:24:22Z</time>
      </trkpt>
      <trkpt lat="48.1342" lon="7.07456">
        <ele>1079.6</ele>
        <time>2021-08-05T10:24:24Z</time>
      </trkpt>
      <trkpt lat="48.13421" lon="7.07457">
        <ele>1079.7</ele>
        <time>2021-08-05T10:24:25Z</time>
      </trkpt>
      <trkpt lat="48.13421" lon="7.07457">
        <ele>1079.7</ele>
        <time>2021-08-05T10:24:27Z</time>
      </trkpt>
      <trkpt lat="48.13422" lon="7.07458">
        <ele>1079.8</ele>
        <time>2021-08-05T10:24:28Z</time>
      </trkpt>
      <trkpt lat="48.13434" lon="7.07481">
        <ele>1080.7</ele>
        <time>2021-08-05T10:24:40Z</time>
      </trkpt>
      <trkpt lat="48.13435" lon="7.07484">
        <ele>1080.8</ele>
        <time>2021-08-05T10:24:41Z</time>
      </trkpt>
      <trkpt lat="48.13434" lon="7.07486">
        <ele>1080.9</ele>
        <time>2021-08-05T10:24:42Z</time>
      </trkpt>
      <trkpt lat="48.13434" lon="7.07492">
        <ele>1081</ele>
        <time>2021-08-05T10:24:43Z</time>
      </trkpt>
      <trkpt lat="48.13434" lon="7.07493">
        <ele>1081</ele>
        <time>2021-08-05T10:24:44Z</time>
      </trkpt>
      <trkpt lat="48.13433" lon="7.07497">
        <ele>1081.1</ele>
        <time>2021-08-05T10:24:45Z</time>
      </trkpt>
      <trkpt lat="48.13433" lon="7.07501">
        <ele>1081.2</ele>
        <time>2021-08-05T10:24:47Z</time>
      </trkpt>
      <trkpt lat="48.13433" lon="7.07505">
        <ele>1081.3</ele>
        <time>2021-08-05T10:24:48Z</time>
      </trkpt>
      <trkpt lat="48.13434" lon="7.07512">
        <ele>1081.4</ele>
        <time>2021-08-05T10:24:49Z</time>
      </trkpt>
      <trkpt lat="48.13432" lon="7.07516">
        <ele>1081.5</ele>
        <time>2021-08-05T10:24:51Z</time>
      </trkpt>
      <trkpt lat="48.13432" lon="7.07518">
        <ele>1081.5</ele>
        <time>2021-08-05T10:24:52Z</time>
      </trkpt>
      <trkpt lat="48.13433" lon="7.07524">
        <ele>1081.6</ele>
        <time>2021-08-05T10:24:54Z</time>
      </trkpt>
      <trkpt lat="48.13439" lon="7.07531">
        <ele>1081.7</ele>
        <time>2021-08-05T10:24:55Z</time>
      </trkpt>
      <trkpt lat="48.13444" lon="7.07535">
        <ele>1081.6</ele>
        <time>2021-08-05T10:24:56Z</time>
      </trkpt>
      <trkpt lat="48.1345" lon="7.07542">
        <ele>1081.5</ele>
        <time>2021-08-05T10:24:58Z</time>
      </trkpt>
      <trkpt lat="48.13475" lon="7.07554">
        <ele>1080.9</ele>
        <time>2021-08-05T10:24:59Z</time>
      </trkpt>
      <trkpt lat="48.1348" lon="7.07556">
        <ele>1080.8</ele>
        <time>2021-08-05T10:25:00Z</time>
      </trkpt>
      <trkpt lat="48.13491" lon="7.0756">
        <ele>1080.5</ele>
        <time>2021-08-05T10:25:02Z</time>
      </trkpt>
      <trkpt lat="48.13502" lon="7.07559">
        <ele>1080.2</ele>
        <time>2021-08-05T10:25:04Z</time>
      </trkpt>
      <trkpt lat="48.13507" lon="7.07559">
        <ele>1080.1</ele>
        <time>2021-08-05T10:25:05Z</time>
      </trkpt>
      <trkpt lat="48.1351" lon="7.07561">
        <ele>1080.1</ele>
        <time>2021-08-05T10:25:06Z</time>
      </trkpt>
      <trkpt lat="48.13515" lon="7.07564">
        <ele>1080</ele>
        <time>2021-08-05T10:25:07Z</time>
      </trkpt>
      <trkpt lat="48.13527" lon="7.07568">
        <ele>1079.7</ele>
        <time>2021-08-05T10:25:09Z</time>
      </trkpt>
      <trkpt lat="48.13533" lon="7.0757">
        <ele>1079.6</ele>
        <time>2021-08-05T10:25:10Z</time>
      </trkpt>
      <trkpt lat="48.13539" lon="7.07572">
        <ele>1079.5</ele>
        <time>2021-08-05T10:25:11Z</time>
      </trkpt>
      <trkpt lat="48.13545" lon="7.07575">
        <ele>1079.3</ele>
        <time>2021-08-05T10:25:12Z</time>
      </trkpt>
      <trkpt lat="48.1355" lon="7.07577">
        <ele>1079.2</ele>
        <time>2021-08-05T10:25:13Z</time>
      </trkpt>
      <trkpt lat="48.13555" lon="7.07579">
        <ele>1079</ele>
        <time>2021-08-05T10:25:14Z</time>
      </trkpt>
      <trkpt lat="48.13558" lon="7.07583">
        <ele>1078.9</ele>
        <time>2021-08-05T10:25:15Z</time>
      </trkpt>
      <trkpt lat="48.13566" lon="7.0759">
        <ele>1078.6</ele>
        <time>2021-08-05T10:25:17Z</time>
      </trkpt>
      <trkpt lat="48.13572" lon="7.07593">
        <ele>1078.4</ele>
        <time>2021-08-05T10:25:18Z</time>
      </trkpt>
      <trkpt lat="48.13583" lon="7.07597">
        <ele>1077.9</ele>
        <time>2021-08-05T10:25:20Z</time>
      </trkpt>
      <trkpt lat="48.13588" lon="7.07598">
        <ele>1077.8</ele>
        <time>2021-08-05T10:25:21Z</time>
      </trkpt>
      <trkpt lat="48.13593" lon="7.07599">
        <ele>1077.6</ele>
        <time>2021-08-05T10:25:22Z</time>
      </trkpt>
      <trkpt lat="48.13601" lon="7.07599">
        <ele>1077.4</ele>
        <time>2021-08-05T10:25:23Z</time>
      </trkpt>
      <trkpt lat="48.13609" lon="7.07606">
        <ele>1077.1</ele>
        <time>2021-08-05T10:25:25Z</time>
      </trkpt>
      <trkpt lat="48.13618" lon="7.07612">
        <ele>1076.8</ele>
        <time>2021-08-05T10:25:26Z</time>
      </trkpt>
      <trkpt lat="48.13635" lon="7.0762">
        <ele>1076</ele>
        <time>2021-08-05T10:25:28Z</time>
      </trkpt>
      <trkpt lat="48.13642" lon="7.07625">
        <ele>1075.6</ele>
        <time>2021-08-05T10:25:29Z</time>
      </trkpt>
      <trkpt lat="48.13648" lon="7.07629">
        <ele>1075.4</ele>
        <time>2021-08-05T10:25:30Z</time>
      </trkpt>
      <trkpt lat="48.13652" lon="7.07632">
        <ele>1075.1</ele>
        <time>2021-08-05T10:25:31Z</time>
      </trkpt>
      <trkpt lat="48.13656" lon="7.07637">
        <ele>1074.9</ele>
        <time>2021-08-05T10:25:32Z</time>
      </trkpt>
      <trkpt lat="48.13664" lon="7.07645">
        <ele>1074.4</ele>
        <time>2021-08-05T10:25:34Z</time>
      </trkpt>
      <trkpt lat="48.13668" lon="7.07649">
        <ele>1074.1</ele>
        <time>2021-08-05T10:25:35Z</time>
      </trkpt>
      <trkpt lat="48.13673" lon="7.07653">
        <ele>1073.9</ele>
        <time>2021-08-05T10:25:36Z</time>
      </trkpt>
      <trkpt lat="48.13679" lon="7.07656">
        <ele>1073.6</ele>
        <time>2021-08-05T10:25:37Z</time>
      </trkpt>
      <trkpt lat="48.13683" lon="7.0766">
        <ele>1073.4</ele>
        <time>2021-08-05T10:25:38Z</time>
      </trkpt>
      <trkpt lat="48.13687" lon="7.07664">
        <ele>1073.2</ele>
        <time>2021-08-05T10:25:39Z</time>
      </trkpt>
      <trkpt lat="48.13695" lon="7.07672">
        <ele>1072.8</ele>
        <time>2021-08-05T10:25:41Z</time>
      </trkpt>
      <trkpt lat="48.13703" lon="7.07681">
        <ele>1072.5</ele>
        <time>2021-08-05T10:25:43Z</time>
      </trkpt>
      <trkpt lat="48.13706" lon="7.07686">
        <ele>1072.3</ele>
        <time>2021-08-05T10:25:44Z</time>
      </trkpt>
      <trkpt lat="48.13714" lon="7.07693">
        <ele>1072</ele>
        <time>2021-08-05T10:25:46Z</time>
      </trkpt>
      <trkpt lat="48.13718" lon="7.07697">
        <ele>1071.8</ele>
        <time>2021-08-05T10:25:47Z</time>
      </trkpt>
      <trkpt lat="48.13722" lon="7.077">
        <ele>1071.7</ele>
        <time>2021-08-05T10:25:48Z</time>
      </trkpt>
      <trkpt lat="48.13731" lon="7.07708">
        <ele>1071.3</ele>
        <time>2021-08-05T10:25:50Z</time>
      </trkpt>
      <trkpt lat="48.13736" lon="7.07713">
        <ele>1071.1</ele>
        <time>2021-08-05T10:25:51Z</time>
      </trkpt>
      <trkpt lat="48.13745" lon="7.07722">
        <ele>1070.7</ele>
        <time>2021-08-05T10:25:53Z</time>
      </trkpt>
      <trkpt lat="48.13754" lon="7.07731">
        <ele>1070.3</ele>
        <time>2021-08-05T10:25:55Z</time>
      </trkpt>
      <trkpt lat="48.13764" lon="7.07738">
        <ele>1070</ele>
        <time>2021-08-05T10:25:57Z</time>
      </trkpt>
      <trkpt lat="48.13773" lon="7.07749">
        <ele>1069.6</ele>
        <time>2021-08-05T10:25:59Z</time>
      </trkpt>
      <trkpt lat="48.13777" lon="7.07754">
        <ele>1069.5</ele>
        <time>2021-08-05T10:26:00Z</time>
      </trkpt>
      <trkpt lat="48.13789" lon="7.07759">
        <ele>1069.2</ele>
        <time>2021-08-05T10:26:02Z</time>
      </trkpt>
      <trkpt lat="48.13802" lon="7.07768">
        <ele>1068.9</ele>
        <time>2021-08-05T10:26:04Z</time>
      </trkpt>
      <trkpt lat="48.13806" lon="7.07773">
        <ele>1068.8</ele>
        <time>2021-08-05T10:26:05Z</time>
      </trkpt>
      <trkpt lat="48.13811" lon="7.07778">
        <ele>1068.7</ele>
        <time>2021-08-05T10:26:06Z</time>
      </trkpt>
      <trkpt lat="48.13815" lon="7.07783">
        <ele>1068.6</ele>
        <time>2021-08-05T10:26:07Z</time>
      </trkpt>
      <trkpt lat="48.13819" lon="7.07787">
        <ele>1068.5</ele>
        <time>2021-08-05T10:26:08Z</time>
      </trkpt>
      <trkpt lat="48.13827" lon="7.07796">
        <ele>1068.3</ele>
        <time>2021-08-05T10:26:10Z</time>
      </trkpt>
      <trkpt lat="48.13834" lon="7.07804">
        <ele>1068.1</ele>
        <time>2021-08-05T10:26:12Z</time>
      </trkpt>
      <trkpt lat="48.13837" lon="7.0781">
        <ele>1068.1</ele>
        <time>2021-08-05T10:26:13Z</time>
      </trkpt>
      <trkpt lat="48.1384" lon="7.07816">
        <ele>1068</ele>
        <time>2021-08-05T10:26:14Z</time>
      </trkpt>
      <trkpt lat="48.13847" lon="7.07829">
        <ele>1067.8</ele>
        <time>2021-08-05T10:26:16Z</time>
      </trkpt>
      <trkpt lat="48.13854" lon="7.07841">
        <ele>1067.7</ele>
        <time>2021-08-05T10:26:18Z</time>
      </trkpt>
      <trkpt lat="48.1386" lon="7.07853">
        <ele>1067.5</ele>
        <time>2021-08-05T10:26:20Z</time>
      </trkpt>
      <trkpt lat="48.13867" lon="7.07865">
        <ele>1067.3</ele>
        <time>2021-08-05T10:26:22Z</time>
      </trkpt>
      <trkpt lat="48.13873" lon="7.07878">
        <ele>1067.2</ele>
        <time>2021-08-05T10:26:24Z</time>
      </trkpt>
      <trkpt lat="48.13879" lon="7.07891">
        <ele>1067.1</ele>
        <time>2021-08-05T10:26:26Z</time>
      </trkpt>
      <trkpt lat="48.13886" lon="7.07904">
        <ele>1067</ele>
        <time>2021-08-05T10:26:28Z</time>
      </trkpt>
      <trkpt lat="48.13889" lon="7.07911">
        <ele>1067</ele>
        <time>2021-08-05T10:26:29Z</time>
      </trkpt>
      <trkpt lat="48.13895" lon="7.07923">
        <ele>1067</ele>
        <time>2021-08-05T10:26:31Z</time>
      </trkpt>
      <trkpt lat="48.13898" lon="7.0793">
        <ele>1067</ele>
        <time>2021-08-05T10:26:32Z</time>
      </trkpt>
      <trkpt lat="48.13904" lon="7.07942">
        <ele>1066.9</ele>
        <time>2021-08-05T10:26:34Z</time>
      </trkpt>
      <trkpt lat="48.13911" lon="7.07954">
        <ele>1066.9</ele>
        <time>2021-08-05T10:26:36Z</time>
      </trkpt>
      <trkpt lat="48.13914" lon="7.0796">
        <ele>1066.8</ele>
        <time>2021-08-05T10:26:37Z</time>
      </trkpt>
      <trkpt lat="48.13919" lon="7.07965">
        <ele>1066.6</ele>
        <time>2021-08-05T10:26:38Z</time>
      </trkpt>
      <trkpt lat="48.13926" lon="7.07977">
        <ele>1066.2</ele>
        <time>2021-08-05T10:26:40Z</time>
      </trkpt>
      <trkpt lat="48.13928" lon="7.07983">
        <ele>1066.1</ele>
        <time>2021-08-05T10:26:41Z</time>
      </trkpt>
      <trkpt lat="48.13929" lon="7.07987">
        <ele>1066</ele>
        <time>2021-08-05T10:26:42Z</time>
      </trkpt>
      <trkpt lat="48.13935" lon="7.07997">
        <ele>1065.7</ele>
        <time>2021-08-05T10:26:44Z</time>
      </trkpt>
      <trkpt lat="48.13937" lon="7.08003">
        <ele>1065.6</ele>
        <time>2021-08-05T10:26:45Z</time>
      </trkpt>
      <trkpt lat="48.13944" lon="7.08016">
        <ele>1065.5</ele>
        <time>2021-08-05T10:26:47Z</time>
      </trkpt>
      <trkpt lat="48.13942" lon="7.08021">
        <ele>1065.4</ele>
        <time>2021-08-05T10:26:48Z</time>
      </trkpt>
      <trkpt lat="48.13946" lon="7.08028">
        <ele>1065.3</ele>
        <time>2021-08-05T10:26:49Z</time>
      </trkpt>
      <trkpt lat="48.13951" lon="7.08035">
        <ele>1065.2</ele>
        <time>2021-08-05T10:26:50Z</time>
      </trkpt>
      <trkpt lat="48.13955" lon="7.08041">
        <ele>1065</ele>
        <time>2021-08-05T10:26:52Z</time>
      </trkpt>
      <trkpt lat="48.13958" lon="7.08048">
        <ele>1064.9</ele>
        <time>2021-08-05T10:26:53Z</time>
      </trkpt>
      <trkpt lat="48.13961" lon="7.08053">
        <ele>1064.8</ele>
        <time>2021-08-05T10:26:54Z</time>
      </trkpt>
      <trkpt lat="48.13966" lon="7.08062">
        <ele>1064.6</ele>
        <time>2021-08-05T10:26:56Z</time>
      </trkpt>
      <trkpt lat="48.13967" lon="7.08066">
        <ele>1064.6</ele>
        <time>2021-08-05T10:26:57Z</time>
      </trkpt>
      <trkpt lat="48.13968" lon="7.08072">
        <ele>1064.5</ele>
        <time>2021-08-05T10:26:58Z</time>
      </trkpt>
      <trkpt lat="48.13973" lon="7.0808">
        <ele>1064.3</ele>
        <time>2021-08-05T10:27:00Z</time>
      </trkpt>
      <trkpt lat="48.13978" lon="7.08087">
        <ele>1064.2</ele>
        <time>2021-08-05T10:27:02Z</time>
      </trkpt>
      <trkpt lat="48.13979" lon="7.08089">
        <ele>1064.2</ele>
        <time>2021-08-05T10:27:03Z</time>
      </trkpt>
      <trkpt lat="48.13978" lon="7.08091">
        <ele>1064.1</ele>
        <time>2021-08-05T10:27:05Z</time>
      </trkpt>
      <trkpt lat="48.13977" lon="7.08092">
        <ele>1064.1</ele>
        <time>2021-08-05T10:27:07Z</time>
      </trkpt>
      <trkpt lat="48.13977" lon="7.08092">
        <ele>1064.1</ele>
        <time>2021-08-05T10:27:08Z</time>
      </trkpt>
      <trkpt lat="48.13976" lon="7.08092">
        <ele>1064.1</ele>
        <time>2021-08-05T10:27:10Z</time>
      </trkpt>
      <trkpt lat="48.13976" lon="7.08092">
        <ele>1064.1</ele>
        <time>2021-08-05T10:27:11Z</time>
      </trkpt>
      <trkpt lat="48.13976" lon="7.08093">
        <ele>1064.1</ele>
        <time>2021-08-05T10:27:12Z</time>
      </trkpt>
      <trkpt lat="48.13976" lon="7.08093">
        <ele>1064.1</ele>
        <time>2021-08-05T10:27:14Z</time>
      </trkpt>
      <trkpt lat="48.13976" lon="7.08093">
        <ele>1064.1</ele>
        <time>2021-08-05T10:27:16Z</time>
      </trkpt>
      <trkpt lat="48.13961" lon="7.08093">
        <ele>1063.8</ele>
        <time>2021-08-05T10:27:45Z</time>
      </trkpt>
      <trkpt lat="48.13961" lon="7.08099">
        <ele>1063.7</ele>
        <time>2021-08-05T10:27:46Z</time>
      </trkpt>
      <trkpt lat="48.13963" lon="7.08105">
        <ele>1063.6</ele>
        <time>2021-08-05T10:27:47Z</time>
      </trkpt>
      <trkpt lat="48.13965" lon="7.08114">
        <ele>1063.5</ele>
        <time>2021-08-05T10:27:49Z</time>
      </trkpt>
      <trkpt lat="48.13968" lon="7.08122">
        <ele>1063.3</ele>
        <time>2021-08-05T10:27:50Z</time>
      </trkpt>
      <trkpt lat="48.13972" lon="7.08132">
        <ele>1063.2</ele>
        <time>2021-08-05T10:27:51Z</time>
      </trkpt>
      <trkpt lat="48.13975" lon="7.08139">
        <ele>1063.1</ele>
        <time>2021-08-05T10:27:53Z</time>
      </trkpt>
      <trkpt lat="48.13977" lon="7.08146">
        <ele>1063</ele>
        <time>2021-08-05T10:27:54Z</time>
      </trkpt>
      <trkpt lat="48.13979" lon="7.08153">
        <ele>1062.9</ele>
        <time>2021-08-05T10:27:55Z</time>
      </trkpt>
      <trkpt lat="48.13985" lon="7.08164">
        <ele>1062.8</ele>
        <time>2021-08-05T10:27:57Z</time>
      </trkpt>
      <trkpt lat="48.1399" lon="7.08174">
        <ele>1062.7</ele>
        <time>2021-08-05T10:27:59Z</time>
      </trkpt>
      <trkpt lat="48.13994" lon="7.08186">
        <ele>1062.6</ele>
        <time>2021-08-05T10:28:01Z</time>
      </trkpt>
      <trkpt lat="48.13995" lon="7.08193">
        <ele>1062.5</ele>
        <time>2021-08-05T10:28:02Z</time>
      </trkpt>
      <trkpt lat="48.13998" lon="7.08202">
        <ele>1062.5</ele>
        <time>2021-08-05T10:28:03Z</time>
      </trkpt>
      <trkpt lat="48.14001" lon="7.08208">
        <ele>1062.4</ele>
        <time>2021-08-05T10:28:04Z</time>
      </trkpt>
      <trkpt lat="48.14002" lon="7.08216">
        <ele>1062.4</ele>
        <time>2021-08-05T10:28:06Z</time>
      </trkpt>
      <trkpt lat="48.14003" lon="7.08223">
        <ele>1062.3</ele>
        <time>2021-08-05T10:28:07Z</time>
      </trkpt>
      <trkpt lat="48.14003" lon="7.08233">
        <ele>1062.2</ele>
        <time>2021-08-05T10:28:08Z</time>
      </trkpt>
      <trkpt lat="48.14003" lon="7.08243">
        <ele>1062.2</ele>
        <time>2021-08-05T10:28:10Z</time>
      </trkpt>
      <trkpt lat="48.14003" lon="7.08251">
        <ele>1062.1</ele>
        <time>2021-08-05T10:28:11Z</time>
      </trkpt>
      <trkpt lat="48.14004" lon="7.08261">
        <ele>1062.1</ele>
        <time>2021-08-05T10:28:13Z</time>
      </trkpt>
      <trkpt lat="48.14004" lon="7.08267">
        <ele>1062</ele>
        <time>2021-08-05T10:28:14Z</time>
      </trkpt>
      <trkpt lat="48.14005" lon="7.08276">
        <ele>1062</ele>
        <time>2021-08-05T10:28:16Z</time>
      </trkpt>
      <trkpt lat="48.14006" lon="7.08284">
        <ele>1062</ele>
        <time>2021-08-05T10:28:17Z</time>
      </trkpt>
      <trkpt lat="48.14006" lon="7.08292">
        <ele>1061.9</ele>
        <time>2021-08-05T10:28:19Z</time>
      </trkpt>
      <trkpt lat="48.14006" lon="7.08297">
        <ele>1061.9</ele>
        <time>2021-08-05T10:28:20Z</time>
      </trkpt>
      <trkpt lat="48.14007" lon="7.08308">
        <ele>1061.8</ele>
        <time>2021-08-05T10:28:22Z</time>
      </trkpt>
      <trkpt lat="48.14006" lon="7.08321">
        <ele>1061.7</ele>
        <time>2021-08-05T10:28:24Z</time>
      </trkpt>
      <trkpt lat="48.14006" lon="7.08328">
        <ele>1061.6</ele>
        <time>2021-08-05T10:28:25Z</time>
      </trkpt>
      <trkpt lat="48.14006" lon="7.08335">
        <ele>1061.6</ele>
        <time>2021-08-05T10:28:26Z</time>
      </trkpt>
      <trkpt lat="48.14006" lon="7.08345">
        <ele>1061.5</ele>
        <time>2021-08-05T10:28:27Z</time>
      </trkpt>
      <trkpt lat="48.14005" lon="7.08353">
        <ele>1061.4</ele>
        <time>2021-08-05T10:28:28Z</time>
      </trkpt>
      <trkpt lat="48.14004" lon="7.08359">
        <ele>1061.3</ele>
        <time>2021-08-05T10:28:30Z</time>
      </trkpt>
      <trkpt lat="48.14002" lon="7.08368">
        <ele>1061.2</ele>
        <time>2021-08-05T10:28:31Z</time>
      </trkpt>
      <trkpt lat="48.14001" lon="7.08373">
        <ele>1061.2</ele>
        <time>2021-08-05T10:28:32Z</time>
      </trkpt>
      <trkpt lat="48.13999" lon="7.08379">
        <ele>1061.1</ele>
        <time>2021-08-05T10:28:33Z</time>
      </trkpt>
      <trkpt lat="48.13997" lon="7.08384">
        <ele>1061</ele>
        <time>2021-08-05T10:28:34Z</time>
      </trkpt>
      <trkpt lat="48.13992" lon="7.08392">
        <ele>1060.9</ele>
        <time>2021-08-05T10:28:36Z</time>
      </trkpt>
      <trkpt lat="48.13988" lon="7.08395">
        <ele>1060.8</ele>
        <time>2021-08-05T10:28:37Z</time>
      </trkpt>
      <trkpt lat="48.13985" lon="7.08399">
        <ele>1060.7</ele>
        <time>2021-08-05T10:28:39Z</time>
      </trkpt>
      <trkpt lat="48.13979" lon="7.08407">
        <ele>1060.6</ele>
        <time>2021-08-05T10:28:41Z</time>
      </trkpt>
      <trkpt lat="48.13972" lon="7.08414">
        <ele>1060.5</ele>
        <time>2021-08-05T10:28:42Z</time>
      </trkpt>
      <trkpt lat="48.13968" lon="7.08418">
        <ele>1060.4</ele>
        <time>2021-08-05T10:28:44Z</time>
      </trkpt>
      <trkpt lat="48.13965" lon="7.08424">
        <ele>1060.3</ele>
        <time>2021-08-05T10:28:45Z</time>
      </trkpt>
      <trkpt lat="48.13963" lon="7.0843">
        <ele>1060.3</ele>
        <time>2021-08-05T10:28:46Z</time>
      </trkpt>
      <trkpt lat="48.13961" lon="7.08437">
        <ele>1060.2</ele>
        <time>2021-08-05T10:28:47Z</time>
      </trkpt>
      <trkpt lat="48.13961" lon="7.08445">
        <ele>1060.1</ele>
        <time>2021-08-05T10:28:49Z</time>
      </trkpt>
      <trkpt lat="48.13962" lon="7.08456">
        <ele>1059.9</ele>
        <time>2021-08-05T10:28:50Z</time>
      </trkpt>
      <trkpt lat="48.13963" lon="7.08465">
        <ele>1059.8</ele>
        <time>2021-08-05T10:28:51Z</time>
      </trkpt>
      <trkpt lat="48.13963" lon="7.08471">
        <ele>1059.7</ele>
        <time>2021-08-05T10:28:53Z</time>
      </trkpt>
      <trkpt lat="48.13964" lon="7.0848">
        <ele>1059.6</ele>
        <time>2021-08-05T10:28:54Z</time>
      </trkpt>
      <trkpt lat="48.13964" lon="7.08488">
        <ele>1059.5</ele>
        <time>2021-08-05T10:28:55Z</time>
      </trkpt>
      <trkpt lat="48.13965" lon="7.08495">
        <ele>1059.4</ele>
        <time>2021-08-05T10:28:57Z</time>
      </trkpt>
      <trkpt lat="48.13965" lon="7.08501">
        <ele>1059.3</ele>
        <time>2021-08-05T10:28:58Z</time>
      </trkpt>
      <trkpt lat="48.13965" lon="7.08507">
        <ele>1059.2</ele>
        <time>2021-08-05T10:28:59Z</time>
      </trkpt>
      <trkpt lat="48.13966" lon="7.08515">
        <ele>1059.1</ele>
        <time>2021-08-05T10:29:00Z</time>
      </trkpt>
      <trkpt lat="48.13967" lon="7.08522">
        <ele>1059</ele>
        <time>2021-08-05T10:29:01Z</time>
      </trkpt>
      <trkpt lat="48.13968" lon="7.08527">
        <ele>1058.9</ele>
        <time>2021-08-05T10:29:02Z</time>
      </trkpt>
      <trkpt lat="48.1397" lon="7.08533">
        <ele>1058.8</ele>
        <time>2021-08-05T10:29:03Z</time>
      </trkpt>
      <trkpt lat="48.13971" lon="7.08537">
        <ele>1058.7</ele>
        <time>2021-08-05T10:29:04Z</time>
      </trkpt>
      <trkpt lat="48.13974" lon="7.08542">
        <ele>1058.6</ele>
        <time>2021-08-05T10:29:06Z</time>
      </trkpt>
      <trkpt lat="48.13976" lon="7.08545">
        <ele>1058.5</ele>
        <time>2021-08-05T10:29:07Z</time>
      </trkpt>
      <trkpt lat="48.1398" lon="7.08549">
        <ele>1058.4</ele>
        <time>2021-08-05T10:29:08Z</time>
      </trkpt>
      <trkpt lat="48.13984" lon="7.08553">
        <ele>1058.3</ele>
        <time>2021-08-05T10:29:10Z</time>
      </trkpt>
      <trkpt lat="48.13988" lon="7.08557">
        <ele>1058.2</ele>
        <time>2021-08-05T10:29:12Z</time>
      </trkpt>
      <trkpt lat="48.1399" lon="7.0856">
        <ele>1058.2</ele>
        <time>2021-08-05T10:29:13Z</time>
      </trkpt>
      <trkpt lat="48.1399" lon="7.08562">
        <ele>1058.2</ele>
        <time>2021-08-05T10:29:14Z</time>
      </trkpt>
      <trkpt lat="48.13992" lon="7.08563">
        <ele>1058.1</ele>
        <time>2021-08-05T10:29:16Z</time>
      </trkpt>
      <trkpt lat="48.13993" lon="7.08564">
        <ele>1058.1</ele>
        <time>2021-08-05T10:29:17Z</time>
      </trkpt>
      <trkpt lat="48.13993" lon="7.08564">
        <ele>1058.1</ele>
        <time>2021-08-05T10:29:19Z</time>
      </trkpt>
      <trkpt lat="48.13995" lon="7.08566">
        <ele>1058.1</ele>
        <time>2021-08-05T10:29:21Z</time>
      </trkpt>
      <trkpt lat="48.13996" lon="7.08565">
        <ele>1058.1</ele>
        <time>2021-08-05T10:29:22Z</time>
      </trkpt>
      <trkpt lat="48.13997" lon="7.08563">
        <ele>1058</ele>
        <time>2021-08-05T10:29:23Z</time>
      </trkpt>
      <trkpt lat="48.13999" lon="7.08563">
        <ele>1058</ele>
        <time>2021-08-05T10:29:25Z</time>
      </trkpt>
      <trkpt lat="48.14001" lon="7.08562">
        <ele>1058</ele>
        <time>2021-08-05T10:29:26Z</time>
      </trkpt>
      <trkpt lat="48.14003" lon="7.08562">
        <ele>1058</ele>
        <time>2021-08-05T10:29:28Z</time>
      </trkpt>
      <trkpt lat="48.14005" lon="7.08563">
        <ele>1058</ele>
        <time>2021-08-05T10:29:29Z</time>
      </trkpt>
      <trkpt lat="48.14007" lon="7.08563">
        <ele>1057.9</ele>
        <time>2021-08-05T10:29:31Z</time>
      </trkpt>
      <trkpt lat="48.1401" lon="7.08564">
        <ele>1057.9</ele>
        <time>2021-08-05T10:29:32Z</time>
      </trkpt>
      <trkpt lat="48.14012" lon="7.08564">
        <ele>1057.9</ele>
        <time>2021-08-05T10:29:34Z</time>
      </trkpt>
      <trkpt lat="48.14015" lon="7.08565">
        <ele>1057.9</ele>
        <time>2021-08-05T10:29:35Z</time>
      </trkpt>
      <trkpt lat="48.14017" lon="7.08566">
        <ele>1057.9</ele>
        <time>2021-08-05T10:29:36Z</time>
      </trkpt>
      <trkpt lat="48.1402" lon="7.08566">
        <ele>1057.8</ele>
        <time>2021-08-05T10:31:01Z</time>
      </trkpt>
      <trkpt lat="48.14022" lon="7.08567">
        <ele>1057.8</ele>
        <time>2021-08-05T10:31:02Z</time>
      </trkpt>
      <trkpt lat="48.14028" lon="7.08568">
        <ele>1057.7</ele>
        <time>2021-08-05T10:31:03Z</time>
      </trkpt>
      <trkpt lat="48.14034" lon="7.08568">
        <ele>1057.6</ele>
        <time>2021-08-05T10:31:04Z</time>
      </trkpt>
      <trkpt lat="48.14039" lon="7.08567">
        <ele>1057.4</ele>
        <time>2021-08-05T10:31:06Z</time>
      </trkpt>
      <trkpt lat="48.14042" lon="7.08566">
        <ele>1057.4</ele>
        <time>2021-08-05T10:31:07Z</time>
      </trkpt>
      <trkpt lat="48.14045" lon="7.08566">
        <ele>1057.3</ele>
        <time>2021-08-05T10:31:08Z</time>
      </trkpt>
      <trkpt lat="48.14049" lon="7.08566">
        <ele>1057.2</ele>
        <time>2021-08-05T10:31:09Z</time>
      </trkpt>
      <trkpt lat="48.14053" lon="7.08566">
        <ele>1057.1</ele>
        <time>2021-08-05T10:31:10Z</time>
      </trkpt>
      <trkpt lat="48.14059" lon="7.08567">
        <ele>1057</ele>
        <time>2021-08-05T10:31:12Z</time>
      </trkpt>
      <trkpt lat="48.14061" lon="7.08568">
        <ele>1056.9</ele>
        <time>2021-08-05T10:31:13Z</time>
      </trkpt>
      <trkpt lat="48.14068" lon="7.0857">
        <ele>1056.8</ele>
        <time>2021-08-05T10:31:15Z</time>
      </trkpt>
      <trkpt lat="48.14075" lon="7.08572">
        <ele>1056.7</ele>
        <time>2021-08-05T10:31:16Z</time>
      </trkpt>
      <trkpt lat="48.14081" lon="7.08574">
        <ele>1056.6</ele>
        <time>2021-08-05T10:31:18Z</time>
      </trkpt>
      <trkpt lat="48.14087" lon="7.08578">
        <ele>1056.5</ele>
        <time>2021-08-05T10:31:19Z</time>
      </trkpt>
      <trkpt lat="48.14091" lon="7.0858">
        <ele>1056.4</ele>
        <time>2021-08-05T10:31:21Z</time>
      </trkpt>
      <trkpt lat="48.14096" lon="7.08582">
        <ele>1056.3</ele>
        <time>2021-08-05T10:31:22Z</time>
      </trkpt>
      <trkpt lat="48.141" lon="7.08585">
        <ele>1056.2</ele>
        <time>2021-08-05T10:31:23Z</time>
      </trkpt>
      <trkpt lat="48.14105" lon="7.08588">
        <ele>1056.1</ele>
        <time>2021-08-05T10:31:25Z</time>
      </trkpt>
      <trkpt lat="48.14108" lon="7.08591">
        <ele>1056</ele>
        <time>2021-08-05T10:31:26Z</time>
      </trkpt>
      <trkpt lat="48.14114" lon="7.08596">
        <ele>1055.8</ele>
        <time>2021-08-05T10:31:27Z</time>
      </trkpt>
      <trkpt lat="48.14123" lon="7.08603">
        <ele>1055.6</ele>
        <time>2021-08-05T10:31:29Z</time>
      </trkpt>
      <trkpt lat="48.14127" lon="7.08604">
        <ele>1055.6</ele>
        <time>2021-08-05T10:31:30Z</time>
      </trkpt>
      <trkpt lat="48.14133" lon="7.08605">
        <ele>1055.5</ele>
        <time>2021-08-05T10:31:31Z</time>
      </trkpt>
      <trkpt lat="48.14136" lon="7.08609">
        <ele>1055.4</ele>
        <time>2021-08-05T10:31:32Z</time>
      </trkpt>
      <trkpt lat="48.14136" lon="7.0861">
        <ele>1055.4</ele>
        <time>2021-08-05T10:31:33Z</time>
      </trkpt>
      <trkpt lat="48.14139" lon="7.08612">
        <ele>1055.4</ele>
        <time>2021-08-05T10:31:34Z</time>
      </trkpt>
      <trkpt lat="48.14141" lon="7.08614">
        <ele>1055.3</ele>
        <time>2021-08-05T10:31:36Z</time>
      </trkpt>
      <trkpt lat="48.14142" lon="7.08615">
        <ele>1055.3</ele>
        <time>2021-08-05T10:31:37Z</time>
      </trkpt>
      <trkpt lat="48.14144" lon="7.08616">
        <ele>1055.3</ele>
        <time>2021-08-05T10:31:38Z</time>
      </trkpt>
      <trkpt lat="48.14145" lon="7.08616">
        <ele>1055.3</ele>
        <time>2021-08-05T10:31:40Z</time>
      </trkpt>
      <trkpt lat="48.14149" lon="7.08617">
        <ele>1055.3</ele>
        <time>2021-08-05T10:31:41Z</time>
      </trkpt>
      <trkpt lat="48.14151" lon="7.08619">
        <ele>1055.2</ele>
        <time>2021-08-05T10:31:43Z</time>
      </trkpt>
      <trkpt lat="48.14154" lon="7.08622">
        <ele>1055.2</ele>
        <time>2021-08-05T10:31:44Z</time>
      </trkpt>
      <trkpt lat="48.14157" lon="7.08625">
        <ele>1055.2</ele>
        <time>2021-08-05T10:31:45Z</time>
      </trkpt>
      <trkpt lat="48.14161" lon="7.08627">
        <ele>1055.2</ele>
        <time>2021-08-05T10:31:46Z</time>
      </trkpt>
      <trkpt lat="48.14164" lon="7.0863">
        <ele>1055.1</ele>
        <time>2021-08-05T10:31:47Z</time>
      </trkpt>
      <trkpt lat="48.14168" lon="7.08632">
        <ele>1055.1</ele>
        <time>2021-08-05T10:31:48Z</time>
      </trkpt>
      <trkpt lat="48.14174" lon="7.08636">
        <ele>1055</ele>
        <time>2021-08-05T10:31:49Z</time>
      </trkpt>
      <trkpt lat="48.14178" lon="7.08637">
        <ele>1055</ele>
        <time>2021-08-05T10:31:50Z</time>
      </trkpt>
      <trkpt lat="48.14182" lon="7.0864">
        <ele>1055</ele>
        <time>2021-08-05T10:31:52Z</time>
      </trkpt>
      <trkpt lat="48.14186" lon="7.08641">
        <ele>1054.9</ele>
        <time>2021-08-05T10:31:53Z</time>
      </trkpt>
      <trkpt lat="48.14189" lon="7.08642">
        <ele>1054.9</ele>
        <time>2021-08-05T10:31:55Z</time>
      </trkpt>
      <trkpt lat="48.14194" lon="7.08645">
        <ele>1054.9</ele>
        <time>2021-08-05T10:31:56Z</time>
      </trkpt>
      <trkpt lat="48.142" lon="7.08649">
        <ele>1054.8</ele>
        <time>2021-08-05T10:31:58Z</time>
      </trkpt>
      <trkpt lat="48.14204" lon="7.08652">
        <ele>1054.8</ele>
        <time>2021-08-05T10:31:59Z</time>
      </trkpt>
      <trkpt lat="48.14211" lon="7.08655">
        <ele>1054.7</ele>
        <time>2021-08-05T10:32:00Z</time>
      </trkpt>
      <trkpt lat="48.14218" lon="7.08659">
        <ele>1054.7</ele>
        <time>2021-08-05T10:32:02Z</time>
      </trkpt>
      <trkpt lat="48.14224" lon="7.08662">
        <ele>1054.6</ele>
        <time>2021-08-05T10:32:04Z</time>
      </trkpt>
      <trkpt lat="48.14229" lon="7.08664">
        <ele>1054.5</ele>
        <time>2021-08-05T10:32:05Z</time>
      </trkpt>
      <trkpt lat="48.14236" lon="7.08669">
        <ele>1054.5</ele>
        <time>2021-08-05T10:32:07Z</time>
      </trkpt>
      <trkpt lat="48.1424" lon="7.08671">
        <ele>1054.4</ele>
        <time>2021-08-05T10:32:08Z</time>
      </trkpt>
      <trkpt lat="48.14245" lon="7.08674">
        <ele>1054.4</ele>
        <time>2021-08-05T10:32:09Z</time>
      </trkpt>
      <trkpt lat="48.14249" lon="7.08675">
        <ele>1054.4</ele>
        <time>2021-08-05T10:32:10Z</time>
      </trkpt>
      <trkpt lat="48.14253" lon="7.08676">
        <ele>1054.3</ele>
        <time>2021-08-05T10:32:11Z</time>
      </trkpt>
      <trkpt lat="48.14257" lon="7.08677">
        <ele>1054.3</ele>
        <time>2021-08-05T10:32:12Z</time>
      </trkpt>
      <trkpt lat="48.14261" lon="7.08678">
        <ele>1054.3</ele>
        <time>2021-08-05T10:32:13Z</time>
      </trkpt>
      <trkpt lat="48.14266" lon="7.0868">
        <ele>1054.2</ele>
        <time>2021-08-05T10:32:14Z</time>
      </trkpt>
      <trkpt lat="48.14272" lon="7.08681">
        <ele>1054.2</ele>
        <time>2021-08-05T10:32:15Z</time>
      </trkpt>
      <trkpt lat="48.14277" lon="7.08683">
        <ele>1054.1</ele>
        <time>2021-08-05T10:32:16Z</time>
      </trkpt>
      <trkpt lat="48.14286" lon="7.08689">
        <ele>1054.1</ele>
        <time>2021-08-05T10:32:18Z</time>
      </trkpt>
      <trkpt lat="48.14291" lon="7.08693">
        <ele>1054</ele>
        <time>2021-08-05T10:32:19Z</time>
      </trkpt>
      <trkpt lat="48.14301" lon="7.08703">
        <ele>1053.8</ele>
        <time>2021-08-05T10:32:21Z</time>
      </trkpt>
      <trkpt lat="48.14306" lon="7.08706">
        <ele>1053.8</ele>
        <time>2021-08-05T10:32:22Z</time>
      </trkpt>
      <trkpt lat="48.14318" lon="7.08712">
        <ele>1053.6</ele>
        <time>2021-08-05T10:32:24Z</time>
      </trkpt>
      <trkpt lat="48.14326" lon="7.08716">
        <ele>1053.5</ele>
        <time>2021-08-05T10:32:26Z</time>
      </trkpt>
      <trkpt lat="48.14323" lon="7.08717">
        <ele>1053.5</ele>
        <time>2021-08-05T10:32:27Z</time>
      </trkpt>
      <trkpt lat="48.14334" lon="7.0872">
        <ele>1053.3</ele>
        <time>2021-08-05T10:32:28Z</time>
      </trkpt>
      <trkpt lat="48.14342" lon="7.08722">
        <ele>1053.2</ele>
        <time>2021-08-05T10:32:29Z</time>
      </trkpt>
      <trkpt lat="48.14362" lon="7.08726">
        <ele>1053</ele>
        <time>2021-08-05T10:32:31Z</time>
      </trkpt>
      <trkpt lat="48.1437" lon="7.08728">
        <ele>1052.9</ele>
        <time>2021-08-05T10:32:32Z</time>
      </trkpt>
      <trkpt lat="48.14383" lon="7.08732">
        <ele>1052.8</ele>
        <time>2021-08-05T10:32:34Z</time>
      </trkpt>
      <trkpt lat="48.14394" lon="7.08738">
        <ele>1052.7</ele>
        <time>2021-08-05T10:32:36Z</time>
      </trkpt>
      <trkpt lat="48.14399" lon="7.08741">
        <ele>1052.5</ele>
        <time>2021-08-05T10:32:37Z</time>
      </trkpt>
      <trkpt lat="48.14402" lon="7.08745">
        <ele>1052.4</ele>
        <time>2021-08-05T10:32:38Z</time>
      </trkpt>
      <trkpt lat="48.1441" lon="7.08753">
        <ele>1052</ele>
        <time>2021-08-05T10:32:40Z</time>
      </trkpt>
      <trkpt lat="48.14418" lon="7.0876">
        <ele>1051.7</ele>
        <time>2021-08-05T10:32:42Z</time>
      </trkpt>
      <trkpt lat="48.14421" lon="7.08763">
        <ele>1051.6</ele>
        <time>2021-08-05T10:32:43Z</time>
      </trkpt>
      <trkpt lat="48.14426" lon="7.08769">
        <ele>1051.4</ele>
        <time>2021-08-05T10:32:44Z</time>
      </trkpt>
      <trkpt lat="48.14429" lon="7.08775">
        <ele>1051.2</ele>
        <time>2021-08-05T10:32:46Z</time>
      </trkpt>
      <trkpt lat="48.14432" lon="7.08778">
        <ele>1051.1</ele>
        <time>2021-08-05T10:32:47Z</time>
      </trkpt>
      <trkpt lat="48.14435" lon="7.08782">
        <ele>1050.4</ele>
        <time>2021-08-05T10:32:48Z</time>
      </trkpt>
      <trkpt lat="48.14438" lon="7.08785">
        <ele>1050.4</ele>
        <time>2021-08-05T10:32:49Z</time>
      </trkpt>
      <trkpt lat="48.1444" lon="7.08788">
        <ele>1050.4</ele>
        <time>2021-08-05T10:32:50Z</time>
      </trkpt>
      <trkpt lat="48.14441" lon="7.08789">
        <ele>1050.4</ele>
        <time>2021-08-05T10:32:51Z</time>
      </trkpt>
      <trkpt lat="48.1444" lon="7.08789">
        <ele>1050.4</ele>
        <time>2021-08-05T10:32:52Z</time>
      </trkpt>
      <trkpt lat="48.14439" lon="7.08788">
        <ele>1050.4</ele>
        <time>2021-08-05T10:32:54Z</time>
      </trkpt>
      <trkpt lat="48.14437" lon="7.08787">
        <ele>1050.4</ele>
        <time>2021-08-05T10:32:55Z</time>
      </trkpt>
      <trkpt lat="48.14436" lon="7.08787">
        <ele>1050.4</ele>
        <time>2021-08-05T10:32:56Z</time>
      </trkpt>
      <trkpt lat="48.14435" lon="7.08789">
        <ele>1050.4</ele>
        <time>2021-08-05T10:32:58Z</time>
      </trkpt>
      <trkpt lat="48.14434" lon="7.0879">
        <ele>1050.4</ele>
        <time>2021-08-05T10:32:59Z</time>
      </trkpt>
      <trkpt lat="48.14432" lon="7.08792">
        <ele>1050.4</ele>
        <time>2021-08-05T10:33:00Z</time>
      </trkpt>
      <trkpt lat="48.14431" lon="7.08793">
        <ele>1050.4</ele>
        <time>2021-08-05T10:33:02Z</time>
      </trkpt>
      <trkpt lat="48.14423" lon="7.08797">
        <ele>1050.4</ele>
        <time>2021-08-05T10:33:12Z</time>
      </trkpt>
      <trkpt lat="48.14422" lon="7.08797">
        <ele>1052</ele>
        <time>2021-08-05T10:33:13Z</time>
      </trkpt>
      <trkpt lat="48.14419" lon="7.08796">
        <ele>1052.3</ele>
        <time>2021-08-05T10:33:15Z</time>
      </trkpt>
      <trkpt lat="48.14417" lon="7.08797">
        <ele>1052.4</ele>
        <time>2021-08-05T10:33:16Z</time>
      </trkpt>
      <trkpt lat="48.14414" lon="7.088">
        <ele>1052.7</ele>
        <time>2021-08-05T10:33:18Z</time>
      </trkpt>
      <trkpt lat="48.14412" lon="7.088">
        <ele>1053</ele>
        <time>2021-08-05T10:33:19Z</time>
      </trkpt>
      <trkpt lat="48.1441" lon="7.088">
        <ele>1053.2</ele>
        <time>2021-08-05T10:33:20Z</time>
      </trkpt>
      <trkpt lat="48.14409" lon="7.08799">
        <ele>1053.3</ele>
        <time>2021-08-05T10:33:22Z</time>
      </trkpt>
      <trkpt lat="48.14408" lon="7.08797">
        <ele>1053.4</ele>
        <time>2021-08-05T10:33:23Z</time>
      </trkpt>
      <trkpt lat="48.14407" lon="7.08797">
        <ele>1053.5</ele>
        <time>2021-08-05T10:33:24Z</time>
      </trkpt>
      <trkpt lat="48.14407" lon="7.08796">
        <ele>1053.6</ele>
        <time>2021-08-05T10:33:26Z</time>
      </trkpt>
      <trkpt lat="48.14404" lon="7.08795">
        <ele>1053.9</ele>
        <time>2021-08-05T10:33:28Z</time>
      </trkpt>
      <trkpt lat="48.14401" lon="7.08792">
        <ele>1054.2</ele>
        <time>2021-08-05T10:33:29Z</time>
      </trkpt>
      <trkpt lat="48.14399" lon="7.08789">
        <ele>1054.5</ele>
        <time>2021-08-05T10:33:31Z</time>
      </trkpt>
      <trkpt lat="48.14398" lon="7.08788">
        <ele>1054.6</ele>
        <time>2021-08-05T10:33:32Z</time>
      </trkpt>
      <trkpt lat="48.14398" lon="7.08787">
        <ele>1054.7</ele>
        <time>2021-08-05T10:33:34Z</time>
      </trkpt>
      <trkpt lat="48.14352" lon="7.08757">
        <ele>1059.3</ele>
        <time>2021-08-05T10:34:31Z</time>
      </trkpt>
      <trkpt lat="48.14349" lon="7.08756">
        <ele>1059.6</ele>
        <time>2021-08-05T10:34:32Z</time>
      </trkpt>
      <trkpt lat="48.14348" lon="7.08755">
        <ele>1059.7</ele>
        <time>2021-08-05T10:34:34Z</time>
      </trkpt>
      <trkpt lat="48.14346" lon="7.08754">
        <ele>1059.9</ele>
        <time>2021-08-05T10:34:36Z</time>
      </trkpt>
      <trkpt lat="48.14344" lon="7.08754">
        <ele>1060</ele>
        <time>2021-08-05T10:34:37Z</time>
      </trkpt>
      <trkpt lat="48.14344" lon="7.08755">
        <ele>1060.1</ele>
        <time>2021-08-05T10:34:38Z</time>
      </trkpt>
      <trkpt lat="48.14343" lon="7.08755">
        <ele>1060.1</ele>
        <time>2021-08-05T10:34:39Z</time>
      </trkpt>
      <trkpt lat="48.14342" lon="7.08755">
        <ele>1060.2</ele>
        <time>2021-08-05T10:34:41Z</time>
      </trkpt>
      <trkpt lat="48.14342" lon="7.08755">
        <ele>1060.2</ele>
        <time>2021-08-05T10:34:42Z</time>
      </trkpt>
      <trkpt lat="48.14342" lon="7.08755">
        <ele>1060.2</ele>
        <time>2021-08-05T10:34:43Z</time>
      </trkpt>
      <trkpt lat="48.14342" lon="7.08755">
        <ele>1060.2</ele>
        <time>2021-08-05T10:34:45Z</time>
      </trkpt>
      <trkpt lat="48.14342" lon="7.08755">
        <ele>1060.2</ele>
        <time>2021-08-05T10:34:46Z</time>
      </trkpt>
      <trkpt lat="48.14342" lon="7.08755">
        <ele>1060.2</ele>
        <time>2021-08-05T10:34:47Z</time>
      </trkpt>
      <trkpt lat="48.14342" lon="7.08755">
        <ele>1060.3</ele>
        <time>2021-08-05T10:34:49Z</time>
      </trkpt>
      <trkpt lat="48.14262" lon="7.08755">
        <ele>1068.3</ele>
        <time>2021-08-05T10:36:11Z</time>
      </trkpt>
      <trkpt lat="48.14261" lon="7.08756">
        <ele>1068.4</ele>
        <time>2021-08-05T10:36:12Z</time>
      </trkpt>
      <trkpt lat="48.14259" lon="7.08757">
        <ele>1068.6</ele>
        <time>2021-08-05T10:36:13Z</time>
      </trkpt>
      <trkpt lat="48.14258" lon="7.08758">
        <ele>1068.8</ele>
        <time>2021-08-05T10:36:15Z</time>
      </trkpt>
      <trkpt lat="48.14257" lon="7.08758">
        <ele>1068.9</ele>
        <time>2021-08-05T10:36:16Z</time>
      </trkpt>
      <trkpt lat="48.14255" lon="7.08758">
        <ele>1069.1</ele>
        <time>2021-08-05T10:36:18Z</time>
      </trkpt>
      <trkpt lat="48.14254" lon="7.08758">
        <ele>1069.2</ele>
        <time>2021-08-05T10:36:19Z</time>
      </trkpt>
      <trkpt lat="48.14254" lon="7.08759">
        <ele>1069.2</ele>
        <time>2021-08-05T10:36:20Z</time>
      </trkpt>
      <trkpt lat="48.14253" lon="7.08759">
        <ele>1069.3</ele>
        <time>2021-08-05T10:36:21Z</time>
      </trkpt>
      <trkpt lat="48.14253" lon="7.08759">
        <ele>1069.3</ele>
        <time>2021-08-05T10:36:23Z</time>
      </trkpt>
      <trkpt lat="48.14253" lon="7.0876">
        <ele>1069.3</ele>
        <time>2021-08-05T10:36:24Z</time>
      </trkpt>
      <trkpt lat="48.14253" lon="7.0876">
        <ele>1069.4</ele>
        <time>2021-08-05T10:36:25Z</time>
      </trkpt>
      <trkpt lat="48.14253" lon="7.0876">
        <ele>1069.4</ele>
        <time>2021-08-05T10:36:27Z</time>
      </trkpt>
      <trkpt lat="48.14253" lon="7.0876">
        <ele>1069.4</ele>
        <time>2021-08-05T10:36:28Z</time>
      </trkpt>
      <trkpt lat="48.14253" lon="7.0876">
        <ele>1069.4</ele>
        <time>2021-08-05T10:36:29Z</time>
      </trkpt>
      <trkpt lat="48.14253" lon="7.0876">
        <ele>1069.4</ele>
        <time>2021-08-05T10:36:30Z</time>
      </trkpt>
      <trkpt lat="48.14253" lon="7.0876">
        <ele>1069.4</ele>
        <time>2021-08-05T10:36:31Z</time>
      </trkpt>
      <trkpt lat="48.14098" lon="7.08887">
        <ele>1101.1</ele>
        <time>2021-08-05T10:41:46Z</time>
      </trkpt>
      <trkpt lat="48.14097" lon="7.08888">
        <ele>1101.2</ele>
        <time>2021-08-05T10:41:47Z</time>
      </trkpt>
      <trkpt lat="48.14096" lon="7.08889">
        <ele>1101.3</ele>
        <time>2021-08-05T10:41:48Z</time>
      </trkpt>
      <trkpt lat="48.14096" lon="7.08889">
        <ele>1101.3</ele>
        <time>2021-08-05T10:41:50Z</time>
      </trkpt>
      <trkpt lat="48.14096" lon="7.0889">
        <ele>1101.4</ele>
        <time>2021-08-05T10:41:51Z</time>
      </trkpt>
      <trkpt lat="48.14096" lon="7.0889">
        <ele>1101.4</ele>
        <time>2021-08-05T10:41:52Z</time>
      </trkpt>
      <trkpt lat="48.14096" lon="7.0889">
        <ele>1101.4</ele>
        <time>2021-08-05T10:41:54Z</time>
      </trkpt>
      <trkpt lat="48.14095" lon="7.08891">
        <ele>1101.5</ele>
        <time>2021-08-05T10:41:55Z</time>
      </trkpt>
      <trkpt lat="48.14091" lon="7.08892">
        <ele>1101.9</ele>
        <time>2021-08-05T10:41:56Z</time>
      </trkpt>
      <trkpt lat="48.14088" lon="7.08892">
        <ele>1102.3</ele>
        <time>2021-08-05T10:41:58Z</time>
      </trkpt>
      <trkpt lat="48.14084" lon="7.08892">
        <ele>1102.6</ele>
        <time>2021-08-05T10:42:10Z</time>
      </trkpt>
      <trkpt lat="48.14081" lon="7.08892">
        <ele>1103</ele>
        <time>2021-08-05T10:42:11Z</time>
      </trkpt>
      <trkpt lat="48.14077" lon="7.08892">
        <ele>1103.3</ele>
        <time>2021-08-05T10:42:12Z</time>
      </trkpt>
      <trkpt lat="48.14074" lon="7.08892">
        <ele>1103.6</ele>
        <time>2021-08-05T10:42:14Z</time>
      </trkpt>
      <trkpt lat="48.14072" lon="7.0889">
        <ele>1103.8</ele>
        <time>2021-08-05T10:42:15Z</time>
      </trkpt>
      <trkpt lat="48.14071" lon="7.0889">
        <ele>1103.9</ele>
        <time>2021-08-05T10:42:16Z</time>
      </trkpt>
      <trkpt lat="48.1407" lon="7.08889">
        <ele>1104</ele>
        <time>2021-08-05T10:42:18Z</time>
      </trkpt>
      <trkpt lat="48.14068" lon="7.08889">
        <ele>1104.2</ele>
        <time>2021-08-05T10:42:19Z</time>
      </trkpt>
      <trkpt lat="48.14068" lon="7.08888">
        <ele>1104.3</ele>
        <time>2021-08-05T10:42:21Z</time>
      </trkpt>
      <trkpt lat="48.14068" lon="7.08886">
        <ele>1104.4</ele>
        <time>2021-08-05T10:42:22Z</time>
      </trkpt>
      <trkpt lat="48.14068" lon="7.08886">
        <ele>1104.4</ele>
        <time>2021-08-05T10:42:24Z</time>
      </trkpt>
      <trkpt lat="48.14068" lon="7.08885">
        <ele>1104.4</ele>
        <time>2021-08-05T10:42:26Z</time>
      </trkpt>
      <trkpt lat="48.14068" lon="7.08885">
        <ele>1104.5</ele>
        <time>2021-08-05T10:42:28Z</time>
      </trkpt>
      <trkpt lat="48.14068" lon="7.08885">
        <ele>1104.5</ele>
        <time>2021-08-05T10:42:30Z</time>
      </trkpt>
      <trkpt lat="48.14023" lon="7.08902">
        <ele>1109.1</ele>
        <time>2021-08-05T10:43:24Z</time>
      </trkpt>
      <trkpt lat="48.14021" lon="7.08901">
        <ele>1109.3</ele>
        <time>2021-08-05T10:43:25Z</time>
      </trkpt>
      <trkpt lat="48.1402" lon="7.08901">
        <ele>1109.4</ele>
        <time>2021-08-05T10:43:27Z</time>
      </trkpt>
      <trkpt lat="48.14017" lon="7.08899">
        <ele>1109.7</ele>
        <time>2021-08-05T10:43:28Z</time>
      </trkpt>
      <trkpt lat="48.14015" lon="7.08898">
        <ele>1109.8</ele>
        <time>2021-08-05T10:43:30Z</time>
      </trkpt>
      <trkpt lat="48.14014" lon="7.08899">
        <ele>1110</ele>
        <time>2021-08-05T10:43:31Z</time>
      </trkpt>
      <trkpt lat="48.14013" lon="7.08898">
        <ele>1110</ele>
        <time>2021-08-05T10:43:33Z</time>
      </trkpt>
      <trkpt lat="48.14011" lon="7.08899">
        <ele>1110.3</ele>
        <time>2021-08-05T10:43:34Z</time>
      </trkpt>
      <trkpt lat="48.1401" lon="7.08899">
        <ele>1110.3</ele>
        <time>2021-08-05T10:43:35Z</time>
      </trkpt>
      <trkpt lat="48.14009" lon="7.08899">
        <ele>1110.4</ele>
        <time>2021-08-05T10:43:37Z</time>
      </trkpt>
      <trkpt lat="48.14009" lon="7.08899">
        <ele>1110.4</ele>
        <time>2021-08-05T10:43:38Z</time>
      </trkpt>
      <trkpt lat="48.14008" lon="7.08899">
        <ele>1110.5</ele>
        <time>2021-08-05T10:43:39Z</time>
      </trkpt>
      <trkpt lat="48.14008" lon="7.08899">
        <ele>1110.5</ele>
        <time>2021-08-05T10:43:40Z</time>
      </trkpt>
      <trkpt lat="48.14007" lon="7.08899">
        <ele>1110.6</ele>
        <time>2021-08-05T10:43:42Z</time>
      </trkpt>
      <trkpt lat="48.14004" lon="7.08899">
        <ele>1110.8</ele>
        <time>2021-08-05T10:43:43Z</time>
      </trkpt>
      <trkpt lat="48.14002" lon="7.08899">
        <ele>1111</ele>
        <time>2021-08-05T10:43:44Z</time>
      </trkpt>
      <trkpt lat="48.13999" lon="7.08898">
        <ele>1111.3</ele>
        <time>2021-08-05T10:43:46Z</time>
      </trkpt>
      <trkpt lat="48.13995" lon="7.08896">
        <ele>1111.6</ele>
        <time>2021-08-05T10:43:47Z</time>
      </trkpt>
      <trkpt lat="48.13994" lon="7.08896">
        <ele>1111.7</ele>
        <time>2021-08-05T10:43:48Z</time>
      </trkpt>
      <trkpt lat="48.13993" lon="7.08895">
        <ele>1111.8</ele>
        <time>2021-08-05T10:43:49Z</time>
      </trkpt>
      <trkpt lat="48.13992" lon="7.08895">
        <ele>1111.9</ele>
        <time>2021-08-05T10:43:51Z</time>
      </trkpt>
      <trkpt lat="48.1399" lon="7.08895">
        <ele>1112</ele>
        <time>2021-08-05T10:43:52Z</time>
      </trkpt>
      <trkpt lat="48.13989" lon="7.08895">
        <ele>1112.2</ele>
        <time>2021-08-05T10:43:53Z</time>
      </trkpt>
      <trkpt lat="48.13987" lon="7.08895">
        <ele>1112.3</ele>
        <time>2021-08-05T10:43:55Z</time>
      </trkpt>
      <trkpt lat="48.13987" lon="7.08895">
        <ele>1112.4</ele>
        <time>2021-08-05T10:43:56Z</time>
      </trkpt>
      <trkpt lat="48.13986" lon="7.08896">
        <ele>1112.4</ele>
        <time>2021-08-05T10:43:58Z</time>
      </trkpt>
      <trkpt lat="48.13985" lon="7.08896">
        <ele>1112.5</ele>
        <time>2021-08-05T10:43:59Z</time>
      </trkpt>
      <trkpt lat="48.13985" lon="7.08897">
        <ele>1112.6</ele>
        <time>2021-08-05T10:44:00Z</time>
      </trkpt>
      <trkpt lat="48.13984" lon="7.08897">
        <ele>1112.6</ele>
        <time>2021-08-05T10:44:02Z</time>
      </trkpt>
      <trkpt lat="48.13984" lon="7.08897">
        <ele>1112.7</ele>
        <time>2021-08-05T10:44:03Z</time>
      </trkpt>
      <trkpt lat="48.13947" lon="7.08898">
        <ele>1120.1</ele>
        <time>2021-08-05T10:44:58Z</time>
      </trkpt>
      <trkpt lat="48.13943" lon="7.08896">
        <ele>1120.4</ele>
        <time>2021-08-05T10:45:00Z</time>
      </trkpt>
      <trkpt lat="48.1394" lon="7.08893">
        <ele>1120.6</ele>
        <time>2021-08-05T10:45:02Z</time>
      </trkpt>
      <trkpt lat="48.13938" lon="7.08892">
        <ele>1120.8</ele>
        <time>2021-08-05T10:45:04Z</time>
      </trkpt>
      <trkpt lat="48.13936" lon="7.08891">
        <ele>1121</ele>
        <time>2021-08-05T10:45:05Z</time>
      </trkpt>
      <trkpt lat="48.13935" lon="7.0889">
        <ele>1121.1</ele>
        <time>2021-08-05T10:45:06Z</time>
      </trkpt>
      <trkpt lat="48.13933" lon="7.0889">
        <ele>1121.2</ele>
        <time>2021-08-05T10:45:07Z</time>
      </trkpt>
      <trkpt lat="48.13931" lon="7.08888">
        <ele>1121.4</ele>
        <time>2021-08-05T10:45:09Z</time>
      </trkpt>
      <trkpt lat="48.13928" lon="7.08887">
        <ele>1121.6</ele>
        <time>2021-08-05T10:45:11Z</time>
      </trkpt>
      <trkpt lat="48.13927" lon="7.08886">
        <ele>1121.7</ele>
        <time>2021-08-05T10:45:12Z</time>
      </trkpt>
      <trkpt lat="48.13924" lon="7.08884">
        <ele>1121.8</ele>
        <time>2021-08-05T10:45:14Z</time>
      </trkpt>
      <trkpt lat="48.13923" lon="7.08883">
        <ele>1122</ele>
        <time>2021-08-05T10:45:15Z</time>
      </trkpt>
      <trkpt lat="48.13922" lon="7.08881">
        <ele>1122.1</ele>
        <time>2021-08-05T10:45:16Z</time>
      </trkpt>
      <trkpt lat="48.1392" lon="7.0888">
        <ele>1122.2</ele>
        <time>2021-08-05T10:45:17Z</time>
      </trkpt>
      <trkpt lat="48.13919" lon="7.08879">
        <ele>1122.3</ele>
        <time>2021-08-05T10:45:19Z</time>
      </trkpt>
      <trkpt lat="48.13917" lon="7.08878">
        <ele>1122.4</ele>
        <time>2021-08-05T10:45:20Z</time>
      </trkpt>
      <trkpt lat="48.13916" lon="7.08877">
        <ele>1122.5</ele>
        <time>2021-08-05T10:45:21Z</time>
      </trkpt>
      <trkpt lat="48.13913" lon="7.08875">
        <ele>1122.7</ele>
        <time>2021-08-05T10:45:23Z</time>
      </trkpt>
      <trkpt lat="48.13909" lon="7.08873">
        <ele>1122.9</ele>
        <time>2021-08-05T10:45:25Z</time>
      </trkpt>
      <trkpt lat="48.13907" lon="7.08872">
        <ele>1123.1</ele>
        <time>2021-08-05T10:45:26Z</time>
      </trkpt>
      <trkpt lat="48.13905" lon="7.08871">
        <ele>1123.2</ele>
        <time>2021-08-05T10:45:27Z</time>
      </trkpt>
      <trkpt lat="48.13903" lon="7.0887">
        <ele>1123.4</ele>
        <time>2021-08-05T10:45:28Z</time>
      </trkpt>
      <trkpt lat="48.139" lon="7.0887">
        <ele>1123.5</ele>
        <time>2021-08-05T10:45:30Z</time>
      </trkpt>
      <trkpt lat="48.13897" lon="7.08871">
        <ele>1123.7</ele>
        <time>2021-08-05T10:45:31Z</time>
      </trkpt>
      <trkpt lat="48.13894" lon="7.08872">
        <ele>1123.9</ele>
        <time>2021-08-05T10:45:32Z</time>
      </trkpt>
      <trkpt lat="48.13891" lon="7.08871">
        <ele>1124</ele>
        <time>2021-08-05T10:45:33Z</time>
      </trkpt>
      <trkpt lat="48.13888" lon="7.0887">
        <ele>1124.2</ele>
        <time>2021-08-05T10:45:35Z</time>
      </trkpt>
      <trkpt lat="48.13885" lon="7.08867">
        <ele>1124.4</ele>
        <time>2021-08-05T10:45:37Z</time>
      </trkpt>
      <trkpt lat="48.13883" lon="7.08863">
        <ele>1124.7</ele>
        <time>2021-08-05T10:45:38Z</time>
      </trkpt>
      <trkpt lat="48.13882" lon="7.08861">
        <ele>1124.7</ele>
        <time>2021-08-05T10:45:40Z</time>
      </trkpt>
      <trkpt lat="48.13882" lon="7.0886">
        <ele>1124.8</ele>
        <time>2021-08-05T10:45:42Z</time>
      </trkpt>
      <trkpt lat="48.13882" lon="7.08859">
        <ele>1124.8</ele>
        <time>2021-08-05T10:45:43Z</time>
      </trkpt>
      <trkpt lat="48.13881" lon="7.08858">
        <ele>1124.9</ele>
        <time>2021-08-05T10:45:44Z</time>
      </trkpt>
      <trkpt lat="48.13879" lon="7.08854">
        <ele>1125.1</ele>
        <time>2021-08-05T10:45:45Z</time>
      </trkpt>
      <trkpt lat="48.13878" lon="7.08853">
        <ele>1125.2</ele>
        <time>2021-08-05T10:45:46Z</time>
      </trkpt>
      <trkpt lat="48.13875" lon="7.08851">
        <ele>1125.4</ele>
        <time>2021-08-05T10:45:47Z</time>
      </trkpt>
      <trkpt lat="48.13874" lon="7.0885">
        <ele>1125.5</ele>
        <time>2021-08-05T10:45:48Z</time>
      </trkpt>
      <trkpt lat="48.13872" lon="7.08849">
        <ele>1125.6</ele>
        <time>2021-08-05T10:45:49Z</time>
      </trkpt>
      <trkpt lat="48.13868" lon="7.08848">
        <ele>1125.8</ele>
        <time>2021-08-05T10:45:51Z</time>
      </trkpt>
      <trkpt lat="48.13864" lon="7.08847">
        <ele>1126</ele>
        <time>2021-08-05T10:45:52Z</time>
      </trkpt>
      <trkpt lat="48.13863" lon="7.08847">
        <ele>1126</ele>
        <time>2021-08-05T10:45:53Z</time>
      </trkpt>
      <trkpt lat="48.1386" lon="7.08846">
        <ele>1126.2</ele>
        <time>2021-08-05T10:45:55Z</time>
      </trkpt>
      <trkpt lat="48.13858" lon="7.08845">
        <ele>1126.2</ele>
        <time>2021-08-05T10:45:56Z</time>
      </trkpt>
      <trkpt lat="48.13854" lon="7.08843">
        <ele>1126.4</ele>
        <time>2021-08-05T10:45:58Z</time>
      </trkpt>
      <trkpt lat="48.13852" lon="7.08842">
        <ele>1126.5</ele>
        <time>2021-08-05T10:45:59Z</time>
      </trkpt>
      <trkpt lat="48.13851" lon="7.08841">
        <ele>1126.6</ele>
        <time>2021-08-05T10:46:00Z</time>
      </trkpt>
      <trkpt lat="48.13848" lon="7.0884">
        <ele>1126.7</ele>
        <time>2021-08-05T10:46:01Z</time>
      </trkpt>
      <trkpt lat="48.13845" lon="7.08838">
        <ele>1126.9</ele>
        <time>2021-08-05T10:46:02Z</time>
      </trkpt>
      <trkpt lat="48.13844" lon="7.08837">
        <ele>1126.9</ele>
        <time>2021-08-05T10:46:03Z</time>
      </trkpt>
      <trkpt lat="48.13843" lon="7.08837">
        <ele>1127</ele>
        <time>2021-08-05T10:46:05Z</time>
      </trkpt>
      <trkpt lat="48.13843" lon="7.08836">
        <ele>1127</ele>
        <time>2021-08-05T10:46:06Z</time>
      </trkpt>
      <trkpt lat="48.13842" lon="7.08836">
        <ele>1127.1</ele>
        <time>2021-08-05T10:46:07Z</time>
      </trkpt>
      <trkpt lat="48.13838" lon="7.08836">
        <ele>1127.3</ele>
        <time>2021-08-05T10:46:09Z</time>
      </trkpt>
      <trkpt lat="48.13836" lon="7.08836">
        <ele>1127.4</ele>
        <time>2021-08-05T10:46:10Z</time>
      </trkpt>
      <trkpt lat="48.13835" lon="7.08836">
        <ele>1127.5</ele>
        <time>2021-08-05T10:46:11Z</time>
      </trkpt>
      <trkpt lat="48.13832" lon="7.08835">
        <ele>1127.7</ele>
        <time>2021-08-05T10:46:12Z</time>
      </trkpt>
      <trkpt lat="48.1383" lon="7.08834">
        <ele>1127.9</ele>
        <time>2021-08-05T10:46:14Z</time>
      </trkpt>
      <trkpt lat="48.1383" lon="7.08834">
        <ele>1127.9</ele>
        <time>2021-08-05T10:46:15Z</time>
      </trkpt>
      <trkpt lat="48.13826" lon="7.08837">
        <ele>1128.3</ele>
        <time>2021-08-05T10:46:17Z</time>
      </trkpt>
      <trkpt lat="48.13824" lon="7.08838">
        <ele>1128.4</ele>
        <time>2021-08-05T10:46:18Z</time>
      </trkpt>
      <trkpt lat="48.13822" lon="7.08839">
        <ele>1128.6</ele>
        <time>2021-08-05T10:46:19Z</time>
      </trkpt>
      <trkpt lat="48.13818" lon="7.0884">
        <ele>1128.9</ele>
        <time>2021-08-05T10:46:21Z</time>
      </trkpt>
      <trkpt lat="48.13817" lon="7.0884">
        <ele>1129.1</ele>
        <time>2021-08-05T10:46:22Z</time>
      </trkpt>
      <trkpt lat="48.13814" lon="7.0884">
        <ele>1129.3</ele>
        <time>2021-08-05T10:46:23Z</time>
      </trkpt>
      <trkpt lat="48.13811" lon="7.08841">
        <ele>1129.6</ele>
        <time>2021-08-05T10:46:25Z</time>
      </trkpt>
      <trkpt lat="48.1381" lon="7.08841">
        <ele>1129.7</ele>
        <time>2021-08-05T10:46:26Z</time>
      </trkpt>
      <trkpt lat="48.13807" lon="7.08843">
        <ele>1130</ele>
        <time>2021-08-05T10:46:27Z</time>
      </trkpt>
      <trkpt lat="48.13805" lon="7.08844">
        <ele>1130.2</ele>
        <time>2021-08-05T10:46:28Z</time>
      </trkpt>
      <trkpt lat="48.13804" lon="7.08844">
        <ele>1130.3</ele>
        <time>2021-08-05T10:46:30Z</time>
      </trkpt>
      <trkpt lat="48.13804" lon="7.08844">
        <ele>1130.3</ele>
        <time>2021-08-05T10:46:32Z</time>
      </trkpt>
      <trkpt lat="48.13801" lon="7.08844">
        <ele>1130.5</ele>
        <time>2021-08-05T10:46:33Z</time>
      </trkpt>
      <trkpt lat="48.13799" lon="7.08841">
        <ele>1130.8</ele>
        <time>2021-08-05T10:46:35Z</time>
      </trkpt>
      <trkpt lat="48.13798" lon="7.08839">
        <ele>1130.9</ele>
        <time>2021-08-05T10:46:36Z</time>
      </trkpt>
      <trkpt lat="48.13797" lon="7.08836">
        <ele>1131.1</ele>
        <time>2021-08-05T10:46:37Z</time>
      </trkpt>
      <trkpt lat="48.13797" lon="7.08835">
        <ele>1131.2</ele>
        <time>2021-08-05T10:46:39Z</time>
      </trkpt>
      <trkpt lat="48.13797" lon="7.08834">
        <ele>1131.2</ele>
        <time>2021-08-05T10:46:40Z</time>
      </trkpt>
      <trkpt lat="48.13797" lon="7.08833">
        <ele>1131.3</ele>
        <time>2021-08-05T10:46:42Z</time>
      </trkpt>
      <trkpt lat="48.13797" lon="7.08831">
        <ele>1131.4</ele>
        <time>2021-08-05T10:46:43Z</time>
      </trkpt>
      <trkpt lat="48.13797" lon="7.0883">
        <ele>1131.4</ele>
        <time>2021-08-05T10:46:44Z</time>
      </trkpt>
      <trkpt lat="48.13796" lon="7.08829">
        <ele>1131.5</ele>
        <time>2021-08-05T10:46:45Z</time>
      </trkpt>
      <trkpt lat="48.13797" lon="7.08828">
        <ele>1131.6</ele>
        <time>2021-08-05T10:46:47Z</time>
      </trkpt>
      <trkpt lat="48.13798" lon="7.08828">
        <ele>1131.6</ele>
        <time>2021-08-05T10:46:48Z</time>
      </trkpt>
      <trkpt lat="48.13799" lon="7.08827">
        <ele>1131.7</ele>
        <time>2021-08-05T10:46:49Z</time>
      </trkpt>
      <trkpt lat="48.13802" lon="7.08825">
        <ele>1131.9</ele>
        <time>2021-08-05T10:46:51Z</time>
      </trkpt>
      <trkpt lat="48.13803" lon="7.08824">
        <ele>1132</ele>
        <time>2021-08-05T10:46:52Z</time>
      </trkpt>
      <trkpt lat="48.13805" lon="7.08822">
        <ele>1132.2</ele>
        <time>2021-08-05T10:46:54Z</time>
      </trkpt>
      <trkpt lat="48.13794" lon="7.0882">
        <ele>1133</ele>
        <time>2021-08-05T10:47:12Z</time>
      </trkpt>
      <trkpt lat="48.13789" lon="7.08817">
        <ele>1133.4</ele>
        <time>2021-08-05T10:47:14Z</time>
      </trkpt>
      <trkpt lat="48.13785" lon="7.08815">
        <ele>1133.8</ele>
        <time>2021-08-05T10:47:15Z</time>
      </trkpt>
      <trkpt lat="48.13778" lon="7.08814">
        <ele>1134.3</ele>
        <time>2021-08-05T10:47:16Z</time>
      </trkpt>
      <trkpt lat="48.13774" lon="7.08814">
        <ele>1134.7</ele>
        <time>2021-08-05T10:47:18Z</time>
      </trkpt>
      <trkpt lat="48.13769" lon="7.08813">
        <ele>1135.2</ele>
        <time>2021-08-05T10:47:20Z</time>
      </trkpt>
      <trkpt lat="48.13766" lon="7.08812">
        <ele>1135.5</ele>
        <time>2021-08-05T10:47:21Z</time>
      </trkpt>
      <trkpt lat="48.13764" lon="7.08811">
        <ele>1135.6</ele>
        <time>2021-08-05T10:47:22Z</time>
      </trkpt>
      <trkpt lat="48.13763" lon="7.0881">
        <ele>1135.8</ele>
        <time>2021-08-05T10:47:23Z</time>
      </trkpt>
      <trkpt lat="48.13761" lon="7.0881">
        <ele>1135.9</ele>
        <time>2021-08-05T10:47:24Z</time>
      </trkpt>
      <trkpt lat="48.13759" lon="7.08811">
        <ele>1136.1</ele>
        <time>2021-08-05T10:47:25Z</time>
      </trkpt>
      <trkpt lat="48.13755" lon="7.08813">
        <ele>1136.6</ele>
        <time>2021-08-05T10:47:27Z</time>
      </trkpt>
      <trkpt lat="48.13752" lon="7.08814">
        <ele>1136.9</ele>
        <time>2021-08-05T10:47:29Z</time>
      </trkpt>
      <trkpt lat="48.13751" lon="7.08814">
        <ele>1137.1</ele>
        <time>2021-08-05T10:47:30Z</time>
      </trkpt>
      <trkpt lat="48.1375" lon="7.08814">
        <ele>1137.1</ele>
        <time>2021-08-05T10:47:31Z</time>
      </trkpt>
      <trkpt lat="48.1375" lon="7.08814">
        <ele>1137.1</ele>
        <time>2021-08-05T10:47:32Z</time>
      </trkpt>
      <trkpt lat="48.1375" lon="7.08814">
        <ele>1137.2</ele>
        <time>2021-08-05T10:47:33Z</time>
      </trkpt>
      <trkpt lat="48.13747" lon="7.08814">
        <ele>1137.5</ele>
        <time>2021-08-05T10:47:35Z</time>
      </trkpt>
      <trkpt lat="48.13746" lon="7.08814">
        <ele>1137.6</ele>
        <time>2021-08-05T10:47:36Z</time>
      </trkpt>
      <trkpt lat="48.13742" lon="7.08817">
        <ele>1138.1</ele>
        <time>2021-08-05T10:47:41Z</time>
      </trkpt>
      <trkpt lat="48.1374" lon="7.08818">
        <ele>1138.4</ele>
        <time>2021-08-05T10:47:43Z</time>
      </trkpt>
      <trkpt lat="48.13739" lon="7.08818">
        <ele>1138.5</ele>
        <time>2021-08-05T10:47:44Z</time>
      </trkpt>
      <trkpt lat="48.13736" lon="7.08821">
        <ele>1138.9</ele>
        <time>2021-08-05T10:47:46Z</time>
      </trkpt>
      <trkpt lat="48.13735" lon="7.08821">
        <ele>1139</ele>
        <time>2021-08-05T10:47:47Z</time>
      </trkpt>
      <trkpt lat="48.13731" lon="7.08825">
        <ele>1139.5</ele>
        <time>2021-08-05T10:47:49Z</time>
      </trkpt>
      <trkpt lat="48.13728" lon="7.08827">
        <ele>1140</ele>
        <time>2021-08-05T10:47:50Z</time>
      </trkpt>
      <trkpt lat="48.13725" lon="7.08828">
        <ele>1140.3</ele>
        <time>2021-08-05T10:47:51Z</time>
      </trkpt>
      <trkpt lat="48.13724" lon="7.08829">
        <ele>1140.5</ele>
        <time>2021-08-05T10:47:52Z</time>
      </trkpt>
      <trkpt lat="48.13723" lon="7.08829">
        <ele>1140.6</ele>
        <time>2021-08-05T10:47:54Z</time>
      </trkpt>
      <trkpt lat="48.13722" lon="7.08831">
        <ele>1140.8</ele>
        <time>2021-08-05T10:47:55Z</time>
      </trkpt>
      <trkpt lat="48.13721" lon="7.08833">
        <ele>1141</ele>
        <time>2021-08-05T10:47:56Z</time>
      </trkpt>
      <trkpt lat="48.1372" lon="7.08834">
        <ele>1141.2</ele>
        <time>2021-08-05T10:47:58Z</time>
      </trkpt>
      <trkpt lat="48.1372" lon="7.08835">
        <ele>1141.2</ele>
        <time>2021-08-05T10:47:59Z</time>
      </trkpt>
      <trkpt lat="48.13718" lon="7.08838">
        <ele>1141.6</ele>
        <time>2021-08-05T10:48:00Z</time>
      </trkpt>
      <trkpt lat="48.13717" lon="7.0884">
        <ele>1141.7</ele>
        <time>2021-08-05T10:48:02Z</time>
      </trkpt>
      <trkpt lat="48.13716" lon="7.08841">
        <ele>1141.9</ele>
        <time>2021-08-05T10:48:03Z</time>
      </trkpt>
      <trkpt lat="48.13714" lon="7.08842">
        <ele>1142</ele>
        <time>2021-08-05T10:48:04Z</time>
      </trkpt>
      <trkpt lat="48.13711" lon="7.08843">
        <ele>1142.4</ele>
        <time>2021-08-05T10:48:06Z</time>
      </trkpt>
      <trkpt lat="48.1371" lon="7.08844">
        <ele>1142.5</ele>
        <time>2021-08-05T10:48:07Z</time>
      </trkpt>
      <trkpt lat="48.13709" lon="7.08844">
        <ele>1142.6</ele>
        <time>2021-08-05T10:48:09Z</time>
      </trkpt>
      <trkpt lat="48.13709" lon="7.08844">
        <ele>1142.6</ele>
        <time>2021-08-05T10:48:10Z</time>
      </trkpt>
      <trkpt lat="48.13708" lon="7.08846">
        <ele>1142.9</ele>
        <time>2021-08-05T10:48:12Z</time>
      </trkpt>
      <trkpt lat="48.13706" lon="7.08848">
        <ele>1143.2</ele>
        <time>2021-08-05T10:48:13Z</time>
      </trkpt>
      <trkpt lat="48.13703" lon="7.0885">
        <ele>1143.5</ele>
        <time>2021-08-05T10:48:15Z</time>
      </trkpt>
      <trkpt lat="48.13702" lon="7.08851">
        <ele>1143.5</ele>
        <time>2021-08-05T10:48:16Z</time>
      </trkpt>
      <trkpt lat="48.13701" lon="7.08852">
        <ele>1143.7</ele>
        <time>2021-08-05T10:48:17Z</time>
      </trkpt>
      <trkpt lat="48.13699" lon="7.08852">
        <ele>1143.9</ele>
        <time>2021-08-05T10:48:19Z</time>
      </trkpt>
      <trkpt lat="48.13697" lon="7.08852">
        <ele>1144.1</ele>
        <time>2021-08-05T10:48:20Z</time>
      </trkpt>
      <trkpt lat="48.13695" lon="7.08851">
        <ele>1144.1</ele>
        <time>2021-08-05T10:48:22Z</time>
      </trkpt>
      <trkpt lat="48.13695" lon="7.08852">
        <ele>1144.2</ele>
        <time>2021-08-05T10:48:23Z</time>
      </trkpt>
      <trkpt lat="48.13695" lon="7.08852">
        <ele>1144.2</ele>
        <time>2021-08-05T10:48:24Z</time>
      </trkpt>
      <trkpt lat="48.13694" lon="7.08852">
        <ele>1144.2</ele>
        <time>2021-08-05T10:48:26Z</time>
      </trkpt>
      <trkpt lat="48.13692" lon="7.0885">
        <ele>1144.3</ele>
        <time>2021-08-05T10:48:27Z</time>
      </trkpt>
      <trkpt lat="48.1369" lon="7.08848">
        <ele>1144.2</ele>
        <time>2021-08-05T10:48:29Z</time>
      </trkpt>
      <trkpt lat="48.13689" lon="7.08848">
        <ele>1144.2</ele>
        <time>2021-08-05T10:48:30Z</time>
      </trkpt>
      <trkpt lat="48.13687" lon="7.08847">
        <ele>1144.3</ele>
        <time>2021-08-05T10:48:31Z</time>
      </trkpt>
      <trkpt lat="48.13686" lon="7.08845">
        <ele>1144.2</ele>
        <time>2021-08-05T10:48:33Z</time>
      </trkpt>
      <trkpt lat="48.13685" lon="7.08844">
        <ele>1144.2</ele>
        <time>2021-08-05T10:48:34Z</time>
      </trkpt>
      <trkpt lat="48.13684" lon="7.08842">
        <ele>1144.3</ele>
        <time>2021-08-05T10:48:35Z</time>
      </trkpt>
      <trkpt lat="48.13683" lon="7.08839">
        <ele>1144.2</ele>
        <time>2021-08-05T10:48:36Z</time>
      </trkpt>
      <trkpt lat="48.13682" lon="7.08836">
        <ele>1144.1</ele>
        <time>2021-08-05T10:48:38Z</time>
      </trkpt>
      <trkpt lat="48.13681" lon="7.08834">
        <ele>1144.1</ele>
        <time>2021-08-05T10:48:39Z</time>
      </trkpt>
      <trkpt lat="48.13679" lon="7.08833">
        <ele>1144</ele>
        <time>2021-08-05T10:48:41Z</time>
      </trkpt>
      <trkpt lat="48.13678" lon="7.08831">
        <ele>1144</ele>
        <time>2021-08-05T10:48:42Z</time>
      </trkpt>
      <trkpt lat="48.13676" lon="7.08828">
        <ele>1143.9</ele>
        <time>2021-08-05T10:48:44Z</time>
      </trkpt>
      <trkpt lat="48.13675" lon="7.08827">
        <ele>1143.9</ele>
        <time>2021-08-05T10:48:45Z</time>
      </trkpt>
      <trkpt lat="48.13674" lon="7.08825">
        <ele>1143.9</ele>
        <time>2021-08-05T10:48:46Z</time>
      </trkpt>
      <trkpt lat="48.13673" lon="7.08822">
        <ele>1143.8</ele>
        <time>2021-08-05T10:48:47Z</time>
      </trkpt>
      <trkpt lat="48.13673" lon="7.08819">
        <ele>1143.6</ele>
        <time>2021-08-05T10:48:49Z</time>
      </trkpt>
      <trkpt lat="48.13672" lon="7.08816">
        <ele>1143.6</ele>
        <time>2021-08-05T10:48:50Z</time>
      </trkpt>
      <trkpt lat="48.13671" lon="7.08814">
        <ele>1143.5</ele>
        <time>2021-08-05T10:48:51Z</time>
      </trkpt>
      <trkpt lat="48.1367" lon="7.08814">
        <ele>1143.5</ele>
        <time>2021-08-05T10:48:52Z</time>
      </trkpt>
      <trkpt lat="48.1367" lon="7.08815">
        <ele>1143.6</ele>
        <time>2021-08-05T10:48:54Z</time>
      </trkpt>
      <trkpt lat="48.1367" lon="7.08814">
        <ele>1143.6</ele>
        <time>2021-08-05T10:48:55Z</time>
      </trkpt>
      <trkpt lat="48.1367" lon="7.08811">
        <ele>1143.4</ele>
        <time>2021-08-05T10:48:56Z</time>
      </trkpt>
      <trkpt lat="48.1367" lon="7.08807">
        <ele>1143.4</ele>
        <time>2021-08-05T10:48:58Z</time>
      </trkpt>
      <trkpt lat="48.13672" lon="7.08803">
        <ele>1142.7</ele>
        <time>2021-08-05T10:48:59Z</time>
      </trkpt>
      <trkpt lat="48.13675" lon="7.088">
        <ele>1142.5</ele>
        <time>2021-08-05T10:49:00Z</time>
      </trkpt>
      <trkpt lat="48.13676" lon="7.088">
        <ele>1142.6</ele>
        <time>2021-08-05T10:49:01Z</time>
      </trkpt>
      <trkpt lat="48.1368" lon="7.088">
        <ele>1142.2</ele>
        <time>2021-08-05T10:49:03Z</time>
      </trkpt>
      <trkpt lat="48.1368" lon="7.088">
        <ele>1142</ele>
        <time>2021-08-05T10:49:04Z</time>
      </trkpt>
      <trkpt lat="48.1368" lon="7.08801">
        <ele>1142.1</ele>
        <time>2021-08-05T10:49:06Z</time>
      </trkpt>
      <trkpt lat="48.1368" lon="7.08801">
        <ele>1142.1</ele>
        <time>2021-08-05T10:49:08Z</time>
      </trkpt>
      <trkpt lat="48.13681" lon="7.08801">
        <ele>1142.1</ele>
        <time>2021-08-05T10:49:09Z</time>
      </trkpt>
      <trkpt lat="48.13681" lon="7.08801">
        <ele>1142.2</ele>
        <time>2021-08-05T10:49:10Z</time>
      </trkpt>
      <trkpt lat="48.13681" lon="7.08801">
        <ele>1142.2</ele>
        <time>2021-08-05T10:49:12Z</time>
      </trkpt>
      <trkpt lat="48.13688" lon="7.08806">
        <ele>1142.2</ele>
        <time>2021-08-05T10:49:20Z</time>
      </trkpt>
      <trkpt lat="48.13689" lon="7.08807">
        <ele>1142</ele>
        <time>2021-08-05T10:49:21Z</time>
      </trkpt>
      <trkpt lat="48.1369" lon="7.08809">
        <ele>1142.5</ele>
        <time>2021-08-05T10:49:23Z</time>
      </trkpt>
      <trkpt lat="48.1369" lon="7.08811">
        <ele>1142.5</ele>
        <time>2021-08-05T10:49:24Z</time>
      </trkpt>
      <trkpt lat="48.13688" lon="7.08814">
        <ele>1143.2</ele>
        <time>2021-08-05T10:49:26Z</time>
      </trkpt>
      <trkpt lat="48.13687" lon="7.08815">
        <ele>1143.2</ele>
        <time>2021-08-05T10:49:27Z</time>
      </trkpt>
      <trkpt lat="48.13687" lon="7.08816">
        <ele>1143.7</ele>
        <time>2021-08-05T10:49:29Z</time>
      </trkpt>
      <trkpt lat="48.13686" lon="7.08817">
        <ele>1143.7</ele>
        <time>2021-08-05T10:49:30Z</time>
      </trkpt>
      <trkpt lat="48.13685" lon="7.08819">
        <ele>1143.8</ele>
        <time>2021-08-05T10:49:32Z</time>
      </trkpt>
      <trkpt lat="48.13685" lon="7.0882">
        <ele>1144</ele>
        <time>2021-08-05T10:49:33Z</time>
      </trkpt>
      <trkpt lat="48.13683" lon="7.0882">
        <ele>1144.4</ele>
        <time>2021-08-05T10:49:35Z</time>
      </trkpt>
      <trkpt lat="48.13682" lon="7.0882">
        <ele>1144.5</ele>
        <time>2021-08-05T10:49:36Z</time>
      </trkpt>
      <trkpt lat="48.1368" lon="7.08818">
        <ele>1144.2</ele>
        <time>2021-08-05T10:49:38Z</time>
      </trkpt>
      <trkpt lat="48.1368" lon="7.08817">
        <ele>1144.3</ele>
        <time>2021-08-05T10:49:39Z</time>
      </trkpt>
      <trkpt lat="48.13679" lon="7.08816">
        <ele>1144.1</ele>
        <time>2021-08-05T10:49:40Z</time>
      </trkpt>
      <trkpt lat="48.13679" lon="7.08815">
        <ele>1144.1</ele>
        <time>2021-08-05T10:49:42Z</time>
      </trkpt>
      <trkpt lat="48.13679" lon="7.08813">
        <ele>1144.1</ele>
        <time>2021-08-05T10:49:43Z</time>
      </trkpt>
      <trkpt lat="48.13679" lon="7.08812">
        <ele>1144.2</ele>
        <time>2021-08-05T10:49:44Z</time>
      </trkpt>
      <trkpt lat="48.13678" lon="7.08811">
        <ele>1144.2</ele>
        <time>2021-08-05T10:49:46Z</time>
      </trkpt>
      <trkpt lat="48.13678" lon="7.0881">
        <ele>1143.9</ele>
        <time>2021-08-05T10:49:54Z</time>
      </trkpt>
      <trkpt lat="48.13678" lon="7.08809">
        <ele>1143.9</ele>
        <time>2021-08-05T10:49:55Z</time>
      </trkpt>
      <trkpt lat="48.13677" lon="7.08805">
        <ele>1143.6</ele>
        <time>2021-08-05T10:49:57Z</time>
      </trkpt>
      <trkpt lat="48.13677" lon="7.08803">
        <ele>1143.6</ele>
        <time>2021-08-05T10:49:58Z</time>
      </trkpt>
      <trkpt lat="48.13676" lon="7.088">
        <ele>1143.7</ele>
        <time>2021-08-05T10:49:59Z</time>
      </trkpt>
      <trkpt lat="48.13676" lon="7.08798">
        <ele>1143.4</ele>
        <time>2021-08-05T10:50:00Z</time>
      </trkpt>
      <trkpt lat="48.13675" lon="7.08793">
        <ele>1143.2</ele>
        <time>2021-08-05T10:50:02Z</time>
      </trkpt>
      <trkpt lat="48.13675" lon="7.08786">
        <ele>1143</ele>
        <time>2021-08-05T10:50:03Z</time>
      </trkpt>
      <trkpt lat="48.13675" lon="7.08778">
        <ele>1142.7</ele>
        <time>2021-08-05T10:50:04Z</time>
      </trkpt>
      <trkpt lat="48.13673" lon="7.08771">
        <ele>1143</ele>
        <time>2021-08-05T10:50:06Z</time>
      </trkpt>
      <trkpt lat="48.13671" lon="7.08765">
        <ele>1143.1</ele>
        <time>2021-08-05T10:50:07Z</time>
      </trkpt>
      <trkpt lat="48.13671" lon="7.08759">
        <ele>1143.7</ele>
        <time>2021-08-05T10:50:08Z</time>
      </trkpt>
      <trkpt lat="48.1367" lon="7.08755">
        <ele>1143.7</ele>
        <time>2021-08-05T10:50:10Z</time>
      </trkpt>
      <trkpt lat="48.13668" lon="7.0875">
        <ele>1143.8</ele>
        <time>2021-08-05T10:50:11Z</time>
      </trkpt>
      <trkpt lat="48.13668" lon="7.08747">
        <ele>1144.4</ele>
        <time>2021-08-05T10:50:12Z</time>
      </trkpt>
      <trkpt lat="48.13666" lon="7.08744">
        <ele>1144.5</ele>
        <time>2021-08-05T10:50:14Z</time>
      </trkpt>
      <trkpt lat="48.13666" lon="7.0874">
        <ele>1144.6</ele>
        <time>2021-08-05T10:50:15Z</time>
      </trkpt>
      <trkpt lat="48.13666" lon="7.08738">
        <ele>1144.7</ele>
        <time>2021-08-05T10:50:16Z</time>
      </trkpt>
      <trkpt lat="48.13667" lon="7.08732">
        <ele>1144.7</ele>
        <time>2021-08-05T10:50:18Z</time>
      </trkpt>
      <trkpt lat="48.13667" lon="7.0873">
        <ele>1144.8</ele>
        <time>2021-08-05T10:50:19Z</time>
      </trkpt>
      <trkpt lat="48.13668" lon="7.08723">
        <ele>1144.9</ele>
        <time>2021-08-05T10:50:20Z</time>
      </trkpt>
      <trkpt lat="48.13669" lon="7.08715">
        <ele>1145.1</ele>
        <time>2021-08-05T10:50:22Z</time>
      </trkpt>
      <trkpt lat="48.1367" lon="7.0871">
        <ele>1145.2</ele>
        <time>2021-08-05T10:50:23Z</time>
      </trkpt>
      <trkpt lat="48.1367" lon="7.08703">
        <ele>1145.3</ele>
        <time>2021-08-05T10:50:25Z</time>
      </trkpt>
      <trkpt lat="48.13672" lon="7.08698">
        <ele>1145.4</ele>
        <time>2021-08-05T10:50:26Z</time>
      </trkpt>
      <trkpt lat="48.13673" lon="7.08692">
        <ele>1145.5</ele>
        <time>2021-08-05T10:50:27Z</time>
      </trkpt>
      <trkpt lat="48.13675" lon="7.08686">
        <ele>1145.6</ele>
        <time>2021-08-05T10:50:29Z</time>
      </trkpt>
      <trkpt lat="48.13675" lon="7.08683">
        <ele>1145.7</ele>
        <time>2021-08-05T10:50:30Z</time>
      </trkpt>
      <trkpt lat="48.13676" lon="7.08677">
        <ele>1145.8</ele>
        <time>2021-08-05T10:50:32Z</time>
      </trkpt>
      <trkpt lat="48.13676" lon="7.08671">
        <ele>1145.9</ele>
        <time>2021-08-05T10:50:33Z</time>
      </trkpt>
      <trkpt lat="48.13676" lon="7.08665">
        <ele>1146</ele>
        <time>2021-08-05T10:50:34Z</time>
      </trkpt>
      <trkpt lat="48.13677" lon="7.08659">
        <ele>1146.2</ele>
        <time>2021-08-05T10:50:36Z</time>
      </trkpt>
      <trkpt lat="48.13679" lon="7.08649">
        <ele>1146.4</ele>
        <time>2021-08-05T10:50:38Z</time>
      </trkpt>
      <trkpt lat="48.13679" lon="7.08644">
        <ele>1146.5</ele>
        <time>2021-08-05T10:50:39Z</time>
      </trkpt>
      <trkpt lat="48.13679" lon="7.08642">
        <ele>1146.5</ele>
        <time>2021-08-05T10:50:40Z</time>
      </trkpt>
      <trkpt lat="48.1368" lon="7.08639">
        <ele>1146.6</ele>
        <time>2021-08-05T10:50:42Z</time>
      </trkpt>
      <trkpt lat="48.1368" lon="7.08637">
        <ele>1146.6</ele>
        <time>2021-08-05T10:50:43Z</time>
      </trkpt>
      <trkpt lat="48.1368" lon="7.08635">
        <ele>1146.7</ele>
        <time>2021-08-05T10:50:44Z</time>
      </trkpt>
      <trkpt lat="48.13679" lon="7.0863">
        <ele>1146.8</ele>
        <time>2021-08-05T10:50:45Z</time>
      </trkpt>
      <trkpt lat="48.13679" lon="7.08628">
        <ele>1146.8</ele>
        <time>2021-08-05T10:50:46Z</time>
      </trkpt>
      <trkpt lat="48.13678" lon="7.08623">
        <ele>1147</ele>
        <time>2021-08-05T10:50:48Z</time>
      </trkpt>
      <trkpt lat="48.13677" lon="7.0862">
        <ele>1147</ele>
        <time>2021-08-05T10:50:49Z</time>
      </trkpt>
      <trkpt lat="48.13677" lon="7.08617">
        <ele>1147.1</ele>
        <time>2021-08-05T10:50:50Z</time>
      </trkpt>
      <trkpt lat="48.13677" lon="7.08615">
        <ele>1147.2</ele>
        <time>2021-08-05T10:50:52Z</time>
      </trkpt>
      <trkpt lat="48.13676" lon="7.0861">
        <ele>1147.3</ele>
        <time>2021-08-05T10:50:53Z</time>
      </trkpt>
      <trkpt lat="48.13676" lon="7.08608">
        <ele>1147.3</ele>
        <time>2021-08-05T10:50:54Z</time>
      </trkpt>
      <trkpt lat="48.13676" lon="7.08601">
        <ele>1147.5</ele>
        <time>2021-08-05T10:50:56Z</time>
      </trkpt>
      <trkpt lat="48.13676" lon="7.08596">
        <ele>1147.6</ele>
        <time>2021-08-05T10:50:57Z</time>
      </trkpt>
      <trkpt lat="48.13674" lon="7.08592">
        <ele>1147.7</ele>
        <time>2021-08-05T10:50:58Z</time>
      </trkpt>
      <trkpt lat="48.13673" lon="7.0859">
        <ele>1147.8</ele>
        <time>2021-08-05T10:50:59Z</time>
      </trkpt>
      <trkpt lat="48.13671" lon="7.08587">
        <ele>1147.9</ele>
        <time>2021-08-05T10:51:00Z</time>
      </trkpt>
      <trkpt lat="48.13669" lon="7.08583">
        <ele>1148</ele>
        <time>2021-08-05T10:51:01Z</time>
      </trkpt>
      <trkpt lat="48.13667" lon="7.08578">
        <ele>1148.1</ele>
        <time>2021-08-05T10:51:03Z</time>
      </trkpt>
      <trkpt lat="48.13666" lon="7.08577">
        <ele>1148.1</ele>
        <time>2021-08-05T10:51:04Z</time>
      </trkpt>
      <trkpt lat="48.13665" lon="7.08574">
        <ele>1148.2</ele>
        <time>2021-08-05T10:51:05Z</time>
      </trkpt>
      <trkpt lat="48.13664" lon="7.08572">
        <ele>1148.2</ele>
        <time>2021-08-05T10:51:06Z</time>
      </trkpt>
      <trkpt lat="48.13664" lon="7.0857">
        <ele>1148.3</ele>
        <time>2021-08-05T10:51:08Z</time>
      </trkpt>
      <trkpt lat="48.13665" lon="7.0857">
        <ele>1148.3</ele>
        <time>2021-08-05T10:51:09Z</time>
      </trkpt>
      <trkpt lat="48.13665" lon="7.0857">
        <ele>1148.3</ele>
        <time>2021-08-05T10:51:10Z</time>
      </trkpt>
      <trkpt lat="48.13665" lon="7.0857">
        <ele>1148.3</ele>
        <time>2021-08-05T10:51:11Z</time>
      </trkpt>
      <trkpt lat="48.13666" lon="7.0857">
        <ele>1148.3</ele>
        <time>2021-08-05T10:51:13Z</time>
      </trkpt>
      <trkpt lat="48.13666" lon="7.0857">
        <ele>1148.3</ele>
        <time>2021-08-05T10:51:14Z</time>
      </trkpt>
      <trkpt lat="48.13668" lon="7.08569">
        <ele>1148.4</ele>
        <time>2021-08-05T10:51:16Z</time>
      </trkpt>
      <trkpt lat="48.13673" lon="7.08568">
        <ele>1148.6</ele>
        <time>2021-08-05T10:51:18Z</time>
      </trkpt>
      <trkpt lat="48.13676" lon="7.08568">
        <ele>1148.7</ele>
        <time>2021-08-05T10:51:19Z</time>
      </trkpt>
      <trkpt lat="48.13678" lon="7.08567">
        <ele>1148.7</ele>
        <time>2021-08-05T10:51:21Z</time>
      </trkpt>
      <trkpt lat="48.13679" lon="7.08566">
        <ele>1148.8</ele>
        <time>2021-08-05T10:51:22Z</time>
      </trkpt>
      <trkpt lat="48.13681" lon="7.08566">
        <ele>1148.8</ele>
        <time>2021-08-05T10:51:24Z</time>
      </trkpt>
      <trkpt lat="48.13683" lon="7.08566">
        <ele>1148.8</ele>
        <time>2021-08-05T10:51:26Z</time>
      </trkpt>
      <trkpt lat="48.13684" lon="7.08567">
        <ele>1148.8</ele>
        <time>2021-08-05T10:51:28Z</time>
      </trkpt>
      <trkpt lat="48.13684" lon="7.08567">
        <ele>1148.8</ele>
        <time>2021-08-05T10:51:29Z</time>
      </trkpt>
      <trkpt lat="48.13685" lon="7.08567">
        <ele>1148.8</ele>
        <time>2021-08-05T10:51:31Z</time>
      </trkpt>
      <trkpt lat="48.13685" lon="7.08567">
        <ele>1148.7</ele>
        <time>2021-08-05T10:51:32Z</time>
      </trkpt>
      <trkpt lat="48.13685" lon="7.08568">
        <ele>1148.7</ele>
        <time>2021-08-05T10:51:33Z</time>
      </trkpt>
      <trkpt lat="48.13686" lon="7.08568">
        <ele>1148.7</ele>
        <time>2021-08-05T10:51:35Z</time>
      </trkpt>
      <trkpt lat="48.13686" lon="7.08568">
        <ele>1148.7</ele>
        <time>2021-08-05T10:51:36Z</time>
      </trkpt>
      <trkpt lat="48.13686" lon="7.08568">
        <ele>1148.7</ele>
        <time>2021-08-05T10:51:37Z</time>
      </trkpt>
      <trkpt lat="48.13686" lon="7.08568">
        <ele>1148.7</ele>
        <time>2021-08-05T10:51:38Z</time>
      </trkpt>
      <trkpt lat="48.13686" lon="7.08567">
        <ele>1148.7</ele>
        <time>2021-08-05T10:51:39Z</time>
      </trkpt>
      <trkpt lat="48.13686" lon="7.08567">
        <ele>1148.7</ele>
        <time>2021-08-05T10:51:41Z</time>
      </trkpt>
      <trkpt lat="48.13685" lon="7.08567">
        <ele>1148.7</ele>
        <time>2021-08-05T10:51:42Z</time>
      </trkpt>
      <trkpt lat="48.13685" lon="7.08567">
        <ele>1148.7</ele>
        <time>2021-08-05T10:51:44Z</time>
      </trkpt>
      <trkpt lat="48.13685" lon="7.08567">
        <ele>1148.7</ele>
        <time>2021-08-05T10:51:46Z</time>
      </trkpt>
      <trkpt lat="48.13685" lon="7.08567">
        <ele>1148.7</ele>
        <time>2021-08-05T10:51:48Z</time>
      </trkpt>
      <trkpt lat="48.13685" lon="7.08567">
        <ele>1148.7</ele>
        <time>2021-08-05T10:51:50Z</time>
      </trkpt>
      <trkpt lat="48.13685" lon="7.08568">
        <ele>1148.7</ele>
        <time>2021-08-05T10:51:51Z</time>
      </trkpt>
      <trkpt lat="48.13685" lon="7.08568">
        <ele>1148.7</ele>
        <time>2021-08-05T10:51:53Z</time>
      </trkpt>
      <trkpt lat="48.13685" lon="7.08568">
        <ele>1148.7</ele>
        <time>2021-08-05T10:51:54Z</time>
      </trkpt>
      <trkpt lat="48.13685" lon="7.08568">
        <ele>1148.7</ele>
        <time>2021-08-05T10:51:56Z</time>
      </trkpt>
      <trkpt lat="48.13685" lon="7.08568">
        <ele>1148.7</ele>
        <time>2021-08-05T10:51:58Z</time>
      </trkpt>
      <trkpt lat="48.13685" lon="7.08568">
        <ele>1148.7</ele>
        <time>2021-08-05T10:52:00Z</time>
      </trkpt>
      <trkpt lat="48.13685" lon="7.08568">
        <ele>1148.7</ele>
        <time>2021-08-05T10:52:02Z</time>
      </trkpt>
      <trkpt lat="48.13685" lon="7.08568">
        <ele>1148.6</ele>
        <time>2021-08-05T10:52:04Z</time>
      </trkpt>
      <trkpt lat="48.13685" lon="7.08568">
        <ele>1148.6</ele>
        <time>2021-08-05T10:52:06Z</time>
      </trkpt>
      <trkpt lat="48.13685" lon="7.08568">
        <ele>1148.6</ele>
        <time>2021-08-05T10:52:07Z</time>
      </trkpt>
      <trkpt lat="48.13685" lon="7.08568">
        <ele>1148.6</ele>
        <time>2021-08-05T10:52:08Z</time>
      </trkpt>
      <trkpt lat="48.13685" lon="7.08568">
        <ele>1148.6</ele>
        <time>2021-08-05T10:52:10Z</time>
      </trkpt>
      <trkpt lat="48.13685" lon="7.08568">
        <ele>1148.6</ele>
        <time>2021-08-05T10:52:11Z</time>
      </trkpt>
      <trkpt lat="48.13685" lon="7.08568">
        <ele>1148.6</ele>
        <time>2021-08-05T10:52:12Z</time>
      </trkpt>
      <trkpt lat="48.13685" lon="7.08568">
        <ele>1148.6</ele>
        <time>2021-08-05T10:52:13Z</time>
      </trkpt>
      <trkpt lat="48.13685" lon="7.08568">
        <ele>1148.6</ele>
        <time>2021-08-05T10:52:15Z</time>
      </trkpt>
      <trkpt lat="48.13685" lon="7.08568">
        <ele>1148.6</ele>
        <time>2021-08-05T10:52:17Z</time>
      </trkpt>
      <trkpt lat="48.13685" lon="7.08568">
        <ele>1148.6</ele>
        <time>2021-08-05T10:52:18Z</time>
      </trkpt>
      <trkpt lat="48.13685" lon="7.08568">
        <ele>1148.6</ele>
        <time>2021-08-05T10:52:19Z</time>
      </trkpt>
      <trkpt lat="48.13685" lon="7.08568">
        <ele>1148.6</ele>
        <time>2021-08-05T10:52:21Z</time>
      </trkpt>
      <trkpt lat="48.13685" lon="7.08568">
        <ele>1148.6</ele>
        <time>2021-08-05T10:52:23Z</time>
      </trkpt>
      <trkpt lat="48.13685" lon="7.08568">
        <ele>1148.6</ele>
        <time>2021-08-05T10:52:24Z</time>
      </trkpt>
      <trkpt lat="48.13685" lon="7.08568">
        <ele>1148.6</ele>
        <time>2021-08-05T10:52:26Z</time>
      </trkpt>
      <trkpt lat="48.13685" lon="7.08568">
        <ele>1148.6</ele>
        <time>2021-08-05T10:52:27Z</time>
      </trkpt>
      <trkpt lat="48.13685" lon="7.08568">
        <ele>1148.6</ele>
        <time>2021-08-05T10:52:29Z</time>
      </trkpt>
      <trkpt lat="48.13685" lon="7.08568">
        <ele>1148.6</ele>
        <time>2021-08-05T10:52:30Z</time>
      </trkpt>
      <trkpt lat="48.13685" lon="7.08568">
        <ele>1148.6</ele>
        <time>2021-08-05T10:52:31Z</time>
      </trkpt>
      <trkpt lat="48.13686" lon="7.08567">
        <ele>1148.6</ele>
        <time>2021-08-05T10:52:32Z</time>
      </trkpt>
      <trkpt lat="48.13686" lon="7.08567">
        <ele>1148.6</ele>
        <time>2021-08-05T10:52:34Z</time>
      </trkpt>
      <trkpt lat="48.13686" lon="7.08567">
        <ele>1148.6</ele>
        <time>2021-08-05T10:52:36Z</time>
      </trkpt>
      <trkpt lat="48.13686" lon="7.08567">
        <ele>1148.6</ele>
        <time>2021-08-05T10:52:37Z</time>
      </trkpt>
      <trkpt lat="48.13686" lon="7.08567">
        <ele>1148.6</ele>
        <time>2021-08-05T10:52:38Z</time>
      </trkpt>
      <trkpt lat="48.13686" lon="7.08567">
        <ele>1148.6</ele>
        <time>2021-08-05T10:52:40Z</time>
      </trkpt>
      <trkpt lat="48.13686" lon="7.08567">
        <ele>1148.6</ele>
        <time>2021-08-05T10:52:42Z</time>
      </trkpt>
      <trkpt lat="48.13686" lon="7.08567">
        <ele>1148.6</ele>
        <time>2021-08-05T10:52:43Z</time>
      </trkpt>
      <trkpt lat="48.13686" lon="7.08567">
        <ele>1148.6</ele>
        <time>2021-08-05T10:52:45Z</time>
      </trkpt>
      <trkpt lat="48.13686" lon="7.08567">
        <ele>1148.6</ele>
        <time>2021-08-05T10:52:47Z</time>
      </trkpt>
      <trkpt lat="48.13686" lon="7.08567">
        <ele>1148.6</ele>
        <time>2021-08-05T10:52:49Z</time>
      </trkpt>
      <trkpt lat="48.13686" lon="7.08567">
        <ele>1148.6</ele>
        <time>2021-08-05T10:52:50Z</time>
      </trkpt>
      <trkpt lat="48.13686" lon="7.08567">
        <ele>1148.6</ele>
        <time>2021-08-05T10:52:52Z</time>
      </trkpt>
      <trkpt lat="48.13686" lon="7.08567">
        <ele>1148.6</ele>
        <time>2021-08-05T10:52:53Z</time>
      </trkpt>
      <trkpt lat="48.13686" lon="7.08567">
        <ele>1148.6</ele>
        <time>2021-08-05T10:52:54Z</time>
      </trkpt>
      <trkpt lat="48.13686" lon="7.08567">
        <ele>1148.6</ele>
        <time>2021-08-05T10:52:56Z</time>
      </trkpt>
      <trkpt lat="48.13686" lon="7.08567">
        <ele>1148.6</ele>
        <time>2021-08-05T10:52:57Z</time>
      </trkpt>
      <trkpt lat="48.13686" lon="7.08567">
        <ele>1148.6</ele>
        <time>2021-08-05T10:52:58Z</time>
      </trkpt>
      <trkpt lat="48.13686" lon="7.08567">
        <ele>1148.6</ele>
        <time>2021-08-05T10:52:59Z</time>
      </trkpt>
      <trkpt lat="48.13686" lon="7.08567">
        <ele>1148.6</ele>
        <time>2021-08-05T10:53:00Z</time>
      </trkpt>
      <trkpt lat="48.13686" lon="7.08567">
        <ele>1148.6</ele>
        <time>2021-08-05T10:53:02Z</time>
      </trkpt>
      <trkpt lat="48.13686" lon="7.08567">
        <ele>1148.6</ele>
        <time>2021-08-05T10:53:04Z</time>
      </trkpt>
      <trkpt lat="48.13686" lon="7.08567">
        <ele>1148.6</ele>
        <time>2021-08-05T10:53:05Z</time>
      </trkpt>
      <trkpt lat="48.13686" lon="7.08567">
        <ele>1148.6</ele>
        <time>2021-08-05T10:53:06Z</time>
      </trkpt>
      <trkpt lat="48.13686" lon="7.08567">
        <ele>1148.6</ele>
        <time>2021-08-05T10:53:08Z</time>
      </trkpt>
      <trkpt lat="48.13686" lon="7.08567">
        <ele>1148.6</ele>
        <time>2021-08-05T10:53:09Z</time>
      </trkpt>
      <trkpt lat="48.13686" lon="7.08567">
        <ele>1148.6</ele>
        <time>2021-08-05T10:53:11Z</time>
      </trkpt>
      <trkpt lat="48.13686" lon="7.08567">
        <ele>1148.6</ele>
        <time>2021-08-05T10:53:13Z</time>
      </trkpt>
      <trkpt lat="48.13686" lon="7.08567">
        <ele>1148.6</ele>
        <time>2021-08-05T10:53:14Z</time>
      </trkpt>
      <trkpt lat="48.13686" lon="7.08567">
        <ele>1148.6</ele>
        <time>2021-08-05T10:53:15Z</time>
      </trkpt>
      <trkpt lat="48.13686" lon="7.08567">
        <ele>1148.6</ele>
        <time>2021-08-05T10:53:17Z</time>
      </trkpt>
      <trkpt lat="48.13686" lon="7.08567">
        <ele>1148.6</ele>
        <time>2021-08-05T10:53:18Z</time>
      </trkpt>
      <trkpt lat="48.13686" lon="7.08567">
        <ele>1148.6</ele>
        <time>2021-08-05T10:53:20Z</time>
      </trkpt>
      <trkpt lat="48.13686" lon="7.08567">
        <ele>1148.6</ele>
        <time>2021-08-05T10:53:21Z</time>
      </trkpt>
      <trkpt lat="48.13686" lon="7.08567">
        <ele>1148.6</ele>
        <time>2021-08-05T10:53:23Z</time>
      </trkpt>
      <trkpt lat="48.13686" lon="7.08567">
        <ele>1148.6</ele>
        <time>2021-08-05T10:53:24Z</time>
      </trkpt>
      <trkpt lat="48.13685" lon="7.08569">
        <ele>1148.5</ele>
        <time>2021-08-05T10:53:25Z</time>
      </trkpt>
      <trkpt lat="48.13685" lon="7.08573">
        <ele>1148.5</ele>
        <time>2021-08-05T10:53:27Z</time>
      </trkpt>
      <trkpt lat="48.13684" lon="7.08576">
        <ele>1148.4</ele>
        <time>2021-08-05T10:53:29Z</time>
      </trkpt>
      <trkpt lat="48.13684" lon="7.08576">
        <ele>1148.4</ele>
        <time>2021-08-05T10:53:30Z</time>
      </trkpt>
      <trkpt lat="48.13684" lon="7.08577">
        <ele>1148.4</ele>
        <time>2021-08-05T10:53:31Z</time>
      </trkpt>
      <trkpt lat="48.13684" lon="7.08579">
        <ele>1148.4</ele>
        <time>2021-08-05T10:53:33Z</time>
      </trkpt>
      <trkpt lat="48.13684" lon="7.0858">
        <ele>1148.3</ele>
        <time>2021-08-05T10:53:35Z</time>
      </trkpt>
      <trkpt lat="48.13684" lon="7.0858">
        <ele>1148.3</ele>
        <time>2021-08-05T10:53:36Z</time>
      </trkpt>
      <trkpt lat="48.13684" lon="7.08581">
        <ele>1148.3</ele>
        <time>2021-08-05T10:53:38Z</time>
      </trkpt>
      <trkpt lat="48.13684" lon="7.08581">
        <ele>1148.3</ele>
        <time>2021-08-05T10:53:39Z</time>
      </trkpt>
      <trkpt lat="48.13685" lon="7.08581">
        <ele>1148.3</ele>
        <time>2021-08-05T10:53:40Z</time>
      </trkpt>
      <trkpt lat="48.13685" lon="7.08582">
        <ele>1148.3</ele>
        <time>2021-08-05T10:53:41Z</time>
      </trkpt>
      <trkpt lat="48.13685" lon="7.08583">
        <ele>1148.3</ele>
        <time>2021-08-05T10:53:43Z</time>
      </trkpt>
      <trkpt lat="48.13685" lon="7.08583">
        <ele>1148.3</ele>
        <time>2021-08-05T10:53:44Z</time>
      </trkpt>
      <trkpt lat="48.13685" lon="7.08583">
        <ele>1148.3</ele>
        <time>2021-08-05T10:53:45Z</time>
      </trkpt>
      <trkpt lat="48.13685" lon="7.08584">
        <ele>1148.2</ele>
        <time>2021-08-05T10:53:47Z</time>
      </trkpt>
      <trkpt lat="48.13685" lon="7.08584">
        <ele>1148.2</ele>
        <time>2021-08-05T10:53:48Z</time>
      </trkpt>
      <trkpt lat="48.13684" lon="7.08585">
        <ele>1148.2</ele>
        <time>2021-08-05T10:53:50Z</time>
      </trkpt>
      <trkpt lat="48.13684" lon="7.08585">
        <ele>1148.2</ele>
        <time>2021-08-05T10:53:51Z</time>
      </trkpt>
      <trkpt lat="48.13684" lon="7.08585">
        <ele>1148.2</ele>
        <time>2021-08-05T10:53:53Z</time>
      </trkpt>
      <trkpt lat="48.13684" lon="7.08585">
        <ele>1148.2</ele>
        <time>2021-08-05T10:53:54Z</time>
      </trkpt>
      <trkpt lat="48.13684" lon="7.08585">
        <ele>1148.2</ele>
        <time>2021-08-05T10:53:55Z</time>
      </trkpt>
      <trkpt lat="48.13685" lon="7.08584">
        <ele>1148.2</ele>
        <time>2021-08-05T10:53:56Z</time>
      </trkpt>
      <trkpt lat="48.13685" lon="7.08584">
        <ele>1148.2</ele>
        <time>2021-08-05T10:53:59Z</time>
      </trkpt>
      <trkpt lat="48.13685" lon="7.08584">
        <ele>1148.2</ele>
        <time>2021-08-05T10:54:01Z</time>
      </trkpt>
      <trkpt lat="48.13684" lon="7.08584">
        <ele>1148.2</ele>
        <time>2021-08-05T10:54:02Z</time>
      </trkpt>
      <trkpt lat="48.13684" lon="7.08584">
        <ele>1148.2</ele>
        <time>2021-08-05T10:54:03Z</time>
      </trkpt>
      <trkpt lat="48.13684" lon="7.08584">
        <ele>1148.2</ele>
        <time>2021-08-05T10:54:05Z</time>
      </trkpt>
      <trkpt lat="48.13684" lon="7.08585">
        <ele>1148.2</ele>
        <time>2021-08-05T10:54:06Z</time>
      </trkpt>
      <trkpt lat="48.13684" lon="7.08585">
        <ele>1148.2</ele>
        <time>2021-08-05T10:54:08Z</time>
      </trkpt>
      <trkpt lat="48.13684" lon="7.08585">
        <ele>1148.2</ele>
        <time>2021-08-05T10:54:10Z</time>
      </trkpt>
      <trkpt lat="48.13684" lon="7.08585">
        <ele>1148.2</ele>
        <time>2021-08-05T10:54:11Z</time>
      </trkpt>
      <trkpt lat="48.13684" lon="7.08585">
        <ele>1148.2</ele>
        <time>2021-08-05T10:54:12Z</time>
      </trkpt>
      <trkpt lat="48.13684" lon="7.08585">
        <ele>1148.2</ele>
        <time>2021-08-05T10:54:14Z</time>
      </trkpt>
      <trkpt lat="48.13684" lon="7.08585">
        <ele>1148.2</ele>
        <time>2021-08-05T10:54:16Z</time>
      </trkpt>
      <trkpt lat="48.13684" lon="7.08585">
        <ele>1148.2</ele>
        <time>2021-08-05T10:54:17Z</time>
      </trkpt>
      <trkpt lat="48.13684" lon="7.08585">
        <ele>1148.2</ele>
        <time>2021-08-05T10:54:18Z</time>
      </trkpt>
      <trkpt lat="48.13684" lon="7.08585">
        <ele>1148.2</ele>
        <time>2021-08-05T10:54:20Z</time>
      </trkpt>
      <trkpt lat="48.13684" lon="7.08585">
        <ele>1148.2</ele>
        <time>2021-08-05T10:54:21Z</time>
      </trkpt>
      <trkpt lat="48.13684" lon="7.08585">
        <ele>1148.2</ele>
        <time>2021-08-05T10:54:22Z</time>
      </trkpt>
      <trkpt lat="48.13685" lon="7.08585">
        <ele>1148.2</ele>
        <time>2021-08-05T10:54:23Z</time>
      </trkpt>
      <trkpt lat="48.13685" lon="7.08585">
        <ele>1148.2</ele>
        <time>2021-08-05T10:54:25Z</time>
      </trkpt>
      <trkpt lat="48.13685" lon="7.08585">
        <ele>1148.2</ele>
        <time>2021-08-05T10:54:26Z</time>
      </trkpt>
      <trkpt lat="48.13685" lon="7.08585">
        <ele>1148.2</ele>
        <time>2021-08-05T10:54:28Z</time>
      </trkpt>
      <trkpt lat="48.13685" lon="7.08585">
        <ele>1148.2</ele>
        <time>2021-08-05T10:54:29Z</time>
      </trkpt>
      <trkpt lat="48.13685" lon="7.08585">
        <ele>1148.2</ele>
        <time>2021-08-05T10:54:30Z</time>
      </trkpt>
      <trkpt lat="48.13685" lon="7.08585">
        <ele>1148.2</ele>
        <time>2021-08-05T10:54:32Z</time>
      </trkpt>
      <trkpt lat="48.13684" lon="7.08584">
        <ele>1148.1</ele>
        <time>2021-08-05T10:54:34Z</time>
      </trkpt>
      <trkpt lat="48.13684" lon="7.08581">
        <ele>1148.1</ele>
        <time>2021-08-05T10:54:36Z</time>
      </trkpt>
      <trkpt lat="48.13683" lon="7.08578">
        <ele>1148</ele>
        <time>2021-08-05T10:54:37Z</time>
      </trkpt>
      <trkpt lat="48.13682" lon="7.08579">
        <ele>1148</ele>
        <time>2021-08-05T10:54:39Z</time>
      </trkpt>
      <trkpt lat="48.13682" lon="7.08581">
        <ele>1147.9</ele>
        <time>2021-08-05T10:54:40Z</time>
      </trkpt>
      <trkpt lat="48.13681" lon="7.08584">
        <ele>1147.9</ele>
        <time>2021-08-05T10:54:41Z</time>
      </trkpt>
      <trkpt lat="48.13681" lon="7.08586">
        <ele>1147.8</ele>
        <time>2021-08-05T10:54:43Z</time>
      </trkpt>
      <trkpt lat="48.1368" lon="7.08589">
        <ele>1147.8</ele>
        <time>2021-08-05T10:54:45Z</time>
      </trkpt>
      <trkpt lat="48.13679" lon="7.08591">
        <ele>1147.7</ele>
        <time>2021-08-05T10:54:47Z</time>
      </trkpt>
      <trkpt lat="48.13679" lon="7.08594">
        <ele>1147.7</ele>
        <time>2021-08-05T10:54:48Z</time>
      </trkpt>
      <trkpt lat="48.13678" lon="7.08596">
        <ele>1147.6</ele>
        <time>2021-08-05T10:54:50Z</time>
      </trkpt>
      <trkpt lat="48.13677" lon="7.08598">
        <ele>1147.6</ele>
        <time>2021-08-05T10:54:51Z</time>
      </trkpt>
      <trkpt lat="48.13677" lon="7.08601">
        <ele>1147.5</ele>
        <time>2021-08-05T11:02:17Z</time>
      </trkpt>
      <trkpt lat="48.13676" lon="7.08603">
        <ele>1147.5</ele>
        <time>2021-08-05T11:02:18Z</time>
      </trkpt>
      <trkpt lat="48.13675" lon="7.08606">
        <ele>1147.4</ele>
        <time>2021-08-05T11:02:19Z</time>
      </trkpt>
      <trkpt lat="48.13676" lon="7.0861">
        <ele>1147.3</ele>
        <time>2021-08-05T11:02:20Z</time>
      </trkpt>
      <trkpt lat="48.13677" lon="7.08612">
        <ele>1147.3</ele>
        <time>2021-08-05T11:02:22Z</time>
      </trkpt>
      <trkpt lat="48.13677" lon="7.08613">
        <ele>1147.2</ele>
        <time>2021-08-05T11:02:23Z</time>
      </trkpt>
      <trkpt lat="48.13677" lon="7.08614">
        <ele>1147.2</ele>
        <time>2021-08-05T11:02:25Z</time>
      </trkpt>
      <trkpt lat="48.13677" lon="7.08615">
        <ele>1147.2</ele>
        <time>2021-08-05T11:02:27Z</time>
      </trkpt>
      <trkpt lat="48.13677" lon="7.08615">
        <ele>1147.2</ele>
        <time>2021-08-05T11:02:29Z</time>
      </trkpt>
      <trkpt lat="48.13677" lon="7.08616">
        <ele>1147.2</ele>
        <time>2021-08-05T11:02:31Z</time>
      </trkpt>
      <trkpt lat="48.13677" lon="7.08616">
        <ele>1147.2</ele>
        <time>2021-08-05T11:02:33Z</time>
      </trkpt>
      <trkpt lat="48.13684" lon="7.08631">
        <ele>1146.8</ele>
        <time>2021-08-05T11:20:16Z</time>
      </trkpt>
      <trkpt lat="48.13683" lon="7.08633">
        <ele>1146.7</ele>
        <time>2021-08-05T11:20:18Z</time>
      </trkpt>
      <trkpt lat="48.13682" lon="7.08636">
        <ele>1146.6</ele>
        <time>2021-08-05T11:20:20Z</time>
      </trkpt>
      <trkpt lat="48.1368" lon="7.08646">
        <ele>1146.4</ele>
        <time>2021-08-05T11:20:21Z</time>
      </trkpt>
      <trkpt lat="48.13676" lon="7.08658">
        <ele>1146.2</ele>
        <time>2021-08-05T11:20:22Z</time>
      </trkpt>
      <trkpt lat="48.13673" lon="7.0867">
        <ele>1146</ele>
        <time>2021-08-05T11:20:24Z</time>
      </trkpt>
      <trkpt lat="48.13667" lon="7.08694">
        <ele>1145.4</ele>
        <time>2021-08-05T11:20:25Z</time>
      </trkpt>
      <trkpt lat="48.13667" lon="7.08701">
        <ele>1145.3</ele>
        <time>2021-08-05T11:20:26Z</time>
      </trkpt>
      <trkpt lat="48.13666" lon="7.08712">
        <ele>1145.1</ele>
        <time>2021-08-05T11:20:28Z</time>
      </trkpt>
      <trkpt lat="48.13665" lon="7.0872">
        <ele>1144.9</ele>
        <time>2021-08-05T11:20:30Z</time>
      </trkpt>
      <trkpt lat="48.13663" lon="7.08728">
        <ele>1144.8</ele>
        <time>2021-08-05T11:20:32Z</time>
      </trkpt>
      <trkpt lat="48.1366" lon="7.08737">
        <ele>1144.6</ele>
        <time>2021-08-05T11:20:34Z</time>
      </trkpt>
      <trkpt lat="48.13658" lon="7.08749">
        <ele>1144.4</ele>
        <time>2021-08-05T11:20:36Z</time>
      </trkpt>
      <trkpt lat="48.13655" lon="7.08761">
        <ele>1144.1</ele>
        <time>2021-08-05T11:20:38Z</time>
      </trkpt>
      <trkpt lat="48.13651" lon="7.08773">
        <ele>1143.9</ele>
        <time>2021-08-05T11:20:40Z</time>
      </trkpt>
      <trkpt lat="48.13649" lon="7.0878">
        <ele>1143.8</ele>
        <time>2021-08-05T11:20:41Z</time>
      </trkpt>
      <trkpt lat="48.13648" lon="7.08785">
        <ele>1143.7</ele>
        <time>2021-08-05T11:20:42Z</time>
      </trkpt>
      <trkpt lat="48.13644" lon="7.08797">
        <ele>1143.6</ele>
        <time>2021-08-05T11:20:44Z</time>
      </trkpt>
      <trkpt lat="48.13641" lon="7.08807">
        <ele>1143.5</ele>
        <time>2021-08-05T11:20:46Z</time>
      </trkpt>
      <trkpt lat="48.1364" lon="7.08812">
        <ele>1143.5</ele>
        <time>2021-08-05T11:20:47Z</time>
      </trkpt>
      <trkpt lat="48.13638" lon="7.08821">
        <ele>1143.7</ele>
        <time>2021-08-05T11:20:49Z</time>
      </trkpt>
      <trkpt lat="48.13637" lon="7.08825">
        <ele>1143.9</ele>
        <time>2021-08-05T11:20:50Z</time>
      </trkpt>
      <trkpt lat="48.13635" lon="7.08831">
        <ele>1144.1</ele>
        <time>2021-08-05T11:20:52Z</time>
      </trkpt>
      <trkpt lat="48.13633" lon="7.08835">
        <ele>1144.2</ele>
        <time>2021-08-05T11:20:53Z</time>
      </trkpt>
      <trkpt lat="48.13632" lon="7.08837">
        <ele>1144.3</ele>
        <time>2021-08-05T11:20:54Z</time>
      </trkpt>
      <trkpt lat="48.1363" lon="7.08841">
        <ele>1144.4</ele>
        <time>2021-08-05T11:20:56Z</time>
      </trkpt>
      <trkpt lat="48.13628" lon="7.08844">
        <ele>1144.6</ele>
        <time>2021-08-05T11:20:57Z</time>
      </trkpt>
      <trkpt lat="48.13627" lon="7.08846">
        <ele>1144.6</ele>
        <time>2021-08-05T11:20:59Z</time>
      </trkpt>
      <trkpt lat="48.13626" lon="7.08847">
        <ele>1144.7</ele>
        <time>2021-08-05T11:21:00Z</time>
      </trkpt>
      <trkpt lat="48.13625" lon="7.08849">
        <ele>1144.6</ele>
        <time>2021-08-05T11:21:01Z</time>
      </trkpt>
      <trkpt lat="48.13625" lon="7.08851">
        <ele>1144.6</ele>
        <time>2021-08-05T11:21:02Z</time>
      </trkpt>
      <trkpt lat="48.13625" lon="7.08853">
        <ele>1144.5</ele>
        <time>2021-08-05T11:21:04Z</time>
      </trkpt>
      <trkpt lat="48.13625" lon="7.08855">
        <ele>1144.5</ele>
        <time>2021-08-05T11:21:05Z</time>
      </trkpt>
      <trkpt lat="48.13624" lon="7.08857">
        <ele>1144.4</ele>
        <time>2021-08-05T11:21:06Z</time>
      </trkpt>
      <trkpt lat="48.13624" lon="7.08859">
        <ele>1144.5</ele>
        <time>2021-08-05T11:21:07Z</time>
      </trkpt>
      <trkpt lat="48.13624" lon="7.08861">
        <ele>1144.6</ele>
        <time>2021-08-05T11:21:36Z</time>
      </trkpt>
      <trkpt lat="48.13624" lon="7.08863">
        <ele>1144.6</ele>
        <time>2021-08-05T11:21:37Z</time>
      </trkpt>
      <trkpt lat="48.13627" lon="7.0887">
        <ele>1144.9</ele>
        <time>2021-08-05T11:21:39Z</time>
      </trkpt>
      <trkpt lat="48.1363" lon="7.08873">
        <ele>1145.1</ele>
        <time>2021-08-05T11:21:40Z</time>
      </trkpt>
      <trkpt lat="48.1363" lon="7.08873">
        <ele>1145.2</ele>
        <time>2021-08-05T11:21:41Z</time>
      </trkpt>
      <trkpt lat="48.13632" lon="7.08874">
        <ele>1145.3</ele>
        <time>2021-08-05T11:21:42Z</time>
      </trkpt>
      <trkpt lat="48.13635" lon="7.08876">
        <ele>1145.4</ele>
        <time>2021-08-05T11:21:44Z</time>
      </trkpt>
      <trkpt lat="48.13635" lon="7.08881">
        <ele>1145.6</ele>
        <time>2021-08-05T11:21:45Z</time>
      </trkpt>
      <trkpt lat="48.13635" lon="7.08886">
        <ele>1145.7</ele>
        <time>2021-08-05T11:21:46Z</time>
      </trkpt>
      <trkpt lat="48.13635" lon="7.08888">
        <ele>1145.8</ele>
        <time>2021-08-05T11:21:47Z</time>
      </trkpt>
      <trkpt lat="48.13635" lon="7.08894">
        <ele>1145.8</ele>
        <time>2021-08-05T11:21:49Z</time>
      </trkpt>
      <trkpt lat="48.13636" lon="7.089">
        <ele>1145.8</ele>
        <time>2021-08-05T11:21:50Z</time>
      </trkpt>
      <trkpt lat="48.13636" lon="7.08904">
        <ele>1145.8</ele>
        <time>2021-08-05T11:21:51Z</time>
      </trkpt>
      <trkpt lat="48.13637" lon="7.08912">
        <ele>1145.8</ele>
        <time>2021-08-05T11:21:53Z</time>
      </trkpt>
      <trkpt lat="48.13637" lon="7.0892">
        <ele>1145.8</ele>
        <time>2021-08-05T11:21:54Z</time>
      </trkpt>
      <trkpt lat="48.13638" lon="7.08926">
        <ele>1145.8</ele>
        <time>2021-08-05T11:21:55Z</time>
      </trkpt>
      <trkpt lat="48.13639" lon="7.08933">
        <ele>1145.9</ele>
        <time>2021-08-05T11:21:57Z</time>
      </trkpt>
      <trkpt lat="48.1364" lon="7.08943">
        <ele>1145.9</ele>
        <time>2021-08-05T11:21:58Z</time>
      </trkpt>
      <trkpt lat="48.13641" lon="7.0895">
        <ele>1146</ele>
        <time>2021-08-05T11:21:59Z</time>
      </trkpt>
      <trkpt lat="48.13642" lon="7.08957">
        <ele>1146.1</ele>
        <time>2021-08-05T11:22:00Z</time>
      </trkpt>
      <trkpt lat="48.13643" lon="7.08963">
        <ele>1146.1</ele>
        <time>2021-08-05T11:22:01Z</time>
      </trkpt>
      <trkpt lat="48.13643" lon="7.08974">
        <ele>1146.3</ele>
        <time>2021-08-05T11:22:03Z</time>
      </trkpt>
      <trkpt lat="48.13645" lon="7.08985">
        <ele>1146.4</ele>
        <time>2021-08-05T11:22:05Z</time>
      </trkpt>
      <trkpt lat="48.13645" lon="7.08992">
        <ele>1146.5</ele>
        <time>2021-08-05T11:22:06Z</time>
      </trkpt>
      <trkpt lat="48.13645" lon="7.09">
        <ele>1146.6</ele>
        <time>2021-08-05T11:22:08Z</time>
      </trkpt>
      <trkpt lat="48.13643" lon="7.09007">
        <ele>1146.7</ele>
        <time>2021-08-05T11:22:09Z</time>
      </trkpt>
      <trkpt lat="48.13641" lon="7.09011">
        <ele>1146.7</ele>
        <time>2021-08-05T11:22:10Z</time>
      </trkpt>
      <trkpt lat="48.1364" lon="7.09017">
        <ele>1146.8</ele>
        <time>2021-08-05T11:22:11Z</time>
      </trkpt>
      <trkpt lat="48.13639" lon="7.09028">
        <ele>1146.9</ele>
        <time>2021-08-05T11:22:13Z</time>
      </trkpt>
      <trkpt lat="48.13639" lon="7.09033">
        <ele>1146.9</ele>
        <time>2021-08-05T11:22:14Z</time>
      </trkpt>
      <trkpt lat="48.13638" lon="7.09039">
        <ele>1147</ele>
        <time>2021-08-05T11:22:15Z</time>
      </trkpt>
      <trkpt lat="48.13638" lon="7.09044">
        <ele>1147</ele>
        <time>2021-08-05T11:22:16Z</time>
      </trkpt>
      <trkpt lat="48.13638" lon="7.09048">
        <ele>1147.1</ele>
        <time>2021-08-05T11:22:17Z</time>
      </trkpt>
      <trkpt lat="48.13637" lon="7.09055">
        <ele>1147.2</ele>
        <time>2021-08-05T11:22:19Z</time>
      </trkpt>
      <trkpt lat="48.13637" lon="7.09061">
        <ele>1147.2</ele>
        <time>2021-08-05T11:22:20Z</time>
      </trkpt>
      <trkpt lat="48.13636" lon="7.09067">
        <ele>1147.3</ele>
        <time>2021-08-05T11:22:21Z</time>
      </trkpt>
      <trkpt lat="48.13637" lon="7.09073">
        <ele>1147.3</ele>
        <time>2021-08-05T11:22:22Z</time>
      </trkpt>
      <trkpt lat="48.13637" lon="7.0908">
        <ele>1147.4</ele>
        <time>2021-08-05T11:22:23Z</time>
      </trkpt>
      <trkpt lat="48.13638" lon="7.09091">
        <ele>1147.5</ele>
        <time>2021-08-05T11:22:25Z</time>
      </trkpt>
      <trkpt lat="48.13639" lon="7.09098">
        <ele>1147.6</ele>
        <time>2021-08-05T11:22:26Z</time>
      </trkpt>
      <trkpt lat="48.1364" lon="7.09104">
        <ele>1147.6</ele>
        <time>2021-08-05T11:22:27Z</time>
      </trkpt>
      <trkpt lat="48.13642" lon="7.09116">
        <ele>1147.7</ele>
        <time>2021-08-05T11:22:29Z</time>
      </trkpt>
      <trkpt lat="48.13642" lon="7.09126">
        <ele>1147.7</ele>
        <time>2021-08-05T11:22:31Z</time>
      </trkpt>
      <trkpt lat="48.13642" lon="7.09132">
        <ele>1147.8</ele>
        <time>2021-08-05T11:22:32Z</time>
      </trkpt>
      <trkpt lat="48.13642" lon="7.09138">
        <ele>1147.8</ele>
        <time>2021-08-05T11:22:33Z</time>
      </trkpt>
      <trkpt lat="48.13641" lon="7.09147">
        <ele>1147.8</ele>
        <time>2021-08-05T11:22:35Z</time>
      </trkpt>
      <trkpt lat="48.1364" lon="7.09154">
        <ele>1147.8</ele>
        <time>2021-08-05T11:22:36Z</time>
      </trkpt>
      <trkpt lat="48.1364" lon="7.0916">
        <ele>1147.8</ele>
        <time>2021-08-05T11:22:37Z</time>
      </trkpt>
      <trkpt lat="48.1364" lon="7.09171">
        <ele>1147.8</ele>
        <time>2021-08-05T11:22:39Z</time>
      </trkpt>
      <trkpt lat="48.1364" lon="7.09179">
        <ele>1147.8</ele>
        <time>2021-08-05T11:22:40Z</time>
      </trkpt>
      <trkpt lat="48.13641" lon="7.09186">
        <ele>1147.8</ele>
        <time>2021-08-05T11:22:41Z</time>
      </trkpt>
      <trkpt lat="48.13642" lon="7.09199">
        <ele>1147.8</ele>
        <time>2021-08-05T11:22:43Z</time>
      </trkpt>
      <trkpt lat="48.13644" lon="7.09208">
        <ele>1147.7</ele>
        <time>2021-08-05T11:22:44Z</time>
      </trkpt>
      <trkpt lat="48.13644" lon="7.09225">
        <ele>1147.5</ele>
        <time>2021-08-05T11:22:46Z</time>
      </trkpt>
      <trkpt lat="48.13644" lon="7.09233">
        <ele>1147.4</ele>
        <time>2021-08-05T11:22:47Z</time>
      </trkpt>
      <trkpt lat="48.13644" lon="7.09251">
        <ele>1147.1</ele>
        <time>2021-08-05T11:22:49Z</time>
      </trkpt>
      <trkpt lat="48.13645" lon="7.09269">
        <ele>1146.9</ele>
        <time>2021-08-05T11:22:51Z</time>
      </trkpt>
      <trkpt lat="48.13644" lon="7.09278">
        <ele>1146.8</ele>
        <time>2021-08-05T11:22:52Z</time>
      </trkpt>
      <trkpt lat="48.13643" lon="7.09296">
        <ele>1146.5</ele>
        <time>2021-08-05T11:22:54Z</time>
      </trkpt>
      <trkpt lat="48.13641" lon="7.09306">
        <ele>1146.4</ele>
        <time>2021-08-05T11:22:55Z</time>
      </trkpt>
      <trkpt lat="48.13638" lon="7.09323">
        <ele>1146.2</ele>
        <time>2021-08-05T11:22:57Z</time>
      </trkpt>
      <trkpt lat="48.13637" lon="7.09333">
        <ele>1146.1</ele>
        <time>2021-08-05T11:22:58Z</time>
      </trkpt>
      <trkpt lat="48.13635" lon="7.09343">
        <ele>1146</ele>
        <time>2021-08-05T11:22:59Z</time>
      </trkpt>
      <trkpt lat="48.13632" lon="7.09361">
        <ele>1145.9</ele>
        <time>2021-08-05T11:23:01Z</time>
      </trkpt>
      <trkpt lat="48.13628" lon="7.09378">
        <ele>1145.9</ele>
        <time>2021-08-05T11:23:03Z</time>
      </trkpt>
      <trkpt lat="48.13626" lon="7.09386">
        <ele>1146</ele>
        <time>2021-08-05T11:23:04Z</time>
      </trkpt>
      <trkpt lat="48.13623" lon="7.09402">
        <ele>1146.1</ele>
        <time>2021-08-05T11:23:06Z</time>
      </trkpt>
      <trkpt lat="48.13621" lon="7.0941">
        <ele>1146.1</ele>
        <time>2021-08-05T11:23:07Z</time>
      </trkpt>
      <trkpt lat="48.13617" lon="7.09426">
        <ele>1146.3</ele>
        <time>2021-08-05T11:23:09Z</time>
      </trkpt>
      <trkpt lat="48.13614" lon="7.09441">
        <ele>1146.6</ele>
        <time>2021-08-05T11:23:11Z</time>
      </trkpt>
      <trkpt lat="48.13613" lon="7.09448">
        <ele>1146.7</ele>
        <time>2021-08-05T11:23:12Z</time>
      </trkpt>
      <trkpt lat="48.13611" lon="7.09455">
        <ele>1146.8</ele>
        <time>2021-08-05T11:23:13Z</time>
      </trkpt>
      <trkpt lat="48.1361" lon="7.09466">
        <ele>1147</ele>
        <time>2021-08-05T11:23:15Z</time>
      </trkpt>
      <trkpt lat="48.1361" lon="7.09472">
        <ele>1147.1</ele>
        <time>2021-08-05T11:23:16Z</time>
      </trkpt>
      <trkpt lat="48.1361" lon="7.09479">
        <ele>1147.2</ele>
        <time>2021-08-05T11:23:17Z</time>
      </trkpt>
      <trkpt lat="48.13611" lon="7.0949">
        <ele>1147.4</ele>
        <time>2021-08-05T11:23:19Z</time>
      </trkpt>
      <trkpt lat="48.1361" lon="7.09505">
        <ele>1147.8</ele>
        <time>2021-08-05T11:23:21Z</time>
      </trkpt>
      <trkpt lat="48.13611" lon="7.09512">
        <ele>1147.9</ele>
        <time>2021-08-05T11:23:23Z</time>
      </trkpt>
      <trkpt lat="48.13611" lon="7.09519">
        <ele>1148.1</ele>
        <time>2021-08-05T11:23:24Z</time>
      </trkpt>
      <trkpt lat="48.13611" lon="7.09525">
        <ele>1148.2</ele>
        <time>2021-08-05T11:23:25Z</time>
      </trkpt>
      <trkpt lat="48.13611" lon="7.09535">
        <ele>1148.4</ele>
        <time>2021-08-05T11:23:27Z</time>
      </trkpt>
      <trkpt lat="48.13612" lon="7.09545">
        <ele>1148.5</ele>
        <time>2021-08-05T11:23:29Z</time>
      </trkpt>
      <trkpt lat="48.13613" lon="7.09554">
        <ele>1148.6</ele>
        <time>2021-08-05T11:23:30Z</time>
      </trkpt>
      <trkpt lat="48.13614" lon="7.0956">
        <ele>1148.7</ele>
        <time>2021-08-05T11:23:31Z</time>
      </trkpt>
      <trkpt lat="48.13615" lon="7.0957">
        <ele>1148.8</ele>
        <time>2021-08-05T11:23:33Z</time>
      </trkpt>
      <trkpt lat="48.13615" lon="7.09577">
        <ele>1148.9</ele>
        <time>2021-08-05T11:23:34Z</time>
      </trkpt>
      <trkpt lat="48.13617" lon="7.09588">
        <ele>1148.9</ele>
        <time>2021-08-05T11:23:35Z</time>
      </trkpt>
      <trkpt lat="48.13618" lon="7.09596">
        <ele>1148.8</ele>
        <time>2021-08-05T11:23:36Z</time>
      </trkpt>
      <trkpt lat="48.13619" lon="7.09603">
        <ele>1148.8</ele>
        <time>2021-08-05T11:23:37Z</time>
      </trkpt>
      <trkpt lat="48.13621" lon="7.09619">
        <ele>1148.6</ele>
        <time>2021-08-05T11:23:39Z</time>
      </trkpt>
      <trkpt lat="48.13623" lon="7.09626">
        <ele>1148.6</ele>
        <time>2021-08-05T11:23:40Z</time>
      </trkpt>
      <trkpt lat="48.13624" lon="7.09633">
        <ele>1148.5</ele>
        <time>2021-08-05T11:23:41Z</time>
      </trkpt>
      <trkpt lat="48.13627" lon="7.09648">
        <ele>1148.5</ele>
        <time>2021-08-05T11:23:43Z</time>
      </trkpt>
      <trkpt lat="48.13629" lon="7.09662">
        <ele>1148.5</ele>
        <time>2021-08-05T11:23:45Z</time>
      </trkpt>
      <trkpt lat="48.13631" lon="7.09667">
        <ele>1148.6</ele>
        <time>2021-08-05T11:23:46Z</time>
      </trkpt>
      <trkpt lat="48.13633" lon="7.09674">
        <ele>1148.7</ele>
        <time>2021-08-05T11:23:47Z</time>
      </trkpt>
      <trkpt lat="48.13634" lon="7.09678">
        <ele>1148.7</ele>
        <time>2021-08-05T11:23:48Z</time>
      </trkpt>
      <trkpt lat="48.13635" lon="7.09685">
        <ele>1148.8</ele>
        <time>2021-08-05T11:23:49Z</time>
      </trkpt>
      <trkpt lat="48.13633" lon="7.09697">
        <ele>1149</ele>
        <time>2021-08-05T11:23:51Z</time>
      </trkpt>
      <trkpt lat="48.13641" lon="7.09702">
        <ele>1149.1</ele>
        <time>2021-08-05T11:23:53Z</time>
      </trkpt>
      <trkpt lat="48.13643" lon="7.09707">
        <ele>1149.2</ele>
        <time>2021-08-05T11:23:54Z</time>
      </trkpt>
      <trkpt lat="48.13645" lon="7.09713">
        <ele>1149.3</ele>
        <time>2021-08-05T11:23:55Z</time>
      </trkpt>
      <trkpt lat="48.13647" lon="7.09719">
        <ele>1149.4</ele>
        <time>2021-08-05T11:23:56Z</time>
      </trkpt>
      <trkpt lat="48.13648" lon="7.09725">
        <ele>1149.5</ele>
        <time>2021-08-05T11:23:57Z</time>
      </trkpt>
      <trkpt lat="48.1365" lon="7.0973">
        <ele>1149.5</ele>
        <time>2021-08-05T11:23:58Z</time>
      </trkpt>
      <trkpt lat="48.13651" lon="7.09735">
        <ele>1149.6</ele>
        <time>2021-08-05T11:23:59Z</time>
      </trkpt>
      <trkpt lat="48.13653" lon="7.09741">
        <ele>1149.6</ele>
        <time>2021-08-05T11:24:01Z</time>
      </trkpt>
      <trkpt lat="48.13655" lon="7.09747">
        <ele>1149.6</ele>
        <time>2021-08-05T11:24:02Z</time>
      </trkpt>
      <trkpt lat="48.13656" lon="7.09752">
        <ele>1149.6</ele>
        <time>2021-08-05T11:24:03Z</time>
      </trkpt>
      <trkpt lat="48.13657" lon="7.09758">
        <ele>1149.6</ele>
        <time>2021-08-05T11:24:04Z</time>
      </trkpt>
      <trkpt lat="48.13659" lon="7.09768">
        <ele>1149.5</ele>
        <time>2021-08-05T11:24:05Z</time>
      </trkpt>
      <trkpt lat="48.13663" lon="7.09781">
        <ele>1149.4</ele>
        <time>2021-08-05T11:24:07Z</time>
      </trkpt>
      <trkpt lat="48.13668" lon="7.09793">
        <ele>1149.2</ele>
        <time>2021-08-05T11:24:09Z</time>
      </trkpt>
      <trkpt lat="48.13672" lon="7.09798">
        <ele>1149.1</ele>
        <time>2021-08-05T11:24:10Z</time>
      </trkpt>
      <trkpt lat="48.13676" lon="7.09803">
        <ele>1149</ele>
        <time>2021-08-05T11:24:11Z</time>
      </trkpt>
      <trkpt lat="48.13679" lon="7.09809">
        <ele>1149</ele>
        <time>2021-08-05T11:24:12Z</time>
      </trkpt>
      <trkpt lat="48.13682" lon="7.09815">
        <ele>1148.9</ele>
        <time>2021-08-05T11:24:13Z</time>
      </trkpt>
      <trkpt lat="48.13685" lon="7.0982">
        <ele>1148.9</ele>
        <time>2021-08-05T11:24:14Z</time>
      </trkpt>
      <trkpt lat="48.13689" lon="7.09831">
        <ele>1149</ele>
        <time>2021-08-05T11:24:16Z</time>
      </trkpt>
      <trkpt lat="48.13692" lon="7.09837">
        <ele>1149</ele>
        <time>2021-08-05T11:24:17Z</time>
      </trkpt>
      <trkpt lat="48.13695" lon="7.09843">
        <ele>1149</ele>
        <time>2021-08-05T11:24:19Z</time>
      </trkpt>
      <trkpt lat="48.13699" lon="7.09851">
        <ele>1149</ele>
        <time>2021-08-05T11:24:20Z</time>
      </trkpt>
      <trkpt lat="48.13702" lon="7.09858">
        <ele>1149</ele>
        <time>2021-08-05T11:24:22Z</time>
      </trkpt>
      <trkpt lat="48.13705" lon="7.09866">
        <ele>1148.9</ele>
        <time>2021-08-05T11:24:23Z</time>
      </trkpt>
      <trkpt lat="48.13707" lon="7.09874">
        <ele>1148.7</ele>
        <time>2021-08-05T11:24:24Z</time>
      </trkpt>
      <trkpt lat="48.13713" lon="7.09886">
        <ele>1148.3</ele>
        <time>2021-08-05T11:24:26Z</time>
      </trkpt>
      <trkpt lat="48.13719" lon="7.09902">
        <ele>1147.6</ele>
        <time>2021-08-05T11:24:28Z</time>
      </trkpt>
      <trkpt lat="48.13722" lon="7.09911">
        <ele>1147.2</ele>
        <time>2021-08-05T11:24:29Z</time>
      </trkpt>
      <trkpt lat="48.13728" lon="7.09931">
        <ele>1146.4</ele>
        <time>2021-08-05T11:24:31Z</time>
      </trkpt>
      <trkpt lat="48.13735" lon="7.0995">
        <ele>1145.8</ele>
        <time>2021-08-05T11:24:33Z</time>
      </trkpt>
      <trkpt lat="48.13743" lon="7.09968">
        <ele>1145.2</ele>
        <time>2021-08-05T11:24:35Z</time>
      </trkpt>
      <trkpt lat="48.13752" lon="7.09987">
        <ele>1144.6</ele>
        <time>2021-08-05T11:24:37Z</time>
      </trkpt>
      <trkpt lat="48.1376" lon="7.10006">
        <ele>1144.1</ele>
        <time>2021-08-05T11:24:39Z</time>
      </trkpt>
      <trkpt lat="48.13764" lon="7.10016">
        <ele>1143.8</ele>
        <time>2021-08-05T11:24:40Z</time>
      </trkpt>
      <trkpt lat="48.13768" lon="7.10026">
        <ele>1143.6</ele>
        <time>2021-08-05T11:24:41Z</time>
      </trkpt>
      <trkpt lat="48.13775" lon="7.10045">
        <ele>1143.5</ele>
        <time>2021-08-05T11:24:43Z</time>
      </trkpt>
      <trkpt lat="48.13777" lon="7.10063">
        <ele>1143.5</ele>
        <time>2021-08-05T11:24:45Z</time>
      </trkpt>
      <trkpt lat="48.13778" lon="7.10071">
        <ele>1143.5</ele>
        <time>2021-08-05T11:24:46Z</time>
      </trkpt>
      <trkpt lat="48.13779" lon="7.10086">
        <ele>1143.5</ele>
        <time>2021-08-05T11:24:48Z</time>
      </trkpt>
      <trkpt lat="48.1378" lon="7.10093">
        <ele>1143.4</ele>
        <time>2021-08-05T11:24:49Z</time>
      </trkpt>
      <trkpt lat="48.13783" lon="7.10108">
        <ele>1143.2</ele>
        <time>2021-08-05T11:24:51Z</time>
      </trkpt>
      <trkpt lat="48.13784" lon="7.10116">
        <ele>1143</ele>
        <time>2021-08-05T11:24:52Z</time>
      </trkpt>
      <trkpt lat="48.13786" lon="7.10124">
        <ele>1142.8</ele>
        <time>2021-08-05T11:24:53Z</time>
      </trkpt>
      <trkpt lat="48.13788" lon="7.10141">
        <ele>1142.4</ele>
        <time>2021-08-05T11:24:55Z</time>
      </trkpt>
      <trkpt lat="48.13789" lon="7.1015">
        <ele>1142.2</ele>
        <time>2021-08-05T11:24:56Z</time>
      </trkpt>
      <trkpt lat="48.13792" lon="7.10168">
        <ele>1141.5</ele>
        <time>2021-08-05T11:24:58Z</time>
      </trkpt>
      <trkpt lat="48.13796" lon="7.10186">
        <ele>1140.7</ele>
        <time>2021-08-05T11:25:00Z</time>
      </trkpt>
      <trkpt lat="48.13801" lon="7.10206">
        <ele>1139.8</ele>
        <time>2021-08-05T11:25:02Z</time>
      </trkpt>
      <trkpt lat="48.13806" lon="7.10231">
        <ele>1138.7</ele>
        <time>2021-08-05T11:25:04Z</time>
      </trkpt>
      <trkpt lat="48.13811" lon="7.10258">
        <ele>1138.1</ele>
        <time>2021-08-05T11:25:06Z</time>
      </trkpt>
      <trkpt lat="48.13812" lon="7.10272">
        <ele>1138.1</ele>
        <time>2021-08-05T11:25:07Z</time>
      </trkpt>
      <trkpt lat="48.13816" lon="7.10297">
        <ele>1138.2</ele>
        <time>2021-08-05T11:25:09Z</time>
      </trkpt>
      <trkpt lat="48.13822" lon="7.10321">
        <ele>1138.4</ele>
        <time>2021-08-05T11:25:11Z</time>
      </trkpt>
      <trkpt lat="48.13829" lon="7.10343">
        <ele>1138.6</ele>
        <time>2021-08-05T11:25:13Z</time>
      </trkpt>
      <trkpt lat="48.13835" lon="7.10364">
        <ele>1138.7</ele>
        <time>2021-08-05T11:25:15Z</time>
      </trkpt>
      <trkpt lat="48.13839" lon="7.10383">
        <ele>1138.9</ele>
        <time>2021-08-05T11:25:17Z</time>
      </trkpt>
      <trkpt lat="48.13843" lon="7.104">
        <ele>1139</ele>
        <time>2021-08-05T11:25:19Z</time>
      </trkpt>
      <trkpt lat="48.13847" lon="7.10416">
        <ele>1139</ele>
        <time>2021-08-05T11:25:21Z</time>
      </trkpt>
      <trkpt lat="48.13849" lon="7.10424">
        <ele>1139</ele>
        <time>2021-08-05T11:25:22Z</time>
      </trkpt>
      <trkpt lat="48.13851" lon="7.10431">
        <ele>1139.1</ele>
        <time>2021-08-05T11:25:23Z</time>
      </trkpt>
      <trkpt lat="48.13853" lon="7.10437">
        <ele>1139.1</ele>
        <time>2021-08-05T11:25:24Z</time>
      </trkpt>
      <trkpt lat="48.13858" lon="7.1045">
        <ele>1139.3</ele>
        <time>2021-08-05T11:25:26Z</time>
      </trkpt>
      <trkpt lat="48.1386" lon="7.10456">
        <ele>1139.3</ele>
        <time>2021-08-05T11:25:27Z</time>
      </trkpt>
      <trkpt lat="48.13863" lon="7.10467">
        <ele>1139.4</ele>
        <time>2021-08-05T11:25:29Z</time>
      </trkpt>
      <trkpt lat="48.13864" lon="7.10471">
        <ele>1139.5</ele>
        <time>2021-08-05T11:25:30Z</time>
      </trkpt>
      <trkpt lat="48.13865" lon="7.10475">
        <ele>1139.6</ele>
        <time>2021-08-05T11:25:31Z</time>
      </trkpt>
      <trkpt lat="48.13866" lon="7.1048">
        <ele>1139.6</ele>
        <time>2021-08-05T11:25:32Z</time>
      </trkpt>
      <trkpt lat="48.13866" lon="7.1049">
        <ele>1139.7</ele>
        <time>2021-08-05T11:25:34Z</time>
      </trkpt>
      <trkpt lat="48.13866" lon="7.10499">
        <ele>1139.8</ele>
        <time>2021-08-05T11:25:35Z</time>
      </trkpt>
      <trkpt lat="48.13865" lon="7.10504">
        <ele>1139.8</ele>
        <time>2021-08-05T11:25:37Z</time>
      </trkpt>
      <trkpt lat="48.13865" lon="7.10508">
        <ele>1139.9</ele>
        <time>2021-08-05T11:25:38Z</time>
      </trkpt>
      <trkpt lat="48.13867" lon="7.10514">
        <ele>1139.9</ele>
        <time>2021-08-05T11:25:39Z</time>
      </trkpt>
      <trkpt lat="48.13871" lon="7.10526">
        <ele>1140</ele>
        <time>2021-08-05T11:25:41Z</time>
      </trkpt>
      <trkpt lat="48.13872" lon="7.10533">
        <ele>1140</ele>
        <time>2021-08-05T11:25:42Z</time>
      </trkpt>
      <trkpt lat="48.13873" lon="7.1054">
        <ele>1140</ele>
        <time>2021-08-05T11:25:43Z</time>
      </trkpt>
      <trkpt lat="48.13877" lon="7.10557">
        <ele>1140</ele>
        <time>2021-08-05T11:25:45Z</time>
      </trkpt>
      <trkpt lat="48.13878" lon="7.10562">
        <ele>1140</ele>
        <time>2021-08-05T11:25:46Z</time>
      </trkpt>
      <trkpt lat="48.13877" lon="7.10563">
        <ele>1140</ele>
        <time>2021-08-05T11:25:48Z</time>
      </trkpt>
      <trkpt lat="48.13874" lon="7.10559">
        <ele>1140</ele>
        <time>2021-08-05T11:25:50Z</time>
      </trkpt>
      <trkpt lat="48.13871" lon="7.10555">
        <ele>1140</ele>
        <time>2021-08-05T11:25:51Z</time>
      </trkpt>
      <trkpt lat="48.13869" lon="7.10552">
        <ele>1140</ele>
        <time>2021-08-05T11:25:52Z</time>
      </trkpt>
      <trkpt lat="48.13866" lon="7.10548">
        <ele>1140</ele>
        <time>2021-08-05T11:25:54Z</time>
      </trkpt>
      <trkpt lat="48.13863" lon="7.10544">
        <ele>1140</ele>
        <time>2021-08-05T11:25:56Z</time>
      </trkpt>
      <trkpt lat="48.13861" lon="7.1054">
        <ele>1140</ele>
        <time>2021-08-05T11:25:57Z</time>
      </trkpt>
      <trkpt lat="48.13858" lon="7.10536">
        <ele>1140</ele>
        <time>2021-08-05T11:25:59Z</time>
      </trkpt>
      <trkpt lat="48.13856" lon="7.10532">
        <ele>1139.9</ele>
        <time>2021-08-05T11:26:01Z</time>
      </trkpt>
      <trkpt lat="48.13853" lon="7.10528">
        <ele>1139.9</ele>
        <time>2021-08-05T11:27:53Z</time>
      </trkpt>
      <trkpt lat="48.1385" lon="7.10524">
        <ele>1139.9</ele>
        <time>2021-08-05T11:27:55Z</time>
      </trkpt>
      <trkpt lat="48.13849" lon="7.10514">
        <ele>1139.8</ele>
        <time>2021-08-05T11:27:56Z</time>
      </trkpt>
      <trkpt lat="48.1385" lon="7.10502">
        <ele>1139.7</ele>
        <time>2021-08-05T11:27:58Z</time>
      </trkpt>
      <trkpt lat="48.13851" lon="7.10495">
        <ele>1139.6</ele>
        <time>2021-08-05T11:28:00Z</time>
      </trkpt>
      <trkpt lat="48.13849" lon="7.10487">
        <ele>1139.5</ele>
        <time>2021-08-05T11:28:01Z</time>
      </trkpt>
      <trkpt lat="48.13847" lon="7.1048">
        <ele>1139.4</ele>
        <time>2021-08-05T11:28:02Z</time>
      </trkpt>
      <trkpt lat="48.13845" lon="7.10474">
        <ele>1139.4</ele>
        <time>2021-08-05T11:28:04Z</time>
      </trkpt>
      <trkpt lat="48.1384" lon="7.10458">
        <ele>1139.2</ele>
        <time>2021-08-05T11:28:05Z</time>
      </trkpt>
      <trkpt lat="48.13838" lon="7.10443">
        <ele>1139.1</ele>
        <time>2021-08-05T11:28:07Z</time>
      </trkpt>
      <trkpt lat="48.13837" lon="7.10428">
        <ele>1139</ele>
        <time>2021-08-05T11:28:09Z</time>
      </trkpt>
      <trkpt lat="48.13837" lon="7.10417">
        <ele>1139</ele>
        <time>2021-08-05T11:28:11Z</time>
      </trkpt>
      <trkpt lat="48.13835" lon="7.10415">
        <ele>1139</ele>
        <time>2021-08-05T11:28:12Z</time>
      </trkpt>
      <trkpt lat="48.13832" lon="7.10401">
        <ele>1138.9</ele>
        <time>2021-08-05T11:28:14Z</time>
      </trkpt>
      <trkpt lat="48.13829" lon="7.10389">
        <ele>1138.9</ele>
        <time>2021-08-05T11:28:16Z</time>
      </trkpt>
      <trkpt lat="48.13828" lon="7.10382">
        <ele>1138.8</ele>
        <time>2021-08-05T11:28:17Z</time>
      </trkpt>
      <trkpt lat="48.13827" lon="7.10369">
        <ele>1138.7</ele>
        <time>2021-08-05T11:28:19Z</time>
      </trkpt>
      <trkpt lat="48.13826" lon="7.1036">
        <ele>1138.7</ele>
        <time>2021-08-05T11:28:20Z</time>
      </trkpt>
      <trkpt lat="48.13825" lon="7.10352">
        <ele>1138.6</ele>
        <time>2021-08-05T11:28:22Z</time>
      </trkpt>
      <trkpt lat="48.13823" lon="7.10342">
        <ele>1138.6</ele>
        <time>2021-08-05T11:28:23Z</time>
      </trkpt>
      <trkpt lat="48.13821" lon="7.10335">
        <ele>1138.5</ele>
        <time>2021-08-05T11:28:24Z</time>
      </trkpt>
      <trkpt lat="48.13819" lon="7.10324">
        <ele>1138.4</ele>
        <time>2021-08-05T11:28:26Z</time>
      </trkpt>
      <trkpt lat="48.13817" lon="7.10314">
        <ele>1138.4</ele>
        <time>2021-08-05T11:28:28Z</time>
      </trkpt>
      <trkpt lat="48.13815" lon="7.10306">
        <ele>1138.3</ele>
        <time>2021-08-05T11:28:29Z</time>
      </trkpt>
      <trkpt lat="48.13813" lon="7.10297">
        <ele>1138.2</ele>
        <time>2021-08-05T11:28:31Z</time>
      </trkpt>
      <trkpt lat="48.13812" lon="7.10288">
        <ele>1138.2</ele>
        <time>2021-08-05T11:28:32Z</time>
      </trkpt>
      <trkpt lat="48.13812" lon="7.10281">
        <ele>1138.1</ele>
        <time>2021-08-05T11:28:33Z</time>
      </trkpt>
      <trkpt lat="48.13811" lon="7.10275">
        <ele>1138.1</ele>
        <time>2021-08-05T11:28:34Z</time>
      </trkpt>
      <trkpt lat="48.13809" lon="7.10267">
        <ele>1138.1</ele>
        <time>2021-08-05T11:28:36Z</time>
      </trkpt>
      <trkpt lat="48.13807" lon="7.10262">
        <ele>1138.1</ele>
        <time>2021-08-05T11:28:37Z</time>
      </trkpt>
      <trkpt lat="48.13806" lon="7.10257">
        <ele>1138</ele>
        <time>2021-08-05T11:28:38Z</time>
      </trkpt>
      <trkpt lat="48.13805" lon="7.1025">
        <ele>1138</ele>
        <time>2021-08-05T11:28:39Z</time>
      </trkpt>
      <trkpt lat="48.13803" lon="7.10247">
        <ele>1137.9</ele>
        <time>2021-08-05T11:28:40Z</time>
      </trkpt>
      <trkpt lat="48.13799" lon="7.10242">
        <ele>1137.5</ele>
        <time>2021-08-05T11:28:42Z</time>
      </trkpt>
      <trkpt lat="48.13796" lon="7.10241">
        <ele>1137.3</ele>
        <time>2021-08-05T11:28:43Z</time>
      </trkpt>
      <trkpt lat="48.13794" lon="7.10239">
        <ele>1137.1</ele>
        <time>2021-08-05T11:28:44Z</time>
      </trkpt>
      <trkpt lat="48.13787" lon="7.10234">
        <ele>1136.5</ele>
        <time>2021-08-05T11:28:45Z</time>
      </trkpt>
      <trkpt lat="48.13777" lon="7.1022">
        <ele>1135.8</ele>
        <time>2021-08-05T11:28:47Z</time>
      </trkpt>
      <trkpt lat="48.13771" lon="7.10206">
        <ele>1135.7</ele>
        <time>2021-08-05T11:28:49Z</time>
      </trkpt>
      <trkpt lat="48.13767" lon="7.10197">
        <ele>1135.8</ele>
        <time>2021-08-05T11:28:51Z</time>
      </trkpt>
      <trkpt lat="48.13764" lon="7.10191">
        <ele>1135.8</ele>
        <time>2021-08-05T11:28:52Z</time>
      </trkpt>
      <trkpt lat="48.13763" lon="7.10184">
        <ele>1135.9</ele>
        <time>2021-08-05T11:28:54Z</time>
      </trkpt>
      <trkpt lat="48.13762" lon="7.10178">
        <ele>1136</ele>
        <time>2021-08-05T11:28:55Z</time>
      </trkpt>
      <trkpt lat="48.1376" lon="7.10174">
        <ele>1136</ele>
        <time>2021-08-05T11:28:56Z</time>
      </trkpt>
      <trkpt lat="48.13759" lon="7.10169">
        <ele>1136.1</ele>
        <time>2021-08-05T11:28:57Z</time>
      </trkpt>
      <trkpt lat="48.13758" lon="7.10164">
        <ele>1136.2</ele>
        <time>2021-08-05T11:28:58Z</time>
      </trkpt>
      <trkpt lat="48.13756" lon="7.10159">
        <ele>1136.2</ele>
        <time>2021-08-05T11:28:59Z</time>
      </trkpt>
      <trkpt lat="48.13753" lon="7.10153">
        <ele>1136.3</ele>
        <time>2021-08-05T11:29:01Z</time>
      </trkpt>
      <trkpt lat="48.1375" lon="7.10148">
        <ele>1136.3</ele>
        <time>2021-08-05T11:29:02Z</time>
      </trkpt>
      <trkpt lat="48.13747" lon="7.10143">
        <ele>1136.4</ele>
        <time>2021-08-05T11:29:04Z</time>
      </trkpt>
      <trkpt lat="48.13743" lon="7.10139">
        <ele>1136.4</ele>
        <time>2021-08-05T11:29:05Z</time>
      </trkpt>
      <trkpt lat="48.13741" lon="7.10135">
        <ele>1136.4</ele>
        <time>2021-08-05T11:29:06Z</time>
      </trkpt>
      <trkpt lat="48.13739" lon="7.10129">
        <ele>1136.5</ele>
        <time>2021-08-05T11:29:08Z</time>
      </trkpt>
      <trkpt lat="48.13737" lon="7.10123">
        <ele>1136.5</ele>
        <time>2021-08-05T11:29:09Z</time>
      </trkpt>
      <trkpt lat="48.13736" lon="7.10116">
        <ele>1136.5</ele>
        <time>2021-08-05T11:29:11Z</time>
      </trkpt>
      <trkpt lat="48.13733" lon="7.1011">
        <ele>1136.5</ele>
        <time>2021-08-05T11:29:13Z</time>
      </trkpt>
      <trkpt lat="48.13731" lon="7.10105">
        <ele>1136.4</ele>
        <time>2021-08-05T11:29:14Z</time>
      </trkpt>
      <trkpt lat="48.1373" lon="7.101">
        <ele>1136.4</ele>
        <time>2021-08-05T11:29:15Z</time>
      </trkpt>
      <trkpt lat="48.13729" lon="7.10095">
        <ele>1136.4</ele>
        <time>2021-08-05T11:29:16Z</time>
      </trkpt>
      <trkpt lat="48.13725" lon="7.10085">
        <ele>1136.4</ele>
        <time>2021-08-05T11:29:18Z</time>
      </trkpt>
      <trkpt lat="48.13724" lon="7.1008">
        <ele>1136.4</ele>
        <time>2021-08-05T11:29:19Z</time>
      </trkpt>
      <trkpt lat="48.13723" lon="7.10075">
        <ele>1136.4</ele>
        <time>2021-08-05T11:29:20Z</time>
      </trkpt>
      <trkpt lat="48.13721" lon="7.10064">
        <ele>1136.4</ele>
        <time>2021-08-05T11:29:22Z</time>
      </trkpt>
      <trkpt lat="48.13721" lon="7.10059">
        <ele>1136.4</ele>
        <time>2021-08-05T11:29:23Z</time>
      </trkpt>
      <trkpt lat="48.13723" lon="7.10051">
        <ele>1136.5</ele>
        <time>2021-08-05T11:29:25Z</time>
      </trkpt>
      <trkpt lat="48.13724" lon="7.10044">
        <ele>1136.6</ele>
        <time>2021-08-05T11:29:26Z</time>
      </trkpt>
      <trkpt lat="48.13725" lon="7.1004">
        <ele>1139.3</ele>
        <time>2021-08-05T11:29:27Z</time>
      </trkpt>
      <trkpt lat="48.13725" lon="7.10034">
        <ele>1146.8</ele>
        <time>2021-08-05T11:29:29Z</time>
      </trkpt>
      <trkpt lat="48.13725" lon="7.10029">
        <ele>1146.9</ele>
        <time>2021-08-05T11:29:30Z</time>
      </trkpt>
      <trkpt lat="48.13724" lon="7.10023">
        <ele>1147.1</ele>
        <time>2021-08-05T11:29:32Z</time>
      </trkpt>
      <trkpt lat="48.13724" lon="7.1002">
        <ele>1147.1</ele>
        <time>2021-08-05T11:29:33Z</time>
      </trkpt>
      <trkpt lat="48.13724" lon="7.10018">
        <ele>1147.2</ele>
        <time>2021-08-05T11:29:34Z</time>
      </trkpt>
      <trkpt lat="48.13722" lon="7.10013">
        <ele>1147.3</ele>
        <time>2021-08-05T11:29:36Z</time>
      </trkpt>
      <trkpt lat="48.13721" lon="7.10011">
        <ele>1147.4</ele>
        <time>2021-08-05T11:29:37Z</time>
      </trkpt>
      <trkpt lat="48.13719" lon="7.10006">
        <ele>1147.5</ele>
        <time>2021-08-05T11:29:39Z</time>
      </trkpt>
      <trkpt lat="48.13717" lon="7.10002">
        <ele>1147.6</ele>
        <time>2021-08-05T11:29:41Z</time>
      </trkpt>
      <trkpt lat="48.13715" lon="7.09999">
        <ele>1147.7</ele>
        <time>2021-08-05T11:29:42Z</time>
      </trkpt>
      <trkpt lat="48.13712" lon="7.09997">
        <ele>1147.8</ele>
        <time>2021-08-05T11:29:44Z</time>
      </trkpt>
      <trkpt lat="48.1371" lon="7.09994">
        <ele>1147.9</ele>
        <time>2021-08-05T11:29:45Z</time>
      </trkpt>
      <trkpt lat="48.13707" lon="7.09991">
        <ele>1148</ele>
        <time>2021-08-05T11:29:46Z</time>
      </trkpt>
      <trkpt lat="48.13705" lon="7.09988">
        <ele>1148.1</ele>
        <time>2021-08-05T11:29:48Z</time>
      </trkpt>
      <trkpt lat="48.13703" lon="7.09984">
        <ele>1148.1</ele>
        <time>2021-08-05T11:29:49Z</time>
      </trkpt>
      <trkpt lat="48.13701" lon="7.0998">
        <ele>1148.2</ele>
        <time>2021-08-05T11:29:50Z</time>
      </trkpt>
      <trkpt lat="48.13699" lon="7.09975">
        <ele>1148.2</ele>
        <time>2021-08-05T11:29:52Z</time>
      </trkpt>
      <trkpt lat="48.13696" lon="7.0997">
        <ele>1148.3</ele>
        <time>2021-08-05T11:29:53Z</time>
      </trkpt>
      <trkpt lat="48.13694" lon="7.09966">
        <ele>1148.3</ele>
        <time>2021-08-05T11:29:54Z</time>
      </trkpt>
      <trkpt lat="48.1369" lon="7.09962">
        <ele>1148.3</ele>
        <time>2021-08-05T11:29:56Z</time>
      </trkpt>
      <trkpt lat="48.13687" lon="7.09958">
        <ele>1148.3</ele>
        <time>2021-08-05T11:29:57Z</time>
      </trkpt>
      <trkpt lat="48.13686" lon="7.09951">
        <ele>1148.2</ele>
        <time>2021-08-05T11:29:59Z</time>
      </trkpt>
      <trkpt lat="48.13686" lon="7.09946">
        <ele>1148.1</ele>
        <time>2021-08-05T11:30:01Z</time>
      </trkpt>
      <trkpt lat="48.13686" lon="7.09942">
        <ele>1148.1</ele>
        <time>2021-08-05T11:30:02Z</time>
      </trkpt>
      <trkpt lat="48.13686" lon="7.09939">
        <ele>1148</ele>
        <time>2021-08-05T11:30:03Z</time>
      </trkpt>
      <trkpt lat="48.13685" lon="7.09933">
        <ele>1147.8</ele>
        <time>2021-08-05T11:30:05Z</time>
      </trkpt>
      <trkpt lat="48.13689" lon="7.09925">
        <ele>1147.6</ele>
        <time>2021-08-05T11:30:07Z</time>
      </trkpt>
      <trkpt lat="48.13691" lon="7.09918">
        <ele>1147.4</ele>
        <time>2021-08-05T11:30:08Z</time>
      </trkpt>
      <trkpt lat="48.13692" lon="7.09913">
        <ele>1147.3</ele>
        <time>2021-08-05T11:30:10Z</time>
      </trkpt>
      <trkpt lat="48.13692" lon="7.09907">
        <ele>1147.1</ele>
        <time>2021-08-05T11:30:11Z</time>
      </trkpt>
      <trkpt lat="48.1369" lon="7.099">
        <ele>1146.9</ele>
        <time>2021-08-05T11:30:13Z</time>
      </trkpt>
      <trkpt lat="48.1369" lon="7.09896">
        <ele>1146.8</ele>
        <time>2021-08-05T11:30:14Z</time>
      </trkpt>
      <trkpt lat="48.1369" lon="7.09894">
        <ele>1146.8</ele>
        <time>2021-08-05T11:30:15Z</time>
      </trkpt>
      <trkpt lat="48.1369" lon="7.09891">
        <ele>1146.7</ele>
        <time>2021-08-05T11:30:16Z</time>
      </trkpt>
      <trkpt lat="48.1369" lon="7.09891">
        <ele>1146.7</ele>
        <time>2021-08-05T11:30:18Z</time>
      </trkpt>
      <trkpt lat="48.1369" lon="7.09891">
        <ele>1146.7</ele>
        <time>2021-08-05T11:30:19Z</time>
      </trkpt>
      <trkpt lat="48.1369" lon="7.09891">
        <ele>1146.7</ele>
        <time>2021-08-05T11:30:20Z</time>
      </trkpt>
      <trkpt lat="48.13688" lon="7.09887">
        <ele>1146.6</ele>
        <time>2021-08-05T11:30:22Z</time>
      </trkpt>
      <trkpt lat="48.13688" lon="7.09883">
        <ele>1146.5</ele>
        <time>2021-08-05T11:30:23Z</time>
      </trkpt>
      <trkpt lat="48.13685" lon="7.09879">
        <ele>1146.3</ele>
        <time>2021-08-05T11:30:25Z</time>
      </trkpt>
      <trkpt lat="48.13682" lon="7.09875">
        <ele>1146.2</ele>
        <time>2021-08-05T11:30:26Z</time>
      </trkpt>
      <trkpt lat="48.13679" lon="7.09871">
        <ele>1146</ele>
        <time>2021-08-05T11:30:28Z</time>
      </trkpt>
      <trkpt lat="48.13677" lon="7.09868">
        <ele>1145.9</ele>
        <time>2021-08-05T11:30:29Z</time>
      </trkpt>
      <trkpt lat="48.13674" lon="7.09863">
        <ele>1145.6</ele>
        <time>2021-08-05T11:30:31Z</time>
      </trkpt>
      <trkpt lat="48.13671" lon="7.09859">
        <ele>1145.4</ele>
        <time>2021-08-05T11:30:32Z</time>
      </trkpt>
      <trkpt lat="48.13669" lon="7.09854">
        <ele>1145.3</ele>
        <time>2021-08-05T11:30:33Z</time>
      </trkpt>
      <trkpt lat="48.13667" lon="7.0985">
        <ele>1145.1</ele>
        <time>2021-08-05T11:30:34Z</time>
      </trkpt>
      <trkpt lat="48.13667" lon="7.09847">
        <ele>1145</ele>
        <time>2021-08-05T11:30:36Z</time>
      </trkpt>
      <trkpt lat="48.13668" lon="7.09845">
        <ele>1144.9</ele>
        <time>2021-08-05T11:30:37Z</time>
      </trkpt>
      <trkpt lat="48.13668" lon="7.0984">
        <ele>1144.7</ele>
        <time>2021-08-05T11:30:39Z</time>
      </trkpt>
      <trkpt lat="48.13669" lon="7.09836">
        <ele>1145.3</ele>
        <time>2021-08-05T11:30:40Z</time>
      </trkpt>
      <trkpt lat="48.13672" lon="7.09832">
        <ele>1146.4</ele>
        <time>2021-08-05T11:30:42Z</time>
      </trkpt>
      <trkpt lat="48.13672" lon="7.09827">
        <ele>1146.9</ele>
        <time>2021-08-05T11:30:43Z</time>
      </trkpt>
      <trkpt lat="48.13672" lon="7.09825">
        <ele>1147.3</ele>
        <time>2021-08-05T11:30:44Z</time>
      </trkpt>
      <trkpt lat="48.13672" lon="7.09824">
        <ele>1147.8</ele>
        <time>2021-08-05T11:30:45Z</time>
      </trkpt>
      <trkpt lat="48.13671" lon="7.09823">
        <ele>1147.8</ele>
        <time>2021-08-05T11:30:46Z</time>
      </trkpt>
      <trkpt lat="48.13667" lon="7.09823">
        <ele>1147.7</ele>
        <time>2021-08-05T11:30:48Z</time>
      </trkpt>
      <trkpt lat="48.13666" lon="7.09822">
        <ele>1148.1</ele>
        <time>2021-08-05T11:30:49Z</time>
      </trkpt>
      <trkpt lat="48.13666" lon="7.0982">
        <ele>1148.6</ele>
        <time>2021-08-05T11:30:50Z</time>
      </trkpt>
      <trkpt lat="48.13665" lon="7.09818">
        <ele>1149</ele>
        <time>2021-08-05T11:30:51Z</time>
      </trkpt>
      <trkpt lat="48.13663" lon="7.09813">
        <ele>1149.1</ele>
        <time>2021-08-05T11:30:53Z</time>
      </trkpt>
      <trkpt lat="48.1366" lon="7.09809">
        <ele>1149.1</ele>
        <time>2021-08-05T11:30:54Z</time>
      </trkpt>
      <trkpt lat="48.13656" lon="7.09803">
        <ele>1149.2</ele>
        <time>2021-08-05T11:30:56Z</time>
      </trkpt>
      <trkpt lat="48.13654" lon="7.09798">
        <ele>1149.3</ele>
        <time>2021-08-05T11:30:57Z</time>
      </trkpt>
      <trkpt lat="48.13653" lon="7.09795">
        <ele>1149.3</ele>
        <time>2021-08-05T11:30:58Z</time>
      </trkpt>
      <trkpt lat="48.13653" lon="7.09789">
        <ele>1149.4</ele>
        <time>2021-08-05T11:31:00Z</time>
      </trkpt>
      <trkpt lat="48.13655" lon="7.09785">
        <ele>1149.4</ele>
        <time>2021-08-05T11:31:01Z</time>
      </trkpt>
      <trkpt lat="48.13653" lon="7.09781">
        <ele>1149.5</ele>
        <time>2021-08-05T11:31:02Z</time>
      </trkpt>
      <trkpt lat="48.13651" lon="7.09777">
        <ele>1149.5</ele>
        <time>2021-08-05T11:31:04Z</time>
      </trkpt>
      <trkpt lat="48.1365" lon="7.09772">
        <ele>1149.5</ele>
        <time>2021-08-05T11:31:05Z</time>
      </trkpt>
      <trkpt lat="48.13645" lon="7.09768">
        <ele>1149.6</ele>
        <time>2021-08-05T11:31:07Z</time>
      </trkpt>
      <trkpt lat="48.13646" lon="7.09764">
        <ele>1149.6</ele>
        <time>2021-08-05T11:31:08Z</time>
      </trkpt>
      <trkpt lat="48.13643" lon="7.09761">
        <ele>1149.6</ele>
        <time>2021-08-05T11:31:10Z</time>
      </trkpt>
      <trkpt lat="48.13643" lon="7.09757">
        <ele>1149.6</ele>
        <time>2021-08-05T11:31:11Z</time>
      </trkpt>
      <trkpt lat="48.13643" lon="7.09755">
        <ele>1149.6</ele>
        <time>2021-08-05T11:31:12Z</time>
      </trkpt>
      <trkpt lat="48.13643" lon="7.09753">
        <ele>1149.6</ele>
        <time>2021-08-05T11:31:13Z</time>
      </trkpt>
      <trkpt lat="48.13643" lon="7.09748">
        <ele>1149.6</ele>
        <time>2021-08-05T11:31:15Z</time>
      </trkpt>
      <trkpt lat="48.13644" lon="7.09746">
        <ele>1149.6</ele>
        <time>2021-08-05T11:31:16Z</time>
      </trkpt>
      <trkpt lat="48.13645" lon="7.0974">
        <ele>1149.5</ele>
        <time>2021-08-05T11:31:18Z</time>
      </trkpt>
      <trkpt lat="48.13646" lon="7.09733">
        <ele>1149.4</ele>
        <time>2021-08-05T11:31:20Z</time>
      </trkpt>
      <trkpt lat="48.13646" lon="7.0973">
        <ele>1149.4</ele>
        <time>2021-08-05T11:31:21Z</time>
      </trkpt>
      <trkpt lat="48.13646" lon="7.09727">
        <ele>1149.4</ele>
        <time>2021-08-05T11:31:23Z</time>
      </trkpt>
      <trkpt lat="48.13646" lon="7.09723">
        <ele>1149.3</ele>
        <time>2021-08-05T11:31:24Z</time>
      </trkpt>
      <trkpt lat="48.13646" lon="7.0972">
        <ele>1149.3</ele>
        <time>2021-08-05T11:31:25Z</time>
      </trkpt>
      <trkpt lat="48.13645" lon="7.09715">
        <ele>1149.2</ele>
        <time>2021-08-05T11:31:27Z</time>
      </trkpt>
      <trkpt lat="48.13643" lon="7.09711">
        <ele>1149.2</ele>
        <time>2021-08-05T11:31:28Z</time>
      </trkpt>
      <trkpt lat="48.13641" lon="7.09706">
        <ele>1149.1</ele>
        <time>2021-08-05T11:31:29Z</time>
      </trkpt>
      <trkpt lat="48.13641" lon="7.09701">
        <ele>1149</ele>
        <time>2021-08-05T11:31:30Z</time>
      </trkpt>
      <trkpt lat="48.1364" lon="7.09697">
        <ele>1149</ele>
        <time>2021-08-05T11:31:31Z</time>
      </trkpt>
      <trkpt lat="48.13638" lon="7.09691">
        <ele>1148.9</ele>
        <time>2021-08-05T11:31:33Z</time>
      </trkpt>
      <trkpt lat="48.13639" lon="7.09686">
        <ele>1148.8</ele>
        <time>2021-08-05T11:31:34Z</time>
      </trkpt>
      <trkpt lat="48.13638" lon="7.09682">
        <ele>1148.8</ele>
        <time>2021-08-05T11:31:35Z</time>
      </trkpt>
      <trkpt lat="48.13637" lon="7.09676">
        <ele>1148.7</ele>
        <time>2021-08-05T11:31:38Z</time>
      </trkpt>
      <trkpt lat="48.13631" lon="7.09673">
        <ele>1148.6</ele>
        <time>2021-08-05T11:31:40Z</time>
      </trkpt>
      <trkpt lat="48.13628" lon="7.09672">
        <ele>1148.6</ele>
        <time>2021-08-05T11:31:42Z</time>
      </trkpt>
      <trkpt lat="48.13624" lon="7.09669">
        <ele>1148.5</ele>
        <time>2021-08-05T11:31:43Z</time>
      </trkpt>
      <trkpt lat="48.13622" lon="7.09665">
        <ele>1148.5</ele>
        <time>2021-08-05T11:31:44Z</time>
      </trkpt>
      <trkpt lat="48.13619" lon="7.09658">
        <ele>1148.5</ele>
        <time>2021-08-05T11:31:46Z</time>
      </trkpt>
      <trkpt lat="48.13619" lon="7.09654">
        <ele>1148.5</ele>
        <time>2021-08-05T11:31:47Z</time>
      </trkpt>
      <trkpt lat="48.13618" lon="7.09649">
        <ele>1148.5</ele>
        <time>2021-08-05T11:31:48Z</time>
      </trkpt>
      <trkpt lat="48.13617" lon="7.09638">
        <ele>1148.5</ele>
        <time>2021-08-05T11:31:50Z</time>
      </trkpt>
      <trkpt lat="48.13617" lon="7.09627">
        <ele>1148.6</ele>
        <time>2021-08-05T11:31:51Z</time>
      </trkpt>
      <trkpt lat="48.13616" lon="7.0962">
        <ele>1148.7</ele>
        <time>2021-08-05T11:31:52Z</time>
      </trkpt>
      <trkpt lat="48.13617" lon="7.09607">
        <ele>1148.8</ele>
        <time>2021-08-05T11:31:54Z</time>
      </trkpt>
      <trkpt lat="48.13619" lon="7.09603">
        <ele>1148.8</ele>
        <time>2021-08-05T11:31:55Z</time>
      </trkpt>
      <trkpt lat="48.13618" lon="7.09597">
        <ele>1148.8</ele>
        <time>2021-08-05T11:31:56Z</time>
      </trkpt>
      <trkpt lat="48.13619" lon="7.0959">
        <ele>1148.9</ele>
        <time>2021-08-05T11:31:57Z</time>
      </trkpt>
      <trkpt lat="48.1362" lon="7.09581">
        <ele>1148.9</ele>
        <time>2021-08-05T11:31:59Z</time>
      </trkpt>
      <trkpt lat="48.1362" lon="7.09574">
        <ele>1148.9</ele>
        <time>2021-08-05T11:32:00Z</time>
      </trkpt>
      <trkpt lat="48.13618" lon="7.09568">
        <ele>1148.8</ele>
        <time>2021-08-05T11:32:01Z</time>
      </trkpt>
      <trkpt lat="48.13614" lon="7.09557">
        <ele>1148.7</ele>
        <time>2021-08-05T11:32:03Z</time>
      </trkpt>
      <trkpt lat="48.13612" lon="7.09548">
        <ele>1148.6</ele>
        <time>2021-08-05T11:32:04Z</time>
      </trkpt>
      <trkpt lat="48.13611" lon="7.09539">
        <ele>1148.4</ele>
        <time>2021-08-05T11:32:06Z</time>
      </trkpt>
      <trkpt lat="48.13611" lon="7.09531">
        <ele>1148.3</ele>
        <time>2021-08-05T11:32:07Z</time>
      </trkpt>
      <trkpt lat="48.13611" lon="7.09523">
        <ele>1148.1</ele>
        <time>2021-08-05T11:32:08Z</time>
      </trkpt>
      <trkpt lat="48.1361" lon="7.09513">
        <ele>1147.9</ele>
        <time>2021-08-05T11:32:10Z</time>
      </trkpt>
      <trkpt lat="48.1361" lon="7.09507">
        <ele>1147.8</ele>
        <time>2021-08-05T11:32:11Z</time>
      </trkpt>
      <trkpt lat="48.1361" lon="7.09499">
        <ele>1147.6</ele>
        <time>2021-08-05T11:32:12Z</time>
      </trkpt>
      <trkpt lat="48.13609" lon="7.09487">
        <ele>1147.4</ele>
        <time>2021-08-05T11:32:14Z</time>
      </trkpt>
      <trkpt lat="48.13607" lon="7.0948">
        <ele>1147.2</ele>
        <time>2021-08-05T11:32:15Z</time>
      </trkpt>
      <trkpt lat="48.13607" lon="7.09461">
        <ele>1146.9</ele>
        <time>2021-08-05T11:32:17Z</time>
      </trkpt>
      <trkpt lat="48.13608" lon="7.09451">
        <ele>1146.7</ele>
        <time>2021-08-05T11:32:19Z</time>
      </trkpt>
      <trkpt lat="48.13611" lon="7.09443">
        <ele>1146.6</ele>
        <time>2021-08-05T11:32:20Z</time>
      </trkpt>
      <trkpt lat="48.13613" lon="7.09432">
        <ele>1146.4</ele>
        <time>2021-08-05T11:32:21Z</time>
      </trkpt>
      <trkpt lat="48.13617" lon="7.09416">
        <ele>1146.2</ele>
        <time>2021-08-05T11:32:23Z</time>
      </trkpt>
      <trkpt lat="48.13619" lon="7.094">
        <ele>1146.1</ele>
        <time>2021-08-05T11:32:25Z</time>
      </trkpt>
      <trkpt lat="48.1362" lon="7.09391">
        <ele>1146</ele>
        <time>2021-08-05T11:32:26Z</time>
      </trkpt>
      <trkpt lat="48.13621" lon="7.09374">
        <ele>1145.9</ele>
        <time>2021-08-05T11:32:28Z</time>
      </trkpt>
      <trkpt lat="48.13622" lon="7.09365">
        <ele>1145.9</ele>
        <time>2021-08-05T11:32:29Z</time>
      </trkpt>
      <trkpt lat="48.13624" lon="7.09346">
        <ele>1146</ele>
        <time>2021-08-05T11:32:31Z</time>
      </trkpt>
      <trkpt lat="48.13624" lon="7.09337">
        <ele>1146</ele>
        <time>2021-08-05T11:32:32Z</time>
      </trkpt>
      <trkpt lat="48.13627" lon="7.0932">
        <ele>1146.2</ele>
        <time>2021-08-05T11:32:34Z</time>
      </trkpt>
      <trkpt lat="48.13629" lon="7.09311">
        <ele>1146.3</ele>
        <time>2021-08-05T11:32:35Z</time>
      </trkpt>
      <trkpt lat="48.13631" lon="7.09302">
        <ele>1146.4</ele>
        <time>2021-08-05T11:32:36Z</time>
      </trkpt>
      <trkpt lat="48.13633" lon="7.09286">
        <ele>1146.6</ele>
        <time>2021-08-05T11:32:38Z</time>
      </trkpt>
      <trkpt lat="48.13635" lon="7.0927">
        <ele>1146.8</ele>
        <time>2021-08-05T11:32:40Z</time>
      </trkpt>
      <trkpt lat="48.13636" lon="7.09255">
        <ele>1147</ele>
        <time>2021-08-05T11:32:42Z</time>
      </trkpt>
      <trkpt lat="48.13638" lon="7.09241">
        <ele>1147.2</ele>
        <time>2021-08-05T11:32:44Z</time>
      </trkpt>
      <trkpt lat="48.13639" lon="7.09232">
        <ele>1147.4</ele>
        <time>2021-08-05T11:32:46Z</time>
      </trkpt>
      <trkpt lat="48.13638" lon="7.09226">
        <ele>1147.5</ele>
        <time>2021-08-05T11:32:47Z</time>
      </trkpt>
      <trkpt lat="48.13638" lon="7.09224">
        <ele>1147.5</ele>
        <time>2021-08-05T11:32:48Z</time>
      </trkpt>
      <trkpt lat="48.13639" lon="7.09213">
        <ele>1147.6</ele>
        <time>2021-08-05T11:32:50Z</time>
      </trkpt>
      <trkpt lat="48.13642" lon="7.09199">
        <ele>1147.8</ele>
        <time>2021-08-05T11:32:52Z</time>
      </trkpt>
      <trkpt lat="48.13645" lon="7.09194">
        <ele>1147.8</ele>
        <time>2021-08-05T11:32:53Z</time>
      </trkpt>
      <trkpt lat="48.13645" lon="7.09189">
        <ele>1147.8</ele>
        <time>2021-08-05T11:32:54Z</time>
      </trkpt>
      <trkpt lat="48.13645" lon="7.09184">
        <ele>1147.8</ele>
        <time>2021-08-05T11:32:56Z</time>
      </trkpt>
      <trkpt lat="48.13644" lon="7.09179">
        <ele>1147.8</ele>
        <time>2021-08-05T11:32:57Z</time>
      </trkpt>
      <trkpt lat="48.13642" lon="7.09174">
        <ele>1147.8</ele>
        <time>2021-08-05T11:32:58Z</time>
      </trkpt>
      <trkpt lat="48.13641" lon="7.09171">
        <ele>1147.8</ele>
        <time>2021-08-05T11:32:59Z</time>
      </trkpt>
      <trkpt lat="48.1364" lon="7.09165">
        <ele>1147.8</ele>
        <time>2021-08-05T11:33:00Z</time>
      </trkpt>
      <trkpt lat="48.13639" lon="7.09163">
        <ele>1147.8</ele>
        <time>2021-08-05T11:33:01Z</time>
      </trkpt>
      <trkpt lat="48.13638" lon="7.09156">
        <ele>1147.8</ele>
        <time>2021-08-05T11:33:03Z</time>
      </trkpt>
      <trkpt lat="48.13637" lon="7.0915">
        <ele>1147.8</ele>
        <time>2021-08-05T11:33:04Z</time>
      </trkpt>
      <trkpt lat="48.13637" lon="7.09141">
        <ele>1147.8</ele>
        <time>2021-08-05T11:33:06Z</time>
      </trkpt>
      <trkpt lat="48.13636" lon="7.09135">
        <ele>1147.8</ele>
        <time>2021-08-05T11:33:07Z</time>
      </trkpt>
      <trkpt lat="48.13635" lon="7.09128">
        <ele>1147.7</ele>
        <time>2021-08-05T11:33:08Z</time>
      </trkpt>
      <trkpt lat="48.13635" lon="7.09122">
        <ele>1147.7</ele>
        <time>2021-08-05T11:33:09Z</time>
      </trkpt>
      <trkpt lat="48.13635" lon="7.09116">
        <ele>1147.7</ele>
        <time>2021-08-05T11:33:10Z</time>
      </trkpt>
      <trkpt lat="48.13636" lon="7.0911">
        <ele>1147.7</ele>
        <time>2021-08-05T11:33:12Z</time>
      </trkpt>
      <trkpt lat="48.13636" lon="7.09103">
        <ele>1147.6</ele>
        <time>2021-08-05T11:33:13Z</time>
      </trkpt>
      <trkpt lat="48.13637" lon="7.09092">
        <ele>1147.5</ele>
        <time>2021-08-05T11:33:15Z</time>
      </trkpt>
      <trkpt lat="48.13637" lon="7.09086">
        <ele>1147.4</ele>
        <time>2021-08-05T11:33:16Z</time>
      </trkpt>
      <trkpt lat="48.13637" lon="7.09081">
        <ele>1147.4</ele>
        <time>2021-08-05T11:33:17Z</time>
      </trkpt>
      <trkpt lat="48.13636" lon="7.09072">
        <ele>1147.3</ele>
        <time>2021-08-05T11:33:19Z</time>
      </trkpt>
      <trkpt lat="48.13635" lon="7.09065">
        <ele>1147.2</ele>
        <time>2021-08-05T11:33:20Z</time>
      </trkpt>
      <trkpt lat="48.13635" lon="7.09058">
        <ele>1147.2</ele>
        <time>2021-08-05T11:33:22Z</time>
      </trkpt>
      <trkpt lat="48.13635" lon="7.09053">
        <ele>1147.1</ele>
        <time>2021-08-05T11:33:23Z</time>
      </trkpt>
      <trkpt lat="48.13636" lon="7.09049">
        <ele>1147.1</ele>
        <time>2021-08-05T11:33:25Z</time>
      </trkpt>
      <trkpt lat="48.13637" lon="7.09046">
        <ele>1147.1</ele>
        <time>2021-08-05T11:33:26Z</time>
      </trkpt>
      <trkpt lat="48.13637" lon="7.09044">
        <ele>1147.1</ele>
        <time>2021-08-05T11:33:27Z</time>
      </trkpt>
      <trkpt lat="48.13635" lon="7.09048">
        <ele>1147.2</ele>
        <time>2021-08-05T11:33:28Z</time>
      </trkpt>
      <trkpt lat="48.13635" lon="7.09049">
        <ele>1147.2</ele>
        <time>2021-08-05T11:33:30Z</time>
      </trkpt>
      <trkpt lat="48.13635" lon="7.0905">
        <ele>1147.2</ele>
        <time>2021-08-05T11:33:32Z</time>
      </trkpt>
      <trkpt lat="48.13636" lon="7.0905">
        <ele>1147.2</ele>
        <time>2021-08-05T11:33:34Z</time>
      </trkpt>
      <trkpt lat="48.13636" lon="7.09051">
        <ele>1147.2</ele>
        <time>2021-08-05T11:33:36Z</time>
      </trkpt>
      <trkpt lat="48.13634" lon="7.0906">
        <ele>1147.3</ele>
        <time>2021-08-05T11:34:41Z</time>
      </trkpt>
      <trkpt lat="48.13635" lon="7.09065">
        <ele>1147.3</ele>
        <time>2021-08-05T11:34:42Z</time>
      </trkpt>
      <trkpt lat="48.13635" lon="7.09075">
        <ele>1147.4</ele>
        <time>2021-08-05T11:34:43Z</time>
      </trkpt>
      <trkpt lat="48.13634" lon="7.09083">
        <ele>1147.5</ele>
        <time>2021-08-05T11:34:44Z</time>
      </trkpt>
      <trkpt lat="48.13633" lon="7.09098">
        <ele>1147.6</ele>
        <time>2021-08-05T11:34:45Z</time>
      </trkpt>
      <trkpt lat="48.13633" lon="7.09105">
        <ele>1147.7</ele>
        <time>2021-08-05T11:34:46Z</time>
      </trkpt>
      <trkpt lat="48.13635" lon="7.09116">
        <ele>1147.7</ele>
        <time>2021-08-05T11:34:48Z</time>
      </trkpt>
      <trkpt lat="48.13636" lon="7.09122">
        <ele>1147.7</ele>
        <time>2021-08-05T11:34:49Z</time>
      </trkpt>
      <trkpt lat="48.13636" lon="7.09127">
        <ele>1147.8</ele>
        <time>2021-08-05T11:34:50Z</time>
      </trkpt>
      <trkpt lat="48.13638" lon="7.09131">
        <ele>1147.8</ele>
        <time>2021-08-05T11:34:51Z</time>
      </trkpt>
      <trkpt lat="48.1364" lon="7.09135">
        <ele>1147.8</ele>
        <time>2021-08-05T11:34:52Z</time>
      </trkpt>
      <trkpt lat="48.13641" lon="7.09139">
        <ele>1147.8</ele>
        <time>2021-08-05T11:34:53Z</time>
      </trkpt>
      <trkpt lat="48.13641" lon="7.09146">
        <ele>1147.8</ele>
        <time>2021-08-05T11:34:55Z</time>
      </trkpt>
      <trkpt lat="48.13642" lon="7.09152">
        <ele>1147.8</ele>
        <time>2021-08-05T11:34:56Z</time>
      </trkpt>
      <trkpt lat="48.13642" lon="7.09161">
        <ele>1147.8</ele>
        <time>2021-08-05T11:34:58Z</time>
      </trkpt>
      <trkpt lat="48.13643" lon="7.09165">
        <ele>1147.8</ele>
        <time>2021-08-05T11:34:59Z</time>
      </trkpt>
      <trkpt lat="48.13642" lon="7.09174">
        <ele>1147.8</ele>
        <time>2021-08-05T11:35:01Z</time>
      </trkpt>
      <trkpt lat="48.13642" lon="7.0918">
        <ele>1147.8</ele>
        <time>2021-08-05T11:35:02Z</time>
      </trkpt>
      <trkpt lat="48.13642" lon="7.09185">
        <ele>1147.8</ele>
        <time>2021-08-05T11:35:03Z</time>
      </trkpt>
      <trkpt lat="48.13642" lon="7.09191">
        <ele>1147.8</ele>
        <time>2021-08-05T11:35:04Z</time>
      </trkpt>
      <trkpt lat="48.13642" lon="7.09203">
        <ele>1147.7</ele>
        <time>2021-08-05T11:35:06Z</time>
      </trkpt>
      <trkpt lat="48.13642" lon="7.09216">
        <ele>1147.6</ele>
        <time>2021-08-05T11:35:08Z</time>
      </trkpt>
      <trkpt lat="48.13643" lon="7.09228">
        <ele>1147.4</ele>
        <time>2021-08-05T11:35:09Z</time>
      </trkpt>
      <trkpt lat="48.13643" lon="7.09236">
        <ele>1147.3</ele>
        <time>2021-08-05T11:35:10Z</time>
      </trkpt>
      <trkpt lat="48.13643" lon="7.09252">
        <ele>1147.1</ele>
        <time>2021-08-05T11:35:12Z</time>
      </trkpt>
      <trkpt lat="48.13643" lon="7.0926">
        <ele>1146.9</ele>
        <time>2021-08-05T11:35:13Z</time>
      </trkpt>
      <trkpt lat="48.13643" lon="7.0927">
        <ele>1146.8</ele>
        <time>2021-08-05T11:35:14Z</time>
      </trkpt>
      <trkpt lat="48.13641" lon="7.09288">
        <ele>1146.6</ele>
        <time>2021-08-05T11:35:16Z</time>
      </trkpt>
      <trkpt lat="48.13639" lon="7.09297">
        <ele>1146.5</ele>
        <time>2021-08-05T11:35:17Z</time>
      </trkpt>
      <trkpt lat="48.13638" lon="7.09313">
        <ele>1146.3</ele>
        <time>2021-08-05T11:35:19Z</time>
      </trkpt>
      <trkpt lat="48.13636" lon="7.09331">
        <ele>1146.1</ele>
        <time>2021-08-05T11:35:21Z</time>
      </trkpt>
      <trkpt lat="48.13635" lon="7.09339">
        <ele>1146</ele>
        <time>2021-08-05T11:35:22Z</time>
      </trkpt>
      <trkpt lat="48.13635" lon="7.09346">
        <ele>1146</ele>
        <time>2021-08-05T11:35:23Z</time>
      </trkpt>
      <trkpt lat="48.13634" lon="7.09358">
        <ele>1145.9</ele>
        <time>2021-08-05T11:35:25Z</time>
      </trkpt>
      <trkpt lat="48.13633" lon="7.09364">
        <ele>1145.9</ele>
        <time>2021-08-05T11:35:27Z</time>
      </trkpt>
      <trkpt lat="48.13632" lon="7.09371">
        <ele>1145.9</ele>
        <time>2021-08-05T11:35:29Z</time>
      </trkpt>
      <trkpt lat="48.13632" lon="7.09373">
        <ele>1145.9</ele>
        <time>2021-08-05T11:35:30Z</time>
      </trkpt>
      <trkpt lat="48.13632" lon="7.09374">
        <ele>1145.9</ele>
        <time>2021-08-05T11:35:31Z</time>
      </trkpt>
      <trkpt lat="48.13632" lon="7.09376">
        <ele>1145.9</ele>
        <time>2021-08-05T11:35:33Z</time>
      </trkpt>
      <trkpt lat="48.13632" lon="7.09378">
        <ele>1145.9</ele>
        <time>2021-08-05T11:35:34Z</time>
      </trkpt>
      <trkpt lat="48.13632" lon="7.0938">
        <ele>1145.9</ele>
        <time>2021-08-05T11:35:35Z</time>
      </trkpt>
      <trkpt lat="48.13632" lon="7.09386">
        <ele>1145.9</ele>
        <time>2021-08-05T11:35:37Z</time>
      </trkpt>
      <trkpt lat="48.13631" lon="7.09389">
        <ele>1146</ele>
        <time>2021-08-05T11:35:38Z</time>
      </trkpt>
      <trkpt lat="48.1363" lon="7.09394">
        <ele>1146</ele>
        <time>2021-08-05T11:35:40Z</time>
      </trkpt>
      <trkpt lat="48.13628" lon="7.09398">
        <ele>1146</ele>
        <time>2021-08-05T11:35:41Z</time>
      </trkpt>
      <trkpt lat="48.13627" lon="7.09402">
        <ele>1146</ele>
        <time>2021-08-05T11:35:42Z</time>
      </trkpt>
      <trkpt lat="48.13626" lon="7.09406">
        <ele>1146.1</ele>
        <time>2021-08-05T11:35:43Z</time>
      </trkpt>
      <trkpt lat="48.13623" lon="7.09412">
        <ele>1146.1</ele>
        <time>2021-08-05T11:35:45Z</time>
      </trkpt>
      <trkpt lat="48.1362" lon="7.09414">
        <ele>1146.1</ele>
        <time>2021-08-05T11:35:47Z</time>
      </trkpt>
      <trkpt lat="48.13614" lon="7.09418">
        <ele>1145.9</ele>
        <time>2021-08-05T11:35:49Z</time>
      </trkpt>
      <trkpt lat="48.13612" lon="7.09421">
        <ele>1145.7</ele>
        <time>2021-08-05T11:35:50Z</time>
      </trkpt>
      <trkpt lat="48.13607" lon="7.09426">
        <ele>1145.5</ele>
        <time>2021-08-05T11:35:51Z</time>
      </trkpt>
      <trkpt lat="48.13602" lon="7.09431">
        <ele>1145.2</ele>
        <time>2021-08-05T11:35:53Z</time>
      </trkpt>
      <trkpt lat="48.13599" lon="7.09435">
        <ele>1145</ele>
        <time>2021-08-05T11:35:54Z</time>
      </trkpt>
      <trkpt lat="48.13595" lon="7.09441">
        <ele>1144.8</ele>
        <time>2021-08-05T11:35:55Z</time>
      </trkpt>
      <trkpt lat="48.13592" lon="7.09446">
        <ele>1144.6</ele>
        <time>2021-08-05T11:35:56Z</time>
      </trkpt>
      <trkpt lat="48.13589" lon="7.09451">
        <ele>1144.5</ele>
        <time>2021-08-05T11:35:58Z</time>
      </trkpt>
      <trkpt lat="48.13587" lon="7.09456">
        <ele>1144.4</ele>
        <time>2021-08-05T11:35:59Z</time>
      </trkpt>
      <trkpt lat="48.13585" lon="7.0946">
        <ele>1144.3</ele>
        <time>2021-08-05T11:36:00Z</time>
      </trkpt>
      <trkpt lat="48.13582" lon="7.09464">
        <ele>1144.2</ele>
        <time>2021-08-05T11:36:01Z</time>
      </trkpt>
      <trkpt lat="48.13577" lon="7.0947">
        <ele>1144</ele>
        <time>2021-08-05T11:36:02Z</time>
      </trkpt>
      <trkpt lat="48.13574" lon="7.09475">
        <ele>1143.8</ele>
        <time>2021-08-05T11:36:03Z</time>
      </trkpt>
      <trkpt lat="48.1357" lon="7.09482">
        <ele>1143.6</ele>
        <time>2021-08-05T11:36:05Z</time>
      </trkpt>
      <trkpt lat="48.13567" lon="7.09489">
        <ele>1143.6</ele>
        <time>2021-08-05T11:36:06Z</time>
      </trkpt>
      <trkpt lat="48.13564" lon="7.09495">
        <ele>1143.5</ele>
        <time>2021-08-05T11:36:07Z</time>
      </trkpt>
      <trkpt lat="48.13561" lon="7.09503">
        <ele>1143.5</ele>
        <time>2021-08-05T11:36:08Z</time>
      </trkpt>
      <trkpt lat="48.13555" lon="7.09513">
        <ele>1143.3</ele>
        <time>2021-08-05T11:36:10Z</time>
      </trkpt>
      <trkpt lat="48.13553" lon="7.0952">
        <ele>1143.2</ele>
        <time>2021-08-05T11:36:11Z</time>
      </trkpt>
      <trkpt lat="48.1355" lon="7.09526">
        <ele>1143.1</ele>
        <time>2021-08-05T11:36:12Z</time>
      </trkpt>
      <trkpt lat="48.13548" lon="7.09531">
        <ele>1143</ele>
        <time>2021-08-05T11:36:13Z</time>
      </trkpt>
      <trkpt lat="48.13547" lon="7.09533">
        <ele>1143</ele>
        <time>2021-08-05T11:36:14Z</time>
      </trkpt>
      <trkpt lat="48.13544" lon="7.0954">
        <ele>1142.9</ele>
        <time>2021-08-05T11:36:15Z</time>
      </trkpt>
      <trkpt lat="48.13541" lon="7.09547">
        <ele>1142.8</ele>
        <time>2021-08-05T11:36:17Z</time>
      </trkpt>
      <trkpt lat="48.13538" lon="7.09551">
        <ele>1142.7</ele>
        <time>2021-08-05T11:36:18Z</time>
      </trkpt>
      <trkpt lat="48.13534" lon="7.09556">
        <ele>1142.6</ele>
        <time>2021-08-05T11:36:19Z</time>
      </trkpt>
      <trkpt lat="48.13531" lon="7.09561">
        <ele>1142.6</ele>
        <time>2021-08-05T11:36:20Z</time>
      </trkpt>
      <trkpt lat="48.13529" lon="7.09567">
        <ele>1142.5</ele>
        <time>2021-08-05T11:36:21Z</time>
      </trkpt>
      <trkpt lat="48.13527" lon="7.09574">
        <ele>1142.4</ele>
        <time>2021-08-05T11:36:23Z</time>
      </trkpt>
      <trkpt lat="48.13524" lon="7.0958">
        <ele>1142.3</ele>
        <time>2021-08-05T11:36:24Z</time>
      </trkpt>
      <trkpt lat="48.13523" lon="7.09587">
        <ele>1142.2</ele>
        <time>2021-08-05T11:36:25Z</time>
      </trkpt>
      <trkpt lat="48.13521" lon="7.09594">
        <ele>1142.1</ele>
        <time>2021-08-05T11:36:26Z</time>
      </trkpt>
      <trkpt lat="48.1352" lon="7.096">
        <ele>1142</ele>
        <time>2021-08-05T11:36:27Z</time>
      </trkpt>
      <trkpt lat="48.13519" lon="7.09606">
        <ele>1142</ele>
        <time>2021-08-05T11:36:29Z</time>
      </trkpt>
      <trkpt lat="48.13519" lon="7.09607">
        <ele>1142</ele>
        <time>2021-08-05T11:36:30Z</time>
      </trkpt>
      <trkpt lat="48.13519" lon="7.09605">
        <ele>1141.9</ele>
        <time>2021-08-05T11:36:32Z</time>
      </trkpt>
      <trkpt lat="48.13518" lon="7.09604">
        <ele>1141.9</ele>
        <time>2021-08-05T11:36:33Z</time>
      </trkpt>
      <trkpt lat="48.13518" lon="7.09603">
        <ele>1141.9</ele>
        <time>2021-08-05T11:36:34Z</time>
      </trkpt>
      <trkpt lat="48.13518" lon="7.09602">
        <ele>1141.9</ele>
        <time>2021-08-05T11:36:36Z</time>
      </trkpt>
      <trkpt lat="48.13518" lon="7.09602">
        <ele>1141.9</ele>
        <time>2021-08-05T11:36:37Z</time>
      </trkpt>
      <trkpt lat="48.13518" lon="7.09603">
        <ele>1141.9</ele>
        <time>2021-08-05T11:36:38Z</time>
      </trkpt>
      <trkpt lat="48.13518" lon="7.09603">
        <ele>1141.9</ele>
        <time>2021-08-05T11:36:40Z</time>
      </trkpt>
      <trkpt lat="48.13521" lon="7.09592">
        <ele>1141.7</ele>
        <time>2021-08-05T11:36:58Z</time>
      </trkpt>
      <trkpt lat="48.13522" lon="7.09588">
        <ele>1141.6</ele>
        <time>2021-08-05T11:37:00Z</time>
      </trkpt>
      <trkpt lat="48.13524" lon="7.09584">
        <ele>1141.5</ele>
        <time>2021-08-05T11:37:01Z</time>
      </trkpt>
      <trkpt lat="48.13526" lon="7.0958">
        <ele>1141.6</ele>
        <time>2021-08-05T11:37:02Z</time>
      </trkpt>
      <trkpt lat="48.13528" lon="7.09576">
        <ele>1141.7</ele>
        <time>2021-08-05T11:37:03Z</time>
      </trkpt>
      <trkpt lat="48.13531" lon="7.09572">
        <ele>1141.8</ele>
        <time>2021-08-05T11:37:04Z</time>
      </trkpt>
      <trkpt lat="48.13533" lon="7.09568">
        <ele>1142</ele>
        <time>2021-08-05T11:37:05Z</time>
      </trkpt>
      <trkpt lat="48.13536" lon="7.09564">
        <ele>1142.1</ele>
        <time>2021-08-05T11:37:06Z</time>
      </trkpt>
      <trkpt lat="48.13538" lon="7.09561">
        <ele>1142.2</ele>
        <time>2021-08-05T11:37:07Z</time>
      </trkpt>
      <trkpt lat="48.13541" lon="7.09557">
        <ele>1142.3</ele>
        <time>2021-08-05T11:37:09Z</time>
      </trkpt>
      <trkpt lat="48.13542" lon="7.09553">
        <ele>1142.3</ele>
        <time>2021-08-05T11:37:10Z</time>
      </trkpt>
      <trkpt lat="48.13544" lon="7.0955">
        <ele>1142.4</ele>
        <time>2021-08-05T11:37:11Z</time>
      </trkpt>
      <trkpt lat="48.13546" lon="7.09547">
        <ele>1142.4</ele>
        <time>2021-08-05T11:37:12Z</time>
      </trkpt>
      <trkpt lat="48.13547" lon="7.09541">
        <ele>1142.5</ele>
        <time>2021-08-05T11:37:14Z</time>
      </trkpt>
      <trkpt lat="48.13548" lon="7.09537">
        <ele>1142.6</ele>
        <time>2021-08-05T11:37:15Z</time>
      </trkpt>
      <trkpt lat="48.1355" lon="7.09531">
        <ele>1142.7</ele>
        <time>2021-08-05T11:37:16Z</time>
      </trkpt>
      <trkpt lat="48.13551" lon="7.09527">
        <ele>1142.8</ele>
        <time>2021-08-05T11:37:17Z</time>
      </trkpt>
      <trkpt lat="48.13553" lon="7.09523">
        <ele>1142.8</ele>
        <time>2021-08-05T11:37:18Z</time>
      </trkpt>
      <trkpt lat="48.13555" lon="7.09517">
        <ele>1143</ele>
        <time>2021-08-05T11:37:20Z</time>
      </trkpt>
      <trkpt lat="48.13556" lon="7.09514">
        <ele>1143</ele>
        <time>2021-08-05T11:37:21Z</time>
      </trkpt>
      <trkpt lat="48.13557" lon="7.09509">
        <ele>1143.1</ele>
        <time>2021-08-05T11:37:23Z</time>
      </trkpt>
      <trkpt lat="48.13558" lon="7.09507">
        <ele>1143.2</ele>
        <time>2021-08-05T11:37:24Z</time>
      </trkpt>
      <trkpt lat="48.13557" lon="7.09505">
        <ele>1143.2</ele>
        <time>2021-08-05T11:37:25Z</time>
      </trkpt>
      <trkpt lat="48.13557" lon="7.09502">
        <ele>1143.3</ele>
        <time>2021-08-05T11:37:27Z</time>
      </trkpt>
      <trkpt lat="48.13558" lon="7.09503">
        <ele>1143.3</ele>
        <time>2021-08-05T11:37:28Z</time>
      </trkpt>
      <trkpt lat="48.13558" lon="7.09503">
        <ele>1143.3</ele>
        <time>2021-08-05T11:37:29Z</time>
      </trkpt>
      <trkpt lat="48.13558" lon="7.09503">
        <ele>1143.3</ele>
        <time>2021-08-05T11:37:31Z</time>
      </trkpt>
      <trkpt lat="48.13558" lon="7.09503">
        <ele>1143.3</ele>
        <time>2021-08-05T11:37:32Z</time>
      </trkpt>
      <trkpt lat="48.13558" lon="7.09503">
        <ele>1143.3</ele>
        <time>2021-08-05T11:37:34Z</time>
      </trkpt>
      <trkpt lat="48.13558" lon="7.09503">
        <ele>1143.3</ele>
        <time>2021-08-05T11:37:35Z</time>
      </trkpt>
      <trkpt lat="48.13563" lon="7.09491">
        <ele>1143.5</ele>
        <time>2021-08-05T11:38:13Z</time>
      </trkpt>
      <trkpt lat="48.13564" lon="7.09486">
        <ele>1143.5</ele>
        <time>2021-08-05T11:38:14Z</time>
      </trkpt>
      <trkpt lat="48.13565" lon="7.09481">
        <ele>1143.6</ele>
        <time>2021-08-05T11:38:15Z</time>
      </trkpt>
      <trkpt lat="48.13565" lon="7.09476">
        <ele>1143.6</ele>
        <time>2021-08-05T11:38:17Z</time>
      </trkpt>
      <trkpt lat="48.13565" lon="7.09472">
        <ele>1142.2</ele>
        <time>2021-08-05T11:38:18Z</time>
      </trkpt>
      <trkpt lat="48.13565" lon="7.09469">
        <ele>1141.9</ele>
        <time>2021-08-05T11:38:20Z</time>
      </trkpt>
      <trkpt lat="48.13564" lon="7.09466">
        <ele>1141.6</ele>
        <time>2021-08-05T11:38:21Z</time>
      </trkpt>
      <trkpt lat="48.13562" lon="7.09464">
        <ele>1141.3</ele>
        <time>2021-08-05T11:38:23Z</time>
      </trkpt>
      <trkpt lat="48.1356" lon="7.09461">
        <ele>1140.9</ele>
        <time>2021-08-05T11:38:24Z</time>
      </trkpt>
      <trkpt lat="48.13558" lon="7.09459">
        <ele>1140.6</ele>
        <time>2021-08-05T11:38:25Z</time>
      </trkpt>
      <trkpt lat="48.13555" lon="7.09457">
        <ele>1140.3</ele>
        <time>2021-08-05T11:38:26Z</time>
      </trkpt>
      <trkpt lat="48.13553" lon="7.09455">
        <ele>1140</ele>
        <time>2021-08-05T11:38:28Z</time>
      </trkpt>
      <trkpt lat="48.13551" lon="7.09452">
        <ele>1139.6</ele>
        <time>2021-08-05T11:39:54Z</time>
      </trkpt>
      <trkpt lat="48.13549" lon="7.0945">
        <ele>1139.3</ele>
        <time>2021-08-05T11:39:55Z</time>
      </trkpt>
      <trkpt lat="48.13541" lon="7.09449">
        <ele>1138.3</ele>
        <time>2021-08-05T11:39:57Z</time>
      </trkpt>
      <trkpt lat="48.13534" lon="7.0945">
        <ele>1137.5</ele>
        <time>2021-08-05T11:39:58Z</time>
      </trkpt>
      <trkpt lat="48.13527" lon="7.09451">
        <ele>1136.7</ele>
        <time>2021-08-05T11:39:59Z</time>
      </trkpt>
      <trkpt lat="48.13522" lon="7.09454">
        <ele>1136.2</ele>
        <time>2021-08-05T11:40:00Z</time>
      </trkpt>
      <trkpt lat="48.13515" lon="7.09458">
        <ele>1135.1</ele>
        <time>2021-08-05T11:40:02Z</time>
      </trkpt>
      <trkpt lat="48.13506" lon="7.09463">
        <ele>1134.6</ele>
        <time>2021-08-05T11:40:04Z</time>
      </trkpt>
      <trkpt lat="48.13501" lon="7.09466">
        <ele>1134.4</ele>
        <time>2021-08-05T11:40:05Z</time>
      </trkpt>
      <trkpt lat="48.13497" lon="7.09468">
        <ele>1134.1</ele>
        <time>2021-08-05T11:40:06Z</time>
      </trkpt>
      <trkpt lat="48.13485" lon="7.09475">
        <ele>1133.5</ele>
        <time>2021-08-05T11:40:08Z</time>
      </trkpt>
      <trkpt lat="48.13476" lon="7.09485">
        <ele>1133</ele>
        <time>2021-08-05T11:40:10Z</time>
      </trkpt>
      <trkpt lat="48.13471" lon="7.0949">
        <ele>1132.7</ele>
        <time>2021-08-05T11:40:11Z</time>
      </trkpt>
      <trkpt lat="48.13466" lon="7.09495">
        <ele>1132.5</ele>
        <time>2021-08-05T11:40:12Z</time>
      </trkpt>
      <trkpt lat="48.13458" lon="7.09505">
        <ele>1131.7</ele>
        <time>2021-08-05T11:40:14Z</time>
      </trkpt>
      <trkpt lat="48.1345" lon="7.09516">
        <ele>1130.7</ele>
        <time>2021-08-05T11:40:16Z</time>
      </trkpt>
      <trkpt lat="48.13445" lon="7.09521">
        <ele>1130.1</ele>
        <time>2021-08-05T11:40:17Z</time>
      </trkpt>
      <trkpt lat="48.13441" lon="7.09527">
        <ele>1129.4</ele>
        <time>2021-08-05T11:40:18Z</time>
      </trkpt>
      <trkpt lat="48.13431" lon="7.09539">
        <ele>1128.1</ele>
        <time>2021-08-05T11:40:20Z</time>
      </trkpt>
      <trkpt lat="48.13423" lon="7.0955">
        <ele>1127</ele>
        <time>2021-08-05T11:40:22Z</time>
      </trkpt>
      <trkpt lat="48.13418" lon="7.09563">
        <ele>1126</ele>
        <time>2021-08-05T11:40:24Z</time>
      </trkpt>
      <trkpt lat="48.13413" lon="7.09577">
        <ele>1124.8</ele>
        <time>2021-08-05T11:40:26Z</time>
      </trkpt>
      <trkpt lat="48.13411" lon="7.09582">
        <ele>1124.2</ele>
        <time>2021-08-05T11:40:27Z</time>
      </trkpt>
      <trkpt lat="48.13405" lon="7.09585">
        <ele>1123.1</ele>
        <time>2021-08-05T11:40:29Z</time>
      </trkpt>
      <trkpt lat="48.13402" lon="7.09584">
        <ele>1122.6</ele>
        <time>2021-08-05T11:40:30Z</time>
      </trkpt>
      <trkpt lat="48.13394" lon="7.09578">
        <ele>1121</ele>
        <time>2021-08-05T11:40:32Z</time>
      </trkpt>
      <trkpt lat="48.1339" lon="7.0957">
        <ele>1119.8</ele>
        <time>2021-08-05T11:40:33Z</time>
      </trkpt>
      <trkpt lat="48.13386" lon="7.09567">
        <ele>1119.1</ele>
        <time>2021-08-05T11:40:35Z</time>
      </trkpt>
      <trkpt lat="48.13383" lon="7.0956">
        <ele>1118.2</ele>
        <time>2021-08-05T11:40:36Z</time>
      </trkpt>
      <trkpt lat="48.13379" lon="7.0955">
        <ele>1117.2</ele>
        <time>2021-08-05T11:40:38Z</time>
      </trkpt>
      <trkpt lat="48.13377" lon="7.09544">
        <ele>1116.6</ele>
        <time>2021-08-05T11:40:39Z</time>
      </trkpt>
      <trkpt lat="48.13376" lon="7.0954">
        <ele>1116.2</ele>
        <time>2021-08-05T11:40:40Z</time>
      </trkpt>
      <trkpt lat="48.13375" lon="7.09537">
        <ele>1115.9</ele>
        <time>2021-08-05T11:40:41Z</time>
      </trkpt>
      <trkpt lat="48.13374" lon="7.09534">
        <ele>1115.5</ele>
        <time>2021-08-05T11:40:43Z</time>
      </trkpt>
      <trkpt lat="48.13375" lon="7.09533">
        <ele>1115.4</ele>
        <time>2021-08-05T11:40:44Z</time>
      </trkpt>
      <trkpt lat="48.13375" lon="7.09532">
        <ele>1115.3</ele>
        <time>2021-08-05T11:40:45Z</time>
      </trkpt>
      <trkpt lat="48.13375" lon="7.09532">
        <ele>1115.2</ele>
        <time>2021-08-05T11:40:46Z</time>
      </trkpt>
      <trkpt lat="48.13375" lon="7.09532">
        <ele>1115.2</ele>
        <time>2021-08-05T11:40:48Z</time>
      </trkpt>
      <trkpt lat="48.13375" lon="7.09532">
        <ele>1115.2</ele>
        <time>2021-08-05T11:40:50Z</time>
      </trkpt>
      <trkpt lat="48.13375" lon="7.09532">
        <ele>1115.2</ele>
        <time>2021-08-05T11:40:51Z</time>
      </trkpt>
      <trkpt lat="48.13373" lon="7.09515">
        <ele>1112.8</ele>
        <time>2021-08-05T11:41:21Z</time>
      </trkpt>
      <trkpt lat="48.13372" lon="7.0951">
        <ele>1112.1</ele>
        <time>2021-08-05T11:41:22Z</time>
      </trkpt>
      <trkpt lat="48.1337" lon="7.09504">
        <ele>1111.4</ele>
        <time>2021-08-05T11:41:23Z</time>
      </trkpt>
      <trkpt lat="48.13366" lon="7.09498">
        <ele>1111</ele>
        <time>2021-08-05T11:41:24Z</time>
      </trkpt>
      <trkpt lat="48.13361" lon="7.09492">
        <ele>1110.4</ele>
        <time>2021-08-05T11:41:26Z</time>
      </trkpt>
      <trkpt lat="48.13358" lon="7.0949">
        <ele>1110.1</ele>
        <time>2021-08-05T11:41:27Z</time>
      </trkpt>
      <trkpt lat="48.13355" lon="7.09487">
        <ele>1109.7</ele>
        <time>2021-08-05T11:41:29Z</time>
      </trkpt>
      <trkpt lat="48.13352" lon="7.09484">
        <ele>1109.4</ele>
        <time>2021-08-05T11:41:30Z</time>
      </trkpt>
      <trkpt lat="48.13351" lon="7.09484">
        <ele>1109.3</ele>
        <time>2021-08-05T11:41:31Z</time>
      </trkpt>
      <trkpt lat="48.13351" lon="7.09482">
        <ele>1109.2</ele>
        <time>2021-08-05T11:41:32Z</time>
      </trkpt>
      <trkpt lat="48.13351" lon="7.09482">
        <ele>1109.2</ele>
        <time>2021-08-05T11:41:34Z</time>
      </trkpt>
      <trkpt lat="48.13352" lon="7.09482">
        <ele>1109.1</ele>
        <time>2021-08-05T11:41:36Z</time>
      </trkpt>
      <trkpt lat="48.13352" lon="7.09482">
        <ele>1109.1</ele>
        <time>2021-08-05T11:41:37Z</time>
      </trkpt>
      <trkpt lat="48.13353" lon="7.09482">
        <ele>1109.1</ele>
        <time>2021-08-05T11:41:39Z</time>
      </trkpt>
      <trkpt lat="48.13353" lon="7.09482">
        <ele>1109.1</ele>
        <time>2021-08-05T11:41:40Z</time>
      </trkpt>
      <trkpt lat="48.13353" lon="7.09482">
        <ele>1109.1</ele>
        <time>2021-08-05T11:41:42Z</time>
      </trkpt>
      <trkpt lat="48.13352" lon="7.09473">
        <ele>1109.1</ele>
        <time>2021-08-05T11:42:07Z</time>
      </trkpt>
      <trkpt lat="48.13353" lon="7.09467">
        <ele>1109.3</ele>
        <time>2021-08-05T11:42:08Z</time>
      </trkpt>
      <trkpt lat="48.13356" lon="7.09458">
        <ele>1109.8</ele>
        <time>2021-08-05T11:42:09Z</time>
      </trkpt>
      <trkpt lat="48.13358" lon="7.09452">
        <ele>1110</ele>
        <time>2021-08-05T11:42:11Z</time>
      </trkpt>
      <trkpt lat="48.1336" lon="7.09446">
        <ele>1110.2</ele>
        <time>2021-08-05T11:42:12Z</time>
      </trkpt>
      <trkpt lat="48.13361" lon="7.09439">
        <ele>1110.4</ele>
        <time>2021-08-05T11:42:13Z</time>
      </trkpt>
      <trkpt lat="48.13362" lon="7.09432">
        <ele>1110.5</ele>
        <time>2021-08-05T11:42:14Z</time>
      </trkpt>
      <trkpt lat="48.13363" lon="7.09425">
        <ele>1110.5</ele>
        <time>2021-08-05T11:42:15Z</time>
      </trkpt>
      <trkpt lat="48.13364" lon="7.0942">
        <ele>1110.5</ele>
        <time>2021-08-05T11:42:16Z</time>
      </trkpt>
      <trkpt lat="48.13364" lon="7.09416">
        <ele>1110.4</ele>
        <time>2021-08-05T11:42:17Z</time>
      </trkpt>
      <trkpt lat="48.13361" lon="7.09412">
        <ele>1110.4</ele>
        <time>2021-08-05T11:42:18Z</time>
      </trkpt>
      <trkpt lat="48.1336" lon="7.09411">
        <ele>1110.3</ele>
        <time>2021-08-05T11:42:19Z</time>
      </trkpt>
      <trkpt lat="48.13358" lon="7.09409">
        <ele>1110.3</ele>
        <time>2021-08-05T11:42:20Z</time>
      </trkpt>
      <trkpt lat="48.13356" lon="7.09409">
        <ele>1110.2</ele>
        <time>2021-08-05T11:42:22Z</time>
      </trkpt>
      <trkpt lat="48.13355" lon="7.09408">
        <ele>1110.2</ele>
        <time>2021-08-05T11:42:23Z</time>
      </trkpt>
      <trkpt lat="48.13353" lon="7.09408">
        <ele>1110.1</ele>
        <time>2021-08-05T11:42:24Z</time>
      </trkpt>
      <trkpt lat="48.13348" lon="7.094">
        <ele>1109.9</ele>
        <time>2021-08-05T11:42:25Z</time>
      </trkpt>
      <trkpt lat="48.13344" lon="7.09394">
        <ele>1109.8</ele>
        <time>2021-08-05T11:42:26Z</time>
      </trkpt>
      <trkpt lat="48.13343" lon="7.09384">
        <ele>1109.6</ele>
        <time>2021-08-05T11:42:28Z</time>
      </trkpt>
      <trkpt lat="48.13346" lon="7.09378">
        <ele>1109.4</ele>
        <time>2021-08-05T11:42:29Z</time>
      </trkpt>
      <trkpt lat="48.13343" lon="7.09368">
        <ele>1109.2</ele>
        <time>2021-08-05T11:42:31Z</time>
      </trkpt>
      <trkpt lat="48.13341" lon="7.09354">
        <ele>1109</ele>
        <time>2021-08-05T11:42:32Z</time>
      </trkpt>
      <trkpt lat="48.13343" lon="7.09339">
        <ele>1108.8</ele>
        <time>2021-08-05T11:42:34Z</time>
      </trkpt>
      <trkpt lat="48.13344" lon="7.09323">
        <ele>1108.2</ele>
        <time>2021-08-05T11:42:36Z</time>
      </trkpt>
      <trkpt lat="48.13342" lon="7.09316">
        <ele>1107.8</ele>
        <time>2021-08-05T11:42:37Z</time>
      </trkpt>
      <trkpt lat="48.13341" lon="7.09309">
        <ele>1107.3</ele>
        <time>2021-08-05T11:42:38Z</time>
      </trkpt>
      <trkpt lat="48.13337" lon="7.09306">
        <ele>1106.4</ele>
        <time>2021-08-05T11:42:40Z</time>
      </trkpt>
      <trkpt lat="48.13332" lon="7.09298">
        <ele>1106.6</ele>
        <time>2021-08-05T11:42:41Z</time>
      </trkpt>
      <trkpt lat="48.13328" lon="7.09295">
        <ele>1106.7</ele>
        <time>2021-08-05T11:42:42Z</time>
      </trkpt>
      <trkpt lat="48.13323" lon="7.09292">
        <ele>1106.9</ele>
        <time>2021-08-05T11:42:44Z</time>
      </trkpt>
      <trkpt lat="48.1332" lon="7.09289">
        <ele>1107</ele>
        <time>2021-08-05T11:42:45Z</time>
      </trkpt>
      <trkpt lat="48.13317" lon="7.09285">
        <ele>1107.2</ele>
        <time>2021-08-05T11:42:47Z</time>
      </trkpt>
      <trkpt lat="48.13313" lon="7.09284">
        <ele>1107.3</ele>
        <time>2021-08-05T11:42:48Z</time>
      </trkpt>
      <trkpt lat="48.13312" lon="7.09284">
        <ele>1107.3</ele>
        <time>2021-08-05T11:42:49Z</time>
      </trkpt>
      <trkpt lat="48.1331" lon="7.09284">
        <ele>1107.4</ele>
        <time>2021-08-05T11:42:51Z</time>
      </trkpt>
      <trkpt lat="48.1331" lon="7.09285">
        <ele>1107.4</ele>
        <time>2021-08-05T11:42:52Z</time>
      </trkpt>
      <trkpt lat="48.13306" lon="7.09284">
        <ele>1107.6</ele>
        <time>2021-08-05T11:42:53Z</time>
      </trkpt>
      <trkpt lat="48.13304" lon="7.09284">
        <ele>1107.7</ele>
        <time>2021-08-05T11:42:54Z</time>
      </trkpt>
      <trkpt lat="48.13301" lon="7.09284">
        <ele>1107.8</ele>
        <time>2021-08-05T11:42:55Z</time>
      </trkpt>
      <trkpt lat="48.13298" lon="7.09284">
        <ele>1107.9</ele>
        <time>2021-08-05T11:42:57Z</time>
      </trkpt>
      <trkpt lat="48.13295" lon="7.09283">
        <ele>1108.1</ele>
        <time>2021-08-05T11:42:58Z</time>
      </trkpt>
      <trkpt lat="48.1329" lon="7.09284">
        <ele>1108.3</ele>
        <time>2021-08-05T11:42:59Z</time>
      </trkpt>
      <trkpt lat="48.13287" lon="7.09283">
        <ele>1108.6</ele>
        <time>2021-08-05T11:43:01Z</time>
      </trkpt>
      <trkpt lat="48.13283" lon="7.09286">
        <ele>1108.9</ele>
        <time>2021-08-05T11:43:03Z</time>
      </trkpt>
      <trkpt lat="48.13279" lon="7.09289">
        <ele>1109.2</ele>
        <time>2021-08-05T11:43:05Z</time>
      </trkpt>
      <trkpt lat="48.13275" lon="7.0929">
        <ele>1109.5</ele>
        <time>2021-08-05T11:43:06Z</time>
      </trkpt>
      <trkpt lat="48.13272" lon="7.0929">
        <ele>1109.8</ele>
        <time>2021-08-05T11:43:07Z</time>
      </trkpt>
      <trkpt lat="48.13268" lon="7.09288">
        <ele>1110.1</ele>
        <time>2021-08-05T11:43:09Z</time>
      </trkpt>
      <trkpt lat="48.13266" lon="7.09286">
        <ele>1110.3</ele>
        <time>2021-08-05T11:43:10Z</time>
      </trkpt>
      <trkpt lat="48.13262" lon="7.09284">
        <ele>1110.7</ele>
        <time>2021-08-05T11:43:11Z</time>
      </trkpt>
      <trkpt lat="48.13261" lon="7.09284">
        <ele>1110.8</ele>
        <time>2021-08-05T11:43:12Z</time>
      </trkpt>
      <trkpt lat="48.13257" lon="7.09282">
        <ele>1111.1</ele>
        <time>2021-08-05T11:43:13Z</time>
      </trkpt>
      <trkpt lat="48.13253" lon="7.09282">
        <ele>1111.5</ele>
        <time>2021-08-05T11:43:15Z</time>
      </trkpt>
      <trkpt lat="48.13251" lon="7.09283">
        <ele>1111.6</ele>
        <time>2021-08-05T11:43:17Z</time>
      </trkpt>
      <trkpt lat="48.1325" lon="7.09284">
        <ele>1111.7</ele>
        <time>2021-08-05T11:43:18Z</time>
      </trkpt>
      <trkpt lat="48.13249" lon="7.09286">
        <ele>1111.8</ele>
        <time>2021-08-05T11:43:19Z</time>
      </trkpt>
      <trkpt lat="48.13248" lon="7.09286">
        <ele>1111.9</ele>
        <time>2021-08-05T11:43:21Z</time>
      </trkpt>
      <trkpt lat="48.13247" lon="7.09287">
        <ele>1112</ele>
        <time>2021-08-05T11:43:22Z</time>
      </trkpt>
      <trkpt lat="48.13244" lon="7.09287">
        <ele>1112.2</ele>
        <time>2021-08-05T11:43:23Z</time>
      </trkpt>
      <trkpt lat="48.13242" lon="7.09287">
        <ele>1112.4</ele>
        <time>2021-08-05T11:43:25Z</time>
      </trkpt>
      <trkpt lat="48.13239" lon="7.09287">
        <ele>1112.5</ele>
        <time>2021-08-05T11:43:27Z</time>
      </trkpt>
      <trkpt lat="48.13236" lon="7.09288">
        <ele>1112.7</ele>
        <time>2021-08-05T11:43:29Z</time>
      </trkpt>
      <trkpt lat="48.13234" lon="7.09288">
        <ele>1112.8</ele>
        <time>2021-08-05T11:43:30Z</time>
      </trkpt>
      <trkpt lat="48.1323" lon="7.09289">
        <ele>1113</ele>
        <time>2021-08-05T11:43:32Z</time>
      </trkpt>
      <trkpt lat="48.13227" lon="7.09294">
        <ele>1113.3</ele>
        <time>2021-08-05T11:43:34Z</time>
      </trkpt>
      <trkpt lat="48.13226" lon="7.09295">
        <ele>1113.4</ele>
        <time>2021-08-05T11:43:35Z</time>
      </trkpt>
      <trkpt lat="48.13226" lon="7.09297">
        <ele>1113.5</ele>
        <time>2021-08-05T11:43:36Z</time>
      </trkpt>
      <trkpt lat="48.13224" lon="7.09302">
        <ele>1113.6</ele>
        <time>2021-08-05T11:43:38Z</time>
      </trkpt>
      <trkpt lat="48.13224" lon="7.09303">
        <ele>1113.7</ele>
        <time>2021-08-05T11:43:39Z</time>
      </trkpt>
      <trkpt lat="48.13222" lon="7.09303">
        <ele>1113.8</ele>
        <time>2021-08-05T11:43:40Z</time>
      </trkpt>
      <trkpt lat="48.13221" lon="7.09303">
        <ele>1113.9</ele>
        <time>2021-08-05T11:43:41Z</time>
      </trkpt>
      <trkpt lat="48.13219" lon="7.09303">
        <ele>1114</ele>
        <time>2021-08-05T11:43:43Z</time>
      </trkpt>
      <trkpt lat="48.13218" lon="7.09303">
        <ele>1114.1</ele>
        <time>2021-08-05T11:43:44Z</time>
      </trkpt>
      <trkpt lat="48.13216" lon="7.09303">
        <ele>1114.2</ele>
        <time>2021-08-05T11:43:45Z</time>
      </trkpt>
      <trkpt lat="48.13214" lon="7.09302">
        <ele>1114.3</ele>
        <time>2021-08-05T11:43:46Z</time>
      </trkpt>
      <trkpt lat="48.13214" lon="7.09302">
        <ele>1114.3</ele>
        <time>2021-08-05T11:43:47Z</time>
      </trkpt>
      <trkpt lat="48.13212" lon="7.09301">
        <ele>1114.5</ele>
        <time>2021-08-05T11:43:49Z</time>
      </trkpt>
      <trkpt lat="48.1321" lon="7.09299">
        <ele>1114.6</ele>
        <time>2021-08-05T11:43:50Z</time>
      </trkpt>
      <trkpt lat="48.13208" lon="7.09297">
        <ele>1114.8</ele>
        <time>2021-08-05T11:43:52Z</time>
      </trkpt>
      <trkpt lat="48.13206" lon="7.09295">
        <ele>1114.9</ele>
        <time>2021-08-05T11:43:53Z</time>
      </trkpt>
      <trkpt lat="48.13203" lon="7.09292">
        <ele>1115.2</ele>
        <time>2021-08-05T11:43:55Z</time>
      </trkpt>
      <trkpt lat="48.13201" lon="7.09292">
        <ele>1115.4</ele>
        <time>2021-08-05T11:43:56Z</time>
      </trkpt>
      <trkpt lat="48.13198" lon="7.09291">
        <ele>1115.6</ele>
        <time>2021-08-05T11:43:58Z</time>
      </trkpt>
      <trkpt lat="48.13196" lon="7.0929">
        <ele>1115.7</ele>
        <time>2021-08-05T11:43:59Z</time>
      </trkpt>
      <trkpt lat="48.13193" lon="7.09288">
        <ele>1116</ele>
        <time>2021-08-05T11:44:01Z</time>
      </trkpt>
      <trkpt lat="48.1319" lon="7.09284">
        <ele>1116.3</ele>
        <time>2021-08-05T11:44:02Z</time>
      </trkpt>
      <trkpt lat="48.13188" lon="7.09281">
        <ele>1116.5</ele>
        <time>2021-08-05T11:44:03Z</time>
      </trkpt>
      <trkpt lat="48.13185" lon="7.09278">
        <ele>1116.8</ele>
        <time>2021-08-05T11:44:05Z</time>
      </trkpt>
      <trkpt lat="48.13183" lon="7.09278">
        <ele>1117</ele>
        <time>2021-08-05T11:44:06Z</time>
      </trkpt>
      <trkpt lat="48.13185" lon="7.09282">
        <ele>1117.3</ele>
        <time>2021-08-05T11:44:07Z</time>
      </trkpt>
      <trkpt lat="48.13185" lon="7.09284">
        <ele>1117.4</ele>
        <time>2021-08-05T11:44:09Z</time>
      </trkpt>
      <trkpt lat="48.13185" lon="7.09285">
        <ele>1117.4</ele>
        <time>2021-08-05T11:44:10Z</time>
      </trkpt>
      <trkpt lat="48.13185" lon="7.09285">
        <ele>1117.5</ele>
        <time>2021-08-05T11:44:11Z</time>
      </trkpt>
      <trkpt lat="48.13185" lon="7.09285">
        <ele>1117.5</ele>
        <time>2021-08-05T11:44:12Z</time>
      </trkpt>
      <trkpt lat="48.13183" lon="7.09286">
        <ele>1117.6</ele>
        <time>2021-08-05T11:44:14Z</time>
      </trkpt>
      <trkpt lat="48.13181" lon="7.09287">
        <ele>1117.8</ele>
        <time>2021-08-05T11:44:16Z</time>
      </trkpt>
      <trkpt lat="48.13175" lon="7.09292">
        <ele>1118.4</ele>
        <time>2021-08-05T11:44:20Z</time>
      </trkpt>
      <trkpt lat="48.13172" lon="7.09294">
        <ele>1118.7</ele>
        <time>2021-08-05T11:44:21Z</time>
      </trkpt>
      <trkpt lat="48.13169" lon="7.09296">
        <ele>1119</ele>
        <time>2021-08-05T11:44:23Z</time>
      </trkpt>
      <trkpt lat="48.13168" lon="7.09297">
        <ele>1119.1</ele>
        <time>2021-08-05T11:44:24Z</time>
      </trkpt>
      <trkpt lat="48.13165" lon="7.09299">
        <ele>1119.3</ele>
        <time>2021-08-05T11:44:26Z</time>
      </trkpt>
      <trkpt lat="48.13164" lon="7.09299">
        <ele>1119.4</ele>
        <time>2021-08-05T11:44:27Z</time>
      </trkpt>
      <trkpt lat="48.13162" lon="7.09301">
        <ele>1119.6</ele>
        <time>2021-08-05T11:44:28Z</time>
      </trkpt>
      <trkpt lat="48.13149" lon="7.09301">
        <ele>1120.6</ele>
        <time>2021-08-05T11:44:30Z</time>
      </trkpt>
      <trkpt lat="48.13137" lon="7.09299">
        <ele>1121.4</ele>
        <time>2021-08-05T11:44:31Z</time>
      </trkpt>
      <trkpt lat="48.13125" lon="7.09297">
        <ele>1122.5</ele>
        <time>2021-08-05T11:45:06Z</time>
      </trkpt>
      <trkpt lat="48.13113" lon="7.09295">
        <ele>1123.6</ele>
        <time>2021-08-05T11:45:07Z</time>
      </trkpt>
      <trkpt lat="48.131" lon="7.09293">
        <ele>1124.7</ele>
        <time>2021-08-05T11:45:08Z</time>
      </trkpt>
      <trkpt lat="48.13097" lon="7.09293">
        <ele>1124.9</ele>
        <time>2021-08-05T11:45:10Z</time>
      </trkpt>
      <trkpt lat="48.13094" lon="7.09293">
        <ele>1125.1</ele>
        <time>2021-08-05T11:45:11Z</time>
      </trkpt>
      <trkpt lat="48.13093" lon="7.09293">
        <ele>1125.1</ele>
        <time>2021-08-05T11:45:12Z</time>
      </trkpt>
      <trkpt lat="48.13092" lon="7.09294">
        <ele>1125.2</ele>
        <time>2021-08-05T11:45:14Z</time>
      </trkpt>
      <trkpt lat="48.13091" lon="7.09295">
        <ele>1125.3</ele>
        <time>2021-08-05T11:45:15Z</time>
      </trkpt>
      <trkpt lat="48.13091" lon="7.09295">
        <ele>1125.3</ele>
        <time>2021-08-05T11:45:16Z</time>
      </trkpt>
      <trkpt lat="48.13089" lon="7.09296">
        <ele>1125.4</ele>
        <time>2021-08-05T11:45:18Z</time>
      </trkpt>
      <trkpt lat="48.13088" lon="7.09297">
        <ele>1125.5</ele>
        <time>2021-08-05T11:45:19Z</time>
      </trkpt>
      <trkpt lat="48.13086" lon="7.09298">
        <ele>1125.6</ele>
        <time>2021-08-05T11:45:21Z</time>
      </trkpt>
      <trkpt lat="48.13075" lon="7.09301">
        <ele>1126.2</ele>
        <time>2021-08-05T11:45:29Z</time>
      </trkpt>
      <trkpt lat="48.13072" lon="7.09301">
        <ele>1126.3</ele>
        <time>2021-08-05T11:45:30Z</time>
      </trkpt>
      <trkpt lat="48.13069" lon="7.09303">
        <ele>1126.4</ele>
        <time>2021-08-05T11:45:31Z</time>
      </trkpt>
      <trkpt lat="48.13066" lon="7.09304">
        <ele>1126.5</ele>
        <time>2021-08-05T11:45:32Z</time>
      </trkpt>
      <trkpt lat="48.13064" lon="7.09304">
        <ele>1126.6</ele>
        <time>2021-08-05T11:45:33Z</time>
      </trkpt>
      <trkpt lat="48.13057" lon="7.09308">
        <ele>1126.9</ele>
        <time>2021-08-05T11:45:35Z</time>
      </trkpt>
      <trkpt lat="48.13055" lon="7.09308">
        <ele>1127</ele>
        <time>2021-08-05T11:45:36Z</time>
      </trkpt>
      <trkpt lat="48.13054" lon="7.09308">
        <ele>1127.1</ele>
        <time>2021-08-05T11:45:37Z</time>
      </trkpt>
      <trkpt lat="48.13052" lon="7.09309">
        <ele>1127.1</ele>
        <time>2021-08-05T11:45:39Z</time>
      </trkpt>
      <trkpt lat="48.13051" lon="7.0931">
        <ele>1127.2</ele>
        <time>2021-08-05T11:45:40Z</time>
      </trkpt>
      <trkpt lat="48.13051" lon="7.0931">
        <ele>1127.2</ele>
        <time>2021-08-05T11:45:41Z</time>
      </trkpt>
      <trkpt lat="48.1305" lon="7.0931">
        <ele>1127.2</ele>
        <time>2021-08-05T11:45:42Z</time>
      </trkpt>
      <trkpt lat="48.1305" lon="7.09309">
        <ele>1127.2</ele>
        <time>2021-08-05T11:45:43Z</time>
      </trkpt>
      <trkpt lat="48.1305" lon="7.09309">
        <ele>1127.2</ele>
        <time>2021-08-05T11:45:45Z</time>
      </trkpt>
      <trkpt lat="48.13049" lon="7.09309">
        <ele>1127.2</ele>
        <time>2021-08-05T11:45:46Z</time>
      </trkpt>
      <trkpt lat="48.13048" lon="7.0931">
        <ele>1127.3</ele>
        <time>2021-08-05T11:45:48Z</time>
      </trkpt>
      <trkpt lat="48.13037" lon="7.09311">
        <ele>1127.7</ele>
        <time>2021-08-05T11:45:54Z</time>
      </trkpt>
      <trkpt lat="48.13034" lon="7.09311">
        <ele>1127.8</ele>
        <time>2021-08-05T11:45:55Z</time>
      </trkpt>
      <trkpt lat="48.1303" lon="7.09313">
        <ele>1127.9</ele>
        <time>2021-08-05T11:45:56Z</time>
      </trkpt>
      <trkpt lat="48.13024" lon="7.09315">
        <ele>1128.1</ele>
        <time>2021-08-05T11:45:58Z</time>
      </trkpt>
      <trkpt lat="48.1302" lon="7.09316">
        <ele>1128.1</ele>
        <time>2021-08-05T11:45:59Z</time>
      </trkpt>
      <trkpt lat="48.13015" lon="7.09317">
        <ele>1128.2</ele>
        <time>2021-08-05T11:46:00Z</time>
      </trkpt>
      <trkpt lat="48.1301" lon="7.09317">
        <ele>1128.3</ele>
        <time>2021-08-05T11:46:02Z</time>
      </trkpt>
      <trkpt lat="48.13006" lon="7.09315">
        <ele>1128.4</ele>
        <time>2021-08-05T11:46:03Z</time>
      </trkpt>
      <trkpt lat="48.13005" lon="7.09315">
        <ele>1128.4</ele>
        <time>2021-08-05T11:46:04Z</time>
      </trkpt>
      <trkpt lat="48.13002" lon="7.09313">
        <ele>1128.4</ele>
        <time>2021-08-05T11:46:06Z</time>
      </trkpt>
      <trkpt lat="48.12998" lon="7.09311">
        <ele>1128.5</ele>
        <time>2021-08-05T11:46:07Z</time>
      </trkpt>
      <trkpt lat="48.12994" lon="7.09311">
        <ele>1128.6</ele>
        <time>2021-08-05T11:46:08Z</time>
      </trkpt>
      <trkpt lat="48.12992" lon="7.09312">
        <ele>1128.6</ele>
        <time>2021-08-05T11:46:09Z</time>
      </trkpt>
      <trkpt lat="48.12987" lon="7.09311">
        <ele>1128.7</ele>
        <time>2021-08-05T11:46:11Z</time>
      </trkpt>
      <trkpt lat="48.12983" lon="7.09311">
        <ele>1128.9</ele>
        <time>2021-08-05T11:46:12Z</time>
      </trkpt>
      <trkpt lat="48.12977" lon="7.09312">
        <ele>1129.1</ele>
        <time>2021-08-05T11:46:13Z</time>
      </trkpt>
      <trkpt lat="48.12973" lon="7.09312">
        <ele>1129.3</ele>
        <time>2021-08-05T11:46:15Z</time>
      </trkpt>
      <trkpt lat="48.12969" lon="7.09312">
        <ele>1129.4</ele>
        <time>2021-08-05T11:46:16Z</time>
      </trkpt>
      <trkpt lat="48.12967" lon="7.09314">
        <ele>1129.4</ele>
        <time>2021-08-05T11:46:18Z</time>
      </trkpt>
      <trkpt lat="48.12966" lon="7.09315">
        <ele>1129.5</ele>
        <time>2021-08-05T11:46:19Z</time>
      </trkpt>
      <trkpt lat="48.12965" lon="7.09317">
        <ele>1129.5</ele>
        <time>2021-08-05T11:46:21Z</time>
      </trkpt>
      <trkpt lat="48.12964" lon="7.09318">
        <ele>1129.5</ele>
        <time>2021-08-05T11:46:22Z</time>
      </trkpt>
      <trkpt lat="48.12964" lon="7.09318">
        <ele>1129.5</ele>
        <time>2021-08-05T11:46:23Z</time>
      </trkpt>
      <trkpt lat="48.12964" lon="7.09319">
        <ele>1129.5</ele>
        <time>2021-08-05T11:46:24Z</time>
      </trkpt>
      <trkpt lat="48.12964" lon="7.09319">
        <ele>1129.5</ele>
        <time>2021-08-05T11:46:26Z</time>
      </trkpt>
      <trkpt lat="48.12958" lon="7.09342">
        <ele>1129.3</ele>
        <time>2021-08-05T11:46:51Z</time>
      </trkpt>
      <trkpt lat="48.12955" lon="7.09344">
        <ele>1129.2</ele>
        <time>2021-08-05T11:46:52Z</time>
      </trkpt>
      <trkpt lat="48.12952" lon="7.09346">
        <ele>1129</ele>
        <time>2021-08-05T11:46:53Z</time>
      </trkpt>
      <trkpt lat="48.12949" lon="7.09347">
        <ele>1128.9</ele>
        <time>2021-08-05T11:46:55Z</time>
      </trkpt>
      <trkpt lat="48.12947" lon="7.09349">
        <ele>1128.6</ele>
        <time>2021-08-05T11:46:56Z</time>
      </trkpt>
      <trkpt lat="48.12944" lon="7.09352">
        <ele>1128.4</ele>
        <time>2021-08-05T11:46:57Z</time>
      </trkpt>
      <trkpt lat="48.12942" lon="7.09355">
        <ele>1128.2</ele>
        <time>2021-08-05T11:46:58Z</time>
      </trkpt>
      <trkpt lat="48.12941" lon="7.09359">
        <ele>1127.9</ele>
        <time>2021-08-05T11:46:59Z</time>
      </trkpt>
      <trkpt lat="48.1294" lon="7.09361">
        <ele>1127.9</ele>
        <time>2021-08-05T11:47:00Z</time>
      </trkpt>
      <trkpt lat="48.12941" lon="7.09363">
        <ele>1127.7</ele>
        <time>2021-08-05T11:47:02Z</time>
      </trkpt>
      <trkpt lat="48.12941" lon="7.09365">
        <ele>1127.7</ele>
        <time>2021-08-05T11:47:03Z</time>
      </trkpt>
      <trkpt lat="48.12941" lon="7.09367">
        <ele>1127.5</ele>
        <time>2021-08-05T11:47:04Z</time>
      </trkpt>
      <trkpt lat="48.1294" lon="7.09368">
        <ele>1127.5</ele>
        <time>2021-08-05T11:47:05Z</time>
      </trkpt>
      <trkpt lat="48.1294" lon="7.09369">
        <ele>1127.4</ele>
        <time>2021-08-05T11:47:07Z</time>
      </trkpt>
      <trkpt lat="48.12939" lon="7.0937">
        <ele>1127.4</ele>
        <time>2021-08-05T11:47:08Z</time>
      </trkpt>
      <trkpt lat="48.12938" lon="7.09371">
        <ele>1127.2</ele>
        <time>2021-08-05T11:47:09Z</time>
      </trkpt>
      <trkpt lat="48.12936" lon="7.09372">
        <ele>1127.1</ele>
        <time>2021-08-05T11:47:11Z</time>
      </trkpt>
      <trkpt lat="48.12931" lon="7.09376">
        <ele>1126.8</ele>
        <time>2021-08-05T11:47:12Z</time>
      </trkpt>
      <trkpt lat="48.12926" lon="7.0938">
        <ele>1126.5</ele>
        <time>2021-08-05T11:47:14Z</time>
      </trkpt>
      <trkpt lat="48.12923" lon="7.09383">
        <ele>1126.4</ele>
        <time>2021-08-05T11:47:15Z</time>
      </trkpt>
      <trkpt lat="48.12916" lon="7.09388">
        <ele>1126.1</ele>
        <time>2021-08-05T11:47:16Z</time>
      </trkpt>
      <trkpt lat="48.12908" lon="7.09393">
        <ele>1125.9</ele>
        <time>2021-08-05T11:47:18Z</time>
      </trkpt>
      <trkpt lat="48.12903" lon="7.09396">
        <ele>1125.8</ele>
        <time>2021-08-05T11:47:19Z</time>
      </trkpt>
      <trkpt lat="48.12901" lon="7.09397">
        <ele>1125.7</ele>
        <time>2021-08-05T11:47:20Z</time>
      </trkpt>
      <trkpt lat="48.12899" lon="7.09396">
        <ele>1125.7</ele>
        <time>2021-08-05T11:47:22Z</time>
      </trkpt>
      <trkpt lat="48.12897" lon="7.09396">
        <ele>1125.6</ele>
        <time>2021-08-05T11:47:23Z</time>
      </trkpt>
      <trkpt lat="48.12896" lon="7.09397">
        <ele>1125.6</ele>
        <time>2021-08-05T11:47:24Z</time>
      </trkpt>
      <trkpt lat="48.12894" lon="7.09398">
        <ele>1125.6</ele>
        <time>2021-08-05T11:47:25Z</time>
      </trkpt>
      <trkpt lat="48.12892" lon="7.094">
        <ele>1125.5</ele>
        <time>2021-08-05T11:47:27Z</time>
      </trkpt>
      <trkpt lat="48.12889" lon="7.09401">
        <ele>1125.5</ele>
        <time>2021-08-05T11:47:28Z</time>
      </trkpt>
      <trkpt lat="48.12887" lon="7.09402">
        <ele>1125.5</ele>
        <time>2021-08-05T11:47:29Z</time>
      </trkpt>
      <trkpt lat="48.12885" lon="7.09403">
        <ele>1125.4</ele>
        <time>2021-08-05T11:47:31Z</time>
      </trkpt>
      <trkpt lat="48.12882" lon="7.09404">
        <ele>1125.4</ele>
        <time>2021-08-05T11:47:32Z</time>
      </trkpt>
      <trkpt lat="48.12881" lon="7.09404">
        <ele>1125.4</ele>
        <time>2021-08-05T11:47:33Z</time>
      </trkpt>
      <trkpt lat="48.12876" lon="7.09405">
        <ele>1125.3</ele>
        <time>2021-08-05T11:47:34Z</time>
      </trkpt>
      <trkpt lat="48.12873" lon="7.09406">
        <ele>1125.3</ele>
        <time>2021-08-05T11:47:35Z</time>
      </trkpt>
      <trkpt lat="48.12871" lon="7.09407">
        <ele>1125.3</ele>
        <time>2021-08-05T11:47:37Z</time>
      </trkpt>
      <trkpt lat="48.12868" lon="7.09408">
        <ele>1125.3</ele>
        <time>2021-08-05T11:47:39Z</time>
      </trkpt>
      <trkpt lat="48.12866" lon="7.09409">
        <ele>1125.2</ele>
        <time>2021-08-05T11:47:40Z</time>
      </trkpt>
      <trkpt lat="48.12863" lon="7.0941">
        <ele>1125.2</ele>
        <time>2021-08-05T11:47:41Z</time>
      </trkpt>
      <trkpt lat="48.12861" lon="7.09411">
        <ele>1125.2</ele>
        <time>2021-08-05T11:47:43Z</time>
      </trkpt>
      <trkpt lat="48.12858" lon="7.09412">
        <ele>1125.1</ele>
        <time>2021-08-05T11:47:44Z</time>
      </trkpt>
      <trkpt lat="48.12855" lon="7.09413">
        <ele>1125.1</ele>
        <time>2021-08-05T11:48:07Z</time>
      </trkpt>
      <trkpt lat="48.12853" lon="7.09414">
        <ele>1125.1</ele>
        <time>2021-08-05T11:48:08Z</time>
      </trkpt>
      <trkpt lat="48.12846" lon="7.09423">
        <ele>1124.9</ele>
        <time>2021-08-05T11:48:10Z</time>
      </trkpt>
      <trkpt lat="48.12841" lon="7.0943">
        <ele>1124.8</ele>
        <time>2021-08-05T11:48:11Z</time>
      </trkpt>
      <trkpt lat="48.12838" lon="7.09434">
        <ele>1124.7</ele>
        <time>2021-08-05T11:48:12Z</time>
      </trkpt>
      <trkpt lat="48.12833" lon="7.09439">
        <ele>1124.6</ele>
        <time>2021-08-05T11:48:14Z</time>
      </trkpt>
      <trkpt lat="48.12829" lon="7.09441">
        <ele>1124.6</ele>
        <time>2021-08-05T11:48:15Z</time>
      </trkpt>
      <trkpt lat="48.12824" lon="7.09446">
        <ele>1124.5</ele>
        <time>2021-08-05T11:48:17Z</time>
      </trkpt>
      <trkpt lat="48.12822" lon="7.09451">
        <ele>1124.4</ele>
        <time>2021-08-05T11:48:18Z</time>
      </trkpt>
      <trkpt lat="48.1282" lon="7.09455">
        <ele>1124.3</ele>
        <time>2021-08-05T11:48:19Z</time>
      </trkpt>
      <trkpt lat="48.12815" lon="7.09461">
        <ele>1124</ele>
        <time>2021-08-05T11:48:21Z</time>
      </trkpt>
      <trkpt lat="48.12813" lon="7.09465">
        <ele>1123.9</ele>
        <time>2021-08-05T11:48:22Z</time>
      </trkpt>
      <trkpt lat="48.1281" lon="7.09469">
        <ele>1123.7</ele>
        <time>2021-08-05T11:48:23Z</time>
      </trkpt>
      <trkpt lat="48.12807" lon="7.09472">
        <ele>1123.5</ele>
        <time>2021-08-05T11:48:24Z</time>
      </trkpt>
      <trkpt lat="48.128" lon="7.09478">
        <ele>1123.1</ele>
        <time>2021-08-05T11:48:26Z</time>
      </trkpt>
      <trkpt lat="48.12795" lon="7.09482">
        <ele>1122.8</ele>
        <time>2021-08-05T11:48:27Z</time>
      </trkpt>
      <trkpt lat="48.12791" lon="7.09486">
        <ele>1122.6</ele>
        <time>2021-08-05T11:48:28Z</time>
      </trkpt>
      <trkpt lat="48.12779" lon="7.09498">
        <ele>1122.1</ele>
        <time>2021-08-05T11:48:30Z</time>
      </trkpt>
      <trkpt lat="48.12767" lon="7.09508">
        <ele>1121.6</ele>
        <time>2021-08-05T11:48:32Z</time>
      </trkpt>
      <trkpt lat="48.12759" lon="7.09515">
        <ele>1121.4</ele>
        <time>2021-08-05T11:48:34Z</time>
      </trkpt>
      <trkpt lat="48.12755" lon="7.09518">
        <ele>1121.2</ele>
        <time>2021-08-05T11:48:35Z</time>
      </trkpt>
      <trkpt lat="48.12749" lon="7.09523">
        <ele>1121.1</ele>
        <time>2021-08-05T11:48:37Z</time>
      </trkpt>
      <trkpt lat="48.12743" lon="7.09529">
        <ele>1121</ele>
        <time>2021-08-05T11:48:38Z</time>
      </trkpt>
      <trkpt lat="48.12734" lon="7.09539">
        <ele>1120.8</ele>
        <time>2021-08-05T11:48:40Z</time>
      </trkpt>
      <trkpt lat="48.1273" lon="7.09544">
        <ele>1120.7</ele>
        <time>2021-08-05T11:48:41Z</time>
      </trkpt>
      <trkpt lat="48.12726" lon="7.09547">
        <ele>1120.7</ele>
        <time>2021-08-05T11:48:42Z</time>
      </trkpt>
      <trkpt lat="48.12723" lon="7.0955">
        <ele>1120.6</ele>
        <time>2021-08-05T11:48:43Z</time>
      </trkpt>
      <trkpt lat="48.1272" lon="7.09554">
        <ele>1120.6</ele>
        <time>2021-08-05T11:48:44Z</time>
      </trkpt>
      <trkpt lat="48.12718" lon="7.09556">
        <ele>1120.5</ele>
        <time>2021-08-05T11:48:45Z</time>
      </trkpt>
      <trkpt lat="48.12715" lon="7.09557">
        <ele>1120.5</ele>
        <time>2021-08-05T11:48:46Z</time>
      </trkpt>
      <trkpt lat="48.12712" lon="7.0956">
        <ele>1120.4</ele>
        <time>2021-08-05T11:48:47Z</time>
      </trkpt>
      <trkpt lat="48.12709" lon="7.09562">
        <ele>1120.3</ele>
        <time>2021-08-05T11:48:48Z</time>
      </trkpt>
      <trkpt lat="48.12706" lon="7.09565">
        <ele>1120.2</ele>
        <time>2021-08-05T11:48:49Z</time>
      </trkpt>
      <trkpt lat="48.12703" lon="7.09567">
        <ele>1120.1</ele>
        <time>2021-08-05T11:48:51Z</time>
      </trkpt>
      <trkpt lat="48.127" lon="7.09569">
        <ele>1120</ele>
        <time>2021-08-05T11:48:52Z</time>
      </trkpt>
      <trkpt lat="48.12696" lon="7.0957">
        <ele>1119.8</ele>
        <time>2021-08-05T11:48:54Z</time>
      </trkpt>
      <trkpt lat="48.12693" lon="7.09571">
        <ele>1119.6</ele>
        <time>2021-08-05T11:48:55Z</time>
      </trkpt>
      <trkpt lat="48.12692" lon="7.09572">
        <ele>1119.6</ele>
        <time>2021-08-05T11:48:56Z</time>
      </trkpt>
      <trkpt lat="48.1269" lon="7.09571">
        <ele>1119.5</ele>
        <time>2021-08-05T11:48:58Z</time>
      </trkpt>
      <trkpt lat="48.1269" lon="7.0957">
        <ele>1119.4</ele>
        <time>2021-08-05T11:48:59Z</time>
      </trkpt>
      <trkpt lat="48.1269" lon="7.09569">
        <ele>1119.4</ele>
        <time>2021-08-05T11:49:00Z</time>
      </trkpt>
      <trkpt lat="48.1269" lon="7.09568">
        <ele>1119.4</ele>
        <time>2021-08-05T11:49:02Z</time>
      </trkpt>
      <trkpt lat="48.1269" lon="7.09568">
        <ele>1119.3</ele>
        <time>2021-08-05T11:49:03Z</time>
      </trkpt>
      <trkpt lat="48.1269" lon="7.09567">
        <ele>1119.3</ele>
        <time>2021-08-05T11:49:05Z</time>
      </trkpt>
      <trkpt lat="48.12691" lon="7.09567">
        <ele>1119.3</ele>
        <time>2021-08-05T11:49:06Z</time>
      </trkpt>
      <trkpt lat="48.12681" lon="7.09572">
        <ele>1118.5</ele>
        <time>2021-08-05T11:49:26Z</time>
      </trkpt>
      <trkpt lat="48.12676" lon="7.0958">
        <ele>1117.9</ele>
        <time>2021-08-05T11:49:28Z</time>
      </trkpt>
      <trkpt lat="48.12671" lon="7.09584">
        <ele>1117.4</ele>
        <time>2021-08-05T11:49:30Z</time>
      </trkpt>
      <trkpt lat="48.12669" lon="7.09583">
        <ele>1117.1</ele>
        <time>2021-08-05T11:49:32Z</time>
      </trkpt>
      <trkpt lat="48.12668" lon="7.09584">
        <ele>1117</ele>
        <time>2021-08-05T11:49:33Z</time>
      </trkpt>
      <trkpt lat="48.12669" lon="7.09586">
        <ele>1116.9</ele>
        <time>2021-08-05T11:49:35Z</time>
      </trkpt>
      <trkpt lat="48.12672" lon="7.09588">
        <ele>1116.5</ele>
        <time>2021-08-05T11:49:36Z</time>
      </trkpt>
      <trkpt lat="48.12674" lon="7.09591">
        <ele>1116.3</ele>
        <time>2021-08-05T11:49:37Z</time>
      </trkpt>
      <trkpt lat="48.12677" lon="7.09594">
        <ele>1115.9</ele>
        <time>2021-08-05T11:49:39Z</time>
      </trkpt>
      <trkpt lat="48.12679" lon="7.09596">
        <ele>1115.7</ele>
        <time>2021-08-05T11:49:40Z</time>
      </trkpt>
      <trkpt lat="48.12682" lon="7.09599">
        <ele>1115.3</ele>
        <time>2021-08-05T11:51:01Z</time>
      </trkpt>
      <trkpt lat="48.12684" lon="7.09602">
        <ele>1115.1</ele>
        <time>2021-08-05T11:51:02Z</time>
      </trkpt>
      <trkpt lat="48.12689" lon="7.09606">
        <ele>1114.5</ele>
        <time>2021-08-05T11:51:03Z</time>
      </trkpt>
      <trkpt lat="48.12697" lon="7.09612">
        <ele>1113.5</ele>
        <time>2021-08-05T11:51:05Z</time>
      </trkpt>
      <trkpt lat="48.12703" lon="7.09616">
        <ele>1112.8</ele>
        <time>2021-08-05T11:51:06Z</time>
      </trkpt>
      <trkpt lat="48.1271" lon="7.09622">
        <ele>1111.8</ele>
        <time>2021-08-05T11:51:07Z</time>
      </trkpt>
      <trkpt lat="48.12717" lon="7.09629">
        <ele>1110.9</ele>
        <time>2021-08-05T11:51:08Z</time>
      </trkpt>
      <trkpt lat="48.12722" lon="7.09638">
        <ele>1110.1</ele>
        <time>2021-08-05T11:51:10Z</time>
      </trkpt>
      <trkpt lat="48.12725" lon="7.09646">
        <ele>1109.3</ele>
        <time>2021-08-05T11:51:12Z</time>
      </trkpt>
      <trkpt lat="48.12724" lon="7.09651">
        <ele>1108.9</ele>
        <time>2021-08-05T11:51:13Z</time>
      </trkpt>
      <trkpt lat="48.12721" lon="7.09655">
        <ele>1108.5</ele>
        <time>2021-08-05T11:51:14Z</time>
      </trkpt>
      <trkpt lat="48.12717" lon="7.09657">
        <ele>1108.1</ele>
        <time>2021-08-05T11:51:15Z</time>
      </trkpt>
      <trkpt lat="48.12713" lon="7.09659">
        <ele>1107.8</ele>
        <time>2021-08-05T11:51:17Z</time>
      </trkpt>
      <trkpt lat="48.12707" lon="7.09662">
        <ele>1107.3</ele>
        <time>2021-08-05T11:51:18Z</time>
      </trkpt>
      <trkpt lat="48.12703" lon="7.09665">
        <ele>1106.9</ele>
        <time>2021-08-05T11:51:19Z</time>
      </trkpt>
      <trkpt lat="48.12697" lon="7.09669">
        <ele>1106.4</ele>
        <time>2021-08-05T11:51:20Z</time>
      </trkpt>
      <trkpt lat="48.12691" lon="7.09674">
        <ele>1105.9</ele>
        <time>2021-08-05T11:51:22Z</time>
      </trkpt>
      <trkpt lat="48.12687" lon="7.09679">
        <ele>1105.6</ele>
        <time>2021-08-05T11:51:23Z</time>
      </trkpt>
      <trkpt lat="48.12684" lon="7.09684">
        <ele>1105.3</ele>
        <time>2021-08-05T11:51:24Z</time>
      </trkpt>
      <trkpt lat="48.12684" lon="7.0969">
        <ele>1105</ele>
        <time>2021-08-05T11:51:26Z</time>
      </trkpt>
      <trkpt lat="48.12685" lon="7.09692">
        <ele>1104.9</ele>
        <time>2021-08-05T11:51:27Z</time>
      </trkpt>
      <trkpt lat="48.12687" lon="7.09694">
        <ele>1104.8</ele>
        <time>2021-08-05T11:51:28Z</time>
      </trkpt>
      <trkpt lat="48.12694" lon="7.09705">
        <ele>1104.1</ele>
        <time>2021-08-05T11:51:29Z</time>
      </trkpt>
      <trkpt lat="48.12694" lon="7.09709">
        <ele>1103.9</ele>
        <time>2021-08-05T11:51:30Z</time>
      </trkpt>
      <trkpt lat="48.12697" lon="7.09716">
        <ele>1103.5</ele>
        <time>2021-08-05T11:51:31Z</time>
      </trkpt>
      <trkpt lat="48.12704" lon="7.09725">
        <ele>1103</ele>
        <time>2021-08-05T11:51:32Z</time>
      </trkpt>
      <trkpt lat="48.12707" lon="7.09731">
        <ele>1102.7</ele>
        <time>2021-08-05T11:51:33Z</time>
      </trkpt>
      <trkpt lat="48.12715" lon="7.09744">
        <ele>1102.3</ele>
        <time>2021-08-05T11:51:35Z</time>
      </trkpt>
      <trkpt lat="48.12718" lon="7.0975">
        <ele>1102.2</ele>
        <time>2021-08-05T11:51:36Z</time>
      </trkpt>
      <trkpt lat="48.12724" lon="7.09757">
        <ele>1102</ele>
        <time>2021-08-05T11:51:37Z</time>
      </trkpt>
      <trkpt lat="48.12728" lon="7.09764">
        <ele>1101.7</ele>
        <time>2021-08-05T11:51:39Z</time>
      </trkpt>
      <trkpt lat="48.12731" lon="7.09769">
        <ele>1101.5</ele>
        <time>2021-08-05T11:51:40Z</time>
      </trkpt>
      <trkpt lat="48.12735" lon="7.09776">
        <ele>1100.9</ele>
        <time>2021-08-05T11:51:42Z</time>
      </trkpt>
      <trkpt lat="48.1274" lon="7.09778">
        <ele>1100.4</ele>
        <time>2021-08-05T11:51:43Z</time>
      </trkpt>
      <trkpt lat="48.12744" lon="7.09778">
        <ele>1099.9</ele>
        <time>2021-08-05T11:51:44Z</time>
      </trkpt>
      <trkpt lat="48.12751" lon="7.09774">
        <ele>1099</ele>
        <time>2021-08-05T11:51:46Z</time>
      </trkpt>
      <trkpt lat="48.12768" lon="7.0976">
        <ele>1096.7</ele>
        <time>2021-08-05T11:51:47Z</time>
      </trkpt>
      <trkpt lat="48.12777" lon="7.09758">
        <ele>1095.9</ele>
        <time>2021-08-05T11:51:48Z</time>
      </trkpt>
      <trkpt lat="48.1279" lon="7.09755">
        <ele>1094.9</ele>
        <time>2021-08-05T11:51:50Z</time>
      </trkpt>
      <trkpt lat="48.12798" lon="7.09757">
        <ele>1092.8</ele>
        <time>2021-08-05T11:51:52Z</time>
      </trkpt>
      <trkpt lat="48.12804" lon="7.09759">
        <ele>1091.9</ele>
        <time>2021-08-05T11:51:54Z</time>
      </trkpt>
      <trkpt lat="48.12798" lon="7.09762">
        <ele>1091.1</ele>
        <time>2021-08-05T11:51:55Z</time>
      </trkpt>
      <trkpt lat="48.12793" lon="7.09763">
        <ele>1090.5</ele>
        <time>2021-08-05T11:51:57Z</time>
      </trkpt>
      <trkpt lat="48.12791" lon="7.09764">
        <ele>1090.2</ele>
        <time>2021-08-05T11:51:58Z</time>
      </trkpt>
      <trkpt lat="48.12783" lon="7.09768">
        <ele>1089.2</ele>
        <time>2021-08-05T11:52:00Z</time>
      </trkpt>
      <trkpt lat="48.12768" lon="7.09776">
        <ele>1087</ele>
        <time>2021-08-05T11:52:01Z</time>
      </trkpt>
      <trkpt lat="48.12759" lon="7.09781">
        <ele>1085.5</ele>
        <time>2021-08-05T11:52:03Z</time>
      </trkpt>
      <trkpt lat="48.12748" lon="7.0991">
        <ele>1071.8</ele>
        <time>2021-08-05T11:52:17Z</time>
      </trkpt>
      <trkpt lat="48.12753" lon="7.09915">
        <ele>1071</ele>
        <time>2021-08-05T11:52:19Z</time>
      </trkpt>
      <trkpt lat="48.12758" lon="7.0992">
        <ele>1070.1</ele>
        <time>2021-08-05T11:52:21Z</time>
      </trkpt>
      <trkpt lat="48.12757" lon="7.09931">
        <ele>1069.1</ele>
        <time>2021-08-05T11:52:22Z</time>
      </trkpt>
      <trkpt lat="48.12755" lon="7.09934">
        <ele>1068.7</ele>
        <time>2021-08-05T11:52:24Z</time>
      </trkpt>
      <trkpt lat="48.12753" lon="7.09938">
        <ele>1069.1</ele>
        <time>2021-08-05T11:52:25Z</time>
      </trkpt>
      <trkpt lat="48.12749" lon="7.0994">
        <ele>1069.1</ele>
        <time>2021-08-05T11:52:27Z</time>
      </trkpt>
      <trkpt lat="48.12748" lon="7.09941">
        <ele>1069.1</ele>
        <time>2021-08-05T11:52:28Z</time>
      </trkpt>
      <trkpt lat="48.12746" lon="7.0994">
        <ele>1069.1</ele>
        <time>2021-08-05T11:52:29Z</time>
      </trkpt>
      <trkpt lat="48.12744" lon="7.0994">
        <ele>1068.8</ele>
        <time>2021-08-05T11:52:30Z</time>
      </trkpt>
      <trkpt lat="48.12743" lon="7.0994">
        <ele>1068.8</ele>
        <time>2021-08-05T11:52:31Z</time>
      </trkpt>
      <trkpt lat="48.12742" lon="7.09937">
        <ele>1068.7</ele>
        <time>2021-08-05T11:52:32Z</time>
      </trkpt>
      <trkpt lat="48.1274" lon="7.09935">
        <ele>1068.6</ele>
        <time>2021-08-05T11:52:34Z</time>
      </trkpt>
      <trkpt lat="48.1274" lon="7.09933">
        <ele>1068.6</ele>
        <time>2021-08-05T11:52:35Z</time>
      </trkpt>
      <trkpt lat="48.12741" lon="7.09932">
        <ele>1068.5</ele>
        <time>2021-08-05T11:52:37Z</time>
      </trkpt>
      <trkpt lat="48.12741" lon="7.09931">
        <ele>1068.5</ele>
        <time>2021-08-05T11:52:38Z</time>
      </trkpt>
      <trkpt lat="48.12739" lon="7.09928">
        <ele>1068.4</ele>
        <time>2021-08-05T11:52:40Z</time>
      </trkpt>
      <trkpt lat="48.12737" lon="7.09925">
        <ele>1068.3</ele>
        <time>2021-08-05T11:52:41Z</time>
      </trkpt>
      <trkpt lat="48.12735" lon="7.09923">
        <ele>1068.3</ele>
        <time>2021-08-05T11:52:43Z</time>
      </trkpt>
      <trkpt lat="48.12733" lon="7.09921">
        <ele>1068.2</ele>
        <time>2021-08-05T11:52:45Z</time>
      </trkpt>
      <trkpt lat="48.12731" lon="7.09919">
        <ele>1068.1</ele>
        <time>2021-08-05T11:53:01Z</time>
      </trkpt>
      <trkpt lat="48.12729" lon="7.09916">
        <ele>1068</ele>
        <time>2021-08-05T11:53:02Z</time>
      </trkpt>
      <trkpt lat="48.12724" lon="7.09911">
        <ele>1067.8</ele>
        <time>2021-08-05T11:53:03Z</time>
      </trkpt>
      <trkpt lat="48.12718" lon="7.09906">
        <ele>1067.6</ele>
        <time>2021-08-05T11:53:05Z</time>
      </trkpt>
      <trkpt lat="48.12712" lon="7.09901">
        <ele>1067.5</ele>
        <time>2021-08-05T11:53:06Z</time>
      </trkpt>
      <trkpt lat="48.12706" lon="7.09895">
        <ele>1067.3</ele>
        <time>2021-08-05T11:53:07Z</time>
      </trkpt>
      <trkpt lat="48.12702" lon="7.09891">
        <ele>1067.3</ele>
        <time>2021-08-05T11:53:08Z</time>
      </trkpt>
      <trkpt lat="48.12697" lon="7.09884">
        <ele>1067.2</ele>
        <time>2021-08-05T11:53:10Z</time>
      </trkpt>
      <trkpt lat="48.12694" lon="7.09879">
        <ele>1067.2</ele>
        <time>2021-08-05T11:53:11Z</time>
      </trkpt>
      <trkpt lat="48.1269" lon="7.09874">
        <ele>1067.1</ele>
        <time>2021-08-05T11:53:13Z</time>
      </trkpt>
      <trkpt lat="48.12687" lon="7.09867">
        <ele>1067.1</ele>
        <time>2021-08-05T11:53:15Z</time>
      </trkpt>
      <trkpt lat="48.12683" lon="7.09858">
        <ele>1067</ele>
        <time>2021-08-05T11:53:16Z</time>
      </trkpt>
      <trkpt lat="48.12678" lon="7.09848">
        <ele>1066.8</ele>
        <time>2021-08-05T11:53:18Z</time>
      </trkpt>
      <trkpt lat="48.1267" lon="7.0984">
        <ele>1066.6</ele>
        <time>2021-08-05T11:53:20Z</time>
      </trkpt>
      <trkpt lat="48.12661" lon="7.09834">
        <ele>1066.3</ele>
        <time>2021-08-05T11:53:22Z</time>
      </trkpt>
      <trkpt lat="48.12656" lon="7.09831">
        <ele>1066.1</ele>
        <time>2021-08-05T11:53:23Z</time>
      </trkpt>
      <trkpt lat="48.12652" lon="7.09828">
        <ele>1065.9</ele>
        <time>2021-08-05T11:53:24Z</time>
      </trkpt>
      <trkpt lat="48.12641" lon="7.09822">
        <ele>1065.5</ele>
        <time>2021-08-05T11:53:26Z</time>
      </trkpt>
      <trkpt lat="48.12631" lon="7.09814">
        <ele>1065.2</ele>
        <time>2021-08-05T11:53:28Z</time>
      </trkpt>
      <trkpt lat="48.12627" lon="7.0981">
        <ele>1065</ele>
        <time>2021-08-05T11:53:29Z</time>
      </trkpt>
      <trkpt lat="48.12623" lon="7.09805">
        <ele>1064.9</ele>
        <time>2021-08-05T11:53:30Z</time>
      </trkpt>
      <trkpt lat="48.1262" lon="7.098">
        <ele>1064.7</ele>
        <time>2021-08-05T11:53:31Z</time>
      </trkpt>
      <trkpt lat="48.12616" lon="7.09792">
        <ele>1064.6</ele>
        <time>2021-08-05T11:53:32Z</time>
      </trkpt>
      <trkpt lat="48.1261" lon="7.09778">
        <ele>1064</ele>
        <time>2021-08-05T11:53:34Z</time>
      </trkpt>
      <trkpt lat="48.12606" lon="7.09771">
        <ele>1063.7</ele>
        <time>2021-08-05T11:53:35Z</time>
      </trkpt>
      <trkpt lat="48.12603" lon="7.09765">
        <ele>1063.6</ele>
        <time>2021-08-05T11:53:36Z</time>
      </trkpt>
      <trkpt lat="48.12597" lon="7.09753">
        <ele>1063.2</ele>
        <time>2021-08-05T11:53:38Z</time>
      </trkpt>
      <trkpt lat="48.1259" lon="7.09743">
        <ele>1062.9</ele>
        <time>2021-08-05T11:53:40Z</time>
      </trkpt>
      <trkpt lat="48.12586" lon="7.09735">
        <ele>1062.7</ele>
        <time>2021-08-05T11:53:42Z</time>
      </trkpt>
      <trkpt lat="48.12581" lon="7.09725">
        <ele>1062.4</ele>
        <time>2021-08-05T11:53:44Z</time>
      </trkpt>
      <trkpt lat="48.12577" lon="7.09721">
        <ele>1062.3</ele>
        <time>2021-08-05T11:53:46Z</time>
      </trkpt>
      <trkpt lat="48.12574" lon="7.09718">
        <ele>1062.2</ele>
        <time>2021-08-05T11:53:47Z</time>
      </trkpt>
      <trkpt lat="48.12575" lon="7.09712">
        <ele>1062.1</ele>
        <time>2021-08-05T11:53:49Z</time>
      </trkpt>
      <trkpt lat="48.12572" lon="7.09709">
        <ele>1062</ele>
        <time>2021-08-05T11:53:50Z</time>
      </trkpt>
      <trkpt lat="48.12569" lon="7.09704">
        <ele>1061.9</ele>
        <time>2021-08-05T11:53:51Z</time>
      </trkpt>
      <trkpt lat="48.12566" lon="7.09696">
        <ele>1061.7</ele>
        <time>2021-08-05T11:53:53Z</time>
      </trkpt>
      <trkpt lat="48.12562" lon="7.09689">
        <ele>1061.4</ele>
        <time>2021-08-05T11:53:55Z</time>
      </trkpt>
      <trkpt lat="48.1256" lon="7.09682">
        <ele>1061.2</ele>
        <time>2021-08-05T11:53:56Z</time>
      </trkpt>
      <trkpt lat="48.12556" lon="7.09674">
        <ele>1060.8</ele>
        <time>2021-08-05T11:53:57Z</time>
      </trkpt>
      <trkpt lat="48.12552" lon="7.09665">
        <ele>1060.3</ele>
        <time>2021-08-05T11:53:59Z</time>
      </trkpt>
      <trkpt lat="48.12549" lon="7.0966">
        <ele>1060</ele>
        <time>2021-08-05T11:54:00Z</time>
      </trkpt>
      <trkpt lat="48.12547" lon="7.09654">
        <ele>1059.5</ele>
        <time>2021-08-05T11:54:01Z</time>
      </trkpt>
      <trkpt lat="48.12544" lon="7.09647">
        <ele>1059.1</ele>
        <time>2021-08-05T11:54:03Z</time>
      </trkpt>
      <trkpt lat="48.12542" lon="7.09644">
        <ele>1058.8</ele>
        <time>2021-08-05T11:54:04Z</time>
      </trkpt>
      <trkpt lat="48.1254" lon="7.09638">
        <ele>1058.4</ele>
        <time>2021-08-05T11:54:05Z</time>
      </trkpt>
      <trkpt lat="48.1254" lon="7.09634">
        <ele>1058.2</ele>
        <time>2021-08-05T11:54:06Z</time>
      </trkpt>
      <trkpt lat="48.12541" lon="7.0963">
        <ele>1057.9</ele>
        <time>2021-08-05T11:54:07Z</time>
      </trkpt>
      <trkpt lat="48.12542" lon="7.09628">
        <ele>1057.8</ele>
        <time>2021-08-05T11:54:08Z</time>
      </trkpt>
      <trkpt lat="48.12544" lon="7.09625">
        <ele>1057.5</ele>
        <time>2021-08-05T11:54:10Z</time>
      </trkpt>
      <trkpt lat="48.12545" lon="7.0962">
        <ele>1057.2</ele>
        <time>2021-08-05T11:54:11Z</time>
      </trkpt>
      <trkpt lat="48.12544" lon="7.09616">
        <ele>1057</ele>
        <time>2021-08-05T11:54:13Z</time>
      </trkpt>
      <trkpt lat="48.12543" lon="7.09613">
        <ele>1056.8</ele>
        <time>2021-08-05T11:54:14Z</time>
      </trkpt>
      <trkpt lat="48.12542" lon="7.09611">
        <ele>1056.7</ele>
        <time>2021-08-05T11:54:15Z</time>
      </trkpt>
      <trkpt lat="48.12541" lon="7.09605">
        <ele>1056.4</ele>
        <time>2021-08-05T11:54:17Z</time>
      </trkpt>
      <trkpt lat="48.12542" lon="7.09603">
        <ele>1056.3</ele>
        <time>2021-08-05T11:54:18Z</time>
      </trkpt>
      <trkpt lat="48.12542" lon="7.09602">
        <ele>1056.2</ele>
        <time>2021-08-05T11:54:19Z</time>
      </trkpt>
      <trkpt lat="48.12542" lon="7.096">
        <ele>1056.1</ele>
        <time>2021-08-05T11:54:21Z</time>
      </trkpt>
      <trkpt lat="48.12542" lon="7.09601">
        <ele>1056</ele>
        <time>2021-08-05T11:54:23Z</time>
      </trkpt>
      <trkpt lat="48.12541" lon="7.09602">
        <ele>1055.9</ele>
        <time>2021-08-05T11:54:24Z</time>
      </trkpt>
      <trkpt lat="48.12541" lon="7.09603">
        <ele>1055.9</ele>
        <time>2021-08-05T11:54:25Z</time>
      </trkpt>
      <trkpt lat="48.12541" lon="7.09604">
        <ele>1055.8</ele>
        <time>2021-08-05T11:54:27Z</time>
      </trkpt>
      <trkpt lat="48.1254" lon="7.09605">
        <ele>1055.8</ele>
        <time>2021-08-05T11:54:28Z</time>
      </trkpt>
      <trkpt lat="48.1254" lon="7.09606">
        <ele>1055.7</ele>
        <time>2021-08-05T11:54:30Z</time>
      </trkpt>
      <trkpt lat="48.12539" lon="7.09607">
        <ele>1055.7</ele>
        <time>2021-08-05T11:54:31Z</time>
      </trkpt>
      <trkpt lat="48.12539" lon="7.09608">
        <ele>1055.6</ele>
        <time>2021-08-05T11:54:34Z</time>
      </trkpt>
      <trkpt lat="48.12539" lon="7.09609">
        <ele>1055.5</ele>
        <time>2021-08-05T11:54:35Z</time>
      </trkpt>
      <trkpt lat="48.12533" lon="7.09614">
        <ele>1055.1</ele>
        <time>2021-08-05T11:54:36Z</time>
      </trkpt>
      <trkpt lat="48.12525" lon="7.0962">
        <ele>1054.8</ele>
        <time>2021-08-05T11:54:38Z</time>
      </trkpt>
      <trkpt lat="48.12519" lon="7.09619">
        <ele>1054.6</ele>
        <time>2021-08-05T11:54:40Z</time>
      </trkpt>
      <trkpt lat="48.12516" lon="7.09619">
        <ele>1054.6</ele>
        <time>2021-08-05T11:54:41Z</time>
      </trkpt>
      <trkpt lat="48.12515" lon="7.0962">
        <ele>1054.5</ele>
        <time>2021-08-05T11:54:42Z</time>
      </trkpt>
      <trkpt lat="48.12513" lon="7.09623">
        <ele>1054.5</ele>
        <time>2021-08-05T11:54:44Z</time>
      </trkpt>
      <trkpt lat="48.12511" lon="7.09624">
        <ele>1054.4</ele>
        <time>2021-08-05T11:54:46Z</time>
      </trkpt>
      <trkpt lat="48.12509" lon="7.09624">
        <ele>1054.4</ele>
        <time>2021-08-05T11:54:47Z</time>
      </trkpt>
      <trkpt lat="48.12508" lon="7.09624">
        <ele>1054.4</ele>
        <time>2021-08-05T11:54:49Z</time>
      </trkpt>
      <trkpt lat="48.12506" lon="7.09624">
        <ele>1054.3</ele>
        <time>2021-08-05T11:54:50Z</time>
      </trkpt>
      <trkpt lat="48.12503" lon="7.09626">
        <ele>1054.3</ele>
        <time>2021-08-05T11:54:52Z</time>
      </trkpt>
      <trkpt lat="48.12501" lon="7.09626">
        <ele>1054.2</ele>
        <time>2021-08-05T11:54:53Z</time>
      </trkpt>
      <trkpt lat="48.125" lon="7.09625">
        <ele>1054.2</ele>
        <time>2021-08-05T11:54:54Z</time>
      </trkpt>
      <trkpt lat="48.12498" lon="7.09622">
        <ele>1054.1</ele>
        <time>2021-08-05T11:54:56Z</time>
      </trkpt>
      <trkpt lat="48.12498" lon="7.0962">
        <ele>1054.1</ele>
        <time>2021-08-05T11:54:57Z</time>
      </trkpt>
      <trkpt lat="48.12498" lon="7.09619">
        <ele>1054.1</ele>
        <time>2021-08-05T11:54:59Z</time>
      </trkpt>
      <trkpt lat="48.12498" lon="7.09618">
        <ele>1054.1</ele>
        <time>2021-08-05T11:55:00Z</time>
      </trkpt>
      <trkpt lat="48.12499" lon="7.09616">
        <ele>1054.1</ele>
        <time>2021-08-05T11:55:02Z</time>
      </trkpt>
      <trkpt lat="48.125" lon="7.09616">
        <ele>1054</ele>
        <time>2021-08-05T11:55:03Z</time>
      </trkpt>
      <trkpt lat="48.125" lon="7.09618">
        <ele>1054</ele>
        <time>2021-08-05T11:55:04Z</time>
      </trkpt>
      <trkpt lat="48.12501" lon="7.0962">
        <ele>1054</ele>
        <time>2021-08-05T11:55:05Z</time>
      </trkpt>
      <trkpt lat="48.12502" lon="7.09622">
        <ele>1053.9</ele>
        <time>2021-08-05T11:55:06Z</time>
      </trkpt>
      <trkpt lat="48.12502" lon="7.09623">
        <ele>1053.9</ele>
        <time>2021-08-05T11:55:08Z</time>
      </trkpt>
      <trkpt lat="48.12503" lon="7.09625">
        <ele>1053.9</ele>
        <time>2021-08-05T11:55:09Z</time>
      </trkpt>
      <trkpt lat="48.12503" lon="7.09627">
        <ele>1053.9</ele>
        <time>2021-08-05T11:56:25Z</time>
      </trkpt>
      <trkpt lat="48.12504" lon="7.09629">
        <ele>1053.8</ele>
        <time>2021-08-05T11:56:26Z</time>
      </trkpt>
      <trkpt lat="48.12506" lon="7.09637">
        <ele>1053.7</ele>
        <time>2021-08-05T11:56:27Z</time>
      </trkpt>
      <trkpt lat="48.12509" lon="7.09644">
        <ele>1053.6</ele>
        <time>2021-08-05T11:56:29Z</time>
      </trkpt>
      <trkpt lat="48.1251" lon="7.09649">
        <ele>1053.5</ele>
        <time>2021-08-05T11:56:30Z</time>
      </trkpt>
      <trkpt lat="48.12512" lon="7.09652">
        <ele>1053.5</ele>
        <time>2021-08-05T11:56:31Z</time>
      </trkpt>
      <trkpt lat="48.12513" lon="7.09656">
        <ele>1053.4</ele>
        <time>2021-08-05T11:56:33Z</time>
      </trkpt>
      <trkpt lat="48.12514" lon="7.09659">
        <ele>1053.4</ele>
        <time>2021-08-05T11:56:35Z</time>
      </trkpt>
      <trkpt lat="48.12514" lon="7.0966">
        <ele>1053.4</ele>
        <time>2021-08-05T11:56:36Z</time>
      </trkpt>
      <trkpt lat="48.12515" lon="7.09664">
        <ele>1053.3</ele>
        <time>2021-08-05T11:56:38Z</time>
      </trkpt>
      <trkpt lat="48.12516" lon="7.09671">
        <ele>1053.2</ele>
        <time>2021-08-05T11:56:40Z</time>
      </trkpt>
      <trkpt lat="48.12516" lon="7.09676">
        <ele>1053.2</ele>
        <time>2021-08-05T11:56:41Z</time>
      </trkpt>
      <trkpt lat="48.12516" lon="7.09681">
        <ele>1053.2</ele>
        <time>2021-08-05T11:56:42Z</time>
      </trkpt>
      <trkpt lat="48.12514" lon="7.09687">
        <ele>1053.1</ele>
        <time>2021-08-05T11:56:44Z</time>
      </trkpt>
      <trkpt lat="48.12513" lon="7.09693">
        <ele>1053.1</ele>
        <time>2021-08-05T11:56:45Z</time>
      </trkpt>
      <trkpt lat="48.12512" lon="7.09695">
        <ele>1052.9</ele>
        <time>2021-08-05T11:56:46Z</time>
      </trkpt>
      <trkpt lat="48.12511" lon="7.097">
        <ele>1052.6</ele>
        <time>2021-08-05T11:56:48Z</time>
      </trkpt>
      <trkpt lat="48.12509" lon="7.09701">
        <ele>1052.4</ele>
        <time>2021-08-05T11:56:49Z</time>
      </trkpt>
      <trkpt lat="48.12509" lon="7.09703">
        <ele>1052.3</ele>
        <time>2021-08-05T11:56:50Z</time>
      </trkpt>
      <trkpt lat="48.12508" lon="7.09707">
        <ele>1052</ele>
        <time>2021-08-05T11:56:52Z</time>
      </trkpt>
      <trkpt lat="48.12506" lon="7.09712">
        <ele>1051.6</ele>
        <time>2021-08-05T11:56:54Z</time>
      </trkpt>
      <trkpt lat="48.12503" lon="7.09718">
        <ele>1051.1</ele>
        <time>2021-08-05T11:56:56Z</time>
      </trkpt>
      <trkpt lat="48.12501" lon="7.09723">
        <ele>1050.7</ele>
        <time>2021-08-05T11:56:57Z</time>
      </trkpt>
      <trkpt lat="48.12499" lon="7.09727">
        <ele>1050.3</ele>
        <time>2021-08-05T11:56:58Z</time>
      </trkpt>
      <trkpt lat="48.12496" lon="7.09732">
        <ele>1049.8</ele>
        <time>2021-08-05T11:56:59Z</time>
      </trkpt>
      <trkpt lat="48.12494" lon="7.09736">
        <ele>1049.4</ele>
        <time>2021-08-05T11:57:01Z</time>
      </trkpt>
      <trkpt lat="48.12491" lon="7.09741">
        <ele>1049</ele>
        <time>2021-08-05T11:57:02Z</time>
      </trkpt>
      <trkpt lat="48.12489" lon="7.09746">
        <ele>1048.5</ele>
        <time>2021-08-05T11:57:04Z</time>
      </trkpt>
      <trkpt lat="48.12486" lon="7.0975">
        <ele>1048.1</ele>
        <time>2021-08-05T11:57:05Z</time>
      </trkpt>
      <trkpt lat="48.12482" lon="7.09756">
        <ele>1047.5</ele>
        <time>2021-08-05T11:57:07Z</time>
      </trkpt>
      <trkpt lat="48.12478" lon="7.0976">
        <ele>1047</ele>
        <time>2021-08-05T11:57:08Z</time>
      </trkpt>
      <trkpt lat="48.12472" lon="7.09766">
        <ele>1046.2</ele>
        <time>2021-08-05T11:57:10Z</time>
      </trkpt>
      <trkpt lat="48.12468" lon="7.09772">
        <ele>1045.6</ele>
        <time>2021-08-05T11:57:11Z</time>
      </trkpt>
      <trkpt lat="48.12466" lon="7.09776">
        <ele>1045.2</ele>
        <time>2021-08-05T11:57:12Z</time>
      </trkpt>
      <trkpt lat="48.12463" lon="7.0978">
        <ele>1044.7</ele>
        <time>2021-08-05T11:57:14Z</time>
      </trkpt>
      <trkpt lat="48.12459" lon="7.09786">
        <ele>1044.2</ele>
        <time>2021-08-05T11:57:15Z</time>
      </trkpt>
      <trkpt lat="48.12455" lon="7.09792">
        <ele>1042.9</ele>
        <time>2021-08-05T11:57:17Z</time>
      </trkpt>
      <trkpt lat="48.12448" lon="7.09802">
        <ele>1042.1</ele>
        <time>2021-08-05T11:57:18Z</time>
      </trkpt>
      <trkpt lat="48.12443" lon="7.09813">
        <ele>1041.6</ele>
        <time>2021-08-05T11:57:20Z</time>
      </trkpt>
      <trkpt lat="48.12441" lon="7.09818">
        <ele>1041.3</ele>
        <time>2021-08-05T11:57:21Z</time>
      </trkpt>
      <trkpt lat="48.12435" lon="7.09825">
        <ele>1040.8</ele>
        <time>2021-08-05T11:57:23Z</time>
      </trkpt>
      <trkpt lat="48.12431" lon="7.09828">
        <ele>1040.5</ele>
        <time>2021-08-05T11:57:24Z</time>
      </trkpt>
      <trkpt lat="48.12424" lon="7.09831">
        <ele>1039.8</ele>
        <time>2021-08-05T11:57:26Z</time>
      </trkpt>
      <trkpt lat="48.12417" lon="7.09833">
        <ele>1039.2</ele>
        <time>2021-08-05T11:57:28Z</time>
      </trkpt>
      <trkpt lat="48.12412" lon="7.09834">
        <ele>1038.7</ele>
        <time>2021-08-05T11:57:29Z</time>
      </trkpt>
      <trkpt lat="48.12411" lon="7.09834">
        <ele>1038.6</ele>
        <time>2021-08-05T11:57:31Z</time>
      </trkpt>
      <trkpt lat="48.12408" lon="7.09835">
        <ele>1038.3</ele>
        <time>2021-08-05T11:57:32Z</time>
      </trkpt>
      <trkpt lat="48.12403" lon="7.09829">
        <ele>1037.8</ele>
        <time>2021-08-05T11:57:33Z</time>
      </trkpt>
      <trkpt lat="48.12399" lon="7.09826">
        <ele>1037.4</ele>
        <time>2021-08-05T11:57:35Z</time>
      </trkpt>
      <trkpt lat="48.12394" lon="7.09824">
        <ele>1036.9</ele>
        <time>2021-08-05T11:57:36Z</time>
      </trkpt>
      <trkpt lat="48.1239" lon="7.09822">
        <ele>1036.5</ele>
        <time>2021-08-05T11:57:37Z</time>
      </trkpt>
      <trkpt lat="48.12386" lon="7.09821">
        <ele>1035.5</ele>
        <time>2021-08-05T11:57:38Z</time>
      </trkpt>
      <trkpt lat="48.1238" lon="7.09825">
        <ele>1034.7</ele>
        <time>2021-08-05T11:57:40Z</time>
      </trkpt>
      <trkpt lat="48.1237" lon="7.09844">
        <ele>1032.8</ele>
        <time>2021-08-05T11:57:42Z</time>
      </trkpt>
      <trkpt lat="48.12364" lon="7.09864">
        <ele>1031.2</ele>
        <time>2021-08-05T11:57:44Z</time>
      </trkpt>
      <trkpt lat="48.12361" lon="7.09875">
        <ele>1030.3</ele>
        <time>2021-08-05T11:57:45Z</time>
      </trkpt>
      <trkpt lat="48.12356" lon="7.09901">
        <ele>1028.3</ele>
        <time>2021-08-05T11:57:47Z</time>
      </trkpt>
      <trkpt lat="48.12354" lon="7.09912">
        <ele>1027.4</ele>
        <time>2021-08-05T11:57:48Z</time>
      </trkpt>
      <trkpt lat="48.12352" lon="7.09924">
        <ele>1026.6</ele>
        <time>2021-08-05T11:57:49Z</time>
      </trkpt>
      <trkpt lat="48.12349" lon="7.09935">
        <ele>1025.8</ele>
        <time>2021-08-05T11:57:50Z</time>
      </trkpt>
      <trkpt lat="48.12346" lon="7.09954">
        <ele>1024.6</ele>
        <time>2021-08-05T11:57:52Z</time>
      </trkpt>
      <trkpt lat="48.12342" lon="7.09963">
        <ele>1023.9</ele>
        <time>2021-08-05T11:57:54Z</time>
      </trkpt>
      <trkpt lat="48.12332" lon="7.09965">
        <ele>1023.5</ele>
        <time>2021-08-05T11:57:56Z</time>
      </trkpt>
      <trkpt lat="48.12324" lon="7.09967">
        <ele>1023.2</ele>
        <time>2021-08-05T11:57:57Z</time>
      </trkpt>
      <trkpt lat="48.12309" lon="7.09971">
        <ele>1022.3</ele>
        <time>2021-08-05T11:57:59Z</time>
      </trkpt>
      <trkpt lat="48.12306" lon="7.09971">
        <ele>1024.3</ele>
        <time>2021-08-05T11:58:00Z</time>
      </trkpt>
      <trkpt lat="48.12304" lon="7.0997">
        <ele>1024.6</ele>
        <time>2021-08-05T11:58:01Z</time>
      </trkpt>
      <trkpt lat="48.123" lon="7.09968">
        <ele>1025.1</ele>
        <time>2021-08-05T11:58:03Z</time>
      </trkpt>
      <trkpt lat="48.1229" lon="7.0994">
        <ele>1029.5</ele>
        <time>2021-08-05T11:58:12Z</time>
      </trkpt>
      <trkpt lat="48.12287" lon="7.09933">
        <ele>1029.9</ele>
        <time>2021-08-05T11:58:14Z</time>
      </trkpt>
      <trkpt lat="48.12285" lon="7.09926">
        <ele>1030.4</ele>
        <time>2021-08-05T11:58:15Z</time>
      </trkpt>
      <trkpt lat="48.12283" lon="7.09921">
        <ele>1030.7</ele>
        <time>2021-08-05T11:58:17Z</time>
      </trkpt>
      <trkpt lat="48.12282" lon="7.09915">
        <ele>1031.1</ele>
        <time>2021-08-05T11:58:18Z</time>
      </trkpt>
      <trkpt lat="48.12281" lon="7.09909">
        <ele>1031.4</ele>
        <time>2021-08-05T11:58:19Z</time>
      </trkpt>
      <trkpt lat="48.12281" lon="7.09902">
        <ele>1031.9</ele>
        <time>2021-08-05T11:58:21Z</time>
      </trkpt>
      <trkpt lat="48.12281" lon="7.09897">
        <ele>1032.3</ele>
        <time>2021-08-05T11:58:22Z</time>
      </trkpt>
      <trkpt lat="48.12281" lon="7.09891">
        <ele>1032.7</ele>
        <time>2021-08-05T11:58:23Z</time>
      </trkpt>
      <trkpt lat="48.12281" lon="7.09885">
        <ele>1033.1</ele>
        <time>2021-08-05T11:58:25Z</time>
      </trkpt>
      <trkpt lat="48.1228" lon="7.09881">
        <ele>1033.4</ele>
        <time>2021-08-05T11:58:26Z</time>
      </trkpt>
      <trkpt lat="48.1228" lon="7.09879">
        <ele>1033.5</ele>
        <time>2021-08-05T11:58:27Z</time>
      </trkpt>
      <trkpt lat="48.1228" lon="7.09876">
        <ele>1033.7</ele>
        <time>2021-08-05T11:58:29Z</time>
      </trkpt>
      <trkpt lat="48.12282" lon="7.09873">
        <ele>1034</ele>
        <time>2021-08-05T11:58:30Z</time>
      </trkpt>
      <trkpt lat="48.12282" lon="7.09873">
        <ele>1034</ele>
        <time>2021-08-05T11:58:31Z</time>
      </trkpt>
      <trkpt lat="48.12282" lon="7.09873">
        <ele>1034.1</ele>
        <time>2021-08-05T11:58:33Z</time>
      </trkpt>
      <trkpt lat="48.12281" lon="7.09869">
        <ele>1034.4</ele>
        <time>2021-08-05T11:58:34Z</time>
      </trkpt>
      <trkpt lat="48.12278" lon="7.09867">
        <ele>1034.7</ele>
        <time>2021-08-05T11:58:36Z</time>
      </trkpt>
      <trkpt lat="48.12275" lon="7.09865">
        <ele>1035</ele>
        <time>2021-08-05T11:58:37Z</time>
      </trkpt>
      <trkpt lat="48.12273" lon="7.09863">
        <ele>1035.3</ele>
        <time>2021-08-05T11:58:38Z</time>
      </trkpt>
      <trkpt lat="48.12271" lon="7.0986">
        <ele>1035.5</ele>
        <time>2021-08-05T11:58:40Z</time>
      </trkpt>
      <trkpt lat="48.12269" lon="7.09857">
        <ele>1035.6</ele>
        <time>2021-08-05T11:58:41Z</time>
      </trkpt>
      <trkpt lat="48.12267" lon="7.09854">
        <ele>1035.7</ele>
        <time>2021-08-05T11:58:43Z</time>
      </trkpt>
      <trkpt lat="48.12265" lon="7.09849">
        <ele>1035.9</ele>
        <time>2021-08-05T11:58:44Z</time>
      </trkpt>
      <trkpt lat="48.12264" lon="7.09847">
        <ele>1035.9</ele>
        <time>2021-08-05T11:58:45Z</time>
      </trkpt>
      <trkpt lat="48.12262" lon="7.09843">
        <ele>1036</ele>
        <time>2021-08-05T11:58:47Z</time>
      </trkpt>
      <trkpt lat="48.12261" lon="7.09842">
        <ele>1036.1</ele>
        <time>2021-08-05T11:58:48Z</time>
      </trkpt>
      <trkpt lat="48.12259" lon="7.09838">
        <ele>1036.2</ele>
        <time>2021-08-05T11:58:49Z</time>
      </trkpt>
      <trkpt lat="48.12257" lon="7.09834">
        <ele>1036.2</ele>
        <time>2021-08-05T11:58:50Z</time>
      </trkpt>
      <trkpt lat="48.12256" lon="7.09833">
        <ele>1036.2</ele>
        <time>2021-08-05T11:58:51Z</time>
      </trkpt>
      <trkpt lat="48.12255" lon="7.09828">
        <ele>1036.3</ele>
        <time>2021-08-05T11:58:52Z</time>
      </trkpt>
      <trkpt lat="48.12253" lon="7.09825">
        <ele>1036.3</ele>
        <time>2021-08-05T11:58:54Z</time>
      </trkpt>
      <trkpt lat="48.12251" lon="7.0982">
        <ele>1036.3</ele>
        <time>2021-08-05T11:58:55Z</time>
      </trkpt>
      <trkpt lat="48.12248" lon="7.09813">
        <ele>1036.3</ele>
        <time>2021-08-05T11:58:57Z</time>
      </trkpt>
      <trkpt lat="48.12245" lon="7.0981">
        <ele>1036.2</ele>
        <time>2021-08-05T11:58:58Z</time>
      </trkpt>
      <trkpt lat="48.12244" lon="7.09809">
        <ele>1036.2</ele>
        <time>2021-08-05T11:58:59Z</time>
      </trkpt>
      <trkpt lat="48.1224" lon="7.09805">
        <ele>1036.2</ele>
        <time>2021-08-05T11:59:00Z</time>
      </trkpt>
      <trkpt lat="48.12238" lon="7.09801">
        <ele>1036.2</ele>
        <time>2021-08-05T11:59:02Z</time>
      </trkpt>
      <trkpt lat="48.12235" lon="7.09797">
        <ele>1036.2</ele>
        <time>2021-08-05T11:59:03Z</time>
      </trkpt>
      <trkpt lat="48.12232" lon="7.09794">
        <ele>1036.1</ele>
        <time>2021-08-05T11:59:04Z</time>
      </trkpt>
      <trkpt lat="48.12228" lon="7.09791">
        <ele>1036.1</ele>
        <time>2021-08-05T11:59:06Z</time>
      </trkpt>
      <trkpt lat="48.12222" lon="7.0979">
        <ele>1036</ele>
        <time>2021-08-05T11:59:07Z</time>
      </trkpt>
      <trkpt lat="48.12216" lon="7.09791">
        <ele>1036</ele>
        <time>2021-08-05T11:59:08Z</time>
      </trkpt>
      <trkpt lat="48.12212" lon="7.09793">
        <ele>1035.9</ele>
        <time>2021-08-05T11:59:10Z</time>
      </trkpt>
      <trkpt lat="48.12205" lon="7.09796">
        <ele>1035.9</ele>
        <time>2021-08-05T11:59:11Z</time>
      </trkpt>
      <trkpt lat="48.12199" lon="7.09798">
        <ele>1035.8</ele>
        <time>2021-08-05T11:59:13Z</time>
      </trkpt>
      <trkpt lat="48.12191" lon="7.09797">
        <ele>1035.7</ele>
        <time>2021-08-05T11:59:14Z</time>
      </trkpt>
      <trkpt lat="48.12181" lon="7.09797">
        <ele>1035.6</ele>
        <time>2021-08-05T11:59:16Z</time>
      </trkpt>
      <trkpt lat="48.12177" lon="7.09798">
        <ele>1035.6</ele>
        <time>2021-08-05T11:59:17Z</time>
      </trkpt>
      <trkpt lat="48.12173" lon="7.098">
        <ele>1035.6</ele>
        <time>2021-08-05T11:59:18Z</time>
      </trkpt>
      <trkpt lat="48.1217" lon="7.09804">
        <ele>1035.6</ele>
        <time>2021-08-05T11:59:19Z</time>
      </trkpt>
      <trkpt lat="48.12167" lon="7.09809">
        <ele>1035.5</ele>
        <time>2021-08-05T11:59:20Z</time>
      </trkpt>
      <trkpt lat="48.12159" lon="7.09819">
        <ele>1035.4</ele>
        <time>2021-08-05T11:59:22Z</time>
      </trkpt>
      <trkpt lat="48.12156" lon="7.09825">
        <ele>1035.4</ele>
        <time>2021-08-05T11:59:23Z</time>
      </trkpt>
      <trkpt lat="48.12153" lon="7.0983">
        <ele>1035.3</ele>
        <time>2021-08-05T11:59:24Z</time>
      </trkpt>
      <trkpt lat="48.12149" lon="7.09844">
        <ele>1035.2</ele>
        <time>2021-08-05T11:59:26Z</time>
      </trkpt>
      <trkpt lat="48.12146" lon="7.09853">
        <ele>1035.2</ele>
        <time>2021-08-05T11:59:27Z</time>
      </trkpt>
      <trkpt lat="48.12141" lon="7.09862">
        <ele>1035.1</ele>
        <time>2021-08-05T11:59:29Z</time>
      </trkpt>
      <trkpt lat="48.12139" lon="7.09868">
        <ele>1035</ele>
        <time>2021-08-05T11:59:30Z</time>
      </trkpt>
      <trkpt lat="48.1213" lon="7.0988">
        <ele>1034.9</ele>
        <time>2021-08-05T11:59:32Z</time>
      </trkpt>
      <trkpt lat="48.12121" lon="7.09891">
        <ele>1034.8</ele>
        <time>2021-08-05T11:59:34Z</time>
      </trkpt>
      <trkpt lat="48.12117" lon="7.09897">
        <ele>1034.8</ele>
        <time>2021-08-05T11:59:35Z</time>
      </trkpt>
      <trkpt lat="48.12114" lon="7.09902">
        <ele>1034.7</ele>
        <time>2021-08-05T11:59:36Z</time>
      </trkpt>
      <trkpt lat="48.12114" lon="7.09908">
        <ele>1034.7</ele>
        <time>2021-08-05T11:59:37Z</time>
      </trkpt>
      <trkpt lat="48.12112" lon="7.09915">
        <ele>1034.6</ele>
        <time>2021-08-05T11:59:38Z</time>
      </trkpt>
      <trkpt lat="48.12111" lon="7.09924">
        <ele>1034.6</ele>
        <time>2021-08-05T11:59:40Z</time>
      </trkpt>
      <trkpt lat="48.1211" lon="7.09929">
        <ele>1034.5</ele>
        <time>2021-08-05T11:59:41Z</time>
      </trkpt>
      <trkpt lat="48.1211" lon="7.09935">
        <ele>1034.5</ele>
        <time>2021-08-05T11:59:42Z</time>
      </trkpt>
      <trkpt lat="48.12109" lon="7.09942">
        <ele>1034.5</ele>
        <time>2021-08-05T11:59:43Z</time>
      </trkpt>
      <trkpt lat="48.12109" lon="7.09948">
        <ele>1034.5</ele>
        <time>2021-08-05T11:59:44Z</time>
      </trkpt>
      <trkpt lat="48.12108" lon="7.09962">
        <ele>1034.4</ele>
        <time>2021-08-05T11:59:46Z</time>
      </trkpt>
      <trkpt lat="48.12108" lon="7.09978">
        <ele>1034.3</ele>
        <time>2021-08-05T11:59:48Z</time>
      </trkpt>
      <trkpt lat="48.12108" lon="7.09987">
        <ele>1034.2</ele>
        <time>2021-08-05T11:59:49Z</time>
      </trkpt>
      <trkpt lat="48.12113" lon="7.10006">
        <ele>1034</ele>
        <time>2021-08-05T11:59:51Z</time>
      </trkpt>
      <trkpt lat="48.12118" lon="7.10023">
        <ele>1033.8</ele>
        <time>2021-08-05T11:59:53Z</time>
      </trkpt>
      <trkpt lat="48.1212" lon="7.1004">
        <ele>1033.6</ele>
        <time>2021-08-05T11:59:55Z</time>
      </trkpt>
      <trkpt lat="48.12121" lon="7.10049">
        <ele>1033.5</ele>
        <time>2021-08-05T11:59:56Z</time>
      </trkpt>
      <trkpt lat="48.12123" lon="7.10062">
        <ele>1033.4</ele>
        <time>2021-08-05T11:59:58Z</time>
      </trkpt>
      <trkpt lat="48.12124" lon="7.10067">
        <ele>1033.4</ele>
        <time>2021-08-05T11:59:59Z</time>
      </trkpt>
      <trkpt lat="48.12125" lon="7.10073">
        <ele>1033.4</ele>
        <time>2021-08-05T12:00:00Z</time>
      </trkpt>
      <trkpt lat="48.12124" lon="7.10081">
        <ele>1033.4</ele>
        <time>2021-08-05T12:00:02Z</time>
      </trkpt>
      <trkpt lat="48.12123" lon="7.10085">
        <ele>1033.3</ele>
        <time>2021-08-05T12:00:03Z</time>
      </trkpt>
      <trkpt lat="48.12121" lon="7.10094">
        <ele>1033.3</ele>
        <time>2021-08-05T12:00:05Z</time>
      </trkpt>
      <trkpt lat="48.12117" lon="7.10106">
        <ele>1033.2</ele>
        <time>2021-08-05T12:00:06Z</time>
      </trkpt>
      <trkpt lat="48.12114" lon="7.10113">
        <ele>1033.1</ele>
        <time>2021-08-05T12:00:08Z</time>
      </trkpt>
      <trkpt lat="48.12113" lon="7.10121">
        <ele>1033</ele>
        <time>2021-08-05T12:00:09Z</time>
      </trkpt>
      <trkpt lat="48.12113" lon="7.10128">
        <ele>1033</ele>
        <time>2021-08-05T12:00:10Z</time>
      </trkpt>
      <trkpt lat="48.12112" lon="7.10135">
        <ele>1032.9</ele>
        <time>2021-08-05T12:00:11Z</time>
      </trkpt>
      <trkpt lat="48.1211" lon="7.1014">
        <ele>1032.9</ele>
        <time>2021-08-05T12:00:12Z</time>
      </trkpt>
      <trkpt lat="48.12108" lon="7.10145">
        <ele>1032.8</ele>
        <time>2021-08-05T12:00:13Z</time>
      </trkpt>
      <trkpt lat="48.12107" lon="7.10151">
        <ele>1032.8</ele>
        <time>2021-08-05T12:00:15Z</time>
      </trkpt>
      <trkpt lat="48.12102" lon="7.1016">
        <ele>1032.8</ele>
        <time>2021-08-05T12:00:17Z</time>
      </trkpt>
      <trkpt lat="48.12099" lon="7.10163">
        <ele>1032.7</ele>
        <time>2021-08-05T12:00:18Z</time>
      </trkpt>
      <trkpt lat="48.12091" lon="7.10168">
        <ele>1032.7</ele>
        <time>2021-08-05T12:00:19Z</time>
      </trkpt>
      <trkpt lat="48.12084" lon="7.10171">
        <ele>1032.6</ele>
        <time>2021-08-05T12:00:21Z</time>
      </trkpt>
      <trkpt lat="48.12081" lon="7.10176">
        <ele>1032.6</ele>
        <time>2021-08-05T12:00:22Z</time>
      </trkpt>
      <trkpt lat="48.12079" lon="7.10181">
        <ele>1032.6</ele>
        <time>2021-08-05T12:00:23Z</time>
      </trkpt>
      <trkpt lat="48.12076" lon="7.10186">
        <ele>1032.6</ele>
        <time>2021-08-05T12:00:24Z</time>
      </trkpt>
      <trkpt lat="48.12073" lon="7.10191">
        <ele>1032.6</ele>
        <time>2021-08-05T12:00:25Z</time>
      </trkpt>
      <trkpt lat="48.12071" lon="7.10197">
        <ele>1032.6</ele>
        <time>2021-08-05T12:00:26Z</time>
      </trkpt>
      <trkpt lat="48.12068" lon="7.10205">
        <ele>1032.5</ele>
        <time>2021-08-05T12:00:28Z</time>
      </trkpt>
      <trkpt lat="48.12067" lon="7.1022">
        <ele>1032.4</ele>
        <time>2021-08-05T12:00:30Z</time>
      </trkpt>
      <trkpt lat="48.1207" lon="7.10234">
        <ele>1032.3</ele>
        <time>2021-08-05T12:00:32Z</time>
      </trkpt>
      <trkpt lat="48.12072" lon="7.10242">
        <ele>1032.2</ele>
        <time>2021-08-05T12:00:33Z</time>
      </trkpt>
      <trkpt lat="48.12072" lon="7.10248">
        <ele>1032.1</ele>
        <time>2021-08-05T12:00:34Z</time>
      </trkpt>
      <trkpt lat="48.12073" lon="7.10257">
        <ele>1032</ele>
        <time>2021-08-05T12:00:35Z</time>
      </trkpt>
      <trkpt lat="48.12073" lon="7.10266">
        <ele>1031.9</ele>
        <time>2021-08-05T12:00:37Z</time>
      </trkpt>
      <trkpt lat="48.12075" lon="7.10273">
        <ele>1031.8</ele>
        <time>2021-08-05T12:00:38Z</time>
      </trkpt>
      <trkpt lat="48.12081" lon="7.10287">
        <ele>1031.7</ele>
        <time>2021-08-05T12:00:40Z</time>
      </trkpt>
      <trkpt lat="48.12084" lon="7.10295">
        <ele>1031.7</ele>
        <time>2021-08-05T12:00:41Z</time>
      </trkpt>
      <trkpt lat="48.12085" lon="7.10303">
        <ele>1031.6</ele>
        <time>2021-08-05T12:00:42Z</time>
      </trkpt>
      <trkpt lat="48.12089" lon="7.10312">
        <ele>1031.6</ele>
        <time>2021-08-05T12:00:44Z</time>
      </trkpt>
      <trkpt lat="48.12093" lon="7.10329">
        <ele>1031.5</ele>
        <time>2021-08-05T12:00:46Z</time>
      </trkpt>
      <trkpt lat="48.12095" lon="7.10337">
        <ele>1031.4</ele>
        <time>2021-08-05T12:00:47Z</time>
      </trkpt>
      <trkpt lat="48.12097" lon="7.10344">
        <ele>1031.4</ele>
        <time>2021-08-05T12:00:48Z</time>
      </trkpt>
      <trkpt lat="48.121" lon="7.10355">
        <ele>1031.3</ele>
        <time>2021-08-05T12:00:49Z</time>
      </trkpt>
      <trkpt lat="48.12104" lon="7.10363">
        <ele>1031.2</ele>
        <time>2021-08-05T12:00:51Z</time>
      </trkpt>
      <trkpt lat="48.12106" lon="7.10369">
        <ele>1031.2</ele>
        <time>2021-08-05T12:00:52Z</time>
      </trkpt>
      <trkpt lat="48.12105" lon="7.10378">
        <ele>1031.2</ele>
        <time>2021-08-05T12:00:54Z</time>
      </trkpt>
      <trkpt lat="48.12107" lon="7.10388">
        <ele>1031.1</ele>
        <time>2021-08-05T12:00:55Z</time>
      </trkpt>
      <trkpt lat="48.1211" lon="7.10395">
        <ele>1031.1</ele>
        <time>2021-08-05T12:00:56Z</time>
      </trkpt>
      <trkpt lat="48.12107" lon="7.1041">
        <ele>1031.1</ele>
        <time>2021-08-05T12:00:58Z</time>
      </trkpt>
      <trkpt lat="48.12105" lon="7.10426">
        <ele>1031.1</ele>
        <time>2021-08-05T12:01:00Z</time>
      </trkpt>
      <trkpt lat="48.12108" lon="7.10433">
        <ele>1031.1</ele>
        <time>2021-08-05T12:01:01Z</time>
      </trkpt>
      <trkpt lat="48.12108" lon="7.1044">
        <ele>1031.1</ele>
        <time>2021-08-05T12:01:02Z</time>
      </trkpt>
      <trkpt lat="48.12109" lon="7.10448">
        <ele>1031</ele>
        <time>2021-08-05T12:01:04Z</time>
      </trkpt>
      <trkpt lat="48.12109" lon="7.10454">
        <ele>1031</ele>
        <time>2021-08-05T12:01:05Z</time>
      </trkpt>
      <trkpt lat="48.12112" lon="7.10467">
        <ele>1031</ele>
        <time>2021-08-05T12:01:07Z</time>
      </trkpt>
      <trkpt lat="48.12115" lon="7.10479">
        <ele>1030.9</ele>
        <time>2021-08-05T12:01:09Z</time>
      </trkpt>
      <trkpt lat="48.12119" lon="7.10491">
        <ele>1030.9</ele>
        <time>2021-08-05T12:01:11Z</time>
      </trkpt>
      <trkpt lat="48.12124" lon="7.10504">
        <ele>1030.8</ele>
        <time>2021-08-05T12:01:13Z</time>
      </trkpt>
      <trkpt lat="48.1213" lon="7.10515">
        <ele>1030.7</ele>
        <time>2021-08-05T12:01:15Z</time>
      </trkpt>
      <trkpt lat="48.12132" lon="7.10518">
        <ele>1030.7</ele>
        <time>2021-08-05T12:01:16Z</time>
      </trkpt>
      <trkpt lat="48.12134" lon="7.10524">
        <ele>1030.7</ele>
        <time>2021-08-05T12:01:17Z</time>
      </trkpt>
      <trkpt lat="48.12136" lon="7.10533">
        <ele>1030.6</ele>
        <time>2021-08-05T12:01:19Z</time>
      </trkpt>
      <trkpt lat="48.12137" lon="7.10542">
        <ele>1030.5</ele>
        <time>2021-08-05T12:01:20Z</time>
      </trkpt>
      <trkpt lat="48.12138" lon="7.10552">
        <ele>1030.3</ele>
        <time>2021-08-05T12:01:22Z</time>
      </trkpt>
      <trkpt lat="48.12138" lon="7.10558">
        <ele>1030.2</ele>
        <time>2021-08-05T12:01:23Z</time>
      </trkpt>
      <trkpt lat="48.12136" lon="7.10569">
        <ele>1030</ele>
        <time>2021-08-05T12:01:24Z</time>
      </trkpt>
      <trkpt lat="48.12134" lon="7.10576">
        <ele>1029.9</ele>
        <time>2021-08-05T12:01:26Z</time>
      </trkpt>
      <trkpt lat="48.12133" lon="7.10585">
        <ele>1029.8</ele>
        <time>2021-08-05T12:01:27Z</time>
      </trkpt>
      <trkpt lat="48.12131" lon="7.106">
        <ele>1029.6</ele>
        <time>2021-08-05T12:01:29Z</time>
      </trkpt>
      <trkpt lat="48.12132" lon="7.10605">
        <ele>1029.5</ele>
        <time>2021-08-05T12:01:30Z</time>
      </trkpt>
      <trkpt lat="48.12131" lon="7.10616">
        <ele>1029.5</ele>
        <time>2021-08-05T12:01:31Z</time>
      </trkpt>
      <trkpt lat="48.12131" lon="7.10623">
        <ele>1029.4</ele>
        <time>2021-08-05T12:01:32Z</time>
      </trkpt>
      <trkpt lat="48.12129" lon="7.10629">
        <ele>1029.4</ele>
        <time>2021-08-05T12:01:34Z</time>
      </trkpt>
      <trkpt lat="48.12127" lon="7.10635">
        <ele>1029.4</ele>
        <time>2021-08-05T12:01:35Z</time>
      </trkpt>
      <trkpt lat="48.12122" lon="7.10643">
        <ele>1029.3</ele>
        <time>2021-08-05T12:01:36Z</time>
      </trkpt>
      <trkpt lat="48.12112" lon="7.10654">
        <ele>1029.1</ele>
        <time>2021-08-05T12:01:38Z</time>
      </trkpt>
      <trkpt lat="48.12106" lon="7.10657">
        <ele>1029</ele>
        <time>2021-08-05T12:01:39Z</time>
      </trkpt>
      <trkpt lat="48.12094" lon="7.10665">
        <ele>1028.8</ele>
        <time>2021-08-05T12:01:41Z</time>
      </trkpt>
      <trkpt lat="48.12088" lon="7.10669">
        <ele>1028.7</ele>
        <time>2021-08-05T12:01:42Z</time>
      </trkpt>
      <trkpt lat="48.12078" lon="7.10677">
        <ele>1028.6</ele>
        <time>2021-08-05T12:01:44Z</time>
      </trkpt>
      <trkpt lat="48.12073" lon="7.10682">
        <ele>1028.5</ele>
        <time>2021-08-05T12:01:45Z</time>
      </trkpt>
      <trkpt lat="48.12068" lon="7.10685">
        <ele>1028.5</ele>
        <time>2021-08-05T12:01:46Z</time>
      </trkpt>
      <trkpt lat="48.12062" lon="7.10688">
        <ele>1028.4</ele>
        <time>2021-08-05T12:01:47Z</time>
      </trkpt>
      <trkpt lat="48.12057" lon="7.1069">
        <ele>1028.3</ele>
        <time>2021-08-05T12:01:48Z</time>
      </trkpt>
      <trkpt lat="48.12047" lon="7.10693">
        <ele>1028.1</ele>
        <time>2021-08-05T12:01:50Z</time>
      </trkpt>
      <trkpt lat="48.12042" lon="7.10694">
        <ele>1028</ele>
        <time>2021-08-05T12:01:51Z</time>
      </trkpt>
      <trkpt lat="48.12038" lon="7.10694">
        <ele>1027.9</ele>
        <time>2021-08-05T12:01:52Z</time>
      </trkpt>
      <trkpt lat="48.12034" lon="7.10695">
        <ele>1027.8</ele>
        <time>2021-08-05T12:01:53Z</time>
      </trkpt>
      <trkpt lat="48.12032" lon="7.10695">
        <ele>1027.7</ele>
        <time>2021-08-05T12:01:54Z</time>
      </trkpt>
      <trkpt lat="48.12032" lon="7.10695">
        <ele>1027.7</ele>
        <time>2021-08-05T12:01:56Z</time>
      </trkpt>
      <trkpt lat="48.12026" lon="7.10689">
        <ele>1027.5</ele>
        <time>2021-08-05T12:01:58Z</time>
      </trkpt>
      <trkpt lat="48.12022" lon="7.10683">
        <ele>1027.4</ele>
        <time>2021-08-05T12:01:59Z</time>
      </trkpt>
      <trkpt lat="48.12016" lon="7.10676">
        <ele>1027.3</ele>
        <time>2021-08-05T12:02:01Z</time>
      </trkpt>
      <trkpt lat="48.12007" lon="7.1067">
        <ele>1027.2</ele>
        <time>2021-08-05T12:02:02Z</time>
      </trkpt>
      <trkpt lat="48.11999" lon="7.10664">
        <ele>1027.1</ele>
        <time>2021-08-05T12:02:03Z</time>
      </trkpt>
      <trkpt lat="48.11991" lon="7.10659">
        <ele>1027.1</ele>
        <time>2021-08-05T12:02:04Z</time>
      </trkpt>
      <trkpt lat="48.11982" lon="7.10651">
        <ele>1027.1</ele>
        <time>2021-08-05T12:02:06Z</time>
      </trkpt>
      <trkpt lat="48.11977" lon="7.10645">
        <ele>1027.1</ele>
        <time>2021-08-05T12:02:07Z</time>
      </trkpt>
      <trkpt lat="48.11976" lon="7.10642">
        <ele>1027.1</ele>
        <time>2021-08-05T12:02:08Z</time>
      </trkpt>
      <trkpt lat="48.11971" lon="7.10637">
        <ele>1027.1</ele>
        <time>2021-08-05T12:02:09Z</time>
      </trkpt>
      <trkpt lat="48.11969" lon="7.10634">
        <ele>1027.1</ele>
        <time>2021-08-05T12:02:11Z</time>
      </trkpt>
      <trkpt lat="48.11966" lon="7.10631">
        <ele>1027.1</ele>
        <time>2021-08-05T12:02:12Z</time>
      </trkpt>
      <trkpt lat="48.11944" lon="7.10611">
        <ele>1027.1</ele>
        <time>2021-08-05T12:02:14Z</time>
      </trkpt>
      <trkpt lat="48.1194" lon="7.10608">
        <ele>1027</ele>
        <time>2021-08-05T12:02:15Z</time>
      </trkpt>
      <trkpt lat="48.11934" lon="7.10603">
        <ele>1027</ele>
        <time>2021-08-05T12:02:16Z</time>
      </trkpt>
      <trkpt lat="48.11928" lon="7.10599">
        <ele>1027</ele>
        <time>2021-08-05T12:02:17Z</time>
      </trkpt>
      <trkpt lat="48.11924" lon="7.10595">
        <ele>1027</ele>
        <time>2021-08-05T12:02:18Z</time>
      </trkpt>
      <trkpt lat="48.11915" lon="7.10587">
        <ele>1027</ele>
        <time>2021-08-05T12:02:20Z</time>
      </trkpt>
      <trkpt lat="48.11912" lon="7.10585">
        <ele>1027</ele>
        <time>2021-08-05T12:02:21Z</time>
      </trkpt>
      <trkpt lat="48.11906" lon="7.10585">
        <ele>1027</ele>
        <time>2021-08-05T12:02:22Z</time>
      </trkpt>
      <trkpt lat="48.11902" lon="7.10582">
        <ele>1027</ele>
        <time>2021-08-05T12:02:23Z</time>
      </trkpt>
      <trkpt lat="48.11899" lon="7.10579">
        <ele>1027</ele>
        <time>2021-08-05T12:02:25Z</time>
      </trkpt>
      <trkpt lat="48.11896" lon="7.10577">
        <ele>1027</ele>
        <time>2021-08-05T12:02:26Z</time>
      </trkpt>
      <trkpt lat="48.11892" lon="7.10573">
        <ele>1027</ele>
        <time>2021-08-05T12:02:27Z</time>
      </trkpt>
      <trkpt lat="48.11888" lon="7.10569">
        <ele>1027</ele>
        <time>2021-08-05T12:02:28Z</time>
      </trkpt>
      <trkpt lat="48.11884" lon="7.10565">
        <ele>1026.7</ele>
        <time>2021-08-05T12:02:29Z</time>
      </trkpt>
      <trkpt lat="48.11881" lon="7.10562">
        <ele>1026.4</ele>
        <time>2021-08-05T12:02:30Z</time>
      </trkpt>
      <trkpt lat="48.11878" lon="7.10559">
        <ele>1026</ele>
        <time>2021-08-05T12:02:31Z</time>
      </trkpt>
      <trkpt lat="48.11875" lon="7.10554">
        <ele>1025.8</ele>
        <time>2021-08-05T12:02:33Z</time>
      </trkpt>
      <trkpt lat="48.11873" lon="7.10553">
        <ele>1025.7</ele>
        <time>2021-08-05T12:02:34Z</time>
      </trkpt>
      <trkpt lat="48.11869" lon="7.10552">
        <ele>1025.6</ele>
        <time>2021-08-05T12:02:36Z</time>
      </trkpt>
      <trkpt lat="48.11866" lon="7.10553">
        <ele>1025.6</ele>
        <time>2021-08-05T12:02:37Z</time>
      </trkpt>
      <trkpt lat="48.11864" lon="7.10553">
        <ele>1025.5</ele>
        <time>2021-08-05T12:02:38Z</time>
      </trkpt>
      <trkpt lat="48.11863" lon="7.10556">
        <ele>1025.5</ele>
        <time>2021-08-05T12:02:40Z</time>
      </trkpt>
      <trkpt lat="48.11861" lon="7.10558">
        <ele>1025.5</ele>
        <time>2021-08-05T12:02:41Z</time>
      </trkpt>
      <trkpt lat="48.11859" lon="7.10557">
        <ele>1025.5</ele>
        <time>2021-08-05T12:02:43Z</time>
      </trkpt>
      <trkpt lat="48.11858" lon="7.10555">
        <ele>1025.5</ele>
        <time>2021-08-05T12:02:44Z</time>
      </trkpt>
      <trkpt lat="48.11856" lon="7.1055">
        <ele>1025.5</ele>
        <time>2021-08-05T12:02:45Z</time>
      </trkpt>
      <trkpt lat="48.11852" lon="7.10549">
        <ele>1025.5</ele>
        <time>2021-08-05T12:02:47Z</time>
      </trkpt>
      <trkpt lat="48.11849" lon="7.10549">
        <ele>1025.5</ele>
        <time>2021-08-05T12:02:49Z</time>
      </trkpt>
      <trkpt lat="48.11849" lon="7.10549">
        <ele>1025.5</ele>
        <time>2021-08-05T12:02:50Z</time>
      </trkpt>
      <trkpt lat="48.11849" lon="7.10547">
        <ele>1025.5</ele>
        <time>2021-08-05T12:02:52Z</time>
      </trkpt>
      <trkpt lat="48.11849" lon="7.10545">
        <ele>1025.5</ele>
        <time>2021-08-05T12:02:53Z</time>
      </trkpt>
      <trkpt lat="48.11849" lon="7.10544">
        <ele>1025.5</ele>
        <time>2021-08-05T12:02:54Z</time>
      </trkpt>
      <trkpt lat="48.11849" lon="7.10544">
        <ele>1025.5</ele>
        <time>2021-08-05T12:02:56Z</time>
      </trkpt>
      <trkpt lat="48.11849" lon="7.10544">
        <ele>1025.5</ele>
        <time>2021-08-05T12:02:58Z</time>
      </trkpt>
      <trkpt lat="48.11849" lon="7.10544">
        <ele>1025.5</ele>
        <time>2021-08-05T12:02:59Z</time>
      </trkpt>
      <trkpt lat="48.11849" lon="7.10544">
        <ele>1025.5</ele>
        <time>2021-08-05T12:03:00Z</time>
      </trkpt>
      <trkpt lat="48.11851" lon="7.1052">
        <ele>1025.1</ele>
        <time>2021-08-05T12:03:17Z</time>
      </trkpt>
      <trkpt lat="48.11852" lon="7.10515">
        <ele>1025</ele>
        <time>2021-08-05T12:03:19Z</time>
      </trkpt>
      <trkpt lat="48.11854" lon="7.10508">
        <ele>1024.8</ele>
        <time>2021-08-05T12:03:20Z</time>
      </trkpt>
      <trkpt lat="48.11855" lon="7.10503">
        <ele>1024.8</ele>
        <time>2021-08-05T12:03:22Z</time>
      </trkpt>
      <trkpt lat="48.11856" lon="7.10499">
        <ele>1024.7</ele>
        <time>2021-08-05T12:03:24Z</time>
      </trkpt>
      <trkpt lat="48.11857" lon="7.10497">
        <ele>1024.7</ele>
        <time>2021-08-05T12:03:26Z</time>
      </trkpt>
      <trkpt lat="48.11857" lon="7.10496">
        <ele>1024.7</ele>
        <time>2021-08-05T12:03:29Z</time>
      </trkpt>
      <trkpt lat="48.11857" lon="7.10496">
        <ele>1024.7</ele>
        <time>2021-08-05T12:03:30Z</time>
      </trkpt>
      <trkpt lat="48.11858" lon="7.10495">
        <ele>1024.7</ele>
        <time>2021-08-05T12:03:31Z</time>
      </trkpt>
      <trkpt lat="48.11858" lon="7.10495">
        <ele>1024.7</ele>
        <time>2021-08-05T12:03:33Z</time>
      </trkpt>
      <trkpt lat="48.11858" lon="7.10496">
        <ele>1024.7</ele>
        <time>2021-08-05T12:03:34Z</time>
      </trkpt>
      <trkpt lat="48.1156" lon="7.10172">
        <ele>1015.9</ele>
        <time>2021-08-05T12:09:58Z</time>
      </trkpt>
      <trkpt lat="48.11557" lon="7.10173">
        <ele>1015.5</ele>
        <time>2021-08-05T12:10:00Z</time>
      </trkpt>
      <trkpt lat="48.11551" lon="7.10174">
        <ele>1014.9</ele>
        <time>2021-08-05T12:10:01Z</time>
      </trkpt>
      <trkpt lat="48.11545" lon="7.10174">
        <ele>1014.3</ele>
        <time>2021-08-05T12:10:02Z</time>
      </trkpt>
      <trkpt lat="48.1154" lon="7.10175">
        <ele>1013.5</ele>
        <time>2021-08-05T12:10:04Z</time>
      </trkpt>
      <trkpt lat="48.11534" lon="7.10175">
        <ele>1012.8</ele>
        <time>2021-08-05T12:10:05Z</time>
      </trkpt>
      <trkpt lat="48.11528" lon="7.10176">
        <ele>1012</ele>
        <time>2021-08-05T12:10:07Z</time>
      </trkpt>
      <trkpt lat="48.11523" lon="7.10176">
        <ele>1011.3</ele>
        <time>2021-08-05T12:10:09Z</time>
      </trkpt>
      <trkpt lat="48.11517" lon="7.10176">
        <ele>1010.5</ele>
        <time>2021-08-05T12:10:10Z</time>
      </trkpt>
      <trkpt lat="48.11511" lon="7.10177">
        <ele>1009.8</ele>
        <time>2021-08-05T12:11:37Z</time>
      </trkpt>
      <trkpt lat="48.11506" lon="7.10177">
        <ele>1009</ele>
        <time>2021-08-05T12:11:38Z</time>
      </trkpt>
      <trkpt lat="48.115" lon="7.10178">
        <ele>1008.2</ele>
        <time>2021-08-05T12:11:39Z</time>
      </trkpt>
      <trkpt lat="48.11497" lon="7.10179">
        <ele>1007.7</ele>
        <time>2021-08-05T12:11:40Z</time>
      </trkpt>
      <trkpt lat="48.11491" lon="7.10183">
        <ele>1006.9</ele>
        <time>2021-08-05T12:11:41Z</time>
      </trkpt>
      <trkpt lat="48.11486" lon="7.10184">
        <ele>1006.3</ele>
        <time>2021-08-05T12:11:43Z</time>
      </trkpt>
      <trkpt lat="48.11477" lon="7.10185">
        <ele>1005.4</ele>
        <time>2021-08-05T12:11:45Z</time>
      </trkpt>
      <trkpt lat="48.11469" lon="7.10184">
        <ele>1004.7</ele>
        <time>2021-08-05T12:11:46Z</time>
      </trkpt>
      <trkpt lat="48.11464" lon="7.10184">
        <ele>1004.1</ele>
        <time>2021-08-05T12:11:47Z</time>
      </trkpt>
      <trkpt lat="48.1146" lon="7.10184">
        <ele>1003.5</ele>
        <time>2021-08-05T12:11:48Z</time>
      </trkpt>
      <trkpt lat="48.11455" lon="7.10185">
        <ele>1002.9</ele>
        <time>2021-08-05T12:11:49Z</time>
      </trkpt>
      <trkpt lat="48.11454" lon="7.10184">
        <ele>1002.8</ele>
        <time>2021-08-05T12:11:50Z</time>
      </trkpt>
      <trkpt lat="48.11452" lon="7.10183">
        <ele>1002.4</ele>
        <time>2021-08-05T12:11:52Z</time>
      </trkpt>
      <trkpt lat="48.1145" lon="7.10183">
        <ele>1002</ele>
        <time>2021-08-05T12:11:53Z</time>
      </trkpt>
      <trkpt lat="48.11447" lon="7.10183">
        <ele>1001.6</ele>
        <time>2021-08-05T12:11:55Z</time>
      </trkpt>
      <trkpt lat="48.11445" lon="7.10183">
        <ele>1001.2</ele>
        <time>2021-08-05T12:11:56Z</time>
      </trkpt>
      <trkpt lat="48.11441" lon="7.10183">
        <ele>1000.5</ele>
        <time>2021-08-05T12:11:58Z</time>
      </trkpt>
      <trkpt lat="48.11437" lon="7.10182">
        <ele>999.7</ele>
        <time>2021-08-05T12:11:59Z</time>
      </trkpt>
      <trkpt lat="48.11433" lon="7.10182">
        <ele>999.1</ele>
        <time>2021-08-05T12:12:01Z</time>
      </trkpt>
      <trkpt lat="48.11429" lon="7.10182">
        <ele>998.5</ele>
        <time>2021-08-05T12:12:02Z</time>
      </trkpt>
      <trkpt lat="48.11427" lon="7.10183">
        <ele>998.1</ele>
        <time>2021-08-05T12:12:04Z</time>
      </trkpt>
      <trkpt lat="48.11426" lon="7.10183">
        <ele>998</ele>
        <time>2021-08-05T12:12:05Z</time>
      </trkpt>
      <trkpt lat="48.11423" lon="7.10185">
        <ele>997.4</ele>
        <time>2021-08-05T12:12:06Z</time>
      </trkpt>
      <trkpt lat="48.11421" lon="7.10186">
        <ele>997.1</ele>
        <time>2021-08-05T12:12:07Z</time>
      </trkpt>
      <trkpt lat="48.1142" lon="7.10186">
        <ele>996.8</ele>
        <time>2021-08-05T12:12:08Z</time>
      </trkpt>
      <trkpt lat="48.11416" lon="7.10188">
        <ele>996.1</ele>
        <time>2021-08-05T12:12:10Z</time>
      </trkpt>
      <trkpt lat="48.11414" lon="7.10188">
        <ele>995.9</ele>
        <time>2021-08-05T12:12:11Z</time>
      </trkpt>
      <trkpt lat="48.11413" lon="7.10188">
        <ele>995.7</ele>
        <time>2021-08-05T12:12:12Z</time>
      </trkpt>
      <trkpt lat="48.1141" lon="7.10189">
        <ele>995.2</ele>
        <time>2021-08-05T12:12:14Z</time>
      </trkpt>
      <trkpt lat="48.11405" lon="7.10189">
        <ele>994.7</ele>
        <time>2021-08-05T12:12:15Z</time>
      </trkpt>
      <trkpt lat="48.11402" lon="7.1019">
        <ele>994.2</ele>
        <time>2021-08-05T12:12:16Z</time>
      </trkpt>
      <trkpt lat="48.11398" lon="7.10193">
        <ele>993.5</ele>
        <time>2021-08-05T12:12:18Z</time>
      </trkpt>
      <trkpt lat="48.11392" lon="7.10196">
        <ele>992.6</ele>
        <time>2021-08-05T12:12:19Z</time>
      </trkpt>
      <trkpt lat="48.11387" lon="7.10199">
        <ele>991.7</ele>
        <time>2021-08-05T12:12:21Z</time>
      </trkpt>
      <trkpt lat="48.11385" lon="7.102">
        <ele>991.4</ele>
        <time>2021-08-05T12:12:22Z</time>
      </trkpt>
      <trkpt lat="48.11385" lon="7.102">
        <ele>991.4</ele>
        <time>2021-08-05T12:12:23Z</time>
      </trkpt>
      <trkpt lat="48.11386" lon="7.10199">
        <ele>991.2</ele>
        <time>2021-08-05T12:12:24Z</time>
      </trkpt>
      <trkpt lat="48.11386" lon="7.10197">
        <ele>991.1</ele>
        <time>2021-08-05T12:12:25Z</time>
      </trkpt>
      <trkpt lat="48.11385" lon="7.10193">
        <ele>990.6</ele>
        <time>2021-08-05T12:12:27Z</time>
      </trkpt>
      <trkpt lat="48.11384" lon="7.10191">
        <ele>990.3</ele>
        <time>2021-08-05T12:12:28Z</time>
      </trkpt>
      <trkpt lat="48.11383" lon="7.1019">
        <ele>990.2</ele>
        <time>2021-08-05T12:12:29Z</time>
      </trkpt>
      <trkpt lat="48.11383" lon="7.10189">
        <ele>990</ele>
        <time>2021-08-05T12:12:30Z</time>
      </trkpt>
      <trkpt lat="48.11379" lon="7.10187">
        <ele>989.5</ele>
        <time>2021-08-05T12:12:32Z</time>
      </trkpt>
      <trkpt lat="48.1127" lon="7.10098">
        <ele>964.2</ele>
        <time>2021-08-05T12:15:02Z</time>
      </trkpt>
      <trkpt lat="48.11268" lon="7.10089">
        <ele>963.4</ele>
        <time>2021-08-05T12:15:03Z</time>
      </trkpt>
      <trkpt lat="48.11264" lon="7.10073">
        <ele>962.6</ele>
        <time>2021-08-05T12:15:05Z</time>
      </trkpt>
      <trkpt lat="48.11261" lon="7.10059">
        <ele>962.2</ele>
        <time>2021-08-05T12:15:06Z</time>
      </trkpt>
      <trkpt lat="48.11258" lon="7.10044">
        <ele>961.8</ele>
        <time>2021-08-05T12:15:07Z</time>
      </trkpt>
      <trkpt lat="48.11258" lon="7.10031">
        <ele>961.7</ele>
        <time>2021-08-05T12:15:08Z</time>
      </trkpt>
      <trkpt lat="48.11257" lon="7.10022">
        <ele>961.8</ele>
        <time>2021-08-05T12:15:10Z</time>
      </trkpt>
      <trkpt lat="48.11258" lon="7.10017">
        <ele>961.9</ele>
        <time>2021-08-05T12:15:11Z</time>
      </trkpt>
      <trkpt lat="48.1126" lon="7.10009">
        <ele>962</ele>
        <time>2021-08-05T12:15:13Z</time>
      </trkpt>
      <trkpt lat="48.11262" lon="7.10006">
        <ele>962</ele>
        <time>2021-08-05T12:15:15Z</time>
      </trkpt>
      <trkpt lat="48.11263" lon="7.10004">
        <ele>962</ele>
        <time>2021-08-05T12:15:16Z</time>
      </trkpt>
      <trkpt lat="48.11266" lon="7.1">
        <ele>962</ele>
        <time>2021-08-05T12:15:18Z</time>
      </trkpt>
      <trkpt lat="48.11268" lon="7.09996">
        <ele>962.1</ele>
        <time>2021-08-05T12:15:20Z</time>
      </trkpt>
      <trkpt lat="48.11272" lon="7.09991">
        <ele>962.1</ele>
        <time>2021-08-05T12:15:22Z</time>
      </trkpt>
      <trkpt lat="48.11276" lon="7.09986">
        <ele>962.2</ele>
        <time>2021-08-05T12:15:24Z</time>
      </trkpt>
      <trkpt lat="48.1128" lon="7.09982">
        <ele>962.3</ele>
        <time>2021-08-05T12:15:25Z</time>
      </trkpt>
      <trkpt lat="48.11283" lon="7.0998">
        <ele>962.3</ele>
        <time>2021-08-05T12:15:26Z</time>
      </trkpt>
      <trkpt lat="48.11284" lon="7.09979">
        <ele>962.3</ele>
        <time>2021-08-05T12:15:27Z</time>
      </trkpt>
      <trkpt lat="48.11284" lon="7.09978">
        <ele>962.3</ele>
        <time>2021-08-05T12:15:29Z</time>
      </trkpt>
      <trkpt lat="48.11283" lon="7.09978">
        <ele>962.3</ele>
        <time>2021-08-05T12:15:31Z</time>
      </trkpt>
      <trkpt lat="48.11283" lon="7.09977">
        <ele>962.3</ele>
        <time>2021-08-05T12:15:32Z</time>
      </trkpt>
      <trkpt lat="48.11282" lon="7.09977">
        <ele>962.3</ele>
        <time>2021-08-05T12:15:33Z</time>
      </trkpt>
      <trkpt lat="48.11282" lon="7.09976">
        <ele>962.3</ele>
        <time>2021-08-05T12:15:34Z</time>
      </trkpt>
      <trkpt lat="48.11281" lon="7.09976">
        <ele>962.3</ele>
        <time>2021-08-05T12:15:36Z</time>
      </trkpt>
      <trkpt lat="48.1128" lon="7.09976">
        <ele>962.3</ele>
        <time>2021-08-05T12:15:37Z</time>
      </trkpt>
      <trkpt lat="48.11279" lon="7.09976">
        <ele>962.3</ele>
        <time>2021-08-05T12:15:39Z</time>
      </trkpt>
      <trkpt lat="48.11283" lon="7.09965">
        <ele>962.3</ele>
        <time>2021-08-05T12:17:12Z</time>
      </trkpt>
      <trkpt lat="48.1128" lon="7.09965">
        <ele>962.3</ele>
        <time>2021-08-05T12:17:13Z</time>
      </trkpt>
      <trkpt lat="48.11275" lon="7.09967">
        <ele>962.3</ele>
        <time>2021-08-05T12:17:15Z</time>
      </trkpt>
      <trkpt lat="48.1127" lon="7.09967">
        <ele>962.1</ele>
        <time>2021-08-05T12:17:16Z</time>
      </trkpt>
      <trkpt lat="48.11265" lon="7.09968">
        <ele>962</ele>
        <time>2021-08-05T12:17:17Z</time>
      </trkpt>
      <trkpt lat="48.11261" lon="7.0997">
        <ele>961.8</ele>
        <time>2021-08-05T12:17:18Z</time>
      </trkpt>
      <trkpt lat="48.11254" lon="7.09972">
        <ele>961.6</ele>
        <time>2021-08-05T12:17:20Z</time>
      </trkpt>
      <trkpt lat="48.11247" lon="7.09974">
        <ele>961.4</ele>
        <time>2021-08-05T12:17:22Z</time>
      </trkpt>
      <trkpt lat="48.11243" lon="7.09976">
        <ele>961.3</ele>
        <time>2021-08-05T12:17:23Z</time>
      </trkpt>
      <trkpt lat="48.11238" lon="7.0998">
        <ele>961.2</ele>
        <time>2021-08-05T12:17:24Z</time>
      </trkpt>
      <trkpt lat="48.11233" lon="7.09985">
        <ele>961.2</ele>
        <time>2021-08-05T12:17:26Z</time>
      </trkpt>
      <trkpt lat="48.11229" lon="7.0999">
        <ele>961.2</ele>
        <time>2021-08-05T12:17:27Z</time>
      </trkpt>
      <trkpt lat="48.11227" lon="7.09994">
        <ele>961.2</ele>
        <time>2021-08-05T12:17:28Z</time>
      </trkpt>
      <trkpt lat="48.11224" lon="7.10001">
        <ele>961.2</ele>
        <time>2021-08-05T12:17:30Z</time>
      </trkpt>
      <trkpt lat="48.11225" lon="7.10008">
        <ele>961.2</ele>
        <time>2021-08-05T12:17:31Z</time>
      </trkpt>
      <trkpt lat="48.11226" lon="7.10016">
        <ele>961.2</ele>
        <time>2021-08-05T12:17:33Z</time>
      </trkpt>
      <trkpt lat="48.11227" lon="7.1002">
        <ele>961.2</ele>
        <time>2021-08-05T12:17:34Z</time>
      </trkpt>
      <trkpt lat="48.11229" lon="7.10026">
        <ele>961.2</ele>
        <time>2021-08-05T12:17:36Z</time>
      </trkpt>
      <trkpt lat="48.11231" lon="7.10032">
        <ele>961.2</ele>
        <time>2021-08-05T12:17:38Z</time>
      </trkpt>
      <trkpt lat="48.11232" lon="7.10036">
        <ele>961.3</ele>
        <time>2021-08-05T12:17:39Z</time>
      </trkpt>
      <trkpt lat="48.11231" lon="7.10041">
        <ele>961.3</ele>
        <time>2021-08-05T12:17:41Z</time>
      </trkpt>
      <trkpt lat="48.1123" lon="7.10043">
        <ele>961.4</ele>
        <time>2021-08-05T12:17:42Z</time>
      </trkpt>
      <trkpt lat="48.11229" lon="7.10046">
        <ele>961.4</ele>
        <time>2021-08-05T12:17:43Z</time>
      </trkpt>
      <trkpt lat="48.11227" lon="7.10046">
        <ele>961.4</ele>
        <time>2021-08-05T12:17:45Z</time>
      </trkpt>
      <trkpt lat="48.11225" lon="7.10047">
        <ele>961.5</ele>
        <time>2021-08-05T12:17:47Z</time>
      </trkpt>
      <trkpt lat="48.11225" lon="7.10047">
        <ele>961.5</ele>
        <time>2021-08-05T12:17:48Z</time>
      </trkpt>
      <trkpt lat="48.11224" lon="7.10049">
        <ele>961.5</ele>
        <time>2021-08-05T12:17:49Z</time>
      </trkpt>
      <trkpt lat="48.11222" lon="7.10051">
        <ele>961.6</ele>
        <time>2021-08-05T12:17:51Z</time>
      </trkpt>
      <trkpt lat="48.11221" lon="7.10052">
        <ele>961.6</ele>
        <time>2021-08-05T12:17:52Z</time>
      </trkpt>
      <trkpt lat="48.11218" lon="7.10058">
        <ele>961.7</ele>
        <time>2021-08-05T12:17:55Z</time>
      </trkpt>
      <trkpt lat="48.11216" lon="7.10064">
        <ele>961.9</ele>
        <time>2021-08-05T12:17:57Z</time>
      </trkpt>
      <trkpt lat="48.11214" lon="7.1007">
        <ele>962</ele>
        <time>2021-08-05T12:17:58Z</time>
      </trkpt>
      <trkpt lat="48.11208" lon="7.10077">
        <ele>962.2</ele>
        <time>2021-08-05T12:18:00Z</time>
      </trkpt>
      <trkpt lat="48.11205" lon="7.10086">
        <ele>962.5</ele>
        <time>2021-08-05T12:18:01Z</time>
      </trkpt>
      <trkpt lat="48.11201" lon="7.10098">
        <ele>962.8</ele>
        <time>2021-08-05T12:18:03Z</time>
      </trkpt>
      <trkpt lat="48.11197" lon="7.1011">
        <ele>963.2</ele>
        <time>2021-08-05T12:18:04Z</time>
      </trkpt>
      <trkpt lat="48.11196" lon="7.10115">
        <ele>963.4</ele>
        <time>2021-08-05T12:18:05Z</time>
      </trkpt>
      <trkpt lat="48.11194" lon="7.10119">
        <ele>963.6</ele>
        <time>2021-08-05T12:18:06Z</time>
      </trkpt>
      <trkpt lat="48.11193" lon="7.10123">
        <ele>963.7</ele>
        <time>2021-08-05T12:18:07Z</time>
      </trkpt>
      <trkpt lat="48.11191" lon="7.10127">
        <ele>963.9</ele>
        <time>2021-08-05T12:18:08Z</time>
      </trkpt>
      <trkpt lat="48.1119" lon="7.10133">
        <ele>964.1</ele>
        <time>2021-08-05T12:18:09Z</time>
      </trkpt>
      <trkpt lat="48.11188" lon="7.10137">
        <ele>964.3</ele>
        <time>2021-08-05T12:18:11Z</time>
      </trkpt>
      <trkpt lat="48.11114" lon="7.10237">
        <ele>970.6</ele>
        <time>2021-08-05T12:19:16Z</time>
      </trkpt>
      <trkpt lat="48.11113" lon="7.10241">
        <ele>970.8</ele>
        <time>2021-08-05T12:19:18Z</time>
      </trkpt>
      <trkpt lat="48.11112" lon="7.10242">
        <ele>970.9</ele>
        <time>2021-08-05T12:19:19Z</time>
      </trkpt>
      <trkpt lat="48.11112" lon="7.10243">
        <ele>971</ele>
        <time>2021-08-05T12:19:20Z</time>
      </trkpt>
      <trkpt lat="48.11111" lon="7.10244">
        <ele>971.1</ele>
        <time>2021-08-05T12:19:21Z</time>
      </trkpt>
      <trkpt lat="48.11109" lon="7.10247">
        <ele>971.3</ele>
        <time>2021-08-05T12:19:23Z</time>
      </trkpt>
      <trkpt lat="48.11108" lon="7.10248">
        <ele>971.5</ele>
        <time>2021-08-05T12:19:24Z</time>
      </trkpt>
      <trkpt lat="48.11107" lon="7.10249">
        <ele>971.6</ele>
        <time>2021-08-05T12:19:25Z</time>
      </trkpt>
      <trkpt lat="48.11106" lon="7.1025">
        <ele>971.7</ele>
        <time>2021-08-05T12:19:26Z</time>
      </trkpt>
      <trkpt lat="48.11106" lon="7.10251">
        <ele>971.8</ele>
        <time>2021-08-05T12:19:27Z</time>
      </trkpt>
      <trkpt lat="48.11105" lon="7.10252">
        <ele>971.8</ele>
        <time>2021-08-05T12:19:28Z</time>
      </trkpt>
      <trkpt lat="48.11104" lon="7.10252">
        <ele>971.9</ele>
        <time>2021-08-05T12:19:29Z</time>
      </trkpt>
      <trkpt lat="48.11102" lon="7.10252">
        <ele>972.1</ele>
        <time>2021-08-05T12:19:30Z</time>
      </trkpt>
      <trkpt lat="48.11098" lon="7.10252">
        <ele>972.4</ele>
        <time>2021-08-05T12:19:32Z</time>
      </trkpt>
      <trkpt lat="48.11097" lon="7.10252">
        <ele>972.5</ele>
        <time>2021-08-05T12:19:33Z</time>
      </trkpt>
      <trkpt lat="48.11093" lon="7.10251">
        <ele>972.8</ele>
        <time>2021-08-05T12:19:35Z</time>
      </trkpt>
      <trkpt lat="48.1109" lon="7.1025">
        <ele>973</ele>
        <time>2021-08-05T12:19:36Z</time>
      </trkpt>
      <trkpt lat="48.1109" lon="7.1025">
        <ele>973.1</ele>
        <time>2021-08-05T12:19:37Z</time>
      </trkpt>
      <trkpt lat="48.11087" lon="7.10249">
        <ele>973.3</ele>
        <time>2021-08-05T12:19:39Z</time>
      </trkpt>
      <trkpt lat="48.11085" lon="7.10249">
        <ele>973.4</ele>
        <time>2021-08-05T12:19:40Z</time>
      </trkpt>
      <trkpt lat="48.11083" lon="7.10249">
        <ele>973.6</ele>
        <time>2021-08-05T12:19:42Z</time>
      </trkpt>
      <trkpt lat="48.11082" lon="7.10248">
        <ele>973.6</ele>
        <time>2021-08-05T12:19:43Z</time>
      </trkpt>
      <trkpt lat="48.1108" lon="7.10248">
        <ele>973.7</ele>
        <time>2021-08-05T12:19:44Z</time>
      </trkpt>
      <trkpt lat="48.11078" lon="7.10248">
        <ele>973.8</ele>
        <time>2021-08-05T12:19:46Z</time>
      </trkpt>
      <trkpt lat="48.11075" lon="7.10249">
        <ele>974</ele>
        <time>2021-08-05T12:19:47Z</time>
      </trkpt>
      <trkpt lat="48.11074" lon="7.10249">
        <ele>974</ele>
        <time>2021-08-05T12:19:48Z</time>
      </trkpt>
      <trkpt lat="48.11073" lon="7.10251">
        <ele>974.1</ele>
        <time>2021-08-05T12:19:49Z</time>
      </trkpt>
      <trkpt lat="48.11072" lon="7.10254">
        <ele>974.2</ele>
        <time>2021-08-05T12:19:51Z</time>
      </trkpt>
      <trkpt lat="48.11069" lon="7.10258">
        <ele>974.4</ele>
        <time>2021-08-05T12:19:53Z</time>
      </trkpt>
      <trkpt lat="48.11068" lon="7.10258">
        <ele>974.4</ele>
        <time>2021-08-05T12:19:54Z</time>
      </trkpt>
      <trkpt lat="48.11067" lon="7.10259">
        <ele>974.4</ele>
        <time>2021-08-05T12:19:55Z</time>
      </trkpt>
      <trkpt lat="48.11067" lon="7.10259">
        <ele>974.4</ele>
        <time>2021-08-05T12:19:56Z</time>
      </trkpt>
      <trkpt lat="48.11063" lon="7.10262">
        <ele>974.5</ele>
        <time>2021-08-05T12:19:58Z</time>
      </trkpt>
      <trkpt lat="48.11062" lon="7.10263">
        <ele>974.6</ele>
        <time>2021-08-05T12:19:59Z</time>
      </trkpt>
      <trkpt lat="48.11052" lon="7.10271">
        <ele>974.8</ele>
        <time>2021-08-05T12:20:05Z</time>
      </trkpt>
      <trkpt lat="48.11046" lon="7.10274">
        <ele>974.9</ele>
        <time>2021-08-05T12:20:07Z</time>
      </trkpt>
      <trkpt lat="48.11042" lon="7.10275">
        <ele>974.9</ele>
        <time>2021-08-05T12:20:08Z</time>
      </trkpt>
      <trkpt lat="48.11039" lon="7.10276">
        <ele>974.9</ele>
        <time>2021-08-05T12:20:09Z</time>
      </trkpt>
      <trkpt lat="48.11036" lon="7.10277">
        <ele>974.9</ele>
        <time>2021-08-05T12:20:10Z</time>
      </trkpt>
      <trkpt lat="48.11034" lon="7.10278">
        <ele>974.9</ele>
        <time>2021-08-05T12:20:11Z</time>
      </trkpt>
      <trkpt lat="48.11029" lon="7.10279">
        <ele>974.9</ele>
        <time>2021-08-05T12:20:13Z</time>
      </trkpt>
      <trkpt lat="48.11025" lon="7.10279">
        <ele>974.9</ele>
        <time>2021-08-05T12:20:15Z</time>
      </trkpt>
      <trkpt lat="48.11022" lon="7.10282">
        <ele>974.9</ele>
        <time>2021-08-05T12:20:16Z</time>
      </trkpt>
      <trkpt lat="48.11018" lon="7.10286">
        <ele>974.9</ele>
        <time>2021-08-05T12:20:18Z</time>
      </trkpt>
      <trkpt lat="48.11017" lon="7.10287">
        <ele>974.9</ele>
        <time>2021-08-05T12:20:19Z</time>
      </trkpt>
      <trkpt lat="48.11012" lon="7.10292">
        <ele>974.9</ele>
        <time>2021-08-05T12:20:21Z</time>
      </trkpt>
      <trkpt lat="48.11008" lon="7.10298">
        <ele>974.9</ele>
        <time>2021-08-05T12:20:23Z</time>
      </trkpt>
      <trkpt lat="48.11004" lon="7.10302">
        <ele>974.9</ele>
        <time>2021-08-05T12:20:24Z</time>
      </trkpt>
      <trkpt lat="48.11" lon="7.10302">
        <ele>974.9</ele>
        <time>2021-08-05T12:20:25Z</time>
      </trkpt>
      <trkpt lat="48.10993" lon="7.10302">
        <ele>974.9</ele>
        <time>2021-08-05T12:20:27Z</time>
      </trkpt>
      <trkpt lat="48.10987" lon="7.10301">
        <ele>975</ele>
        <time>2021-08-05T12:20:29Z</time>
      </trkpt>
      <trkpt lat="48.1098" lon="7.10301">
        <ele>975</ele>
        <time>2021-08-05T12:20:31Z</time>
      </trkpt>
      <trkpt lat="48.10973" lon="7.10301">
        <ele>975</ele>
        <time>2021-08-05T12:20:33Z</time>
      </trkpt>
      <trkpt lat="48.1097" lon="7.10302">
        <ele>975</ele>
        <time>2021-08-05T12:20:34Z</time>
      </trkpt>
      <trkpt lat="48.10967" lon="7.10302">
        <ele>975</ele>
        <time>2021-08-05T12:20:35Z</time>
      </trkpt>
      <trkpt lat="48.10964" lon="7.10303">
        <ele>975</ele>
        <time>2021-08-05T12:20:36Z</time>
      </trkpt>
      <trkpt lat="48.1096" lon="7.10304">
        <ele>975</ele>
        <time>2021-08-05T12:20:37Z</time>
      </trkpt>
      <trkpt lat="48.10956" lon="7.10304">
        <ele>975</ele>
        <time>2021-08-05T12:20:38Z</time>
      </trkpt>
      <trkpt lat="48.10953" lon="7.10304">
        <ele>975</ele>
        <time>2021-08-05T12:20:39Z</time>
      </trkpt>
      <trkpt lat="48.10945" lon="7.10307">
        <ele>975</ele>
        <time>2021-08-05T12:20:41Z</time>
      </trkpt>
      <trkpt lat="48.10937" lon="7.10308">
        <ele>974.9</ele>
        <time>2021-08-05T12:20:43Z</time>
      </trkpt>
      <trkpt lat="48.10933" lon="7.10311">
        <ele>974.9</ele>
        <time>2021-08-05T12:20:44Z</time>
      </trkpt>
      <trkpt lat="48.10929" lon="7.10313">
        <ele>974.9</ele>
        <time>2021-08-05T12:20:45Z</time>
      </trkpt>
      <trkpt lat="48.10921" lon="7.10313">
        <ele>974.9</ele>
        <time>2021-08-05T12:20:47Z</time>
      </trkpt>
      <trkpt lat="48.10914" lon="7.10313">
        <ele>974.9</ele>
        <time>2021-08-05T12:20:49Z</time>
      </trkpt>
      <trkpt lat="48.10909" lon="7.10316">
        <ele>974.9</ele>
        <time>2021-08-05T12:20:50Z</time>
      </trkpt>
      <trkpt lat="48.10904" lon="7.10318">
        <ele>974.9</ele>
        <time>2021-08-05T12:20:52Z</time>
      </trkpt>
      <trkpt lat="48.10901" lon="7.1032">
        <ele>974.9</ele>
        <time>2021-08-05T12:20:53Z</time>
      </trkpt>
      <trkpt lat="48.10896" lon="7.10322">
        <ele>974.9</ele>
        <time>2021-08-05T12:20:55Z</time>
      </trkpt>
      <trkpt lat="48.10893" lon="7.10324">
        <ele>974.9</ele>
        <time>2021-08-05T12:20:57Z</time>
      </trkpt>
      <trkpt lat="48.10893" lon="7.10324">
        <ele>974.9</ele>
        <time>2021-08-05T12:20:58Z</time>
      </trkpt>
      <trkpt lat="48.10894" lon="7.10325">
        <ele>974.9</ele>
        <time>2021-08-05T12:20:59Z</time>
      </trkpt>
      <trkpt lat="48.10894" lon="7.10326">
        <ele>974.9</ele>
        <time>2021-08-05T12:21:00Z</time>
      </trkpt>
      <trkpt lat="48.10894" lon="7.10326">
        <ele>974.9</ele>
        <time>2021-08-05T12:21:01Z</time>
      </trkpt>
      <trkpt lat="48.10892" lon="7.10327">
        <ele>974.9</ele>
        <time>2021-08-05T12:21:03Z</time>
      </trkpt>
      <trkpt lat="48.1089" lon="7.10324">
        <ele>974.9</ele>
        <time>2021-08-05T12:21:05Z</time>
      </trkpt>
      <trkpt lat="48.10888" lon="7.10321">
        <ele>974.8</ele>
        <time>2021-08-05T12:21:07Z</time>
      </trkpt>
      <trkpt lat="48.10881" lon="7.1032">
        <ele>974.8</ele>
        <time>2021-08-05T12:21:11Z</time>
      </trkpt>
      <trkpt lat="48.10877" lon="7.1032">
        <ele>974.8</ele>
        <time>2021-08-05T12:21:13Z</time>
      </trkpt>
      <trkpt lat="48.10874" lon="7.10319">
        <ele>974.9</ele>
        <time>2021-08-05T12:21:15Z</time>
      </trkpt>
      <trkpt lat="48.10874" lon="7.10319">
        <ele>974.9</ele>
        <time>2021-08-05T12:21:16Z</time>
      </trkpt>
      <trkpt lat="48.10868" lon="7.10318">
        <ele>974.9</ele>
        <time>2021-08-05T12:21:18Z</time>
      </trkpt>
      <trkpt lat="48.10865" lon="7.10317">
        <ele>975</ele>
        <time>2021-08-05T12:21:19Z</time>
      </trkpt>
      <trkpt lat="48.10862" lon="7.10315">
        <ele>975</ele>
        <time>2021-08-05T12:21:20Z</time>
      </trkpt>
      <trkpt lat="48.10859" lon="7.10315">
        <ele>975.1</ele>
        <time>2021-08-05T12:21:21Z</time>
      </trkpt>
      <trkpt lat="48.10854" lon="7.10313">
        <ele>975.2</ele>
        <time>2021-08-05T12:21:23Z</time>
      </trkpt>
      <trkpt lat="48.10852" lon="7.10312">
        <ele>975.3</ele>
        <time>2021-08-05T12:21:24Z</time>
      </trkpt>
      <trkpt lat="48.10847" lon="7.10312">
        <ele>975.4</ele>
        <time>2021-08-05T12:21:26Z</time>
      </trkpt>
      <trkpt lat="48.10846" lon="7.10312">
        <ele>975.4</ele>
        <time>2021-08-05T12:21:27Z</time>
      </trkpt>
      <trkpt lat="48.10846" lon="7.10312">
        <ele>975.4</ele>
        <time>2021-08-05T12:21:28Z</time>
      </trkpt>
      <trkpt lat="48.10843" lon="7.10311">
        <ele>975.5</ele>
        <time>2021-08-05T12:21:30Z</time>
      </trkpt>
      <trkpt lat="48.1084" lon="7.10311">
        <ele>975.6</ele>
        <time>2021-08-05T12:21:31Z</time>
      </trkpt>
      <trkpt lat="48.10836" lon="7.1031">
        <ele>975.7</ele>
        <time>2021-08-05T12:21:33Z</time>
      </trkpt>
      <trkpt lat="48.10832" lon="7.1031">
        <ele>975.8</ele>
        <time>2021-08-05T12:21:34Z</time>
      </trkpt>
      <trkpt lat="48.10828" lon="7.10311">
        <ele>975.9</ele>
        <time>2021-08-05T12:21:36Z</time>
      </trkpt>
      <trkpt lat="48.10825" lon="7.10311">
        <ele>976</ele>
        <time>2021-08-05T12:21:37Z</time>
      </trkpt>
      <trkpt lat="48.10822" lon="7.10312">
        <ele>976.1</ele>
        <time>2021-08-05T12:21:38Z</time>
      </trkpt>
      <trkpt lat="48.10817" lon="7.10312">
        <ele>976.2</ele>
        <time>2021-08-05T12:21:40Z</time>
      </trkpt>
      <trkpt lat="48.10814" lon="7.10314">
        <ele>976.3</ele>
        <time>2021-08-05T12:21:41Z</time>
      </trkpt>
      <trkpt lat="48.10812" lon="7.10315">
        <ele>976.3</ele>
        <time>2021-08-05T12:21:42Z</time>
      </trkpt>
      <trkpt lat="48.1081" lon="7.10314">
        <ele>976.4</ele>
        <time>2021-08-05T12:21:43Z</time>
      </trkpt>
      <trkpt lat="48.10804" lon="7.10313">
        <ele>976.5</ele>
        <time>2021-08-05T12:21:45Z</time>
      </trkpt>
      <trkpt lat="48.10796" lon="7.10314">
        <ele>976.7</ele>
        <time>2021-08-05T12:21:47Z</time>
      </trkpt>
      <trkpt lat="48.1079" lon="7.10315">
        <ele>976.9</ele>
        <time>2021-08-05T12:21:49Z</time>
      </trkpt>
      <trkpt lat="48.10786" lon="7.10315">
        <ele>977</ele>
        <time>2021-08-05T12:21:50Z</time>
      </trkpt>
      <trkpt lat="48.1078" lon="7.10313">
        <ele>977.1</ele>
        <time>2021-08-05T12:21:52Z</time>
      </trkpt>
      <trkpt lat="48.10776" lon="7.1031">
        <ele>977.2</ele>
        <time>2021-08-05T12:21:54Z</time>
      </trkpt>
      <trkpt lat="48.10772" lon="7.10306">
        <ele>977.3</ele>
        <time>2021-08-05T12:21:56Z</time>
      </trkpt>
      <trkpt lat="48.10771" lon="7.10305">
        <ele>977.4</ele>
        <time>2021-08-05T12:21:57Z</time>
      </trkpt>
      <trkpt lat="48.10767" lon="7.10303">
        <ele>977.4</ele>
        <time>2021-08-05T12:21:59Z</time>
      </trkpt>
      <trkpt lat="48.10764" lon="7.10304">
        <ele>977.5</ele>
        <time>2021-08-05T12:22:00Z</time>
      </trkpt>
      <trkpt lat="48.10763" lon="7.10304">
        <ele>977.5</ele>
        <time>2021-08-05T12:22:01Z</time>
      </trkpt>
      <trkpt lat="48.10758" lon="7.10306">
        <ele>977.6</ele>
        <time>2021-08-05T12:22:03Z</time>
      </trkpt>
      <trkpt lat="48.10755" lon="7.10307">
        <ele>977.6</ele>
        <time>2021-08-05T12:22:04Z</time>
      </trkpt>
      <trkpt lat="48.10754" lon="7.10308">
        <ele>977.6</ele>
        <time>2021-08-05T12:22:05Z</time>
      </trkpt>
      <trkpt lat="48.10752" lon="7.10308">
        <ele>977.6</ele>
        <time>2021-08-05T12:22:06Z</time>
      </trkpt>
      <trkpt lat="48.10749" lon="7.1031">
        <ele>977.6</ele>
        <time>2021-08-05T12:22:08Z</time>
      </trkpt>
      <trkpt lat="48.10747" lon="7.1031">
        <ele>977.7</ele>
        <time>2021-08-05T12:22:09Z</time>
      </trkpt>
      <trkpt lat="48.10745" lon="7.1031">
        <ele>977.7</ele>
        <time>2021-08-05T12:22:10Z</time>
      </trkpt>
      <trkpt lat="48.10743" lon="7.10309">
        <ele>977.7</ele>
        <time>2021-08-05T12:22:11Z</time>
      </trkpt>
      <trkpt lat="48.10738" lon="7.10309">
        <ele>977.7</ele>
        <time>2021-08-05T12:22:13Z</time>
      </trkpt>
      <trkpt lat="48.10733" lon="7.1031">
        <ele>977.7</ele>
        <time>2021-08-05T12:22:15Z</time>
      </trkpt>
      <trkpt lat="48.10728" lon="7.10311">
        <ele>977.8</ele>
        <time>2021-08-05T12:22:17Z</time>
      </trkpt>
      <trkpt lat="48.10724" lon="7.10314">
        <ele>977.8</ele>
        <time>2021-08-05T12:22:19Z</time>
      </trkpt>
      <trkpt lat="48.10721" lon="7.10315">
        <ele>977.8</ele>
        <time>2021-08-05T12:22:20Z</time>
      </trkpt>
      <trkpt lat="48.10719" lon="7.10316">
        <ele>977.8</ele>
        <time>2021-08-05T12:22:21Z</time>
      </trkpt>
      <trkpt lat="48.10715" lon="7.1032">
        <ele>977.9</ele>
        <time>2021-08-05T12:22:23Z</time>
      </trkpt>
      <trkpt lat="48.10714" lon="7.10321">
        <ele>977.9</ele>
        <time>2021-08-05T12:22:24Z</time>
      </trkpt>
      <trkpt lat="48.10711" lon="7.10323">
        <ele>978</ele>
        <time>2021-08-05T12:22:26Z</time>
      </trkpt>
      <trkpt lat="48.10708" lon="7.10322">
        <ele>978</ele>
        <time>2021-08-05T12:22:27Z</time>
      </trkpt>
      <trkpt lat="48.10703" lon="7.10321">
        <ele>978.1</ele>
        <time>2021-08-05T12:22:29Z</time>
      </trkpt>
      <trkpt lat="48.107" lon="7.1032">
        <ele>978.1</ele>
        <time>2021-08-05T12:22:31Z</time>
      </trkpt>
      <trkpt lat="48.107" lon="7.10321">
        <ele>978.1</ele>
        <time>2021-08-05T12:22:32Z</time>
      </trkpt>
      <trkpt lat="48.10696" lon="7.10323">
        <ele>978.2</ele>
        <time>2021-08-05T12:22:34Z</time>
      </trkpt>
      <trkpt lat="48.10692" lon="7.10323">
        <ele>978.3</ele>
        <time>2021-08-05T12:22:36Z</time>
      </trkpt>
      <trkpt lat="48.1069" lon="7.10324">
        <ele>978.3</ele>
        <time>2021-08-05T12:22:37Z</time>
      </trkpt>
      <trkpt lat="48.10688" lon="7.10324">
        <ele>978.3</ele>
        <time>2021-08-05T12:22:38Z</time>
      </trkpt>
      <trkpt lat="48.10687" lon="7.10325">
        <ele>978.3</ele>
        <time>2021-08-05T12:22:39Z</time>
      </trkpt>
      <trkpt lat="48.10685" lon="7.10326">
        <ele>978.4</ele>
        <time>2021-08-05T12:22:40Z</time>
      </trkpt>
      <trkpt lat="48.10681" lon="7.10328">
        <ele>978.4</ele>
        <time>2021-08-05T12:22:42Z</time>
      </trkpt>
      <trkpt lat="48.10678" lon="7.10329">
        <ele>978.5</ele>
        <time>2021-08-05T12:22:43Z</time>
      </trkpt>
      <trkpt lat="48.10677" lon="7.10329">
        <ele>978.5</ele>
        <time>2021-08-05T12:22:44Z</time>
      </trkpt>
      <trkpt lat="48.10674" lon="7.10326">
        <ele>978.5</ele>
        <time>2021-08-05T12:22:46Z</time>
      </trkpt>
      <trkpt lat="48.10669" lon="7.10325">
        <ele>978.6</ele>
        <time>2021-08-05T12:22:48Z</time>
      </trkpt>
      <trkpt lat="48.10664" lon="7.10326">
        <ele>978.6</ele>
        <time>2021-08-05T12:22:50Z</time>
      </trkpt>
      <trkpt lat="48.10662" lon="7.10326">
        <ele>978.7</ele>
        <time>2021-08-05T12:22:51Z</time>
      </trkpt>
      <trkpt lat="48.10657" lon="7.10326">
        <ele>978.7</ele>
        <time>2021-08-05T12:22:53Z</time>
      </trkpt>
      <trkpt lat="48.10653" lon="7.10325">
        <ele>978.8</ele>
        <time>2021-08-05T12:22:54Z</time>
      </trkpt>
      <trkpt lat="48.10652" lon="7.10325">
        <ele>978.8</ele>
        <time>2021-08-05T12:22:55Z</time>
      </trkpt>
      <trkpt lat="48.1065" lon="7.10325">
        <ele>978.8</ele>
        <time>2021-08-05T12:22:56Z</time>
      </trkpt>
      <trkpt lat="48.10646" lon="7.10325">
        <ele>978.9</ele>
        <time>2021-08-05T12:22:58Z</time>
      </trkpt>
      <trkpt lat="48.10644" lon="7.10325">
        <ele>978.9</ele>
        <time>2021-08-05T12:22:59Z</time>
      </trkpt>
      <trkpt lat="48.10641" lon="7.10322">
        <ele>979</ele>
        <time>2021-08-05T12:23:01Z</time>
      </trkpt>
      <trkpt lat="48.10638" lon="7.10316">
        <ele>979.1</ele>
        <time>2021-08-05T12:23:03Z</time>
      </trkpt>
      <trkpt lat="48.10638" lon="7.1031">
        <ele>979.2</ele>
        <time>2021-08-05T12:23:05Z</time>
      </trkpt>
      <trkpt lat="48.10635" lon="7.1031">
        <ele>979.2</ele>
        <time>2021-08-05T12:23:07Z</time>
      </trkpt>
      <trkpt lat="48.10634" lon="7.1031">
        <ele>979.2</ele>
        <time>2021-08-05T12:23:08Z</time>
      </trkpt>
      <trkpt lat="48.10636" lon="7.10306">
        <ele>979.3</ele>
        <time>2021-08-05T12:23:09Z</time>
      </trkpt>
      <trkpt lat="48.10639" lon="7.10303">
        <ele>979.4</ele>
        <time>2021-08-05T12:23:10Z</time>
      </trkpt>
      <trkpt lat="48.10641" lon="7.103">
        <ele>979.4</ele>
        <time>2021-08-05T12:23:11Z</time>
      </trkpt>
      <trkpt lat="48.10643" lon="7.10298">
        <ele>979.5</ele>
        <time>2021-08-05T12:23:13Z</time>
      </trkpt>
      <trkpt lat="48.10645" lon="7.10295">
        <ele>979.5</ele>
        <time>2021-08-05T12:23:14Z</time>
      </trkpt>
      <trkpt lat="48.10648" lon="7.10292">
        <ele>979.5</ele>
        <time>2021-08-05T12:23:16Z</time>
      </trkpt>
      <trkpt lat="48.1065" lon="7.10289">
        <ele>979.5</ele>
        <time>2021-08-05T12:23:17Z</time>
      </trkpt>
      <trkpt lat="48.10652" lon="7.10286">
        <ele>979.6</ele>
        <time>2021-08-05T12:23:19Z</time>
      </trkpt>
      <trkpt lat="48.10655" lon="7.10283">
        <ele>979.6</ele>
        <time>2021-08-05T12:23:21Z</time>
      </trkpt>
      <trkpt lat="48.10657" lon="7.1028">
        <ele>979.6</ele>
        <time>2021-08-05T12:24:58Z</time>
      </trkpt>
      <trkpt lat="48.10659" lon="7.10277">
        <ele>979.6</ele>
        <time>2021-08-05T12:24:59Z</time>
      </trkpt>
      <trkpt lat="48.10661" lon="7.10275">
        <ele>979.5</ele>
        <time>2021-08-05T12:25:00Z</time>
      </trkpt>
      <trkpt lat="48.10663" lon="7.10272">
        <ele>979.5</ele>
        <time>2021-08-05T12:25:02Z</time>
      </trkpt>
      <trkpt lat="48.10664" lon="7.10267">
        <ele>979.5</ele>
        <time>2021-08-05T12:25:04Z</time>
      </trkpt>
      <trkpt lat="48.10662" lon="7.10266">
        <ele>979.5</ele>
        <time>2021-08-05T12:25:05Z</time>
      </trkpt>
      <trkpt lat="48.1066" lon="7.10265">
        <ele>979.5</ele>
        <time>2021-08-05T12:25:06Z</time>
      </trkpt>
      <trkpt lat="48.10656" lon="7.10263">
        <ele>979.4</ele>
        <time>2021-08-05T12:25:08Z</time>
      </trkpt>
      <trkpt lat="48.1065" lon="7.1026">
        <ele>979.3</ele>
        <time>2021-08-05T12:25:09Z</time>
      </trkpt>
      <trkpt lat="48.10582" lon="7.10309">
        <ele>977.4</ele>
        <time>2021-08-05T12:25:35Z</time>
      </trkpt>
      <trkpt lat="48.10577" lon="7.10306">
        <ele>977.3</ele>
        <time>2021-08-05T12:25:36Z</time>
      </trkpt>
      <trkpt lat="48.10569" lon="7.10302">
        <ele>977.1</ele>
        <time>2021-08-05T12:25:38Z</time>
      </trkpt>
      <trkpt lat="48.10565" lon="7.10301">
        <ele>977</ele>
        <time>2021-08-05T12:25:39Z</time>
      </trkpt>
      <trkpt lat="48.10563" lon="7.10301">
        <ele>976.9</ele>
        <time>2021-08-05T12:25:40Z</time>
      </trkpt>
      <trkpt lat="48.10557" lon="7.10302">
        <ele>976.8</ele>
        <time>2021-08-05T12:25:42Z</time>
      </trkpt>
      <trkpt lat="48.10555" lon="7.10306">
        <ele>976.7</ele>
        <time>2021-08-05T12:25:43Z</time>
      </trkpt>
      <trkpt lat="48.10551" lon="7.10322">
        <ele>976.3</ele>
        <time>2021-08-05T12:25:45Z</time>
      </trkpt>
      <trkpt lat="48.10549" lon="7.1033">
        <ele>976.1</ele>
        <time>2021-08-05T12:25:46Z</time>
      </trkpt>
      <trkpt lat="48.10548" lon="7.10335">
        <ele>975.9</ele>
        <time>2021-08-05T12:25:47Z</time>
      </trkpt>
      <trkpt lat="48.10547" lon="7.10341">
        <ele>975.8</ele>
        <time>2021-08-05T12:25:48Z</time>
      </trkpt>
      <trkpt lat="48.10493" lon="7.10396">
        <ele>973.7</ele>
        <time>2021-08-05T12:25:59Z</time>
      </trkpt>
      <trkpt lat="48.10487" lon="7.104">
        <ele>973.5</ele>
        <time>2021-08-05T12:26:00Z</time>
      </trkpt>
      <trkpt lat="48.1048" lon="7.10404">
        <ele>973.1</ele>
        <time>2021-08-05T12:26:01Z</time>
      </trkpt>
      <trkpt lat="48.1047" lon="7.1041">
        <ele>972.6</ele>
        <time>2021-08-05T12:26:03Z</time>
      </trkpt>
      <trkpt lat="48.10463" lon="7.10412">
        <ele>972.3</ele>
        <time>2021-08-05T12:26:05Z</time>
      </trkpt>
      <trkpt lat="48.10455" lon="7.10418">
        <ele>971.9</ele>
        <time>2021-08-05T12:26:06Z</time>
      </trkpt>
      <trkpt lat="48.1045" lon="7.10422">
        <ele>971.7</ele>
        <time>2021-08-05T12:26:07Z</time>
      </trkpt>
      <trkpt lat="48.10441" lon="7.10427">
        <ele>971.3</ele>
        <time>2021-08-05T12:26:09Z</time>
      </trkpt>
      <trkpt lat="48.10433" lon="7.10432">
        <ele>970.9</ele>
        <time>2021-08-05T12:26:11Z</time>
      </trkpt>
      <trkpt lat="48.1043" lon="7.10434">
        <ele>970.8</ele>
        <time>2021-08-05T12:26:12Z</time>
      </trkpt>
      <trkpt lat="48.10427" lon="7.10435">
        <ele>970.6</ele>
        <time>2021-08-05T12:26:13Z</time>
      </trkpt>
      <trkpt lat="48.10426" lon="7.10433">
        <ele>970.6</ele>
        <time>2021-08-05T12:26:15Z</time>
      </trkpt>
      <trkpt lat="48.10424" lon="7.10433">
        <ele>970.5</ele>
        <time>2021-08-05T12:26:16Z</time>
      </trkpt>
      <trkpt lat="48.10421" lon="7.10435">
        <ele>970.3</ele>
        <time>2021-08-05T12:26:18Z</time>
      </trkpt>
      <trkpt lat="48.1042" lon="7.10436">
        <ele>970.3</ele>
        <time>2021-08-05T12:26:19Z</time>
      </trkpt>
      <trkpt lat="48.10417" lon="7.10438">
        <ele>970.1</ele>
        <time>2021-08-05T12:26:21Z</time>
      </trkpt>
      <trkpt lat="48.10413" lon="7.10438">
        <ele>970</ele>
        <time>2021-08-05T12:26:22Z</time>
      </trkpt>
      <trkpt lat="48.1041" lon="7.10439">
        <ele>969.8</ele>
        <time>2021-08-05T12:26:24Z</time>
      </trkpt>
      <trkpt lat="48.10406" lon="7.10439">
        <ele>969.6</ele>
        <time>2021-08-05T12:26:25Z</time>
      </trkpt>
      <trkpt lat="48.10403" lon="7.1044">
        <ele>969.5</ele>
        <time>2021-08-05T12:26:27Z</time>
      </trkpt>
      <trkpt lat="48.10399" lon="7.1044">
        <ele>969.3</ele>
        <time>2021-08-05T12:26:28Z</time>
      </trkpt>
      <trkpt lat="48.10396" lon="7.10441">
        <ele>969.2</ele>
        <time>2021-08-05T12:26:30Z</time>
      </trkpt>
      <trkpt lat="48.10393" lon="7.10442">
        <ele>969</ele>
        <time>2021-08-05T12:27:09Z</time>
      </trkpt>
      <trkpt lat="48.10389" lon="7.10442">
        <ele>968.8</ele>
        <time>2021-08-05T12:27:10Z</time>
      </trkpt>
      <trkpt lat="48.10383" lon="7.10451">
        <ele>968.4</ele>
        <time>2021-08-05T12:27:11Z</time>
      </trkpt>
      <trkpt lat="48.1037" lon="7.10467">
        <ele>967.6</ele>
        <time>2021-08-05T12:27:13Z</time>
      </trkpt>
      <trkpt lat="48.10363" lon="7.10475">
        <ele>967.2</ele>
        <time>2021-08-05T12:27:14Z</time>
      </trkpt>
      <trkpt lat="48.10357" lon="7.10483">
        <ele>966.8</ele>
        <time>2021-08-05T12:27:15Z</time>
      </trkpt>
      <trkpt lat="48.10347" lon="7.10501">
        <ele>966.1</ele>
        <time>2021-08-05T12:27:17Z</time>
      </trkpt>
      <trkpt lat="48.10336" lon="7.10516">
        <ele>965.5</ele>
        <time>2021-08-05T12:27:19Z</time>
      </trkpt>
      <trkpt lat="48.10325" lon="7.10529">
        <ele>964.9</ele>
        <time>2021-08-05T12:27:21Z</time>
      </trkpt>
      <trkpt lat="48.10314" lon="7.10542">
        <ele>964.3</ele>
        <time>2021-08-05T12:27:23Z</time>
      </trkpt>
      <trkpt lat="48.10308" lon="7.1055">
        <ele>964</ele>
        <time>2021-08-05T12:27:24Z</time>
      </trkpt>
      <trkpt lat="48.10302" lon="7.10557">
        <ele>963.7</ele>
        <time>2021-08-05T12:27:25Z</time>
      </trkpt>
      <trkpt lat="48.10291" lon="7.10569">
        <ele>963.4</ele>
        <time>2021-08-05T12:27:27Z</time>
      </trkpt>
      <trkpt lat="48.10286" lon="7.10573">
        <ele>963.3</ele>
        <time>2021-08-05T12:27:28Z</time>
      </trkpt>
      <trkpt lat="48.10275" lon="7.1058">
        <ele>963.3</ele>
        <time>2021-08-05T12:27:30Z</time>
      </trkpt>
      <trkpt lat="48.10264" lon="7.10585">
        <ele>964</ele>
        <time>2021-08-05T12:27:32Z</time>
      </trkpt>
      <trkpt lat="48.10255" lon="7.10589">
        <ele>964.7</ele>
        <time>2021-08-05T12:27:34Z</time>
      </trkpt>
      <trkpt lat="48.10251" lon="7.10592">
        <ele>965.1</ele>
        <time>2021-08-05T12:27:35Z</time>
      </trkpt>
      <trkpt lat="48.10243" lon="7.10595">
        <ele>965.9</ele>
        <time>2021-08-05T12:27:37Z</time>
      </trkpt>
      <trkpt lat="48.1024" lon="7.10596">
        <ele>966.1</ele>
        <time>2021-08-05T12:27:38Z</time>
      </trkpt>
      <trkpt lat="48.10234" lon="7.10599">
        <ele>966.8</ele>
        <time>2021-08-05T12:27:40Z</time>
      </trkpt>
      <trkpt lat="48.10231" lon="7.10601">
        <ele>967.1</ele>
        <time>2021-08-05T12:27:41Z</time>
      </trkpt>
      <trkpt lat="48.10225" lon="7.10602">
        <ele>967.7</ele>
        <time>2021-08-05T12:27:43Z</time>
      </trkpt>
      <trkpt lat="48.10222" lon="7.10606">
        <ele>968</ele>
        <time>2021-08-05T12:27:45Z</time>
      </trkpt>
      <trkpt lat="48.1022" lon="7.10606">
        <ele>968.2</ele>
        <time>2021-08-05T12:27:46Z</time>
      </trkpt>
      <trkpt lat="48.10217" lon="7.10608">
        <ele>968.5</ele>
        <time>2021-08-05T12:27:47Z</time>
      </trkpt>
      <trkpt lat="48.10212" lon="7.1061">
        <ele>968.9</ele>
        <time>2021-08-05T12:27:49Z</time>
      </trkpt>
      <trkpt lat="48.10208" lon="7.10611">
        <ele>969.2</ele>
        <time>2021-08-05T12:27:51Z</time>
      </trkpt>
      <trkpt lat="48.10205" lon="7.10612">
        <ele>969.3</ele>
        <time>2021-08-05T12:27:52Z</time>
      </trkpt>
      <trkpt lat="48.10199" lon="7.10612">
        <ele>969.7</ele>
        <time>2021-08-05T12:27:54Z</time>
      </trkpt>
      <trkpt lat="48.10194" lon="7.10613">
        <ele>969.9</ele>
        <time>2021-08-05T12:27:55Z</time>
      </trkpt>
      <trkpt lat="48.10189" lon="7.10616">
        <ele>970.2</ele>
        <time>2021-08-05T12:27:57Z</time>
      </trkpt>
      <trkpt lat="48.10186" lon="7.10618">
        <ele>970.4</ele>
        <time>2021-08-05T12:27:58Z</time>
      </trkpt>
      <trkpt lat="48.10186" lon="7.10619">
        <ele>970.4</ele>
        <time>2021-08-05T12:27:59Z</time>
      </trkpt>
      <trkpt lat="48.10183" lon="7.10621">
        <ele>970.6</ele>
        <time>2021-08-05T12:28:01Z</time>
      </trkpt>
      <trkpt lat="48.10182" lon="7.10621">
        <ele>970.6</ele>
        <time>2021-08-05T12:28:02Z</time>
      </trkpt>
      <trkpt lat="48.1018" lon="7.10625">
        <ele>970.8</ele>
        <time>2021-08-05T12:28:04Z</time>
      </trkpt>
      <trkpt lat="48.1018" lon="7.10626">
        <ele>970.9</ele>
        <time>2021-08-05T12:28:05Z</time>
      </trkpt>
      <trkpt lat="48.10178" lon="7.1063">
        <ele>971.1</ele>
        <time>2021-08-05T12:28:07Z</time>
      </trkpt>
      <trkpt lat="48.10177" lon="7.10632">
        <ele>971.2</ele>
        <time>2021-08-05T12:28:08Z</time>
      </trkpt>
      <trkpt lat="48.10175" lon="7.10634">
        <ele>971.4</ele>
        <time>2021-08-05T12:28:09Z</time>
      </trkpt>
      <trkpt lat="48.10174" lon="7.10635">
        <ele>971.5</ele>
        <time>2021-08-05T12:28:10Z</time>
      </trkpt>
      <trkpt lat="48.10173" lon="7.10635">
        <ele>971.6</ele>
        <time>2021-08-05T12:28:11Z</time>
      </trkpt>
      <trkpt lat="48.10172" lon="7.10634">
        <ele>971.7</ele>
        <time>2021-08-05T12:28:12Z</time>
      </trkpt>
      <trkpt lat="48.1017" lon="7.10635">
        <ele>971.8</ele>
        <time>2021-08-05T12:28:13Z</time>
      </trkpt>
      <trkpt lat="48.10168" lon="7.10638">
        <ele>972</ele>
        <time>2021-08-05T12:28:15Z</time>
      </trkpt>
      <trkpt lat="48.10167" lon="7.10639">
        <ele>972.1</ele>
        <time>2021-08-05T12:28:16Z</time>
      </trkpt>
      <trkpt lat="48.10165" lon="7.1064">
        <ele>972.3</ele>
        <time>2021-08-05T12:28:17Z</time>
      </trkpt>
      <trkpt lat="48.10164" lon="7.1064">
        <ele>972.4</ele>
        <time>2021-08-05T12:28:18Z</time>
      </trkpt>
      <trkpt lat="48.10162" lon="7.1064">
        <ele>972.6</ele>
        <time>2021-08-05T12:28:19Z</time>
      </trkpt>
      <trkpt lat="48.10159" lon="7.10642">
        <ele>972.8</ele>
        <time>2021-08-05T12:28:21Z</time>
      </trkpt>
      <trkpt lat="48.10157" lon="7.10641">
        <ele>973</ele>
        <time>2021-08-05T12:28:22Z</time>
      </trkpt>
      <trkpt lat="48.10154" lon="7.10641">
        <ele>973.3</ele>
        <time>2021-08-05T12:28:24Z</time>
      </trkpt>
      <trkpt lat="48.10153" lon="7.10641">
        <ele>973.3</ele>
        <time>2021-08-05T12:28:26Z</time>
      </trkpt>
      <trkpt lat="48.10152" lon="7.10641">
        <ele>973.4</ele>
        <time>2021-08-05T12:28:27Z</time>
      </trkpt>
      <trkpt lat="48.1015" lon="7.10642">
        <ele>973.5</ele>
        <time>2021-08-05T12:28:28Z</time>
      </trkpt>
      <trkpt lat="48.10148" lon="7.10644">
        <ele>973.7</ele>
        <time>2021-08-05T12:28:30Z</time>
      </trkpt>
      <trkpt lat="48.10145" lon="7.10644">
        <ele>974</ele>
        <time>2021-08-05T12:28:32Z</time>
      </trkpt>
      <trkpt lat="48.10143" lon="7.10645">
        <ele>974.1</ele>
        <time>2021-08-05T12:28:34Z</time>
      </trkpt>
      <trkpt lat="48.10142" lon="7.10645">
        <ele>974.2</ele>
        <time>2021-08-05T12:28:35Z</time>
      </trkpt>
      <trkpt lat="48.10139" lon="7.10647">
        <ele>974.4</ele>
        <time>2021-08-05T12:28:36Z</time>
      </trkpt>
      <trkpt lat="48.10138" lon="7.10649">
        <ele>974.5</ele>
        <time>2021-08-05T12:28:37Z</time>
      </trkpt>
      <trkpt lat="48.10136" lon="7.10651">
        <ele>974.7</ele>
        <time>2021-08-05T12:28:39Z</time>
      </trkpt>
      <trkpt lat="48.10135" lon="7.10651">
        <ele>974.8</ele>
        <time>2021-08-05T12:28:40Z</time>
      </trkpt>
      <trkpt lat="48.10133" lon="7.10652">
        <ele>974.9</ele>
        <time>2021-08-05T12:28:41Z</time>
      </trkpt>
      <trkpt lat="48.10131" lon="7.10653">
        <ele>975.1</ele>
        <time>2021-08-05T12:28:43Z</time>
      </trkpt>
      <trkpt lat="48.10129" lon="7.10653">
        <ele>975.2</ele>
        <time>2021-08-05T12:28:44Z</time>
      </trkpt>
      <trkpt lat="48.10128" lon="7.10653">
        <ele>975.3</ele>
        <time>2021-08-05T12:28:46Z</time>
      </trkpt>
      <trkpt lat="48.10125" lon="7.10653">
        <ele>975.5</ele>
        <time>2021-08-05T12:28:48Z</time>
      </trkpt>
      <trkpt lat="48.10122" lon="7.10654">
        <ele>975.7</ele>
        <time>2021-08-05T12:28:49Z</time>
      </trkpt>
      <trkpt lat="48.10119" lon="7.10653">
        <ele>975.9</ele>
        <time>2021-08-05T12:28:51Z</time>
      </trkpt>
      <trkpt lat="48.10115" lon="7.1065">
        <ele>976.2</ele>
        <time>2021-08-05T12:28:52Z</time>
      </trkpt>
      <trkpt lat="48.10112" lon="7.1065">
        <ele>976.4</ele>
        <time>2021-08-05T12:28:53Z</time>
      </trkpt>
      <trkpt lat="48.10109" lon="7.1065">
        <ele>976.6</ele>
        <time>2021-08-05T12:28:55Z</time>
      </trkpt>
      <trkpt lat="48.10107" lon="7.10652">
        <ele>976.8</ele>
        <time>2021-08-05T12:28:56Z</time>
      </trkpt>
      <trkpt lat="48.10106" lon="7.10655">
        <ele>977</ele>
        <time>2021-08-05T12:28:58Z</time>
      </trkpt>
      <trkpt lat="48.10104" lon="7.10659">
        <ele>977.2</ele>
        <time>2021-08-05T12:29:00Z</time>
      </trkpt>
      <trkpt lat="48.10101" lon="7.1066">
        <ele>977.3</ele>
        <time>2021-08-05T12:29:01Z</time>
      </trkpt>
      <trkpt lat="48.10101" lon="7.10662">
        <ele>977.4</ele>
        <time>2021-08-05T12:29:02Z</time>
      </trkpt>
      <trkpt lat="48.10101" lon="7.10663">
        <ele>977.4</ele>
        <time>2021-08-05T12:29:04Z</time>
      </trkpt>
      <trkpt lat="48.10097" lon="7.10663">
        <ele>977.6</ele>
        <time>2021-08-05T12:29:06Z</time>
      </trkpt>
      <trkpt lat="48.10092" lon="7.10667">
        <ele>977.9</ele>
        <time>2021-08-05T12:29:08Z</time>
      </trkpt>
      <trkpt lat="48.10089" lon="7.1067">
        <ele>978.1</ele>
        <time>2021-08-05T12:29:09Z</time>
      </trkpt>
      <trkpt lat="48.10086" lon="7.10672">
        <ele>978.2</ele>
        <time>2021-08-05T12:29:10Z</time>
      </trkpt>
      <trkpt lat="48.10083" lon="7.10673">
        <ele>978.4</ele>
        <time>2021-08-05T12:29:11Z</time>
      </trkpt>
      <trkpt lat="48.10082" lon="7.10673">
        <ele>978.5</ele>
        <time>2021-08-05T12:29:12Z</time>
      </trkpt>
      <trkpt lat="48.10079" lon="7.10674">
        <ele>978.6</ele>
        <time>2021-08-05T12:29:13Z</time>
      </trkpt>
      <trkpt lat="48.10078" lon="7.10674">
        <ele>978.7</ele>
        <time>2021-08-05T12:29:14Z</time>
      </trkpt>
      <trkpt lat="48.10076" lon="7.10675">
        <ele>978.7</ele>
        <time>2021-08-05T12:29:15Z</time>
      </trkpt>
      <trkpt lat="48.10074" lon="7.10675">
        <ele>978.8</ele>
        <time>2021-08-05T12:29:17Z</time>
      </trkpt>
      <trkpt lat="48.10071" lon="7.10676">
        <ele>978.9</ele>
        <time>2021-08-05T12:29:18Z</time>
      </trkpt>
      <trkpt lat="48.10066" lon="7.10676">
        <ele>979.1</ele>
        <time>2021-08-05T12:29:20Z</time>
      </trkpt>
      <trkpt lat="48.10062" lon="7.10677">
        <ele>979.2</ele>
        <time>2021-08-05T12:29:22Z</time>
      </trkpt>
      <trkpt lat="48.1006" lon="7.10678">
        <ele>979.3</ele>
        <time>2021-08-05T12:29:23Z</time>
      </trkpt>
      <trkpt lat="48.10059" lon="7.10679">
        <ele>979.3</ele>
        <time>2021-08-05T12:29:24Z</time>
      </trkpt>
      <trkpt lat="48.10058" lon="7.1068">
        <ele>979.3</ele>
        <time>2021-08-05T12:29:25Z</time>
      </trkpt>
      <trkpt lat="48.10053" lon="7.10682">
        <ele>979.3</ele>
        <time>2021-08-05T12:29:27Z</time>
      </trkpt>
      <trkpt lat="48.1005" lon="7.10683">
        <ele>979.3</ele>
        <time>2021-08-05T12:29:28Z</time>
      </trkpt>
      <trkpt lat="48.10046" lon="7.10683">
        <ele>979.3</ele>
        <time>2021-08-05T12:29:29Z</time>
      </trkpt>
      <trkpt lat="48.10041" lon="7.10684">
        <ele>979.2</ele>
        <time>2021-08-05T12:29:31Z</time>
      </trkpt>
      <trkpt lat="48.10036" lon="7.10683">
        <ele>979.1</ele>
        <time>2021-08-05T12:29:32Z</time>
      </trkpt>
      <trkpt lat="48.10033" lon="7.10682">
        <ele>979.1</ele>
        <time>2021-08-05T12:29:33Z</time>
      </trkpt>
      <trkpt lat="48.10029" lon="7.10681">
        <ele>979</ele>
        <time>2021-08-05T12:29:34Z</time>
      </trkpt>
      <trkpt lat="48.10026" lon="7.1068">
        <ele>978.9</ele>
        <time>2021-08-05T12:29:35Z</time>
      </trkpt>
      <trkpt lat="48.10019" lon="7.10676">
        <ele>978.7</ele>
        <time>2021-08-05T12:29:37Z</time>
      </trkpt>
      <trkpt lat="48.10015" lon="7.10672">
        <ele>978.6</ele>
        <time>2021-08-05T12:29:38Z</time>
      </trkpt>
      <trkpt lat="48.10008" lon="7.10668">
        <ele>978.3</ele>
        <time>2021-08-05T12:29:40Z</time>
      </trkpt>
      <trkpt lat="48.10003" lon="7.10666">
        <ele>978.1</ele>
        <time>2021-08-05T12:29:41Z</time>
      </trkpt>
      <trkpt lat="48.09994" lon="7.10663">
        <ele>977.8</ele>
        <time>2021-08-05T12:29:43Z</time>
      </trkpt>
      <trkpt lat="48.09988" lon="7.1066">
        <ele>977.5</ele>
        <time>2021-08-05T12:29:45Z</time>
      </trkpt>
      <trkpt lat="48.09982" lon="7.10657">
        <ele>977.3</ele>
        <time>2021-08-05T12:29:46Z</time>
      </trkpt>
      <trkpt lat="48.09979" lon="7.10655">
        <ele>977.1</ele>
        <time>2021-08-05T12:29:47Z</time>
      </trkpt>
      <trkpt lat="48.09972" lon="7.10651">
        <ele>976.8</ele>
        <time>2021-08-05T12:29:49Z</time>
      </trkpt>
      <trkpt lat="48.09967" lon="7.10647">
        <ele>976.6</ele>
        <time>2021-08-05T12:29:51Z</time>
      </trkpt>
      <trkpt lat="48.09964" lon="7.10645">
        <ele>976.5</ele>
        <time>2021-08-05T12:29:52Z</time>
      </trkpt>
      <trkpt lat="48.09959" lon="7.10643">
        <ele>976.4</ele>
        <time>2021-08-05T12:29:53Z</time>
      </trkpt>
      <trkpt lat="48.09954" lon="7.1064">
        <ele>976.2</ele>
        <time>2021-08-05T12:29:55Z</time>
      </trkpt>
      <trkpt lat="48.0995" lon="7.10636">
        <ele>976</ele>
        <time>2021-08-05T12:29:56Z</time>
      </trkpt>
      <trkpt lat="48.09945" lon="7.10634">
        <ele>975.9</ele>
        <time>2021-08-05T12:29:58Z</time>
      </trkpt>
      <trkpt lat="48.09941" lon="7.10631">
        <ele>975.7</ele>
        <time>2021-08-05T12:29:59Z</time>
      </trkpt>
      <trkpt lat="48.09935" lon="7.10629">
        <ele>975.5</ele>
        <time>2021-08-05T12:30:01Z</time>
      </trkpt>
      <trkpt lat="48.0993" lon="7.10627">
        <ele>975.4</ele>
        <time>2021-08-05T12:30:02Z</time>
      </trkpt>
      <trkpt lat="48.09925" lon="7.10625">
        <ele>975.2</ele>
        <time>2021-08-05T12:30:03Z</time>
      </trkpt>
      <trkpt lat="48.09917" lon="7.10623">
        <ele>974.9</ele>
        <time>2021-08-05T12:30:05Z</time>
      </trkpt>
      <trkpt lat="48.09911" lon="7.1062">
        <ele>974.7</ele>
        <time>2021-08-05T12:30:06Z</time>
      </trkpt>
      <trkpt lat="48.09906" lon="7.10618">
        <ele>974.5</ele>
        <time>2021-08-05T12:30:07Z</time>
      </trkpt>
      <trkpt lat="48.09901" lon="7.10617">
        <ele>974.3</ele>
        <time>2021-08-05T12:30:08Z</time>
      </trkpt>
      <trkpt lat="48.09892" lon="7.10613">
        <ele>974.3</ele>
        <time>2021-08-05T12:30:10Z</time>
      </trkpt>
      <trkpt lat="48.09889" lon="7.10612">
        <ele>974.3</ele>
        <time>2021-08-05T12:30:11Z</time>
      </trkpt>
      <trkpt lat="48.09879" lon="7.10608">
        <ele>973.9</ele>
        <time>2021-08-05T12:30:13Z</time>
      </trkpt>
      <trkpt lat="48.09874" lon="7.10606">
        <ele>973.7</ele>
        <time>2021-08-05T12:30:14Z</time>
      </trkpt>
      <trkpt lat="48.09869" lon="7.10604">
        <ele>973.6</ele>
        <time>2021-08-05T12:30:15Z</time>
      </trkpt>
      <trkpt lat="48.09863" lon="7.10601">
        <ele>973.3</ele>
        <time>2021-08-05T12:30:17Z</time>
      </trkpt>
      <trkpt lat="48.09857" lon="7.106">
        <ele>973.2</ele>
        <time>2021-08-05T12:30:18Z</time>
      </trkpt>
      <trkpt lat="48.09852" lon="7.10599">
        <ele>973</ele>
        <time>2021-08-05T12:30:20Z</time>
      </trkpt>
      <trkpt lat="48.09847" lon="7.10598">
        <ele>972.9</ele>
        <time>2021-08-05T12:30:21Z</time>
      </trkpt>
      <trkpt lat="48.09841" lon="7.10597">
        <ele>972.8</ele>
        <time>2021-08-05T12:30:23Z</time>
      </trkpt>
      <trkpt lat="48.09835" lon="7.10595">
        <ele>972.6</ele>
        <time>2021-08-05T12:30:25Z</time>
      </trkpt>
      <trkpt lat="48.09827" lon="7.10589">
        <ele>972.3</ele>
        <time>2021-08-05T12:30:26Z</time>
      </trkpt>
      <trkpt lat="48.09821" lon="7.10585">
        <ele>972.1</ele>
        <time>2021-08-05T12:30:27Z</time>
      </trkpt>
      <trkpt lat="48.0981" lon="7.10578">
        <ele>971.7</ele>
        <time>2021-08-05T12:30:29Z</time>
      </trkpt>
      <trkpt lat="48.09795" lon="7.10565">
        <ele>971.1</ele>
        <time>2021-08-05T12:30:31Z</time>
      </trkpt>
      <trkpt lat="48.09783" lon="7.10558">
        <ele>970.8</ele>
        <time>2021-08-05T12:30:33Z</time>
      </trkpt>
      <trkpt lat="48.09777" lon="7.10555">
        <ele>970.6</ele>
        <time>2021-08-05T12:30:34Z</time>
      </trkpt>
      <trkpt lat="48.09772" lon="7.10552">
        <ele>970.4</ele>
        <time>2021-08-05T12:30:35Z</time>
      </trkpt>
      <trkpt lat="48.09766" lon="7.1055">
        <ele>970.3</ele>
        <time>2021-08-05T12:30:36Z</time>
      </trkpt>
      <trkpt lat="48.09757" lon="7.10549">
        <ele>970</ele>
        <time>2021-08-05T12:30:38Z</time>
      </trkpt>
      <trkpt lat="48.09748" lon="7.10547">
        <ele>969.7</ele>
        <time>2021-08-05T12:30:40Z</time>
      </trkpt>
      <trkpt lat="48.09741" lon="7.10545">
        <ele>969.5</ele>
        <time>2021-08-05T12:30:42Z</time>
      </trkpt>
      <trkpt lat="48.09738" lon="7.10543">
        <ele>969.4</ele>
        <time>2021-08-05T12:30:43Z</time>
      </trkpt>
      <trkpt lat="48.09732" lon="7.10538">
        <ele>969.3</ele>
        <time>2021-08-05T12:30:45Z</time>
      </trkpt>
      <trkpt lat="48.0973" lon="7.10536">
        <ele>969.1</ele>
        <time>2021-08-05T12:30:47Z</time>
      </trkpt>
      <trkpt lat="48.09731" lon="7.10535">
        <ele>969.1</ele>
        <time>2021-08-05T12:30:48Z</time>
      </trkpt>
      <trkpt lat="48.09729" lon="7.1053">
        <ele>968.9</ele>
        <time>2021-08-05T12:30:50Z</time>
      </trkpt>
      <trkpt lat="48.09731" lon="7.10525">
        <ele>968.7</ele>
        <time>2021-08-05T12:30:52Z</time>
      </trkpt>
      <trkpt lat="48.09732" lon="7.10522">
        <ele>968.6</ele>
        <time>2021-08-05T12:30:53Z</time>
      </trkpt>
      <trkpt lat="48.09734" lon="7.10515">
        <ele>968.3</ele>
        <time>2021-08-05T12:30:55Z</time>
      </trkpt>
      <trkpt lat="48.09734" lon="7.10507">
        <ele>968.1</ele>
        <time>2021-08-05T12:30:56Z</time>
      </trkpt>
      <trkpt lat="48.09734" lon="7.10501">
        <ele>967.9</ele>
        <time>2021-08-05T12:30:57Z</time>
      </trkpt>
      <trkpt lat="48.09735" lon="7.10494">
        <ele>967.6</ele>
        <time>2021-08-05T12:30:58Z</time>
      </trkpt>
      <trkpt lat="48.09735" lon="7.10487">
        <ele>967.4</ele>
        <time>2021-08-05T12:30:59Z</time>
      </trkpt>
      <trkpt lat="48.09735" lon="7.10473">
        <ele>966.9</ele>
        <time>2021-08-05T12:31:01Z</time>
      </trkpt>
      <trkpt lat="48.09735" lon="7.10464">
        <ele>966.7</ele>
        <time>2021-08-05T12:31:02Z</time>
      </trkpt>
      <trkpt lat="48.09737" lon="7.10449">
        <ele>966.4</ele>
        <time>2021-08-05T12:31:04Z</time>
      </trkpt>
      <trkpt lat="48.09742" lon="7.10435">
        <ele>966.1</ele>
        <time>2021-08-05T12:31:06Z</time>
      </trkpt>
      <trkpt lat="48.09745" lon="7.10428">
        <ele>966.1</ele>
        <time>2021-08-05T12:31:07Z</time>
      </trkpt>
      <trkpt lat="48.09749" lon="7.10421">
        <ele>966</ele>
        <time>2021-08-05T12:31:08Z</time>
      </trkpt>
      <trkpt lat="48.09753" lon="7.10413">
        <ele>965.9</ele>
        <time>2021-08-05T12:31:09Z</time>
      </trkpt>
      <trkpt lat="48.09756" lon="7.10405">
        <ele>965.9</ele>
        <time>2021-08-05T12:31:10Z</time>
      </trkpt>
      <trkpt lat="48.0976" lon="7.10388">
        <ele>965.8</ele>
        <time>2021-08-05T12:31:12Z</time>
      </trkpt>
      <trkpt lat="48.09761" lon="7.1038">
        <ele>965.7</ele>
        <time>2021-08-05T12:31:13Z</time>
      </trkpt>
      <trkpt lat="48.09758" lon="7.10367">
        <ele>965.4</ele>
        <time>2021-08-05T12:31:15Z</time>
      </trkpt>
      <trkpt lat="48.09757" lon="7.10361">
        <ele>965.3</ele>
        <time>2021-08-05T12:31:16Z</time>
      </trkpt>
      <trkpt lat="48.09756" lon="7.10358">
        <ele>965.2</ele>
        <time>2021-08-05T12:31:17Z</time>
      </trkpt>
      <trkpt lat="48.09756" lon="7.10356">
        <ele>965.1</ele>
        <time>2021-08-05T12:31:18Z</time>
      </trkpt>
      <trkpt lat="48.09756" lon="7.10353">
        <ele>965</ele>
        <time>2021-08-05T12:31:20Z</time>
      </trkpt>
      <trkpt lat="48.09756" lon="7.10351">
        <ele>965</ele>
        <time>2021-08-05T12:31:21Z</time>
      </trkpt>
      <trkpt lat="48.09756" lon="7.10349">
        <ele>964.9</ele>
        <time>2021-08-05T12:31:22Z</time>
      </trkpt>
      <trkpt lat="48.09756" lon="7.10347">
        <ele>964.8</ele>
        <time>2021-08-05T12:31:24Z</time>
      </trkpt>
      <trkpt lat="48.09755" lon="7.10345">
        <ele>964.8</ele>
        <time>2021-08-05T12:31:25Z</time>
      </trkpt>
      <trkpt lat="48.09755" lon="7.10343">
        <ele>964.7</ele>
        <time>2021-08-05T12:31:27Z</time>
      </trkpt>
      <trkpt lat="48.09755" lon="7.10341">
        <ele>964.6</ele>
        <time>2021-08-05T12:31:28Z</time>
      </trkpt>
      <trkpt lat="48.09755" lon="7.10339">
        <ele>964.5</ele>
        <time>2021-08-05T12:31:29Z</time>
      </trkpt>
      <trkpt lat="48.09754" lon="7.10337">
        <ele>964.5</ele>
        <time>2021-08-05T12:31:30Z</time>
      </trkpt>
      <trkpt lat="48.09754" lon="7.10335">
        <ele>964.4</ele>
        <time>2021-08-05T12:31:32Z</time>
      </trkpt>
      <trkpt lat="48.09754" lon="7.10333">
        <ele>964.3</ele>
        <time>2021-08-05T12:32:09Z</time>
      </trkpt>
      <trkpt lat="48.09754" lon="7.10331">
        <ele>964.2</ele>
        <time>2021-08-05T12:32:10Z</time>
      </trkpt>
      <trkpt lat="48.09753" lon="7.10309">
        <ele>963.6</ele>
        <time>2021-08-05T12:32:12Z</time>
      </trkpt>
      <trkpt lat="48.09755" lon="7.1029">
        <ele>963.3</ele>
        <time>2021-08-05T12:32:14Z</time>
      </trkpt>
      <trkpt lat="48.09754" lon="7.10271">
        <ele>963.2</ele>
        <time>2021-08-05T12:32:16Z</time>
      </trkpt>
      <trkpt lat="48.09752" lon="7.10263">
        <ele>963.2</ele>
        <time>2021-08-05T12:32:17Z</time>
      </trkpt>
      <trkpt lat="48.09751" lon="7.10256">
        <ele>963.3</ele>
        <time>2021-08-05T12:32:18Z</time>
      </trkpt>
      <trkpt lat="48.09749" lon="7.10252">
        <ele>963.4</ele>
        <time>2021-08-05T12:32:19Z</time>
      </trkpt>
      <trkpt lat="48.09746" lon="7.10243">
        <ele>963.7</ele>
        <time>2021-08-05T12:32:21Z</time>
      </trkpt>
      <trkpt lat="48.09744" lon="7.10236">
        <ele>963.9</ele>
        <time>2021-08-05T12:32:22Z</time>
      </trkpt>
      <trkpt lat="48.09742" lon="7.10229">
        <ele>964.1</ele>
        <time>2021-08-05T12:32:24Z</time>
      </trkpt>
      <trkpt lat="48.09741" lon="7.10223">
        <ele>964.4</ele>
        <time>2021-08-05T12:32:25Z</time>
      </trkpt>
      <trkpt lat="48.09739" lon="7.10218">
        <ele>964.6</ele>
        <time>2021-08-05T12:32:26Z</time>
      </trkpt>
      <trkpt lat="48.09735" lon="7.10209">
        <ele>965.1</ele>
        <time>2021-08-05T12:32:27Z</time>
      </trkpt>
      <trkpt lat="48.09732" lon="7.10202">
        <ele>965.5</ele>
        <time>2021-08-05T12:32:29Z</time>
      </trkpt>
      <trkpt lat="48.0973" lon="7.10197">
        <ele>965.8</ele>
        <time>2021-08-05T12:32:30Z</time>
      </trkpt>
      <trkpt lat="48.09727" lon="7.10192">
        <ele>966.1</ele>
        <time>2021-08-05T12:32:31Z</time>
      </trkpt>
      <trkpt lat="48.09722" lon="7.10184">
        <ele>966.6</ele>
        <time>2021-08-05T12:32:33Z</time>
      </trkpt>
      <trkpt lat="48.09719" lon="7.10177">
        <ele>966.9</ele>
        <time>2021-08-05T12:32:34Z</time>
      </trkpt>
      <trkpt lat="48.09717" lon="7.10173">
        <ele>967.1</ele>
        <time>2021-08-05T12:32:35Z</time>
      </trkpt>
      <trkpt lat="48.09715" lon="7.10167">
        <ele>967.3</ele>
        <time>2021-08-05T12:32:37Z</time>
      </trkpt>
      <trkpt lat="48.09713" lon="7.10163">
        <ele>967.4</ele>
        <time>2021-08-05T12:32:38Z</time>
      </trkpt>
      <trkpt lat="48.09711" lon="7.1016">
        <ele>967.5</ele>
        <time>2021-08-05T12:32:40Z</time>
      </trkpt>
      <trkpt lat="48.09707" lon="7.10155">
        <ele>967.6</ele>
        <time>2021-08-05T12:32:41Z</time>
      </trkpt>
      <trkpt lat="48.09704" lon="7.10148">
        <ele>967.6</ele>
        <time>2021-08-05T12:32:43Z</time>
      </trkpt>
      <trkpt lat="48.09702" lon="7.10142">
        <ele>967.7</ele>
        <time>2021-08-05T12:32:45Z</time>
      </trkpt>
      <trkpt lat="48.097" lon="7.10135">
        <ele>967.7</ele>
        <time>2021-08-05T12:32:47Z</time>
      </trkpt>
      <trkpt lat="48.09697" lon="7.1013">
        <ele>967.7</ele>
        <time>2021-08-05T12:32:48Z</time>
      </trkpt>
      <trkpt lat="48.09696" lon="7.10125">
        <ele>967.6</ele>
        <time>2021-08-05T12:32:49Z</time>
      </trkpt>
      <trkpt lat="48.09694" lon="7.10121">
        <ele>967.6</ele>
        <time>2021-08-05T12:32:50Z</time>
      </trkpt>
      <trkpt lat="48.09691" lon="7.10114">
        <ele>967.6</ele>
        <time>2021-08-05T12:32:52Z</time>
      </trkpt>
      <trkpt lat="48.09689" lon="7.10109">
        <ele>967.5</ele>
        <time>2021-08-05T12:32:53Z</time>
      </trkpt>
      <trkpt lat="48.09687" lon="7.10105">
        <ele>967.5</ele>
        <time>2021-08-05T12:32:54Z</time>
      </trkpt>
      <trkpt lat="48.09683" lon="7.10099">
        <ele>967.4</ele>
        <time>2021-08-05T12:32:55Z</time>
      </trkpt>
      <trkpt lat="48.09681" lon="7.10095">
        <ele>967.3</ele>
        <time>2021-08-05T12:32:56Z</time>
      </trkpt>
      <trkpt lat="48.09679" lon="7.1009">
        <ele>967.2</ele>
        <time>2021-08-05T12:32:58Z</time>
      </trkpt>
      <trkpt lat="48.09677" lon="7.10087">
        <ele>967.2</ele>
        <time>2021-08-05T12:32:59Z</time>
      </trkpt>
      <trkpt lat="48.09675" lon="7.10083">
        <ele>967.1</ele>
        <time>2021-08-05T12:33:00Z</time>
      </trkpt>
      <trkpt lat="48.09672" lon="7.10077">
        <ele>967</ele>
        <time>2021-08-05T12:33:01Z</time>
      </trkpt>
      <trkpt lat="48.0967" lon="7.10071">
        <ele>966.9</ele>
        <time>2021-08-05T12:33:02Z</time>
      </trkpt>
      <trkpt lat="48.09667" lon="7.10065">
        <ele>966.8</ele>
        <time>2021-08-05T12:33:04Z</time>
      </trkpt>
      <trkpt lat="48.09664" lon="7.10057">
        <ele>966.7</ele>
        <time>2021-08-05T12:33:05Z</time>
      </trkpt>
      <trkpt lat="48.09661" lon="7.10049">
        <ele>966.6</ele>
        <time>2021-08-05T12:33:07Z</time>
      </trkpt>
      <trkpt lat="48.09657" lon="7.10043">
        <ele>966.6</ele>
        <time>2021-08-05T12:33:09Z</time>
      </trkpt>
      <trkpt lat="48.09657" lon="7.10037">
        <ele>966.6</ele>
        <time>2021-08-05T12:33:10Z</time>
      </trkpt>
      <trkpt lat="48.09654" lon="7.10031">
        <ele>966.7</ele>
        <time>2021-08-05T12:33:12Z</time>
      </trkpt>
      <trkpt lat="48.09651" lon="7.10025">
        <ele>966.8</ele>
        <time>2021-08-05T12:33:13Z</time>
      </trkpt>
      <trkpt lat="48.09647" lon="7.10017">
        <ele>967</ele>
        <time>2021-08-05T12:33:15Z</time>
      </trkpt>
      <trkpt lat="48.09644" lon="7.10012">
        <ele>967.2</ele>
        <time>2021-08-05T12:33:16Z</time>
      </trkpt>
      <trkpt lat="48.09642" lon="7.10008">
        <ele>967.3</ele>
        <time>2021-08-05T12:33:17Z</time>
      </trkpt>
      <trkpt lat="48.0964" lon="7.10001">
        <ele>967.5</ele>
        <time>2021-08-05T12:33:19Z</time>
      </trkpt>
      <trkpt lat="48.09636" lon="7.09994">
        <ele>967.8</ele>
        <time>2021-08-05T12:33:20Z</time>
      </trkpt>
      <trkpt lat="48.09634" lon="7.09988">
        <ele>968</ele>
        <time>2021-08-05T12:33:22Z</time>
      </trkpt>
      <trkpt lat="48.09632" lon="7.0998">
        <ele>968.2</ele>
        <time>2021-08-05T12:33:24Z</time>
      </trkpt>
      <trkpt lat="48.09632" lon="7.09972">
        <ele>968.5</ele>
        <time>2021-08-05T12:33:26Z</time>
      </trkpt>
      <trkpt lat="48.0963" lon="7.09968">
        <ele>968.6</ele>
        <time>2021-08-05T12:33:27Z</time>
      </trkpt>
      <trkpt lat="48.09628" lon="7.0996">
        <ele>968.8</ele>
        <time>2021-08-05T12:33:29Z</time>
      </trkpt>
      <trkpt lat="48.09629" lon="7.0995">
        <ele>969.1</ele>
        <time>2021-08-05T12:33:31Z</time>
      </trkpt>
      <trkpt lat="48.09628" lon="7.09941">
        <ele>969.3</ele>
        <time>2021-08-05T12:33:33Z</time>
      </trkpt>
      <trkpt lat="48.09625" lon="7.09935">
        <ele>969.5</ele>
        <time>2021-08-05T12:33:35Z</time>
      </trkpt>
      <trkpt lat="48.09623" lon="7.09932">
        <ele>969.6</ele>
        <time>2021-08-05T12:33:36Z</time>
      </trkpt>
      <trkpt lat="48.09619" lon="7.09926">
        <ele>969.8</ele>
        <time>2021-08-05T12:33:38Z</time>
      </trkpt>
      <trkpt lat="48.09617" lon="7.09921">
        <ele>970</ele>
        <time>2021-08-05T12:33:39Z</time>
      </trkpt>
      <trkpt lat="48.09617" lon="7.09918">
        <ele>970</ele>
        <time>2021-08-05T12:33:40Z</time>
      </trkpt>
      <trkpt lat="48.09616" lon="7.09909">
        <ele>970.2</ele>
        <time>2021-08-05T12:33:42Z</time>
      </trkpt>
      <trkpt lat="48.09616" lon="7.09906">
        <ele>970.3</ele>
        <time>2021-08-05T12:33:43Z</time>
      </trkpt>
      <trkpt lat="48.09615" lon="7.09899">
        <ele>970.5</ele>
        <time>2021-08-05T12:33:45Z</time>
      </trkpt>
      <trkpt lat="48.09614" lon="7.09895">
        <ele>970.6</ele>
        <time>2021-08-05T12:33:46Z</time>
      </trkpt>
      <trkpt lat="48.09614" lon="7.09893">
        <ele>970.6</ele>
        <time>2021-08-05T12:33:47Z</time>
      </trkpt>
      <trkpt lat="48.09611" lon="7.09889">
        <ele>970.7</ele>
        <time>2021-08-05T12:33:48Z</time>
      </trkpt>
      <trkpt lat="48.09609" lon="7.09886">
        <ele>970.8</ele>
        <time>2021-08-05T12:33:49Z</time>
      </trkpt>
      <trkpt lat="48.09608" lon="7.09882">
        <ele>970.9</ele>
        <time>2021-08-05T12:33:50Z</time>
      </trkpt>
      <trkpt lat="48.09607" lon="7.09878">
        <ele>971.1</ele>
        <time>2021-08-05T12:33:52Z</time>
      </trkpt>
      <trkpt lat="48.09606" lon="7.09874">
        <ele>971.1</ele>
        <time>2021-08-05T12:33:53Z</time>
      </trkpt>
      <trkpt lat="48.09605" lon="7.09868">
        <ele>971.3</ele>
        <time>2021-08-05T12:33:54Z</time>
      </trkpt>
      <trkpt lat="48.09605" lon="7.09867">
        <ele>971.3</ele>
        <time>2021-08-05T12:33:55Z</time>
      </trkpt>
      <trkpt lat="48.09602" lon="7.09862">
        <ele>971.4</ele>
        <time>2021-08-05T12:33:56Z</time>
      </trkpt>
      <trkpt lat="48.09601" lon="7.09859">
        <ele>971.5</ele>
        <time>2021-08-05T12:33:57Z</time>
      </trkpt>
      <trkpt lat="48.09599" lon="7.09854">
        <ele>971.7</ele>
        <time>2021-08-05T12:33:59Z</time>
      </trkpt>
      <trkpt lat="48.09597" lon="7.09852">
        <ele>971.7</ele>
        <time>2021-08-05T12:34:00Z</time>
      </trkpt>
      <trkpt lat="48.09596" lon="7.09851">
        <ele>971.8</ele>
        <time>2021-08-05T12:34:01Z</time>
      </trkpt>
      <trkpt lat="48.09594" lon="7.09847">
        <ele>971.9</ele>
        <time>2021-08-05T12:34:02Z</time>
      </trkpt>
      <trkpt lat="48.09594" lon="7.09845">
        <ele>971.9</ele>
        <time>2021-08-05T12:34:03Z</time>
      </trkpt>
      <trkpt lat="48.09592" lon="7.0984">
        <ele>972.1</ele>
        <time>2021-08-05T12:34:05Z</time>
      </trkpt>
      <trkpt lat="48.0959" lon="7.09835">
        <ele>972.2</ele>
        <time>2021-08-05T12:34:06Z</time>
      </trkpt>
      <trkpt lat="48.0959" lon="7.09833">
        <ele>972.2</ele>
        <time>2021-08-05T12:34:07Z</time>
      </trkpt>
      <trkpt lat="48.09588" lon="7.0983">
        <ele>972.4</ele>
        <time>2021-08-05T12:34:08Z</time>
      </trkpt>
      <trkpt lat="48.09587" lon="7.09829">
        <ele>972.4</ele>
        <time>2021-08-05T12:34:09Z</time>
      </trkpt>
      <trkpt lat="48.09585" lon="7.09825">
        <ele>972.5</ele>
        <time>2021-08-05T12:34:10Z</time>
      </trkpt>
      <trkpt lat="48.09584" lon="7.09824">
        <ele>972.6</ele>
        <time>2021-08-05T12:34:11Z</time>
      </trkpt>
      <trkpt lat="48.09583" lon="7.09823">
        <ele>972.6</ele>
        <time>2021-08-05T12:34:12Z</time>
      </trkpt>
      <trkpt lat="48.09581" lon="7.09822">
        <ele>972.7</ele>
        <time>2021-08-05T12:34:13Z</time>
      </trkpt>
      <trkpt lat="48.0958" lon="7.0982">
        <ele>972.8</ele>
        <time>2021-08-05T12:34:15Z</time>
      </trkpt>
      <trkpt lat="48.09579" lon="7.09818">
        <ele>972.8</ele>
        <time>2021-08-05T12:34:16Z</time>
      </trkpt>
      <trkpt lat="48.09579" lon="7.09816">
        <ele>972.9</ele>
        <time>2021-08-05T12:34:17Z</time>
      </trkpt>
      <trkpt lat="48.09577" lon="7.09812">
        <ele>973</ele>
        <time>2021-08-05T12:34:19Z</time>
      </trkpt>
      <trkpt lat="48.09574" lon="7.09808">
        <ele>973.2</ele>
        <time>2021-08-05T12:34:20Z</time>
      </trkpt>
      <trkpt lat="48.09573" lon="7.09807">
        <ele>973.3</ele>
        <time>2021-08-05T12:34:21Z</time>
      </trkpt>
      <trkpt lat="48.09571" lon="7.09806">
        <ele>973.3</ele>
        <time>2021-08-05T12:34:23Z</time>
      </trkpt>
      <trkpt lat="48.09571" lon="7.09804">
        <ele>973.4</ele>
        <time>2021-08-05T12:34:24Z</time>
      </trkpt>
      <trkpt lat="48.0957" lon="7.09798">
        <ele>973.6</ele>
        <time>2021-08-05T12:34:26Z</time>
      </trkpt>
      <trkpt lat="48.09569" lon="7.09795">
        <ele>973.6</ele>
        <time>2021-08-05T12:34:27Z</time>
      </trkpt>
      <trkpt lat="48.09569" lon="7.09794">
        <ele>973.7</ele>
        <time>2021-08-05T12:34:28Z</time>
      </trkpt>
      <trkpt lat="48.09568" lon="7.09792">
        <ele>973.7</ele>
        <time>2021-08-05T12:34:29Z</time>
      </trkpt>
      <trkpt lat="48.09567" lon="7.0979">
        <ele>973.8</ele>
        <time>2021-08-05T12:34:30Z</time>
      </trkpt>
      <trkpt lat="48.09565" lon="7.09784">
        <ele>974</ele>
        <time>2021-08-05T12:34:32Z</time>
      </trkpt>
      <trkpt lat="48.09564" lon="7.09781">
        <ele>974.1</ele>
        <time>2021-08-05T12:34:33Z</time>
      </trkpt>
      <trkpt lat="48.09562" lon="7.09778">
        <ele>974.2</ele>
        <time>2021-08-05T12:34:34Z</time>
      </trkpt>
      <trkpt lat="48.09561" lon="7.09775">
        <ele>974.3</ele>
        <time>2021-08-05T12:34:36Z</time>
      </trkpt>
      <trkpt lat="48.09559" lon="7.09771">
        <ele>974.5</ele>
        <time>2021-08-05T12:34:37Z</time>
      </trkpt>
      <trkpt lat="48.09558" lon="7.09769">
        <ele>974.5</ele>
        <time>2021-08-05T12:34:38Z</time>
      </trkpt>
      <trkpt lat="48.09557" lon="7.09764">
        <ele>974.6</ele>
        <time>2021-08-05T12:34:39Z</time>
      </trkpt>
      <trkpt lat="48.09555" lon="7.09759">
        <ele>974.7</ele>
        <time>2021-08-05T12:34:41Z</time>
      </trkpt>
      <trkpt lat="48.09554" lon="7.09758">
        <ele>974.8</ele>
        <time>2021-08-05T12:34:42Z</time>
      </trkpt>
      <trkpt lat="48.09553" lon="7.09753">
        <ele>974.9</ele>
        <time>2021-08-05T12:34:43Z</time>
      </trkpt>
      <trkpt lat="48.09553" lon="7.09752">
        <ele>974.9</ele>
        <time>2021-08-05T12:34:44Z</time>
      </trkpt>
      <trkpt lat="48.09552" lon="7.0975">
        <ele>975</ele>
        <time>2021-08-05T12:34:46Z</time>
      </trkpt>
      <trkpt lat="48.09552" lon="7.0975">
        <ele>975</ele>
        <time>2021-08-05T12:34:47Z</time>
      </trkpt>
      <trkpt lat="48.09553" lon="7.09749">
        <ele>975</ele>
        <time>2021-08-05T12:34:49Z</time>
      </trkpt>
      <trkpt lat="48.09553" lon="7.09749">
        <ele>975</ele>
        <time>2021-08-05T12:34:50Z</time>
      </trkpt>
      <trkpt lat="48.09553" lon="7.09748">
        <ele>975</ele>
        <time>2021-08-05T12:34:51Z</time>
      </trkpt>
      <trkpt lat="48.09553" lon="7.09748">
        <ele>975</ele>
        <time>2021-08-05T12:34:53Z</time>
      </trkpt>
      <trkpt lat="48.09553" lon="7.09749">
        <ele>975</ele>
        <time>2021-08-05T12:34:54Z</time>
      </trkpt>
      <trkpt lat="48.09551" lon="7.09751">
        <ele>975.1</ele>
        <time>2021-08-05T12:35:48Z</time>
      </trkpt>
      <trkpt lat="48.0955" lon="7.09747">
        <ele>975.2</ele>
        <time>2021-08-05T12:35:49Z</time>
      </trkpt>
      <trkpt lat="48.09548" lon="7.09739">
        <ele>975.3</ele>
        <time>2021-08-05T12:35:50Z</time>
      </trkpt>
      <trkpt lat="48.09547" lon="7.09732">
        <ele>975.5</ele>
        <time>2021-08-05T12:35:51Z</time>
      </trkpt>
      <trkpt lat="48.09546" lon="7.09725">
        <ele>975.6</ele>
        <time>2021-08-05T12:35:53Z</time>
      </trkpt>
      <trkpt lat="48.09544" lon="7.09719">
        <ele>975.7</ele>
        <time>2021-08-05T12:35:54Z</time>
      </trkpt>
      <trkpt lat="48.09543" lon="7.09714">
        <ele>975.8</ele>
        <time>2021-08-05T12:35:55Z</time>
      </trkpt>
      <trkpt lat="48.0954" lon="7.09705">
        <ele>975.9</ele>
        <time>2021-08-05T12:35:56Z</time>
      </trkpt>
      <trkpt lat="48.09538" lon="7.09699">
        <ele>976</ele>
        <time>2021-08-05T12:35:58Z</time>
      </trkpt>
      <trkpt lat="48.09536" lon="7.09693">
        <ele>976.1</ele>
        <time>2021-08-05T12:35:59Z</time>
      </trkpt>
      <trkpt lat="48.09534" lon="7.09688">
        <ele>976.2</ele>
        <time>2021-08-05T12:36:00Z</time>
      </trkpt>
      <trkpt lat="48.09531" lon="7.0968">
        <ele>976.2</ele>
        <time>2021-08-05T12:36:01Z</time>
      </trkpt>
      <trkpt lat="48.09529" lon="7.09674">
        <ele>976.3</ele>
        <time>2021-08-05T12:36:03Z</time>
      </trkpt>
      <trkpt lat="48.09528" lon="7.09669">
        <ele>976.3</ele>
        <time>2021-08-05T12:36:04Z</time>
      </trkpt>
      <trkpt lat="48.09527" lon="7.09665">
        <ele>976.3</ele>
        <time>2021-08-05T12:36:05Z</time>
      </trkpt>
      <trkpt lat="48.09526" lon="7.09661">
        <ele>976.4</ele>
        <time>2021-08-05T12:36:06Z</time>
      </trkpt>
      <trkpt lat="48.09524" lon="7.09654">
        <ele>976.4</ele>
        <time>2021-08-05T12:36:08Z</time>
      </trkpt>
      <trkpt lat="48.09522" lon="7.0965">
        <ele>976.4</ele>
        <time>2021-08-05T12:36:09Z</time>
      </trkpt>
      <trkpt lat="48.09521" lon="7.09643">
        <ele>976.4</ele>
        <time>2021-08-05T12:36:10Z</time>
      </trkpt>
      <trkpt lat="48.09521" lon="7.09637">
        <ele>976.3</ele>
        <time>2021-08-05T12:36:12Z</time>
      </trkpt>
      <trkpt lat="48.0952" lon="7.09633">
        <ele>976.3</ele>
        <time>2021-08-05T12:36:13Z</time>
      </trkpt>
      <trkpt lat="48.0952" lon="7.09628">
        <ele>976.2</ele>
        <time>2021-08-05T12:36:14Z</time>
      </trkpt>
      <trkpt lat="48.09519" lon="7.0962">
        <ele>976.1</ele>
        <time>2021-08-05T12:36:16Z</time>
      </trkpt>
      <trkpt lat="48.09516" lon="7.09614">
        <ele>976</ele>
        <time>2021-08-05T12:36:17Z</time>
      </trkpt>
      <trkpt lat="48.09513" lon="7.09607">
        <ele>975.9</ele>
        <time>2021-08-05T12:36:19Z</time>
      </trkpt>
      <trkpt lat="48.09509" lon="7.096">
        <ele>975.2</ele>
        <time>2021-08-05T12:36:20Z</time>
      </trkpt>
      <trkpt lat="48.09501" lon="7.09588">
        <ele>973.9</ele>
        <time>2021-08-05T12:36:22Z</time>
      </trkpt>
      <trkpt lat="48.09501" lon="7.09582">
        <ele>973.5</ele>
        <time>2021-08-05T12:36:23Z</time>
      </trkpt>
      <trkpt lat="48.09498" lon="7.09576">
        <ele>973</ele>
        <time>2021-08-05T12:36:24Z</time>
      </trkpt>
      <trkpt lat="48.09495" lon="7.0957">
        <ele>972.5</ele>
        <time>2021-08-05T12:36:26Z</time>
      </trkpt>
      <trkpt lat="48.09491" lon="7.09565">
        <ele>971.9</ele>
        <time>2021-08-05T12:36:27Z</time>
      </trkpt>
      <trkpt lat="48.09487" lon="7.0956">
        <ele>971.3</ele>
        <time>2021-08-05T12:36:28Z</time>
      </trkpt>
      <trkpt lat="48.09485" lon="7.09556">
        <ele>970.9</ele>
        <time>2021-08-05T12:36:30Z</time>
      </trkpt>
      <trkpt lat="48.09479" lon="7.09551">
        <ele>970.2</ele>
        <time>2021-08-05T12:36:31Z</time>
      </trkpt>
      <trkpt lat="48.09474" lon="7.09546">
        <ele>969.6</ele>
        <time>2021-08-05T12:36:33Z</time>
      </trkpt>
      <trkpt lat="48.09472" lon="7.09542">
        <ele>969.2</ele>
        <time>2021-08-05T12:36:34Z</time>
      </trkpt>
      <trkpt lat="48.0947" lon="7.09538">
        <ele>968.8</ele>
        <time>2021-08-05T12:36:35Z</time>
      </trkpt>
      <trkpt lat="48.09467" lon="7.09532">
        <ele>968.3</ele>
        <time>2021-08-05T12:36:36Z</time>
      </trkpt>
      <trkpt lat="48.09465" lon="7.09527">
        <ele>967.9</ele>
        <time>2021-08-05T12:36:38Z</time>
      </trkpt>
      <trkpt lat="48.09463" lon="7.09519">
        <ele>967.2</ele>
        <time>2021-08-05T12:36:39Z</time>
      </trkpt>
      <trkpt lat="48.09462" lon="7.09511">
        <ele>966.7</ele>
        <time>2021-08-05T12:36:41Z</time>
      </trkpt>
      <trkpt lat="48.09461" lon="7.09507">
        <ele>966.3</ele>
        <time>2021-08-05T12:36:42Z</time>
      </trkpt>
      <trkpt lat="48.0946" lon="7.09503">
        <ele>966</ele>
        <time>2021-08-05T12:36:44Z</time>
      </trkpt>
      <trkpt lat="48.0946" lon="7.09502">
        <ele>966</ele>
        <time>2021-08-05T12:36:45Z</time>
      </trkpt>
      <trkpt lat="48.09461" lon="7.09507">
        <ele>965.6</ele>
        <time>2021-08-05T12:36:46Z</time>
      </trkpt>
      <trkpt lat="48.09461" lon="7.09507">
        <ele>965.6</ele>
        <time>2021-08-05T12:36:47Z</time>
      </trkpt>
      <trkpt lat="48.09461" lon="7.09508">
        <ele>965.5</ele>
        <time>2021-08-05T12:36:48Z</time>
      </trkpt>
      <trkpt lat="48.09462" lon="7.0951">
        <ele>965.4</ele>
        <time>2021-08-05T12:36:50Z</time>
      </trkpt>
      <trkpt lat="48.09463" lon="7.09514">
        <ele>965.1</ele>
        <time>2021-08-05T12:36:52Z</time>
      </trkpt>
      <trkpt lat="48.09463" lon="7.09515">
        <ele>965</ele>
        <time>2021-08-05T12:36:53Z</time>
      </trkpt>
      <trkpt lat="48.09464" lon="7.09518">
        <ele>965.3</ele>
        <time>2021-08-05T12:36:54Z</time>
      </trkpt>
      <trkpt lat="48.09467" lon="7.09526">
        <ele>966.1</ele>
        <time>2021-08-05T12:36:58Z</time>
      </trkpt>
      <trkpt lat="48.09469" lon="7.09532">
        <ele>966.6</ele>
        <time>2021-08-05T12:36:59Z</time>
      </trkpt>
      <trkpt lat="48.0947" lon="7.09537">
        <ele>967.1</ele>
        <time>2021-08-05T12:37:01Z</time>
      </trkpt>
      <trkpt lat="48.09473" lon="7.09543">
        <ele>967.6</ele>
        <time>2021-08-05T12:37:02Z</time>
      </trkpt>
      <trkpt lat="48.09475" lon="7.09548">
        <ele>968.2</ele>
        <time>2021-08-05T12:37:04Z</time>
      </trkpt>
      <trkpt lat="48.09476" lon="7.0955">
        <ele>968.4</ele>
        <time>2021-08-05T12:37:05Z</time>
      </trkpt>
      <trkpt lat="48.09476" lon="7.09552">
        <ele>968.5</ele>
        <time>2021-08-05T12:37:06Z</time>
      </trkpt>
      <trkpt lat="48.09478" lon="7.09555">
        <ele>968.9</ele>
        <time>2021-08-05T12:37:07Z</time>
      </trkpt>
      <trkpt lat="48.09479" lon="7.09558">
        <ele>969.2</ele>
        <time>2021-08-05T12:37:09Z</time>
      </trkpt>
      <trkpt lat="48.0948" lon="7.0956">
        <ele>969.4</ele>
        <time>2021-08-05T12:37:10Z</time>
      </trkpt>
      <trkpt lat="48.09481" lon="7.09562">
        <ele>969.6</ele>
        <time>2021-08-05T12:37:11Z</time>
      </trkpt>
      <trkpt lat="48.09483" lon="7.09565">
        <ele>969.9</ele>
        <time>2021-08-05T12:37:13Z</time>
      </trkpt>
      <trkpt lat="48.09484" lon="7.09567">
        <ele>970.1</ele>
        <time>2021-08-05T12:37:14Z</time>
      </trkpt>
      <trkpt lat="48.09485" lon="7.0957">
        <ele>970.4</ele>
        <time>2021-08-05T12:37:16Z</time>
      </trkpt>
      <trkpt lat="48.09485" lon="7.09572">
        <ele>970.6</ele>
        <time>2021-08-05T12:37:17Z</time>
      </trkpt>
      <trkpt lat="48.09486" lon="7.09574">
        <ele>970.8</ele>
        <time>2021-08-05T12:37:18Z</time>
      </trkpt>
      <trkpt lat="48.09486" lon="7.09575">
        <ele>970.9</ele>
        <time>2021-08-05T12:37:20Z</time>
      </trkpt>
      <trkpt lat="48.09486" lon="7.09576">
        <ele>970.9</ele>
        <time>2021-08-05T12:37:21Z</time>
      </trkpt>
      <trkpt lat="48.09487" lon="7.09577">
        <ele>971</ele>
        <time>2021-08-05T12:37:22Z</time>
      </trkpt>
      <trkpt lat="48.09487" lon="7.09577">
        <ele>971.1</ele>
        <time>2021-08-05T12:37:23Z</time>
      </trkpt>
      <trkpt lat="48.09487" lon="7.09578">
        <ele>971.1</ele>
        <time>2021-08-05T12:37:24Z</time>
      </trkpt>
      <trkpt lat="48.09487" lon="7.09579">
        <ele>971.2</ele>
        <time>2021-08-05T12:37:26Z</time>
      </trkpt>
      <trkpt lat="48.09487" lon="7.0958">
        <ele>971.2</ele>
        <time>2021-08-05T12:37:27Z</time>
      </trkpt>
      <trkpt lat="48.09493" lon="7.09596">
        <ele>972.8</ele>
        <time>2021-08-05T12:37:34Z</time>
      </trkpt>
      <trkpt lat="48.09495" lon="7.09601">
        <ele>973.3</ele>
        <time>2021-08-05T12:37:36Z</time>
      </trkpt>
      <trkpt lat="48.09498" lon="7.09606">
        <ele>973.7</ele>
        <time>2021-08-05T12:37:37Z</time>
      </trkpt>
      <trkpt lat="48.095" lon="7.09608">
        <ele>974.1</ele>
        <time>2021-08-05T12:37:39Z</time>
      </trkpt>
      <trkpt lat="48.09502" lon="7.09609">
        <ele>974.3</ele>
        <time>2021-08-05T12:37:40Z</time>
      </trkpt>
      <trkpt lat="48.09502" lon="7.09611">
        <ele>974.5</ele>
        <time>2021-08-05T12:37:41Z</time>
      </trkpt>
      <trkpt lat="48.09504" lon="7.09613">
        <ele>974.7</ele>
        <time>2021-08-05T12:37:42Z</time>
      </trkpt>
      <trkpt lat="48.09505" lon="7.09613">
        <ele>974.9</ele>
        <time>2021-08-05T12:37:43Z</time>
      </trkpt>
      <trkpt lat="48.09506" lon="7.09614">
        <ele>975</ele>
        <time>2021-08-05T12:37:44Z</time>
      </trkpt>
      <trkpt lat="48.09509" lon="7.09611">
        <ele>975.5</ele>
        <time>2021-08-05T12:37:46Z</time>
      </trkpt>
      <trkpt lat="48.09509" lon="7.09609">
        <ele>975.7</ele>
        <time>2021-08-05T12:37:48Z</time>
      </trkpt>
      <trkpt lat="48.0951" lon="7.09608">
        <ele>975.8</ele>
        <time>2021-08-05T12:37:50Z</time>
      </trkpt>
      <trkpt lat="48.0951" lon="7.09608">
        <ele>975.9</ele>
        <time>2021-08-05T12:37:51Z</time>
      </trkpt>
      <trkpt lat="48.0951" lon="7.09608">
        <ele>975.9</ele>
        <time>2021-08-05T12:37:53Z</time>
      </trkpt>
      <trkpt lat="48.0951" lon="7.09608">
        <ele>975.9</ele>
        <time>2021-08-05T12:37:54Z</time>
      </trkpt>
      <trkpt lat="48.0951" lon="7.09608">
        <ele>975.9</ele>
        <time>2021-08-05T12:37:56Z</time>
      </trkpt>
      <trkpt lat="48.09507" lon="7.09577">
        <ele>975.7</ele>
        <time>2021-08-05T12:38:02Z</time>
      </trkpt>
      <trkpt lat="48.09506" lon="7.09571">
        <ele>975.6</ele>
        <time>2021-08-05T12:38:03Z</time>
      </trkpt>
      <trkpt lat="48.09505" lon="7.09565">
        <ele>975.6</ele>
        <time>2021-08-05T12:38:04Z</time>
      </trkpt>
      <trkpt lat="48.09505" lon="7.09559">
        <ele>975.5</ele>
        <time>2021-08-05T12:38:05Z</time>
      </trkpt>
      <trkpt lat="48.09505" lon="7.09557">
        <ele>975.5</ele>
        <time>2021-08-05T12:38:06Z</time>
      </trkpt>
      <trkpt lat="48.09504" lon="7.09553">
        <ele>975.5</ele>
        <time>2021-08-05T12:38:07Z</time>
      </trkpt>
      <trkpt lat="48.09503" lon="7.09548">
        <ele>975.4</ele>
        <time>2021-08-05T12:38:08Z</time>
      </trkpt>
      <trkpt lat="48.09502" lon="7.09538">
        <ele>975.2</ele>
        <time>2021-08-05T12:38:10Z</time>
      </trkpt>
      <trkpt lat="48.09502" lon="7.09534">
        <ele>975.1</ele>
        <time>2021-08-05T12:38:11Z</time>
      </trkpt>
      <trkpt lat="48.09502" lon="7.09531">
        <ele>975</ele>
        <time>2021-08-05T12:38:12Z</time>
      </trkpt>
      <trkpt lat="48.09502" lon="7.09523">
        <ele>974.8</ele>
        <time>2021-08-05T12:38:14Z</time>
      </trkpt>
      <trkpt lat="48.09502" lon="7.09517">
        <ele>974.6</ele>
        <time>2021-08-05T12:38:16Z</time>
      </trkpt>
      <trkpt lat="48.09503" lon="7.09513">
        <ele>974.4</ele>
        <time>2021-08-05T12:38:17Z</time>
      </trkpt>
      <trkpt lat="48.09503" lon="7.09502">
        <ele>973.9</ele>
        <time>2021-08-05T12:38:19Z</time>
      </trkpt>
      <trkpt lat="48.09503" lon="7.09497">
        <ele>973.6</ele>
        <time>2021-08-05T12:38:20Z</time>
      </trkpt>
      <trkpt lat="48.09506" lon="7.09486">
        <ele>973.1</ele>
        <time>2021-08-05T12:38:22Z</time>
      </trkpt>
      <trkpt lat="48.09508" lon="7.09481">
        <ele>972.8</ele>
        <time>2021-08-05T12:38:23Z</time>
      </trkpt>
      <trkpt lat="48.0951" lon="7.09476">
        <ele>972.4</ele>
        <time>2021-08-05T12:38:24Z</time>
      </trkpt>
      <trkpt lat="48.09513" lon="7.09465">
        <ele>971.8</ele>
        <time>2021-08-05T12:38:26Z</time>
      </trkpt>
      <trkpt lat="48.09515" lon="7.09449">
        <ele>971.1</ele>
        <time>2021-08-05T12:38:28Z</time>
      </trkpt>
      <trkpt lat="48.09517" lon="7.09443">
        <ele>970.8</ele>
        <time>2021-08-05T12:38:29Z</time>
      </trkpt>
      <trkpt lat="48.09518" lon="7.09436">
        <ele>970.6</ele>
        <time>2021-08-05T12:38:30Z</time>
      </trkpt>
      <trkpt lat="48.09519" lon="7.09431">
        <ele>970.3</ele>
        <time>2021-08-05T12:38:31Z</time>
      </trkpt>
      <trkpt lat="48.0952" lon="7.09426">
        <ele>970.2</ele>
        <time>2021-08-05T12:38:32Z</time>
      </trkpt>
      <trkpt lat="48.09523" lon="7.09416">
        <ele>969.8</ele>
        <time>2021-08-05T12:38:34Z</time>
      </trkpt>
      <trkpt lat="48.09525" lon="7.09409">
        <ele>969.6</ele>
        <time>2021-08-05T12:38:35Z</time>
      </trkpt>
      <trkpt lat="48.09527" lon="7.09404">
        <ele>969.4</ele>
        <time>2021-08-05T12:38:36Z</time>
      </trkpt>
      <trkpt lat="48.09531" lon="7.0939">
        <ele>969</ele>
        <time>2021-08-05T12:38:38Z</time>
      </trkpt>
      <trkpt lat="48.09532" lon="7.09384">
        <ele>968.8</ele>
        <time>2021-08-05T12:38:39Z</time>
      </trkpt>
      <trkpt lat="48.09535" lon="7.09373">
        <ele>968.6</ele>
        <time>2021-08-05T12:38:41Z</time>
      </trkpt>
      <trkpt lat="48.09537" lon="7.09367">
        <ele>968.5</ele>
        <time>2021-08-05T12:38:42Z</time>
      </trkpt>
      <trkpt lat="48.09541" lon="7.09358">
        <ele>968.4</ele>
        <time>2021-08-05T12:38:44Z</time>
      </trkpt>
      <trkpt lat="48.09543" lon="7.09353">
        <ele>968.3</ele>
        <time>2021-08-05T12:38:45Z</time>
      </trkpt>
      <trkpt lat="48.09544" lon="7.09349">
        <ele>968.2</ele>
        <time>2021-08-05T12:38:46Z</time>
      </trkpt>
      <trkpt lat="48.09544" lon="7.09347">
        <ele>968.1</ele>
        <time>2021-08-05T12:38:48Z</time>
      </trkpt>
      <trkpt lat="48.09544" lon="7.09347">
        <ele>968.1</ele>
        <time>2021-08-05T12:38:49Z</time>
      </trkpt>
      <trkpt lat="48.09544" lon="7.09349">
        <ele>968</ele>
        <time>2021-08-05T12:38:50Z</time>
      </trkpt>
      <trkpt lat="48.09545" lon="7.09351">
        <ele>967.9</ele>
        <time>2021-08-05T12:38:52Z</time>
      </trkpt>
      <trkpt lat="48.09545" lon="7.09351">
        <ele>967.9</ele>
        <time>2021-08-05T12:38:53Z</time>
      </trkpt>
      <trkpt lat="48.09545" lon="7.09352">
        <ele>967.9</ele>
        <time>2021-08-05T12:38:54Z</time>
      </trkpt>
      <trkpt lat="48.09545" lon="7.09352">
        <ele>967.9</ele>
        <time>2021-08-05T12:38:55Z</time>
      </trkpt>
      <trkpt lat="48.09545" lon="7.09352">
        <ele>967.9</ele>
        <time>2021-08-05T12:38:57Z</time>
      </trkpt>
      <trkpt lat="48.09545" lon="7.09352">
        <ele>967.9</ele>
        <time>2021-08-05T12:38:58Z</time>
      </trkpt>
      <trkpt lat="48.09548" lon="7.09333">
        <ele>967</ele>
        <time>2021-08-05T12:39:31Z</time>
      </trkpt>
      <trkpt lat="48.0955" lon="7.09323">
        <ele>966.6</ele>
        <time>2021-08-05T12:39:33Z</time>
      </trkpt>
      <trkpt lat="48.09551" lon="7.09315">
        <ele>966.4</ele>
        <time>2021-08-05T12:39:34Z</time>
      </trkpt>
      <trkpt lat="48.09552" lon="7.09309">
        <ele>966.1</ele>
        <time>2021-08-05T12:39:35Z</time>
      </trkpt>
      <trkpt lat="48.09554" lon="7.09297">
        <ele>965.8</ele>
        <time>2021-08-05T12:39:36Z</time>
      </trkpt>
      <trkpt lat="48.09554" lon="7.09292">
        <ele>965.6</ele>
        <time>2021-08-05T12:39:38Z</time>
      </trkpt>
      <trkpt lat="48.09556" lon="7.09284">
        <ele>965.3</ele>
        <time>2021-08-05T12:39:39Z</time>
      </trkpt>
      <trkpt lat="48.09558" lon="7.09275">
        <ele>964.9</ele>
        <time>2021-08-05T12:39:40Z</time>
      </trkpt>
      <trkpt lat="48.09559" lon="7.0927">
        <ele>964.7</ele>
        <time>2021-08-05T12:39:41Z</time>
      </trkpt>
      <trkpt lat="48.0956" lon="7.09261">
        <ele>964.3</ele>
        <time>2021-08-05T12:39:43Z</time>
      </trkpt>
      <trkpt lat="48.09561" lon="7.09253">
        <ele>964</ele>
        <time>2021-08-05T12:39:44Z</time>
      </trkpt>
      <trkpt lat="48.09561" lon="7.09246">
        <ele>963.7</ele>
        <time>2021-08-05T12:39:45Z</time>
      </trkpt>
      <trkpt lat="48.09561" lon="7.0924">
        <ele>963.4</ele>
        <time>2021-08-05T12:39:47Z</time>
      </trkpt>
      <trkpt lat="48.09562" lon="7.09234">
        <ele>963.2</ele>
        <time>2021-08-05T12:39:48Z</time>
      </trkpt>
      <trkpt lat="48.09564" lon="7.09231">
        <ele>963.1</ele>
        <time>2021-08-05T12:39:49Z</time>
      </trkpt>
      <trkpt lat="48.09566" lon="7.09225">
        <ele>962.9</ele>
        <time>2021-08-05T12:39:51Z</time>
      </trkpt>
      <trkpt lat="48.09567" lon="7.09222">
        <ele>962.8</ele>
        <time>2021-08-05T12:39:52Z</time>
      </trkpt>
      <trkpt lat="48.09567" lon="7.09218">
        <ele>962.6</ele>
        <time>2021-08-05T12:39:54Z</time>
      </trkpt>
      <trkpt lat="48.09566" lon="7.09217">
        <ele>962.6</ele>
        <time>2021-08-05T12:39:56Z</time>
      </trkpt>
      <trkpt lat="48.09566" lon="7.09216">
        <ele>962.6</ele>
        <time>2021-08-05T12:39:57Z</time>
      </trkpt>
      <trkpt lat="48.09566" lon="7.09213">
        <ele>962.5</ele>
        <time>2021-08-05T12:39:59Z</time>
      </trkpt>
      <trkpt lat="48.09566" lon="7.09211">
        <ele>962.4</ele>
        <time>2021-08-05T12:40:00Z</time>
      </trkpt>
      <trkpt lat="48.09565" lon="7.0921">
        <ele>962.4</ele>
        <time>2021-08-05T12:40:02Z</time>
      </trkpt>
      <trkpt lat="48.09688" lon="7.08831">
        <ele>960.3</ele>
        <time>2021-08-05T12:42:48Z</time>
      </trkpt>
      <trkpt lat="48.0969" lon="7.08828">
        <ele>960.3</ele>
        <time>2021-08-05T12:42:49Z</time>
      </trkpt>
      <trkpt lat="48.09691" lon="7.08829">
        <ele>960.3</ele>
        <time>2021-08-05T12:42:50Z</time>
      </trkpt>
      <trkpt lat="48.09692" lon="7.0883">
        <ele>960.3</ele>
        <time>2021-08-05T12:42:51Z</time>
      </trkpt>
      <trkpt lat="48.09693" lon="7.08831">
        <ele>960.3</ele>
        <time>2021-08-05T12:42:52Z</time>
      </trkpt>
      <trkpt lat="48.09694" lon="7.08832">
        <ele>960.4</ele>
        <time>2021-08-05T12:42:54Z</time>
      </trkpt>
      <trkpt lat="48.09695" lon="7.08832">
        <ele>960.4</ele>
        <time>2021-08-05T12:42:55Z</time>
      </trkpt>
      <trkpt lat="48.09696" lon="7.08832">
        <ele>960.4</ele>
        <time>2021-08-05T12:42:56Z</time>
      </trkpt>
      <trkpt lat="48.09697" lon="7.08832">
        <ele>960.5</ele>
        <time>2021-08-05T12:42:58Z</time>
      </trkpt>
      <trkpt lat="48.09698" lon="7.08832">
        <ele>960.5</ele>
        <time>2021-08-05T12:43:00Z</time>
      </trkpt>
      <trkpt lat="48.0971" lon="7.08828">
        <ele>961.1</ele>
        <time>2021-08-05T12:43:15Z</time>
      </trkpt>
      <trkpt lat="48.09712" lon="7.08827">
        <ele>961.2</ele>
        <time>2021-08-05T12:43:16Z</time>
      </trkpt>
      <trkpt lat="48.09714" lon="7.08826">
        <ele>961.3</ele>
        <time>2021-08-05T12:43:18Z</time>
      </trkpt>
      <trkpt lat="48.09715" lon="7.08827">
        <ele>961.4</ele>
        <time>2021-08-05T12:43:19Z</time>
      </trkpt>
      <trkpt lat="48.09715" lon="7.08826">
        <ele>961.4</ele>
        <time>2021-08-05T12:43:20Z</time>
      </trkpt>
      <trkpt lat="48.09716" lon="7.08822">
        <ele>961.6</ele>
        <time>2021-08-05T12:43:22Z</time>
      </trkpt>
      <trkpt lat="48.09717" lon="7.08819">
        <ele>961.7</ele>
        <time>2021-08-05T12:43:23Z</time>
      </trkpt>
      <trkpt lat="48.09718" lon="7.08815">
        <ele>961.9</ele>
        <time>2021-08-05T12:43:25Z</time>
      </trkpt>
      <trkpt lat="48.09716" lon="7.08802">
        <ele>962.4</ele>
        <time>2021-08-05T12:43:26Z</time>
      </trkpt>
      <trkpt lat="48.09714" lon="7.08791">
        <ele>962.7</ele>
        <time>2021-08-05T12:43:28Z</time>
      </trkpt>
      <trkpt lat="48.09712" lon="7.0878">
        <ele>963</ele>
        <time>2021-08-05T12:43:59Z</time>
      </trkpt>
      <trkpt lat="48.0971" lon="7.08769">
        <ele>963.1</ele>
        <time>2021-08-05T12:44:00Z</time>
      </trkpt>
      <trkpt lat="48.09717" lon="7.0876">
        <ele>963.2</ele>
        <time>2021-08-05T12:44:01Z</time>
      </trkpt>
      <trkpt lat="48.09721" lon="7.08755">
        <ele>963.1</ele>
        <time>2021-08-05T12:44:02Z</time>
      </trkpt>
      <trkpt lat="48.09726" lon="7.08748">
        <ele>963</ele>
        <time>2021-08-05T12:44:03Z</time>
      </trkpt>
      <trkpt lat="48.09729" lon="7.08743">
        <ele>963</ele>
        <time>2021-08-05T12:44:04Z</time>
      </trkpt>
      <trkpt lat="48.09732" lon="7.08735">
        <ele>963</ele>
        <time>2021-08-05T12:44:06Z</time>
      </trkpt>
      <trkpt lat="48.09735" lon="7.08727">
        <ele>963.1</ele>
        <time>2021-08-05T12:44:07Z</time>
      </trkpt>
      <trkpt lat="48.09737" lon="7.08721">
        <ele>963.2</ele>
        <time>2021-08-05T12:44:08Z</time>
      </trkpt>
      <trkpt lat="48.09741" lon="7.08712">
        <ele>963.2</ele>
        <time>2021-08-05T12:44:10Z</time>
      </trkpt>
      <trkpt lat="48.09746" lon="7.08704">
        <ele>963.3</ele>
        <time>2021-08-05T12:44:11Z</time>
      </trkpt>
      <trkpt lat="48.09749" lon="7.08698">
        <ele>963</ele>
        <time>2021-08-05T12:44:12Z</time>
      </trkpt>
      <trkpt lat="48.09753" lon="7.08691">
        <ele>962.9</ele>
        <time>2021-08-05T12:44:13Z</time>
      </trkpt>
      <trkpt lat="48.09756" lon="7.08685">
        <ele>962.8</ele>
        <time>2021-08-05T12:44:14Z</time>
      </trkpt>
      <trkpt lat="48.09761" lon="7.08676">
        <ele>962.6</ele>
        <time>2021-08-05T12:44:16Z</time>
      </trkpt>
      <trkpt lat="48.09764" lon="7.08669">
        <ele>962.3</ele>
        <time>2021-08-05T12:44:17Z</time>
      </trkpt>
      <trkpt lat="48.09768" lon="7.08664">
        <ele>962.1</ele>
        <time>2021-08-05T12:44:18Z</time>
      </trkpt>
      <trkpt lat="48.09771" lon="7.08658">
        <ele>961.9</ele>
        <time>2021-08-05T12:44:19Z</time>
      </trkpt>
      <trkpt lat="48.09774" lon="7.08652">
        <ele>961.7</ele>
        <time>2021-08-05T12:44:20Z</time>
      </trkpt>
      <trkpt lat="48.09778" lon="7.08646">
        <ele>961.4</ele>
        <time>2021-08-05T12:44:21Z</time>
      </trkpt>
      <trkpt lat="48.09789" lon="7.08632">
        <ele>960.6</ele>
        <time>2021-08-05T12:44:23Z</time>
      </trkpt>
      <trkpt lat="48.09793" lon="7.08626">
        <ele>960.3</ele>
        <time>2021-08-05T12:44:24Z</time>
      </trkpt>
      <trkpt lat="48.09797" lon="7.08612">
        <ele>959.8</ele>
        <time>2021-08-05T12:44:26Z</time>
      </trkpt>
      <trkpt lat="48.09799" lon="7.08597">
        <ele>959.1</ele>
        <time>2021-08-05T12:44:28Z</time>
      </trkpt>
      <trkpt lat="48.098" lon="7.08586">
        <ele>958.6</ele>
        <time>2021-08-05T12:44:30Z</time>
      </trkpt>
      <trkpt lat="48.09801" lon="7.08575">
        <ele>958.1</ele>
        <time>2021-08-05T12:44:32Z</time>
      </trkpt>
      <trkpt lat="48.09802" lon="7.0857">
        <ele>957.8</ele>
        <time>2021-08-05T12:44:34Z</time>
      </trkpt>
      <trkpt lat="48.09801" lon="7.08572">
        <ele>957.6</ele>
        <time>2021-08-05T12:44:35Z</time>
      </trkpt>
      <trkpt lat="48.098" lon="7.08579">
        <ele>957.3</ele>
        <time>2021-08-05T12:44:37Z</time>
      </trkpt>
      <trkpt lat="48.09799" lon="7.08579">
        <ele>957.3</ele>
        <time>2021-08-05T12:44:38Z</time>
      </trkpt>
      <trkpt lat="48.09798" lon="7.0858">
        <ele>957.1</ele>
        <time>2021-08-05T12:44:39Z</time>
      </trkpt>
      <trkpt lat="48.09796" lon="7.08582">
        <ele>957</ele>
        <time>2021-08-05T12:44:41Z</time>
      </trkpt>
      <trkpt lat="48.09784" lon="7.08588">
        <ele>956.1</ele>
        <time>2021-08-05T12:44:42Z</time>
      </trkpt>
      <trkpt lat="48.09773" lon="7.08594">
        <ele>955.3</ele>
        <time>2021-08-05T12:44:44Z</time>
      </trkpt>
      <trkpt lat="48.09761" lon="7.086">
        <ele>954.4</ele>
        <time>2021-08-05T12:44:46Z</time>
      </trkpt>
      <trkpt lat="48.09759" lon="7.08603">
        <ele>954.2</ele>
        <time>2021-08-05T12:44:48Z</time>
      </trkpt>
      <trkpt lat="48.09758" lon="7.08604">
        <ele>954.1</ele>
        <time>2021-08-05T12:44:49Z</time>
      </trkpt>
      <trkpt lat="48.0975" lon="7.08615">
        <ele>953.3</ele>
        <time>2021-08-05T12:44:51Z</time>
      </trkpt>
      <trkpt lat="48.09719" lon="7.0866">
        <ele>950.4</ele>
        <time>2021-08-05T12:44:52Z</time>
      </trkpt>
      <trkpt lat="48.09714" lon="7.08667">
        <ele>949.9</ele>
        <time>2021-08-05T12:44:53Z</time>
      </trkpt>
      <trkpt lat="48.09694" lon="7.0869">
        <ele>948.2</ele>
        <time>2021-08-05T12:44:55Z</time>
      </trkpt>
      <trkpt lat="48.09679" lon="7.08705">
        <ele>947</ele>
        <time>2021-08-05T12:44:57Z</time>
      </trkpt>
      <trkpt lat="48.09665" lon="7.08715">
        <ele>945.9</ele>
        <time>2021-08-05T12:44:59Z</time>
      </trkpt>
      <trkpt lat="48.09658" lon="7.08719">
        <ele>944.5</ele>
        <time>2021-08-05T12:45:00Z</time>
      </trkpt>
      <trkpt lat="48.09646" lon="7.08729">
        <ele>943.5</ele>
        <time>2021-08-05T12:45:02Z</time>
      </trkpt>
      <trkpt lat="48.0964" lon="7.08734">
        <ele>943.1</ele>
        <time>2021-08-05T12:45:03Z</time>
      </trkpt>
      <trkpt lat="48.0963" lon="7.0874">
        <ele>942.3</ele>
        <time>2021-08-05T12:45:05Z</time>
      </trkpt>
      <trkpt lat="48.09625" lon="7.08742">
        <ele>942</ele>
        <time>2021-08-05T12:45:06Z</time>
      </trkpt>
      <trkpt lat="48.09621" lon="7.08745">
        <ele>941.6</ele>
        <time>2021-08-05T12:45:07Z</time>
      </trkpt>
      <trkpt lat="48.09615" lon="7.08747">
        <ele>941.2</ele>
        <time>2021-08-05T12:45:09Z</time>
      </trkpt>
      <trkpt lat="48.09615" lon="7.08743">
        <ele>941.1</ele>
        <time>2021-08-05T12:45:10Z</time>
      </trkpt>
      <trkpt lat="48.09614" lon="7.0874">
        <ele>941</ele>
        <time>2021-08-05T12:45:11Z</time>
      </trkpt>
      <trkpt lat="48.09613" lon="7.08735">
        <ele>940.8</ele>
        <time>2021-08-05T12:45:12Z</time>
      </trkpt>
      <trkpt lat="48.09607" lon="7.08724">
        <ele>940.2</ele>
        <time>2021-08-05T12:45:14Z</time>
      </trkpt>
      <trkpt lat="48.09604" lon="7.08716">
        <ele>939.8</ele>
        <time>2021-08-05T12:45:16Z</time>
      </trkpt>
      <trkpt lat="48.09602" lon="7.08713">
        <ele>939.6</ele>
        <time>2021-08-05T12:45:17Z</time>
      </trkpt>
      <trkpt lat="48.09602" lon="7.08711">
        <ele>939.6</ele>
        <time>2021-08-05T12:45:18Z</time>
      </trkpt>
      <trkpt lat="48.09599" lon="7.08705">
        <ele>939.2</ele>
        <time>2021-08-05T12:45:19Z</time>
      </trkpt>
      <trkpt lat="48.09599" lon="7.08705">
        <ele>939.2</ele>
        <time>2021-08-05T12:45:19Z</time>
      </trkpt>
      <trkpt lat="48.09596" lon="7.08694">
        <ele>938.7</ele>
        <time>2021-08-05T12:45:21Z</time>
      </trkpt>
      <trkpt lat="48.09594" lon="7.08679">
        <ele>937.9</ele>
        <time>2021-08-05T12:45:22Z</time>
      </trkpt>
      <trkpt lat="48.09595" lon="7.08671">
        <ele>937.6</ele>
        <time>2021-08-05T12:45:23Z</time>
      </trkpt>
      <trkpt lat="48.09595" lon="7.08665">
        <ele>937.3</ele>
        <time>2021-08-05T12:45:24Z</time>
      </trkpt>
      <trkpt lat="48.09597" lon="7.0866">
        <ele>937</ele>
        <time>2021-08-05T12:45:26Z</time>
      </trkpt>
      <trkpt lat="48.096" lon="7.08656">
        <ele>936.7</ele>
        <time>2021-08-05T12:45:27Z</time>
      </trkpt>
      <trkpt lat="48.09602" lon="7.08655">
        <ele>936.6</ele>
        <time>2021-08-05T12:45:28Z</time>
      </trkpt>
      <trkpt lat="48.09606" lon="7.08653">
        <ele>936.3</ele>
        <time>2021-08-05T12:45:30Z</time>
      </trkpt>
      <trkpt lat="48.0961" lon="7.08652">
        <ele>936</ele>
        <time>2021-08-05T12:45:31Z</time>
      </trkpt>
      <trkpt lat="48.09613" lon="7.08651">
        <ele>935.8</ele>
        <time>2021-08-05T12:45:33Z</time>
      </trkpt>
      <trkpt lat="48.09614" lon="7.0865">
        <ele>935.7</ele>
        <time>2021-08-05T12:45:35Z</time>
      </trkpt>
      <trkpt lat="48.09613" lon="7.08647">
        <ele>935.6</ele>
        <time>2021-08-05T12:45:36Z</time>
      </trkpt>
      <trkpt lat="48.09613" lon="7.08647">
        <ele>935.5</ele>
        <time>2021-08-05T12:45:37Z</time>
      </trkpt>
      <trkpt lat="48.09609" lon="7.08645">
        <ele>935.3</ele>
        <time>2021-08-05T12:45:39Z</time>
      </trkpt>
      <trkpt lat="48.09605" lon="7.08644">
        <ele>935</ele>
        <time>2021-08-05T12:45:40Z</time>
      </trkpt>
      <trkpt lat="48.09601" lon="7.08643">
        <ele>934.7</ele>
        <time>2021-08-05T12:45:41Z</time>
      </trkpt>
      <trkpt lat="48.09597" lon="7.08642">
        <ele>934.5</ele>
        <time>2021-08-05T12:45:43Z</time>
      </trkpt>
      <trkpt lat="48.09594" lon="7.08641">
        <ele>934.3</ele>
        <time>2021-08-05T12:47:36Z</time>
      </trkpt>
      <trkpt lat="48.0959" lon="7.0864">
        <ele>934</ele>
        <time>2021-08-05T12:47:37Z</time>
      </trkpt>
      <trkpt lat="48.09587" lon="7.08637">
        <ele>933.8</ele>
        <time>2021-08-05T12:47:38Z</time>
      </trkpt>
      <trkpt lat="48.09576" lon="7.08628">
        <ele>933</ele>
        <time>2021-08-05T12:47:40Z</time>
      </trkpt>
      <trkpt lat="48.09573" lon="7.08625">
        <ele>933.1</ele>
        <time>2021-08-05T12:47:41Z</time>
      </trkpt>
      <trkpt lat="48.0957" lon="7.08622">
        <ele>933.1</ele>
        <time>2021-08-05T12:47:43Z</time>
      </trkpt>
      <trkpt lat="48.09568" lon="7.0862">
        <ele>933.2</ele>
        <time>2021-08-05T12:47:44Z</time>
      </trkpt>
      <trkpt lat="48.09566" lon="7.08619">
        <ele>933.2</ele>
        <time>2021-08-05T12:47:46Z</time>
      </trkpt>
      <trkpt lat="48.09565" lon="7.08618">
        <ele>933.2</ele>
        <time>2021-08-05T12:47:47Z</time>
      </trkpt>
      <trkpt lat="48.09462" lon="7.08644">
        <ele>916.8</ele>
        <time>2021-08-05T12:48:17Z</time>
      </trkpt>
      <trkpt lat="48.09459" lon="7.08641">
        <ele>916.8</ele>
        <time>2021-08-05T12:48:18Z</time>
      </trkpt>
      <trkpt lat="48.09456" lon="7.08638">
        <ele>916.8</ele>
        <time>2021-08-05T12:48:20Z</time>
      </trkpt>
      <trkpt lat="48.09454" lon="7.08635">
        <ele>916.8</ele>
        <time>2021-08-05T12:48:21Z</time>
      </trkpt>
      <trkpt lat="48.09452" lon="7.08627">
        <ele>916.9</ele>
        <time>2021-08-05T12:48:23Z</time>
      </trkpt>
      <trkpt lat="48.0945" lon="7.08618">
        <ele>917</ele>
        <time>2021-08-05T12:48:25Z</time>
      </trkpt>
      <trkpt lat="48.09449" lon="7.08612">
        <ele>917</ele>
        <time>2021-08-05T12:48:27Z</time>
      </trkpt>
      <trkpt lat="48.09446" lon="7.08605">
        <ele>917.1</ele>
        <time>2021-08-05T12:48:29Z</time>
      </trkpt>
      <trkpt lat="48.0944" lon="7.08597">
        <ele>917.3</ele>
        <time>2021-08-05T12:48:32Z</time>
      </trkpt>
      <trkpt lat="48.09436" lon="7.0859">
        <ele>917.4</ele>
        <time>2021-08-05T12:48:33Z</time>
      </trkpt>
      <trkpt lat="48.09436" lon="7.08588">
        <ele>917.4</ele>
        <time>2021-08-05T12:48:34Z</time>
      </trkpt>
      <trkpt lat="48.0943" lon="7.08579">
        <ele>917.6</ele>
        <time>2021-08-05T12:48:36Z</time>
      </trkpt>
      <trkpt lat="48.09427" lon="7.08576">
        <ele>917.6</ele>
        <time>2021-08-05T12:48:37Z</time>
      </trkpt>
      <trkpt lat="48.09424" lon="7.08575">
        <ele>917.7</ele>
        <time>2021-08-05T12:48:38Z</time>
      </trkpt>
      <trkpt lat="48.09417" lon="7.08569">
        <ele>917.8</ele>
        <time>2021-08-05T12:48:40Z</time>
      </trkpt>
      <trkpt lat="48.09412" lon="7.08566">
        <ele>917.9</ele>
        <time>2021-08-05T12:48:42Z</time>
      </trkpt>
      <trkpt lat="48.09409" lon="7.08565">
        <ele>918</ele>
        <time>2021-08-05T12:48:44Z</time>
      </trkpt>
      <trkpt lat="48.09406" lon="7.08566">
        <ele>918</ele>
        <time>2021-08-05T12:48:45Z</time>
      </trkpt>
      <trkpt lat="48.09402" lon="7.08567">
        <ele>918.1</ele>
        <time>2021-08-05T12:48:46Z</time>
      </trkpt>
      <trkpt lat="48.09399" lon="7.08569">
        <ele>918.2</ele>
        <time>2021-08-05T12:48:47Z</time>
      </trkpt>
      <trkpt lat="48.09397" lon="7.08568">
        <ele>918.3</ele>
        <time>2021-08-05T12:48:48Z</time>
      </trkpt>
      <trkpt lat="48.09393" lon="7.08569">
        <ele>918.4</ele>
        <time>2021-08-05T12:48:50Z</time>
      </trkpt>
      <trkpt lat="48.09389" lon="7.08567">
        <ele>918.5</ele>
        <time>2021-08-05T12:48:51Z</time>
      </trkpt>
      <trkpt lat="48.09387" lon="7.08566">
        <ele>918.5</ele>
        <time>2021-08-05T12:48:52Z</time>
      </trkpt>
      <trkpt lat="48.09384" lon="7.0856">
        <ele>918.6</ele>
        <time>2021-08-05T12:48:54Z</time>
      </trkpt>
      <trkpt lat="48.09382" lon="7.08553">
        <ele>918.7</ele>
        <time>2021-08-05T12:48:55Z</time>
      </trkpt>
      <trkpt lat="48.0938" lon="7.08548">
        <ele>918.8</ele>
        <time>2021-08-05T12:48:56Z</time>
      </trkpt>
      <trkpt lat="48.09376" lon="7.08542">
        <ele>918.9</ele>
        <time>2021-08-05T12:48:58Z</time>
      </trkpt>
      <trkpt lat="48.09373" lon="7.08537">
        <ele>919</ele>
        <time>2021-08-05T12:48:59Z</time>
      </trkpt>
      <trkpt lat="48.09369" lon="7.08531">
        <ele>919.1</ele>
        <time>2021-08-05T12:49:00Z</time>
      </trkpt>
      <trkpt lat="48.09367" lon="7.08528">
        <ele>919.2</ele>
        <time>2021-08-05T12:49:01Z</time>
      </trkpt>
      <trkpt lat="48.09365" lon="7.08525">
        <ele>919.2</ele>
        <time>2021-08-05T12:49:02Z</time>
      </trkpt>
      <trkpt lat="48.09363" lon="7.08521">
        <ele>919.3</ele>
        <time>2021-08-05T12:49:04Z</time>
      </trkpt>
      <trkpt lat="48.09361" lon="7.08516">
        <ele>919.3</ele>
        <time>2021-08-05T12:49:05Z</time>
      </trkpt>
      <trkpt lat="48.09359" lon="7.08507">
        <ele>919.4</ele>
        <time>2021-08-05T12:49:06Z</time>
      </trkpt>
      <trkpt lat="48.09356" lon="7.08498">
        <ele>919.5</ele>
        <time>2021-08-05T12:49:08Z</time>
      </trkpt>
      <trkpt lat="48.09354" lon="7.08489">
        <ele>919.5</ele>
        <time>2021-08-05T12:49:10Z</time>
      </trkpt>
      <trkpt lat="48.09353" lon="7.08482">
        <ele>919.6</ele>
        <time>2021-08-05T12:49:12Z</time>
      </trkpt>
      <trkpt lat="48.09352" lon="7.08476">
        <ele>919.6</ele>
        <time>2021-08-05T12:49:13Z</time>
      </trkpt>
      <trkpt lat="48.09352" lon="7.08471">
        <ele>919.7</ele>
        <time>2021-08-05T12:49:14Z</time>
      </trkpt>
      <trkpt lat="48.09352" lon="7.08465">
        <ele>919.7</ele>
        <time>2021-08-05T12:49:16Z</time>
      </trkpt>
      <trkpt lat="48.09352" lon="7.08457">
        <ele>919.7</ele>
        <time>2021-08-05T12:49:17Z</time>
      </trkpt>
      <trkpt lat="48.09351" lon="7.08452">
        <ele>919.8</ele>
        <time>2021-08-05T12:49:18Z</time>
      </trkpt>
      <trkpt lat="48.09352" lon="7.08441">
        <ele>919.9</ele>
        <time>2021-08-05T12:49:20Z</time>
      </trkpt>
      <trkpt lat="48.09351" lon="7.08431">
        <ele>920</ele>
        <time>2021-08-05T12:49:22Z</time>
      </trkpt>
      <trkpt lat="48.09347" lon="7.08421">
        <ele>920.1</ele>
        <time>2021-08-05T12:49:24Z</time>
      </trkpt>
      <trkpt lat="48.09346" lon="7.08416">
        <ele>920.1</ele>
        <time>2021-08-05T12:49:25Z</time>
      </trkpt>
      <trkpt lat="48.09346" lon="7.08407">
        <ele>920.3</ele>
        <time>2021-08-05T12:49:27Z</time>
      </trkpt>
      <trkpt lat="48.09346" lon="7.08402">
        <ele>920.3</ele>
        <time>2021-08-05T12:49:28Z</time>
      </trkpt>
      <trkpt lat="48.09347" lon="7.08395">
        <ele>920.4</ele>
        <time>2021-08-05T12:49:30Z</time>
      </trkpt>
      <trkpt lat="48.09349" lon="7.08386">
        <ele>920.5</ele>
        <time>2021-08-05T12:49:31Z</time>
      </trkpt>
      <trkpt lat="48.09349" lon="7.08377">
        <ele>920.6</ele>
        <time>2021-08-05T12:49:33Z</time>
      </trkpt>
      <trkpt lat="48.09349" lon="7.08373">
        <ele>920.6</ele>
        <time>2021-08-05T12:49:34Z</time>
      </trkpt>
      <trkpt lat="48.09348" lon="7.08365">
        <ele>920.7</ele>
        <time>2021-08-05T12:49:36Z</time>
      </trkpt>
      <trkpt lat="48.09347" lon="7.08356">
        <ele>920.8</ele>
        <time>2021-08-05T12:49:38Z</time>
      </trkpt>
      <trkpt lat="48.09347" lon="7.08352">
        <ele>920.8</ele>
        <time>2021-08-05T12:49:39Z</time>
      </trkpt>
      <trkpt lat="48.09347" lon="7.08345">
        <ele>920.9</ele>
        <time>2021-08-05T12:49:40Z</time>
      </trkpt>
      <trkpt lat="48.09346" lon="7.08341">
        <ele>920.9</ele>
        <time>2021-08-05T12:49:41Z</time>
      </trkpt>
      <trkpt lat="48.09345" lon="7.08335">
        <ele>921</ele>
        <time>2021-08-05T12:49:43Z</time>
      </trkpt>
      <trkpt lat="48.09343" lon="7.08332">
        <ele>921</ele>
        <time>2021-08-05T12:49:44Z</time>
      </trkpt>
      <trkpt lat="48.09342" lon="7.0833">
        <ele>921</ele>
        <time>2021-08-05T12:49:45Z</time>
      </trkpt>
      <trkpt lat="48.0934" lon="7.08329">
        <ele>921.1</ele>
        <time>2021-08-05T12:49:47Z</time>
      </trkpt>
      <trkpt lat="48.09338" lon="7.08328">
        <ele>921.1</ele>
        <time>2021-08-05T12:49:48Z</time>
      </trkpt>
      <trkpt lat="48.09308" lon="7.08333">
        <ele>921.6</ele>
        <time>2021-08-05T12:49:53Z</time>
      </trkpt>
      <trkpt lat="48.09304" lon="7.08334">
        <ele>921.7</ele>
        <time>2021-08-05T12:49:54Z</time>
      </trkpt>
      <trkpt lat="48.09299" lon="7.08335">
        <ele>921.8</ele>
        <time>2021-08-05T12:49:55Z</time>
      </trkpt>
      <trkpt lat="48.09294" lon="7.08336">
        <ele>922</ele>
        <time>2021-08-05T12:49:56Z</time>
      </trkpt>
      <trkpt lat="48.09288" lon="7.08338">
        <ele>922.1</ele>
        <time>2021-08-05T12:49:57Z</time>
      </trkpt>
      <trkpt lat="48.09281" lon="7.08338">
        <ele>922.3</ele>
        <time>2021-08-05T12:49:59Z</time>
      </trkpt>
      <trkpt lat="48.0928" lon="7.08338">
        <ele>922.3</ele>
        <time>2021-08-05T12:50:00Z</time>
      </trkpt>
      <trkpt lat="48.09282" lon="7.08336">
        <ele>922.4</ele>
        <time>2021-08-05T12:50:02Z</time>
      </trkpt>
      <trkpt lat="48.09282" lon="7.08336">
        <ele>922.4</ele>
        <time>2021-08-05T12:50:03Z</time>
      </trkpt>
      <trkpt lat="48.09281" lon="7.08336">
        <ele>922.5</ele>
        <time>2021-08-05T12:50:04Z</time>
      </trkpt>
      <trkpt lat="48.09279" lon="7.08338">
        <ele>922.6</ele>
        <time>2021-08-05T12:50:05Z</time>
      </trkpt>
      <trkpt lat="48.09276" lon="7.08339">
        <ele>922.7</ele>
        <time>2021-08-05T12:50:06Z</time>
      </trkpt>
      <trkpt lat="48.09273" lon="7.08339">
        <ele>922.8</ele>
        <time>2021-08-05T12:50:07Z</time>
      </trkpt>
      <trkpt lat="48.09272" lon="7.08339">
        <ele>922.9</ele>
        <time>2021-08-05T12:50:08Z</time>
      </trkpt>
      <trkpt lat="48.09271" lon="7.08334">
        <ele>923</ele>
        <time>2021-08-05T12:50:10Z</time>
      </trkpt>
      <trkpt lat="48.09271" lon="7.08334">
        <ele>923</ele>
        <time>2021-08-05T12:50:12Z</time>
      </trkpt>
      <trkpt lat="48.09269" lon="7.08335">
        <ele>923.1</ele>
        <time>2021-08-05T12:50:13Z</time>
      </trkpt>
      <trkpt lat="48.09269" lon="7.08337">
        <ele>923.2</ele>
        <time>2021-08-05T12:50:15Z</time>
      </trkpt>
      <trkpt lat="48.09268" lon="7.08339">
        <ele>923.3</ele>
        <time>2021-08-05T12:50:16Z</time>
      </trkpt>
      <trkpt lat="48.09267" lon="7.08341">
        <ele>923.3</ele>
        <time>2021-08-05T12:50:17Z</time>
      </trkpt>
      <trkpt lat="48.09265" lon="7.08342">
        <ele>923.4</ele>
        <time>2021-08-05T12:50:19Z</time>
      </trkpt>
      <trkpt lat="48.09264" lon="7.08343">
        <ele>923.5</ele>
        <time>2021-08-05T12:50:20Z</time>
      </trkpt>
      <trkpt lat="48.09263" lon="7.08345">
        <ele>923.6</ele>
        <time>2021-08-05T12:50:21Z</time>
      </trkpt>
      <trkpt lat="48.09263" lon="7.08348">
        <ele>923.6</ele>
        <time>2021-08-05T12:50:22Z</time>
      </trkpt>
      <trkpt lat="48.09264" lon="7.08352">
        <ele>923.8</ele>
        <time>2021-08-05T12:50:24Z</time>
      </trkpt>
      <trkpt lat="48.09266" lon="7.08352">
        <ele>923.9</ele>
        <time>2021-08-05T12:50:25Z</time>
      </trkpt>
      <trkpt lat="48.0926" lon="7.08355">
        <ele>924.2</ele>
        <time>2021-08-05T12:50:27Z</time>
      </trkpt>
      <trkpt lat="48.09256" lon="7.08356">
        <ele>924.4</ele>
        <time>2021-08-05T12:50:28Z</time>
      </trkpt>
      <trkpt lat="48.09251" lon="7.08358">
        <ele>924.7</ele>
        <time>2021-08-05T12:50:30Z</time>
      </trkpt>
      <trkpt lat="48.09248" lon="7.0836">
        <ele>924.9</ele>
        <time>2021-08-05T12:50:32Z</time>
      </trkpt>
      <trkpt lat="48.09244" lon="7.08362">
        <ele>925.1</ele>
        <time>2021-08-05T12:50:34Z</time>
      </trkpt>
      <trkpt lat="48.0924" lon="7.08363">
        <ele>925.4</ele>
        <time>2021-08-05T12:50:36Z</time>
      </trkpt>
      <trkpt lat="48.0924" lon="7.08363">
        <ele>925.4</ele>
        <time>2021-08-05T12:50:38Z</time>
      </trkpt>
      <trkpt lat="48.09239" lon="7.08363">
        <ele>925.5</ele>
        <time>2021-08-05T12:50:39Z</time>
      </trkpt>
      <trkpt lat="48.09237" lon="7.08364">
        <ele>925.6</ele>
        <time>2021-08-05T12:50:40Z</time>
      </trkpt>
      <trkpt lat="48.09234" lon="7.08367">
        <ele>925.8</ele>
        <time>2021-08-05T12:50:42Z</time>
      </trkpt>
      <trkpt lat="48.0923" lon="7.0837">
        <ele>926.1</ele>
        <time>2021-08-05T12:50:43Z</time>
      </trkpt>
      <trkpt lat="48.09226" lon="7.08372">
        <ele>926.3</ele>
        <time>2021-08-05T12:50:45Z</time>
      </trkpt>
      <trkpt lat="48.09223" lon="7.08374">
        <ele>926.5</ele>
        <time>2021-08-05T12:50:46Z</time>
      </trkpt>
      <trkpt lat="48.09219" lon="7.08376">
        <ele>926.8</ele>
        <time>2021-08-05T12:50:47Z</time>
      </trkpt>
      <trkpt lat="48.09215" lon="7.08379">
        <ele>927</ele>
        <time>2021-08-05T12:50:49Z</time>
      </trkpt>
      <trkpt lat="48.09211" lon="7.08381">
        <ele>927.3</ele>
        <time>2021-08-05T12:50:50Z</time>
      </trkpt>
      <trkpt lat="48.0921" lon="7.08382">
        <ele>927.4</ele>
        <time>2021-08-05T12:50:51Z</time>
      </trkpt>
      <trkpt lat="48.09208" lon="7.08383">
        <ele>927.5</ele>
        <time>2021-08-05T12:50:52Z</time>
      </trkpt>
      <trkpt lat="48.09204" lon="7.08385">
        <ele>927.7</ele>
        <time>2021-08-05T12:50:54Z</time>
      </trkpt>
      <trkpt lat="48.092" lon="7.08387">
        <ele>928</ele>
        <time>2021-08-05T12:50:55Z</time>
      </trkpt>
      <trkpt lat="48.09197" lon="7.08392">
        <ele>928.2</ele>
        <time>2021-08-05T12:50:57Z</time>
      </trkpt>
      <trkpt lat="48.09197" lon="7.08393">
        <ele>928.3</ele>
        <time>2021-08-05T12:50:58Z</time>
      </trkpt>
      <trkpt lat="48.09198" lon="7.08395">
        <ele>928.3</ele>
        <time>2021-08-05T12:50:59Z</time>
      </trkpt>
      <trkpt lat="48.09197" lon="7.08397">
        <ele>928.4</ele>
        <time>2021-08-05T12:51:01Z</time>
      </trkpt>
      <trkpt lat="48.09196" lon="7.08398">
        <ele>928.5</ele>
        <time>2021-08-05T12:51:02Z</time>
      </trkpt>
      <trkpt lat="48.09196" lon="7.084">
        <ele>928.6</ele>
        <time>2021-08-05T12:51:03Z</time>
      </trkpt>
      <trkpt lat="48.09191" lon="7.08405">
        <ele>928.9</ele>
        <time>2021-08-05T12:51:05Z</time>
      </trkpt>
      <trkpt lat="48.09187" lon="7.08406">
        <ele>929.1</ele>
        <time>2021-08-05T12:51:07Z</time>
      </trkpt>
      <trkpt lat="48.09185" lon="7.08406">
        <ele>929.2</ele>
        <time>2021-08-05T12:51:08Z</time>
      </trkpt>
      <trkpt lat="48.09184" lon="7.08406">
        <ele>929.3</ele>
        <time>2021-08-05T12:51:09Z</time>
      </trkpt>
      <trkpt lat="48.09179" lon="7.08406">
        <ele>929.6</ele>
        <time>2021-08-05T12:51:11Z</time>
      </trkpt>
      <trkpt lat="48.09174" lon="7.08408">
        <ele>929.9</ele>
        <time>2021-08-05T12:51:13Z</time>
      </trkpt>
      <trkpt lat="48.09169" lon="7.08409">
        <ele>930.2</ele>
        <time>2021-08-05T12:51:14Z</time>
      </trkpt>
      <trkpt lat="48.09164" lon="7.0841">
        <ele>930.5</ele>
        <time>2021-08-05T12:51:15Z</time>
      </trkpt>
      <trkpt lat="48.0916" lon="7.08411">
        <ele>930.8</ele>
        <time>2021-08-05T12:51:16Z</time>
      </trkpt>
      <trkpt lat="48.09156" lon="7.08413">
        <ele>931</ele>
        <time>2021-08-05T12:51:17Z</time>
      </trkpt>
      <trkpt lat="48.09153" lon="7.08414">
        <ele>931.2</ele>
        <time>2021-08-05T12:51:18Z</time>
      </trkpt>
      <trkpt lat="48.0915" lon="7.08416">
        <ele>931.3</ele>
        <time>2021-08-05T12:51:19Z</time>
      </trkpt>
      <trkpt lat="48.09148" lon="7.08418">
        <ele>931.4</ele>
        <time>2021-08-05T12:51:20Z</time>
      </trkpt>
      <trkpt lat="48.09147" lon="7.08419">
        <ele>931.5</ele>
        <time>2021-08-05T12:51:22Z</time>
      </trkpt>
      <trkpt lat="48.09146" lon="7.0842">
        <ele>931.6</ele>
        <time>2021-08-05T12:51:23Z</time>
      </trkpt>
      <trkpt lat="48.09149" lon="7.08422">
        <ele>931.7</ele>
        <time>2021-08-05T12:51:24Z</time>
      </trkpt>
      <trkpt lat="48.0915" lon="7.08424">
        <ele>931.8</ele>
        <time>2021-08-05T12:51:26Z</time>
      </trkpt>
      <trkpt lat="48.0915" lon="7.08425">
        <ele>931.8</ele>
        <time>2021-08-05T12:51:27Z</time>
      </trkpt>
      <trkpt lat="48.0915" lon="7.08426">
        <ele>931.9</ele>
        <time>2021-08-05T12:51:28Z</time>
      </trkpt>
      <trkpt lat="48.0915" lon="7.08428">
        <ele>931.9</ele>
        <time>2021-08-05T12:51:30Z</time>
      </trkpt>
      <trkpt lat="48.0915" lon="7.08429">
        <ele>932</ele>
        <time>2021-08-05T12:51:31Z</time>
      </trkpt>
      <trkpt lat="48.09149" lon="7.08431">
        <ele>932.1</ele>
        <time>2021-08-05T12:51:32Z</time>
      </trkpt>
      <trkpt lat="48.08986" lon="7.0845">
        <ele>940.8</ele>
        <time>2021-08-05T12:53:14Z</time>
      </trkpt>
      <trkpt lat="48.0898" lon="7.0845">
        <ele>941</ele>
        <time>2021-08-05T12:53:16Z</time>
      </trkpt>
      <trkpt lat="48.08977" lon="7.0845">
        <ele>941.1</ele>
        <time>2021-08-05T12:53:17Z</time>
      </trkpt>
      <trkpt lat="48.08975" lon="7.08449">
        <ele>941.2</ele>
        <time>2021-08-05T12:53:19Z</time>
      </trkpt>
      <trkpt lat="48.08973" lon="7.08448">
        <ele>941.3</ele>
        <time>2021-08-05T12:53:21Z</time>
      </trkpt>
      <trkpt lat="48.08973" lon="7.08448">
        <ele>941.3</ele>
        <time>2021-08-05T12:53:22Z</time>
      </trkpt>
      <trkpt lat="48.08972" lon="7.08448">
        <ele>941.4</ele>
        <time>2021-08-05T12:53:23Z</time>
      </trkpt>
      <trkpt lat="48.08972" lon="7.08448">
        <ele>941.4</ele>
        <time>2021-08-05T12:53:25Z</time>
      </trkpt>
      <trkpt lat="48.08971" lon="7.08448">
        <ele>941.4</ele>
        <time>2021-08-05T12:53:26Z</time>
      </trkpt>
      <trkpt lat="48.0897" lon="7.08446">
        <ele>941.5</ele>
        <time>2021-08-05T12:53:28Z</time>
      </trkpt>
      <trkpt lat="48.08896" lon="7.08393">
        <ele>946.9</ele>
        <time>2021-08-05T12:54:57Z</time>
      </trkpt>
      <trkpt lat="48.08894" lon="7.08392">
        <ele>947.1</ele>
        <time>2021-08-05T12:54:58Z</time>
      </trkpt>
      <trkpt lat="48.08892" lon="7.08393">
        <ele>947.2</ele>
        <time>2021-08-05T12:54:59Z</time>
      </trkpt>
      <trkpt lat="48.08889" lon="7.08393">
        <ele>947.4</ele>
        <time>2021-08-05T12:55:00Z</time>
      </trkpt>
      <trkpt lat="48.08888" lon="7.08393">
        <ele>947.5</ele>
        <time>2021-08-05T12:55:01Z</time>
      </trkpt>
      <trkpt lat="48.08884" lon="7.0839">
        <ele>947.7</ele>
        <time>2021-08-05T12:55:03Z</time>
      </trkpt>
      <trkpt lat="48.08884" lon="7.08389">
        <ele>947.8</ele>
        <time>2021-08-05T12:55:04Z</time>
      </trkpt>
      <trkpt lat="48.08884" lon="7.08387">
        <ele>947.8</ele>
        <time>2021-08-05T12:55:05Z</time>
      </trkpt>
      <trkpt lat="48.08884" lon="7.08386">
        <ele>947.9</ele>
        <time>2021-08-05T12:55:06Z</time>
      </trkpt>
      <trkpt lat="48.08885" lon="7.08384">
        <ele>948</ele>
        <time>2021-08-05T12:55:07Z</time>
      </trkpt>
      <trkpt lat="48.08885" lon="7.0838">
        <ele>948.1</ele>
        <time>2021-08-05T12:55:08Z</time>
      </trkpt>
      <trkpt lat="48.08884" lon="7.08376">
        <ele>948.3</ele>
        <time>2021-08-05T12:55:09Z</time>
      </trkpt>
      <trkpt lat="48.08884" lon="7.08373">
        <ele>948.4</ele>
        <time>2021-08-05T12:55:11Z</time>
      </trkpt>
      <trkpt lat="48.08884" lon="7.08368">
        <ele>948.7</ele>
        <time>2021-08-05T12:55:13Z</time>
      </trkpt>
      <trkpt lat="48.08882" lon="7.08363">
        <ele>948.9</ele>
        <time>2021-08-05T12:55:14Z</time>
      </trkpt>
      <trkpt lat="48.08881" lon="7.08361">
        <ele>949</ele>
        <time>2021-08-05T12:55:15Z</time>
      </trkpt>
      <trkpt lat="48.08881" lon="7.08359">
        <ele>949.1</ele>
        <time>2021-08-05T12:55:16Z</time>
      </trkpt>
      <trkpt lat="48.08881" lon="7.08359">
        <ele>949.1</ele>
        <time>2021-08-05T12:55:17Z</time>
      </trkpt>
      <trkpt lat="48.0888" lon="7.08358">
        <ele>949.1</ele>
        <time>2021-08-05T12:55:19Z</time>
      </trkpt>
      <trkpt lat="48.0888" lon="7.08357">
        <ele>949.2</ele>
        <time>2021-08-05T12:55:20Z</time>
      </trkpt>
      <trkpt lat="48.0888" lon="7.08356">
        <ele>949.2</ele>
        <time>2021-08-05T12:55:21Z</time>
      </trkpt>
      <trkpt lat="48.08879" lon="7.08349">
        <ele>949.5</ele>
        <time>2021-08-05T12:55:23Z</time>
      </trkpt>
      <trkpt lat="48.08879" lon="7.08347">
        <ele>949.6</ele>
        <time>2021-08-05T12:55:24Z</time>
      </trkpt>
      <trkpt lat="48.08878" lon="7.08346">
        <ele>949.7</ele>
        <time>2021-08-05T12:55:25Z</time>
      </trkpt>
      <trkpt lat="48.08877" lon="7.08342">
        <ele>949.9</ele>
        <time>2021-08-05T12:55:26Z</time>
      </trkpt>
      <trkpt lat="48.08877" lon="7.08341">
        <ele>949.9</ele>
        <time>2021-08-05T12:55:27Z</time>
      </trkpt>
      <trkpt lat="48.08877" lon="7.08339">
        <ele>950</ele>
        <time>2021-08-05T12:55:28Z</time>
      </trkpt>
      <trkpt lat="48.08878" lon="7.08337">
        <ele>950.1</ele>
        <time>2021-08-05T12:55:29Z</time>
      </trkpt>
      <trkpt lat="48.08878" lon="7.08332">
        <ele>950.3</ele>
        <time>2021-08-05T12:55:31Z</time>
      </trkpt>
      <trkpt lat="48.08878" lon="7.0833">
        <ele>950.4</ele>
        <time>2021-08-05T12:55:32Z</time>
      </trkpt>
      <trkpt lat="48.08879" lon="7.08326">
        <ele>950.6</ele>
        <time>2021-08-05T12:55:33Z</time>
      </trkpt>
      <trkpt lat="48.08879" lon="7.08321">
        <ele>950.8</ele>
        <time>2021-08-05T12:55:35Z</time>
      </trkpt>
      <trkpt lat="48.0888" lon="7.08318">
        <ele>950.9</ele>
        <time>2021-08-05T12:55:36Z</time>
      </trkpt>
      <trkpt lat="48.0888" lon="7.08316">
        <ele>951</ele>
        <time>2021-08-05T12:55:38Z</time>
      </trkpt>
      <trkpt lat="48.0888" lon="7.08315">
        <ele>951.1</ele>
        <time>2021-08-05T12:55:39Z</time>
      </trkpt>
      <trkpt lat="48.0888" lon="7.08314">
        <ele>951.1</ele>
        <time>2021-08-05T12:55:40Z</time>
      </trkpt>
      <trkpt lat="48.08879" lon="7.08311">
        <ele>951.3</ele>
        <time>2021-08-05T12:55:41Z</time>
      </trkpt>
      <trkpt lat="48.08879" lon="7.08307">
        <ele>951.4</ele>
        <time>2021-08-05T12:55:42Z</time>
      </trkpt>
      <trkpt lat="48.08878" lon="7.08306">
        <ele>951.5</ele>
        <time>2021-08-05T12:55:43Z</time>
      </trkpt>
      <trkpt lat="48.08877" lon="7.08302">
        <ele>951.6</ele>
        <time>2021-08-05T12:55:45Z</time>
      </trkpt>
      <trkpt lat="48.08876" lon="7.083">
        <ele>951.8</ele>
        <time>2021-08-05T12:55:47Z</time>
      </trkpt>
      <trkpt lat="48.08876" lon="7.08299">
        <ele>951.8</ele>
        <time>2021-08-05T12:55:48Z</time>
      </trkpt>
      <trkpt lat="48.08876" lon="7.08298">
        <ele>951.8</ele>
        <time>2021-08-05T12:55:49Z</time>
      </trkpt>
      <trkpt lat="48.08876" lon="7.08297">
        <ele>951.9</ele>
        <time>2021-08-05T12:55:50Z</time>
      </trkpt>
      <trkpt lat="48.08876" lon="7.08297">
        <ele>951.9</ele>
        <time>2021-08-05T12:55:51Z</time>
      </trkpt>
      <trkpt lat="48.08876" lon="7.08297">
        <ele>951.9</ele>
        <time>2021-08-05T12:55:53Z</time>
      </trkpt>
      <trkpt lat="48.08876" lon="7.08297">
        <ele>951.9</ele>
        <time>2021-08-05T12:55:54Z</time>
      </trkpt>
      <trkpt lat="48.08875" lon="7.08294">
        <ele>952</ele>
        <time>2021-08-05T12:55:55Z</time>
      </trkpt>
      <trkpt lat="48.08875" lon="7.08292">
        <ele>952.1</ele>
        <time>2021-08-05T12:55:57Z</time>
      </trkpt>
      <trkpt lat="48.08872" lon="7.08285">
        <ele>952.4</ele>
        <time>2021-08-05T12:55:59Z</time>
      </trkpt>
      <trkpt lat="48.08871" lon="7.08279">
        <ele>952.7</ele>
        <time>2021-08-05T12:56:01Z</time>
      </trkpt>
      <trkpt lat="48.0887" lon="7.08277">
        <ele>952.7</ele>
        <time>2021-08-05T12:56:02Z</time>
      </trkpt>
      <trkpt lat="48.0887" lon="7.08272">
        <ele>953</ele>
        <time>2021-08-05T12:56:03Z</time>
      </trkpt>
      <trkpt lat="48.08869" lon="7.08267">
        <ele>953.2</ele>
        <time>2021-08-05T12:56:05Z</time>
      </trkpt>
      <trkpt lat="48.08868" lon="7.0826">
        <ele>953.5</ele>
        <time>2021-08-05T12:56:07Z</time>
      </trkpt>
      <trkpt lat="48.08865" lon="7.08251">
        <ele>953.8</ele>
        <time>2021-08-05T12:56:09Z</time>
      </trkpt>
      <trkpt lat="48.08863" lon="7.08246">
        <ele>954.1</ele>
        <time>2021-08-05T12:56:10Z</time>
      </trkpt>
      <trkpt lat="48.08861" lon="7.08244">
        <ele>954.2</ele>
        <time>2021-08-05T12:56:12Z</time>
      </trkpt>
      <trkpt lat="48.08861" lon="7.08243">
        <ele>954.2</ele>
        <time>2021-08-05T12:56:13Z</time>
      </trkpt>
      <trkpt lat="48.0886" lon="7.08242">
        <ele>954.3</ele>
        <time>2021-08-05T12:56:14Z</time>
      </trkpt>
      <trkpt lat="48.08859" lon="7.08241">
        <ele>954.4</ele>
        <time>2021-08-05T12:56:16Z</time>
      </trkpt>
      <trkpt lat="48.08858" lon="7.08241">
        <ele>954.4</ele>
        <time>2021-08-05T12:56:17Z</time>
      </trkpt>
      <trkpt lat="48.08858" lon="7.08241">
        <ele>954.4</ele>
        <time>2021-08-05T12:56:18Z</time>
      </trkpt>
      <trkpt lat="48.08857" lon="7.0824">
        <ele>954.5</ele>
        <time>2021-08-05T12:56:19Z</time>
      </trkpt>
      <trkpt lat="48.08857" lon="7.0824">
        <ele>954.5</ele>
        <time>2021-08-05T12:56:21Z</time>
      </trkpt>
      <trkpt lat="48.08856" lon="7.0824">
        <ele>954.5</ele>
        <time>2021-08-05T12:56:22Z</time>
      </trkpt>
      <trkpt lat="48.08856" lon="7.08239">
        <ele>954.6</ele>
        <time>2021-08-05T12:56:23Z</time>
      </trkpt>
      <trkpt lat="48.08855" lon="7.08239">
        <ele>954.6</ele>
        <time>2021-08-05T12:56:24Z</time>
      </trkpt>
      <trkpt lat="48.08854" lon="7.08239">
        <ele>954.6</ele>
        <time>2021-08-05T12:56:25Z</time>
      </trkpt>
      <trkpt lat="48.08841" lon="7.08227">
        <ele>955.5</ele>
        <time>2021-08-05T12:56:26Z</time>
      </trkpt>
      <trkpt lat="48.08828" lon="7.08217">
        <ele>956.3</ele>
        <time>2021-08-05T12:57:20Z</time>
      </trkpt>
      <trkpt lat="48.08815" lon="7.08207">
        <ele>957.2</ele>
        <time>2021-08-05T12:57:22Z</time>
      </trkpt>
      <trkpt lat="48.08802" lon="7.08197">
        <ele>958.1</ele>
        <time>2021-08-05T12:57:23Z</time>
      </trkpt>
      <trkpt lat="48.08789" lon="7.08187">
        <ele>959.1</ele>
        <time>2021-08-05T12:57:24Z</time>
      </trkpt>
      <trkpt lat="48.08791" lon="7.08183">
        <ele>959.3</ele>
        <time>2021-08-05T12:57:26Z</time>
      </trkpt>
      <trkpt lat="48.08793" lon="7.08178">
        <ele>959.6</ele>
        <time>2021-08-05T12:57:27Z</time>
      </trkpt>
      <trkpt lat="48.08797" lon="7.0817">
        <ele>960</ele>
        <time>2021-08-05T12:57:28Z</time>
      </trkpt>
      <trkpt lat="48.08798" lon="7.08167">
        <ele>960.2</ele>
        <time>2021-08-05T12:57:29Z</time>
      </trkpt>
      <trkpt lat="48.08798" lon="7.08165">
        <ele>960.3</ele>
        <time>2021-08-05T12:57:30Z</time>
      </trkpt>
      <trkpt lat="48.08798" lon="7.08162">
        <ele>960.4</ele>
        <time>2021-08-05T12:57:31Z</time>
      </trkpt>
      <trkpt lat="48.08797" lon="7.08161">
        <ele>960.4</ele>
        <time>2021-08-05T12:57:33Z</time>
      </trkpt>
      <trkpt lat="48.08796" lon="7.0816">
        <ele>960.5</ele>
        <time>2021-08-05T12:57:34Z</time>
      </trkpt>
      <trkpt lat="48.08795" lon="7.08158">
        <ele>960.7</ele>
        <time>2021-08-05T12:57:35Z</time>
      </trkpt>
      <trkpt lat="48.08794" lon="7.08156">
        <ele>960.8</ele>
        <time>2021-08-05T12:57:37Z</time>
      </trkpt>
      <trkpt lat="48.08792" lon="7.08155">
        <ele>960.9</ele>
        <time>2021-08-05T12:57:38Z</time>
      </trkpt>
      <trkpt lat="48.08792" lon="7.08153">
        <ele>960.9</ele>
        <time>2021-08-05T12:57:39Z</time>
      </trkpt>
      <trkpt lat="48.08791" lon="7.08152">
        <ele>961</ele>
        <time>2021-08-05T12:57:41Z</time>
      </trkpt>
      <trkpt lat="48.0879" lon="7.08151">
        <ele>961</ele>
        <time>2021-08-05T12:57:42Z</time>
      </trkpt>
      <trkpt lat="48.08788" lon="7.08144">
        <ele>961.3</ele>
        <time>2021-08-05T12:57:43Z</time>
      </trkpt>
      <trkpt lat="48.08785" lon="7.08138">
        <ele>961.6</ele>
        <time>2021-08-05T12:57:44Z</time>
      </trkpt>
      <trkpt lat="48.08783" lon="7.08132">
        <ele>961.9</ele>
        <time>2021-08-05T12:57:57Z</time>
      </trkpt>
      <trkpt lat="48.08781" lon="7.08126">
        <ele>962.1</ele>
        <time>2021-08-05T12:57:59Z</time>
      </trkpt>
      <trkpt lat="48.08779" lon="7.0812">
        <ele>962.3</ele>
        <time>2021-08-05T12:58:00Z</time>
      </trkpt>
      <trkpt lat="48.08777" lon="7.08114">
        <ele>962.6</ele>
        <time>2021-08-05T12:58:01Z</time>
      </trkpt>
      <trkpt lat="48.08776" lon="7.0811">
        <ele>962.7</ele>
        <time>2021-08-05T12:58:02Z</time>
      </trkpt>
      <trkpt lat="48.08776" lon="7.08109">
        <ele>962.8</ele>
        <time>2021-08-05T12:58:03Z</time>
      </trkpt>
      <trkpt lat="48.08776" lon="7.08108">
        <ele>962.8</ele>
        <time>2021-08-05T12:58:04Z</time>
      </trkpt>
      <trkpt lat="48.08776" lon="7.08108">
        <ele>962.8</ele>
        <time>2021-08-05T12:58:06Z</time>
      </trkpt>
      <trkpt lat="48.08776" lon="7.08108">
        <ele>962.8</ele>
        <time>2021-08-05T12:58:07Z</time>
      </trkpt>
      <trkpt lat="48.08776" lon="7.08108">
        <ele>962.8</ele>
        <time>2021-08-05T12:58:08Z</time>
      </trkpt>
      <trkpt lat="48.08776" lon="7.08108">
        <ele>962.8</ele>
        <time>2021-08-05T12:58:10Z</time>
      </trkpt>
      <trkpt lat="48.08776" lon="7.08106">
        <ele>962.9</ele>
        <time>2021-08-05T12:58:11Z</time>
      </trkpt>
      <trkpt lat="48.08776" lon="7.08104">
        <ele>963</ele>
        <time>2021-08-05T12:58:12Z</time>
      </trkpt>
      <trkpt lat="48.08776" lon="7.08102">
        <ele>963.1</ele>
        <time>2021-08-05T12:58:13Z</time>
      </trkpt>
      <trkpt lat="48.08776" lon="7.08099">
        <ele>963.2</ele>
        <time>2021-08-05T12:58:14Z</time>
      </trkpt>
      <trkpt lat="48.08774" lon="7.08088">
        <ele>963.6</ele>
        <time>2021-08-05T12:58:19Z</time>
      </trkpt>
      <trkpt lat="48.08774" lon="7.08084">
        <ele>963.8</ele>
        <time>2021-08-05T12:58:20Z</time>
      </trkpt>
      <trkpt lat="48.08773" lon="7.0808">
        <ele>964</ele>
        <time>2021-08-05T12:58:21Z</time>
      </trkpt>
      <trkpt lat="48.08772" lon="7.08075">
        <ele>964.2</ele>
        <time>2021-08-05T12:58:23Z</time>
      </trkpt>
      <trkpt lat="48.08772" lon="7.08073">
        <ele>964.4</ele>
        <time>2021-08-05T12:58:24Z</time>
      </trkpt>
      <trkpt lat="48.08772" lon="7.08069">
        <ele>964.6</ele>
        <time>2021-08-05T12:58:26Z</time>
      </trkpt>
      <trkpt lat="48.08773" lon="7.08065">
        <ele>964.8</ele>
        <time>2021-08-05T12:58:27Z</time>
      </trkpt>
      <trkpt lat="48.08774" lon="7.08063">
        <ele>964.9</ele>
        <time>2021-08-05T12:58:28Z</time>
      </trkpt>
      <trkpt lat="48.08776" lon="7.08062">
        <ele>965</ele>
        <time>2021-08-05T12:58:30Z</time>
      </trkpt>
      <trkpt lat="48.08777" lon="7.0806">
        <ele>965.1</ele>
        <time>2021-08-05T12:58:31Z</time>
      </trkpt>
      <trkpt lat="48.08778" lon="7.0806">
        <ele>965.1</ele>
        <time>2021-08-05T12:58:32Z</time>
      </trkpt>
      <trkpt lat="48.08778" lon="7.0806">
        <ele>965.2</ele>
        <time>2021-08-05T12:58:33Z</time>
      </trkpt>
      <trkpt lat="48.08779" lon="7.08059">
        <ele>965.2</ele>
        <time>2021-08-05T12:58:34Z</time>
      </trkpt>
      <trkpt lat="48.08779" lon="7.08056">
        <ele>965.3</ele>
        <time>2021-08-05T12:58:35Z</time>
      </trkpt>
      <trkpt lat="48.0878" lon="7.08055">
        <ele>965.4</ele>
        <time>2021-08-05T12:58:37Z</time>
      </trkpt>
      <trkpt lat="48.08781" lon="7.0805">
        <ele>965.6</ele>
        <time>2021-08-05T12:58:38Z</time>
      </trkpt>
      <trkpt lat="48.08781" lon="7.08049">
        <ele>965.7</ele>
        <time>2021-08-05T12:58:39Z</time>
      </trkpt>
      <trkpt lat="48.08781" lon="7.08046">
        <ele>965.8</ele>
        <time>2021-08-05T12:58:40Z</time>
      </trkpt>
      <trkpt lat="48.08782" lon="7.08044">
        <ele>965.9</ele>
        <time>2021-08-05T12:58:42Z</time>
      </trkpt>
      <trkpt lat="48.08782" lon="7.08042">
        <ele>965.9</ele>
        <time>2021-08-05T12:58:43Z</time>
      </trkpt>
      <trkpt lat="48.08782" lon="7.0804">
        <ele>966</ele>
        <time>2021-08-05T12:58:44Z</time>
      </trkpt>
      <trkpt lat="48.08783" lon="7.08036">
        <ele>966.2</ele>
        <time>2021-08-05T12:58:46Z</time>
      </trkpt>
      <trkpt lat="48.08783" lon="7.08035">
        <ele>966.2</ele>
        <time>2021-08-05T12:58:47Z</time>
      </trkpt>
      <trkpt lat="48.08783" lon="7.08035">
        <ele>966.3</ele>
        <time>2021-08-05T12:58:48Z</time>
      </trkpt>
      <trkpt lat="48.08783" lon="7.08034">
        <ele>966.3</ele>
        <time>2021-08-05T12:58:49Z</time>
      </trkpt>
      <trkpt lat="48.08785" lon="7.08032">
        <ele>966.4</ele>
        <time>2021-08-05T12:58:51Z</time>
      </trkpt>
      <trkpt lat="48.08785" lon="7.08031">
        <ele>966.5</ele>
        <time>2021-08-05T12:58:52Z</time>
      </trkpt>
      <trkpt lat="48.08786" lon="7.08032">
        <ele>966.5</ele>
        <time>2021-08-05T12:58:53Z</time>
      </trkpt>
      <trkpt lat="48.08786" lon="7.08031">
        <ele>966.6</ele>
        <time>2021-08-05T12:58:54Z</time>
      </trkpt>
      <trkpt lat="48.08787" lon="7.08031">
        <ele>966.6</ele>
        <time>2021-08-05T12:58:55Z</time>
      </trkpt>
      <trkpt lat="48.08788" lon="7.08031">
        <ele>966.7</ele>
        <time>2021-08-05T12:58:57Z</time>
      </trkpt>
      <trkpt lat="48.08788" lon="7.0803">
        <ele>966.7</ele>
        <time>2021-08-05T12:58:58Z</time>
      </trkpt>
      <trkpt lat="48.08789" lon="7.08028">
        <ele>966.8</ele>
        <time>2021-08-05T12:58:59Z</time>
      </trkpt>
      <trkpt lat="48.0879" lon="7.08025">
        <ele>967</ele>
        <time>2021-08-05T12:59:00Z</time>
      </trkpt>
      <trkpt lat="48.08791" lon="7.08024">
        <ele>967.1</ele>
        <time>2021-08-05T12:59:01Z</time>
      </trkpt>
      <trkpt lat="48.0879" lon="7.08021">
        <ele>967.2</ele>
        <time>2021-08-05T12:59:03Z</time>
      </trkpt>
      <trkpt lat="48.0879" lon="7.0802">
        <ele>967.2</ele>
        <time>2021-08-05T12:59:04Z</time>
      </trkpt>
      <trkpt lat="48.0879" lon="7.08019">
        <ele>967.3</ele>
        <time>2021-08-05T12:59:05Z</time>
      </trkpt>
      <trkpt lat="48.0879" lon="7.08018">
        <ele>967.3</ele>
        <time>2021-08-05T12:59:06Z</time>
      </trkpt>
      <trkpt lat="48.0879" lon="7.08016">
        <ele>967.4</ele>
        <time>2021-08-05T12:59:07Z</time>
      </trkpt>
      <trkpt lat="48.08791" lon="7.08013">
        <ele>967.6</ele>
        <time>2021-08-05T12:59:09Z</time>
      </trkpt>
      <trkpt lat="48.08793" lon="7.0801">
        <ele>967.8</ele>
        <time>2021-08-05T12:59:11Z</time>
      </trkpt>
      <trkpt lat="48.08794" lon="7.08009">
        <ele>967.9</ele>
        <time>2021-08-05T12:59:12Z</time>
      </trkpt>
      <trkpt lat="48.08794" lon="7.08007">
        <ele>968</ele>
        <time>2021-08-05T12:59:13Z</time>
      </trkpt>
      <trkpt lat="48.08795" lon="7.08005">
        <ele>968.1</ele>
        <time>2021-08-05T12:59:15Z</time>
      </trkpt>
      <trkpt lat="48.08794" lon="7.08002">
        <ele>968.2</ele>
        <time>2021-08-05T12:59:16Z</time>
      </trkpt>
      <trkpt lat="48.08793" lon="7.08001">
        <ele>968.3</ele>
        <time>2021-08-05T12:59:17Z</time>
      </trkpt>
      <trkpt lat="48.08792" lon="7.07999">
        <ele>968.4</ele>
        <time>2021-08-05T12:59:19Z</time>
      </trkpt>
      <trkpt lat="48.08793" lon="7.07995">
        <ele>968.6</ele>
        <time>2021-08-05T12:59:21Z</time>
      </trkpt>
      <trkpt lat="48.08793" lon="7.07995">
        <ele>968.6</ele>
        <time>2021-08-05T12:59:21Z</time>
      </trkpt>
      <trkpt lat="48.08795" lon="7.0799">
        <ele>968.8</ele>
        <time>2021-08-05T12:59:22Z</time>
      </trkpt>
      <trkpt lat="48.08795" lon="7.07988">
        <ele>968.9</ele>
        <time>2021-08-05T12:59:23Z</time>
      </trkpt>
      <trkpt lat="48.08797" lon="7.07983">
        <ele>969.2</ele>
        <time>2021-08-05T12:59:25Z</time>
      </trkpt>
      <trkpt lat="48.08799" lon="7.07977">
        <ele>969.5</ele>
        <time>2021-08-05T12:59:27Z</time>
      </trkpt>
      <trkpt lat="48.08801" lon="7.07972">
        <ele>969.7</ele>
        <time>2021-08-05T12:59:28Z</time>
      </trkpt>
      <trkpt lat="48.08801" lon="7.07971">
        <ele>969.8</ele>
        <time>2021-08-05T12:59:29Z</time>
      </trkpt>
      <trkpt lat="48.08803" lon="7.07967">
        <ele>969.9</ele>
        <time>2021-08-05T12:59:30Z</time>
      </trkpt>
      <trkpt lat="48.08805" lon="7.07963">
        <ele>970.2</ele>
        <time>2021-08-05T12:59:32Z</time>
      </trkpt>
      <trkpt lat="48.08806" lon="7.07961">
        <ele>970.3</ele>
        <time>2021-08-05T12:59:33Z</time>
      </trkpt>
      <trkpt lat="48.08807" lon="7.0796">
        <ele>970.4</ele>
        <time>2021-08-05T12:59:34Z</time>
      </trkpt>
      <trkpt lat="48.08807" lon="7.0796">
        <ele>970.4</ele>
        <time>2021-08-05T12:59:35Z</time>
      </trkpt>
      <trkpt lat="48.08808" lon="7.07959">
        <ele>970.4</ele>
        <time>2021-08-05T12:59:37Z</time>
      </trkpt>
      <trkpt lat="48.08808" lon="7.07958">
        <ele>970.5</ele>
        <time>2021-08-05T12:59:39Z</time>
      </trkpt>
      <trkpt lat="48.08808" lon="7.07957">
        <ele>970.5</ele>
        <time>2021-08-05T12:59:40Z</time>
      </trkpt>
      <trkpt lat="48.0881" lon="7.07955">
        <ele>970.7</ele>
        <time>2021-08-05T12:59:41Z</time>
      </trkpt>
      <trkpt lat="48.08812" lon="7.07954">
        <ele>970.8</ele>
        <time>2021-08-05T12:59:43Z</time>
      </trkpt>
      <trkpt lat="48.08814" lon="7.07953">
        <ele>971</ele>
        <time>2021-08-05T12:59:44Z</time>
      </trkpt>
      <trkpt lat="48.08816" lon="7.07951">
        <ele>971.2</ele>
        <time>2021-08-05T12:59:46Z</time>
      </trkpt>
      <trkpt lat="48.08816" lon="7.0795">
        <ele>971.2</ele>
        <time>2021-08-05T12:59:47Z</time>
      </trkpt>
      <trkpt lat="48.08817" lon="7.07948">
        <ele>971.3</ele>
        <time>2021-08-05T12:59:48Z</time>
      </trkpt>
      <trkpt lat="48.08818" lon="7.07944">
        <ele>971.5</ele>
        <time>2021-08-05T12:59:50Z</time>
      </trkpt>
      <trkpt lat="48.08818" lon="7.07944">
        <ele>971.5</ele>
        <time>2021-08-05T12:59:50Z</time>
      </trkpt>
      <trkpt lat="48.08818" lon="7.07942">
        <ele>971.6</ele>
        <time>2021-08-05T12:59:51Z</time>
      </trkpt>
      <trkpt lat="48.08819" lon="7.07941">
        <ele>971.7</ele>
        <time>2021-08-05T12:59:52Z</time>
      </trkpt>
      <trkpt lat="48.08819" lon="7.0794">
        <ele>971.7</ele>
        <time>2021-08-05T12:59:53Z</time>
      </trkpt>
      <trkpt lat="48.0882" lon="7.07939">
        <ele>971.8</ele>
        <time>2021-08-05T12:59:55Z</time>
      </trkpt>
      <trkpt lat="48.0882" lon="7.07938">
        <ele>971.8</ele>
        <time>2021-08-05T12:59:56Z</time>
      </trkpt>
      <trkpt lat="48.0882" lon="7.07936">
        <ele>971.9</ele>
        <time>2021-08-05T12:59:58Z</time>
      </trkpt>
      <trkpt lat="48.0882" lon="7.07935">
        <ele>972</ele>
        <time>2021-08-05T12:59:59Z</time>
      </trkpt>
      <trkpt lat="48.08821" lon="7.07932">
        <ele>972.1</ele>
        <time>2021-08-05T13:00:01Z</time>
      </trkpt>
      <trkpt lat="48.08821" lon="7.07929">
        <ele>972.2</ele>
        <time>2021-08-05T13:00:02Z</time>
      </trkpt>
      <trkpt lat="48.08822" lon="7.07925">
        <ele>972.5</ele>
        <time>2021-08-05T13:00:03Z</time>
      </trkpt>
      <trkpt lat="48.08822" lon="7.07923">
        <ele>972.6</ele>
        <time>2021-08-05T13:00:04Z</time>
      </trkpt>
      <trkpt lat="48.08823" lon="7.07921">
        <ele>972.7</ele>
        <time>2021-08-05T13:00:05Z</time>
      </trkpt>
      <trkpt lat="48.08824" lon="7.07919">
        <ele>972.8</ele>
        <time>2021-08-05T13:00:06Z</time>
      </trkpt>
      <trkpt lat="48.08824" lon="7.07916">
        <ele>972.9</ele>
        <time>2021-08-05T13:00:08Z</time>
      </trkpt>
      <trkpt lat="48.08825" lon="7.07915">
        <ele>973</ele>
        <time>2021-08-05T13:00:09Z</time>
      </trkpt>
      <trkpt lat="48.08824" lon="7.07914">
        <ele>973</ele>
        <time>2021-08-05T13:00:10Z</time>
      </trkpt>
      <trkpt lat="48.08824" lon="7.07913">
        <ele>973.1</ele>
        <time>2021-08-05T13:00:11Z</time>
      </trkpt>
      <trkpt lat="48.08824" lon="7.07912">
        <ele>973.1</ele>
        <time>2021-08-05T13:00:12Z</time>
      </trkpt>
      <trkpt lat="48.08824" lon="7.07911">
        <ele>973.1</ele>
        <time>2021-08-05T13:00:14Z</time>
      </trkpt>
      <trkpt lat="48.08824" lon="7.0791">
        <ele>973.2</ele>
        <time>2021-08-05T13:00:15Z</time>
      </trkpt>
      <trkpt lat="48.08824" lon="7.0791">
        <ele>973.2</ele>
        <time>2021-08-05T13:00:17Z</time>
      </trkpt>
      <trkpt lat="48.08824" lon="7.07909">
        <ele>973.2</ele>
        <time>2021-08-05T13:00:18Z</time>
      </trkpt>
      <trkpt lat="48.08823" lon="7.07908">
        <ele>973.3</ele>
        <time>2021-08-05T13:00:19Z</time>
      </trkpt>
      <trkpt lat="48.08821" lon="7.07905">
        <ele>973.4</ele>
        <time>2021-08-05T13:00:20Z</time>
      </trkpt>
      <trkpt lat="48.0882" lon="7.07904">
        <ele>973.5</ele>
        <time>2021-08-05T13:00:21Z</time>
      </trkpt>
      <trkpt lat="48.0882" lon="7.07902">
        <ele>973.6</ele>
        <time>2021-08-05T13:00:23Z</time>
      </trkpt>
      <trkpt lat="48.0882" lon="7.07899">
        <ele>973.7</ele>
        <time>2021-08-05T13:00:24Z</time>
      </trkpt>
      <trkpt lat="48.08821" lon="7.07893">
        <ele>974</ele>
        <time>2021-08-05T13:00:25Z</time>
      </trkpt>
      <trkpt lat="48.08822" lon="7.07891">
        <ele>974</ele>
        <time>2021-08-05T13:00:26Z</time>
      </trkpt>
      <trkpt lat="48.08822" lon="7.07885">
        <ele>974.3</ele>
        <time>2021-08-05T13:00:28Z</time>
      </trkpt>
      <trkpt lat="48.08823" lon="7.07884">
        <ele>974.4</ele>
        <time>2021-08-05T13:00:29Z</time>
      </trkpt>
      <trkpt lat="48.08823" lon="7.07882">
        <ele>974.4</ele>
        <time>2021-08-05T13:00:30Z</time>
      </trkpt>
      <trkpt lat="48.08824" lon="7.0788">
        <ele>974.5</ele>
        <time>2021-08-05T13:00:31Z</time>
      </trkpt>
      <trkpt lat="48.08826" lon="7.07877">
        <ele>974.7</ele>
        <time>2021-08-05T13:00:33Z</time>
      </trkpt>
      <trkpt lat="48.08827" lon="7.07874">
        <ele>974.8</ele>
        <time>2021-08-05T13:00:34Z</time>
      </trkpt>
      <trkpt lat="48.08827" lon="7.07871">
        <ele>974.9</ele>
        <time>2021-08-05T13:00:36Z</time>
      </trkpt>
      <trkpt lat="48.08827" lon="7.07869">
        <ele>975</ele>
        <time>2021-08-05T13:00:37Z</time>
      </trkpt>
      <trkpt lat="48.08827" lon="7.07866">
        <ele>975.2</ele>
        <time>2021-08-05T13:00:39Z</time>
      </trkpt>
      <trkpt lat="48.08827" lon="7.07864">
        <ele>975.2</ele>
        <time>2021-08-05T13:00:40Z</time>
      </trkpt>
      <trkpt lat="48.08827" lon="7.07863">
        <ele>975.3</ele>
        <time>2021-08-05T13:00:42Z</time>
      </trkpt>
      <trkpt lat="48.08828" lon="7.07863">
        <ele>975.3</ele>
        <time>2021-08-05T13:00:43Z</time>
      </trkpt>
      <trkpt lat="48.08828" lon="7.07862">
        <ele>975.3</ele>
        <time>2021-08-05T13:00:45Z</time>
      </trkpt>
      <trkpt lat="48.08828" lon="7.07861">
        <ele>975.4</ele>
        <time>2021-08-05T13:00:47Z</time>
      </trkpt>
      <trkpt lat="48.08828" lon="7.07861">
        <ele>975.4</ele>
        <time>2021-08-05T13:00:48Z</time>
      </trkpt>
      <trkpt lat="48.08829" lon="7.0786">
        <ele>975.4</ele>
        <time>2021-08-05T13:00:50Z</time>
      </trkpt>
      <trkpt lat="48.08829" lon="7.07858">
        <ele>975.5</ele>
        <time>2021-08-05T13:00:51Z</time>
      </trkpt>
      <trkpt lat="48.0883" lon="7.07856">
        <ele>975.6</ele>
        <time>2021-08-05T13:00:52Z</time>
      </trkpt>
      <trkpt lat="48.08832" lon="7.07851">
        <ele>975.8</ele>
        <time>2021-08-05T13:00:53Z</time>
      </trkpt>
      <trkpt lat="48.08832" lon="7.07849">
        <ele>975.9</ele>
        <time>2021-08-05T13:00:54Z</time>
      </trkpt>
      <trkpt lat="48.08833" lon="7.07846">
        <ele>976.1</ele>
        <time>2021-08-05T13:00:56Z</time>
      </trkpt>
      <trkpt lat="48.08834" lon="7.07844">
        <ele>976.2</ele>
        <time>2021-08-05T13:00:57Z</time>
      </trkpt>
      <trkpt lat="48.08835" lon="7.07842">
        <ele>976.2</ele>
        <time>2021-08-05T13:00:58Z</time>
      </trkpt>
      <trkpt lat="48.08835" lon="7.07841">
        <ele>976.3</ele>
        <time>2021-08-05T13:00:59Z</time>
      </trkpt>
      <trkpt lat="48.08835" lon="7.0784">
        <ele>976.3</ele>
        <time>2021-08-05T13:01:00Z</time>
      </trkpt>
      <trkpt lat="48.08835" lon="7.07839">
        <ele>976.4</ele>
        <time>2021-08-05T13:01:01Z</time>
      </trkpt>
      <trkpt lat="48.08835" lon="7.07839">
        <ele>976.4</ele>
        <time>2021-08-05T13:01:03Z</time>
      </trkpt>
      <trkpt lat="48.08835" lon="7.07838">
        <ele>976.4</ele>
        <time>2021-08-05T13:01:04Z</time>
      </trkpt>
      <trkpt lat="48.08835" lon="7.07838">
        <ele>976.4</ele>
        <time>2021-08-05T13:01:05Z</time>
      </trkpt>
      <trkpt lat="48.08835" lon="7.07838">
        <ele>976.4</ele>
        <time>2021-08-05T13:01:06Z</time>
      </trkpt>
      <trkpt lat="48.08835" lon="7.07838">
        <ele>976.4</ele>
        <time>2021-08-05T13:01:07Z</time>
      </trkpt>
      <trkpt lat="48.08835" lon="7.07837">
        <ele>976.4</ele>
        <time>2021-08-05T13:01:08Z</time>
      </trkpt>
      <trkpt lat="48.08835" lon="7.07836">
        <ele>976.5</ele>
        <time>2021-08-05T13:01:10Z</time>
      </trkpt>
      <trkpt lat="48.08836" lon="7.07833">
        <ele>976.6</ele>
        <time>2021-08-05T13:01:12Z</time>
      </trkpt>
      <trkpt lat="48.08837" lon="7.07828">
        <ele>976.8</ele>
        <time>2021-08-05T13:01:13Z</time>
      </trkpt>
      <trkpt lat="48.08837" lon="7.07827">
        <ele>976.9</ele>
        <time>2021-08-05T13:01:14Z</time>
      </trkpt>
      <trkpt lat="48.08839" lon="7.07822">
        <ele>977.1</ele>
        <time>2021-08-05T13:01:15Z</time>
      </trkpt>
      <trkpt lat="48.0884" lon="7.0782">
        <ele>977.2</ele>
        <time>2021-08-05T13:01:16Z</time>
      </trkpt>
      <trkpt lat="48.0884" lon="7.07819">
        <ele>977.3</ele>
        <time>2021-08-05T13:01:17Z</time>
      </trkpt>
      <trkpt lat="48.08843" lon="7.07817">
        <ele>977.5</ele>
        <time>2021-08-05T13:01:18Z</time>
      </trkpt>
      <trkpt lat="48.08844" lon="7.07816">
        <ele>977.5</ele>
        <time>2021-08-05T13:01:20Z</time>
      </trkpt>
      <trkpt lat="48.08845" lon="7.07815">
        <ele>977.6</ele>
        <time>2021-08-05T13:01:21Z</time>
      </trkpt>
      <trkpt lat="48.08846" lon="7.07814">
        <ele>977.7</ele>
        <time>2021-08-05T13:01:22Z</time>
      </trkpt>
      <trkpt lat="48.08847" lon="7.07813">
        <ele>977.8</ele>
        <time>2021-08-05T13:01:23Z</time>
      </trkpt>
      <trkpt lat="48.08848" lon="7.07811">
        <ele>977.9</ele>
        <time>2021-08-05T13:01:24Z</time>
      </trkpt>
      <trkpt lat="48.0885" lon="7.07811">
        <ele>978</ele>
        <time>2021-08-05T13:01:26Z</time>
      </trkpt>
      <trkpt lat="48.08852" lon="7.07811">
        <ele>978.1</ele>
        <time>2021-08-05T13:01:27Z</time>
      </trkpt>
      <trkpt lat="48.08853" lon="7.07811">
        <ele>978.2</ele>
        <time>2021-08-05T13:01:28Z</time>
      </trkpt>
      <trkpt lat="48.08857" lon="7.07812">
        <ele>978.4</ele>
        <time>2021-08-05T13:01:29Z</time>
      </trkpt>
      <trkpt lat="48.0886" lon="7.07813">
        <ele>978.6</ele>
        <time>2021-08-05T13:01:30Z</time>
      </trkpt>
      <trkpt lat="48.08862" lon="7.07813">
        <ele>978.8</ele>
        <time>2021-08-05T13:01:31Z</time>
      </trkpt>
      <trkpt lat="48.08863" lon="7.07813">
        <ele>978.9</ele>
        <time>2021-08-05T13:01:33Z</time>
      </trkpt>
      <trkpt lat="48.08866" lon="7.07813">
        <ele>979</ele>
        <time>2021-08-05T13:01:34Z</time>
      </trkpt>
      <trkpt lat="48.08868" lon="7.07812">
        <ele>979.2</ele>
        <time>2021-08-05T13:01:35Z</time>
      </trkpt>
      <trkpt lat="48.0887" lon="7.07811">
        <ele>979.3</ele>
        <time>2021-08-05T13:01:36Z</time>
      </trkpt>
      <trkpt lat="48.08873" lon="7.0781">
        <ele>979.5</ele>
        <time>2021-08-05T13:01:37Z</time>
      </trkpt>
      <trkpt lat="48.08874" lon="7.07809">
        <ele>979.6</ele>
        <time>2021-08-05T13:01:38Z</time>
      </trkpt>
      <trkpt lat="48.08876" lon="7.07808">
        <ele>979.7</ele>
        <time>2021-08-05T13:01:40Z</time>
      </trkpt>
      <trkpt lat="48.08877" lon="7.07807">
        <ele>979.8</ele>
        <time>2021-08-05T13:01:41Z</time>
      </trkpt>
      <trkpt lat="48.08879" lon="7.07805">
        <ele>979.9</ele>
        <time>2021-08-05T13:01:42Z</time>
      </trkpt>
      <trkpt lat="48.0888" lon="7.07804">
        <ele>980</ele>
        <time>2021-08-05T13:01:43Z</time>
      </trkpt>
      <trkpt lat="48.08882" lon="7.078">
        <ele>980.3</ele>
        <time>2021-08-05T13:01:45Z</time>
      </trkpt>
      <trkpt lat="48.08883" lon="7.07798">
        <ele>980.3</ele>
        <time>2021-08-05T13:01:46Z</time>
      </trkpt>
      <trkpt lat="48.08883" lon="7.07796">
        <ele>980.4</ele>
        <time>2021-08-05T13:01:47Z</time>
      </trkpt>
      <trkpt lat="48.08883" lon="7.07793">
        <ele>980.6</ele>
        <time>2021-08-05T13:01:49Z</time>
      </trkpt>
      <trkpt lat="48.08883" lon="7.07791">
        <ele>980.7</ele>
        <time>2021-08-05T13:01:50Z</time>
      </trkpt>
      <trkpt lat="48.08883" lon="7.07785">
        <ele>980.9</ele>
        <time>2021-08-05T13:01:52Z</time>
      </trkpt>
      <trkpt lat="48.08883" lon="7.07781">
        <ele>981.2</ele>
        <time>2021-08-05T13:01:53Z</time>
      </trkpt>
      <trkpt lat="48.08884" lon="7.07777">
        <ele>981.3</ele>
        <time>2021-08-05T13:01:54Z</time>
      </trkpt>
      <trkpt lat="48.08884" lon="7.07775">
        <ele>981.4</ele>
        <time>2021-08-05T13:01:55Z</time>
      </trkpt>
      <trkpt lat="48.08886" lon="7.07771">
        <ele>981.6</ele>
        <time>2021-08-05T13:01:57Z</time>
      </trkpt>
      <trkpt lat="48.08887" lon="7.07767">
        <ele>981.8</ele>
        <time>2021-08-05T13:01:58Z</time>
      </trkpt>
      <trkpt lat="48.08887" lon="7.07766">
        <ele>981.9</ele>
        <time>2021-08-05T13:01:59Z</time>
      </trkpt>
      <trkpt lat="48.08888" lon="7.07763">
        <ele>982</ele>
        <time>2021-08-05T13:02:00Z</time>
      </trkpt>
      <trkpt lat="48.08888" lon="7.07762">
        <ele>982.1</ele>
        <time>2021-08-05T13:02:02Z</time>
      </trkpt>
      <trkpt lat="48.08889" lon="7.07761">
        <ele>982.2</ele>
        <time>2021-08-05T13:02:03Z</time>
      </trkpt>
      <trkpt lat="48.0889" lon="7.0776">
        <ele>982.2</ele>
        <time>2021-08-05T13:02:04Z</time>
      </trkpt>
      <trkpt lat="48.08891" lon="7.0776">
        <ele>982.3</ele>
        <time>2021-08-05T13:02:06Z</time>
      </trkpt>
      <trkpt lat="48.08892" lon="7.0776">
        <ele>982.4</ele>
        <time>2021-08-05T13:02:08Z</time>
      </trkpt>
      <trkpt lat="48.08894" lon="7.0776">
        <ele>982.5</ele>
        <time>2021-08-05T13:02:10Z</time>
      </trkpt>
      <trkpt lat="48.08895" lon="7.0776">
        <ele>982.6</ele>
        <time>2021-08-05T13:02:11Z</time>
      </trkpt>
      <trkpt lat="48.08896" lon="7.0776">
        <ele>982.7</ele>
        <time>2021-08-05T13:02:12Z</time>
      </trkpt>
      <trkpt lat="48.08897" lon="7.0776">
        <ele>982.7</ele>
        <time>2021-08-05T13:02:13Z</time>
      </trkpt>
      <trkpt lat="48.08897" lon="7.07759">
        <ele>982.8</ele>
        <time>2021-08-05T13:02:16Z</time>
      </trkpt>
      <trkpt lat="48.08898" lon="7.07759">
        <ele>982.9</ele>
        <time>2021-08-05T13:02:17Z</time>
      </trkpt>
      <trkpt lat="48.08899" lon="7.07757">
        <ele>983</ele>
        <time>2021-08-05T13:02:18Z</time>
      </trkpt>
      <trkpt lat="48.089" lon="7.07756">
        <ele>983.1</ele>
        <time>2021-08-05T13:02:19Z</time>
      </trkpt>
      <trkpt lat="48.08909" lon="7.07749">
        <ele>983.9</ele>
        <time>2021-08-05T13:02:21Z</time>
      </trkpt>
      <trkpt lat="48.08915" lon="7.07747">
        <ele>984.4</ele>
        <time>2021-08-05T13:02:39Z</time>
      </trkpt>
      <trkpt lat="48.08922" lon="7.07745">
        <ele>985</ele>
        <time>2021-08-05T13:02:40Z</time>
      </trkpt>
      <trkpt lat="48.08928" lon="7.07743">
        <ele>985.5</ele>
        <time>2021-08-05T13:02:41Z</time>
      </trkpt>
      <trkpt lat="48.08931" lon="7.07743">
        <ele>985.8</ele>
        <time>2021-08-05T13:02:42Z</time>
      </trkpt>
      <trkpt lat="48.08935" lon="7.07741">
        <ele>986.1</ele>
        <time>2021-08-05T13:02:44Z</time>
      </trkpt>
      <trkpt lat="48.08941" lon="7.07738">
        <ele>986.6</ele>
        <time>2021-08-05T13:02:45Z</time>
      </trkpt>
      <trkpt lat="48.08945" lon="7.07734">
        <ele>986.9</ele>
        <time>2021-08-05T13:02:47Z</time>
      </trkpt>
      <trkpt lat="48.08945" lon="7.07732">
        <ele>987</ele>
        <time>2021-08-05T13:02:48Z</time>
      </trkpt>
      <trkpt lat="48.08946" lon="7.0773">
        <ele>987.1</ele>
        <time>2021-08-05T13:02:49Z</time>
      </trkpt>
      <trkpt lat="48.08946" lon="7.07726">
        <ele>987.2</ele>
        <time>2021-08-05T13:02:51Z</time>
      </trkpt>
      <trkpt lat="48.08946" lon="7.07718">
        <ele>987.3</ele>
        <time>2021-08-05T13:02:53Z</time>
      </trkpt>
      <trkpt lat="48.08946" lon="7.07714">
        <ele>987.4</ele>
        <time>2021-08-05T13:02:54Z</time>
      </trkpt>
      <trkpt lat="48.08946" lon="7.07713">
        <ele>987.4</ele>
        <time>2021-08-05T13:02:55Z</time>
      </trkpt>
      <trkpt lat="48.08946" lon="7.07711">
        <ele>987.4</ele>
        <time>2021-08-05T13:02:57Z</time>
      </trkpt>
      <trkpt lat="48.08945" lon="7.07709">
        <ele>987.4</ele>
        <time>2021-08-05T13:02:58Z</time>
      </trkpt>
      <trkpt lat="48.08949" lon="7.07693">
        <ele>987.2</ele>
        <time>2021-08-05T13:02:59Z</time>
      </trkpt>
      <trkpt lat="48.08952" lon="7.07678">
        <ele>986.7</ele>
        <time>2021-08-05T13:03:00Z</time>
      </trkpt>
      <trkpt lat="48.08956" lon="7.07663">
        <ele>986.1</ele>
        <time>2021-08-05T13:03:02Z</time>
      </trkpt>
      <trkpt lat="48.08959" lon="7.07649">
        <ele>985.5</ele>
        <time>2021-08-05T13:05:13Z</time>
      </trkpt>
      <trkpt lat="48.08963" lon="7.07634">
        <ele>984.8</ele>
        <time>2021-08-05T13:05:14Z</time>
      </trkpt>
      <trkpt lat="48.08966" lon="7.07611">
        <ele>983.8</ele>
        <time>2021-08-05T13:05:15Z</time>
      </trkpt>
      <trkpt lat="48.08968" lon="7.07602">
        <ele>983.4</ele>
        <time>2021-08-05T13:05:17Z</time>
      </trkpt>
      <trkpt lat="48.08971" lon="7.07595">
        <ele>983</ele>
        <time>2021-08-05T13:05:18Z</time>
      </trkpt>
      <trkpt lat="48.08973" lon="7.07592">
        <ele>982.8</ele>
        <time>2021-08-05T13:05:19Z</time>
      </trkpt>
      <trkpt lat="48.08977" lon="7.07588">
        <ele>982.5</ele>
        <time>2021-08-05T13:05:20Z</time>
      </trkpt>
      <trkpt lat="48.0898" lon="7.07583">
        <ele>982.2</ele>
        <time>2021-08-05T13:05:21Z</time>
      </trkpt>
      <trkpt lat="48.08982" lon="7.0758">
        <ele>978.5</ele>
        <time>2021-08-05T13:05:22Z</time>
      </trkpt>
      <trkpt lat="48.08985" lon="7.07574">
        <ele>973.4</ele>
        <time>2021-08-05T13:05:23Z</time>
      </trkpt>
      <trkpt lat="48.08985" lon="7.07572">
        <ele>969.6</ele>
        <time>2021-08-05T13:05:24Z</time>
      </trkpt>
      <trkpt lat="48.08985" lon="7.07569">
        <ele>965.2</ele>
        <time>2021-08-05T13:05:26Z</time>
      </trkpt>
      <trkpt lat="48.08985" lon="7.07566">
        <ele>960.8</ele>
        <time>2021-08-05T13:05:27Z</time>
      </trkpt>
      <trkpt lat="48.08985" lon="7.07562">
        <ele>956.5</ele>
        <time>2021-08-05T13:05:29Z</time>
      </trkpt>
      <trkpt lat="48.08986" lon="7.07559">
        <ele>952.7</ele>
        <time>2021-08-05T13:05:30Z</time>
      </trkpt>
      <trkpt lat="48.08877" lon="7.07352">
        <ele>980.9</ele>
        <time>2021-08-05T13:07:15Z</time>
      </trkpt>
      <trkpt lat="48.08874" lon="7.07345">
        <ele>981.1</ele>
        <time>2021-08-05T13:07:16Z</time>
      </trkpt>
      <trkpt lat="48.08873" lon="7.07344">
        <ele>981.2</ele>
        <time>2021-08-05T13:07:17Z</time>
      </trkpt>
      <trkpt lat="48.0887" lon="7.07341">
        <ele>981.3</ele>
        <time>2021-08-05T13:07:19Z</time>
      </trkpt>
      <trkpt lat="48.08869" lon="7.0734">
        <ele>981.4</ele>
        <time>2021-08-05T13:07:20Z</time>
      </trkpt>
      <trkpt lat="48.08868" lon="7.07337">
        <ele>981.5</ele>
        <time>2021-08-05T13:07:22Z</time>
      </trkpt>
      <trkpt lat="48.08865" lon="7.07336">
        <ele>981.6</ele>
        <time>2021-08-05T13:07:24Z</time>
      </trkpt>
      <trkpt lat="48.08864" lon="7.07336">
        <ele>981.6</ele>
        <time>2021-08-05T13:07:25Z</time>
      </trkpt>
      <trkpt lat="48.08862" lon="7.07336">
        <ele>981.8</ele>
        <time>2021-08-05T13:07:27Z</time>
      </trkpt>
      <trkpt lat="48.08861" lon="7.07337">
        <ele>981.8</ele>
        <time>2021-08-05T13:07:28Z</time>
      </trkpt>
      <trkpt lat="48.0886" lon="7.07338">
        <ele>981.9</ele>
        <time>2021-08-05T13:07:29Z</time>
      </trkpt>
      <trkpt lat="48.08859" lon="7.07338">
        <ele>981.9</ele>
        <time>2021-08-05T13:07:30Z</time>
      </trkpt>
      <trkpt lat="48.08852" lon="7.07339">
        <ele>982.4</ele>
        <time>2021-08-05T13:07:32Z</time>
      </trkpt>
      <trkpt lat="48.08847" lon="7.07343">
        <ele>982.7</ele>
        <time>2021-08-05T13:07:34Z</time>
      </trkpt>
      <trkpt lat="48.08846" lon="7.07345">
        <ele>982.8</ele>
        <time>2021-08-05T13:07:35Z</time>
      </trkpt>
      <trkpt lat="48.08845" lon="7.07352">
        <ele>983.1</ele>
        <time>2021-08-05T13:07:37Z</time>
      </trkpt>
      <trkpt lat="48.08846" lon="7.07352">
        <ele>983.2</ele>
        <time>2021-08-05T13:07:38Z</time>
      </trkpt>
      <trkpt lat="48.08847" lon="7.0735">
        <ele>983.2</ele>
        <time>2021-08-05T13:07:39Z</time>
      </trkpt>
      <trkpt lat="48.08847" lon="7.07348">
        <ele>983.3</ele>
        <time>2021-08-05T13:07:41Z</time>
      </trkpt>
      <trkpt lat="48.08847" lon="7.07347">
        <ele>983.4</ele>
        <time>2021-08-05T13:07:42Z</time>
      </trkpt>
      <trkpt lat="48.08847" lon="7.07346">
        <ele>983.4</ele>
        <time>2021-08-05T13:07:43Z</time>
      </trkpt>
      <trkpt lat="48.08847" lon="7.07346">
        <ele>983.5</ele>
        <time>2021-08-05T13:07:45Z</time>
      </trkpt>
      <trkpt lat="48.08845" lon="7.07346">
        <ele>983.5</ele>
        <time>2021-08-05T13:07:46Z</time>
      </trkpt>
      <trkpt lat="48.08842" lon="7.07346">
        <ele>983.7</ele>
        <time>2021-08-05T13:07:48Z</time>
      </trkpt>
      <trkpt lat="48.08834" lon="7.07342">
        <ele>984.2</ele>
        <time>2021-08-05T13:07:51Z</time>
      </trkpt>
      <trkpt lat="48.08825" lon="7.07339">
        <ele>984.7</ele>
        <time>2021-08-05T13:07:53Z</time>
      </trkpt>
      <trkpt lat="48.08821" lon="7.07337">
        <ele>984.9</ele>
        <time>2021-08-05T13:07:54Z</time>
      </trkpt>
      <trkpt lat="48.0882" lon="7.07337">
        <ele>985</ele>
        <time>2021-08-05T13:07:56Z</time>
      </trkpt>
      <trkpt lat="48.08819" lon="7.07337">
        <ele>985</ele>
        <time>2021-08-05T13:07:57Z</time>
      </trkpt>
      <trkpt lat="48.08818" lon="7.07337">
        <ele>985.1</ele>
        <time>2021-08-05T13:07:59Z</time>
      </trkpt>
      <trkpt lat="48.08817" lon="7.07338">
        <ele>985.1</ele>
        <time>2021-08-05T13:08:00Z</time>
      </trkpt>
      <trkpt lat="48.08816" lon="7.0734">
        <ele>985.2</ele>
        <time>2021-08-05T13:08:01Z</time>
      </trkpt>
      <trkpt lat="48.08815" lon="7.07341">
        <ele>985.3</ele>
        <time>2021-08-05T13:08:03Z</time>
      </trkpt>
      <trkpt lat="48.08748" lon="7.07346">
        <ele>989</ele>
        <time>2021-08-05T13:09:02Z</time>
      </trkpt>
      <trkpt lat="48.08744" lon="7.07347">
        <ele>989.3</ele>
        <time>2021-08-05T13:09:04Z</time>
      </trkpt>
      <trkpt lat="48.0874" lon="7.07348">
        <ele>989.6</ele>
        <time>2021-08-05T13:09:05Z</time>
      </trkpt>
      <trkpt lat="48.08737" lon="7.0735">
        <ele>989.8</ele>
        <time>2021-08-05T13:09:07Z</time>
      </trkpt>
      <trkpt lat="48.08735" lon="7.07351">
        <ele>990</ele>
        <time>2021-08-05T13:09:08Z</time>
      </trkpt>
      <trkpt lat="48.08733" lon="7.07352">
        <ele>990.1</ele>
        <time>2021-08-05T13:09:09Z</time>
      </trkpt>
      <trkpt lat="48.0873" lon="7.07355">
        <ele>990.3</ele>
        <time>2021-08-05T13:09:11Z</time>
      </trkpt>
      <trkpt lat="48.08729" lon="7.07356">
        <ele>990.4</ele>
        <time>2021-08-05T13:09:13Z</time>
      </trkpt>
      <trkpt lat="48.08728" lon="7.07357">
        <ele>990.5</ele>
        <time>2021-08-05T13:09:14Z</time>
      </trkpt>
      <trkpt lat="48.08728" lon="7.07357">
        <ele>990.5</ele>
        <time>2021-08-05T13:09:15Z</time>
      </trkpt>
      <trkpt lat="48.08728" lon="7.07357">
        <ele>990.5</ele>
        <time>2021-08-05T13:09:16Z</time>
      </trkpt>
      <trkpt lat="48.08729" lon="7.07357">
        <ele>990.5</ele>
        <time>2021-08-05T13:09:18Z</time>
      </trkpt>
      <trkpt lat="48.08729" lon="7.07357">
        <ele>990.5</ele>
        <time>2021-08-05T13:09:19Z</time>
      </trkpt>
      <trkpt lat="48.08728" lon="7.07356">
        <ele>990.6</ele>
        <time>2021-08-05T13:09:20Z</time>
      </trkpt>
      <trkpt lat="48.08727" lon="7.07356">
        <ele>990.6</ele>
        <time>2021-08-05T13:09:21Z</time>
      </trkpt>
      <trkpt lat="48.08724" lon="7.07355">
        <ele>990.8</ele>
        <time>2021-08-05T13:09:23Z</time>
      </trkpt>
      <trkpt lat="48.08723" lon="7.07354">
        <ele>990.9</ele>
        <time>2021-08-05T13:09:24Z</time>
      </trkpt>
      <trkpt lat="48.0872" lon="7.07353">
        <ele>991.1</ele>
        <time>2021-08-05T13:09:25Z</time>
      </trkpt>
      <trkpt lat="48.08719" lon="7.07352">
        <ele>991.2</ele>
        <time>2021-08-05T13:09:26Z</time>
      </trkpt>
      <trkpt lat="48.08718" lon="7.0735">
        <ele>991.4</ele>
        <time>2021-08-05T13:09:27Z</time>
      </trkpt>
      <trkpt lat="48.08716" lon="7.07348">
        <ele>991.5</ele>
        <time>2021-08-05T13:09:29Z</time>
      </trkpt>
      <trkpt lat="48.08716" lon="7.07347">
        <ele>991.5</ele>
        <time>2021-08-05T13:09:30Z</time>
      </trkpt>
      <trkpt lat="48.08715" lon="7.07348">
        <ele>991.6</ele>
        <time>2021-08-05T13:09:31Z</time>
      </trkpt>
      <trkpt lat="48.08715" lon="7.07348">
        <ele>991.6</ele>
        <time>2021-08-05T13:09:32Z</time>
      </trkpt>
      <trkpt lat="48.08714" lon="7.07348">
        <ele>991.7</ele>
        <time>2021-08-05T13:09:33Z</time>
      </trkpt>
      <trkpt lat="48.08712" lon="7.07348">
        <ele>991.8</ele>
        <time>2021-08-05T13:09:35Z</time>
      </trkpt>
      <trkpt lat="48.08711" lon="7.07347">
        <ele>991.9</ele>
        <time>2021-08-05T13:09:36Z</time>
      </trkpt>
      <trkpt lat="48.0871" lon="7.07347">
        <ele>992</ele>
        <time>2021-08-05T13:09:37Z</time>
      </trkpt>
      <trkpt lat="48.08709" lon="7.07346">
        <ele>992</ele>
        <time>2021-08-05T13:09:39Z</time>
      </trkpt>
      <trkpt lat="48.08709" lon="7.07346">
        <ele>992.1</ele>
        <time>2021-08-05T13:09:41Z</time>
      </trkpt>
      <trkpt lat="48.08708" lon="7.07345">
        <ele>992.1</ele>
        <time>2021-08-05T13:09:42Z</time>
      </trkpt>
      <trkpt lat="48.08706" lon="7.07345">
        <ele>992.3</ele>
        <time>2021-08-05T13:09:43Z</time>
      </trkpt>
      <trkpt lat="48.08705" lon="7.07344">
        <ele>992.4</ele>
        <time>2021-08-05T13:09:44Z</time>
      </trkpt>
      <trkpt lat="48.08704" lon="7.07344">
        <ele>992.4</ele>
        <time>2021-08-05T13:09:45Z</time>
      </trkpt>
      <trkpt lat="48.08703" lon="7.07345">
        <ele>992.5</ele>
        <time>2021-08-05T13:09:46Z</time>
      </trkpt>
      <trkpt lat="48.08702" lon="7.07345">
        <ele>992.6</ele>
        <time>2021-08-05T13:09:47Z</time>
      </trkpt>
      <trkpt lat="48.08701" lon="7.07346">
        <ele>992.6</ele>
        <time>2021-08-05T13:09:49Z</time>
      </trkpt>
      <trkpt lat="48.08701" lon="7.07346">
        <ele>992.7</ele>
        <time>2021-08-05T13:09:50Z</time>
      </trkpt>
      <trkpt lat="48.08697" lon="7.07347">
        <ele>992.9</ele>
        <time>2021-08-05T13:09:51Z</time>
      </trkpt>
      <trkpt lat="48.08696" lon="7.07347">
        <ele>993</ele>
        <time>2021-08-05T13:09:52Z</time>
      </trkpt>
      <trkpt lat="48.08693" lon="7.07347">
        <ele>993.2</ele>
        <time>2021-08-05T13:09:53Z</time>
      </trkpt>
      <trkpt lat="48.08691" lon="7.07347">
        <ele>993.4</ele>
        <time>2021-08-05T13:09:54Z</time>
      </trkpt>
      <trkpt lat="48.08689" lon="7.07346">
        <ele>993.6</ele>
        <time>2021-08-05T13:09:56Z</time>
      </trkpt>
      <trkpt lat="48.08687" lon="7.07344">
        <ele>993.7</ele>
        <time>2021-08-05T13:09:57Z</time>
      </trkpt>
      <trkpt lat="48.08686" lon="7.07343">
        <ele>993.8</ele>
        <time>2021-08-05T13:09:58Z</time>
      </trkpt>
      <trkpt lat="48.08686" lon="7.07341">
        <ele>993.9</ele>
        <time>2021-08-05T13:09:59Z</time>
      </trkpt>
      <trkpt lat="48.08686" lon="7.07341">
        <ele>993.9</ele>
        <time>2021-08-05T13:10:00Z</time>
      </trkpt>
      <trkpt lat="48.08685" lon="7.07341">
        <ele>994</ele>
        <time>2021-08-05T13:10:02Z</time>
      </trkpt>
      <trkpt lat="48.08683" lon="7.07341">
        <ele>994.1</ele>
        <time>2021-08-05T13:10:03Z</time>
      </trkpt>
      <trkpt lat="48.08677" lon="7.07342">
        <ele>994.5</ele>
        <time>2021-08-05T13:10:05Z</time>
      </trkpt>
      <trkpt lat="48.08676" lon="7.07343">
        <ele>994.6</ele>
        <time>2021-08-05T13:10:06Z</time>
      </trkpt>
      <trkpt lat="48.08674" lon="7.07344">
        <ele>994.8</ele>
        <time>2021-08-05T13:10:07Z</time>
      </trkpt>
      <trkpt lat="48.08672" lon="7.07344">
        <ele>994.9</ele>
        <time>2021-08-05T13:10:08Z</time>
      </trkpt>
      <trkpt lat="48.0867" lon="7.07341">
        <ele>995</ele>
        <time>2021-08-05T13:10:10Z</time>
      </trkpt>
      <trkpt lat="48.08669" lon="7.07338">
        <ele>995.2</ele>
        <time>2021-08-05T13:10:11Z</time>
      </trkpt>
      <trkpt lat="48.08669" lon="7.07336">
        <ele>995.3</ele>
        <time>2021-08-05T13:10:12Z</time>
      </trkpt>
      <trkpt lat="48.08669" lon="7.07335">
        <ele>995.3</ele>
        <time>2021-08-05T13:10:13Z</time>
      </trkpt>
      <trkpt lat="48.08668" lon="7.07332">
        <ele>995.5</ele>
        <time>2021-08-05T13:10:15Z</time>
      </trkpt>
      <trkpt lat="48.08667" lon="7.0733">
        <ele>995.5</ele>
        <time>2021-08-05T13:10:16Z</time>
      </trkpt>
      <trkpt lat="48.08667" lon="7.07329">
        <ele>995.6</ele>
        <time>2021-08-05T13:10:17Z</time>
      </trkpt>
      <trkpt lat="48.08666" lon="7.07328">
        <ele>995.6</ele>
        <time>2021-08-05T13:10:18Z</time>
      </trkpt>
      <trkpt lat="48.08667" lon="7.07328">
        <ele>995.6</ele>
        <time>2021-08-05T13:10:20Z</time>
      </trkpt>
      <trkpt lat="48.08666" lon="7.07328">
        <ele>995.7</ele>
        <time>2021-08-05T13:10:21Z</time>
      </trkpt>
      <trkpt lat="48.08666" lon="7.07326">
        <ele>995.7</ele>
        <time>2021-08-05T13:10:23Z</time>
      </trkpt>
      <trkpt lat="48.08666" lon="7.07325">
        <ele>995.8</ele>
        <time>2021-08-05T13:10:24Z</time>
      </trkpt>
      <trkpt lat="48.08666" lon="7.07325">
        <ele>995.8</ele>
        <time>2021-08-05T13:10:25Z</time>
      </trkpt>
      <trkpt lat="48.08666" lon="7.07324">
        <ele>995.8</ele>
        <time>2021-08-05T13:10:26Z</time>
      </trkpt>
      <trkpt lat="48.08666" lon="7.07322">
        <ele>995.9</ele>
        <time>2021-08-05T13:10:28Z</time>
      </trkpt>
      <trkpt lat="48.08665" lon="7.0732">
        <ele>996</ele>
        <time>2021-08-05T13:10:29Z</time>
      </trkpt>
      <trkpt lat="48.08664" lon="7.07318">
        <ele>996.1</ele>
        <time>2021-08-05T13:10:30Z</time>
      </trkpt>
      <trkpt lat="48.08661" lon="7.07316">
        <ele>996.3</ele>
        <time>2021-08-05T13:10:32Z</time>
      </trkpt>
      <trkpt lat="48.08659" lon="7.07315">
        <ele>996.5</ele>
        <time>2021-08-05T13:10:33Z</time>
      </trkpt>
      <trkpt lat="48.08654" lon="7.07315">
        <ele>996.8</ele>
        <time>2021-08-05T13:10:35Z</time>
      </trkpt>
      <trkpt lat="48.08651" lon="7.07316">
        <ele>997.1</ele>
        <time>2021-08-05T13:10:36Z</time>
      </trkpt>
      <trkpt lat="48.08648" lon="7.07317">
        <ele>997.3</ele>
        <time>2021-08-05T13:10:37Z</time>
      </trkpt>
      <trkpt lat="48.08644" lon="7.07319">
        <ele>997.6</ele>
        <time>2021-08-05T13:10:39Z</time>
      </trkpt>
      <trkpt lat="48.08641" lon="7.07319">
        <ele>997.8</ele>
        <time>2021-08-05T13:10:40Z</time>
      </trkpt>
      <trkpt lat="48.08637" lon="7.07321">
        <ele>998.1</ele>
        <time>2021-08-05T13:10:41Z</time>
      </trkpt>
      <trkpt lat="48.08635" lon="7.07322">
        <ele>998.3</ele>
        <time>2021-08-05T13:10:42Z</time>
      </trkpt>
      <trkpt lat="48.08633" lon="7.07322">
        <ele>998.4</ele>
        <time>2021-08-05T13:10:44Z</time>
      </trkpt>
      <trkpt lat="48.08633" lon="7.07321">
        <ele>998.4</ele>
        <time>2021-08-05T13:10:45Z</time>
      </trkpt>
      <trkpt lat="48.08634" lon="7.07318">
        <ele>998.6</ele>
        <time>2021-08-05T13:10:46Z</time>
      </trkpt>
      <trkpt lat="48.08635" lon="7.07316">
        <ele>998.7</ele>
        <time>2021-08-05T13:10:48Z</time>
      </trkpt>
      <trkpt lat="48.08636" lon="7.07311">
        <ele>998.9</ele>
        <time>2021-08-05T13:10:50Z</time>
      </trkpt>
      <trkpt lat="48.08639" lon="7.07305">
        <ele>999.2</ele>
        <time>2021-08-05T13:10:52Z</time>
      </trkpt>
      <trkpt lat="48.08639" lon="7.073">
        <ele>999.4</ele>
        <time>2021-08-05T13:10:54Z</time>
      </trkpt>
      <trkpt lat="48.08639" lon="7.07299">
        <ele>999.5</ele>
        <time>2021-08-05T13:10:55Z</time>
      </trkpt>
      <trkpt lat="48.08639" lon="7.07297">
        <ele>999.6</ele>
        <time>2021-08-05T13:10:56Z</time>
      </trkpt>
      <trkpt lat="48.0864" lon="7.07296">
        <ele>999.6</ele>
        <time>2021-08-05T13:10:57Z</time>
      </trkpt>
      <trkpt lat="48.0864" lon="7.07295">
        <ele>999.6</ele>
        <time>2021-08-05T13:10:58Z</time>
      </trkpt>
      <trkpt lat="48.08641" lon="7.07295">
        <ele>999.7</ele>
        <time>2021-08-05T13:10:59Z</time>
      </trkpt>
      <trkpt lat="48.08641" lon="7.07295">
        <ele>999.7</ele>
        <time>2021-08-05T13:11:00Z</time>
      </trkpt>
      <trkpt lat="48.08641" lon="7.07294">
        <ele>999.7</ele>
        <time>2021-08-05T13:11:02Z</time>
      </trkpt>
      <trkpt lat="48.08642" lon="7.06942">
        <ele>1018.8</ele>
        <time>2021-08-05T13:15:07Z</time>
      </trkpt>
      <trkpt lat="48.0864" lon="7.06932">
        <ele>1019.2</ele>
        <time>2021-08-05T13:15:08Z</time>
      </trkpt>
      <trkpt lat="48.0864" lon="7.06925">
        <ele>1019.5</ele>
        <time>2021-08-05T13:15:09Z</time>
      </trkpt>
      <trkpt lat="48.0864" lon="7.0692">
        <ele>1019.6</ele>
        <time>2021-08-05T13:15:11Z</time>
      </trkpt>
      <trkpt lat="48.08639" lon="7.06917">
        <ele>1019.7</ele>
        <time>2021-08-05T13:15:13Z</time>
      </trkpt>
      <trkpt lat="48.08638" lon="7.06916">
        <ele>1019.8</ele>
        <time>2021-08-05T13:15:14Z</time>
      </trkpt>
      <trkpt lat="48.08638" lon="7.06915">
        <ele>1019.8</ele>
        <time>2021-08-05T13:15:15Z</time>
      </trkpt>
      <trkpt lat="48.08637" lon="7.06911">
        <ele>1020</ele>
        <time>2021-08-05T13:15:17Z</time>
      </trkpt>
      <trkpt lat="48.08636" lon="7.06906">
        <ele>1020.2</ele>
        <time>2021-08-05T13:15:18Z</time>
      </trkpt>
      <trkpt lat="48.08635" lon="7.06898">
        <ele>1020.5</ele>
        <time>2021-08-05T13:15:19Z</time>
      </trkpt>
      <trkpt lat="48.08634" lon="7.06893">
        <ele>1020.7</ele>
        <time>2021-08-05T13:15:20Z</time>
      </trkpt>
      <trkpt lat="48.08632" lon="7.06889">
        <ele>1020.9</ele>
        <time>2021-08-05T13:15:21Z</time>
      </trkpt>
      <trkpt lat="48.08631" lon="7.06888">
        <ele>1020.9</ele>
        <time>2021-08-05T13:15:22Z</time>
      </trkpt>
      <trkpt lat="48.08625" lon="7.06885">
        <ele>1021.3</ele>
        <time>2021-08-05T13:15:24Z</time>
      </trkpt>
      <trkpt lat="48.0862" lon="7.06882">
        <ele>1021.6</ele>
        <time>2021-08-05T13:15:25Z</time>
      </trkpt>
      <trkpt lat="48.08617" lon="7.06881">
        <ele>1021.8</ele>
        <time>2021-08-05T13:15:26Z</time>
      </trkpt>
      <trkpt lat="48.08613" lon="7.0688">
        <ele>1022</ele>
        <time>2021-08-05T13:15:28Z</time>
      </trkpt>
      <trkpt lat="48.08611" lon="7.06881">
        <ele>1022.1</ele>
        <time>2021-08-05T13:15:30Z</time>
      </trkpt>
      <trkpt lat="48.08612" lon="7.06882">
        <ele>1022.2</ele>
        <time>2021-08-05T13:15:31Z</time>
      </trkpt>
      <trkpt lat="48.08612" lon="7.06882">
        <ele>1022.2</ele>
        <time>2021-08-05T13:15:33Z</time>
      </trkpt>
      <trkpt lat="48.08613" lon="7.06882">
        <ele>1022.2</ele>
        <time>2021-08-05T13:15:34Z</time>
      </trkpt>
      <trkpt lat="48.08614" lon="7.06883">
        <ele>1022.3</ele>
        <time>2021-08-05T13:15:36Z</time>
      </trkpt>
      <trkpt lat="48.08614" lon="7.06883">
        <ele>1022.3</ele>
        <time>2021-08-05T13:15:37Z</time>
      </trkpt>
      <trkpt lat="48.08614" lon="7.06883">
        <ele>1022.3</ele>
        <time>2021-08-05T13:15:38Z</time>
      </trkpt>
      <trkpt lat="48.08615" lon="7.06882">
        <ele>1022.4</ele>
        <time>2021-08-05T13:15:40Z</time>
      </trkpt>
      <trkpt lat="48.08635" lon="7.06851">
        <ele>1023.9</ele>
        <time>2021-08-05T13:15:46Z</time>
      </trkpt>
      <trkpt lat="48.08639" lon="7.0684">
        <ele>1024.4</ele>
        <time>2021-08-05T13:15:48Z</time>
      </trkpt>
      <trkpt lat="48.0864" lon="7.06834">
        <ele>1024.6</ele>
        <time>2021-08-05T13:15:49Z</time>
      </trkpt>
      <trkpt lat="48.08639" lon="7.06827">
        <ele>1024.9</ele>
        <time>2021-08-05T13:15:51Z</time>
      </trkpt>
      <trkpt lat="48.08639" lon="7.06823">
        <ele>1025.1</ele>
        <time>2021-08-05T13:15:52Z</time>
      </trkpt>
      <trkpt lat="48.08638" lon="7.06819">
        <ele>1025.3</ele>
        <time>2021-08-05T13:15:53Z</time>
      </trkpt>
      <trkpt lat="48.08637" lon="7.06813">
        <ele>1025.5</ele>
        <time>2021-08-05T13:15:54Z</time>
      </trkpt>
      <trkpt lat="48.08635" lon="7.06809">
        <ele>1025.7</ele>
        <time>2021-08-05T13:15:56Z</time>
      </trkpt>
      <trkpt lat="48.08635" lon="7.06808">
        <ele>1025.7</ele>
        <time>2021-08-05T13:15:57Z</time>
      </trkpt>
      <trkpt lat="48.08634" lon="7.06807">
        <ele>1025.8</ele>
        <time>2021-08-05T13:15:58Z</time>
      </trkpt>
      <trkpt lat="48.08634" lon="7.06808">
        <ele>1025.8</ele>
        <time>2021-08-05T13:15:59Z</time>
      </trkpt>
      <trkpt lat="48.08632" lon="7.06808">
        <ele>1025.9</ele>
        <time>2021-08-05T13:16:00Z</time>
      </trkpt>
      <trkpt lat="48.08631" lon="7.06806">
        <ele>1026</ele>
        <time>2021-08-05T13:16:02Z</time>
      </trkpt>
      <trkpt lat="48.08629" lon="7.06804">
        <ele>1026.1</ele>
        <time>2021-08-05T13:16:03Z</time>
      </trkpt>
      <trkpt lat="48.08629" lon="7.06802">
        <ele>1026.2</ele>
        <time>2021-08-05T13:16:04Z</time>
      </trkpt>
      <trkpt lat="48.08626" lon="7.06799">
        <ele>1026.4</ele>
        <time>2021-08-05T13:16:05Z</time>
      </trkpt>
      <trkpt lat="48.08624" lon="7.06798">
        <ele>1026.5</ele>
        <time>2021-08-05T13:16:06Z</time>
      </trkpt>
      <trkpt lat="48.08623" lon="7.06796">
        <ele>1026.6</ele>
        <time>2021-08-05T13:16:08Z</time>
      </trkpt>
      <trkpt lat="48.08624" lon="7.06795">
        <ele>1026.7</ele>
        <time>2021-08-05T13:16:09Z</time>
      </trkpt>
      <trkpt lat="48.08625" lon="7.06794">
        <ele>1026.7</ele>
        <time>2021-08-05T13:16:10Z</time>
      </trkpt>
      <trkpt lat="48.08625" lon="7.06794">
        <ele>1026.7</ele>
        <time>2021-08-05T13:16:11Z</time>
      </trkpt>
      <trkpt lat="48.08625" lon="7.06793">
        <ele>1026.8</ele>
        <time>2021-08-05T13:16:12Z</time>
      </trkpt>
      <trkpt lat="48.08624" lon="7.06792">
        <ele>1026.8</ele>
        <time>2021-08-05T13:16:13Z</time>
      </trkpt>
      <trkpt lat="48.08624" lon="7.06788">
        <ele>1026.9</ele>
        <time>2021-08-05T13:16:15Z</time>
      </trkpt>
      <trkpt lat="48.08623" lon="7.06786">
        <ele>1027</ele>
        <time>2021-08-05T13:16:16Z</time>
      </trkpt>
      <trkpt lat="48.08639" lon="7.06677">
        <ele>1032.1</ele>
        <time>2021-08-05T13:17:44Z</time>
      </trkpt>
      <trkpt lat="48.0864" lon="7.06661">
        <ele>1033</ele>
        <time>2021-08-05T13:17:46Z</time>
      </trkpt>
      <trkpt lat="48.08641" lon="7.06657">
        <ele>1033.3</ele>
        <time>2021-08-05T13:17:47Z</time>
      </trkpt>
      <trkpt lat="48.08642" lon="7.06654">
        <ele>1033.5</ele>
        <time>2021-08-05T13:17:48Z</time>
      </trkpt>
      <trkpt lat="48.08643" lon="7.06651">
        <ele>1033.7</ele>
        <time>2021-08-05T13:17:50Z</time>
      </trkpt>
      <trkpt lat="48.08642" lon="7.06653">
        <ele>1033.9</ele>
        <time>2021-08-05T13:17:52Z</time>
      </trkpt>
      <trkpt lat="48.08641" lon="7.06653">
        <ele>1033.9</ele>
        <time>2021-08-05T13:17:53Z</time>
      </trkpt>
      <trkpt lat="48.08641" lon="7.06653">
        <ele>1034</ele>
        <time>2021-08-05T13:17:54Z</time>
      </trkpt>
      <trkpt lat="48.08641" lon="7.06653">
        <ele>1034</ele>
        <time>2021-08-05T13:17:56Z</time>
      </trkpt>
      <trkpt lat="48.08641" lon="7.06653">
        <ele>1034</ele>
        <time>2021-08-05T13:17:57Z</time>
      </trkpt>
      <trkpt lat="48.0864" lon="7.06652">
        <ele>1034.1</ele>
        <time>2021-08-05T13:17:58Z</time>
      </trkpt>
      <trkpt lat="48.08641" lon="7.0665">
        <ele>1034.2</ele>
        <time>2021-08-05T13:17:59Z</time>
      </trkpt>
      <trkpt lat="48.08641" lon="7.06649">
        <ele>1034.2</ele>
        <time>2021-08-05T13:18:00Z</time>
      </trkpt>
      <trkpt lat="48.08638" lon="7.06623">
        <ele>1035.9</ele>
        <time>2021-08-05T13:18:16Z</time>
      </trkpt>
      <trkpt lat="48.08637" lon="7.06619">
        <ele>1036.2</ele>
        <time>2021-08-05T13:18:17Z</time>
      </trkpt>
      <trkpt lat="48.08635" lon="7.06613">
        <ele>1036.6</ele>
        <time>2021-08-05T13:18:19Z</time>
      </trkpt>
      <trkpt lat="48.08635" lon="7.0661">
        <ele>1036.8</ele>
        <time>2021-08-05T13:18:20Z</time>
      </trkpt>
      <trkpt lat="48.08636" lon="7.06608">
        <ele>1036.9</ele>
        <time>2021-08-05T13:18:22Z</time>
      </trkpt>
      <trkpt lat="48.08636" lon="7.06605">
        <ele>1037.1</ele>
        <time>2021-08-05T13:18:23Z</time>
      </trkpt>
      <trkpt lat="48.08636" lon="7.06603">
        <ele>1037.2</ele>
        <time>2021-08-05T13:18:24Z</time>
      </trkpt>
      <trkpt lat="48.08636" lon="7.066">
        <ele>1037.4</ele>
        <time>2021-08-05T13:18:26Z</time>
      </trkpt>
      <trkpt lat="48.08636" lon="7.06598">
        <ele>1037.5</ele>
        <time>2021-08-05T13:18:28Z</time>
      </trkpt>
      <trkpt lat="48.08636" lon="7.06595">
        <ele>1037.7</ele>
        <time>2021-08-05T13:18:29Z</time>
      </trkpt>
      <trkpt lat="48.08637" lon="7.06593">
        <ele>1037.8</ele>
        <time>2021-08-05T13:18:30Z</time>
      </trkpt>
      <trkpt lat="48.08637" lon="7.06591">
        <ele>1038</ele>
        <time>2021-08-05T13:18:43Z</time>
      </trkpt>
      <trkpt lat="48.08637" lon="7.06588">
        <ele>1038.2</ele>
        <time>2021-08-05T13:18:45Z</time>
      </trkpt>
      <trkpt lat="48.08637" lon="7.06586">
        <ele>1038.3</ele>
        <time>2021-08-05T13:18:46Z</time>
      </trkpt>
      <trkpt lat="48.08638" lon="7.06584">
        <ele>1038.4</ele>
        <time>2021-08-05T13:18:47Z</time>
      </trkpt>
      <trkpt lat="48.08637" lon="7.06582">
        <ele>1038.5</ele>
        <time>2021-08-05T13:18:48Z</time>
      </trkpt>
      <trkpt lat="48.08638" lon="7.06581">
        <ele>1038.6</ele>
        <time>2021-08-05T13:18:50Z</time>
      </trkpt>
      <trkpt lat="48.08639" lon="7.06579">
        <ele>1038.8</ele>
        <time>2021-08-05T13:18:51Z</time>
      </trkpt>
      <trkpt lat="48.08639" lon="7.06577">
        <ele>1038.9</ele>
        <time>2021-08-05T13:18:52Z</time>
      </trkpt>
      <trkpt lat="48.08639" lon="7.06576">
        <ele>1038.9</ele>
        <time>2021-08-05T13:18:53Z</time>
      </trkpt>
      <trkpt lat="48.08638" lon="7.06577">
        <ele>1039</ele>
        <time>2021-08-05T13:18:55Z</time>
      </trkpt>
      <trkpt lat="48.08638" lon="7.06577">
        <ele>1039</ele>
        <time>2021-08-05T13:18:56Z</time>
      </trkpt>
      <trkpt lat="48.08638" lon="7.06576">
        <ele>1039.1</ele>
        <time>2021-08-05T13:18:57Z</time>
      </trkpt>
      <trkpt lat="48.08638" lon="7.06576">
        <ele>1039.1</ele>
        <time>2021-08-05T13:18:58Z</time>
      </trkpt>
      <trkpt lat="48.08639" lon="7.06575">
        <ele>1039.2</ele>
        <time>2021-08-05T13:19:00Z</time>
      </trkpt>
      <trkpt lat="48.0864" lon="7.06575">
        <ele>1039.2</ele>
        <time>2021-08-05T13:19:01Z</time>
      </trkpt>
      <trkpt lat="48.08641" lon="7.06575">
        <ele>1039.3</ele>
        <time>2021-08-05T13:19:02Z</time>
      </trkpt>
      <trkpt lat="48.08649" lon="7.0656">
        <ele>1040.1</ele>
        <time>2021-08-05T13:19:23Z</time>
      </trkpt>
      <trkpt lat="48.08648" lon="7.06557">
        <ele>1040.3</ele>
        <time>2021-08-05T13:19:24Z</time>
      </trkpt>
      <trkpt lat="48.08647" lon="7.06555">
        <ele>1040.4</ele>
        <time>2021-08-05T13:19:25Z</time>
      </trkpt>
      <trkpt lat="48.08646" lon="7.06552">
        <ele>1040.6</ele>
        <time>2021-08-05T13:19:26Z</time>
      </trkpt>
      <trkpt lat="48.08645" lon="7.06551">
        <ele>1040.7</ele>
        <time>2021-08-05T13:19:27Z</time>
      </trkpt>
      <trkpt lat="48.08643" lon="7.06547">
        <ele>1040.9</ele>
        <time>2021-08-05T13:19:29Z</time>
      </trkpt>
      <trkpt lat="48.08642" lon="7.06547">
        <ele>1041</ele>
        <time>2021-08-05T13:19:30Z</time>
      </trkpt>
      <trkpt lat="48.08641" lon="7.06546">
        <ele>1041.1</ele>
        <time>2021-08-05T13:19:31Z</time>
      </trkpt>
      <trkpt lat="48.0864" lon="7.06546">
        <ele>1041.2</ele>
        <time>2021-08-05T13:19:33Z</time>
      </trkpt>
      <trkpt lat="48.08638" lon="7.06545">
        <ele>1041.3</ele>
        <time>2021-08-05T13:19:34Z</time>
      </trkpt>
      <trkpt lat="48.08637" lon="7.06545">
        <ele>1041.4</ele>
        <time>2021-08-05T13:19:35Z</time>
      </trkpt>
      <trkpt lat="48.08635" lon="7.06546">
        <ele>1041.5</ele>
        <time>2021-08-05T13:19:36Z</time>
      </trkpt>
      <trkpt lat="48.08633" lon="7.06546">
        <ele>1041.7</ele>
        <time>2021-08-05T13:19:37Z</time>
      </trkpt>
      <trkpt lat="48.0863" lon="7.06546">
        <ele>1041.9</ele>
        <time>2021-08-05T13:19:39Z</time>
      </trkpt>
      <trkpt lat="48.08629" lon="7.06546">
        <ele>1042</ele>
        <time>2021-08-05T13:19:40Z</time>
      </trkpt>
      <trkpt lat="48.08627" lon="7.06546">
        <ele>1042.1</ele>
        <time>2021-08-05T13:19:41Z</time>
      </trkpt>
      <trkpt lat="48.08624" lon="7.06546">
        <ele>1042.4</ele>
        <time>2021-08-05T13:19:42Z</time>
      </trkpt>
      <trkpt lat="48.08623" lon="7.06546">
        <ele>1042.4</ele>
        <time>2021-08-05T13:19:43Z</time>
      </trkpt>
      <trkpt lat="48.08623" lon="7.06546">
        <ele>1042.5</ele>
        <time>2021-08-05T13:19:45Z</time>
      </trkpt>
      <trkpt lat="48.08622" lon="7.06545">
        <ele>1042.5</ele>
        <time>2021-08-05T13:19:46Z</time>
      </trkpt>
      <trkpt lat="48.08622" lon="7.06544">
        <ele>1042.6</ele>
        <time>2021-08-05T13:19:47Z</time>
      </trkpt>
      <trkpt lat="48.08621" lon="7.06544">
        <ele>1042.7</ele>
        <time>2021-08-05T13:19:48Z</time>
      </trkpt>
      <trkpt lat="48.08617" lon="7.06538">
        <ele>1043.1</ele>
        <time>2021-08-05T13:19:49Z</time>
      </trkpt>
      <trkpt lat="48.08614" lon="7.06533">
        <ele>1043.4</ele>
        <time>2021-08-05T13:19:51Z</time>
      </trkpt>
      <trkpt lat="48.08611" lon="7.06528">
        <ele>1043.7</ele>
        <time>2021-08-05T13:19:52Z</time>
      </trkpt>
      <trkpt lat="48.08607" lon="7.06523">
        <ele>1044</ele>
        <time>2021-08-05T13:20:07Z</time>
      </trkpt>
      <trkpt lat="48.08604" lon="7.06518">
        <ele>1044.4</ele>
        <time>2021-08-05T13:20:08Z</time>
      </trkpt>
      <trkpt lat="48.08601" lon="7.06513">
        <ele>1044.7</ele>
        <time>2021-08-05T13:20:09Z</time>
      </trkpt>
      <trkpt lat="48.086" lon="7.0651">
        <ele>1044.8</ele>
        <time>2021-08-05T13:20:11Z</time>
      </trkpt>
      <trkpt lat="48.086" lon="7.06508">
        <ele>1044.9</ele>
        <time>2021-08-05T13:20:12Z</time>
      </trkpt>
      <trkpt lat="48.08599" lon="7.06506">
        <ele>1045</ele>
        <time>2021-08-05T13:20:13Z</time>
      </trkpt>
      <trkpt lat="48.08599" lon="7.06505">
        <ele>1045.1</ele>
        <time>2021-08-05T13:20:14Z</time>
      </trkpt>
      <trkpt lat="48.08599" lon="7.06504">
        <ele>1045.1</ele>
        <time>2021-08-05T13:20:16Z</time>
      </trkpt>
      <trkpt lat="48.08599" lon="7.06504">
        <ele>1045.1</ele>
        <time>2021-08-05T13:20:17Z</time>
      </trkpt>
      <trkpt lat="48.08599" lon="7.06503">
        <ele>1045.1</ele>
        <time>2021-08-05T13:20:18Z</time>
      </trkpt>
      <trkpt lat="48.08598" lon="7.06503">
        <ele>1045.1</ele>
        <time>2021-08-05T13:20:19Z</time>
      </trkpt>
      <trkpt lat="48.08598" lon="7.06503">
        <ele>1045.2</ele>
        <time>2021-08-05T13:20:20Z</time>
      </trkpt>
      <trkpt lat="48.08598" lon="7.06502">
        <ele>1045.2</ele>
        <time>2021-08-05T13:20:21Z</time>
      </trkpt>
      <trkpt lat="48.08598" lon="7.06502">
        <ele>1045.2</ele>
        <time>2021-08-05T13:20:23Z</time>
      </trkpt>
      <trkpt lat="48.08593" lon="7.06477">
        <ele>1046.1</ele>
        <time>2021-08-05T13:20:31Z</time>
      </trkpt>
      <trkpt lat="48.08591" lon="7.06472">
        <ele>1046.3</ele>
        <time>2021-08-05T13:20:32Z</time>
      </trkpt>
      <trkpt lat="48.08591" lon="7.0647">
        <ele>1046.3</ele>
        <time>2021-08-05T13:20:33Z</time>
      </trkpt>
      <trkpt lat="48.0859" lon="7.0647">
        <ele>1046.4</ele>
        <time>2021-08-05T13:20:34Z</time>
      </trkpt>
      <trkpt lat="48.08589" lon="7.06468">
        <ele>1046.4</ele>
        <time>2021-08-05T13:20:35Z</time>
      </trkpt>
      <trkpt lat="48.08587" lon="7.06466">
        <ele>1046.5</ele>
        <time>2021-08-05T13:20:37Z</time>
      </trkpt>
      <trkpt lat="48.08586" lon="7.0646">
        <ele>1046.7</ele>
        <time>2021-08-05T13:20:38Z</time>
      </trkpt>
      <trkpt lat="48.08585" lon="7.06457">
        <ele>1046.8</ele>
        <time>2021-08-05T13:20:39Z</time>
      </trkpt>
      <trkpt lat="48.08585" lon="7.06452">
        <ele>1046.9</ele>
        <time>2021-08-05T13:20:40Z</time>
      </trkpt>
      <trkpt lat="48.08584" lon="7.06451">
        <ele>1046.9</ele>
        <time>2021-08-05T13:20:41Z</time>
      </trkpt>
      <trkpt lat="48.08583" lon="7.06449">
        <ele>1047</ele>
        <time>2021-08-05T13:20:42Z</time>
      </trkpt>
      <trkpt lat="48.08581" lon="7.06446">
        <ele>1047.1</ele>
        <time>2021-08-05T13:20:44Z</time>
      </trkpt>
      <trkpt lat="48.08581" lon="7.06443">
        <ele>1047.2</ele>
        <time>2021-08-05T13:20:45Z</time>
      </trkpt>
      <trkpt lat="48.0858" lon="7.06441">
        <ele>1047.3</ele>
        <time>2021-08-05T13:20:47Z</time>
      </trkpt>
      <trkpt lat="48.08579" lon="7.06435">
        <ele>1047.5</ele>
        <time>2021-08-05T13:20:48Z</time>
      </trkpt>
      <trkpt lat="48.08579" lon="7.06433">
        <ele>1047.5</ele>
        <time>2021-08-05T13:20:49Z</time>
      </trkpt>
      <trkpt lat="48.08578" lon="7.06429">
        <ele>1047.6</ele>
        <time>2021-08-05T13:20:51Z</time>
      </trkpt>
      <trkpt lat="48.08578" lon="7.06424">
        <ele>1047.8</ele>
        <time>2021-08-05T13:20:52Z</time>
      </trkpt>
      <trkpt lat="48.08578" lon="7.06423">
        <ele>1047.8</ele>
        <time>2021-08-05T13:20:53Z</time>
      </trkpt>
      <trkpt lat="48.08579" lon="7.06423">
        <ele>1047.8</ele>
        <time>2021-08-05T13:20:55Z</time>
      </trkpt>
      <trkpt lat="48.08579" lon="7.06422">
        <ele>1047.8</ele>
        <time>2021-08-05T13:20:56Z</time>
      </trkpt>
      <trkpt lat="48.08578" lon="7.06422">
        <ele>1047.8</ele>
        <time>2021-08-05T13:20:57Z</time>
      </trkpt>
      <trkpt lat="48.08578" lon="7.06422">
        <ele>1047.8</ele>
        <time>2021-08-05T13:20:59Z</time>
      </trkpt>
      <trkpt lat="48.08578" lon="7.06421">
        <ele>1047.8</ele>
        <time>2021-08-05T13:21:01Z</time>
      </trkpt>
      <trkpt lat="48.08579" lon="7.0642">
        <ele>1047.9</ele>
        <time>2021-08-05T13:21:03Z</time>
      </trkpt>
      <trkpt lat="48.08588" lon="7.06405">
        <ele>1048.5</ele>
        <time>2021-08-05T13:21:10Z</time>
      </trkpt>
      <trkpt lat="48.08593" lon="7.06403">
        <ele>1048.9</ele>
        <time>2021-08-05T13:21:12Z</time>
      </trkpt>
      <trkpt lat="48.08595" lon="7.06403">
        <ele>1049.1</ele>
        <time>2021-08-05T13:21:13Z</time>
      </trkpt>
      <trkpt lat="48.08603" lon="7.06403">
        <ele>1049.8</ele>
        <time>2021-08-05T13:21:15Z</time>
      </trkpt>
      <trkpt lat="48.08609" lon="7.06401">
        <ele>1050.5</ele>
        <time>2021-08-05T13:21:17Z</time>
      </trkpt>
      <trkpt lat="48.08612" lon="7.06401">
        <ele>1050.7</ele>
        <time>2021-08-05T13:21:18Z</time>
      </trkpt>
      <trkpt lat="48.08618" lon="7.064">
        <ele>1051.3</ele>
        <time>2021-08-05T13:21:19Z</time>
      </trkpt>
      <trkpt lat="48.0862" lon="7.064">
        <ele>1051.5</ele>
        <time>2021-08-05T13:21:20Z</time>
      </trkpt>
      <trkpt lat="48.08626" lon="7.06401">
        <ele>1052</ele>
        <time>2021-08-05T13:21:22Z</time>
      </trkpt>
      <trkpt lat="48.08631" lon="7.06398">
        <ele>1052.5</ele>
        <time>2021-08-05T13:21:24Z</time>
      </trkpt>
      <trkpt lat="48.08633" lon="7.06395">
        <ele>1052.7</ele>
        <time>2021-08-05T13:21:26Z</time>
      </trkpt>
      <trkpt lat="48.08632" lon="7.06392">
        <ele>1052.9</ele>
        <time>2021-08-05T13:21:27Z</time>
      </trkpt>
      <trkpt lat="48.08631" lon="7.06389">
        <ele>1053</ele>
        <time>2021-08-05T13:21:29Z</time>
      </trkpt>
      <trkpt lat="48.08632" lon="7.06388">
        <ele>1053.1</ele>
        <time>2021-08-05T13:21:30Z</time>
      </trkpt>
      <trkpt lat="48.08632" lon="7.06387">
        <ele>1053.1</ele>
        <time>2021-08-05T13:21:31Z</time>
      </trkpt>
      <trkpt lat="48.08633" lon="7.06385">
        <ele>1053.2</ele>
        <time>2021-08-05T13:21:32Z</time>
      </trkpt>
      <trkpt lat="48.08633" lon="7.06384">
        <ele>1053.3</ele>
        <time>2021-08-05T13:21:33Z</time>
      </trkpt>
      <trkpt lat="48.08634" lon="7.06383">
        <ele>1053.3</ele>
        <time>2021-08-05T13:21:35Z</time>
      </trkpt>
      <trkpt lat="48.08634" lon="7.0638">
        <ele>1053.4</ele>
        <time>2021-08-05T13:21:36Z</time>
      </trkpt>
      <trkpt lat="48.08634" lon="7.06374">
        <ele>1053.7</ele>
        <time>2021-08-05T13:21:38Z</time>
      </trkpt>
      <trkpt lat="48.08634" lon="7.06373">
        <ele>1053.7</ele>
        <time>2021-08-05T13:21:39Z</time>
      </trkpt>
      <trkpt lat="48.08634" lon="7.06371">
        <ele>1053.8</ele>
        <time>2021-08-05T13:21:40Z</time>
      </trkpt>
      <trkpt lat="48.08636" lon="7.06369">
        <ele>1053.9</ele>
        <time>2021-08-05T13:21:41Z</time>
      </trkpt>
      <trkpt lat="48.08638" lon="7.06366">
        <ele>1054.1</ele>
        <time>2021-08-05T13:21:42Z</time>
      </trkpt>
      <trkpt lat="48.0864" lon="7.06364">
        <ele>1054.2</ele>
        <time>2021-08-05T13:21:43Z</time>
      </trkpt>
      <trkpt lat="48.08644" lon="7.06361">
        <ele>1054.5</ele>
        <time>2021-08-05T13:21:45Z</time>
      </trkpt>
      <trkpt lat="48.08647" lon="7.06357">
        <ele>1054.7</ele>
        <time>2021-08-05T13:21:46Z</time>
      </trkpt>
      <trkpt lat="48.08649" lon="7.06355">
        <ele>1054.9</ele>
        <time>2021-08-05T13:21:47Z</time>
      </trkpt>
      <trkpt lat="48.08651" lon="7.06351">
        <ele>1055.1</ele>
        <time>2021-08-05T13:21:49Z</time>
      </trkpt>
      <trkpt lat="48.08653" lon="7.06347">
        <ele>1055.3</ele>
        <time>2021-08-05T13:21:50Z</time>
      </trkpt>
      <trkpt lat="48.08654" lon="7.06345">
        <ele>1055.4</ele>
        <time>2021-08-05T13:21:51Z</time>
      </trkpt>
      <trkpt lat="48.08657" lon="7.06341">
        <ele>1055.7</ele>
        <time>2021-08-05T13:21:52Z</time>
      </trkpt>
      <trkpt lat="48.08659" lon="7.06335">
        <ele>1056</ele>
        <time>2021-08-05T13:21:54Z</time>
      </trkpt>
      <trkpt lat="48.08659" lon="7.06333">
        <ele>1056.1</ele>
        <time>2021-08-05T13:21:55Z</time>
      </trkpt>
      <trkpt lat="48.0866" lon="7.06332">
        <ele>1056.2</ele>
        <time>2021-08-05T13:21:56Z</time>
      </trkpt>
      <trkpt lat="48.0866" lon="7.06329">
        <ele>1056.3</ele>
        <time>2021-08-05T13:21:57Z</time>
      </trkpt>
      <trkpt lat="48.08661" lon="7.06327">
        <ele>1056.4</ele>
        <time>2021-08-05T13:21:59Z</time>
      </trkpt>
      <trkpt lat="48.08664" lon="7.06326">
        <ele>1056.6</ele>
        <time>2021-08-05T13:22:00Z</time>
      </trkpt>
      <trkpt lat="48.08665" lon="7.06323">
        <ele>1056.8</ele>
        <time>2021-08-05T13:22:01Z</time>
      </trkpt>
      <trkpt lat="48.08666" lon="7.06322">
        <ele>1056.9</ele>
        <time>2021-08-05T13:22:02Z</time>
      </trkpt>
      <trkpt lat="48.08669" lon="7.06319">
        <ele>1057.4</ele>
        <time>2021-08-05T13:22:04Z</time>
      </trkpt>
      <trkpt lat="48.08672" lon="7.06319">
        <ele>1057.4</ele>
        <time>2021-08-05T13:22:05Z</time>
      </trkpt>
      <trkpt lat="48.08673" lon="7.06318">
        <ele>1057.4</ele>
        <time>2021-08-05T13:22:06Z</time>
      </trkpt>
      <trkpt lat="48.08674" lon="7.06317">
        <ele>1057.5</ele>
        <time>2021-08-05T13:22:07Z</time>
      </trkpt>
      <trkpt lat="48.08676" lon="7.06315">
        <ele>1057.5</ele>
        <time>2021-08-05T13:22:09Z</time>
      </trkpt>
      <trkpt lat="48.08678" lon="7.06313">
        <ele>1057.5</ele>
        <time>2021-08-05T13:22:10Z</time>
      </trkpt>
      <trkpt lat="48.08679" lon="7.0631">
        <ele>1057.5</ele>
        <time>2021-08-05T13:22:13Z</time>
      </trkpt>
      <trkpt lat="48.08678" lon="7.0631">
        <ele>1057.5</ele>
        <time>2021-08-05T13:22:14Z</time>
      </trkpt>
      <trkpt lat="48.08678" lon="7.06309">
        <ele>1057.5</ele>
        <time>2021-08-05T13:22:15Z</time>
      </trkpt>
      <trkpt lat="48.0868" lon="7.06306">
        <ele>1057.5</ele>
        <time>2021-08-05T13:22:17Z</time>
      </trkpt>
      <trkpt lat="48.08682" lon="7.06306">
        <ele>1057.5</ele>
        <time>2021-08-05T13:22:19Z</time>
      </trkpt>
      <trkpt lat="48.08684" lon="7.06305">
        <ele>1057.5</ele>
        <time>2021-08-05T13:22:20Z</time>
      </trkpt>
      <trkpt lat="48.08687" lon="7.06304">
        <ele>1057.5</ele>
        <time>2021-08-05T13:22:21Z</time>
      </trkpt>
      <trkpt lat="48.08688" lon="7.06304">
        <ele>1057.6</ele>
        <time>2021-08-05T13:22:22Z</time>
      </trkpt>
      <trkpt lat="48.08688" lon="7.06303">
        <ele>1057.5</ele>
        <time>2021-08-05T13:22:24Z</time>
      </trkpt>
      <trkpt lat="48.08689" lon="7.06303">
        <ele>1057.5</ele>
        <time>2021-08-05T13:22:26Z</time>
      </trkpt>
      <trkpt lat="48.0869" lon="7.06302">
        <ele>1057.5</ele>
        <time>2021-08-05T13:22:28Z</time>
      </trkpt>
      <trkpt lat="48.0869" lon="7.06301">
        <ele>1057.5</ele>
        <time>2021-08-05T13:22:30Z</time>
      </trkpt>
      <trkpt lat="48.0869" lon="7.06301">
        <ele>1057.5</ele>
        <time>2021-08-05T13:22:31Z</time>
      </trkpt>
      <trkpt lat="48.08678" lon="7.06308">
        <ele>1057.5</ele>
        <time>2021-08-05T13:22:59Z</time>
      </trkpt>
      <trkpt lat="48.08679" lon="7.06307">
        <ele>1057.5</ele>
        <time>2021-08-05T13:23:01Z</time>
      </trkpt>
      <trkpt lat="48.0868" lon="7.06308">
        <ele>1057.5</ele>
        <time>2021-08-05T13:23:03Z</time>
      </trkpt>
      <trkpt lat="48.0868" lon="7.06309">
        <ele>1057.5</ele>
        <time>2021-08-05T13:23:06Z</time>
      </trkpt>
      <trkpt lat="48.0868" lon="7.06309">
        <ele>1057.5</ele>
        <time>2021-08-05T13:23:07Z</time>
      </trkpt>
      <trkpt lat="48.0868" lon="7.06309">
        <ele>1057.5</ele>
        <time>2021-08-05T13:23:09Z</time>
      </trkpt>
      <trkpt lat="48.0868" lon="7.06309">
        <ele>1057.5</ele>
        <time>2021-08-05T13:23:11Z</time>
      </trkpt>
      <trkpt lat="48.0868" lon="7.06309">
        <ele>1057.5</ele>
        <time>2021-08-05T13:23:12Z</time>
      </trkpt>
      <trkpt lat="48.0868" lon="7.06309">
        <ele>1057.5</ele>
        <time>2021-08-05T13:23:14Z</time>
      </trkpt>
      <trkpt lat="48.0868" lon="7.06309">
        <ele>1057.5</ele>
        <time>2021-08-05T13:23:15Z</time>
      </trkpt>
      <trkpt lat="48.0868" lon="7.06309">
        <ele>1057.5</ele>
        <time>2021-08-05T13:23:16Z</time>
      </trkpt>
      <trkpt lat="48.0868" lon="7.06309">
        <ele>1057.5</ele>
        <time>2021-08-05T13:23:18Z</time>
      </trkpt>
      <trkpt lat="48.08679" lon="7.06309">
        <ele>1057.5</ele>
        <time>2021-08-05T13:23:19Z</time>
      </trkpt>
      <trkpt lat="48.08679" lon="7.06309">
        <ele>1057.5</ele>
        <time>2021-08-05T13:23:20Z</time>
      </trkpt>
      <trkpt lat="48.08679" lon="7.06309">
        <ele>1057.5</ele>
        <time>2021-08-05T13:23:23Z</time>
      </trkpt>
      <trkpt lat="48.08679" lon="7.06309">
        <ele>1057.5</ele>
        <time>2021-08-05T13:23:24Z</time>
      </trkpt>
      <trkpt lat="48.08679" lon="7.06309">
        <ele>1057.5</ele>
        <time>2021-08-05T13:23:25Z</time>
      </trkpt>
      <trkpt lat="48.08679" lon="7.06309">
        <ele>1057.5</ele>
        <time>2021-08-05T13:23:27Z</time>
      </trkpt>
      <trkpt lat="48.0868" lon="7.06309">
        <ele>1057.5</ele>
        <time>2021-08-05T13:23:28Z</time>
      </trkpt>
      <trkpt lat="48.0868" lon="7.06309">
        <ele>1057.5</ele>
        <time>2021-08-05T13:23:30Z</time>
      </trkpt>
      <trkpt lat="48.0868" lon="7.06309">
        <ele>1057.5</ele>
        <time>2021-08-05T13:23:32Z</time>
      </trkpt>
      <trkpt lat="48.0868" lon="7.06309">
        <ele>1057.5</ele>
        <time>2021-08-05T13:23:34Z</time>
      </trkpt>
      <trkpt lat="48.0868" lon="7.06309">
        <ele>1057.5</ele>
        <time>2021-08-05T13:23:35Z</time>
      </trkpt>
      <trkpt lat="48.0868" lon="7.06309">
        <ele>1057.5</ele>
        <time>2021-08-05T13:23:36Z</time>
      </trkpt>
      <trkpt lat="48.0868" lon="7.06309">
        <ele>1057.5</ele>
        <time>2021-08-05T13:23:38Z</time>
      </trkpt>
      <trkpt lat="48.0868" lon="7.06309">
        <ele>1057.5</ele>
        <time>2021-08-05T13:23:40Z</time>
      </trkpt>
      <trkpt lat="48.0868" lon="7.06309">
        <ele>1057.5</ele>
        <time>2021-08-05T13:23:41Z</time>
      </trkpt>
      <trkpt lat="48.0868" lon="7.06309">
        <ele>1057.5</ele>
        <time>2021-08-05T13:23:42Z</time>
      </trkpt>
      <trkpt lat="48.0868" lon="7.06309">
        <ele>1057.5</ele>
        <time>2021-08-05T13:23:43Z</time>
      </trkpt>
      <trkpt lat="48.0868" lon="7.06309">
        <ele>1057.5</ele>
        <time>2021-08-05T13:23:45Z</time>
      </trkpt>
      <trkpt lat="48.0868" lon="7.06308">
        <ele>1057.5</ele>
        <time>2021-08-05T13:23:46Z</time>
      </trkpt>
      <trkpt lat="48.0868" lon="7.06307">
        <ele>1057.5</ele>
        <time>2021-08-05T13:23:47Z</time>
      </trkpt>
      <trkpt lat="48.0868" lon="7.06305">
        <ele>1057.5</ele>
        <time>2021-08-05T13:23:48Z</time>
      </trkpt>
      <trkpt lat="48.08679" lon="7.06303">
        <ele>1057.5</ele>
        <time>2021-08-05T13:23:49Z</time>
      </trkpt>
      <trkpt lat="48.08677" lon="7.06301">
        <ele>1057.5</ele>
        <time>2021-08-05T13:23:50Z</time>
      </trkpt>
      <trkpt lat="48.08675" lon="7.06301">
        <ele>1057.5</ele>
        <time>2021-08-05T13:23:52Z</time>
      </trkpt>
      <trkpt lat="48.08674" lon="7.063">
        <ele>1057.5</ele>
        <time>2021-08-05T13:23:53Z</time>
      </trkpt>
      <trkpt lat="48.08671" lon="7.063">
        <ele>1057.4</ele>
        <time>2021-08-05T13:23:55Z</time>
      </trkpt>
      <trkpt lat="48.08665" lon="7.06299">
        <ele>1057.4</ele>
        <time>2021-08-05T13:23:57Z</time>
      </trkpt>
      <trkpt lat="48.08662" lon="7.06298">
        <ele>1058.4</ele>
        <time>2021-08-05T13:23:58Z</time>
      </trkpt>
      <trkpt lat="48.08661" lon="7.06297">
        <ele>1058.5</ele>
        <time>2021-08-05T13:23:59Z</time>
      </trkpt>
      <trkpt lat="48.08658" lon="7.06295">
        <ele>1058.7</ele>
        <time>2021-08-05T13:24:01Z</time>
      </trkpt>
      <trkpt lat="48.08657" lon="7.06294">
        <ele>1058.8</ele>
        <time>2021-08-05T13:24:02Z</time>
      </trkpt>
      <trkpt lat="48.08657" lon="7.06294">
        <ele>1058.8</ele>
        <time>2021-08-05T13:24:04Z</time>
      </trkpt>
      <trkpt lat="48.08657" lon="7.06294">
        <ele>1058.8</ele>
        <time>2021-08-05T13:24:05Z</time>
      </trkpt>
      <trkpt lat="48.08657" lon="7.06294">
        <ele>1058.8</ele>
        <time>2021-08-05T13:24:06Z</time>
      </trkpt>
      <trkpt lat="48.08657" lon="7.06294">
        <ele>1058.9</ele>
        <time>2021-08-05T13:24:07Z</time>
      </trkpt>
      <trkpt lat="48.08657" lon="7.06294">
        <ele>1058.9</ele>
        <time>2021-08-05T13:24:09Z</time>
      </trkpt>
      <trkpt lat="48.08657" lon="7.06294">
        <ele>1058.9</ele>
        <time>2021-08-05T13:24:10Z</time>
      </trkpt>
      <trkpt lat="48.08657" lon="7.06294">
        <ele>1058.9</ele>
        <time>2021-08-05T13:24:11Z</time>
      </trkpt>
      <trkpt lat="48.08657" lon="7.06293">
        <ele>1058.9</ele>
        <time>2021-08-05T13:24:13Z</time>
      </trkpt>
      <trkpt lat="48.08667" lon="7.06278">
        <ele>1059.9</ele>
        <time>2021-08-05T13:29:43Z</time>
      </trkpt>
      <trkpt lat="48.08662" lon="7.06284">
        <ele>1060.4</ele>
        <time>2021-08-05T13:29:45Z</time>
      </trkpt>
      <trkpt lat="48.08654" lon="7.06297">
        <ele>1061.2</ele>
        <time>2021-08-05T13:29:46Z</time>
      </trkpt>
      <trkpt lat="48.08647" lon="7.06309">
        <ele>1062.1</ele>
        <time>2021-08-05T13:29:48Z</time>
      </trkpt>
      <trkpt lat="48.08637" lon="7.06327">
        <ele>1063.1</ele>
        <time>2021-08-05T13:29:50Z</time>
      </trkpt>
      <trkpt lat="48.08634" lon="7.06332">
        <ele>1063.3</ele>
        <time>2021-08-05T13:29:51Z</time>
      </trkpt>
      <trkpt lat="48.0863" lon="7.06338">
        <ele>1063.5</ele>
        <time>2021-08-05T13:29:52Z</time>
      </trkpt>
      <trkpt lat="48.08625" lon="7.06344">
        <ele>1063.6</ele>
        <time>2021-08-05T13:29:53Z</time>
      </trkpt>
      <trkpt lat="48.08621" lon="7.06349">
        <ele>1063.7</ele>
        <time>2021-08-05T13:29:55Z</time>
      </trkpt>
      <trkpt lat="48.08618" lon="7.06349">
        <ele>1063.8</ele>
        <time>2021-08-05T13:29:57Z</time>
      </trkpt>
      <trkpt lat="48.08618" lon="7.06349">
        <ele>1063.8</ele>
        <time>2021-08-05T13:29:58Z</time>
      </trkpt>
      <trkpt lat="48.08617" lon="7.06349">
        <ele>1063.8</ele>
        <time>2021-08-05T13:29:59Z</time>
      </trkpt>
      <trkpt lat="48.08618" lon="7.06347">
        <ele>1063.8</ele>
        <time>2021-08-05T13:30:00Z</time>
      </trkpt>
      <trkpt lat="48.08618" lon="7.06344">
        <ele>1063.8</ele>
        <time>2021-08-05T13:30:01Z</time>
      </trkpt>
      <trkpt lat="48.08619" lon="7.06337">
        <ele>1063.9</ele>
        <time>2021-08-05T13:30:03Z</time>
      </trkpt>
      <trkpt lat="48.0862" lon="7.06333">
        <ele>1063.9</ele>
        <time>2021-08-05T13:30:04Z</time>
      </trkpt>
      <trkpt lat="48.0862" lon="7.06322">
        <ele>1064</ele>
        <time>2021-08-05T13:30:06Z</time>
      </trkpt>
      <trkpt lat="48.08622" lon="7.06312">
        <ele>1064.1</ele>
        <time>2021-08-05T13:30:07Z</time>
      </trkpt>
      <trkpt lat="48.08623" lon="7.06305">
        <ele>1064.1</ele>
        <time>2021-08-05T13:30:09Z</time>
      </trkpt>
      <trkpt lat="48.08624" lon="7.063">
        <ele>1064.2</ele>
        <time>2021-08-05T13:30:11Z</time>
      </trkpt>
      <trkpt lat="48.08625" lon="7.06295">
        <ele>1064.2</ele>
        <time>2021-08-05T13:30:12Z</time>
      </trkpt>
      <trkpt lat="48.08625" lon="7.06289">
        <ele>1064.3</ele>
        <time>2021-08-05T13:30:13Z</time>
      </trkpt>
      <trkpt lat="48.08624" lon="7.06282">
        <ele>1064.3</ele>
        <time>2021-08-05T13:30:14Z</time>
      </trkpt>
      <trkpt lat="48.08624" lon="7.06276">
        <ele>1064.4</ele>
        <time>2021-08-05T13:30:16Z</time>
      </trkpt>
      <trkpt lat="48.08624" lon="7.0627">
        <ele>1064.5</ele>
        <time>2021-08-05T13:30:18Z</time>
      </trkpt>
      <trkpt lat="48.08624" lon="7.0626">
        <ele>1064.5</ele>
        <time>2021-08-05T13:30:19Z</time>
      </trkpt>
      <trkpt lat="48.08623" lon="7.06255">
        <ele>1064.6</ele>
        <time>2021-08-05T13:30:21Z</time>
      </trkpt>
      <trkpt lat="48.08622" lon="7.06251">
        <ele>1064.6</ele>
        <time>2021-08-05T13:30:22Z</time>
      </trkpt>
      <trkpt lat="48.08619" lon="7.06242">
        <ele>1064.7</ele>
        <time>2021-08-05T13:30:23Z</time>
      </trkpt>
      <trkpt lat="48.08614" lon="7.06232">
        <ele>1064.9</ele>
        <time>2021-08-05T13:30:25Z</time>
      </trkpt>
      <trkpt lat="48.08611" lon="7.06225">
        <ele>1064.9</ele>
        <time>2021-08-05T13:30:26Z</time>
      </trkpt>
      <trkpt lat="48.08607" lon="7.06215">
        <ele>1065.1</ele>
        <time>2021-08-05T13:30:27Z</time>
      </trkpt>
      <trkpt lat="48.08604" lon="7.0621">
        <ele>1065.1</ele>
        <time>2021-08-05T13:30:29Z</time>
      </trkpt>
      <trkpt lat="48.086" lon="7.06202">
        <ele>1065.2</ele>
        <time>2021-08-05T13:30:30Z</time>
      </trkpt>
      <trkpt lat="48.08599" lon="7.06198">
        <ele>1065.3</ele>
        <time>2021-08-05T13:30:32Z</time>
      </trkpt>
      <trkpt lat="48.08597" lon="7.06191">
        <ele>1065.3</ele>
        <time>2021-08-05T13:30:33Z</time>
      </trkpt>
      <trkpt lat="48.08594" lon="7.06183">
        <ele>1065.4</ele>
        <time>2021-08-05T13:30:35Z</time>
      </trkpt>
      <trkpt lat="48.08591" lon="7.06175">
        <ele>1065.5</ele>
        <time>2021-08-05T13:30:36Z</time>
      </trkpt>
      <trkpt lat="48.08588" lon="7.06169">
        <ele>1065.6</ele>
        <time>2021-08-05T13:30:38Z</time>
      </trkpt>
      <trkpt lat="48.08585" lon="7.06159">
        <ele>1065.7</ele>
        <time>2021-08-05T13:30:39Z</time>
      </trkpt>
      <trkpt lat="48.08582" lon="7.06153">
        <ele>1065.8</ele>
        <time>2021-08-05T13:30:41Z</time>
      </trkpt>
      <trkpt lat="48.08579" lon="7.06149">
        <ele>1065.8</ele>
        <time>2021-08-05T13:30:42Z</time>
      </trkpt>
      <trkpt lat="48.08573" lon="7.06143">
        <ele>1065.9</ele>
        <time>2021-08-05T13:30:43Z</time>
      </trkpt>
      <trkpt lat="48.08569" lon="7.06138">
        <ele>1065.8</ele>
        <time>2021-08-05T13:30:45Z</time>
      </trkpt>
      <trkpt lat="48.08567" lon="7.06135">
        <ele>1065.8</ele>
        <time>2021-08-05T13:30:46Z</time>
      </trkpt>
      <trkpt lat="48.08564" lon="7.06129">
        <ele>1065.9</ele>
        <time>2021-08-05T13:30:47Z</time>
      </trkpt>
      <trkpt lat="48.08562" lon="7.06122">
        <ele>1066</ele>
        <time>2021-08-05T13:30:49Z</time>
      </trkpt>
      <trkpt lat="48.0856" lon="7.06118">
        <ele>1066.1</ele>
        <time>2021-08-05T13:30:50Z</time>
      </trkpt>
      <trkpt lat="48.08555" lon="7.0611">
        <ele>1066.3</ele>
        <time>2021-08-05T13:30:52Z</time>
      </trkpt>
      <trkpt lat="48.08548" lon="7.06104">
        <ele>1066.5</ele>
        <time>2021-08-05T13:30:53Z</time>
      </trkpt>
      <trkpt lat="48.08545" lon="7.061">
        <ele>1066.6</ele>
        <time>2021-08-05T13:30:55Z</time>
      </trkpt>
      <trkpt lat="48.08544" lon="7.06096">
        <ele>1066.6</ele>
        <time>2021-08-05T13:30:56Z</time>
      </trkpt>
      <trkpt lat="48.08543" lon="7.06091">
        <ele>1066.7</ele>
        <time>2021-08-05T13:30:57Z</time>
      </trkpt>
      <trkpt lat="48.08543" lon="7.06081">
        <ele>1066.8</ele>
        <time>2021-08-05T13:30:58Z</time>
      </trkpt>
      <trkpt lat="48.08543" lon="7.06073">
        <ele>1066.9</ele>
        <time>2021-08-05T13:31:00Z</time>
      </trkpt>
      <trkpt lat="48.08544" lon="7.06065">
        <ele>1067.1</ele>
        <time>2021-08-05T13:31:01Z</time>
      </trkpt>
      <trkpt lat="48.08545" lon="7.0606">
        <ele>1067.3</ele>
        <time>2021-08-05T13:31:02Z</time>
      </trkpt>
      <trkpt lat="48.08546" lon="7.06056">
        <ele>1067.4</ele>
        <time>2021-08-05T13:31:03Z</time>
      </trkpt>
      <trkpt lat="48.08546" lon="7.06051">
        <ele>1067.6</ele>
        <time>2021-08-05T13:31:04Z</time>
      </trkpt>
      <trkpt lat="48.08546" lon="7.0605">
        <ele>1067.6</ele>
        <time>2021-08-05T13:31:05Z</time>
      </trkpt>
      <trkpt lat="48.08546" lon="7.06048">
        <ele>1067.7</ele>
        <time>2021-08-05T13:31:06Z</time>
      </trkpt>
      <trkpt lat="48.08546" lon="7.06047">
        <ele>1067.7</ele>
        <time>2021-08-05T13:31:07Z</time>
      </trkpt>
      <trkpt lat="48.08544" lon="7.06046">
        <ele>1067.9</ele>
        <time>2021-08-05T13:31:08Z</time>
      </trkpt>
      <trkpt lat="48.08541" lon="7.06041">
        <ele>1068.1</ele>
        <time>2021-08-05T13:31:10Z</time>
      </trkpt>
      <trkpt lat="48.0854" lon="7.06038">
        <ele>1068.3</ele>
        <time>2021-08-05T13:31:11Z</time>
      </trkpt>
      <trkpt lat="48.08539" lon="7.06033">
        <ele>1068.4</ele>
        <time>2021-08-05T13:31:12Z</time>
      </trkpt>
      <trkpt lat="48.08539" lon="7.06027">
        <ele>1068.5</ele>
        <time>2021-08-05T13:31:14Z</time>
      </trkpt>
      <trkpt lat="48.08538" lon="7.06017">
        <ele>1068.4</ele>
        <time>2021-08-05T13:31:16Z</time>
      </trkpt>
      <trkpt lat="48.08537" lon="7.06013">
        <ele>1068.3</ele>
        <time>2021-08-05T13:31:17Z</time>
      </trkpt>
      <trkpt lat="48.08535" lon="7.0601">
        <ele>1068.1</ele>
        <time>2021-08-05T13:31:18Z</time>
      </trkpt>
      <trkpt lat="48.08532" lon="7.06007">
        <ele>1068.1</ele>
        <time>2021-08-05T13:31:19Z</time>
      </trkpt>
      <trkpt lat="48.08529" lon="7.06004">
        <ele>1068</ele>
        <time>2021-08-05T13:31:20Z</time>
      </trkpt>
      <trkpt lat="48.08526" lon="7.06002">
        <ele>1068.1</ele>
        <time>2021-08-05T13:31:21Z</time>
      </trkpt>
      <trkpt lat="48.08523" lon="7.06002">
        <ele>1068.1</ele>
        <time>2021-08-05T13:31:23Z</time>
      </trkpt>
      <trkpt lat="48.08519" lon="7.06001">
        <ele>1068.2</ele>
        <time>2021-08-05T13:31:24Z</time>
      </trkpt>
      <trkpt lat="48.08516" lon="7.06001">
        <ele>1068.3</ele>
        <time>2021-08-05T13:31:25Z</time>
      </trkpt>
      <trkpt lat="48.0851" lon="7.06">
        <ele>1068.6</ele>
        <time>2021-08-05T13:31:26Z</time>
      </trkpt>
      <trkpt lat="48.08506" lon="7.06">
        <ele>1068.9</ele>
        <time>2021-08-05T13:31:28Z</time>
      </trkpt>
      <trkpt lat="48.08504" lon="7.06">
        <ele>1069</ele>
        <time>2021-08-05T13:31:29Z</time>
      </trkpt>
      <trkpt lat="48.08503" lon="7.06001">
        <ele>1069.1</ele>
        <time>2021-08-05T13:31:30Z</time>
      </trkpt>
      <trkpt lat="48.085" lon="7.06003">
        <ele>1069</ele>
        <time>2021-08-05T13:31:31Z</time>
      </trkpt>
      <trkpt lat="48.08499" lon="7.06004">
        <ele>1068.8</ele>
        <time>2021-08-05T13:31:32Z</time>
      </trkpt>
      <trkpt lat="48.08497" lon="7.06007">
        <ele>1068.6</ele>
        <time>2021-08-05T13:31:34Z</time>
      </trkpt>
      <trkpt lat="48.08493" lon="7.06008">
        <ele>1068.3</ele>
        <time>2021-08-05T13:31:36Z</time>
      </trkpt>
      <trkpt lat="48.08492" lon="7.06009">
        <ele>1068.2</ele>
        <time>2021-08-05T13:31:37Z</time>
      </trkpt>
      <trkpt lat="48.0849" lon="7.0601">
        <ele>1068.1</ele>
        <time>2021-08-05T13:31:38Z</time>
      </trkpt>
      <trkpt lat="48.08487" lon="7.0601">
        <ele>1067.8</ele>
        <time>2021-08-05T13:31:39Z</time>
      </trkpt>
      <trkpt lat="48.08485" lon="7.0601">
        <ele>1067.6</ele>
        <time>2021-08-05T13:31:40Z</time>
      </trkpt>
      <trkpt lat="48.08483" lon="7.06009">
        <ele>1067.4</ele>
        <time>2021-08-05T13:31:41Z</time>
      </trkpt>
      <trkpt lat="48.08481" lon="7.06009">
        <ele>1067.3</ele>
        <time>2021-08-05T13:31:43Z</time>
      </trkpt>
      <trkpt lat="48.08479" lon="7.06008">
        <ele>1067.1</ele>
        <time>2021-08-05T13:31:44Z</time>
      </trkpt>
      <trkpt lat="48.08477" lon="7.06008">
        <ele>1067</ele>
        <time>2021-08-05T13:31:45Z</time>
      </trkpt>
      <trkpt lat="48.08474" lon="7.06009">
        <ele>1066.8</ele>
        <time>2021-08-05T13:31:47Z</time>
      </trkpt>
      <trkpt lat="48.0847" lon="7.0601">
        <ele>1066.6</ele>
        <time>2021-08-05T13:31:48Z</time>
      </trkpt>
      <trkpt lat="48.08469" lon="7.06011">
        <ele>1066.5</ele>
        <time>2021-08-05T13:31:49Z</time>
      </trkpt>
      <trkpt lat="48.08469" lon="7.06013">
        <ele>1066.4</ele>
        <time>2021-08-05T13:31:50Z</time>
      </trkpt>
      <trkpt lat="48.08468" lon="7.06015">
        <ele>1066.4</ele>
        <time>2021-08-05T13:31:51Z</time>
      </trkpt>
      <trkpt lat="48.08465" lon="7.06017">
        <ele>1066.4</ele>
        <time>2021-08-05T13:31:53Z</time>
      </trkpt>
      <trkpt lat="48.08462" lon="7.06018">
        <ele>1066.5</ele>
        <time>2021-08-05T13:31:54Z</time>
      </trkpt>
      <trkpt lat="48.08459" lon="7.06018">
        <ele>1066.6</ele>
        <time>2021-08-05T13:31:55Z</time>
      </trkpt>
      <trkpt lat="48.08457" lon="7.06018">
        <ele>1066.6</ele>
        <time>2021-08-05T13:31:56Z</time>
      </trkpt>
      <trkpt lat="48.08454" lon="7.06018">
        <ele>1066.7</ele>
        <time>2021-08-05T13:31:57Z</time>
      </trkpt>
      <trkpt lat="48.08453" lon="7.06018">
        <ele>1066.8</ele>
        <time>2021-08-05T13:31:58Z</time>
      </trkpt>
      <trkpt lat="48.08449" lon="7.06017">
        <ele>1066.9</ele>
        <time>2021-08-05T13:32:00Z</time>
      </trkpt>
      <trkpt lat="48.08447" lon="7.06018">
        <ele>1066.9</ele>
        <time>2021-08-05T13:32:01Z</time>
      </trkpt>
      <trkpt lat="48.08446" lon="7.06018">
        <ele>1067</ele>
        <time>2021-08-05T13:32:02Z</time>
      </trkpt>
      <trkpt lat="48.08442" lon="7.06019">
        <ele>1067.1</ele>
        <time>2021-08-05T13:32:03Z</time>
      </trkpt>
      <trkpt lat="48.0844" lon="7.0602">
        <ele>1067.1</ele>
        <time>2021-08-05T13:32:04Z</time>
      </trkpt>
      <trkpt lat="48.08437" lon="7.06021">
        <ele>1067.2</ele>
        <time>2021-08-05T13:32:05Z</time>
      </trkpt>
      <trkpt lat="48.08436" lon="7.06021">
        <ele>1067.2</ele>
        <time>2021-08-05T13:32:06Z</time>
      </trkpt>
      <trkpt lat="48.08434" lon="7.06019">
        <ele>1067.3</ele>
        <time>2021-08-05T13:32:08Z</time>
      </trkpt>
      <trkpt lat="48.08432" lon="7.06017">
        <ele>1067.4</ele>
        <time>2021-08-05T13:32:10Z</time>
      </trkpt>
      <trkpt lat="48.08432" lon="7.06016">
        <ele>1067.4</ele>
        <time>2021-08-05T13:32:11Z</time>
      </trkpt>
      <trkpt lat="48.08432" lon="7.06013">
        <ele>1067.4</ele>
        <time>2021-08-05T13:32:13Z</time>
      </trkpt>
      <trkpt lat="48.08431" lon="7.06014">
        <ele>1067.5</ele>
        <time>2021-08-05T13:32:14Z</time>
      </trkpt>
      <trkpt lat="48.08431" lon="7.06011">
        <ele>1068.1</ele>
        <time>2021-08-05T13:32:16Z</time>
      </trkpt>
      <trkpt lat="48.08428" lon="7.06008">
        <ele>1068.5</ele>
        <time>2021-08-05T13:32:17Z</time>
      </trkpt>
      <trkpt lat="48.08427" lon="7.06006">
        <ele>1068.4</ele>
        <time>2021-08-05T13:32:18Z</time>
      </trkpt>
      <trkpt lat="48.08425" lon="7.06">
        <ele>1069.5</ele>
        <time>2021-08-05T13:32:20Z</time>
      </trkpt>
      <trkpt lat="48.08424" lon="7.05995">
        <ele>1069.8</ele>
        <time>2021-08-05T13:32:21Z</time>
      </trkpt>
      <trkpt lat="48.08424" lon="7.05994">
        <ele>1069.9</ele>
        <time>2021-08-05T13:32:22Z</time>
      </trkpt>
      <trkpt lat="48.08424" lon="7.05984">
        <ele>1070.9</ele>
        <time>2021-08-05T13:32:24Z</time>
      </trkpt>
      <trkpt lat="48.08425" lon="7.05979">
        <ele>1072.1</ele>
        <time>2021-08-05T13:32:25Z</time>
      </trkpt>
      <trkpt lat="48.08425" lon="7.05968">
        <ele>1073.1</ele>
        <time>2021-08-05T13:32:27Z</time>
      </trkpt>
      <trkpt lat="48.08424" lon="7.05961">
        <ele>1073.7</ele>
        <time>2021-08-05T13:32:28Z</time>
      </trkpt>
      <trkpt lat="48.08422" lon="7.05955">
        <ele>1074.2</ele>
        <time>2021-08-05T13:32:29Z</time>
      </trkpt>
      <trkpt lat="48.08416" lon="7.05942">
        <ele>1074.9</ele>
        <time>2021-08-05T13:32:31Z</time>
      </trkpt>
      <trkpt lat="48.08414" lon="7.05937">
        <ele>1074.9</ele>
        <time>2021-08-05T13:32:32Z</time>
      </trkpt>
      <trkpt lat="48.0841" lon="7.05927">
        <ele>1076</ele>
        <time>2021-08-05T13:32:34Z</time>
      </trkpt>
      <trkpt lat="48.08409" lon="7.05922">
        <ele>1076</ele>
        <time>2021-08-05T13:32:35Z</time>
      </trkpt>
      <trkpt lat="48.08409" lon="7.05916">
        <ele>1076.5</ele>
        <time>2021-08-05T13:32:36Z</time>
      </trkpt>
      <trkpt lat="48.08409" lon="7.05909">
        <ele>1077.3</ele>
        <time>2021-08-05T13:32:37Z</time>
      </trkpt>
      <trkpt lat="48.08408" lon="7.059">
        <ele>1078.1</ele>
        <time>2021-08-05T13:32:39Z</time>
      </trkpt>
      <trkpt lat="48.08406" lon="7.05892">
        <ele>1078.3</ele>
        <time>2021-08-05T13:32:40Z</time>
      </trkpt>
      <trkpt lat="48.08404" lon="7.05882">
        <ele>1079.1</ele>
        <time>2021-08-05T13:32:42Z</time>
      </trkpt>
      <trkpt lat="48.08403" lon="7.05874">
        <ele>1079.2</ele>
        <time>2021-08-05T13:32:43Z</time>
      </trkpt>
      <trkpt lat="48.08402" lon="7.0587">
        <ele>1079.5</ele>
        <time>2021-08-05T13:32:44Z</time>
      </trkpt>
      <trkpt lat="48.08401" lon="7.05866">
        <ele>1079.3</ele>
        <time>2021-08-05T13:32:45Z</time>
      </trkpt>
      <trkpt lat="48.08401" lon="7.05861">
        <ele>1079.6</ele>
        <time>2021-08-05T13:32:46Z</time>
      </trkpt>
      <trkpt lat="48.08399" lon="7.05856">
        <ele>1080</ele>
        <time>2021-08-05T13:32:48Z</time>
      </trkpt>
      <trkpt lat="48.08396" lon="7.05852">
        <ele>1079.8</ele>
        <time>2021-08-05T13:32:49Z</time>
      </trkpt>
      <trkpt lat="48.08394" lon="7.05851">
        <ele>1079.2</ele>
        <time>2021-08-05T13:32:50Z</time>
      </trkpt>
      <trkpt lat="48.08388" lon="7.05853">
        <ele>1078.1</ele>
        <time>2021-08-05T13:32:52Z</time>
      </trkpt>
      <trkpt lat="48.08382" lon="7.05852">
        <ele>1077</ele>
        <time>2021-08-05T13:32:54Z</time>
      </trkpt>
      <trkpt lat="48.08377" lon="7.0585">
        <ele>1076.5</ele>
        <time>2021-08-05T13:32:56Z</time>
      </trkpt>
      <trkpt lat="48.08373" lon="7.05848">
        <ele>1076.1</ele>
        <time>2021-08-05T13:32:57Z</time>
      </trkpt>
      <trkpt lat="48.08371" lon="7.05846">
        <ele>1076.2</ele>
        <time>2021-08-05T13:32:58Z</time>
      </trkpt>
      <trkpt lat="48.08369" lon="7.05843">
        <ele>1075.8</ele>
        <time>2021-08-05T13:32:59Z</time>
      </trkpt>
      <trkpt lat="48.08366" lon="7.05838">
        <ele>1075.8</ele>
        <time>2021-08-05T13:33:01Z</time>
      </trkpt>
      <trkpt lat="48.08364" lon="7.05836">
        <ele>1076.3</ele>
        <time>2021-08-05T13:33:02Z</time>
      </trkpt>
      <trkpt lat="48.08362" lon="7.05833">
        <ele>1076.3</ele>
        <time>2021-08-05T13:33:03Z</time>
      </trkpt>
      <trkpt lat="48.0836" lon="7.0583">
        <ele>1075.9</ele>
        <time>2021-08-05T13:33:05Z</time>
      </trkpt>
      <trkpt lat="48.08357" lon="7.05827">
        <ele>1076</ele>
        <time>2021-08-05T13:33:06Z</time>
      </trkpt>
      <trkpt lat="48.08354" lon="7.05825">
        <ele>1075.7</ele>
        <time>2021-08-05T13:33:08Z</time>
      </trkpt>
      <trkpt lat="48.0835" lon="7.05824">
        <ele>1075.9</ele>
        <time>2021-08-05T13:33:09Z</time>
      </trkpt>
      <trkpt lat="48.08345" lon="7.05823">
        <ele>1075.4</ele>
        <time>2021-08-05T13:33:11Z</time>
      </trkpt>
      <trkpt lat="48.08341" lon="7.05822">
        <ele>1075</ele>
        <time>2021-08-05T13:33:13Z</time>
      </trkpt>
      <trkpt lat="48.08337" lon="7.05821">
        <ele>1074.7</ele>
        <time>2021-08-05T13:33:14Z</time>
      </trkpt>
      <trkpt lat="48.08335" lon="7.05821">
        <ele>1074.5</ele>
        <time>2021-08-05T13:33:15Z</time>
      </trkpt>
      <trkpt lat="48.0833" lon="7.05821">
        <ele>1074.2</ele>
        <time>2021-08-05T13:33:17Z</time>
      </trkpt>
      <trkpt lat="48.08329" lon="7.05821">
        <ele>1074</ele>
        <time>2021-08-05T13:33:18Z</time>
      </trkpt>
      <trkpt lat="48.08327" lon="7.05821">
        <ele>1074.1</ele>
        <time>2021-08-05T13:33:19Z</time>
      </trkpt>
      <trkpt lat="48.08324" lon="7.0582">
        <ele>1073.8</ele>
        <time>2021-08-05T13:33:21Z</time>
      </trkpt>
      <trkpt lat="48.0832" lon="7.05819">
        <ele>1074.3</ele>
        <time>2021-08-05T13:33:22Z</time>
      </trkpt>
      <trkpt lat="48.08318" lon="7.05819">
        <ele>1074.3</ele>
        <time>2021-08-05T13:33:23Z</time>
      </trkpt>
      <trkpt lat="48.08315" lon="7.05818">
        <ele>1074.2</ele>
        <time>2021-08-05T13:33:25Z</time>
      </trkpt>
      <trkpt lat="48.08315" lon="7.05818">
        <ele>1074.3</ele>
        <time>2021-08-05T13:33:26Z</time>
      </trkpt>
      <trkpt lat="48.08313" lon="7.05817">
        <ele>1074.3</ele>
        <time>2021-08-05T13:33:28Z</time>
      </trkpt>
      <trkpt lat="48.08313" lon="7.05817">
        <ele>1074.3</ele>
        <time>2021-08-05T13:33:29Z</time>
      </trkpt>
      <trkpt lat="48.08312" lon="7.05817">
        <ele>1074.3</ele>
        <time>2021-08-05T13:33:30Z</time>
      </trkpt>
      <trkpt lat="48.08311" lon="7.05815">
        <ele>1075</ele>
        <time>2021-08-05T13:33:32Z</time>
      </trkpt>
      <trkpt lat="48.08309" lon="7.05814">
        <ele>1075</ele>
        <time>2021-08-05T13:33:34Z</time>
      </trkpt>
      <trkpt lat="48.0829" lon="7.05761">
        <ele>1085</ele>
        <time>2021-08-05T13:35:59Z</time>
      </trkpt>
      <trkpt lat="48.0829" lon="7.05758">
        <ele>1086</ele>
        <time>2021-08-05T13:36:00Z</time>
      </trkpt>
      <trkpt lat="48.08288" lon="7.05755">
        <ele>1086.9</ele>
        <time>2021-08-05T13:36:02Z</time>
      </trkpt>
      <trkpt lat="48.08287" lon="7.05754">
        <ele>1087.1</ele>
        <time>2021-08-05T13:36:04Z</time>
      </trkpt>
      <trkpt lat="48.08286" lon="7.05755">
        <ele>1087.2</ele>
        <time>2021-08-05T13:36:06Z</time>
      </trkpt>
      <trkpt lat="48.08286" lon="7.05756">
        <ele>1087.2</ele>
        <time>2021-08-05T13:36:07Z</time>
      </trkpt>
      <trkpt lat="48.08286" lon="7.05756">
        <ele>1086.3</ele>
        <time>2021-08-05T13:36:09Z</time>
      </trkpt>
      <trkpt lat="48.08286" lon="7.05757">
        <ele>1086.4</ele>
        <time>2021-08-05T13:36:10Z</time>
      </trkpt>
      <trkpt lat="48.08286" lon="7.05758">
        <ele>1086.4</ele>
        <time>2021-08-05T13:36:12Z</time>
      </trkpt>
      <trkpt lat="48.08286" lon="7.05759">
        <ele>1086.4</ele>
        <time>2021-08-05T13:36:13Z</time>
      </trkpt>
      <trkpt lat="48.08286" lon="7.0576">
        <ele>1086.4</ele>
        <time>2021-08-05T13:36:15Z</time>
      </trkpt>
      <trkpt lat="48.08286" lon="7.05761">
        <ele>1085.6</ele>
        <time>2021-08-05T13:39:49Z</time>
      </trkpt>
      <trkpt lat="48.08286" lon="7.05762">
        <ele>1085.7</ele>
        <time>2021-08-05T13:39:51Z</time>
      </trkpt>
      <trkpt lat="48.08285" lon="7.05762">
        <ele>1085.7</ele>
        <time>2021-08-05T13:39:52Z</time>
      </trkpt>
      <trkpt lat="48.08285" lon="7.05763">
        <ele>1085.7</ele>
        <time>2021-08-05T13:39:53Z</time>
      </trkpt>
      <trkpt lat="48.08285" lon="7.05764">
        <ele>1085.8</ele>
        <time>2021-08-05T13:39:59Z</time>
      </trkpt>
      <trkpt lat="48.08285" lon="7.05765">
        <ele>1085</ele>
        <time>2021-08-05T13:40:00Z</time>
      </trkpt>
      <trkpt lat="48.08285" lon="7.05766">
        <ele>1085</ele>
        <time>2021-08-05T13:40:01Z</time>
      </trkpt>
      <trkpt lat="48.08285" lon="7.05767">
        <ele>1085</ele>
        <time>2021-08-05T13:40:03Z</time>
      </trkpt>
      <trkpt lat="48.08285" lon="7.05768">
        <ele>1085.1</ele>
        <time>2021-08-05T13:40:04Z</time>
      </trkpt>
      <trkpt lat="48.08285" lon="7.05768">
        <ele>1085.1</ele>
        <time>2021-08-05T13:40:05Z</time>
      </trkpt>
      <trkpt lat="48.08285" lon="7.05769">
        <ele>1084.4</ele>
        <time>2021-08-05T13:40:06Z</time>
      </trkpt>
      <trkpt lat="48.08284" lon="7.0577">
        <ele>1084.4</ele>
        <time>2021-08-05T13:40:08Z</time>
      </trkpt>
      <trkpt lat="48.08284" lon="7.05771">
        <ele>1084.4</ele>
        <time>2021-08-05T13:40:09Z</time>
      </trkpt>
      <trkpt lat="48.08284" lon="7.05772">
        <ele>1084.5</ele>
        <time>2021-08-05T13:40:11Z</time>
      </trkpt>
      <trkpt lat="48.08284" lon="7.05773">
        <ele>1084.5</ele>
        <time>2021-08-05T13:40:12Z</time>
      </trkpt>
      <trkpt lat="48.08284" lon="7.05774">
        <ele>1083.8</ele>
        <time>2021-08-05T13:40:15Z</time>
      </trkpt>
      <trkpt lat="48.08284" lon="7.05774">
        <ele>1084</ele>
        <time>2021-08-05T13:40:17Z</time>
      </trkpt>
      <trkpt lat="48.08284" lon="7.05775">
        <ele>1084</ele>
        <time>2021-08-05T13:40:18Z</time>
      </trkpt>
      <trkpt lat="48.08284" lon="7.05776">
        <ele>1084.1</ele>
        <time>2021-08-05T13:40:21Z</time>
      </trkpt>
      <trkpt lat="48.08284" lon="7.05777">
        <ele>1084.1</ele>
        <time>2021-08-05T13:40:23Z</time>
      </trkpt>
      <trkpt lat="48.08283" lon="7.05778">
        <ele>1083.4</ele>
        <time>2021-08-05T13:40:24Z</time>
      </trkpt>
      <trkpt lat="48.08283" lon="7.05779">
        <ele>1083.4</ele>
        <time>2021-08-05T13:40:25Z</time>
      </trkpt>
      <trkpt lat="48.08283" lon="7.0578">
        <ele>1083.5</ele>
        <time>2021-08-05T13:40:26Z</time>
      </trkpt>
      <trkpt lat="48.08283" lon="7.0578">
        <ele>1083.5</ele>
        <time>2021-08-05T13:40:28Z</time>
      </trkpt>
      <trkpt lat="48.08283" lon="7.05781">
        <ele>1083.5</ele>
        <time>2021-08-05T13:40:29Z</time>
      </trkpt>
      <trkpt lat="48.08283" lon="7.05782">
        <ele>1082.8</ele>
        <time>2021-08-05T13:40:31Z</time>
      </trkpt>
      <trkpt lat="48.08283" lon="7.05783">
        <ele>1082.8</ele>
        <time>2021-08-05T13:40:33Z</time>
      </trkpt>
      <trkpt lat="48.08283" lon="7.05784">
        <ele>1082.9</ele>
        <time>2021-08-05T13:40:35Z</time>
      </trkpt>
      <trkpt lat="48.08282" lon="7.05785">
        <ele>1082.9</ele>
        <time>2021-08-05T13:40:37Z</time>
      </trkpt>
      <trkpt lat="48.08282" lon="7.05786">
        <ele>1082.9</ele>
        <time>2021-08-05T13:40:38Z</time>
      </trkpt>
      <trkpt lat="48.08282" lon="7.05786">
        <ele>1082.2</ele>
        <time>2021-08-05T13:40:40Z</time>
      </trkpt>
      <trkpt lat="48.08282" lon="7.05787">
        <ele>1082.2</ele>
        <time>2021-08-05T13:40:41Z</time>
      </trkpt>
      <trkpt lat="48.08281" lon="7.05787">
        <ele>1082.2</ele>
        <time>2021-08-05T13:40:43Z</time>
      </trkpt>
      <trkpt lat="48.08281" lon="7.05786">
        <ele>1082.3</ele>
        <time>2021-08-05T13:40:44Z</time>
      </trkpt>
      <trkpt lat="48.08281" lon="7.05785">
        <ele>1083.1</ele>
        <time>2021-08-05T13:40:46Z</time>
      </trkpt>
      <trkpt lat="48.08281" lon="7.05784">
        <ele>1083.1</ele>
        <time>2021-08-05T13:40:47Z</time>
      </trkpt>
      <trkpt lat="48.08281" lon="7.05783">
        <ele>1083.1</ele>
        <time>2021-08-05T13:40:48Z</time>
      </trkpt>
      <trkpt lat="48.08282" lon="7.05782">
        <ele>1083.1</ele>
        <time>2021-08-05T13:40:50Z</time>
      </trkpt>
      <trkpt lat="48.08282" lon="7.05781">
        <ele>1083.9</ele>
        <time>2021-08-05T13:40:51Z</time>
      </trkpt>
      <trkpt lat="48.08283" lon="7.0578">
        <ele>1083.9</ele>
        <time>2021-08-05T13:40:52Z</time>
      </trkpt>
      <trkpt lat="48.08284" lon="7.0578">
        <ele>1084</ele>
        <time>2021-08-05T13:40:54Z</time>
      </trkpt>
      <trkpt lat="48.08284" lon="7.0578">
        <ele>1083.8</ele>
        <time>2021-08-05T13:40:55Z</time>
      </trkpt>
      <trkpt lat="48.08285" lon="7.0578">
        <ele>1083.8</ele>
        <time>2021-08-05T13:40:57Z</time>
      </trkpt>
      <trkpt lat="48.08285" lon="7.0578">
        <ele>1083.8</ele>
        <time>2021-08-05T13:40:58Z</time>
      </trkpt>
      <trkpt lat="48.08286" lon="7.0578">
        <ele>1083.9</ele>
        <time>2021-08-05T13:40:59Z</time>
      </trkpt>
      <trkpt lat="48.08286" lon="7.05781">
        <ele>1083.9</ele>
        <time>2021-08-05T13:41:01Z</time>
      </trkpt>
      <trkpt lat="48.08286" lon="7.05783">
        <ele>1083.2</ele>
        <time>2021-08-05T13:41:02Z</time>
      </trkpt>
      <trkpt lat="48.08287" lon="7.05787">
        <ele>1082.4</ele>
        <time>2021-08-05T13:41:03Z</time>
      </trkpt>
      <trkpt lat="48.08288" lon="7.05792">
        <ele>1081.4</ele>
        <time>2021-08-05T13:41:05Z</time>
      </trkpt>
      <trkpt lat="48.08288" lon="7.05793">
        <ele>1081.5</ele>
        <time>2021-08-05T13:41:06Z</time>
      </trkpt>
      <trkpt lat="48.08289" lon="7.05795">
        <ele>1080.7</ele>
        <time>2021-08-05T13:41:08Z</time>
      </trkpt>
      <trkpt lat="48.08289" lon="7.05798">
        <ele>1080.7</ele>
        <time>2021-08-05T13:41:10Z</time>
      </trkpt>
      <trkpt lat="48.08289" lon="7.058">
        <ele>1079.9</ele>
        <time>2021-08-05T13:41:11Z</time>
      </trkpt>
      <trkpt lat="48.08289" lon="7.05801">
        <ele>1079.9</ele>
        <time>2021-08-05T13:41:13Z</time>
      </trkpt>
      <trkpt lat="48.08289" lon="7.05801">
        <ele>1079.9</ele>
        <time>2021-08-05T13:41:14Z</time>
      </trkpt>
      <trkpt lat="48.08289" lon="7.05803">
        <ele>1080</ele>
        <time>2021-08-05T13:41:16Z</time>
      </trkpt>
      <trkpt lat="48.08289" lon="7.05803">
        <ele>1079.1</ele>
        <time>2021-08-05T13:41:17Z</time>
      </trkpt>
      <trkpt lat="48.08289" lon="7.05804">
        <ele>1079.2</ele>
        <time>2021-08-05T13:41:18Z</time>
      </trkpt>
      <trkpt lat="48.08289" lon="7.05804">
        <ele>1079.2</ele>
        <time>2021-08-05T13:41:19Z</time>
      </trkpt>
      <trkpt lat="48.0829" lon="7.05805">
        <ele>1079.1</ele>
        <time>2021-08-05T13:41:21Z</time>
      </trkpt>
      <trkpt lat="48.08291" lon="7.05807">
        <ele>1079.1</ele>
        <time>2021-08-05T13:41:23Z</time>
      </trkpt>
      <trkpt lat="48.08292" lon="7.05809">
        <ele>1078.3</ele>
        <time>2021-08-05T13:41:24Z</time>
      </trkpt>
      <trkpt lat="48.08292" lon="7.0581">
        <ele>1078.3</ele>
        <time>2021-08-05T13:41:25Z</time>
      </trkpt>
      <trkpt lat="48.08292" lon="7.0581">
        <ele>1078.4</ele>
        <time>2021-08-05T13:41:27Z</time>
      </trkpt>
      <trkpt lat="48.08291" lon="7.05809">
        <ele>1078.4</ele>
        <time>2021-08-05T13:41:28Z</time>
      </trkpt>
      <trkpt lat="48.08291" lon="7.05808">
        <ele>1078.4</ele>
        <time>2021-08-05T13:41:30Z</time>
      </trkpt>
      <trkpt lat="48.08291" lon="7.05808">
        <ele>1078.4</ele>
        <time>2021-08-05T13:41:31Z</time>
      </trkpt>
      <trkpt lat="48.08291" lon="7.05808">
        <ele>1078.5</ele>
        <time>2021-08-05T13:41:32Z</time>
      </trkpt>
      <trkpt lat="48.08291" lon="7.05807">
        <ele>1078.5</ele>
        <time>2021-08-05T13:41:33Z</time>
      </trkpt>
      <trkpt lat="48.08291" lon="7.05807">
        <ele>1079.4</ele>
        <time>2021-08-05T13:41:35Z</time>
      </trkpt>
      <trkpt lat="48.08291" lon="7.05807">
        <ele>1079.4</ele>
        <time>2021-08-05T13:41:36Z</time>
      </trkpt>
      <trkpt lat="48.08291" lon="7.05807">
        <ele>1079.4</ele>
        <time>2021-08-05T13:41:38Z</time>
      </trkpt>
      <trkpt lat="48.08291" lon="7.05806">
        <ele>1079.5</ele>
        <time>2021-08-05T13:41:40Z</time>
      </trkpt>
      <trkpt lat="48.0829" lon="7.05806">
        <ele>1079.5</ele>
        <time>2021-08-05T13:41:41Z</time>
      </trkpt>
      <trkpt lat="48.08289" lon="7.05805">
        <ele>1079.6</ele>
        <time>2021-08-05T13:41:43Z</time>
      </trkpt>
      <trkpt lat="48.08289" lon="7.05805">
        <ele>1079.7</ele>
        <time>2021-08-05T13:41:44Z</time>
      </trkpt>
      <trkpt lat="48.08289" lon="7.05805">
        <ele>1079.7</ele>
        <time>2021-08-05T13:41:46Z</time>
      </trkpt>
      <trkpt lat="48.08288" lon="7.05805">
        <ele>1079.7</ele>
        <time>2021-08-05T13:41:48Z</time>
      </trkpt>
      <trkpt lat="48.08288" lon="7.05805">
        <ele>1079.7</ele>
        <time>2021-08-05T13:41:49Z</time>
      </trkpt>
      <trkpt lat="48.08288" lon="7.05804">
        <ele>1079.8</ele>
        <time>2021-08-05T13:41:50Z</time>
      </trkpt>
      <trkpt lat="48.08286" lon="7.05804">
        <ele>1079.9</ele>
        <time>2021-08-05T13:41:52Z</time>
      </trkpt>
      <trkpt lat="48.08285" lon="7.05803">
        <ele>1080.9</ele>
        <time>2021-08-05T13:41:53Z</time>
      </trkpt>
      <trkpt lat="48.08284" lon="7.05802">
        <ele>1080.9</ele>
        <time>2021-08-05T13:41:55Z</time>
      </trkpt>
      <trkpt lat="48.08283" lon="7.05802">
        <ele>1081.1</ele>
        <time>2021-08-05T13:41:57Z</time>
      </trkpt>
      <trkpt lat="48.08283" lon="7.05801">
        <ele>1081.1</ele>
        <time>2021-08-05T13:41:58Z</time>
      </trkpt>
      <trkpt lat="48.08282" lon="7.05801">
        <ele>1081.2</ele>
        <time>2021-08-05T13:41:59Z</time>
      </trkpt>
      <trkpt lat="48.08282" lon="7.05801">
        <ele>1081.2</ele>
        <time>2021-08-05T13:42:00Z</time>
      </trkpt>
      <trkpt lat="48.08282" lon="7.05801">
        <ele>1081.2</ele>
        <time>2021-08-05T13:42:02Z</time>
      </trkpt>
      <trkpt lat="48.08282" lon="7.058">
        <ele>1081.2</ele>
        <time>2021-08-05T13:42:03Z</time>
      </trkpt>
      <trkpt lat="48.08282" lon="7.058">
        <ele>1081.3</ele>
        <time>2021-08-05T13:42:05Z</time>
      </trkpt>
      <trkpt lat="48.08282" lon="7.058">
        <ele>1081.3</ele>
        <time>2021-08-05T13:42:06Z</time>
      </trkpt>
      <trkpt lat="48.08281" lon="7.05799">
        <ele>1081.3</ele>
        <time>2021-08-05T13:42:08Z</time>
      </trkpt>
      <trkpt lat="48.08281" lon="7.05799">
        <ele>1081.3</ele>
        <time>2021-08-05T13:42:09Z</time>
      </trkpt>
      <trkpt lat="48.08281" lon="7.05798">
        <ele>1082.5</ele>
        <time>2021-08-05T13:42:11Z</time>
      </trkpt>
      <trkpt lat="48.08281" lon="7.05798">
        <ele>1082.5</ele>
        <time>2021-08-05T13:42:12Z</time>
      </trkpt>
      <trkpt lat="48.0828" lon="7.05797">
        <ele>1082.5</ele>
        <time>2021-08-05T13:42:14Z</time>
      </trkpt>
      <trkpt lat="48.0828" lon="7.05797">
        <ele>1082.6</ele>
        <time>2021-08-05T13:42:15Z</time>
      </trkpt>
      <trkpt lat="48.08281" lon="7.05797">
        <ele>1082.6</ele>
        <time>2021-08-05T13:42:16Z</time>
      </trkpt>
      <trkpt lat="48.0828" lon="7.05797">
        <ele>1082.6</ele>
        <time>2021-08-05T13:42:18Z</time>
      </trkpt>
      <trkpt lat="48.0828" lon="7.05797">
        <ele>1082.7</ele>
        <time>2021-08-05T13:42:19Z</time>
      </trkpt>
      <trkpt lat="48.0828" lon="7.05797">
        <ele>1082.7</ele>
        <time>2021-08-05T13:42:24Z</time>
      </trkpt>
      <trkpt lat="48.08285" lon="7.05803">
        <ele>1080.5</ele>
        <time>2021-08-05T13:42:30Z</time>
      </trkpt>
      <trkpt lat="48.08295" lon="7.05814">
        <ele>1078.6</ele>
        <time>2021-08-05T13:42:36Z</time>
      </trkpt>
      <trkpt lat="48.08297" lon="7.05822">
        <ele>1077</ele>
        <time>2021-08-05T13:42:42Z</time>
      </trkpt>
      <trkpt lat="48.08294" lon="7.05824">
        <ele>1077</ele>
        <time>2021-08-05T13:42:48Z</time>
      </trkpt>
      <trkpt lat="48.08291" lon="7.05826">
        <ele>1076.2</ele>
        <time>2021-08-05T13:42:54Z</time>
      </trkpt>
      <trkpt lat="48.08288" lon="7.05829">
        <ele>1076.3</ele>
        <time>2021-08-05T13:43:00Z</time>
      </trkpt>
      <trkpt lat="48.08285" lon="7.05831">
        <ele>1075.4</ele>
        <time>2021-08-05T13:49:52Z</time>
      </trkpt>
      <trkpt lat="48.08282" lon="7.05833">
        <ele>1074.4</ele>
        <time>2021-08-05T13:49:58Z</time>
      </trkpt>
      <trkpt lat="48.08279" lon="7.05836">
        <ele>1074.5</ele>
        <time>2021-08-05T13:50:00Z</time>
      </trkpt>
      <trkpt lat="48.08279" lon="7.05836">
        <ele>1074.5</ele>
        <time>2021-08-05T13:50:01Z</time>
      </trkpt>
      <trkpt lat="48.08277" lon="7.05838">
        <ele>1073.5</ele>
        <time>2021-08-05T13:50:03Z</time>
      </trkpt>
      <trkpt lat="48.08277" lon="7.05838">
        <ele>1073.6</ele>
        <time>2021-08-05T13:50:04Z</time>
      </trkpt>
      <trkpt lat="48.08277" lon="7.05837">
        <ele>1074.6</ele>
        <time>2021-08-05T13:50:05Z</time>
      </trkpt>
      <trkpt lat="48.08277" lon="7.05835">
        <ele>1074.6</ele>
        <time>2021-08-05T13:50:06Z</time>
      </trkpt>
      <trkpt lat="48.08276" lon="7.0583">
        <ele>1075.6</ele>
        <time>2021-08-05T13:50:08Z</time>
      </trkpt>
      <trkpt lat="48.08274" lon="7.05815">
        <ele>1079.5</ele>
        <time>2021-08-05T13:50:10Z</time>
      </trkpt>
      <trkpt lat="48.08273" lon="7.05812">
        <ele>1079.5</ele>
        <time>2021-08-05T13:50:11Z</time>
      </trkpt>
      <trkpt lat="48.08273" lon="7.05811">
        <ele>1080.5</ele>
        <time>2021-08-05T13:50:12Z</time>
      </trkpt>
      <trkpt lat="48.0827" lon="7.05795">
        <ele>1083.8</ele>
        <time>2021-08-05T13:50:14Z</time>
      </trkpt>
      <trkpt lat="48.08264" lon="7.05766">
        <ele>1090</ele>
        <time>2021-08-05T13:50:16Z</time>
      </trkpt>
      <trkpt lat="48.08262" lon="7.05757">
        <ele>1091.6</ele>
        <time>2021-08-05T13:50:17Z</time>
      </trkpt>
      <trkpt lat="48.08261" lon="7.05752">
        <ele>1092.8</ele>
        <time>2021-08-05T13:50:19Z</time>
      </trkpt>
      <trkpt lat="48.08261" lon="7.05751">
        <ele>1093.7</ele>
        <time>2021-08-05T13:50:20Z</time>
      </trkpt>
      <trkpt lat="48.0826" lon="7.0575">
        <ele>1093.7</ele>
        <time>2021-08-05T13:50:22Z</time>
      </trkpt>
      <trkpt lat="48.0826" lon="7.0575">
        <ele>1093.7</ele>
        <time>2021-08-05T13:50:23Z</time>
      </trkpt>
      <trkpt lat="48.0826" lon="7.05749">
        <ele>1093.7</ele>
        <time>2021-08-05T13:50:24Z</time>
      </trkpt>
      <trkpt lat="48.0826" lon="7.05749">
        <ele>1093.8</ele>
        <time>2021-08-05T13:50:25Z</time>
      </trkpt>
      <trkpt lat="48.08259" lon="7.05755">
        <ele>1092.9</ele>
        <time>2021-08-05T13:50:27Z</time>
      </trkpt>
      <trkpt lat="48.08257" lon="7.05759">
        <ele>1092.4</ele>
        <time>2021-08-05T13:50:28Z</time>
      </trkpt>
      <trkpt lat="48.08257" lon="7.05763">
        <ele>1091.6</ele>
        <time>2021-08-05T13:50:29Z</time>
      </trkpt>
      <trkpt lat="48.08256" lon="7.05772">
        <ele>1090.1</ele>
        <time>2021-08-05T13:50:31Z</time>
      </trkpt>
      <trkpt lat="48.08256" lon="7.05777">
        <ele>1088.6</ele>
        <time>2021-08-05T13:50:32Z</time>
      </trkpt>
      <trkpt lat="48.08255" lon="7.05785">
        <ele>1087.8</ele>
        <time>2021-08-05T13:50:34Z</time>
      </trkpt>
      <trkpt lat="48.08256" lon="7.0579">
        <ele>1085.9</ele>
        <time>2021-08-05T13:50:35Z</time>
      </trkpt>
      <trkpt lat="48.08258" lon="7.0579">
        <ele>1086.9</ele>
        <time>2021-08-05T13:50:36Z</time>
      </trkpt>
      <trkpt lat="48.0826" lon="7.05786">
        <ele>1086.8</ele>
        <time>2021-08-05T13:50:38Z</time>
      </trkpt>
      <trkpt lat="48.08262" lon="7.05782">
        <ele>1087.5</ele>
        <time>2021-08-05T13:50:40Z</time>
      </trkpt>
      <trkpt lat="48.08262" lon="7.05781">
        <ele>1088.3</ele>
        <time>2021-08-05T13:50:41Z</time>
      </trkpt>
      <trkpt lat="48.08266" lon="7.05781">
        <ele>1088.2</ele>
        <time>2021-08-05T13:50:43Z</time>
      </trkpt>
      <trkpt lat="48.08268" lon="7.05781">
        <ele>1088</ele>
        <time>2021-08-05T13:50:44Z</time>
      </trkpt>
      <trkpt lat="48.0827" lon="7.05781">
        <ele>1087.8</ele>
        <time>2021-08-05T13:50:46Z</time>
      </trkpt>
      <trkpt lat="48.0827" lon="7.0578">
        <ele>1087.8</ele>
        <time>2021-08-05T13:50:47Z</time>
      </trkpt>
      <trkpt lat="48.0827" lon="7.0578">
        <ele>1087.8</ele>
        <time>2021-08-05T13:50:49Z</time>
      </trkpt>
      <trkpt lat="48.0827" lon="7.0578">
        <ele>1087.9</ele>
        <time>2021-08-05T13:50:50Z</time>
      </trkpt>
      <trkpt lat="48.08271" lon="7.05779">
        <ele>1087.9</ele>
        <time>2021-08-05T13:50:51Z</time>
      </trkpt>
      <trkpt lat="48.0827" lon="7.05776">
        <ele>1088.6</ele>
        <time>2021-08-05T13:50:53Z</time>
      </trkpt>
      <trkpt lat="48.0827" lon="7.05773">
        <ele>1088.7</ele>
        <time>2021-08-05T13:50:54Z</time>
      </trkpt>
      <trkpt lat="48.0827" lon="7.05767">
        <ele>1090.1</ele>
        <time>2021-08-05T13:50:56Z</time>
      </trkpt>
      <trkpt lat="48.08271" lon="7.05761">
        <ele>1090.8</ele>
        <time>2021-08-05T13:50:57Z</time>
      </trkpt>
      <trkpt lat="48.08271" lon="7.05755">
        <ele>1092.5</ele>
        <time>2021-08-05T13:50:58Z</time>
      </trkpt>
      <trkpt lat="48.08272" lon="7.05751">
        <ele>1093.5</ele>
        <time>2021-08-05T13:50:59Z</time>
      </trkpt>
      <trkpt lat="48.08274" lon="7.05751">
        <ele>1093.3</ele>
        <time>2021-08-05T13:51:01Z</time>
      </trkpt>
      <trkpt lat="48.08276" lon="7.05753">
        <ele>1092.2</ele>
        <time>2021-08-05T13:51:03Z</time>
      </trkpt>
      <trkpt lat="48.08276" lon="7.05754">
        <ele>1092.2</ele>
        <time>2021-08-05T13:51:04Z</time>
      </trkpt>
      <trkpt lat="48.0828" lon="7.05767">
        <ele>1089.6</ele>
        <time>2021-08-05T13:51:06Z</time>
      </trkpt>
      <trkpt lat="48.08282" lon="7.05778">
        <ele>1086.5</ele>
        <time>2021-08-05T13:51:08Z</time>
      </trkpt>
      <trkpt lat="48.08284" lon="7.05783">
        <ele>1085.2</ele>
        <time>2021-08-05T13:51:09Z</time>
      </trkpt>
      <trkpt lat="48.08284" lon="7.05786">
        <ele>1084.4</ele>
        <time>2021-08-05T13:51:10Z</time>
      </trkpt>
      <trkpt lat="48.08285" lon="7.05786">
        <ele>1084.2</ele>
        <time>2021-08-05T13:51:11Z</time>
      </trkpt>
      <trkpt lat="48.08285" lon="7.05788">
        <ele>1083.6</ele>
        <time>2021-08-05T13:51:13Z</time>
      </trkpt>
      <trkpt lat="48.08286" lon="7.05792">
        <ele>1082.4</ele>
        <time>2021-08-05T13:51:14Z</time>
      </trkpt>
      <trkpt lat="48.08287" lon="7.05794">
        <ele>1082</ele>
        <time>2021-08-05T13:51:15Z</time>
      </trkpt>
      <trkpt lat="48.08287" lon="7.05798">
        <ele>1080.8</ele>
        <time>2021-08-05T13:51:16Z</time>
      </trkpt>
      <trkpt lat="48.08288" lon="7.05802">
        <ele>1079.7</ele>
        <time>2021-08-05T13:51:17Z</time>
      </trkpt>
      <trkpt lat="48.08289" lon="7.05803">
        <ele>1079.3</ele>
        <time>2021-08-05T13:51:18Z</time>
      </trkpt>
      <trkpt lat="48.0829" lon="7.05805">
        <ele>1078.7</ele>
        <time>2021-08-05T13:51:20Z</time>
      </trkpt>
      <trkpt lat="48.08291" lon="7.05806">
        <ele>1078.3</ele>
        <time>2021-08-05T13:51:22Z</time>
      </trkpt>
      <trkpt lat="48.08291" lon="7.05806">
        <ele>1078.2</ele>
        <time>2021-08-05T13:51:23Z</time>
      </trkpt>
      <trkpt lat="48.08292" lon="7.05807">
        <ele>1077.8</ele>
        <time>2021-08-05T13:51:25Z</time>
      </trkpt>
      <trkpt lat="48.08292" lon="7.05809">
        <ele>1077.5</ele>
        <time>2021-08-05T13:51:26Z</time>
      </trkpt>
      <trkpt lat="48.08292" lon="7.05811">
        <ele>1077.4</ele>
        <time>2021-08-05T13:51:28Z</time>
      </trkpt>
      <trkpt lat="48.08292" lon="7.05812">
        <ele>1077.4</ele>
        <time>2021-08-05T13:51:29Z</time>
      </trkpt>
      <trkpt lat="48.08291" lon="7.05812">
        <ele>1077.3</ele>
        <time>2021-08-05T13:51:30Z</time>
      </trkpt>
      <trkpt lat="48.08289" lon="7.05813">
        <ele>1077.2</ele>
        <time>2021-08-05T13:51:32Z</time>
      </trkpt>
      <trkpt lat="48.08289" lon="7.05812">
        <ele>1077.2</ele>
        <time>2021-08-05T13:51:33Z</time>
      </trkpt>
      <trkpt lat="48.08289" lon="7.05812">
        <ele>1077.2</ele>
        <time>2021-08-05T13:51:34Z</time>
      </trkpt>
      <trkpt lat="48.08289" lon="7.05811">
        <ele>1077.1</ele>
        <time>2021-08-05T13:51:35Z</time>
      </trkpt>
      <trkpt lat="48.08288" lon="7.05811">
        <ele>1077.1</ele>
        <time>2021-08-05T13:51:37Z</time>
      </trkpt>
      <trkpt lat="48.08288" lon="7.05811">
        <ele>1077.1</ele>
        <time>2021-08-05T13:51:38Z</time>
      </trkpt>
      <trkpt lat="48.08288" lon="7.05812">
        <ele>1077.1</ele>
        <time>2021-08-05T13:51:40Z</time>
      </trkpt>
      <trkpt lat="48.08288" lon="7.05812">
        <ele>1077.1</ele>
        <time>2021-08-05T13:51:41Z</time>
      </trkpt>
      <trkpt lat="48.08288" lon="7.05812">
        <ele>1077.1</ele>
        <time>2021-08-05T13:51:43Z</time>
      </trkpt>
      <trkpt lat="48.08288" lon="7.05812">
        <ele>1077.1</ele>
        <time>2021-08-05T13:51:44Z</time>
      </trkpt>
      <trkpt lat="48.08288" lon="7.05812">
        <ele>1077.1</ele>
        <time>2021-08-05T13:51:46Z</time>
      </trkpt>
      <trkpt lat="48.08288" lon="7.05812">
        <ele>1077.1</ele>
        <time>2021-08-05T13:51:47Z</time>
      </trkpt>
      <trkpt lat="48.08288" lon="7.05812">
        <ele>1077.1</ele>
        <time>2021-08-05T13:51:49Z</time>
      </trkpt>
      <trkpt lat="48.08288" lon="7.05813">
        <ele>1077</ele>
        <time>2021-08-05T13:51:50Z</time>
      </trkpt>
      <trkpt lat="48.08291" lon="7.05813">
        <ele>1076.9</ele>
        <time>2021-08-05T13:51:52Z</time>
      </trkpt>
      <trkpt lat="48.08292" lon="7.05814">
        <ele>1076.8</ele>
        <time>2021-08-05T13:51:53Z</time>
      </trkpt>
      <trkpt lat="48.08293" lon="7.05815">
        <ele>1076.7</ele>
        <time>2021-08-05T13:51:55Z</time>
      </trkpt>
      <trkpt lat="48.08293" lon="7.05815">
        <ele>1076.7</ele>
        <time>2021-08-05T13:51:56Z</time>
      </trkpt>
      <trkpt lat="48.08294" lon="7.05815">
        <ele>1076.6</ele>
        <time>2021-08-05T13:51:58Z</time>
      </trkpt>
      <trkpt lat="48.08295" lon="7.05815">
        <ele>1076.6</ele>
        <time>2021-08-05T13:51:59Z</time>
      </trkpt>
      <trkpt lat="48.08296" lon="7.05815">
        <ele>1076.6</ele>
        <time>2021-08-05T13:52:01Z</time>
      </trkpt>
      <trkpt lat="48.08296" lon="7.05814">
        <ele>1076.5</ele>
        <time>2021-08-05T13:52:03Z</time>
      </trkpt>
      <trkpt lat="48.08296" lon="7.05814">
        <ele>1076.5</ele>
        <time>2021-08-05T13:52:04Z</time>
      </trkpt>
      <trkpt lat="48.08296" lon="7.05814">
        <ele>1076.5</ele>
        <time>2021-08-05T13:52:05Z</time>
      </trkpt>
      <trkpt lat="48.08297" lon="7.05813">
        <ele>1076.5</ele>
        <time>2021-08-05T13:52:07Z</time>
      </trkpt>
      <trkpt lat="48.08297" lon="7.05813">
        <ele>1076.4</ele>
        <time>2021-08-05T13:52:08Z</time>
      </trkpt>
      <trkpt lat="48.08297" lon="7.05812">
        <ele>1076.4</ele>
        <time>2021-08-05T13:52:10Z</time>
      </trkpt>
      <trkpt lat="48.08298" lon="7.05812">
        <ele>1076.4</ele>
        <time>2021-08-05T13:52:11Z</time>
      </trkpt>
      <trkpt lat="48.08298" lon="7.05812">
        <ele>1076.4</ele>
        <time>2021-08-05T13:52:12Z</time>
      </trkpt>
      <trkpt lat="48.08299" lon="7.05809">
        <ele>1076.3</ele>
        <time>2021-08-05T13:52:13Z</time>
      </trkpt>
      <trkpt lat="48.083" lon="7.05808">
        <ele>1076.2</ele>
        <time>2021-08-05T13:52:14Z</time>
      </trkpt>
      <trkpt lat="48.08302" lon="7.05806">
        <ele>1076</ele>
        <time>2021-08-05T13:52:16Z</time>
      </trkpt>
      <trkpt lat="48.08303" lon="7.05806">
        <ele>1076</ele>
        <time>2021-08-05T13:52:17Z</time>
      </trkpt>
      <trkpt lat="48.08303" lon="7.05806">
        <ele>1076</ele>
        <time>2021-08-05T13:52:18Z</time>
      </trkpt>
      <trkpt lat="48.08305" lon="7.05806">
        <ele>1075.9</ele>
        <time>2021-08-05T13:52:20Z</time>
      </trkpt>
      <trkpt lat="48.08306" lon="7.05807">
        <ele>1075.8</ele>
        <time>2021-08-05T13:52:21Z</time>
      </trkpt>
      <trkpt lat="48.08308" lon="7.05808">
        <ele>1075.7</ele>
        <time>2021-08-05T13:52:22Z</time>
      </trkpt>
      <trkpt lat="48.0831" lon="7.05809">
        <ele>1075.6</ele>
        <time>2021-08-05T13:52:23Z</time>
      </trkpt>
      <trkpt lat="48.08315" lon="7.05813">
        <ele>1075.2</ele>
        <time>2021-08-05T13:52:25Z</time>
      </trkpt>
      <trkpt lat="48.0832" lon="7.05816">
        <ele>1074.9</ele>
        <time>2021-08-05T13:52:26Z</time>
      </trkpt>
      <trkpt lat="48.08335" lon="7.05831">
        <ele>1073.8</ele>
        <time>2021-08-05T13:52:27Z</time>
      </trkpt>
      <trkpt lat="48.08345" lon="7.05839">
        <ele>1073.2</ele>
        <time>2021-08-05T13:52:29Z</time>
      </trkpt>
      <trkpt lat="48.0835" lon="7.05848">
        <ele>1072.7</ele>
        <time>2021-08-05T13:52:31Z</time>
      </trkpt>
      <trkpt lat="48.08355" lon="7.05851">
        <ele>1072.5</ele>
        <time>2021-08-05T13:52:32Z</time>
      </trkpt>
      <trkpt lat="48.0836" lon="7.05853">
        <ele>1072.4</ele>
        <time>2021-08-05T13:52:33Z</time>
      </trkpt>
      <trkpt lat="48.08365" lon="7.05853">
        <ele>1072.3</ele>
        <time>2021-08-05T13:52:35Z</time>
      </trkpt>
      <trkpt lat="48.08369" lon="7.05855">
        <ele>1072.2</ele>
        <time>2021-08-05T13:52:36Z</time>
      </trkpt>
      <trkpt lat="48.08372" lon="7.05858">
        <ele>1072.2</ele>
        <time>2021-08-05T13:52:38Z</time>
      </trkpt>
      <trkpt lat="48.08375" lon="7.05854">
        <ele>1072.1</ele>
        <time>2021-08-05T13:52:40Z</time>
      </trkpt>
      <trkpt lat="48.08377" lon="7.05854">
        <ele>1072.1</ele>
        <time>2021-08-05T13:52:41Z</time>
      </trkpt>
      <trkpt lat="48.08377" lon="7.05853">
        <ele>1072.1</ele>
        <time>2021-08-05T13:52:42Z</time>
      </trkpt>
      <trkpt lat="48.08377" lon="7.05852">
        <ele>1072</ele>
        <time>2021-08-05T13:52:43Z</time>
      </trkpt>
      <trkpt lat="48.08378" lon="7.0585">
        <ele>1071.9</ele>
        <time>2021-08-05T13:52:45Z</time>
      </trkpt>
      <trkpt lat="48.08378" lon="7.05849">
        <ele>1071.8</ele>
        <time>2021-08-05T13:52:46Z</time>
      </trkpt>
      <trkpt lat="48.08378" lon="7.05847">
        <ele>1071.8</ele>
        <time>2021-08-05T13:52:47Z</time>
      </trkpt>
      <trkpt lat="48.08379" lon="7.05843">
        <ele>1071.6</ele>
        <time>2021-08-05T13:52:49Z</time>
      </trkpt>
      <trkpt lat="48.08379" lon="7.05842">
        <ele>1071.5</ele>
        <time>2021-08-05T13:52:50Z</time>
      </trkpt>
      <trkpt lat="48.08357" lon="7.05948">
        <ele>1065.4</ele>
        <time>2021-08-05T14:00:36Z</time>
      </trkpt>
      <trkpt lat="48.0835" lon="7.05978">
        <ele>1063.7</ele>
        <time>2021-08-05T14:00:38Z</time>
      </trkpt>
      <trkpt lat="48.08346" lon="7.06002">
        <ele>1062</ele>
        <time>2021-08-05T14:00:40Z</time>
      </trkpt>
      <trkpt lat="48.08343" lon="7.06013">
        <ele>1061.8</ele>
        <time>2021-08-05T14:00:41Z</time>
      </trkpt>
      <trkpt lat="48.08338" lon="7.06032">
        <ele>1061.5</ele>
        <time>2021-08-05T14:00:43Z</time>
      </trkpt>
      <trkpt lat="48.08337" lon="7.06039">
        <ele>1061.4</ele>
        <time>2021-08-05T14:00:44Z</time>
      </trkpt>
      <trkpt lat="48.08336" lon="7.06041">
        <ele>1061.4</ele>
        <time>2021-08-05T14:00:45Z</time>
      </trkpt>
      <trkpt lat="48.08336" lon="7.0605">
        <ele>1061.1</ele>
        <time>2021-08-05T14:00:47Z</time>
      </trkpt>
      <trkpt lat="48.08335" lon="7.06055">
        <ele>1061.1</ele>
        <time>2021-08-05T14:00:49Z</time>
      </trkpt>
      <trkpt lat="48.08336" lon="7.06054">
        <ele>1061</ele>
        <time>2021-08-05T14:00:50Z</time>
      </trkpt>
      <trkpt lat="48.08339" lon="7.06056">
        <ele>1060.9</ele>
        <time>2021-08-05T14:00:52Z</time>
      </trkpt>
      <trkpt lat="48.08342" lon="7.06058">
        <ele>1060.8</ele>
        <time>2021-08-05T14:00:53Z</time>
      </trkpt>
      <trkpt lat="48.08349" lon="7.06062">
        <ele>1060.5</ele>
        <time>2021-08-05T14:00:55Z</time>
      </trkpt>
      <trkpt lat="48.08353" lon="7.06067">
        <ele>1060.2</ele>
        <time>2021-08-05T14:00:56Z</time>
      </trkpt>
      <trkpt lat="48.08362" lon="7.06077">
        <ele>1059.7</ele>
        <time>2021-08-05T14:00:58Z</time>
      </trkpt>
      <trkpt lat="48.08366" lon="7.06084">
        <ele>1059.5</ele>
        <time>2021-08-05T14:00:59Z</time>
      </trkpt>
      <trkpt lat="48.08369" lon="7.06091">
        <ele>1059.3</ele>
        <time>2021-08-05T14:01:00Z</time>
      </trkpt>
      <trkpt lat="48.08377" lon="7.06099">
        <ele>1059.1</ele>
        <time>2021-08-05T14:01:02Z</time>
      </trkpt>
      <trkpt lat="48.08383" lon="7.06104">
        <ele>1058.9</ele>
        <time>2021-08-05T14:01:04Z</time>
      </trkpt>
      <trkpt lat="48.08388" lon="7.06108">
        <ele>1058.8</ele>
        <time>2021-08-05T14:01:06Z</time>
      </trkpt>
      <trkpt lat="48.08393" lon="7.06108">
        <ele>1058.8</ele>
        <time>2021-08-05T14:01:07Z</time>
      </trkpt>
      <trkpt lat="48.08397" lon="7.06107">
        <ele>1058.7</ele>
        <time>2021-08-05T14:01:08Z</time>
      </trkpt>
      <trkpt lat="48.08405" lon="7.06101">
        <ele>1058.7</ele>
        <time>2021-08-05T14:01:09Z</time>
      </trkpt>
      <trkpt lat="48.08416" lon="7.06096">
        <ele>1058.8</ele>
        <time>2021-08-05T14:01:11Z</time>
      </trkpt>
      <trkpt lat="48.08419" lon="7.06096">
        <ele>1054.9</ele>
        <time>2021-08-05T14:01:12Z</time>
      </trkpt>
      <trkpt lat="48.08423" lon="7.06096">
        <ele>1054.7</ele>
        <time>2021-08-05T14:01:13Z</time>
      </trkpt>
      <trkpt lat="48.08429" lon="7.061">
        <ele>1054.4</ele>
        <time>2021-08-05T14:01:15Z</time>
      </trkpt>
      <trkpt lat="48.08431" lon="7.06103">
        <ele>1053.7</ele>
        <time>2021-08-05T14:01:17Z</time>
      </trkpt>
      <trkpt lat="48.0843" lon="7.06104">
        <ele>1053.6</ele>
        <time>2021-08-05T14:01:18Z</time>
      </trkpt>
      <trkpt lat="48.08429" lon="7.06105">
        <ele>1053.5</ele>
        <time>2021-08-05T14:01:19Z</time>
      </trkpt>
      <trkpt lat="48.08428" lon="7.06105">
        <ele>1053.4</ele>
        <time>2021-08-05T14:01:20Z</time>
      </trkpt>
      <trkpt lat="48.08428" lon="7.06106">
        <ele>1053.2</ele>
        <time>2021-08-05T14:01:21Z</time>
      </trkpt>
      <trkpt lat="48.08422" lon="7.06106">
        <ele>1052.5</ele>
        <time>2021-08-05T14:01:23Z</time>
      </trkpt>
      <trkpt lat="48.08411" lon="7.0611">
        <ele>1050.9</ele>
        <time>2021-08-05T14:01:25Z</time>
      </trkpt>
      <trkpt lat="48.08402" lon="7.06114">
        <ele>1049.9</ele>
        <time>2021-08-05T14:01:26Z</time>
      </trkpt>
      <trkpt lat="48.0839" lon="7.06122">
        <ele>1048.5</ele>
        <time>2021-08-05T14:01:27Z</time>
      </trkpt>
      <trkpt lat="48.08375" lon="7.06129">
        <ele>1046.8</ele>
        <time>2021-08-05T14:01:29Z</time>
      </trkpt>
      <trkpt lat="48.08367" lon="7.06132">
        <ele>1046</ele>
        <time>2021-08-05T14:01:30Z</time>
      </trkpt>
      <trkpt lat="48.08359" lon="7.06133">
        <ele>1045.2</ele>
        <time>2021-08-05T14:01:31Z</time>
      </trkpt>
      <trkpt lat="48.08351" lon="7.06135">
        <ele>1044.5</ele>
        <time>2021-08-05T14:01:32Z</time>
      </trkpt>
      <trkpt lat="48.08344" lon="7.06137">
        <ele>1043.8</ele>
        <time>2021-08-05T14:01:33Z</time>
      </trkpt>
      <trkpt lat="48.0833" lon="7.06141">
        <ele>1042.6</ele>
        <time>2021-08-05T14:01:35Z</time>
      </trkpt>
      <trkpt lat="48.08319" lon="7.06145">
        <ele>1041.6</ele>
        <time>2021-08-05T14:01:37Z</time>
      </trkpt>
      <trkpt lat="48.08307" lon="7.0615">
        <ele>1040.6</ele>
        <time>2021-08-05T14:01:39Z</time>
      </trkpt>
      <trkpt lat="48.083" lon="7.06154">
        <ele>1039.8</ele>
        <time>2021-08-05T14:01:41Z</time>
      </trkpt>
      <trkpt lat="48.08297" lon="7.06156">
        <ele>1039.4</ele>
        <time>2021-08-05T14:01:42Z</time>
      </trkpt>
      <trkpt lat="48.08294" lon="7.0616">
        <ele>1038.9</ele>
        <time>2021-08-05T14:01:44Z</time>
      </trkpt>
      <trkpt lat="48.08298" lon="7.06164">
        <ele>1038.4</ele>
        <time>2021-08-05T14:01:46Z</time>
      </trkpt>
      <trkpt lat="48.083" lon="7.06166">
        <ele>1038</ele>
        <time>2021-08-05T14:01:48Z</time>
      </trkpt>
      <trkpt lat="48.08301" lon="7.06166">
        <ele>1037.9</ele>
        <time>2021-08-05T14:01:49Z</time>
      </trkpt>
      <trkpt lat="48.08303" lon="7.0617">
        <ele>1037.4</ele>
        <time>2021-08-05T14:01:51Z</time>
      </trkpt>
      <trkpt lat="48.08306" lon="7.06174">
        <ele>1037</ele>
        <time>2021-08-05T14:01:55Z</time>
      </trkpt>
      <trkpt lat="48.08309" lon="7.06179">
        <ele>1036.4</ele>
        <time>2021-08-05T14:01:56Z</time>
      </trkpt>
      <trkpt lat="48.0831" lon="7.06184">
        <ele>1036</ele>
        <time>2021-08-05T14:01:57Z</time>
      </trkpt>
      <trkpt lat="48.08204" lon="7.06329">
        <ele>1021.7</ele>
        <time>2021-08-05T14:02:18Z</time>
      </trkpt>
      <trkpt lat="48.082" lon="7.06333">
        <ele>1022.1</ele>
        <time>2021-08-05T14:02:20Z</time>
      </trkpt>
      <trkpt lat="48.08196" lon="7.06335">
        <ele>1022.4</ele>
        <time>2021-08-05T14:02:22Z</time>
      </trkpt>
      <trkpt lat="48.08193" lon="7.06336">
        <ele>1022.6</ele>
        <time>2021-08-05T14:02:24Z</time>
      </trkpt>
      <trkpt lat="48.08192" lon="7.06336">
        <ele>1022.6</ele>
        <time>2021-08-05T14:02:25Z</time>
      </trkpt>
      <trkpt lat="48.08192" lon="7.06337">
        <ele>1022.7</ele>
        <time>2021-08-05T14:02:26Z</time>
      </trkpt>
      <trkpt lat="48.08191" lon="7.06338">
        <ele>1022.8</ele>
        <time>2021-08-05T14:02:27Z</time>
      </trkpt>
      <trkpt lat="48.08187" lon="7.06344">
        <ele>1023.1</ele>
        <time>2021-08-05T14:02:29Z</time>
      </trkpt>
      <trkpt lat="48.08183" lon="7.06363">
        <ele>1024.2</ele>
        <time>2021-08-05T14:02:31Z</time>
      </trkpt>
      <trkpt lat="48.08179" lon="7.0638">
        <ele>1024.7</ele>
        <time>2021-08-05T14:02:32Z</time>
      </trkpt>
      <trkpt lat="48.08176" lon="7.06397">
        <ele>1025.1</ele>
        <time>2021-08-05T14:02:33Z</time>
      </trkpt>
      <trkpt lat="48.08173" lon="7.06409">
        <ele>1025.4</ele>
        <time>2021-08-05T14:02:35Z</time>
      </trkpt>
      <trkpt lat="48.08169" lon="7.06418">
        <ele>1025.5</ele>
        <time>2021-08-05T14:02:37Z</time>
      </trkpt>
      <trkpt lat="48.08168" lon="7.06425">
        <ele>1025.6</ele>
        <time>2021-08-05T14:02:38Z</time>
      </trkpt>
      <trkpt lat="48.08168" lon="7.06428">
        <ele>1025.6</ele>
        <time>2021-08-05T14:02:39Z</time>
      </trkpt>
      <trkpt lat="48.08166" lon="7.06432">
        <ele>1025.6</ele>
        <time>2021-08-05T14:02:41Z</time>
      </trkpt>
      <trkpt lat="48.08163" lon="7.06436">
        <ele>1025.6</ele>
        <time>2021-08-05T14:02:42Z</time>
      </trkpt>
      <trkpt lat="48.08158" lon="7.06443">
        <ele>1025.5</ele>
        <time>2021-08-05T14:02:44Z</time>
      </trkpt>
      <trkpt lat="48.08152" lon="7.06456">
        <ele>1025.1</ele>
        <time>2021-08-05T14:02:46Z</time>
      </trkpt>
      <trkpt lat="48.08143" lon="7.06475">
        <ele>1025.3</ele>
        <time>2021-08-05T14:02:48Z</time>
      </trkpt>
      <trkpt lat="48.0814" lon="7.06483">
        <ele>1025.4</ele>
        <time>2021-08-05T14:02:49Z</time>
      </trkpt>
      <trkpt lat="48.08134" lon="7.06496">
        <ele>1025.5</ele>
        <time>2021-08-05T14:02:51Z</time>
      </trkpt>
      <trkpt lat="48.08129" lon="7.06501">
        <ele>1025.5</ele>
        <time>2021-08-05T14:02:53Z</time>
      </trkpt>
      <trkpt lat="48.08127" lon="7.06505">
        <ele>1025.5</ele>
        <time>2021-08-05T14:02:54Z</time>
      </trkpt>
      <trkpt lat="48.08124" lon="7.06509">
        <ele>1025.5</ele>
        <time>2021-08-05T14:02:55Z</time>
      </trkpt>
      <trkpt lat="48.08122" lon="7.0651">
        <ele>1025.5</ele>
        <time>2021-08-05T14:02:56Z</time>
      </trkpt>
      <trkpt lat="48.08119" lon="7.06515">
        <ele>1025.5</ele>
        <time>2021-08-05T14:02:57Z</time>
      </trkpt>
      <trkpt lat="48.08117" lon="7.06523">
        <ele>1025.5</ele>
        <time>2021-08-05T14:02:59Z</time>
      </trkpt>
      <trkpt lat="48.08117" lon="7.06528">
        <ele>1025.5</ele>
        <time>2021-08-05T14:03:00Z</time>
      </trkpt>
      <trkpt lat="48.08117" lon="7.0653">
        <ele>1025.5</ele>
        <time>2021-08-05T14:03:01Z</time>
      </trkpt>
      <trkpt lat="48.08098" lon="7.06621">
        <ele>1025.3</ele>
        <time>2021-08-05T14:03:06Z</time>
      </trkpt>
      <trkpt lat="48.08092" lon="7.06667">
        <ele>1025.3</ele>
        <time>2021-08-05T14:03:08Z</time>
      </trkpt>
      <trkpt lat="48.08084" lon="7.067">
        <ele>1025.4</ele>
        <time>2021-08-05T14:03:10Z</time>
      </trkpt>
      <trkpt lat="48.08078" lon="7.06714">
        <ele>1024.8</ele>
        <time>2021-08-05T14:03:11Z</time>
      </trkpt>
      <trkpt lat="48.08073" lon="7.06726">
        <ele>1024.4</ele>
        <time>2021-08-05T14:03:12Z</time>
      </trkpt>
      <trkpt lat="48.08063" lon="7.06752">
        <ele>1024.5</ele>
        <time>2021-08-05T14:03:14Z</time>
      </trkpt>
      <trkpt lat="48.08059" lon="7.06764">
        <ele>1024.8</ele>
        <time>2021-08-05T14:03:15Z</time>
      </trkpt>
      <trkpt lat="48.08056" lon="7.06776">
        <ele>1025.1</ele>
        <time>2021-08-05T14:03:16Z</time>
      </trkpt>
      <trkpt lat="48.08052" lon="7.06787">
        <ele>1025.4</ele>
        <time>2021-08-05T14:03:17Z</time>
      </trkpt>
      <trkpt lat="48.08046" lon="7.06811">
        <ele>1026.1</ele>
        <time>2021-08-05T14:03:19Z</time>
      </trkpt>
      <trkpt lat="48.08042" lon="7.06823">
        <ele>1026.4</ele>
        <time>2021-08-05T14:03:20Z</time>
      </trkpt>
      <trkpt lat="48.08036" lon="7.06847">
        <ele>1027.3</ele>
        <time>2021-08-05T14:03:22Z</time>
      </trkpt>
      <trkpt lat="48.08035" lon="7.06855">
        <ele>1027.7</ele>
        <time>2021-08-05T14:03:24Z</time>
      </trkpt>
      <trkpt lat="48.08035" lon="7.06855">
        <ele>1027.7</ele>
        <time>2021-08-05T14:03:25Z</time>
      </trkpt>
      <trkpt lat="48.08035" lon="7.06855">
        <ele>1027.7</ele>
        <time>2021-08-05T14:03:26Z</time>
      </trkpt>
      <trkpt lat="48.08035" lon="7.06855">
        <ele>1027.7</ele>
        <time>2021-08-05T14:03:28Z</time>
      </trkpt>
      <trkpt lat="48.08035" lon="7.06854">
        <ele>1027.7</ele>
        <time>2021-08-05T14:03:31Z</time>
      </trkpt>
      <trkpt lat="48.08034" lon="7.06853">
        <ele>1027.8</ele>
        <time>2021-08-05T14:03:32Z</time>
      </trkpt>
      <trkpt lat="48.08023" lon="7.06842">
        <ele>1028.6</ele>
        <time>2021-08-05T14:03:39Z</time>
      </trkpt>
      <trkpt lat="48.08021" lon="7.06842">
        <ele>1028.7</ele>
        <time>2021-08-05T14:03:41Z</time>
      </trkpt>
      <trkpt lat="48.08021" lon="7.06843">
        <ele>1028.8</ele>
        <time>2021-08-05T14:03:42Z</time>
      </trkpt>
      <trkpt lat="48.08021" lon="7.06844">
        <ele>1028.8</ele>
        <time>2021-08-05T14:03:43Z</time>
      </trkpt>
      <trkpt lat="48.08021" lon="7.06845">
        <ele>1028.8</ele>
        <time>2021-08-05T14:03:44Z</time>
      </trkpt>
      <trkpt lat="48.08021" lon="7.06848">
        <ele>1029</ele>
        <time>2021-08-05T14:03:46Z</time>
      </trkpt>
      <trkpt lat="48.08023" lon="7.06855">
        <ele>1029.3</ele>
        <time>2021-08-05T14:03:48Z</time>
      </trkpt>
      <trkpt lat="48.08023" lon="7.06863">
        <ele>1029.6</ele>
        <time>2021-08-05T14:03:50Z</time>
      </trkpt>
      <trkpt lat="48.08024" lon="7.06868">
        <ele>1029.9</ele>
        <time>2021-08-05T14:03:51Z</time>
      </trkpt>
      <trkpt lat="48.08026" lon="7.06874">
        <ele>1030.2</ele>
        <time>2021-08-05T14:03:53Z</time>
      </trkpt>
      <trkpt lat="48.08028" lon="7.0688">
        <ele>1030.5</ele>
        <time>2021-08-05T14:03:54Z</time>
      </trkpt>
      <trkpt lat="48.08029" lon="7.06884">
        <ele>1030.6</ele>
        <time>2021-08-05T14:03:56Z</time>
      </trkpt>
      <trkpt lat="48.08029" lon="7.06886">
        <ele>1030.7</ele>
        <time>2021-08-05T14:03:58Z</time>
      </trkpt>
      <trkpt lat="48.0803" lon="7.06888">
        <ele>1030.8</ele>
        <time>2021-08-05T14:04:00Z</time>
      </trkpt>
      <trkpt lat="48.07994" lon="7.06887">
        <ele>1033</ele>
        <time>2021-08-05T14:04:36Z</time>
      </trkpt>
      <trkpt lat="48.0799" lon="7.06887">
        <ele>1033.2</ele>
        <time>2021-08-05T14:04:37Z</time>
      </trkpt>
      <trkpt lat="48.07988" lon="7.06887">
        <ele>1033.3</ele>
        <time>2021-08-05T14:04:38Z</time>
      </trkpt>
      <trkpt lat="48.07983" lon="7.0689">
        <ele>1033.6</ele>
        <time>2021-08-05T14:04:40Z</time>
      </trkpt>
      <trkpt lat="48.0798" lon="7.06894">
        <ele>1033.9</ele>
        <time>2021-08-05T14:04:41Z</time>
      </trkpt>
      <trkpt lat="48.07977" lon="7.06895">
        <ele>1034</ele>
        <time>2021-08-05T14:04:42Z</time>
      </trkpt>
      <trkpt lat="48.07976" lon="7.06896">
        <ele>1034.1</ele>
        <time>2021-08-05T14:04:43Z</time>
      </trkpt>
      <trkpt lat="48.07975" lon="7.06896">
        <ele>1034.1</ele>
        <time>2021-08-05T14:04:44Z</time>
      </trkpt>
      <trkpt lat="48.07974" lon="7.06898">
        <ele>1034.2</ele>
        <time>2021-08-05T14:04:46Z</time>
      </trkpt>
      <trkpt lat="48.07973" lon="7.06899">
        <ele>1034.3</ele>
        <time>2021-08-05T14:04:47Z</time>
      </trkpt>
      <trkpt lat="48.07966" lon="7.06917">
        <ele>1035.1</ele>
        <time>2021-08-05T14:04:58Z</time>
      </trkpt>
      <trkpt lat="48.07965" lon="7.06919">
        <ele>1035.2</ele>
        <time>2021-08-05T14:04:59Z</time>
      </trkpt>
      <trkpt lat="48.07965" lon="7.06921">
        <ele>1035.3</ele>
        <time>2021-08-05T14:05:01Z</time>
      </trkpt>
      <trkpt lat="48.07966" lon="7.06921">
        <ele>1035.3</ele>
        <time>2021-08-05T14:05:02Z</time>
      </trkpt>
      <trkpt lat="48.07966" lon="7.06922">
        <ele>1035.4</ele>
        <time>2021-08-05T14:05:04Z</time>
      </trkpt>
      <trkpt lat="48.07966" lon="7.06923">
        <ele>1035.4</ele>
        <time>2021-08-05T14:05:05Z</time>
      </trkpt>
      <trkpt lat="48.07966" lon="7.06923">
        <ele>1035.4</ele>
        <time>2021-08-05T14:05:06Z</time>
      </trkpt>
      <trkpt lat="48.07966" lon="7.06924">
        <ele>1035.4</ele>
        <time>2021-08-05T14:05:07Z</time>
      </trkpt>
      <trkpt lat="48.07966" lon="7.06924">
        <ele>1035.4</ele>
        <time>2021-08-05T14:05:08Z</time>
      </trkpt>
      <trkpt lat="48.07966" lon="7.06925">
        <ele>1035.5</ele>
        <time>2021-08-05T14:05:10Z</time>
      </trkpt>
      <trkpt lat="48.07958" lon="7.06925">
        <ele>1035.9</ele>
        <time>2021-08-05T14:05:23Z</time>
      </trkpt>
      <trkpt lat="48.07957" lon="7.0693">
        <ele>1036.1</ele>
        <time>2021-08-05T14:05:24Z</time>
      </trkpt>
      <trkpt lat="48.07956" lon="7.06933">
        <ele>1036.2</ele>
        <time>2021-08-05T14:05:26Z</time>
      </trkpt>
      <trkpt lat="48.07955" lon="7.06935">
        <ele>1036.4</ele>
        <time>2021-08-05T14:05:28Z</time>
      </trkpt>
      <trkpt lat="48.07955" lon="7.06936">
        <ele>1036.4</ele>
        <time>2021-08-05T14:05:29Z</time>
      </trkpt>
      <trkpt lat="48.07954" lon="7.06937">
        <ele>1036.5</ele>
        <time>2021-08-05T14:05:31Z</time>
      </trkpt>
      <trkpt lat="48.07954" lon="7.06938">
        <ele>1036.5</ele>
        <time>2021-08-05T14:05:33Z</time>
      </trkpt>
      <trkpt lat="48.07953" lon="7.06938">
        <ele>1036.5</ele>
        <time>2021-08-05T14:05:34Z</time>
      </trkpt>
      <trkpt lat="48.07941" lon="7.06958">
        <ele>1037.7</ele>
        <time>2021-08-05T14:05:56Z</time>
      </trkpt>
      <trkpt lat="48.07939" lon="7.06959">
        <ele>1037.8</ele>
        <time>2021-08-05T14:05:57Z</time>
      </trkpt>
      <trkpt lat="48.07938" lon="7.06959">
        <ele>1037.9</ele>
        <time>2021-08-05T14:05:58Z</time>
      </trkpt>
      <trkpt lat="48.07936" lon="7.06959">
        <ele>1038</ele>
        <time>2021-08-05T14:05:59Z</time>
      </trkpt>
      <trkpt lat="48.07933" lon="7.06959">
        <ele>1038.1</ele>
        <time>2021-08-05T14:06:01Z</time>
      </trkpt>
      <trkpt lat="48.07931" lon="7.0696">
        <ele>1038.3</ele>
        <time>2021-08-05T14:06:02Z</time>
      </trkpt>
      <trkpt lat="48.07928" lon="7.0696">
        <ele>1038.5</ele>
        <time>2021-08-05T14:06:04Z</time>
      </trkpt>
      <trkpt lat="48.07925" lon="7.06961">
        <ele>1038.6</ele>
        <time>2021-08-05T14:06:05Z</time>
      </trkpt>
      <trkpt lat="48.07924" lon="7.06961">
        <ele>1038.7</ele>
        <time>2021-08-05T14:06:06Z</time>
      </trkpt>
      <trkpt lat="48.07923" lon="7.06961">
        <ele>1038.8</ele>
        <time>2021-08-05T14:06:08Z</time>
      </trkpt>
      <trkpt lat="48.07922" lon="7.06962">
        <ele>1038.8</ele>
        <time>2021-08-05T14:06:09Z</time>
      </trkpt>
      <trkpt lat="48.07921" lon="7.06962">
        <ele>1038.8</ele>
        <time>2021-08-05T14:06:10Z</time>
      </trkpt>
      <trkpt lat="48.07921" lon="7.06962">
        <ele>1038.9</ele>
        <time>2021-08-05T14:06:11Z</time>
      </trkpt>
      <trkpt lat="48.0792" lon="7.06962">
        <ele>1038.9</ele>
        <time>2021-08-05T14:06:13Z</time>
      </trkpt>
      <trkpt lat="48.07919" lon="7.06962">
        <ele>1039</ele>
        <time>2021-08-05T14:06:14Z</time>
      </trkpt>
      <trkpt lat="48.07908" lon="7.06967">
        <ele>1039.6</ele>
        <time>2021-08-05T14:06:15Z</time>
      </trkpt>
      <trkpt lat="48.07899" lon="7.06971">
        <ele>1039.7</ele>
        <time>2021-08-05T14:06:55Z</time>
      </trkpt>
      <trkpt lat="48.07889" lon="7.06975">
        <ele>1039.6</ele>
        <time>2021-08-05T14:06:56Z</time>
      </trkpt>
      <trkpt lat="48.0788" lon="7.06979">
        <ele>1039.5</ele>
        <time>2021-08-05T14:06:57Z</time>
      </trkpt>
      <trkpt lat="48.07877" lon="7.06982">
        <ele>1039.4</ele>
        <time>2021-08-05T14:06:59Z</time>
      </trkpt>
      <trkpt lat="48.07875" lon="7.06984">
        <ele>1039.3</ele>
        <time>2021-08-05T14:07:00Z</time>
      </trkpt>
      <trkpt lat="48.07875" lon="7.06986">
        <ele>1039.3</ele>
        <time>2021-08-05T14:07:01Z</time>
      </trkpt>
      <trkpt lat="48.07873" lon="7.0699">
        <ele>1039.2</ele>
        <time>2021-08-05T14:07:03Z</time>
      </trkpt>
      <trkpt lat="48.07871" lon="7.06993">
        <ele>1039.1</ele>
        <time>2021-08-05T14:07:04Z</time>
      </trkpt>
      <trkpt lat="48.07868" lon="7.06996">
        <ele>1039</ele>
        <time>2021-08-05T14:07:05Z</time>
      </trkpt>
      <trkpt lat="48.07865" lon="7.06998">
        <ele>1038.9</ele>
        <time>2021-08-05T14:07:06Z</time>
      </trkpt>
      <trkpt lat="48.07862" lon="7.07002">
        <ele>1038.8</ele>
        <time>2021-08-05T14:07:08Z</time>
      </trkpt>
      <trkpt lat="48.07859" lon="7.07004">
        <ele>1039.1</ele>
        <time>2021-08-05T14:07:10Z</time>
      </trkpt>
      <trkpt lat="48.07858" lon="7.07005">
        <ele>1039.2</ele>
        <time>2021-08-05T14:07:11Z</time>
      </trkpt>
      <trkpt lat="48.07857" lon="7.07006">
        <ele>1039.5</ele>
        <time>2021-08-05T14:07:12Z</time>
      </trkpt>
      <trkpt lat="48.07856" lon="7.07007">
        <ele>1039.7</ele>
        <time>2021-08-05T14:07:13Z</time>
      </trkpt>
      <trkpt lat="48.07854" lon="7.07011">
        <ele>1040.2</ele>
        <time>2021-08-05T14:07:15Z</time>
      </trkpt>
      <trkpt lat="48.07854" lon="7.07012">
        <ele>1040.3</ele>
        <time>2021-08-05T14:07:16Z</time>
      </trkpt>
      <trkpt lat="48.07853" lon="7.07014">
        <ele>1040.6</ele>
        <time>2021-08-05T14:07:17Z</time>
      </trkpt>
      <trkpt lat="48.07852" lon="7.07016">
        <ele>1040.8</ele>
        <time>2021-08-05T14:07:18Z</time>
      </trkpt>
      <trkpt lat="48.07852" lon="7.07017">
        <ele>1040.8</ele>
        <time>2021-08-05T14:07:20Z</time>
      </trkpt>
      <trkpt lat="48.07852" lon="7.07017">
        <ele>1040.9</ele>
        <time>2021-08-05T14:07:21Z</time>
      </trkpt>
      <trkpt lat="48.07852" lon="7.07017">
        <ele>1040.9</ele>
        <time>2021-08-05T14:07:22Z</time>
      </trkpt>
      <trkpt lat="48.07852" lon="7.07017">
        <ele>1040.9</ele>
        <time>2021-08-05T14:07:23Z</time>
      </trkpt>
      <trkpt lat="48.07852" lon="7.07017">
        <ele>1040.9</ele>
        <time>2021-08-05T14:07:25Z</time>
      </trkpt>
      <trkpt lat="48.07852" lon="7.07017">
        <ele>1041</ele>
        <time>2021-08-05T14:07:26Z</time>
      </trkpt>
      <trkpt lat="48.07852" lon="7.07017">
        <ele>1041</ele>
        <time>2021-08-05T14:07:27Z</time>
      </trkpt>
      <trkpt lat="48.07851" lon="7.07017">
        <ele>1041</ele>
        <time>2021-08-05T14:07:28Z</time>
      </trkpt>
      <trkpt lat="48.07841" lon="7.07048">
        <ele>1044.7</ele>
        <time>2021-08-05T14:07:50Z</time>
      </trkpt>
      <trkpt lat="48.07838" lon="7.07052">
        <ele>1045.3</ele>
        <time>2021-08-05T14:07:51Z</time>
      </trkpt>
      <trkpt lat="48.07835" lon="7.07055">
        <ele>1045.7</ele>
        <time>2021-08-05T14:07:52Z</time>
      </trkpt>
      <trkpt lat="48.07832" lon="7.0706">
        <ele>1046.4</ele>
        <time>2021-08-05T14:07:53Z</time>
      </trkpt>
      <trkpt lat="48.0783" lon="7.07063">
        <ele>1046.8</ele>
        <time>2021-08-05T14:07:54Z</time>
      </trkpt>
      <trkpt lat="48.07827" lon="7.07067">
        <ele>1047.4</ele>
        <time>2021-08-05T14:07:56Z</time>
      </trkpt>
      <trkpt lat="48.07823" lon="7.07072">
        <ele>1048.2</ele>
        <time>2021-08-05T14:07:57Z</time>
      </trkpt>
      <trkpt lat="48.0782" lon="7.07075">
        <ele>1048.7</ele>
        <time>2021-08-05T14:07:58Z</time>
      </trkpt>
      <trkpt lat="48.07819" lon="7.07078">
        <ele>1049</ele>
        <time>2021-08-05T14:07:59Z</time>
      </trkpt>
      <trkpt lat="48.07817" lon="7.07081">
        <ele>1049.4</ele>
        <time>2021-08-05T14:08:01Z</time>
      </trkpt>
      <trkpt lat="48.07816" lon="7.07083">
        <ele>1049.7</ele>
        <time>2021-08-05T14:08:02Z</time>
      </trkpt>
      <trkpt lat="48.07815" lon="7.07085">
        <ele>1049.9</ele>
        <time>2021-08-05T14:08:03Z</time>
      </trkpt>
      <trkpt lat="48.07813" lon="7.07086">
        <ele>1050.2</ele>
        <time>2021-08-05T14:08:04Z</time>
      </trkpt>
      <trkpt lat="48.07812" lon="7.07087">
        <ele>1050.4</ele>
        <time>2021-08-05T14:08:05Z</time>
      </trkpt>
      <trkpt lat="48.0781" lon="7.07089">
        <ele>1050.6</ele>
        <time>2021-08-05T14:08:06Z</time>
      </trkpt>
      <trkpt lat="48.07808" lon="7.07093">
        <ele>1051.1</ele>
        <time>2021-08-05T14:08:08Z</time>
      </trkpt>
      <trkpt lat="48.07806" lon="7.07095">
        <ele>1051.4</ele>
        <time>2021-08-05T14:08:09Z</time>
      </trkpt>
      <trkpt lat="48.07804" lon="7.07096">
        <ele>1051.7</ele>
        <time>2021-08-05T14:08:11Z</time>
      </trkpt>
      <trkpt lat="48.07802" lon="7.07097">
        <ele>1052.1</ele>
        <time>2021-08-05T14:08:12Z</time>
      </trkpt>
      <trkpt lat="48.078" lon="7.07097">
        <ele>1052.3</ele>
        <time>2021-08-05T14:08:13Z</time>
      </trkpt>
      <trkpt lat="48.07797" lon="7.07096">
        <ele>1052.7</ele>
        <time>2021-08-05T14:08:14Z</time>
      </trkpt>
      <trkpt lat="48.07797" lon="7.07096">
        <ele>1052.8</ele>
        <time>2021-08-05T14:08:15Z</time>
      </trkpt>
      <trkpt lat="48.07795" lon="7.07097">
        <ele>1053</ele>
        <time>2021-08-05T14:08:17Z</time>
      </trkpt>
      <trkpt lat="48.07794" lon="7.07099">
        <ele>1053.2</ele>
        <time>2021-08-05T14:08:18Z</time>
      </trkpt>
      <trkpt lat="48.07792" lon="7.07102">
        <ele>1053.6</ele>
        <time>2021-08-05T14:08:19Z</time>
      </trkpt>
      <trkpt lat="48.07792" lon="7.07103">
        <ele>1053.7</ele>
        <time>2021-08-05T14:08:20Z</time>
      </trkpt>
      <trkpt lat="48.07789" lon="7.07103">
        <ele>1054</ele>
        <time>2021-08-05T14:08:21Z</time>
      </trkpt>
      <trkpt lat="48.07786" lon="7.07105">
        <ele>1054.5</ele>
        <time>2021-08-05T14:08:23Z</time>
      </trkpt>
      <trkpt lat="48.07784" lon="7.07106">
        <ele>1054.8</ele>
        <time>2021-08-05T14:08:24Z</time>
      </trkpt>
      <trkpt lat="48.07781" lon="7.07109">
        <ele>1055.3</ele>
        <time>2021-08-05T14:08:26Z</time>
      </trkpt>
      <trkpt lat="48.07777" lon="7.07112">
        <ele>1056</ele>
        <time>2021-08-05T14:08:28Z</time>
      </trkpt>
      <trkpt lat="48.07774" lon="7.07115">
        <ele>1056.5</ele>
        <time>2021-08-05T14:08:30Z</time>
      </trkpt>
      <trkpt lat="48.07771" lon="7.07117">
        <ele>1057</ele>
        <time>2021-08-05T14:08:31Z</time>
      </trkpt>
      <trkpt lat="48.07767" lon="7.0712">
        <ele>1057.5</ele>
        <time>2021-08-05T14:08:33Z</time>
      </trkpt>
      <trkpt lat="48.07764" lon="7.07125">
        <ele>1058.3</ele>
        <time>2021-08-05T14:08:34Z</time>
      </trkpt>
      <trkpt lat="48.07761" lon="7.07129">
        <ele>1058.8</ele>
        <time>2021-08-05T14:08:36Z</time>
      </trkpt>
      <trkpt lat="48.07758" lon="7.07133">
        <ele>1059.4</ele>
        <time>2021-08-05T14:08:37Z</time>
      </trkpt>
      <trkpt lat="48.07755" lon="7.07137">
        <ele>1059.9</ele>
        <time>2021-08-05T14:08:39Z</time>
      </trkpt>
      <trkpt lat="48.07753" lon="7.0714">
        <ele>1060.4</ele>
        <time>2021-08-05T14:08:40Z</time>
      </trkpt>
      <trkpt lat="48.0775" lon="7.07145">
        <ele>1061.1</ele>
        <time>2021-08-05T14:08:41Z</time>
      </trkpt>
      <trkpt lat="48.07748" lon="7.07149">
        <ele>1061.5</ele>
        <time>2021-08-05T14:08:42Z</time>
      </trkpt>
      <trkpt lat="48.07743" lon="7.07154">
        <ele>1062.3</ele>
        <time>2021-08-05T14:08:44Z</time>
      </trkpt>
      <trkpt lat="48.07741" lon="7.07156">
        <ele>1062.7</ele>
        <time>2021-08-05T14:08:45Z</time>
      </trkpt>
      <trkpt lat="48.07738" lon="7.07159">
        <ele>1063.1</ele>
        <time>2021-08-05T14:08:46Z</time>
      </trkpt>
      <trkpt lat="48.07735" lon="7.07161">
        <ele>1063.6</ele>
        <time>2021-08-05T14:08:47Z</time>
      </trkpt>
      <trkpt lat="48.07731" lon="7.07168">
        <ele>1063.8</ele>
        <time>2021-08-05T14:08:49Z</time>
      </trkpt>
      <trkpt lat="48.07728" lon="7.07175">
        <ele>1064</ele>
        <time>2021-08-05T14:08:51Z</time>
      </trkpt>
      <trkpt lat="48.07726" lon="7.0718">
        <ele>1064</ele>
        <time>2021-08-05T14:08:52Z</time>
      </trkpt>
      <trkpt lat="48.07725" lon="7.07186">
        <ele>1064.2</ele>
        <time>2021-08-05T14:08:54Z</time>
      </trkpt>
      <trkpt lat="48.07722" lon="7.07191">
        <ele>1064.3</ele>
        <time>2021-08-05T14:08:55Z</time>
      </trkpt>
      <trkpt lat="48.07719" lon="7.07195">
        <ele>1064.4</ele>
        <time>2021-08-05T14:08:56Z</time>
      </trkpt>
      <trkpt lat="48.07717" lon="7.07199">
        <ele>1064.5</ele>
        <time>2021-08-05T14:08:57Z</time>
      </trkpt>
      <trkpt lat="48.07715" lon="7.07204">
        <ele>1064.6</ele>
        <time>2021-08-05T14:08:59Z</time>
      </trkpt>
      <trkpt lat="48.07713" lon="7.07211">
        <ele>1064.7</ele>
        <time>2021-08-05T14:09:00Z</time>
      </trkpt>
      <trkpt lat="48.0771" lon="7.07215">
        <ele>1064.8</ele>
        <time>2021-08-05T14:09:02Z</time>
      </trkpt>
      <trkpt lat="48.07708" lon="7.07218">
        <ele>1064.9</ele>
        <time>2021-08-05T14:09:03Z</time>
      </trkpt>
      <trkpt lat="48.07705" lon="7.07223">
        <ele>1065.1</ele>
        <time>2021-08-05T14:09:04Z</time>
      </trkpt>
      <trkpt lat="48.07702" lon="7.07226">
        <ele>1065.1</ele>
        <time>2021-08-05T14:09:05Z</time>
      </trkpt>
      <trkpt lat="48.07699" lon="7.0723">
        <ele>1065.2</ele>
        <time>2021-08-05T14:09:06Z</time>
      </trkpt>
      <trkpt lat="48.07695" lon="7.07236">
        <ele>1065.4</ele>
        <time>2021-08-05T14:09:08Z</time>
      </trkpt>
      <trkpt lat="48.07691" lon="7.07241">
        <ele>1065.5</ele>
        <time>2021-08-05T14:09:10Z</time>
      </trkpt>
      <trkpt lat="48.07687" lon="7.07247">
        <ele>1065.6</ele>
        <time>2021-08-05T14:09:12Z</time>
      </trkpt>
      <trkpt lat="48.07685" lon="7.07249">
        <ele>1065.7</ele>
        <time>2021-08-05T14:09:13Z</time>
      </trkpt>
      <trkpt lat="48.07682" lon="7.07251">
        <ele>1065.7</ele>
        <time>2021-08-05T14:09:15Z</time>
      </trkpt>
      <trkpt lat="48.07679" lon="7.07253">
        <ele>1065.8</ele>
        <time>2021-08-05T14:09:16Z</time>
      </trkpt>
      <trkpt lat="48.07676" lon="7.07253">
        <ele>1065.8</ele>
        <time>2021-08-05T14:09:18Z</time>
      </trkpt>
      <trkpt lat="48.07673" lon="7.07254">
        <ele>1065.9</ele>
        <time>2021-08-05T14:09:19Z</time>
      </trkpt>
      <trkpt lat="48.0767" lon="7.07256">
        <ele>1065.9</ele>
        <time>2021-08-05T14:09:20Z</time>
      </trkpt>
      <trkpt lat="48.07667" lon="7.07257">
        <ele>1066</ele>
        <time>2021-08-05T14:09:21Z</time>
      </trkpt>
      <trkpt lat="48.07661" lon="7.0726">
        <ele>1066.1</ele>
        <time>2021-08-05T14:09:23Z</time>
      </trkpt>
      <trkpt lat="48.07658" lon="7.07263">
        <ele>1066.2</ele>
        <time>2021-08-05T14:09:24Z</time>
      </trkpt>
      <trkpt lat="48.07655" lon="7.07265">
        <ele>1066.2</ele>
        <time>2021-08-05T14:09:25Z</time>
      </trkpt>
      <trkpt lat="48.07651" lon="7.07267">
        <ele>1066.3</ele>
        <time>2021-08-05T14:09:26Z</time>
      </trkpt>
      <trkpt lat="48.07648" lon="7.07269">
        <ele>1066.3</ele>
        <time>2021-08-05T14:09:27Z</time>
      </trkpt>
      <trkpt lat="48.07644" lon="7.07271">
        <ele>1066.4</ele>
        <time>2021-08-05T14:09:28Z</time>
      </trkpt>
      <trkpt lat="48.07636" lon="7.07272">
        <ele>1066.5</ele>
        <time>2021-08-05T14:09:30Z</time>
      </trkpt>
      <trkpt lat="48.0763" lon="7.07271">
        <ele>1066.6</ele>
        <time>2021-08-05T14:09:32Z</time>
      </trkpt>
      <trkpt lat="48.07627" lon="7.0727">
        <ele>1066.7</ele>
        <time>2021-08-05T14:09:33Z</time>
      </trkpt>
      <trkpt lat="48.07623" lon="7.07269">
        <ele>1066.8</ele>
        <time>2021-08-05T14:09:34Z</time>
      </trkpt>
      <trkpt lat="48.07619" lon="7.07268">
        <ele>1066.9</ele>
        <time>2021-08-05T14:09:35Z</time>
      </trkpt>
      <trkpt lat="48.07616" lon="7.07268">
        <ele>1067</ele>
        <time>2021-08-05T14:09:36Z</time>
      </trkpt>
      <trkpt lat="48.07612" lon="7.07268">
        <ele>1067.1</ele>
        <time>2021-08-05T14:09:38Z</time>
      </trkpt>
      <trkpt lat="48.07609" lon="7.07267">
        <ele>1067.2</ele>
        <time>2021-08-05T14:09:39Z</time>
      </trkpt>
      <trkpt lat="48.07604" lon="7.07267">
        <ele>1067.3</ele>
        <time>2021-08-05T14:09:40Z</time>
      </trkpt>
      <trkpt lat="48.076" lon="7.07266">
        <ele>1067.4</ele>
        <time>2021-08-05T14:09:41Z</time>
      </trkpt>
      <trkpt lat="48.07597" lon="7.07266">
        <ele>1067.5</ele>
        <time>2021-08-05T14:09:42Z</time>
      </trkpt>
      <trkpt lat="48.07594" lon="7.07265">
        <ele>1067.6</ele>
        <time>2021-08-05T14:09:43Z</time>
      </trkpt>
      <trkpt lat="48.0759" lon="7.07265">
        <ele>1067.6</ele>
        <time>2021-08-05T14:09:44Z</time>
      </trkpt>
      <trkpt lat="48.07586" lon="7.07265">
        <ele>1067.7</ele>
        <time>2021-08-05T14:09:46Z</time>
      </trkpt>
      <trkpt lat="48.07585" lon="7.07265">
        <ele>1067.8</ele>
        <time>2021-08-05T14:09:47Z</time>
      </trkpt>
      <trkpt lat="48.07584" lon="7.07265">
        <ele>1067.8</ele>
        <time>2021-08-05T14:09:48Z</time>
      </trkpt>
      <trkpt lat="48.07581" lon="7.07264">
        <ele>1067.9</ele>
        <time>2021-08-05T14:09:49Z</time>
      </trkpt>
      <trkpt lat="48.07578" lon="7.07261">
        <ele>1068</ele>
        <time>2021-08-05T14:09:51Z</time>
      </trkpt>
      <trkpt lat="48.07576" lon="7.07257">
        <ele>1068.1</ele>
        <time>2021-08-05T14:09:52Z</time>
      </trkpt>
      <trkpt lat="48.07575" lon="7.07256">
        <ele>1068.2</ele>
        <time>2021-08-05T14:09:53Z</time>
      </trkpt>
      <trkpt lat="48.07573" lon="7.07254">
        <ele>1068.3</ele>
        <time>2021-08-05T14:09:54Z</time>
      </trkpt>
      <trkpt lat="48.0757" lon="7.0725">
        <ele>1068.4</ele>
        <time>2021-08-05T14:09:56Z</time>
      </trkpt>
      <trkpt lat="48.07568" lon="7.07248">
        <ele>1068.4</ele>
        <time>2021-08-05T14:09:57Z</time>
      </trkpt>
      <trkpt lat="48.07566" lon="7.07241">
        <ele>1068.6</ele>
        <time>2021-08-05T14:09:59Z</time>
      </trkpt>
      <trkpt lat="48.07564" lon="7.07237">
        <ele>1068.7</ele>
        <time>2021-08-05T14:10:01Z</time>
      </trkpt>
      <trkpt lat="48.07563" lon="7.07234">
        <ele>1068.7</ele>
        <time>2021-08-05T14:10:02Z</time>
      </trkpt>
      <trkpt lat="48.07562" lon="7.07232">
        <ele>1068.7</ele>
        <time>2021-08-05T14:10:04Z</time>
      </trkpt>
      <trkpt lat="48.07562" lon="7.07231">
        <ele>1068.7</ele>
        <time>2021-08-05T14:10:05Z</time>
      </trkpt>
      <trkpt lat="48.07562" lon="7.0723">
        <ele>1068.8</ele>
        <time>2021-08-05T14:10:07Z</time>
      </trkpt>
      <trkpt lat="48.07562" lon="7.07228">
        <ele>1068.8</ele>
        <time>2021-08-05T14:10:08Z</time>
      </trkpt>
      <trkpt lat="48.0756" lon="7.07224">
        <ele>1068.9</ele>
        <time>2021-08-05T14:10:09Z</time>
      </trkpt>
      <trkpt lat="48.07557" lon="7.07219">
        <ele>1069</ele>
        <time>2021-08-05T14:10:10Z</time>
      </trkpt>
      <trkpt lat="48.07555" lon="7.07217">
        <ele>1069</ele>
        <time>2021-08-05T14:10:11Z</time>
      </trkpt>
      <trkpt lat="48.07551" lon="7.07211">
        <ele>1069.1</ele>
        <time>2021-08-05T14:10:13Z</time>
      </trkpt>
      <trkpt lat="48.07549" lon="7.07207">
        <ele>1069.2</ele>
        <time>2021-08-05T14:10:14Z</time>
      </trkpt>
      <trkpt lat="48.07546" lon="7.07202">
        <ele>1069.3</ele>
        <time>2021-08-05T14:10:15Z</time>
      </trkpt>
      <trkpt lat="48.07543" lon="7.07198">
        <ele>1069.4</ele>
        <time>2021-08-05T14:10:16Z</time>
      </trkpt>
      <trkpt lat="48.07541" lon="7.07194">
        <ele>1069.5</ele>
        <time>2021-08-05T14:10:17Z</time>
      </trkpt>
      <trkpt lat="48.07537" lon="7.0719">
        <ele>1069.6</ele>
        <time>2021-08-05T14:10:18Z</time>
      </trkpt>
      <trkpt lat="48.07535" lon="7.07187">
        <ele>1069.7</ele>
        <time>2021-08-05T14:10:19Z</time>
      </trkpt>
      <trkpt lat="48.07532" lon="7.07185">
        <ele>1069.7</ele>
        <time>2021-08-05T14:10:20Z</time>
      </trkpt>
      <trkpt lat="48.07529" lon="7.07183">
        <ele>1069.8</ele>
        <time>2021-08-05T14:10:21Z</time>
      </trkpt>
      <trkpt lat="48.07525" lon="7.07177">
        <ele>1069.9</ele>
        <time>2021-08-05T14:10:23Z</time>
      </trkpt>
      <trkpt lat="48.07521" lon="7.07172">
        <ele>1070</ele>
        <time>2021-08-05T14:10:24Z</time>
      </trkpt>
      <trkpt lat="48.07518" lon="7.07167">
        <ele>1070.1</ele>
        <time>2021-08-05T14:10:26Z</time>
      </trkpt>
      <trkpt lat="48.07515" lon="7.07165">
        <ele>1070.2</ele>
        <time>2021-08-05T14:10:27Z</time>
      </trkpt>
      <trkpt lat="48.07513" lon="7.07161">
        <ele>1070.2</ele>
        <time>2021-08-05T14:10:28Z</time>
      </trkpt>
      <trkpt lat="48.07511" lon="7.07158">
        <ele>1070.3</ele>
        <time>2021-08-05T14:10:29Z</time>
      </trkpt>
      <trkpt lat="48.07509" lon="7.07154">
        <ele>1070.4</ele>
        <time>2021-08-05T14:10:30Z</time>
      </trkpt>
      <trkpt lat="48.07507" lon="7.07149">
        <ele>1070.4</ele>
        <time>2021-08-05T14:10:31Z</time>
      </trkpt>
      <trkpt lat="48.07505" lon="7.07144">
        <ele>1070.5</ele>
        <time>2021-08-05T14:10:32Z</time>
      </trkpt>
      <trkpt lat="48.07503" lon="7.0714">
        <ele>1070.6</ele>
        <time>2021-08-05T14:10:33Z</time>
      </trkpt>
      <trkpt lat="48.075" lon="7.07135">
        <ele>1070.7</ele>
        <time>2021-08-05T14:10:35Z</time>
      </trkpt>
      <trkpt lat="48.07497" lon="7.0713">
        <ele>1070.8</ele>
        <time>2021-08-05T14:10:36Z</time>
      </trkpt>
      <trkpt lat="48.07495" lon="7.07125">
        <ele>1070.9</ele>
        <time>2021-08-05T14:10:37Z</time>
      </trkpt>
      <trkpt lat="48.07492" lon="7.07119">
        <ele>1071</ele>
        <time>2021-08-05T14:10:39Z</time>
      </trkpt>
      <trkpt lat="48.0749" lon="7.07115">
        <ele>1071.1</ele>
        <time>2021-08-05T14:10:40Z</time>
      </trkpt>
      <trkpt lat="48.07489" lon="7.07113">
        <ele>1071.2</ele>
        <time>2021-08-05T14:10:41Z</time>
      </trkpt>
      <trkpt lat="48.07487" lon="7.07112">
        <ele>1071.2</ele>
        <time>2021-08-05T14:10:42Z</time>
      </trkpt>
      <trkpt lat="48.07485" lon="7.07109">
        <ele>1071.3</ele>
        <time>2021-08-05T14:10:44Z</time>
      </trkpt>
      <trkpt lat="48.07483" lon="7.07105">
        <ele>1071.4</ele>
        <time>2021-08-05T14:10:45Z</time>
      </trkpt>
      <trkpt lat="48.07482" lon="7.07104">
        <ele>1071.5</ele>
        <time>2021-08-05T14:10:46Z</time>
      </trkpt>
      <trkpt lat="48.07481" lon="7.07101">
        <ele>1071.5</ele>
        <time>2021-08-05T14:10:47Z</time>
      </trkpt>
      <trkpt lat="48.0748" lon="7.07098">
        <ele>1071.6</ele>
        <time>2021-08-05T14:10:49Z</time>
      </trkpt>
      <trkpt lat="48.07479" lon="7.07092">
        <ele>1071.7</ele>
        <time>2021-08-05T14:10:50Z</time>
      </trkpt>
      <trkpt lat="48.07478" lon="7.0709">
        <ele>1071.7</ele>
        <time>2021-08-05T14:10:51Z</time>
      </trkpt>
      <trkpt lat="48.07478" lon="7.07086">
        <ele>1071.8</ele>
        <time>2021-08-05T14:10:52Z</time>
      </trkpt>
      <trkpt lat="48.07478" lon="7.07081">
        <ele>1071.8</ele>
        <time>2021-08-05T14:10:54Z</time>
      </trkpt>
      <trkpt lat="48.07478" lon="7.07077">
        <ele>1071.9</ele>
        <time>2021-08-05T14:10:55Z</time>
      </trkpt>
      <trkpt lat="48.07479" lon="7.07074">
        <ele>1071.9</ele>
        <time>2021-08-05T14:10:56Z</time>
      </trkpt>
      <trkpt lat="48.07479" lon="7.07067">
        <ele>1072</ele>
        <time>2021-08-05T14:10:58Z</time>
      </trkpt>
      <trkpt lat="48.07479" lon="7.0706">
        <ele>1072.1</ele>
        <time>2021-08-05T14:10:59Z</time>
      </trkpt>
      <trkpt lat="48.07479" lon="7.07056">
        <ele>1072.1</ele>
        <time>2021-08-05T14:11:00Z</time>
      </trkpt>
      <trkpt lat="48.0748" lon="7.07052">
        <ele>1072.2</ele>
        <time>2021-08-05T14:11:01Z</time>
      </trkpt>
      <trkpt lat="48.07481" lon="7.07046">
        <ele>1072.3</ele>
        <time>2021-08-05T14:11:03Z</time>
      </trkpt>
      <trkpt lat="48.07483" lon="7.07041">
        <ele>1072.3</ele>
        <time>2021-08-05T14:11:04Z</time>
      </trkpt>
      <trkpt lat="48.07483" lon="7.07036">
        <ele>1072.4</ele>
        <time>2021-08-05T14:11:05Z</time>
      </trkpt>
      <trkpt lat="48.07483" lon="7.07031">
        <ele>1072.4</ele>
        <time>2021-08-05T14:11:06Z</time>
      </trkpt>
      <trkpt lat="48.07482" lon="7.07029">
        <ele>1072.5</ele>
        <time>2021-08-05T14:11:07Z</time>
      </trkpt>
      <trkpt lat="48.07482" lon="7.07023">
        <ele>1072.5</ele>
        <time>2021-08-05T14:11:08Z</time>
      </trkpt>
      <trkpt lat="48.0748" lon="7.07012">
        <ele>1072.7</ele>
        <time>2021-08-05T14:11:10Z</time>
      </trkpt>
      <trkpt lat="48.07479" lon="7.07003">
        <ele>1072.8</ele>
        <time>2021-08-05T14:11:12Z</time>
      </trkpt>
      <trkpt lat="48.07478" lon="7.06997">
        <ele>1072.9</ele>
        <time>2021-08-05T14:11:13Z</time>
      </trkpt>
      <trkpt lat="48.07476" lon="7.06989">
        <ele>1073</ele>
        <time>2021-08-05T14:11:14Z</time>
      </trkpt>
      <trkpt lat="48.07474" lon="7.06983">
        <ele>1073.1</ele>
        <time>2021-08-05T14:11:15Z</time>
      </trkpt>
      <trkpt lat="48.07473" lon="7.06975">
        <ele>1073.2</ele>
        <time>2021-08-05T14:11:16Z</time>
      </trkpt>
      <trkpt lat="48.07471" lon="7.06967">
        <ele>1073.3</ele>
        <time>2021-08-05T14:11:18Z</time>
      </trkpt>
      <trkpt lat="48.07471" lon="7.06962">
        <ele>1073.4</ele>
        <time>2021-08-05T14:11:19Z</time>
      </trkpt>
      <trkpt lat="48.07472" lon="7.06956">
        <ele>1073.5</ele>
        <time>2021-08-05T14:11:20Z</time>
      </trkpt>
      <trkpt lat="48.07472" lon="7.06954">
        <ele>1073.5</ele>
        <time>2021-08-05T14:11:21Z</time>
      </trkpt>
      <trkpt lat="48.07473" lon="7.06949">
        <ele>1073.6</ele>
        <time>2021-08-05T14:11:22Z</time>
      </trkpt>
      <trkpt lat="48.07473" lon="7.06947">
        <ele>1073.7</ele>
        <time>2021-08-05T14:11:23Z</time>
      </trkpt>
      <trkpt lat="48.07474" lon="7.06943">
        <ele>1073.7</ele>
        <time>2021-08-05T14:11:24Z</time>
      </trkpt>
      <trkpt lat="48.07475" lon="7.06942">
        <ele>1073.8</ele>
        <time>2021-08-05T14:11:26Z</time>
      </trkpt>
      <trkpt lat="48.07475" lon="7.06942">
        <ele>1073.8</ele>
        <time>2021-08-05T14:11:27Z</time>
      </trkpt>
      <trkpt lat="48.07476" lon="7.06939">
        <ele>1073.8</ele>
        <time>2021-08-05T14:11:28Z</time>
      </trkpt>
      <trkpt lat="48.07476" lon="7.06938">
        <ele>1073.8</ele>
        <time>2021-08-05T14:11:29Z</time>
      </trkpt>
      <trkpt lat="48.07477" lon="7.06937">
        <ele>1073.9</ele>
        <time>2021-08-05T14:11:30Z</time>
      </trkpt>
      <trkpt lat="48.07477" lon="7.06935">
        <ele>1073.9</ele>
        <time>2021-08-05T14:11:31Z</time>
      </trkpt>
      <trkpt lat="48.07478" lon="7.06933">
        <ele>1074</ele>
        <time>2021-08-05T14:11:32Z</time>
      </trkpt>
      <trkpt lat="48.0748" lon="7.0693">
        <ele>1074</ele>
        <time>2021-08-05T14:11:33Z</time>
      </trkpt>
      <trkpt lat="48.07481" lon="7.06925">
        <ele>1074.1</ele>
        <time>2021-08-05T14:11:34Z</time>
      </trkpt>
      <trkpt lat="48.07481" lon="7.06924">
        <ele>1074.1</ele>
        <time>2021-08-05T14:11:35Z</time>
      </trkpt>
      <trkpt lat="48.07482" lon="7.06923">
        <ele>1074.1</ele>
        <time>2021-08-05T14:11:36Z</time>
      </trkpt>
      <trkpt lat="48.07481" lon="7.06915">
        <ele>1074.3</ele>
        <time>2021-08-05T14:11:38Z</time>
      </trkpt>
      <trkpt lat="48.0748" lon="7.0691">
        <ele>1074.3</ele>
        <time>2021-08-05T14:11:39Z</time>
      </trkpt>
      <trkpt lat="48.0748" lon="7.06906">
        <ele>1074.4</ele>
        <time>2021-08-05T14:11:40Z</time>
      </trkpt>
      <trkpt lat="48.0748" lon="7.06902">
        <ele>1074.5</ele>
        <time>2021-08-05T14:11:41Z</time>
      </trkpt>
      <trkpt lat="48.07482" lon="7.06897">
        <ele>1074.6</ele>
        <time>2021-08-05T14:11:42Z</time>
      </trkpt>
      <trkpt lat="48.07482" lon="7.06895">
        <ele>1074.6</ele>
        <time>2021-08-05T14:11:43Z</time>
      </trkpt>
      <trkpt lat="48.07484" lon="7.06891">
        <ele>1074.7</ele>
        <time>2021-08-05T14:11:44Z</time>
      </trkpt>
      <trkpt lat="48.07487" lon="7.06884">
        <ele>1074.8</ele>
        <time>2021-08-05T14:11:46Z</time>
      </trkpt>
      <trkpt lat="48.07489" lon="7.0688">
        <ele>1074.9</ele>
        <time>2021-08-05T14:11:47Z</time>
      </trkpt>
      <trkpt lat="48.07491" lon="7.06876">
        <ele>1075</ele>
        <time>2021-08-05T14:11:48Z</time>
      </trkpt>
      <trkpt lat="48.07493" lon="7.06871">
        <ele>1075.1</ele>
        <time>2021-08-05T14:11:50Z</time>
      </trkpt>
      <trkpt lat="48.07493" lon="7.06867">
        <ele>1075.2</ele>
        <time>2021-08-05T14:11:51Z</time>
      </trkpt>
      <trkpt lat="48.07494" lon="7.06862">
        <ele>1075.2</ele>
        <time>2021-08-05T14:11:52Z</time>
      </trkpt>
      <trkpt lat="48.07494" lon="7.06857">
        <ele>1075.3</ele>
        <time>2021-08-05T14:11:53Z</time>
      </trkpt>
      <trkpt lat="48.07494" lon="7.06852">
        <ele>1075.4</ele>
        <time>2021-08-05T14:11:54Z</time>
      </trkpt>
      <trkpt lat="48.07494" lon="7.06847">
        <ele>1075.5</ele>
        <time>2021-08-05T14:11:55Z</time>
      </trkpt>
      <trkpt lat="48.07495" lon="7.0684">
        <ele>1075.6</ele>
        <time>2021-08-05T14:11:57Z</time>
      </trkpt>
      <trkpt lat="48.07495" lon="7.06835">
        <ele>1075.7</ele>
        <time>2021-08-05T14:11:58Z</time>
      </trkpt>
      <trkpt lat="48.07494" lon="7.06831">
        <ele>1075.8</ele>
        <time>2021-08-05T14:11:59Z</time>
      </trkpt>
      <trkpt lat="48.07495" lon="7.06826">
        <ele>1075.8</ele>
        <time>2021-08-05T14:12:00Z</time>
      </trkpt>
      <trkpt lat="48.07495" lon="7.0682">
        <ele>1075.9</ele>
        <time>2021-08-05T14:12:01Z</time>
      </trkpt>
      <trkpt lat="48.07495" lon="7.0681">
        <ele>1076.1</ele>
        <time>2021-08-05T14:12:03Z</time>
      </trkpt>
      <trkpt lat="48.07495" lon="7.06804">
        <ele>1076.1</ele>
        <time>2021-08-05T14:12:04Z</time>
      </trkpt>
      <trkpt lat="48.07494" lon="7.06794">
        <ele>1076.3</ele>
        <time>2021-08-05T14:12:06Z</time>
      </trkpt>
      <trkpt lat="48.07493" lon="7.06788">
        <ele>1076.4</ele>
        <time>2021-08-05T14:12:08Z</time>
      </trkpt>
      <trkpt lat="48.07493" lon="7.06783">
        <ele>1076.5</ele>
        <time>2021-08-05T14:12:09Z</time>
      </trkpt>
      <trkpt lat="48.07492" lon="7.06778">
        <ele>1076.6</ele>
        <time>2021-08-05T14:12:10Z</time>
      </trkpt>
      <trkpt lat="48.07491" lon="7.06773">
        <ele>1076.7</ele>
        <time>2021-08-05T14:12:11Z</time>
      </trkpt>
      <trkpt lat="48.0749" lon="7.06766">
        <ele>1076.8</ele>
        <time>2021-08-05T14:12:12Z</time>
      </trkpt>
      <trkpt lat="48.07489" lon="7.06761">
        <ele>1076.9</ele>
        <time>2021-08-05T14:12:13Z</time>
      </trkpt>
      <trkpt lat="48.07489" lon="7.06757">
        <ele>1076.9</ele>
        <time>2021-08-05T14:12:14Z</time>
      </trkpt>
      <trkpt lat="48.07489" lon="7.06753">
        <ele>1077</ele>
        <time>2021-08-05T14:12:15Z</time>
      </trkpt>
      <trkpt lat="48.07487" lon="7.06745">
        <ele>1077.1</ele>
        <time>2021-08-05T14:12:17Z</time>
      </trkpt>
      <trkpt lat="48.07486" lon="7.06739">
        <ele>1077.2</ele>
        <time>2021-08-05T14:12:18Z</time>
      </trkpt>
      <trkpt lat="48.07484" lon="7.06735">
        <ele>1077.2</ele>
        <time>2021-08-05T14:12:19Z</time>
      </trkpt>
      <trkpt lat="48.07483" lon="7.0673">
        <ele>1077.3</ele>
        <time>2021-08-05T14:12:20Z</time>
      </trkpt>
      <trkpt lat="48.07482" lon="7.06726">
        <ele>1077.4</ele>
        <time>2021-08-05T14:12:21Z</time>
      </trkpt>
      <trkpt lat="48.07479" lon="7.06715">
        <ele>1077.5</ele>
        <time>2021-08-05T14:12:23Z</time>
      </trkpt>
      <trkpt lat="48.07478" lon="7.0671">
        <ele>1077.6</ele>
        <time>2021-08-05T14:12:24Z</time>
      </trkpt>
      <trkpt lat="48.07477" lon="7.06701">
        <ele>1077.7</ele>
        <time>2021-08-05T14:12:26Z</time>
      </trkpt>
      <trkpt lat="48.07477" lon="7.06694">
        <ele>1077.8</ele>
        <time>2021-08-05T14:12:27Z</time>
      </trkpt>
      <trkpt lat="48.07477" lon="7.06687">
        <ele>1077.9</ele>
        <time>2021-08-05T14:12:28Z</time>
      </trkpt>
      <trkpt lat="48.07477" lon="7.0668">
        <ele>1078</ele>
        <time>2021-08-05T14:12:29Z</time>
      </trkpt>
      <trkpt lat="48.07478" lon="7.06673">
        <ele>1078.1</ele>
        <time>2021-08-05T14:12:30Z</time>
      </trkpt>
      <trkpt lat="48.07478" lon="7.06663">
        <ele>1078.2</ele>
        <time>2021-08-05T14:12:32Z</time>
      </trkpt>
      <trkpt lat="48.07479" lon="7.06656">
        <ele>1078.3</ele>
        <time>2021-08-05T14:12:34Z</time>
      </trkpt>
      <trkpt lat="48.07479" lon="7.0665">
        <ele>1078.4</ele>
        <time>2021-08-05T14:12:35Z</time>
      </trkpt>
      <trkpt lat="48.0748" lon="7.06645">
        <ele>1078.5</ele>
        <time>2021-08-05T14:12:36Z</time>
      </trkpt>
      <trkpt lat="48.07479" lon="7.06639">
        <ele>1078.6</ele>
        <time>2021-08-05T14:12:38Z</time>
      </trkpt>
      <trkpt lat="48.07479" lon="7.06634">
        <ele>1078.7</ele>
        <time>2021-08-05T14:12:39Z</time>
      </trkpt>
      <trkpt lat="48.07479" lon="7.06632">
        <ele>1078.7</ele>
        <time>2021-08-05T14:12:40Z</time>
      </trkpt>
      <trkpt lat="48.0748" lon="7.06628">
        <ele>1078.8</ele>
        <time>2021-08-05T14:12:41Z</time>
      </trkpt>
      <trkpt lat="48.07481" lon="7.06622">
        <ele>1078.9</ele>
        <time>2021-08-05T14:12:42Z</time>
      </trkpt>
      <trkpt lat="48.07482" lon="7.06619">
        <ele>1078.9</ele>
        <time>2021-08-05T14:12:43Z</time>
      </trkpt>
      <trkpt lat="48.07483" lon="7.06611">
        <ele>1079.1</ele>
        <time>2021-08-05T14:12:45Z</time>
      </trkpt>
      <trkpt lat="48.07484" lon="7.06607">
        <ele>1079.1</ele>
        <time>2021-08-05T14:12:46Z</time>
      </trkpt>
      <trkpt lat="48.07485" lon="7.066">
        <ele>1079.2</ele>
        <time>2021-08-05T14:12:48Z</time>
      </trkpt>
      <trkpt lat="48.07485" lon="7.06597">
        <ele>1079.2</ele>
        <time>2021-08-05T14:12:49Z</time>
      </trkpt>
      <trkpt lat="48.07485" lon="7.06595">
        <ele>1079.3</ele>
        <time>2021-08-05T14:12:50Z</time>
      </trkpt>
      <trkpt lat="48.07484" lon="7.06591">
        <ele>1079.3</ele>
        <time>2021-08-05T14:12:51Z</time>
      </trkpt>
      <trkpt lat="48.07484" lon="7.06585">
        <ele>1079.4</ele>
        <time>2021-08-05T14:12:53Z</time>
      </trkpt>
      <trkpt lat="48.07484" lon="7.06579">
        <ele>1079.4</ele>
        <time>2021-08-05T14:12:54Z</time>
      </trkpt>
      <trkpt lat="48.07483" lon="7.06575">
        <ele>1079.5</ele>
        <time>2021-08-05T14:12:55Z</time>
      </trkpt>
      <trkpt lat="48.07483" lon="7.06568">
        <ele>1079.5</ele>
        <time>2021-08-05T14:12:56Z</time>
      </trkpt>
      <trkpt lat="48.07484" lon="7.06566">
        <ele>1079.6</ele>
        <time>2021-08-05T14:12:57Z</time>
      </trkpt>
      <trkpt lat="48.07484" lon="7.06559">
        <ele>1079.7</ele>
        <time>2021-08-05T14:12:59Z</time>
      </trkpt>
      <trkpt lat="48.07483" lon="7.06557">
        <ele>1079.7</ele>
        <time>2021-08-05T14:13:00Z</time>
      </trkpt>
      <trkpt lat="48.07483" lon="7.06555">
        <ele>1079.7</ele>
        <time>2021-08-05T14:13:01Z</time>
      </trkpt>
      <trkpt lat="48.07483" lon="7.06549">
        <ele>1079.8</ele>
        <time>2021-08-05T14:13:02Z</time>
      </trkpt>
      <trkpt lat="48.07483" lon="7.06547">
        <ele>1079.8</ele>
        <time>2021-08-05T14:13:03Z</time>
      </trkpt>
      <trkpt lat="48.07484" lon="7.06542">
        <ele>1079.9</ele>
        <time>2021-08-05T14:13:04Z</time>
      </trkpt>
      <trkpt lat="48.07484" lon="7.06538">
        <ele>1080</ele>
        <time>2021-08-05T14:13:05Z</time>
      </trkpt>
      <trkpt lat="48.07485" lon="7.06532">
        <ele>1080.1</ele>
        <time>2021-08-05T14:13:07Z</time>
      </trkpt>
      <trkpt lat="48.07485" lon="7.06526">
        <ele>1080.2</ele>
        <time>2021-08-05T14:13:08Z</time>
      </trkpt>
      <trkpt lat="48.07485" lon="7.06525">
        <ele>1080.2</ele>
        <time>2021-08-05T14:13:09Z</time>
      </trkpt>
      <trkpt lat="48.07486" lon="7.06519">
        <ele>1080.3</ele>
        <time>2021-08-05T14:13:10Z</time>
      </trkpt>
      <trkpt lat="48.07486" lon="7.06517">
        <ele>1080.3</ele>
        <time>2021-08-05T14:13:11Z</time>
      </trkpt>
      <trkpt lat="48.07486" lon="7.06513">
        <ele>1080.4</ele>
        <time>2021-08-05T14:13:12Z</time>
      </trkpt>
      <trkpt lat="48.07487" lon="7.06504">
        <ele>1080.5</ele>
        <time>2021-08-05T14:13:14Z</time>
      </trkpt>
      <trkpt lat="48.07486" lon="7.06494">
        <ele>1080.6</ele>
        <time>2021-08-05T14:13:16Z</time>
      </trkpt>
      <trkpt lat="48.07486" lon="7.06489">
        <ele>1080.7</ele>
        <time>2021-08-05T14:13:17Z</time>
      </trkpt>
      <trkpt lat="48.07487" lon="7.06484">
        <ele>1080.8</ele>
        <time>2021-08-05T14:13:18Z</time>
      </trkpt>
      <trkpt lat="48.0749" lon="7.06476">
        <ele>1080.9</ele>
        <time>2021-08-05T14:13:20Z</time>
      </trkpt>
      <trkpt lat="48.07493" lon="7.06471">
        <ele>1081</ele>
        <time>2021-08-05T14:13:21Z</time>
      </trkpt>
      <trkpt lat="48.07495" lon="7.06465">
        <ele>1081.1</ele>
        <time>2021-08-05T14:13:23Z</time>
      </trkpt>
      <trkpt lat="48.07497" lon="7.06461">
        <ele>1081.2</ele>
        <time>2021-08-05T14:13:24Z</time>
      </trkpt>
      <trkpt lat="48.07497" lon="7.06456">
        <ele>1081.3</ele>
        <time>2021-08-05T14:13:25Z</time>
      </trkpt>
      <trkpt lat="48.07498" lon="7.06452">
        <ele>1081.4</ele>
        <time>2021-08-05T14:13:26Z</time>
      </trkpt>
      <trkpt lat="48.07498" lon="7.06447">
        <ele>1081.5</ele>
        <time>2021-08-05T14:13:27Z</time>
      </trkpt>
      <trkpt lat="48.07498" lon="7.06445">
        <ele>1081.5</ele>
        <time>2021-08-05T14:13:28Z</time>
      </trkpt>
      <trkpt lat="48.07496" lon="7.0644">
        <ele>1081.6</ele>
        <time>2021-08-05T14:13:29Z</time>
      </trkpt>
      <trkpt lat="48.07495" lon="7.06438">
        <ele>1081.7</ele>
        <time>2021-08-05T14:13:30Z</time>
      </trkpt>
      <trkpt lat="48.07494" lon="7.06432">
        <ele>1081.8</ele>
        <time>2021-08-05T14:13:32Z</time>
      </trkpt>
      <trkpt lat="48.07494" lon="7.06428">
        <ele>1081.9</ele>
        <time>2021-08-05T14:13:33Z</time>
      </trkpt>
      <trkpt lat="48.07493" lon="7.06424">
        <ele>1082</ele>
        <time>2021-08-05T14:13:34Z</time>
      </trkpt>
      <trkpt lat="48.07493" lon="7.06419">
        <ele>1082</ele>
        <time>2021-08-05T14:13:35Z</time>
      </trkpt>
      <trkpt lat="48.07491" lon="7.06414">
        <ele>1082.1</ele>
        <time>2021-08-05T14:13:37Z</time>
      </trkpt>
      <trkpt lat="48.0749" lon="7.0641">
        <ele>1082.2</ele>
        <time>2021-08-05T14:13:38Z</time>
      </trkpt>
      <trkpt lat="48.07488" lon="7.06406">
        <ele>1082.3</ele>
        <time>2021-08-05T14:13:39Z</time>
      </trkpt>
      <trkpt lat="48.07486" lon="7.06403">
        <ele>1082.4</ele>
        <time>2021-08-05T14:13:40Z</time>
      </trkpt>
      <trkpt lat="48.07485" lon="7.06398">
        <ele>1082.5</ele>
        <time>2021-08-05T14:13:41Z</time>
      </trkpt>
      <trkpt lat="48.07484" lon="7.06397">
        <ele>1082.5</ele>
        <time>2021-08-05T14:13:42Z</time>
      </trkpt>
      <trkpt lat="48.07482" lon="7.06392">
        <ele>1082.6</ele>
        <time>2021-08-05T14:13:44Z</time>
      </trkpt>
      <trkpt lat="48.07483" lon="7.06389">
        <ele>1082.6</ele>
        <time>2021-08-05T14:13:45Z</time>
      </trkpt>
      <trkpt lat="48.07484" lon="7.06386">
        <ele>1082.7</ele>
        <time>2021-08-05T14:13:47Z</time>
      </trkpt>
      <trkpt lat="48.07486" lon="7.06382">
        <ele>1082.8</ele>
        <time>2021-08-05T14:13:48Z</time>
      </trkpt>
      <trkpt lat="48.07487" lon="7.06381">
        <ele>1082.8</ele>
        <time>2021-08-05T14:13:49Z</time>
      </trkpt>
      <trkpt lat="48.07488" lon="7.06378">
        <ele>1082.9</ele>
        <time>2021-08-05T14:13:50Z</time>
      </trkpt>
      <trkpt lat="48.0749" lon="7.06373">
        <ele>1083</ele>
        <time>2021-08-05T14:13:52Z</time>
      </trkpt>
      <trkpt lat="48.07493" lon="7.06371">
        <ele>1083.1</ele>
        <time>2021-08-05T14:13:53Z</time>
      </trkpt>
      <trkpt lat="48.07494" lon="7.0637">
        <ele>1083.1</ele>
        <time>2021-08-05T14:13:54Z</time>
      </trkpt>
      <trkpt lat="48.07499" lon="7.06367">
        <ele>1083.2</ele>
        <time>2021-08-05T14:13:56Z</time>
      </trkpt>
      <trkpt lat="48.07501" lon="7.06365">
        <ele>1083.3</ele>
        <time>2021-08-05T14:13:57Z</time>
      </trkpt>
      <trkpt lat="48.07504" lon="7.06362">
        <ele>1083.4</ele>
        <time>2021-08-05T14:13:59Z</time>
      </trkpt>
      <trkpt lat="48.07505" lon="7.06359">
        <ele>1083.5</ele>
        <time>2021-08-05T14:14:00Z</time>
      </trkpt>
      <trkpt lat="48.07508" lon="7.06354">
        <ele>1083.6</ele>
        <time>2021-08-05T14:14:02Z</time>
      </trkpt>
      <trkpt lat="48.0751" lon="7.06351">
        <ele>1083.7</ele>
        <time>2021-08-05T14:14:03Z</time>
      </trkpt>
      <trkpt lat="48.07511" lon="7.06345">
        <ele>1083.8</ele>
        <time>2021-08-05T14:14:05Z</time>
      </trkpt>
      <trkpt lat="48.07513" lon="7.06341">
        <ele>1083.9</ele>
        <time>2021-08-05T14:14:06Z</time>
      </trkpt>
      <trkpt lat="48.07513" lon="7.06339">
        <ele>1084</ele>
        <time>2021-08-05T14:14:07Z</time>
      </trkpt>
      <trkpt lat="48.07516" lon="7.06335">
        <ele>1084</ele>
        <time>2021-08-05T14:14:08Z</time>
      </trkpt>
      <trkpt lat="48.07516" lon="7.06334">
        <ele>1084.1</ele>
        <time>2021-08-05T14:14:09Z</time>
      </trkpt>
      <trkpt lat="48.07519" lon="7.06331">
        <ele>1084.2</ele>
        <time>2021-08-05T14:14:10Z</time>
      </trkpt>
      <trkpt lat="48.07521" lon="7.06329">
        <ele>1084.2</ele>
        <time>2021-08-05T14:14:11Z</time>
      </trkpt>
      <trkpt lat="48.07524" lon="7.06326">
        <ele>1084.3</ele>
        <time>2021-08-05T14:14:13Z</time>
      </trkpt>
      <trkpt lat="48.07527" lon="7.06324">
        <ele>1084.4</ele>
        <time>2021-08-05T14:14:14Z</time>
      </trkpt>
      <trkpt lat="48.07528" lon="7.06323">
        <ele>1084.4</ele>
        <time>2021-08-05T14:14:15Z</time>
      </trkpt>
      <trkpt lat="48.07531" lon="7.06317">
        <ele>1084.5</ele>
        <time>2021-08-05T14:14:17Z</time>
      </trkpt>
      <trkpt lat="48.07532" lon="7.06315">
        <ele>1084.5</ele>
        <time>2021-08-05T14:14:18Z</time>
      </trkpt>
      <trkpt lat="48.07533" lon="7.06313">
        <ele>1084.6</ele>
        <time>2021-08-05T14:14:19Z</time>
      </trkpt>
      <trkpt lat="48.07535" lon="7.06309">
        <ele>1084.6</ele>
        <time>2021-08-05T14:14:20Z</time>
      </trkpt>
      <trkpt lat="48.07535" lon="7.06306">
        <ele>1084.7</ele>
        <time>2021-08-05T14:14:22Z</time>
      </trkpt>
      <trkpt lat="48.07536" lon="7.06305">
        <ele>1084.7</ele>
        <time>2021-08-05T14:14:23Z</time>
      </trkpt>
      <trkpt lat="48.07537" lon="7.06301">
        <ele>1084.7</ele>
        <time>2021-08-05T14:14:25Z</time>
      </trkpt>
      <trkpt lat="48.07537" lon="7.06298">
        <ele>1084.7</ele>
        <time>2021-08-05T14:14:26Z</time>
      </trkpt>
      <trkpt lat="48.07538" lon="7.06295">
        <ele>1084.8</ele>
        <time>2021-08-05T14:14:27Z</time>
      </trkpt>
      <trkpt lat="48.0754" lon="7.06289">
        <ele>1084.8</ele>
        <time>2021-08-05T14:14:29Z</time>
      </trkpt>
      <trkpt lat="48.07541" lon="7.06285">
        <ele>1084.8</ele>
        <time>2021-08-05T14:14:30Z</time>
      </trkpt>
      <trkpt lat="48.07542" lon="7.06282">
        <ele>1084.8</ele>
        <time>2021-08-05T14:14:31Z</time>
      </trkpt>
      <trkpt lat="48.07545" lon="7.06275">
        <ele>1082.9</ele>
        <time>2021-08-05T14:14:33Z</time>
      </trkpt>
      <trkpt lat="48.07548" lon="7.06268">
        <ele>1082.2</ele>
        <time>2021-08-05T14:14:34Z</time>
      </trkpt>
      <trkpt lat="48.0755" lon="7.06263">
        <ele>1081.7</ele>
        <time>2021-08-05T14:14:36Z</time>
      </trkpt>
      <trkpt lat="48.07552" lon="7.06255">
        <ele>1081.3</ele>
        <time>2021-08-05T14:14:37Z</time>
      </trkpt>
      <trkpt lat="48.07553" lon="7.06249">
        <ele>1080.9</ele>
        <time>2021-08-05T14:14:38Z</time>
      </trkpt>
      <trkpt lat="48.07554" lon="7.06243">
        <ele>1080.5</ele>
        <time>2021-08-05T14:14:39Z</time>
      </trkpt>
      <trkpt lat="48.07555" lon="7.06235">
        <ele>1079.9</ele>
        <time>2021-08-05T14:14:41Z</time>
      </trkpt>
      <trkpt lat="48.07555" lon="7.06228">
        <ele>1079.5</ele>
        <time>2021-08-05T14:14:42Z</time>
      </trkpt>
      <trkpt lat="48.07554" lon="7.06211">
        <ele>1078.3</ele>
        <time>2021-08-05T14:14:43Z</time>
      </trkpt>
      <trkpt lat="48.07553" lon="7.06187">
        <ele>1076.5</ele>
        <time>2021-08-05T14:14:45Z</time>
      </trkpt>
      <trkpt lat="48.07554" lon="7.06168">
        <ele>1075.1</ele>
        <time>2021-08-05T14:14:47Z</time>
      </trkpt>
      <trkpt lat="48.0756" lon="7.06148">
        <ele>1073.3</ele>
        <time>2021-08-05T14:14:49Z</time>
      </trkpt>
      <trkpt lat="48.07564" lon="7.06122">
        <ele>1071</ele>
        <time>2021-08-05T14:14:51Z</time>
      </trkpt>
      <trkpt lat="48.07566" lon="7.06107">
        <ele>1069.6</ele>
        <time>2021-08-05T14:14:52Z</time>
      </trkpt>
      <trkpt lat="48.07559" lon="7.0609">
        <ele>1067.9</ele>
        <time>2021-08-05T14:14:54Z</time>
      </trkpt>
      <trkpt lat="48.07548" lon="7.06077">
        <ele>1064.5</ele>
        <time>2021-08-05T14:14:55Z</time>
      </trkpt>
      <trkpt lat="48.07526" lon="7.06058">
        <ele>1058.6</ele>
        <time>2021-08-05T14:14:57Z</time>
      </trkpt>
      <trkpt lat="48.07505" lon="7.06047">
        <ele>1052.6</ele>
        <time>2021-08-05T14:14:59Z</time>
      </trkpt>
      <trkpt lat="48.07493" lon="7.06029">
        <ele>1045.4</ele>
        <time>2021-08-05T14:15:01Z</time>
      </trkpt>
      <trkpt lat="48.07488" lon="7.06019">
        <ele>1040.8</ele>
        <time>2021-08-05T14:15:02Z</time>
      </trkpt>
      <trkpt lat="48.07483" lon="7.06004">
        <ele>1033.8</ele>
        <time>2021-08-05T14:15:04Z</time>
      </trkpt>
      <trkpt lat="48.07483" lon="7.06004">
        <ele>1032.8</ele>
        <time>2021-08-05T14:15:05Z</time>
      </trkpt>
      <trkpt lat="48.07482" lon="7.06003">
        <ele>1031.9</ele>
        <time>2021-08-05T14:15:07Z</time>
      </trkpt>
      <trkpt lat="48.07482" lon="7.06001">
        <ele>1030.9</ele>
        <time>2021-08-05T14:15:08Z</time>
      </trkpt>
      <trkpt lat="48.07472" lon="7.05979">
        <ele>1019.4</ele>
        <time>2021-08-05T14:15:09Z</time>
      </trkpt>
      <trkpt lat="48.07468" lon="7.05973">
        <ele>1016.4</ele>
        <time>2021-08-05T14:15:13Z</time>
      </trkpt>
      <trkpt lat="48.07465" lon="7.05972">
        <ele>1014.7</ele>
        <time>2021-08-05T14:15:14Z</time>
      </trkpt>
      <trkpt lat="48.07475" lon="7.06063">
        <ele>1039.9</ele>
        <time>2021-08-05T14:15:44Z</time>
      </trkpt>
      <trkpt lat="48.07476" lon="7.06067">
        <ele>1039.9</ele>
        <time>2021-08-05T14:15:45Z</time>
      </trkpt>
      <trkpt lat="48.07476" lon="7.06067">
        <ele>1039.9</ele>
        <time>2021-08-05T14:15:46Z</time>
      </trkpt>
      <trkpt lat="48.07476" lon="7.06068">
        <ele>1039.9</ele>
        <time>2021-08-05T14:15:48Z</time>
      </trkpt>
      <trkpt lat="48.0738" lon="7.06195">
        <ele>1038.8</ele>
        <time>2021-08-05T14:16:21Z</time>
      </trkpt>
      <trkpt lat="48.07373" lon="7.06201">
        <ele>1037.2</ele>
        <time>2021-08-05T14:16:22Z</time>
      </trkpt>
      <trkpt lat="48.07369" lon="7.06204">
        <ele>1035.5</ele>
        <time>2021-08-05T14:16:23Z</time>
      </trkpt>
      <trkpt lat="48.07365" lon="7.06207">
        <ele>1034.4</ele>
        <time>2021-08-05T14:16:25Z</time>
      </trkpt>
      <trkpt lat="48.07363" lon="7.06208">
        <ele>1033</ele>
        <time>2021-08-05T14:16:27Z</time>
      </trkpt>
      <trkpt lat="48.07363" lon="7.06208">
        <ele>1032.4</ele>
        <time>2021-08-05T14:16:28Z</time>
      </trkpt>
      <trkpt lat="48.07356" lon="7.06211">
        <ele>1030.5</ele>
        <time>2021-08-05T14:16:30Z</time>
      </trkpt>
      <trkpt lat="48.07353" lon="7.06213">
        <ele>1030.8</ele>
        <time>2021-08-05T14:16:32Z</time>
      </trkpt>
      <trkpt lat="48.07373" lon="7.05821">
        <ele>1001.2</ele>
        <time>2021-08-05T14:18:02Z</time>
      </trkpt>
      <trkpt lat="48.07369" lon="7.05815">
        <ele>1001.3</ele>
        <time>2021-08-05T14:18:03Z</time>
      </trkpt>
      <trkpt lat="48.07365" lon="7.05808">
        <ele>1001.5</ele>
        <time>2021-08-05T14:18:04Z</time>
      </trkpt>
      <trkpt lat="48.07359" lon="7.05803">
        <ele>1001.7</ele>
        <time>2021-08-05T14:18:05Z</time>
      </trkpt>
      <trkpt lat="48.07356" lon="7.058">
        <ele>1001.8</ele>
        <time>2021-08-05T14:18:06Z</time>
      </trkpt>
      <trkpt lat="48.07354" lon="7.05797">
        <ele>1001.8</ele>
        <time>2021-08-05T14:18:07Z</time>
      </trkpt>
      <trkpt lat="48.07351" lon="7.05791">
        <ele>1001.9</ele>
        <time>2021-08-05T14:18:09Z</time>
      </trkpt>
      <trkpt lat="48.07347" lon="7.05786">
        <ele>1002</ele>
        <time>2021-08-05T14:18:11Z</time>
      </trkpt>
      <trkpt lat="48.07344" lon="7.05783">
        <ele>1002.1</ele>
        <time>2021-08-05T14:18:12Z</time>
      </trkpt>
      <trkpt lat="48.07342" lon="7.05782">
        <ele>1002.1</ele>
        <time>2021-08-05T14:18:13Z</time>
      </trkpt>
      <trkpt lat="48.0734" lon="7.05781">
        <ele>1002.2</ele>
        <time>2021-08-05T14:18:15Z</time>
      </trkpt>
      <trkpt lat="48.07339" lon="7.0578">
        <ele>1002.2</ele>
        <time>2021-08-05T14:18:16Z</time>
      </trkpt>
      <trkpt lat="48.07339" lon="7.05781">
        <ele>1002.2</ele>
        <time>2021-08-05T14:18:17Z</time>
      </trkpt>
      <trkpt lat="48.07337" lon="7.05779">
        <ele>1002.3</ele>
        <time>2021-08-05T14:18:18Z</time>
      </trkpt>
      <trkpt lat="48.07333" lon="7.05775">
        <ele>1002.4</ele>
        <time>2021-08-05T14:18:20Z</time>
      </trkpt>
      <trkpt lat="48.0733" lon="7.05774">
        <ele>1002.4</ele>
        <time>2021-08-05T14:18:21Z</time>
      </trkpt>
      <trkpt lat="48.07328" lon="7.05773">
        <ele>1002.5</ele>
        <time>2021-08-05T14:18:22Z</time>
      </trkpt>
      <trkpt lat="48.07325" lon="7.05772">
        <ele>1002.6</ele>
        <time>2021-08-05T14:18:24Z</time>
      </trkpt>
      <trkpt lat="48.07323" lon="7.0577">
        <ele>1002.7</ele>
        <time>2021-08-05T14:18:25Z</time>
      </trkpt>
      <trkpt lat="48.0732" lon="7.0577">
        <ele>1002.8</ele>
        <time>2021-08-05T14:18:26Z</time>
      </trkpt>
      <trkpt lat="48.07316" lon="7.0577">
        <ele>1002.9</ele>
        <time>2021-08-05T14:18:28Z</time>
      </trkpt>
      <trkpt lat="48.07313" lon="7.0577">
        <ele>1003</ele>
        <time>2021-08-05T14:18:29Z</time>
      </trkpt>
      <trkpt lat="48.0731" lon="7.05769">
        <ele>1003.1</ele>
        <time>2021-08-05T14:18:30Z</time>
      </trkpt>
      <trkpt lat="48.07309" lon="7.05769">
        <ele>1003.1</ele>
        <time>2021-08-05T14:18:31Z</time>
      </trkpt>
      <trkpt lat="48.07306" lon="7.05767">
        <ele>1003.2</ele>
        <time>2021-08-05T14:18:32Z</time>
      </trkpt>
      <trkpt lat="48.07305" lon="7.05765">
        <ele>1003.3</ele>
        <time>2021-08-05T14:18:34Z</time>
      </trkpt>
      <trkpt lat="48.07304" lon="7.05764">
        <ele>1003.3</ele>
        <time>2021-08-05T14:18:35Z</time>
      </trkpt>
      <trkpt lat="48.07303" lon="7.05762">
        <ele>1003.4</ele>
        <time>2021-08-05T14:18:36Z</time>
      </trkpt>
      <trkpt lat="48.07299" lon="7.05761">
        <ele>1003.5</ele>
        <time>2021-08-05T14:18:39Z</time>
      </trkpt>
      <trkpt lat="48.07298" lon="7.05758">
        <ele>1003.6</ele>
        <time>2021-08-05T14:18:40Z</time>
      </trkpt>
      <trkpt lat="48.07297" lon="7.05757">
        <ele>1003.7</ele>
        <time>2021-08-05T14:18:41Z</time>
      </trkpt>
      <trkpt lat="48.07297" lon="7.05755">
        <ele>1003.7</ele>
        <time>2021-08-05T14:18:42Z</time>
      </trkpt>
      <trkpt lat="48.07297" lon="7.05754">
        <ele>1003.7</ele>
        <time>2021-08-05T14:18:43Z</time>
      </trkpt>
      <trkpt lat="48.07298" lon="7.05753">
        <ele>1003.7</ele>
        <time>2021-08-05T14:18:45Z</time>
      </trkpt>
      <trkpt lat="48.07298" lon="7.05752">
        <ele>1003.8</ele>
        <time>2021-08-05T14:18:46Z</time>
      </trkpt>
      <trkpt lat="48.07298" lon="7.05751">
        <ele>1003.8</ele>
        <time>2021-08-05T14:18:48Z</time>
      </trkpt>
      <trkpt lat="48.07298" lon="7.0575">
        <ele>1003.8</ele>
        <time>2021-08-05T14:18:49Z</time>
      </trkpt>
      <trkpt lat="48.07298" lon="7.05749">
        <ele>1003.9</ele>
        <time>2021-08-05T14:18:50Z</time>
      </trkpt>
      <trkpt lat="48.07298" lon="7.05749">
        <ele>1003.9</ele>
        <time>2021-08-05T14:18:51Z</time>
      </trkpt>
      <trkpt lat="48.07276" lon="7.05734">
        <ele>1004.8</ele>
        <time>2021-08-05T14:19:03Z</time>
      </trkpt>
      <trkpt lat="48.07272" lon="7.05731">
        <ele>1004.9</ele>
        <time>2021-08-05T14:19:05Z</time>
      </trkpt>
      <trkpt lat="48.07271" lon="7.0573">
        <ele>1005</ele>
        <time>2021-08-05T14:19:06Z</time>
      </trkpt>
      <trkpt lat="48.0727" lon="7.05729">
        <ele>1005</ele>
        <time>2021-08-05T14:19:07Z</time>
      </trkpt>
      <trkpt lat="48.0727" lon="7.05729">
        <ele>1005</ele>
        <time>2021-08-05T14:19:08Z</time>
      </trkpt>
      <trkpt lat="48.0727" lon="7.05729">
        <ele>1005</ele>
        <time>2021-08-05T14:19:10Z</time>
      </trkpt>
      <trkpt lat="48.07269" lon="7.05729">
        <ele>1005</ele>
        <time>2021-08-05T14:19:12Z</time>
      </trkpt>
      <trkpt lat="48.07269" lon="7.05729">
        <ele>1005</ele>
        <time>2021-08-05T14:19:13Z</time>
      </trkpt>
      <trkpt lat="48.07269" lon="7.05727">
        <ele>1005.1</ele>
        <time>2021-08-05T14:19:15Z</time>
      </trkpt>
      <trkpt lat="48.07269" lon="7.05725">
        <ele>1005.1</ele>
        <time>2021-08-05T14:19:16Z</time>
      </trkpt>
      <trkpt lat="48.0727" lon="7.05722">
        <ele>1005.2</ele>
        <time>2021-08-05T14:19:18Z</time>
      </trkpt>
      <trkpt lat="48.0727" lon="7.05721">
        <ele>1005.2</ele>
        <time>2021-08-05T14:19:19Z</time>
      </trkpt>
      <trkpt lat="48.0727" lon="7.0572">
        <ele>1005.2</ele>
        <time>2021-08-05T14:19:20Z</time>
      </trkpt>
      <trkpt lat="48.0727" lon="7.05719">
        <ele>1005.2</ele>
        <time>2021-08-05T14:19:22Z</time>
      </trkpt>
      <trkpt lat="48.0727" lon="7.05718">
        <ele>1005.2</ele>
        <time>2021-08-05T14:19:23Z</time>
      </trkpt>
      <trkpt lat="48.0727" lon="7.05717">
        <ele>1005.3</ele>
        <time>2021-08-05T14:19:24Z</time>
      </trkpt>
      <trkpt lat="48.0727" lon="7.05717">
        <ele>1005.3</ele>
        <time>2021-08-05T14:19:26Z</time>
      </trkpt>
      <trkpt lat="48.07269" lon="7.05715">
        <ele>1005.3</ele>
        <time>2021-08-05T14:19:28Z</time>
      </trkpt>
      <trkpt lat="48.07267" lon="7.05715">
        <ele>1005.4</ele>
        <time>2021-08-05T14:19:29Z</time>
      </trkpt>
      <trkpt lat="48.07264" lon="7.05714">
        <ele>1005.5</ele>
        <time>2021-08-05T14:19:31Z</time>
      </trkpt>
      <trkpt lat="48.07262" lon="7.05714">
        <ele>1005.5</ele>
        <time>2021-08-05T14:19:33Z</time>
      </trkpt>
      <trkpt lat="48.07261" lon="7.05714">
        <ele>1005.5</ele>
        <time>2021-08-05T14:19:34Z</time>
      </trkpt>
      <trkpt lat="48.0726" lon="7.05713">
        <ele>1005.6</ele>
        <time>2021-08-05T14:19:35Z</time>
      </trkpt>
      <trkpt lat="48.07256" lon="7.05712">
        <ele>1005.7</ele>
        <time>2021-08-05T14:19:36Z</time>
      </trkpt>
      <trkpt lat="48.07254" lon="7.05711">
        <ele>1005.7</ele>
        <time>2021-08-05T14:19:37Z</time>
      </trkpt>
      <trkpt lat="48.07249" lon="7.05707">
        <ele>1005.8</ele>
        <time>2021-08-05T14:19:39Z</time>
      </trkpt>
      <trkpt lat="48.0725" lon="7.05702">
        <ele>1005.8</ele>
        <time>2021-08-05T14:19:41Z</time>
      </trkpt>
      <trkpt lat="48.07252" lon="7.05702">
        <ele>1005.9</ele>
        <time>2021-08-05T14:19:42Z</time>
      </trkpt>
      <trkpt lat="48.07254" lon="7.05701">
        <ele>1005.9</ele>
        <time>2021-08-05T14:19:44Z</time>
      </trkpt>
      <trkpt lat="48.07257" lon="7.057">
        <ele>1005.9</ele>
        <time>2021-08-05T14:19:45Z</time>
      </trkpt>
      <trkpt lat="48.07259" lon="7.05699">
        <ele>1005.9</ele>
        <time>2021-08-05T14:19:47Z</time>
      </trkpt>
      <trkpt lat="48.07261" lon="7.05698">
        <ele>1005.8</ele>
        <time>2021-08-05T14:19:48Z</time>
      </trkpt>
      <trkpt lat="48.07264" lon="7.05697">
        <ele>1005.8</ele>
        <time>2021-08-05T14:19:50Z</time>
      </trkpt>
      <trkpt lat="48.07266" lon="7.05697">
        <ele>1005.8</ele>
        <time>2021-08-05T14:19:51Z</time>
      </trkpt>
      <trkpt lat="48.07268" lon="7.05696">
        <ele>1005.8</ele>
        <time>2021-08-05T14:19:53Z</time>
      </trkpt>
      <trkpt lat="48.07272" lon="7.05695">
        <ele>1005.7</ele>
        <time>2021-08-05T14:19:54Z</time>
      </trkpt>
      <trkpt lat="48.07273" lon="7.05694">
        <ele>1005.7</ele>
        <time>2021-08-05T14:19:56Z</time>
      </trkpt>
      <trkpt lat="48.07274" lon="7.05693">
        <ele>1005.7</ele>
        <time>2021-08-05T14:19:57Z</time>
      </trkpt>
      <trkpt lat="48.07274" lon="7.05693">
        <ele>1005.7</ele>
        <time>2021-08-05T14:19:58Z</time>
      </trkpt>
      <trkpt lat="48.07274" lon="7.05693">
        <ele>1005.7</ele>
        <time>2021-08-05T14:20:00Z</time>
      </trkpt>
      <trkpt lat="48.07275" lon="7.05693">
        <ele>1005.7</ele>
        <time>2021-08-05T14:20:02Z</time>
      </trkpt>
      <trkpt lat="48.07275" lon="7.05693">
        <ele>1005.7</ele>
        <time>2021-08-05T14:20:03Z</time>
      </trkpt>
      <trkpt lat="48.07286" lon="7.05693">
        <ele>1005.5</ele>
        <time>2021-08-05T14:20:05Z</time>
      </trkpt>
      <trkpt lat="48.07289" lon="7.05691">
        <ele>1005.4</ele>
        <time>2021-08-05T14:20:06Z</time>
      </trkpt>
      <trkpt lat="48.07292" lon="7.0569">
        <ele>1005.4</ele>
        <time>2021-08-05T14:20:07Z</time>
      </trkpt>
      <trkpt lat="48.07294" lon="7.05689">
        <ele>1005.3</ele>
        <time>2021-08-05T14:20:09Z</time>
      </trkpt>
      <trkpt lat="48.07297" lon="7.05687">
        <ele>1005.3</ele>
        <time>2021-08-05T14:20:11Z</time>
      </trkpt>
      <trkpt lat="48.07299" lon="7.05686">
        <ele>1005.2</ele>
        <time>2021-08-05T14:20:12Z</time>
      </trkpt>
      <trkpt lat="48.07302" lon="7.05685">
        <ele>1005.1</ele>
        <time>2021-08-05T14:20:14Z</time>
      </trkpt>
      <trkpt lat="48.07302" lon="7.05684">
        <ele>1005.1</ele>
        <time>2021-08-05T14:20:15Z</time>
      </trkpt>
      <trkpt lat="48.07302" lon="7.05684">
        <ele>1005.1</ele>
        <time>2021-08-05T14:20:17Z</time>
      </trkpt>
      <trkpt lat="48.07302" lon="7.05684">
        <ele>1005.1</ele>
        <time>2021-08-05T14:20:20Z</time>
      </trkpt>
      <trkpt lat="48.07301" lon="7.05672">
        <ele>1005</ele>
        <time>2021-08-05T14:20:23Z</time>
      </trkpt>
      <trkpt lat="48.07303" lon="7.05671">
        <ele>1004.9</ele>
        <time>2021-08-05T14:20:24Z</time>
      </trkpt>
      <trkpt lat="48.07306" lon="7.05671">
        <ele>1004.8</ele>
        <time>2021-08-05T14:20:26Z</time>
      </trkpt>
      <trkpt lat="48.07309" lon="7.0567">
        <ele>1004.8</ele>
        <time>2021-08-05T14:20:27Z</time>
      </trkpt>
      <trkpt lat="48.07311" lon="7.0567">
        <ele>1004.7</ele>
        <time>2021-08-05T14:20:28Z</time>
      </trkpt>
      <trkpt lat="48.07313" lon="7.05672">
        <ele>1004.7</ele>
        <time>2021-08-05T14:20:29Z</time>
      </trkpt>
      <trkpt lat="48.07312" lon="7.05676">
        <ele>1004.6</ele>
        <time>2021-08-05T14:20:31Z</time>
      </trkpt>
      <trkpt lat="48.07312" lon="7.05677">
        <ele>1004.6</ele>
        <time>2021-08-05T14:20:33Z</time>
      </trkpt>
      <trkpt lat="48.07311" lon="7.05679">
        <ele>1004.5</ele>
        <time>2021-08-05T14:20:35Z</time>
      </trkpt>
      <trkpt lat="48.0731" lon="7.05679">
        <ele>1004.5</ele>
        <time>2021-08-05T14:20:36Z</time>
      </trkpt>
      <trkpt lat="48.0731" lon="7.05679">
        <ele>1004.5</ele>
        <time>2021-08-05T14:20:38Z</time>
      </trkpt>
      <trkpt lat="48.0731" lon="7.05679">
        <ele>1004.5</ele>
        <time>2021-08-05T14:20:39Z</time>
      </trkpt>
      <trkpt lat="48.0731" lon="7.05679">
        <ele>1004.5</ele>
        <time>2021-08-05T14:20:40Z</time>
      </trkpt>
      <trkpt lat="48.0731" lon="7.05679">
        <ele>1004.5</ele>
        <time>2021-08-05T14:20:42Z</time>
      </trkpt>
      <trkpt lat="48.0731" lon="7.0568">
        <ele>1004.5</ele>
        <time>2021-08-05T14:20:44Z</time>
      </trkpt>
      <trkpt lat="48.0731" lon="7.0568">
        <ele>1004.5</ele>
        <time>2021-08-05T14:20:45Z</time>
      </trkpt>
      <trkpt lat="48.0731" lon="7.0568">
        <ele>1004.5</ele>
        <time>2021-08-05T14:20:47Z</time>
      </trkpt>
      <trkpt lat="48.0731" lon="7.0568">
        <ele>1004.5</ele>
        <time>2021-08-05T14:20:49Z</time>
      </trkpt>
      <trkpt lat="48.0731" lon="7.0568">
        <ele>1004.5</ele>
        <time>2021-08-05T14:20:50Z</time>
      </trkpt>
      <trkpt lat="48.0731" lon="7.0568">
        <ele>1004.5</ele>
        <time>2021-08-05T14:20:51Z</time>
      </trkpt>
      <trkpt lat="48.0731" lon="7.0568">
        <ele>1004.5</ele>
        <time>2021-08-05T14:20:52Z</time>
      </trkpt>
      <trkpt lat="48.0731" lon="7.0568">
        <ele>1004.5</ele>
        <time>2021-08-05T14:20:54Z</time>
      </trkpt>
      <trkpt lat="48.0731" lon="7.05681">
        <ele>1004.5</ele>
        <time>2021-08-05T14:20:56Z</time>
      </trkpt>
      <trkpt lat="48.0731" lon="7.05681">
        <ele>1004.5</ele>
        <time>2021-08-05T14:20:57Z</time>
      </trkpt>
      <trkpt lat="48.07317" lon="7.05696">
        <ele>1004.2</ele>
        <time>2021-08-05T14:20:59Z</time>
      </trkpt>
      <trkpt lat="48.0734" lon="7.05711">
        <ele>1003.5</ele>
        <time>2021-08-05T14:21:01Z</time>
      </trkpt>
      <trkpt lat="48.07364" lon="7.05713">
        <ele>1002.9</ele>
        <time>2021-08-05T14:21:03Z</time>
      </trkpt>
      <trkpt lat="48.07377" lon="7.05717">
        <ele>1002.6</ele>
        <time>2021-08-05T14:21:05Z</time>
      </trkpt>
      <trkpt lat="48.07378" lon="7.05727">
        <ele>1002.5</ele>
        <time>2021-08-05T14:21:07Z</time>
      </trkpt>
      <trkpt lat="48.07378" lon="7.05727">
        <ele>1002.5</ele>
        <time>2021-08-05T14:21:08Z</time>
      </trkpt>
      <trkpt lat="48.07379" lon="7.05731">
        <ele>1002.4</ele>
        <time>2021-08-05T14:21:10Z</time>
      </trkpt>
      <trkpt lat="48.07379" lon="7.05733">
        <ele>1002.4</ele>
        <time>2021-08-05T14:21:11Z</time>
      </trkpt>
      <trkpt lat="48.07379" lon="7.05733">
        <ele>1002.4</ele>
        <time>2021-08-05T14:21:13Z</time>
      </trkpt>
      <trkpt lat="48.07379" lon="7.05733">
        <ele>1002.4</ele>
        <time>2021-08-05T14:21:15Z</time>
      </trkpt>
      <trkpt lat="48.07379" lon="7.05733">
        <ele>1002.4</ele>
        <time>2021-08-05T14:21:16Z</time>
      </trkpt>
      <trkpt lat="48.07379" lon="7.05733">
        <ele>1002.4</ele>
        <time>2021-08-05T14:21:17Z</time>
      </trkpt>
      <trkpt lat="48.07379" lon="7.05734">
        <ele>1002.4</ele>
        <time>2021-08-05T14:21:19Z</time>
      </trkpt>
      <trkpt lat="48.07379" lon="7.05734">
        <ele>1002.4</ele>
        <time>2021-08-05T14:21:20Z</time>
      </trkpt>
      <trkpt lat="48.07379" lon="7.05734">
        <ele>1002.4</ele>
        <time>2021-08-05T14:21:21Z</time>
      </trkpt>
      <trkpt lat="48.07378" lon="7.05733">
        <ele>1002.3</ele>
        <time>2021-08-05T14:21:23Z</time>
      </trkpt>
      <trkpt lat="48.07377" lon="7.05731">
        <ele>1002.3</ele>
        <time>2021-08-05T14:21:27Z</time>
      </trkpt>
      <trkpt lat="48.07377" lon="7.05731">
        <ele>1002.3</ele>
        <time>2021-08-05T14:21:29Z</time>
      </trkpt>
      <trkpt lat="48.07377" lon="7.05731">
        <ele>1002.3</ele>
        <time>2021-08-05T14:21:31Z</time>
      </trkpt>
      <trkpt lat="48.07377" lon="7.05731">
        <ele>1002.3</ele>
        <time>2021-08-05T14:21:33Z</time>
      </trkpt>
      <trkpt lat="48.07378" lon="7.0573">
        <ele>1002.3</ele>
        <time>2021-08-05T14:21:34Z</time>
      </trkpt>
      <trkpt lat="48.07396" lon="7.05719">
        <ele>1002</ele>
        <time>2021-08-05T14:21:37Z</time>
      </trkpt>
      <trkpt lat="48.07396" lon="7.05719">
        <ele>1002</ele>
        <time>2021-08-05T14:21:38Z</time>
      </trkpt>
      <trkpt lat="48.07404" lon="7.05715">
        <ele>1002.1</ele>
        <time>2021-08-05T14:21:40Z</time>
      </trkpt>
      <trkpt lat="48.07407" lon="7.05709">
        <ele>1002.1</ele>
        <time>2021-08-05T14:21:43Z</time>
      </trkpt>
      <trkpt lat="48.07405" lon="7.05708">
        <ele>1002.2</ele>
        <time>2021-08-05T14:21:45Z</time>
      </trkpt>
      <trkpt lat="48.07404" lon="7.05707">
        <ele>1002.2</ele>
        <time>2021-08-05T14:21:46Z</time>
      </trkpt>
      <trkpt lat="48.07403" lon="7.05706">
        <ele>1002.2</ele>
        <time>2021-08-05T14:21:48Z</time>
      </trkpt>
      <trkpt lat="48.07402" lon="7.05705">
        <ele>1002.2</ele>
        <time>2021-08-05T14:21:50Z</time>
      </trkpt>
      <trkpt lat="48.07401" lon="7.05704">
        <ele>1002.2</ele>
        <time>2021-08-05T14:21:51Z</time>
      </trkpt>
      <trkpt lat="48.074" lon="7.05703">
        <ele>1002.3</ele>
        <time>2021-08-05T14:21:52Z</time>
      </trkpt>
      <trkpt lat="48.07393" lon="7.05697">
        <ele>1002.4</ele>
        <time>2021-08-05T14:21:54Z</time>
      </trkpt>
      <trkpt lat="48.07391" lon="7.05696">
        <ele>1002.4</ele>
        <time>2021-08-05T14:21:55Z</time>
      </trkpt>
      <trkpt lat="48.07389" lon="7.05695">
        <ele>1002.4</ele>
        <time>2021-08-05T14:21:57Z</time>
      </trkpt>
      <trkpt lat="48.07383" lon="7.05693">
        <ele>1002.5</ele>
        <time>2021-08-05T14:21:59Z</time>
      </trkpt>
      <trkpt lat="48.0738" lon="7.05693">
        <ele>1002.5</ele>
        <time>2021-08-05T14:22:00Z</time>
      </trkpt>
      <trkpt lat="48.07378" lon="7.05692">
        <ele>1002.6</ele>
        <time>2021-08-05T14:22:01Z</time>
      </trkpt>
      <trkpt lat="48.07369" lon="7.05694">
        <ele>1002.8</ele>
        <time>2021-08-05T14:22:03Z</time>
      </trkpt>
      <trkpt lat="48.07351" lon="7.05702">
        <ele>1003.1</ele>
        <time>2021-08-05T14:22:05Z</time>
      </trkpt>
      <trkpt lat="48.07341" lon="7.05708">
        <ele>1003.4</ele>
        <time>2021-08-05T14:22:06Z</time>
      </trkpt>
      <trkpt lat="48.07334" lon="7.05713">
        <ele>1003.5</ele>
        <time>2021-08-05T14:22:08Z</time>
      </trkpt>
      <trkpt lat="48.07324" lon="7.0572">
        <ele>1003.8</ele>
        <time>2021-08-05T14:22:10Z</time>
      </trkpt>
      <trkpt lat="48.07314" lon="7.05728">
        <ele>1004</ele>
        <time>2021-08-05T14:22:12Z</time>
      </trkpt>
      <trkpt lat="48.0731" lon="7.05731">
        <ele>1004.1</ele>
        <time>2021-08-05T14:22:13Z</time>
      </trkpt>
      <trkpt lat="48.07309" lon="7.05733">
        <ele>1004.2</ele>
        <time>2021-08-05T14:22:14Z</time>
      </trkpt>
      <trkpt lat="48.07304" lon="7.05739">
        <ele>1004.3</ele>
        <time>2021-08-05T14:22:16Z</time>
      </trkpt>
      <trkpt lat="48.07303" lon="7.05743">
        <ele>1004.4</ele>
        <time>2021-08-05T14:22:18Z</time>
      </trkpt>
      <trkpt lat="48.07303" lon="7.05744">
        <ele>1004.4</ele>
        <time>2021-08-05T14:22:19Z</time>
      </trkpt>
      <trkpt lat="48.07303" lon="7.05744">
        <ele>1004.4</ele>
        <time>2021-08-05T14:22:21Z</time>
      </trkpt>
      <trkpt lat="48.07303" lon="7.05744">
        <ele>1004.4</ele>
        <time>2021-08-05T14:22:23Z</time>
      </trkpt>
      <trkpt lat="48.07303" lon="7.05744">
        <ele>1004.4</ele>
        <time>2021-08-05T14:22:24Z</time>
      </trkpt>
      <trkpt lat="48.07303" lon="7.05744">
        <ele>1004.4</ele>
        <time>2021-08-05T14:22:25Z</time>
      </trkpt>
      <trkpt lat="48.07303" lon="7.05744">
        <ele>1004.4</ele>
        <time>2021-08-05T14:22:27Z</time>
      </trkpt>
      <trkpt lat="48.07303" lon="7.05743">
        <ele>1004.4</ele>
        <time>2021-08-05T14:22:29Z</time>
      </trkpt>
      <trkpt lat="48.07303" lon="7.05743">
        <ele>1004.4</ele>
        <time>2021-08-05T14:22:30Z</time>
      </trkpt>
      <trkpt lat="48.07303" lon="7.05743">
        <ele>1004.4</ele>
        <time>2021-08-05T14:22:32Z</time>
      </trkpt>
      <trkpt lat="48.07303" lon="7.05743">
        <ele>1004.4</ele>
        <time>2021-08-05T14:22:35Z</time>
      </trkpt>
      <trkpt lat="48.07301" lon="7.05746">
        <ele>1004.5</ele>
        <time>2021-08-05T14:22:36Z</time>
      </trkpt>
      <trkpt lat="48.07302" lon="7.05747">
        <ele>1004.5</ele>
        <time>2021-08-05T14:22:38Z</time>
      </trkpt>
      <trkpt lat="48.07302" lon="7.05747">
        <ele>1004.5</ele>
        <time>2021-08-05T14:22:39Z</time>
      </trkpt>
      <trkpt lat="48.07302" lon="7.05746">
        <ele>1004.5</ele>
        <time>2021-08-05T14:22:41Z</time>
      </trkpt>
      <trkpt lat="48.07302" lon="7.05746">
        <ele>1004.5</ele>
        <time>2021-08-05T14:22:42Z</time>
      </trkpt>
      <trkpt lat="48.07302" lon="7.05746">
        <ele>1004.5</ele>
        <time>2021-08-05T14:22:44Z</time>
      </trkpt>
      <trkpt lat="48.07302" lon="7.05746">
        <ele>1004.5</ele>
        <time>2021-08-05T14:22:45Z</time>
      </trkpt>
      <trkpt lat="48.07301" lon="7.05743">
        <ele>1004.5</ele>
        <time>2021-08-05T14:22:47Z</time>
      </trkpt>
      <trkpt lat="48.07297" lon="7.05743">
        <ele>1004.6</ele>
        <time>2021-08-05T14:22:49Z</time>
      </trkpt>
      <trkpt lat="48.07291" lon="7.05742">
        <ele>1004.7</ele>
        <time>2021-08-05T14:22:51Z</time>
      </trkpt>
      <trkpt lat="48.07285" lon="7.05741">
        <ele>1004.9</ele>
        <time>2021-08-05T14:22:53Z</time>
      </trkpt>
      <trkpt lat="48.07284" lon="7.05741">
        <ele>1004.9</ele>
        <time>2021-08-05T14:22:54Z</time>
      </trkpt>
      <trkpt lat="48.07277" lon="7.0574">
        <ele>1005</ele>
        <time>2021-08-05T14:22:56Z</time>
      </trkpt>
      <trkpt lat="48.07269" lon="7.0574">
        <ele>1005.2</ele>
        <time>2021-08-05T14:22:58Z</time>
      </trkpt>
      <trkpt lat="48.07266" lon="7.0574">
        <ele>1005.2</ele>
        <time>2021-08-05T14:22:59Z</time>
      </trkpt>
      <trkpt lat="48.07265" lon="7.0574">
        <ele>1005.3</ele>
        <time>2021-08-05T14:23:00Z</time>
      </trkpt>
      <trkpt lat="48.07264" lon="7.0574">
        <ele>1005.3</ele>
        <time>2021-08-05T14:23:02Z</time>
      </trkpt>
      <trkpt lat="48.07264" lon="7.0574">
        <ele>1005.3</ele>
        <time>2021-08-05T14:23:03Z</time>
      </trkpt>
      <trkpt lat="48.07263" lon="7.05736">
        <ele>1005.3</ele>
        <time>2021-08-05T14:23:05Z</time>
      </trkpt>
      <trkpt lat="48.07261" lon="7.05729">
        <ele>1005.4</ele>
        <time>2021-08-05T14:23:07Z</time>
      </trkpt>
      <trkpt lat="48.07257" lon="7.05729">
        <ele>1005.5</ele>
        <time>2021-08-05T14:23:08Z</time>
      </trkpt>
      <trkpt lat="48.0725" lon="7.05732">
        <ele>1005.6</ele>
        <time>2021-08-05T14:23:10Z</time>
      </trkpt>
      <trkpt lat="48.07247" lon="7.05735">
        <ele>1005.6</ele>
        <time>2021-08-05T14:23:11Z</time>
      </trkpt>
      <trkpt lat="48.07244" lon="7.05737">
        <ele>1005.7</ele>
        <time>2021-08-05T14:23:12Z</time>
      </trkpt>
      <trkpt lat="48.07241" lon="7.05739">
        <ele>1005.7</ele>
        <time>2021-08-05T14:23:14Z</time>
      </trkpt>
      <trkpt lat="48.0724" lon="7.05741">
        <ele>1005.7</ele>
        <time>2021-08-05T14:23:16Z</time>
      </trkpt>
      <trkpt lat="48.0724" lon="7.05742">
        <ele>1005.7</ele>
        <time>2021-08-05T14:23:17Z</time>
      </trkpt>
      <trkpt lat="48.07239" lon="7.05743">
        <ele>1005.7</ele>
        <time>2021-08-05T14:23:19Z</time>
      </trkpt>
      <trkpt lat="48.07238" lon="7.05744">
        <ele>1005.8</ele>
        <time>2021-08-05T14:23:21Z</time>
      </trkpt>
      <trkpt lat="48.07238" lon="7.05745">
        <ele>1005.8</ele>
        <time>2021-08-05T14:23:23Z</time>
      </trkpt>
      <trkpt lat="48.07237" lon="7.05747">
        <ele>1005.8</ele>
        <time>2021-08-05T14:23:24Z</time>
      </trkpt>
      <trkpt lat="48.07236" lon="7.05748">
        <ele>1005.8</ele>
        <time>2021-08-05T14:23:26Z</time>
      </trkpt>
      <trkpt lat="48.07236" lon="7.05749">
        <ele>1005.8</ele>
        <time>2021-08-05T14:23:27Z</time>
      </trkpt>
      <trkpt lat="48.07236" lon="7.05749">
        <ele>1005.8</ele>
        <time>2021-08-05T14:23:29Z</time>
      </trkpt>
      <trkpt lat="48.07236" lon="7.05749">
        <ele>1005.8</ele>
        <time>2021-08-05T14:23:30Z</time>
      </trkpt>
      <trkpt lat="48.07236" lon="7.05749">
        <ele>1005.8</ele>
        <time>2021-08-05T14:23:34Z</time>
      </trkpt>
      <trkpt lat="48.07342" lon="7.05667">
        <ele>1003.2</ele>
        <time>2021-08-05T14:24:05Z</time>
      </trkpt>
      <trkpt lat="48.07342" lon="7.05667">
        <ele>1003.1</ele>
        <time>2021-08-05T14:24:06Z</time>
      </trkpt>
      <trkpt lat="48.07341" lon="7.05667">
        <ele>1003.1</ele>
        <time>2021-08-05T14:24:07Z</time>
      </trkpt>
      <trkpt lat="48.07341" lon="7.05667">
        <ele>1003.2</ele>
        <time>2021-08-05T14:24:09Z</time>
      </trkpt>
      <trkpt lat="48.0734" lon="7.05668">
        <ele>1003.2</ele>
        <time>2021-08-05T14:24:10Z</time>
      </trkpt>
      <trkpt lat="48.07339" lon="7.05668">
        <ele>1003.2</ele>
        <time>2021-08-05T14:24:11Z</time>
      </trkpt>
      <trkpt lat="48.07339" lon="7.05668">
        <ele>1003.2</ele>
        <time>2021-08-05T14:24:12Z</time>
      </trkpt>
      <trkpt lat="48.07338" lon="7.05669">
        <ele>1003.3</ele>
        <time>2021-08-05T14:24:14Z</time>
      </trkpt>
      <trkpt lat="48.07337" lon="7.05669">
        <ele>1003.3</ele>
        <time>2021-08-05T14:24:16Z</time>
      </trkpt>
      <trkpt lat="48.07287" lon="7.05664">
        <ele>1005.3</ele>
        <time>2021-08-05T14:24:30Z</time>
      </trkpt>
      <trkpt lat="48.07288" lon="7.05669">
        <ele>1005.4</ele>
        <time>2021-08-05T14:24:32Z</time>
      </trkpt>
      <trkpt lat="48.07291" lon="7.05675">
        <ele>1005.6</ele>
        <time>2021-08-05T14:24:33Z</time>
      </trkpt>
      <trkpt lat="48.07293" lon="7.0568">
        <ele>1005.5</ele>
        <time>2021-08-05T14:24:35Z</time>
      </trkpt>
      <trkpt lat="48.07295" lon="7.05686">
        <ele>1005.4</ele>
        <time>2021-08-05T14:24:37Z</time>
      </trkpt>
      <trkpt lat="48.07297" lon="7.05691">
        <ele>1005.2</ele>
        <time>2021-08-05T14:24:39Z</time>
      </trkpt>
      <trkpt lat="48.07299" lon="7.05697">
        <ele>1005.1</ele>
        <time>2021-08-05T14:29:56Z</time>
      </trkpt>
      <trkpt lat="48.07301" lon="7.05702">
        <ele>1004.9</ele>
        <time>2021-08-05T14:29:58Z</time>
      </trkpt>
      <trkpt lat="48.07303" lon="7.05708">
        <ele>1004.8</ele>
        <time>2021-08-05T14:30:00Z</time>
      </trkpt>
      <trkpt lat="48.07305" lon="7.05713">
        <ele>1004.6</ele>
        <time>2021-08-05T14:30:01Z</time>
      </trkpt>
      <trkpt lat="48.07307" lon="7.05719">
        <ele>1004.4</ele>
        <time>2021-08-05T14:30:03Z</time>
      </trkpt>
      <trkpt lat="48.07309" lon="7.05724">
        <ele>1004.6</ele>
        <time>2021-08-05T14:30:04Z</time>
      </trkpt>
      <trkpt lat="48.07311" lon="7.0573">
        <ele>1004.7</ele>
        <time>2021-08-05T14:30:05Z</time>
      </trkpt>
      <trkpt lat="48.07314" lon="7.05725">
        <ele>1004.9</ele>
        <time>2021-08-05T14:30:06Z</time>
      </trkpt>
      <trkpt lat="48.07315" lon="7.05722">
        <ele>1005</ele>
        <time>2021-08-05T14:30:07Z</time>
      </trkpt>
      <trkpt lat="48.07315" lon="7.05722">
        <ele>1005</ele>
        <time>2021-08-05T14:30:09Z</time>
      </trkpt>
      <trkpt lat="48.07316" lon="7.05721">
        <ele>1005</ele>
        <time>2021-08-05T14:30:10Z</time>
      </trkpt>
      <trkpt lat="48.07316" lon="7.05721">
        <ele>1005</ele>
        <time>2021-08-05T14:30:12Z</time>
      </trkpt>
      <trkpt lat="48.07316" lon="7.05721">
        <ele>1005</ele>
        <time>2021-08-05T14:30:14Z</time>
      </trkpt>
      <trkpt lat="48.07316" lon="7.0572">
        <ele>1005</ele>
        <time>2021-08-05T14:30:16Z</time>
      </trkpt>
      <trkpt lat="48.07316" lon="7.0572">
        <ele>1005</ele>
        <time>2021-08-05T14:30:17Z</time>
      </trkpt>
      <trkpt lat="48.07315" lon="7.05719">
        <ele>1005</ele>
        <time>2021-08-05T14:30:19Z</time>
      </trkpt>
      <trkpt lat="48.07315" lon="7.05719">
        <ele>1005</ele>
        <time>2021-08-05T14:30:20Z</time>
      </trkpt>
      <trkpt lat="48.07217" lon="7.05587">
        <ele>1006.7</ele>
        <time>2021-08-05T14:30:57Z</time>
      </trkpt>
      <trkpt lat="48.07214" lon="7.05583">
        <ele>1006.8</ele>
        <time>2021-08-05T14:30:59Z</time>
      </trkpt>
      <trkpt lat="48.07214" lon="7.05582">
        <ele>1006.8</ele>
        <time>2021-08-05T14:31:00Z</time>
      </trkpt>
      <trkpt lat="48.07172" lon="7.05554">
        <ele>1008.2</ele>
        <time>2021-08-05T14:31:27Z</time>
      </trkpt>
      <trkpt lat="48.07166" lon="7.05551">
        <ele>1008.5</ele>
        <time>2021-08-05T14:31:29Z</time>
      </trkpt>
      <trkpt lat="48.07162" lon="7.05546">
        <ele>1008.7</ele>
        <time>2021-08-05T14:31:31Z</time>
      </trkpt>
      <trkpt lat="48.07161" lon="7.05544">
        <ele>1008.8</ele>
        <time>2021-08-05T14:31:32Z</time>
      </trkpt>
      <trkpt lat="48.07159" lon="7.05542">
        <ele>1008.9</ele>
        <time>2021-08-05T14:31:33Z</time>
      </trkpt>
      <trkpt lat="48.07156" lon="7.05538">
        <ele>1009</ele>
        <time>2021-08-05T14:31:34Z</time>
      </trkpt>
      <trkpt lat="48.07153" lon="7.05534">
        <ele>1009.1</ele>
        <time>2021-08-05T14:31:36Z</time>
      </trkpt>
      <trkpt lat="48.07151" lon="7.0553">
        <ele>1009.2</ele>
        <time>2021-08-05T14:31:37Z</time>
      </trkpt>
      <trkpt lat="48.0715" lon="7.05529">
        <ele>1009.2</ele>
        <time>2021-08-05T14:31:38Z</time>
      </trkpt>
      <trkpt lat="48.07151" lon="7.05528">
        <ele>1009.3</ele>
        <time>2021-08-05T14:31:39Z</time>
      </trkpt>
      <trkpt lat="48.07152" lon="7.05527">
        <ele>1009.3</ele>
        <time>2021-08-05T14:31:41Z</time>
      </trkpt>
      <trkpt lat="48.07152" lon="7.05525">
        <ele>1009.3</ele>
        <time>2021-08-05T14:31:42Z</time>
      </trkpt>
      <trkpt lat="48.07152" lon="7.05523">
        <ele>1009.4</ele>
        <time>2021-08-05T14:31:43Z</time>
      </trkpt>
      <trkpt lat="48.07153" lon="7.05521">
        <ele>1009.4</ele>
        <time>2021-08-05T14:31:44Z</time>
      </trkpt>
      <trkpt lat="48.07154" lon="7.05516">
        <ele>1009.5</ele>
        <time>2021-08-05T14:31:46Z</time>
      </trkpt>
      <trkpt lat="48.07155" lon="7.05512">
        <ele>1009.6</ele>
        <time>2021-08-05T14:31:47Z</time>
      </trkpt>
      <trkpt lat="48.07155" lon="7.05509">
        <ele>1009.7</ele>
        <time>2021-08-05T14:31:48Z</time>
      </trkpt>
      <trkpt lat="48.07155" lon="7.05504">
        <ele>1009.8</ele>
        <time>2021-08-05T14:31:50Z</time>
      </trkpt>
      <trkpt lat="48.07155" lon="7.05501">
        <ele>1009.9</ele>
        <time>2021-08-05T14:31:51Z</time>
      </trkpt>
      <trkpt lat="48.07155" lon="7.055">
        <ele>1009.9</ele>
        <time>2021-08-05T14:31:52Z</time>
      </trkpt>
      <trkpt lat="48.07156" lon="7.05501">
        <ele>1010</ele>
        <time>2021-08-05T14:31:53Z</time>
      </trkpt>
      <trkpt lat="48.07156" lon="7.05502">
        <ele>1010</ele>
        <time>2021-08-05T14:31:55Z</time>
      </trkpt>
      <trkpt lat="48.07157" lon="7.05502">
        <ele>1010.1</ele>
        <time>2021-08-05T14:31:56Z</time>
      </trkpt>
      <trkpt lat="48.07158" lon="7.05503">
        <ele>1010.1</ele>
        <time>2021-08-05T14:31:57Z</time>
      </trkpt>
      <trkpt lat="48.07157" lon="7.05503">
        <ele>1010.1</ele>
        <time>2021-08-05T14:31:59Z</time>
      </trkpt>
      <trkpt lat="48.07157" lon="7.05502">
        <ele>1010.1</ele>
        <time>2021-08-05T14:32:00Z</time>
      </trkpt>
      <trkpt lat="48.07156" lon="7.05502">
        <ele>1010.1</ele>
        <time>2021-08-05T14:32:01Z</time>
      </trkpt>
      <trkpt lat="48.07155" lon="7.05502">
        <ele>1010.2</ele>
        <time>2021-08-05T14:32:02Z</time>
      </trkpt>
      <trkpt lat="48.07149" lon="7.05488">
        <ele>1010.6</ele>
        <time>2021-08-05T14:32:12Z</time>
      </trkpt>
      <trkpt lat="48.07149" lon="7.05483">
        <ele>1010.8</ele>
        <time>2021-08-05T14:32:14Z</time>
      </trkpt>
      <trkpt lat="48.07147" lon="7.05478">
        <ele>1010.9</ele>
        <time>2021-08-05T14:32:15Z</time>
      </trkpt>
      <trkpt lat="48.07147" lon="7.05472">
        <ele>1011.1</ele>
        <time>2021-08-05T14:32:16Z</time>
      </trkpt>
      <trkpt lat="48.07146" lon="7.05468">
        <ele>1011.2</ele>
        <time>2021-08-05T14:32:17Z</time>
      </trkpt>
      <trkpt lat="48.07146" lon="7.05466">
        <ele>1011.2</ele>
        <time>2021-08-05T14:32:18Z</time>
      </trkpt>
      <trkpt lat="48.07147" lon="7.05464">
        <ele>1011.3</ele>
        <time>2021-08-05T14:32:20Z</time>
      </trkpt>
      <trkpt lat="48.07148" lon="7.05462">
        <ele>1011.3</ele>
        <time>2021-08-05T14:32:21Z</time>
      </trkpt>
      <trkpt lat="48.07149" lon="7.0546">
        <ele>1011.4</ele>
        <time>2021-08-05T14:32:22Z</time>
      </trkpt>
      <trkpt lat="48.07149" lon="7.05457">
        <ele>1011.5</ele>
        <time>2021-08-05T14:32:23Z</time>
      </trkpt>
      <trkpt lat="48.0715" lon="7.05455">
        <ele>1011.5</ele>
        <time>2021-08-05T14:32:25Z</time>
      </trkpt>
      <trkpt lat="48.07159" lon="7.0537">
        <ele>1013.8</ele>
        <time>2021-08-05T14:33:00Z</time>
      </trkpt>
      <trkpt lat="48.07158" lon="7.05363">
        <ele>1014</ele>
        <time>2021-08-05T14:33:01Z</time>
      </trkpt>
      <trkpt lat="48.07158" lon="7.05358">
        <ele>1014.1</ele>
        <time>2021-08-05T14:33:03Z</time>
      </trkpt>
      <trkpt lat="48.07158" lon="7.05351">
        <ele>1014.2</ele>
        <time>2021-08-05T14:33:04Z</time>
      </trkpt>
      <trkpt lat="48.07158" lon="7.0534">
        <ele>1014.4</ele>
        <time>2021-08-05T14:33:06Z</time>
      </trkpt>
      <trkpt lat="48.07157" lon="7.05335">
        <ele>1014.5</ele>
        <time>2021-08-05T14:33:07Z</time>
      </trkpt>
      <trkpt lat="48.07157" lon="7.0533">
        <ele>1014.6</ele>
        <time>2021-08-05T14:33:08Z</time>
      </trkpt>
      <trkpt lat="48.07157" lon="7.05329">
        <ele>1014.6</ele>
        <time>2021-08-05T14:33:09Z</time>
      </trkpt>
      <trkpt lat="48.07158" lon="7.05327">
        <ele>1014.7</ele>
        <time>2021-08-05T14:33:10Z</time>
      </trkpt>
      <trkpt lat="48.07159" lon="7.05325">
        <ele>1014.7</ele>
        <time>2021-08-05T14:33:11Z</time>
      </trkpt>
      <trkpt lat="48.0716" lon="7.0532">
        <ele>1014.8</ele>
        <time>2021-08-05T14:33:13Z</time>
      </trkpt>
      <trkpt lat="48.07161" lon="7.05319">
        <ele>1014.8</ele>
        <time>2021-08-05T14:33:14Z</time>
      </trkpt>
      <trkpt lat="48.07162" lon="7.05315">
        <ele>1014.9</ele>
        <time>2021-08-05T14:33:16Z</time>
      </trkpt>
      <trkpt lat="48.07162" lon="7.05314">
        <ele>1014.9</ele>
        <time>2021-08-05T14:33:17Z</time>
      </trkpt>
      <trkpt lat="48.07162" lon="7.05313">
        <ele>1015</ele>
        <time>2021-08-05T14:33:18Z</time>
      </trkpt>
      <trkpt lat="48.07162" lon="7.05311">
        <ele>1015</ele>
        <time>2021-08-05T14:33:20Z</time>
      </trkpt>
      <trkpt lat="48.07162" lon="7.0531">
        <ele>1015</ele>
        <time>2021-08-05T14:33:21Z</time>
      </trkpt>
      <trkpt lat="48.07162" lon="7.05306">
        <ele>1015.1</ele>
        <time>2021-08-05T14:33:22Z</time>
      </trkpt>
      <trkpt lat="48.07162" lon="7.05304">
        <ele>1015.1</ele>
        <time>2021-08-05T14:33:24Z</time>
      </trkpt>
      <trkpt lat="48.07162" lon="7.05301">
        <ele>1015.2</ele>
        <time>2021-08-05T14:33:25Z</time>
      </trkpt>
      <trkpt lat="48.07163" lon="7.05296">
        <ele>1015.3</ele>
        <time>2021-08-05T14:33:27Z</time>
      </trkpt>
      <trkpt lat="48.07164" lon="7.05295">
        <ele>1015.3</ele>
        <time>2021-08-05T14:33:28Z</time>
      </trkpt>
      <trkpt lat="48.07165" lon="7.05294">
        <ele>1015.3</ele>
        <time>2021-08-05T14:33:29Z</time>
      </trkpt>
      <trkpt lat="48.07167" lon="7.05294">
        <ele>1015.4</ele>
        <time>2021-08-05T14:33:30Z</time>
      </trkpt>
      <trkpt lat="48.07169" lon="7.05292">
        <ele>1015.5</ele>
        <time>2021-08-05T14:33:31Z</time>
      </trkpt>
      <trkpt lat="48.0717" lon="7.05289">
        <ele>1015.5</ele>
        <time>2021-08-05T14:33:33Z</time>
      </trkpt>
      <trkpt lat="48.07172" lon="7.05286">
        <ele>1015.6</ele>
        <time>2021-08-05T14:33:34Z</time>
      </trkpt>
      <trkpt lat="48.07174" lon="7.05284">
        <ele>1015.7</ele>
        <time>2021-08-05T14:33:35Z</time>
      </trkpt>
      <trkpt lat="48.07175" lon="7.05279">
        <ele>1015.8</ele>
        <time>2021-08-05T14:33:37Z</time>
      </trkpt>
      <trkpt lat="48.07175" lon="7.05277">
        <ele>1015.8</ele>
        <time>2021-08-05T14:33:38Z</time>
      </trkpt>
      <trkpt lat="48.07175" lon="7.05275">
        <ele>1015.9</ele>
        <time>2021-08-05T14:33:39Z</time>
      </trkpt>
      <trkpt lat="48.07174" lon="7.05273">
        <ele>1015.9</ele>
        <time>2021-08-05T14:33:41Z</time>
      </trkpt>
      <trkpt lat="48.07173" lon="7.05268">
        <ele>1016</ele>
        <time>2021-08-05T14:33:43Z</time>
      </trkpt>
      <trkpt lat="48.07173" lon="7.05264">
        <ele>1016.1</ele>
        <time>2021-08-05T14:33:44Z</time>
      </trkpt>
      <trkpt lat="48.07174" lon="7.05262">
        <ele>1016.1</ele>
        <time>2021-08-05T14:33:45Z</time>
      </trkpt>
      <trkpt lat="48.07174" lon="7.05262">
        <ele>1016.1</ele>
        <time>2021-08-05T14:33:47Z</time>
      </trkpt>
      <trkpt lat="48.07174" lon="7.05261">
        <ele>1016.2</ele>
        <time>2021-08-05T14:33:48Z</time>
      </trkpt>
      <trkpt lat="48.07175" lon="7.05261">
        <ele>1016.2</ele>
        <time>2021-08-05T14:33:49Z</time>
      </trkpt>
      <trkpt lat="48.07175" lon="7.0526">
        <ele>1016.2</ele>
        <time>2021-08-05T14:33:50Z</time>
      </trkpt>
      <trkpt lat="48.07175" lon="7.0526">
        <ele>1016.2</ele>
        <time>2021-08-05T14:33:52Z</time>
      </trkpt>
      <trkpt lat="48.07175" lon="7.05259">
        <ele>1016.2</ele>
        <time>2021-08-05T14:33:53Z</time>
      </trkpt>
      <trkpt lat="48.07174" lon="7.05257">
        <ele>1016.3</ele>
        <time>2021-08-05T14:33:54Z</time>
      </trkpt>
      <trkpt lat="48.07165" lon="7.05227">
        <ele>1017</ele>
        <time>2021-08-05T14:34:06Z</time>
      </trkpt>
      <trkpt lat="48.07164" lon="7.0522">
        <ele>1017.2</ele>
        <time>2021-08-05T14:34:08Z</time>
      </trkpt>
      <trkpt lat="48.07164" lon="7.05215">
        <ele>1017.4</ele>
        <time>2021-08-05T14:34:09Z</time>
      </trkpt>
      <trkpt lat="48.07164" lon="7.05214">
        <ele>1017.4</ele>
        <time>2021-08-05T14:34:10Z</time>
      </trkpt>
      <trkpt lat="48.07165" lon="7.05209">
        <ele>1017.5</ele>
        <time>2021-08-05T14:34:11Z</time>
      </trkpt>
      <trkpt lat="48.07165" lon="7.05206">
        <ele>1017.6</ele>
        <time>2021-08-05T14:34:12Z</time>
      </trkpt>
      <trkpt lat="48.07166" lon="7.05198">
        <ele>1017.8</ele>
        <time>2021-08-05T14:34:14Z</time>
      </trkpt>
      <trkpt lat="48.07166" lon="7.05193">
        <ele>1018</ele>
        <time>2021-08-05T14:34:15Z</time>
      </trkpt>
      <trkpt lat="48.07167" lon="7.05186">
        <ele>1018.2</ele>
        <time>2021-08-05T14:34:17Z</time>
      </trkpt>
      <trkpt lat="48.07169" lon="7.0518">
        <ele>1018.4</ele>
        <time>2021-08-05T14:34:19Z</time>
      </trkpt>
      <trkpt lat="48.07172" lon="7.05177">
        <ele>1018.5</ele>
        <time>2021-08-05T14:34:21Z</time>
      </trkpt>
      <trkpt lat="48.07172" lon="7.05176">
        <ele>1018.6</ele>
        <time>2021-08-05T14:34:22Z</time>
      </trkpt>
      <trkpt lat="48.07173" lon="7.05176">
        <ele>1018.6</ele>
        <time>2021-08-05T14:34:24Z</time>
      </trkpt>
      <trkpt lat="48.07173" lon="7.05176">
        <ele>1018.6</ele>
        <time>2021-08-05T14:34:25Z</time>
      </trkpt>
      <trkpt lat="48.07173" lon="7.05176">
        <ele>1018.6</ele>
        <time>2021-08-05T14:34:26Z</time>
      </trkpt>
      <trkpt lat="48.07173" lon="7.05175">
        <ele>1018.6</ele>
        <time>2021-08-05T14:34:27Z</time>
      </trkpt>
      <trkpt lat="48.07173" lon="7.05175">
        <ele>1018.6</ele>
        <time>2021-08-05T14:34:28Z</time>
      </trkpt>
      <trkpt lat="48.07173" lon="7.05175">
        <ele>1018.6</ele>
        <time>2021-08-05T14:34:29Z</time>
      </trkpt>
      <trkpt lat="48.07197" lon="7.05048">
        <ele>1023.2</ele>
        <time>2021-08-05T14:35:49Z</time>
      </trkpt>
      <trkpt lat="48.07196" lon="7.05043">
        <ele>1023.4</ele>
        <time>2021-08-05T14:35:50Z</time>
      </trkpt>
      <trkpt lat="48.07195" lon="7.05037">
        <ele>1023.6</ele>
        <time>2021-08-05T14:35:51Z</time>
      </trkpt>
      <trkpt lat="48.07195" lon="7.05031">
        <ele>1023.7</ele>
        <time>2021-08-05T14:35:53Z</time>
      </trkpt>
      <trkpt lat="48.07194" lon="7.05027">
        <ele>1023.8</ele>
        <time>2021-08-05T14:35:54Z</time>
      </trkpt>
      <trkpt lat="48.07192" lon="7.0502">
        <ele>1024</ele>
        <time>2021-08-05T14:35:56Z</time>
      </trkpt>
      <trkpt lat="48.0719" lon="7.05015">
        <ele>1024.1</ele>
        <time>2021-08-05T14:35:57Z</time>
      </trkpt>
      <trkpt lat="48.07189" lon="7.0501">
        <ele>1024.3</ele>
        <time>2021-08-05T14:35:59Z</time>
      </trkpt>
      <trkpt lat="48.07188" lon="7.05007">
        <ele>1024.3</ele>
        <time>2021-08-05T14:36:01Z</time>
      </trkpt>
      <trkpt lat="48.07189" lon="7.05007">
        <ele>1024.4</ele>
        <time>2021-08-05T14:36:03Z</time>
      </trkpt>
      <trkpt lat="48.07189" lon="7.05007">
        <ele>1024.4</ele>
        <time>2021-08-05T14:36:05Z</time>
      </trkpt>
      <trkpt lat="48.07189" lon="7.05007">
        <ele>1024.4</ele>
        <time>2021-08-05T14:36:06Z</time>
      </trkpt>
      <trkpt lat="48.0719" lon="7.05007">
        <ele>1024.4</ele>
        <time>2021-08-05T14:36:07Z</time>
      </trkpt>
      <trkpt lat="48.0719" lon="7.05007">
        <ele>1024.4</ele>
        <time>2021-08-05T14:36:08Z</time>
      </trkpt>
      <trkpt lat="48.07191" lon="7.05007">
        <ele>1024.5</ele>
        <time>2021-08-05T14:36:10Z</time>
      </trkpt>
      <trkpt lat="48.07191" lon="7.05007">
        <ele>1024.5</ele>
        <time>2021-08-05T14:36:11Z</time>
      </trkpt>
      <trkpt lat="48.07192" lon="7.05004">
        <ele>1024.5</ele>
        <time>2021-08-05T14:36:12Z</time>
      </trkpt>
      <trkpt lat="48.07192" lon="7.05002">
        <ele>1024.6</ele>
        <time>2021-08-05T14:36:13Z</time>
      </trkpt>
      <trkpt lat="48.07193" lon="7.0499">
        <ele>1024.9</ele>
        <time>2021-08-05T14:36:16Z</time>
      </trkpt>
      <trkpt lat="48.07194" lon="7.04983">
        <ele>1025</ele>
        <time>2021-08-05T14:36:17Z</time>
      </trkpt>
      <trkpt lat="48.07194" lon="7.04971">
        <ele>1025.2</ele>
        <time>2021-08-05T14:36:19Z</time>
      </trkpt>
      <trkpt lat="48.07193" lon="7.04961">
        <ele>1025.4</ele>
        <time>2021-08-05T14:36:20Z</time>
      </trkpt>
      <trkpt lat="48.07192" lon="7.04958">
        <ele>1025.4</ele>
        <time>2021-08-05T14:36:21Z</time>
      </trkpt>
      <trkpt lat="48.07191" lon="7.04956">
        <ele>1025.4</ele>
        <time>2021-08-05T14:36:22Z</time>
      </trkpt>
      <trkpt lat="48.07191" lon="7.04955">
        <ele>1025.4</ele>
        <time>2021-08-05T14:36:24Z</time>
      </trkpt>
      <trkpt lat="48.07191" lon="7.04955">
        <ele>1025.5</ele>
        <time>2021-08-05T14:36:25Z</time>
      </trkpt>
      <trkpt lat="48.07191" lon="7.04955">
        <ele>1025.5</ele>
        <time>2021-08-05T14:36:26Z</time>
      </trkpt>
      <trkpt lat="48.07191" lon="7.04954">
        <ele>1025.5</ele>
        <time>2021-08-05T14:36:28Z</time>
      </trkpt>
      <trkpt lat="48.0719" lon="7.04954">
        <ele>1025.5</ele>
        <time>2021-08-05T14:36:29Z</time>
      </trkpt>
      <trkpt lat="48.07187" lon="7.04924">
        <ele>1025.7</ele>
        <time>2021-08-05T14:36:39Z</time>
      </trkpt>
      <trkpt lat="48.07185" lon="7.04916">
        <ele>1025.6</ele>
        <time>2021-08-05T14:36:40Z</time>
      </trkpt>
      <trkpt lat="48.07185" lon="7.0491">
        <ele>1025.6</ele>
        <time>2021-08-05T14:36:41Z</time>
      </trkpt>
      <trkpt lat="48.07183" lon="7.04899">
        <ele>1025.3</ele>
        <time>2021-08-05T14:36:43Z</time>
      </trkpt>
      <trkpt lat="48.07182" lon="7.0489">
        <ele>1025</ele>
        <time>2021-08-05T14:36:44Z</time>
      </trkpt>
      <trkpt lat="48.07181" lon="7.0488">
        <ele>1024.7</ele>
        <time>2021-08-05T14:36:45Z</time>
      </trkpt>
      <trkpt lat="48.0718" lon="7.04868">
        <ele>1024.2</ele>
        <time>2021-08-05T14:36:47Z</time>
      </trkpt>
      <trkpt lat="48.07182" lon="7.04864">
        <ele>1024</ele>
        <time>2021-08-05T14:36:48Z</time>
      </trkpt>
      <trkpt lat="48.07179" lon="7.04857">
        <ele>1023.7</ele>
        <time>2021-08-05T14:36:50Z</time>
      </trkpt>
      <trkpt lat="48.07179" lon="7.04854">
        <ele>1023.6</ele>
        <time>2021-08-05T14:36:51Z</time>
      </trkpt>
      <trkpt lat="48.07179" lon="7.04851">
        <ele>1024</ele>
        <time>2021-08-05T14:36:52Z</time>
      </trkpt>
      <trkpt lat="48.07176" lon="7.04852">
        <ele>1023.9</ele>
        <time>2021-08-05T14:36:53Z</time>
      </trkpt>
      <trkpt lat="48.07173" lon="7.04853">
        <ele>1023.7</ele>
        <time>2021-08-05T14:36:55Z</time>
      </trkpt>
      <trkpt lat="48.07171" lon="7.04855">
        <ele>1024</ele>
        <time>2021-08-05T14:36:57Z</time>
      </trkpt>
      <trkpt lat="48.07168" lon="7.04856">
        <ele>1023.6</ele>
        <time>2021-08-05T14:36:58Z</time>
      </trkpt>
      <trkpt lat="48.07165" lon="7.04857">
        <ele>1023.2</ele>
        <time>2021-08-05T14:37:18Z</time>
      </trkpt>
      <trkpt lat="48.07162" lon="7.04859">
        <ele>1022.7</ele>
        <time>2021-08-05T14:37:19Z</time>
      </trkpt>
      <trkpt lat="48.07157" lon="7.04861">
        <ele>1022.2</ele>
        <time>2021-08-05T14:37:21Z</time>
      </trkpt>
      <trkpt lat="48.07152" lon="7.04863">
        <ele>1022.5</ele>
        <time>2021-08-05T14:37:22Z</time>
      </trkpt>
      <trkpt lat="48.07146" lon="7.04864">
        <ele>1021.2</ele>
        <time>2021-08-05T14:37:23Z</time>
      </trkpt>
      <trkpt lat="48.07141" lon="7.04866">
        <ele>1019.6</ele>
        <time>2021-08-05T14:37:24Z</time>
      </trkpt>
      <trkpt lat="48.07138" lon="7.04867">
        <ele>1018.8</ele>
        <time>2021-08-05T14:37:25Z</time>
      </trkpt>
      <trkpt lat="48.07135" lon="7.04867">
        <ele>1018.1</ele>
        <time>2021-08-05T14:37:27Z</time>
      </trkpt>
      <trkpt lat="48.07134" lon="7.04867">
        <ele>1017.3</ele>
        <time>2021-08-05T14:37:28Z</time>
      </trkpt>
      <trkpt lat="48.07132" lon="7.04866">
        <ele>1017.8</ele>
        <time>2021-08-05T14:37:29Z</time>
      </trkpt>
      <trkpt lat="48.07128" lon="7.04864">
        <ele>1015.8</ele>
        <time>2021-08-05T14:37:31Z</time>
      </trkpt>
      <trkpt lat="48.07125" lon="7.04864">
        <ele>1015</ele>
        <time>2021-08-05T14:37:32Z</time>
      </trkpt>
      <trkpt lat="48.07125" lon="7.04864">
        <ele>1014.9</ele>
        <time>2021-08-05T14:37:33Z</time>
      </trkpt>
      <trkpt lat="48.07124" lon="7.04861">
        <ele>1014.8</ele>
        <time>2021-08-05T14:37:35Z</time>
      </trkpt>
      <trkpt lat="48.07124" lon="7.0486">
        <ele>1014.7</ele>
        <time>2021-08-05T14:37:36Z</time>
      </trkpt>
      <trkpt lat="48.07124" lon="7.0486">
        <ele>1014.6</ele>
        <time>2021-08-05T14:37:38Z</time>
      </trkpt>
      <trkpt lat="48.07123" lon="7.04859">
        <ele>1014.6</ele>
        <time>2021-08-05T14:37:39Z</time>
      </trkpt>
      <trkpt lat="48.07122" lon="7.04859">
        <ele>1014.4</ele>
        <time>2021-08-05T14:37:41Z</time>
      </trkpt>
      <trkpt lat="48.07121" lon="7.04858">
        <ele>1014.3</ele>
        <time>2021-08-05T14:37:43Z</time>
      </trkpt>
      <trkpt lat="48.07129" lon="7.04932">
        <ele>1009.2</ele>
        <time>2021-08-05T14:38:01Z</time>
      </trkpt>
      <trkpt lat="48.07132" lon="7.04957">
        <ele>1007.7</ele>
        <time>2021-08-05T14:38:03Z</time>
      </trkpt>
      <trkpt lat="48.07131" lon="7.04963">
        <ele>1007.3</ele>
        <time>2021-08-05T14:38:04Z</time>
      </trkpt>
      <trkpt lat="48.07131" lon="7.04973">
        <ele>1006.7</ele>
        <time>2021-08-05T14:38:05Z</time>
      </trkpt>
      <trkpt lat="48.07132" lon="7.04989">
        <ele>1005.5</ele>
        <time>2021-08-05T14:38:07Z</time>
      </trkpt>
      <trkpt lat="48.07132" lon="7.04999">
        <ele>1004.7</ele>
        <time>2021-08-05T14:38:08Z</time>
      </trkpt>
      <trkpt lat="48.07131" lon="7.05017">
        <ele>1003.4</ele>
        <time>2021-08-05T14:38:10Z</time>
      </trkpt>
      <trkpt lat="48.07129" lon="7.0503">
        <ele>1002.4</ele>
        <time>2021-08-05T14:38:11Z</time>
      </trkpt>
      <trkpt lat="48.07129" lon="7.05039">
        <ele>1001.8</ele>
        <time>2021-08-05T14:38:13Z</time>
      </trkpt>
      <trkpt lat="48.07128" lon="7.05045">
        <ele>1001.4</ele>
        <time>2021-08-05T14:38:14Z</time>
      </trkpt>
      <trkpt lat="48.07128" lon="7.0505">
        <ele>1001.1</ele>
        <time>2021-08-05T14:38:15Z</time>
      </trkpt>
      <trkpt lat="48.07128" lon="7.05051">
        <ele>1001</ele>
        <time>2021-08-05T14:38:17Z</time>
      </trkpt>
      <trkpt lat="48.07131" lon="7.0505">
        <ele>1000.8</ele>
        <time>2021-08-05T14:38:18Z</time>
      </trkpt>
      <trkpt lat="48.07133" lon="7.05053">
        <ele>1000.5</ele>
        <time>2021-08-05T14:38:19Z</time>
      </trkpt>
      <trkpt lat="48.07133" lon="7.05055">
        <ele>1000.4</ele>
        <time>2021-08-05T14:38:21Z</time>
      </trkpt>
      <trkpt lat="48.07132" lon="7.05063">
        <ele>999.9</ele>
        <time>2021-08-05T14:38:22Z</time>
      </trkpt>
      <trkpt lat="48.07127" lon="7.05093">
        <ele>998.4</ele>
        <time>2021-08-05T14:38:24Z</time>
      </trkpt>
      <trkpt lat="48.0712" lon="7.05121">
        <ele>996.9</ele>
        <time>2021-08-05T14:38:26Z</time>
      </trkpt>
      <trkpt lat="48.07112" lon="7.05148">
        <ele>995.2</ele>
        <time>2021-08-05T14:38:28Z</time>
      </trkpt>
      <trkpt lat="48.07103" lon="7.05174">
        <ele>993.3</ele>
        <time>2021-08-05T14:38:30Z</time>
      </trkpt>
      <trkpt lat="48.07089" lon="7.05199">
        <ele>991.2</ele>
        <time>2021-08-05T14:38:32Z</time>
      </trkpt>
      <trkpt lat="48.07075" lon="7.05225">
        <ele>989.3</ele>
        <time>2021-08-05T14:38:34Z</time>
      </trkpt>
      <trkpt lat="48.07069" lon="7.05238">
        <ele>988.4</ele>
        <time>2021-08-05T14:38:35Z</time>
      </trkpt>
      <trkpt lat="48.07059" lon="7.05264">
        <ele>986.8</ele>
        <time>2021-08-05T14:38:37Z</time>
      </trkpt>
      <trkpt lat="48.07056" lon="7.0528">
        <ele>985.9</ele>
        <time>2021-08-05T14:38:38Z</time>
      </trkpt>
      <trkpt lat="48.07052" lon="7.05296">
        <ele>985.1</ele>
        <time>2021-08-05T14:38:39Z</time>
      </trkpt>
      <trkpt lat="48.07048" lon="7.05312">
        <ele>984.3</ele>
        <time>2021-08-05T14:38:40Z</time>
      </trkpt>
      <trkpt lat="48.07043" lon="7.05343">
        <ele>982.9</ele>
        <time>2021-08-05T14:38:42Z</time>
      </trkpt>
      <trkpt lat="48.07043" lon="7.05358">
        <ele>982.2</ele>
        <time>2021-08-05T14:38:43Z</time>
      </trkpt>
      <trkpt lat="48.07043" lon="7.05373">
        <ele>981.6</ele>
        <time>2021-08-05T14:38:44Z</time>
      </trkpt>
      <trkpt lat="48.0705" lon="7.05392">
        <ele>980.7</ele>
        <time>2021-08-05T14:38:46Z</time>
      </trkpt>
      <trkpt lat="48.07058" lon="7.05406">
        <ele>979.8</ele>
        <time>2021-08-05T14:38:48Z</time>
      </trkpt>
      <trkpt lat="48.0706" lon="7.05415">
        <ele>979.5</ele>
        <time>2021-08-05T14:38:49Z</time>
      </trkpt>
      <trkpt lat="48.07058" lon="7.05435">
        <ele>978.6</ele>
        <time>2021-08-05T14:38:51Z</time>
      </trkpt>
      <trkpt lat="48.07056" lon="7.05447">
        <ele>978</ele>
        <time>2021-08-05T14:38:52Z</time>
      </trkpt>
      <trkpt lat="48.07053" lon="7.05459">
        <ele>977.4</ele>
        <time>2021-08-05T14:38:53Z</time>
      </trkpt>
      <trkpt lat="48.07048" lon="7.05485">
        <ele>976.1</ele>
        <time>2021-08-05T14:38:55Z</time>
      </trkpt>
      <trkpt lat="48.07039" lon="7.05508">
        <ele>974.9</ele>
        <time>2021-08-05T14:38:57Z</time>
      </trkpt>
      <trkpt lat="48.07032" lon="7.05529">
        <ele>973.8</ele>
        <time>2021-08-05T14:38:59Z</time>
      </trkpt>
      <trkpt lat="48.07026" lon="7.05548">
        <ele>973</ele>
        <time>2021-08-05T14:39:01Z</time>
      </trkpt>
      <trkpt lat="48.07025" lon="7.05551">
        <ele>972.8</ele>
        <time>2021-08-05T14:39:02Z</time>
      </trkpt>
      <trkpt lat="48.07022" lon="7.05564">
        <ele>972.3</ele>
        <time>2021-08-05T14:39:04Z</time>
      </trkpt>
      <trkpt lat="48.07019" lon="7.05572">
        <ele>972</ele>
        <time>2021-08-05T14:39:05Z</time>
      </trkpt>
      <trkpt lat="48.07011" lon="7.0558">
        <ele>971.5</ele>
        <time>2021-08-05T14:39:07Z</time>
      </trkpt>
      <trkpt lat="48.07006" lon="7.05584">
        <ele>971.2</ele>
        <time>2021-08-05T14:39:08Z</time>
      </trkpt>
      <trkpt lat="48.07005" lon="7.05586">
        <ele>971</ele>
        <time>2021-08-05T14:39:09Z</time>
      </trkpt>
      <trkpt lat="48.07" lon="7.05595">
        <ele>970.6</ele>
        <time>2021-08-05T14:39:11Z</time>
      </trkpt>
      <trkpt lat="48.06993" lon="7.05614">
        <ele>969.7</ele>
        <time>2021-08-05T14:39:15Z</time>
      </trkpt>
      <trkpt lat="48.06988" lon="7.05627">
        <ele>969</ele>
        <time>2021-08-05T14:39:17Z</time>
      </trkpt>
      <trkpt lat="48.06987" lon="7.05632">
        <ele>968.7</ele>
        <time>2021-08-05T14:39:18Z</time>
      </trkpt>
      <trkpt lat="48.06988" lon="7.05637">
        <ele>968.5</ele>
        <time>2021-08-05T14:39:19Z</time>
      </trkpt>
      <trkpt lat="48.06988" lon="7.05643">
        <ele>968.2</ele>
        <time>2021-08-05T14:39:20Z</time>
      </trkpt>
      <trkpt lat="48.06989" lon="7.05657">
        <ele>967.5</ele>
        <time>2021-08-05T14:39:22Z</time>
      </trkpt>
      <trkpt lat="48.0699" lon="7.05664">
        <ele>967.1</ele>
        <time>2021-08-05T14:39:23Z</time>
      </trkpt>
      <trkpt lat="48.06992" lon="7.05683">
        <ele>966.1</ele>
        <time>2021-08-05T14:39:25Z</time>
      </trkpt>
      <trkpt lat="48.06995" lon="7.05704">
        <ele>965.1</ele>
        <time>2021-08-05T14:39:27Z</time>
      </trkpt>
      <trkpt lat="48.06999" lon="7.05726">
        <ele>964.1</ele>
        <time>2021-08-05T14:39:29Z</time>
      </trkpt>
      <trkpt lat="48.07" lon="7.05733">
        <ele>963.9</ele>
        <time>2021-08-05T14:39:30Z</time>
      </trkpt>
      <trkpt lat="48.07004" lon="7.05756">
        <ele>963.5</ele>
        <time>2021-08-05T14:39:32Z</time>
      </trkpt>
      <trkpt lat="48.07004" lon="7.05767">
        <ele>963.2</ele>
        <time>2021-08-05T14:39:33Z</time>
      </trkpt>
      <trkpt lat="48.07005" lon="7.05779">
        <ele>963</ele>
        <time>2021-08-05T14:39:35Z</time>
      </trkpt>
      <trkpt lat="48.07004" lon="7.05788">
        <ele>962.8</ele>
        <time>2021-08-05T14:39:37Z</time>
      </trkpt>
      <trkpt lat="48.07003" lon="7.05792">
        <ele>962.6</ele>
        <time>2021-08-05T14:39:38Z</time>
      </trkpt>
      <trkpt lat="48.07001" lon="7.05798">
        <ele>962.4</ele>
        <time>2021-08-05T14:39:40Z</time>
      </trkpt>
      <trkpt lat="48.07" lon="7.058">
        <ele>962.3</ele>
        <time>2021-08-05T14:39:41Z</time>
      </trkpt>
      <trkpt lat="48.07" lon="7.05799">
        <ele>962.2</ele>
        <time>2021-08-05T14:39:42Z</time>
      </trkpt>
      <trkpt lat="48.07001" lon="7.05794">
        <ele>962</ele>
        <time>2021-08-05T14:39:43Z</time>
      </trkpt>
      <trkpt lat="48.06984" lon="7.05589">
        <ele>970.6</ele>
        <time>2021-08-05T14:40:01Z</time>
      </trkpt>
      <trkpt lat="48.06982" lon="7.05574">
        <ele>971.1</ele>
        <time>2021-08-05T14:40:02Z</time>
      </trkpt>
      <trkpt lat="48.06979" lon="7.0554">
        <ele>972.2</ele>
        <time>2021-08-05T14:40:04Z</time>
      </trkpt>
      <trkpt lat="48.06979" lon="7.05525">
        <ele>972.8</ele>
        <time>2021-08-05T14:40:06Z</time>
      </trkpt>
      <trkpt lat="48.06976" lon="7.05508">
        <ele>973.4</ele>
        <time>2021-08-05T14:40:07Z</time>
      </trkpt>
      <trkpt lat="48.06972" lon="7.05478">
        <ele>974.7</ele>
        <time>2021-08-05T14:40:09Z</time>
      </trkpt>
      <trkpt lat="48.06974" lon="7.05466">
        <ele>975.1</ele>
        <time>2021-08-05T14:40:10Z</time>
      </trkpt>
      <trkpt lat="48.06977" lon="7.05454">
        <ele>975.6</ele>
        <time>2021-08-05T14:40:11Z</time>
      </trkpt>
      <trkpt lat="48.06981" lon="7.0543">
        <ele>976.7</ele>
        <time>2021-08-05T14:40:13Z</time>
      </trkpt>
      <trkpt lat="48.06982" lon="7.0542">
        <ele>977.1</ele>
        <time>2021-08-05T14:40:14Z</time>
      </trkpt>
      <trkpt lat="48.06983" lon="7.05423">
        <ele>977.3</ele>
        <time>2021-08-05T14:40:16Z</time>
      </trkpt>
      <trkpt lat="48.06984" lon="7.05418">
        <ele>977.6</ele>
        <time>2021-08-05T14:40:17Z</time>
      </trkpt>
      <trkpt lat="48.06985" lon="7.05413">
        <ele>977.8</ele>
        <time>2021-08-05T14:40:18Z</time>
      </trkpt>
      <trkpt lat="48.06987" lon="7.05407">
        <ele>975.9</ele>
        <time>2021-08-05T14:40:19Z</time>
      </trkpt>
      <trkpt lat="48.06989" lon="7.05401">
        <ele>974.9</ele>
        <time>2021-08-05T14:40:20Z</time>
      </trkpt>
      <trkpt lat="48.0699" lon="7.05396">
        <ele>973</ele>
        <time>2021-08-05T14:40:22Z</time>
      </trkpt>
      <trkpt lat="48.0699" lon="7.05395">
        <ele>971.1</ele>
        <time>2021-08-05T14:40:23Z</time>
      </trkpt>
      <trkpt lat="48.06991" lon="7.05393">
        <ele>970.3</ele>
        <time>2021-08-05T14:40:24Z</time>
      </trkpt>
      <trkpt lat="48.06927" lon="7.05092">
        <ele>916.9</ele>
        <time>2021-08-05T14:41:04Z</time>
      </trkpt>
      <trkpt lat="48.06908" lon="7.05083">
        <ele>905.8</ele>
        <time>2021-08-05T14:41:05Z</time>
      </trkpt>
      <trkpt lat="48.06906" lon="7.05089">
        <ele>903</ele>
        <time>2021-08-05T14:41:06Z</time>
      </trkpt>
      <trkpt lat="48.06901" lon="7.05095">
        <ele>899.5</ele>
        <time>2021-08-05T14:41:08Z</time>
      </trkpt>
      <trkpt lat="48.06889" lon="7.05089">
        <ele>893.5</ele>
        <time>2021-08-05T14:41:09Z</time>
      </trkpt>
      <trkpt lat="48.06885" lon="7.05091">
        <ele>891</ele>
        <time>2021-08-05T14:41:10Z</time>
      </trkpt>
      <trkpt lat="48.06867" lon="7.05104">
        <ele>885.9</ele>
        <time>2021-08-05T14:41:12Z</time>
      </trkpt>
      <trkpt lat="48.06861" lon="7.05113">
        <ele>885.5</ele>
        <time>2021-08-05T14:41:13Z</time>
      </trkpt>
      <trkpt lat="48.06857" lon="7.05122">
        <ele>885.1</ele>
        <time>2021-08-05T14:41:14Z</time>
      </trkpt>
      <trkpt lat="48.06853" lon="7.05148">
        <ele>884.1</ele>
        <time>2021-08-05T14:41:16Z</time>
      </trkpt>
      <trkpt lat="48.0685" lon="7.05163">
        <ele>883.5</ele>
        <time>2021-08-05T14:41:17Z</time>
      </trkpt>
      <trkpt lat="48.06847" lon="7.05192">
        <ele>882.4</ele>
        <time>2021-08-05T14:41:19Z</time>
      </trkpt>
      <trkpt lat="48.06842" lon="7.05218">
        <ele>881.4</ele>
        <time>2021-08-05T14:41:21Z</time>
      </trkpt>
      <trkpt lat="48.0684" lon="7.0523">
        <ele>880.9</ele>
        <time>2021-08-05T14:41:22Z</time>
      </trkpt>
      <trkpt lat="48.06839" lon="7.05244">
        <ele>880.4</ele>
        <time>2021-08-05T14:41:23Z</time>
      </trkpt>
      <trkpt lat="48.06836" lon="7.05271">
        <ele>879.4</ele>
        <time>2021-08-05T14:41:25Z</time>
      </trkpt>
      <trkpt lat="48.06834" lon="7.05285">
        <ele>878.9</ele>
        <time>2021-08-05T14:41:26Z</time>
      </trkpt>
      <trkpt lat="48.06832" lon="7.05298">
        <ele>878.5</ele>
        <time>2021-08-05T14:41:27Z</time>
      </trkpt>
      <trkpt lat="48.0683" lon="7.05322">
        <ele>877.7</ele>
        <time>2021-08-05T14:41:29Z</time>
      </trkpt>
      <trkpt lat="48.06828" lon="7.05334">
        <ele>877.3</ele>
        <time>2021-08-05T14:41:30Z</time>
      </trkpt>
      <trkpt lat="48.06827" lon="7.05344">
        <ele>876.9</ele>
        <time>2021-08-05T14:41:31Z</time>
      </trkpt>
      <trkpt lat="48.06824" lon="7.05365">
        <ele>876.1</ele>
        <time>2021-08-05T14:41:33Z</time>
      </trkpt>
      <trkpt lat="48.06821" lon="7.05375">
        <ele>875.7</ele>
        <time>2021-08-05T14:41:34Z</time>
      </trkpt>
      <trkpt lat="48.06815" lon="7.05398">
        <ele>874.8</ele>
        <time>2021-08-05T14:41:36Z</time>
      </trkpt>
      <trkpt lat="48.06811" lon="7.05423">
        <ele>873.8</ele>
        <time>2021-08-05T14:41:38Z</time>
      </trkpt>
      <trkpt lat="48.06804" lon="7.05444">
        <ele>872.9</ele>
        <time>2021-08-05T14:41:40Z</time>
      </trkpt>
      <trkpt lat="48.06802" lon="7.05453">
        <ele>872.5</ele>
        <time>2021-08-05T14:41:41Z</time>
      </trkpt>
      <trkpt lat="48.06795" lon="7.05466">
        <ele>871.9</ele>
        <time>2021-08-05T14:41:43Z</time>
      </trkpt>
      <trkpt lat="48.06789" lon="7.05473">
        <ele>871.5</ele>
        <time>2021-08-05T14:41:44Z</time>
      </trkpt>
      <trkpt lat="48.06783" lon="7.05479">
        <ele>871.1</ele>
        <time>2021-08-05T14:41:45Z</time>
      </trkpt>
      <trkpt lat="48.06777" lon="7.05486">
        <ele>870.7</ele>
        <time>2021-08-05T14:41:46Z</time>
      </trkpt>
      <trkpt lat="48.06763" lon="7.05504">
        <ele>869.7</ele>
        <time>2021-08-05T14:41:48Z</time>
      </trkpt>
      <trkpt lat="48.06757" lon="7.05513">
        <ele>869.3</ele>
        <time>2021-08-05T14:41:49Z</time>
      </trkpt>
      <trkpt lat="48.06745" lon="7.05534">
        <ele>868.2</ele>
        <time>2021-08-05T14:41:51Z</time>
      </trkpt>
      <trkpt lat="48.06734" lon="7.05556">
        <ele>867.2</ele>
        <time>2021-08-05T14:41:53Z</time>
      </trkpt>
      <trkpt lat="48.0672" lon="7.05579">
        <ele>866.1</ele>
        <time>2021-08-05T14:41:55Z</time>
      </trkpt>
      <trkpt lat="48.06712" lon="7.05604">
        <ele>865</ele>
        <time>2021-08-05T14:41:57Z</time>
      </trkpt>
      <trkpt lat="48.06708" lon="7.05617">
        <ele>864.4</ele>
        <time>2021-08-05T14:41:58Z</time>
      </trkpt>
      <trkpt lat="48.067" lon="7.05645">
        <ele>863.3</ele>
        <time>2021-08-05T14:42:00Z</time>
      </trkpt>
      <trkpt lat="48.06695" lon="7.05659">
        <ele>862.6</ele>
        <time>2021-08-05T14:42:01Z</time>
      </trkpt>
      <trkpt lat="48.06685" lon="7.05685">
        <ele>861.5</ele>
        <time>2021-08-05T14:42:03Z</time>
      </trkpt>
      <trkpt lat="48.06673" lon="7.05708">
        <ele>860.7</ele>
        <time>2021-08-05T14:42:05Z</time>
      </trkpt>
      <trkpt lat="48.06668" lon="7.05717">
        <ele>858.7</ele>
        <time>2021-08-05T14:42:06Z</time>
      </trkpt>
      <trkpt lat="48.06659" lon="7.05728">
        <ele>855.7</ele>
        <time>2021-08-05T14:42:08Z</time>
      </trkpt>
      <trkpt lat="48.06654" lon="7.0573">
        <ele>853.6</ele>
        <time>2021-08-05T14:42:10Z</time>
      </trkpt>
      <trkpt lat="48.06651" lon="7.05721">
        <ele>852.5</ele>
        <time>2021-08-05T14:42:12Z</time>
      </trkpt>
      <trkpt lat="48.06645" lon="7.05714">
        <ele>850.5</ele>
        <time>2021-08-05T14:42:14Z</time>
      </trkpt>
      <trkpt lat="48.06642" lon="7.05714">
        <ele>849.2</ele>
        <time>2021-08-05T14:42:16Z</time>
      </trkpt>
      <trkpt lat="48.06639" lon="7.05709">
        <ele>847.8</ele>
        <time>2021-08-05T14:42:17Z</time>
      </trkpt>
      <trkpt lat="48.06638" lon="7.05705">
        <ele>846.4</ele>
        <time>2021-08-05T14:42:19Z</time>
      </trkpt>
      <trkpt lat="48.06346" lon="7.05481">
        <ele>797.2</ele>
        <time>2021-08-05T14:43:43Z</time>
      </trkpt>
      <trkpt lat="48.06338" lon="7.05489">
        <ele>796.2</ele>
        <time>2021-08-05T14:43:44Z</time>
      </trkpt>
      <trkpt lat="48.06325" lon="7.05504">
        <ele>794.5</ele>
        <time>2021-08-05T14:43:46Z</time>
      </trkpt>
      <trkpt lat="48.06318" lon="7.05511">
        <ele>793.8</ele>
        <time>2021-08-05T14:43:47Z</time>
      </trkpt>
      <trkpt lat="48.06312" lon="7.05516">
        <ele>793.2</ele>
        <time>2021-08-05T14:43:48Z</time>
      </trkpt>
      <trkpt lat="48.06306" lon="7.0552">
        <ele>792.6</ele>
        <time>2021-08-05T14:43:49Z</time>
      </trkpt>
      <trkpt lat="48.063" lon="7.05524">
        <ele>792.1</ele>
        <time>2021-08-05T14:43:50Z</time>
      </trkpt>
      <trkpt lat="48.06295" lon="7.05529">
        <ele>791.6</ele>
        <time>2021-08-05T14:43:51Z</time>
      </trkpt>
      <trkpt lat="48.06283" lon="7.0554">
        <ele>790.4</ele>
        <time>2021-08-05T14:43:53Z</time>
      </trkpt>
      <trkpt lat="48.06271" lon="7.05552">
        <ele>789</ele>
        <time>2021-08-05T14:43:55Z</time>
      </trkpt>
      <trkpt lat="48.06256" lon="7.05563">
        <ele>787.6</ele>
        <time>2021-08-05T14:43:57Z</time>
      </trkpt>
      <trkpt lat="48.06248" lon="7.0557">
        <ele>786.8</ele>
        <time>2021-08-05T14:43:58Z</time>
      </trkpt>
      <trkpt lat="48.06239" lon="7.05577">
        <ele>786</ele>
        <time>2021-08-05T14:43:59Z</time>
      </trkpt>
      <trkpt lat="48.06223" lon="7.05591">
        <ele>784.6</ele>
        <time>2021-08-05T14:44:01Z</time>
      </trkpt>
      <trkpt lat="48.06208" lon="7.05603">
        <ele>783</ele>
        <time>2021-08-05T14:44:03Z</time>
      </trkpt>
      <trkpt lat="48.062" lon="7.05609">
        <ele>782.2</ele>
        <time>2021-08-05T14:44:04Z</time>
      </trkpt>
      <trkpt lat="48.06192" lon="7.05615">
        <ele>781.4</ele>
        <time>2021-08-05T14:44:05Z</time>
      </trkpt>
      <trkpt lat="48.06184" lon="7.05622">
        <ele>780.8</ele>
        <time>2021-08-05T14:44:06Z</time>
      </trkpt>
      <trkpt lat="48.06168" lon="7.05634">
        <ele>779.5</ele>
        <time>2021-08-05T14:44:08Z</time>
      </trkpt>
      <trkpt lat="48.06154" lon="7.05645">
        <ele>778.4</ele>
        <time>2021-08-05T14:44:10Z</time>
      </trkpt>
      <trkpt lat="48.06146" lon="7.0565">
        <ele>777.7</ele>
        <time>2021-08-05T14:44:11Z</time>
      </trkpt>
      <trkpt lat="48.06131" lon="7.05659">
        <ele>776.4</ele>
        <time>2021-08-05T14:44:13Z</time>
      </trkpt>
      <trkpt lat="48.06124" lon="7.05663">
        <ele>775.7</ele>
        <time>2021-08-05T14:44:14Z</time>
      </trkpt>
      <trkpt lat="48.06117" lon="7.05666">
        <ele>775</ele>
        <time>2021-08-05T14:44:15Z</time>
      </trkpt>
      <trkpt lat="48.06109" lon="7.05668">
        <ele>774.2</ele>
        <time>2021-08-05T14:44:16Z</time>
      </trkpt>
      <trkpt lat="48.0609" lon="7.05671">
        <ele>772.3</ele>
        <time>2021-08-05T14:44:18Z</time>
      </trkpt>
      <trkpt lat="48.0608" lon="7.05672">
        <ele>771.3</ele>
        <time>2021-08-05T14:44:19Z</time>
      </trkpt>
      <trkpt lat="48.0607" lon="7.05675">
        <ele>770.2</ele>
        <time>2021-08-05T14:44:20Z</time>
      </trkpt>
      <trkpt lat="48.06052" lon="7.05679">
        <ele>768.3</ele>
        <time>2021-08-05T14:44:22Z</time>
      </trkpt>
      <trkpt lat="48.06044" lon="7.0568">
        <ele>767.6</ele>
        <time>2021-08-05T14:44:23Z</time>
      </trkpt>
      <trkpt lat="48.06037" lon="7.05681">
        <ele>767</ele>
        <time>2021-08-05T14:44:24Z</time>
      </trkpt>
      <trkpt lat="48.06028" lon="7.05682">
        <ele>766.3</ele>
        <time>2021-08-05T14:44:25Z</time>
      </trkpt>
      <trkpt lat="48.06012" lon="7.05685">
        <ele>765</ele>
        <time>2021-08-05T14:44:27Z</time>
      </trkpt>
      <trkpt lat="48.06004" lon="7.05685">
        <ele>764.5</ele>
        <time>2021-08-05T14:44:28Z</time>
      </trkpt>
      <trkpt lat="48.05996" lon="7.05686">
        <ele>763.9</ele>
        <time>2021-08-05T14:44:29Z</time>
      </trkpt>
      <trkpt lat="48.05981" lon="7.05686">
        <ele>762.7</ele>
        <time>2021-08-05T14:44:31Z</time>
      </trkpt>
      <trkpt lat="48.05974" lon="7.05686">
        <ele>762</ele>
        <time>2021-08-05T14:44:32Z</time>
      </trkpt>
      <trkpt lat="48.05967" lon="7.05686">
        <ele>761.4</ele>
        <time>2021-08-05T14:44:33Z</time>
      </trkpt>
      <trkpt lat="48.05953" lon="7.05681">
        <ele>760.1</ele>
        <time>2021-08-05T14:44:35Z</time>
      </trkpt>
      <trkpt lat="48.05946" lon="7.05678">
        <ele>759.4</ele>
        <time>2021-08-05T14:44:36Z</time>
      </trkpt>
      <trkpt lat="48.05932" lon="7.0567">
        <ele>758</ele>
        <time>2021-08-05T14:44:38Z</time>
      </trkpt>
      <trkpt lat="48.05919" lon="7.05663">
        <ele>756.8</ele>
        <time>2021-08-05T14:44:40Z</time>
      </trkpt>
      <trkpt lat="48.05913" lon="7.05658">
        <ele>756.2</ele>
        <time>2021-08-05T14:44:41Z</time>
      </trkpt>
      <trkpt lat="48.05905" lon="7.05646">
        <ele>755.2</ele>
        <time>2021-08-05T14:44:43Z</time>
      </trkpt>
      <trkpt lat="48.059" lon="7.05634">
        <ele>754.3</ele>
        <time>2021-08-05T14:44:45Z</time>
      </trkpt>
      <trkpt lat="48.05898" lon="7.05628">
        <ele>753.9</ele>
        <time>2021-08-05T14:44:46Z</time>
      </trkpt>
      <trkpt lat="48.05896" lon="7.05621">
        <ele>753.4</ele>
        <time>2021-08-05T14:44:47Z</time>
      </trkpt>
      <trkpt lat="48.05892" lon="7.05611">
        <ele>752.6</ele>
        <time>2021-08-05T14:44:49Z</time>
      </trkpt>
      <trkpt lat="48.0589" lon="7.05605">
        <ele>752.2</ele>
        <time>2021-08-05T14:44:50Z</time>
      </trkpt>
      <trkpt lat="48.05889" lon="7.05596">
        <ele>751.6</ele>
        <time>2021-08-05T14:44:52Z</time>
      </trkpt>
      <trkpt lat="48.05888" lon="7.0559">
        <ele>751.3</ele>
        <time>2021-08-05T14:44:53Z</time>
      </trkpt>
      <trkpt lat="48.05886" lon="7.05582">
        <ele>750.8</ele>
        <time>2021-08-05T14:44:55Z</time>
      </trkpt>
      <trkpt lat="48.05886" lon="7.05579">
        <ele>750.6</ele>
        <time>2021-08-05T14:44:56Z</time>
      </trkpt>
      <trkpt lat="48.05885" lon="7.05578">
        <ele>750.6</ele>
        <time>2021-08-05T14:44:57Z</time>
      </trkpt>
      <trkpt lat="48.05885" lon="7.05578">
        <ele>750.9</ele>
        <time>2021-08-05T14:44:58Z</time>
      </trkpt>
      <trkpt lat="48.05883" lon="7.05573">
        <ele>751.2</ele>
        <time>2021-08-05T14:45:00Z</time>
      </trkpt>
      <trkpt lat="48.05882" lon="7.05569">
        <ele>751.6</ele>
        <time>2021-08-05T14:45:02Z</time>
      </trkpt>
      <trkpt lat="48.05882" lon="7.05566">
        <ele>751.8</ele>
        <time>2021-08-05T14:45:04Z</time>
      </trkpt>
      <trkpt lat="48.05882" lon="7.05566">
        <ele>751.8</ele>
        <time>2021-08-05T14:45:06Z</time>
      </trkpt>
      <trkpt lat="48.05866" lon="7.05502">
        <ele>757.4</ele>
        <time>2021-08-05T14:46:16Z</time>
      </trkpt>
      <trkpt lat="48.05864" lon="7.05499">
        <ele>757.7</ele>
        <time>2021-08-05T14:46:18Z</time>
      </trkpt>
      <trkpt lat="48.05863" lon="7.05498">
        <ele>757.7</ele>
        <time>2021-08-05T14:46:19Z</time>
      </trkpt>
      <trkpt lat="48.05864" lon="7.05497">
        <ele>757.8</ele>
        <time>2021-08-05T14:46:20Z</time>
      </trkpt>
      <trkpt lat="48.05865" lon="7.05497">
        <ele>757.9</ele>
        <time>2021-08-05T14:46:21Z</time>
      </trkpt>
      <trkpt lat="48.05866" lon="7.05496">
        <ele>758</ele>
        <time>2021-08-05T14:46:22Z</time>
      </trkpt>
      <trkpt lat="48.05867" lon="7.05494">
        <ele>758.1</ele>
        <time>2021-08-05T14:46:24Z</time>
      </trkpt>
      <trkpt lat="48.05866" lon="7.05493">
        <ele>758.2</ele>
        <time>2021-08-05T14:46:25Z</time>
      </trkpt>
      <trkpt lat="48.05865" lon="7.0549">
        <ele>758.4</ele>
        <time>2021-08-05T14:46:27Z</time>
      </trkpt>
      <trkpt lat="48.05869" lon="7.05475">
        <ele>759.5</ele>
        <time>2021-08-05T14:46:28Z</time>
      </trkpt>
      <trkpt lat="48.05875" lon="7.05461">
        <ele>760.6</ele>
        <time>2021-08-05T14:46:30Z</time>
      </trkpt>
      <trkpt lat="48.0588" lon="7.05448">
        <ele>761.7</ele>
        <time>2021-08-05T14:47:00Z</time>
      </trkpt>
      <trkpt lat="48.05885" lon="7.05435">
        <ele>762.8</ele>
        <time>2021-08-05T14:47:02Z</time>
      </trkpt>
      <trkpt lat="48.0589" lon="7.05421">
        <ele>763.9</ele>
        <time>2021-08-05T14:47:03Z</time>
      </trkpt>
      <trkpt lat="48.0589" lon="7.0542">
        <ele>763.9</ele>
        <time>2021-08-05T14:47:04Z</time>
      </trkpt>
      <trkpt lat="48.0589" lon="7.0542">
        <ele>764</ele>
        <time>2021-08-05T14:47:05Z</time>
      </trkpt>
      <trkpt lat="48.0589" lon="7.05419">
        <ele>764</ele>
        <time>2021-08-05T14:47:06Z</time>
      </trkpt>
      <trkpt lat="48.0589" lon="7.05418">
        <ele>764.1</ele>
        <time>2021-08-05T14:47:08Z</time>
      </trkpt>
      <trkpt lat="48.0589" lon="7.05418">
        <ele>764.1</ele>
        <time>2021-08-05T14:47:09Z</time>
      </trkpt>
      <trkpt lat="48.0589" lon="7.05418">
        <ele>764.1</ele>
        <time>2021-08-05T14:47:10Z</time>
      </trkpt>
      <trkpt lat="48.0589" lon="7.05417">
        <ele>764.1</ele>
        <time>2021-08-05T14:47:11Z</time>
      </trkpt>
      <trkpt lat="48.0589" lon="7.05417">
        <ele>764.2</ele>
        <time>2021-08-05T14:47:13Z</time>
      </trkpt>
      <trkpt lat="48.05872" lon="7.05367">
        <ele>767.6</ele>
        <time>2021-08-05T14:48:02Z</time>
      </trkpt>
      <trkpt lat="48.05873" lon="7.05362">
        <ele>767.9</ele>
        <time>2021-08-05T14:48:03Z</time>
      </trkpt>
      <trkpt lat="48.05873" lon="7.05358">
        <ele>768.2</ele>
        <time>2021-08-05T14:48:04Z</time>
      </trkpt>
      <trkpt lat="48.05873" lon="7.05352">
        <ele>768.5</ele>
        <time>2021-08-05T14:48:06Z</time>
      </trkpt>
      <trkpt lat="48.05872" lon="7.05348">
        <ele>768.7</ele>
        <time>2021-08-05T14:48:07Z</time>
      </trkpt>
      <trkpt lat="48.05871" lon="7.05347">
        <ele>768.8</ele>
        <time>2021-08-05T14:48:08Z</time>
      </trkpt>
      <trkpt lat="48.05869" lon="7.05343">
        <ele>769.1</ele>
        <time>2021-08-05T14:48:09Z</time>
      </trkpt>
      <trkpt lat="48.05865" lon="7.05339">
        <ele>769.5</ele>
        <time>2021-08-05T14:48:11Z</time>
      </trkpt>
      <trkpt lat="48.05863" lon="7.05337">
        <ele>769.7</ele>
        <time>2021-08-05T14:48:12Z</time>
      </trkpt>
      <trkpt lat="48.05862" lon="7.05336">
        <ele>769.8</ele>
        <time>2021-08-05T14:48:13Z</time>
      </trkpt>
      <trkpt lat="48.0586" lon="7.05332">
        <ele>770.1</ele>
        <time>2021-08-05T14:48:14Z</time>
      </trkpt>
      <trkpt lat="48.05859" lon="7.0533">
        <ele>770.2</ele>
        <time>2021-08-05T14:48:15Z</time>
      </trkpt>
      <trkpt lat="48.05859" lon="7.05328">
        <ele>770.3</ele>
        <time>2021-08-05T14:48:16Z</time>
      </trkpt>
      <trkpt lat="48.05858" lon="7.05326">
        <ele>770.5</ele>
        <time>2021-08-05T14:48:18Z</time>
      </trkpt>
      <trkpt lat="48.05857" lon="7.05324">
        <ele>770.6</ele>
        <time>2021-08-05T14:48:20Z</time>
      </trkpt>
      <trkpt lat="48.05857" lon="7.05324">
        <ele>770.6</ele>
        <time>2021-08-05T14:48:21Z</time>
      </trkpt>
      <trkpt lat="48.05856" lon="7.05324">
        <ele>770.7</ele>
        <time>2021-08-05T14:48:22Z</time>
      </trkpt>
      <trkpt lat="48.05855" lon="7.05324">
        <ele>770.7</ele>
        <time>2021-08-05T14:48:23Z</time>
      </trkpt>
      <trkpt lat="48.05855" lon="7.05322">
        <ele>770.8</ele>
        <time>2021-08-05T14:48:25Z</time>
      </trkpt>
      <trkpt lat="48.05854" lon="7.05321">
        <ele>770.9</ele>
        <time>2021-08-05T14:48:26Z</time>
      </trkpt>
      <trkpt lat="48.05854" lon="7.0532">
        <ele>771</ele>
        <time>2021-08-05T14:48:27Z</time>
      </trkpt>
      <trkpt lat="48.05854" lon="7.05319">
        <ele>771</ele>
        <time>2021-08-05T14:48:28Z</time>
      </trkpt>
      <trkpt lat="48.05853" lon="7.05317">
        <ele>771.1</ele>
        <time>2021-08-05T14:48:30Z</time>
      </trkpt>
      <trkpt lat="48.05854" lon="7.05314">
        <ele>771.3</ele>
        <time>2021-08-05T14:48:31Z</time>
      </trkpt>
      <trkpt lat="48.05854" lon="7.05311">
        <ele>771.4</ele>
        <time>2021-08-05T14:48:32Z</time>
      </trkpt>
      <trkpt lat="48.05853" lon="7.05308">
        <ele>771.6</ele>
        <time>2021-08-05T14:48:34Z</time>
      </trkpt>
      <trkpt lat="48.05853" lon="7.05298">
        <ele>772.1</ele>
        <time>2021-08-05T14:48:36Z</time>
      </trkpt>
      <trkpt lat="48.05855" lon="7.05285">
        <ele>772.8</ele>
        <time>2021-08-05T14:48:38Z</time>
      </trkpt>
      <trkpt lat="48.05856" lon="7.05279">
        <ele>773.2</ele>
        <time>2021-08-05T14:48:39Z</time>
      </trkpt>
      <trkpt lat="48.05856" lon="7.05273">
        <ele>773.5</ele>
        <time>2021-08-05T14:48:40Z</time>
      </trkpt>
      <trkpt lat="48.05856" lon="7.05268">
        <ele>773.8</ele>
        <time>2021-08-05T14:48:41Z</time>
      </trkpt>
      <trkpt lat="48.05856" lon="7.05265">
        <ele>774</ele>
        <time>2021-08-05T14:48:42Z</time>
      </trkpt>
      <trkpt lat="48.05854" lon="7.05262">
        <ele>774.2</ele>
        <time>2021-08-05T14:48:44Z</time>
      </trkpt>
      <trkpt lat="48.05853" lon="7.05261">
        <ele>774.3</ele>
        <time>2021-08-05T14:48:45Z</time>
      </trkpt>
      <trkpt lat="48.0585" lon="7.0526">
        <ele>774.6</ele>
        <time>2021-08-05T14:48:46Z</time>
      </trkpt>
      <trkpt lat="48.05847" lon="7.05261">
        <ele>774.9</ele>
        <time>2021-08-05T14:48:48Z</time>
      </trkpt>
      <trkpt lat="48.05845" lon="7.05261">
        <ele>775</ele>
        <time>2021-08-05T14:48:49Z</time>
      </trkpt>
      <trkpt lat="48.05844" lon="7.05262">
        <ele>775.1</ele>
        <time>2021-08-05T14:48:51Z</time>
      </trkpt>
      <trkpt lat="48.05843" lon="7.05262">
        <ele>775.2</ele>
        <time>2021-08-05T14:48:52Z</time>
      </trkpt>
      <trkpt lat="48.05844" lon="7.05254">
        <ele>775.8</ele>
        <time>2021-08-05T14:48:53Z</time>
      </trkpt>
      <trkpt lat="48.05847" lon="7.05245">
        <ele>776.3</ele>
        <time>2021-08-05T14:48:55Z</time>
      </trkpt>
      <trkpt lat="48.0585" lon="7.05237">
        <ele>776.8</ele>
        <time>2021-08-05T14:49:34Z</time>
      </trkpt>
      <trkpt lat="48.05853" lon="7.05229">
        <ele>777.4</ele>
        <time>2021-08-05T14:49:35Z</time>
      </trkpt>
      <trkpt lat="48.05856" lon="7.05221">
        <ele>777.9</ele>
        <time>2021-08-05T14:49:36Z</time>
      </trkpt>
      <trkpt lat="48.05857" lon="7.05219">
        <ele>778</ele>
        <time>2021-08-05T14:49:38Z</time>
      </trkpt>
      <trkpt lat="48.05858" lon="7.05217">
        <ele>778.1</ele>
        <time>2021-08-05T14:49:39Z</time>
      </trkpt>
      <trkpt lat="48.05859" lon="7.05216">
        <ele>778.2</ele>
        <time>2021-08-05T14:49:40Z</time>
      </trkpt>
      <trkpt lat="48.0586" lon="7.05215">
        <ele>778.3</ele>
        <time>2021-08-05T14:49:41Z</time>
      </trkpt>
      <trkpt lat="48.0586" lon="7.05213">
        <ele>778.4</ele>
        <time>2021-08-05T14:49:43Z</time>
      </trkpt>
      <trkpt lat="48.0586" lon="7.05213">
        <ele>778.5</ele>
        <time>2021-08-05T14:49:45Z</time>
      </trkpt>
      <trkpt lat="48.05826" lon="7.05042">
        <ele>787.8</ele>
        <time>2021-08-05T14:51:59Z</time>
      </trkpt>
      <trkpt lat="48.05825" lon="7.05038">
        <ele>788.1</ele>
        <time>2021-08-05T14:52:01Z</time>
      </trkpt>
      <trkpt lat="48.05825" lon="7.05036">
        <ele>788.2</ele>
        <time>2021-08-05T14:52:02Z</time>
      </trkpt>
      <trkpt lat="48.05825" lon="7.05035">
        <ele>788.2</ele>
        <time>2021-08-05T14:52:03Z</time>
      </trkpt>
      <trkpt lat="48.05824" lon="7.05032">
        <ele>788.4</ele>
        <time>2021-08-05T14:52:04Z</time>
      </trkpt>
      <trkpt lat="48.05823" lon="7.05027">
        <ele>788.7</ele>
        <time>2021-08-05T14:52:06Z</time>
      </trkpt>
      <trkpt lat="48.05823" lon="7.05026">
        <ele>788.8</ele>
        <time>2021-08-05T14:52:07Z</time>
      </trkpt>
      <trkpt lat="48.05822" lon="7.05022">
        <ele>789</ele>
        <time>2021-08-05T14:52:08Z</time>
      </trkpt>
      <trkpt lat="48.05821" lon="7.05021">
        <ele>789.1</ele>
        <time>2021-08-05T14:52:09Z</time>
      </trkpt>
      <trkpt lat="48.0582" lon="7.05019">
        <ele>789.3</ele>
        <time>2021-08-05T14:52:10Z</time>
      </trkpt>
      <trkpt lat="48.05818" lon="7.05016">
        <ele>789.5</ele>
        <time>2021-08-05T14:52:12Z</time>
      </trkpt>
      <trkpt lat="48.05818" lon="7.05015">
        <ele>789.6</ele>
        <time>2021-08-05T14:52:13Z</time>
      </trkpt>
      <trkpt lat="48.05817" lon="7.05012">
        <ele>789.8</ele>
        <time>2021-08-05T14:52:15Z</time>
      </trkpt>
      <trkpt lat="48.05817" lon="7.05012">
        <ele>789.8</ele>
        <time>2021-08-05T14:52:17Z</time>
      </trkpt>
      <trkpt lat="48.05817" lon="7.05011">
        <ele>789.8</ele>
        <time>2021-08-05T14:52:18Z</time>
      </trkpt>
      <trkpt lat="48.05817" lon="7.05011">
        <ele>789.8</ele>
        <time>2021-08-05T14:52:19Z</time>
      </trkpt>
      <trkpt lat="48.05817" lon="7.05011">
        <ele>789.9</ele>
        <time>2021-08-05T14:52:20Z</time>
      </trkpt>
      <trkpt lat="48.05817" lon="7.0501">
        <ele>789.9</ele>
        <time>2021-08-05T14:52:22Z</time>
      </trkpt>
      <trkpt lat="48.05817" lon="7.05009">
        <ele>790</ele>
        <time>2021-08-05T14:52:23Z</time>
      </trkpt>
      <trkpt lat="48.05817" lon="7.05007">
        <ele>790</ele>
        <time>2021-08-05T14:52:24Z</time>
      </trkpt>
      <trkpt lat="48.05816" lon="7.05005">
        <ele>790.2</ele>
        <time>2021-08-05T14:52:25Z</time>
      </trkpt>
      <trkpt lat="48.05816" lon="7.05003">
        <ele>790.3</ele>
        <time>2021-08-05T14:52:26Z</time>
      </trkpt>
      <trkpt lat="48.05815" lon="7.05001">
        <ele>790.4</ele>
        <time>2021-08-05T14:52:28Z</time>
      </trkpt>
      <trkpt lat="48.05814" lon="7.05">
        <ele>790.5</ele>
        <time>2021-08-05T14:52:29Z</time>
      </trkpt>
      <trkpt lat="48.05756" lon="7.04902">
        <ele>797.9</ele>
        <time>2021-08-05T14:53:54Z</time>
      </trkpt>
      <trkpt lat="48.05755" lon="7.04896">
        <ele>798.2</ele>
        <time>2021-08-05T14:53:55Z</time>
      </trkpt>
      <trkpt lat="48.05757" lon="7.0489">
        <ele>798.6</ele>
        <time>2021-08-05T14:53:56Z</time>
      </trkpt>
      <trkpt lat="48.05761" lon="7.04881">
        <ele>799.2</ele>
        <time>2021-08-05T14:53:57Z</time>
      </trkpt>
      <trkpt lat="48.05766" lon="7.04871">
        <ele>799.9</ele>
        <time>2021-08-05T14:54:00Z</time>
      </trkpt>
      <trkpt lat="48.05772" lon="7.04866">
        <ele>800.5</ele>
        <time>2021-08-05T14:54:02Z</time>
      </trkpt>
      <trkpt lat="48.05776" lon="7.04859">
        <ele>801</ele>
        <time>2021-08-05T14:54:03Z</time>
      </trkpt>
      <trkpt lat="48.05778" lon="7.04853">
        <ele>801.3</ele>
        <time>2021-08-05T14:54:04Z</time>
      </trkpt>
      <trkpt lat="48.05783" lon="7.04847">
        <ele>801.8</ele>
        <time>2021-08-05T14:54:06Z</time>
      </trkpt>
      <trkpt lat="48.05785" lon="7.04847">
        <ele>801.9</ele>
        <time>2021-08-05T14:54:07Z</time>
      </trkpt>
      <trkpt lat="48.05785" lon="7.04847">
        <ele>802</ele>
        <time>2021-08-05T14:54:09Z</time>
      </trkpt>
      <trkpt lat="48.05786" lon="7.04847">
        <ele>802</ele>
        <time>2021-08-05T14:54:10Z</time>
      </trkpt>
      <trkpt lat="48.05787" lon="7.04847">
        <ele>802.1</ele>
        <time>2021-08-05T14:54:11Z</time>
      </trkpt>
      <trkpt lat="48.05787" lon="7.04847">
        <ele>802.1</ele>
        <time>2021-08-05T14:54:12Z</time>
      </trkpt>
      <trkpt lat="48.05788" lon="7.04847">
        <ele>802.1</ele>
        <time>2021-08-05T14:54:14Z</time>
      </trkpt>
      <trkpt lat="48.05746" lon="7.04827">
        <ele>805.8</ele>
        <time>2021-08-05T14:54:41Z</time>
      </trkpt>
      <trkpt lat="48.05739" lon="7.04821">
        <ele>806.5</ele>
        <time>2021-08-05T14:54:43Z</time>
      </trkpt>
      <trkpt lat="48.05736" lon="7.04818">
        <ele>806.7</ele>
        <time>2021-08-05T14:54:44Z</time>
      </trkpt>
      <trkpt lat="48.05734" lon="7.04814">
        <ele>807</ele>
        <time>2021-08-05T14:54:46Z</time>
      </trkpt>
      <trkpt lat="48.05735" lon="7.04814">
        <ele>807.1</ele>
        <time>2021-08-05T14:54:47Z</time>
      </trkpt>
      <trkpt lat="48.05734" lon="7.04811">
        <ele>807.2</ele>
        <time>2021-08-05T14:54:49Z</time>
      </trkpt>
      <trkpt lat="48.05735" lon="7.04811">
        <ele>807.3</ele>
        <time>2021-08-05T14:54:50Z</time>
      </trkpt>
      <trkpt lat="48.05732" lon="7.04809">
        <ele>807.5</ele>
        <time>2021-08-05T14:54:52Z</time>
      </trkpt>
      <trkpt lat="48.05731" lon="7.04807">
        <ele>807.6</ele>
        <time>2021-08-05T14:54:53Z</time>
      </trkpt>
      <trkpt lat="48.05731" lon="7.04807">
        <ele>807.7</ele>
        <time>2021-08-05T14:54:54Z</time>
      </trkpt>
      <trkpt lat="48.0573" lon="7.04805">
        <ele>807.8</ele>
        <time>2021-08-05T14:54:56Z</time>
      </trkpt>
      <trkpt lat="48.05729" lon="7.04804">
        <ele>807.8</ele>
        <time>2021-08-05T14:54:57Z</time>
      </trkpt>
      <trkpt lat="48.05729" lon="7.04803">
        <ele>807.9</ele>
        <time>2021-08-05T14:54:59Z</time>
      </trkpt>
      <trkpt lat="48.05729" lon="7.04802">
        <ele>808</ele>
        <time>2021-08-05T14:55:00Z</time>
      </trkpt>
      <trkpt lat="48.05729" lon="7.04802">
        <ele>808</ele>
        <time>2021-08-05T14:55:02Z</time>
      </trkpt>
      <trkpt lat="48.05728" lon="7.04802">
        <ele>808</ele>
        <time>2021-08-05T14:55:03Z</time>
      </trkpt>
      <trkpt lat="48.05728" lon="7.04801">
        <ele>808.1</ele>
        <time>2021-08-05T14:55:04Z</time>
      </trkpt>
      <trkpt lat="48.05705" lon="7.04679">
        <ele>814.8</ele>
        <time>2021-08-05T14:56:37Z</time>
      </trkpt>
      <trkpt lat="48.05705" lon="7.04678">
        <ele>814.9</ele>
        <time>2021-08-05T14:56:38Z</time>
      </trkpt>
      <trkpt lat="48.05705" lon="7.04677">
        <ele>815</ele>
        <time>2021-08-05T14:56:39Z</time>
      </trkpt>
      <trkpt lat="48.05705" lon="7.04676">
        <ele>815</ele>
        <time>2021-08-05T14:56:41Z</time>
      </trkpt>
      <trkpt lat="48.05704" lon="7.04676">
        <ele>815</ele>
        <time>2021-08-05T14:56:42Z</time>
      </trkpt>
      <trkpt lat="48.05704" lon="7.04675">
        <ele>815.1</ele>
        <time>2021-08-05T14:56:43Z</time>
      </trkpt>
      <trkpt lat="48.05704" lon="7.04675">
        <ele>815.1</ele>
        <time>2021-08-05T14:56:44Z</time>
      </trkpt>
      <trkpt lat="48.05704" lon="7.04675">
        <ele>815.1</ele>
        <time>2021-08-05T14:56:46Z</time>
      </trkpt>
      <trkpt lat="48.05704" lon="7.04675">
        <ele>815.1</ele>
        <time>2021-08-05T14:56:47Z</time>
      </trkpt>
      <trkpt lat="48.05704" lon="7.04674">
        <ele>815.2</ele>
        <time>2021-08-05T14:56:49Z</time>
      </trkpt>
      <trkpt lat="48.05629" lon="7.04548">
        <ele>824.6</ele>
        <time>2021-08-05T14:58:20Z</time>
      </trkpt>
      <trkpt lat="48.05625" lon="7.04544">
        <ele>825</ele>
        <time>2021-08-05T14:58:22Z</time>
      </trkpt>
      <trkpt lat="48.05623" lon="7.04542">
        <ele>825.2</ele>
        <time>2021-08-05T14:58:23Z</time>
      </trkpt>
      <trkpt lat="48.05621" lon="7.04541">
        <ele>825.4</ele>
        <time>2021-08-05T14:58:24Z</time>
      </trkpt>
      <trkpt lat="48.0562" lon="7.0454">
        <ele>825.5</ele>
        <time>2021-08-05T14:58:25Z</time>
      </trkpt>
      <trkpt lat="48.05618" lon="7.04538">
        <ele>825.6</ele>
        <time>2021-08-05T14:58:27Z</time>
      </trkpt>
      <trkpt lat="48.05617" lon="7.04537">
        <ele>825.7</ele>
        <time>2021-08-05T14:58:28Z</time>
      </trkpt>
      <trkpt lat="48.05617" lon="7.04536">
        <ele>825.8</ele>
        <time>2021-08-05T14:58:29Z</time>
      </trkpt>
      <trkpt lat="48.05616" lon="7.04534">
        <ele>825.9</ele>
        <time>2021-08-05T14:58:30Z</time>
      </trkpt>
      <trkpt lat="48.05617" lon="7.04532">
        <ele>826</ele>
        <time>2021-08-05T14:58:32Z</time>
      </trkpt>
      <trkpt lat="48.05617" lon="7.04531">
        <ele>826</ele>
        <time>2021-08-05T14:58:33Z</time>
      </trkpt>
      <trkpt lat="48.05617" lon="7.04531">
        <ele>826</ele>
        <time>2021-08-05T14:58:35Z</time>
      </trkpt>
      <trkpt lat="48.05617" lon="7.04531">
        <ele>826</ele>
        <time>2021-08-05T14:58:36Z</time>
      </trkpt>
      <trkpt lat="48.05617" lon="7.04531">
        <ele>826.1</ele>
        <time>2021-08-05T14:58:38Z</time>
      </trkpt>
      <trkpt lat="48.05617" lon="7.0453">
        <ele>826.1</ele>
        <time>2021-08-05T14:58:39Z</time>
      </trkpt>
      <trkpt lat="48.05616" lon="7.04529">
        <ele>826.2</ele>
        <time>2021-08-05T14:58:40Z</time>
      </trkpt>
      <trkpt lat="48.05616" lon="7.04528">
        <ele>826.2</ele>
        <time>2021-08-05T14:58:41Z</time>
      </trkpt>
      <trkpt lat="48.05616" lon="7.04524">
        <ele>826.4</ele>
        <time>2021-08-05T14:58:42Z</time>
      </trkpt>
      <trkpt lat="48.05616" lon="7.0452">
        <ele>826.6</ele>
        <time>2021-08-05T14:58:44Z</time>
      </trkpt>
      <trkpt lat="48.05617" lon="7.04517">
        <ele>826.8</ele>
        <time>2021-08-05T14:58:46Z</time>
      </trkpt>
      <trkpt lat="48.05617" lon="7.04514">
        <ele>827</ele>
        <time>2021-08-05T14:59:12Z</time>
      </trkpt>
      <trkpt lat="48.05618" lon="7.0451">
        <ele>827.2</ele>
        <time>2021-08-05T14:59:13Z</time>
      </trkpt>
      <trkpt lat="48.05618" lon="7.04507">
        <ele>827.4</ele>
        <time>2021-08-05T14:59:14Z</time>
      </trkpt>
      <trkpt lat="48.05625" lon="7.04508">
        <ele>827.9</ele>
        <time>2021-08-05T14:59:16Z</time>
      </trkpt>
      <trkpt lat="48.05629" lon="7.04509">
        <ele>828.2</ele>
        <time>2021-08-05T14:59:17Z</time>
      </trkpt>
      <trkpt lat="48.0563" lon="7.04509">
        <ele>828.4</ele>
        <time>2021-08-05T14:59:18Z</time>
      </trkpt>
      <trkpt lat="48.05633" lon="7.0451">
        <ele>828.6</ele>
        <time>2021-08-05T14:59:19Z</time>
      </trkpt>
      <trkpt lat="48.05636" lon="7.04509">
        <ele>828.8</ele>
        <time>2021-08-05T14:59:21Z</time>
      </trkpt>
      <trkpt lat="48.05637" lon="7.04508">
        <ele>828.9</ele>
        <time>2021-08-05T14:59:22Z</time>
      </trkpt>
      <trkpt lat="48.05638" lon="7.04507">
        <ele>829</ele>
        <time>2021-08-05T14:59:23Z</time>
      </trkpt>
      <trkpt lat="48.05639" lon="7.04507">
        <ele>829.1</ele>
        <time>2021-08-05T14:59:25Z</time>
      </trkpt>
      <trkpt lat="48.05639" lon="7.04509">
        <ele>829.2</ele>
        <time>2021-08-05T14:59:27Z</time>
      </trkpt>
      <trkpt lat="48.05638" lon="7.0451">
        <ele>829.3</ele>
        <time>2021-08-05T14:59:28Z</time>
      </trkpt>
      <trkpt lat="48.05638" lon="7.04511">
        <ele>829.4</ele>
        <time>2021-08-05T14:59:30Z</time>
      </trkpt>
      <trkpt lat="48.05637" lon="7.04513">
        <ele>829.5</ele>
        <time>2021-08-05T14:59:32Z</time>
      </trkpt>
      <trkpt lat="48.05584" lon="7.04434">
        <ele>835.7</ele>
        <time>2021-08-05T15:01:43Z</time>
      </trkpt>
      <trkpt lat="48.05585" lon="7.04428">
        <ele>836</ele>
        <time>2021-08-05T15:01:44Z</time>
      </trkpt>
      <trkpt lat="48.05586" lon="7.04423">
        <ele>836.3</ele>
        <time>2021-08-05T15:01:45Z</time>
      </trkpt>
      <trkpt lat="48.05587" lon="7.04419">
        <ele>836.6</ele>
        <time>2021-08-05T15:01:46Z</time>
      </trkpt>
      <trkpt lat="48.05587" lon="7.04416">
        <ele>836.7</ele>
        <time>2021-08-05T15:01:47Z</time>
      </trkpt>
      <trkpt lat="48.05587" lon="7.04413">
        <ele>836.9</ele>
        <time>2021-08-05T15:01:48Z</time>
      </trkpt>
      <trkpt lat="48.05586" lon="7.04411">
        <ele>837</ele>
        <time>2021-08-05T15:01:49Z</time>
      </trkpt>
      <trkpt lat="48.05585" lon="7.04408">
        <ele>837.3</ele>
        <time>2021-08-05T15:01:51Z</time>
      </trkpt>
      <trkpt lat="48.05585" lon="7.04405">
        <ele>837.5</ele>
        <time>2021-08-05T15:01:52Z</time>
      </trkpt>
      <trkpt lat="48.05584" lon="7.04403">
        <ele>837.6</ele>
        <time>2021-08-05T15:01:53Z</time>
      </trkpt>
      <trkpt lat="48.05585" lon="7.04401">
        <ele>837.8</ele>
        <time>2021-08-05T15:01:54Z</time>
      </trkpt>
      <trkpt lat="48.05585" lon="7.04399">
        <ele>837.9</ele>
        <time>2021-08-05T15:01:55Z</time>
      </trkpt>
      <trkpt lat="48.05586" lon="7.04397">
        <ele>838.1</ele>
        <time>2021-08-05T15:01:57Z</time>
      </trkpt>
      <trkpt lat="48.05586" lon="7.04397">
        <ele>838.1</ele>
        <time>2021-08-05T15:01:58Z</time>
      </trkpt>
      <trkpt lat="48.05586" lon="7.04396">
        <ele>838.2</ele>
        <time>2021-08-05T15:02:00Z</time>
      </trkpt>
      <trkpt lat="48.05587" lon="7.04394">
        <ele>838.4</ele>
        <time>2021-08-05T15:02:01Z</time>
      </trkpt>
      <trkpt lat="48.05587" lon="7.04393">
        <ele>838.5</ele>
        <time>2021-08-05T15:02:02Z</time>
      </trkpt>
      <trkpt lat="48.05588" lon="7.04393">
        <ele>838.5</ele>
        <time>2021-08-05T15:02:04Z</time>
      </trkpt>
      <trkpt lat="48.05588" lon="7.04393">
        <ele>838.5</ele>
        <time>2021-08-05T15:02:05Z</time>
      </trkpt>
      <trkpt lat="48.05588" lon="7.04393">
        <ele>838.6</ele>
        <time>2021-08-05T15:02:06Z</time>
      </trkpt>
      <trkpt lat="48.05589" lon="7.04393">
        <ele>838.6</ele>
        <time>2021-08-05T15:02:07Z</time>
      </trkpt>
      <trkpt lat="48.05589" lon="7.04393">
        <ele>838.6</ele>
        <time>2021-08-05T15:02:08Z</time>
      </trkpt>
      <trkpt lat="48.0559" lon="7.04392">
        <ele>838.8</ele>
        <time>2021-08-05T15:02:10Z</time>
      </trkpt>
      <trkpt lat="48.05591" lon="7.04391">
        <ele>838.8</ele>
        <time>2021-08-05T15:02:11Z</time>
      </trkpt>
      <trkpt lat="48.05592" lon="7.0439">
        <ele>839</ele>
        <time>2021-08-05T15:02:12Z</time>
      </trkpt>
      <trkpt lat="48.05593" lon="7.04388">
        <ele>839.1</ele>
        <time>2021-08-05T15:02:14Z</time>
      </trkpt>
      <trkpt lat="48.05593" lon="7.04387">
        <ele>839.2</ele>
        <time>2021-08-05T15:02:15Z</time>
      </trkpt>
      <trkpt lat="48.05584" lon="7.04263">
        <ele>845.6</ele>
        <time>2021-08-05T15:03:46Z</time>
      </trkpt>
      <trkpt lat="48.05589" lon="7.04251">
        <ele>845.7</ele>
        <time>2021-08-05T15:03:47Z</time>
      </trkpt>
      <trkpt lat="48.05591" lon="7.04245">
        <ele>845.8</ele>
        <time>2021-08-05T15:03:48Z</time>
      </trkpt>
      <trkpt lat="48.05603" lon="7.04223">
        <ele>846</ele>
        <time>2021-08-05T15:03:50Z</time>
      </trkpt>
      <trkpt lat="48.05609" lon="7.04204">
        <ele>847.4</ele>
        <time>2021-08-05T15:03:52Z</time>
      </trkpt>
      <trkpt lat="48.05608" lon="7.04206">
        <ele>847.3</ele>
        <time>2021-08-05T15:03:53Z</time>
      </trkpt>
      <trkpt lat="48.05606" lon="7.04211">
        <ele>847.1</ele>
        <time>2021-08-05T15:03:55Z</time>
      </trkpt>
      <trkpt lat="48.05606" lon="7.04212">
        <ele>847.1</ele>
        <time>2021-08-05T15:03:56Z</time>
      </trkpt>
      <trkpt lat="48.05605" lon="7.04214">
        <ele>847</ele>
        <time>2021-08-05T15:03:57Z</time>
      </trkpt>
      <trkpt lat="48.05604" lon="7.04215">
        <ele>847</ele>
        <time>2021-08-05T15:03:59Z</time>
      </trkpt>
      <trkpt lat="48.05604" lon="7.04215">
        <ele>847</ele>
        <time>2021-08-05T15:04:01Z</time>
      </trkpt>
      <trkpt lat="48.05612" lon="7.0424">
        <ele>846.2</ele>
        <time>2021-08-05T15:04:50Z</time>
      </trkpt>
      <trkpt lat="48.05612" lon="7.04238">
        <ele>846.2</ele>
        <time>2021-08-05T15:04:51Z</time>
      </trkpt>
      <trkpt lat="48.05611" lon="7.04236">
        <ele>846.1</ele>
        <time>2021-08-05T15:04:52Z</time>
      </trkpt>
      <trkpt lat="48.05611" lon="7.04234">
        <ele>846</ele>
        <time>2021-08-05T15:04:54Z</time>
      </trkpt>
      <trkpt lat="48.05611" lon="7.04232">
        <ele>846</ele>
        <time>2021-08-05T15:04:56Z</time>
      </trkpt>
      <trkpt lat="48.0561" lon="7.0423">
        <ele>845.9</ele>
        <time>2021-08-05T15:04:57Z</time>
      </trkpt>
      <trkpt lat="48.0561" lon="7.04229">
        <ele>845.9</ele>
        <time>2021-08-05T15:04:59Z</time>
      </trkpt>
      <trkpt lat="48.0561" lon="7.04228">
        <ele>845.9</ele>
        <time>2021-08-05T15:05:00Z</time>
      </trkpt>
      <trkpt lat="48.0561" lon="7.04225">
        <ele>845.7</ele>
        <time>2021-08-05T15:05:02Z</time>
      </trkpt>
      <trkpt lat="48.0561" lon="7.04224">
        <ele>845.7</ele>
        <time>2021-08-05T15:05:03Z</time>
      </trkpt>
      <trkpt lat="48.0561" lon="7.04222">
        <ele>845.7</ele>
        <time>2021-08-05T15:05:05Z</time>
      </trkpt>
      <trkpt lat="48.05609" lon="7.04219">
        <ele>845.7</ele>
        <time>2021-08-05T15:05:07Z</time>
      </trkpt>
      <trkpt lat="48.05608" lon="7.04217">
        <ele>845.7</ele>
        <time>2021-08-05T15:05:08Z</time>
      </trkpt>
      <trkpt lat="48.05608" lon="7.04215">
        <ele>845.7</ele>
        <time>2021-08-05T15:05:09Z</time>
      </trkpt>
      <trkpt lat="48.05608" lon="7.04213">
        <ele>845.7</ele>
        <time>2021-08-05T15:05:11Z</time>
      </trkpt>
      <trkpt lat="48.05608" lon="7.04212">
        <ele>845.7</ele>
        <time>2021-08-05T15:05:12Z</time>
      </trkpt>
      <trkpt lat="48.05609" lon="7.0421">
        <ele>845.7</ele>
        <time>2021-08-05T15:05:14Z</time>
      </trkpt>
      <trkpt lat="48.05609" lon="7.04208">
        <ele>845.6</ele>
        <time>2021-08-05T15:05:16Z</time>
      </trkpt>
      <trkpt lat="48.05609" lon="7.04207">
        <ele>845.6</ele>
        <time>2021-08-05T15:05:17Z</time>
      </trkpt>
      <trkpt lat="48.05608" lon="7.04207">
        <ele>845.6</ele>
        <time>2021-08-05T15:05:18Z</time>
      </trkpt>
      <trkpt lat="48.05608" lon="7.04207">
        <ele>845.6</ele>
        <time>2021-08-05T15:05:20Z</time>
      </trkpt>
      <trkpt lat="48.05608" lon="7.04206">
        <ele>845.6</ele>
        <time>2021-08-05T15:05:21Z</time>
      </trkpt>
      <trkpt lat="48.05608" lon="7.04206">
        <ele>845.6</ele>
        <time>2021-08-05T15:05:22Z</time>
      </trkpt>
      <trkpt lat="48.05608" lon="7.04205">
        <ele>845.6</ele>
        <time>2021-08-05T15:05:23Z</time>
      </trkpt>
      <trkpt lat="48.05607" lon="7.04205">
        <ele>845.6</ele>
        <time>2021-08-05T15:05:25Z</time>
      </trkpt>
      <trkpt lat="48.05607" lon="7.04205">
        <ele>845.5</ele>
        <time>2021-08-05T15:05:27Z</time>
      </trkpt>
      <trkpt lat="48.05607" lon="7.04204">
        <ele>845.5</ele>
        <time>2021-08-05T15:05:28Z</time>
      </trkpt>
      <trkpt lat="48.05607" lon="7.04204">
        <ele>845.5</ele>
        <time>2021-08-05T15:05:29Z</time>
      </trkpt>
      <trkpt lat="48.05605" lon="7.04201">
        <ele>845.4</ele>
        <time>2021-08-05T15:05:30Z</time>
      </trkpt>
      <trkpt lat="48.05603" lon="7.042">
        <ele>845.4</ele>
        <time>2021-08-05T15:05:32Z</time>
      </trkpt>
      <trkpt lat="48.0559" lon="7.04187">
        <ele>844.5</ele>
        <time>2021-08-05T15:05:33Z</time>
      </trkpt>
      <trkpt lat="48.05588" lon="7.04183">
        <ele>844.3</ele>
        <time>2021-08-05T15:05:35Z</time>
      </trkpt>
      <trkpt lat="48.05585" lon="7.04176">
        <ele>843.9</ele>
        <time>2021-08-05T15:05:36Z</time>
      </trkpt>
      <trkpt lat="48.05583" lon="7.0417">
        <ele>843.5</ele>
        <time>2021-08-05T15:05:37Z</time>
      </trkpt>
      <trkpt lat="48.0558" lon="7.0416">
        <ele>842.9</ele>
        <time>2021-08-05T15:05:39Z</time>
      </trkpt>
      <trkpt lat="48.05578" lon="7.04151">
        <ele>842.4</ele>
        <time>2021-08-05T15:05:40Z</time>
      </trkpt>
      <trkpt lat="48.05573" lon="7.04123">
        <ele>840.8</ele>
        <time>2021-08-05T15:05:42Z</time>
      </trkpt>
      <trkpt lat="48.05571" lon="7.04119">
        <ele>840.5</ele>
        <time>2021-08-05T15:05:43Z</time>
      </trkpt>
      <trkpt lat="48.0557" lon="7.041">
        <ele>839.4</ele>
        <time>2021-08-05T15:05:45Z</time>
      </trkpt>
      <trkpt lat="48.05568" lon="7.04093">
        <ele>839</ele>
        <time>2021-08-05T15:05:46Z</time>
      </trkpt>
      <trkpt lat="48.05567" lon="7.04086">
        <ele>838.6</ele>
        <time>2021-08-05T15:05:47Z</time>
      </trkpt>
      <trkpt lat="48.05566" lon="7.04079">
        <ele>838.2</ele>
        <time>2021-08-05T15:05:48Z</time>
      </trkpt>
      <trkpt lat="48.05565" lon="7.04076">
        <ele>838</ele>
        <time>2021-08-05T15:05:50Z</time>
      </trkpt>
      <trkpt lat="48.05565" lon="7.04074">
        <ele>837.9</ele>
        <time>2021-08-05T15:05:51Z</time>
      </trkpt>
      <trkpt lat="48.05569" lon="7.04057">
        <ele>836.9</ele>
        <time>2021-08-05T15:05:52Z</time>
      </trkpt>
      <trkpt lat="48.05572" lon="7.04041">
        <ele>835.9</ele>
        <time>2021-08-05T15:05:54Z</time>
      </trkpt>
      <trkpt lat="48.05575" lon="7.04025">
        <ele>835</ele>
        <time>2021-08-05T15:05:55Z</time>
      </trkpt>
      <trkpt lat="48.05577" lon="7.04014">
        <ele>834.5</ele>
        <time>2021-08-05T15:05:56Z</time>
      </trkpt>
      <trkpt lat="48.05578" lon="7.04007">
        <ele>834.1</ele>
        <time>2021-08-05T15:05:58Z</time>
      </trkpt>
      <trkpt lat="48.0558" lon="7.03998">
        <ele>833.6</ele>
        <time>2021-08-05T15:05:59Z</time>
      </trkpt>
      <trkpt lat="48.05582" lon="7.03991">
        <ele>833.1</ele>
        <time>2021-08-05T15:06:00Z</time>
      </trkpt>
      <trkpt lat="48.05588" lon="7.03973">
        <ele>831.9</ele>
        <time>2021-08-05T15:06:01Z</time>
      </trkpt>
      <trkpt lat="48.05592" lon="7.03961">
        <ele>831.1</ele>
        <time>2021-08-05T15:06:03Z</time>
      </trkpt>
      <trkpt lat="48.05598" lon="7.03947">
        <ele>830.2</ele>
        <time>2021-08-05T15:06:04Z</time>
      </trkpt>
      <trkpt lat="48.05673" lon="7.03758">
        <ele>817.5</ele>
        <time>2021-08-05T15:06:23Z</time>
      </trkpt>
      <trkpt lat="48.05673" lon="7.03742">
        <ele>816.6</ele>
        <time>2021-08-05T15:06:24Z</time>
      </trkpt>
      <trkpt lat="48.05674" lon="7.03728">
        <ele>815.8</ele>
        <time>2021-08-05T15:06:25Z</time>
      </trkpt>
      <trkpt lat="48.05674" lon="7.03706">
        <ele>814.6</ele>
        <time>2021-08-05T15:06:27Z</time>
      </trkpt>
      <trkpt lat="48.05674" lon="7.03686">
        <ele>813.4</ele>
        <time>2021-08-05T15:06:29Z</time>
      </trkpt>
      <trkpt lat="48.05673" lon="7.03677">
        <ele>812.9</ele>
        <time>2021-08-05T15:06:30Z</time>
      </trkpt>
      <trkpt lat="48.05671" lon="7.0366">
        <ele>811.8</ele>
        <time>2021-08-05T15:06:32Z</time>
      </trkpt>
      <trkpt lat="48.0567" lon="7.03647">
        <ele>811.7</ele>
        <time>2021-08-05T15:06:34Z</time>
      </trkpt>
      <trkpt lat="48.05667" lon="7.03625">
        <ele>811.6</ele>
        <time>2021-08-05T15:06:36Z</time>
      </trkpt>
      <trkpt lat="48.05666" lon="7.03618">
        <ele>811.6</ele>
        <time>2021-08-05T15:06:38Z</time>
      </trkpt>
      <trkpt lat="48.05665" lon="7.03613">
        <ele>810.8</ele>
        <time>2021-08-05T15:06:39Z</time>
      </trkpt>
      <trkpt lat="48.05664" lon="7.03609">
        <ele>810.7</ele>
        <time>2021-08-05T15:06:40Z</time>
      </trkpt>
      <trkpt lat="48.0566" lon="7.0356">
        <ele>810.7</ele>
        <time>2021-08-05T15:06:42Z</time>
      </trkpt>
      <trkpt lat="48.0566" lon="7.03549">
        <ele>811.2</ele>
        <time>2021-08-05T15:06:43Z</time>
      </trkpt>
      <trkpt lat="48.0566" lon="7.03542">
        <ele>811.4</ele>
        <time>2021-08-05T15:06:44Z</time>
      </trkpt>
      <trkpt lat="48.05659" lon="7.03531">
        <ele>812.6</ele>
        <time>2021-08-05T15:06:46Z</time>
      </trkpt>
      <trkpt lat="48.05657" lon="7.03521">
        <ele>813.1</ele>
        <time>2021-08-05T15:06:47Z</time>
      </trkpt>
      <trkpt lat="48.05652" lon="7.03513">
        <ele>813.8</ele>
        <time>2021-08-05T15:06:49Z</time>
      </trkpt>
      <trkpt lat="48.05649" lon="7.03507">
        <ele>814.1</ele>
        <time>2021-08-05T15:06:50Z</time>
      </trkpt>
      <trkpt lat="48.05633" lon="7.03489">
        <ele>816.2</ele>
        <time>2021-08-05T15:06:52Z</time>
      </trkpt>
      <trkpt lat="48.05633" lon="7.03489">
        <ele>816</ele>
        <time>2021-08-05T15:06:52Z</time>
      </trkpt>
      <trkpt lat="48.05624" lon="7.03482">
        <ele>815.9</ele>
        <time>2021-08-05T15:06:53Z</time>
      </trkpt>
      <trkpt lat="48.05614" lon="7.03475">
        <ele>816.9</ele>
        <time>2021-08-05T15:06:54Z</time>
      </trkpt>
      <trkpt lat="48.05599" lon="7.03471">
        <ele>814.8</ele>
        <time>2021-08-05T15:06:56Z</time>
      </trkpt>
      <trkpt lat="48.05586" lon="7.03475">
        <ele>810.7</ele>
        <time>2021-08-05T15:06:58Z</time>
      </trkpt>
      <trkpt lat="48.05577" lon="7.03478">
        <ele>806.9</ele>
        <time>2021-08-05T15:06:59Z</time>
      </trkpt>
      <trkpt lat="48.05568" lon="7.0348">
        <ele>804.8</ele>
        <time>2021-08-05T15:07:00Z</time>
      </trkpt>
      <trkpt lat="48.05553" lon="7.03487">
        <ele>798.7</ele>
        <time>2021-08-05T15:07:02Z</time>
      </trkpt>
      <trkpt lat="48.05547" lon="7.03493">
        <ele>796.5</ele>
        <time>2021-08-05T15:07:03Z</time>
      </trkpt>
      <trkpt lat="48.05533" lon="7.03505">
        <ele>791.4</ele>
        <time>2021-08-05T15:07:05Z</time>
      </trkpt>
      <trkpt lat="48.05529" lon="7.03512">
        <ele>788.8</ele>
        <time>2021-08-05T15:07:06Z</time>
      </trkpt>
      <trkpt lat="48.05517" lon="7.03529">
        <ele>783.3</ele>
        <time>2021-08-05T15:07:08Z</time>
      </trkpt>
      <trkpt lat="48.05507" lon="7.03542">
        <ele>779.1</ele>
        <time>2021-08-05T15:07:10Z</time>
      </trkpt>
      <trkpt lat="48.05501" lon="7.03546">
        <ele>777.3</ele>
        <time>2021-08-05T15:07:11Z</time>
      </trkpt>
      <trkpt lat="48.05495" lon="7.0355">
        <ele>776.5</ele>
        <time>2021-08-05T15:07:12Z</time>
      </trkpt>
      <trkpt lat="48.05488" lon="7.03553">
        <ele>775</ele>
        <time>2021-08-05T15:07:13Z</time>
      </trkpt>
      <trkpt lat="48.05477" lon="7.03556">
        <ele>773</ele>
        <time>2021-08-05T15:07:15Z</time>
      </trkpt>
      <trkpt lat="48.05473" lon="7.03556">
        <ele>773.2</ele>
        <time>2021-08-05T15:07:16Z</time>
      </trkpt>
      <trkpt lat="48.05474" lon="7.03557">
        <ele>773.3</ele>
        <time>2021-08-05T15:07:18Z</time>
      </trkpt>
      <trkpt lat="48.05473" lon="7.03559">
        <ele>773.4</ele>
        <time>2021-08-05T15:07:20Z</time>
      </trkpt>
      <trkpt lat="48.05471" lon="7.0356">
        <ele>773.5</ele>
        <time>2021-08-05T15:07:22Z</time>
      </trkpt>
      <trkpt lat="48.0547" lon="7.03561">
        <ele>773.6</ele>
        <time>2021-08-05T15:07:23Z</time>
      </trkpt>
      <trkpt lat="48.0547" lon="7.03561">
        <ele>773.6</ele>
        <time>2021-08-05T15:07:24Z</time>
      </trkpt>
      <trkpt lat="48.0547" lon="7.03562">
        <ele>773.7</ele>
        <time>2021-08-05T15:07:25Z</time>
      </trkpt>
      <trkpt lat="48.0547" lon="7.03563">
        <ele>773.7</ele>
        <time>2021-08-05T15:07:27Z</time>
      </trkpt>
      <trkpt lat="48.05469" lon="7.03959">
        <ele>730.7</ele>
        <time>2021-08-05T15:09:06Z</time>
      </trkpt>
      <trkpt lat="48.05464" lon="7.03967">
        <ele>729.8</ele>
        <time>2021-08-05T15:09:07Z</time>
      </trkpt>
      <trkpt lat="48.05458" lon="7.03976">
        <ele>728.6</ele>
        <time>2021-08-05T15:09:08Z</time>
      </trkpt>
      <trkpt lat="48.0545" lon="7.03989">
        <ele>727.1</ele>
        <time>2021-08-05T15:09:09Z</time>
      </trkpt>
      <trkpt lat="48.05433" lon="7.04007">
        <ele>724.3</ele>
        <time>2021-08-05T15:09:11Z</time>
      </trkpt>
      <trkpt lat="48.0542" lon="7.04021">
        <ele>721.8</ele>
        <time>2021-08-05T15:09:13Z</time>
      </trkpt>
      <trkpt lat="48.05413" lon="7.04027">
        <ele>720.6</ele>
        <time>2021-08-05T15:09:14Z</time>
      </trkpt>
      <trkpt lat="48.05409" lon="7.04031">
        <ele>720.5</ele>
        <time>2021-08-05T15:09:15Z</time>
      </trkpt>
      <trkpt lat="48.05405" lon="7.0403">
        <ele>720.4</ele>
        <time>2021-08-05T15:09:16Z</time>
      </trkpt>
      <trkpt lat="48.05401" lon="7.04029">
        <ele>720.3</ele>
        <time>2021-08-05T15:09:17Z</time>
      </trkpt>
      <trkpt lat="48.054" lon="7.04028">
        <ele>720.3</ele>
        <time>2021-08-05T15:09:18Z</time>
      </trkpt>
      <trkpt lat="48.05398" lon="7.04028">
        <ele>720.2</ele>
        <time>2021-08-05T15:09:19Z</time>
      </trkpt>
      <trkpt lat="48.05396" lon="7.04028">
        <ele>720.2</ele>
        <time>2021-08-05T15:09:21Z</time>
      </trkpt>
      <trkpt lat="48.05384" lon="7.04027">
        <ele>719.8</ele>
        <time>2021-08-05T15:09:22Z</time>
      </trkpt>
      <trkpt lat="48.05373" lon="7.04026">
        <ele>719.3</ele>
        <time>2021-08-05T15:09:24Z</time>
      </trkpt>
      <trkpt lat="48.05371" lon="7.04027">
        <ele>719.2</ele>
        <time>2021-08-05T15:09:25Z</time>
      </trkpt>
      <trkpt lat="48.05367" lon="7.04029">
        <ele>719</ele>
        <time>2021-08-05T15:09:27Z</time>
      </trkpt>
      <trkpt lat="48.05361" lon="7.0403">
        <ele>718.7</ele>
        <time>2021-08-05T15:09:30Z</time>
      </trkpt>
      <trkpt lat="48.05361" lon="7.04029">
        <ele>718.7</ele>
        <time>2021-08-05T15:09:32Z</time>
      </trkpt>
      <trkpt lat="48.05361" lon="7.04029">
        <ele>718.7</ele>
        <time>2021-08-05T15:09:33Z</time>
      </trkpt>
      <trkpt lat="48.05361" lon="7.04029">
        <ele>718.7</ele>
        <time>2021-08-05T15:09:40Z</time>
      </trkpt>
      <trkpt lat="48.05361" lon="7.04029">
        <ele>718.7</ele>
        <time>2021-08-05T15:09:46Z</time>
      </trkpt>
      <trkpt lat="48.05361" lon="7.04028">
        <ele>718.7</ele>
        <time>2021-08-05T15:09:47Z</time>
      </trkpt>
      <trkpt lat="48.0536" lon="7.04028">
        <ele>718.7</ele>
        <time>2021-08-05T15:09:48Z</time>
      </trkpt>
      <trkpt lat="48.0536" lon="7.04028">
        <ele>718.7</ele>
        <time>2021-08-05T15:09:50Z</time>
      </trkpt>
      <trkpt lat="48.0536" lon="7.04028">
        <ele>718.7</ele>
        <time>2021-08-05T15:09:51Z</time>
      </trkpt>
      <trkpt lat="48.0536" lon="7.04028">
        <ele>718.8</ele>
        <time>2021-08-05T15:09:52Z</time>
      </trkpt>
      <trkpt lat="48.0536" lon="7.04027">
        <ele>718.8</ele>
        <time>2021-08-05T15:09:54Z</time>
      </trkpt>
      <trkpt lat="48.05359" lon="7.04027">
        <ele>718.8</ele>
        <time>2021-08-05T15:09:55Z</time>
      </trkpt>
      <trkpt lat="48.05359" lon="7.04027">
        <ele>718.8</ele>
        <time>2021-08-05T15:09:57Z</time>
      </trkpt>
      <trkpt lat="48.05359" lon="7.04027">
        <ele>718.8</ele>
        <time>2021-08-05T15:09:58Z</time>
      </trkpt>
      <trkpt lat="48.05359" lon="7.04026">
        <ele>718.8</ele>
        <time>2021-08-05T15:09:59Z</time>
      </trkpt>
      <trkpt lat="48.05359" lon="7.04026">
        <ele>718.8</ele>
        <time>2021-08-05T15:10:00Z</time>
      </trkpt>
      <trkpt lat="48.05358" lon="7.04026">
        <ele>718.8</ele>
        <time>2021-08-05T15:10:02Z</time>
      </trkpt>
      <trkpt lat="48.05358" lon="7.04026">
        <ele>718.8</ele>
        <time>2021-08-05T15:10:03Z</time>
      </trkpt>
      <trkpt lat="48.05404" lon="7.03975">
        <ele>719.5</ele>
        <time>2021-08-05T15:10:05Z</time>
      </trkpt>
      <trkpt lat="48.05414" lon="7.03964">
        <ele>719.3</ele>
        <time>2021-08-05T15:10:06Z</time>
      </trkpt>
      <trkpt lat="48.05424" lon="7.03953">
        <ele>719.1</ele>
        <time>2021-08-05T15:10:07Z</time>
      </trkpt>
      <trkpt lat="48.05432" lon="7.03945">
        <ele>719</ele>
        <time>2021-08-05T15:10:08Z</time>
      </trkpt>
      <trkpt lat="48.05435" lon="7.03942">
        <ele>719</ele>
        <time>2021-08-05T15:10:10Z</time>
      </trkpt>
      <trkpt lat="48.05441" lon="7.03934">
        <ele>719</ele>
        <time>2021-08-05T15:10:11Z</time>
      </trkpt>
      <trkpt lat="48.05445" lon="7.03928">
        <ele>718.9</ele>
        <time>2021-08-05T15:10:12Z</time>
      </trkpt>
      <trkpt lat="48.05447" lon="7.03924">
        <ele>718.9</ele>
        <time>2021-08-05T15:10:14Z</time>
      </trkpt>
      <trkpt lat="48.05449" lon="7.0392">
        <ele>718.9</ele>
        <time>2021-08-05T15:10:15Z</time>
      </trkpt>
      <trkpt lat="48.05451" lon="7.03916">
        <ele>718.9</ele>
        <time>2021-08-05T15:10:17Z</time>
      </trkpt>
      <trkpt lat="48.05451" lon="7.03915">
        <ele>718.9</ele>
        <time>2021-08-05T15:10:18Z</time>
      </trkpt>
      <trkpt lat="48.05451" lon="7.03912">
        <ele>718.8</ele>
        <time>2021-08-05T15:10:19Z</time>
      </trkpt>
      <trkpt lat="48.05451" lon="7.0391">
        <ele>718.8</ele>
        <time>2021-08-05T15:10:20Z</time>
      </trkpt>
      <trkpt lat="48.05451" lon="7.03909">
        <ele>718.8</ele>
        <time>2021-08-05T15:10:21Z</time>
      </trkpt>
      <trkpt lat="48.0545" lon="7.03906">
        <ele>718.8</ele>
        <time>2021-08-05T15:10:23Z</time>
      </trkpt>
      <trkpt lat="48.0545" lon="7.03904">
        <ele>718.8</ele>
        <time>2021-08-05T15:10:24Z</time>
      </trkpt>
      <trkpt lat="48.0545" lon="7.03903">
        <ele>718.8</ele>
        <time>2021-08-05T15:10:25Z</time>
      </trkpt>
      <trkpt lat="48.0545" lon="7.03902">
        <ele>718.8</ele>
        <time>2021-08-05T15:10:27Z</time>
      </trkpt>
      <trkpt lat="48.0545" lon="7.039">
        <ele>718.7</ele>
        <time>2021-08-05T15:10:30Z</time>
      </trkpt>
      <trkpt lat="48.05451" lon="7.03899">
        <ele>718.7</ele>
        <time>2021-08-05T15:10:31Z</time>
      </trkpt>
      <trkpt lat="48.05451" lon="7.03899">
        <ele>718.7</ele>
        <time>2021-08-05T15:10:32Z</time>
      </trkpt>
      <trkpt lat="48.05451" lon="7.03899">
        <ele>718.7</ele>
        <time>2021-08-05T15:10:34Z</time>
      </trkpt>
      <trkpt lat="48.05451" lon="7.03899">
        <ele>718.7</ele>
        <time>2021-08-05T15:10:36Z</time>
      </trkpt>
      <trkpt lat="48.05451" lon="7.03899">
        <ele>718.7</ele>
        <time>2021-08-05T15:10:39Z</time>
      </trkpt>
      <trkpt lat="48.05451" lon="7.03899">
        <ele>718.7</ele>
        <time>2021-08-05T15:10:43Z</time>
      </trkpt>
      <trkpt lat="48.05451" lon="7.03898">
        <ele>718.7</ele>
        <time>2021-08-05T15:10:46Z</time>
      </trkpt>
      <trkpt lat="48.05451" lon="7.03898">
        <ele>718.7</ele>
        <time>2021-08-05T15:10:51Z</time>
      </trkpt>
      <trkpt lat="48.05432" lon="7.03835">
        <ele>718.1</ele>
        <time>2021-08-05T15:10:58Z</time>
      </trkpt>
      <trkpt lat="48.05427" lon="7.03827">
        <ele>718</ele>
        <time>2021-08-05T15:10:59Z</time>
      </trkpt>
      <trkpt lat="48.0542" lon="7.03826">
        <ele>718</ele>
        <time>2021-08-05T15:11:01Z</time>
      </trkpt>
      <trkpt lat="48.05418" lon="7.03829">
        <ele>718</ele>
        <time>2021-08-05T15:11:02Z</time>
      </trkpt>
      <trkpt lat="48.05415" lon="7.03834">
        <ele>717.9</ele>
        <time>2021-08-05T15:11:04Z</time>
      </trkpt>
      <trkpt lat="48.05415" lon="7.03835">
        <ele>717.9</ele>
        <time>2021-08-05T15:11:05Z</time>
      </trkpt>
      <trkpt lat="48.05416" lon="7.03836">
        <ele>717.9</ele>
        <time>2021-08-05T15:11:06Z</time>
      </trkpt>
      <trkpt lat="48.05418" lon="7.03835">
        <ele>717.9</ele>
        <time>2021-08-05T15:11:07Z</time>
      </trkpt>
      <trkpt lat="48.05419" lon="7.03832">
        <ele>717.9</ele>
        <time>2021-08-05T15:11:08Z</time>
      </trkpt>
      <trkpt lat="48.05421" lon="7.03829">
        <ele>717.9</ele>
        <time>2021-08-05T15:11:10Z</time>
      </trkpt>
      <trkpt lat="48.0542" lon="7.03829">
        <ele>717.9</ele>
        <time>2021-08-05T15:11:11Z</time>
      </trkpt>
      <trkpt lat="48.05421" lon="7.03829">
        <ele>717.8</ele>
        <time>2021-08-05T15:11:12Z</time>
      </trkpt>
      <trkpt lat="48.05421" lon="7.03829">
        <ele>717.8</ele>
        <time>2021-08-05T15:11:13Z</time>
      </trkpt>
      <trkpt lat="48.05422" lon="7.03829">
        <ele>717.8</ele>
        <time>2021-08-05T15:11:14Z</time>
      </trkpt>
      <trkpt lat="48.05424" lon="7.03828">
        <ele>717.8</ele>
        <time>2021-08-05T15:11:16Z</time>
      </trkpt>
      <trkpt lat="48.05426" lon="7.03827">
        <ele>717.8</ele>
        <time>2021-08-05T15:11:17Z</time>
      </trkpt>
      <trkpt lat="48.05427" lon="7.03825">
        <ele>717.8</ele>
        <time>2021-08-05T15:11:19Z</time>
      </trkpt>
      <trkpt lat="48.05428" lon="7.03824">
        <ele>717.8</ele>
        <time>2021-08-05T15:11:20Z</time>
      </trkpt>
      <trkpt lat="48.05428" lon="7.03821">
        <ele>717.7</ele>
        <time>2021-08-05T15:11:21Z</time>
      </trkpt>
      <trkpt lat="48.05428" lon="7.03819">
        <ele>717.7</ele>
        <time>2021-08-05T15:11:22Z</time>
      </trkpt>
      <trkpt lat="48.05426" lon="7.03815">
        <ele>717.7</ele>
        <time>2021-08-05T15:11:24Z</time>
      </trkpt>
      <trkpt lat="48.05411" lon="7.03779">
        <ele>717.3</ele>
        <time>2021-08-05T15:11:26Z</time>
      </trkpt>
      <trkpt lat="48.05403" lon="7.03771">
        <ele>717.2</ele>
        <time>2021-08-05T15:11:27Z</time>
      </trkpt>
      <trkpt lat="48.05395" lon="7.03765">
        <ele>717.1</ele>
        <time>2021-08-05T15:11:28Z</time>
      </trkpt>
      <trkpt lat="48.05382" lon="7.0376">
        <ele>717.5</ele>
        <time>2021-08-05T15:11:30Z</time>
      </trkpt>
      <trkpt lat="48.05373" lon="7.03757">
        <ele>718</ele>
        <time>2021-08-05T15:11:32Z</time>
      </trkpt>
      <trkpt lat="48.0537" lon="7.03758">
        <ele>718.2</ele>
        <time>2021-08-05T15:11:33Z</time>
      </trkpt>
      <trkpt lat="48.05368" lon="7.03759">
        <ele>718.3</ele>
        <time>2021-08-05T15:11:34Z</time>
      </trkpt>
      <trkpt lat="48.05361" lon="7.03755">
        <ele>718.6</ele>
        <time>2021-08-05T15:11:35Z</time>
      </trkpt>
      <trkpt lat="48.05356" lon="7.03751">
        <ele>719</ele>
        <time>2021-08-05T15:11:37Z</time>
      </trkpt>
      <trkpt lat="48.05353" lon="7.03746">
        <ele>719.2</ele>
        <time>2021-08-05T15:11:38Z</time>
      </trkpt>
      <trkpt lat="48.0535" lon="7.03741">
        <ele>719.4</ele>
        <time>2021-08-05T15:11:40Z</time>
      </trkpt>
      <trkpt lat="48.05347" lon="7.03738">
        <ele>719.6</ele>
        <time>2021-08-05T15:11:41Z</time>
      </trkpt>
      <trkpt lat="48.05344" lon="7.03736">
        <ele>719.8</ele>
        <time>2021-08-05T15:11:43Z</time>
      </trkpt>
      <trkpt lat="48.05341" lon="7.03734">
        <ele>720</ele>
        <time>2021-08-05T15:11:44Z</time>
      </trkpt>
      <trkpt lat="48.05339" lon="7.03732">
        <ele>720.1</ele>
        <time>2021-08-05T15:11:46Z</time>
      </trkpt>
      <trkpt lat="48.05338" lon="7.03731">
        <ele>720.1</ele>
        <time>2021-08-05T15:11:47Z</time>
      </trkpt>
      <trkpt lat="48.05335" lon="7.03727">
        <ele>720.3</ele>
        <time>2021-08-05T15:11:48Z</time>
      </trkpt>
      <trkpt lat="48.05334" lon="7.03725">
        <ele>720.4</ele>
        <time>2021-08-05T15:11:49Z</time>
      </trkpt>
      <trkpt lat="48.05331" lon="7.03721">
        <ele>720.6</ele>
        <time>2021-08-05T15:11:51Z</time>
      </trkpt>
      <trkpt lat="48.05328" lon="7.03717">
        <ele>720.8</ele>
        <time>2021-08-05T15:11:53Z</time>
      </trkpt>
      <trkpt lat="48.05324" lon="7.03712">
        <ele>721.1</ele>
        <time>2021-08-05T15:11:55Z</time>
      </trkpt>
      <trkpt lat="48.05322" lon="7.03708">
        <ele>721.3</ele>
        <time>2021-08-05T15:11:56Z</time>
      </trkpt>
      <trkpt lat="48.05319" lon="7.03705">
        <ele>721.5</ele>
        <time>2021-08-05T15:11:58Z</time>
      </trkpt>
      <trkpt lat="48.05318" lon="7.03702">
        <ele>721.6</ele>
        <time>2021-08-05T15:11:59Z</time>
      </trkpt>
      <trkpt lat="48.05316" lon="7.03697">
        <ele>721.8</ele>
        <time>2021-08-05T15:12:01Z</time>
      </trkpt>
      <trkpt lat="48.05316" lon="7.03691">
        <ele>722</ele>
        <time>2021-08-05T15:12:02Z</time>
      </trkpt>
      <trkpt lat="48.05316" lon="7.03684">
        <ele>722.4</ele>
        <time>2021-08-05T15:12:04Z</time>
      </trkpt>
      <trkpt lat="48.05315" lon="7.03682">
        <ele>722.5</ele>
        <time>2021-08-05T15:12:06Z</time>
      </trkpt>
      <trkpt lat="48.05314" lon="7.0368">
        <ele>722.6</ele>
        <time>2021-08-05T15:12:07Z</time>
      </trkpt>
      <trkpt lat="48.05313" lon="7.03676">
        <ele>722.8</ele>
        <time>2021-08-05T15:12:09Z</time>
      </trkpt>
      <trkpt lat="48.05312" lon="7.03674">
        <ele>723</ele>
        <time>2021-08-05T15:12:10Z</time>
      </trkpt>
      <trkpt lat="48.0531" lon="7.03672">
        <ele>723.1</ele>
        <time>2021-08-05T15:12:11Z</time>
      </trkpt>
      <trkpt lat="48.05309" lon="7.0367">
        <ele>723.3</ele>
        <time>2021-08-05T15:12:12Z</time>
      </trkpt>
      <trkpt lat="48.05308" lon="7.03668">
        <ele>723.4</ele>
        <time>2021-08-05T15:12:13Z</time>
      </trkpt>
      <trkpt lat="48.05307" lon="7.03664">
        <ele>723.6</ele>
        <time>2021-08-05T15:12:15Z</time>
      </trkpt>
      <trkpt lat="48.05304" lon="7.0366">
        <ele>724</ele>
        <time>2021-08-05T15:12:17Z</time>
      </trkpt>
      <trkpt lat="48.05302" lon="7.03658">
        <ele>724.2</ele>
        <time>2021-08-05T15:12:18Z</time>
      </trkpt>
      <trkpt lat="48.05297" lon="7.03656">
        <ele>724.7</ele>
        <time>2021-08-05T15:12:20Z</time>
      </trkpt>
      <trkpt lat="48.05295" lon="7.03655">
        <ele>724.9</ele>
        <time>2021-08-05T15:12:21Z</time>
      </trkpt>
      <trkpt lat="48.05291" lon="7.03654">
        <ele>725.3</ele>
        <time>2021-08-05T15:12:23Z</time>
      </trkpt>
      <trkpt lat="48.05287" lon="7.03654">
        <ele>725.7</ele>
        <time>2021-08-05T15:12:24Z</time>
      </trkpt>
      <trkpt lat="48.05283" lon="7.03655">
        <ele>726.2</ele>
        <time>2021-08-05T15:12:25Z</time>
      </trkpt>
      <trkpt lat="48.05279" lon="7.03656">
        <ele>726.6</ele>
        <time>2021-08-05T15:12:26Z</time>
      </trkpt>
      <trkpt lat="48.05275" lon="7.03657">
        <ele>727.1</ele>
        <time>2021-08-05T15:12:27Z</time>
      </trkpt>
      <trkpt lat="48.05272" lon="7.03657">
        <ele>727.3</ele>
        <time>2021-08-05T15:12:28Z</time>
      </trkpt>
      <trkpt lat="48.05267" lon="7.03657">
        <ele>728</ele>
        <time>2021-08-05T15:12:30Z</time>
      </trkpt>
      <trkpt lat="48.05263" lon="7.03657">
        <ele>728.4</ele>
        <time>2021-08-05T15:12:31Z</time>
      </trkpt>
      <trkpt lat="48.0526" lon="7.03656">
        <ele>728.8</ele>
        <time>2021-08-05T15:12:32Z</time>
      </trkpt>
      <trkpt lat="48.05259" lon="7.03656">
        <ele>729</ele>
        <time>2021-08-05T15:12:33Z</time>
      </trkpt>
      <trkpt lat="48.05256" lon="7.03655">
        <ele>729.3</ele>
        <time>2021-08-05T15:12:34Z</time>
      </trkpt>
      <trkpt lat="48.05256" lon="7.03654">
        <ele>729.4</ele>
        <time>2021-08-05T15:12:35Z</time>
      </trkpt>
      <trkpt lat="48.05254" lon="7.03651">
        <ele>729.8</ele>
        <time>2021-08-05T15:12:37Z</time>
      </trkpt>
      <trkpt lat="48.05253" lon="7.0365">
        <ele>729.9</ele>
        <time>2021-08-05T15:12:38Z</time>
      </trkpt>
      <trkpt lat="48.05251" lon="7.03648">
        <ele>730.3</ele>
        <time>2021-08-05T15:12:39Z</time>
      </trkpt>
      <trkpt lat="48.05247" lon="7.03645">
        <ele>730.9</ele>
        <time>2021-08-05T15:12:40Z</time>
      </trkpt>
      <trkpt lat="48.05244" lon="7.03643">
        <ele>731.4</ele>
        <time>2021-08-05T15:12:42Z</time>
      </trkpt>
      <trkpt lat="48.05241" lon="7.03642">
        <ele>731.8</ele>
        <time>2021-08-05T15:12:43Z</time>
      </trkpt>
      <trkpt lat="48.05238" lon="7.03642">
        <ele>732.3</ele>
        <time>2021-08-05T15:12:45Z</time>
      </trkpt>
      <trkpt lat="48.05236" lon="7.03642">
        <ele>732.6</ele>
        <time>2021-08-05T15:12:46Z</time>
      </trkpt>
      <trkpt lat="48.05234" lon="7.03641">
        <ele>732.8</ele>
        <time>2021-08-05T15:12:47Z</time>
      </trkpt>
      <trkpt lat="48.05231" lon="7.03639">
        <ele>733.3</ele>
        <time>2021-08-05T15:12:49Z</time>
      </trkpt>
      <trkpt lat="48.05231" lon="7.03639">
        <ele>733.4</ele>
        <time>2021-08-05T15:12:50Z</time>
      </trkpt>
      <trkpt lat="48.05226" lon="7.03642">
        <ele>734.2</ele>
        <time>2021-08-05T15:12:51Z</time>
      </trkpt>
      <trkpt lat="48.0522" lon="7.03646">
        <ele>735.2</ele>
        <time>2021-08-05T15:12:53Z</time>
      </trkpt>
      <trkpt lat="48.05215" lon="7.0365">
        <ele>736.2</ele>
        <time>2021-08-05T15:12:55Z</time>
      </trkpt>
      <trkpt lat="48.0521" lon="7.03654">
        <ele>737.2</ele>
        <time>2021-08-05T15:12:56Z</time>
      </trkpt>
      <trkpt lat="48.05204" lon="7.03658">
        <ele>738.3</ele>
        <time>2021-08-05T15:12:58Z</time>
      </trkpt>
      <trkpt lat="48.05199" lon="7.03662">
        <ele>739.4</ele>
        <time>2021-08-05T15:12:59Z</time>
      </trkpt>
      <trkpt lat="48.05194" lon="7.03667">
        <ele>740.5</ele>
        <time>2021-08-05T15:13:00Z</time>
      </trkpt>
      <trkpt lat="48.05188" lon="7.03671">
        <ele>741.5</ele>
        <time>2021-08-05T15:14:21Z</time>
      </trkpt>
      <trkpt lat="48.05183" lon="7.03675">
        <ele>742.5</ele>
        <time>2021-08-05T15:14:22Z</time>
      </trkpt>
      <trkpt lat="48.05178" lon="7.03679">
        <ele>743.5</ele>
        <time>2021-08-05T15:14:23Z</time>
      </trkpt>
      <trkpt lat="48.05176" lon="7.03681">
        <ele>743.8</ele>
        <time>2021-08-05T15:14:24Z</time>
      </trkpt>
      <trkpt lat="48.05175" lon="7.03684">
        <ele>744.1</ele>
        <time>2021-08-05T15:14:26Z</time>
      </trkpt>
      <trkpt lat="48.05173" lon="7.03687">
        <ele>744.6</ele>
        <time>2021-08-05T15:14:27Z</time>
      </trkpt>
      <trkpt lat="48.05172" lon="7.03688">
        <ele>744.8</ele>
        <time>2021-08-05T15:14:29Z</time>
      </trkpt>
      <trkpt lat="48.05171" lon="7.03689">
        <ele>744.9</ele>
        <time>2021-08-05T15:14:30Z</time>
      </trkpt>
      <trkpt lat="48.05171" lon="7.0369">
        <ele>745</ele>
        <time>2021-08-05T15:14:32Z</time>
      </trkpt>
      <trkpt lat="48.05171" lon="7.0369">
        <ele>745</ele>
        <time>2021-08-05T15:14:33Z</time>
      </trkpt>
      <trkpt lat="48.0517" lon="7.0369">
        <ele>745.1</ele>
        <time>2021-08-05T15:14:35Z</time>
      </trkpt>
      <trkpt lat="48.0517" lon="7.03691">
        <ele>745.1</ele>
        <time>2021-08-05T15:14:37Z</time>
      </trkpt>
      <trkpt lat="48.04784" lon="7.04104">
        <ele>786.3</ele>
        <time>2021-08-05T15:25:17Z</time>
      </trkpt>
      <trkpt lat="48.0478" lon="7.0411">
        <ele>785.9</ele>
        <time>2021-08-05T15:25:18Z</time>
      </trkpt>
      <trkpt lat="48.04775" lon="7.04115">
        <ele>785.5</ele>
        <time>2021-08-05T15:25:20Z</time>
      </trkpt>
      <trkpt lat="48.04774" lon="7.04116">
        <ele>785.4</ele>
        <time>2021-08-05T15:25:21Z</time>
      </trkpt>
      <trkpt lat="48.04773" lon="7.04117">
        <ele>785.4</ele>
        <time>2021-08-05T15:25:22Z</time>
      </trkpt>
      <trkpt lat="48.04772" lon="7.04117">
        <ele>785.3</ele>
        <time>2021-08-05T15:25:23Z</time>
      </trkpt>
      <trkpt lat="48.04772" lon="7.04118">
        <ele>785.2</ele>
        <time>2021-08-05T15:25:25Z</time>
      </trkpt>
      <trkpt lat="48.04771" lon="7.04118">
        <ele>785.2</ele>
        <time>2021-08-05T15:25:26Z</time>
      </trkpt>
      <trkpt lat="48.04771" lon="7.04119">
        <ele>785.1</ele>
        <time>2021-08-05T15:25:27Z</time>
      </trkpt>
      <trkpt lat="48.04771" lon="7.0412">
        <ele>785.1</ele>
        <time>2021-08-05T15:25:28Z</time>
      </trkpt>
      <trkpt lat="48.04771" lon="7.04121">
        <ele>785</ele>
        <time>2021-08-05T15:25:30Z</time>
      </trkpt>
      <trkpt lat="48.04771" lon="7.04121">
        <ele>785</ele>
        <time>2021-08-05T15:25:31Z</time>
      </trkpt>
      <trkpt lat="48.0477" lon="7.0412">
        <ele>784.9</ele>
        <time>2021-08-05T15:25:33Z</time>
      </trkpt>
      <trkpt lat="48.0477" lon="7.04121">
        <ele>784.9</ele>
        <time>2021-08-05T15:25:34Z</time>
      </trkpt>
      <trkpt lat="48.0477" lon="7.04121">
        <ele>784.9</ele>
        <time>2021-08-05T15:25:35Z</time>
      </trkpt>
      <trkpt lat="48.04768" lon="7.04122">
        <ele>784.7</ele>
        <time>2021-08-05T15:25:36Z</time>
      </trkpt>
      <trkpt lat="48.04761" lon="7.0412">
        <ele>784.2</ele>
        <time>2021-08-05T15:25:38Z</time>
      </trkpt>
      <trkpt lat="48.04755" lon="7.04115">
        <ele>787.7</ele>
        <time>2021-08-05T15:25:40Z</time>
      </trkpt>
      <trkpt lat="48.04749" lon="7.04112">
        <ele>790.7</ele>
        <time>2021-08-05T15:25:41Z</time>
      </trkpt>
      <trkpt lat="48.04742" lon="7.04107">
        <ele>795.4</ele>
        <time>2021-08-05T15:25:42Z</time>
      </trkpt>
      <trkpt lat="48.04738" lon="7.04102">
        <ele>799</ele>
        <time>2021-08-05T15:25:43Z</time>
      </trkpt>
      <trkpt lat="48.04736" lon="7.04098">
        <ele>798.9</ele>
        <time>2021-08-05T15:25:45Z</time>
      </trkpt>
      <trkpt lat="48.04736" lon="7.04096">
        <ele>798.8</ele>
        <time>2021-08-05T15:25:46Z</time>
      </trkpt>
      <trkpt lat="48.04737" lon="7.04094">
        <ele>798.7</ele>
        <time>2021-08-05T15:25:47Z</time>
      </trkpt>
      <trkpt lat="48.04737" lon="7.04093">
        <ele>798.7</ele>
        <time>2021-08-05T15:25:49Z</time>
      </trkpt>
      <trkpt lat="48.04737" lon="7.04091">
        <ele>798.6</ele>
        <time>2021-08-05T15:25:50Z</time>
      </trkpt>
      <trkpt lat="48.04738" lon="7.04088">
        <ele>798.5</ele>
        <time>2021-08-05T15:25:51Z</time>
      </trkpt>
      <trkpt lat="48.04739" lon="7.0408">
        <ele>798.3</ele>
        <time>2021-08-05T15:25:54Z</time>
      </trkpt>
      <trkpt lat="48.04739" lon="7.04078">
        <ele>798.2</ele>
        <time>2021-08-05T15:25:55Z</time>
      </trkpt>
      <trkpt lat="48.0474" lon="7.04076">
        <ele>798.2</ele>
        <time>2021-08-05T15:25:56Z</time>
      </trkpt>
      <trkpt lat="48.04741" lon="7.0407">
        <ele>798</ele>
        <time>2021-08-05T15:25:57Z</time>
      </trkpt>
      <trkpt lat="48.04743" lon="7.04067">
        <ele>797.9</ele>
        <time>2021-08-05T15:25:58Z</time>
      </trkpt>
      <trkpt lat="48.04744" lon="7.04065">
        <ele>797.8</ele>
        <time>2021-08-05T15:25:59Z</time>
      </trkpt>
      <trkpt lat="48.04746" lon="7.04062">
        <ele>797.7</ele>
        <time>2021-08-05T15:26:00Z</time>
      </trkpt>
      <trkpt lat="48.04747" lon="7.04061">
        <ele>797.6</ele>
        <time>2021-08-05T15:26:01Z</time>
      </trkpt>
      <trkpt lat="48.04747" lon="7.04059">
        <ele>797.6</ele>
        <time>2021-08-05T15:26:03Z</time>
      </trkpt>
      <trkpt lat="48.04747" lon="7.04058">
        <ele>797.6</ele>
        <time>2021-08-05T15:26:04Z</time>
      </trkpt>
      <trkpt lat="48.04747" lon="7.04055">
        <ele>797.6</ele>
        <time>2021-08-05T15:26:06Z</time>
      </trkpt>
      <trkpt lat="48.04747" lon="7.04053">
        <ele>797.7</ele>
        <time>2021-08-05T15:26:07Z</time>
      </trkpt>
      <trkpt lat="48.04766" lon="7.0408">
        <ele>798.7</ele>
        <time>2021-08-05T15:28:13Z</time>
      </trkpt>
      <trkpt lat="48.04763" lon="7.04082">
        <ele>798.9</ele>
        <time>2021-08-05T15:28:14Z</time>
      </trkpt>
      <trkpt lat="48.04756" lon="7.04085">
        <ele>799.2</ele>
        <time>2021-08-05T15:28:16Z</time>
      </trkpt>
      <trkpt lat="48.04752" lon="7.04088">
        <ele>799.4</ele>
        <time>2021-08-05T15:28:17Z</time>
      </trkpt>
      <trkpt lat="48.04743" lon="7.04094">
        <ele>799.9</ele>
        <time>2021-08-05T15:28:19Z</time>
      </trkpt>
      <trkpt lat="48.04737" lon="7.04097">
        <ele>800.2</ele>
        <time>2021-08-05T15:28:20Z</time>
      </trkpt>
      <trkpt lat="48.04731" lon="7.04101">
        <ele>800.6</ele>
        <time>2021-08-05T15:28:21Z</time>
      </trkpt>
      <trkpt lat="48.04728" lon="7.04104">
        <ele>800.7</ele>
        <time>2021-08-05T15:28:22Z</time>
      </trkpt>
      <trkpt lat="48.04727" lon="7.04105">
        <ele>800.8</ele>
        <time>2021-08-05T15:28:24Z</time>
      </trkpt>
      <trkpt lat="48.04728" lon="7.04105">
        <ele>800.8</ele>
        <time>2021-08-05T15:28:25Z</time>
      </trkpt>
      <trkpt lat="48.04728" lon="7.04104">
        <ele>800.8</ele>
        <time>2021-08-05T15:28:26Z</time>
      </trkpt>
      <trkpt lat="48.04728" lon="7.04105">
        <ele>800.9</ele>
        <time>2021-08-05T15:28:28Z</time>
      </trkpt>
      <trkpt lat="48.0473" lon="7.04108">
        <ele>801</ele>
        <time>2021-08-05T15:28:30Z</time>
      </trkpt>
      <trkpt lat="48.04742" lon="7.04229">
        <ele>805.4</ele>
        <time>2021-08-05T15:29:31Z</time>
      </trkpt>
      <trkpt lat="48.0474" lon="7.04235">
        <ele>805.6</ele>
        <time>2021-08-05T15:29:32Z</time>
      </trkpt>
      <trkpt lat="48.04737" lon="7.04241">
        <ele>805.9</ele>
        <time>2021-08-05T15:29:33Z</time>
      </trkpt>
      <trkpt lat="48.04737" lon="7.04242">
        <ele>805.9</ele>
        <time>2021-08-05T15:29:35Z</time>
      </trkpt>
      <trkpt lat="48.04738" lon="7.0424">
        <ele>806</ele>
        <time>2021-08-05T15:29:37Z</time>
      </trkpt>
      <trkpt lat="48.04738" lon="7.04238">
        <ele>806</ele>
        <time>2021-08-05T15:29:38Z</time>
      </trkpt>
      <trkpt lat="48.04738" lon="7.04237">
        <ele>806.1</ele>
        <time>2021-08-05T15:29:39Z</time>
      </trkpt>
      <trkpt lat="48.04739" lon="7.04236">
        <ele>806.1</ele>
        <time>2021-08-05T15:29:40Z</time>
      </trkpt>
      <trkpt lat="48.04739" lon="7.04235">
        <ele>806.1</ele>
        <time>2021-08-05T15:29:41Z</time>
      </trkpt>
      <trkpt lat="48.04739" lon="7.04235">
        <ele>806.1</ele>
        <time>2021-08-05T15:29:42Z</time>
      </trkpt>
      <trkpt lat="48.04694" lon="7.04292">
        <ele>808.9</ele>
        <time>2021-08-05T15:30:19Z</time>
      </trkpt>
      <trkpt lat="48.04689" lon="7.04299">
        <ele>809.2</ele>
        <time>2021-08-05T15:30:21Z</time>
      </trkpt>
      <trkpt lat="48.04684" lon="7.04307">
        <ele>809.5</ele>
        <time>2021-08-05T15:30:23Z</time>
      </trkpt>
      <trkpt lat="48.04681" lon="7.04313">
        <ele>809.7</ele>
        <time>2021-08-05T15:30:24Z</time>
      </trkpt>
      <trkpt lat="48.04676" lon="7.04321">
        <ele>809.9</ele>
        <time>2021-08-05T15:30:26Z</time>
      </trkpt>
      <trkpt lat="48.04672" lon="7.04328">
        <ele>810.1</ele>
        <time>2021-08-05T15:30:27Z</time>
      </trkpt>
      <trkpt lat="48.04669" lon="7.04333">
        <ele>810.2</ele>
        <time>2021-08-05T15:30:28Z</time>
      </trkpt>
      <trkpt lat="48.04667" lon="7.04336">
        <ele>810.3</ele>
        <time>2021-08-05T15:30:30Z</time>
      </trkpt>
      <trkpt lat="48.04666" lon="7.0434">
        <ele>810.4</ele>
        <time>2021-08-05T15:30:31Z</time>
      </trkpt>
      <trkpt lat="48.04665" lon="7.04342">
        <ele>810.5</ele>
        <time>2021-08-05T15:30:32Z</time>
      </trkpt>
      <trkpt lat="48.04665" lon="7.04341">
        <ele>810.5</ele>
        <time>2021-08-05T15:30:34Z</time>
      </trkpt>
      <trkpt lat="48.04664" lon="7.04342">
        <ele>810.5</ele>
        <time>2021-08-05T15:30:35Z</time>
      </trkpt>
      <trkpt lat="48.04664" lon="7.04344">
        <ele>810.5</ele>
        <time>2021-08-05T15:30:36Z</time>
      </trkpt>
      <trkpt lat="48.04664" lon="7.04345">
        <ele>810.6</ele>
        <time>2021-08-05T15:30:38Z</time>
      </trkpt>
      <trkpt lat="48.04664" lon="7.04346">
        <ele>810.6</ele>
        <time>2021-08-05T15:30:39Z</time>
      </trkpt>
      <trkpt lat="48.04665" lon="7.04347">
        <ele>810.6</ele>
        <time>2021-08-05T15:30:41Z</time>
      </trkpt>
      <trkpt lat="48.04665" lon="7.04348">
        <ele>810.6</ele>
        <time>2021-08-05T15:30:42Z</time>
      </trkpt>
      <trkpt lat="48.04665" lon="7.04349">
        <ele>810.7</ele>
        <time>2021-08-05T15:30:43Z</time>
      </trkpt>
      <trkpt lat="48.04665" lon="7.0435">
        <ele>810.7</ele>
        <time>2021-08-05T15:30:45Z</time>
      </trkpt>
      <trkpt lat="48.04673" lon="7.04722">
        <ele>820.1</ele>
        <time>2021-08-05T15:33:32Z</time>
      </trkpt>
      <trkpt lat="48.04668" lon="7.04725">
        <ele>820.4</ele>
        <time>2021-08-05T15:33:33Z</time>
      </trkpt>
      <trkpt lat="48.04667" lon="7.04726">
        <ele>820.6</ele>
        <time>2021-08-05T15:33:34Z</time>
      </trkpt>
      <trkpt lat="48.04663" lon="7.04729">
        <ele>820.8</ele>
        <time>2021-08-05T15:33:35Z</time>
      </trkpt>
      <trkpt lat="48.0466" lon="7.04733">
        <ele>821.1</ele>
        <time>2021-08-05T15:33:36Z</time>
      </trkpt>
      <trkpt lat="48.04658" lon="7.04737">
        <ele>821.3</ele>
        <time>2021-08-05T15:33:38Z</time>
      </trkpt>
      <trkpt lat="48.04656" lon="7.04739">
        <ele>821.5</ele>
        <time>2021-08-05T15:33:39Z</time>
      </trkpt>
      <trkpt lat="48.04655" lon="7.0474">
        <ele>821.5</ele>
        <time>2021-08-05T15:33:40Z</time>
      </trkpt>
      <trkpt lat="48.04655" lon="7.04744">
        <ele>821.7</ele>
        <time>2021-08-05T15:33:41Z</time>
      </trkpt>
      <trkpt lat="48.04655" lon="7.04745">
        <ele>821.8</ele>
        <time>2021-08-05T15:33:43Z</time>
      </trkpt>
      <trkpt lat="48.04655" lon="7.04747">
        <ele>821.8</ele>
        <time>2021-08-05T15:33:44Z</time>
      </trkpt>
      <trkpt lat="48.04655" lon="7.04748">
        <ele>821.9</ele>
        <time>2021-08-05T15:33:45Z</time>
      </trkpt>
      <trkpt lat="48.04655" lon="7.04749">
        <ele>821.9</ele>
        <time>2021-08-05T15:33:47Z</time>
      </trkpt>
      <trkpt lat="48.04655" lon="7.0475">
        <ele>822</ele>
        <time>2021-08-05T15:33:48Z</time>
      </trkpt>
      <trkpt lat="48.04655" lon="7.04752">
        <ele>822.1</ele>
        <time>2021-08-05T15:33:50Z</time>
      </trkpt>
      <trkpt lat="48.0467" lon="7.04823">
        <ele>825.9</ele>
        <time>2021-08-05T15:34:35Z</time>
      </trkpt>
      <trkpt lat="48.04669" lon="7.04829">
        <ele>826.2</ele>
        <time>2021-08-05T15:34:36Z</time>
      </trkpt>
      <trkpt lat="48.04669" lon="7.04833">
        <ele>826.4</ele>
        <time>2021-08-05T15:34:37Z</time>
      </trkpt>
      <trkpt lat="48.04669" lon="7.04834">
        <ele>826.4</ele>
        <time>2021-08-05T15:34:38Z</time>
      </trkpt>
      <trkpt lat="48.04669" lon="7.0484">
        <ele>826.7</ele>
        <time>2021-08-05T15:34:40Z</time>
      </trkpt>
      <trkpt lat="48.04669" lon="7.04845">
        <ele>827</ele>
        <time>2021-08-05T15:34:41Z</time>
      </trkpt>
      <trkpt lat="48.04669" lon="7.0485">
        <ele>827.2</ele>
        <time>2021-08-05T15:34:42Z</time>
      </trkpt>
      <trkpt lat="48.04669" lon="7.04855">
        <ele>827.4</ele>
        <time>2021-08-05T15:34:43Z</time>
      </trkpt>
      <trkpt lat="48.04669" lon="7.0486">
        <ele>827.7</ele>
        <time>2021-08-05T15:34:45Z</time>
      </trkpt>
      <trkpt lat="48.04669" lon="7.04865">
        <ele>827.9</ele>
        <time>2021-08-05T15:34:46Z</time>
      </trkpt>
      <trkpt lat="48.04669" lon="7.0487">
        <ele>828.2</ele>
        <time>2021-08-05T15:34:47Z</time>
      </trkpt>
      <trkpt lat="48.04669" lon="7.04874">
        <ele>828.4</ele>
        <time>2021-08-05T15:35:17Z</time>
      </trkpt>
      <trkpt lat="48.04669" lon="7.04879">
        <ele>828.7</ele>
        <time>2021-08-05T15:35:18Z</time>
      </trkpt>
      <trkpt lat="48.04669" lon="7.04884">
        <ele>828.9</ele>
        <time>2021-08-05T15:35:19Z</time>
      </trkpt>
      <trkpt lat="48.04669" lon="7.04886">
        <ele>829</ele>
        <time>2021-08-05T15:35:20Z</time>
      </trkpt>
      <trkpt lat="48.04669" lon="7.04888">
        <ele>829.1</ele>
        <time>2021-08-05T15:35:21Z</time>
      </trkpt>
      <trkpt lat="48.04669" lon="7.04891">
        <ele>829.2</ele>
        <time>2021-08-05T15:35:23Z</time>
      </trkpt>
      <trkpt lat="48.0467" lon="7.04894">
        <ele>829.4</ele>
        <time>2021-08-05T15:35:24Z</time>
      </trkpt>
      <trkpt lat="48.04671" lon="7.04895">
        <ele>829.5</ele>
        <time>2021-08-05T15:35:26Z</time>
      </trkpt>
      <trkpt lat="48.04671" lon="7.04896">
        <ele>829.5</ele>
        <time>2021-08-05T15:35:27Z</time>
      </trkpt>
      <trkpt lat="48.04671" lon="7.04899">
        <ele>829.7</ele>
        <time>2021-08-05T15:35:29Z</time>
      </trkpt>
      <trkpt lat="48.04671" lon="7.049">
        <ele>829.8</ele>
        <time>2021-08-05T15:35:30Z</time>
      </trkpt>
      <trkpt lat="48.0467" lon="7.04902">
        <ele>829.8</ele>
        <time>2021-08-05T15:35:31Z</time>
      </trkpt>
      <trkpt lat="48.0467" lon="7.04904">
        <ele>829.9</ele>
        <time>2021-08-05T15:35:32Z</time>
      </trkpt>
      <trkpt lat="48.04668" lon="7.04907">
        <ele>830.2</ele>
        <time>2021-08-05T15:35:34Z</time>
      </trkpt>
      <trkpt lat="48.04653" lon="7.04934">
        <ele>832.1</ele>
        <time>2021-08-05T15:36:09Z</time>
      </trkpt>
      <trkpt lat="48.0465" lon="7.04939">
        <ele>832.4</ele>
        <time>2021-08-05T15:36:11Z</time>
      </trkpt>
      <trkpt lat="48.04649" lon="7.04941">
        <ele>832.5</ele>
        <time>2021-08-05T15:36:12Z</time>
      </trkpt>
      <trkpt lat="48.04648" lon="7.04941">
        <ele>832.6</ele>
        <time>2021-08-05T15:36:13Z</time>
      </trkpt>
      <trkpt lat="48.04647" lon="7.04942">
        <ele>832.6</ele>
        <time>2021-08-05T15:36:14Z</time>
      </trkpt>
      <trkpt lat="48.04645" lon="7.04942">
        <ele>832.8</ele>
        <time>2021-08-05T15:36:15Z</time>
      </trkpt>
      <trkpt lat="48.04643" lon="7.04942">
        <ele>832.9</ele>
        <time>2021-08-05T15:36:17Z</time>
      </trkpt>
      <trkpt lat="48.04639" lon="7.04943">
        <ele>833.1</ele>
        <time>2021-08-05T15:36:19Z</time>
      </trkpt>
      <trkpt lat="48.04636" lon="7.04944">
        <ele>833.3</ele>
        <time>2021-08-05T15:36:20Z</time>
      </trkpt>
      <trkpt lat="48.04632" lon="7.04947">
        <ele>833.5</ele>
        <time>2021-08-05T15:36:22Z</time>
      </trkpt>
      <trkpt lat="48.04628" lon="7.0495">
        <ele>833.8</ele>
        <time>2021-08-05T15:36:24Z</time>
      </trkpt>
      <trkpt lat="48.04627" lon="7.04954">
        <ele>833.9</ele>
        <time>2021-08-05T15:36:25Z</time>
      </trkpt>
      <trkpt lat="48.04627" lon="7.04955">
        <ele>834</ele>
        <time>2021-08-05T15:36:26Z</time>
      </trkpt>
      <trkpt lat="48.04626" lon="7.04958">
        <ele>834.1</ele>
        <time>2021-08-05T15:36:27Z</time>
      </trkpt>
      <trkpt lat="48.04626" lon="7.04959">
        <ele>834.2</ele>
        <time>2021-08-05T15:36:29Z</time>
      </trkpt>
      <trkpt lat="48.04626" lon="7.04961">
        <ele>834.2</ele>
        <time>2021-08-05T15:36:30Z</time>
      </trkpt>
      <trkpt lat="48.04629" lon="7.04967">
        <ele>834.5</ele>
        <time>2021-08-05T15:36:32Z</time>
      </trkpt>
      <trkpt lat="48.04631" lon="7.0497">
        <ele>834.7</ele>
        <time>2021-08-05T15:36:33Z</time>
      </trkpt>
      <trkpt lat="48.04632" lon="7.04971">
        <ele>834.7</ele>
        <time>2021-08-05T15:36:34Z</time>
      </trkpt>
      <trkpt lat="48.04632" lon="7.04972">
        <ele>834.7</ele>
        <time>2021-08-05T15:36:35Z</time>
      </trkpt>
      <trkpt lat="48.04633" lon="7.04973">
        <ele>834.8</ele>
        <time>2021-08-05T15:36:36Z</time>
      </trkpt>
      <trkpt lat="48.04633" lon="7.04973">
        <ele>834.8</ele>
        <time>2021-08-05T15:36:38Z</time>
      </trkpt>
      <trkpt lat="48.04633" lon="7.04974">
        <ele>834.8</ele>
        <time>2021-08-05T15:36:39Z</time>
      </trkpt>
      <trkpt lat="48.04556" lon="7.0497">
        <ele>839.1</ele>
        <time>2021-08-05T15:37:58Z</time>
      </trkpt>
      <trkpt lat="48.04554" lon="7.0497">
        <ele>839.2</ele>
        <time>2021-08-05T15:38:00Z</time>
      </trkpt>
      <trkpt lat="48.04552" lon="7.04971">
        <ele>839.3</ele>
        <time>2021-08-05T15:38:01Z</time>
      </trkpt>
      <trkpt lat="48.04549" lon="7.04972">
        <ele>839.5</ele>
        <time>2021-08-05T15:38:02Z</time>
      </trkpt>
      <trkpt lat="48.04547" lon="7.04972">
        <ele>839.7</ele>
        <time>2021-08-05T15:38:03Z</time>
      </trkpt>
      <trkpt lat="48.04544" lon="7.04974">
        <ele>839.9</ele>
        <time>2021-08-05T15:38:05Z</time>
      </trkpt>
      <trkpt lat="48.04541" lon="7.04975">
        <ele>840.1</ele>
        <time>2021-08-05T15:38:06Z</time>
      </trkpt>
      <trkpt lat="48.04539" lon="7.04975">
        <ele>840.2</ele>
        <time>2021-08-05T15:38:07Z</time>
      </trkpt>
      <trkpt lat="48.04538" lon="7.04976">
        <ele>840.3</ele>
        <time>2021-08-05T15:38:08Z</time>
      </trkpt>
      <trkpt lat="48.04537" lon="7.04976">
        <ele>840.3</ele>
        <time>2021-08-05T15:38:09Z</time>
      </trkpt>
      <trkpt lat="48.04536" lon="7.04976">
        <ele>840.4</ele>
        <time>2021-08-05T15:38:11Z</time>
      </trkpt>
      <trkpt lat="48.04536" lon="7.04976">
        <ele>840.4</ele>
        <time>2021-08-05T15:38:12Z</time>
      </trkpt>
      <trkpt lat="48.04535" lon="7.04977">
        <ele>840.4</ele>
        <time>2021-08-05T15:38:14Z</time>
      </trkpt>
      <trkpt lat="48.04535" lon="7.04977">
        <ele>840.4</ele>
        <time>2021-08-05T15:38:15Z</time>
      </trkpt>
      <trkpt lat="48.04535" lon="7.04977">
        <ele>840.4</ele>
        <time>2021-08-05T15:38:16Z</time>
      </trkpt>
      <trkpt lat="48.04535" lon="7.04977">
        <ele>840.4</ele>
        <time>2021-08-05T15:38:18Z</time>
      </trkpt>
      <trkpt lat="48.04535" lon="7.04977">
        <ele>840.5</ele>
        <time>2021-08-05T15:38:19Z</time>
      </trkpt>
      <trkpt lat="48.04535" lon="7.04977">
        <ele>840.5</ele>
        <time>2021-08-05T15:38:20Z</time>
      </trkpt>
      <trkpt lat="48.04535" lon="7.04977">
        <ele>840.5</ele>
        <time>2021-08-05T15:38:21Z</time>
      </trkpt>
      <trkpt lat="48.04535" lon="7.04977">
        <ele>840.5</ele>
        <time>2021-08-05T15:38:23Z</time>
      </trkpt>
      <trkpt lat="48.04535" lon="7.04977">
        <ele>840.5</ele>
        <time>2021-08-05T15:38:24Z</time>
      </trkpt>
      <trkpt lat="48.04535" lon="7.04977">
        <ele>840.5</ele>
        <time>2021-08-05T15:38:26Z</time>
      </trkpt>
      <trkpt lat="48.04465" lon="7.05027">
        <ele>845.9</ele>
        <time>2021-08-05T15:39:16Z</time>
      </trkpt>
      <trkpt lat="48.04466" lon="7.05032">
        <ele>846.2</ele>
        <time>2021-08-05T15:39:17Z</time>
      </trkpt>
      <trkpt lat="48.04466" lon="7.05033">
        <ele>846.2</ele>
        <time>2021-08-05T15:39:18Z</time>
      </trkpt>
      <trkpt lat="48.04466" lon="7.05035">
        <ele>846.3</ele>
        <time>2021-08-05T15:39:19Z</time>
      </trkpt>
      <trkpt lat="48.04467" lon="7.05035">
        <ele>846.3</ele>
        <time>2021-08-05T15:39:21Z</time>
      </trkpt>
      <trkpt lat="48.04466" lon="7.05036">
        <ele>846.4</ele>
        <time>2021-08-05T15:39:22Z</time>
      </trkpt>
      <trkpt lat="48.04466" lon="7.05036">
        <ele>846.4</ele>
        <time>2021-08-05T15:39:23Z</time>
      </trkpt>
      <trkpt lat="48.04466" lon="7.05036">
        <ele>846.4</ele>
        <time>2021-08-05T15:39:24Z</time>
      </trkpt>
      <trkpt lat="48.04466" lon="7.05036">
        <ele>846.4</ele>
        <time>2021-08-05T15:39:25Z</time>
      </trkpt>
      <trkpt lat="48.04465" lon="7.05036">
        <ele>846.5</ele>
        <time>2021-08-05T15:39:27Z</time>
      </trkpt>
      <trkpt lat="48.04465" lon="7.05036">
        <ele>846.5</ele>
        <time>2021-08-05T15:39:28Z</time>
      </trkpt>
      <trkpt lat="48.04398" lon="7.05019">
        <ele>853.6</ele>
        <time>2021-08-05T15:40:45Z</time>
      </trkpt>
      <trkpt lat="48.04398" lon="7.05016">
        <ele>853.8</ele>
        <time>2021-08-05T15:40:46Z</time>
      </trkpt>
      <trkpt lat="48.04397" lon="7.05015">
        <ele>854</ele>
        <time>2021-08-05T15:40:47Z</time>
      </trkpt>
      <trkpt lat="48.04395" lon="7.05012">
        <ele>854.3</ele>
        <time>2021-08-05T15:40:48Z</time>
      </trkpt>
      <trkpt lat="48.04391" lon="7.05011">
        <ele>854.8</ele>
        <time>2021-08-05T15:40:50Z</time>
      </trkpt>
      <trkpt lat="48.0439" lon="7.0501">
        <ele>855</ele>
        <time>2021-08-05T15:40:51Z</time>
      </trkpt>
      <trkpt lat="48.04389" lon="7.05009">
        <ele>855.1</ele>
        <time>2021-08-05T15:40:52Z</time>
      </trkpt>
      <trkpt lat="48.04388" lon="7.05007">
        <ele>855.3</ele>
        <time>2021-08-05T15:40:54Z</time>
      </trkpt>
      <trkpt lat="48.04388" lon="7.05006">
        <ele>855.4</ele>
        <time>2021-08-05T15:40:55Z</time>
      </trkpt>
      <trkpt lat="48.04389" lon="7.05004">
        <ele>855.6</ele>
        <time>2021-08-05T15:40:57Z</time>
      </trkpt>
      <trkpt lat="48.04389" lon="7.05004">
        <ele>855.6</ele>
        <time>2021-08-05T15:40:58Z</time>
      </trkpt>
      <trkpt lat="48.04388" lon="7.05005">
        <ele>855.8</ele>
        <time>2021-08-05T15:40:59Z</time>
      </trkpt>
      <trkpt lat="48.04388" lon="7.05006">
        <ele>855.8</ele>
        <time>2021-08-05T15:41:01Z</time>
      </trkpt>
      <trkpt lat="48.04388" lon="7.05006">
        <ele>855.8</ele>
        <time>2021-08-05T15:41:02Z</time>
      </trkpt>
      <trkpt lat="48.04389" lon="7.05006">
        <ele>855.9</ele>
        <time>2021-08-05T15:41:04Z</time>
      </trkpt>
      <trkpt lat="48.04389" lon="7.05006">
        <ele>855.9</ele>
        <time>2021-08-05T15:41:05Z</time>
      </trkpt>
      <trkpt lat="48.04278" lon="7.04884">
        <ele>874</ele>
        <time>2021-08-05T15:44:22Z</time>
      </trkpt>
      <trkpt lat="48.04277" lon="7.0488">
        <ele>874.4</ele>
        <time>2021-08-05T15:44:23Z</time>
      </trkpt>
      <trkpt lat="48.04274" lon="7.04875">
        <ele>875</ele>
        <time>2021-08-05T15:44:24Z</time>
      </trkpt>
      <trkpt lat="48.04274" lon="7.04872">
        <ele>875.3</ele>
        <time>2021-08-05T15:44:26Z</time>
      </trkpt>
      <trkpt lat="48.04273" lon="7.0487">
        <ele>875.5</ele>
        <time>2021-08-05T15:44:27Z</time>
      </trkpt>
      <trkpt lat="48.04273" lon="7.0487">
        <ele>875.5</ele>
        <time>2021-08-05T15:44:28Z</time>
      </trkpt>
      <trkpt lat="48.04273" lon="7.0487">
        <ele>875.6</ele>
        <time>2021-08-05T15:44:30Z</time>
      </trkpt>
      <trkpt lat="48.04273" lon="7.04869">
        <ele>875.6</ele>
        <time>2021-08-05T15:44:31Z</time>
      </trkpt>
      <trkpt lat="48.04273" lon="7.04869">
        <ele>875.6</ele>
        <time>2021-08-05T15:44:32Z</time>
      </trkpt>
      <trkpt lat="48.04273" lon="7.04869">
        <ele>875.6</ele>
        <time>2021-08-05T15:44:33Z</time>
      </trkpt>
      <trkpt lat="48.04184" lon="7.04925">
        <ele>892.4</ele>
        <time>2021-08-05T15:49:26Z</time>
      </trkpt>
      <trkpt lat="48.04198" lon="7.04928">
        <ele>890.9</ele>
        <time>2021-08-05T15:49:28Z</time>
      </trkpt>
      <trkpt lat="48.042" lon="7.04928">
        <ele>890.6</ele>
        <time>2021-08-05T15:49:29Z</time>
      </trkpt>
      <trkpt lat="48.04202" lon="7.04928">
        <ele>890.4</ele>
        <time>2021-08-05T15:49:31Z</time>
      </trkpt>
      <trkpt lat="48.04202" lon="7.04928">
        <ele>890.4</ele>
        <time>2021-08-05T15:49:32Z</time>
      </trkpt>
      <trkpt lat="48.04202" lon="7.04928">
        <ele>890.4</ele>
        <time>2021-08-05T15:49:33Z</time>
      </trkpt>
      <trkpt lat="48.04202" lon="7.04929">
        <ele>890.4</ele>
        <time>2021-08-05T15:49:34Z</time>
      </trkpt>
      <trkpt lat="48.04202" lon="7.04929">
        <ele>890.4</ele>
        <time>2021-08-05T15:49:35Z</time>
      </trkpt>
      <trkpt lat="48.04202" lon="7.04929">
        <ele>890.4</ele>
        <time>2021-08-05T15:49:36Z</time>
      </trkpt>
      <trkpt lat="48.04202" lon="7.04929">
        <ele>890.4</ele>
        <time>2021-08-05T15:49:38Z</time>
      </trkpt>
      <trkpt lat="48.04203" lon="7.04928">
        <ele>890.2</ele>
        <time>2021-08-05T15:49:40Z</time>
      </trkpt>
      <trkpt lat="48.04205" lon="7.04926">
        <ele>890</ele>
        <time>2021-08-05T15:49:42Z</time>
      </trkpt>
      <trkpt lat="48.04212" lon="7.04917">
        <ele>888.9</ele>
        <time>2021-08-05T15:49:44Z</time>
      </trkpt>
      <trkpt lat="48.04224" lon="7.04902">
        <ele>887.3</ele>
        <time>2021-08-05T15:49:46Z</time>
      </trkpt>
      <trkpt lat="48.04231" lon="7.04891">
        <ele>886.2</ele>
        <time>2021-08-05T15:49:48Z</time>
      </trkpt>
      <trkpt lat="48.04248" lon="7.04874">
        <ele>878.8</ele>
        <time>2021-08-05T15:49:50Z</time>
      </trkpt>
      <trkpt lat="48.04252" lon="7.0487">
        <ele>879.3</ele>
        <time>2021-08-05T15:49:52Z</time>
      </trkpt>
      <trkpt lat="48.04251" lon="7.04869">
        <ele>879.4</ele>
        <time>2021-08-05T15:49:54Z</time>
      </trkpt>
      <trkpt lat="48.04251" lon="7.04868">
        <ele>879.5</ele>
        <time>2021-08-05T15:49:55Z</time>
      </trkpt>
      <trkpt lat="48.04251" lon="7.04866">
        <ele>879.7</ele>
        <time>2021-08-05T15:49:57Z</time>
      </trkpt>
      <trkpt lat="48.04249" lon="7.04867">
        <ele>879.9</ele>
        <time>2021-08-05T15:49:59Z</time>
      </trkpt>
      <trkpt lat="48.04247" lon="7.04868">
        <ele>880.1</ele>
        <time>2021-08-05T15:50:00Z</time>
      </trkpt>
      <trkpt lat="48.03815" lon="7.04568">
        <ele>939.9</ele>
        <time>2021-08-05T16:06:59Z</time>
      </trkpt>
      <trkpt lat="48.03811" lon="7.04574">
        <ele>940</ele>
        <time>2021-08-05T16:07:00Z</time>
      </trkpt>
      <trkpt lat="48.03808" lon="7.04579">
        <ele>940</ele>
        <time>2021-08-05T16:07:01Z</time>
      </trkpt>
      <trkpt lat="48.03807" lon="7.04584">
        <ele>940.1</ele>
        <time>2021-08-05T16:07:02Z</time>
      </trkpt>
      <trkpt lat="48.03805" lon="7.04588">
        <ele>940.1</ele>
        <time>2021-08-05T16:07:03Z</time>
      </trkpt>
      <trkpt lat="48.03804" lon="7.04592">
        <ele>940.1</ele>
        <time>2021-08-05T16:07:04Z</time>
      </trkpt>
      <trkpt lat="48.03803" lon="7.04596">
        <ele>940.1</ele>
        <time>2021-08-05T16:07:06Z</time>
      </trkpt>
      <trkpt lat="48.03803" lon="7.046">
        <ele>940.1</ele>
        <time>2021-08-05T16:07:07Z</time>
      </trkpt>
      <trkpt lat="48.03802" lon="7.04605">
        <ele>940.1</ele>
        <time>2021-08-05T16:07:08Z</time>
      </trkpt>
      <trkpt lat="48.03802" lon="7.04607">
        <ele>940.1</ele>
        <time>2021-08-05T16:07:09Z</time>
      </trkpt>
      <trkpt lat="48.03801" lon="7.04614">
        <ele>940.2</ele>
        <time>2021-08-05T16:07:11Z</time>
      </trkpt>
      <trkpt lat="48.03802" lon="7.0462">
        <ele>940.2</ele>
        <time>2021-08-05T16:07:12Z</time>
      </trkpt>
      <trkpt lat="48.03802" lon="7.04622">
        <ele>940.3</ele>
        <time>2021-08-05T16:07:13Z</time>
      </trkpt>
      <trkpt lat="48.03802" lon="7.04626">
        <ele>940.3</ele>
        <time>2021-08-05T16:07:14Z</time>
      </trkpt>
      <trkpt lat="48.03802" lon="7.04628">
        <ele>940.3</ele>
        <time>2021-08-05T16:07:15Z</time>
      </trkpt>
      <trkpt lat="48.03803" lon="7.0463">
        <ele>940.3</ele>
        <time>2021-08-05T16:07:16Z</time>
      </trkpt>
      <trkpt lat="48.03804" lon="7.04631">
        <ele>940.3</ele>
        <time>2021-08-05T16:07:17Z</time>
      </trkpt>
      <trkpt lat="48.03804" lon="7.04634">
        <ele>940.3</ele>
        <time>2021-08-05T16:07:19Z</time>
      </trkpt>
      <trkpt lat="48.03805" lon="7.04637">
        <ele>940.3</ele>
        <time>2021-08-05T16:07:20Z</time>
      </trkpt>
      <trkpt lat="48.03805" lon="7.04638">
        <ele>940.3</ele>
        <time>2021-08-05T16:07:21Z</time>
      </trkpt>
      <trkpt lat="48.03806" lon="7.04638">
        <ele>940.3</ele>
        <time>2021-08-05T16:07:22Z</time>
      </trkpt>
      <trkpt lat="48.03807" lon="7.04643">
        <ele>940.3</ele>
        <time>2021-08-05T16:07:23Z</time>
      </trkpt>
      <trkpt lat="48.03808" lon="7.04647">
        <ele>940.3</ele>
        <time>2021-08-05T16:07:24Z</time>
      </trkpt>
      <trkpt lat="48.03808" lon="7.04652">
        <ele>940.3</ele>
        <time>2021-08-05T16:07:25Z</time>
      </trkpt>
      <trkpt lat="48.03806" lon="7.0466">
        <ele>940.3</ele>
        <time>2021-08-05T16:07:27Z</time>
      </trkpt>
      <trkpt lat="48.03807" lon="7.04666">
        <ele>940.2</ele>
        <time>2021-08-05T16:07:28Z</time>
      </trkpt>
      <trkpt lat="48.03808" lon="7.04671">
        <ele>940.2</ele>
        <time>2021-08-05T16:07:30Z</time>
      </trkpt>
      <trkpt lat="48.03809" lon="7.04676">
        <ele>940.2</ele>
        <time>2021-08-05T16:07:31Z</time>
      </trkpt>
      <trkpt lat="48.03809" lon="7.04681">
        <ele>940.1</ele>
        <time>2021-08-05T16:07:32Z</time>
      </trkpt>
      <trkpt lat="48.0381" lon="7.0469">
        <ele>940</ele>
        <time>2021-08-05T16:07:34Z</time>
      </trkpt>
      <trkpt lat="48.03809" lon="7.04696">
        <ele>940</ele>
        <time>2021-08-05T16:07:35Z</time>
      </trkpt>
      <trkpt lat="48.03808" lon="7.047">
        <ele>939.9</ele>
        <time>2021-08-05T16:07:36Z</time>
      </trkpt>
      <trkpt lat="48.03807" lon="7.04704">
        <ele>939.9</ele>
        <time>2021-08-05T16:07:38Z</time>
      </trkpt>
      <trkpt lat="48.03806" lon="7.0471">
        <ele>939.8</ele>
        <time>2021-08-05T16:07:39Z</time>
      </trkpt>
      <trkpt lat="48.03806" lon="7.04715">
        <ele>939.8</ele>
        <time>2021-08-05T16:07:41Z</time>
      </trkpt>
      <trkpt lat="48.03805" lon="7.04717">
        <ele>939.8</ele>
        <time>2021-08-05T16:07:42Z</time>
      </trkpt>
      <trkpt lat="48.03805" lon="7.0472">
        <ele>939.7</ele>
        <time>2021-08-05T16:07:43Z</time>
      </trkpt>
      <trkpt lat="48.03807" lon="7.04723">
        <ele>939.7</ele>
        <time>2021-08-05T16:07:45Z</time>
      </trkpt>
      <trkpt lat="48.03809" lon="7.04728">
        <ele>939.7</ele>
        <time>2021-08-05T16:07:46Z</time>
      </trkpt>
      <trkpt lat="48.0381" lon="7.0473">
        <ele>939.7</ele>
        <time>2021-08-05T16:07:47Z</time>
      </trkpt>
      <trkpt lat="48.03811" lon="7.04734">
        <ele>939.7</ele>
        <time>2021-08-05T16:07:48Z</time>
      </trkpt>
      <trkpt lat="48.0381" lon="7.04737">
        <ele>939.7</ele>
        <time>2021-08-05T16:07:50Z</time>
      </trkpt>
      <trkpt lat="48.0381" lon="7.04739">
        <ele>939.7</ele>
        <time>2021-08-05T16:07:51Z</time>
      </trkpt>
      <trkpt lat="48.0381" lon="7.04742">
        <ele>939.6</ele>
        <time>2021-08-05T16:07:52Z</time>
      </trkpt>
      <trkpt lat="48.0381" lon="7.04747">
        <ele>939.3</ele>
        <time>2021-08-05T16:07:53Z</time>
      </trkpt>
      <trkpt lat="48.03809" lon="7.04752">
        <ele>939.1</ele>
        <time>2021-08-05T16:07:54Z</time>
      </trkpt>
      <trkpt lat="48.03809" lon="7.04757">
        <ele>939</ele>
        <time>2021-08-05T16:07:55Z</time>
      </trkpt>
      <trkpt lat="48.03808" lon="7.04761">
        <ele>938.8</ele>
        <time>2021-08-05T16:07:57Z</time>
      </trkpt>
      <trkpt lat="48.03805" lon="7.04764">
        <ele>938.6</ele>
        <time>2021-08-05T16:07:58Z</time>
      </trkpt>
      <trkpt lat="48.03801" lon="7.04769">
        <ele>938.3</ele>
        <time>2021-08-05T16:08:00Z</time>
      </trkpt>
      <trkpt lat="48.038" lon="7.04773">
        <ele>938.2</ele>
        <time>2021-08-05T16:08:01Z</time>
      </trkpt>
      <trkpt lat="48.03799" lon="7.04775">
        <ele>938.1</ele>
        <time>2021-08-05T16:08:02Z</time>
      </trkpt>
      <trkpt lat="48.03799" lon="7.04777">
        <ele>938.1</ele>
        <time>2021-08-05T16:08:03Z</time>
      </trkpt>
      <trkpt lat="48.03799" lon="7.04779">
        <ele>938</ele>
        <time>2021-08-05T16:08:04Z</time>
      </trkpt>
      <trkpt lat="48.03799" lon="7.04783">
        <ele>938</ele>
        <time>2021-08-05T16:08:06Z</time>
      </trkpt>
      <trkpt lat="48.03973" lon="7.05326">
        <ele>942</ele>
        <time>2021-08-05T16:10:28Z</time>
      </trkpt>
      <trkpt lat="48.03978" lon="7.05329">
        <ele>942.5</ele>
        <time>2021-08-05T16:10:29Z</time>
      </trkpt>
      <trkpt lat="48.0398" lon="7.05331">
        <ele>942.8</ele>
        <time>2021-08-05T16:10:30Z</time>
      </trkpt>
      <trkpt lat="48.03981" lon="7.05333">
        <ele>942.9</ele>
        <time>2021-08-05T16:10:32Z</time>
      </trkpt>
      <trkpt lat="48.03982" lon="7.05336">
        <ele>943.2</ele>
        <time>2021-08-05T16:10:34Z</time>
      </trkpt>
      <trkpt lat="48.03983" lon="7.05337">
        <ele>943.2</ele>
        <time>2021-08-05T16:10:35Z</time>
      </trkpt>
      <trkpt lat="48.03984" lon="7.05337">
        <ele>943.3</ele>
        <time>2021-08-05T16:10:37Z</time>
      </trkpt>
      <trkpt lat="48.03985" lon="7.05338">
        <ele>943.4</ele>
        <time>2021-08-05T16:10:38Z</time>
      </trkpt>
      <trkpt lat="48.03987" lon="7.05339">
        <ele>943.6</ele>
        <time>2021-08-05T16:10:39Z</time>
      </trkpt>
      <trkpt lat="48.03988" lon="7.0534">
        <ele>943.7</ele>
        <time>2021-08-05T16:10:40Z</time>
      </trkpt>
      <trkpt lat="48.03989" lon="7.05341">
        <ele>943.8</ele>
        <time>2021-08-05T16:10:42Z</time>
      </trkpt>
      <trkpt lat="48.04" lon="7.05421">
        <ele>947</ele>
        <time>2021-08-05T16:11:37Z</time>
      </trkpt>
      <trkpt lat="48.04001" lon="7.05426">
        <ele>947</ele>
        <time>2021-08-05T16:11:39Z</time>
      </trkpt>
      <trkpt lat="48.04002" lon="7.05434">
        <ele>947.1</ele>
        <time>2021-08-05T16:11:41Z</time>
      </trkpt>
      <trkpt lat="48.04002" lon="7.05439">
        <ele>947.2</ele>
        <time>2021-08-05T16:11:42Z</time>
      </trkpt>
      <trkpt lat="48.04002" lon="7.05443">
        <ele>947.2</ele>
        <time>2021-08-05T16:11:43Z</time>
      </trkpt>
      <trkpt lat="48.04002" lon="7.05445">
        <ele>947.2</ele>
        <time>2021-08-05T16:11:44Z</time>
      </trkpt>
      <trkpt lat="48.04002" lon="7.05449">
        <ele>947.2</ele>
        <time>2021-08-05T16:11:45Z</time>
      </trkpt>
      <trkpt lat="48.04002" lon="7.05451">
        <ele>947.2</ele>
        <time>2021-08-05T16:11:46Z</time>
      </trkpt>
      <trkpt lat="48.04002" lon="7.05454">
        <ele>947.3</ele>
        <time>2021-08-05T16:11:48Z</time>
      </trkpt>
      <trkpt lat="48.04002" lon="7.05458">
        <ele>947.3</ele>
        <time>2021-08-05T16:11:50Z</time>
      </trkpt>
      <trkpt lat="48.04003" lon="7.05465">
        <ele>947.3</ele>
        <time>2021-08-05T16:11:51Z</time>
      </trkpt>
      <trkpt lat="48.04004" lon="7.05471">
        <ele>947.3</ele>
        <time>2021-08-05T16:11:52Z</time>
      </trkpt>
      <trkpt lat="48.04006" lon="7.05487">
        <ele>947.4</ele>
        <time>2021-08-05T16:11:54Z</time>
      </trkpt>
      <trkpt lat="48.04007" lon="7.05493">
        <ele>947.5</ele>
        <time>2021-08-05T16:11:55Z</time>
      </trkpt>
      <trkpt lat="48.04008" lon="7.05497">
        <ele>947.5</ele>
        <time>2021-08-05T16:11:56Z</time>
      </trkpt>
      <trkpt lat="48.04009" lon="7.05502">
        <ele>947.5</ele>
        <time>2021-08-05T16:11:57Z</time>
      </trkpt>
      <trkpt lat="48.04009" lon="7.05507">
        <ele>947.6</ele>
        <time>2021-08-05T16:11:59Z</time>
      </trkpt>
      <trkpt lat="48.04009" lon="7.05509">
        <ele>947.6</ele>
        <time>2021-08-05T16:12:00Z</time>
      </trkpt>
      <trkpt lat="48.04008" lon="7.05513">
        <ele>947.6</ele>
        <time>2021-08-05T16:12:02Z</time>
      </trkpt>
      <trkpt lat="48.04007" lon="7.05514">
        <ele>947.6</ele>
        <time>2021-08-05T16:12:03Z</time>
      </trkpt>
      <trkpt lat="48.04006" lon="7.05519">
        <ele>947.7</ele>
        <time>2021-08-05T16:12:04Z</time>
      </trkpt>
      <trkpt lat="48.04004" lon="7.05524">
        <ele>947.7</ele>
        <time>2021-08-05T16:12:05Z</time>
      </trkpt>
      <trkpt lat="48.04004" lon="7.05526">
        <ele>947.7</ele>
        <time>2021-08-05T16:12:06Z</time>
      </trkpt>
      <trkpt lat="48.04003" lon="7.05529">
        <ele>947.8</ele>
        <time>2021-08-05T16:12:08Z</time>
      </trkpt>
      <trkpt lat="48.04003" lon="7.05531">
        <ele>947.8</ele>
        <time>2021-08-05T16:12:09Z</time>
      </trkpt>
      <trkpt lat="48.04004" lon="7.05543">
        <ele>948</ele>
        <time>2021-08-05T16:12:10Z</time>
      </trkpt>
      <trkpt lat="48.04006" lon="7.05548">
        <ele>948.1</ele>
        <time>2021-08-05T16:12:11Z</time>
      </trkpt>
      <trkpt lat="48.04008" lon="7.05551">
        <ele>948.2</ele>
        <time>2021-08-05T16:12:12Z</time>
      </trkpt>
      <trkpt lat="48.04013" lon="7.05554">
        <ele>949.6</ele>
        <time>2021-08-05T16:12:14Z</time>
      </trkpt>
      <trkpt lat="48.04016" lon="7.05556">
        <ele>949.6</ele>
        <time>2021-08-05T16:12:15Z</time>
      </trkpt>
      <trkpt lat="48.04016" lon="7.05555">
        <ele>949.6</ele>
        <time>2021-08-05T16:12:17Z</time>
      </trkpt>
      <trkpt lat="48.04015" lon="7.05553">
        <ele>949.6</ele>
        <time>2021-08-05T16:12:18Z</time>
      </trkpt>
      <trkpt lat="48.04014" lon="7.05551">
        <ele>949.6</ele>
        <time>2021-08-05T16:12:20Z</time>
      </trkpt>
      <trkpt lat="48.04013" lon="7.05549">
        <ele>949.6</ele>
        <time>2021-08-05T16:12:21Z</time>
      </trkpt>
      <trkpt lat="48.04012" lon="7.05547">
        <ele>949.6</ele>
        <time>2021-08-05T16:12:23Z</time>
      </trkpt>
      <trkpt lat="48.0401" lon="7.05545">
        <ele>949.6</ele>
        <time>2021-08-05T16:12:55Z</time>
      </trkpt>
      <trkpt lat="48.04009" lon="7.05543">
        <ele>949.6</ele>
        <time>2021-08-05T16:12:56Z</time>
      </trkpt>
      <trkpt lat="48.04008" lon="7.05541">
        <ele>949.6</ele>
        <time>2021-08-05T16:12:58Z</time>
      </trkpt>
      <trkpt lat="48.04007" lon="7.05539">
        <ele>951.8</ele>
        <time>2021-08-05T16:12:59Z</time>
      </trkpt>
      <trkpt lat="48.04004" lon="7.05537">
        <ele>952</ele>
        <time>2021-08-05T16:13:01Z</time>
      </trkpt>
      <trkpt lat="48.04001" lon="7.05534">
        <ele>952.3</ele>
        <time>2021-08-05T16:13:02Z</time>
      </trkpt>
      <trkpt lat="48.04" lon="7.05534">
        <ele>952.3</ele>
        <time>2021-08-05T16:13:03Z</time>
      </trkpt>
      <trkpt lat="48.03998" lon="7.05533">
        <ele>952.5</ele>
        <time>2021-08-05T16:13:04Z</time>
      </trkpt>
      <trkpt lat="48.03996" lon="7.05533">
        <ele>952.7</ele>
        <time>2021-08-05T16:13:05Z</time>
      </trkpt>
      <trkpt lat="48.03995" lon="7.05533">
        <ele>952.7</ele>
        <time>2021-08-05T16:13:06Z</time>
      </trkpt>
      <trkpt lat="48.03994" lon="7.05531">
        <ele>952.8</ele>
        <time>2021-08-05T16:13:08Z</time>
      </trkpt>
      <trkpt lat="48.03993" lon="7.05529">
        <ele>953</ele>
        <time>2021-08-05T16:13:10Z</time>
      </trkpt>
      <trkpt lat="48.03993" lon="7.05528">
        <ele>953</ele>
        <time>2021-08-05T16:13:11Z</time>
      </trkpt>
      <trkpt lat="48.03992" lon="7.05528">
        <ele>953.1</ele>
        <time>2021-08-05T16:13:12Z</time>
      </trkpt>
      <trkpt lat="48.03992" lon="7.05527">
        <ele>953.1</ele>
        <time>2021-08-05T16:13:13Z</time>
      </trkpt>
      <trkpt lat="48.03992" lon="7.05527">
        <ele>953.1</ele>
        <time>2021-08-05T16:13:14Z</time>
      </trkpt>
      <trkpt lat="48.03991" lon="7.05526">
        <ele>953.2</ele>
        <time>2021-08-05T16:13:16Z</time>
      </trkpt>
      <trkpt lat="48.0399" lon="7.05525">
        <ele>953.3</ele>
        <time>2021-08-05T16:13:17Z</time>
      </trkpt>
      <trkpt lat="48.03989" lon="7.05524">
        <ele>953.4</ele>
        <time>2021-08-05T16:13:18Z</time>
      </trkpt>
      <trkpt lat="48.03986" lon="7.05523">
        <ele>953.6</ele>
        <time>2021-08-05T16:13:20Z</time>
      </trkpt>
      <trkpt lat="48.03985" lon="7.05522">
        <ele>953.7</ele>
        <time>2021-08-05T16:13:21Z</time>
      </trkpt>
      <trkpt lat="48.03962" lon="7.05408">
        <ele>959.1</ele>
        <time>2021-08-05T16:14:32Z</time>
      </trkpt>
      <trkpt lat="48.03962" lon="7.05401">
        <ele>959.2</ele>
        <time>2021-08-05T16:14:33Z</time>
      </trkpt>
      <trkpt lat="48.03961" lon="7.05398">
        <ele>959.3</ele>
        <time>2021-08-05T16:14:34Z</time>
      </trkpt>
      <trkpt lat="48.03961" lon="7.05394">
        <ele>959.4</ele>
        <time>2021-08-05T16:14:36Z</time>
      </trkpt>
      <trkpt lat="48.03961" lon="7.05387">
        <ele>959.6</ele>
        <time>2021-08-05T16:14:37Z</time>
      </trkpt>
      <trkpt lat="48.0396" lon="7.05383">
        <ele>959.7</ele>
        <time>2021-08-05T16:14:39Z</time>
      </trkpt>
      <trkpt lat="48.0396" lon="7.05379">
        <ele>959.8</ele>
        <time>2021-08-05T16:14:41Z</time>
      </trkpt>
      <trkpt lat="48.03959" lon="7.05375">
        <ele>959.9</ele>
        <time>2021-08-05T16:14:42Z</time>
      </trkpt>
      <trkpt lat="48.03957" lon="7.0537">
        <ele>960.1</ele>
        <time>2021-08-05T16:14:44Z</time>
      </trkpt>
      <trkpt lat="48.03956" lon="7.05368">
        <ele>960.1</ele>
        <time>2021-08-05T16:14:45Z</time>
      </trkpt>
      <trkpt lat="48.03955" lon="7.05366">
        <ele>960.2</ele>
        <time>2021-08-05T16:14:46Z</time>
      </trkpt>
      <trkpt lat="48.03954" lon="7.05365">
        <ele>960.3</ele>
        <time>2021-08-05T16:14:47Z</time>
      </trkpt>
      <trkpt lat="48.03953" lon="7.05364">
        <ele>960.3</ele>
        <time>2021-08-05T16:14:48Z</time>
      </trkpt>
      <trkpt lat="48.03952" lon="7.05363">
        <ele>960.4</ele>
        <time>2021-08-05T16:14:50Z</time>
      </trkpt>
      <trkpt lat="48.03951" lon="7.05363">
        <ele>960.4</ele>
        <time>2021-08-05T16:14:51Z</time>
      </trkpt>
      <trkpt lat="48.0395" lon="7.05362">
        <ele>960.5</ele>
        <time>2021-08-05T16:14:53Z</time>
      </trkpt>
      <trkpt lat="48.03947" lon="7.05361">
        <ele>960.6</ele>
        <time>2021-08-05T16:14:55Z</time>
      </trkpt>
      <trkpt lat="48.03946" lon="7.05361">
        <ele>960.7</ele>
        <time>2021-08-05T16:14:56Z</time>
      </trkpt>
      <trkpt lat="48.03718" lon="7.05071">
        <ele>976.6</ele>
        <time>2021-08-05T16:18:43Z</time>
      </trkpt>
      <trkpt lat="48.03715" lon="7.05067">
        <ele>976.6</ele>
        <time>2021-08-05T16:18:45Z</time>
      </trkpt>
      <trkpt lat="48.03712" lon="7.05063">
        <ele>976.6</ele>
        <time>2021-08-05T16:18:46Z</time>
      </trkpt>
      <trkpt lat="48.0371" lon="7.05059">
        <ele>976.7</ele>
        <time>2021-08-05T16:18:47Z</time>
      </trkpt>
      <trkpt lat="48.03707" lon="7.05053">
        <ele>976.7</ele>
        <time>2021-08-05T16:18:49Z</time>
      </trkpt>
      <trkpt lat="48.03704" lon="7.05048">
        <ele>976.7</ele>
        <time>2021-08-05T16:18:50Z</time>
      </trkpt>
      <trkpt lat="48.03703" lon="7.05046">
        <ele>976.7</ele>
        <time>2021-08-05T16:18:51Z</time>
      </trkpt>
      <trkpt lat="48.03701" lon="7.05043">
        <ele>976.8</ele>
        <time>2021-08-05T16:18:52Z</time>
      </trkpt>
      <trkpt lat="48.03699" lon="7.05039">
        <ele>976.8</ele>
        <time>2021-08-05T16:18:54Z</time>
      </trkpt>
      <trkpt lat="48.03698" lon="7.05036">
        <ele>976.8</ele>
        <time>2021-08-05T16:18:55Z</time>
      </trkpt>
      <trkpt lat="48.03696" lon="7.05032">
        <ele>976.9</ele>
        <time>2021-08-05T16:18:57Z</time>
      </trkpt>
      <trkpt lat="48.03695" lon="7.05028">
        <ele>976.9</ele>
        <time>2021-08-05T16:18:58Z</time>
      </trkpt>
      <trkpt lat="48.03691" lon="7.0502">
        <ele>977</ele>
        <time>2021-08-05T16:19:00Z</time>
      </trkpt>
      <trkpt lat="48.03688" lon="7.0501">
        <ele>977.1</ele>
        <time>2021-08-05T16:19:02Z</time>
      </trkpt>
      <trkpt lat="48.03687" lon="7.05006">
        <ele>977.2</ele>
        <time>2021-08-05T16:19:03Z</time>
      </trkpt>
      <trkpt lat="48.03685" lon="7.05001">
        <ele>977.3</ele>
        <time>2021-08-05T16:19:04Z</time>
      </trkpt>
      <trkpt lat="48.03682" lon="7.04995">
        <ele>977.4</ele>
        <time>2021-08-05T16:19:06Z</time>
      </trkpt>
      <trkpt lat="48.03681" lon="7.04993">
        <ele>977.5</ele>
        <time>2021-08-05T16:19:07Z</time>
      </trkpt>
      <trkpt lat="48.0368" lon="7.04991">
        <ele>977.5</ele>
        <time>2021-08-05T16:19:08Z</time>
      </trkpt>
      <trkpt lat="48.03677" lon="7.04989">
        <ele>977.6</ele>
        <time>2021-08-05T16:19:10Z</time>
      </trkpt>
      <trkpt lat="48.03677" lon="7.04988">
        <ele>977.6</ele>
        <time>2021-08-05T16:19:11Z</time>
      </trkpt>
      <trkpt lat="48.03674" lon="7.04984">
        <ele>977.7</ele>
        <time>2021-08-05T16:19:12Z</time>
      </trkpt>
      <trkpt lat="48.03672" lon="7.04983">
        <ele>977.8</ele>
        <time>2021-08-05T16:19:13Z</time>
      </trkpt>
      <trkpt lat="48.03669" lon="7.0498">
        <ele>977.9</ele>
        <time>2021-08-05T16:19:15Z</time>
      </trkpt>
      <trkpt lat="48.03664" lon="7.0498">
        <ele>978</ele>
        <time>2021-08-05T16:19:17Z</time>
      </trkpt>
      <trkpt lat="48.03663" lon="7.0498">
        <ele>978.1</ele>
        <time>2021-08-05T16:19:18Z</time>
      </trkpt>
      <trkpt lat="48.03662" lon="7.0498">
        <ele>978.1</ele>
        <time>2021-08-05T16:19:19Z</time>
      </trkpt>
      <trkpt lat="48.03661" lon="7.04979">
        <ele>978.1</ele>
        <time>2021-08-05T16:19:20Z</time>
      </trkpt>
      <trkpt lat="48.03659" lon="7.04978">
        <ele>978.2</ele>
        <time>2021-08-05T16:19:21Z</time>
      </trkpt>
      <trkpt lat="48.03658" lon="7.04977">
        <ele>978.2</ele>
        <time>2021-08-05T16:19:23Z</time>
      </trkpt>
      <trkpt lat="48.03657" lon="7.04974">
        <ele>978.3</ele>
        <time>2021-08-05T16:19:24Z</time>
      </trkpt>
      <trkpt lat="48.03654" lon="7.0497">
        <ele>978.4</ele>
        <time>2021-08-05T16:19:26Z</time>
      </trkpt>
      <trkpt lat="48.03651" lon="7.04967">
        <ele>978.5</ele>
        <time>2021-08-05T16:19:28Z</time>
      </trkpt>
      <trkpt lat="48.0365" lon="7.04965">
        <ele>978.6</ele>
        <time>2021-08-05T16:19:29Z</time>
      </trkpt>
      <trkpt lat="48.03648" lon="7.04962">
        <ele>978.7</ele>
        <time>2021-08-05T16:19:30Z</time>
      </trkpt>
      <trkpt lat="48.03645" lon="7.04958">
        <ele>978.8</ele>
        <time>2021-08-05T16:19:31Z</time>
      </trkpt>
      <trkpt lat="48.03643" lon="7.04957">
        <ele>978.8</ele>
        <time>2021-08-05T16:19:32Z</time>
      </trkpt>
      <trkpt lat="48.03641" lon="7.04954">
        <ele>978.9</ele>
        <time>2021-08-05T16:19:33Z</time>
      </trkpt>
      <trkpt lat="48.0364" lon="7.04951">
        <ele>979</ele>
        <time>2021-08-05T16:19:34Z</time>
      </trkpt>
      <trkpt lat="48.03638" lon="7.04949">
        <ele>979</ele>
        <time>2021-08-05T16:19:36Z</time>
      </trkpt>
      <trkpt lat="48.03635" lon="7.04946">
        <ele>979.1</ele>
        <time>2021-08-05T16:19:37Z</time>
      </trkpt>
      <trkpt lat="48.03634" lon="7.04944">
        <ele>979.2</ele>
        <time>2021-08-05T16:19:38Z</time>
      </trkpt>
      <trkpt lat="48.03632" lon="7.04941">
        <ele>979.3</ele>
        <time>2021-08-05T16:19:39Z</time>
      </trkpt>
      <trkpt lat="48.03631" lon="7.04939">
        <ele>979.3</ele>
        <time>2021-08-05T16:19:40Z</time>
      </trkpt>
      <trkpt lat="48.03631" lon="7.04936">
        <ele>979.3</ele>
        <time>2021-08-05T16:19:41Z</time>
      </trkpt>
      <trkpt lat="48.0363" lon="7.04929">
        <ele>979.4</ele>
        <time>2021-08-05T16:19:43Z</time>
      </trkpt>
      <trkpt lat="48.0363" lon="7.04924">
        <ele>979.5</ele>
        <time>2021-08-05T16:19:44Z</time>
      </trkpt>
      <trkpt lat="48.03628" lon="7.04919">
        <ele>979.6</ele>
        <time>2021-08-05T16:19:45Z</time>
      </trkpt>
      <trkpt lat="48.03628" lon="7.04917">
        <ele>979.6</ele>
        <time>2021-08-05T16:19:46Z</time>
      </trkpt>
      <trkpt lat="48.03624" lon="7.04911">
        <ele>979.7</ele>
        <time>2021-08-05T16:19:48Z</time>
      </trkpt>
      <trkpt lat="48.03622" lon="7.04909">
        <ele>979.8</ele>
        <time>2021-08-05T16:19:49Z</time>
      </trkpt>
      <trkpt lat="48.0362" lon="7.04905">
        <ele>979.9</ele>
        <time>2021-08-05T16:19:51Z</time>
      </trkpt>
      <trkpt lat="48.03616" lon="7.04904">
        <ele>979.9</ele>
        <time>2021-08-05T16:19:52Z</time>
      </trkpt>
      <trkpt lat="48.03613" lon="7.04903">
        <ele>980</ele>
        <time>2021-08-05T16:19:54Z</time>
      </trkpt>
      <trkpt lat="48.0361" lon="7.049">
        <ele>980.1</ele>
        <time>2021-08-05T16:19:56Z</time>
      </trkpt>
      <trkpt lat="48.03608" lon="7.04899">
        <ele>980.1</ele>
        <time>2021-08-05T16:19:57Z</time>
      </trkpt>
      <trkpt lat="48.03604" lon="7.04896">
        <ele>980.2</ele>
        <time>2021-08-05T16:19:59Z</time>
      </trkpt>
      <trkpt lat="48.03601" lon="7.04894">
        <ele>980.2</ele>
        <time>2021-08-05T16:20:00Z</time>
      </trkpt>
      <trkpt lat="48.03598" lon="7.04892">
        <ele>980.3</ele>
        <time>2021-08-05T16:20:02Z</time>
      </trkpt>
      <trkpt lat="48.03596" lon="7.04891">
        <ele>980.3</ele>
        <time>2021-08-05T16:20:03Z</time>
      </trkpt>
      <trkpt lat="48.03594" lon="7.04888">
        <ele>980.4</ele>
        <time>2021-08-05T16:20:05Z</time>
      </trkpt>
      <trkpt lat="48.03593" lon="7.04885">
        <ele>980.4</ele>
        <time>2021-08-05T16:20:06Z</time>
      </trkpt>
      <trkpt lat="48.0359" lon="7.04884">
        <ele>980.5</ele>
        <time>2021-08-05T16:20:08Z</time>
      </trkpt>
      <trkpt lat="48.03588" lon="7.04881">
        <ele>980.5</ele>
        <time>2021-08-05T16:20:09Z</time>
      </trkpt>
      <trkpt lat="48.03587" lon="7.04879">
        <ele>980.6</ele>
        <time>2021-08-05T16:20:10Z</time>
      </trkpt>
      <trkpt lat="48.03585" lon="7.04879">
        <ele>980.6</ele>
        <time>2021-08-05T16:20:12Z</time>
      </trkpt>
      <trkpt lat="48.03584" lon="7.04878">
        <ele>980.6</ele>
        <time>2021-08-05T16:20:13Z</time>
      </trkpt>
      <trkpt lat="48.03583" lon="7.04878">
        <ele>980.6</ele>
        <time>2021-08-05T16:20:14Z</time>
      </trkpt>
      <trkpt lat="48.03582" lon="7.04877">
        <ele>980.7</ele>
        <time>2021-08-05T16:20:15Z</time>
      </trkpt>
      <trkpt lat="48.03585" lon="7.04876">
        <ele>980.7</ele>
        <time>2021-08-05T16:20:17Z</time>
      </trkpt>
      <trkpt lat="48.03585" lon="7.04876">
        <ele>980.7</ele>
        <time>2021-08-05T16:20:18Z</time>
      </trkpt>
      <trkpt lat="48.03586" lon="7.04876">
        <ele>980.7</ele>
        <time>2021-08-05T16:20:20Z</time>
      </trkpt>
      <trkpt lat="48.03586" lon="7.04875">
        <ele>980.8</ele>
        <time>2021-08-05T16:20:21Z</time>
      </trkpt>
      <trkpt lat="48.03587" lon="7.04875">
        <ele>980.8</ele>
        <time>2021-08-05T16:20:23Z</time>
      </trkpt>
      <trkpt lat="48.03587" lon="7.04875">
        <ele>980.8</ele>
        <time>2021-08-05T16:20:24Z</time>
      </trkpt>
      <trkpt lat="48.03587" lon="7.04875">
        <ele>980.8</ele>
        <time>2021-08-05T16:20:26Z</time>
      </trkpt>
      <trkpt lat="48.0357" lon="7.04858">
        <ele>981.2</ele>
        <time>2021-08-05T16:21:09Z</time>
      </trkpt>
      <trkpt lat="48.03568" lon="7.04853">
        <ele>981.3</ele>
        <time>2021-08-05T16:21:10Z</time>
      </trkpt>
      <trkpt lat="48.03566" lon="7.0485">
        <ele>981.4</ele>
        <time>2021-08-05T16:21:11Z</time>
      </trkpt>
      <trkpt lat="48.03563" lon="7.04846">
        <ele>981.4</ele>
        <time>2021-08-05T16:21:12Z</time>
      </trkpt>
      <trkpt lat="48.03561" lon="7.04843">
        <ele>981.5</ele>
        <time>2021-08-05T16:21:13Z</time>
      </trkpt>
      <trkpt lat="48.03558" lon="7.04839">
        <ele>981.6</ele>
        <time>2021-08-05T16:21:14Z</time>
      </trkpt>
      <trkpt lat="48.03555" lon="7.04835">
        <ele>981.7</ele>
        <time>2021-08-05T16:21:15Z</time>
      </trkpt>
      <trkpt lat="48.03553" lon="7.04829">
        <ele>981.8</ele>
        <time>2021-08-05T16:21:17Z</time>
      </trkpt>
      <trkpt lat="48.03551" lon="7.04826">
        <ele>981.8</ele>
        <time>2021-08-05T16:21:18Z</time>
      </trkpt>
      <trkpt lat="48.03549" lon="7.04819">
        <ele>981.9</ele>
        <time>2021-08-05T16:21:20Z</time>
      </trkpt>
      <trkpt lat="48.03548" lon="7.04816">
        <ele>982</ele>
        <time>2021-08-05T16:21:21Z</time>
      </trkpt>
      <trkpt lat="48.03543" lon="7.04811">
        <ele>982.1</ele>
        <time>2021-08-05T16:21:23Z</time>
      </trkpt>
      <trkpt lat="48.0354" lon="7.0481">
        <ele>982.2</ele>
        <time>2021-08-05T16:21:24Z</time>
      </trkpt>
      <trkpt lat="48.03537" lon="7.0481">
        <ele>982.2</ele>
        <time>2021-08-05T16:21:25Z</time>
      </trkpt>
      <trkpt lat="48.03534" lon="7.04808">
        <ele>982.3</ele>
        <time>2021-08-05T16:21:26Z</time>
      </trkpt>
      <trkpt lat="48.0353" lon="7.04807">
        <ele>982.3</ele>
        <time>2021-08-05T16:21:28Z</time>
      </trkpt>
      <trkpt lat="48.03527" lon="7.04806">
        <ele>982.4</ele>
        <time>2021-08-05T16:21:29Z</time>
      </trkpt>
      <trkpt lat="48.03526" lon="7.04805">
        <ele>982.4</ele>
        <time>2021-08-05T16:21:30Z</time>
      </trkpt>
      <trkpt lat="48.03523" lon="7.04803">
        <ele>982.5</ele>
        <time>2021-08-05T16:21:31Z</time>
      </trkpt>
      <trkpt lat="48.03521" lon="7.048">
        <ele>982.5</ele>
        <time>2021-08-05T16:21:32Z</time>
      </trkpt>
      <trkpt lat="48.03519" lon="7.04796">
        <ele>982.6</ele>
        <time>2021-08-05T16:21:34Z</time>
      </trkpt>
      <trkpt lat="48.03517" lon="7.04793">
        <ele>982.8</ele>
        <time>2021-08-05T16:21:35Z</time>
      </trkpt>
      <trkpt lat="48.03515" lon="7.04791">
        <ele>982.8</ele>
        <time>2021-08-05T16:21:36Z</time>
      </trkpt>
      <trkpt lat="48.03511" lon="7.04786">
        <ele>983</ele>
        <time>2021-08-05T16:21:38Z</time>
      </trkpt>
      <trkpt lat="48.0351" lon="7.04784">
        <ele>983</ele>
        <time>2021-08-05T16:21:39Z</time>
      </trkpt>
      <trkpt lat="48.03509" lon="7.04783">
        <ele>983.1</ele>
        <time>2021-08-05T16:21:40Z</time>
      </trkpt>
      <trkpt lat="48.03506" lon="7.04781">
        <ele>983.2</ele>
        <time>2021-08-05T16:21:42Z</time>
      </trkpt>
      <trkpt lat="48.03501" lon="7.0478">
        <ele>983.8</ele>
        <time>2021-08-05T16:21:44Z</time>
      </trkpt>
      <trkpt lat="48.03497" lon="7.04783">
        <ele>984</ele>
        <time>2021-08-05T16:21:46Z</time>
      </trkpt>
      <trkpt lat="48.03494" lon="7.04785">
        <ele>984.1</ele>
        <time>2021-08-05T16:21:48Z</time>
      </trkpt>
      <trkpt lat="48.03492" lon="7.04786">
        <ele>984.2</ele>
        <time>2021-08-05T16:21:49Z</time>
      </trkpt>
      <trkpt lat="48.03491" lon="7.04787">
        <ele>984.3</ele>
        <time>2021-08-05T16:21:50Z</time>
      </trkpt>
      <trkpt lat="48.03488" lon="7.04789">
        <ele>984.4</ele>
        <time>2021-08-05T16:21:52Z</time>
      </trkpt>
      <trkpt lat="48.03487" lon="7.04789">
        <ele>984.4</ele>
        <time>2021-08-05T16:21:53Z</time>
      </trkpt>
      <trkpt lat="48.03485" lon="7.04791">
        <ele>984.6</ele>
        <time>2021-08-05T16:21:55Z</time>
      </trkpt>
      <trkpt lat="48.03484" lon="7.04792">
        <ele>984.6</ele>
        <time>2021-08-05T16:21:56Z</time>
      </trkpt>
      <trkpt lat="48.03482" lon="7.04794">
        <ele>984.7</ele>
        <time>2021-08-05T16:21:58Z</time>
      </trkpt>
      <trkpt lat="48.0348" lon="7.04795">
        <ele>984.9</ele>
        <time>2021-08-05T16:21:59Z</time>
      </trkpt>
      <trkpt lat="48.03476" lon="7.04796">
        <ele>985</ele>
        <time>2021-08-05T16:22:01Z</time>
      </trkpt>
      <trkpt lat="48.03474" lon="7.04795">
        <ele>985.3</ele>
        <time>2021-08-05T16:22:02Z</time>
      </trkpt>
      <trkpt lat="48.03472" lon="7.04795">
        <ele>985.3</ele>
        <time>2021-08-05T16:22:04Z</time>
      </trkpt>
      <trkpt lat="48.03469" lon="7.04795">
        <ele>985.4</ele>
        <time>2021-08-05T16:22:05Z</time>
      </trkpt>
      <trkpt lat="48.03466" lon="7.04794">
        <ele>985.5</ele>
        <time>2021-08-05T16:22:07Z</time>
      </trkpt>
      <trkpt lat="48.03465" lon="7.04792">
        <ele>985.6</ele>
        <time>2021-08-05T16:22:08Z</time>
      </trkpt>
      <trkpt lat="48.03462" lon="7.04789">
        <ele>985.7</ele>
        <time>2021-08-05T16:22:10Z</time>
      </trkpt>
      <trkpt lat="48.0346" lon="7.04788">
        <ele>985.8</ele>
        <time>2021-08-05T16:22:11Z</time>
      </trkpt>
      <trkpt lat="48.03459" lon="7.04788">
        <ele>985.9</ele>
        <time>2021-08-05T16:22:12Z</time>
      </trkpt>
      <trkpt lat="48.03456" lon="7.04791">
        <ele>985.9</ele>
        <time>2021-08-05T16:22:14Z</time>
      </trkpt>
      <trkpt lat="48.03452" lon="7.04796">
        <ele>986</ele>
        <time>2021-08-05T16:22:16Z</time>
      </trkpt>
      <trkpt lat="48.03448" lon="7.04798">
        <ele>986</ele>
        <time>2021-08-05T16:22:18Z</time>
      </trkpt>
      <trkpt lat="48.03446" lon="7.048">
        <ele>986.8</ele>
        <time>2021-08-05T16:22:19Z</time>
      </trkpt>
      <trkpt lat="48.03445" lon="7.04801">
        <ele>986.8</ele>
        <time>2021-08-05T16:22:20Z</time>
      </trkpt>
      <trkpt lat="48.03443" lon="7.04803">
        <ele>986.8</ele>
        <time>2021-08-05T16:22:21Z</time>
      </trkpt>
      <trkpt lat="48.03442" lon="7.04804">
        <ele>986.8</ele>
        <time>2021-08-05T16:22:22Z</time>
      </trkpt>
      <trkpt lat="48.0344" lon="7.04807">
        <ele>986.7</ele>
        <time>2021-08-05T16:22:23Z</time>
      </trkpt>
      <trkpt lat="48.03439" lon="7.04808">
        <ele>986.7</ele>
        <time>2021-08-05T16:22:24Z</time>
      </trkpt>
      <trkpt lat="48.03438" lon="7.04809">
        <ele>986.7</ele>
        <time>2021-08-05T16:22:25Z</time>
      </trkpt>
      <trkpt lat="48.03436" lon="7.04814">
        <ele>986.6</ele>
        <time>2021-08-05T16:22:27Z</time>
      </trkpt>
      <trkpt lat="48.03435" lon="7.04817">
        <ele>986.6</ele>
        <time>2021-08-05T16:22:28Z</time>
      </trkpt>
      <trkpt lat="48.03433" lon="7.04821">
        <ele>986.5</ele>
        <time>2021-08-05T16:22:30Z</time>
      </trkpt>
      <trkpt lat="48.03431" lon="7.04826">
        <ele>986.5</ele>
        <time>2021-08-05T16:22:32Z</time>
      </trkpt>
      <trkpt lat="48.03429" lon="7.04831">
        <ele>986.4</ele>
        <time>2021-08-05T16:22:34Z</time>
      </trkpt>
      <trkpt lat="48.03426" lon="7.04835">
        <ele>986.3</ele>
        <time>2021-08-05T16:22:35Z</time>
      </trkpt>
      <trkpt lat="48.03425" lon="7.04836">
        <ele>986.3</ele>
        <time>2021-08-05T16:22:36Z</time>
      </trkpt>
      <trkpt lat="48.03423" lon="7.0484">
        <ele>986.3</ele>
        <time>2021-08-05T16:22:38Z</time>
      </trkpt>
      <trkpt lat="48.03422" lon="7.04844">
        <ele>986.2</ele>
        <time>2021-08-05T16:22:39Z</time>
      </trkpt>
      <trkpt lat="48.03423" lon="7.04849">
        <ele>986.2</ele>
        <time>2021-08-05T16:22:41Z</time>
      </trkpt>
      <trkpt lat="48.03423" lon="7.04851">
        <ele>986.2</ele>
        <time>2021-08-05T16:22:42Z</time>
      </trkpt>
      <trkpt lat="48.03423" lon="7.04859">
        <ele>986.1</ele>
        <time>2021-08-05T16:22:44Z</time>
      </trkpt>
      <trkpt lat="48.03424" lon="7.04862">
        <ele>986.1</ele>
        <time>2021-08-05T16:22:45Z</time>
      </trkpt>
      <trkpt lat="48.03424" lon="7.04868">
        <ele>986</ele>
        <time>2021-08-05T16:22:47Z</time>
      </trkpt>
      <trkpt lat="48.03423" lon="7.04873">
        <ele>986</ele>
        <time>2021-08-05T16:22:49Z</time>
      </trkpt>
      <trkpt lat="48.03422" lon="7.04877">
        <ele>986</ele>
        <time>2021-08-05T16:22:50Z</time>
      </trkpt>
      <trkpt lat="48.03422" lon="7.04882">
        <ele>985.9</ele>
        <time>2021-08-05T16:22:52Z</time>
      </trkpt>
      <trkpt lat="48.03423" lon="7.0489">
        <ele>985.8</ele>
        <time>2021-08-05T16:22:53Z</time>
      </trkpt>
      <trkpt lat="48.03423" lon="7.04895">
        <ele>985.8</ele>
        <time>2021-08-05T16:22:54Z</time>
      </trkpt>
      <trkpt lat="48.03423" lon="7.04907">
        <ele>985.6</ele>
        <time>2021-08-05T16:22:56Z</time>
      </trkpt>
      <trkpt lat="48.03423" lon="7.04912">
        <ele>985.5</ele>
        <time>2021-08-05T16:22:57Z</time>
      </trkpt>
      <trkpt lat="48.03423" lon="7.04924">
        <ele>985.3</ele>
        <time>2021-08-05T16:22:59Z</time>
      </trkpt>
      <trkpt lat="48.03424" lon="7.04931">
        <ele>985.1</ele>
        <time>2021-08-05T16:23:00Z</time>
      </trkpt>
      <trkpt lat="48.03424" lon="7.04947">
        <ele>984.6</ele>
        <time>2021-08-05T16:23:02Z</time>
      </trkpt>
      <trkpt lat="48.03423" lon="7.04963">
        <ele>984.1</ele>
        <time>2021-08-05T16:23:04Z</time>
      </trkpt>
      <trkpt lat="48.03424" lon="7.04969">
        <ele>983.9</ele>
        <time>2021-08-05T16:23:05Z</time>
      </trkpt>
      <trkpt lat="48.03426" lon="7.04974">
        <ele>983.8</ele>
        <time>2021-08-05T16:23:06Z</time>
      </trkpt>
      <trkpt lat="48.03423" lon="7.04978">
        <ele>983.6</ele>
        <time>2021-08-05T16:23:07Z</time>
      </trkpt>
      <trkpt lat="48.03422" lon="7.04986">
        <ele>983.4</ele>
        <time>2021-08-05T16:23:09Z</time>
      </trkpt>
      <trkpt lat="48.03421" lon="7.04994">
        <ele>980.4</ele>
        <time>2021-08-05T16:23:10Z</time>
      </trkpt>
      <trkpt lat="48.0342" lon="7.04998">
        <ele>980.1</ele>
        <time>2021-08-05T16:23:11Z</time>
      </trkpt>
      <trkpt lat="48.03418" lon="7.05001">
        <ele>979.9</ele>
        <time>2021-08-05T16:23:12Z</time>
      </trkpt>
      <trkpt lat="48.03418" lon="7.05">
        <ele>979.9</ele>
        <time>2021-08-05T16:23:14Z</time>
      </trkpt>
      <trkpt lat="48.03418" lon="7.04996">
        <ele>979.6</ele>
        <time>2021-08-05T16:23:15Z</time>
      </trkpt>
      <trkpt lat="48.03418" lon="7.04992">
        <ele>979.4</ele>
        <time>2021-08-05T16:23:17Z</time>
      </trkpt>
      <trkpt lat="48.03418" lon="7.04984">
        <ele>979</ele>
        <time>2021-08-05T16:23:18Z</time>
      </trkpt>
      <trkpt lat="48.03416" lon="7.04969">
        <ele>978.1</ele>
        <time>2021-08-05T16:23:20Z</time>
      </trkpt>
      <trkpt lat="48.03413" lon="7.04952">
        <ele>976.9</ele>
        <time>2021-08-05T16:23:22Z</time>
      </trkpt>
      <trkpt lat="48.0341" lon="7.04935">
        <ele>975.8</ele>
        <time>2021-08-05T16:23:23Z</time>
      </trkpt>
      <trkpt lat="48.03404" lon="7.04917">
        <ele>974.7</ele>
        <time>2021-08-05T16:23:25Z</time>
      </trkpt>
      <trkpt lat="48.03399" lon="7.04899">
        <ele>973.9</ele>
        <time>2021-08-05T16:23:27Z</time>
      </trkpt>
      <trkpt lat="48.03396" lon="7.04889">
        <ele>973.5</ele>
        <time>2021-08-05T16:23:28Z</time>
      </trkpt>
      <trkpt lat="48.03392" lon="7.04879">
        <ele>973.2</ele>
        <time>2021-08-05T16:23:29Z</time>
      </trkpt>
      <trkpt lat="48.03383" lon="7.0486">
        <ele>972.6</ele>
        <time>2021-08-05T16:23:31Z</time>
      </trkpt>
      <trkpt lat="48.03378" lon="7.04851">
        <ele>972.4</ele>
        <time>2021-08-05T16:23:32Z</time>
      </trkpt>
      <trkpt lat="48.03372" lon="7.04842">
        <ele>972.2</ele>
        <time>2021-08-05T16:23:33Z</time>
      </trkpt>
      <trkpt lat="48.03367" lon="7.04833">
        <ele>972.1</ele>
        <time>2021-08-05T16:23:34Z</time>
      </trkpt>
      <trkpt lat="48.03357" lon="7.04812">
        <ele>972.1</ele>
        <time>2021-08-05T16:23:36Z</time>
      </trkpt>
      <trkpt lat="48.03352" lon="7.04802">
        <ele>972.1</ele>
        <time>2021-08-05T16:23:37Z</time>
      </trkpt>
      <trkpt lat="48.03344" lon="7.04786">
        <ele>972.3</ele>
        <time>2021-08-05T16:23:39Z</time>
      </trkpt>
      <trkpt lat="48.03337" lon="7.04774">
        <ele>972.6</ele>
        <time>2021-08-05T16:23:41Z</time>
      </trkpt>
      <trkpt lat="48.0333" lon="7.04764">
        <ele>972.8</ele>
        <time>2021-08-05T16:23:43Z</time>
      </trkpt>
      <trkpt lat="48.03327" lon="7.0476">
        <ele>972.9</ele>
        <time>2021-08-05T16:23:44Z</time>
      </trkpt>
      <trkpt lat="48.03319" lon="7.04752">
        <ele>973.2</ele>
        <time>2021-08-05T16:23:46Z</time>
      </trkpt>
      <trkpt lat="48.03314" lon="7.04747">
        <ele>973.3</ele>
        <time>2021-08-05T16:23:48Z</time>
      </trkpt>
      <trkpt lat="48.03306" lon="7.04741">
        <ele>973.3</ele>
        <time>2021-08-05T16:23:50Z</time>
      </trkpt>
      <trkpt lat="48.03303" lon="7.04739">
        <ele>973.1</ele>
        <time>2021-08-05T16:23:51Z</time>
      </trkpt>
      <trkpt lat="48.03302" lon="7.04738">
        <ele>973.1</ele>
        <time>2021-08-05T16:23:52Z</time>
      </trkpt>
      <trkpt lat="48.033" lon="7.04736">
        <ele>973</ele>
        <time>2021-08-05T16:23:53Z</time>
      </trkpt>
      <trkpt lat="48.03296" lon="7.0473">
        <ele>972.8</ele>
        <time>2021-08-05T16:23:55Z</time>
      </trkpt>
      <trkpt lat="48.03293" lon="7.04725">
        <ele>972.6</ele>
        <time>2021-08-05T16:23:56Z</time>
      </trkpt>
      <trkpt lat="48.03289" lon="7.04719">
        <ele>972.4</ele>
        <time>2021-08-05T16:23:57Z</time>
      </trkpt>
      <trkpt lat="48.03285" lon="7.04714">
        <ele>972.2</ele>
        <time>2021-08-05T16:23:59Z</time>
      </trkpt>
      <trkpt lat="48.03282" lon="7.04706">
        <ele>972</ele>
        <time>2021-08-05T16:24:00Z</time>
      </trkpt>
      <trkpt lat="48.0328" lon="7.04699">
        <ele>971.8</ele>
        <time>2021-08-05T16:24:01Z</time>
      </trkpt>
      <trkpt lat="48.03277" lon="7.04693">
        <ele>971.7</ele>
        <time>2021-08-05T16:24:02Z</time>
      </trkpt>
      <trkpt lat="48.03273" lon="7.04683">
        <ele>971.5</ele>
        <time>2021-08-05T16:24:04Z</time>
      </trkpt>
      <trkpt lat="48.03269" lon="7.04679">
        <ele>971.4</ele>
        <time>2021-08-05T16:24:05Z</time>
      </trkpt>
      <trkpt lat="48.03268" lon="7.04678">
        <ele>971.3</ele>
        <time>2021-08-05T16:24:06Z</time>
      </trkpt>
      <trkpt lat="48.03261" lon="7.04666">
        <ele>971.3</ele>
        <time>2021-08-05T16:24:08Z</time>
      </trkpt>
      <trkpt lat="48.03261" lon="7.04663">
        <ele>971.3</ele>
        <time>2021-08-05T16:24:09Z</time>
      </trkpt>
      <trkpt lat="48.03256" lon="7.04655">
        <ele>971.3</ele>
        <time>2021-08-05T16:24:11Z</time>
      </trkpt>
      <trkpt lat="48.03253" lon="7.04642">
        <ele>971.4</ele>
        <time>2021-08-05T16:24:13Z</time>
      </trkpt>
      <trkpt lat="48.03252" lon="7.04632">
        <ele>971.5</ele>
        <time>2021-08-05T16:24:15Z</time>
      </trkpt>
      <trkpt lat="48.03251" lon="7.04627">
        <ele>971.5</ele>
        <time>2021-08-05T16:24:16Z</time>
      </trkpt>
      <trkpt lat="48.03252" lon="7.04622">
        <ele>971.5</ele>
        <time>2021-08-05T16:24:17Z</time>
      </trkpt>
      <trkpt lat="48.03253" lon="7.04618">
        <ele>971.5</ele>
        <time>2021-08-05T16:24:18Z</time>
      </trkpt>
      <trkpt lat="48.03258" lon="7.04611">
        <ele>971.4</ele>
        <time>2021-08-05T16:24:20Z</time>
      </trkpt>
      <trkpt lat="48.03265" lon="7.04607">
        <ele>971.3</ele>
        <time>2021-08-05T16:24:21Z</time>
      </trkpt>
      <trkpt lat="48.0327" lon="7.04603">
        <ele>971.2</ele>
        <time>2021-08-05T16:24:22Z</time>
      </trkpt>
      <trkpt lat="48.03275" lon="7.04599">
        <ele>971.2</ele>
        <time>2021-08-05T16:24:23Z</time>
      </trkpt>
      <trkpt lat="48.03279" lon="7.04594">
        <ele>971.1</ele>
        <time>2021-08-05T16:24:24Z</time>
      </trkpt>
      <trkpt lat="48.03286" lon="7.04583">
        <ele>971.2</ele>
        <time>2021-08-05T16:24:26Z</time>
      </trkpt>
      <trkpt lat="48.0329" lon="7.04578">
        <ele>971.4</ele>
        <time>2021-08-05T16:24:27Z</time>
      </trkpt>
      <trkpt lat="48.03296" lon="7.04566">
        <ele>971.8</ele>
        <time>2021-08-05T16:24:29Z</time>
      </trkpt>
      <trkpt lat="48.03297" lon="7.04561">
        <ele>972</ele>
        <time>2021-08-05T16:24:30Z</time>
      </trkpt>
      <trkpt lat="48.03298" lon="7.04556">
        <ele>972.2</ele>
        <time>2021-08-05T16:24:31Z</time>
      </trkpt>
      <trkpt lat="48.03302" lon="7.04548">
        <ele>972.6</ele>
        <time>2021-08-05T16:24:33Z</time>
      </trkpt>
      <trkpt lat="48.03304" lon="7.0454">
        <ele>973</ele>
        <time>2021-08-05T16:24:35Z</time>
      </trkpt>
      <trkpt lat="48.03304" lon="7.04538">
        <ele>973.1</ele>
        <time>2021-08-05T16:24:36Z</time>
      </trkpt>
      <trkpt lat="48.03304" lon="7.04547">
        <ele>973.6</ele>
        <time>2021-08-05T16:24:38Z</time>
      </trkpt>
      <trkpt lat="48.03303" lon="7.0455">
        <ele>973.7</ele>
        <time>2021-08-05T16:24:39Z</time>
      </trkpt>
      <trkpt lat="48.03302" lon="7.0455">
        <ele>973.8</ele>
        <time>2021-08-05T16:24:40Z</time>
      </trkpt>
      <trkpt lat="48.03299" lon="7.04547">
        <ele>974</ele>
        <time>2021-08-05T16:24:42Z</time>
      </trkpt>
      <trkpt lat="48.03298" lon="7.04543">
        <ele>974.2</ele>
        <time>2021-08-05T16:24:43Z</time>
      </trkpt>
      <trkpt lat="48.03292" lon="7.04541">
        <ele>974.6</ele>
        <time>2021-08-05T16:24:44Z</time>
      </trkpt>
      <trkpt lat="48.03288" lon="7.04539">
        <ele>974.8</ele>
        <time>2021-08-05T16:24:46Z</time>
      </trkpt>
      <trkpt lat="48.03283" lon="7.04536">
        <ele>975.1</ele>
        <time>2021-08-05T16:24:48Z</time>
      </trkpt>
      <trkpt lat="48.03286" lon="7.04538">
        <ele>975.3</ele>
        <time>2021-08-05T16:24:49Z</time>
      </trkpt>
      <trkpt lat="48.03288" lon="7.0454">
        <ele>975.4</ele>
        <time>2021-08-05T16:24:50Z</time>
      </trkpt>
      <trkpt lat="48.03289" lon="7.0454">
        <ele>975.5</ele>
        <time>2021-08-05T16:24:52Z</time>
      </trkpt>
      <trkpt lat="48.0329" lon="7.0454">
        <ele>975.5</ele>
        <time>2021-08-05T16:24:53Z</time>
      </trkpt>
      <trkpt lat="48.03291" lon="7.04539">
        <ele>975.6</ele>
        <time>2021-08-05T16:24:54Z</time>
      </trkpt>
      <trkpt lat="48.03291" lon="7.04538">
        <ele>975.6</ele>
        <time>2021-08-05T16:24:55Z</time>
      </trkpt>
      <trkpt lat="48.03291" lon="7.04537">
        <ele>975.7</ele>
        <time>2021-08-05T16:24:56Z</time>
      </trkpt>
      <trkpt lat="48.03292" lon="7.04537">
        <ele>975.7</ele>
        <time>2021-08-05T16:24:57Z</time>
      </trkpt>
      <trkpt lat="48.03292" lon="7.04536">
        <ele>975.7</ele>
        <time>2021-08-05T16:24:58Z</time>
      </trkpt>
      <trkpt lat="48.03142" lon="7.04254">
        <ele>976.4</ele>
        <time>2021-08-05T16:27:35Z</time>
      </trkpt>
      <trkpt lat="48.0314" lon="7.04248">
        <ele>979.6</ele>
        <time>2021-08-05T16:27:37Z</time>
      </trkpt>
      <trkpt lat="48.0314" lon="7.04244">
        <ele>982.5</ele>
        <time>2021-08-05T16:27:38Z</time>
      </trkpt>
      <trkpt lat="48.03134" lon="7.04205">
        <ele>994.4</ele>
        <time>2021-08-05T16:27:39Z</time>
      </trkpt>
      <trkpt lat="48.03132" lon="7.0419">
        <ele>999.5</ele>
        <time>2021-08-05T16:27:41Z</time>
      </trkpt>
      <trkpt lat="48.03133" lon="7.04184">
        <ele>1003.5</ele>
        <time>2021-08-05T16:27:42Z</time>
      </trkpt>
      <trkpt lat="48.03133" lon="7.04181">
        <ele>1005</ele>
        <time>2021-08-05T16:27:43Z</time>
      </trkpt>
      <trkpt lat="48.03133" lon="7.04178">
        <ele>1007.7</ele>
        <time>2021-08-05T16:27:45Z</time>
      </trkpt>
      <trkpt lat="48.03134" lon="7.04172">
        <ele>1010.4</ele>
        <time>2021-08-05T16:27:47Z</time>
      </trkpt>
      <trkpt lat="48.02695" lon="7.04235">
        <ele>884</ele>
        <time>2021-08-05T16:29:38Z</time>
      </trkpt>
      <trkpt lat="48.02693" lon="7.04232">
        <ele>886.7</ele>
        <time>2021-08-05T16:29:39Z</time>
      </trkpt>
      <trkpt lat="48.02691" lon="7.04228">
        <ele>889</ele>
        <time>2021-08-05T16:29:41Z</time>
      </trkpt>
      <trkpt lat="48.02691" lon="7.04227">
        <ele>890.4</ele>
        <time>2021-08-05T16:29:42Z</time>
      </trkpt>
      <trkpt lat="48.0269" lon="7.04226">
        <ele>891.9</ele>
        <time>2021-08-05T16:29:43Z</time>
      </trkpt>
      <trkpt lat="48.0269" lon="7.04225">
        <ele>893.3</ele>
        <time>2021-08-05T16:29:45Z</time>
      </trkpt>
      <trkpt lat="48.0269" lon="7.04225">
        <ele>894.7</ele>
        <time>2021-08-05T16:29:46Z</time>
      </trkpt>
      <trkpt lat="48.0269" lon="7.04225">
        <ele>896.1</ele>
        <time>2021-08-05T16:29:48Z</time>
      </trkpt>
      <trkpt lat="48.0269" lon="7.04224">
        <ele>897.5</ele>
        <time>2021-08-05T16:29:49Z</time>
      </trkpt>
      <trkpt lat="48.0269" lon="7.04224">
        <ele>899</ele>
        <time>2021-08-05T16:29:50Z</time>
      </trkpt>
      <trkpt lat="48.0269" lon="7.04224">
        <ele>900.4</ele>
        <time>2021-08-05T16:29:51Z</time>
      </trkpt>
      <trkpt lat="48.0269" lon="7.04224">
        <ele>901.8</ele>
        <time>2021-08-05T16:29:53Z</time>
      </trkpt>
      <trkpt lat="48.0269" lon="7.04224">
        <ele>903.8</ele>
        <time>2021-08-05T16:29:54Z</time>
      </trkpt>
      <trkpt lat="48.0268" lon="7.04233">
        <ele>905.4</ele>
        <time>2021-08-05T16:29:56Z</time>
      </trkpt>
      <trkpt lat="48.02671" lon="7.04242">
        <ele>907.5</ele>
        <time>2021-08-05T16:29:57Z</time>
      </trkpt>
      <trkpt lat="48.02661" lon="7.04251">
        <ele>911.3</ele>
        <time>2021-08-05T16:29:59Z</time>
      </trkpt>
      <trkpt lat="48.02631" lon="7.04278">
        <ele>915.9</ele>
        <time>2021-08-05T16:30:00Z</time>
      </trkpt>
      <trkpt lat="48.02614" lon="7.04294">
        <ele>914.6</ele>
        <time>2021-08-05T16:30:01Z</time>
      </trkpt>
      <trkpt lat="48.02607" lon="7.04302">
        <ele>914</ele>
        <time>2021-08-05T16:30:02Z</time>
      </trkpt>
      <trkpt lat="48.02601" lon="7.04311">
        <ele>913.5</ele>
        <time>2021-08-05T16:30:04Z</time>
      </trkpt>
      <trkpt lat="48.02596" lon="7.0432">
        <ele>913</ele>
        <time>2021-08-05T16:30:06Z</time>
      </trkpt>
      <trkpt lat="48.02596" lon="7.04324">
        <ele>912.8</ele>
        <time>2021-08-05T16:30:07Z</time>
      </trkpt>
      <trkpt lat="48.02599" lon="7.04339">
        <ele>912.1</ele>
        <time>2021-08-05T16:30:09Z</time>
      </trkpt>
      <trkpt lat="48.02605" lon="7.04363">
        <ele>911.1</ele>
        <time>2021-08-05T16:30:10Z</time>
      </trkpt>
      <trkpt lat="48.02606" lon="7.04377">
        <ele>910.6</ele>
        <time>2021-08-05T16:30:11Z</time>
      </trkpt>
      <trkpt lat="48.02605" lon="7.04385">
        <ele>910.4</ele>
        <time>2021-08-05T16:30:13Z</time>
      </trkpt>
      <trkpt lat="48.02597" lon="7.04392">
        <ele>910</ele>
        <time>2021-08-05T16:30:14Z</time>
      </trkpt>
      <trkpt lat="48.02579" lon="7.04409">
        <ele>910.6</ele>
        <time>2021-08-05T16:30:15Z</time>
      </trkpt>
      <trkpt lat="48.02576" lon="7.04411">
        <ele>910.7</ele>
        <time>2021-08-05T16:30:17Z</time>
      </trkpt>
      <trkpt lat="48.02574" lon="7.04416">
        <ele>910.8</ele>
        <time>2021-08-05T16:30:18Z</time>
      </trkpt>
      <trkpt lat="48.02556" lon="7.04426">
        <ele>911.6</ele>
        <time>2021-08-05T16:30:19Z</time>
      </trkpt>
      <trkpt lat="48.02549" lon="7.04431">
        <ele>912</ele>
        <time>2021-08-05T16:30:20Z</time>
      </trkpt>
      <trkpt lat="48.02542" lon="7.04436">
        <ele>912.4</ele>
        <time>2021-08-05T16:30:21Z</time>
      </trkpt>
      <trkpt lat="48.02536" lon="7.04439">
        <ele>912.8</ele>
        <time>2021-08-05T16:30:23Z</time>
      </trkpt>
      <trkpt lat="48.02528" lon="7.04445">
        <ele>913.3</ele>
        <time>2021-08-05T16:30:24Z</time>
      </trkpt>
      <trkpt lat="48.02517" lon="7.04452">
        <ele>913.9</ele>
        <time>2021-08-05T16:30:26Z</time>
      </trkpt>
      <trkpt lat="48.0251" lon="7.04455">
        <ele>914.2</ele>
        <time>2021-08-05T16:30:28Z</time>
      </trkpt>
      <trkpt lat="48.02508" lon="7.04456">
        <ele>914.3</ele>
        <time>2021-08-05T16:30:29Z</time>
      </trkpt>
      <trkpt lat="48.02506" lon="7.0446">
        <ele>914.4</ele>
        <time>2021-08-05T16:30:31Z</time>
      </trkpt>
      <trkpt lat="48.02506" lon="7.04462">
        <ele>914.5</ele>
        <time>2021-08-05T16:30:32Z</time>
      </trkpt>
      <trkpt lat="48.02506" lon="7.04465">
        <ele>914.6</ele>
        <time>2021-08-05T16:30:33Z</time>
      </trkpt>
      <trkpt lat="48.02506" lon="7.04467">
        <ele>914.6</ele>
        <time>2021-08-05T16:30:34Z</time>
      </trkpt>
      <trkpt lat="48.02506" lon="7.04469">
        <ele>914.7</ele>
        <time>2021-08-05T16:30:36Z</time>
      </trkpt>
      <trkpt lat="48.02506" lon="7.04472">
        <ele>914.8</ele>
        <time>2021-08-05T16:30:37Z</time>
      </trkpt>
      <trkpt lat="48.02505" lon="7.04474">
        <ele>914.8</ele>
        <time>2021-08-05T16:30:38Z</time>
      </trkpt>
      <trkpt lat="48.02189" lon="7.04735">
        <ele>931.1</ele>
        <time>2021-08-05T16:34:55Z</time>
      </trkpt>
      <trkpt lat="48.02188" lon="7.04731">
        <ele>931.2</ele>
        <time>2021-08-05T16:34:57Z</time>
      </trkpt>
      <trkpt lat="48.02188" lon="7.04728">
        <ele>931.2</ele>
        <time>2021-08-05T16:34:59Z</time>
      </trkpt>
      <trkpt lat="48.02189" lon="7.04727">
        <ele>931.3</ele>
        <time>2021-08-05T16:35:00Z</time>
      </trkpt>
      <trkpt lat="48.02189" lon="7.04726">
        <ele>931.3</ele>
        <time>2021-08-05T16:35:01Z</time>
      </trkpt>
      <trkpt lat="48.02189" lon="7.04726">
        <ele>931.3</ele>
        <time>2021-08-05T16:35:02Z</time>
      </trkpt>
      <trkpt lat="48.02189" lon="7.04725">
        <ele>931.3</ele>
        <time>2021-08-05T16:35:04Z</time>
      </trkpt>
      <trkpt lat="48.02188" lon="7.04723">
        <ele>931.4</ele>
        <time>2021-08-05T16:35:05Z</time>
      </trkpt>
      <trkpt lat="48.02188" lon="7.04722">
        <ele>931.4</ele>
        <time>2021-08-05T16:35:06Z</time>
      </trkpt>
      <trkpt lat="48.02188" lon="7.04722">
        <ele>931.4</ele>
        <time>2021-08-05T16:35:07Z</time>
      </trkpt>
      <trkpt lat="48.02188" lon="7.04721">
        <ele>931.5</ele>
        <time>2021-08-05T16:35:09Z</time>
      </trkpt>
      <trkpt lat="48.022" lon="7.04706">
        <ele>932</ele>
        <time>2021-08-05T16:35:19Z</time>
      </trkpt>
      <trkpt lat="48.02203" lon="7.04703">
        <ele>932.1</ele>
        <time>2021-08-05T16:35:20Z</time>
      </trkpt>
      <trkpt lat="48.02205" lon="7.04701">
        <ele>932.2</ele>
        <time>2021-08-05T16:35:21Z</time>
      </trkpt>
      <trkpt lat="48.02208" lon="7.04699">
        <ele>932.4</ele>
        <time>2021-08-05T16:35:23Z</time>
      </trkpt>
      <trkpt lat="48.02208" lon="7.04698">
        <ele>932.4</ele>
        <time>2021-08-05T16:35:24Z</time>
      </trkpt>
      <trkpt lat="48.02209" lon="7.04698">
        <ele>932.4</ele>
        <time>2021-08-05T16:35:25Z</time>
      </trkpt>
      <trkpt lat="48.0221" lon="7.04696">
        <ele>932.5</ele>
        <time>2021-08-05T16:35:26Z</time>
      </trkpt>
      <trkpt lat="48.02211" lon="7.04694">
        <ele>932.5</ele>
        <time>2021-08-05T16:35:27Z</time>
      </trkpt>
      <trkpt lat="48.02211" lon="7.04691">
        <ele>932.6</ele>
        <time>2021-08-05T16:35:29Z</time>
      </trkpt>
      <trkpt lat="48.02211" lon="7.04688">
        <ele>932.7</ele>
        <time>2021-08-05T16:35:30Z</time>
      </trkpt>
      <trkpt lat="48.02212" lon="7.04685">
        <ele>932.7</ele>
        <time>2021-08-05T16:35:31Z</time>
      </trkpt>
      <trkpt lat="48.02213" lon="7.04675">
        <ele>933</ele>
        <time>2021-08-05T16:35:32Z</time>
      </trkpt>
      <trkpt lat="48.02215" lon="7.04667">
        <ele>933.2</ele>
        <time>2021-08-05T16:35:33Z</time>
      </trkpt>
      <trkpt lat="48.02217" lon="7.04659">
        <ele>933.4</ele>
        <time>2021-08-05T16:36:08Z</time>
      </trkpt>
      <trkpt lat="48.02218" lon="7.04652">
        <ele>933.6</ele>
        <time>2021-08-05T16:36:10Z</time>
      </trkpt>
      <trkpt lat="48.0222" lon="7.04644">
        <ele>933.8</ele>
        <time>2021-08-05T16:36:11Z</time>
      </trkpt>
      <trkpt lat="48.02222" lon="7.04636">
        <ele>934</ele>
        <time>2021-08-05T16:36:12Z</time>
      </trkpt>
      <trkpt lat="48.02222" lon="7.04636">
        <ele>934</ele>
        <time>2021-08-05T16:36:13Z</time>
      </trkpt>
      <trkpt lat="48.02225" lon="7.04634">
        <ele>934.1</ele>
        <time>2021-08-05T16:36:15Z</time>
      </trkpt>
      <trkpt lat="48.02225" lon="7.04633">
        <ele>934.1</ele>
        <time>2021-08-05T16:36:16Z</time>
      </trkpt>
      <trkpt lat="48.02227" lon="7.04632">
        <ele>934.2</ele>
        <time>2021-08-05T16:36:17Z</time>
      </trkpt>
      <trkpt lat="48.02231" lon="7.0463">
        <ele>934.3</ele>
        <time>2021-08-05T16:36:19Z</time>
      </trkpt>
      <trkpt lat="48.02233" lon="7.04628">
        <ele>934.4</ele>
        <time>2021-08-05T16:36:20Z</time>
      </trkpt>
      <trkpt lat="48.02237" lon="7.04625">
        <ele>934.6</ele>
        <time>2021-08-05T16:36:21Z</time>
      </trkpt>
      <trkpt lat="48.02239" lon="7.04625">
        <ele>934.6</ele>
        <time>2021-08-05T16:36:22Z</time>
      </trkpt>
      <trkpt lat="48.0224" lon="7.04623">
        <ele>934.7</ele>
        <time>2021-08-05T16:36:24Z</time>
      </trkpt>
      <trkpt lat="48.0224" lon="7.04622">
        <ele>934.7</ele>
        <time>2021-08-05T16:36:25Z</time>
      </trkpt>
      <trkpt lat="48.02241" lon="7.04621">
        <ele>934.7</ele>
        <time>2021-08-05T16:36:26Z</time>
      </trkpt>
      <trkpt lat="48.02241" lon="7.0462">
        <ele>934.8</ele>
        <time>2021-08-05T16:36:27Z</time>
      </trkpt>
      <trkpt lat="48.0224" lon="7.0462">
        <ele>934.8</ele>
        <time>2021-08-05T16:36:28Z</time>
      </trkpt>
      <trkpt lat="48.02238" lon="7.04618">
        <ele>934.9</ele>
        <time>2021-08-05T16:36:30Z</time>
      </trkpt>
      <trkpt lat="48.02237" lon="7.04617">
        <ele>934.9</ele>
        <time>2021-08-05T16:36:31Z</time>
      </trkpt>
      <trkpt lat="48.02174" lon="7.04577">
        <ele>937.5</ele>
        <time>2021-08-05T16:36:54Z</time>
      </trkpt>
      <trkpt lat="48.02173" lon="7.04574">
        <ele>937.6</ele>
        <time>2021-08-05T16:36:56Z</time>
      </trkpt>
      <trkpt lat="48.02174" lon="7.04574">
        <ele>937.6</ele>
        <time>2021-08-05T16:36:57Z</time>
      </trkpt>
      <trkpt lat="48.02174" lon="7.04574">
        <ele>937.6</ele>
        <time>2021-08-05T16:36:58Z</time>
      </trkpt>
      <trkpt lat="48.02175" lon="7.04573">
        <ele>937.7</ele>
        <time>2021-08-05T16:37:00Z</time>
      </trkpt>
      <trkpt lat="48.02176" lon="7.04572">
        <ele>937.7</ele>
        <time>2021-08-05T16:37:01Z</time>
      </trkpt>
      <trkpt lat="48.02176" lon="7.04572">
        <ele>937.7</ele>
        <time>2021-08-05T16:37:02Z</time>
      </trkpt>
      <trkpt lat="48.02177" lon="7.04571">
        <ele>937.8</ele>
        <time>2021-08-05T16:37:03Z</time>
      </trkpt>
      <trkpt lat="48.02177" lon="7.04571">
        <ele>937.8</ele>
        <time>2021-08-05T16:37:04Z</time>
      </trkpt>
      <trkpt lat="48.02179" lon="7.04573">
        <ele>937.9</ele>
        <time>2021-08-05T16:37:06Z</time>
      </trkpt>
      <trkpt lat="48.02182" lon="7.04577">
        <ele>938</ele>
        <time>2021-08-05T16:37:07Z</time>
      </trkpt>
      <trkpt lat="48.02185" lon="7.0458">
        <ele>938.2</ele>
        <time>2021-08-05T16:37:08Z</time>
      </trkpt>
      <trkpt lat="48.02187" lon="7.04584">
        <ele>938.3</ele>
        <time>2021-08-05T16:37:09Z</time>
      </trkpt>
      <trkpt lat="48.02189" lon="7.04588">
        <ele>938.4</ele>
        <time>2021-08-05T16:37:10Z</time>
      </trkpt>
      <trkpt lat="48.02191" lon="7.04592">
        <ele>938.5</ele>
        <time>2021-08-05T16:37:12Z</time>
      </trkpt>
      <trkpt lat="48.02194" lon="7.04598">
        <ele>938.7</ele>
        <time>2021-08-05T16:37:13Z</time>
      </trkpt>
      <trkpt lat="48.02196" lon="7.046">
        <ele>938.8</ele>
        <time>2021-08-05T16:37:15Z</time>
      </trkpt>
      <trkpt lat="48.02196" lon="7.04601">
        <ele>938.9</ele>
        <time>2021-08-05T16:37:16Z</time>
      </trkpt>
      <trkpt lat="48.02198" lon="7.04605">
        <ele>939</ele>
        <time>2021-08-05T16:37:18Z</time>
      </trkpt>
      <trkpt lat="48.02199" lon="7.04607">
        <ele>939.1</ele>
        <time>2021-08-05T16:37:20Z</time>
      </trkpt>
      <trkpt lat="48.022" lon="7.04608">
        <ele>939.1</ele>
        <time>2021-08-05T16:37:21Z</time>
      </trkpt>
      <trkpt lat="48.022" lon="7.0461">
        <ele>939.1</ele>
        <time>2021-08-05T16:37:22Z</time>
      </trkpt>
      <trkpt lat="48.02201" lon="7.04612">
        <ele>939.2</ele>
        <time>2021-08-05T16:37:24Z</time>
      </trkpt>
      <trkpt lat="48.02202" lon="7.04614">
        <ele>939.3</ele>
        <time>2021-08-05T16:37:25Z</time>
      </trkpt>
      <trkpt lat="48.02203" lon="7.04615">
        <ele>939.3</ele>
        <time>2021-08-05T16:37:26Z</time>
      </trkpt>
      <trkpt lat="48.02204" lon="7.04616">
        <ele>939.3</ele>
        <time>2021-08-05T16:37:27Z</time>
      </trkpt>
      <trkpt lat="48.02205" lon="7.04615">
        <ele>939.4</ele>
        <time>2021-08-05T16:37:29Z</time>
      </trkpt>
      <trkpt lat="48.02206" lon="7.04614">
        <ele>939.4</ele>
        <time>2021-08-05T16:37:30Z</time>
      </trkpt>
      <trkpt lat="48.02205" lon="7.04612">
        <ele>939.5</ele>
        <time>2021-08-05T16:37:31Z</time>
      </trkpt>
      <trkpt lat="48.02204" lon="7.0461">
        <ele>939.5</ele>
        <time>2021-08-05T16:37:32Z</time>
      </trkpt>
      <trkpt lat="48.02203" lon="7.04607">
        <ele>939.6</ele>
        <time>2021-08-05T16:37:34Z</time>
      </trkpt>
      <trkpt lat="48.02202" lon="7.04599">
        <ele>939.8</ele>
        <time>2021-08-05T16:37:36Z</time>
      </trkpt>
      <trkpt lat="48.02201" lon="7.04591">
        <ele>940</ele>
        <time>2021-08-05T16:37:37Z</time>
      </trkpt>
      <trkpt lat="48.022" lon="7.04584">
        <ele>940.2</ele>
        <time>2021-08-05T16:37:39Z</time>
      </trkpt>
      <trkpt lat="48.02199" lon="7.04573">
        <ele>940.4</ele>
        <time>2021-08-05T16:37:40Z</time>
      </trkpt>
      <trkpt lat="48.022" lon="7.04564">
        <ele>940.7</ele>
        <time>2021-08-05T16:37:42Z</time>
      </trkpt>
      <trkpt lat="48.022" lon="7.0456">
        <ele>940.8</ele>
        <time>2021-08-05T16:37:43Z</time>
      </trkpt>
      <trkpt lat="48.02201" lon="7.04555">
        <ele>940.9</ele>
        <time>2021-08-05T16:37:44Z</time>
      </trkpt>
      <trkpt lat="48.02201" lon="7.04554">
        <ele>940.9</ele>
        <time>2021-08-05T16:37:45Z</time>
      </trkpt>
      <trkpt lat="48.022" lon="7.04546">
        <ele>941.1</ele>
        <time>2021-08-05T16:37:47Z</time>
      </trkpt>
      <trkpt lat="48.022" lon="7.04541">
        <ele>941.2</ele>
        <time>2021-08-05T16:37:48Z</time>
      </trkpt>
      <trkpt lat="48.02197" lon="7.04527">
        <ele>941.5</ele>
        <time>2021-08-05T16:37:49Z</time>
      </trkpt>
      <trkpt lat="48.02195" lon="7.04518">
        <ele>940.7</ele>
        <time>2021-08-05T16:37:50Z</time>
      </trkpt>
      <trkpt lat="48.02193" lon="7.04512">
        <ele>939.9</ele>
        <time>2021-08-05T16:37:52Z</time>
      </trkpt>
      <trkpt lat="48.02191" lon="7.04507">
        <ele>939.9</ele>
        <time>2021-08-05T16:37:53Z</time>
      </trkpt>
      <trkpt lat="48.0219" lon="7.04505">
        <ele>939.1</ele>
        <time>2021-08-05T16:37:54Z</time>
      </trkpt>
      <trkpt lat="48.02189" lon="7.04504">
        <ele>939.1</ele>
        <time>2021-08-05T16:37:55Z</time>
      </trkpt>
      <trkpt lat="48.02188" lon="7.04503">
        <ele>938.5</ele>
        <time>2021-08-05T16:37:57Z</time>
      </trkpt>
      <trkpt lat="48.02182" lon="7.04496">
        <ele>936.8</ele>
        <time>2021-08-05T16:37:59Z</time>
      </trkpt>
      <trkpt lat="48.02172" lon="7.04481">
        <ele>934.5</ele>
        <time>2021-08-05T16:38:00Z</time>
      </trkpt>
      <trkpt lat="48.02168" lon="7.04471">
        <ele>933.1</ele>
        <time>2021-08-05T16:38:01Z</time>
      </trkpt>
      <trkpt lat="48.02165" lon="7.04467">
        <ele>933.3</ele>
        <time>2021-08-05T16:38:02Z</time>
      </trkpt>
      <trkpt lat="48.0216" lon="7.04453">
        <ele>931.9</ele>
        <time>2021-08-05T16:38:04Z</time>
      </trkpt>
      <trkpt lat="48.02149" lon="7.04429">
        <ele>929.9</ele>
        <time>2021-08-05T16:38:05Z</time>
      </trkpt>
      <trkpt lat="48.02145" lon="7.0442">
        <ele>929.7</ele>
        <time>2021-08-05T16:38:06Z</time>
      </trkpt>
      <trkpt lat="48.02142" lon="7.04412">
        <ele>928.9</ele>
        <time>2021-08-05T16:38:08Z</time>
      </trkpt>
      <trkpt lat="48.02141" lon="7.04407">
        <ele>929.2</ele>
        <time>2021-08-05T16:38:10Z</time>
      </trkpt>
      <trkpt lat="48.02141" lon="7.04406">
        <ele>929.3</ele>
        <time>2021-08-05T16:38:11Z</time>
      </trkpt>
      <trkpt lat="48.02133" lon="7.04384">
        <ele>928.9</ele>
        <time>2021-08-05T16:38:12Z</time>
      </trkpt>
      <trkpt lat="48.02131" lon="7.04377">
        <ele>929.7</ele>
        <time>2021-08-05T16:38:13Z</time>
      </trkpt>
      <trkpt lat="48.02129" lon="7.04367">
        <ele>930.1</ele>
        <time>2021-08-05T16:38:15Z</time>
      </trkpt>
      <trkpt lat="48.02128" lon="7.04361">
        <ele>930.7</ele>
        <time>2021-08-05T16:38:16Z</time>
      </trkpt>
      <trkpt lat="48.02126" lon="7.04352">
        <ele>931.9</ele>
        <time>2021-08-05T16:38:17Z</time>
      </trkpt>
      <trkpt lat="48.02124" lon="7.04346">
        <ele>931.9</ele>
        <time>2021-08-05T16:38:18Z</time>
      </trkpt>
      <trkpt lat="48.02118" lon="7.04315">
        <ele>934.2</ele>
        <time>2021-08-05T16:38:20Z</time>
      </trkpt>
      <trkpt lat="48.02114" lon="7.04289">
        <ele>936.6</ele>
        <time>2021-08-05T16:38:21Z</time>
      </trkpt>
      <trkpt lat="48.02109" lon="7.04259">
        <ele>938.8</ele>
        <time>2021-08-05T16:38:23Z</time>
      </trkpt>
      <trkpt lat="48.02106" lon="7.04249">
        <ele>939.2</ele>
        <time>2021-08-05T16:38:24Z</time>
      </trkpt>
      <trkpt lat="48.02103" lon="7.04242">
        <ele>939.1</ele>
        <time>2021-08-05T16:38:25Z</time>
      </trkpt>
      <trkpt lat="48.02101" lon="7.04236">
        <ele>939.1</ele>
        <time>2021-08-05T16:38:26Z</time>
      </trkpt>
      <trkpt lat="48.02099" lon="7.04228">
        <ele>939.5</ele>
        <time>2021-08-05T16:38:28Z</time>
      </trkpt>
      <trkpt lat="48.02099" lon="7.04221">
        <ele>939.8</ele>
        <time>2021-08-05T16:38:29Z</time>
      </trkpt>
      <trkpt lat="48.021" lon="7.04215">
        <ele>940</ele>
        <time>2021-08-05T16:38:31Z</time>
      </trkpt>
      <trkpt lat="48.02103" lon="7.04212">
        <ele>940.7</ele>
        <time>2021-08-05T16:38:32Z</time>
      </trkpt>
      <trkpt lat="48.02103" lon="7.0421">
        <ele>940.9</ele>
        <time>2021-08-05T16:38:33Z</time>
      </trkpt>
      <trkpt lat="48.02103" lon="7.04203">
        <ele>940.9</ele>
        <time>2021-08-05T16:38:34Z</time>
      </trkpt>
      <trkpt lat="48.02102" lon="7.04196">
        <ele>940.9</ele>
        <time>2021-08-05T16:38:35Z</time>
      </trkpt>
      <trkpt lat="48.02104" lon="7.04192">
        <ele>940.8</ele>
        <time>2021-08-05T16:38:37Z</time>
      </trkpt>
      <trkpt lat="48.02107" lon="7.04192">
        <ele>941.4</ele>
        <time>2021-08-05T16:38:38Z</time>
      </trkpt>
      <trkpt lat="48.02109" lon="7.0419">
        <ele>942.1</ele>
        <time>2021-08-05T16:38:39Z</time>
      </trkpt>
      <trkpt lat="48.02109" lon="7.04188">
        <ele>941.8</ele>
        <time>2021-08-05T16:38:40Z</time>
      </trkpt>
      <trkpt lat="48.02108" lon="7.04185">
        <ele>941.9</ele>
        <time>2021-08-05T16:38:41Z</time>
      </trkpt>
      <trkpt lat="48.02107" lon="7.04182">
        <ele>941.1</ele>
        <time>2021-08-05T16:38:43Z</time>
      </trkpt>
      <trkpt lat="48.02105" lon="7.04173">
        <ele>940.3</ele>
        <time>2021-08-05T16:38:44Z</time>
      </trkpt>
      <trkpt lat="48.02102" lon="7.04165">
        <ele>938.8</ele>
        <time>2021-08-05T16:38:45Z</time>
      </trkpt>
      <trkpt lat="48.01929" lon="7.0407">
        <ele>899.1</ele>
        <time>2021-08-05T16:40:19Z</time>
      </trkpt>
      <trkpt lat="48.01931" lon="7.04067">
        <ele>898.5</ele>
        <time>2021-08-05T16:40:20Z</time>
      </trkpt>
      <trkpt lat="48.01934" lon="7.04064">
        <ele>897.9</ele>
        <time>2021-08-05T16:40:21Z</time>
      </trkpt>
      <trkpt lat="48.01935" lon="7.04064">
        <ele>898</ele>
        <time>2021-08-05T16:40:22Z</time>
      </trkpt>
      <trkpt lat="48.01934" lon="7.04063">
        <ele>898.1</ele>
        <time>2021-08-05T16:40:23Z</time>
      </trkpt>
      <trkpt lat="48.01932" lon="7.04061">
        <ele>897.8</ele>
        <time>2021-08-05T16:40:25Z</time>
      </trkpt>
      <trkpt lat="48.0193" lon="7.0406">
        <ele>896.9</ele>
        <time>2021-08-05T16:40:26Z</time>
      </trkpt>
      <trkpt lat="48.01927" lon="7.04058">
        <ele>896.5</ele>
        <time>2021-08-05T16:40:27Z</time>
      </trkpt>
      <trkpt lat="48.01924" lon="7.04058">
        <ele>896.6</ele>
        <time>2021-08-05T16:40:28Z</time>
      </trkpt>
      <trkpt lat="48.0192" lon="7.04057">
        <ele>896.3</ele>
        <time>2021-08-05T16:40:30Z</time>
      </trkpt>
      <trkpt lat="48.01918" lon="7.04055">
        <ele>896</ele>
        <time>2021-08-05T16:40:31Z</time>
      </trkpt>
      <trkpt lat="48.01914" lon="7.0405">
        <ele>895.6</ele>
        <time>2021-08-05T16:40:33Z</time>
      </trkpt>
      <trkpt lat="48.01632" lon="7.0417">
        <ele>864.1</ele>
        <time>2021-08-05T16:41:24Z</time>
      </trkpt>
      <trkpt lat="48.01628" lon="7.0418">
        <ele>863.1</ele>
        <time>2021-08-05T16:41:25Z</time>
      </trkpt>
      <trkpt lat="48.01617" lon="7.04199">
        <ele>861.2</ele>
        <time>2021-08-05T16:41:27Z</time>
      </trkpt>
      <trkpt lat="48.01611" lon="7.04206">
        <ele>860.3</ele>
        <time>2021-08-05T16:41:28Z</time>
      </trkpt>
      <trkpt lat="48.01605" lon="7.04215">
        <ele>859.3</ele>
        <time>2021-08-05T16:41:29Z</time>
      </trkpt>
      <trkpt lat="48.01595" lon="7.04229">
        <ele>857.8</ele>
        <time>2021-08-05T16:41:31Z</time>
      </trkpt>
      <trkpt lat="48.01593" lon="7.04234">
        <ele>857.2</ele>
        <time>2021-08-05T16:41:32Z</time>
      </trkpt>
      <trkpt lat="48.0159" lon="7.04236">
        <ele>856.8</ele>
        <time>2021-08-05T16:41:33Z</time>
      </trkpt>
      <trkpt lat="48.01585" lon="7.04236">
        <ele>856.2</ele>
        <time>2021-08-05T16:41:34Z</time>
      </trkpt>
      <trkpt lat="48.01581" lon="7.04236">
        <ele>855.6</ele>
        <time>2021-08-05T16:41:35Z</time>
      </trkpt>
      <trkpt lat="48.01577" lon="7.04237">
        <ele>855.2</ele>
        <time>2021-08-05T16:41:36Z</time>
      </trkpt>
      <trkpt lat="48.01574" lon="7.04239">
        <ele>854.6</ele>
        <time>2021-08-05T16:41:38Z</time>
      </trkpt>
      <trkpt lat="48.0157" lon="7.04235">
        <ele>854</ele>
        <time>2021-08-05T16:41:39Z</time>
      </trkpt>
      <trkpt lat="48.01569" lon="7.04227">
        <ele>853.2</ele>
        <time>2021-08-05T16:41:41Z</time>
      </trkpt>
      <trkpt lat="48.01568" lon="7.04219">
        <ele>852.5</ele>
        <time>2021-08-05T16:41:43Z</time>
      </trkpt>
      <trkpt lat="48.01567" lon="7.04218">
        <ele>852.4</ele>
        <time>2021-08-05T16:41:44Z</time>
      </trkpt>
      <trkpt lat="48.01567" lon="7.04214">
        <ele>852</ele>
        <time>2021-08-05T16:41:46Z</time>
      </trkpt>
      <trkpt lat="48.01566" lon="7.0421">
        <ele>851.6</ele>
        <time>2021-08-05T16:41:48Z</time>
      </trkpt>
      <trkpt lat="48.01566" lon="7.04206">
        <ele>851.2</ele>
        <time>2021-08-05T16:41:50Z</time>
      </trkpt>
      <trkpt lat="48.01565" lon="7.04202">
        <ele>850.8</ele>
        <time>2021-08-05T16:41:52Z</time>
      </trkpt>
      <trkpt lat="48.01565" lon="7.04197">
        <ele>850.4</ele>
        <time>2021-08-05T16:41:54Z</time>
      </trkpt>
      <trkpt lat="48.01565" lon="7.04187">
        <ele>849.3</ele>
        <time>2021-08-05T16:41:56Z</time>
      </trkpt>
      <trkpt lat="48.01569" lon="7.04185">
        <ele>848.8</ele>
        <time>2021-08-05T16:41:57Z</time>
      </trkpt>
      <trkpt lat="48.01571" lon="7.04183">
        <ele>848.4</ele>
        <time>2021-08-05T16:41:58Z</time>
      </trkpt>
      <trkpt lat="48.01575" lon="7.04183">
        <ele>847.7</ele>
        <time>2021-08-05T16:42:00Z</time>
      </trkpt>
      <trkpt lat="48.01576" lon="7.04185">
        <ele>847.5</ele>
        <time>2021-08-05T16:42:01Z</time>
      </trkpt>
      <trkpt lat="48.01576" lon="7.04185">
        <ele>847.5</ele>
        <time>2021-08-05T16:42:02Z</time>
      </trkpt>
      <trkpt lat="48.01576" lon="7.04185">
        <ele>847.4</ele>
        <time>2021-08-05T16:42:03Z</time>
      </trkpt>
      <trkpt lat="48.01576" lon="7.04185">
        <ele>847.4</ele>
        <time>2021-08-05T16:42:05Z</time>
      </trkpt>
      <trkpt lat="48.01575" lon="7.04186">
        <ele>847.3</ele>
        <time>2021-08-05T16:42:06Z</time>
      </trkpt>
      <trkpt lat="48.01575" lon="7.04186">
        <ele>847.3</ele>
        <time>2021-08-05T16:42:07Z</time>
      </trkpt>
      <trkpt lat="48.01575" lon="7.04186">
        <ele>847.2</ele>
        <time>2021-08-05T16:42:09Z</time>
      </trkpt>
      <trkpt lat="48.01575" lon="7.04187">
        <ele>847.2</ele>
        <time>2021-08-05T16:42:10Z</time>
      </trkpt>
      <trkpt lat="48.01574" lon="7.04187">
        <ele>847.1</ele>
        <time>2021-08-05T16:42:12Z</time>
      </trkpt>
      <trkpt lat="48.01574" lon="7.04187">
        <ele>847.1</ele>
        <time>2021-08-05T16:42:13Z</time>
      </trkpt>
      <trkpt lat="48.01574" lon="7.04187">
        <ele>847</ele>
        <time>2021-08-05T16:42:14Z</time>
      </trkpt>
      <trkpt lat="48.01574" lon="7.04188">
        <ele>847</ele>
        <time>2021-08-05T16:42:16Z</time>
      </trkpt>
      <trkpt lat="48.01573" lon="7.04188">
        <ele>846.9</ele>
        <time>2021-08-05T16:42:17Z</time>
      </trkpt>
      <trkpt lat="48.01571" lon="7.04189">
        <ele>846.5</ele>
        <time>2021-08-05T16:42:18Z</time>
      </trkpt>
      <trkpt lat="48.01567" lon="7.04192">
        <ele>845.8</ele>
        <time>2021-08-05T16:42:20Z</time>
      </trkpt>
      <trkpt lat="48.01564" lon="7.04195">
        <ele>845.2</ele>
        <time>2021-08-05T16:42:21Z</time>
      </trkpt>
      <trkpt lat="48.01563" lon="7.04196">
        <ele>845</ele>
        <time>2021-08-05T16:42:22Z</time>
      </trkpt>
      <trkpt lat="48.01563" lon="7.04198">
        <ele>844.9</ele>
        <time>2021-08-05T16:42:23Z</time>
      </trkpt>
      <trkpt lat="48.01562" lon="7.04201">
        <ele>844.5</ele>
        <time>2021-08-05T16:42:24Z</time>
      </trkpt>
      <trkpt lat="48.01555" lon="7.04235">
        <ele>840.6</ele>
        <time>2021-08-05T16:42:25Z</time>
      </trkpt>
      <trkpt lat="48.01554" lon="7.04243">
        <ele>839.8</ele>
        <time>2021-08-05T16:42:27Z</time>
      </trkpt>
      <trkpt lat="48.01551" lon="7.04255">
        <ele>839.2</ele>
        <time>2021-08-05T16:42:29Z</time>
      </trkpt>
      <trkpt lat="48.01548" lon="7.04262">
        <ele>839</ele>
        <time>2021-08-05T16:42:30Z</time>
      </trkpt>
      <trkpt lat="48.01547" lon="7.04266">
        <ele>838.8</ele>
        <time>2021-08-05T16:42:31Z</time>
      </trkpt>
      <trkpt lat="48.01546" lon="7.04273">
        <ele>838.6</ele>
        <time>2021-08-05T16:42:33Z</time>
      </trkpt>
      <trkpt lat="48.01548" lon="7.04277">
        <ele>838.5</ele>
        <time>2021-08-05T16:42:34Z</time>
      </trkpt>
      <trkpt lat="48.0155" lon="7.04281">
        <ele>838.3</ele>
        <time>2021-08-05T16:42:36Z</time>
      </trkpt>
      <trkpt lat="48.01552" lon="7.04285">
        <ele>838.2</ele>
        <time>2021-08-05T16:42:37Z</time>
      </trkpt>
      <trkpt lat="48.01555" lon="7.04289">
        <ele>838</ele>
        <time>2021-08-05T16:42:38Z</time>
      </trkpt>
      <trkpt lat="48.01556" lon="7.04291">
        <ele>838</ele>
        <time>2021-08-05T16:42:39Z</time>
      </trkpt>
      <trkpt lat="48.01562" lon="7.04293">
        <ele>837.7</ele>
        <time>2021-08-05T16:42:41Z</time>
      </trkpt>
      <trkpt lat="48.01563" lon="7.04294">
        <ele>839.4</ele>
        <time>2021-08-05T16:42:42Z</time>
      </trkpt>
      <trkpt lat="48.01567" lon="7.04296">
        <ele>841</ele>
        <time>2021-08-05T16:42:44Z</time>
      </trkpt>
      <trkpt lat="48.0157" lon="7.04297">
        <ele>842.3</ele>
        <time>2021-08-05T16:42:45Z</time>
      </trkpt>
      <trkpt lat="48.01572" lon="7.04297">
        <ele>843.9</ele>
        <time>2021-08-05T16:42:46Z</time>
      </trkpt>
      <trkpt lat="48.01574" lon="7.04296">
        <ele>845.8</ele>
        <time>2021-08-05T16:42:48Z</time>
      </trkpt>
      <trkpt lat="48.01578" lon="7.04296">
        <ele>847.5</ele>
        <time>2021-08-05T16:42:50Z</time>
      </trkpt>
      <trkpt lat="48.01578" lon="7.04296">
        <ele>848.3</ele>
        <time>2021-08-05T16:42:51Z</time>
      </trkpt>
      <trkpt lat="48.01363" lon="7.04774">
        <ele>786.2</ele>
        <time>2021-08-05T16:45:00Z</time>
      </trkpt>
      <trkpt lat="48.01367" lon="7.04782">
        <ele>785.7</ele>
        <time>2021-08-05T16:45:01Z</time>
      </trkpt>
      <trkpt lat="48.01376" lon="7.04795">
        <ele>784.8</ele>
        <time>2021-08-05T16:45:03Z</time>
      </trkpt>
      <trkpt lat="48.01381" lon="7.04804">
        <ele>784.2</ele>
        <time>2021-08-05T16:45:04Z</time>
      </trkpt>
      <trkpt lat="48.01388" lon="7.04813">
        <ele>783.4</ele>
        <time>2021-08-05T16:45:05Z</time>
      </trkpt>
      <trkpt lat="48.01396" lon="7.04824">
        <ele>782.4</ele>
        <time>2021-08-05T16:45:06Z</time>
      </trkpt>
      <trkpt lat="48.01404" lon="7.04834">
        <ele>781.5</ele>
        <time>2021-08-05T16:45:08Z</time>
      </trkpt>
      <trkpt lat="48.01413" lon="7.0485">
        <ele>780</ele>
        <time>2021-08-05T16:45:09Z</time>
      </trkpt>
      <trkpt lat="48.01424" lon="7.04877">
        <ele>777.6</ele>
        <time>2021-08-05T16:45:11Z</time>
      </trkpt>
      <trkpt lat="48.01428" lon="7.04888">
        <ele>776.5</ele>
        <time>2021-08-05T16:45:12Z</time>
      </trkpt>
      <trkpt lat="48.01438" lon="7.04912">
        <ele>773.4</ele>
        <time>2021-08-05T16:45:14Z</time>
      </trkpt>
      <trkpt lat="48.0145" lon="7.04931">
        <ele>770.4</ele>
        <time>2021-08-05T16:45:16Z</time>
      </trkpt>
      <trkpt lat="48.01464" lon="7.04943">
        <ele>768</ele>
        <time>2021-08-05T16:45:18Z</time>
      </trkpt>
      <trkpt lat="48.01471" lon="7.04949">
        <ele>766.7</ele>
        <time>2021-08-05T16:45:19Z</time>
      </trkpt>
      <trkpt lat="48.01478" lon="7.04958">
        <ele>765.3</ele>
        <time>2021-08-05T16:45:20Z</time>
      </trkpt>
      <trkpt lat="48.01482" lon="7.04972">
        <ele>763.6</ele>
        <time>2021-08-05T16:45:21Z</time>
      </trkpt>
      <trkpt lat="48.01489" lon="7.04985">
        <ele>761.9</ele>
        <time>2021-08-05T16:45:22Z</time>
      </trkpt>
      <trkpt lat="48.01496" lon="7.04995">
        <ele>760.4</ele>
        <time>2021-08-05T16:45:23Z</time>
      </trkpt>
      <trkpt lat="48.01508" lon="7.0502">
        <ele>757.1</ele>
        <time>2021-08-05T16:45:25Z</time>
      </trkpt>
      <trkpt lat="48.01521" lon="7.05044">
        <ele>753.8</ele>
        <time>2021-08-05T16:45:27Z</time>
      </trkpt>
      <trkpt lat="48.01526" lon="7.05053">
        <ele>752.4</ele>
        <time>2021-08-05T16:45:28Z</time>
      </trkpt>
      <trkpt lat="48.01537" lon="7.05069">
        <ele>749.6</ele>
        <time>2021-08-05T16:45:30Z</time>
      </trkpt>
      <trkpt lat="48.01543" lon="7.05075">
        <ele>748.3</ele>
        <time>2021-08-05T16:45:31Z</time>
      </trkpt>
      <trkpt lat="48.01556" lon="7.0509">
        <ele>745.6</ele>
        <time>2021-08-05T16:45:33Z</time>
      </trkpt>
      <trkpt lat="48.01563" lon="7.05099">
        <ele>744.2</ele>
        <time>2021-08-05T16:45:34Z</time>
      </trkpt>
      <trkpt lat="48.01574" lon="7.0512">
        <ele>741.4</ele>
        <time>2021-08-05T16:45:36Z</time>
      </trkpt>
      <trkpt lat="48.0158" lon="7.0513">
        <ele>739.8</ele>
        <time>2021-08-05T16:45:37Z</time>
      </trkpt>
      <trkpt lat="48.01586" lon="7.0514">
        <ele>738.3</ele>
        <time>2021-08-05T16:45:38Z</time>
      </trkpt>
      <trkpt lat="48.01592" lon="7.05149">
        <ele>736.9</ele>
        <time>2021-08-05T16:45:39Z</time>
      </trkpt>
      <trkpt lat="48.01603" lon="7.05166">
        <ele>734.5</ele>
        <time>2021-08-05T16:45:41Z</time>
      </trkpt>
      <trkpt lat="48.01608" lon="7.05174">
        <ele>733.4</ele>
        <time>2021-08-05T16:45:42Z</time>
      </trkpt>
      <trkpt lat="48.01613" lon="7.05181">
        <ele>732.4</ele>
        <time>2021-08-05T16:45:43Z</time>
      </trkpt>
      <trkpt lat="48.01616" lon="7.05181">
        <ele>732</ele>
        <time>2021-08-05T16:45:45Z</time>
      </trkpt>
      <trkpt lat="48.01615" lon="7.05174">
        <ele>731.2</ele>
        <time>2021-08-05T16:45:47Z</time>
      </trkpt>
      <trkpt lat="48.01615" lon="7.05174">
        <ele>731.2</ele>
        <time>2021-08-05T16:45:48Z</time>
      </trkpt>
      <trkpt lat="48.01615" lon="7.05175">
        <ele>731.2</ele>
        <time>2021-08-05T16:45:49Z</time>
      </trkpt>
      <trkpt lat="48.01615" lon="7.05175">
        <ele>731.2</ele>
        <time>2021-08-05T16:45:51Z</time>
      </trkpt>
      <trkpt lat="48.01615" lon="7.05175">
        <ele>731.2</ele>
        <time>2021-08-05T16:45:53Z</time>
      </trkpt>
      <trkpt lat="48.01865" lon="7.05729">
        <ele>672.3</ele>
        <time>2021-08-05T16:46:42Z</time>
      </trkpt>
      <trkpt lat="48.01871" lon="7.05746">
        <ele>670.8</ele>
        <time>2021-08-05T16:46:43Z</time>
      </trkpt>
      <trkpt lat="48.01874" lon="7.05761">
        <ele>669.6</ele>
        <time>2021-08-05T16:46:44Z</time>
      </trkpt>
      <trkpt lat="48.01881" lon="7.0578">
        <ele>667.8</ele>
        <time>2021-08-05T16:46:46Z</time>
      </trkpt>
      <trkpt lat="48.01885" lon="7.05789">
        <ele>666.9</ele>
        <time>2021-08-05T16:46:47Z</time>
      </trkpt>
      <trkpt lat="48.0189" lon="7.05797">
        <ele>666</ele>
        <time>2021-08-05T16:46:48Z</time>
      </trkpt>
      <trkpt lat="48.01896" lon="7.05808">
        <ele>664.8</ele>
        <time>2021-08-05T16:46:50Z</time>
      </trkpt>
      <trkpt lat="48.019" lon="7.05811">
        <ele>664.2</ele>
        <time>2021-08-05T16:46:51Z</time>
      </trkpt>
      <trkpt lat="48.01904" lon="7.05819">
        <ele>663.3</ele>
        <time>2021-08-05T16:46:53Z</time>
      </trkpt>
      <trkpt lat="48.01906" lon="7.05823">
        <ele>662.8</ele>
        <time>2021-08-05T16:46:54Z</time>
      </trkpt>
      <trkpt lat="48.01981" lon="7.05774">
        <ele>654.1</ele>
        <time>2021-08-05T16:47:33Z</time>
      </trkpt>
      <trkpt lat="48.01991" lon="7.05777">
        <ele>652.9</ele>
        <time>2021-08-05T16:47:34Z</time>
      </trkpt>
      <trkpt lat="48.02007" lon="7.05778">
        <ele>651.3</ele>
        <time>2021-08-05T16:47:36Z</time>
      </trkpt>
      <trkpt lat="48.02012" lon="7.05782">
        <ele>650.7</ele>
        <time>2021-08-05T16:47:37Z</time>
      </trkpt>
      <trkpt lat="48.02018" lon="7.05784">
        <ele>650.1</ele>
        <time>2021-08-05T16:47:39Z</time>
      </trkpt>
      <trkpt lat="48.0202" lon="7.05786">
        <ele>651.1</ele>
        <time>2021-08-05T16:47:40Z</time>
      </trkpt>
      <trkpt lat="48.02031" lon="7.05791">
        <ele>649.9</ele>
        <time>2021-08-05T16:47:41Z</time>
      </trkpt>
      <trkpt lat="48.02044" lon="7.05797">
        <ele>649.3</ele>
        <time>2021-08-05T16:47:42Z</time>
      </trkpt>
      <trkpt lat="48.02066" lon="7.05806">
        <ele>645.4</ele>
        <time>2021-08-05T16:47:44Z</time>
      </trkpt>
      <trkpt lat="48.02071" lon="7.05808">
        <ele>644.4</ele>
        <time>2021-08-05T16:47:46Z</time>
      </trkpt>
      <trkpt lat="48.02062" lon="7.05818">
        <ele>643.6</ele>
        <time>2021-08-05T16:47:47Z</time>
      </trkpt>
      <trkpt lat="48.02058" lon="7.05824">
        <ele>643.8</ele>
        <time>2021-08-05T16:47:48Z</time>
      </trkpt>
      <trkpt lat="48.02058" lon="7.05849">
        <ele>636.7</ele>
        <time>2021-08-05T16:47:50Z</time>
      </trkpt>
      <trkpt lat="48.02059" lon="7.0587">
        <ele>631.9</ele>
        <time>2021-08-05T16:47:51Z</time>
      </trkpt>
      <trkpt lat="48.0206" lon="7.05891">
        <ele>628.7</ele>
        <time>2021-08-05T16:47:52Z</time>
      </trkpt>
      <trkpt lat="48.02061" lon="7.05912">
        <ele>627</ele>
        <time>2021-08-05T16:47:53Z</time>
      </trkpt>
      <trkpt lat="48.02062" lon="7.05935">
        <ele>625.8</ele>
        <time>2021-08-05T16:47:55Z</time>
      </trkpt>
      <trkpt lat="48.01822" lon="7.0593">
        <ele>612.5</ele>
        <time>2021-08-05T16:48:15Z</time>
      </trkpt>
      <trkpt lat="48.01812" lon="7.05926">
        <ele>612.9</ele>
        <time>2021-08-05T16:48:16Z</time>
      </trkpt>
      <trkpt lat="48.01788" lon="7.05913">
        <ele>614</ele>
        <time>2021-08-05T16:48:18Z</time>
      </trkpt>
      <trkpt lat="48.01776" lon="7.05907">
        <ele>614.5</ele>
        <time>2021-08-05T16:48:19Z</time>
      </trkpt>
      <trkpt lat="48.01756" lon="7.05893">
        <ele>615.4</ele>
        <time>2021-08-05T16:48:21Z</time>
      </trkpt>
      <trkpt lat="48.01737" lon="7.05875">
        <ele>616.1</ele>
        <time>2021-08-05T16:48:23Z</time>
      </trkpt>
      <trkpt lat="48.01727" lon="7.05865">
        <ele>616.5</ele>
        <time>2021-08-05T16:48:24Z</time>
      </trkpt>
      <trkpt lat="48.01718" lon="7.05855">
        <ele>616.8</ele>
        <time>2021-08-05T16:48:25Z</time>
      </trkpt>
      <trkpt lat="48.01702" lon="7.05833">
        <ele>617.5</ele>
        <time>2021-08-05T16:48:27Z</time>
      </trkpt>
      <trkpt lat="48.01694" lon="7.05822">
        <ele>617.9</ele>
        <time>2021-08-05T16:48:28Z</time>
      </trkpt>
      <trkpt lat="48.01688" lon="7.05814">
        <ele>618.1</ele>
        <time>2021-08-05T16:48:29Z</time>
      </trkpt>
      <trkpt lat="48.01681" lon="7.05801">
        <ele>618.5</ele>
        <time>2021-08-05T16:48:31Z</time>
      </trkpt>
      <trkpt lat="48.01681" lon="7.058">
        <ele>618.6</ele>
        <time>2021-08-05T16:48:32Z</time>
      </trkpt>
      <trkpt lat="48.01682" lon="7.058">
        <ele>618.6</ele>
        <time>2021-08-05T16:48:34Z</time>
      </trkpt>
      <trkpt lat="48.01681" lon="7.05799">
        <ele>618.7</ele>
        <time>2021-08-05T16:48:36Z</time>
      </trkpt>
      <trkpt lat="48.01681" lon="7.05799">
        <ele>618.7</ele>
        <time>2021-08-05T16:48:38Z</time>
      </trkpt>
      <trkpt lat="48.01681" lon="7.05799">
        <ele>618.7</ele>
        <time>2021-08-05T16:48:39Z</time>
      </trkpt>
      <trkpt lat="48.01681" lon="7.05799">
        <ele>618.7</ele>
        <time>2021-08-05T16:48:40Z</time>
      </trkpt>
      <trkpt lat="48.01681" lon="7.05799">
        <ele>618.7</ele>
        <time>2021-08-05T16:48:41Z</time>
      </trkpt>
      <trkpt lat="48.0152" lon="7.05621">
        <ele>605.6</ele>
        <time>2021-08-05T16:49:13Z</time>
      </trkpt>
      <trkpt lat="48.01492" lon="7.05592">
        <ele>602.3</ele>
        <time>2021-08-05T16:49:15Z</time>
      </trkpt>
      <trkpt lat="48.01482" lon="7.05581">
        <ele>601.1</ele>
        <time>2021-08-05T16:49:16Z</time>
      </trkpt>
      <trkpt lat="48.01478" lon="7.05576">
        <ele>600.5</ele>
        <time>2021-08-05T16:49:17Z</time>
      </trkpt>
      <trkpt lat="48.01473" lon="7.05566">
        <ele>599.6</ele>
        <time>2021-08-05T16:49:19Z</time>
      </trkpt>
      <trkpt lat="48.0147" lon="7.05563">
        <ele>599.2</ele>
        <time>2021-08-05T16:49:20Z</time>
      </trkpt>
      <trkpt lat="48.01466" lon="7.0556">
        <ele>598.7</ele>
        <time>2021-08-05T16:49:22Z</time>
      </trkpt>
      <trkpt lat="48.01431" lon="7.0552">
        <ele>593.6</ele>
        <time>2021-08-05T16:49:23Z</time>
      </trkpt>
      <trkpt lat="48.01422" lon="7.05511">
        <ele>592.2</ele>
        <time>2021-08-05T16:49:25Z</time>
      </trkpt>
      <trkpt lat="48.01418" lon="7.05504">
        <ele>591.4</ele>
        <time>2021-08-05T16:49:26Z</time>
      </trkpt>
      <trkpt lat="48.01416" lon="7.05502">
        <ele>591.1</ele>
        <time>2021-08-05T16:49:28Z</time>
      </trkpt>
      <trkpt lat="48.01415" lon="7.05501">
        <ele>591</ele>
        <time>2021-08-05T16:49:29Z</time>
      </trkpt>
      <trkpt lat="48.01414" lon="7.055">
        <ele>590.8</ele>
        <time>2021-08-05T16:49:30Z</time>
      </trkpt>
      <trkpt lat="48.0141" lon="7.05506">
        <ele>590.1</ele>
        <time>2021-08-05T16:49:32Z</time>
      </trkpt>
      <trkpt lat="48.01404" lon="7.05528">
        <ele>588.1</ele>
        <time>2021-08-05T16:49:33Z</time>
      </trkpt>
      <trkpt lat="48.01069" lon="7.05152">
        <ele>525.3</ele>
        <time>2021-08-05T16:51:47Z</time>
      </trkpt>
      <trkpt lat="48.01068" lon="7.05147">
        <ele>519.7</ele>
        <time>2021-08-05T16:51:48Z</time>
      </trkpt>
      <trkpt lat="48.01067" lon="7.05134">
        <ele>515.7</ele>
        <time>2021-08-05T16:51:50Z</time>
      </trkpt>
      <trkpt lat="48.01066" lon="7.05124">
        <ele>512</ele>
        <time>2021-08-05T16:51:52Z</time>
      </trkpt>
      <trkpt lat="48.01064" lon="7.05116">
        <ele>506.9</ele>
        <time>2021-08-05T16:51:53Z</time>
      </trkpt>
      <trkpt lat="48.01062" lon="7.05106">
        <ele>507</ele>
        <time>2021-08-05T16:51:54Z</time>
      </trkpt>
      <trkpt lat="48.0106" lon="7.05097">
        <ele>507.2</ele>
        <time>2021-08-05T16:51:56Z</time>
      </trkpt>
      <trkpt lat="48.01058" lon="7.05091">
        <ele>507.3</ele>
        <time>2021-08-05T16:51:57Z</time>
      </trkpt>
      <trkpt lat="48.01055" lon="7.05084">
        <ele>507.4</ele>
        <time>2021-08-05T16:51:58Z</time>
      </trkpt>
      <trkpt lat="48.01051" lon="7.05077">
        <ele>507.5</ele>
        <time>2021-08-05T16:51:59Z</time>
      </trkpt>
      <trkpt lat="48.01047" lon="7.05072">
        <ele>507.6</ele>
        <time>2021-08-05T16:52:00Z</time>
      </trkpt>
      <trkpt lat="48.01045" lon="7.05069">
        <ele>507.7</ele>
        <time>2021-08-05T16:52:01Z</time>
      </trkpt>
      <trkpt lat="48.01037" lon="7.05057">
        <ele>508</ele>
        <time>2021-08-05T16:52:03Z</time>
      </trkpt>
      <trkpt lat="48.01036" lon="7.05052">
        <ele>508.1</ele>
        <time>2021-08-05T16:52:04Z</time>
      </trkpt>
      <trkpt lat="48.01035" lon="7.05051">
        <ele>508.2</ele>
        <time>2021-08-05T16:52:05Z</time>
      </trkpt>
      <trkpt lat="48.01033" lon="7.05044">
        <ele>508.3</ele>
        <time>2021-08-05T16:52:07Z</time>
      </trkpt>
      <trkpt lat="48.01032" lon="7.05042">
        <ele>508.4</ele>
        <time>2021-08-05T16:52:08Z</time>
      </trkpt>
      <trkpt lat="48.01031" lon="7.05039">
        <ele>508.4</ele>
        <time>2021-08-05T16:52:09Z</time>
      </trkpt>
      <trkpt lat="48.0103" lon="7.05037">
        <ele>508.5</ele>
        <time>2021-08-05T16:52:10Z</time>
      </trkpt>
      <trkpt lat="48.01028" lon="7.05029">
        <ele>508.6</ele>
        <time>2021-08-05T16:52:12Z</time>
      </trkpt>
      <trkpt lat="48.01026" lon="7.05021">
        <ele>508.7</ele>
        <time>2021-08-05T16:52:13Z</time>
      </trkpt>
      <trkpt lat="48.01024" lon="7.05016">
        <ele>508.8</ele>
        <time>2021-08-05T16:52:14Z</time>
      </trkpt>
      <trkpt lat="48.01021" lon="7.05009">
        <ele>508.9</ele>
        <time>2021-08-05T16:52:16Z</time>
      </trkpt>
      <trkpt lat="48.01019" lon="7.05003">
        <ele>508.9</ele>
        <time>2021-08-05T16:52:17Z</time>
      </trkpt>
      <trkpt lat="48.01017" lon="7.04996">
        <ele>508.9</ele>
        <time>2021-08-05T16:52:19Z</time>
      </trkpt>
      <trkpt lat="48.01016" lon="7.0499">
        <ele>509</ele>
        <time>2021-08-05T16:52:20Z</time>
      </trkpt>
      <trkpt lat="48.01015" lon="7.04983">
        <ele>509</ele>
        <time>2021-08-05T16:52:21Z</time>
      </trkpt>
      <trkpt lat="48.01014" lon="7.04975">
        <ele>509</ele>
        <time>2021-08-05T16:52:22Z</time>
      </trkpt>
      <trkpt lat="48.01013" lon="7.04967">
        <ele>508.9</ele>
        <time>2021-08-05T16:52:24Z</time>
      </trkpt>
      <trkpt lat="48.01012" lon="7.04961">
        <ele>508.9</ele>
        <time>2021-08-05T16:52:25Z</time>
      </trkpt>
      <trkpt lat="48.0101" lon="7.04955">
        <ele>508.9</ele>
        <time>2021-08-05T16:52:26Z</time>
      </trkpt>
      <trkpt lat="48.01009" lon="7.04949">
        <ele>508.9</ele>
        <time>2021-08-05T16:52:27Z</time>
      </trkpt>
      <trkpt lat="48.01006" lon="7.04942">
        <ele>508.8</ele>
        <time>2021-08-05T16:52:28Z</time>
      </trkpt>
      <trkpt lat="48.01004" lon="7.04936">
        <ele>508.8</ele>
        <time>2021-08-05T16:52:29Z</time>
      </trkpt>
      <trkpt lat="48.01002" lon="7.04926">
        <ele>508.8</ele>
        <time>2021-08-05T16:52:31Z</time>
      </trkpt>
      <trkpt lat="48.00999" lon="7.04915">
        <ele>508.7</ele>
        <time>2021-08-05T16:52:32Z</time>
      </trkpt>
      <trkpt lat="48.00997" lon="7.04907">
        <ele>508.7</ele>
        <time>2021-08-05T16:52:34Z</time>
      </trkpt>
      <trkpt lat="48.00997" lon="7.04903">
        <ele>508.7</ele>
        <time>2021-08-05T16:52:35Z</time>
      </trkpt>
      <trkpt lat="48.00996" lon="7.04898">
        <ele>508.8</ele>
        <time>2021-08-05T16:52:36Z</time>
      </trkpt>
      <trkpt lat="48.00995" lon="7.04896">
        <ele>508.8</ele>
        <time>2021-08-05T16:52:37Z</time>
      </trkpt>
      <trkpt lat="48.00995" lon="7.04894">
        <ele>508.8</ele>
        <time>2021-08-05T16:52:38Z</time>
      </trkpt>
      <trkpt lat="48.00995" lon="7.04891">
        <ele>508.8</ele>
        <time>2021-08-05T16:52:40Z</time>
      </trkpt>
      <trkpt lat="48.00995" lon="7.04889">
        <ele>508.8</ele>
        <time>2021-08-05T16:52:41Z</time>
      </trkpt>
      <trkpt lat="48.00993" lon="7.04882">
        <ele>508.8</ele>
        <time>2021-08-05T16:52:44Z</time>
      </trkpt>
      <trkpt lat="48.00993" lon="7.0488">
        <ele>508.8</ele>
        <time>2021-08-05T16:52:45Z</time>
      </trkpt>
      <trkpt lat="48.00965" lon="7.04796">
        <ele>508.5</ele>
        <time>2021-08-05T16:53:02Z</time>
      </trkpt>
      <trkpt lat="48.00963" lon="7.04791">
        <ele>508.5</ele>
        <time>2021-08-05T16:53:03Z</time>
      </trkpt>
      <trkpt lat="48.0096" lon="7.04783">
        <ele>508.5</ele>
        <time>2021-08-05T16:53:04Z</time>
      </trkpt>
      <trkpt lat="48.00959" lon="7.04777">
        <ele>508.5</ele>
        <time>2021-08-05T16:53:05Z</time>
      </trkpt>
      <trkpt lat="48.00957" lon="7.04767">
        <ele>508.5</ele>
        <time>2021-08-05T16:53:06Z</time>
      </trkpt>
      <trkpt lat="48.00956" lon="7.04758">
        <ele>508.5</ele>
        <time>2021-08-05T16:53:07Z</time>
      </trkpt>
      <trkpt lat="48.00955" lon="7.0475">
        <ele>508.5</ele>
        <time>2021-08-05T16:53:08Z</time>
      </trkpt>
      <trkpt lat="48.00952" lon="7.04735">
        <ele>508.5</ele>
        <time>2021-08-05T16:53:10Z</time>
      </trkpt>
      <trkpt lat="48.00947" lon="7.04723">
        <ele>508.6</ele>
        <time>2021-08-05T16:53:12Z</time>
      </trkpt>
      <trkpt lat="48.00943" lon="7.04712">
        <ele>508.8</ele>
        <time>2021-08-05T16:53:14Z</time>
      </trkpt>
      <trkpt lat="48.00942" lon="7.04703">
        <ele>508.9</ele>
        <time>2021-08-05T16:53:16Z</time>
      </trkpt>
      <trkpt lat="48.00942" lon="7.04696">
        <ele>509</ele>
        <time>2021-08-05T16:53:17Z</time>
      </trkpt>
      <trkpt lat="48.00942" lon="7.04692">
        <ele>509</ele>
        <time>2021-08-05T16:53:18Z</time>
      </trkpt>
      <trkpt lat="48.00941" lon="7.04685">
        <ele>509.2</ele>
        <time>2021-08-05T16:53:20Z</time>
      </trkpt>
      <trkpt lat="48.00939" lon="7.0468">
        <ele>509.3</ele>
        <time>2021-08-05T16:53:21Z</time>
      </trkpt>
      <trkpt lat="48.00936" lon="7.0467">
        <ele>509.5</ele>
        <time>2021-08-05T16:53:23Z</time>
      </trkpt>
      <trkpt lat="48.00935" lon="7.04665">
        <ele>509.7</ele>
        <time>2021-08-05T16:53:24Z</time>
      </trkpt>
      <trkpt lat="48.00933" lon="7.04657">
        <ele>509.9</ele>
        <time>2021-08-05T16:53:26Z</time>
      </trkpt>
      <trkpt lat="48.00932" lon="7.04654">
        <ele>510</ele>
        <time>2021-08-05T16:53:27Z</time>
      </trkpt>
      <trkpt lat="48.00931" lon="7.04652">
        <ele>510</ele>
        <time>2021-08-05T16:53:28Z</time>
      </trkpt>
      <trkpt lat="48.00928" lon="7.0465">
        <ele>510.2</ele>
        <time>2021-08-05T16:53:29Z</time>
      </trkpt>
      <trkpt lat="48.00927" lon="7.04649">
        <ele>510.3</ele>
        <time>2021-08-05T16:53:30Z</time>
      </trkpt>
      <trkpt lat="48.00925" lon="7.04647">
        <ele>510.4</ele>
        <time>2021-08-05T16:53:32Z</time>
      </trkpt>
      <trkpt lat="48.00924" lon="7.04646">
        <ele>510.5</ele>
        <time>2021-08-05T16:53:33Z</time>
      </trkpt>
      <trkpt lat="48.00923" lon="7.04643">
        <ele>510.6</ele>
        <time>2021-08-05T16:53:34Z</time>
      </trkpt>
      <trkpt lat="48.00923" lon="7.04642">
        <ele>510.7</ele>
        <time>2021-08-05T16:53:35Z</time>
      </trkpt>
      <trkpt lat="48.00922" lon="7.04641">
        <ele>510.7</ele>
        <time>2021-08-05T16:53:36Z</time>
      </trkpt>
      <trkpt lat="48.00922" lon="7.04641">
        <ele>510.7</ele>
        <time>2021-08-05T16:53:37Z</time>
      </trkpt>
      <trkpt lat="48.00922" lon="7.0464">
        <ele>510.7</ele>
        <time>2021-08-05T16:53:38Z</time>
      </trkpt>
      <trkpt lat="48.00919" lon="7.04632">
        <ele>511.1</ele>
        <time>2021-08-05T16:53:40Z</time>
      </trkpt>
      <trkpt lat="48.00919" lon="7.04626">
        <ele>511.3</ele>
        <time>2021-08-05T16:53:42Z</time>
      </trkpt>
      <trkpt lat="48.00919" lon="7.04625">
        <ele>511.4</ele>
        <time>2021-08-05T16:53:43Z</time>
      </trkpt>
      <trkpt lat="48.00919" lon="7.04623">
        <ele>511.5</ele>
        <time>2021-08-05T16:53:44Z</time>
      </trkpt>
      <trkpt lat="48.00919" lon="7.04621">
        <ele>511.6</ele>
        <time>2021-08-05T16:53:45Z</time>
      </trkpt>
      <trkpt lat="48.00919" lon="7.0462">
        <ele>511.6</ele>
        <time>2021-08-05T16:53:46Z</time>
      </trkpt>
      <trkpt lat="48.0092" lon="7.04619">
        <ele>511.7</ele>
        <time>2021-08-05T16:53:47Z</time>
      </trkpt>
      <trkpt lat="48.0092" lon="7.04618">
        <ele>511.7</ele>
        <time>2021-08-05T16:53:49Z</time>
      </trkpt>
      <trkpt lat="48.0092" lon="7.04618">
        <ele>511.7</ele>
        <time>2021-08-05T16:53:50Z</time>
      </trkpt>
      <trkpt lat="48.00915" lon="7.04589">
        <ele>513.3</ele>
        <time>2021-08-05T16:54:03Z</time>
      </trkpt>
      <trkpt lat="48.00913" lon="7.04583">
        <ele>513.6</ele>
        <time>2021-08-05T16:54:04Z</time>
      </trkpt>
      <trkpt lat="48.00911" lon="7.04579">
        <ele>513.9</ele>
        <time>2021-08-05T16:54:05Z</time>
      </trkpt>
      <trkpt lat="48.0091" lon="7.04576">
        <ele>514.1</ele>
        <time>2021-08-05T16:54:06Z</time>
      </trkpt>
      <trkpt lat="48.00908" lon="7.0457">
        <ele>514.5</ele>
        <time>2021-08-05T16:54:08Z</time>
      </trkpt>
      <trkpt lat="48.00909" lon="7.04565">
        <ele>514.7</ele>
        <time>2021-08-05T16:54:10Z</time>
      </trkpt>
      <trkpt lat="48.00909" lon="7.04564">
        <ele>514.8</ele>
        <time>2021-08-05T16:54:11Z</time>
      </trkpt>
      <trkpt lat="48.0091" lon="7.04563">
        <ele>514.9</ele>
        <time>2021-08-05T16:54:13Z</time>
      </trkpt>
      <trkpt lat="48.00911" lon="7.04562">
        <ele>515</ele>
        <time>2021-08-05T16:54:14Z</time>
      </trkpt>
      <trkpt lat="48.00911" lon="7.04561">
        <ele>515</ele>
        <time>2021-08-05T16:54:15Z</time>
      </trkpt>
      <trkpt lat="48.00912" lon="7.0456">
        <ele>515.1</ele>
        <time>2021-08-05T16:54:16Z</time>
      </trkpt>
      <trkpt lat="48.00913" lon="7.04558">
        <ele>515.2</ele>
        <time>2021-08-05T16:54:17Z</time>
      </trkpt>
      <trkpt lat="48.00915" lon="7.04555">
        <ele>515.5</ele>
        <time>2021-08-05T16:54:19Z</time>
      </trkpt>
      <trkpt lat="48.00916" lon="7.04551">
        <ele>515.7</ele>
        <time>2021-08-05T16:54:20Z</time>
      </trkpt>
      <trkpt lat="48.00916" lon="7.04549">
        <ele>515.8</ele>
        <time>2021-08-05T16:54:21Z</time>
      </trkpt>
      <trkpt lat="48.00916" lon="7.04544">
        <ele>516.1</ele>
        <time>2021-08-05T16:54:23Z</time>
      </trkpt>
      <trkpt lat="48.00917" lon="7.0454">
        <ele>516.3</ele>
        <time>2021-08-05T16:54:24Z</time>
      </trkpt>
      <trkpt lat="48.00917" lon="7.04537">
        <ele>516.5</ele>
        <time>2021-08-05T16:54:25Z</time>
      </trkpt>
      <trkpt lat="48.00917" lon="7.04535">
        <ele>516.5</ele>
        <time>2021-08-05T16:54:26Z</time>
      </trkpt>
      <trkpt lat="48.00917" lon="7.04534">
        <ele>516.6</ele>
        <time>2021-08-05T16:54:27Z</time>
      </trkpt>
      <trkpt lat="48.00917" lon="7.04529">
        <ele>516.9</ele>
        <time>2021-08-05T16:54:28Z</time>
      </trkpt>
      <trkpt lat="48.00917" lon="7.04527">
        <ele>517</ele>
        <time>2021-08-05T16:54:29Z</time>
      </trkpt>
      <trkpt lat="48.00917" lon="7.04523">
        <ele>517.2</ele>
        <time>2021-08-05T16:54:30Z</time>
      </trkpt>
      <trkpt lat="48.00916" lon="7.04521">
        <ele>517.4</ele>
        <time>2021-08-05T16:54:31Z</time>
      </trkpt>
      <trkpt lat="48.00916" lon="7.04517">
        <ele>517.6</ele>
        <time>2021-08-05T16:54:33Z</time>
      </trkpt>
      <trkpt lat="48.00916" lon="7.04516">
        <ele>517.6</ele>
        <time>2021-08-05T16:54:34Z</time>
      </trkpt>
      <trkpt lat="48.00915" lon="7.04515">
        <ele>517.7</ele>
        <time>2021-08-05T16:54:35Z</time>
      </trkpt>
      <trkpt lat="48.00915" lon="7.04514">
        <ele>517.8</ele>
        <time>2021-08-05T16:54:36Z</time>
      </trkpt>
      <trkpt lat="48.00916" lon="7.04514">
        <ele>517.8</ele>
        <time>2021-08-05T16:54:38Z</time>
      </trkpt>
      <trkpt lat="48.00916" lon="7.04514">
        <ele>517.9</ele>
        <time>2021-08-05T16:54:39Z</time>
      </trkpt>
      <trkpt lat="48.00917" lon="7.04514">
        <ele>518</ele>
        <time>2021-08-05T16:54:40Z</time>
      </trkpt>
      <trkpt lat="48.00919" lon="7.04514">
        <ele>518.1</ele>
        <time>2021-08-05T16:54:41Z</time>
      </trkpt>
      <trkpt lat="48.00913" lon="7.04468">
        <ele>520.6</ele>
        <time>2021-08-05T16:55:10Z</time>
      </trkpt>
      <trkpt lat="48.00912" lon="7.04463">
        <ele>520.8</ele>
        <time>2021-08-05T16:55:12Z</time>
      </trkpt>
      <trkpt lat="48.0091" lon="7.04461">
        <ele>520.9</ele>
        <time>2021-08-05T16:55:13Z</time>
      </trkpt>
      <trkpt lat="48.00908" lon="7.04457">
        <ele>521.2</ele>
        <time>2021-08-05T16:55:15Z</time>
      </trkpt>
      <trkpt lat="48.00906" lon="7.04452">
        <ele>521.4</ele>
        <time>2021-08-05T16:55:17Z</time>
      </trkpt>
      <trkpt lat="48.00906" lon="7.04446">
        <ele>521.6</ele>
        <time>2021-08-05T16:55:18Z</time>
      </trkpt>
      <trkpt lat="48.00906" lon="7.04444">
        <ele>521.7</ele>
        <time>2021-08-05T16:55:19Z</time>
      </trkpt>
      <trkpt lat="48.00906" lon="7.04435">
        <ele>521.9</ele>
        <time>2021-08-05T16:55:21Z</time>
      </trkpt>
      <trkpt lat="48.00905" lon="7.0443">
        <ele>522</ele>
        <time>2021-08-05T16:55:22Z</time>
      </trkpt>
      <trkpt lat="48.00905" lon="7.04426">
        <ele>522.1</ele>
        <time>2021-08-05T16:55:23Z</time>
      </trkpt>
      <trkpt lat="48.00905" lon="7.04421">
        <ele>522.2</ele>
        <time>2021-08-05T16:55:24Z</time>
      </trkpt>
      <trkpt lat="48.00905" lon="7.04416">
        <ele>522.3</ele>
        <time>2021-08-05T16:55:25Z</time>
      </trkpt>
      <trkpt lat="48.00906" lon="7.04412">
        <ele>522.4</ele>
        <time>2021-08-05T16:55:27Z</time>
      </trkpt>
      <trkpt lat="48.00905" lon="7.04407">
        <ele>522.5</ele>
        <time>2021-08-05T16:55:29Z</time>
      </trkpt>
      <trkpt lat="48.00903" lon="7.04402">
        <ele>522.6</ele>
        <time>2021-08-05T16:55:30Z</time>
      </trkpt>
      <trkpt lat="48.00903" lon="7.044">
        <ele>522.6</ele>
        <time>2021-08-05T16:55:31Z</time>
      </trkpt>
      <trkpt lat="48.00901" lon="7.04395">
        <ele>522.7</ele>
        <time>2021-08-05T16:55:32Z</time>
      </trkpt>
      <trkpt lat="48.00899" lon="7.0439">
        <ele>522.8</ele>
        <time>2021-08-05T16:55:33Z</time>
      </trkpt>
      <trkpt lat="48.00897" lon="7.04387">
        <ele>522.9</ele>
        <time>2021-08-05T16:55:34Z</time>
      </trkpt>
      <trkpt lat="48.00896" lon="7.04384">
        <ele>523</ele>
        <time>2021-08-05T16:55:35Z</time>
      </trkpt>
      <trkpt lat="48.00895" lon="7.04379">
        <ele>523.1</ele>
        <time>2021-08-05T16:55:37Z</time>
      </trkpt>
      <trkpt lat="48.00895" lon="7.04378">
        <ele>523.1</ele>
        <time>2021-08-05T16:55:38Z</time>
      </trkpt>
      <trkpt lat="48.00894" lon="7.04376">
        <ele>523.2</ele>
        <time>2021-08-05T16:55:39Z</time>
      </trkpt>
      <trkpt lat="48.00894" lon="7.04375">
        <ele>523.2</ele>
        <time>2021-08-05T16:55:40Z</time>
      </trkpt>
      <trkpt lat="48.00894" lon="7.04374">
        <ele>523.2</ele>
        <time>2021-08-05T16:55:41Z</time>
      </trkpt>
      <trkpt lat="48.00894" lon="7.04371">
        <ele>523.3</ele>
        <time>2021-08-05T16:55:43Z</time>
      </trkpt>
      <trkpt lat="48.00895" lon="7.0437">
        <ele>523.3</ele>
        <time>2021-08-05T16:55:44Z</time>
      </trkpt>
      <trkpt lat="48.00895" lon="7.04369">
        <ele>523.3</ele>
        <time>2021-08-05T16:55:45Z</time>
      </trkpt>
      <trkpt lat="48.00895" lon="7.04366">
        <ele>523.4</ele>
        <time>2021-08-05T16:55:46Z</time>
      </trkpt>
      <trkpt lat="48.00894" lon="7.04363">
        <ele>523.4</ele>
        <time>2021-08-05T16:55:48Z</time>
      </trkpt>
      <trkpt lat="48.00894" lon="7.04362">
        <ele>523.4</ele>
        <time>2021-08-05T16:55:49Z</time>
      </trkpt>
      <trkpt lat="48.00884" lon="7.04321">
        <ele>524.4</ele>
        <time>2021-08-05T16:55:58Z</time>
      </trkpt>
      <trkpt lat="48.0088" lon="7.04313">
        <ele>524.3</ele>
        <time>2021-08-05T16:55:59Z</time>
      </trkpt>
      <trkpt lat="48.00875" lon="7.04306">
        <ele>524.2</ele>
        <time>2021-08-05T16:56:00Z</time>
      </trkpt>
      <trkpt lat="48.00868" lon="7.04296">
        <ele>523.8</ele>
        <time>2021-08-05T16:56:01Z</time>
      </trkpt>
      <trkpt lat="48.00861" lon="7.04284">
        <ele>523.3</ele>
        <time>2021-08-05T16:56:03Z</time>
      </trkpt>
      <trkpt lat="48.00858" lon="7.04276">
        <ele>522.9</ele>
        <time>2021-08-05T16:56:04Z</time>
      </trkpt>
      <trkpt lat="48.00854" lon="7.04268">
        <ele>522.4</ele>
        <time>2021-08-05T16:56:05Z</time>
      </trkpt>
      <trkpt lat="48.00845" lon="7.04253">
        <ele>521.6</ele>
        <time>2021-08-05T16:56:07Z</time>
      </trkpt>
      <trkpt lat="48.0084" lon="7.04247">
        <ele>521.4</ele>
        <time>2021-08-05T16:56:08Z</time>
      </trkpt>
      <trkpt lat="48.00837" lon="7.04243">
        <ele>521.2</ele>
        <time>2021-08-05T16:56:09Z</time>
      </trkpt>
      <trkpt lat="48.00834" lon="7.04238">
        <ele>521.1</ele>
        <time>2021-08-05T16:56:10Z</time>
      </trkpt>
      <trkpt lat="48.00829" lon="7.04231">
        <ele>520.9</ele>
        <time>2021-08-05T16:56:12Z</time>
      </trkpt>
      <trkpt lat="48.00827" lon="7.04225">
        <ele>520.8</ele>
        <time>2021-08-05T16:56:13Z</time>
      </trkpt>
      <trkpt lat="48.00824" lon="7.0422">
        <ele>520.8</ele>
        <time>2021-08-05T16:56:14Z</time>
      </trkpt>
      <trkpt lat="48.00822" lon="7.04216">
        <ele>520.7</ele>
        <time>2021-08-05T16:56:15Z</time>
      </trkpt>
      <trkpt lat="48.0082" lon="7.0421">
        <ele>520.7</ele>
        <time>2021-08-05T16:56:17Z</time>
      </trkpt>
      <trkpt lat="48.00819" lon="7.04208">
        <ele>520.7</ele>
        <time>2021-08-05T16:56:18Z</time>
      </trkpt>
      <trkpt lat="48.00817" lon="7.04205">
        <ele>520.7</ele>
        <time>2021-08-05T16:56:19Z</time>
      </trkpt>
      <trkpt lat="48.00816" lon="7.042">
        <ele>520.7</ele>
        <time>2021-08-05T16:56:21Z</time>
      </trkpt>
      <trkpt lat="48.00814" lon="7.04196">
        <ele>520.7</ele>
        <time>2021-08-05T16:56:22Z</time>
      </trkpt>
      <trkpt lat="48.00812" lon="7.04192">
        <ele>520.8</ele>
        <time>2021-08-05T16:56:23Z</time>
      </trkpt>
      <trkpt lat="48.00809" lon="7.04185">
        <ele>520.8</ele>
        <time>2021-08-05T16:56:24Z</time>
      </trkpt>
      <trkpt lat="48.00808" lon="7.04182">
        <ele>520.9</ele>
        <time>2021-08-05T16:56:25Z</time>
      </trkpt>
      <trkpt lat="48.00806" lon="7.04178">
        <ele>521</ele>
        <time>2021-08-05T16:56:26Z</time>
      </trkpt>
      <trkpt lat="48.00805" lon="7.04173">
        <ele>521.1</ele>
        <time>2021-08-05T16:56:27Z</time>
      </trkpt>
      <trkpt lat="48.00804" lon="7.04169">
        <ele>521.2</ele>
        <time>2021-08-05T16:56:29Z</time>
      </trkpt>
      <trkpt lat="48.00803" lon="7.04165">
        <ele>521.3</ele>
        <time>2021-08-05T16:56:30Z</time>
      </trkpt>
      <trkpt lat="48.00801" lon="7.04161">
        <ele>521.4</ele>
        <time>2021-08-05T16:56:31Z</time>
      </trkpt>
      <trkpt lat="48.00798" lon="7.04157">
        <ele>521.6</ele>
        <time>2021-08-05T16:56:32Z</time>
      </trkpt>
      <trkpt lat="48.00796" lon="7.04153">
        <ele>521.7</ele>
        <time>2021-08-05T16:56:34Z</time>
      </trkpt>
      <trkpt lat="48.00793" lon="7.0415">
        <ele>521.9</ele>
        <time>2021-08-05T16:56:35Z</time>
      </trkpt>
      <trkpt lat="48.00791" lon="7.04146">
        <ele>522.1</ele>
        <time>2021-08-05T16:56:36Z</time>
      </trkpt>
      <trkpt lat="48.00788" lon="7.04142">
        <ele>522.3</ele>
        <time>2021-08-05T16:56:37Z</time>
      </trkpt>
      <trkpt lat="48.00785" lon="7.04135">
        <ele>522.6</ele>
        <time>2021-08-05T16:56:38Z</time>
      </trkpt>
      <trkpt lat="48.00782" lon="7.0413">
        <ele>522.8</ele>
        <time>2021-08-05T16:56:40Z</time>
      </trkpt>
      <trkpt lat="48.0078" lon="7.04126">
        <ele>523</ele>
        <time>2021-08-05T16:56:41Z</time>
      </trkpt>
      <trkpt lat="48.00777" lon="7.04121">
        <ele>523.1</ele>
        <time>2021-08-05T16:56:42Z</time>
      </trkpt>
      <trkpt lat="48.00772" lon="7.04112">
        <ele>523.4</ele>
        <time>2021-08-05T16:56:44Z</time>
      </trkpt>
      <trkpt lat="48.0077" lon="7.04109">
        <ele>523.5</ele>
        <time>2021-08-05T16:56:46Z</time>
      </trkpt>
      <trkpt lat="48.00768" lon="7.04108">
        <ele>523.6</ele>
        <time>2021-08-05T16:56:47Z</time>
      </trkpt>
      <trkpt lat="48.00767" lon="7.04106">
        <ele>523.6</ele>
        <time>2021-08-05T16:56:48Z</time>
      </trkpt>
      <trkpt lat="48.00765" lon="7.04103">
        <ele>523.7</ele>
        <time>2021-08-05T16:56:49Z</time>
      </trkpt>
      <trkpt lat="48.00764" lon="7.04101">
        <ele>523.8</ele>
        <time>2021-08-05T16:56:51Z</time>
      </trkpt>
      <trkpt lat="48.00764" lon="7.04099">
        <ele>523.8</ele>
        <time>2021-08-05T16:56:52Z</time>
      </trkpt>
      <trkpt lat="48.00763" lon="7.04097">
        <ele>523.9</ele>
        <time>2021-08-05T16:56:53Z</time>
      </trkpt>
      <trkpt lat="48.0076" lon="7.04094">
        <ele>524</ele>
        <time>2021-08-05T16:56:55Z</time>
      </trkpt>
      <trkpt lat="48.0076" lon="7.04094">
        <ele>524</ele>
        <time>2021-08-05T16:56:56Z</time>
      </trkpt>
      <trkpt lat="48.00759" lon="7.04096">
        <ele>524.1</ele>
        <time>2021-08-05T16:56:58Z</time>
      </trkpt>
      <trkpt lat="48.0076" lon="7.04096">
        <ele>524.1</ele>
        <time>2021-08-05T16:56:59Z</time>
      </trkpt>
      <trkpt lat="48.0076" lon="7.04096">
        <ele>524.1</ele>
        <time>2021-08-05T16:57:00Z</time>
      </trkpt>
      <trkpt lat="48.0076" lon="7.04096">
        <ele>524.1</ele>
        <time>2021-08-05T16:57:02Z</time>
      </trkpt>
      <trkpt lat="48.0076" lon="7.04096">
        <ele>524.1</ele>
        <time>2021-08-05T16:57:03Z</time>
      </trkpt>
      <trkpt lat="48.0076" lon="7.04096">
        <ele>524.1</ele>
        <time>2021-08-05T16:57:04Z</time>
      </trkpt>
      <trkpt lat="48.0076" lon="7.04096">
        <ele>524.1</ele>
        <time>2021-08-05T16:57:06Z</time>
      </trkpt>
      <trkpt lat="48.00724" lon="7.03949">
        <ele>529</ele>
        <time>2021-08-05T17:01:02Z</time>
      </trkpt>
      <trkpt lat="48.00727" lon="7.03947">
        <ele>529.1</ele>
        <time>2021-08-05T17:01:04Z</time>
      </trkpt>
      <trkpt lat="48.00728" lon="7.03946">
        <ele>529.2</ele>
        <time>2021-08-05T17:01:05Z</time>
      </trkpt>
      <trkpt lat="48.0073" lon="7.03945">
        <ele>529.2</ele>
        <time>2021-08-05T17:01:06Z</time>
      </trkpt>
      <trkpt lat="48.00732" lon="7.03942">
        <ele>529.3</ele>
        <time>2021-08-05T17:01:08Z</time>
      </trkpt>
      <trkpt lat="48.00733" lon="7.03943">
        <ele>529.3</ele>
        <time>2021-08-05T17:01:10Z</time>
      </trkpt>
      <trkpt lat="48.00734" lon="7.03943">
        <ele>529.3</ele>
        <time>2021-08-05T17:01:11Z</time>
      </trkpt>
      <trkpt lat="48.00734" lon="7.03944">
        <ele>529.3</ele>
        <time>2021-08-05T17:01:13Z</time>
      </trkpt>
      <trkpt lat="48.00734" lon="7.03943">
        <ele>529.3</ele>
        <time>2021-08-05T17:01:14Z</time>
      </trkpt>
      <trkpt lat="48.00734" lon="7.03944">
        <ele>529.3</ele>
        <time>2021-08-05T17:01:16Z</time>
      </trkpt>
      <trkpt lat="48.00751" lon="7.03943">
        <ele>529</ele>
        <time>2021-08-05T17:09:31Z</time>
      </trkpt>
      <trkpt lat="48.00754" lon="7.0394">
        <ele>528.9</ele>
        <time>2021-08-05T17:09:32Z</time>
      </trkpt>
      <trkpt lat="48.00756" lon="7.03937">
        <ele>528.8</ele>
        <time>2021-08-05T17:09:33Z</time>
      </trkpt>
      <trkpt lat="48.00757" lon="7.03937">
        <ele>528.8</ele>
        <time>2021-08-05T17:09:35Z</time>
      </trkpt>
      <trkpt lat="48.00757" lon="7.03937">
        <ele>528.8</ele>
        <time>2021-08-05T17:09:36Z</time>
      </trkpt>
      <trkpt lat="48.00757" lon="7.03937">
        <ele>528.8</ele>
        <time>2021-08-05T17:09:38Z</time>
      </trkpt>
      <trkpt lat="48.00757" lon="7.03936">
        <ele>528.8</ele>
        <time>2021-08-05T17:09:40Z</time>
      </trkpt>
      <trkpt lat="48.00757" lon="7.03936">
        <ele>528.8</ele>
        <time>2021-08-05T17:09:42Z</time>
      </trkpt>
      <trkpt lat="48.00752" lon="7.03979">
        <ele>528.3</ele>
        <time>2021-08-05T17:19:05Z</time>
      </trkpt>
      <trkpt lat="48.00757" lon="7.03975">
        <ele>528.2</ele>
        <time>2021-08-05T17:19:07Z</time>
      </trkpt>
      <trkpt lat="48.0076" lon="7.03972">
        <ele>528.1</ele>
        <time>2021-08-05T17:19:08Z</time>
      </trkpt>
      <trkpt lat="48.00762" lon="7.03969">
        <ele>528.1</ele>
        <time>2021-08-05T17:19:10Z</time>
      </trkpt>
      <trkpt lat="48.00765" lon="7.03966">
        <ele>528</ele>
        <time>2021-08-05T17:19:11Z</time>
      </trkpt>
      <trkpt lat="48.00769" lon="7.03962">
        <ele>527.9</ele>
        <time>2021-08-05T17:19:13Z</time>
      </trkpt>
      <trkpt lat="48.0077" lon="7.03959">
        <ele>527.9</ele>
        <time>2021-08-05T17:19:14Z</time>
      </trkpt>
      <trkpt lat="48.0077" lon="7.03956">
        <ele>527.8</ele>
        <time>2021-08-05T17:19:16Z</time>
      </trkpt>
      <trkpt lat="48.00773" lon="7.03952">
        <ele>527.7</ele>
        <time>2021-08-05T17:19:18Z</time>
      </trkpt>
      <trkpt lat="48.00773" lon="7.03952">
        <ele>527.7</ele>
        <time>2021-08-05T17:19:19Z</time>
      </trkpt>
      <trkpt lat="48.00776" lon="7.03951">
        <ele>527.7</ele>
        <time>2021-08-05T17:19:21Z</time>
      </trkpt>
      <trkpt lat="48.00746" lon="7.03961">
        <ele>527</ele>
        <time>2021-08-05T17:32:51Z</time>
      </trkpt>
      <trkpt lat="48.00749" lon="7.03964">
        <ele>527</ele>
        <time>2021-08-05T17:32:52Z</time>
      </trkpt>
      <trkpt lat="48.00752" lon="7.03967">
        <ele>526.9</ele>
        <time>2021-08-05T17:32:54Z</time>
      </trkpt>
      <trkpt lat="48.00755" lon="7.03968">
        <ele>526.8</ele>
        <time>2021-08-05T17:32:55Z</time>
      </trkpt>
      <trkpt lat="48.00757" lon="7.03968">
        <ele>526.8</ele>
        <time>2021-08-05T17:32:57Z</time>
      </trkpt>
      <trkpt lat="48.00757" lon="7.03968">
        <ele>526.8</ele>
        <time>2021-08-05T17:32:58Z</time>
      </trkpt>
      <trkpt lat="48.00758" lon="7.03967">
        <ele>526.8</ele>
        <time>2021-08-05T17:32:59Z</time>
      </trkpt>
      <trkpt lat="48.00758" lon="7.03966">
        <ele>526.8</ele>
        <time>2021-08-05T17:33:00Z</time>
      </trkpt>
      <trkpt lat="48.0076" lon="7.03965">
        <ele>526.7</ele>
        <time>2021-08-05T17:33:02Z</time>
      </trkpt>
      <trkpt lat="48.00766" lon="7.0398">
        <ele>526.5</ele>
        <time>2021-08-05T17:33:04Z</time>
      </trkpt>
      <trkpt lat="48.00768" lon="7.03997">
        <ele>526.2</ele>
        <time>2021-08-05T17:34:53Z</time>
      </trkpt>
      <trkpt lat="48.0077" lon="7.04014">
        <ele>526</ele>
        <time>2021-08-05T17:34:54Z</time>
      </trkpt>
      <trkpt lat="48.00773" lon="7.0402">
        <ele>525.9</ele>
        <time>2021-08-05T17:34:56Z</time>
      </trkpt>
      <trkpt lat="48.00774" lon="7.04021">
        <ele>525.9</ele>
        <time>2021-08-05T17:34:57Z</time>
      </trkpt>
      <trkpt lat="48.00776" lon="7.04023">
        <ele>525.8</ele>
        <time>2021-08-05T17:34:59Z</time>
      </trkpt>
      <trkpt lat="48.00778" lon="7.04025">
        <ele>525.8</ele>
        <time>2021-08-05T17:35:00Z</time>
      </trkpt>
      <trkpt lat="48.00781" lon="7.04029">
        <ele>525.6</ele>
        <time>2021-08-05T17:35:02Z</time>
      </trkpt>
      <trkpt lat="48.00781" lon="7.04029">
        <ele>525.6</ele>
        <time>2021-08-05T17:35:03Z</time>
      </trkpt>
      <trkpt lat="48.00781" lon="7.04029">
        <ele>525.6</ele>
        <time>2021-08-05T17:35:05Z</time>
      </trkpt>
      <trkpt lat="48.00781" lon="7.04029">
        <ele>525.6</ele>
        <time>2021-08-05T17:35:06Z</time>
      </trkpt>
      <trkpt lat="48.00781" lon="7.04029">
        <ele>525.6</ele>
        <time>2021-08-05T17:35:08Z</time>
      </trkpt>
      <trkpt lat="48.00781" lon="7.04029">
        <ele>525.6</ele>
        <time>2021-08-05T17:35:09Z</time>
      </trkpt>
      <trkpt lat="48.00781" lon="7.04029">
        <ele>525.6</ele>
        <time>2021-08-05T17:35:11Z</time>
      </trkpt>
      <trkpt lat="48.00746" lon="7.03946">
        <ele>528.4</ele>
        <time>2021-08-05T17:46:38Z</time>
      </trkpt>
      <trkpt lat="48.00748" lon="7.03943">
        <ele>528.5</ele>
        <time>2021-08-05T17:46:40Z</time>
      </trkpt>
      <trkpt lat="48.00749" lon="7.03942">
        <ele>528.6</ele>
        <time>2021-08-05T17:46:41Z</time>
      </trkpt>
      <trkpt lat="48.00749" lon="7.03943">
        <ele>528.6</ele>
        <time>2021-08-05T17:46:42Z</time>
      </trkpt>
      <trkpt lat="48.0075" lon="7.03946">
        <ele>528.7</ele>
        <time>2021-08-05T17:46:44Z</time>
      </trkpt>
      <trkpt lat="48.0075" lon="7.03949">
        <ele>528.8</ele>
        <time>2021-08-05T17:46:46Z</time>
      </trkpt>
      <trkpt lat="48.00747" lon="7.03949">
        <ele>528.9</ele>
        <time>2021-08-05T17:46:47Z</time>
      </trkpt>
      <trkpt lat="48.00744" lon="7.03948">
        <ele>529</ele>
        <time>2021-08-05T17:46:48Z</time>
      </trkpt>
      <trkpt lat="48.0074" lon="7.03948">
        <ele>529.1</ele>
        <time>2021-08-05T17:46:49Z</time>
      </trkpt>
      <trkpt lat="48.00737" lon="7.03947">
        <ele>529.3</ele>
        <time>2021-08-05T17:46:50Z</time>
      </trkpt>
      <trkpt lat="48.00734" lon="7.03946">
        <ele>529.4</ele>
        <time>2021-08-05T17:46:52Z</time>
      </trkpt>
      <trkpt lat="48.00731" lon="7.03945">
        <ele>529.5</ele>
        <time>2021-08-05T18:06:35Z</time>
      </trkpt>
      <trkpt lat="48.00728" lon="7.03944">
        <ele>529.6</ele>
        <time>2021-08-05T18:06:36Z</time>
      </trkpt>
      <trkpt lat="48.00725" lon="7.03938">
        <ele>529.7</ele>
        <time>2021-08-05T18:06:37Z</time>
      </trkpt>
      <trkpt lat="48.00723" lon="7.03934">
        <ele>529.8</ele>
        <time>2021-08-05T18:06:38Z</time>
      </trkpt>
      <trkpt lat="48.00722" lon="7.03928">
        <ele>529.9</ele>
        <time>2021-08-05T18:06:39Z</time>
      </trkpt>
      <trkpt lat="48.0072" lon="7.03923">
        <ele>530</ele>
        <time>2021-08-05T18:06:41Z</time>
      </trkpt>
      <trkpt lat="48.00719" lon="7.03918">
        <ele>530.1</ele>
        <time>2021-08-05T18:06:42Z</time>
      </trkpt>
      <trkpt lat="48.00718" lon="7.03913">
        <ele>530.1</ele>
        <time>2021-08-05T18:06:43Z</time>
      </trkpt>
      <trkpt lat="48.00718" lon="7.03908">
        <ele>530.2</ele>
        <time>2021-08-05T18:06:44Z</time>
      </trkpt>
      <trkpt lat="48.00717" lon="7.03903">
        <ele>530.3</ele>
        <time>2021-08-05T18:06:45Z</time>
      </trkpt>
      <trkpt lat="48.00717" lon="7.03897">
        <ele>530.4</ele>
        <time>2021-08-05T18:06:47Z</time>
      </trkpt>
      <trkpt lat="48.00717" lon="7.0389">
        <ele>530.5</ele>
        <time>2021-08-05T18:06:48Z</time>
      </trkpt>
      <trkpt lat="48.00717" lon="7.03886">
        <ele>530.6</ele>
        <time>2021-08-05T18:06:49Z</time>
      </trkpt>
      <trkpt lat="48.00717" lon="7.03882">
        <ele>530.7</ele>
        <time>2021-08-05T18:06:50Z</time>
      </trkpt>
      <trkpt lat="48.00717" lon="7.03876">
        <ele>530.9</ele>
        <time>2021-08-05T18:06:52Z</time>
      </trkpt>
      <trkpt lat="48.00719" lon="7.03871">
        <ele>531</ele>
        <time>2021-08-05T18:06:53Z</time>
      </trkpt>
      <trkpt lat="48.0072" lon="7.03867">
        <ele>531.1</ele>
        <time>2021-08-05T18:06:54Z</time>
      </trkpt>
      <trkpt lat="48.00721" lon="7.03863">
        <ele>531.2</ele>
        <time>2021-08-05T18:06:56Z</time>
      </trkpt>
      <trkpt lat="48.00723" lon="7.03856">
        <ele>531.4</ele>
        <time>2021-08-05T18:06:58Z</time>
      </trkpt>
      <trkpt lat="48.00722" lon="7.0385">
        <ele>531.5</ele>
        <time>2021-08-05T18:06:59Z</time>
      </trkpt>
      <trkpt lat="48.00722" lon="7.03849">
        <ele>531.5</ele>
        <time>2021-08-05T18:07:00Z</time>
      </trkpt>
      <trkpt lat="48.0072" lon="7.03842">
        <ele>531.6</ele>
        <time>2021-08-05T18:07:02Z</time>
      </trkpt>
      <trkpt lat="48.00718" lon="7.03837">
        <ele>531.6</ele>
        <time>2021-08-05T18:07:04Z</time>
      </trkpt>
      <trkpt lat="48.00717" lon="7.03832">
        <ele>531.6</ele>
        <time>2021-08-05T18:07:06Z</time>
      </trkpt>
      <trkpt lat="48.00716" lon="7.03831">
        <ele>531.6</ele>
        <time>2021-08-05T18:07:07Z</time>
      </trkpt>
      <trkpt lat="48.00716" lon="7.03828">
        <ele>531.6</ele>
        <time>2021-08-05T18:07:08Z</time>
      </trkpt>
      <trkpt lat="48.00716" lon="7.03827">
        <ele>531.5</ele>
        <time>2021-08-05T18:07:09Z</time>
      </trkpt>
      <trkpt lat="48.00716" lon="7.03827">
        <ele>531.5</ele>
        <time>2021-08-05T18:07:10Z</time>
      </trkpt>
      <trkpt lat="48.00716" lon="7.03826">
        <ele>531.5</ele>
        <time>2021-08-05T18:07:12Z</time>
      </trkpt>
      <trkpt lat="48.00716" lon="7.03825">
        <ele>531.5</ele>
        <time>2021-08-05T18:07:13Z</time>
      </trkpt>
      <trkpt lat="48.00715" lon="7.03822">
        <ele>531.5</ele>
        <time>2021-08-05T18:07:14Z</time>
      </trkpt>
      <trkpt lat="48.00711" lon="7.03817">
        <ele>531.4</ele>
        <time>2021-08-05T18:07:16Z</time>
      </trkpt>
      <trkpt lat="48.00708" lon="7.03813">
        <ele>531.3</ele>
        <time>2021-08-05T18:07:17Z</time>
      </trkpt>
      <trkpt lat="48.00705" lon="7.0381">
        <ele>531.3</ele>
        <time>2021-08-05T18:07:18Z</time>
      </trkpt>
      <trkpt lat="48.00701" lon="7.03807">
        <ele>531.3</ele>
        <time>2021-08-05T18:07:20Z</time>
      </trkpt>
      <trkpt lat="48.00698" lon="7.03805">
        <ele>531.3</ele>
        <time>2021-08-05T18:07:21Z</time>
      </trkpt>
      <trkpt lat="48.00694" lon="7.03803">
        <ele>531.3</ele>
        <time>2021-08-05T18:07:23Z</time>
      </trkpt>
      <trkpt lat="48.00692" lon="7.03802">
        <ele>531.3</ele>
        <time>2021-08-05T18:07:24Z</time>
      </trkpt>
      <trkpt lat="48.00689" lon="7.038">
        <ele>531.3</ele>
        <time>2021-08-05T18:07:25Z</time>
      </trkpt>
      <trkpt lat="48.00685" lon="7.03798">
        <ele>531.2</ele>
        <time>2021-08-05T18:07:27Z</time>
      </trkpt>
      <trkpt lat="48.00682" lon="7.03796">
        <ele>531.1</ele>
        <time>2021-08-05T18:07:28Z</time>
      </trkpt>
      <trkpt lat="48.00679" lon="7.03792">
        <ele>531</ele>
        <time>2021-08-05T18:07:29Z</time>
      </trkpt>
      <trkpt lat="48.00677" lon="7.03788">
        <ele>530.8</ele>
        <time>2021-08-05T18:07:30Z</time>
      </trkpt>
      <trkpt lat="48.00675" lon="7.0378">
        <ele>530.5</ele>
        <time>2021-08-05T18:07:32Z</time>
      </trkpt>
      <trkpt lat="48.00673" lon="7.03774">
        <ele>530.2</ele>
        <time>2021-08-05T18:07:33Z</time>
      </trkpt>
      <trkpt lat="48.00672" lon="7.03768">
        <ele>529.9</ele>
        <time>2021-08-05T18:07:34Z</time>
      </trkpt>
      <trkpt lat="48.00671" lon="7.03761">
        <ele>529.6</ele>
        <time>2021-08-05T18:07:35Z</time>
      </trkpt>
      <trkpt lat="48.00671" lon="7.03753">
        <ele>529.2</ele>
        <time>2021-08-05T18:07:37Z</time>
      </trkpt>
      <trkpt lat="48.00672" lon="7.03738">
        <ele>528.3</ele>
        <time>2021-08-05T18:07:38Z</time>
      </trkpt>
      <trkpt lat="48.00671" lon="7.0373">
        <ele>527.8</ele>
        <time>2021-08-05T18:07:39Z</time>
      </trkpt>
      <trkpt lat="48.00669" lon="7.03715">
        <ele>527.1</ele>
        <time>2021-08-05T18:07:41Z</time>
      </trkpt>
      <trkpt lat="48.00668" lon="7.0371">
        <ele>526.9</ele>
        <time>2021-08-05T18:07:42Z</time>
      </trkpt>
      <trkpt lat="48.0066" lon="7.03699">
        <ele>526.5</ele>
        <time>2021-08-05T18:07:44Z</time>
      </trkpt>
      <trkpt lat="48.00656" lon="7.03694">
        <ele>526.4</ele>
        <time>2021-08-05T18:07:45Z</time>
      </trkpt>
      <trkpt lat="48.00649" lon="7.03687">
        <ele>526.3</ele>
        <time>2021-08-05T18:07:47Z</time>
      </trkpt>
      <trkpt lat="48.00646" lon="7.03682">
        <ele>526.3</ele>
        <time>2021-08-05T18:07:48Z</time>
      </trkpt>
      <trkpt lat="48.00644" lon="7.03676">
        <ele>526.4</ele>
        <time>2021-08-05T18:07:49Z</time>
      </trkpt>
      <trkpt lat="48.0064" lon="7.03672">
        <ele>526.4</ele>
        <time>2021-08-05T18:07:51Z</time>
      </trkpt>
      <trkpt lat="48.00631" lon="7.03664">
        <ele>526.5</ele>
        <time>2021-08-05T18:07:52Z</time>
      </trkpt>
      <trkpt lat="48.00626" lon="7.03658">
        <ele>526.6</ele>
        <time>2021-08-05T18:07:53Z</time>
      </trkpt>
      <trkpt lat="48.00622" lon="7.03653">
        <ele>526.7</ele>
        <time>2021-08-05T18:07:54Z</time>
      </trkpt>
      <trkpt lat="48.00614" lon="7.03643">
        <ele>526.9</ele>
        <time>2021-08-05T18:07:56Z</time>
      </trkpt>
      <trkpt lat="48.0061" lon="7.03637">
        <ele>527</ele>
        <time>2021-08-05T18:07:57Z</time>
      </trkpt>
      <trkpt lat="48.00605" lon="7.03625">
        <ele>527.3</ele>
        <time>2021-08-05T18:07:59Z</time>
      </trkpt>
      <trkpt lat="48.00602" lon="7.03615">
        <ele>527.5</ele>
        <time>2021-08-05T18:08:01Z</time>
      </trkpt>
      <trkpt lat="48.00599" lon="7.03606">
        <ele>527.7</ele>
        <time>2021-08-05T18:08:03Z</time>
      </trkpt>
      <trkpt lat="48.00596" lon="7.03595">
        <ele>527.9</ele>
        <time>2021-08-05T18:08:04Z</time>
      </trkpt>
      <trkpt lat="48.00593" lon="7.03582">
        <ele>528.3</ele>
        <time>2021-08-05T18:08:06Z</time>
      </trkpt>
      <trkpt lat="48.00593" lon="7.03574">
        <ele>528.5</ele>
        <time>2021-08-05T18:08:07Z</time>
      </trkpt>
      <trkpt lat="48.00593" lon="7.03562">
        <ele>528.8</ele>
        <time>2021-08-05T18:08:09Z</time>
      </trkpt>
      <trkpt lat="48.00591" lon="7.03554">
        <ele>529</ele>
        <time>2021-08-05T18:08:10Z</time>
      </trkpt>
      <trkpt lat="48.0059" lon="7.03548">
        <ele>529.1</ele>
        <time>2021-08-05T18:08:11Z</time>
      </trkpt>
      <trkpt lat="48.00589" lon="7.03544">
        <ele>529.2</ele>
        <time>2021-08-05T18:08:12Z</time>
      </trkpt>
      <trkpt lat="48.00588" lon="7.03538">
        <ele>529.3</ele>
        <time>2021-08-05T18:08:14Z</time>
      </trkpt>
      <trkpt lat="48.00586" lon="7.0353">
        <ele>529.5</ele>
        <time>2021-08-05T18:08:15Z</time>
      </trkpt>
      <trkpt lat="48.00585" lon="7.03525">
        <ele>529.6</ele>
        <time>2021-08-05T18:08:16Z</time>
      </trkpt>
      <trkpt lat="48.00585" lon="7.03521">
        <ele>529.6</ele>
        <time>2021-08-05T18:08:17Z</time>
      </trkpt>
      <trkpt lat="48.00583" lon="7.03516">
        <ele>529.7</ele>
        <time>2021-08-05T18:08:19Z</time>
      </trkpt>
      <trkpt lat="48.00581" lon="7.03511">
        <ele>529.7</ele>
        <time>2021-08-05T18:08:20Z</time>
      </trkpt>
      <trkpt lat="48.00579" lon="7.03506">
        <ele>529.8</ele>
        <time>2021-08-05T18:08:21Z</time>
      </trkpt>
      <trkpt lat="48.00576" lon="7.035">
        <ele>529.8</ele>
        <time>2021-08-05T18:08:23Z</time>
      </trkpt>
      <trkpt lat="48.00574" lon="7.03491">
        <ele>529.7</ele>
        <time>2021-08-05T18:08:24Z</time>
      </trkpt>
      <trkpt lat="48.0057" lon="7.03481">
        <ele>529.6</ele>
        <time>2021-08-05T18:08:26Z</time>
      </trkpt>
      <trkpt lat="48.00566" lon="7.03473">
        <ele>529.6</ele>
        <time>2021-08-05T18:08:28Z</time>
      </trkpt>
      <trkpt lat="48.00563" lon="7.0347">
        <ele>529.5</ele>
        <time>2021-08-05T18:08:29Z</time>
      </trkpt>
      <trkpt lat="48.00557" lon="7.03466">
        <ele>529.5</ele>
        <time>2021-08-05T18:08:31Z</time>
      </trkpt>
      <trkpt lat="48.00553" lon="7.03463">
        <ele>529.5</ele>
        <time>2021-08-05T18:08:32Z</time>
      </trkpt>
      <trkpt lat="48.00548" lon="7.03458">
        <ele>529.4</ele>
        <time>2021-08-05T18:08:34Z</time>
      </trkpt>
      <trkpt lat="48.00543" lon="7.03455">
        <ele>529.4</ele>
        <time>2021-08-05T18:08:36Z</time>
      </trkpt>
      <trkpt lat="48.0054" lon="7.03455">
        <ele>529.4</ele>
        <time>2021-08-05T18:08:37Z</time>
      </trkpt>
      <trkpt lat="48.00537" lon="7.03452">
        <ele>529.4</ele>
        <time>2021-08-05T18:08:38Z</time>
      </trkpt>
      <trkpt lat="48.00534" lon="7.03449">
        <ele>529.4</ele>
        <time>2021-08-05T18:08:39Z</time>
      </trkpt>
      <trkpt lat="48.00527" lon="7.03442">
        <ele>529.4</ele>
        <time>2021-08-05T18:08:41Z</time>
      </trkpt>
      <trkpt lat="48.00519" lon="7.03434">
        <ele>529.4</ele>
        <time>2021-08-05T18:08:43Z</time>
      </trkpt>
      <trkpt lat="48.00516" lon="7.03431">
        <ele>529.4</ele>
        <time>2021-08-05T18:08:44Z</time>
      </trkpt>
      <trkpt lat="48.00512" lon="7.03429">
        <ele>529.4</ele>
        <time>2021-08-05T18:08:45Z</time>
      </trkpt>
      <trkpt lat="48.00506" lon="7.03424">
        <ele>529.4</ele>
        <time>2021-08-05T18:08:47Z</time>
      </trkpt>
      <trkpt lat="48.00502" lon="7.0342">
        <ele>529.5</ele>
        <time>2021-08-05T18:08:48Z</time>
      </trkpt>
      <trkpt lat="48.005" lon="7.03418">
        <ele>529.5</ele>
        <time>2021-08-05T18:08:49Z</time>
      </trkpt>
      <trkpt lat="48.00497" lon="7.03417">
        <ele>529.5</ele>
        <time>2021-08-05T18:08:50Z</time>
      </trkpt>
      <trkpt lat="48.00494" lon="7.03415">
        <ele>529.5</ele>
        <time>2021-08-05T18:08:51Z</time>
      </trkpt>
      <trkpt lat="48.00491" lon="7.03413">
        <ele>529.6</ele>
        <time>2021-08-05T18:08:53Z</time>
      </trkpt>
      <trkpt lat="48.00489" lon="7.03411">
        <ele>529.6</ele>
        <time>2021-08-05T18:08:54Z</time>
      </trkpt>
      <trkpt lat="48.00486" lon="7.03408">
        <ele>529.6</ele>
        <time>2021-08-05T18:08:55Z</time>
      </trkpt>
      <trkpt lat="48.00485" lon="7.03406">
        <ele>529.6</ele>
        <time>2021-08-05T18:08:56Z</time>
      </trkpt>
      <trkpt lat="48.00481" lon="7.03403">
        <ele>529.7</ele>
        <time>2021-08-05T18:08:57Z</time>
      </trkpt>
      <trkpt lat="48.00475" lon="7.03397">
        <ele>529.8</ele>
        <time>2021-08-05T18:08:59Z</time>
      </trkpt>
      <trkpt lat="48.00471" lon="7.0339">
        <ele>529.9</ele>
        <time>2021-08-05T18:09:01Z</time>
      </trkpt>
      <trkpt lat="48.00466" lon="7.03384">
        <ele>530</ele>
        <time>2021-08-05T18:09:03Z</time>
      </trkpt>
      <trkpt lat="48.00461" lon="7.03378">
        <ele>530</ele>
        <time>2021-08-05T18:09:05Z</time>
      </trkpt>
      <trkpt lat="48.00458" lon="7.03372">
        <ele>530.1</ele>
        <time>2021-08-05T18:09:07Z</time>
      </trkpt>
      <trkpt lat="48.00456" lon="7.03365">
        <ele>530.2</ele>
        <time>2021-08-05T18:09:08Z</time>
      </trkpt>
      <trkpt lat="48.00455" lon="7.0336">
        <ele>530.3</ele>
        <time>2021-08-05T18:09:09Z</time>
      </trkpt>
      <trkpt lat="48.00454" lon="7.03354">
        <ele>530.4</ele>
        <time>2021-08-05T18:09:10Z</time>
      </trkpt>
      <trkpt lat="48.00452" lon="7.03349">
        <ele>530.5</ele>
        <time>2021-08-05T18:09:12Z</time>
      </trkpt>
      <trkpt lat="48.0045" lon="7.03343">
        <ele>530.5</ele>
        <time>2021-08-05T18:09:13Z</time>
      </trkpt>
      <trkpt lat="48.00448" lon="7.03338">
        <ele>530.6</ele>
        <time>2021-08-05T18:09:14Z</time>
      </trkpt>
      <trkpt lat="48.00446" lon="7.03333">
        <ele>530.7</ele>
        <time>2021-08-05T18:09:15Z</time>
      </trkpt>
      <trkpt lat="48.00445" lon="7.03327">
        <ele>530.8</ele>
        <time>2021-08-05T18:09:16Z</time>
      </trkpt>
      <trkpt lat="48.00443" lon="7.03322">
        <ele>531</ele>
        <time>2021-08-05T18:09:18Z</time>
      </trkpt>
      <trkpt lat="48.00441" lon="7.03318">
        <ele>531</ele>
        <time>2021-08-05T18:09:19Z</time>
      </trkpt>
      <trkpt lat="48.00441" lon="7.03317">
        <ele>531.1</ele>
        <time>2021-08-05T18:09:20Z</time>
      </trkpt>
      <trkpt lat="48.0044" lon="7.03315">
        <ele>531.1</ele>
        <time>2021-08-05T18:09:21Z</time>
      </trkpt>
      <trkpt lat="48.00437" lon="7.03309">
        <ele>531.2</ele>
        <time>2021-08-05T18:09:23Z</time>
      </trkpt>
      <trkpt lat="48.00435" lon="7.03307">
        <ele>531.7</ele>
        <time>2021-08-05T18:09:24Z</time>
      </trkpt>
      <trkpt lat="48.00432" lon="7.03306">
        <ele>531.6</ele>
        <time>2021-08-05T18:09:26Z</time>
      </trkpt>
      <trkpt lat="48.00431" lon="7.03307">
        <ele>531.6</ele>
        <time>2021-08-05T18:09:27Z</time>
      </trkpt>
      <trkpt lat="48.00429" lon="7.0331">
        <ele>531.5</ele>
        <time>2021-08-05T18:09:28Z</time>
      </trkpt>
      <trkpt lat="48.00427" lon="7.03313">
        <ele>531.1</ele>
        <time>2021-08-05T18:09:29Z</time>
      </trkpt>
      <trkpt lat="48.00423" lon="7.03318">
        <ele>531.1</ele>
        <time>2021-08-05T18:09:31Z</time>
      </trkpt>
      <trkpt lat="48.00421" lon="7.03319">
        <ele>531.1</ele>
        <time>2021-08-05T18:09:32Z</time>
      </trkpt>
      <trkpt lat="48.0042" lon="7.03321">
        <ele>531.1</ele>
        <time>2021-08-05T18:09:33Z</time>
      </trkpt>
      <trkpt lat="48.00418" lon="7.03324">
        <ele>530.6</ele>
        <time>2021-08-05T18:09:34Z</time>
      </trkpt>
      <trkpt lat="48.00415" lon="7.03327">
        <ele>530.6</ele>
        <time>2021-08-05T18:09:35Z</time>
      </trkpt>
      <trkpt lat="48.00413" lon="7.03329">
        <ele>530.6</ele>
        <time>2021-08-05T18:09:36Z</time>
      </trkpt>
      <trkpt lat="48.00411" lon="7.03333">
        <ele>530.6</ele>
        <time>2021-08-05T18:09:37Z</time>
      </trkpt>
      <trkpt lat="48.00408" lon="7.03336">
        <ele>530</ele>
        <time>2021-08-05T18:09:38Z</time>
      </trkpt>
      <trkpt lat="48.00405" lon="7.03339">
        <ele>530</ele>
        <time>2021-08-05T18:09:40Z</time>
      </trkpt>
      <trkpt lat="48.004" lon="7.03339">
        <ele>530</ele>
        <time>2021-08-05T18:09:41Z</time>
      </trkpt>
      <trkpt lat="48.00393" lon="7.03336">
        <ele>529.2</ele>
        <time>2021-08-05T18:09:43Z</time>
      </trkpt>
      <trkpt lat="48.00387" lon="7.0333">
        <ele>529.3</ele>
        <time>2021-08-05T18:09:45Z</time>
      </trkpt>
      <trkpt lat="48.00381" lon="7.03322">
        <ele>529.4</ele>
        <time>2021-08-05T18:09:47Z</time>
      </trkpt>
      <trkpt lat="48.00378" lon="7.03317">
        <ele>529.4</ele>
        <time>2021-08-05T18:09:48Z</time>
      </trkpt>
      <trkpt lat="48.00374" lon="7.03308">
        <ele>529.5</ele>
        <time>2021-08-05T18:09:50Z</time>
      </trkpt>
      <trkpt lat="48.00371" lon="7.03303">
        <ele>529.6</ele>
        <time>2021-08-05T18:09:51Z</time>
      </trkpt>
      <trkpt lat="48.00368" lon="7.03296">
        <ele>529.8</ele>
        <time>2021-08-05T18:09:52Z</time>
      </trkpt>
      <trkpt lat="48.00365" lon="7.03291">
        <ele>529.9</ele>
        <time>2021-08-05T18:09:53Z</time>
      </trkpt>
      <trkpt lat="48.00363" lon="7.03286">
        <ele>530</ele>
        <time>2021-08-05T18:09:54Z</time>
      </trkpt>
      <trkpt lat="48.0036" lon="7.03281">
        <ele>530.1</ele>
        <time>2021-08-05T18:09:55Z</time>
      </trkpt>
      <trkpt lat="48.00358" lon="7.03275">
        <ele>530.3</ele>
        <time>2021-08-05T18:09:57Z</time>
      </trkpt>
      <trkpt lat="48.00354" lon="7.03267">
        <ele>530.5</ele>
        <time>2021-08-05T18:09:58Z</time>
      </trkpt>
      <trkpt lat="48.00352" lon="7.03263">
        <ele>530.7</ele>
        <time>2021-08-05T18:09:59Z</time>
      </trkpt>
      <trkpt lat="48.0035" lon="7.03259">
        <ele>530.8</ele>
        <time>2021-08-05T18:10:00Z</time>
      </trkpt>
      <trkpt lat="48.00347" lon="7.03254">
        <ele>531</ele>
        <time>2021-08-05T18:10:01Z</time>
      </trkpt>
      <trkpt lat="48.00345" lon="7.03249">
        <ele>531.2</ele>
        <time>2021-08-05T18:10:03Z</time>
      </trkpt>
      <trkpt lat="48.00342" lon="7.03242">
        <ele>531.5</ele>
        <time>2021-08-05T18:10:04Z</time>
      </trkpt>
      <trkpt lat="48.00339" lon="7.03238">
        <ele>531.7</ele>
        <time>2021-08-05T18:10:05Z</time>
      </trkpt>
      <trkpt lat="48.00338" lon="7.03235">
        <ele>531.9</ele>
        <time>2021-08-05T18:10:06Z</time>
      </trkpt>
      <trkpt lat="48.00336" lon="7.0323">
        <ele>532.1</ele>
        <time>2021-08-05T18:10:07Z</time>
      </trkpt>
      <trkpt lat="48.00334" lon="7.03225">
        <ele>532.3</ele>
        <time>2021-08-05T18:10:09Z</time>
      </trkpt>
      <trkpt lat="48.00332" lon="7.03219">
        <ele>532.6</ele>
        <time>2021-08-05T18:10:11Z</time>
      </trkpt>
      <trkpt lat="48.00331" lon="7.03216">
        <ele>532.7</ele>
        <time>2021-08-05T18:10:12Z</time>
      </trkpt>
      <trkpt lat="48.00328" lon="7.03212">
        <ele>533</ele>
        <time>2021-08-05T18:10:14Z</time>
      </trkpt>
      <trkpt lat="48.00325" lon="7.03208">
        <ele>533.3</ele>
        <time>2021-08-05T18:10:15Z</time>
      </trkpt>
      <trkpt lat="48.00324" lon="7.03207">
        <ele>533.3</ele>
        <time>2021-08-05T18:10:16Z</time>
      </trkpt>
      <trkpt lat="48.00321" lon="7.03201">
        <ele>533.7</ele>
        <time>2021-08-05T18:10:18Z</time>
      </trkpt>
      <trkpt lat="48.00318" lon="7.03196">
        <ele>534</ele>
        <time>2021-08-05T18:10:20Z</time>
      </trkpt>
      <trkpt lat="48.00317" lon="7.03194">
        <ele>534.1</ele>
        <time>2021-08-05T18:10:21Z</time>
      </trkpt>
      <trkpt lat="48.00316" lon="7.03191">
        <ele>534.3</ele>
        <time>2021-08-05T18:10:23Z</time>
      </trkpt>
      <trkpt lat="48.00314" lon="7.03188">
        <ele>534.5</ele>
        <time>2021-08-05T18:10:24Z</time>
      </trkpt>
      <trkpt lat="48.00313" lon="7.03187">
        <ele>534.6</ele>
        <time>2021-08-05T18:10:25Z</time>
      </trkpt>
      <trkpt lat="48.0031" lon="7.03185">
        <ele>534.9</ele>
        <time>2021-08-05T18:10:26Z</time>
      </trkpt>
      <trkpt lat="48.00307" lon="7.03182">
        <ele>535.1</ele>
        <time>2021-08-05T18:10:28Z</time>
      </trkpt>
      <trkpt lat="48.00306" lon="7.03182">
        <ele>535.2</ele>
        <time>2021-08-05T18:10:29Z</time>
      </trkpt>
      <trkpt lat="48.00304" lon="7.03179">
        <ele>535.4</ele>
        <time>2021-08-05T18:10:30Z</time>
      </trkpt>
      <trkpt lat="48.00304" lon="7.03177">
        <ele>535.5</ele>
        <time>2021-08-05T18:10:31Z</time>
      </trkpt>
      <trkpt lat="48.00303" lon="7.03174">
        <ele>535.7</ele>
        <time>2021-08-05T18:10:32Z</time>
      </trkpt>
      <trkpt lat="48.00301" lon="7.03168">
        <ele>536</ele>
        <time>2021-08-05T18:10:34Z</time>
      </trkpt>
      <trkpt lat="48.003" lon="7.03164">
        <ele>536.2</ele>
        <time>2021-08-05T18:10:35Z</time>
      </trkpt>
      <trkpt lat="48.00299" lon="7.03163">
        <ele>536.3</ele>
        <time>2021-08-05T18:10:36Z</time>
      </trkpt>
      <trkpt lat="48.00297" lon="7.03158">
        <ele>536.6</ele>
        <time>2021-08-05T18:10:38Z</time>
      </trkpt>
      <trkpt lat="48.00296" lon="7.03157">
        <ele>536.6</ele>
        <time>2021-08-05T18:10:39Z</time>
      </trkpt>
      <trkpt lat="48.00295" lon="7.03156">
        <ele>536.7</ele>
        <time>2021-08-05T18:10:40Z</time>
      </trkpt>
      <trkpt lat="48.00295" lon="7.03155">
        <ele>536.8</ele>
        <time>2021-08-05T18:10:41Z</time>
      </trkpt>
      <trkpt lat="48.00293" lon="7.03154">
        <ele>536.9</ele>
        <time>2021-08-05T18:10:42Z</time>
      </trkpt>
      <trkpt lat="48.00289" lon="7.03152">
        <ele>537.1</ele>
        <time>2021-08-05T18:10:44Z</time>
      </trkpt>
      <trkpt lat="48.00286" lon="7.0315">
        <ele>537.3</ele>
        <time>2021-08-05T18:10:46Z</time>
      </trkpt>
      <trkpt lat="48.00285" lon="7.03148">
        <ele>537.4</ele>
        <time>2021-08-05T18:10:47Z</time>
      </trkpt>
      <trkpt lat="48.00282" lon="7.03145">
        <ele>537.6</ele>
        <time>2021-08-05T18:10:49Z</time>
      </trkpt>
      <trkpt lat="48.00279" lon="7.03143">
        <ele>537.8</ele>
        <time>2021-08-05T18:10:51Z</time>
      </trkpt>
      <trkpt lat="48.00276" lon="7.03141">
        <ele>538</ele>
        <time>2021-08-05T18:10:53Z</time>
      </trkpt>
      <trkpt lat="48.00274" lon="7.03141">
        <ele>538.1</ele>
        <time>2021-08-05T18:10:54Z</time>
      </trkpt>
      <trkpt lat="48.00271" lon="7.03139">
        <ele>538.2</ele>
        <time>2021-08-05T18:10:56Z</time>
      </trkpt>
      <trkpt lat="48.00269" lon="7.03137">
        <ele>538.3</ele>
        <time>2021-08-05T18:10:57Z</time>
      </trkpt>
      <trkpt lat="48.00267" lon="7.03136">
        <ele>538.3</ele>
        <time>2021-08-05T18:10:59Z</time>
      </trkpt>
      <trkpt lat="48.00263" lon="7.03134">
        <ele>538.2</ele>
        <time>2021-08-05T18:11:00Z</time>
      </trkpt>
      <trkpt lat="48.00261" lon="7.03134">
        <ele>538.2</ele>
        <time>2021-08-05T18:11:01Z</time>
      </trkpt>
      <trkpt lat="48.00259" lon="7.03133">
        <ele>538.2</ele>
        <time>2021-08-05T18:11:02Z</time>
      </trkpt>
      <trkpt lat="48.00255" lon="7.03131">
        <ele>538.2</ele>
        <time>2021-08-05T18:11:04Z</time>
      </trkpt>
      <trkpt lat="48.00251" lon="7.03127">
        <ele>538.4</ele>
        <time>2021-08-05T18:11:06Z</time>
      </trkpt>
      <trkpt lat="48.00249" lon="7.03125">
        <ele>538.6</ele>
        <time>2021-08-05T18:11:07Z</time>
      </trkpt>
      <trkpt lat="48.00247" lon="7.03121">
        <ele>538.8</ele>
        <time>2021-08-05T18:11:09Z</time>
      </trkpt>
      <trkpt lat="48.00243" lon="7.03118">
        <ele>539.1</ele>
        <time>2021-08-05T18:11:11Z</time>
      </trkpt>
      <trkpt lat="48.00239" lon="7.03117">
        <ele>539.4</ele>
        <time>2021-08-05T18:11:12Z</time>
      </trkpt>
      <trkpt lat="48.00238" lon="7.03116">
        <ele>539.5</ele>
        <time>2021-08-05T18:11:13Z</time>
      </trkpt>
      <trkpt lat="48.00233" lon="7.03114">
        <ele>539.8</ele>
        <time>2021-08-05T18:11:15Z</time>
      </trkpt>
      <trkpt lat="48.0023" lon="7.03111">
        <ele>540.2</ele>
        <time>2021-08-05T18:11:17Z</time>
      </trkpt>
      <trkpt lat="48.00227" lon="7.0311">
        <ele>540.4</ele>
        <time>2021-08-05T18:11:18Z</time>
      </trkpt>
      <trkpt lat="48.00226" lon="7.0311">
        <ele>540.5</ele>
        <time>2021-08-05T18:11:19Z</time>
      </trkpt>
      <trkpt lat="48.00223" lon="7.0311">
        <ele>540.7</ele>
        <time>2021-08-05T18:11:20Z</time>
      </trkpt>
      <trkpt lat="48.0022" lon="7.03109">
        <ele>541</ele>
        <time>2021-08-05T18:11:22Z</time>
      </trkpt>
      <trkpt lat="48.00217" lon="7.03109">
        <ele>541.2</ele>
        <time>2021-08-05T18:11:23Z</time>
      </trkpt>
      <trkpt lat="48.00216" lon="7.03108">
        <ele>541.3</ele>
        <time>2021-08-05T18:11:24Z</time>
      </trkpt>
      <trkpt lat="48.00213" lon="7.03107">
        <ele>541.7</ele>
        <time>2021-08-05T18:11:25Z</time>
      </trkpt>
      <trkpt lat="48.00212" lon="7.03107">
        <ele>541.8</ele>
        <time>2021-08-05T18:11:26Z</time>
      </trkpt>
      <trkpt lat="48.0021" lon="7.03106">
        <ele>542</ele>
        <time>2021-08-05T18:11:27Z</time>
      </trkpt>
      <trkpt lat="48.00208" lon="7.03105">
        <ele>542.2</ele>
        <time>2021-08-05T18:11:29Z</time>
      </trkpt>
      <trkpt lat="48.00205" lon="7.03105">
        <ele>542.5</ele>
        <time>2021-08-05T18:11:30Z</time>
      </trkpt>
      <trkpt lat="48.00203" lon="7.03104">
        <ele>542.6</ele>
        <time>2021-08-05T18:11:31Z</time>
      </trkpt>
      <trkpt lat="48.00201" lon="7.03104">
        <ele>542.9</ele>
        <time>2021-08-05T18:11:32Z</time>
      </trkpt>
      <trkpt lat="48.00199" lon="7.03104">
        <ele>543</ele>
        <time>2021-08-05T18:11:34Z</time>
      </trkpt>
      <trkpt lat="48.00198" lon="7.03104">
        <ele>543.2</ele>
        <time>2021-08-05T18:11:35Z</time>
      </trkpt>
      <trkpt lat="48.00196" lon="7.03104">
        <ele>543.3</ele>
        <time>2021-08-05T18:11:36Z</time>
      </trkpt>
      <trkpt lat="48.00193" lon="7.03104">
        <ele>543.6</ele>
        <time>2021-08-05T18:11:38Z</time>
      </trkpt>
      <trkpt lat="48.00192" lon="7.03104">
        <ele>543.7</ele>
        <time>2021-08-05T18:11:39Z</time>
      </trkpt>
      <trkpt lat="48.00189" lon="7.03103">
        <ele>544.1</ele>
        <time>2021-08-05T18:11:40Z</time>
      </trkpt>
      <trkpt lat="48.00186" lon="7.03103">
        <ele>544.4</ele>
        <time>2021-08-05T18:11:41Z</time>
      </trkpt>
      <trkpt lat="48.00185" lon="7.03103">
        <ele>544.5</ele>
        <time>2021-08-05T18:11:42Z</time>
      </trkpt>
      <trkpt lat="48.00183" lon="7.03103">
        <ele>544.7</ele>
        <time>2021-08-05T18:11:43Z</time>
      </trkpt>
      <trkpt lat="48.0018" lon="7.03103">
        <ele>545</ele>
        <time>2021-08-05T18:11:45Z</time>
      </trkpt>
      <trkpt lat="48.00178" lon="7.03102">
        <ele>545.2</ele>
        <time>2021-08-05T18:11:46Z</time>
      </trkpt>
      <trkpt lat="48.00176" lon="7.03102">
        <ele>545.4</ele>
        <time>2021-08-05T18:11:47Z</time>
      </trkpt>
      <trkpt lat="48.00171" lon="7.03102">
        <ele>545.9</ele>
        <time>2021-08-05T18:11:49Z</time>
      </trkpt>
      <trkpt lat="48.00167" lon="7.03101">
        <ele>546.3</ele>
        <time>2021-08-05T18:11:50Z</time>
      </trkpt>
      <trkpt lat="48.00166" lon="7.03101">
        <ele>546.4</ele>
        <time>2021-08-05T18:11:51Z</time>
      </trkpt>
      <trkpt lat="48.00163" lon="7.031">
        <ele>546.7</ele>
        <time>2021-08-05T18:11:52Z</time>
      </trkpt>
      <trkpt lat="48.00162" lon="7.031">
        <ele>546.8</ele>
        <time>2021-08-05T18:11:53Z</time>
      </trkpt>
      <trkpt lat="48.00161" lon="7.03099">
        <ele>546.9</ele>
        <time>2021-08-05T18:11:54Z</time>
      </trkpt>
      <trkpt lat="48.00159" lon="7.03099">
        <ele>547.1</ele>
        <time>2021-08-05T18:11:56Z</time>
      </trkpt>
      <trkpt lat="48.00158" lon="7.03098">
        <ele>547.2</ele>
        <time>2021-08-05T18:11:57Z</time>
      </trkpt>
      <trkpt lat="48.00156" lon="7.03098">
        <ele>547.3</ele>
        <time>2021-08-05T18:11:59Z</time>
      </trkpt>
      <trkpt lat="48.00157" lon="7.03098">
        <ele>547.3</ele>
        <time>2021-08-05T18:12:00Z</time>
      </trkpt>
      <trkpt lat="48.00157" lon="7.03097">
        <ele>547.3</ele>
        <time>2021-08-05T18:12:01Z</time>
      </trkpt>
      <trkpt lat="48.00156" lon="7.03097">
        <ele>547.3</ele>
        <time>2021-08-05T18:12:03Z</time>
      </trkpt>
      <trkpt lat="48.00155" lon="7.03097">
        <ele>547.2</ele>
        <time>2021-08-05T18:12:04Z</time>
      </trkpt>
      <trkpt lat="48.00153" lon="7.03096">
        <ele>547.2</ele>
        <time>2021-08-05T18:12:06Z</time>
      </trkpt>
      <trkpt lat="48.0015" lon="7.03095">
        <ele>547.3</ele>
        <time>2021-08-05T18:12:08Z</time>
      </trkpt>
      <trkpt lat="48.00123" lon="7.03078">
        <ele>550.3</ele>
        <time>2021-08-05T18:12:35Z</time>
      </trkpt>
      <trkpt lat="48.00119" lon="7.03072">
        <ele>550.8</ele>
        <time>2021-08-05T18:12:37Z</time>
      </trkpt>
      <trkpt lat="48.00116" lon="7.03068">
        <ele>551.3</ele>
        <time>2021-08-05T18:12:38Z</time>
      </trkpt>
      <trkpt lat="48.00114" lon="7.03067">
        <ele>551.4</ele>
        <time>2021-08-05T18:12:39Z</time>
      </trkpt>
      <trkpt lat="48.00112" lon="7.03064">
        <ele>551.7</ele>
        <time>2021-08-05T18:12:41Z</time>
      </trkpt>
      <trkpt lat="48.00111" lon="7.03061">
        <ele>552</ele>
        <time>2021-08-05T18:12:42Z</time>
      </trkpt>
      <trkpt lat="48.00109" lon="7.03058">
        <ele>552.3</ele>
        <time>2021-08-05T18:12:44Z</time>
      </trkpt>
      <trkpt lat="48.00107" lon="7.03057">
        <ele>552.5</ele>
        <time>2021-08-05T18:12:45Z</time>
      </trkpt>
      <trkpt lat="48.00105" lon="7.03054">
        <ele>552.7</ele>
        <time>2021-08-05T18:12:47Z</time>
      </trkpt>
      <trkpt lat="48.00106" lon="7.03053">
        <ele>552.8</ele>
        <time>2021-08-05T18:12:48Z</time>
      </trkpt>
      <trkpt lat="48.00106" lon="7.03053">
        <ele>552.8</ele>
        <time>2021-08-05T18:12:50Z</time>
      </trkpt>
      <trkpt lat="48.00106" lon="7.03053">
        <ele>552.8</ele>
        <time>2021-08-05T18:12:51Z</time>
      </trkpt>
      <trkpt lat="48.00105" lon="7.03052">
        <ele>552.9</ele>
        <time>2021-08-05T18:12:53Z</time>
      </trkpt>
      <trkpt lat="48.00105" lon="7.03052">
        <ele>552.9</ele>
        <time>2021-08-05T18:12:54Z</time>
      </trkpt>
      <trkpt lat="48.00104" lon="7.03052">
        <ele>553</ele>
        <time>2021-08-05T18:12:55Z</time>
      </trkpt>
      <trkpt lat="48.00103" lon="7.03052">
        <ele>553.1</ele>
        <time>2021-08-05T18:12:56Z</time>
      </trkpt>
      <trkpt lat="48.00103" lon="7.03052">
        <ele>553.1</ele>
        <time>2021-08-05T18:12:57Z</time>
      </trkpt>
      <trkpt lat="48.00075" lon="7.03026">
        <ele>556.3</ele>
        <time>2021-08-05T18:13:21Z</time>
      </trkpt>
      <trkpt lat="48.00073" lon="7.03022">
        <ele>556.6</ele>
        <time>2021-08-05T18:13:22Z</time>
      </trkpt>
      <trkpt lat="48.0007" lon="7.03017">
        <ele>556.9</ele>
        <time>2021-08-05T18:13:24Z</time>
      </trkpt>
      <trkpt lat="48.00068" lon="7.03013">
        <ele>557.2</ele>
        <time>2021-08-05T18:13:25Z</time>
      </trkpt>
      <trkpt lat="48.00065" lon="7.0301">
        <ele>557.5</ele>
        <time>2021-08-05T18:13:26Z</time>
      </trkpt>
      <trkpt lat="48.00062" lon="7.03006">
        <ele>557.7</ele>
        <time>2021-08-05T18:13:28Z</time>
      </trkpt>
      <trkpt lat="48.00061" lon="7.03001">
        <ele>558</ele>
        <time>2021-08-05T18:13:29Z</time>
      </trkpt>
      <trkpt lat="48.00059" lon="7.02995">
        <ele>558.3</ele>
        <time>2021-08-05T18:13:31Z</time>
      </trkpt>
      <trkpt lat="48.00059" lon="7.02993">
        <ele>558.4</ele>
        <time>2021-08-05T18:13:32Z</time>
      </trkpt>
      <trkpt lat="48.00058" lon="7.02991">
        <ele>558.5</ele>
        <time>2021-08-05T18:13:33Z</time>
      </trkpt>
      <trkpt lat="48.00058" lon="7.02988">
        <ele>558.7</ele>
        <time>2021-08-05T18:13:34Z</time>
      </trkpt>
      <trkpt lat="48.00058" lon="7.02985">
        <ele>558.9</ele>
        <time>2021-08-05T18:13:36Z</time>
      </trkpt>
      <trkpt lat="48.00057" lon="7.02982">
        <ele>559</ele>
        <time>2021-08-05T18:13:37Z</time>
      </trkpt>
      <trkpt lat="48.00056" lon="7.0298">
        <ele>559.1</ele>
        <time>2021-08-05T18:13:38Z</time>
      </trkpt>
      <trkpt lat="48.00057" lon="7.02975">
        <ele>559.4</ele>
        <time>2021-08-05T18:13:39Z</time>
      </trkpt>
      <trkpt lat="48.00057" lon="7.02972">
        <ele>559.6</ele>
        <time>2021-08-05T18:13:40Z</time>
      </trkpt>
      <trkpt lat="48.00059" lon="7.02966">
        <ele>559.9</ele>
        <time>2021-08-05T18:13:42Z</time>
      </trkpt>
      <trkpt lat="48.00059" lon="7.02965">
        <ele>560</ele>
        <time>2021-08-05T18:13:43Z</time>
      </trkpt>
      <trkpt lat="48.0006" lon="7.02961">
        <ele>560.2</ele>
        <time>2021-08-05T18:13:44Z</time>
      </trkpt>
      <trkpt lat="48.0006" lon="7.02958">
        <ele>560.5</ele>
        <time>2021-08-05T18:13:45Z</time>
      </trkpt>
      <trkpt lat="48.00062" lon="7.02953">
        <ele>560.7</ele>
        <time>2021-08-05T18:13:47Z</time>
      </trkpt>
      <trkpt lat="48.00063" lon="7.02949">
        <ele>561</ele>
        <time>2021-08-05T18:13:49Z</time>
      </trkpt>
      <trkpt lat="48.00063" lon="7.02948">
        <ele>561.1</ele>
        <time>2021-08-05T18:13:50Z</time>
      </trkpt>
      <trkpt lat="48.00063" lon="7.02946">
        <ele>561.2</ele>
        <time>2021-08-05T18:13:51Z</time>
      </trkpt>
      <trkpt lat="48.00063" lon="7.02941">
        <ele>561.5</ele>
        <time>2021-08-05T18:13:54Z</time>
      </trkpt>
      <trkpt lat="48.00062" lon="7.02938">
        <ele>561.7</ele>
        <time>2021-08-05T18:13:55Z</time>
      </trkpt>
      <trkpt lat="48.0006" lon="7.02935">
        <ele>561.9</ele>
        <time>2021-08-05T18:13:56Z</time>
      </trkpt>
      <trkpt lat="48.00059" lon="7.02934">
        <ele>562</ele>
        <time>2021-08-05T18:13:57Z</time>
      </trkpt>
      <trkpt lat="48.00058" lon="7.02933">
        <ele>562.1</ele>
        <time>2021-08-05T18:13:58Z</time>
      </trkpt>
      <trkpt lat="48.00055" lon="7.02934">
        <ele>562.3</ele>
        <time>2021-08-05T18:14:00Z</time>
      </trkpt>
      <trkpt lat="48.00054" lon="7.0293">
        <ele>562.6</ele>
        <time>2021-08-05T18:14:02Z</time>
      </trkpt>
      <trkpt lat="48.00054" lon="7.02928">
        <ele>562.6</ele>
        <time>2021-08-05T18:14:04Z</time>
      </trkpt>
      <trkpt lat="48.00054" lon="7.02926">
        <ele>562.7</ele>
        <time>2021-08-05T18:14:05Z</time>
      </trkpt>
      <trkpt lat="48.00054" lon="7.02926">
        <ele>562.8</ele>
        <time>2021-08-05T18:14:07Z</time>
      </trkpt>
      <trkpt lat="48.00054" lon="7.02925">
        <ele>562.8</ele>
        <time>2021-08-05T18:14:08Z</time>
      </trkpt>
      <trkpt lat="48.00054" lon="7.02924">
        <ele>562.9</ele>
        <time>2021-08-05T18:14:09Z</time>
      </trkpt>
      <trkpt lat="48.00054" lon="7.02921">
        <ele>563</ele>
        <time>2021-08-05T18:14:11Z</time>
      </trkpt>
      <trkpt lat="48.00055" lon="7.02919">
        <ele>563.1</ele>
        <time>2021-08-05T18:14:12Z</time>
      </trkpt>
      <trkpt lat="48.00055" lon="7.02917">
        <ele>563.2</ele>
        <time>2021-08-05T18:14:13Z</time>
      </trkpt>
      <trkpt lat="48.00056" lon="7.02916">
        <ele>563.3</ele>
        <time>2021-08-05T18:14:15Z</time>
      </trkpt>
      <trkpt lat="48.00065" lon="7.02823">
        <ele>567.2</ele>
        <time>2021-08-05T18:14:54Z</time>
      </trkpt>
      <trkpt lat="48.00063" lon="7.02816">
        <ele>567.6</ele>
        <time>2021-08-05T18:14:55Z</time>
      </trkpt>
      <trkpt lat="48.00063" lon="7.02807">
        <ele>567.9</ele>
        <time>2021-08-05T18:14:57Z</time>
      </trkpt>
      <trkpt lat="48.00063" lon="7.02803">
        <ele>568.1</ele>
        <time>2021-08-05T18:14:58Z</time>
      </trkpt>
      <trkpt lat="48.00061" lon="7.02801">
        <ele>568.3</ele>
        <time>2021-08-05T18:14:59Z</time>
      </trkpt>
      <trkpt lat="48.0006" lon="7.02796">
        <ele>568.5</ele>
        <time>2021-08-05T18:15:01Z</time>
      </trkpt>
      <trkpt lat="48.00059" lon="7.02789">
        <ele>568.8</ele>
        <time>2021-08-05T18:15:03Z</time>
      </trkpt>
      <trkpt lat="48.00059" lon="7.02785">
        <ele>569</ele>
        <time>2021-08-05T18:15:04Z</time>
      </trkpt>
      <trkpt lat="48.00058" lon="7.02785">
        <ele>569.1</ele>
        <time>2021-08-05T18:15:06Z</time>
      </trkpt>
      <trkpt lat="48.00059" lon="7.02783">
        <ele>569.1</ele>
        <time>2021-08-05T18:15:07Z</time>
      </trkpt>
      <trkpt lat="48.00057" lon="7.02778">
        <ele>569.4</ele>
        <time>2021-08-05T18:15:09Z</time>
      </trkpt>
      <trkpt lat="48.00057" lon="7.02774">
        <ele>569.6</ele>
        <time>2021-08-05T18:15:10Z</time>
      </trkpt>
      <trkpt lat="48.00057" lon="7.02772">
        <ele>569.7</ele>
        <time>2021-08-05T18:15:11Z</time>
      </trkpt>
      <trkpt lat="48.00057" lon="7.0277">
        <ele>569.8</ele>
        <time>2021-08-05T18:15:12Z</time>
      </trkpt>
      <trkpt lat="48.00057" lon="7.02768">
        <ele>569.9</ele>
        <time>2021-08-05T18:15:13Z</time>
      </trkpt>
      <trkpt lat="48.00056" lon="7.02765">
        <ele>570.1</ele>
        <time>2021-08-05T18:15:15Z</time>
      </trkpt>
      <trkpt lat="48.00056" lon="7.0276">
        <ele>570.3</ele>
        <time>2021-08-05T18:15:17Z</time>
      </trkpt>
      <trkpt lat="48.00056" lon="7.02756">
        <ele>570.4</ele>
        <time>2021-08-05T18:15:19Z</time>
      </trkpt>
      <trkpt lat="48.00055" lon="7.02753">
        <ele>570.6</ele>
        <time>2021-08-05T18:15:20Z</time>
      </trkpt>
      <trkpt lat="48.00055" lon="7.0275">
        <ele>570.7</ele>
        <time>2021-08-05T18:15:22Z</time>
      </trkpt>
      <trkpt lat="48.00055" lon="7.02749">
        <ele>570.8</ele>
        <time>2021-08-05T18:15:23Z</time>
      </trkpt>
      <trkpt lat="48.00054" lon="7.02746">
        <ele>571</ele>
        <time>2021-08-05T18:15:24Z</time>
      </trkpt>
      <trkpt lat="48.00053" lon="7.02744">
        <ele>571.1</ele>
        <time>2021-08-05T18:15:25Z</time>
      </trkpt>
      <trkpt lat="48.00053" lon="7.02743">
        <ele>571.1</ele>
        <time>2021-08-05T18:15:27Z</time>
      </trkpt>
      <trkpt lat="48.00053" lon="7.02741">
        <ele>571.2</ele>
        <time>2021-08-05T18:15:28Z</time>
      </trkpt>
      <trkpt lat="48.00053" lon="7.02739">
        <ele>571.3</ele>
        <time>2021-08-05T18:15:29Z</time>
      </trkpt>
      <trkpt lat="48.00054" lon="7.02733">
        <ele>571.6</ele>
        <time>2021-08-05T18:15:31Z</time>
      </trkpt>
      <trkpt lat="48.00055" lon="7.02729">
        <ele>571.8</ele>
        <time>2021-08-05T18:15:33Z</time>
      </trkpt>
      <trkpt lat="48.00055" lon="7.02729">
        <ele>571.9</ele>
        <time>2021-08-05T18:15:34Z</time>
      </trkpt>
      <trkpt lat="48.00055" lon="7.02729">
        <ele>571.9</ele>
        <time>2021-08-05T18:15:35Z</time>
      </trkpt>
      <trkpt lat="48.00055" lon="7.02724">
        <ele>572.1</ele>
        <time>2021-08-05T18:15:37Z</time>
      </trkpt>
      <trkpt lat="48.00057" lon="7.02719">
        <ele>572.4</ele>
        <time>2021-08-05T18:15:39Z</time>
      </trkpt>
      <trkpt lat="48.00059" lon="7.02716">
        <ele>572.6</ele>
        <time>2021-08-05T18:15:40Z</time>
      </trkpt>
      <trkpt lat="48.0006" lon="7.02715">
        <ele>572.7</ele>
        <time>2021-08-05T18:15:41Z</time>
      </trkpt>
      <trkpt lat="48.00062" lon="7.02714">
        <ele>572.9</ele>
        <time>2021-08-05T18:15:42Z</time>
      </trkpt>
      <trkpt lat="48.00065" lon="7.02711">
        <ele>573.1</ele>
        <time>2021-08-05T18:15:44Z</time>
      </trkpt>
      <trkpt lat="48.00067" lon="7.0271">
        <ele>573.3</ele>
        <time>2021-08-05T18:15:46Z</time>
      </trkpt>
      <trkpt lat="48.00069" lon="7.02709">
        <ele>573.4</ele>
        <time>2021-08-05T18:15:48Z</time>
      </trkpt>
      <trkpt lat="48.00073" lon="7.02709">
        <ele>573.7</ele>
        <time>2021-08-05T18:15:49Z</time>
      </trkpt>
      <trkpt lat="48.00074" lon="7.02709">
        <ele>573.7</ele>
        <time>2021-08-05T18:15:50Z</time>
      </trkpt>
      <trkpt lat="48.00077" lon="7.02709">
        <ele>574</ele>
        <time>2021-08-05T18:15:52Z</time>
      </trkpt>
      <trkpt lat="48.00078" lon="7.02709">
        <ele>574</ele>
        <time>2021-08-05T18:15:53Z</time>
      </trkpt>
      <trkpt lat="48.00081" lon="7.02707">
        <ele>574.3</ele>
        <time>2021-08-05T18:15:55Z</time>
      </trkpt>
      <trkpt lat="48.00083" lon="7.02703">
        <ele>574.5</ele>
        <time>2021-08-05T18:15:57Z</time>
      </trkpt>
      <trkpt lat="48.00083" lon="7.02702">
        <ele>574.6</ele>
        <time>2021-08-05T18:15:58Z</time>
      </trkpt>
      <trkpt lat="48.00083" lon="7.02699">
        <ele>574.7</ele>
        <time>2021-08-05T18:16:00Z</time>
      </trkpt>
      <trkpt lat="48.00085" lon="7.02695">
        <ele>575</ele>
        <time>2021-08-05T18:16:01Z</time>
      </trkpt>
      <trkpt lat="48.00086" lon="7.02689">
        <ele>575.3</ele>
        <time>2021-08-05T18:16:03Z</time>
      </trkpt>
      <trkpt lat="48.00088" lon="7.02683">
        <ele>575.6</ele>
        <time>2021-08-05T18:16:05Z</time>
      </trkpt>
      <trkpt lat="48.00089" lon="7.02679">
        <ele>575.8</ele>
        <time>2021-08-05T18:16:06Z</time>
      </trkpt>
      <trkpt lat="48.00089" lon="7.02676">
        <ele>575.9</ele>
        <time>2021-08-05T18:16:08Z</time>
      </trkpt>
      <trkpt lat="48.00089" lon="7.02674">
        <ele>576</ele>
        <time>2021-08-05T18:16:09Z</time>
      </trkpt>
      <trkpt lat="48.00091" lon="7.02671">
        <ele>576.2</ele>
        <time>2021-08-05T18:16:10Z</time>
      </trkpt>
      <trkpt lat="48.00092" lon="7.02668">
        <ele>576.4</ele>
        <time>2021-08-05T18:16:11Z</time>
      </trkpt>
      <trkpt lat="48.00094" lon="7.02661">
        <ele>576.7</ele>
        <time>2021-08-05T18:16:13Z</time>
      </trkpt>
      <trkpt lat="48.00096" lon="7.02657">
        <ele>576.9</ele>
        <time>2021-08-05T18:16:14Z</time>
      </trkpt>
      <trkpt lat="48.00098" lon="7.02654">
        <ele>576.9</ele>
        <time>2021-08-05T18:16:15Z</time>
      </trkpt>
      <trkpt lat="48.00099" lon="7.02647">
        <ele>576.9</ele>
        <time>2021-08-05T18:16:17Z</time>
      </trkpt>
      <trkpt lat="48.00099" lon="7.02642">
        <ele>576.9</ele>
        <time>2021-08-05T18:16:18Z</time>
      </trkpt>
      <trkpt lat="48.00099" lon="7.0264">
        <ele>576.9</ele>
        <time>2021-08-05T18:16:19Z</time>
      </trkpt>
      <trkpt lat="48.00099" lon="7.02637">
        <ele>577</ele>
        <time>2021-08-05T18:16:20Z</time>
      </trkpt>
      <trkpt lat="48.001" lon="7.02632">
        <ele>577</ele>
        <time>2021-08-05T18:16:22Z</time>
      </trkpt>
      <trkpt lat="48.00101" lon="7.02629">
        <ele>577</ele>
        <time>2021-08-05T18:16:23Z</time>
      </trkpt>
      <trkpt lat="48.00101" lon="7.02624">
        <ele>577</ele>
        <time>2021-08-05T18:16:25Z</time>
      </trkpt>
      <trkpt lat="48.00101" lon="7.02618">
        <ele>577</ele>
        <time>2021-08-05T18:16:26Z</time>
      </trkpt>
      <trkpt lat="48.00101" lon="7.02616">
        <ele>577.2</ele>
        <time>2021-08-05T18:16:27Z</time>
      </trkpt>
      <trkpt lat="48.00101" lon="7.02612">
        <ele>577.3</ele>
        <time>2021-08-05T18:16:28Z</time>
      </trkpt>
      <trkpt lat="48.001" lon="7.02605">
        <ele>577.4</ele>
        <time>2021-08-05T18:16:30Z</time>
      </trkpt>
      <trkpt lat="48.001" lon="7.02602">
        <ele>577.4</ele>
        <time>2021-08-05T18:16:31Z</time>
      </trkpt>
      <trkpt lat="48.00097" lon="7.02597">
        <ele>577.5</ele>
        <time>2021-08-05T18:16:33Z</time>
      </trkpt>
      <trkpt lat="48.00095" lon="7.02595">
        <ele>577.5</ele>
        <time>2021-08-05T18:16:34Z</time>
      </trkpt>
      <trkpt lat="48.00093" lon="7.02592">
        <ele>577.5</ele>
        <time>2021-08-05T18:16:35Z</time>
      </trkpt>
      <trkpt lat="48.00091" lon="7.02589">
        <ele>577.6</ele>
        <time>2021-08-05T18:16:37Z</time>
      </trkpt>
      <trkpt lat="48.00089" lon="7.02586">
        <ele>577.6</ele>
        <time>2021-08-05T18:16:38Z</time>
      </trkpt>
      <trkpt lat="48.00086" lon="7.02584">
        <ele>577.7</ele>
        <time>2021-08-05T18:16:39Z</time>
      </trkpt>
      <trkpt lat="48.00083" lon="7.02582">
        <ele>577.7</ele>
        <time>2021-08-05T18:16:40Z</time>
      </trkpt>
      <trkpt lat="48.00082" lon="7.02581">
        <ele>577.7</ele>
        <time>2021-08-05T18:16:41Z</time>
      </trkpt>
      <trkpt lat="48.00078" lon="7.02576">
        <ele>577.8</ele>
        <time>2021-08-05T18:16:43Z</time>
      </trkpt>
      <trkpt lat="48.00075" lon="7.02573">
        <ele>577.9</ele>
        <time>2021-08-05T18:16:44Z</time>
      </trkpt>
      <trkpt lat="48.00068" lon="7.02571">
        <ele>578</ele>
        <time>2021-08-05T18:16:46Z</time>
      </trkpt>
      <trkpt lat="48.00065" lon="7.02571">
        <ele>578.1</ele>
        <time>2021-08-05T18:16:47Z</time>
      </trkpt>
      <trkpt lat="48.00061" lon="7.02571">
        <ele>578.1</ele>
        <time>2021-08-05T18:16:48Z</time>
      </trkpt>
      <trkpt lat="48.00055" lon="7.02571">
        <ele>578.2</ele>
        <time>2021-08-05T18:16:50Z</time>
      </trkpt>
      <trkpt lat="48.0005" lon="7.02571">
        <ele>578.3</ele>
        <time>2021-08-05T18:16:51Z</time>
      </trkpt>
      <trkpt lat="48.00046" lon="7.02571">
        <ele>578.4</ele>
        <time>2021-08-05T18:16:53Z</time>
      </trkpt>
      <trkpt lat="48.0004" lon="7.02569">
        <ele>578.5</ele>
        <time>2021-08-05T18:16:54Z</time>
      </trkpt>
      <trkpt lat="48.00036" lon="7.02568">
        <ele>578.6</ele>
        <time>2021-08-05T18:16:55Z</time>
      </trkpt>
      <trkpt lat="48.00032" lon="7.02568">
        <ele>578.6</ele>
        <time>2021-08-05T18:16:56Z</time>
      </trkpt>
      <trkpt lat="48.00029" lon="7.02568">
        <ele>578.7</ele>
        <time>2021-08-05T18:16:58Z</time>
      </trkpt>
      <trkpt lat="48.00026" lon="7.02568">
        <ele>578.8</ele>
        <time>2021-08-05T18:16:59Z</time>
      </trkpt>
      <trkpt lat="48.00022" lon="7.02567">
        <ele>578.8</ele>
        <time>2021-08-05T18:17:00Z</time>
      </trkpt>
      <trkpt lat="48.00019" lon="7.02567">
        <ele>578.9</ele>
        <time>2021-08-05T18:17:01Z</time>
      </trkpt>
      <trkpt lat="48.00016" lon="7.02566">
        <ele>579</ele>
        <time>2021-08-05T18:17:02Z</time>
      </trkpt>
      <trkpt lat="48.00009" lon="7.02565">
        <ele>579.1</ele>
        <time>2021-08-05T18:17:04Z</time>
      </trkpt>
      <trkpt lat="48.00006" lon="7.02565">
        <ele>579.2</ele>
        <time>2021-08-05T18:17:05Z</time>
      </trkpt>
      <trkpt lat="48.00005" lon="7.02565">
        <ele>579.3</ele>
        <time>2021-08-05T18:17:06Z</time>
      </trkpt>
      <trkpt lat="47.99999" lon="7.02564">
        <ele>579.4</ele>
        <time>2021-08-05T18:17:08Z</time>
      </trkpt>
      <trkpt lat="47.99992" lon="7.0256">
        <ele>579.6</ele>
        <time>2021-08-05T18:17:10Z</time>
      </trkpt>
      <trkpt lat="47.9999" lon="7.02557">
        <ele>579.8</ele>
        <time>2021-08-05T18:17:11Z</time>
      </trkpt>
      <trkpt lat="47.99987" lon="7.02556">
        <ele>579.9</ele>
        <time>2021-08-05T18:17:13Z</time>
      </trkpt>
      <trkpt lat="47.99984" lon="7.02554">
        <ele>580</ele>
        <time>2021-08-05T18:17:14Z</time>
      </trkpt>
      <trkpt lat="47.9998" lon="7.02553">
        <ele>580.2</ele>
        <time>2021-08-05T18:17:15Z</time>
      </trkpt>
      <trkpt lat="47.99978" lon="7.02552">
        <ele>580.3</ele>
        <time>2021-08-05T18:17:16Z</time>
      </trkpt>
      <trkpt lat="47.99974" lon="7.0255">
        <ele>580.5</ele>
        <time>2021-08-05T18:17:17Z</time>
      </trkpt>
      <trkpt lat="47.99971" lon="7.02548">
        <ele>580.6</ele>
        <time>2021-08-05T18:17:18Z</time>
      </trkpt>
      <trkpt lat="47.99966" lon="7.02546">
        <ele>580.9</ele>
        <time>2021-08-05T18:17:20Z</time>
      </trkpt>
      <trkpt lat="47.99963" lon="7.02544">
        <ele>581</ele>
        <time>2021-08-05T18:17:21Z</time>
      </trkpt>
      <trkpt lat="47.99961" lon="7.02543">
        <ele>581.2</ele>
        <time>2021-08-05T18:17:22Z</time>
      </trkpt>
      <trkpt lat="47.99958" lon="7.02541">
        <ele>581.3</ele>
        <time>2021-08-05T18:17:24Z</time>
      </trkpt>
      <trkpt lat="47.99956" lon="7.02539">
        <ele>581.5</ele>
        <time>2021-08-05T18:17:25Z</time>
      </trkpt>
      <trkpt lat="47.99955" lon="7.02538">
        <ele>581.5</ele>
        <time>2021-08-05T18:17:26Z</time>
      </trkpt>
      <trkpt lat="47.99952" lon="7.02535">
        <ele>581.7</ele>
        <time>2021-08-05T18:17:27Z</time>
      </trkpt>
      <trkpt lat="47.99949" lon="7.02532">
        <ele>581.9</ele>
        <time>2021-08-05T18:17:28Z</time>
      </trkpt>
      <trkpt lat="47.99949" lon="7.02531">
        <ele>582</ele>
        <time>2021-08-05T18:17:29Z</time>
      </trkpt>
      <trkpt lat="47.99947" lon="7.02525">
        <ele>582.2</ele>
        <time>2021-08-05T18:17:31Z</time>
      </trkpt>
      <trkpt lat="47.99946" lon="7.0252">
        <ele>582.4</ele>
        <time>2021-08-05T18:17:33Z</time>
      </trkpt>
      <trkpt lat="47.99945" lon="7.02519">
        <ele>582.4</ele>
        <time>2021-08-05T18:17:34Z</time>
      </trkpt>
      <trkpt lat="47.99943" lon="7.02517">
        <ele>582.6</ele>
        <time>2021-08-05T18:17:35Z</time>
      </trkpt>
      <trkpt lat="47.99941" lon="7.02514">
        <ele>582.7</ele>
        <time>2021-08-05T18:17:36Z</time>
      </trkpt>
      <trkpt lat="47.99938" lon="7.02513">
        <ele>582.9</ele>
        <time>2021-08-05T18:17:37Z</time>
      </trkpt>
      <trkpt lat="47.99935" lon="7.02511">
        <ele>583.1</ele>
        <time>2021-08-05T18:17:39Z</time>
      </trkpt>
      <trkpt lat="47.99931" lon="7.02508">
        <ele>583.3</ele>
        <time>2021-08-05T18:17:40Z</time>
      </trkpt>
      <trkpt lat="47.99928" lon="7.02507">
        <ele>583.5</ele>
        <time>2021-08-05T18:17:41Z</time>
      </trkpt>
      <trkpt lat="47.99925" lon="7.02506">
        <ele>583.6</ele>
        <time>2021-08-05T18:17:43Z</time>
      </trkpt>
      <trkpt lat="47.99922" lon="7.02506">
        <ele>583.8</ele>
        <time>2021-08-05T18:17:44Z</time>
      </trkpt>
      <trkpt lat="47.99919" lon="7.02504">
        <ele>584</ele>
        <time>2021-08-05T18:17:45Z</time>
      </trkpt>
      <trkpt lat="47.99918" lon="7.02503">
        <ele>584.1</ele>
        <time>2021-08-05T18:17:46Z</time>
      </trkpt>
      <trkpt lat="47.99915" lon="7.02499">
        <ele>584.3</ele>
        <time>2021-08-05T18:17:47Z</time>
      </trkpt>
      <trkpt lat="47.99915" lon="7.02497">
        <ele>584.3</ele>
        <time>2021-08-05T18:17:48Z</time>
      </trkpt>
      <trkpt lat="47.99913" lon="7.02493">
        <ele>584.5</ele>
        <time>2021-08-05T18:17:49Z</time>
      </trkpt>
      <trkpt lat="47.99912" lon="7.02492">
        <ele>584.6</ele>
        <time>2021-08-05T18:17:50Z</time>
      </trkpt>
      <trkpt lat="47.9991" lon="7.02487">
        <ele>584.8</ele>
        <time>2021-08-05T18:17:52Z</time>
      </trkpt>
      <trkpt lat="47.9991" lon="7.02486">
        <ele>584.8</ele>
        <time>2021-08-05T18:17:53Z</time>
      </trkpt>
      <trkpt lat="47.99908" lon="7.02483">
        <ele>584.9</ele>
        <time>2021-08-05T18:17:54Z</time>
      </trkpt>
      <trkpt lat="47.99907" lon="7.02483">
        <ele>585</ele>
        <time>2021-08-05T18:17:55Z</time>
      </trkpt>
      <trkpt lat="47.99903" lon="7.02482">
        <ele>585.2</ele>
        <time>2021-08-05T18:17:56Z</time>
      </trkpt>
      <trkpt lat="47.99902" lon="7.02482">
        <ele>585.3</ele>
        <time>2021-08-05T18:17:57Z</time>
      </trkpt>
      <trkpt lat="47.99899" lon="7.02483">
        <ele>585.5</ele>
        <time>2021-08-05T18:17:58Z</time>
      </trkpt>
      <trkpt lat="47.99896" lon="7.02483">
        <ele>585.6</ele>
        <time>2021-08-05T18:17:59Z</time>
      </trkpt>
      <trkpt lat="47.99892" lon="7.02481">
        <ele>585.8</ele>
        <time>2021-08-05T18:18:01Z</time>
      </trkpt>
      <trkpt lat="47.9989" lon="7.02478">
        <ele>586</ele>
        <time>2021-08-05T18:18:02Z</time>
      </trkpt>
      <trkpt lat="47.99889" lon="7.02477">
        <ele>586</ele>
        <time>2021-08-05T18:18:03Z</time>
      </trkpt>
      <trkpt lat="47.99887" lon="7.02473">
        <ele>586.2</ele>
        <time>2021-08-05T18:18:04Z</time>
      </trkpt>
      <trkpt lat="47.99886" lon="7.02472">
        <ele>586.3</ele>
        <time>2021-08-05T18:18:05Z</time>
      </trkpt>
      <trkpt lat="47.99885" lon="7.0247">
        <ele>586.3</ele>
        <time>2021-08-05T18:18:06Z</time>
      </trkpt>
      <trkpt lat="47.99886" lon="7.0247">
        <ele>586.4</ele>
        <time>2021-08-05T18:18:07Z</time>
      </trkpt>
      <trkpt lat="47.99885" lon="7.02467">
        <ele>586.4</ele>
        <time>2021-08-05T18:18:08Z</time>
      </trkpt>
      <trkpt lat="47.99884" lon="7.02465">
        <ele>586.5</ele>
        <time>2021-08-05T18:18:10Z</time>
      </trkpt>
      <trkpt lat="47.99883" lon="7.02462">
        <ele>586.6</ele>
        <time>2021-08-05T18:18:12Z</time>
      </trkpt>
      <trkpt lat="47.99882" lon="7.0246">
        <ele>586.7</ele>
        <time>2021-08-05T18:18:13Z</time>
      </trkpt>
      <trkpt lat="47.99881" lon="7.02459">
        <ele>586.7</ele>
        <time>2021-08-05T18:18:14Z</time>
      </trkpt>
      <trkpt lat="47.9988" lon="7.02457">
        <ele>586.8</ele>
        <time>2021-08-05T18:18:16Z</time>
      </trkpt>
      <trkpt lat="47.99879" lon="7.02456">
        <ele>586.9</ele>
        <time>2021-08-05T18:18:17Z</time>
      </trkpt>
      <trkpt lat="47.99877" lon="7.02453">
        <ele>587</ele>
        <time>2021-08-05T18:18:18Z</time>
      </trkpt>
      <trkpt lat="47.99874" lon="7.02448">
        <ele>587.1</ele>
        <time>2021-08-05T18:18:20Z</time>
      </trkpt>
      <trkpt lat="47.99873" lon="7.02446">
        <ele>587.2</ele>
        <time>2021-08-05T18:18:22Z</time>
      </trkpt>
      <trkpt lat="47.99872" lon="7.02445">
        <ele>587.2</ele>
        <time>2021-08-05T18:18:23Z</time>
      </trkpt>
      <trkpt lat="47.99871" lon="7.02443">
        <ele>587.3</ele>
        <time>2021-08-05T18:18:24Z</time>
      </trkpt>
      <trkpt lat="47.99865" lon="7.02441">
        <ele>587.7</ele>
        <time>2021-08-05T18:18:26Z</time>
      </trkpt>
      <trkpt lat="47.99858" lon="7.0244">
        <ele>588</ele>
        <time>2021-08-05T18:18:28Z</time>
      </trkpt>
      <trkpt lat="47.99851" lon="7.02441">
        <ele>588.2</ele>
        <time>2021-08-05T18:18:29Z</time>
      </trkpt>
      <trkpt lat="47.99846" lon="7.02442">
        <ele>588.3</ele>
        <time>2021-08-05T18:18:30Z</time>
      </trkpt>
      <trkpt lat="47.99841" lon="7.02441">
        <ele>588.4</ele>
        <time>2021-08-05T18:18:31Z</time>
      </trkpt>
      <trkpt lat="47.99835" lon="7.02438">
        <ele>588.5</ele>
        <time>2021-08-05T18:18:33Z</time>
      </trkpt>
      <trkpt lat="47.99834" lon="7.02434">
        <ele>588.6</ele>
        <time>2021-08-05T18:18:34Z</time>
      </trkpt>
      <trkpt lat="47.99833" lon="7.0243">
        <ele>588.6</ele>
        <time>2021-08-05T18:18:36Z</time>
      </trkpt>
      <trkpt lat="47.99832" lon="7.02428">
        <ele>588.6</ele>
        <time>2021-08-05T18:18:37Z</time>
      </trkpt>
      <trkpt lat="47.99831" lon="7.02425">
        <ele>588.7</ele>
        <time>2021-08-05T18:18:38Z</time>
      </trkpt>
      <trkpt lat="47.99829" lon="7.02422">
        <ele>588.7</ele>
        <time>2021-08-05T18:18:39Z</time>
      </trkpt>
      <trkpt lat="47.99826" lon="7.02419">
        <ele>588.8</ele>
        <time>2021-08-05T18:18:40Z</time>
      </trkpt>
      <trkpt lat="47.99824" lon="7.02415">
        <ele>588.8</ele>
        <time>2021-08-05T18:18:41Z</time>
      </trkpt>
      <trkpt lat="47.99822" lon="7.02412">
        <ele>588.9</ele>
        <time>2021-08-05T18:18:42Z</time>
      </trkpt>
      <trkpt lat="47.99819" lon="7.0241">
        <ele>589</ele>
        <time>2021-08-05T18:18:43Z</time>
      </trkpt>
      <trkpt lat="47.99817" lon="7.02408">
        <ele>589</ele>
        <time>2021-08-05T18:18:44Z</time>
      </trkpt>
      <trkpt lat="47.99812" lon="7.02403">
        <ele>589.1</ele>
        <time>2021-08-05T18:18:46Z</time>
      </trkpt>
      <trkpt lat="47.99809" lon="7.02401">
        <ele>589.1</ele>
        <time>2021-08-05T18:18:47Z</time>
      </trkpt>
      <trkpt lat="47.99806" lon="7.02397">
        <ele>589.2</ele>
        <time>2021-08-05T18:18:48Z</time>
      </trkpt>
      <trkpt lat="47.99804" lon="7.02393">
        <ele>589.3</ele>
        <time>2021-08-05T18:18:49Z</time>
      </trkpt>
      <trkpt lat="47.99801" lon="7.02391">
        <ele>589.3</ele>
        <time>2021-08-05T18:18:50Z</time>
      </trkpt>
      <trkpt lat="47.99795" lon="7.02387">
        <ele>589.4</ele>
        <time>2021-08-05T18:18:52Z</time>
      </trkpt>
      <trkpt lat="47.99792" lon="7.02384">
        <ele>589.5</ele>
        <time>2021-08-05T18:18:53Z</time>
      </trkpt>
      <trkpt lat="47.99789" lon="7.02382">
        <ele>589.6</ele>
        <time>2021-08-05T18:18:55Z</time>
      </trkpt>
      <trkpt lat="47.99785" lon="7.0238">
        <ele>589.7</ele>
        <time>2021-08-05T18:18:56Z</time>
      </trkpt>
      <trkpt lat="47.99781" lon="7.02379">
        <ele>589.8</ele>
        <time>2021-08-05T18:18:57Z</time>
      </trkpt>
      <trkpt lat="47.99778" lon="7.02378">
        <ele>589.8</ele>
        <time>2021-08-05T18:18:58Z</time>
      </trkpt>
      <trkpt lat="47.99773" lon="7.02376">
        <ele>590</ele>
        <time>2021-08-05T18:18:59Z</time>
      </trkpt>
      <trkpt lat="47.99769" lon="7.02372">
        <ele>590.1</ele>
        <time>2021-08-05T18:19:01Z</time>
      </trkpt>
      <trkpt lat="47.99766" lon="7.02369">
        <ele>590.2</ele>
        <time>2021-08-05T18:19:02Z</time>
      </trkpt>
      <trkpt lat="47.99764" lon="7.02367">
        <ele>590.3</ele>
        <time>2021-08-05T18:19:03Z</time>
      </trkpt>
      <trkpt lat="47.99761" lon="7.02363">
        <ele>590.4</ele>
        <time>2021-08-05T18:19:04Z</time>
      </trkpt>
      <trkpt lat="47.9976" lon="7.02362">
        <ele>590.4</ele>
        <time>2021-08-05T18:19:05Z</time>
      </trkpt>
      <trkpt lat="47.99757" lon="7.0236">
        <ele>590.5</ele>
        <time>2021-08-05T18:19:06Z</time>
      </trkpt>
      <trkpt lat="47.99754" lon="7.02358">
        <ele>590.6</ele>
        <time>2021-08-05T18:19:07Z</time>
      </trkpt>
      <trkpt lat="47.9975" lon="7.02356">
        <ele>590.7</ele>
        <time>2021-08-05T18:19:08Z</time>
      </trkpt>
      <trkpt lat="47.99746" lon="7.02355">
        <ele>590.8</ele>
        <time>2021-08-05T18:19:09Z</time>
      </trkpt>
      <trkpt lat="47.99743" lon="7.02354">
        <ele>590.9</ele>
        <time>2021-08-05T18:19:10Z</time>
      </trkpt>
      <trkpt lat="47.99743" lon="7.02353">
        <ele>591</ele>
        <time>2021-08-05T18:19:11Z</time>
      </trkpt>
      <trkpt lat="47.99743" lon="7.0235">
        <ele>591</ele>
        <time>2021-08-05T18:19:12Z</time>
      </trkpt>
      <trkpt lat="47.99745" lon="7.02338">
        <ele>591.3</ele>
        <time>2021-08-05T18:19:14Z</time>
      </trkpt>
      <trkpt lat="47.99745" lon="7.02335">
        <ele>591.3</ele>
        <time>2021-08-05T18:19:16Z</time>
      </trkpt>
      <trkpt lat="47.99745" lon="7.02334">
        <ele>591.4</ele>
        <time>2021-08-05T18:19:17Z</time>
      </trkpt>
      <trkpt lat="47.99745" lon="7.02333">
        <ele>591.4</ele>
        <time>2021-08-05T18:19:18Z</time>
      </trkpt>
      <trkpt lat="47.99744" lon="7.02333">
        <ele>591.4</ele>
        <time>2021-08-05T18:19:19Z</time>
      </trkpt>
      <trkpt lat="47.99733" lon="7.02331">
        <ele>591.8</ele>
        <time>2021-08-05T18:19:25Z</time>
      </trkpt>
      <trkpt lat="47.99726" lon="7.02329">
        <ele>592</ele>
        <time>2021-08-05T18:19:27Z</time>
      </trkpt>
      <trkpt lat="47.99721" lon="7.02328">
        <ele>592.1</ele>
        <time>2021-08-05T18:19:28Z</time>
      </trkpt>
      <trkpt lat="47.9972" lon="7.02328">
        <ele>592.2</ele>
        <time>2021-08-05T18:19:29Z</time>
      </trkpt>
      <trkpt lat="47.99713" lon="7.02322">
        <ele>592.4</ele>
        <time>2021-08-05T18:19:31Z</time>
      </trkpt>
      <trkpt lat="47.99711" lon="7.0232">
        <ele>592.4</ele>
        <time>2021-08-05T18:19:32Z</time>
      </trkpt>
      <trkpt lat="47.99711" lon="7.02318">
        <ele>592.5</ele>
        <time>2021-08-05T18:19:33Z</time>
      </trkpt>
      <trkpt lat="47.99711" lon="7.02315">
        <ele>592.5</ele>
        <time>2021-08-05T18:19:34Z</time>
      </trkpt>
      <trkpt lat="47.99711" lon="7.02314">
        <ele>592.6</ele>
        <time>2021-08-05T18:19:35Z</time>
      </trkpt>
      <trkpt lat="47.99711" lon="7.02309">
        <ele>592.7</ele>
        <time>2021-08-05T18:19:37Z</time>
      </trkpt>
      <trkpt lat="47.99711" lon="7.02308">
        <ele>592.7</ele>
        <time>2021-08-05T18:19:38Z</time>
      </trkpt>
      <trkpt lat="47.99709" lon="7.02303">
        <ele>592.8</ele>
        <time>2021-08-05T18:19:39Z</time>
      </trkpt>
      <trkpt lat="47.99708" lon="7.02301">
        <ele>592.8</ele>
        <time>2021-08-05T18:19:40Z</time>
      </trkpt>
      <trkpt lat="47.99706" lon="7.02298">
        <ele>592.9</ele>
        <time>2021-08-05T18:19:41Z</time>
      </trkpt>
      <trkpt lat="47.99701" lon="7.02293">
        <ele>593.1</ele>
        <time>2021-08-05T18:19:43Z</time>
      </trkpt>
      <trkpt lat="47.99698" lon="7.02289">
        <ele>593.2</ele>
        <time>2021-08-05T18:19:44Z</time>
      </trkpt>
      <trkpt lat="47.99695" lon="7.02286">
        <ele>593.3</ele>
        <time>2021-08-05T18:19:45Z</time>
      </trkpt>
      <trkpt lat="47.99692" lon="7.02283">
        <ele>593.4</ele>
        <time>2021-08-05T18:19:46Z</time>
      </trkpt>
      <trkpt lat="47.99689" lon="7.02281">
        <ele>593.5</ele>
        <time>2021-08-05T18:19:47Z</time>
      </trkpt>
      <trkpt lat="47.99684" lon="7.0228">
        <ele>593.7</ele>
        <time>2021-08-05T18:19:48Z</time>
      </trkpt>
      <trkpt lat="47.99678" lon="7.02277">
        <ele>593.9</ele>
        <time>2021-08-05T18:19:50Z</time>
      </trkpt>
      <trkpt lat="47.99674" lon="7.02275">
        <ele>594</ele>
        <time>2021-08-05T18:19:51Z</time>
      </trkpt>
      <trkpt lat="47.99671" lon="7.02274">
        <ele>594.1</ele>
        <time>2021-08-05T18:19:52Z</time>
      </trkpt>
      <trkpt lat="47.99666" lon="7.0227">
        <ele>594.3</ele>
        <time>2021-08-05T18:19:54Z</time>
      </trkpt>
      <trkpt lat="47.99661" lon="7.02267">
        <ele>594.5</ele>
        <time>2021-08-05T18:19:55Z</time>
      </trkpt>
      <trkpt lat="47.99655" lon="7.02263">
        <ele>594.7</ele>
        <time>2021-08-05T18:19:57Z</time>
      </trkpt>
      <trkpt lat="47.99651" lon="7.0226">
        <ele>594.8</ele>
        <time>2021-08-05T18:19:59Z</time>
      </trkpt>
      <trkpt lat="47.99649" lon="7.0226">
        <ele>594.9</ele>
        <time>2021-08-05T18:20:00Z</time>
      </trkpt>
      <trkpt lat="47.99646" lon="7.02258">
        <ele>595</ele>
        <time>2021-08-05T18:20:02Z</time>
      </trkpt>
      <trkpt lat="47.99643" lon="7.02255">
        <ele>595</ele>
        <time>2021-08-05T18:20:03Z</time>
      </trkpt>
      <trkpt lat="47.99642" lon="7.02254">
        <ele>595.1</ele>
        <time>2021-08-05T18:20:04Z</time>
      </trkpt>
      <trkpt lat="47.99639" lon="7.02252">
        <ele>595.1</ele>
        <time>2021-08-05T18:20:05Z</time>
      </trkpt>
      <trkpt lat="47.99633" lon="7.02249">
        <ele>595.3</ele>
        <time>2021-08-05T18:20:07Z</time>
      </trkpt>
      <trkpt lat="47.99629" lon="7.02248">
        <ele>595.3</ele>
        <time>2021-08-05T18:20:08Z</time>
      </trkpt>
      <trkpt lat="47.99622" lon="7.02247">
        <ele>595.5</ele>
        <time>2021-08-05T18:20:10Z</time>
      </trkpt>
      <trkpt lat="47.99618" lon="7.02246">
        <ele>595.5</ele>
        <time>2021-08-05T18:20:11Z</time>
      </trkpt>
      <trkpt lat="47.99614" lon="7.02245">
        <ele>595.6</ele>
        <time>2021-08-05T18:20:12Z</time>
      </trkpt>
      <trkpt lat="47.9961" lon="7.02243">
        <ele>595.7</ele>
        <time>2021-08-05T18:20:13Z</time>
      </trkpt>
      <trkpt lat="47.99604" lon="7.02241">
        <ele>595.8</ele>
        <time>2021-08-05T18:20:15Z</time>
      </trkpt>
      <trkpt lat="47.99599" lon="7.02239">
        <ele>596</ele>
        <time>2021-08-05T18:20:16Z</time>
      </trkpt>
      <trkpt lat="47.99595" lon="7.02238">
        <ele>596.1</ele>
        <time>2021-08-05T18:20:17Z</time>
      </trkpt>
      <trkpt lat="47.9959" lon="7.02238">
        <ele>596.2</ele>
        <time>2021-08-05T18:20:18Z</time>
      </trkpt>
      <trkpt lat="47.99586" lon="7.02237">
        <ele>596.3</ele>
        <time>2021-08-05T18:20:19Z</time>
      </trkpt>
      <trkpt lat="47.99582" lon="7.02235">
        <ele>596.4</ele>
        <time>2021-08-05T18:20:20Z</time>
      </trkpt>
      <trkpt lat="47.99578" lon="7.02233">
        <ele>596.5</ele>
        <time>2021-08-05T18:20:21Z</time>
      </trkpt>
      <trkpt lat="47.99575" lon="7.02231">
        <ele>596.6</ele>
        <time>2021-08-05T18:20:22Z</time>
      </trkpt>
      <trkpt lat="47.99568" lon="7.02228">
        <ele>596.7</ele>
        <time>2021-08-05T18:20:24Z</time>
      </trkpt>
      <trkpt lat="47.99559" lon="7.02226">
        <ele>596.9</ele>
        <time>2021-08-05T18:20:26Z</time>
      </trkpt>
      <trkpt lat="47.99554" lon="7.02225">
        <ele>597.1</ele>
        <time>2021-08-05T18:20:27Z</time>
      </trkpt>
      <trkpt lat="47.9955" lon="7.02224">
        <ele>597.2</ele>
        <time>2021-08-05T18:20:28Z</time>
      </trkpt>
      <trkpt lat="47.99546" lon="7.02222">
        <ele>597.3</ele>
        <time>2021-08-05T18:20:29Z</time>
      </trkpt>
      <trkpt lat="47.99538" lon="7.0222">
        <ele>597.4</ele>
        <time>2021-08-05T18:20:31Z</time>
      </trkpt>
      <trkpt lat="47.99532" lon="7.02216">
        <ele>597.5</ele>
        <time>2021-08-05T18:20:33Z</time>
      </trkpt>
      <trkpt lat="47.99525" lon="7.02216">
        <ele>597.7</ele>
        <time>2021-08-05T18:20:35Z</time>
      </trkpt>
      <trkpt lat="47.99521" lon="7.02216">
        <ele>597.7</ele>
        <time>2021-08-05T18:20:36Z</time>
      </trkpt>
      <trkpt lat="47.99515" lon="7.02215">
        <ele>597.9</ele>
        <time>2021-08-05T18:20:38Z</time>
      </trkpt>
      <trkpt lat="47.9951" lon="7.02212">
        <ele>598</ele>
        <time>2021-08-05T18:20:40Z</time>
      </trkpt>
      <trkpt lat="47.99508" lon="7.0221">
        <ele>598</ele>
        <time>2021-08-05T18:20:41Z</time>
      </trkpt>
      <trkpt lat="47.99502" lon="7.02208">
        <ele>598.1</ele>
        <time>2021-08-05T18:20:43Z</time>
      </trkpt>
      <trkpt lat="47.99496" lon="7.02207">
        <ele>598.2</ele>
        <time>2021-08-05T18:20:44Z</time>
      </trkpt>
      <trkpt lat="47.99493" lon="7.02206">
        <ele>598.2</ele>
        <time>2021-08-05T18:20:45Z</time>
      </trkpt>
      <trkpt lat="47.99486" lon="7.02204">
        <ele>598.4</ele>
        <time>2021-08-05T18:20:47Z</time>
      </trkpt>
      <trkpt lat="47.9948" lon="7.022">
        <ele>598.5</ele>
        <time>2021-08-05T18:20:49Z</time>
      </trkpt>
      <trkpt lat="47.99476" lon="7.02197">
        <ele>598.6</ele>
        <time>2021-08-05T18:20:50Z</time>
      </trkpt>
      <trkpt lat="47.99468" lon="7.02191">
        <ele>598.7</ele>
        <time>2021-08-05T18:20:52Z</time>
      </trkpt>
      <trkpt lat="47.99464" lon="7.02188">
        <ele>598.7</ele>
        <time>2021-08-05T18:20:53Z</time>
      </trkpt>
      <trkpt lat="47.99456" lon="7.02186">
        <ele>598.8</ele>
        <time>2021-08-05T18:20:55Z</time>
      </trkpt>
      <trkpt lat="47.99449" lon="7.02186">
        <ele>598.9</ele>
        <time>2021-08-05T18:20:57Z</time>
      </trkpt>
      <trkpt lat="47.99443" lon="7.02188">
        <ele>599</ele>
        <time>2021-08-05T18:20:58Z</time>
      </trkpt>
      <trkpt lat="47.99438" lon="7.0219">
        <ele>599</ele>
        <time>2021-08-05T18:20:59Z</time>
      </trkpt>
      <trkpt lat="47.9943" lon="7.02192">
        <ele>599.1</ele>
        <time>2021-08-05T18:21:01Z</time>
      </trkpt>
      <trkpt lat="47.99424" lon="7.0219">
        <ele>599.2</ele>
        <time>2021-08-05T18:21:03Z</time>
      </trkpt>
      <trkpt lat="47.99416" lon="7.02191">
        <ele>599.2</ele>
        <time>2021-08-05T18:21:05Z</time>
      </trkpt>
      <trkpt lat="47.9941" lon="7.02191">
        <ele>599.3</ele>
        <time>2021-08-05T18:21:06Z</time>
      </trkpt>
      <trkpt lat="47.99406" lon="7.02192">
        <ele>599.3</ele>
        <time>2021-08-05T18:21:07Z</time>
      </trkpt>
      <trkpt lat="47.99399" lon="7.02191">
        <ele>599.4</ele>
        <time>2021-08-05T18:21:09Z</time>
      </trkpt>
      <trkpt lat="47.99394" lon="7.02191">
        <ele>599.4</ele>
        <time>2021-08-05T18:21:10Z</time>
      </trkpt>
      <trkpt lat="47.99388" lon="7.02192">
        <ele>599.4</ele>
        <time>2021-08-05T18:21:12Z</time>
      </trkpt>
      <trkpt lat="47.99381" lon="7.02191">
        <ele>599.5</ele>
        <time>2021-08-05T18:21:14Z</time>
      </trkpt>
      <trkpt lat="47.99379" lon="7.0219">
        <ele>599.5</ele>
        <time>2021-08-05T18:21:15Z</time>
      </trkpt>
      <trkpt lat="47.99377" lon="7.0219">
        <ele>599.5</ele>
        <time>2021-08-05T18:21:16Z</time>
      </trkpt>
      <trkpt lat="47.99375" lon="7.02188">
        <ele>599.5</ele>
        <time>2021-08-05T18:21:18Z</time>
      </trkpt>
      <trkpt lat="47.99374" lon="7.02187">
        <ele>599.5</ele>
        <time>2021-08-05T18:21:19Z</time>
      </trkpt>
      <trkpt lat="47.99273" lon="7.02176">
        <ele>601</ele>
        <time>2021-08-05T18:21:41Z</time>
      </trkpt>
      <trkpt lat="47.99268" lon="7.02177">
        <ele>601.1</ele>
        <time>2021-08-05T18:21:42Z</time>
      </trkpt>
      <trkpt lat="47.99262" lon="7.02177">
        <ele>601.2</ele>
        <time>2021-08-05T18:21:43Z</time>
      </trkpt>
      <trkpt lat="47.99259" lon="7.02177">
        <ele>601.3</ele>
        <time>2021-08-05T18:21:44Z</time>
      </trkpt>
      <trkpt lat="47.99255" lon="7.02179">
        <ele>601.4</ele>
        <time>2021-08-05T18:21:45Z</time>
      </trkpt>
      <trkpt lat="47.99251" lon="7.02179">
        <ele>601.5</ele>
        <time>2021-08-05T18:21:46Z</time>
      </trkpt>
      <trkpt lat="47.99248" lon="7.02178">
        <ele>601.5</ele>
        <time>2021-08-05T18:21:48Z</time>
      </trkpt>
      <trkpt lat="47.99246" lon="7.02176">
        <ele>601.6</ele>
        <time>2021-08-05T18:21:49Z</time>
      </trkpt>
      <trkpt lat="47.99242" lon="7.02174">
        <ele>601.7</ele>
        <time>2021-08-05T18:21:50Z</time>
      </trkpt>
      <trkpt lat="47.99239" lon="7.02173">
        <ele>601.8</ele>
        <time>2021-08-05T18:21:51Z</time>
      </trkpt>
      <trkpt lat="47.99237" lon="7.02171">
        <ele>601.8</ele>
        <time>2021-08-05T18:21:52Z</time>
      </trkpt>
      <trkpt lat="47.99235" lon="7.0217">
        <ele>601.9</ele>
        <time>2021-08-05T18:21:53Z</time>
      </trkpt>
      <trkpt lat="47.9923" lon="7.02167">
        <ele>602</ele>
        <time>2021-08-05T18:21:55Z</time>
      </trkpt>
      <trkpt lat="47.99226" lon="7.02164">
        <ele>602.2</ele>
        <time>2021-08-05T18:21:57Z</time>
      </trkpt>
      <trkpt lat="47.99223" lon="7.02161">
        <ele>602.2</ele>
        <time>2021-08-05T18:21:58Z</time>
      </trkpt>
      <trkpt lat="47.9922" lon="7.02153">
        <ele>602.4</ele>
        <time>2021-08-05T18:22:00Z</time>
      </trkpt>
      <trkpt lat="47.9922" lon="7.02151">
        <ele>602.5</ele>
        <time>2021-08-05T18:22:01Z</time>
      </trkpt>
      <trkpt lat="47.99217" lon="7.02143">
        <ele>602.6</ele>
        <time>2021-08-05T18:22:03Z</time>
      </trkpt>
      <trkpt lat="47.99211" lon="7.02136">
        <ele>602.9</ele>
        <time>2021-08-05T18:22:05Z</time>
      </trkpt>
      <trkpt lat="47.99208" lon="7.02134">
        <ele>603</ele>
        <time>2021-08-05T18:22:06Z</time>
      </trkpt>
      <trkpt lat="47.99205" lon="7.02133">
        <ele>603.1</ele>
        <time>2021-08-05T18:22:08Z</time>
      </trkpt>
      <trkpt lat="47.99202" lon="7.02131">
        <ele>603.2</ele>
        <time>2021-08-05T18:22:09Z</time>
      </trkpt>
      <trkpt lat="47.99198" lon="7.0213">
        <ele>603.4</ele>
        <time>2021-08-05T18:22:11Z</time>
      </trkpt>
      <trkpt lat="47.99195" lon="7.02129">
        <ele>603.5</ele>
        <time>2021-08-05T18:22:12Z</time>
      </trkpt>
      <trkpt lat="47.99191" lon="7.02129">
        <ele>603.6</ele>
        <time>2021-08-05T18:22:13Z</time>
      </trkpt>
      <trkpt lat="47.99188" lon="7.02129">
        <ele>603.8</ele>
        <time>2021-08-05T18:22:14Z</time>
      </trkpt>
      <trkpt lat="47.99185" lon="7.02129">
        <ele>603.9</ele>
        <time>2021-08-05T18:22:15Z</time>
      </trkpt>
      <trkpt lat="47.99181" lon="7.02129">
        <ele>604</ele>
        <time>2021-08-05T18:22:17Z</time>
      </trkpt>
      <trkpt lat="47.99179" lon="7.02129">
        <ele>604.1</ele>
        <time>2021-08-05T18:22:18Z</time>
      </trkpt>
      <trkpt lat="47.99175" lon="7.02128">
        <ele>604.2</ele>
        <time>2021-08-05T18:22:19Z</time>
      </trkpt>
      <trkpt lat="47.99174" lon="7.02127">
        <ele>604.3</ele>
        <time>2021-08-05T18:22:20Z</time>
      </trkpt>
      <trkpt lat="47.99172" lon="7.02126">
        <ele>604.3</ele>
        <time>2021-08-05T18:22:21Z</time>
      </trkpt>
      <trkpt lat="47.99171" lon="7.02126">
        <ele>604.4</ele>
        <time>2021-08-05T18:22:22Z</time>
      </trkpt>
      <trkpt lat="47.99171" lon="7.02125">
        <ele>604.4</ele>
        <time>2021-08-05T18:22:23Z</time>
      </trkpt>
      <trkpt lat="47.99171" lon="7.02123">
        <ele>604.5</ele>
        <time>2021-08-05T18:22:24Z</time>
      </trkpt>
      <trkpt lat="47.99171" lon="7.02122">
        <ele>604.5</ele>
        <time>2021-08-05T18:22:26Z</time>
      </trkpt>
      <trkpt lat="47.99169" lon="7.02122">
        <ele>604.5</ele>
        <time>2021-08-05T18:22:27Z</time>
      </trkpt>
      <trkpt lat="47.99169" lon="7.02121">
        <ele>604.6</ele>
        <time>2021-08-05T18:22:28Z</time>
      </trkpt>
      <trkpt lat="47.99168" lon="7.02121">
        <ele>604.6</ele>
        <time>2021-08-05T18:22:29Z</time>
      </trkpt>
      <trkpt lat="47.99166" lon="7.0212">
        <ele>604.7</ele>
        <time>2021-08-05T18:22:30Z</time>
      </trkpt>
      <trkpt lat="47.99164" lon="7.02119">
        <ele>604.8</ele>
        <time>2021-08-05T18:22:31Z</time>
      </trkpt>
      <trkpt lat="47.9916" lon="7.02118">
        <ele>604.9</ele>
        <time>2021-08-05T18:22:33Z</time>
      </trkpt>
      <trkpt lat="47.99155" lon="7.02117">
        <ele>605.1</ele>
        <time>2021-08-05T18:22:35Z</time>
      </trkpt>
      <trkpt lat="47.99152" lon="7.02118">
        <ele>605.2</ele>
        <time>2021-08-05T18:22:36Z</time>
      </trkpt>
      <trkpt lat="47.99148" lon="7.02118">
        <ele>605.4</ele>
        <time>2021-08-05T18:22:37Z</time>
      </trkpt>
      <trkpt lat="47.99144" lon="7.02118">
        <ele>605.5</ele>
        <time>2021-08-05T18:22:38Z</time>
      </trkpt>
      <trkpt lat="47.99141" lon="7.02118">
        <ele>605.7</ele>
        <time>2021-08-05T18:22:39Z</time>
      </trkpt>
      <trkpt lat="47.99137" lon="7.02118">
        <ele>605.8</ele>
        <time>2021-08-05T18:22:40Z</time>
      </trkpt>
      <trkpt lat="47.99132" lon="7.02119">
        <ele>606</ele>
        <time>2021-08-05T18:22:42Z</time>
      </trkpt>
      <trkpt lat="47.99128" lon="7.02119">
        <ele>606.2</ele>
        <time>2021-08-05T18:22:43Z</time>
      </trkpt>
      <trkpt lat="47.99125" lon="7.02119">
        <ele>606.3</ele>
        <time>2021-08-05T18:22:44Z</time>
      </trkpt>
      <trkpt lat="47.99122" lon="7.02119">
        <ele>606.4</ele>
        <time>2021-08-05T18:22:45Z</time>
      </trkpt>
      <trkpt lat="47.99119" lon="7.02119">
        <ele>606.5</ele>
        <time>2021-08-05T18:22:46Z</time>
      </trkpt>
      <trkpt lat="47.99115" lon="7.0212">
        <ele>606.6</ele>
        <time>2021-08-05T18:22:47Z</time>
      </trkpt>
      <trkpt lat="47.99113" lon="7.0212">
        <ele>606.7</ele>
        <time>2021-08-05T18:22:48Z</time>
      </trkpt>
      <trkpt lat="47.99109" lon="7.02121">
        <ele>606.8</ele>
        <time>2021-08-05T18:22:50Z</time>
      </trkpt>
      <trkpt lat="47.99106" lon="7.02121">
        <ele>606.9</ele>
        <time>2021-08-05T18:22:51Z</time>
      </trkpt>
      <trkpt lat="47.99101" lon="7.02119">
        <ele>607.1</ele>
        <time>2021-08-05T18:22:52Z</time>
      </trkpt>
      <trkpt lat="47.99096" lon="7.02119">
        <ele>607.2</ele>
        <time>2021-08-05T18:22:54Z</time>
      </trkpt>
      <trkpt lat="47.99093" lon="7.02118">
        <ele>607.3</ele>
        <time>2021-08-05T18:22:55Z</time>
      </trkpt>
      <trkpt lat="47.9909" lon="7.02117">
        <ele>607.4</ele>
        <time>2021-08-05T18:22:56Z</time>
      </trkpt>
      <trkpt lat="47.99087" lon="7.02115">
        <ele>607.6</ele>
        <time>2021-08-05T18:22:57Z</time>
      </trkpt>
      <trkpt lat="47.99085" lon="7.02114">
        <ele>607.6</ele>
        <time>2021-08-05T18:22:58Z</time>
      </trkpt>
      <trkpt lat="47.99084" lon="7.02112">
        <ele>607.7</ele>
        <time>2021-08-05T18:22:59Z</time>
      </trkpt>
      <trkpt lat="47.99081" lon="7.02107">
        <ele>607.8</ele>
        <time>2021-08-05T18:23:01Z</time>
      </trkpt>
      <trkpt lat="47.9908" lon="7.02104">
        <ele>607.8</ele>
        <time>2021-08-05T18:23:02Z</time>
      </trkpt>
      <trkpt lat="47.99078" lon="7.02099">
        <ele>607.9</ele>
        <time>2021-08-05T18:23:03Z</time>
      </trkpt>
      <trkpt lat="47.99077" lon="7.02097">
        <ele>607.9</ele>
        <time>2021-08-05T18:23:04Z</time>
      </trkpt>
      <trkpt lat="47.99074" lon="7.02091">
        <ele>608.1</ele>
        <time>2021-08-05T18:23:06Z</time>
      </trkpt>
      <trkpt lat="47.99072" lon="7.02088">
        <ele>608.1</ele>
        <time>2021-08-05T18:23:07Z</time>
      </trkpt>
      <trkpt lat="47.9907" lon="7.02086">
        <ele>608.2</ele>
        <time>2021-08-05T18:23:08Z</time>
      </trkpt>
      <trkpt lat="47.99067" lon="7.02083">
        <ele>608.3</ele>
        <time>2021-08-05T18:23:10Z</time>
      </trkpt>
      <trkpt lat="47.99063" lon="7.0208">
        <ele>608.4</ele>
        <time>2021-08-05T18:23:11Z</time>
      </trkpt>
      <trkpt lat="47.9906" lon="7.02078">
        <ele>608.5</ele>
        <time>2021-08-05T18:23:12Z</time>
      </trkpt>
      <trkpt lat="47.99057" lon="7.02076">
        <ele>608.6</ele>
        <time>2021-08-05T18:23:13Z</time>
      </trkpt>
      <trkpt lat="47.99054" lon="7.02075">
        <ele>608.7</ele>
        <time>2021-08-05T18:23:14Z</time>
      </trkpt>
      <trkpt lat="47.99049" lon="7.02078">
        <ele>608.9</ele>
        <time>2021-08-05T18:23:16Z</time>
      </trkpt>
      <trkpt lat="47.99047" lon="7.02079">
        <ele>609</ele>
        <time>2021-08-05T18:23:17Z</time>
      </trkpt>
      <trkpt lat="47.99045" lon="7.02081">
        <ele>609</ele>
        <time>2021-08-05T18:23:19Z</time>
      </trkpt>
      <trkpt lat="47.99044" lon="7.02082">
        <ele>609.1</ele>
        <time>2021-08-05T18:23:20Z</time>
      </trkpt>
      <trkpt lat="47.99043" lon="7.02084">
        <ele>609.1</ele>
        <time>2021-08-05T18:23:21Z</time>
      </trkpt>
      <trkpt lat="47.99042" lon="7.02085">
        <ele>609.2</ele>
        <time>2021-08-05T18:23:22Z</time>
      </trkpt>
      <trkpt lat="47.99041" lon="7.02085">
        <ele>609.2</ele>
        <time>2021-08-05T18:23:23Z</time>
      </trkpt>
      <trkpt lat="47.9904" lon="7.02086">
        <ele>609.3</ele>
        <time>2021-08-05T18:23:24Z</time>
      </trkpt>
      <trkpt lat="47.99038" lon="7.02086">
        <ele>609.3</ele>
        <time>2021-08-05T18:23:26Z</time>
      </trkpt>
      <trkpt lat="47.99036" lon="7.02085">
        <ele>609.4</ele>
        <time>2021-08-05T18:23:28Z</time>
      </trkpt>
      <trkpt lat="47.99034" lon="7.02085">
        <ele>609.5</ele>
        <time>2021-08-05T18:23:29Z</time>
      </trkpt>
      <trkpt lat="47.99022" lon="7.02087">
        <ele>609.9</ele>
        <time>2021-08-05T18:23:34Z</time>
      </trkpt>
      <trkpt lat="47.99017" lon="7.0209">
        <ele>610.1</ele>
        <time>2021-08-05T18:23:35Z</time>
      </trkpt>
      <trkpt lat="47.99012" lon="7.02092">
        <ele>610.2</ele>
        <time>2021-08-05T18:23:37Z</time>
      </trkpt>
      <trkpt lat="47.99005" lon="7.02096">
        <ele>610.5</ele>
        <time>2021-08-05T18:23:38Z</time>
      </trkpt>
      <trkpt lat="47.98999" lon="7.02098">
        <ele>610.7</ele>
        <time>2021-08-05T18:23:39Z</time>
      </trkpt>
      <trkpt lat="47.98996" lon="7.02098">
        <ele>610.8</ele>
        <time>2021-08-05T18:23:40Z</time>
      </trkpt>
      <trkpt lat="47.98994" lon="7.02097">
        <ele>610.8</ele>
        <time>2021-08-05T18:23:41Z</time>
      </trkpt>
      <trkpt lat="47.98993" lon="7.02097">
        <ele>610.9</ele>
        <time>2021-08-05T18:23:42Z</time>
      </trkpt>
      <trkpt lat="47.9899" lon="7.02096">
        <ele>611</ele>
        <time>2021-08-05T18:23:44Z</time>
      </trkpt>
      <trkpt lat="47.98989" lon="7.02096">
        <ele>611</ele>
        <time>2021-08-05T18:23:45Z</time>
      </trkpt>
      <trkpt lat="47.98978" lon="7.02098">
        <ele>611.4</ele>
        <time>2021-08-05T18:23:49Z</time>
      </trkpt>
      <trkpt lat="47.98969" lon="7.02099">
        <ele>611.7</ele>
        <time>2021-08-05T18:23:51Z</time>
      </trkpt>
      <trkpt lat="47.98965" lon="7.02098">
        <ele>611.8</ele>
        <time>2021-08-05T18:23:52Z</time>
      </trkpt>
      <trkpt lat="47.98957" lon="7.02093">
        <ele>612.1</ele>
        <time>2021-08-05T18:23:54Z</time>
      </trkpt>
      <trkpt lat="47.98956" lon="7.02087">
        <ele>612.3</ele>
        <time>2021-08-05T18:23:55Z</time>
      </trkpt>
      <trkpt lat="47.98957" lon="7.02084">
        <ele>612.4</ele>
        <time>2021-08-05T18:23:56Z</time>
      </trkpt>
      <trkpt lat="47.98954" lon="7.02078">
        <ele>612.5</ele>
        <time>2021-08-05T18:23:58Z</time>
      </trkpt>
      <trkpt lat="47.98951" lon="7.02077">
        <ele>612.7</ele>
        <time>2021-08-05T18:23:59Z</time>
      </trkpt>
      <trkpt lat="47.98943" lon="7.02079">
        <ele>613</ele>
        <time>2021-08-05T18:24:01Z</time>
      </trkpt>
      <trkpt lat="47.98936" lon="7.02081">
        <ele>613.4</ele>
        <time>2021-08-05T18:24:03Z</time>
      </trkpt>
      <trkpt lat="47.98927" lon="7.02083">
        <ele>613.8</ele>
        <time>2021-08-05T18:24:05Z</time>
      </trkpt>
      <trkpt lat="47.98918" lon="7.02088">
        <ele>614.1</ele>
        <time>2021-08-05T18:24:07Z</time>
      </trkpt>
      <trkpt lat="47.98909" lon="7.02092">
        <ele>614.5</ele>
        <time>2021-08-05T18:24:09Z</time>
      </trkpt>
      <trkpt lat="47.989" lon="7.02097">
        <ele>614.8</ele>
        <time>2021-08-05T18:24:11Z</time>
      </trkpt>
      <trkpt lat="47.98896" lon="7.02099">
        <ele>614.9</ele>
        <time>2021-08-05T18:24:12Z</time>
      </trkpt>
      <trkpt lat="47.98889" lon="7.02099">
        <ele>615.1</ele>
        <time>2021-08-05T18:24:14Z</time>
      </trkpt>
      <trkpt lat="47.98886" lon="7.02098">
        <ele>615.2</ele>
        <time>2021-08-05T18:24:15Z</time>
      </trkpt>
      <trkpt lat="47.98884" lon="7.02094">
        <ele>615.3</ele>
        <time>2021-08-05T18:24:16Z</time>
      </trkpt>
      <trkpt lat="47.98882" lon="7.02085">
        <ele>615.5</ele>
        <time>2021-08-05T18:24:18Z</time>
      </trkpt>
      <trkpt lat="47.98881" lon="7.02079">
        <ele>615.6</ele>
        <time>2021-08-05T18:24:19Z</time>
      </trkpt>
      <trkpt lat="47.98881" lon="7.02077">
        <ele>615.6</ele>
        <time>2021-08-05T18:24:20Z</time>
      </trkpt>
      <trkpt lat="47.98881" lon="7.02074">
        <ele>615.6</ele>
        <time>2021-08-05T18:24:21Z</time>
      </trkpt>
      <trkpt lat="47.98877" lon="7.02067">
        <ele>615.8</ele>
        <time>2021-08-05T18:24:23Z</time>
      </trkpt>
      <trkpt lat="47.98876" lon="7.02062">
        <ele>615.9</ele>
        <time>2021-08-05T18:24:24Z</time>
      </trkpt>
      <trkpt lat="47.98875" lon="7.02061">
        <ele>615.9</ele>
        <time>2021-08-05T18:24:25Z</time>
      </trkpt>
      <trkpt lat="47.98875" lon="7.02057">
        <ele>616</ele>
        <time>2021-08-05T18:24:26Z</time>
      </trkpt>
      <trkpt lat="47.98873" lon="7.02054">
        <ele>616.1</ele>
        <time>2021-08-05T18:24:28Z</time>
      </trkpt>
      <trkpt lat="47.9887" lon="7.0205">
        <ele>616.2</ele>
        <time>2021-08-05T18:24:29Z</time>
      </trkpt>
      <trkpt lat="47.98868" lon="7.02045">
        <ele>616.3</ele>
        <time>2021-08-05T18:24:30Z</time>
      </trkpt>
      <trkpt lat="47.98866" lon="7.02038">
        <ele>616.5</ele>
        <time>2021-08-05T18:24:31Z</time>
      </trkpt>
      <trkpt lat="47.98866" lon="7.02033">
        <ele>616.6</ele>
        <time>2021-08-05T18:24:32Z</time>
      </trkpt>
      <trkpt lat="47.98864" lon="7.02027">
        <ele>616.7</ele>
        <time>2021-08-05T18:24:34Z</time>
      </trkpt>
      <trkpt lat="47.98862" lon="7.02024">
        <ele>616.8</ele>
        <time>2021-08-05T18:24:35Z</time>
      </trkpt>
      <trkpt lat="47.98857" lon="7.02022">
        <ele>617</ele>
        <time>2021-08-05T18:24:37Z</time>
      </trkpt>
      <trkpt lat="47.98854" lon="7.02022">
        <ele>617.2</ele>
        <time>2021-08-05T18:24:38Z</time>
      </trkpt>
      <trkpt lat="47.9885" lon="7.02022">
        <ele>617.3</ele>
        <time>2021-08-05T18:24:39Z</time>
      </trkpt>
      <trkpt lat="47.98846" lon="7.02021">
        <ele>617.5</ele>
        <time>2021-08-05T18:24:40Z</time>
      </trkpt>
      <trkpt lat="47.98844" lon="7.0202">
        <ele>617.6</ele>
        <time>2021-08-05T18:24:41Z</time>
      </trkpt>
      <trkpt lat="47.98841" lon="7.02018">
        <ele>617.7</ele>
        <time>2021-08-05T18:24:43Z</time>
      </trkpt>
      <trkpt lat="47.98838" lon="7.02015">
        <ele>617.9</ele>
        <time>2021-08-05T18:24:44Z</time>
      </trkpt>
      <trkpt lat="47.98837" lon="7.02015">
        <ele>618</ele>
        <time>2021-08-05T18:24:45Z</time>
      </trkpt>
      <trkpt lat="47.98834" lon="7.02012">
        <ele>618.1</ele>
        <time>2021-08-05T18:24:46Z</time>
      </trkpt>
      <trkpt lat="47.98833" lon="7.02011">
        <ele>618.2</ele>
        <time>2021-08-05T18:24:47Z</time>
      </trkpt>
      <trkpt lat="47.98831" lon="7.02011">
        <ele>618.3</ele>
        <time>2021-08-05T18:24:48Z</time>
      </trkpt>
      <trkpt lat="47.98827" lon="7.0201">
        <ele>618.5</ele>
        <time>2021-08-05T18:24:50Z</time>
      </trkpt>
      <trkpt lat="47.98824" lon="7.0201">
        <ele>618.7</ele>
        <time>2021-08-05T18:24:51Z</time>
      </trkpt>
      <trkpt lat="47.9882" lon="7.0201">
        <ele>618.9</ele>
        <time>2021-08-05T18:24:53Z</time>
      </trkpt>
      <trkpt lat="47.98818" lon="7.02008">
        <ele>619</ele>
        <time>2021-08-05T18:24:54Z</time>
      </trkpt>
      <trkpt lat="47.98816" lon="7.02003">
        <ele>619.2</ele>
        <time>2021-08-05T18:24:55Z</time>
      </trkpt>
      <trkpt lat="47.98815" lon="7.01998">
        <ele>619.4</ele>
        <time>2021-08-05T18:24:56Z</time>
      </trkpt>
      <trkpt lat="47.98813" lon="7.01993">
        <ele>619.6</ele>
        <time>2021-08-05T18:24:57Z</time>
      </trkpt>
      <trkpt lat="47.98812" lon="7.01989">
        <ele>619.8</ele>
        <time>2021-08-05T18:24:58Z</time>
      </trkpt>
      <trkpt lat="47.98809" lon="7.01983">
        <ele>620</ele>
        <time>2021-08-05T18:25:00Z</time>
      </trkpt>
      <trkpt lat="47.98809" lon="7.01979">
        <ele>620.2</ele>
        <time>2021-08-05T18:25:02Z</time>
      </trkpt>
      <trkpt lat="47.98809" lon="7.01978">
        <ele>620.2</ele>
        <time>2021-08-05T18:25:03Z</time>
      </trkpt>
      <trkpt lat="47.98808" lon="7.01974">
        <ele>620.3</ele>
        <time>2021-08-05T18:25:04Z</time>
      </trkpt>
      <trkpt lat="47.98809" lon="7.01973">
        <ele>620.4</ele>
        <time>2021-08-05T18:25:05Z</time>
      </trkpt>
      <trkpt lat="47.9881" lon="7.0197">
        <ele>620.5</ele>
        <time>2021-08-05T18:25:07Z</time>
      </trkpt>
      <trkpt lat="47.9881" lon="7.01969">
        <ele>620.5</ele>
        <time>2021-08-05T18:25:08Z</time>
      </trkpt>
      <trkpt lat="47.9881" lon="7.01968">
        <ele>620.6</ele>
        <time>2021-08-05T18:25:09Z</time>
      </trkpt>
      <trkpt lat="47.9881" lon="7.01967">
        <ele>620.6</ele>
        <time>2021-08-05T18:25:10Z</time>
      </trkpt>
      <trkpt lat="47.98811" lon="7.01964">
        <ele>620.7</ele>
        <time>2021-08-05T18:25:11Z</time>
      </trkpt>
      <trkpt lat="47.98811" lon="7.01963">
        <ele>620.7</ele>
        <time>2021-08-05T18:25:12Z</time>
      </trkpt>
      <trkpt lat="47.98811" lon="7.0196">
        <ele>620.8</ele>
        <time>2021-08-05T18:25:14Z</time>
      </trkpt>
      <trkpt lat="47.9881" lon="7.01952">
        <ele>621</ele>
        <time>2021-08-05T18:25:17Z</time>
      </trkpt>
      <trkpt lat="47.98811" lon="7.01945">
        <ele>621.2</ele>
        <time>2021-08-05T18:25:18Z</time>
      </trkpt>
      <trkpt lat="47.98812" lon="7.01937">
        <ele>621.5</ele>
        <time>2021-08-05T18:25:19Z</time>
      </trkpt>
      <trkpt lat="47.98816" lon="7.01922">
        <ele>621.9</ele>
        <time>2021-08-05T18:25:21Z</time>
      </trkpt>
      <trkpt lat="47.98817" lon="7.01916">
        <ele>622</ele>
        <time>2021-08-05T18:25:22Z</time>
      </trkpt>
      <trkpt lat="47.98817" lon="7.01912">
        <ele>622.2</ele>
        <time>2021-08-05T18:25:23Z</time>
      </trkpt>
      <trkpt lat="47.98817" lon="7.0191">
        <ele>622.2</ele>
        <time>2021-08-05T18:25:24Z</time>
      </trkpt>
      <trkpt lat="47.98816" lon="7.01903">
        <ele>622.4</ele>
        <time>2021-08-05T18:25:25Z</time>
      </trkpt>
      <trkpt lat="47.98815" lon="7.01899">
        <ele>622.5</ele>
        <time>2021-08-05T18:25:27Z</time>
      </trkpt>
      <trkpt lat="47.98814" lon="7.01898">
        <ele>622.5</ele>
        <time>2021-08-05T18:25:28Z</time>
      </trkpt>
      <trkpt lat="47.98813" lon="7.01897">
        <ele>622.6</ele>
        <time>2021-08-05T18:25:29Z</time>
      </trkpt>
      <trkpt lat="47.98812" lon="7.01896">
        <ele>622.6</ele>
        <time>2021-08-05T18:25:30Z</time>
      </trkpt>
      <trkpt lat="47.98811" lon="7.01895">
        <ele>622.7</ele>
        <time>2021-08-05T18:25:31Z</time>
      </trkpt>
      <trkpt lat="47.98811" lon="7.01894">
        <ele>622.7</ele>
        <time>2021-08-05T18:25:32Z</time>
      </trkpt>
      <trkpt lat="47.98769" lon="7.0187">
        <ele>624.8</ele>
        <time>2021-08-05T18:25:53Z</time>
      </trkpt>
      <trkpt lat="47.98763" lon="7.01874">
        <ele>625.1</ele>
        <time>2021-08-05T18:25:54Z</time>
      </trkpt>
      <trkpt lat="47.98755" lon="7.0188">
        <ele>625.5</ele>
        <time>2021-08-05T18:25:55Z</time>
      </trkpt>
      <trkpt lat="47.9875" lon="7.01885">
        <ele>625.8</ele>
        <time>2021-08-05T18:25:56Z</time>
      </trkpt>
      <trkpt lat="47.9874" lon="7.01893">
        <ele>626.4</ele>
        <time>2021-08-05T18:25:57Z</time>
      </trkpt>
      <trkpt lat="47.98735" lon="7.01897">
        <ele>626.7</ele>
        <time>2021-08-05T18:25:58Z</time>
      </trkpt>
      <trkpt lat="47.98733" lon="7.01898">
        <ele>626.8</ele>
        <time>2021-08-05T18:26:00Z</time>
      </trkpt>
      <trkpt lat="47.98732" lon="7.01898">
        <ele>626.9</ele>
        <time>2021-08-05T18:26:01Z</time>
      </trkpt>
      <trkpt lat="47.98726" lon="7.01894">
        <ele>627.2</ele>
        <time>2021-08-05T18:26:03Z</time>
      </trkpt>
      <trkpt lat="47.98721" lon="7.0189">
        <ele>627.5</ele>
        <time>2021-08-05T18:26:04Z</time>
      </trkpt>
      <trkpt lat="47.98716" lon="7.01886">
        <ele>627.8</ele>
        <time>2021-08-05T18:26:16Z</time>
      </trkpt>
      <trkpt lat="47.98711" lon="7.01882">
        <ele>628</ele>
        <time>2021-08-05T18:26:17Z</time>
      </trkpt>
      <trkpt lat="47.98707" lon="7.01879">
        <ele>628.2</ele>
        <time>2021-08-05T18:26:18Z</time>
      </trkpt>
      <trkpt lat="47.98704" lon="7.01877">
        <ele>628.3</ele>
        <time>2021-08-05T18:26:19Z</time>
      </trkpt>
      <trkpt lat="47.987" lon="7.01873">
        <ele>628.5</ele>
        <time>2021-08-05T18:26:21Z</time>
      </trkpt>
      <trkpt lat="47.98697" lon="7.01871">
        <ele>628.7</ele>
        <time>2021-08-05T18:26:23Z</time>
      </trkpt>
      <trkpt lat="47.98694" lon="7.0187">
        <ele>628.9</ele>
        <time>2021-08-05T18:26:24Z</time>
      </trkpt>
      <trkpt lat="47.9869" lon="7.0187">
        <ele>629</ele>
        <time>2021-08-05T18:26:25Z</time>
      </trkpt>
      <trkpt lat="47.98685" lon="7.01873">
        <ele>629.3</ele>
        <time>2021-08-05T18:26:26Z</time>
      </trkpt>
      <trkpt lat="47.98677" lon="7.01876">
        <ele>629.6</ele>
        <time>2021-08-05T18:26:28Z</time>
      </trkpt>
      <trkpt lat="47.98669" lon="7.01877">
        <ele>629.9</ele>
        <time>2021-08-05T18:26:30Z</time>
      </trkpt>
      <trkpt lat="47.98669" lon="7.01876">
        <ele>630</ele>
        <time>2021-08-05T18:26:31Z</time>
      </trkpt>
      <trkpt lat="47.98668" lon="7.01873">
        <ele>630.1</ele>
        <time>2021-08-05T18:26:32Z</time>
      </trkpt>
      <trkpt lat="47.98667" lon="7.01871">
        <ele>630.1</ele>
        <time>2021-08-05T18:26:34Z</time>
      </trkpt>
      <trkpt lat="47.98666" lon="7.0187">
        <ele>630.2</ele>
        <time>2021-08-05T18:26:35Z</time>
      </trkpt>
      <trkpt lat="47.98665" lon="7.01868">
        <ele>630.3</ele>
        <time>2021-08-05T18:26:36Z</time>
      </trkpt>
      <trkpt lat="47.98664" lon="7.01866">
        <ele>630.3</ele>
        <time>2021-08-05T18:26:38Z</time>
      </trkpt>
      <trkpt lat="47.98595" lon="7.01853">
        <ele>632.9</ele>
        <time>2021-08-05T18:27:08Z</time>
      </trkpt>
      <trkpt lat="47.98594" lon="7.01852">
        <ele>632.9</ele>
        <time>2021-08-05T18:27:09Z</time>
      </trkpt>
      <trkpt lat="47.98588" lon="7.01847">
        <ele>633.2</ele>
        <time>2021-08-05T18:27:11Z</time>
      </trkpt>
      <trkpt lat="47.98584" lon="7.01845">
        <ele>633.3</ele>
        <time>2021-08-05T18:27:12Z</time>
      </trkpt>
      <trkpt lat="47.9858" lon="7.01842">
        <ele>633.5</ele>
        <time>2021-08-05T18:27:13Z</time>
      </trkpt>
      <trkpt lat="47.98577" lon="7.01839">
        <ele>633.6</ele>
        <time>2021-08-05T18:27:14Z</time>
      </trkpt>
      <trkpt lat="47.98574" lon="7.01836">
        <ele>633.8</ele>
        <time>2021-08-05T18:27:15Z</time>
      </trkpt>
      <trkpt lat="47.98573" lon="7.01835">
        <ele>633.8</ele>
        <time>2021-08-05T18:27:16Z</time>
      </trkpt>
      <trkpt lat="47.9857" lon="7.01831">
        <ele>633.9</ele>
        <time>2021-08-05T18:27:17Z</time>
      </trkpt>
      <trkpt lat="47.98568" lon="7.01826">
        <ele>634.1</ele>
        <time>2021-08-05T18:27:19Z</time>
      </trkpt>
      <trkpt lat="47.98566" lon="7.01823">
        <ele>634.2</ele>
        <time>2021-08-05T18:27:20Z</time>
      </trkpt>
      <trkpt lat="47.98563" lon="7.01821">
        <ele>634.3</ele>
        <time>2021-08-05T18:27:21Z</time>
      </trkpt>
      <trkpt lat="47.98559" lon="7.01819">
        <ele>634.5</ele>
        <time>2021-08-05T18:27:23Z</time>
      </trkpt>
      <trkpt lat="47.98557" lon="7.01817">
        <ele>634.5</ele>
        <time>2021-08-05T18:27:24Z</time>
      </trkpt>
      <trkpt lat="47.98556" lon="7.01816">
        <ele>634.6</ele>
        <time>2021-08-05T18:27:25Z</time>
      </trkpt>
      <trkpt lat="47.98553" lon="7.01814">
        <ele>634.7</ele>
        <time>2021-08-05T18:27:27Z</time>
      </trkpt>
      <trkpt lat="47.98552" lon="7.01813">
        <ele>634.8</ele>
        <time>2021-08-05T18:27:28Z</time>
      </trkpt>
      <trkpt lat="47.98551" lon="7.01811">
        <ele>634.8</ele>
        <time>2021-08-05T18:27:29Z</time>
      </trkpt>
      <trkpt lat="47.9855" lon="7.0181">
        <ele>634.9</ele>
        <time>2021-08-05T18:27:30Z</time>
      </trkpt>
      <trkpt lat="47.9855" lon="7.01808">
        <ele>634.9</ele>
        <time>2021-08-05T18:27:31Z</time>
      </trkpt>
      <trkpt lat="47.98549" lon="7.01807">
        <ele>634.9</ele>
        <time>2021-08-05T18:27:32Z</time>
      </trkpt>
      <trkpt lat="47.98548" lon="7.01807">
        <ele>635</ele>
        <time>2021-08-05T18:27:33Z</time>
      </trkpt>
      <trkpt lat="47.98548" lon="7.01806">
        <ele>635</ele>
        <time>2021-08-05T18:27:34Z</time>
      </trkpt>
      <trkpt lat="47.98546" lon="7.01804">
        <ele>635.1</ele>
        <time>2021-08-05T18:27:36Z</time>
      </trkpt>
      <trkpt lat="47.98544" lon="7.01801">
        <ele>635.2</ele>
        <time>2021-08-05T18:27:38Z</time>
      </trkpt>
      <trkpt lat="47.98498" lon="7.01788">
        <ele>637.4</ele>
        <time>2021-08-05T18:27:59Z</time>
      </trkpt>
      <trkpt lat="47.98493" lon="7.01786">
        <ele>637.6</ele>
        <time>2021-08-05T18:28:00Z</time>
      </trkpt>
      <trkpt lat="47.98491" lon="7.01783">
        <ele>637.8</ele>
        <time>2021-08-05T18:28:01Z</time>
      </trkpt>
      <trkpt lat="47.98489" lon="7.01779">
        <ele>637.9</ele>
        <time>2021-08-05T18:28:03Z</time>
      </trkpt>
      <trkpt lat="47.98485" lon="7.01775">
        <ele>638.1</ele>
        <time>2021-08-05T18:28:04Z</time>
      </trkpt>
      <trkpt lat="47.98481" lon="7.0177">
        <ele>638.4</ele>
        <time>2021-08-05T18:28:06Z</time>
      </trkpt>
      <trkpt lat="47.98478" lon="7.01768">
        <ele>638.5</ele>
        <time>2021-08-05T18:28:07Z</time>
      </trkpt>
      <trkpt lat="47.98476" lon="7.01765">
        <ele>638.7</ele>
        <time>2021-08-05T18:28:08Z</time>
      </trkpt>
      <trkpt lat="47.98475" lon="7.01764">
        <ele>638.7</ele>
        <time>2021-08-05T18:28:09Z</time>
      </trkpt>
      <trkpt lat="47.98473" lon="7.01762">
        <ele>638.8</ele>
        <time>2021-08-05T18:28:10Z</time>
      </trkpt>
      <trkpt lat="47.9847" lon="7.0176">
        <ele>638.9</ele>
        <time>2021-08-05T18:28:12Z</time>
      </trkpt>
      <trkpt lat="47.98468" lon="7.01758">
        <ele>639.1</ele>
        <time>2021-08-05T18:28:13Z</time>
      </trkpt>
      <trkpt lat="47.98464" lon="7.01758">
        <ele>639.2</ele>
        <time>2021-08-05T18:28:14Z</time>
      </trkpt>
      <trkpt lat="47.9846" lon="7.01759">
        <ele>639.4</ele>
        <time>2021-08-05T18:28:15Z</time>
      </trkpt>
      <trkpt lat="47.98457" lon="7.01759">
        <ele>639.5</ele>
        <time>2021-08-05T18:28:17Z</time>
      </trkpt>
      <trkpt lat="47.98453" lon="7.01759">
        <ele>639.7</ele>
        <time>2021-08-05T18:28:18Z</time>
      </trkpt>
      <trkpt lat="47.98451" lon="7.01759">
        <ele>639.8</ele>
        <time>2021-08-05T18:28:19Z</time>
      </trkpt>
      <trkpt lat="47.98417" lon="7.01767">
        <ele>641.2</ele>
        <time>2021-08-05T18:28:33Z</time>
      </trkpt>
      <trkpt lat="47.98413" lon="7.01769">
        <ele>641.3</ele>
        <time>2021-08-05T18:28:34Z</time>
      </trkpt>
      <trkpt lat="47.9841" lon="7.01771">
        <ele>641.5</ele>
        <time>2021-08-05T18:28:35Z</time>
      </trkpt>
      <trkpt lat="47.98406" lon="7.01773">
        <ele>641.6</ele>
        <time>2021-08-05T18:28:36Z</time>
      </trkpt>
      <trkpt lat="47.98404" lon="7.01774">
        <ele>641.7</ele>
        <time>2021-08-05T18:28:37Z</time>
      </trkpt>
      <trkpt lat="47.984" lon="7.01773">
        <ele>641.9</ele>
        <time>2021-08-05T18:28:39Z</time>
      </trkpt>
      <trkpt lat="47.98399" lon="7.01773">
        <ele>641.9</ele>
        <time>2021-08-05T18:28:40Z</time>
      </trkpt>
      <trkpt lat="47.98396" lon="7.01772">
        <ele>642.1</ele>
        <time>2021-08-05T18:28:42Z</time>
      </trkpt>
      <trkpt lat="47.98395" lon="7.01772">
        <ele>642.1</ele>
        <time>2021-08-05T18:28:43Z</time>
      </trkpt>
      <trkpt lat="47.98392" lon="7.01773">
        <ele>642.2</ele>
        <time>2021-08-05T18:28:44Z</time>
      </trkpt>
      <trkpt lat="47.98389" lon="7.01774">
        <ele>642.3</ele>
        <time>2021-08-05T18:28:45Z</time>
      </trkpt>
      <trkpt lat="47.98386" lon="7.01776">
        <ele>642.4</ele>
        <time>2021-08-05T18:28:46Z</time>
      </trkpt>
      <trkpt lat="47.98383" lon="7.01777">
        <ele>642.6</ele>
        <time>2021-08-05T18:28:47Z</time>
      </trkpt>
      <trkpt lat="47.98382" lon="7.01776">
        <ele>642.6</ele>
        <time>2021-08-05T18:28:48Z</time>
      </trkpt>
      <trkpt lat="47.98379" lon="7.01775">
        <ele>642.8</ele>
        <time>2021-08-05T18:28:49Z</time>
      </trkpt>
      <trkpt lat="47.98378" lon="7.01774">
        <ele>642.8</ele>
        <time>2021-08-05T18:28:50Z</time>
      </trkpt>
      <trkpt lat="47.98377" lon="7.0177">
        <ele>642.9</ele>
        <time>2021-08-05T18:28:52Z</time>
      </trkpt>
      <trkpt lat="47.98377" lon="7.01769">
        <ele>642.9</ele>
        <time>2021-08-05T18:28:53Z</time>
      </trkpt>
      <trkpt lat="47.98376" lon="7.01769">
        <ele>643</ele>
        <time>2021-08-05T18:28:54Z</time>
      </trkpt>
      <trkpt lat="47.98374" lon="7.01768">
        <ele>643</ele>
        <time>2021-08-05T18:28:55Z</time>
      </trkpt>
      <trkpt lat="47.98372" lon="7.01766">
        <ele>643.2</ele>
        <time>2021-08-05T18:28:56Z</time>
      </trkpt>
      <trkpt lat="47.98371" lon="7.01765">
        <ele>643.2</ele>
        <time>2021-08-05T18:28:57Z</time>
      </trkpt>
      <trkpt lat="47.98369" lon="7.01761">
        <ele>643.3</ele>
        <time>2021-08-05T18:28:58Z</time>
      </trkpt>
      <trkpt lat="47.98368" lon="7.0176">
        <ele>643.4</ele>
        <time>2021-08-05T18:28:59Z</time>
      </trkpt>
      <trkpt lat="47.98364" lon="7.01755">
        <ele>643.6</ele>
        <time>2021-08-05T18:29:01Z</time>
      </trkpt>
      <trkpt lat="47.9836" lon="7.01753">
        <ele>643.8</ele>
        <time>2021-08-05T18:29:03Z</time>
      </trkpt>
      <trkpt lat="47.98357" lon="7.01753">
        <ele>643.9</ele>
        <time>2021-08-05T18:29:04Z</time>
      </trkpt>
      <trkpt lat="47.98354" lon="7.01754">
        <ele>644</ele>
        <time>2021-08-05T18:29:05Z</time>
      </trkpt>
      <trkpt lat="47.98351" lon="7.01757">
        <ele>644.2</ele>
        <time>2021-08-05T18:29:06Z</time>
      </trkpt>
      <trkpt lat="47.9835" lon="7.01758">
        <ele>644.2</ele>
        <time>2021-08-05T18:29:07Z</time>
      </trkpt>
      <trkpt lat="47.98348" lon="7.01761">
        <ele>644.3</ele>
        <time>2021-08-05T18:29:08Z</time>
      </trkpt>
      <trkpt lat="47.98343" lon="7.01767">
        <ele>644.5</ele>
        <time>2021-08-05T18:29:10Z</time>
      </trkpt>
      <trkpt lat="47.9834" lon="7.01769">
        <ele>644.6</ele>
        <time>2021-08-05T18:29:11Z</time>
      </trkpt>
      <trkpt lat="47.98337" lon="7.01772">
        <ele>644.8</ele>
        <time>2021-08-05T18:29:13Z</time>
      </trkpt>
      <trkpt lat="47.98334" lon="7.01775">
        <ele>644.9</ele>
        <time>2021-08-05T18:29:14Z</time>
      </trkpt>
      <trkpt lat="47.98331" lon="7.01778">
        <ele>645</ele>
        <time>2021-08-05T18:29:15Z</time>
      </trkpt>
      <trkpt lat="47.98327" lon="7.01782">
        <ele>645.2</ele>
        <time>2021-08-05T18:29:16Z</time>
      </trkpt>
      <trkpt lat="47.98325" lon="7.01785">
        <ele>645.3</ele>
        <time>2021-08-05T18:29:17Z</time>
      </trkpt>
      <trkpt lat="47.98319" lon="7.01793">
        <ele>645.6</ele>
        <time>2021-08-05T18:29:19Z</time>
      </trkpt>
      <trkpt lat="47.98316" lon="7.01796">
        <ele>645.6</ele>
        <time>2021-08-05T18:29:20Z</time>
      </trkpt>
      <trkpt lat="47.98312" lon="7.01801">
        <ele>645.7</ele>
        <time>2021-08-05T18:29:22Z</time>
      </trkpt>
      <trkpt lat="47.98309" lon="7.01805">
        <ele>645.8</ele>
        <time>2021-08-05T18:29:23Z</time>
      </trkpt>
      <trkpt lat="47.98306" lon="7.01807">
        <ele>645.9</ele>
        <time>2021-08-05T18:29:24Z</time>
      </trkpt>
      <trkpt lat="47.98305" lon="7.01808">
        <ele>645.9</ele>
        <time>2021-08-05T18:29:25Z</time>
      </trkpt>
      <trkpt lat="47.98303" lon="7.01808">
        <ele>645.9</ele>
        <time>2021-08-05T18:29:26Z</time>
      </trkpt>
      <trkpt lat="47.983" lon="7.0181">
        <ele>646</ele>
        <time>2021-08-05T18:29:28Z</time>
      </trkpt>
      <trkpt lat="47.98298" lon="7.01812">
        <ele>646.1</ele>
        <time>2021-08-05T18:29:29Z</time>
      </trkpt>
      <trkpt lat="47.98295" lon="7.01816">
        <ele>646.2</ele>
        <time>2021-08-05T18:29:30Z</time>
      </trkpt>
      <trkpt lat="47.98294" lon="7.01817">
        <ele>646.2</ele>
        <time>2021-08-05T18:29:31Z</time>
      </trkpt>
      <trkpt lat="47.9829" lon="7.0182">
        <ele>646.3</ele>
        <time>2021-08-05T18:29:33Z</time>
      </trkpt>
      <trkpt lat="47.98289" lon="7.01821">
        <ele>646.3</ele>
        <time>2021-08-05T18:29:34Z</time>
      </trkpt>
      <trkpt lat="47.98288" lon="7.01822">
        <ele>646.3</ele>
        <time>2021-08-05T18:29:35Z</time>
      </trkpt>
      <trkpt lat="47.98286" lon="7.01821">
        <ele>646.4</ele>
        <time>2021-08-05T18:29:37Z</time>
      </trkpt>
      <trkpt lat="47.98285" lon="7.01821">
        <ele>646.4</ele>
        <time>2021-08-05T18:29:38Z</time>
      </trkpt>
      <trkpt lat="47.98284" lon="7.01823">
        <ele>646.4</ele>
        <time>2021-08-05T18:29:39Z</time>
      </trkpt>
      <trkpt lat="47.98283" lon="7.01825">
        <ele>646.5</ele>
        <time>2021-08-05T18:29:40Z</time>
      </trkpt>
      <trkpt lat="47.98284" lon="7.01827">
        <ele>646.5</ele>
        <time>2021-08-05T18:29:41Z</time>
      </trkpt>
      <trkpt lat="47.98285" lon="7.01831">
        <ele>646.5</ele>
        <time>2021-08-05T18:29:43Z</time>
      </trkpt>
      <trkpt lat="47.98288" lon="7.01833">
        <ele>646.6</ele>
        <time>2021-08-05T18:29:45Z</time>
      </trkpt>
      <trkpt lat="47.98292" lon="7.01834">
        <ele>646.7</ele>
        <time>2021-08-05T18:29:47Z</time>
      </trkpt>
      <trkpt lat="47.98294" lon="7.01836">
        <ele>646.7</ele>
        <time>2021-08-05T18:29:49Z</time>
      </trkpt>
      <trkpt lat="47.98297" lon="7.01839">
        <ele>646.8</ele>
        <time>2021-08-05T18:29:50Z</time>
      </trkpt>
      <trkpt lat="47.98298" lon="7.01841">
        <ele>646.8</ele>
        <time>2021-08-05T18:29:52Z</time>
      </trkpt>
      <trkpt lat="47.98299" lon="7.01842">
        <ele>646.9</ele>
        <time>2021-08-05T18:29:53Z</time>
      </trkpt>
      <trkpt lat="47.98298" lon="7.01843">
        <ele>646.9</ele>
        <time>2021-08-05T18:29:55Z</time>
      </trkpt>
      <trkpt lat="47.98297" lon="7.01844">
        <ele>646.9</ele>
        <time>2021-08-05T18:29:57Z</time>
      </trkpt>
      <trkpt lat="47.98297" lon="7.01845">
        <ele>646.9</ele>
        <time>2021-08-05T18:29:58Z</time>
      </trkpt>
      <trkpt lat="47.98297" lon="7.01845">
        <ele>646.9</ele>
        <time>2021-08-05T18:29:59Z</time>
      </trkpt>
      <trkpt lat="47.98297" lon="7.01845">
        <ele>646.9</ele>
        <time>2021-08-05T18:30:01Z</time>
      </trkpt>
      <trkpt lat="47.98297" lon="7.01845">
        <ele>646.9</ele>
        <time>2021-08-05T18:30:02Z</time>
      </trkpt>
      <trkpt lat="47.98292" lon="7.01842">
        <ele>647</ele>
        <time>2021-08-05T18:30:44Z</time>
      </trkpt>
      <trkpt lat="47.98292" lon="7.0184">
        <ele>647.1</ele>
        <time>2021-08-05T18:30:46Z</time>
      </trkpt>
      <trkpt lat="47.9829" lon="7.01836">
        <ele>647.1</ele>
        <time>2021-08-05T18:30:48Z</time>
      </trkpt>
      <trkpt lat="47.98286" lon="7.01833">
        <ele>647.2</ele>
        <time>2021-08-05T18:30:49Z</time>
      </trkpt>
      <trkpt lat="47.98283" lon="7.01832">
        <ele>647.3</ele>
        <time>2021-08-05T18:30:50Z</time>
      </trkpt>
      <trkpt lat="47.9828" lon="7.01831">
        <ele>647.3</ele>
        <time>2021-08-05T18:30:52Z</time>
      </trkpt>
      <trkpt lat="47.98278" lon="7.01831">
        <ele>647.3</ele>
        <time>2021-08-05T18:30:54Z</time>
      </trkpt>
      <trkpt lat="47.98277" lon="7.0183">
        <ele>647.4</ele>
        <time>2021-08-05T18:30:55Z</time>
      </trkpt>
      <trkpt lat="47.98276" lon="7.0183">
        <ele>647.4</ele>
        <time>2021-08-05T18:30:56Z</time>
      </trkpt>
      <trkpt lat="47.98274" lon="7.01831">
        <ele>647.6</ele>
        <time>2021-08-05T18:30:58Z</time>
      </trkpt>
      <trkpt lat="47.98273" lon="7.01832">
        <ele>647.6</ele>
        <time>2021-08-05T18:30:59Z</time>
      </trkpt>
      <trkpt lat="47.98273" lon="7.01832">
        <ele>647.6</ele>
        <time>2021-08-05T18:31:00Z</time>
      </trkpt>
      <trkpt lat="47.98272" lon="7.01832">
        <ele>647.6</ele>
        <time>2021-08-05T18:31:02Z</time>
      </trkpt>
      <trkpt lat="47.9827" lon="7.0183">
        <ele>647.6</ele>
        <time>2021-08-05T18:31:03Z</time>
      </trkpt>
      <trkpt lat="47.9827" lon="7.01829">
        <ele>647.6</ele>
        <time>2021-08-05T18:31:05Z</time>
      </trkpt>
      <trkpt lat="47.9827" lon="7.01828">
        <ele>647.6</ele>
        <time>2021-08-05T18:31:06Z</time>
      </trkpt>
      <trkpt lat="47.9827" lon="7.01827">
        <ele>647.6</ele>
        <time>2021-08-05T18:31:08Z</time>
      </trkpt>
      <trkpt lat="47.98269" lon="7.01827">
        <ele>647.6</ele>
        <time>2021-08-05T18:31:09Z</time>
      </trkpt>
      <trkpt lat="47.98268" lon="7.01825">
        <ele>647.6</ele>
        <time>2021-08-05T18:31:11Z</time>
      </trkpt>
      <trkpt lat="47.98267" lon="7.01823">
        <ele>647.6</ele>
        <time>2021-08-05T18:31:12Z</time>
      </trkpt>
      <trkpt lat="47.98267" lon="7.01822">
        <ele>647.6</ele>
        <time>2021-08-05T18:31:13Z</time>
      </trkpt>
      <trkpt lat="47.98265" lon="7.01819">
        <ele>647.7</ele>
        <time>2021-08-05T18:31:15Z</time>
      </trkpt>
      <trkpt lat="47.98262" lon="7.01816">
        <ele>647.9</ele>
        <time>2021-08-05T18:31:16Z</time>
      </trkpt>
      <trkpt lat="47.98261" lon="7.01815">
        <ele>648</ele>
        <time>2021-08-05T18:31:17Z</time>
      </trkpt>
      <trkpt lat="47.98259" lon="7.01813">
        <ele>648.2</ele>
        <time>2021-08-05T18:31:19Z</time>
      </trkpt>
      <trkpt lat="47.98257" lon="7.01812">
        <ele>648.3</ele>
        <time>2021-08-05T18:31:20Z</time>
      </trkpt>
      <trkpt lat="47.98255" lon="7.01811">
        <ele>648.4</ele>
        <time>2021-08-05T18:31:21Z</time>
      </trkpt>
      <trkpt lat="47.98253" lon="7.01809">
        <ele>648.5</ele>
        <time>2021-08-05T18:31:23Z</time>
      </trkpt>
      <trkpt lat="47.98251" lon="7.01808">
        <ele>648.6</ele>
        <time>2021-08-05T18:31:24Z</time>
      </trkpt>
      <trkpt lat="47.98249" lon="7.01806">
        <ele>648.8</ele>
        <time>2021-08-05T18:31:25Z</time>
      </trkpt>
      <trkpt lat="47.98247" lon="7.01805">
        <ele>648.9</ele>
        <time>2021-08-05T18:45:41Z</time>
      </trkpt>
      <trkpt lat="47.98245" lon="7.01803">
        <ele>649.1</ele>
        <time>2021-08-05T18:45:47Z</time>
      </trkpt>
      <trkpt lat="47.98244" lon="7.01802">
        <ele>649.2</ele>
        <time>2021-08-05T18:45:48Z</time>
      </trkpt>
      <trkpt lat="47.98242" lon="7.018">
        <ele>649.3</ele>
        <time>2021-08-05T18:45:49Z</time>
      </trkpt>
      <trkpt lat="47.98239" lon="7.01797">
        <ele>649.6</ele>
        <time>2021-08-05T18:45:50Z</time>
      </trkpt>
      <trkpt lat="47.98236" lon="7.01792">
        <ele>649.2</ele>
        <time>2021-08-05T18:45:52Z</time>
      </trkpt>
      <trkpt lat="47.98235" lon="7.0179">
        <ele>649.2</ele>
        <time>2021-08-05T18:45:54Z</time>
      </trkpt>
      <trkpt lat="47.98235" lon="7.01788">
        <ele>649.2</ele>
        <time>2021-08-05T18:45:55Z</time>
      </trkpt>
      <trkpt lat="47.98245" lon="7.01769">
        <ele>648.9</ele>
        <time>2021-08-05T18:45:57Z</time>
      </trkpt>
      <trkpt lat="47.99085" lon="7.03026">
        <ele>834.9</ele>
        <time>2021-08-07T07:21:25Z</time>
      </trkpt>
      <trkpt lat="47.99085" lon="7.03026">
        <ele>834.9</ele>
        <time>2021-08-07T07:21:25Z</time>
      </trkpt>
      <trkpt lat="47.99092" lon="7.03033">
        <ele>834.2</ele>
        <time>2021-08-07T07:21:26Z</time>
      </trkpt>
      <trkpt lat="47.99097" lon="7.03036">
        <ele>833.8</ele>
        <time>2021-08-07T07:21:27Z</time>
      </trkpt>
      <trkpt lat="47.99101" lon="7.0304">
        <ele>833.4</ele>
        <time>2021-08-07T07:21:29Z</time>
      </trkpt>
      <trkpt lat="47.99105" lon="7.03041">
        <ele>833.1</ele>
        <time>2021-08-07T07:21:30Z</time>
      </trkpt>
      <trkpt lat="47.99107" lon="7.03043">
        <ele>832.8</ele>
        <time>2021-08-07T07:21:31Z</time>
      </trkpt>
      <trkpt lat="47.99108" lon="7.03045">
        <ele>832.7</ele>
        <time>2021-08-07T07:21:32Z</time>
      </trkpt>
      <trkpt lat="47.99119" lon="7.03054">
        <ele>831.6</ele>
        <time>2021-08-07T07:21:33Z</time>
      </trkpt>
      <trkpt lat="47.99119" lon="7.03051">
        <ele>831.5</ele>
        <time>2021-08-07T07:21:35Z</time>
      </trkpt>
      <trkpt lat="47.99118" lon="7.03046">
        <ele>831.2</ele>
        <time>2021-08-07T07:21:37Z</time>
      </trkpt>
      <trkpt lat="47.9912" lon="7.03042">
        <ele>830.9</ele>
        <time>2021-08-07T07:21:39Z</time>
      </trkpt>
      <trkpt lat="47.9912" lon="7.03041">
        <ele>830.9</ele>
        <time>2021-08-07T07:21:40Z</time>
      </trkpt>
      <trkpt lat="47.99121" lon="7.03038">
        <ele>830.7</ele>
        <time>2021-08-07T07:21:41Z</time>
      </trkpt>
      <trkpt lat="47.97686" lon="7.03737">
        <ele>1080</ele>
        <time>2021-08-07T08:31:00Z</time>
      </trkpt>
      <trkpt lat="47.97685" lon="7.03738">
        <ele>1080.2</ele>
        <time>2021-08-07T08:31:01Z</time>
      </trkpt>
      <trkpt lat="47.9768" lon="7.03732">
        <ele>1080.7</ele>
        <time>2021-08-07T08:31:03Z</time>
      </trkpt>
      <trkpt lat="47.97678" lon="7.03728">
        <ele>1081</ele>
        <time>2021-08-07T08:31:04Z</time>
      </trkpt>
      <trkpt lat="47.97675" lon="7.03723">
        <ele>1081.4</ele>
        <time>2021-08-07T08:31:05Z</time>
      </trkpt>
      <trkpt lat="47.97674" lon="7.03722">
        <ele>1081.5</ele>
        <time>2021-08-07T08:31:06Z</time>
      </trkpt>
      <trkpt lat="47.97673" lon="7.03721">
        <ele>1081.6</ele>
        <time>2021-08-07T08:31:07Z</time>
      </trkpt>
      <trkpt lat="47.97671" lon="7.03718">
        <ele>1081.8</ele>
        <time>2021-08-07T08:31:09Z</time>
      </trkpt>
      <trkpt lat="47.9767" lon="7.03718">
        <ele>1081.9</ele>
        <time>2021-08-07T08:31:10Z</time>
      </trkpt>
      <trkpt lat="47.9767" lon="7.03719">
        <ele>1081.9</ele>
        <time>2021-08-07T08:31:11Z</time>
      </trkpt>
      <trkpt lat="47.97668" lon="7.03719">
        <ele>1082</ele>
        <time>2021-08-07T08:31:13Z</time>
      </trkpt>
      <trkpt lat="47.97667" lon="7.0372">
        <ele>1082.2</ele>
        <time>2021-08-07T08:31:15Z</time>
      </trkpt>
      <trkpt lat="47.97493" lon="7.03763">
        <ele>1097.9</ele>
        <time>2021-08-07T08:34:34Z</time>
      </trkpt>
      <trkpt lat="47.97491" lon="7.03763">
        <ele>1098</ele>
        <time>2021-08-07T08:34:35Z</time>
      </trkpt>
      <trkpt lat="47.97491" lon="7.03763">
        <ele>1098.1</ele>
        <time>2021-08-07T08:34:37Z</time>
      </trkpt>
      <trkpt lat="47.9749" lon="7.03762">
        <ele>1098.1</ele>
        <time>2021-08-07T08:34:38Z</time>
      </trkpt>
      <trkpt lat="47.97488" lon="7.0376">
        <ele>1098.3</ele>
        <time>2021-08-07T08:34:39Z</time>
      </trkpt>
      <trkpt lat="47.97487" lon="7.03758">
        <ele>1098.5</ele>
        <time>2021-08-07T08:34:41Z</time>
      </trkpt>
      <trkpt lat="47.97486" lon="7.03757">
        <ele>1098.6</ele>
        <time>2021-08-07T08:34:42Z</time>
      </trkpt>
      <trkpt lat="47.97485" lon="7.03755">
        <ele>1098.7</ele>
        <time>2021-08-07T08:34:43Z</time>
      </trkpt>
      <trkpt lat="47.97483" lon="7.03754">
        <ele>1098.9</ele>
        <time>2021-08-07T08:34:44Z</time>
      </trkpt>
      <trkpt lat="47.97481" lon="7.03752">
        <ele>1099.1</ele>
        <time>2021-08-07T08:34:46Z</time>
      </trkpt>
      <trkpt lat="47.97479" lon="7.0375">
        <ele>1099.2</ele>
        <time>2021-08-07T08:34:47Z</time>
      </trkpt>
      <trkpt lat="47.97478" lon="7.03749">
        <ele>1099.4</ele>
        <time>2021-08-07T08:34:48Z</time>
      </trkpt>
      <trkpt lat="47.97479" lon="7.03758">
        <ele>1099.8</ele>
        <time>2021-08-07T08:34:50Z</time>
      </trkpt>
      <trkpt lat="47.97481" lon="7.03768">
        <ele>1100.4</ele>
        <time>2021-08-07T08:34:51Z</time>
      </trkpt>
      <trkpt lat="47.97483" lon="7.03778">
        <ele>1101.1</ele>
        <time>2021-08-07T08:36:03Z</time>
      </trkpt>
      <trkpt lat="47.97485" lon="7.03789">
        <ele>1101.7</ele>
        <time>2021-08-07T08:36:04Z</time>
      </trkpt>
      <trkpt lat="47.97485" lon="7.03789">
        <ele>1101.7</ele>
        <time>2021-08-07T08:36:05Z</time>
      </trkpt>
      <trkpt lat="47.97485" lon="7.03789">
        <ele>1101.7</ele>
        <time>2021-08-07T08:36:07Z</time>
      </trkpt>
      <trkpt lat="47.97485" lon="7.03789">
        <ele>1101.7</ele>
        <time>2021-08-07T08:36:09Z</time>
      </trkpt>
      <trkpt lat="47.97485" lon="7.03789">
        <ele>1101.7</ele>
        <time>2021-08-07T08:36:10Z</time>
      </trkpt>
      <trkpt lat="47.97485" lon="7.03789">
        <ele>1101.7</ele>
        <time>2021-08-07T08:36:11Z</time>
      </trkpt>
      <trkpt lat="47.97485" lon="7.0379">
        <ele>1101.7</ele>
        <time>2021-08-07T08:36:13Z</time>
      </trkpt>
      <trkpt lat="47.97485" lon="7.0379">
        <ele>1101.8</ele>
        <time>2021-08-07T08:36:15Z</time>
      </trkpt>
      <trkpt lat="47.97485" lon="7.0379">
        <ele>1101.8</ele>
        <time>2021-08-07T08:36:16Z</time>
      </trkpt>
      <trkpt lat="47.97485" lon="7.0379">
        <ele>1101.8</ele>
        <time>2021-08-07T08:36:18Z</time>
      </trkpt>
      <trkpt lat="47.97485" lon="7.0379">
        <ele>1101.8</ele>
        <time>2021-08-07T08:36:19Z</time>
      </trkpt>
      <trkpt lat="47.97485" lon="7.03791">
        <ele>1101.8</ele>
        <time>2021-08-07T08:36:21Z</time>
      </trkpt>
      <trkpt lat="47.97485" lon="7.03791">
        <ele>1101.8</ele>
        <time>2021-08-07T08:36:22Z</time>
      </trkpt>
      <trkpt lat="47.97485" lon="7.03791">
        <ele>1101.8</ele>
        <time>2021-08-07T08:36:23Z</time>
      </trkpt>
      <trkpt lat="47.97485" lon="7.03791">
        <ele>1101.9</ele>
        <time>2021-08-07T08:36:25Z</time>
      </trkpt>
      <trkpt lat="47.97485" lon="7.03791">
        <ele>1101.9</ele>
        <time>2021-08-07T08:36:27Z</time>
      </trkpt>
      <trkpt lat="47.97485" lon="7.03792">
        <ele>1101.9</ele>
        <time>2021-08-07T08:36:28Z</time>
      </trkpt>
      <trkpt lat="47.97485" lon="7.03792">
        <ele>1101.9</ele>
        <time>2021-08-07T08:36:30Z</time>
      </trkpt>
      <trkpt lat="47.97485" lon="7.03792">
        <ele>1101.9</ele>
        <time>2021-08-07T08:36:31Z</time>
      </trkpt>
      <trkpt lat="47.97485" lon="7.03792">
        <ele>1101.9</ele>
        <time>2021-08-07T08:36:32Z</time>
      </trkpt>
      <trkpt lat="47.97485" lon="7.03792">
        <ele>1101.9</ele>
        <time>2021-08-07T08:36:34Z</time>
      </trkpt>
      <trkpt lat="47.97485" lon="7.03792">
        <ele>1101.9</ele>
        <time>2021-08-07T08:36:35Z</time>
      </trkpt>
      <trkpt lat="47.97485" lon="7.03792">
        <ele>1101.9</ele>
        <time>2021-08-07T08:36:36Z</time>
      </trkpt>
      <trkpt lat="47.97485" lon="7.03792">
        <ele>1101.9</ele>
        <time>2021-08-07T08:36:37Z</time>
      </trkpt>
      <trkpt lat="47.97484" lon="7.03792">
        <ele>1101.9</ele>
        <time>2021-08-07T08:36:39Z</time>
      </trkpt>
      <trkpt lat="47.97484" lon="7.03792">
        <ele>1101.9</ele>
        <time>2021-08-07T08:36:40Z</time>
      </trkpt>
      <trkpt lat="47.97484" lon="7.03792">
        <ele>1101.9</ele>
        <time>2021-08-07T08:36:42Z</time>
      </trkpt>
      <trkpt lat="47.97484" lon="7.03793">
        <ele>1101.9</ele>
        <time>2021-08-07T08:36:43Z</time>
      </trkpt>
      <trkpt lat="47.97482" lon="7.03795">
        <ele>1102.2</ele>
        <time>2021-08-07T08:36:45Z</time>
      </trkpt>
      <trkpt lat="47.9748" lon="7.03792">
        <ele>1102.4</ele>
        <time>2021-08-07T08:36:47Z</time>
      </trkpt>
      <trkpt lat="47.97479" lon="7.03791">
        <ele>1102.6</ele>
        <time>2021-08-07T08:36:48Z</time>
      </trkpt>
      <trkpt lat="47.97477" lon="7.0379">
        <ele>1102.7</ele>
        <time>2021-08-07T08:36:49Z</time>
      </trkpt>
      <trkpt lat="47.97475" lon="7.03788">
        <ele>1103</ele>
        <time>2021-08-07T08:36:51Z</time>
      </trkpt>
      <trkpt lat="47.97472" lon="7.03785">
        <ele>1103.3</ele>
        <time>2021-08-07T08:36:52Z</time>
      </trkpt>
      <trkpt lat="47.97471" lon="7.03784">
        <ele>1103.4</ele>
        <time>2021-08-07T08:36:53Z</time>
      </trkpt>
      <trkpt lat="47.97469" lon="7.03783">
        <ele>1103.6</ele>
        <time>2021-08-07T08:36:54Z</time>
      </trkpt>
      <trkpt lat="47.97466" lon="7.0378">
        <ele>1103.9</ele>
        <time>2021-08-07T08:36:56Z</time>
      </trkpt>
      <trkpt lat="47.97463" lon="7.03776">
        <ele>1104.3</ele>
        <time>2021-08-07T08:36:57Z</time>
      </trkpt>
      <trkpt lat="47.97452" lon="7.03761">
        <ele>1105.8</ele>
        <time>2021-08-07T08:36:59Z</time>
      </trkpt>
      <trkpt lat="47.97444" lon="7.03749">
        <ele>1107</ele>
        <time>2021-08-07T08:37:00Z</time>
      </trkpt>
      <trkpt lat="47.97437" lon="7.03741">
        <ele>1107.8</ele>
        <time>2021-08-07T08:37:02Z</time>
      </trkpt>
      <trkpt lat="47.97435" lon="7.03738">
        <ele>1108.1</ele>
        <time>2021-08-07T08:37:03Z</time>
      </trkpt>
      <trkpt lat="47.97433" lon="7.03736">
        <ele>1108.3</ele>
        <time>2021-08-07T08:37:04Z</time>
      </trkpt>
      <trkpt lat="47.97432" lon="7.03735">
        <ele>1108.4</ele>
        <time>2021-08-07T08:37:05Z</time>
      </trkpt>
      <trkpt lat="47.97431" lon="7.03735">
        <ele>1108.5</ele>
        <time>2021-08-07T08:37:06Z</time>
      </trkpt>
      <trkpt lat="47.9743" lon="7.03734">
        <ele>1108.6</ele>
        <time>2021-08-07T08:37:07Z</time>
      </trkpt>
      <trkpt lat="47.97425" lon="7.0373">
        <ele>1109.1</ele>
        <time>2021-08-07T08:37:09Z</time>
      </trkpt>
      <trkpt lat="47.97424" lon="7.03729">
        <ele>1109.3</ele>
        <time>2021-08-07T08:37:10Z</time>
      </trkpt>
      <trkpt lat="47.97423" lon="7.03729">
        <ele>1109.4</ele>
        <time>2021-08-07T08:37:11Z</time>
      </trkpt>
      <trkpt lat="47.97421" lon="7.03729">
        <ele>1109.5</ele>
        <time>2021-08-07T08:37:12Z</time>
      </trkpt>
      <trkpt lat="47.97421" lon="7.03729">
        <ele>1109.5</ele>
        <time>2021-08-07T08:37:13Z</time>
      </trkpt>
      <trkpt lat="47.9742" lon="7.03731">
        <ele>1109.7</ele>
        <time>2021-08-07T08:37:15Z</time>
      </trkpt>
      <trkpt lat="47.97419" lon="7.03732">
        <ele>1109.8</ele>
        <time>2021-08-07T08:37:16Z</time>
      </trkpt>
      <trkpt lat="47.97418" lon="7.03733">
        <ele>1109.9</ele>
        <time>2021-08-07T08:37:17Z</time>
      </trkpt>
      <trkpt lat="47.97416" lon="7.03733">
        <ele>1110</ele>
        <time>2021-08-07T08:37:19Z</time>
      </trkpt>
      <trkpt lat="47.97415" lon="7.03733">
        <ele>1110.2</ele>
        <time>2021-08-07T08:37:20Z</time>
      </trkpt>
      <trkpt lat="47.97413" lon="7.03733">
        <ele>1110.3</ele>
        <time>2021-08-07T08:37:21Z</time>
      </trkpt>
      <trkpt lat="47.97411" lon="7.03734">
        <ele>1110.5</ele>
        <time>2021-08-07T08:37:23Z</time>
      </trkpt>
      <trkpt lat="47.9741" lon="7.03735">
        <ele>1110.6</ele>
        <time>2021-08-07T08:37:24Z</time>
      </trkpt>
      <trkpt lat="47.97409" lon="7.03737">
        <ele>1110.8</ele>
        <time>2021-08-07T08:37:25Z</time>
      </trkpt>
      <trkpt lat="47.97408" lon="7.03737">
        <ele>1110.8</ele>
        <time>2021-08-07T08:37:27Z</time>
      </trkpt>
      <trkpt lat="47.97407" lon="7.03738">
        <ele>1110.9</ele>
        <time>2021-08-07T08:37:28Z</time>
      </trkpt>
      <trkpt lat="47.97405" lon="7.03737">
        <ele>1111.1</ele>
        <time>2021-08-07T08:37:30Z</time>
      </trkpt>
      <trkpt lat="47.97404" lon="7.03737">
        <ele>1111.2</ele>
        <time>2021-08-07T08:37:31Z</time>
      </trkpt>
      <trkpt lat="47.97403" lon="7.03738">
        <ele>1111.3</ele>
        <time>2021-08-07T08:37:32Z</time>
      </trkpt>
      <trkpt lat="47.97402" lon="7.03739">
        <ele>1111.4</ele>
        <time>2021-08-07T08:37:33Z</time>
      </trkpt>
      <trkpt lat="47.97401" lon="7.03741">
        <ele>1111.5</ele>
        <time>2021-08-07T08:37:35Z</time>
      </trkpt>
      <trkpt lat="47.97401" lon="7.03743">
        <ele>1111.6</ele>
        <time>2021-08-07T08:37:36Z</time>
      </trkpt>
      <trkpt lat="47.974" lon="7.03744">
        <ele>1111.7</ele>
        <time>2021-08-07T08:37:38Z</time>
      </trkpt>
      <trkpt lat="47.97399" lon="7.03745">
        <ele>1111.8</ele>
        <time>2021-08-07T08:37:39Z</time>
      </trkpt>
      <trkpt lat="47.97398" lon="7.03745">
        <ele>1111.9</ele>
        <time>2021-08-07T08:37:40Z</time>
      </trkpt>
      <trkpt lat="47.97397" lon="7.03745">
        <ele>1112</ele>
        <time>2021-08-07T08:37:41Z</time>
      </trkpt>
      <trkpt lat="47.97396" lon="7.03745">
        <ele>1112.1</ele>
        <time>2021-08-07T08:37:42Z</time>
      </trkpt>
      <trkpt lat="47.97395" lon="7.03745">
        <ele>1112.1</ele>
        <time>2021-08-07T08:37:43Z</time>
      </trkpt>
      <trkpt lat="47.97391" lon="7.03743">
        <ele>1112.6</ele>
        <time>2021-08-07T08:37:45Z</time>
      </trkpt>
      <trkpt lat="47.97389" lon="7.03743">
        <ele>1112.7</ele>
        <time>2021-08-07T08:37:46Z</time>
      </trkpt>
      <trkpt lat="47.97388" lon="7.03742">
        <ele>1112.8</ele>
        <time>2021-08-07T08:37:47Z</time>
      </trkpt>
      <trkpt lat="47.97386" lon="7.0374">
        <ele>1113</ele>
        <time>2021-08-07T08:37:49Z</time>
      </trkpt>
      <trkpt lat="47.97385" lon="7.03739">
        <ele>1113.1</ele>
        <time>2021-08-07T08:37:50Z</time>
      </trkpt>
      <trkpt lat="47.97384" lon="7.03739">
        <ele>1113.2</ele>
        <time>2021-08-07T08:37:51Z</time>
      </trkpt>
      <trkpt lat="47.97382" lon="7.03738">
        <ele>1113.4</ele>
        <time>2021-08-07T08:37:53Z</time>
      </trkpt>
      <trkpt lat="47.97381" lon="7.03737">
        <ele>1113.5</ele>
        <time>2021-08-07T08:37:54Z</time>
      </trkpt>
      <trkpt lat="47.97378" lon="7.03737">
        <ele>1113.7</ele>
        <time>2021-08-07T08:37:56Z</time>
      </trkpt>
      <trkpt lat="47.97377" lon="7.03737">
        <ele>1113.8</ele>
        <time>2021-08-07T08:37:57Z</time>
      </trkpt>
      <trkpt lat="47.97376" lon="7.03738">
        <ele>1113.9</ele>
        <time>2021-08-07T08:37:59Z</time>
      </trkpt>
      <trkpt lat="47.97375" lon="7.03738">
        <ele>1114</ele>
        <time>2021-08-07T08:38:00Z</time>
      </trkpt>
      <trkpt lat="47.97372" lon="7.03737">
        <ele>1114.2</ele>
        <time>2021-08-07T08:38:01Z</time>
      </trkpt>
      <trkpt lat="47.97371" lon="7.03737">
        <ele>1114.4</ele>
        <time>2021-08-07T08:38:02Z</time>
      </trkpt>
      <trkpt lat="47.97368" lon="7.03734">
        <ele>1114.7</ele>
        <time>2021-08-07T08:38:04Z</time>
      </trkpt>
      <trkpt lat="47.97366" lon="7.03733">
        <ele>1114.8</ele>
        <time>2021-08-07T08:38:05Z</time>
      </trkpt>
      <trkpt lat="47.97365" lon="7.03732">
        <ele>1114.9</ele>
        <time>2021-08-07T08:38:06Z</time>
      </trkpt>
      <trkpt lat="47.97363" lon="7.03731">
        <ele>1115.1</ele>
        <time>2021-08-07T08:38:08Z</time>
      </trkpt>
      <trkpt lat="47.97361" lon="7.03732">
        <ele>1115.3</ele>
        <time>2021-08-07T08:38:10Z</time>
      </trkpt>
      <trkpt lat="47.9736" lon="7.03733">
        <ele>1115.4</ele>
        <time>2021-08-07T08:38:11Z</time>
      </trkpt>
      <trkpt lat="47.9736" lon="7.03736">
        <ele>1115.5</ele>
        <time>2021-08-07T08:38:12Z</time>
      </trkpt>
      <trkpt lat="47.9736" lon="7.03737">
        <ele>1115.6</ele>
        <time>2021-08-07T08:38:13Z</time>
      </trkpt>
      <trkpt lat="47.97359" lon="7.03742">
        <ele>1115.9</ele>
        <time>2021-08-07T08:38:15Z</time>
      </trkpt>
      <trkpt lat="47.97359" lon="7.03743">
        <ele>1115.9</ele>
        <time>2021-08-07T08:38:16Z</time>
      </trkpt>
      <trkpt lat="47.97358" lon="7.03745">
        <ele>1116.1</ele>
        <time>2021-08-07T08:38:17Z</time>
      </trkpt>
      <trkpt lat="47.97357" lon="7.03747">
        <ele>1116.2</ele>
        <time>2021-08-07T08:38:19Z</time>
      </trkpt>
      <trkpt lat="47.97357" lon="7.03748">
        <ele>1116.3</ele>
        <time>2021-08-07T08:38:20Z</time>
      </trkpt>
      <trkpt lat="47.97356" lon="7.0375">
        <ele>1116.4</ele>
        <time>2021-08-07T08:38:21Z</time>
      </trkpt>
      <trkpt lat="47.97357" lon="7.03755">
        <ele>1116.7</ele>
        <time>2021-08-07T08:38:23Z</time>
      </trkpt>
      <trkpt lat="47.97357" lon="7.03759">
        <ele>1117</ele>
        <time>2021-08-07T08:38:24Z</time>
      </trkpt>
      <trkpt lat="47.97357" lon="7.0376">
        <ele>1117.1</ele>
        <time>2021-08-07T08:38:25Z</time>
      </trkpt>
      <trkpt lat="47.97357" lon="7.03762">
        <ele>1117.2</ele>
        <time>2021-08-07T08:38:26Z</time>
      </trkpt>
      <trkpt lat="47.97358" lon="7.03766">
        <ele>1117.4</ele>
        <time>2021-08-07T08:38:28Z</time>
      </trkpt>
      <trkpt lat="47.97359" lon="7.03768">
        <ele>1117.5</ele>
        <time>2021-08-07T08:38:29Z</time>
      </trkpt>
      <trkpt lat="47.97359" lon="7.03769">
        <ele>1117.6</ele>
        <time>2021-08-07T08:38:30Z</time>
      </trkpt>
      <trkpt lat="47.97359" lon="7.03772">
        <ele>1117.7</ele>
        <time>2021-08-07T08:38:32Z</time>
      </trkpt>
      <trkpt lat="47.97359" lon="7.03773">
        <ele>1117.9</ele>
        <time>2021-08-07T08:38:33Z</time>
      </trkpt>
      <trkpt lat="47.97358" lon="7.03776">
        <ele>1118</ele>
        <time>2021-08-07T08:38:34Z</time>
      </trkpt>
      <trkpt lat="47.97358" lon="7.0378">
        <ele>1118.2</ele>
        <time>2021-08-07T08:38:35Z</time>
      </trkpt>
      <trkpt lat="47.97358" lon="7.03784">
        <ele>1118.5</ele>
        <time>2021-08-07T08:38:37Z</time>
      </trkpt>
      <trkpt lat="47.97358" lon="7.03786">
        <ele>1118.6</ele>
        <time>2021-08-07T08:38:38Z</time>
      </trkpt>
      <trkpt lat="47.97357" lon="7.03788">
        <ele>1118.8</ele>
        <time>2021-08-07T08:38:39Z</time>
      </trkpt>
      <trkpt lat="47.97357" lon="7.03789">
        <ele>1118.9</ele>
        <time>2021-08-07T08:38:41Z</time>
      </trkpt>
      <trkpt lat="47.97356" lon="7.03789">
        <ele>1118.9</ele>
        <time>2021-08-07T08:38:42Z</time>
      </trkpt>
      <trkpt lat="47.97355" lon="7.03789">
        <ele>1119</ele>
        <time>2021-08-07T08:38:43Z</time>
      </trkpt>
      <trkpt lat="47.97353" lon="7.03788">
        <ele>1119.2</ele>
        <time>2021-08-07T08:38:45Z</time>
      </trkpt>
      <trkpt lat="47.97351" lon="7.03786">
        <ele>1119.4</ele>
        <time>2021-08-07T08:38:46Z</time>
      </trkpt>
      <trkpt lat="47.9735" lon="7.03784">
        <ele>1119.6</ele>
        <time>2021-08-07T08:38:47Z</time>
      </trkpt>
      <trkpt lat="47.97337" lon="7.03763">
        <ele>1121.4</ele>
        <time>2021-08-07T08:38:49Z</time>
      </trkpt>
      <trkpt lat="47.97331" lon="7.03756">
        <ele>1122</ele>
        <time>2021-08-07T08:38:51Z</time>
      </trkpt>
      <trkpt lat="47.9733" lon="7.03755">
        <ele>1122.2</ele>
        <time>2021-08-07T08:38:53Z</time>
      </trkpt>
      <trkpt lat="47.97329" lon="7.03757">
        <ele>1122.3</ele>
        <time>2021-08-07T08:38:54Z</time>
      </trkpt>
      <trkpt lat="47.97328" lon="7.03759">
        <ele>1122.5</ele>
        <time>2021-08-07T08:38:55Z</time>
      </trkpt>
      <trkpt lat="47.97328" lon="7.03761">
        <ele>1122.6</ele>
        <time>2021-08-07T08:38:57Z</time>
      </trkpt>
      <trkpt lat="47.97328" lon="7.03763">
        <ele>1122.7</ele>
        <time>2021-08-07T08:38:58Z</time>
      </trkpt>
      <trkpt lat="47.97328" lon="7.03767">
        <ele>1123</ele>
        <time>2021-08-07T08:39:00Z</time>
      </trkpt>
      <trkpt lat="47.97328" lon="7.03769">
        <ele>1123.1</ele>
        <time>2021-08-07T08:39:01Z</time>
      </trkpt>
      <trkpt lat="47.97327" lon="7.03771">
        <ele>1123.3</ele>
        <time>2021-08-07T08:39:03Z</time>
      </trkpt>
      <trkpt lat="47.97325" lon="7.03771">
        <ele>1123.4</ele>
        <time>2021-08-07T08:39:04Z</time>
      </trkpt>
      <trkpt lat="47.97324" lon="7.03772">
        <ele>1123.5</ele>
        <time>2021-08-07T08:39:05Z</time>
      </trkpt>
      <trkpt lat="47.97321" lon="7.03771">
        <ele>1123.8</ele>
        <time>2021-08-07T08:39:07Z</time>
      </trkpt>
      <trkpt lat="47.97319" lon="7.0377">
        <ele>1124</ele>
        <time>2021-08-07T08:39:08Z</time>
      </trkpt>
      <trkpt lat="47.97317" lon="7.03768">
        <ele>1124.3</ele>
        <time>2021-08-07T08:39:10Z</time>
      </trkpt>
      <trkpt lat="47.97314" lon="7.03766">
        <ele>1124.6</ele>
        <time>2021-08-07T08:39:11Z</time>
      </trkpt>
      <trkpt lat="47.97313" lon="7.03766">
        <ele>1124.7</ele>
        <time>2021-08-07T08:39:12Z</time>
      </trkpt>
      <trkpt lat="47.97311" lon="7.03768">
        <ele>1125</ele>
        <time>2021-08-07T08:39:14Z</time>
      </trkpt>
      <trkpt lat="47.9731" lon="7.03769">
        <ele>1125</ele>
        <time>2021-08-07T08:39:15Z</time>
      </trkpt>
      <trkpt lat="47.97309" lon="7.0377">
        <ele>1125.2</ele>
        <time>2021-08-07T08:39:16Z</time>
      </trkpt>
      <trkpt lat="47.97308" lon="7.03771">
        <ele>1125.3</ele>
        <time>2021-08-07T08:39:17Z</time>
      </trkpt>
      <trkpt lat="47.97304" lon="7.03773">
        <ele>1125.7</ele>
        <time>2021-08-07T08:39:19Z</time>
      </trkpt>
      <trkpt lat="47.97303" lon="7.03773">
        <ele>1125.8</ele>
        <time>2021-08-07T08:39:20Z</time>
      </trkpt>
      <trkpt lat="47.97301" lon="7.03775">
        <ele>1126</ele>
        <time>2021-08-07T08:39:21Z</time>
      </trkpt>
      <trkpt lat="47.973" lon="7.03776">
        <ele>1126.1</ele>
        <time>2021-08-07T08:39:22Z</time>
      </trkpt>
      <trkpt lat="47.97298" lon="7.03778">
        <ele>1126.3</ele>
        <time>2021-08-07T08:39:23Z</time>
      </trkpt>
      <trkpt lat="47.97296" lon="7.03781">
        <ele>1126.6</ele>
        <time>2021-08-07T08:39:25Z</time>
      </trkpt>
      <trkpt lat="47.97295" lon="7.03783">
        <ele>1126.8</ele>
        <time>2021-08-07T08:39:27Z</time>
      </trkpt>
      <trkpt lat="47.97295" lon="7.03784">
        <ele>1126.9</ele>
        <time>2021-08-07T08:39:28Z</time>
      </trkpt>
      <trkpt lat="47.97296" lon="7.03785">
        <ele>1126.9</ele>
        <time>2021-08-07T08:39:30Z</time>
      </trkpt>
      <trkpt lat="47.97296" lon="7.03785">
        <ele>1127</ele>
        <time>2021-08-07T08:39:31Z</time>
      </trkpt>
      <trkpt lat="47.97296" lon="7.03786">
        <ele>1127.1</ele>
        <time>2021-08-07T08:39:32Z</time>
      </trkpt>
      <trkpt lat="47.97297" lon="7.03788">
        <ele>1127.2</ele>
        <time>2021-08-07T08:39:34Z</time>
      </trkpt>
      <trkpt lat="47.97297" lon="7.03789">
        <ele>1127.3</ele>
        <time>2021-08-07T08:39:35Z</time>
      </trkpt>
      <trkpt lat="47.97297" lon="7.03791">
        <ele>1127.3</ele>
        <time>2021-08-07T08:39:36Z</time>
      </trkpt>
      <trkpt lat="47.97297" lon="7.03792">
        <ele>1127.4</ele>
        <time>2021-08-07T08:39:37Z</time>
      </trkpt>
      <trkpt lat="47.97246" lon="7.03827">
        <ele>1132.3</ele>
        <time>2021-08-07T08:40:38Z</time>
      </trkpt>
      <trkpt lat="47.97243" lon="7.03826">
        <ele>1132.6</ele>
        <time>2021-08-07T08:40:39Z</time>
      </trkpt>
      <trkpt lat="47.9724" lon="7.03826">
        <ele>1132.8</ele>
        <time>2021-08-07T08:40:41Z</time>
      </trkpt>
      <trkpt lat="47.97239" lon="7.03826">
        <ele>1132.9</ele>
        <time>2021-08-07T08:40:42Z</time>
      </trkpt>
      <trkpt lat="47.97238" lon="7.03825">
        <ele>1133</ele>
        <time>2021-08-07T08:40:43Z</time>
      </trkpt>
      <trkpt lat="47.97238" lon="7.03828">
        <ele>1133.1</ele>
        <time>2021-08-07T08:40:45Z</time>
      </trkpt>
      <trkpt lat="47.97237" lon="7.0383">
        <ele>1133.2</ele>
        <time>2021-08-07T08:40:46Z</time>
      </trkpt>
      <trkpt lat="47.97237" lon="7.03832">
        <ele>1133.3</ele>
        <time>2021-08-07T08:40:47Z</time>
      </trkpt>
      <trkpt lat="47.97236" lon="7.03834">
        <ele>1133.5</ele>
        <time>2021-08-07T08:40:48Z</time>
      </trkpt>
      <trkpt lat="47.97234" lon="7.03837">
        <ele>1133.6</ele>
        <time>2021-08-07T08:40:49Z</time>
      </trkpt>
      <trkpt lat="47.97229" lon="7.03853">
        <ele>1134.4</ele>
        <time>2021-08-07T08:43:55Z</time>
      </trkpt>
      <trkpt lat="47.97228" lon="7.03854">
        <ele>1134.5</ele>
        <time>2021-08-07T08:43:57Z</time>
      </trkpt>
      <trkpt lat="47.97227" lon="7.03856">
        <ele>1134.6</ele>
        <time>2021-08-07T08:43:59Z</time>
      </trkpt>
      <trkpt lat="47.97225" lon="7.03858">
        <ele>1134.7</ele>
        <time>2021-08-07T08:44:01Z</time>
      </trkpt>
      <trkpt lat="47.97225" lon="7.03859">
        <ele>1134.8</ele>
        <time>2021-08-07T08:44:02Z</time>
      </trkpt>
      <trkpt lat="47.97224" lon="7.03861">
        <ele>1134.9</ele>
        <time>2021-08-07T08:44:04Z</time>
      </trkpt>
      <trkpt lat="47.97223" lon="7.03862">
        <ele>1134.9</ele>
        <time>2021-08-07T08:44:05Z</time>
      </trkpt>
      <trkpt lat="47.97223" lon="7.03861">
        <ele>1135</ele>
        <time>2021-08-07T08:44:06Z</time>
      </trkpt>
      <trkpt lat="47.97225" lon="7.03864">
        <ele>1135.1</ele>
        <time>2021-08-07T08:44:08Z</time>
      </trkpt>
      <trkpt lat="47.97227" lon="7.03864">
        <ele>1135.3</ele>
        <time>2021-08-07T08:44:09Z</time>
      </trkpt>
      <trkpt lat="47.97228" lon="7.0386">
        <ele>1135.4</ele>
        <time>2021-08-07T08:44:11Z</time>
      </trkpt>
      <trkpt lat="47.97227" lon="7.03859">
        <ele>1135.4</ele>
        <time>2021-08-07T08:44:12Z</time>
      </trkpt>
      <trkpt lat="47.97227" lon="7.03859">
        <ele>1135.5</ele>
        <time>2021-08-07T08:44:13Z</time>
      </trkpt>
      <trkpt lat="47.97226" lon="7.03859">
        <ele>1135.5</ele>
        <time>2021-08-07T08:44:15Z</time>
      </trkpt>
      <trkpt lat="47.97226" lon="7.03859">
        <ele>1135.5</ele>
        <time>2021-08-07T08:44:16Z</time>
      </trkpt>
      <trkpt lat="47.97224" lon="7.03858">
        <ele>1135.6</ele>
        <time>2021-08-07T08:44:18Z</time>
      </trkpt>
      <trkpt lat="47.97219" lon="7.03859">
        <ele>1135.9</ele>
        <time>2021-08-07T08:44:20Z</time>
      </trkpt>
      <trkpt lat="47.97218" lon="7.03859">
        <ele>1136</ele>
        <time>2021-08-07T08:44:21Z</time>
      </trkpt>
      <trkpt lat="47.97215" lon="7.0386">
        <ele>1136.1</ele>
        <time>2021-08-07T08:44:23Z</time>
      </trkpt>
      <trkpt lat="47.97211" lon="7.0386">
        <ele>1136.4</ele>
        <time>2021-08-07T08:44:24Z</time>
      </trkpt>
      <trkpt lat="47.97208" lon="7.0386">
        <ele>1136.6</ele>
        <time>2021-08-07T08:44:26Z</time>
      </trkpt>
      <trkpt lat="47.97204" lon="7.03861">
        <ele>1136.8</ele>
        <time>2021-08-07T08:44:27Z</time>
      </trkpt>
      <trkpt lat="47.97198" lon="7.03861">
        <ele>1137.2</ele>
        <time>2021-08-07T08:44:28Z</time>
      </trkpt>
      <trkpt lat="47.97194" lon="7.03861">
        <ele>1137.5</ele>
        <time>2021-08-07T08:44:29Z</time>
      </trkpt>
      <trkpt lat="47.9719" lon="7.0386">
        <ele>1137.7</ele>
        <time>2021-08-07T08:44:31Z</time>
      </trkpt>
      <trkpt lat="47.97188" lon="7.0386">
        <ele>1137.8</ele>
        <time>2021-08-07T08:44:32Z</time>
      </trkpt>
      <trkpt lat="47.97186" lon="7.03861">
        <ele>1137.9</ele>
        <time>2021-08-07T08:44:33Z</time>
      </trkpt>
      <trkpt lat="47.97184" lon="7.03861">
        <ele>1138.1</ele>
        <time>2021-08-07T08:44:34Z</time>
      </trkpt>
      <trkpt lat="47.97182" lon="7.03861">
        <ele>1138.2</ele>
        <time>2021-08-07T08:44:36Z</time>
      </trkpt>
      <trkpt lat="47.97181" lon="7.03861">
        <ele>1138.3</ele>
        <time>2021-08-07T08:44:37Z</time>
      </trkpt>
      <trkpt lat="47.97179" lon="7.03862">
        <ele>1138.4</ele>
        <time>2021-08-07T08:44:38Z</time>
      </trkpt>
      <trkpt lat="47.97177" lon="7.03863">
        <ele>1138.5</ele>
        <time>2021-08-07T08:44:40Z</time>
      </trkpt>
      <trkpt lat="47.97174" lon="7.03866">
        <ele>1138.7</ele>
        <time>2021-08-07T08:44:41Z</time>
      </trkpt>
      <trkpt lat="47.97173" lon="7.03866">
        <ele>1138.8</ele>
        <time>2021-08-07T08:44:42Z</time>
      </trkpt>
      <trkpt lat="47.97172" lon="7.03867">
        <ele>1138.9</ele>
        <time>2021-08-07T08:44:43Z</time>
      </trkpt>
      <trkpt lat="47.97168" lon="7.03869">
        <ele>1139.1</ele>
        <time>2021-08-07T08:44:45Z</time>
      </trkpt>
      <trkpt lat="47.97165" lon="7.03869">
        <ele>1139.3</ele>
        <time>2021-08-07T08:44:46Z</time>
      </trkpt>
      <trkpt lat="47.97164" lon="7.03869">
        <ele>1139.3</ele>
        <time>2021-08-07T08:44:47Z</time>
      </trkpt>
      <trkpt lat="47.97161" lon="7.0387">
        <ele>1139.5</ele>
        <time>2021-08-07T08:44:48Z</time>
      </trkpt>
      <trkpt lat="47.97157" lon="7.03871">
        <ele>1139.7</ele>
        <time>2021-08-07T08:44:50Z</time>
      </trkpt>
      <trkpt lat="47.97155" lon="7.03871">
        <ele>1139.8</ele>
        <time>2021-08-07T08:44:51Z</time>
      </trkpt>
      <trkpt lat="47.97153" lon="7.03872">
        <ele>1139.9</ele>
        <time>2021-08-07T08:44:52Z</time>
      </trkpt>
      <trkpt lat="47.97152" lon="7.03872">
        <ele>1140</ele>
        <time>2021-08-07T08:44:53Z</time>
      </trkpt>
      <trkpt lat="47.97148" lon="7.03874">
        <ele>1140.2</ele>
        <time>2021-08-07T08:44:55Z</time>
      </trkpt>
      <trkpt lat="47.97146" lon="7.03875">
        <ele>1140.3</ele>
        <time>2021-08-07T08:44:56Z</time>
      </trkpt>
      <trkpt lat="47.97145" lon="7.03875">
        <ele>1140.4</ele>
        <time>2021-08-07T08:44:57Z</time>
      </trkpt>
      <trkpt lat="47.97143" lon="7.03875">
        <ele>1140.5</ele>
        <time>2021-08-07T08:44:58Z</time>
      </trkpt>
      <trkpt lat="47.9714" lon="7.03876">
        <ele>1140.7</ele>
        <time>2021-08-07T08:44:59Z</time>
      </trkpt>
      <trkpt lat="47.97136" lon="7.03876">
        <ele>1140.9</ele>
        <time>2021-08-07T08:45:01Z</time>
      </trkpt>
      <trkpt lat="47.97133" lon="7.03876">
        <ele>1141.1</ele>
        <time>2021-08-07T08:45:02Z</time>
      </trkpt>
      <trkpt lat="47.97128" lon="7.03876">
        <ele>1141.3</ele>
        <time>2021-08-07T08:45:04Z</time>
      </trkpt>
      <trkpt lat="47.97127" lon="7.03877">
        <ele>1141.4</ele>
        <time>2021-08-07T08:45:05Z</time>
      </trkpt>
      <trkpt lat="47.97126" lon="7.03877">
        <ele>1141.5</ele>
        <time>2021-08-07T08:45:06Z</time>
      </trkpt>
      <trkpt lat="47.97124" lon="7.0388">
        <ele>1141.7</ele>
        <time>2021-08-07T08:45:07Z</time>
      </trkpt>
      <trkpt lat="47.97123" lon="7.03881">
        <ele>1141.7</ele>
        <time>2021-08-07T08:45:08Z</time>
      </trkpt>
      <trkpt lat="47.97123" lon="7.03883">
        <ele>1141.8</ele>
        <time>2021-08-07T08:45:09Z</time>
      </trkpt>
      <trkpt lat="47.97122" lon="7.03885">
        <ele>1141.9</ele>
        <time>2021-08-07T08:45:10Z</time>
      </trkpt>
      <trkpt lat="47.97121" lon="7.03886">
        <ele>1142</ele>
        <time>2021-08-07T08:45:11Z</time>
      </trkpt>
      <trkpt lat="47.97118" lon="7.03889">
        <ele>1142.1</ele>
        <time>2021-08-07T08:45:12Z</time>
      </trkpt>
      <trkpt lat="47.97118" lon="7.0389">
        <ele>1142.2</ele>
        <time>2021-08-07T08:45:13Z</time>
      </trkpt>
      <trkpt lat="47.97115" lon="7.03893">
        <ele>1142.4</ele>
        <time>2021-08-07T08:45:15Z</time>
      </trkpt>
      <trkpt lat="47.97114" lon="7.03897">
        <ele>1142.6</ele>
        <time>2021-08-07T08:45:17Z</time>
      </trkpt>
      <trkpt lat="47.97113" lon="7.03899">
        <ele>1142.7</ele>
        <time>2021-08-07T08:45:18Z</time>
      </trkpt>
      <trkpt lat="47.97111" lon="7.039">
        <ele>1142.8</ele>
        <time>2021-08-07T08:45:19Z</time>
      </trkpt>
      <trkpt lat="47.9711" lon="7.03901">
        <ele>1142.9</ele>
        <time>2021-08-07T08:45:20Z</time>
      </trkpt>
      <trkpt lat="47.97109" lon="7.03901">
        <ele>1143</ele>
        <time>2021-08-07T08:45:21Z</time>
      </trkpt>
      <trkpt lat="47.9711" lon="7.03901">
        <ele>1143</ele>
        <time>2021-08-07T08:45:23Z</time>
      </trkpt>
      <trkpt lat="47.9711" lon="7.03904">
        <ele>1143.1</ele>
        <time>2021-08-07T08:45:24Z</time>
      </trkpt>
      <trkpt lat="47.97107" lon="7.03906">
        <ele>1143.4</ele>
        <time>2021-08-07T08:45:26Z</time>
      </trkpt>
      <trkpt lat="47.97106" lon="7.03907">
        <ele>1143.4</ele>
        <time>2021-08-07T08:45:27Z</time>
      </trkpt>
      <trkpt lat="47.97103" lon="7.03909">
        <ele>1143.6</ele>
        <time>2021-08-07T08:45:28Z</time>
      </trkpt>
      <trkpt lat="47.97102" lon="7.03909">
        <ele>1143.7</ele>
        <time>2021-08-07T08:45:29Z</time>
      </trkpt>
      <trkpt lat="47.971" lon="7.0391">
        <ele>1143.9</ele>
        <time>2021-08-07T08:45:30Z</time>
      </trkpt>
      <trkpt lat="47.97097" lon="7.03913">
        <ele>1144.1</ele>
        <time>2021-08-07T08:45:32Z</time>
      </trkpt>
      <trkpt lat="47.97093" lon="7.03915">
        <ele>1144.3</ele>
        <time>2021-08-07T08:45:33Z</time>
      </trkpt>
      <trkpt lat="47.97091" lon="7.03917">
        <ele>1144.5</ele>
        <time>2021-08-07T08:45:34Z</time>
      </trkpt>
      <trkpt lat="47.97089" lon="7.0392">
        <ele>1144.7</ele>
        <time>2021-08-07T08:45:36Z</time>
      </trkpt>
      <trkpt lat="47.97087" lon="7.0392">
        <ele>1144.8</ele>
        <time>2021-08-07T08:45:37Z</time>
      </trkpt>
      <trkpt lat="47.97085" lon="7.0392">
        <ele>1144.9</ele>
        <time>2021-08-07T08:45:38Z</time>
      </trkpt>
      <trkpt lat="47.97083" lon="7.0392">
        <ele>1145</ele>
        <time>2021-08-07T08:45:39Z</time>
      </trkpt>
      <trkpt lat="47.9708" lon="7.03921">
        <ele>1145.3</ele>
        <time>2021-08-07T08:45:41Z</time>
      </trkpt>
      <trkpt lat="47.97078" lon="7.03923">
        <ele>1145.5</ele>
        <time>2021-08-07T08:45:42Z</time>
      </trkpt>
      <trkpt lat="47.97075" lon="7.03926">
        <ele>1145.7</ele>
        <time>2021-08-07T08:45:44Z</time>
      </trkpt>
      <trkpt lat="47.97071" lon="7.03927">
        <ele>1146</ele>
        <time>2021-08-07T08:45:46Z</time>
      </trkpt>
      <trkpt lat="47.9707" lon="7.03928">
        <ele>1146</ele>
        <time>2021-08-07T08:45:47Z</time>
      </trkpt>
      <trkpt lat="47.97069" lon="7.03926">
        <ele>1146.2</ele>
        <time>2021-08-07T08:45:48Z</time>
      </trkpt>
      <trkpt lat="47.97069" lon="7.03924">
        <ele>1146.3</ele>
        <time>2021-08-07T08:45:49Z</time>
      </trkpt>
      <trkpt lat="47.97067" lon="7.03922">
        <ele>1146.4</ele>
        <time>2021-08-07T08:45:51Z</time>
      </trkpt>
      <trkpt lat="47.97064" lon="7.03919">
        <ele>1146.7</ele>
        <time>2021-08-07T08:45:52Z</time>
      </trkpt>
      <trkpt lat="47.97063" lon="7.03917">
        <ele>1146.8</ele>
        <time>2021-08-07T08:45:53Z</time>
      </trkpt>
      <trkpt lat="47.9706" lon="7.03914">
        <ele>1147.1</ele>
        <time>2021-08-07T08:45:55Z</time>
      </trkpt>
      <trkpt lat="47.97058" lon="7.0391">
        <ele>1147.4</ele>
        <time>2021-08-07T08:45:56Z</time>
      </trkpt>
      <trkpt lat="47.97057" lon="7.03908">
        <ele>1147.5</ele>
        <time>2021-08-07T08:45:57Z</time>
      </trkpt>
      <trkpt lat="47.97057" lon="7.03907">
        <ele>1147.6</ele>
        <time>2021-08-07T08:45:58Z</time>
      </trkpt>
      <trkpt lat="47.97055" lon="7.03906">
        <ele>1147.7</ele>
        <time>2021-08-07T08:46:00Z</time>
      </trkpt>
      <trkpt lat="47.97054" lon="7.03907">
        <ele>1147.8</ele>
        <time>2021-08-07T08:46:01Z</time>
      </trkpt>
      <trkpt lat="47.97054" lon="7.03909">
        <ele>1147.9</ele>
        <time>2021-08-07T08:46:02Z</time>
      </trkpt>
      <trkpt lat="47.97052" lon="7.03911">
        <ele>1148.1</ele>
        <time>2021-08-07T08:46:04Z</time>
      </trkpt>
      <trkpt lat="47.9705" lon="7.03912">
        <ele>1148.2</ele>
        <time>2021-08-07T08:46:06Z</time>
      </trkpt>
      <trkpt lat="47.96982" lon="7.03934">
        <ele>1153.9</ele>
        <time>2021-08-07T08:47:20Z</time>
      </trkpt>
      <trkpt lat="47.96975" lon="7.03929">
        <ele>1154.6</ele>
        <time>2021-08-07T08:47:22Z</time>
      </trkpt>
      <trkpt lat="47.96971" lon="7.03926">
        <ele>1155</ele>
        <time>2021-08-07T08:47:23Z</time>
      </trkpt>
      <trkpt lat="47.96966" lon="7.03923">
        <ele>1155.5</ele>
        <time>2021-08-07T08:47:24Z</time>
      </trkpt>
      <trkpt lat="47.96962" lon="7.03921">
        <ele>1155.8</ele>
        <time>2021-08-07T08:47:25Z</time>
      </trkpt>
      <trkpt lat="47.96956" lon="7.03919">
        <ele>1156.3</ele>
        <time>2021-08-07T08:47:27Z</time>
      </trkpt>
      <trkpt lat="47.96952" lon="7.03918">
        <ele>1156.7</ele>
        <time>2021-08-07T08:47:28Z</time>
      </trkpt>
      <trkpt lat="47.96948" lon="7.03916">
        <ele>1157.1</ele>
        <time>2021-08-07T08:47:29Z</time>
      </trkpt>
      <trkpt lat="47.96944" lon="7.03915">
        <ele>1157.5</ele>
        <time>2021-08-07T08:47:31Z</time>
      </trkpt>
      <trkpt lat="47.96943" lon="7.03916">
        <ele>1157.6</ele>
        <time>2021-08-07T08:47:32Z</time>
      </trkpt>
      <trkpt lat="47.96942" lon="7.0392">
        <ele>1157.9</ele>
        <time>2021-08-07T08:47:34Z</time>
      </trkpt>
      <trkpt lat="47.96941" lon="7.03921">
        <ele>1157.9</ele>
        <time>2021-08-07T08:47:35Z</time>
      </trkpt>
      <trkpt lat="47.96941" lon="7.03921">
        <ele>1158</ele>
        <time>2021-08-07T08:47:37Z</time>
      </trkpt>
      <trkpt lat="47.9694" lon="7.03921">
        <ele>1158</ele>
        <time>2021-08-07T08:47:38Z</time>
      </trkpt>
      <trkpt lat="47.9694" lon="7.03921">
        <ele>1158.1</ele>
        <time>2021-08-07T08:47:39Z</time>
      </trkpt>
      <trkpt lat="47.969" lon="7.03934">
        <ele>1161.4</ele>
        <time>2021-08-07T08:48:27Z</time>
      </trkpt>
      <trkpt lat="47.96894" lon="7.03943">
        <ele>1162.1</ele>
        <time>2021-08-07T08:48:29Z</time>
      </trkpt>
      <trkpt lat="47.96891" lon="7.03946">
        <ele>1162.4</ele>
        <time>2021-08-07T08:48:30Z</time>
      </trkpt>
      <trkpt lat="47.96888" lon="7.03949">
        <ele>1162.7</ele>
        <time>2021-08-07T08:48:31Z</time>
      </trkpt>
      <trkpt lat="47.96886" lon="7.03953">
        <ele>1162.9</ele>
        <time>2021-08-07T08:48:32Z</time>
      </trkpt>
      <trkpt lat="47.96886" lon="7.03954">
        <ele>1163</ele>
        <time>2021-08-07T08:48:33Z</time>
      </trkpt>
      <trkpt lat="47.96885" lon="7.03956">
        <ele>1163.1</ele>
        <time>2021-08-07T08:48:35Z</time>
      </trkpt>
      <trkpt lat="47.96886" lon="7.03957">
        <ele>1163.2</ele>
        <time>2021-08-07T08:48:36Z</time>
      </trkpt>
      <trkpt lat="47.96886" lon="7.03958">
        <ele>1163.2</ele>
        <time>2021-08-07T08:48:37Z</time>
      </trkpt>
      <trkpt lat="47.96886" lon="7.03959">
        <ele>1163.3</ele>
        <time>2021-08-07T08:48:39Z</time>
      </trkpt>
      <trkpt lat="47.96886" lon="7.03959">
        <ele>1163.3</ele>
        <time>2021-08-07T08:48:40Z</time>
      </trkpt>
      <trkpt lat="47.96886" lon="7.0396">
        <ele>1163.3</ele>
        <time>2021-08-07T08:48:41Z</time>
      </trkpt>
      <trkpt lat="47.96887" lon="7.0396">
        <ele>1163.4</ele>
        <time>2021-08-07T08:48:43Z</time>
      </trkpt>
      <trkpt lat="47.96814" lon="7.03808">
        <ele>1159.8</ele>
        <time>2021-08-07T08:51:35Z</time>
      </trkpt>
      <trkpt lat="47.96815" lon="7.03801">
        <ele>1159.8</ele>
        <time>2021-08-07T08:51:36Z</time>
      </trkpt>
      <trkpt lat="47.96817" lon="7.03792">
        <ele>1159.8</ele>
        <time>2021-08-07T08:51:38Z</time>
      </trkpt>
      <trkpt lat="47.96818" lon="7.03788">
        <ele>1159.8</ele>
        <time>2021-08-07T08:51:39Z</time>
      </trkpt>
      <trkpt lat="47.96819" lon="7.03781">
        <ele>1159.8</ele>
        <time>2021-08-07T08:51:40Z</time>
      </trkpt>
      <trkpt lat="47.96819" lon="7.03773">
        <ele>1159.7</ele>
        <time>2021-08-07T08:51:41Z</time>
      </trkpt>
      <trkpt lat="47.96819" lon="7.03764">
        <ele>1159.7</ele>
        <time>2021-08-07T08:51:42Z</time>
      </trkpt>
      <trkpt lat="47.96818" lon="7.03744">
        <ele>1159.8</ele>
        <time>2021-08-07T08:51:44Z</time>
      </trkpt>
      <trkpt lat="47.96822" lon="7.03736">
        <ele>1159.8</ele>
        <time>2021-08-07T08:51:46Z</time>
      </trkpt>
      <trkpt lat="47.96826" lon="7.03728">
        <ele>1159.8</ele>
        <time>2021-08-07T08:51:47Z</time>
      </trkpt>
      <trkpt lat="47.96829" lon="7.03717">
        <ele>1159.9</ele>
        <time>2021-08-07T08:51:49Z</time>
      </trkpt>
      <trkpt lat="47.9683" lon="7.03707">
        <ele>1160</ele>
        <time>2021-08-07T08:51:51Z</time>
      </trkpt>
      <trkpt lat="47.9683" lon="7.037">
        <ele>1160.1</ele>
        <time>2021-08-07T08:51:52Z</time>
      </trkpt>
      <trkpt lat="47.9683" lon="7.03692">
        <ele>1160.3</ele>
        <time>2021-08-07T08:51:53Z</time>
      </trkpt>
      <trkpt lat="47.9683" lon="7.03685">
        <ele>1160.4</ele>
        <time>2021-08-07T08:51:54Z</time>
      </trkpt>
      <trkpt lat="47.96829" lon="7.03676">
        <ele>1160.6</ele>
        <time>2021-08-07T08:51:56Z</time>
      </trkpt>
      <trkpt lat="47.96828" lon="7.03672">
        <ele>1160.7</ele>
        <time>2021-08-07T08:51:57Z</time>
      </trkpt>
      <trkpt lat="47.96826" lon="7.03665">
        <ele>1160.9</ele>
        <time>2021-08-07T08:51:58Z</time>
      </trkpt>
      <trkpt lat="47.96823" lon="7.0366">
        <ele>1161.1</ele>
        <time>2021-08-07T08:51:59Z</time>
      </trkpt>
      <trkpt lat="47.96821" lon="7.03656">
        <ele>1161.4</ele>
        <time>2021-08-07T08:52:00Z</time>
      </trkpt>
      <trkpt lat="47.96819" lon="7.03648">
        <ele>1161.8</ele>
        <time>2021-08-07T08:52:02Z</time>
      </trkpt>
      <trkpt lat="47.96818" lon="7.03639">
        <ele>1162.2</ele>
        <time>2021-08-07T08:52:04Z</time>
      </trkpt>
      <trkpt lat="47.96818" lon="7.03634">
        <ele>1162.5</ele>
        <time>2021-08-07T08:52:06Z</time>
      </trkpt>
      <trkpt lat="47.96821" lon="7.03629">
        <ele>1162.9</ele>
        <time>2021-08-07T08:52:07Z</time>
      </trkpt>
      <trkpt lat="47.96823" lon="7.03625">
        <ele>1163.1</ele>
        <time>2021-08-07T08:52:08Z</time>
      </trkpt>
      <trkpt lat="47.96824" lon="7.03619">
        <ele>1163.5</ele>
        <time>2021-08-07T08:52:09Z</time>
      </trkpt>
      <trkpt lat="47.96825" lon="7.03612">
        <ele>1163.9</ele>
        <time>2021-08-07T08:52:11Z</time>
      </trkpt>
      <trkpt lat="47.96822" lon="7.03609">
        <ele>1164.2</ele>
        <time>2021-08-07T08:52:12Z</time>
      </trkpt>
      <trkpt lat="47.96822" lon="7.0361">
        <ele>1164.3</ele>
        <time>2021-08-07T08:52:13Z</time>
      </trkpt>
      <trkpt lat="47.96825" lon="7.0361">
        <ele>1164.5</ele>
        <time>2021-08-07T08:52:15Z</time>
      </trkpt>
      <trkpt lat="47.96827" lon="7.0361">
        <ele>1164.8</ele>
        <time>2021-08-07T08:52:16Z</time>
      </trkpt>
      <trkpt lat="47.9683" lon="7.0361">
        <ele>1165</ele>
        <time>2021-08-07T08:52:18Z</time>
      </trkpt>
      <trkpt lat="47.96831" lon="7.0361">
        <ele>1165.1</ele>
        <time>2021-08-07T08:52:19Z</time>
      </trkpt>
      <trkpt lat="47.96831" lon="7.0361">
        <ele>1165.1</ele>
        <time>2021-08-07T08:52:20Z</time>
      </trkpt>
      <trkpt lat="47.96832" lon="7.0361">
        <ele>1165.2</ele>
        <time>2021-08-07T08:52:22Z</time>
      </trkpt>
      <trkpt lat="47.96819" lon="7.03604">
        <ele>1166.4</ele>
        <time>2021-08-07T09:10:41Z</time>
      </trkpt>
      <trkpt lat="47.96819" lon="7.03603">
        <ele>1166.5</ele>
        <time>2021-08-07T09:10:42Z</time>
      </trkpt>
      <trkpt lat="47.96818" lon="7.03602">
        <ele>1166.6</ele>
        <time>2021-08-07T09:10:43Z</time>
      </trkpt>
      <trkpt lat="47.96818" lon="7.036">
        <ele>1166.7</ele>
        <time>2021-08-07T09:10:45Z</time>
      </trkpt>
      <trkpt lat="47.96818" lon="7.03601">
        <ele>1166.7</ele>
        <time>2021-08-07T09:10:46Z</time>
      </trkpt>
      <trkpt lat="47.96818" lon="7.03601">
        <ele>1166.7</ele>
        <time>2021-08-07T09:10:47Z</time>
      </trkpt>
      <trkpt lat="47.96818" lon="7.03601">
        <ele>1166.7</ele>
        <time>2021-08-07T09:10:49Z</time>
      </trkpt>
      <trkpt lat="47.96818" lon="7.03601">
        <ele>1166.8</ele>
        <time>2021-08-07T09:10:50Z</time>
      </trkpt>
      <trkpt lat="47.96817" lon="7.03601">
        <ele>1166.8</ele>
        <time>2021-08-07T09:10:51Z</time>
      </trkpt>
      <trkpt lat="47.96817" lon="7.03601">
        <ele>1166.8</ele>
        <time>2021-08-07T09:10:53Z</time>
      </trkpt>
      <trkpt lat="47.96817" lon="7.03601">
        <ele>1166.8</ele>
        <time>2021-08-07T09:10:54Z</time>
      </trkpt>
      <trkpt lat="47.96817" lon="7.03602">
        <ele>1166.8</ele>
        <time>2021-08-07T09:10:56Z</time>
      </trkpt>
      <trkpt lat="47.96798" lon="7.03582">
        <ele>1168.9</ele>
        <time>2021-08-07T09:20:31Z</time>
      </trkpt>
      <trkpt lat="47.96796" lon="7.03573">
        <ele>1169.5</ele>
        <time>2021-08-07T09:20:33Z</time>
      </trkpt>
      <trkpt lat="47.96795" lon="7.03565">
        <ele>1169.9</ele>
        <time>2021-08-07T09:20:34Z</time>
      </trkpt>
      <trkpt lat="47.96795" lon="7.03555">
        <ele>1170.5</ele>
        <time>2021-08-07T09:20:36Z</time>
      </trkpt>
      <trkpt lat="47.96795" lon="7.03548">
        <ele>1170.8</ele>
        <time>2021-08-07T09:20:37Z</time>
      </trkpt>
      <trkpt lat="47.96794" lon="7.03544">
        <ele>1171</ele>
        <time>2021-08-07T09:20:38Z</time>
      </trkpt>
      <trkpt lat="47.96793" lon="7.03538">
        <ele>1171.4</ele>
        <time>2021-08-07T09:20:40Z</time>
      </trkpt>
      <trkpt lat="47.96791" lon="7.03531">
        <ele>1171.7</ele>
        <time>2021-08-07T09:20:41Z</time>
      </trkpt>
      <trkpt lat="47.9679" lon="7.03528">
        <ele>1171.9</ele>
        <time>2021-08-07T09:20:42Z</time>
      </trkpt>
      <trkpt lat="47.96788" lon="7.03522">
        <ele>1172.3</ele>
        <time>2021-08-07T09:20:44Z</time>
      </trkpt>
      <trkpt lat="47.96785" lon="7.03518">
        <ele>1172.6</ele>
        <time>2021-08-07T09:20:45Z</time>
      </trkpt>
      <trkpt lat="47.96784" lon="7.03513">
        <ele>1172.9</ele>
        <time>2021-08-07T09:20:47Z</time>
      </trkpt>
      <trkpt lat="47.96783" lon="7.0351">
        <ele>1173</ele>
        <time>2021-08-07T09:20:48Z</time>
      </trkpt>
      <trkpt lat="47.96782" lon="7.03508">
        <ele>1173.1</ele>
        <time>2021-08-07T09:20:49Z</time>
      </trkpt>
      <trkpt lat="47.96782" lon="7.03503">
        <ele>1173.4</ele>
        <time>2021-08-07T09:20:51Z</time>
      </trkpt>
      <trkpt lat="47.96782" lon="7.035">
        <ele>1173.6</ele>
        <time>2021-08-07T09:20:52Z</time>
      </trkpt>
      <trkpt lat="47.96783" lon="7.03495">
        <ele>1173.8</ele>
        <time>2021-08-07T09:20:54Z</time>
      </trkpt>
      <trkpt lat="47.96783" lon="7.03491">
        <ele>1174</ele>
        <time>2021-08-07T09:20:55Z</time>
      </trkpt>
      <trkpt lat="47.96782" lon="7.03487">
        <ele>1174.3</ele>
        <time>2021-08-07T09:20:57Z</time>
      </trkpt>
      <trkpt lat="47.96782" lon="7.03485">
        <ele>1174.4</ele>
        <time>2021-08-07T09:20:58Z</time>
      </trkpt>
      <trkpt lat="47.96781" lon="7.03482">
        <ele>1174.5</ele>
        <time>2021-08-07T09:21:00Z</time>
      </trkpt>
      <trkpt lat="47.9678" lon="7.03481">
        <ele>1174.6</ele>
        <time>2021-08-07T09:21:01Z</time>
      </trkpt>
      <trkpt lat="47.9678" lon="7.03481">
        <ele>1174.6</ele>
        <time>2021-08-07T09:21:02Z</time>
      </trkpt>
      <trkpt lat="47.96779" lon="7.0348">
        <ele>1174.7</ele>
        <time>2021-08-07T09:21:03Z</time>
      </trkpt>
      <trkpt lat="47.96778" lon="7.03478">
        <ele>1174.8</ele>
        <time>2021-08-07T09:21:04Z</time>
      </trkpt>
      <trkpt lat="47.96777" lon="7.03477">
        <ele>1174.9</ele>
        <time>2021-08-07T09:21:06Z</time>
      </trkpt>
      <trkpt lat="47.96776" lon="7.03476">
        <ele>1175</ele>
        <time>2021-08-07T09:21:07Z</time>
      </trkpt>
      <trkpt lat="47.96775" lon="7.03475">
        <ele>1175.1</ele>
        <time>2021-08-07T09:21:08Z</time>
      </trkpt>
      <trkpt lat="47.96773" lon="7.03471">
        <ele>1175.4</ele>
        <time>2021-08-07T09:21:10Z</time>
      </trkpt>
      <trkpt lat="47.96771" lon="7.03468">
        <ele>1175.6</ele>
        <time>2021-08-07T09:21:11Z</time>
      </trkpt>
      <trkpt lat="47.96768" lon="7.03463">
        <ele>1175.9</ele>
        <time>2021-08-07T09:21:13Z</time>
      </trkpt>
      <trkpt lat="47.96765" lon="7.03458">
        <ele>1176.3</ele>
        <time>2021-08-07T09:21:14Z</time>
      </trkpt>
      <trkpt lat="47.96762" lon="7.03451">
        <ele>1176.7</ele>
        <time>2021-08-07T09:21:16Z</time>
      </trkpt>
      <trkpt lat="47.9676" lon="7.03447">
        <ele>1177</ele>
        <time>2021-08-07T09:21:17Z</time>
      </trkpt>
      <trkpt lat="47.9676" lon="7.03445">
        <ele>1177.1</ele>
        <time>2021-08-07T09:21:18Z</time>
      </trkpt>
      <trkpt lat="47.96758" lon="7.03441">
        <ele>1177.4</ele>
        <time>2021-08-07T09:21:19Z</time>
      </trkpt>
      <trkpt lat="47.96757" lon="7.0344">
        <ele>1177.5</ele>
        <time>2021-08-07T09:21:20Z</time>
      </trkpt>
      <trkpt lat="47.96754" lon="7.03435">
        <ele>1177.8</ele>
        <time>2021-08-07T09:21:22Z</time>
      </trkpt>
      <trkpt lat="47.96752" lon="7.03433">
        <ele>1178</ele>
        <time>2021-08-07T09:21:23Z</time>
      </trkpt>
      <trkpt lat="47.96751" lon="7.03431">
        <ele>1178.1</ele>
        <time>2021-08-07T09:21:24Z</time>
      </trkpt>
      <trkpt lat="47.9675" lon="7.03428">
        <ele>1178.3</ele>
        <time>2021-08-07T09:21:25Z</time>
      </trkpt>
      <trkpt lat="47.96748" lon="7.03423">
        <ele>1178.6</ele>
        <time>2021-08-07T09:21:27Z</time>
      </trkpt>
      <trkpt lat="47.96745" lon="7.03419">
        <ele>1178.9</ele>
        <time>2021-08-07T09:21:29Z</time>
      </trkpt>
      <trkpt lat="47.96744" lon="7.03417">
        <ele>1179.1</ele>
        <time>2021-08-07T09:21:30Z</time>
      </trkpt>
      <trkpt lat="47.96742" lon="7.03414">
        <ele>1179.3</ele>
        <time>2021-08-07T09:21:32Z</time>
      </trkpt>
      <trkpt lat="47.9674" lon="7.03411">
        <ele>1179.5</ele>
        <time>2021-08-07T09:21:34Z</time>
      </trkpt>
      <trkpt lat="47.96739" lon="7.03409">
        <ele>1179.7</ele>
        <time>2021-08-07T09:21:35Z</time>
      </trkpt>
      <trkpt lat="47.96737" lon="7.03407">
        <ele>1179.8</ele>
        <time>2021-08-07T09:21:37Z</time>
      </trkpt>
      <trkpt lat="47.96735" lon="7.03407">
        <ele>1180</ele>
        <time>2021-08-07T09:21:39Z</time>
      </trkpt>
      <trkpt lat="47.96734" lon="7.03408">
        <ele>1180.1</ele>
        <time>2021-08-07T09:21:41Z</time>
      </trkpt>
      <trkpt lat="47.96733" lon="7.03408">
        <ele>1180.2</ele>
        <time>2021-08-07T09:21:42Z</time>
      </trkpt>
      <trkpt lat="47.96731" lon="7.03407">
        <ele>1180.3</ele>
        <time>2021-08-07T09:21:43Z</time>
      </trkpt>
      <trkpt lat="47.96728" lon="7.03405">
        <ele>1180.6</ele>
        <time>2021-08-07T09:21:45Z</time>
      </trkpt>
      <trkpt lat="47.96727" lon="7.03404">
        <ele>1180.7</ele>
        <time>2021-08-07T09:21:46Z</time>
      </trkpt>
      <trkpt lat="47.96726" lon="7.03403">
        <ele>1180.8</ele>
        <time>2021-08-07T09:21:47Z</time>
      </trkpt>
      <trkpt lat="47.96725" lon="7.03401">
        <ele>1180.9</ele>
        <time>2021-08-07T09:21:48Z</time>
      </trkpt>
      <trkpt lat="47.96723" lon="7.034">
        <ele>1181</ele>
        <time>2021-08-07T09:21:49Z</time>
      </trkpt>
      <trkpt lat="47.96721" lon="7.03397">
        <ele>1181.3</ele>
        <time>2021-08-07T09:21:51Z</time>
      </trkpt>
      <trkpt lat="47.9672" lon="7.03396">
        <ele>1181.4</ele>
        <time>2021-08-07T09:21:52Z</time>
      </trkpt>
      <trkpt lat="47.96717" lon="7.03395">
        <ele>1181.6</ele>
        <time>2021-08-07T09:21:54Z</time>
      </trkpt>
      <trkpt lat="47.96716" lon="7.03395">
        <ele>1181.7</ele>
        <time>2021-08-07T09:21:55Z</time>
      </trkpt>
      <trkpt lat="47.96713" lon="7.03396">
        <ele>1181.9</ele>
        <time>2021-08-07T09:21:57Z</time>
      </trkpt>
      <trkpt lat="47.96712" lon="7.03396">
        <ele>1182</ele>
        <time>2021-08-07T09:21:58Z</time>
      </trkpt>
      <trkpt lat="47.96711" lon="7.03395">
        <ele>1182.1</ele>
        <time>2021-08-07T09:21:59Z</time>
      </trkpt>
      <trkpt lat="47.9671" lon="7.03395">
        <ele>1182.1</ele>
        <time>2021-08-07T09:22:01Z</time>
      </trkpt>
      <trkpt lat="47.96709" lon="7.03394">
        <ele>1182.2</ele>
        <time>2021-08-07T09:22:02Z</time>
      </trkpt>
      <trkpt lat="47.96708" lon="7.03393">
        <ele>1182.3</ele>
        <time>2021-08-07T09:22:04Z</time>
      </trkpt>
      <trkpt lat="47.96707" lon="7.03392">
        <ele>1182.4</ele>
        <time>2021-08-07T09:22:05Z</time>
      </trkpt>
      <trkpt lat="47.96706" lon="7.0339">
        <ele>1182.5</ele>
        <time>2021-08-07T09:22:06Z</time>
      </trkpt>
      <trkpt lat="47.96705" lon="7.03389">
        <ele>1182.6</ele>
        <time>2021-08-07T09:22:07Z</time>
      </trkpt>
      <trkpt lat="47.96705" lon="7.03389">
        <ele>1182.6</ele>
        <time>2021-08-07T09:22:08Z</time>
      </trkpt>
      <trkpt lat="47.967" lon="7.03385">
        <ele>1183</ele>
        <time>2021-08-07T09:22:10Z</time>
      </trkpt>
      <trkpt lat="47.96698" lon="7.03385">
        <ele>1183.2</ele>
        <time>2021-08-07T09:22:12Z</time>
      </trkpt>
      <trkpt lat="47.96697" lon="7.03384">
        <ele>1183.3</ele>
        <time>2021-08-07T09:22:14Z</time>
      </trkpt>
      <trkpt lat="47.96695" lon="7.03384">
        <ele>1183.4</ele>
        <time>2021-08-07T09:22:15Z</time>
      </trkpt>
      <trkpt lat="47.96693" lon="7.03383">
        <ele>1183.6</ele>
        <time>2021-08-07T09:22:16Z</time>
      </trkpt>
      <trkpt lat="47.96691" lon="7.03384">
        <ele>1183.7</ele>
        <time>2021-08-07T09:22:17Z</time>
      </trkpt>
      <trkpt lat="47.96689" lon="7.03384">
        <ele>1183.9</ele>
        <time>2021-08-07T09:22:19Z</time>
      </trkpt>
      <trkpt lat="47.96687" lon="7.03383">
        <ele>1184.1</ele>
        <time>2021-08-07T09:22:20Z</time>
      </trkpt>
      <trkpt lat="47.96685" lon="7.03382">
        <ele>1184.2</ele>
        <time>2021-08-07T09:22:22Z</time>
      </trkpt>
      <trkpt lat="47.96684" lon="7.03381">
        <ele>1184.3</ele>
        <time>2021-08-07T09:22:24Z</time>
      </trkpt>
      <trkpt lat="47.96682" lon="7.0338">
        <ele>1184.4</ele>
        <time>2021-08-07T09:22:25Z</time>
      </trkpt>
      <trkpt lat="47.96679" lon="7.03381">
        <ele>1184.7</ele>
        <time>2021-08-07T09:22:27Z</time>
      </trkpt>
      <trkpt lat="47.96679" lon="7.03381">
        <ele>1184.7</ele>
        <time>2021-08-07T09:22:28Z</time>
      </trkpt>
      <trkpt lat="47.96678" lon="7.03381">
        <ele>1184.8</ele>
        <time>2021-08-07T09:22:30Z</time>
      </trkpt>
      <trkpt lat="47.96676" lon="7.0338">
        <ele>1184.9</ele>
        <time>2021-08-07T09:22:31Z</time>
      </trkpt>
      <trkpt lat="47.96673" lon="7.03382">
        <ele>1185.2</ele>
        <time>2021-08-07T09:22:33Z</time>
      </trkpt>
      <trkpt lat="47.9667" lon="7.03382">
        <ele>1185.4</ele>
        <time>2021-08-07T09:22:34Z</time>
      </trkpt>
      <trkpt lat="47.96666" lon="7.03382">
        <ele>1185.7</ele>
        <time>2021-08-07T09:22:36Z</time>
      </trkpt>
      <trkpt lat="47.96663" lon="7.03382">
        <ele>1185.9</ele>
        <time>2021-08-07T09:22:38Z</time>
      </trkpt>
      <trkpt lat="47.9666" lon="7.03382">
        <ele>1186.2</ele>
        <time>2021-08-07T09:22:39Z</time>
      </trkpt>
      <trkpt lat="47.96659" lon="7.03382">
        <ele>1186.2</ele>
        <time>2021-08-07T09:22:40Z</time>
      </trkpt>
      <trkpt lat="47.96656" lon="7.03383">
        <ele>1186.4</ele>
        <time>2021-08-07T09:22:42Z</time>
      </trkpt>
      <trkpt lat="47.96653" lon="7.03385">
        <ele>1186.8</ele>
        <time>2021-08-07T09:22:44Z</time>
      </trkpt>
      <trkpt lat="47.96649" lon="7.03385">
        <ele>1187.2</ele>
        <time>2021-08-07T09:22:45Z</time>
      </trkpt>
      <trkpt lat="47.96647" lon="7.03385">
        <ele>1187.3</ele>
        <time>2021-08-07T09:22:46Z</time>
      </trkpt>
      <trkpt lat="47.96645" lon="7.03384">
        <ele>1187.5</ele>
        <time>2021-08-07T09:22:48Z</time>
      </trkpt>
      <trkpt lat="47.96644" lon="7.03383">
        <ele>1187.7</ele>
        <time>2021-08-07T09:22:49Z</time>
      </trkpt>
      <trkpt lat="47.96643" lon="7.03382">
        <ele>1187.8</ele>
        <time>2021-08-07T09:22:51Z</time>
      </trkpt>
      <trkpt lat="47.96641" lon="7.03382">
        <ele>1187.9</ele>
        <time>2021-08-07T09:22:53Z</time>
      </trkpt>
      <trkpt lat="47.9664" lon="7.03382">
        <ele>1188</ele>
        <time>2021-08-07T09:22:54Z</time>
      </trkpt>
      <trkpt lat="47.9664" lon="7.03382">
        <ele>1188.1</ele>
        <time>2021-08-07T09:22:56Z</time>
      </trkpt>
      <trkpt lat="47.96639" lon="7.03381">
        <ele>1188.2</ele>
        <time>2021-08-07T09:22:57Z</time>
      </trkpt>
      <trkpt lat="47.96639" lon="7.0338">
        <ele>1188.2</ele>
        <time>2021-08-07T09:22:58Z</time>
      </trkpt>
      <trkpt lat="47.96638" lon="7.03381">
        <ele>1188.3</ele>
        <time>2021-08-07T09:23:00Z</time>
      </trkpt>
      <trkpt lat="47.96637" lon="7.03381">
        <ele>1188.4</ele>
        <time>2021-08-07T09:23:01Z</time>
      </trkpt>
      <trkpt lat="47.96637" lon="7.03382">
        <ele>1188.4</ele>
        <time>2021-08-07T09:23:02Z</time>
      </trkpt>
      <trkpt lat="47.96635" lon="7.03383">
        <ele>1188.6</ele>
        <time>2021-08-07T09:23:04Z</time>
      </trkpt>
      <trkpt lat="47.96634" lon="7.03383">
        <ele>1188.7</ele>
        <time>2021-08-07T09:23:05Z</time>
      </trkpt>
      <trkpt lat="47.96631" lon="7.03383">
        <ele>1188.9</ele>
        <time>2021-08-07T09:23:07Z</time>
      </trkpt>
      <trkpt lat="47.9663" lon="7.03383">
        <ele>1189.1</ele>
        <time>2021-08-07T09:23:08Z</time>
      </trkpt>
      <trkpt lat="47.96627" lon="7.03384">
        <ele>1189.3</ele>
        <time>2021-08-07T09:23:10Z</time>
      </trkpt>
      <trkpt lat="47.96624" lon="7.03383">
        <ele>1189.6</ele>
        <time>2021-08-07T09:23:11Z</time>
      </trkpt>
      <trkpt lat="47.96623" lon="7.03382">
        <ele>1189.7</ele>
        <time>2021-08-07T09:23:12Z</time>
      </trkpt>
      <trkpt lat="47.96621" lon="7.03382">
        <ele>1189.9</ele>
        <time>2021-08-07T09:23:14Z</time>
      </trkpt>
      <trkpt lat="47.96618" lon="7.03384">
        <ele>1190.1</ele>
        <time>2021-08-07T09:23:16Z</time>
      </trkpt>
      <trkpt lat="47.96617" lon="7.03385">
        <ele>1190.3</ele>
        <time>2021-08-07T09:23:17Z</time>
      </trkpt>
      <trkpt lat="47.96616" lon="7.03385">
        <ele>1190.4</ele>
        <time>2021-08-07T09:23:18Z</time>
      </trkpt>
      <trkpt lat="47.96614" lon="7.03384">
        <ele>1190.6</ele>
        <time>2021-08-07T09:23:19Z</time>
      </trkpt>
      <trkpt lat="47.96611" lon="7.03383">
        <ele>1190.8</ele>
        <time>2021-08-07T09:23:21Z</time>
      </trkpt>
      <trkpt lat="47.9661" lon="7.03385">
        <ele>1191</ele>
        <time>2021-08-07T09:23:22Z</time>
      </trkpt>
      <trkpt lat="47.96608" lon="7.03389">
        <ele>1191.4</ele>
        <time>2021-08-07T09:23:24Z</time>
      </trkpt>
      <trkpt lat="47.96605" lon="7.03395">
        <ele>1191.8</ele>
        <time>2021-08-07T09:23:26Z</time>
      </trkpt>
      <trkpt lat="47.96604" lon="7.03397">
        <ele>1192</ele>
        <time>2021-08-07T09:23:27Z</time>
      </trkpt>
      <trkpt lat="47.96603" lon="7.03399">
        <ele>1192.2</ele>
        <time>2021-08-07T09:23:28Z</time>
      </trkpt>
      <trkpt lat="47.96601" lon="7.03401">
        <ele>1192.4</ele>
        <time>2021-08-07T09:23:29Z</time>
      </trkpt>
      <trkpt lat="47.966" lon="7.03401">
        <ele>1192.5</ele>
        <time>2021-08-07T09:23:31Z</time>
      </trkpt>
      <trkpt lat="47.96598" lon="7.03402">
        <ele>1192.8</ele>
        <time>2021-08-07T09:23:32Z</time>
      </trkpt>
      <trkpt lat="47.96596" lon="7.03402">
        <ele>1192.9</ele>
        <time>2021-08-07T09:23:33Z</time>
      </trkpt>
      <trkpt lat="47.96593" lon="7.03404">
        <ele>1193.3</ele>
        <time>2021-08-07T09:23:35Z</time>
      </trkpt>
      <trkpt lat="47.96592" lon="7.03405">
        <ele>1193.4</ele>
        <time>2021-08-07T09:23:36Z</time>
      </trkpt>
      <trkpt lat="47.9659" lon="7.03406">
        <ele>1193.6</ele>
        <time>2021-08-07T09:23:37Z</time>
      </trkpt>
      <trkpt lat="47.96586" lon="7.03408">
        <ele>1194</ele>
        <time>2021-08-07T09:23:39Z</time>
      </trkpt>
      <trkpt lat="47.96584" lon="7.03409">
        <ele>1194.2</ele>
        <time>2021-08-07T09:23:40Z</time>
      </trkpt>
      <trkpt lat="47.96583" lon="7.03409">
        <ele>1194.3</ele>
        <time>2021-08-07T09:23:41Z</time>
      </trkpt>
      <trkpt lat="47.96581" lon="7.03409">
        <ele>1194.5</ele>
        <time>2021-08-07T09:23:42Z</time>
      </trkpt>
      <trkpt lat="47.9658" lon="7.03408">
        <ele>1194.6</ele>
        <time>2021-08-07T09:23:43Z</time>
      </trkpt>
      <trkpt lat="47.96578" lon="7.03408">
        <ele>1194.8</ele>
        <time>2021-08-07T09:23:45Z</time>
      </trkpt>
      <trkpt lat="47.96576" lon="7.03407">
        <ele>1194.9</ele>
        <time>2021-08-07T09:23:47Z</time>
      </trkpt>
      <trkpt lat="47.96575" lon="7.03406">
        <ele>1195.1</ele>
        <time>2021-08-07T09:23:48Z</time>
      </trkpt>
      <trkpt lat="47.96574" lon="7.03404">
        <ele>1195.2</ele>
        <time>2021-08-07T09:23:50Z</time>
      </trkpt>
      <trkpt lat="47.96574" lon="7.03402">
        <ele>1195.3</ele>
        <time>2021-08-07T09:23:52Z</time>
      </trkpt>
      <trkpt lat="47.96573" lon="7.03401">
        <ele>1195.4</ele>
        <time>2021-08-07T09:23:53Z</time>
      </trkpt>
      <trkpt lat="47.96572" lon="7.034">
        <ele>1195.5</ele>
        <time>2021-08-07T09:23:55Z</time>
      </trkpt>
      <trkpt lat="47.9657" lon="7.03399">
        <ele>1195.7</ele>
        <time>2021-08-07T09:23:56Z</time>
      </trkpt>
      <trkpt lat="47.96569" lon="7.03399">
        <ele>1195.8</ele>
        <time>2021-08-07T09:23:57Z</time>
      </trkpt>
      <trkpt lat="47.96568" lon="7.03399">
        <ele>1195.9</ele>
        <time>2021-08-07T09:23:58Z</time>
      </trkpt>
      <trkpt lat="47.96566" lon="7.03399">
        <ele>1196.1</ele>
        <time>2021-08-07T09:23:59Z</time>
      </trkpt>
      <trkpt lat="47.96563" lon="7.03401">
        <ele>1196.3</ele>
        <time>2021-08-07T09:24:01Z</time>
      </trkpt>
      <trkpt lat="47.96561" lon="7.03403">
        <ele>1196.6</ele>
        <time>2021-08-07T09:24:02Z</time>
      </trkpt>
      <trkpt lat="47.9656" lon="7.03404">
        <ele>1196.7</ele>
        <time>2021-08-07T09:24:03Z</time>
      </trkpt>
      <trkpt lat="47.96556" lon="7.03406">
        <ele>1197</ele>
        <time>2021-08-07T09:24:05Z</time>
      </trkpt>
      <trkpt lat="47.96555" lon="7.03407">
        <ele>1197.2</ele>
        <time>2021-08-07T09:24:06Z</time>
      </trkpt>
      <trkpt lat="47.96553" lon="7.03409">
        <ele>1197.4</ele>
        <time>2021-08-07T09:24:07Z</time>
      </trkpt>
      <trkpt lat="47.9655" lon="7.0341">
        <ele>1197.6</ele>
        <time>2021-08-07T09:24:09Z</time>
      </trkpt>
      <trkpt lat="47.96548" lon="7.03412">
        <ele>1197.9</ele>
        <time>2021-08-07T09:24:10Z</time>
      </trkpt>
      <trkpt lat="47.96545" lon="7.03412">
        <ele>1198.1</ele>
        <time>2021-08-07T09:24:12Z</time>
      </trkpt>
      <trkpt lat="47.96543" lon="7.03413">
        <ele>1198.3</ele>
        <time>2021-08-07T09:24:13Z</time>
      </trkpt>
      <trkpt lat="47.9654" lon="7.03415">
        <ele>1198.5</ele>
        <time>2021-08-07T09:24:15Z</time>
      </trkpt>
      <trkpt lat="47.96539" lon="7.03416">
        <ele>1198.6</ele>
        <time>2021-08-07T09:24:16Z</time>
      </trkpt>
      <trkpt lat="47.96537" lon="7.03418">
        <ele>1198.9</ele>
        <time>2021-08-07T09:24:18Z</time>
      </trkpt>
      <trkpt lat="47.96535" lon="7.0342">
        <ele>1199.1</ele>
        <time>2021-08-07T09:24:19Z</time>
      </trkpt>
      <trkpt lat="47.96534" lon="7.03421">
        <ele>1199.2</ele>
        <time>2021-08-07T09:24:21Z</time>
      </trkpt>
      <trkpt lat="47.96534" lon="7.03422">
        <ele>1199.2</ele>
        <time>2021-08-07T09:24:22Z</time>
      </trkpt>
      <trkpt lat="47.96532" lon="7.03422">
        <ele>1199.4</ele>
        <time>2021-08-07T09:24:23Z</time>
      </trkpt>
      <trkpt lat="47.9653" lon="7.03422">
        <ele>1199.6</ele>
        <time>2021-08-07T09:24:25Z</time>
      </trkpt>
      <trkpt lat="47.96529" lon="7.03423">
        <ele>1199.6</ele>
        <time>2021-08-07T09:24:26Z</time>
      </trkpt>
      <trkpt lat="47.96528" lon="7.03424">
        <ele>1199.8</ele>
        <time>2021-08-07T09:24:28Z</time>
      </trkpt>
      <trkpt lat="47.96529" lon="7.03424">
        <ele>1199.8</ele>
        <time>2021-08-07T09:24:30Z</time>
      </trkpt>
      <trkpt lat="47.96527" lon="7.03425">
        <ele>1200</ele>
        <time>2021-08-07T09:24:31Z</time>
      </trkpt>
      <trkpt lat="47.96525" lon="7.03426">
        <ele>1200.2</ele>
        <time>2021-08-07T09:24:33Z</time>
      </trkpt>
      <trkpt lat="47.96523" lon="7.03428">
        <ele>1200.4</ele>
        <time>2021-08-07T09:24:34Z</time>
      </trkpt>
      <trkpt lat="47.96522" lon="7.0343">
        <ele>1200.5</ele>
        <time>2021-08-07T09:24:36Z</time>
      </trkpt>
      <trkpt lat="47.9652" lon="7.03431">
        <ele>1200.7</ele>
        <time>2021-08-07T09:24:37Z</time>
      </trkpt>
      <trkpt lat="47.96519" lon="7.03432">
        <ele>1200.9</ele>
        <time>2021-08-07T09:24:38Z</time>
      </trkpt>
      <trkpt lat="47.96517" lon="7.03433">
        <ele>1201</ele>
        <time>2021-08-07T09:24:39Z</time>
      </trkpt>
      <trkpt lat="47.96516" lon="7.03434">
        <ele>1201.1</ele>
        <time>2021-08-07T09:24:41Z</time>
      </trkpt>
      <trkpt lat="47.96516" lon="7.03434">
        <ele>1201.2</ele>
        <time>2021-08-07T09:24:42Z</time>
      </trkpt>
      <trkpt lat="47.96515" lon="7.03435">
        <ele>1201.3</ele>
        <time>2021-08-07T09:24:43Z</time>
      </trkpt>
      <trkpt lat="47.96514" lon="7.03436">
        <ele>1201.4</ele>
        <time>2021-08-07T09:24:44Z</time>
      </trkpt>
      <trkpt lat="47.96512" lon="7.03437">
        <ele>1201.6</ele>
        <time>2021-08-07T09:24:46Z</time>
      </trkpt>
      <trkpt lat="47.9651" lon="7.03437">
        <ele>1201.7</ele>
        <time>2021-08-07T09:24:47Z</time>
      </trkpt>
      <trkpt lat="47.96508" lon="7.03437">
        <ele>1202</ele>
        <time>2021-08-07T09:24:49Z</time>
      </trkpt>
      <trkpt lat="47.96505" lon="7.03436">
        <ele>1202.2</ele>
        <time>2021-08-07T09:24:50Z</time>
      </trkpt>
      <trkpt lat="47.96504" lon="7.03436">
        <ele>1202.4</ele>
        <time>2021-08-07T09:24:52Z</time>
      </trkpt>
      <trkpt lat="47.96502" lon="7.03435">
        <ele>1202.6</ele>
        <time>2021-08-07T09:24:53Z</time>
      </trkpt>
      <trkpt lat="47.965" lon="7.03435">
        <ele>1202.7</ele>
        <time>2021-08-07T09:24:55Z</time>
      </trkpt>
      <trkpt lat="47.96497" lon="7.03435">
        <ele>1203</ele>
        <time>2021-08-07T09:24:56Z</time>
      </trkpt>
      <trkpt lat="47.96496" lon="7.03435">
        <ele>1203.1</ele>
        <time>2021-08-07T09:24:57Z</time>
      </trkpt>
      <trkpt lat="47.96494" lon="7.03435">
        <ele>1203.3</ele>
        <time>2021-08-07T09:24:59Z</time>
      </trkpt>
      <trkpt lat="47.96492" lon="7.03436">
        <ele>1203.5</ele>
        <time>2021-08-07T09:25:01Z</time>
      </trkpt>
      <trkpt lat="47.9649" lon="7.03437">
        <ele>1203.8</ele>
        <time>2021-08-07T09:25:03Z</time>
      </trkpt>
      <trkpt lat="47.96487" lon="7.03438">
        <ele>1204</ele>
        <time>2021-08-07T09:25:05Z</time>
      </trkpt>
      <trkpt lat="47.96486" lon="7.03439">
        <ele>1204.1</ele>
        <time>2021-08-07T09:25:06Z</time>
      </trkpt>
      <trkpt lat="47.96484" lon="7.0344">
        <ele>1204.3</ele>
        <time>2021-08-07T09:25:08Z</time>
      </trkpt>
      <trkpt lat="47.96483" lon="7.03441">
        <ele>1204.4</ele>
        <time>2021-08-07T09:25:09Z</time>
      </trkpt>
      <trkpt lat="47.96482" lon="7.03442">
        <ele>1204.5</ele>
        <time>2021-08-07T09:25:11Z</time>
      </trkpt>
      <trkpt lat="47.96482" lon="7.03443">
        <ele>1204.6</ele>
        <time>2021-08-07T09:25:12Z</time>
      </trkpt>
      <trkpt lat="47.96481" lon="7.03445">
        <ele>1204.8</ele>
        <time>2021-08-07T09:25:13Z</time>
      </trkpt>
      <trkpt lat="47.9648" lon="7.03447">
        <ele>1204.9</ele>
        <time>2021-08-07T09:25:14Z</time>
      </trkpt>
      <trkpt lat="47.9648" lon="7.03449">
        <ele>1205</ele>
        <time>2021-08-07T09:25:16Z</time>
      </trkpt>
      <trkpt lat="47.96479" lon="7.0345">
        <ele>1205.1</ele>
        <time>2021-08-07T09:25:17Z</time>
      </trkpt>
      <trkpt lat="47.96479" lon="7.03452">
        <ele>1205.3</ele>
        <time>2021-08-07T09:25:18Z</time>
      </trkpt>
      <trkpt lat="47.96478" lon="7.03454">
        <ele>1205.4</ele>
        <time>2021-08-07T09:25:20Z</time>
      </trkpt>
      <trkpt lat="47.96477" lon="7.03455">
        <ele>1205.5</ele>
        <time>2021-08-07T09:25:21Z</time>
      </trkpt>
      <trkpt lat="47.96477" lon="7.03456">
        <ele>1205.6</ele>
        <time>2021-08-07T09:25:22Z</time>
      </trkpt>
      <trkpt lat="47.96476" lon="7.03457">
        <ele>1205.7</ele>
        <time>2021-08-07T09:25:23Z</time>
      </trkpt>
      <trkpt lat="47.96475" lon="7.03458">
        <ele>1205.8</ele>
        <time>2021-08-07T09:25:25Z</time>
      </trkpt>
      <trkpt lat="47.96474" lon="7.03459">
        <ele>1205.9</ele>
        <time>2021-08-07T09:25:26Z</time>
      </trkpt>
      <trkpt lat="47.96472" lon="7.03459">
        <ele>1206.1</ele>
        <time>2021-08-07T09:25:28Z</time>
      </trkpt>
      <trkpt lat="47.9647" lon="7.03459">
        <ele>1206.3</ele>
        <time>2021-08-07T09:25:29Z</time>
      </trkpt>
      <trkpt lat="47.96467" lon="7.0346">
        <ele>1206.6</ele>
        <time>2021-08-07T09:25:31Z</time>
      </trkpt>
      <trkpt lat="47.96464" lon="7.03462">
        <ele>1206.9</ele>
        <time>2021-08-07T09:25:32Z</time>
      </trkpt>
      <trkpt lat="47.96463" lon="7.03463">
        <ele>1207</ele>
        <time>2021-08-07T09:25:33Z</time>
      </trkpt>
      <trkpt lat="47.9646" lon="7.03465">
        <ele>1207.3</ele>
        <time>2021-08-07T09:25:36Z</time>
      </trkpt>
      <trkpt lat="47.96458" lon="7.03466">
        <ele>1207.5</ele>
        <time>2021-08-07T09:25:37Z</time>
      </trkpt>
      <trkpt lat="47.96455" lon="7.03469">
        <ele>1207.8</ele>
        <time>2021-08-07T09:25:39Z</time>
      </trkpt>
      <trkpt lat="47.96455" lon="7.0347">
        <ele>1207.9</ele>
        <time>2021-08-07T09:25:40Z</time>
      </trkpt>
      <trkpt lat="47.96452" lon="7.03472">
        <ele>1208.2</ele>
        <time>2021-08-07T09:25:42Z</time>
      </trkpt>
      <trkpt lat="47.9645" lon="7.03472">
        <ele>1208.4</ele>
        <time>2021-08-07T09:25:43Z</time>
      </trkpt>
      <trkpt lat="47.96447" lon="7.03472">
        <ele>1208.8</ele>
        <time>2021-08-07T09:25:45Z</time>
      </trkpt>
      <trkpt lat="47.96446" lon="7.03472">
        <ele>1208.8</ele>
        <time>2021-08-07T09:25:46Z</time>
      </trkpt>
      <trkpt lat="47.96445" lon="7.03472">
        <ele>1208.9</ele>
        <time>2021-08-07T09:25:47Z</time>
      </trkpt>
      <trkpt lat="47.96444" lon="7.03474">
        <ele>1209.1</ele>
        <time>2021-08-07T09:25:49Z</time>
      </trkpt>
      <trkpt lat="47.96442" lon="7.03476">
        <ele>1209.4</ele>
        <time>2021-08-07T09:25:51Z</time>
      </trkpt>
      <trkpt lat="47.96441" lon="7.03478">
        <ele>1209.6</ele>
        <time>2021-08-07T09:25:52Z</time>
      </trkpt>
      <trkpt lat="47.9642" lon="7.03518">
        <ele>1213.4</ele>
        <time>2021-08-07T09:26:27Z</time>
      </trkpt>
      <trkpt lat="47.96416" lon="7.0352">
        <ele>1213.8</ele>
        <time>2021-08-07T09:26:28Z</time>
      </trkpt>
      <trkpt lat="47.96413" lon="7.03522">
        <ele>1214.1</ele>
        <time>2021-08-07T09:26:29Z</time>
      </trkpt>
      <trkpt lat="47.96413" lon="7.03523">
        <ele>1214.2</ele>
        <time>2021-08-07T09:26:30Z</time>
      </trkpt>
      <trkpt lat="47.9641" lon="7.03528">
        <ele>1214.7</ele>
        <time>2021-08-07T09:26:31Z</time>
      </trkpt>
      <trkpt lat="47.96409" lon="7.0353">
        <ele>1214.8</ele>
        <time>2021-08-07T09:26:32Z</time>
      </trkpt>
      <trkpt lat="47.96408" lon="7.03532">
        <ele>1215</ele>
        <time>2021-08-07T09:26:33Z</time>
      </trkpt>
      <trkpt lat="47.96406" lon="7.03534">
        <ele>1215.2</ele>
        <time>2021-08-07T09:26:34Z</time>
      </trkpt>
      <trkpt lat="47.96405" lon="7.03536">
        <ele>1215.4</ele>
        <time>2021-08-07T09:26:35Z</time>
      </trkpt>
      <trkpt lat="47.96404" lon="7.03538">
        <ele>1215.6</ele>
        <time>2021-08-07T09:26:37Z</time>
      </trkpt>
      <trkpt lat="47.96404" lon="7.0354">
        <ele>1215.7</ele>
        <time>2021-08-07T09:26:38Z</time>
      </trkpt>
      <trkpt lat="47.96402" lon="7.03541">
        <ele>1215.9</ele>
        <time>2021-08-07T09:26:40Z</time>
      </trkpt>
      <trkpt lat="47.96401" lon="7.03542">
        <ele>1216</ele>
        <time>2021-08-07T09:26:41Z</time>
      </trkpt>
      <trkpt lat="47.964" lon="7.03543">
        <ele>1216.2</ele>
        <time>2021-08-07T09:26:43Z</time>
      </trkpt>
      <trkpt lat="47.96399" lon="7.03543">
        <ele>1216.3</ele>
        <time>2021-08-07T09:26:44Z</time>
      </trkpt>
      <trkpt lat="47.96399" lon="7.03542">
        <ele>1216.3</ele>
        <time>2021-08-07T09:26:45Z</time>
      </trkpt>
      <trkpt lat="47.96398" lon="7.03542">
        <ele>1216.4</ele>
        <time>2021-08-07T09:26:46Z</time>
      </trkpt>
      <trkpt lat="47.96397" lon="7.03542">
        <ele>1216.5</ele>
        <time>2021-08-07T09:26:47Z</time>
      </trkpt>
      <trkpt lat="47.96397" lon="7.03542">
        <ele>1216.6</ele>
        <time>2021-08-07T09:26:48Z</time>
      </trkpt>
      <trkpt lat="47.96396" lon="7.03543">
        <ele>1216.7</ele>
        <time>2021-08-07T09:26:50Z</time>
      </trkpt>
      <trkpt lat="47.96396" lon="7.03544">
        <ele>1216.7</ele>
        <time>2021-08-07T09:26:51Z</time>
      </trkpt>
      <trkpt lat="47.96394" lon="7.03546">
        <ele>1216.9</ele>
        <time>2021-08-07T09:26:53Z</time>
      </trkpt>
      <trkpt lat="47.96391" lon="7.03549">
        <ele>1217.4</ele>
        <time>2021-08-07T09:26:56Z</time>
      </trkpt>
      <trkpt lat="47.96388" lon="7.03551">
        <ele>1217.7</ele>
        <time>2021-08-07T09:26:57Z</time>
      </trkpt>
      <trkpt lat="47.96385" lon="7.03557">
        <ele>1218.2</ele>
        <time>2021-08-07T09:26:59Z</time>
      </trkpt>
      <trkpt lat="47.96382" lon="7.0356">
        <ele>1218.6</ele>
        <time>2021-08-07T09:27:00Z</time>
      </trkpt>
      <trkpt lat="47.96379" lon="7.03564">
        <ele>1219</ele>
        <time>2021-08-07T09:27:02Z</time>
      </trkpt>
      <trkpt lat="47.96377" lon="7.03565">
        <ele>1219.2</ele>
        <time>2021-08-07T09:27:03Z</time>
      </trkpt>
      <trkpt lat="47.96376" lon="7.03566">
        <ele>1219.4</ele>
        <time>2021-08-07T09:27:04Z</time>
      </trkpt>
      <trkpt lat="47.96375" lon="7.03568">
        <ele>1219.5</ele>
        <time>2021-08-07T09:27:05Z</time>
      </trkpt>
      <trkpt lat="47.96373" lon="7.0357">
        <ele>1219.7</ele>
        <time>2021-08-07T09:27:07Z</time>
      </trkpt>
      <trkpt lat="47.96372" lon="7.03571">
        <ele>1219.9</ele>
        <time>2021-08-07T09:27:08Z</time>
      </trkpt>
      <trkpt lat="47.96371" lon="7.03574">
        <ele>1220.1</ele>
        <time>2021-08-07T09:27:10Z</time>
      </trkpt>
      <trkpt lat="47.9637" lon="7.03576">
        <ele>1220.3</ele>
        <time>2021-08-07T09:27:12Z</time>
      </trkpt>
      <trkpt lat="47.96369" lon="7.03581">
        <ele>1220.6</ele>
        <time>2021-08-07T09:27:14Z</time>
      </trkpt>
      <trkpt lat="47.96369" lon="7.03582">
        <ele>1220.7</ele>
        <time>2021-08-07T09:27:15Z</time>
      </trkpt>
      <trkpt lat="47.96368" lon="7.03584">
        <ele>1220.9</ele>
        <time>2021-08-07T09:27:17Z</time>
      </trkpt>
      <trkpt lat="47.96367" lon="7.03585">
        <ele>1221</ele>
        <time>2021-08-07T09:27:18Z</time>
      </trkpt>
      <trkpt lat="47.96367" lon="7.03585">
        <ele>1221</ele>
        <time>2021-08-07T09:27:19Z</time>
      </trkpt>
      <trkpt lat="47.96367" lon="7.03586">
        <ele>1221.1</ele>
        <time>2021-08-07T09:27:20Z</time>
      </trkpt>
      <trkpt lat="47.96365" lon="7.03588">
        <ele>1221.3</ele>
        <time>2021-08-07T09:27:21Z</time>
      </trkpt>
      <trkpt lat="47.96365" lon="7.0359">
        <ele>1221.4</ele>
        <time>2021-08-07T09:27:22Z</time>
      </trkpt>
      <trkpt lat="47.96363" lon="7.03593">
        <ele>1221.7</ele>
        <time>2021-08-07T09:27:24Z</time>
      </trkpt>
      <trkpt lat="47.96362" lon="7.03594">
        <ele>1221.9</ele>
        <time>2021-08-07T09:27:25Z</time>
      </trkpt>
      <trkpt lat="47.9636" lon="7.03596">
        <ele>1222.1</ele>
        <time>2021-08-07T09:27:27Z</time>
      </trkpt>
      <trkpt lat="47.96359" lon="7.03597">
        <ele>1222.2</ele>
        <time>2021-08-07T09:27:28Z</time>
      </trkpt>
      <trkpt lat="47.96357" lon="7.03598">
        <ele>1222.5</ele>
        <time>2021-08-07T09:27:29Z</time>
      </trkpt>
      <trkpt lat="47.96355" lon="7.03599">
        <ele>1222.7</ele>
        <time>2021-08-07T09:27:31Z</time>
      </trkpt>
      <trkpt lat="47.96354" lon="7.036">
        <ele>1222.9</ele>
        <time>2021-08-07T09:27:32Z</time>
      </trkpt>
      <trkpt lat="47.96352" lon="7.03602">
        <ele>1223.1</ele>
        <time>2021-08-07T09:27:33Z</time>
      </trkpt>
      <trkpt lat="47.96352" lon="7.03604">
        <ele>1223.2</ele>
        <time>2021-08-07T09:27:34Z</time>
      </trkpt>
      <trkpt lat="47.96351" lon="7.03608">
        <ele>1223.5</ele>
        <time>2021-08-07T09:27:36Z</time>
      </trkpt>
      <trkpt lat="47.9635" lon="7.03611">
        <ele>1223.7</ele>
        <time>2021-08-07T09:27:37Z</time>
      </trkpt>
      <trkpt lat="47.9635" lon="7.03613">
        <ele>1223.9</ele>
        <time>2021-08-07T09:27:38Z</time>
      </trkpt>
      <trkpt lat="47.96349" lon="7.03615">
        <ele>1224</ele>
        <time>2021-08-07T09:27:39Z</time>
      </trkpt>
      <trkpt lat="47.96348" lon="7.03616">
        <ele>1224.2</ele>
        <time>2021-08-07T09:27:40Z</time>
      </trkpt>
      <trkpt lat="47.96347" lon="7.03617">
        <ele>1224.3</ele>
        <time>2021-08-07T09:27:41Z</time>
      </trkpt>
      <trkpt lat="47.96346" lon="7.03619">
        <ele>1224.5</ele>
        <time>2021-08-07T09:27:43Z</time>
      </trkpt>
      <trkpt lat="47.96344" lon="7.0362">
        <ele>1224.7</ele>
        <time>2021-08-07T09:27:45Z</time>
      </trkpt>
      <trkpt lat="47.96344" lon="7.03622">
        <ele>1224.8</ele>
        <time>2021-08-07T09:27:46Z</time>
      </trkpt>
      <trkpt lat="47.96343" lon="7.03624">
        <ele>1225</ele>
        <time>2021-08-07T09:27:48Z</time>
      </trkpt>
      <trkpt lat="47.96341" lon="7.03627">
        <ele>1225.2</ele>
        <time>2021-08-07T09:27:50Z</time>
      </trkpt>
      <trkpt lat="47.96341" lon="7.03628">
        <ele>1225.3</ele>
        <time>2021-08-07T09:27:51Z</time>
      </trkpt>
      <trkpt lat="47.9634" lon="7.03629">
        <ele>1225.4</ele>
        <time>2021-08-07T09:27:52Z</time>
      </trkpt>
      <trkpt lat="47.96339" lon="7.03631">
        <ele>1225.6</ele>
        <time>2021-08-07T09:27:53Z</time>
      </trkpt>
      <trkpt lat="47.96338" lon="7.03632">
        <ele>1225.7</ele>
        <time>2021-08-07T09:27:54Z</time>
      </trkpt>
      <trkpt lat="47.96336" lon="7.03635">
        <ele>1225.9</ele>
        <time>2021-08-07T09:27:56Z</time>
      </trkpt>
      <trkpt lat="47.96335" lon="7.03637">
        <ele>1226.1</ele>
        <time>2021-08-07T09:27:57Z</time>
      </trkpt>
      <trkpt lat="47.96335" lon="7.03639">
        <ele>1226.2</ele>
        <time>2021-08-07T09:27:58Z</time>
      </trkpt>
      <trkpt lat="47.96334" lon="7.03641">
        <ele>1226.4</ele>
        <time>2021-08-07T09:27:59Z</time>
      </trkpt>
      <trkpt lat="47.96334" lon="7.03645">
        <ele>1226.6</ele>
        <time>2021-08-07T09:28:01Z</time>
      </trkpt>
      <trkpt lat="47.96334" lon="7.03648">
        <ele>1226.8</ele>
        <time>2021-08-07T09:28:02Z</time>
      </trkpt>
      <trkpt lat="47.96333" lon="7.03651">
        <ele>1227</ele>
        <time>2021-08-07T09:28:04Z</time>
      </trkpt>
      <trkpt lat="47.96332" lon="7.03653">
        <ele>1227.2</ele>
        <time>2021-08-07T09:28:06Z</time>
      </trkpt>
      <trkpt lat="47.96332" lon="7.03656">
        <ele>1227.4</ele>
        <time>2021-08-07T09:28:07Z</time>
      </trkpt>
      <trkpt lat="47.9633" lon="7.03661">
        <ele>1227.7</ele>
        <time>2021-08-07T09:28:09Z</time>
      </trkpt>
      <trkpt lat="47.9633" lon="7.03662">
        <ele>1227.7</ele>
        <time>2021-08-07T09:28:10Z</time>
      </trkpt>
      <trkpt lat="47.96329" lon="7.03664">
        <ele>1227.9</ele>
        <time>2021-08-07T09:28:12Z</time>
      </trkpt>
      <trkpt lat="47.96329" lon="7.03667">
        <ele>1228</ele>
        <time>2021-08-07T09:28:13Z</time>
      </trkpt>
      <trkpt lat="47.96329" lon="7.0367">
        <ele>1228.2</ele>
        <time>2021-08-07T09:28:15Z</time>
      </trkpt>
      <trkpt lat="47.96328" lon="7.03671">
        <ele>1228.3</ele>
        <time>2021-08-07T09:28:16Z</time>
      </trkpt>
      <trkpt lat="47.96327" lon="7.03674">
        <ele>1228.5</ele>
        <time>2021-08-07T09:28:18Z</time>
      </trkpt>
      <trkpt lat="47.96327" lon="7.03676">
        <ele>1228.6</ele>
        <time>2021-08-07T09:28:20Z</time>
      </trkpt>
      <trkpt lat="47.96326" lon="7.03679">
        <ele>1228.9</ele>
        <time>2021-08-07T09:28:21Z</time>
      </trkpt>
      <trkpt lat="47.96326" lon="7.0368">
        <ele>1228.9</ele>
        <time>2021-08-07T09:28:22Z</time>
      </trkpt>
      <trkpt lat="47.96325" lon="7.03682">
        <ele>1229</ele>
        <time>2021-08-07T09:28:23Z</time>
      </trkpt>
      <trkpt lat="47.96325" lon="7.03683">
        <ele>1229.1</ele>
        <time>2021-08-07T09:28:25Z</time>
      </trkpt>
      <trkpt lat="47.96324" lon="7.03685">
        <ele>1229.3</ele>
        <time>2021-08-07T09:28:26Z</time>
      </trkpt>
      <trkpt lat="47.96323" lon="7.03688">
        <ele>1229.5</ele>
        <time>2021-08-07T09:28:28Z</time>
      </trkpt>
      <trkpt lat="47.96323" lon="7.03691">
        <ele>1229.7</ele>
        <time>2021-08-07T09:28:30Z</time>
      </trkpt>
      <trkpt lat="47.96323" lon="7.03693">
        <ele>1229.8</ele>
        <time>2021-08-07T09:28:31Z</time>
      </trkpt>
      <trkpt lat="47.96322" lon="7.03695">
        <ele>1229.9</ele>
        <time>2021-08-07T09:28:32Z</time>
      </trkpt>
      <trkpt lat="47.96321" lon="7.03697">
        <ele>1230.1</ele>
        <time>2021-08-07T09:28:34Z</time>
      </trkpt>
      <trkpt lat="47.9632" lon="7.03699">
        <ele>1230.2</ele>
        <time>2021-08-07T09:28:35Z</time>
      </trkpt>
      <trkpt lat="47.96318" lon="7.03702">
        <ele>1230.5</ele>
        <time>2021-08-07T09:28:37Z</time>
      </trkpt>
      <trkpt lat="47.96318" lon="7.03704">
        <ele>1230.6</ele>
        <time>2021-08-07T09:28:38Z</time>
      </trkpt>
      <trkpt lat="47.96315" lon="7.03706">
        <ele>1230.9</ele>
        <time>2021-08-07T09:28:40Z</time>
      </trkpt>
      <trkpt lat="47.96312" lon="7.03709">
        <ele>1231.2</ele>
        <time>2021-08-07T09:28:42Z</time>
      </trkpt>
      <trkpt lat="47.96312" lon="7.03709">
        <ele>1231.2</ele>
        <time>2021-08-07T09:28:43Z</time>
      </trkpt>
      <trkpt lat="47.96309" lon="7.03711">
        <ele>1231.5</ele>
        <time>2021-08-07T09:28:44Z</time>
      </trkpt>
      <trkpt lat="47.96308" lon="7.03712">
        <ele>1231.6</ele>
        <time>2021-08-07T09:28:45Z</time>
      </trkpt>
      <trkpt lat="47.96307" lon="7.03713">
        <ele>1231.8</ele>
        <time>2021-08-07T09:28:46Z</time>
      </trkpt>
      <trkpt lat="47.96305" lon="7.03715">
        <ele>1232</ele>
        <time>2021-08-07T09:28:48Z</time>
      </trkpt>
      <trkpt lat="47.96304" lon="7.03716">
        <ele>1232.1</ele>
        <time>2021-08-07T09:28:49Z</time>
      </trkpt>
      <trkpt lat="47.96302" lon="7.03718">
        <ele>1232.3</ele>
        <time>2021-08-07T09:28:51Z</time>
      </trkpt>
      <trkpt lat="47.963" lon="7.03719">
        <ele>1232.5</ele>
        <time>2021-08-07T09:28:52Z</time>
      </trkpt>
      <trkpt lat="47.96298" lon="7.03721">
        <ele>1232.7</ele>
        <time>2021-08-07T09:28:54Z</time>
      </trkpt>
      <trkpt lat="47.96295" lon="7.03721">
        <ele>1232.9</ele>
        <time>2021-08-07T09:28:55Z</time>
      </trkpt>
      <trkpt lat="47.96293" lon="7.03721">
        <ele>1233</ele>
        <time>2021-08-07T09:28:56Z</time>
      </trkpt>
      <trkpt lat="47.9629" lon="7.03721">
        <ele>1233.3</ele>
        <time>2021-08-07T09:28:58Z</time>
      </trkpt>
      <trkpt lat="47.96289" lon="7.03721">
        <ele>1233.4</ele>
        <time>2021-08-07T09:28:59Z</time>
      </trkpt>
      <trkpt lat="47.96286" lon="7.03721">
        <ele>1233.6</ele>
        <time>2021-08-07T09:29:00Z</time>
      </trkpt>
      <trkpt lat="47.96284" lon="7.03721">
        <ele>1233.7</ele>
        <time>2021-08-07T09:29:02Z</time>
      </trkpt>
      <trkpt lat="47.96281" lon="7.03721">
        <ele>1233.9</ele>
        <time>2021-08-07T09:29:03Z</time>
      </trkpt>
      <trkpt lat="47.96278" lon="7.03721">
        <ele>1234.1</ele>
        <time>2021-08-07T09:29:05Z</time>
      </trkpt>
      <trkpt lat="47.96274" lon="7.0372">
        <ele>1234.4</ele>
        <time>2021-08-07T09:29:07Z</time>
      </trkpt>
      <trkpt lat="47.96272" lon="7.03721">
        <ele>1234.5</ele>
        <time>2021-08-07T09:29:08Z</time>
      </trkpt>
      <trkpt lat="47.96269" lon="7.03721">
        <ele>1234.7</ele>
        <time>2021-08-07T09:29:09Z</time>
      </trkpt>
      <trkpt lat="47.96266" lon="7.03721">
        <ele>1234.8</ele>
        <time>2021-08-07T09:29:11Z</time>
      </trkpt>
      <trkpt lat="47.96263" lon="7.03721">
        <ele>1235</ele>
        <time>2021-08-07T09:29:12Z</time>
      </trkpt>
      <trkpt lat="47.96262" lon="7.03721">
        <ele>1235</ele>
        <time>2021-08-07T09:29:13Z</time>
      </trkpt>
      <trkpt lat="47.96258" lon="7.03721">
        <ele>1235.2</ele>
        <time>2021-08-07T09:29:15Z</time>
      </trkpt>
      <trkpt lat="47.96255" lon="7.0372">
        <ele>1235.4</ele>
        <time>2021-08-07T09:29:17Z</time>
      </trkpt>
      <trkpt lat="47.96252" lon="7.0372">
        <ele>1235.5</ele>
        <time>2021-08-07T09:29:19Z</time>
      </trkpt>
      <trkpt lat="47.96249" lon="7.03719">
        <ele>1235.7</ele>
        <time>2021-08-07T09:29:20Z</time>
      </trkpt>
      <trkpt lat="47.96246" lon="7.03719">
        <ele>1235.8</ele>
        <time>2021-08-07T09:29:21Z</time>
      </trkpt>
      <trkpt lat="47.96244" lon="7.03719">
        <ele>1235.9</ele>
        <time>2021-08-07T09:29:22Z</time>
      </trkpt>
      <trkpt lat="47.96242" lon="7.03719">
        <ele>1235.9</ele>
        <time>2021-08-07T09:29:23Z</time>
      </trkpt>
      <trkpt lat="47.9624" lon="7.03719">
        <ele>1236</ele>
        <time>2021-08-07T09:29:25Z</time>
      </trkpt>
      <trkpt lat="47.96236" lon="7.03719">
        <ele>1236.2</ele>
        <time>2021-08-07T09:29:26Z</time>
      </trkpt>
      <trkpt lat="47.96235" lon="7.03719">
        <ele>1236.2</ele>
        <time>2021-08-07T09:29:27Z</time>
      </trkpt>
      <trkpt lat="47.96231" lon="7.03718">
        <ele>1236.4</ele>
        <time>2021-08-07T09:29:29Z</time>
      </trkpt>
      <trkpt lat="47.96227" lon="7.03718">
        <ele>1236.5</ele>
        <time>2021-08-07T09:29:31Z</time>
      </trkpt>
      <trkpt lat="47.96223" lon="7.03718">
        <ele>1236.7</ele>
        <time>2021-08-07T09:29:32Z</time>
      </trkpt>
      <trkpt lat="47.96222" lon="7.03717">
        <ele>1236.7</ele>
        <time>2021-08-07T09:29:33Z</time>
      </trkpt>
      <trkpt lat="47.96218" lon="7.03716">
        <ele>1236.8</ele>
        <time>2021-08-07T09:29:35Z</time>
      </trkpt>
      <trkpt lat="47.96214" lon="7.03716">
        <ele>1237</ele>
        <time>2021-08-07T09:29:37Z</time>
      </trkpt>
      <trkpt lat="47.9621" lon="7.03717">
        <ele>1237.2</ele>
        <time>2021-08-07T09:29:39Z</time>
      </trkpt>
      <trkpt lat="47.96205" lon="7.03718">
        <ele>1237.4</ele>
        <time>2021-08-07T09:29:40Z</time>
      </trkpt>
      <trkpt lat="47.96202" lon="7.0372">
        <ele>1237.5</ele>
        <time>2021-08-07T09:29:42Z</time>
      </trkpt>
      <trkpt lat="47.96198" lon="7.0372">
        <ele>1237.7</ele>
        <time>2021-08-07T09:29:43Z</time>
      </trkpt>
      <trkpt lat="47.96194" lon="7.03721">
        <ele>1237.9</ele>
        <time>2021-08-07T09:29:45Z</time>
      </trkpt>
      <trkpt lat="47.96192" lon="7.03722">
        <ele>1237.9</ele>
        <time>2021-08-07T09:29:46Z</time>
      </trkpt>
      <trkpt lat="47.96191" lon="7.03722">
        <ele>1238</ele>
        <time>2021-08-07T09:29:47Z</time>
      </trkpt>
      <trkpt lat="47.96188" lon="7.03722">
        <ele>1238.1</ele>
        <time>2021-08-07T09:29:48Z</time>
      </trkpt>
      <trkpt lat="47.96186" lon="7.03722">
        <ele>1238.2</ele>
        <time>2021-08-07T09:29:50Z</time>
      </trkpt>
      <trkpt lat="47.96183" lon="7.03723">
        <ele>1238.3</ele>
        <time>2021-08-07T09:29:51Z</time>
      </trkpt>
      <trkpt lat="47.9618" lon="7.03724">
        <ele>1238.4</ele>
        <time>2021-08-07T09:29:52Z</time>
      </trkpt>
      <trkpt lat="47.96179" lon="7.03724">
        <ele>1238.5</ele>
        <time>2021-08-07T09:29:53Z</time>
      </trkpt>
      <trkpt lat="47.96175" lon="7.03723">
        <ele>1238.6</ele>
        <time>2021-08-07T09:29:55Z</time>
      </trkpt>
      <trkpt lat="47.96173" lon="7.03723">
        <ele>1238.7</ele>
        <time>2021-08-07T09:29:56Z</time>
      </trkpt>
      <trkpt lat="47.96172" lon="7.03723">
        <ele>1238.7</ele>
        <time>2021-08-07T09:29:57Z</time>
      </trkpt>
      <trkpt lat="47.9617" lon="7.03724">
        <ele>1238.8</ele>
        <time>2021-08-07T09:29:58Z</time>
      </trkpt>
      <trkpt lat="47.96168" lon="7.03725">
        <ele>1238.9</ele>
        <time>2021-08-07T09:30:00Z</time>
      </trkpt>
      <trkpt lat="47.96165" lon="7.03727">
        <ele>1239</ele>
        <time>2021-08-07T09:30:01Z</time>
      </trkpt>
      <trkpt lat="47.96164" lon="7.03728">
        <ele>1239.1</ele>
        <time>2021-08-07T09:30:02Z</time>
      </trkpt>
      <trkpt lat="47.96159" lon="7.0373">
        <ele>1239.2</ele>
        <time>2021-08-07T09:30:04Z</time>
      </trkpt>
      <trkpt lat="47.96157" lon="7.0373">
        <ele>1239.3</ele>
        <time>2021-08-07T09:30:06Z</time>
      </trkpt>
      <trkpt lat="47.96155" lon="7.0373">
        <ele>1239.4</ele>
        <time>2021-08-07T09:30:07Z</time>
      </trkpt>
      <trkpt lat="47.96153" lon="7.0373">
        <ele>1239.5</ele>
        <time>2021-08-07T09:30:08Z</time>
      </trkpt>
      <trkpt lat="47.96148" lon="7.0373">
        <ele>1239.6</ele>
        <time>2021-08-07T09:30:10Z</time>
      </trkpt>
      <trkpt lat="47.96145" lon="7.03731">
        <ele>1239.7</ele>
        <time>2021-08-07T09:30:11Z</time>
      </trkpt>
      <trkpt lat="47.96144" lon="7.03731">
        <ele>1239.8</ele>
        <time>2021-08-07T09:30:12Z</time>
      </trkpt>
      <trkpt lat="47.9614" lon="7.03732">
        <ele>1239.9</ele>
        <time>2021-08-07T09:30:14Z</time>
      </trkpt>
      <trkpt lat="47.96137" lon="7.03733">
        <ele>1240</ele>
        <time>2021-08-07T09:30:15Z</time>
      </trkpt>
      <trkpt lat="47.96136" lon="7.03733">
        <ele>1240</ele>
        <time>2021-08-07T09:30:16Z</time>
      </trkpt>
      <trkpt lat="47.96134" lon="7.03732">
        <ele>1240.1</ele>
        <time>2021-08-07T09:30:17Z</time>
      </trkpt>
      <trkpt lat="47.96132" lon="7.03732">
        <ele>1240.1</ele>
        <time>2021-08-07T09:30:18Z</time>
      </trkpt>
      <trkpt lat="47.9613" lon="7.03732">
        <ele>1240.2</ele>
        <time>2021-08-07T09:30:19Z</time>
      </trkpt>
      <trkpt lat="47.96126" lon="7.03732">
        <ele>1240.3</ele>
        <time>2021-08-07T09:30:21Z</time>
      </trkpt>
      <trkpt lat="47.96123" lon="7.03731">
        <ele>1240.4</ele>
        <time>2021-08-07T09:30:22Z</time>
      </trkpt>
      <trkpt lat="47.96122" lon="7.03731">
        <ele>1240.4</ele>
        <time>2021-08-07T09:30:23Z</time>
      </trkpt>
      <trkpt lat="47.96117" lon="7.03731">
        <ele>1240.6</ele>
        <time>2021-08-07T09:30:25Z</time>
      </trkpt>
      <trkpt lat="47.96115" lon="7.03731">
        <ele>1240.6</ele>
        <time>2021-08-07T09:30:26Z</time>
      </trkpt>
      <trkpt lat="47.96114" lon="7.03731">
        <ele>1240.7</ele>
        <time>2021-08-07T09:30:27Z</time>
      </trkpt>
      <trkpt lat="47.9611" lon="7.03731">
        <ele>1240.8</ele>
        <time>2021-08-07T09:30:28Z</time>
      </trkpt>
      <trkpt lat="47.96107" lon="7.03732">
        <ele>1240.8</ele>
        <time>2021-08-07T09:30:29Z</time>
      </trkpt>
      <trkpt lat="47.96103" lon="7.03732">
        <ele>1241</ele>
        <time>2021-08-07T09:30:30Z</time>
      </trkpt>
      <trkpt lat="47.96102" lon="7.03732">
        <ele>1241</ele>
        <time>2021-08-07T09:30:31Z</time>
      </trkpt>
      <trkpt lat="47.96096" lon="7.03731">
        <ele>1241.1</ele>
        <time>2021-08-07T09:30:33Z</time>
      </trkpt>
      <trkpt lat="47.96092" lon="7.03732">
        <ele>1241.2</ele>
        <time>2021-08-07T09:30:34Z</time>
      </trkpt>
      <trkpt lat="47.96091" lon="7.03732">
        <ele>1241.2</ele>
        <time>2021-08-07T09:30:35Z</time>
      </trkpt>
      <trkpt lat="47.96087" lon="7.03732">
        <ele>1241.3</ele>
        <time>2021-08-07T09:30:37Z</time>
      </trkpt>
      <trkpt lat="47.96083" lon="7.03733">
        <ele>1241.4</ele>
        <time>2021-08-07T09:30:38Z</time>
      </trkpt>
      <trkpt lat="47.96082" lon="7.03734">
        <ele>1241.4</ele>
        <time>2021-08-07T09:30:39Z</time>
      </trkpt>
      <trkpt lat="47.96078" lon="7.03735">
        <ele>1241.4</ele>
        <time>2021-08-07T09:30:41Z</time>
      </trkpt>
      <trkpt lat="47.96073" lon="7.03736">
        <ele>1241.4</ele>
        <time>2021-08-07T09:30:43Z</time>
      </trkpt>
      <trkpt lat="47.96069" lon="7.03735">
        <ele>1241.4</ele>
        <time>2021-08-07T09:30:44Z</time>
      </trkpt>
      <trkpt lat="47.96063" lon="7.03735">
        <ele>1241.3</ele>
        <time>2021-08-07T09:30:46Z</time>
      </trkpt>
      <trkpt lat="47.96056" lon="7.03735">
        <ele>1241.1</ele>
        <time>2021-08-07T09:30:48Z</time>
      </trkpt>
      <trkpt lat="47.96051" lon="7.03734">
        <ele>1240.9</ele>
        <time>2021-08-07T09:30:49Z</time>
      </trkpt>
      <trkpt lat="47.96045" lon="7.03734">
        <ele>1240.7</ele>
        <time>2021-08-07T09:30:50Z</time>
      </trkpt>
      <trkpt lat="47.9604" lon="7.03734">
        <ele>1240.4</ele>
        <time>2021-08-07T09:30:51Z</time>
      </trkpt>
      <trkpt lat="47.96033" lon="7.03732">
        <ele>1240.1</ele>
        <time>2021-08-07T09:30:53Z</time>
      </trkpt>
      <trkpt lat="47.96026" lon="7.03731">
        <ele>1239.7</ele>
        <time>2021-08-07T09:30:54Z</time>
      </trkpt>
      <trkpt lat="47.96022" lon="7.03729">
        <ele>1239.4</ele>
        <time>2021-08-07T09:30:55Z</time>
      </trkpt>
      <trkpt lat="47.96013" lon="7.03727">
        <ele>1238.8</ele>
        <time>2021-08-07T09:30:57Z</time>
      </trkpt>
      <trkpt lat="47.96006" lon="7.03723">
        <ele>1238.3</ele>
        <time>2021-08-07T09:30:58Z</time>
      </trkpt>
      <trkpt lat="47.95996" lon="7.03719">
        <ele>1237.6</ele>
        <time>2021-08-07T09:31:00Z</time>
      </trkpt>
      <trkpt lat="47.95992" lon="7.03716">
        <ele>1237.3</ele>
        <time>2021-08-07T09:31:01Z</time>
      </trkpt>
      <trkpt lat="47.95987" lon="7.03713">
        <ele>1236.9</ele>
        <time>2021-08-07T09:31:02Z</time>
      </trkpt>
      <trkpt lat="47.95982" lon="7.0371">
        <ele>1236.5</ele>
        <time>2021-08-07T09:31:04Z</time>
      </trkpt>
      <trkpt lat="47.95979" lon="7.03709">
        <ele>1236.4</ele>
        <time>2021-08-07T09:31:05Z</time>
      </trkpt>
      <trkpt lat="47.95978" lon="7.03709">
        <ele>1236.3</ele>
        <time>2021-08-07T09:31:07Z</time>
      </trkpt>
      <trkpt lat="47.95979" lon="7.0371">
        <ele>1236.3</ele>
        <time>2021-08-07T09:31:08Z</time>
      </trkpt>
      <trkpt lat="47.9598" lon="7.0371">
        <ele>1236.2</ele>
        <time>2021-08-07T09:31:09Z</time>
      </trkpt>
      <trkpt lat="47.95982" lon="7.03713">
        <ele>1236.1</ele>
        <time>2021-08-07T09:31:11Z</time>
      </trkpt>
      <trkpt lat="47.95983" lon="7.03713">
        <ele>1236.1</ele>
        <time>2021-08-07T09:31:12Z</time>
      </trkpt>
      <trkpt lat="47.95985" lon="7.03709">
        <ele>1235.9</ele>
        <time>2021-08-07T09:31:14Z</time>
      </trkpt>
      <trkpt lat="47.95985" lon="7.03708">
        <ele>1235.9</ele>
        <time>2021-08-07T09:31:15Z</time>
      </trkpt>
      <trkpt lat="47.95984" lon="7.03708">
        <ele>1235.8</ele>
        <time>2021-08-07T09:31:17Z</time>
      </trkpt>
      <trkpt lat="47.95984" lon="7.03708">
        <ele>1235.8</ele>
        <time>2021-08-07T09:31:18Z</time>
      </trkpt>
      <trkpt lat="47.95983" lon="7.03709">
        <ele>1235.8</ele>
        <time>2021-08-07T09:31:20Z</time>
      </trkpt>
      <trkpt lat="47.95982" lon="7.03709">
        <ele>1235.8</ele>
        <time>2021-08-07T09:31:21Z</time>
      </trkpt>
      <trkpt lat="47.9598" lon="7.03709">
        <ele>1235.7</ele>
        <time>2021-08-07T09:31:23Z</time>
      </trkpt>
      <trkpt lat="47.95979" lon="7.0371">
        <ele>1235.6</ele>
        <time>2021-08-07T09:31:24Z</time>
      </trkpt>
      <trkpt lat="47.95973" lon="7.03708">
        <ele>1235.4</ele>
        <time>2021-08-07T09:31:27Z</time>
      </trkpt>
      <trkpt lat="47.95966" lon="7.03709">
        <ele>1235.2</ele>
        <time>2021-08-07T09:31:28Z</time>
      </trkpt>
      <trkpt lat="47.95953" lon="7.0371">
        <ele>1234.8</ele>
        <time>2021-08-07T09:31:30Z</time>
      </trkpt>
      <trkpt lat="47.95947" lon="7.0371">
        <ele>1234.7</ele>
        <time>2021-08-07T09:31:31Z</time>
      </trkpt>
      <trkpt lat="47.95935" lon="7.0371">
        <ele>1234.5</ele>
        <time>2021-08-07T09:31:33Z</time>
      </trkpt>
      <trkpt lat="47.95928" lon="7.0371">
        <ele>1234.4</ele>
        <time>2021-08-07T09:31:34Z</time>
      </trkpt>
      <trkpt lat="47.95922" lon="7.03709">
        <ele>1234.4</ele>
        <time>2021-08-07T09:31:35Z</time>
      </trkpt>
      <trkpt lat="47.95917" lon="7.03709">
        <ele>1234.5</ele>
        <time>2021-08-07T09:31:36Z</time>
      </trkpt>
      <trkpt lat="47.9591" lon="7.03708">
        <ele>1234.5</ele>
        <time>2021-08-07T09:31:38Z</time>
      </trkpt>
      <trkpt lat="47.95902" lon="7.03708">
        <ele>1234.6</ele>
        <time>2021-08-07T09:31:39Z</time>
      </trkpt>
      <trkpt lat="47.95894" lon="7.03706">
        <ele>1234.7</ele>
        <time>2021-08-07T09:31:41Z</time>
      </trkpt>
      <trkpt lat="47.95887" lon="7.03705">
        <ele>1234.8</ele>
        <time>2021-08-07T09:31:42Z</time>
      </trkpt>
      <trkpt lat="47.95882" lon="7.03704">
        <ele>1234.9</ele>
        <time>2021-08-07T09:31:43Z</time>
      </trkpt>
      <trkpt lat="47.95877" lon="7.03701">
        <ele>1234.9</ele>
        <time>2021-08-07T09:31:44Z</time>
      </trkpt>
      <trkpt lat="47.95872" lon="7.03699">
        <ele>1234.9</ele>
        <time>2021-08-07T09:31:46Z</time>
      </trkpt>
      <trkpt lat="47.95866" lon="7.03696">
        <ele>1235</ele>
        <time>2021-08-07T09:31:47Z</time>
      </trkpt>
      <trkpt lat="47.95862" lon="7.03693">
        <ele>1235</ele>
        <time>2021-08-07T09:31:48Z</time>
      </trkpt>
      <trkpt lat="47.95858" lon="7.03691">
        <ele>1235</ele>
        <time>2021-08-07T09:31:49Z</time>
      </trkpt>
      <trkpt lat="47.95851" lon="7.03687">
        <ele>1234.9</ele>
        <time>2021-08-07T09:31:51Z</time>
      </trkpt>
      <trkpt lat="47.95846" lon="7.03684">
        <ele>1234.9</ele>
        <time>2021-08-07T09:31:52Z</time>
      </trkpt>
      <trkpt lat="47.95842" lon="7.03683">
        <ele>1234.9</ele>
        <time>2021-08-07T09:31:53Z</time>
      </trkpt>
      <trkpt lat="47.95836" lon="7.03681">
        <ele>1234.9</ele>
        <time>2021-08-07T09:31:54Z</time>
      </trkpt>
      <trkpt lat="47.95832" lon="7.03679">
        <ele>1234.8</ele>
        <time>2021-08-07T09:31:56Z</time>
      </trkpt>
      <trkpt lat="47.95827" lon="7.03677">
        <ele>1234.8</ele>
        <time>2021-08-07T09:31:58Z</time>
      </trkpt>
      <trkpt lat="47.95822" lon="7.03675">
        <ele>1234.8</ele>
        <time>2021-08-07T09:31:59Z</time>
      </trkpt>
      <trkpt lat="47.95818" lon="7.03674">
        <ele>1234.7</ele>
        <time>2021-08-07T09:32:00Z</time>
      </trkpt>
      <trkpt lat="47.95813" lon="7.03672">
        <ele>1234.7</ele>
        <time>2021-08-07T09:32:01Z</time>
      </trkpt>
      <trkpt lat="47.95809" lon="7.03671">
        <ele>1234.7</ele>
        <time>2021-08-07T09:32:02Z</time>
      </trkpt>
      <trkpt lat="47.95805" lon="7.03669">
        <ele>1234.6</ele>
        <time>2021-08-07T09:32:03Z</time>
      </trkpt>
      <trkpt lat="47.95801" lon="7.03668">
        <ele>1234.6</ele>
        <time>2021-08-07T09:32:05Z</time>
      </trkpt>
      <trkpt lat="47.95797" lon="7.03667">
        <ele>1234.6</ele>
        <time>2021-08-07T09:32:06Z</time>
      </trkpt>
      <trkpt lat="47.95793" lon="7.03665">
        <ele>1234.6</ele>
        <time>2021-08-07T09:32:07Z</time>
      </trkpt>
      <trkpt lat="47.9579" lon="7.03664">
        <ele>1234.6</ele>
        <time>2021-08-07T09:32:08Z</time>
      </trkpt>
      <trkpt lat="47.95784" lon="7.03662">
        <ele>1234.5</ele>
        <time>2021-08-07T09:32:09Z</time>
      </trkpt>
      <trkpt lat="47.95781" lon="7.03662">
        <ele>1234.5</ele>
        <time>2021-08-07T09:32:11Z</time>
      </trkpt>
      <trkpt lat="47.95776" lon="7.0366">
        <ele>1234.5</ele>
        <time>2021-08-07T09:32:12Z</time>
      </trkpt>
      <trkpt lat="47.9577" lon="7.03657">
        <ele>1234.5</ele>
        <time>2021-08-07T09:32:14Z</time>
      </trkpt>
      <trkpt lat="47.95765" lon="7.03654">
        <ele>1234.5</ele>
        <time>2021-08-07T09:32:15Z</time>
      </trkpt>
      <trkpt lat="47.9576" lon="7.0365">
        <ele>1234.5</ele>
        <time>2021-08-07T09:32:16Z</time>
      </trkpt>
      <trkpt lat="47.95757" lon="7.03647">
        <ele>1234.5</ele>
        <time>2021-08-07T09:32:18Z</time>
      </trkpt>
      <trkpt lat="47.95753" lon="7.03643">
        <ele>1234.5</ele>
        <time>2021-08-07T09:32:19Z</time>
      </trkpt>
      <trkpt lat="47.95749" lon="7.03641">
        <ele>1234.5</ele>
        <time>2021-08-07T09:32:20Z</time>
      </trkpt>
      <trkpt lat="47.95744" lon="7.03637">
        <ele>1234.6</ele>
        <time>2021-08-07T09:32:21Z</time>
      </trkpt>
      <trkpt lat="47.95738" lon="7.03633">
        <ele>1234.7</ele>
        <time>2021-08-07T09:32:23Z</time>
      </trkpt>
      <trkpt lat="47.95728" lon="7.03627">
        <ele>1234.8</ele>
        <time>2021-08-07T09:32:25Z</time>
      </trkpt>
      <trkpt lat="47.95725" lon="7.03624">
        <ele>1234.9</ele>
        <time>2021-08-07T09:32:26Z</time>
      </trkpt>
      <trkpt lat="47.95718" lon="7.03617">
        <ele>1235</ele>
        <time>2021-08-07T09:32:28Z</time>
      </trkpt>
      <trkpt lat="47.95712" lon="7.03611">
        <ele>1235.1</ele>
        <time>2021-08-07T09:32:29Z</time>
      </trkpt>
      <trkpt lat="47.95706" lon="7.03605">
        <ele>1235.2</ele>
        <time>2021-08-07T09:32:31Z</time>
      </trkpt>
      <trkpt lat="47.95697" lon="7.03599">
        <ele>1235.3</ele>
        <time>2021-08-07T09:32:33Z</time>
      </trkpt>
      <trkpt lat="47.95689" lon="7.03594">
        <ele>1235.4</ele>
        <time>2021-08-07T09:32:35Z</time>
      </trkpt>
      <trkpt lat="47.95683" lon="7.0359">
        <ele>1235.5</ele>
        <time>2021-08-07T09:32:37Z</time>
      </trkpt>
      <trkpt lat="47.95678" lon="7.03586">
        <ele>1235.5</ele>
        <time>2021-08-07T09:32:38Z</time>
      </trkpt>
      <trkpt lat="47.95672" lon="7.0358">
        <ele>1235.6</ele>
        <time>2021-08-07T09:32:40Z</time>
      </trkpt>
      <trkpt lat="47.95669" lon="7.03575">
        <ele>1235.6</ele>
        <time>2021-08-07T09:32:41Z</time>
      </trkpt>
      <trkpt lat="47.95665" lon="7.03571">
        <ele>1235.7</ele>
        <time>2021-08-07T09:32:42Z</time>
      </trkpt>
      <trkpt lat="47.95661" lon="7.03565">
        <ele>1235.7</ele>
        <time>2021-08-07T09:32:43Z</time>
      </trkpt>
      <trkpt lat="47.95658" lon="7.03561">
        <ele>1235.8</ele>
        <time>2021-08-07T09:32:44Z</time>
      </trkpt>
      <trkpt lat="47.95654" lon="7.03556">
        <ele>1235.9</ele>
        <time>2021-08-07T09:32:46Z</time>
      </trkpt>
      <trkpt lat="47.95652" lon="7.03551">
        <ele>1235.9</ele>
        <time>2021-08-07T09:32:47Z</time>
      </trkpt>
      <trkpt lat="47.95649" lon="7.03547">
        <ele>1236</ele>
        <time>2021-08-07T09:32:48Z</time>
      </trkpt>
      <trkpt lat="47.95645" lon="7.03541">
        <ele>1236.1</ele>
        <time>2021-08-07T09:32:50Z</time>
      </trkpt>
      <trkpt lat="47.95641" lon="7.03537">
        <ele>1236.2</ele>
        <time>2021-08-07T09:32:51Z</time>
      </trkpt>
      <trkpt lat="47.95639" lon="7.03533">
        <ele>1236.2</ele>
        <time>2021-08-07T09:32:52Z</time>
      </trkpt>
      <trkpt lat="47.95636" lon="7.0353">
        <ele>1236.3</ele>
        <time>2021-08-07T09:32:53Z</time>
      </trkpt>
      <trkpt lat="47.95632" lon="7.03522">
        <ele>1236.4</ele>
        <time>2021-08-07T09:32:55Z</time>
      </trkpt>
      <trkpt lat="47.95629" lon="7.03514">
        <ele>1236.6</ele>
        <time>2021-08-07T09:32:56Z</time>
      </trkpt>
      <trkpt lat="47.95625" lon="7.03505">
        <ele>1236.7</ele>
        <time>2021-08-07T09:32:58Z</time>
      </trkpt>
      <trkpt lat="47.95623" lon="7.03499">
        <ele>1236.8</ele>
        <time>2021-08-07T09:32:59Z</time>
      </trkpt>
      <trkpt lat="47.95619" lon="7.03489">
        <ele>1237</ele>
        <time>2021-08-07T09:33:01Z</time>
      </trkpt>
      <trkpt lat="47.95616" lon="7.03483">
        <ele>1237.1</ele>
        <time>2021-08-07T09:33:02Z</time>
      </trkpt>
      <trkpt lat="47.95614" lon="7.03476">
        <ele>1237.2</ele>
        <time>2021-08-07T09:33:03Z</time>
      </trkpt>
      <trkpt lat="47.95612" lon="7.03471">
        <ele>1237.2</ele>
        <time>2021-08-07T09:33:04Z</time>
      </trkpt>
      <trkpt lat="47.9561" lon="7.03465">
        <ele>1237.3</ele>
        <time>2021-08-07T09:33:05Z</time>
      </trkpt>
      <trkpt lat="47.95608" lon="7.03459">
        <ele>1237.3</ele>
        <time>2021-08-07T09:33:06Z</time>
      </trkpt>
      <trkpt lat="47.95605" lon="7.0345">
        <ele>1237.4</ele>
        <time>2021-08-07T09:33:07Z</time>
      </trkpt>
      <trkpt lat="47.95604" lon="7.03445">
        <ele>1237.5</ele>
        <time>2021-08-07T09:33:09Z</time>
      </trkpt>
      <trkpt lat="47.95602" lon="7.0344">
        <ele>1237.5</ele>
        <time>2021-08-07T09:33:10Z</time>
      </trkpt>
      <trkpt lat="47.95601" lon="7.03436">
        <ele>1237.6</ele>
        <time>2021-08-07T09:33:11Z</time>
      </trkpt>
      <trkpt lat="47.95599" lon="7.03431">
        <ele>1237.6</ele>
        <time>2021-08-07T09:33:12Z</time>
      </trkpt>
      <trkpt lat="47.95598" lon="7.03426">
        <ele>1237.7</ele>
        <time>2021-08-07T09:33:13Z</time>
      </trkpt>
      <trkpt lat="47.95597" lon="7.03422">
        <ele>1237.7</ele>
        <time>2021-08-07T09:33:14Z</time>
      </trkpt>
      <trkpt lat="47.95593" lon="7.03415">
        <ele>1237.7</ele>
        <time>2021-08-07T09:33:15Z</time>
      </trkpt>
      <trkpt lat="47.95592" lon="7.0341">
        <ele>1237.8</ele>
        <time>2021-08-07T09:33:17Z</time>
      </trkpt>
      <trkpt lat="47.9559" lon="7.03405">
        <ele>1237.8</ele>
        <time>2021-08-07T09:33:18Z</time>
      </trkpt>
      <trkpt lat="47.95588" lon="7.034">
        <ele>1237.8</ele>
        <time>2021-08-07T09:33:19Z</time>
      </trkpt>
      <trkpt lat="47.95586" lon="7.03396">
        <ele>1237.8</ele>
        <time>2021-08-07T09:33:20Z</time>
      </trkpt>
      <trkpt lat="47.95583" lon="7.03391">
        <ele>1237.8</ele>
        <time>2021-08-07T09:33:21Z</time>
      </trkpt>
      <trkpt lat="47.95578" lon="7.03383">
        <ele>1237.7</ele>
        <time>2021-08-07T09:33:23Z</time>
      </trkpt>
      <trkpt lat="47.95575" lon="7.03379">
        <ele>1237.7</ele>
        <time>2021-08-07T09:33:24Z</time>
      </trkpt>
      <trkpt lat="47.95572" lon="7.03374">
        <ele>1237.6</ele>
        <time>2021-08-07T09:33:25Z</time>
      </trkpt>
      <trkpt lat="47.95567" lon="7.03368">
        <ele>1237.5</ele>
        <time>2021-08-07T09:33:27Z</time>
      </trkpt>
      <trkpt lat="47.95563" lon="7.03364">
        <ele>1237.4</ele>
        <time>2021-08-07T09:33:28Z</time>
      </trkpt>
      <trkpt lat="47.95559" lon="7.0336">
        <ele>1237.3</ele>
        <time>2021-08-07T09:33:29Z</time>
      </trkpt>
      <trkpt lat="47.95556" lon="7.03355">
        <ele>1237.2</ele>
        <time>2021-08-07T09:33:30Z</time>
      </trkpt>
      <trkpt lat="47.95551" lon="7.03351">
        <ele>1237.1</ele>
        <time>2021-08-07T09:33:31Z</time>
      </trkpt>
      <trkpt lat="47.95546" lon="7.03347">
        <ele>1237</ele>
        <time>2021-08-07T09:33:33Z</time>
      </trkpt>
      <trkpt lat="47.95542" lon="7.03343">
        <ele>1236.9</ele>
        <time>2021-08-07T09:33:34Z</time>
      </trkpt>
      <trkpt lat="47.95537" lon="7.03339">
        <ele>1236.8</ele>
        <time>2021-08-07T09:33:35Z</time>
      </trkpt>
      <trkpt lat="47.95532" lon="7.03335">
        <ele>1236.6</ele>
        <time>2021-08-07T09:33:36Z</time>
      </trkpt>
      <trkpt lat="47.95525" lon="7.0333">
        <ele>1236.5</ele>
        <time>2021-08-07T09:33:37Z</time>
      </trkpt>
      <trkpt lat="47.95518" lon="7.03327">
        <ele>1236.3</ele>
        <time>2021-08-07T09:33:39Z</time>
      </trkpt>
      <trkpt lat="47.95511" lon="7.03325">
        <ele>1236.2</ele>
        <time>2021-08-07T09:33:40Z</time>
      </trkpt>
      <trkpt lat="47.95506" lon="7.03323">
        <ele>1236.1</ele>
        <time>2021-08-07T09:33:41Z</time>
      </trkpt>
      <trkpt lat="47.95498" lon="7.0332">
        <ele>1235.9</ele>
        <time>2021-08-07T09:33:42Z</time>
      </trkpt>
      <trkpt lat="47.95493" lon="7.03319">
        <ele>1235.8</ele>
        <time>2021-08-07T09:33:43Z</time>
      </trkpt>
      <trkpt lat="47.95488" lon="7.03319">
        <ele>1235.7</ele>
        <time>2021-08-07T09:33:45Z</time>
      </trkpt>
      <trkpt lat="47.95482" lon="7.03319">
        <ele>1235.6</ele>
        <time>2021-08-07T09:33:46Z</time>
      </trkpt>
      <trkpt lat="47.95476" lon="7.03319">
        <ele>1235.5</ele>
        <time>2021-08-07T09:33:47Z</time>
      </trkpt>
      <trkpt lat="47.95471" lon="7.03319">
        <ele>1235.4</ele>
        <time>2021-08-07T09:33:48Z</time>
      </trkpt>
      <trkpt lat="47.9546" lon="7.0332">
        <ele>1235.2</ele>
        <time>2021-08-07T09:33:50Z</time>
      </trkpt>
      <trkpt lat="47.95449" lon="7.03321">
        <ele>1235.1</ele>
        <time>2021-08-07T09:33:52Z</time>
      </trkpt>
      <trkpt lat="47.95444" lon="7.03323">
        <ele>1235</ele>
        <time>2021-08-07T09:33:53Z</time>
      </trkpt>
      <trkpt lat="47.9544" lon="7.03325">
        <ele>1235</ele>
        <time>2021-08-07T09:33:54Z</time>
      </trkpt>
      <trkpt lat="47.9543" lon="7.03329">
        <ele>1234.9</ele>
        <time>2021-08-07T09:33:56Z</time>
      </trkpt>
      <trkpt lat="47.95421" lon="7.03332">
        <ele>1234.9</ele>
        <time>2021-08-07T09:33:58Z</time>
      </trkpt>
      <trkpt lat="47.95416" lon="7.03334">
        <ele>1234.8</ele>
        <time>2021-08-07T09:33:59Z</time>
      </trkpt>
      <trkpt lat="47.95409" lon="7.03338">
        <ele>1234.8</ele>
        <time>2021-08-07T09:34:01Z</time>
      </trkpt>
      <trkpt lat="47.95402" lon="7.0334">
        <ele>1234.7</ele>
        <time>2021-08-07T09:34:03Z</time>
      </trkpt>
      <trkpt lat="47.95393" lon="7.03341">
        <ele>1234.6</ele>
        <time>2021-08-07T09:34:05Z</time>
      </trkpt>
      <trkpt lat="47.95389" lon="7.03342">
        <ele>1234.5</ele>
        <time>2021-08-07T09:34:06Z</time>
      </trkpt>
      <trkpt lat="47.95386" lon="7.03343">
        <ele>1234.5</ele>
        <time>2021-08-07T09:34:07Z</time>
      </trkpt>
      <trkpt lat="47.95382" lon="7.03343">
        <ele>1234.4</ele>
        <time>2021-08-07T09:34:08Z</time>
      </trkpt>
      <trkpt lat="47.95378" lon="7.03338">
        <ele>1234.4</ele>
        <time>2021-08-07T09:34:10Z</time>
      </trkpt>
      <trkpt lat="47.95373" lon="7.0334">
        <ele>1234.3</ele>
        <time>2021-08-07T09:34:11Z</time>
      </trkpt>
      <trkpt lat="47.95368" lon="7.03347">
        <ele>1234.2</ele>
        <time>2021-08-07T09:34:13Z</time>
      </trkpt>
      <trkpt lat="47.95366" lon="7.03354">
        <ele>1234.1</ele>
        <time>2021-08-07T09:34:15Z</time>
      </trkpt>
      <trkpt lat="47.95364" lon="7.03357">
        <ele>1234.1</ele>
        <time>2021-08-07T09:34:16Z</time>
      </trkpt>
      <trkpt lat="47.95363" lon="7.03361">
        <ele>1234</ele>
        <time>2021-08-07T09:34:18Z</time>
      </trkpt>
      <trkpt lat="47.95357" lon="7.03365">
        <ele>1233.9</ele>
        <time>2021-08-07T09:34:20Z</time>
      </trkpt>
      <trkpt lat="47.95351" lon="7.03368">
        <ele>1233.9</ele>
        <time>2021-08-07T09:34:21Z</time>
      </trkpt>
      <trkpt lat="47.95344" lon="7.0337">
        <ele>1233.9</ele>
        <time>2021-08-07T09:34:23Z</time>
      </trkpt>
      <trkpt lat="47.95335" lon="7.03375">
        <ele>1233.8</ele>
        <time>2021-08-07T09:34:25Z</time>
      </trkpt>
      <trkpt lat="47.9533" lon="7.03377">
        <ele>1233.9</ele>
        <time>2021-08-07T09:34:26Z</time>
      </trkpt>
      <trkpt lat="47.95321" lon="7.03379">
        <ele>1234</ele>
        <time>2021-08-07T09:34:28Z</time>
      </trkpt>
      <trkpt lat="47.95311" lon="7.03379">
        <ele>1234.2</ele>
        <time>2021-08-07T09:34:30Z</time>
      </trkpt>
      <trkpt lat="47.95302" lon="7.03379">
        <ele>1234.4</ele>
        <time>2021-08-07T09:34:32Z</time>
      </trkpt>
      <trkpt lat="47.95298" lon="7.03379">
        <ele>1234.5</ele>
        <time>2021-08-07T09:34:33Z</time>
      </trkpt>
      <trkpt lat="47.95289" lon="7.03378">
        <ele>1234.8</ele>
        <time>2021-08-07T09:34:35Z</time>
      </trkpt>
      <trkpt lat="47.9528" lon="7.03378">
        <ele>1235.1</ele>
        <time>2021-08-07T09:34:36Z</time>
      </trkpt>
      <trkpt lat="47.95272" lon="7.03378">
        <ele>1235.5</ele>
        <time>2021-08-07T09:34:38Z</time>
      </trkpt>
      <trkpt lat="47.95264" lon="7.03377">
        <ele>1235.8</ele>
        <time>2021-08-07T09:34:39Z</time>
      </trkpt>
      <trkpt lat="47.95256" lon="7.03377">
        <ele>1236.2</ele>
        <time>2021-08-07T09:34:41Z</time>
      </trkpt>
      <trkpt lat="47.95251" lon="7.03376">
        <ele>1236.5</ele>
        <time>2021-08-07T09:34:42Z</time>
      </trkpt>
      <trkpt lat="47.95246" lon="7.03376">
        <ele>1236.8</ele>
        <time>2021-08-07T09:34:43Z</time>
      </trkpt>
      <trkpt lat="47.95242" lon="7.03375">
        <ele>1237</ele>
        <time>2021-08-07T09:34:44Z</time>
      </trkpt>
      <trkpt lat="47.95236" lon="7.03373">
        <ele>1237.3</ele>
        <time>2021-08-07T09:34:45Z</time>
      </trkpt>
      <trkpt lat="47.95233" lon="7.03372">
        <ele>1237.5</ele>
        <time>2021-08-07T09:34:46Z</time>
      </trkpt>
      <trkpt lat="47.95229" lon="7.03371">
        <ele>1237.8</ele>
        <time>2021-08-07T09:34:48Z</time>
      </trkpt>
      <trkpt lat="47.95222" lon="7.03368">
        <ele>1238.2</ele>
        <time>2021-08-07T09:34:50Z</time>
      </trkpt>
      <trkpt lat="47.95216" lon="7.03364">
        <ele>1238.7</ele>
        <time>2021-08-07T09:34:52Z</time>
      </trkpt>
      <trkpt lat="47.95214" lon="7.03363">
        <ele>1239</ele>
        <time>2021-08-07T09:34:53Z</time>
      </trkpt>
      <trkpt lat="47.95211" lon="7.03363">
        <ele>1239.2</ele>
        <time>2021-08-07T09:34:54Z</time>
      </trkpt>
      <trkpt lat="47.95208" lon="7.03358">
        <ele>1239.5</ele>
        <time>2021-08-07T09:34:56Z</time>
      </trkpt>
      <trkpt lat="47.95206" lon="7.03357">
        <ele>1239.7</ele>
        <time>2021-08-07T09:34:57Z</time>
      </trkpt>
      <trkpt lat="47.95203" lon="7.03354">
        <ele>1240</ele>
        <time>2021-08-07T09:34:59Z</time>
      </trkpt>
      <trkpt lat="47.952" lon="7.03352">
        <ele>1240.3</ele>
        <time>2021-08-07T09:35:00Z</time>
      </trkpt>
      <trkpt lat="47.95199" lon="7.03351">
        <ele>1240.4</ele>
        <time>2021-08-07T09:35:01Z</time>
      </trkpt>
      <trkpt lat="47.95197" lon="7.0335">
        <ele>1240.6</ele>
        <time>2021-08-07T09:35:02Z</time>
      </trkpt>
      <trkpt lat="47.95194" lon="7.03348">
        <ele>1240.9</ele>
        <time>2021-08-07T09:35:04Z</time>
      </trkpt>
      <trkpt lat="47.95193" lon="7.03346">
        <ele>1241.1</ele>
        <time>2021-08-07T09:35:05Z</time>
      </trkpt>
      <trkpt lat="47.95189" lon="7.03345">
        <ele>1241.4</ele>
        <time>2021-08-07T09:35:07Z</time>
      </trkpt>
      <trkpt lat="47.95186" lon="7.03345">
        <ele>1241.4</ele>
        <time>2021-08-07T09:35:08Z</time>
      </trkpt>
      <trkpt lat="47.95184" lon="7.03346">
        <ele>1241.3</ele>
        <time>2021-08-07T09:35:09Z</time>
      </trkpt>
      <trkpt lat="47.95179" lon="7.03347">
        <ele>1241.2</ele>
        <time>2021-08-07T09:35:11Z</time>
      </trkpt>
      <trkpt lat="47.95178" lon="7.03347">
        <ele>1241.2</ele>
        <time>2021-08-07T09:35:12Z</time>
      </trkpt>
      <trkpt lat="47.95177" lon="7.03347">
        <ele>1241.2</ele>
        <time>2021-08-07T09:35:13Z</time>
      </trkpt>
      <trkpt lat="47.95175" lon="7.03348">
        <ele>1241.1</ele>
        <time>2021-08-07T09:35:14Z</time>
      </trkpt>
      <trkpt lat="47.95174" lon="7.03349">
        <ele>1241.1</ele>
        <time>2021-08-07T09:35:16Z</time>
      </trkpt>
      <trkpt lat="47.95173" lon="7.03351">
        <ele>1241.2</ele>
        <time>2021-08-07T09:35:17Z</time>
      </trkpt>
      <trkpt lat="47.95172" lon="7.03353">
        <ele>1241.4</ele>
        <time>2021-08-07T09:35:18Z</time>
      </trkpt>
      <trkpt lat="47.95172" lon="7.03358">
        <ele>1241.6</ele>
        <time>2021-08-07T09:35:20Z</time>
      </trkpt>
      <trkpt lat="47.95173" lon="7.03359">
        <ele>1241.6</ele>
        <time>2021-08-07T09:35:21Z</time>
      </trkpt>
      <trkpt lat="47.95173" lon="7.0336">
        <ele>1241.7</ele>
        <time>2021-08-07T09:35:22Z</time>
      </trkpt>
      <trkpt lat="47.95172" lon="7.03361">
        <ele>1241.7</ele>
        <time>2021-08-07T09:35:23Z</time>
      </trkpt>
      <trkpt lat="47.95171" lon="7.03361">
        <ele>1241.8</ele>
        <time>2021-08-07T09:35:24Z</time>
      </trkpt>
      <trkpt lat="47.95169" lon="7.03362">
        <ele>1242</ele>
        <time>2021-08-07T09:35:26Z</time>
      </trkpt>
      <trkpt lat="47.95166" lon="7.03361">
        <ele>1242.2</ele>
        <time>2021-08-07T09:35:27Z</time>
      </trkpt>
      <trkpt lat="47.95165" lon="7.03361">
        <ele>1242.2</ele>
        <time>2021-08-07T09:35:28Z</time>
      </trkpt>
      <trkpt lat="47.95162" lon="7.03359">
        <ele>1242.4</ele>
        <time>2021-08-07T09:35:29Z</time>
      </trkpt>
      <trkpt lat="47.95158" lon="7.03357">
        <ele>1242.7</ele>
        <time>2021-08-07T09:35:31Z</time>
      </trkpt>
      <trkpt lat="47.95156" lon="7.03356">
        <ele>1242.8</ele>
        <time>2021-08-07T09:35:32Z</time>
      </trkpt>
      <trkpt lat="47.95153" lon="7.03355">
        <ele>1243.1</ele>
        <time>2021-08-07T09:35:34Z</time>
      </trkpt>
      <trkpt lat="47.9515" lon="7.03355">
        <ele>1243.3</ele>
        <time>2021-08-07T09:35:35Z</time>
      </trkpt>
      <trkpt lat="47.95149" lon="7.03355">
        <ele>1243.3</ele>
        <time>2021-08-07T09:35:36Z</time>
      </trkpt>
      <trkpt lat="47.95148" lon="7.03355">
        <ele>1243.4</ele>
        <time>2021-08-07T09:35:37Z</time>
      </trkpt>
      <trkpt lat="47.95149" lon="7.03355">
        <ele>1243.4</ele>
        <time>2021-08-07T09:35:38Z</time>
      </trkpt>
      <trkpt lat="47.95148" lon="7.03355">
        <ele>1243.5</ele>
        <time>2021-08-07T09:35:40Z</time>
      </trkpt>
      <trkpt lat="47.95152" lon="7.03356">
        <ele>1243.7</ele>
        <time>2021-08-07T09:35:42Z</time>
      </trkpt>
      <trkpt lat="47.95153" lon="7.03356">
        <ele>1243.8</ele>
        <time>2021-08-07T09:35:44Z</time>
      </trkpt>
      <trkpt lat="47.95153" lon="7.03357">
        <ele>1243.8</ele>
        <time>2021-08-07T09:35:45Z</time>
      </trkpt>
      <trkpt lat="47.95154" lon="7.03357">
        <ele>1243.9</ele>
        <time>2021-08-07T09:35:47Z</time>
      </trkpt>
      <trkpt lat="47.95155" lon="7.03357">
        <ele>1244</ele>
        <time>2021-08-07T09:35:48Z</time>
      </trkpt>
      <trkpt lat="47.95155" lon="7.03356">
        <ele>1244</ele>
        <time>2021-08-07T09:35:50Z</time>
      </trkpt>
      <trkpt lat="47.95155" lon="7.03356">
        <ele>1244</ele>
        <time>2021-08-07T09:35:52Z</time>
      </trkpt>
      <trkpt lat="47.95155" lon="7.03356">
        <ele>1244</ele>
        <time>2021-08-07T09:35:54Z</time>
      </trkpt>
      <trkpt lat="47.95155" lon="7.03355">
        <ele>1244.1</ele>
        <time>2021-08-07T09:35:56Z</time>
      </trkpt>
      <trkpt lat="47.95152" lon="7.03373">
        <ele>1244.9</ele>
        <time>2021-08-07T09:37:06Z</time>
      </trkpt>
      <trkpt lat="47.95153" lon="7.03371">
        <ele>1245.1</ele>
        <time>2021-08-07T09:37:07Z</time>
      </trkpt>
      <trkpt lat="47.95154" lon="7.03369">
        <ele>1245.2</ele>
        <time>2021-08-07T09:37:09Z</time>
      </trkpt>
      <trkpt lat="47.95154" lon="7.03369">
        <ele>1245.2</ele>
        <time>2021-08-07T09:37:10Z</time>
      </trkpt>
      <trkpt lat="47.95155" lon="7.03366">
        <ele>1245.3</ele>
        <time>2021-08-07T09:37:11Z</time>
      </trkpt>
      <trkpt lat="47.95155" lon="7.03364">
        <ele>1245.4</ele>
        <time>2021-08-07T09:37:13Z</time>
      </trkpt>
      <trkpt lat="47.95155" lon="7.03363">
        <ele>1245.5</ele>
        <time>2021-08-07T09:37:14Z</time>
      </trkpt>
      <trkpt lat="47.95155" lon="7.03363">
        <ele>1245.5</ele>
        <time>2021-08-07T09:37:15Z</time>
      </trkpt>
      <trkpt lat="47.95154" lon="7.03362">
        <ele>1245.6</ele>
        <time>2021-08-07T09:37:16Z</time>
      </trkpt>
      <trkpt lat="47.95153" lon="7.03362">
        <ele>1245.6</ele>
        <time>2021-08-07T09:37:17Z</time>
      </trkpt>
      <trkpt lat="47.9515" lon="7.0336">
        <ele>1245.8</ele>
        <time>2021-08-07T09:37:19Z</time>
      </trkpt>
      <trkpt lat="47.95149" lon="7.03359">
        <ele>1245.9</ele>
        <time>2021-08-07T09:37:20Z</time>
      </trkpt>
      <trkpt lat="47.95149" lon="7.03359">
        <ele>1245.9</ele>
        <time>2021-08-07T09:37:22Z</time>
      </trkpt>
      <trkpt lat="47.95148" lon="7.03358">
        <ele>1246</ele>
        <time>2021-08-07T09:37:23Z</time>
      </trkpt>
      <trkpt lat="47.95147" lon="7.03358">
        <ele>1246.1</ele>
        <time>2021-08-07T09:37:24Z</time>
      </trkpt>
      <trkpt lat="47.95145" lon="7.03357">
        <ele>1246.2</ele>
        <time>2021-08-07T09:37:26Z</time>
      </trkpt>
      <trkpt lat="47.95144" lon="7.03358">
        <ele>1246.3</ele>
        <time>2021-08-07T09:37:27Z</time>
      </trkpt>
      <trkpt lat="47.95144" lon="7.03358">
        <ele>1246.3</ele>
        <time>2021-08-07T09:37:29Z</time>
      </trkpt>
      <trkpt lat="47.95143" lon="7.03358">
        <ele>1246.3</ele>
        <time>2021-08-07T09:37:30Z</time>
      </trkpt>
      <trkpt lat="47.95156" lon="7.03356">
        <ele>1247.1</ele>
        <time>2021-08-07T09:40:31Z</time>
      </trkpt>
      <trkpt lat="47.95156" lon="7.03354">
        <ele>1247.2</ele>
        <time>2021-08-07T09:40:32Z</time>
      </trkpt>
      <trkpt lat="47.95154" lon="7.03351">
        <ele>1247.4</ele>
        <time>2021-08-07T09:40:34Z</time>
      </trkpt>
      <trkpt lat="47.95153" lon="7.0335">
        <ele>1247.5</ele>
        <time>2021-08-07T09:40:35Z</time>
      </trkpt>
      <trkpt lat="47.95153" lon="7.03351">
        <ele>1247.5</ele>
        <time>2021-08-07T09:40:36Z</time>
      </trkpt>
      <trkpt lat="47.95154" lon="7.03351">
        <ele>1247.5</ele>
        <time>2021-08-07T09:40:38Z</time>
      </trkpt>
      <trkpt lat="47.95154" lon="7.03351">
        <ele>1247.5</ele>
        <time>2021-08-07T09:40:39Z</time>
      </trkpt>
      <trkpt lat="47.95154" lon="7.0335">
        <ele>1247.6</ele>
        <time>2021-08-07T09:40:41Z</time>
      </trkpt>
      <trkpt lat="47.95154" lon="7.03347">
        <ele>1247.7</ele>
        <time>2021-08-07T09:40:43Z</time>
      </trkpt>
      <trkpt lat="47.95154" lon="7.03346">
        <ele>1247.7</ele>
        <time>2021-08-07T09:40:44Z</time>
      </trkpt>
      <trkpt lat="47.9516" lon="7.03356">
        <ele>1248.3</ele>
        <time>2021-08-07T09:41:14Z</time>
      </trkpt>
      <trkpt lat="47.95159" lon="7.03359">
        <ele>1248.4</ele>
        <time>2021-08-07T09:41:16Z</time>
      </trkpt>
      <trkpt lat="47.95159" lon="7.03361">
        <ele>1248.5</ele>
        <time>2021-08-07T09:41:17Z</time>
      </trkpt>
      <trkpt lat="47.95159" lon="7.03361">
        <ele>1248.5</ele>
        <time>2021-08-07T09:41:18Z</time>
      </trkpt>
      <trkpt lat="47.95159" lon="7.03361">
        <ele>1248.5</ele>
        <time>2021-08-07T09:41:19Z</time>
      </trkpt>
      <trkpt lat="47.95159" lon="7.03361">
        <ele>1248.5</ele>
        <time>2021-08-07T09:41:20Z</time>
      </trkpt>
      <trkpt lat="47.95162" lon="7.03363">
        <ele>1248.7</ele>
        <time>2021-08-07T09:41:22Z</time>
      </trkpt>
      <trkpt lat="47.95162" lon="7.03362">
        <ele>1248.8</ele>
        <time>2021-08-07T09:41:23Z</time>
      </trkpt>
      <trkpt lat="47.9516" lon="7.03361">
        <ele>1248.9</ele>
        <time>2021-08-07T09:41:25Z</time>
      </trkpt>
      <trkpt lat="47.95159" lon="7.0336">
        <ele>1249</ele>
        <time>2021-08-07T09:41:27Z</time>
      </trkpt>
      <trkpt lat="47.95157" lon="7.03359">
        <ele>1249.1</ele>
        <time>2021-08-07T09:41:29Z</time>
      </trkpt>
      <trkpt lat="47.95155" lon="7.03358">
        <ele>1249.2</ele>
        <time>2021-08-07T09:44:52Z</time>
      </trkpt>
      <trkpt lat="47.95153" lon="7.03357">
        <ele>1249.3</ele>
        <time>2021-08-07T09:44:54Z</time>
      </trkpt>
      <trkpt lat="47.95152" lon="7.03356">
        <ele>1249.5</ele>
        <time>2021-08-07T09:44:55Z</time>
      </trkpt>
      <trkpt lat="47.95152" lon="7.03356">
        <ele>1249.5</ele>
        <time>2021-08-07T09:44:56Z</time>
      </trkpt>
      <trkpt lat="47.95152" lon="7.03358">
        <ele>1249.6</ele>
        <time>2021-08-07T09:44:58Z</time>
      </trkpt>
      <trkpt lat="47.95152" lon="7.0336">
        <ele>1249.6</ele>
        <time>2021-08-07T09:45:00Z</time>
      </trkpt>
      <trkpt lat="47.95151" lon="7.03361">
        <ele>1249.7</ele>
        <time>2021-08-07T09:45:02Z</time>
      </trkpt>
      <trkpt lat="47.95151" lon="7.03362">
        <ele>1249.7</ele>
        <time>2021-08-07T09:45:03Z</time>
      </trkpt>
      <trkpt lat="47.9515" lon="7.0336">
        <ele>1249.8</ele>
        <time>2021-08-07T09:45:05Z</time>
      </trkpt>
      <trkpt lat="47.95148" lon="7.03356">
        <ele>1250</ele>
        <time>2021-08-07T09:45:07Z</time>
      </trkpt>
      <trkpt lat="47.95147" lon="7.03355">
        <ele>1250.1</ele>
        <time>2021-08-07T09:45:09Z</time>
      </trkpt>
      <trkpt lat="47.95146" lon="7.0336">
        <ele>1250.3</ele>
        <time>2021-08-07T09:45:11Z</time>
      </trkpt>
      <trkpt lat="47.95146" lon="7.03362">
        <ele>1250.4</ele>
        <time>2021-08-07T09:45:13Z</time>
      </trkpt>
      <trkpt lat="47.95148" lon="7.03361">
        <ele>1250.5</ele>
        <time>2021-08-07T09:45:14Z</time>
      </trkpt>
      <trkpt lat="47.95149" lon="7.03359">
        <ele>1250.6</ele>
        <time>2021-08-07T09:45:16Z</time>
      </trkpt>
      <trkpt lat="47.95149" lon="7.03359">
        <ele>1250.6</ele>
        <time>2021-08-07T09:45:17Z</time>
      </trkpt>
      <trkpt lat="47.95149" lon="7.03359">
        <ele>1250.6</ele>
        <time>2021-08-07T09:45:18Z</time>
      </trkpt>
      <trkpt lat="47.95149" lon="7.03358">
        <ele>1250.7</ele>
        <time>2021-08-07T09:45:19Z</time>
      </trkpt>
      <trkpt lat="47.95149" lon="7.03357">
        <ele>1250.7</ele>
        <time>2021-08-07T09:45:20Z</time>
      </trkpt>
      <trkpt lat="47.95149" lon="7.03354">
        <ele>1250.8</ele>
        <time>2021-08-07T09:45:22Z</time>
      </trkpt>
      <trkpt lat="47.95149" lon="7.03353">
        <ele>1250.9</ele>
        <time>2021-08-07T09:45:23Z</time>
      </trkpt>
      <trkpt lat="47.95149" lon="7.03353">
        <ele>1250.9</ele>
        <time>2021-08-07T09:45:25Z</time>
      </trkpt>
      <trkpt lat="47.95149" lon="7.03352">
        <ele>1250.9</ele>
        <time>2021-08-07T09:45:26Z</time>
      </trkpt>
      <trkpt lat="47.95149" lon="7.03352">
        <ele>1250.9</ele>
        <time>2021-08-07T09:45:27Z</time>
      </trkpt>
      <trkpt lat="47.95158" lon="7.03335">
        <ele>1251.8</ele>
        <time>2021-08-07T09:56:33Z</time>
      </trkpt>
      <trkpt lat="47.95156" lon="7.03333">
        <ele>1251.9</ele>
        <time>2021-08-07T09:56:34Z</time>
      </trkpt>
      <trkpt lat="47.95153" lon="7.03326">
        <ele>1252.2</ele>
        <time>2021-08-07T09:56:36Z</time>
      </trkpt>
      <trkpt lat="47.95152" lon="7.03322">
        <ele>1252.4</ele>
        <time>2021-08-07T09:56:38Z</time>
      </trkpt>
      <trkpt lat="47.9515" lon="7.03317">
        <ele>1252.6</ele>
        <time>2021-08-07T09:56:39Z</time>
      </trkpt>
      <trkpt lat="47.95149" lon="7.03315">
        <ele>1252.7</ele>
        <time>2021-08-07T09:56:40Z</time>
      </trkpt>
      <trkpt lat="47.95146" lon="7.03312">
        <ele>1252.9</ele>
        <time>2021-08-07T09:56:42Z</time>
      </trkpt>
      <trkpt lat="47.95144" lon="7.03311">
        <ele>1253</ele>
        <time>2021-08-07T09:56:43Z</time>
      </trkpt>
      <trkpt lat="47.95143" lon="7.03308">
        <ele>1253.1</ele>
        <time>2021-08-07T09:56:45Z</time>
      </trkpt>
      <trkpt lat="47.95143" lon="7.03307">
        <ele>1253.1</ele>
        <time>2021-08-07T09:56:46Z</time>
      </trkpt>
      <trkpt lat="47.95143" lon="7.03304">
        <ele>1253.2</ele>
        <time>2021-08-07T09:56:47Z</time>
      </trkpt>
      <trkpt lat="47.95142" lon="7.03304">
        <ele>1253.3</ele>
        <time>2021-08-07T09:56:49Z</time>
      </trkpt>
      <trkpt lat="47.95141" lon="7.03304">
        <ele>1253.4</ele>
        <time>2021-08-07T09:56:51Z</time>
      </trkpt>
      <trkpt lat="47.95138" lon="7.03303">
        <ele>1253.5</ele>
        <time>2021-08-07T09:56:53Z</time>
      </trkpt>
      <trkpt lat="47.9511" lon="7.03259">
        <ele>1255.8</ele>
        <time>2021-08-07T09:57:18Z</time>
      </trkpt>
      <trkpt lat="47.95106" lon="7.03258">
        <ele>1256</ele>
        <time>2021-08-07T09:57:19Z</time>
      </trkpt>
      <trkpt lat="47.951" lon="7.03255">
        <ele>1256.3</ele>
        <time>2021-08-07T09:57:20Z</time>
      </trkpt>
      <trkpt lat="47.95094" lon="7.03252">
        <ele>1256.6</ele>
        <time>2021-08-07T09:57:21Z</time>
      </trkpt>
      <trkpt lat="47.95086" lon="7.03247">
        <ele>1257.1</ele>
        <time>2021-08-07T09:57:23Z</time>
      </trkpt>
      <trkpt lat="47.95079" lon="7.03242">
        <ele>1257.4</ele>
        <time>2021-08-07T09:57:24Z</time>
      </trkpt>
      <trkpt lat="47.95074" lon="7.0324">
        <ele>1257.7</ele>
        <time>2021-08-07T09:57:25Z</time>
      </trkpt>
      <trkpt lat="47.95068" lon="7.03237">
        <ele>1258</ele>
        <time>2021-08-07T09:57:27Z</time>
      </trkpt>
      <trkpt lat="47.95066" lon="7.03235">
        <ele>1258.1</ele>
        <time>2021-08-07T09:57:28Z</time>
      </trkpt>
      <trkpt lat="47.95065" lon="7.03233">
        <ele>1258.2</ele>
        <time>2021-08-07T09:57:29Z</time>
      </trkpt>
      <trkpt lat="47.95064" lon="7.03231">
        <ele>1258.3</ele>
        <time>2021-08-07T09:57:30Z</time>
      </trkpt>
      <trkpt lat="47.95064" lon="7.0323">
        <ele>1258.3</ele>
        <time>2021-08-07T09:57:31Z</time>
      </trkpt>
      <trkpt lat="47.95063" lon="7.03228">
        <ele>1258.4</ele>
        <time>2021-08-07T09:57:32Z</time>
      </trkpt>
      <trkpt lat="47.95062" lon="7.03225">
        <ele>1258.5</ele>
        <time>2021-08-07T09:57:34Z</time>
      </trkpt>
      <trkpt lat="47.95061" lon="7.03223">
        <ele>1258.6</ele>
        <time>2021-08-07T09:57:36Z</time>
      </trkpt>
      <trkpt lat="47.9506" lon="7.03221">
        <ele>1258.6</ele>
        <time>2021-08-07T09:57:37Z</time>
      </trkpt>
      <trkpt lat="47.95" lon="7.03126">
        <ele>1262.6</ele>
        <time>2021-08-07T09:58:25Z</time>
      </trkpt>
      <trkpt lat="47.94997" lon="7.03124">
        <ele>1262.7</ele>
        <time>2021-08-07T09:58:26Z</time>
      </trkpt>
      <trkpt lat="47.94996" lon="7.03121">
        <ele>1262.8</ele>
        <time>2021-08-07T09:58:28Z</time>
      </trkpt>
      <trkpt lat="47.94996" lon="7.0312">
        <ele>1262.8</ele>
        <time>2021-08-07T09:58:29Z</time>
      </trkpt>
      <trkpt lat="47.94995" lon="7.03119">
        <ele>1262.9</ele>
        <time>2021-08-07T09:58:30Z</time>
      </trkpt>
      <trkpt lat="47.94994" lon="7.03114">
        <ele>1263</ele>
        <time>2021-08-07T09:58:32Z</time>
      </trkpt>
      <trkpt lat="47.94994" lon="7.03113">
        <ele>1263</ele>
        <time>2021-08-07T09:58:33Z</time>
      </trkpt>
      <trkpt lat="47.94992" lon="7.03108">
        <ele>1263.2</ele>
        <time>2021-08-07T09:58:35Z</time>
      </trkpt>
      <trkpt lat="47.94989" lon="7.03104">
        <ele>1263.4</ele>
        <time>2021-08-07T09:58:36Z</time>
      </trkpt>
      <trkpt lat="47.94987" lon="7.03098">
        <ele>1263.5</ele>
        <time>2021-08-07T09:58:37Z</time>
      </trkpt>
      <trkpt lat="47.94984" lon="7.03093">
        <ele>1263.7</ele>
        <time>2021-08-07T09:58:39Z</time>
      </trkpt>
      <trkpt lat="47.94981" lon="7.0309">
        <ele>1263.9</ele>
        <time>2021-08-07T09:58:40Z</time>
      </trkpt>
      <trkpt lat="47.94978" lon="7.03086">
        <ele>1264</ele>
        <time>2021-08-07T09:58:41Z</time>
      </trkpt>
      <trkpt lat="47.94977" lon="7.03085">
        <ele>1264</ele>
        <time>2021-08-07T09:58:42Z</time>
      </trkpt>
      <trkpt lat="47.94975" lon="7.0308">
        <ele>1264.2</ele>
        <time>2021-08-07T09:58:44Z</time>
      </trkpt>
      <trkpt lat="47.94973" lon="7.03076">
        <ele>1264.3</ele>
        <time>2021-08-07T09:58:46Z</time>
      </trkpt>
      <trkpt lat="47.94971" lon="7.03074">
        <ele>1264.4</ele>
        <time>2021-08-07T09:58:48Z</time>
      </trkpt>
      <trkpt lat="47.9497" lon="7.03073">
        <ele>1264.5</ele>
        <time>2021-08-07T09:58:49Z</time>
      </trkpt>
      <trkpt lat="47.94968" lon="7.03072">
        <ele>1264.5</ele>
        <time>2021-08-07T09:58:51Z</time>
      </trkpt>
      <trkpt lat="47.94967" lon="7.03071">
        <ele>1264.6</ele>
        <time>2021-08-07T09:58:52Z</time>
      </trkpt>
      <trkpt lat="47.94964" lon="7.03067">
        <ele>1264.7</ele>
        <time>2021-08-07T09:58:54Z</time>
      </trkpt>
      <trkpt lat="47.94963" lon="7.03066">
        <ele>1264.7</ele>
        <time>2021-08-07T09:58:55Z</time>
      </trkpt>
      <trkpt lat="47.94962" lon="7.03064">
        <ele>1264.8</ele>
        <time>2021-08-07T09:58:56Z</time>
      </trkpt>
      <trkpt lat="47.9496" lon="7.03063">
        <ele>1264.9</ele>
        <time>2021-08-07T09:58:57Z</time>
      </trkpt>
      <trkpt lat="47.94957" lon="7.03061">
        <ele>1265</ele>
        <time>2021-08-07T09:58:59Z</time>
      </trkpt>
      <trkpt lat="47.94955" lon="7.03059">
        <ele>1265.1</ele>
        <time>2021-08-07T09:59:00Z</time>
      </trkpt>
      <trkpt lat="47.94952" lon="7.03056">
        <ele>1265.2</ele>
        <time>2021-08-07T09:59:02Z</time>
      </trkpt>
      <trkpt lat="47.94951" lon="7.03051">
        <ele>1265.3</ele>
        <time>2021-08-07T09:59:03Z</time>
      </trkpt>
      <trkpt lat="47.9495" lon="7.0305">
        <ele>1265.3</ele>
        <time>2021-08-07T09:59:04Z</time>
      </trkpt>
      <trkpt lat="47.94949" lon="7.03046">
        <ele>1265.4</ele>
        <time>2021-08-07T09:59:06Z</time>
      </trkpt>
      <trkpt lat="47.94948" lon="7.03042">
        <ele>1265.4</ele>
        <time>2021-08-07T09:59:07Z</time>
      </trkpt>
      <trkpt lat="47.94946" lon="7.03037">
        <ele>1265.5</ele>
        <time>2021-08-07T09:59:09Z</time>
      </trkpt>
      <trkpt lat="47.94944" lon="7.03033">
        <ele>1265.7</ele>
        <time>2021-08-07T09:59:11Z</time>
      </trkpt>
      <trkpt lat="47.94941" lon="7.03029">
        <ele>1265.8</ele>
        <time>2021-08-07T09:59:12Z</time>
      </trkpt>
      <trkpt lat="47.9494" lon="7.03028">
        <ele>1265.8</ele>
        <time>2021-08-07T09:59:13Z</time>
      </trkpt>
      <trkpt lat="47.94937" lon="7.03026">
        <ele>1265.9</ele>
        <time>2021-08-07T09:59:15Z</time>
      </trkpt>
      <trkpt lat="47.94934" lon="7.03023">
        <ele>1265.9</ele>
        <time>2021-08-07T09:59:16Z</time>
      </trkpt>
      <trkpt lat="47.94932" lon="7.0302">
        <ele>1266</ele>
        <time>2021-08-07T09:59:17Z</time>
      </trkpt>
      <trkpt lat="47.94931" lon="7.03019">
        <ele>1266.1</ele>
        <time>2021-08-07T09:59:18Z</time>
      </trkpt>
      <trkpt lat="47.94929" lon="7.03016">
        <ele>1266.1</ele>
        <time>2021-08-07T09:59:19Z</time>
      </trkpt>
      <trkpt lat="47.94926" lon="7.03011">
        <ele>1266.2</ele>
        <time>2021-08-07T09:59:21Z</time>
      </trkpt>
      <trkpt lat="47.94924" lon="7.03009">
        <ele>1266.3</ele>
        <time>2021-08-07T09:59:22Z</time>
      </trkpt>
      <trkpt lat="47.9492" lon="7.03006">
        <ele>1266.4</ele>
        <time>2021-08-07T09:59:24Z</time>
      </trkpt>
      <trkpt lat="47.94917" lon="7.03003">
        <ele>1266.5</ele>
        <time>2021-08-07T09:59:25Z</time>
      </trkpt>
      <trkpt lat="47.94912" lon="7.02998">
        <ele>1266.6</ele>
        <time>2021-08-07T09:59:27Z</time>
      </trkpt>
      <trkpt lat="47.9491" lon="7.02995">
        <ele>1266.7</ele>
        <time>2021-08-07T09:59:28Z</time>
      </trkpt>
      <trkpt lat="47.94906" lon="7.0299">
        <ele>1266.9</ele>
        <time>2021-08-07T09:59:30Z</time>
      </trkpt>
      <trkpt lat="47.94903" lon="7.02984">
        <ele>1267</ele>
        <time>2021-08-07T09:59:32Z</time>
      </trkpt>
      <trkpt lat="47.94902" lon="7.0298">
        <ele>1267.1</ele>
        <time>2021-08-07T09:59:33Z</time>
      </trkpt>
      <trkpt lat="47.949" lon="7.02974">
        <ele>1267.2</ele>
        <time>2021-08-07T09:59:35Z</time>
      </trkpt>
      <trkpt lat="47.94898" lon="7.0297">
        <ele>1267.3</ele>
        <time>2021-08-07T09:59:36Z</time>
      </trkpt>
      <trkpt lat="47.94897" lon="7.02967">
        <ele>1267.4</ele>
        <time>2021-08-07T09:59:37Z</time>
      </trkpt>
      <trkpt lat="47.94894" lon="7.02961">
        <ele>1267.5</ele>
        <time>2021-08-07T09:59:39Z</time>
      </trkpt>
      <trkpt lat="47.94892" lon="7.02957">
        <ele>1267.6</ele>
        <time>2021-08-07T09:59:41Z</time>
      </trkpt>
      <trkpt lat="47.94889" lon="7.02953">
        <ele>1267.7</ele>
        <time>2021-08-07T09:59:42Z</time>
      </trkpt>
      <trkpt lat="47.94888" lon="7.02952">
        <ele>1267.8</ele>
        <time>2021-08-07T09:59:43Z</time>
      </trkpt>
      <trkpt lat="47.94885" lon="7.02949">
        <ele>1267.9</ele>
        <time>2021-08-07T09:59:45Z</time>
      </trkpt>
      <trkpt lat="47.94882" lon="7.02946">
        <ele>1268</ele>
        <time>2021-08-07T09:59:46Z</time>
      </trkpt>
      <trkpt lat="47.94881" lon="7.02945">
        <ele>1268</ele>
        <time>2021-08-07T09:59:47Z</time>
      </trkpt>
      <trkpt lat="47.94878" lon="7.02941">
        <ele>1268.2</ele>
        <time>2021-08-07T09:59:49Z</time>
      </trkpt>
      <trkpt lat="47.94877" lon="7.0294">
        <ele>1268.2</ele>
        <time>2021-08-07T09:59:50Z</time>
      </trkpt>
      <trkpt lat="47.94876" lon="7.02938">
        <ele>1268.2</ele>
        <time>2021-08-07T09:59:51Z</time>
      </trkpt>
      <trkpt lat="47.94873" lon="7.02936">
        <ele>1268.3</ele>
        <time>2021-08-07T09:59:52Z</time>
      </trkpt>
      <trkpt lat="47.94873" lon="7.02935">
        <ele>1268.4</ele>
        <time>2021-08-07T09:59:53Z</time>
      </trkpt>
      <trkpt lat="47.9487" lon="7.0293">
        <ele>1268.5</ele>
        <time>2021-08-07T09:59:55Z</time>
      </trkpt>
      <trkpt lat="47.94867" lon="7.02927">
        <ele>1268.6</ele>
        <time>2021-08-07T09:59:57Z</time>
      </trkpt>
      <trkpt lat="47.94864" lon="7.02923">
        <ele>1268.8</ele>
        <time>2021-08-07T09:59:59Z</time>
      </trkpt>
      <trkpt lat="47.94862" lon="7.02919">
        <ele>1268.9</ele>
        <time>2021-08-07T10:00:01Z</time>
      </trkpt>
      <trkpt lat="47.9486" lon="7.02916">
        <ele>1269</ele>
        <time>2021-08-07T10:00:02Z</time>
      </trkpt>
      <trkpt lat="47.94857" lon="7.02913">
        <ele>1269.1</ele>
        <time>2021-08-07T10:00:03Z</time>
      </trkpt>
      <trkpt lat="47.94856" lon="7.02912">
        <ele>1269.2</ele>
        <time>2021-08-07T10:00:04Z</time>
      </trkpt>
      <trkpt lat="47.94855" lon="7.02908">
        <ele>1269.2</ele>
        <time>2021-08-07T10:00:06Z</time>
      </trkpt>
      <trkpt lat="47.94854" lon="7.02905">
        <ele>1269.3</ele>
        <time>2021-08-07T10:00:07Z</time>
      </trkpt>
      <trkpt lat="47.94851" lon="7.02901">
        <ele>1269.4</ele>
        <time>2021-08-07T10:00:09Z</time>
      </trkpt>
      <trkpt lat="47.94849" lon="7.02896">
        <ele>1269.5</ele>
        <time>2021-08-07T10:00:11Z</time>
      </trkpt>
      <trkpt lat="47.94847" lon="7.02894">
        <ele>1269.6</ele>
        <time>2021-08-07T10:00:12Z</time>
      </trkpt>
      <trkpt lat="47.94844" lon="7.02891">
        <ele>1269.7</ele>
        <time>2021-08-07T10:00:13Z</time>
      </trkpt>
      <trkpt lat="47.94843" lon="7.0289">
        <ele>1269.7</ele>
        <time>2021-08-07T10:00:14Z</time>
      </trkpt>
      <trkpt lat="47.9484" lon="7.02887">
        <ele>1269.8</ele>
        <time>2021-08-07T10:00:16Z</time>
      </trkpt>
      <trkpt lat="47.94837" lon="7.02884">
        <ele>1269.9</ele>
        <time>2021-08-07T10:00:18Z</time>
      </trkpt>
      <trkpt lat="47.94834" lon="7.0288">
        <ele>1270</ele>
        <time>2021-08-07T10:00:20Z</time>
      </trkpt>
      <trkpt lat="47.94832" lon="7.02878">
        <ele>1270.1</ele>
        <time>2021-08-07T10:00:21Z</time>
      </trkpt>
      <trkpt lat="47.9483" lon="7.02876">
        <ele>1270.1</ele>
        <time>2021-08-07T10:00:22Z</time>
      </trkpt>
      <trkpt lat="47.94828" lon="7.02871">
        <ele>1270.1</ele>
        <time>2021-08-07T10:00:24Z</time>
      </trkpt>
      <trkpt lat="47.94825" lon="7.02868">
        <ele>1270.2</ele>
        <time>2021-08-07T10:00:26Z</time>
      </trkpt>
      <trkpt lat="47.94823" lon="7.02864">
        <ele>1270.2</ele>
        <time>2021-08-07T10:00:27Z</time>
      </trkpt>
      <trkpt lat="47.9482" lon="7.02859">
        <ele>1270.3</ele>
        <time>2021-08-07T10:00:29Z</time>
      </trkpt>
      <trkpt lat="47.94817" lon="7.02854">
        <ele>1270.3</ele>
        <time>2021-08-07T10:00:31Z</time>
      </trkpt>
      <trkpt lat="47.94813" lon="7.02851">
        <ele>1270.3</ele>
        <time>2021-08-07T10:00:33Z</time>
      </trkpt>
      <trkpt lat="47.94808" lon="7.02848">
        <ele>1270.3</ele>
        <time>2021-08-07T10:00:35Z</time>
      </trkpt>
      <trkpt lat="47.94805" lon="7.02847">
        <ele>1270.4</ele>
        <time>2021-08-07T10:00:36Z</time>
      </trkpt>
      <trkpt lat="47.94801" lon="7.02844">
        <ele>1270.4</ele>
        <time>2021-08-07T10:00:37Z</time>
      </trkpt>
      <trkpt lat="47.94799" lon="7.02843">
        <ele>1270.4</ele>
        <time>2021-08-07T10:00:38Z</time>
      </trkpt>
      <trkpt lat="47.94795" lon="7.02841">
        <ele>1270.4</ele>
        <time>2021-08-07T10:00:40Z</time>
      </trkpt>
      <trkpt lat="47.9479" lon="7.02838">
        <ele>1270.4</ele>
        <time>2021-08-07T10:00:42Z</time>
      </trkpt>
      <trkpt lat="47.94785" lon="7.02833">
        <ele>1270.3</ele>
        <time>2021-08-07T10:00:44Z</time>
      </trkpt>
      <trkpt lat="47.9478" lon="7.02828">
        <ele>1270.3</ele>
        <time>2021-08-07T10:00:46Z</time>
      </trkpt>
      <trkpt lat="47.94776" lon="7.02824">
        <ele>1270.2</ele>
        <time>2021-08-07T10:00:47Z</time>
      </trkpt>
      <trkpt lat="47.94771" lon="7.0282">
        <ele>1270.2</ele>
        <time>2021-08-07T10:00:49Z</time>
      </trkpt>
      <trkpt lat="47.94768" lon="7.02816">
        <ele>1270.2</ele>
        <time>2021-08-07T10:00:50Z</time>
      </trkpt>
      <trkpt lat="47.94763" lon="7.0281">
        <ele>1270.1</ele>
        <time>2021-08-07T10:00:52Z</time>
      </trkpt>
      <trkpt lat="47.9476" lon="7.02806">
        <ele>1270</ele>
        <time>2021-08-07T10:00:53Z</time>
      </trkpt>
      <trkpt lat="47.94757" lon="7.02802">
        <ele>1270</ele>
        <time>2021-08-07T10:00:54Z</time>
      </trkpt>
      <trkpt lat="47.94752" lon="7.02797">
        <ele>1269.9</ele>
        <time>2021-08-07T10:00:56Z</time>
      </trkpt>
      <trkpt lat="47.94746" lon="7.02794">
        <ele>1269.8</ele>
        <time>2021-08-07T10:00:57Z</time>
      </trkpt>
      <trkpt lat="47.94741" lon="7.02789">
        <ele>1269.7</ele>
        <time>2021-08-07T10:00:58Z</time>
      </trkpt>
      <trkpt lat="47.94735" lon="7.02783">
        <ele>1269.6</ele>
        <time>2021-08-07T10:01:00Z</time>
      </trkpt>
      <trkpt lat="47.94728" lon="7.02775">
        <ele>1269.4</ele>
        <time>2021-08-07T10:01:02Z</time>
      </trkpt>
      <trkpt lat="47.94722" lon="7.02767">
        <ele>1269.3</ele>
        <time>2021-08-07T10:01:04Z</time>
      </trkpt>
      <trkpt lat="47.94717" lon="7.0276">
        <ele>1269.1</ele>
        <time>2021-08-07T10:01:05Z</time>
      </trkpt>
      <trkpt lat="47.94714" lon="7.02754">
        <ele>1269</ele>
        <time>2021-08-07T10:01:06Z</time>
      </trkpt>
      <trkpt lat="47.9471" lon="7.02747">
        <ele>1268.8</ele>
        <time>2021-08-07T10:01:07Z</time>
      </trkpt>
      <trkpt lat="47.94705" lon="7.02737">
        <ele>1268.6</ele>
        <time>2021-08-07T10:01:09Z</time>
      </trkpt>
      <trkpt lat="47.947" lon="7.02727">
        <ele>1268.3</ele>
        <time>2021-08-07T10:01:11Z</time>
      </trkpt>
      <trkpt lat="47.94697" lon="7.0272">
        <ele>1268.1</ele>
        <time>2021-08-07T10:01:12Z</time>
      </trkpt>
      <trkpt lat="47.94694" lon="7.02714">
        <ele>1267.9</ele>
        <time>2021-08-07T10:01:13Z</time>
      </trkpt>
      <trkpt lat="47.94692" lon="7.02708">
        <ele>1267.7</ele>
        <time>2021-08-07T10:01:14Z</time>
      </trkpt>
      <trkpt lat="47.94689" lon="7.027">
        <ele>1267.5</ele>
        <time>2021-08-07T10:01:15Z</time>
      </trkpt>
      <trkpt lat="47.94684" lon="7.0269">
        <ele>1267.2</ele>
        <time>2021-08-07T10:01:17Z</time>
      </trkpt>
      <trkpt lat="47.94678" lon="7.0268">
        <ele>1266.9</ele>
        <time>2021-08-07T10:01:19Z</time>
      </trkpt>
      <trkpt lat="47.94672" lon="7.02672">
        <ele>1266.6</ele>
        <time>2021-08-07T10:01:20Z</time>
      </trkpt>
      <trkpt lat="47.94668" lon="7.02666">
        <ele>1266.3</ele>
        <time>2021-08-07T10:01:21Z</time>
      </trkpt>
      <trkpt lat="47.94665" lon="7.0266">
        <ele>1266.1</ele>
        <time>2021-08-07T10:01:22Z</time>
      </trkpt>
      <trkpt lat="47.94661" lon="7.02654">
        <ele>1265.9</ele>
        <time>2021-08-07T10:01:23Z</time>
      </trkpt>
      <trkpt lat="47.94653" lon="7.02642">
        <ele>1265.5</ele>
        <time>2021-08-07T10:01:25Z</time>
      </trkpt>
      <trkpt lat="47.94645" lon="7.0263">
        <ele>1265.1</ele>
        <time>2021-08-07T10:01:27Z</time>
      </trkpt>
      <trkpt lat="47.94642" lon="7.02623">
        <ele>1264.9</ele>
        <time>2021-08-07T10:01:28Z</time>
      </trkpt>
      <trkpt lat="47.94639" lon="7.02616">
        <ele>1264.7</ele>
        <time>2021-08-07T10:01:29Z</time>
      </trkpt>
      <trkpt lat="47.94636" lon="7.02612">
        <ele>1264.5</ele>
        <time>2021-08-07T10:01:30Z</time>
      </trkpt>
      <trkpt lat="47.94633" lon="7.02607">
        <ele>1264.3</ele>
        <time>2021-08-07T10:01:31Z</time>
      </trkpt>
      <trkpt lat="47.94629" lon="7.02594">
        <ele>1264</ele>
        <time>2021-08-07T10:01:33Z</time>
      </trkpt>
      <trkpt lat="47.94626" lon="7.02581">
        <ele>1263.7</ele>
        <time>2021-08-07T10:01:35Z</time>
      </trkpt>
      <trkpt lat="47.94624" lon="7.02574">
        <ele>1263.5</ele>
        <time>2021-08-07T10:01:36Z</time>
      </trkpt>
      <trkpt lat="47.94617" lon="7.02563">
        <ele>1263.2</ele>
        <time>2021-08-07T10:01:38Z</time>
      </trkpt>
      <trkpt lat="47.94613" lon="7.02557">
        <ele>1263</ele>
        <time>2021-08-07T10:01:39Z</time>
      </trkpt>
      <trkpt lat="47.94608" lon="7.02542">
        <ele>1262.6</ele>
        <time>2021-08-07T10:01:41Z</time>
      </trkpt>
      <trkpt lat="47.94606" lon="7.02523">
        <ele>1262.1</ele>
        <time>2021-08-07T10:01:43Z</time>
      </trkpt>
      <trkpt lat="47.94604" lon="7.02512">
        <ele>1261.9</ele>
        <time>2021-08-07T10:01:44Z</time>
      </trkpt>
      <trkpt lat="47.94599" lon="7.02492">
        <ele>1261.4</ele>
        <time>2021-08-07T10:01:46Z</time>
      </trkpt>
      <trkpt lat="47.94598" lon="7.02472">
        <ele>1261</ele>
        <time>2021-08-07T10:01:48Z</time>
      </trkpt>
      <trkpt lat="47.94597" lon="7.02462">
        <ele>1260.8</ele>
        <time>2021-08-07T10:01:49Z</time>
      </trkpt>
      <trkpt lat="47.94595" lon="7.02444">
        <ele>1260.3</ele>
        <time>2021-08-07T10:01:51Z</time>
      </trkpt>
      <trkpt lat="47.94593" lon="7.02435">
        <ele>1260</ele>
        <time>2021-08-07T10:01:52Z</time>
      </trkpt>
      <trkpt lat="47.9459" lon="7.02416">
        <ele>1259.5</ele>
        <time>2021-08-07T10:01:54Z</time>
      </trkpt>
      <trkpt lat="47.94587" lon="7.02406">
        <ele>1259.2</ele>
        <time>2021-08-07T10:01:55Z</time>
      </trkpt>
      <trkpt lat="47.94581" lon="7.02388">
        <ele>1258.5</ele>
        <time>2021-08-07T10:01:57Z</time>
      </trkpt>
      <trkpt lat="47.94578" lon="7.02378">
        <ele>1258.1</ele>
        <time>2021-08-07T10:01:58Z</time>
      </trkpt>
      <trkpt lat="47.94571" lon="7.02357">
        <ele>1257.2</ele>
        <time>2021-08-07T10:02:00Z</time>
      </trkpt>
      <trkpt lat="47.94567" lon="7.02336">
        <ele>1256.4</ele>
        <time>2021-08-07T10:02:02Z</time>
      </trkpt>
      <trkpt lat="47.94563" lon="7.02316">
        <ele>1256.3</ele>
        <time>2021-08-07T10:02:04Z</time>
      </trkpt>
      <trkpt lat="47.94557" lon="7.02296">
        <ele>1255.1</ele>
        <time>2021-08-07T10:02:06Z</time>
      </trkpt>
      <trkpt lat="47.94554" lon="7.02285">
        <ele>1254.4</ele>
        <time>2021-08-07T10:02:07Z</time>
      </trkpt>
      <trkpt lat="47.94549" lon="7.02263">
        <ele>1253.1</ele>
        <time>2021-08-07T10:02:09Z</time>
      </trkpt>
      <trkpt lat="47.94547" lon="7.02251">
        <ele>1252.4</ele>
        <time>2021-08-07T10:02:10Z</time>
      </trkpt>
      <trkpt lat="47.94545" lon="7.0224">
        <ele>1251.7</ele>
        <time>2021-08-07T10:02:11Z</time>
      </trkpt>
      <trkpt lat="47.94537" lon="7.0222">
        <ele>1250.1</ele>
        <time>2021-08-07T10:02:13Z</time>
      </trkpt>
      <trkpt lat="47.94526" lon="7.02202">
        <ele>1248.4</ele>
        <time>2021-08-07T10:02:15Z</time>
      </trkpt>
      <trkpt lat="47.94514" lon="7.02183">
        <ele>1246.4</ele>
        <time>2021-08-07T10:02:17Z</time>
      </trkpt>
      <trkpt lat="47.94508" lon="7.02172">
        <ele>1245.5</ele>
        <time>2021-08-07T10:02:18Z</time>
      </trkpt>
      <trkpt lat="47.94497" lon="7.02152">
        <ele>1243.7</ele>
        <time>2021-08-07T10:02:20Z</time>
      </trkpt>
      <trkpt lat="47.94487" lon="7.0213">
        <ele>1242</ele>
        <time>2021-08-07T10:02:22Z</time>
      </trkpt>
      <trkpt lat="47.94483" lon="7.02118">
        <ele>1241.1</ele>
        <time>2021-08-07T10:02:23Z</time>
      </trkpt>
      <trkpt lat="47.94473" lon="7.02092">
        <ele>1239.4</ele>
        <time>2021-08-07T10:02:25Z</time>
      </trkpt>
      <trkpt lat="47.94461" lon="7.02067">
        <ele>1237.9</ele>
        <time>2021-08-07T10:02:27Z</time>
      </trkpt>
      <trkpt lat="47.94454" lon="7.02054">
        <ele>1237.1</ele>
        <time>2021-08-07T10:02:28Z</time>
      </trkpt>
      <trkpt lat="47.94441" lon="7.02031">
        <ele>1235.7</ele>
        <time>2021-08-07T10:02:30Z</time>
      </trkpt>
      <trkpt lat="47.94436" lon="7.02021">
        <ele>1235</ele>
        <time>2021-08-07T10:02:31Z</time>
      </trkpt>
      <trkpt lat="47.9442" lon="7.02004">
        <ele>1233.3</ele>
        <time>2021-08-07T10:02:33Z</time>
      </trkpt>
      <trkpt lat="47.94412" lon="7.01999">
        <ele>1232.4</ele>
        <time>2021-08-07T10:02:34Z</time>
      </trkpt>
      <trkpt lat="47.94403" lon="7.01996">
        <ele>1231.4</ele>
        <time>2021-08-07T10:02:35Z</time>
      </trkpt>
      <trkpt lat="47.94385" lon="7.01994">
        <ele>1229.6</ele>
        <time>2021-08-07T10:02:37Z</time>
      </trkpt>
      <trkpt lat="47.94367" lon="7.01997">
        <ele>1228</ele>
        <time>2021-08-07T10:02:39Z</time>
      </trkpt>
      <trkpt lat="47.94359" lon="7.02">
        <ele>1227.3</ele>
        <time>2021-08-07T10:02:40Z</time>
      </trkpt>
      <trkpt lat="47.94341" lon="7.02005">
        <ele>1226</ele>
        <time>2021-08-07T10:02:42Z</time>
      </trkpt>
      <trkpt lat="47.94332" lon="7.0201">
        <ele>1225.3</ele>
        <time>2021-08-07T10:02:43Z</time>
      </trkpt>
      <trkpt lat="47.94313" lon="7.02022">
        <ele>1224</ele>
        <time>2021-08-07T10:02:45Z</time>
      </trkpt>
      <trkpt lat="47.94305" lon="7.0203">
        <ele>1223.4</ele>
        <time>2021-08-07T10:02:46Z</time>
      </trkpt>
      <trkpt lat="47.94298" lon="7.02039">
        <ele>1222.8</ele>
        <time>2021-08-07T10:02:47Z</time>
      </trkpt>
      <trkpt lat="47.94292" lon="7.02049">
        <ele>1222.3</ele>
        <time>2021-08-07T10:02:48Z</time>
      </trkpt>
      <trkpt lat="47.94287" lon="7.02059">
        <ele>1222</ele>
        <time>2021-08-07T10:02:49Z</time>
      </trkpt>
      <trkpt lat="47.94277" lon="7.02079">
        <ele>1221.4</ele>
        <time>2021-08-07T10:02:51Z</time>
      </trkpt>
      <trkpt lat="47.94273" lon="7.02088">
        <ele>1221</ele>
        <time>2021-08-07T10:02:52Z</time>
      </trkpt>
      <trkpt lat="47.94264" lon="7.02101">
        <ele>1220.1</ele>
        <time>2021-08-07T10:02:54Z</time>
      </trkpt>
      <trkpt lat="47.94261" lon="7.02104">
        <ele>1218.6</ele>
        <time>2021-08-07T10:02:55Z</time>
      </trkpt>
      <trkpt lat="47.94258" lon="7.02106">
        <ele>1218.2</ele>
        <time>2021-08-07T10:02:57Z</time>
      </trkpt>
      <trkpt lat="47.94257" lon="7.02107">
        <ele>1218</ele>
        <time>2021-08-07T10:02:58Z</time>
      </trkpt>
      <trkpt lat="47.94252" lon="7.02112">
        <ele>1217.5</ele>
        <time>2021-08-07T10:03:00Z</time>
      </trkpt>
      <trkpt lat="47.94248" lon="7.02117">
        <ele>1217</ele>
        <time>2021-08-07T10:03:01Z</time>
      </trkpt>
      <trkpt lat="47.94242" lon="7.02132">
        <ele>1215.8</ele>
        <time>2021-08-07T10:03:03Z</time>
      </trkpt>
      <trkpt lat="47.94238" lon="7.02141">
        <ele>1215.1</ele>
        <time>2021-08-07T10:03:04Z</time>
      </trkpt>
      <trkpt lat="47.94234" lon="7.02152">
        <ele>1214.4</ele>
        <time>2021-08-07T10:03:05Z</time>
      </trkpt>
      <trkpt lat="47.9423" lon="7.02164">
        <ele>1213.8</ele>
        <time>2021-08-07T10:03:06Z</time>
      </trkpt>
      <trkpt lat="47.94226" lon="7.02176">
        <ele>1213.2</ele>
        <time>2021-08-07T10:03:07Z</time>
      </trkpt>
      <trkpt lat="47.94218" lon="7.02201">
        <ele>1212.1</ele>
        <time>2021-08-07T10:03:09Z</time>
      </trkpt>
      <trkpt lat="47.94213" lon="7.02213">
        <ele>1211.5</ele>
        <time>2021-08-07T10:03:10Z</time>
      </trkpt>
      <trkpt lat="47.94205" lon="7.02239">
        <ele>1210.7</ele>
        <time>2021-08-07T10:03:12Z</time>
      </trkpt>
      <trkpt lat="47.94197" lon="7.02266">
        <ele>1210.1</ele>
        <time>2021-08-07T10:03:14Z</time>
      </trkpt>
      <trkpt lat="47.94193" lon="7.02278">
        <ele>1209.8</ele>
        <time>2021-08-07T10:03:15Z</time>
      </trkpt>
      <trkpt lat="47.94188" lon="7.0229">
        <ele>1209.5</ele>
        <time>2021-08-07T10:03:16Z</time>
      </trkpt>
      <trkpt lat="47.94182" lon="7.023">
        <ele>1209.2</ele>
        <time>2021-08-07T10:03:17Z</time>
      </trkpt>
      <trkpt lat="47.94177" lon="7.0231">
        <ele>1209</ele>
        <time>2021-08-07T10:03:18Z</time>
      </trkpt>
      <trkpt lat="47.94165" lon="7.02327">
        <ele>1208.5</ele>
        <time>2021-08-07T10:03:20Z</time>
      </trkpt>
      <trkpt lat="47.94152" lon="7.02337">
        <ele>1208.2</ele>
        <time>2021-08-07T10:03:22Z</time>
      </trkpt>
      <trkpt lat="47.94145" lon="7.0234">
        <ele>1208.1</ele>
        <time>2021-08-07T10:03:23Z</time>
      </trkpt>
      <trkpt lat="47.94133" lon="7.02341">
        <ele>1208</ele>
        <time>2021-08-07T10:03:25Z</time>
      </trkpt>
      <trkpt lat="47.94123" lon="7.02334">
        <ele>1208</ele>
        <time>2021-08-07T10:03:27Z</time>
      </trkpt>
      <trkpt lat="47.94118" lon="7.02328">
        <ele>1208</ele>
        <time>2021-08-07T10:03:28Z</time>
      </trkpt>
      <trkpt lat="47.9411" lon="7.02308">
        <ele>1207.9</ele>
        <time>2021-08-07T10:03:30Z</time>
      </trkpt>
      <trkpt lat="47.94108" lon="7.02299">
        <ele>1207.9</ele>
        <time>2021-08-07T10:03:31Z</time>
      </trkpt>
      <trkpt lat="47.94101" lon="7.02281">
        <ele>1207.8</ele>
        <time>2021-08-07T10:03:33Z</time>
      </trkpt>
      <trkpt lat="47.94098" lon="7.02272">
        <ele>1207.8</ele>
        <time>2021-08-07T10:03:34Z</time>
      </trkpt>
      <trkpt lat="47.94091" lon="7.02258">
        <ele>1207.8</ele>
        <time>2021-08-07T10:03:36Z</time>
      </trkpt>
      <trkpt lat="47.94088" lon="7.02253">
        <ele>1207.8</ele>
        <time>2021-08-07T10:03:37Z</time>
      </trkpt>
      <trkpt lat="47.94083" lon="7.02247">
        <ele>1207.8</ele>
        <time>2021-08-07T10:03:38Z</time>
      </trkpt>
      <trkpt lat="47.94074" lon="7.02235">
        <ele>1207.8</ele>
        <time>2021-08-07T10:03:40Z</time>
      </trkpt>
      <trkpt lat="47.9407" lon="7.02229">
        <ele>1207.8</ele>
        <time>2021-08-07T10:03:41Z</time>
      </trkpt>
      <trkpt lat="47.94061" lon="7.02219">
        <ele>1207.7</ele>
        <time>2021-08-07T10:03:43Z</time>
      </trkpt>
      <trkpt lat="47.94056" lon="7.02214">
        <ele>1207.7</ele>
        <time>2021-08-07T10:03:44Z</time>
      </trkpt>
      <trkpt lat="47.94047" lon="7.02204">
        <ele>1207.7</ele>
        <time>2021-08-07T10:03:46Z</time>
      </trkpt>
      <trkpt lat="47.94038" lon="7.02194">
        <ele>1207.7</ele>
        <time>2021-08-07T10:03:48Z</time>
      </trkpt>
      <trkpt lat="47.94034" lon="7.02189">
        <ele>1207.7</ele>
        <time>2021-08-07T10:03:49Z</time>
      </trkpt>
      <trkpt lat="47.94026" lon="7.02178">
        <ele>1207.7</ele>
        <time>2021-08-07T10:03:51Z</time>
      </trkpt>
      <trkpt lat="47.94021" lon="7.02172">
        <ele>1207.8</ele>
        <time>2021-08-07T10:03:52Z</time>
      </trkpt>
      <trkpt lat="47.94018" lon="7.02167">
        <ele>1207.8</ele>
        <time>2021-08-07T10:03:53Z</time>
      </trkpt>
      <trkpt lat="47.94014" lon="7.02163">
        <ele>1207.8</ele>
        <time>2021-08-07T10:03:55Z</time>
      </trkpt>
      <trkpt lat="47.94005" lon="7.02155">
        <ele>1207.8</ele>
        <time>2021-08-07T10:03:56Z</time>
      </trkpt>
      <trkpt lat="47.93996" lon="7.02148">
        <ele>1207.8</ele>
        <time>2021-08-07T10:03:58Z</time>
      </trkpt>
      <trkpt lat="47.93993" lon="7.02145">
        <ele>1207.7</ele>
        <time>2021-08-07T10:03:59Z</time>
      </trkpt>
      <trkpt lat="47.93984" lon="7.02139">
        <ele>1207.6</ele>
        <time>2021-08-07T10:04:01Z</time>
      </trkpt>
      <trkpt lat="47.93979" lon="7.02136">
        <ele>1207.5</ele>
        <time>2021-08-07T10:04:02Z</time>
      </trkpt>
      <trkpt lat="47.9397" lon="7.02134">
        <ele>1207.3</ele>
        <time>2021-08-07T10:04:04Z</time>
      </trkpt>
      <trkpt lat="47.93964" lon="7.02133">
        <ele>1207.1</ele>
        <time>2021-08-07T10:04:05Z</time>
      </trkpt>
      <trkpt lat="47.93952" lon="7.02133">
        <ele>1206.5</ele>
        <time>2021-08-07T10:04:07Z</time>
      </trkpt>
      <trkpt lat="47.93941" lon="7.02135">
        <ele>1205.9</ele>
        <time>2021-08-07T10:04:09Z</time>
      </trkpt>
      <trkpt lat="47.93936" lon="7.02139">
        <ele>1205.5</ele>
        <time>2021-08-07T10:04:10Z</time>
      </trkpt>
      <trkpt lat="47.9393" lon="7.02142">
        <ele>1205.2</ele>
        <time>2021-08-07T10:04:11Z</time>
      </trkpt>
      <trkpt lat="47.93918" lon="7.02153">
        <ele>1204.3</ele>
        <time>2021-08-07T10:04:13Z</time>
      </trkpt>
      <trkpt lat="47.93911" lon="7.02159">
        <ele>1203.9</ele>
        <time>2021-08-07T10:04:14Z</time>
      </trkpt>
      <trkpt lat="47.93905" lon="7.02164">
        <ele>1203.5</ele>
        <time>2021-08-07T10:04:15Z</time>
      </trkpt>
      <trkpt lat="47.93892" lon="7.02176">
        <ele>1202.8</ele>
        <time>2021-08-07T10:04:17Z</time>
      </trkpt>
      <trkpt lat="47.9388" lon="7.02188">
        <ele>1202.1</ele>
        <time>2021-08-07T10:04:19Z</time>
      </trkpt>
      <trkpt lat="47.93873" lon="7.02194">
        <ele>1201.8</ele>
        <time>2021-08-07T10:04:20Z</time>
      </trkpt>
      <trkpt lat="47.93867" lon="7.022">
        <ele>1201.6</ele>
        <time>2021-08-07T10:04:21Z</time>
      </trkpt>
      <trkpt lat="47.9386" lon="7.02206">
        <ele>1201.3</ele>
        <time>2021-08-07T10:04:22Z</time>
      </trkpt>
      <trkpt lat="47.93847" lon="7.02217">
        <ele>1201</ele>
        <time>2021-08-07T10:04:24Z</time>
      </trkpt>
      <trkpt lat="47.93833" lon="7.02225">
        <ele>1200.9</ele>
        <time>2021-08-07T10:04:26Z</time>
      </trkpt>
      <trkpt lat="47.93819" lon="7.0223">
        <ele>1200.8</ele>
        <time>2021-08-07T10:04:28Z</time>
      </trkpt>
      <trkpt lat="47.93806" lon="7.0223">
        <ele>1200.8</ele>
        <time>2021-08-07T10:04:30Z</time>
      </trkpt>
      <trkpt lat="47.938" lon="7.02227">
        <ele>1200.8</ele>
        <time>2021-08-07T10:04:31Z</time>
      </trkpt>
      <trkpt lat="47.93789" lon="7.02217">
        <ele>1200.9</ele>
        <time>2021-08-07T10:04:33Z</time>
      </trkpt>
      <trkpt lat="47.93784" lon="7.02212">
        <ele>1200.9</ele>
        <time>2021-08-07T10:04:34Z</time>
      </trkpt>
      <trkpt lat="47.93779" lon="7.02205">
        <ele>1200.9</ele>
        <time>2021-08-07T10:04:35Z</time>
      </trkpt>
      <trkpt lat="47.9377" lon="7.02191">
        <ele>1201</ele>
        <time>2021-08-07T10:04:37Z</time>
      </trkpt>
      <trkpt lat="47.93762" lon="7.02178">
        <ele>1201.1</ele>
        <time>2021-08-07T10:04:39Z</time>
      </trkpt>
      <trkpt lat="47.93757" lon="7.02168">
        <ele>1201.3</ele>
        <time>2021-08-07T10:04:41Z</time>
      </trkpt>
      <trkpt lat="47.9375" lon="7.02159">
        <ele>1201.5</ele>
        <time>2021-08-07T10:04:43Z</time>
      </trkpt>
      <trkpt lat="47.93746" lon="7.02154">
        <ele>1201.5</ele>
        <time>2021-08-07T10:04:44Z</time>
      </trkpt>
      <trkpt lat="47.93742" lon="7.02149">
        <ele>1201.6</ele>
        <time>2021-08-07T10:04:45Z</time>
      </trkpt>
      <trkpt lat="47.93736" lon="7.02144">
        <ele>1201.7</ele>
        <time>2021-08-07T10:04:47Z</time>
      </trkpt>
      <trkpt lat="47.9373" lon="7.02137">
        <ele>1201.9</ele>
        <time>2021-08-07T10:04:49Z</time>
      </trkpt>
      <trkpt lat="47.93726" lon="7.02131">
        <ele>1202</ele>
        <time>2021-08-07T10:04:50Z</time>
      </trkpt>
      <trkpt lat="47.93723" lon="7.02127">
        <ele>1202</ele>
        <time>2021-08-07T10:04:51Z</time>
      </trkpt>
      <trkpt lat="47.9372" lon="7.02122">
        <ele>1202.1</ele>
        <time>2021-08-07T10:04:52Z</time>
      </trkpt>
      <trkpt lat="47.93715" lon="7.02116">
        <ele>1202.2</ele>
        <time>2021-08-07T10:04:54Z</time>
      </trkpt>
      <trkpt lat="47.93713" lon="7.02112">
        <ele>1202.2</ele>
        <time>2021-08-07T10:04:55Z</time>
      </trkpt>
      <trkpt lat="47.93708" lon="7.02105">
        <ele>1202.3</ele>
        <time>2021-08-07T10:04:57Z</time>
      </trkpt>
      <trkpt lat="47.93705" lon="7.02102">
        <ele>1202.3</ele>
        <time>2021-08-07T10:04:58Z</time>
      </trkpt>
      <trkpt lat="47.93698" lon="7.02099">
        <ele>1202.4</ele>
        <time>2021-08-07T10:05:00Z</time>
      </trkpt>
      <trkpt lat="47.93692" lon="7.02097">
        <ele>1202.4</ele>
        <time>2021-08-07T10:05:02Z</time>
      </trkpt>
      <trkpt lat="47.93688" lon="7.02095">
        <ele>1202.4</ele>
        <time>2021-08-07T10:05:03Z</time>
      </trkpt>
      <trkpt lat="47.93682" lon="7.02091">
        <ele>1202.3</ele>
        <time>2021-08-07T10:05:05Z</time>
      </trkpt>
      <trkpt lat="47.93679" lon="7.02088">
        <ele>1202.3</ele>
        <time>2021-08-07T10:05:06Z</time>
      </trkpt>
      <trkpt lat="47.93676" lon="7.02085">
        <ele>1202.2</ele>
        <time>2021-08-07T10:05:07Z</time>
      </trkpt>
      <trkpt lat="47.93672" lon="7.02083">
        <ele>1202.1</ele>
        <time>2021-08-07T10:05:08Z</time>
      </trkpt>
      <trkpt lat="47.93666" lon="7.02079">
        <ele>1201.9</ele>
        <time>2021-08-07T10:05:10Z</time>
      </trkpt>
      <trkpt lat="47.93659" lon="7.02074">
        <ele>1201.6</ele>
        <time>2021-08-07T10:05:12Z</time>
      </trkpt>
      <trkpt lat="47.93653" lon="7.02069">
        <ele>1201.3</ele>
        <time>2021-08-07T10:05:13Z</time>
      </trkpt>
      <trkpt lat="47.93642" lon="7.02061">
        <ele>1200.9</ele>
        <time>2021-08-07T10:05:15Z</time>
      </trkpt>
      <trkpt lat="47.93637" lon="7.02057">
        <ele>1200.7</ele>
        <time>2021-08-07T10:05:16Z</time>
      </trkpt>
      <trkpt lat="47.93631" lon="7.02054">
        <ele>1200.5</ele>
        <time>2021-08-07T10:05:17Z</time>
      </trkpt>
      <trkpt lat="47.93626" lon="7.0205">
        <ele>1200.4</ele>
        <time>2021-08-07T10:05:18Z</time>
      </trkpt>
      <trkpt lat="47.93614" lon="7.02044">
        <ele>1200.2</ele>
        <time>2021-08-07T10:05:20Z</time>
      </trkpt>
      <trkpt lat="47.93603" lon="7.02036">
        <ele>1200.2</ele>
        <time>2021-08-07T10:05:22Z</time>
      </trkpt>
      <trkpt lat="47.93598" lon="7.02032">
        <ele>1200.3</ele>
        <time>2021-08-07T10:05:23Z</time>
      </trkpt>
      <trkpt lat="47.93593" lon="7.02028">
        <ele>1200.3</ele>
        <time>2021-08-07T10:05:24Z</time>
      </trkpt>
      <trkpt lat="47.93589" lon="7.02024">
        <ele>1200.4</ele>
        <time>2021-08-07T10:05:25Z</time>
      </trkpt>
      <trkpt lat="47.9358" lon="7.02018">
        <ele>1200.7</ele>
        <time>2021-08-07T10:05:27Z</time>
      </trkpt>
      <trkpt lat="47.93572" lon="7.02013">
        <ele>1200.9</ele>
        <time>2021-08-07T10:05:29Z</time>
      </trkpt>
      <trkpt lat="47.93563" lon="7.02008">
        <ele>1201.2</ele>
        <time>2021-08-07T10:05:31Z</time>
      </trkpt>
      <trkpt lat="47.93559" lon="7.02006">
        <ele>1201.3</ele>
        <time>2021-08-07T10:05:32Z</time>
      </trkpt>
      <trkpt lat="47.93556" lon="7.02003">
        <ele>1201.4</ele>
        <time>2021-08-07T10:05:33Z</time>
      </trkpt>
      <trkpt lat="47.93553" lon="7.02001">
        <ele>1201.5</ele>
        <time>2021-08-07T10:05:34Z</time>
      </trkpt>
      <trkpt lat="47.9355" lon="7.01998">
        <ele>1201.6</ele>
        <time>2021-08-07T10:05:36Z</time>
      </trkpt>
      <trkpt lat="47.93547" lon="7.01997">
        <ele>1201.6</ele>
        <time>2021-08-07T10:05:37Z</time>
      </trkpt>
      <trkpt lat="47.93543" lon="7.01995">
        <ele>1201.7</ele>
        <time>2021-08-07T10:05:38Z</time>
      </trkpt>
      <trkpt lat="47.93538" lon="7.01993">
        <ele>1201.8</ele>
        <time>2021-08-07T10:05:40Z</time>
      </trkpt>
      <trkpt lat="47.93534" lon="7.01991">
        <ele>1201.8</ele>
        <time>2021-08-07T10:05:41Z</time>
      </trkpt>
      <trkpt lat="47.93531" lon="7.01988">
        <ele>1201.9</ele>
        <time>2021-08-07T10:05:43Z</time>
      </trkpt>
      <trkpt lat="47.93528" lon="7.01986">
        <ele>1201.9</ele>
        <time>2021-08-07T10:05:44Z</time>
      </trkpt>
      <trkpt lat="47.93525" lon="7.01983">
        <ele>1201.9</ele>
        <time>2021-08-07T10:05:45Z</time>
      </trkpt>
      <trkpt lat="47.93523" lon="7.0198">
        <ele>1202</ele>
        <time>2021-08-07T10:05:46Z</time>
      </trkpt>
      <trkpt lat="47.93519" lon="7.01976">
        <ele>1202</ele>
        <time>2021-08-07T10:05:48Z</time>
      </trkpt>
      <trkpt lat="47.93517" lon="7.01973">
        <ele>1202</ele>
        <time>2021-08-07T10:05:49Z</time>
      </trkpt>
      <trkpt lat="47.93514" lon="7.01969">
        <ele>1202.1</ele>
        <time>2021-08-07T10:05:50Z</time>
      </trkpt>
      <trkpt lat="47.93513" lon="7.01968">
        <ele>1202.1</ele>
        <time>2021-08-07T10:05:51Z</time>
      </trkpt>
      <trkpt lat="47.9351" lon="7.01965">
        <ele>1202.1</ele>
        <time>2021-08-07T10:05:52Z</time>
      </trkpt>
      <trkpt lat="47.93507" lon="7.01962">
        <ele>1202.2</ele>
        <time>2021-08-07T10:05:53Z</time>
      </trkpt>
      <trkpt lat="47.93503" lon="7.0196">
        <ele>1202.2</ele>
        <time>2021-08-07T10:05:54Z</time>
      </trkpt>
      <trkpt lat="47.93498" lon="7.01957">
        <ele>1202.2</ele>
        <time>2021-08-07T10:05:56Z</time>
      </trkpt>
      <trkpt lat="47.93495" lon="7.01955">
        <ele>1202.3</ele>
        <time>2021-08-07T10:05:57Z</time>
      </trkpt>
      <trkpt lat="47.9349" lon="7.01951">
        <ele>1202.3</ele>
        <time>2021-08-07T10:05:59Z</time>
      </trkpt>
      <trkpt lat="47.93487" lon="7.0195">
        <ele>1202.3</ele>
        <time>2021-08-07T10:06:00Z</time>
      </trkpt>
      <trkpt lat="47.93484" lon="7.01949">
        <ele>1202.3</ele>
        <time>2021-08-07T10:06:01Z</time>
      </trkpt>
      <trkpt lat="47.9348" lon="7.0195">
        <ele>1202.3</ele>
        <time>2021-08-07T10:06:02Z</time>
      </trkpt>
      <trkpt lat="47.93477" lon="7.0195">
        <ele>1202.3</ele>
        <time>2021-08-07T10:06:03Z</time>
      </trkpt>
      <trkpt lat="47.93474" lon="7.01949">
        <ele>1202.2</ele>
        <time>2021-08-07T10:06:04Z</time>
      </trkpt>
      <trkpt lat="47.93471" lon="7.01948">
        <ele>1202.2</ele>
        <time>2021-08-07T10:06:06Z</time>
      </trkpt>
      <trkpt lat="47.93468" lon="7.01947">
        <ele>1202.2</ele>
        <time>2021-08-07T10:06:07Z</time>
      </trkpt>
      <trkpt lat="47.93464" lon="7.01945">
        <ele>1202.2</ele>
        <time>2021-08-07T10:06:08Z</time>
      </trkpt>
      <trkpt lat="47.9346" lon="7.01942">
        <ele>1202.2</ele>
        <time>2021-08-07T10:06:09Z</time>
      </trkpt>
      <trkpt lat="47.93455" lon="7.01939">
        <ele>1202.2</ele>
        <time>2021-08-07T10:06:11Z</time>
      </trkpt>
      <trkpt lat="47.93452" lon="7.01937">
        <ele>1202.2</ele>
        <time>2021-08-07T10:06:12Z</time>
      </trkpt>
      <trkpt lat="47.93447" lon="7.01935">
        <ele>1202.2</ele>
        <time>2021-08-07T10:06:14Z</time>
      </trkpt>
      <trkpt lat="47.93443" lon="7.01933">
        <ele>1202.2</ele>
        <time>2021-08-07T10:06:16Z</time>
      </trkpt>
      <trkpt lat="47.93439" lon="7.01931">
        <ele>1202.3</ele>
        <time>2021-08-07T10:06:17Z</time>
      </trkpt>
      <trkpt lat="47.93434" lon="7.01929">
        <ele>1202.3</ele>
        <time>2021-08-07T10:06:19Z</time>
      </trkpt>
      <trkpt lat="47.93431" lon="7.01926">
        <ele>1202.3</ele>
        <time>2021-08-07T10:06:20Z</time>
      </trkpt>
      <trkpt lat="47.93427" lon="7.01923">
        <ele>1202.4</ele>
        <time>2021-08-07T10:06:22Z</time>
      </trkpt>
      <trkpt lat="47.93424" lon="7.01921">
        <ele>1202.4</ele>
        <time>2021-08-07T10:06:23Z</time>
      </trkpt>
      <trkpt lat="47.9342" lon="7.0192">
        <ele>1202.5</ele>
        <time>2021-08-07T10:06:24Z</time>
      </trkpt>
      <trkpt lat="47.93416" lon="7.01919">
        <ele>1202.5</ele>
        <time>2021-08-07T10:06:26Z</time>
      </trkpt>
      <trkpt lat="47.9341" lon="7.01917">
        <ele>1202.6</ele>
        <time>2021-08-07T10:06:27Z</time>
      </trkpt>
      <trkpt lat="47.93407" lon="7.01916">
        <ele>1202.6</ele>
        <time>2021-08-07T10:06:28Z</time>
      </trkpt>
      <trkpt lat="47.93402" lon="7.01914">
        <ele>1202.6</ele>
        <time>2021-08-07T10:06:30Z</time>
      </trkpt>
      <trkpt lat="47.93395" lon="7.01911">
        <ele>1202.7</ele>
        <time>2021-08-07T10:06:32Z</time>
      </trkpt>
      <trkpt lat="47.93391" lon="7.0191">
        <ele>1202.8</ele>
        <time>2021-08-07T10:06:33Z</time>
      </trkpt>
      <trkpt lat="47.93388" lon="7.01908">
        <ele>1202.8</ele>
        <time>2021-08-07T10:06:34Z</time>
      </trkpt>
      <trkpt lat="47.93384" lon="7.01906">
        <ele>1202.9</ele>
        <time>2021-08-07T10:06:36Z</time>
      </trkpt>
      <trkpt lat="47.93381" lon="7.01904">
        <ele>1202.9</ele>
        <time>2021-08-07T10:06:37Z</time>
      </trkpt>
      <trkpt lat="47.93378" lon="7.01903">
        <ele>1202.9</ele>
        <time>2021-08-07T10:06:38Z</time>
      </trkpt>
      <trkpt lat="47.93374" lon="7.01902">
        <ele>1202.9</ele>
        <time>2021-08-07T10:06:39Z</time>
      </trkpt>
      <trkpt lat="47.93371" lon="7.01901">
        <ele>1203</ele>
        <time>2021-08-07T10:06:40Z</time>
      </trkpt>
      <trkpt lat="47.93369" lon="7.01899">
        <ele>1203</ele>
        <time>2021-08-07T10:06:41Z</time>
      </trkpt>
      <trkpt lat="47.93365" lon="7.01897">
        <ele>1203</ele>
        <time>2021-08-07T10:06:42Z</time>
      </trkpt>
      <trkpt lat="47.93361" lon="7.01895">
        <ele>1203</ele>
        <time>2021-08-07T10:06:43Z</time>
      </trkpt>
      <trkpt lat="47.93357" lon="7.01894">
        <ele>1203</ele>
        <time>2021-08-07T10:06:45Z</time>
      </trkpt>
      <trkpt lat="47.93353" lon="7.01892">
        <ele>1203</ele>
        <time>2021-08-07T10:06:46Z</time>
      </trkpt>
      <trkpt lat="47.93348" lon="7.0189">
        <ele>1203</ele>
        <time>2021-08-07T10:06:48Z</time>
      </trkpt>
      <trkpt lat="47.93343" lon="7.01889">
        <ele>1203</ele>
        <time>2021-08-07T10:06:49Z</time>
      </trkpt>
      <trkpt lat="47.93339" lon="7.01888">
        <ele>1203</ele>
        <time>2021-08-07T10:06:50Z</time>
      </trkpt>
      <trkpt lat="47.93336" lon="7.01887">
        <ele>1203</ele>
        <time>2021-08-07T10:06:51Z</time>
      </trkpt>
      <trkpt lat="47.93333" lon="7.01887">
        <ele>1203</ele>
        <time>2021-08-07T10:06:52Z</time>
      </trkpt>
      <trkpt lat="47.93329" lon="7.01885">
        <ele>1202.9</ele>
        <time>2021-08-07T10:06:54Z</time>
      </trkpt>
      <trkpt lat="47.93325" lon="7.01885">
        <ele>1202.9</ele>
        <time>2021-08-07T10:06:55Z</time>
      </trkpt>
      <trkpt lat="47.93321" lon="7.01885">
        <ele>1202.8</ele>
        <time>2021-08-07T10:06:57Z</time>
      </trkpt>
      <trkpt lat="47.93317" lon="7.01886">
        <ele>1202.7</ele>
        <time>2021-08-07T10:06:58Z</time>
      </trkpt>
      <trkpt lat="47.93311" lon="7.01886">
        <ele>1202.6</ele>
        <time>2021-08-07T10:06:59Z</time>
      </trkpt>
      <trkpt lat="47.93303" lon="7.01887">
        <ele>1202.4</ele>
        <time>2021-08-07T10:07:01Z</time>
      </trkpt>
      <trkpt lat="47.93295" lon="7.01888">
        <ele>1202.3</ele>
        <time>2021-08-07T10:07:02Z</time>
      </trkpt>
      <trkpt lat="47.93285" lon="7.0189">
        <ele>1202.2</ele>
        <time>2021-08-07T10:07:04Z</time>
      </trkpt>
      <trkpt lat="47.9328" lon="7.01892">
        <ele>1202.2</ele>
        <time>2021-08-07T10:07:05Z</time>
      </trkpt>
      <trkpt lat="47.93269" lon="7.01898">
        <ele>1202.1</ele>
        <time>2021-08-07T10:07:07Z</time>
      </trkpt>
      <trkpt lat="47.93264" lon="7.01901">
        <ele>1202.1</ele>
        <time>2021-08-07T10:07:08Z</time>
      </trkpt>
      <trkpt lat="47.93254" lon="7.01907">
        <ele>1202.1</ele>
        <time>2021-08-07T10:07:10Z</time>
      </trkpt>
      <trkpt lat="47.9325" lon="7.0191">
        <ele>1202</ele>
        <time>2021-08-07T10:07:11Z</time>
      </trkpt>
      <trkpt lat="47.93241" lon="7.01918">
        <ele>1202.1</ele>
        <time>2021-08-07T10:07:13Z</time>
      </trkpt>
      <trkpt lat="47.93237" lon="7.01922">
        <ele>1202.1</ele>
        <time>2021-08-07T10:07:14Z</time>
      </trkpt>
      <trkpt lat="47.93233" lon="7.01925">
        <ele>1202.1</ele>
        <time>2021-08-07T10:07:15Z</time>
      </trkpt>
      <trkpt lat="47.93226" lon="7.01933">
        <ele>1202.2</ele>
        <time>2021-08-07T10:07:17Z</time>
      </trkpt>
      <trkpt lat="47.93222" lon="7.01937">
        <ele>1202.2</ele>
        <time>2021-08-07T10:07:18Z</time>
      </trkpt>
      <trkpt lat="47.93215" lon="7.01943">
        <ele>1202.3</ele>
        <time>2021-08-07T10:07:20Z</time>
      </trkpt>
      <trkpt lat="47.93208" lon="7.0195">
        <ele>1202.5</ele>
        <time>2021-08-07T10:07:22Z</time>
      </trkpt>
      <trkpt lat="47.932" lon="7.01957">
        <ele>1202.7</ele>
        <time>2021-08-07T10:07:24Z</time>
      </trkpt>
      <trkpt lat="47.93198" lon="7.01959">
        <ele>1202.7</ele>
        <time>2021-08-07T10:07:25Z</time>
      </trkpt>
      <trkpt lat="47.93199" lon="7.01959">
        <ele>1202.7</ele>
        <time>2021-08-07T10:07:26Z</time>
      </trkpt>
      <trkpt lat="47.93191" lon="7.01963">
        <ele>1202.9</ele>
        <time>2021-08-07T10:07:28Z</time>
      </trkpt>
      <trkpt lat="47.93181" lon="7.01971">
        <ele>1203.3</ele>
        <time>2021-08-07T10:07:30Z</time>
      </trkpt>
      <trkpt lat="47.93174" lon="7.01977">
        <ele>1203.6</ele>
        <time>2021-08-07T10:07:32Z</time>
      </trkpt>
      <trkpt lat="47.93169" lon="7.01981">
        <ele>1203.9</ele>
        <time>2021-08-07T10:07:33Z</time>
      </trkpt>
      <trkpt lat="47.93165" lon="7.01985">
        <ele>1204</ele>
        <time>2021-08-07T10:07:34Z</time>
      </trkpt>
      <trkpt lat="47.93159" lon="7.01987">
        <ele>1204.3</ele>
        <time>2021-08-07T10:07:36Z</time>
      </trkpt>
      <trkpt lat="47.93154" lon="7.01989">
        <ele>1204.6</ele>
        <time>2021-08-07T10:07:38Z</time>
      </trkpt>
      <trkpt lat="47.9315" lon="7.01993">
        <ele>1204.8</ele>
        <time>2021-08-07T10:07:40Z</time>
      </trkpt>
      <trkpt lat="47.93147" lon="7.01995">
        <ele>1204.9</ele>
        <time>2021-08-07T10:07:41Z</time>
      </trkpt>
      <trkpt lat="47.93142" lon="7.01998">
        <ele>1205.2</ele>
        <time>2021-08-07T10:07:43Z</time>
      </trkpt>
      <trkpt lat="47.93139" lon="7.02">
        <ele>1205.4</ele>
        <time>2021-08-07T10:07:45Z</time>
      </trkpt>
      <trkpt lat="47.93135" lon="7.02002">
        <ele>1205.5</ele>
        <time>2021-08-07T10:07:47Z</time>
      </trkpt>
      <trkpt lat="47.93133" lon="7.02003">
        <ele>1205.7</ele>
        <time>2021-08-07T10:07:48Z</time>
      </trkpt>
      <trkpt lat="47.93131" lon="7.02004">
        <ele>1205.8</ele>
        <time>2021-08-07T10:07:49Z</time>
      </trkpt>
      <trkpt lat="47.93126" lon="7.02005">
        <ele>1206</ele>
        <time>2021-08-07T10:07:51Z</time>
      </trkpt>
      <trkpt lat="47.93123" lon="7.02005">
        <ele>1206.1</ele>
        <time>2021-08-07T10:07:52Z</time>
      </trkpt>
      <trkpt lat="47.9312" lon="7.02005">
        <ele>1206.3</ele>
        <time>2021-08-07T10:07:53Z</time>
      </trkpt>
      <trkpt lat="47.93117" lon="7.02006">
        <ele>1206.5</ele>
        <time>2021-08-07T10:07:55Z</time>
      </trkpt>
      <trkpt lat="47.93114" lon="7.02007">
        <ele>1206.6</ele>
        <time>2021-08-07T10:07:56Z</time>
      </trkpt>
      <trkpt lat="47.93111" lon="7.02009">
        <ele>1206.8</ele>
        <time>2021-08-07T10:07:58Z</time>
      </trkpt>
      <trkpt lat="47.9311" lon="7.02009">
        <ele>1206.8</ele>
        <time>2021-08-07T10:07:59Z</time>
      </trkpt>
      <trkpt lat="47.93107" lon="7.02009">
        <ele>1207</ele>
        <time>2021-08-07T10:08:00Z</time>
      </trkpt>
      <trkpt lat="47.93103" lon="7.02009">
        <ele>1207.1</ele>
        <time>2021-08-07T10:08:01Z</time>
      </trkpt>
      <trkpt lat="47.93102" lon="7.0201">
        <ele>1207.2</ele>
        <time>2021-08-07T10:08:02Z</time>
      </trkpt>
      <trkpt lat="47.93097" lon="7.02012">
        <ele>1207.4</ele>
        <time>2021-08-07T10:08:04Z</time>
      </trkpt>
      <trkpt lat="47.93096" lon="7.02013">
        <ele>1207.5</ele>
        <time>2021-08-07T10:08:05Z</time>
      </trkpt>
      <trkpt lat="47.93094" lon="7.02014">
        <ele>1207.6</ele>
        <time>2021-08-07T10:08:06Z</time>
      </trkpt>
      <trkpt lat="47.93091" lon="7.02014">
        <ele>1207.7</ele>
        <time>2021-08-07T10:08:08Z</time>
      </trkpt>
      <trkpt lat="47.93088" lon="7.02014">
        <ele>1207.8</ele>
        <time>2021-08-07T10:08:10Z</time>
      </trkpt>
      <trkpt lat="47.93085" lon="7.02013">
        <ele>1208</ele>
        <time>2021-08-07T10:08:11Z</time>
      </trkpt>
      <trkpt lat="47.93082" lon="7.02012">
        <ele>1208.1</ele>
        <time>2021-08-07T10:08:12Z</time>
      </trkpt>
      <trkpt lat="47.9308" lon="7.02012">
        <ele>1208.1</ele>
        <time>2021-08-07T10:08:13Z</time>
      </trkpt>
      <trkpt lat="47.93076" lon="7.02011">
        <ele>1208.3</ele>
        <time>2021-08-07T10:08:15Z</time>
      </trkpt>
      <trkpt lat="47.93071" lon="7.02011">
        <ele>1208.5</ele>
        <time>2021-08-07T10:08:17Z</time>
      </trkpt>
      <trkpt lat="47.93067" lon="7.02011">
        <ele>1208.7</ele>
        <time>2021-08-07T10:08:19Z</time>
      </trkpt>
      <trkpt lat="47.93064" lon="7.02011">
        <ele>1208.8</ele>
        <time>2021-08-07T10:08:20Z</time>
      </trkpt>
      <trkpt lat="47.93061" lon="7.02011">
        <ele>1208.9</ele>
        <time>2021-08-07T10:08:21Z</time>
      </trkpt>
      <trkpt lat="47.93059" lon="7.02011">
        <ele>1209</ele>
        <time>2021-08-07T10:08:22Z</time>
      </trkpt>
      <trkpt lat="47.93055" lon="7.02011">
        <ele>1209.2</ele>
        <time>2021-08-07T10:08:24Z</time>
      </trkpt>
      <trkpt lat="47.93052" lon="7.02011">
        <ele>1209.3</ele>
        <time>2021-08-07T10:08:25Z</time>
      </trkpt>
      <trkpt lat="47.93048" lon="7.02011">
        <ele>1209.4</ele>
        <time>2021-08-07T10:08:27Z</time>
      </trkpt>
      <trkpt lat="47.93044" lon="7.02012">
        <ele>1209.6</ele>
        <time>2021-08-07T10:08:28Z</time>
      </trkpt>
      <trkpt lat="47.93042" lon="7.02012">
        <ele>1209.6</ele>
        <time>2021-08-07T10:08:29Z</time>
      </trkpt>
      <trkpt lat="47.93038" lon="7.02012">
        <ele>1209.8</ele>
        <time>2021-08-07T10:08:31Z</time>
      </trkpt>
      <trkpt lat="47.93033" lon="7.02012">
        <ele>1210</ele>
        <time>2021-08-07T10:08:33Z</time>
      </trkpt>
      <trkpt lat="47.9303" lon="7.02013">
        <ele>1210.1</ele>
        <time>2021-08-07T10:08:34Z</time>
      </trkpt>
      <trkpt lat="47.93026" lon="7.02014">
        <ele>1210.2</ele>
        <time>2021-08-07T10:08:36Z</time>
      </trkpt>
      <trkpt lat="47.93023" lon="7.02015">
        <ele>1210.3</ele>
        <time>2021-08-07T10:08:37Z</time>
      </trkpt>
      <trkpt lat="47.93022" lon="7.02015">
        <ele>1210.4</ele>
        <time>2021-08-07T10:08:38Z</time>
      </trkpt>
      <trkpt lat="47.9302" lon="7.02016">
        <ele>1210.4</ele>
        <time>2021-08-07T10:08:39Z</time>
      </trkpt>
      <trkpt lat="47.93019" lon="7.02016">
        <ele>1210.5</ele>
        <time>2021-08-07T10:08:40Z</time>
      </trkpt>
      <trkpt lat="47.93018" lon="7.02017">
        <ele>1210.5</ele>
        <time>2021-08-07T10:08:41Z</time>
      </trkpt>
      <trkpt lat="47.93015" lon="7.02016">
        <ele>1210.6</ele>
        <time>2021-08-07T10:08:43Z</time>
      </trkpt>
      <trkpt lat="47.93011" lon="7.02016">
        <ele>1210.7</ele>
        <time>2021-08-07T10:08:45Z</time>
      </trkpt>
      <trkpt lat="47.93006" lon="7.02015">
        <ele>1210.8</ele>
        <time>2021-08-07T10:08:47Z</time>
      </trkpt>
      <trkpt lat="47.93003" lon="7.02015">
        <ele>1210.9</ele>
        <time>2021-08-07T10:08:48Z</time>
      </trkpt>
      <trkpt lat="47.93001" lon="7.02015">
        <ele>1210.9</ele>
        <time>2021-08-07T10:08:49Z</time>
      </trkpt>
      <trkpt lat="47.93" lon="7.02015">
        <ele>1211</ele>
        <time>2021-08-07T10:08:50Z</time>
      </trkpt>
      <trkpt lat="47.92995" lon="7.02013">
        <ele>1211.1</ele>
        <time>2021-08-07T10:08:52Z</time>
      </trkpt>
      <trkpt lat="47.92993" lon="7.02013">
        <ele>1211.2</ele>
        <time>2021-08-07T10:08:53Z</time>
      </trkpt>
      <trkpt lat="47.92989" lon="7.02013">
        <ele>1211.3</ele>
        <time>2021-08-07T10:08:55Z</time>
      </trkpt>
      <trkpt lat="47.92985" lon="7.02011">
        <ele>1211.4</ele>
        <time>2021-08-07T10:08:57Z</time>
      </trkpt>
      <trkpt lat="47.92983" lon="7.0201">
        <ele>1211.4</ele>
        <time>2021-08-07T10:08:58Z</time>
      </trkpt>
      <trkpt lat="47.92979" lon="7.02008">
        <ele>1211.5</ele>
        <time>2021-08-07T10:09:00Z</time>
      </trkpt>
      <trkpt lat="47.92976" lon="7.02006">
        <ele>1211.6</ele>
        <time>2021-08-07T10:09:02Z</time>
      </trkpt>
      <trkpt lat="47.92971" lon="7.02005">
        <ele>1211.7</ele>
        <time>2021-08-07T10:09:03Z</time>
      </trkpt>
      <trkpt lat="47.9297" lon="7.02005">
        <ele>1211.7</ele>
        <time>2021-08-07T10:09:04Z</time>
      </trkpt>
      <trkpt lat="47.92967" lon="7.02005">
        <ele>1211.7</ele>
        <time>2021-08-07T10:09:05Z</time>
      </trkpt>
      <trkpt lat="47.92962" lon="7.02005">
        <ele>1211.8</ele>
        <time>2021-08-07T10:09:07Z</time>
      </trkpt>
      <trkpt lat="47.9296" lon="7.02004">
        <ele>1211.8</ele>
        <time>2021-08-07T10:09:08Z</time>
      </trkpt>
      <trkpt lat="47.92959" lon="7.02004">
        <ele>1211.8</ele>
        <time>2021-08-07T10:09:09Z</time>
      </trkpt>
      <trkpt lat="47.92955" lon="7.02002">
        <ele>1211.9</ele>
        <time>2021-08-07T10:09:10Z</time>
      </trkpt>
      <trkpt lat="47.92954" lon="7.02002">
        <ele>1211.9</ele>
        <time>2021-08-07T10:09:11Z</time>
      </trkpt>
      <trkpt lat="47.9295" lon="7.02">
        <ele>1211.9</ele>
        <time>2021-08-07T10:09:13Z</time>
      </trkpt>
      <trkpt lat="47.92947" lon="7.01998">
        <ele>1211.9</ele>
        <time>2021-08-07T10:09:14Z</time>
      </trkpt>
      <trkpt lat="47.92945" lon="7.01997">
        <ele>1211.9</ele>
        <time>2021-08-07T10:09:15Z</time>
      </trkpt>
      <trkpt lat="47.92943" lon="7.01997">
        <ele>1211.9</ele>
        <time>2021-08-07T10:09:16Z</time>
      </trkpt>
      <trkpt lat="47.9294" lon="7.01996">
        <ele>1211.9</ele>
        <time>2021-08-07T10:09:18Z</time>
      </trkpt>
      <trkpt lat="47.92937" lon="7.01995">
        <ele>1211.9</ele>
        <time>2021-08-07T10:09:19Z</time>
      </trkpt>
      <trkpt lat="47.92933" lon="7.01992">
        <ele>1211.9</ele>
        <time>2021-08-07T10:09:20Z</time>
      </trkpt>
      <trkpt lat="47.92929" lon="7.0199">
        <ele>1211.9</ele>
        <time>2021-08-07T10:09:21Z</time>
      </trkpt>
      <trkpt lat="47.92924" lon="7.01988">
        <ele>1211.9</ele>
        <time>2021-08-07T10:09:23Z</time>
      </trkpt>
      <trkpt lat="47.92921" lon="7.01987">
        <ele>1211.9</ele>
        <time>2021-08-07T10:09:24Z</time>
      </trkpt>
      <trkpt lat="47.92917" lon="7.01984">
        <ele>1211.9</ele>
        <time>2021-08-07T10:09:25Z</time>
      </trkpt>
      <trkpt lat="47.92914" lon="7.01983">
        <ele>1211.9</ele>
        <time>2021-08-07T10:09:27Z</time>
      </trkpt>
      <trkpt lat="47.92911" lon="7.01982">
        <ele>1211.9</ele>
        <time>2021-08-07T10:09:28Z</time>
      </trkpt>
      <trkpt lat="47.92906" lon="7.0198">
        <ele>1211.9</ele>
        <time>2021-08-07T10:09:29Z</time>
      </trkpt>
      <trkpt lat="47.92902" lon="7.01978">
        <ele>1211.9</ele>
        <time>2021-08-07T10:09:31Z</time>
      </trkpt>
      <trkpt lat="47.92899" lon="7.01978">
        <ele>1211.9</ele>
        <time>2021-08-07T10:09:32Z</time>
      </trkpt>
      <trkpt lat="47.92895" lon="7.01978">
        <ele>1211.9</ele>
        <time>2021-08-07T10:09:33Z</time>
      </trkpt>
      <trkpt lat="47.92889" lon="7.01977">
        <ele>1211.9</ele>
        <time>2021-08-07T10:09:35Z</time>
      </trkpt>
      <trkpt lat="47.92886" lon="7.01975">
        <ele>1211.9</ele>
        <time>2021-08-07T10:09:36Z</time>
      </trkpt>
      <trkpt lat="47.92883" lon="7.01973">
        <ele>1211.9</ele>
        <time>2021-08-07T10:09:37Z</time>
      </trkpt>
      <trkpt lat="47.9288" lon="7.01972">
        <ele>1211.9</ele>
        <time>2021-08-07T10:09:38Z</time>
      </trkpt>
      <trkpt lat="47.92877" lon="7.01971">
        <ele>1211.9</ele>
        <time>2021-08-07T10:09:39Z</time>
      </trkpt>
      <trkpt lat="47.9287" lon="7.01969">
        <ele>1211.9</ele>
        <time>2021-08-07T10:09:41Z</time>
      </trkpt>
      <trkpt lat="47.92867" lon="7.01969">
        <ele>1211.9</ele>
        <time>2021-08-07T10:09:42Z</time>
      </trkpt>
      <trkpt lat="47.92864" lon="7.01969">
        <ele>1211.9</ele>
        <time>2021-08-07T10:09:43Z</time>
      </trkpt>
      <trkpt lat="47.92861" lon="7.01968">
        <ele>1211.9</ele>
        <time>2021-08-07T10:09:44Z</time>
      </trkpt>
      <trkpt lat="47.92857" lon="7.01967">
        <ele>1211.9</ele>
        <time>2021-08-07T10:09:45Z</time>
      </trkpt>
      <trkpt lat="47.92853" lon="7.01967">
        <ele>1211.9</ele>
        <time>2021-08-07T10:09:46Z</time>
      </trkpt>
      <trkpt lat="47.9285" lon="7.01966">
        <ele>1211.9</ele>
        <time>2021-08-07T10:09:47Z</time>
      </trkpt>
      <trkpt lat="47.92845" lon="7.01966">
        <ele>1211.9</ele>
        <time>2021-08-07T10:09:48Z</time>
      </trkpt>
      <trkpt lat="47.92841" lon="7.01965">
        <ele>1211.9</ele>
        <time>2021-08-07T10:09:50Z</time>
      </trkpt>
      <trkpt lat="47.92836" lon="7.01965">
        <ele>1211.9</ele>
        <time>2021-08-07T10:09:51Z</time>
      </trkpt>
      <trkpt lat="47.92831" lon="7.01965">
        <ele>1211.9</ele>
        <time>2021-08-07T10:09:52Z</time>
      </trkpt>
      <trkpt lat="47.92825" lon="7.01966">
        <ele>1211.9</ele>
        <time>2021-08-07T10:09:54Z</time>
      </trkpt>
      <trkpt lat="47.9282" lon="7.01967">
        <ele>1211.9</ele>
        <time>2021-08-07T10:09:55Z</time>
      </trkpt>
      <trkpt lat="47.92816" lon="7.01969">
        <ele>1211.8</ele>
        <time>2021-08-07T10:09:56Z</time>
      </trkpt>
      <trkpt lat="47.9281" lon="7.01973">
        <ele>1211.8</ele>
        <time>2021-08-07T10:09:58Z</time>
      </trkpt>
      <trkpt lat="47.92807" lon="7.01976">
        <ele>1211.8</ele>
        <time>2021-08-07T10:09:59Z</time>
      </trkpt>
      <trkpt lat="47.92804" lon="7.0198">
        <ele>1211.7</ele>
        <time>2021-08-07T10:10:00Z</time>
      </trkpt>
      <trkpt lat="47.92801" lon="7.01984">
        <ele>1211.7</ele>
        <time>2021-08-07T10:10:01Z</time>
      </trkpt>
      <trkpt lat="47.92796" lon="7.01993">
        <ele>1211.7</ele>
        <time>2021-08-07T10:10:03Z</time>
      </trkpt>
      <trkpt lat="47.92794" lon="7.01999">
        <ele>1211.6</ele>
        <time>2021-08-07T10:10:04Z</time>
      </trkpt>
      <trkpt lat="47.92786" lon="7.02012">
        <ele>1211.5</ele>
        <time>2021-08-07T10:10:06Z</time>
      </trkpt>
      <trkpt lat="47.9278" lon="7.02029">
        <ele>1211.3</ele>
        <time>2021-08-07T10:10:08Z</time>
      </trkpt>
      <trkpt lat="47.92778" lon="7.02044">
        <ele>1211</ele>
        <time>2021-08-07T10:10:10Z</time>
      </trkpt>
      <trkpt lat="47.92778" lon="7.0205">
        <ele>1210.9</ele>
        <time>2021-08-07T10:10:11Z</time>
      </trkpt>
      <trkpt lat="47.9278" lon="7.02063">
        <ele>1210.8</ele>
        <time>2021-08-07T10:10:13Z</time>
      </trkpt>
      <trkpt lat="47.92785" lon="7.02076">
        <ele>1210.6</ele>
        <time>2021-08-07T10:10:15Z</time>
      </trkpt>
      <trkpt lat="47.92787" lon="7.02083">
        <ele>1210.5</ele>
        <time>2021-08-07T10:10:16Z</time>
      </trkpt>
      <trkpt lat="47.9279" lon="7.0209">
        <ele>1210.4</ele>
        <time>2021-08-07T10:10:17Z</time>
      </trkpt>
      <trkpt lat="47.92795" lon="7.02105">
        <ele>1210.3</ele>
        <time>2021-08-07T10:10:19Z</time>
      </trkpt>
      <trkpt lat="47.92798" lon="7.02112">
        <ele>1210.2</ele>
        <time>2021-08-07T10:10:20Z</time>
      </trkpt>
      <trkpt lat="47.92806" lon="7.02127">
        <ele>1210</ele>
        <time>2021-08-07T10:10:22Z</time>
      </trkpt>
      <trkpt lat="47.92814" lon="7.02141">
        <ele>1209.8</ele>
        <time>2021-08-07T10:10:24Z</time>
      </trkpt>
      <trkpt lat="47.92818" lon="7.02149">
        <ele>1209.7</ele>
        <time>2021-08-07T10:10:25Z</time>
      </trkpt>
      <trkpt lat="47.92827" lon="7.02165">
        <ele>1209.5</ele>
        <time>2021-08-07T10:10:27Z</time>
      </trkpt>
      <trkpt lat="47.92837" lon="7.0218">
        <ele>1209.4</ele>
        <time>2021-08-07T10:10:29Z</time>
      </trkpt>
      <trkpt lat="47.9284" lon="7.02189">
        <ele>1209.2</ele>
        <time>2021-08-07T10:10:30Z</time>
      </trkpt>
      <trkpt lat="47.92843" lon="7.02197">
        <ele>1209.1</ele>
        <time>2021-08-07T10:10:31Z</time>
      </trkpt>
      <trkpt lat="47.92847" lon="7.02215">
        <ele>1208.9</ele>
        <time>2021-08-07T10:10:33Z</time>
      </trkpt>
      <trkpt lat="47.92849" lon="7.02234">
        <ele>1208.7</ele>
        <time>2021-08-07T10:10:35Z</time>
      </trkpt>
      <trkpt lat="47.92849" lon="7.02244">
        <ele>1208.6</ele>
        <time>2021-08-07T10:10:36Z</time>
      </trkpt>
      <trkpt lat="47.92849" lon="7.02265">
        <ele>1208.5</ele>
        <time>2021-08-07T10:10:38Z</time>
      </trkpt>
      <trkpt lat="47.92847" lon="7.02284">
        <ele>1208.3</ele>
        <time>2021-08-07T10:10:40Z</time>
      </trkpt>
      <trkpt lat="47.92845" lon="7.02302">
        <ele>1208.1</ele>
        <time>2021-08-07T10:10:42Z</time>
      </trkpt>
      <trkpt lat="47.92845" lon="7.02311">
        <ele>1208.1</ele>
        <time>2021-08-07T10:10:43Z</time>
      </trkpt>
      <trkpt lat="47.92844" lon="7.02319">
        <ele>1208</ele>
        <time>2021-08-07T10:10:44Z</time>
      </trkpt>
      <trkpt lat="47.92843" lon="7.02337">
        <ele>1207.9</ele>
        <time>2021-08-07T10:10:46Z</time>
      </trkpt>
      <trkpt lat="47.92842" lon="7.02346">
        <ele>1207.8</ele>
        <time>2021-08-07T10:10:47Z</time>
      </trkpt>
      <trkpt lat="47.92841" lon="7.02365">
        <ele>1207.6</ele>
        <time>2021-08-07T10:10:49Z</time>
      </trkpt>
      <trkpt lat="47.92839" lon="7.02383">
        <ele>1207.3</ele>
        <time>2021-08-07T10:10:51Z</time>
      </trkpt>
      <trkpt lat="47.92839" lon="7.02393">
        <ele>1207.2</ele>
        <time>2021-08-07T10:10:52Z</time>
      </trkpt>
      <trkpt lat="47.92838" lon="7.02404">
        <ele>1207.1</ele>
        <time>2021-08-07T10:10:53Z</time>
      </trkpt>
      <trkpt lat="47.92835" lon="7.02424">
        <ele>1206.9</ele>
        <time>2021-08-07T10:10:55Z</time>
      </trkpt>
      <trkpt lat="47.92834" lon="7.02433">
        <ele>1206.7</ele>
        <time>2021-08-07T10:10:56Z</time>
      </trkpt>
      <trkpt lat="47.92829" lon="7.02451">
        <ele>1206.5</ele>
        <time>2021-08-07T10:10:58Z</time>
      </trkpt>
      <trkpt lat="47.92822" lon="7.0247">
        <ele>1206.2</ele>
        <time>2021-08-07T10:11:00Z</time>
      </trkpt>
      <trkpt lat="47.92811" lon="7.0249">
        <ele>1205.8</ele>
        <time>2021-08-07T10:11:02Z</time>
      </trkpt>
      <trkpt lat="47.92805" lon="7.0251">
        <ele>1205.4</ele>
        <time>2021-08-07T10:11:04Z</time>
      </trkpt>
      <trkpt lat="47.92803" lon="7.02519">
        <ele>1205.2</ele>
        <time>2021-08-07T10:11:05Z</time>
      </trkpt>
      <trkpt lat="47.92796" lon="7.02538">
        <ele>1204.9</ele>
        <time>2021-08-07T10:11:07Z</time>
      </trkpt>
      <trkpt lat="47.92792" lon="7.02547">
        <ele>1204.7</ele>
        <time>2021-08-07T10:11:08Z</time>
      </trkpt>
      <trkpt lat="47.92784" lon="7.02563">
        <ele>1204.3</ele>
        <time>2021-08-07T10:11:10Z</time>
      </trkpt>
      <trkpt lat="47.9278" lon="7.02571">
        <ele>1204.1</ele>
        <time>2021-08-07T10:11:11Z</time>
      </trkpt>
      <trkpt lat="47.9277" lon="7.02587">
        <ele>1203.6</ele>
        <time>2021-08-07T10:11:13Z</time>
      </trkpt>
      <trkpt lat="47.92766" lon="7.02596">
        <ele>1203.3</ele>
        <time>2021-08-07T10:11:14Z</time>
      </trkpt>
      <trkpt lat="47.92757" lon="7.02613">
        <ele>1202.8</ele>
        <time>2021-08-07T10:11:16Z</time>
      </trkpt>
      <trkpt lat="47.92753" lon="7.02621">
        <ele>1202.6</ele>
        <time>2021-08-07T10:11:17Z</time>
      </trkpt>
      <trkpt lat="47.92748" lon="7.02639">
        <ele>1202.1</ele>
        <time>2021-08-07T10:11:19Z</time>
      </trkpt>
      <trkpt lat="47.92746" lon="7.02649">
        <ele>1201.8</ele>
        <time>2021-08-07T10:11:20Z</time>
      </trkpt>
      <trkpt lat="47.92744" lon="7.0267">
        <ele>1201.5</ele>
        <time>2021-08-07T10:11:22Z</time>
      </trkpt>
      <trkpt lat="47.92745" lon="7.02681">
        <ele>1201.3</ele>
        <time>2021-08-07T10:11:23Z</time>
      </trkpt>
      <trkpt lat="47.92747" lon="7.02703">
        <ele>1200.9</ele>
        <time>2021-08-07T10:11:25Z</time>
      </trkpt>
      <trkpt lat="47.92747" lon="7.02725">
        <ele>1200.2</ele>
        <time>2021-08-07T10:11:27Z</time>
      </trkpt>
      <trkpt lat="47.92747" lon="7.02736">
        <ele>1199.8</ele>
        <time>2021-08-07T10:11:28Z</time>
      </trkpt>
      <trkpt lat="47.92747" lon="7.02748">
        <ele>1199.5</ele>
        <time>2021-08-07T10:11:29Z</time>
      </trkpt>
      <trkpt lat="47.92748" lon="7.02771">
        <ele>1198.8</ele>
        <time>2021-08-07T10:11:31Z</time>
      </trkpt>
      <trkpt lat="47.92747" lon="7.02783">
        <ele>1198.5</ele>
        <time>2021-08-07T10:11:32Z</time>
      </trkpt>
      <trkpt lat="47.92746" lon="7.02803">
        <ele>1198</ele>
        <time>2021-08-07T10:11:34Z</time>
      </trkpt>
      <trkpt lat="47.92746" lon="7.02813">
        <ele>1197.7</ele>
        <time>2021-08-07T10:11:35Z</time>
      </trkpt>
      <trkpt lat="47.92746" lon="7.0283">
        <ele>1197.2</ele>
        <time>2021-08-07T10:11:37Z</time>
      </trkpt>
      <trkpt lat="47.92747" lon="7.02844">
        <ele>1196.8</ele>
        <time>2021-08-07T10:11:39Z</time>
      </trkpt>
      <trkpt lat="47.92747" lon="7.02851">
        <ele>1196.6</ele>
        <time>2021-08-07T10:11:40Z</time>
      </trkpt>
      <trkpt lat="47.92748" lon="7.02856">
        <ele>1196.4</ele>
        <time>2021-08-07T10:11:41Z</time>
      </trkpt>
      <trkpt lat="47.92747" lon="7.02861">
        <ele>1196.2</ele>
        <time>2021-08-07T10:11:42Z</time>
      </trkpt>
      <trkpt lat="47.92746" lon="7.02868">
        <ele>1196</ele>
        <time>2021-08-07T10:11:43Z</time>
      </trkpt>
      <trkpt lat="47.92744" lon="7.02874">
        <ele>1195.8</ele>
        <time>2021-08-07T10:11:44Z</time>
      </trkpt>
      <trkpt lat="47.92741" lon="7.02879">
        <ele>1195.6</ele>
        <time>2021-08-07T10:11:45Z</time>
      </trkpt>
      <trkpt lat="47.92734" lon="7.02891">
        <ele>1195.1</ele>
        <time>2021-08-07T10:11:47Z</time>
      </trkpt>
      <trkpt lat="47.92731" lon="7.02899">
        <ele>1194.9</ele>
        <time>2021-08-07T10:11:49Z</time>
      </trkpt>
      <trkpt lat="47.92727" lon="7.02904">
        <ele>1194.6</ele>
        <time>2021-08-07T10:11:50Z</time>
      </trkpt>
      <trkpt lat="47.92724" lon="7.02908">
        <ele>1194.4</ele>
        <time>2021-08-07T10:11:51Z</time>
      </trkpt>
      <trkpt lat="47.92722" lon="7.02911">
        <ele>1194.3</ele>
        <time>2021-08-07T10:11:53Z</time>
      </trkpt>
      <trkpt lat="47.92717" lon="7.02913">
        <ele>1194.1</ele>
        <time>2021-08-07T10:11:55Z</time>
      </trkpt>
      <trkpt lat="47.92715" lon="7.02913">
        <ele>1194.3</ele>
        <time>2021-08-07T10:11:56Z</time>
      </trkpt>
      <trkpt lat="47.92714" lon="7.02909">
        <ele>1194.7</ele>
        <time>2021-08-07T10:11:58Z</time>
      </trkpt>
      <trkpt lat="47.92714" lon="7.02907">
        <ele>1194.7</ele>
        <time>2021-08-07T10:11:59Z</time>
      </trkpt>
      <trkpt lat="47.92714" lon="7.02907">
        <ele>1194.7</ele>
        <time>2021-08-07T10:12:00Z</time>
      </trkpt>
      <trkpt lat="47.92714" lon="7.02906">
        <ele>1194.7</ele>
        <time>2021-08-07T10:12:01Z</time>
      </trkpt>
      <trkpt lat="47.92714" lon="7.02906">
        <ele>1195</ele>
        <time>2021-08-07T10:12:03Z</time>
      </trkpt>
      <trkpt lat="47.92714" lon="7.02906">
        <ele>1195</ele>
        <time>2021-08-07T10:12:05Z</time>
      </trkpt>
      <trkpt lat="47.92714" lon="7.02906">
        <ele>1195</ele>
        <time>2021-08-07T10:12:07Z</time>
      </trkpt>
      <trkpt lat="47.92707" lon="7.02865">
        <ele>1198</ele>
        <time>2021-08-07T10:14:46Z</time>
      </trkpt>
      <trkpt lat="47.92706" lon="7.02846">
        <ele>1199.1</ele>
        <time>2021-08-07T10:14:48Z</time>
      </trkpt>
      <trkpt lat="47.92705" lon="7.02839">
        <ele>1199.4</ele>
        <time>2021-08-07T10:14:49Z</time>
      </trkpt>
      <trkpt lat="47.92705" lon="7.02827">
        <ele>1200.3</ele>
        <time>2021-08-07T10:14:51Z</time>
      </trkpt>
      <trkpt lat="47.92704" lon="7.02822">
        <ele>1200.6</ele>
        <time>2021-08-07T10:14:52Z</time>
      </trkpt>
      <trkpt lat="47.92704" lon="7.02809">
        <ele>1201.6</ele>
        <time>2021-08-07T10:14:54Z</time>
      </trkpt>
      <trkpt lat="47.92704" lon="7.028">
        <ele>1202.5</ele>
        <time>2021-08-07T10:14:56Z</time>
      </trkpt>
      <trkpt lat="47.92703" lon="7.02793">
        <ele>1203.2</ele>
        <time>2021-08-07T10:14:57Z</time>
      </trkpt>
      <trkpt lat="47.92702" lon="7.02782">
        <ele>1203.9</ele>
        <time>2021-08-07T10:14:58Z</time>
      </trkpt>
      <trkpt lat="47.92701" lon="7.02768">
        <ele>1205.4</ele>
        <time>2021-08-07T10:15:00Z</time>
      </trkpt>
      <trkpt lat="47.927" lon="7.02765">
        <ele>1205.4</ele>
        <time>2021-08-07T10:15:01Z</time>
      </trkpt>
      <trkpt lat="47.927" lon="7.02763">
        <ele>1205.8</ele>
        <time>2021-08-07T10:15:03Z</time>
      </trkpt>
      <trkpt lat="47.927" lon="7.02765">
        <ele>1205.4</ele>
        <time>2021-08-07T10:15:04Z</time>
      </trkpt>
      <trkpt lat="47.927" lon="7.02766">
        <ele>1205.4</ele>
        <time>2021-08-07T10:15:05Z</time>
      </trkpt>
      <trkpt lat="47.92701" lon="7.02771">
        <ele>1205.1</ele>
        <time>2021-08-07T10:15:07Z</time>
      </trkpt>
      <trkpt lat="47.92701" lon="7.02774">
        <ele>1204.5</ele>
        <time>2021-08-07T10:15:09Z</time>
      </trkpt>
      <trkpt lat="47.92702" lon="7.02775">
        <ele>1204.5</ele>
        <time>2021-08-07T10:15:10Z</time>
      </trkpt>
      <trkpt lat="47.92702" lon="7.02776">
        <ele>1204.5</ele>
        <time>2021-08-07T10:15:12Z</time>
      </trkpt>
      <trkpt lat="47.92702" lon="7.02777">
        <ele>1204.5</ele>
        <time>2021-08-07T10:15:14Z</time>
      </trkpt>
      <trkpt lat="47.92702" lon="7.02778">
        <ele>1204.2</ele>
        <time>2021-08-07T10:15:24Z</time>
      </trkpt>
      <trkpt lat="47.92702" lon="7.02779">
        <ele>1204.2</ele>
        <time>2021-08-07T10:15:25Z</time>
      </trkpt>
      <trkpt lat="47.92702" lon="7.0278">
        <ele>1204.2</ele>
        <time>2021-08-07T10:15:27Z</time>
      </trkpt>
      <trkpt lat="47.92702" lon="7.02781">
        <ele>1204.2</ele>
        <time>2021-08-07T10:15:28Z</time>
      </trkpt>
      <trkpt lat="47.92702" lon="7.02782">
        <ele>1203.9</ele>
        <time>2021-08-07T10:15:29Z</time>
      </trkpt>
      <trkpt lat="47.92703" lon="7.02783">
        <ele>1203.9</ele>
        <time>2021-08-07T10:15:31Z</time>
      </trkpt>
      <trkpt lat="47.92703" lon="7.02784">
        <ele>1203.9</ele>
        <time>2021-08-07T10:15:32Z</time>
      </trkpt>
      <trkpt lat="47.92703" lon="7.02785">
        <ele>1203.9</ele>
        <time>2021-08-07T10:15:33Z</time>
      </trkpt>
      <trkpt lat="47.92703" lon="7.02786">
        <ele>1203.9</ele>
        <time>2021-08-07T10:15:34Z</time>
      </trkpt>
      <trkpt lat="47.92703" lon="7.02787">
        <ele>1203.6</ele>
        <time>2021-08-07T10:15:36Z</time>
      </trkpt>
      <trkpt lat="47.92703" lon="7.02788">
        <ele>1203.6</ele>
        <time>2021-08-07T10:15:38Z</time>
      </trkpt>
      <trkpt lat="47.92703" lon="7.02789">
        <ele>1203.6</ele>
        <time>2021-08-07T10:15:40Z</time>
      </trkpt>
      <trkpt lat="47.92703" lon="7.0279">
        <ele>1203.6</ele>
        <time>2021-08-07T10:15:41Z</time>
      </trkpt>
      <trkpt lat="47.92703" lon="7.02791">
        <ele>1203.2</ele>
        <time>2021-08-07T10:15:42Z</time>
      </trkpt>
      <trkpt lat="47.92703" lon="7.02792">
        <ele>1203.2</ele>
        <time>2021-08-07T10:15:43Z</time>
      </trkpt>
      <trkpt lat="47.92703" lon="7.02793">
        <ele>1203.2</ele>
        <time>2021-08-07T10:15:45Z</time>
      </trkpt>
      <trkpt lat="47.92703" lon="7.02794">
        <ele>1203.2</ele>
        <time>2021-08-07T10:15:46Z</time>
      </trkpt>
      <trkpt lat="47.92704" lon="7.02794">
        <ele>1203.2</ele>
        <time>2021-08-07T10:15:48Z</time>
      </trkpt>
      <trkpt lat="47.92704" lon="7.02795">
        <ele>1202.9</ele>
        <time>2021-08-07T10:15:49Z</time>
      </trkpt>
      <trkpt lat="47.92704" lon="7.02796">
        <ele>1202.9</ele>
        <time>2021-08-07T10:15:51Z</time>
      </trkpt>
      <trkpt lat="47.92704" lon="7.02797">
        <ele>1202.9</ele>
        <time>2021-08-07T10:15:52Z</time>
      </trkpt>
      <trkpt lat="47.92705" lon="7.02809">
        <ele>1201.6</ele>
        <time>2021-08-07T10:15:54Z</time>
      </trkpt>
      <trkpt lat="47.92706" lon="7.02815">
        <ele>1201.3</ele>
        <time>2021-08-07T10:15:56Z</time>
      </trkpt>
      <trkpt lat="47.92706" lon="7.02816">
        <ele>1200.9</ele>
        <time>2021-08-07T10:15:58Z</time>
      </trkpt>
      <trkpt lat="47.92706" lon="7.02817">
        <ele>1200.9</ele>
        <time>2021-08-07T10:15:59Z</time>
      </trkpt>
      <trkpt lat="47.92707" lon="7.02824">
        <ele>1200.6</ele>
        <time>2021-08-07T10:16:01Z</time>
      </trkpt>
      <trkpt lat="47.92707" lon="7.0283">
        <ele>1199.7</ele>
        <time>2021-08-07T10:16:02Z</time>
      </trkpt>
      <trkpt lat="47.92708" lon="7.02841">
        <ele>1199.1</ele>
        <time>2021-08-07T10:16:04Z</time>
      </trkpt>
      <trkpt lat="47.92708" lon="7.02846">
        <ele>1198.6</ele>
        <time>2021-08-07T10:16:06Z</time>
      </trkpt>
      <trkpt lat="47.92708" lon="7.0286">
        <ele>1197.9</ele>
        <time>2021-08-07T10:16:08Z</time>
      </trkpt>
      <trkpt lat="47.92708" lon="7.02865">
        <ele>1197.7</ele>
        <time>2021-08-07T10:16:09Z</time>
      </trkpt>
      <trkpt lat="47.92709" lon="7.02869">
        <ele>1197.4</ele>
        <time>2021-08-07T10:16:10Z</time>
      </trkpt>
      <trkpt lat="47.92709" lon="7.02872">
        <ele>1197.4</ele>
        <time>2021-08-07T10:16:12Z</time>
      </trkpt>
      <trkpt lat="47.92709" lon="7.02872">
        <ele>1197.2</ele>
        <time>2021-08-07T10:16:14Z</time>
      </trkpt>
      <trkpt lat="47.92709" lon="7.02873">
        <ele>1197.2</ele>
        <time>2021-08-07T10:16:16Z</time>
      </trkpt>
      <trkpt lat="47.92709" lon="7.02873">
        <ele>1197.2</ele>
        <time>2021-08-07T10:16:17Z</time>
      </trkpt>
      <trkpt lat="47.92709" lon="7.02874">
        <ele>1197.2</ele>
        <time>2021-08-07T10:16:19Z</time>
      </trkpt>
      <trkpt lat="47.92709" lon="7.02874">
        <ele>1197.2</ele>
        <time>2021-08-07T10:16:20Z</time>
      </trkpt>
      <trkpt lat="47.92709" lon="7.02875">
        <ele>1197.2</ele>
        <time>2021-08-07T10:16:22Z</time>
      </trkpt>
      <trkpt lat="47.92709" lon="7.02875">
        <ele>1197.2</ele>
        <time>2021-08-07T10:16:23Z</time>
      </trkpt>
      <trkpt lat="47.92709" lon="7.02876">
        <ele>1197.2</ele>
        <time>2021-08-07T10:16:25Z</time>
      </trkpt>
      <trkpt lat="47.92709" lon="7.02876">
        <ele>1197</ele>
        <time>2021-08-07T10:16:26Z</time>
      </trkpt>
      <trkpt lat="47.92709" lon="7.02877">
        <ele>1197</ele>
        <time>2021-08-07T10:16:28Z</time>
      </trkpt>
      <trkpt lat="47.92708" lon="7.02878">
        <ele>1197</ele>
        <time>2021-08-07T10:16:29Z</time>
      </trkpt>
      <trkpt lat="47.92708" lon="7.02878">
        <ele>1197</ele>
        <time>2021-08-07T10:16:30Z</time>
      </trkpt>
      <trkpt lat="47.92708" lon="7.02879">
        <ele>1197</ele>
        <time>2021-08-07T10:16:31Z</time>
      </trkpt>
      <trkpt lat="47.92707" lon="7.02886">
        <ele>1196.5</ele>
        <time>2021-08-07T10:16:33Z</time>
      </trkpt>
      <trkpt lat="47.92707" lon="7.02888">
        <ele>1196.5</ele>
        <time>2021-08-07T10:16:34Z</time>
      </trkpt>
      <trkpt lat="47.92707" lon="7.02889">
        <ele>1196.8</ele>
        <time>2021-08-07T10:16:35Z</time>
      </trkpt>
      <trkpt lat="47.92707" lon="7.02889">
        <ele>1196.6</ele>
        <time>2021-08-07T10:16:36Z</time>
      </trkpt>
      <trkpt lat="47.92707" lon="7.02889">
        <ele>1196.6</ele>
        <time>2021-08-07T10:16:38Z</time>
      </trkpt>
      <trkpt lat="47.92707" lon="7.0289">
        <ele>1196.6</ele>
        <time>2021-08-07T10:16:40Z</time>
      </trkpt>
      <trkpt lat="47.92707" lon="7.0289">
        <ele>1196.6</ele>
        <time>2021-08-07T10:16:42Z</time>
      </trkpt>
      <trkpt lat="47.92707" lon="7.0289">
        <ele>1196.6</ele>
        <time>2021-08-07T10:16:44Z</time>
      </trkpt>
      <trkpt lat="47.92707" lon="7.0289">
        <ele>1196.6</ele>
        <time>2021-08-07T10:16:45Z</time>
      </trkpt>
      <trkpt lat="47.92707" lon="7.0289">
        <ele>1196.6</ele>
        <time>2021-08-07T10:16:47Z</time>
      </trkpt>
      <trkpt lat="47.92707" lon="7.0289">
        <ele>1196.6</ele>
        <time>2021-08-07T10:16:48Z</time>
      </trkpt>
      <trkpt lat="47.92707" lon="7.0289">
        <ele>1196.6</ele>
        <time>2021-08-07T10:16:49Z</time>
      </trkpt>
      <trkpt lat="47.92707" lon="7.0289">
        <ele>1196.6</ele>
        <time>2021-08-07T10:16:51Z</time>
      </trkpt>
      <trkpt lat="47.92707" lon="7.0289">
        <ele>1196.6</ele>
        <time>2021-08-07T10:16:53Z</time>
      </trkpt>
      <trkpt lat="47.92707" lon="7.0289">
        <ele>1196.6</ele>
        <time>2021-08-07T10:16:54Z</time>
      </trkpt>
      <trkpt lat="47.92714" lon="7.02891">
        <ele>1195.7</ele>
        <time>2021-08-07T10:16:56Z</time>
      </trkpt>
      <trkpt lat="47.92716" lon="7.02892">
        <ele>1195.4</ele>
        <time>2021-08-07T10:16:58Z</time>
      </trkpt>
      <trkpt lat="47.92717" lon="7.02892">
        <ele>1195.4</ele>
        <time>2021-08-07T10:16:59Z</time>
      </trkpt>
      <trkpt lat="47.92717" lon="7.02892">
        <ele>1195.4</ele>
        <time>2021-08-07T10:17:01Z</time>
      </trkpt>
      <trkpt lat="47.92717" lon="7.02892">
        <ele>1195.4</ele>
        <time>2021-08-07T10:17:02Z</time>
      </trkpt>
      <trkpt lat="47.92717" lon="7.02892">
        <ele>1195.4</ele>
        <time>2021-08-07T10:17:04Z</time>
      </trkpt>
      <trkpt lat="47.92716" lon="7.02887">
        <ele>1195.6</ele>
        <time>2021-08-07T10:17:05Z</time>
      </trkpt>
      <trkpt lat="47.92715" lon="7.02884">
        <ele>1196.1</ele>
        <time>2021-08-07T10:17:07Z</time>
      </trkpt>
      <trkpt lat="47.92715" lon="7.02883">
        <ele>1196.1</ele>
        <time>2021-08-07T10:17:08Z</time>
      </trkpt>
      <trkpt lat="47.92714" lon="7.02882">
        <ele>1196.1</ele>
        <time>2021-08-07T10:17:10Z</time>
      </trkpt>
      <trkpt lat="47.92712" lon="7.02882">
        <ele>1196.4</ele>
        <time>2021-08-07T10:17:12Z</time>
      </trkpt>
      <trkpt lat="47.92713" lon="7.02882">
        <ele>1196.4</ele>
        <time>2021-08-07T10:17:14Z</time>
      </trkpt>
      <trkpt lat="47.92713" lon="7.02883">
        <ele>1196.1</ele>
        <time>2021-08-07T10:17:16Z</time>
      </trkpt>
      <trkpt lat="47.92713" lon="7.02883">
        <ele>1196.1</ele>
        <time>2021-08-07T10:17:18Z</time>
      </trkpt>
      <trkpt lat="47.92713" lon="7.02883">
        <ele>1196.1</ele>
        <time>2021-08-07T10:17:19Z</time>
      </trkpt>
      <trkpt lat="47.92713" lon="7.02883">
        <ele>1196.1</ele>
        <time>2021-08-07T10:17:20Z</time>
      </trkpt>
      <trkpt lat="47.92713" lon="7.02883">
        <ele>1196.1</ele>
        <time>2021-08-07T10:17:22Z</time>
      </trkpt>
      <trkpt lat="47.92713" lon="7.02883">
        <ele>1196.1</ele>
        <time>2021-08-07T10:17:23Z</time>
      </trkpt>
      <trkpt lat="47.92713" lon="7.02883">
        <ele>1196.1</ele>
        <time>2021-08-07T10:17:25Z</time>
      </trkpt>
      <trkpt lat="47.92713" lon="7.02883">
        <ele>1196.1</ele>
        <time>2021-08-07T10:17:26Z</time>
      </trkpt>
      <trkpt lat="47.92713" lon="7.02883">
        <ele>1196.1</ele>
        <time>2021-08-07T10:17:27Z</time>
      </trkpt>
      <trkpt lat="47.92718" lon="7.02891">
        <ele>1195.4</ele>
        <time>2021-08-07T10:17:29Z</time>
      </trkpt>
      <trkpt lat="47.9272" lon="7.02896">
        <ele>1194.9</ele>
        <time>2021-08-07T10:17:31Z</time>
      </trkpt>
      <trkpt lat="47.92721" lon="7.02897">
        <ele>1194.9</ele>
        <time>2021-08-07T10:17:32Z</time>
      </trkpt>
      <trkpt lat="47.92721" lon="7.02898">
        <ele>1194.7</ele>
        <time>2021-08-07T10:17:34Z</time>
      </trkpt>
      <trkpt lat="47.92721" lon="7.02898">
        <ele>1194.7</ele>
        <time>2021-08-07T10:17:36Z</time>
      </trkpt>
      <trkpt lat="47.92721" lon="7.02898">
        <ele>1194.7</ele>
        <time>2021-08-07T10:17:38Z</time>
      </trkpt>
      <trkpt lat="47.92721" lon="7.02898">
        <ele>1194.7</ele>
        <time>2021-08-07T10:17:39Z</time>
      </trkpt>
      <trkpt lat="47.92721" lon="7.02898">
        <ele>1194.7</ele>
        <time>2021-08-07T10:17:41Z</time>
      </trkpt>
      <trkpt lat="47.9272" lon="7.02908">
        <ele>1194.2</ele>
        <time>2021-08-07T10:17:43Z</time>
      </trkpt>
      <trkpt lat="47.9272" lon="7.0291">
        <ele>1194.2</ele>
        <time>2021-08-07T10:17:44Z</time>
      </trkpt>
      <trkpt lat="47.9272" lon="7.02912">
        <ele>1193.8</ele>
        <time>2021-08-07T10:17:46Z</time>
      </trkpt>
      <trkpt lat="47.9272" lon="7.02913">
        <ele>1193.8</ele>
        <time>2021-08-07T10:17:48Z</time>
      </trkpt>
      <trkpt lat="47.9272" lon="7.02913">
        <ele>1193.8</ele>
        <time>2021-08-07T10:17:50Z</time>
      </trkpt>
      <trkpt lat="47.92719" lon="7.02911">
        <ele>1193.8</ele>
        <time>2021-08-07T10:17:52Z</time>
      </trkpt>
      <trkpt lat="47.92717" lon="7.02898">
        <ele>1195</ele>
        <time>2021-08-07T10:17:54Z</time>
      </trkpt>
      <trkpt lat="47.92716" lon="7.02892">
        <ele>1195.4</ele>
        <time>2021-08-07T10:17:56Z</time>
      </trkpt>
      <trkpt lat="47.92715" lon="7.0289">
        <ele>1195.7</ele>
        <time>2021-08-07T10:17:58Z</time>
      </trkpt>
      <trkpt lat="47.92715" lon="7.0289">
        <ele>1195.7</ele>
        <time>2021-08-07T10:18:00Z</time>
      </trkpt>
      <trkpt lat="47.92715" lon="7.0289">
        <ele>1195.7</ele>
        <time>2021-08-07T10:18:01Z</time>
      </trkpt>
      <trkpt lat="47.92716" lon="7.02891">
        <ele>1195.4</ele>
        <time>2021-08-07T10:18:02Z</time>
      </trkpt>
      <trkpt lat="47.92717" lon="7.02893">
        <ele>1195.2</ele>
        <time>2021-08-07T10:18:04Z</time>
      </trkpt>
      <trkpt lat="47.92717" lon="7.02895">
        <ele>1195.2</ele>
        <time>2021-08-07T10:18:05Z</time>
      </trkpt>
      <trkpt lat="47.92717" lon="7.02897">
        <ele>1195.2</ele>
        <time>2021-08-07T10:18:07Z</time>
      </trkpt>
      <trkpt lat="47.92716" lon="7.02901">
        <ele>1195</ele>
        <time>2021-08-07T10:18:09Z</time>
      </trkpt>
      <trkpt lat="47.92715" lon="7.02908">
        <ele>1194.7</ele>
        <time>2021-08-07T10:18:11Z</time>
      </trkpt>
      <trkpt lat="47.92715" lon="7.02915">
        <ele>1194</ele>
        <time>2021-08-07T10:18:13Z</time>
      </trkpt>
      <trkpt lat="47.92715" lon="7.02921">
        <ele>1193.5</ele>
        <time>2021-08-07T10:18:14Z</time>
      </trkpt>
      <trkpt lat="47.92716" lon="7.02927">
        <ele>1193.2</ele>
        <time>2021-08-07T10:18:15Z</time>
      </trkpt>
      <trkpt lat="47.92716" lon="7.02929">
        <ele>1192.8</ele>
        <time>2021-08-07T10:18:16Z</time>
      </trkpt>
      <trkpt lat="47.92716" lon="7.02928">
        <ele>1192.8</ele>
        <time>2021-08-07T10:18:18Z</time>
      </trkpt>
      <trkpt lat="47.92715" lon="7.02928">
        <ele>1192.8</ele>
        <time>2021-08-07T10:18:19Z</time>
      </trkpt>
      <trkpt lat="47.92715" lon="7.02928">
        <ele>1193.2</ele>
        <time>2021-08-07T10:18:21Z</time>
      </trkpt>
      <trkpt lat="47.92715" lon="7.02927">
        <ele>1193.2</ele>
        <time>2021-08-07T10:18:22Z</time>
      </trkpt>
      <trkpt lat="47.92715" lon="7.02927">
        <ele>1193.2</ele>
        <time>2021-08-07T10:18:23Z</time>
      </trkpt>
      <trkpt lat="47.92715" lon="7.02926">
        <ele>1193.2</ele>
        <time>2021-08-07T10:18:25Z</time>
      </trkpt>
      <trkpt lat="47.92715" lon="7.02926">
        <ele>1193.2</ele>
        <time>2021-08-07T10:18:26Z</time>
      </trkpt>
      <trkpt lat="47.92715" lon="7.02925">
        <ele>1193.2</ele>
        <time>2021-08-07T10:18:28Z</time>
      </trkpt>
      <trkpt lat="47.92715" lon="7.02925">
        <ele>1193.2</ele>
        <time>2021-08-07T10:18:29Z</time>
      </trkpt>
      <trkpt lat="47.92715" lon="7.02924">
        <ele>1193.2</ele>
        <time>2021-08-07T10:18:30Z</time>
      </trkpt>
      <trkpt lat="47.92715" lon="7.02924">
        <ele>1193.2</ele>
        <time>2021-08-07T10:18:31Z</time>
      </trkpt>
      <trkpt lat="47.92714" lon="7.02914">
        <ele>1194.3</ele>
        <time>2021-08-07T10:18:32Z</time>
      </trkpt>
      <trkpt lat="47.92713" lon="7.0291">
        <ele>1194.7</ele>
        <time>2021-08-07T10:18:33Z</time>
      </trkpt>
      <trkpt lat="47.92713" lon="7.02909">
        <ele>1194.7</ele>
        <time>2021-08-07T10:18:35Z</time>
      </trkpt>
      <trkpt lat="47.92713" lon="7.02908">
        <ele>1195</ele>
        <time>2021-08-07T10:18:36Z</time>
      </trkpt>
      <trkpt lat="47.92712" lon="7.0291">
        <ele>1195</ele>
        <time>2021-08-07T10:18:37Z</time>
      </trkpt>
      <trkpt lat="47.9271" lon="7.02912">
        <ele>1194.6</ele>
        <time>2021-08-07T10:18:39Z</time>
      </trkpt>
      <trkpt lat="47.92709" lon="7.02912">
        <ele>1194.9</ele>
        <time>2021-08-07T10:18:40Z</time>
      </trkpt>
      <trkpt lat="47.92709" lon="7.0291">
        <ele>1195.2</ele>
        <time>2021-08-07T10:18:42Z</time>
      </trkpt>
      <trkpt lat="47.92709" lon="7.0291">
        <ele>1195.2</ele>
        <time>2021-08-07T10:18:43Z</time>
      </trkpt>
      <trkpt lat="47.92709" lon="7.0291">
        <ele>1195.2</ele>
        <time>2021-08-07T10:18:45Z</time>
      </trkpt>
      <trkpt lat="47.9271" lon="7.02911">
        <ele>1194.9</ele>
        <time>2021-08-07T10:18:47Z</time>
      </trkpt>
      <trkpt lat="47.9271" lon="7.02912">
        <ele>1194.6</ele>
        <time>2021-08-07T10:18:48Z</time>
      </trkpt>
      <trkpt lat="47.92711" lon="7.02913">
        <ele>1194.6</ele>
        <time>2021-08-07T10:18:49Z</time>
      </trkpt>
      <trkpt lat="47.92712" lon="7.02914">
        <ele>1194.6</ele>
        <time>2021-08-07T10:18:51Z</time>
      </trkpt>
      <trkpt lat="47.92712" lon="7.02914">
        <ele>1194.6</ele>
        <time>2021-08-07T10:18:52Z</time>
      </trkpt>
      <trkpt lat="47.92712" lon="7.02914">
        <ele>1194.6</ele>
        <time>2021-08-07T10:18:54Z</time>
      </trkpt>
      <trkpt lat="47.92712" lon="7.02913">
        <ele>1194.6</ele>
        <time>2021-08-07T10:18:55Z</time>
      </trkpt>
      <trkpt lat="47.92712" lon="7.02912">
        <ele>1194.6</ele>
        <time>2021-08-07T10:18:56Z</time>
      </trkpt>
      <trkpt lat="47.92712" lon="7.0291">
        <ele>1195</ele>
        <time>2021-08-07T10:18:57Z</time>
      </trkpt>
      <trkpt lat="47.92711" lon="7.02906">
        <ele>1195.3</ele>
        <time>2021-08-07T10:18:59Z</time>
      </trkpt>
      <trkpt lat="47.92711" lon="7.02903">
        <ele>1195.3</ele>
        <time>2021-08-07T10:19:01Z</time>
      </trkpt>
      <trkpt lat="47.92711" lon="7.02901">
        <ele>1195.5</ele>
        <time>2021-08-07T10:19:02Z</time>
      </trkpt>
      <trkpt lat="47.92711" lon="7.02901">
        <ele>1195.5</ele>
        <time>2021-08-07T10:19:03Z</time>
      </trkpt>
      <trkpt lat="47.9271" lon="7.029">
        <ele>1195.5</ele>
        <time>2021-08-07T10:19:04Z</time>
      </trkpt>
      <trkpt lat="47.92711" lon="7.029">
        <ele>1195.5</ele>
        <time>2021-08-07T10:19:05Z</time>
      </trkpt>
      <trkpt lat="47.9271" lon="7.02898">
        <ele>1195.5</ele>
        <time>2021-08-07T10:19:07Z</time>
      </trkpt>
      <trkpt lat="47.9271" lon="7.02897">
        <ele>1195.8</ele>
        <time>2021-08-07T10:19:08Z</time>
      </trkpt>
      <trkpt lat="47.9271" lon="7.02898">
        <ele>1195.5</ele>
        <time>2021-08-07T10:19:09Z</time>
      </trkpt>
      <trkpt lat="47.92711" lon="7.02899">
        <ele>1195.5</ele>
        <time>2021-08-07T10:19:10Z</time>
      </trkpt>
      <trkpt lat="47.92711" lon="7.029">
        <ele>1195.5</ele>
        <time>2021-08-07T10:19:12Z</time>
      </trkpt>
      <trkpt lat="47.92711" lon="7.029">
        <ele>1195.5</ele>
        <time>2021-08-07T10:19:13Z</time>
      </trkpt>
      <trkpt lat="47.92711" lon="7.029">
        <ele>1195.5</ele>
        <time>2021-08-07T10:19:14Z</time>
      </trkpt>
      <trkpt lat="47.92712" lon="7.029">
        <ele>1195.5</ele>
        <time>2021-08-07T10:19:16Z</time>
      </trkpt>
      <trkpt lat="47.92712" lon="7.029">
        <ele>1195.5</ele>
        <time>2021-08-07T10:19:17Z</time>
      </trkpt>
      <trkpt lat="47.92712" lon="7.029">
        <ele>1195.5</ele>
        <time>2021-08-07T10:19:19Z</time>
      </trkpt>
      <trkpt lat="47.92712" lon="7.029">
        <ele>1195.5</ele>
        <time>2021-08-07T10:19:20Z</time>
      </trkpt>
      <trkpt lat="47.92712" lon="7.029">
        <ele>1195.5</ele>
        <time>2021-08-07T10:19:22Z</time>
      </trkpt>
      <trkpt lat="47.92712" lon="7.029">
        <ele>1195.5</ele>
        <time>2021-08-07T10:19:24Z</time>
      </trkpt>
      <trkpt lat="47.92713" lon="7.029">
        <ele>1195.2</ele>
        <time>2021-08-07T10:19:26Z</time>
      </trkpt>
      <trkpt lat="47.92714" lon="7.029">
        <ele>1195.2</ele>
        <time>2021-08-07T10:19:27Z</time>
      </trkpt>
      <trkpt lat="47.92714" lon="7.029">
        <ele>1195.2</ele>
        <time>2021-08-07T10:19:28Z</time>
      </trkpt>
      <trkpt lat="47.92715" lon="7.02906">
        <ele>1195</ele>
        <time>2021-08-07T10:19:30Z</time>
      </trkpt>
      <trkpt lat="47.92715" lon="7.0291">
        <ele>1194.7</ele>
        <time>2021-08-07T10:19:32Z</time>
      </trkpt>
      <trkpt lat="47.92715" lon="7.02912">
        <ele>1194.3</ele>
        <time>2021-08-07T10:19:33Z</time>
      </trkpt>
      <trkpt lat="47.92715" lon="7.02912">
        <ele>1194.3</ele>
        <time>2021-08-07T10:19:34Z</time>
      </trkpt>
      <trkpt lat="47.92715" lon="7.02913">
        <ele>1194.3</ele>
        <time>2021-08-07T10:19:36Z</time>
      </trkpt>
      <trkpt lat="47.92715" lon="7.02913">
        <ele>1194.3</ele>
        <time>2021-08-07T10:19:37Z</time>
      </trkpt>
      <trkpt lat="47.92715" lon="7.02913">
        <ele>1194.3</ele>
        <time>2021-08-07T10:19:39Z</time>
      </trkpt>
      <trkpt lat="47.92715" lon="7.02913">
        <ele>1194.3</ele>
        <time>2021-08-07T10:19:41Z</time>
      </trkpt>
      <trkpt lat="47.92715" lon="7.02913">
        <ele>1194.3</ele>
        <time>2021-08-07T10:19:42Z</time>
      </trkpt>
      <trkpt lat="47.92715" lon="7.02913">
        <ele>1194.3</ele>
        <time>2021-08-07T10:19:44Z</time>
      </trkpt>
      <trkpt lat="47.92718" lon="7.02922">
        <ele>1193.3</ele>
        <time>2021-08-07T10:19:46Z</time>
      </trkpt>
      <trkpt lat="47.92719" lon="7.02924">
        <ele>1192.6</ele>
        <time>2021-08-07T10:19:47Z</time>
      </trkpt>
      <trkpt lat="47.9272" lon="7.02925">
        <ele>1192.6</ele>
        <time>2021-08-07T10:19:48Z</time>
      </trkpt>
      <trkpt lat="47.92721" lon="7.02927">
        <ele>1192.6</ele>
        <time>2021-08-07T10:19:50Z</time>
      </trkpt>
      <trkpt lat="47.92721" lon="7.02927">
        <ele>1192.6</ele>
        <time>2021-08-07T10:19:52Z</time>
      </trkpt>
      <trkpt lat="47.92721" lon="7.02927">
        <ele>1192.6</ele>
        <time>2021-08-07T10:19:54Z</time>
      </trkpt>
      <trkpt lat="47.92721" lon="7.02927">
        <ele>1192.6</ele>
        <time>2021-08-07T10:19:55Z</time>
      </trkpt>
      <trkpt lat="47.92721" lon="7.02927">
        <ele>1192.6</ele>
        <time>2021-08-07T10:19:56Z</time>
      </trkpt>
      <trkpt lat="47.92721" lon="7.02927">
        <ele>1192.6</ele>
        <time>2021-08-07T10:19:58Z</time>
      </trkpt>
      <trkpt lat="47.92721" lon="7.02927">
        <ele>1192.6</ele>
        <time>2021-08-07T10:19:59Z</time>
      </trkpt>
      <trkpt lat="47.92721" lon="7.02927">
        <ele>1192.6</ele>
        <time>2021-08-07T10:20:01Z</time>
      </trkpt>
      <trkpt lat="47.92721" lon="7.02927">
        <ele>1192.6</ele>
        <time>2021-08-07T10:20:02Z</time>
      </trkpt>
      <trkpt lat="47.92721" lon="7.02927">
        <ele>1192.6</ele>
        <time>2021-08-07T10:20:03Z</time>
      </trkpt>
      <trkpt lat="47.92721" lon="7.02927">
        <ele>1192.6</ele>
        <time>2021-08-07T10:20:05Z</time>
      </trkpt>
      <trkpt lat="47.92721" lon="7.02927">
        <ele>1192.6</ele>
        <time>2021-08-07T10:20:07Z</time>
      </trkpt>
      <trkpt lat="47.92721" lon="7.02927">
        <ele>1192.6</ele>
        <time>2021-08-07T10:20:09Z</time>
      </trkpt>
      <trkpt lat="47.92721" lon="7.02927">
        <ele>1192.6</ele>
        <time>2021-08-07T10:20:10Z</time>
      </trkpt>
      <trkpt lat="47.92721" lon="7.02927">
        <ele>1192.6</ele>
        <time>2021-08-07T10:20:11Z</time>
      </trkpt>
      <trkpt lat="47.92721" lon="7.02927">
        <ele>1192.6</ele>
        <time>2021-08-07T10:20:13Z</time>
      </trkpt>
      <trkpt lat="47.92721" lon="7.02927">
        <ele>1192.6</ele>
        <time>2021-08-07T10:20:14Z</time>
      </trkpt>
      <trkpt lat="47.92721" lon="7.02927">
        <ele>1192.6</ele>
        <time>2021-08-07T10:20:16Z</time>
      </trkpt>
      <trkpt lat="47.92721" lon="7.02927">
        <ele>1192.6</ele>
        <time>2021-08-07T10:20:18Z</time>
      </trkpt>
      <trkpt lat="47.92721" lon="7.02927">
        <ele>1192.6</ele>
        <time>2021-08-07T10:20:20Z</time>
      </trkpt>
      <trkpt lat="47.92722" lon="7.02932">
        <ele>1192</ele>
        <time>2021-08-07T10:20:22Z</time>
      </trkpt>
      <trkpt lat="47.92722" lon="7.02932">
        <ele>1191.7</ele>
        <time>2021-08-07T10:20:23Z</time>
      </trkpt>
      <trkpt lat="47.92723" lon="7.02933">
        <ele>1191.7</ele>
        <time>2021-08-07T10:20:25Z</time>
      </trkpt>
      <trkpt lat="47.92723" lon="7.02933">
        <ele>1191.7</ele>
        <time>2021-08-07T10:20:26Z</time>
      </trkpt>
      <trkpt lat="47.92723" lon="7.02933">
        <ele>1191.7</ele>
        <time>2021-08-07T10:20:28Z</time>
      </trkpt>
      <trkpt lat="47.92721" lon="7.02932">
        <ele>1192</ele>
        <time>2021-08-07T10:20:29Z</time>
      </trkpt>
      <trkpt lat="47.9272" lon="7.02931">
        <ele>1192.3</ele>
        <time>2021-08-07T10:20:30Z</time>
      </trkpt>
      <trkpt lat="47.92718" lon="7.02929">
        <ele>1192.5</ele>
        <time>2021-08-07T10:20:32Z</time>
      </trkpt>
      <trkpt lat="47.92718" lon="7.02928">
        <ele>1192.5</ele>
        <time>2021-08-07T10:20:34Z</time>
      </trkpt>
      <trkpt lat="47.92718" lon="7.02928">
        <ele>1192.5</ele>
        <time>2021-08-07T10:20:36Z</time>
      </trkpt>
      <trkpt lat="47.92718" lon="7.02928">
        <ele>1192.5</ele>
        <time>2021-08-07T10:20:37Z</time>
      </trkpt>
      <trkpt lat="47.92718" lon="7.02928">
        <ele>1192.5</ele>
        <time>2021-08-07T10:20:39Z</time>
      </trkpt>
      <trkpt lat="47.92718" lon="7.02928">
        <ele>1192.5</ele>
        <time>2021-08-07T10:20:40Z</time>
      </trkpt>
      <trkpt lat="47.92718" lon="7.02928">
        <ele>1192.5</ele>
        <time>2021-08-07T10:20:41Z</time>
      </trkpt>
      <trkpt lat="47.92718" lon="7.02928">
        <ele>1192.5</ele>
        <time>2021-08-07T10:20:42Z</time>
      </trkpt>
      <trkpt lat="47.92719" lon="7.02921">
        <ele>1193</ele>
        <time>2021-08-07T10:20:44Z</time>
      </trkpt>
      <trkpt lat="47.9272" lon="7.02921">
        <ele>1193</ele>
        <time>2021-08-07T10:20:45Z</time>
      </trkpt>
      <trkpt lat="47.92721" lon="7.02922">
        <ele>1193</ele>
        <time>2021-08-07T10:20:46Z</time>
      </trkpt>
      <trkpt lat="47.92722" lon="7.02924">
        <ele>1192.4</ele>
        <time>2021-08-07T10:20:48Z</time>
      </trkpt>
      <trkpt lat="47.92722" lon="7.02924">
        <ele>1192.4</ele>
        <time>2021-08-07T10:20:50Z</time>
      </trkpt>
      <trkpt lat="47.92723" lon="7.02924">
        <ele>1192.4</ele>
        <time>2021-08-07T10:20:51Z</time>
      </trkpt>
      <trkpt lat="47.92723" lon="7.02924">
        <ele>1192.4</ele>
        <time>2021-08-07T10:20:53Z</time>
      </trkpt>
      <trkpt lat="47.92723" lon="7.02924">
        <ele>1192.4</ele>
        <time>2021-08-07T10:20:54Z</time>
      </trkpt>
      <trkpt lat="47.92723" lon="7.02924">
        <ele>1192.4</ele>
        <time>2021-08-07T10:20:56Z</time>
      </trkpt>
      <trkpt lat="47.92721" lon="7.02924">
        <ele>1192.6</ele>
        <time>2021-08-07T10:20:57Z</time>
      </trkpt>
      <trkpt lat="47.9272" lon="7.02925">
        <ele>1192.6</ele>
        <time>2021-08-07T10:20:58Z</time>
      </trkpt>
      <trkpt lat="47.9272" lon="7.02925">
        <ele>1192.6</ele>
        <time>2021-08-07T10:21:00Z</time>
      </trkpt>
      <trkpt lat="47.9272" lon="7.02925">
        <ele>1192.6</ele>
        <time>2021-08-07T10:21:02Z</time>
      </trkpt>
      <trkpt lat="47.9272" lon="7.02925">
        <ele>1192.6</ele>
        <time>2021-08-07T10:21:03Z</time>
      </trkpt>
      <trkpt lat="47.9272" lon="7.02925">
        <ele>1192.6</ele>
        <time>2021-08-07T10:21:04Z</time>
      </trkpt>
      <trkpt lat="47.9272" lon="7.02925">
        <ele>1192.6</ele>
        <time>2021-08-07T10:21:05Z</time>
      </trkpt>
      <trkpt lat="47.9272" lon="7.02925">
        <ele>1192.6</ele>
        <time>2021-08-07T10:21:06Z</time>
      </trkpt>
      <trkpt lat="47.9272" lon="7.02925">
        <ele>1192.6</ele>
        <time>2021-08-07T10:21:08Z</time>
      </trkpt>
      <trkpt lat="47.92717" lon="7.0293">
        <ele>1192.5</ele>
        <time>2021-08-07T10:21:10Z</time>
      </trkpt>
      <trkpt lat="47.92717" lon="7.02929">
        <ele>1192.5</ele>
        <time>2021-08-07T10:21:12Z</time>
      </trkpt>
      <trkpt lat="47.92717" lon="7.02929">
        <ele>1192.5</ele>
        <time>2021-08-07T10:21:14Z</time>
      </trkpt>
      <trkpt lat="47.92717" lon="7.02929">
        <ele>1192.5</ele>
        <time>2021-08-07T10:21:16Z</time>
      </trkpt>
      <trkpt lat="47.92717" lon="7.02929">
        <ele>1192.5</ele>
        <time>2021-08-07T10:21:18Z</time>
      </trkpt>
      <trkpt lat="47.92718" lon="7.02932">
        <ele>1192.5</ele>
        <time>2021-08-07T10:21:20Z</time>
      </trkpt>
      <trkpt lat="47.92719" lon="7.02933">
        <ele>1192</ele>
        <time>2021-08-07T10:21:21Z</time>
      </trkpt>
      <trkpt lat="47.9272" lon="7.02932">
        <ele>1192</ele>
        <time>2021-08-07T10:21:22Z</time>
      </trkpt>
      <trkpt lat="47.92721" lon="7.02932">
        <ele>1192</ele>
        <time>2021-08-07T10:21:23Z</time>
      </trkpt>
      <trkpt lat="47.92721" lon="7.02932">
        <ele>1192.3</ele>
        <time>2021-08-07T10:21:24Z</time>
      </trkpt>
      <trkpt lat="47.92722" lon="7.02931">
        <ele>1192</ele>
        <time>2021-08-07T10:21:26Z</time>
      </trkpt>
      <trkpt lat="47.92722" lon="7.02931">
        <ele>1192</ele>
        <time>2021-08-07T10:21:27Z</time>
      </trkpt>
      <trkpt lat="47.92722" lon="7.02931">
        <ele>1192</ele>
        <time>2021-08-07T10:21:29Z</time>
      </trkpt>
      <trkpt lat="47.92723" lon="7.0293">
        <ele>1192</ele>
        <time>2021-08-07T10:21:30Z</time>
      </trkpt>
      <trkpt lat="47.92723" lon="7.0293">
        <ele>1192</ele>
        <time>2021-08-07T10:21:32Z</time>
      </trkpt>
      <trkpt lat="47.92722" lon="7.02932">
        <ele>1191.7</ele>
        <time>2021-08-07T10:21:33Z</time>
      </trkpt>
      <trkpt lat="47.92721" lon="7.02934">
        <ele>1192</ele>
        <time>2021-08-07T10:21:34Z</time>
      </trkpt>
      <trkpt lat="47.9272" lon="7.02936">
        <ele>1192</ele>
        <time>2021-08-07T10:21:36Z</time>
      </trkpt>
      <trkpt lat="47.92719" lon="7.02938">
        <ele>1191.7</ele>
        <time>2021-08-07T10:21:38Z</time>
      </trkpt>
      <trkpt lat="47.92718" lon="7.0294">
        <ele>1191.9</ele>
        <time>2021-08-07T10:21:39Z</time>
      </trkpt>
      <trkpt lat="47.92715" lon="7.02942">
        <ele>1192</ele>
        <time>2021-08-07T10:21:40Z</time>
      </trkpt>
      <trkpt lat="47.92715" lon="7.02943">
        <ele>1192</ele>
        <time>2021-08-07T10:21:41Z</time>
      </trkpt>
      <trkpt lat="47.92713" lon="7.02945">
        <ele>1192</ele>
        <time>2021-08-07T10:21:42Z</time>
      </trkpt>
      <trkpt lat="47.92712" lon="7.02947">
        <ele>1192</ele>
        <time>2021-08-07T10:21:44Z</time>
      </trkpt>
      <trkpt lat="47.92712" lon="7.02949">
        <ele>1192</ele>
        <time>2021-08-07T10:21:45Z</time>
      </trkpt>
      <trkpt lat="47.92712" lon="7.0295">
        <ele>1191.8</ele>
        <time>2021-08-07T10:21:46Z</time>
      </trkpt>
      <trkpt lat="47.92712" lon="7.02954">
        <ele>1191.5</ele>
        <time>2021-08-07T10:21:48Z</time>
      </trkpt>
      <trkpt lat="47.92711" lon="7.02955">
        <ele>1191.5</ele>
        <time>2021-08-07T10:21:50Z</time>
      </trkpt>
      <trkpt lat="47.92711" lon="7.02956">
        <ele>1191.5</ele>
        <time>2021-08-07T10:21:51Z</time>
      </trkpt>
      <trkpt lat="47.92711" lon="7.02956">
        <ele>1191.5</ele>
        <time>2021-08-07T10:21:53Z</time>
      </trkpt>
      <trkpt lat="47.92711" lon="7.02956">
        <ele>1191.5</ele>
        <time>2021-08-07T10:21:55Z</time>
      </trkpt>
      <trkpt lat="47.92711" lon="7.02956">
        <ele>1191.5</ele>
        <time>2021-08-07T10:21:57Z</time>
      </trkpt>
      <trkpt lat="47.92711" lon="7.02956">
        <ele>1191.5</ele>
        <time>2021-08-07T10:21:58Z</time>
      </trkpt>
      <trkpt lat="47.92711" lon="7.02956">
        <ele>1191.5</ele>
        <time>2021-08-07T10:21:59Z</time>
      </trkpt>
      <trkpt lat="47.92711" lon="7.02956">
        <ele>1191.5</ele>
        <time>2021-08-07T10:22:01Z</time>
      </trkpt>
      <trkpt lat="47.92711" lon="7.02956">
        <ele>1191.5</ele>
        <time>2021-08-07T10:22:03Z</time>
      </trkpt>
      <trkpt lat="47.92711" lon="7.02956">
        <ele>1191.5</ele>
        <time>2021-08-07T10:22:04Z</time>
      </trkpt>
      <trkpt lat="47.92711" lon="7.02956">
        <ele>1191.5</ele>
        <time>2021-08-07T10:22:06Z</time>
      </trkpt>
      <trkpt lat="47.92711" lon="7.02956">
        <ele>1191.5</ele>
        <time>2021-08-07T10:22:08Z</time>
      </trkpt>
      <trkpt lat="47.92714" lon="7.02958">
        <ele>1191.2</ele>
        <time>2021-08-07T10:22:09Z</time>
      </trkpt>
      <trkpt lat="47.92715" lon="7.02958">
        <ele>1191</ele>
        <time>2021-08-07T10:22:10Z</time>
      </trkpt>
      <trkpt lat="47.92715" lon="7.02958">
        <ele>1191</ele>
        <time>2021-08-07T10:22:11Z</time>
      </trkpt>
      <trkpt lat="47.92715" lon="7.02958">
        <ele>1191</ele>
        <time>2021-08-07T10:22:12Z</time>
      </trkpt>
      <trkpt lat="47.92715" lon="7.02958">
        <ele>1191</ele>
        <time>2021-08-07T10:22:14Z</time>
      </trkpt>
      <trkpt lat="47.92715" lon="7.02958">
        <ele>1191</ele>
        <time>2021-08-07T10:22:19Z</time>
      </trkpt>
      <trkpt lat="47.92715" lon="7.02958">
        <ele>1191</ele>
        <time>2021-08-07T10:22:25Z</time>
      </trkpt>
      <trkpt lat="47.9271" lon="7.02819">
        <ele>1200.5</ele>
        <time>2021-08-07T10:23:03Z</time>
      </trkpt>
      <trkpt lat="47.92708" lon="7.02846">
        <ele>1198.8</ele>
        <time>2021-08-07T10:23:04Z</time>
      </trkpt>
      <trkpt lat="47.92707" lon="7.02853">
        <ele>1198.4</ele>
        <time>2021-08-07T10:23:06Z</time>
      </trkpt>
      <trkpt lat="47.92707" lon="7.02853">
        <ele>1198.4</ele>
        <time>2021-08-07T10:23:08Z</time>
      </trkpt>
      <trkpt lat="47.9271" lon="7.02851">
        <ele>1198.1</ele>
        <time>2021-08-07T10:23:09Z</time>
      </trkpt>
      <trkpt lat="47.92712" lon="7.02851">
        <ele>1198.1</ele>
        <time>2021-08-07T10:23:10Z</time>
      </trkpt>
      <trkpt lat="47.92713" lon="7.02852">
        <ele>1197.8</ele>
        <time>2021-08-07T10:23:11Z</time>
      </trkpt>
      <trkpt lat="47.92718" lon="7.02908">
        <ele>1194.4</ele>
        <time>2021-08-07T10:31:13Z</time>
      </trkpt>
      <trkpt lat="47.92719" lon="7.02913">
        <ele>1193.8</ele>
        <time>2021-08-07T10:31:14Z</time>
      </trkpt>
      <trkpt lat="47.9272" lon="7.02916">
        <ele>1193.4</ele>
        <time>2021-08-07T10:31:16Z</time>
      </trkpt>
      <trkpt lat="47.92721" lon="7.02916">
        <ele>1193.4</ele>
        <time>2021-08-07T10:31:17Z</time>
      </trkpt>
      <trkpt lat="47.92722" lon="7.02917">
        <ele>1193.2</ele>
        <time>2021-08-07T10:31:18Z</time>
      </trkpt>
      <trkpt lat="47.92722" lon="7.02918">
        <ele>1193.2</ele>
        <time>2021-08-07T10:31:19Z</time>
      </trkpt>
      <trkpt lat="47.92723" lon="7.02919">
        <ele>1192.8</ele>
        <time>2021-08-07T10:31:21Z</time>
      </trkpt>
      <trkpt lat="47.92724" lon="7.0292">
        <ele>1192.8</ele>
        <time>2021-08-07T10:31:22Z</time>
      </trkpt>
      <trkpt lat="47.92724" lon="7.0292">
        <ele>1192.8</ele>
        <time>2021-08-07T10:31:24Z</time>
      </trkpt>
      <trkpt lat="47.92724" lon="7.0292">
        <ele>1192.8</ele>
        <time>2021-08-07T10:31:25Z</time>
      </trkpt>
      <trkpt lat="47.92724" lon="7.0292">
        <ele>1192.8</ele>
        <time>2021-08-07T10:31:27Z</time>
      </trkpt>
      <trkpt lat="47.92724" lon="7.0292">
        <ele>1192.8</ele>
        <time>2021-08-07T10:31:28Z</time>
      </trkpt>
      <trkpt lat="47.92724" lon="7.0292">
        <ele>1192.8</ele>
        <time>2021-08-07T10:31:30Z</time>
      </trkpt>
      <trkpt lat="47.92724" lon="7.0292">
        <ele>1192.8</ele>
        <time>2021-08-07T10:31:32Z</time>
      </trkpt>
      <trkpt lat="47.92727" lon="7.02931">
        <ele>1191.8</ele>
        <time>2021-08-07T10:31:34Z</time>
      </trkpt>
      <trkpt lat="47.92727" lon="7.02933">
        <ele>1191.5</ele>
        <time>2021-08-07T10:31:36Z</time>
      </trkpt>
      <trkpt lat="47.92727" lon="7.02933">
        <ele>1191.3</ele>
        <time>2021-08-07T10:31:38Z</time>
      </trkpt>
      <trkpt lat="47.92727" lon="7.02933">
        <ele>1191.3</ele>
        <time>2021-08-07T10:31:40Z</time>
      </trkpt>
      <trkpt lat="47.92727" lon="7.02933">
        <ele>1191.3</ele>
        <time>2021-08-07T10:31:41Z</time>
      </trkpt>
      <trkpt lat="47.92727" lon="7.02933">
        <ele>1191.3</ele>
        <time>2021-08-07T10:31:43Z</time>
      </trkpt>
      <trkpt lat="47.92727" lon="7.02933">
        <ele>1191.3</ele>
        <time>2021-08-07T10:31:44Z</time>
      </trkpt>
      <trkpt lat="47.92727" lon="7.02933">
        <ele>1191.3</ele>
        <time>2021-08-07T10:31:46Z</time>
      </trkpt>
      <trkpt lat="47.92727" lon="7.02933">
        <ele>1191.3</ele>
        <time>2021-08-07T10:31:47Z</time>
      </trkpt>
      <trkpt lat="47.92727" lon="7.02933">
        <ele>1191.3</ele>
        <time>2021-08-07T10:31:49Z</time>
      </trkpt>
      <trkpt lat="47.92727" lon="7.02933">
        <ele>1191.3</ele>
        <time>2021-08-07T10:31:50Z</time>
      </trkpt>
      <trkpt lat="47.92727" lon="7.0293">
        <ele>1191.8</ele>
        <time>2021-08-07T10:31:52Z</time>
      </trkpt>
      <trkpt lat="47.92726" lon="7.0293">
        <ele>1191.8</ele>
        <time>2021-08-07T10:31:53Z</time>
      </trkpt>
      <trkpt lat="47.92725" lon="7.0293">
        <ele>1191.8</ele>
        <time>2021-08-07T10:31:55Z</time>
      </trkpt>
      <trkpt lat="47.92724" lon="7.0293">
        <ele>1192</ele>
        <time>2021-08-07T10:31:56Z</time>
      </trkpt>
      <trkpt lat="47.92722" lon="7.02927">
        <ele>1192.4</ele>
        <time>2021-08-07T10:31:58Z</time>
      </trkpt>
      <trkpt lat="47.92722" lon="7.02927">
        <ele>1192.4</ele>
        <time>2021-08-07T10:31:59Z</time>
      </trkpt>
      <trkpt lat="47.92722" lon="7.02927">
        <ele>1192.4</ele>
        <time>2021-08-07T10:32:00Z</time>
      </trkpt>
      <trkpt lat="47.92722" lon="7.02927">
        <ele>1192.4</ele>
        <time>2021-08-07T10:32:02Z</time>
      </trkpt>
      <trkpt lat="47.92721" lon="7.02926">
        <ele>1192.6</ele>
        <time>2021-08-07T10:32:04Z</time>
      </trkpt>
      <trkpt lat="47.92721" lon="7.02926">
        <ele>1192.6</ele>
        <time>2021-08-07T10:32:05Z</time>
      </trkpt>
      <trkpt lat="47.92721" lon="7.02927">
        <ele>1192.4</ele>
        <time>2021-08-07T10:32:06Z</time>
      </trkpt>
      <trkpt lat="47.92722" lon="7.02928">
        <ele>1192</ele>
        <time>2021-08-07T10:32:08Z</time>
      </trkpt>
      <trkpt lat="47.92722" lon="7.02929">
        <ele>1192</ele>
        <time>2021-08-07T10:32:10Z</time>
      </trkpt>
      <trkpt lat="47.92722" lon="7.02929">
        <ele>1192</ele>
        <time>2021-08-07T10:32:11Z</time>
      </trkpt>
      <trkpt lat="47.92722" lon="7.02929">
        <ele>1192</ele>
        <time>2021-08-07T10:32:13Z</time>
      </trkpt>
      <trkpt lat="47.92722" lon="7.02929">
        <ele>1192</ele>
        <time>2021-08-07T10:32:14Z</time>
      </trkpt>
      <trkpt lat="47.92723" lon="7.02933">
        <ele>1191.7</ele>
        <time>2021-08-07T10:32:16Z</time>
      </trkpt>
      <trkpt lat="47.92723" lon="7.02935">
        <ele>1191.7</ele>
        <time>2021-08-07T10:32:17Z</time>
      </trkpt>
      <trkpt lat="47.92723" lon="7.02937">
        <ele>1191.4</ele>
        <time>2021-08-07T10:32:18Z</time>
      </trkpt>
      <trkpt lat="47.92723" lon="7.02938">
        <ele>1191.4</ele>
        <time>2021-08-07T10:32:20Z</time>
      </trkpt>
      <trkpt lat="47.92723" lon="7.02939">
        <ele>1191.4</ele>
        <time>2021-08-07T10:32:21Z</time>
      </trkpt>
      <trkpt lat="47.92723" lon="7.02941">
        <ele>1191.1</ele>
        <time>2021-08-07T10:32:22Z</time>
      </trkpt>
      <trkpt lat="47.92723" lon="7.02942">
        <ele>1191.1</ele>
        <time>2021-08-07T10:32:23Z</time>
      </trkpt>
      <trkpt lat="47.92723" lon="7.02944">
        <ele>1191.1</ele>
        <time>2021-08-07T10:32:24Z</time>
      </trkpt>
      <trkpt lat="47.92722" lon="7.02946">
        <ele>1190.9</ele>
        <time>2021-08-07T10:32:26Z</time>
      </trkpt>
      <trkpt lat="47.92722" lon="7.02947">
        <ele>1190.9</ele>
        <time>2021-08-07T10:32:27Z</time>
      </trkpt>
      <trkpt lat="47.92722" lon="7.02948">
        <ele>1190.9</ele>
        <time>2021-08-07T10:32:28Z</time>
      </trkpt>
      <trkpt lat="47.92722" lon="7.02951">
        <ele>1190.6</ele>
        <time>2021-08-07T10:32:30Z</time>
      </trkpt>
      <trkpt lat="47.92722" lon="7.02952">
        <ele>1190.6</ele>
        <time>2021-08-07T10:32:32Z</time>
      </trkpt>
      <trkpt lat="47.92722" lon="7.02952">
        <ele>1190.6</ele>
        <time>2021-08-07T10:32:33Z</time>
      </trkpt>
      <trkpt lat="47.92722" lon="7.02953">
        <ele>1190.6</ele>
        <time>2021-08-07T10:32:35Z</time>
      </trkpt>
      <trkpt lat="47.92722" lon="7.02953">
        <ele>1190.6</ele>
        <time>2021-08-07T10:32:36Z</time>
      </trkpt>
      <trkpt lat="47.92722" lon="7.02953">
        <ele>1190.6</ele>
        <time>2021-08-07T10:32:38Z</time>
      </trkpt>
      <trkpt lat="47.92722" lon="7.02953">
        <ele>1190.6</ele>
        <time>2021-08-07T10:32:39Z</time>
      </trkpt>
      <trkpt lat="47.92722" lon="7.02953">
        <ele>1190.6</ele>
        <time>2021-08-07T10:32:40Z</time>
      </trkpt>
      <trkpt lat="47.92722" lon="7.02952">
        <ele>1190.6</ele>
        <time>2021-08-07T10:32:42Z</time>
      </trkpt>
      <trkpt lat="47.92722" lon="7.02952">
        <ele>1190.6</ele>
        <time>2021-08-07T10:32:44Z</time>
      </trkpt>
      <trkpt lat="47.92722" lon="7.02952">
        <ele>1190.6</ele>
        <time>2021-08-07T10:32:45Z</time>
      </trkpt>
      <trkpt lat="47.92722" lon="7.02952">
        <ele>1190.6</ele>
        <time>2021-08-07T10:32:47Z</time>
      </trkpt>
      <trkpt lat="47.92722" lon="7.02952">
        <ele>1190.6</ele>
        <time>2021-08-07T10:32:48Z</time>
      </trkpt>
      <trkpt lat="47.92722" lon="7.02952">
        <ele>1190.6</ele>
        <time>2021-08-07T10:32:50Z</time>
      </trkpt>
      <trkpt lat="47.92722" lon="7.02952">
        <ele>1190.6</ele>
        <time>2021-08-07T10:32:51Z</time>
      </trkpt>
      <trkpt lat="47.92726" lon="7.02958">
        <ele>1189.7</ele>
        <time>2021-08-07T10:32:53Z</time>
      </trkpt>
      <trkpt lat="47.92727" lon="7.0296">
        <ele>1189.4</ele>
        <time>2021-08-07T10:32:54Z</time>
      </trkpt>
      <trkpt lat="47.92728" lon="7.02961">
        <ele>1189.4</ele>
        <time>2021-08-07T10:32:55Z</time>
      </trkpt>
      <trkpt lat="47.92728" lon="7.02961">
        <ele>1189.4</ele>
        <time>2021-08-07T10:32:57Z</time>
      </trkpt>
      <trkpt lat="47.92728" lon="7.02961">
        <ele>1189.4</ele>
        <time>2021-08-07T10:32:58Z</time>
      </trkpt>
      <trkpt lat="47.92728" lon="7.02959">
        <ele>1189.4</ele>
        <time>2021-08-07T10:33:00Z</time>
      </trkpt>
      <trkpt lat="47.92728" lon="7.02959">
        <ele>1189.4</ele>
        <time>2021-08-07T10:33:02Z</time>
      </trkpt>
      <trkpt lat="47.92728" lon="7.02959">
        <ele>1189.4</ele>
        <time>2021-08-07T10:33:03Z</time>
      </trkpt>
      <trkpt lat="47.92728" lon="7.02959">
        <ele>1189.4</ele>
        <time>2021-08-07T10:33:04Z</time>
      </trkpt>
      <trkpt lat="47.92728" lon="7.02959">
        <ele>1189.4</ele>
        <time>2021-08-07T10:33:05Z</time>
      </trkpt>
      <trkpt lat="47.92728" lon="7.02959">
        <ele>1189.4</ele>
        <time>2021-08-07T10:33:06Z</time>
      </trkpt>
      <trkpt lat="47.92728" lon="7.02959">
        <ele>1189.4</ele>
        <time>2021-08-07T10:33:08Z</time>
      </trkpt>
      <trkpt lat="47.92728" lon="7.02959">
        <ele>1189.4</ele>
        <time>2021-08-07T10:33:09Z</time>
      </trkpt>
      <trkpt lat="47.92728" lon="7.02959">
        <ele>1189.4</ele>
        <time>2021-08-07T10:33:11Z</time>
      </trkpt>
      <trkpt lat="47.92728" lon="7.02959">
        <ele>1189.4</ele>
        <time>2021-08-07T10:33:13Z</time>
      </trkpt>
      <trkpt lat="47.92725" lon="7.02949">
        <ele>1190.3</ele>
        <time>2021-08-07T10:33:15Z</time>
      </trkpt>
      <trkpt lat="47.92723" lon="7.02945">
        <ele>1191.1</ele>
        <time>2021-08-07T10:33:17Z</time>
      </trkpt>
      <trkpt lat="47.92722" lon="7.02943">
        <ele>1191.1</ele>
        <time>2021-08-07T10:33:19Z</time>
      </trkpt>
      <trkpt lat="47.92722" lon="7.02943">
        <ele>1191.1</ele>
        <time>2021-08-07T10:33:20Z</time>
      </trkpt>
      <trkpt lat="47.92722" lon="7.02942">
        <ele>1191.1</ele>
        <time>2021-08-07T10:33:22Z</time>
      </trkpt>
      <trkpt lat="47.92722" lon="7.02942">
        <ele>1191.1</ele>
        <time>2021-08-07T10:33:23Z</time>
      </trkpt>
      <trkpt lat="47.92722" lon="7.02942">
        <ele>1191.1</ele>
        <time>2021-08-07T10:33:24Z</time>
      </trkpt>
      <trkpt lat="47.92722" lon="7.02942">
        <ele>1191.1</ele>
        <time>2021-08-07T10:33:26Z</time>
      </trkpt>
      <trkpt lat="47.92722" lon="7.02942">
        <ele>1191.1</ele>
        <time>2021-08-07T10:33:27Z</time>
      </trkpt>
      <trkpt lat="47.92722" lon="7.02942">
        <ele>1191.1</ele>
        <time>2021-08-07T10:33:29Z</time>
      </trkpt>
      <trkpt lat="47.92722" lon="7.02942">
        <ele>1191.1</ele>
        <time>2021-08-07T10:33:30Z</time>
      </trkpt>
      <trkpt lat="47.92722" lon="7.02942">
        <ele>1191.1</ele>
        <time>2021-08-07T10:33:32Z</time>
      </trkpt>
      <trkpt lat="47.92722" lon="7.02942">
        <ele>1191.1</ele>
        <time>2021-08-07T10:33:34Z</time>
      </trkpt>
      <trkpt lat="47.92722" lon="7.02942">
        <ele>1191.1</ele>
        <time>2021-08-07T10:33:35Z</time>
      </trkpt>
      <trkpt lat="47.92723" lon="7.02952">
        <ele>1190.6</ele>
        <time>2021-08-07T10:33:37Z</time>
      </trkpt>
      <trkpt lat="47.92724" lon="7.02955">
        <ele>1190.3</ele>
        <time>2021-08-07T10:33:38Z</time>
      </trkpt>
      <trkpt lat="47.92725" lon="7.02956">
        <ele>1190</ele>
        <time>2021-08-07T10:33:40Z</time>
      </trkpt>
      <trkpt lat="47.92725" lon="7.02956">
        <ele>1190</ele>
        <time>2021-08-07T10:33:41Z</time>
      </trkpt>
      <trkpt lat="47.92725" lon="7.02957">
        <ele>1190</ele>
        <time>2021-08-07T10:33:42Z</time>
      </trkpt>
      <trkpt lat="47.92725" lon="7.02957">
        <ele>1190</ele>
        <time>2021-08-07T10:33:44Z</time>
      </trkpt>
      <trkpt lat="47.92725" lon="7.02957">
        <ele>1190</ele>
        <time>2021-08-07T10:33:45Z</time>
      </trkpt>
      <trkpt lat="47.92725" lon="7.02957">
        <ele>1190</ele>
        <time>2021-08-07T10:33:47Z</time>
      </trkpt>
      <trkpt lat="47.92725" lon="7.02957">
        <ele>1190</ele>
        <time>2021-08-07T10:33:48Z</time>
      </trkpt>
      <trkpt lat="47.92725" lon="7.02957">
        <ele>1190</ele>
        <time>2021-08-07T10:33:50Z</time>
      </trkpt>
      <trkpt lat="47.92725" lon="7.02957">
        <ele>1190</ele>
        <time>2021-08-07T10:33:52Z</time>
      </trkpt>
      <trkpt lat="47.92725" lon="7.02957">
        <ele>1190</ele>
        <time>2021-08-07T10:33:53Z</time>
      </trkpt>
      <trkpt lat="47.92725" lon="7.02957">
        <ele>1190</ele>
        <time>2021-08-07T10:33:54Z</time>
      </trkpt>
      <trkpt lat="47.92725" lon="7.02957">
        <ele>1190</ele>
        <time>2021-08-07T10:33:56Z</time>
      </trkpt>
      <trkpt lat="47.92725" lon="7.02957">
        <ele>1190</ele>
        <time>2021-08-07T10:33:57Z</time>
      </trkpt>
      <trkpt lat="47.92725" lon="7.02957">
        <ele>1190</ele>
        <time>2021-08-07T10:33:58Z</time>
      </trkpt>
      <trkpt lat="47.92725" lon="7.02956">
        <ele>1190</ele>
        <time>2021-08-07T10:33:59Z</time>
      </trkpt>
      <trkpt lat="47.92725" lon="7.02957">
        <ele>1190</ele>
        <time>2021-08-07T10:34:01Z</time>
      </trkpt>
      <trkpt lat="47.92724" lon="7.02959">
        <ele>1190</ele>
        <time>2021-08-07T10:34:02Z</time>
      </trkpt>
      <trkpt lat="47.92722" lon="7.02962">
        <ele>1189.7</ele>
        <time>2021-08-07T10:34:04Z</time>
      </trkpt>
      <trkpt lat="47.92721" lon="7.02964">
        <ele>1190</ele>
        <time>2021-08-07T10:34:06Z</time>
      </trkpt>
      <trkpt lat="47.92721" lon="7.02965">
        <ele>1190</ele>
        <time>2021-08-07T10:34:08Z</time>
      </trkpt>
      <trkpt lat="47.9272" lon="7.02965">
        <ele>1190</ele>
        <time>2021-08-07T10:34:10Z</time>
      </trkpt>
      <trkpt lat="47.9272" lon="7.02964">
        <ele>1190</ele>
        <time>2021-08-07T10:34:11Z</time>
      </trkpt>
      <trkpt lat="47.92719" lon="7.02963">
        <ele>1190</ele>
        <time>2021-08-07T10:34:13Z</time>
      </trkpt>
      <trkpt lat="47.92719" lon="7.02961">
        <ele>1190.3</ele>
        <time>2021-08-07T10:34:14Z</time>
      </trkpt>
      <trkpt lat="47.92719" lon="7.02959">
        <ele>1190.3</ele>
        <time>2021-08-07T10:34:16Z</time>
      </trkpt>
      <trkpt lat="47.92718" lon="7.02956">
        <ele>1190.9</ele>
        <time>2021-08-07T10:34:17Z</time>
      </trkpt>
      <trkpt lat="47.92718" lon="7.02954">
        <ele>1190.9</ele>
        <time>2021-08-07T10:34:18Z</time>
      </trkpt>
      <trkpt lat="47.92717" lon="7.02953">
        <ele>1191.2</ele>
        <time>2021-08-07T10:34:20Z</time>
      </trkpt>
      <trkpt lat="47.92717" lon="7.02951">
        <ele>1191.2</ele>
        <time>2021-08-07T10:34:22Z</time>
      </trkpt>
      <trkpt lat="47.92717" lon="7.0295">
        <ele>1191.2</ele>
        <time>2021-08-07T10:34:23Z</time>
      </trkpt>
      <trkpt lat="47.92717" lon="7.02948">
        <ele>1191.4</ele>
        <time>2021-08-07T10:34:24Z</time>
      </trkpt>
      <trkpt lat="47.92717" lon="7.02948">
        <ele>1191.4</ele>
        <time>2021-08-07T10:34:26Z</time>
      </trkpt>
      <trkpt lat="47.92717" lon="7.02948">
        <ele>1191.4</ele>
        <time>2021-08-07T10:34:27Z</time>
      </trkpt>
      <trkpt lat="47.92717" lon="7.02948">
        <ele>1191.4</ele>
        <time>2021-08-07T10:34:28Z</time>
      </trkpt>
      <trkpt lat="47.92717" lon="7.02948">
        <ele>1191.4</ele>
        <time>2021-08-07T10:34:30Z</time>
      </trkpt>
      <trkpt lat="47.92717" lon="7.02947">
        <ele>1191.4</ele>
        <time>2021-08-07T10:34:31Z</time>
      </trkpt>
      <trkpt lat="47.92717" lon="7.02947">
        <ele>1191.4</ele>
        <time>2021-08-07T10:34:33Z</time>
      </trkpt>
      <trkpt lat="47.92717" lon="7.02947">
        <ele>1191.4</ele>
        <time>2021-08-07T10:34:34Z</time>
      </trkpt>
      <trkpt lat="47.92717" lon="7.02947">
        <ele>1191.4</ele>
        <time>2021-08-07T10:34:35Z</time>
      </trkpt>
      <trkpt lat="47.92718" lon="7.02946">
        <ele>1191.4</ele>
        <time>2021-08-07T10:34:37Z</time>
      </trkpt>
      <trkpt lat="47.92718" lon="7.02946">
        <ele>1191.4</ele>
        <time>2021-08-07T10:34:38Z</time>
      </trkpt>
      <trkpt lat="47.92718" lon="7.02946">
        <ele>1191.4</ele>
        <time>2021-08-07T10:34:40Z</time>
      </trkpt>
      <trkpt lat="47.92718" lon="7.02946">
        <ele>1191.4</ele>
        <time>2021-08-07T10:34:41Z</time>
      </trkpt>
      <trkpt lat="47.92718" lon="7.02946">
        <ele>1191.4</ele>
        <time>2021-08-07T10:34:43Z</time>
      </trkpt>
      <trkpt lat="47.92718" lon="7.02945">
        <ele>1191.4</ele>
        <time>2021-08-07T10:34:44Z</time>
      </trkpt>
      <trkpt lat="47.92718" lon="7.02945">
        <ele>1191.4</ele>
        <time>2021-08-07T10:34:46Z</time>
      </trkpt>
      <trkpt lat="47.92718" lon="7.02945">
        <ele>1191.4</ele>
        <time>2021-08-07T10:34:47Z</time>
      </trkpt>
      <trkpt lat="47.92718" lon="7.02945">
        <ele>1191.7</ele>
        <time>2021-08-07T10:34:49Z</time>
      </trkpt>
      <trkpt lat="47.92718" lon="7.02944">
        <ele>1191.7</ele>
        <time>2021-08-07T10:34:50Z</time>
      </trkpt>
      <trkpt lat="47.92718" lon="7.02944">
        <ele>1191.7</ele>
        <time>2021-08-07T10:34:52Z</time>
      </trkpt>
      <trkpt lat="47.92718" lon="7.02944">
        <ele>1191.7</ele>
        <time>2021-08-07T10:34:53Z</time>
      </trkpt>
      <trkpt lat="47.92719" lon="7.02944">
        <ele>1191.4</ele>
        <time>2021-08-07T10:34:55Z</time>
      </trkpt>
      <trkpt lat="47.92719" lon="7.02944">
        <ele>1191.4</ele>
        <time>2021-08-07T10:34:56Z</time>
      </trkpt>
      <trkpt lat="47.92719" lon="7.02943">
        <ele>1191.4</ele>
        <time>2021-08-07T10:34:58Z</time>
      </trkpt>
      <trkpt lat="47.92719" lon="7.02943">
        <ele>1191.4</ele>
        <time>2021-08-07T10:34:59Z</time>
      </trkpt>
      <trkpt lat="47.92719" lon="7.02943">
        <ele>1191.4</ele>
        <time>2021-08-07T10:35:01Z</time>
      </trkpt>
      <trkpt lat="47.92719" lon="7.02943">
        <ele>1191.4</ele>
        <time>2021-08-07T10:35:02Z</time>
      </trkpt>
      <trkpt lat="47.92719" lon="7.02942">
        <ele>1191.4</ele>
        <time>2021-08-07T10:35:04Z</time>
      </trkpt>
      <trkpt lat="47.92719" lon="7.02942">
        <ele>1191.4</ele>
        <time>2021-08-07T10:35:05Z</time>
      </trkpt>
      <trkpt lat="47.92721" lon="7.02935">
        <ele>1192</ele>
        <time>2021-08-07T10:35:07Z</time>
      </trkpt>
      <trkpt lat="47.92721" lon="7.02934">
        <ele>1192</ele>
        <time>2021-08-07T10:35:08Z</time>
      </trkpt>
      <trkpt lat="47.9272" lon="7.02933">
        <ele>1192</ele>
        <time>2021-08-07T10:35:10Z</time>
      </trkpt>
      <trkpt lat="47.9272" lon="7.02932">
        <ele>1192</ele>
        <time>2021-08-07T10:35:11Z</time>
      </trkpt>
      <trkpt lat="47.92719" lon="7.02928">
        <ele>1192.3</ele>
        <time>2021-08-07T10:35:13Z</time>
      </trkpt>
      <trkpt lat="47.92719" lon="7.02924">
        <ele>1192.6</ele>
        <time>2021-08-07T10:35:14Z</time>
      </trkpt>
      <trkpt lat="47.92719" lon="7.02917">
        <ele>1193.4</ele>
        <time>2021-08-07T10:35:16Z</time>
      </trkpt>
      <trkpt lat="47.92718" lon="7.02915">
        <ele>1194.1</ele>
        <time>2021-08-07T10:35:17Z</time>
      </trkpt>
      <trkpt lat="47.92718" lon="7.02911">
        <ele>1194.1</ele>
        <time>2021-08-07T10:35:19Z</time>
      </trkpt>
      <trkpt lat="47.92719" lon="7.02912">
        <ele>1193.8</ele>
        <time>2021-08-07T10:35:20Z</time>
      </trkpt>
      <trkpt lat="47.92719" lon="7.02912">
        <ele>1193.8</ele>
        <time>2021-08-07T10:35:22Z</time>
      </trkpt>
      <trkpt lat="47.92719" lon="7.02913">
        <ele>1193.8</ele>
        <time>2021-08-07T10:35:23Z</time>
      </trkpt>
      <trkpt lat="47.92719" lon="7.02914">
        <ele>1193.8</ele>
        <time>2021-08-07T10:35:25Z</time>
      </trkpt>
      <trkpt lat="47.92719" lon="7.02914">
        <ele>1193.8</ele>
        <time>2021-08-07T10:35:26Z</time>
      </trkpt>
      <trkpt lat="47.92719" lon="7.02914">
        <ele>1193.8</ele>
        <time>2021-08-07T10:35:28Z</time>
      </trkpt>
      <trkpt lat="47.92719" lon="7.02914">
        <ele>1193.8</ele>
        <time>2021-08-07T10:35:29Z</time>
      </trkpt>
      <trkpt lat="47.92719" lon="7.02914">
        <ele>1193.8</ele>
        <time>2021-08-07T10:35:31Z</time>
      </trkpt>
      <trkpt lat="47.92719" lon="7.02914">
        <ele>1193.8</ele>
        <time>2021-08-07T10:35:32Z</time>
      </trkpt>
      <trkpt lat="47.92719" lon="7.02914">
        <ele>1193.8</ele>
        <time>2021-08-07T10:35:34Z</time>
      </trkpt>
      <trkpt lat="47.92719" lon="7.02914">
        <ele>1193.8</ele>
        <time>2021-08-07T10:35:36Z</time>
      </trkpt>
      <trkpt lat="47.92719" lon="7.02914">
        <ele>1193.8</ele>
        <time>2021-08-07T10:35:37Z</time>
      </trkpt>
      <trkpt lat="47.92719" lon="7.02914">
        <ele>1193.8</ele>
        <time>2021-08-07T10:35:38Z</time>
      </trkpt>
      <trkpt lat="47.92719" lon="7.02914">
        <ele>1193.8</ele>
        <time>2021-08-07T10:35:40Z</time>
      </trkpt>
      <trkpt lat="47.92719" lon="7.02914">
        <ele>1193.8</ele>
        <time>2021-08-07T10:35:42Z</time>
      </trkpt>
      <trkpt lat="47.92719" lon="7.02914">
        <ele>1193.8</ele>
        <time>2021-08-07T10:35:44Z</time>
      </trkpt>
      <trkpt lat="47.92719" lon="7.02914">
        <ele>1193.8</ele>
        <time>2021-08-07T10:35:46Z</time>
      </trkpt>
      <trkpt lat="47.92719" lon="7.02914">
        <ele>1193.8</ele>
        <time>2021-08-07T10:35:48Z</time>
      </trkpt>
      <trkpt lat="47.92719" lon="7.02914">
        <ele>1193.8</ele>
        <time>2021-08-07T10:35:50Z</time>
      </trkpt>
      <trkpt lat="47.92719" lon="7.02914">
        <ele>1193.8</ele>
        <time>2021-08-07T10:35:52Z</time>
      </trkpt>
      <trkpt lat="47.92719" lon="7.02914">
        <ele>1193.8</ele>
        <time>2021-08-07T10:35:54Z</time>
      </trkpt>
      <trkpt lat="47.92719" lon="7.02914">
        <ele>1193.8</ele>
        <time>2021-08-07T10:35:56Z</time>
      </trkpt>
      <trkpt lat="47.92719" lon="7.02914">
        <ele>1193.8</ele>
        <time>2021-08-07T10:35:57Z</time>
      </trkpt>
      <trkpt lat="47.92719" lon="7.02914">
        <ele>1193.8</ele>
        <time>2021-08-07T10:35:59Z</time>
      </trkpt>
      <trkpt lat="47.92719" lon="7.02914">
        <ele>1193.8</ele>
        <time>2021-08-07T10:36:00Z</time>
      </trkpt>
      <trkpt lat="47.92719" lon="7.02914">
        <ele>1193.8</ele>
        <time>2021-08-07T10:36:02Z</time>
      </trkpt>
      <trkpt lat="47.92719" lon="7.02914">
        <ele>1193.8</ele>
        <time>2021-08-07T10:36:03Z</time>
      </trkpt>
      <trkpt lat="47.92719" lon="7.02914">
        <ele>1193.8</ele>
        <time>2021-08-07T10:36:04Z</time>
      </trkpt>
      <trkpt lat="47.92719" lon="7.02914">
        <ele>1193.8</ele>
        <time>2021-08-07T10:36:06Z</time>
      </trkpt>
      <trkpt lat="47.92719" lon="7.02914">
        <ele>1193.8</ele>
        <time>2021-08-07T10:36:08Z</time>
      </trkpt>
      <trkpt lat="47.92717" lon="7.02908">
        <ele>1194.4</ele>
        <time>2021-08-07T10:36:10Z</time>
      </trkpt>
      <trkpt lat="47.92714" lon="7.029">
        <ele>1195.2</ele>
        <time>2021-08-07T10:36:12Z</time>
      </trkpt>
      <trkpt lat="47.92713" lon="7.02899">
        <ele>1195.2</ele>
        <time>2021-08-07T10:36:13Z</time>
      </trkpt>
      <trkpt lat="47.92713" lon="7.02899">
        <ele>1195.2</ele>
        <time>2021-08-07T10:36:14Z</time>
      </trkpt>
      <trkpt lat="47.92713" lon="7.02897">
        <ele>1195.5</ele>
        <time>2021-08-07T10:36:16Z</time>
      </trkpt>
      <trkpt lat="47.92713" lon="7.02897">
        <ele>1195.5</ele>
        <time>2021-08-07T10:36:18Z</time>
      </trkpt>
      <trkpt lat="47.92713" lon="7.02896">
        <ele>1195.5</ele>
        <time>2021-08-07T10:36:20Z</time>
      </trkpt>
      <trkpt lat="47.92713" lon="7.02896">
        <ele>1195.5</ele>
        <time>2021-08-07T10:36:22Z</time>
      </trkpt>
      <trkpt lat="47.92714" lon="7.02902">
        <ele>1195</ele>
        <time>2021-08-07T10:36:24Z</time>
      </trkpt>
      <trkpt lat="47.92715" lon="7.02908">
        <ele>1194.7</ele>
        <time>2021-08-07T10:36:26Z</time>
      </trkpt>
      <trkpt lat="47.92715" lon="7.02909">
        <ele>1194.7</ele>
        <time>2021-08-07T10:36:28Z</time>
      </trkpt>
      <trkpt lat="47.92715" lon="7.0291">
        <ele>1194.7</ele>
        <time>2021-08-07T10:36:29Z</time>
      </trkpt>
      <trkpt lat="47.92715" lon="7.0291">
        <ele>1194.7</ele>
        <time>2021-08-07T10:36:31Z</time>
      </trkpt>
      <trkpt lat="47.92715" lon="7.02918">
        <ele>1194</ele>
        <time>2021-08-07T10:36:33Z</time>
      </trkpt>
      <trkpt lat="47.92716" lon="7.02923">
        <ele>1193.3</ele>
        <time>2021-08-07T10:36:34Z</time>
      </trkpt>
      <trkpt lat="47.92717" lon="7.02929">
        <ele>1192.5</ele>
        <time>2021-08-07T10:36:36Z</time>
      </trkpt>
      <trkpt lat="47.92717" lon="7.0293">
        <ele>1192.5</ele>
        <time>2021-08-07T10:36:38Z</time>
      </trkpt>
      <trkpt lat="47.92717" lon="7.0293">
        <ele>1192.5</ele>
        <time>2021-08-07T10:36:39Z</time>
      </trkpt>
      <trkpt lat="47.92718" lon="7.0293">
        <ele>1192.5</ele>
        <time>2021-08-07T10:36:41Z</time>
      </trkpt>
      <trkpt lat="47.92718" lon="7.02931">
        <ele>1192.5</ele>
        <time>2021-08-07T10:36:43Z</time>
      </trkpt>
      <trkpt lat="47.92718" lon="7.02931">
        <ele>1192.5</ele>
        <time>2021-08-07T10:36:44Z</time>
      </trkpt>
      <trkpt lat="47.92718" lon="7.02931">
        <ele>1192.5</ele>
        <time>2021-08-07T10:36:46Z</time>
      </trkpt>
      <trkpt lat="47.92718" lon="7.02931">
        <ele>1192.5</ele>
        <time>2021-08-07T10:36:47Z</time>
      </trkpt>
      <trkpt lat="47.92718" lon="7.02931">
        <ele>1192.5</ele>
        <time>2021-08-07T10:36:49Z</time>
      </trkpt>
      <trkpt lat="47.92718" lon="7.02931">
        <ele>1192.5</ele>
        <time>2021-08-07T10:36:50Z</time>
      </trkpt>
      <trkpt lat="47.92718" lon="7.02931">
        <ele>1192.5</ele>
        <time>2021-08-07T10:36:52Z</time>
      </trkpt>
      <trkpt lat="47.92718" lon="7.02931">
        <ele>1192.5</ele>
        <time>2021-08-07T10:36:53Z</time>
      </trkpt>
      <trkpt lat="47.92718" lon="7.02931">
        <ele>1192.5</ele>
        <time>2021-08-07T10:36:55Z</time>
      </trkpt>
      <trkpt lat="47.92718" lon="7.02931">
        <ele>1192.5</ele>
        <time>2021-08-07T10:36:56Z</time>
      </trkpt>
      <trkpt lat="47.92718" lon="7.02931">
        <ele>1192.5</ele>
        <time>2021-08-07T10:36:58Z</time>
      </trkpt>
      <trkpt lat="47.92718" lon="7.02931">
        <ele>1192.5</ele>
        <time>2021-08-07T10:36:59Z</time>
      </trkpt>
      <trkpt lat="47.92718" lon="7.02931">
        <ele>1192.5</ele>
        <time>2021-08-07T10:37:00Z</time>
      </trkpt>
      <trkpt lat="47.92718" lon="7.02931">
        <ele>1192.5</ele>
        <time>2021-08-07T10:37:01Z</time>
      </trkpt>
      <trkpt lat="47.92718" lon="7.02931">
        <ele>1192.5</ele>
        <time>2021-08-07T10:37:03Z</time>
      </trkpt>
      <trkpt lat="47.92718" lon="7.02931">
        <ele>1192.5</ele>
        <time>2021-08-07T10:37:05Z</time>
      </trkpt>
      <trkpt lat="47.92718" lon="7.02931">
        <ele>1192.5</ele>
        <time>2021-08-07T10:37:06Z</time>
      </trkpt>
      <trkpt lat="47.92718" lon="7.02931">
        <ele>1192.5</ele>
        <time>2021-08-07T10:37:07Z</time>
      </trkpt>
      <trkpt lat="47.92718" lon="7.02931">
        <ele>1192.5</ele>
        <time>2021-08-07T10:37:08Z</time>
      </trkpt>
      <trkpt lat="47.92718" lon="7.02931">
        <ele>1192.5</ele>
        <time>2021-08-07T10:37:10Z</time>
      </trkpt>
      <trkpt lat="47.92718" lon="7.02931">
        <ele>1192.5</ele>
        <time>2021-08-07T10:37:11Z</time>
      </trkpt>
      <trkpt lat="47.92718" lon="7.02931">
        <ele>1192.5</ele>
        <time>2021-08-07T10:37:12Z</time>
      </trkpt>
      <trkpt lat="47.92718" lon="7.02931">
        <ele>1192.5</ele>
        <time>2021-08-07T10:37:13Z</time>
      </trkpt>
      <trkpt lat="47.92718" lon="7.02931">
        <ele>1192.5</ele>
        <time>2021-08-07T10:37:15Z</time>
      </trkpt>
      <trkpt lat="47.92718" lon="7.02931">
        <ele>1192.6</ele>
        <time>2021-08-07T10:37:17Z</time>
      </trkpt>
      <trkpt lat="47.92718" lon="7.02931">
        <ele>1192.6</ele>
        <time>2021-08-07T10:37:18Z</time>
      </trkpt>
      <trkpt lat="47.92718" lon="7.02931">
        <ele>1192.6</ele>
        <time>2021-08-07T10:37:19Z</time>
      </trkpt>
      <trkpt lat="47.92718" lon="7.02931">
        <ele>1192.6</ele>
        <time>2021-08-07T10:37:20Z</time>
      </trkpt>
      <trkpt lat="47.92718" lon="7.02931">
        <ele>1192.6</ele>
        <time>2021-08-07T10:37:22Z</time>
      </trkpt>
      <trkpt lat="47.92718" lon="7.02931">
        <ele>1192.6</ele>
        <time>2021-08-07T10:37:23Z</time>
      </trkpt>
      <trkpt lat="47.92718" lon="7.02931">
        <ele>1192.7</ele>
        <time>2021-08-07T10:37:24Z</time>
      </trkpt>
      <trkpt lat="47.92718" lon="7.02931">
        <ele>1192.7</ele>
        <time>2021-08-07T10:37:25Z</time>
      </trkpt>
      <trkpt lat="47.92718" lon="7.02931">
        <ele>1192.7</ele>
        <time>2021-08-07T10:37:26Z</time>
      </trkpt>
      <trkpt lat="47.92718" lon="7.02931">
        <ele>1192.7</ele>
        <time>2021-08-07T10:37:28Z</time>
      </trkpt>
      <trkpt lat="47.92718" lon="7.02931">
        <ele>1192.7</ele>
        <time>2021-08-07T10:37:29Z</time>
      </trkpt>
      <trkpt lat="47.92718" lon="7.02931">
        <ele>1192.8</ele>
        <time>2021-08-07T10:37:30Z</time>
      </trkpt>
      <trkpt lat="47.92718" lon="7.02931">
        <ele>1192.8</ele>
        <time>2021-08-07T10:37:31Z</time>
      </trkpt>
      <trkpt lat="47.92718" lon="7.02931">
        <ele>1192.8</ele>
        <time>2021-08-07T10:37:32Z</time>
      </trkpt>
      <trkpt lat="47.92718" lon="7.02931">
        <ele>1192.8</ele>
        <time>2021-08-07T10:37:34Z</time>
      </trkpt>
      <trkpt lat="47.92718" lon="7.02931">
        <ele>1192.8</ele>
        <time>2021-08-07T10:37:35Z</time>
      </trkpt>
      <trkpt lat="47.92718" lon="7.02931">
        <ele>1192.8</ele>
        <time>2021-08-07T10:37:37Z</time>
      </trkpt>
      <trkpt lat="47.92718" lon="7.02931">
        <ele>1192.9</ele>
        <time>2021-08-07T10:37:38Z</time>
      </trkpt>
      <trkpt lat="47.92718" lon="7.02931">
        <ele>1192.9</ele>
        <time>2021-08-07T10:37:40Z</time>
      </trkpt>
      <trkpt lat="47.92718" lon="7.02931">
        <ele>1192.9</ele>
        <time>2021-08-07T10:37:41Z</time>
      </trkpt>
      <trkpt lat="47.92718" lon="7.02931">
        <ele>1192.9</ele>
        <time>2021-08-07T10:37:42Z</time>
      </trkpt>
      <trkpt lat="47.92718" lon="7.02931">
        <ele>1192.9</ele>
        <time>2021-08-07T10:37:44Z</time>
      </trkpt>
      <trkpt lat="47.92718" lon="7.02931">
        <ele>1193</ele>
        <time>2021-08-07T10:37:46Z</time>
      </trkpt>
      <trkpt lat="47.92718" lon="7.02931">
        <ele>1193</ele>
        <time>2021-08-07T10:37:47Z</time>
      </trkpt>
      <trkpt lat="47.92718" lon="7.02931">
        <ele>1193</ele>
        <time>2021-08-07T10:37:48Z</time>
      </trkpt>
      <trkpt lat="47.92718" lon="7.02931">
        <ele>1193</ele>
        <time>2021-08-07T10:37:49Z</time>
      </trkpt>
      <trkpt lat="47.92718" lon="7.02931">
        <ele>1193</ele>
        <time>2021-08-07T10:37:50Z</time>
      </trkpt>
      <trkpt lat="47.92718" lon="7.02931">
        <ele>1193</ele>
        <time>2021-08-07T10:37:52Z</time>
      </trkpt>
      <trkpt lat="47.92718" lon="7.02931">
        <ele>1193.1</ele>
        <time>2021-08-07T10:37:53Z</time>
      </trkpt>
      <trkpt lat="47.92718" lon="7.02931">
        <ele>1193.1</ele>
        <time>2021-08-07T10:37:55Z</time>
      </trkpt>
      <trkpt lat="47.92718" lon="7.02931">
        <ele>1193.1</ele>
        <time>2021-08-07T10:37:56Z</time>
      </trkpt>
      <trkpt lat="47.92718" lon="7.02931">
        <ele>1193.1</ele>
        <time>2021-08-07T10:37:58Z</time>
      </trkpt>
      <trkpt lat="47.92718" lon="7.02931">
        <ele>1193.1</ele>
        <time>2021-08-07T10:37:59Z</time>
      </trkpt>
      <trkpt lat="47.92718" lon="7.02931">
        <ele>1193.1</ele>
        <time>2021-08-07T10:38:00Z</time>
      </trkpt>
      <trkpt lat="47.92718" lon="7.02931">
        <ele>1193.2</ele>
        <time>2021-08-07T10:38:02Z</time>
      </trkpt>
      <trkpt lat="47.92718" lon="7.02931">
        <ele>1193.2</ele>
        <time>2021-08-07T10:38:04Z</time>
      </trkpt>
      <trkpt lat="47.92718" lon="7.02931">
        <ele>1193.2</ele>
        <time>2021-08-07T10:38:05Z</time>
      </trkpt>
      <trkpt lat="47.92718" lon="7.02931">
        <ele>1193.2</ele>
        <time>2021-08-07T10:38:06Z</time>
      </trkpt>
      <trkpt lat="47.92718" lon="7.02931">
        <ele>1193.2</ele>
        <time>2021-08-07T10:38:08Z</time>
      </trkpt>
      <trkpt lat="47.92718" lon="7.02931">
        <ele>1193.3</ele>
        <time>2021-08-07T10:38:10Z</time>
      </trkpt>
      <trkpt lat="47.92718" lon="7.02931">
        <ele>1193.3</ele>
        <time>2021-08-07T10:38:11Z</time>
      </trkpt>
      <trkpt lat="47.92718" lon="7.02931">
        <ele>1193.3</ele>
        <time>2021-08-07T10:38:12Z</time>
      </trkpt>
      <trkpt lat="47.92718" lon="7.02931">
        <ele>1193.3</ele>
        <time>2021-08-07T10:38:13Z</time>
      </trkpt>
      <trkpt lat="47.92718" lon="7.02931">
        <ele>1193.3</ele>
        <time>2021-08-07T10:38:14Z</time>
      </trkpt>
      <trkpt lat="47.92718" lon="7.02931">
        <ele>1193.3</ele>
        <time>2021-08-07T10:38:16Z</time>
      </trkpt>
      <trkpt lat="47.92718" lon="7.02931">
        <ele>1193.4</ele>
        <time>2021-08-07T10:38:18Z</time>
      </trkpt>
      <trkpt lat="47.92718" lon="7.02931">
        <ele>1193.4</ele>
        <time>2021-08-07T10:38:20Z</time>
      </trkpt>
      <trkpt lat="47.92718" lon="7.02931">
        <ele>1193.4</ele>
        <time>2021-08-07T10:38:22Z</time>
      </trkpt>
      <trkpt lat="47.92718" lon="7.02931">
        <ele>1193.4</ele>
        <time>2021-08-07T10:38:23Z</time>
      </trkpt>
      <trkpt lat="47.92718" lon="7.02931">
        <ele>1193.4</ele>
        <time>2021-08-07T10:38:24Z</time>
      </trkpt>
      <trkpt lat="47.92718" lon="7.02931">
        <ele>1193.5</ele>
        <time>2021-08-07T10:38:25Z</time>
      </trkpt>
      <trkpt lat="47.92718" lon="7.02931">
        <ele>1193.5</ele>
        <time>2021-08-07T10:38:27Z</time>
      </trkpt>
      <trkpt lat="47.92718" lon="7.02931">
        <ele>1193.5</ele>
        <time>2021-08-07T10:38:28Z</time>
      </trkpt>
      <trkpt lat="47.92718" lon="7.02931">
        <ele>1193.5</ele>
        <time>2021-08-07T10:38:29Z</time>
      </trkpt>
      <trkpt lat="47.92718" lon="7.02931">
        <ele>1193.5</ele>
        <time>2021-08-07T10:38:31Z</time>
      </trkpt>
      <trkpt lat="47.92718" lon="7.02931">
        <ele>1193.5</ele>
        <time>2021-08-07T10:38:32Z</time>
      </trkpt>
      <trkpt lat="47.92718" lon="7.02931">
        <ele>1193.6</ele>
        <time>2021-08-07T10:38:34Z</time>
      </trkpt>
      <trkpt lat="47.92718" lon="7.02931">
        <ele>1193.6</ele>
        <time>2021-08-07T10:38:35Z</time>
      </trkpt>
      <trkpt lat="47.92718" lon="7.02931">
        <ele>1193.6</ele>
        <time>2021-08-07T10:38:37Z</time>
      </trkpt>
      <trkpt lat="47.92718" lon="7.02931">
        <ele>1193.6</ele>
        <time>2021-08-07T10:38:38Z</time>
      </trkpt>
      <trkpt lat="47.92716" lon="7.02921">
        <ele>1193.9</ele>
        <time>2021-08-07T10:38:40Z</time>
      </trkpt>
      <trkpt lat="47.92715" lon="7.02919">
        <ele>1194.2</ele>
        <time>2021-08-07T10:38:41Z</time>
      </trkpt>
      <trkpt lat="47.92715" lon="7.02918">
        <ele>1194.2</ele>
        <time>2021-08-07T10:38:42Z</time>
      </trkpt>
      <trkpt lat="47.92715" lon="7.02918">
        <ele>1194.2</ele>
        <time>2021-08-07T10:38:43Z</time>
      </trkpt>
      <trkpt lat="47.92715" lon="7.02918">
        <ele>1194.2</ele>
        <time>2021-08-07T10:38:44Z</time>
      </trkpt>
      <trkpt lat="47.92715" lon="7.02918">
        <ele>1194.2</ele>
        <time>2021-08-07T10:38:46Z</time>
      </trkpt>
      <trkpt lat="47.92715" lon="7.02918">
        <ele>1194.2</ele>
        <time>2021-08-07T10:38:47Z</time>
      </trkpt>
      <trkpt lat="47.92715" lon="7.02918">
        <ele>1194.2</ele>
        <time>2021-08-07T10:38:48Z</time>
      </trkpt>
      <trkpt lat="47.92715" lon="7.02918">
        <ele>1194.2</ele>
        <time>2021-08-07T10:38:49Z</time>
      </trkpt>
      <trkpt lat="47.92715" lon="7.02918">
        <ele>1194.2</ele>
        <time>2021-08-07T10:38:50Z</time>
      </trkpt>
      <trkpt lat="47.92715" lon="7.02918">
        <ele>1194.2</ele>
        <time>2021-08-07T10:38:52Z</time>
      </trkpt>
      <trkpt lat="47.92715" lon="7.02918">
        <ele>1194.2</ele>
        <time>2021-08-07T10:38:53Z</time>
      </trkpt>
      <trkpt lat="47.92715" lon="7.02918">
        <ele>1194.2</ele>
        <time>2021-08-07T10:38:54Z</time>
      </trkpt>
      <trkpt lat="47.92715" lon="7.02911">
        <ele>1194.3</ele>
        <time>2021-08-07T10:38:56Z</time>
      </trkpt>
      <trkpt lat="47.92715" lon="7.02904">
        <ele>1194.5</ele>
        <time>2021-08-07T10:38:58Z</time>
      </trkpt>
      <trkpt lat="47.92714" lon="7.029">
        <ele>1194.5</ele>
        <time>2021-08-07T10:38:59Z</time>
      </trkpt>
      <trkpt lat="47.92714" lon="7.02897">
        <ele>1194.6</ele>
        <time>2021-08-07T10:39:00Z</time>
      </trkpt>
      <trkpt lat="47.92715" lon="7.02893">
        <ele>1194.6</ele>
        <time>2021-08-07T10:39:02Z</time>
      </trkpt>
      <trkpt lat="47.92716" lon="7.02891">
        <ele>1194.5</ele>
        <time>2021-08-07T10:39:04Z</time>
      </trkpt>
      <trkpt lat="47.92716" lon="7.0289">
        <ele>1194.5</ele>
        <time>2021-08-07T10:39:05Z</time>
      </trkpt>
      <trkpt lat="47.92716" lon="7.0289">
        <ele>1194.5</ele>
        <time>2021-08-07T10:39:06Z</time>
      </trkpt>
      <trkpt lat="47.92717" lon="7.0289">
        <ele>1194.5</ele>
        <time>2021-08-07T10:39:08Z</time>
      </trkpt>
      <trkpt lat="47.92717" lon="7.0289">
        <ele>1194.5</ele>
        <time>2021-08-07T10:39:10Z</time>
      </trkpt>
      <trkpt lat="47.92717" lon="7.0289">
        <ele>1194.5</ele>
        <time>2021-08-07T10:39:11Z</time>
      </trkpt>
      <trkpt lat="47.92717" lon="7.0289">
        <ele>1194.4</ele>
        <time>2021-08-07T10:39:12Z</time>
      </trkpt>
      <trkpt lat="47.92717" lon="7.0289">
        <ele>1194.4</ele>
        <time>2021-08-07T10:39:14Z</time>
      </trkpt>
      <trkpt lat="47.92717" lon="7.0289">
        <ele>1194.4</ele>
        <time>2021-08-07T10:39:15Z</time>
      </trkpt>
      <trkpt lat="47.92717" lon="7.0289">
        <ele>1194.4</ele>
        <time>2021-08-07T10:39:17Z</time>
      </trkpt>
      <trkpt lat="47.92717" lon="7.0289">
        <ele>1194.4</ele>
        <time>2021-08-07T10:39:18Z</time>
      </trkpt>
      <trkpt lat="47.92717" lon="7.0289">
        <ele>1194.4</ele>
        <time>2021-08-07T10:39:20Z</time>
      </trkpt>
      <trkpt lat="47.92717" lon="7.0289">
        <ele>1194.4</ele>
        <time>2021-08-07T10:39:21Z</time>
      </trkpt>
      <trkpt lat="47.92717" lon="7.0289">
        <ele>1194.4</ele>
        <time>2021-08-07T10:39:23Z</time>
      </trkpt>
      <trkpt lat="47.92717" lon="7.0289">
        <ele>1194.4</ele>
        <time>2021-08-07T10:39:25Z</time>
      </trkpt>
      <trkpt lat="47.92717" lon="7.0289">
        <ele>1194.3</ele>
        <time>2021-08-07T10:39:26Z</time>
      </trkpt>
      <trkpt lat="47.92717" lon="7.0289">
        <ele>1194.3</ele>
        <time>2021-08-07T10:39:28Z</time>
      </trkpt>
      <trkpt lat="47.92717" lon="7.0289">
        <ele>1194.3</ele>
        <time>2021-08-07T10:39:29Z</time>
      </trkpt>
      <trkpt lat="47.92717" lon="7.0289">
        <ele>1194.3</ele>
        <time>2021-08-07T10:39:30Z</time>
      </trkpt>
      <trkpt lat="47.92717" lon="7.0289">
        <ele>1194.3</ele>
        <time>2021-08-07T10:39:31Z</time>
      </trkpt>
      <trkpt lat="47.92717" lon="7.0289">
        <ele>1194.3</ele>
        <time>2021-08-07T10:39:32Z</time>
      </trkpt>
      <trkpt lat="47.92717" lon="7.0289">
        <ele>1194.3</ele>
        <time>2021-08-07T10:39:34Z</time>
      </trkpt>
      <trkpt lat="47.92717" lon="7.0289">
        <ele>1194.3</ele>
        <time>2021-08-07T10:39:35Z</time>
      </trkpt>
      <trkpt lat="47.92717" lon="7.0289">
        <ele>1194.3</ele>
        <time>2021-08-07T10:39:36Z</time>
      </trkpt>
      <trkpt lat="47.92717" lon="7.0289">
        <ele>1194.3</ele>
        <time>2021-08-07T10:39:37Z</time>
      </trkpt>
      <trkpt lat="47.92717" lon="7.0289">
        <ele>1194.3</ele>
        <time>2021-08-07T10:39:39Z</time>
      </trkpt>
      <trkpt lat="47.92717" lon="7.0289">
        <ele>1194.3</ele>
        <time>2021-08-07T10:39:40Z</time>
      </trkpt>
      <trkpt lat="47.92717" lon="7.0289">
        <ele>1194.3</ele>
        <time>2021-08-07T10:39:41Z</time>
      </trkpt>
      <trkpt lat="47.92717" lon="7.0289">
        <ele>1194.3</ele>
        <time>2021-08-07T10:39:43Z</time>
      </trkpt>
      <trkpt lat="47.92717" lon="7.0289">
        <ele>1194.3</ele>
        <time>2021-08-07T10:39:44Z</time>
      </trkpt>
      <trkpt lat="47.92718" lon="7.02898">
        <ele>1194.4</ele>
        <time>2021-08-07T10:39:46Z</time>
      </trkpt>
      <trkpt lat="47.92718" lon="7.02903">
        <ele>1194.4</ele>
        <time>2021-08-07T10:39:47Z</time>
      </trkpt>
      <trkpt lat="47.92719" lon="7.02904">
        <ele>1194.4</ele>
        <time>2021-08-07T10:39:48Z</time>
      </trkpt>
      <trkpt lat="47.92719" lon="7.02905">
        <ele>1194.4</ele>
        <time>2021-08-07T10:39:50Z</time>
      </trkpt>
      <trkpt lat="47.92719" lon="7.02905">
        <ele>1194.4</ele>
        <time>2021-08-07T10:39:52Z</time>
      </trkpt>
      <trkpt lat="47.92719" lon="7.02905">
        <ele>1194.4</ele>
        <time>2021-08-07T10:39:53Z</time>
      </trkpt>
      <trkpt lat="47.92719" lon="7.02905">
        <ele>1194.4</ele>
        <time>2021-08-07T10:39:55Z</time>
      </trkpt>
      <trkpt lat="47.92719" lon="7.02905">
        <ele>1194.4</ele>
        <time>2021-08-07T10:39:56Z</time>
      </trkpt>
      <trkpt lat="47.92719" lon="7.02905">
        <ele>1194.4</ele>
        <time>2021-08-07T10:39:58Z</time>
      </trkpt>
      <trkpt lat="47.92719" lon="7.02905">
        <ele>1194.4</ele>
        <time>2021-08-07T10:39:59Z</time>
      </trkpt>
      <trkpt lat="47.92719" lon="7.02905">
        <ele>1194.4</ele>
        <time>2021-08-07T10:40:01Z</time>
      </trkpt>
      <trkpt lat="47.9272" lon="7.02917">
        <ele>1194.4</ele>
        <time>2021-08-07T10:40:03Z</time>
      </trkpt>
      <trkpt lat="47.9272" lon="7.02921">
        <ele>1194.4</ele>
        <time>2021-08-07T10:40:04Z</time>
      </trkpt>
      <trkpt lat="47.92721" lon="7.02927">
        <ele>1194.4</ele>
        <time>2021-08-07T10:40:06Z</time>
      </trkpt>
      <trkpt lat="47.92721" lon="7.02929">
        <ele>1194.4</ele>
        <time>2021-08-07T10:40:08Z</time>
      </trkpt>
      <trkpt lat="47.92721" lon="7.0293">
        <ele>1194.4</ele>
        <time>2021-08-07T10:40:09Z</time>
      </trkpt>
      <trkpt lat="47.92721" lon="7.02932">
        <ele>1194.4</ele>
        <time>2021-08-07T10:40:11Z</time>
      </trkpt>
      <trkpt lat="47.92722" lon="7.02933">
        <ele>1194.4</ele>
        <time>2021-08-07T10:40:12Z</time>
      </trkpt>
      <trkpt lat="47.92722" lon="7.02935">
        <ele>1194.4</ele>
        <time>2021-08-07T10:40:13Z</time>
      </trkpt>
      <trkpt lat="47.92722" lon="7.02939">
        <ele>1194.4</ele>
        <time>2021-08-07T10:40:14Z</time>
      </trkpt>
      <trkpt lat="47.92722" lon="7.02943">
        <ele>1194.4</ele>
        <time>2021-08-07T10:40:16Z</time>
      </trkpt>
      <trkpt lat="47.92722" lon="7.02943">
        <ele>1194.4</ele>
        <time>2021-08-07T10:40:17Z</time>
      </trkpt>
      <trkpt lat="47.92722" lon="7.02944">
        <ele>1194.4</ele>
        <time>2021-08-07T10:40:18Z</time>
      </trkpt>
      <trkpt lat="47.92722" lon="7.02944">
        <ele>1194.4</ele>
        <time>2021-08-07T10:40:20Z</time>
      </trkpt>
      <trkpt lat="47.92722" lon="7.02944">
        <ele>1194.4</ele>
        <time>2021-08-07T10:40:22Z</time>
      </trkpt>
      <trkpt lat="47.92722" lon="7.02944">
        <ele>1194.4</ele>
        <time>2021-08-07T10:40:23Z</time>
      </trkpt>
      <trkpt lat="47.92722" lon="7.02944">
        <ele>1194.4</ele>
        <time>2021-08-07T10:40:24Z</time>
      </trkpt>
      <trkpt lat="47.92722" lon="7.02944">
        <ele>1194.4</ele>
        <time>2021-08-07T10:40:25Z</time>
      </trkpt>
      <trkpt lat="47.92722" lon="7.02944">
        <ele>1194.4</ele>
        <time>2021-08-07T10:40:26Z</time>
      </trkpt>
      <trkpt lat="47.92722" lon="7.02944">
        <ele>1194.4</ele>
        <time>2021-08-07T10:40:28Z</time>
      </trkpt>
      <trkpt lat="47.92722" lon="7.02944">
        <ele>1194.4</ele>
        <time>2021-08-07T10:40:30Z</time>
      </trkpt>
      <trkpt lat="47.92722" lon="7.02944">
        <ele>1194.4</ele>
        <time>2021-08-07T10:40:32Z</time>
      </trkpt>
      <trkpt lat="47.92722" lon="7.02944">
        <ele>1194.4</ele>
        <time>2021-08-07T10:40:33Z</time>
      </trkpt>
      <trkpt lat="47.92722" lon="7.02944">
        <ele>1194.4</ele>
        <time>2021-08-07T10:40:34Z</time>
      </trkpt>
      <trkpt lat="47.92722" lon="7.02944">
        <ele>1194.4</ele>
        <time>2021-08-07T10:40:36Z</time>
      </trkpt>
      <trkpt lat="47.92722" lon="7.02944">
        <ele>1194.4</ele>
        <time>2021-08-07T10:40:38Z</time>
      </trkpt>
      <trkpt lat="47.92722" lon="7.02944">
        <ele>1194.4</ele>
        <time>2021-08-07T10:40:39Z</time>
      </trkpt>
      <trkpt lat="47.92722" lon="7.02944">
        <ele>1194.4</ele>
        <time>2021-08-07T10:40:40Z</time>
      </trkpt>
      <trkpt lat="47.92722" lon="7.02944">
        <ele>1194.4</ele>
        <time>2021-08-07T10:40:41Z</time>
      </trkpt>
      <trkpt lat="47.92722" lon="7.02944">
        <ele>1194.4</ele>
        <time>2021-08-07T10:40:42Z</time>
      </trkpt>
      <trkpt lat="47.92722" lon="7.02944">
        <ele>1194.4</ele>
        <time>2021-08-07T10:40:44Z</time>
      </trkpt>
      <trkpt lat="47.92722" lon="7.02944">
        <ele>1194.4</ele>
        <time>2021-08-07T10:40:45Z</time>
      </trkpt>
      <trkpt lat="47.92722" lon="7.02944">
        <ele>1194.4</ele>
        <time>2021-08-07T10:40:47Z</time>
      </trkpt>
      <trkpt lat="47.92722" lon="7.02944">
        <ele>1194.4</ele>
        <time>2021-08-07T10:40:48Z</time>
      </trkpt>
      <trkpt lat="47.92722" lon="7.02944">
        <ele>1194.4</ele>
        <time>2021-08-07T10:40:50Z</time>
      </trkpt>
      <trkpt lat="47.92722" lon="7.02944">
        <ele>1194.4</ele>
        <time>2021-08-07T10:40:51Z</time>
      </trkpt>
      <trkpt lat="47.92722" lon="7.02944">
        <ele>1194.4</ele>
        <time>2021-08-07T10:40:52Z</time>
      </trkpt>
      <trkpt lat="47.92722" lon="7.02944">
        <ele>1194.4</ele>
        <time>2021-08-07T10:40:53Z</time>
      </trkpt>
      <trkpt lat="47.92722" lon="7.02944">
        <ele>1194.4</ele>
        <time>2021-08-07T10:40:54Z</time>
      </trkpt>
      <trkpt lat="47.92722" lon="7.02944">
        <ele>1194.4</ele>
        <time>2021-08-07T10:40:56Z</time>
      </trkpt>
      <trkpt lat="47.92722" lon="7.02944">
        <ele>1194.4</ele>
        <time>2021-08-07T10:40:57Z</time>
      </trkpt>
      <trkpt lat="47.92722" lon="7.02944">
        <ele>1194.4</ele>
        <time>2021-08-07T10:40:59Z</time>
      </trkpt>
      <trkpt lat="47.92722" lon="7.02944">
        <ele>1194.4</ele>
        <time>2021-08-07T10:41:01Z</time>
      </trkpt>
      <trkpt lat="47.92722" lon="7.02944">
        <ele>1194.4</ele>
        <time>2021-08-07T10:41:03Z</time>
      </trkpt>
      <trkpt lat="47.92722" lon="7.02944">
        <ele>1194.4</ele>
        <time>2021-08-07T10:41:04Z</time>
      </trkpt>
      <trkpt lat="47.92722" lon="7.02944">
        <ele>1194.4</ele>
        <time>2021-08-07T10:41:05Z</time>
      </trkpt>
      <trkpt lat="47.92722" lon="7.02944">
        <ele>1194.4</ele>
        <time>2021-08-07T10:41:07Z</time>
      </trkpt>
      <trkpt lat="47.92722" lon="7.02944">
        <ele>1194.4</ele>
        <time>2021-08-07T10:41:09Z</time>
      </trkpt>
      <trkpt lat="47.92718" lon="7.02935">
        <ele>1194.4</ele>
        <time>2021-08-07T10:41:11Z</time>
      </trkpt>
      <trkpt lat="47.92716" lon="7.02929">
        <ele>1194.5</ele>
        <time>2021-08-07T10:41:13Z</time>
      </trkpt>
      <trkpt lat="47.92716" lon="7.02927">
        <ele>1194.5</ele>
        <time>2021-08-07T10:41:15Z</time>
      </trkpt>
      <trkpt lat="47.92716" lon="7.02926">
        <ele>1194.5</ele>
        <time>2021-08-07T10:41:16Z</time>
      </trkpt>
      <trkpt lat="47.92715" lon="7.02924">
        <ele>1194.5</ele>
        <time>2021-08-07T10:41:17Z</time>
      </trkpt>
      <trkpt lat="47.92715" lon="7.0292">
        <ele>1194.5</ele>
        <time>2021-08-07T10:41:18Z</time>
      </trkpt>
      <trkpt lat="47.92714" lon="7.02917">
        <ele>1194.5</ele>
        <time>2021-08-07T10:41:20Z</time>
      </trkpt>
      <trkpt lat="47.92714" lon="7.02917">
        <ele>1194.5</ele>
        <time>2021-08-07T10:41:21Z</time>
      </trkpt>
      <trkpt lat="47.92714" lon="7.02916">
        <ele>1194.5</ele>
        <time>2021-08-07T10:41:23Z</time>
      </trkpt>
      <trkpt lat="47.92714" lon="7.02916">
        <ele>1194.5</ele>
        <time>2021-08-07T10:41:24Z</time>
      </trkpt>
      <trkpt lat="47.92714" lon="7.02916">
        <ele>1194.5</ele>
        <time>2021-08-07T10:41:26Z</time>
      </trkpt>
      <trkpt lat="47.92714" lon="7.02916">
        <ele>1194.5</ele>
        <time>2021-08-07T10:41:27Z</time>
      </trkpt>
      <trkpt lat="47.92714" lon="7.02916">
        <ele>1194.5</ele>
        <time>2021-08-07T10:41:28Z</time>
      </trkpt>
      <trkpt lat="47.92714" lon="7.02916">
        <ele>1194.5</ele>
        <time>2021-08-07T10:41:29Z</time>
      </trkpt>
      <trkpt lat="47.92714" lon="7.02916">
        <ele>1194.5</ele>
        <time>2021-08-07T10:41:31Z</time>
      </trkpt>
      <trkpt lat="47.92714" lon="7.02916">
        <ele>1194.5</ele>
        <time>2021-08-07T10:41:33Z</time>
      </trkpt>
      <trkpt lat="47.92714" lon="7.02916">
        <ele>1194.5</ele>
        <time>2021-08-07T10:41:34Z</time>
      </trkpt>
      <trkpt lat="47.92714" lon="7.02916">
        <ele>1194.5</ele>
        <time>2021-08-07T10:41:35Z</time>
      </trkpt>
      <trkpt lat="47.92714" lon="7.02916">
        <ele>1194.5</ele>
        <time>2021-08-07T10:41:36Z</time>
      </trkpt>
      <trkpt lat="47.92714" lon="7.02916">
        <ele>1194.5</ele>
        <time>2021-08-07T10:41:38Z</time>
      </trkpt>
      <trkpt lat="47.92714" lon="7.02916">
        <ele>1194.5</ele>
        <time>2021-08-07T10:41:39Z</time>
      </trkpt>
      <trkpt lat="47.92714" lon="7.02916">
        <ele>1194.5</ele>
        <time>2021-08-07T10:41:40Z</time>
      </trkpt>
      <trkpt lat="47.92714" lon="7.02916">
        <ele>1194.5</ele>
        <time>2021-08-07T10:41:41Z</time>
      </trkpt>
      <trkpt lat="47.92714" lon="7.02916">
        <ele>1194.5</ele>
        <time>2021-08-07T10:41:43Z</time>
      </trkpt>
      <trkpt lat="47.92714" lon="7.02916">
        <ele>1194.5</ele>
        <time>2021-08-07T10:41:44Z</time>
      </trkpt>
      <trkpt lat="47.92714" lon="7.02916">
        <ele>1194.5</ele>
        <time>2021-08-07T10:41:46Z</time>
      </trkpt>
      <trkpt lat="47.92714" lon="7.02916">
        <ele>1194.5</ele>
        <time>2021-08-07T10:41:47Z</time>
      </trkpt>
      <trkpt lat="47.92714" lon="7.02916">
        <ele>1194.5</ele>
        <time>2021-08-07T10:41:48Z</time>
      </trkpt>
      <trkpt lat="47.92714" lon="7.02916">
        <ele>1194.5</ele>
        <time>2021-08-07T10:41:50Z</time>
      </trkpt>
      <trkpt lat="47.92714" lon="7.02916">
        <ele>1194.5</ele>
        <time>2021-08-07T10:41:52Z</time>
      </trkpt>
      <trkpt lat="47.92714" lon="7.02916">
        <ele>1194.5</ele>
        <time>2021-08-07T10:41:53Z</time>
      </trkpt>
      <trkpt lat="47.92714" lon="7.02916">
        <ele>1194.5</ele>
        <time>2021-08-07T10:41:54Z</time>
      </trkpt>
      <trkpt lat="47.92714" lon="7.02916">
        <ele>1194.5</ele>
        <time>2021-08-07T10:41:56Z</time>
      </trkpt>
      <trkpt lat="47.92714" lon="7.02916">
        <ele>1194.5</ele>
        <time>2021-08-07T10:41:58Z</time>
      </trkpt>
      <trkpt lat="47.92714" lon="7.02916">
        <ele>1194.5</ele>
        <time>2021-08-07T10:41:59Z</time>
      </trkpt>
      <trkpt lat="47.92714" lon="7.02916">
        <ele>1194.5</ele>
        <time>2021-08-07T10:42:00Z</time>
      </trkpt>
      <trkpt lat="47.92714" lon="7.02916">
        <ele>1194.5</ele>
        <time>2021-08-07T10:42:02Z</time>
      </trkpt>
      <trkpt lat="47.92716" lon="7.02927">
        <ele>1194.5</ele>
        <time>2021-08-07T10:42:04Z</time>
      </trkpt>
      <trkpt lat="47.92716" lon="7.02929">
        <ele>1194.5</ele>
        <time>2021-08-07T10:42:05Z</time>
      </trkpt>
      <trkpt lat="47.92716" lon="7.02931">
        <ele>1194.5</ele>
        <time>2021-08-07T10:42:06Z</time>
      </trkpt>
      <trkpt lat="47.92716" lon="7.02932">
        <ele>1194.5</ele>
        <time>2021-08-07T10:42:08Z</time>
      </trkpt>
      <trkpt lat="47.92716" lon="7.02933">
        <ele>1194.5</ele>
        <time>2021-08-07T10:42:10Z</time>
      </trkpt>
      <trkpt lat="47.92716" lon="7.02933">
        <ele>1194.5</ele>
        <time>2021-08-07T10:42:11Z</time>
      </trkpt>
      <trkpt lat="47.92716" lon="7.02933">
        <ele>1194.5</ele>
        <time>2021-08-07T10:42:12Z</time>
      </trkpt>
      <trkpt lat="47.92716" lon="7.02933">
        <ele>1194.5</ele>
        <time>2021-08-07T10:42:14Z</time>
      </trkpt>
      <trkpt lat="47.92716" lon="7.02933">
        <ele>1194.5</ele>
        <time>2021-08-07T10:42:15Z</time>
      </trkpt>
      <trkpt lat="47.92716" lon="7.02933">
        <ele>1194.5</ele>
        <time>2021-08-07T10:42:16Z</time>
      </trkpt>
      <trkpt lat="47.92716" lon="7.02933">
        <ele>1194.5</ele>
        <time>2021-08-07T10:42:17Z</time>
      </trkpt>
      <trkpt lat="47.92716" lon="7.02933">
        <ele>1194.5</ele>
        <time>2021-08-07T10:42:18Z</time>
      </trkpt>
      <trkpt lat="47.92716" lon="7.0292">
        <ele>1194.5</ele>
        <time>2021-08-07T10:42:20Z</time>
      </trkpt>
      <trkpt lat="47.92716" lon="7.02914">
        <ele>1194.5</ele>
        <time>2021-08-07T10:42:22Z</time>
      </trkpt>
      <trkpt lat="47.92716" lon="7.02913">
        <ele>1194.5</ele>
        <time>2021-08-07T10:42:23Z</time>
      </trkpt>
      <trkpt lat="47.92716" lon="7.02911">
        <ele>1194.5</ele>
        <time>2021-08-07T10:42:24Z</time>
      </trkpt>
      <trkpt lat="47.92716" lon="7.0291">
        <ele>1194.5</ele>
        <time>2021-08-07T10:42:26Z</time>
      </trkpt>
      <trkpt lat="47.92716" lon="7.02908">
        <ele>1194.5</ele>
        <time>2021-08-07T10:42:28Z</time>
      </trkpt>
      <trkpt lat="47.92716" lon="7.02906">
        <ele>1194.5</ele>
        <time>2021-08-07T10:42:29Z</time>
      </trkpt>
      <trkpt lat="47.92715" lon="7.02902">
        <ele>1194.5</ele>
        <time>2021-08-07T10:42:30Z</time>
      </trkpt>
      <trkpt lat="47.92715" lon="7.02897">
        <ele>1194.6</ele>
        <time>2021-08-07T10:42:32Z</time>
      </trkpt>
      <trkpt lat="47.92715" lon="7.02896">
        <ele>1194.6</ele>
        <time>2021-08-07T10:42:34Z</time>
      </trkpt>
      <trkpt lat="47.92715" lon="7.02896">
        <ele>1194.6</ele>
        <time>2021-08-07T10:42:35Z</time>
      </trkpt>
      <trkpt lat="47.92715" lon="7.02896">
        <ele>1194.6</ele>
        <time>2021-08-07T10:42:37Z</time>
      </trkpt>
      <trkpt lat="47.92715" lon="7.02896">
        <ele>1194.6</ele>
        <time>2021-08-07T10:42:38Z</time>
      </trkpt>
      <trkpt lat="47.92715" lon="7.02896">
        <ele>1194.6</ele>
        <time>2021-08-07T10:42:40Z</time>
      </trkpt>
      <trkpt lat="47.92715" lon="7.02896">
        <ele>1194.6</ele>
        <time>2021-08-07T10:42:41Z</time>
      </trkpt>
      <trkpt lat="47.92715" lon="7.02896">
        <ele>1194.6</ele>
        <time>2021-08-07T10:42:42Z</time>
      </trkpt>
      <trkpt lat="47.92715" lon="7.02896">
        <ele>1194.6</ele>
        <time>2021-08-07T10:42:44Z</time>
      </trkpt>
      <trkpt lat="47.92715" lon="7.02896">
        <ele>1194.6</ele>
        <time>2021-08-07T10:42:46Z</time>
      </trkpt>
      <trkpt lat="47.92715" lon="7.02896">
        <ele>1194.6</ele>
        <time>2021-08-07T10:42:47Z</time>
      </trkpt>
      <trkpt lat="47.92715" lon="7.02896">
        <ele>1194.6</ele>
        <time>2021-08-07T10:42:49Z</time>
      </trkpt>
      <trkpt lat="47.92715" lon="7.02896">
        <ele>1194.6</ele>
        <time>2021-08-07T10:42:50Z</time>
      </trkpt>
      <trkpt lat="47.92715" lon="7.02896">
        <ele>1194.6</ele>
        <time>2021-08-07T10:42:52Z</time>
      </trkpt>
      <trkpt lat="47.92715" lon="7.02896">
        <ele>1194.6</ele>
        <time>2021-08-07T10:42:53Z</time>
      </trkpt>
      <trkpt lat="47.92715" lon="7.02896">
        <ele>1194.6</ele>
        <time>2021-08-07T10:42:55Z</time>
      </trkpt>
      <trkpt lat="47.92715" lon="7.02896">
        <ele>1194.6</ele>
        <time>2021-08-07T10:42:56Z</time>
      </trkpt>
      <trkpt lat="47.92715" lon="7.02896">
        <ele>1194.6</ele>
        <time>2021-08-07T10:42:58Z</time>
      </trkpt>
      <trkpt lat="47.92715" lon="7.02896">
        <ele>1194.6</ele>
        <time>2021-08-07T10:42:59Z</time>
      </trkpt>
      <trkpt lat="47.92712" lon="7.02881">
        <ele>1194.6</ele>
        <time>2021-08-07T10:43:01Z</time>
      </trkpt>
      <trkpt lat="47.92711" lon="7.02878">
        <ele>1194.6</ele>
        <time>2021-08-07T10:43:02Z</time>
      </trkpt>
      <trkpt lat="47.92709" lon="7.02873">
        <ele>1194.6</ele>
        <time>2021-08-07T10:43:04Z</time>
      </trkpt>
      <trkpt lat="47.92709" lon="7.0287">
        <ele>1194.6</ele>
        <time>2021-08-07T10:43:05Z</time>
      </trkpt>
      <trkpt lat="47.92709" lon="7.02871">
        <ele>1194.6</ele>
        <time>2021-08-07T10:43:07Z</time>
      </trkpt>
      <trkpt lat="47.92709" lon="7.02871">
        <ele>1194.6</ele>
        <time>2021-08-07T10:43:08Z</time>
      </trkpt>
      <trkpt lat="47.92709" lon="7.02872">
        <ele>1194.6</ele>
        <time>2021-08-07T10:43:10Z</time>
      </trkpt>
      <trkpt lat="47.92709" lon="7.02873">
        <ele>1194.6</ele>
        <time>2021-08-07T10:43:12Z</time>
      </trkpt>
      <trkpt lat="47.92709" lon="7.02873">
        <ele>1194.6</ele>
        <time>2021-08-07T10:43:13Z</time>
      </trkpt>
      <trkpt lat="47.92709" lon="7.02874">
        <ele>1194.6</ele>
        <time>2021-08-07T10:43:14Z</time>
      </trkpt>
      <trkpt lat="47.92709" lon="7.02874">
        <ele>1194.6</ele>
        <time>2021-08-07T10:43:16Z</time>
      </trkpt>
      <trkpt lat="47.92709" lon="7.02875">
        <ele>1194.6</ele>
        <time>2021-08-07T10:43:17Z</time>
      </trkpt>
      <trkpt lat="47.92709" lon="7.02875">
        <ele>1194.6</ele>
        <time>2021-08-07T10:43:19Z</time>
      </trkpt>
      <trkpt lat="47.92709" lon="7.02876">
        <ele>1194.6</ele>
        <time>2021-08-07T10:43:20Z</time>
      </trkpt>
      <trkpt lat="47.92709" lon="7.02877">
        <ele>1194.6</ele>
        <time>2021-08-07T10:43:22Z</time>
      </trkpt>
      <trkpt lat="47.92709" lon="7.02877">
        <ele>1194.6</ele>
        <time>2021-08-07T10:43:24Z</time>
      </trkpt>
      <trkpt lat="47.92709" lon="7.02878">
        <ele>1194.6</ele>
        <time>2021-08-07T10:43:25Z</time>
      </trkpt>
      <trkpt lat="47.92709" lon="7.02878">
        <ele>1194.6</ele>
        <time>2021-08-07T10:43:26Z</time>
      </trkpt>
      <trkpt lat="47.92708" lon="7.02886">
        <ele>1194.6</ele>
        <time>2021-08-07T10:43:28Z</time>
      </trkpt>
      <trkpt lat="47.92708" lon="7.02888">
        <ele>1194.6</ele>
        <time>2021-08-07T10:43:29Z</time>
      </trkpt>
      <trkpt lat="47.92708" lon="7.02888">
        <ele>1194.6</ele>
        <time>2021-08-07T10:43:31Z</time>
      </trkpt>
      <trkpt lat="47.92708" lon="7.02889">
        <ele>1194.6</ele>
        <time>2021-08-07T10:43:32Z</time>
      </trkpt>
      <trkpt lat="47.92708" lon="7.02889">
        <ele>1194.6</ele>
        <time>2021-08-07T10:43:34Z</time>
      </trkpt>
      <trkpt lat="47.92709" lon="7.02889">
        <ele>1194.6</ele>
        <time>2021-08-07T10:43:35Z</time>
      </trkpt>
      <trkpt lat="47.92709" lon="7.02889">
        <ele>1194.6</ele>
        <time>2021-08-07T10:43:37Z</time>
      </trkpt>
      <trkpt lat="47.92709" lon="7.0289">
        <ele>1194.6</ele>
        <time>2021-08-07T10:43:38Z</time>
      </trkpt>
      <trkpt lat="47.92709" lon="7.0289">
        <ele>1194.6</ele>
        <time>2021-08-07T10:43:40Z</time>
      </trkpt>
      <trkpt lat="47.9271" lon="7.0289">
        <ele>1194.6</ele>
        <time>2021-08-07T10:43:41Z</time>
      </trkpt>
      <trkpt lat="47.9271" lon="7.0289">
        <ele>1194.6</ele>
        <time>2021-08-07T10:43:42Z</time>
      </trkpt>
      <trkpt lat="47.9271" lon="7.02891">
        <ele>1194.6</ele>
        <time>2021-08-07T10:43:44Z</time>
      </trkpt>
      <trkpt lat="47.92711" lon="7.02891">
        <ele>1194.6</ele>
        <time>2021-08-07T10:43:46Z</time>
      </trkpt>
      <trkpt lat="47.92711" lon="7.02891">
        <ele>1194.6</ele>
        <time>2021-08-07T10:43:47Z</time>
      </trkpt>
      <trkpt lat="47.92714" lon="7.02892">
        <ele>1194.6</ele>
        <time>2021-08-07T10:43:48Z</time>
      </trkpt>
      <trkpt lat="47.92716" lon="7.02893">
        <ele>1194.6</ele>
        <time>2021-08-07T10:43:50Z</time>
      </trkpt>
      <trkpt lat="47.92717" lon="7.02893">
        <ele>1194.6</ele>
        <time>2021-08-07T10:43:52Z</time>
      </trkpt>
      <trkpt lat="47.92717" lon="7.02893">
        <ele>1194.6</ele>
        <time>2021-08-07T10:43:54Z</time>
      </trkpt>
      <trkpt lat="47.92717" lon="7.02893">
        <ele>1194.6</ele>
        <time>2021-08-07T10:43:55Z</time>
      </trkpt>
      <trkpt lat="47.92718" lon="7.02893">
        <ele>1194.6</ele>
        <time>2021-08-07T10:43:57Z</time>
      </trkpt>
      <trkpt lat="47.92718" lon="7.02893">
        <ele>1194.6</ele>
        <time>2021-08-07T10:43:58Z</time>
      </trkpt>
      <trkpt lat="47.92718" lon="7.02893">
        <ele>1194.6</ele>
        <time>2021-08-07T10:44:00Z</time>
      </trkpt>
      <trkpt lat="47.92718" lon="7.02893">
        <ele>1194.6</ele>
        <time>2021-08-07T10:44:01Z</time>
      </trkpt>
      <trkpt lat="47.92718" lon="7.02893">
        <ele>1194.6</ele>
        <time>2021-08-07T10:44:02Z</time>
      </trkpt>
      <trkpt lat="47.92714" lon="7.02893">
        <ele>1194.7</ele>
        <time>2021-08-07T10:44:04Z</time>
      </trkpt>
      <trkpt lat="47.92713" lon="7.02894">
        <ele>1194.7</ele>
        <time>2021-08-07T10:44:06Z</time>
      </trkpt>
      <trkpt lat="47.92713" lon="7.02896">
        <ele>1194.7</ele>
        <time>2021-08-07T10:44:07Z</time>
      </trkpt>
      <trkpt lat="47.92712" lon="7.02896">
        <ele>1194.7</ele>
        <time>2021-08-07T10:44:08Z</time>
      </trkpt>
      <trkpt lat="47.92712" lon="7.02897">
        <ele>1194.7</ele>
        <time>2021-08-07T10:44:10Z</time>
      </trkpt>
      <trkpt lat="47.92712" lon="7.02897">
        <ele>1194.7</ele>
        <time>2021-08-07T10:44:12Z</time>
      </trkpt>
      <trkpt lat="47.92712" lon="7.02897">
        <ele>1194.7</ele>
        <time>2021-08-07T10:44:13Z</time>
      </trkpt>
      <trkpt lat="47.92712" lon="7.02897">
        <ele>1194.7</ele>
        <time>2021-08-07T10:44:14Z</time>
      </trkpt>
      <trkpt lat="47.92712" lon="7.02897">
        <ele>1194.7</ele>
        <time>2021-08-07T10:44:16Z</time>
      </trkpt>
      <trkpt lat="47.92714" lon="7.02908">
        <ele>1194.7</ele>
        <time>2021-08-07T10:44:18Z</time>
      </trkpt>
      <trkpt lat="47.92713" lon="7.0291">
        <ele>1194.7</ele>
        <time>2021-08-07T10:44:19Z</time>
      </trkpt>
      <trkpt lat="47.92713" lon="7.02911">
        <ele>1194.7</ele>
        <time>2021-08-07T10:44:20Z</time>
      </trkpt>
      <trkpt lat="47.92713" lon="7.02912">
        <ele>1194.7</ele>
        <time>2021-08-07T10:44:21Z</time>
      </trkpt>
      <trkpt lat="47.92713" lon="7.02912">
        <ele>1194.7</ele>
        <time>2021-08-07T10:44:22Z</time>
      </trkpt>
      <trkpt lat="47.92713" lon="7.02912">
        <ele>1194.7</ele>
        <time>2021-08-07T10:44:24Z</time>
      </trkpt>
      <trkpt lat="47.92713" lon="7.02912">
        <ele>1194.7</ele>
        <time>2021-08-07T10:44:25Z</time>
      </trkpt>
      <trkpt lat="47.92713" lon="7.02912">
        <ele>1194.7</ele>
        <time>2021-08-07T10:44:26Z</time>
      </trkpt>
      <trkpt lat="47.92713" lon="7.02912">
        <ele>1194.7</ele>
        <time>2021-08-07T10:44:28Z</time>
      </trkpt>
      <trkpt lat="47.92713" lon="7.02912">
        <ele>1194.7</ele>
        <time>2021-08-07T10:44:30Z</time>
      </trkpt>
      <trkpt lat="47.92713" lon="7.02911">
        <ele>1194.7</ele>
        <time>2021-08-07T10:44:32Z</time>
      </trkpt>
      <trkpt lat="47.92713" lon="7.02911">
        <ele>1194.7</ele>
        <time>2021-08-07T10:44:34Z</time>
      </trkpt>
      <trkpt lat="47.92713" lon="7.02911">
        <ele>1194.7</ele>
        <time>2021-08-07T10:44:36Z</time>
      </trkpt>
      <trkpt lat="47.92712" lon="7.02911">
        <ele>1194.7</ele>
        <time>2021-08-07T10:44:38Z</time>
      </trkpt>
      <trkpt lat="47.92712" lon="7.02911">
        <ele>1194.7</ele>
        <time>2021-08-07T10:44:40Z</time>
      </trkpt>
      <trkpt lat="47.92712" lon="7.02911">
        <ele>1194.7</ele>
        <time>2021-08-07T10:44:42Z</time>
      </trkpt>
      <trkpt lat="47.92712" lon="7.02911">
        <ele>1194.7</ele>
        <time>2021-08-07T10:44:44Z</time>
      </trkpt>
      <trkpt lat="47.92712" lon="7.02911">
        <ele>1194.7</ele>
        <time>2021-08-07T10:44:46Z</time>
      </trkpt>
      <trkpt lat="47.92712" lon="7.0291">
        <ele>1194.7</ele>
        <time>2021-08-07T10:44:48Z</time>
      </trkpt>
      <trkpt lat="47.92712" lon="7.0291">
        <ele>1194.7</ele>
        <time>2021-08-07T10:44:49Z</time>
      </trkpt>
      <trkpt lat="47.92712" lon="7.0291">
        <ele>1194.7</ele>
        <time>2021-08-07T10:44:50Z</time>
      </trkpt>
      <trkpt lat="47.92712" lon="7.0291">
        <ele>1194.7</ele>
        <time>2021-08-07T10:44:52Z</time>
      </trkpt>
      <trkpt lat="47.92712" lon="7.0291">
        <ele>1194.7</ele>
        <time>2021-08-07T10:44:54Z</time>
      </trkpt>
      <trkpt lat="47.92712" lon="7.0291">
        <ele>1194.7</ele>
        <time>2021-08-07T10:44:55Z</time>
      </trkpt>
      <trkpt lat="47.92712" lon="7.0291">
        <ele>1194.7</ele>
        <time>2021-08-07T10:44:56Z</time>
      </trkpt>
      <trkpt lat="47.92712" lon="7.0291">
        <ele>1194.7</ele>
        <time>2021-08-07T10:44:58Z</time>
      </trkpt>
      <trkpt lat="47.92712" lon="7.0291">
        <ele>1194.7</ele>
        <time>2021-08-07T10:45:00Z</time>
      </trkpt>
      <trkpt lat="47.92712" lon="7.02909">
        <ele>1194.7</ele>
        <time>2021-08-07T10:45:02Z</time>
      </trkpt>
      <trkpt lat="47.92712" lon="7.02909">
        <ele>1194.7</ele>
        <time>2021-08-07T10:45:04Z</time>
      </trkpt>
      <trkpt lat="47.92712" lon="7.02909">
        <ele>1194.7</ele>
        <time>2021-08-07T10:45:05Z</time>
      </trkpt>
      <trkpt lat="47.92712" lon="7.02909">
        <ele>1194.7</ele>
        <time>2021-08-07T10:45:06Z</time>
      </trkpt>
      <trkpt lat="47.92712" lon="7.02909">
        <ele>1194.7</ele>
        <time>2021-08-07T10:45:07Z</time>
      </trkpt>
      <trkpt lat="47.92712" lon="7.02909">
        <ele>1194.7</ele>
        <time>2021-08-07T10:45:08Z</time>
      </trkpt>
      <trkpt lat="47.92712" lon="7.02909">
        <ele>1194.7</ele>
        <time>2021-08-07T10:45:10Z</time>
      </trkpt>
      <trkpt lat="47.92711" lon="7.02909">
        <ele>1194.7</ele>
        <time>2021-08-07T10:45:11Z</time>
      </trkpt>
      <trkpt lat="47.92711" lon="7.02908">
        <ele>1194.7</ele>
        <time>2021-08-07T10:45:13Z</time>
      </trkpt>
      <trkpt lat="47.92711" lon="7.02908">
        <ele>1194.7</ele>
        <time>2021-08-07T10:45:14Z</time>
      </trkpt>
      <trkpt lat="47.92711" lon="7.02908">
        <ele>1194.7</ele>
        <time>2021-08-07T10:45:15Z</time>
      </trkpt>
      <trkpt lat="47.92711" lon="7.02908">
        <ele>1194.7</ele>
        <time>2021-08-07T10:45:17Z</time>
      </trkpt>
      <trkpt lat="47.92711" lon="7.02908">
        <ele>1194.7</ele>
        <time>2021-08-07T10:45:19Z</time>
      </trkpt>
      <trkpt lat="47.92711" lon="7.02908">
        <ele>1194.7</ele>
        <time>2021-08-07T10:45:20Z</time>
      </trkpt>
      <trkpt lat="47.92711" lon="7.02908">
        <ele>1194.7</ele>
        <time>2021-08-07T10:45:22Z</time>
      </trkpt>
      <trkpt lat="47.92711" lon="7.02908">
        <ele>1194.7</ele>
        <time>2021-08-07T10:45:23Z</time>
      </trkpt>
      <trkpt lat="47.92711" lon="7.02908">
        <ele>1194.7</ele>
        <time>2021-08-07T10:45:25Z</time>
      </trkpt>
      <trkpt lat="47.92711" lon="7.02907">
        <ele>1194.7</ele>
        <time>2021-08-07T10:45:26Z</time>
      </trkpt>
      <trkpt lat="47.92711" lon="7.02907">
        <ele>1194.7</ele>
        <time>2021-08-07T10:45:28Z</time>
      </trkpt>
      <trkpt lat="47.92711" lon="7.02907">
        <ele>1194.7</ele>
        <time>2021-08-07T10:45:29Z</time>
      </trkpt>
      <trkpt lat="47.92711" lon="7.02907">
        <ele>1194.7</ele>
        <time>2021-08-07T10:45:30Z</time>
      </trkpt>
      <trkpt lat="47.92708" lon="7.02901">
        <ele>1194.7</ele>
        <time>2021-08-07T10:45:32Z</time>
      </trkpt>
      <trkpt lat="47.92706" lon="7.02898">
        <ele>1194.7</ele>
        <time>2021-08-07T10:45:34Z</time>
      </trkpt>
      <trkpt lat="47.92705" lon="7.02897">
        <ele>1194.7</ele>
        <time>2021-08-07T10:45:35Z</time>
      </trkpt>
      <trkpt lat="47.92702" lon="7.02896">
        <ele>1194.7</ele>
        <time>2021-08-07T10:45:36Z</time>
      </trkpt>
      <trkpt lat="47.92701" lon="7.02895">
        <ele>1194.7</ele>
        <time>2021-08-07T10:45:37Z</time>
      </trkpt>
      <trkpt lat="47.92697" lon="7.02893">
        <ele>1194.7</ele>
        <time>2021-08-07T10:45:38Z</time>
      </trkpt>
      <trkpt lat="47.92692" lon="7.02892">
        <ele>1194.7</ele>
        <time>2021-08-07T10:45:40Z</time>
      </trkpt>
      <trkpt lat="47.92689" lon="7.02892">
        <ele>1194.7</ele>
        <time>2021-08-07T10:45:41Z</time>
      </trkpt>
      <trkpt lat="47.92687" lon="7.02892">
        <ele>1194.7</ele>
        <time>2021-08-07T10:45:43Z</time>
      </trkpt>
      <trkpt lat="47.92687" lon="7.02892">
        <ele>1194.7</ele>
        <time>2021-08-07T10:45:44Z</time>
      </trkpt>
      <trkpt lat="47.92687" lon="7.02892">
        <ele>1194.8</ele>
        <time>2021-08-07T10:45:46Z</time>
      </trkpt>
      <trkpt lat="47.92687" lon="7.02892">
        <ele>1194.8</ele>
        <time>2021-08-07T10:45:47Z</time>
      </trkpt>
      <trkpt lat="47.92687" lon="7.02892">
        <ele>1194.8</ele>
        <time>2021-08-07T10:45:48Z</time>
      </trkpt>
      <trkpt lat="47.92687" lon="7.02892">
        <ele>1194.8</ele>
        <time>2021-08-07T10:45:50Z</time>
      </trkpt>
      <trkpt lat="47.92687" lon="7.02892">
        <ele>1194.8</ele>
        <time>2021-08-07T10:45:52Z</time>
      </trkpt>
      <trkpt lat="47.92687" lon="7.02892">
        <ele>1194.8</ele>
        <time>2021-08-07T10:45:53Z</time>
      </trkpt>
      <trkpt lat="47.92687" lon="7.02892">
        <ele>1194.8</ele>
        <time>2021-08-07T10:45:54Z</time>
      </trkpt>
      <trkpt lat="47.92687" lon="7.02892">
        <ele>1194.8</ele>
        <time>2021-08-07T10:45:56Z</time>
      </trkpt>
      <trkpt lat="47.92687" lon="7.02892">
        <ele>1194.8</ele>
        <time>2021-08-07T10:45:58Z</time>
      </trkpt>
      <trkpt lat="47.92687" lon="7.02892">
        <ele>1194.8</ele>
        <time>2021-08-07T10:45:59Z</time>
      </trkpt>
      <trkpt lat="47.92687" lon="7.02892">
        <ele>1194.8</ele>
        <time>2021-08-07T10:46:01Z</time>
      </trkpt>
      <trkpt lat="47.92687" lon="7.02892">
        <ele>1194.8</ele>
        <time>2021-08-07T10:46:02Z</time>
      </trkpt>
      <trkpt lat="47.92687" lon="7.02892">
        <ele>1194.8</ele>
        <time>2021-08-07T10:46:04Z</time>
      </trkpt>
      <trkpt lat="47.92691" lon="7.02895">
        <ele>1194.8</ele>
        <time>2021-08-07T10:46:05Z</time>
      </trkpt>
      <trkpt lat="47.92694" lon="7.02898">
        <ele>1194.8</ele>
        <time>2021-08-07T10:46:06Z</time>
      </trkpt>
      <trkpt lat="47.92697" lon="7.02899">
        <ele>1194.8</ele>
        <time>2021-08-07T10:46:07Z</time>
      </trkpt>
      <trkpt lat="47.92698" lon="7.029">
        <ele>1194.8</ele>
        <time>2021-08-07T10:46:08Z</time>
      </trkpt>
      <trkpt lat="47.927" lon="7.029">
        <ele>1194.8</ele>
        <time>2021-08-07T10:46:10Z</time>
      </trkpt>
      <trkpt lat="47.927" lon="7.02901">
        <ele>1194.8</ele>
        <time>2021-08-07T10:46:11Z</time>
      </trkpt>
      <trkpt lat="47.927" lon="7.02901">
        <ele>1194.8</ele>
        <time>2021-08-07T10:46:12Z</time>
      </trkpt>
      <trkpt lat="47.927" lon="7.02901">
        <ele>1194.8</ele>
        <time>2021-08-07T10:46:14Z</time>
      </trkpt>
      <trkpt lat="47.927" lon="7.02901">
        <ele>1194.8</ele>
        <time>2021-08-07T10:46:16Z</time>
      </trkpt>
      <trkpt lat="47.927" lon="7.02901">
        <ele>1194.8</ele>
        <time>2021-08-07T10:46:17Z</time>
      </trkpt>
      <trkpt lat="47.92705" lon="7.02907">
        <ele>1194.8</ele>
        <time>2021-08-07T10:46:19Z</time>
      </trkpt>
      <trkpt lat="47.92706" lon="7.02907">
        <ele>1194.8</ele>
        <time>2021-08-07T10:46:20Z</time>
      </trkpt>
      <trkpt lat="47.92708" lon="7.02904">
        <ele>1194.8</ele>
        <time>2021-08-07T10:46:22Z</time>
      </trkpt>
      <trkpt lat="47.92708" lon="7.02903">
        <ele>1194.8</ele>
        <time>2021-08-07T10:46:23Z</time>
      </trkpt>
      <trkpt lat="47.92709" lon="7.02903">
        <ele>1194.8</ele>
        <time>2021-08-07T10:46:24Z</time>
      </trkpt>
      <trkpt lat="47.9271" lon="7.02904">
        <ele>1194.8</ele>
        <time>2021-08-07T10:46:26Z</time>
      </trkpt>
      <trkpt lat="47.9271" lon="7.02904">
        <ele>1194.8</ele>
        <time>2021-08-07T10:46:28Z</time>
      </trkpt>
      <trkpt lat="47.9271" lon="7.02904">
        <ele>1194.8</ele>
        <time>2021-08-07T10:46:29Z</time>
      </trkpt>
      <trkpt lat="47.9271" lon="7.02904">
        <ele>1194.8</ele>
        <time>2021-08-07T10:46:31Z</time>
      </trkpt>
      <trkpt lat="47.9271" lon="7.02904">
        <ele>1194.8</ele>
        <time>2021-08-07T10:46:32Z</time>
      </trkpt>
      <trkpt lat="47.9271" lon="7.02904">
        <ele>1194.8</ele>
        <time>2021-08-07T10:46:34Z</time>
      </trkpt>
      <trkpt lat="47.9271" lon="7.02904">
        <ele>1194.8</ele>
        <time>2021-08-07T10:46:35Z</time>
      </trkpt>
      <trkpt lat="47.9271" lon="7.02904">
        <ele>1194.8</ele>
        <time>2021-08-07T10:46:37Z</time>
      </trkpt>
      <trkpt lat="47.9271" lon="7.02904">
        <ele>1194.8</ele>
        <time>2021-08-07T10:46:38Z</time>
      </trkpt>
      <trkpt lat="47.9271" lon="7.02904">
        <ele>1194.8</ele>
        <time>2021-08-07T10:46:40Z</time>
      </trkpt>
      <trkpt lat="47.9271" lon="7.02904">
        <ele>1194.8</ele>
        <time>2021-08-07T10:46:41Z</time>
      </trkpt>
      <trkpt lat="47.9271" lon="7.02904">
        <ele>1194.8</ele>
        <time>2021-08-07T10:46:43Z</time>
      </trkpt>
      <trkpt lat="47.9271" lon="7.02904">
        <ele>1194.8</ele>
        <time>2021-08-07T10:46:44Z</time>
      </trkpt>
      <trkpt lat="47.9271" lon="7.02904">
        <ele>1194.8</ele>
        <time>2021-08-07T10:46:46Z</time>
      </trkpt>
      <trkpt lat="47.9271" lon="7.02904">
        <ele>1194.8</ele>
        <time>2021-08-07T10:46:48Z</time>
      </trkpt>
      <trkpt lat="47.9271" lon="7.02904">
        <ele>1194.8</ele>
        <time>2021-08-07T10:46:49Z</time>
      </trkpt>
      <trkpt lat="47.9271" lon="7.02904">
        <ele>1194.8</ele>
        <time>2021-08-07T10:46:50Z</time>
      </trkpt>
      <trkpt lat="47.92714" lon="7.0291">
        <ele>1194.8</ele>
        <time>2021-08-07T10:46:52Z</time>
      </trkpt>
      <trkpt lat="47.92716" lon="7.02914">
        <ele>1194.8</ele>
        <time>2021-08-07T10:46:53Z</time>
      </trkpt>
      <trkpt lat="47.92716" lon="7.02915">
        <ele>1194.8</ele>
        <time>2021-08-07T10:46:54Z</time>
      </trkpt>
      <trkpt lat="47.92717" lon="7.02915">
        <ele>1194.8</ele>
        <time>2021-08-07T10:46:56Z</time>
      </trkpt>
      <trkpt lat="47.92717" lon="7.02915">
        <ele>1194.8</ele>
        <time>2021-08-07T10:46:58Z</time>
      </trkpt>
      <trkpt lat="47.92717" lon="7.02915">
        <ele>1194.8</ele>
        <time>2021-08-07T10:47:00Z</time>
      </trkpt>
      <trkpt lat="47.92717" lon="7.02915">
        <ele>1194.8</ele>
        <time>2021-08-07T10:47:02Z</time>
      </trkpt>
      <trkpt lat="47.92717" lon="7.02915">
        <ele>1194.8</ele>
        <time>2021-08-07T10:47:04Z</time>
      </trkpt>
      <trkpt lat="47.92717" lon="7.02915">
        <ele>1194.8</ele>
        <time>2021-08-07T10:47:05Z</time>
      </trkpt>
      <trkpt lat="47.92717" lon="7.02915">
        <ele>1194.8</ele>
        <time>2021-08-07T10:47:07Z</time>
      </trkpt>
      <trkpt lat="47.92717" lon="7.02915">
        <ele>1194.8</ele>
        <time>2021-08-07T10:47:08Z</time>
      </trkpt>
      <trkpt lat="47.92717" lon="7.02915">
        <ele>1194.8</ele>
        <time>2021-08-07T10:47:10Z</time>
      </trkpt>
      <trkpt lat="47.92717" lon="7.02915">
        <ele>1194.8</ele>
        <time>2021-08-07T10:47:11Z</time>
      </trkpt>
      <trkpt lat="47.92717" lon="7.02915">
        <ele>1194.8</ele>
        <time>2021-08-07T10:47:13Z</time>
      </trkpt>
      <trkpt lat="47.92717" lon="7.02915">
        <ele>1194.8</ele>
        <time>2021-08-07T10:47:14Z</time>
      </trkpt>
      <trkpt lat="47.92717" lon="7.02915">
        <ele>1194.8</ele>
        <time>2021-08-07T10:47:16Z</time>
      </trkpt>
      <trkpt lat="47.92717" lon="7.02915">
        <ele>1194.8</ele>
        <time>2021-08-07T10:47:17Z</time>
      </trkpt>
      <trkpt lat="47.92717" lon="7.02915">
        <ele>1194.8</ele>
        <time>2021-08-07T10:47:18Z</time>
      </trkpt>
      <trkpt lat="47.92717" lon="7.02915">
        <ele>1194.8</ele>
        <time>2021-08-07T10:47:20Z</time>
      </trkpt>
      <trkpt lat="47.92717" lon="7.02915">
        <ele>1194.8</ele>
        <time>2021-08-07T10:47:22Z</time>
      </trkpt>
      <trkpt lat="47.92715" lon="7.02915">
        <ele>1194.8</ele>
        <time>2021-08-07T10:47:24Z</time>
      </trkpt>
      <trkpt lat="47.92714" lon="7.02915">
        <ele>1194.8</ele>
        <time>2021-08-07T10:47:26Z</time>
      </trkpt>
      <trkpt lat="47.92713" lon="7.02915">
        <ele>1194.8</ele>
        <time>2021-08-07T10:47:28Z</time>
      </trkpt>
      <trkpt lat="47.92712" lon="7.02916">
        <ele>1194.8</ele>
        <time>2021-08-07T10:47:29Z</time>
      </trkpt>
      <trkpt lat="47.92712" lon="7.02916">
        <ele>1194.8</ele>
        <time>2021-08-07T10:47:31Z</time>
      </trkpt>
      <trkpt lat="47.92712" lon="7.02916">
        <ele>1194.8</ele>
        <time>2021-08-07T10:47:33Z</time>
      </trkpt>
      <trkpt lat="47.92712" lon="7.02916">
        <ele>1194.8</ele>
        <time>2021-08-07T10:47:35Z</time>
      </trkpt>
      <trkpt lat="47.92712" lon="7.02916">
        <ele>1194.8</ele>
        <time>2021-08-07T10:47:37Z</time>
      </trkpt>
      <trkpt lat="47.92713" lon="7.02915">
        <ele>1194.8</ele>
        <time>2021-08-07T10:47:39Z</time>
      </trkpt>
      <trkpt lat="47.92714" lon="7.02914">
        <ele>1194.8</ele>
        <time>2021-08-07T10:47:40Z</time>
      </trkpt>
      <trkpt lat="47.92715" lon="7.02914">
        <ele>1194.8</ele>
        <time>2021-08-07T10:47:41Z</time>
      </trkpt>
      <trkpt lat="47.92715" lon="7.02913">
        <ele>1194.8</ele>
        <time>2021-08-07T10:47:43Z</time>
      </trkpt>
      <trkpt lat="47.92715" lon="7.02912">
        <ele>1194.8</ele>
        <time>2021-08-07T10:47:45Z</time>
      </trkpt>
      <trkpt lat="47.92716" lon="7.02912">
        <ele>1194.8</ele>
        <time>2021-08-07T10:47:46Z</time>
      </trkpt>
      <trkpt lat="47.92716" lon="7.02912">
        <ele>1194.8</ele>
        <time>2021-08-07T10:47:47Z</time>
      </trkpt>
      <trkpt lat="47.92716" lon="7.02912">
        <ele>1194.8</ele>
        <time>2021-08-07T10:47:48Z</time>
      </trkpt>
      <trkpt lat="47.92716" lon="7.02912">
        <ele>1194.8</ele>
        <time>2021-08-07T10:47:50Z</time>
      </trkpt>
      <trkpt lat="47.92715" lon="7.02912">
        <ele>1194.8</ele>
        <time>2021-08-07T10:47:51Z</time>
      </trkpt>
      <trkpt lat="47.92715" lon="7.02913">
        <ele>1194.9</ele>
        <time>2021-08-07T10:47:53Z</time>
      </trkpt>
      <trkpt lat="47.92715" lon="7.02913">
        <ele>1194.9</ele>
        <time>2021-08-07T10:47:54Z</time>
      </trkpt>
      <trkpt lat="47.92715" lon="7.02913">
        <ele>1194.9</ele>
        <time>2021-08-07T10:47:55Z</time>
      </trkpt>
      <trkpt lat="47.92715" lon="7.02913">
        <ele>1194.9</ele>
        <time>2021-08-07T10:47:56Z</time>
      </trkpt>
      <trkpt lat="47.92715" lon="7.02913">
        <ele>1194.9</ele>
        <time>2021-08-07T10:47:57Z</time>
      </trkpt>
      <trkpt lat="47.92716" lon="7.02913">
        <ele>1194.9</ele>
        <time>2021-08-07T10:47:59Z</time>
      </trkpt>
      <trkpt lat="47.92716" lon="7.02913">
        <ele>1194.9</ele>
        <time>2021-08-07T10:48:00Z</time>
      </trkpt>
      <trkpt lat="47.92716" lon="7.02913">
        <ele>1194.9</ele>
        <time>2021-08-07T10:48:02Z</time>
      </trkpt>
      <trkpt lat="47.92716" lon="7.02913">
        <ele>1194.9</ele>
        <time>2021-08-07T10:48:03Z</time>
      </trkpt>
      <trkpt lat="47.92716" lon="7.02913">
        <ele>1194.9</ele>
        <time>2021-08-07T10:48:05Z</time>
      </trkpt>
      <trkpt lat="47.92716" lon="7.02913">
        <ele>1194.9</ele>
        <time>2021-08-07T10:48:06Z</time>
      </trkpt>
      <trkpt lat="47.92716" lon="7.02912">
        <ele>1194.9</ele>
        <time>2021-08-07T10:48:08Z</time>
      </trkpt>
      <trkpt lat="47.92716" lon="7.02912">
        <ele>1194.9</ele>
        <time>2021-08-07T10:48:09Z</time>
      </trkpt>
      <trkpt lat="47.92716" lon="7.02912">
        <ele>1194.9</ele>
        <time>2021-08-07T10:48:11Z</time>
      </trkpt>
      <trkpt lat="47.92716" lon="7.02912">
        <ele>1194.9</ele>
        <time>2021-08-07T10:48:12Z</time>
      </trkpt>
      <trkpt lat="47.92716" lon="7.02912">
        <ele>1194.9</ele>
        <time>2021-08-07T10:48:14Z</time>
      </trkpt>
      <trkpt lat="47.92716" lon="7.02912">
        <ele>1194.9</ele>
        <time>2021-08-07T10:48:15Z</time>
      </trkpt>
      <trkpt lat="47.92716" lon="7.02912">
        <ele>1194.9</ele>
        <time>2021-08-07T10:48:16Z</time>
      </trkpt>
      <trkpt lat="47.92716" lon="7.02912">
        <ele>1194.9</ele>
        <time>2021-08-07T10:48:18Z</time>
      </trkpt>
      <trkpt lat="47.92716" lon="7.02912">
        <ele>1194.9</ele>
        <time>2021-08-07T10:48:20Z</time>
      </trkpt>
      <trkpt lat="47.92716" lon="7.02912">
        <ele>1194.9</ele>
        <time>2021-08-07T10:48:21Z</time>
      </trkpt>
      <trkpt lat="47.92716" lon="7.02912">
        <ele>1194.9</ele>
        <time>2021-08-07T10:48:23Z</time>
      </trkpt>
      <trkpt lat="47.92716" lon="7.02912">
        <ele>1194.9</ele>
        <time>2021-08-07T10:48:24Z</time>
      </trkpt>
      <trkpt lat="47.92716" lon="7.02912">
        <ele>1194.9</ele>
        <time>2021-08-07T10:48:26Z</time>
      </trkpt>
      <trkpt lat="47.92716" lon="7.02912">
        <ele>1194.9</ele>
        <time>2021-08-07T10:48:27Z</time>
      </trkpt>
      <trkpt lat="47.92716" lon="7.02912">
        <ele>1194.9</ele>
        <time>2021-08-07T10:48:29Z</time>
      </trkpt>
      <trkpt lat="47.92716" lon="7.02912">
        <ele>1194.9</ele>
        <time>2021-08-07T10:48:30Z</time>
      </trkpt>
      <trkpt lat="47.92716" lon="7.02912">
        <ele>1194.9</ele>
        <time>2021-08-07T10:48:32Z</time>
      </trkpt>
      <trkpt lat="47.92716" lon="7.02912">
        <ele>1194.9</ele>
        <time>2021-08-07T10:48:33Z</time>
      </trkpt>
      <trkpt lat="47.92716" lon="7.02912">
        <ele>1194.9</ele>
        <time>2021-08-07T10:48:34Z</time>
      </trkpt>
      <trkpt lat="47.92716" lon="7.02912">
        <ele>1194.9</ele>
        <time>2021-08-07T10:48:35Z</time>
      </trkpt>
      <trkpt lat="47.92716" lon="7.02912">
        <ele>1194.9</ele>
        <time>2021-08-07T10:48:36Z</time>
      </trkpt>
      <trkpt lat="47.92716" lon="7.02912">
        <ele>1194.9</ele>
        <time>2021-08-07T10:48:37Z</time>
      </trkpt>
      <trkpt lat="47.92716" lon="7.02912">
        <ele>1194.9</ele>
        <time>2021-08-07T10:48:38Z</time>
      </trkpt>
      <trkpt lat="47.92716" lon="7.02912">
        <ele>1194.9</ele>
        <time>2021-08-07T10:48:40Z</time>
      </trkpt>
      <trkpt lat="47.92716" lon="7.02912">
        <ele>1194.9</ele>
        <time>2021-08-07T10:48:42Z</time>
      </trkpt>
      <trkpt lat="47.92716" lon="7.02912">
        <ele>1194.9</ele>
        <time>2021-08-07T10:48:43Z</time>
      </trkpt>
      <trkpt lat="47.92716" lon="7.02912">
        <ele>1194.9</ele>
        <time>2021-08-07T10:48:45Z</time>
      </trkpt>
      <trkpt lat="47.92716" lon="7.02912">
        <ele>1194.9</ele>
        <time>2021-08-07T10:48:46Z</time>
      </trkpt>
      <trkpt lat="47.92716" lon="7.02912">
        <ele>1194.9</ele>
        <time>2021-08-07T10:48:47Z</time>
      </trkpt>
      <trkpt lat="47.92716" lon="7.02912">
        <ele>1194.9</ele>
        <time>2021-08-07T10:48:48Z</time>
      </trkpt>
      <trkpt lat="47.92716" lon="7.02912">
        <ele>1194.9</ele>
        <time>2021-08-07T10:48:50Z</time>
      </trkpt>
      <trkpt lat="47.92716" lon="7.02912">
        <ele>1194.9</ele>
        <time>2021-08-07T10:48:52Z</time>
      </trkpt>
      <trkpt lat="47.92716" lon="7.02912">
        <ele>1194.9</ele>
        <time>2021-08-07T10:48:53Z</time>
      </trkpt>
      <trkpt lat="47.92716" lon="7.02912">
        <ele>1194.9</ele>
        <time>2021-08-07T10:48:54Z</time>
      </trkpt>
      <trkpt lat="47.92716" lon="7.02912">
        <ele>1194.9</ele>
        <time>2021-08-07T10:48:56Z</time>
      </trkpt>
      <trkpt lat="47.92716" lon="7.02912">
        <ele>1194.9</ele>
        <time>2021-08-07T10:48:57Z</time>
      </trkpt>
      <trkpt lat="47.92716" lon="7.02912">
        <ele>1194.9</ele>
        <time>2021-08-07T10:48:58Z</time>
      </trkpt>
      <trkpt lat="47.92716" lon="7.02912">
        <ele>1194.9</ele>
        <time>2021-08-07T10:48:59Z</time>
      </trkpt>
      <trkpt lat="47.92716" lon="7.02912">
        <ele>1194.9</ele>
        <time>2021-08-07T10:49:00Z</time>
      </trkpt>
      <trkpt lat="47.92716" lon="7.02912">
        <ele>1194.9</ele>
        <time>2021-08-07T10:49:02Z</time>
      </trkpt>
      <trkpt lat="47.92716" lon="7.02912">
        <ele>1194.9</ele>
        <time>2021-08-07T10:49:04Z</time>
      </trkpt>
      <trkpt lat="47.92716" lon="7.02912">
        <ele>1194.9</ele>
        <time>2021-08-07T10:49:05Z</time>
      </trkpt>
      <trkpt lat="47.92716" lon="7.02912">
        <ele>1194.9</ele>
        <time>2021-08-07T10:49:06Z</time>
      </trkpt>
      <trkpt lat="47.92716" lon="7.02912">
        <ele>1194.9</ele>
        <time>2021-08-07T10:49:08Z</time>
      </trkpt>
      <trkpt lat="47.92716" lon="7.02912">
        <ele>1194.9</ele>
        <time>2021-08-07T10:49:09Z</time>
      </trkpt>
      <trkpt lat="47.92716" lon="7.02912">
        <ele>1194.9</ele>
        <time>2021-08-07T10:49:11Z</time>
      </trkpt>
      <trkpt lat="47.92718" lon="7.02911">
        <ele>1194.9</ele>
        <time>2021-08-07T10:49:12Z</time>
      </trkpt>
      <trkpt lat="47.92718" lon="7.02911">
        <ele>1194.9</ele>
        <time>2021-08-07T10:49:13Z</time>
      </trkpt>
      <trkpt lat="47.9272" lon="7.02911">
        <ele>1194.9</ele>
        <time>2021-08-07T10:49:14Z</time>
      </trkpt>
      <trkpt lat="47.92721" lon="7.02912">
        <ele>1194.9</ele>
        <time>2021-08-07T10:49:16Z</time>
      </trkpt>
      <trkpt lat="47.92722" lon="7.02912">
        <ele>1194.9</ele>
        <time>2021-08-07T10:49:17Z</time>
      </trkpt>
      <trkpt lat="47.92723" lon="7.02912">
        <ele>1194.9</ele>
        <time>2021-08-07T10:49:18Z</time>
      </trkpt>
      <trkpt lat="47.92724" lon="7.02912">
        <ele>1194.9</ele>
        <time>2021-08-07T10:49:20Z</time>
      </trkpt>
      <trkpt lat="47.92724" lon="7.02912">
        <ele>1194.9</ele>
        <time>2021-08-07T10:49:22Z</time>
      </trkpt>
      <trkpt lat="47.92724" lon="7.02912">
        <ele>1194.9</ele>
        <time>2021-08-07T10:49:23Z</time>
      </trkpt>
      <trkpt lat="47.92725" lon="7.02912">
        <ele>1194.9</ele>
        <time>2021-08-07T10:49:24Z</time>
      </trkpt>
      <trkpt lat="47.92725" lon="7.02912">
        <ele>1194.9</ele>
        <time>2021-08-07T10:49:26Z</time>
      </trkpt>
      <trkpt lat="47.92725" lon="7.02912">
        <ele>1194.9</ele>
        <time>2021-08-07T10:49:27Z</time>
      </trkpt>
      <trkpt lat="47.92725" lon="7.02912">
        <ele>1194.9</ele>
        <time>2021-08-07T10:49:28Z</time>
      </trkpt>
      <trkpt lat="47.92725" lon="7.02912">
        <ele>1194.9</ele>
        <time>2021-08-07T10:49:29Z</time>
      </trkpt>
      <trkpt lat="47.92724" lon="7.0291">
        <ele>1194.9</ele>
        <time>2021-08-07T10:49:31Z</time>
      </trkpt>
      <trkpt lat="47.92724" lon="7.02909">
        <ele>1194.9</ele>
        <time>2021-08-07T10:49:32Z</time>
      </trkpt>
      <trkpt lat="47.92723" lon="7.02909">
        <ele>1194.9</ele>
        <time>2021-08-07T10:49:33Z</time>
      </trkpt>
      <trkpt lat="47.9272" lon="7.02897">
        <ele>1194.9</ele>
        <time>2021-08-07T10:49:35Z</time>
      </trkpt>
      <trkpt lat="47.92716" lon="7.02885">
        <ele>1194.9</ele>
        <time>2021-08-07T10:49:37Z</time>
      </trkpt>
      <trkpt lat="47.92716" lon="7.02883">
        <ele>1194.9</ele>
        <time>2021-08-07T10:49:38Z</time>
      </trkpt>
      <trkpt lat="47.92715" lon="7.02881">
        <ele>1194.9</ele>
        <time>2021-08-07T10:49:40Z</time>
      </trkpt>
      <trkpt lat="47.92715" lon="7.02881">
        <ele>1194.9</ele>
        <time>2021-08-07T10:49:41Z</time>
      </trkpt>
      <trkpt lat="47.92715" lon="7.0288">
        <ele>1194.9</ele>
        <time>2021-08-07T10:49:42Z</time>
      </trkpt>
      <trkpt lat="47.92714" lon="7.02881">
        <ele>1194.9</ele>
        <time>2021-08-07T10:49:44Z</time>
      </trkpt>
      <trkpt lat="47.92714" lon="7.0288">
        <ele>1194.9</ele>
        <time>2021-08-07T10:49:45Z</time>
      </trkpt>
      <trkpt lat="47.92713" lon="7.02879">
        <ele>1194.9</ele>
        <time>2021-08-07T10:49:47Z</time>
      </trkpt>
      <trkpt lat="47.92712" lon="7.02879">
        <ele>1194.9</ele>
        <time>2021-08-07T10:49:49Z</time>
      </trkpt>
      <trkpt lat="47.92712" lon="7.02879">
        <ele>1194.9</ele>
        <time>2021-08-07T10:49:50Z</time>
      </trkpt>
      <trkpt lat="47.92712" lon="7.02879">
        <ele>1194.9</ele>
        <time>2021-08-07T10:49:51Z</time>
      </trkpt>
      <trkpt lat="47.92712" lon="7.02879">
        <ele>1194.9</ele>
        <time>2021-08-07T10:49:52Z</time>
      </trkpt>
      <trkpt lat="47.92712" lon="7.02879">
        <ele>1194.9</ele>
        <time>2021-08-07T10:49:53Z</time>
      </trkpt>
      <trkpt lat="47.92712" lon="7.02879">
        <ele>1194.9</ele>
        <time>2021-08-07T10:49:54Z</time>
      </trkpt>
      <trkpt lat="47.92712" lon="7.02879">
        <ele>1194.9</ele>
        <time>2021-08-07T10:49:56Z</time>
      </trkpt>
      <trkpt lat="47.92712" lon="7.02879">
        <ele>1194.9</ele>
        <time>2021-08-07T10:49:58Z</time>
      </trkpt>
      <trkpt lat="47.92712" lon="7.02878">
        <ele>1194.9</ele>
        <time>2021-08-07T10:49:59Z</time>
      </trkpt>
      <trkpt lat="47.92712" lon="7.02878">
        <ele>1194.9</ele>
        <time>2021-08-07T10:50:01Z</time>
      </trkpt>
      <trkpt lat="47.92712" lon="7.02878">
        <ele>1194.9</ele>
        <time>2021-08-07T10:50:02Z</time>
      </trkpt>
      <trkpt lat="47.92712" lon="7.02878">
        <ele>1194.9</ele>
        <time>2021-08-07T10:50:04Z</time>
      </trkpt>
      <trkpt lat="47.92712" lon="7.02873">
        <ele>1194.9</ele>
        <time>2021-08-07T10:50:06Z</time>
      </trkpt>
      <trkpt lat="47.92712" lon="7.02867">
        <ele>1195.1</ele>
        <time>2021-08-07T10:50:08Z</time>
      </trkpt>
      <trkpt lat="47.92712" lon="7.02866">
        <ele>1195.1</ele>
        <time>2021-08-07T10:50:09Z</time>
      </trkpt>
      <trkpt lat="47.92712" lon="7.02866">
        <ele>1195.1</ele>
        <time>2021-08-07T10:50:11Z</time>
      </trkpt>
      <trkpt lat="47.92712" lon="7.02866">
        <ele>1195.1</ele>
        <time>2021-08-07T10:50:12Z</time>
      </trkpt>
      <trkpt lat="47.92712" lon="7.02866">
        <ele>1195.1</ele>
        <time>2021-08-07T10:50:13Z</time>
      </trkpt>
      <trkpt lat="47.92712" lon="7.02866">
        <ele>1195.1</ele>
        <time>2021-08-07T10:50:14Z</time>
      </trkpt>
      <trkpt lat="47.92712" lon="7.02866">
        <ele>1195.1</ele>
        <time>2021-08-07T10:50:16Z</time>
      </trkpt>
      <trkpt lat="47.92712" lon="7.02866">
        <ele>1195.1</ele>
        <time>2021-08-07T10:50:17Z</time>
      </trkpt>
      <trkpt lat="47.92712" lon="7.02866">
        <ele>1195.1</ele>
        <time>2021-08-07T10:50:18Z</time>
      </trkpt>
      <trkpt lat="47.92712" lon="7.02866">
        <ele>1195.1</ele>
        <time>2021-08-07T10:50:20Z</time>
      </trkpt>
      <trkpt lat="47.92712" lon="7.02866">
        <ele>1195.1</ele>
        <time>2021-08-07T10:50:22Z</time>
      </trkpt>
      <trkpt lat="47.92712" lon="7.02866">
        <ele>1195.1</ele>
        <time>2021-08-07T10:50:24Z</time>
      </trkpt>
      <trkpt lat="47.92712" lon="7.02866">
        <ele>1195.1</ele>
        <time>2021-08-07T10:50:25Z</time>
      </trkpt>
      <trkpt lat="47.92712" lon="7.02866">
        <ele>1195.1</ele>
        <time>2021-08-07T10:50:27Z</time>
      </trkpt>
      <trkpt lat="47.92712" lon="7.02866">
        <ele>1195.1</ele>
        <time>2021-08-07T10:50:28Z</time>
      </trkpt>
      <trkpt lat="47.92712" lon="7.02866">
        <ele>1195.1</ele>
        <time>2021-08-07T10:50:30Z</time>
      </trkpt>
      <trkpt lat="47.92712" lon="7.02866">
        <ele>1195.1</ele>
        <time>2021-08-07T10:50:31Z</time>
      </trkpt>
      <trkpt lat="47.92712" lon="7.02866">
        <ele>1195.1</ele>
        <time>2021-08-07T10:50:33Z</time>
      </trkpt>
      <trkpt lat="47.92712" lon="7.02866">
        <ele>1195.1</ele>
        <time>2021-08-07T10:50:34Z</time>
      </trkpt>
      <trkpt lat="47.92712" lon="7.02866">
        <ele>1195.1</ele>
        <time>2021-08-07T10:50:36Z</time>
      </trkpt>
      <trkpt lat="47.92712" lon="7.02866">
        <ele>1195.1</ele>
        <time>2021-08-07T10:50:37Z</time>
      </trkpt>
      <trkpt lat="47.92712" lon="7.02866">
        <ele>1195.1</ele>
        <time>2021-08-07T10:50:39Z</time>
      </trkpt>
      <trkpt lat="47.92712" lon="7.02866">
        <ele>1195.1</ele>
        <time>2021-08-07T10:50:41Z</time>
      </trkpt>
      <trkpt lat="47.92712" lon="7.02866">
        <ele>1195.1</ele>
        <time>2021-08-07T10:50:42Z</time>
      </trkpt>
      <trkpt lat="47.92712" lon="7.02866">
        <ele>1195.1</ele>
        <time>2021-08-07T10:50:43Z</time>
      </trkpt>
      <trkpt lat="47.92712" lon="7.02866">
        <ele>1195.1</ele>
        <time>2021-08-07T10:50:45Z</time>
      </trkpt>
      <trkpt lat="47.92712" lon="7.02866">
        <ele>1195.1</ele>
        <time>2021-08-07T10:50:47Z</time>
      </trkpt>
      <trkpt lat="47.92717" lon="7.02867">
        <ele>1195.1</ele>
        <time>2021-08-07T10:50:49Z</time>
      </trkpt>
      <trkpt lat="47.92721" lon="7.0287">
        <ele>1195</ele>
        <time>2021-08-07T10:50:51Z</time>
      </trkpt>
      <trkpt lat="47.92722" lon="7.02872">
        <ele>1195</ele>
        <time>2021-08-07T10:50:52Z</time>
      </trkpt>
      <trkpt lat="47.92722" lon="7.02872">
        <ele>1195</ele>
        <time>2021-08-07T10:50:53Z</time>
      </trkpt>
      <trkpt lat="47.92722" lon="7.02873">
        <ele>1195</ele>
        <time>2021-08-07T10:50:54Z</time>
      </trkpt>
      <trkpt lat="47.92722" lon="7.02873">
        <ele>1195</ele>
        <time>2021-08-07T10:50:56Z</time>
      </trkpt>
      <trkpt lat="47.92722" lon="7.02874">
        <ele>1195</ele>
        <time>2021-08-07T10:50:58Z</time>
      </trkpt>
      <trkpt lat="47.92722" lon="7.02874">
        <ele>1195</ele>
        <time>2021-08-07T10:50:59Z</time>
      </trkpt>
      <trkpt lat="47.92723" lon="7.02875">
        <ele>1195</ele>
        <time>2021-08-07T10:51:01Z</time>
      </trkpt>
      <trkpt lat="47.92723" lon="7.02875">
        <ele>1195</ele>
        <time>2021-08-07T10:51:03Z</time>
      </trkpt>
      <trkpt lat="47.92723" lon="7.02875">
        <ele>1195</ele>
        <time>2021-08-07T10:51:04Z</time>
      </trkpt>
      <trkpt lat="47.92723" lon="7.02876">
        <ele>1195</ele>
        <time>2021-08-07T10:51:05Z</time>
      </trkpt>
      <trkpt lat="47.92723" lon="7.02876">
        <ele>1195</ele>
        <time>2021-08-07T10:51:07Z</time>
      </trkpt>
      <trkpt lat="47.92723" lon="7.02877">
        <ele>1195</ele>
        <time>2021-08-07T10:51:08Z</time>
      </trkpt>
      <trkpt lat="47.92723" lon="7.02877">
        <ele>1195</ele>
        <time>2021-08-07T10:51:09Z</time>
      </trkpt>
      <trkpt lat="47.92724" lon="7.02878">
        <ele>1195</ele>
        <time>2021-08-07T10:51:10Z</time>
      </trkpt>
      <trkpt lat="47.92724" lon="7.0288">
        <ele>1195</ele>
        <time>2021-08-07T10:51:11Z</time>
      </trkpt>
      <trkpt lat="47.92724" lon="7.02882">
        <ele>1195</ele>
        <time>2021-08-07T10:51:12Z</time>
      </trkpt>
      <trkpt lat="47.92722" lon="7.02884">
        <ele>1194.9</ele>
        <time>2021-08-07T10:51:14Z</time>
      </trkpt>
      <trkpt lat="47.92722" lon="7.02885">
        <ele>1194.9</ele>
        <time>2021-08-07T10:51:16Z</time>
      </trkpt>
      <trkpt lat="47.92721" lon="7.02886">
        <ele>1194.9</ele>
        <time>2021-08-07T10:51:18Z</time>
      </trkpt>
      <trkpt lat="47.92721" lon="7.02887">
        <ele>1194.9</ele>
        <time>2021-08-07T10:51:20Z</time>
      </trkpt>
      <trkpt lat="47.92721" lon="7.02888">
        <ele>1194.9</ele>
        <time>2021-08-07T10:51:21Z</time>
      </trkpt>
      <trkpt lat="47.92721" lon="7.02889">
        <ele>1194.9</ele>
        <time>2021-08-07T10:51:22Z</time>
      </trkpt>
      <trkpt lat="47.9272" lon="7.0289">
        <ele>1194.9</ele>
        <time>2021-08-07T10:51:23Z</time>
      </trkpt>
      <trkpt lat="47.9272" lon="7.02893">
        <ele>1194.9</ele>
        <time>2021-08-07T10:51:24Z</time>
      </trkpt>
      <trkpt lat="47.92719" lon="7.02897">
        <ele>1194.9</ele>
        <time>2021-08-07T10:51:26Z</time>
      </trkpt>
      <trkpt lat="47.92718" lon="7.02897">
        <ele>1194.8</ele>
        <time>2021-08-07T10:51:27Z</time>
      </trkpt>
      <trkpt lat="47.92718" lon="7.02898">
        <ele>1194.8</ele>
        <time>2021-08-07T10:51:29Z</time>
      </trkpt>
      <trkpt lat="47.92718" lon="7.02898">
        <ele>1194.8</ele>
        <time>2021-08-07T10:51:30Z</time>
      </trkpt>
      <trkpt lat="47.92718" lon="7.02898">
        <ele>1194.8</ele>
        <time>2021-08-07T10:51:32Z</time>
      </trkpt>
      <trkpt lat="47.92718" lon="7.02898">
        <ele>1194.8</ele>
        <time>2021-08-07T10:51:33Z</time>
      </trkpt>
      <trkpt lat="47.92718" lon="7.02898">
        <ele>1194.8</ele>
        <time>2021-08-07T10:51:34Z</time>
      </trkpt>
      <trkpt lat="47.92718" lon="7.02898">
        <ele>1194.8</ele>
        <time>2021-08-07T10:51:35Z</time>
      </trkpt>
      <trkpt lat="47.92718" lon="7.02898">
        <ele>1194.8</ele>
        <time>2021-08-07T10:51:37Z</time>
      </trkpt>
      <trkpt lat="47.92718" lon="7.02898">
        <ele>1194.8</ele>
        <time>2021-08-07T10:51:38Z</time>
      </trkpt>
      <trkpt lat="47.92718" lon="7.02898">
        <ele>1194.8</ele>
        <time>2021-08-07T10:51:40Z</time>
      </trkpt>
      <trkpt lat="47.92718" lon="7.02898">
        <ele>1194.8</ele>
        <time>2021-08-07T10:51:42Z</time>
      </trkpt>
      <trkpt lat="47.92718" lon="7.02898">
        <ele>1194.8</ele>
        <time>2021-08-07T10:51:43Z</time>
      </trkpt>
      <trkpt lat="47.92718" lon="7.02898">
        <ele>1194.8</ele>
        <time>2021-08-07T10:51:45Z</time>
      </trkpt>
      <trkpt lat="47.92718" lon="7.02898">
        <ele>1194.8</ele>
        <time>2021-08-07T10:51:47Z</time>
      </trkpt>
      <trkpt lat="47.92718" lon="7.02898">
        <ele>1194.8</ele>
        <time>2021-08-07T10:51:49Z</time>
      </trkpt>
      <trkpt lat="47.92716" lon="7.0291">
        <ele>1194.8</ele>
        <time>2021-08-07T10:51:51Z</time>
      </trkpt>
      <trkpt lat="47.92716" lon="7.02911">
        <ele>1194.8</ele>
        <time>2021-08-07T10:51:52Z</time>
      </trkpt>
      <trkpt lat="47.92717" lon="7.02913">
        <ele>1194.7</ele>
        <time>2021-08-07T10:51:53Z</time>
      </trkpt>
      <trkpt lat="47.92717" lon="7.02914">
        <ele>1194.7</ele>
        <time>2021-08-07T10:51:54Z</time>
      </trkpt>
      <trkpt lat="47.92717" lon="7.02916">
        <ele>1194.7</ele>
        <time>2021-08-07T10:51:56Z</time>
      </trkpt>
      <trkpt lat="47.92717" lon="7.02916">
        <ele>1194.7</ele>
        <time>2021-08-07T10:51:57Z</time>
      </trkpt>
      <trkpt lat="47.92717" lon="7.02916">
        <ele>1194.7</ele>
        <time>2021-08-07T10:51:58Z</time>
      </trkpt>
      <trkpt lat="47.92717" lon="7.02917">
        <ele>1194.7</ele>
        <time>2021-08-07T10:52:00Z</time>
      </trkpt>
      <trkpt lat="47.92717" lon="7.02917">
        <ele>1194.7</ele>
        <time>2021-08-07T10:52:01Z</time>
      </trkpt>
      <trkpt lat="47.92717" lon="7.02918">
        <ele>1194.7</ele>
        <time>2021-08-07T10:52:03Z</time>
      </trkpt>
      <trkpt lat="47.92717" lon="7.02918">
        <ele>1194.7</ele>
        <time>2021-08-07T10:52:04Z</time>
      </trkpt>
      <trkpt lat="47.92717" lon="7.02918">
        <ele>1194.7</ele>
        <time>2021-08-07T10:52:05Z</time>
      </trkpt>
      <trkpt lat="47.92717" lon="7.02919">
        <ele>1194.7</ele>
        <time>2021-08-07T10:52:07Z</time>
      </trkpt>
      <trkpt lat="47.92717" lon="7.02919">
        <ele>1194.7</ele>
        <time>2021-08-07T10:52:08Z</time>
      </trkpt>
      <trkpt lat="47.92717" lon="7.02919">
        <ele>1194.7</ele>
        <time>2021-08-07T10:52:10Z</time>
      </trkpt>
      <trkpt lat="47.92717" lon="7.0292">
        <ele>1194.7</ele>
        <time>2021-08-07T10:52:11Z</time>
      </trkpt>
      <trkpt lat="47.92717" lon="7.0292">
        <ele>1194.7</ele>
        <time>2021-08-07T10:52:12Z</time>
      </trkpt>
      <trkpt lat="47.92717" lon="7.02921">
        <ele>1194.7</ele>
        <time>2021-08-07T10:52:13Z</time>
      </trkpt>
      <trkpt lat="47.92717" lon="7.02921">
        <ele>1194.7</ele>
        <time>2021-08-07T10:52:14Z</time>
      </trkpt>
      <trkpt lat="47.92717" lon="7.02921">
        <ele>1194.7</ele>
        <time>2021-08-07T10:52:15Z</time>
      </trkpt>
      <trkpt lat="47.92717" lon="7.02929">
        <ele>1194.6</ele>
        <time>2021-08-07T10:52:17Z</time>
      </trkpt>
      <trkpt lat="47.92718" lon="7.02931">
        <ele>1194.6</ele>
        <time>2021-08-07T10:52:19Z</time>
      </trkpt>
      <trkpt lat="47.92719" lon="7.02931">
        <ele>1194.6</ele>
        <time>2021-08-07T10:52:20Z</time>
      </trkpt>
      <trkpt lat="47.92719" lon="7.0293">
        <ele>1194.6</ele>
        <time>2021-08-07T10:52:22Z</time>
      </trkpt>
      <trkpt lat="47.9272" lon="7.0293">
        <ele>1194.6</ele>
        <time>2021-08-07T10:52:24Z</time>
      </trkpt>
      <trkpt lat="47.92721" lon="7.02929">
        <ele>1194.6</ele>
        <time>2021-08-07T10:52:26Z</time>
      </trkpt>
      <trkpt lat="47.92721" lon="7.02929">
        <ele>1194.6</ele>
        <time>2021-08-07T10:52:27Z</time>
      </trkpt>
      <trkpt lat="47.92722" lon="7.02927">
        <ele>1194.6</ele>
        <time>2021-08-07T10:52:28Z</time>
      </trkpt>
      <trkpt lat="47.92722" lon="7.02926">
        <ele>1194.6</ele>
        <time>2021-08-07T10:52:29Z</time>
      </trkpt>
      <trkpt lat="47.92723" lon="7.02925">
        <ele>1194.6</ele>
        <time>2021-08-07T10:52:31Z</time>
      </trkpt>
      <trkpt lat="47.92723" lon="7.02924">
        <ele>1194.6</ele>
        <time>2021-08-07T10:52:32Z</time>
      </trkpt>
      <trkpt lat="47.92723" lon="7.02924">
        <ele>1194.6</ele>
        <time>2021-08-07T10:52:33Z</time>
      </trkpt>
      <trkpt lat="47.92723" lon="7.02924">
        <ele>1194.6</ele>
        <time>2021-08-07T10:52:34Z</time>
      </trkpt>
      <trkpt lat="47.92723" lon="7.02924">
        <ele>1194.6</ele>
        <time>2021-08-07T10:52:36Z</time>
      </trkpt>
      <trkpt lat="47.92723" lon="7.02924">
        <ele>1194.6</ele>
        <time>2021-08-07T10:52:37Z</time>
      </trkpt>
      <trkpt lat="47.92723" lon="7.02924">
        <ele>1194.6</ele>
        <time>2021-08-07T10:52:38Z</time>
      </trkpt>
      <trkpt lat="47.92723" lon="7.02924">
        <ele>1194.6</ele>
        <time>2021-08-07T10:52:39Z</time>
      </trkpt>
      <trkpt lat="47.92722" lon="7.02914">
        <ele>1194.5</ele>
        <time>2021-08-07T10:52:41Z</time>
      </trkpt>
      <trkpt lat="47.92722" lon="7.02912">
        <ele>1194.5</ele>
        <time>2021-08-07T10:52:43Z</time>
      </trkpt>
      <trkpt lat="47.92722" lon="7.02912">
        <ele>1194.5</ele>
        <time>2021-08-07T10:52:44Z</time>
      </trkpt>
      <trkpt lat="47.92722" lon="7.02912">
        <ele>1194.5</ele>
        <time>2021-08-07T10:52:46Z</time>
      </trkpt>
      <trkpt lat="47.92722" lon="7.02912">
        <ele>1194.5</ele>
        <time>2021-08-07T10:52:48Z</time>
      </trkpt>
      <trkpt lat="47.92722" lon="7.02912">
        <ele>1194.5</ele>
        <time>2021-08-07T10:52:49Z</time>
      </trkpt>
      <trkpt lat="47.92722" lon="7.02912">
        <ele>1194.5</ele>
        <time>2021-08-07T10:52:51Z</time>
      </trkpt>
      <trkpt lat="47.92722" lon="7.02912">
        <ele>1194.5</ele>
        <time>2021-08-07T10:52:52Z</time>
      </trkpt>
      <trkpt lat="47.92722" lon="7.02912">
        <ele>1194.5</ele>
        <time>2021-08-07T10:52:53Z</time>
      </trkpt>
      <trkpt lat="47.92722" lon="7.02912">
        <ele>1194.5</ele>
        <time>2021-08-07T10:52:54Z</time>
      </trkpt>
      <trkpt lat="47.92722" lon="7.02912">
        <ele>1194.5</ele>
        <time>2021-08-07T10:52:56Z</time>
      </trkpt>
      <trkpt lat="47.92723" lon="7.02914">
        <ele>1194.5</ele>
        <time>2021-08-07T10:52:58Z</time>
      </trkpt>
      <trkpt lat="47.92723" lon="7.02917">
        <ele>1194.4</ele>
        <time>2021-08-07T10:52:59Z</time>
      </trkpt>
      <trkpt lat="47.92724" lon="7.02919">
        <ele>1194.4</ele>
        <time>2021-08-07T10:53:00Z</time>
      </trkpt>
      <trkpt lat="47.92725" lon="7.02919">
        <ele>1194.4</ele>
        <time>2021-08-07T10:53:02Z</time>
      </trkpt>
      <trkpt lat="47.92726" lon="7.0292">
        <ele>1194.4</ele>
        <time>2021-08-07T10:53:03Z</time>
      </trkpt>
      <trkpt lat="47.92726" lon="7.02921">
        <ele>1194.4</ele>
        <time>2021-08-07T10:53:04Z</time>
      </trkpt>
      <trkpt lat="47.92727" lon="7.02923">
        <ele>1194.4</ele>
        <time>2021-08-07T10:53:05Z</time>
      </trkpt>
      <trkpt lat="47.92727" lon="7.02923">
        <ele>1194.4</ele>
        <time>2021-08-07T10:53:06Z</time>
      </trkpt>
      <trkpt lat="47.92727" lon="7.02922">
        <ele>1194.4</ele>
        <time>2021-08-07T10:53:08Z</time>
      </trkpt>
      <trkpt lat="47.92728" lon="7.02922">
        <ele>1194.4</ele>
        <time>2021-08-07T10:53:09Z</time>
      </trkpt>
      <trkpt lat="47.92728" lon="7.02922">
        <ele>1194.4</ele>
        <time>2021-08-07T10:53:11Z</time>
      </trkpt>
      <trkpt lat="47.92728" lon="7.02921">
        <ele>1194.4</ele>
        <time>2021-08-07T10:53:13Z</time>
      </trkpt>
      <trkpt lat="47.92728" lon="7.02921">
        <ele>1194.4</ele>
        <time>2021-08-07T10:53:14Z</time>
      </trkpt>
      <trkpt lat="47.92728" lon="7.0292">
        <ele>1194.4</ele>
        <time>2021-08-07T10:53:15Z</time>
      </trkpt>
      <trkpt lat="47.92728" lon="7.0292">
        <ele>1194.4</ele>
        <time>2021-08-07T10:53:16Z</time>
      </trkpt>
      <trkpt lat="47.92728" lon="7.0292">
        <ele>1194.4</ele>
        <time>2021-08-07T10:53:18Z</time>
      </trkpt>
      <trkpt lat="47.92728" lon="7.02919">
        <ele>1194.4</ele>
        <time>2021-08-07T10:53:19Z</time>
      </trkpt>
      <trkpt lat="47.92729" lon="7.02919">
        <ele>1194.3</ele>
        <time>2021-08-07T10:53:20Z</time>
      </trkpt>
      <trkpt lat="47.92729" lon="7.02913">
        <ele>1194.3</ele>
        <time>2021-08-07T10:53:22Z</time>
      </trkpt>
      <trkpt lat="47.92728" lon="7.02914">
        <ele>1194.3</ele>
        <time>2021-08-07T10:53:23Z</time>
      </trkpt>
      <trkpt lat="47.92726" lon="7.02914">
        <ele>1194.3</ele>
        <time>2021-08-07T10:53:25Z</time>
      </trkpt>
      <trkpt lat="47.92723" lon="7.02915">
        <ele>1194.3</ele>
        <time>2021-08-07T10:53:27Z</time>
      </trkpt>
      <trkpt lat="47.92722" lon="7.02916">
        <ele>1194.2</ele>
        <time>2021-08-07T10:53:28Z</time>
      </trkpt>
      <trkpt lat="47.92721" lon="7.02917">
        <ele>1194.2</ele>
        <time>2021-08-07T10:53:30Z</time>
      </trkpt>
      <trkpt lat="47.92723" lon="7.02917">
        <ele>1194.2</ele>
        <time>2021-08-07T10:53:32Z</time>
      </trkpt>
      <trkpt lat="47.92724" lon="7.02918">
        <ele>1194.2</ele>
        <time>2021-08-07T10:53:34Z</time>
      </trkpt>
      <trkpt lat="47.92724" lon="7.02919">
        <ele>1194.2</ele>
        <time>2021-08-07T10:53:36Z</time>
      </trkpt>
      <trkpt lat="47.92724" lon="7.0292">
        <ele>1194.2</ele>
        <time>2021-08-07T10:53:37Z</time>
      </trkpt>
      <trkpt lat="47.92724" lon="7.02921">
        <ele>1194.2</ele>
        <time>2021-08-07T10:53:38Z</time>
      </trkpt>
      <trkpt lat="47.92725" lon="7.02927">
        <ele>1194.1</ele>
        <time>2021-08-07T10:53:40Z</time>
      </trkpt>
      <trkpt lat="47.92725" lon="7.0293">
        <ele>1194.1</ele>
        <time>2021-08-07T10:53:41Z</time>
      </trkpt>
      <trkpt lat="47.92726" lon="7.02936">
        <ele>1194.1</ele>
        <time>2021-08-07T10:53:43Z</time>
      </trkpt>
      <trkpt lat="47.92727" lon="7.02939">
        <ele>1194.1</ele>
        <time>2021-08-07T10:53:44Z</time>
      </trkpt>
      <trkpt lat="47.92728" lon="7.02942">
        <ele>1194</ele>
        <time>2021-08-07T10:53:46Z</time>
      </trkpt>
      <trkpt lat="47.9273" lon="7.02947">
        <ele>1194</ele>
        <time>2021-08-07T10:53:48Z</time>
      </trkpt>
      <trkpt lat="47.92731" lon="7.02945">
        <ele>1194</ele>
        <time>2021-08-07T10:53:49Z</time>
      </trkpt>
      <trkpt lat="47.92731" lon="7.02945">
        <ele>1194</ele>
        <time>2021-08-07T10:53:51Z</time>
      </trkpt>
      <trkpt lat="47.92732" lon="7.02945">
        <ele>1194</ele>
        <time>2021-08-07T10:53:53Z</time>
      </trkpt>
      <trkpt lat="47.92732" lon="7.02945">
        <ele>1194</ele>
        <time>2021-08-07T10:53:55Z</time>
      </trkpt>
      <trkpt lat="47.92733" lon="7.02945">
        <ele>1194</ele>
        <time>2021-08-07T10:53:56Z</time>
      </trkpt>
      <trkpt lat="47.92734" lon="7.02945">
        <ele>1194</ele>
        <time>2021-08-07T10:53:58Z</time>
      </trkpt>
      <trkpt lat="47.92734" lon="7.02945">
        <ele>1194</ele>
        <time>2021-08-07T10:53:59Z</time>
      </trkpt>
      <trkpt lat="47.92735" lon="7.02945">
        <ele>1194</ele>
        <time>2021-08-07T10:54:00Z</time>
      </trkpt>
      <trkpt lat="47.92735" lon="7.02945">
        <ele>1194</ele>
        <time>2021-08-07T10:54:02Z</time>
      </trkpt>
      <trkpt lat="47.92736" lon="7.02945">
        <ele>1193.9</ele>
        <time>2021-08-07T10:54:04Z</time>
      </trkpt>
      <trkpt lat="47.92736" lon="7.02945">
        <ele>1193.9</ele>
        <time>2021-08-07T10:54:05Z</time>
      </trkpt>
      <trkpt lat="47.92737" lon="7.02945">
        <ele>1193.9</ele>
        <time>2021-08-07T10:54:06Z</time>
      </trkpt>
      <trkpt lat="47.92737" lon="7.02941">
        <ele>1193.9</ele>
        <time>2021-08-07T10:54:07Z</time>
      </trkpt>
      <trkpt lat="47.92737" lon="7.02939">
        <ele>1193.9</ele>
        <time>2021-08-07T10:54:08Z</time>
      </trkpt>
      <trkpt lat="47.92737" lon="7.02938">
        <ele>1193.9</ele>
        <time>2021-08-07T10:54:09Z</time>
      </trkpt>
      <trkpt lat="47.92735" lon="7.02928">
        <ele>1193.8</ele>
        <time>2021-08-07T10:54:11Z</time>
      </trkpt>
      <trkpt lat="47.92731" lon="7.02913">
        <ele>1193.7</ele>
        <time>2021-08-07T10:54:13Z</time>
      </trkpt>
      <trkpt lat="47.92729" lon="7.02905">
        <ele>1193.7</ele>
        <time>2021-08-07T10:54:14Z</time>
      </trkpt>
      <trkpt lat="47.92726" lon="7.02893">
        <ele>1193.6</ele>
        <time>2021-08-07T10:54:16Z</time>
      </trkpt>
      <trkpt lat="47.92724" lon="7.02885">
        <ele>1193.5</ele>
        <time>2021-08-07T10:54:18Z</time>
      </trkpt>
      <trkpt lat="47.92721" lon="7.02876">
        <ele>1193.5</ele>
        <time>2021-08-07T10:54:19Z</time>
      </trkpt>
      <trkpt lat="47.92719" lon="7.02875">
        <ele>1193.4</ele>
        <time>2021-08-07T10:54:21Z</time>
      </trkpt>
      <trkpt lat="47.92719" lon="7.02876">
        <ele>1193.4</ele>
        <time>2021-08-07T10:54:22Z</time>
      </trkpt>
      <trkpt lat="47.92718" lon="7.02874">
        <ele>1193.4</ele>
        <time>2021-08-07T10:54:24Z</time>
      </trkpt>
      <trkpt lat="47.92718" lon="7.02874">
        <ele>1193.4</ele>
        <time>2021-08-07T10:54:26Z</time>
      </trkpt>
      <trkpt lat="47.92718" lon="7.02873">
        <ele>1193.4</ele>
        <time>2021-08-07T10:54:27Z</time>
      </trkpt>
      <trkpt lat="47.92717" lon="7.02873">
        <ele>1193.4</ele>
        <time>2021-08-07T10:54:28Z</time>
      </trkpt>
      <trkpt lat="47.92718" lon="7.02874">
        <ele>1193.4</ele>
        <time>2021-08-07T10:54:30Z</time>
      </trkpt>
      <trkpt lat="47.92718" lon="7.02873">
        <ele>1193.4</ele>
        <time>2021-08-07T10:54:31Z</time>
      </trkpt>
      <trkpt lat="47.92717" lon="7.02872">
        <ele>1193.4</ele>
        <time>2021-08-07T10:54:33Z</time>
      </trkpt>
      <trkpt lat="47.92717" lon="7.02872">
        <ele>1193.4</ele>
        <time>2021-08-07T10:54:35Z</time>
      </trkpt>
      <trkpt lat="47.92717" lon="7.02871">
        <ele>1193.4</ele>
        <time>2021-08-07T10:54:36Z</time>
      </trkpt>
      <trkpt lat="47.92717" lon="7.02868">
        <ele>1193.4</ele>
        <time>2021-08-07T10:54:38Z</time>
      </trkpt>
      <trkpt lat="47.92717" lon="7.02869">
        <ele>1193.4</ele>
        <time>2021-08-07T10:54:40Z</time>
      </trkpt>
      <trkpt lat="47.92717" lon="7.02869">
        <ele>1193.4</ele>
        <time>2021-08-07T10:54:41Z</time>
      </trkpt>
      <trkpt lat="47.92717" lon="7.02869">
        <ele>1193.4</ele>
        <time>2021-08-07T10:54:42Z</time>
      </trkpt>
      <trkpt lat="47.92717" lon="7.02869">
        <ele>1193.4</ele>
        <time>2021-08-07T10:54:44Z</time>
      </trkpt>
      <trkpt lat="47.92717" lon="7.02869">
        <ele>1193.4</ele>
        <time>2021-08-07T10:54:45Z</time>
      </trkpt>
      <trkpt lat="47.92718" lon="7.02877">
        <ele>1193.3</ele>
        <time>2021-08-07T10:54:47Z</time>
      </trkpt>
      <trkpt lat="47.9272" lon="7.02885">
        <ele>1193.2</ele>
        <time>2021-08-07T10:54:49Z</time>
      </trkpt>
      <trkpt lat="47.92721" lon="7.02893">
        <ele>1193.2</ele>
        <time>2021-08-07T10:54:50Z</time>
      </trkpt>
      <trkpt lat="47.92722" lon="7.02898">
        <ele>1193.2</ele>
        <time>2021-08-07T10:54:52Z</time>
      </trkpt>
      <trkpt lat="47.92722" lon="7.02901">
        <ele>1193.1</ele>
        <time>2021-08-07T10:54:54Z</time>
      </trkpt>
      <trkpt lat="47.92723" lon="7.02904">
        <ele>1193.1</ele>
        <time>2021-08-07T10:54:55Z</time>
      </trkpt>
      <trkpt lat="47.92725" lon="7.02914">
        <ele>1193.1</ele>
        <time>2021-08-07T10:54:57Z</time>
      </trkpt>
      <trkpt lat="47.92725" lon="7.02918">
        <ele>1193</ele>
        <time>2021-08-07T10:54:59Z</time>
      </trkpt>
      <trkpt lat="47.92725" lon="7.02919">
        <ele>1193</ele>
        <time>2021-08-07T10:55:01Z</time>
      </trkpt>
      <trkpt lat="47.92725" lon="7.02919">
        <ele>1193</ele>
        <time>2021-08-07T10:55:03Z</time>
      </trkpt>
      <trkpt lat="47.92725" lon="7.02919">
        <ele>1193</ele>
        <time>2021-08-07T10:55:04Z</time>
      </trkpt>
      <trkpt lat="47.92723" lon="7.02911">
        <ele>1193</ele>
        <time>2021-08-07T10:55:06Z</time>
      </trkpt>
      <trkpt lat="47.92721" lon="7.02905">
        <ele>1192.9</ele>
        <time>2021-08-07T10:55:07Z</time>
      </trkpt>
      <trkpt lat="47.92719" lon="7.02899">
        <ele>1192.9</ele>
        <time>2021-08-07T10:55:09Z</time>
      </trkpt>
      <trkpt lat="47.92718" lon="7.02896">
        <ele>1192.9</ele>
        <time>2021-08-07T10:55:10Z</time>
      </trkpt>
      <trkpt lat="47.92717" lon="7.02894">
        <ele>1192.8</ele>
        <time>2021-08-07T10:55:12Z</time>
      </trkpt>
      <trkpt lat="47.92717" lon="7.02893">
        <ele>1192.8</ele>
        <time>2021-08-07T10:55:13Z</time>
      </trkpt>
      <trkpt lat="47.92717" lon="7.02892">
        <ele>1192.8</ele>
        <time>2021-08-07T10:55:14Z</time>
      </trkpt>
      <trkpt lat="47.92716" lon="7.02889">
        <ele>1192.8</ele>
        <time>2021-08-07T10:55:16Z</time>
      </trkpt>
      <trkpt lat="47.92716" lon="7.02891">
        <ele>1192.8</ele>
        <time>2021-08-07T10:55:17Z</time>
      </trkpt>
      <trkpt lat="47.92717" lon="7.02896">
        <ele>1192.8</ele>
        <time>2021-08-07T10:55:19Z</time>
      </trkpt>
      <trkpt lat="47.92717" lon="7.02898">
        <ele>1192.8</ele>
        <time>2021-08-07T10:55:21Z</time>
      </trkpt>
      <trkpt lat="47.92717" lon="7.02898">
        <ele>1192.7</ele>
        <time>2021-08-07T10:55:22Z</time>
      </trkpt>
      <trkpt lat="47.92717" lon="7.02898">
        <ele>1192.7</ele>
        <time>2021-08-07T10:55:24Z</time>
      </trkpt>
      <trkpt lat="47.92717" lon="7.02898">
        <ele>1192.7</ele>
        <time>2021-08-07T10:55:25Z</time>
      </trkpt>
      <trkpt lat="47.92717" lon="7.02898">
        <ele>1192.7</ele>
        <time>2021-08-07T10:55:26Z</time>
      </trkpt>
      <trkpt lat="47.92717" lon="7.02898">
        <ele>1192.7</ele>
        <time>2021-08-07T10:55:28Z</time>
      </trkpt>
      <trkpt lat="47.92717" lon="7.02898">
        <ele>1192.7</ele>
        <time>2021-08-07T10:55:29Z</time>
      </trkpt>
      <trkpt lat="47.92717" lon="7.02898">
        <ele>1192.7</ele>
        <time>2021-08-07T10:55:31Z</time>
      </trkpt>
      <trkpt lat="47.92717" lon="7.02901">
        <ele>1192.7</ele>
        <time>2021-08-07T10:55:32Z</time>
      </trkpt>
      <trkpt lat="47.92717" lon="7.02904">
        <ele>1192.7</ele>
        <time>2021-08-07T10:55:34Z</time>
      </trkpt>
      <trkpt lat="47.92719" lon="7.02913">
        <ele>1192.6</ele>
        <time>2021-08-07T10:55:36Z</time>
      </trkpt>
      <trkpt lat="47.9272" lon="7.0292">
        <ele>1192.6</ele>
        <time>2021-08-07T10:55:37Z</time>
      </trkpt>
      <trkpt lat="47.92721" lon="7.02923">
        <ele>1192.6</ele>
        <time>2021-08-07T10:55:38Z</time>
      </trkpt>
      <trkpt lat="47.92723" lon="7.02925">
        <ele>1192.6</ele>
        <time>2021-08-07T10:55:40Z</time>
      </trkpt>
      <trkpt lat="47.92726" lon="7.0293">
        <ele>1192.5</ele>
        <time>2021-08-07T10:55:41Z</time>
      </trkpt>
      <trkpt lat="47.92728" lon="7.02934">
        <ele>1192.5</ele>
        <time>2021-08-07T10:55:43Z</time>
      </trkpt>
      <trkpt lat="47.9273" lon="7.02937">
        <ele>1192.5</ele>
        <time>2021-08-07T10:55:45Z</time>
      </trkpt>
      <trkpt lat="47.92731" lon="7.02937">
        <ele>1192.4</ele>
        <time>2021-08-07T10:55:47Z</time>
      </trkpt>
      <trkpt lat="47.92732" lon="7.02936">
        <ele>1192.4</ele>
        <time>2021-08-07T10:55:49Z</time>
      </trkpt>
      <trkpt lat="47.92732" lon="7.02937">
        <ele>1192.4</ele>
        <time>2021-08-07T10:55:50Z</time>
      </trkpt>
      <trkpt lat="47.92731" lon="7.02937">
        <ele>1192.4</ele>
        <time>2021-08-07T10:55:51Z</time>
      </trkpt>
      <trkpt lat="47.92731" lon="7.0294">
        <ele>1192.4</ele>
        <time>2021-08-07T10:55:52Z</time>
      </trkpt>
      <trkpt lat="47.9273" lon="7.02945">
        <ele>1192.4</ele>
        <time>2021-08-07T10:55:54Z</time>
      </trkpt>
      <trkpt lat="47.92725" lon="7.02939">
        <ele>1192.3</ele>
        <time>2021-08-07T10:55:56Z</time>
      </trkpt>
      <trkpt lat="47.92723" lon="7.02937">
        <ele>1192.3</ele>
        <time>2021-08-07T11:02:49Z</time>
      </trkpt>
      <trkpt lat="47.9272" lon="7.02935">
        <ele>1192.3</ele>
        <time>2021-08-07T11:02:51Z</time>
      </trkpt>
      <trkpt lat="47.92718" lon="7.02933">
        <ele>1192.3</ele>
        <time>2021-08-07T11:02:53Z</time>
      </trkpt>
      <trkpt lat="47.92715" lon="7.02931">
        <ele>1192.2</ele>
        <time>2021-08-07T11:02:54Z</time>
      </trkpt>
      <trkpt lat="47.92712" lon="7.02929">
        <ele>1192.2</ele>
        <time>2021-08-07T11:02:56Z</time>
      </trkpt>
      <trkpt lat="47.9271" lon="7.02927">
        <ele>1192.2</ele>
        <time>2021-08-07T11:02:57Z</time>
      </trkpt>
      <trkpt lat="47.92707" lon="7.02925">
        <ele>1192.1</ele>
        <time>2021-08-07T11:02:59Z</time>
      </trkpt>
      <trkpt lat="47.92705" lon="7.02923">
        <ele>1192.1</ele>
        <time>2021-08-07T11:03:01Z</time>
      </trkpt>
      <trkpt lat="47.92702" lon="7.02921">
        <ele>1192.1</ele>
        <time>2021-08-07T11:10:06Z</time>
      </trkpt>
      <trkpt lat="47.927" lon="7.02919">
        <ele>1192.1</ele>
        <time>2021-08-07T11:10:07Z</time>
      </trkpt>
      <trkpt lat="47.92697" lon="7.02917">
        <ele>1192</ele>
        <time>2021-08-07T11:10:08Z</time>
      </trkpt>
      <trkpt lat="47.92681" lon="7.02923">
        <ele>1191.9</ele>
        <time>2021-08-07T11:10:10Z</time>
      </trkpt>
      <trkpt lat="47.92672" lon="7.02925">
        <ele>1191.8</ele>
        <time>2021-08-07T11:10:11Z</time>
      </trkpt>
      <trkpt lat="47.92656" lon="7.02929">
        <ele>1191.1</ele>
        <time>2021-08-07T11:10:13Z</time>
      </trkpt>
      <trkpt lat="47.92647" lon="7.02931">
        <ele>1190.8</ele>
        <time>2021-08-07T11:10:14Z</time>
      </trkpt>
      <trkpt lat="47.92632" lon="7.02934">
        <ele>1190.2</ele>
        <time>2021-08-07T11:10:16Z</time>
      </trkpt>
      <trkpt lat="47.92624" lon="7.02936">
        <ele>1189.9</ele>
        <time>2021-08-07T11:10:17Z</time>
      </trkpt>
      <trkpt lat="47.92617" lon="7.02937">
        <ele>1189.7</ele>
        <time>2021-08-07T11:10:18Z</time>
      </trkpt>
      <trkpt lat="47.92603" lon="7.02942">
        <ele>1189.2</ele>
        <time>2021-08-07T11:10:20Z</time>
      </trkpt>
      <trkpt lat="47.92589" lon="7.02947">
        <ele>1188.6</ele>
        <time>2021-08-07T11:10:22Z</time>
      </trkpt>
      <trkpt lat="47.92582" lon="7.02949">
        <ele>1188.4</ele>
        <time>2021-08-07T11:10:23Z</time>
      </trkpt>
      <trkpt lat="47.92576" lon="7.0295">
        <ele>1188.2</ele>
        <time>2021-08-07T11:10:24Z</time>
      </trkpt>
      <trkpt lat="47.92563" lon="7.02955">
        <ele>1187.8</ele>
        <time>2021-08-07T11:10:26Z</time>
      </trkpt>
      <trkpt lat="47.92551" lon="7.02959">
        <ele>1187.5</ele>
        <time>2021-08-07T11:10:28Z</time>
      </trkpt>
      <trkpt lat="47.92545" lon="7.02961">
        <ele>1187.3</ele>
        <time>2021-08-07T11:10:29Z</time>
      </trkpt>
      <trkpt lat="47.92539" lon="7.02963">
        <ele>1187.1</ele>
        <time>2021-08-07T11:10:30Z</time>
      </trkpt>
      <trkpt lat="47.92528" lon="7.02967">
        <ele>1186.8</ele>
        <time>2021-08-07T11:10:32Z</time>
      </trkpt>
      <trkpt lat="47.92517" lon="7.02971">
        <ele>1186.5</ele>
        <time>2021-08-07T11:10:34Z</time>
      </trkpt>
      <trkpt lat="47.92512" lon="7.02973">
        <ele>1186.4</ele>
        <time>2021-08-07T11:10:35Z</time>
      </trkpt>
      <trkpt lat="47.92506" lon="7.02975">
        <ele>1186.2</ele>
        <time>2021-08-07T11:10:36Z</time>
      </trkpt>
      <trkpt lat="47.92494" lon="7.0298">
        <ele>1185.8</ele>
        <time>2021-08-07T11:10:38Z</time>
      </trkpt>
      <trkpt lat="47.92482" lon="7.02982">
        <ele>1185.5</ele>
        <time>2021-08-07T11:10:40Z</time>
      </trkpt>
      <trkpt lat="47.92475" lon="7.02984">
        <ele>1185.3</ele>
        <time>2021-08-07T11:10:41Z</time>
      </trkpt>
      <trkpt lat="47.92463" lon="7.02987">
        <ele>1185</ele>
        <time>2021-08-07T11:10:43Z</time>
      </trkpt>
      <trkpt lat="47.92457" lon="7.02989">
        <ele>1184.8</ele>
        <time>2021-08-07T11:10:44Z</time>
      </trkpt>
      <trkpt lat="47.92447" lon="7.02994">
        <ele>1184.5</ele>
        <time>2021-08-07T11:10:46Z</time>
      </trkpt>
      <trkpt lat="47.92443" lon="7.02997">
        <ele>1184.4</ele>
        <time>2021-08-07T11:10:47Z</time>
      </trkpt>
      <trkpt lat="47.92438" lon="7.03">
        <ele>1184.2</ele>
        <time>2021-08-07T11:10:48Z</time>
      </trkpt>
      <trkpt lat="47.9243" lon="7.03007">
        <ele>1184</ele>
        <time>2021-08-07T11:10:50Z</time>
      </trkpt>
      <trkpt lat="47.92423" lon="7.0301">
        <ele>1184</ele>
        <time>2021-08-07T11:10:52Z</time>
      </trkpt>
      <trkpt lat="47.9242" lon="7.03011">
        <ele>1183.9</ele>
        <time>2021-08-07T11:10:53Z</time>
      </trkpt>
      <trkpt lat="47.92415" lon="7.03011">
        <ele>1183.8</ele>
        <time>2021-08-07T11:10:55Z</time>
      </trkpt>
      <trkpt lat="47.92413" lon="7.03011">
        <ele>1183.7</ele>
        <time>2021-08-07T11:10:56Z</time>
      </trkpt>
      <trkpt lat="47.92412" lon="7.03012">
        <ele>1183.7</ele>
        <time>2021-08-07T11:10:58Z</time>
      </trkpt>
      <trkpt lat="47.92413" lon="7.03013">
        <ele>1183.7</ele>
        <time>2021-08-07T11:11:00Z</time>
      </trkpt>
      <trkpt lat="47.92412" lon="7.03013">
        <ele>1183.6</ele>
        <time>2021-08-07T11:11:01Z</time>
      </trkpt>
      <trkpt lat="47.92412" lon="7.03014">
        <ele>1183.6</ele>
        <time>2021-08-07T11:11:02Z</time>
      </trkpt>
      <trkpt lat="47.92412" lon="7.03014">
        <ele>1183.6</ele>
        <time>2021-08-07T11:11:04Z</time>
      </trkpt>
      <trkpt lat="47.92411" lon="7.03014">
        <ele>1183.6</ele>
        <time>2021-08-07T11:11:06Z</time>
      </trkpt>
      <trkpt lat="47.92411" lon="7.03014">
        <ele>1183.6</ele>
        <time>2021-08-07T11:11:07Z</time>
      </trkpt>
      <trkpt lat="47.92411" lon="7.03014">
        <ele>1183.6</ele>
        <time>2021-08-07T11:11:08Z</time>
      </trkpt>
      <trkpt lat="47.92405" lon="7.03019">
        <ele>1183.4</ele>
        <time>2021-08-07T11:18:40Z</time>
      </trkpt>
      <trkpt lat="47.92412" lon="7.03009">
        <ele>1183.2</ele>
        <time>2021-08-07T11:18:43Z</time>
      </trkpt>
      <trkpt lat="47.92414" lon="7.03005">
        <ele>1183.1</ele>
        <time>2021-08-07T11:18:44Z</time>
      </trkpt>
      <trkpt lat="47.92414" lon="7.03005">
        <ele>1183.1</ele>
        <time>2021-08-07T11:18:46Z</time>
      </trkpt>
      <trkpt lat="47.92413" lon="7.03007">
        <ele>1183.1</ele>
        <time>2021-08-07T11:18:47Z</time>
      </trkpt>
      <trkpt lat="47.92413" lon="7.03009">
        <ele>1183</ele>
        <time>2021-08-07T11:18:48Z</time>
      </trkpt>
      <trkpt lat="47.92413" lon="7.03011">
        <ele>1183</ele>
        <time>2021-08-07T11:18:50Z</time>
      </trkpt>
      <trkpt lat="47.92412" lon="7.03013">
        <ele>1183</ele>
        <time>2021-08-07T11:18:51Z</time>
      </trkpt>
      <trkpt lat="47.92409" lon="7.03015">
        <ele>1182.9</ele>
        <time>2021-08-07T11:18:58Z</time>
      </trkpt>
      <trkpt lat="47.92407" lon="7.03015">
        <ele>1182.8</ele>
        <time>2021-08-07T11:19:04Z</time>
      </trkpt>
      <trkpt lat="47.92404" lon="7.03016">
        <ele>1182.7</ele>
        <time>2021-08-07T11:19:09Z</time>
      </trkpt>
      <trkpt lat="47.92403" lon="7.03016">
        <ele>1182.7</ele>
        <time>2021-08-07T11:19:10Z</time>
      </trkpt>
      <trkpt lat="47.92401" lon="7.03017">
        <ele>1182.6</ele>
        <time>2021-08-07T11:19:16Z</time>
      </trkpt>
      <trkpt lat="47.92399" lon="7.03019">
        <ele>1182.6</ele>
        <time>2021-08-07T11:19:22Z</time>
      </trkpt>
      <trkpt lat="47.92401" lon="7.03018">
        <ele>1182.5</ele>
        <time>2021-08-07T11:19:28Z</time>
      </trkpt>
      <trkpt lat="47.92403" lon="7.03017">
        <ele>1182.5</ele>
        <time>2021-08-07T11:19:34Z</time>
      </trkpt>
      <trkpt lat="47.92406" lon="7.03023">
        <ele>1182.3</ele>
        <time>2021-08-07T12:16:05Z</time>
      </trkpt>
      <trkpt lat="47.92406" lon="7.03025">
        <ele>1182.3</ele>
        <time>2021-08-07T12:16:06Z</time>
      </trkpt>
      <trkpt lat="47.92408" lon="7.03028">
        <ele>1182.2</ele>
        <time>2021-08-07T12:16:08Z</time>
      </trkpt>
      <trkpt lat="47.92407" lon="7.03026">
        <ele>1182.2</ele>
        <time>2021-08-07T12:16:09Z</time>
      </trkpt>
      <trkpt lat="47.92408" lon="7.03026">
        <ele>1182.2</ele>
        <time>2021-08-07T12:16:10Z</time>
      </trkpt>
      <trkpt lat="47.92409" lon="7.03027">
        <ele>1182.2</ele>
        <time>2021-08-07T12:16:11Z</time>
      </trkpt>
      <trkpt lat="47.9241" lon="7.03028">
        <ele>1182.2</ele>
        <time>2021-08-07T12:16:12Z</time>
      </trkpt>
      <trkpt lat="47.92411" lon="7.03029">
        <ele>1182.1</ele>
        <time>2021-08-07T12:16:13Z</time>
      </trkpt>
      <trkpt lat="47.92412" lon="7.03031">
        <ele>1182.1</ele>
        <time>2021-08-07T12:16:15Z</time>
      </trkpt>
      <trkpt lat="47.92413" lon="7.03032">
        <ele>1182</ele>
        <time>2021-08-07T12:16:17Z</time>
      </trkpt>
      <trkpt lat="47.92414" lon="7.03033">
        <ele>1182</ele>
        <time>2021-08-07T12:16:19Z</time>
      </trkpt>
      <trkpt lat="47.92414" lon="7.03033">
        <ele>1182</ele>
        <time>2021-08-07T12:16:20Z</time>
      </trkpt>
      <trkpt lat="47.92414" lon="7.03032">
        <ele>1182</ele>
        <time>2021-08-07T12:16:22Z</time>
      </trkpt>
      <trkpt lat="47.92415" lon="7.03032">
        <ele>1182</ele>
        <time>2021-08-07T12:16:25Z</time>
      </trkpt>
      <trkpt lat="47.92415" lon="7.03032">
        <ele>1182</ele>
        <time>2021-08-07T12:16:27Z</time>
      </trkpt>
      <trkpt lat="47.92415" lon="7.03031">
        <ele>1182</ele>
        <time>2021-08-07T12:16:31Z</time>
      </trkpt>
      <trkpt lat="47.92415" lon="7.0303">
        <ele>1181.9</ele>
        <time>2021-08-07T12:16:32Z</time>
      </trkpt>
      <trkpt lat="47.92416" lon="7.0303">
        <ele>1181.9</ele>
        <time>2021-08-07T12:16:36Z</time>
      </trkpt>
      <trkpt lat="47.92415" lon="7.0303">
        <ele>1181.9</ele>
        <time>2021-08-07T12:16:39Z</time>
      </trkpt>
      <trkpt lat="47.92415" lon="7.0303">
        <ele>1181.9</ele>
        <time>2021-08-07T12:16:43Z</time>
      </trkpt>
      <trkpt lat="47.9241" lon="7.03023">
        <ele>1181.7</ele>
        <time>2021-08-07T12:16:55Z</time>
      </trkpt>
      <trkpt lat="47.92404" lon="7.03016">
        <ele>1181.6</ele>
        <time>2021-08-07T12:17:01Z</time>
      </trkpt>
      <trkpt lat="47.924" lon="7.03013">
        <ele>1181.4</ele>
        <time>2021-08-07T12:17:07Z</time>
      </trkpt>
      <trkpt lat="47.92399" lon="7.03013">
        <ele>1181.4</ele>
        <time>2021-08-07T12:17:13Z</time>
      </trkpt>
      <trkpt lat="47.92399" lon="7.03014">
        <ele>1181.4</ele>
        <time>2021-08-07T12:17:19Z</time>
      </trkpt>
      <trkpt lat="47.92392" lon="7.03053">
        <ele>1180.8</ele>
        <time>2021-08-07T12:18:28Z</time>
      </trkpt>
      <trkpt lat="47.92392" lon="7.03052">
        <ele>1180.7</ele>
        <time>2021-08-07T12:18:30Z</time>
      </trkpt>
      <trkpt lat="47.9239" lon="7.03055">
        <ele>1180.7</ele>
        <time>2021-08-07T12:18:31Z</time>
      </trkpt>
      <trkpt lat="47.92387" lon="7.0306">
        <ele>1180.6</ele>
        <time>2021-08-07T12:18:33Z</time>
      </trkpt>
      <trkpt lat="47.9238" lon="7.03068">
        <ele>1180.4</ele>
        <time>2021-08-07T12:18:35Z</time>
      </trkpt>
      <trkpt lat="47.92372" lon="7.03076">
        <ele>1180.1</ele>
        <time>2021-08-07T12:18:37Z</time>
      </trkpt>
      <trkpt lat="47.92368" lon="7.0308">
        <ele>1180</ele>
        <time>2021-08-07T12:18:38Z</time>
      </trkpt>
      <trkpt lat="47.92365" lon="7.03083">
        <ele>1179.9</ele>
        <time>2021-08-07T12:18:39Z</time>
      </trkpt>
      <trkpt lat="47.92358" lon="7.03091">
        <ele>1179.7</ele>
        <time>2021-08-07T12:18:41Z</time>
      </trkpt>
      <trkpt lat="47.92355" lon="7.03096">
        <ele>1179.6</ele>
        <time>2021-08-07T12:18:42Z</time>
      </trkpt>
      <trkpt lat="47.92348" lon="7.03106">
        <ele>1179.4</ele>
        <time>2021-08-07T12:18:44Z</time>
      </trkpt>
      <trkpt lat="47.92344" lon="7.03111">
        <ele>1179.3</ele>
        <time>2021-08-07T12:18:45Z</time>
      </trkpt>
      <trkpt lat="47.92341" lon="7.03117">
        <ele>1179.2</ele>
        <time>2021-08-07T12:18:46Z</time>
      </trkpt>
      <trkpt lat="47.92337" lon="7.03124">
        <ele>1179</ele>
        <time>2021-08-07T12:18:47Z</time>
      </trkpt>
      <trkpt lat="47.92334" lon="7.0313">
        <ele>1178.9</ele>
        <time>2021-08-07T12:18:48Z</time>
      </trkpt>
      <trkpt lat="47.92331" lon="7.03137">
        <ele>1178.8</ele>
        <time>2021-08-07T12:18:49Z</time>
      </trkpt>
      <trkpt lat="47.92326" lon="7.0315">
        <ele>1178.6</ele>
        <time>2021-08-07T12:18:51Z</time>
      </trkpt>
      <trkpt lat="47.92321" lon="7.03164">
        <ele>1178.3</ele>
        <time>2021-08-07T12:18:53Z</time>
      </trkpt>
      <trkpt lat="47.92319" lon="7.0317">
        <ele>1178.2</ele>
        <time>2021-08-07T12:18:54Z</time>
      </trkpt>
      <trkpt lat="47.92313" lon="7.03184">
        <ele>1177.9</ele>
        <time>2021-08-07T12:18:56Z</time>
      </trkpt>
      <trkpt lat="47.92305" lon="7.03193">
        <ele>1177.7</ele>
        <time>2021-08-07T12:18:58Z</time>
      </trkpt>
      <trkpt lat="47.92302" lon="7.03194">
        <ele>1177.9</ele>
        <time>2021-08-07T12:18:59Z</time>
      </trkpt>
      <trkpt lat="47.92294" lon="7.0319">
        <ele>1178.2</ele>
        <time>2021-08-07T12:19:01Z</time>
      </trkpt>
      <trkpt lat="47.92291" lon="7.03187">
        <ele>1178.4</ele>
        <time>2021-08-07T12:19:02Z</time>
      </trkpt>
      <trkpt lat="47.92288" lon="7.03183">
        <ele>1178.6</ele>
        <time>2021-08-07T12:19:03Z</time>
      </trkpt>
      <trkpt lat="47.92285" lon="7.03174">
        <ele>1178.9</ele>
        <time>2021-08-07T12:19:05Z</time>
      </trkpt>
      <trkpt lat="47.92286" lon="7.03169">
        <ele>1179</ele>
        <time>2021-08-07T12:19:06Z</time>
      </trkpt>
      <trkpt lat="47.92285" lon="7.0316">
        <ele>1179.3</ele>
        <time>2021-08-07T12:19:08Z</time>
      </trkpt>
      <trkpt lat="47.92285" lon="7.03154">
        <ele>1179.5</ele>
        <time>2021-08-07T12:19:09Z</time>
      </trkpt>
      <trkpt lat="47.92284" lon="7.03149">
        <ele>1179.7</ele>
        <time>2021-08-07T12:19:10Z</time>
      </trkpt>
      <trkpt lat="47.92284" lon="7.03141">
        <ele>1179.9</ele>
        <time>2021-08-07T12:19:11Z</time>
      </trkpt>
      <trkpt lat="47.92286" lon="7.03134">
        <ele>1180.2</ele>
        <time>2021-08-07T12:19:13Z</time>
      </trkpt>
      <trkpt lat="47.92287" lon="7.0313">
        <ele>1180.4</ele>
        <time>2021-08-07T12:19:14Z</time>
      </trkpt>
      <trkpt lat="47.92288" lon="7.03124">
        <ele>1180.6</ele>
        <time>2021-08-07T12:19:15Z</time>
      </trkpt>
      <trkpt lat="47.9229" lon="7.03118">
        <ele>1180.8</ele>
        <time>2021-08-07T12:19:17Z</time>
      </trkpt>
      <trkpt lat="47.92293" lon="7.03108">
        <ele>1181.2</ele>
        <time>2021-08-07T12:19:19Z</time>
      </trkpt>
      <trkpt lat="47.92294" lon="7.03101">
        <ele>1181.5</ele>
        <time>2021-08-07T12:19:20Z</time>
      </trkpt>
      <trkpt lat="47.92295" lon="7.03096">
        <ele>1181.7</ele>
        <time>2021-08-07T12:19:21Z</time>
      </trkpt>
      <trkpt lat="47.92297" lon="7.03092">
        <ele>1181.9</ele>
        <time>2021-08-07T12:19:22Z</time>
      </trkpt>
      <trkpt lat="47.92299" lon="7.03086">
        <ele>1182.2</ele>
        <time>2021-08-07T12:19:24Z</time>
      </trkpt>
      <trkpt lat="47.923" lon="7.03081">
        <ele>1182.4</ele>
        <time>2021-08-07T12:19:25Z</time>
      </trkpt>
      <trkpt lat="47.92301" lon="7.03077">
        <ele>1182.6</ele>
        <time>2021-08-07T12:19:26Z</time>
      </trkpt>
      <trkpt lat="47.92302" lon="7.03071">
        <ele>1182.9</ele>
        <time>2021-08-07T12:19:27Z</time>
      </trkpt>
      <trkpt lat="47.92303" lon="7.03066">
        <ele>1183.2</ele>
        <time>2021-08-07T12:19:28Z</time>
      </trkpt>
      <trkpt lat="47.92305" lon="7.03062">
        <ele>1183.4</ele>
        <time>2021-08-07T12:19:29Z</time>
      </trkpt>
      <trkpt lat="47.92306" lon="7.03056">
        <ele>1183.7</ele>
        <time>2021-08-07T12:19:31Z</time>
      </trkpt>
      <trkpt lat="47.92308" lon="7.03051">
        <ele>1183.9</ele>
        <time>2021-08-07T12:19:32Z</time>
      </trkpt>
      <trkpt lat="47.9231" lon="7.03044">
        <ele>1184.3</ele>
        <time>2021-08-07T12:19:33Z</time>
      </trkpt>
      <trkpt lat="47.92311" lon="7.03039">
        <ele>1184.6</ele>
        <time>2021-08-07T12:19:35Z</time>
      </trkpt>
      <trkpt lat="47.92312" lon="7.03034">
        <ele>1184.9</ele>
        <time>2021-08-07T12:19:36Z</time>
      </trkpt>
      <trkpt lat="47.92314" lon="7.03029">
        <ele>1185.2</ele>
        <time>2021-08-07T12:19:38Z</time>
      </trkpt>
      <trkpt lat="47.92315" lon="7.03024">
        <ele>1185.5</ele>
        <time>2021-08-07T12:19:39Z</time>
      </trkpt>
      <trkpt lat="47.92317" lon="7.03019">
        <ele>1185.7</ele>
        <time>2021-08-07T12:19:40Z</time>
      </trkpt>
      <trkpt lat="47.92317" lon="7.03017">
        <ele>1185.8</ele>
        <time>2021-08-07T12:19:41Z</time>
      </trkpt>
      <trkpt lat="47.92319" lon="7.03013">
        <ele>1186.1</ele>
        <time>2021-08-07T12:19:43Z</time>
      </trkpt>
      <trkpt lat="47.92319" lon="7.03011">
        <ele>1186.2</ele>
        <time>2021-08-07T12:19:44Z</time>
      </trkpt>
      <trkpt lat="47.92322" lon="7.03007">
        <ele>1186.5</ele>
        <time>2021-08-07T12:19:45Z</time>
      </trkpt>
      <trkpt lat="47.92323" lon="7.03005">
        <ele>1186.6</ele>
        <time>2021-08-07T12:19:46Z</time>
      </trkpt>
      <trkpt lat="47.92325" lon="7.03002">
        <ele>1186.8</ele>
        <time>2021-08-07T12:19:47Z</time>
      </trkpt>
      <trkpt lat="47.92326" lon="7.02998">
        <ele>1186.9</ele>
        <time>2021-08-07T12:19:48Z</time>
      </trkpt>
      <trkpt lat="47.92327" lon="7.02995">
        <ele>1187.1</ele>
        <time>2021-08-07T12:19:50Z</time>
      </trkpt>
      <trkpt lat="47.92328" lon="7.0299">
        <ele>1187.3</ele>
        <time>2021-08-07T12:19:51Z</time>
      </trkpt>
      <trkpt lat="47.92328" lon="7.02989">
        <ele>1187.4</ele>
        <time>2021-08-07T12:19:52Z</time>
      </trkpt>
      <trkpt lat="47.9233" lon="7.02984">
        <ele>1187.6</ele>
        <time>2021-08-07T12:19:53Z</time>
      </trkpt>
      <trkpt lat="47.9233" lon="7.02982">
        <ele>1187.6</ele>
        <time>2021-08-07T12:19:54Z</time>
      </trkpt>
      <trkpt lat="47.92333" lon="7.02978">
        <ele>1187.8</ele>
        <time>2021-08-07T12:19:56Z</time>
      </trkpt>
      <trkpt lat="47.92334" lon="7.02977">
        <ele>1187.9</ele>
        <time>2021-08-07T12:19:57Z</time>
      </trkpt>
      <trkpt lat="47.92336" lon="7.02975">
        <ele>1188</ele>
        <time>2021-08-07T12:19:58Z</time>
      </trkpt>
      <trkpt lat="47.92338" lon="7.02975">
        <ele>1187.9</ele>
        <time>2021-08-07T12:20:00Z</time>
      </trkpt>
      <trkpt lat="47.92343" lon="7.02974">
        <ele>1187.6</ele>
        <time>2021-08-07T12:20:02Z</time>
      </trkpt>
      <trkpt lat="47.92344" lon="7.02974">
        <ele>1187.6</ele>
        <time>2021-08-07T12:20:03Z</time>
      </trkpt>
      <trkpt lat="47.92346" lon="7.02974">
        <ele>1187.5</ele>
        <time>2021-08-07T12:20:04Z</time>
      </trkpt>
      <trkpt lat="47.92347" lon="7.02974">
        <ele>1187.5</ele>
        <time>2021-08-07T12:20:06Z</time>
      </trkpt>
      <trkpt lat="47.92349" lon="7.02975">
        <ele>1187.4</ele>
        <time>2021-08-07T12:20:07Z</time>
      </trkpt>
      <trkpt lat="47.92349" lon="7.02975">
        <ele>1187.4</ele>
        <time>2021-08-07T12:20:09Z</time>
      </trkpt>
      <trkpt lat="47.9235" lon="7.02975">
        <ele>1187.3</ele>
        <time>2021-08-07T12:20:10Z</time>
      </trkpt>
      <trkpt lat="47.9235" lon="7.02975">
        <ele>1187.3</ele>
        <time>2021-08-07T12:20:11Z</time>
      </trkpt>
      <trkpt lat="47.9235" lon="7.02975">
        <ele>1187.3</ele>
        <time>2021-08-07T12:20:13Z</time>
      </trkpt>
      <trkpt lat="47.9235" lon="7.02975">
        <ele>1187.3</ele>
        <time>2021-08-07T12:20:14Z</time>
      </trkpt>
      <trkpt lat="47.9235" lon="7.02975">
        <ele>1187.3</ele>
        <time>2021-08-07T12:20:16Z</time>
      </trkpt>
      <trkpt lat="47.92345" lon="7.02984">
        <ele>1186.9</ele>
        <time>2021-08-07T12:21:10Z</time>
      </trkpt>
      <trkpt lat="47.92343" lon="7.02987">
        <ele>1186.7</ele>
        <time>2021-08-07T12:21:11Z</time>
      </trkpt>
      <trkpt lat="47.92339" lon="7.02991">
        <ele>1186.5</ele>
        <time>2021-08-07T12:21:12Z</time>
      </trkpt>
      <trkpt lat="47.92333" lon="7.02998">
        <ele>1186</ele>
        <time>2021-08-07T12:21:13Z</time>
      </trkpt>
      <trkpt lat="47.92328" lon="7.03004">
        <ele>1185.6</ele>
        <time>2021-08-07T12:21:15Z</time>
      </trkpt>
      <trkpt lat="47.92323" lon="7.03009">
        <ele>1185.2</ele>
        <time>2021-08-07T12:21:16Z</time>
      </trkpt>
      <trkpt lat="47.9232" lon="7.03015">
        <ele>1184.8</ele>
        <time>2021-08-07T12:21:17Z</time>
      </trkpt>
      <trkpt lat="47.92316" lon="7.03023">
        <ele>1184.4</ele>
        <time>2021-08-07T12:21:18Z</time>
      </trkpt>
      <trkpt lat="47.9231" lon="7.0304">
        <ele>1183.6</ele>
        <time>2021-08-07T12:21:20Z</time>
      </trkpt>
      <trkpt lat="47.92307" lon="7.0305">
        <ele>1183.2</ele>
        <time>2021-08-07T12:21:21Z</time>
      </trkpt>
      <trkpt lat="47.923" lon="7.03072">
        <ele>1182.3</ele>
        <time>2021-08-07T12:21:23Z</time>
      </trkpt>
      <trkpt lat="47.92297" lon="7.03083">
        <ele>1181.9</ele>
        <time>2021-08-07T12:21:24Z</time>
      </trkpt>
      <trkpt lat="47.92291" lon="7.03105">
        <ele>1181.1</ele>
        <time>2021-08-07T12:21:26Z</time>
      </trkpt>
      <trkpt lat="47.92288" lon="7.03116">
        <ele>1180.7</ele>
        <time>2021-08-07T12:21:27Z</time>
      </trkpt>
      <trkpt lat="47.92284" lon="7.03128">
        <ele>1180.3</ele>
        <time>2021-08-07T12:21:28Z</time>
      </trkpt>
      <trkpt lat="47.92281" lon="7.03139">
        <ele>1180</ele>
        <time>2021-08-07T12:21:29Z</time>
      </trkpt>
      <trkpt lat="47.92279" lon="7.0315">
        <ele>1179.6</ele>
        <time>2021-08-07T12:21:30Z</time>
      </trkpt>
      <trkpt lat="47.92278" lon="7.03172">
        <ele>1179.1</ele>
        <time>2021-08-07T12:21:32Z</time>
      </trkpt>
      <trkpt lat="47.92282" lon="7.03192">
        <ele>1178.6</ele>
        <time>2021-08-07T12:21:34Z</time>
      </trkpt>
      <trkpt lat="47.92287" lon="7.032">
        <ele>1178.3</ele>
        <time>2021-08-07T12:21:35Z</time>
      </trkpt>
      <trkpt lat="47.92292" lon="7.03208">
        <ele>1178</ele>
        <time>2021-08-07T12:21:36Z</time>
      </trkpt>
      <trkpt lat="47.92301" lon="7.03227">
        <ele>1177.5</ele>
        <time>2021-08-07T12:21:38Z</time>
      </trkpt>
      <trkpt lat="47.92305" lon="7.03247">
        <ele>1176.5</ele>
        <time>2021-08-07T12:21:40Z</time>
      </trkpt>
      <trkpt lat="47.92305" lon="7.03258">
        <ele>1176.1</ele>
        <time>2021-08-07T12:21:41Z</time>
      </trkpt>
      <trkpt lat="47.92302" lon="7.03268">
        <ele>1175.7</ele>
        <time>2021-08-07T12:21:42Z</time>
      </trkpt>
      <trkpt lat="47.923" lon="7.03279">
        <ele>1175.2</ele>
        <time>2021-08-07T12:21:43Z</time>
      </trkpt>
      <trkpt lat="47.92295" lon="7.03299">
        <ele>1174.1</ele>
        <time>2021-08-07T12:21:45Z</time>
      </trkpt>
      <trkpt lat="47.92293" lon="7.03309">
        <ele>1173.5</ele>
        <time>2021-08-07T12:21:46Z</time>
      </trkpt>
      <trkpt lat="47.9229" lon="7.0332">
        <ele>1172.8</ele>
        <time>2021-08-07T12:21:47Z</time>
      </trkpt>
      <trkpt lat="47.92286" lon="7.03341">
        <ele>1171.5</ele>
        <time>2021-08-07T12:21:49Z</time>
      </trkpt>
      <trkpt lat="47.92281" lon="7.03364">
        <ele>1170.2</ele>
        <time>2021-08-07T12:21:51Z</time>
      </trkpt>
      <trkpt lat="47.92276" lon="7.03387">
        <ele>1168.9</ele>
        <time>2021-08-07T12:21:53Z</time>
      </trkpt>
      <trkpt lat="47.92273" lon="7.03399">
        <ele>1168.3</ele>
        <time>2021-08-07T12:21:54Z</time>
      </trkpt>
      <trkpt lat="47.92271" lon="7.03412">
        <ele>1168</ele>
        <time>2021-08-07T12:21:55Z</time>
      </trkpt>
      <trkpt lat="47.9227" lon="7.03425">
        <ele>1167.7</ele>
        <time>2021-08-07T12:21:56Z</time>
      </trkpt>
      <trkpt lat="47.92271" lon="7.0345">
        <ele>1167.2</ele>
        <time>2021-08-07T12:21:58Z</time>
      </trkpt>
      <trkpt lat="47.92272" lon="7.03463">
        <ele>1167.1</ele>
        <time>2021-08-07T12:21:59Z</time>
      </trkpt>
      <trkpt lat="47.92275" lon="7.03487">
        <ele>1166.9</ele>
        <time>2021-08-07T12:22:01Z</time>
      </trkpt>
      <trkpt lat="47.92276" lon="7.03498">
        <ele>1166.9</ele>
        <time>2021-08-07T12:22:02Z</time>
      </trkpt>
      <trkpt lat="47.92277" lon="7.03509">
        <ele>1166.9</ele>
        <time>2021-08-07T12:22:03Z</time>
      </trkpt>
      <trkpt lat="47.92279" lon="7.03529">
        <ele>1166.9</ele>
        <time>2021-08-07T12:22:05Z</time>
      </trkpt>
      <trkpt lat="47.92281" lon="7.03547">
        <ele>1166.9</ele>
        <time>2021-08-07T12:22:07Z</time>
      </trkpt>
      <trkpt lat="47.92282" lon="7.03555">
        <ele>1166.9</ele>
        <time>2021-08-07T12:22:08Z</time>
      </trkpt>
      <trkpt lat="47.92284" lon="7.03572">
        <ele>1167</ele>
        <time>2021-08-07T12:22:10Z</time>
      </trkpt>
      <trkpt lat="47.92286" lon="7.03589">
        <ele>1167.1</ele>
        <time>2021-08-07T12:22:12Z</time>
      </trkpt>
      <trkpt lat="47.92286" lon="7.03598">
        <ele>1167.1</ele>
        <time>2021-08-07T12:22:13Z</time>
      </trkpt>
      <trkpt lat="47.92286" lon="7.03607">
        <ele>1167.2</ele>
        <time>2021-08-07T12:22:14Z</time>
      </trkpt>
      <trkpt lat="47.92285" lon="7.03624">
        <ele>1167.4</ele>
        <time>2021-08-07T12:22:16Z</time>
      </trkpt>
      <trkpt lat="47.92284" lon="7.03632">
        <ele>1167.4</ele>
        <time>2021-08-07T12:22:17Z</time>
      </trkpt>
      <trkpt lat="47.92283" lon="7.03641">
        <ele>1167.5</ele>
        <time>2021-08-07T12:22:18Z</time>
      </trkpt>
      <trkpt lat="47.92278" lon="7.03658">
        <ele>1167.5</ele>
        <time>2021-08-07T12:22:20Z</time>
      </trkpt>
      <trkpt lat="47.92273" lon="7.03672">
        <ele>1167.5</ele>
        <time>2021-08-07T12:22:22Z</time>
      </trkpt>
      <trkpt lat="47.9227" lon="7.03679">
        <ele>1167.4</ele>
        <time>2021-08-07T12:22:23Z</time>
      </trkpt>
      <trkpt lat="47.92266" lon="7.03685">
        <ele>1167.4</ele>
        <time>2021-08-07T12:22:24Z</time>
      </trkpt>
      <trkpt lat="47.92259" lon="7.03699">
        <ele>1167.3</ele>
        <time>2021-08-07T12:22:26Z</time>
      </trkpt>
      <trkpt lat="47.92252" lon="7.03713">
        <ele>1167.3</ele>
        <time>2021-08-07T12:22:28Z</time>
      </trkpt>
      <trkpt lat="47.92244" lon="7.03727">
        <ele>1167.3</ele>
        <time>2021-08-07T12:22:30Z</time>
      </trkpt>
      <trkpt lat="47.9224" lon="7.03734">
        <ele>1167.3</ele>
        <time>2021-08-07T12:22:31Z</time>
      </trkpt>
      <trkpt lat="47.92236" lon="7.03741">
        <ele>1167.3</ele>
        <time>2021-08-07T12:22:32Z</time>
      </trkpt>
      <trkpt lat="47.92229" lon="7.03756">
        <ele>1167.3</ele>
        <time>2021-08-07T12:22:34Z</time>
      </trkpt>
      <trkpt lat="47.92224" lon="7.03762">
        <ele>1167.3</ele>
        <time>2021-08-07T12:22:35Z</time>
      </trkpt>
      <trkpt lat="47.92216" lon="7.03774">
        <ele>1167.1</ele>
        <time>2021-08-07T12:22:37Z</time>
      </trkpt>
      <trkpt lat="47.92212" lon="7.0378">
        <ele>1167.1</ele>
        <time>2021-08-07T12:22:38Z</time>
      </trkpt>
      <trkpt lat="47.92204" lon="7.03792">
        <ele>1167</ele>
        <time>2021-08-07T12:22:40Z</time>
      </trkpt>
      <trkpt lat="47.92199" lon="7.03798">
        <ele>1167.1</ele>
        <time>2021-08-07T12:22:41Z</time>
      </trkpt>
      <trkpt lat="47.92195" lon="7.03804">
        <ele>1167.1</ele>
        <time>2021-08-07T12:22:42Z</time>
      </trkpt>
      <trkpt lat="47.92187" lon="7.03814">
        <ele>1167.1</ele>
        <time>2021-08-07T12:22:44Z</time>
      </trkpt>
      <trkpt lat="47.92179" lon="7.03823">
        <ele>1167.2</ele>
        <time>2021-08-07T12:22:46Z</time>
      </trkpt>
      <trkpt lat="47.9217" lon="7.03834">
        <ele>1167.2</ele>
        <time>2021-08-07T12:22:48Z</time>
      </trkpt>
      <trkpt lat="47.92162" lon="7.03842">
        <ele>1167.2</ele>
        <time>2021-08-07T12:22:50Z</time>
      </trkpt>
      <trkpt lat="47.92155" lon="7.03852">
        <ele>1167.2</ele>
        <time>2021-08-07T12:22:52Z</time>
      </trkpt>
      <trkpt lat="47.92151" lon="7.03856">
        <ele>1167.2</ele>
        <time>2021-08-07T12:22:53Z</time>
      </trkpt>
      <trkpt lat="47.92147" lon="7.03861">
        <ele>1167.2</ele>
        <time>2021-08-07T12:22:54Z</time>
      </trkpt>
      <trkpt lat="47.92139" lon="7.03872">
        <ele>1167.1</ele>
        <time>2021-08-07T12:22:56Z</time>
      </trkpt>
      <trkpt lat="47.92132" lon="7.03882">
        <ele>1167.1</ele>
        <time>2021-08-07T12:22:58Z</time>
      </trkpt>
      <trkpt lat="47.92125" lon="7.03893">
        <ele>1167.2</ele>
        <time>2021-08-07T12:23:00Z</time>
      </trkpt>
      <trkpt lat="47.92122" lon="7.039">
        <ele>1167.2</ele>
        <time>2021-08-07T12:23:01Z</time>
      </trkpt>
      <trkpt lat="47.92119" lon="7.03906">
        <ele>1167.2</ele>
        <time>2021-08-07T12:23:02Z</time>
      </trkpt>
      <trkpt lat="47.92114" lon="7.03918">
        <ele>1167.2</ele>
        <time>2021-08-07T12:23:04Z</time>
      </trkpt>
      <trkpt lat="47.92111" lon="7.03923">
        <ele>1167.3</ele>
        <time>2021-08-07T12:23:05Z</time>
      </trkpt>
      <trkpt lat="47.92104" lon="7.03934">
        <ele>1167.3</ele>
        <time>2021-08-07T12:23:07Z</time>
      </trkpt>
      <trkpt lat="47.921" lon="7.03938">
        <ele>1167.3</ele>
        <time>2021-08-07T12:23:08Z</time>
      </trkpt>
      <trkpt lat="47.92094" lon="7.03944">
        <ele>1167.3</ele>
        <time>2021-08-07T12:23:10Z</time>
      </trkpt>
      <trkpt lat="47.92085" lon="7.03948">
        <ele>1167.3</ele>
        <time>2021-08-07T12:23:12Z</time>
      </trkpt>
      <trkpt lat="47.92075" lon="7.03951">
        <ele>1167.3</ele>
        <time>2021-08-07T12:23:14Z</time>
      </trkpt>
      <trkpt lat="47.92066" lon="7.03955">
        <ele>1167.3</ele>
        <time>2021-08-07T12:23:16Z</time>
      </trkpt>
      <trkpt lat="47.92062" lon="7.03957">
        <ele>1167.3</ele>
        <time>2021-08-07T12:23:17Z</time>
      </trkpt>
      <trkpt lat="47.92058" lon="7.03958">
        <ele>1167.3</ele>
        <time>2021-08-07T12:23:18Z</time>
      </trkpt>
      <trkpt lat="47.92057" lon="7.03953">
        <ele>1167.3</ele>
        <time>2021-08-07T12:23:19Z</time>
      </trkpt>
      <trkpt lat="47.92053" lon="7.03956">
        <ele>1167.3</ele>
        <time>2021-08-07T12:23:20Z</time>
      </trkpt>
      <trkpt lat="47.92046" lon="7.03962">
        <ele>1167.3</ele>
        <time>2021-08-07T12:23:22Z</time>
      </trkpt>
      <trkpt lat="47.92039" lon="7.03968">
        <ele>1167.3</ele>
        <time>2021-08-07T12:23:23Z</time>
      </trkpt>
      <trkpt lat="47.92034" lon="7.03971">
        <ele>1167.3</ele>
        <time>2021-08-07T12:23:24Z</time>
      </trkpt>
      <trkpt lat="47.92029" lon="7.03974">
        <ele>1167.3</ele>
        <time>2021-08-07T12:23:25Z</time>
      </trkpt>
      <trkpt lat="47.92021" lon="7.03978">
        <ele>1167.3</ele>
        <time>2021-08-07T12:23:27Z</time>
      </trkpt>
      <trkpt lat="47.92017" lon="7.03979">
        <ele>1167.3</ele>
        <time>2021-08-07T12:23:28Z</time>
      </trkpt>
      <trkpt lat="47.92013" lon="7.03981">
        <ele>1167.3</ele>
        <time>2021-08-07T12:23:29Z</time>
      </trkpt>
      <trkpt lat="47.92008" lon="7.03988">
        <ele>1167.4</ele>
        <time>2021-08-07T12:23:31Z</time>
      </trkpt>
      <trkpt lat="47.92005" lon="7.03992">
        <ele>1167.4</ele>
        <time>2021-08-07T12:23:32Z</time>
      </trkpt>
      <trkpt lat="47.92" lon="7.04">
        <ele>1167.4</ele>
        <time>2021-08-07T12:23:34Z</time>
      </trkpt>
      <trkpt lat="47.91997" lon="7.04005">
        <ele>1167.5</ele>
        <time>2021-08-07T12:23:35Z</time>
      </trkpt>
      <trkpt lat="47.91993" lon="7.04012">
        <ele>1167.5</ele>
        <time>2021-08-07T12:23:36Z</time>
      </trkpt>
      <trkpt lat="47.91984" lon="7.04018">
        <ele>1167.6</ele>
        <time>2021-08-07T12:23:38Z</time>
      </trkpt>
      <trkpt lat="47.91979" lon="7.0402">
        <ele>1167.6</ele>
        <time>2021-08-07T12:23:39Z</time>
      </trkpt>
      <trkpt lat="47.91974" lon="7.04023">
        <ele>1167.6</ele>
        <time>2021-08-07T12:23:40Z</time>
      </trkpt>
      <trkpt lat="47.91972" lon="7.04022">
        <ele>1167.6</ele>
        <time>2021-08-07T12:23:41Z</time>
      </trkpt>
      <trkpt lat="47.91969" lon="7.04028">
        <ele>1167.6</ele>
        <time>2021-08-07T12:23:42Z</time>
      </trkpt>
      <trkpt lat="47.91965" lon="7.04031">
        <ele>1167.6</ele>
        <time>2021-08-07T12:23:43Z</time>
      </trkpt>
      <trkpt lat="47.91959" lon="7.04037">
        <ele>1167.5</ele>
        <time>2021-08-07T12:23:44Z</time>
      </trkpt>
      <trkpt lat="47.91953" lon="7.04043">
        <ele>1167.5</ele>
        <time>2021-08-07T12:23:46Z</time>
      </trkpt>
      <trkpt lat="47.91945" lon="7.04045">
        <ele>1167.5</ele>
        <time>2021-08-07T12:23:48Z</time>
      </trkpt>
      <trkpt lat="47.91939" lon="7.0405">
        <ele>1167.4</ele>
        <time>2021-08-07T12:23:49Z</time>
      </trkpt>
      <trkpt lat="47.91936" lon="7.04053">
        <ele>1167.4</ele>
        <time>2021-08-07T12:23:51Z</time>
      </trkpt>
      <trkpt lat="47.91929" lon="7.04058">
        <ele>1167.4</ele>
        <time>2021-08-07T12:23:52Z</time>
      </trkpt>
      <trkpt lat="47.91923" lon="7.04062">
        <ele>1167.3</ele>
        <time>2021-08-07T12:23:54Z</time>
      </trkpt>
      <trkpt lat="47.91916" lon="7.04065">
        <ele>1167.3</ele>
        <time>2021-08-07T12:23:56Z</time>
      </trkpt>
      <trkpt lat="47.91909" lon="7.04067">
        <ele>1167.3</ele>
        <time>2021-08-07T12:23:58Z</time>
      </trkpt>
      <trkpt lat="47.91904" lon="7.04069">
        <ele>1167.2</ele>
        <time>2021-08-07T12:23:59Z</time>
      </trkpt>
      <trkpt lat="47.91899" lon="7.04071">
        <ele>1167.2</ele>
        <time>2021-08-07T12:24:00Z</time>
      </trkpt>
      <trkpt lat="47.91894" lon="7.04073">
        <ele>1167.2</ele>
        <time>2021-08-07T12:24:01Z</time>
      </trkpt>
      <trkpt lat="47.9189" lon="7.04074">
        <ele>1167.3</ele>
        <time>2021-08-07T12:24:02Z</time>
      </trkpt>
      <trkpt lat="47.91879" lon="7.04077">
        <ele>1167.3</ele>
        <time>2021-08-07T12:24:04Z</time>
      </trkpt>
      <trkpt lat="47.91874" lon="7.04084">
        <ele>1167.4</ele>
        <time>2021-08-07T12:24:06Z</time>
      </trkpt>
      <trkpt lat="47.91869" lon="7.04083">
        <ele>1167.4</ele>
        <time>2021-08-07T12:24:07Z</time>
      </trkpt>
      <trkpt lat="47.91864" lon="7.04083">
        <ele>1167.4</ele>
        <time>2021-08-07T12:24:08Z</time>
      </trkpt>
      <trkpt lat="47.9186" lon="7.04082">
        <ele>1167.4</ele>
        <time>2021-08-07T12:24:09Z</time>
      </trkpt>
      <trkpt lat="47.91849" lon="7.04082">
        <ele>1167.3</ele>
        <time>2021-08-07T12:24:11Z</time>
      </trkpt>
      <trkpt lat="47.91844" lon="7.04083">
        <ele>1167.3</ele>
        <time>2021-08-07T12:24:12Z</time>
      </trkpt>
      <trkpt lat="47.91835" lon="7.04084">
        <ele>1167.3</ele>
        <time>2021-08-07T12:24:14Z</time>
      </trkpt>
      <trkpt lat="47.91829" lon="7.04085">
        <ele>1167.3</ele>
        <time>2021-08-07T12:24:15Z</time>
      </trkpt>
      <trkpt lat="47.91823" lon="7.04092">
        <ele>1167.3</ele>
        <time>2021-08-07T12:24:17Z</time>
      </trkpt>
      <trkpt lat="47.91815" lon="7.04092">
        <ele>1167.3</ele>
        <time>2021-08-07T12:24:19Z</time>
      </trkpt>
      <trkpt lat="47.91811" lon="7.04091">
        <ele>1167.3</ele>
        <time>2021-08-07T12:24:20Z</time>
      </trkpt>
      <trkpt lat="47.91804" lon="7.04094">
        <ele>1167.3</ele>
        <time>2021-08-07T12:24:22Z</time>
      </trkpt>
      <trkpt lat="47.91799" lon="7.04098">
        <ele>1167.3</ele>
        <time>2021-08-07T12:24:23Z</time>
      </trkpt>
      <trkpt lat="47.91795" lon="7.04101">
        <ele>1167.3</ele>
        <time>2021-08-07T12:24:24Z</time>
      </trkpt>
      <trkpt lat="47.91789" lon="7.0411">
        <ele>1167.3</ele>
        <time>2021-08-07T12:24:26Z</time>
      </trkpt>
      <trkpt lat="47.91785" lon="7.04114">
        <ele>1167.3</ele>
        <time>2021-08-07T12:24:27Z</time>
      </trkpt>
      <trkpt lat="47.9178" lon="7.04118">
        <ele>1167.3</ele>
        <time>2021-08-07T12:24:28Z</time>
      </trkpt>
      <trkpt lat="47.91775" lon="7.04122">
        <ele>1167.3</ele>
        <time>2021-08-07T12:24:29Z</time>
      </trkpt>
      <trkpt lat="47.91767" lon="7.0413">
        <ele>1167.2</ele>
        <time>2021-08-07T12:24:31Z</time>
      </trkpt>
      <trkpt lat="47.91764" lon="7.04135">
        <ele>1167.2</ele>
        <time>2021-08-07T12:24:32Z</time>
      </trkpt>
      <trkpt lat="47.9176" lon="7.04142">
        <ele>1167.3</ele>
        <time>2021-08-07T12:24:33Z</time>
      </trkpt>
      <trkpt lat="47.91756" lon="7.04147">
        <ele>1167.3</ele>
        <time>2021-08-07T12:24:35Z</time>
      </trkpt>
      <trkpt lat="47.91753" lon="7.04149">
        <ele>1167.3</ele>
        <time>2021-08-07T12:24:36Z</time>
      </trkpt>
      <trkpt lat="47.91745" lon="7.04154">
        <ele>1167.3</ele>
        <time>2021-08-07T12:24:38Z</time>
      </trkpt>
      <trkpt lat="47.91741" lon="7.04156">
        <ele>1167.3</ele>
        <time>2021-08-07T12:24:39Z</time>
      </trkpt>
      <trkpt lat="47.91736" lon="7.0416">
        <ele>1167.3</ele>
        <time>2021-08-07T12:24:40Z</time>
      </trkpt>
      <trkpt lat="47.91728" lon="7.04168">
        <ele>1167.3</ele>
        <time>2021-08-07T12:24:42Z</time>
      </trkpt>
      <trkpt lat="47.91724" lon="7.04172">
        <ele>1167.3</ele>
        <time>2021-08-07T12:24:43Z</time>
      </trkpt>
      <trkpt lat="47.9172" lon="7.04177">
        <ele>1167.3</ele>
        <time>2021-08-07T12:24:44Z</time>
      </trkpt>
      <trkpt lat="47.91716" lon="7.04181">
        <ele>1167.3</ele>
        <time>2021-08-07T12:24:45Z</time>
      </trkpt>
      <trkpt lat="47.91712" lon="7.04187">
        <ele>1167.3</ele>
        <time>2021-08-07T12:24:47Z</time>
      </trkpt>
      <trkpt lat="47.91708" lon="7.04193">
        <ele>1167.3</ele>
        <time>2021-08-07T12:24:48Z</time>
      </trkpt>
      <trkpt lat="47.91705" lon="7.04198">
        <ele>1167.3</ele>
        <time>2021-08-07T12:24:49Z</time>
      </trkpt>
      <trkpt lat="47.91702" lon="7.04202">
        <ele>1167.3</ele>
        <time>2021-08-07T12:24:50Z</time>
      </trkpt>
      <trkpt lat="47.91697" lon="7.04211">
        <ele>1167.3</ele>
        <time>2021-08-07T12:24:52Z</time>
      </trkpt>
      <trkpt lat="47.91695" lon="7.04215">
        <ele>1167.3</ele>
        <time>2021-08-07T12:24:53Z</time>
      </trkpt>
      <trkpt lat="47.91689" lon="7.04222">
        <ele>1167.3</ele>
        <time>2021-08-07T12:24:55Z</time>
      </trkpt>
      <trkpt lat="47.91685" lon="7.04231">
        <ele>1167.3</ele>
        <time>2021-08-07T12:24:56Z</time>
      </trkpt>
      <trkpt lat="47.91677" lon="7.04242">
        <ele>1167.4</ele>
        <time>2021-08-07T12:24:58Z</time>
      </trkpt>
      <trkpt lat="47.91675" lon="7.04245">
        <ele>1167.4</ele>
        <time>2021-08-07T12:24:59Z</time>
      </trkpt>
      <trkpt lat="47.9167" lon="7.04252">
        <ele>1167.4</ele>
        <time>2021-08-07T12:25:00Z</time>
      </trkpt>
      <trkpt lat="47.91666" lon="7.04256">
        <ele>1167.4</ele>
        <time>2021-08-07T12:25:01Z</time>
      </trkpt>
      <trkpt lat="47.91658" lon="7.04261">
        <ele>1167.5</ele>
        <time>2021-08-07T12:25:04Z</time>
      </trkpt>
      <trkpt lat="47.91652" lon="7.04266">
        <ele>1167.5</ele>
        <time>2021-08-07T12:25:05Z</time>
      </trkpt>
      <trkpt lat="47.91647" lon="7.0427">
        <ele>1167.5</ele>
        <time>2021-08-07T12:25:06Z</time>
      </trkpt>
      <trkpt lat="47.9164" lon="7.04274">
        <ele>1167.6</ele>
        <time>2021-08-07T12:25:08Z</time>
      </trkpt>
      <trkpt lat="47.91632" lon="7.04281">
        <ele>1167.6</ele>
        <time>2021-08-07T12:25:10Z</time>
      </trkpt>
      <trkpt lat="47.91625" lon="7.04285">
        <ele>1167.6</ele>
        <time>2021-08-07T12:25:11Z</time>
      </trkpt>
      <trkpt lat="47.91619" lon="7.04289">
        <ele>1167.6</ele>
        <time>2021-08-07T12:25:13Z</time>
      </trkpt>
      <trkpt lat="47.91615" lon="7.04293">
        <ele>1167.6</ele>
        <time>2021-08-07T12:25:14Z</time>
      </trkpt>
      <trkpt lat="47.91613" lon="7.04299">
        <ele>1167.6</ele>
        <time>2021-08-07T12:25:16Z</time>
      </trkpt>
      <trkpt lat="47.9161" lon="7.043">
        <ele>1167.6</ele>
        <time>2021-08-07T12:25:17Z</time>
      </trkpt>
      <trkpt lat="47.91602" lon="7.04308">
        <ele>1167.6</ele>
        <time>2021-08-07T12:25:19Z</time>
      </trkpt>
      <trkpt lat="47.91594" lon="7.04318">
        <ele>1167.6</ele>
        <time>2021-08-07T12:25:20Z</time>
      </trkpt>
      <trkpt lat="47.91591" lon="7.04319">
        <ele>1167.6</ele>
        <time>2021-08-07T12:25:21Z</time>
      </trkpt>
      <trkpt lat="47.91588" lon="7.04317">
        <ele>1167.6</ele>
        <time>2021-08-07T12:25:22Z</time>
      </trkpt>
      <trkpt lat="47.91583" lon="7.04323">
        <ele>1167.6</ele>
        <time>2021-08-07T12:25:23Z</time>
      </trkpt>
      <trkpt lat="47.91573" lon="7.04335">
        <ele>1167.6</ele>
        <time>2021-08-07T12:25:25Z</time>
      </trkpt>
      <trkpt lat="47.91568" lon="7.0434">
        <ele>1167.6</ele>
        <time>2021-08-07T12:25:26Z</time>
      </trkpt>
      <trkpt lat="47.9156" lon="7.04345">
        <ele>1167.6</ele>
        <time>2021-08-07T12:25:28Z</time>
      </trkpt>
      <trkpt lat="47.91556" lon="7.04345">
        <ele>1167.7</ele>
        <time>2021-08-07T12:25:29Z</time>
      </trkpt>
      <trkpt lat="47.91552" lon="7.04346">
        <ele>1167.7</ele>
        <time>2021-08-07T12:25:30Z</time>
      </trkpt>
      <trkpt lat="47.91547" lon="7.04346">
        <ele>1167.7</ele>
        <time>2021-08-07T12:25:31Z</time>
      </trkpt>
      <trkpt lat="47.91542" lon="7.04346">
        <ele>1167.8</ele>
        <time>2021-08-07T12:25:32Z</time>
      </trkpt>
      <trkpt lat="47.91537" lon="7.04346">
        <ele>1167.8</ele>
        <time>2021-08-07T12:25:34Z</time>
      </trkpt>
      <trkpt lat="47.91531" lon="7.04344">
        <ele>1167.8</ele>
        <time>2021-08-07T12:25:36Z</time>
      </trkpt>
      <trkpt lat="47.91527" lon="7.04343">
        <ele>1167.9</ele>
        <time>2021-08-07T12:25:37Z</time>
      </trkpt>
      <trkpt lat="47.91526" lon="7.04342">
        <ele>1167.9</ele>
        <time>2021-08-07T12:25:38Z</time>
      </trkpt>
      <trkpt lat="47.91525" lon="7.04342">
        <ele>1167.9</ele>
        <time>2021-08-07T12:25:40Z</time>
      </trkpt>
      <trkpt lat="47.91525" lon="7.04342">
        <ele>1167.9</ele>
        <time>2021-08-07T12:25:41Z</time>
      </trkpt>
      <trkpt lat="47.91524" lon="7.04342">
        <ele>1167.9</ele>
        <time>2021-08-07T12:25:42Z</time>
      </trkpt>
      <trkpt lat="47.91524" lon="7.04342">
        <ele>1167.9</ele>
        <time>2021-08-07T12:25:43Z</time>
      </trkpt>
      <trkpt lat="47.91514" lon="7.04344">
        <ele>1167.9</ele>
        <time>2021-08-07T12:25:45Z</time>
      </trkpt>
      <trkpt lat="47.91499" lon="7.04345">
        <ele>1167.8</ele>
        <time>2021-08-07T12:25:47Z</time>
      </trkpt>
      <trkpt lat="47.91494" lon="7.04346">
        <ele>1167.8</ele>
        <time>2021-08-07T12:25:48Z</time>
      </trkpt>
      <trkpt lat="47.91486" lon="7.04349">
        <ele>1167.8</ele>
        <time>2021-08-07T12:25:49Z</time>
      </trkpt>
      <trkpt lat="47.91475" lon="7.04353">
        <ele>1167.7</ele>
        <time>2021-08-07T12:25:51Z</time>
      </trkpt>
      <trkpt lat="47.91467" lon="7.04358">
        <ele>1167.7</ele>
        <time>2021-08-07T12:25:53Z</time>
      </trkpt>
      <trkpt lat="47.91463" lon="7.0436">
        <ele>1167.7</ele>
        <time>2021-08-07T12:25:54Z</time>
      </trkpt>
      <trkpt lat="47.91459" lon="7.04362">
        <ele>1167.7</ele>
        <time>2021-08-07T12:25:55Z</time>
      </trkpt>
      <trkpt lat="47.91457" lon="7.04368">
        <ele>1167.7</ele>
        <time>2021-08-07T12:25:57Z</time>
      </trkpt>
      <trkpt lat="47.91452" lon="7.04373">
        <ele>1167.8</ele>
        <time>2021-08-07T12:25:58Z</time>
      </trkpt>
      <trkpt lat="47.91446" lon="7.04379">
        <ele>1167.8</ele>
        <time>2021-08-07T12:25:59Z</time>
      </trkpt>
      <trkpt lat="47.9144" lon="7.04385">
        <ele>1167.8</ele>
        <time>2021-08-07T12:26:00Z</time>
      </trkpt>
      <trkpt lat="47.91434" lon="7.04389">
        <ele>1167.7</ele>
        <time>2021-08-07T12:26:02Z</time>
      </trkpt>
      <trkpt lat="47.91428" lon="7.04392">
        <ele>1167.7</ele>
        <time>2021-08-07T12:26:03Z</time>
      </trkpt>
      <trkpt lat="47.91424" lon="7.04396">
        <ele>1167.7</ele>
        <time>2021-08-07T12:26:04Z</time>
      </trkpt>
      <trkpt lat="47.91421" lon="7.04399">
        <ele>1167.6</ele>
        <time>2021-08-07T12:26:05Z</time>
      </trkpt>
      <trkpt lat="47.91419" lon="7.04402">
        <ele>1167.6</ele>
        <time>2021-08-07T12:26:06Z</time>
      </trkpt>
      <trkpt lat="47.91417" lon="7.04407">
        <ele>1167.6</ele>
        <time>2021-08-07T12:26:07Z</time>
      </trkpt>
      <trkpt lat="47.91414" lon="7.04412">
        <ele>1167.6</ele>
        <time>2021-08-07T12:26:09Z</time>
      </trkpt>
      <trkpt lat="47.91411" lon="7.04417">
        <ele>1167.6</ele>
        <time>2021-08-07T12:26:10Z</time>
      </trkpt>
      <trkpt lat="47.91406" lon="7.04423">
        <ele>1167.6</ele>
        <time>2021-08-07T12:26:11Z</time>
      </trkpt>
      <trkpt lat="47.91396" lon="7.04436">
        <ele>1167.6</ele>
        <time>2021-08-07T12:26:12Z</time>
      </trkpt>
      <trkpt lat="47.91387" lon="7.04449">
        <ele>1167.7</ele>
        <time>2021-08-07T12:26:14Z</time>
      </trkpt>
      <trkpt lat="47.91376" lon="7.04463">
        <ele>1167.7</ele>
        <time>2021-08-07T12:26:16Z</time>
      </trkpt>
      <trkpt lat="47.91373" lon="7.04469">
        <ele>1167.7</ele>
        <time>2021-08-07T12:26:17Z</time>
      </trkpt>
      <trkpt lat="47.91368" lon="7.04473">
        <ele>1167.7</ele>
        <time>2021-08-07T12:26:18Z</time>
      </trkpt>
      <trkpt lat="47.91364" lon="7.04481">
        <ele>1167.7</ele>
        <time>2021-08-07T12:26:20Z</time>
      </trkpt>
      <trkpt lat="47.9136" lon="7.0449">
        <ele>1167.7</ele>
        <time>2021-08-07T12:26:21Z</time>
      </trkpt>
      <trkpt lat="47.91357" lon="7.04495">
        <ele>1167.7</ele>
        <time>2021-08-07T12:26:22Z</time>
      </trkpt>
      <trkpt lat="47.91353" lon="7.04499">
        <ele>1167.7</ele>
        <time>2021-08-07T12:26:23Z</time>
      </trkpt>
      <trkpt lat="47.9135" lon="7.04504">
        <ele>1167.7</ele>
        <time>2021-08-07T12:26:24Z</time>
      </trkpt>
      <trkpt lat="47.91345" lon="7.04518">
        <ele>1167.8</ele>
        <time>2021-08-07T12:26:26Z</time>
      </trkpt>
      <trkpt lat="47.9134" lon="7.04528">
        <ele>1167.8</ele>
        <time>2021-08-07T12:26:28Z</time>
      </trkpt>
      <trkpt lat="47.91339" lon="7.04531">
        <ele>1167.8</ele>
        <time>2021-08-07T12:26:29Z</time>
      </trkpt>
      <trkpt lat="47.91335" lon="7.04538">
        <ele>1167.8</ele>
        <time>2021-08-07T12:26:30Z</time>
      </trkpt>
      <trkpt lat="47.91327" lon="7.0455">
        <ele>1167.7</ele>
        <time>2021-08-07T12:26:32Z</time>
      </trkpt>
      <trkpt lat="47.9132" lon="7.04562">
        <ele>1167.7</ele>
        <time>2021-08-07T12:26:34Z</time>
      </trkpt>
      <trkpt lat="47.91319" lon="7.04567">
        <ele>1167.7</ele>
        <time>2021-08-07T12:26:35Z</time>
      </trkpt>
      <trkpt lat="47.91312" lon="7.04578">
        <ele>1167.7</ele>
        <time>2021-08-07T12:26:37Z</time>
      </trkpt>
      <trkpt lat="47.91308" lon="7.04583">
        <ele>1167.7</ele>
        <time>2021-08-07T12:26:38Z</time>
      </trkpt>
      <trkpt lat="47.91302" lon="7.0459">
        <ele>1167.7</ele>
        <time>2021-08-07T12:26:40Z</time>
      </trkpt>
      <trkpt lat="47.913" lon="7.04591">
        <ele>1167.7</ele>
        <time>2021-08-07T12:26:41Z</time>
      </trkpt>
      <trkpt lat="47.91293" lon="7.04599">
        <ele>1167.7</ele>
        <time>2021-08-07T12:26:43Z</time>
      </trkpt>
      <trkpt lat="47.9129" lon="7.04604">
        <ele>1167.7</ele>
        <time>2021-08-07T12:26:44Z</time>
      </trkpt>
      <trkpt lat="47.91289" lon="7.04623">
        <ele>1167.7</ele>
        <time>2021-08-07T12:26:45Z</time>
      </trkpt>
      <trkpt lat="47.91284" lon="7.04637">
        <ele>1167.6</ele>
        <time>2021-08-07T12:26:47Z</time>
      </trkpt>
      <trkpt lat="47.91281" lon="7.04644">
        <ele>1167.6</ele>
        <time>2021-08-07T12:26:48Z</time>
      </trkpt>
      <trkpt lat="47.91278" lon="7.0465">
        <ele>1167.6</ele>
        <time>2021-08-07T12:26:49Z</time>
      </trkpt>
      <trkpt lat="47.91275" lon="7.04655">
        <ele>1167.6</ele>
        <time>2021-08-07T12:26:50Z</time>
      </trkpt>
      <trkpt lat="47.9127" lon="7.04665">
        <ele>1167.6</ele>
        <time>2021-08-07T12:26:52Z</time>
      </trkpt>
      <trkpt lat="47.91267" lon="7.04671">
        <ele>1167.5</ele>
        <time>2021-08-07T12:26:53Z</time>
      </trkpt>
      <trkpt lat="47.91263" lon="7.04675">
        <ele>1167.5</ele>
        <time>2021-08-07T12:26:54Z</time>
      </trkpt>
      <trkpt lat="47.91259" lon="7.04684">
        <ele>1167.5</ele>
        <time>2021-08-07T12:26:56Z</time>
      </trkpt>
      <trkpt lat="47.91255" lon="7.04692">
        <ele>1167.5</ele>
        <time>2021-08-07T12:26:57Z</time>
      </trkpt>
      <trkpt lat="47.91253" lon="7.04698">
        <ele>1167.5</ele>
        <time>2021-08-07T12:26:58Z</time>
      </trkpt>
      <trkpt lat="47.9125" lon="7.04705">
        <ele>1167.5</ele>
        <time>2021-08-07T12:26:59Z</time>
      </trkpt>
      <trkpt lat="47.91248" lon="7.04709">
        <ele>1167.5</ele>
        <time>2021-08-07T12:27:00Z</time>
      </trkpt>
      <trkpt lat="47.91244" lon="7.0472">
        <ele>1167.5</ele>
        <time>2021-08-07T12:27:02Z</time>
      </trkpt>
      <trkpt lat="47.91244" lon="7.04734">
        <ele>1167.5</ele>
        <time>2021-08-07T12:27:04Z</time>
      </trkpt>
      <trkpt lat="47.91243" lon="7.0474">
        <ele>1167.5</ele>
        <time>2021-08-07T12:27:05Z</time>
      </trkpt>
      <trkpt lat="47.91242" lon="7.04746">
        <ele>1167.5</ele>
        <time>2021-08-07T12:27:06Z</time>
      </trkpt>
      <trkpt lat="47.91243" lon="7.04759">
        <ele>1167.5</ele>
        <time>2021-08-07T12:27:08Z</time>
      </trkpt>
      <trkpt lat="47.91243" lon="7.04775">
        <ele>1167.4</ele>
        <time>2021-08-07T12:27:10Z</time>
      </trkpt>
      <trkpt lat="47.91243" lon="7.0479">
        <ele>1167.3</ele>
        <time>2021-08-07T12:27:12Z</time>
      </trkpt>
      <trkpt lat="47.91241" lon="7.04798">
        <ele>1167.3</ele>
        <time>2021-08-07T12:27:13Z</time>
      </trkpt>
      <trkpt lat="47.9124" lon="7.04805">
        <ele>1167.2</ele>
        <time>2021-08-07T12:27:14Z</time>
      </trkpt>
      <trkpt lat="47.91235" lon="7.04817">
        <ele>1167.1</ele>
        <time>2021-08-07T12:27:16Z</time>
      </trkpt>
      <trkpt lat="47.91232" lon="7.04822">
        <ele>1167.1</ele>
        <time>2021-08-07T12:27:17Z</time>
      </trkpt>
      <trkpt lat="47.91228" lon="7.04829">
        <ele>1167</ele>
        <time>2021-08-07T12:27:18Z</time>
      </trkpt>
      <trkpt lat="47.91221" lon="7.04842">
        <ele>1166.8</ele>
        <time>2021-08-07T12:27:20Z</time>
      </trkpt>
      <trkpt lat="47.91218" lon="7.04848">
        <ele>1166.8</ele>
        <time>2021-08-07T12:27:21Z</time>
      </trkpt>
      <trkpt lat="47.91214" lon="7.04855">
        <ele>1166.7</ele>
        <time>2021-08-07T12:27:22Z</time>
      </trkpt>
      <trkpt lat="47.91211" lon="7.04861">
        <ele>1166.7</ele>
        <time>2021-08-07T12:27:23Z</time>
      </trkpt>
      <trkpt lat="47.91207" lon="7.04867">
        <ele>1166.6</ele>
        <time>2021-08-07T12:27:24Z</time>
      </trkpt>
      <trkpt lat="47.91203" lon="7.04872">
        <ele>1166.7</ele>
        <time>2021-08-07T12:27:25Z</time>
      </trkpt>
      <trkpt lat="47.91199" lon="7.04878">
        <ele>1166.7</ele>
        <time>2021-08-07T12:27:26Z</time>
      </trkpt>
      <trkpt lat="47.91193" lon="7.04889">
        <ele>1166.7</ele>
        <time>2021-08-07T12:27:28Z</time>
      </trkpt>
      <trkpt lat="47.91185" lon="7.04901">
        <ele>1166.8</ele>
        <time>2021-08-07T12:27:30Z</time>
      </trkpt>
      <trkpt lat="47.91181" lon="7.04907">
        <ele>1166.9</ele>
        <time>2021-08-07T12:27:31Z</time>
      </trkpt>
      <trkpt lat="47.91178" lon="7.04913">
        <ele>1167</ele>
        <time>2021-08-07T12:27:32Z</time>
      </trkpt>
      <trkpt lat="47.9117" lon="7.04923">
        <ele>1167.2</ele>
        <time>2021-08-07T12:27:34Z</time>
      </trkpt>
      <trkpt lat="47.91167" lon="7.04927">
        <ele>1167.3</ele>
        <time>2021-08-07T12:27:35Z</time>
      </trkpt>
      <trkpt lat="47.91163" lon="7.04931">
        <ele>1167.4</ele>
        <time>2021-08-07T12:27:36Z</time>
      </trkpt>
      <trkpt lat="47.91159" lon="7.04935">
        <ele>1167.6</ele>
        <time>2021-08-07T12:27:37Z</time>
      </trkpt>
      <trkpt lat="47.91155" lon="7.04939">
        <ele>1167.8</ele>
        <time>2021-08-07T12:27:38Z</time>
      </trkpt>
      <trkpt lat="47.9115" lon="7.04943">
        <ele>1168.1</ele>
        <time>2021-08-07T12:27:40Z</time>
      </trkpt>
      <trkpt lat="47.91143" lon="7.04949">
        <ele>1168.4</ele>
        <time>2021-08-07T12:27:42Z</time>
      </trkpt>
      <trkpt lat="47.91138" lon="7.04951">
        <ele>1168.6</ele>
        <time>2021-08-07T12:27:43Z</time>
      </trkpt>
      <trkpt lat="47.9113" lon="7.04952">
        <ele>1168.8</ele>
        <time>2021-08-07T12:27:45Z</time>
      </trkpt>
      <trkpt lat="47.91127" lon="7.04956">
        <ele>1169</ele>
        <time>2021-08-07T12:27:46Z</time>
      </trkpt>
      <trkpt lat="47.91121" lon="7.04958">
        <ele>1169.1</ele>
        <time>2021-08-07T12:27:47Z</time>
      </trkpt>
      <trkpt lat="47.91117" lon="7.04959">
        <ele>1169.3</ele>
        <time>2021-08-07T12:27:49Z</time>
      </trkpt>
      <trkpt lat="47.91112" lon="7.04959">
        <ele>1169.3</ele>
        <time>2021-08-07T12:27:50Z</time>
      </trkpt>
      <trkpt lat="47.91108" lon="7.0496">
        <ele>1169.4</ele>
        <time>2021-08-07T12:27:51Z</time>
      </trkpt>
      <trkpt lat="47.91105" lon="7.0496">
        <ele>1169.5</ele>
        <time>2021-08-07T12:27:52Z</time>
      </trkpt>
      <trkpt lat="47.911" lon="7.04959">
        <ele>1169.5</ele>
        <time>2021-08-07T12:27:54Z</time>
      </trkpt>
      <trkpt lat="47.91096" lon="7.04957">
        <ele>1169.6</ele>
        <time>2021-08-07T12:27:55Z</time>
      </trkpt>
      <trkpt lat="47.91092" lon="7.04954">
        <ele>1169.6</ele>
        <time>2021-08-07T12:27:56Z</time>
      </trkpt>
      <trkpt lat="47.91087" lon="7.04952">
        <ele>1169.7</ele>
        <time>2021-08-07T12:27:58Z</time>
      </trkpt>
      <trkpt lat="47.91083" lon="7.0495">
        <ele>1169.8</ele>
        <time>2021-08-07T12:27:59Z</time>
      </trkpt>
      <trkpt lat="47.91075" lon="7.04948">
        <ele>1169.9</ele>
        <time>2021-08-07T12:28:01Z</time>
      </trkpt>
      <trkpt lat="47.91071" lon="7.04945">
        <ele>1169.9</ele>
        <time>2021-08-07T12:28:02Z</time>
      </trkpt>
      <trkpt lat="47.91066" lon="7.04942">
        <ele>1170</ele>
        <time>2021-08-07T12:28:03Z</time>
      </trkpt>
      <trkpt lat="47.91061" lon="7.04939">
        <ele>1170.1</ele>
        <time>2021-08-07T12:28:04Z</time>
      </trkpt>
      <trkpt lat="47.91055" lon="7.04936">
        <ele>1170.2</ele>
        <time>2021-08-07T12:28:06Z</time>
      </trkpt>
      <trkpt lat="47.91051" lon="7.04936">
        <ele>1170.3</ele>
        <time>2021-08-07T12:28:07Z</time>
      </trkpt>
      <trkpt lat="47.91048" lon="7.04938">
        <ele>1170.3</ele>
        <time>2021-08-07T12:28:08Z</time>
      </trkpt>
      <trkpt lat="47.91043" lon="7.04939">
        <ele>1170.3</ele>
        <time>2021-08-07T12:28:10Z</time>
      </trkpt>
      <trkpt lat="47.91038" lon="7.04942">
        <ele>1170.4</ele>
        <time>2021-08-07T12:28:11Z</time>
      </trkpt>
      <trkpt lat="47.91034" lon="7.04944">
        <ele>1170.4</ele>
        <time>2021-08-07T12:28:12Z</time>
      </trkpt>
      <trkpt lat="47.91031" lon="7.04946">
        <ele>1170.5</ele>
        <time>2021-08-07T12:28:13Z</time>
      </trkpt>
      <trkpt lat="47.91024" lon="7.04946">
        <ele>1170.5</ele>
        <time>2021-08-07T12:28:15Z</time>
      </trkpt>
      <trkpt lat="47.9102" lon="7.04946">
        <ele>1170.6</ele>
        <time>2021-08-07T12:28:16Z</time>
      </trkpt>
      <trkpt lat="47.91017" lon="7.04947">
        <ele>1170.6</ele>
        <time>2021-08-07T12:28:17Z</time>
      </trkpt>
      <trkpt lat="47.91014" lon="7.04949">
        <ele>1170.7</ele>
        <time>2021-08-07T12:28:18Z</time>
      </trkpt>
      <trkpt lat="47.91012" lon="7.0495">
        <ele>1170.7</ele>
        <time>2021-08-07T12:28:19Z</time>
      </trkpt>
      <trkpt lat="47.91009" lon="7.04954">
        <ele>1170.8</ele>
        <time>2021-08-07T12:28:20Z</time>
      </trkpt>
      <trkpt lat="47.91004" lon="7.04962">
        <ele>1170.9</ele>
        <time>2021-08-07T12:28:22Z</time>
      </trkpt>
      <trkpt lat="47.91001" lon="7.04968">
        <ele>1171</ele>
        <time>2021-08-07T12:28:23Z</time>
      </trkpt>
      <trkpt lat="47.90999" lon="7.04975">
        <ele>1171.1</ele>
        <time>2021-08-07T12:28:24Z</time>
      </trkpt>
      <trkpt lat="47.90996" lon="7.04986">
        <ele>1171.2</ele>
        <time>2021-08-07T12:28:25Z</time>
      </trkpt>
      <trkpt lat="47.90993" lon="7.04991">
        <ele>1171.3</ele>
        <time>2021-08-07T12:28:27Z</time>
      </trkpt>
      <trkpt lat="47.9099" lon="7.04996">
        <ele>1171.4</ele>
        <time>2021-08-07T12:28:28Z</time>
      </trkpt>
      <trkpt lat="47.90988" lon="7.05004">
        <ele>1171.5</ele>
        <time>2021-08-07T12:28:29Z</time>
      </trkpt>
      <trkpt lat="47.90988" lon="7.05011">
        <ele>1171.6</ele>
        <time>2021-08-07T12:28:30Z</time>
      </trkpt>
      <trkpt lat="47.90989" lon="7.05019">
        <ele>1171.7</ele>
        <time>2021-08-07T12:28:31Z</time>
      </trkpt>
      <trkpt lat="47.90989" lon="7.05024">
        <ele>1171.7</ele>
        <time>2021-08-07T12:28:33Z</time>
      </trkpt>
      <trkpt lat="47.9099" lon="7.0503">
        <ele>1171.7</ele>
        <time>2021-08-07T12:28:34Z</time>
      </trkpt>
      <trkpt lat="47.9099" lon="7.05037">
        <ele>1171.8</ele>
        <time>2021-08-07T12:28:35Z</time>
      </trkpt>
      <trkpt lat="47.90991" lon="7.05043">
        <ele>1171.8</ele>
        <time>2021-08-07T12:28:36Z</time>
      </trkpt>
      <trkpt lat="47.90992" lon="7.0505">
        <ele>1171.8</ele>
        <time>2021-08-07T12:28:37Z</time>
      </trkpt>
      <trkpt lat="47.90994" lon="7.05056">
        <ele>1171.8</ele>
        <time>2021-08-07T12:28:38Z</time>
      </trkpt>
      <trkpt lat="47.90994" lon="7.05061">
        <ele>1171.8</ele>
        <time>2021-08-07T12:28:39Z</time>
      </trkpt>
      <trkpt lat="47.90994" lon="7.05069">
        <ele>1171.8</ele>
        <time>2021-08-07T12:28:41Z</time>
      </trkpt>
      <trkpt lat="47.90994" lon="7.05074">
        <ele>1171.8</ele>
        <time>2021-08-07T12:28:42Z</time>
      </trkpt>
      <trkpt lat="47.90994" lon="7.0508">
        <ele>1171.8</ele>
        <time>2021-08-07T12:28:43Z</time>
      </trkpt>
      <trkpt lat="47.90995" lon="7.05085">
        <ele>1171.8</ele>
        <time>2021-08-07T12:28:44Z</time>
      </trkpt>
      <trkpt lat="47.90996" lon="7.0509">
        <ele>1171.7</ele>
        <time>2021-08-07T12:28:45Z</time>
      </trkpt>
      <trkpt lat="47.90996" lon="7.05093">
        <ele>1171.7</ele>
        <time>2021-08-07T12:28:46Z</time>
      </trkpt>
      <trkpt lat="47.90998" lon="7.05097">
        <ele>1171.8</ele>
        <time>2021-08-07T12:28:47Z</time>
      </trkpt>
      <trkpt lat="47.91001" lon="7.05102">
        <ele>1171.8</ele>
        <time>2021-08-07T12:28:49Z</time>
      </trkpt>
      <trkpt lat="47.91004" lon="7.05105">
        <ele>1171.8</ele>
        <time>2021-08-07T12:28:50Z</time>
      </trkpt>
      <trkpt lat="47.91009" lon="7.05111">
        <ele>1171.8</ele>
        <time>2021-08-07T12:28:51Z</time>
      </trkpt>
      <trkpt lat="47.91008" lon="7.05117">
        <ele>1171.9</ele>
        <time>2021-08-07T12:28:53Z</time>
      </trkpt>
      <trkpt lat="47.91014" lon="7.05126">
        <ele>1172</ele>
        <time>2021-08-07T12:28:54Z</time>
      </trkpt>
      <trkpt lat="47.91019" lon="7.05135">
        <ele>1172</ele>
        <time>2021-08-07T12:28:56Z</time>
      </trkpt>
      <trkpt lat="47.91022" lon="7.05144">
        <ele>1172.1</ele>
        <time>2021-08-07T12:28:57Z</time>
      </trkpt>
      <trkpt lat="47.91026" lon="7.0515">
        <ele>1172.2</ele>
        <time>2021-08-07T12:28:58Z</time>
      </trkpt>
      <trkpt lat="47.9103" lon="7.05156">
        <ele>1172.3</ele>
        <time>2021-08-07T12:28:59Z</time>
      </trkpt>
      <trkpt lat="47.91035" lon="7.05165">
        <ele>1172.4</ele>
        <time>2021-08-07T12:29:01Z</time>
      </trkpt>
      <trkpt lat="47.91039" lon="7.05174">
        <ele>1172.5</ele>
        <time>2021-08-07T12:29:03Z</time>
      </trkpt>
      <trkpt lat="47.91042" lon="7.05181">
        <ele>1172.6</ele>
        <time>2021-08-07T12:29:04Z</time>
      </trkpt>
      <trkpt lat="47.91045" lon="7.05185">
        <ele>1172.6</ele>
        <time>2021-08-07T12:29:05Z</time>
      </trkpt>
      <trkpt lat="47.91048" lon="7.05188">
        <ele>1172.7</ele>
        <time>2021-08-07T12:29:06Z</time>
      </trkpt>
      <trkpt lat="47.9105" lon="7.05195">
        <ele>1172.8</ele>
        <time>2021-08-07T12:29:07Z</time>
      </trkpt>
      <trkpt lat="47.91051" lon="7.052">
        <ele>1172.8</ele>
        <time>2021-08-07T12:29:08Z</time>
      </trkpt>
      <trkpt lat="47.91051" lon="7.05206">
        <ele>1172.9</ele>
        <time>2021-08-07T12:29:09Z</time>
      </trkpt>
      <trkpt lat="47.91051" lon="7.05213">
        <ele>1173</ele>
        <time>2021-08-07T12:29:10Z</time>
      </trkpt>
      <trkpt lat="47.9105" lon="7.05219">
        <ele>1173.1</ele>
        <time>2021-08-07T12:29:12Z</time>
      </trkpt>
      <trkpt lat="47.91049" lon="7.05225">
        <ele>1173.2</ele>
        <time>2021-08-07T12:29:13Z</time>
      </trkpt>
      <trkpt lat="47.91047" lon="7.05232">
        <ele>1173.3</ele>
        <time>2021-08-07T12:29:14Z</time>
      </trkpt>
      <trkpt lat="47.91046" lon="7.05238">
        <ele>1173.5</ele>
        <time>2021-08-07T12:29:15Z</time>
      </trkpt>
      <trkpt lat="47.91045" lon="7.05244">
        <ele>1173.6</ele>
        <time>2021-08-07T12:29:17Z</time>
      </trkpt>
      <trkpt lat="47.91043" lon="7.05249">
        <ele>1173.7</ele>
        <time>2021-08-07T12:29:18Z</time>
      </trkpt>
      <trkpt lat="47.91041" lon="7.05252">
        <ele>1173.7</ele>
        <time>2021-08-07T12:29:19Z</time>
      </trkpt>
      <trkpt lat="47.91039" lon="7.05256">
        <ele>1173.8</ele>
        <time>2021-08-07T12:29:20Z</time>
      </trkpt>
      <trkpt lat="47.91037" lon="7.05265">
        <ele>1173.9</ele>
        <time>2021-08-07T12:29:22Z</time>
      </trkpt>
      <trkpt lat="47.91035" lon="7.0527">
        <ele>1174</ele>
        <time>2021-08-07T12:29:23Z</time>
      </trkpt>
      <trkpt lat="47.91032" lon="7.05274">
        <ele>1174.1</ele>
        <time>2021-08-07T12:29:24Z</time>
      </trkpt>
      <trkpt lat="47.91029" lon="7.05281">
        <ele>1174.1</ele>
        <time>2021-08-07T12:29:25Z</time>
      </trkpt>
      <trkpt lat="47.91027" lon="7.05286">
        <ele>1174.2</ele>
        <time>2021-08-07T12:29:26Z</time>
      </trkpt>
      <trkpt lat="47.91026" lon="7.05291">
        <ele>1174.2</ele>
        <time>2021-08-07T12:29:27Z</time>
      </trkpt>
      <trkpt lat="47.91025" lon="7.05297">
        <ele>1174.3</ele>
        <time>2021-08-07T12:29:28Z</time>
      </trkpt>
      <trkpt lat="47.91024" lon="7.05303">
        <ele>1174.3</ele>
        <time>2021-08-07T12:29:29Z</time>
      </trkpt>
      <trkpt lat="47.91023" lon="7.05309">
        <ele>1174.4</ele>
        <time>2021-08-07T12:29:30Z</time>
      </trkpt>
      <trkpt lat="47.9102" lon="7.05319">
        <ele>1174.4</ele>
        <time>2021-08-07T12:29:32Z</time>
      </trkpt>
      <trkpt lat="47.91018" lon="7.05318">
        <ele>1174.4</ele>
        <time>2021-08-07T12:29:33Z</time>
      </trkpt>
      <trkpt lat="47.91016" lon="7.05327">
        <ele>1174.5</ele>
        <time>2021-08-07T12:29:35Z</time>
      </trkpt>
      <trkpt lat="47.91013" lon="7.0534">
        <ele>1174.6</ele>
        <time>2021-08-07T12:29:36Z</time>
      </trkpt>
      <trkpt lat="47.91009" lon="7.05351">
        <ele>1174.7</ele>
        <time>2021-08-07T12:29:38Z</time>
      </trkpt>
      <trkpt lat="47.91009" lon="7.05358">
        <ele>1174.8</ele>
        <time>2021-08-07T12:29:39Z</time>
      </trkpt>
      <trkpt lat="47.91009" lon="7.05368">
        <ele>1174.9</ele>
        <time>2021-08-07T12:29:40Z</time>
      </trkpt>
      <trkpt lat="47.9101" lon="7.05378">
        <ele>1175.1</ele>
        <time>2021-08-07T12:29:42Z</time>
      </trkpt>
      <trkpt lat="47.91009" lon="7.05385">
        <ele>1175.2</ele>
        <time>2021-08-07T12:29:43Z</time>
      </trkpt>
      <trkpt lat="47.91009" lon="7.0539">
        <ele>1175.3</ele>
        <time>2021-08-07T12:29:45Z</time>
      </trkpt>
      <trkpt lat="47.91007" lon="7.05395">
        <ele>1175.4</ele>
        <time>2021-08-07T12:29:46Z</time>
      </trkpt>
      <trkpt lat="47.91005" lon="7.05401">
        <ele>1175.5</ele>
        <time>2021-08-07T12:29:47Z</time>
      </trkpt>
      <trkpt lat="47.91002" lon="7.05408">
        <ele>1175.7</ele>
        <time>2021-08-07T12:29:49Z</time>
      </trkpt>
      <trkpt lat="47.91001" lon="7.05414">
        <ele>1175.8</ele>
        <time>2021-08-07T12:29:50Z</time>
      </trkpt>
      <trkpt lat="47.90999" lon="7.05422">
        <ele>1176.1</ele>
        <time>2021-08-07T12:29:51Z</time>
      </trkpt>
      <trkpt lat="47.90998" lon="7.05431">
        <ele>1176.3</ele>
        <time>2021-08-07T12:29:53Z</time>
      </trkpt>
      <trkpt lat="47.90999" lon="7.05444">
        <ele>1176.8</ele>
        <time>2021-08-07T12:29:55Z</time>
      </trkpt>
      <trkpt lat="47.91" lon="7.05451">
        <ele>1177</ele>
        <time>2021-08-07T12:29:56Z</time>
      </trkpt>
      <trkpt lat="47.91001" lon="7.05462">
        <ele>1177.4</ele>
        <time>2021-08-07T12:29:58Z</time>
      </trkpt>
      <trkpt lat="47.91004" lon="7.05459">
        <ele>1177.5</ele>
        <time>2021-08-07T12:29:59Z</time>
      </trkpt>
      <trkpt lat="47.91005" lon="7.0546">
        <ele>1177.6</ele>
        <time>2021-08-07T12:30:00Z</time>
      </trkpt>
      <trkpt lat="47.9101" lon="7.05467">
        <ele>1178</ele>
        <time>2021-08-07T12:30:02Z</time>
      </trkpt>
      <trkpt lat="47.91011" lon="7.05476">
        <ele>1178.2</ele>
        <time>2021-08-07T12:30:03Z</time>
      </trkpt>
      <trkpt lat="47.91012" lon="7.05486">
        <ele>1178.4</ele>
        <time>2021-08-07T12:30:05Z</time>
      </trkpt>
      <trkpt lat="47.91011" lon="7.0549">
        <ele>1178.5</ele>
        <time>2021-08-07T12:30:06Z</time>
      </trkpt>
      <trkpt lat="47.91008" lon="7.05498">
        <ele>1178.6</ele>
        <time>2021-08-07T12:30:08Z</time>
      </trkpt>
      <trkpt lat="47.91005" lon="7.05503">
        <ele>1178.7</ele>
        <time>2021-08-07T12:30:10Z</time>
      </trkpt>
      <trkpt lat="47.91002" lon="7.05508">
        <ele>1178.7</ele>
        <time>2021-08-07T12:30:11Z</time>
      </trkpt>
      <trkpt lat="47.91001" lon="7.05512">
        <ele>1178.7</ele>
        <time>2021-08-07T12:30:13Z</time>
      </trkpt>
      <trkpt lat="47.91" lon="7.05517">
        <ele>1178.7</ele>
        <time>2021-08-07T12:30:14Z</time>
      </trkpt>
      <trkpt lat="47.91" lon="7.05527">
        <ele>1178.7</ele>
        <time>2021-08-07T12:30:15Z</time>
      </trkpt>
      <trkpt lat="47.91002" lon="7.0554">
        <ele>1178.6</ele>
        <time>2021-08-07T12:30:16Z</time>
      </trkpt>
      <trkpt lat="47.91004" lon="7.0555">
        <ele>1178.7</ele>
        <time>2021-08-07T12:30:18Z</time>
      </trkpt>
      <trkpt lat="47.91004" lon="7.05571">
        <ele>1178.8</ele>
        <time>2021-08-07T12:30:20Z</time>
      </trkpt>
      <trkpt lat="47.91004" lon="7.05579">
        <ele>1178.9</ele>
        <time>2021-08-07T12:30:21Z</time>
      </trkpt>
      <trkpt lat="47.91005" lon="7.05588">
        <ele>1179.1</ele>
        <time>2021-08-07T12:30:22Z</time>
      </trkpt>
      <trkpt lat="47.91008" lon="7.05605">
        <ele>1179.5</ele>
        <time>2021-08-07T12:30:24Z</time>
      </trkpt>
      <trkpt lat="47.91011" lon="7.05615">
        <ele>1179.8</ele>
        <time>2021-08-07T12:30:25Z</time>
      </trkpt>
      <trkpt lat="47.91016" lon="7.05619">
        <ele>1180</ele>
        <time>2021-08-07T12:30:27Z</time>
      </trkpt>
      <trkpt lat="47.91019" lon="7.05627">
        <ele>1180.2</ele>
        <time>2021-08-07T12:30:29Z</time>
      </trkpt>
      <trkpt lat="47.9102" lon="7.05631">
        <ele>1180.2</ele>
        <time>2021-08-07T12:30:30Z</time>
      </trkpt>
      <trkpt lat="47.91023" lon="7.05639">
        <ele>1180.4</ele>
        <time>2021-08-07T12:30:31Z</time>
      </trkpt>
      <trkpt lat="47.91025" lon="7.05644">
        <ele>1180.4</ele>
        <time>2021-08-07T12:30:33Z</time>
      </trkpt>
      <trkpt lat="47.91026" lon="7.05648">
        <ele>1180.5</ele>
        <time>2021-08-07T12:30:34Z</time>
      </trkpt>
      <trkpt lat="47.91028" lon="7.05654">
        <ele>1180.5</ele>
        <time>2021-08-07T12:30:35Z</time>
      </trkpt>
      <trkpt lat="47.91029" lon="7.0566">
        <ele>1180.5</ele>
        <time>2021-08-07T12:30:36Z</time>
      </trkpt>
      <trkpt lat="47.91031" lon="7.05666">
        <ele>1180.5</ele>
        <time>2021-08-07T12:30:37Z</time>
      </trkpt>
      <trkpt lat="47.91032" lon="7.05671">
        <ele>1180.5</ele>
        <time>2021-08-07T12:30:39Z</time>
      </trkpt>
      <trkpt lat="47.91033" lon="7.05676">
        <ele>1180.4</ele>
        <time>2021-08-07T12:30:40Z</time>
      </trkpt>
      <trkpt lat="47.91034" lon="7.05682">
        <ele>1180.4</ele>
        <time>2021-08-07T12:30:41Z</time>
      </trkpt>
      <trkpt lat="47.91034" lon="7.05689">
        <ele>1180.3</ele>
        <time>2021-08-07T12:30:43Z</time>
      </trkpt>
      <trkpt lat="47.91035" lon="7.05694">
        <ele>1180.3</ele>
        <time>2021-08-07T12:30:44Z</time>
      </trkpt>
      <trkpt lat="47.91035" lon="7.05703">
        <ele>1180.2</ele>
        <time>2021-08-07T12:30:45Z</time>
      </trkpt>
      <trkpt lat="47.91039" lon="7.0571">
        <ele>1180.1</ele>
        <time>2021-08-07T12:30:47Z</time>
      </trkpt>
      <trkpt lat="47.91041" lon="7.05716">
        <ele>1180.1</ele>
        <time>2021-08-07T12:30:48Z</time>
      </trkpt>
      <trkpt lat="47.91042" lon="7.05727">
        <ele>1180.1</ele>
        <time>2021-08-07T12:30:50Z</time>
      </trkpt>
      <trkpt lat="47.9104" lon="7.05731">
        <ele>1180.1</ele>
        <time>2021-08-07T12:30:51Z</time>
      </trkpt>
      <trkpt lat="47.91041" lon="7.05743">
        <ele>1180.1</ele>
        <time>2021-08-07T12:30:53Z</time>
      </trkpt>
      <trkpt lat="47.91042" lon="7.05748">
        <ele>1180.2</ele>
        <time>2021-08-07T12:30:54Z</time>
      </trkpt>
      <trkpt lat="47.91043" lon="7.05752">
        <ele>1180.2</ele>
        <time>2021-08-07T12:30:55Z</time>
      </trkpt>
      <trkpt lat="47.91043" lon="7.05761">
        <ele>1180.2</ele>
        <time>2021-08-07T12:30:56Z</time>
      </trkpt>
      <trkpt lat="47.91043" lon="7.05769">
        <ele>1180.3</ele>
        <time>2021-08-07T12:30:58Z</time>
      </trkpt>
      <trkpt lat="47.91042" lon="7.05775">
        <ele>1180.3</ele>
        <time>2021-08-07T12:30:59Z</time>
      </trkpt>
      <trkpt lat="47.91042" lon="7.05779">
        <ele>1180.4</ele>
        <time>2021-08-07T12:31:00Z</time>
      </trkpt>
      <trkpt lat="47.91042" lon="7.05785">
        <ele>1180.4</ele>
        <time>2021-08-07T12:31:01Z</time>
      </trkpt>
      <trkpt lat="47.9104" lon="7.05798">
        <ele>1180.5</ele>
        <time>2021-08-07T12:31:03Z</time>
      </trkpt>
      <trkpt lat="47.9104" lon="7.05802">
        <ele>1180.5</ele>
        <time>2021-08-07T12:31:04Z</time>
      </trkpt>
      <trkpt lat="47.91042" lon="7.05805">
        <ele>1180.5</ele>
        <time>2021-08-07T12:31:05Z</time>
      </trkpt>
      <trkpt lat="47.91041" lon="7.05819">
        <ele>1180.6</ele>
        <time>2021-08-07T12:31:07Z</time>
      </trkpt>
      <trkpt lat="47.9104" lon="7.05825">
        <ele>1180.7</ele>
        <time>2021-08-07T12:31:08Z</time>
      </trkpt>
      <trkpt lat="47.91038" lon="7.05836">
        <ele>1180.7</ele>
        <time>2021-08-07T12:31:10Z</time>
      </trkpt>
      <trkpt lat="47.91037" lon="7.05839">
        <ele>1180.7</ele>
        <time>2021-08-07T12:31:11Z</time>
      </trkpt>
      <trkpt lat="47.91037" lon="7.05841">
        <ele>1180.8</ele>
        <time>2021-08-07T12:31:13Z</time>
      </trkpt>
      <trkpt lat="47.91038" lon="7.05845">
        <ele>1180.8</ele>
        <time>2021-08-07T12:31:15Z</time>
      </trkpt>
      <trkpt lat="47.9104" lon="7.05851">
        <ele>1180.8</ele>
        <time>2021-08-07T12:31:17Z</time>
      </trkpt>
      <trkpt lat="47.91042" lon="7.05857">
        <ele>1180.8</ele>
        <time>2021-08-07T12:31:18Z</time>
      </trkpt>
      <trkpt lat="47.91044" lon="7.05861">
        <ele>1180.8</ele>
        <time>2021-08-07T12:31:20Z</time>
      </trkpt>
      <trkpt lat="47.91068" lon="7.05906">
        <ele>1180.6</ele>
        <time>2021-08-07T12:31:24Z</time>
      </trkpt>
      <trkpt lat="47.91074" lon="7.05917">
        <ele>1180.6</ele>
        <time>2021-08-07T12:31:25Z</time>
      </trkpt>
      <trkpt lat="47.91084" lon="7.05935">
        <ele>1180.6</ele>
        <time>2021-08-07T12:31:27Z</time>
      </trkpt>
      <trkpt lat="47.91087" lon="7.05942">
        <ele>1180.6</ele>
        <time>2021-08-07T12:31:28Z</time>
      </trkpt>
      <trkpt lat="47.91089" lon="7.05947">
        <ele>1180.6</ele>
        <time>2021-08-07T12:31:29Z</time>
      </trkpt>
      <trkpt lat="47.91088" lon="7.05951">
        <ele>1180.7</ele>
        <time>2021-08-07T12:31:30Z</time>
      </trkpt>
      <trkpt lat="47.91087" lon="7.05953">
        <ele>1180.7</ele>
        <time>2021-08-07T12:31:31Z</time>
      </trkpt>
      <trkpt lat="47.9109" lon="7.05961">
        <ele>1180.8</ele>
        <time>2021-08-07T12:31:33Z</time>
      </trkpt>
      <trkpt lat="47.91094" lon="7.05968">
        <ele>1180.9</ele>
        <time>2021-08-07T12:31:34Z</time>
      </trkpt>
      <trkpt lat="47.91098" lon="7.0598">
        <ele>1181</ele>
        <time>2021-08-07T12:31:36Z</time>
      </trkpt>
      <trkpt lat="47.91101" lon="7.0599">
        <ele>1181.2</ele>
        <time>2021-08-07T12:31:37Z</time>
      </trkpt>
      <trkpt lat="47.91104" lon="7.05997">
        <ele>1181.3</ele>
        <time>2021-08-07T12:31:38Z</time>
      </trkpt>
      <trkpt lat="47.91108" lon="7.06005">
        <ele>1181.5</ele>
        <time>2021-08-07T12:31:40Z</time>
      </trkpt>
      <trkpt lat="47.91113" lon="7.06011">
        <ele>1181.6</ele>
        <time>2021-08-07T12:31:41Z</time>
      </trkpt>
      <trkpt lat="47.91116" lon="7.06016">
        <ele>1181.7</ele>
        <time>2021-08-07T12:31:42Z</time>
      </trkpt>
      <trkpt lat="47.91118" lon="7.06019">
        <ele>1181.8</ele>
        <time>2021-08-07T12:31:43Z</time>
      </trkpt>
      <trkpt lat="47.91122" lon="7.06022">
        <ele>1181.9</ele>
        <time>2021-08-07T12:31:45Z</time>
      </trkpt>
      <trkpt lat="47.91126" lon="7.06037">
        <ele>1182.1</ele>
        <time>2021-08-07T12:31:47Z</time>
      </trkpt>
      <trkpt lat="47.91126" lon="7.06045">
        <ele>1182.2</ele>
        <time>2021-08-07T12:31:48Z</time>
      </trkpt>
      <trkpt lat="47.91128" lon="7.06054">
        <ele>1182.3</ele>
        <time>2021-08-07T12:31:49Z</time>
      </trkpt>
      <trkpt lat="47.91127" lon="7.06061">
        <ele>1182.4</ele>
        <time>2021-08-07T12:31:51Z</time>
      </trkpt>
      <trkpt lat="47.91125" lon="7.06067">
        <ele>1182.5</ele>
        <time>2021-08-07T12:31:52Z</time>
      </trkpt>
      <trkpt lat="47.91124" lon="7.0607">
        <ele>1182.6</ele>
        <time>2021-08-07T12:31:53Z</time>
      </trkpt>
      <trkpt lat="47.91122" lon="7.06074">
        <ele>1182.6</ele>
        <time>2021-08-07T12:31:55Z</time>
      </trkpt>
      <trkpt lat="47.91121" lon="7.06074">
        <ele>1182.6</ele>
        <time>2021-08-07T12:31:56Z</time>
      </trkpt>
      <trkpt lat="47.9112" lon="7.06074">
        <ele>1182.7</ele>
        <time>2021-08-07T12:31:58Z</time>
      </trkpt>
      <trkpt lat="47.91119" lon="7.06074">
        <ele>1182.7</ele>
        <time>2021-08-07T12:31:59Z</time>
      </trkpt>
      <trkpt lat="47.91118" lon="7.06075">
        <ele>1182.7</ele>
        <time>2021-08-07T12:32:00Z</time>
      </trkpt>
      <trkpt lat="47.91117" lon="7.06077">
        <ele>1182.8</ele>
        <time>2021-08-07T12:32:01Z</time>
      </trkpt>
      <trkpt lat="47.91117" lon="7.06078">
        <ele>1182.8</ele>
        <time>2021-08-07T12:32:03Z</time>
      </trkpt>
      <trkpt lat="47.91117" lon="7.06079">
        <ele>1182.8</ele>
        <time>2021-08-07T12:32:04Z</time>
      </trkpt>
      <trkpt lat="47.91116" lon="7.0608">
        <ele>1182.8</ele>
        <time>2021-08-07T12:32:05Z</time>
      </trkpt>
      <trkpt lat="47.91104" lon="7.0624">
        <ele>1184.6</ele>
        <time>2021-08-07T12:32:37Z</time>
      </trkpt>
      <trkpt lat="47.91102" lon="7.06262">
        <ele>1184.6</ele>
        <time>2021-08-07T12:32:38Z</time>
      </trkpt>
      <trkpt lat="47.91103" lon="7.06275">
        <ele>1184.7</ele>
        <time>2021-08-07T12:32:39Z</time>
      </trkpt>
      <trkpt lat="47.91103" lon="7.06287">
        <ele>1184.6</ele>
        <time>2021-08-07T12:32:41Z</time>
      </trkpt>
      <trkpt lat="47.91101" lon="7.06308">
        <ele>1184.6</ele>
        <time>2021-08-07T12:32:43Z</time>
      </trkpt>
      <trkpt lat="47.911" lon="7.06313">
        <ele>1184.5</ele>
        <time>2021-08-07T12:32:44Z</time>
      </trkpt>
      <trkpt lat="47.91099" lon="7.06316">
        <ele>1184.5</ele>
        <time>2021-08-07T12:32:45Z</time>
      </trkpt>
      <trkpt lat="47.91098" lon="7.06318">
        <ele>1184.5</ele>
        <time>2021-08-07T12:32:46Z</time>
      </trkpt>
      <trkpt lat="47.91098" lon="7.06319">
        <ele>1184.5</ele>
        <time>2021-08-07T12:32:47Z</time>
      </trkpt>
      <trkpt lat="47.91094" lon="7.06335">
        <ele>1184.5</ele>
        <time>2021-08-07T12:32:48Z</time>
      </trkpt>
      <trkpt lat="47.91089" lon="7.0635">
        <ele>1184.5</ele>
        <time>2021-08-07T12:32:50Z</time>
      </trkpt>
      <trkpt lat="47.91083" lon="7.06365">
        <ele>1184.5</ele>
        <time>2021-08-07T12:32:51Z</time>
      </trkpt>
      <trkpt lat="47.91076" lon="7.06377">
        <ele>1184.4</ele>
        <time>2021-08-07T12:32:53Z</time>
      </trkpt>
      <trkpt lat="47.91073" lon="7.0638">
        <ele>1184.4</ele>
        <time>2021-08-07T12:32:54Z</time>
      </trkpt>
      <trkpt lat="47.91069" lon="7.06384">
        <ele>1184.4</ele>
        <time>2021-08-07T12:32:57Z</time>
      </trkpt>
      <trkpt lat="47.91068" lon="7.06384">
        <ele>1184.4</ele>
        <time>2021-08-07T12:32:58Z</time>
      </trkpt>
      <trkpt lat="47.91066" lon="7.06388">
        <ele>1184.4</ele>
        <time>2021-08-07T12:33:00Z</time>
      </trkpt>
      <trkpt lat="47.91051" lon="7.06448">
        <ele>1185.1</ele>
        <time>2021-08-07T12:33:02Z</time>
      </trkpt>
      <trkpt lat="47.91042" lon="7.06463">
        <ele>1185.4</ele>
        <time>2021-08-07T12:33:04Z</time>
      </trkpt>
      <trkpt lat="47.91039" lon="7.06472">
        <ele>1185.5</ele>
        <time>2021-08-07T12:33:05Z</time>
      </trkpt>
      <trkpt lat="47.91036" lon="7.06477">
        <ele>1185.7</ele>
        <time>2021-08-07T12:33:06Z</time>
      </trkpt>
      <trkpt lat="47.91033" lon="7.0648">
        <ele>1185.7</ele>
        <time>2021-08-07T12:33:07Z</time>
      </trkpt>
      <trkpt lat="47.9103" lon="7.06486">
        <ele>1185.9</ele>
        <time>2021-08-07T12:33:08Z</time>
      </trkpt>
      <trkpt lat="47.91028" lon="7.0649">
        <ele>1185.9</ele>
        <time>2021-08-07T12:33:09Z</time>
      </trkpt>
      <trkpt lat="47.91026" lon="7.06495">
        <ele>1186</ele>
        <time>2021-08-07T12:33:10Z</time>
      </trkpt>
      <trkpt lat="47.91025" lon="7.065">
        <ele>1186.1</ele>
        <time>2021-08-07T12:33:12Z</time>
      </trkpt>
      <trkpt lat="47.91022" lon="7.06506">
        <ele>1186.2</ele>
        <time>2021-08-07T12:33:14Z</time>
      </trkpt>
      <trkpt lat="47.9102" lon="7.0651">
        <ele>1186.3</ele>
        <time>2021-08-07T12:33:15Z</time>
      </trkpt>
      <trkpt lat="47.91017" lon="7.06512">
        <ele>1186.3</ele>
        <time>2021-08-07T12:33:16Z</time>
      </trkpt>
      <trkpt lat="47.91014" lon="7.06515">
        <ele>1186.4</ele>
        <time>2021-08-07T12:33:17Z</time>
      </trkpt>
      <trkpt lat="47.91011" lon="7.06519">
        <ele>1186.5</ele>
        <time>2021-08-07T12:33:18Z</time>
      </trkpt>
      <trkpt lat="47.91009" lon="7.06524">
        <ele>1186.5</ele>
        <time>2021-08-07T12:33:19Z</time>
      </trkpt>
      <trkpt lat="47.91006" lon="7.06528">
        <ele>1186.6</ele>
        <time>2021-08-07T12:33:20Z</time>
      </trkpt>
      <trkpt lat="47.91004" lon="7.06531">
        <ele>1186.7</ele>
        <time>2021-08-07T12:33:21Z</time>
      </trkpt>
      <trkpt lat="47.91001" lon="7.06536">
        <ele>1186.7</ele>
        <time>2021-08-07T12:33:23Z</time>
      </trkpt>
      <trkpt lat="47.90998" lon="7.06541">
        <ele>1186.8</ele>
        <time>2021-08-07T12:33:24Z</time>
      </trkpt>
      <trkpt lat="47.90996" lon="7.06545">
        <ele>1186.8</ele>
        <time>2021-08-07T12:33:25Z</time>
      </trkpt>
      <trkpt lat="47.90991" lon="7.06551">
        <ele>1186.9</ele>
        <time>2021-08-07T12:33:26Z</time>
      </trkpt>
      <trkpt lat="47.90988" lon="7.06556">
        <ele>1186.9</ele>
        <time>2021-08-07T12:33:27Z</time>
      </trkpt>
      <trkpt lat="47.90985" lon="7.06559">
        <ele>1187</ele>
        <time>2021-08-07T12:33:28Z</time>
      </trkpt>
      <trkpt lat="47.90981" lon="7.06564">
        <ele>1186.9</ele>
        <time>2021-08-07T12:33:30Z</time>
      </trkpt>
      <trkpt lat="47.90978" lon="7.06567">
        <ele>1186.7</ele>
        <time>2021-08-07T12:33:31Z</time>
      </trkpt>
      <trkpt lat="47.90973" lon="7.06571">
        <ele>1186.4</ele>
        <time>2021-08-07T12:33:32Z</time>
      </trkpt>
      <trkpt lat="47.90968" lon="7.06575">
        <ele>1186.1</ele>
        <time>2021-08-07T12:33:34Z</time>
      </trkpt>
      <trkpt lat="47.90963" lon="7.06581">
        <ele>1185.8</ele>
        <time>2021-08-07T12:33:35Z</time>
      </trkpt>
      <trkpt lat="47.90954" lon="7.06591">
        <ele>1185.2</ele>
        <time>2021-08-07T12:33:37Z</time>
      </trkpt>
      <trkpt lat="47.90949" lon="7.06595">
        <ele>1185</ele>
        <time>2021-08-07T12:33:38Z</time>
      </trkpt>
      <trkpt lat="47.90942" lon="7.06606">
        <ele>1184.5</ele>
        <time>2021-08-07T12:33:40Z</time>
      </trkpt>
      <trkpt lat="47.90937" lon="7.0661">
        <ele>1184.2</ele>
        <time>2021-08-07T12:33:41Z</time>
      </trkpt>
      <trkpt lat="47.90928" lon="7.06619">
        <ele>1183.6</ele>
        <time>2021-08-07T12:33:43Z</time>
      </trkpt>
      <trkpt lat="47.90923" lon="7.06623">
        <ele>1183.2</ele>
        <time>2021-08-07T12:33:44Z</time>
      </trkpt>
      <trkpt lat="47.90918" lon="7.06628">
        <ele>1182.9</ele>
        <time>2021-08-07T12:33:45Z</time>
      </trkpt>
      <trkpt lat="47.90908" lon="7.06637">
        <ele>1182.2</ele>
        <time>2021-08-07T12:33:47Z</time>
      </trkpt>
      <trkpt lat="47.90899" lon="7.06644">
        <ele>1181.5</ele>
        <time>2021-08-07T12:33:49Z</time>
      </trkpt>
      <trkpt lat="47.90893" lon="7.06645">
        <ele>1181.2</ele>
        <time>2021-08-07T12:33:50Z</time>
      </trkpt>
      <trkpt lat="47.90884" lon="7.06647">
        <ele>1180.6</ele>
        <time>2021-08-07T12:33:52Z</time>
      </trkpt>
      <trkpt lat="47.90879" lon="7.06647">
        <ele>1180.3</ele>
        <time>2021-08-07T12:33:53Z</time>
      </trkpt>
      <trkpt lat="47.90869" lon="7.06643">
        <ele>1179</ele>
        <time>2021-08-07T12:33:55Z</time>
      </trkpt>
      <trkpt lat="47.90864" lon="7.06642">
        <ele>1178.3</ele>
        <time>2021-08-07T12:33:56Z</time>
      </trkpt>
      <trkpt lat="47.90859" lon="7.06641">
        <ele>1177.7</ele>
        <time>2021-08-07T12:33:57Z</time>
      </trkpt>
      <trkpt lat="47.90849" lon="7.0664">
        <ele>1176.6</ele>
        <time>2021-08-07T12:33:59Z</time>
      </trkpt>
      <trkpt lat="47.90837" lon="7.06638">
        <ele>1175.3</ele>
        <time>2021-08-07T12:34:01Z</time>
      </trkpt>
      <trkpt lat="47.90826" lon="7.06638">
        <ele>1174.3</ele>
        <time>2021-08-07T12:34:03Z</time>
      </trkpt>
      <trkpt lat="47.90815" lon="7.06637">
        <ele>1173.2</ele>
        <time>2021-08-07T12:34:05Z</time>
      </trkpt>
      <trkpt lat="47.90804" lon="7.06633">
        <ele>1172.1</ele>
        <time>2021-08-07T12:34:07Z</time>
      </trkpt>
      <trkpt lat="47.90799" lon="7.06632">
        <ele>1171.6</ele>
        <time>2021-08-07T12:34:08Z</time>
      </trkpt>
      <trkpt lat="47.90796" lon="7.06631">
        <ele>1171.3</ele>
        <time>2021-08-07T12:34:09Z</time>
      </trkpt>
      <trkpt lat="47.90789" lon="7.06629">
        <ele>1170.6</ele>
        <time>2021-08-07T12:34:11Z</time>
      </trkpt>
      <trkpt lat="47.90782" lon="7.06629">
        <ele>1170</ele>
        <time>2021-08-07T12:34:13Z</time>
      </trkpt>
      <trkpt lat="47.90778" lon="7.06631">
        <ele>1169.6</ele>
        <time>2021-08-07T12:34:14Z</time>
      </trkpt>
      <trkpt lat="47.90777" lon="7.06632">
        <ele>1169.4</ele>
        <time>2021-08-07T12:34:15Z</time>
      </trkpt>
      <trkpt lat="47.90775" lon="7.06631">
        <ele>1169.2</ele>
        <time>2021-08-07T12:34:17Z</time>
      </trkpt>
      <trkpt lat="47.90773" lon="7.06631">
        <ele>1169.1</ele>
        <time>2021-08-07T12:34:18Z</time>
      </trkpt>
      <trkpt lat="47.90769" lon="7.06634">
        <ele>1168.7</ele>
        <time>2021-08-07T12:34:20Z</time>
      </trkpt>
      <trkpt lat="47.90767" lon="7.06637">
        <ele>1168.5</ele>
        <time>2021-08-07T12:34:21Z</time>
      </trkpt>
      <trkpt lat="47.90765" lon="7.06642">
        <ele>1168.2</ele>
        <time>2021-08-07T12:34:22Z</time>
      </trkpt>
      <trkpt lat="47.90762" lon="7.06645">
        <ele>1168</ele>
        <time>2021-08-07T12:34:24Z</time>
      </trkpt>
      <trkpt lat="47.90758" lon="7.06644">
        <ele>1167.8</ele>
        <time>2021-08-07T12:34:25Z</time>
      </trkpt>
      <trkpt lat="47.90751" lon="7.06641">
        <ele>1167.6</ele>
        <time>2021-08-07T12:34:26Z</time>
      </trkpt>
      <trkpt lat="47.90745" lon="7.06636">
        <ele>1167.6</ele>
        <time>2021-08-07T12:34:28Z</time>
      </trkpt>
      <trkpt lat="47.90739" lon="7.06632">
        <ele>1167.6</ele>
        <time>2021-08-07T12:34:29Z</time>
      </trkpt>
      <trkpt lat="47.90735" lon="7.0663">
        <ele>1167.4</ele>
        <time>2021-08-07T12:34:30Z</time>
      </trkpt>
      <trkpt lat="47.90731" lon="7.0663">
        <ele>1167.2</ele>
        <time>2021-08-07T12:34:32Z</time>
      </trkpt>
      <trkpt lat="47.90728" lon="7.06628">
        <ele>1167</ele>
        <time>2021-08-07T12:34:33Z</time>
      </trkpt>
      <trkpt lat="47.90724" lon="7.06627">
        <ele>1166.8</ele>
        <time>2021-08-07T12:34:34Z</time>
      </trkpt>
      <trkpt lat="47.90717" lon="7.06624">
        <ele>1166.4</ele>
        <time>2021-08-07T12:34:35Z</time>
      </trkpt>
      <trkpt lat="47.90704" lon="7.06614">
        <ele>1165.7</ele>
        <time>2021-08-07T12:34:37Z</time>
      </trkpt>
      <trkpt lat="47.907" lon="7.06611">
        <ele>1165.5</ele>
        <time>2021-08-07T12:34:38Z</time>
      </trkpt>
      <trkpt lat="47.90698" lon="7.06607">
        <ele>1165.3</ele>
        <time>2021-08-07T12:34:39Z</time>
      </trkpt>
      <trkpt lat="47.90696" lon="7.06603">
        <ele>1165.1</ele>
        <time>2021-08-07T12:34:40Z</time>
      </trkpt>
      <trkpt lat="47.90694" lon="7.06598">
        <ele>1165</ele>
        <time>2021-08-07T12:34:42Z</time>
      </trkpt>
      <trkpt lat="47.90692" lon="7.06593">
        <ele>1164.8</ele>
        <time>2021-08-07T12:34:43Z</time>
      </trkpt>
      <trkpt lat="47.90688" lon="7.06587">
        <ele>1164.5</ele>
        <time>2021-08-07T12:34:44Z</time>
      </trkpt>
      <trkpt lat="47.90683" lon="7.06578">
        <ele>1164.1</ele>
        <time>2021-08-07T12:34:45Z</time>
      </trkpt>
      <trkpt lat="47.90671" lon="7.0656">
        <ele>1162.9</ele>
        <time>2021-08-07T12:34:46Z</time>
      </trkpt>
      <trkpt lat="47.90668" lon="7.06556">
        <ele>1162.6</ele>
        <time>2021-08-07T12:34:48Z</time>
      </trkpt>
      <trkpt lat="47.90661" lon="7.06549">
        <ele>1162</ele>
        <time>2021-08-07T12:34:49Z</time>
      </trkpt>
      <trkpt lat="47.90657" lon="7.06548">
        <ele>1161.7</ele>
        <time>2021-08-07T12:34:51Z</time>
      </trkpt>
      <trkpt lat="47.90635" lon="7.0654">
        <ele>1159.9</ele>
        <time>2021-08-07T12:34:53Z</time>
      </trkpt>
      <trkpt lat="47.90629" lon="7.06538">
        <ele>1159.4</ele>
        <time>2021-08-07T12:34:54Z</time>
      </trkpt>
      <trkpt lat="47.906" lon="7.0653">
        <ele>1157.6</ele>
        <time>2021-08-07T12:34:56Z</time>
      </trkpt>
      <trkpt lat="47.906" lon="7.0653">
        <ele>1157.6</ele>
        <time>2021-08-07T12:34:56Z</time>
      </trkpt>
      <trkpt lat="47.90588" lon="7.06526">
        <ele>1156.8</ele>
        <time>2021-08-07T12:34:57Z</time>
      </trkpt>
      <trkpt lat="47.90568" lon="7.0652">
        <ele>1155.6</ele>
        <time>2021-08-07T12:34:59Z</time>
      </trkpt>
      <trkpt lat="47.90559" lon="7.0652">
        <ele>1155.1</ele>
        <time>2021-08-07T12:35:00Z</time>
      </trkpt>
      <trkpt lat="47.90544" lon="7.06525">
        <ele>1154.3</ele>
        <time>2021-08-07T12:35:02Z</time>
      </trkpt>
      <trkpt lat="47.90537" lon="7.06525">
        <ele>1153.9</ele>
        <time>2021-08-07T12:35:03Z</time>
      </trkpt>
      <trkpt lat="47.90531" lon="7.06525">
        <ele>1153.6</ele>
        <time>2021-08-07T12:35:04Z</time>
      </trkpt>
      <trkpt lat="47.90525" lon="7.06524">
        <ele>1153.2</ele>
        <time>2021-08-07T12:35:05Z</time>
      </trkpt>
      <trkpt lat="47.90512" lon="7.06523">
        <ele>1152.5</ele>
        <time>2021-08-07T12:35:07Z</time>
      </trkpt>
      <trkpt lat="47.90504" lon="7.06524">
        <ele>1152.2</ele>
        <time>2021-08-07T12:35:08Z</time>
      </trkpt>
      <trkpt lat="47.90498" lon="7.06524">
        <ele>1151.8</ele>
        <time>2021-08-07T12:35:09Z</time>
      </trkpt>
      <trkpt lat="47.90483" lon="7.06525">
        <ele>1151</ele>
        <time>2021-08-07T12:35:11Z</time>
      </trkpt>
      <trkpt lat="47.90469" lon="7.06531">
        <ele>1150.2</ele>
        <time>2021-08-07T12:35:13Z</time>
      </trkpt>
      <trkpt lat="47.90454" lon="7.06538">
        <ele>1149.3</ele>
        <time>2021-08-07T12:35:15Z</time>
      </trkpt>
      <trkpt lat="47.90441" lon="7.06545">
        <ele>1148.7</ele>
        <time>2021-08-07T12:35:17Z</time>
      </trkpt>
      <trkpt lat="47.90427" lon="7.06554">
        <ele>1147.9</ele>
        <time>2021-08-07T12:35:19Z</time>
      </trkpt>
      <trkpt lat="47.90411" lon="7.06563">
        <ele>1146.8</ele>
        <time>2021-08-07T12:35:24Z</time>
      </trkpt>
      <trkpt lat="47.90397" lon="7.06571">
        <ele>1145.6</ele>
        <time>2021-08-07T12:35:26Z</time>
      </trkpt>
      <trkpt lat="47.90386" lon="7.06577">
        <ele>1144.8</ele>
        <time>2021-08-07T12:35:28Z</time>
      </trkpt>
      <trkpt lat="47.90381" lon="7.06579">
        <ele>1144.5</ele>
        <time>2021-08-07T12:35:29Z</time>
      </trkpt>
      <trkpt lat="47.90374" lon="7.06591">
        <ele>1143.8</ele>
        <time>2021-08-07T12:35:31Z</time>
      </trkpt>
      <trkpt lat="47.90369" lon="7.06598">
        <ele>1143.5</ele>
        <time>2021-08-07T12:35:32Z</time>
      </trkpt>
      <trkpt lat="47.90361" lon="7.06617">
        <ele>1142.4</ele>
        <time>2021-08-07T12:35:34Z</time>
      </trkpt>
      <trkpt lat="47.90354" lon="7.06639">
        <ele>1141.2</ele>
        <time>2021-08-07T12:35:36Z</time>
      </trkpt>
      <trkpt lat="47.9035" lon="7.06651">
        <ele>1140.6</ele>
        <time>2021-08-07T12:35:37Z</time>
      </trkpt>
      <trkpt lat="47.90346" lon="7.06663">
        <ele>1140</ele>
        <time>2021-08-07T12:35:38Z</time>
      </trkpt>
      <trkpt lat="47.90339" lon="7.06685">
        <ele>1138.9</ele>
        <time>2021-08-07T12:35:40Z</time>
      </trkpt>
      <trkpt lat="47.90337" lon="7.06696">
        <ele>1138.4</ele>
        <time>2021-08-07T12:35:41Z</time>
      </trkpt>
      <trkpt lat="47.90334" lon="7.06707">
        <ele>1138</ele>
        <time>2021-08-07T12:35:42Z</time>
      </trkpt>
      <trkpt lat="47.90332" lon="7.06717">
        <ele>1137.5</ele>
        <time>2021-08-07T12:35:43Z</time>
      </trkpt>
      <trkpt lat="47.90327" lon="7.06734">
        <ele>1136.8</ele>
        <time>2021-08-07T12:35:45Z</time>
      </trkpt>
      <trkpt lat="47.90323" lon="7.06741">
        <ele>1136.4</ele>
        <time>2021-08-07T12:35:46Z</time>
      </trkpt>
      <trkpt lat="47.9032" lon="7.06749">
        <ele>1136.1</ele>
        <time>2021-08-07T12:35:47Z</time>
      </trkpt>
      <trkpt lat="47.90313" lon="7.06765">
        <ele>1135.3</ele>
        <time>2021-08-07T12:35:49Z</time>
      </trkpt>
      <trkpt lat="47.9031" lon="7.06774">
        <ele>1134.8</ele>
        <time>2021-08-07T12:35:50Z</time>
      </trkpt>
      <trkpt lat="47.90303" lon="7.06791">
        <ele>1133.8</ele>
        <time>2021-08-07T12:35:52Z</time>
      </trkpt>
      <trkpt lat="47.90299" lon="7.068">
        <ele>1133.4</ele>
        <time>2021-08-07T12:35:53Z</time>
      </trkpt>
      <trkpt lat="47.90297" lon="7.06807">
        <ele>1133</ele>
        <time>2021-08-07T12:35:54Z</time>
      </trkpt>
      <trkpt lat="47.90295" lon="7.06816">
        <ele>1132.5</ele>
        <time>2021-08-07T12:35:56Z</time>
      </trkpt>
      <trkpt lat="47.90292" lon="7.06821">
        <ele>1132.2</ele>
        <time>2021-08-07T12:35:58Z</time>
      </trkpt>
      <trkpt lat="47.90291" lon="7.06825">
        <ele>1132</ele>
        <time>2021-08-07T12:35:59Z</time>
      </trkpt>
      <trkpt lat="47.9029" lon="7.06827">
        <ele>1131.9</ele>
        <time>2021-08-07T12:36:00Z</time>
      </trkpt>
      <trkpt lat="47.90287" lon="7.06831">
        <ele>1131.6</ele>
        <time>2021-08-07T12:36:02Z</time>
      </trkpt>
      <trkpt lat="47.90286" lon="7.06832">
        <ele>1131.4</ele>
        <time>2021-08-07T12:36:03Z</time>
      </trkpt>
      <trkpt lat="47.90281" lon="7.06835">
        <ele>1131.3</ele>
        <time>2021-08-07T12:36:05Z</time>
      </trkpt>
      <trkpt lat="47.90275" lon="7.06837">
        <ele>1131</ele>
        <time>2021-08-07T12:36:07Z</time>
      </trkpt>
      <trkpt lat="47.90274" lon="7.06837">
        <ele>1130.9</ele>
        <time>2021-08-07T12:36:08Z</time>
      </trkpt>
      <trkpt lat="47.90271" lon="7.06841">
        <ele>1130.7</ele>
        <time>2021-08-07T12:36:10Z</time>
      </trkpt>
      <trkpt lat="47.90269" lon="7.06843">
        <ele>1130.6</ele>
        <time>2021-08-07T12:36:11Z</time>
      </trkpt>
      <trkpt lat="47.90266" lon="7.06847">
        <ele>1130.4</ele>
        <time>2021-08-07T12:36:12Z</time>
      </trkpt>
      <trkpt lat="47.90261" lon="7.06854">
        <ele>1130</ele>
        <time>2021-08-07T12:36:14Z</time>
      </trkpt>
      <trkpt lat="47.90259" lon="7.06858">
        <ele>1129.8</ele>
        <time>2021-08-07T12:36:15Z</time>
      </trkpt>
      <trkpt lat="47.90253" lon="7.06871">
        <ele>1129.1</ele>
        <time>2021-08-07T12:36:17Z</time>
      </trkpt>
      <trkpt lat="47.90251" lon="7.0688">
        <ele>1128.6</ele>
        <time>2021-08-07T12:36:18Z</time>
      </trkpt>
      <trkpt lat="47.90246" lon="7.06894">
        <ele>1127.9</ele>
        <time>2021-08-07T12:36:20Z</time>
      </trkpt>
      <trkpt lat="47.90242" lon="7.06901">
        <ele>1127.4</ele>
        <time>2021-08-07T12:36:21Z</time>
      </trkpt>
      <trkpt lat="47.9024" lon="7.06906">
        <ele>1127.1</ele>
        <time>2021-08-07T12:36:22Z</time>
      </trkpt>
      <trkpt lat="47.90175" lon="7.07091">
        <ele>1118.6</ele>
        <time>2021-08-07T12:36:40Z</time>
      </trkpt>
      <trkpt lat="47.90171" lon="7.07106">
        <ele>1118</ele>
        <time>2021-08-07T12:36:41Z</time>
      </trkpt>
      <trkpt lat="47.90168" lon="7.07123">
        <ele>1117.4</ele>
        <time>2021-08-07T12:36:42Z</time>
      </trkpt>
      <trkpt lat="47.90166" lon="7.07139">
        <ele>1116.9</ele>
        <time>2021-08-07T12:36:43Z</time>
      </trkpt>
      <trkpt lat="47.90165" lon="7.07154">
        <ele>1116.4</ele>
        <time>2021-08-07T12:36:44Z</time>
      </trkpt>
      <trkpt lat="47.90161" lon="7.07181">
        <ele>1115.6</ele>
        <time>2021-08-07T12:36:46Z</time>
      </trkpt>
      <trkpt lat="47.90158" lon="7.07196">
        <ele>1115.3</ele>
        <time>2021-08-07T12:36:47Z</time>
      </trkpt>
      <trkpt lat="47.90156" lon="7.07209">
        <ele>1115.1</ele>
        <time>2021-08-07T12:36:48Z</time>
      </trkpt>
      <trkpt lat="47.90149" lon="7.07231">
        <ele>1114.9</ele>
        <time>2021-08-07T12:36:50Z</time>
      </trkpt>
      <trkpt lat="47.90143" lon="7.07247">
        <ele>1113.8</ele>
        <time>2021-08-07T12:36:52Z</time>
      </trkpt>
      <trkpt lat="47.90141" lon="7.07251">
        <ele>1113.5</ele>
        <time>2021-08-07T12:36:53Z</time>
      </trkpt>
      <trkpt lat="47.9014" lon="7.07252">
        <ele>1113.4</ele>
        <time>2021-08-07T12:36:54Z</time>
      </trkpt>
      <trkpt lat="47.90133" lon="7.07252">
        <ele>1112.8</ele>
        <time>2021-08-07T12:36:56Z</time>
      </trkpt>
      <trkpt lat="47.90127" lon="7.07244">
        <ele>1112.1</ele>
        <time>2021-08-07T12:36:58Z</time>
      </trkpt>
      <trkpt lat="47.90124" lon="7.07237">
        <ele>1111.7</ele>
        <time>2021-08-07T12:36:59Z</time>
      </trkpt>
      <trkpt lat="47.90123" lon="7.0723">
        <ele>1111.3</ele>
        <time>2021-08-07T12:37:00Z</time>
      </trkpt>
      <trkpt lat="47.90122" lon="7.07217">
        <ele>1110.6</ele>
        <time>2021-08-07T12:37:02Z</time>
      </trkpt>
      <trkpt lat="47.90025" lon="7.07178">
        <ele>1102.1</ele>
        <time>2021-08-07T12:37:29Z</time>
      </trkpt>
      <trkpt lat="47.90019" lon="7.07173">
        <ele>1101.3</ele>
        <time>2021-08-07T12:37:30Z</time>
      </trkpt>
      <trkpt lat="47.90005" lon="7.07156">
        <ele>1098.6</ele>
        <time>2021-08-07T12:37:32Z</time>
      </trkpt>
      <trkpt lat="47.89998" lon="7.07146">
        <ele>1097.1</ele>
        <time>2021-08-07T12:37:34Z</time>
      </trkpt>
      <trkpt lat="47.89987" lon="7.07131">
        <ele>1094.9</ele>
        <time>2021-08-07T12:37:36Z</time>
      </trkpt>
      <trkpt lat="47.89978" lon="7.07117">
        <ele>1093</ele>
        <time>2021-08-07T12:37:37Z</time>
      </trkpt>
      <trkpt lat="47.89969" lon="7.07104">
        <ele>1091.3</ele>
        <time>2021-08-07T12:37:38Z</time>
      </trkpt>
      <trkpt lat="47.89954" lon="7.07084">
        <ele>1088.6</ele>
        <time>2021-08-07T12:37:40Z</time>
      </trkpt>
      <trkpt lat="47.89947" lon="7.07074">
        <ele>1087.4</ele>
        <time>2021-08-07T12:37:41Z</time>
      </trkpt>
      <trkpt lat="47.89941" lon="7.07066">
        <ele>1086.1</ele>
        <time>2021-08-07T12:37:42Z</time>
      </trkpt>
      <trkpt lat="47.89927" lon="7.07052">
        <ele>1083.9</ele>
        <time>2021-08-07T12:37:44Z</time>
      </trkpt>
      <trkpt lat="47.89921" lon="7.07047">
        <ele>1082.9</ele>
        <time>2021-08-07T12:37:45Z</time>
      </trkpt>
      <trkpt lat="47.89915" lon="7.07042">
        <ele>1082</ele>
        <time>2021-08-07T12:37:46Z</time>
      </trkpt>
      <trkpt lat="47.89909" lon="7.07038">
        <ele>1081.1</ele>
        <time>2021-08-07T12:37:47Z</time>
      </trkpt>
      <trkpt lat="47.89903" lon="7.07033">
        <ele>1080.1</ele>
        <time>2021-08-07T12:37:48Z</time>
      </trkpt>
      <trkpt lat="47.8989" lon="7.07023">
        <ele>1077.9</ele>
        <time>2021-08-07T12:37:50Z</time>
      </trkpt>
      <trkpt lat="47.89878" lon="7.07012">
        <ele>1075.6</ele>
        <time>2021-08-07T12:37:52Z</time>
      </trkpt>
      <trkpt lat="47.89865" lon="7.07002">
        <ele>1073.5</ele>
        <time>2021-08-07T12:37:54Z</time>
      </trkpt>
      <trkpt lat="47.89852" lon="7.06996">
        <ele>1071.3</ele>
        <time>2021-08-07T12:37:56Z</time>
      </trkpt>
      <trkpt lat="47.8984" lon="7.06993">
        <ele>1069.2</ele>
        <time>2021-08-07T12:37:58Z</time>
      </trkpt>
      <trkpt lat="47.89826" lon="7.06989">
        <ele>1067</ele>
        <time>2021-08-07T12:38:00Z</time>
      </trkpt>
      <trkpt lat="47.8981" lon="7.06987">
        <ele>1064.5</ele>
        <time>2021-08-07T12:38:02Z</time>
      </trkpt>
      <trkpt lat="47.89795" lon="7.06996">
        <ele>1062.2</ele>
        <time>2021-08-07T12:38:04Z</time>
      </trkpt>
      <trkpt lat="47.8978" lon="7.07001">
        <ele>1060.3</ele>
        <time>2021-08-07T12:38:06Z</time>
      </trkpt>
      <trkpt lat="47.89766" lon="7.07">
        <ele>1058.5</ele>
        <time>2021-08-07T12:38:08Z</time>
      </trkpt>
      <trkpt lat="47.89751" lon="7.06998">
        <ele>1056.5</ele>
        <time>2021-08-07T12:38:10Z</time>
      </trkpt>
      <trkpt lat="47.89735" lon="7.06994">
        <ele>1054.3</ele>
        <time>2021-08-07T12:38:12Z</time>
      </trkpt>
      <trkpt lat="47.89721" lon="7.06988">
        <ele>1052.4</ele>
        <time>2021-08-07T12:38:14Z</time>
      </trkpt>
      <trkpt lat="47.89705" lon="7.06978">
        <ele>1050.1</ele>
        <time>2021-08-07T12:38:16Z</time>
      </trkpt>
      <trkpt lat="47.89702" lon="7.06975">
        <ele>1049.4</ele>
        <time>2021-08-07T12:38:17Z</time>
      </trkpt>
      <trkpt lat="47.89697" lon="7.0697">
        <ele>1048.4</ele>
        <time>2021-08-07T12:38:18Z</time>
      </trkpt>
      <trkpt lat="47.89688" lon="7.06961">
        <ele>1046.6</ele>
        <time>2021-08-07T12:38:20Z</time>
      </trkpt>
      <trkpt lat="47.89682" lon="7.06952">
        <ele>1045.1</ele>
        <time>2021-08-07T12:38:22Z</time>
      </trkpt>
      <trkpt lat="47.8968" lon="7.06948">
        <ele>1044.5</ele>
        <time>2021-08-07T12:38:23Z</time>
      </trkpt>
      <trkpt lat="47.89679" lon="7.06946">
        <ele>1044.3</ele>
        <time>2021-08-07T12:38:24Z</time>
      </trkpt>
      <trkpt lat="47.89679" lon="7.06943">
        <ele>1044</ele>
        <time>2021-08-07T12:38:26Z</time>
      </trkpt>
      <trkpt lat="47.89667" lon="7.06927">
        <ele>1041.1</ele>
        <time>2021-08-07T12:38:49Z</time>
      </trkpt>
      <trkpt lat="47.8967" lon="7.06924">
        <ele>1039.1</ele>
        <time>2021-08-07T12:38:50Z</time>
      </trkpt>
      <trkpt lat="47.89674" lon="7.06924">
        <ele>1039</ele>
        <time>2021-08-07T12:38:52Z</time>
      </trkpt>
      <trkpt lat="47.89679" lon="7.06928">
        <ele>1038.9</ele>
        <time>2021-08-07T12:38:54Z</time>
      </trkpt>
      <trkpt lat="47.89685" lon="7.06934">
        <ele>1038.7</ele>
        <time>2021-08-07T12:38:56Z</time>
      </trkpt>
      <trkpt lat="47.89689" lon="7.06938">
        <ele>1038.6</ele>
        <time>2021-08-07T12:38:58Z</time>
      </trkpt>
      <trkpt lat="47.89692" lon="7.06941">
        <ele>1038.5</ele>
        <time>2021-08-07T12:38:59Z</time>
      </trkpt>
      <trkpt lat="47.89695" lon="7.06944">
        <ele>1038.4</ele>
        <time>2021-08-07T12:39:00Z</time>
      </trkpt>
      <trkpt lat="47.89695" lon="7.06946">
        <ele>1038.4</ele>
        <time>2021-08-07T12:39:01Z</time>
      </trkpt>
      <trkpt lat="47.89697" lon="7.06948">
        <ele>1038.4</ele>
        <time>2021-08-07T12:39:02Z</time>
      </trkpt>
      <trkpt lat="47.89697" lon="7.0695">
        <ele>1038.3</ele>
        <time>2021-08-07T12:39:04Z</time>
      </trkpt>
      <trkpt lat="47.89698" lon="7.06952">
        <ele>1038.3</ele>
        <time>2021-08-07T12:39:05Z</time>
      </trkpt>
      <trkpt lat="47.89696" lon="7.06953">
        <ele>1038.2</ele>
        <time>2021-08-07T12:39:07Z</time>
      </trkpt>
      <trkpt lat="47.89695" lon="7.06953">
        <ele>1038.2</ele>
        <time>2021-08-07T12:39:08Z</time>
      </trkpt>
      <trkpt lat="47.89695" lon="7.06952">
        <ele>1038.2</ele>
        <time>2021-08-07T12:39:09Z</time>
      </trkpt>
      <trkpt lat="47.89695" lon="7.06951">
        <ele>1038.2</ele>
        <time>2021-08-07T12:39:11Z</time>
      </trkpt>
      <trkpt lat="47.89696" lon="7.0695">
        <ele>1038.2</ele>
        <time>2021-08-07T12:39:12Z</time>
      </trkpt>
      <trkpt lat="47.89696" lon="7.06949">
        <ele>1038.2</ele>
        <time>2021-08-07T12:39:13Z</time>
      </trkpt>
      <trkpt lat="47.89696" lon="7.06948">
        <ele>1038.1</ele>
        <time>2021-08-07T12:39:14Z</time>
      </trkpt>
      <trkpt lat="47.89696" lon="7.06945">
        <ele>1038.1</ele>
        <time>2021-08-07T12:39:16Z</time>
      </trkpt>
      <trkpt lat="47.89773" lon="7.06927">
        <ele>1035.6</ele>
        <time>2021-08-07T12:39:56Z</time>
      </trkpt>
      <trkpt lat="47.89772" lon="7.06933">
        <ele>1035.7</ele>
        <time>2021-08-07T12:39:57Z</time>
      </trkpt>
      <trkpt lat="47.89771" lon="7.06933">
        <ele>1035.7</ele>
        <time>2021-08-07T12:39:58Z</time>
      </trkpt>
      <trkpt lat="47.89769" lon="7.06934">
        <ele>1035.8</ele>
        <time>2021-08-07T12:40:00Z</time>
      </trkpt>
      <trkpt lat="47.89767" lon="7.06934">
        <ele>1035.8</ele>
        <time>2021-08-07T12:40:01Z</time>
      </trkpt>
      <trkpt lat="47.89766" lon="7.06934">
        <ele>1035.9</ele>
        <time>2021-08-07T12:40:02Z</time>
      </trkpt>
      <trkpt lat="47.89765" lon="7.06933">
        <ele>1035.9</ele>
        <time>2021-08-07T12:40:04Z</time>
      </trkpt>
      <trkpt lat="47.89764" lon="7.06933">
        <ele>1036</ele>
        <time>2021-08-07T12:40:05Z</time>
      </trkpt>
      <trkpt lat="47.89761" lon="7.06933">
        <ele>1036.1</ele>
        <time>2021-08-07T12:40:06Z</time>
      </trkpt>
      <trkpt lat="47.89753" lon="7.0693">
        <ele>1036.4</ele>
        <time>2021-08-07T12:40:08Z</time>
      </trkpt>
      <trkpt lat="47.8975" lon="7.06929">
        <ele>1036.6</ele>
        <time>2021-08-07T12:40:09Z</time>
      </trkpt>
      <trkpt lat="47.89739" lon="7.06927">
        <ele>1036.9</ele>
        <time>2021-08-07T12:40:11Z</time>
      </trkpt>
      <trkpt lat="47.89737" lon="7.06926">
        <ele>1036.9</ele>
        <time>2021-08-07T12:40:12Z</time>
      </trkpt>
      <trkpt lat="47.89736" lon="7.06926">
        <ele>1037</ele>
        <time>2021-08-07T12:40:13Z</time>
      </trkpt>
      <trkpt lat="47.89734" lon="7.06926">
        <ele>1037</ele>
        <time>2021-08-07T12:40:14Z</time>
      </trkpt>
      <trkpt lat="47.89732" lon="7.06927">
        <ele>1037.1</ele>
        <time>2021-08-07T12:40:16Z</time>
      </trkpt>
      <trkpt lat="47.89677" lon="7.06909">
        <ele>1038.9</ele>
        <time>2021-08-07T12:40:41Z</time>
      </trkpt>
      <trkpt lat="47.89675" lon="7.06911">
        <ele>1039</ele>
        <time>2021-08-07T12:40:42Z</time>
      </trkpt>
      <trkpt lat="47.89669" lon="7.06915">
        <ele>1039.2</ele>
        <time>2021-08-07T12:40:44Z</time>
      </trkpt>
      <trkpt lat="47.89665" lon="7.06916">
        <ele>1039.3</ele>
        <time>2021-08-07T12:40:46Z</time>
      </trkpt>
      <trkpt lat="47.89662" lon="7.06915">
        <ele>1039.4</ele>
        <time>2021-08-07T12:40:47Z</time>
      </trkpt>
      <trkpt lat="47.89657" lon="7.06912">
        <ele>1038.5</ele>
        <time>2021-08-07T12:40:48Z</time>
      </trkpt>
      <trkpt lat="47.89652" lon="7.06908">
        <ele>1037.6</ele>
        <time>2021-08-07T12:40:50Z</time>
      </trkpt>
      <trkpt lat="47.89647" lon="7.06904">
        <ele>1036.6</ele>
        <time>2021-08-07T12:40:51Z</time>
      </trkpt>
      <trkpt lat="47.89635" lon="7.06885">
        <ele>1034</ele>
        <time>2021-08-07T12:40:52Z</time>
      </trkpt>
      <trkpt lat="47.89624" lon="7.06857">
        <ele>1031.3</ele>
        <time>2021-08-07T12:40:54Z</time>
      </trkpt>
      <trkpt lat="47.89613" lon="7.06824">
        <ele>1030.2</ele>
        <time>2021-08-07T12:40:56Z</time>
      </trkpt>
      <trkpt lat="47.89605" lon="7.068">
        <ele>1030.4</ele>
        <time>2021-08-07T12:40:58Z</time>
      </trkpt>
      <trkpt lat="47.89602" lon="7.06789">
        <ele>1030.7</ele>
        <time>2021-08-07T12:40:59Z</time>
      </trkpt>
      <trkpt lat="47.89595" lon="7.06771">
        <ele>1031.2</ele>
        <time>2021-08-07T12:41:01Z</time>
      </trkpt>
      <trkpt lat="47.89591" lon="7.06764">
        <ele>1031.4</ele>
        <time>2021-08-07T12:41:02Z</time>
      </trkpt>
      <trkpt lat="47.89583" lon="7.06755">
        <ele>1031.6</ele>
        <time>2021-08-07T12:41:04Z</time>
      </trkpt>
      <trkpt lat="47.89579" lon="7.06751">
        <ele>1031.6</ele>
        <time>2021-08-07T12:41:05Z</time>
      </trkpt>
      <trkpt lat="47.89575" lon="7.06748">
        <ele>1031.6</ele>
        <time>2021-08-07T12:41:06Z</time>
      </trkpt>
      <trkpt lat="47.89569" lon="7.06746">
        <ele>1031.5</ele>
        <time>2021-08-07T12:41:08Z</time>
      </trkpt>
      <trkpt lat="47.89563" lon="7.06742">
        <ele>1031.3</ele>
        <time>2021-08-07T12:41:10Z</time>
      </trkpt>
      <trkpt lat="47.89556" lon="7.06738">
        <ele>1031.2</ele>
        <time>2021-08-07T12:41:12Z</time>
      </trkpt>
      <trkpt lat="47.89552" lon="7.06733">
        <ele>1031</ele>
        <time>2021-08-07T12:41:14Z</time>
      </trkpt>
      <trkpt lat="47.89549" lon="7.06726">
        <ele>1030.9</ele>
        <time>2021-08-07T12:41:15Z</time>
      </trkpt>
      <trkpt lat="47.89541" lon="7.06722">
        <ele>1030.7</ele>
        <time>2021-08-07T12:41:16Z</time>
      </trkpt>
      <trkpt lat="47.89536" lon="7.06719">
        <ele>1030.5</ele>
        <time>2021-08-07T12:41:18Z</time>
      </trkpt>
      <trkpt lat="47.89527" lon="7.06713">
        <ele>1030.1</ele>
        <time>2021-08-07T12:41:19Z</time>
      </trkpt>
      <trkpt lat="47.89522" lon="7.0671">
        <ele>1029.9</ele>
        <time>2021-08-07T12:41:20Z</time>
      </trkpt>
      <trkpt lat="47.89514" lon="7.06704">
        <ele>1029.6</ele>
        <time>2021-08-07T12:41:22Z</time>
      </trkpt>
      <trkpt lat="47.89509" lon="7.06698">
        <ele>1029.3</ele>
        <time>2021-08-07T12:41:24Z</time>
      </trkpt>
      <trkpt lat="47.89507" lon="7.06693">
        <ele>1029.2</ele>
        <time>2021-08-07T12:41:25Z</time>
      </trkpt>
      <trkpt lat="47.89503" lon="7.06686">
        <ele>1028.9</ele>
        <time>2021-08-07T12:41:26Z</time>
      </trkpt>
      <trkpt lat="47.89499" lon="7.06679">
        <ele>1028.7</ele>
        <time>2021-08-07T12:41:28Z</time>
      </trkpt>
      <trkpt lat="47.89497" lon="7.06673">
        <ele>1028.6</ele>
        <time>2021-08-07T12:41:29Z</time>
      </trkpt>
      <trkpt lat="47.89495" lon="7.06664">
        <ele>1028.3</ele>
        <time>2021-08-07T12:41:31Z</time>
      </trkpt>
      <trkpt lat="47.89492" lon="7.06658">
        <ele>1028.1</ele>
        <time>2021-08-07T12:41:32Z</time>
      </trkpt>
      <trkpt lat="47.89489" lon="7.06653">
        <ele>1028</ele>
        <time>2021-08-07T12:41:33Z</time>
      </trkpt>
      <trkpt lat="47.89486" lon="7.06649">
        <ele>1027.8</ele>
        <time>2021-08-07T12:41:34Z</time>
      </trkpt>
      <trkpt lat="47.89483" lon="7.06645">
        <ele>1027.6</ele>
        <time>2021-08-07T12:41:35Z</time>
      </trkpt>
      <trkpt lat="47.89479" lon="7.06642">
        <ele>1027.4</ele>
        <time>2021-08-07T12:41:36Z</time>
      </trkpt>
      <trkpt lat="47.89463" lon="7.06626">
        <ele>1026.3</ele>
        <time>2021-08-07T12:41:38Z</time>
      </trkpt>
      <trkpt lat="47.89456" lon="7.06615">
        <ele>1025.7</ele>
        <time>2021-08-07T12:41:39Z</time>
      </trkpt>
      <trkpt lat="47.89453" lon="7.06603">
        <ele>1025.2</ele>
        <time>2021-08-07T12:41:40Z</time>
      </trkpt>
      <trkpt lat="47.89452" lon="7.06591">
        <ele>1024.7</ele>
        <time>2021-08-07T12:41:41Z</time>
      </trkpt>
      <trkpt lat="47.89451" lon="7.06582">
        <ele>1024.4</ele>
        <time>2021-08-07T12:41:42Z</time>
      </trkpt>
      <trkpt lat="47.89457" lon="7.06573">
        <ele>1023.9</ele>
        <time>2021-08-07T12:41:43Z</time>
      </trkpt>
      <trkpt lat="47.89459" lon="7.06561">
        <ele>1023.5</ele>
        <time>2021-08-07T12:41:44Z</time>
      </trkpt>
      <trkpt lat="47.89456" lon="7.06539">
        <ele>1022.8</ele>
        <time>2021-08-07T12:41:46Z</time>
      </trkpt>
      <trkpt lat="47.89453" lon="7.06526">
        <ele>1022.4</ele>
        <time>2021-08-07T12:41:47Z</time>
      </trkpt>
      <trkpt lat="47.89445" lon="7.06493">
        <ele>1021</ele>
        <time>2021-08-07T12:41:49Z</time>
      </trkpt>
      <trkpt lat="47.89441" lon="7.06479">
        <ele>1020.1</ele>
        <time>2021-08-07T12:41:50Z</time>
      </trkpt>
      <trkpt lat="47.89432" lon="7.06457">
        <ele>1018.4</ele>
        <time>2021-08-07T12:41:52Z</time>
      </trkpt>
      <trkpt lat="47.89427" lon="7.06448">
        <ele>1017.5</ele>
        <time>2021-08-07T12:41:53Z</time>
      </trkpt>
      <trkpt lat="47.89422" lon="7.06438">
        <ele>1016.5</ele>
        <time>2021-08-07T12:41:54Z</time>
      </trkpt>
      <trkpt lat="47.89422" lon="7.06436">
        <ele>1016.3</ele>
        <time>2021-08-07T12:41:56Z</time>
      </trkpt>
      <trkpt lat="47.8942" lon="7.06431">
        <ele>1015.9</ele>
        <time>2021-08-07T12:41:57Z</time>
      </trkpt>
      <trkpt lat="47.89419" lon="7.06426">
        <ele>1015.4</ele>
        <time>2021-08-07T12:41:58Z</time>
      </trkpt>
      <trkpt lat="47.89415" lon="7.06408">
        <ele>1013.8</ele>
        <time>2021-08-07T12:41:59Z</time>
      </trkpt>
      <trkpt lat="47.8941" lon="7.0639">
        <ele>1012.1</ele>
        <time>2021-08-07T12:42:00Z</time>
      </trkpt>
      <trkpt lat="47.89399" lon="7.06362">
        <ele>1009.5</ele>
        <time>2021-08-07T12:42:02Z</time>
      </trkpt>
      <trkpt lat="47.89392" lon="7.06338">
        <ele>1007.4</ele>
        <time>2021-08-07T12:42:04Z</time>
      </trkpt>
      <trkpt lat="47.89387" lon="7.06322">
        <ele>1006</ele>
        <time>2021-08-07T12:42:06Z</time>
      </trkpt>
      <trkpt lat="47.89384" lon="7.06317">
        <ele>1005.3</ele>
        <time>2021-08-07T12:42:07Z</time>
      </trkpt>
      <trkpt lat="47.89381" lon="7.06313">
        <ele>1004.4</ele>
        <time>2021-08-07T12:42:08Z</time>
      </trkpt>
      <trkpt lat="47.89379" lon="7.0631">
        <ele>1004.1</ele>
        <time>2021-08-07T12:42:10Z</time>
      </trkpt>
      <trkpt lat="47.89378" lon="7.06313">
        <ele>1003.9</ele>
        <time>2021-08-07T12:42:11Z</time>
      </trkpt>
      <trkpt lat="47.89372" lon="7.063">
        <ele>1002.7</ele>
        <time>2021-08-07T12:42:12Z</time>
      </trkpt>
      <trkpt lat="47.89371" lon="7.06289">
        <ele>1001.9</ele>
        <time>2021-08-07T12:42:14Z</time>
      </trkpt>
      <trkpt lat="47.8937" lon="7.06275">
        <ele>1000.8</ele>
        <time>2021-08-07T12:42:15Z</time>
      </trkpt>
      <trkpt lat="47.89367" lon="7.06253">
        <ele>999.1</ele>
        <time>2021-08-07T12:42:17Z</time>
      </trkpt>
      <trkpt lat="47.89364" lon="7.06241">
        <ele>997.9</ele>
        <time>2021-08-07T12:42:18Z</time>
      </trkpt>
      <trkpt lat="47.89363" lon="7.06218">
        <ele>995.4</ele>
        <time>2021-08-07T12:42:20Z</time>
      </trkpt>
      <trkpt lat="47.89365" lon="7.06202">
        <ele>993.3</ele>
        <time>2021-08-07T12:42:22Z</time>
      </trkpt>
      <trkpt lat="47.89365" lon="7.06194">
        <ele>992.4</ele>
        <time>2021-08-07T12:42:23Z</time>
      </trkpt>
      <trkpt lat="47.89367" lon="7.06198">
        <ele>991.7</ele>
        <time>2021-08-07T12:42:24Z</time>
      </trkpt>
      <trkpt lat="47.89368" lon="7.06198">
        <ele>991.4</ele>
        <time>2021-08-07T12:42:26Z</time>
      </trkpt>
      <trkpt lat="47.8937" lon="7.06197">
        <ele>991.1</ele>
        <time>2021-08-07T12:42:27Z</time>
      </trkpt>
      <trkpt lat="47.89371" lon="7.06192">
        <ele>990.4</ele>
        <time>2021-08-07T12:42:29Z</time>
      </trkpt>
      <trkpt lat="47.89371" lon="7.0619">
        <ele>990.2</ele>
        <time>2021-08-07T12:42:30Z</time>
      </trkpt>
      <trkpt lat="47.89372" lon="7.06186">
        <ele>989.7</ele>
        <time>2021-08-07T12:42:31Z</time>
      </trkpt>
      <trkpt lat="47.89372" lon="7.06181">
        <ele>988.9</ele>
        <time>2021-08-07T12:42:33Z</time>
      </trkpt>
      <trkpt lat="47.89372" lon="7.06179">
        <ele>988.7</ele>
        <time>2021-08-07T12:42:34Z</time>
      </trkpt>
      <trkpt lat="47.89429" lon="7.0602">
        <ele>968.2</ele>
        <time>2021-08-07T12:43:01Z</time>
      </trkpt>
      <trkpt lat="47.8943" lon="7.06009">
        <ele>966.6</ele>
        <time>2021-08-07T12:43:03Z</time>
      </trkpt>
      <trkpt lat="47.89431" lon="7.05997">
        <ele>965</ele>
        <time>2021-08-07T12:43:04Z</time>
      </trkpt>
      <trkpt lat="47.8943" lon="7.05988">
        <ele>963.8</ele>
        <time>2021-08-07T12:43:06Z</time>
      </trkpt>
      <trkpt lat="47.89428" lon="7.05972">
        <ele>961.7</ele>
        <time>2021-08-07T12:43:08Z</time>
      </trkpt>
      <trkpt lat="47.89426" lon="7.05967">
        <ele>961.1</ele>
        <time>2021-08-07T12:43:09Z</time>
      </trkpt>
      <trkpt lat="47.89426" lon="7.05966">
        <ele>961</ele>
        <time>2021-08-07T12:43:10Z</time>
      </trkpt>
      <trkpt lat="47.89425" lon="7.05963">
        <ele>960.6</ele>
        <time>2021-08-07T12:43:11Z</time>
      </trkpt>
      <trkpt lat="47.89423" lon="7.0596">
        <ele>960.2</ele>
        <time>2021-08-07T12:43:13Z</time>
      </trkpt>
      <trkpt lat="47.89422" lon="7.05956">
        <ele>959.7</ele>
        <time>2021-08-07T12:43:14Z</time>
      </trkpt>
      <trkpt lat="47.8942" lon="7.05943">
        <ele>958.2</ele>
        <time>2021-08-07T12:43:18Z</time>
      </trkpt>
      <trkpt lat="47.89416" lon="7.05928">
        <ele>956.6</ele>
        <time>2021-08-07T12:43:19Z</time>
      </trkpt>
      <trkpt lat="47.89414" lon="7.05917">
        <ele>955.5</ele>
        <time>2021-08-07T12:43:20Z</time>
      </trkpt>
      <trkpt lat="47.89409" lon="7.059">
        <ele>953.9</ele>
        <time>2021-08-07T12:43:22Z</time>
      </trkpt>
      <trkpt lat="47.89406" lon="7.05892">
        <ele>953</ele>
        <time>2021-08-07T12:43:23Z</time>
      </trkpt>
      <trkpt lat="47.89402" lon="7.05881">
        <ele>952</ele>
        <time>2021-08-07T12:43:24Z</time>
      </trkpt>
      <trkpt lat="47.894" lon="7.05873">
        <ele>951.2</ele>
        <time>2021-08-07T12:43:26Z</time>
      </trkpt>
      <trkpt lat="47.89398" lon="7.05864">
        <ele>950.3</ele>
        <time>2021-08-07T12:43:27Z</time>
      </trkpt>
      <trkpt lat="47.89396" lon="7.05854">
        <ele>949.3</ele>
        <time>2021-08-07T12:43:28Z</time>
      </trkpt>
      <trkpt lat="47.89395" lon="7.05844">
        <ele>948.2</ele>
        <time>2021-08-07T12:43:29Z</time>
      </trkpt>
      <trkpt lat="47.89394" lon="7.05836">
        <ele>947.3</ele>
        <time>2021-08-07T12:43:30Z</time>
      </trkpt>
      <trkpt lat="47.89394" lon="7.05825">
        <ele>946</ele>
        <time>2021-08-07T12:43:31Z</time>
      </trkpt>
      <trkpt lat="47.89394" lon="7.05821">
        <ele>945.4</ele>
        <time>2021-08-07T12:43:33Z</time>
      </trkpt>
      <trkpt lat="47.89393" lon="7.05813">
        <ele>944.4</ele>
        <time>2021-08-07T12:43:34Z</time>
      </trkpt>
      <trkpt lat="47.89392" lon="7.05809">
        <ele>943.9</ele>
        <time>2021-08-07T12:43:35Z</time>
      </trkpt>
      <trkpt lat="47.89391" lon="7.05807">
        <ele>943.5</ele>
        <time>2021-08-07T12:43:36Z</time>
      </trkpt>
      <trkpt lat="47.89388" lon="7.05803">
        <ele>942.7</ele>
        <time>2021-08-07T12:43:38Z</time>
      </trkpt>
      <trkpt lat="47.89385" lon="7.05801">
        <ele>941.9</ele>
        <time>2021-08-07T12:43:40Z</time>
      </trkpt>
      <trkpt lat="47.89369" lon="7.05819">
        <ele>941.8</ele>
        <time>2021-08-07T12:43:42Z</time>
      </trkpt>
      <trkpt lat="47.89356" lon="7.05837">
        <ele>941.1</ele>
        <time>2021-08-07T12:44:48Z</time>
      </trkpt>
      <trkpt lat="47.89342" lon="7.05856">
        <ele>938.8</ele>
        <time>2021-08-07T12:44:49Z</time>
      </trkpt>
      <trkpt lat="47.89338" lon="7.05862">
        <ele>938.1</ele>
        <time>2021-08-07T12:44:50Z</time>
      </trkpt>
      <trkpt lat="47.89332" lon="7.0587">
        <ele>937.2</ele>
        <time>2021-08-07T12:44:51Z</time>
      </trkpt>
      <trkpt lat="47.89327" lon="7.05876">
        <ele>936.5</ele>
        <time>2021-08-07T12:44:52Z</time>
      </trkpt>
      <trkpt lat="47.89322" lon="7.05882">
        <ele>935.9</ele>
        <time>2021-08-07T12:44:54Z</time>
      </trkpt>
      <trkpt lat="47.89317" lon="7.0589">
        <ele>935.2</ele>
        <time>2021-08-07T12:44:55Z</time>
      </trkpt>
      <trkpt lat="47.89313" lon="7.05894">
        <ele>934.8</ele>
        <time>2021-08-07T12:44:56Z</time>
      </trkpt>
      <trkpt lat="47.8931" lon="7.059">
        <ele>934.5</ele>
        <time>2021-08-07T12:44:57Z</time>
      </trkpt>
      <trkpt lat="47.89306" lon="7.05906">
        <ele>934.1</ele>
        <time>2021-08-07T12:44:58Z</time>
      </trkpt>
      <trkpt lat="47.89301" lon="7.0591">
        <ele>933.7</ele>
        <time>2021-08-07T12:45:00Z</time>
      </trkpt>
      <trkpt lat="47.89297" lon="7.05912">
        <ele>933.4</ele>
        <time>2021-08-07T12:45:01Z</time>
      </trkpt>
      <trkpt lat="47.89293" lon="7.05915">
        <ele>933</ele>
        <time>2021-08-07T12:45:02Z</time>
      </trkpt>
      <trkpt lat="47.89288" lon="7.05921">
        <ele>932.5</ele>
        <time>2021-08-07T12:45:04Z</time>
      </trkpt>
      <trkpt lat="47.89284" lon="7.05924">
        <ele>932.1</ele>
        <time>2021-08-07T12:45:05Z</time>
      </trkpt>
      <trkpt lat="47.89279" lon="7.05928">
        <ele>931.7</ele>
        <time>2021-08-07T12:45:06Z</time>
      </trkpt>
      <trkpt lat="47.89274" lon="7.05933">
        <ele>931.3</ele>
        <time>2021-08-07T12:45:07Z</time>
      </trkpt>
      <trkpt lat="47.8927" lon="7.05937">
        <ele>931</ele>
        <time>2021-08-07T12:45:08Z</time>
      </trkpt>
      <trkpt lat="47.89267" lon="7.0594">
        <ele>930.8</ele>
        <time>2021-08-07T12:45:10Z</time>
      </trkpt>
      <trkpt lat="47.89263" lon="7.05944">
        <ele>930.7</ele>
        <time>2021-08-07T12:45:11Z</time>
      </trkpt>
      <trkpt lat="47.89261" lon="7.05945">
        <ele>930.6</ele>
        <time>2021-08-07T12:45:12Z</time>
      </trkpt>
      <trkpt lat="47.89257" lon="7.05948">
        <ele>930.5</ele>
        <time>2021-08-07T12:45:14Z</time>
      </trkpt>
      <trkpt lat="47.89252" lon="7.0595">
        <ele>930.5</ele>
        <time>2021-08-07T12:45:15Z</time>
      </trkpt>
      <trkpt lat="47.89247" lon="7.05952">
        <ele>930.4</ele>
        <time>2021-08-07T12:45:17Z</time>
      </trkpt>
      <trkpt lat="47.89242" lon="7.05955">
        <ele>930.2</ele>
        <time>2021-08-07T12:45:19Z</time>
      </trkpt>
      <trkpt lat="47.89239" lon="7.05956">
        <ele>930.1</ele>
        <time>2021-08-07T12:45:20Z</time>
      </trkpt>
      <trkpt lat="47.89237" lon="7.05957">
        <ele>929.4</ele>
        <time>2021-08-07T12:45:21Z</time>
      </trkpt>
      <trkpt lat="47.89236" lon="7.05957">
        <ele>929.2</ele>
        <time>2021-08-07T12:45:22Z</time>
      </trkpt>
      <trkpt lat="47.89235" lon="7.05953">
        <ele>928.5</ele>
        <time>2021-08-07T12:45:24Z</time>
      </trkpt>
      <trkpt lat="47.89235" lon="7.05951">
        <ele>928.3</ele>
        <time>2021-08-07T12:45:25Z</time>
      </trkpt>
      <trkpt lat="47.89237" lon="7.05946">
        <ele>927.5</ele>
        <time>2021-08-07T12:45:26Z</time>
      </trkpt>
      <trkpt lat="47.89239" lon="7.05935">
        <ele>925.9</ele>
        <time>2021-08-07T12:45:27Z</time>
      </trkpt>
      <trkpt lat="47.89242" lon="7.05917">
        <ele>923.3</ele>
        <time>2021-08-07T12:45:29Z</time>
      </trkpt>
      <trkpt lat="47.89244" lon="7.05908">
        <ele>922.1</ele>
        <time>2021-08-07T12:45:30Z</time>
      </trkpt>
      <trkpt lat="47.89249" lon="7.05891">
        <ele>919.9</ele>
        <time>2021-08-07T12:45:32Z</time>
      </trkpt>
      <trkpt lat="47.89254" lon="7.05873">
        <ele>918.1</ele>
        <time>2021-08-07T12:45:34Z</time>
      </trkpt>
      <trkpt lat="47.89257" lon="7.05854">
        <ele>916.2</ele>
        <time>2021-08-07T12:45:36Z</time>
      </trkpt>
      <trkpt lat="47.8926" lon="7.05834">
        <ele>914.2</ele>
        <time>2021-08-07T12:45:38Z</time>
      </trkpt>
      <trkpt lat="47.89263" lon="7.05819">
        <ele>912.2</ele>
        <time>2021-08-07T12:45:40Z</time>
      </trkpt>
      <trkpt lat="47.89261" lon="7.05813">
        <ele>911.3</ele>
        <time>2021-08-07T12:45:42Z</time>
      </trkpt>
      <trkpt lat="47.89258" lon="7.05813">
        <ele>910.7</ele>
        <time>2021-08-07T12:45:44Z</time>
      </trkpt>
      <trkpt lat="47.8925" lon="7.05821">
        <ele>908.8</ele>
        <time>2021-08-07T12:45:46Z</time>
      </trkpt>
      <trkpt lat="47.89246" lon="7.05826">
        <ele>908</ele>
        <time>2021-08-07T12:45:47Z</time>
      </trkpt>
      <trkpt lat="47.89239" lon="7.0583">
        <ele>906.8</ele>
        <time>2021-08-07T12:45:48Z</time>
      </trkpt>
      <trkpt lat="47.89232" lon="7.05834">
        <ele>905.7</ele>
        <time>2021-08-07T12:45:49Z</time>
      </trkpt>
      <trkpt lat="47.89225" lon="7.05838">
        <ele>904.7</ele>
        <time>2021-08-07T12:45:50Z</time>
      </trkpt>
      <trkpt lat="47.89212" lon="7.05846">
        <ele>902.6</ele>
        <time>2021-08-07T12:45:52Z</time>
      </trkpt>
      <trkpt lat="47.89199" lon="7.0585">
        <ele>900.7</ele>
        <time>2021-08-07T12:45:54Z</time>
      </trkpt>
      <trkpt lat="47.89192" lon="7.05853">
        <ele>899.7</ele>
        <time>2021-08-07T12:45:55Z</time>
      </trkpt>
      <trkpt lat="47.8918" lon="7.05858">
        <ele>897.7</ele>
        <time>2021-08-07T12:45:57Z</time>
      </trkpt>
      <trkpt lat="47.89168" lon="7.05864">
        <ele>895.5</ele>
        <time>2021-08-07T12:45:59Z</time>
      </trkpt>
      <trkpt lat="47.89162" lon="7.05865">
        <ele>894.3</ele>
        <time>2021-08-07T12:46:00Z</time>
      </trkpt>
      <trkpt lat="47.89152" lon="7.05869">
        <ele>891.9</ele>
        <time>2021-08-07T12:46:02Z</time>
      </trkpt>
      <trkpt lat="47.89144" lon="7.05872">
        <ele>890</ele>
        <time>2021-08-07T12:46:04Z</time>
      </trkpt>
      <trkpt lat="47.89141" lon="7.05872">
        <ele>889.3</ele>
        <time>2021-08-07T12:46:05Z</time>
      </trkpt>
      <trkpt lat="47.89137" lon="7.05874">
        <ele>888.5</ele>
        <time>2021-08-07T12:46:06Z</time>
      </trkpt>
      <trkpt lat="47.8913" lon="7.05881">
        <ele>887</ele>
        <time>2021-08-07T12:46:08Z</time>
      </trkpt>
      <trkpt lat="47.89133" lon="7.05888">
        <ele>886.2</ele>
        <time>2021-08-07T12:46:10Z</time>
      </trkpt>
      <trkpt lat="47.89128" lon="7.05892">
        <ele>885.5</ele>
        <time>2021-08-07T12:46:11Z</time>
      </trkpt>
      <trkpt lat="47.89124" lon="7.05895">
        <ele>884.9</ele>
        <time>2021-08-07T12:46:12Z</time>
      </trkpt>
      <trkpt lat="47.89113" lon="7.05905">
        <ele>883.2</ele>
        <time>2021-08-07T12:46:14Z</time>
      </trkpt>
      <trkpt lat="47.89104" lon="7.05915">
        <ele>881.8</ele>
        <time>2021-08-07T12:46:16Z</time>
      </trkpt>
      <trkpt lat="47.89093" lon="7.05926">
        <ele>880.3</ele>
        <time>2021-08-07T12:46:18Z</time>
      </trkpt>
      <trkpt lat="47.89086" lon="7.05931">
        <ele>879.5</ele>
        <time>2021-08-07T12:46:19Z</time>
      </trkpt>
      <trkpt lat="47.89073" lon="7.05943">
        <ele>878.2</ele>
        <time>2021-08-07T12:46:21Z</time>
      </trkpt>
      <trkpt lat="47.89067" lon="7.05948">
        <ele>877.5</ele>
        <time>2021-08-07T12:46:22Z</time>
      </trkpt>
      <trkpt lat="47.89061" lon="7.05954">
        <ele>876.9</ele>
        <time>2021-08-07T12:46:23Z</time>
      </trkpt>
      <trkpt lat="47.89055" lon="7.05961">
        <ele>876.2</ele>
        <time>2021-08-07T12:46:24Z</time>
      </trkpt>
      <trkpt lat="47.89043" lon="7.05974">
        <ele>874.4</ele>
        <time>2021-08-07T12:46:26Z</time>
      </trkpt>
      <trkpt lat="47.8903" lon="7.05986">
        <ele>872.5</ele>
        <time>2021-08-07T12:46:28Z</time>
      </trkpt>
      <trkpt lat="47.89024" lon="7.05993">
        <ele>871.6</ele>
        <time>2021-08-07T12:46:29Z</time>
      </trkpt>
      <trkpt lat="47.89018" lon="7.05999">
        <ele>870.7</ele>
        <time>2021-08-07T12:46:30Z</time>
      </trkpt>
      <trkpt lat="47.89011" lon="7.06004">
        <ele>869.9</ele>
        <time>2021-08-07T12:46:31Z</time>
      </trkpt>
      <trkpt lat="47.89005" lon="7.06008">
        <ele>869.1</ele>
        <time>2021-08-07T12:46:32Z</time>
      </trkpt>
      <trkpt lat="47.88996" lon="7.06017">
        <ele>867.9</ele>
        <time>2021-08-07T12:46:34Z</time>
      </trkpt>
      <trkpt lat="47.88992" lon="7.06021">
        <ele>867.3</ele>
        <time>2021-08-07T12:46:35Z</time>
      </trkpt>
      <trkpt lat="47.88989" lon="7.06023">
        <ele>867</ele>
        <time>2021-08-07T12:46:36Z</time>
      </trkpt>
      <trkpt lat="47.88983" lon="7.06029">
        <ele>866</ele>
        <time>2021-08-07T12:46:38Z</time>
      </trkpt>
      <trkpt lat="47.88972" lon="7.06035">
        <ele>864.4</ele>
        <time>2021-08-07T12:46:40Z</time>
      </trkpt>
      <trkpt lat="47.88967" lon="7.06038">
        <ele>863.6</ele>
        <time>2021-08-07T12:46:41Z</time>
      </trkpt>
      <trkpt lat="47.88962" lon="7.06041">
        <ele>862.8</ele>
        <time>2021-08-07T12:46:42Z</time>
      </trkpt>
      <trkpt lat="47.88952" lon="7.06046">
        <ele>861.4</ele>
        <time>2021-08-07T12:46:44Z</time>
      </trkpt>
      <trkpt lat="47.88947" lon="7.0605">
        <ele>860.5</ele>
        <time>2021-08-07T12:46:46Z</time>
      </trkpt>
      <trkpt lat="47.88941" lon="7.06053">
        <ele>859.3</ele>
        <time>2021-08-07T12:46:47Z</time>
      </trkpt>
      <trkpt lat="47.88939" lon="7.06054">
        <ele>859</ele>
        <time>2021-08-07T12:46:48Z</time>
      </trkpt>
      <trkpt lat="47.88935" lon="7.06057">
        <ele>858.2</ele>
        <time>2021-08-07T12:46:49Z</time>
      </trkpt>
      <trkpt lat="47.8893" lon="7.06061">
        <ele>857.3</ele>
        <time>2021-08-07T12:46:51Z</time>
      </trkpt>
      <trkpt lat="47.88924" lon="7.06067">
        <ele>856</ele>
        <time>2021-08-07T12:46:52Z</time>
      </trkpt>
      <trkpt lat="47.88918" lon="7.06072">
        <ele>854.9</ele>
        <time>2021-08-07T12:46:53Z</time>
      </trkpt>
      <trkpt lat="47.88906" lon="7.0608">
        <ele>852.8</ele>
        <time>2021-08-07T12:46:55Z</time>
      </trkpt>
      <trkpt lat="47.88899" lon="7.06083">
        <ele>851.7</ele>
        <time>2021-08-07T12:46:56Z</time>
      </trkpt>
      <trkpt lat="47.88886" lon="7.06091">
        <ele>849.7</ele>
        <time>2021-08-07T12:46:58Z</time>
      </trkpt>
      <trkpt lat="47.88873" lon="7.06101">
        <ele>847.6</ele>
        <time>2021-08-07T12:47:00Z</time>
      </trkpt>
      <trkpt lat="47.88859" lon="7.06109">
        <ele>845.6</ele>
        <time>2021-08-07T12:47:02Z</time>
      </trkpt>
      <trkpt lat="47.88843" lon="7.06117">
        <ele>843.8</ele>
        <time>2021-08-07T12:47:04Z</time>
      </trkpt>
      <trkpt lat="47.88831" lon="7.06124">
        <ele>842.4</ele>
        <time>2021-08-07T12:47:06Z</time>
      </trkpt>
      <trkpt lat="47.88826" lon="7.06126">
        <ele>841.8</ele>
        <time>2021-08-07T12:47:07Z</time>
      </trkpt>
      <trkpt lat="47.88822" lon="7.06127">
        <ele>841.3</ele>
        <time>2021-08-07T12:47:08Z</time>
      </trkpt>
      <trkpt lat="47.88818" lon="7.06127">
        <ele>840.7</ele>
        <time>2021-08-07T12:47:10Z</time>
      </trkpt>
      <trkpt lat="47.88814" lon="7.06128">
        <ele>840.1</ele>
        <time>2021-08-07T12:47:11Z</time>
      </trkpt>
      <trkpt lat="47.88813" lon="7.06128">
        <ele>839.8</ele>
        <time>2021-08-07T12:47:12Z</time>
      </trkpt>
      <trkpt lat="47.88809" lon="7.0613">
        <ele>839.1</ele>
        <time>2021-08-07T12:47:14Z</time>
      </trkpt>
      <trkpt lat="47.88805" lon="7.06135">
        <ele>838.3</ele>
        <time>2021-08-07T12:47:15Z</time>
      </trkpt>
      <trkpt lat="47.88803" lon="7.06136">
        <ele>837.9</ele>
        <time>2021-08-07T12:47:16Z</time>
      </trkpt>
      <trkpt lat="47.88796" lon="7.06138">
        <ele>836.7</ele>
        <time>2021-08-07T12:47:17Z</time>
      </trkpt>
      <trkpt lat="47.88785" lon="7.06144">
        <ele>834.6</ele>
        <time>2021-08-07T12:47:19Z</time>
      </trkpt>
      <trkpt lat="47.8878" lon="7.06147">
        <ele>833.9</ele>
        <time>2021-08-07T12:47:20Z</time>
      </trkpt>
      <trkpt lat="47.88771" lon="7.06154">
        <ele>832.7</ele>
        <time>2021-08-07T12:47:22Z</time>
      </trkpt>
      <trkpt lat="47.88762" lon="7.06159">
        <ele>831.6</ele>
        <time>2021-08-07T12:47:24Z</time>
      </trkpt>
      <trkpt lat="47.88757" lon="7.06162">
        <ele>831.1</ele>
        <time>2021-08-07T12:47:25Z</time>
      </trkpt>
      <trkpt lat="47.88752" lon="7.06165">
        <ele>830.7</ele>
        <time>2021-08-07T12:47:26Z</time>
      </trkpt>
      <trkpt lat="47.88743" lon="7.0617">
        <ele>829.9</ele>
        <time>2021-08-07T12:47:28Z</time>
      </trkpt>
      <trkpt lat="47.88738" lon="7.06172">
        <ele>829.6</ele>
        <time>2021-08-07T12:47:29Z</time>
      </trkpt>
      <trkpt lat="47.88729" lon="7.06174">
        <ele>829.1</ele>
        <time>2021-08-07T12:47:31Z</time>
      </trkpt>
      <trkpt lat="47.88726" lon="7.06175">
        <ele>828.8</ele>
        <time>2021-08-07T12:47:32Z</time>
      </trkpt>
      <trkpt lat="47.88721" lon="7.06175">
        <ele>828.5</ele>
        <time>2021-08-07T12:47:34Z</time>
      </trkpt>
      <trkpt lat="47.88719" lon="7.06171">
        <ele>828.2</ele>
        <time>2021-08-07T12:47:36Z</time>
      </trkpt>
      <trkpt lat="47.88719" lon="7.06169">
        <ele>828</ele>
        <time>2021-08-07T12:47:37Z</time>
      </trkpt>
      <trkpt lat="47.88719" lon="7.06165">
        <ele>827.7</ele>
        <time>2021-08-07T12:47:38Z</time>
      </trkpt>
      <trkpt lat="47.88722" lon="7.06159">
        <ele>827.1</ele>
        <time>2021-08-07T12:47:40Z</time>
      </trkpt>
      <trkpt lat="47.88725" lon="7.06154">
        <ele>826.5</ele>
        <time>2021-08-07T12:47:41Z</time>
      </trkpt>
      <trkpt lat="47.88727" lon="7.06148">
        <ele>825.8</ele>
        <time>2021-08-07T12:47:42Z</time>
      </trkpt>
      <trkpt lat="47.88728" lon="7.06143">
        <ele>825.2</ele>
        <time>2021-08-07T12:47:43Z</time>
      </trkpt>
      <trkpt lat="47.8873" lon="7.06137">
        <ele>824.5</ele>
        <time>2021-08-07T12:47:45Z</time>
      </trkpt>
      <trkpt lat="47.88733" lon="7.06132">
        <ele>823.7</ele>
        <time>2021-08-07T12:47:46Z</time>
      </trkpt>
      <trkpt lat="47.88736" lon="7.06123">
        <ele>822.6</ele>
        <time>2021-08-07T12:47:48Z</time>
      </trkpt>
      <trkpt lat="47.88738" lon="7.06118">
        <ele>821.9</ele>
        <time>2021-08-07T12:47:49Z</time>
      </trkpt>
      <trkpt lat="47.88738" lon="7.06112">
        <ele>821.1</ele>
        <time>2021-08-07T12:47:50Z</time>
      </trkpt>
      <trkpt lat="47.88736" lon="7.06102">
        <ele>819.5</ele>
        <time>2021-08-07T12:47:52Z</time>
      </trkpt>
      <trkpt lat="47.88734" lon="7.06097">
        <ele>818.6</ele>
        <time>2021-08-07T12:47:53Z</time>
      </trkpt>
      <trkpt lat="47.88731" lon="7.0609">
        <ele>817.1</ele>
        <time>2021-08-07T12:47:55Z</time>
      </trkpt>
      <trkpt lat="47.88728" lon="7.06086">
        <ele>815.7</ele>
        <time>2021-08-07T12:47:56Z</time>
      </trkpt>
      <trkpt lat="47.88723" lon="7.06083">
        <ele>813.9</ele>
        <time>2021-08-07T12:47:57Z</time>
      </trkpt>
      <trkpt lat="47.88712" lon="7.06084">
        <ele>810.7</ele>
        <time>2021-08-07T12:47:58Z</time>
      </trkpt>
      <trkpt lat="47.88704" lon="7.06086">
        <ele>808.9</ele>
        <time>2021-08-07T12:47:59Z</time>
      </trkpt>
      <trkpt lat="47.88697" lon="7.06089">
        <ele>807.9</ele>
        <time>2021-08-07T12:48:00Z</time>
      </trkpt>
      <trkpt lat="47.88684" lon="7.06098">
        <ele>806.9</ele>
        <time>2021-08-07T12:48:02Z</time>
      </trkpt>
      <trkpt lat="47.88671" lon="7.06106">
        <ele>805.8</ele>
        <time>2021-08-07T12:48:04Z</time>
      </trkpt>
      <trkpt lat="47.88659" lon="7.06119">
        <ele>804.7</ele>
        <time>2021-08-07T12:48:06Z</time>
      </trkpt>
      <trkpt lat="47.8865" lon="7.06134">
        <ele>803.6</ele>
        <time>2021-08-07T12:48:08Z</time>
      </trkpt>
      <trkpt lat="47.88646" lon="7.0615">
        <ele>802.4</ele>
        <time>2021-08-07T12:48:10Z</time>
      </trkpt>
      <trkpt lat="47.88644" lon="7.06157">
        <ele>801.9</ele>
        <time>2021-08-07T12:48:11Z</time>
      </trkpt>
      <trkpt lat="47.88643" lon="7.06164">
        <ele>801.3</ele>
        <time>2021-08-07T12:48:12Z</time>
      </trkpt>
      <trkpt lat="47.88641" lon="7.0618">
        <ele>800.2</ele>
        <time>2021-08-07T12:48:14Z</time>
      </trkpt>
      <trkpt lat="47.88639" lon="7.062">
        <ele>799.1</ele>
        <time>2021-08-07T12:48:16Z</time>
      </trkpt>
      <trkpt lat="47.88637" lon="7.06208">
        <ele>798.6</ele>
        <time>2021-08-07T12:48:17Z</time>
      </trkpt>
      <trkpt lat="47.88635" lon="7.06216">
        <ele>798.3</ele>
        <time>2021-08-07T12:48:18Z</time>
      </trkpt>
      <trkpt lat="47.88632" lon="7.06224">
        <ele>797.8</ele>
        <time>2021-08-07T12:48:20Z</time>
      </trkpt>
      <trkpt lat="47.8863" lon="7.06231">
        <ele>797.5</ele>
        <time>2021-08-07T12:48:22Z</time>
      </trkpt>
      <trkpt lat="47.88629" lon="7.06236">
        <ele>797.3</ele>
        <time>2021-08-07T12:48:23Z</time>
      </trkpt>
      <trkpt lat="47.88627" lon="7.06244">
        <ele>796.9</ele>
        <time>2021-08-07T12:48:25Z</time>
      </trkpt>
      <trkpt lat="47.88624" lon="7.0625">
        <ele>796.7</ele>
        <time>2021-08-07T12:48:26Z</time>
      </trkpt>
      <trkpt lat="47.88623" lon="7.06253">
        <ele>796.5</ele>
        <time>2021-08-07T12:48:27Z</time>
      </trkpt>
      <trkpt lat="47.8862" lon="7.06262">
        <ele>796.1</ele>
        <time>2021-08-07T12:48:29Z</time>
      </trkpt>
      <trkpt lat="47.88616" lon="7.0627">
        <ele>795.7</ele>
        <time>2021-08-07T12:48:30Z</time>
      </trkpt>
      <trkpt lat="47.8861" lon="7.06284">
        <ele>795</ele>
        <time>2021-08-07T12:48:32Z</time>
      </trkpt>
      <trkpt lat="47.88608" lon="7.06291">
        <ele>794.7</ele>
        <time>2021-08-07T12:48:33Z</time>
      </trkpt>
      <trkpt lat="47.88606" lon="7.06299">
        <ele>794.3</ele>
        <time>2021-08-07T12:48:34Z</time>
      </trkpt>
      <trkpt lat="47.88604" lon="7.06307">
        <ele>794</ele>
        <time>2021-08-07T12:48:35Z</time>
      </trkpt>
      <trkpt lat="47.88602" lon="7.06316">
        <ele>793.7</ele>
        <time>2021-08-07T12:48:36Z</time>
      </trkpt>
      <trkpt lat="47.88601" lon="7.06327">
        <ele>793.4</ele>
        <time>2021-08-07T12:48:38Z</time>
      </trkpt>
      <trkpt lat="47.88598" lon="7.06334">
        <ele>793.2</ele>
        <time>2021-08-07T12:48:39Z</time>
      </trkpt>
      <trkpt lat="47.88595" lon="7.0634">
        <ele>793</ele>
        <time>2021-08-07T12:48:40Z</time>
      </trkpt>
      <trkpt lat="47.88591" lon="7.06346">
        <ele>792.8</ele>
        <time>2021-08-07T12:48:41Z</time>
      </trkpt>
      <trkpt lat="47.88589" lon="7.06357">
        <ele>792.4</ele>
        <time>2021-08-07T12:48:43Z</time>
      </trkpt>
      <trkpt lat="47.88588" lon="7.06364">
        <ele>792.2</ele>
        <time>2021-08-07T12:48:44Z</time>
      </trkpt>
      <trkpt lat="47.88583" lon="7.0638">
        <ele>791.4</ele>
        <time>2021-08-07T12:48:46Z</time>
      </trkpt>
      <trkpt lat="47.88578" lon="7.06396">
        <ele>790.4</ele>
        <time>2021-08-07T12:48:48Z</time>
      </trkpt>
      <trkpt lat="47.88572" lon="7.0641">
        <ele>789.7</ele>
        <time>2021-08-07T12:48:50Z</time>
      </trkpt>
      <trkpt lat="47.88567" lon="7.06426">
        <ele>789.1</ele>
        <time>2021-08-07T12:48:52Z</time>
      </trkpt>
      <trkpt lat="47.88565" lon="7.06433">
        <ele>788.8</ele>
        <time>2021-08-07T12:48:53Z</time>
      </trkpt>
      <trkpt lat="47.88563" lon="7.06437">
        <ele>788.7</ele>
        <time>2021-08-07T12:48:54Z</time>
      </trkpt>
      <trkpt lat="47.88562" lon="7.06442">
        <ele>788.4</ele>
        <time>2021-08-07T12:48:56Z</time>
      </trkpt>
      <trkpt lat="47.88561" lon="7.06449">
        <ele>788.1</ele>
        <time>2021-08-07T12:48:57Z</time>
      </trkpt>
      <trkpt lat="47.88562" lon="7.06454">
        <ele>787.8</ele>
        <time>2021-08-07T12:48:58Z</time>
      </trkpt>
      <trkpt lat="47.88565" lon="7.06459">
        <ele>787.5</ele>
        <time>2021-08-07T12:48:59Z</time>
      </trkpt>
      <trkpt lat="47.88567" lon="7.06463">
        <ele>783.4</ele>
        <time>2021-08-07T12:49:01Z</time>
      </trkpt>
      <trkpt lat="47.8857" lon="7.06468">
        <ele>781.6</ele>
        <time>2021-08-07T12:49:02Z</time>
      </trkpt>
      <trkpt lat="47.8857" lon="7.06473">
        <ele>780.1</ele>
        <time>2021-08-07T12:49:03Z</time>
      </trkpt>
      <trkpt lat="47.8857" lon="7.06478">
        <ele>777.7</ele>
        <time>2021-08-07T12:49:04Z</time>
      </trkpt>
      <trkpt lat="47.88569" lon="7.06483">
        <ele>777.3</ele>
        <time>2021-08-07T12:49:05Z</time>
      </trkpt>
      <trkpt lat="47.88569" lon="7.06485">
        <ele>777.2</ele>
        <time>2021-08-07T12:49:06Z</time>
      </trkpt>
      <trkpt lat="47.88558" lon="7.06488">
        <ele>775.9</ele>
        <time>2021-08-07T12:49:08Z</time>
      </trkpt>
      <trkpt lat="47.8855" lon="7.06493">
        <ele>774.8</ele>
        <time>2021-08-07T12:49:09Z</time>
      </trkpt>
      <trkpt lat="47.88542" lon="7.065">
        <ele>773.8</ele>
        <time>2021-08-07T12:49:10Z</time>
      </trkpt>
      <trkpt lat="47.8853" lon="7.06515">
        <ele>772</ele>
        <time>2021-08-07T12:49:12Z</time>
      </trkpt>
      <trkpt lat="47.88517" lon="7.06526">
        <ele>770.6</ele>
        <time>2021-08-07T12:49:14Z</time>
      </trkpt>
      <trkpt lat="47.88502" lon="7.0653">
        <ele>768.7</ele>
        <time>2021-08-07T12:49:16Z</time>
      </trkpt>
      <trkpt lat="47.88495" lon="7.06528">
        <ele>767.7</ele>
        <time>2021-08-07T12:49:17Z</time>
      </trkpt>
      <trkpt lat="47.8848" lon="7.06515">
        <ele>765.3</ele>
        <time>2021-08-07T12:49:19Z</time>
      </trkpt>
      <trkpt lat="47.88474" lon="7.06507">
        <ele>764</ele>
        <time>2021-08-07T12:49:20Z</time>
      </trkpt>
      <trkpt lat="47.88466" lon="7.06483">
        <ele>761.7</ele>
        <time>2021-08-07T12:49:22Z</time>
      </trkpt>
      <trkpt lat="47.88463" lon="7.06469">
        <ele>760.5</ele>
        <time>2021-08-07T12:49:23Z</time>
      </trkpt>
      <trkpt lat="47.88461" lon="7.06457">
        <ele>759.4</ele>
        <time>2021-08-07T12:49:24Z</time>
      </trkpt>
      <trkpt lat="47.88458" lon="7.06445">
        <ele>759.1</ele>
        <time>2021-08-07T12:49:25Z</time>
      </trkpt>
      <trkpt lat="47.88457" lon="7.06432">
        <ele>758.4</ele>
        <time>2021-08-07T12:49:26Z</time>
      </trkpt>
      <trkpt lat="47.88457" lon="7.06407">
        <ele>756.7</ele>
        <time>2021-08-07T12:49:28Z</time>
      </trkpt>
      <trkpt lat="47.88459" lon="7.06395">
        <ele>755.8</ele>
        <time>2021-08-07T12:49:29Z</time>
      </trkpt>
      <trkpt lat="47.88461" lon="7.06381">
        <ele>754.8</ele>
        <time>2021-08-07T12:49:30Z</time>
      </trkpt>
      <trkpt lat="47.88467" lon="7.06353">
        <ele>752.6</ele>
        <time>2021-08-07T12:49:32Z</time>
      </trkpt>
      <trkpt lat="47.88472" lon="7.06324">
        <ele>750.5</ele>
        <time>2021-08-07T12:49:34Z</time>
      </trkpt>
      <trkpt lat="47.88473" lon="7.06293">
        <ele>748.3</ele>
        <time>2021-08-07T12:49:36Z</time>
      </trkpt>
      <trkpt lat="47.88473" lon="7.06277">
        <ele>747.2</ele>
        <time>2021-08-07T12:49:37Z</time>
      </trkpt>
      <trkpt lat="47.88474" lon="7.06261">
        <ele>746.2</ele>
        <time>2021-08-07T12:49:38Z</time>
      </trkpt>
      <trkpt lat="47.88475" lon="7.06228">
        <ele>744.4</ele>
        <time>2021-08-07T12:49:40Z</time>
      </trkpt>
      <trkpt lat="47.88476" lon="7.06212">
        <ele>743.5</ele>
        <time>2021-08-07T12:49:41Z</time>
      </trkpt>
      <trkpt lat="47.88478" lon="7.06195">
        <ele>742.5</ele>
        <time>2021-08-07T12:49:42Z</time>
      </trkpt>
      <trkpt lat="47.88482" lon="7.06162">
        <ele>740.6</ele>
        <time>2021-08-07T12:49:44Z</time>
      </trkpt>
      <trkpt lat="47.88487" lon="7.0613">
        <ele>738.7</ele>
        <time>2021-08-07T12:49:46Z</time>
      </trkpt>
      <trkpt lat="47.8849" lon="7.06114">
        <ele>737.6</ele>
        <time>2021-08-07T12:49:47Z</time>
      </trkpt>
      <trkpt lat="47.88494" lon="7.06098">
        <ele>736.6</ele>
        <time>2021-08-07T12:49:48Z</time>
      </trkpt>
      <trkpt lat="47.885" lon="7.06069">
        <ele>734.6</ele>
        <time>2021-08-07T12:49:50Z</time>
      </trkpt>
      <trkpt lat="47.88503" lon="7.06044">
        <ele>733.5</ele>
        <time>2021-08-07T12:49:52Z</time>
      </trkpt>
      <trkpt lat="47.88504" lon="7.06033">
        <ele>733.1</ele>
        <time>2021-08-07T12:49:53Z</time>
      </trkpt>
      <trkpt lat="47.88508" lon="7.06011">
        <ele>732.5</ele>
        <time>2021-08-07T12:49:55Z</time>
      </trkpt>
      <trkpt lat="47.8851" lon="7.06002">
        <ele>732.2</ele>
        <time>2021-08-07T12:49:56Z</time>
      </trkpt>
      <trkpt lat="47.88517" lon="7.05988">
        <ele>731.7</ele>
        <time>2021-08-07T12:49:58Z</time>
      </trkpt>
      <trkpt lat="47.88526" lon="7.05979">
        <ele>731.3</ele>
        <time>2021-08-07T12:50:00Z</time>
      </trkpt>
      <trkpt lat="47.88534" lon="7.05976">
        <ele>730.9</ele>
        <time>2021-08-07T12:50:02Z</time>
      </trkpt>
      <trkpt lat="47.88538" lon="7.05973">
        <ele>730.7</ele>
        <time>2021-08-07T12:50:03Z</time>
      </trkpt>
      <trkpt lat="47.88542" lon="7.05967">
        <ele>730.5</ele>
        <time>2021-08-07T12:50:05Z</time>
      </trkpt>
      <trkpt lat="47.88541" lon="7.05965">
        <ele>730.4</ele>
        <time>2021-08-07T12:50:06Z</time>
      </trkpt>
      <trkpt lat="47.88536" lon="7.05962">
        <ele>730.2</ele>
        <time>2021-08-07T12:50:08Z</time>
      </trkpt>
      <trkpt lat="47.88531" lon="7.05965">
        <ele>729.9</ele>
        <time>2021-08-07T12:50:10Z</time>
      </trkpt>
      <trkpt lat="47.8853" lon="7.05969">
        <ele>729.6</ele>
        <time>2021-08-07T12:50:11Z</time>
      </trkpt>
      <trkpt lat="47.88529" lon="7.05971">
        <ele>729.5</ele>
        <time>2021-08-07T12:50:12Z</time>
      </trkpt>
      <trkpt lat="47.88529" lon="7.05975">
        <ele>729.2</ele>
        <time>2021-08-07T12:50:14Z</time>
      </trkpt>
      <trkpt lat="47.88528" lon="7.05977">
        <ele>729</ele>
        <time>2021-08-07T12:50:15Z</time>
      </trkpt>
      <trkpt lat="47.88526" lon="7.05978">
        <ele>728.8</ele>
        <time>2021-08-07T12:50:16Z</time>
      </trkpt>
      <trkpt lat="47.88522" lon="7.05981">
        <ele>728.4</ele>
        <time>2021-08-07T12:50:18Z</time>
      </trkpt>
      <trkpt lat="47.88519" lon="7.05983">
        <ele>728</ele>
        <time>2021-08-07T12:50:19Z</time>
      </trkpt>
      <trkpt lat="47.88518" lon="7.05984">
        <ele>727.8</ele>
        <time>2021-08-07T12:50:20Z</time>
      </trkpt>
      <trkpt lat="47.88513" lon="7.05986">
        <ele>727.4</ele>
        <time>2021-08-07T12:50:22Z</time>
      </trkpt>
      <trkpt lat="47.88511" lon="7.05988">
        <ele>727.1</ele>
        <time>2021-08-07T12:50:23Z</time>
      </trkpt>
      <trkpt lat="47.88507" lon="7.05994">
        <ele>726.6</ele>
        <time>2021-08-07T12:50:25Z</time>
      </trkpt>
      <trkpt lat="47.88499" lon="7.05997">
        <ele>725.9</ele>
        <time>2021-08-07T12:50:27Z</time>
      </trkpt>
      <trkpt lat="47.88494" lon="7.05999">
        <ele>725.5</ele>
        <time>2021-08-07T12:50:28Z</time>
      </trkpt>
      <trkpt lat="47.88485" lon="7.06007">
        <ele>724.7</ele>
        <time>2021-08-07T12:50:30Z</time>
      </trkpt>
      <trkpt lat="47.88481" lon="7.06012">
        <ele>724.3</ele>
        <time>2021-08-07T12:50:31Z</time>
      </trkpt>
      <trkpt lat="47.88471" lon="7.06025">
        <ele>723.3</ele>
        <time>2021-08-07T12:50:33Z</time>
      </trkpt>
      <trkpt lat="47.88461" lon="7.06041">
        <ele>722.2</ele>
        <time>2021-08-07T12:50:35Z</time>
      </trkpt>
      <trkpt lat="47.88456" lon="7.06049">
        <ele>721.5</ele>
        <time>2021-08-07T12:50:36Z</time>
      </trkpt>
      <trkpt lat="47.88451" lon="7.06057">
        <ele>720.9</ele>
        <time>2021-08-07T12:50:37Z</time>
      </trkpt>
      <trkpt lat="47.88444" lon="7.06064">
        <ele>720.2</ele>
        <time>2021-08-07T12:50:38Z</time>
      </trkpt>
      <trkpt lat="47.88431" lon="7.06078">
        <ele>718.7</ele>
        <time>2021-08-07T12:50:40Z</time>
      </trkpt>
      <trkpt lat="47.88423" lon="7.06084">
        <ele>717.8</ele>
        <time>2021-08-07T12:50:41Z</time>
      </trkpt>
      <trkpt lat="47.88414" lon="7.06088">
        <ele>717</ele>
        <time>2021-08-07T12:50:42Z</time>
      </trkpt>
      <trkpt lat="47.88405" lon="7.06091">
        <ele>716.1</ele>
        <time>2021-08-07T12:50:43Z</time>
      </trkpt>
      <trkpt lat="47.88396" lon="7.06094">
        <ele>715.2</ele>
        <time>2021-08-07T12:50:44Z</time>
      </trkpt>
      <trkpt lat="47.88377" lon="7.061">
        <ele>713.3</ele>
        <time>2021-08-07T12:50:46Z</time>
      </trkpt>
      <trkpt lat="47.88359" lon="7.0611">
        <ele>711.6</ele>
        <time>2021-08-07T12:50:48Z</time>
      </trkpt>
      <trkpt lat="47.88352" lon="7.06116">
        <ele>710.8</ele>
        <time>2021-08-07T12:50:49Z</time>
      </trkpt>
      <trkpt lat="47.88345" lon="7.06123">
        <ele>710.1</ele>
        <time>2021-08-07T12:50:50Z</time>
      </trkpt>
      <trkpt lat="47.88333" lon="7.06144">
        <ele>708.5</ele>
        <time>2021-08-07T12:50:52Z</time>
      </trkpt>
      <trkpt lat="47.8833" lon="7.06157">
        <ele>707.7</ele>
        <time>2021-08-07T12:50:53Z</time>
      </trkpt>
      <trkpt lat="47.88327" lon="7.06171">
        <ele>706.9</ele>
        <time>2021-08-07T12:50:54Z</time>
      </trkpt>
      <trkpt lat="47.88322" lon="7.06197">
        <ele>705.4</ele>
        <time>2021-08-07T12:50:56Z</time>
      </trkpt>
      <trkpt lat="47.8832" lon="7.06222">
        <ele>704.3</ele>
        <time>2021-08-07T12:50:58Z</time>
      </trkpt>
      <trkpt lat="47.88319" lon="7.06235">
        <ele>703.8</ele>
        <time>2021-08-07T12:50:59Z</time>
      </trkpt>
      <trkpt lat="47.88315" lon="7.06258">
        <ele>703</ele>
        <time>2021-08-07T12:51:01Z</time>
      </trkpt>
      <trkpt lat="47.88312" lon="7.06268">
        <ele>702.7</ele>
        <time>2021-08-07T12:51:02Z</time>
      </trkpt>
      <trkpt lat="47.88306" lon="7.06281">
        <ele>702.2</ele>
        <time>2021-08-07T12:51:04Z</time>
      </trkpt>
      <trkpt lat="47.88303" lon="7.06281">
        <ele>701.8</ele>
        <time>2021-08-07T12:51:05Z</time>
      </trkpt>
      <trkpt lat="47.88301" lon="7.06277">
        <ele>701.5</ele>
        <time>2021-08-07T12:51:06Z</time>
      </trkpt>
      <trkpt lat="47.88298" lon="7.06259">
        <ele>700.7</ele>
        <time>2021-08-07T12:51:08Z</time>
      </trkpt>
      <trkpt lat="47.88298" lon="7.06248">
        <ele>700.2</ele>
        <time>2021-08-07T12:51:09Z</time>
      </trkpt>
      <trkpt lat="47.88302" lon="7.06217">
        <ele>698.6</ele>
        <time>2021-08-07T12:51:11Z</time>
      </trkpt>
      <trkpt lat="47.88304" lon="7.06187">
        <ele>697</ele>
        <time>2021-08-07T12:51:13Z</time>
      </trkpt>
      <trkpt lat="47.88303" lon="7.06172">
        <ele>696.1</ele>
        <time>2021-08-07T12:51:14Z</time>
      </trkpt>
      <trkpt lat="47.88299" lon="7.06144">
        <ele>694.4</ele>
        <time>2021-08-07T12:51:16Z</time>
      </trkpt>
      <trkpt lat="47.88293" lon="7.06116">
        <ele>693.1</ele>
        <time>2021-08-07T12:51:18Z</time>
      </trkpt>
      <trkpt lat="47.8829" lon="7.06087">
        <ele>692</ele>
        <time>2021-08-07T12:51:20Z</time>
      </trkpt>
      <trkpt lat="47.8829" lon="7.06058">
        <ele>691</ele>
        <time>2021-08-07T12:51:22Z</time>
      </trkpt>
      <trkpt lat="47.88291" lon="7.06045">
        <ele>690.7</ele>
        <time>2021-08-07T12:51:23Z</time>
      </trkpt>
      <trkpt lat="47.88292" lon="7.06032">
        <ele>690.3</ele>
        <time>2021-08-07T12:51:24Z</time>
      </trkpt>
      <trkpt lat="47.88297" lon="7.06011">
        <ele>689.6</ele>
        <time>2021-08-07T12:51:26Z</time>
      </trkpt>
      <trkpt lat="47.88301" lon="7.05989">
        <ele>688</ele>
        <time>2021-08-07T12:51:28Z</time>
      </trkpt>
      <trkpt lat="47.88304" lon="7.05966">
        <ele>687.5</ele>
        <time>2021-08-07T12:51:30Z</time>
      </trkpt>
      <trkpt lat="47.88304" lon="7.05949">
        <ele>687.1</ele>
        <time>2021-08-07T12:51:32Z</time>
      </trkpt>
      <trkpt lat="47.88299" lon="7.05936">
        <ele>686.8</ele>
        <time>2021-08-07T12:51:34Z</time>
      </trkpt>
      <trkpt lat="47.88284" lon="7.05937">
        <ele>686.3</ele>
        <time>2021-08-07T12:51:36Z</time>
      </trkpt>
      <trkpt lat="47.88266" lon="7.05955">
        <ele>685.5</ele>
        <time>2021-08-07T12:51:38Z</time>
      </trkpt>
      <trkpt lat="47.8825" lon="7.05989">
        <ele>684.1</ele>
        <time>2021-08-07T12:51:40Z</time>
      </trkpt>
      <trkpt lat="47.88242" lon="7.06002">
        <ele>683</ele>
        <time>2021-08-07T12:51:41Z</time>
      </trkpt>
      <trkpt lat="47.88228" lon="7.06016">
        <ele>681.5</ele>
        <time>2021-08-07T12:51:43Z</time>
      </trkpt>
      <trkpt lat="47.8822" lon="7.06021">
        <ele>680.7</ele>
        <time>2021-08-07T12:51:44Z</time>
      </trkpt>
      <trkpt lat="47.88201" lon="7.06027">
        <ele>678.8</ele>
        <time>2021-08-07T12:51:46Z</time>
      </trkpt>
      <trkpt lat="47.88192" lon="7.06025">
        <ele>677.8</ele>
        <time>2021-08-07T12:51:47Z</time>
      </trkpt>
      <trkpt lat="47.88182" lon="7.0602">
        <ele>676.6</ele>
        <time>2021-08-07T12:51:48Z</time>
      </trkpt>
      <trkpt lat="47.88163" lon="7.06005">
        <ele>674.3</ele>
        <time>2021-08-07T12:51:50Z</time>
      </trkpt>
      <trkpt lat="47.88144" lon="7.05989">
        <ele>672.1</ele>
        <time>2021-08-07T12:51:52Z</time>
      </trkpt>
      <trkpt lat="47.8813" lon="7.05976">
        <ele>670.6</ele>
        <time>2021-08-07T12:51:54Z</time>
      </trkpt>
      <trkpt lat="47.88119" lon="7.05967">
        <ele>669.4</ele>
        <time>2021-08-07T12:51:56Z</time>
      </trkpt>
      <trkpt lat="47.88116" lon="7.05964">
        <ele>669.1</ele>
        <time>2021-08-07T12:51:57Z</time>
      </trkpt>
      <trkpt lat="47.88104" lon="7.05952">
        <ele>667.9</ele>
        <time>2021-08-07T12:51:59Z</time>
      </trkpt>
      <trkpt lat="47.88088" lon="7.05939">
        <ele>667</ele>
        <time>2021-08-07T12:52:01Z</time>
      </trkpt>
      <trkpt lat="47.88082" lon="7.05934">
        <ele>666.1</ele>
        <time>2021-08-07T12:52:02Z</time>
      </trkpt>
      <trkpt lat="47.88075" lon="7.05922">
        <ele>665.1</ele>
        <time>2021-08-07T12:52:04Z</time>
      </trkpt>
      <trkpt lat="47.88072" lon="7.0591">
        <ele>664.5</ele>
        <time>2021-08-07T12:52:06Z</time>
      </trkpt>
      <trkpt lat="47.88072" lon="7.05901">
        <ele>664</ele>
        <time>2021-08-07T12:52:07Z</time>
      </trkpt>
      <trkpt lat="47.88071" lon="7.05896">
        <ele>663.7</ele>
        <time>2021-08-07T12:52:08Z</time>
      </trkpt>
      <trkpt lat="47.88069" lon="7.05886">
        <ele>663.2</ele>
        <time>2021-08-07T12:52:10Z</time>
      </trkpt>
      <trkpt lat="47.88066" lon="7.05879">
        <ele>663.1</ele>
        <time>2021-08-07T12:52:12Z</time>
      </trkpt>
      <trkpt lat="47.88064" lon="7.05873">
        <ele>663.1</ele>
        <time>2021-08-07T12:52:14Z</time>
      </trkpt>
      <trkpt lat="47.88063" lon="7.05868">
        <ele>663.1</ele>
        <time>2021-08-07T12:52:16Z</time>
      </trkpt>
      <trkpt lat="47.88063" lon="7.05867">
        <ele>663.1</ele>
        <time>2021-08-07T12:52:18Z</time>
      </trkpt>
      <trkpt lat="47.88063" lon="7.05869">
        <ele>663.1</ele>
        <time>2021-08-07T12:52:19Z</time>
      </trkpt>
      <trkpt lat="47.88064" lon="7.0587">
        <ele>663.1</ele>
        <time>2021-08-07T12:52:20Z</time>
      </trkpt>
      <trkpt lat="47.88064" lon="7.05871">
        <ele>663.1</ele>
        <time>2021-08-07T12:52:22Z</time>
      </trkpt>
      <trkpt lat="47.88063" lon="7.05873">
        <ele>663.1</ele>
        <time>2021-08-07T12:52:23Z</time>
      </trkpt>
      <trkpt lat="47.88064" lon="7.0588">
        <ele>663.1</ele>
        <time>2021-08-07T12:52:25Z</time>
      </trkpt>
      <trkpt lat="47.88064" lon="7.05883">
        <ele>663.1</ele>
        <time>2021-08-07T12:52:26Z</time>
      </trkpt>
      <trkpt lat="47.88066" lon="7.05889">
        <ele>663.1</ele>
        <time>2021-08-07T12:52:28Z</time>
      </trkpt>
      <trkpt lat="47.88067" lon="7.0589">
        <ele>663.1</ele>
        <time>2021-08-07T12:52:30Z</time>
      </trkpt>
      <trkpt lat="47.88067" lon="7.0589">
        <ele>663.1</ele>
        <time>2021-08-07T12:52:32Z</time>
      </trkpt>
      <trkpt lat="47.88068" lon="7.05891">
        <ele>663.1</ele>
        <time>2021-08-07T12:52:34Z</time>
      </trkpt>
      <trkpt lat="47.88068" lon="7.05891">
        <ele>663.1</ele>
        <time>2021-08-07T12:52:36Z</time>
      </trkpt>
      <trkpt lat="47.88069" lon="7.05891">
        <ele>663.1</ele>
        <time>2021-08-07T12:53:59Z</time>
      </trkpt>
      <trkpt lat="47.88069" lon="7.05892">
        <ele>663.1</ele>
        <time>2021-08-07T12:54:00Z</time>
      </trkpt>
      <trkpt lat="47.8807" lon="7.05892">
        <ele>663.1</ele>
        <time>2021-08-07T12:54:02Z</time>
      </trkpt>
      <trkpt lat="47.8807" lon="7.05893">
        <ele>663.1</ele>
        <time>2021-08-07T12:54:03Z</time>
      </trkpt>
      <trkpt lat="47.8807" lon="7.05891">
        <ele>663.1</ele>
        <time>2021-08-07T12:54:04Z</time>
      </trkpt>
      <trkpt lat="47.88069" lon="7.0589">
        <ele>663.1</ele>
        <time>2021-08-07T12:54:05Z</time>
      </trkpt>
      <trkpt lat="47.88069" lon="7.05888">
        <ele>663.1</ele>
        <time>2021-08-07T12:54:06Z</time>
      </trkpt>
      <trkpt lat="47.88068" lon="7.05885">
        <ele>663.1</ele>
        <time>2021-08-07T12:54:07Z</time>
      </trkpt>
      <trkpt lat="47.88067" lon="7.05884">
        <ele>663.1</ele>
        <time>2021-08-07T12:54:09Z</time>
      </trkpt>
      <trkpt lat="47.88067" lon="7.05883">
        <ele>663.1</ele>
        <time>2021-08-07T12:54:10Z</time>
      </trkpt>
      <trkpt lat="47.88067" lon="7.05882">
        <ele>663.1</ele>
        <time>2021-08-07T12:54:12Z</time>
      </trkpt>
      <trkpt lat="47.88066" lon="7.05882">
        <ele>663.1</ele>
        <time>2021-08-07T12:54:13Z</time>
      </trkpt>
      <trkpt lat="47.88066" lon="7.05881">
        <ele>663.1</ele>
        <time>2021-08-07T12:54:15Z</time>
      </trkpt>
      <trkpt lat="47.88058" lon="7.05871">
        <ele>663</ele>
        <time>2021-08-07T12:55:13Z</time>
      </trkpt>
      <trkpt lat="47.88056" lon="7.05858">
        <ele>663</ele>
        <time>2021-08-07T12:55:31Z</time>
      </trkpt>
      <trkpt lat="47.88055" lon="7.05853">
        <ele>663</ele>
        <time>2021-08-07T12:55:37Z</time>
      </trkpt>
      <trkpt lat="47.88056" lon="7.05854">
        <ele>663</ele>
        <time>2021-08-07T12:55:43Z</time>
      </trkpt>
      <trkpt lat="47.88054" lon="7.05853">
        <ele>663</ele>
        <time>2021-08-07T12:55:49Z</time>
      </trkpt>
      <trkpt lat="47.88056" lon="7.05857">
        <ele>663</ele>
        <time>2021-08-07T12:56:29Z</time>
      </trkpt>
      <trkpt lat="47.88052" lon="7.05854">
        <ele>663</ele>
        <time>2021-08-07T12:56:34Z</time>
      </trkpt>
      <trkpt lat="47.8805" lon="7.05852">
        <ele>663</ele>
        <time>2021-08-07T12:56:40Z</time>
      </trkpt>
      <trkpt lat="47.88051" lon="7.05853">
        <ele>663</ele>
        <time>2021-08-07T12:56:52Z</time>
      </trkpt>
      <trkpt lat="47.88057" lon="7.05857">
        <ele>663</ele>
        <time>2021-08-07T12:58:39Z</time>
      </trkpt>
      <trkpt lat="47.88053" lon="7.05854">
        <ele>663</ele>
        <time>2021-08-07T12:58:45Z</time>
      </trkpt>
      <trkpt lat="47.88054" lon="7.05855">
        <ele>663</ele>
        <time>2021-08-07T12:58:51Z</time>
      </trkpt>
      <trkpt lat="47.88055" lon="7.05855">
        <ele>663</ele>
        <time>2021-08-07T12:59:02Z</time>
      </trkpt>
      <trkpt lat="47.88058" lon="7.05858">
        <ele>663</ele>
        <time>2021-08-07T12:59:40Z</time>
      </trkpt>
      <trkpt lat="47.88055" lon="7.05855">
        <ele>663</ele>
        <time>2021-08-07T12:59:46Z</time>
      </trkpt>
      <trkpt lat="47.88052" lon="7.05854">
        <ele>663</ele>
        <time>2021-08-07T12:59:52Z</time>
      </trkpt>
      <trkpt lat="47.88051" lon="7.05853">
        <ele>663</ele>
        <time>2021-08-07T12:59:57Z</time>
      </trkpt>
      <trkpt lat="47.88061" lon="7.0586">
        <ele>663</ele>
        <time>2021-08-07T13:00:27Z</time>
      </trkpt>
      <trkpt lat="47.88053" lon="7.05855">
        <ele>663</ele>
        <time>2021-08-07T13:00:39Z</time>
      </trkpt>
      <trkpt lat="47.88053" lon="7.05854">
        <ele>663</ele>
        <time>2021-08-07T13:00:40Z</time>
      </trkpt>
      <trkpt lat="47.88053" lon="7.05853">
        <ele>663</ele>
        <time>2021-08-07T13:00:45Z</time>
      </trkpt>
      <trkpt lat="47.88056" lon="7.05851">
        <ele>663</ele>
        <time>2021-08-07T13:00:51Z</time>
      </trkpt>
      <trkpt lat="47.88053" lon="7.05855">
        <ele>663</ele>
        <time>2021-08-07T13:20:51Z</time>
      </trkpt>
      <trkpt lat="47.88051" lon="7.05854">
        <ele>663</ele>
        <time>2021-08-07T13:20:57Z</time>
      </trkpt>
      <trkpt lat="47.88052" lon="7.05854">
        <ele>663</ele>
        <time>2021-08-07T13:21:03Z</time>
      </trkpt>
      <trkpt lat="47.88052" lon="7.05854">
        <ele>663</ele>
        <time>2021-08-07T13:21:05Z</time>
      </trkpt>
      <trkpt lat="47.88052" lon="7.05854">
        <ele>663</ele>
        <time>2021-08-07T13:21:08Z</time>
      </trkpt>
      <trkpt lat="47.88052" lon="7.05854">
        <ele>663</ele>
        <time>2021-08-07T13:21:09Z</time>
      </trkpt>
      <trkpt lat="47.88052" lon="7.05852">
        <ele>663</ele>
        <time>2021-08-07T13:21:13Z</time>
      </trkpt>
      <trkpt lat="47.88051" lon="7.05851">
        <ele>663</ele>
        <time>2021-08-07T13:21:15Z</time>
      </trkpt>
      <trkpt lat="47.88051" lon="7.0585">
        <ele>663</ele>
        <time>2021-08-07T13:21:16Z</time>
      </trkpt>
      <trkpt lat="47.88051" lon="7.05849">
        <ele>663</ele>
        <time>2021-08-07T13:21:20Z</time>
      </trkpt>
      <trkpt lat="47.88051" lon="7.0585">
        <ele>663</ele>
        <time>2021-08-07T13:21:21Z</time>
      </trkpt>
      <trkpt lat="47.88052" lon="7.0585">
        <ele>663</ele>
        <time>2021-08-07T13:21:24Z</time>
      </trkpt>
      <trkpt lat="47.88053" lon="7.0585">
        <ele>663</ele>
        <time>2021-08-07T13:21:25Z</time>
      </trkpt>
      <trkpt lat="47.88053" lon="7.05851">
        <ele>663</ele>
        <time>2021-08-07T13:21:26Z</time>
      </trkpt>
      <trkpt lat="47.88055" lon="7.0586">
        <ele>663</ele>
        <time>2021-08-07T13:21:40Z</time>
      </trkpt>
      <trkpt lat="47.88055" lon="7.0587">
        <ele>663</ele>
        <time>2021-08-07T13:21:42Z</time>
      </trkpt>
      <trkpt lat="47.88056" lon="7.05876">
        <ele>663</ele>
        <time>2021-08-07T13:21:43Z</time>
      </trkpt>
      <trkpt lat="47.88056" lon="7.05879">
        <ele>663</ele>
        <time>2021-08-07T13:21:45Z</time>
      </trkpt>
      <trkpt lat="47.88057" lon="7.0588">
        <ele>663</ele>
        <time>2021-08-07T13:21:46Z</time>
      </trkpt>
      <trkpt lat="47.88058" lon="7.0588">
        <ele>663</ele>
        <time>2021-08-07T13:21:48Z</time>
      </trkpt>
      <trkpt lat="47.88058" lon="7.05879">
        <ele>663</ele>
        <time>2021-08-07T13:21:49Z</time>
      </trkpt>
      <trkpt lat="47.88058" lon="7.05879">
        <ele>663</ele>
        <time>2021-08-07T13:21:51Z</time>
      </trkpt>
      <trkpt lat="47.88058" lon="7.05878">
        <ele>663</ele>
        <time>2021-08-07T13:21:52Z</time>
      </trkpt>
      <trkpt lat="47.88058" lon="7.05877">
        <ele>663</ele>
        <time>2021-08-07T13:21:53Z</time>
      </trkpt>
      <trkpt lat="47.88058" lon="7.05876">
        <ele>663</ele>
        <time>2021-08-07T13:21:55Z</time>
      </trkpt>
      <trkpt lat="47.88058" lon="7.05876">
        <ele>663</ele>
        <time>2021-08-07T13:21:56Z</time>
      </trkpt>
      <trkpt lat="47.88058" lon="7.05875">
        <ele>663</ele>
        <time>2021-08-07T13:21:57Z</time>
      </trkpt>
      <trkpt lat="47.88059" lon="7.05874">
        <ele>663</ele>
        <time>2021-08-07T13:21:59Z</time>
      </trkpt>
      <trkpt lat="47.88059" lon="7.05874">
        <ele>663</ele>
        <time>2021-08-07T13:22:00Z</time>
      </trkpt>
      <trkpt lat="47.8806" lon="7.05873">
        <ele>663</ele>
        <time>2021-08-07T13:22:01Z</time>
      </trkpt>
      <trkpt lat="47.88059" lon="7.05874">
        <ele>663</ele>
        <time>2021-08-07T13:22:03Z</time>
      </trkpt>
      <trkpt lat="47.88058" lon="7.05876">
        <ele>663</ele>
        <time>2021-08-07T13:22:04Z</time>
      </trkpt>
      <trkpt lat="47.88055" lon="7.05877">
        <ele>663</ele>
        <time>2021-08-07T13:22:06Z</time>
      </trkpt>
      <trkpt lat="47.88034" lon="7.05955">
        <ele>662.5</ele>
        <time>2021-08-07T13:46:25Z</time>
      </trkpt>
      <trkpt lat="47.88022" lon="7.0597">
        <ele>662.5</ele>
        <time>2021-08-07T13:46:35Z</time>
      </trkpt>
      <trkpt lat="47.88022" lon="7.05965">
        <ele>662.5</ele>
        <time>2021-08-07T13:46:37Z</time>
      </trkpt>
      <trkpt lat="47.88022" lon="7.05963">
        <ele>662.5</ele>
        <time>2021-08-07T13:46:38Z</time>
      </trkpt>
      <trkpt lat="47.88025" lon="7.05967">
        <ele>662.5</ele>
        <time>2021-08-07T13:46:39Z</time>
      </trkpt>
      <trkpt lat="47.88031" lon="7.05978">
        <ele>662.5</ele>
        <time>2021-08-07T13:46:41Z</time>
      </trkpt>
      <trkpt lat="47.88045" lon="7.0601">
        <ele>662.6</ele>
        <time>2021-08-07T13:46:48Z</time>
      </trkpt>
      <trkpt lat="47.88047" lon="7.06017">
        <ele>662.6</ele>
        <time>2021-08-07T13:46:49Z</time>
      </trkpt>
      <trkpt lat="47.88048" lon="7.0602">
        <ele>662.6</ele>
        <time>2021-08-07T13:46:50Z</time>
      </trkpt>
      <trkpt lat="47.88046" lon="7.0602">
        <ele>662.6</ele>
        <time>2021-08-07T13:46:52Z</time>
      </trkpt>
      <trkpt lat="47.88043" lon="7.06019">
        <ele>662.6</ele>
        <time>2021-08-07T13:46:54Z</time>
      </trkpt>
      <trkpt lat="47.88039" lon="7.06014">
        <ele>662.6</ele>
        <time>2021-08-07T13:46:56Z</time>
      </trkpt>
      <trkpt lat="47.88039" lon="7.06011">
        <ele>662.6</ele>
        <time>2021-08-07T13:46:58Z</time>
      </trkpt>
      <trkpt lat="47.88039" lon="7.06008">
        <ele>662.6</ele>
        <time>2021-08-07T13:46:59Z</time>
      </trkpt>
      <trkpt lat="47.8804" lon="7.06005">
        <ele>662.6</ele>
        <time>2021-08-07T13:53:10Z</time>
      </trkpt>
      <trkpt lat="47.8804" lon="7.06003">
        <ele>662.6</ele>
        <time>2021-08-07T13:53:12Z</time>
      </trkpt>
      <trkpt lat="47.8804" lon="7.06">
        <ele>662.6</ele>
        <time>2021-08-07T13:53:13Z</time>
      </trkpt>
      <trkpt lat="47.88041" lon="7.05997">
        <ele>662.6</ele>
        <time>2021-08-07T13:53:15Z</time>
      </trkpt>
      <trkpt lat="47.88041" lon="7.05994">
        <ele>662.6</ele>
        <time>2021-08-07T13:53:17Z</time>
      </trkpt>
      <trkpt lat="47.88041" lon="7.05992">
        <ele>662.6</ele>
        <time>2021-08-07T13:53:18Z</time>
      </trkpt>
      <trkpt lat="47.88042" lon="7.05989">
        <ele>662.6</ele>
        <time>2021-08-07T13:53:20Z</time>
      </trkpt>
      <trkpt lat="47.88042" lon="7.05986">
        <ele>662.6</ele>
        <time>2021-08-07T13:53:21Z</time>
      </trkpt>
      <trkpt lat="47.88043" lon="7.05984">
        <ele>662.6</ele>
        <time>2021-08-07T13:53:23Z</time>
      </trkpt>
      <trkpt lat="47.88043" lon="7.05981">
        <ele>662.6</ele>
        <time>2021-08-07T13:53:24Z</time>
      </trkpt>
      <trkpt lat="47.88043" lon="7.05978">
        <ele>662.6</ele>
        <time>2021-08-07T13:53:26Z</time>
      </trkpt>
      <trkpt lat="47.88044" lon="7.05975">
        <ele>662.6</ele>
        <time>2021-08-07T13:53:27Z</time>
      </trkpt>
      <trkpt lat="47.88044" lon="7.05973">
        <ele>662.7</ele>
        <time>2021-08-07T13:53:28Z</time>
      </trkpt>
      <trkpt lat="47.88045" lon="7.0597">
        <ele>662.7</ele>
        <time>2021-08-07T13:53:29Z</time>
      </trkpt>
      <trkpt lat="47.88044" lon="7.05966">
        <ele>662.7</ele>
        <time>2021-08-07T13:53:30Z</time>
      </trkpt>
      <trkpt lat="47.88043" lon="7.0596">
        <ele>662.7</ele>
        <time>2021-08-07T13:53:32Z</time>
      </trkpt>
      <trkpt lat="47.88043" lon="7.05958">
        <ele>662.7</ele>
        <time>2021-08-07T13:53:34Z</time>
      </trkpt>
      <trkpt lat="47.88044" lon="7.05957">
        <ele>662.7</ele>
        <time>2021-08-07T13:53:35Z</time>
      </trkpt>
      <trkpt lat="47.88045" lon="7.05956">
        <ele>662.7</ele>
        <time>2021-08-07T13:53:36Z</time>
      </trkpt>
      <trkpt lat="47.88046" lon="7.05955">
        <ele>662.7</ele>
        <time>2021-08-07T13:53:38Z</time>
      </trkpt>
      <trkpt lat="47.88046" lon="7.05955">
        <ele>662.7</ele>
        <time>2021-08-07T13:53:39Z</time>
      </trkpt>
      <trkpt lat="47.88047" lon="7.05955">
        <ele>662.7</ele>
        <time>2021-08-07T13:53:40Z</time>
      </trkpt>
      <trkpt lat="47.88047" lon="7.05955">
        <ele>662.7</ele>
        <time>2021-08-07T13:53:41Z</time>
      </trkpt>
      <trkpt lat="47.88047" lon="7.05955">
        <ele>662.7</ele>
        <time>2021-08-07T13:53:43Z</time>
      </trkpt>
      <trkpt lat="47.88047" lon="7.05955">
        <ele>662.7</ele>
        <time>2021-08-07T13:53:44Z</time>
      </trkpt>
      <trkpt lat="47.88047" lon="7.05955">
        <ele>662.7</ele>
        <time>2021-08-07T13:53:46Z</time>
      </trkpt>
      <trkpt lat="47.88047" lon="7.05955">
        <ele>662.7</ele>
        <time>2021-08-07T13:53:47Z</time>
      </trkpt>
      <trkpt lat="47.88045" lon="7.05956">
        <ele>662.7</ele>
        <time>2021-08-07T13:53:48Z</time>
      </trkpt>
      <trkpt lat="47.88042" lon="7.05959">
        <ele>662.7</ele>
        <time>2021-08-07T13:53:50Z</time>
      </trkpt>
      <trkpt lat="47.88038" lon="7.05959">
        <ele>662.7</ele>
        <time>2021-08-07T13:53:51Z</time>
      </trkpt>
      <trkpt lat="47.88037" lon="7.05959">
        <ele>662.7</ele>
        <time>2021-08-07T13:53:53Z</time>
      </trkpt>
      <trkpt lat="47.88037" lon="7.05959">
        <ele>662.7</ele>
        <time>2021-08-07T13:53:54Z</time>
      </trkpt>
      <trkpt lat="47.88036" lon="7.05959">
        <ele>662.7</ele>
        <time>2021-08-07T13:53:56Z</time>
      </trkpt>
      <trkpt lat="47.88036" lon="7.05959">
        <ele>662.7</ele>
        <time>2021-08-07T13:53:57Z</time>
      </trkpt>
      <trkpt lat="47.88035" lon="7.05959">
        <ele>662.7</ele>
        <time>2021-08-07T13:53:59Z</time>
      </trkpt>
      <trkpt lat="47.88035" lon="7.05959">
        <ele>662.7</ele>
        <time>2021-08-07T13:54:00Z</time>
      </trkpt>
      <trkpt lat="47.88034" lon="7.05959">
        <ele>662.7</ele>
        <time>2021-08-07T13:54:02Z</time>
      </trkpt>
      <trkpt lat="47.88034" lon="7.05959">
        <ele>662.7</ele>
        <time>2021-08-07T13:54:03Z</time>
      </trkpt>
      <trkpt lat="47.88033" lon="7.0596">
        <ele>662.7</ele>
        <time>2021-08-07T13:54:05Z</time>
      </trkpt>
      <trkpt lat="47.88033" lon="7.0596">
        <ele>662.7</ele>
        <time>2021-08-07T13:54:06Z</time>
      </trkpt>
      <trkpt lat="47.88032" lon="7.0596">
        <ele>662.7</ele>
        <time>2021-08-07T13:54:08Z</time>
      </trkpt>
      <trkpt lat="47.88032" lon="7.0596">
        <ele>662.7</ele>
        <time>2021-08-07T13:54:09Z</time>
      </trkpt>
      <trkpt lat="47.8803" lon="7.0596">
        <ele>662.7</ele>
        <time>2021-08-07T13:54:10Z</time>
      </trkpt>
      <trkpt lat="47.88026" lon="7.05959">
        <ele>662.7</ele>
        <time>2021-08-07T13:54:12Z</time>
      </trkpt>
      <trkpt lat="47.88026" lon="7.05963">
        <ele>662.7</ele>
        <time>2021-08-07T13:54:14Z</time>
      </trkpt>
      <trkpt lat="47.88026" lon="7.05964">
        <ele>662.7</ele>
        <time>2021-08-07T13:54:16Z</time>
      </trkpt>
      <trkpt lat="47.88027" lon="7.05965">
        <ele>662.7</ele>
        <time>2021-08-07T13:54:18Z</time>
      </trkpt>
      <trkpt lat="47.88027" lon="7.05965">
        <ele>662.7</ele>
        <time>2021-08-07T13:54:20Z</time>
      </trkpt>
      <trkpt lat="47.88027" lon="7.05965">
        <ele>662.7</ele>
        <time>2021-08-07T13:54:22Z</time>
      </trkpt>
      <trkpt lat="47.88027" lon="7.05965">
        <ele>662.7</ele>
        <time>2021-08-07T13:54:24Z</time>
      </trkpt>
      <trkpt lat="47.88027" lon="7.05965">
        <ele>662.7</ele>
        <time>2021-08-07T13:54:26Z</time>
      </trkpt>
      <trkpt lat="47.88027" lon="7.05965">
        <ele>662.7</ele>
        <time>2021-08-07T13:54:28Z</time>
      </trkpt>
      <trkpt lat="47.88027" lon="7.05965">
        <ele>662.7</ele>
        <time>2021-08-07T13:54:29Z</time>
      </trkpt>
      <trkpt lat="47.88027" lon="7.05965">
        <ele>662.7</ele>
        <time>2021-08-07T13:54:30Z</time>
      </trkpt>
      <trkpt lat="47.88027" lon="7.05965">
        <ele>662.7</ele>
        <time>2021-08-07T13:54:31Z</time>
      </trkpt>
      <trkpt lat="47.88027" lon="7.05965">
        <ele>662.7</ele>
        <time>2021-08-07T13:54:33Z</time>
      </trkpt>
      <trkpt lat="47.88027" lon="7.05965">
        <ele>662.7</ele>
        <time>2021-08-07T13:54:34Z</time>
      </trkpt>
      <trkpt lat="47.88027" lon="7.05965">
        <ele>662.7</ele>
        <time>2021-08-07T13:54:35Z</time>
      </trkpt>
      <trkpt lat="47.88027" lon="7.05965">
        <ele>662.7</ele>
        <time>2021-08-07T13:54:36Z</time>
      </trkpt>
      <trkpt lat="47.88027" lon="7.05965">
        <ele>662.7</ele>
        <time>2021-08-07T13:54:37Z</time>
      </trkpt>
      <trkpt lat="47.88027" lon="7.05965">
        <ele>662.7</ele>
        <time>2021-08-07T13:54:39Z</time>
      </trkpt>
      <trkpt lat="47.88027" lon="7.05965">
        <ele>662.7</ele>
        <time>2021-08-07T13:54:41Z</time>
      </trkpt>
      <trkpt lat="47.88027" lon="7.05965">
        <ele>662.7</ele>
        <time>2021-08-07T13:54:43Z</time>
      </trkpt>
      <trkpt lat="47.88027" lon="7.05965">
        <ele>662.7</ele>
        <time>2021-08-07T13:54:44Z</time>
      </trkpt>
      <trkpt lat="47.88027" lon="7.05965">
        <ele>662.7</ele>
        <time>2021-08-07T13:54:46Z</time>
      </trkpt>
      <trkpt lat="47.88027" lon="7.05965">
        <ele>662.7</ele>
        <time>2021-08-07T13:54:48Z</time>
      </trkpt>
      <trkpt lat="47.88032" lon="7.05969">
        <ele>662.7</ele>
        <time>2021-08-07T13:54:50Z</time>
      </trkpt>
      <trkpt lat="47.88037" lon="7.05973">
        <ele>662.7</ele>
        <time>2021-08-07T13:54:52Z</time>
      </trkpt>
      <trkpt lat="47.88037" lon="7.05972">
        <ele>662.7</ele>
        <time>2021-08-07T13:54:53Z</time>
      </trkpt>
      <trkpt lat="47.88037" lon="7.05971">
        <ele>662.7</ele>
        <time>2021-08-07T13:54:54Z</time>
      </trkpt>
      <trkpt lat="47.88037" lon="7.0597">
        <ele>662.7</ele>
        <time>2021-08-07T13:54:56Z</time>
      </trkpt>
      <trkpt lat="47.88036" lon="7.05969">
        <ele>662.7</ele>
        <time>2021-08-07T13:54:57Z</time>
      </trkpt>
      <trkpt lat="47.88036" lon="7.05968">
        <ele>662.7</ele>
        <time>2021-08-07T13:54:58Z</time>
      </trkpt>
      <trkpt lat="47.88035" lon="7.05966">
        <ele>662.7</ele>
        <time>2021-08-07T13:54:59Z</time>
      </trkpt>
      <trkpt lat="47.88035" lon="7.05966">
        <ele>662.7</ele>
        <time>2021-08-07T13:55:01Z</time>
      </trkpt>
      <trkpt lat="47.88035" lon="7.05965">
        <ele>662.7</ele>
        <time>2021-08-07T13:55:02Z</time>
      </trkpt>
      <trkpt lat="47.88036" lon="7.05965">
        <ele>662.7</ele>
        <time>2021-08-07T13:55:04Z</time>
      </trkpt>
      <trkpt lat="47.88036" lon="7.05965">
        <ele>662.7</ele>
        <time>2021-08-07T13:55:05Z</time>
      </trkpt>
      <trkpt lat="47.88036" lon="7.05965">
        <ele>662.7</ele>
        <time>2021-08-07T13:55:07Z</time>
      </trkpt>
      <trkpt lat="47.88036" lon="7.05965">
        <ele>662.7</ele>
        <time>2021-08-07T13:55:08Z</time>
      </trkpt>
      <trkpt lat="47.88036" lon="7.05965">
        <ele>662.7</ele>
        <time>2021-08-07T13:55:10Z</time>
      </trkpt>
      <trkpt lat="47.88036" lon="7.05965">
        <ele>662.7</ele>
        <time>2021-08-07T13:55:11Z</time>
      </trkpt>
      <trkpt lat="47.88036" lon="7.05965">
        <ele>662.7</ele>
        <time>2021-08-07T13:55:13Z</time>
      </trkpt>
      <trkpt lat="47.88036" lon="7.05965">
        <ele>662.7</ele>
        <time>2021-08-07T13:55:14Z</time>
      </trkpt>
      <trkpt lat="47.88036" lon="7.05965">
        <ele>662.7</ele>
        <time>2021-08-07T13:55:16Z</time>
      </trkpt>
      <trkpt lat="47.88036" lon="7.05965">
        <ele>662.7</ele>
        <time>2021-08-07T13:55:18Z</time>
      </trkpt>
      <trkpt lat="47.88036" lon="7.05965">
        <ele>662.7</ele>
        <time>2021-08-07T13:55:19Z</time>
      </trkpt>
      <trkpt lat="47.88036" lon="7.05965">
        <ele>662.7</ele>
        <time>2021-08-07T13:55:20Z</time>
      </trkpt>
      <trkpt lat="47.88041" lon="7.05971">
        <ele>662.8</ele>
        <time>2021-08-07T13:55:22Z</time>
      </trkpt>
      <trkpt lat="47.88042" lon="7.05973">
        <ele>662.8</ele>
        <time>2021-08-07T13:55:23Z</time>
      </trkpt>
      <trkpt lat="47.88043" lon="7.05974">
        <ele>662.8</ele>
        <time>2021-08-07T13:55:25Z</time>
      </trkpt>
      <trkpt lat="47.88044" lon="7.05975">
        <ele>662.8</ele>
        <time>2021-08-07T13:55:26Z</time>
      </trkpt>
      <trkpt lat="47.88044" lon="7.05975">
        <ele>662.8</ele>
        <time>2021-08-07T13:55:28Z</time>
      </trkpt>
      <trkpt lat="47.88044" lon="7.05975">
        <ele>662.8</ele>
        <time>2021-08-07T13:55:30Z</time>
      </trkpt>
      <trkpt lat="47.88044" lon="7.05975">
        <ele>662.8</ele>
        <time>2021-08-07T13:55:31Z</time>
      </trkpt>
      <trkpt lat="47.88044" lon="7.05975">
        <ele>662.8</ele>
        <time>2021-08-07T13:55:32Z</time>
      </trkpt>
      <trkpt lat="47.88044" lon="7.05975">
        <ele>662.8</ele>
        <time>2021-08-07T13:55:34Z</time>
      </trkpt>
      <trkpt lat="47.88044" lon="7.05975">
        <ele>662.8</ele>
        <time>2021-08-07T13:55:35Z</time>
      </trkpt>
      <trkpt lat="47.88044" lon="7.05975">
        <ele>662.8</ele>
        <time>2021-08-07T13:55:37Z</time>
      </trkpt>
      <trkpt lat="47.88044" lon="7.05975">
        <ele>662.8</ele>
        <time>2021-08-07T13:55:38Z</time>
      </trkpt>
      <trkpt lat="47.88044" lon="7.05975">
        <ele>662.8</ele>
        <time>2021-08-07T13:55:40Z</time>
      </trkpt>
      <trkpt lat="47.88044" lon="7.05975">
        <ele>662.8</ele>
        <time>2021-08-07T13:55:41Z</time>
      </trkpt>
      <trkpt lat="47.88044" lon="7.05975">
        <ele>662.8</ele>
        <time>2021-08-07T13:55:43Z</time>
      </trkpt>
      <trkpt lat="47.88044" lon="7.05975">
        <ele>662.8</ele>
        <time>2021-08-07T13:55:44Z</time>
      </trkpt>
      <trkpt lat="47.88044" lon="7.05975">
        <ele>662.8</ele>
        <time>2021-08-07T13:55:46Z</time>
      </trkpt>
      <trkpt lat="47.88044" lon="7.05975">
        <ele>662.8</ele>
        <time>2021-08-07T13:55:48Z</time>
      </trkpt>
      <trkpt lat="47.88044" lon="7.05975">
        <ele>662.8</ele>
        <time>2021-08-07T13:55:49Z</time>
      </trkpt>
      <trkpt lat="47.88044" lon="7.05975">
        <ele>662.8</ele>
        <time>2021-08-07T13:55:50Z</time>
      </trkpt>
      <trkpt lat="47.88044" lon="7.05975">
        <ele>662.8</ele>
        <time>2021-08-07T13:55:52Z</time>
      </trkpt>
      <trkpt lat="47.88044" lon="7.05975">
        <ele>662.8</ele>
        <time>2021-08-07T13:55:53Z</time>
      </trkpt>
      <trkpt lat="47.88044" lon="7.05975">
        <ele>662.8</ele>
        <time>2021-08-07T13:55:55Z</time>
      </trkpt>
      <trkpt lat="47.88044" lon="7.05975">
        <ele>662.8</ele>
        <time>2021-08-07T13:55:56Z</time>
      </trkpt>
      <trkpt lat="47.88044" lon="7.05975">
        <ele>662.8</ele>
        <time>2021-08-07T13:55:58Z</time>
      </trkpt>
      <trkpt lat="47.88044" lon="7.05975">
        <ele>662.8</ele>
        <time>2021-08-07T13:56:00Z</time>
      </trkpt>
      <trkpt lat="47.88044" lon="7.05975">
        <ele>662.8</ele>
        <time>2021-08-07T13:56:01Z</time>
      </trkpt>
      <trkpt lat="47.88044" lon="7.05975">
        <ele>662.8</ele>
        <time>2021-08-07T13:56:02Z</time>
      </trkpt>
      <trkpt lat="47.88044" lon="7.05975">
        <ele>662.8</ele>
        <time>2021-08-07T13:56:04Z</time>
      </trkpt>
      <trkpt lat="47.88044" lon="7.05975">
        <ele>662.8</ele>
        <time>2021-08-07T13:56:06Z</time>
      </trkpt>
      <trkpt lat="47.88044" lon="7.05975">
        <ele>662.8</ele>
        <time>2021-08-07T13:56:08Z</time>
      </trkpt>
      <trkpt lat="47.88044" lon="7.05975">
        <ele>662.8</ele>
        <time>2021-08-07T13:56:10Z</time>
      </trkpt>
      <trkpt lat="47.88044" lon="7.05975">
        <ele>662.8</ele>
        <time>2021-08-07T13:56:12Z</time>
      </trkpt>
      <trkpt lat="47.88044" lon="7.05975">
        <ele>662.8</ele>
        <time>2021-08-07T13:56:13Z</time>
      </trkpt>
      <trkpt lat="47.88044" lon="7.05975">
        <ele>662.8</ele>
        <time>2021-08-07T13:56:14Z</time>
      </trkpt>
      <trkpt lat="47.88044" lon="7.05975">
        <ele>662.8</ele>
        <time>2021-08-07T13:56:16Z</time>
      </trkpt>
      <trkpt lat="47.88044" lon="7.05975">
        <ele>662.8</ele>
        <time>2021-08-07T13:56:18Z</time>
      </trkpt>
      <trkpt lat="47.88044" lon="7.05975">
        <ele>662.8</ele>
        <time>2021-08-07T13:56:19Z</time>
      </trkpt>
      <trkpt lat="47.88044" lon="7.05975">
        <ele>662.8</ele>
        <time>2021-08-07T13:56:20Z</time>
      </trkpt>
      <trkpt lat="47.88044" lon="7.05975">
        <ele>662.8</ele>
        <time>2021-08-07T13:56:22Z</time>
      </trkpt>
      <trkpt lat="47.88044" lon="7.05975">
        <ele>662.8</ele>
        <time>2021-08-07T13:56:24Z</time>
      </trkpt>
      <trkpt lat="47.88044" lon="7.05975">
        <ele>662.8</ele>
        <time>2021-08-07T13:56:26Z</time>
      </trkpt>
      <trkpt lat="47.88044" lon="7.05975">
        <ele>662.8</ele>
        <time>2021-08-07T13:56:28Z</time>
      </trkpt>
      <trkpt lat="47.88044" lon="7.05975">
        <ele>662.8</ele>
        <time>2021-08-07T13:56:30Z</time>
      </trkpt>
      <trkpt lat="47.88044" lon="7.05975">
        <ele>662.8</ele>
        <time>2021-08-07T13:56:31Z</time>
      </trkpt>
      <trkpt lat="47.88044" lon="7.05975">
        <ele>662.8</ele>
        <time>2021-08-07T13:56:32Z</time>
      </trkpt>
      <trkpt lat="47.88044" lon="7.05975">
        <ele>662.8</ele>
        <time>2021-08-07T13:56:34Z</time>
      </trkpt>
      <trkpt lat="47.88046" lon="7.05976">
        <ele>662.8</ele>
        <time>2021-08-07T13:56:36Z</time>
      </trkpt>
      <trkpt lat="47.88045" lon="7.05975">
        <ele>662.8</ele>
        <time>2021-08-07T13:56:37Z</time>
      </trkpt>
      <trkpt lat="47.88045" lon="7.05974">
        <ele>662.8</ele>
        <time>2021-08-07T13:56:38Z</time>
      </trkpt>
      <trkpt lat="47.88045" lon="7.05973">
        <ele>662.8</ele>
        <time>2021-08-07T13:56:40Z</time>
      </trkpt>
      <trkpt lat="47.88045" lon="7.0597">
        <ele>662.8</ele>
        <time>2021-08-07T13:56:42Z</time>
      </trkpt>
      <trkpt lat="47.88045" lon="7.05966">
        <ele>662.8</ele>
        <time>2021-08-07T13:56:43Z</time>
      </trkpt>
      <trkpt lat="47.88046" lon="7.05964">
        <ele>662.8</ele>
        <time>2021-08-07T13:56:44Z</time>
      </trkpt>
      <trkpt lat="47.88046" lon="7.05961">
        <ele>662.8</ele>
        <time>2021-08-07T13:56:46Z</time>
      </trkpt>
      <trkpt lat="47.88046" lon="7.05961">
        <ele>662.8</ele>
        <time>2021-08-07T13:56:48Z</time>
      </trkpt>
      <trkpt lat="47.88048" lon="7.05958">
        <ele>662.8</ele>
        <time>2021-08-07T13:56:49Z</time>
      </trkpt>
      <trkpt lat="47.88048" lon="7.05956">
        <ele>662.8</ele>
        <time>2021-08-07T13:56:50Z</time>
      </trkpt>
      <trkpt lat="47.88048" lon="7.05956">
        <ele>662.8</ele>
        <time>2021-08-07T13:56:52Z</time>
      </trkpt>
      <trkpt lat="47.88048" lon="7.05956">
        <ele>662.8</ele>
        <time>2021-08-07T13:56:53Z</time>
      </trkpt>
      <trkpt lat="47.88048" lon="7.05955">
        <ele>662.8</ele>
        <time>2021-08-07T13:56:55Z</time>
      </trkpt>
      <trkpt lat="47.88048" lon="7.05955">
        <ele>662.8</ele>
        <time>2021-08-07T13:56:57Z</time>
      </trkpt>
      <trkpt lat="47.88048" lon="7.05955">
        <ele>662.8</ele>
        <time>2021-08-07T13:56:58Z</time>
      </trkpt>
      <trkpt lat="47.88048" lon="7.05954">
        <ele>662.8</ele>
        <time>2021-08-07T13:57:00Z</time>
      </trkpt>
      <trkpt lat="47.88048" lon="7.05954">
        <ele>662.8</ele>
        <time>2021-08-07T14:03:11Z</time>
      </trkpt>
      <trkpt lat="47.88048" lon="7.05954">
        <ele>662.8</ele>
        <time>2021-08-07T14:03:14Z</time>
      </trkpt>
      <trkpt lat="47.88048" lon="7.05953">
        <ele>662.8</ele>
        <time>2021-08-07T14:03:17Z</time>
      </trkpt>
      <trkpt lat="47.88048" lon="7.05953">
        <ele>662.8</ele>
        <time>2021-08-07T14:03:22Z</time>
      </trkpt>
      <trkpt lat="47.88048" lon="7.05953">
        <ele>662.8</ele>
        <time>2021-08-07T14:03:28Z</time>
      </trkpt>
      <trkpt lat="47.88048" lon="7.05952">
        <ele>662.8</ele>
        <time>2021-08-07T14:03:34Z</time>
      </trkpt>
      <trkpt lat="47.88047" lon="7.05952">
        <ele>662.8</ele>
        <time>2021-08-07T14:03:40Z</time>
      </trkpt>
      <trkpt lat="47.88047" lon="7.05952">
        <ele>662.8</ele>
        <time>2021-08-07T14:03:46Z</time>
      </trkpt>
      <trkpt lat="47.88047" lon="7.05951">
        <ele>662.8</ele>
        <time>2021-08-07T14:04:04Z</time>
      </trkpt>
      <trkpt lat="47.88047" lon="7.05951">
        <ele>662.8</ele>
        <time>2021-08-07T14:04:10Z</time>
      </trkpt>
      <trkpt lat="47.88047" lon="7.05951">
        <ele>662.8</ele>
        <time>2021-08-07T14:27:24Z</time>
      </trkpt>
      <trkpt lat="47.88047" lon="7.0595">
        <ele>662.8</ele>
        <time>2021-08-07T14:27:25Z</time>
      </trkpt>
      <trkpt lat="47.88047" lon="7.0595">
        <ele>662.8</ele>
        <time>2021-08-07T14:27:28Z</time>
      </trkpt>
      <trkpt lat="47.88047" lon="7.0595">
        <ele>662.8</ele>
        <time>2021-08-07T14:27:29Z</time>
      </trkpt>
      <trkpt lat="47.88047" lon="7.05949">
        <ele>662.8</ele>
        <time>2021-08-07T14:27:30Z</time>
      </trkpt>
      <trkpt lat="47.88047" lon="7.05949">
        <ele>662.8</ele>
        <time>2021-08-07T14:27:32Z</time>
      </trkpt>
      <trkpt lat="47.88047" lon="7.05949">
        <ele>662.8</ele>
        <time>2021-08-07T14:27:37Z</time>
      </trkpt>
      <trkpt lat="47.88047" lon="7.05948">
        <ele>662.8</ele>
        <time>2021-08-07T14:27:43Z</time>
      </trkpt>
      <trkpt lat="47.88047" lon="7.05948">
        <ele>662.8</ele>
        <time>2021-08-07T14:35:02Z</time>
      </trkpt>
      <trkpt lat="47.88047" lon="7.05948">
        <ele>662.8</ele>
        <time>2021-08-07T14:35:04Z</time>
      </trkpt>
      <trkpt lat="47.88047" lon="7.05947">
        <ele>662.8</ele>
        <time>2021-08-07T14:35:05Z</time>
      </trkpt>
      <trkpt lat="47.88047" lon="7.05947">
        <ele>662.8</ele>
        <time>2021-08-07T14:35:06Z</time>
      </trkpt>
      <trkpt lat="47.88047" lon="7.05947">
        <ele>662.8</ele>
        <time>2021-08-07T14:35:08Z</time>
      </trkpt>
      <trkpt lat="47.88047" lon="7.05946">
        <ele>662.8</ele>
        <time>2021-08-07T14:35:09Z</time>
      </trkpt>
      <trkpt lat="47.88047" lon="7.05946">
        <ele>662.8</ele>
        <time>2021-08-07T14:35:11Z</time>
      </trkpt>
      <trkpt lat="47.88047" lon="7.05946">
        <ele>662.8</ele>
        <time>2021-08-07T14:35:12Z</time>
      </trkpt>
      <trkpt lat="47.88047" lon="7.05945">
        <ele>662.8</ele>
        <time>2021-08-07T14:35:14Z</time>
      </trkpt>
      <trkpt lat="47.88047" lon="7.05945">
        <ele>662.8</ele>
        <time>2021-08-07T14:45:51Z</time>
      </trkpt>
      <trkpt lat="47.88047" lon="7.05945">
        <ele>662.8</ele>
        <time>2021-08-07T14:45:52Z</time>
      </trkpt>
      <trkpt lat="47.88047" lon="7.05944">
        <ele>662.8</ele>
        <time>2021-08-07T14:45:53Z</time>
      </trkpt>
      <trkpt lat="47.88048" lon="7.05948">
        <ele>662.8</ele>
        <time>2021-08-07T14:45:54Z</time>
      </trkpt>
      <trkpt lat="47.88051" lon="7.05956">
        <ele>662.8</ele>
        <time>2021-08-07T14:45:56Z</time>
      </trkpt>
      <trkpt lat="47.88052" lon="7.05955">
        <ele>662.8</ele>
        <time>2021-08-07T14:45:57Z</time>
      </trkpt>
      <trkpt lat="47.88052" lon="7.05952">
        <ele>662.8</ele>
        <time>2021-08-07T14:45:58Z</time>
      </trkpt>
      <trkpt lat="47.88052" lon="7.05949">
        <ele>662.8</ele>
        <time>2021-08-07T14:46:00Z</time>
      </trkpt>
      <trkpt lat="47.88053" lon="7.05947">
        <ele>662.8</ele>
        <time>2021-08-07T14:46:01Z</time>
      </trkpt>
      <trkpt lat="47.88053" lon="7.05944">
        <ele>662.8</ele>
        <time>2021-08-07T14:46:02Z</time>
      </trkpt>
      <trkpt lat="47.88054" lon="7.05941">
        <ele>662.8</ele>
        <time>2021-08-07T14:46:04Z</time>
      </trkpt>
      <trkpt lat="47.88054" lon="7.05939">
        <ele>662.8</ele>
        <time>2021-08-07T14:48:33Z</time>
      </trkpt>
      <trkpt lat="47.88054" lon="7.05936">
        <ele>662.8</ele>
        <time>2021-08-07T14:48:51Z</time>
      </trkpt>
      <trkpt lat="47.88055" lon="7.05933">
        <ele>662.8</ele>
        <time>2021-08-07T14:48:57Z</time>
      </trkpt>
      <trkpt lat="47.88055" lon="7.05931">
        <ele>662.9</ele>
        <time>2021-08-07T14:49:03Z</time>
      </trkpt>
      <trkpt lat="47.88055" lon="7.05928">
        <ele>662.9</ele>
        <time>2021-08-07T14:49:04Z</time>
      </trkpt>
      <trkpt lat="47.88056" lon="7.05925">
        <ele>662.9</ele>
        <time>2021-08-07T14:49:06Z</time>
      </trkpt>
      <trkpt lat="47.88056" lon="7.05923">
        <ele>662.9</ele>
        <time>2021-08-07T14:49:07Z</time>
      </trkpt>
      <trkpt lat="47.88056" lon="7.0592">
        <ele>662.9</ele>
        <time>2021-08-07T14:49:09Z</time>
      </trkpt>
      <trkpt lat="47.88057" lon="7.05917">
        <ele>662.9</ele>
        <time>2021-08-07T14:49:11Z</time>
      </trkpt>
      <trkpt lat="47.88057" lon="7.05914">
        <ele>662.9</ele>
        <time>2021-08-07T14:49:12Z</time>
      </trkpt>
      <trkpt lat="47.88058" lon="7.05912">
        <ele>662.9</ele>
        <time>2021-08-07T14:49:15Z</time>
      </trkpt>
      <trkpt lat="47.88058" lon="7.05909">
        <ele>662.9</ele>
        <time>2021-08-07T14:49:21Z</time>
      </trkpt>
      <trkpt lat="47.88058" lon="7.05906">
        <ele>662.9</ele>
        <time>2021-08-07T14:49:27Z</time>
      </trkpt>
      <trkpt lat="47.88059" lon="7.05904">
        <ele>662.9</ele>
        <time>2021-08-07T14:49:32Z</time>
      </trkpt>
      <trkpt lat="47.88059" lon="7.05901">
        <ele>662.9</ele>
        <time>2021-08-07T14:49:38Z</time>
      </trkpt>
      <trkpt lat="47.88059" lon="7.05898">
        <ele>662.9</ele>
        <time>2021-08-07T14:49:44Z</time>
      </trkpt>
      <trkpt lat="47.8806" lon="7.05896">
        <ele>662.9</ele>
        <time>2021-08-07T14:49:50Z</time>
      </trkpt>
      <trkpt lat="47.8806" lon="7.05893">
        <ele>662.9</ele>
        <time>2021-08-07T14:49:56Z</time>
      </trkpt>
      <trkpt lat="47.8806" lon="7.0589">
        <ele>662.9</ele>
        <time>2021-08-07T14:50:02Z</time>
      </trkpt>
      <trkpt lat="47.88061" lon="7.05888">
        <ele>663</ele>
        <time>2021-08-07T14:50:08Z</time>
      </trkpt>
      <trkpt lat="47.88061" lon="7.05885">
        <ele>663</ele>
        <time>2021-08-07T14:50:14Z</time>
      </trkpt>
      <trkpt lat="47.88062" lon="7.05882">
        <ele>663</ele>
        <time>2021-08-07T14:50:20Z</time>
      </trkpt>
      <trkpt lat="47.88062" lon="7.0588">
        <ele>663</ele>
        <time>2021-08-07T14:50:26Z</time>
      </trkpt>
      <trkpt lat="47.88062" lon="7.05877">
        <ele>663</ele>
        <time>2021-08-07T14:50:32Z</time>
      </trkpt>
      <trkpt lat="47.88063" lon="7.05874">
        <ele>663.1</ele>
        <time>2021-08-07T14:50:34Z</time>
      </trkpt>
      <trkpt lat="47.88064" lon="7.0587">
        <ele>663.1</ele>
        <time>2021-08-07T14:50:35Z</time>
      </trkpt>
      <trkpt lat="47.88063" lon="7.05871">
        <ele>663.1</ele>
        <time>2021-08-07T14:50:36Z</time>
      </trkpt>
      <trkpt lat="47.88061" lon="7.05874">
        <ele>663.1</ele>
        <time>2021-08-07T14:50:38Z</time>
      </trkpt>
      <trkpt lat="47.8806" lon="7.05876">
        <ele>663.1</ele>
        <time>2021-08-07T14:50:39Z</time>
      </trkpt>
      <trkpt lat="47.88059" lon="7.05876">
        <ele>663.1</ele>
        <time>2021-08-07T14:50:40Z</time>
      </trkpt>
      <trkpt lat="47.8806" lon="7.05876">
        <ele>663.1</ele>
        <time>2021-08-07T14:50:42Z</time>
      </trkpt>
      <trkpt lat="47.8806" lon="7.05875">
        <ele>663.1</ele>
        <time>2021-08-07T14:50:44Z</time>
      </trkpt>
      <trkpt lat="47.88061" lon="7.05874">
        <ele>663.1</ele>
        <time>2021-08-07T14:50:45Z</time>
      </trkpt>
      <trkpt lat="47.88061" lon="7.05874">
        <ele>663.1</ele>
        <time>2021-08-07T14:50:46Z</time>
      </trkpt>
      <trkpt lat="47.88061" lon="7.05873">
        <ele>663.1</ele>
        <time>2021-08-07T14:50:47Z</time>
      </trkpt>
      <trkpt lat="47.88061" lon="7.05875">
        <ele>663.1</ele>
        <time>2021-08-07T14:50:49Z</time>
      </trkpt>
      <trkpt lat="47.88061" lon="7.05876">
        <ele>663.1</ele>
        <time>2021-08-07T14:50:50Z</time>
      </trkpt>
      <trkpt lat="47.88061" lon="7.05877">
        <ele>663.1</ele>
        <time>2021-08-07T14:50:52Z</time>
      </trkpt>
      <trkpt lat="47.88061" lon="7.05877">
        <ele>663.1</ele>
        <time>2021-08-07T14:50:53Z</time>
      </trkpt>
      <trkpt lat="47.88061" lon="7.05877">
        <ele>663.1</ele>
        <time>2021-08-07T14:50:54Z</time>
      </trkpt>
      <trkpt lat="47.88061" lon="7.05878">
        <ele>663.1</ele>
        <time>2021-08-07T14:50:56Z</time>
      </trkpt>
      <trkpt lat="47.88061" lon="7.05878">
        <ele>663.1</ele>
        <time>2021-08-07T14:50:57Z</time>
      </trkpt>
      <trkpt lat="47.88061" lon="7.05878">
        <ele>663.1</ele>
        <time>2021-08-07T14:50:59Z</time>
      </trkpt>
      <trkpt lat="47.88061" lon="7.05878">
        <ele>663.1</ele>
        <time>2021-08-07T14:51:01Z</time>
      </trkpt>
      <trkpt lat="47.88061" lon="7.05878">
        <ele>663.1</ele>
        <time>2021-08-07T14:51:02Z</time>
      </trkpt>
      <trkpt lat="47.88061" lon="7.05878">
        <ele>663.1</ele>
        <time>2021-08-07T14:51:04Z</time>
      </trkpt>
      <trkpt lat="47.88061" lon="7.05878">
        <ele>663.1</ele>
        <time>2021-08-07T14:51:05Z</time>
      </trkpt>
      <trkpt lat="47.88061" lon="7.05878">
        <ele>663.1</ele>
        <time>2021-08-07T14:51:07Z</time>
      </trkpt>
      <trkpt lat="47.88061" lon="7.05878">
        <ele>663.1</ele>
        <time>2021-08-07T14:51:08Z</time>
      </trkpt>
      <trkpt lat="47.88061" lon="7.05878">
        <ele>663.1</ele>
        <time>2021-08-07T14:51:10Z</time>
      </trkpt>
      <trkpt lat="47.88062" lon="7.05877">
        <ele>663.1</ele>
        <time>2021-08-07T14:51:12Z</time>
      </trkpt>
      <trkpt lat="47.88063" lon="7.05875">
        <ele>663.1</ele>
        <time>2021-08-07T14:51:14Z</time>
      </trkpt>
      <trkpt lat="47.88065" lon="7.05873">
        <ele>663.1</ele>
        <time>2021-08-07T14:51:15Z</time>
      </trkpt>
      <trkpt lat="47.88068" lon="7.05871">
        <ele>663.1</ele>
        <time>2021-08-07T14:51:17Z</time>
      </trkpt>
      <trkpt lat="47.88069" lon="7.05872">
        <ele>663.1</ele>
        <time>2021-08-07T14:51:18Z</time>
      </trkpt>
      <trkpt lat="47.88071" lon="7.05872">
        <ele>663.1</ele>
        <time>2021-08-07T14:51:20Z</time>
      </trkpt>
      <trkpt lat="47.88072" lon="7.05871">
        <ele>663.1</ele>
        <time>2021-08-07T14:51:21Z</time>
      </trkpt>
      <trkpt lat="47.88072" lon="7.05871">
        <ele>663.1</ele>
        <time>2021-08-07T14:51:22Z</time>
      </trkpt>
      <trkpt lat="47.88073" lon="7.05871">
        <ele>663.1</ele>
        <time>2021-08-07T14:51:24Z</time>
      </trkpt>
      <trkpt lat="47.88074" lon="7.05871">
        <ele>663.1</ele>
        <time>2021-08-07T14:51:26Z</time>
      </trkpt>
      <trkpt lat="47.88074" lon="7.05871">
        <ele>663.1</ele>
        <time>2021-08-07T14:51:27Z</time>
      </trkpt>
      <trkpt lat="47.88074" lon="7.05871">
        <ele>663.1</ele>
        <time>2021-08-07T14:51:28Z</time>
      </trkpt>
      <trkpt lat="47.88074" lon="7.05871">
        <ele>663.1</ele>
        <time>2021-08-07T14:51:30Z</time>
      </trkpt>
      <trkpt lat="47.88074" lon="7.05871">
        <ele>663.1</ele>
        <time>2021-08-07T14:51:32Z</time>
      </trkpt>
      <trkpt lat="47.88074" lon="7.05871">
        <ele>663.1</ele>
        <time>2021-08-07T14:51:33Z</time>
      </trkpt>
      <trkpt lat="47.88074" lon="7.05871">
        <ele>663.1</ele>
        <time>2021-08-07T14:51:35Z</time>
      </trkpt>
      <trkpt lat="47.88071" lon="7.05875">
        <ele>663.1</ele>
        <time>2021-08-07T14:51:37Z</time>
      </trkpt>
      <trkpt lat="47.88069" lon="7.05878">
        <ele>663.1</ele>
        <time>2021-08-07T14:51:38Z</time>
      </trkpt>
      <trkpt lat="47.88066" lon="7.0588">
        <ele>663.1</ele>
        <time>2021-08-07T14:51:40Z</time>
      </trkpt>
      <trkpt lat="47.88066" lon="7.05881">
        <ele>663.1</ele>
        <time>2021-08-07T14:51:41Z</time>
      </trkpt>
      <trkpt lat="47.88065" lon="7.05881">
        <ele>663.1</ele>
        <time>2021-08-07T14:51:42Z</time>
      </trkpt>
      <trkpt lat="47.88065" lon="7.05882">
        <ele>663.1</ele>
        <time>2021-08-07T14:51:43Z</time>
      </trkpt>
      <trkpt lat="47.88064" lon="7.05882">
        <ele>663.1</ele>
        <time>2021-08-07T14:51:45Z</time>
      </trkpt>
      <trkpt lat="47.88064" lon="7.05882">
        <ele>663.1</ele>
        <time>2021-08-07T14:51:47Z</time>
      </trkpt>
      <trkpt lat="47.88064" lon="7.05882">
        <ele>663.1</ele>
        <time>2021-08-07T14:51:48Z</time>
      </trkpt>
      <trkpt lat="47.88064" lon="7.05882">
        <ele>663.1</ele>
        <time>2021-08-07T14:51:50Z</time>
      </trkpt>
      <trkpt lat="47.88064" lon="7.05882">
        <ele>663.1</ele>
        <time>2021-08-07T14:51:51Z</time>
      </trkpt>
      <trkpt lat="47.88064" lon="7.05882">
        <ele>663.1</ele>
        <time>2021-08-07T14:51:52Z</time>
      </trkpt>
      <trkpt lat="47.88064" lon="7.05882">
        <ele>663.1</ele>
        <time>2021-08-07T14:51:54Z</time>
      </trkpt>
      <trkpt lat="47.88064" lon="7.05882">
        <ele>663.1</ele>
        <time>2021-08-07T14:51:56Z</time>
      </trkpt>
      <trkpt lat="47.88064" lon="7.05882">
        <ele>663.1</ele>
        <time>2021-08-07T14:51:57Z</time>
      </trkpt>
      <trkpt lat="47.88064" lon="7.05882">
        <ele>663.1</ele>
        <time>2021-08-07T14:51:58Z</time>
      </trkpt>
      <trkpt lat="47.88064" lon="7.05882">
        <ele>663.1</ele>
        <time>2021-08-07T14:52:00Z</time>
      </trkpt>
      <trkpt lat="47.88064" lon="7.05882">
        <ele>663.1</ele>
        <time>2021-08-07T14:52:02Z</time>
      </trkpt>
      <trkpt lat="47.88064" lon="7.05882">
        <ele>663.1</ele>
        <time>2021-08-07T14:52:03Z</time>
      </trkpt>
      <trkpt lat="47.88064" lon="7.05882">
        <ele>663.1</ele>
        <time>2021-08-07T14:52:05Z</time>
      </trkpt>
      <trkpt lat="47.88065" lon="7.05879">
        <ele>663.1</ele>
        <time>2021-08-07T14:52:06Z</time>
      </trkpt>
      <trkpt lat="47.88066" lon="7.05876">
        <ele>663.1</ele>
        <time>2021-08-07T14:52:08Z</time>
      </trkpt>
      <trkpt lat="47.88066" lon="7.05876">
        <ele>663.1</ele>
        <time>2021-08-07T14:52:09Z</time>
      </trkpt>
      <trkpt lat="47.88066" lon="7.05877">
        <ele>663.1</ele>
        <time>2021-08-07T14:52:11Z</time>
      </trkpt>
      <trkpt lat="47.88066" lon="7.05877">
        <ele>663.1</ele>
        <time>2021-08-07T14:52:12Z</time>
      </trkpt>
      <trkpt lat="47.88066" lon="7.05877">
        <ele>663.1</ele>
        <time>2021-08-07T14:52:13Z</time>
      </trkpt>
      <trkpt lat="47.88066" lon="7.05878">
        <ele>663.1</ele>
        <time>2021-08-07T14:52:15Z</time>
      </trkpt>
      <trkpt lat="47.88066" lon="7.05878">
        <ele>663.1</ele>
        <time>2021-08-07T14:52:16Z</time>
      </trkpt>
      <trkpt lat="47.88066" lon="7.05879">
        <ele>663.1</ele>
        <time>2021-08-07T14:52:17Z</time>
      </trkpt>
      <trkpt lat="47.88066" lon="7.05879">
        <ele>663.1</ele>
        <time>2021-08-07T14:52:18Z</time>
      </trkpt>
      <trkpt lat="47.88066" lon="7.0588">
        <ele>663.1</ele>
        <time>2021-08-07T14:52:19Z</time>
      </trkpt>
      <trkpt lat="47.88066" lon="7.0588">
        <ele>663.1</ele>
        <time>2021-08-07T14:52:21Z</time>
      </trkpt>
      <trkpt lat="47.88066" lon="7.05881">
        <ele>663.1</ele>
        <time>2021-08-07T14:52:22Z</time>
      </trkpt>
      <trkpt lat="47.88066" lon="7.05881">
        <ele>663.1</ele>
        <time>2021-08-07T14:52:23Z</time>
      </trkpt>
      <trkpt lat="47.88066" lon="7.05881">
        <ele>663.1</ele>
        <time>2021-08-07T14:52:24Z</time>
      </trkpt>
      <trkpt lat="47.88066" lon="7.05882">
        <ele>663.1</ele>
        <time>2021-08-07T14:52:25Z</time>
      </trkpt>
      <trkpt lat="47.88066" lon="7.05882">
        <ele>663.1</ele>
        <time>2021-08-07T14:52:27Z</time>
      </trkpt>
      <trkpt lat="47.88066" lon="7.05883">
        <ele>663.1</ele>
        <time>2021-08-07T14:52:29Z</time>
      </trkpt>
      <trkpt lat="47.88066" lon="7.05883">
        <ele>663.1</ele>
        <time>2021-08-07T14:52:30Z</time>
      </trkpt>
      <trkpt lat="47.88066" lon="7.05884">
        <ele>663.1</ele>
        <time>2021-08-07T14:52:31Z</time>
      </trkpt>
      <trkpt lat="47.88067" lon="7.05888">
        <ele>663</ele>
        <time>2021-08-07T14:52:33Z</time>
      </trkpt>
      <trkpt lat="47.88066" lon="7.05891">
        <ele>663</ele>
        <time>2021-08-07T14:52:35Z</time>
      </trkpt>
      <trkpt lat="47.88066" lon="7.05893">
        <ele>663</ele>
        <time>2021-08-07T14:52:37Z</time>
      </trkpt>
      <trkpt lat="47.88066" lon="7.05893">
        <ele>663</ele>
        <time>2021-08-07T14:52:38Z</time>
      </trkpt>
      <trkpt lat="47.88066" lon="7.05893">
        <ele>663</ele>
        <time>2021-08-07T14:52:40Z</time>
      </trkpt>
      <trkpt lat="47.88066" lon="7.05893">
        <ele>663</ele>
        <time>2021-08-07T14:52:41Z</time>
      </trkpt>
      <trkpt lat="47.88066" lon="7.05893">
        <ele>663</ele>
        <time>2021-08-07T14:52:43Z</time>
      </trkpt>
      <trkpt lat="47.88066" lon="7.05893">
        <ele>663</ele>
        <time>2021-08-07T14:52:44Z</time>
      </trkpt>
      <trkpt lat="47.88066" lon="7.05893">
        <ele>663</ele>
        <time>2021-08-07T14:52:46Z</time>
      </trkpt>
      <trkpt lat="47.88066" lon="7.05893">
        <ele>663</ele>
        <time>2021-08-07T14:52:48Z</time>
      </trkpt>
      <trkpt lat="47.88066" lon="7.05894">
        <ele>663</ele>
        <time>2021-08-07T14:52:50Z</time>
      </trkpt>
      <trkpt lat="47.88066" lon="7.05894">
        <ele>663</ele>
        <time>2021-08-07T14:52:52Z</time>
      </trkpt>
      <trkpt lat="47.88066" lon="7.05894">
        <ele>663</ele>
        <time>2021-08-07T14:52:55Z</time>
      </trkpt>
      <trkpt lat="47.88067" lon="7.05896">
        <ele>663</ele>
        <time>2021-08-07T14:52:56Z</time>
      </trkpt>
      <trkpt lat="47.88067" lon="7.05896">
        <ele>663</ele>
        <time>2021-08-07T14:52:58Z</time>
      </trkpt>
      <trkpt lat="47.88067" lon="7.05896">
        <ele>663</ele>
        <time>2021-08-07T14:53:00Z</time>
      </trkpt>
      <trkpt lat="47.88067" lon="7.05896">
        <ele>663</ele>
        <time>2021-08-07T14:53:01Z</time>
      </trkpt>
      <trkpt lat="47.88067" lon="7.05896">
        <ele>663</ele>
        <time>2021-08-07T14:53:02Z</time>
      </trkpt>
      <trkpt lat="47.88067" lon="7.05896">
        <ele>663</ele>
        <time>2021-08-07T14:53:04Z</time>
      </trkpt>
      <trkpt lat="47.88067" lon="7.05896">
        <ele>663</ele>
        <time>2021-08-07T14:53:06Z</time>
      </trkpt>
      <trkpt lat="47.88067" lon="7.05896">
        <ele>663</ele>
        <time>2021-08-07T14:53:07Z</time>
      </trkpt>
      <trkpt lat="47.88067" lon="7.05896">
        <ele>663</ele>
        <time>2021-08-07T14:53:08Z</time>
      </trkpt>
      <trkpt lat="47.88067" lon="7.05896">
        <ele>663</ele>
        <time>2021-08-07T14:53:10Z</time>
      </trkpt>
      <trkpt lat="47.88067" lon="7.05896">
        <ele>663</ele>
        <time>2021-08-07T14:53:11Z</time>
      </trkpt>
      <trkpt lat="47.88067" lon="7.05896">
        <ele>663</ele>
        <time>2021-08-07T14:53:13Z</time>
      </trkpt>
      <trkpt lat="47.88067" lon="7.05896">
        <ele>663</ele>
        <time>2021-08-07T14:53:14Z</time>
      </trkpt>
      <trkpt lat="47.88067" lon="7.05897">
        <ele>663</ele>
        <time>2021-08-07T14:53:16Z</time>
      </trkpt>
      <trkpt lat="47.88066" lon="7.05897">
        <ele>663</ele>
        <time>2021-08-07T14:53:18Z</time>
      </trkpt>
      <trkpt lat="47.88066" lon="7.05898">
        <ele>663</ele>
        <time>2021-08-07T14:53:19Z</time>
      </trkpt>
      <trkpt lat="47.88066" lon="7.05898">
        <ele>663</ele>
        <time>2021-08-07T14:53:20Z</time>
      </trkpt>
      <trkpt lat="47.88066" lon="7.05899">
        <ele>663</ele>
        <time>2021-08-07T14:53:22Z</time>
      </trkpt>
      <trkpt lat="47.88066" lon="7.05899">
        <ele>663</ele>
        <time>2021-08-07T14:53:23Z</time>
      </trkpt>
      <trkpt lat="47.88064" lon="7.05909">
        <ele>663</ele>
        <time>2021-08-07T14:53:25Z</time>
      </trkpt>
      <trkpt lat="47.88064" lon="7.05911">
        <ele>663</ele>
        <time>2021-08-07T14:53:26Z</time>
      </trkpt>
      <trkpt lat="47.88064" lon="7.0591">
        <ele>663</ele>
        <time>2021-08-07T14:53:27Z</time>
      </trkpt>
      <trkpt lat="47.88064" lon="7.0591">
        <ele>663</ele>
        <time>2021-08-07T14:53:28Z</time>
      </trkpt>
      <trkpt lat="47.88064" lon="7.0591">
        <ele>663</ele>
        <time>2021-08-07T14:53:30Z</time>
      </trkpt>
      <trkpt lat="47.88064" lon="7.0591">
        <ele>663</ele>
        <time>2021-08-07T14:53:31Z</time>
      </trkpt>
      <trkpt lat="47.88063" lon="7.0591">
        <ele>663</ele>
        <time>2021-08-07T14:53:32Z</time>
      </trkpt>
      <trkpt lat="47.88063" lon="7.0591">
        <ele>663</ele>
        <time>2021-08-07T14:53:34Z</time>
      </trkpt>
      <trkpt lat="47.88063" lon="7.0591">
        <ele>663</ele>
        <time>2021-08-07T14:53:35Z</time>
      </trkpt>
      <trkpt lat="47.88063" lon="7.05909">
        <ele>663</ele>
        <time>2021-08-07T14:53:36Z</time>
      </trkpt>
      <trkpt lat="47.88063" lon="7.05909">
        <ele>663</ele>
        <time>2021-08-07T14:53:38Z</time>
      </trkpt>
      <trkpt lat="47.88063" lon="7.05909">
        <ele>663</ele>
        <time>2021-08-07T14:53:40Z</time>
      </trkpt>
      <trkpt lat="47.88063" lon="7.05909">
        <ele>663</ele>
        <time>2021-08-07T14:53:41Z</time>
      </trkpt>
      <trkpt lat="47.88063" lon="7.05909">
        <ele>663</ele>
        <time>2021-08-07T14:53:42Z</time>
      </trkpt>
      <trkpt lat="47.88063" lon="7.05909">
        <ele>663</ele>
        <time>2021-08-07T14:53:44Z</time>
      </trkpt>
      <trkpt lat="47.88063" lon="7.05909">
        <ele>663</ele>
        <time>2021-08-07T14:53:46Z</time>
      </trkpt>
      <trkpt lat="47.88063" lon="7.05909">
        <ele>663</ele>
        <time>2021-08-07T14:53:47Z</time>
      </trkpt>
      <trkpt lat="47.88063" lon="7.05908">
        <ele>663</ele>
        <time>2021-08-07T14:53:48Z</time>
      </trkpt>
      <trkpt lat="47.88063" lon="7.05908">
        <ele>663</ele>
        <time>2021-08-07T14:53:50Z</time>
      </trkpt>
      <trkpt lat="47.88062" lon="7.05908">
        <ele>663</ele>
        <time>2021-08-07T14:53:52Z</time>
      </trkpt>
      <trkpt lat="47.88062" lon="7.05908">
        <ele>663</ele>
        <time>2021-08-07T14:53:53Z</time>
      </trkpt>
      <trkpt lat="47.88062" lon="7.05908">
        <ele>663</ele>
        <time>2021-08-07T14:53:54Z</time>
      </trkpt>
      <trkpt lat="47.88062" lon="7.05908">
        <ele>663</ele>
        <time>2021-08-07T14:53:56Z</time>
      </trkpt>
      <trkpt lat="47.88062" lon="7.05908">
        <ele>663</ele>
        <time>2021-08-07T14:53:58Z</time>
      </trkpt>
      <trkpt lat="47.88062" lon="7.05907">
        <ele>663</ele>
        <time>2021-08-07T14:53:59Z</time>
      </trkpt>
      <trkpt lat="47.88062" lon="7.05907">
        <ele>663</ele>
        <time>2021-08-07T14:54:01Z</time>
      </trkpt>
      <trkpt lat="47.88062" lon="7.05907">
        <ele>663</ele>
        <time>2021-08-07T14:54:02Z</time>
      </trkpt>
      <trkpt lat="47.88062" lon="7.05907">
        <ele>663</ele>
        <time>2021-08-07T14:54:04Z</time>
      </trkpt>
      <trkpt lat="47.88062" lon="7.05907">
        <ele>663</ele>
        <time>2021-08-07T14:54:06Z</time>
      </trkpt>
      <trkpt lat="47.88062" lon="7.05907">
        <ele>663</ele>
        <time>2021-08-07T14:54:07Z</time>
      </trkpt>
      <trkpt lat="47.88062" lon="7.05907">
        <ele>663</ele>
        <time>2021-08-07T14:54:08Z</time>
      </trkpt>
      <trkpt lat="47.88062" lon="7.05907">
        <ele>663</ele>
        <time>2021-08-07T14:54:10Z</time>
      </trkpt>
      <trkpt lat="47.88061" lon="7.05906">
        <ele>663</ele>
        <time>2021-08-07T14:54:12Z</time>
      </trkpt>
      <trkpt lat="47.88061" lon="7.05906">
        <ele>663</ele>
        <time>2021-08-07T14:54:13Z</time>
      </trkpt>
      <trkpt lat="47.88061" lon="7.05906">
        <ele>663</ele>
        <time>2021-08-07T14:54:14Z</time>
      </trkpt>
      <trkpt lat="47.88061" lon="7.05906">
        <ele>663</ele>
        <time>2021-08-07T14:54:16Z</time>
      </trkpt>
      <trkpt lat="47.88061" lon="7.05906">
        <ele>663</ele>
        <time>2021-08-07T14:54:17Z</time>
      </trkpt>
      <trkpt lat="47.88061" lon="7.05906">
        <ele>663</ele>
        <time>2021-08-07T14:54:18Z</time>
      </trkpt>
      <trkpt lat="47.88061" lon="7.05906">
        <ele>663</ele>
        <time>2021-08-07T14:54:20Z</time>
      </trkpt>
      <trkpt lat="47.88061" lon="7.05906">
        <ele>663</ele>
        <time>2021-08-07T14:54:22Z</time>
      </trkpt>
      <trkpt lat="47.88061" lon="7.05905">
        <ele>663</ele>
        <time>2021-08-07T14:54:24Z</time>
      </trkpt>
      <trkpt lat="47.88061" lon="7.05905">
        <ele>663</ele>
        <time>2021-08-07T14:54:25Z</time>
      </trkpt>
      <trkpt lat="47.88061" lon="7.05905">
        <ele>663</ele>
        <time>2021-08-07T14:54:26Z</time>
      </trkpt>
      <trkpt lat="47.88061" lon="7.05905">
        <ele>663</ele>
        <time>2021-08-07T14:54:28Z</time>
      </trkpt>
      <trkpt lat="47.88061" lon="7.05905">
        <ele>663</ele>
        <time>2021-08-07T14:54:30Z</time>
      </trkpt>
      <trkpt lat="47.88061" lon="7.05905">
        <ele>663</ele>
        <time>2021-08-07T14:54:31Z</time>
      </trkpt>
      <trkpt lat="47.8806" lon="7.05905">
        <ele>663</ele>
        <time>2021-08-07T14:54:33Z</time>
      </trkpt>
      <trkpt lat="47.8806" lon="7.05904">
        <ele>663</ele>
        <time>2021-08-07T14:54:35Z</time>
      </trkpt>
      <trkpt lat="47.8806" lon="7.05904">
        <ele>663</ele>
        <time>2021-08-07T14:54:36Z</time>
      </trkpt>
      <trkpt lat="47.8806" lon="7.05904">
        <ele>663</ele>
        <time>2021-08-07T14:54:38Z</time>
      </trkpt>
      <trkpt lat="47.8806" lon="7.05904">
        <ele>663</ele>
        <time>2021-08-07T14:54:40Z</time>
      </trkpt>
      <trkpt lat="47.8806" lon="7.05904">
        <ele>663</ele>
        <time>2021-08-07T14:54:42Z</time>
      </trkpt>
      <trkpt lat="47.8806" lon="7.05904">
        <ele>663</ele>
        <time>2021-08-07T14:54:43Z</time>
      </trkpt>
      <trkpt lat="47.8806" lon="7.05904">
        <ele>663</ele>
        <time>2021-08-07T14:54:44Z</time>
      </trkpt>
      <trkpt lat="47.8806" lon="7.05904">
        <ele>663</ele>
        <time>2021-08-07T14:54:46Z</time>
      </trkpt>
      <trkpt lat="47.8806" lon="7.05903">
        <ele>663</ele>
        <time>2021-08-07T14:54:48Z</time>
      </trkpt>
      <trkpt lat="47.8806" lon="7.05903">
        <ele>663</ele>
        <time>2021-08-07T14:54:49Z</time>
      </trkpt>
      <trkpt lat="47.8806" lon="7.05903">
        <ele>663</ele>
        <time>2021-08-07T14:54:50Z</time>
      </trkpt>
      <trkpt lat="47.8806" lon="7.05903">
        <ele>663</ele>
        <time>2021-08-07T14:54:52Z</time>
      </trkpt>
      <trkpt lat="47.88059" lon="7.05903">
        <ele>663</ele>
        <time>2021-08-07T14:54:54Z</time>
      </trkpt>
      <trkpt lat="47.88059" lon="7.05903">
        <ele>663</ele>
        <time>2021-08-07T14:54:55Z</time>
      </trkpt>
      <trkpt lat="47.88059" lon="7.05899">
        <ele>663</ele>
        <time>2021-08-07T14:54:56Z</time>
      </trkpt>
      <trkpt lat="47.88061" lon="7.05893">
        <ele>663</ele>
        <time>2021-08-07T14:54:58Z</time>
      </trkpt>
      <trkpt lat="47.88061" lon="7.05892">
        <ele>663</ele>
        <time>2021-08-07T14:55:00Z</time>
      </trkpt>
      <trkpt lat="47.88062" lon="7.05889">
        <ele>663</ele>
        <time>2021-08-07T14:55:01Z</time>
      </trkpt>
      <trkpt lat="47.88062" lon="7.05887">
        <ele>663</ele>
        <time>2021-08-07T14:55:02Z</time>
      </trkpt>
      <trkpt lat="47.88063" lon="7.05886">
        <ele>663</ele>
        <time>2021-08-07T14:55:04Z</time>
      </trkpt>
      <trkpt lat="47.88064" lon="7.05887">
        <ele>663</ele>
        <time>2021-08-07T14:55:06Z</time>
      </trkpt>
      <trkpt lat="47.88064" lon="7.05887">
        <ele>663</ele>
        <time>2021-08-07T14:55:07Z</time>
      </trkpt>
      <trkpt lat="47.88064" lon="7.05887">
        <ele>663</ele>
        <time>2021-08-07T14:55:08Z</time>
      </trkpt>
      <trkpt lat="47.88064" lon="7.05887">
        <ele>663</ele>
        <time>2021-08-07T14:55:10Z</time>
      </trkpt>
      <trkpt lat="47.88064" lon="7.05887">
        <ele>663</ele>
        <time>2021-08-07T14:55:12Z</time>
      </trkpt>
      <trkpt lat="47.88064" lon="7.05886">
        <ele>663</ele>
        <time>2021-08-07T14:55:13Z</time>
      </trkpt>
      <trkpt lat="47.88064" lon="7.05886">
        <ele>663</ele>
        <time>2021-08-07T14:55:14Z</time>
      </trkpt>
      <trkpt lat="47.88065" lon="7.05886">
        <ele>663</ele>
        <time>2021-08-07T14:55:16Z</time>
      </trkpt>
      <trkpt lat="47.88065" lon="7.05886">
        <ele>663</ele>
        <time>2021-08-07T14:55:18Z</time>
      </trkpt>
      <trkpt lat="47.88065" lon="7.05886">
        <ele>663</ele>
        <time>2021-08-07T14:55:19Z</time>
      </trkpt>
      <trkpt lat="47.88065" lon="7.05886">
        <ele>663</ele>
        <time>2021-08-07T14:55:20Z</time>
      </trkpt>
      <trkpt lat="47.88065" lon="7.05886">
        <ele>663</ele>
        <time>2021-08-07T14:55:22Z</time>
      </trkpt>
      <trkpt lat="47.88065" lon="7.05886">
        <ele>663</ele>
        <time>2021-08-07T14:55:23Z</time>
      </trkpt>
      <trkpt lat="47.88065" lon="7.05886">
        <ele>663</ele>
        <time>2021-08-07T14:55:25Z</time>
      </trkpt>
      <trkpt lat="47.88065" lon="7.05886">
        <ele>663</ele>
        <time>2021-08-07T14:55:26Z</time>
      </trkpt>
      <trkpt lat="47.88065" lon="7.05885">
        <ele>663</ele>
        <time>2021-08-07T14:55:27Z</time>
      </trkpt>
      <trkpt lat="47.88065" lon="7.05885">
        <ele>663</ele>
        <time>2021-08-07T14:55:29Z</time>
      </trkpt>
      <trkpt lat="47.88066" lon="7.05885">
        <ele>663</ele>
        <time>2021-08-07T14:55:30Z</time>
      </trkpt>
      <trkpt lat="47.88066" lon="7.05885">
        <ele>663</ele>
        <time>2021-08-07T14:55:31Z</time>
      </trkpt>
      <trkpt lat="47.88066" lon="7.05885">
        <ele>663</ele>
        <time>2021-08-07T14:55:33Z</time>
      </trkpt>
      <trkpt lat="47.88066" lon="7.05885">
        <ele>663</ele>
        <time>2021-08-07T14:55:35Z</time>
      </trkpt>
      <trkpt lat="47.88066" lon="7.05885">
        <ele>663</ele>
        <time>2021-08-07T14:55:36Z</time>
      </trkpt>
      <trkpt lat="47.88066" lon="7.05885">
        <ele>663</ele>
        <time>2021-08-07T14:55:38Z</time>
      </trkpt>
      <trkpt lat="47.88066" lon="7.05885">
        <ele>663</ele>
        <time>2021-08-07T14:55:40Z</time>
      </trkpt>
      <trkpt lat="47.88066" lon="7.05885">
        <ele>663</ele>
        <time>2021-08-07T14:55:42Z</time>
      </trkpt>
      <trkpt lat="47.88066" lon="7.05885">
        <ele>663</ele>
        <time>2021-08-07T14:55:44Z</time>
      </trkpt>
      <trkpt lat="47.88066" lon="7.05884">
        <ele>663</ele>
        <time>2021-08-07T14:55:46Z</time>
      </trkpt>
      <trkpt lat="47.88067" lon="7.05884">
        <ele>663</ele>
        <time>2021-08-07T14:55:47Z</time>
      </trkpt>
      <trkpt lat="47.88067" lon="7.05884">
        <ele>663</ele>
        <time>2021-08-07T14:55:49Z</time>
      </trkpt>
      <trkpt lat="47.88067" lon="7.05884">
        <ele>663</ele>
        <time>2021-08-07T14:55:50Z</time>
      </trkpt>
      <trkpt lat="47.88067" lon="7.05884">
        <ele>663</ele>
        <time>2021-08-07T14:55:52Z</time>
      </trkpt>
      <trkpt lat="47.88067" lon="7.05884">
        <ele>663</ele>
        <time>2021-08-07T14:55:53Z</time>
      </trkpt>
      <trkpt lat="47.88067" lon="7.05884">
        <ele>663</ele>
        <time>2021-08-07T14:55:54Z</time>
      </trkpt>
      <trkpt lat="47.88067" lon="7.05884">
        <ele>663</ele>
        <time>2021-08-07T14:55:56Z</time>
      </trkpt>
      <trkpt lat="47.88067" lon="7.05884">
        <ele>663</ele>
        <time>2021-08-07T14:55:58Z</time>
      </trkpt>
      <trkpt lat="47.88067" lon="7.05884">
        <ele>663</ele>
        <time>2021-08-07T14:55:59Z</time>
      </trkpt>
      <trkpt lat="47.88067" lon="7.05883">
        <ele>663</ele>
        <time>2021-08-07T14:56:00Z</time>
      </trkpt>
      <trkpt lat="47.88068" lon="7.05883">
        <ele>663</ele>
        <time>2021-08-07T14:56:01Z</time>
      </trkpt>
      <trkpt lat="47.88068" lon="7.05883">
        <ele>663</ele>
        <time>2021-08-07T14:56:02Z</time>
      </trkpt>
      <trkpt lat="47.88069" lon="7.05882">
        <ele>663</ele>
        <time>2021-08-07T14:56:04Z</time>
      </trkpt>
      <trkpt lat="47.88069" lon="7.05882">
        <ele>663</ele>
        <time>2021-08-07T14:56:05Z</time>
      </trkpt>
      <trkpt lat="47.8807" lon="7.05881">
        <ele>663</ele>
        <time>2021-08-07T14:56:07Z</time>
      </trkpt>
      <trkpt lat="47.88071" lon="7.0588">
        <ele>663</ele>
        <time>2021-08-07T14:56:08Z</time>
      </trkpt>
      <trkpt lat="47.8807" lon="7.05878">
        <ele>663</ele>
        <time>2021-08-07T14:56:10Z</time>
      </trkpt>
      <trkpt lat="47.8807" lon="7.05878">
        <ele>663</ele>
        <time>2021-08-07T14:56:11Z</time>
      </trkpt>
      <trkpt lat="47.8807" lon="7.05878">
        <ele>663</ele>
        <time>2021-08-07T14:56:12Z</time>
      </trkpt>
      <trkpt lat="47.8807" lon="7.05877">
        <ele>663</ele>
        <time>2021-08-07T14:56:13Z</time>
      </trkpt>
      <trkpt lat="47.8807" lon="7.05877">
        <ele>663</ele>
        <time>2021-08-07T14:56:14Z</time>
      </trkpt>
      <trkpt lat="47.8807" lon="7.05877">
        <ele>663</ele>
        <time>2021-08-07T14:56:16Z</time>
      </trkpt>
      <trkpt lat="47.8807" lon="7.05877">
        <ele>663</ele>
        <time>2021-08-07T14:56:17Z</time>
      </trkpt>
      <trkpt lat="47.8807" lon="7.05877">
        <ele>663</ele>
        <time>2021-08-07T14:56:19Z</time>
      </trkpt>
      <trkpt lat="47.8807" lon="7.05877">
        <ele>663</ele>
        <time>2021-08-07T14:56:20Z</time>
      </trkpt>
      <trkpt lat="47.8807" lon="7.05877">
        <ele>663</ele>
        <time>2021-08-07T14:56:22Z</time>
      </trkpt>
      <trkpt lat="47.8807" lon="7.05877">
        <ele>663</ele>
        <time>2021-08-07T14:56:23Z</time>
      </trkpt>
      <trkpt lat="47.8807" lon="7.05877">
        <ele>663</ele>
        <time>2021-08-07T14:56:24Z</time>
      </trkpt>
      <trkpt lat="47.8807" lon="7.05877">
        <ele>663</ele>
        <time>2021-08-07T14:56:26Z</time>
      </trkpt>
      <trkpt lat="47.8807" lon="7.05877">
        <ele>663</ele>
        <time>2021-08-07T14:56:28Z</time>
      </trkpt>
      <trkpt lat="47.8807" lon="7.05877">
        <ele>663</ele>
        <time>2021-08-07T14:56:29Z</time>
      </trkpt>
      <trkpt lat="47.8807" lon="7.05877">
        <ele>663</ele>
        <time>2021-08-07T14:56:31Z</time>
      </trkpt>
      <trkpt lat="47.8807" lon="7.05877">
        <ele>663</ele>
        <time>2021-08-07T14:56:32Z</time>
      </trkpt>
      <trkpt lat="47.88066" lon="7.05882">
        <ele>663</ele>
        <time>2021-08-07T14:56:34Z</time>
      </trkpt>
      <trkpt lat="47.88064" lon="7.05884">
        <ele>663</ele>
        <time>2021-08-07T14:56:35Z</time>
      </trkpt>
      <trkpt lat="47.88064" lon="7.05884">
        <ele>663</ele>
        <time>2021-08-07T14:56:36Z</time>
      </trkpt>
      <trkpt lat="47.88064" lon="7.05884">
        <ele>663</ele>
        <time>2021-08-07T14:56:37Z</time>
      </trkpt>
      <trkpt lat="47.88064" lon="7.05884">
        <ele>663</ele>
        <time>2021-08-07T14:56:38Z</time>
      </trkpt>
      <trkpt lat="47.88064" lon="7.05884">
        <ele>663</ele>
        <time>2021-08-07T14:56:40Z</time>
      </trkpt>
      <trkpt lat="47.88064" lon="7.05884">
        <ele>663</ele>
        <time>2021-08-07T14:56:41Z</time>
      </trkpt>
      <trkpt lat="47.88064" lon="7.05884">
        <ele>663</ele>
        <time>2021-08-07T14:56:42Z</time>
      </trkpt>
      <trkpt lat="47.88064" lon="7.05884">
        <ele>663</ele>
        <time>2021-08-07T14:56:44Z</time>
      </trkpt>
      <trkpt lat="47.88063" lon="7.05884">
        <ele>663</ele>
        <time>2021-08-07T14:56:46Z</time>
      </trkpt>
      <trkpt lat="47.88063" lon="7.05883">
        <ele>663</ele>
        <time>2021-08-07T14:56:47Z</time>
      </trkpt>
      <trkpt lat="47.88063" lon="7.05883">
        <ele>663</ele>
        <time>2021-08-07T14:56:48Z</time>
      </trkpt>
      <trkpt lat="47.88063" lon="7.05883">
        <ele>663</ele>
        <time>2021-08-07T14:56:50Z</time>
      </trkpt>
      <trkpt lat="47.88063" lon="7.05883">
        <ele>663</ele>
        <time>2021-08-07T14:56:52Z</time>
      </trkpt>
      <trkpt lat="47.88062" lon="7.05883">
        <ele>663</ele>
        <time>2021-08-07T14:56:53Z</time>
      </trkpt>
      <trkpt lat="47.88062" lon="7.05883">
        <ele>663</ele>
        <time>2021-08-07T14:56:54Z</time>
      </trkpt>
      <trkpt lat="47.88057" lon="7.0588">
        <ele>662.8</ele>
        <time>2021-08-07T14:56:56Z</time>
      </trkpt>
      <trkpt lat="47.88056" lon="7.0588">
        <ele>662.8</ele>
        <time>2021-08-07T14:56:58Z</time>
      </trkpt>
      <trkpt lat="47.88056" lon="7.0588">
        <ele>662.8</ele>
        <time>2021-08-07T14:56:59Z</time>
      </trkpt>
      <trkpt lat="47.88056" lon="7.0588">
        <ele>662.8</ele>
        <time>2021-08-07T14:57:00Z</time>
      </trkpt>
      <trkpt lat="47.88057" lon="7.05885">
        <ele>662.8</ele>
        <time>2021-08-07T14:57:01Z</time>
      </trkpt>
      <trkpt lat="47.88058" lon="7.05888">
        <ele>662.8</ele>
        <time>2021-08-07T14:57:02Z</time>
      </trkpt>
      <trkpt lat="47.88058" lon="7.05889">
        <ele>662.8</ele>
        <time>2021-08-07T14:57:03Z</time>
      </trkpt>
      <trkpt lat="47.88057" lon="7.0589">
        <ele>662.8</ele>
        <time>2021-08-07T14:57:05Z</time>
      </trkpt>
      <trkpt lat="47.88057" lon="7.0589">
        <ele>662.8</ele>
        <time>2021-08-07T14:57:06Z</time>
      </trkpt>
      <trkpt lat="47.88057" lon="7.0589">
        <ele>662.8</ele>
        <time>2021-08-07T14:57:08Z</time>
      </trkpt>
      <trkpt lat="47.88055" lon="7.05892">
        <ele>662.8</ele>
        <time>2021-08-07T14:57:10Z</time>
      </trkpt>
      <trkpt lat="47.88054" lon="7.05892">
        <ele>662.8</ele>
        <time>2021-08-07T14:57:11Z</time>
      </trkpt>
      <trkpt lat="47.88054" lon="7.05892">
        <ele>662.8</ele>
        <time>2021-08-07T14:57:12Z</time>
      </trkpt>
      <trkpt lat="47.88054" lon="7.05892">
        <ele>662.8</ele>
        <time>2021-08-07T14:57:14Z</time>
      </trkpt>
      <trkpt lat="47.88053" lon="7.05892">
        <ele>662.8</ele>
        <time>2021-08-07T14:57:16Z</time>
      </trkpt>
      <trkpt lat="47.88055" lon="7.05892">
        <ele>662.8</ele>
        <time>2021-08-07T14:57:17Z</time>
      </trkpt>
      <trkpt lat="47.88057" lon="7.05893">
        <ele>662.8</ele>
        <time>2021-08-07T14:57:19Z</time>
      </trkpt>
      <trkpt lat="47.88057" lon="7.05893">
        <ele>662.8</ele>
        <time>2021-08-07T14:57:20Z</time>
      </trkpt>
      <trkpt lat="47.88057" lon="7.05894">
        <ele>662.8</ele>
        <time>2021-08-07T14:57:22Z</time>
      </trkpt>
      <trkpt lat="47.88057" lon="7.05894">
        <ele>662.8</ele>
        <time>2021-08-07T14:57:23Z</time>
      </trkpt>
      <trkpt lat="47.88058" lon="7.05894">
        <ele>662.8</ele>
        <time>2021-08-07T14:57:24Z</time>
      </trkpt>
      <trkpt lat="47.88058" lon="7.05894">
        <ele>662.8</ele>
        <time>2021-08-07T14:57:26Z</time>
      </trkpt>
      <trkpt lat="47.88058" lon="7.05894">
        <ele>662.8</ele>
        <time>2021-08-07T14:57:28Z</time>
      </trkpt>
      <trkpt lat="47.88058" lon="7.05894">
        <ele>662.8</ele>
        <time>2021-08-07T14:57:29Z</time>
      </trkpt>
      <trkpt lat="47.88058" lon="7.05894">
        <ele>662.8</ele>
        <time>2021-08-07T14:57:30Z</time>
      </trkpt>
      <trkpt lat="47.88058" lon="7.05894">
        <ele>662.8</ele>
        <time>2021-08-07T14:57:32Z</time>
      </trkpt>
      <trkpt lat="47.88058" lon="7.05894">
        <ele>662.8</ele>
        <time>2021-08-07T14:57:34Z</time>
      </trkpt>
      <trkpt lat="47.88058" lon="7.05894">
        <ele>662.8</ele>
        <time>2021-08-07T14:57:35Z</time>
      </trkpt>
      <trkpt lat="47.88058" lon="7.05894">
        <ele>662.8</ele>
        <time>2021-08-07T14:57:36Z</time>
      </trkpt>
      <trkpt lat="47.88058" lon="7.05894">
        <ele>662.8</ele>
        <time>2021-08-07T14:57:37Z</time>
      </trkpt>
      <trkpt lat="47.88058" lon="7.05894">
        <ele>662.8</ele>
        <time>2021-08-07T14:57:38Z</time>
      </trkpt>
      <trkpt lat="47.88058" lon="7.05894">
        <ele>662.8</ele>
        <time>2021-08-07T14:57:40Z</time>
      </trkpt>
      <trkpt lat="47.88058" lon="7.05894">
        <ele>662.8</ele>
        <time>2021-08-07T14:57:41Z</time>
      </trkpt>
      <trkpt lat="47.88058" lon="7.05894">
        <ele>662.8</ele>
        <time>2021-08-07T14:57:43Z</time>
      </trkpt>
      <trkpt lat="47.88058" lon="7.05894">
        <ele>662.8</ele>
        <time>2021-08-07T14:57:44Z</time>
      </trkpt>
      <trkpt lat="47.88058" lon="7.05894">
        <ele>662.8</ele>
        <time>2021-08-07T14:57:46Z</time>
      </trkpt>
      <trkpt lat="47.88058" lon="7.05894">
        <ele>662.8</ele>
        <time>2021-08-07T14:57:47Z</time>
      </trkpt>
      <trkpt lat="47.88058" lon="7.05894">
        <ele>662.8</ele>
        <time>2021-08-07T14:57:49Z</time>
      </trkpt>
      <trkpt lat="47.88058" lon="7.05894">
        <ele>662.8</ele>
        <time>2021-08-07T14:57:50Z</time>
      </trkpt>
      <trkpt lat="47.88058" lon="7.05894">
        <ele>662.8</ele>
        <time>2021-08-07T14:57:51Z</time>
      </trkpt>
      <trkpt lat="47.88058" lon="7.05894">
        <ele>662.8</ele>
        <time>2021-08-07T14:57:52Z</time>
      </trkpt>
      <trkpt lat="47.88054" lon="7.05903">
        <ele>662.8</ele>
        <time>2021-08-07T14:57:54Z</time>
      </trkpt>
      <trkpt lat="47.88053" lon="7.05907">
        <ele>662.7</ele>
        <time>2021-08-07T14:57:56Z</time>
      </trkpt>
      <trkpt lat="47.88052" lon="7.05909">
        <ele>662.7</ele>
        <time>2021-08-07T14:57:58Z</time>
      </trkpt>
      <trkpt lat="47.88052" lon="7.05911">
        <ele>662.7</ele>
        <time>2021-08-07T14:57:59Z</time>
      </trkpt>
      <trkpt lat="47.88052" lon="7.05913">
        <ele>662.7</ele>
        <time>2021-08-07T14:58:00Z</time>
      </trkpt>
      <trkpt lat="47.88051" lon="7.05913">
        <ele>662.7</ele>
        <time>2021-08-07T14:58:02Z</time>
      </trkpt>
      <trkpt lat="47.88051" lon="7.05913">
        <ele>662.7</ele>
        <time>2021-08-07T14:58:04Z</time>
      </trkpt>
      <trkpt lat="47.88051" lon="7.05913">
        <ele>662.7</ele>
        <time>2021-08-07T14:58:05Z</time>
      </trkpt>
      <trkpt lat="47.88051" lon="7.05913">
        <ele>662.7</ele>
        <time>2021-08-07T14:58:06Z</time>
      </trkpt>
      <trkpt lat="47.88051" lon="7.05913">
        <ele>662.7</ele>
        <time>2021-08-07T14:58:08Z</time>
      </trkpt>
      <trkpt lat="47.88051" lon="7.05913">
        <ele>662.7</ele>
        <time>2021-08-07T14:58:10Z</time>
      </trkpt>
      <trkpt lat="47.88051" lon="7.05913">
        <ele>662.7</ele>
        <time>2021-08-07T14:58:11Z</time>
      </trkpt>
      <trkpt lat="47.88051" lon="7.05913">
        <ele>662.7</ele>
        <time>2021-08-07T14:58:12Z</time>
      </trkpt>
      <trkpt lat="47.88051" lon="7.05913">
        <ele>662.7</ele>
        <time>2021-08-07T14:58:14Z</time>
      </trkpt>
      <trkpt lat="47.88051" lon="7.05913">
        <ele>662.7</ele>
        <time>2021-08-07T14:58:16Z</time>
      </trkpt>
      <trkpt lat="47.8805" lon="7.05915">
        <ele>662.7</ele>
        <time>2021-08-07T14:58:17Z</time>
      </trkpt>
      <trkpt lat="47.88049" lon="7.05917">
        <ele>662.7</ele>
        <time>2021-08-07T14:58:18Z</time>
      </trkpt>
      <trkpt lat="47.88048" lon="7.05918">
        <ele>662.7</ele>
        <time>2021-08-07T14:58:20Z</time>
      </trkpt>
      <trkpt lat="47.88047" lon="7.0592">
        <ele>662.7</ele>
        <time>2021-08-07T14:58:21Z</time>
      </trkpt>
      <trkpt lat="47.88047" lon="7.0592">
        <ele>662.7</ele>
        <time>2021-08-07T14:58:22Z</time>
      </trkpt>
      <trkpt lat="47.88047" lon="7.0592">
        <ele>662.7</ele>
        <time>2021-08-07T14:58:24Z</time>
      </trkpt>
      <trkpt lat="47.88047" lon="7.0592">
        <ele>662.7</ele>
        <time>2021-08-07T14:58:25Z</time>
      </trkpt>
      <trkpt lat="47.88047" lon="7.0592">
        <ele>662.7</ele>
        <time>2021-08-07T14:58:26Z</time>
      </trkpt>
      <trkpt lat="47.88047" lon="7.0592">
        <ele>662.7</ele>
        <time>2021-08-07T14:58:28Z</time>
      </trkpt>
      <trkpt lat="47.88047" lon="7.0592">
        <ele>662.7</ele>
        <time>2021-08-07T14:58:29Z</time>
      </trkpt>
      <trkpt lat="47.88047" lon="7.0592">
        <ele>662.7</ele>
        <time>2021-08-07T14:58:31Z</time>
      </trkpt>
      <trkpt lat="47.88047" lon="7.0592">
        <ele>662.7</ele>
        <time>2021-08-07T14:58:32Z</time>
      </trkpt>
      <trkpt lat="47.88047" lon="7.0592">
        <ele>662.7</ele>
        <time>2021-08-07T14:58:34Z</time>
      </trkpt>
      <trkpt lat="47.88047" lon="7.0592">
        <ele>662.7</ele>
        <time>2021-08-07T14:58:35Z</time>
      </trkpt>
      <trkpt lat="47.88047" lon="7.0592">
        <ele>662.7</ele>
        <time>2021-08-07T14:58:36Z</time>
      </trkpt>
      <trkpt lat="47.88047" lon="7.0592">
        <ele>662.7</ele>
        <time>2021-08-07T14:58:37Z</time>
      </trkpt>
      <trkpt lat="47.88047" lon="7.0592">
        <ele>662.7</ele>
        <time>2021-08-07T14:58:38Z</time>
      </trkpt>
      <trkpt lat="47.88047" lon="7.0592">
        <ele>662.7</ele>
        <time>2021-08-07T14:58:40Z</time>
      </trkpt>
      <trkpt lat="47.88047" lon="7.0592">
        <ele>662.7</ele>
        <time>2021-08-07T14:58:41Z</time>
      </trkpt>
      <trkpt lat="47.88047" lon="7.0592">
        <ele>662.7</ele>
        <time>2021-08-07T14:58:43Z</time>
      </trkpt>
      <trkpt lat="47.88047" lon="7.0592">
        <ele>662.7</ele>
        <time>2021-08-07T14:58:44Z</time>
      </trkpt>
      <trkpt lat="47.88047" lon="7.0592">
        <ele>662.7</ele>
        <time>2021-08-07T14:58:46Z</time>
      </trkpt>
      <trkpt lat="47.88047" lon="7.0592">
        <ele>662.7</ele>
        <time>2021-08-07T14:58:47Z</time>
      </trkpt>
      <trkpt lat="47.88047" lon="7.0592">
        <ele>662.7</ele>
        <time>2021-08-07T14:58:49Z</time>
      </trkpt>
      <trkpt lat="47.88047" lon="7.0592">
        <ele>662.7</ele>
        <time>2021-08-07T14:58:50Z</time>
      </trkpt>
      <trkpt lat="47.88047" lon="7.0592">
        <ele>662.7</ele>
        <time>2021-08-07T14:58:51Z</time>
      </trkpt>
      <trkpt lat="47.88047" lon="7.05921">
        <ele>662.7</ele>
        <time>2021-08-07T14:58:53Z</time>
      </trkpt>
      <trkpt lat="47.88047" lon="7.05921">
        <ele>662.7</ele>
        <time>2021-08-07T14:58:54Z</time>
      </trkpt>
      <trkpt lat="47.88047" lon="7.05921">
        <ele>662.7</ele>
        <time>2021-08-07T14:58:55Z</time>
      </trkpt>
      <trkpt lat="47.88047" lon="7.05921">
        <ele>662.7</ele>
        <time>2021-08-07T14:58:56Z</time>
      </trkpt>
      <trkpt lat="47.88047" lon="7.05921">
        <ele>662.7</ele>
        <time>2021-08-07T14:58:58Z</time>
      </trkpt>
      <trkpt lat="47.88047" lon="7.05921">
        <ele>662.7</ele>
        <time>2021-08-07T14:58:59Z</time>
      </trkpt>
      <trkpt lat="47.88047" lon="7.05921">
        <ele>662.7</ele>
        <time>2021-08-07T14:59:01Z</time>
      </trkpt>
      <trkpt lat="47.88047" lon="7.05921">
        <ele>662.7</ele>
        <time>2021-08-07T14:59:02Z</time>
      </trkpt>
      <trkpt lat="47.88047" lon="7.05921">
        <ele>662.7</ele>
        <time>2021-08-07T14:59:04Z</time>
      </trkpt>
      <trkpt lat="47.88047" lon="7.05921">
        <ele>662.7</ele>
        <time>2021-08-07T14:59:05Z</time>
      </trkpt>
      <trkpt lat="47.88047" lon="7.05927">
        <ele>662.7</ele>
        <time>2021-08-07T14:59:07Z</time>
      </trkpt>
      <trkpt lat="47.88047" lon="7.05929">
        <ele>662.7</ele>
        <time>2021-08-07T14:59:08Z</time>
      </trkpt>
      <trkpt lat="47.88047" lon="7.0593">
        <ele>662.7</ele>
        <time>2021-08-07T14:59:10Z</time>
      </trkpt>
      <trkpt lat="47.88047" lon="7.05932">
        <ele>662.7</ele>
        <time>2021-08-07T14:59:11Z</time>
      </trkpt>
      <trkpt lat="47.88046" lon="7.05934">
        <ele>662.7</ele>
        <time>2021-08-07T14:59:12Z</time>
      </trkpt>
      <trkpt lat="47.88046" lon="7.05934">
        <ele>662.7</ele>
        <time>2021-08-07T14:59:14Z</time>
      </trkpt>
      <trkpt lat="47.88046" lon="7.05933">
        <ele>662.7</ele>
        <time>2021-08-07T14:59:16Z</time>
      </trkpt>
      <trkpt lat="47.88046" lon="7.05933">
        <ele>662.7</ele>
        <time>2021-08-07T14:59:17Z</time>
      </trkpt>
      <trkpt lat="47.88046" lon="7.05933">
        <ele>662.7</ele>
        <time>2021-08-07T14:59:19Z</time>
      </trkpt>
      <trkpt lat="47.88046" lon="7.05933">
        <ele>662.7</ele>
        <time>2021-08-07T14:59:20Z</time>
      </trkpt>
      <trkpt lat="47.88046" lon="7.05933">
        <ele>662.7</ele>
        <time>2021-08-07T14:59:22Z</time>
      </trkpt>
      <trkpt lat="47.88046" lon="7.05933">
        <ele>662.7</ele>
        <time>2021-08-07T14:59:23Z</time>
      </trkpt>
      <trkpt lat="47.88046" lon="7.05932">
        <ele>662.7</ele>
        <time>2021-08-07T14:59:25Z</time>
      </trkpt>
      <trkpt lat="47.88046" lon="7.05932">
        <ele>662.7</ele>
        <time>2021-08-07T14:59:26Z</time>
      </trkpt>
      <trkpt lat="47.88046" lon="7.05932">
        <ele>662.7</ele>
        <time>2021-08-07T14:59:28Z</time>
      </trkpt>
      <trkpt lat="47.88046" lon="7.05932">
        <ele>662.7</ele>
        <time>2021-08-07T14:59:29Z</time>
      </trkpt>
      <trkpt lat="47.88046" lon="7.05932">
        <ele>662.7</ele>
        <time>2021-08-07T14:59:30Z</time>
      </trkpt>
      <trkpt lat="47.88046" lon="7.05932">
        <ele>662.7</ele>
        <time>2021-08-07T14:59:32Z</time>
      </trkpt>
      <trkpt lat="47.88046" lon="7.05932">
        <ele>662.7</ele>
        <time>2021-08-07T14:59:34Z</time>
      </trkpt>
      <trkpt lat="47.88046" lon="7.05931">
        <ele>662.7</ele>
        <time>2021-08-07T14:59:35Z</time>
      </trkpt>
      <trkpt lat="47.88046" lon="7.05931">
        <ele>662.7</ele>
        <time>2021-08-07T14:59:36Z</time>
      </trkpt>
      <trkpt lat="47.88046" lon="7.05931">
        <ele>662.7</ele>
        <time>2021-08-07T14:59:38Z</time>
      </trkpt>
      <trkpt lat="47.88046" lon="7.05931">
        <ele>662.7</ele>
        <time>2021-08-07T14:59:40Z</time>
      </trkpt>
      <trkpt lat="47.88046" lon="7.05931">
        <ele>662.7</ele>
        <time>2021-08-07T14:59:41Z</time>
      </trkpt>
      <trkpt lat="47.88046" lon="7.05925">
        <ele>662.7</ele>
        <time>2021-08-07T14:59:43Z</time>
      </trkpt>
      <trkpt lat="47.88046" lon="7.05924">
        <ele>662.7</ele>
        <time>2021-08-07T14:59:44Z</time>
      </trkpt>
      <trkpt lat="47.88047" lon="7.05921">
        <ele>662.7</ele>
        <time>2021-08-07T14:59:46Z</time>
      </trkpt>
      <trkpt lat="47.88048" lon="7.0592">
        <ele>662.7</ele>
        <time>2021-08-07T14:59:47Z</time>
      </trkpt>
      <trkpt lat="47.88048" lon="7.05915">
        <ele>662.7</ele>
        <time>2021-08-07T14:59:49Z</time>
      </trkpt>
      <trkpt lat="47.88049" lon="7.05914">
        <ele>662.6</ele>
        <time>2021-08-07T14:59:50Z</time>
      </trkpt>
      <trkpt lat="47.8805" lon="7.05911">
        <ele>662.6</ele>
        <time>2021-08-07T14:59:52Z</time>
      </trkpt>
      <trkpt lat="47.8805" lon="7.05911">
        <ele>662.6</ele>
        <time>2021-08-07T14:59:53Z</time>
      </trkpt>
      <trkpt lat="47.8805" lon="7.0591">
        <ele>662.6</ele>
        <time>2021-08-07T14:59:54Z</time>
      </trkpt>
      <trkpt lat="47.88051" lon="7.0591">
        <ele>662.6</ele>
        <time>2021-08-07T14:59:56Z</time>
      </trkpt>
      <trkpt lat="47.88051" lon="7.0591">
        <ele>662.6</ele>
        <time>2021-08-07T14:59:58Z</time>
      </trkpt>
      <trkpt lat="47.88051" lon="7.0591">
        <ele>662.6</ele>
        <time>2021-08-07T14:59:59Z</time>
      </trkpt>
      <trkpt lat="47.88051" lon="7.0591">
        <ele>662.6</ele>
        <time>2021-08-07T15:00:00Z</time>
      </trkpt>
      <trkpt lat="47.88051" lon="7.0591">
        <ele>662.6</ele>
        <time>2021-08-07T15:00:02Z</time>
      </trkpt>
      <trkpt lat="47.88051" lon="7.0591">
        <ele>662.6</ele>
        <time>2021-08-07T15:00:04Z</time>
      </trkpt>
      <trkpt lat="47.88051" lon="7.0591">
        <ele>662.6</ele>
        <time>2021-08-07T15:00:05Z</time>
      </trkpt>
      <trkpt lat="47.88051" lon="7.0591">
        <ele>662.6</ele>
        <time>2021-08-07T15:00:06Z</time>
      </trkpt>
      <trkpt lat="47.88051" lon="7.0591">
        <ele>662.6</ele>
        <time>2021-08-07T15:00:08Z</time>
      </trkpt>
      <trkpt lat="47.88051" lon="7.0591">
        <ele>662.6</ele>
        <time>2021-08-07T15:00:10Z</time>
      </trkpt>
      <trkpt lat="47.88051" lon="7.0591">
        <ele>662.6</ele>
        <time>2021-08-07T15:00:11Z</time>
      </trkpt>
      <trkpt lat="47.88051" lon="7.0591">
        <ele>662.6</ele>
        <time>2021-08-07T15:00:12Z</time>
      </trkpt>
      <trkpt lat="47.88051" lon="7.0591">
        <ele>662.6</ele>
        <time>2021-08-07T15:00:13Z</time>
      </trkpt>
      <trkpt lat="47.88051" lon="7.0591">
        <ele>662.6</ele>
        <time>2021-08-07T15:00:14Z</time>
      </trkpt>
      <trkpt lat="47.88051" lon="7.0591">
        <ele>662.6</ele>
        <time>2021-08-07T15:00:16Z</time>
      </trkpt>
      <trkpt lat="47.88051" lon="7.0591">
        <ele>662.6</ele>
        <time>2021-08-07T15:00:17Z</time>
      </trkpt>
      <trkpt lat="47.88051" lon="7.05911">
        <ele>662.6</ele>
        <time>2021-08-07T15:00:19Z</time>
      </trkpt>
      <trkpt lat="47.88051" lon="7.05911">
        <ele>662.6</ele>
        <time>2021-08-07T15:00:20Z</time>
      </trkpt>
      <trkpt lat="47.88051" lon="7.05911">
        <ele>662.6</ele>
        <time>2021-08-07T15:00:22Z</time>
      </trkpt>
      <trkpt lat="47.88051" lon="7.05911">
        <ele>662.6</ele>
        <time>2021-08-07T15:00:23Z</time>
      </trkpt>
      <trkpt lat="47.88052" lon="7.05913">
        <ele>662.6</ele>
        <time>2021-08-07T15:00:24Z</time>
      </trkpt>
      <trkpt lat="47.88054" lon="7.05907">
        <ele>662.6</ele>
        <time>2021-08-07T15:00:26Z</time>
      </trkpt>
      <trkpt lat="47.88054" lon="7.05906">
        <ele>662.6</ele>
        <time>2021-08-07T15:00:28Z</time>
      </trkpt>
      <trkpt lat="47.88054" lon="7.05906">
        <ele>662.6</ele>
        <time>2021-08-07T15:00:29Z</time>
      </trkpt>
      <trkpt lat="47.88055" lon="7.05905">
        <ele>662.6</ele>
        <time>2021-08-07T15:00:30Z</time>
      </trkpt>
      <trkpt lat="47.88055" lon="7.05905">
        <ele>662.6</ele>
        <time>2021-08-07T15:00:32Z</time>
      </trkpt>
      <trkpt lat="47.88055" lon="7.05905">
        <ele>662.6</ele>
        <time>2021-08-07T15:00:34Z</time>
      </trkpt>
      <trkpt lat="47.88055" lon="7.05904">
        <ele>662.6</ele>
        <time>2021-08-07T15:00:35Z</time>
      </trkpt>
      <trkpt lat="47.88055" lon="7.05904">
        <ele>662.6</ele>
        <time>2021-08-07T15:00:36Z</time>
      </trkpt>
      <trkpt lat="47.88055" lon="7.05904">
        <ele>662.6</ele>
        <time>2021-08-07T15:00:38Z</time>
      </trkpt>
      <trkpt lat="47.88056" lon="7.05904">
        <ele>662.6</ele>
        <time>2021-08-07T15:00:40Z</time>
      </trkpt>
      <trkpt lat="47.88056" lon="7.05903">
        <ele>662.6</ele>
        <time>2021-08-07T15:00:41Z</time>
      </trkpt>
      <trkpt lat="47.88056" lon="7.05903">
        <ele>662.6</ele>
        <time>2021-08-07T15:00:42Z</time>
      </trkpt>
      <trkpt lat="47.88056" lon="7.05903">
        <ele>662.6</ele>
        <time>2021-08-07T15:00:44Z</time>
      </trkpt>
      <trkpt lat="47.88056" lon="7.05903">
        <ele>662.6</ele>
        <time>2021-08-07T15:00:46Z</time>
      </trkpt>
      <trkpt lat="47.88056" lon="7.05902">
        <ele>662.6</ele>
        <time>2021-08-07T15:00:47Z</time>
      </trkpt>
      <trkpt lat="47.88056" lon="7.05902">
        <ele>662.6</ele>
        <time>2021-08-07T15:00:48Z</time>
      </trkpt>
      <trkpt lat="47.88057" lon="7.05902">
        <ele>662.6</ele>
        <time>2021-08-07T15:00:50Z</time>
      </trkpt>
      <trkpt lat="47.88057" lon="7.05902">
        <ele>662.6</ele>
        <time>2021-08-07T15:00:52Z</time>
      </trkpt>
      <trkpt lat="47.88057" lon="7.05901">
        <ele>662.6</ele>
        <time>2021-08-07T15:00:53Z</time>
      </trkpt>
      <trkpt lat="47.88057" lon="7.05901">
        <ele>662.6</ele>
        <time>2021-08-07T15:00:54Z</time>
      </trkpt>
      <trkpt lat="47.88057" lon="7.05901">
        <ele>662.6</ele>
        <time>2021-08-07T15:00:56Z</time>
      </trkpt>
      <trkpt lat="47.88057" lon="7.05901">
        <ele>662.6</ele>
        <time>2021-08-07T15:00:58Z</time>
      </trkpt>
      <trkpt lat="47.88057" lon="7.059">
        <ele>662.6</ele>
        <time>2021-08-07T15:00:59Z</time>
      </trkpt>
      <trkpt lat="47.88058" lon="7.059">
        <ele>662.6</ele>
        <time>2021-08-07T15:01:00Z</time>
      </trkpt>
      <trkpt lat="47.88058" lon="7.059">
        <ele>662.6</ele>
        <time>2021-08-07T15:01:01Z</time>
      </trkpt>
      <trkpt lat="47.88058" lon="7.059">
        <ele>662.6</ele>
        <time>2021-08-07T15:01:03Z</time>
      </trkpt>
      <trkpt lat="47.88058" lon="7.05899">
        <ele>662.6</ele>
        <time>2021-08-07T15:01:04Z</time>
      </trkpt>
      <trkpt lat="47.88058" lon="7.05899">
        <ele>662.6</ele>
        <time>2021-08-07T15:01:05Z</time>
      </trkpt>
      <trkpt lat="47.88058" lon="7.05899">
        <ele>662.6</ele>
        <time>2021-08-07T15:01:06Z</time>
      </trkpt>
      <trkpt lat="47.88059" lon="7.05899">
        <ele>662.6</ele>
        <time>2021-08-07T15:01:07Z</time>
      </trkpt>
      <trkpt lat="47.88059" lon="7.05898">
        <ele>662.6</ele>
        <time>2021-08-07T15:01:08Z</time>
      </trkpt>
      <trkpt lat="47.88059" lon="7.05898">
        <ele>662.6</ele>
        <time>2021-08-07T15:01:10Z</time>
      </trkpt>
      <trkpt lat="47.88059" lon="7.05898">
        <ele>662.6</ele>
        <time>2021-08-07T15:01:11Z</time>
      </trkpt>
      <trkpt lat="47.8806" lon="7.05895">
        <ele>662.6</ele>
        <time>2021-08-07T15:01:12Z</time>
      </trkpt>
      <trkpt lat="47.88062" lon="7.05892">
        <ele>662.6</ele>
        <time>2021-08-07T15:01:14Z</time>
      </trkpt>
      <trkpt lat="47.88063" lon="7.0589">
        <ele>662.6</ele>
        <time>2021-08-07T15:01:16Z</time>
      </trkpt>
      <trkpt lat="47.88063" lon="7.05889">
        <ele>662.6</ele>
        <time>2021-08-07T15:01:17Z</time>
      </trkpt>
      <trkpt lat="47.88063" lon="7.05889">
        <ele>662.6</ele>
        <time>2021-08-07T15:01:18Z</time>
      </trkpt>
      <trkpt lat="47.88063" lon="7.05889">
        <ele>662.6</ele>
        <time>2021-08-07T15:01:20Z</time>
      </trkpt>
      <trkpt lat="47.88063" lon="7.05889">
        <ele>662.6</ele>
        <time>2021-08-07T15:01:22Z</time>
      </trkpt>
      <trkpt lat="47.88063" lon="7.0589">
        <ele>662.6</ele>
        <time>2021-08-07T15:01:23Z</time>
      </trkpt>
      <trkpt lat="47.88063" lon="7.0589">
        <ele>662.6</ele>
        <time>2021-08-07T15:01:24Z</time>
      </trkpt>
      <trkpt lat="47.88063" lon="7.0589">
        <ele>662.6</ele>
        <time>2021-08-07T15:01:25Z</time>
      </trkpt>
      <trkpt lat="47.88063" lon="7.0589">
        <ele>662.6</ele>
        <time>2021-08-07T15:01:26Z</time>
      </trkpt>
      <trkpt lat="47.88063" lon="7.0589">
        <ele>662.6</ele>
        <time>2021-08-07T15:01:28Z</time>
      </trkpt>
      <trkpt lat="47.88063" lon="7.0589">
        <ele>662.6</ele>
        <time>2021-08-07T15:01:29Z</time>
      </trkpt>
      <trkpt lat="47.88063" lon="7.05891">
        <ele>662.6</ele>
        <time>2021-08-07T15:01:30Z</time>
      </trkpt>
      <trkpt lat="47.88062" lon="7.05891">
        <ele>662.6</ele>
        <time>2021-08-07T15:01:31Z</time>
      </trkpt>
      <trkpt lat="47.88062" lon="7.05891">
        <ele>662.6</ele>
        <time>2021-08-07T15:01:32Z</time>
      </trkpt>
      <trkpt lat="47.88062" lon="7.05892">
        <ele>662.6</ele>
        <time>2021-08-07T15:01:34Z</time>
      </trkpt>
      <trkpt lat="47.88061" lon="7.05893">
        <ele>662.6</ele>
        <time>2021-08-07T15:01:35Z</time>
      </trkpt>
      <trkpt lat="47.8806" lon="7.05894">
        <ele>662.6</ele>
        <time>2021-08-07T15:01:37Z</time>
      </trkpt>
      <trkpt lat="47.8806" lon="7.05894">
        <ele>662.6</ele>
        <time>2021-08-07T15:01:38Z</time>
      </trkpt>
      <trkpt lat="47.88059" lon="7.05895">
        <ele>662.6</ele>
        <time>2021-08-07T15:01:40Z</time>
      </trkpt>
      <trkpt lat="47.88058" lon="7.05896">
        <ele>662.6</ele>
        <time>2021-08-07T15:01:41Z</time>
      </trkpt>
      <trkpt lat="47.88058" lon="7.05897">
        <ele>662.6</ele>
        <time>2021-08-07T15:01:42Z</time>
      </trkpt>
      <trkpt lat="47.88057" lon="7.05898">
        <ele>662.6</ele>
        <time>2021-08-07T15:01:44Z</time>
      </trkpt>
      <trkpt lat="47.88056" lon="7.05898">
        <ele>662.5</ele>
        <time>2021-08-07T15:01:46Z</time>
      </trkpt>
      <trkpt lat="47.88055" lon="7.05899">
        <ele>662.5</ele>
        <time>2021-08-07T15:01:47Z</time>
      </trkpt>
      <trkpt lat="47.88054" lon="7.059">
        <ele>662.5</ele>
        <time>2021-08-07T15:01:48Z</time>
      </trkpt>
      <trkpt lat="47.88053" lon="7.05901">
        <ele>662.5</ele>
        <time>2021-08-07T15:01:50Z</time>
      </trkpt>
      <trkpt lat="47.88052" lon="7.05901">
        <ele>662.5</ele>
        <time>2021-08-07T15:01:52Z</time>
      </trkpt>
      <trkpt lat="47.88051" lon="7.05902">
        <ele>662.5</ele>
        <time>2021-08-07T15:01:53Z</time>
      </trkpt>
      <trkpt lat="47.88051" lon="7.05902">
        <ele>662.5</ele>
        <time>2021-08-07T15:01:54Z</time>
      </trkpt>
      <trkpt lat="47.8805" lon="7.05903">
        <ele>662.5</ele>
        <time>2021-08-07T15:01:56Z</time>
      </trkpt>
      <trkpt lat="47.88049" lon="7.05903">
        <ele>662.5</ele>
        <time>2021-08-07T15:01:57Z</time>
      </trkpt>
      <trkpt lat="47.88032" lon="7.05913">
        <ele>662.3</ele>
        <time>2021-08-07T15:01:59Z</time>
      </trkpt>
      <trkpt lat="47.88032" lon="7.05913">
        <ele>662.3</ele>
        <time>2021-08-07T15:02:00Z</time>
      </trkpt>
      <trkpt lat="47.88032" lon="7.05913">
        <ele>662.3</ele>
        <time>2021-08-07T15:02:01Z</time>
      </trkpt>
      <trkpt lat="47.88032" lon="7.05913">
        <ele>662.3</ele>
        <time>2021-08-07T15:02:03Z</time>
      </trkpt>
      <trkpt lat="47.88032" lon="7.05913">
        <ele>662.3</ele>
        <time>2021-08-07T15:02:04Z</time>
      </trkpt>
      <trkpt lat="47.88032" lon="7.05912">
        <ele>662.3</ele>
        <time>2021-08-07T15:02:05Z</time>
      </trkpt>
      <trkpt lat="47.88032" lon="7.05912">
        <ele>662.3</ele>
        <time>2021-08-07T15:02:06Z</time>
      </trkpt>
      <trkpt lat="47.88032" lon="7.05912">
        <ele>662.3</ele>
        <time>2021-08-07T15:02:08Z</time>
      </trkpt>
      <trkpt lat="47.88033" lon="7.05912">
        <ele>662.3</ele>
        <time>2021-08-07T15:02:09Z</time>
      </trkpt>
      <trkpt lat="47.88033" lon="7.05912">
        <ele>662.3</ele>
        <time>2021-08-07T15:02:11Z</time>
      </trkpt>
      <trkpt lat="47.88033" lon="7.05912">
        <ele>662.3</ele>
        <time>2021-08-07T15:02:12Z</time>
      </trkpt>
      <trkpt lat="47.88033" lon="7.05912">
        <ele>662.3</ele>
        <time>2021-08-07T15:02:14Z</time>
      </trkpt>
      <trkpt lat="47.88033" lon="7.05911">
        <ele>662.3</ele>
        <time>2021-08-07T15:02:15Z</time>
      </trkpt>
      <trkpt lat="47.88033" lon="7.05911">
        <ele>662.3</ele>
        <time>2021-08-07T15:02:17Z</time>
      </trkpt>
      <trkpt lat="47.88033" lon="7.05911">
        <ele>662.3</ele>
        <time>2021-08-07T15:02:19Z</time>
      </trkpt>
      <trkpt lat="47.88034" lon="7.05911">
        <ele>662.3</ele>
        <time>2021-08-07T15:02:21Z</time>
      </trkpt>
      <trkpt lat="47.88034" lon="7.05911">
        <ele>662.3</ele>
        <time>2021-08-07T15:02:22Z</time>
      </trkpt>
      <trkpt lat="47.88034" lon="7.05911">
        <ele>662.3</ele>
        <time>2021-08-07T15:02:24Z</time>
      </trkpt>
      <trkpt lat="47.88034" lon="7.0591">
        <ele>662.3</ele>
        <time>2021-08-07T15:02:25Z</time>
      </trkpt>
      <trkpt lat="47.88034" lon="7.0591">
        <ele>662.3</ele>
        <time>2021-08-07T15:02:26Z</time>
      </trkpt>
      <trkpt lat="47.88034" lon="7.0591">
        <ele>662.3</ele>
        <time>2021-08-07T15:02:28Z</time>
      </trkpt>
      <trkpt lat="47.88035" lon="7.0591">
        <ele>662.3</ele>
        <time>2021-08-07T15:02:29Z</time>
      </trkpt>
      <trkpt lat="47.88035" lon="7.0591">
        <ele>662.3</ele>
        <time>2021-08-07T15:02:30Z</time>
      </trkpt>
      <trkpt lat="47.88035" lon="7.0591">
        <ele>662.3</ele>
        <time>2021-08-07T15:02:31Z</time>
      </trkpt>
      <trkpt lat="47.88035" lon="7.0591">
        <ele>662.3</ele>
        <time>2021-08-07T15:02:33Z</time>
      </trkpt>
      <trkpt lat="47.88035" lon="7.05909">
        <ele>662.3</ele>
        <time>2021-08-07T15:02:34Z</time>
      </trkpt>
      <trkpt lat="47.88035" lon="7.05909">
        <ele>662.3</ele>
        <time>2021-08-07T15:02:35Z</time>
      </trkpt>
      <trkpt lat="47.88035" lon="7.05909">
        <ele>662.3</ele>
        <time>2021-08-07T15:02:37Z</time>
      </trkpt>
      <trkpt lat="47.88036" lon="7.05909">
        <ele>662.3</ele>
        <time>2021-08-07T15:02:39Z</time>
      </trkpt>
      <trkpt lat="47.88036" lon="7.05909">
        <ele>662.3</ele>
        <time>2021-08-07T15:02:40Z</time>
      </trkpt>
      <trkpt lat="47.88036" lon="7.05909">
        <ele>662.3</ele>
        <time>2021-08-07T15:02:41Z</time>
      </trkpt>
      <trkpt lat="47.88036" lon="7.05909">
        <ele>662.3</ele>
        <time>2021-08-07T15:02:42Z</time>
      </trkpt>
      <trkpt lat="47.88036" lon="7.05908">
        <ele>662.3</ele>
        <time>2021-08-07T15:02:44Z</time>
      </trkpt>
      <trkpt lat="47.88036" lon="7.05908">
        <ele>662.3</ele>
        <time>2021-08-07T15:02:45Z</time>
      </trkpt>
      <trkpt lat="47.88036" lon="7.05908">
        <ele>662.3</ele>
        <time>2021-08-07T15:02:46Z</time>
      </trkpt>
      <trkpt lat="47.88037" lon="7.05908">
        <ele>662.3</ele>
        <time>2021-08-07T15:02:48Z</time>
      </trkpt>
      <trkpt lat="47.88037" lon="7.05908">
        <ele>662.3</ele>
        <time>2021-08-07T15:02:50Z</time>
      </trkpt>
      <trkpt lat="47.88037" lon="7.05908">
        <ele>662.3</ele>
        <time>2021-08-07T15:02:51Z</time>
      </trkpt>
      <trkpt lat="47.88037" lon="7.05907">
        <ele>662.3</ele>
        <time>2021-08-07T15:02:53Z</time>
      </trkpt>
      <trkpt lat="47.88037" lon="7.05907">
        <ele>662.3</ele>
        <time>2021-08-07T15:02:54Z</time>
      </trkpt>
      <trkpt lat="47.88037" lon="7.05907">
        <ele>662.3</ele>
        <time>2021-08-07T15:02:56Z</time>
      </trkpt>
      <trkpt lat="47.88038" lon="7.05907">
        <ele>662.3</ele>
        <time>2021-08-07T15:02:57Z</time>
      </trkpt>
      <trkpt lat="47.88038" lon="7.05907">
        <ele>662.3</ele>
        <time>2021-08-07T15:02:59Z</time>
      </trkpt>
      <trkpt lat="47.88038" lon="7.05907">
        <ele>662.3</ele>
        <time>2021-08-07T15:03:00Z</time>
      </trkpt>
      <trkpt lat="47.88038" lon="7.05907">
        <ele>662.3</ele>
        <time>2021-08-07T15:03:02Z</time>
      </trkpt>
      <trkpt lat="47.88038" lon="7.05906">
        <ele>662.3</ele>
        <time>2021-08-07T15:03:03Z</time>
      </trkpt>
      <trkpt lat="47.88038" lon="7.05906">
        <ele>662.3</ele>
        <time>2021-08-07T15:03:04Z</time>
      </trkpt>
      <trkpt lat="47.88038" lon="7.05906">
        <ele>662.3</ele>
        <time>2021-08-07T15:03:05Z</time>
      </trkpt>
      <trkpt lat="47.88039" lon="7.05906">
        <ele>662.3</ele>
        <time>2021-08-07T15:03:07Z</time>
      </trkpt>
      <trkpt lat="47.88039" lon="7.05906">
        <ele>662.3</ele>
        <time>2021-08-07T15:03:09Z</time>
      </trkpt>
      <trkpt lat="47.88039" lon="7.05906">
        <ele>662.3</ele>
        <time>2021-08-07T15:03:10Z</time>
      </trkpt>
      <trkpt lat="47.88039" lon="7.05906">
        <ele>662.3</ele>
        <time>2021-08-07T15:03:12Z</time>
      </trkpt>
      <trkpt lat="47.88039" lon="7.05905">
        <ele>662.3</ele>
        <time>2021-08-07T15:03:14Z</time>
      </trkpt>
      <trkpt lat="47.88039" lon="7.05905">
        <ele>662.3</ele>
        <time>2021-08-07T15:03:15Z</time>
      </trkpt>
      <trkpt lat="47.88039" lon="7.05905">
        <ele>662.3</ele>
        <time>2021-08-07T15:03:17Z</time>
      </trkpt>
      <trkpt lat="47.8804" lon="7.05905">
        <ele>662.3</ele>
        <time>2021-08-07T15:03:18Z</time>
      </trkpt>
      <trkpt lat="47.8804" lon="7.05905">
        <ele>662.3</ele>
        <time>2021-08-07T15:03:20Z</time>
      </trkpt>
      <trkpt lat="47.8804" lon="7.05905">
        <ele>662.3</ele>
        <time>2021-08-07T15:03:21Z</time>
      </trkpt>
      <trkpt lat="47.8804" lon="7.05904">
        <ele>662.3</ele>
        <time>2021-08-07T15:03:22Z</time>
      </trkpt>
      <trkpt lat="47.8804" lon="7.05904">
        <ele>662.3</ele>
        <time>2021-08-07T15:03:23Z</time>
      </trkpt>
      <trkpt lat="47.88041" lon="7.05903">
        <ele>662.3</ele>
        <time>2021-08-07T15:03:24Z</time>
      </trkpt>
      <trkpt lat="47.88041" lon="7.05903">
        <ele>662.3</ele>
        <time>2021-08-07T15:03:26Z</time>
      </trkpt>
      <trkpt lat="47.88041" lon="7.05902">
        <ele>662.3</ele>
        <time>2021-08-07T15:03:27Z</time>
      </trkpt>
      <trkpt lat="47.88042" lon="7.05902">
        <ele>662.3</ele>
        <time>2021-08-07T15:03:28Z</time>
      </trkpt>
      <trkpt lat="47.88042" lon="7.05901">
        <ele>662.3</ele>
        <time>2021-08-07T15:03:29Z</time>
      </trkpt>
      <trkpt lat="47.88042" lon="7.059">
        <ele>662.3</ele>
        <time>2021-08-07T15:03:31Z</time>
      </trkpt>
      <trkpt lat="47.88042" lon="7.059">
        <ele>662.3</ele>
        <time>2021-08-07T15:03:33Z</time>
      </trkpt>
      <trkpt lat="47.88043" lon="7.05899">
        <ele>662.3</ele>
        <time>2021-08-07T15:03:34Z</time>
      </trkpt>
      <trkpt lat="47.88043" lon="7.05899">
        <ele>662.3</ele>
        <time>2021-08-07T15:03:36Z</time>
      </trkpt>
      <trkpt lat="47.88043" lon="7.05898">
        <ele>662.3</ele>
        <time>2021-08-07T15:03:37Z</time>
      </trkpt>
      <trkpt lat="47.88043" lon="7.05898">
        <ele>662.3</ele>
        <time>2021-08-07T15:03:39Z</time>
      </trkpt>
      <trkpt lat="47.88044" lon="7.05897">
        <ele>662.3</ele>
        <time>2021-08-07T15:03:40Z</time>
      </trkpt>
      <trkpt lat="47.88044" lon="7.05897">
        <ele>662.3</ele>
        <time>2021-08-07T15:03:41Z</time>
      </trkpt>
      <trkpt lat="47.88044" lon="7.05896">
        <ele>662.3</ele>
        <time>2021-08-07T15:03:42Z</time>
      </trkpt>
      <trkpt lat="47.88044" lon="7.05896">
        <ele>662.3</ele>
        <time>2021-08-07T15:03:43Z</time>
      </trkpt>
      <trkpt lat="47.88045" lon="7.05895">
        <ele>662.3</ele>
        <time>2021-08-07T15:03:45Z</time>
      </trkpt>
      <trkpt lat="47.88045" lon="7.05895">
        <ele>662.3</ele>
        <time>2021-08-07T15:03:46Z</time>
      </trkpt>
      <trkpt lat="47.88047" lon="7.05894">
        <ele>662.3</ele>
        <time>2021-08-07T15:03:48Z</time>
      </trkpt>
      <trkpt lat="47.88046" lon="7.05895">
        <ele>662.3</ele>
        <time>2021-08-07T15:03:49Z</time>
      </trkpt>
      <trkpt lat="47.88046" lon="7.05896">
        <ele>662.3</ele>
        <time>2021-08-07T15:03:50Z</time>
      </trkpt>
      <trkpt lat="47.88046" lon="7.05897">
        <ele>662.3</ele>
        <time>2021-08-07T15:03:52Z</time>
      </trkpt>
      <trkpt lat="47.88046" lon="7.05899">
        <ele>662.3</ele>
        <time>2021-08-07T15:03:53Z</time>
      </trkpt>
      <trkpt lat="47.88046" lon="7.059">
        <ele>662.3</ele>
        <time>2021-08-07T15:03:55Z</time>
      </trkpt>
      <trkpt lat="47.88046" lon="7.05901">
        <ele>662.3</ele>
        <time>2021-08-07T15:03:56Z</time>
      </trkpt>
      <trkpt lat="47.88043" lon="7.05909">
        <ele>662.4</ele>
        <time>2021-08-07T15:03:58Z</time>
      </trkpt>
      <trkpt lat="47.88043" lon="7.0591">
        <ele>662.4</ele>
        <time>2021-08-07T15:03:59Z</time>
      </trkpt>
      <trkpt lat="47.88042" lon="7.05911">
        <ele>662.4</ele>
        <time>2021-08-07T15:04:01Z</time>
      </trkpt>
      <trkpt lat="47.88042" lon="7.05911">
        <ele>662.4</ele>
        <time>2021-08-07T15:04:02Z</time>
      </trkpt>
      <trkpt lat="47.88042" lon="7.05911">
        <ele>662.4</ele>
        <time>2021-08-07T15:04:04Z</time>
      </trkpt>
      <trkpt lat="47.88042" lon="7.05911">
        <ele>662.4</ele>
        <time>2021-08-07T15:04:05Z</time>
      </trkpt>
      <trkpt lat="47.88042" lon="7.05911">
        <ele>662.4</ele>
        <time>2021-08-07T15:04:06Z</time>
      </trkpt>
      <trkpt lat="47.88042" lon="7.05911">
        <ele>662.4</ele>
        <time>2021-08-07T15:04:08Z</time>
      </trkpt>
      <trkpt lat="47.88042" lon="7.05911">
        <ele>662.4</ele>
        <time>2021-08-07T15:04:09Z</time>
      </trkpt>
      <trkpt lat="47.88042" lon="7.05911">
        <ele>662.4</ele>
        <time>2021-08-07T15:04:10Z</time>
      </trkpt>
      <trkpt lat="47.88042" lon="7.05911">
        <ele>662.4</ele>
        <time>2021-08-07T15:04:11Z</time>
      </trkpt>
      <trkpt lat="47.88042" lon="7.05911">
        <ele>662.4</ele>
        <time>2021-08-07T15:04:12Z</time>
      </trkpt>
      <trkpt lat="47.88042" lon="7.05911">
        <ele>662.4</ele>
        <time>2021-08-07T15:04:14Z</time>
      </trkpt>
      <trkpt lat="47.88043" lon="7.05912">
        <ele>662.4</ele>
        <time>2021-08-07T15:04:15Z</time>
      </trkpt>
      <trkpt lat="47.88047" lon="7.05909">
        <ele>662.4</ele>
        <time>2021-08-07T15:04:17Z</time>
      </trkpt>
      <trkpt lat="47.88047" lon="7.05908">
        <ele>662.4</ele>
        <time>2021-08-07T15:04:19Z</time>
      </trkpt>
      <trkpt lat="47.88047" lon="7.05908">
        <ele>662.4</ele>
        <time>2021-08-07T15:04:21Z</time>
      </trkpt>
      <trkpt lat="47.88048" lon="7.05908">
        <ele>662.4</ele>
        <time>2021-08-07T15:04:22Z</time>
      </trkpt>
      <trkpt lat="47.88048" lon="7.05908">
        <ele>662.4</ele>
        <time>2021-08-07T15:04:23Z</time>
      </trkpt>
      <trkpt lat="47.88048" lon="7.05908">
        <ele>662.4</ele>
        <time>2021-08-07T15:04:24Z</time>
      </trkpt>
      <trkpt lat="47.88048" lon="7.05908">
        <ele>662.4</ele>
        <time>2021-08-07T15:04:26Z</time>
      </trkpt>
      <trkpt lat="47.88048" lon="7.05908">
        <ele>662.4</ele>
        <time>2021-08-07T15:04:27Z</time>
      </trkpt>
      <trkpt lat="47.88048" lon="7.05908">
        <ele>662.4</ele>
        <time>2021-08-07T15:04:29Z</time>
      </trkpt>
      <trkpt lat="47.88048" lon="7.05908">
        <ele>662.4</ele>
        <time>2021-08-07T15:04:30Z</time>
      </trkpt>
      <trkpt lat="47.88055" lon="7.059">
        <ele>662.4</ele>
        <time>2021-08-07T15:04:32Z</time>
      </trkpt>
      <trkpt lat="47.88056" lon="7.059">
        <ele>662.4</ele>
        <time>2021-08-07T15:04:33Z</time>
      </trkpt>
      <trkpt lat="47.88056" lon="7.05901">
        <ele>662.4</ele>
        <time>2021-08-07T15:04:34Z</time>
      </trkpt>
      <trkpt lat="47.88057" lon="7.05903">
        <ele>662.4</ele>
        <time>2021-08-07T15:04:35Z</time>
      </trkpt>
      <trkpt lat="47.88057" lon="7.05904">
        <ele>662.4</ele>
        <time>2021-08-07T15:04:37Z</time>
      </trkpt>
      <trkpt lat="47.88057" lon="7.05905">
        <ele>662.4</ele>
        <time>2021-08-07T15:04:39Z</time>
      </trkpt>
      <trkpt lat="47.88058" lon="7.05906">
        <ele>662.4</ele>
        <time>2021-08-07T15:04:40Z</time>
      </trkpt>
      <trkpt lat="47.88059" lon="7.05912">
        <ele>662.4</ele>
        <time>2021-08-07T15:04:42Z</time>
      </trkpt>
      <trkpt lat="47.88058" lon="7.05916">
        <ele>662.4</ele>
        <time>2021-08-07T15:04:44Z</time>
      </trkpt>
      <trkpt lat="47.88057" lon="7.05917">
        <ele>662.4</ele>
        <time>2021-08-07T15:04:45Z</time>
      </trkpt>
      <trkpt lat="47.88056" lon="7.05918">
        <ele>662.4</ele>
        <time>2021-08-07T15:04:47Z</time>
      </trkpt>
      <trkpt lat="47.88056" lon="7.05918">
        <ele>662.4</ele>
        <time>2021-08-07T15:04:48Z</time>
      </trkpt>
      <trkpt lat="47.88056" lon="7.05918">
        <ele>662.4</ele>
        <time>2021-08-07T15:04:50Z</time>
      </trkpt>
      <trkpt lat="47.88055" lon="7.05918">
        <ele>662.4</ele>
        <time>2021-08-07T15:04:51Z</time>
      </trkpt>
      <trkpt lat="47.88055" lon="7.05918">
        <ele>662.4</ele>
        <time>2021-08-07T15:04:53Z</time>
      </trkpt>
      <trkpt lat="47.88055" lon="7.05918">
        <ele>662.4</ele>
        <time>2021-08-07T15:04:54Z</time>
      </trkpt>
      <trkpt lat="47.88055" lon="7.05918">
        <ele>662.4</ele>
        <time>2021-08-07T15:04:56Z</time>
      </trkpt>
      <trkpt lat="47.88055" lon="7.05918">
        <ele>662.4</ele>
        <time>2021-08-07T15:04:57Z</time>
      </trkpt>
      <trkpt lat="47.88055" lon="7.05918">
        <ele>662.4</ele>
        <time>2021-08-07T15:04:58Z</time>
      </trkpt>
      <trkpt lat="47.88055" lon="7.05918">
        <ele>662.4</ele>
        <time>2021-08-07T15:05:00Z</time>
      </trkpt>
      <trkpt lat="47.88055" lon="7.05918">
        <ele>662.4</ele>
        <time>2021-08-07T15:05:02Z</time>
      </trkpt>
      <trkpt lat="47.88055" lon="7.05918">
        <ele>662.4</ele>
        <time>2021-08-07T15:05:03Z</time>
      </trkpt>
      <trkpt lat="47.88055" lon="7.05918">
        <ele>662.4</ele>
        <time>2021-08-07T15:05:04Z</time>
      </trkpt>
      <trkpt lat="47.88055" lon="7.05918">
        <ele>662.4</ele>
        <time>2021-08-07T15:05:05Z</time>
      </trkpt>
      <trkpt lat="47.88055" lon="7.05918">
        <ele>662.4</ele>
        <time>2021-08-07T15:05:07Z</time>
      </trkpt>
      <trkpt lat="47.88055" lon="7.05918">
        <ele>662.4</ele>
        <time>2021-08-07T15:05:08Z</time>
      </trkpt>
      <trkpt lat="47.88055" lon="7.05918">
        <ele>662.4</ele>
        <time>2021-08-07T15:05:10Z</time>
      </trkpt>
      <trkpt lat="47.88055" lon="7.05918">
        <ele>662.4</ele>
        <time>2021-08-07T15:05:11Z</time>
      </trkpt>
      <trkpt lat="47.88055" lon="7.05918">
        <ele>662.4</ele>
        <time>2021-08-07T15:05:12Z</time>
      </trkpt>
      <trkpt lat="47.88055" lon="7.05918">
        <ele>662.4</ele>
        <time>2021-08-07T15:05:13Z</time>
      </trkpt>
      <trkpt lat="47.88055" lon="7.05918">
        <ele>662.4</ele>
        <time>2021-08-07T15:05:14Z</time>
      </trkpt>
      <trkpt lat="47.88052" lon="7.05915">
        <ele>662.4</ele>
        <time>2021-08-07T15:05:16Z</time>
      </trkpt>
      <trkpt lat="47.88049" lon="7.05913">
        <ele>662.4</ele>
        <time>2021-08-07T15:05:17Z</time>
      </trkpt>
      <trkpt lat="47.88049" lon="7.05912">
        <ele>662.4</ele>
        <time>2021-08-07T15:05:18Z</time>
      </trkpt>
      <trkpt lat="47.88049" lon="7.0591">
        <ele>662.4</ele>
        <time>2021-08-07T15:05:19Z</time>
      </trkpt>
      <trkpt lat="47.88048" lon="7.05909">
        <ele>662.4</ele>
        <time>2021-08-07T15:05:20Z</time>
      </trkpt>
      <trkpt lat="47.88048" lon="7.05908">
        <ele>662.4</ele>
        <time>2021-08-07T15:05:22Z</time>
      </trkpt>
      <trkpt lat="47.88048" lon="7.05908">
        <ele>662.4</ele>
        <time>2021-08-07T15:05:23Z</time>
      </trkpt>
      <trkpt lat="47.88051" lon="7.05904">
        <ele>662.4</ele>
        <time>2021-08-07T15:05:25Z</time>
      </trkpt>
      <trkpt lat="47.88054" lon="7.059">
        <ele>662.5</ele>
        <time>2021-08-07T15:05:26Z</time>
      </trkpt>
      <trkpt lat="47.88056" lon="7.05898">
        <ele>662.5</ele>
        <time>2021-08-07T15:05:28Z</time>
      </trkpt>
      <trkpt lat="47.88056" lon="7.05898">
        <ele>662.5</ele>
        <time>2021-08-07T15:05:30Z</time>
      </trkpt>
      <trkpt lat="47.88056" lon="7.05898">
        <ele>662.5</ele>
        <time>2021-08-07T15:05:31Z</time>
      </trkpt>
      <trkpt lat="47.88057" lon="7.05897">
        <ele>662.5</ele>
        <time>2021-08-07T15:05:32Z</time>
      </trkpt>
      <trkpt lat="47.88057" lon="7.05897">
        <ele>662.5</ele>
        <time>2021-08-07T15:05:34Z</time>
      </trkpt>
      <trkpt lat="47.88057" lon="7.05897">
        <ele>662.5</ele>
        <time>2021-08-07T15:05:35Z</time>
      </trkpt>
      <trkpt lat="47.88057" lon="7.05897">
        <ele>662.5</ele>
        <time>2021-08-07T15:05:36Z</time>
      </trkpt>
      <trkpt lat="47.88058" lon="7.05896">
        <ele>662.5</ele>
        <time>2021-08-07T15:05:37Z</time>
      </trkpt>
      <trkpt lat="47.88058" lon="7.05896">
        <ele>662.5</ele>
        <time>2021-08-07T15:05:38Z</time>
      </trkpt>
      <trkpt lat="47.88058" lon="7.05896">
        <ele>662.5</ele>
        <time>2021-08-07T15:05:39Z</time>
      </trkpt>
      <trkpt lat="47.88058" lon="7.05896">
        <ele>662.5</ele>
        <time>2021-08-07T15:05:40Z</time>
      </trkpt>
      <trkpt lat="47.88059" lon="7.05895">
        <ele>662.5</ele>
        <time>2021-08-07T15:05:42Z</time>
      </trkpt>
      <trkpt lat="47.88059" lon="7.05895">
        <ele>662.5</ele>
        <time>2021-08-07T15:05:43Z</time>
      </trkpt>
      <trkpt lat="47.88059" lon="7.05895">
        <ele>662.5</ele>
        <time>2021-08-07T15:05:44Z</time>
      </trkpt>
      <trkpt lat="47.88059" lon="7.05894">
        <ele>662.5</ele>
        <time>2021-08-07T15:05:45Z</time>
      </trkpt>
      <trkpt lat="47.8806" lon="7.05894">
        <ele>662.5</ele>
        <time>2021-08-07T15:05:47Z</time>
      </trkpt>
      <trkpt lat="47.8806" lon="7.05894">
        <ele>662.5</ele>
        <time>2021-08-07T15:05:48Z</time>
      </trkpt>
      <trkpt lat="47.88062" lon="7.05892">
        <ele>662.5</ele>
        <time>2021-08-07T15:05:49Z</time>
      </trkpt>
      <trkpt lat="47.88064" lon="7.05891">
        <ele>662.5</ele>
        <time>2021-08-07T15:05:51Z</time>
      </trkpt>
      <trkpt lat="47.88065" lon="7.05891">
        <ele>662.5</ele>
        <time>2021-08-07T15:05:52Z</time>
      </trkpt>
      <trkpt lat="47.88065" lon="7.05891">
        <ele>662.5</ele>
        <time>2021-08-07T15:05:53Z</time>
      </trkpt>
      <trkpt lat="47.88065" lon="7.05891">
        <ele>662.5</ele>
        <time>2021-08-07T15:05:55Z</time>
      </trkpt>
      <trkpt lat="47.88065" lon="7.05891">
        <ele>662.5</ele>
        <time>2021-08-07T15:05:56Z</time>
      </trkpt>
      <trkpt lat="47.88065" lon="7.05891">
        <ele>662.5</ele>
        <time>2021-08-07T15:05:57Z</time>
      </trkpt>
      <trkpt lat="47.88065" lon="7.05891">
        <ele>662.5</ele>
        <time>2021-08-07T15:05:59Z</time>
      </trkpt>
      <trkpt lat="47.88065" lon="7.05891">
        <ele>662.5</ele>
        <time>2021-08-07T15:06:00Z</time>
      </trkpt>
      <trkpt lat="47.88065" lon="7.05891">
        <ele>662.5</ele>
        <time>2021-08-07T15:06:02Z</time>
      </trkpt>
      <trkpt lat="47.88063" lon="7.05888">
        <ele>662.5</ele>
        <time>2021-08-07T15:06:03Z</time>
      </trkpt>
      <trkpt lat="47.88062" lon="7.05888">
        <ele>662.5</ele>
        <time>2021-08-07T15:06:04Z</time>
      </trkpt>
      <trkpt lat="47.88061" lon="7.05888">
        <ele>662.5</ele>
        <time>2021-08-07T15:06:05Z</time>
      </trkpt>
      <trkpt lat="47.88062" lon="7.05889">
        <ele>662.5</ele>
        <time>2021-08-07T15:06:07Z</time>
      </trkpt>
      <trkpt lat="47.88062" lon="7.0589">
        <ele>662.5</ele>
        <time>2021-08-07T15:06:08Z</time>
      </trkpt>
      <trkpt lat="47.88062" lon="7.0589">
        <ele>662.5</ele>
        <time>2021-08-07T15:06:09Z</time>
      </trkpt>
      <trkpt lat="47.88061" lon="7.05894">
        <ele>662.5</ele>
        <time>2021-08-07T15:06:11Z</time>
      </trkpt>
      <trkpt lat="47.88059" lon="7.05896">
        <ele>662.5</ele>
        <time>2021-08-07T15:06:12Z</time>
      </trkpt>
      <trkpt lat="47.88056" lon="7.05899">
        <ele>662.5</ele>
        <time>2021-08-07T15:06:14Z</time>
      </trkpt>
      <trkpt lat="47.88054" lon="7.05902">
        <ele>662.5</ele>
        <time>2021-08-07T15:06:15Z</time>
      </trkpt>
      <trkpt lat="47.88053" lon="7.05903">
        <ele>662.5</ele>
        <time>2021-08-07T15:06:16Z</time>
      </trkpt>
      <trkpt lat="47.88053" lon="7.05903">
        <ele>662.5</ele>
        <time>2021-08-07T15:06:17Z</time>
      </trkpt>
      <trkpt lat="47.88053" lon="7.05903">
        <ele>662.5</ele>
        <time>2021-08-07T15:06:18Z</time>
      </trkpt>
      <trkpt lat="47.88053" lon="7.05903">
        <ele>662.5</ele>
        <time>2021-08-07T15:06:20Z</time>
      </trkpt>
      <trkpt lat="47.88053" lon="7.05903">
        <ele>662.5</ele>
        <time>2021-08-07T15:06:21Z</time>
      </trkpt>
      <trkpt lat="47.88052" lon="7.05903">
        <ele>662.5</ele>
        <time>2021-08-07T15:06:22Z</time>
      </trkpt>
      <trkpt lat="47.88047" lon="7.05907">
        <ele>662.5</ele>
        <time>2021-08-07T15:06:25Z</time>
      </trkpt>
      <trkpt lat="47.88046" lon="7.05908">
        <ele>662.6</ele>
        <time>2021-08-07T15:06:26Z</time>
      </trkpt>
      <trkpt lat="47.88046" lon="7.05909">
        <ele>662.6</ele>
        <time>2021-08-07T15:06:28Z</time>
      </trkpt>
      <trkpt lat="47.88046" lon="7.0591">
        <ele>662.6</ele>
        <time>2021-08-07T15:06:30Z</time>
      </trkpt>
      <trkpt lat="47.88046" lon="7.05911">
        <ele>662.6</ele>
        <time>2021-08-07T15:06:32Z</time>
      </trkpt>
      <trkpt lat="47.88046" lon="7.05912">
        <ele>662.6</ele>
        <time>2021-08-07T15:06:33Z</time>
      </trkpt>
      <trkpt lat="47.88046" lon="7.05913">
        <ele>662.6</ele>
        <time>2021-08-07T15:06:34Z</time>
      </trkpt>
      <trkpt lat="47.88046" lon="7.05914">
        <ele>662.6</ele>
        <time>2021-08-07T15:06:36Z</time>
      </trkpt>
      <trkpt lat="47.88046" lon="7.05916">
        <ele>662.6</ele>
        <time>2021-08-07T15:06:37Z</time>
      </trkpt>
      <trkpt lat="47.88046" lon="7.05917">
        <ele>662.6</ele>
        <time>2021-08-07T15:06:39Z</time>
      </trkpt>
      <trkpt lat="47.88045" lon="7.05918">
        <ele>662.6</ele>
        <time>2021-08-07T15:06:41Z</time>
      </trkpt>
      <trkpt lat="47.88045" lon="7.05919">
        <ele>662.6</ele>
        <time>2021-08-07T15:06:43Z</time>
      </trkpt>
      <trkpt lat="47.88045" lon="7.0592">
        <ele>662.6</ele>
        <time>2021-08-07T15:06:44Z</time>
      </trkpt>
      <trkpt lat="47.88045" lon="7.05921">
        <ele>662.6</ele>
        <time>2021-08-07T15:06:45Z</time>
      </trkpt>
      <trkpt lat="47.88045" lon="7.05922">
        <ele>662.6</ele>
        <time>2021-08-07T15:06:46Z</time>
      </trkpt>
      <trkpt lat="47.88045" lon="7.05923">
        <ele>662.6</ele>
        <time>2021-08-07T15:06:47Z</time>
      </trkpt>
      <trkpt lat="47.88045" lon="7.05924">
        <ele>662.6</ele>
        <time>2021-08-07T15:06:48Z</time>
      </trkpt>
      <trkpt lat="47.88046" lon="7.05924">
        <ele>662.6</ele>
        <time>2021-08-07T15:06:49Z</time>
      </trkpt>
      <trkpt lat="47.88047" lon="7.05922">
        <ele>662.6</ele>
        <time>2021-08-07T15:06:51Z</time>
      </trkpt>
      <trkpt lat="47.88048" lon="7.0592">
        <ele>662.6</ele>
        <time>2021-08-07T15:06:52Z</time>
      </trkpt>
      <trkpt lat="47.8805" lon="7.05916">
        <ele>662.6</ele>
        <time>2021-08-07T15:06:53Z</time>
      </trkpt>
      <trkpt lat="47.88052" lon="7.05913">
        <ele>662.6</ele>
        <time>2021-08-07T15:06:54Z</time>
      </trkpt>
      <trkpt lat="47.88053" lon="7.05912">
        <ele>662.6</ele>
        <time>2021-08-07T15:06:55Z</time>
      </trkpt>
      <trkpt lat="47.88054" lon="7.05911">
        <ele>662.6</ele>
        <time>2021-08-07T15:06:57Z</time>
      </trkpt>
      <trkpt lat="47.88054" lon="7.05911">
        <ele>662.6</ele>
        <time>2021-08-07T15:06:58Z</time>
      </trkpt>
      <trkpt lat="47.88054" lon="7.05911">
        <ele>662.6</ele>
        <time>2021-08-07T15:06:59Z</time>
      </trkpt>
      <trkpt lat="47.88054" lon="7.05911">
        <ele>662.6</ele>
        <time>2021-08-07T15:07:01Z</time>
      </trkpt>
      <trkpt lat="47.88054" lon="7.05911">
        <ele>662.6</ele>
        <time>2021-08-07T15:07:02Z</time>
      </trkpt>
      <trkpt lat="47.88054" lon="7.05911">
        <ele>662.6</ele>
        <time>2021-08-07T15:07:04Z</time>
      </trkpt>
      <trkpt lat="47.88054" lon="7.05911">
        <ele>662.6</ele>
        <time>2021-08-07T15:07:05Z</time>
      </trkpt>
      <trkpt lat="47.88054" lon="7.05911">
        <ele>662.6</ele>
        <time>2021-08-07T15:07:06Z</time>
      </trkpt>
      <trkpt lat="47.88054" lon="7.05911">
        <ele>662.6</ele>
        <time>2021-08-07T15:07:08Z</time>
      </trkpt>
      <trkpt lat="47.88052" lon="7.05915">
        <ele>662.6</ele>
        <time>2021-08-07T15:07:10Z</time>
      </trkpt>
      <trkpt lat="47.88051" lon="7.05922">
        <ele>662.6</ele>
        <time>2021-08-07T15:07:12Z</time>
      </trkpt>
      <trkpt lat="47.8805" lon="7.05923">
        <ele>662.6</ele>
        <time>2021-08-07T15:07:13Z</time>
      </trkpt>
      <trkpt lat="47.88048" lon="7.05924">
        <ele>662.6</ele>
        <time>2021-08-07T15:07:14Z</time>
      </trkpt>
      <trkpt lat="47.88045" lon="7.05925">
        <ele>662.7</ele>
        <time>2021-08-07T15:07:16Z</time>
      </trkpt>
      <trkpt lat="47.88043" lon="7.05926">
        <ele>662.7</ele>
        <time>2021-08-07T15:07:17Z</time>
      </trkpt>
      <trkpt lat="47.88042" lon="7.05927">
        <ele>662.7</ele>
        <time>2021-08-07T15:07:18Z</time>
      </trkpt>
      <trkpt lat="47.88045" lon="7.05925">
        <ele>662.7</ele>
        <time>2021-08-07T15:07:20Z</time>
      </trkpt>
      <trkpt lat="47.88045" lon="7.05925">
        <ele>662.7</ele>
        <time>2021-08-07T15:07:21Z</time>
      </trkpt>
      <trkpt lat="47.88046" lon="7.05927">
        <ele>662.7</ele>
        <time>2021-08-07T15:07:23Z</time>
      </trkpt>
      <trkpt lat="47.88046" lon="7.05927">
        <ele>662.7</ele>
        <time>2021-08-07T15:07:25Z</time>
      </trkpt>
      <trkpt lat="47.88048" lon="7.05927">
        <ele>662.7</ele>
        <time>2021-08-07T15:07:26Z</time>
      </trkpt>
      <trkpt lat="47.8805" lon="7.05926">
        <ele>662.7</ele>
        <time>2021-08-07T15:07:28Z</time>
      </trkpt>
      <trkpt lat="47.88052" lon="7.05923">
        <ele>662.7</ele>
        <time>2021-08-07T15:07:30Z</time>
      </trkpt>
      <trkpt lat="47.88052" lon="7.05922">
        <ele>662.7</ele>
        <time>2021-08-07T15:07:32Z</time>
      </trkpt>
      <trkpt lat="47.88052" lon="7.05921">
        <ele>662.7</ele>
        <time>2021-08-07T15:07:33Z</time>
      </trkpt>
      <trkpt lat="47.88053" lon="7.05921">
        <ele>662.7</ele>
        <time>2021-08-07T15:07:35Z</time>
      </trkpt>
      <trkpt lat="47.88053" lon="7.0592">
        <ele>662.7</ele>
        <time>2021-08-07T15:07:36Z</time>
      </trkpt>
      <trkpt lat="47.88053" lon="7.0592">
        <ele>662.7</ele>
        <time>2021-08-07T15:07:37Z</time>
      </trkpt>
      <trkpt lat="47.88053" lon="7.0592">
        <ele>662.7</ele>
        <time>2021-08-07T15:07:39Z</time>
      </trkpt>
      <trkpt lat="47.88054" lon="7.05919">
        <ele>662.7</ele>
        <time>2021-08-07T15:07:41Z</time>
      </trkpt>
      <trkpt lat="47.88054" lon="7.05919">
        <ele>662.7</ele>
        <time>2021-08-07T15:07:43Z</time>
      </trkpt>
      <trkpt lat="47.88054" lon="7.05918">
        <ele>662.7</ele>
        <time>2021-08-07T15:07:44Z</time>
      </trkpt>
      <trkpt lat="47.88055" lon="7.05918">
        <ele>662.7</ele>
        <time>2021-08-07T15:07:45Z</time>
      </trkpt>
      <trkpt lat="47.88055" lon="7.05918">
        <ele>662.7</ele>
        <time>2021-08-07T15:07:47Z</time>
      </trkpt>
      <trkpt lat="47.88055" lon="7.05917">
        <ele>662.7</ele>
        <time>2021-08-07T15:07:49Z</time>
      </trkpt>
      <trkpt lat="47.88055" lon="7.05917">
        <ele>662.7</ele>
        <time>2021-08-07T15:07:50Z</time>
      </trkpt>
      <trkpt lat="47.88057" lon="7.05914">
        <ele>662.7</ele>
        <time>2021-08-07T15:07:51Z</time>
      </trkpt>
      <trkpt lat="47.88059" lon="7.05911">
        <ele>662.7</ele>
        <time>2021-08-07T15:07:53Z</time>
      </trkpt>
      <trkpt lat="47.88058" lon="7.05909">
        <ele>662.7</ele>
        <time>2021-08-07T15:07:55Z</time>
      </trkpt>
      <trkpt lat="47.88057" lon="7.05909">
        <ele>662.7</ele>
        <time>2021-08-07T15:07:56Z</time>
      </trkpt>
      <trkpt lat="47.88056" lon="7.05908">
        <ele>662.7</ele>
        <time>2021-08-07T15:07:58Z</time>
      </trkpt>
      <trkpt lat="47.88056" lon="7.05909">
        <ele>662.7</ele>
        <time>2021-08-07T15:07:59Z</time>
      </trkpt>
      <trkpt lat="47.88055" lon="7.05909">
        <ele>662.8</ele>
        <time>2021-08-07T15:08:01Z</time>
      </trkpt>
      <trkpt lat="47.88055" lon="7.05909">
        <ele>662.8</ele>
        <time>2021-08-07T15:08:02Z</time>
      </trkpt>
      <trkpt lat="47.88055" lon="7.05909">
        <ele>662.8</ele>
        <time>2021-08-07T15:08:04Z</time>
      </trkpt>
      <trkpt lat="47.88055" lon="7.05909">
        <ele>662.8</ele>
        <time>2021-08-07T15:08:06Z</time>
      </trkpt>
      <trkpt lat="47.88055" lon="7.05909">
        <ele>662.8</ele>
        <time>2021-08-07T15:08:08Z</time>
      </trkpt>
      <trkpt lat="47.88055" lon="7.05909">
        <ele>662.8</ele>
        <time>2021-08-07T15:08:09Z</time>
      </trkpt>
      <trkpt lat="47.88055" lon="7.05909">
        <ele>662.8</ele>
        <time>2021-08-07T15:08:10Z</time>
      </trkpt>
      <trkpt lat="47.88055" lon="7.05909">
        <ele>662.8</ele>
        <time>2021-08-07T15:08:12Z</time>
      </trkpt>
      <trkpt lat="47.88055" lon="7.05909">
        <ele>662.8</ele>
        <time>2021-08-07T15:08:13Z</time>
      </trkpt>
      <trkpt lat="47.88051" lon="7.05906">
        <ele>662.8</ele>
        <time>2021-08-07T15:08:15Z</time>
      </trkpt>
      <trkpt lat="47.88048" lon="7.05903">
        <ele>662.8</ele>
        <time>2021-08-07T15:08:17Z</time>
      </trkpt>
      <trkpt lat="47.88048" lon="7.05903">
        <ele>662.8</ele>
        <time>2021-08-07T15:08:18Z</time>
      </trkpt>
      <trkpt lat="47.88048" lon="7.05902">
        <ele>662.8</ele>
        <time>2021-08-07T15:08:20Z</time>
      </trkpt>
      <trkpt lat="47.88048" lon="7.05902">
        <ele>662.8</ele>
        <time>2021-08-07T15:08:21Z</time>
      </trkpt>
      <trkpt lat="47.88048" lon="7.05903">
        <ele>662.8</ele>
        <time>2021-08-07T15:08:23Z</time>
      </trkpt>
      <trkpt lat="47.88048" lon="7.05903">
        <ele>662.8</ele>
        <time>2021-08-07T15:08:26Z</time>
      </trkpt>
      <trkpt lat="47.88048" lon="7.05903">
        <ele>662.8</ele>
        <time>2021-08-07T15:08:31Z</time>
      </trkpt>
      <trkpt lat="47.88053" lon="7.05901">
        <ele>662.8</ele>
        <time>2021-08-07T15:08:34Z</time>
      </trkpt>
      <trkpt lat="47.88053" lon="7.05901">
        <ele>662.8</ele>
        <time>2021-08-07T15:08:39Z</time>
      </trkpt>
      <trkpt lat="47.88056" lon="7.059">
        <ele>662.8</ele>
        <time>2021-08-07T15:08:45Z</time>
      </trkpt>
      <trkpt lat="47.88056" lon="7.059">
        <ele>662.8</ele>
        <time>2021-08-07T15:08:46Z</time>
      </trkpt>
      <trkpt lat="47.88056" lon="7.059">
        <ele>662.8</ele>
        <time>2021-08-07T15:08:51Z</time>
      </trkpt>
      <trkpt lat="47.88055" lon="7.059">
        <ele>662.8</ele>
        <time>2021-08-07T15:08:58Z</time>
      </trkpt>
      <trkpt lat="47.88054" lon="7.05903">
        <ele>662.8</ele>
        <time>2021-08-07T15:10:34Z</time>
      </trkpt>
      <trkpt lat="47.88056" lon="7.05899">
        <ele>662.8</ele>
        <time>2021-08-07T15:10:40Z</time>
      </trkpt>
      <trkpt lat="47.88056" lon="7.05898">
        <ele>662.8</ele>
        <time>2021-08-07T15:10:44Z</time>
      </trkpt>
      <trkpt lat="47.88056" lon="7.05897">
        <ele>662.8</ele>
        <time>2021-08-07T15:10:45Z</time>
      </trkpt>
      <trkpt lat="47.88056" lon="7.05897">
        <ele>662.8</ele>
        <time>2021-08-07T15:10:47Z</time>
      </trkpt>
      <trkpt lat="47.88056" lon="7.05897">
        <ele>662.8</ele>
        <time>2021-08-07T15:10:48Z</time>
      </trkpt>
      <trkpt lat="47.88057" lon="7.059">
        <ele>662.8</ele>
        <time>2021-08-07T15:10:50Z</time>
      </trkpt>
      <trkpt lat="47.88054" lon="7.05901">
        <ele>662.8</ele>
        <time>2021-08-07T15:17:46Z</time>
      </trkpt>
      <trkpt lat="47.88051" lon="7.05895">
        <ele>662.9</ele>
        <time>2021-08-07T15:17:48Z</time>
      </trkpt>
      <trkpt lat="47.88051" lon="7.05892">
        <ele>662.9</ele>
        <time>2021-08-07T15:17:49Z</time>
      </trkpt>
      <trkpt lat="47.88053" lon="7.05889">
        <ele>662.9</ele>
        <time>2021-08-07T15:17:51Z</time>
      </trkpt>
      <trkpt lat="47.88055" lon="7.05888">
        <ele>662.9</ele>
        <time>2021-08-07T15:17:52Z</time>
      </trkpt>
      <trkpt lat="47.88057" lon="7.05887">
        <ele>662.9</ele>
        <time>2021-08-07T15:17:53Z</time>
      </trkpt>
      <trkpt lat="47.88058" lon="7.05886">
        <ele>662.9</ele>
        <time>2021-08-07T15:17:54Z</time>
      </trkpt>
      <trkpt lat="47.88061" lon="7.05885">
        <ele>662.9</ele>
        <time>2021-08-07T15:17:56Z</time>
      </trkpt>
      <trkpt lat="47.88061" lon="7.05885">
        <ele>663</ele>
        <time>2021-08-07T15:17:58Z</time>
      </trkpt>
      <trkpt lat="47.88061" lon="7.05885">
        <ele>663</ele>
        <time>2021-08-07T15:17:59Z</time>
      </trkpt>
      <trkpt lat="47.88061" lon="7.05885">
        <ele>663</ele>
        <time>2021-08-07T15:18:00Z</time>
      </trkpt>
      <trkpt lat="47.88066" lon="7.05879">
        <ele>663</ele>
        <time>2021-08-07T15:18:02Z</time>
      </trkpt>
      <trkpt lat="47.88063" lon="7.05887">
        <ele>663</ele>
        <time>2021-08-07T15:18:03Z</time>
      </trkpt>
      <trkpt lat="47.88059" lon="7.05895">
        <ele>663</ele>
        <time>2021-08-07T15:18:05Z</time>
      </trkpt>
      <trkpt lat="47.88058" lon="7.05897">
        <ele>663</ele>
        <time>2021-08-07T15:18:06Z</time>
      </trkpt>
      <trkpt lat="47.88058" lon="7.05897">
        <ele>663</ele>
        <time>2021-08-07T15:18:08Z</time>
      </trkpt>
      <trkpt lat="47.88058" lon="7.05896">
        <ele>663</ele>
        <time>2021-08-07T15:18:09Z</time>
      </trkpt>
      <trkpt lat="47.88058" lon="7.05896">
        <ele>663</ele>
        <time>2021-08-07T15:18:10Z</time>
      </trkpt>
      <trkpt lat="47.88058" lon="7.05896">
        <ele>663</ele>
        <time>2021-08-07T15:18:11Z</time>
      </trkpt>
      <trkpt lat="47.88058" lon="7.05896">
        <ele>663</ele>
        <time>2021-08-07T15:18:13Z</time>
      </trkpt>
      <trkpt lat="47.88058" lon="7.05896">
        <ele>663</ele>
        <time>2021-08-07T15:18:14Z</time>
      </trkpt>
      <trkpt lat="47.88058" lon="7.05896">
        <ele>663</ele>
        <time>2021-08-07T15:18:16Z</time>
      </trkpt>
      <trkpt lat="47.88058" lon="7.05896">
        <ele>663</ele>
        <time>2021-08-07T15:18:17Z</time>
      </trkpt>
      <trkpt lat="47.88058" lon="7.05895">
        <ele>663</ele>
        <time>2021-08-07T15:18:18Z</time>
      </trkpt>
      <trkpt lat="47.88058" lon="7.05895">
        <ele>663</ele>
        <time>2021-08-07T15:18:20Z</time>
      </trkpt>
      <trkpt lat="47.88058" lon="7.05895">
        <ele>663</ele>
        <time>2021-08-07T15:18:21Z</time>
      </trkpt>
      <trkpt lat="47.88058" lon="7.05895">
        <ele>663</ele>
        <time>2021-08-07T15:18:23Z</time>
      </trkpt>
      <trkpt lat="47.88058" lon="7.05895">
        <ele>663</ele>
        <time>2021-08-07T15:18:25Z</time>
      </trkpt>
      <trkpt lat="47.88058" lon="7.05895">
        <ele>663</ele>
        <time>2021-08-07T15:18:26Z</time>
      </trkpt>
      <trkpt lat="47.88058" lon="7.05894">
        <ele>663</ele>
        <time>2021-08-07T15:18:27Z</time>
      </trkpt>
      <trkpt lat="47.88058" lon="7.05894">
        <ele>663</ele>
        <time>2021-08-07T15:18:29Z</time>
      </trkpt>
      <trkpt lat="47.88058" lon="7.05894">
        <ele>663</ele>
        <time>2021-08-07T15:18:31Z</time>
      </trkpt>
      <trkpt lat="47.88058" lon="7.05894">
        <ele>663</ele>
        <time>2021-08-07T15:18:32Z</time>
      </trkpt>
      <trkpt lat="47.88058" lon="7.05894">
        <ele>663</ele>
        <time>2021-08-07T15:18:34Z</time>
      </trkpt>
      <trkpt lat="47.88058" lon="7.05894">
        <ele>663</ele>
        <time>2021-08-07T15:18:35Z</time>
      </trkpt>
      <trkpt lat="47.88058" lon="7.05894">
        <ele>663</ele>
        <time>2021-08-07T15:18:37Z</time>
      </trkpt>
      <trkpt lat="47.88058" lon="7.05893">
        <ele>663</ele>
        <time>2021-08-07T15:18:38Z</time>
      </trkpt>
      <trkpt lat="47.88058" lon="7.05893">
        <ele>663</ele>
        <time>2021-08-07T15:18:39Z</time>
      </trkpt>
      <trkpt lat="47.88058" lon="7.05893">
        <ele>663</ele>
        <time>2021-08-07T15:18:40Z</time>
      </trkpt>
      <trkpt lat="47.88058" lon="7.05893">
        <ele>663</ele>
        <time>2021-08-07T15:18:41Z</time>
      </trkpt>
      <trkpt lat="47.88058" lon="7.05893">
        <ele>663</ele>
        <time>2021-08-07T15:18:43Z</time>
      </trkpt>
      <trkpt lat="47.88058" lon="7.05893">
        <ele>663</ele>
        <time>2021-08-07T15:18:44Z</time>
      </trkpt>
      <trkpt lat="47.88058" lon="7.05893">
        <ele>663</ele>
        <time>2021-08-07T15:18:45Z</time>
      </trkpt>
      <trkpt lat="47.88058" lon="7.05892">
        <ele>663</ele>
        <time>2021-08-07T15:18:46Z</time>
      </trkpt>
      <trkpt lat="47.88058" lon="7.05886">
        <ele>663</ele>
        <time>2021-08-07T15:18:48Z</time>
      </trkpt>
      <trkpt lat="47.88058" lon="7.05885">
        <ele>663</ele>
        <time>2021-08-07T15:18:49Z</time>
      </trkpt>
      <trkpt lat="47.88058" lon="7.05885">
        <ele>663</ele>
        <time>2021-08-07T15:18:50Z</time>
      </trkpt>
      <trkpt lat="47.88059" lon="7.05883">
        <ele>663</ele>
        <time>2021-08-07T15:18:51Z</time>
      </trkpt>
      <trkpt lat="47.88059" lon="7.05882">
        <ele>663</ele>
        <time>2021-08-07T15:18:53Z</time>
      </trkpt>
      <trkpt lat="47.88059" lon="7.05882">
        <ele>663</ele>
        <time>2021-08-07T15:18:54Z</time>
      </trkpt>
      <trkpt lat="47.88059" lon="7.05882">
        <ele>663</ele>
        <time>2021-08-07T15:18:55Z</time>
      </trkpt>
      <trkpt lat="47.88059" lon="7.05882">
        <ele>663</ele>
        <time>2021-08-07T15:18:56Z</time>
      </trkpt>
      <trkpt lat="47.88059" lon="7.05882">
        <ele>663</ele>
        <time>2021-08-07T15:18:58Z</time>
      </trkpt>
      <trkpt lat="47.88059" lon="7.05882">
        <ele>663</ele>
        <time>2021-08-07T15:19:00Z</time>
      </trkpt>
      <trkpt lat="47.88059" lon="7.05882">
        <ele>663</ele>
        <time>2021-08-07T15:19:02Z</time>
      </trkpt>
      <trkpt lat="47.88059" lon="7.05882">
        <ele>663</ele>
        <time>2021-08-07T15:19:04Z</time>
      </trkpt>
      <trkpt lat="47.88057" lon="7.05888">
        <ele>662.9</ele>
        <time>2021-08-07T15:19:06Z</time>
      </trkpt>
      <trkpt lat="47.88056" lon="7.05891">
        <ele>662.9</ele>
        <time>2021-08-07T15:19:08Z</time>
      </trkpt>
      <trkpt lat="47.88056" lon="7.05891">
        <ele>662.9</ele>
        <time>2021-08-07T15:19:09Z</time>
      </trkpt>
      <trkpt lat="47.88056" lon="7.0589">
        <ele>662.9</ele>
        <time>2021-08-07T15:19:11Z</time>
      </trkpt>
      <trkpt lat="47.88055" lon="7.05892">
        <ele>662.9</ele>
        <time>2021-08-07T15:19:13Z</time>
      </trkpt>
      <trkpt lat="47.88055" lon="7.05894">
        <ele>662.9</ele>
        <time>2021-08-07T15:19:14Z</time>
      </trkpt>
      <trkpt lat="47.88054" lon="7.05896">
        <ele>662.9</ele>
        <time>2021-08-07T15:19:15Z</time>
      </trkpt>
      <trkpt lat="47.88052" lon="7.05904">
        <ele>662.9</ele>
        <time>2021-08-07T15:19:17Z</time>
      </trkpt>
      <trkpt lat="47.88052" lon="7.05906">
        <ele>662.9</ele>
        <time>2021-08-07T15:19:18Z</time>
      </trkpt>
      <trkpt lat="47.88052" lon="7.05905">
        <ele>662.9</ele>
        <time>2021-08-07T15:19:20Z</time>
      </trkpt>
      <trkpt lat="47.88052" lon="7.05906">
        <ele>662.9</ele>
        <time>2021-08-07T15:19:21Z</time>
      </trkpt>
      <trkpt lat="47.88052" lon="7.05907">
        <ele>662.9</ele>
        <time>2021-08-07T15:19:23Z</time>
      </trkpt>
      <trkpt lat="47.88052" lon="7.05907">
        <ele>662.9</ele>
        <time>2021-08-07T15:19:24Z</time>
      </trkpt>
      <trkpt lat="47.88052" lon="7.05907">
        <ele>662.9</ele>
        <time>2021-08-07T15:19:26Z</time>
      </trkpt>
      <trkpt lat="47.88052" lon="7.05907">
        <ele>662.9</ele>
        <time>2021-08-07T15:19:27Z</time>
      </trkpt>
      <trkpt lat="47.88052" lon="7.05907">
        <ele>662.9</ele>
        <time>2021-08-07T15:19:29Z</time>
      </trkpt>
      <trkpt lat="47.88053" lon="7.05918">
        <ele>662.9</ele>
        <time>2021-08-07T15:19:31Z</time>
      </trkpt>
      <trkpt lat="47.88053" lon="7.05922">
        <ele>662.9</ele>
        <time>2021-08-07T15:19:33Z</time>
      </trkpt>
      <trkpt lat="47.88053" lon="7.05924">
        <ele>662.9</ele>
        <time>2021-08-07T15:19:34Z</time>
      </trkpt>
      <trkpt lat="47.88053" lon="7.05926">
        <ele>662.9</ele>
        <time>2021-08-07T15:19:36Z</time>
      </trkpt>
      <trkpt lat="47.88052" lon="7.05928">
        <ele>662.9</ele>
        <time>2021-08-07T15:19:38Z</time>
      </trkpt>
      <trkpt lat="47.88053" lon="7.0593">
        <ele>662.9</ele>
        <time>2021-08-07T15:19:39Z</time>
      </trkpt>
      <trkpt lat="47.88052" lon="7.05936">
        <ele>662.9</ele>
        <time>2021-08-07T15:19:41Z</time>
      </trkpt>
      <trkpt lat="47.88051" lon="7.05937">
        <ele>662.9</ele>
        <time>2021-08-07T15:19:42Z</time>
      </trkpt>
      <trkpt lat="47.88051" lon="7.05938">
        <ele>662.9</ele>
        <time>2021-08-07T15:19:43Z</time>
      </trkpt>
      <trkpt lat="47.88051" lon="7.0594">
        <ele>662.9</ele>
        <time>2021-08-07T15:19:45Z</time>
      </trkpt>
      <trkpt lat="47.8805" lon="7.05941">
        <ele>662.9</ele>
        <time>2021-08-07T15:19:46Z</time>
      </trkpt>
      <trkpt lat="47.88051" lon="7.05942">
        <ele>662.9</ele>
        <time>2021-08-07T15:19:48Z</time>
      </trkpt>
      <trkpt lat="47.88051" lon="7.05943">
        <ele>662.9</ele>
        <time>2021-08-07T15:19:50Z</time>
      </trkpt>
      <trkpt lat="47.88051" lon="7.05943">
        <ele>662.9</ele>
        <time>2021-08-07T15:19:51Z</time>
      </trkpt>
      <trkpt lat="47.88051" lon="7.05943">
        <ele>662.9</ele>
        <time>2021-08-07T15:19:52Z</time>
      </trkpt>
      <trkpt lat="47.88051" lon="7.05942">
        <ele>662.9</ele>
        <time>2021-08-07T15:19:53Z</time>
      </trkpt>
      <trkpt lat="47.88051" lon="7.05942">
        <ele>662.9</ele>
        <time>2021-08-07T15:19:54Z</time>
      </trkpt>
      <trkpt lat="47.88052" lon="7.0594">
        <ele>662.9</ele>
        <time>2021-08-07T15:19:56Z</time>
      </trkpt>
      <trkpt lat="47.88052" lon="7.0594">
        <ele>662.9</ele>
        <time>2021-08-07T15:19:57Z</time>
      </trkpt>
      <trkpt lat="47.88053" lon="7.0594">
        <ele>662.9</ele>
        <time>2021-08-07T15:19:59Z</time>
      </trkpt>
      <trkpt lat="47.88053" lon="7.0594">
        <ele>662.9</ele>
        <time>2021-08-07T15:20:00Z</time>
      </trkpt>
      <trkpt lat="47.88055" lon="7.05934">
        <ele>662.9</ele>
        <time>2021-08-07T15:20:02Z</time>
      </trkpt>
      <trkpt lat="47.88058" lon="7.05928">
        <ele>662.9</ele>
        <time>2021-08-07T15:20:04Z</time>
      </trkpt>
      <trkpt lat="47.88059" lon="7.05927">
        <ele>662.9</ele>
        <time>2021-08-07T15:20:06Z</time>
      </trkpt>
      <trkpt lat="47.88059" lon="7.05927">
        <ele>662.9</ele>
        <time>2021-08-07T15:20:07Z</time>
      </trkpt>
      <trkpt lat="47.88059" lon="7.05927">
        <ele>662.9</ele>
        <time>2021-08-07T15:20:09Z</time>
      </trkpt>
      <trkpt lat="47.88059" lon="7.05927">
        <ele>662.9</ele>
        <time>2021-08-07T15:20:10Z</time>
      </trkpt>
      <trkpt lat="47.88059" lon="7.05927">
        <ele>662.9</ele>
        <time>2021-08-07T15:20:12Z</time>
      </trkpt>
      <trkpt lat="47.88059" lon="7.05927">
        <ele>662.9</ele>
        <time>2021-08-07T15:20:14Z</time>
      </trkpt>
      <trkpt lat="47.88059" lon="7.05927">
        <ele>662.9</ele>
        <time>2021-08-07T15:20:15Z</time>
      </trkpt>
      <trkpt lat="47.88059" lon="7.05927">
        <ele>662.9</ele>
        <time>2021-08-07T15:20:16Z</time>
      </trkpt>
      <trkpt lat="47.88059" lon="7.05927">
        <ele>662.9</ele>
        <time>2021-08-07T15:20:18Z</time>
      </trkpt>
      <trkpt lat="47.88059" lon="7.05927">
        <ele>662.9</ele>
        <time>2021-08-07T15:20:19Z</time>
      </trkpt>
      <trkpt lat="47.88059" lon="7.05927">
        <ele>662.9</ele>
        <time>2021-08-07T15:20:21Z</time>
      </trkpt>
      <trkpt lat="47.88059" lon="7.05927">
        <ele>662.9</ele>
        <time>2021-08-07T15:20:22Z</time>
      </trkpt>
      <trkpt lat="47.88059" lon="7.05927">
        <ele>662.9</ele>
        <time>2021-08-07T15:20:23Z</time>
      </trkpt>
      <trkpt lat="47.88059" lon="7.05927">
        <ele>662.9</ele>
        <time>2021-08-07T15:20:24Z</time>
      </trkpt>
      <trkpt lat="47.88059" lon="7.0592">
        <ele>662.9</ele>
        <time>2021-08-07T15:20:26Z</time>
      </trkpt>
      <trkpt lat="47.88059" lon="7.05909">
        <ele>662.9</ele>
        <time>2021-08-07T15:20:28Z</time>
      </trkpt>
      <trkpt lat="47.88059" lon="7.05906">
        <ele>662.9</ele>
        <time>2021-08-07T15:20:29Z</time>
      </trkpt>
      <trkpt lat="47.88059" lon="7.05906">
        <ele>662.9</ele>
        <time>2021-08-07T15:20:31Z</time>
      </trkpt>
      <trkpt lat="47.88059" lon="7.05906">
        <ele>662.9</ele>
        <time>2021-08-07T15:20:32Z</time>
      </trkpt>
      <trkpt lat="47.88059" lon="7.05906">
        <ele>662.9</ele>
        <time>2021-08-07T15:20:34Z</time>
      </trkpt>
      <trkpt lat="47.88058" lon="7.05906">
        <ele>662.9</ele>
        <time>2021-08-07T15:20:35Z</time>
      </trkpt>
      <trkpt lat="47.88058" lon="7.05906">
        <ele>662.9</ele>
        <time>2021-08-07T15:20:37Z</time>
      </trkpt>
      <trkpt lat="47.88058" lon="7.05906">
        <ele>662.9</ele>
        <time>2021-08-07T15:20:38Z</time>
      </trkpt>
      <trkpt lat="47.88058" lon="7.05906">
        <ele>662.9</ele>
        <time>2021-08-07T15:20:40Z</time>
      </trkpt>
      <trkpt lat="47.88058" lon="7.05906">
        <ele>662.9</ele>
        <time>2021-08-07T15:20:41Z</time>
      </trkpt>
      <trkpt lat="47.88057" lon="7.05906">
        <ele>662.9</ele>
        <time>2021-08-07T15:20:43Z</time>
      </trkpt>
      <trkpt lat="47.88057" lon="7.05906">
        <ele>662.9</ele>
        <time>2021-08-07T15:20:44Z</time>
      </trkpt>
      <trkpt lat="47.88057" lon="7.05906">
        <ele>662.9</ele>
        <time>2021-08-07T15:20:46Z</time>
      </trkpt>
      <trkpt lat="47.88057" lon="7.05906">
        <ele>662.9</ele>
        <time>2021-08-07T15:20:48Z</time>
      </trkpt>
      <trkpt lat="47.88057" lon="7.05906">
        <ele>662.9</ele>
        <time>2021-08-07T15:20:50Z</time>
      </trkpt>
      <trkpt lat="47.88056" lon="7.05906">
        <ele>662.9</ele>
        <time>2021-08-07T15:20:51Z</time>
      </trkpt>
      <trkpt lat="47.88056" lon="7.05906">
        <ele>662.9</ele>
        <time>2021-08-07T15:20:53Z</time>
      </trkpt>
      <trkpt lat="47.88056" lon="7.05906">
        <ele>662.9</ele>
        <time>2021-08-07T15:20:54Z</time>
      </trkpt>
      <trkpt lat="47.88056" lon="7.05906">
        <ele>662.9</ele>
        <time>2021-08-07T15:20:56Z</time>
      </trkpt>
      <trkpt lat="47.88056" lon="7.05906">
        <ele>662.9</ele>
        <time>2021-08-07T15:20:57Z</time>
      </trkpt>
      <trkpt lat="47.88056" lon="7.05906">
        <ele>662.9</ele>
        <time>2021-08-07T15:20:59Z</time>
      </trkpt>
      <trkpt lat="47.88055" lon="7.05906">
        <ele>662.9</ele>
        <time>2021-08-07T15:21:00Z</time>
      </trkpt>
      <trkpt lat="47.88055" lon="7.05906">
        <ele>662.9</ele>
        <time>2021-08-07T15:21:01Z</time>
      </trkpt>
      <trkpt lat="47.88055" lon="7.05906">
        <ele>662.9</ele>
        <time>2021-08-07T15:21:03Z</time>
      </trkpt>
      <trkpt lat="47.88055" lon="7.05907">
        <ele>662.9</ele>
        <time>2021-08-07T15:21:04Z</time>
      </trkpt>
      <trkpt lat="47.88055" lon="7.05907">
        <ele>662.9</ele>
        <time>2021-08-07T15:21:05Z</time>
      </trkpt>
      <trkpt lat="47.88054" lon="7.05907">
        <ele>662.9</ele>
        <time>2021-08-07T15:21:07Z</time>
      </trkpt>
      <trkpt lat="47.88054" lon="7.05907">
        <ele>662.9</ele>
        <time>2021-08-07T15:21:08Z</time>
      </trkpt>
      <trkpt lat="47.88054" lon="7.05907">
        <ele>662.9</ele>
        <time>2021-08-07T15:21:10Z</time>
      </trkpt>
      <trkpt lat="47.88054" lon="7.05907">
        <ele>662.9</ele>
        <time>2021-08-07T15:21:11Z</time>
      </trkpt>
      <trkpt lat="47.88054" lon="7.05907">
        <ele>662.9</ele>
        <time>2021-08-07T15:21:13Z</time>
      </trkpt>
      <trkpt lat="47.88053" lon="7.05907">
        <ele>662.9</ele>
        <time>2021-08-07T15:21:14Z</time>
      </trkpt>
      <trkpt lat="47.88053" lon="7.05907">
        <ele>662.9</ele>
        <time>2021-08-07T15:21:15Z</time>
      </trkpt>
      <trkpt lat="47.88053" lon="7.05907">
        <ele>662.9</ele>
        <time>2021-08-07T15:21:16Z</time>
      </trkpt>
      <trkpt lat="47.8805" lon="7.05908">
        <ele>662.9</ele>
        <time>2021-08-07T15:21:17Z</time>
      </trkpt>
      <trkpt lat="47.88048" lon="7.05909">
        <ele>662.9</ele>
        <time>2021-08-07T15:21:18Z</time>
      </trkpt>
      <trkpt lat="47.88047" lon="7.05909">
        <ele>662.9</ele>
        <time>2021-08-07T15:21:20Z</time>
      </trkpt>
      <trkpt lat="47.88047" lon="7.05909">
        <ele>662.9</ele>
        <time>2021-08-07T15:21:21Z</time>
      </trkpt>
      <trkpt lat="47.88047" lon="7.05909">
        <ele>662.9</ele>
        <time>2021-08-07T15:21:22Z</time>
      </trkpt>
      <trkpt lat="47.88047" lon="7.05908">
        <ele>662.9</ele>
        <time>2021-08-07T15:21:24Z</time>
      </trkpt>
      <trkpt lat="47.88047" lon="7.05908">
        <ele>662.9</ele>
        <time>2021-08-07T15:21:26Z</time>
      </trkpt>
      <trkpt lat="47.88048" lon="7.05907">
        <ele>662.9</ele>
        <time>2021-08-07T15:21:27Z</time>
      </trkpt>
      <trkpt lat="47.88048" lon="7.05907">
        <ele>662.9</ele>
        <time>2021-08-07T15:21:28Z</time>
      </trkpt>
      <trkpt lat="47.88048" lon="7.05906">
        <ele>662.9</ele>
        <time>2021-08-07T15:21:30Z</time>
      </trkpt>
      <trkpt lat="47.88049" lon="7.05906">
        <ele>662.9</ele>
        <time>2021-08-07T15:21:32Z</time>
      </trkpt>
      <trkpt lat="47.88049" lon="7.05906">
        <ele>662.9</ele>
        <time>2021-08-07T15:21:33Z</time>
      </trkpt>
      <trkpt lat="47.88049" lon="7.05905">
        <ele>662.9</ele>
        <time>2021-08-07T15:21:34Z</time>
      </trkpt>
      <trkpt lat="47.88049" lon="7.05905">
        <ele>662.9</ele>
        <time>2021-08-07T15:21:36Z</time>
      </trkpt>
      <trkpt lat="47.8805" lon="7.05904">
        <ele>662.9</ele>
        <time>2021-08-07T15:21:38Z</time>
      </trkpt>
      <trkpt lat="47.8805" lon="7.05904">
        <ele>662.9</ele>
        <time>2021-08-07T15:21:39Z</time>
      </trkpt>
      <trkpt lat="47.8805" lon="7.05903">
        <ele>662.9</ele>
        <time>2021-08-07T15:21:40Z</time>
      </trkpt>
      <trkpt lat="47.88051" lon="7.05903">
        <ele>662.9</ele>
        <time>2021-08-07T15:21:42Z</time>
      </trkpt>
      <trkpt lat="47.88051" lon="7.05902">
        <ele>662.9</ele>
        <time>2021-08-07T15:21:44Z</time>
      </trkpt>
      <trkpt lat="47.88051" lon="7.05902">
        <ele>662.9</ele>
        <time>2021-08-07T15:21:45Z</time>
      </trkpt>
      <trkpt lat="47.88052" lon="7.05898">
        <ele>662.9</ele>
        <time>2021-08-07T15:21:47Z</time>
      </trkpt>
      <trkpt lat="47.88053" lon="7.05898">
        <ele>662.9</ele>
        <time>2021-08-07T15:21:48Z</time>
      </trkpt>
      <trkpt lat="47.88053" lon="7.05898">
        <ele>662.9</ele>
        <time>2021-08-07T15:21:50Z</time>
      </trkpt>
      <trkpt lat="47.88054" lon="7.05897">
        <ele>662.9</ele>
        <time>2021-08-07T15:21:51Z</time>
      </trkpt>
      <trkpt lat="47.88054" lon="7.05897">
        <ele>662.9</ele>
        <time>2021-08-07T15:21:53Z</time>
      </trkpt>
      <trkpt lat="47.88054" lon="7.05897">
        <ele>662.9</ele>
        <time>2021-08-07T15:21:54Z</time>
      </trkpt>
      <trkpt lat="47.88054" lon="7.05897">
        <ele>662.9</ele>
        <time>2021-08-07T15:21:56Z</time>
      </trkpt>
      <trkpt lat="47.88056" lon="7.05902">
        <ele>662.9</ele>
        <time>2021-08-07T15:21:58Z</time>
      </trkpt>
      <trkpt lat="47.88057" lon="7.05903">
        <ele>662.9</ele>
        <time>2021-08-07T15:22:00Z</time>
      </trkpt>
      <trkpt lat="47.88057" lon="7.05903">
        <ele>662.9</ele>
        <time>2021-08-07T15:22:01Z</time>
      </trkpt>
      <trkpt lat="47.88058" lon="7.05903">
        <ele>662.9</ele>
        <time>2021-08-07T15:22:03Z</time>
      </trkpt>
      <trkpt lat="47.88058" lon="7.05903">
        <ele>662.9</ele>
        <time>2021-08-07T15:22:04Z</time>
      </trkpt>
      <trkpt lat="47.88058" lon="7.05903">
        <ele>662.9</ele>
        <time>2021-08-07T15:22:05Z</time>
      </trkpt>
      <trkpt lat="47.88058" lon="7.05903">
        <ele>662.9</ele>
        <time>2021-08-07T15:22:07Z</time>
      </trkpt>
      <trkpt lat="47.88058" lon="7.05903">
        <ele>662.9</ele>
        <time>2021-08-07T15:22:09Z</time>
      </trkpt>
      <trkpt lat="47.88058" lon="7.05903">
        <ele>662.9</ele>
        <time>2021-08-07T15:22:10Z</time>
      </trkpt>
      <trkpt lat="47.88058" lon="7.05903">
        <ele>662.9</ele>
        <time>2021-08-07T15:22:12Z</time>
      </trkpt>
      <trkpt lat="47.88058" lon="7.05903">
        <ele>662.9</ele>
        <time>2021-08-07T15:22:14Z</time>
      </trkpt>
      <trkpt lat="47.88058" lon="7.05903">
        <ele>662.9</ele>
        <time>2021-08-07T15:22:15Z</time>
      </trkpt>
      <trkpt lat="47.88058" lon="7.05903">
        <ele>662.9</ele>
        <time>2021-08-07T15:22:17Z</time>
      </trkpt>
      <trkpt lat="47.88058" lon="7.05903">
        <ele>662.9</ele>
        <time>2021-08-07T15:22:19Z</time>
      </trkpt>
      <trkpt lat="47.88058" lon="7.05903">
        <ele>662.9</ele>
        <time>2021-08-07T15:22:21Z</time>
      </trkpt>
      <trkpt lat="47.88058" lon="7.05903">
        <ele>662.9</ele>
        <time>2021-08-07T15:22:22Z</time>
      </trkpt>
      <trkpt lat="47.88058" lon="7.05903">
        <ele>662.9</ele>
        <time>2021-08-07T15:22:23Z</time>
      </trkpt>
      <trkpt lat="47.88058" lon="7.05903">
        <ele>662.9</ele>
        <time>2021-08-07T15:22:24Z</time>
      </trkpt>
      <trkpt lat="47.88058" lon="7.05903">
        <ele>662.9</ele>
        <time>2021-08-07T15:22:25Z</time>
      </trkpt>
      <trkpt lat="47.88058" lon="7.05903">
        <ele>662.9</ele>
        <time>2021-08-07T15:22:27Z</time>
      </trkpt>
      <trkpt lat="47.88058" lon="7.05903">
        <ele>662.9</ele>
        <time>2021-08-07T15:22:28Z</time>
      </trkpt>
      <trkpt lat="47.88057" lon="7.05903">
        <ele>662.9</ele>
        <time>2021-08-07T15:22:30Z</time>
      </trkpt>
      <trkpt lat="47.88036" lon="7.05955">
        <ele>662.5</ele>
        <time>2021-08-09T07:48:25Z</time>
      </trkpt>
      <trkpt lat="47.88036" lon="7.05955">
        <ele>662.5</ele>
        <time>2021-08-09T07:48:25Z</time>
      </trkpt>
      <trkpt lat="47.88037" lon="7.05957">
        <ele>662.5</ele>
        <time>2021-08-09T07:48:27Z</time>
      </trkpt>
      <trkpt lat="47.88041" lon="7.05962">
        <ele>662.6</ele>
        <time>2021-08-09T07:48:29Z</time>
      </trkpt>
      <trkpt lat="47.88041" lon="7.05963">
        <ele>662.6</ele>
        <time>2021-08-09T07:48:30Z</time>
      </trkpt>
      <trkpt lat="47.88042" lon="7.05964">
        <ele>662.6</ele>
        <time>2021-08-09T07:48:32Z</time>
      </trkpt>
      <trkpt lat="47.88042" lon="7.05964">
        <ele>662.6</ele>
        <time>2021-08-09T07:48:33Z</time>
      </trkpt>
      <trkpt lat="47.88042" lon="7.05964">
        <ele>662.6</ele>
        <time>2021-08-09T07:48:34Z</time>
      </trkpt>
      <trkpt lat="47.88042" lon="7.05964">
        <ele>662.6</ele>
        <time>2021-08-09T07:48:35Z</time>
      </trkpt>
      <trkpt lat="47.88042" lon="7.05964">
        <ele>662.6</ele>
        <time>2021-08-09T07:48:36Z</time>
      </trkpt>
      <trkpt lat="47.88042" lon="7.05964">
        <ele>662.6</ele>
        <time>2021-08-09T07:48:38Z</time>
      </trkpt>
      <trkpt lat="47.88042" lon="7.05964">
        <ele>662.6</ele>
        <time>2021-08-09T07:48:39Z</time>
      </trkpt>
      <trkpt lat="47.88042" lon="7.05964">
        <ele>662.6</ele>
        <time>2021-08-09T07:48:41Z</time>
      </trkpt>
      <trkpt lat="47.88042" lon="7.05964">
        <ele>662.6</ele>
        <time>2021-08-09T07:48:43Z</time>
      </trkpt>
      <trkpt lat="47.88045" lon="7.05966">
        <ele>662.6</ele>
        <time>2021-08-09T07:49:00Z</time>
      </trkpt>
      <trkpt lat="47.88049" lon="7.05965">
        <ele>662.6</ele>
        <time>2021-08-09T07:49:02Z</time>
      </trkpt>
      <trkpt lat="47.88049" lon="7.05964">
        <ele>662.6</ele>
        <time>2021-08-09T07:49:03Z</time>
      </trkpt>
      <trkpt lat="47.8805" lon="7.05961">
        <ele>662.6</ele>
        <time>2021-08-09T07:49:05Z</time>
      </trkpt>
      <trkpt lat="47.88051" lon="7.0596">
        <ele>662.6</ele>
        <time>2021-08-09T07:49:06Z</time>
      </trkpt>
      <trkpt lat="47.88051" lon="7.05959">
        <ele>662.6</ele>
        <time>2021-08-09T07:49:07Z</time>
      </trkpt>
      <trkpt lat="47.88052" lon="7.05956">
        <ele>662.6</ele>
        <time>2021-08-09T07:49:09Z</time>
      </trkpt>
      <trkpt lat="47.88052" lon="7.05954">
        <ele>662.6</ele>
        <time>2021-08-09T07:49:10Z</time>
      </trkpt>
      <trkpt lat="47.88052" lon="7.05953">
        <ele>662.6</ele>
        <time>2021-08-09T07:49:11Z</time>
      </trkpt>
      <trkpt lat="47.88052" lon="7.05952">
        <ele>662.6</ele>
        <time>2021-08-09T07:49:12Z</time>
      </trkpt>
      <trkpt lat="47.88052" lon="7.05951">
        <ele>662.6</ele>
        <time>2021-08-09T07:49:14Z</time>
      </trkpt>
      <trkpt lat="47.88051" lon="7.05949">
        <ele>662.6</ele>
        <time>2021-08-09T07:49:16Z</time>
      </trkpt>
      <trkpt lat="47.88051" lon="7.05949">
        <ele>662.6</ele>
        <time>2021-08-09T07:49:17Z</time>
      </trkpt>
      <trkpt lat="47.8805" lon="7.0595">
        <ele>662.6</ele>
        <time>2021-08-09T07:49:18Z</time>
      </trkpt>
      <trkpt lat="47.88051" lon="7.0595">
        <ele>662.6</ele>
        <time>2021-08-09T07:49:20Z</time>
      </trkpt>
      <trkpt lat="47.8805" lon="7.0595">
        <ele>662.6</ele>
        <time>2021-08-09T07:49:21Z</time>
      </trkpt>
      <trkpt lat="47.88049" lon="7.05951">
        <ele>662.6</ele>
        <time>2021-08-09T07:49:23Z</time>
      </trkpt>
      <trkpt lat="47.88049" lon="7.05952">
        <ele>662.6</ele>
        <time>2021-08-09T07:49:24Z</time>
      </trkpt>
      <trkpt lat="47.88047" lon="7.05954">
        <ele>662.6</ele>
        <time>2021-08-09T07:49:26Z</time>
      </trkpt>
      <trkpt lat="47.88046" lon="7.05953">
        <ele>662.6</ele>
        <time>2021-08-09T07:49:27Z</time>
      </trkpt>
      <trkpt lat="47.88045" lon="7.05952">
        <ele>662.6</ele>
        <time>2021-08-09T07:49:29Z</time>
      </trkpt>
      <trkpt lat="47.88044" lon="7.05952">
        <ele>662.6</ele>
        <time>2021-08-09T07:49:30Z</time>
      </trkpt>
      <trkpt lat="47.88044" lon="7.05952">
        <ele>662.6</ele>
        <time>2021-08-09T07:49:31Z</time>
      </trkpt>
      <trkpt lat="47.88042" lon="7.05954">
        <ele>662.6</ele>
        <time>2021-08-09T07:49:33Z</time>
      </trkpt>
      <trkpt lat="47.88042" lon="7.05955">
        <ele>662.6</ele>
        <time>2021-08-09T07:49:34Z</time>
      </trkpt>
      <trkpt lat="47.88041" lon="7.05955">
        <ele>662.6</ele>
        <time>2021-08-09T07:49:35Z</time>
      </trkpt>
      <trkpt lat="47.8804" lon="7.05957">
        <ele>662.6</ele>
        <time>2021-08-09T07:49:36Z</time>
      </trkpt>
      <trkpt lat="47.8804" lon="7.05957">
        <ele>662.6</ele>
        <time>2021-08-09T07:49:37Z</time>
      </trkpt>
      <trkpt lat="47.8804" lon="7.05956">
        <ele>662.6</ele>
        <time>2021-08-09T07:49:38Z</time>
      </trkpt>
      <trkpt lat="47.88038" lon="7.05959">
        <ele>662.6</ele>
        <time>2021-08-09T07:49:40Z</time>
      </trkpt>
      <trkpt lat="47.8804" lon="7.05959">
        <ele>662.6</ele>
        <time>2021-08-09T07:49:41Z</time>
      </trkpt>
      <trkpt lat="47.8804" lon="7.05961">
        <ele>662.6</ele>
        <time>2021-08-09T07:49:42Z</time>
      </trkpt>
      <trkpt lat="47.88038" lon="7.05963">
        <ele>662.6</ele>
        <time>2021-08-09T07:49:44Z</time>
      </trkpt>
      <trkpt lat="47.88039" lon="7.05964">
        <ele>662.6</ele>
        <time>2021-08-09T07:49:46Z</time>
      </trkpt>
      <trkpt lat="47.8804" lon="7.05961">
        <ele>662.6</ele>
        <time>2021-08-09T07:49:48Z</time>
      </trkpt>
      <trkpt lat="47.8804" lon="7.05961">
        <ele>662.6</ele>
        <time>2021-08-09T07:49:49Z</time>
      </trkpt>
      <trkpt lat="47.8804" lon="7.05961">
        <ele>662.6</ele>
        <time>2021-08-09T07:49:50Z</time>
      </trkpt>
      <trkpt lat="47.88041" lon="7.05961">
        <ele>662.6</ele>
        <time>2021-08-09T07:49:52Z</time>
      </trkpt>
      <trkpt lat="47.88041" lon="7.05961">
        <ele>662.6</ele>
        <time>2021-08-09T07:49:53Z</time>
      </trkpt>
      <trkpt lat="47.88041" lon="7.05961">
        <ele>662.6</ele>
        <time>2021-08-09T07:49:54Z</time>
      </trkpt>
      <trkpt lat="47.88042" lon="7.05962">
        <ele>662.6</ele>
        <time>2021-08-09T07:49:56Z</time>
      </trkpt>
      <trkpt lat="47.88047" lon="7.05957">
        <ele>662.6</ele>
        <time>2021-08-09T07:50:10Z</time>
      </trkpt>
      <trkpt lat="47.88047" lon="7.05956">
        <ele>662.6</ele>
        <time>2021-08-09T07:50:11Z</time>
      </trkpt>
      <trkpt lat="47.88047" lon="7.05956">
        <ele>662.6</ele>
        <time>2021-08-09T07:50:12Z</time>
      </trkpt>
      <trkpt lat="47.88046" lon="7.05955">
        <ele>662.6</ele>
        <time>2021-08-09T07:50:14Z</time>
      </trkpt>
      <trkpt lat="47.88048" lon="7.05955">
        <ele>662.6</ele>
        <time>2021-08-09T07:50:16Z</time>
      </trkpt>
      <trkpt lat="47.8805" lon="7.05955">
        <ele>662.6</ele>
        <time>2021-08-09T07:50:17Z</time>
      </trkpt>
      <trkpt lat="47.88051" lon="7.05955">
        <ele>662.6</ele>
        <time>2021-08-09T07:50:18Z</time>
      </trkpt>
      <trkpt lat="47.88051" lon="7.05956">
        <ele>662.6</ele>
        <time>2021-08-09T07:50:20Z</time>
      </trkpt>
      <trkpt lat="47.88049" lon="7.05957">
        <ele>662.6</ele>
        <time>2021-08-09T07:50:21Z</time>
      </trkpt>
      <trkpt lat="47.88049" lon="7.05957">
        <ele>662.6</ele>
        <time>2021-08-09T07:50:23Z</time>
      </trkpt>
      <trkpt lat="47.88048" lon="7.05956">
        <ele>662.6</ele>
        <time>2021-08-09T07:50:24Z</time>
      </trkpt>
      <trkpt lat="47.88042" lon="7.0595">
        <ele>662.6</ele>
        <time>2021-08-09T07:50:26Z</time>
      </trkpt>
      <trkpt lat="47.88039" lon="7.05946">
        <ele>662.6</ele>
        <time>2021-08-09T07:50:28Z</time>
      </trkpt>
      <trkpt lat="47.88035" lon="7.05941">
        <ele>662.7</ele>
        <time>2021-08-09T07:50:30Z</time>
      </trkpt>
      <trkpt lat="47.88034" lon="7.0594">
        <ele>662.7</ele>
        <time>2021-08-09T07:50:31Z</time>
      </trkpt>
      <trkpt lat="47.88031" lon="7.0594">
        <ele>662.7</ele>
        <time>2021-08-09T07:50:33Z</time>
      </trkpt>
      <trkpt lat="47.88031" lon="7.05939">
        <ele>662.7</ele>
        <time>2021-08-09T07:50:35Z</time>
      </trkpt>
      <trkpt lat="47.8803" lon="7.05938">
        <ele>662.7</ele>
        <time>2021-08-09T07:50:36Z</time>
      </trkpt>
      <trkpt lat="47.88029" lon="7.05939">
        <ele>662.7</ele>
        <time>2021-08-09T07:50:37Z</time>
      </trkpt>
      <trkpt lat="47.88028" lon="7.05939">
        <ele>662.7</ele>
        <time>2021-08-09T07:50:38Z</time>
      </trkpt>
      <trkpt lat="47.88026" lon="7.05937">
        <ele>662.7</ele>
        <time>2021-08-09T07:50:40Z</time>
      </trkpt>
      <trkpt lat="47.88024" lon="7.05935">
        <ele>662.7</ele>
        <time>2021-08-09T07:50:42Z</time>
      </trkpt>
      <trkpt lat="47.88023" lon="7.05936">
        <ele>662.7</ele>
        <time>2021-08-09T07:50:43Z</time>
      </trkpt>
      <trkpt lat="47.88024" lon="7.0594">
        <ele>662.7</ele>
        <time>2021-08-09T07:50:44Z</time>
      </trkpt>
      <trkpt lat="47.88027" lon="7.05947">
        <ele>662.7</ele>
        <time>2021-08-09T07:50:46Z</time>
      </trkpt>
      <trkpt lat="47.88034" lon="7.05939">
        <ele>662.7</ele>
        <time>2021-08-09T07:50:47Z</time>
      </trkpt>
      <trkpt lat="47.88036" lon="7.05937">
        <ele>662.7</ele>
        <time>2021-08-09T07:50:49Z</time>
      </trkpt>
      <trkpt lat="47.88036" lon="7.05937">
        <ele>662.7</ele>
        <time>2021-08-09T07:50:50Z</time>
      </trkpt>
      <trkpt lat="47.88036" lon="7.05938">
        <ele>662.7</ele>
        <time>2021-08-09T07:50:52Z</time>
      </trkpt>
      <trkpt lat="47.88036" lon="7.05938">
        <ele>662.7</ele>
        <time>2021-08-09T07:50:53Z</time>
      </trkpt>
      <trkpt lat="47.88035" lon="7.05938">
        <ele>662.7</ele>
        <time>2021-08-09T07:50:55Z</time>
      </trkpt>
      <trkpt lat="47.88035" lon="7.05938">
        <ele>662.7</ele>
        <time>2021-08-09T07:50:56Z</time>
      </trkpt>
      <trkpt lat="47.88024" lon="7.05955">
        <ele>662.7</ele>
        <time>2021-08-09T07:51:07Z</time>
      </trkpt>
      <trkpt lat="47.88024" lon="7.05958">
        <ele>662.7</ele>
        <time>2021-08-09T07:51:08Z</time>
      </trkpt>
      <trkpt lat="47.88025" lon="7.05959">
        <ele>662.7</ele>
        <time>2021-08-09T07:51:10Z</time>
      </trkpt>
      <trkpt lat="47.88025" lon="7.05959">
        <ele>662.7</ele>
        <time>2021-08-09T07:51:11Z</time>
      </trkpt>
      <trkpt lat="47.88025" lon="7.05958">
        <ele>662.7</ele>
        <time>2021-08-09T07:51:13Z</time>
      </trkpt>
      <trkpt lat="47.88025" lon="7.05958">
        <ele>662.7</ele>
        <time>2021-08-09T07:51:14Z</time>
      </trkpt>
      <trkpt lat="47.88026" lon="7.05956">
        <ele>662.7</ele>
        <time>2021-08-09T07:51:16Z</time>
      </trkpt>
      <trkpt lat="47.88027" lon="7.05955">
        <ele>662.7</ele>
        <time>2021-08-09T07:51:17Z</time>
      </trkpt>
      <trkpt lat="47.88027" lon="7.05955">
        <ele>662.7</ele>
        <time>2021-08-09T07:51:19Z</time>
      </trkpt>
      <trkpt lat="47.88027" lon="7.05956">
        <ele>662.7</ele>
        <time>2021-08-09T07:51:20Z</time>
      </trkpt>
      <trkpt lat="47.88027" lon="7.05956">
        <ele>662.7</ele>
        <time>2021-08-09T07:51:22Z</time>
      </trkpt>
      <trkpt lat="47.88027" lon="7.05956">
        <ele>662.7</ele>
        <time>2021-08-09T07:51:23Z</time>
      </trkpt>
      <trkpt lat="47.88027" lon="7.05956">
        <ele>662.7</ele>
        <time>2021-08-09T07:51:25Z</time>
      </trkpt>
      <trkpt lat="47.88027" lon="7.05956">
        <ele>662.7</ele>
        <time>2021-08-09T07:51:26Z</time>
      </trkpt>
      <trkpt lat="47.88027" lon="7.05956">
        <ele>662.7</ele>
        <time>2021-08-09T07:51:27Z</time>
      </trkpt>
      <trkpt lat="47.88033" lon="7.05955">
        <ele>662.7</ele>
        <time>2021-08-09T07:52:22Z</time>
      </trkpt>
      <trkpt lat="47.88033" lon="7.05955">
        <ele>662.7</ele>
        <time>2021-08-09T07:52:23Z</time>
      </trkpt>
      <trkpt lat="47.88033" lon="7.05955">
        <ele>662.7</ele>
        <time>2021-08-09T07:52:24Z</time>
      </trkpt>
      <trkpt lat="47.88033" lon="7.05956">
        <ele>662.7</ele>
        <time>2021-08-09T07:52:26Z</time>
      </trkpt>
      <trkpt lat="47.88033" lon="7.05956">
        <ele>662.7</ele>
        <time>2021-08-09T07:52:28Z</time>
      </trkpt>
      <trkpt lat="47.88033" lon="7.05956">
        <ele>662.7</ele>
        <time>2021-08-09T07:52:29Z</time>
      </trkpt>
      <trkpt lat="47.88033" lon="7.05956">
        <ele>662.7</ele>
        <time>2021-08-09T07:52:30Z</time>
      </trkpt>
      <trkpt lat="47.88033" lon="7.05956">
        <ele>662.7</ele>
        <time>2021-08-09T07:52:31Z</time>
      </trkpt>
      <trkpt lat="47.88033" lon="7.05956">
        <ele>662.7</ele>
        <time>2021-08-09T07:52:33Z</time>
      </trkpt>
      <trkpt lat="47.88061" lon="7.05936">
        <ele>662.8</ele>
        <time>2021-08-09T07:57:28Z</time>
      </trkpt>
      <trkpt lat="47.88066" lon="7.05934">
        <ele>662.8</ele>
        <time>2021-08-09T07:57:30Z</time>
      </trkpt>
      <trkpt lat="47.88069" lon="7.05933">
        <ele>662.8</ele>
        <time>2021-08-09T07:57:31Z</time>
      </trkpt>
      <trkpt lat="47.8807" lon="7.05933">
        <ele>662.8</ele>
        <time>2021-08-09T07:57:32Z</time>
      </trkpt>
      <trkpt lat="47.88073" lon="7.0593">
        <ele>662.8</ele>
        <time>2021-08-09T07:57:34Z</time>
      </trkpt>
      <trkpt lat="47.88073" lon="7.05929">
        <ele>662.8</ele>
        <time>2021-08-09T07:57:35Z</time>
      </trkpt>
      <trkpt lat="47.88072" lon="7.05927">
        <ele>662.8</ele>
        <time>2021-08-09T07:57:36Z</time>
      </trkpt>
      <trkpt lat="47.88071" lon="7.05922">
        <ele>662.8</ele>
        <time>2021-08-09T07:57:38Z</time>
      </trkpt>
      <trkpt lat="47.8807" lon="7.05918">
        <ele>662.8</ele>
        <time>2021-08-09T07:57:40Z</time>
      </trkpt>
      <trkpt lat="47.88068" lon="7.05913">
        <ele>662.9</ele>
        <time>2021-08-09T07:57:42Z</time>
      </trkpt>
      <trkpt lat="47.88068" lon="7.05909">
        <ele>662.9</ele>
        <time>2021-08-09T07:57:43Z</time>
      </trkpt>
      <trkpt lat="47.88068" lon="7.05908">
        <ele>662.9</ele>
        <time>2021-08-09T07:57:44Z</time>
      </trkpt>
      <trkpt lat="47.88069" lon="7.05904">
        <ele>663</ele>
        <time>2021-08-09T07:57:46Z</time>
      </trkpt>
      <trkpt lat="47.8807" lon="7.05902">
        <ele>663</ele>
        <time>2021-08-09T07:57:47Z</time>
      </trkpt>
      <trkpt lat="47.88073" lon="7.059">
        <ele>663</ele>
        <time>2021-08-09T07:57:49Z</time>
      </trkpt>
      <trkpt lat="47.88074" lon="7.059">
        <ele>663.1</ele>
        <time>2021-08-09T07:57:50Z</time>
      </trkpt>
      <trkpt lat="47.88075" lon="7.05899">
        <ele>663.1</ele>
        <time>2021-08-09T07:57:51Z</time>
      </trkpt>
      <trkpt lat="47.88076" lon="7.05899">
        <ele>663.1</ele>
        <time>2021-08-09T07:57:53Z</time>
      </trkpt>
      <trkpt lat="47.88077" lon="7.059">
        <ele>663.1</ele>
        <time>2021-08-09T07:57:54Z</time>
      </trkpt>
      <trkpt lat="47.88078" lon="7.05902">
        <ele>663.1</ele>
        <time>2021-08-09T07:57:56Z</time>
      </trkpt>
      <trkpt lat="47.88079" lon="7.05904">
        <ele>663.2</ele>
        <time>2021-08-09T07:57:57Z</time>
      </trkpt>
      <trkpt lat="47.8808" lon="7.05905">
        <ele>663.2</ele>
        <time>2021-08-09T07:57:58Z</time>
      </trkpt>
      <trkpt lat="47.88081" lon="7.05907">
        <ele>663.2</ele>
        <time>2021-08-09T07:57:59Z</time>
      </trkpt>
      <trkpt lat="47.88082" lon="7.05909">
        <ele>664.8</ele>
        <time>2021-08-09T07:58:01Z</time>
      </trkpt>
      <trkpt lat="47.88083" lon="7.05911">
        <ele>665</ele>
        <time>2021-08-09T07:58:02Z</time>
      </trkpt>
      <trkpt lat="47.88084" lon="7.05913">
        <ele>665.2</ele>
        <time>2021-08-09T07:58:03Z</time>
      </trkpt>
      <trkpt lat="47.88085" lon="7.05916">
        <ele>665.4</ele>
        <time>2021-08-09T07:58:04Z</time>
      </trkpt>
      <trkpt lat="47.88087" lon="7.05917">
        <ele>665.6</ele>
        <time>2021-08-09T07:58:06Z</time>
      </trkpt>
      <trkpt lat="47.88089" lon="7.0592">
        <ele>665.9</ele>
        <time>2021-08-09T07:58:07Z</time>
      </trkpt>
      <trkpt lat="47.88089" lon="7.05922">
        <ele>666</ele>
        <time>2021-08-09T07:58:08Z</time>
      </trkpt>
      <trkpt lat="47.88091" lon="7.05925">
        <ele>666.3</ele>
        <time>2021-08-09T07:58:09Z</time>
      </trkpt>
      <trkpt lat="47.88091" lon="7.05927">
        <ele>666.4</ele>
        <time>2021-08-09T07:58:10Z</time>
      </trkpt>
      <trkpt lat="47.88092" lon="7.05929">
        <ele>666.7</ele>
        <time>2021-08-09T07:58:11Z</time>
      </trkpt>
      <trkpt lat="47.88093" lon="7.05931">
        <ele>666.9</ele>
        <time>2021-08-09T07:58:12Z</time>
      </trkpt>
      <trkpt lat="47.88095" lon="7.05936">
        <ele>667</ele>
        <time>2021-08-09T07:58:14Z</time>
      </trkpt>
      <trkpt lat="47.88095" lon="7.05937">
        <ele>667</ele>
        <time>2021-08-09T07:58:15Z</time>
      </trkpt>
      <trkpt lat="47.88096" lon="7.05939">
        <ele>667</ele>
        <time>2021-08-09T07:58:16Z</time>
      </trkpt>
      <trkpt lat="47.88096" lon="7.05944">
        <ele>667</ele>
        <time>2021-08-09T07:58:18Z</time>
      </trkpt>
      <trkpt lat="47.88096" lon="7.05948">
        <ele>667</ele>
        <time>2021-08-09T07:58:19Z</time>
      </trkpt>
      <trkpt lat="47.88096" lon="7.05953">
        <ele>667</ele>
        <time>2021-08-09T07:58:21Z</time>
      </trkpt>
      <trkpt lat="47.88097" lon="7.05957">
        <ele>666.9</ele>
        <time>2021-08-09T07:58:22Z</time>
      </trkpt>
      <trkpt lat="47.88098" lon="7.05964">
        <ele>666.9</ele>
        <time>2021-08-09T07:58:24Z</time>
      </trkpt>
      <trkpt lat="47.881" lon="7.0597">
        <ele>666.9</ele>
        <time>2021-08-09T07:58:25Z</time>
      </trkpt>
      <trkpt lat="47.88102" lon="7.05979">
        <ele>666.9</ele>
        <time>2021-08-09T07:58:26Z</time>
      </trkpt>
      <trkpt lat="47.88106" lon="7.05987">
        <ele>667</ele>
        <time>2021-08-09T07:58:28Z</time>
      </trkpt>
      <trkpt lat="47.8811" lon="7.05998">
        <ele>667.2</ele>
        <time>2021-08-09T07:58:30Z</time>
      </trkpt>
      <trkpt lat="47.88114" lon="7.06006">
        <ele>667.4</ele>
        <time>2021-08-09T07:58:32Z</time>
      </trkpt>
      <trkpt lat="47.88116" lon="7.06011">
        <ele>667.5</ele>
        <time>2021-08-09T07:58:33Z</time>
      </trkpt>
      <trkpt lat="47.88119" lon="7.06016">
        <ele>667.7</ele>
        <time>2021-08-09T07:58:34Z</time>
      </trkpt>
      <trkpt lat="47.88122" lon="7.06023">
        <ele>667.9</ele>
        <time>2021-08-09T07:58:36Z</time>
      </trkpt>
      <trkpt lat="47.88126" lon="7.06028">
        <ele>668.1</ele>
        <time>2021-08-09T07:58:37Z</time>
      </trkpt>
      <trkpt lat="47.88131" lon="7.06034">
        <ele>668.5</ele>
        <time>2021-08-09T07:58:39Z</time>
      </trkpt>
      <trkpt lat="47.88135" lon="7.06037">
        <ele>668.8</ele>
        <time>2021-08-09T07:58:40Z</time>
      </trkpt>
      <trkpt lat="47.8814" lon="7.06042">
        <ele>669.2</ele>
        <time>2021-08-09T07:58:42Z</time>
      </trkpt>
      <trkpt lat="47.88143" lon="7.06046">
        <ele>669.5</ele>
        <time>2021-08-09T07:58:43Z</time>
      </trkpt>
      <trkpt lat="47.88146" lon="7.0605">
        <ele>669.7</ele>
        <time>2021-08-09T07:58:44Z</time>
      </trkpt>
      <trkpt lat="47.88149" lon="7.06054">
        <ele>670</ele>
        <time>2021-08-09T07:58:45Z</time>
      </trkpt>
      <trkpt lat="47.88152" lon="7.06057">
        <ele>670.3</ele>
        <time>2021-08-09T07:58:46Z</time>
      </trkpt>
      <trkpt lat="47.88154" lon="7.06061">
        <ele>670.5</ele>
        <time>2021-08-09T07:58:47Z</time>
      </trkpt>
      <trkpt lat="47.88157" lon="7.06066">
        <ele>670.8</ele>
        <time>2021-08-09T07:58:48Z</time>
      </trkpt>
      <trkpt lat="47.8816" lon="7.0607">
        <ele>671</ele>
        <time>2021-08-09T07:58:50Z</time>
      </trkpt>
      <trkpt lat="47.88162" lon="7.06075">
        <ele>671.2</ele>
        <time>2021-08-09T07:58:51Z</time>
      </trkpt>
      <trkpt lat="47.88164" lon="7.06079">
        <ele>671.3</ele>
        <time>2021-08-09T07:58:52Z</time>
      </trkpt>
      <trkpt lat="47.88167" lon="7.06083">
        <ele>671.4</ele>
        <time>2021-08-09T07:58:53Z</time>
      </trkpt>
      <trkpt lat="47.88169" lon="7.06084">
        <ele>671.5</ele>
        <time>2021-08-09T07:58:54Z</time>
      </trkpt>
      <trkpt lat="47.88173" lon="7.06087">
        <ele>671.7</ele>
        <time>2021-08-09T07:58:56Z</time>
      </trkpt>
      <trkpt lat="47.88177" lon="7.06089">
        <ele>671.8</ele>
        <time>2021-08-09T07:58:57Z</time>
      </trkpt>
      <trkpt lat="47.88181" lon="7.06089">
        <ele>672.1</ele>
        <time>2021-08-09T07:58:58Z</time>
      </trkpt>
      <trkpt lat="47.88187" lon="7.0609">
        <ele>672.4</ele>
        <time>2021-08-09T07:59:00Z</time>
      </trkpt>
      <trkpt lat="47.88191" lon="7.06092">
        <ele>672.5</ele>
        <time>2021-08-09T07:59:01Z</time>
      </trkpt>
      <trkpt lat="47.88195" lon="7.06094">
        <ele>672.5</ele>
        <time>2021-08-09T07:59:02Z</time>
      </trkpt>
      <trkpt lat="47.88201" lon="7.06099">
        <ele>672.4</ele>
        <time>2021-08-09T07:59:04Z</time>
      </trkpt>
      <trkpt lat="47.88206" lon="7.06106">
        <ele>672.4</ele>
        <time>2021-08-09T07:59:06Z</time>
      </trkpt>
      <trkpt lat="47.8821" lon="7.06115">
        <ele>672.3</ele>
        <time>2021-08-09T07:59:08Z</time>
      </trkpt>
      <trkpt lat="47.88211" lon="7.06122">
        <ele>672.3</ele>
        <time>2021-08-09T07:59:09Z</time>
      </trkpt>
      <trkpt lat="47.88213" lon="7.0613">
        <ele>672.2</ele>
        <time>2021-08-09T07:59:10Z</time>
      </trkpt>
      <trkpt lat="47.88215" lon="7.06136">
        <ele>672.2</ele>
        <time>2021-08-09T07:59:12Z</time>
      </trkpt>
      <trkpt lat="47.88216" lon="7.06144">
        <ele>672.1</ele>
        <time>2021-08-09T07:59:13Z</time>
      </trkpt>
      <trkpt lat="47.88218" lon="7.06155">
        <ele>672</ele>
        <time>2021-08-09T07:59:15Z</time>
      </trkpt>
      <trkpt lat="47.88218" lon="7.06164">
        <ele>672</ele>
        <time>2021-08-09T07:59:17Z</time>
      </trkpt>
      <trkpt lat="47.88218" lon="7.06171">
        <ele>672</ele>
        <time>2021-08-09T07:59:18Z</time>
      </trkpt>
      <trkpt lat="47.88217" lon="7.06176">
        <ele>672</ele>
        <time>2021-08-09T07:59:19Z</time>
      </trkpt>
      <trkpt lat="47.88217" lon="7.06181">
        <ele>671.9</ele>
        <time>2021-08-09T07:59:20Z</time>
      </trkpt>
      <trkpt lat="47.88216" lon="7.06188">
        <ele>671.9</ele>
        <time>2021-08-09T07:59:21Z</time>
      </trkpt>
      <trkpt lat="47.88215" lon="7.06193">
        <ele>671.9</ele>
        <time>2021-08-09T07:59:22Z</time>
      </trkpt>
      <trkpt lat="47.88214" lon="7.062">
        <ele>671.9</ele>
        <time>2021-08-09T07:59:24Z</time>
      </trkpt>
      <trkpt lat="47.88214" lon="7.06204">
        <ele>671.8</ele>
        <time>2021-08-09T07:59:25Z</time>
      </trkpt>
      <trkpt lat="47.88213" lon="7.06209">
        <ele>671.8</ele>
        <time>2021-08-09T07:59:26Z</time>
      </trkpt>
      <trkpt lat="47.88212" lon="7.06215">
        <ele>671.8</ele>
        <time>2021-08-09T07:59:28Z</time>
      </trkpt>
      <trkpt lat="47.8821" lon="7.0622">
        <ele>671.7</ele>
        <time>2021-08-09T07:59:29Z</time>
      </trkpt>
      <trkpt lat="47.8821" lon="7.06222">
        <ele>671.7</ele>
        <time>2021-08-09T07:59:30Z</time>
      </trkpt>
      <trkpt lat="47.8821" lon="7.06229">
        <ele>671.7</ele>
        <time>2021-08-09T07:59:32Z</time>
      </trkpt>
      <trkpt lat="47.8821" lon="7.06232">
        <ele>671.6</ele>
        <time>2021-08-09T07:59:33Z</time>
      </trkpt>
      <trkpt lat="47.88209" lon="7.06239">
        <ele>671.6</ele>
        <time>2021-08-09T07:59:35Z</time>
      </trkpt>
      <trkpt lat="47.88208" lon="7.06242">
        <ele>671.5</ele>
        <time>2021-08-09T07:59:36Z</time>
      </trkpt>
      <trkpt lat="47.88208" lon="7.06249">
        <ele>671.5</ele>
        <time>2021-08-09T07:59:38Z</time>
      </trkpt>
      <trkpt lat="47.88208" lon="7.06259">
        <ele>671.4</ele>
        <time>2021-08-09T07:59:40Z</time>
      </trkpt>
      <trkpt lat="47.88206" lon="7.06268">
        <ele>671.3</ele>
        <time>2021-08-09T07:59:41Z</time>
      </trkpt>
      <trkpt lat="47.88203" lon="7.06276">
        <ele>671.3</ele>
        <time>2021-08-09T07:59:43Z</time>
      </trkpt>
      <trkpt lat="47.882" lon="7.06286">
        <ele>671.4</ele>
        <time>2021-08-09T07:59:45Z</time>
      </trkpt>
      <trkpt lat="47.88199" lon="7.06297">
        <ele>671.4</ele>
        <time>2021-08-09T07:59:46Z</time>
      </trkpt>
      <trkpt lat="47.88199" lon="7.06306">
        <ele>671.6</ele>
        <time>2021-08-09T07:59:47Z</time>
      </trkpt>
      <trkpt lat="47.88197" lon="7.06319">
        <ele>671.8</ele>
        <time>2021-08-09T07:59:49Z</time>
      </trkpt>
      <trkpt lat="47.88193" lon="7.06326">
        <ele>672.1</ele>
        <time>2021-08-09T07:59:50Z</time>
      </trkpt>
      <trkpt lat="47.88192" lon="7.06333">
        <ele>672.2</ele>
        <time>2021-08-09T07:59:52Z</time>
      </trkpt>
      <trkpt lat="47.88188" lon="7.06338">
        <ele>672.5</ele>
        <time>2021-08-09T07:59:54Z</time>
      </trkpt>
      <trkpt lat="47.88186" lon="7.06342">
        <ele>672.6</ele>
        <time>2021-08-09T07:59:55Z</time>
      </trkpt>
      <trkpt lat="47.88182" lon="7.06347">
        <ele>672.8</ele>
        <time>2021-08-09T07:59:57Z</time>
      </trkpt>
      <trkpt lat="47.8818" lon="7.06351">
        <ele>673</ele>
        <time>2021-08-09T07:59:59Z</time>
      </trkpt>
      <trkpt lat="47.88177" lon="7.06355">
        <ele>673.1</ele>
        <time>2021-08-09T08:00:00Z</time>
      </trkpt>
      <trkpt lat="47.88176" lon="7.0636">
        <ele>673.3</ele>
        <time>2021-08-09T08:00:01Z</time>
      </trkpt>
      <trkpt lat="47.88174" lon="7.06364">
        <ele>673.6</ele>
        <time>2021-08-09T08:00:02Z</time>
      </trkpt>
      <trkpt lat="47.88173" lon="7.06374">
        <ele>674</ele>
        <time>2021-08-09T08:00:04Z</time>
      </trkpt>
      <trkpt lat="47.88171" lon="7.06382">
        <ele>674.3</ele>
        <time>2021-08-09T08:00:06Z</time>
      </trkpt>
      <trkpt lat="47.88169" lon="7.06387">
        <ele>674.6</ele>
        <time>2021-08-09T08:00:07Z</time>
      </trkpt>
      <trkpt lat="47.8817" lon="7.06388">
        <ele>674.6</ele>
        <time>2021-08-09T08:00:08Z</time>
      </trkpt>
      <trkpt lat="47.88174" lon="7.06384">
        <ele>674.9</ele>
        <time>2021-08-09T08:00:10Z</time>
      </trkpt>
      <trkpt lat="47.88175" lon="7.06383">
        <ele>675</ele>
        <time>2021-08-09T08:00:11Z</time>
      </trkpt>
      <trkpt lat="47.88176" lon="7.06385">
        <ele>675.1</ele>
        <time>2021-08-09T08:00:13Z</time>
      </trkpt>
      <trkpt lat="47.88177" lon="7.06387">
        <ele>675.2</ele>
        <time>2021-08-09T08:00:15Z</time>
      </trkpt>
      <trkpt lat="47.88177" lon="7.06388">
        <ele>675.3</ele>
        <time>2021-08-09T08:00:16Z</time>
      </trkpt>
      <trkpt lat="47.88178" lon="7.06391">
        <ele>675.4</ele>
        <time>2021-08-09T08:00:18Z</time>
      </trkpt>
      <trkpt lat="47.88178" lon="7.06397">
        <ele>675.7</ele>
        <time>2021-08-09T08:00:22Z</time>
      </trkpt>
      <trkpt lat="47.88177" lon="7.06402">
        <ele>676</ele>
        <time>2021-08-09T08:00:23Z</time>
      </trkpt>
      <trkpt lat="47.88177" lon="7.06406">
        <ele>676.2</ele>
        <time>2021-08-09T08:00:24Z</time>
      </trkpt>
      <trkpt lat="47.88176" lon="7.06411">
        <ele>676.4</ele>
        <time>2021-08-09T08:00:26Z</time>
      </trkpt>
      <trkpt lat="47.88174" lon="7.06415">
        <ele>676.7</ele>
        <time>2021-08-09T08:00:27Z</time>
      </trkpt>
      <trkpt lat="47.88172" lon="7.06418">
        <ele>676.9</ele>
        <time>2021-08-09T08:00:29Z</time>
      </trkpt>
      <trkpt lat="47.88172" lon="7.06421">
        <ele>677</ele>
        <time>2021-08-09T08:00:30Z</time>
      </trkpt>
      <trkpt lat="47.88171" lon="7.06422">
        <ele>677.1</ele>
        <time>2021-08-09T08:00:31Z</time>
      </trkpt>
      <trkpt lat="47.88172" lon="7.06428">
        <ele>677.3</ele>
        <time>2021-08-09T08:00:33Z</time>
      </trkpt>
      <trkpt lat="47.88172" lon="7.06429">
        <ele>677.4</ele>
        <time>2021-08-09T08:00:34Z</time>
      </trkpt>
      <trkpt lat="47.88171" lon="7.06431">
        <ele>677.5</ele>
        <time>2021-08-09T08:00:35Z</time>
      </trkpt>
      <trkpt lat="47.88169" lon="7.06433">
        <ele>677.6</ele>
        <time>2021-08-09T08:00:37Z</time>
      </trkpt>
      <trkpt lat="47.88168" lon="7.06433">
        <ele>677.7</ele>
        <time>2021-08-09T08:00:38Z</time>
      </trkpt>
      <trkpt lat="47.88166" lon="7.06433">
        <ele>677.8</ele>
        <time>2021-08-09T08:00:40Z</time>
      </trkpt>
      <trkpt lat="47.88165" lon="7.06433">
        <ele>677.9</ele>
        <time>2021-08-09T08:00:41Z</time>
      </trkpt>
      <trkpt lat="47.8816" lon="7.06439">
        <ele>678.1</ele>
        <time>2021-08-09T08:00:48Z</time>
      </trkpt>
      <trkpt lat="47.8816" lon="7.06443">
        <ele>678.2</ele>
        <time>2021-08-09T08:00:49Z</time>
      </trkpt>
      <trkpt lat="47.8816" lon="7.06446">
        <ele>678.2</ele>
        <time>2021-08-09T08:00:51Z</time>
      </trkpt>
      <trkpt lat="47.8816" lon="7.0645">
        <ele>678.3</ele>
        <time>2021-08-09T08:00:52Z</time>
      </trkpt>
      <trkpt lat="47.8816" lon="7.06455">
        <ele>678.4</ele>
        <time>2021-08-09T08:00:54Z</time>
      </trkpt>
      <trkpt lat="47.88161" lon="7.06463">
        <ele>678.4</ele>
        <time>2021-08-09T08:00:56Z</time>
      </trkpt>
      <trkpt lat="47.88161" lon="7.06465">
        <ele>678.5</ele>
        <time>2021-08-09T08:00:57Z</time>
      </trkpt>
      <trkpt lat="47.88161" lon="7.06467">
        <ele>678.5</ele>
        <time>2021-08-09T08:00:58Z</time>
      </trkpt>
      <trkpt lat="47.88162" lon="7.0647">
        <ele>678.5</ele>
        <time>2021-08-09T08:00:59Z</time>
      </trkpt>
      <trkpt lat="47.88162" lon="7.06475">
        <ele>678.5</ele>
        <time>2021-08-09T08:01:01Z</time>
      </trkpt>
      <trkpt lat="47.88162" lon="7.06479">
        <ele>678.5</ele>
        <time>2021-08-09T08:01:02Z</time>
      </trkpt>
      <trkpt lat="47.88162" lon="7.06485">
        <ele>678.5</ele>
        <time>2021-08-09T08:01:04Z</time>
      </trkpt>
      <trkpt lat="47.88163" lon="7.06489">
        <ele>678.5</ele>
        <time>2021-08-09T08:01:05Z</time>
      </trkpt>
      <trkpt lat="47.88164" lon="7.06495">
        <ele>678.4</ele>
        <time>2021-08-09T08:01:07Z</time>
      </trkpt>
      <trkpt lat="47.88164" lon="7.06501">
        <ele>678.4</ele>
        <time>2021-08-09T08:01:08Z</time>
      </trkpt>
      <trkpt lat="47.88164" lon="7.06503">
        <ele>678.4</ele>
        <time>2021-08-09T08:01:09Z</time>
      </trkpt>
      <trkpt lat="47.88165" lon="7.06507">
        <ele>678.4</ele>
        <time>2021-08-09T08:01:11Z</time>
      </trkpt>
      <trkpt lat="47.88166" lon="7.06509">
        <ele>678.4</ele>
        <time>2021-08-09T08:01:12Z</time>
      </trkpt>
      <trkpt lat="47.88167" lon="7.06514">
        <ele>678.3</ele>
        <time>2021-08-09T08:01:14Z</time>
      </trkpt>
      <trkpt lat="47.88168" lon="7.06518">
        <ele>678.3</ele>
        <time>2021-08-09T08:01:15Z</time>
      </trkpt>
      <trkpt lat="47.88168" lon="7.06519">
        <ele>678.3</ele>
        <time>2021-08-09T08:01:16Z</time>
      </trkpt>
      <trkpt lat="47.88169" lon="7.06522">
        <ele>678.2</ele>
        <time>2021-08-09T08:01:17Z</time>
      </trkpt>
      <trkpt lat="47.8817" lon="7.06526">
        <ele>678.2</ele>
        <time>2021-08-09T08:01:19Z</time>
      </trkpt>
      <trkpt lat="47.8817" lon="7.06531">
        <ele>678.1</ele>
        <time>2021-08-09T08:01:20Z</time>
      </trkpt>
      <trkpt lat="47.88172" lon="7.06536">
        <ele>678</ele>
        <time>2021-08-09T08:01:22Z</time>
      </trkpt>
      <trkpt lat="47.88173" lon="7.06541">
        <ele>677.8</ele>
        <time>2021-08-09T08:01:23Z</time>
      </trkpt>
      <trkpt lat="47.88173" lon="7.06543">
        <ele>677.8</ele>
        <time>2021-08-09T08:01:24Z</time>
      </trkpt>
      <trkpt lat="47.88175" lon="7.06547">
        <ele>677.6</ele>
        <time>2021-08-09T08:01:25Z</time>
      </trkpt>
      <trkpt lat="47.88176" lon="7.06549">
        <ele>677.6</ele>
        <time>2021-08-09T08:01:26Z</time>
      </trkpt>
      <trkpt lat="47.88179" lon="7.06555">
        <ele>677.4</ele>
        <time>2021-08-09T08:01:28Z</time>
      </trkpt>
      <trkpt lat="47.88182" lon="7.06559">
        <ele>677.2</ele>
        <time>2021-08-09T08:01:29Z</time>
      </trkpt>
      <trkpt lat="47.88183" lon="7.0656">
        <ele>677.2</ele>
        <time>2021-08-09T08:01:30Z</time>
      </trkpt>
      <trkpt lat="47.88186" lon="7.06564">
        <ele>677</ele>
        <time>2021-08-09T08:01:32Z</time>
      </trkpt>
      <trkpt lat="47.88189" lon="7.06566">
        <ele>676.9</ele>
        <time>2021-08-09T08:01:33Z</time>
      </trkpt>
      <trkpt lat="47.88191" lon="7.06568">
        <ele>676.8</ele>
        <time>2021-08-09T08:01:35Z</time>
      </trkpt>
      <trkpt lat="47.88193" lon="7.06569">
        <ele>676.7</ele>
        <time>2021-08-09T08:01:36Z</time>
      </trkpt>
      <trkpt lat="47.88195" lon="7.06572">
        <ele>676.6</ele>
        <time>2021-08-09T08:01:38Z</time>
      </trkpt>
      <trkpt lat="47.88195" lon="7.06575">
        <ele>676.5</ele>
        <time>2021-08-09T08:01:39Z</time>
      </trkpt>
      <trkpt lat="47.88195" lon="7.06577">
        <ele>676.4</ele>
        <time>2021-08-09T08:01:41Z</time>
      </trkpt>
      <trkpt lat="47.88195" lon="7.06577">
        <ele>676.4</ele>
        <time>2021-08-09T08:01:42Z</time>
      </trkpt>
      <trkpt lat="47.88195" lon="7.06577">
        <ele>676.4</ele>
        <time>2021-08-09T08:01:43Z</time>
      </trkpt>
      <trkpt lat="47.88196" lon="7.06579">
        <ele>676.3</ele>
        <time>2021-08-09T08:01:45Z</time>
      </trkpt>
      <trkpt lat="47.88196" lon="7.06579">
        <ele>676.3</ele>
        <time>2021-08-09T08:01:46Z</time>
      </trkpt>
      <trkpt lat="47.88196" lon="7.0658">
        <ele>676.3</ele>
        <time>2021-08-09T08:01:47Z</time>
      </trkpt>
      <trkpt lat="47.88195" lon="7.0658">
        <ele>676.3</ele>
        <time>2021-08-09T08:01:49Z</time>
      </trkpt>
      <trkpt lat="47.88195" lon="7.0658">
        <ele>676.2</ele>
        <time>2021-08-09T08:01:50Z</time>
      </trkpt>
      <trkpt lat="47.88194" lon="7.06581">
        <ele>676.2</ele>
        <time>2021-08-09T08:01:52Z</time>
      </trkpt>
      <trkpt lat="47.88194" lon="7.06581">
        <ele>676.2</ele>
        <time>2021-08-09T08:01:53Z</time>
      </trkpt>
      <trkpt lat="47.88194" lon="7.06581">
        <ele>676.2</ele>
        <time>2021-08-09T08:01:55Z</time>
      </trkpt>
      <trkpt lat="47.88194" lon="7.06581">
        <ele>676.2</ele>
        <time>2021-08-09T08:01:56Z</time>
      </trkpt>
      <trkpt lat="47.88194" lon="7.06581">
        <ele>676.2</ele>
        <time>2021-08-09T08:01:57Z</time>
      </trkpt>
      <trkpt lat="47.8819" lon="7.0662">
        <ele>674.5</ele>
        <time>2021-08-09T08:02:30Z</time>
      </trkpt>
      <trkpt lat="47.88192" lon="7.06628">
        <ele>674.1</ele>
        <time>2021-08-09T08:02:32Z</time>
      </trkpt>
      <trkpt lat="47.88195" lon="7.06637">
        <ele>673.6</ele>
        <time>2021-08-09T08:02:33Z</time>
      </trkpt>
      <trkpt lat="47.882" lon="7.0665">
        <ele>672.9</ele>
        <time>2021-08-09T08:02:34Z</time>
      </trkpt>
      <trkpt lat="47.88203" lon="7.06659">
        <ele>672.5</ele>
        <time>2021-08-09T08:02:35Z</time>
      </trkpt>
      <trkpt lat="47.88209" lon="7.06679">
        <ele>671.9</ele>
        <time>2021-08-09T08:02:37Z</time>
      </trkpt>
      <trkpt lat="47.88215" lon="7.06695">
        <ele>671.7</ele>
        <time>2021-08-09T08:02:39Z</time>
      </trkpt>
      <trkpt lat="47.88224" lon="7.06713">
        <ele>671.6</ele>
        <time>2021-08-09T08:02:40Z</time>
      </trkpt>
      <trkpt lat="47.88227" lon="7.06718">
        <ele>671.6</ele>
        <time>2021-08-09T08:02:41Z</time>
      </trkpt>
      <trkpt lat="47.88231" lon="7.06726">
        <ele>671.6</ele>
        <time>2021-08-09T08:02:42Z</time>
      </trkpt>
      <trkpt lat="47.88234" lon="7.06736">
        <ele>671.6</ele>
        <time>2021-08-09T08:02:44Z</time>
      </trkpt>
      <trkpt lat="47.88235" lon="7.06747">
        <ele>671.6</ele>
        <time>2021-08-09T08:02:46Z</time>
      </trkpt>
      <trkpt lat="47.88236" lon="7.06755">
        <ele>671.6</ele>
        <time>2021-08-09T08:02:47Z</time>
      </trkpt>
      <trkpt lat="47.88238" lon="7.06759">
        <ele>671.6</ele>
        <time>2021-08-09T08:02:48Z</time>
      </trkpt>
      <trkpt lat="47.88239" lon="7.06766">
        <ele>671.6</ele>
        <time>2021-08-09T08:02:49Z</time>
      </trkpt>
      <trkpt lat="47.8824" lon="7.06771">
        <ele>671.6</ele>
        <time>2021-08-09T08:02:51Z</time>
      </trkpt>
      <trkpt lat="47.88239" lon="7.06776">
        <ele>671.6</ele>
        <time>2021-08-09T08:02:52Z</time>
      </trkpt>
      <trkpt lat="47.88238" lon="7.06781">
        <ele>671.6</ele>
        <time>2021-08-09T08:02:53Z</time>
      </trkpt>
      <trkpt lat="47.88237" lon="7.06786">
        <ele>671.7</ele>
        <time>2021-08-09T08:02:55Z</time>
      </trkpt>
      <trkpt lat="47.88236" lon="7.06792">
        <ele>671.7</ele>
        <time>2021-08-09T08:02:56Z</time>
      </trkpt>
      <trkpt lat="47.88236" lon="7.06797">
        <ele>671.7</ele>
        <time>2021-08-09T08:02:57Z</time>
      </trkpt>
      <trkpt lat="47.88237" lon="7.06803">
        <ele>671.7</ele>
        <time>2021-08-09T08:02:59Z</time>
      </trkpt>
      <trkpt lat="47.88237" lon="7.0681">
        <ele>671.7</ele>
        <time>2021-08-09T08:03:00Z</time>
      </trkpt>
      <trkpt lat="47.88236" lon="7.06818">
        <ele>671.7</ele>
        <time>2021-08-09T08:03:01Z</time>
      </trkpt>
      <trkpt lat="47.88235" lon="7.06828">
        <ele>671.5</ele>
        <time>2021-08-09T08:03:03Z</time>
      </trkpt>
      <trkpt lat="47.88234" lon="7.06833">
        <ele>671.3</ele>
        <time>2021-08-09T08:03:04Z</time>
      </trkpt>
      <trkpt lat="47.88234" lon="7.06836">
        <ele>671.3</ele>
        <time>2021-08-09T08:03:05Z</time>
      </trkpt>
      <trkpt lat="47.88235" lon="7.06839">
        <ele>671.1</ele>
        <time>2021-08-09T08:03:06Z</time>
      </trkpt>
      <trkpt lat="47.88238" lon="7.06843">
        <ele>670.9</ele>
        <time>2021-08-09T08:03:07Z</time>
      </trkpt>
      <trkpt lat="47.8824" lon="7.06845">
        <ele>670.7</ele>
        <time>2021-08-09T08:03:08Z</time>
      </trkpt>
      <trkpt lat="47.88245" lon="7.06847">
        <ele>670.3</ele>
        <time>2021-08-09T08:03:10Z</time>
      </trkpt>
      <trkpt lat="47.88251" lon="7.06851">
        <ele>669.7</ele>
        <time>2021-08-09T08:03:11Z</time>
      </trkpt>
      <trkpt lat="47.88258" lon="7.06856">
        <ele>668.9</ele>
        <time>2021-08-09T08:03:12Z</time>
      </trkpt>
      <trkpt lat="47.88264" lon="7.0686">
        <ele>668.3</ele>
        <time>2021-08-09T08:03:13Z</time>
      </trkpt>
      <trkpt lat="47.88272" lon="7.06867">
        <ele>667.4</ele>
        <time>2021-08-09T08:03:15Z</time>
      </trkpt>
      <trkpt lat="47.88279" lon="7.06873">
        <ele>666.7</ele>
        <time>2021-08-09T08:03:16Z</time>
      </trkpt>
      <trkpt lat="47.88289" lon="7.06879">
        <ele>665.8</ele>
        <time>2021-08-09T08:03:18Z</time>
      </trkpt>
      <trkpt lat="47.88295" lon="7.06884">
        <ele>665.2</ele>
        <time>2021-08-09T08:03:19Z</time>
      </trkpt>
      <trkpt lat="47.88299" lon="7.0689">
        <ele>664.8</ele>
        <time>2021-08-09T08:03:20Z</time>
      </trkpt>
      <trkpt lat="47.88302" lon="7.06898">
        <ele>664.4</ele>
        <time>2021-08-09T08:03:22Z</time>
      </trkpt>
      <trkpt lat="47.88304" lon="7.06893">
        <ele>664.2</ele>
        <time>2021-08-09T08:03:23Z</time>
      </trkpt>
      <trkpt lat="47.88305" lon="7.0689">
        <ele>664.1</ele>
        <time>2021-08-09T08:03:24Z</time>
      </trkpt>
      <trkpt lat="47.88313" lon="7.06904">
        <ele>663.3</ele>
        <time>2021-08-09T08:03:26Z</time>
      </trkpt>
      <trkpt lat="47.88319" lon="7.06917">
        <ele>662.5</ele>
        <time>2021-08-09T08:03:28Z</time>
      </trkpt>
      <trkpt lat="47.88326" lon="7.0693">
        <ele>661.4</ele>
        <time>2021-08-09T08:03:29Z</time>
      </trkpt>
      <trkpt lat="47.88333" lon="7.06944">
        <ele>660.1</ele>
        <time>2021-08-09T08:03:31Z</time>
      </trkpt>
      <trkpt lat="47.8834" lon="7.06957">
        <ele>659.5</ele>
        <time>2021-08-09T08:03:32Z</time>
      </trkpt>
      <trkpt lat="47.88347" lon="7.06971">
        <ele>658.4</ele>
        <time>2021-08-09T08:05:05Z</time>
      </trkpt>
      <trkpt lat="47.88354" lon="7.06984">
        <ele>658.1</ele>
        <time>2021-08-09T08:05:06Z</time>
      </trkpt>
      <trkpt lat="47.88356" lon="7.06988">
        <ele>657.8</ele>
        <time>2021-08-09T08:05:08Z</time>
      </trkpt>
      <trkpt lat="47.88357" lon="7.06989">
        <ele>657.2</ele>
        <time>2021-08-09T08:05:09Z</time>
      </trkpt>
      <trkpt lat="47.8836" lon="7.06992">
        <ele>656.9</ele>
        <time>2021-08-09T08:05:10Z</time>
      </trkpt>
      <trkpt lat="47.88361" lon="7.06993">
        <ele>656.8</ele>
        <time>2021-08-09T08:05:11Z</time>
      </trkpt>
      <trkpt lat="47.88367" lon="7.06992">
        <ele>657.1</ele>
        <time>2021-08-09T08:05:13Z</time>
      </trkpt>
      <trkpt lat="47.88373" lon="7.0699">
        <ele>657.4</ele>
        <time>2021-08-09T08:05:14Z</time>
      </trkpt>
      <trkpt lat="47.88376" lon="7.06988">
        <ele>657.1</ele>
        <time>2021-08-09T08:05:16Z</time>
      </trkpt>
      <trkpt lat="47.88378" lon="7.06988">
        <ele>656.8</ele>
        <time>2021-08-09T08:05:17Z</time>
      </trkpt>
      <trkpt lat="47.88379" lon="7.06988">
        <ele>656.2</ele>
        <time>2021-08-09T08:05:18Z</time>
      </trkpt>
      <trkpt lat="47.88381" lon="7.06988">
        <ele>655.9</ele>
        <time>2021-08-09T08:05:19Z</time>
      </trkpt>
      <trkpt lat="47.88382" lon="7.06988">
        <ele>655.3</ele>
        <time>2021-08-09T08:05:20Z</time>
      </trkpt>
      <trkpt lat="47.88384" lon="7.06988">
        <ele>655.3</ele>
        <time>2021-08-09T08:05:22Z</time>
      </trkpt>
      <trkpt lat="47.88385" lon="7.06988">
        <ele>655.2</ele>
        <time>2021-08-09T08:05:24Z</time>
      </trkpt>
      <trkpt lat="47.88386" lon="7.06988">
        <ele>655.2</ele>
        <time>2021-08-09T08:05:25Z</time>
      </trkpt>
      <trkpt lat="47.88387" lon="7.06988">
        <ele>655.2</ele>
        <time>2021-08-09T08:05:26Z</time>
      </trkpt>
      <trkpt lat="47.88388" lon="7.06989">
        <ele>655.2</ele>
        <time>2021-08-09T08:05:28Z</time>
      </trkpt>
      <trkpt lat="47.88389" lon="7.06989">
        <ele>655.2</ele>
        <time>2021-08-09T08:05:29Z</time>
      </trkpt>
      <trkpt lat="47.8839" lon="7.0699">
        <ele>655.2</ele>
        <time>2021-08-09T08:05:31Z</time>
      </trkpt>
      <trkpt lat="47.88391" lon="7.0699">
        <ele>655.2</ele>
        <time>2021-08-09T08:05:32Z</time>
      </trkpt>
      <trkpt lat="47.88392" lon="7.0699">
        <ele>655.2</ele>
        <time>2021-08-09T08:05:34Z</time>
      </trkpt>
      <trkpt lat="47.88393" lon="7.0699">
        <ele>655.2</ele>
        <time>2021-08-09T08:05:35Z</time>
      </trkpt>
      <trkpt lat="47.88393" lon="7.0699">
        <ele>655.2</ele>
        <time>2021-08-09T08:05:37Z</time>
      </trkpt>
      <trkpt lat="47.88393" lon="7.0699">
        <ele>655.2</ele>
        <time>2021-08-09T08:05:38Z</time>
      </trkpt>
      <trkpt lat="47.88394" lon="7.0699">
        <ele>655.1</ele>
        <time>2021-08-09T08:05:40Z</time>
      </trkpt>
      <trkpt lat="47.88394" lon="7.06989">
        <ele>655.1</ele>
        <time>2021-08-09T08:05:41Z</time>
      </trkpt>
      <trkpt lat="47.88394" lon="7.06989">
        <ele>655.1</ele>
        <time>2021-08-09T08:05:43Z</time>
      </trkpt>
      <trkpt lat="47.88395" lon="7.06989">
        <ele>655.1</ele>
        <time>2021-08-09T08:05:44Z</time>
      </trkpt>
      <trkpt lat="47.88395" lon="7.06988">
        <ele>655.1</ele>
        <time>2021-08-09T08:05:46Z</time>
      </trkpt>
      <trkpt lat="47.88396" lon="7.06988">
        <ele>655.1</ele>
        <time>2021-08-09T08:05:47Z</time>
      </trkpt>
      <trkpt lat="47.88396" lon="7.06988">
        <ele>655.1</ele>
        <time>2021-08-09T08:05:48Z</time>
      </trkpt>
      <trkpt lat="47.88397" lon="7.06987">
        <ele>655.1</ele>
        <time>2021-08-09T08:05:50Z</time>
      </trkpt>
      <trkpt lat="47.88397" lon="7.06987">
        <ele>655.1</ele>
        <time>2021-08-09T08:05:52Z</time>
      </trkpt>
      <trkpt lat="47.88397" lon="7.06986">
        <ele>655.1</ele>
        <time>2021-08-09T08:05:54Z</time>
      </trkpt>
      <trkpt lat="47.88397" lon="7.06985">
        <ele>655.1</ele>
        <time>2021-08-09T08:05:55Z</time>
      </trkpt>
      <trkpt lat="47.88397" lon="7.06985">
        <ele>655.1</ele>
        <time>2021-08-09T08:05:57Z</time>
      </trkpt>
      <trkpt lat="47.88396" lon="7.06984">
        <ele>655.1</ele>
        <time>2021-08-09T08:05:59Z</time>
      </trkpt>
      <trkpt lat="47.88396" lon="7.06984">
        <ele>655.1</ele>
        <time>2021-08-09T08:06:00Z</time>
      </trkpt>
      <trkpt lat="47.88396" lon="7.06983">
        <ele>655.1</ele>
        <time>2021-08-09T08:06:02Z</time>
      </trkpt>
      <trkpt lat="47.88396" lon="7.06982">
        <ele>655.1</ele>
        <time>2021-08-09T08:06:03Z</time>
      </trkpt>
      <trkpt lat="47.88396" lon="7.06982">
        <ele>655.1</ele>
        <time>2021-08-09T08:06:05Z</time>
      </trkpt>
      <trkpt lat="47.88397" lon="7.06981">
        <ele>655.1</ele>
        <time>2021-08-09T08:06:06Z</time>
      </trkpt>
      <trkpt lat="47.88397" lon="7.06981">
        <ele>655.1</ele>
        <time>2021-08-09T08:06:08Z</time>
      </trkpt>
      <trkpt lat="47.88397" lon="7.06981">
        <ele>655.1</ele>
        <time>2021-08-09T08:06:09Z</time>
      </trkpt>
      <trkpt lat="47.88398" lon="7.0698">
        <ele>655</ele>
        <time>2021-08-09T08:06:11Z</time>
      </trkpt>
      <trkpt lat="47.88398" lon="7.0698">
        <ele>655</ele>
        <time>2021-08-09T08:06:12Z</time>
      </trkpt>
      <trkpt lat="47.88398" lon="7.0698">
        <ele>655</ele>
        <time>2021-08-09T08:06:14Z</time>
      </trkpt>
      <trkpt lat="47.88398" lon="7.0698">
        <ele>655</ele>
        <time>2021-08-09T08:06:15Z</time>
      </trkpt>
      <trkpt lat="47.88398" lon="7.06979">
        <ele>655</ele>
        <time>2021-08-09T08:06:16Z</time>
      </trkpt>
      <trkpt lat="47.88398" lon="7.06978">
        <ele>655</ele>
        <time>2021-08-09T08:06:18Z</time>
      </trkpt>
      <trkpt lat="47.8827" lon="7.06998">
        <ele>654.7</ele>
        <time>2021-08-09T08:06:20Z</time>
      </trkpt>
      <trkpt lat="47.8821" lon="7.07007">
        <ele>655.7</ele>
        <time>2021-08-09T08:06:21Z</time>
      </trkpt>
      <trkpt lat="47.88202" lon="7.07008">
        <ele>655.6</ele>
        <time>2021-08-09T08:06:22Z</time>
      </trkpt>
      <trkpt lat="47.88194" lon="7.07008">
        <ele>654.8</ele>
        <time>2021-08-09T08:06:23Z</time>
      </trkpt>
      <trkpt lat="47.88192" lon="7.07008">
        <ele>654.5</ele>
        <time>2021-08-09T08:06:24Z</time>
      </trkpt>
      <trkpt lat="47.88191" lon="7.07008">
        <ele>654.4</ele>
        <time>2021-08-09T08:06:25Z</time>
      </trkpt>
      <trkpt lat="47.88188" lon="7.07007">
        <ele>654.2</ele>
        <time>2021-08-09T08:06:26Z</time>
      </trkpt>
      <trkpt lat="47.88185" lon="7.07004">
        <ele>653.8</ele>
        <time>2021-08-09T08:06:28Z</time>
      </trkpt>
      <trkpt lat="47.88182" lon="7.07002">
        <ele>653.5</ele>
        <time>2021-08-09T08:06:29Z</time>
      </trkpt>
      <trkpt lat="47.88179" lon="7.06999">
        <ele>653.1</ele>
        <time>2021-08-09T08:06:31Z</time>
      </trkpt>
      <trkpt lat="47.88176" lon="7.06996">
        <ele>652.8</ele>
        <time>2021-08-09T08:06:32Z</time>
      </trkpt>
      <trkpt lat="47.88171" lon="7.06992">
        <ele>652.3</ele>
        <time>2021-08-09T08:06:33Z</time>
      </trkpt>
      <trkpt lat="47.88165" lon="7.06987">
        <ele>651.5</ele>
        <time>2021-08-09T08:06:35Z</time>
      </trkpt>
      <trkpt lat="47.88159" lon="7.06983">
        <ele>650.9</ele>
        <time>2021-08-09T08:06:36Z</time>
      </trkpt>
      <trkpt lat="47.88157" lon="7.06981">
        <ele>650.7</ele>
        <time>2021-08-09T08:06:37Z</time>
      </trkpt>
      <trkpt lat="47.88153" lon="7.06979">
        <ele>650.2</ele>
        <time>2021-08-09T08:06:38Z</time>
      </trkpt>
      <trkpt lat="47.88148" lon="7.0698">
        <ele>649.8</ele>
        <time>2021-08-09T08:06:40Z</time>
      </trkpt>
      <trkpt lat="47.88147" lon="7.06982">
        <ele>649.6</ele>
        <time>2021-08-09T08:06:41Z</time>
      </trkpt>
      <trkpt lat="47.88146" lon="7.06983">
        <ele>649.5</ele>
        <time>2021-08-09T08:06:42Z</time>
      </trkpt>
      <trkpt lat="47.88145" lon="7.06983">
        <ele>649.5</ele>
        <time>2021-08-09T08:06:43Z</time>
      </trkpt>
      <trkpt lat="47.88146" lon="7.06984">
        <ele>649.4</ele>
        <time>2021-08-09T08:06:45Z</time>
      </trkpt>
      <trkpt lat="47.88146" lon="7.06985">
        <ele>649.3</ele>
        <time>2021-08-09T08:06:46Z</time>
      </trkpt>
      <trkpt lat="47.88147" lon="7.06985">
        <ele>649.2</ele>
        <time>2021-08-09T08:06:48Z</time>
      </trkpt>
      <trkpt lat="47.88147" lon="7.06985">
        <ele>649.2</ele>
        <time>2021-08-09T08:06:49Z</time>
      </trkpt>
      <trkpt lat="47.88147" lon="7.06985">
        <ele>649.2</ele>
        <time>2021-08-09T08:06:50Z</time>
      </trkpt>
      <trkpt lat="47.88148" lon="7.06984">
        <ele>649.1</ele>
        <time>2021-08-09T08:06:52Z</time>
      </trkpt>
      <trkpt lat="47.8815" lon="7.06983">
        <ele>648.9</ele>
        <time>2021-08-09T08:06:54Z</time>
      </trkpt>
      <trkpt lat="47.8815" lon="7.06982">
        <ele>648.8</ele>
        <time>2021-08-09T08:06:55Z</time>
      </trkpt>
      <trkpt lat="47.8815" lon="7.0698">
        <ele>648.7</ele>
        <time>2021-08-09T08:06:56Z</time>
      </trkpt>
      <trkpt lat="47.8815" lon="7.06978">
        <ele>648.6</ele>
        <time>2021-08-09T08:06:57Z</time>
      </trkpt>
      <trkpt lat="47.88149" lon="7.06972">
        <ele>648.2</ele>
        <time>2021-08-09T08:06:59Z</time>
      </trkpt>
      <trkpt lat="47.88147" lon="7.06967">
        <ele>647.8</ele>
        <time>2021-08-09T08:07:00Z</time>
      </trkpt>
      <trkpt lat="47.88143" lon="7.06963">
        <ele>647.3</ele>
        <time>2021-08-09T08:07:02Z</time>
      </trkpt>
      <trkpt lat="47.8814" lon="7.0696">
        <ele>647</ele>
        <time>2021-08-09T08:07:03Z</time>
      </trkpt>
      <trkpt lat="47.88138" lon="7.06959">
        <ele>646.7</ele>
        <time>2021-08-09T08:07:04Z</time>
      </trkpt>
      <trkpt lat="47.88129" lon="7.06949">
        <ele>645.6</ele>
        <time>2021-08-09T08:07:06Z</time>
      </trkpt>
      <trkpt lat="47.88124" lon="7.06943">
        <ele>645</ele>
        <time>2021-08-09T08:07:07Z</time>
      </trkpt>
      <trkpt lat="47.88108" lon="7.06928">
        <ele>643.1</ele>
        <time>2021-08-09T08:07:09Z</time>
      </trkpt>
      <trkpt lat="47.88101" lon="7.06923">
        <ele>642.4</ele>
        <time>2021-08-09T08:07:10Z</time>
      </trkpt>
      <trkpt lat="47.88089" lon="7.06913">
        <ele>641</ele>
        <time>2021-08-09T08:07:12Z</time>
      </trkpt>
      <trkpt lat="47.8808" lon="7.06904">
        <ele>640</ele>
        <time>2021-08-09T08:07:14Z</time>
      </trkpt>
      <trkpt lat="47.88078" lon="7.06901">
        <ele>639.7</ele>
        <time>2021-08-09T08:07:15Z</time>
      </trkpt>
      <trkpt lat="47.88077" lon="7.069">
        <ele>639.6</ele>
        <time>2021-08-09T08:07:16Z</time>
      </trkpt>
      <trkpt lat="47.88071" lon="7.06893">
        <ele>638.8</ele>
        <time>2021-08-09T08:07:17Z</time>
      </trkpt>
      <trkpt lat="47.88059" lon="7.06877">
        <ele>637.3</ele>
        <time>2021-08-09T08:07:19Z</time>
      </trkpt>
      <trkpt lat="47.88053" lon="7.06868">
        <ele>636.4</ele>
        <time>2021-08-09T08:07:20Z</time>
      </trkpt>
      <trkpt lat="47.88046" lon="7.0686">
        <ele>635.5</ele>
        <time>2021-08-09T08:07:22Z</time>
      </trkpt>
      <trkpt lat="47.88042" lon="7.06856">
        <ele>635.1</ele>
        <time>2021-08-09T08:07:23Z</time>
      </trkpt>
      <trkpt lat="47.88039" lon="7.06854">
        <ele>634.8</ele>
        <time>2021-08-09T08:07:24Z</time>
      </trkpt>
      <trkpt lat="47.88036" lon="7.06852">
        <ele>634.4</ele>
        <time>2021-08-09T08:07:25Z</time>
      </trkpt>
      <trkpt lat="47.88031" lon="7.06847">
        <ele>633.9</ele>
        <time>2021-08-09T08:07:26Z</time>
      </trkpt>
      <trkpt lat="47.88028" lon="7.06842">
        <ele>633.4</ele>
        <time>2021-08-09T08:07:28Z</time>
      </trkpt>
      <trkpt lat="47.88025" lon="7.06836">
        <ele>632.9</ele>
        <time>2021-08-09T08:07:29Z</time>
      </trkpt>
      <trkpt lat="47.88021" lon="7.06826">
        <ele>632.1</ele>
        <time>2021-08-09T08:07:31Z</time>
      </trkpt>
      <trkpt lat="47.88018" lon="7.06821">
        <ele>631.7</ele>
        <time>2021-08-09T08:07:32Z</time>
      </trkpt>
      <trkpt lat="47.88015" lon="7.06811">
        <ele>631</ele>
        <time>2021-08-09T08:07:33Z</time>
      </trkpt>
      <trkpt lat="47.88011" lon="7.06797">
        <ele>630</ele>
        <time>2021-08-09T08:07:35Z</time>
      </trkpt>
      <trkpt lat="47.88007" lon="7.06784">
        <ele>629</ele>
        <time>2021-08-09T08:07:36Z</time>
      </trkpt>
      <trkpt lat="47.88005" lon="7.06772">
        <ele>628.2</ele>
        <time>2021-08-09T08:07:38Z</time>
      </trkpt>
      <trkpt lat="47.88002" lon="7.0676">
        <ele>627.4</ele>
        <time>2021-08-09T08:07:39Z</time>
      </trkpt>
      <trkpt lat="47.87999" lon="7.06751">
        <ele>626.7</ele>
        <time>2021-08-09T08:07:40Z</time>
      </trkpt>
      <trkpt lat="47.87997" lon="7.06745">
        <ele>626.3</ele>
        <time>2021-08-09T08:07:41Z</time>
      </trkpt>
      <trkpt lat="47.87993" lon="7.06736">
        <ele>625.6</ele>
        <time>2021-08-09T08:07:42Z</time>
      </trkpt>
      <trkpt lat="47.87989" lon="7.06726">
        <ele>624.8</ele>
        <time>2021-08-09T08:07:44Z</time>
      </trkpt>
      <trkpt lat="47.87985" lon="7.06721">
        <ele>624.3</ele>
        <time>2021-08-09T08:07:45Z</time>
      </trkpt>
      <trkpt lat="47.8798" lon="7.06718">
        <ele>623.7</ele>
        <time>2021-08-09T08:07:46Z</time>
      </trkpt>
      <trkpt lat="47.87972" lon="7.06714">
        <ele>623.7</ele>
        <time>2021-08-09T08:07:47Z</time>
      </trkpt>
      <trkpt lat="47.87965" lon="7.06712">
        <ele>623.8</ele>
        <time>2021-08-09T08:07:48Z</time>
      </trkpt>
      <trkpt lat="47.87957" lon="7.06707">
        <ele>624.1</ele>
        <time>2021-08-09T08:07:50Z</time>
      </trkpt>
      <trkpt lat="47.87953" lon="7.06708">
        <ele>624.4</ele>
        <time>2021-08-09T08:07:51Z</time>
      </trkpt>
      <trkpt lat="47.87947" lon="7.06709">
        <ele>626.4</ele>
        <time>2021-08-09T08:07:52Z</time>
      </trkpt>
      <trkpt lat="47.87941" lon="7.06712">
        <ele>627.4</ele>
        <time>2021-08-09T08:07:53Z</time>
      </trkpt>
      <trkpt lat="47.87936" lon="7.06712">
        <ele>628.5</ele>
        <time>2021-08-09T08:07:54Z</time>
      </trkpt>
      <trkpt lat="47.87935" lon="7.06713">
        <ele>629.4</ele>
        <time>2021-08-09T08:07:56Z</time>
      </trkpt>
      <trkpt lat="47.87933" lon="7.06714">
        <ele>630</ele>
        <time>2021-08-09T08:07:57Z</time>
      </trkpt>
      <trkpt lat="47.87931" lon="7.06718">
        <ele>631.5</ele>
        <time>2021-08-09T08:07:59Z</time>
      </trkpt>
      <trkpt lat="47.87923" lon="7.0673">
        <ele>634.8</ele>
        <time>2021-08-09T08:08:01Z</time>
      </trkpt>
      <trkpt lat="47.87918" lon="7.06735">
        <ele>638.6</ele>
        <time>2021-08-09T08:08:03Z</time>
      </trkpt>
      <trkpt lat="47.87916" lon="7.06736">
        <ele>639.4</ele>
        <time>2021-08-09T08:08:04Z</time>
      </trkpt>
      <trkpt lat="47.87914" lon="7.06737">
        <ele>640.1</ele>
        <time>2021-08-09T08:08:06Z</time>
      </trkpt>
      <trkpt lat="47.87912" lon="7.06737">
        <ele>640.1</ele>
        <time>2021-08-09T08:08:07Z</time>
      </trkpt>
      <trkpt lat="47.87878" lon="7.06751">
        <ele>650.8</ele>
        <time>2021-08-09T08:08:21Z</time>
      </trkpt>
      <trkpt lat="47.87874" lon="7.06752">
        <ele>652.7</ele>
        <time>2021-08-09T08:08:22Z</time>
      </trkpt>
      <trkpt lat="47.87871" lon="7.06753">
        <ele>653.1</ele>
        <time>2021-08-09T08:08:23Z</time>
      </trkpt>
      <trkpt lat="47.87868" lon="7.06754">
        <ele>653.5</ele>
        <time>2021-08-09T08:08:24Z</time>
      </trkpt>
      <trkpt lat="47.87865" lon="7.06755">
        <ele>653.9</ele>
        <time>2021-08-09T08:08:25Z</time>
      </trkpt>
      <trkpt lat="47.87863" lon="7.06756">
        <ele>655.7</ele>
        <time>2021-08-09T08:08:26Z</time>
      </trkpt>
      <trkpt lat="47.87862" lon="7.06757">
        <ele>656.1</ele>
        <time>2021-08-09T08:08:27Z</time>
      </trkpt>
      <trkpt lat="47.8786" lon="7.06757">
        <ele>656.1</ele>
        <time>2021-08-09T08:08:28Z</time>
      </trkpt>
      <trkpt lat="47.87858" lon="7.06759">
        <ele>656.5</ele>
        <time>2021-08-09T08:08:30Z</time>
      </trkpt>
      <trkpt lat="47.87857" lon="7.06759">
        <ele>656.5</ele>
        <time>2021-08-09T08:08:32Z</time>
      </trkpt>
      <trkpt lat="47.87856" lon="7.06759">
        <ele>656.8</ele>
        <time>2021-08-09T08:08:33Z</time>
      </trkpt>
      <trkpt lat="47.87855" lon="7.0676">
        <ele>656.8</ele>
        <time>2021-08-09T08:08:34Z</time>
      </trkpt>
      <trkpt lat="47.87854" lon="7.0676">
        <ele>658.1</ele>
        <time>2021-08-09T08:08:35Z</time>
      </trkpt>
      <trkpt lat="47.87852" lon="7.0676">
        <ele>658.4</ele>
        <time>2021-08-09T08:08:36Z</time>
      </trkpt>
      <trkpt lat="47.87851" lon="7.0676">
        <ele>658.4</ele>
        <time>2021-08-09T08:08:37Z</time>
      </trkpt>
      <trkpt lat="47.87848" lon="7.0676">
        <ele>658.6</ele>
        <time>2021-08-09T08:08:38Z</time>
      </trkpt>
      <trkpt lat="47.87846" lon="7.06761">
        <ele>658.8</ele>
        <time>2021-08-09T08:08:39Z</time>
      </trkpt>
      <trkpt lat="47.87845" lon="7.06761">
        <ele>658.8</ele>
        <time>2021-08-09T08:08:40Z</time>
      </trkpt>
      <trkpt lat="47.87844" lon="7.06762">
        <ele>659</ele>
        <time>2021-08-09T08:08:42Z</time>
      </trkpt>
      <trkpt lat="47.87842" lon="7.06763">
        <ele>659</ele>
        <time>2021-08-09T08:08:43Z</time>
      </trkpt>
      <trkpt lat="47.87841" lon="7.06764">
        <ele>659.2</ele>
        <time>2021-08-09T08:08:44Z</time>
      </trkpt>
      <trkpt lat="47.87839" lon="7.06765">
        <ele>660.4</ele>
        <time>2021-08-09T08:08:45Z</time>
      </trkpt>
      <trkpt lat="47.87837" lon="7.06767">
        <ele>660.7</ele>
        <time>2021-08-09T08:08:46Z</time>
      </trkpt>
      <trkpt lat="47.87834" lon="7.06769">
        <ele>662.1</ele>
        <time>2021-08-09T08:08:48Z</time>
      </trkpt>
      <trkpt lat="47.87832" lon="7.06774">
        <ele>663.5</ele>
        <time>2021-08-09T08:08:49Z</time>
      </trkpt>
      <trkpt lat="47.87831" lon="7.06778">
        <ele>664.8</ele>
        <time>2021-08-09T08:08:51Z</time>
      </trkpt>
      <trkpt lat="47.8783" lon="7.0678">
        <ele>664.9</ele>
        <time>2021-08-09T08:08:52Z</time>
      </trkpt>
      <trkpt lat="47.87829" lon="7.06782">
        <ele>666.2</ele>
        <time>2021-08-09T08:08:53Z</time>
      </trkpt>
      <trkpt lat="47.87826" lon="7.06788">
        <ele>667.6</ele>
        <time>2021-08-09T08:08:55Z</time>
      </trkpt>
      <trkpt lat="47.87824" lon="7.0679">
        <ele>668.8</ele>
        <time>2021-08-09T08:08:56Z</time>
      </trkpt>
      <trkpt lat="47.87814" lon="7.06783">
        <ele>666.3</ele>
        <time>2021-08-09T08:08:57Z</time>
      </trkpt>
      <trkpt lat="47.87804" lon="7.06773">
        <ele>664.6</ele>
        <time>2021-08-09T08:08:58Z</time>
      </trkpt>
      <trkpt lat="47.87795" lon="7.06763">
        <ele>662.6</ele>
        <time>2021-08-09T08:09:34Z</time>
      </trkpt>
      <trkpt lat="47.87786" lon="7.06753">
        <ele>661.5</ele>
        <time>2021-08-09T08:09:35Z</time>
      </trkpt>
      <trkpt lat="47.87784" lon="7.06748">
        <ele>660.8</ele>
        <time>2021-08-09T08:09:36Z</time>
      </trkpt>
      <trkpt lat="47.87784" lon="7.06746">
        <ele>659.6</ele>
        <time>2021-08-09T08:09:37Z</time>
      </trkpt>
      <trkpt lat="47.87781" lon="7.06744">
        <ele>660.1</ele>
        <time>2021-08-09T08:09:38Z</time>
      </trkpt>
      <trkpt lat="47.87778" lon="7.06743">
        <ele>660.7</ele>
        <time>2021-08-09T08:09:39Z</time>
      </trkpt>
      <trkpt lat="47.8777" lon="7.06739">
        <ele>660.9</ele>
        <time>2021-08-09T08:09:41Z</time>
      </trkpt>
      <trkpt lat="47.87768" lon="7.06738">
        <ele>659.6</ele>
        <time>2021-08-09T08:09:42Z</time>
      </trkpt>
      <trkpt lat="47.87767" lon="7.06738">
        <ele>660.1</ele>
        <time>2021-08-09T08:09:44Z</time>
      </trkpt>
      <trkpt lat="47.87766" lon="7.06737">
        <ele>660.1</ele>
        <time>2021-08-09T08:09:45Z</time>
      </trkpt>
      <trkpt lat="47.87764" lon="7.06736">
        <ele>660.6</ele>
        <time>2021-08-09T08:09:47Z</time>
      </trkpt>
      <trkpt lat="47.87757" lon="7.06734">
        <ele>660.3</ele>
        <time>2021-08-09T08:09:51Z</time>
      </trkpt>
      <trkpt lat="47.87754" lon="7.06731">
        <ele>660.6</ele>
        <time>2021-08-09T08:09:52Z</time>
      </trkpt>
      <trkpt lat="47.87749" lon="7.06728">
        <ele>660.9</ele>
        <time>2021-08-09T08:09:54Z</time>
      </trkpt>
      <trkpt lat="47.87745" lon="7.06725">
        <ele>661.2</ele>
        <time>2021-08-09T08:09:55Z</time>
      </trkpt>
      <trkpt lat="47.8774" lon="7.0672">
        <ele>661.4</ele>
        <time>2021-08-09T08:09:56Z</time>
      </trkpt>
      <trkpt lat="47.87736" lon="7.06715">
        <ele>661.6</ele>
        <time>2021-08-09T08:09:57Z</time>
      </trkpt>
      <trkpt lat="47.87731" lon="7.0671">
        <ele>661.7</ele>
        <time>2021-08-09T08:09:59Z</time>
      </trkpt>
      <trkpt lat="47.87725" lon="7.06706">
        <ele>661.6</ele>
        <time>2021-08-09T08:10:00Z</time>
      </trkpt>
      <trkpt lat="47.8772" lon="7.06701">
        <ele>661.4</ele>
        <time>2021-08-09T08:10:01Z</time>
      </trkpt>
      <trkpt lat="47.87717" lon="7.06697">
        <ele>661.2</ele>
        <time>2021-08-09T08:10:02Z</time>
      </trkpt>
      <trkpt lat="47.87716" lon="7.06692">
        <ele>661.1</ele>
        <time>2021-08-09T08:10:04Z</time>
      </trkpt>
      <trkpt lat="47.87715" lon="7.06689">
        <ele>661</ele>
        <time>2021-08-09T08:10:05Z</time>
      </trkpt>
      <trkpt lat="47.87712" lon="7.06684">
        <ele>660.8</ele>
        <time>2021-08-09T08:10:06Z</time>
      </trkpt>
      <trkpt lat="47.87708" lon="7.06682">
        <ele>660.6</ele>
        <time>2021-08-09T08:10:08Z</time>
      </trkpt>
      <trkpt lat="47.87706" lon="7.06681">
        <ele>660.5</ele>
        <time>2021-08-09T08:10:09Z</time>
      </trkpt>
      <trkpt lat="47.87698" lon="7.06676">
        <ele>660.2</ele>
        <time>2021-08-09T08:10:11Z</time>
      </trkpt>
      <trkpt lat="47.87695" lon="7.06672">
        <ele>660.1</ele>
        <time>2021-08-09T08:10:13Z</time>
      </trkpt>
      <trkpt lat="47.87666" lon="7.06648">
        <ele>659.8</ele>
        <time>2021-08-09T08:10:23Z</time>
      </trkpt>
      <trkpt lat="47.87664" lon="7.06644">
        <ele>659.8</ele>
        <time>2021-08-09T08:10:24Z</time>
      </trkpt>
      <trkpt lat="47.87662" lon="7.06642">
        <ele>659.9</ele>
        <time>2021-08-09T08:10:26Z</time>
      </trkpt>
      <trkpt lat="47.87658" lon="7.0664">
        <ele>659.9</ele>
        <time>2021-08-09T08:10:27Z</time>
      </trkpt>
      <trkpt lat="47.87654" lon="7.06638">
        <ele>659.9</ele>
        <time>2021-08-09T08:10:29Z</time>
      </trkpt>
      <trkpt lat="47.87651" lon="7.06636">
        <ele>659.9</ele>
        <time>2021-08-09T08:10:30Z</time>
      </trkpt>
      <trkpt lat="47.87645" lon="7.06636">
        <ele>659.9</ele>
        <time>2021-08-09T08:10:32Z</time>
      </trkpt>
      <trkpt lat="47.87636" lon="7.0664">
        <ele>660</ele>
        <time>2021-08-09T08:10:33Z</time>
      </trkpt>
      <trkpt lat="47.87628" lon="7.06641">
        <ele>660.2</ele>
        <time>2021-08-09T08:10:35Z</time>
      </trkpt>
      <trkpt lat="47.87622" lon="7.06639">
        <ele>660.3</ele>
        <time>2021-08-09T08:10:36Z</time>
      </trkpt>
      <trkpt lat="47.87619" lon="7.06637">
        <ele>660.4</ele>
        <time>2021-08-09T08:10:37Z</time>
      </trkpt>
      <trkpt lat="47.87614" lon="7.06636">
        <ele>660.5</ele>
        <time>2021-08-09T08:10:39Z</time>
      </trkpt>
      <trkpt lat="47.87609" lon="7.06634">
        <ele>660.6</ele>
        <time>2021-08-09T08:10:41Z</time>
      </trkpt>
      <trkpt lat="47.87605" lon="7.06632">
        <ele>660.6</ele>
        <time>2021-08-09T08:10:42Z</time>
      </trkpt>
      <trkpt lat="47.876" lon="7.06629">
        <ele>660.7</ele>
        <time>2021-08-09T08:10:43Z</time>
      </trkpt>
      <trkpt lat="47.87597" lon="7.06628">
        <ele>660.7</ele>
        <time>2021-08-09T08:10:44Z</time>
      </trkpt>
      <trkpt lat="47.87589" lon="7.06627">
        <ele>660.7</ele>
        <time>2021-08-09T08:10:46Z</time>
      </trkpt>
      <trkpt lat="47.87582" lon="7.06626">
        <ele>660.8</ele>
        <time>2021-08-09T08:10:48Z</time>
      </trkpt>
      <trkpt lat="47.87577" lon="7.06624">
        <ele>660.8</ele>
        <time>2021-08-09T08:10:49Z</time>
      </trkpt>
      <trkpt lat="47.87573" lon="7.06623">
        <ele>660.9</ele>
        <time>2021-08-09T08:10:50Z</time>
      </trkpt>
      <trkpt lat="47.87566" lon="7.06622">
        <ele>661.2</ele>
        <time>2021-08-09T08:10:51Z</time>
      </trkpt>
      <trkpt lat="47.87561" lon="7.06623">
        <ele>661.4</ele>
        <time>2021-08-09T08:10:52Z</time>
      </trkpt>
      <trkpt lat="47.87558" lon="7.06623">
        <ele>661.7</ele>
        <time>2021-08-09T08:10:54Z</time>
      </trkpt>
      <trkpt lat="47.87553" lon="7.06623">
        <ele>662</ele>
        <time>2021-08-09T08:10:55Z</time>
      </trkpt>
      <trkpt lat="47.8755" lon="7.06623">
        <ele>662.2</ele>
        <time>2021-08-09T08:10:56Z</time>
      </trkpt>
      <trkpt lat="47.87546" lon="7.06624">
        <ele>662.5</ele>
        <time>2021-08-09T08:10:57Z</time>
      </trkpt>
      <trkpt lat="47.87541" lon="7.06624">
        <ele>662.8</ele>
        <time>2021-08-09T08:10:59Z</time>
      </trkpt>
      <trkpt lat="47.87536" lon="7.06626">
        <ele>663.2</ele>
        <time>2021-08-09T08:11:01Z</time>
      </trkpt>
      <trkpt lat="47.87533" lon="7.06626">
        <ele>663.5</ele>
        <time>2021-08-09T08:11:02Z</time>
      </trkpt>
      <trkpt lat="47.87529" lon="7.06626">
        <ele>663.8</ele>
        <time>2021-08-09T08:11:04Z</time>
      </trkpt>
      <trkpt lat="47.87524" lon="7.06626">
        <ele>664.2</ele>
        <time>2021-08-09T08:11:05Z</time>
      </trkpt>
      <trkpt lat="47.87521" lon="7.06627">
        <ele>664.5</ele>
        <time>2021-08-09T08:11:06Z</time>
      </trkpt>
      <trkpt lat="47.87517" lon="7.06628">
        <ele>664.8</ele>
        <time>2021-08-09T08:11:08Z</time>
      </trkpt>
      <trkpt lat="47.87513" lon="7.06629">
        <ele>665.1</ele>
        <time>2021-08-09T08:11:09Z</time>
      </trkpt>
      <trkpt lat="47.8751" lon="7.0663">
        <ele>665.2</ele>
        <time>2021-08-09T08:11:10Z</time>
      </trkpt>
      <trkpt lat="47.87507" lon="7.06633">
        <ele>665.2</ele>
        <time>2021-08-09T08:11:12Z</time>
      </trkpt>
      <trkpt lat="47.87506" lon="7.06634">
        <ele>665.2</ele>
        <time>2021-08-09T08:11:13Z</time>
      </trkpt>
      <trkpt lat="47.87504" lon="7.06635">
        <ele>665.1</ele>
        <time>2021-08-09T08:11:14Z</time>
      </trkpt>
      <trkpt lat="47.87503" lon="7.06638">
        <ele>665.1</ele>
        <time>2021-08-09T08:11:16Z</time>
      </trkpt>
      <trkpt lat="47.87501" lon="7.06639">
        <ele>665.1</ele>
        <time>2021-08-09T08:11:17Z</time>
      </trkpt>
      <trkpt lat="47.87501" lon="7.0664">
        <ele>665.1</ele>
        <time>2021-08-09T08:11:19Z</time>
      </trkpt>
      <trkpt lat="47.875" lon="7.06641">
        <ele>665.1</ele>
        <time>2021-08-09T08:11:20Z</time>
      </trkpt>
      <trkpt lat="47.87499" lon="7.06643">
        <ele>665.1</ele>
        <time>2021-08-09T08:11:22Z</time>
      </trkpt>
      <trkpt lat="47.87499" lon="7.06646">
        <ele>665.1</ele>
        <time>2021-08-09T08:11:23Z</time>
      </trkpt>
      <trkpt lat="47.87499" lon="7.06653">
        <ele>665</ele>
        <time>2021-08-09T08:11:24Z</time>
      </trkpt>
      <trkpt lat="47.875" lon="7.06661">
        <ele>664.9</ele>
        <time>2021-08-09T08:11:26Z</time>
      </trkpt>
      <trkpt lat="47.87501" lon="7.06665">
        <ele>664.9</ele>
        <time>2021-08-09T08:11:27Z</time>
      </trkpt>
      <trkpt lat="47.87501" lon="7.06669">
        <ele>664.8</ele>
        <time>2021-08-09T08:11:28Z</time>
      </trkpt>
      <trkpt lat="47.87502" lon="7.06674">
        <ele>664.8</ele>
        <time>2021-08-09T08:11:29Z</time>
      </trkpt>
      <trkpt lat="47.87502" lon="7.06678">
        <ele>664.7</ele>
        <time>2021-08-09T08:11:30Z</time>
      </trkpt>
      <trkpt lat="47.87501" lon="7.06679">
        <ele>664.7</ele>
        <time>2021-08-09T08:11:31Z</time>
      </trkpt>
      <trkpt lat="47.87497" lon="7.06682">
        <ele>664.6</ele>
        <time>2021-08-09T08:11:33Z</time>
      </trkpt>
      <trkpt lat="47.87495" lon="7.06684">
        <ele>664.6</ele>
        <time>2021-08-09T08:11:34Z</time>
      </trkpt>
      <trkpt lat="47.87495" lon="7.06685">
        <ele>664.6</ele>
        <time>2021-08-09T08:11:35Z</time>
      </trkpt>
      <trkpt lat="47.87494" lon="7.06686">
        <ele>664.6</ele>
        <time>2021-08-09T08:11:36Z</time>
      </trkpt>
      <trkpt lat="47.87492" lon="7.0669">
        <ele>664.5</ele>
        <time>2021-08-09T08:11:38Z</time>
      </trkpt>
      <trkpt lat="47.8749" lon="7.06693">
        <ele>664.5</ele>
        <time>2021-08-09T08:11:39Z</time>
      </trkpt>
      <trkpt lat="47.87489" lon="7.06697">
        <ele>664.5</ele>
        <time>2021-08-09T08:11:40Z</time>
      </trkpt>
      <trkpt lat="47.87311" lon="7.06756">
        <ele>658.9</ele>
        <time>2021-08-09T08:12:38Z</time>
      </trkpt>
      <trkpt lat="47.87309" lon="7.06751">
        <ele>658.5</ele>
        <time>2021-08-09T08:12:40Z</time>
      </trkpt>
      <trkpt lat="47.87306" lon="7.06746">
        <ele>658.1</ele>
        <time>2021-08-09T08:12:41Z</time>
      </trkpt>
      <trkpt lat="47.87302" lon="7.0674">
        <ele>657.6</ele>
        <time>2021-08-09T08:12:42Z</time>
      </trkpt>
      <trkpt lat="47.87295" lon="7.06733">
        <ele>656.7</ele>
        <time>2021-08-09T08:12:43Z</time>
      </trkpt>
      <trkpt lat="47.87288" lon="7.06729">
        <ele>656</ele>
        <time>2021-08-09T08:12:44Z</time>
      </trkpt>
      <trkpt lat="47.87282" lon="7.06726">
        <ele>655.3</ele>
        <time>2021-08-09T08:12:46Z</time>
      </trkpt>
      <trkpt lat="47.87275" lon="7.06723">
        <ele>654.5</ele>
        <time>2021-08-09T08:12:47Z</time>
      </trkpt>
      <trkpt lat="47.8727" lon="7.06721">
        <ele>654</ele>
        <time>2021-08-09T08:12:48Z</time>
      </trkpt>
      <trkpt lat="47.87262" lon="7.06719">
        <ele>653.1</ele>
        <time>2021-08-09T08:12:49Z</time>
      </trkpt>
      <trkpt lat="47.87246" lon="7.06713">
        <ele>651.8</ele>
        <time>2021-08-09T08:12:51Z</time>
      </trkpt>
      <trkpt lat="47.87236" lon="7.06707">
        <ele>651</ele>
        <time>2021-08-09T08:12:52Z</time>
      </trkpt>
      <trkpt lat="47.87231" lon="7.06701">
        <ele>650.4</ele>
        <time>2021-08-09T08:12:54Z</time>
      </trkpt>
      <trkpt lat="47.87225" lon="7.06695">
        <ele>649.7</ele>
        <time>2021-08-09T08:12:55Z</time>
      </trkpt>
      <trkpt lat="47.87216" lon="7.06684">
        <ele>648.1</ele>
        <time>2021-08-09T08:12:56Z</time>
      </trkpt>
      <trkpt lat="47.87214" lon="7.06682">
        <ele>647.9</ele>
        <time>2021-08-09T08:12:57Z</time>
      </trkpt>
      <trkpt lat="47.87215" lon="7.06681">
        <ele>647.8</ele>
        <time>2021-08-09T08:12:58Z</time>
      </trkpt>
      <trkpt lat="47.87215" lon="7.06682">
        <ele>647.6</ele>
        <time>2021-08-09T08:13:00Z</time>
      </trkpt>
      <trkpt lat="47.87215" lon="7.06684">
        <ele>647.5</ele>
        <time>2021-08-09T08:13:01Z</time>
      </trkpt>
      <trkpt lat="47.87214" lon="7.06685">
        <ele>647.3</ele>
        <time>2021-08-09T08:13:02Z</time>
      </trkpt>
      <trkpt lat="47.87213" lon="7.06686">
        <ele>647.1</ele>
        <time>2021-08-09T08:13:03Z</time>
      </trkpt>
      <trkpt lat="47.87211" lon="7.06687">
        <ele>646.8</ele>
        <time>2021-08-09T08:13:05Z</time>
      </trkpt>
      <trkpt lat="47.87209" lon="7.06687">
        <ele>646.6</ele>
        <time>2021-08-09T08:13:06Z</time>
      </trkpt>
      <trkpt lat="47.86914" lon="7.05989">
        <ele>552.2</ele>
        <time>2021-08-09T08:14:18Z</time>
      </trkpt>
      <trkpt lat="47.86898" lon="7.05977">
        <ele>550.5</ele>
        <time>2021-08-09T08:14:20Z</time>
      </trkpt>
      <trkpt lat="47.86891" lon="7.0597">
        <ele>549.7</ele>
        <time>2021-08-09T08:14:21Z</time>
      </trkpt>
      <trkpt lat="47.8688" lon="7.05959">
        <ele>548.4</ele>
        <time>2021-08-09T08:14:23Z</time>
      </trkpt>
      <trkpt lat="47.86882" lon="7.05956">
        <ele>548.2</ele>
        <time>2021-08-09T08:14:24Z</time>
      </trkpt>
      <trkpt lat="47.86886" lon="7.05949">
        <ele>547.6</ele>
        <time>2021-08-09T08:14:26Z</time>
      </trkpt>
      <trkpt lat="47.8689" lon="7.05938">
        <ele>546.8</ele>
        <time>2021-08-09T08:14:27Z</time>
      </trkpt>
      <trkpt lat="47.86891" lon="7.05935">
        <ele>546.6</ele>
        <time>2021-08-09T08:14:29Z</time>
      </trkpt>
      <trkpt lat="47.86891" lon="7.05934">
        <ele>546.5</ele>
        <time>2021-08-09T08:14:30Z</time>
      </trkpt>
      <trkpt lat="47.8689" lon="7.05923">
        <ele>545.8</ele>
        <time>2021-08-09T08:14:31Z</time>
      </trkpt>
      <trkpt lat="47.86889" lon="7.05916">
        <ele>545.3</ele>
        <time>2021-08-09T08:14:32Z</time>
      </trkpt>
      <trkpt lat="47.86884" lon="7.05887">
        <ele>543.4</ele>
        <time>2021-08-09T08:14:34Z</time>
      </trkpt>
      <trkpt lat="47.8662" lon="7.05977">
        <ele>511.2</ele>
        <time>2021-08-09T08:15:19Z</time>
      </trkpt>
      <trkpt lat="47.86624" lon="7.06">
        <ele>512.1</ele>
        <time>2021-08-09T08:15:21Z</time>
      </trkpt>
      <trkpt lat="47.86626" lon="7.0601">
        <ele>512.5</ele>
        <time>2021-08-09T08:15:22Z</time>
      </trkpt>
      <trkpt lat="47.86627" lon="7.06019">
        <ele>512.9</ele>
        <time>2021-08-09T08:15:23Z</time>
      </trkpt>
      <trkpt lat="47.86629" lon="7.06027">
        <ele>513.3</ele>
        <time>2021-08-09T08:15:24Z</time>
      </trkpt>
      <trkpt lat="47.86633" lon="7.06043">
        <ele>514.1</ele>
        <time>2021-08-09T08:15:26Z</time>
      </trkpt>
      <trkpt lat="47.86636" lon="7.06059">
        <ele>514.7</ele>
        <time>2021-08-09T08:15:28Z</time>
      </trkpt>
      <trkpt lat="47.86633" lon="7.06075">
        <ele>515.2</ele>
        <time>2021-08-09T08:15:30Z</time>
      </trkpt>
      <trkpt lat="47.8663" lon="7.06088">
        <ele>515.8</ele>
        <time>2021-08-09T08:15:32Z</time>
      </trkpt>
      <trkpt lat="47.86628" lon="7.06094">
        <ele>516.1</ele>
        <time>2021-08-09T08:15:33Z</time>
      </trkpt>
      <trkpt lat="47.86624" lon="7.06101">
        <ele>516.5</ele>
        <time>2021-08-09T08:15:35Z</time>
      </trkpt>
      <trkpt lat="47.86622" lon="7.06105">
        <ele>516.8</ele>
        <time>2021-08-09T08:15:36Z</time>
      </trkpt>
      <trkpt lat="47.86618" lon="7.06113">
        <ele>516.8</ele>
        <time>2021-08-09T08:15:38Z</time>
      </trkpt>
      <trkpt lat="47.86616" lon="7.06116">
        <ele>516</ele>
        <time>2021-08-09T08:15:39Z</time>
      </trkpt>
      <trkpt lat="47.86612" lon="7.06115">
        <ele>515.4</ele>
        <time>2021-08-09T08:15:40Z</time>
      </trkpt>
      <trkpt lat="47.8661" lon="7.06118">
        <ele>514.8</ele>
        <time>2021-08-09T08:15:42Z</time>
      </trkpt>
      <trkpt lat="47.86606" lon="7.06117">
        <ele>514</ele>
        <time>2021-08-09T08:15:43Z</time>
      </trkpt>
      <trkpt lat="47.86598" lon="7.06114">
        <ele>512.1</ele>
        <time>2021-08-09T08:15:44Z</time>
      </trkpt>
      <trkpt lat="47.86593" lon="7.06112">
        <ele>511</ele>
        <time>2021-08-09T08:15:45Z</time>
      </trkpt>
      <trkpt lat="47.86585" lon="7.0611">
        <ele>509.1</ele>
        <time>2021-08-09T08:15:47Z</time>
      </trkpt>
      <trkpt lat="47.86582" lon="7.06106">
        <ele>508.1</ele>
        <time>2021-08-09T08:15:48Z</time>
      </trkpt>
      <trkpt lat="47.86577" lon="7.061">
        <ele>506.7</ele>
        <time>2021-08-09T08:15:50Z</time>
      </trkpt>
      <trkpt lat="47.86573" lon="7.06087">
        <ele>504.8</ele>
        <time>2021-08-09T08:15:51Z</time>
      </trkpt>
      <trkpt lat="47.86569" lon="7.06081">
        <ele>503.7</ele>
        <time>2021-08-09T08:15:52Z</time>
      </trkpt>
      <trkpt lat="47.86562" lon="7.06071">
        <ele>501.8</ele>
        <time>2021-08-09T08:15:54Z</time>
      </trkpt>
      <trkpt lat="47.86557" lon="7.0606">
        <ele>500</ele>
        <time>2021-08-09T08:15:56Z</time>
      </trkpt>
      <trkpt lat="47.86551" lon="7.06046">
        <ele>497.6</ele>
        <time>2021-08-09T08:15:58Z</time>
      </trkpt>
      <trkpt lat="47.86545" lon="7.06032">
        <ele>494.9</ele>
        <time>2021-08-09T08:16:00Z</time>
      </trkpt>
      <trkpt lat="47.86541" lon="7.06025">
        <ele>493.5</ele>
        <time>2021-08-09T08:16:01Z</time>
      </trkpt>
      <trkpt lat="47.86539" lon="7.0602">
        <ele>492.5</ele>
        <time>2021-08-09T08:16:02Z</time>
      </trkpt>
      <trkpt lat="47.86531" lon="7.06007">
        <ele>490</ele>
        <time>2021-08-09T08:16:04Z</time>
      </trkpt>
      <trkpt lat="47.86528" lon="7.06">
        <ele>489</ele>
        <time>2021-08-09T08:16:05Z</time>
      </trkpt>
      <trkpt lat="47.86524" lon="7.05988">
        <ele>487.2</ele>
        <time>2021-08-09T08:16:07Z</time>
      </trkpt>
      <trkpt lat="47.86524" lon="7.05987">
        <ele>487.2</ele>
        <time>2021-08-09T08:16:08Z</time>
      </trkpt>
      <trkpt lat="47.86523" lon="7.05985">
        <ele>486.9</ele>
        <time>2021-08-09T08:16:09Z</time>
      </trkpt>
      <trkpt lat="47.86521" lon="7.05974">
        <ele>485.4</ele>
        <time>2021-08-09T08:16:11Z</time>
      </trkpt>
      <trkpt lat="47.86518" lon="7.05965">
        <ele>484.2</ele>
        <time>2021-08-09T08:16:12Z</time>
      </trkpt>
      <trkpt lat="47.86514" lon="7.05959">
        <ele>483.4</ele>
        <time>2021-08-09T08:16:13Z</time>
      </trkpt>
      <trkpt lat="47.86512" lon="7.05956">
        <ele>482.8</ele>
        <time>2021-08-09T08:16:15Z</time>
      </trkpt>
      <trkpt lat="47.86509" lon="7.05951">
        <ele>482.1</ele>
        <time>2021-08-09T08:16:16Z</time>
      </trkpt>
      <trkpt lat="47.86506" lon="7.05948">
        <ele>481.6</ele>
        <time>2021-08-09T08:16:18Z</time>
      </trkpt>
      <trkpt lat="47.86504" lon="7.05946">
        <ele>481.1</ele>
        <time>2021-08-09T08:16:19Z</time>
      </trkpt>
      <trkpt lat="47.86501" lon="7.05943">
        <ele>480.6</ele>
        <time>2021-08-09T08:16:20Z</time>
      </trkpt>
      <trkpt lat="47.86501" lon="7.05942">
        <ele>480.5</ele>
        <time>2021-08-09T08:16:21Z</time>
      </trkpt>
      <trkpt lat="47.86499" lon="7.05939">
        <ele>480.1</ele>
        <time>2021-08-09T08:16:23Z</time>
      </trkpt>
      <trkpt lat="47.86496" lon="7.05934">
        <ele>479.4</ele>
        <time>2021-08-09T08:16:24Z</time>
      </trkpt>
      <trkpt lat="47.86495" lon="7.0593">
        <ele>479</ele>
        <time>2021-08-09T08:16:26Z</time>
      </trkpt>
      <trkpt lat="47.86494" lon="7.05927">
        <ele>478.7</ele>
        <time>2021-08-09T08:16:27Z</time>
      </trkpt>
      <trkpt lat="47.86494" lon="7.05928">
        <ele>478.7</ele>
        <time>2021-08-09T08:16:28Z</time>
      </trkpt>
      <trkpt lat="47.86494" lon="7.05926">
        <ele>478.6</ele>
        <time>2021-08-09T08:16:30Z</time>
      </trkpt>
      <trkpt lat="47.86494" lon="7.05926">
        <ele>478.5</ele>
        <time>2021-08-09T08:16:31Z</time>
      </trkpt>
      <trkpt lat="47.86493" lon="7.05923">
        <ele>478.1</ele>
        <time>2021-08-09T08:16:33Z</time>
      </trkpt>
      <trkpt lat="47.86492" lon="7.05921">
        <ele>477.9</ele>
        <time>2021-08-09T08:16:34Z</time>
      </trkpt>
      <trkpt lat="47.86491" lon="7.05919">
        <ele>477.7</ele>
        <time>2021-08-09T08:16:35Z</time>
      </trkpt>
      <trkpt lat="47.8649" lon="7.05919">
        <ele>477.6</ele>
        <time>2021-08-09T08:16:36Z</time>
      </trkpt>
      <trkpt lat="47.8649" lon="7.05919">
        <ele>477.5</ele>
        <time>2021-08-09T08:16:37Z</time>
      </trkpt>
      <trkpt lat="47.86489" lon="7.05919">
        <ele>477.4</ele>
        <time>2021-08-09T08:16:39Z</time>
      </trkpt>
      <trkpt lat="47.86488" lon="7.05919">
        <ele>477.3</ele>
        <time>2021-08-09T08:16:40Z</time>
      </trkpt>
      <trkpt lat="47.86488" lon="7.05918">
        <ele>477.2</ele>
        <time>2021-08-09T08:16:41Z</time>
      </trkpt>
      <trkpt lat="47.86487" lon="7.05917">
        <ele>477</ele>
        <time>2021-08-09T08:16:42Z</time>
      </trkpt>
      <trkpt lat="47.86487" lon="7.05916">
        <ele>476.9</ele>
        <time>2021-08-09T08:16:44Z</time>
      </trkpt>
      <trkpt lat="47.86485" lon="7.05867">
        <ele>470.6</ele>
        <time>2021-08-09T08:17:35Z</time>
      </trkpt>
      <trkpt lat="47.86487" lon="7.05859">
        <ele>469.5</ele>
        <time>2021-08-09T08:17:37Z</time>
      </trkpt>
      <trkpt lat="47.86485" lon="7.05846">
        <ele>467.5</ele>
        <time>2021-08-09T08:17:38Z</time>
      </trkpt>
      <trkpt lat="47.8648" lon="7.05832">
        <ele>465.1</ele>
        <time>2021-08-09T08:17:39Z</time>
      </trkpt>
      <trkpt lat="47.8647" lon="7.05812">
        <ele>461.4</ele>
        <time>2021-08-09T08:17:41Z</time>
      </trkpt>
      <trkpt lat="47.86459" lon="7.0579">
        <ele>457.5</ele>
        <time>2021-08-09T08:17:42Z</time>
      </trkpt>
      <trkpt lat="47.86458" lon="7.05781">
        <ele>455.7</ele>
        <time>2021-08-09T08:17:43Z</time>
      </trkpt>
      <trkpt lat="47.86457" lon="7.05773">
        <ele>454.2</ele>
        <time>2021-08-09T08:17:44Z</time>
      </trkpt>
      <trkpt lat="47.86456" lon="7.05755">
        <ele>451.2</ele>
        <time>2021-08-09T08:17:46Z</time>
      </trkpt>
      <trkpt lat="47.86455" lon="7.05744">
        <ele>449.6</ele>
        <time>2021-08-09T08:17:47Z</time>
      </trkpt>
      <trkpt lat="47.86454" lon="7.05734">
        <ele>448.1</ele>
        <time>2021-08-09T08:17:48Z</time>
      </trkpt>
      <trkpt lat="47.86451" lon="7.05713">
        <ele>445.1</ele>
        <time>2021-08-09T08:17:50Z</time>
      </trkpt>
      <trkpt lat="47.86451" lon="7.0569">
        <ele>442.2</ele>
        <time>2021-08-09T08:17:52Z</time>
      </trkpt>
      <trkpt lat="47.86449" lon="7.05668">
        <ele>439.3</ele>
        <time>2021-08-09T08:17:54Z</time>
      </trkpt>
      <trkpt lat="47.86444" lon="7.05643">
        <ele>436</ele>
        <time>2021-08-09T08:17:56Z</time>
      </trkpt>
      <trkpt lat="47.86437" lon="7.05623">
        <ele>433.3</ele>
        <time>2021-08-09T08:17:58Z</time>
      </trkpt>
      <trkpt lat="47.86426" lon="7.05607">
        <ele>430.5</ele>
        <time>2021-08-09T08:18:00Z</time>
      </trkpt>
      <trkpt lat="47.86418" lon="7.05601">
        <ele>429</ele>
        <time>2021-08-09T08:18:01Z</time>
      </trkpt>
      <trkpt lat="47.86412" lon="7.05596">
        <ele>428.2</ele>
        <time>2021-08-09T08:18:02Z</time>
      </trkpt>
      <trkpt lat="47.86403" lon="7.05584">
        <ele>427.5</ele>
        <time>2021-08-09T08:18:04Z</time>
      </trkpt>
      <trkpt lat="47.86398" lon="7.05578">
        <ele>426.9</ele>
        <time>2021-08-09T08:18:05Z</time>
      </trkpt>
      <trkpt lat="47.86388" lon="7.05567">
        <ele>425.8</ele>
        <time>2021-08-09T08:18:07Z</time>
      </trkpt>
      <trkpt lat="47.86375" lon="7.0556">
        <ele>424.5</ele>
        <time>2021-08-09T08:18:09Z</time>
      </trkpt>
      <trkpt lat="47.86363" lon="7.05558">
        <ele>423.3</ele>
        <time>2021-08-09T08:18:11Z</time>
      </trkpt>
      <trkpt lat="47.86358" lon="7.05557">
        <ele>422.8</ele>
        <time>2021-08-09T08:18:12Z</time>
      </trkpt>
      <trkpt lat="47.8635" lon="7.05552">
        <ele>421.7</ele>
        <time>2021-08-09T08:18:14Z</time>
      </trkpt>
      <trkpt lat="47.86343" lon="7.05542">
        <ele>420.3</ele>
        <time>2021-08-09T08:18:16Z</time>
      </trkpt>
      <trkpt lat="47.8634" lon="7.0553">
        <ele>418.9</ele>
        <time>2021-08-09T08:18:18Z</time>
      </trkpt>
      <trkpt lat="47.86336" lon="7.05521">
        <ele>417.8</ele>
        <time>2021-08-09T08:18:20Z</time>
      </trkpt>
      <trkpt lat="47.86336" lon="7.05514">
        <ele>417</ele>
        <time>2021-08-09T08:18:22Z</time>
      </trkpt>
      <trkpt lat="47.86336" lon="7.05507">
        <ele>414.6</ele>
        <time>2021-08-09T08:18:24Z</time>
      </trkpt>
      <trkpt lat="47.86338" lon="7.05503">
        <ele>414.4</ele>
        <time>2021-08-09T08:18:25Z</time>
      </trkpt>
      <trkpt lat="47.86334" lon="7.05499">
        <ele>414</ele>
        <time>2021-08-09T08:18:26Z</time>
      </trkpt>
      <trkpt lat="47.86327" lon="7.05495">
        <ele>413.4</ele>
        <time>2021-08-09T08:18:28Z</time>
      </trkpt>
      <trkpt lat="47.86321" lon="7.05491">
        <ele>412.9</ele>
        <time>2021-08-09T08:18:29Z</time>
      </trkpt>
      <trkpt lat="47.86308" lon="7.05482">
        <ele>411.9</ele>
        <time>2021-08-09T08:18:31Z</time>
      </trkpt>
      <trkpt lat="47.86302" lon="7.05478">
        <ele>411.4</ele>
        <time>2021-08-09T08:18:32Z</time>
      </trkpt>
      <trkpt lat="47.86296" lon="7.05474">
        <ele>411</ele>
        <time>2021-08-09T08:18:33Z</time>
      </trkpt>
      <trkpt lat="47.86285" lon="7.05466">
        <ele>410.2</ele>
        <time>2021-08-09T08:18:35Z</time>
      </trkpt>
      <trkpt lat="47.86272" lon="7.0546">
        <ele>409.4</ele>
        <time>2021-08-09T08:18:37Z</time>
      </trkpt>
      <trkpt lat="47.86265" lon="7.05457">
        <ele>409</ele>
        <time>2021-08-09T08:18:38Z</time>
      </trkpt>
      <trkpt lat="47.8625" lon="7.05451">
        <ele>408.3</ele>
        <time>2021-08-09T08:18:40Z</time>
      </trkpt>
      <trkpt lat="47.86243" lon="7.05447">
        <ele>407.9</ele>
        <time>2021-08-09T08:18:41Z</time>
      </trkpt>
      <trkpt lat="47.86229" lon="7.05441">
        <ele>407.3</ele>
        <time>2021-08-09T08:18:43Z</time>
      </trkpt>
      <trkpt lat="47.86222" lon="7.05437">
        <ele>407.1</ele>
        <time>2021-08-09T08:18:44Z</time>
      </trkpt>
      <trkpt lat="47.86216" lon="7.05434">
        <ele>406.9</ele>
        <time>2021-08-09T08:18:45Z</time>
      </trkpt>
      <trkpt lat="47.86205" lon="7.05428">
        <ele>406.5</ele>
        <time>2021-08-09T08:18:47Z</time>
      </trkpt>
      <trkpt lat="47.862" lon="7.05423">
        <ele>406.5</ele>
        <time>2021-08-09T08:18:48Z</time>
      </trkpt>
      <trkpt lat="47.86192" lon="7.0541">
        <ele>406.3</ele>
        <time>2021-08-09T08:18:50Z</time>
      </trkpt>
      <trkpt lat="47.86187" lon="7.05395">
        <ele>406.1</ele>
        <time>2021-08-09T08:18:52Z</time>
      </trkpt>
      <trkpt lat="47.86183" lon="7.05377">
        <ele>405.8</ele>
        <time>2021-08-09T08:18:54Z</time>
      </trkpt>
      <trkpt lat="47.86187" lon="7.05354">
        <ele>405.5</ele>
        <time>2021-08-09T08:18:56Z</time>
      </trkpt>
      <trkpt lat="47.8619" lon="7.0533">
        <ele>404.8</ele>
        <time>2021-08-09T08:18:58Z</time>
      </trkpt>
      <trkpt lat="47.86189" lon="7.05318">
        <ele>404.4</ele>
        <time>2021-08-09T08:18:59Z</time>
      </trkpt>
      <trkpt lat="47.86187" lon="7.05306">
        <ele>404</ele>
        <time>2021-08-09T08:19:00Z</time>
      </trkpt>
      <trkpt lat="47.86183" lon="7.05281">
        <ele>403.1</ele>
        <time>2021-08-09T08:19:02Z</time>
      </trkpt>
      <trkpt lat="47.8618" lon="7.05258">
        <ele>402.3</ele>
        <time>2021-08-09T08:19:04Z</time>
      </trkpt>
      <trkpt lat="47.86179" lon="7.05247">
        <ele>401.8</ele>
        <time>2021-08-09T08:19:05Z</time>
      </trkpt>
      <trkpt lat="47.86178" lon="7.05237">
        <ele>401.4</ele>
        <time>2021-08-09T08:19:06Z</time>
      </trkpt>
      <trkpt lat="47.86176" lon="7.05215">
        <ele>400.6</ele>
        <time>2021-08-09T08:19:08Z</time>
      </trkpt>
      <trkpt lat="47.86174" lon="7.05205">
        <ele>400.2</ele>
        <time>2021-08-09T08:19:09Z</time>
      </trkpt>
      <trkpt lat="47.86167" lon="7.05185">
        <ele>399.5</ele>
        <time>2021-08-09T08:19:11Z</time>
      </trkpt>
      <trkpt lat="47.8616" lon="7.05165">
        <ele>399</ele>
        <time>2021-08-09T08:19:13Z</time>
      </trkpt>
      <trkpt lat="47.86156" lon="7.05155">
        <ele>398.8</ele>
        <time>2021-08-09T08:19:14Z</time>
      </trkpt>
      <trkpt lat="47.86153" lon="7.05145">
        <ele>398.6</ele>
        <time>2021-08-09T08:19:15Z</time>
      </trkpt>
      <trkpt lat="47.86149" lon="7.05134">
        <ele>398.4</ele>
        <time>2021-08-09T08:19:16Z</time>
      </trkpt>
      <trkpt lat="47.86146" lon="7.05124">
        <ele>398.2</ele>
        <time>2021-08-09T08:19:17Z</time>
      </trkpt>
      <trkpt lat="47.86143" lon="7.05115">
        <ele>398</ele>
        <time>2021-08-09T08:19:18Z</time>
      </trkpt>
      <trkpt lat="47.86137" lon="7.05099">
        <ele>397.7</ele>
        <time>2021-08-09T08:19:20Z</time>
      </trkpt>
      <trkpt lat="47.86133" lon="7.05091">
        <ele>397.6</ele>
        <time>2021-08-09T08:19:21Z</time>
      </trkpt>
      <trkpt lat="47.86129" lon="7.05084">
        <ele>397.4</ele>
        <time>2021-08-09T08:19:22Z</time>
      </trkpt>
      <trkpt lat="47.86125" lon="7.05076">
        <ele>397.3</ele>
        <time>2021-08-09T08:19:23Z</time>
      </trkpt>
      <trkpt lat="47.86122" lon="7.05067">
        <ele>397.1</ele>
        <time>2021-08-09T08:19:24Z</time>
      </trkpt>
      <trkpt lat="47.86113" lon="7.05053">
        <ele>396.8</ele>
        <time>2021-08-09T08:19:26Z</time>
      </trkpt>
      <trkpt lat="47.86108" lon="7.05038">
        <ele>396.8</ele>
        <time>2021-08-09T08:19:28Z</time>
      </trkpt>
      <trkpt lat="47.86106" lon="7.0503">
        <ele>396.6</ele>
        <time>2021-08-09T08:19:29Z</time>
      </trkpt>
      <trkpt lat="47.86103" lon="7.05023">
        <ele>396.3</ele>
        <time>2021-08-09T08:19:30Z</time>
      </trkpt>
      <trkpt lat="47.86099" lon="7.05008">
        <ele>395.8</ele>
        <time>2021-08-09T08:19:32Z</time>
      </trkpt>
      <trkpt lat="47.86094" lon="7.04995">
        <ele>395.3</ele>
        <time>2021-08-09T08:19:34Z</time>
      </trkpt>
      <trkpt lat="47.8609" lon="7.04988">
        <ele>395.1</ele>
        <time>2021-08-09T08:19:35Z</time>
      </trkpt>
      <trkpt lat="47.86086" lon="7.04983">
        <ele>394.8</ele>
        <time>2021-08-09T08:19:36Z</time>
      </trkpt>
      <trkpt lat="47.86079" lon="7.04968">
        <ele>394.3</ele>
        <time>2021-08-09T08:19:38Z</time>
      </trkpt>
      <trkpt lat="47.86071" lon="7.04953">
        <ele>393.9</ele>
        <time>2021-08-09T08:19:40Z</time>
      </trkpt>
      <trkpt lat="47.86067" lon="7.04945">
        <ele>393.7</ele>
        <time>2021-08-09T08:19:41Z</time>
      </trkpt>
      <trkpt lat="47.86064" lon="7.04939">
        <ele>393.5</ele>
        <time>2021-08-09T08:19:42Z</time>
      </trkpt>
      <trkpt lat="47.86061" lon="7.04933">
        <ele>393.4</ele>
        <time>2021-08-09T08:19:43Z</time>
      </trkpt>
      <trkpt lat="47.86059" lon="7.04929">
        <ele>393.3</ele>
        <time>2021-08-09T08:19:44Z</time>
      </trkpt>
      <trkpt lat="47.86056" lon="7.04924">
        <ele>393.2</ele>
        <time>2021-08-09T08:19:46Z</time>
      </trkpt>
      <trkpt lat="47.86054" lon="7.04925">
        <ele>393.2</ele>
        <time>2021-08-09T08:19:47Z</time>
      </trkpt>
      <trkpt lat="47.86053" lon="7.04926">
        <ele>393.2</ele>
        <time>2021-08-09T08:19:49Z</time>
      </trkpt>
      <trkpt lat="47.86052" lon="7.04927">
        <ele>393.1</ele>
        <time>2021-08-09T08:19:51Z</time>
      </trkpt>
      <trkpt lat="47.8605" lon="7.04928">
        <ele>393.1</ele>
        <time>2021-08-09T08:19:53Z</time>
      </trkpt>
      <trkpt lat="47.86049" lon="7.04929">
        <ele>393.1</ele>
        <time>2021-08-09T08:19:54Z</time>
      </trkpt>
      <trkpt lat="47.86048" lon="7.04931">
        <ele>392.8</ele>
        <time>2021-08-09T08:19:56Z</time>
      </trkpt>
      <trkpt lat="47.86047" lon="7.04932">
        <ele>392.8</ele>
        <time>2021-08-09T08:20:23Z</time>
      </trkpt>
      <trkpt lat="47.86045" lon="7.04933">
        <ele>392.8</ele>
        <time>2021-08-09T08:20:24Z</time>
      </trkpt>
      <trkpt lat="47.8604" lon="7.04931">
        <ele>392.7</ele>
        <time>2021-08-09T08:20:25Z</time>
      </trkpt>
      <trkpt lat="47.86031" lon="7.04932">
        <ele>392.7</ele>
        <time>2021-08-09T08:20:27Z</time>
      </trkpt>
      <trkpt lat="47.86025" lon="7.04934">
        <ele>392.6</ele>
        <time>2021-08-09T08:20:28Z</time>
      </trkpt>
      <trkpt lat="47.86022" lon="7.04937">
        <ele>392.6</ele>
        <time>2021-08-09T08:20:29Z</time>
      </trkpt>
      <trkpt lat="47.86021" lon="7.04939">
        <ele>392.6</ele>
        <time>2021-08-09T08:20:30Z</time>
      </trkpt>
      <trkpt lat="47.86017" lon="7.04941">
        <ele>392.5</ele>
        <time>2021-08-09T08:20:32Z</time>
      </trkpt>
      <trkpt lat="47.86015" lon="7.0494">
        <ele>392.5</ele>
        <time>2021-08-09T08:20:33Z</time>
      </trkpt>
      <trkpt lat="47.86014" lon="7.0494">
        <ele>392.5</ele>
        <time>2021-08-09T08:20:34Z</time>
      </trkpt>
      <trkpt lat="47.86013" lon="7.04934">
        <ele>392.4</ele>
        <time>2021-08-09T08:20:36Z</time>
      </trkpt>
      <trkpt lat="47.86014" lon="7.04929">
        <ele>392.4</ele>
        <time>2021-08-09T08:20:37Z</time>
      </trkpt>
      <trkpt lat="47.86013" lon="7.04927">
        <ele>392.4</ele>
        <time>2021-08-09T08:20:38Z</time>
      </trkpt>
      <trkpt lat="47.86015" lon="7.04926">
        <ele>392.4</ele>
        <time>2021-08-09T08:20:40Z</time>
      </trkpt>
      <trkpt lat="47.86016" lon="7.04925">
        <ele>392.4</ele>
        <time>2021-08-09T08:20:41Z</time>
      </trkpt>
      <trkpt lat="47.86016" lon="7.04925">
        <ele>392.4</ele>
        <time>2021-08-09T08:20:42Z</time>
      </trkpt>
      <trkpt lat="47.86017" lon="7.04924">
        <ele>392.4</ele>
        <time>2021-08-09T08:20:43Z</time>
      </trkpt>
      <trkpt lat="47.86017" lon="7.04924">
        <ele>392.4</ele>
        <time>2021-08-09T08:20:45Z</time>
      </trkpt>
      <trkpt lat="47.86016" lon="7.04923">
        <ele>392.4</ele>
        <time>2021-08-09T08:20:46Z</time>
      </trkpt>
      <trkpt lat="47.86017" lon="7.04923">
        <ele>392.4</ele>
        <time>2021-08-09T08:20:47Z</time>
      </trkpt>
      <trkpt lat="47.86012" lon="7.04925">
        <ele>392.3</ele>
        <time>2021-08-09T08:20:56Z</time>
      </trkpt>
      <trkpt lat="47.86007" lon="7.04924">
        <ele>392.3</ele>
        <time>2021-08-09T08:20:58Z</time>
      </trkpt>
      <trkpt lat="47.86003" lon="7.04926">
        <ele>392.3</ele>
        <time>2021-08-09T08:20:59Z</time>
      </trkpt>
      <trkpt lat="47.86" lon="7.04927">
        <ele>392.2</ele>
        <time>2021-08-09T08:21:00Z</time>
      </trkpt>
      <trkpt lat="47.86" lon="7.04929">
        <ele>392.2</ele>
        <time>2021-08-09T08:21:01Z</time>
      </trkpt>
      <trkpt lat="47.86001" lon="7.0493">
        <ele>392.2</ele>
        <time>2021-08-09T08:21:03Z</time>
      </trkpt>
      <trkpt lat="47.86002" lon="7.04931">
        <ele>392.2</ele>
        <time>2021-08-09T08:21:04Z</time>
      </trkpt>
      <trkpt lat="47.86002" lon="7.0493">
        <ele>392.2</ele>
        <time>2021-08-09T08:21:05Z</time>
      </trkpt>
      <trkpt lat="47.86004" lon="7.0493">
        <ele>392.2</ele>
        <time>2021-08-09T08:21:06Z</time>
      </trkpt>
      <trkpt lat="47.86005" lon="7.0493">
        <ele>392.2</ele>
        <time>2021-08-09T08:21:08Z</time>
      </trkpt>
      <trkpt lat="47.86004" lon="7.04932">
        <ele>392.2</ele>
        <time>2021-08-09T08:21:09Z</time>
      </trkpt>
      <trkpt lat="47.86005" lon="7.04933">
        <ele>392.2</ele>
        <time>2021-08-09T08:21:10Z</time>
      </trkpt>
      <trkpt lat="47.86004" lon="7.04934">
        <ele>392.2</ele>
        <time>2021-08-09T08:21:11Z</time>
      </trkpt>
      <trkpt lat="47.86003" lon="7.04936">
        <ele>392.1</ele>
        <time>2021-08-09T08:21:12Z</time>
      </trkpt>
      <trkpt lat="47.86001" lon="7.04939">
        <ele>392.1</ele>
        <time>2021-08-09T08:21:14Z</time>
      </trkpt>
      <trkpt lat="47.85997" lon="7.0494">
        <ele>392.1</ele>
        <time>2021-08-09T08:21:15Z</time>
      </trkpt>
      <trkpt lat="47.85994" lon="7.04942">
        <ele>392.1</ele>
        <time>2021-08-09T08:21:16Z</time>
      </trkpt>
      <trkpt lat="47.85992" lon="7.04945">
        <ele>392.1</ele>
        <time>2021-08-09T08:21:17Z</time>
      </trkpt>
      <trkpt lat="47.85988" lon="7.04952">
        <ele>392</ele>
        <time>2021-08-09T08:21:19Z</time>
      </trkpt>
      <trkpt lat="47.85985" lon="7.04957">
        <ele>392</ele>
        <time>2021-08-09T08:21:20Z</time>
      </trkpt>
      <trkpt lat="47.85982" lon="7.04962">
        <ele>392</ele>
        <time>2021-08-09T08:21:21Z</time>
      </trkpt>
      <trkpt lat="47.85976" lon="7.04968">
        <ele>391.9</ele>
        <time>2021-08-09T08:21:23Z</time>
      </trkpt>
      <trkpt lat="47.85972" lon="7.04972">
        <ele>391.9</ele>
        <time>2021-08-09T08:21:24Z</time>
      </trkpt>
      <trkpt lat="47.85965" lon="7.0498">
        <ele>391.9</ele>
        <time>2021-08-09T08:21:26Z</time>
      </trkpt>
      <trkpt lat="47.85962" lon="7.04986">
        <ele>391.9</ele>
        <time>2021-08-09T08:21:27Z</time>
      </trkpt>
      <trkpt lat="47.85959" lon="7.04994">
        <ele>391.8</ele>
        <time>2021-08-09T08:21:29Z</time>
      </trkpt>
      <trkpt lat="47.85957" lon="7.04996">
        <ele>391.9</ele>
        <time>2021-08-09T08:21:30Z</time>
      </trkpt>
      <trkpt lat="47.85956" lon="7.04998">
        <ele>391.9</ele>
        <time>2021-08-09T08:21:32Z</time>
      </trkpt>
      <trkpt lat="47.85957" lon="7.04997">
        <ele>391.9</ele>
        <time>2021-08-09T08:21:33Z</time>
      </trkpt>
      <trkpt lat="47.85957" lon="7.04994">
        <ele>391.9</ele>
        <time>2021-08-09T08:21:34Z</time>
      </trkpt>
      <trkpt lat="47.85958" lon="7.04992">
        <ele>391.9</ele>
        <time>2021-08-09T08:21:35Z</time>
      </trkpt>
      <trkpt lat="47.85958" lon="7.04991">
        <ele>391.9</ele>
        <time>2021-08-09T08:21:36Z</time>
      </trkpt>
      <trkpt lat="47.85958" lon="7.04989">
        <ele>391.9</ele>
        <time>2021-08-09T08:21:38Z</time>
      </trkpt>
      <trkpt lat="47.85958" lon="7.04989">
        <ele>391.9</ele>
        <time>2021-08-09T08:21:39Z</time>
      </trkpt>
      <trkpt lat="47.85958" lon="7.04988">
        <ele>391.9</ele>
        <time>2021-08-09T08:21:40Z</time>
      </trkpt>
      <trkpt lat="47.85973" lon="7.04976">
        <ele>392</ele>
        <time>2021-08-09T08:22:30Z</time>
      </trkpt>
      <trkpt lat="47.85982" lon="7.04974">
        <ele>392</ele>
        <time>2021-08-09T08:22:32Z</time>
      </trkpt>
      <trkpt lat="47.85988" lon="7.04971">
        <ele>392.1</ele>
        <time>2021-08-09T08:22:33Z</time>
      </trkpt>
      <trkpt lat="47.85993" lon="7.04968">
        <ele>392.1</ele>
        <time>2021-08-09T08:22:35Z</time>
      </trkpt>
      <trkpt lat="47.85998" lon="7.04963">
        <ele>392.2</ele>
        <time>2021-08-09T08:22:36Z</time>
      </trkpt>
      <trkpt lat="47.86004" lon="7.04959">
        <ele>392.3</ele>
        <time>2021-08-09T08:22:37Z</time>
      </trkpt>
      <trkpt lat="47.86008" lon="7.04956">
        <ele>392.3</ele>
        <time>2021-08-09T08:22:38Z</time>
      </trkpt>
      <trkpt lat="47.86012" lon="7.04954">
        <ele>392.4</ele>
        <time>2021-08-09T08:22:40Z</time>
      </trkpt>
      <trkpt lat="47.86017" lon="7.0495">
        <ele>392.4</ele>
        <time>2021-08-09T08:22:41Z</time>
      </trkpt>
      <trkpt lat="47.86021" lon="7.04945">
        <ele>392.5</ele>
        <time>2021-08-09T08:22:42Z</time>
      </trkpt>
      <trkpt lat="47.86024" lon="7.04941">
        <ele>392.5</ele>
        <time>2021-08-09T08:22:43Z</time>
      </trkpt>
      <trkpt lat="47.86028" lon="7.04936">
        <ele>392.6</ele>
        <time>2021-08-09T08:22:45Z</time>
      </trkpt>
      <trkpt lat="47.8603" lon="7.04932">
        <ele>392.6</ele>
        <time>2021-08-09T08:22:46Z</time>
      </trkpt>
      <trkpt lat="47.86035" lon="7.04927">
        <ele>392.7</ele>
        <time>2021-08-09T08:22:48Z</time>
      </trkpt>
      <trkpt lat="47.86039" lon="7.04922">
        <ele>392.8</ele>
        <time>2021-08-09T08:22:49Z</time>
      </trkpt>
      <trkpt lat="47.86041" lon="7.04918">
        <ele>392.8</ele>
        <time>2021-08-09T08:22:50Z</time>
      </trkpt>
      <trkpt lat="47.86044" lon="7.04913">
        <ele>392.9</ele>
        <time>2021-08-09T08:22:52Z</time>
      </trkpt>
      <trkpt lat="47.86048" lon="7.04906">
        <ele>392.9</ele>
        <time>2021-08-09T08:22:54Z</time>
      </trkpt>
      <trkpt lat="47.86051" lon="7.04901">
        <ele>393</ele>
        <time>2021-08-09T08:22:55Z</time>
      </trkpt>
      <trkpt lat="47.86053" lon="7.04898">
        <ele>393</ele>
        <time>2021-08-09T08:22:56Z</time>
      </trkpt>
      <trkpt lat="47.86057" lon="7.04894">
        <ele>393</ele>
        <time>2021-08-09T08:22:58Z</time>
      </trkpt>
      <trkpt lat="47.86059" lon="7.04891">
        <ele>393.1</ele>
        <time>2021-08-09T08:22:59Z</time>
      </trkpt>
      <trkpt lat="47.8606" lon="7.0489">
        <ele>393.1</ele>
        <time>2021-08-09T08:23:00Z</time>
      </trkpt>
      <trkpt lat="47.86063" lon="7.04885">
        <ele>393.1</ele>
        <time>2021-08-09T08:23:02Z</time>
      </trkpt>
      <trkpt lat="47.86067" lon="7.04882">
        <ele>393.1</ele>
        <time>2021-08-09T08:23:03Z</time>
      </trkpt>
      <trkpt lat="47.86069" lon="7.04881">
        <ele>393.2</ele>
        <time>2021-08-09T08:23:04Z</time>
      </trkpt>
      <trkpt lat="47.86071" lon="7.04879">
        <ele>393.2</ele>
        <time>2021-08-09T08:23:05Z</time>
      </trkpt>
      <trkpt lat="47.86074" lon="7.04877">
        <ele>393.2</ele>
        <time>2021-08-09T08:23:07Z</time>
      </trkpt>
      <trkpt lat="47.86075" lon="7.04876">
        <ele>393.2</ele>
        <time>2021-08-09T08:23:08Z</time>
      </trkpt>
      <trkpt lat="47.86076" lon="7.04874">
        <ele>393.2</ele>
        <time>2021-08-09T08:23:10Z</time>
      </trkpt>
      <trkpt lat="47.86076" lon="7.04874">
        <ele>393.2</ele>
        <time>2021-08-09T08:23:11Z</time>
      </trkpt>
      <trkpt lat="47.86075" lon="7.04874">
        <ele>393.2</ele>
        <time>2021-08-09T08:23:12Z</time>
      </trkpt>
      <trkpt lat="47.86075" lon="7.04874">
        <ele>393.2</ele>
        <time>2021-08-09T08:23:14Z</time>
      </trkpt>
      <trkpt lat="47.86075" lon="7.04874">
        <ele>393.2</ele>
        <time>2021-08-09T08:23:15Z</time>
      </trkpt>
      <trkpt lat="47.86075" lon="7.04874">
        <ele>393.2</ele>
        <time>2021-08-09T08:23:16Z</time>
      </trkpt>
      <trkpt lat="47.86075" lon="7.04874">
        <ele>393.2</ele>
        <time>2021-08-09T08:23:18Z</time>
      </trkpt>
      <trkpt lat="47.86076" lon="7.04873">
        <ele>393.2</ele>
        <time>2021-08-09T08:23:20Z</time>
      </trkpt>
      <trkpt lat="47.86069" lon="7.04884">
        <ele>393.2</ele>
        <time>2021-08-09T08:25:39Z</time>
      </trkpt>
      <trkpt lat="47.86068" lon="7.04884">
        <ele>393.2</ele>
        <time>2021-08-09T08:25:40Z</time>
      </trkpt>
      <trkpt lat="47.86067" lon="7.04885">
        <ele>393.2</ele>
        <time>2021-08-09T08:25:41Z</time>
      </trkpt>
      <trkpt lat="47.86067" lon="7.04886">
        <ele>393.2</ele>
        <time>2021-08-09T08:25:43Z</time>
      </trkpt>
      <trkpt lat="47.86067" lon="7.04885">
        <ele>393.2</ele>
        <time>2021-08-09T08:25:44Z</time>
      </trkpt>
      <trkpt lat="47.86068" lon="7.04885">
        <ele>393.2</ele>
        <time>2021-08-09T08:25:45Z</time>
      </trkpt>
      <trkpt lat="47.86068" lon="7.04885">
        <ele>393.2</ele>
        <time>2021-08-09T08:25:46Z</time>
      </trkpt>
      <trkpt lat="47.86068" lon="7.04886">
        <ele>393.1</ele>
        <time>2021-08-09T08:25:48Z</time>
      </trkpt>
      <trkpt lat="47.86069" lon="7.04886">
        <ele>393.1</ele>
        <time>2021-08-09T08:25:49Z</time>
      </trkpt>
      <trkpt lat="47.86069" lon="7.04887">
        <ele>393.1</ele>
        <time>2021-08-09T08:25:50Z</time>
      </trkpt>
      <trkpt lat="47.8607" lon="7.04889">
        <ele>393.1</ele>
        <time>2021-08-09T08:25:52Z</time>
      </trkpt>
      <trkpt lat="47.86072" lon="7.0489">
        <ele>393.1</ele>
        <time>2021-08-09T08:25:56Z</time>
      </trkpt>
      <trkpt lat="47.86071" lon="7.04889">
        <ele>393.1</ele>
        <time>2021-08-09T08:26:03Z</time>
      </trkpt>
      <trkpt lat="47.86071" lon="7.04889">
        <ele>393.1</ele>
        <time>2021-08-09T08:26:10Z</time>
      </trkpt>
      <trkpt lat="47.86071" lon="7.04888">
        <ele>393.1</ele>
        <time>2021-08-09T08:26:16Z</time>
      </trkpt>
      <trkpt lat="47.8607" lon="7.04888">
        <ele>393.1</ele>
        <time>2021-08-09T08:26:22Z</time>
      </trkpt>
      <trkpt lat="47.8607" lon="7.04887">
        <ele>393.1</ele>
        <time>2021-08-09T08:26:29Z</time>
      </trkpt>
      <trkpt lat="47.8607" lon="7.04887">
        <ele>393.1</ele>
        <time>2021-08-09T08:26:35Z</time>
      </trkpt>
      <trkpt lat="47.86069" lon="7.04886">
        <ele>393.1</ele>
        <time>2021-08-09T08:26:39Z</time>
      </trkpt>
      <trkpt lat="47.86069" lon="7.04885">
        <ele>393.1</ele>
        <time>2021-08-09T08:26:40Z</time>
      </trkpt>
      <trkpt lat="47.86069" lon="7.04885">
        <ele>393.1</ele>
        <time>2021-08-09T08:26:41Z</time>
      </trkpt>
      <trkpt lat="47.86064" lon="7.04884">
        <ele>393.1</ele>
        <time>2021-08-09T08:26:43Z</time>
      </trkpt>
      <trkpt lat="47.86062" lon="7.04883">
        <ele>393.1</ele>
        <time>2021-08-09T08:26:44Z</time>
      </trkpt>
      <trkpt lat="47.86062" lon="7.04882">
        <ele>393.1</ele>
        <time>2021-08-09T08:26:45Z</time>
      </trkpt>
      <trkpt lat="47.8606" lon="7.04883">
        <ele>393.1</ele>
        <time>2021-08-09T08:26:47Z</time>
      </trkpt>
      <trkpt lat="47.86058" lon="7.04885">
        <ele>393</ele>
        <time>2021-08-09T08:26:49Z</time>
      </trkpt>
      <trkpt lat="47.86056" lon="7.04886">
        <ele>393</ele>
        <time>2021-08-09T08:28:09Z</time>
      </trkpt>
      <trkpt lat="47.86054" lon="7.04888">
        <ele>393</ele>
        <time>2021-08-09T08:28:10Z</time>
      </trkpt>
      <trkpt lat="47.8605" lon="7.04891">
        <ele>393</ele>
        <time>2021-08-09T08:28:11Z</time>
      </trkpt>
      <trkpt lat="47.86043" lon="7.04904">
        <ele>392.9</ele>
        <time>2021-08-09T08:28:13Z</time>
      </trkpt>
      <trkpt lat="47.86038" lon="7.04908">
        <ele>392.2</ele>
        <time>2021-08-09T08:28:15Z</time>
      </trkpt>
      <trkpt lat="47.86035" lon="7.04907">
        <ele>391.5</ele>
        <time>2021-08-09T08:28:16Z</time>
      </trkpt>
      <trkpt lat="47.86028" lon="7.04905">
        <ele>390.4</ele>
        <time>2021-08-09T08:28:18Z</time>
      </trkpt>
      <trkpt lat="47.86016" lon="7.04884">
        <ele>388.7</ele>
        <time>2021-08-09T08:28:20Z</time>
      </trkpt>
      <trkpt lat="47.86007" lon="7.04871">
        <ele>387.4</ele>
        <time>2021-08-09T08:28:22Z</time>
      </trkpt>
      <trkpt lat="47.85998" lon="7.04859">
        <ele>386.2</ele>
        <time>2021-08-09T08:28:24Z</time>
      </trkpt>
      <trkpt lat="47.85991" lon="7.04845">
        <ele>386.1</ele>
        <time>2021-08-09T08:28:26Z</time>
      </trkpt>
      <trkpt lat="47.85989" lon="7.0483">
        <ele>386.1</ele>
        <time>2021-08-09T08:28:28Z</time>
      </trkpt>
      <trkpt lat="47.8599" lon="7.04823">
        <ele>386.1</ele>
        <time>2021-08-09T08:28:29Z</time>
      </trkpt>
      <trkpt lat="47.85991" lon="7.04812">
        <ele>386.1</ele>
        <time>2021-08-09T08:28:31Z</time>
      </trkpt>
      <trkpt lat="47.85987" lon="7.04806">
        <ele>386.1</ele>
        <time>2021-08-09T08:28:32Z</time>
      </trkpt>
      <trkpt lat="47.85982" lon="7.04796">
        <ele>386.1</ele>
        <time>2021-08-09T08:28:34Z</time>
      </trkpt>
      <trkpt lat="47.85976" lon="7.04791">
        <ele>386.1</ele>
        <time>2021-08-09T08:28:35Z</time>
      </trkpt>
      <trkpt lat="47.85971" lon="7.04786">
        <ele>386.1</ele>
        <time>2021-08-09T08:28:37Z</time>
      </trkpt>
      <trkpt lat="47.85965" lon="7.04782">
        <ele>386.1</ele>
        <time>2021-08-09T08:28:39Z</time>
      </trkpt>
      <trkpt lat="47.8596" lon="7.04779">
        <ele>386.2</ele>
        <time>2021-08-09T08:28:40Z</time>
      </trkpt>
      <trkpt lat="47.85957" lon="7.04777">
        <ele>386.3</ele>
        <time>2021-08-09T08:28:41Z</time>
      </trkpt>
      <trkpt lat="47.85952" lon="7.04773">
        <ele>386.3</ele>
        <time>2021-08-09T08:28:43Z</time>
      </trkpt>
      <trkpt lat="47.85947" lon="7.04768">
        <ele>386.4</ele>
        <time>2021-08-09T08:28:44Z</time>
      </trkpt>
      <trkpt lat="47.85942" lon="7.04762">
        <ele>386.5</ele>
        <time>2021-08-09T08:28:46Z</time>
      </trkpt>
      <trkpt lat="47.85938" lon="7.04757">
        <ele>386.6</ele>
        <time>2021-08-09T08:28:47Z</time>
      </trkpt>
      <trkpt lat="47.8593" lon="7.04754">
        <ele>386.7</ele>
        <time>2021-08-09T08:28:49Z</time>
      </trkpt>
      <trkpt lat="47.85923" lon="7.0475">
        <ele>386.8</ele>
        <time>2021-08-09T08:28:51Z</time>
      </trkpt>
      <trkpt lat="47.8592" lon="7.04748">
        <ele>386.8</ele>
        <time>2021-08-09T08:28:52Z</time>
      </trkpt>
      <trkpt lat="47.85915" lon="7.04751">
        <ele>386.8</ele>
        <time>2021-08-09T08:28:54Z</time>
      </trkpt>
      <trkpt lat="47.8591" lon="7.04756">
        <ele>386.8</ele>
        <time>2021-08-09T08:28:55Z</time>
      </trkpt>
      <trkpt lat="47.85906" lon="7.04761">
        <ele>386.8</ele>
        <time>2021-08-09T08:28:56Z</time>
      </trkpt>
      <trkpt lat="47.85898" lon="7.04769">
        <ele>386.9</ele>
        <time>2021-08-09T08:28:58Z</time>
      </trkpt>
      <trkpt lat="47.85894" lon="7.04773">
        <ele>387</ele>
        <time>2021-08-09T08:28:59Z</time>
      </trkpt>
      <trkpt lat="47.85892" lon="7.04774">
        <ele>387</ele>
        <time>2021-08-09T08:29:00Z</time>
      </trkpt>
      <trkpt lat="47.85887" lon="7.04774">
        <ele>387.1</ele>
        <time>2021-08-09T08:29:02Z</time>
      </trkpt>
      <trkpt lat="47.85884" lon="7.04773">
        <ele>387.1</ele>
        <time>2021-08-09T08:29:03Z</time>
      </trkpt>
      <trkpt lat="47.85878" lon="7.04766">
        <ele>387.1</ele>
        <time>2021-08-09T08:29:05Z</time>
      </trkpt>
      <trkpt lat="47.85872" lon="7.04752">
        <ele>387.1</ele>
        <time>2021-08-09T08:29:06Z</time>
      </trkpt>
      <trkpt lat="47.85868" lon="7.04743">
        <ele>387.1</ele>
        <time>2021-08-09T08:29:07Z</time>
      </trkpt>
      <trkpt lat="47.85864" lon="7.04734">
        <ele>387.2</ele>
        <time>2021-08-09T08:29:09Z</time>
      </trkpt>
      <trkpt lat="47.85862" lon="7.04723">
        <ele>387.4</ele>
        <time>2021-08-09T08:29:11Z</time>
      </trkpt>
      <trkpt lat="47.8586" lon="7.04716">
        <ele>387.5</ele>
        <time>2021-08-09T08:29:12Z</time>
      </trkpt>
      <trkpt lat="47.85859" lon="7.04707">
        <ele>387.6</ele>
        <time>2021-08-09T08:29:14Z</time>
      </trkpt>
      <trkpt lat="47.85857" lon="7.047">
        <ele>387.6</ele>
        <time>2021-08-09T08:29:15Z</time>
      </trkpt>
      <trkpt lat="47.85855" lon="7.04692">
        <ele>387.7</ele>
        <time>2021-08-09T08:29:17Z</time>
      </trkpt>
      <trkpt lat="47.85854" lon="7.04686">
        <ele>387.8</ele>
        <time>2021-08-09T08:29:18Z</time>
      </trkpt>
      <trkpt lat="47.85851" lon="7.04681">
        <ele>387.9</ele>
        <time>2021-08-09T08:29:19Z</time>
      </trkpt>
      <trkpt lat="47.85849" lon="7.04674">
        <ele>387.9</ele>
        <time>2021-08-09T08:29:20Z</time>
      </trkpt>
      <trkpt lat="47.85846" lon="7.04667">
        <ele>388</ele>
        <time>2021-08-09T08:29:22Z</time>
      </trkpt>
      <trkpt lat="47.85843" lon="7.04664">
        <ele>388.1</ele>
        <time>2021-08-09T08:29:23Z</time>
      </trkpt>
      <trkpt lat="47.8584" lon="7.0466">
        <ele>388.1</ele>
        <time>2021-08-09T08:29:24Z</time>
      </trkpt>
      <trkpt lat="47.85839" lon="7.04658">
        <ele>388.1</ele>
        <time>2021-08-09T08:29:25Z</time>
      </trkpt>
      <trkpt lat="47.85835" lon="7.04654">
        <ele>388.2</ele>
        <time>2021-08-09T08:29:27Z</time>
      </trkpt>
      <trkpt lat="47.85831" lon="7.04649">
        <ele>388.2</ele>
        <time>2021-08-09T08:29:28Z</time>
      </trkpt>
      <trkpt lat="47.85827" lon="7.04644">
        <ele>388.2</ele>
        <time>2021-08-09T08:29:30Z</time>
      </trkpt>
      <trkpt lat="47.85823" lon="7.04639">
        <ele>388.3</ele>
        <time>2021-08-09T08:29:31Z</time>
      </trkpt>
      <trkpt lat="47.85818" lon="7.04635">
        <ele>388.3</ele>
        <time>2021-08-09T08:29:32Z</time>
      </trkpt>
      <trkpt lat="47.85809" lon="7.04626">
        <ele>388.3</ele>
        <time>2021-08-09T08:29:34Z</time>
      </trkpt>
      <trkpt lat="47.85805" lon="7.04622">
        <ele>388.3</ele>
        <time>2021-08-09T08:29:35Z</time>
      </trkpt>
      <trkpt lat="47.85799" lon="7.04621">
        <ele>388.4</ele>
        <time>2021-08-09T08:29:37Z</time>
      </trkpt>
      <trkpt lat="47.85794" lon="7.04617">
        <ele>388.7</ele>
        <time>2021-08-09T08:29:38Z</time>
      </trkpt>
      <trkpt lat="47.8579" lon="7.04614">
        <ele>388.9</ele>
        <time>2021-08-09T08:29:39Z</time>
      </trkpt>
      <trkpt lat="47.85784" lon="7.04609">
        <ele>389.3</ele>
        <time>2021-08-09T08:29:41Z</time>
      </trkpt>
      <trkpt lat="47.85779" lon="7.04605">
        <ele>389.7</ele>
        <time>2021-08-09T08:29:42Z</time>
      </trkpt>
      <trkpt lat="47.85774" lon="7.046">
        <ele>390.2</ele>
        <time>2021-08-09T08:29:44Z</time>
      </trkpt>
      <trkpt lat="47.85771" lon="7.04597">
        <ele>390.5</ele>
        <time>2021-08-09T08:29:46Z</time>
      </trkpt>
      <trkpt lat="47.85769" lon="7.04593">
        <ele>390.8</ele>
        <time>2021-08-09T08:29:47Z</time>
      </trkpt>
      <trkpt lat="47.85768" lon="7.04591">
        <ele>390.9</ele>
        <time>2021-08-09T08:29:48Z</time>
      </trkpt>
      <trkpt lat="47.85768" lon="7.04588">
        <ele>391.1</ele>
        <time>2021-08-09T08:29:50Z</time>
      </trkpt>
      <trkpt lat="47.85769" lon="7.04586">
        <ele>391.3</ele>
        <time>2021-08-09T08:29:51Z</time>
      </trkpt>
      <trkpt lat="47.85769" lon="7.04584">
        <ele>391.4</ele>
        <time>2021-08-09T08:29:52Z</time>
      </trkpt>
      <trkpt lat="47.85768" lon="7.04583">
        <ele>391.5</ele>
        <time>2021-08-09T08:29:53Z</time>
      </trkpt>
      <trkpt lat="47.85768" lon="7.04581">
        <ele>391.6</ele>
        <time>2021-08-09T08:29:54Z</time>
      </trkpt>
      <trkpt lat="47.85767" lon="7.0458">
        <ele>391.7</ele>
        <time>2021-08-09T08:29:55Z</time>
      </trkpt>
      <trkpt lat="47.85766" lon="7.04574">
        <ele>392.1</ele>
        <time>2021-08-09T08:29:57Z</time>
      </trkpt>
      <trkpt lat="47.85766" lon="7.04572">
        <ele>392.2</ele>
        <time>2021-08-09T08:29:58Z</time>
      </trkpt>
      <trkpt lat="47.85766" lon="7.0457">
        <ele>392.4</ele>
        <time>2021-08-09T08:29:59Z</time>
      </trkpt>
      <trkpt lat="47.85766" lon="7.04566">
        <ele>392.6</ele>
        <time>2021-08-09T08:30:00Z</time>
      </trkpt>
      <trkpt lat="47.85766" lon="7.04564">
        <ele>392.7</ele>
        <time>2021-08-09T08:30:01Z</time>
      </trkpt>
      <trkpt lat="47.85765" lon="7.04559">
        <ele>393</ele>
        <time>2021-08-09T08:30:03Z</time>
      </trkpt>
      <trkpt lat="47.85763" lon="7.04556">
        <ele>393.2</ele>
        <time>2021-08-09T08:30:04Z</time>
      </trkpt>
      <trkpt lat="47.85761" lon="7.04553">
        <ele>393.5</ele>
        <time>2021-08-09T08:30:06Z</time>
      </trkpt>
      <trkpt lat="47.85759" lon="7.04551">
        <ele>393.7</ele>
        <time>2021-08-09T08:30:07Z</time>
      </trkpt>
      <trkpt lat="47.85758" lon="7.0455">
        <ele>393.8</ele>
        <time>2021-08-09T08:30:08Z</time>
      </trkpt>
      <trkpt lat="47.85756" lon="7.04547">
        <ele>394.1</ele>
        <time>2021-08-09T08:30:09Z</time>
      </trkpt>
      <trkpt lat="47.85755" lon="7.04546">
        <ele>394.1</ele>
        <time>2021-08-09T08:30:10Z</time>
      </trkpt>
      <trkpt lat="47.85751" lon="7.04543">
        <ele>394.5</ele>
        <time>2021-08-09T08:30:12Z</time>
      </trkpt>
      <trkpt lat="47.8575" lon="7.04542">
        <ele>394.6</ele>
        <time>2021-08-09T08:30:13Z</time>
      </trkpt>
      <trkpt lat="47.85749" lon="7.04541">
        <ele>394.7</ele>
        <time>2021-08-09T08:30:14Z</time>
      </trkpt>
      <trkpt lat="47.85747" lon="7.04538">
        <ele>394.9</ele>
        <time>2021-08-09T08:30:15Z</time>
      </trkpt>
      <trkpt lat="47.85744" lon="7.04534">
        <ele>395.1</ele>
        <time>2021-08-09T08:30:17Z</time>
      </trkpt>
      <trkpt lat="47.85741" lon="7.0453">
        <ele>395.4</ele>
        <time>2021-08-09T08:30:19Z</time>
      </trkpt>
      <trkpt lat="47.85739" lon="7.04529">
        <ele>395.6</ele>
        <time>2021-08-09T08:30:21Z</time>
      </trkpt>
      <trkpt lat="47.85738" lon="7.04528">
        <ele>395.7</ele>
        <time>2021-08-09T08:30:22Z</time>
      </trkpt>
      <trkpt lat="47.85736" lon="7.04526">
        <ele>395.8</ele>
        <time>2021-08-09T08:30:23Z</time>
      </trkpt>
      <trkpt lat="47.85734" lon="7.04522">
        <ele>396.1</ele>
        <time>2021-08-09T08:30:25Z</time>
      </trkpt>
      <trkpt lat="47.85732" lon="7.04518">
        <ele>396.3</ele>
        <time>2021-08-09T08:30:26Z</time>
      </trkpt>
      <trkpt lat="47.85728" lon="7.04514">
        <ele>396.6</ele>
        <time>2021-08-09T08:30:28Z</time>
      </trkpt>
      <trkpt lat="47.85724" lon="7.0451">
        <ele>396.9</ele>
        <time>2021-08-09T08:30:30Z</time>
      </trkpt>
      <trkpt lat="47.85722" lon="7.04508">
        <ele>397.1</ele>
        <time>2021-08-09T08:30:31Z</time>
      </trkpt>
      <trkpt lat="47.8572" lon="7.04502">
        <ele>397.3</ele>
        <time>2021-08-09T08:30:33Z</time>
      </trkpt>
      <trkpt lat="47.85717" lon="7.04496">
        <ele>397.7</ele>
        <time>2021-08-09T08:30:35Z</time>
      </trkpt>
      <trkpt lat="47.85714" lon="7.04493">
        <ele>397.9</ele>
        <time>2021-08-09T08:30:36Z</time>
      </trkpt>
      <trkpt lat="47.85713" lon="7.04492">
        <ele>398</ele>
        <time>2021-08-09T08:30:37Z</time>
      </trkpt>
      <trkpt lat="47.8571" lon="7.04489">
        <ele>398.2</ele>
        <time>2021-08-09T08:30:39Z</time>
      </trkpt>
      <trkpt lat="47.8571" lon="7.04488">
        <ele>398.3</ele>
        <time>2021-08-09T08:30:40Z</time>
      </trkpt>
      <trkpt lat="47.85707" lon="7.04484">
        <ele>398.5</ele>
        <time>2021-08-09T08:30:42Z</time>
      </trkpt>
      <trkpt lat="47.85706" lon="7.04483">
        <ele>398.6</ele>
        <time>2021-08-09T08:30:43Z</time>
      </trkpt>
      <trkpt lat="47.85705" lon="7.04478">
        <ele>398.8</ele>
        <time>2021-08-09T08:30:45Z</time>
      </trkpt>
      <trkpt lat="47.85704" lon="7.04477">
        <ele>398.9</ele>
        <time>2021-08-09T08:30:46Z</time>
      </trkpt>
      <trkpt lat="47.85704" lon="7.04475">
        <ele>399</ele>
        <time>2021-08-09T08:30:47Z</time>
      </trkpt>
      <trkpt lat="47.85703" lon="7.04473">
        <ele>399.1</ele>
        <time>2021-08-09T08:30:48Z</time>
      </trkpt>
      <trkpt lat="47.85701" lon="7.04468">
        <ele>399.3</ele>
        <time>2021-08-09T08:30:50Z</time>
      </trkpt>
      <trkpt lat="47.85701" lon="7.04467">
        <ele>399.4</ele>
        <time>2021-08-09T08:30:51Z</time>
      </trkpt>
      <trkpt lat="47.857" lon="7.04461">
        <ele>399.7</ele>
        <time>2021-08-09T08:30:52Z</time>
      </trkpt>
      <trkpt lat="47.857" lon="7.04459">
        <ele>399.8</ele>
        <time>2021-08-09T08:30:53Z</time>
      </trkpt>
      <trkpt lat="47.85699" lon="7.04453">
        <ele>400</ele>
        <time>2021-08-09T08:30:54Z</time>
      </trkpt>
      <trkpt lat="47.85699" lon="7.04448">
        <ele>400.2</ele>
        <time>2021-08-09T08:30:56Z</time>
      </trkpt>
      <trkpt lat="47.85699" lon="7.04444">
        <ele>400.4</ele>
        <time>2021-08-09T08:30:57Z</time>
      </trkpt>
      <trkpt lat="47.85699" lon="7.0444">
        <ele>400.6</ele>
        <time>2021-08-09T08:30:58Z</time>
      </trkpt>
      <trkpt lat="47.85698" lon="7.04436">
        <ele>400.8</ele>
        <time>2021-08-09T08:31:00Z</time>
      </trkpt>
      <trkpt lat="47.85696" lon="7.04433">
        <ele>400.9</ele>
        <time>2021-08-09T08:31:01Z</time>
      </trkpt>
      <trkpt lat="47.85693" lon="7.0443">
        <ele>401.1</ele>
        <time>2021-08-09T08:31:02Z</time>
      </trkpt>
      <trkpt lat="47.85691" lon="7.04426">
        <ele>401.3</ele>
        <time>2021-08-09T08:31:04Z</time>
      </trkpt>
      <trkpt lat="47.85691" lon="7.04425">
        <ele>401.3</ele>
        <time>2021-08-09T08:31:05Z</time>
      </trkpt>
      <trkpt lat="47.8569" lon="7.04422">
        <ele>401.4</ele>
        <time>2021-08-09T08:31:06Z</time>
      </trkpt>
      <trkpt lat="47.85688" lon="7.04419">
        <ele>401.5</ele>
        <time>2021-08-09T08:31:08Z</time>
      </trkpt>
      <trkpt lat="47.85686" lon="7.04415">
        <ele>401.7</ele>
        <time>2021-08-09T08:31:10Z</time>
      </trkpt>
      <trkpt lat="47.85685" lon="7.04414">
        <ele>401.8</ele>
        <time>2021-08-09T08:31:11Z</time>
      </trkpt>
      <trkpt lat="47.85681" lon="7.04412">
        <ele>401.9</ele>
        <time>2021-08-09T08:31:13Z</time>
      </trkpt>
      <trkpt lat="47.85678" lon="7.0441">
        <ele>401.9</ele>
        <time>2021-08-09T08:31:14Z</time>
      </trkpt>
      <trkpt lat="47.85678" lon="7.04409">
        <ele>401.9</ele>
        <time>2021-08-09T08:31:16Z</time>
      </trkpt>
      <trkpt lat="47.85677" lon="7.04408">
        <ele>401.9</ele>
        <time>2021-08-09T08:31:17Z</time>
      </trkpt>
      <trkpt lat="47.85676" lon="7.04407">
        <ele>402</ele>
        <time>2021-08-09T08:31:18Z</time>
      </trkpt>
      <trkpt lat="47.85675" lon="7.04406">
        <ele>402</ele>
        <time>2021-08-09T08:31:19Z</time>
      </trkpt>
      <trkpt lat="47.85674" lon="7.04402">
        <ele>402</ele>
        <time>2021-08-09T08:31:20Z</time>
      </trkpt>
      <trkpt lat="47.85673" lon="7.044">
        <ele>402.1</ele>
        <time>2021-08-09T08:31:21Z</time>
      </trkpt>
      <trkpt lat="47.85671" lon="7.04396">
        <ele>402.1</ele>
        <time>2021-08-09T08:31:23Z</time>
      </trkpt>
      <trkpt lat="47.8567" lon="7.04392">
        <ele>402.2</ele>
        <time>2021-08-09T08:31:24Z</time>
      </trkpt>
      <trkpt lat="47.85669" lon="7.04389">
        <ele>402.2</ele>
        <time>2021-08-09T08:31:25Z</time>
      </trkpt>
      <trkpt lat="47.85666" lon="7.04382">
        <ele>402.2</ele>
        <time>2021-08-09T08:31:27Z</time>
      </trkpt>
      <trkpt lat="47.85665" lon="7.04378">
        <ele>402.3</ele>
        <time>2021-08-09T08:31:28Z</time>
      </trkpt>
      <trkpt lat="47.85665" lon="7.04374">
        <ele>402.3</ele>
        <time>2021-08-09T08:31:29Z</time>
      </trkpt>
      <trkpt lat="47.85663" lon="7.0437">
        <ele>402.3</ele>
        <time>2021-08-09T08:31:30Z</time>
      </trkpt>
      <trkpt lat="47.8566" lon="7.04367">
        <ele>402.3</ele>
        <time>2021-08-09T08:31:32Z</time>
      </trkpt>
      <trkpt lat="47.85658" lon="7.04366">
        <ele>402.3</ele>
        <time>2021-08-09T08:31:33Z</time>
      </trkpt>
      <trkpt lat="47.85656" lon="7.04362">
        <ele>402.4</ele>
        <time>2021-08-09T08:31:34Z</time>
      </trkpt>
      <trkpt lat="47.85655" lon="7.04361">
        <ele>402.4</ele>
        <time>2021-08-09T08:31:35Z</time>
      </trkpt>
      <trkpt lat="47.85653" lon="7.04357">
        <ele>402.4</ele>
        <time>2021-08-09T08:31:37Z</time>
      </trkpt>
      <trkpt lat="47.85652" lon="7.04355">
        <ele>402.4</ele>
        <time>2021-08-09T08:31:38Z</time>
      </trkpt>
      <trkpt lat="47.8565" lon="7.0435">
        <ele>402.5</ele>
        <time>2021-08-09T08:31:40Z</time>
      </trkpt>
      <trkpt lat="47.85648" lon="7.04345">
        <ele>402.5</ele>
        <time>2021-08-09T08:31:41Z</time>
      </trkpt>
      <trkpt lat="47.85647" lon="7.04343">
        <ele>402.5</ele>
        <time>2021-08-09T08:31:42Z</time>
      </trkpt>
      <trkpt lat="47.85646" lon="7.04338">
        <ele>402.6</ele>
        <time>2021-08-09T08:31:43Z</time>
      </trkpt>
      <trkpt lat="47.85646" lon="7.04337">
        <ele>402.6</ele>
        <time>2021-08-09T08:31:44Z</time>
      </trkpt>
      <trkpt lat="47.85646" lon="7.04332">
        <ele>402.7</ele>
        <time>2021-08-09T08:31:45Z</time>
      </trkpt>
      <trkpt lat="47.85645" lon="7.04326">
        <ele>402.8</ele>
        <time>2021-08-09T08:31:47Z</time>
      </trkpt>
      <trkpt lat="47.85643" lon="7.04323">
        <ele>403</ele>
        <time>2021-08-09T08:31:48Z</time>
      </trkpt>
      <trkpt lat="47.8564" lon="7.04319">
        <ele>403.2</ele>
        <time>2021-08-09T08:31:50Z</time>
      </trkpt>
      <trkpt lat="47.85639" lon="7.04315">
        <ele>403.3</ele>
        <time>2021-08-09T08:31:51Z</time>
      </trkpt>
      <trkpt lat="47.85637" lon="7.04306">
        <ele>403.7</ele>
        <time>2021-08-09T08:31:53Z</time>
      </trkpt>
      <trkpt lat="47.85635" lon="7.04303">
        <ele>403.8</ele>
        <time>2021-08-09T08:31:54Z</time>
      </trkpt>
      <trkpt lat="47.85632" lon="7.04298">
        <ele>404.1</ele>
        <time>2021-08-09T08:31:56Z</time>
      </trkpt>
      <trkpt lat="47.8563" lon="7.04295">
        <ele>404.2</ele>
        <time>2021-08-09T08:31:57Z</time>
      </trkpt>
      <trkpt lat="47.85628" lon="7.04291">
        <ele>404.4</ele>
        <time>2021-08-09T08:31:58Z</time>
      </trkpt>
      <trkpt lat="47.85627" lon="7.04287">
        <ele>404.5</ele>
        <time>2021-08-09T08:31:59Z</time>
      </trkpt>
      <trkpt lat="47.85625" lon="7.04282">
        <ele>404.6</ele>
        <time>2021-08-09T08:32:00Z</time>
      </trkpt>
      <trkpt lat="47.8562" lon="7.04276">
        <ele>404.8</ele>
        <time>2021-08-09T08:32:02Z</time>
      </trkpt>
      <trkpt lat="47.85617" lon="7.04272">
        <ele>404.9</ele>
        <time>2021-08-09T08:32:03Z</time>
      </trkpt>
      <trkpt lat="47.85613" lon="7.04268">
        <ele>405.1</ele>
        <time>2021-08-09T08:32:04Z</time>
      </trkpt>
      <trkpt lat="47.85607" lon="7.0426">
        <ele>405.2</ele>
        <time>2021-08-09T08:32:06Z</time>
      </trkpt>
      <trkpt lat="47.85604" lon="7.04256">
        <ele>405.3</ele>
        <time>2021-08-09T08:32:07Z</time>
      </trkpt>
      <trkpt lat="47.85599" lon="7.04248">
        <ele>405.4</ele>
        <time>2021-08-09T08:32:09Z</time>
      </trkpt>
      <trkpt lat="47.85596" lon="7.04241">
        <ele>405.5</ele>
        <time>2021-08-09T08:32:11Z</time>
      </trkpt>
      <trkpt lat="47.85593" lon="7.04237">
        <ele>405.6</ele>
        <time>2021-08-09T08:32:12Z</time>
      </trkpt>
      <trkpt lat="47.85591" lon="7.04233">
        <ele>405.6</ele>
        <time>2021-08-09T08:32:13Z</time>
      </trkpt>
      <trkpt lat="47.85588" lon="7.04227">
        <ele>405.7</ele>
        <time>2021-08-09T08:32:14Z</time>
      </trkpt>
      <trkpt lat="47.85584" lon="7.04219">
        <ele>405.8</ele>
        <time>2021-08-09T08:32:16Z</time>
      </trkpt>
      <trkpt lat="47.85581" lon="7.04215">
        <ele>405.9</ele>
        <time>2021-08-09T08:32:17Z</time>
      </trkpt>
      <trkpt lat="47.85578" lon="7.04211">
        <ele>406</ele>
        <time>2021-08-09T08:32:18Z</time>
      </trkpt>
      <trkpt lat="47.85575" lon="7.04207">
        <ele>406</ele>
        <time>2021-08-09T08:32:19Z</time>
      </trkpt>
      <trkpt lat="47.85572" lon="7.04204">
        <ele>406.1</ele>
        <time>2021-08-09T08:32:20Z</time>
      </trkpt>
      <trkpt lat="47.85568" lon="7.04198">
        <ele>406.2</ele>
        <time>2021-08-09T08:32:22Z</time>
      </trkpt>
      <trkpt lat="47.85566" lon="7.04194">
        <ele>406.3</ele>
        <time>2021-08-09T08:32:23Z</time>
      </trkpt>
      <trkpt lat="47.85564" lon="7.0419">
        <ele>406.3</ele>
        <time>2021-08-09T08:32:24Z</time>
      </trkpt>
      <trkpt lat="47.85562" lon="7.04186">
        <ele>406.4</ele>
        <time>2021-08-09T08:32:25Z</time>
      </trkpt>
      <trkpt lat="47.85559" lon="7.0418">
        <ele>406.5</ele>
        <time>2021-08-09T08:32:26Z</time>
      </trkpt>
      <trkpt lat="47.85555" lon="7.04174">
        <ele>406.6</ele>
        <time>2021-08-09T08:32:28Z</time>
      </trkpt>
      <trkpt lat="47.85552" lon="7.0417">
        <ele>406.7</ele>
        <time>2021-08-09T08:32:29Z</time>
      </trkpt>
      <trkpt lat="47.85548" lon="7.04165">
        <ele>406.8</ele>
        <time>2021-08-09T08:32:31Z</time>
      </trkpt>
      <trkpt lat="47.85544" lon="7.04162">
        <ele>406.8</ele>
        <time>2021-08-09T08:32:32Z</time>
      </trkpt>
      <trkpt lat="47.85541" lon="7.04159">
        <ele>406.9</ele>
        <time>2021-08-09T08:32:33Z</time>
      </trkpt>
      <trkpt lat="47.85538" lon="7.04156">
        <ele>407</ele>
        <time>2021-08-09T08:32:34Z</time>
      </trkpt>
      <trkpt lat="47.85533" lon="7.04152">
        <ele>407.1</ele>
        <time>2021-08-09T08:32:36Z</time>
      </trkpt>
      <trkpt lat="47.85528" lon="7.0415">
        <ele>407.2</ele>
        <time>2021-08-09T08:32:38Z</time>
      </trkpt>
      <trkpt lat="47.85525" lon="7.04147">
        <ele>407.3</ele>
        <time>2021-08-09T08:32:39Z</time>
      </trkpt>
      <trkpt lat="47.85519" lon="7.04142">
        <ele>407.5</ele>
        <time>2021-08-09T08:32:41Z</time>
      </trkpt>
      <trkpt lat="47.85514" lon="7.04138">
        <ele>407.6</ele>
        <time>2021-08-09T08:32:43Z</time>
      </trkpt>
      <trkpt lat="47.85509" lon="7.04136">
        <ele>407.7</ele>
        <time>2021-08-09T08:32:44Z</time>
      </trkpt>
      <trkpt lat="47.85506" lon="7.04135">
        <ele>407.9</ele>
        <time>2021-08-09T08:32:46Z</time>
      </trkpt>
      <trkpt lat="47.85503" lon="7.04134">
        <ele>407.9</ele>
        <time>2021-08-09T08:32:47Z</time>
      </trkpt>
      <trkpt lat="47.85498" lon="7.04132">
        <ele>408</ele>
        <time>2021-08-09T08:32:49Z</time>
      </trkpt>
      <trkpt lat="47.85493" lon="7.04128">
        <ele>408.2</ele>
        <time>2021-08-09T08:32:51Z</time>
      </trkpt>
      <trkpt lat="47.85489" lon="7.04124">
        <ele>408.3</ele>
        <time>2021-08-09T08:32:53Z</time>
      </trkpt>
      <trkpt lat="47.85487" lon="7.04121">
        <ele>408.4</ele>
        <time>2021-08-09T08:32:54Z</time>
      </trkpt>
      <trkpt lat="47.85485" lon="7.04117">
        <ele>408.5</ele>
        <time>2021-08-09T08:32:55Z</time>
      </trkpt>
      <trkpt lat="47.85484" lon="7.04114">
        <ele>408.6</ele>
        <time>2021-08-09T08:32:56Z</time>
      </trkpt>
      <trkpt lat="47.85478" lon="7.04108">
        <ele>408.7</ele>
        <time>2021-08-09T08:32:58Z</time>
      </trkpt>
      <trkpt lat="47.85473" lon="7.04104">
        <ele>408.9</ele>
        <time>2021-08-09T08:33:00Z</time>
      </trkpt>
      <trkpt lat="47.85471" lon="7.04099">
        <ele>409</ele>
        <time>2021-08-09T08:33:01Z</time>
      </trkpt>
      <trkpt lat="47.85468" lon="7.04093">
        <ele>409.1</ele>
        <time>2021-08-09T08:33:03Z</time>
      </trkpt>
      <trkpt lat="47.85465" lon="7.0409">
        <ele>409.2</ele>
        <time>2021-08-09T08:33:04Z</time>
      </trkpt>
      <trkpt lat="47.85462" lon="7.04084">
        <ele>409.3</ele>
        <time>2021-08-09T08:33:05Z</time>
      </trkpt>
      <trkpt lat="47.85461" lon="7.04081">
        <ele>409.4</ele>
        <time>2021-08-09T08:33:06Z</time>
      </trkpt>
      <trkpt lat="47.85458" lon="7.04075">
        <ele>409.5</ele>
        <time>2021-08-09T08:33:08Z</time>
      </trkpt>
      <trkpt lat="47.85456" lon="7.04073">
        <ele>409.5</ele>
        <time>2021-08-09T08:33:09Z</time>
      </trkpt>
      <trkpt lat="47.85455" lon="7.04071">
        <ele>409.6</ele>
        <time>2021-08-09T08:33:10Z</time>
      </trkpt>
      <trkpt lat="47.85454" lon="7.04065">
        <ele>409.7</ele>
        <time>2021-08-09T08:33:12Z</time>
      </trkpt>
      <trkpt lat="47.85453" lon="7.04062">
        <ele>409.8</ele>
        <time>2021-08-09T08:33:13Z</time>
      </trkpt>
      <trkpt lat="47.85451" lon="7.04057">
        <ele>409.9</ele>
        <time>2021-08-09T08:33:14Z</time>
      </trkpt>
      <trkpt lat="47.85449" lon="7.04052">
        <ele>410</ele>
        <time>2021-08-09T08:33:15Z</time>
      </trkpt>
      <trkpt lat="47.85449" lon="7.04051">
        <ele>410</ele>
        <time>2021-08-09T08:33:16Z</time>
      </trkpt>
      <trkpt lat="47.85447" lon="7.04047">
        <ele>410.1</ele>
        <time>2021-08-09T08:33:17Z</time>
      </trkpt>
      <trkpt lat="47.85446" lon="7.04045">
        <ele>410.1</ele>
        <time>2021-08-09T08:33:18Z</time>
      </trkpt>
      <trkpt lat="47.85443" lon="7.04041">
        <ele>410.2</ele>
        <time>2021-08-09T08:33:20Z</time>
      </trkpt>
      <trkpt lat="47.85443" lon="7.0404">
        <ele>410.3</ele>
        <time>2021-08-09T08:33:21Z</time>
      </trkpt>
      <trkpt lat="47.85441" lon="7.04036">
        <ele>410.3</ele>
        <time>2021-08-09T08:33:22Z</time>
      </trkpt>
      <trkpt lat="47.85439" lon="7.04032">
        <ele>410.5</ele>
        <time>2021-08-09T08:33:23Z</time>
      </trkpt>
      <trkpt lat="47.85437" lon="7.04028">
        <ele>410.6</ele>
        <time>2021-08-09T08:33:25Z</time>
      </trkpt>
      <trkpt lat="47.85434" lon="7.04025">
        <ele>410.7</ele>
        <time>2021-08-09T08:33:26Z</time>
      </trkpt>
      <trkpt lat="47.85431" lon="7.0402">
        <ele>410.8</ele>
        <time>2021-08-09T08:33:28Z</time>
      </trkpt>
      <trkpt lat="47.85429" lon="7.04015">
        <ele>410.9</ele>
        <time>2021-08-09T08:33:29Z</time>
      </trkpt>
      <trkpt lat="47.85429" lon="7.04014">
        <ele>411</ele>
        <time>2021-08-09T08:33:30Z</time>
      </trkpt>
      <trkpt lat="47.85427" lon="7.04011">
        <ele>411</ele>
        <time>2021-08-09T08:33:31Z</time>
      </trkpt>
      <trkpt lat="47.85425" lon="7.04006">
        <ele>411.2</ele>
        <time>2021-08-09T08:33:33Z</time>
      </trkpt>
      <trkpt lat="47.85424" lon="7.04003">
        <ele>411.2</ele>
        <time>2021-08-09T08:33:34Z</time>
      </trkpt>
      <trkpt lat="47.85422" lon="7.03996">
        <ele>411.4</ele>
        <time>2021-08-09T08:33:36Z</time>
      </trkpt>
      <trkpt lat="47.85419" lon="7.03992">
        <ele>411.6</ele>
        <time>2021-08-09T08:33:38Z</time>
      </trkpt>
      <trkpt lat="47.85416" lon="7.03988">
        <ele>411.7</ele>
        <time>2021-08-09T08:33:39Z</time>
      </trkpt>
      <trkpt lat="47.85414" lon="7.03984">
        <ele>411.9</ele>
        <time>2021-08-09T08:33:40Z</time>
      </trkpt>
      <trkpt lat="47.85413" lon="7.03982">
        <ele>411.9</ele>
        <time>2021-08-09T08:33:41Z</time>
      </trkpt>
      <trkpt lat="47.85411" lon="7.03977">
        <ele>412.1</ele>
        <time>2021-08-09T08:33:43Z</time>
      </trkpt>
      <trkpt lat="47.8541" lon="7.03971">
        <ele>412.3</ele>
        <time>2021-08-09T08:33:45Z</time>
      </trkpt>
      <trkpt lat="47.85409" lon="7.03967">
        <ele>412.4</ele>
        <time>2021-08-09T08:33:46Z</time>
      </trkpt>
      <trkpt lat="47.85409" lon="7.03965">
        <ele>412.5</ele>
        <time>2021-08-09T08:33:47Z</time>
      </trkpt>
      <trkpt lat="47.85408" lon="7.03963">
        <ele>412.6</ele>
        <time>2021-08-09T08:33:48Z</time>
      </trkpt>
      <trkpt lat="47.85404" lon="7.0396">
        <ele>412.8</ele>
        <time>2021-08-09T08:33:50Z</time>
      </trkpt>
      <trkpt lat="47.85402" lon="7.03957">
        <ele>412.9</ele>
        <time>2021-08-09T08:33:51Z</time>
      </trkpt>
      <trkpt lat="47.854" lon="7.03954">
        <ele>413</ele>
        <time>2021-08-09T08:33:53Z</time>
      </trkpt>
      <trkpt lat="47.85397" lon="7.0395">
        <ele>413.2</ele>
        <time>2021-08-09T08:33:54Z</time>
      </trkpt>
      <trkpt lat="47.85394" lon="7.03947">
        <ele>413.4</ele>
        <time>2021-08-09T08:33:55Z</time>
      </trkpt>
      <trkpt lat="47.85394" lon="7.03946">
        <ele>413.4</ele>
        <time>2021-08-09T08:33:56Z</time>
      </trkpt>
      <trkpt lat="47.85393" lon="7.03944">
        <ele>413.5</ele>
        <time>2021-08-09T08:33:57Z</time>
      </trkpt>
      <trkpt lat="47.8539" lon="7.03939">
        <ele>413.7</ele>
        <time>2021-08-09T08:33:59Z</time>
      </trkpt>
      <trkpt lat="47.85389" lon="7.03935">
        <ele>413.8</ele>
        <time>2021-08-09T08:34:00Z</time>
      </trkpt>
      <trkpt lat="47.85387" lon="7.03929">
        <ele>414</ele>
        <time>2021-08-09T08:34:02Z</time>
      </trkpt>
      <trkpt lat="47.85386" lon="7.03924">
        <ele>414.2</ele>
        <time>2021-08-09T08:34:03Z</time>
      </trkpt>
      <trkpt lat="47.85386" lon="7.03923">
        <ele>414.3</ele>
        <time>2021-08-09T08:34:04Z</time>
      </trkpt>
      <trkpt lat="47.85386" lon="7.03917">
        <ele>414.4</ele>
        <time>2021-08-09T08:34:06Z</time>
      </trkpt>
      <trkpt lat="47.85385" lon="7.03913">
        <ele>414.6</ele>
        <time>2021-08-09T08:34:07Z</time>
      </trkpt>
      <trkpt lat="47.85384" lon="7.03908">
        <ele>414.7</ele>
        <time>2021-08-09T08:34:08Z</time>
      </trkpt>
      <trkpt lat="47.85384" lon="7.03905">
        <ele>414.8</ele>
        <time>2021-08-09T08:34:09Z</time>
      </trkpt>
      <trkpt lat="47.85382" lon="7.03903">
        <ele>414.9</ele>
        <time>2021-08-09T08:34:11Z</time>
      </trkpt>
      <trkpt lat="47.8538" lon="7.03902">
        <ele>415</ele>
        <time>2021-08-09T08:34:12Z</time>
      </trkpt>
      <trkpt lat="47.85379" lon="7.03901">
        <ele>415.1</ele>
        <time>2021-08-09T08:34:13Z</time>
      </trkpt>
      <trkpt lat="47.85379" lon="7.03895">
        <ele>415.3</ele>
        <time>2021-08-09T08:34:14Z</time>
      </trkpt>
      <trkpt lat="47.85378" lon="7.03892">
        <ele>415.4</ele>
        <time>2021-08-09T08:34:15Z</time>
      </trkpt>
      <trkpt lat="47.85378" lon="7.03888">
        <ele>415.5</ele>
        <time>2021-08-09T08:34:16Z</time>
      </trkpt>
      <trkpt lat="47.85378" lon="7.03881">
        <ele>415.8</ele>
        <time>2021-08-09T08:34:18Z</time>
      </trkpt>
      <trkpt lat="47.85379" lon="7.03878">
        <ele>415.9</ele>
        <time>2021-08-09T08:34:19Z</time>
      </trkpt>
      <trkpt lat="47.85379" lon="7.03875">
        <ele>416</ele>
        <time>2021-08-09T08:34:20Z</time>
      </trkpt>
      <trkpt lat="47.85379" lon="7.03872">
        <ele>416.2</ele>
        <time>2021-08-09T08:34:21Z</time>
      </trkpt>
      <trkpt lat="47.85379" lon="7.03868">
        <ele>416.3</ele>
        <time>2021-08-09T08:34:23Z</time>
      </trkpt>
      <trkpt lat="47.85377" lon="7.03863">
        <ele>416.5</ele>
        <time>2021-08-09T08:34:24Z</time>
      </trkpt>
      <trkpt lat="47.85377" lon="7.03862">
        <ele>416.6</ele>
        <time>2021-08-09T08:34:25Z</time>
      </trkpt>
      <trkpt lat="47.85375" lon="7.03859">
        <ele>416.8</ele>
        <time>2021-08-09T08:34:26Z</time>
      </trkpt>
      <trkpt lat="47.85374" lon="7.03858">
        <ele>416.9</ele>
        <time>2021-08-09T08:34:27Z</time>
      </trkpt>
      <trkpt lat="47.85373" lon="7.03855">
        <ele>417</ele>
        <time>2021-08-09T08:34:28Z</time>
      </trkpt>
      <trkpt lat="47.85372" lon="7.03852">
        <ele>417.2</ele>
        <time>2021-08-09T08:34:30Z</time>
      </trkpt>
      <trkpt lat="47.85371" lon="7.03847">
        <ele>417.4</ele>
        <time>2021-08-09T08:34:31Z</time>
      </trkpt>
      <trkpt lat="47.85371" lon="7.03846">
        <ele>417.4</ele>
        <time>2021-08-09T08:34:32Z</time>
      </trkpt>
      <trkpt lat="47.85371" lon="7.03843">
        <ele>417.6</ele>
        <time>2021-08-09T08:34:33Z</time>
      </trkpt>
      <trkpt lat="47.8537" lon="7.03836">
        <ele>417.9</ele>
        <time>2021-08-09T08:34:35Z</time>
      </trkpt>
      <trkpt lat="47.8537" lon="7.03833">
        <ele>418</ele>
        <time>2021-08-09T08:34:36Z</time>
      </trkpt>
      <trkpt lat="47.8537" lon="7.03826">
        <ele>418.2</ele>
        <time>2021-08-09T08:34:38Z</time>
      </trkpt>
      <trkpt lat="47.85371" lon="7.03823">
        <ele>418.4</ele>
        <time>2021-08-09T08:34:39Z</time>
      </trkpt>
      <trkpt lat="47.85371" lon="7.0382">
        <ele>418.4</ele>
        <time>2021-08-09T08:34:41Z</time>
      </trkpt>
      <trkpt lat="47.85372" lon="7.03817">
        <ele>418.6</ele>
        <time>2021-08-09T08:34:42Z</time>
      </trkpt>
      <trkpt lat="47.85372" lon="7.03816">
        <ele>418.6</ele>
        <time>2021-08-09T08:34:43Z</time>
      </trkpt>
      <trkpt lat="47.85372" lon="7.03814">
        <ele>418.7</ele>
        <time>2021-08-09T08:34:44Z</time>
      </trkpt>
      <trkpt lat="47.85369" lon="7.0381">
        <ele>418.8</ele>
        <time>2021-08-09T08:34:46Z</time>
      </trkpt>
      <trkpt lat="47.85369" lon="7.03808">
        <ele>418.9</ele>
        <time>2021-08-09T08:34:47Z</time>
      </trkpt>
      <trkpt lat="47.85367" lon="7.03804">
        <ele>419</ele>
        <time>2021-08-09T08:34:48Z</time>
      </trkpt>
      <trkpt lat="47.85365" lon="7.03799">
        <ele>419.1</ele>
        <time>2021-08-09T08:34:49Z</time>
      </trkpt>
      <trkpt lat="47.85364" lon="7.03795">
        <ele>419.2</ele>
        <time>2021-08-09T08:34:51Z</time>
      </trkpt>
      <trkpt lat="47.85362" lon="7.03791">
        <ele>419.3</ele>
        <time>2021-08-09T08:34:52Z</time>
      </trkpt>
      <trkpt lat="47.8536" lon="7.03785">
        <ele>419.3</ele>
        <time>2021-08-09T08:34:53Z</time>
      </trkpt>
      <trkpt lat="47.8536" lon="7.03784">
        <ele>419.4</ele>
        <time>2021-08-09T08:34:54Z</time>
      </trkpt>
      <trkpt lat="47.85359" lon="7.03779">
        <ele>419.4</ele>
        <time>2021-08-09T08:34:55Z</time>
      </trkpt>
      <trkpt lat="47.85358" lon="7.03775">
        <ele>419.4</ele>
        <time>2021-08-09T08:34:56Z</time>
      </trkpt>
      <trkpt lat="47.85358" lon="7.03769">
        <ele>419.5</ele>
        <time>2021-08-09T08:34:58Z</time>
      </trkpt>
      <trkpt lat="47.85356" lon="7.03764">
        <ele>419.5</ele>
        <time>2021-08-09T08:34:59Z</time>
      </trkpt>
      <trkpt lat="47.85354" lon="7.0376">
        <ele>419.6</ele>
        <time>2021-08-09T08:35:00Z</time>
      </trkpt>
      <trkpt lat="47.85353" lon="7.03758">
        <ele>419.6</ele>
        <time>2021-08-09T08:35:01Z</time>
      </trkpt>
      <trkpt lat="47.85351" lon="7.03752">
        <ele>419.7</ele>
        <time>2021-08-09T08:35:03Z</time>
      </trkpt>
      <trkpt lat="47.85349" lon="7.03747">
        <ele>419.7</ele>
        <time>2021-08-09T08:35:04Z</time>
      </trkpt>
      <trkpt lat="47.85348" lon="7.03743">
        <ele>419.8</ele>
        <time>2021-08-09T08:35:05Z</time>
      </trkpt>
      <trkpt lat="47.85347" lon="7.03739">
        <ele>419.8</ele>
        <time>2021-08-09T08:35:06Z</time>
      </trkpt>
      <trkpt lat="47.85345" lon="7.03732">
        <ele>419.9</ele>
        <time>2021-08-09T08:35:08Z</time>
      </trkpt>
      <trkpt lat="47.85345" lon="7.03727">
        <ele>420</ele>
        <time>2021-08-09T08:35:09Z</time>
      </trkpt>
      <trkpt lat="47.85345" lon="7.03722">
        <ele>420</ele>
        <time>2021-08-09T08:35:10Z</time>
      </trkpt>
      <trkpt lat="47.85345" lon="7.0372">
        <ele>420.1</ele>
        <time>2021-08-09T08:35:11Z</time>
      </trkpt>
      <trkpt lat="47.85344" lon="7.03715">
        <ele>420.1</ele>
        <time>2021-08-09T08:35:12Z</time>
      </trkpt>
      <trkpt lat="47.85344" lon="7.03713">
        <ele>420.2</ele>
        <time>2021-08-09T08:35:13Z</time>
      </trkpt>
      <trkpt lat="47.85343" lon="7.03709">
        <ele>420.2</ele>
        <time>2021-08-09T08:35:14Z</time>
      </trkpt>
      <trkpt lat="47.85341" lon="7.03701">
        <ele>420.4</ele>
        <time>2021-08-09T08:35:16Z</time>
      </trkpt>
      <trkpt lat="47.8534" lon="7.03696">
        <ele>420.5</ele>
        <time>2021-08-09T08:35:17Z</time>
      </trkpt>
      <trkpt lat="47.85339" lon="7.03693">
        <ele>420.6</ele>
        <time>2021-08-09T08:35:18Z</time>
      </trkpt>
      <trkpt lat="47.85339" lon="7.03686">
        <ele>420.8</ele>
        <time>2021-08-09T08:35:20Z</time>
      </trkpt>
      <trkpt lat="47.85339" lon="7.03682">
        <ele>420.9</ele>
        <time>2021-08-09T08:35:21Z</time>
      </trkpt>
      <trkpt lat="47.85339" lon="7.03676">
        <ele>421</ele>
        <time>2021-08-09T08:35:22Z</time>
      </trkpt>
      <trkpt lat="47.85339" lon="7.03674">
        <ele>421</ele>
        <time>2021-08-09T08:35:23Z</time>
      </trkpt>
      <trkpt lat="47.8534" lon="7.03669">
        <ele>421.2</ele>
        <time>2021-08-09T08:35:24Z</time>
      </trkpt>
      <trkpt lat="47.8534" lon="7.03667">
        <ele>421.2</ele>
        <time>2021-08-09T08:35:25Z</time>
      </trkpt>
      <trkpt lat="47.85339" lon="7.03663">
        <ele>421.3</ele>
        <time>2021-08-09T08:35:26Z</time>
      </trkpt>
      <trkpt lat="47.85339" lon="7.03657">
        <ele>421.5</ele>
        <time>2021-08-09T08:35:28Z</time>
      </trkpt>
      <trkpt lat="47.85337" lon="7.03651">
        <ele>421.6</ele>
        <time>2021-08-09T08:35:29Z</time>
      </trkpt>
      <trkpt lat="47.85337" lon="7.0365">
        <ele>421.6</ele>
        <time>2021-08-09T08:35:30Z</time>
      </trkpt>
      <trkpt lat="47.85335" lon="7.03644">
        <ele>421.8</ele>
        <time>2021-08-09T08:35:32Z</time>
      </trkpt>
      <trkpt lat="47.85334" lon="7.03639">
        <ele>421.9</ele>
        <time>2021-08-09T08:35:33Z</time>
      </trkpt>
      <trkpt lat="47.85333" lon="7.03638">
        <ele>421.9</ele>
        <time>2021-08-09T08:35:34Z</time>
      </trkpt>
      <trkpt lat="47.85331" lon="7.03632">
        <ele>422.1</ele>
        <time>2021-08-09T08:35:36Z</time>
      </trkpt>
      <trkpt lat="47.8533" lon="7.0363">
        <ele>422.1</ele>
        <time>2021-08-09T08:35:37Z</time>
      </trkpt>
      <trkpt lat="47.85329" lon="7.03627">
        <ele>422.2</ele>
        <time>2021-08-09T08:35:38Z</time>
      </trkpt>
      <trkpt lat="47.85327" lon="7.03623">
        <ele>422.3</ele>
        <time>2021-08-09T08:35:39Z</time>
      </trkpt>
      <trkpt lat="47.85326" lon="7.03621">
        <ele>422.4</ele>
        <time>2021-08-09T08:35:40Z</time>
      </trkpt>
      <trkpt lat="47.85324" lon="7.03617">
        <ele>422.5</ele>
        <time>2021-08-09T08:35:42Z</time>
      </trkpt>
      <trkpt lat="47.85324" lon="7.03616">
        <ele>422.5</ele>
        <time>2021-08-09T08:35:43Z</time>
      </trkpt>
      <trkpt lat="47.85323" lon="7.03612">
        <ele>422.6</ele>
        <time>2021-08-09T08:35:44Z</time>
      </trkpt>
      <trkpt lat="47.85321" lon="7.03607">
        <ele>422.7</ele>
        <time>2021-08-09T08:35:45Z</time>
      </trkpt>
      <trkpt lat="47.8532" lon="7.03603">
        <ele>422.8</ele>
        <time>2021-08-09T08:35:46Z</time>
      </trkpt>
      <trkpt lat="47.85319" lon="7.03595">
        <ele>422.9</ele>
        <time>2021-08-09T08:35:48Z</time>
      </trkpt>
      <trkpt lat="47.85318" lon="7.0359">
        <ele>423.1</ele>
        <time>2021-08-09T08:35:49Z</time>
      </trkpt>
      <trkpt lat="47.85317" lon="7.03586">
        <ele>423.2</ele>
        <time>2021-08-09T08:35:50Z</time>
      </trkpt>
      <trkpt lat="47.85314" lon="7.03579">
        <ele>423.4</ele>
        <time>2021-08-09T08:35:52Z</time>
      </trkpt>
      <trkpt lat="47.85312" lon="7.03576">
        <ele>423.6</ele>
        <time>2021-08-09T08:35:53Z</time>
      </trkpt>
      <trkpt lat="47.85311" lon="7.03571">
        <ele>423.7</ele>
        <time>2021-08-09T08:35:54Z</time>
      </trkpt>
      <trkpt lat="47.8531" lon="7.03569">
        <ele>423.8</ele>
        <time>2021-08-09T08:35:55Z</time>
      </trkpt>
      <trkpt lat="47.8531" lon="7.03566">
        <ele>423.9</ele>
        <time>2021-08-09T08:35:56Z</time>
      </trkpt>
      <trkpt lat="47.8531" lon="7.03558">
        <ele>424.2</ele>
        <time>2021-08-09T08:35:58Z</time>
      </trkpt>
      <trkpt lat="47.8531" lon="7.03554">
        <ele>424.4</ele>
        <time>2021-08-09T08:35:59Z</time>
      </trkpt>
      <trkpt lat="47.8531" lon="7.03547">
        <ele>424.7</ele>
        <time>2021-08-09T08:36:01Z</time>
      </trkpt>
      <trkpt lat="47.8531" lon="7.03543">
        <ele>424.8</ele>
        <time>2021-08-09T08:36:02Z</time>
      </trkpt>
      <trkpt lat="47.8531" lon="7.03537">
        <ele>425.1</ele>
        <time>2021-08-09T08:36:04Z</time>
      </trkpt>
      <trkpt lat="47.85309" lon="7.03534">
        <ele>425.2</ele>
        <time>2021-08-09T08:36:05Z</time>
      </trkpt>
      <trkpt lat="47.85305" lon="7.03529">
        <ele>425.5</ele>
        <time>2021-08-09T08:36:07Z</time>
      </trkpt>
      <trkpt lat="47.85303" lon="7.03527">
        <ele>425.7</ele>
        <time>2021-08-09T08:36:08Z</time>
      </trkpt>
      <trkpt lat="47.853" lon="7.03526">
        <ele>425.8</ele>
        <time>2021-08-09T08:36:09Z</time>
      </trkpt>
      <trkpt lat="47.85297" lon="7.03523">
        <ele>426</ele>
        <time>2021-08-09T08:36:10Z</time>
      </trkpt>
      <trkpt lat="47.85295" lon="7.03522">
        <ele>426.1</ele>
        <time>2021-08-09T08:36:11Z</time>
      </trkpt>
      <trkpt lat="47.85293" lon="7.03518">
        <ele>426.3</ele>
        <time>2021-08-09T08:36:12Z</time>
      </trkpt>
      <trkpt lat="47.85292" lon="7.03517">
        <ele>426.4</ele>
        <time>2021-08-09T08:36:13Z</time>
      </trkpt>
      <trkpt lat="47.8529" lon="7.03513">
        <ele>426.6</ele>
        <time>2021-08-09T08:36:14Z</time>
      </trkpt>
      <trkpt lat="47.85289" lon="7.03511">
        <ele>426.6</ele>
        <time>2021-08-09T08:36:15Z</time>
      </trkpt>
      <trkpt lat="47.85287" lon="7.03508">
        <ele>426.8</ele>
        <time>2021-08-09T08:36:16Z</time>
      </trkpt>
      <trkpt lat="47.85286" lon="7.03502">
        <ele>427</ele>
        <time>2021-08-09T08:36:18Z</time>
      </trkpt>
      <trkpt lat="47.85284" lon="7.03497">
        <ele>427.2</ele>
        <time>2021-08-09T08:36:20Z</time>
      </trkpt>
      <trkpt lat="47.85282" lon="7.03494">
        <ele>427.3</ele>
        <time>2021-08-09T08:36:21Z</time>
      </trkpt>
      <trkpt lat="47.85281" lon="7.03492">
        <ele>427.4</ele>
        <time>2021-08-09T08:36:22Z</time>
      </trkpt>
      <trkpt lat="47.85279" lon="7.03489">
        <ele>427.5</ele>
        <time>2021-08-09T08:36:24Z</time>
      </trkpt>
      <trkpt lat="47.85278" lon="7.03488">
        <ele>427.6</ele>
        <time>2021-08-09T08:36:26Z</time>
      </trkpt>
      <trkpt lat="47.85278" lon="7.03487">
        <ele>427.6</ele>
        <time>2021-08-09T08:36:27Z</time>
      </trkpt>
      <trkpt lat="47.85277" lon="7.03485">
        <ele>427.7</ele>
        <time>2021-08-09T08:36:28Z</time>
      </trkpt>
      <trkpt lat="47.85275" lon="7.0348">
        <ele>427.9</ele>
        <time>2021-08-09T08:36:29Z</time>
      </trkpt>
      <trkpt lat="47.85274" lon="7.03478">
        <ele>428</ele>
        <time>2021-08-09T08:36:30Z</time>
      </trkpt>
      <trkpt lat="47.85272" lon="7.03474">
        <ele>428.1</ele>
        <time>2021-08-09T08:36:31Z</time>
      </trkpt>
      <trkpt lat="47.85271" lon="7.03473">
        <ele>428.2</ele>
        <time>2021-08-09T08:36:32Z</time>
      </trkpt>
      <trkpt lat="47.85269" lon="7.03468">
        <ele>428.4</ele>
        <time>2021-08-09T08:36:33Z</time>
      </trkpt>
      <trkpt lat="47.85268" lon="7.03467">
        <ele>428.5</ele>
        <time>2021-08-09T08:36:34Z</time>
      </trkpt>
      <trkpt lat="47.85266" lon="7.03463">
        <ele>428.7</ele>
        <time>2021-08-09T08:36:35Z</time>
      </trkpt>
      <trkpt lat="47.85266" lon="7.03462">
        <ele>428.7</ele>
        <time>2021-08-09T08:36:36Z</time>
      </trkpt>
      <trkpt lat="47.85263" lon="7.03459">
        <ele>428.9</ele>
        <time>2021-08-09T08:36:37Z</time>
      </trkpt>
      <trkpt lat="47.85261" lon="7.03455">
        <ele>429.2</ele>
        <time>2021-08-09T08:36:38Z</time>
      </trkpt>
      <trkpt lat="47.85258" lon="7.03452">
        <ele>429.4</ele>
        <time>2021-08-09T08:36:39Z</time>
      </trkpt>
      <trkpt lat="47.85257" lon="7.03451">
        <ele>429.5</ele>
        <time>2021-08-09T08:36:40Z</time>
      </trkpt>
      <trkpt lat="47.85254" lon="7.03447">
        <ele>429.8</ele>
        <time>2021-08-09T08:36:41Z</time>
      </trkpt>
      <trkpt lat="47.85253" lon="7.03446">
        <ele>429.9</ele>
        <time>2021-08-09T08:36:42Z</time>
      </trkpt>
      <trkpt lat="47.85251" lon="7.03442">
        <ele>430.1</ele>
        <time>2021-08-09T08:36:43Z</time>
      </trkpt>
      <trkpt lat="47.85251" lon="7.03441">
        <ele>430.2</ele>
        <time>2021-08-09T08:36:44Z</time>
      </trkpt>
      <trkpt lat="47.85248" lon="7.03438">
        <ele>430.4</ele>
        <time>2021-08-09T08:36:45Z</time>
      </trkpt>
      <trkpt lat="47.85247" lon="7.03437">
        <ele>430.5</ele>
        <time>2021-08-09T08:36:46Z</time>
      </trkpt>
      <trkpt lat="47.85244" lon="7.03435">
        <ele>430.8</ele>
        <time>2021-08-09T08:36:48Z</time>
      </trkpt>
      <trkpt lat="47.85242" lon="7.03435">
        <ele>430.9</ele>
        <time>2021-08-09T08:36:49Z</time>
      </trkpt>
      <trkpt lat="47.85239" lon="7.03433">
        <ele>431.2</ele>
        <time>2021-08-09T08:36:51Z</time>
      </trkpt>
      <trkpt lat="47.85237" lon="7.03431">
        <ele>431.3</ele>
        <time>2021-08-09T08:36:52Z</time>
      </trkpt>
      <trkpt lat="47.85236" lon="7.03429">
        <ele>431.5</ele>
        <time>2021-08-09T08:36:53Z</time>
      </trkpt>
      <trkpt lat="47.85237" lon="7.03425">
        <ele>431.7</ele>
        <time>2021-08-09T08:36:54Z</time>
      </trkpt>
      <trkpt lat="47.85237" lon="7.03422">
        <ele>431.8</ele>
        <time>2021-08-09T08:36:55Z</time>
      </trkpt>
      <trkpt lat="47.85236" lon="7.03418">
        <ele>432.1</ele>
        <time>2021-08-09T08:36:57Z</time>
      </trkpt>
      <trkpt lat="47.85235" lon="7.03417">
        <ele>432.2</ele>
        <time>2021-08-09T08:36:58Z</time>
      </trkpt>
      <trkpt lat="47.85232" lon="7.03414">
        <ele>432.5</ele>
        <time>2021-08-09T08:37:00Z</time>
      </trkpt>
      <trkpt lat="47.85228" lon="7.03411">
        <ele>432.8</ele>
        <time>2021-08-09T08:37:01Z</time>
      </trkpt>
      <trkpt lat="47.85225" lon="7.0341">
        <ele>433</ele>
        <time>2021-08-09T08:37:03Z</time>
      </trkpt>
      <trkpt lat="47.85221" lon="7.0341">
        <ele>433.3</ele>
        <time>2021-08-09T08:37:04Z</time>
      </trkpt>
      <trkpt lat="47.8522" lon="7.03409">
        <ele>433.4</ele>
        <time>2021-08-09T08:37:05Z</time>
      </trkpt>
      <trkpt lat="47.85219" lon="7.03408">
        <ele>433.6</ele>
        <time>2021-08-09T08:37:06Z</time>
      </trkpt>
      <trkpt lat="47.85218" lon="7.03406">
        <ele>433.7</ele>
        <time>2021-08-09T08:37:08Z</time>
      </trkpt>
      <trkpt lat="47.85218" lon="7.03405">
        <ele>433.7</ele>
        <time>2021-08-09T08:37:09Z</time>
      </trkpt>
      <trkpt lat="47.85218" lon="7.03404">
        <ele>433.7</ele>
        <time>2021-08-09T08:37:10Z</time>
      </trkpt>
      <trkpt lat="47.85218" lon="7.03402">
        <ele>433.8</ele>
        <time>2021-08-09T08:37:11Z</time>
      </trkpt>
      <trkpt lat="47.85219" lon="7.034">
        <ele>433.9</ele>
        <time>2021-08-09T08:37:13Z</time>
      </trkpt>
      <trkpt lat="47.85219" lon="7.03397">
        <ele>434</ele>
        <time>2021-08-09T08:37:14Z</time>
      </trkpt>
      <trkpt lat="47.85219" lon="7.0339">
        <ele>434.3</ele>
        <time>2021-08-09T08:37:18Z</time>
      </trkpt>
      <trkpt lat="47.85217" lon="7.03386">
        <ele>434.5</ele>
        <time>2021-08-09T08:37:20Z</time>
      </trkpt>
      <trkpt lat="47.85217" lon="7.03382">
        <ele>434.7</ele>
        <time>2021-08-09T08:37:21Z</time>
      </trkpt>
      <trkpt lat="47.85218" lon="7.03375">
        <ele>434.9</ele>
        <time>2021-08-09T08:37:23Z</time>
      </trkpt>
      <trkpt lat="47.85218" lon="7.03371">
        <ele>435.1</ele>
        <time>2021-08-09T08:37:24Z</time>
      </trkpt>
      <trkpt lat="47.85217" lon="7.03368">
        <ele>435.3</ele>
        <time>2021-08-09T08:37:25Z</time>
      </trkpt>
      <trkpt lat="47.85215" lon="7.03367">
        <ele>435.3</ele>
        <time>2021-08-09T08:37:26Z</time>
      </trkpt>
      <trkpt lat="47.85214" lon="7.03365">
        <ele>435.5</ele>
        <time>2021-08-09T08:37:27Z</time>
      </trkpt>
      <trkpt lat="47.85213" lon="7.03364">
        <ele>435.5</ele>
        <time>2021-08-09T08:37:29Z</time>
      </trkpt>
      <trkpt lat="47.85212" lon="7.03362">
        <ele>435.6</ele>
        <time>2021-08-09T08:37:30Z</time>
      </trkpt>
      <trkpt lat="47.85209" lon="7.03359">
        <ele>435.8</ele>
        <time>2021-08-09T08:37:32Z</time>
      </trkpt>
      <trkpt lat="47.85206" lon="7.03356">
        <ele>436</ele>
        <time>2021-08-09T08:37:33Z</time>
      </trkpt>
      <trkpt lat="47.85203" lon="7.03354">
        <ele>436.3</ele>
        <time>2021-08-09T08:37:35Z</time>
      </trkpt>
      <trkpt lat="47.85201" lon="7.0335">
        <ele>436.5</ele>
        <time>2021-08-09T08:37:37Z</time>
      </trkpt>
      <trkpt lat="47.85198" lon="7.03347">
        <ele>436.8</ele>
        <time>2021-08-09T08:37:39Z</time>
      </trkpt>
      <trkpt lat="47.85195" lon="7.03345">
        <ele>437</ele>
        <time>2021-08-09T08:37:40Z</time>
      </trkpt>
      <trkpt lat="47.85193" lon="7.03345">
        <ele>437.1</ele>
        <time>2021-08-09T08:37:41Z</time>
      </trkpt>
      <trkpt lat="47.85191" lon="7.03344">
        <ele>437.2</ele>
        <time>2021-08-09T08:37:42Z</time>
      </trkpt>
      <trkpt lat="47.85189" lon="7.03342">
        <ele>437.4</ele>
        <time>2021-08-09T08:37:44Z</time>
      </trkpt>
      <trkpt lat="47.85187" lon="7.03339">
        <ele>437.6</ele>
        <time>2021-08-09T08:37:45Z</time>
      </trkpt>
      <trkpt lat="47.85185" lon="7.03338">
        <ele>437.7</ele>
        <time>2021-08-09T08:37:46Z</time>
      </trkpt>
      <trkpt lat="47.85184" lon="7.03338">
        <ele>437.8</ele>
        <time>2021-08-09T08:37:47Z</time>
      </trkpt>
      <trkpt lat="47.85182" lon="7.03339">
        <ele>438</ele>
        <time>2021-08-09T08:37:49Z</time>
      </trkpt>
      <trkpt lat="47.85181" lon="7.03339">
        <ele>438.1</ele>
        <time>2021-08-09T08:37:50Z</time>
      </trkpt>
      <trkpt lat="47.8518" lon="7.03338">
        <ele>438.1</ele>
        <time>2021-08-09T08:37:51Z</time>
      </trkpt>
      <trkpt lat="47.85178" lon="7.03337">
        <ele>438.3</ele>
        <time>2021-08-09T08:37:53Z</time>
      </trkpt>
      <trkpt lat="47.85177" lon="7.03337">
        <ele>438.4</ele>
        <time>2021-08-09T08:37:54Z</time>
      </trkpt>
      <trkpt lat="47.85176" lon="7.03336">
        <ele>438.5</ele>
        <time>2021-08-09T08:37:55Z</time>
      </trkpt>
      <trkpt lat="47.85174" lon="7.03334">
        <ele>438.7</ele>
        <time>2021-08-09T08:37:56Z</time>
      </trkpt>
      <trkpt lat="47.85166" lon="7.03315">
        <ele>439.9</ele>
        <time>2021-08-09T08:38:08Z</time>
      </trkpt>
      <trkpt lat="47.85164" lon="7.03309">
        <ele>440.3</ele>
        <time>2021-08-09T08:38:09Z</time>
      </trkpt>
      <trkpt lat="47.85163" lon="7.03306">
        <ele>440.5</ele>
        <time>2021-08-09T08:38:10Z</time>
      </trkpt>
      <trkpt lat="47.8516" lon="7.03302">
        <ele>440.8</ele>
        <time>2021-08-09T08:38:12Z</time>
      </trkpt>
      <trkpt lat="47.85157" lon="7.033">
        <ele>441.1</ele>
        <time>2021-08-09T08:38:13Z</time>
      </trkpt>
      <trkpt lat="47.85155" lon="7.03298">
        <ele>441.3</ele>
        <time>2021-08-09T08:38:14Z</time>
      </trkpt>
      <trkpt lat="47.85155" lon="7.03297">
        <ele>441.3</ele>
        <time>2021-08-09T08:38:15Z</time>
      </trkpt>
      <trkpt lat="47.85153" lon="7.03293">
        <ele>441.6</ele>
        <time>2021-08-09T08:38:17Z</time>
      </trkpt>
      <trkpt lat="47.85153" lon="7.03292">
        <ele>441.6</ele>
        <time>2021-08-09T08:38:18Z</time>
      </trkpt>
      <trkpt lat="47.85153" lon="7.03291">
        <ele>441.7</ele>
        <time>2021-08-09T08:38:19Z</time>
      </trkpt>
      <trkpt lat="47.85153" lon="7.03288">
        <ele>441.8</ele>
        <time>2021-08-09T08:38:20Z</time>
      </trkpt>
      <trkpt lat="47.85153" lon="7.03287">
        <ele>441.9</ele>
        <time>2021-08-09T08:38:22Z</time>
      </trkpt>
      <trkpt lat="47.85152" lon="7.03286">
        <ele>441.9</ele>
        <time>2021-08-09T08:38:23Z</time>
      </trkpt>
      <trkpt lat="47.85152" lon="7.03286">
        <ele>442</ele>
        <time>2021-08-09T08:38:24Z</time>
      </trkpt>
      <trkpt lat="47.85151" lon="7.03284">
        <ele>442.1</ele>
        <time>2021-08-09T08:38:26Z</time>
      </trkpt>
      <trkpt lat="47.8515" lon="7.03284">
        <ele>442.2</ele>
        <time>2021-08-09T08:38:27Z</time>
      </trkpt>
      <trkpt lat="47.85149" lon="7.03282">
        <ele>442.3</ele>
        <time>2021-08-09T08:38:28Z</time>
      </trkpt>
      <trkpt lat="47.85148" lon="7.03281">
        <ele>442.3</ele>
        <time>2021-08-09T08:38:30Z</time>
      </trkpt>
      <trkpt lat="47.85145" lon="7.03279">
        <ele>442.6</ele>
        <time>2021-08-09T08:38:33Z</time>
      </trkpt>
      <trkpt lat="47.85143" lon="7.03276">
        <ele>442.8</ele>
        <time>2021-08-09T08:38:34Z</time>
      </trkpt>
      <trkpt lat="47.85142" lon="7.03275">
        <ele>442.9</ele>
        <time>2021-08-09T08:38:35Z</time>
      </trkpt>
      <trkpt lat="47.85141" lon="7.03273">
        <ele>443</ele>
        <time>2021-08-09T08:38:37Z</time>
      </trkpt>
      <trkpt lat="47.85142" lon="7.03271">
        <ele>443.1</ele>
        <time>2021-08-09T08:38:38Z</time>
      </trkpt>
      <trkpt lat="47.85142" lon="7.03269">
        <ele>443.2</ele>
        <time>2021-08-09T08:38:40Z</time>
      </trkpt>
      <trkpt lat="47.85143" lon="7.03267">
        <ele>443.3</ele>
        <time>2021-08-09T08:38:41Z</time>
      </trkpt>
      <trkpt lat="47.85144" lon="7.03263">
        <ele>443.5</ele>
        <time>2021-08-09T08:38:43Z</time>
      </trkpt>
      <trkpt lat="47.85143" lon="7.03258">
        <ele>443.7</ele>
        <time>2021-08-09T08:38:45Z</time>
      </trkpt>
      <trkpt lat="47.85143" lon="7.03256">
        <ele>443.8</ele>
        <time>2021-08-09T08:38:46Z</time>
      </trkpt>
      <trkpt lat="47.85144" lon="7.03251">
        <ele>444</ele>
        <time>2021-08-09T08:38:48Z</time>
      </trkpt>
      <trkpt lat="47.85143" lon="7.03249">
        <ele>444.1</ele>
        <time>2021-08-09T08:38:49Z</time>
      </trkpt>
      <trkpt lat="47.85143" lon="7.03246">
        <ele>444.3</ele>
        <time>2021-08-09T08:38:50Z</time>
      </trkpt>
      <trkpt lat="47.85143" lon="7.03244">
        <ele>444.3</ele>
        <time>2021-08-09T08:38:51Z</time>
      </trkpt>
      <trkpt lat="47.85142" lon="7.03243">
        <ele>444.4</ele>
        <time>2021-08-09T08:38:52Z</time>
      </trkpt>
      <trkpt lat="47.85142" lon="7.03241">
        <ele>444.5</ele>
        <time>2021-08-09T08:38:53Z</time>
      </trkpt>
      <trkpt lat="47.85143" lon="7.03235">
        <ele>444.7</ele>
        <time>2021-08-09T08:38:55Z</time>
      </trkpt>
      <trkpt lat="47.85142" lon="7.03232">
        <ele>444.8</ele>
        <time>2021-08-09T08:38:56Z</time>
      </trkpt>
      <trkpt lat="47.85142" lon="7.0323">
        <ele>444.9</ele>
        <time>2021-08-09T08:38:57Z</time>
      </trkpt>
      <trkpt lat="47.85139" lon="7.03225">
        <ele>445.2</ele>
        <time>2021-08-09T08:38:59Z</time>
      </trkpt>
      <trkpt lat="47.85138" lon="7.03223">
        <ele>445.3</ele>
        <time>2021-08-09T08:39:00Z</time>
      </trkpt>
      <trkpt lat="47.85136" lon="7.0322">
        <ele>445.5</ele>
        <time>2021-08-09T08:39:01Z</time>
      </trkpt>
      <trkpt lat="47.85134" lon="7.03218">
        <ele>445.7</ele>
        <time>2021-08-09T08:39:02Z</time>
      </trkpt>
      <trkpt lat="47.8513" lon="7.03212">
        <ele>446</ele>
        <time>2021-08-09T08:39:04Z</time>
      </trkpt>
      <trkpt lat="47.85128" lon="7.03209">
        <ele>446.2</ele>
        <time>2021-08-09T08:39:05Z</time>
      </trkpt>
      <trkpt lat="47.85128" lon="7.03208">
        <ele>446.2</ele>
        <time>2021-08-09T08:39:06Z</time>
      </trkpt>
      <trkpt lat="47.85126" lon="7.03202">
        <ele>446.5</ele>
        <time>2021-08-09T08:39:08Z</time>
      </trkpt>
      <trkpt lat="47.85126" lon="7.03202">
        <ele>446.5</ele>
        <time>2021-08-09T08:39:09Z</time>
      </trkpt>
      <trkpt lat="47.85126" lon="7.03201">
        <ele>446.6</ele>
        <time>2021-08-09T08:39:11Z</time>
      </trkpt>
      <trkpt lat="47.85126" lon="7.03198">
        <ele>446.7</ele>
        <time>2021-08-09T08:39:13Z</time>
      </trkpt>
      <trkpt lat="47.85125" lon="7.03195">
        <ele>446.9</ele>
        <time>2021-08-09T08:39:14Z</time>
      </trkpt>
      <trkpt lat="47.85124" lon="7.03194">
        <ele>446.9</ele>
        <time>2021-08-09T08:39:15Z</time>
      </trkpt>
      <trkpt lat="47.85124" lon="7.03193">
        <ele>447</ele>
        <time>2021-08-09T08:39:16Z</time>
      </trkpt>
      <trkpt lat="47.85123" lon="7.03191">
        <ele>447.1</ele>
        <time>2021-08-09T08:39:18Z</time>
      </trkpt>
      <trkpt lat="47.8512" lon="7.03188">
        <ele>447.3</ele>
        <time>2021-08-09T08:39:19Z</time>
      </trkpt>
      <trkpt lat="47.85118" lon="7.03185">
        <ele>447.4</ele>
        <time>2021-08-09T08:39:20Z</time>
      </trkpt>
      <trkpt lat="47.85115" lon="7.03183">
        <ele>447.7</ele>
        <time>2021-08-09T08:39:22Z</time>
      </trkpt>
      <trkpt lat="47.85111" lon="7.03181">
        <ele>447.9</ele>
        <time>2021-08-09T08:39:23Z</time>
      </trkpt>
      <trkpt lat="47.85108" lon="7.03181">
        <ele>448.1</ele>
        <time>2021-08-09T08:39:24Z</time>
      </trkpt>
      <trkpt lat="47.85104" lon="7.03179">
        <ele>448.3</ele>
        <time>2021-08-09T08:39:26Z</time>
      </trkpt>
      <trkpt lat="47.85101" lon="7.03177">
        <ele>448.6</ele>
        <time>2021-08-09T08:39:27Z</time>
      </trkpt>
      <trkpt lat="47.85099" lon="7.03176">
        <ele>448.6</ele>
        <time>2021-08-09T08:39:28Z</time>
      </trkpt>
      <trkpt lat="47.85097" lon="7.03174">
        <ele>448.8</ele>
        <time>2021-08-09T08:39:29Z</time>
      </trkpt>
      <trkpt lat="47.85094" lon="7.03171">
        <ele>449</ele>
        <time>2021-08-09T08:39:30Z</time>
      </trkpt>
      <trkpt lat="47.85094" lon="7.0317">
        <ele>449.1</ele>
        <time>2021-08-09T08:39:31Z</time>
      </trkpt>
      <trkpt lat="47.85093" lon="7.03164">
        <ele>449.3</ele>
        <time>2021-08-09T08:39:33Z</time>
      </trkpt>
      <trkpt lat="47.85091" lon="7.03161">
        <ele>449.5</ele>
        <time>2021-08-09T08:39:34Z</time>
      </trkpt>
      <trkpt lat="47.8509" lon="7.03159">
        <ele>449.6</ele>
        <time>2021-08-09T08:39:35Z</time>
      </trkpt>
      <trkpt lat="47.85087" lon="7.03156">
        <ele>449.8</ele>
        <time>2021-08-09T08:39:37Z</time>
      </trkpt>
      <trkpt lat="47.85086" lon="7.03154">
        <ele>449.9</ele>
        <time>2021-08-09T08:39:38Z</time>
      </trkpt>
      <trkpt lat="47.85085" lon="7.0315">
        <ele>450.1</ele>
        <time>2021-08-09T08:39:40Z</time>
      </trkpt>
      <trkpt lat="47.85083" lon="7.03144">
        <ele>450.3</ele>
        <time>2021-08-09T08:39:42Z</time>
      </trkpt>
      <trkpt lat="47.85082" lon="7.03143">
        <ele>450.4</ele>
        <time>2021-08-09T08:39:44Z</time>
      </trkpt>
      <trkpt lat="47.85081" lon="7.03142">
        <ele>450.5</ele>
        <time>2021-08-09T08:39:45Z</time>
      </trkpt>
      <trkpt lat="47.85078" lon="7.03139">
        <ele>450.7</ele>
        <time>2021-08-09T08:39:46Z</time>
      </trkpt>
      <trkpt lat="47.85077" lon="7.03138">
        <ele>450.8</ele>
        <time>2021-08-09T08:39:47Z</time>
      </trkpt>
      <trkpt lat="47.85075" lon="7.03135">
        <ele>451</ele>
        <time>2021-08-09T08:39:49Z</time>
      </trkpt>
      <trkpt lat="47.85073" lon="7.03133">
        <ele>451.3</ele>
        <time>2021-08-09T08:39:50Z</time>
      </trkpt>
      <trkpt lat="47.85073" lon="7.03133">
        <ele>451.3</ele>
        <time>2021-08-09T08:39:51Z</time>
      </trkpt>
      <trkpt lat="47.85074" lon="7.03132">
        <ele>451.4</ele>
        <time>2021-08-09T08:39:52Z</time>
      </trkpt>
      <trkpt lat="47.85075" lon="7.03131">
        <ele>451.5</ele>
        <time>2021-08-09T08:39:53Z</time>
      </trkpt>
      <trkpt lat="47.85075" lon="7.03131">
        <ele>451.6</ele>
        <time>2021-08-09T08:39:55Z</time>
      </trkpt>
      <trkpt lat="47.85075" lon="7.0313">
        <ele>451.6</ele>
        <time>2021-08-09T08:39:56Z</time>
      </trkpt>
      <trkpt lat="47.85074" lon="7.03128">
        <ele>451.8</ele>
        <time>2021-08-09T08:39:58Z</time>
      </trkpt>
      <trkpt lat="47.85074" lon="7.03127">
        <ele>451.9</ele>
        <time>2021-08-09T08:39:59Z</time>
      </trkpt>
      <trkpt lat="47.85029" lon="7.03095">
        <ele>456.9</ele>
        <time>2021-08-09T08:40:27Z</time>
      </trkpt>
      <trkpt lat="47.85023" lon="7.03094">
        <ele>457.4</ele>
        <time>2021-08-09T08:40:28Z</time>
      </trkpt>
      <trkpt lat="47.85018" lon="7.03093">
        <ele>457.7</ele>
        <time>2021-08-09T08:40:30Z</time>
      </trkpt>
      <trkpt lat="47.85017" lon="7.03091">
        <ele>457.8</ele>
        <time>2021-08-09T08:40:32Z</time>
      </trkpt>
      <trkpt lat="47.85019" lon="7.0309">
        <ele>458</ele>
        <time>2021-08-09T08:40:34Z</time>
      </trkpt>
      <trkpt lat="47.85019" lon="7.0309">
        <ele>458</ele>
        <time>2021-08-09T08:40:35Z</time>
      </trkpt>
      <trkpt lat="47.8502" lon="7.0309">
        <ele>458</ele>
        <time>2021-08-09T08:40:36Z</time>
      </trkpt>
      <trkpt lat="47.8502" lon="7.03089">
        <ele>458.1</ele>
        <time>2021-08-09T08:40:37Z</time>
      </trkpt>
      <trkpt lat="47.8502" lon="7.03089">
        <ele>458.1</ele>
        <time>2021-08-09T08:40:38Z</time>
      </trkpt>
      <trkpt lat="47.85021" lon="7.03088">
        <ele>458.1</ele>
        <time>2021-08-09T08:40:39Z</time>
      </trkpt>
      <trkpt lat="47.85007" lon="7.03064">
        <ele>459.2</ele>
        <time>2021-08-09T08:40:54Z</time>
      </trkpt>
      <trkpt lat="47.85005" lon="7.03062">
        <ele>459.3</ele>
        <time>2021-08-09T08:40:55Z</time>
      </trkpt>
      <trkpt lat="47.85003" lon="7.0306">
        <ele>459.4</ele>
        <time>2021-08-09T08:40:57Z</time>
      </trkpt>
      <trkpt lat="47.85001" lon="7.03056">
        <ele>459.6</ele>
        <time>2021-08-09T08:40:59Z</time>
      </trkpt>
      <trkpt lat="47.85001" lon="7.03053">
        <ele>459.7</ele>
        <time>2021-08-09T08:41:00Z</time>
      </trkpt>
      <trkpt lat="47.84999" lon="7.03044">
        <ele>460</ele>
        <time>2021-08-09T08:41:02Z</time>
      </trkpt>
      <trkpt lat="47.84999" lon="7.03037">
        <ele>460.2</ele>
        <time>2021-08-09T08:41:04Z</time>
      </trkpt>
      <trkpt lat="47.84998" lon="7.03032">
        <ele>460.4</ele>
        <time>2021-08-09T08:41:05Z</time>
      </trkpt>
      <trkpt lat="47.84995" lon="7.03027">
        <ele>460.7</ele>
        <time>2021-08-09T08:41:06Z</time>
      </trkpt>
      <trkpt lat="47.84993" lon="7.03022">
        <ele>460.9</ele>
        <time>2021-08-09T08:41:07Z</time>
      </trkpt>
      <trkpt lat="47.84992" lon="7.03017">
        <ele>461.1</ele>
        <time>2021-08-09T08:41:09Z</time>
      </trkpt>
      <trkpt lat="47.84988" lon="7.03012">
        <ele>461.5</ele>
        <time>2021-08-09T08:41:11Z</time>
      </trkpt>
      <trkpt lat="47.84986" lon="7.0301">
        <ele>461.6</ele>
        <time>2021-08-09T08:41:12Z</time>
      </trkpt>
      <trkpt lat="47.84985" lon="7.03005">
        <ele>461.8</ele>
        <time>2021-08-09T08:41:14Z</time>
      </trkpt>
      <trkpt lat="47.84983" lon="7.03001">
        <ele>462</ele>
        <time>2021-08-09T08:41:15Z</time>
      </trkpt>
      <trkpt lat="47.84981" lon="7.02999">
        <ele>462.2</ele>
        <time>2021-08-09T08:41:16Z</time>
      </trkpt>
      <trkpt lat="47.8498" lon="7.02999">
        <ele>462.3</ele>
        <time>2021-08-09T08:41:17Z</time>
      </trkpt>
      <trkpt lat="47.84979" lon="7.02996">
        <ele>462.4</ele>
        <time>2021-08-09T08:41:18Z</time>
      </trkpt>
      <trkpt lat="47.84978" lon="7.02995">
        <ele>462.5</ele>
        <time>2021-08-09T08:41:19Z</time>
      </trkpt>
      <trkpt lat="47.84977" lon="7.02992">
        <ele>462.6</ele>
        <time>2021-08-09T08:41:21Z</time>
      </trkpt>
      <trkpt lat="47.84978" lon="7.0299">
        <ele>462.8</ele>
        <time>2021-08-09T08:41:22Z</time>
      </trkpt>
      <trkpt lat="47.84977" lon="7.02985">
        <ele>463</ele>
        <time>2021-08-09T08:41:24Z</time>
      </trkpt>
      <trkpt lat="47.84976" lon="7.02984">
        <ele>463.1</ele>
        <time>2021-08-09T08:41:25Z</time>
      </trkpt>
      <trkpt lat="47.84976" lon="7.02981">
        <ele>463.2</ele>
        <time>2021-08-09T08:41:27Z</time>
      </trkpt>
      <trkpt lat="47.84975" lon="7.02979">
        <ele>463.3</ele>
        <time>2021-08-09T08:41:28Z</time>
      </trkpt>
      <trkpt lat="47.84971" lon="7.02975">
        <ele>463.7</ele>
        <time>2021-08-09T08:41:30Z</time>
      </trkpt>
      <trkpt lat="47.8497" lon="7.02973">
        <ele>463.8</ele>
        <time>2021-08-09T08:41:31Z</time>
      </trkpt>
      <trkpt lat="47.84969" lon="7.02972">
        <ele>464</ele>
        <time>2021-08-09T08:41:32Z</time>
      </trkpt>
      <trkpt lat="47.84965" lon="7.02969">
        <ele>464.4</ele>
        <time>2021-08-09T08:41:34Z</time>
      </trkpt>
      <trkpt lat="47.84962" lon="7.02967">
        <ele>464.7</ele>
        <time>2021-08-09T08:41:35Z</time>
      </trkpt>
      <trkpt lat="47.84959" lon="7.02964">
        <ele>465</ele>
        <time>2021-08-09T08:41:37Z</time>
      </trkpt>
      <trkpt lat="47.84958" lon="7.02959">
        <ele>465.4</ele>
        <time>2021-08-09T08:41:39Z</time>
      </trkpt>
      <trkpt lat="47.84955" lon="7.02956">
        <ele>465.7</ele>
        <time>2021-08-09T08:41:40Z</time>
      </trkpt>
      <trkpt lat="47.84955" lon="7.02955">
        <ele>465.8</ele>
        <time>2021-08-09T08:41:41Z</time>
      </trkpt>
      <trkpt lat="47.84952" lon="7.0295">
        <ele>466.2</ele>
        <time>2021-08-09T08:41:43Z</time>
      </trkpt>
      <trkpt lat="47.84951" lon="7.02948">
        <ele>466.4</ele>
        <time>2021-08-09T08:41:45Z</time>
      </trkpt>
      <trkpt lat="47.84951" lon="7.02947">
        <ele>466.5</ele>
        <time>2021-08-09T08:41:46Z</time>
      </trkpt>
      <trkpt lat="47.8495" lon="7.02941">
        <ele>466.9</ele>
        <time>2021-08-09T08:41:48Z</time>
      </trkpt>
      <trkpt lat="47.8495" lon="7.0294">
        <ele>467</ele>
        <time>2021-08-09T08:41:49Z</time>
      </trkpt>
      <trkpt lat="47.84949" lon="7.02938">
        <ele>467.1</ele>
        <time>2021-08-09T08:41:50Z</time>
      </trkpt>
      <trkpt lat="47.84948" lon="7.02936">
        <ele>467.2</ele>
        <time>2021-08-09T08:41:51Z</time>
      </trkpt>
      <trkpt lat="47.84948" lon="7.02933">
        <ele>467.5</ele>
        <time>2021-08-09T08:41:53Z</time>
      </trkpt>
      <trkpt lat="47.84949" lon="7.02929">
        <ele>467.7</ele>
        <time>2021-08-09T08:41:55Z</time>
      </trkpt>
      <trkpt lat="47.84949" lon="7.02929">
        <ele>467.7</ele>
        <time>2021-08-09T08:41:56Z</time>
      </trkpt>
      <trkpt lat="47.84948" lon="7.02928">
        <ele>467.7</ele>
        <time>2021-08-09T08:41:57Z</time>
      </trkpt>
      <trkpt lat="47.84947" lon="7.02924">
        <ele>468</ele>
        <time>2021-08-09T08:41:59Z</time>
      </trkpt>
      <trkpt lat="47.84947" lon="7.02922">
        <ele>468.1</ele>
        <time>2021-08-09T08:42:00Z</time>
      </trkpt>
      <trkpt lat="47.84946" lon="7.02919">
        <ele>468.2</ele>
        <time>2021-08-09T08:42:01Z</time>
      </trkpt>
      <trkpt lat="47.84944" lon="7.02916">
        <ele>468.5</ele>
        <time>2021-08-09T08:42:03Z</time>
      </trkpt>
      <trkpt lat="47.84943" lon="7.02913">
        <ele>468.6</ele>
        <time>2021-08-09T08:42:05Z</time>
      </trkpt>
      <trkpt lat="47.84941" lon="7.0291">
        <ele>468.8</ele>
        <time>2021-08-09T08:42:07Z</time>
      </trkpt>
      <trkpt lat="47.84939" lon="7.02906">
        <ele>468.9</ele>
        <time>2021-08-09T08:42:08Z</time>
      </trkpt>
      <trkpt lat="47.84936" lon="7.029">
        <ele>469.2</ele>
        <time>2021-08-09T08:42:10Z</time>
      </trkpt>
      <trkpt lat="47.84934" lon="7.02897">
        <ele>469.3</ele>
        <time>2021-08-09T08:42:11Z</time>
      </trkpt>
      <trkpt lat="47.84932" lon="7.02893">
        <ele>469.4</ele>
        <time>2021-08-09T08:42:12Z</time>
      </trkpt>
      <trkpt lat="47.84925" lon="7.02888">
        <ele>469.6</ele>
        <time>2021-08-09T08:42:14Z</time>
      </trkpt>
      <trkpt lat="47.8492" lon="7.02884">
        <ele>469.8</ele>
        <time>2021-08-09T08:42:16Z</time>
      </trkpt>
      <trkpt lat="47.84917" lon="7.02881">
        <ele>469.9</ele>
        <time>2021-08-09T08:42:17Z</time>
      </trkpt>
      <trkpt lat="47.84915" lon="7.02877">
        <ele>470</ele>
        <time>2021-08-09T08:42:18Z</time>
      </trkpt>
      <trkpt lat="47.84913" lon="7.02872">
        <ele>470.1</ele>
        <time>2021-08-09T08:42:19Z</time>
      </trkpt>
      <trkpt lat="47.84912" lon="7.0287">
        <ele>470.2</ele>
        <time>2021-08-09T08:42:20Z</time>
      </trkpt>
      <trkpt lat="47.84911" lon="7.02864">
        <ele>470.3</ele>
        <time>2021-08-09T08:42:22Z</time>
      </trkpt>
      <trkpt lat="47.8491" lon="7.02862">
        <ele>470.4</ele>
        <time>2021-08-09T08:42:23Z</time>
      </trkpt>
      <trkpt lat="47.8491" lon="7.02859">
        <ele>470.5</ele>
        <time>2021-08-09T08:42:24Z</time>
      </trkpt>
      <trkpt lat="47.8491" lon="7.02855">
        <ele>470.6</ele>
        <time>2021-08-09T08:42:25Z</time>
      </trkpt>
      <trkpt lat="47.8491" lon="7.02853">
        <ele>470.6</ele>
        <time>2021-08-09T08:42:26Z</time>
      </trkpt>
      <trkpt lat="47.84909" lon="7.02846">
        <ele>470.8</ele>
        <time>2021-08-09T08:42:28Z</time>
      </trkpt>
      <trkpt lat="47.84908" lon="7.02844">
        <ele>470.9</ele>
        <time>2021-08-09T08:42:29Z</time>
      </trkpt>
      <trkpt lat="47.84907" lon="7.02842">
        <ele>470.9</ele>
        <time>2021-08-09T08:42:30Z</time>
      </trkpt>
      <trkpt lat="47.84905" lon="7.02841">
        <ele>471.1</ele>
        <time>2021-08-09T08:42:31Z</time>
      </trkpt>
      <trkpt lat="47.84902" lon="7.02836">
        <ele>471.2</ele>
        <time>2021-08-09T08:42:33Z</time>
      </trkpt>
      <trkpt lat="47.84902" lon="7.02834">
        <ele>471.3</ele>
        <time>2021-08-09T08:42:34Z</time>
      </trkpt>
      <trkpt lat="47.84901" lon="7.02832">
        <ele>471.4</ele>
        <time>2021-08-09T08:42:35Z</time>
      </trkpt>
      <trkpt lat="47.849" lon="7.02828">
        <ele>471.5</ele>
        <time>2021-08-09T08:42:37Z</time>
      </trkpt>
      <trkpt lat="47.84901" lon="7.02826">
        <ele>471.6</ele>
        <time>2021-08-09T08:42:39Z</time>
      </trkpt>
      <trkpt lat="47.84901" lon="7.02824">
        <ele>471.6</ele>
        <time>2021-08-09T08:42:41Z</time>
      </trkpt>
      <trkpt lat="47.849" lon="7.02823">
        <ele>471.7</ele>
        <time>2021-08-09T08:42:42Z</time>
      </trkpt>
      <trkpt lat="47.849" lon="7.02821">
        <ele>471.7</ele>
        <time>2021-08-09T08:42:43Z</time>
      </trkpt>
      <trkpt lat="47.84898" lon="7.02817">
        <ele>471.8</ele>
        <time>2021-08-09T08:42:44Z</time>
      </trkpt>
      <trkpt lat="47.84898" lon="7.02816">
        <ele>471.9</ele>
        <time>2021-08-09T08:42:45Z</time>
      </trkpt>
      <trkpt lat="47.84896" lon="7.02811">
        <ele>472</ele>
        <time>2021-08-09T08:42:46Z</time>
      </trkpt>
      <trkpt lat="47.84894" lon="7.02808">
        <ele>472.2</ele>
        <time>2021-08-09T08:42:48Z</time>
      </trkpt>
      <trkpt lat="47.84891" lon="7.02803">
        <ele>472.4</ele>
        <time>2021-08-09T08:42:49Z</time>
      </trkpt>
      <trkpt lat="47.84889" lon="7.028">
        <ele>472.5</ele>
        <time>2021-08-09T08:42:50Z</time>
      </trkpt>
      <trkpt lat="47.84887" lon="7.02797">
        <ele>472.5</ele>
        <time>2021-08-09T08:42:51Z</time>
      </trkpt>
      <trkpt lat="47.84886" lon="7.02789">
        <ele>472.5</ele>
        <time>2021-08-09T08:42:53Z</time>
      </trkpt>
      <trkpt lat="47.84887" lon="7.02784">
        <ele>472.6</ele>
        <time>2021-08-09T08:42:54Z</time>
      </trkpt>
      <trkpt lat="47.84888" lon="7.02782">
        <ele>472.6</ele>
        <time>2021-08-09T08:42:55Z</time>
      </trkpt>
      <trkpt lat="47.8489" lon="7.02776">
        <ele>472.7</ele>
        <time>2021-08-09T08:42:57Z</time>
      </trkpt>
      <trkpt lat="47.84891" lon="7.02772">
        <ele>472.7</ele>
        <time>2021-08-09T08:42:58Z</time>
      </trkpt>
      <trkpt lat="47.84893" lon="7.02765">
        <ele>472.8</ele>
        <time>2021-08-09T08:43:00Z</time>
      </trkpt>
      <trkpt lat="47.84893" lon="7.02763">
        <ele>472.8</ele>
        <time>2021-08-09T08:43:01Z</time>
      </trkpt>
      <trkpt lat="47.84893" lon="7.0276">
        <ele>472.8</ele>
        <time>2021-08-09T08:43:02Z</time>
      </trkpt>
      <trkpt lat="47.84893" lon="7.02754">
        <ele>472.9</ele>
        <time>2021-08-09T08:43:03Z</time>
      </trkpt>
      <trkpt lat="47.84893" lon="7.02753">
        <ele>472.9</ele>
        <time>2021-08-09T08:43:04Z</time>
      </trkpt>
      <trkpt lat="47.84891" lon="7.02749">
        <ele>473</ele>
        <time>2021-08-09T08:43:06Z</time>
      </trkpt>
      <trkpt lat="47.8489" lon="7.02744">
        <ele>473.1</ele>
        <time>2021-08-09T08:43:07Z</time>
      </trkpt>
      <trkpt lat="47.84889" lon="7.02741">
        <ele>473.2</ele>
        <time>2021-08-09T08:43:08Z</time>
      </trkpt>
      <trkpt lat="47.84886" lon="7.02732">
        <ele>473.3</ele>
        <time>2021-08-09T08:43:10Z</time>
      </trkpt>
      <trkpt lat="47.84887" lon="7.02726">
        <ele>473.5</ele>
        <time>2021-08-09T08:43:11Z</time>
      </trkpt>
      <trkpt lat="47.84887" lon="7.02724">
        <ele>473.5</ele>
        <time>2021-08-09T08:43:12Z</time>
      </trkpt>
      <trkpt lat="47.84888" lon="7.02716">
        <ele>473.7</ele>
        <time>2021-08-09T08:43:14Z</time>
      </trkpt>
      <trkpt lat="47.84889" lon="7.02711">
        <ele>473.8</ele>
        <time>2021-08-09T08:43:15Z</time>
      </trkpt>
      <trkpt lat="47.84889" lon="7.0271">
        <ele>473.9</ele>
        <time>2021-08-09T08:43:16Z</time>
      </trkpt>
      <trkpt lat="47.8489" lon="7.02708">
        <ele>473.9</ele>
        <time>2021-08-09T08:43:17Z</time>
      </trkpt>
      <trkpt lat="47.8489" lon="7.02706">
        <ele>474</ele>
        <time>2021-08-09T08:43:18Z</time>
      </trkpt>
      <trkpt lat="47.8489" lon="7.02704">
        <ele>474.1</ele>
        <time>2021-08-09T08:43:19Z</time>
      </trkpt>
      <trkpt lat="47.84888" lon="7.027">
        <ele>474.2</ele>
        <time>2021-08-09T08:43:20Z</time>
      </trkpt>
      <trkpt lat="47.84887" lon="7.02697">
        <ele>474.3</ele>
        <time>2021-08-09T08:43:22Z</time>
      </trkpt>
      <trkpt lat="47.84886" lon="7.02695">
        <ele>474.3</ele>
        <time>2021-08-09T08:43:23Z</time>
      </trkpt>
      <trkpt lat="47.84886" lon="7.02692">
        <ele>474.4</ele>
        <time>2021-08-09T08:43:24Z</time>
      </trkpt>
      <trkpt lat="47.84886" lon="7.02692">
        <ele>474.4</ele>
        <time>2021-08-09T08:43:24Z</time>
      </trkpt>
      <trkpt lat="47.84885" lon="7.02689">
        <ele>474.5</ele>
        <time>2021-08-09T08:43:25Z</time>
      </trkpt>
      <trkpt lat="47.8488" lon="7.02684">
        <ele>474.8</ele>
        <time>2021-08-09T08:43:27Z</time>
      </trkpt>
      <trkpt lat="47.84877" lon="7.02682">
        <ele>474.9</ele>
        <time>2021-08-09T08:43:28Z</time>
      </trkpt>
      <trkpt lat="47.84875" lon="7.02679">
        <ele>475</ele>
        <time>2021-08-09T08:43:29Z</time>
      </trkpt>
      <trkpt lat="47.84874" lon="7.02677">
        <ele>475.1</ele>
        <time>2021-08-09T08:43:30Z</time>
      </trkpt>
      <trkpt lat="47.84873" lon="7.02672">
        <ele>475.2</ele>
        <time>2021-08-09T08:43:31Z</time>
      </trkpt>
      <trkpt lat="47.84872" lon="7.02671">
        <ele>475.3</ele>
        <time>2021-08-09T08:43:32Z</time>
      </trkpt>
      <trkpt lat="47.84872" lon="7.02666">
        <ele>475.4</ele>
        <time>2021-08-09T08:43:33Z</time>
      </trkpt>
      <trkpt lat="47.84871" lon="7.02661">
        <ele>475.6</ele>
        <time>2021-08-09T08:43:35Z</time>
      </trkpt>
      <trkpt lat="47.8487" lon="7.02656">
        <ele>475.7</ele>
        <time>2021-08-09T08:43:36Z</time>
      </trkpt>
      <trkpt lat="47.84869" lon="7.02655">
        <ele>475.8</ele>
        <time>2021-08-09T08:43:37Z</time>
      </trkpt>
      <trkpt lat="47.84867" lon="7.02651">
        <ele>475.9</ele>
        <time>2021-08-09T08:43:38Z</time>
      </trkpt>
      <trkpt lat="47.84867" lon="7.02649">
        <ele>476</ele>
        <time>2021-08-09T08:43:39Z</time>
      </trkpt>
      <trkpt lat="47.84866" lon="7.02646">
        <ele>476.1</ele>
        <time>2021-08-09T08:43:40Z</time>
      </trkpt>
      <trkpt lat="47.84862" lon="7.02642">
        <ele>476.3</ele>
        <time>2021-08-09T08:43:42Z</time>
      </trkpt>
      <trkpt lat="47.84858" lon="7.02639">
        <ele>476.5</ele>
        <time>2021-08-09T08:43:43Z</time>
      </trkpt>
      <trkpt lat="47.8485" lon="7.02637">
        <ele>476.8</ele>
        <time>2021-08-09T08:43:45Z</time>
      </trkpt>
      <trkpt lat="47.84847" lon="7.02635">
        <ele>477</ele>
        <time>2021-08-09T08:43:46Z</time>
      </trkpt>
      <trkpt lat="47.84845" lon="7.02633">
        <ele>477.1</ele>
        <time>2021-08-09T08:43:47Z</time>
      </trkpt>
      <trkpt lat="47.84844" lon="7.0263">
        <ele>477.2</ele>
        <time>2021-08-09T08:43:49Z</time>
      </trkpt>
      <trkpt lat="47.84843" lon="7.02628">
        <ele>477.3</ele>
        <time>2021-08-09T08:43:50Z</time>
      </trkpt>
      <trkpt lat="47.84842" lon="7.02627">
        <ele>477.4</ele>
        <time>2021-08-09T08:43:51Z</time>
      </trkpt>
      <trkpt lat="47.84839" lon="7.02623">
        <ele>477.6</ele>
        <time>2021-08-09T08:43:53Z</time>
      </trkpt>
      <trkpt lat="47.84838" lon="7.02622">
        <ele>477.7</ele>
        <time>2021-08-09T08:43:54Z</time>
      </trkpt>
      <trkpt lat="47.84839" lon="7.0262">
        <ele>477.8</ele>
        <time>2021-08-09T08:43:56Z</time>
      </trkpt>
      <trkpt lat="47.84839" lon="7.02619">
        <ele>477.8</ele>
        <time>2021-08-09T08:43:57Z</time>
      </trkpt>
      <trkpt lat="47.84838" lon="7.02616">
        <ele>478</ele>
        <time>2021-08-09T08:43:58Z</time>
      </trkpt>
      <trkpt lat="47.84837" lon="7.02614">
        <ele>478.1</ele>
        <time>2021-08-09T08:43:59Z</time>
      </trkpt>
      <trkpt lat="47.84837" lon="7.02612">
        <ele>478.1</ele>
        <time>2021-08-09T08:44:00Z</time>
      </trkpt>
      <trkpt lat="47.84836" lon="7.02607">
        <ele>478.4</ele>
        <time>2021-08-09T08:44:02Z</time>
      </trkpt>
      <trkpt lat="47.84834" lon="7.02601">
        <ele>478.7</ele>
        <time>2021-08-09T08:44:03Z</time>
      </trkpt>
      <trkpt lat="47.84833" lon="7.02599">
        <ele>478.8</ele>
        <time>2021-08-09T08:44:04Z</time>
      </trkpt>
      <trkpt lat="47.84831" lon="7.02595">
        <ele>479</ele>
        <time>2021-08-09T08:44:05Z</time>
      </trkpt>
      <trkpt lat="47.84831" lon="7.02594">
        <ele>479.1</ele>
        <time>2021-08-09T08:44:06Z</time>
      </trkpt>
      <trkpt lat="47.8483" lon="7.02587">
        <ele>479.4</ele>
        <time>2021-08-09T08:44:08Z</time>
      </trkpt>
      <trkpt lat="47.8483" lon="7.02585">
        <ele>479.5</ele>
        <time>2021-08-09T08:44:09Z</time>
      </trkpt>
      <trkpt lat="47.8483" lon="7.02583">
        <ele>479.6</ele>
        <time>2021-08-09T08:44:10Z</time>
      </trkpt>
      <trkpt lat="47.84829" lon="7.02577">
        <ele>479.9</ele>
        <time>2021-08-09T08:44:12Z</time>
      </trkpt>
      <trkpt lat="47.84829" lon="7.02574">
        <ele>480</ele>
        <time>2021-08-09T08:44:13Z</time>
      </trkpt>
      <trkpt lat="47.84828" lon="7.02572">
        <ele>480.1</ele>
        <time>2021-08-09T08:44:14Z</time>
      </trkpt>
      <trkpt lat="47.84826" lon="7.02568">
        <ele>480.4</ele>
        <time>2021-08-09T08:44:16Z</time>
      </trkpt>
      <trkpt lat="47.84824" lon="7.02566">
        <ele>480.6</ele>
        <time>2021-08-09T08:44:17Z</time>
      </trkpt>
      <trkpt lat="47.84821" lon="7.02565">
        <ele>480.8</ele>
        <time>2021-08-09T08:44:18Z</time>
      </trkpt>
      <trkpt lat="47.8482" lon="7.02562">
        <ele>481</ele>
        <time>2021-08-09T08:44:20Z</time>
      </trkpt>
      <trkpt lat="47.84819" lon="7.0256">
        <ele>481.1</ele>
        <time>2021-08-09T08:44:21Z</time>
      </trkpt>
      <trkpt lat="47.84816" lon="7.02558">
        <ele>481.3</ele>
        <time>2021-08-09T08:44:22Z</time>
      </trkpt>
      <trkpt lat="47.84815" lon="7.02557">
        <ele>481.4</ele>
        <time>2021-08-09T08:44:23Z</time>
      </trkpt>
      <trkpt lat="47.84812" lon="7.02556">
        <ele>481.7</ele>
        <time>2021-08-09T08:44:24Z</time>
      </trkpt>
      <trkpt lat="47.84809" lon="7.02555">
        <ele>482</ele>
        <time>2021-08-09T08:44:25Z</time>
      </trkpt>
      <trkpt lat="47.84806" lon="7.02554">
        <ele>482.2</ele>
        <time>2021-08-09T08:44:26Z</time>
      </trkpt>
      <trkpt lat="47.84803" lon="7.02553">
        <ele>482.4</ele>
        <time>2021-08-09T08:44:27Z</time>
      </trkpt>
      <trkpt lat="47.84801" lon="7.0255">
        <ele>482.7</ele>
        <time>2021-08-09T08:44:29Z</time>
      </trkpt>
      <trkpt lat="47.84801" lon="7.02549">
        <ele>482.7</ele>
        <time>2021-08-09T08:44:30Z</time>
      </trkpt>
      <trkpt lat="47.84799" lon="7.02546">
        <ele>483</ele>
        <time>2021-08-09T08:44:32Z</time>
      </trkpt>
      <trkpt lat="47.84798" lon="7.02545">
        <ele>483.1</ele>
        <time>2021-08-09T08:44:33Z</time>
      </trkpt>
      <trkpt lat="47.84795" lon="7.02543">
        <ele>483.3</ele>
        <time>2021-08-09T08:44:35Z</time>
      </trkpt>
      <trkpt lat="47.8479" lon="7.02543">
        <ele>483.7</ele>
        <time>2021-08-09T08:44:36Z</time>
      </trkpt>
      <trkpt lat="47.84787" lon="7.02542">
        <ele>484</ele>
        <time>2021-08-09T08:44:37Z</time>
      </trkpt>
      <trkpt lat="47.84783" lon="7.02541">
        <ele>484.3</ele>
        <time>2021-08-09T08:44:39Z</time>
      </trkpt>
      <trkpt lat="47.84781" lon="7.0254">
        <ele>484.5</ele>
        <time>2021-08-09T08:44:40Z</time>
      </trkpt>
      <trkpt lat="47.84781" lon="7.02538">
        <ele>484.6</ele>
        <time>2021-08-09T08:44:41Z</time>
      </trkpt>
      <trkpt lat="47.84781" lon="7.02535">
        <ele>484.8</ele>
        <time>2021-08-09T08:44:42Z</time>
      </trkpt>
      <trkpt lat="47.84781" lon="7.02533">
        <ele>484.9</ele>
        <time>2021-08-09T08:44:44Z</time>
      </trkpt>
      <trkpt lat="47.84782" lon="7.02531">
        <ele>485</ele>
        <time>2021-08-09T08:44:45Z</time>
      </trkpt>
      <trkpt lat="47.84782" lon="7.0253">
        <ele>485</ele>
        <time>2021-08-09T08:44:46Z</time>
      </trkpt>
      <trkpt lat="47.84782" lon="7.02529">
        <ele>485.1</ele>
        <time>2021-08-09T08:44:47Z</time>
      </trkpt>
      <trkpt lat="47.84782" lon="7.02528">
        <ele>485.1</ele>
        <time>2021-08-09T08:44:48Z</time>
      </trkpt>
      <trkpt lat="47.84782" lon="7.02527">
        <ele>485.2</ele>
        <time>2021-08-09T08:44:49Z</time>
      </trkpt>
      <trkpt lat="47.84781" lon="7.02524">
        <ele>485.3</ele>
        <time>2021-08-09T08:44:51Z</time>
      </trkpt>
      <trkpt lat="47.84781" lon="7.02522">
        <ele>485.4</ele>
        <time>2021-08-09T08:44:52Z</time>
      </trkpt>
      <trkpt lat="47.84781" lon="7.02521">
        <ele>485.5</ele>
        <time>2021-08-09T08:44:53Z</time>
      </trkpt>
      <trkpt lat="47.84781" lon="7.0252">
        <ele>485.5</ele>
        <time>2021-08-09T08:44:54Z</time>
      </trkpt>
      <trkpt lat="47.84781" lon="7.02518">
        <ele>485.6</ele>
        <time>2021-08-09T08:44:55Z</time>
      </trkpt>
      <trkpt lat="47.84781" lon="7.02516">
        <ele>485.7</ele>
        <time>2021-08-09T08:44:56Z</time>
      </trkpt>
      <trkpt lat="47.8478" lon="7.02513">
        <ele>485.8</ele>
        <time>2021-08-09T08:44:58Z</time>
      </trkpt>
      <trkpt lat="47.8478" lon="7.02512">
        <ele>485.9</ele>
        <time>2021-08-09T08:44:59Z</time>
      </trkpt>
      <trkpt lat="47.84779" lon="7.02505">
        <ele>486.2</ele>
        <time>2021-08-09T08:45:01Z</time>
      </trkpt>
      <trkpt lat="47.84779" lon="7.02499">
        <ele>486.4</ele>
        <time>2021-08-09T08:45:02Z</time>
      </trkpt>
      <trkpt lat="47.84779" lon="7.02497">
        <ele>486.5</ele>
        <time>2021-08-09T08:45:03Z</time>
      </trkpt>
      <trkpt lat="47.84779" lon="7.02492">
        <ele>486.7</ele>
        <time>2021-08-09T08:45:04Z</time>
      </trkpt>
      <trkpt lat="47.84779" lon="7.02491">
        <ele>486.7</ele>
        <time>2021-08-09T08:45:05Z</time>
      </trkpt>
      <trkpt lat="47.84779" lon="7.02486">
        <ele>486.9</ele>
        <time>2021-08-09T08:45:07Z</time>
      </trkpt>
      <trkpt lat="47.84779" lon="7.02483">
        <ele>487</ele>
        <time>2021-08-09T08:45:08Z</time>
      </trkpt>
      <trkpt lat="47.84778" lon="7.02481">
        <ele>487</ele>
        <time>2021-08-09T08:45:09Z</time>
      </trkpt>
      <trkpt lat="47.84777" lon="7.02479">
        <ele>487.1</ele>
        <time>2021-08-09T08:45:11Z</time>
      </trkpt>
      <trkpt lat="47.84776" lon="7.02478">
        <ele>487.2</ele>
        <time>2021-08-09T08:45:12Z</time>
      </trkpt>
      <trkpt lat="47.84776" lon="7.02477">
        <ele>487.2</ele>
        <time>2021-08-09T08:45:13Z</time>
      </trkpt>
      <trkpt lat="47.84775" lon="7.02473">
        <ele>487.3</ele>
        <time>2021-08-09T08:45:14Z</time>
      </trkpt>
      <trkpt lat="47.84774" lon="7.02468">
        <ele>487.4</ele>
        <time>2021-08-09T08:45:16Z</time>
      </trkpt>
      <trkpt lat="47.84773" lon="7.02466">
        <ele>487.5</ele>
        <time>2021-08-09T08:45:17Z</time>
      </trkpt>
      <trkpt lat="47.84772" lon="7.02461">
        <ele>487.7</ele>
        <time>2021-08-09T08:45:19Z</time>
      </trkpt>
      <trkpt lat="47.84771" lon="7.0246">
        <ele>487.7</ele>
        <time>2021-08-09T08:45:20Z</time>
      </trkpt>
      <trkpt lat="47.8477" lon="7.02459">
        <ele>487.8</ele>
        <time>2021-08-09T08:45:21Z</time>
      </trkpt>
      <trkpt lat="47.8477" lon="7.02458">
        <ele>487.8</ele>
        <time>2021-08-09T08:45:22Z</time>
      </trkpt>
      <trkpt lat="47.84769" lon="7.02458">
        <ele>487.8</ele>
        <time>2021-08-09T08:45:24Z</time>
      </trkpt>
      <trkpt lat="47.84769" lon="7.02458">
        <ele>487.8</ele>
        <time>2021-08-09T08:45:25Z</time>
      </trkpt>
      <trkpt lat="47.84769" lon="7.02457">
        <ele>487.8</ele>
        <time>2021-08-09T08:45:26Z</time>
      </trkpt>
      <trkpt lat="47.84769" lon="7.02457">
        <ele>487.8</ele>
        <time>2021-08-09T08:45:28Z</time>
      </trkpt>
      <trkpt lat="47.84769" lon="7.02457">
        <ele>487.9</ele>
        <time>2021-08-09T08:45:29Z</time>
      </trkpt>
      <trkpt lat="47.84768" lon="7.02438">
        <ele>488.5</ele>
        <time>2021-08-09T08:45:40Z</time>
      </trkpt>
      <trkpt lat="47.84767" lon="7.02434">
        <ele>488.7</ele>
        <time>2021-08-09T08:45:41Z</time>
      </trkpt>
      <trkpt lat="47.84767" lon="7.02432">
        <ele>488.8</ele>
        <time>2021-08-09T08:45:42Z</time>
      </trkpt>
      <trkpt lat="47.84765" lon="7.0243">
        <ele>488.9</ele>
        <time>2021-08-09T08:45:43Z</time>
      </trkpt>
      <trkpt lat="47.84763" lon="7.02427">
        <ele>489.1</ele>
        <time>2021-08-09T08:45:44Z</time>
      </trkpt>
      <trkpt lat="47.84762" lon="7.02425">
        <ele>489.2</ele>
        <time>2021-08-09T08:45:45Z</time>
      </trkpt>
      <trkpt lat="47.8476" lon="7.02422">
        <ele>489.3</ele>
        <time>2021-08-09T08:45:46Z</time>
      </trkpt>
      <trkpt lat="47.84758" lon="7.0242">
        <ele>489.5</ele>
        <time>2021-08-09T08:45:48Z</time>
      </trkpt>
      <trkpt lat="47.84757" lon="7.02419">
        <ele>489.6</ele>
        <time>2021-08-09T08:45:49Z</time>
      </trkpt>
      <trkpt lat="47.84755" lon="7.02419">
        <ele>489.7</ele>
        <time>2021-08-09T08:45:50Z</time>
      </trkpt>
      <trkpt lat="47.84753" lon="7.02416">
        <ele>489.8</ele>
        <time>2021-08-09T08:45:51Z</time>
      </trkpt>
      <trkpt lat="47.84752" lon="7.02416">
        <ele>489.9</ele>
        <time>2021-08-09T08:45:52Z</time>
      </trkpt>
      <trkpt lat="47.84749" lon="7.02412">
        <ele>490.1</ele>
        <time>2021-08-09T08:45:54Z</time>
      </trkpt>
      <trkpt lat="47.84748" lon="7.02411">
        <ele>490.2</ele>
        <time>2021-08-09T08:45:55Z</time>
      </trkpt>
      <trkpt lat="47.84746" lon="7.0241">
        <ele>490.3</ele>
        <time>2021-08-09T08:45:56Z</time>
      </trkpt>
      <trkpt lat="47.84745" lon="7.02408">
        <ele>490.4</ele>
        <time>2021-08-09T08:45:57Z</time>
      </trkpt>
      <trkpt lat="47.84744" lon="7.02406">
        <ele>490.5</ele>
        <time>2021-08-09T08:45:58Z</time>
      </trkpt>
      <trkpt lat="47.84742" lon="7.02403">
        <ele>490.7</ele>
        <time>2021-08-09T08:46:00Z</time>
      </trkpt>
      <trkpt lat="47.84741" lon="7.02402">
        <ele>490.7</ele>
        <time>2021-08-09T08:46:01Z</time>
      </trkpt>
      <trkpt lat="47.84739" lon="7.024">
        <ele>490.9</ele>
        <time>2021-08-09T08:46:02Z</time>
      </trkpt>
      <trkpt lat="47.84736" lon="7.02398">
        <ele>491</ele>
        <time>2021-08-09T08:46:04Z</time>
      </trkpt>
      <trkpt lat="47.84735" lon="7.02395">
        <ele>491.1</ele>
        <time>2021-08-09T08:46:05Z</time>
      </trkpt>
      <trkpt lat="47.84734" lon="7.02392">
        <ele>491.3</ele>
        <time>2021-08-09T08:46:07Z</time>
      </trkpt>
      <trkpt lat="47.84733" lon="7.0239">
        <ele>491.3</ele>
        <time>2021-08-09T08:46:08Z</time>
      </trkpt>
      <trkpt lat="47.84732" lon="7.02389">
        <ele>491.4</ele>
        <time>2021-08-09T08:46:09Z</time>
      </trkpt>
      <trkpt lat="47.84731" lon="7.02386">
        <ele>491.5</ele>
        <time>2021-08-09T08:46:11Z</time>
      </trkpt>
      <trkpt lat="47.8473" lon="7.02382">
        <ele>491.6</ele>
        <time>2021-08-09T08:46:12Z</time>
      </trkpt>
      <trkpt lat="47.84729" lon="7.0238">
        <ele>491.7</ele>
        <time>2021-08-09T08:46:14Z</time>
      </trkpt>
      <trkpt lat="47.84728" lon="7.02378">
        <ele>491.8</ele>
        <time>2021-08-09T08:46:15Z</time>
      </trkpt>
      <trkpt lat="47.84728" lon="7.02377">
        <ele>491.6</ele>
        <time>2021-08-09T08:46:16Z</time>
      </trkpt>
      <trkpt lat="47.84726" lon="7.02375">
        <ele>491.3</ele>
        <time>2021-08-09T08:46:17Z</time>
      </trkpt>
      <trkpt lat="47.84724" lon="7.02371">
        <ele>490.8</ele>
        <time>2021-08-09T08:46:19Z</time>
      </trkpt>
      <trkpt lat="47.84723" lon="7.02369">
        <ele>490.5</ele>
        <time>2021-08-09T08:46:20Z</time>
      </trkpt>
      <trkpt lat="47.8472" lon="7.02367">
        <ele>490.4</ele>
        <time>2021-08-09T08:46:22Z</time>
      </trkpt>
      <trkpt lat="47.84717" lon="7.02364">
        <ele>490.3</ele>
        <time>2021-08-09T08:46:23Z</time>
      </trkpt>
      <trkpt lat="47.84713" lon="7.02361">
        <ele>490.1</ele>
        <time>2021-08-09T08:46:25Z</time>
      </trkpt>
      <trkpt lat="47.84712" lon="7.02359">
        <ele>490.6</ele>
        <time>2021-08-09T08:46:26Z</time>
      </trkpt>
      <trkpt lat="47.84711" lon="7.02358">
        <ele>491.2</ele>
        <time>2021-08-09T08:46:27Z</time>
      </trkpt>
      <trkpt lat="47.84707" lon="7.02356">
        <ele>492.5</ele>
        <time>2021-08-09T08:46:29Z</time>
      </trkpt>
      <trkpt lat="47.84704" lon="7.02355">
        <ele>493.6</ele>
        <time>2021-08-09T08:46:30Z</time>
      </trkpt>
      <trkpt lat="47.84703" lon="7.02354">
        <ele>494</ele>
        <time>2021-08-09T08:46:31Z</time>
      </trkpt>
      <trkpt lat="47.84701" lon="7.02352">
        <ele>494.6</ele>
        <time>2021-08-09T08:46:32Z</time>
      </trkpt>
      <trkpt lat="47.84699" lon="7.02348">
        <ele>495.8</ele>
        <time>2021-08-09T08:46:34Z</time>
      </trkpt>
      <trkpt lat="47.84696" lon="7.02346">
        <ele>496.7</ele>
        <time>2021-08-09T08:46:35Z</time>
      </trkpt>
      <trkpt lat="47.84694" lon="7.02343">
        <ele>497.7</ele>
        <time>2021-08-09T08:46:37Z</time>
      </trkpt>
      <trkpt lat="47.84694" lon="7.0234">
        <ele>498.2</ele>
        <time>2021-08-09T08:46:38Z</time>
      </trkpt>
      <trkpt lat="47.84694" lon="7.02339">
        <ele>498.6</ele>
        <time>2021-08-09T08:46:39Z</time>
      </trkpt>
      <trkpt lat="47.84694" lon="7.02335">
        <ele>499.4</ele>
        <time>2021-08-09T08:46:41Z</time>
      </trkpt>
      <trkpt lat="47.84694" lon="7.02333">
        <ele>499.8</ele>
        <time>2021-08-09T08:46:42Z</time>
      </trkpt>
      <trkpt lat="47.84693" lon="7.0233">
        <ele>500.6</ele>
        <time>2021-08-09T08:46:43Z</time>
      </trkpt>
      <trkpt lat="47.84693" lon="7.02328">
        <ele>501</ele>
        <time>2021-08-09T08:46:45Z</time>
      </trkpt>
      <trkpt lat="47.84693" lon="7.02326">
        <ele>501.5</ele>
        <time>2021-08-09T08:46:46Z</time>
      </trkpt>
      <trkpt lat="47.84693" lon="7.02325">
        <ele>501.9</ele>
        <time>2021-08-09T08:46:47Z</time>
      </trkpt>
      <trkpt lat="47.84693" lon="7.02323">
        <ele>502.3</ele>
        <time>2021-08-09T08:46:48Z</time>
      </trkpt>
      <trkpt lat="47.84693" lon="7.02318">
        <ele>503.5</ele>
        <time>2021-08-09T08:46:49Z</time>
      </trkpt>
      <trkpt lat="47.84693" lon="7.02316">
        <ele>503.9</ele>
        <time>2021-08-09T08:46:50Z</time>
      </trkpt>
      <trkpt lat="47.84693" lon="7.0231">
        <ele>505.2</ele>
        <time>2021-08-09T08:46:52Z</time>
      </trkpt>
      <trkpt lat="47.84694" lon="7.02304">
        <ele>506.9</ele>
        <time>2021-08-09T08:46:54Z</time>
      </trkpt>
      <trkpt lat="47.84695" lon="7.02302">
        <ele>507.4</ele>
        <time>2021-08-09T08:46:55Z</time>
      </trkpt>
      <trkpt lat="47.84695" lon="7.023">
        <ele>507.9</ele>
        <time>2021-08-09T08:46:56Z</time>
      </trkpt>
      <trkpt lat="47.84695" lon="7.02298">
        <ele>508.4</ele>
        <time>2021-08-09T08:46:57Z</time>
      </trkpt>
      <trkpt lat="47.84696" lon="7.02296">
        <ele>508.8</ele>
        <time>2021-08-09T08:46:58Z</time>
      </trkpt>
      <trkpt lat="47.84697" lon="7.02295">
        <ele>509.3</ele>
        <time>2021-08-09T08:47:00Z</time>
      </trkpt>
      <trkpt lat="47.84698" lon="7.02292">
        <ele>510.1</ele>
        <time>2021-08-09T08:47:01Z</time>
      </trkpt>
      <trkpt lat="47.84697" lon="7.02289">
        <ele>510.8</ele>
        <time>2021-08-09T08:47:03Z</time>
      </trkpt>
      <trkpt lat="47.84697" lon="7.02288">
        <ele>511.2</ele>
        <time>2021-08-09T08:47:04Z</time>
      </trkpt>
      <trkpt lat="47.84695" lon="7.02287">
        <ele>511.7</ele>
        <time>2021-08-09T08:47:05Z</time>
      </trkpt>
      <trkpt lat="47.84693" lon="7.02283">
        <ele>512.9</ele>
        <time>2021-08-09T08:47:07Z</time>
      </trkpt>
      <trkpt lat="47.8469" lon="7.02279">
        <ele>514.2</ele>
        <time>2021-08-09T08:47:08Z</time>
      </trkpt>
      <trkpt lat="47.84689" lon="7.02278">
        <ele>514.7</ele>
        <time>2021-08-09T08:47:09Z</time>
      </trkpt>
      <trkpt lat="47.84687" lon="7.02274">
        <ele>515.9</ele>
        <time>2021-08-09T08:47:10Z</time>
      </trkpt>
      <trkpt lat="47.84686" lon="7.02273">
        <ele>516.3</ele>
        <time>2021-08-09T08:47:11Z</time>
      </trkpt>
      <trkpt lat="47.84683" lon="7.0227">
        <ele>517.7</ele>
        <time>2021-08-09T08:47:13Z</time>
      </trkpt>
      <trkpt lat="47.84681" lon="7.02266">
        <ele>518.8</ele>
        <time>2021-08-09T08:47:14Z</time>
      </trkpt>
      <trkpt lat="47.8468" lon="7.02266">
        <ele>519.1</ele>
        <time>2021-08-09T08:47:15Z</time>
      </trkpt>
      <trkpt lat="47.84678" lon="7.02264">
        <ele>519.9</ele>
        <time>2021-08-09T08:47:17Z</time>
      </trkpt>
      <trkpt lat="47.84678" lon="7.02263">
        <ele>520.2</ele>
        <time>2021-08-09T08:47:18Z</time>
      </trkpt>
      <trkpt lat="47.84677" lon="7.02261">
        <ele>520.9</ele>
        <time>2021-08-09T08:47:19Z</time>
      </trkpt>
      <trkpt lat="47.84676" lon="7.02258">
        <ele>521.5</ele>
        <time>2021-08-09T08:47:20Z</time>
      </trkpt>
      <trkpt lat="47.84675" lon="7.02255">
        <ele>522.4</ele>
        <time>2021-08-09T08:47:21Z</time>
      </trkpt>
      <trkpt lat="47.84674" lon="7.0225">
        <ele>523.8</ele>
        <time>2021-08-09T08:47:23Z</time>
      </trkpt>
      <trkpt lat="47.84674" lon="7.02247">
        <ele>524.5</ele>
        <time>2021-08-09T08:47:24Z</time>
      </trkpt>
      <trkpt lat="47.84673" lon="7.02243">
        <ele>525.5</ele>
        <time>2021-08-09T08:47:26Z</time>
      </trkpt>
      <trkpt lat="47.84673" lon="7.02241">
        <ele>526.3</ele>
        <time>2021-08-09T08:47:27Z</time>
      </trkpt>
      <trkpt lat="47.84673" lon="7.02238">
        <ele>529.9</ele>
        <time>2021-08-09T08:47:28Z</time>
      </trkpt>
      <trkpt lat="47.84674" lon="7.02235">
        <ele>533.2</ele>
        <time>2021-08-09T08:47:29Z</time>
      </trkpt>
      <trkpt lat="47.84675" lon="7.02234">
        <ele>534.9</ele>
        <time>2021-08-09T08:47:30Z</time>
      </trkpt>
      <trkpt lat="47.84675" lon="7.02229">
        <ele>539</ele>
        <time>2021-08-09T08:47:32Z</time>
      </trkpt>
      <trkpt lat="47.84674" lon="7.02228">
        <ele>539.9</ele>
        <time>2021-08-09T08:47:33Z</time>
      </trkpt>
      <trkpt lat="47.84674" lon="7.02226">
        <ele>539.9</ele>
        <time>2021-08-09T08:47:34Z</time>
      </trkpt>
      <trkpt lat="47.84672" lon="7.02225">
        <ele>540</ele>
        <time>2021-08-09T08:47:36Z</time>
      </trkpt>
      <trkpt lat="47.84672" lon="7.02224">
        <ele>540.1</ele>
        <time>2021-08-09T08:47:37Z</time>
      </trkpt>
      <trkpt lat="47.8467" lon="7.02219">
        <ele>540.3</ele>
        <time>2021-08-09T08:47:39Z</time>
      </trkpt>
      <trkpt lat="47.8467" lon="7.02218">
        <ele>540.3</ele>
        <time>2021-08-09T08:47:40Z</time>
      </trkpt>
      <trkpt lat="47.84669" lon="7.02218">
        <ele>540.3</ele>
        <time>2021-08-09T08:47:41Z</time>
      </trkpt>
      <trkpt lat="47.84669" lon="7.02217">
        <ele>540.4</ele>
        <time>2021-08-09T08:47:42Z</time>
      </trkpt>
      <trkpt lat="47.84668" lon="7.02216">
        <ele>540.5</ele>
        <time>2021-08-09T08:47:43Z</time>
      </trkpt>
      <trkpt lat="47.84667" lon="7.02211">
        <ele>540.7</ele>
        <time>2021-08-09T08:47:45Z</time>
      </trkpt>
      <trkpt lat="47.84666" lon="7.02209">
        <ele>540.8</ele>
        <time>2021-08-09T08:47:46Z</time>
      </trkpt>
      <trkpt lat="47.84665" lon="7.02205">
        <ele>540.9</ele>
        <time>2021-08-09T08:47:47Z</time>
      </trkpt>
      <trkpt lat="47.84661" lon="7.02199">
        <ele>541.2</ele>
        <time>2021-08-09T08:47:48Z</time>
      </trkpt>
      <trkpt lat="47.84657" lon="7.02194">
        <ele>541.5</ele>
        <time>2021-08-09T08:47:50Z</time>
      </trkpt>
      <trkpt lat="47.84657" lon="7.02192">
        <ele>541.6</ele>
        <time>2021-08-09T08:47:51Z</time>
      </trkpt>
      <trkpt lat="47.84656" lon="7.0219">
        <ele>541.6</ele>
        <time>2021-08-09T08:47:52Z</time>
      </trkpt>
      <trkpt lat="47.84656" lon="7.02185">
        <ele>541.8</ele>
        <time>2021-08-09T08:47:54Z</time>
      </trkpt>
      <trkpt lat="47.84656" lon="7.02182">
        <ele>541.9</ele>
        <time>2021-08-09T08:47:55Z</time>
      </trkpt>
      <trkpt lat="47.84656" lon="7.02182">
        <ele>542</ele>
        <time>2021-08-09T08:47:56Z</time>
      </trkpt>
      <trkpt lat="47.84656" lon="7.02182">
        <ele>542</ele>
        <time>2021-08-09T08:47:57Z</time>
      </trkpt>
      <trkpt lat="47.84655" lon="7.02182">
        <ele>542</ele>
        <time>2021-08-09T08:47:59Z</time>
      </trkpt>
      <trkpt lat="47.84655" lon="7.02182">
        <ele>542</ele>
        <time>2021-08-09T08:48:01Z</time>
      </trkpt>
      <trkpt lat="47.84615" lon="7.0208">
        <ele>547.8</ele>
        <time>2021-08-09T08:49:22Z</time>
      </trkpt>
      <trkpt lat="47.84615" lon="7.02077">
        <ele>548</ele>
        <time>2021-08-09T08:49:23Z</time>
      </trkpt>
      <trkpt lat="47.84614" lon="7.02075">
        <ele>548</ele>
        <time>2021-08-09T08:49:24Z</time>
      </trkpt>
      <trkpt lat="47.84614" lon="7.02074">
        <ele>548.1</ele>
        <time>2021-08-09T08:49:25Z</time>
      </trkpt>
      <trkpt lat="47.84613" lon="7.02072">
        <ele>548.2</ele>
        <time>2021-08-09T08:49:27Z</time>
      </trkpt>
      <trkpt lat="47.84613" lon="7.02072">
        <ele>548.2</ele>
        <time>2021-08-09T08:49:28Z</time>
      </trkpt>
      <trkpt lat="47.84613" lon="7.0207">
        <ele>548.3</ele>
        <time>2021-08-09T08:49:30Z</time>
      </trkpt>
      <trkpt lat="47.84611" lon="7.02066">
        <ele>548.4</ele>
        <time>2021-08-09T08:49:31Z</time>
      </trkpt>
      <trkpt lat="47.84609" lon="7.02062">
        <ele>548.6</ele>
        <time>2021-08-09T08:49:33Z</time>
      </trkpt>
      <trkpt lat="47.84607" lon="7.0206">
        <ele>548.8</ele>
        <time>2021-08-09T08:49:34Z</time>
      </trkpt>
      <trkpt lat="47.84606" lon="7.02059">
        <ele>548.8</ele>
        <time>2021-08-09T08:49:35Z</time>
      </trkpt>
      <trkpt lat="47.84606" lon="7.02058">
        <ele>548.9</ele>
        <time>2021-08-09T08:49:36Z</time>
      </trkpt>
      <trkpt lat="47.84605" lon="7.02056">
        <ele>549</ele>
        <time>2021-08-09T08:49:37Z</time>
      </trkpt>
      <trkpt lat="47.84604" lon="7.02054">
        <ele>549.1</ele>
        <time>2021-08-09T08:49:38Z</time>
      </trkpt>
      <trkpt lat="47.84603" lon="7.02052">
        <ele>549.2</ele>
        <time>2021-08-09T08:49:40Z</time>
      </trkpt>
      <trkpt lat="47.84602" lon="7.0205">
        <ele>549.2</ele>
        <time>2021-08-09T08:49:41Z</time>
      </trkpt>
      <trkpt lat="47.84602" lon="7.02048">
        <ele>549.3</ele>
        <time>2021-08-09T08:49:43Z</time>
      </trkpt>
      <trkpt lat="47.84601" lon="7.02047">
        <ele>549.4</ele>
        <time>2021-08-09T08:49:44Z</time>
      </trkpt>
      <trkpt lat="47.846" lon="7.02045">
        <ele>549.5</ele>
        <time>2021-08-09T08:49:45Z</time>
      </trkpt>
      <trkpt lat="47.84599" lon="7.02044">
        <ele>549.5</ele>
        <time>2021-08-09T08:49:46Z</time>
      </trkpt>
      <trkpt lat="47.84599" lon="7.02043">
        <ele>549.6</ele>
        <time>2021-08-09T08:49:48Z</time>
      </trkpt>
      <trkpt lat="47.84598" lon="7.02042">
        <ele>549.7</ele>
        <time>2021-08-09T08:49:49Z</time>
      </trkpt>
      <trkpt lat="47.84597" lon="7.02041">
        <ele>549.7</ele>
        <time>2021-08-09T08:49:50Z</time>
      </trkpt>
      <trkpt lat="47.84595" lon="7.02038">
        <ele>549.9</ele>
        <time>2021-08-09T08:49:51Z</time>
      </trkpt>
      <trkpt lat="47.84594" lon="7.02037">
        <ele>549.9</ele>
        <time>2021-08-09T08:49:53Z</time>
      </trkpt>
      <trkpt lat="47.84593" lon="7.02036">
        <ele>550</ele>
        <time>2021-08-09T08:49:55Z</time>
      </trkpt>
      <trkpt lat="47.84592" lon="7.02034">
        <ele>550.1</ele>
        <time>2021-08-09T08:49:56Z</time>
      </trkpt>
      <trkpt lat="47.84592" lon="7.02033">
        <ele>550.1</ele>
        <time>2021-08-09T08:49:58Z</time>
      </trkpt>
      <trkpt lat="47.84591" lon="7.02032">
        <ele>550.2</ele>
        <time>2021-08-09T08:50:00Z</time>
      </trkpt>
      <trkpt lat="47.8459" lon="7.02031">
        <ele>550.2</ele>
        <time>2021-08-09T08:50:01Z</time>
      </trkpt>
      <trkpt lat="47.84589" lon="7.0203">
        <ele>550.3</ele>
        <time>2021-08-09T08:50:02Z</time>
      </trkpt>
      <trkpt lat="47.84589" lon="7.02029">
        <ele>550.4</ele>
        <time>2021-08-09T08:50:03Z</time>
      </trkpt>
      <trkpt lat="47.84587" lon="7.02026">
        <ele>550.5</ele>
        <time>2021-08-09T08:50:04Z</time>
      </trkpt>
      <trkpt lat="47.84586" lon="7.02024">
        <ele>550.6</ele>
        <time>2021-08-09T08:50:06Z</time>
      </trkpt>
      <trkpt lat="47.84585" lon="7.02022">
        <ele>550.6</ele>
        <time>2021-08-09T08:50:07Z</time>
      </trkpt>
      <trkpt lat="47.84584" lon="7.02021">
        <ele>550.7</ele>
        <time>2021-08-09T08:50:08Z</time>
      </trkpt>
      <trkpt lat="47.84581" lon="7.02018">
        <ele>550.9</ele>
        <time>2021-08-09T08:50:09Z</time>
      </trkpt>
      <trkpt lat="47.8458" lon="7.02018">
        <ele>550.9</ele>
        <time>2021-08-09T08:50:10Z</time>
      </trkpt>
      <trkpt lat="47.84576" lon="7.02014">
        <ele>551.2</ele>
        <time>2021-08-09T08:50:12Z</time>
      </trkpt>
      <trkpt lat="47.84574" lon="7.02011">
        <ele>551.3</ele>
        <time>2021-08-09T08:50:13Z</time>
      </trkpt>
      <trkpt lat="47.84571" lon="7.02008">
        <ele>551.5</ele>
        <time>2021-08-09T08:50:14Z</time>
      </trkpt>
      <trkpt lat="47.84567" lon="7.02005">
        <ele>551.7</ele>
        <time>2021-08-09T08:50:15Z</time>
      </trkpt>
      <trkpt lat="47.84565" lon="7.02004">
        <ele>551.8</ele>
        <time>2021-08-09T08:50:17Z</time>
      </trkpt>
      <trkpt lat="47.84563" lon="7.02002">
        <ele>552</ele>
        <time>2021-08-09T08:50:19Z</time>
      </trkpt>
      <trkpt lat="47.84562" lon="7.02001">
        <ele>552</ele>
        <time>2021-08-09T08:50:20Z</time>
      </trkpt>
      <trkpt lat="47.84561" lon="7.01999">
        <ele>552.1</ele>
        <time>2021-08-09T08:50:21Z</time>
      </trkpt>
      <trkpt lat="47.84559" lon="7.01996">
        <ele>552.3</ele>
        <time>2021-08-09T08:50:23Z</time>
      </trkpt>
      <trkpt lat="47.8456" lon="7.01996">
        <ele>552.3</ele>
        <time>2021-08-09T08:50:24Z</time>
      </trkpt>
      <trkpt lat="47.84562" lon="7.01995">
        <ele>552.4</ele>
        <time>2021-08-09T08:50:25Z</time>
      </trkpt>
      <trkpt lat="47.84562" lon="7.01995">
        <ele>552.5</ele>
        <time>2021-08-09T08:50:27Z</time>
      </trkpt>
      <trkpt lat="47.84562" lon="7.01994">
        <ele>552.5</ele>
        <time>2021-08-09T08:50:28Z</time>
      </trkpt>
      <trkpt lat="47.84562" lon="7.01994">
        <ele>552.5</ele>
        <time>2021-08-09T08:50:30Z</time>
      </trkpt>
      <trkpt lat="47.84562" lon="7.01994">
        <ele>552.5</ele>
        <time>2021-08-09T08:50:32Z</time>
      </trkpt>
      <trkpt lat="47.84562" lon="7.01994">
        <ele>552.5</ele>
        <time>2021-08-09T08:50:33Z</time>
      </trkpt>
      <trkpt lat="47.84562" lon="7.01994">
        <ele>552.5</ele>
        <time>2021-08-09T08:50:35Z</time>
      </trkpt>
      <trkpt lat="47.84551" lon="7.01911">
        <ele>556.1</ele>
        <time>2021-08-09T08:51:31Z</time>
      </trkpt>
      <trkpt lat="47.8455" lon="7.01908">
        <ele>556.2</ele>
        <time>2021-08-09T08:51:32Z</time>
      </trkpt>
      <trkpt lat="47.84548" lon="7.01903">
        <ele>556.4</ele>
        <time>2021-08-09T08:51:34Z</time>
      </trkpt>
      <trkpt lat="47.84548" lon="7.01899">
        <ele>556.5</ele>
        <time>2021-08-09T08:51:35Z</time>
      </trkpt>
      <trkpt lat="47.84548" lon="7.01898">
        <ele>556.6</ele>
        <time>2021-08-09T08:51:36Z</time>
      </trkpt>
      <trkpt lat="47.84549" lon="7.01897">
        <ele>556.6</ele>
        <time>2021-08-09T08:51:37Z</time>
      </trkpt>
      <trkpt lat="47.84549" lon="7.01895">
        <ele>556.7</ele>
        <time>2021-08-09T08:51:38Z</time>
      </trkpt>
      <trkpt lat="47.84549" lon="7.01894">
        <ele>556.7</ele>
        <time>2021-08-09T08:51:40Z</time>
      </trkpt>
      <trkpt lat="47.84549" lon="7.01893">
        <ele>556.8</ele>
        <time>2021-08-09T08:51:41Z</time>
      </trkpt>
      <trkpt lat="47.8455" lon="7.01892">
        <ele>556.8</ele>
        <time>2021-08-09T08:51:42Z</time>
      </trkpt>
      <trkpt lat="47.8455" lon="7.01892">
        <ele>556.8</ele>
        <time>2021-08-09T08:51:43Z</time>
      </trkpt>
      <trkpt lat="47.8455" lon="7.01891">
        <ele>556.8</ele>
        <time>2021-08-09T08:51:45Z</time>
      </trkpt>
      <trkpt lat="47.8455" lon="7.01891">
        <ele>556.8</ele>
        <time>2021-08-09T08:51:46Z</time>
      </trkpt>
      <trkpt lat="47.8455" lon="7.01891">
        <ele>556.8</ele>
        <time>2021-08-09T08:51:47Z</time>
      </trkpt>
      <trkpt lat="47.8455" lon="7.01891">
        <ele>556.8</ele>
        <time>2021-08-09T08:51:48Z</time>
      </trkpt>
      <trkpt lat="47.8455" lon="7.01891">
        <ele>556.8</ele>
        <time>2021-08-09T08:51:49Z</time>
      </trkpt>
      <trkpt lat="47.84549" lon="7.0189">
        <ele>556.9</ele>
        <time>2021-08-09T08:51:51Z</time>
      </trkpt>
      <trkpt lat="47.8453" lon="7.01823">
        <ele>558.7</ele>
        <time>2021-08-09T08:52:48Z</time>
      </trkpt>
      <trkpt lat="47.84529" lon="7.01816">
        <ele>558.8</ele>
        <time>2021-08-09T08:52:50Z</time>
      </trkpt>
      <trkpt lat="47.84529" lon="7.01808">
        <ele>558.9</ele>
        <time>2021-08-09T08:52:52Z</time>
      </trkpt>
      <trkpt lat="47.84529" lon="7.01802">
        <ele>558.9</ele>
        <time>2021-08-09T08:52:54Z</time>
      </trkpt>
      <trkpt lat="47.8453" lon="7.01798">
        <ele>559</ele>
        <time>2021-08-09T08:52:55Z</time>
      </trkpt>
      <trkpt lat="47.84532" lon="7.01794">
        <ele>559.1</ele>
        <time>2021-08-09T08:52:56Z</time>
      </trkpt>
      <trkpt lat="47.84534" lon="7.01789">
        <ele>559.2</ele>
        <time>2021-08-09T08:52:58Z</time>
      </trkpt>
      <trkpt lat="47.84536" lon="7.01785">
        <ele>559.2</ele>
        <time>2021-08-09T08:52:59Z</time>
      </trkpt>
      <trkpt lat="47.84539" lon="7.0178">
        <ele>559.3</ele>
        <time>2021-08-09T08:53:01Z</time>
      </trkpt>
      <trkpt lat="47.84539" lon="7.01776">
        <ele>559.4</ele>
        <time>2021-08-09T08:53:03Z</time>
      </trkpt>
      <trkpt lat="47.84537" lon="7.01772">
        <ele>559.4</ele>
        <time>2021-08-09T08:53:04Z</time>
      </trkpt>
      <trkpt lat="47.84536" lon="7.01766">
        <ele>559.5</ele>
        <time>2021-08-09T08:53:06Z</time>
      </trkpt>
      <trkpt lat="47.84536" lon="7.01758">
        <ele>559.7</ele>
        <time>2021-08-09T08:53:08Z</time>
      </trkpt>
      <trkpt lat="47.84536" lon="7.01753">
        <ele>559.8</ele>
        <time>2021-08-09T08:53:09Z</time>
      </trkpt>
      <trkpt lat="47.84536" lon="7.01751">
        <ele>559.8</ele>
        <time>2021-08-09T08:53:10Z</time>
      </trkpt>
      <trkpt lat="47.84535" lon="7.01748">
        <ele>559.9</ele>
        <time>2021-08-09T08:53:12Z</time>
      </trkpt>
      <trkpt lat="47.84534" lon="7.01746">
        <ele>559.9</ele>
        <time>2021-08-09T08:53:13Z</time>
      </trkpt>
      <trkpt lat="47.84534" lon="7.01744">
        <ele>560</ele>
        <time>2021-08-09T08:53:14Z</time>
      </trkpt>
      <trkpt lat="47.84532" lon="7.01742">
        <ele>560.1</ele>
        <time>2021-08-09T08:53:15Z</time>
      </trkpt>
      <trkpt lat="47.84528" lon="7.01739">
        <ele>560.4</ele>
        <time>2021-08-09T08:53:17Z</time>
      </trkpt>
      <trkpt lat="47.84527" lon="7.01737">
        <ele>560.4</ele>
        <time>2021-08-09T08:53:18Z</time>
      </trkpt>
      <trkpt lat="47.84525" lon="7.01736">
        <ele>560.5</ele>
        <time>2021-08-09T08:53:19Z</time>
      </trkpt>
      <trkpt lat="47.84527" lon="7.01732">
        <ele>560.7</ele>
        <time>2021-08-09T08:53:21Z</time>
      </trkpt>
      <trkpt lat="47.84528" lon="7.01731">
        <ele>560.8</ele>
        <time>2021-08-09T08:53:22Z</time>
      </trkpt>
      <trkpt lat="47.84529" lon="7.0173">
        <ele>560.9</ele>
        <time>2021-08-09T08:53:23Z</time>
      </trkpt>
      <trkpt lat="47.84529" lon="7.01727">
        <ele>561</ele>
        <time>2021-08-09T08:53:24Z</time>
      </trkpt>
      <trkpt lat="47.84531" lon="7.01724">
        <ele>561.2</ele>
        <time>2021-08-09T08:53:25Z</time>
      </trkpt>
      <trkpt lat="47.84531" lon="7.01722">
        <ele>561.3</ele>
        <time>2021-08-09T08:53:26Z</time>
      </trkpt>
      <trkpt lat="47.84534" lon="7.0172">
        <ele>561.4</ele>
        <time>2021-08-09T08:53:27Z</time>
      </trkpt>
      <trkpt lat="47.84536" lon="7.01718">
        <ele>561.6</ele>
        <time>2021-08-09T08:53:28Z</time>
      </trkpt>
      <trkpt lat="47.84539" lon="7.01715">
        <ele>561.9</ele>
        <time>2021-08-09T08:53:30Z</time>
      </trkpt>
      <trkpt lat="47.84542" lon="7.01711">
        <ele>562.1</ele>
        <time>2021-08-09T08:53:31Z</time>
      </trkpt>
      <trkpt lat="47.84544" lon="7.01708">
        <ele>562.4</ele>
        <time>2021-08-09T08:53:32Z</time>
      </trkpt>
      <trkpt lat="47.84546" lon="7.01704">
        <ele>562.5</ele>
        <time>2021-08-09T08:53:34Z</time>
      </trkpt>
      <trkpt lat="47.84547" lon="7.01703">
        <ele>562.6</ele>
        <time>2021-08-09T08:53:35Z</time>
      </trkpt>
      <trkpt lat="47.84547" lon="7.01701">
        <ele>562.7</ele>
        <time>2021-08-09T08:53:36Z</time>
      </trkpt>
      <trkpt lat="47.84547" lon="7.017">
        <ele>562.8</ele>
        <time>2021-08-09T08:53:37Z</time>
      </trkpt>
      <trkpt lat="47.84547" lon="7.01699">
        <ele>562.8</ele>
        <time>2021-08-09T08:53:38Z</time>
      </trkpt>
      <trkpt lat="47.84547" lon="7.01699">
        <ele>562.8</ele>
        <time>2021-08-09T08:53:39Z</time>
      </trkpt>
      <trkpt lat="47.84547" lon="7.01698">
        <ele>562.8</ele>
        <time>2021-08-09T08:53:41Z</time>
      </trkpt>
      <trkpt lat="47.84547" lon="7.01698">
        <ele>562.8</ele>
        <time>2021-08-09T08:53:42Z</time>
      </trkpt>
      <trkpt lat="47.84547" lon="7.01698">
        <ele>562.9</ele>
        <time>2021-08-09T08:53:43Z</time>
      </trkpt>
      <trkpt lat="47.84547" lon="7.01697">
        <ele>562.9</ele>
        <time>2021-08-09T08:53:44Z</time>
      </trkpt>
      <trkpt lat="47.84547" lon="7.01697">
        <ele>562.9</ele>
        <time>2021-08-09T08:53:45Z</time>
      </trkpt>
      <trkpt lat="47.84548" lon="7.01696">
        <ele>562.9</ele>
        <time>2021-08-09T08:53:47Z</time>
      </trkpt>
      <trkpt lat="47.84562" lon="7.01664">
        <ele>564.5</ele>
        <time>2021-08-09T08:54:04Z</time>
      </trkpt>
      <trkpt lat="47.84563" lon="7.01661">
        <ele>564.6</ele>
        <time>2021-08-09T08:54:05Z</time>
      </trkpt>
      <trkpt lat="47.84566" lon="7.01653">
        <ele>565</ele>
        <time>2021-08-09T08:54:06Z</time>
      </trkpt>
      <trkpt lat="47.84568" lon="7.01648">
        <ele>565.2</ele>
        <time>2021-08-09T08:54:08Z</time>
      </trkpt>
      <trkpt lat="47.84568" lon="7.01646">
        <ele>565.3</ele>
        <time>2021-08-09T08:54:09Z</time>
      </trkpt>
      <trkpt lat="47.84568" lon="7.01643">
        <ele>565.4</ele>
        <time>2021-08-09T08:54:10Z</time>
      </trkpt>
      <trkpt lat="47.84568" lon="7.01642">
        <ele>565.5</ele>
        <time>2021-08-09T08:54:11Z</time>
      </trkpt>
      <trkpt lat="47.84568" lon="7.0164">
        <ele>565.5</ele>
        <time>2021-08-09T08:54:13Z</time>
      </trkpt>
      <trkpt lat="47.84567" lon="7.01641">
        <ele>565.6</ele>
        <time>2021-08-09T08:54:14Z</time>
      </trkpt>
      <trkpt lat="47.84566" lon="7.0164">
        <ele>565.6</ele>
        <time>2021-08-09T08:54:15Z</time>
      </trkpt>
      <trkpt lat="47.84565" lon="7.01639">
        <ele>565.7</ele>
        <time>2021-08-09T08:54:17Z</time>
      </trkpt>
      <trkpt lat="47.84565" lon="7.01638">
        <ele>565.8</ele>
        <time>2021-08-09T08:54:18Z</time>
      </trkpt>
      <trkpt lat="47.84565" lon="7.01637">
        <ele>565.8</ele>
        <time>2021-08-09T08:54:19Z</time>
      </trkpt>
      <trkpt lat="47.84565" lon="7.01636">
        <ele>565.8</ele>
        <time>2021-08-09T08:54:20Z</time>
      </trkpt>
      <trkpt lat="47.84565" lon="7.01634">
        <ele>565.9</ele>
        <time>2021-08-09T08:54:21Z</time>
      </trkpt>
      <trkpt lat="47.84565" lon="7.01626">
        <ele>566.2</ele>
        <time>2021-08-09T08:54:25Z</time>
      </trkpt>
      <trkpt lat="47.84565" lon="7.01622">
        <ele>566.5</ele>
        <time>2021-08-09T08:54:26Z</time>
      </trkpt>
      <trkpt lat="47.84566" lon="7.01616">
        <ele>566.8</ele>
        <time>2021-08-09T08:54:27Z</time>
      </trkpt>
      <trkpt lat="47.84566" lon="7.01612">
        <ele>567</ele>
        <time>2021-08-09T08:54:29Z</time>
      </trkpt>
      <trkpt lat="47.84565" lon="7.01609">
        <ele>567.1</ele>
        <time>2021-08-09T08:54:30Z</time>
      </trkpt>
      <trkpt lat="47.84565" lon="7.01605">
        <ele>567.3</ele>
        <time>2021-08-09T08:54:32Z</time>
      </trkpt>
      <trkpt lat="47.84565" lon="7.01602">
        <ele>567.5</ele>
        <time>2021-08-09T08:54:33Z</time>
      </trkpt>
      <trkpt lat="47.84565" lon="7.01601">
        <ele>567.5</ele>
        <time>2021-08-09T08:54:34Z</time>
      </trkpt>
      <trkpt lat="47.84565" lon="7.01599">
        <ele>567.6</ele>
        <time>2021-08-09T08:54:35Z</time>
      </trkpt>
      <trkpt lat="47.84565" lon="7.01597">
        <ele>567.7</ele>
        <time>2021-08-09T08:54:36Z</time>
      </trkpt>
      <trkpt lat="47.84566" lon="7.01594">
        <ele>567.9</ele>
        <time>2021-08-09T08:54:37Z</time>
      </trkpt>
      <trkpt lat="47.84567" lon="7.01592">
        <ele>568</ele>
        <time>2021-08-09T08:54:39Z</time>
      </trkpt>
      <trkpt lat="47.84568" lon="7.01591">
        <ele>568.1</ele>
        <time>2021-08-09T08:54:40Z</time>
      </trkpt>
      <trkpt lat="47.84569" lon="7.0159">
        <ele>568.2</ele>
        <time>2021-08-09T08:54:41Z</time>
      </trkpt>
      <trkpt lat="47.84571" lon="7.01588">
        <ele>568.4</ele>
        <time>2021-08-09T08:54:42Z</time>
      </trkpt>
      <trkpt lat="47.84571" lon="7.01588">
        <ele>568.4</ele>
        <time>2021-08-09T08:54:44Z</time>
      </trkpt>
      <trkpt lat="47.84571" lon="7.01587">
        <ele>568.4</ele>
        <time>2021-08-09T08:54:45Z</time>
      </trkpt>
      <trkpt lat="47.84571" lon="7.01587">
        <ele>568.5</ele>
        <time>2021-08-09T08:54:47Z</time>
      </trkpt>
      <trkpt lat="47.84571" lon="7.01586">
        <ele>568.5</ele>
        <time>2021-08-09T08:54:48Z</time>
      </trkpt>
      <trkpt lat="47.84571" lon="7.01585">
        <ele>568.6</ele>
        <time>2021-08-09T08:54:49Z</time>
      </trkpt>
      <trkpt lat="47.84572" lon="7.01583">
        <ele>568.7</ele>
        <time>2021-08-09T08:54:50Z</time>
      </trkpt>
      <trkpt lat="47.84572" lon="7.01581">
        <ele>568.8</ele>
        <time>2021-08-09T08:54:52Z</time>
      </trkpt>
      <trkpt lat="47.84574" lon="7.0156">
        <ele>570</ele>
        <time>2021-08-09T08:55:04Z</time>
      </trkpt>
      <trkpt lat="47.84574" lon="7.01557">
        <ele>570.2</ele>
        <time>2021-08-09T08:55:05Z</time>
      </trkpt>
      <trkpt lat="47.84574" lon="7.01555">
        <ele>570.3</ele>
        <time>2021-08-09T08:55:06Z</time>
      </trkpt>
      <trkpt lat="47.84574" lon="7.01552">
        <ele>570.4</ele>
        <time>2021-08-09T08:55:07Z</time>
      </trkpt>
      <trkpt lat="47.84575" lon="7.01549">
        <ele>570.6</ele>
        <time>2021-08-09T08:55:09Z</time>
      </trkpt>
      <trkpt lat="47.84576" lon="7.01545">
        <ele>570.7</ele>
        <time>2021-08-09T08:55:10Z</time>
      </trkpt>
      <trkpt lat="47.84577" lon="7.01539">
        <ele>571</ele>
        <time>2021-08-09T08:55:12Z</time>
      </trkpt>
      <trkpt lat="47.84579" lon="7.01534">
        <ele>571.2</ele>
        <time>2021-08-09T08:55:13Z</time>
      </trkpt>
      <trkpt lat="47.8458" lon="7.01532">
        <ele>571.3</ele>
        <time>2021-08-09T08:55:14Z</time>
      </trkpt>
      <trkpt lat="47.84581" lon="7.0153">
        <ele>571.4</ele>
        <time>2021-08-09T08:55:15Z</time>
      </trkpt>
      <trkpt lat="47.84581" lon="7.01529">
        <ele>571.5</ele>
        <time>2021-08-09T08:55:16Z</time>
      </trkpt>
      <trkpt lat="47.84582" lon="7.01528">
        <ele>571.6</ele>
        <time>2021-08-09T08:55:17Z</time>
      </trkpt>
      <trkpt lat="47.84583" lon="7.01527">
        <ele>571.6</ele>
        <time>2021-08-09T08:55:18Z</time>
      </trkpt>
      <trkpt lat="47.84583" lon="7.01524">
        <ele>571.7</ele>
        <time>2021-08-09T08:55:20Z</time>
      </trkpt>
      <trkpt lat="47.84584" lon="7.01522">
        <ele>571.8</ele>
        <time>2021-08-09T08:55:21Z</time>
      </trkpt>
      <trkpt lat="47.84585" lon="7.0152">
        <ele>571.9</ele>
        <time>2021-08-09T08:55:22Z</time>
      </trkpt>
      <trkpt lat="47.84585" lon="7.01518">
        <ele>572</ele>
        <time>2021-08-09T08:55:23Z</time>
      </trkpt>
      <trkpt lat="47.84586" lon="7.01515">
        <ele>572.1</ele>
        <time>2021-08-09T08:55:24Z</time>
      </trkpt>
      <trkpt lat="47.84586" lon="7.01513">
        <ele>572.3</ele>
        <time>2021-08-09T08:55:26Z</time>
      </trkpt>
      <trkpt lat="47.84586" lon="7.01512">
        <ele>572.3</ele>
        <time>2021-08-09T08:55:27Z</time>
      </trkpt>
      <trkpt lat="47.84586" lon="7.01511">
        <ele>572.3</ele>
        <time>2021-08-09T08:55:28Z</time>
      </trkpt>
      <trkpt lat="47.84586" lon="7.01508">
        <ele>572.5</ele>
        <time>2021-08-09T08:55:29Z</time>
      </trkpt>
      <trkpt lat="47.84586" lon="7.01505">
        <ele>572.6</ele>
        <time>2021-08-09T08:55:30Z</time>
      </trkpt>
      <trkpt lat="47.84586" lon="7.01502">
        <ele>572.7</ele>
        <time>2021-08-09T08:55:31Z</time>
      </trkpt>
      <trkpt lat="47.84586" lon="7.015">
        <ele>572.8</ele>
        <time>2021-08-09T08:55:32Z</time>
      </trkpt>
      <trkpt lat="47.84586" lon="7.01494">
        <ele>573.1</ele>
        <time>2021-08-09T08:55:33Z</time>
      </trkpt>
      <trkpt lat="47.84587" lon="7.01492">
        <ele>573.2</ele>
        <time>2021-08-09T08:55:34Z</time>
      </trkpt>
      <trkpt lat="47.84587" lon="7.01492">
        <ele>573.2</ele>
        <time>2021-08-09T08:55:35Z</time>
      </trkpt>
      <trkpt lat="47.84587" lon="7.01491">
        <ele>573.2</ele>
        <time>2021-08-09T08:55:36Z</time>
      </trkpt>
      <trkpt lat="47.84588" lon="7.0149">
        <ele>573.3</ele>
        <time>2021-08-09T08:55:37Z</time>
      </trkpt>
      <trkpt lat="47.84588" lon="7.0149">
        <ele>573.3</ele>
        <time>2021-08-09T08:55:38Z</time>
      </trkpt>
      <trkpt lat="47.84589" lon="7.01489">
        <ele>573.4</ele>
        <time>2021-08-09T08:55:39Z</time>
      </trkpt>
      <trkpt lat="47.8459" lon="7.01488">
        <ele>573.5</ele>
        <time>2021-08-09T08:55:41Z</time>
      </trkpt>
      <trkpt lat="47.8459" lon="7.01487">
        <ele>573.5</ele>
        <time>2021-08-09T08:55:42Z</time>
      </trkpt>
      <trkpt lat="47.84616" lon="7.01446">
        <ele>576.1</ele>
        <time>2021-08-09T08:56:14Z</time>
      </trkpt>
      <trkpt lat="47.84619" lon="7.01439">
        <ele>576.6</ele>
        <time>2021-08-09T08:56:16Z</time>
      </trkpt>
      <trkpt lat="47.8462" lon="7.01438">
        <ele>576.6</ele>
        <time>2021-08-09T08:56:17Z</time>
      </trkpt>
      <trkpt lat="47.8462" lon="7.01433">
        <ele>576.9</ele>
        <time>2021-08-09T08:56:19Z</time>
      </trkpt>
      <trkpt lat="47.84619" lon="7.01428">
        <ele>577.2</ele>
        <time>2021-08-09T08:56:20Z</time>
      </trkpt>
      <trkpt lat="47.84619" lon="7.01423">
        <ele>577.4</ele>
        <time>2021-08-09T08:56:22Z</time>
      </trkpt>
      <trkpt lat="47.84619" lon="7.01421">
        <ele>577.5</ele>
        <time>2021-08-09T08:56:23Z</time>
      </trkpt>
      <trkpt lat="47.84618" lon="7.01419">
        <ele>577.6</ele>
        <time>2021-08-09T08:56:24Z</time>
      </trkpt>
      <trkpt lat="47.84618" lon="7.01418">
        <ele>577.7</ele>
        <time>2021-08-09T08:56:25Z</time>
      </trkpt>
      <trkpt lat="47.84618" lon="7.01417">
        <ele>577.8</ele>
        <time>2021-08-09T08:56:26Z</time>
      </trkpt>
      <trkpt lat="47.84618" lon="7.01415">
        <ele>577.8</ele>
        <time>2021-08-09T08:56:27Z</time>
      </trkpt>
      <trkpt lat="47.84618" lon="7.01412">
        <ele>578</ele>
        <time>2021-08-09T08:56:29Z</time>
      </trkpt>
      <trkpt lat="47.84618" lon="7.0141">
        <ele>578.1</ele>
        <time>2021-08-09T08:56:30Z</time>
      </trkpt>
      <trkpt lat="47.84619" lon="7.01408">
        <ele>578.2</ele>
        <time>2021-08-09T08:56:31Z</time>
      </trkpt>
      <trkpt lat="47.84619" lon="7.01406">
        <ele>578.3</ele>
        <time>2021-08-09T08:56:32Z</time>
      </trkpt>
      <trkpt lat="47.8462" lon="7.01403">
        <ele>578.5</ele>
        <time>2021-08-09T08:56:34Z</time>
      </trkpt>
      <trkpt lat="47.8462" lon="7.01401">
        <ele>578.6</ele>
        <time>2021-08-09T08:56:35Z</time>
      </trkpt>
      <trkpt lat="47.84621" lon="7.01398">
        <ele>578.7</ele>
        <time>2021-08-09T08:56:36Z</time>
      </trkpt>
      <trkpt lat="47.84622" lon="7.01396">
        <ele>578.9</ele>
        <time>2021-08-09T08:56:38Z</time>
      </trkpt>
      <trkpt lat="47.84623" lon="7.01395">
        <ele>579</ele>
        <time>2021-08-09T08:56:39Z</time>
      </trkpt>
      <trkpt lat="47.84623" lon="7.01393">
        <ele>579</ele>
        <time>2021-08-09T08:56:40Z</time>
      </trkpt>
      <trkpt lat="47.84624" lon="7.01391">
        <ele>579.1</ele>
        <time>2021-08-09T08:56:41Z</time>
      </trkpt>
      <trkpt lat="47.84624" lon="7.01388">
        <ele>579.3</ele>
        <time>2021-08-09T08:56:43Z</time>
      </trkpt>
      <trkpt lat="47.84624" lon="7.01384">
        <ele>579.5</ele>
        <time>2021-08-09T08:56:45Z</time>
      </trkpt>
      <trkpt lat="47.84624" lon="7.01382">
        <ele>579.5</ele>
        <time>2021-08-09T08:56:46Z</time>
      </trkpt>
      <trkpt lat="47.84623" lon="7.01379">
        <ele>579.7</ele>
        <time>2021-08-09T08:56:48Z</time>
      </trkpt>
      <trkpt lat="47.84623" lon="7.01376">
        <ele>579.8</ele>
        <time>2021-08-09T08:56:50Z</time>
      </trkpt>
      <trkpt lat="47.84622" lon="7.0137">
        <ele>580</ele>
        <time>2021-08-09T08:56:51Z</time>
      </trkpt>
      <trkpt lat="47.84621" lon="7.01366">
        <ele>580.2</ele>
        <time>2021-08-09T08:56:52Z</time>
      </trkpt>
      <trkpt lat="47.84619" lon="7.01359">
        <ele>580.5</ele>
        <time>2021-08-09T08:56:54Z</time>
      </trkpt>
      <trkpt lat="47.84619" lon="7.01353">
        <ele>580.8</ele>
        <time>2021-08-09T08:56:55Z</time>
      </trkpt>
      <trkpt lat="47.84619" lon="7.01349">
        <ele>580.9</ele>
        <time>2021-08-09T08:56:57Z</time>
      </trkpt>
      <trkpt lat="47.84619" lon="7.01344">
        <ele>581.2</ele>
        <time>2021-08-09T08:56:58Z</time>
      </trkpt>
      <trkpt lat="47.84619" lon="7.0134">
        <ele>581.4</ele>
        <time>2021-08-09T08:57:00Z</time>
      </trkpt>
      <trkpt lat="47.8462" lon="7.01338">
        <ele>581.5</ele>
        <time>2021-08-09T08:57:01Z</time>
      </trkpt>
      <trkpt lat="47.84619" lon="7.01336">
        <ele>581.6</ele>
        <time>2021-08-09T08:57:02Z</time>
      </trkpt>
      <trkpt lat="47.84619" lon="7.01334">
        <ele>581.7</ele>
        <time>2021-08-09T08:57:03Z</time>
      </trkpt>
      <trkpt lat="47.84618" lon="7.01333">
        <ele>581.7</ele>
        <time>2021-08-09T08:57:04Z</time>
      </trkpt>
      <trkpt lat="47.84618" lon="7.01332">
        <ele>581.7</ele>
        <time>2021-08-09T08:57:05Z</time>
      </trkpt>
      <trkpt lat="47.84618" lon="7.01332">
        <ele>581.8</ele>
        <time>2021-08-09T08:57:06Z</time>
      </trkpt>
      <trkpt lat="47.84619" lon="7.01332">
        <ele>581.8</ele>
        <time>2021-08-09T08:57:07Z</time>
      </trkpt>
      <trkpt lat="47.84619" lon="7.01332">
        <ele>581.8</ele>
        <time>2021-08-09T08:57:09Z</time>
      </trkpt>
      <trkpt lat="47.84619" lon="7.0133">
        <ele>581.9</ele>
        <time>2021-08-09T08:57:10Z</time>
      </trkpt>
      <trkpt lat="47.84618" lon="7.01302">
        <ele>583.5</ele>
        <time>2021-08-09T08:57:53Z</time>
      </trkpt>
      <trkpt lat="47.84619" lon="7.01298">
        <ele>583.8</ele>
        <time>2021-08-09T08:57:54Z</time>
      </trkpt>
      <trkpt lat="47.84622" lon="7.01296">
        <ele>584.1</ele>
        <time>2021-08-09T08:57:55Z</time>
      </trkpt>
      <trkpt lat="47.84625" lon="7.0129">
        <ele>584.5</ele>
        <time>2021-08-09T08:57:56Z</time>
      </trkpt>
      <trkpt lat="47.84626" lon="7.01288">
        <ele>584.7</ele>
        <time>2021-08-09T08:57:57Z</time>
      </trkpt>
      <trkpt lat="47.84627" lon="7.01282">
        <ele>585.1</ele>
        <time>2021-08-09T08:57:59Z</time>
      </trkpt>
      <trkpt lat="47.84628" lon="7.0128">
        <ele>585.3</ele>
        <time>2021-08-09T08:58:00Z</time>
      </trkpt>
      <trkpt lat="47.84629" lon="7.01279">
        <ele>585.4</ele>
        <time>2021-08-09T08:58:01Z</time>
      </trkpt>
      <trkpt lat="47.84629" lon="7.01278">
        <ele>585.5</ele>
        <time>2021-08-09T08:58:02Z</time>
      </trkpt>
      <trkpt lat="47.8464" lon="7.01274">
        <ele>586.8</ele>
        <time>2021-08-09T08:58:04Z</time>
      </trkpt>
      <trkpt lat="47.84652" lon="7.01272">
        <ele>587.9</ele>
        <time>2021-08-09T08:58:05Z</time>
      </trkpt>
      <trkpt lat="47.84663" lon="7.0127">
        <ele>589.1</ele>
        <time>2021-08-09T08:58:46Z</time>
      </trkpt>
      <trkpt lat="47.84674" lon="7.01268">
        <ele>590.3</ele>
        <time>2021-08-09T08:58:47Z</time>
      </trkpt>
      <trkpt lat="47.84675" lon="7.01268">
        <ele>591.9</ele>
        <time>2021-08-09T08:58:48Z</time>
      </trkpt>
      <trkpt lat="47.84676" lon="7.01268">
        <ele>592.7</ele>
        <time>2021-08-09T08:58:50Z</time>
      </trkpt>
      <trkpt lat="47.84676" lon="7.01267">
        <ele>593.5</ele>
        <time>2021-08-09T08:58:51Z</time>
      </trkpt>
      <trkpt lat="47.84675" lon="7.01266">
        <ele>594.3</ele>
        <time>2021-08-09T08:58:53Z</time>
      </trkpt>
      <trkpt lat="47.84675" lon="7.01265">
        <ele>595.1</ele>
        <time>2021-08-09T08:58:54Z</time>
      </trkpt>
      <trkpt lat="47.84675" lon="7.01263">
        <ele>595.9</ele>
        <time>2021-08-09T08:58:55Z</time>
      </trkpt>
      <trkpt lat="47.84673" lon="7.01255">
        <ele>595.9</ele>
        <time>2021-08-09T08:58:56Z</time>
      </trkpt>
      <trkpt lat="47.84671" lon="7.01248">
        <ele>596.1</ele>
        <time>2021-08-09T08:58:58Z</time>
      </trkpt>
      <trkpt lat="47.8467" lon="7.0124">
        <ele>597.3</ele>
        <time>2021-08-09T08:58:59Z</time>
      </trkpt>
      <trkpt lat="47.84668" lon="7.01233">
        <ele>597.4</ele>
        <time>2021-08-09T08:59:01Z</time>
      </trkpt>
      <trkpt lat="47.84666" lon="7.01226">
        <ele>598.1</ele>
        <time>2021-08-09T09:01:20Z</time>
      </trkpt>
      <trkpt lat="47.84664" lon="7.01219">
        <ele>600</ele>
        <time>2021-08-09T09:01:22Z</time>
      </trkpt>
      <trkpt lat="47.84662" lon="7.01211">
        <ele>600.8</ele>
        <time>2021-08-09T09:01:23Z</time>
      </trkpt>
      <trkpt lat="47.8466" lon="7.01204">
        <ele>603</ele>
        <time>2021-08-09T09:01:25Z</time>
      </trkpt>
      <trkpt lat="47.84659" lon="7.01197">
        <ele>603.6</ele>
        <time>2021-08-09T09:01:26Z</time>
      </trkpt>
      <trkpt lat="47.84657" lon="7.01198">
        <ele>603.8</ele>
        <time>2021-08-09T09:01:27Z</time>
      </trkpt>
      <trkpt lat="47.84656" lon="7.01199">
        <ele>603.9</ele>
        <time>2021-08-09T09:01:29Z</time>
      </trkpt>
      <trkpt lat="47.84655" lon="7.01199">
        <ele>604</ele>
        <time>2021-08-09T09:01:30Z</time>
      </trkpt>
      <trkpt lat="47.84655" lon="7.012">
        <ele>604.1</ele>
        <time>2021-08-09T09:01:32Z</time>
      </trkpt>
      <trkpt lat="47.84654" lon="7.012">
        <ele>604.2</ele>
        <time>2021-08-09T09:01:34Z</time>
      </trkpt>
      <trkpt lat="47.84653" lon="7.012">
        <ele>604.3</ele>
        <time>2021-08-09T09:01:35Z</time>
      </trkpt>
      <trkpt lat="47.84653" lon="7.01201">
        <ele>604.3</ele>
        <time>2021-08-09T09:01:36Z</time>
      </trkpt>
      <trkpt lat="47.84652" lon="7.01201">
        <ele>604.4</ele>
        <time>2021-08-09T09:01:37Z</time>
      </trkpt>
      <trkpt lat="47.84651" lon="7.01202">
        <ele>604.5</ele>
        <time>2021-08-09T09:01:39Z</time>
      </trkpt>
      <trkpt lat="47.84651" lon="7.01202">
        <ele>604.6</ele>
        <time>2021-08-09T09:01:40Z</time>
      </trkpt>
      <trkpt lat="47.8465" lon="7.01202">
        <ele>604.7</ele>
        <time>2021-08-09T09:01:41Z</time>
      </trkpt>
      <trkpt lat="47.84648" lon="7.01203">
        <ele>604.9</ele>
        <time>2021-08-09T09:01:42Z</time>
      </trkpt>
      <trkpt lat="47.84646" lon="7.01203">
        <ele>605.1</ele>
        <time>2021-08-09T09:01:44Z</time>
      </trkpt>
      <trkpt lat="47.8464" lon="7.01202">
        <ele>605.9</ele>
        <time>2021-08-09T09:01:45Z</time>
      </trkpt>
      <trkpt lat="47.84636" lon="7.01202">
        <ele>606.4</ele>
        <time>2021-08-09T09:01:47Z</time>
      </trkpt>
      <trkpt lat="47.84631" lon="7.01202">
        <ele>607.1</ele>
        <time>2021-08-09T09:01:48Z</time>
      </trkpt>
      <trkpt lat="47.84629" lon="7.01202">
        <ele>607.4</ele>
        <time>2021-08-09T09:01:49Z</time>
      </trkpt>
      <trkpt lat="47.84625" lon="7.01202">
        <ele>607.8</ele>
        <time>2021-08-09T09:01:51Z</time>
      </trkpt>
      <trkpt lat="47.84622" lon="7.01201">
        <ele>608.2</ele>
        <time>2021-08-09T09:01:52Z</time>
      </trkpt>
      <trkpt lat="47.84621" lon="7.01201">
        <ele>608.3</ele>
        <time>2021-08-09T09:01:54Z</time>
      </trkpt>
      <trkpt lat="47.84618" lon="7.01201">
        <ele>608.6</ele>
        <time>2021-08-09T09:01:55Z</time>
      </trkpt>
      <trkpt lat="47.84616" lon="7.01199">
        <ele>608.9</ele>
        <time>2021-08-09T09:01:57Z</time>
      </trkpt>
      <trkpt lat="47.84615" lon="7.01197">
        <ele>609.1</ele>
        <time>2021-08-09T09:01:58Z</time>
      </trkpt>
      <trkpt lat="47.84614" lon="7.01196">
        <ele>609.1</ele>
        <time>2021-08-09T09:01:59Z</time>
      </trkpt>
      <trkpt lat="47.84613" lon="7.01195">
        <ele>609.3</ele>
        <time>2021-08-09T09:02:01Z</time>
      </trkpt>
      <trkpt lat="47.84611" lon="7.01193">
        <ele>609.5</ele>
        <time>2021-08-09T09:02:02Z</time>
      </trkpt>
      <trkpt lat="47.8461" lon="7.01191">
        <ele>609.7</ele>
        <time>2021-08-09T09:02:04Z</time>
      </trkpt>
      <trkpt lat="47.8461" lon="7.01187">
        <ele>609.9</ele>
        <time>2021-08-09T09:02:05Z</time>
      </trkpt>
      <trkpt lat="47.84609" lon="7.01186">
        <ele>610</ele>
        <time>2021-08-09T09:02:06Z</time>
      </trkpt>
      <trkpt lat="47.8461" lon="7.01186">
        <ele>610</ele>
        <time>2021-08-09T09:02:07Z</time>
      </trkpt>
      <trkpt lat="47.8461" lon="7.01185">
        <ele>610.1</ele>
        <time>2021-08-09T09:02:08Z</time>
      </trkpt>
      <trkpt lat="47.8461" lon="7.01184">
        <ele>610.2</ele>
        <time>2021-08-09T09:02:10Z</time>
      </trkpt>
      <trkpt lat="47.8461" lon="7.01184">
        <ele>610.2</ele>
        <time>2021-08-09T09:02:11Z</time>
      </trkpt>
      <trkpt lat="47.8461" lon="7.01184">
        <ele>610.2</ele>
        <time>2021-08-09T09:02:13Z</time>
      </trkpt>
      <trkpt lat="47.8461" lon="7.01183">
        <ele>610.2</ele>
        <time>2021-08-09T09:02:14Z</time>
      </trkpt>
      <trkpt lat="47.8461" lon="7.01183">
        <ele>610.2</ele>
        <time>2021-08-09T09:02:15Z</time>
      </trkpt>
      <trkpt lat="47.8461" lon="7.01183">
        <ele>610.3</ele>
        <time>2021-08-09T09:02:17Z</time>
      </trkpt>
      <trkpt lat="47.8461" lon="7.01183">
        <ele>610.3</ele>
        <time>2021-08-09T09:02:18Z</time>
      </trkpt>
      <trkpt lat="47.8461" lon="7.01183">
        <ele>610.3</ele>
        <time>2021-08-09T09:02:19Z</time>
      </trkpt>
      <trkpt lat="47.8461" lon="7.01182">
        <ele>610.3</ele>
        <time>2021-08-09T09:02:21Z</time>
      </trkpt>
      <trkpt lat="47.84591" lon="7.01125">
        <ele>614.6</ele>
        <time>2021-08-09T09:03:10Z</time>
      </trkpt>
      <trkpt lat="47.84591" lon="7.01122">
        <ele>614.8</ele>
        <time>2021-08-09T09:03:11Z</time>
      </trkpt>
      <trkpt lat="47.8459" lon="7.01121">
        <ele>614.9</ele>
        <time>2021-08-09T09:03:13Z</time>
      </trkpt>
      <trkpt lat="47.8459" lon="7.0112">
        <ele>615</ele>
        <time>2021-08-09T09:03:14Z</time>
      </trkpt>
      <trkpt lat="47.8459" lon="7.01119">
        <ele>615</ele>
        <time>2021-08-09T09:03:15Z</time>
      </trkpt>
      <trkpt lat="47.8459" lon="7.01118">
        <ele>615.1</ele>
        <time>2021-08-09T09:03:17Z</time>
      </trkpt>
      <trkpt lat="47.84589" lon="7.01116">
        <ele>615.3</ele>
        <time>2021-08-09T09:03:18Z</time>
      </trkpt>
      <trkpt lat="47.84588" lon="7.01114">
        <ele>615.4</ele>
        <time>2021-08-09T09:03:19Z</time>
      </trkpt>
      <trkpt lat="47.84587" lon="7.01112">
        <ele>615.5</ele>
        <time>2021-08-09T09:03:21Z</time>
      </trkpt>
      <trkpt lat="47.84586" lon="7.0111">
        <ele>615.7</ele>
        <time>2021-08-09T09:03:22Z</time>
      </trkpt>
      <trkpt lat="47.84585" lon="7.01108">
        <ele>615.8</ele>
        <time>2021-08-09T09:03:23Z</time>
      </trkpt>
      <trkpt lat="47.84584" lon="7.01105">
        <ele>616.1</ele>
        <time>2021-08-09T09:03:25Z</time>
      </trkpt>
      <trkpt lat="47.84584" lon="7.01103">
        <ele>616.3</ele>
        <time>2021-08-09T09:03:27Z</time>
      </trkpt>
      <trkpt lat="47.84585" lon="7.01098">
        <ele>616.6</ele>
        <time>2021-08-09T09:03:29Z</time>
      </trkpt>
      <trkpt lat="47.84586" lon="7.01097">
        <ele>616.7</ele>
        <time>2021-08-09T09:03:30Z</time>
      </trkpt>
      <trkpt lat="47.84586" lon="7.01096">
        <ele>616.7</ele>
        <time>2021-08-09T09:03:32Z</time>
      </trkpt>
      <trkpt lat="47.84586" lon="7.01095">
        <ele>616.8</ele>
        <time>2021-08-09T09:03:34Z</time>
      </trkpt>
      <trkpt lat="47.84586" lon="7.01094">
        <ele>616.9</ele>
        <time>2021-08-09T09:03:36Z</time>
      </trkpt>
      <trkpt lat="47.84586" lon="7.01093">
        <ele>616.9</ele>
        <time>2021-08-09T09:03:37Z</time>
      </trkpt>
      <trkpt lat="47.84587" lon="7.01093">
        <ele>617</ele>
        <time>2021-08-09T09:03:39Z</time>
      </trkpt>
      <trkpt lat="47.84589" lon="7.01092">
        <ele>617.2</ele>
        <time>2021-08-09T09:03:41Z</time>
      </trkpt>
      <trkpt lat="47.8459" lon="7.01092">
        <ele>617.3</ele>
        <time>2021-08-09T09:03:43Z</time>
      </trkpt>
      <trkpt lat="47.84591" lon="7.01092">
        <ele>617.4</ele>
        <time>2021-08-09T09:03:44Z</time>
      </trkpt>
      <trkpt lat="47.84591" lon="7.01091">
        <ele>617.4</ele>
        <time>2021-08-09T09:03:45Z</time>
      </trkpt>
      <trkpt lat="47.84591" lon="7.01091">
        <ele>617.4</ele>
        <time>2021-08-09T09:03:46Z</time>
      </trkpt>
      <trkpt lat="47.84591" lon="7.01091">
        <ele>617.4</ele>
        <time>2021-08-09T09:03:48Z</time>
      </trkpt>
      <trkpt lat="47.84591" lon="7.01091">
        <ele>617.5</ele>
        <time>2021-08-09T09:03:49Z</time>
      </trkpt>
      <trkpt lat="47.84591" lon="7.01091">
        <ele>617.5</ele>
        <time>2021-08-09T09:03:50Z</time>
      </trkpt>
      <trkpt lat="47.84591" lon="7.0109">
        <ele>617.5</ele>
        <time>2021-08-09T09:03:51Z</time>
      </trkpt>
      <trkpt lat="47.84591" lon="7.0109">
        <ele>617.5</ele>
        <time>2021-08-09T09:03:53Z</time>
      </trkpt>
      <trkpt lat="47.8459" lon="7.01089">
        <ele>617.7</ele>
        <time>2021-08-09T09:03:54Z</time>
      </trkpt>
      <trkpt lat="47.84588" lon="7.01088">
        <ele>617.9</ele>
        <time>2021-08-09T09:03:55Z</time>
      </trkpt>
      <trkpt lat="47.84587" lon="7.01086">
        <ele>618</ele>
        <time>2021-08-09T09:03:56Z</time>
      </trkpt>
      <trkpt lat="47.84585" lon="7.01084">
        <ele>618.2</ele>
        <time>2021-08-09T09:03:58Z</time>
      </trkpt>
      <trkpt lat="47.84584" lon="7.01084">
        <ele>618.4</ele>
        <time>2021-08-09T09:03:59Z</time>
      </trkpt>
      <trkpt lat="47.84584" lon="7.01083">
        <ele>618.5</ele>
        <time>2021-08-09T09:04:00Z</time>
      </trkpt>
      <trkpt lat="47.84583" lon="7.01082">
        <ele>618.5</ele>
        <time>2021-08-09T09:04:01Z</time>
      </trkpt>
      <trkpt lat="47.84582" lon="7.01081">
        <ele>618.6</ele>
        <time>2021-08-09T09:04:03Z</time>
      </trkpt>
      <trkpt lat="47.84582" lon="7.01079">
        <ele>618.8</ele>
        <time>2021-08-09T09:04:04Z</time>
      </trkpt>
      <trkpt lat="47.84581" lon="7.01078">
        <ele>618.9</ele>
        <time>2021-08-09T09:04:05Z</time>
      </trkpt>
      <trkpt lat="47.84581" lon="7.01077">
        <ele>619</ele>
        <time>2021-08-09T09:04:06Z</time>
      </trkpt>
      <trkpt lat="47.84581" lon="7.01076">
        <ele>619</ele>
        <time>2021-08-09T09:04:08Z</time>
      </trkpt>
      <trkpt lat="47.84581" lon="7.01075">
        <ele>619.1</ele>
        <time>2021-08-09T09:04:09Z</time>
      </trkpt>
      <trkpt lat="47.84581" lon="7.01075">
        <ele>619.1</ele>
        <time>2021-08-09T09:04:10Z</time>
      </trkpt>
      <trkpt lat="47.8458" lon="7.01075">
        <ele>619.1</ele>
        <time>2021-08-09T09:04:11Z</time>
      </trkpt>
      <trkpt lat="47.8458" lon="7.01074">
        <ele>619.1</ele>
        <time>2021-08-09T09:04:13Z</time>
      </trkpt>
      <trkpt lat="47.8458" lon="7.01074">
        <ele>619.2</ele>
        <time>2021-08-09T09:04:14Z</time>
      </trkpt>
      <trkpt lat="47.84581" lon="7.01072">
        <ele>619.3</ele>
        <time>2021-08-09T09:04:15Z</time>
      </trkpt>
      <trkpt lat="47.84582" lon="7.01068">
        <ele>619.6</ele>
        <time>2021-08-09T09:04:17Z</time>
      </trkpt>
      <trkpt lat="47.84582" lon="7.01066">
        <ele>619.7</ele>
        <time>2021-08-09T09:04:18Z</time>
      </trkpt>
      <trkpt lat="47.84583" lon="7.01063">
        <ele>619.9</ele>
        <time>2021-08-09T09:04:19Z</time>
      </trkpt>
      <trkpt lat="47.84583" lon="7.0106">
        <ele>620.1</ele>
        <time>2021-08-09T09:04:21Z</time>
      </trkpt>
      <trkpt lat="47.84583" lon="7.01058">
        <ele>620.3</ele>
        <time>2021-08-09T09:04:22Z</time>
      </trkpt>
      <trkpt lat="47.84582" lon="7.01056">
        <ele>620.4</ele>
        <time>2021-08-09T09:04:23Z</time>
      </trkpt>
      <trkpt lat="47.84582" lon="7.01055">
        <ele>620.5</ele>
        <time>2021-08-09T09:04:25Z</time>
      </trkpt>
      <trkpt lat="47.84581" lon="7.01053">
        <ele>620.6</ele>
        <time>2021-08-09T09:04:26Z</time>
      </trkpt>
      <trkpt lat="47.84581" lon="7.01052">
        <ele>620.7</ele>
        <time>2021-08-09T09:04:28Z</time>
      </trkpt>
      <trkpt lat="47.84581" lon="7.01052">
        <ele>620.7</ele>
        <time>2021-08-09T09:04:29Z</time>
      </trkpt>
      <trkpt lat="47.84581" lon="7.01051">
        <ele>620.8</ele>
        <time>2021-08-09T09:04:30Z</time>
      </trkpt>
      <trkpt lat="47.84581" lon="7.01051">
        <ele>620.8</ele>
        <time>2021-08-09T09:04:31Z</time>
      </trkpt>
      <trkpt lat="47.84581" lon="7.01051">
        <ele>620.8</ele>
        <time>2021-08-09T09:04:33Z</time>
      </trkpt>
      <trkpt lat="47.8458" lon="7.01051">
        <ele>620.8</ele>
        <time>2021-08-09T09:04:34Z</time>
      </trkpt>
      <trkpt lat="47.8458" lon="7.0105">
        <ele>620.8</ele>
        <time>2021-08-09T09:04:35Z</time>
      </trkpt>
      <trkpt lat="47.8458" lon="7.0105">
        <ele>620.8</ele>
        <time>2021-08-09T09:04:37Z</time>
      </trkpt>
      <trkpt lat="47.8458" lon="7.01049">
        <ele>620.9</ele>
        <time>2021-08-09T09:04:38Z</time>
      </trkpt>
      <trkpt lat="47.8458" lon="7.01046">
        <ele>621.1</ele>
        <time>2021-08-09T09:04:39Z</time>
      </trkpt>
      <trkpt lat="47.8458" lon="7.01043">
        <ele>621.3</ele>
        <time>2021-08-09T09:04:40Z</time>
      </trkpt>
      <trkpt lat="47.84579" lon="7.0104">
        <ele>621.6</ele>
        <time>2021-08-09T09:04:42Z</time>
      </trkpt>
      <trkpt lat="47.84579" lon="7.01037">
        <ele>621.8</ele>
        <time>2021-08-09T09:04:43Z</time>
      </trkpt>
      <trkpt lat="47.84579" lon="7.01035">
        <ele>621.9</ele>
        <time>2021-08-09T09:04:44Z</time>
      </trkpt>
      <trkpt lat="47.84578" lon="7.01034">
        <ele>622</ele>
        <time>2021-08-09T09:04:45Z</time>
      </trkpt>
      <trkpt lat="47.84578" lon="7.01033">
        <ele>622.1</ele>
        <time>2021-08-09T09:04:47Z</time>
      </trkpt>
      <trkpt lat="47.84578" lon="7.0103">
        <ele>622.3</ele>
        <time>2021-08-09T09:04:48Z</time>
      </trkpt>
      <trkpt lat="47.84578" lon="7.01028">
        <ele>622.5</ele>
        <time>2021-08-09T09:04:49Z</time>
      </trkpt>
      <trkpt lat="47.84577" lon="7.01023">
        <ele>622.8</ele>
        <time>2021-08-09T09:04:51Z</time>
      </trkpt>
      <trkpt lat="47.84576" lon="7.01021">
        <ele>623</ele>
        <time>2021-08-09T09:04:53Z</time>
      </trkpt>
      <trkpt lat="47.84576" lon="7.01019">
        <ele>623.2</ele>
        <time>2021-08-09T09:04:54Z</time>
      </trkpt>
      <trkpt lat="47.84575" lon="7.01017">
        <ele>623.3</ele>
        <time>2021-08-09T09:04:56Z</time>
      </trkpt>
      <trkpt lat="47.84575" lon="7.01016">
        <ele>623.4</ele>
        <time>2021-08-09T09:04:57Z</time>
      </trkpt>
      <trkpt lat="47.84575" lon="7.01015">
        <ele>623.5</ele>
        <time>2021-08-09T09:04:58Z</time>
      </trkpt>
      <trkpt lat="47.84575" lon="7.01014">
        <ele>623.5</ele>
        <time>2021-08-09T09:05:00Z</time>
      </trkpt>
      <trkpt lat="47.84574" lon="7.01014">
        <ele>623.6</ele>
        <time>2021-08-09T09:05:01Z</time>
      </trkpt>
      <trkpt lat="47.84574" lon="7.01013">
        <ele>623.6</ele>
        <time>2021-08-09T09:05:02Z</time>
      </trkpt>
      <trkpt lat="47.84574" lon="7.01013">
        <ele>623.6</ele>
        <time>2021-08-09T09:05:03Z</time>
      </trkpt>
      <trkpt lat="47.84574" lon="7.01013">
        <ele>623.6</ele>
        <time>2021-08-09T09:05:05Z</time>
      </trkpt>
      <trkpt lat="47.84574" lon="7.01013">
        <ele>623.6</ele>
        <time>2021-08-09T09:05:06Z</time>
      </trkpt>
      <trkpt lat="47.84574" lon="7.01011">
        <ele>623.8</ele>
        <time>2021-08-09T09:05:07Z</time>
      </trkpt>
      <trkpt lat="47.84574" lon="7.01006">
        <ele>624.1</ele>
        <time>2021-08-09T09:05:09Z</time>
      </trkpt>
      <trkpt lat="47.84573" lon="7.01003">
        <ele>624.4</ele>
        <time>2021-08-09T09:05:10Z</time>
      </trkpt>
      <trkpt lat="47.84573" lon="7.01">
        <ele>624.6</ele>
        <time>2021-08-09T09:05:12Z</time>
      </trkpt>
      <trkpt lat="47.84573" lon="7.00999">
        <ele>624.7</ele>
        <time>2021-08-09T09:05:13Z</time>
      </trkpt>
      <trkpt lat="47.84572" lon="7.00998">
        <ele>624.8</ele>
        <time>2021-08-09T09:05:14Z</time>
      </trkpt>
      <trkpt lat="47.84572" lon="7.00995">
        <ele>625</ele>
        <time>2021-08-09T09:05:16Z</time>
      </trkpt>
      <trkpt lat="47.84572" lon="7.00991">
        <ele>625.3</ele>
        <time>2021-08-09T09:05:17Z</time>
      </trkpt>
      <trkpt lat="47.84571" lon="7.00987">
        <ele>625.6</ele>
        <time>2021-08-09T09:05:19Z</time>
      </trkpt>
      <trkpt lat="47.84571" lon="7.00985">
        <ele>625.8</ele>
        <time>2021-08-09T09:05:20Z</time>
      </trkpt>
      <trkpt lat="47.84571" lon="7.00983">
        <ele>625.9</ele>
        <time>2021-08-09T09:05:21Z</time>
      </trkpt>
      <trkpt lat="47.84571" lon="7.0098">
        <ele>626.2</ele>
        <time>2021-08-09T09:05:23Z</time>
      </trkpt>
      <trkpt lat="47.84571" lon="7.00977">
        <ele>626.3</ele>
        <time>2021-08-09T09:05:24Z</time>
      </trkpt>
      <trkpt lat="47.84571" lon="7.00975">
        <ele>626.5</ele>
        <time>2021-08-09T09:05:26Z</time>
      </trkpt>
      <trkpt lat="47.84571" lon="7.00973">
        <ele>626.7</ele>
        <time>2021-08-09T09:05:27Z</time>
      </trkpt>
      <trkpt lat="47.84571" lon="7.00971">
        <ele>626.9</ele>
        <time>2021-08-09T09:05:29Z</time>
      </trkpt>
      <trkpt lat="47.84571" lon="7.00969">
        <ele>627</ele>
        <time>2021-08-09T09:05:30Z</time>
      </trkpt>
      <trkpt lat="47.84571" lon="7.00968">
        <ele>627</ele>
        <time>2021-08-09T09:05:31Z</time>
      </trkpt>
      <trkpt lat="47.84571" lon="7.00967">
        <ele>627.1</ele>
        <time>2021-08-09T09:05:33Z</time>
      </trkpt>
      <trkpt lat="47.8457" lon="7.00966">
        <ele>627.2</ele>
        <time>2021-08-09T09:05:34Z</time>
      </trkpt>
      <trkpt lat="47.8457" lon="7.00965">
        <ele>627.3</ele>
        <time>2021-08-09T09:05:35Z</time>
      </trkpt>
      <trkpt lat="47.8457" lon="7.00963">
        <ele>627.4</ele>
        <time>2021-08-09T09:05:36Z</time>
      </trkpt>
      <trkpt lat="47.8457" lon="7.00962">
        <ele>627.6</ele>
        <time>2021-08-09T09:05:37Z</time>
      </trkpt>
      <trkpt lat="47.8457" lon="7.00959">
        <ele>627.8</ele>
        <time>2021-08-09T09:05:39Z</time>
      </trkpt>
      <trkpt lat="47.84569" lon="7.00957">
        <ele>627.9</ele>
        <time>2021-08-09T09:05:40Z</time>
      </trkpt>
      <trkpt lat="47.84569" lon="7.00956">
        <ele>628</ele>
        <time>2021-08-09T09:05:41Z</time>
      </trkpt>
      <trkpt lat="47.84569" lon="7.00954">
        <ele>628.2</ele>
        <time>2021-08-09T09:05:43Z</time>
      </trkpt>
      <trkpt lat="47.84568" lon="7.00954">
        <ele>628.2</ele>
        <time>2021-08-09T09:05:44Z</time>
      </trkpt>
      <trkpt lat="47.84568" lon="7.00953">
        <ele>628.3</ele>
        <time>2021-08-09T09:05:46Z</time>
      </trkpt>
      <trkpt lat="47.84568" lon="7.00952">
        <ele>628.3</ele>
        <time>2021-08-09T09:05:47Z</time>
      </trkpt>
      <trkpt lat="47.84568" lon="7.00952">
        <ele>628.3</ele>
        <time>2021-08-09T09:05:49Z</time>
      </trkpt>
      <trkpt lat="47.84568" lon="7.00952">
        <ele>628.4</ele>
        <time>2021-08-09T09:05:50Z</time>
      </trkpt>
      <trkpt lat="47.84568" lon="7.00951">
        <ele>628.4</ele>
        <time>2021-08-09T09:05:51Z</time>
      </trkpt>
      <trkpt lat="47.84568" lon="7.00949">
        <ele>628.6</ele>
        <time>2021-08-09T09:05:52Z</time>
      </trkpt>
      <trkpt lat="47.84568" lon="7.00948">
        <ele>628.7</ele>
        <time>2021-08-09T09:05:53Z</time>
      </trkpt>
      <trkpt lat="47.84568" lon="7.00946">
        <ele>628.8</ele>
        <time>2021-08-09T09:05:54Z</time>
      </trkpt>
      <trkpt lat="47.84568" lon="7.00944">
        <ele>629</ele>
        <time>2021-08-09T09:05:56Z</time>
      </trkpt>
      <trkpt lat="47.84568" lon="7.00943">
        <ele>629.1</ele>
        <time>2021-08-09T09:05:57Z</time>
      </trkpt>
      <trkpt lat="47.84568" lon="7.00941">
        <ele>629.2</ele>
        <time>2021-08-09T09:05:59Z</time>
      </trkpt>
      <trkpt lat="47.84567" lon="7.0094">
        <ele>629.3</ele>
        <time>2021-08-09T09:06:00Z</time>
      </trkpt>
      <trkpt lat="47.84567" lon="7.00939">
        <ele>629.4</ele>
        <time>2021-08-09T09:06:02Z</time>
      </trkpt>
      <trkpt lat="47.84565" lon="7.00938">
        <ele>629.6</ele>
        <time>2021-08-09T09:06:03Z</time>
      </trkpt>
      <trkpt lat="47.84564" lon="7.00936">
        <ele>629.9</ele>
        <time>2021-08-09T09:06:05Z</time>
      </trkpt>
      <trkpt lat="47.84563" lon="7.00935">
        <ele>630</ele>
        <time>2021-08-09T09:06:07Z</time>
      </trkpt>
      <trkpt lat="47.84562" lon="7.00934">
        <ele>630.1</ele>
        <time>2021-08-09T09:06:08Z</time>
      </trkpt>
      <trkpt lat="47.84562" lon="7.00934">
        <ele>630.2</ele>
        <time>2021-08-09T09:06:10Z</time>
      </trkpt>
      <trkpt lat="47.84561" lon="7.00934">
        <ele>630.3</ele>
        <time>2021-08-09T09:06:12Z</time>
      </trkpt>
      <trkpt lat="47.84561" lon="7.00933">
        <ele>630.3</ele>
        <time>2021-08-09T09:06:13Z</time>
      </trkpt>
      <trkpt lat="47.84561" lon="7.00932">
        <ele>630.4</ele>
        <time>2021-08-09T09:06:15Z</time>
      </trkpt>
      <trkpt lat="47.84561" lon="7.0093">
        <ele>630.6</ele>
        <time>2021-08-09T09:06:16Z</time>
      </trkpt>
      <trkpt lat="47.84562" lon="7.00927">
        <ele>630.9</ele>
        <time>2021-08-09T09:06:18Z</time>
      </trkpt>
      <trkpt lat="47.84562" lon="7.00925">
        <ele>631.1</ele>
        <time>2021-08-09T09:06:19Z</time>
      </trkpt>
      <trkpt lat="47.84562" lon="7.00923">
        <ele>631.2</ele>
        <time>2021-08-09T09:06:20Z</time>
      </trkpt>
      <trkpt lat="47.84562" lon="7.00922">
        <ele>631.3</ele>
        <time>2021-08-09T09:06:22Z</time>
      </trkpt>
      <trkpt lat="47.84563" lon="7.00921">
        <ele>631.4</ele>
        <time>2021-08-09T09:06:23Z</time>
      </trkpt>
      <trkpt lat="47.84563" lon="7.0092">
        <ele>631.5</ele>
        <time>2021-08-09T09:06:24Z</time>
      </trkpt>
      <trkpt lat="47.84563" lon="7.0092">
        <ele>631.5</ele>
        <time>2021-08-09T09:06:25Z</time>
      </trkpt>
      <trkpt lat="47.84563" lon="7.00919">
        <ele>631.6</ele>
        <time>2021-08-09T09:06:27Z</time>
      </trkpt>
      <trkpt lat="47.84564" lon="7.00919">
        <ele>631.6</ele>
        <time>2021-08-09T09:06:28Z</time>
      </trkpt>
      <trkpt lat="47.84564" lon="7.00918">
        <ele>631.7</ele>
        <time>2021-08-09T09:06:30Z</time>
      </trkpt>
      <trkpt lat="47.84564" lon="7.00918">
        <ele>631.7</ele>
        <time>2021-08-09T09:06:32Z</time>
      </trkpt>
      <trkpt lat="47.84564" lon="7.00918">
        <ele>631.7</ele>
        <time>2021-08-09T09:06:33Z</time>
      </trkpt>
      <trkpt lat="47.84564" lon="7.00918">
        <ele>631.7</ele>
        <time>2021-08-09T09:06:34Z</time>
      </trkpt>
      <trkpt lat="47.84564" lon="7.00917">
        <ele>631.8</ele>
        <time>2021-08-09T09:06:36Z</time>
      </trkpt>
      <trkpt lat="47.84565" lon="7.00917">
        <ele>631.8</ele>
        <time>2021-08-09T09:06:38Z</time>
      </trkpt>
      <trkpt lat="47.84565" lon="7.00916">
        <ele>631.9</ele>
        <time>2021-08-09T09:06:39Z</time>
      </trkpt>
      <trkpt lat="47.84566" lon="7.00914">
        <ele>632.1</ele>
        <time>2021-08-09T09:06:40Z</time>
      </trkpt>
      <trkpt lat="47.84566" lon="7.00909">
        <ele>632.5</ele>
        <time>2021-08-09T09:06:42Z</time>
      </trkpt>
      <trkpt lat="47.84566" lon="7.00905">
        <ele>632.8</ele>
        <time>2021-08-09T09:06:44Z</time>
      </trkpt>
      <trkpt lat="47.84566" lon="7.00902">
        <ele>633</ele>
        <time>2021-08-09T09:06:45Z</time>
      </trkpt>
      <trkpt lat="47.84566" lon="7.00899">
        <ele>633.3</ele>
        <time>2021-08-09T09:06:47Z</time>
      </trkpt>
      <trkpt lat="47.84564" lon="7.00895">
        <ele>633.6</ele>
        <time>2021-08-09T09:06:48Z</time>
      </trkpt>
      <trkpt lat="47.84562" lon="7.0089">
        <ele>633.9</ele>
        <time>2021-08-09T09:06:49Z</time>
      </trkpt>
      <trkpt lat="47.84562" lon="7.00889">
        <ele>634</ele>
        <time>2021-08-09T09:06:50Z</time>
      </trkpt>
      <trkpt lat="47.8456" lon="7.00885">
        <ele>634.2</ele>
        <time>2021-08-09T09:06:52Z</time>
      </trkpt>
      <trkpt lat="47.84559" lon="7.00884">
        <ele>634.3</ele>
        <time>2021-08-09T09:06:53Z</time>
      </trkpt>
      <trkpt lat="47.84558" lon="7.0088">
        <ele>634.6</ele>
        <time>2021-08-09T09:06:55Z</time>
      </trkpt>
      <trkpt lat="47.84558" lon="7.00879">
        <ele>634.7</ele>
        <time>2021-08-09T09:06:56Z</time>
      </trkpt>
      <trkpt lat="47.84556" lon="7.00874">
        <ele>634.9</ele>
        <time>2021-08-09T09:06:57Z</time>
      </trkpt>
      <trkpt lat="47.84554" lon="7.00871">
        <ele>635.2</ele>
        <time>2021-08-09T09:06:59Z</time>
      </trkpt>
      <trkpt lat="47.84552" lon="7.0087">
        <ele>635.4</ele>
        <time>2021-08-09T09:07:00Z</time>
      </trkpt>
      <trkpt lat="47.84551" lon="7.00868">
        <ele>635.5</ele>
        <time>2021-08-09T09:07:01Z</time>
      </trkpt>
      <trkpt lat="47.84549" lon="7.00861">
        <ele>636</ele>
        <time>2021-08-09T09:07:03Z</time>
      </trkpt>
      <trkpt lat="47.84548" lon="7.00855">
        <ele>636.5</ele>
        <time>2021-08-09T09:07:04Z</time>
      </trkpt>
      <trkpt lat="47.84547" lon="7.00849">
        <ele>636.9</ele>
        <time>2021-08-09T09:07:06Z</time>
      </trkpt>
      <trkpt lat="47.84545" lon="7.00843">
        <ele>637.4</ele>
        <time>2021-08-09T09:07:07Z</time>
      </trkpt>
      <trkpt lat="47.84544" lon="7.00837">
        <ele>637.8</ele>
        <time>2021-08-09T09:07:09Z</time>
      </trkpt>
      <trkpt lat="47.84543" lon="7.00831">
        <ele>638.3</ele>
        <time>2021-08-09T09:07:37Z</time>
      </trkpt>
      <trkpt lat="47.84541" lon="7.00825">
        <ele>638.7</ele>
        <time>2021-08-09T09:07:38Z</time>
      </trkpt>
      <trkpt lat="47.84539" lon="7.00823">
        <ele>639</ele>
        <time>2021-08-09T09:07:39Z</time>
      </trkpt>
      <trkpt lat="47.84536" lon="7.00821">
        <ele>639.4</ele>
        <time>2021-08-09T09:07:41Z</time>
      </trkpt>
      <trkpt lat="47.84534" lon="7.00819">
        <ele>639.6</ele>
        <time>2021-08-09T09:07:42Z</time>
      </trkpt>
      <trkpt lat="47.84532" lon="7.00816">
        <ele>639.9</ele>
        <time>2021-08-09T09:07:44Z</time>
      </trkpt>
      <trkpt lat="47.84534" lon="7.00816">
        <ele>640.1</ele>
        <time>2021-08-09T09:07:45Z</time>
      </trkpt>
      <trkpt lat="47.84535" lon="7.00816">
        <ele>640.3</ele>
        <time>2021-08-09T09:07:47Z</time>
      </trkpt>
      <trkpt lat="47.84536" lon="7.00816">
        <ele>640.4</ele>
        <time>2021-08-09T09:07:48Z</time>
      </trkpt>
      <trkpt lat="47.84537" lon="7.00815">
        <ele>640.4</ele>
        <time>2021-08-09T09:07:49Z</time>
      </trkpt>
      <trkpt lat="47.84538" lon="7.00815">
        <ele>640.6</ele>
        <time>2021-08-09T09:07:50Z</time>
      </trkpt>
      <trkpt lat="47.84539" lon="7.00815">
        <ele>640.7</ele>
        <time>2021-08-09T09:07:51Z</time>
      </trkpt>
      <trkpt lat="47.8454" lon="7.00814">
        <ele>640.8</ele>
        <time>2021-08-09T09:07:53Z</time>
      </trkpt>
      <trkpt lat="47.84541" lon="7.00813">
        <ele>641</ele>
        <time>2021-08-09T09:07:54Z</time>
      </trkpt>
      <trkpt lat="47.84541" lon="7.00812">
        <ele>641.1</ele>
        <time>2021-08-09T09:07:56Z</time>
      </trkpt>
      <trkpt lat="47.84541" lon="7.00812">
        <ele>641.1</ele>
        <time>2021-08-09T09:07:57Z</time>
      </trkpt>
      <trkpt lat="47.84542" lon="7.00812">
        <ele>641.2</ele>
        <time>2021-08-09T09:07:59Z</time>
      </trkpt>
      <trkpt lat="47.8453" lon="7.00771">
        <ele>644.7</ele>
        <time>2021-08-09T09:08:34Z</time>
      </trkpt>
      <trkpt lat="47.84528" lon="7.0077">
        <ele>644.8</ele>
        <time>2021-08-09T09:08:35Z</time>
      </trkpt>
      <trkpt lat="47.84527" lon="7.00769">
        <ele>645</ele>
        <time>2021-08-09T09:08:37Z</time>
      </trkpt>
      <trkpt lat="47.84527" lon="7.00768">
        <ele>645.1</ele>
        <time>2021-08-09T09:08:38Z</time>
      </trkpt>
      <trkpt lat="47.84525" lon="7.00766">
        <ele>645.3</ele>
        <time>2021-08-09T09:08:39Z</time>
      </trkpt>
      <trkpt lat="47.84524" lon="7.00764">
        <ele>645.5</ele>
        <time>2021-08-09T09:08:41Z</time>
      </trkpt>
      <trkpt lat="47.84523" lon="7.00762">
        <ele>645.6</ele>
        <time>2021-08-09T09:08:42Z</time>
      </trkpt>
      <trkpt lat="47.84522" lon="7.00761">
        <ele>645.7</ele>
        <time>2021-08-09T09:08:44Z</time>
      </trkpt>
      <trkpt lat="47.84522" lon="7.00761">
        <ele>645.8</ele>
        <time>2021-08-09T09:08:45Z</time>
      </trkpt>
      <trkpt lat="47.84522" lon="7.0076">
        <ele>645.8</ele>
        <time>2021-08-09T09:08:47Z</time>
      </trkpt>
      <trkpt lat="47.84521" lon="7.0076">
        <ele>645.8</ele>
        <time>2021-08-09T09:08:48Z</time>
      </trkpt>
      <trkpt lat="47.84521" lon="7.00759">
        <ele>645.9</ele>
        <time>2021-08-09T09:08:50Z</time>
      </trkpt>
      <trkpt lat="47.84433" lon="7.00611">
        <ele>661.2</ele>
        <time>2021-08-09T09:12:11Z</time>
      </trkpt>
      <trkpt lat="47.84429" lon="7.0061">
        <ele>662.3</ele>
        <time>2021-08-09T09:12:12Z</time>
      </trkpt>
      <trkpt lat="47.84425" lon="7.00609">
        <ele>663.7</ele>
        <time>2021-08-09T09:12:14Z</time>
      </trkpt>
      <trkpt lat="47.84421" lon="7.00607">
        <ele>665.2</ele>
        <time>2021-08-09T09:12:15Z</time>
      </trkpt>
      <trkpt lat="47.84417" lon="7.00606">
        <ele>666.6</ele>
        <time>2021-08-09T09:12:16Z</time>
      </trkpt>
      <trkpt lat="47.84415" lon="7.00606">
        <ele>667.2</ele>
        <time>2021-08-09T09:12:17Z</time>
      </trkpt>
      <trkpt lat="47.84414" lon="7.00605">
        <ele>667.7</ele>
        <time>2021-08-09T09:12:18Z</time>
      </trkpt>
      <trkpt lat="47.84413" lon="7.00604">
        <ele>667.9</ele>
        <time>2021-08-09T09:12:20Z</time>
      </trkpt>
      <trkpt lat="47.84412" lon="7.00604">
        <ele>668.1</ele>
        <time>2021-08-09T09:12:21Z</time>
      </trkpt>
      <trkpt lat="47.84412" lon="7.00604">
        <ele>668.2</ele>
        <time>2021-08-09T09:12:22Z</time>
      </trkpt>
      <trkpt lat="47.84412" lon="7.00604">
        <ele>668.3</ele>
        <time>2021-08-09T09:12:23Z</time>
      </trkpt>
      <trkpt lat="47.84412" lon="7.00603">
        <ele>668.3</ele>
        <time>2021-08-09T09:12:25Z</time>
      </trkpt>
      <trkpt lat="47.8441" lon="7.00592">
        <ele>671</ele>
        <time>2021-08-09T09:12:44Z</time>
      </trkpt>
      <trkpt lat="47.84409" lon="7.0059">
        <ele>671.6</ele>
        <time>2021-08-09T09:12:45Z</time>
      </trkpt>
      <trkpt lat="47.84408" lon="7.00589">
        <ele>672</ele>
        <time>2021-08-09T09:12:47Z</time>
      </trkpt>
      <trkpt lat="47.84408" lon="7.00588">
        <ele>672.2</ele>
        <time>2021-08-09T09:12:48Z</time>
      </trkpt>
      <trkpt lat="47.84408" lon="7.00587">
        <ele>672.4</ele>
        <time>2021-08-09T09:12:50Z</time>
      </trkpt>
      <trkpt lat="47.84408" lon="7.00586">
        <ele>672.6</ele>
        <time>2021-08-09T09:12:51Z</time>
      </trkpt>
      <trkpt lat="47.84408" lon="7.00586">
        <ele>672.6</ele>
        <time>2021-08-09T09:12:52Z</time>
      </trkpt>
      <trkpt lat="47.84408" lon="7.00586">
        <ele>672.7</ele>
        <time>2021-08-09T09:12:53Z</time>
      </trkpt>
      <trkpt lat="47.84407" lon="7.00585">
        <ele>672.8</ele>
        <time>2021-08-09T09:12:54Z</time>
      </trkpt>
      <trkpt lat="47.84407" lon="7.00585">
        <ele>672.9</ele>
        <time>2021-08-09T09:12:56Z</time>
      </trkpt>
      <trkpt lat="47.84407" lon="7.00584">
        <ele>673.2</ele>
        <time>2021-08-09T09:12:57Z</time>
      </trkpt>
      <trkpt lat="47.84407" lon="7.00581">
        <ele>673.9</ele>
        <time>2021-08-09T09:12:58Z</time>
      </trkpt>
      <trkpt lat="47.84406" lon="7.00576">
        <ele>675.1</ele>
        <time>2021-08-09T09:13:00Z</time>
      </trkpt>
      <trkpt lat="47.84406" lon="7.00571">
        <ele>676.1</ele>
        <time>2021-08-09T09:13:01Z</time>
      </trkpt>
      <trkpt lat="47.84405" lon="7.00569">
        <ele>676.7</ele>
        <time>2021-08-09T09:13:02Z</time>
      </trkpt>
      <trkpt lat="47.84404" lon="7.00565">
        <ele>677.7</ele>
        <time>2021-08-09T09:13:04Z</time>
      </trkpt>
      <trkpt lat="47.84403" lon="7.00563">
        <ele>678.2</ele>
        <time>2021-08-09T09:13:05Z</time>
      </trkpt>
      <trkpt lat="47.84403" lon="7.00561">
        <ele>678.9</ele>
        <time>2021-08-09T09:13:07Z</time>
      </trkpt>
      <trkpt lat="47.84403" lon="7.00559">
        <ele>679</ele>
        <time>2021-08-09T09:13:08Z</time>
      </trkpt>
      <trkpt lat="47.84403" lon="7.00558">
        <ele>679.1</ele>
        <time>2021-08-09T09:13:09Z</time>
      </trkpt>
      <trkpt lat="47.84403" lon="7.00557">
        <ele>679.1</ele>
        <time>2021-08-09T09:13:10Z</time>
      </trkpt>
      <trkpt lat="47.84403" lon="7.00557">
        <ele>679.1</ele>
        <time>2021-08-09T09:13:12Z</time>
      </trkpt>
      <trkpt lat="47.84403" lon="7.00556">
        <ele>679.2</ele>
        <time>2021-08-09T09:13:13Z</time>
      </trkpt>
      <trkpt lat="47.84403" lon="7.00556">
        <ele>679.2</ele>
        <time>2021-08-09T09:13:14Z</time>
      </trkpt>
      <trkpt lat="47.84403" lon="7.00557">
        <ele>679.2</ele>
        <time>2021-08-09T09:13:16Z</time>
      </trkpt>
      <trkpt lat="47.84403" lon="7.00559">
        <ele>679.3</ele>
        <time>2021-08-09T09:13:17Z</time>
      </trkpt>
      <trkpt lat="47.84403" lon="7.00561">
        <ele>679.4</ele>
        <time>2021-08-09T09:13:19Z</time>
      </trkpt>
      <trkpt lat="47.84406" lon="7.00566">
        <ele>679.8</ele>
        <time>2021-08-09T09:13:21Z</time>
      </trkpt>
      <trkpt lat="47.84402" lon="7.00572">
        <ele>680.3</ele>
        <time>2021-08-09T09:13:22Z</time>
      </trkpt>
      <trkpt lat="47.84399" lon="7.00575">
        <ele>680.6</ele>
        <time>2021-08-09T09:13:23Z</time>
      </trkpt>
      <trkpt lat="47.84398" lon="7.00576">
        <ele>680.7</ele>
        <time>2021-08-09T09:13:24Z</time>
      </trkpt>
      <trkpt lat="47.84397" lon="7.00579">
        <ele>680.9</ele>
        <time>2021-08-09T09:13:26Z</time>
      </trkpt>
      <trkpt lat="47.84398" lon="7.00579">
        <ele>681</ele>
        <time>2021-08-09T09:13:27Z</time>
      </trkpt>
      <trkpt lat="47.84399" lon="7.00578">
        <ele>681.1</ele>
        <time>2021-08-09T09:13:28Z</time>
      </trkpt>
      <trkpt lat="47.844" lon="7.00577">
        <ele>681.2</ele>
        <time>2021-08-09T09:13:29Z</time>
      </trkpt>
      <trkpt lat="47.844" lon="7.00576">
        <ele>681.3</ele>
        <time>2021-08-09T09:13:31Z</time>
      </trkpt>
      <trkpt lat="47.844" lon="7.00575">
        <ele>681.3</ele>
        <time>2021-08-09T09:13:32Z</time>
      </trkpt>
      <trkpt lat="47.844" lon="7.00575">
        <ele>681.4</ele>
        <time>2021-08-09T09:13:33Z</time>
      </trkpt>
      <trkpt lat="47.844" lon="7.00575">
        <ele>681.4</ele>
        <time>2021-08-09T09:13:34Z</time>
      </trkpt>
      <trkpt lat="47.84391" lon="7.00574">
        <ele>682.3</ele>
        <time>2021-08-09T09:13:42Z</time>
      </trkpt>
      <trkpt lat="47.84387" lon="7.00574">
        <ele>682.7</ele>
        <time>2021-08-09T09:13:43Z</time>
      </trkpt>
      <trkpt lat="47.84382" lon="7.00574">
        <ele>683.3</ele>
        <time>2021-08-09T09:13:44Z</time>
      </trkpt>
      <trkpt lat="47.84376" lon="7.00573">
        <ele>683.9</ele>
        <time>2021-08-09T09:13:45Z</time>
      </trkpt>
      <trkpt lat="47.84371" lon="7.00572">
        <ele>684.5</ele>
        <time>2021-08-09T09:13:47Z</time>
      </trkpt>
      <trkpt lat="47.84369" lon="7.0057">
        <ele>684.8</ele>
        <time>2021-08-09T09:13:48Z</time>
      </trkpt>
      <trkpt lat="47.84366" lon="7.00567">
        <ele>685.3</ele>
        <time>2021-08-09T09:13:49Z</time>
      </trkpt>
      <trkpt lat="47.84365" lon="7.00566">
        <ele>685.4</ele>
        <time>2021-08-09T09:13:50Z</time>
      </trkpt>
      <trkpt lat="47.84367" lon="7.00564">
        <ele>685.6</ele>
        <time>2021-08-09T09:13:52Z</time>
      </trkpt>
      <trkpt lat="47.84366" lon="7.00562">
        <ele>685.7</ele>
        <time>2021-08-09T09:13:53Z</time>
      </trkpt>
      <trkpt lat="47.84366" lon="7.00561">
        <ele>685.8</ele>
        <time>2021-08-09T09:13:55Z</time>
      </trkpt>
      <trkpt lat="47.84366" lon="7.00561">
        <ele>685.8</ele>
        <time>2021-08-09T09:13:56Z</time>
      </trkpt>
      <trkpt lat="47.84366" lon="7.0056">
        <ele>685.9</ele>
        <time>2021-08-09T09:13:57Z</time>
      </trkpt>
      <trkpt lat="47.84366" lon="7.0056">
        <ele>685.9</ele>
        <time>2021-08-09T09:13:58Z</time>
      </trkpt>
      <trkpt lat="47.84366" lon="7.0056">
        <ele>686</ele>
        <time>2021-08-09T09:14:00Z</time>
      </trkpt>
      <trkpt lat="47.84366" lon="7.00561">
        <ele>686</ele>
        <time>2021-08-09T09:14:01Z</time>
      </trkpt>
      <trkpt lat="47.84366" lon="7.00561">
        <ele>686</ele>
        <time>2021-08-09T09:14:03Z</time>
      </trkpt>
      <trkpt lat="47.84366" lon="7.00562">
        <ele>686.1</ele>
        <time>2021-08-09T09:14:04Z</time>
      </trkpt>
      <trkpt lat="47.84366" lon="7.00562">
        <ele>686.1</ele>
        <time>2021-08-09T09:14:05Z</time>
      </trkpt>
      <trkpt lat="47.84365" lon="7.00561">
        <ele>686.1</ele>
        <time>2021-08-09T09:14:07Z</time>
      </trkpt>
      <trkpt lat="47.84365" lon="7.0056">
        <ele>686.2</ele>
        <time>2021-08-09T09:14:08Z</time>
      </trkpt>
      <trkpt lat="47.84364" lon="7.00557">
        <ele>686.5</ele>
        <time>2021-08-09T09:14:10Z</time>
      </trkpt>
      <trkpt lat="47.84206" lon="7.00381">
        <ele>705.8</ele>
        <time>2021-08-09T09:19:11Z</time>
      </trkpt>
      <trkpt lat="47.84204" lon="7.00381">
        <ele>706</ele>
        <time>2021-08-09T09:19:12Z</time>
      </trkpt>
      <trkpt lat="47.84203" lon="7.00381">
        <ele>706.1</ele>
        <time>2021-08-09T09:19:14Z</time>
      </trkpt>
      <trkpt lat="47.84201" lon="7.00381">
        <ele>706.2</ele>
        <time>2021-08-09T09:19:15Z</time>
      </trkpt>
      <trkpt lat="47.842" lon="7.00382">
        <ele>706.3</ele>
        <time>2021-08-09T09:19:17Z</time>
      </trkpt>
      <trkpt lat="47.842" lon="7.00382">
        <ele>706.4</ele>
        <time>2021-08-09T09:19:19Z</time>
      </trkpt>
      <trkpt lat="47.84199" lon="7.00383">
        <ele>706.4</ele>
        <time>2021-08-09T09:19:20Z</time>
      </trkpt>
      <trkpt lat="47.84199" lon="7.00383">
        <ele>706.4</ele>
        <time>2021-08-09T09:19:21Z</time>
      </trkpt>
      <trkpt lat="47.84199" lon="7.00383">
        <ele>706.4</ele>
        <time>2021-08-09T09:19:22Z</time>
      </trkpt>
      <trkpt lat="47.84199" lon="7.00383">
        <ele>706.5</ele>
        <time>2021-08-09T09:19:23Z</time>
      </trkpt>
      <trkpt lat="47.84198" lon="7.00383">
        <ele>706.5</ele>
        <time>2021-08-09T09:19:25Z</time>
      </trkpt>
      <trkpt lat="47.84198" lon="7.00383">
        <ele>706.5</ele>
        <time>2021-08-09T09:19:27Z</time>
      </trkpt>
      <trkpt lat="47.84198" lon="7.00383">
        <ele>706.5</ele>
        <time>2021-08-09T09:19:28Z</time>
      </trkpt>
      <trkpt lat="47.84198" lon="7.00383">
        <ele>706.6</ele>
        <time>2021-08-09T09:19:29Z</time>
      </trkpt>
      <trkpt lat="47.84197" lon="7.00383">
        <ele>706.6</ele>
        <time>2021-08-09T09:19:31Z</time>
      </trkpt>
      <trkpt lat="47.84197" lon="7.00383">
        <ele>706.6</ele>
        <time>2021-08-09T09:19:34Z</time>
      </trkpt>
      <trkpt lat="47.84197" lon="7.00383">
        <ele>706.6</ele>
        <time>2021-08-09T09:19:35Z</time>
      </trkpt>
      <trkpt lat="47.84197" lon="7.00382">
        <ele>706.6</ele>
        <time>2021-08-09T09:19:37Z</time>
      </trkpt>
      <trkpt lat="47.84197" lon="7.00383">
        <ele>706.7</ele>
        <time>2021-08-09T09:19:39Z</time>
      </trkpt>
      <trkpt lat="47.84196" lon="7.00383">
        <ele>706.7</ele>
        <time>2021-08-09T09:19:40Z</time>
      </trkpt>
      <trkpt lat="47.84193" lon="7.00381">
        <ele>707.1</ele>
        <time>2021-08-09T09:19:42Z</time>
      </trkpt>
      <trkpt lat="47.84192" lon="7.00381">
        <ele>707.1</ele>
        <time>2021-08-09T09:19:43Z</time>
      </trkpt>
      <trkpt lat="47.84191" lon="7.0038">
        <ele>707.3</ele>
        <time>2021-08-09T09:19:44Z</time>
      </trkpt>
      <trkpt lat="47.84189" lon="7.00378">
        <ele>707.4</ele>
        <time>2021-08-09T09:19:45Z</time>
      </trkpt>
      <trkpt lat="47.84188" lon="7.00375">
        <ele>707.7</ele>
        <time>2021-08-09T09:19:46Z</time>
      </trkpt>
      <trkpt lat="47.84185" lon="7.0037">
        <ele>708.1</ele>
        <time>2021-08-09T09:19:48Z</time>
      </trkpt>
      <trkpt lat="47.84184" lon="7.00367">
        <ele>708.3</ele>
        <time>2021-08-09T09:19:49Z</time>
      </trkpt>
      <trkpt lat="47.84181" lon="7.00364">
        <ele>708.5</ele>
        <time>2021-08-09T09:19:51Z</time>
      </trkpt>
      <trkpt lat="47.84179" lon="7.00361">
        <ele>708.9</ele>
        <time>2021-08-09T09:19:52Z</time>
      </trkpt>
      <trkpt lat="47.84178" lon="7.00359">
        <ele>709</ele>
        <time>2021-08-09T09:19:54Z</time>
      </trkpt>
      <trkpt lat="47.84177" lon="7.00357">
        <ele>709.1</ele>
        <time>2021-08-09T09:19:55Z</time>
      </trkpt>
      <trkpt lat="47.84177" lon="7.00356">
        <ele>709.2</ele>
        <time>2021-08-09T09:19:56Z</time>
      </trkpt>
      <trkpt lat="47.84177" lon="7.00355">
        <ele>709.3</ele>
        <time>2021-08-09T09:19:58Z</time>
      </trkpt>
      <trkpt lat="47.84177" lon="7.00355">
        <ele>709.3</ele>
        <time>2021-08-09T09:19:59Z</time>
      </trkpt>
      <trkpt lat="47.84177" lon="7.00355">
        <ele>709.3</ele>
        <time>2021-08-09T09:20:00Z</time>
      </trkpt>
      <trkpt lat="47.84177" lon="7.00355">
        <ele>709.3</ele>
        <time>2021-08-09T09:20:01Z</time>
      </trkpt>
      <trkpt lat="47.84177" lon="7.00355">
        <ele>709.3</ele>
        <time>2021-08-09T09:20:03Z</time>
      </trkpt>
      <trkpt lat="47.84177" lon="7.00355">
        <ele>709.4</ele>
        <time>2021-08-09T09:20:04Z</time>
      </trkpt>
      <trkpt lat="47.84177" lon="7.00355">
        <ele>709.4</ele>
        <time>2021-08-09T09:20:05Z</time>
      </trkpt>
      <trkpt lat="47.84177" lon="7.00355">
        <ele>709.4</ele>
        <time>2021-08-09T09:20:06Z</time>
      </trkpt>
      <trkpt lat="47.84177" lon="7.00355">
        <ele>709.4</ele>
        <time>2021-08-09T09:20:08Z</time>
      </trkpt>
      <trkpt lat="47.84177" lon="7.00354">
        <ele>709.4</ele>
        <time>2021-08-09T09:20:09Z</time>
      </trkpt>
      <trkpt lat="47.84177" lon="7.00354">
        <ele>709.5</ele>
        <time>2021-08-09T09:20:10Z</time>
      </trkpt>
      <trkpt lat="47.84177" lon="7.00353">
        <ele>709.5</ele>
        <time>2021-08-09T09:20:12Z</time>
      </trkpt>
      <trkpt lat="47.84176" lon="7.00353">
        <ele>709.5</ele>
        <time>2021-08-09T09:20:13Z</time>
      </trkpt>
      <trkpt lat="47.84176" lon="7.00353">
        <ele>709.5</ele>
        <time>2021-08-09T09:20:14Z</time>
      </trkpt>
      <trkpt lat="47.84176" lon="7.00352">
        <ele>709.6</ele>
        <time>2021-08-09T09:20:16Z</time>
      </trkpt>
      <trkpt lat="47.84176" lon="7.00352">
        <ele>709.6</ele>
        <time>2021-08-09T09:20:17Z</time>
      </trkpt>
      <trkpt lat="47.84175" lon="7.00351">
        <ele>709.7</ele>
        <time>2021-08-09T09:20:19Z</time>
      </trkpt>
      <trkpt lat="47.84175" lon="7.00351">
        <ele>709.8</ele>
        <time>2021-08-09T09:20:20Z</time>
      </trkpt>
      <trkpt lat="47.84174" lon="7.0035">
        <ele>709.9</ele>
        <time>2021-08-09T09:20:21Z</time>
      </trkpt>
      <trkpt lat="47.84173" lon="7.00349">
        <ele>710</ele>
        <time>2021-08-09T09:20:23Z</time>
      </trkpt>
      <trkpt lat="47.84172" lon="7.00349">
        <ele>710.1</ele>
        <time>2021-08-09T09:20:24Z</time>
      </trkpt>
      <trkpt lat="47.84171" lon="7.00349">
        <ele>710.2</ele>
        <time>2021-08-09T09:20:25Z</time>
      </trkpt>
      <trkpt lat="47.8417" lon="7.00349">
        <ele>710.3</ele>
        <time>2021-08-09T09:20:26Z</time>
      </trkpt>
      <trkpt lat="47.84169" lon="7.00348">
        <ele>710.4</ele>
        <time>2021-08-09T09:20:28Z</time>
      </trkpt>
      <trkpt lat="47.84169" lon="7.00348">
        <ele>710.4</ele>
        <time>2021-08-09T09:20:29Z</time>
      </trkpt>
      <trkpt lat="47.84168" lon="7.00348">
        <ele>710.5</ele>
        <time>2021-08-09T09:20:30Z</time>
      </trkpt>
      <trkpt lat="47.84168" lon="7.00348">
        <ele>710.6</ele>
        <time>2021-08-09T09:20:32Z</time>
      </trkpt>
      <trkpt lat="47.84167" lon="7.00348">
        <ele>710.6</ele>
        <time>2021-08-09T09:20:33Z</time>
      </trkpt>
      <trkpt lat="47.84167" lon="7.00347">
        <ele>710.6</ele>
        <time>2021-08-09T09:20:34Z</time>
      </trkpt>
      <trkpt lat="47.84167" lon="7.00347">
        <ele>710.6</ele>
        <time>2021-08-09T09:20:36Z</time>
      </trkpt>
      <trkpt lat="47.84167" lon="7.00347">
        <ele>710.7</ele>
        <time>2021-08-09T09:20:37Z</time>
      </trkpt>
      <trkpt lat="47.84166" lon="7.00347">
        <ele>710.8</ele>
        <time>2021-08-09T09:20:38Z</time>
      </trkpt>
      <trkpt lat="47.84164" lon="7.00346">
        <ele>711</ele>
        <time>2021-08-09T09:20:40Z</time>
      </trkpt>
      <trkpt lat="47.84163" lon="7.00346">
        <ele>711.1</ele>
        <time>2021-08-09T09:20:41Z</time>
      </trkpt>
      <trkpt lat="47.84162" lon="7.00346">
        <ele>711.3</ele>
        <time>2021-08-09T09:20:42Z</time>
      </trkpt>
      <trkpt lat="47.8416" lon="7.00346">
        <ele>711.4</ele>
        <time>2021-08-09T09:20:44Z</time>
      </trkpt>
      <trkpt lat="47.84158" lon="7.00345">
        <ele>711.7</ele>
        <time>2021-08-09T09:20:45Z</time>
      </trkpt>
      <trkpt lat="47.84157" lon="7.00345">
        <ele>711.8</ele>
        <time>2021-08-09T09:20:46Z</time>
      </trkpt>
      <trkpt lat="47.84156" lon="7.00345">
        <ele>711.9</ele>
        <time>2021-08-09T09:20:47Z</time>
      </trkpt>
      <trkpt lat="47.84153" lon="7.00344">
        <ele>712.2</ele>
        <time>2021-08-09T09:20:49Z</time>
      </trkpt>
      <trkpt lat="47.84151" lon="7.00343">
        <ele>712.4</ele>
        <time>2021-08-09T09:20:50Z</time>
      </trkpt>
      <trkpt lat="47.8415" lon="7.00343">
        <ele>712.5</ele>
        <time>2021-08-09T09:20:51Z</time>
      </trkpt>
      <trkpt lat="47.84148" lon="7.00343">
        <ele>712.7</ele>
        <time>2021-08-09T09:20:53Z</time>
      </trkpt>
      <trkpt lat="47.84148" lon="7.00343">
        <ele>712.8</ele>
        <time>2021-08-09T09:20:54Z</time>
      </trkpt>
      <trkpt lat="47.84147" lon="7.00342">
        <ele>712.8</ele>
        <time>2021-08-09T09:20:55Z</time>
      </trkpt>
      <trkpt lat="47.84147" lon="7.00342">
        <ele>712.8</ele>
        <time>2021-08-09T09:20:57Z</time>
      </trkpt>
      <trkpt lat="47.84147" lon="7.00342">
        <ele>712.9</ele>
        <time>2021-08-09T09:20:58Z</time>
      </trkpt>
      <trkpt lat="47.84147" lon="7.00342">
        <ele>712.9</ele>
        <time>2021-08-09T09:21:00Z</time>
      </trkpt>
      <trkpt lat="47.84117" lon="7.00308">
        <ele>716.3</ele>
        <time>2021-08-09T09:21:44Z</time>
      </trkpt>
      <trkpt lat="47.84115" lon="7.00306">
        <ele>716.5</ele>
        <time>2021-08-09T09:21:45Z</time>
      </trkpt>
      <trkpt lat="47.84113" lon="7.00305">
        <ele>716.7</ele>
        <time>2021-08-09T09:21:47Z</time>
      </trkpt>
      <trkpt lat="47.8411" lon="7.00301">
        <ele>716.9</ele>
        <time>2021-08-09T09:21:49Z</time>
      </trkpt>
      <trkpt lat="47.84109" lon="7.003">
        <ele>717</ele>
        <time>2021-08-09T09:21:50Z</time>
      </trkpt>
      <trkpt lat="47.84109" lon="7.00298">
        <ele>717.1</ele>
        <time>2021-08-09T09:21:51Z</time>
      </trkpt>
      <trkpt lat="47.84108" lon="7.00295">
        <ele>717.3</ele>
        <time>2021-08-09T09:21:53Z</time>
      </trkpt>
      <trkpt lat="47.84107" lon="7.00294">
        <ele>717.4</ele>
        <time>2021-08-09T09:21:55Z</time>
      </trkpt>
      <trkpt lat="47.84107" lon="7.00293">
        <ele>717.5</ele>
        <time>2021-08-09T09:21:56Z</time>
      </trkpt>
      <trkpt lat="47.84107" lon="7.00292">
        <ele>717.5</ele>
        <time>2021-08-09T09:21:57Z</time>
      </trkpt>
      <trkpt lat="47.84106" lon="7.00291">
        <ele>717.6</ele>
        <time>2021-08-09T09:21:59Z</time>
      </trkpt>
      <trkpt lat="47.84105" lon="7.00289">
        <ele>717.7</ele>
        <time>2021-08-09T09:22:00Z</time>
      </trkpt>
      <trkpt lat="47.84104" lon="7.00288">
        <ele>717.8</ele>
        <time>2021-08-09T09:22:01Z</time>
      </trkpt>
      <trkpt lat="47.84104" lon="7.00287">
        <ele>717.8</ele>
        <time>2021-08-09T09:22:02Z</time>
      </trkpt>
      <trkpt lat="47.84102" lon="7.00285">
        <ele>718</ele>
        <time>2021-08-09T09:22:04Z</time>
      </trkpt>
      <trkpt lat="47.84101" lon="7.00284">
        <ele>718</ele>
        <time>2021-08-09T09:22:06Z</time>
      </trkpt>
      <trkpt lat="47.841" lon="7.00284">
        <ele>718.1</ele>
        <time>2021-08-09T09:22:07Z</time>
      </trkpt>
      <trkpt lat="47.84099" lon="7.00283">
        <ele>718.2</ele>
        <time>2021-08-09T09:22:09Z</time>
      </trkpt>
      <trkpt lat="47.84098" lon="7.00283">
        <ele>718.2</ele>
        <time>2021-08-09T09:22:10Z</time>
      </trkpt>
      <trkpt lat="47.84097" lon="7.00282">
        <ele>718.3</ele>
        <time>2021-08-09T09:22:12Z</time>
      </trkpt>
      <trkpt lat="47.84095" lon="7.00281">
        <ele>718.5</ele>
        <time>2021-08-09T09:22:14Z</time>
      </trkpt>
      <trkpt lat="47.84094" lon="7.0028">
        <ele>718.5</ele>
        <time>2021-08-09T09:22:15Z</time>
      </trkpt>
      <trkpt lat="47.84094" lon="7.00279">
        <ele>718.6</ele>
        <time>2021-08-09T09:22:17Z</time>
      </trkpt>
      <trkpt lat="47.84094" lon="7.00278">
        <ele>718.6</ele>
        <time>2021-08-09T09:22:18Z</time>
      </trkpt>
      <trkpt lat="47.84093" lon="7.00277">
        <ele>718.7</ele>
        <time>2021-08-09T09:22:20Z</time>
      </trkpt>
      <trkpt lat="47.84093" lon="7.00277">
        <ele>718.7</ele>
        <time>2021-08-09T09:22:21Z</time>
      </trkpt>
      <trkpt lat="47.84092" lon="7.00276">
        <ele>718.8</ele>
        <time>2021-08-09T09:22:23Z</time>
      </trkpt>
      <trkpt lat="47.84092" lon="7.00275">
        <ele>718.8</ele>
        <time>2021-08-09T09:22:24Z</time>
      </trkpt>
      <trkpt lat="47.84092" lon="7.00273">
        <ele>718.9</ele>
        <time>2021-08-09T09:22:26Z</time>
      </trkpt>
      <trkpt lat="47.84092" lon="7.00271">
        <ele>719</ele>
        <time>2021-08-09T09:22:27Z</time>
      </trkpt>
      <trkpt lat="47.84092" lon="7.0027">
        <ele>719</ele>
        <time>2021-08-09T09:22:28Z</time>
      </trkpt>
      <trkpt lat="47.84091" lon="7.00269">
        <ele>719.1</ele>
        <time>2021-08-09T09:22:29Z</time>
      </trkpt>
      <trkpt lat="47.84091" lon="7.00269">
        <ele>719.1</ele>
        <time>2021-08-09T09:22:31Z</time>
      </trkpt>
      <trkpt lat="47.84091" lon="7.00268">
        <ele>719.1</ele>
        <time>2021-08-09T09:22:32Z</time>
      </trkpt>
      <trkpt lat="47.84091" lon="7.00267">
        <ele>719.2</ele>
        <time>2021-08-09T09:22:33Z</time>
      </trkpt>
      <trkpt lat="47.84091" lon="7.00267">
        <ele>719.2</ele>
        <time>2021-08-09T09:22:35Z</time>
      </trkpt>
      <trkpt lat="47.84091" lon="7.00267">
        <ele>719.2</ele>
        <time>2021-08-09T09:22:36Z</time>
      </trkpt>
      <trkpt lat="47.84091" lon="7.00266">
        <ele>719.2</ele>
        <time>2021-08-09T09:22:38Z</time>
      </trkpt>
      <trkpt lat="47.8409" lon="7.00265">
        <ele>719.3</ele>
        <time>2021-08-09T09:22:39Z</time>
      </trkpt>
      <trkpt lat="47.84089" lon="7.00264">
        <ele>719.4</ele>
        <time>2021-08-09T09:22:40Z</time>
      </trkpt>
      <trkpt lat="47.84087" lon="7.00263">
        <ele>719.5</ele>
        <time>2021-08-09T09:22:42Z</time>
      </trkpt>
      <trkpt lat="47.84086" lon="7.00261">
        <ele>719.7</ele>
        <time>2021-08-09T09:22:43Z</time>
      </trkpt>
      <trkpt lat="47.84085" lon="7.00259">
        <ele>719.8</ele>
        <time>2021-08-09T09:22:44Z</time>
      </trkpt>
      <trkpt lat="47.84083" lon="7.00258">
        <ele>719.9</ele>
        <time>2021-08-09T09:22:46Z</time>
      </trkpt>
      <trkpt lat="47.84082" lon="7.00257">
        <ele>720</ele>
        <time>2021-08-09T09:22:47Z</time>
      </trkpt>
      <trkpt lat="47.8408" lon="7.00253">
        <ele>720.3</ele>
        <time>2021-08-09T09:22:49Z</time>
      </trkpt>
      <trkpt lat="47.84079" lon="7.00249">
        <ele>720.5</ele>
        <time>2021-08-09T09:22:50Z</time>
      </trkpt>
      <trkpt lat="47.84078" lon="7.00247">
        <ele>720.6</ele>
        <time>2021-08-09T09:22:52Z</time>
      </trkpt>
      <trkpt lat="47.84078" lon="7.00246">
        <ele>720.7</ele>
        <time>2021-08-09T09:22:53Z</time>
      </trkpt>
      <trkpt lat="47.84078" lon="7.00244">
        <ele>720.7</ele>
        <time>2021-08-09T09:22:54Z</time>
      </trkpt>
      <trkpt lat="47.84077" lon="7.00243">
        <ele>720.8</ele>
        <time>2021-08-09T09:22:56Z</time>
      </trkpt>
      <trkpt lat="47.84077" lon="7.00242">
        <ele>720.8</ele>
        <time>2021-08-09T09:22:57Z</time>
      </trkpt>
      <trkpt lat="47.84077" lon="7.00242">
        <ele>720.9</ele>
        <time>2021-08-09T09:22:59Z</time>
      </trkpt>
      <trkpt lat="47.84077" lon="7.00242">
        <ele>720.9</ele>
        <time>2021-08-09T09:23:00Z</time>
      </trkpt>
      <trkpt lat="47.84012" lon="7.00237">
        <ele>727.1</ele>
        <time>2021-08-09T09:24:30Z</time>
      </trkpt>
      <trkpt lat="47.84011" lon="7.0024">
        <ele>727.3</ele>
        <time>2021-08-09T09:24:31Z</time>
      </trkpt>
      <trkpt lat="47.8401" lon="7.00242">
        <ele>727.5</ele>
        <time>2021-08-09T09:24:32Z</time>
      </trkpt>
      <trkpt lat="47.84007" lon="7.00245">
        <ele>727.9</ele>
        <time>2021-08-09T09:24:34Z</time>
      </trkpt>
      <trkpt lat="47.84002" lon="7.00249">
        <ele>728.4</ele>
        <time>2021-08-09T09:24:35Z</time>
      </trkpt>
      <trkpt lat="47.83999" lon="7.00246">
        <ele>728.7</ele>
        <time>2021-08-09T09:24:37Z</time>
      </trkpt>
      <trkpt lat="47.83997" lon="7.00245">
        <ele>728.9</ele>
        <time>2021-08-09T09:24:38Z</time>
      </trkpt>
      <trkpt lat="47.83994" lon="7.00244">
        <ele>729.1</ele>
        <time>2021-08-09T09:24:40Z</time>
      </trkpt>
      <trkpt lat="47.8399" lon="7.00239">
        <ele>729.5</ele>
        <time>2021-08-09T09:24:41Z</time>
      </trkpt>
      <trkpt lat="47.83988" lon="7.00235">
        <ele>729.8</ele>
        <time>2021-08-09T09:24:42Z</time>
      </trkpt>
      <trkpt lat="47.83986" lon="7.00231">
        <ele>730</ele>
        <time>2021-08-09T09:24:43Z</time>
      </trkpt>
      <trkpt lat="47.83986" lon="7.00227">
        <ele>730.2</ele>
        <time>2021-08-09T09:24:44Z</time>
      </trkpt>
      <trkpt lat="47.83984" lon="7.00215">
        <ele>730.9</ele>
        <time>2021-08-09T09:24:46Z</time>
      </trkpt>
      <trkpt lat="47.83983" lon="7.00213">
        <ele>731</ele>
        <time>2021-08-09T09:24:47Z</time>
      </trkpt>
      <trkpt lat="47.83982" lon="7.00212">
        <ele>731.1</ele>
        <time>2021-08-09T09:24:49Z</time>
      </trkpt>
      <trkpt lat="47.83981" lon="7.00212">
        <ele>731.1</ele>
        <time>2021-08-09T09:24:51Z</time>
      </trkpt>
      <trkpt lat="47.83981" lon="7.00211">
        <ele>731.2</ele>
        <time>2021-08-09T09:24:52Z</time>
      </trkpt>
      <trkpt lat="47.83981" lon="7.00211">
        <ele>731.2</ele>
        <time>2021-08-09T09:24:53Z</time>
      </trkpt>
      <trkpt lat="47.83981" lon="7.00211">
        <ele>731.2</ele>
        <time>2021-08-09T09:24:55Z</time>
      </trkpt>
      <trkpt lat="47.83981" lon="7.00211">
        <ele>731.2</ele>
        <time>2021-08-09T09:24:56Z</time>
      </trkpt>
      <trkpt lat="47.83983" lon="7.00211">
        <ele>731.3</ele>
        <time>2021-08-09T09:24:58Z</time>
      </trkpt>
      <trkpt lat="47.83983" lon="7.0021">
        <ele>731.4</ele>
        <time>2021-08-09T09:24:59Z</time>
      </trkpt>
      <trkpt lat="47.83997" lon="7.00368">
        <ele>745.4</ele>
        <time>2021-08-09T09:27:45Z</time>
      </trkpt>
      <trkpt lat="47.84" lon="7.0037">
        <ele>745.6</ele>
        <time>2021-08-09T09:27:46Z</time>
      </trkpt>
      <trkpt lat="47.84004" lon="7.00374">
        <ele>746.2</ele>
        <time>2021-08-09T09:27:48Z</time>
      </trkpt>
      <trkpt lat="47.84007" lon="7.00377">
        <ele>746.5</ele>
        <time>2021-08-09T09:27:49Z</time>
      </trkpt>
      <trkpt lat="47.84009" lon="7.00378">
        <ele>746.7</ele>
        <time>2021-08-09T09:27:50Z</time>
      </trkpt>
      <trkpt lat="47.8401" lon="7.0038">
        <ele>746.9</ele>
        <time>2021-08-09T09:27:51Z</time>
      </trkpt>
      <trkpt lat="47.84012" lon="7.00383">
        <ele>747.2</ele>
        <time>2021-08-09T09:27:53Z</time>
      </trkpt>
      <trkpt lat="47.84013" lon="7.00386">
        <ele>747.4</ele>
        <time>2021-08-09T09:27:55Z</time>
      </trkpt>
      <trkpt lat="47.84011" lon="7.00389">
        <ele>747.7</ele>
        <time>2021-08-09T09:27:57Z</time>
      </trkpt>
      <trkpt lat="47.84011" lon="7.0039">
        <ele>747.8</ele>
        <time>2021-08-09T09:27:58Z</time>
      </trkpt>
      <trkpt lat="47.84011" lon="7.0039">
        <ele>747.8</ele>
        <time>2021-08-09T09:27:59Z</time>
      </trkpt>
      <trkpt lat="47.84011" lon="7.0039">
        <ele>747.8</ele>
        <time>2021-08-09T09:28:00Z</time>
      </trkpt>
      <trkpt lat="47.84011" lon="7.00391">
        <ele>747.8</ele>
        <time>2021-08-09T09:28:02Z</time>
      </trkpt>
      <trkpt lat="47.84011" lon="7.00391">
        <ele>747.8</ele>
        <time>2021-08-09T09:28:03Z</time>
      </trkpt>
      <trkpt lat="47.84011" lon="7.00391">
        <ele>747.9</ele>
        <time>2021-08-09T09:28:05Z</time>
      </trkpt>
      <trkpt lat="47.84011" lon="7.00391">
        <ele>747.9</ele>
        <time>2021-08-09T09:28:06Z</time>
      </trkpt>
      <trkpt lat="47.84011" lon="7.00391">
        <ele>747.9</ele>
        <time>2021-08-09T09:28:07Z</time>
      </trkpt>
      <trkpt lat="47.84012" lon="7.00391">
        <ele>747.9</ele>
        <time>2021-08-09T09:28:09Z</time>
      </trkpt>
      <trkpt lat="47.84037" lon="7.00447">
        <ele>752.4</ele>
        <time>2021-08-09T09:29:15Z</time>
      </trkpt>
      <trkpt lat="47.84038" lon="7.00449">
        <ele>752.6</ele>
        <time>2021-08-09T09:29:16Z</time>
      </trkpt>
      <trkpt lat="47.84038" lon="7.0045">
        <ele>752.7</ele>
        <time>2021-08-09T09:29:17Z</time>
      </trkpt>
      <trkpt lat="47.84039" lon="7.00453">
        <ele>752.9</ele>
        <time>2021-08-09T09:29:19Z</time>
      </trkpt>
      <trkpt lat="47.84039" lon="7.00454">
        <ele>753</ele>
        <time>2021-08-09T09:29:20Z</time>
      </trkpt>
      <trkpt lat="47.8404" lon="7.00455">
        <ele>753.1</ele>
        <time>2021-08-09T09:29:21Z</time>
      </trkpt>
      <trkpt lat="47.8404" lon="7.00456">
        <ele>753.1</ele>
        <time>2021-08-09T09:29:23Z</time>
      </trkpt>
      <trkpt lat="47.84041" lon="7.00457">
        <ele>753.2</ele>
        <time>2021-08-09T09:29:25Z</time>
      </trkpt>
      <trkpt lat="47.84041" lon="7.00458">
        <ele>753.3</ele>
        <time>2021-08-09T09:29:26Z</time>
      </trkpt>
      <trkpt lat="47.84041" lon="7.00459">
        <ele>753.4</ele>
        <time>2021-08-09T09:29:27Z</time>
      </trkpt>
      <trkpt lat="47.84043" lon="7.00462">
        <ele>753.6</ele>
        <time>2021-08-09T09:29:29Z</time>
      </trkpt>
      <trkpt lat="47.84043" lon="7.00462">
        <ele>753.7</ele>
        <time>2021-08-09T09:29:30Z</time>
      </trkpt>
      <trkpt lat="47.84044" lon="7.00464">
        <ele>753.8</ele>
        <time>2021-08-09T09:29:32Z</time>
      </trkpt>
      <trkpt lat="47.84045" lon="7.00465">
        <ele>753.9</ele>
        <time>2021-08-09T09:29:33Z</time>
      </trkpt>
      <trkpt lat="47.84046" lon="7.00466">
        <ele>754</ele>
        <time>2021-08-09T09:29:35Z</time>
      </trkpt>
      <trkpt lat="47.84047" lon="7.00466">
        <ele>754.1</ele>
        <time>2021-08-09T09:29:36Z</time>
      </trkpt>
      <trkpt lat="47.84048" lon="7.00467">
        <ele>754.2</ele>
        <time>2021-08-09T09:29:37Z</time>
      </trkpt>
      <trkpt lat="47.8405" lon="7.00469">
        <ele>754.5</ele>
        <time>2021-08-09T09:29:39Z</time>
      </trkpt>
      <trkpt lat="47.84053" lon="7.00472">
        <ele>754.9</ele>
        <time>2021-08-09T09:29:40Z</time>
      </trkpt>
      <trkpt lat="47.84055" lon="7.00473">
        <ele>755</ele>
        <time>2021-08-09T09:29:41Z</time>
      </trkpt>
      <trkpt lat="47.84057" lon="7.00474">
        <ele>755.3</ele>
        <time>2021-08-09T09:29:43Z</time>
      </trkpt>
      <trkpt lat="47.84059" lon="7.00475">
        <ele>755.5</ele>
        <time>2021-08-09T09:29:44Z</time>
      </trkpt>
      <trkpt lat="47.8406" lon="7.00477">
        <ele>755.6</ele>
        <time>2021-08-09T09:29:45Z</time>
      </trkpt>
      <trkpt lat="47.84061" lon="7.00478">
        <ele>755.8</ele>
        <time>2021-08-09T09:29:47Z</time>
      </trkpt>
      <trkpt lat="47.84062" lon="7.0048">
        <ele>755.9</ele>
        <time>2021-08-09T09:29:48Z</time>
      </trkpt>
      <trkpt lat="47.84062" lon="7.00481">
        <ele>756</ele>
        <time>2021-08-09T09:29:49Z</time>
      </trkpt>
      <trkpt lat="47.84062" lon="7.00481">
        <ele>756</ele>
        <time>2021-08-09T09:29:50Z</time>
      </trkpt>
      <trkpt lat="47.84061" lon="7.00482">
        <ele>756.1</ele>
        <time>2021-08-09T09:29:52Z</time>
      </trkpt>
      <trkpt lat="47.84061" lon="7.00483">
        <ele>756.2</ele>
        <time>2021-08-09T09:29:54Z</time>
      </trkpt>
      <trkpt lat="47.84061" lon="7.00483">
        <ele>756.2</ele>
        <time>2021-08-09T09:29:55Z</time>
      </trkpt>
      <trkpt lat="47.84061" lon="7.00484">
        <ele>756.3</ele>
        <time>2021-08-09T09:29:57Z</time>
      </trkpt>
      <trkpt lat="47.84061" lon="7.00484">
        <ele>756.3</ele>
        <time>2021-08-09T09:29:58Z</time>
      </trkpt>
      <trkpt lat="47.84061" lon="7.00484">
        <ele>756.3</ele>
        <time>2021-08-09T09:29:59Z</time>
      </trkpt>
      <trkpt lat="47.84061" lon="7.00485">
        <ele>756.3</ele>
        <time>2021-08-09T09:30:00Z</time>
      </trkpt>
      <trkpt lat="47.84061" lon="7.00485">
        <ele>756.3</ele>
        <time>2021-08-09T09:30:02Z</time>
      </trkpt>
      <trkpt lat="47.84062" lon="7.00486">
        <ele>756.4</ele>
        <time>2021-08-09T09:30:03Z</time>
      </trkpt>
      <trkpt lat="47.84062" lon="7.00489">
        <ele>756.7</ele>
        <time>2021-08-09T09:30:05Z</time>
      </trkpt>
      <trkpt lat="47.84063" lon="7.00492">
        <ele>756.9</ele>
        <time>2021-08-09T09:30:06Z</time>
      </trkpt>
      <trkpt lat="47.84063" lon="7.00493">
        <ele>757</ele>
        <time>2021-08-09T09:30:07Z</time>
      </trkpt>
      <trkpt lat="47.84063" lon="7.00495">
        <ele>757.1</ele>
        <time>2021-08-09T09:30:09Z</time>
      </trkpt>
      <trkpt lat="47.84064" lon="7.00496">
        <ele>757.2</ele>
        <time>2021-08-09T09:30:10Z</time>
      </trkpt>
      <trkpt lat="47.84064" lon="7.00498">
        <ele>757.3</ele>
        <time>2021-08-09T09:30:12Z</time>
      </trkpt>
      <trkpt lat="47.84064" lon="7.00498">
        <ele>757.4</ele>
        <time>2021-08-09T09:30:13Z</time>
      </trkpt>
      <trkpt lat="47.84064" lon="7.00499">
        <ele>757.4</ele>
        <time>2021-08-09T09:30:14Z</time>
      </trkpt>
      <trkpt lat="47.84063" lon="7.00502">
        <ele>757.7</ele>
        <time>2021-08-09T09:30:16Z</time>
      </trkpt>
      <trkpt lat="47.84063" lon="7.00505">
        <ele>757.9</ele>
        <time>2021-08-09T09:30:17Z</time>
      </trkpt>
      <trkpt lat="47.84063" lon="7.00507">
        <ele>758.1</ele>
        <time>2021-08-09T09:30:19Z</time>
      </trkpt>
      <trkpt lat="47.84063" lon="7.00509">
        <ele>758.2</ele>
        <time>2021-08-09T09:30:20Z</time>
      </trkpt>
      <trkpt lat="47.84063" lon="7.0051">
        <ele>758.3</ele>
        <time>2021-08-09T09:30:21Z</time>
      </trkpt>
      <trkpt lat="47.84063" lon="7.00511">
        <ele>758.4</ele>
        <time>2021-08-09T09:30:22Z</time>
      </trkpt>
      <trkpt lat="47.84063" lon="7.00514">
        <ele>758.6</ele>
        <time>2021-08-09T09:30:24Z</time>
      </trkpt>
      <trkpt lat="47.84063" lon="7.00516">
        <ele>758.8</ele>
        <time>2021-08-09T09:30:25Z</time>
      </trkpt>
      <trkpt lat="47.84064" lon="7.00518">
        <ele>759</ele>
        <time>2021-08-09T09:30:26Z</time>
      </trkpt>
      <trkpt lat="47.84066" lon="7.00523">
        <ele>759.4</ele>
        <time>2021-08-09T09:30:28Z</time>
      </trkpt>
      <trkpt lat="47.84066" lon="7.00524">
        <ele>759.5</ele>
        <time>2021-08-09T09:30:29Z</time>
      </trkpt>
      <trkpt lat="47.84067" lon="7.00526">
        <ele>759.7</ele>
        <time>2021-08-09T09:30:30Z</time>
      </trkpt>
      <trkpt lat="47.84067" lon="7.00528">
        <ele>759.8</ele>
        <time>2021-08-09T09:30:32Z</time>
      </trkpt>
      <trkpt lat="47.84067" lon="7.00529">
        <ele>759.9</ele>
        <time>2021-08-09T09:30:33Z</time>
      </trkpt>
      <trkpt lat="47.84067" lon="7.00531">
        <ele>760.1</ele>
        <time>2021-08-09T09:30:34Z</time>
      </trkpt>
      <trkpt lat="47.84067" lon="7.00533">
        <ele>760.2</ele>
        <time>2021-08-09T09:30:36Z</time>
      </trkpt>
      <trkpt lat="47.84068" lon="7.00535">
        <ele>760.4</ele>
        <time>2021-08-09T09:30:37Z</time>
      </trkpt>
      <trkpt lat="47.84068" lon="7.00536">
        <ele>760.5</ele>
        <time>2021-08-09T09:30:39Z</time>
      </trkpt>
      <trkpt lat="47.84068" lon="7.00537">
        <ele>760.5</ele>
        <time>2021-08-09T09:30:40Z</time>
      </trkpt>
      <trkpt lat="47.84068" lon="7.00537">
        <ele>760.6</ele>
        <time>2021-08-09T09:30:42Z</time>
      </trkpt>
      <trkpt lat="47.84068" lon="7.00538">
        <ele>760.6</ele>
        <time>2021-08-09T09:30:43Z</time>
      </trkpt>
      <trkpt lat="47.84068" lon="7.00538">
        <ele>760.6</ele>
        <time>2021-08-09T09:30:45Z</time>
      </trkpt>
      <trkpt lat="47.84068" lon="7.00539">
        <ele>760.7</ele>
        <time>2021-08-09T09:30:46Z</time>
      </trkpt>
      <trkpt lat="47.8407" lon="7.00542">
        <ele>761</ele>
        <time>2021-08-09T09:30:48Z</time>
      </trkpt>
      <trkpt lat="47.84071" lon="7.00545">
        <ele>761.2</ele>
        <time>2021-08-09T09:30:49Z</time>
      </trkpt>
      <trkpt lat="47.84072" lon="7.00547">
        <ele>761.4</ele>
        <time>2021-08-09T09:30:50Z</time>
      </trkpt>
      <trkpt lat="47.84073" lon="7.00548">
        <ele>761.6</ele>
        <time>2021-08-09T09:30:52Z</time>
      </trkpt>
      <trkpt lat="47.84073" lon="7.00549">
        <ele>761.7</ele>
        <time>2021-08-09T09:30:53Z</time>
      </trkpt>
      <trkpt lat="47.84073" lon="7.0055">
        <ele>761.7</ele>
        <time>2021-08-09T09:30:54Z</time>
      </trkpt>
      <trkpt lat="47.84074" lon="7.00551">
        <ele>761.8</ele>
        <time>2021-08-09T09:30:56Z</time>
      </trkpt>
      <trkpt lat="47.84074" lon="7.00551">
        <ele>761.9</ele>
        <time>2021-08-09T09:30:57Z</time>
      </trkpt>
      <trkpt lat="47.84074" lon="7.00551">
        <ele>761.9</ele>
        <time>2021-08-09T09:30:58Z</time>
      </trkpt>
      <trkpt lat="47.84074" lon="7.00552">
        <ele>761.9</ele>
        <time>2021-08-09T09:31:00Z</time>
      </trkpt>
      <trkpt lat="47.84075" lon="7.00553">
        <ele>762.1</ele>
        <time>2021-08-09T09:31:01Z</time>
      </trkpt>
      <trkpt lat="47.84077" lon="7.00556">
        <ele>762.4</ele>
        <time>2021-08-09T09:31:03Z</time>
      </trkpt>
      <trkpt lat="47.84079" lon="7.00558">
        <ele>762.7</ele>
        <time>2021-08-09T09:31:04Z</time>
      </trkpt>
      <trkpt lat="47.8408" lon="7.00559">
        <ele>762.8</ele>
        <time>2021-08-09T09:31:05Z</time>
      </trkpt>
      <trkpt lat="47.84083" lon="7.0056">
        <ele>763.2</ele>
        <time>2021-08-09T09:31:07Z</time>
      </trkpt>
      <trkpt lat="47.84084" lon="7.0056">
        <ele>763.3</ele>
        <time>2021-08-09T09:31:08Z</time>
      </trkpt>
      <trkpt lat="47.84086" lon="7.0056">
        <ele>763.5</ele>
        <time>2021-08-09T09:31:09Z</time>
      </trkpt>
      <trkpt lat="47.84089" lon="7.00562">
        <ele>763.8</ele>
        <time>2021-08-09T09:31:11Z</time>
      </trkpt>
      <trkpt lat="47.8409" lon="7.00563">
        <ele>764</ele>
        <time>2021-08-09T09:31:12Z</time>
      </trkpt>
      <trkpt lat="47.84092" lon="7.00564">
        <ele>764.3</ele>
        <time>2021-08-09T09:31:14Z</time>
      </trkpt>
      <trkpt lat="47.84093" lon="7.00564">
        <ele>764.3</ele>
        <time>2021-08-09T09:31:15Z</time>
      </trkpt>
      <trkpt lat="47.84093" lon="7.00565">
        <ele>764.4</ele>
        <time>2021-08-09T09:31:17Z</time>
      </trkpt>
      <trkpt lat="47.84094" lon="7.00565">
        <ele>764.5</ele>
        <time>2021-08-09T09:31:18Z</time>
      </trkpt>
      <trkpt lat="47.84094" lon="7.00565">
        <ele>764.5</ele>
        <time>2021-08-09T09:31:20Z</time>
      </trkpt>
      <trkpt lat="47.84095" lon="7.00566">
        <ele>764.6</ele>
        <time>2021-08-09T09:31:21Z</time>
      </trkpt>
      <trkpt lat="47.84095" lon="7.00568">
        <ele>764.8</ele>
        <time>2021-08-09T09:31:22Z</time>
      </trkpt>
      <trkpt lat="47.84097" lon="7.0057">
        <ele>765</ele>
        <time>2021-08-09T09:31:23Z</time>
      </trkpt>
      <trkpt lat="47.84098" lon="7.00573">
        <ele>765.2</ele>
        <time>2021-08-09T09:31:25Z</time>
      </trkpt>
      <trkpt lat="47.84099" lon="7.00575">
        <ele>765.4</ele>
        <time>2021-08-09T09:31:27Z</time>
      </trkpt>
      <trkpt lat="47.84099" lon="7.00575">
        <ele>765.5</ele>
        <time>2021-08-09T09:31:28Z</time>
      </trkpt>
      <trkpt lat="47.84099" lon="7.00576">
        <ele>765.5</ele>
        <time>2021-08-09T09:31:29Z</time>
      </trkpt>
      <trkpt lat="47.841" lon="7.00576">
        <ele>765.6</ele>
        <time>2021-08-09T09:31:30Z</time>
      </trkpt>
      <trkpt lat="47.841" lon="7.00576">
        <ele>765.6</ele>
        <time>2021-08-09T09:31:32Z</time>
      </trkpt>
      <trkpt lat="47.841" lon="7.00577">
        <ele>765.7</ele>
        <time>2021-08-09T09:31:33Z</time>
      </trkpt>
      <trkpt lat="47.84101" lon="7.00579">
        <ele>765.8</ele>
        <time>2021-08-09T09:31:34Z</time>
      </trkpt>
      <trkpt lat="47.84102" lon="7.0058">
        <ele>766</ele>
        <time>2021-08-09T09:31:35Z</time>
      </trkpt>
      <trkpt lat="47.84102" lon="7.00581">
        <ele>766.1</ele>
        <time>2021-08-09T09:31:36Z</time>
      </trkpt>
      <trkpt lat="47.84103" lon="7.00583">
        <ele>766.2</ele>
        <time>2021-08-09T09:31:38Z</time>
      </trkpt>
      <trkpt lat="47.84103" lon="7.00585">
        <ele>766.4</ele>
        <time>2021-08-09T09:31:39Z</time>
      </trkpt>
      <trkpt lat="47.84104" lon="7.00586">
        <ele>766.4</ele>
        <time>2021-08-09T09:31:40Z</time>
      </trkpt>
      <trkpt lat="47.84104" lon="7.00587">
        <ele>766.5</ele>
        <time>2021-08-09T09:31:42Z</time>
      </trkpt>
      <trkpt lat="47.84105" lon="7.00589">
        <ele>766.7</ele>
        <time>2021-08-09T09:31:43Z</time>
      </trkpt>
      <trkpt lat="47.84105" lon="7.0059">
        <ele>766.8</ele>
        <time>2021-08-09T09:31:44Z</time>
      </trkpt>
      <trkpt lat="47.84106" lon="7.00592">
        <ele>766.9</ele>
        <time>2021-08-09T09:31:46Z</time>
      </trkpt>
      <trkpt lat="47.84106" lon="7.00593">
        <ele>767</ele>
        <time>2021-08-09T09:31:47Z</time>
      </trkpt>
      <trkpt lat="47.84106" lon="7.00593">
        <ele>767.1</ele>
        <time>2021-08-09T09:31:48Z</time>
      </trkpt>
      <trkpt lat="47.84107" lon="7.00594">
        <ele>767.2</ele>
        <time>2021-08-09T09:31:50Z</time>
      </trkpt>
      <trkpt lat="47.84108" lon="7.00595">
        <ele>767.3</ele>
        <time>2021-08-09T09:31:51Z</time>
      </trkpt>
      <trkpt lat="47.84109" lon="7.00597">
        <ele>767.5</ele>
        <time>2021-08-09T09:31:53Z</time>
      </trkpt>
      <trkpt lat="47.84109" lon="7.00598">
        <ele>767.6</ele>
        <time>2021-08-09T09:31:54Z</time>
      </trkpt>
      <trkpt lat="47.84109" lon="7.00599">
        <ele>767.7</ele>
        <time>2021-08-09T09:31:55Z</time>
      </trkpt>
      <trkpt lat="47.8411" lon="7.006">
        <ele>767.8</ele>
        <time>2021-08-09T09:31:57Z</time>
      </trkpt>
      <trkpt lat="47.8411" lon="7.00601">
        <ele>767.9</ele>
        <time>2021-08-09T09:31:59Z</time>
      </trkpt>
      <trkpt lat="47.84111" lon="7.00603">
        <ele>768</ele>
        <time>2021-08-09T09:32:00Z</time>
      </trkpt>
      <trkpt lat="47.84111" lon="7.00604">
        <ele>768.1</ele>
        <time>2021-08-09T09:32:01Z</time>
      </trkpt>
      <trkpt lat="47.84113" lon="7.00607">
        <ele>768.4</ele>
        <time>2021-08-09T09:32:03Z</time>
      </trkpt>
      <trkpt lat="47.84114" lon="7.00608">
        <ele>768.6</ele>
        <time>2021-08-09T09:32:05Z</time>
      </trkpt>
      <trkpt lat="47.84115" lon="7.00609">
        <ele>768.8</ele>
        <time>2021-08-09T09:32:06Z</time>
      </trkpt>
      <trkpt lat="47.84115" lon="7.0061">
        <ele>768.8</ele>
        <time>2021-08-09T09:32:07Z</time>
      </trkpt>
      <trkpt lat="47.84117" lon="7.00612">
        <ele>769</ele>
        <time>2021-08-09T09:32:09Z</time>
      </trkpt>
      <trkpt lat="47.84117" lon="7.00613">
        <ele>769.2</ele>
        <time>2021-08-09T09:32:10Z</time>
      </trkpt>
      <trkpt lat="47.84118" lon="7.00614">
        <ele>769.3</ele>
        <time>2021-08-09T09:32:12Z</time>
      </trkpt>
      <trkpt lat="47.84119" lon="7.00615">
        <ele>769.4</ele>
        <time>2021-08-09T09:32:13Z</time>
      </trkpt>
      <trkpt lat="47.84119" lon="7.00616">
        <ele>769.4</ele>
        <time>2021-08-09T09:32:14Z</time>
      </trkpt>
      <trkpt lat="47.8412" lon="7.00617">
        <ele>769.6</ele>
        <time>2021-08-09T09:32:16Z</time>
      </trkpt>
      <trkpt lat="47.8412" lon="7.0062">
        <ele>769.7</ele>
        <time>2021-08-09T09:32:18Z</time>
      </trkpt>
      <trkpt lat="47.84121" lon="7.00621">
        <ele>769.9</ele>
        <time>2021-08-09T09:32:19Z</time>
      </trkpt>
      <trkpt lat="47.84122" lon="7.00623">
        <ele>770</ele>
        <time>2021-08-09T09:32:20Z</time>
      </trkpt>
      <trkpt lat="47.84123" lon="7.00625">
        <ele>770.2</ele>
        <time>2021-08-09T09:32:22Z</time>
      </trkpt>
      <trkpt lat="47.84124" lon="7.00626">
        <ele>770.4</ele>
        <time>2021-08-09T09:32:23Z</time>
      </trkpt>
      <trkpt lat="47.84126" lon="7.00629">
        <ele>770.6</ele>
        <time>2021-08-09T09:32:25Z</time>
      </trkpt>
      <trkpt lat="47.84129" lon="7.00631">
        <ele>770.9</ele>
        <time>2021-08-09T09:32:26Z</time>
      </trkpt>
      <trkpt lat="47.8413" lon="7.00633">
        <ele>771</ele>
        <time>2021-08-09T09:32:27Z</time>
      </trkpt>
      <trkpt lat="47.84132" lon="7.00634">
        <ele>771.2</ele>
        <time>2021-08-09T09:32:28Z</time>
      </trkpt>
      <trkpt lat="47.84133" lon="7.00636">
        <ele>771.3</ele>
        <time>2021-08-09T09:32:29Z</time>
      </trkpt>
      <trkpt lat="47.84135" lon="7.00637">
        <ele>771.5</ele>
        <time>2021-08-09T09:32:30Z</time>
      </trkpt>
      <trkpt lat="47.84138" lon="7.00639">
        <ele>771.7</ele>
        <time>2021-08-09T09:32:32Z</time>
      </trkpt>
      <trkpt lat="47.84141" lon="7.00642">
        <ele>771.9</ele>
        <time>2021-08-09T09:32:34Z</time>
      </trkpt>
      <trkpt lat="47.84142" lon="7.00645">
        <ele>772.1</ele>
        <time>2021-08-09T09:32:35Z</time>
      </trkpt>
      <trkpt lat="47.84143" lon="7.00647">
        <ele>772.2</ele>
        <time>2021-08-09T09:32:37Z</time>
      </trkpt>
      <trkpt lat="47.84144" lon="7.0065">
        <ele>772.3</ele>
        <time>2021-08-09T09:32:38Z</time>
      </trkpt>
      <trkpt lat="47.84145" lon="7.00651">
        <ele>772.3</ele>
        <time>2021-08-09T09:32:39Z</time>
      </trkpt>
      <trkpt lat="47.84145" lon="7.00652">
        <ele>772.4</ele>
        <time>2021-08-09T09:32:41Z</time>
      </trkpt>
      <trkpt lat="47.84146" lon="7.00653">
        <ele>772.4</ele>
        <time>2021-08-09T09:32:42Z</time>
      </trkpt>
      <trkpt lat="47.84146" lon="7.00654">
        <ele>772.5</ele>
        <time>2021-08-09T09:32:43Z</time>
      </trkpt>
      <trkpt lat="47.84147" lon="7.00656">
        <ele>772.6</ele>
        <time>2021-08-09T09:32:45Z</time>
      </trkpt>
      <trkpt lat="47.84147" lon="7.00657">
        <ele>772.6</ele>
        <time>2021-08-09T09:32:46Z</time>
      </trkpt>
      <trkpt lat="47.84147" lon="7.00657">
        <ele>772.6</ele>
        <time>2021-08-09T09:32:47Z</time>
      </trkpt>
      <trkpt lat="47.84147" lon="7.00658">
        <ele>772.7</ele>
        <time>2021-08-09T09:32:48Z</time>
      </trkpt>
      <trkpt lat="47.84147" lon="7.00658">
        <ele>772.7</ele>
        <time>2021-08-09T09:32:50Z</time>
      </trkpt>
      <trkpt lat="47.84147" lon="7.00658">
        <ele>772.7</ele>
        <time>2021-08-09T09:32:51Z</time>
      </trkpt>
      <trkpt lat="47.84147" lon="7.00659">
        <ele>772.7</ele>
        <time>2021-08-09T09:32:52Z</time>
      </trkpt>
      <trkpt lat="47.84148" lon="7.00659">
        <ele>772.7</ele>
        <time>2021-08-09T09:32:53Z</time>
      </trkpt>
      <trkpt lat="47.83977" lon="7.01113">
        <ele>809.8</ele>
        <time>2021-08-09T09:40:24Z</time>
      </trkpt>
      <trkpt lat="47.8397" lon="7.01113">
        <ele>810.6</ele>
        <time>2021-08-09T09:40:26Z</time>
      </trkpt>
      <trkpt lat="47.83968" lon="7.01114">
        <ele>810.8</ele>
        <time>2021-08-09T09:40:27Z</time>
      </trkpt>
      <trkpt lat="47.83965" lon="7.01118">
        <ele>811.2</ele>
        <time>2021-08-09T09:40:29Z</time>
      </trkpt>
      <trkpt lat="47.83966" lon="7.0112">
        <ele>811.4</ele>
        <time>2021-08-09T09:40:30Z</time>
      </trkpt>
      <trkpt lat="47.83968" lon="7.01122">
        <ele>811.6</ele>
        <time>2021-08-09T09:40:31Z</time>
      </trkpt>
      <trkpt lat="47.83969" lon="7.01122">
        <ele>811.7</ele>
        <time>2021-08-09T09:40:33Z</time>
      </trkpt>
      <trkpt lat="47.83969" lon="7.01122">
        <ele>811.8</ele>
        <time>2021-08-09T09:40:34Z</time>
      </trkpt>
      <trkpt lat="47.8397" lon="7.01123">
        <ele>811.8</ele>
        <time>2021-08-09T09:40:35Z</time>
      </trkpt>
      <trkpt lat="47.8397" lon="7.01123">
        <ele>811.9</ele>
        <time>2021-08-09T09:40:36Z</time>
      </trkpt>
      <trkpt lat="47.83842" lon="7.01156">
        <ele>823.9</ele>
        <time>2021-08-09T09:43:45Z</time>
      </trkpt>
      <trkpt lat="47.8384" lon="7.01157">
        <ele>824.1</ele>
        <time>2021-08-09T09:43:46Z</time>
      </trkpt>
      <trkpt lat="47.83839" lon="7.01156">
        <ele>824.3</ele>
        <time>2021-08-09T09:43:48Z</time>
      </trkpt>
      <trkpt lat="47.83837" lon="7.01155">
        <ele>824.4</ele>
        <time>2021-08-09T09:43:49Z</time>
      </trkpt>
      <trkpt lat="47.83836" lon="7.01154">
        <ele>824.6</ele>
        <time>2021-08-09T09:43:51Z</time>
      </trkpt>
      <trkpt lat="47.83835" lon="7.01154">
        <ele>824.7</ele>
        <time>2021-08-09T09:43:52Z</time>
      </trkpt>
      <trkpt lat="47.83835" lon="7.01153">
        <ele>824.8</ele>
        <time>2021-08-09T09:43:53Z</time>
      </trkpt>
      <trkpt lat="47.83834" lon="7.01153">
        <ele>824.9</ele>
        <time>2021-08-09T09:43:54Z</time>
      </trkpt>
      <trkpt lat="47.83834" lon="7.01153">
        <ele>824.9</ele>
        <time>2021-08-09T09:43:56Z</time>
      </trkpt>
      <trkpt lat="47.83833" lon="7.01152">
        <ele>825</ele>
        <time>2021-08-09T09:43:57Z</time>
      </trkpt>
      <trkpt lat="47.83833" lon="7.01153">
        <ele>825</ele>
        <time>2021-08-09T09:43:58Z</time>
      </trkpt>
      <trkpt lat="47.83832" lon="7.01154">
        <ele>825.1</ele>
        <time>2021-08-09T09:44:00Z</time>
      </trkpt>
      <trkpt lat="47.83832" lon="7.01154">
        <ele>825.2</ele>
        <time>2021-08-09T09:44:01Z</time>
      </trkpt>
      <trkpt lat="47.83831" lon="7.01155">
        <ele>825.3</ele>
        <time>2021-08-09T09:44:02Z</time>
      </trkpt>
      <trkpt lat="47.83831" lon="7.01156">
        <ele>825.3</ele>
        <time>2021-08-09T09:44:04Z</time>
      </trkpt>
      <trkpt lat="47.83831" lon="7.01157">
        <ele>825.4</ele>
        <time>2021-08-09T09:44:06Z</time>
      </trkpt>
      <trkpt lat="47.8383" lon="7.01157">
        <ele>825.5</ele>
        <time>2021-08-09T09:44:07Z</time>
      </trkpt>
      <trkpt lat="47.8383" lon="7.01158">
        <ele>825.6</ele>
        <time>2021-08-09T09:44:08Z</time>
      </trkpt>
      <trkpt lat="47.8383" lon="7.01159">
        <ele>825.6</ele>
        <time>2021-08-09T09:44:10Z</time>
      </trkpt>
      <trkpt lat="47.83829" lon="7.0116">
        <ele>825.7</ele>
        <time>2021-08-09T09:44:11Z</time>
      </trkpt>
      <trkpt lat="47.83829" lon="7.0116">
        <ele>825.8</ele>
        <time>2021-08-09T09:44:13Z</time>
      </trkpt>
      <trkpt lat="47.83829" lon="7.01161">
        <ele>825.8</ele>
        <time>2021-08-09T09:44:14Z</time>
      </trkpt>
      <trkpt lat="47.83826" lon="7.01163">
        <ele>826.1</ele>
        <time>2021-08-09T09:44:16Z</time>
      </trkpt>
      <trkpt lat="47.83825" lon="7.01163">
        <ele>826.2</ele>
        <time>2021-08-09T09:44:17Z</time>
      </trkpt>
      <trkpt lat="47.83824" lon="7.01164">
        <ele>826.4</ele>
        <time>2021-08-09T09:44:19Z</time>
      </trkpt>
      <trkpt lat="47.83824" lon="7.01164">
        <ele>826.4</ele>
        <time>2021-08-09T09:44:20Z</time>
      </trkpt>
      <trkpt lat="47.83823" lon="7.01164">
        <ele>826.5</ele>
        <time>2021-08-09T09:44:23Z</time>
      </trkpt>
      <trkpt lat="47.83822" lon="7.01164">
        <ele>826.6</ele>
        <time>2021-08-09T09:44:24Z</time>
      </trkpt>
      <trkpt lat="47.83822" lon="7.01164">
        <ele>826.6</ele>
        <time>2021-08-09T09:44:26Z</time>
      </trkpt>
      <trkpt lat="47.83822" lon="7.01164">
        <ele>826.6</ele>
        <time>2021-08-09T09:44:27Z</time>
      </trkpt>
      <trkpt lat="47.83821" lon="7.01164">
        <ele>826.7</ele>
        <time>2021-08-09T09:44:29Z</time>
      </trkpt>
      <trkpt lat="47.8382" lon="7.01163">
        <ele>826.9</ele>
        <time>2021-08-09T09:44:30Z</time>
      </trkpt>
      <trkpt lat="47.83818" lon="7.0116">
        <ele>827.2</ele>
        <time>2021-08-09T09:44:32Z</time>
      </trkpt>
      <trkpt lat="47.83816" lon="7.01158">
        <ele>827.4</ele>
        <time>2021-08-09T09:44:33Z</time>
      </trkpt>
      <trkpt lat="47.83815" lon="7.01157">
        <ele>827.6</ele>
        <time>2021-08-09T09:44:35Z</time>
      </trkpt>
      <trkpt lat="47.83814" lon="7.01156">
        <ele>827.7</ele>
        <time>2021-08-09T09:44:36Z</time>
      </trkpt>
      <trkpt lat="47.83813" lon="7.01155">
        <ele>827.8</ele>
        <time>2021-08-09T09:44:37Z</time>
      </trkpt>
      <trkpt lat="47.83813" lon="7.01154">
        <ele>827.9</ele>
        <time>2021-08-09T09:44:38Z</time>
      </trkpt>
      <trkpt lat="47.83812" lon="7.01154">
        <ele>827.9</ele>
        <time>2021-08-09T09:44:39Z</time>
      </trkpt>
      <trkpt lat="47.83812" lon="7.01154">
        <ele>828</ele>
        <time>2021-08-09T09:44:41Z</time>
      </trkpt>
      <trkpt lat="47.83811" lon="7.01154">
        <ele>828.1</ele>
        <time>2021-08-09T09:44:42Z</time>
      </trkpt>
      <trkpt lat="47.8381" lon="7.01154">
        <ele>828.2</ele>
        <time>2021-08-09T09:44:44Z</time>
      </trkpt>
      <trkpt lat="47.8381" lon="7.01154">
        <ele>828.3</ele>
        <time>2021-08-09T09:44:45Z</time>
      </trkpt>
      <trkpt lat="47.83809" lon="7.01154">
        <ele>828.3</ele>
        <time>2021-08-09T09:44:47Z</time>
      </trkpt>
      <trkpt lat="47.83809" lon="7.01154">
        <ele>828.4</ele>
        <time>2021-08-09T09:44:49Z</time>
      </trkpt>
      <trkpt lat="47.83808" lon="7.01155">
        <ele>828.5</ele>
        <time>2021-08-09T09:44:51Z</time>
      </trkpt>
      <trkpt lat="47.83808" lon="7.01156">
        <ele>828.6</ele>
        <time>2021-08-09T09:44:53Z</time>
      </trkpt>
      <trkpt lat="47.83807" lon="7.01157">
        <ele>828.7</ele>
        <time>2021-08-09T09:44:54Z</time>
      </trkpt>
      <trkpt lat="47.83807" lon="7.01158">
        <ele>828.8</ele>
        <time>2021-08-09T09:44:55Z</time>
      </trkpt>
      <trkpt lat="47.83806" lon="7.0116">
        <ele>828.9</ele>
        <time>2021-08-09T09:44:57Z</time>
      </trkpt>
      <trkpt lat="47.83806" lon="7.01161">
        <ele>829</ele>
        <time>2021-08-09T09:44:58Z</time>
      </trkpt>
      <trkpt lat="47.83806" lon="7.01162">
        <ele>829</ele>
        <time>2021-08-09T09:45:00Z</time>
      </trkpt>
      <trkpt lat="47.83806" lon="7.01162">
        <ele>829.1</ele>
        <time>2021-08-09T09:45:01Z</time>
      </trkpt>
      <trkpt lat="47.83805" lon="7.01162">
        <ele>829.1</ele>
        <time>2021-08-09T09:45:02Z</time>
      </trkpt>
      <trkpt lat="47.83805" lon="7.01163">
        <ele>829.1</ele>
        <time>2021-08-09T09:45:04Z</time>
      </trkpt>
      <trkpt lat="47.83805" lon="7.01163">
        <ele>829.2</ele>
        <time>2021-08-09T09:45:05Z</time>
      </trkpt>
      <trkpt lat="47.83805" lon="7.01163">
        <ele>829.2</ele>
        <time>2021-08-09T09:45:06Z</time>
      </trkpt>
      <trkpt lat="47.83803" lon="7.01164">
        <ele>829.5</ele>
        <time>2021-08-09T09:45:08Z</time>
      </trkpt>
      <trkpt lat="47.838" lon="7.01166">
        <ele>829.8</ele>
        <time>2021-08-09T09:45:09Z</time>
      </trkpt>
      <trkpt lat="47.83798" lon="7.01168">
        <ele>830</ele>
        <time>2021-08-09T09:45:11Z</time>
      </trkpt>
      <trkpt lat="47.83797" lon="7.0117">
        <ele>830.3</ele>
        <time>2021-08-09T09:45:12Z</time>
      </trkpt>
      <trkpt lat="47.83795" lon="7.01171">
        <ele>830.5</ele>
        <time>2021-08-09T09:45:14Z</time>
      </trkpt>
      <trkpt lat="47.83793" lon="7.01171">
        <ele>830.7</ele>
        <time>2021-08-09T09:45:15Z</time>
      </trkpt>
      <trkpt lat="47.83792" lon="7.01172">
        <ele>830.9</ele>
        <time>2021-08-09T09:45:16Z</time>
      </trkpt>
      <trkpt lat="47.8379" lon="7.01173">
        <ele>831.1</ele>
        <time>2021-08-09T09:45:17Z</time>
      </trkpt>
      <trkpt lat="47.83788" lon="7.01174">
        <ele>831.3</ele>
        <time>2021-08-09T09:45:19Z</time>
      </trkpt>
      <trkpt lat="47.83787" lon="7.01175">
        <ele>831.5</ele>
        <time>2021-08-09T09:45:20Z</time>
      </trkpt>
      <trkpt lat="47.83786" lon="7.01175">
        <ele>831.7</ele>
        <time>2021-08-09T09:45:21Z</time>
      </trkpt>
      <trkpt lat="47.83783" lon="7.01175">
        <ele>832</ele>
        <time>2021-08-09T09:45:23Z</time>
      </trkpt>
      <trkpt lat="47.8378" lon="7.01174">
        <ele>832.3</ele>
        <time>2021-08-09T09:45:24Z</time>
      </trkpt>
      <trkpt lat="47.83779" lon="7.01174">
        <ele>832.5</ele>
        <time>2021-08-09T09:45:25Z</time>
      </trkpt>
      <trkpt lat="47.83777" lon="7.01175">
        <ele>832.8</ele>
        <time>2021-08-09T09:45:27Z</time>
      </trkpt>
      <trkpt lat="47.83776" lon="7.01175">
        <ele>832.9</ele>
        <time>2021-08-09T09:45:28Z</time>
      </trkpt>
      <trkpt lat="47.83775" lon="7.01176">
        <ele>832.9</ele>
        <time>2021-08-09T09:45:29Z</time>
      </trkpt>
      <trkpt lat="47.83774" lon="7.01178">
        <ele>833.2</ele>
        <time>2021-08-09T09:45:31Z</time>
      </trkpt>
      <trkpt lat="47.83773" lon="7.01179">
        <ele>833.4</ele>
        <time>2021-08-09T09:45:32Z</time>
      </trkpt>
      <trkpt lat="47.83773" lon="7.01181">
        <ele>833.5</ele>
        <time>2021-08-09T09:45:34Z</time>
      </trkpt>
      <trkpt lat="47.83772" lon="7.01182">
        <ele>833.7</ele>
        <time>2021-08-09T09:45:35Z</time>
      </trkpt>
      <trkpt lat="47.83771" lon="7.01184">
        <ele>833.8</ele>
        <time>2021-08-09T09:45:36Z</time>
      </trkpt>
      <trkpt lat="47.8377" lon="7.01186">
        <ele>834</ele>
        <time>2021-08-09T09:45:38Z</time>
      </trkpt>
      <trkpt lat="47.8377" lon="7.01187">
        <ele>834.2</ele>
        <time>2021-08-09T09:45:39Z</time>
      </trkpt>
      <trkpt lat="47.83769" lon="7.01188">
        <ele>834.3</ele>
        <time>2021-08-09T09:45:40Z</time>
      </trkpt>
      <trkpt lat="47.83769" lon="7.01189">
        <ele>834.4</ele>
        <time>2021-08-09T09:45:41Z</time>
      </trkpt>
      <trkpt lat="47.83768" lon="7.01189">
        <ele>834.4</ele>
        <time>2021-08-09T09:45:43Z</time>
      </trkpt>
      <trkpt lat="47.83768" lon="7.0119">
        <ele>834.5</ele>
        <time>2021-08-09T09:45:44Z</time>
      </trkpt>
      <trkpt lat="47.83767" lon="7.01191">
        <ele>834.6</ele>
        <time>2021-08-09T09:45:46Z</time>
      </trkpt>
      <trkpt lat="47.83767" lon="7.01192">
        <ele>834.8</ele>
        <time>2021-08-09T09:45:47Z</time>
      </trkpt>
      <trkpt lat="47.83766" lon="7.01195">
        <ele>835</ele>
        <time>2021-08-09T09:45:49Z</time>
      </trkpt>
      <trkpt lat="47.83765" lon="7.01196">
        <ele>835.1</ele>
        <time>2021-08-09T09:45:50Z</time>
      </trkpt>
      <trkpt lat="47.83765" lon="7.01197">
        <ele>835.2</ele>
        <time>2021-08-09T09:45:51Z</time>
      </trkpt>
      <trkpt lat="47.83764" lon="7.01199">
        <ele>835.4</ele>
        <time>2021-08-09T09:45:52Z</time>
      </trkpt>
      <trkpt lat="47.83764" lon="7.01201">
        <ele>835.6</ele>
        <time>2021-08-09T09:45:54Z</time>
      </trkpt>
      <trkpt lat="47.83763" lon="7.01202">
        <ele>835.7</ele>
        <time>2021-08-09T09:45:55Z</time>
      </trkpt>
      <trkpt lat="47.83762" lon="7.01204">
        <ele>835.9</ele>
        <time>2021-08-09T09:45:57Z</time>
      </trkpt>
      <trkpt lat="47.83761" lon="7.01205">
        <ele>836.1</ele>
        <time>2021-08-09T09:45:59Z</time>
      </trkpt>
      <trkpt lat="47.83759" lon="7.01209">
        <ele>836.4</ele>
        <time>2021-08-09T09:46:01Z</time>
      </trkpt>
      <trkpt lat="47.83757" lon="7.01213">
        <ele>836.8</ele>
        <time>2021-08-09T09:46:03Z</time>
      </trkpt>
      <trkpt lat="47.83756" lon="7.01215">
        <ele>837</ele>
        <time>2021-08-09T09:46:04Z</time>
      </trkpt>
      <trkpt lat="47.83755" lon="7.01216">
        <ele>837.1</ele>
        <time>2021-08-09T09:46:05Z</time>
      </trkpt>
      <trkpt lat="47.83754" lon="7.01217">
        <ele>837.2</ele>
        <time>2021-08-09T09:46:07Z</time>
      </trkpt>
      <trkpt lat="47.83754" lon="7.01217">
        <ele>837.2</ele>
        <time>2021-08-09T09:46:08Z</time>
      </trkpt>
      <trkpt lat="47.83753" lon="7.01218">
        <ele>837.3</ele>
        <time>2021-08-09T09:46:10Z</time>
      </trkpt>
      <trkpt lat="47.83753" lon="7.01218">
        <ele>837.4</ele>
        <time>2021-08-09T09:46:11Z</time>
      </trkpt>
      <trkpt lat="47.83753" lon="7.01219">
        <ele>837.4</ele>
        <time>2021-08-09T09:46:13Z</time>
      </trkpt>
      <trkpt lat="47.83753" lon="7.0122">
        <ele>837.5</ele>
        <time>2021-08-09T09:46:14Z</time>
      </trkpt>
      <trkpt lat="47.83742" lon="7.01438">
        <ele>852.4</ele>
        <time>2021-08-09T09:49:10Z</time>
      </trkpt>
      <trkpt lat="47.83743" lon="7.0144">
        <ele>852.5</ele>
        <time>2021-08-09T09:49:11Z</time>
      </trkpt>
      <trkpt lat="47.83744" lon="7.01441">
        <ele>852.6</ele>
        <time>2021-08-09T09:49:13Z</time>
      </trkpt>
      <trkpt lat="47.83744" lon="7.01442">
        <ele>852.6</ele>
        <time>2021-08-09T09:49:14Z</time>
      </trkpt>
      <trkpt lat="47.83744" lon="7.01442">
        <ele>852.7</ele>
        <time>2021-08-09T09:49:15Z</time>
      </trkpt>
      <trkpt lat="47.83744" lon="7.01443">
        <ele>852.7</ele>
        <time>2021-08-09T09:49:17Z</time>
      </trkpt>
      <trkpt lat="47.83744" lon="7.01443">
        <ele>852.7</ele>
        <time>2021-08-09T09:49:18Z</time>
      </trkpt>
      <trkpt lat="47.83745" lon="7.01443">
        <ele>852.8</ele>
        <time>2021-08-09T09:49:19Z</time>
      </trkpt>
      <trkpt lat="47.83745" lon="7.01443">
        <ele>852.8</ele>
        <time>2021-08-09T09:49:21Z</time>
      </trkpt>
      <trkpt lat="47.83745" lon="7.01444">
        <ele>852.8</ele>
        <time>2021-08-09T09:49:22Z</time>
      </trkpt>
      <trkpt lat="47.83745" lon="7.01444">
        <ele>852.8</ele>
        <time>2021-08-09T09:49:24Z</time>
      </trkpt>
      <trkpt lat="47.83745" lon="7.01444">
        <ele>852.8</ele>
        <time>2021-08-09T09:49:25Z</time>
      </trkpt>
      <trkpt lat="47.83746" lon="7.01445">
        <ele>852.9</ele>
        <time>2021-08-09T09:49:26Z</time>
      </trkpt>
      <trkpt lat="47.83749" lon="7.01447">
        <ele>853.2</ele>
        <time>2021-08-09T09:49:27Z</time>
      </trkpt>
      <trkpt lat="47.8375" lon="7.01447">
        <ele>853.3</ele>
        <time>2021-08-09T09:49:28Z</time>
      </trkpt>
      <trkpt lat="47.83752" lon="7.01448">
        <ele>853.5</ele>
        <time>2021-08-09T09:49:30Z</time>
      </trkpt>
      <trkpt lat="47.83753" lon="7.01449">
        <ele>853.6</ele>
        <time>2021-08-09T09:49:31Z</time>
      </trkpt>
      <trkpt lat="47.83754" lon="7.0145">
        <ele>853.7</ele>
        <time>2021-08-09T09:49:32Z</time>
      </trkpt>
      <trkpt lat="47.83755" lon="7.0145">
        <ele>853.7</ele>
        <time>2021-08-09T09:49:34Z</time>
      </trkpt>
      <trkpt lat="47.83755" lon="7.01451">
        <ele>853.8</ele>
        <time>2021-08-09T09:49:35Z</time>
      </trkpt>
      <trkpt lat="47.83756" lon="7.01452">
        <ele>853.8</ele>
        <time>2021-08-09T09:49:36Z</time>
      </trkpt>
      <trkpt lat="47.83756" lon="7.01452">
        <ele>853.9</ele>
        <time>2021-08-09T09:49:38Z</time>
      </trkpt>
      <trkpt lat="47.83756" lon="7.01452">
        <ele>853.9</ele>
        <time>2021-08-09T09:49:39Z</time>
      </trkpt>
      <trkpt lat="47.83757" lon="7.01455">
        <ele>854</ele>
        <time>2021-08-09T09:49:40Z</time>
      </trkpt>
      <trkpt lat="47.83757" lon="7.01457">
        <ele>854.2</ele>
        <time>2021-08-09T09:49:42Z</time>
      </trkpt>
      <trkpt lat="47.83756" lon="7.0146">
        <ele>854.3</ele>
        <time>2021-08-09T09:49:43Z</time>
      </trkpt>
      <trkpt lat="47.83756" lon="7.01462">
        <ele>854.4</ele>
        <time>2021-08-09T09:49:44Z</time>
      </trkpt>
      <trkpt lat="47.83755" lon="7.01464">
        <ele>854.5</ele>
        <time>2021-08-09T09:49:45Z</time>
      </trkpt>
      <trkpt lat="47.83755" lon="7.01467">
        <ele>854.7</ele>
        <time>2021-08-09T09:49:47Z</time>
      </trkpt>
      <trkpt lat="47.83755" lon="7.01471">
        <ele>854.9</ele>
        <time>2021-08-09T09:49:48Z</time>
      </trkpt>
      <trkpt lat="47.83754" lon="7.01475">
        <ele>855</ele>
        <time>2021-08-09T09:49:50Z</time>
      </trkpt>
      <trkpt lat="47.83753" lon="7.01478">
        <ele>855.2</ele>
        <time>2021-08-09T09:49:51Z</time>
      </trkpt>
      <trkpt lat="47.83752" lon="7.0148">
        <ele>855.3</ele>
        <time>2021-08-09T09:49:53Z</time>
      </trkpt>
      <trkpt lat="47.83752" lon="7.01482">
        <ele>855.4</ele>
        <time>2021-08-09T09:49:54Z</time>
      </trkpt>
      <trkpt lat="47.83751" lon="7.01485">
        <ele>855.5</ele>
        <time>2021-08-09T09:49:55Z</time>
      </trkpt>
      <trkpt lat="47.83748" lon="7.0149">
        <ele>855.8</ele>
        <time>2021-08-09T09:49:56Z</time>
      </trkpt>
      <trkpt lat="47.83744" lon="7.01493">
        <ele>856.1</ele>
        <time>2021-08-09T09:49:58Z</time>
      </trkpt>
      <trkpt lat="47.8374" lon="7.01497">
        <ele>856.4</ele>
        <time>2021-08-09T09:49:59Z</time>
      </trkpt>
      <trkpt lat="47.83733" lon="7.01505">
        <ele>857</ele>
        <time>2021-08-09T09:50:00Z</time>
      </trkpt>
      <trkpt lat="47.83731" lon="7.01508">
        <ele>857.1</ele>
        <time>2021-08-09T09:50:01Z</time>
      </trkpt>
      <trkpt lat="47.8373" lon="7.0151">
        <ele>857.2</ele>
        <time>2021-08-09T09:50:03Z</time>
      </trkpt>
      <trkpt lat="47.8373" lon="7.01514">
        <ele>857.4</ele>
        <time>2021-08-09T09:50:04Z</time>
      </trkpt>
      <trkpt lat="47.8373" lon="7.01516">
        <ele>857.5</ele>
        <time>2021-08-09T09:50:05Z</time>
      </trkpt>
      <trkpt lat="47.83731" lon="7.01518">
        <ele>857.5</ele>
        <time>2021-08-09T09:50:07Z</time>
      </trkpt>
      <trkpt lat="47.83731" lon="7.0152">
        <ele>857.6</ele>
        <time>2021-08-09T09:50:08Z</time>
      </trkpt>
      <trkpt lat="47.83731" lon="7.01522">
        <ele>857.7</ele>
        <time>2021-08-09T09:50:09Z</time>
      </trkpt>
      <trkpt lat="47.83733" lon="7.01526">
        <ele>857.9</ele>
        <time>2021-08-09T09:50:10Z</time>
      </trkpt>
      <trkpt lat="47.83734" lon="7.01529">
        <ele>858</ele>
        <time>2021-08-09T09:50:11Z</time>
      </trkpt>
      <trkpt lat="47.83734" lon="7.01531">
        <ele>858.1</ele>
        <time>2021-08-09T09:50:13Z</time>
      </trkpt>
      <trkpt lat="47.83735" lon="7.01533">
        <ele>858.2</ele>
        <time>2021-08-09T09:50:14Z</time>
      </trkpt>
      <trkpt lat="47.83737" lon="7.01538">
        <ele>858.4</ele>
        <time>2021-08-09T09:50:16Z</time>
      </trkpt>
      <trkpt lat="47.83737" lon="7.01541">
        <ele>858.5</ele>
        <time>2021-08-09T09:50:17Z</time>
      </trkpt>
      <trkpt lat="47.83737" lon="7.01543">
        <ele>858.6</ele>
        <time>2021-08-09T09:50:18Z</time>
      </trkpt>
      <trkpt lat="47.83738" lon="7.01546">
        <ele>858.7</ele>
        <time>2021-08-09T09:50:19Z</time>
      </trkpt>
      <trkpt lat="47.83738" lon="7.01547">
        <ele>858.8</ele>
        <time>2021-08-09T09:50:21Z</time>
      </trkpt>
      <trkpt lat="47.83738" lon="7.01549">
        <ele>858.8</ele>
        <time>2021-08-09T09:50:22Z</time>
      </trkpt>
      <trkpt lat="47.83738" lon="7.0155">
        <ele>858.9</ele>
        <time>2021-08-09T09:50:23Z</time>
      </trkpt>
      <trkpt lat="47.83738" lon="7.01551">
        <ele>858.9</ele>
        <time>2021-08-09T09:50:24Z</time>
      </trkpt>
      <trkpt lat="47.83738" lon="7.01552">
        <ele>859</ele>
        <time>2021-08-09T09:50:25Z</time>
      </trkpt>
      <trkpt lat="47.83738" lon="7.01554">
        <ele>859.1</ele>
        <time>2021-08-09T09:50:27Z</time>
      </trkpt>
      <trkpt lat="47.83738" lon="7.01555">
        <ele>859.1</ele>
        <time>2021-08-09T09:50:29Z</time>
      </trkpt>
      <trkpt lat="47.83656" lon="7.01598">
        <ele>871.2</ele>
        <time>2021-08-09T09:52:36Z</time>
      </trkpt>
      <trkpt lat="47.83653" lon="7.01598">
        <ele>871.6</ele>
        <time>2021-08-09T09:52:37Z</time>
      </trkpt>
      <trkpt lat="47.83648" lon="7.01598">
        <ele>872.1</ele>
        <time>2021-08-09T09:52:38Z</time>
      </trkpt>
      <trkpt lat="47.83645" lon="7.01599">
        <ele>872.5</ele>
        <time>2021-08-09T09:52:40Z</time>
      </trkpt>
      <trkpt lat="47.83642" lon="7.01599">
        <ele>872.8</ele>
        <time>2021-08-09T09:52:41Z</time>
      </trkpt>
      <trkpt lat="47.8364" lon="7.01601">
        <ele>873.1</ele>
        <time>2021-08-09T09:52:42Z</time>
      </trkpt>
      <trkpt lat="47.83638" lon="7.01602">
        <ele>873.3</ele>
        <time>2021-08-09T09:52:44Z</time>
      </trkpt>
      <trkpt lat="47.83637" lon="7.01603">
        <ele>873.4</ele>
        <time>2021-08-09T09:52:45Z</time>
      </trkpt>
      <trkpt lat="47.83636" lon="7.01604">
        <ele>873.5</ele>
        <time>2021-08-09T09:52:46Z</time>
      </trkpt>
      <trkpt lat="47.83636" lon="7.01604">
        <ele>873.6</ele>
        <time>2021-08-09T09:52:48Z</time>
      </trkpt>
      <trkpt lat="47.83636" lon="7.01605">
        <ele>873.7</ele>
        <time>2021-08-09T09:52:49Z</time>
      </trkpt>
      <trkpt lat="47.83635" lon="7.01605">
        <ele>873.8</ele>
        <time>2021-08-09T09:52:51Z</time>
      </trkpt>
      <trkpt lat="47.83634" lon="7.01605">
        <ele>873.9</ele>
        <time>2021-08-09T09:52:52Z</time>
      </trkpt>
      <trkpt lat="47.83633" lon="7.01605">
        <ele>874</ele>
        <time>2021-08-09T09:52:54Z</time>
      </trkpt>
      <trkpt lat="47.83632" lon="7.01605">
        <ele>874.1</ele>
        <time>2021-08-09T09:52:55Z</time>
      </trkpt>
      <trkpt lat="47.83631" lon="7.01605">
        <ele>874.2</ele>
        <time>2021-08-09T09:52:56Z</time>
      </trkpt>
      <trkpt lat="47.83613" lon="7.01609">
        <ele>876.5</ele>
        <time>2021-08-09T09:53:37Z</time>
      </trkpt>
      <trkpt lat="47.83609" lon="7.01609">
        <ele>877</ele>
        <time>2021-08-09T09:53:38Z</time>
      </trkpt>
      <trkpt lat="47.83608" lon="7.01609">
        <ele>877.1</ele>
        <time>2021-08-09T09:53:40Z</time>
      </trkpt>
      <trkpt lat="47.83608" lon="7.01609">
        <ele>877.2</ele>
        <time>2021-08-09T09:53:41Z</time>
      </trkpt>
      <trkpt lat="47.83607" lon="7.01608">
        <ele>877.3</ele>
        <time>2021-08-09T09:53:42Z</time>
      </trkpt>
      <trkpt lat="47.83606" lon="7.01608">
        <ele>877.4</ele>
        <time>2021-08-09T09:53:44Z</time>
      </trkpt>
      <trkpt lat="47.83605" lon="7.01608">
        <ele>877.5</ele>
        <time>2021-08-09T09:53:45Z</time>
      </trkpt>
      <trkpt lat="47.836" lon="7.01609">
        <ele>878.1</ele>
        <time>2021-08-09T09:53:47Z</time>
      </trkpt>
      <trkpt lat="47.83599" lon="7.01609">
        <ele>878.3</ele>
        <time>2021-08-09T09:53:48Z</time>
      </trkpt>
      <trkpt lat="47.83484" lon="7.01663">
        <ele>894.2</ele>
        <time>2021-08-09T09:56:59Z</time>
      </trkpt>
      <trkpt lat="47.83499" lon="7.0166">
        <ele>892.4</ele>
        <time>2021-08-09T09:57:00Z</time>
      </trkpt>
      <trkpt lat="47.8353" lon="7.01654">
        <ele>888</ele>
        <time>2021-08-09T09:57:02Z</time>
      </trkpt>
      <trkpt lat="47.83364" lon="7.01623">
        <ele>914.8</ele>
        <time>2021-08-09T09:57:53Z</time>
      </trkpt>
      <trkpt lat="47.8334" lon="7.01612">
        <ele>918.9</ele>
        <time>2021-08-09T09:57:55Z</time>
      </trkpt>
      <trkpt lat="47.83338" lon="7.0161">
        <ele>919.4</ele>
        <time>2021-08-09T09:57:56Z</time>
      </trkpt>
      <trkpt lat="47.83335" lon="7.01608">
        <ele>919.9</ele>
        <time>2021-08-09T09:57:57Z</time>
      </trkpt>
      <trkpt lat="47.83334" lon="7.01607">
        <ele>920.1</ele>
        <time>2021-08-09T09:57:59Z</time>
      </trkpt>
      <trkpt lat="47.83333" lon="7.01607">
        <ele>920.3</ele>
        <time>2021-08-09T09:58:00Z</time>
      </trkpt>
      <trkpt lat="47.83332" lon="7.01607">
        <ele>920.5</ele>
        <time>2021-08-09T09:58:02Z</time>
      </trkpt>
      <trkpt lat="47.83329" lon="7.01607">
        <ele>920.9</ele>
        <time>2021-08-09T09:58:03Z</time>
      </trkpt>
      <trkpt lat="47.83325" lon="7.01608">
        <ele>921.6</ele>
        <time>2021-08-09T09:58:05Z</time>
      </trkpt>
      <trkpt lat="47.83323" lon="7.01609">
        <ele>921.9</ele>
        <time>2021-08-09T09:58:06Z</time>
      </trkpt>
      <trkpt lat="47.8332" lon="7.0161">
        <ele>922.4</ele>
        <time>2021-08-09T09:58:07Z</time>
      </trkpt>
      <trkpt lat="47.83316" lon="7.01612">
        <ele>923.1</ele>
        <time>2021-08-09T09:58:09Z</time>
      </trkpt>
      <trkpt lat="47.83315" lon="7.01612">
        <ele>923.2</ele>
        <time>2021-08-09T09:58:11Z</time>
      </trkpt>
      <trkpt lat="47.83314" lon="7.01612">
        <ele>923.4</ele>
        <time>2021-08-09T09:58:12Z</time>
      </trkpt>
      <trkpt lat="47.83313" lon="7.01612">
        <ele>923.6</ele>
        <time>2021-08-09T09:58:13Z</time>
      </trkpt>
      <trkpt lat="47.83311" lon="7.01611">
        <ele>924</ele>
        <time>2021-08-09T09:58:15Z</time>
      </trkpt>
      <trkpt lat="47.8331" lon="7.0161">
        <ele>924.1</ele>
        <time>2021-08-09T09:58:16Z</time>
      </trkpt>
      <trkpt lat="47.83309" lon="7.0161">
        <ele>924.2</ele>
        <time>2021-08-09T09:58:17Z</time>
      </trkpt>
      <trkpt lat="47.83307" lon="7.01606">
        <ele>924.8</ele>
        <time>2021-08-09T09:58:18Z</time>
      </trkpt>
      <trkpt lat="47.83306" lon="7.01604">
        <ele>925.1</ele>
        <time>2021-08-09T09:58:19Z</time>
      </trkpt>
      <trkpt lat="47.83305" lon="7.01602">
        <ele>925.4</ele>
        <time>2021-08-09T09:58:20Z</time>
      </trkpt>
      <trkpt lat="47.83305" lon="7.01601">
        <ele>925.5</ele>
        <time>2021-08-09T09:58:21Z</time>
      </trkpt>
      <trkpt lat="47.83305" lon="7.01599">
        <ele>925.8</ele>
        <time>2021-08-09T09:58:23Z</time>
      </trkpt>
      <trkpt lat="47.83306" lon="7.01598">
        <ele>925.8</ele>
        <time>2021-08-09T09:58:24Z</time>
      </trkpt>
      <trkpt lat="47.83307" lon="7.01596">
        <ele>926.2</ele>
        <time>2021-08-09T09:58:26Z</time>
      </trkpt>
      <trkpt lat="47.83307" lon="7.01595">
        <ele>926.3</ele>
        <time>2021-08-09T09:58:27Z</time>
      </trkpt>
      <trkpt lat="47.83308" lon="7.01593">
        <ele>926.5</ele>
        <time>2021-08-09T09:58:28Z</time>
      </trkpt>
      <trkpt lat="47.83308" lon="7.01592">
        <ele>926.6</ele>
        <time>2021-08-09T09:58:29Z</time>
      </trkpt>
      <trkpt lat="47.83309" lon="7.01591">
        <ele>926.8</ele>
        <time>2021-08-09T09:58:30Z</time>
      </trkpt>
      <trkpt lat="47.8331" lon="7.0159">
        <ele>927</ele>
        <time>2021-08-09T09:58:32Z</time>
      </trkpt>
      <trkpt lat="47.83311" lon="7.01589">
        <ele>927.2</ele>
        <time>2021-08-09T09:58:34Z</time>
      </trkpt>
      <trkpt lat="47.83304" lon="7.01595">
        <ele>928.5</ele>
        <time>2021-08-09T09:58:36Z</time>
      </trkpt>
      <trkpt lat="47.83297" lon="7.01601">
        <ele>929.8</ele>
        <time>2021-08-09T09:58:39Z</time>
      </trkpt>
      <trkpt lat="47.8329" lon="7.01607">
        <ele>931.1</ele>
        <time>2021-08-09T09:58:41Z</time>
      </trkpt>
      <trkpt lat="47.83279" lon="7.01615">
        <ele>933.1</ele>
        <time>2021-08-09T09:58:42Z</time>
      </trkpt>
      <trkpt lat="47.83265" lon="7.01624">
        <ele>937.3</ele>
        <time>2021-08-09T09:58:44Z</time>
      </trkpt>
      <trkpt lat="47.8326" lon="7.01628">
        <ele>937.3</ele>
        <time>2021-08-09T09:58:45Z</time>
      </trkpt>
      <trkpt lat="47.83255" lon="7.01632">
        <ele>937.4</ele>
        <time>2021-08-09T09:58:46Z</time>
      </trkpt>
      <trkpt lat="47.8325" lon="7.01635">
        <ele>937.4</ele>
        <time>2021-08-09T09:58:48Z</time>
      </trkpt>
      <trkpt lat="47.83242" lon="7.01643">
        <ele>937.4</ele>
        <time>2021-08-09T09:58:50Z</time>
      </trkpt>
      <trkpt lat="47.83242" lon="7.01643">
        <ele>937.4</ele>
        <time>2021-08-09T09:58:51Z</time>
      </trkpt>
      <trkpt lat="47.83247" lon="7.01647">
        <ele>937.3</ele>
        <time>2021-08-09T09:58:53Z</time>
      </trkpt>
      <trkpt lat="47.83253" lon="7.01646">
        <ele>937.4</ele>
        <time>2021-08-09T09:58:54Z</time>
      </trkpt>
      <trkpt lat="47.83257" lon="7.01646">
        <ele>937.4</ele>
        <time>2021-08-09T09:58:55Z</time>
      </trkpt>
      <trkpt lat="47.83259" lon="7.01645">
        <ele>937.4</ele>
        <time>2021-08-09T09:58:57Z</time>
      </trkpt>
      <trkpt lat="47.83259" lon="7.01645">
        <ele>937.4</ele>
        <time>2021-08-09T09:58:58Z</time>
      </trkpt>
      <trkpt lat="47.83259" lon="7.01645">
        <ele>937.4</ele>
        <time>2021-08-09T09:59:00Z</time>
      </trkpt>
      <trkpt lat="47.83258" lon="7.01643">
        <ele>937.4</ele>
        <time>2021-08-09T09:59:02Z</time>
      </trkpt>
      <trkpt lat="47.83258" lon="7.01643">
        <ele>937.4</ele>
        <time>2021-08-09T09:59:03Z</time>
      </trkpt>
      <trkpt lat="47.83259" lon="7.01642">
        <ele>937.4</ele>
        <time>2021-08-09T09:59:06Z</time>
      </trkpt>
      <trkpt lat="47.83259" lon="7.01641">
        <ele>937.4</ele>
        <time>2021-08-09T09:59:08Z</time>
      </trkpt>
      <trkpt lat="47.83259" lon="7.01639">
        <ele>937.4</ele>
        <time>2021-08-09T09:59:09Z</time>
      </trkpt>
      <trkpt lat="47.83259" lon="7.01639">
        <ele>937.4</ele>
        <time>2021-08-09T09:59:13Z</time>
      </trkpt>
      <trkpt lat="47.8326" lon="7.01639">
        <ele>937.4</ele>
        <time>2021-08-09T09:59:15Z</time>
      </trkpt>
      <trkpt lat="47.8326" lon="7.01639">
        <ele>937.4</ele>
        <time>2021-08-09T09:59:18Z</time>
      </trkpt>
      <trkpt lat="47.8326" lon="7.01639">
        <ele>937.4</ele>
        <time>2021-08-09T09:59:19Z</time>
      </trkpt>
      <trkpt lat="47.8326" lon="7.01639">
        <ele>937.4</ele>
        <time>2021-08-09T09:59:21Z</time>
      </trkpt>
      <trkpt lat="47.83262" lon="7.0164">
        <ele>937.4</ele>
        <time>2021-08-09T09:59:22Z</time>
      </trkpt>
      <trkpt lat="47.83269" lon="7.01641">
        <ele>934.7</ele>
        <time>2021-08-09T09:59:23Z</time>
      </trkpt>
      <trkpt lat="47.83286" lon="7.01644">
        <ele>930.8</ele>
        <time>2021-08-09T09:59:25Z</time>
      </trkpt>
      <trkpt lat="47.833" lon="7.01645">
        <ele>927.7</ele>
        <time>2021-08-09T09:59:26Z</time>
      </trkpt>
      <trkpt lat="47.83335" lon="7.0164">
        <ele>919.7</ele>
        <time>2021-08-09T09:59:27Z</time>
      </trkpt>
      <trkpt lat="47.83341" lon="7.01639">
        <ele>919</ele>
        <time>2021-08-09T09:59:29Z</time>
      </trkpt>
      <trkpt lat="47.83346" lon="7.01638">
        <ele>919.6</ele>
        <time>2021-08-09T09:59:31Z</time>
      </trkpt>
      <trkpt lat="47.83349" lon="7.01637">
        <ele>919.9</ele>
        <time>2021-08-09T09:59:32Z</time>
      </trkpt>
      <trkpt lat="47.83349" lon="7.01634">
        <ele>920.2</ele>
        <time>2021-08-09T09:59:34Z</time>
      </trkpt>
      <trkpt lat="47.83347" lon="7.01632">
        <ele>920.5</ele>
        <time>2021-08-09T09:59:35Z</time>
      </trkpt>
      <trkpt lat="47.83339" lon="7.01628">
        <ele>921.4</ele>
        <time>2021-08-09T09:59:37Z</time>
      </trkpt>
      <trkpt lat="47.83335" lon="7.01627">
        <ele>921.8</ele>
        <time>2021-08-09T09:59:38Z</time>
      </trkpt>
      <trkpt lat="47.83332" lon="7.01625">
        <ele>922.2</ele>
        <time>2021-08-09T09:59:39Z</time>
      </trkpt>
      <trkpt lat="47.83329" lon="7.01623">
        <ele>922.5</ele>
        <time>2021-08-09T09:59:41Z</time>
      </trkpt>
      <trkpt lat="47.83328" lon="7.01621">
        <ele>922.7</ele>
        <time>2021-08-09T09:59:42Z</time>
      </trkpt>
      <trkpt lat="47.83328" lon="7.0162">
        <ele>922.8</ele>
        <time>2021-08-09T09:59:44Z</time>
      </trkpt>
      <trkpt lat="47.83328" lon="7.0162">
        <ele>922.8</ele>
        <time>2021-08-09T09:59:45Z</time>
      </trkpt>
      <trkpt lat="47.83327" lon="7.0162">
        <ele>922.9</ele>
        <time>2021-08-09T09:59:47Z</time>
      </trkpt>
      <trkpt lat="47.83326" lon="7.01622">
        <ele>923.1</ele>
        <time>2021-08-09T09:59:48Z</time>
      </trkpt>
      <trkpt lat="47.83325" lon="7.01626">
        <ele>923.4</ele>
        <time>2021-08-09T09:59:49Z</time>
      </trkpt>
      <trkpt lat="47.83325" lon="7.01627">
        <ele>923.5</ele>
        <time>2021-08-09T09:59:50Z</time>
      </trkpt>
      <trkpt lat="47.83324" lon="7.01633">
        <ele>923.9</ele>
        <time>2021-08-09T09:59:52Z</time>
      </trkpt>
      <trkpt lat="47.83324" lon="7.01639">
        <ele>924.3</ele>
        <time>2021-08-09T09:59:53Z</time>
      </trkpt>
      <trkpt lat="47.83325" lon="7.01642">
        <ele>924.6</ele>
        <time>2021-08-09T09:59:54Z</time>
      </trkpt>
      <trkpt lat="47.83325" lon="7.01644">
        <ele>924.7</ele>
        <time>2021-08-09T09:59:55Z</time>
      </trkpt>
      <trkpt lat="47.83326" lon="7.01646">
        <ele>924.9</ele>
        <time>2021-08-09T09:59:57Z</time>
      </trkpt>
      <trkpt lat="47.83326" lon="7.01646">
        <ele>925</ele>
        <time>2021-08-09T09:59:58Z</time>
      </trkpt>
      <trkpt lat="47.83327" lon="7.01645">
        <ele>925</ele>
        <time>2021-08-09T09:59:59Z</time>
      </trkpt>
      <trkpt lat="47.83327" lon="7.01644">
        <ele>925.1</ele>
        <time>2021-08-09T10:00:00Z</time>
      </trkpt>
      <trkpt lat="47.83327" lon="7.01643">
        <ele>925.2</ele>
        <time>2021-08-09T10:00:01Z</time>
      </trkpt>
      <trkpt lat="47.83328" lon="7.01643">
        <ele>925.2</ele>
        <time>2021-08-09T10:00:03Z</time>
      </trkpt>
      <trkpt lat="47.83328" lon="7.01642">
        <ele>925.3</ele>
        <time>2021-08-09T10:00:04Z</time>
      </trkpt>
      <trkpt lat="47.83328" lon="7.01641">
        <ele>925.4</ele>
        <time>2021-08-09T10:00:05Z</time>
      </trkpt>
      <trkpt lat="47.83329" lon="7.0164">
        <ele>925.4</ele>
        <time>2021-08-09T10:00:06Z</time>
      </trkpt>
      <trkpt lat="47.83329" lon="7.0164">
        <ele>925.5</ele>
        <time>2021-08-09T10:00:07Z</time>
      </trkpt>
      <trkpt lat="47.8333" lon="7.01639">
        <ele>925.7</ele>
        <time>2021-08-09T10:00:09Z</time>
      </trkpt>
      <trkpt lat="47.83331" lon="7.01638">
        <ele>925.8</ele>
        <time>2021-08-09T10:00:10Z</time>
      </trkpt>
      <trkpt lat="47.83333" lon="7.01637">
        <ele>925.9</ele>
        <time>2021-08-09T10:00:11Z</time>
      </trkpt>
      <trkpt lat="47.83334" lon="7.01637">
        <ele>926.1</ele>
        <time>2021-08-09T10:00:13Z</time>
      </trkpt>
      <trkpt lat="47.83335" lon="7.01636">
        <ele>926.1</ele>
        <time>2021-08-09T10:00:14Z</time>
      </trkpt>
      <trkpt lat="47.83335" lon="7.01636">
        <ele>926.2</ele>
        <time>2021-08-09T10:00:16Z</time>
      </trkpt>
      <trkpt lat="47.83335" lon="7.01636">
        <ele>926.2</ele>
        <time>2021-08-09T10:00:17Z</time>
      </trkpt>
      <trkpt lat="47.83335" lon="7.01636">
        <ele>926.2</ele>
        <time>2021-08-09T10:00:18Z</time>
      </trkpt>
      <trkpt lat="47.83335" lon="7.01637">
        <ele>926.3</ele>
        <time>2021-08-09T10:00:20Z</time>
      </trkpt>
      <trkpt lat="47.83335" lon="7.01638">
        <ele>926.3</ele>
        <time>2021-08-09T10:00:21Z</time>
      </trkpt>
      <trkpt lat="47.83335" lon="7.01639">
        <ele>926.4</ele>
        <time>2021-08-09T10:00:23Z</time>
      </trkpt>
      <trkpt lat="47.83335" lon="7.01641">
        <ele>926.5</ele>
        <time>2021-08-09T10:00:24Z</time>
      </trkpt>
      <trkpt lat="47.83335" lon="7.01643">
        <ele>926.7</ele>
        <time>2021-08-09T10:00:26Z</time>
      </trkpt>
      <trkpt lat="47.83335" lon="7.01644">
        <ele>926.8</ele>
        <time>2021-08-09T10:00:27Z</time>
      </trkpt>
      <trkpt lat="47.83335" lon="7.01648">
        <ele>927</ele>
        <time>2021-08-09T10:00:29Z</time>
      </trkpt>
      <trkpt lat="47.83336" lon="7.01651">
        <ele>927.3</ele>
        <time>2021-08-09T10:00:30Z</time>
      </trkpt>
      <trkpt lat="47.83336" lon="7.01652">
        <ele>927.4</ele>
        <time>2021-08-09T10:00:32Z</time>
      </trkpt>
      <trkpt lat="47.83336" lon="7.01653">
        <ele>927.5</ele>
        <time>2021-08-09T10:00:33Z</time>
      </trkpt>
      <trkpt lat="47.83336" lon="7.01654">
        <ele>927.5</ele>
        <time>2021-08-09T10:00:34Z</time>
      </trkpt>
      <trkpt lat="47.83336" lon="7.01655">
        <ele>927.6</ele>
        <time>2021-08-09T10:00:36Z</time>
      </trkpt>
      <trkpt lat="47.83336" lon="7.01657">
        <ele>927.7</ele>
        <time>2021-08-09T10:00:37Z</time>
      </trkpt>
      <trkpt lat="47.83336" lon="7.01658">
        <ele>927.8</ele>
        <time>2021-08-09T10:00:38Z</time>
      </trkpt>
      <trkpt lat="47.83337" lon="7.01659">
        <ele>927.9</ele>
        <time>2021-08-09T10:00:40Z</time>
      </trkpt>
      <trkpt lat="47.83338" lon="7.0166">
        <ele>928</ele>
        <time>2021-08-09T10:00:41Z</time>
      </trkpt>
      <trkpt lat="47.83338" lon="7.0166">
        <ele>928</ele>
        <time>2021-08-09T10:00:42Z</time>
      </trkpt>
      <trkpt lat="47.83338" lon="7.0166">
        <ele>928</ele>
        <time>2021-08-09T10:00:44Z</time>
      </trkpt>
      <trkpt lat="47.83337" lon="7.01659">
        <ele>928.2</ele>
        <time>2021-08-09T10:00:45Z</time>
      </trkpt>
      <trkpt lat="47.83336" lon="7.01658">
        <ele>928.3</ele>
        <time>2021-08-09T10:00:46Z</time>
      </trkpt>
      <trkpt lat="47.83335" lon="7.01657">
        <ele>928.5</ele>
        <time>2021-08-09T10:00:48Z</time>
      </trkpt>
      <trkpt lat="47.83333" lon="7.01656">
        <ele>928.6</ele>
        <time>2021-08-09T10:00:49Z</time>
      </trkpt>
      <trkpt lat="47.83332" lon="7.01656">
        <ele>928.7</ele>
        <time>2021-08-09T10:00:51Z</time>
      </trkpt>
      <trkpt lat="47.83332" lon="7.01656">
        <ele>928.8</ele>
        <time>2021-08-09T10:00:52Z</time>
      </trkpt>
      <trkpt lat="47.8333" lon="7.01655">
        <ele>928.9</ele>
        <time>2021-08-09T10:00:53Z</time>
      </trkpt>
      <trkpt lat="47.8333" lon="7.01655">
        <ele>929</ele>
        <time>2021-08-09T10:00:55Z</time>
      </trkpt>
      <trkpt lat="47.83329" lon="7.01655">
        <ele>929.1</ele>
        <time>2021-08-09T10:00:56Z</time>
      </trkpt>
      <trkpt lat="47.83328" lon="7.01655">
        <ele>929.2</ele>
        <time>2021-08-09T10:00:57Z</time>
      </trkpt>
      <trkpt lat="47.83319" lon="7.01644">
        <ele>930.4</ele>
        <time>2021-08-09T10:00:59Z</time>
      </trkpt>
      <trkpt lat="47.83307" lon="7.01632">
        <ele>931.9</ele>
        <time>2021-08-09T10:01:00Z</time>
      </trkpt>
      <trkpt lat="47.83303" lon="7.0163">
        <ele>932.4</ele>
        <time>2021-08-09T10:01:02Z</time>
      </trkpt>
      <trkpt lat="47.83288" lon="7.01624">
        <ele>934.1</ele>
        <time>2021-08-09T10:01:03Z</time>
      </trkpt>
      <trkpt lat="47.83279" lon="7.0162">
        <ele>935.2</ele>
        <time>2021-08-09T10:01:04Z</time>
      </trkpt>
      <trkpt lat="47.83276" lon="7.01619">
        <ele>935.5</ele>
        <time>2021-08-09T10:01:06Z</time>
      </trkpt>
      <trkpt lat="47.83275" lon="7.01618">
        <ele>935.6</ele>
        <time>2021-08-09T10:01:08Z</time>
      </trkpt>
      <trkpt lat="47.83274" lon="7.01618">
        <ele>935.7</ele>
        <time>2021-08-09T10:01:09Z</time>
      </trkpt>
      <trkpt lat="47.83273" lon="7.01617">
        <ele>935.8</ele>
        <time>2021-08-09T10:01:10Z</time>
      </trkpt>
      <trkpt lat="47.83272" lon="7.01617">
        <ele>936</ele>
        <time>2021-08-09T10:01:11Z</time>
      </trkpt>
      <trkpt lat="47.83271" lon="7.01617">
        <ele>936.1</ele>
        <time>2021-08-09T10:01:13Z</time>
      </trkpt>
      <trkpt lat="47.8327" lon="7.01617">
        <ele>936.2</ele>
        <time>2021-08-09T10:01:14Z</time>
      </trkpt>
      <trkpt lat="47.8327" lon="7.01617">
        <ele>936.3</ele>
        <time>2021-08-09T10:01:16Z</time>
      </trkpt>
      <trkpt lat="47.8327" lon="7.01617">
        <ele>936.3</ele>
        <time>2021-08-09T10:01:17Z</time>
      </trkpt>
      <trkpt lat="47.8327" lon="7.01617">
        <ele>936.3</ele>
        <time>2021-08-09T10:01:18Z</time>
      </trkpt>
      <trkpt lat="47.83271" lon="7.01617">
        <ele>936.4</ele>
        <time>2021-08-09T10:01:19Z</time>
      </trkpt>
      <trkpt lat="47.83286" lon="7.01575">
        <ele>945.6</ele>
        <time>2021-08-09T10:02:38Z</time>
      </trkpt>
      <trkpt lat="47.83283" lon="7.01574">
        <ele>946.2</ele>
        <time>2021-08-09T10:02:40Z</time>
      </trkpt>
      <trkpt lat="47.8328" lon="7.01574">
        <ele>946.2</ele>
        <time>2021-08-09T10:02:41Z</time>
      </trkpt>
      <trkpt lat="47.83275" lon="7.01573">
        <ele>946.1</ele>
        <time>2021-08-09T10:02:42Z</time>
      </trkpt>
      <trkpt lat="47.83271" lon="7.01573">
        <ele>946</ele>
        <time>2021-08-09T10:02:44Z</time>
      </trkpt>
      <trkpt lat="47.83268" lon="7.01573">
        <ele>945.9</ele>
        <time>2021-08-09T10:02:45Z</time>
      </trkpt>
      <trkpt lat="47.83266" lon="7.01573">
        <ele>945.8</ele>
        <time>2021-08-09T10:02:46Z</time>
      </trkpt>
      <trkpt lat="47.83264" lon="7.01573">
        <ele>945.8</ele>
        <time>2021-08-09T10:02:48Z</time>
      </trkpt>
      <trkpt lat="47.83263" lon="7.01573">
        <ele>945.8</ele>
        <time>2021-08-09T10:02:49Z</time>
      </trkpt>
      <trkpt lat="47.83261" lon="7.01574">
        <ele>945.7</ele>
        <time>2021-08-09T10:02:50Z</time>
      </trkpt>
      <trkpt lat="47.8326" lon="7.01574">
        <ele>945.7</ele>
        <time>2021-08-09T10:02:52Z</time>
      </trkpt>
      <trkpt lat="47.83259" lon="7.01576">
        <ele>945.6</ele>
        <time>2021-08-09T10:02:53Z</time>
      </trkpt>
      <trkpt lat="47.83258" lon="7.01577">
        <ele>945.6</ele>
        <time>2021-08-09T10:02:54Z</time>
      </trkpt>
      <trkpt lat="47.83256" lon="7.01578">
        <ele>945.6</ele>
        <time>2021-08-09T10:02:56Z</time>
      </trkpt>
      <trkpt lat="47.83256" lon="7.01577">
        <ele>945.6</ele>
        <time>2021-08-09T10:02:58Z</time>
      </trkpt>
      <trkpt lat="47.83255" lon="7.01576">
        <ele>945.6</ele>
        <time>2021-08-09T10:02:59Z</time>
      </trkpt>
      <trkpt lat="47.83254" lon="7.01575">
        <ele>945.5</ele>
        <time>2021-08-09T10:03:00Z</time>
      </trkpt>
      <trkpt lat="47.83253" lon="7.01574">
        <ele>945.5</ele>
        <time>2021-08-09T10:03:02Z</time>
      </trkpt>
      <trkpt lat="47.83225" lon="7.01536">
        <ele>944.8</ele>
        <time>2021-08-09T10:03:27Z</time>
      </trkpt>
      <trkpt lat="47.83224" lon="7.01534">
        <ele>944.7</ele>
        <time>2021-08-09T10:03:28Z</time>
      </trkpt>
      <trkpt lat="47.83223" lon="7.01533">
        <ele>944.7</ele>
        <time>2021-08-09T10:03:29Z</time>
      </trkpt>
      <trkpt lat="47.83221" lon="7.01531">
        <ele>944.6</ele>
        <time>2021-08-09T10:03:31Z</time>
      </trkpt>
      <trkpt lat="47.8322" lon="7.0153">
        <ele>944.6</ele>
        <time>2021-08-09T10:03:32Z</time>
      </trkpt>
      <trkpt lat="47.8322" lon="7.01528">
        <ele>944.6</ele>
        <time>2021-08-09T10:03:33Z</time>
      </trkpt>
      <trkpt lat="47.8322" lon="7.01527">
        <ele>944.6</ele>
        <time>2021-08-09T10:03:34Z</time>
      </trkpt>
      <trkpt lat="47.8322" lon="7.01527">
        <ele>944.5</ele>
        <time>2021-08-09T10:03:36Z</time>
      </trkpt>
      <trkpt lat="47.8322" lon="7.01526">
        <ele>944.5</ele>
        <time>2021-08-09T10:03:37Z</time>
      </trkpt>
      <trkpt lat="47.8322" lon="7.01526">
        <ele>944.5</ele>
        <time>2021-08-09T10:03:39Z</time>
      </trkpt>
      <trkpt lat="47.8322" lon="7.01526">
        <ele>944.5</ele>
        <time>2021-08-09T10:03:40Z</time>
      </trkpt>
      <trkpt lat="47.83219" lon="7.01527">
        <ele>944.5</ele>
        <time>2021-08-09T10:03:41Z</time>
      </trkpt>
      <trkpt lat="47.83217" lon="7.01528">
        <ele>944.4</ele>
        <time>2021-08-09T10:03:43Z</time>
      </trkpt>
      <trkpt lat="47.83216" lon="7.0153">
        <ele>944.4</ele>
        <time>2021-08-09T10:03:44Z</time>
      </trkpt>
      <trkpt lat="47.83214" lon="7.01532">
        <ele>944.3</ele>
        <time>2021-08-09T10:03:46Z</time>
      </trkpt>
      <trkpt lat="47.83213" lon="7.01532">
        <ele>944.3</ele>
        <time>2021-08-09T10:03:48Z</time>
      </trkpt>
      <trkpt lat="47.83212" lon="7.01534">
        <ele>944.2</ele>
        <time>2021-08-09T10:03:49Z</time>
      </trkpt>
      <trkpt lat="47.8321" lon="7.01536">
        <ele>944.1</ele>
        <time>2021-08-09T10:03:50Z</time>
      </trkpt>
      <trkpt lat="47.83209" lon="7.01537">
        <ele>944.1</ele>
        <time>2021-08-09T10:03:52Z</time>
      </trkpt>
      <trkpt lat="47.83209" lon="7.01538">
        <ele>944.1</ele>
        <time>2021-08-09T10:03:53Z</time>
      </trkpt>
      <trkpt lat="47.83208" lon="7.01539">
        <ele>944</ele>
        <time>2021-08-09T10:03:54Z</time>
      </trkpt>
      <trkpt lat="47.83207" lon="7.0154">
        <ele>944</ele>
        <time>2021-08-09T10:03:55Z</time>
      </trkpt>
      <trkpt lat="47.83206" lon="7.01541">
        <ele>944</ele>
        <time>2021-08-09T10:03:57Z</time>
      </trkpt>
      <trkpt lat="47.83205" lon="7.01543">
        <ele>943.9</ele>
        <time>2021-08-09T10:03:58Z</time>
      </trkpt>
      <trkpt lat="47.83204" lon="7.01545">
        <ele>943.8</ele>
        <time>2021-08-09T10:03:59Z</time>
      </trkpt>
      <trkpt lat="47.83203" lon="7.01549">
        <ele>943.7</ele>
        <time>2021-08-09T10:04:01Z</time>
      </trkpt>
      <trkpt lat="47.83203" lon="7.01551">
        <ele>943.7</ele>
        <time>2021-08-09T10:04:02Z</time>
      </trkpt>
      <trkpt lat="47.83202" lon="7.01553">
        <ele>943.6</ele>
        <time>2021-08-09T10:04:03Z</time>
      </trkpt>
      <trkpt lat="47.83202" lon="7.01555">
        <ele>943.6</ele>
        <time>2021-08-09T10:04:05Z</time>
      </trkpt>
      <trkpt lat="47.83201" lon="7.01557">
        <ele>943.5</ele>
        <time>2021-08-09T10:04:06Z</time>
      </trkpt>
      <trkpt lat="47.83201" lon="7.01558">
        <ele>943.5</ele>
        <time>2021-08-09T10:04:07Z</time>
      </trkpt>
      <trkpt lat="47.832" lon="7.01559">
        <ele>943.4</ele>
        <time>2021-08-09T10:04:08Z</time>
      </trkpt>
      <trkpt lat="47.832" lon="7.0156">
        <ele>943.4</ele>
        <time>2021-08-09T10:04:10Z</time>
      </trkpt>
      <trkpt lat="47.832" lon="7.01561">
        <ele>943.4</ele>
        <time>2021-08-09T10:04:11Z</time>
      </trkpt>
      <trkpt lat="47.83199" lon="7.01563">
        <ele>943.3</ele>
        <time>2021-08-09T10:04:12Z</time>
      </trkpt>
      <trkpt lat="47.83199" lon="7.01564">
        <ele>943.2</ele>
        <time>2021-08-09T10:04:13Z</time>
      </trkpt>
      <trkpt lat="47.83198" lon="7.01566">
        <ele>943.2</ele>
        <time>2021-08-09T10:04:15Z</time>
      </trkpt>
      <trkpt lat="47.83196" lon="7.01568">
        <ele>943</ele>
        <time>2021-08-09T10:04:17Z</time>
      </trkpt>
      <trkpt lat="47.83195" lon="7.0157">
        <ele>943</ele>
        <time>2021-08-09T10:04:18Z</time>
      </trkpt>
      <trkpt lat="47.83194" lon="7.01571">
        <ele>942.9</ele>
        <time>2021-08-09T10:04:19Z</time>
      </trkpt>
      <trkpt lat="47.83194" lon="7.01572">
        <ele>942.9</ele>
        <time>2021-08-09T10:04:21Z</time>
      </trkpt>
      <trkpt lat="47.83192" lon="7.01573">
        <ele>942.8</ele>
        <time>2021-08-09T10:04:22Z</time>
      </trkpt>
      <trkpt lat="47.83191" lon="7.01573">
        <ele>942.7</ele>
        <time>2021-08-09T10:04:24Z</time>
      </trkpt>
      <trkpt lat="47.8319" lon="7.01574">
        <ele>942.6</ele>
        <time>2021-08-09T10:04:25Z</time>
      </trkpt>
      <trkpt lat="47.83188" lon="7.01575">
        <ele>942.5</ele>
        <time>2021-08-09T10:04:26Z</time>
      </trkpt>
      <trkpt lat="47.83183" lon="7.01577">
        <ele>942.2</ele>
        <time>2021-08-09T10:04:28Z</time>
      </trkpt>
      <trkpt lat="47.83181" lon="7.01578">
        <ele>942.1</ele>
        <time>2021-08-09T10:04:30Z</time>
      </trkpt>
      <trkpt lat="47.83179" lon="7.01579">
        <ele>941.9</ele>
        <time>2021-08-09T10:04:31Z</time>
      </trkpt>
      <trkpt lat="47.83178" lon="7.0158">
        <ele>941.8</ele>
        <time>2021-08-09T10:04:32Z</time>
      </trkpt>
      <trkpt lat="47.83174" lon="7.01585">
        <ele>941.5</ele>
        <time>2021-08-09T10:04:33Z</time>
      </trkpt>
      <trkpt lat="47.83169" lon="7.01586">
        <ele>941.1</ele>
        <time>2021-08-09T10:04:35Z</time>
      </trkpt>
      <trkpt lat="47.83167" lon="7.01585">
        <ele>940.9</ele>
        <time>2021-08-09T10:04:36Z</time>
      </trkpt>
      <trkpt lat="47.83164" lon="7.01584">
        <ele>940.7</ele>
        <time>2021-08-09T10:04:37Z</time>
      </trkpt>
      <trkpt lat="47.83157" lon="7.01577">
        <ele>940.2</ele>
        <time>2021-08-09T10:04:38Z</time>
      </trkpt>
      <trkpt lat="47.83149" lon="7.01574">
        <ele>939.7</ele>
        <time>2021-08-09T10:04:40Z</time>
      </trkpt>
      <trkpt lat="47.83143" lon="7.01573">
        <ele>939.8</ele>
        <time>2021-08-09T10:04:41Z</time>
      </trkpt>
      <trkpt lat="47.83139" lon="7.01572">
        <ele>940.3</ele>
        <time>2021-08-09T10:04:42Z</time>
      </trkpt>
      <trkpt lat="47.83138" lon="7.01572">
        <ele>940.4</ele>
        <time>2021-08-09T10:04:43Z</time>
      </trkpt>
      <trkpt lat="47.83134" lon="7.01574">
        <ele>940.8</ele>
        <time>2021-08-09T10:04:45Z</time>
      </trkpt>
      <trkpt lat="47.83133" lon="7.01574">
        <ele>940.9</ele>
        <time>2021-08-09T10:04:47Z</time>
      </trkpt>
      <trkpt lat="47.83133" lon="7.01575">
        <ele>941</ele>
        <time>2021-08-09T10:04:48Z</time>
      </trkpt>
      <trkpt lat="47.83133" lon="7.01577">
        <ele>941.1</ele>
        <time>2021-08-09T10:04:50Z</time>
      </trkpt>
      <trkpt lat="47.83133" lon="7.01578">
        <ele>941.2</ele>
        <time>2021-08-09T10:04:51Z</time>
      </trkpt>
      <trkpt lat="47.83132" lon="7.01578">
        <ele>941.2</ele>
        <time>2021-08-09T10:04:52Z</time>
      </trkpt>
      <trkpt lat="47.83078" lon="7.01492">
        <ele>948.4</ele>
        <time>2021-08-09T10:06:14Z</time>
      </trkpt>
      <trkpt lat="47.83075" lon="7.01489">
        <ele>948.7</ele>
        <time>2021-08-09T10:06:16Z</time>
      </trkpt>
      <trkpt lat="47.83073" lon="7.01486">
        <ele>948.9</ele>
        <time>2021-08-09T10:06:18Z</time>
      </trkpt>
      <trkpt lat="47.83072" lon="7.01484">
        <ele>949.1</ele>
        <time>2021-08-09T10:06:19Z</time>
      </trkpt>
      <trkpt lat="47.83071" lon="7.01481">
        <ele>949.2</ele>
        <time>2021-08-09T10:06:21Z</time>
      </trkpt>
      <trkpt lat="47.83073" lon="7.01479">
        <ele>949.4</ele>
        <time>2021-08-09T10:06:23Z</time>
      </trkpt>
      <trkpt lat="47.83074" lon="7.01477">
        <ele>949.6</ele>
        <time>2021-08-09T10:06:24Z</time>
      </trkpt>
      <trkpt lat="47.83074" lon="7.01476">
        <ele>949.6</ele>
        <time>2021-08-09T10:06:25Z</time>
      </trkpt>
      <trkpt lat="47.83075" lon="7.01477">
        <ele>949.7</ele>
        <time>2021-08-09T10:06:27Z</time>
      </trkpt>
      <trkpt lat="47.83076" lon="7.01477">
        <ele>949.8</ele>
        <time>2021-08-09T10:06:28Z</time>
      </trkpt>
      <trkpt lat="47.83076" lon="7.01476">
        <ele>949.8</ele>
        <time>2021-08-09T10:06:29Z</time>
      </trkpt>
      <trkpt lat="47.83076" lon="7.01476">
        <ele>949.9</ele>
        <time>2021-08-09T10:06:31Z</time>
      </trkpt>
      <trkpt lat="47.83075" lon="7.01475">
        <ele>949.9</ele>
        <time>2021-08-09T10:06:32Z</time>
      </trkpt>
      <trkpt lat="47.83073" lon="7.01472">
        <ele>950.2</ele>
        <time>2021-08-09T10:06:34Z</time>
      </trkpt>
      <trkpt lat="47.83025" lon="7.01397">
        <ele>956.5</ele>
        <time>2021-08-09T10:08:04Z</time>
      </trkpt>
      <trkpt lat="47.83025" lon="7.01396">
        <ele>956.6</ele>
        <time>2021-08-09T10:08:06Z</time>
      </trkpt>
      <trkpt lat="47.83026" lon="7.01396">
        <ele>956.6</ele>
        <time>2021-08-09T10:08:07Z</time>
      </trkpt>
      <trkpt lat="47.83026" lon="7.01395">
        <ele>956.6</ele>
        <time>2021-08-09T10:08:08Z</time>
      </trkpt>
      <trkpt lat="47.83032" lon="7.01394">
        <ele>957.4</ele>
        <time>2021-08-09T10:08:11Z</time>
      </trkpt>
      <trkpt lat="47.83035" lon="7.01394">
        <ele>957.7</ele>
        <time>2021-08-09T10:08:12Z</time>
      </trkpt>
      <trkpt lat="47.83037" lon="7.0139">
        <ele>958.1</ele>
        <time>2021-08-09T10:08:13Z</time>
      </trkpt>
      <trkpt lat="47.83037" lon="7.01389">
        <ele>958.2</ele>
        <time>2021-08-09T10:08:14Z</time>
      </trkpt>
      <trkpt lat="47.8303" lon="7.01361">
        <ele>960.9</ele>
        <time>2021-08-09T10:08:16Z</time>
      </trkpt>
      <trkpt lat="47.83023" lon="7.01339">
        <ele>963</ele>
        <time>2021-08-09T10:10:25Z</time>
      </trkpt>
      <trkpt lat="47.83015" lon="7.01316">
        <ele>969.1</ele>
        <time>2021-08-09T10:10:27Z</time>
      </trkpt>
      <trkpt lat="47.83008" lon="7.01294">
        <ele>975.7</ele>
        <time>2021-08-09T10:10:28Z</time>
      </trkpt>
      <trkpt lat="47.83011" lon="7.01294">
        <ele>976.1</ele>
        <time>2021-08-09T10:10:30Z</time>
      </trkpt>
      <trkpt lat="47.83012" lon="7.01294">
        <ele>976.2</ele>
        <time>2021-08-09T10:10:31Z</time>
      </trkpt>
      <trkpt lat="47.83015" lon="7.01295">
        <ele>976.7</ele>
        <time>2021-08-09T10:10:32Z</time>
      </trkpt>
      <trkpt lat="47.83017" lon="7.01295">
        <ele>976.9</ele>
        <time>2021-08-09T10:10:34Z</time>
      </trkpt>
      <trkpt lat="47.8302" lon="7.01295">
        <ele>977.2</ele>
        <time>2021-08-09T10:10:36Z</time>
      </trkpt>
      <trkpt lat="47.83019" lon="7.01294">
        <ele>977.3</ele>
        <time>2021-08-09T10:10:37Z</time>
      </trkpt>
      <trkpt lat="47.8302" lon="7.01293">
        <ele>977.5</ele>
        <time>2021-08-09T10:10:38Z</time>
      </trkpt>
      <trkpt lat="47.8302" lon="7.01293">
        <ele>977.5</ele>
        <time>2021-08-09T10:10:40Z</time>
      </trkpt>
      <trkpt lat="47.8302" lon="7.01293">
        <ele>977.5</ele>
        <time>2021-08-09T10:10:41Z</time>
      </trkpt>
      <trkpt lat="47.8302" lon="7.01293">
        <ele>977.5</ele>
        <time>2021-08-09T10:10:43Z</time>
      </trkpt>
      <trkpt lat="47.8302" lon="7.01293">
        <ele>977.6</ele>
        <time>2021-08-09T10:10:44Z</time>
      </trkpt>
      <trkpt lat="47.8302" lon="7.01294">
        <ele>977.7</ele>
        <time>2021-08-09T10:10:45Z</time>
      </trkpt>
      <trkpt lat="47.83019" lon="7.01294">
        <ele>977.8</ele>
        <time>2021-08-09T10:10:47Z</time>
      </trkpt>
      <trkpt lat="47.83019" lon="7.01295">
        <ele>977.8</ele>
        <time>2021-08-09T10:10:48Z</time>
      </trkpt>
      <trkpt lat="47.83019" lon="7.01297">
        <ele>978</ele>
        <time>2021-08-09T10:10:50Z</time>
      </trkpt>
      <trkpt lat="47.83019" lon="7.01297">
        <ele>978.1</ele>
        <time>2021-08-09T10:10:52Z</time>
      </trkpt>
      <trkpt lat="47.8302" lon="7.01299">
        <ele>978.2</ele>
        <time>2021-08-09T10:10:53Z</time>
      </trkpt>
      <trkpt lat="47.83021" lon="7.01301">
        <ele>978.5</ele>
        <time>2021-08-09T10:10:54Z</time>
      </trkpt>
      <trkpt lat="47.83022" lon="7.01302">
        <ele>978.6</ele>
        <time>2021-08-09T10:10:56Z</time>
      </trkpt>
      <trkpt lat="47.83022" lon="7.01303">
        <ele>978.7</ele>
        <time>2021-08-09T10:10:57Z</time>
      </trkpt>
      <trkpt lat="47.83023" lon="7.01305">
        <ele>978.9</ele>
        <time>2021-08-09T10:10:58Z</time>
      </trkpt>
      <trkpt lat="47.83028" lon="7.01316">
        <ele>980</ele>
        <time>2021-08-09T10:11:05Z</time>
      </trkpt>
      <trkpt lat="47.8303" lon="7.01318">
        <ele>980.3</ele>
        <time>2021-08-09T10:11:07Z</time>
      </trkpt>
      <trkpt lat="47.83034" lon="7.01319">
        <ele>980.9</ele>
        <time>2021-08-09T10:11:09Z</time>
      </trkpt>
      <trkpt lat="47.83037" lon="7.01319">
        <ele>981.3</ele>
        <time>2021-08-09T10:11:10Z</time>
      </trkpt>
      <trkpt lat="47.83039" lon="7.01319">
        <ele>981.6</ele>
        <time>2021-08-09T10:11:12Z</time>
      </trkpt>
      <trkpt lat="47.8304" lon="7.01318">
        <ele>981.8</ele>
        <time>2021-08-09T10:11:13Z</time>
      </trkpt>
      <trkpt lat="47.83042" lon="7.01316">
        <ele>982.1</ele>
        <time>2021-08-09T10:11:15Z</time>
      </trkpt>
      <trkpt lat="47.83043" lon="7.01315">
        <ele>982.3</ele>
        <time>2021-08-09T10:11:16Z</time>
      </trkpt>
      <trkpt lat="47.83045" lon="7.01315">
        <ele>982.5</ele>
        <time>2021-08-09T10:11:17Z</time>
      </trkpt>
      <trkpt lat="47.83046" lon="7.01315">
        <ele>982.7</ele>
        <time>2021-08-09T10:11:18Z</time>
      </trkpt>
      <trkpt lat="47.83047" lon="7.01315">
        <ele>982.9</ele>
        <time>2021-08-09T10:11:20Z</time>
      </trkpt>
      <trkpt lat="47.83048" lon="7.01314">
        <ele>983</ele>
        <time>2021-08-09T10:11:21Z</time>
      </trkpt>
      <trkpt lat="47.8305" lon="7.01314">
        <ele>983.2</ele>
        <time>2021-08-09T10:11:22Z</time>
      </trkpt>
      <trkpt lat="47.83051" lon="7.01314">
        <ele>983.4</ele>
        <time>2021-08-09T10:11:23Z</time>
      </trkpt>
      <trkpt lat="47.83052" lon="7.01313">
        <ele>983.6</ele>
        <time>2021-08-09T10:11:25Z</time>
      </trkpt>
      <trkpt lat="47.83053" lon="7.01313">
        <ele>983.8</ele>
        <time>2021-08-09T10:11:26Z</time>
      </trkpt>
      <trkpt lat="47.83054" lon="7.01313">
        <ele>983.9</ele>
        <time>2021-08-09T10:11:27Z</time>
      </trkpt>
      <trkpt lat="47.83056" lon="7.01313">
        <ele>984.1</ele>
        <time>2021-08-09T10:11:29Z</time>
      </trkpt>
      <trkpt lat="47.83057" lon="7.01312">
        <ele>984.2</ele>
        <time>2021-08-09T10:11:30Z</time>
      </trkpt>
      <trkpt lat="47.83058" lon="7.01312">
        <ele>984.4</ele>
        <time>2021-08-09T10:11:32Z</time>
      </trkpt>
      <trkpt lat="47.83059" lon="7.01312">
        <ele>984.6</ele>
        <time>2021-08-09T10:11:44Z</time>
      </trkpt>
      <trkpt lat="47.83061" lon="7.01312">
        <ele>984.7</ele>
        <time>2021-08-09T10:11:45Z</time>
      </trkpt>
      <trkpt lat="47.83062" lon="7.01311">
        <ele>984.9</ele>
        <time>2021-08-09T10:11:46Z</time>
      </trkpt>
      <trkpt lat="47.83063" lon="7.01311">
        <ele>985</ele>
        <time>2021-08-09T10:11:48Z</time>
      </trkpt>
      <trkpt lat="47.83064" lon="7.01311">
        <ele>985.1</ele>
        <time>2021-08-09T10:11:49Z</time>
      </trkpt>
      <trkpt lat="47.83064" lon="7.01311">
        <ele>985.2</ele>
        <time>2021-08-09T10:11:51Z</time>
      </trkpt>
      <trkpt lat="47.83064" lon="7.01311">
        <ele>985.2</ele>
        <time>2021-08-09T10:11:52Z</time>
      </trkpt>
      <trkpt lat="47.83065" lon="7.0131">
        <ele>985.2</ele>
        <time>2021-08-09T10:11:53Z</time>
      </trkpt>
      <trkpt lat="47.83065" lon="7.0131">
        <ele>985.3</ele>
        <time>2021-08-09T10:11:54Z</time>
      </trkpt>
      <trkpt lat="47.83066" lon="7.0131">
        <ele>985.4</ele>
        <time>2021-08-09T10:11:56Z</time>
      </trkpt>
      <trkpt lat="47.83067" lon="7.01309">
        <ele>985.5</ele>
        <time>2021-08-09T10:11:58Z</time>
      </trkpt>
      <trkpt lat="47.83144" lon="7.01318">
        <ele>995.1</ele>
        <time>2021-08-09T10:13:43Z</time>
      </trkpt>
      <trkpt lat="47.83147" lon="7.0132">
        <ele>995.5</ele>
        <time>2021-08-09T10:13:44Z</time>
      </trkpt>
      <trkpt lat="47.83149" lon="7.01321">
        <ele>995.8</ele>
        <time>2021-08-09T10:13:46Z</time>
      </trkpt>
      <trkpt lat="47.83151" lon="7.01322">
        <ele>996.1</ele>
        <time>2021-08-09T10:13:48Z</time>
      </trkpt>
      <trkpt lat="47.83153" lon="7.01323">
        <ele>996.3</ele>
        <time>2021-08-09T10:13:49Z</time>
      </trkpt>
      <trkpt lat="47.83154" lon="7.01323">
        <ele>996.5</ele>
        <time>2021-08-09T10:13:51Z</time>
      </trkpt>
      <trkpt lat="47.83155" lon="7.01322">
        <ele>996.7</ele>
        <time>2021-08-09T10:13:52Z</time>
      </trkpt>
      <trkpt lat="47.83156" lon="7.01322">
        <ele>996.8</ele>
        <time>2021-08-09T10:13:54Z</time>
      </trkpt>
      <trkpt lat="47.83157" lon="7.01322">
        <ele>996.9</ele>
        <time>2021-08-09T10:13:55Z</time>
      </trkpt>
      <trkpt lat="47.83159" lon="7.01321">
        <ele>997.2</ele>
        <time>2021-08-09T10:13:56Z</time>
      </trkpt>
      <trkpt lat="47.83161" lon="7.0132">
        <ele>997.5</ele>
        <time>2021-08-09T10:13:58Z</time>
      </trkpt>
      <trkpt lat="47.83164" lon="7.0132">
        <ele>997.8</ele>
        <time>2021-08-09T10:13:59Z</time>
      </trkpt>
      <trkpt lat="47.83166" lon="7.01319">
        <ele>998.1</ele>
        <time>2021-08-09T10:14:01Z</time>
      </trkpt>
      <trkpt lat="47.83168" lon="7.01319">
        <ele>998.5</ele>
        <time>2021-08-09T10:14:03Z</time>
      </trkpt>
      <trkpt lat="47.83171" lon="7.01318">
        <ele>998.8</ele>
        <time>2021-08-09T10:14:04Z</time>
      </trkpt>
      <trkpt lat="47.83173" lon="7.01318">
        <ele>999.1</ele>
        <time>2021-08-09T10:14:06Z</time>
      </trkpt>
      <trkpt lat="47.83175" lon="7.01317">
        <ele>999.4</ele>
        <time>2021-08-09T10:14:07Z</time>
      </trkpt>
      <trkpt lat="47.83178" lon="7.01317">
        <ele>999.8</ele>
        <time>2021-08-09T10:14:09Z</time>
      </trkpt>
      <trkpt lat="47.8318" lon="7.01316">
        <ele>1000.1</ele>
        <time>2021-08-09T10:14:32Z</time>
      </trkpt>
      <trkpt lat="47.83182" lon="7.01316">
        <ele>1000.5</ele>
        <time>2021-08-09T10:14:34Z</time>
      </trkpt>
      <trkpt lat="47.83185" lon="7.01315">
        <ele>1000.8</ele>
        <time>2021-08-09T10:14:35Z</time>
      </trkpt>
      <trkpt lat="47.83186" lon="7.01314">
        <ele>1001</ele>
        <time>2021-08-09T10:14:36Z</time>
      </trkpt>
      <trkpt lat="47.83188" lon="7.01313">
        <ele>1001.3</ele>
        <time>2021-08-09T10:14:38Z</time>
      </trkpt>
      <trkpt lat="47.83191" lon="7.01306">
        <ele>1002.1</ele>
        <time>2021-08-09T10:14:39Z</time>
      </trkpt>
      <trkpt lat="47.83194" lon="7.013">
        <ele>1002.8</ele>
        <time>2021-08-09T10:14:41Z</time>
      </trkpt>
      <trkpt lat="47.83196" lon="7.01293">
        <ele>1003.6</ele>
        <time>2021-08-09T10:14:42Z</time>
      </trkpt>
      <trkpt lat="47.83198" lon="7.01286">
        <ele>1004.3</ele>
        <time>2021-08-09T10:14:44Z</time>
      </trkpt>
      <trkpt lat="47.832" lon="7.0128">
        <ele>1005</ele>
        <time>2021-08-09T10:14:46Z</time>
      </trkpt>
      <trkpt lat="47.83203" lon="7.01273">
        <ele>1005.7</ele>
        <time>2021-08-09T10:14:47Z</time>
      </trkpt>
      <trkpt lat="47.83205" lon="7.01266">
        <ele>1006.4</ele>
        <time>2021-08-09T10:14:49Z</time>
      </trkpt>
      <trkpt lat="47.83207" lon="7.01259">
        <ele>1007.1</ele>
        <time>2021-08-09T10:14:50Z</time>
      </trkpt>
      <trkpt lat="47.83209" lon="7.01253">
        <ele>1007.8</ele>
        <time>2021-08-09T10:14:52Z</time>
      </trkpt>
      <trkpt lat="47.83212" lon="7.01246">
        <ele>1008.5</ele>
        <time>2021-08-09T10:18:41Z</time>
      </trkpt>
      <trkpt lat="47.83214" lon="7.01239">
        <ele>1009.1</ele>
        <time>2021-08-09T10:18:42Z</time>
      </trkpt>
      <trkpt lat="47.8321" lon="7.01237">
        <ele>1011.8</ele>
        <time>2021-08-09T10:18:43Z</time>
      </trkpt>
      <trkpt lat="47.83207" lon="7.01235">
        <ele>1011.9</ele>
        <time>2021-08-09T10:18:44Z</time>
      </trkpt>
      <trkpt lat="47.83203" lon="7.01232">
        <ele>1012.1</ele>
        <time>2021-08-09T10:18:46Z</time>
      </trkpt>
      <trkpt lat="47.83199" lon="7.0123">
        <ele>1012.3</ele>
        <time>2021-08-09T10:18:47Z</time>
      </trkpt>
      <trkpt lat="47.83196" lon="7.01228">
        <ele>1012.4</ele>
        <time>2021-08-09T10:18:48Z</time>
      </trkpt>
      <trkpt lat="47.83193" lon="7.01225">
        <ele>1012.6</ele>
        <time>2021-08-09T10:18:49Z</time>
      </trkpt>
      <trkpt lat="47.83193" lon="7.01224">
        <ele>1012.6</ele>
        <time>2021-08-09T10:18:50Z</time>
      </trkpt>
      <trkpt lat="47.8319" lon="7.01221">
        <ele>1012.8</ele>
        <time>2021-08-09T10:18:52Z</time>
      </trkpt>
      <trkpt lat="47.83188" lon="7.01218">
        <ele>1013</ele>
        <time>2021-08-09T10:18:53Z</time>
      </trkpt>
      <trkpt lat="47.83186" lon="7.01216">
        <ele>1013.1</ele>
        <time>2021-08-09T10:18:54Z</time>
      </trkpt>
      <trkpt lat="47.83185" lon="7.01214">
        <ele>1013.2</ele>
        <time>2021-08-09T10:18:56Z</time>
      </trkpt>
      <trkpt lat="47.83183" lon="7.01213">
        <ele>1013.3</ele>
        <time>2021-08-09T10:18:57Z</time>
      </trkpt>
      <trkpt lat="47.83182" lon="7.01211">
        <ele>1013.5</ele>
        <time>2021-08-09T10:18:58Z</time>
      </trkpt>
      <trkpt lat="47.83179" lon="7.01208">
        <ele>1013.7</ele>
        <time>2021-08-09T10:19:00Z</time>
      </trkpt>
      <trkpt lat="47.83178" lon="7.01207">
        <ele>1013.8</ele>
        <time>2021-08-09T10:19:01Z</time>
      </trkpt>
      <trkpt lat="47.83176" lon="7.01205">
        <ele>1014</ele>
        <time>2021-08-09T10:19:02Z</time>
      </trkpt>
      <trkpt lat="47.83175" lon="7.01203">
        <ele>1014.1</ele>
        <time>2021-08-09T10:19:04Z</time>
      </trkpt>
      <trkpt lat="47.83174" lon="7.01201">
        <ele>1014.2</ele>
        <time>2021-08-09T10:19:05Z</time>
      </trkpt>
      <trkpt lat="47.83174" lon="7.012">
        <ele>1014.3</ele>
        <time>2021-08-09T10:19:06Z</time>
      </trkpt>
      <trkpt lat="47.83173" lon="7.01198">
        <ele>1014.4</ele>
        <time>2021-08-09T10:19:07Z</time>
      </trkpt>
      <trkpt lat="47.83173" lon="7.01197">
        <ele>1014.5</ele>
        <time>2021-08-09T10:19:08Z</time>
      </trkpt>
      <trkpt lat="47.83171" lon="7.01197">
        <ele>1014.6</ele>
        <time>2021-08-09T10:19:10Z</time>
      </trkpt>
      <trkpt lat="47.83172" lon="7.01199">
        <ele>1014.7</ele>
        <time>2021-08-09T10:19:12Z</time>
      </trkpt>
      <trkpt lat="47.83175" lon="7.012">
        <ele>1014.9</ele>
        <time>2021-08-09T10:19:14Z</time>
      </trkpt>
      <trkpt lat="47.83178" lon="7.012">
        <ele>1015.2</ele>
        <time>2021-08-09T10:19:16Z</time>
      </trkpt>
      <trkpt lat="47.83179" lon="7.01201">
        <ele>1015.3</ele>
        <time>2021-08-09T10:19:18Z</time>
      </trkpt>
      <trkpt lat="47.8318" lon="7.01201">
        <ele>1015.4</ele>
        <time>2021-08-09T10:19:19Z</time>
      </trkpt>
      <trkpt lat="47.8318" lon="7.01201">
        <ele>1015.4</ele>
        <time>2021-08-09T10:19:21Z</time>
      </trkpt>
      <trkpt lat="47.83181" lon="7.01201">
        <ele>1015.4</ele>
        <time>2021-08-09T10:19:22Z</time>
      </trkpt>
      <trkpt lat="47.83179" lon="7.01196">
        <ele>1015.8</ele>
        <time>2021-08-09T10:19:23Z</time>
      </trkpt>
      <trkpt lat="47.83177" lon="7.0119">
        <ele>1016.1</ele>
        <time>2021-08-09T10:19:25Z</time>
      </trkpt>
      <trkpt lat="47.83175" lon="7.01184">
        <ele>1016.5</ele>
        <time>2021-08-09T10:20:01Z</time>
      </trkpt>
      <trkpt lat="47.83173" lon="7.01179">
        <ele>1016.8</ele>
        <time>2021-08-09T10:20:02Z</time>
      </trkpt>
      <trkpt lat="47.83172" lon="7.01173">
        <ele>1017.2</ele>
        <time>2021-08-09T10:20:03Z</time>
      </trkpt>
      <trkpt lat="47.83169" lon="7.01171">
        <ele>1017.4</ele>
        <time>2021-08-09T10:20:04Z</time>
      </trkpt>
      <trkpt lat="47.83168" lon="7.0117">
        <ele>1017.5</ele>
        <time>2021-08-09T10:20:06Z</time>
      </trkpt>
      <trkpt lat="47.83166" lon="7.01169">
        <ele>1017.7</ele>
        <time>2021-08-09T10:20:07Z</time>
      </trkpt>
      <trkpt lat="47.83165" lon="7.01168">
        <ele>1017.8</ele>
        <time>2021-08-09T10:20:08Z</time>
      </trkpt>
      <trkpt lat="47.83163" lon="7.01167">
        <ele>1018</ele>
        <time>2021-08-09T10:20:10Z</time>
      </trkpt>
      <trkpt lat="47.83162" lon="7.01166">
        <ele>1018.1</ele>
        <time>2021-08-09T10:20:11Z</time>
      </trkpt>
      <trkpt lat="47.83161" lon="7.01165">
        <ele>1018.2</ele>
        <time>2021-08-09T10:20:12Z</time>
      </trkpt>
      <trkpt lat="47.83159" lon="7.01163">
        <ele>1018.4</ele>
        <time>2021-08-09T10:20:13Z</time>
      </trkpt>
      <trkpt lat="47.83159" lon="7.01162">
        <ele>1018.5</ele>
        <time>2021-08-09T10:20:15Z</time>
      </trkpt>
      <trkpt lat="47.83158" lon="7.01161">
        <ele>1018.6</ele>
        <time>2021-08-09T10:20:16Z</time>
      </trkpt>
      <trkpt lat="47.83157" lon="7.0116">
        <ele>1018.7</ele>
        <time>2021-08-09T10:20:17Z</time>
      </trkpt>
      <trkpt lat="47.83152" lon="7.01156">
        <ele>1019.3</ele>
        <time>2021-08-09T10:20:18Z</time>
      </trkpt>
      <trkpt lat="47.83147" lon="7.01152">
        <ele>1019.8</ele>
        <time>2021-08-09T10:20:20Z</time>
      </trkpt>
      <trkpt lat="47.83143" lon="7.01148">
        <ele>1020.2</ele>
        <time>2021-08-09T10:20:22Z</time>
      </trkpt>
      <trkpt lat="47.83138" lon="7.01144">
        <ele>1020.6</ele>
        <time>2021-08-09T10:20:23Z</time>
      </trkpt>
      <trkpt lat="47.83133" lon="7.0114">
        <ele>1021</ele>
        <time>2021-08-09T10:20:24Z</time>
      </trkpt>
      <trkpt lat="47.83129" lon="7.01137">
        <ele>1021.3</ele>
        <time>2021-08-09T10:20:26Z</time>
      </trkpt>
      <trkpt lat="47.83124" lon="7.01133">
        <ele>1021.7</ele>
        <time>2021-08-09T10:20:27Z</time>
      </trkpt>
      <trkpt lat="47.8312" lon="7.01129">
        <ele>1022.1</ele>
        <time>2021-08-09T10:20:29Z</time>
      </trkpt>
      <trkpt lat="47.83115" lon="7.01125">
        <ele>1022.4</ele>
        <time>2021-08-09T10:20:31Z</time>
      </trkpt>
      <trkpt lat="47.8311" lon="7.01121">
        <ele>1022.8</ele>
        <time>2021-08-09T10:20:32Z</time>
      </trkpt>
      <trkpt lat="47.83106" lon="7.01118">
        <ele>1023.1</ele>
        <time>2021-08-09T10:20:33Z</time>
      </trkpt>
      <trkpt lat="47.83101" lon="7.01114">
        <ele>1023.5</ele>
        <time>2021-08-09T10:21:53Z</time>
      </trkpt>
      <trkpt lat="47.83097" lon="7.0111">
        <ele>1023.9</ele>
        <time>2021-08-09T10:21:54Z</time>
      </trkpt>
      <trkpt lat="47.83092" lon="7.01106">
        <ele>1024.3</ele>
        <time>2021-08-09T10:21:55Z</time>
      </trkpt>
      <trkpt lat="47.8309" lon="7.01106">
        <ele>1024.4</ele>
        <time>2021-08-09T10:21:56Z</time>
      </trkpt>
      <trkpt lat="47.83088" lon="7.01106">
        <ele>1024.6</ele>
        <time>2021-08-09T10:21:58Z</time>
      </trkpt>
      <trkpt lat="47.83086" lon="7.01106">
        <ele>1024.7</ele>
        <time>2021-08-09T10:21:59Z</time>
      </trkpt>
      <trkpt lat="47.83084" lon="7.01107">
        <ele>1024.8</ele>
        <time>2021-08-09T10:22:01Z</time>
      </trkpt>
      <trkpt lat="47.83082" lon="7.01108">
        <ele>1024.9</ele>
        <time>2021-08-09T10:22:02Z</time>
      </trkpt>
      <trkpt lat="47.83081" lon="7.01108">
        <ele>1025</ele>
        <time>2021-08-09T10:22:03Z</time>
      </trkpt>
      <trkpt lat="47.83079" lon="7.01108">
        <ele>1025.1</ele>
        <time>2021-08-09T10:22:05Z</time>
      </trkpt>
      <trkpt lat="47.83078" lon="7.01108">
        <ele>1025.1</ele>
        <time>2021-08-09T10:22:06Z</time>
      </trkpt>
      <trkpt lat="47.83076" lon="7.01107">
        <ele>1025.2</ele>
        <time>2021-08-09T10:22:07Z</time>
      </trkpt>
      <trkpt lat="47.83074" lon="7.01106">
        <ele>1025.3</ele>
        <time>2021-08-09T10:22:09Z</time>
      </trkpt>
      <trkpt lat="47.83073" lon="7.01105">
        <ele>1025.4</ele>
        <time>2021-08-09T10:22:10Z</time>
      </trkpt>
      <trkpt lat="47.83071" lon="7.01105">
        <ele>1025.5</ele>
        <time>2021-08-09T10:22:12Z</time>
      </trkpt>
      <trkpt lat="47.83069" lon="7.01104">
        <ele>1025.6</ele>
        <time>2021-08-09T10:22:13Z</time>
      </trkpt>
      <trkpt lat="47.83068" lon="7.01103">
        <ele>1025.7</ele>
        <time>2021-08-09T10:22:15Z</time>
      </trkpt>
      <trkpt lat="47.83066" lon="7.01102">
        <ele>1025.7</ele>
        <time>2021-08-09T10:22:16Z</time>
      </trkpt>
      <trkpt lat="47.83065" lon="7.01101">
        <ele>1025.8</ele>
        <time>2021-08-09T10:22:17Z</time>
      </trkpt>
      <trkpt lat="47.83064" lon="7.011">
        <ele>1025.9</ele>
        <time>2021-08-09T10:22:18Z</time>
      </trkpt>
      <trkpt lat="47.83062" lon="7.011">
        <ele>1026</ele>
        <time>2021-08-09T10:22:20Z</time>
      </trkpt>
      <trkpt lat="47.83061" lon="7.01099">
        <ele>1026</ele>
        <time>2021-08-09T10:22:22Z</time>
      </trkpt>
      <trkpt lat="47.83059" lon="7.01098">
        <ele>1026.1</ele>
        <time>2021-08-09T10:22:24Z</time>
      </trkpt>
      <trkpt lat="47.83058" lon="7.01097">
        <ele>1026.2</ele>
        <time>2021-08-09T10:22:49Z</time>
      </trkpt>
      <trkpt lat="47.83057" lon="7.01096">
        <ele>1026.2</ele>
        <time>2021-08-09T10:22:51Z</time>
      </trkpt>
      <trkpt lat="47.83055" lon="7.01095">
        <ele>1026.3</ele>
        <time>2021-08-09T10:22:52Z</time>
      </trkpt>
      <trkpt lat="47.83054" lon="7.01093">
        <ele>1026.4</ele>
        <time>2021-08-09T10:22:53Z</time>
      </trkpt>
      <trkpt lat="47.83052" lon="7.01091">
        <ele>1026.5</ele>
        <time>2021-08-09T10:22:55Z</time>
      </trkpt>
      <trkpt lat="47.83049" lon="7.01088">
        <ele>1026.6</ele>
        <time>2021-08-09T10:22:56Z</time>
      </trkpt>
      <trkpt lat="47.83049" lon="7.01087">
        <ele>1026.7</ele>
        <time>2021-08-09T10:22:57Z</time>
      </trkpt>
      <trkpt lat="47.83047" lon="7.01083">
        <ele>1026.8</ele>
        <time>2021-08-09T10:22:59Z</time>
      </trkpt>
      <trkpt lat="47.83047" lon="7.01081">
        <ele>1026.9</ele>
        <time>2021-08-09T10:23:00Z</time>
      </trkpt>
      <trkpt lat="47.83045" lon="7.01077">
        <ele>1027</ele>
        <time>2021-08-09T10:23:02Z</time>
      </trkpt>
      <trkpt lat="47.83043" lon="7.01076">
        <ele>1027.1</ele>
        <time>2021-08-09T10:23:03Z</time>
      </trkpt>
      <trkpt lat="47.83041" lon="7.01074">
        <ele>1027.2</ele>
        <time>2021-08-09T10:23:05Z</time>
      </trkpt>
      <trkpt lat="47.83039" lon="7.01072">
        <ele>1027.3</ele>
        <time>2021-08-09T10:23:07Z</time>
      </trkpt>
      <trkpt lat="47.83037" lon="7.0107">
        <ele>1027.4</ele>
        <time>2021-08-09T10:23:08Z</time>
      </trkpt>
      <trkpt lat="47.83035" lon="7.01069">
        <ele>1027.5</ele>
        <time>2021-08-09T10:23:10Z</time>
      </trkpt>
      <trkpt lat="47.83033" lon="7.01067">
        <ele>1027.6</ele>
        <time>2021-08-09T10:23:12Z</time>
      </trkpt>
      <trkpt lat="47.83031" lon="7.01065">
        <ele>1027.7</ele>
        <time>2021-08-09T10:23:14Z</time>
      </trkpt>
      <trkpt lat="47.83029" lon="7.01063">
        <ele>1027.8</ele>
        <time>2021-08-09T10:23:16Z</time>
      </trkpt>
      <trkpt lat="47.83027" lon="7.01061">
        <ele>1028.1</ele>
        <time>2021-08-09T10:23:17Z</time>
      </trkpt>
      <trkpt lat="47.83025" lon="7.0106">
        <ele>1028.2</ele>
        <time>2021-08-09T10:23:18Z</time>
      </trkpt>
      <trkpt lat="47.83023" lon="7.01058">
        <ele>1028.3</ele>
        <time>2021-08-09T10:23:20Z</time>
      </trkpt>
      <trkpt lat="47.83021" lon="7.01056">
        <ele>1028.4</ele>
        <time>2021-08-09T10:23:21Z</time>
      </trkpt>
      <trkpt lat="47.83019" lon="7.01054">
        <ele>1028.5</ele>
        <time>2021-08-09T10:23:22Z</time>
      </trkpt>
      <trkpt lat="47.83017" lon="7.01053">
        <ele>1028.6</ele>
        <time>2021-08-09T10:23:23Z</time>
      </trkpt>
      <trkpt lat="47.83016" lon="7.01051">
        <ele>1028.7</ele>
        <time>2021-08-09T10:23:24Z</time>
      </trkpt>
      <trkpt lat="47.83014" lon="7.01049">
        <ele>1028.8</ele>
        <time>2021-08-09T10:23:26Z</time>
      </trkpt>
      <trkpt lat="47.83012" lon="7.01047">
        <ele>1028.9</ele>
        <time>2021-08-09T10:23:27Z</time>
      </trkpt>
      <trkpt lat="47.8301" lon="7.01045">
        <ele>1029</ele>
        <time>2021-08-09T10:23:28Z</time>
      </trkpt>
      <trkpt lat="47.83008" lon="7.01044">
        <ele>1029.1</ele>
        <time>2021-08-09T10:24:09Z</time>
      </trkpt>
      <trkpt lat="47.83006" lon="7.01042">
        <ele>1029.2</ele>
        <time>2021-08-09T10:24:10Z</time>
      </trkpt>
      <trkpt lat="47.83003" lon="7.01038">
        <ele>1029.4</ele>
        <time>2021-08-09T10:24:12Z</time>
      </trkpt>
      <trkpt lat="47.83" lon="7.01035">
        <ele>1029.6</ele>
        <time>2021-08-09T10:24:13Z</time>
      </trkpt>
      <trkpt lat="47.82998" lon="7.01032">
        <ele>1029.8</ele>
        <time>2021-08-09T10:24:14Z</time>
      </trkpt>
      <trkpt lat="47.82995" lon="7.01027">
        <ele>1030</ele>
        <time>2021-08-09T10:24:16Z</time>
      </trkpt>
      <trkpt lat="47.82993" lon="7.01024">
        <ele>1030.2</ele>
        <time>2021-08-09T10:24:17Z</time>
      </trkpt>
      <trkpt lat="47.8299" lon="7.01021">
        <ele>1030.4</ele>
        <time>2021-08-09T10:24:18Z</time>
      </trkpt>
      <trkpt lat="47.82989" lon="7.01019">
        <ele>1030.4</ele>
        <time>2021-08-09T10:24:19Z</time>
      </trkpt>
      <trkpt lat="47.82987" lon="7.01016">
        <ele>1030.6</ele>
        <time>2021-08-09T10:24:20Z</time>
      </trkpt>
      <trkpt lat="47.82985" lon="7.01015">
        <ele>1030.7</ele>
        <time>2021-08-09T10:24:21Z</time>
      </trkpt>
      <trkpt lat="47.82982" lon="7.01011">
        <ele>1030.9</ele>
        <time>2021-08-09T10:24:22Z</time>
      </trkpt>
      <trkpt lat="47.8298" lon="7.01009">
        <ele>1031</ele>
        <time>2021-08-09T10:24:23Z</time>
      </trkpt>
      <trkpt lat="47.82978" lon="7.01008">
        <ele>1031.1</ele>
        <time>2021-08-09T10:24:25Z</time>
      </trkpt>
      <trkpt lat="47.82974" lon="7.01004">
        <ele>1031.3</ele>
        <time>2021-08-09T10:24:26Z</time>
      </trkpt>
      <trkpt lat="47.82973" lon="7.01003">
        <ele>1031.3</ele>
        <time>2021-08-09T10:24:27Z</time>
      </trkpt>
      <trkpt lat="47.8297" lon="7.01">
        <ele>1031.5</ele>
        <time>2021-08-09T10:24:28Z</time>
      </trkpt>
      <trkpt lat="47.82968" lon="7.00998">
        <ele>1031.6</ele>
        <time>2021-08-09T10:24:30Z</time>
      </trkpt>
      <trkpt lat="47.82965" lon="7.00994">
        <ele>1031.7</ele>
        <time>2021-08-09T10:24:31Z</time>
      </trkpt>
      <trkpt lat="47.82964" lon="7.00993">
        <ele>1031.7</ele>
        <time>2021-08-09T10:24:32Z</time>
      </trkpt>
      <trkpt lat="47.82962" lon="7.00991">
        <ele>1031.8</ele>
        <time>2021-08-09T10:24:34Z</time>
      </trkpt>
      <trkpt lat="47.8296" lon="7.00988">
        <ele>1031.9</ele>
        <time>2021-08-09T10:24:35Z</time>
      </trkpt>
      <trkpt lat="47.82959" lon="7.00987">
        <ele>1031.9</ele>
        <time>2021-08-09T10:24:36Z</time>
      </trkpt>
      <trkpt lat="47.82957" lon="7.00982">
        <ele>1032.1</ele>
        <time>2021-08-09T10:24:37Z</time>
      </trkpt>
      <trkpt lat="47.82956" lon="7.00979">
        <ele>1032.1</ele>
        <time>2021-08-09T10:24:38Z</time>
      </trkpt>
      <trkpt lat="47.82953" lon="7.00976">
        <ele>1032.2</ele>
        <time>2021-08-09T10:24:40Z</time>
      </trkpt>
      <trkpt lat="47.82953" lon="7.00975">
        <ele>1032.2</ele>
        <time>2021-08-09T10:24:41Z</time>
      </trkpt>
      <trkpt lat="47.8295" lon="7.00972">
        <ele>1032.3</ele>
        <time>2021-08-09T10:24:42Z</time>
      </trkpt>
      <trkpt lat="47.82949" lon="7.00971">
        <ele>1032.4</ele>
        <time>2021-08-09T10:24:43Z</time>
      </trkpt>
      <trkpt lat="47.82947" lon="7.00969">
        <ele>1032.5</ele>
        <time>2021-08-09T10:24:44Z</time>
      </trkpt>
      <trkpt lat="47.82943" lon="7.00966">
        <ele>1032.5</ele>
        <time>2021-08-09T10:24:45Z</time>
      </trkpt>
      <trkpt lat="47.82939" lon="7.00964">
        <ele>1032.7</ele>
        <time>2021-08-09T10:24:46Z</time>
      </trkpt>
      <trkpt lat="47.82936" lon="7.00963">
        <ele>1032.7</ele>
        <time>2021-08-09T10:24:47Z</time>
      </trkpt>
      <trkpt lat="47.82933" lon="7.00962">
        <ele>1032.8</ele>
        <time>2021-08-09T10:24:48Z</time>
      </trkpt>
      <trkpt lat="47.8293" lon="7.00962">
        <ele>1032.9</ele>
        <time>2021-08-09T10:24:49Z</time>
      </trkpt>
      <trkpt lat="47.82927" lon="7.00962">
        <ele>1033</ele>
        <time>2021-08-09T10:24:50Z</time>
      </trkpt>
      <trkpt lat="47.82924" lon="7.00962">
        <ele>1033</ele>
        <time>2021-08-09T10:24:51Z</time>
      </trkpt>
      <trkpt lat="47.82921" lon="7.00962">
        <ele>1033.1</ele>
        <time>2021-08-09T10:24:52Z</time>
      </trkpt>
      <trkpt lat="47.82918" lon="7.00963">
        <ele>1033.2</ele>
        <time>2021-08-09T10:24:53Z</time>
      </trkpt>
      <trkpt lat="47.82913" lon="7.00965">
        <ele>1033.4</ele>
        <time>2021-08-09T10:24:55Z</time>
      </trkpt>
      <trkpt lat="47.82912" lon="7.00966">
        <ele>1033.4</ele>
        <time>2021-08-09T10:24:56Z</time>
      </trkpt>
      <trkpt lat="47.8291" lon="7.00966">
        <ele>1033.5</ele>
        <time>2021-08-09T10:24:57Z</time>
      </trkpt>
      <trkpt lat="47.82905" lon="7.00969">
        <ele>1033.6</ele>
        <time>2021-08-09T10:24:59Z</time>
      </trkpt>
      <trkpt lat="47.829" lon="7.00971">
        <ele>1033.8</ele>
        <time>2021-08-09T10:25:00Z</time>
      </trkpt>
      <trkpt lat="47.82896" lon="7.00973">
        <ele>1033.9</ele>
        <time>2021-08-09T10:25:02Z</time>
      </trkpt>
      <trkpt lat="47.82891" lon="7.00975">
        <ele>1034.1</ele>
        <time>2021-08-09T10:25:03Z</time>
      </trkpt>
      <trkpt lat="47.82887" lon="7.00975">
        <ele>1034.2</ele>
        <time>2021-08-09T10:25:04Z</time>
      </trkpt>
      <trkpt lat="47.82882" lon="7.00975">
        <ele>1034.4</ele>
        <time>2021-08-09T10:25:06Z</time>
      </trkpt>
      <trkpt lat="47.82879" lon="7.00974">
        <ele>1034.6</ele>
        <time>2021-08-09T10:25:07Z</time>
      </trkpt>
      <trkpt lat="47.82875" lon="7.00974">
        <ele>1034.7</ele>
        <time>2021-08-09T10:25:08Z</time>
      </trkpt>
      <trkpt lat="47.82873" lon="7.00975">
        <ele>1034.8</ele>
        <time>2021-08-09T10:25:09Z</time>
      </trkpt>
      <trkpt lat="47.82872" lon="7.00977">
        <ele>1034.9</ele>
        <time>2021-08-09T10:25:11Z</time>
      </trkpt>
      <trkpt lat="47.8287" lon="7.0098">
        <ele>1035</ele>
        <time>2021-08-09T10:25:12Z</time>
      </trkpt>
      <trkpt lat="47.82868" lon="7.00983">
        <ele>1035.1</ele>
        <time>2021-08-09T10:25:13Z</time>
      </trkpt>
      <trkpt lat="47.82867" lon="7.00984">
        <ele>1035.2</ele>
        <time>2021-08-09T10:25:14Z</time>
      </trkpt>
      <trkpt lat="47.82864" lon="7.00984">
        <ele>1035.3</ele>
        <time>2021-08-09T10:25:15Z</time>
      </trkpt>
      <trkpt lat="47.82863" lon="7.00984">
        <ele>1035.3</ele>
        <time>2021-08-09T10:25:16Z</time>
      </trkpt>
      <trkpt lat="47.82859" lon="7.00982">
        <ele>1035.4</ele>
        <time>2021-08-09T10:25:18Z</time>
      </trkpt>
      <trkpt lat="47.82857" lon="7.00982">
        <ele>1035.4</ele>
        <time>2021-08-09T10:25:19Z</time>
      </trkpt>
      <trkpt lat="47.82853" lon="7.0098">
        <ele>1035.5</ele>
        <time>2021-08-09T10:25:20Z</time>
      </trkpt>
      <trkpt lat="47.8285" lon="7.00979">
        <ele>1035.5</ele>
        <time>2021-08-09T10:25:21Z</time>
      </trkpt>
      <trkpt lat="47.82847" lon="7.00979">
        <ele>1035.6</ele>
        <time>2021-08-09T10:25:23Z</time>
      </trkpt>
      <trkpt lat="47.8284" lon="7.00982">
        <ele>1035.7</ele>
        <time>2021-08-09T10:25:25Z</time>
      </trkpt>
      <trkpt lat="47.82835" lon="7.00987">
        <ele>1035.8</ele>
        <time>2021-08-09T10:25:27Z</time>
      </trkpt>
      <trkpt lat="47.82832" lon="7.00991">
        <ele>1035.9</ele>
        <time>2021-08-09T10:25:28Z</time>
      </trkpt>
      <trkpt lat="47.82829" lon="7.00995">
        <ele>1035.9</ele>
        <time>2021-08-09T10:25:29Z</time>
      </trkpt>
      <trkpt lat="47.82824" lon="7.01004">
        <ele>1036</ele>
        <time>2021-08-09T10:25:30Z</time>
      </trkpt>
      <trkpt lat="47.82821" lon="7.0101">
        <ele>1036</ele>
        <time>2021-08-09T10:25:32Z</time>
      </trkpt>
      <trkpt lat="47.82816" lon="7.01018">
        <ele>1036.1</ele>
        <time>2021-08-09T10:25:33Z</time>
      </trkpt>
      <trkpt lat="47.82812" lon="7.01024">
        <ele>1036.2</ele>
        <time>2021-08-09T10:25:34Z</time>
      </trkpt>
      <trkpt lat="47.82809" lon="7.01029">
        <ele>1036.2</ele>
        <time>2021-08-09T10:25:36Z</time>
      </trkpt>
      <trkpt lat="47.82804" lon="7.01035">
        <ele>1036.3</ele>
        <time>2021-08-09T10:25:37Z</time>
      </trkpt>
      <trkpt lat="47.82799" lon="7.0104">
        <ele>1036.4</ele>
        <time>2021-08-09T10:25:38Z</time>
      </trkpt>
      <trkpt lat="47.82795" lon="7.01046">
        <ele>1036.4</ele>
        <time>2021-08-09T10:25:40Z</time>
      </trkpt>
      <trkpt lat="47.82791" lon="7.01055">
        <ele>1036.5</ele>
        <time>2021-08-09T10:25:41Z</time>
      </trkpt>
      <trkpt lat="47.82788" lon="7.01061">
        <ele>1036.5</ele>
        <time>2021-08-09T10:25:43Z</time>
      </trkpt>
      <trkpt lat="47.82783" lon="7.01068">
        <ele>1036.6</ele>
        <time>2021-08-09T10:25:44Z</time>
      </trkpt>
      <trkpt lat="47.82781" lon="7.01074">
        <ele>1036.7</ele>
        <time>2021-08-09T10:25:45Z</time>
      </trkpt>
      <trkpt lat="47.82779" lon="7.01081">
        <ele>1036.7</ele>
        <time>2021-08-09T10:25:47Z</time>
      </trkpt>
      <trkpt lat="47.82777" lon="7.01087">
        <ele>1036.8</ele>
        <time>2021-08-09T10:25:48Z</time>
      </trkpt>
      <trkpt lat="47.82774" lon="7.01097">
        <ele>1036.8</ele>
        <time>2021-08-09T10:25:49Z</time>
      </trkpt>
      <trkpt lat="47.82774" lon="7.01105">
        <ele>1036.9</ele>
        <time>2021-08-09T10:25:51Z</time>
      </trkpt>
      <trkpt lat="47.82774" lon="7.01113">
        <ele>1036.9</ele>
        <time>2021-08-09T10:25:52Z</time>
      </trkpt>
      <trkpt lat="47.82773" lon="7.0112">
        <ele>1036.9</ele>
        <time>2021-08-09T10:25:54Z</time>
      </trkpt>
      <trkpt lat="47.82773" lon="7.01124">
        <ele>1037</ele>
        <time>2021-08-09T10:25:55Z</time>
      </trkpt>
      <trkpt lat="47.82771" lon="7.01129">
        <ele>1037</ele>
        <time>2021-08-09T10:25:56Z</time>
      </trkpt>
      <trkpt lat="47.82767" lon="7.01136">
        <ele>1037</ele>
        <time>2021-08-09T10:25:57Z</time>
      </trkpt>
      <trkpt lat="47.82764" lon="7.01139">
        <ele>1037.1</ele>
        <time>2021-08-09T10:25:59Z</time>
      </trkpt>
      <trkpt lat="47.8276" lon="7.01145">
        <ele>1037.1</ele>
        <time>2021-08-09T10:26:00Z</time>
      </trkpt>
      <trkpt lat="47.82758" lon="7.0115">
        <ele>1037.2</ele>
        <time>2021-08-09T10:26:02Z</time>
      </trkpt>
      <trkpt lat="47.82756" lon="7.01159">
        <ele>1037.3</ele>
        <time>2021-08-09T10:26:04Z</time>
      </trkpt>
      <trkpt lat="47.82755" lon="7.01163">
        <ele>1037.4</ele>
        <time>2021-08-09T10:26:05Z</time>
      </trkpt>
      <trkpt lat="47.82754" lon="7.01167">
        <ele>1037.5</ele>
        <time>2021-08-09T10:26:06Z</time>
      </trkpt>
      <trkpt lat="47.82752" lon="7.01172">
        <ele>1037.6</ele>
        <time>2021-08-09T10:26:07Z</time>
      </trkpt>
      <trkpt lat="47.8275" lon="7.01176">
        <ele>1037.7</ele>
        <time>2021-08-09T10:26:08Z</time>
      </trkpt>
      <trkpt lat="47.82749" lon="7.0118">
        <ele>1037.8</ele>
        <time>2021-08-09T10:26:10Z</time>
      </trkpt>
      <trkpt lat="47.82748" lon="7.01186">
        <ele>1037.9</ele>
        <time>2021-08-09T10:26:11Z</time>
      </trkpt>
      <trkpt lat="47.82746" lon="7.01188">
        <ele>1037.9</ele>
        <time>2021-08-09T10:26:12Z</time>
      </trkpt>
      <trkpt lat="47.82744" lon="7.01193">
        <ele>1038</ele>
        <time>2021-08-09T10:26:14Z</time>
      </trkpt>
      <trkpt lat="47.82742" lon="7.012">
        <ele>1038.2</ele>
        <time>2021-08-09T10:26:15Z</time>
      </trkpt>
      <trkpt lat="47.82741" lon="7.01204">
        <ele>1038.3</ele>
        <time>2021-08-09T10:26:16Z</time>
      </trkpt>
      <trkpt lat="47.8274" lon="7.01211">
        <ele>1038.4</ele>
        <time>2021-08-09T10:26:18Z</time>
      </trkpt>
      <trkpt lat="47.82737" lon="7.0122">
        <ele>1038.6</ele>
        <time>2021-08-09T10:26:20Z</time>
      </trkpt>
      <trkpt lat="47.8274" lon="7.01226">
        <ele>1038.7</ele>
        <time>2021-08-09T10:26:22Z</time>
      </trkpt>
      <trkpt lat="47.82738" lon="7.01233">
        <ele>1038.8</ele>
        <time>2021-08-09T10:26:23Z</time>
      </trkpt>
      <trkpt lat="47.82737" lon="7.01236">
        <ele>1038.8</ele>
        <time>2021-08-09T10:26:24Z</time>
      </trkpt>
      <trkpt lat="47.82735" lon="7.01242">
        <ele>1038.9</ele>
        <time>2021-08-09T10:26:25Z</time>
      </trkpt>
      <trkpt lat="47.82732" lon="7.01251">
        <ele>1039</ele>
        <time>2021-08-09T10:26:26Z</time>
      </trkpt>
      <trkpt lat="47.8273" lon="7.01256">
        <ele>1039.1</ele>
        <time>2021-08-09T10:26:27Z</time>
      </trkpt>
      <trkpt lat="47.82728" lon="7.01261">
        <ele>1039.1</ele>
        <time>2021-08-09T10:26:29Z</time>
      </trkpt>
      <trkpt lat="47.82726" lon="7.01265">
        <ele>1039.2</ele>
        <time>2021-08-09T10:26:30Z</time>
      </trkpt>
      <trkpt lat="47.82723" lon="7.01272">
        <ele>1039.3</ele>
        <time>2021-08-09T10:26:32Z</time>
      </trkpt>
      <trkpt lat="47.82719" lon="7.01278">
        <ele>1039.4</ele>
        <time>2021-08-09T10:26:34Z</time>
      </trkpt>
      <trkpt lat="47.82718" lon="7.01282">
        <ele>1039.4</ele>
        <time>2021-08-09T10:26:35Z</time>
      </trkpt>
      <trkpt lat="47.82715" lon="7.01287">
        <ele>1039.5</ele>
        <time>2021-08-09T10:26:37Z</time>
      </trkpt>
      <trkpt lat="47.82713" lon="7.0129">
        <ele>1039.6</ele>
        <time>2021-08-09T10:26:38Z</time>
      </trkpt>
      <trkpt lat="47.82712" lon="7.01291">
        <ele>1039.6</ele>
        <time>2021-08-09T10:26:39Z</time>
      </trkpt>
      <trkpt lat="47.8271" lon="7.01295">
        <ele>1039.7</ele>
        <time>2021-08-09T10:26:40Z</time>
      </trkpt>
      <trkpt lat="47.8271" lon="7.01297">
        <ele>1039.8</ele>
        <time>2021-08-09T10:26:41Z</time>
      </trkpt>
      <trkpt lat="47.82709" lon="7.013">
        <ele>1039.8</ele>
        <time>2021-08-09T10:26:42Z</time>
      </trkpt>
      <trkpt lat="47.82708" lon="7.01302">
        <ele>1039.9</ele>
        <time>2021-08-09T10:26:44Z</time>
      </trkpt>
      <trkpt lat="47.82706" lon="7.01305">
        <ele>1040</ele>
        <time>2021-08-09T10:26:45Z</time>
      </trkpt>
      <trkpt lat="47.82704" lon="7.01306">
        <ele>1040.1</ele>
        <time>2021-08-09T10:26:47Z</time>
      </trkpt>
      <trkpt lat="47.82703" lon="7.01307">
        <ele>1040.1</ele>
        <time>2021-08-09T10:26:48Z</time>
      </trkpt>
      <trkpt lat="47.82701" lon="7.01308">
        <ele>1040.2</ele>
        <time>2021-08-09T10:26:50Z</time>
      </trkpt>
      <trkpt lat="47.827" lon="7.01307">
        <ele>1040.2</ele>
        <time>2021-08-09T10:26:52Z</time>
      </trkpt>
      <trkpt lat="47.82701" lon="7.01306">
        <ele>1040.3</ele>
        <time>2021-08-09T10:26:53Z</time>
      </trkpt>
      <trkpt lat="47.82701" lon="7.01306">
        <ele>1040.3</ele>
        <time>2021-08-09T10:26:54Z</time>
      </trkpt>
      <trkpt lat="47.82702" lon="7.01307">
        <ele>1040.3</ele>
        <time>2021-08-09T10:26:56Z</time>
      </trkpt>
      <trkpt lat="47.82703" lon="7.01308">
        <ele>1040.4</ele>
        <time>2021-08-09T10:26:57Z</time>
      </trkpt>
      <trkpt lat="47.82704" lon="7.01308">
        <ele>1040.5</ele>
        <time>2021-08-09T10:26:58Z</time>
      </trkpt>
      <trkpt lat="47.82705" lon="7.01306">
        <ele>1040.5</ele>
        <time>2021-08-09T10:27:01Z</time>
      </trkpt>
      <trkpt lat="47.82706" lon="7.01306">
        <ele>1040.5</ele>
        <time>2021-08-09T10:27:02Z</time>
      </trkpt>
      <trkpt lat="47.82706" lon="7.01304">
        <ele>1040.6</ele>
        <time>2021-08-09T10:27:03Z</time>
      </trkpt>
      <trkpt lat="47.82707" lon="7.01304">
        <ele>1040.6</ele>
        <time>2021-08-09T10:27:05Z</time>
      </trkpt>
      <trkpt lat="47.82707" lon="7.01303">
        <ele>1040.6</ele>
        <time>2021-08-09T10:27:06Z</time>
      </trkpt>
      <trkpt lat="47.82707" lon="7.01303">
        <ele>1040.6</ele>
        <time>2021-08-09T10:27:07Z</time>
      </trkpt>
      <trkpt lat="47.82697" lon="7.01287">
        <ele>1041</ele>
        <time>2021-08-09T10:27:52Z</time>
      </trkpt>
      <trkpt lat="47.82694" lon="7.01292">
        <ele>1041</ele>
        <time>2021-08-09T10:27:54Z</time>
      </trkpt>
      <trkpt lat="47.82694" lon="7.01295">
        <ele>1041.1</ele>
        <time>2021-08-09T10:27:55Z</time>
      </trkpt>
      <trkpt lat="47.82694" lon="7.01299">
        <ele>1041.1</ele>
        <time>2021-08-09T10:27:57Z</time>
      </trkpt>
      <trkpt lat="47.82695" lon="7.01302">
        <ele>1041.2</ele>
        <time>2021-08-09T10:27:58Z</time>
      </trkpt>
      <trkpt lat="47.82695" lon="7.01304">
        <ele>1041.2</ele>
        <time>2021-08-09T10:28:00Z</time>
      </trkpt>
      <trkpt lat="47.82696" lon="7.01305">
        <ele>1041.2</ele>
        <time>2021-08-09T10:28:02Z</time>
      </trkpt>
      <trkpt lat="47.82696" lon="7.01306">
        <ele>1041.2</ele>
        <time>2021-08-09T10:28:04Z</time>
      </trkpt>
      <trkpt lat="47.82694" lon="7.01308">
        <ele>1041.3</ele>
        <time>2021-08-09T10:28:06Z</time>
      </trkpt>
      <trkpt lat="47.82692" lon="7.01309">
        <ele>1041.3</ele>
        <time>2021-08-09T10:28:08Z</time>
      </trkpt>
      <trkpt lat="47.82684" lon="7.01312">
        <ele>1041.5</ele>
        <time>2021-08-09T10:28:15Z</time>
      </trkpt>
      <trkpt lat="47.82682" lon="7.01312">
        <ele>1041.6</ele>
        <time>2021-08-09T10:28:16Z</time>
      </trkpt>
      <trkpt lat="47.82681" lon="7.01312">
        <ele>1041.6</ele>
        <time>2021-08-09T10:28:18Z</time>
      </trkpt>
      <trkpt lat="47.82679" lon="7.01311">
        <ele>1041.6</ele>
        <time>2021-08-09T10:28:19Z</time>
      </trkpt>
      <trkpt lat="47.82678" lon="7.0131">
        <ele>1041.6</ele>
        <time>2021-08-09T10:28:20Z</time>
      </trkpt>
      <trkpt lat="47.82676" lon="7.01308">
        <ele>1041.7</ele>
        <time>2021-08-09T10:28:21Z</time>
      </trkpt>
      <trkpt lat="47.82675" lon="7.01307">
        <ele>1041.7</ele>
        <time>2021-08-09T10:28:22Z</time>
      </trkpt>
      <trkpt lat="47.82674" lon="7.01305">
        <ele>1041.8</ele>
        <time>2021-08-09T10:28:24Z</time>
      </trkpt>
      <trkpt lat="47.82673" lon="7.01303">
        <ele>1041.8</ele>
        <time>2021-08-09T10:28:25Z</time>
      </trkpt>
      <trkpt lat="47.82672" lon="7.01301">
        <ele>1041.8</ele>
        <time>2021-08-09T10:28:26Z</time>
      </trkpt>
      <trkpt lat="47.82645" lon="7.01296">
        <ele>1042.3</ele>
        <time>2021-08-09T10:28:48Z</time>
      </trkpt>
      <trkpt lat="47.82642" lon="7.01298">
        <ele>1042.3</ele>
        <time>2021-08-09T10:28:50Z</time>
      </trkpt>
      <trkpt lat="47.82638" lon="7.013">
        <ele>1042.4</ele>
        <time>2021-08-09T10:28:51Z</time>
      </trkpt>
      <trkpt lat="47.82632" lon="7.01304">
        <ele>1042.4</ele>
        <time>2021-08-09T10:28:53Z</time>
      </trkpt>
      <trkpt lat="47.82627" lon="7.01307">
        <ele>1042.5</ele>
        <time>2021-08-09T10:28:54Z</time>
      </trkpt>
      <trkpt lat="47.82622" lon="7.01309">
        <ele>1042.6</ele>
        <time>2021-08-09T10:28:55Z</time>
      </trkpt>
      <trkpt lat="47.82616" lon="7.0131">
        <ele>1042.7</ele>
        <time>2021-08-09T10:28:56Z</time>
      </trkpt>
      <trkpt lat="47.82608" lon="7.0131">
        <ele>1042.9</ele>
        <time>2021-08-09T10:28:58Z</time>
      </trkpt>
      <trkpt lat="47.82603" lon="7.0131">
        <ele>1043</ele>
        <time>2021-08-09T10:28:59Z</time>
      </trkpt>
      <trkpt lat="47.82599" lon="7.0131">
        <ele>1043.1</ele>
        <time>2021-08-09T10:29:00Z</time>
      </trkpt>
      <trkpt lat="47.82592" lon="7.01311">
        <ele>1043.3</ele>
        <time>2021-08-09T10:29:02Z</time>
      </trkpt>
      <trkpt lat="47.82584" lon="7.01312">
        <ele>1043.5</ele>
        <time>2021-08-09T10:29:03Z</time>
      </trkpt>
      <trkpt lat="47.82578" lon="7.01312">
        <ele>1043.7</ele>
        <time>2021-08-09T10:29:04Z</time>
      </trkpt>
      <trkpt lat="47.82573" lon="7.01312">
        <ele>1043.8</ele>
        <time>2021-08-09T10:29:05Z</time>
      </trkpt>
      <trkpt lat="47.82565" lon="7.01314">
        <ele>1043.9</ele>
        <time>2021-08-09T10:29:07Z</time>
      </trkpt>
      <trkpt lat="47.82558" lon="7.01316">
        <ele>1044.1</ele>
        <time>2021-08-09T10:29:09Z</time>
      </trkpt>
      <trkpt lat="47.82554" lon="7.01316">
        <ele>1044.1</ele>
        <time>2021-08-09T10:29:10Z</time>
      </trkpt>
      <trkpt lat="47.8255" lon="7.01317">
        <ele>1044.2</ele>
        <time>2021-08-09T10:29:11Z</time>
      </trkpt>
      <trkpt lat="47.82546" lon="7.01318">
        <ele>1044.3</ele>
        <time>2021-08-09T10:29:12Z</time>
      </trkpt>
      <trkpt lat="47.82543" lon="7.01319">
        <ele>1044.3</ele>
        <time>2021-08-09T10:29:13Z</time>
      </trkpt>
      <trkpt lat="47.82538" lon="7.01322">
        <ele>1044.4</ele>
        <time>2021-08-09T10:29:15Z</time>
      </trkpt>
      <trkpt lat="47.82536" lon="7.01325">
        <ele>1044.5</ele>
        <time>2021-08-09T10:29:16Z</time>
      </trkpt>
      <trkpt lat="47.82533" lon="7.01329">
        <ele>1044.5</ele>
        <time>2021-08-09T10:29:17Z</time>
      </trkpt>
      <trkpt lat="47.82531" lon="7.01332">
        <ele>1044.6</ele>
        <time>2021-08-09T10:29:18Z</time>
      </trkpt>
      <trkpt lat="47.82527" lon="7.01335">
        <ele>1044.7</ele>
        <time>2021-08-09T10:29:20Z</time>
      </trkpt>
      <trkpt lat="47.82525" lon="7.01339">
        <ele>1044.8</ele>
        <time>2021-08-09T10:29:21Z</time>
      </trkpt>
      <trkpt lat="47.82524" lon="7.01344">
        <ele>1044.9</ele>
        <time>2021-08-09T10:29:22Z</time>
      </trkpt>
      <trkpt lat="47.82523" lon="7.01349">
        <ele>1045</ele>
        <time>2021-08-09T10:29:23Z</time>
      </trkpt>
      <trkpt lat="47.82522" lon="7.01353">
        <ele>1045.1</ele>
        <time>2021-08-09T10:29:24Z</time>
      </trkpt>
      <trkpt lat="47.82522" lon="7.01359">
        <ele>1045.2</ele>
        <time>2021-08-09T10:29:25Z</time>
      </trkpt>
      <trkpt lat="47.82523" lon="7.01364">
        <ele>1045.3</ele>
        <time>2021-08-09T10:29:27Z</time>
      </trkpt>
      <trkpt lat="47.82523" lon="7.01367">
        <ele>1045.3</ele>
        <time>2021-08-09T10:29:28Z</time>
      </trkpt>
      <trkpt lat="47.82522" lon="7.01373">
        <ele>1045.4</ele>
        <time>2021-08-09T10:29:30Z</time>
      </trkpt>
      <trkpt lat="47.8252" lon="7.01378">
        <ele>1045.5</ele>
        <time>2021-08-09T10:29:31Z</time>
      </trkpt>
      <trkpt lat="47.82519" lon="7.01382">
        <ele>1045.5</ele>
        <time>2021-08-09T10:29:32Z</time>
      </trkpt>
      <trkpt lat="47.82516" lon="7.01391">
        <ele>1045.6</ele>
        <time>2021-08-09T10:29:34Z</time>
      </trkpt>
      <trkpt lat="47.82515" lon="7.01395">
        <ele>1045.7</ele>
        <time>2021-08-09T10:29:35Z</time>
      </trkpt>
      <trkpt lat="47.82512" lon="7.01403">
        <ele>1045.8</ele>
        <time>2021-08-09T10:29:37Z</time>
      </trkpt>
      <trkpt lat="47.82511" lon="7.01408">
        <ele>1045.9</ele>
        <time>2021-08-09T10:29:38Z</time>
      </trkpt>
      <trkpt lat="47.8251" lon="7.01414">
        <ele>1046</ele>
        <time>2021-08-09T10:29:39Z</time>
      </trkpt>
      <trkpt lat="47.82509" lon="7.0142">
        <ele>1046.1</ele>
        <time>2021-08-09T10:29:41Z</time>
      </trkpt>
      <trkpt lat="47.82508" lon="7.01423">
        <ele>1046.1</ele>
        <time>2021-08-09T10:29:42Z</time>
      </trkpt>
      <trkpt lat="47.82508" lon="7.01425">
        <ele>1046.1</ele>
        <time>2021-08-09T10:29:43Z</time>
      </trkpt>
      <trkpt lat="47.82509" lon="7.01432">
        <ele>1046.2</ele>
        <time>2021-08-09T10:29:45Z</time>
      </trkpt>
      <trkpt lat="47.82509" lon="7.01437">
        <ele>1046.3</ele>
        <time>2021-08-09T10:29:46Z</time>
      </trkpt>
      <trkpt lat="47.82509" lon="7.01438">
        <ele>1046.3</ele>
        <time>2021-08-09T10:29:47Z</time>
      </trkpt>
      <trkpt lat="47.8251" lon="7.01445">
        <ele>1046.4</ele>
        <time>2021-08-09T10:29:49Z</time>
      </trkpt>
      <trkpt lat="47.8251" lon="7.01448">
        <ele>1046.5</ele>
        <time>2021-08-09T10:29:50Z</time>
      </trkpt>
      <trkpt lat="47.82509" lon="7.01454">
        <ele>1046.7</ele>
        <time>2021-08-09T10:29:52Z</time>
      </trkpt>
      <trkpt lat="47.82509" lon="7.01459">
        <ele>1046.8</ele>
        <time>2021-08-09T10:29:54Z</time>
      </trkpt>
      <trkpt lat="47.82508" lon="7.01463">
        <ele>1046.9</ele>
        <time>2021-08-09T10:29:55Z</time>
      </trkpt>
      <trkpt lat="47.82507" lon="7.01465">
        <ele>1046.9</ele>
        <time>2021-08-09T10:29:56Z</time>
      </trkpt>
      <trkpt lat="47.82505" lon="7.01471">
        <ele>1047.2</ele>
        <time>2021-08-09T10:29:58Z</time>
      </trkpt>
      <trkpt lat="47.82505" lon="7.01473">
        <ele>1047.3</ele>
        <time>2021-08-09T10:29:59Z</time>
      </trkpt>
      <trkpt lat="47.82504" lon="7.01475">
        <ele>1047.4</ele>
        <time>2021-08-09T10:30:01Z</time>
      </trkpt>
      <trkpt lat="47.82503" lon="7.01477">
        <ele>1047.5</ele>
        <time>2021-08-09T10:30:02Z</time>
      </trkpt>
      <trkpt lat="47.82502" lon="7.01479">
        <ele>1047.6</ele>
        <time>2021-08-09T10:30:03Z</time>
      </trkpt>
      <trkpt lat="47.82501" lon="7.01483">
        <ele>1047.8</ele>
        <time>2021-08-09T10:30:05Z</time>
      </trkpt>
      <trkpt lat="47.825" lon="7.01485">
        <ele>1047.9</ele>
        <time>2021-08-09T10:30:06Z</time>
      </trkpt>
      <trkpt lat="47.82499" lon="7.01492">
        <ele>1048.2</ele>
        <time>2021-08-09T10:30:08Z</time>
      </trkpt>
      <trkpt lat="47.82499" lon="7.01495">
        <ele>1048.4</ele>
        <time>2021-08-09T10:30:10Z</time>
      </trkpt>
      <trkpt lat="47.82498" lon="7.01498">
        <ele>1048.5</ele>
        <time>2021-08-09T10:30:11Z</time>
      </trkpt>
      <trkpt lat="47.82498" lon="7.01501">
        <ele>1048.6</ele>
        <time>2021-08-09T10:30:12Z</time>
      </trkpt>
      <trkpt lat="47.82497" lon="7.01504">
        <ele>1048.8</ele>
        <time>2021-08-09T10:30:13Z</time>
      </trkpt>
      <trkpt lat="47.82497" lon="7.01507">
        <ele>1048.9</ele>
        <time>2021-08-09T10:30:15Z</time>
      </trkpt>
      <trkpt lat="47.82496" lon="7.01511">
        <ele>1049.2</ele>
        <time>2021-08-09T10:30:16Z</time>
      </trkpt>
      <trkpt lat="47.82495" lon="7.01512">
        <ele>1049.2</ele>
        <time>2021-08-09T10:30:17Z</time>
      </trkpt>
      <trkpt lat="47.82495" lon="7.01514">
        <ele>1049.3</ele>
        <time>2021-08-09T10:30:18Z</time>
      </trkpt>
      <trkpt lat="47.82494" lon="7.01516">
        <ele>1049.4</ele>
        <time>2021-08-09T10:30:19Z</time>
      </trkpt>
      <trkpt lat="47.82495" lon="7.01516">
        <ele>1049.5</ele>
        <time>2021-08-09T10:30:20Z</time>
      </trkpt>
      <trkpt lat="47.82494" lon="7.01515">
        <ele>1049.6</ele>
        <time>2021-08-09T10:30:22Z</time>
      </trkpt>
      <trkpt lat="47.82494" lon="7.01516">
        <ele>1049.6</ele>
        <time>2021-08-09T10:30:23Z</time>
      </trkpt>
      <trkpt lat="47.82494" lon="7.01517">
        <ele>1049.7</ele>
        <time>2021-08-09T10:30:24Z</time>
      </trkpt>
      <trkpt lat="47.82495" lon="7.01519">
        <ele>1049.8</ele>
        <time>2021-08-09T10:30:26Z</time>
      </trkpt>
      <trkpt lat="47.82495" lon="7.01519">
        <ele>1049.8</ele>
        <time>2021-08-09T10:30:27Z</time>
      </trkpt>
      <trkpt lat="47.82494" lon="7.0152">
        <ele>1049.9</ele>
        <time>2021-08-09T10:30:28Z</time>
      </trkpt>
      <trkpt lat="47.82494" lon="7.01521">
        <ele>1049.9</ele>
        <time>2021-08-09T10:30:30Z</time>
      </trkpt>
      <trkpt lat="47.82494" lon="7.01522">
        <ele>1050</ele>
        <time>2021-08-09T10:30:31Z</time>
      </trkpt>
      <trkpt lat="47.82493" lon="7.01523">
        <ele>1050.1</ele>
        <time>2021-08-09T10:30:32Z</time>
      </trkpt>
      <trkpt lat="47.82492" lon="7.01526">
        <ele>1050.3</ele>
        <time>2021-08-09T10:30:35Z</time>
      </trkpt>
      <trkpt lat="47.82478" lon="7.01536">
        <ele>1052.8</ele>
        <time>2021-08-09T10:30:57Z</time>
      </trkpt>
      <trkpt lat="47.82477" lon="7.01536">
        <ele>1053</ele>
        <time>2021-08-09T10:30:59Z</time>
      </trkpt>
      <trkpt lat="47.82476" lon="7.01536">
        <ele>1053.1</ele>
        <time>2021-08-09T10:31:01Z</time>
      </trkpt>
      <trkpt lat="47.82475" lon="7.01536">
        <ele>1053.2</ele>
        <time>2021-08-09T10:31:02Z</time>
      </trkpt>
      <trkpt lat="47.82475" lon="7.01536">
        <ele>1053.3</ele>
        <time>2021-08-09T10:31:03Z</time>
      </trkpt>
      <trkpt lat="47.82474" lon="7.01536">
        <ele>1053.4</ele>
        <time>2021-08-09T10:31:05Z</time>
      </trkpt>
      <trkpt lat="47.82474" lon="7.01536">
        <ele>1053.5</ele>
        <time>2021-08-09T10:31:07Z</time>
      </trkpt>
      <trkpt lat="47.82474" lon="7.01536">
        <ele>1053.6</ele>
        <time>2021-08-09T10:31:08Z</time>
      </trkpt>
      <trkpt lat="47.82473" lon="7.01536">
        <ele>1053.7</ele>
        <time>2021-08-09T10:31:10Z</time>
      </trkpt>
      <trkpt lat="47.82473" lon="7.01537">
        <ele>1053.8</ele>
        <time>2021-08-09T10:31:11Z</time>
      </trkpt>
      <trkpt lat="47.82472" lon="7.01537">
        <ele>1053.9</ele>
        <time>2021-08-09T10:31:13Z</time>
      </trkpt>
      <trkpt lat="47.82472" lon="7.01537">
        <ele>1054</ele>
        <time>2021-08-09T10:31:14Z</time>
      </trkpt>
      <trkpt lat="47.82471" lon="7.01537">
        <ele>1054.1</ele>
        <time>2021-08-09T10:31:15Z</time>
      </trkpt>
      <trkpt lat="47.8247" lon="7.01538">
        <ele>1054.2</ele>
        <time>2021-08-09T10:31:16Z</time>
      </trkpt>
      <trkpt lat="47.8247" lon="7.01538">
        <ele>1054.2</ele>
        <time>2021-08-09T10:31:18Z</time>
      </trkpt>
      <trkpt lat="47.8247" lon="7.01538">
        <ele>1054.3</ele>
        <time>2021-08-09T10:31:19Z</time>
      </trkpt>
      <trkpt lat="47.82469" lon="7.01537">
        <ele>1054.5</ele>
        <time>2021-08-09T10:31:21Z</time>
      </trkpt>
      <trkpt lat="47.82468" lon="7.01537">
        <ele>1054.6</ele>
        <time>2021-08-09T10:31:23Z</time>
      </trkpt>
      <trkpt lat="47.82468" lon="7.01537">
        <ele>1054.6</ele>
        <time>2021-08-09T10:31:24Z</time>
      </trkpt>
      <trkpt lat="47.82468" lon="7.01536">
        <ele>1054.7</ele>
        <time>2021-08-09T10:31:25Z</time>
      </trkpt>
      <trkpt lat="47.82412" lon="7.01509">
        <ele>1068.7</ele>
        <time>2021-08-09T10:33:31Z</time>
      </trkpt>
      <trkpt lat="47.82411" lon="7.01509">
        <ele>1069</ele>
        <time>2021-08-09T10:33:33Z</time>
      </trkpt>
      <trkpt lat="47.8241" lon="7.01508">
        <ele>1069.3</ele>
        <time>2021-08-09T10:33:35Z</time>
      </trkpt>
      <trkpt lat="47.82409" lon="7.01508">
        <ele>1069.4</ele>
        <time>2021-08-09T10:33:36Z</time>
      </trkpt>
      <trkpt lat="47.82408" lon="7.01508">
        <ele>1069.7</ele>
        <time>2021-08-09T10:33:38Z</time>
      </trkpt>
      <trkpt lat="47.82408" lon="7.01507">
        <ele>1069.9</ele>
        <time>2021-08-09T10:33:39Z</time>
      </trkpt>
      <trkpt lat="47.82408" lon="7.01507">
        <ele>1069.9</ele>
        <time>2021-08-09T10:33:40Z</time>
      </trkpt>
      <trkpt lat="47.82408" lon="7.01506">
        <ele>1070</ele>
        <time>2021-08-09T10:33:42Z</time>
      </trkpt>
      <trkpt lat="47.82408" lon="7.01505">
        <ele>1070.3</ele>
        <time>2021-08-09T10:33:44Z</time>
      </trkpt>
      <trkpt lat="47.82408" lon="7.01505">
        <ele>1070.4</ele>
        <time>2021-08-09T10:33:46Z</time>
      </trkpt>
      <trkpt lat="47.82407" lon="7.01504">
        <ele>1070.4</ele>
        <time>2021-08-09T10:33:47Z</time>
      </trkpt>
      <trkpt lat="47.82407" lon="7.01504">
        <ele>1070.5</ele>
        <time>2021-08-09T10:33:48Z</time>
      </trkpt>
      <trkpt lat="47.82407" lon="7.01504">
        <ele>1070.6</ele>
        <time>2021-08-09T10:33:50Z</time>
      </trkpt>
      <trkpt lat="47.82407" lon="7.01503">
        <ele>1070.6</ele>
        <time>2021-08-09T10:33:51Z</time>
      </trkpt>
      <trkpt lat="47.82407" lon="7.01503">
        <ele>1070.7</ele>
        <time>2021-08-09T10:33:52Z</time>
      </trkpt>
      <trkpt lat="47.82407" lon="7.01503">
        <ele>1070.7</ele>
        <time>2021-08-09T10:33:53Z</time>
      </trkpt>
      <trkpt lat="47.82407" lon="7.01503">
        <ele>1070.7</ele>
        <time>2021-08-09T10:33:54Z</time>
      </trkpt>
      <trkpt lat="47.82399" lon="7.01505">
        <ele>1072.8</ele>
        <time>2021-08-09T10:34:12Z</time>
      </trkpt>
      <trkpt lat="47.82398" lon="7.01506">
        <ele>1073.2</ele>
        <time>2021-08-09T10:34:13Z</time>
      </trkpt>
      <trkpt lat="47.82397" lon="7.01506">
        <ele>1073.4</ele>
        <time>2021-08-09T10:34:15Z</time>
      </trkpt>
      <trkpt lat="47.82396" lon="7.01506">
        <ele>1073.6</ele>
        <time>2021-08-09T10:34:16Z</time>
      </trkpt>
      <trkpt lat="47.82395" lon="7.01507">
        <ele>1073.8</ele>
        <time>2021-08-09T10:34:17Z</time>
      </trkpt>
      <trkpt lat="47.82395" lon="7.01507">
        <ele>1074</ele>
        <time>2021-08-09T10:34:18Z</time>
      </trkpt>
      <trkpt lat="47.82394" lon="7.01508">
        <ele>1074.4</ele>
        <time>2021-08-09T10:34:20Z</time>
      </trkpt>
      <trkpt lat="47.82393" lon="7.01508">
        <ele>1074.6</ele>
        <time>2021-08-09T10:34:21Z</time>
      </trkpt>
      <trkpt lat="47.82391" lon="7.01509">
        <ele>1075.1</ele>
        <time>2021-08-09T10:34:23Z</time>
      </trkpt>
      <trkpt lat="47.82389" lon="7.01509">
        <ele>1075.5</ele>
        <time>2021-08-09T10:34:25Z</time>
      </trkpt>
      <trkpt lat="47.82388" lon="7.01509">
        <ele>1075.9</ele>
        <time>2021-08-09T10:34:26Z</time>
      </trkpt>
      <trkpt lat="47.82386" lon="7.01509">
        <ele>1076.4</ele>
        <time>2021-08-09T10:34:29Z</time>
      </trkpt>
      <trkpt lat="47.82385" lon="7.01509">
        <ele>1076.7</ele>
        <time>2021-08-09T10:34:30Z</time>
      </trkpt>
      <trkpt lat="47.82384" lon="7.01509">
        <ele>1076.9</ele>
        <time>2021-08-09T10:34:31Z</time>
      </trkpt>
      <trkpt lat="47.82384" lon="7.01509">
        <ele>1077</ele>
        <time>2021-08-09T10:34:32Z</time>
      </trkpt>
      <trkpt lat="47.82383" lon="7.01509">
        <ele>1077.2</ele>
        <time>2021-08-09T10:34:33Z</time>
      </trkpt>
      <trkpt lat="47.82382" lon="7.01509">
        <ele>1077.5</ele>
        <time>2021-08-09T10:34:35Z</time>
      </trkpt>
      <trkpt lat="47.82381" lon="7.01509">
        <ele>1077.7</ele>
        <time>2021-08-09T10:34:36Z</time>
      </trkpt>
      <trkpt lat="47.8238" lon="7.0151">
        <ele>1077.9</ele>
        <time>2021-08-09T10:34:38Z</time>
      </trkpt>
      <trkpt lat="47.8238" lon="7.0151">
        <ele>1078</ele>
        <time>2021-08-09T10:34:39Z</time>
      </trkpt>
      <trkpt lat="47.82379" lon="7.01511">
        <ele>1078.2</ele>
        <time>2021-08-09T10:34:41Z</time>
      </trkpt>
      <trkpt lat="47.82379" lon="7.01511">
        <ele>1078.3</ele>
        <time>2021-08-09T10:34:43Z</time>
      </trkpt>
      <trkpt lat="47.82379" lon="7.01511">
        <ele>1078.4</ele>
        <time>2021-08-09T10:34:44Z</time>
      </trkpt>
      <trkpt lat="47.82378" lon="7.01511">
        <ele>1078.4</ele>
        <time>2021-08-09T10:34:45Z</time>
      </trkpt>
      <trkpt lat="47.82378" lon="7.01512">
        <ele>1078.5</ele>
        <time>2021-08-09T10:34:47Z</time>
      </trkpt>
      <trkpt lat="47.82378" lon="7.01511">
        <ele>1078.5</ele>
        <time>2021-08-09T10:34:48Z</time>
      </trkpt>
      <trkpt lat="47.82378" lon="7.01511">
        <ele>1078.6</ele>
        <time>2021-08-09T10:34:49Z</time>
      </trkpt>
      <trkpt lat="47.82378" lon="7.01511">
        <ele>1078.6</ele>
        <time>2021-08-09T10:34:51Z</time>
      </trkpt>
      <trkpt lat="47.82377" lon="7.01511">
        <ele>1078.8</ele>
        <time>2021-08-09T10:34:53Z</time>
      </trkpt>
      <trkpt lat="47.82377" lon="7.01511">
        <ele>1078.8</ele>
        <time>2021-08-09T10:34:54Z</time>
      </trkpt>
      <trkpt lat="47.82377" lon="7.01511">
        <ele>1078.9</ele>
        <time>2021-08-09T10:34:56Z</time>
      </trkpt>
      <trkpt lat="47.82376" lon="7.0151">
        <ele>1079</ele>
        <time>2021-08-09T10:34:58Z</time>
      </trkpt>
      <trkpt lat="47.82376" lon="7.0151">
        <ele>1079.1</ele>
        <time>2021-08-09T10:34:59Z</time>
      </trkpt>
      <trkpt lat="47.82376" lon="7.0151">
        <ele>1079.1</ele>
        <time>2021-08-09T10:35:01Z</time>
      </trkpt>
      <trkpt lat="47.82376" lon="7.0151">
        <ele>1079.2</ele>
        <time>2021-08-09T10:35:02Z</time>
      </trkpt>
      <trkpt lat="47.82376" lon="7.0151">
        <ele>1079.2</ele>
        <time>2021-08-09T10:35:04Z</time>
      </trkpt>
      <trkpt lat="47.82376" lon="7.0151">
        <ele>1079.2</ele>
        <time>2021-08-09T10:35:06Z</time>
      </trkpt>
      <trkpt lat="47.82376" lon="7.0151">
        <ele>1079.2</ele>
        <time>2021-08-09T10:35:08Z</time>
      </trkpt>
      <trkpt lat="47.82376" lon="7.0151">
        <ele>1079.3</ele>
        <time>2021-08-09T10:35:10Z</time>
      </trkpt>
      <trkpt lat="47.82376" lon="7.0151">
        <ele>1079.3</ele>
        <time>2021-08-09T10:35:11Z</time>
      </trkpt>
      <trkpt lat="47.82375" lon="7.0151">
        <ele>1079.4</ele>
        <time>2021-08-09T10:35:12Z</time>
      </trkpt>
      <trkpt lat="47.82375" lon="7.0151">
        <ele>1079.4</ele>
        <time>2021-08-09T10:35:14Z</time>
      </trkpt>
      <trkpt lat="47.82375" lon="7.0151">
        <ele>1079.5</ele>
        <time>2021-08-09T10:35:16Z</time>
      </trkpt>
      <trkpt lat="47.82375" lon="7.0151">
        <ele>1079.5</ele>
        <time>2021-08-09T10:35:17Z</time>
      </trkpt>
      <trkpt lat="47.82375" lon="7.0151">
        <ele>1079.6</ele>
        <time>2021-08-09T10:35:19Z</time>
      </trkpt>
      <trkpt lat="47.82375" lon="7.0151">
        <ele>1079.6</ele>
        <time>2021-08-09T10:35:20Z</time>
      </trkpt>
      <trkpt lat="47.82374" lon="7.01509">
        <ele>1079.9</ele>
        <time>2021-08-09T10:35:21Z</time>
      </trkpt>
      <trkpt lat="47.82373" lon="7.01507">
        <ele>1080.3</ele>
        <time>2021-08-09T10:35:23Z</time>
      </trkpt>
      <trkpt lat="47.82372" lon="7.01506">
        <ele>1080.6</ele>
        <time>2021-08-09T10:35:24Z</time>
      </trkpt>
      <trkpt lat="47.82372" lon="7.01505">
        <ele>1080.7</ele>
        <time>2021-08-09T10:35:25Z</time>
      </trkpt>
      <trkpt lat="47.82371" lon="7.01504">
        <ele>1080.9</ele>
        <time>2021-08-09T10:35:26Z</time>
      </trkpt>
      <trkpt lat="47.8237" lon="7.01503">
        <ele>1081.2</ele>
        <time>2021-08-09T10:35:27Z</time>
      </trkpt>
      <trkpt lat="47.8237" lon="7.01502">
        <ele>1081.4</ele>
        <time>2021-08-09T10:35:29Z</time>
      </trkpt>
      <trkpt lat="47.82369" lon="7.01502">
        <ele>1081.6</ele>
        <time>2021-08-09T10:35:30Z</time>
      </trkpt>
      <trkpt lat="47.82368" lon="7.01501">
        <ele>1081.8</ele>
        <time>2021-08-09T10:35:31Z</time>
      </trkpt>
      <trkpt lat="47.82368" lon="7.015">
        <ele>1082</ele>
        <time>2021-08-09T10:35:32Z</time>
      </trkpt>
      <trkpt lat="47.82367" lon="7.015">
        <ele>1082.1</ele>
        <time>2021-08-09T10:35:34Z</time>
      </trkpt>
      <trkpt lat="47.82367" lon="7.015">
        <ele>1082.3</ele>
        <time>2021-08-09T10:35:35Z</time>
      </trkpt>
      <trkpt lat="47.82366" lon="7.01499">
        <ele>1082.4</ele>
        <time>2021-08-09T10:35:36Z</time>
      </trkpt>
      <trkpt lat="47.82366" lon="7.01499">
        <ele>1082.5</ele>
        <time>2021-08-09T10:35:37Z</time>
      </trkpt>
      <trkpt lat="47.82365" lon="7.01499">
        <ele>1082.7</ele>
        <time>2021-08-09T10:35:39Z</time>
      </trkpt>
      <trkpt lat="47.82364" lon="7.01498">
        <ele>1082.9</ele>
        <time>2021-08-09T10:35:40Z</time>
      </trkpt>
      <trkpt lat="47.82363" lon="7.01498">
        <ele>1083.1</ele>
        <time>2021-08-09T10:35:42Z</time>
      </trkpt>
      <trkpt lat="47.82328" lon="7.01483">
        <ele>1092.1</ele>
        <time>2021-08-09T10:36:41Z</time>
      </trkpt>
      <trkpt lat="47.82326" lon="7.01482">
        <ele>1092.5</ele>
        <time>2021-08-09T10:36:43Z</time>
      </trkpt>
      <trkpt lat="47.82325" lon="7.01482">
        <ele>1092.8</ele>
        <time>2021-08-09T10:36:44Z</time>
      </trkpt>
      <trkpt lat="47.82324" lon="7.01482">
        <ele>1093.1</ele>
        <time>2021-08-09T10:36:46Z</time>
      </trkpt>
      <trkpt lat="47.82323" lon="7.01481">
        <ele>1093.3</ele>
        <time>2021-08-09T10:36:47Z</time>
      </trkpt>
      <trkpt lat="47.82322" lon="7.01481">
        <ele>1093.5</ele>
        <time>2021-08-09T10:36:48Z</time>
      </trkpt>
      <trkpt lat="47.82321" lon="7.0148">
        <ele>1093.8</ele>
        <time>2021-08-09T10:36:49Z</time>
      </trkpt>
      <trkpt lat="47.8232" lon="7.0148">
        <ele>1093.9</ele>
        <time>2021-08-09T10:36:51Z</time>
      </trkpt>
      <trkpt lat="47.8232" lon="7.01479">
        <ele>1094.1</ele>
        <time>2021-08-09T10:36:52Z</time>
      </trkpt>
      <trkpt lat="47.8232" lon="7.01479">
        <ele>1094.2</ele>
        <time>2021-08-09T10:36:53Z</time>
      </trkpt>
      <trkpt lat="47.8232" lon="7.01479">
        <ele>1094.3</ele>
        <time>2021-08-09T10:36:54Z</time>
      </trkpt>
      <trkpt lat="47.82318" lon="7.01479">
        <ele>1094.7</ele>
        <time>2021-08-09T10:36:56Z</time>
      </trkpt>
      <trkpt lat="47.82317" lon="7.01479">
        <ele>1095</ele>
        <time>2021-08-09T10:36:58Z</time>
      </trkpt>
      <trkpt lat="47.82316" lon="7.01478">
        <ele>1095.1</ele>
        <time>2021-08-09T10:36:59Z</time>
      </trkpt>
      <trkpt lat="47.82316" lon="7.01477">
        <ele>1095.4</ele>
        <time>2021-08-09T10:37:01Z</time>
      </trkpt>
      <trkpt lat="47.82315" lon="7.01477">
        <ele>1095.6</ele>
        <time>2021-08-09T10:37:02Z</time>
      </trkpt>
      <trkpt lat="47.82315" lon="7.01476">
        <ele>1095.6</ele>
        <time>2021-08-09T10:37:04Z</time>
      </trkpt>
      <trkpt lat="47.82315" lon="7.01476">
        <ele>1095.7</ele>
        <time>2021-08-09T10:37:05Z</time>
      </trkpt>
      <trkpt lat="47.82315" lon="7.01476">
        <ele>1095.8</ele>
        <time>2021-08-09T10:37:06Z</time>
      </trkpt>
      <trkpt lat="47.82305" lon="7.01459">
        <ele>1100.1</ele>
        <time>2021-08-09T10:38:00Z</time>
      </trkpt>
      <trkpt lat="47.82304" lon="7.01458">
        <ele>1100.1</ele>
        <time>2021-08-09T10:38:01Z</time>
      </trkpt>
      <trkpt lat="47.82304" lon="7.01457">
        <ele>1100.1</ele>
        <time>2021-08-09T10:38:02Z</time>
      </trkpt>
      <trkpt lat="47.82304" lon="7.01456">
        <ele>1100.1</ele>
        <time>2021-08-09T10:38:04Z</time>
      </trkpt>
      <trkpt lat="47.82304" lon="7.01456">
        <ele>1100.2</ele>
        <time>2021-08-09T10:38:05Z</time>
      </trkpt>
      <trkpt lat="47.82304" lon="7.01456">
        <ele>1100.2</ele>
        <time>2021-08-09T10:38:06Z</time>
      </trkpt>
      <trkpt lat="47.82304" lon="7.01456">
        <ele>1100.2</ele>
        <time>2021-08-09T10:38:08Z</time>
      </trkpt>
      <trkpt lat="47.82304" lon="7.01456">
        <ele>1100.2</ele>
        <time>2021-08-09T10:38:10Z</time>
      </trkpt>
      <trkpt lat="47.82305" lon="7.01456">
        <ele>1100.3</ele>
        <time>2021-08-09T10:38:11Z</time>
      </trkpt>
      <trkpt lat="47.82304" lon="7.01461">
        <ele>1100.1</ele>
        <time>2021-08-09T10:38:21Z</time>
      </trkpt>
      <trkpt lat="47.82302" lon="7.01466">
        <ele>1100.1</ele>
        <time>2021-08-09T10:38:23Z</time>
      </trkpt>
      <trkpt lat="47.82299" lon="7.01471">
        <ele>1100.2</ele>
        <time>2021-08-09T10:38:24Z</time>
      </trkpt>
      <trkpt lat="47.82298" lon="7.01473">
        <ele>1100.3</ele>
        <time>2021-08-09T10:38:25Z</time>
      </trkpt>
      <trkpt lat="47.82295" lon="7.0148">
        <ele>1100.4</ele>
        <time>2021-08-09T10:38:26Z</time>
      </trkpt>
      <trkpt lat="47.82291" lon="7.01488">
        <ele>1100.5</ele>
        <time>2021-08-09T10:38:28Z</time>
      </trkpt>
      <trkpt lat="47.82288" lon="7.01494">
        <ele>1100.6</ele>
        <time>2021-08-09T10:38:29Z</time>
      </trkpt>
      <trkpt lat="47.82284" lon="7.015">
        <ele>1100.5</ele>
        <time>2021-08-09T10:38:31Z</time>
      </trkpt>
      <trkpt lat="47.8228" lon="7.01505">
        <ele>1101</ele>
        <time>2021-08-09T10:38:33Z</time>
      </trkpt>
      <trkpt lat="47.82278" lon="7.01507">
        <ele>1100.8</ele>
        <time>2021-08-09T10:38:34Z</time>
      </trkpt>
      <trkpt lat="47.82275" lon="7.0151">
        <ele>1101.2</ele>
        <time>2021-08-09T10:38:35Z</time>
      </trkpt>
      <trkpt lat="47.82273" lon="7.01513">
        <ele>1101.3</ele>
        <time>2021-08-09T10:38:36Z</time>
      </trkpt>
      <trkpt lat="47.82272" lon="7.01514">
        <ele>1101.7</ele>
        <time>2021-08-09T10:38:37Z</time>
      </trkpt>
      <trkpt lat="47.8227" lon="7.01518">
        <ele>1101.6</ele>
        <time>2021-08-09T10:38:38Z</time>
      </trkpt>
      <trkpt lat="47.82269" lon="7.01519">
        <ele>1101.9</ele>
        <time>2021-08-09T10:38:39Z</time>
      </trkpt>
      <trkpt lat="47.82266" lon="7.01523">
        <ele>1102.1</ele>
        <time>2021-08-09T10:38:41Z</time>
      </trkpt>
      <trkpt lat="47.82265" lon="7.01525">
        <ele>1102</ele>
        <time>2021-08-09T10:38:42Z</time>
      </trkpt>
      <trkpt lat="47.82263" lon="7.01526">
        <ele>1102.3</ele>
        <time>2021-08-09T10:38:43Z</time>
      </trkpt>
      <trkpt lat="47.82261" lon="7.0153">
        <ele>1102.1</ele>
        <time>2021-08-09T10:38:45Z</time>
      </trkpt>
      <trkpt lat="47.8226" lon="7.01531">
        <ele>1102.4</ele>
        <time>2021-08-09T10:38:46Z</time>
      </trkpt>
      <trkpt lat="47.82258" lon="7.01533">
        <ele>1102.4</ele>
        <time>2021-08-09T10:38:47Z</time>
      </trkpt>
      <trkpt lat="47.82256" lon="7.01533">
        <ele>1102.5</ele>
        <time>2021-08-09T10:38:49Z</time>
      </trkpt>
      <trkpt lat="47.82254" lon="7.0153">
        <ele>1103.1</ele>
        <time>2021-08-09T10:38:50Z</time>
      </trkpt>
      <trkpt lat="47.82253" lon="7.01528">
        <ele>1103.4</ele>
        <time>2021-08-09T10:38:52Z</time>
      </trkpt>
      <trkpt lat="47.82253" lon="7.01526">
        <ele>1103.5</ele>
        <time>2021-08-09T10:38:53Z</time>
      </trkpt>
      <trkpt lat="47.82252" lon="7.01524">
        <ele>1104.1</ele>
        <time>2021-08-09T10:38:55Z</time>
      </trkpt>
      <trkpt lat="47.82251" lon="7.01522">
        <ele>1104.2</ele>
        <time>2021-08-09T10:38:57Z</time>
      </trkpt>
      <trkpt lat="47.82251" lon="7.0152">
        <ele>1104.3</ele>
        <time>2021-08-09T10:38:59Z</time>
      </trkpt>
      <trkpt lat="47.8225" lon="7.01518">
        <ele>1104.4</ele>
        <time>2021-08-09T10:39:01Z</time>
      </trkpt>
      <trkpt lat="47.8225" lon="7.01516">
        <ele>1104.6</ele>
        <time>2021-08-09T10:39:02Z</time>
      </trkpt>
      <trkpt lat="47.82249" lon="7.01514">
        <ele>1104.7</ele>
        <time>2021-08-09T10:39:04Z</time>
      </trkpt>
      <trkpt lat="47.82249" lon="7.01512">
        <ele>1104.9</ele>
        <time>2021-08-09T10:39:05Z</time>
      </trkpt>
      <trkpt lat="47.82248" lon="7.01509">
        <ele>1105.1</ele>
        <time>2021-08-09T10:39:06Z</time>
      </trkpt>
      <trkpt lat="47.82248" lon="7.01507">
        <ele>1105.2</ele>
        <time>2021-08-09T10:39:07Z</time>
      </trkpt>
      <trkpt lat="47.82247" lon="7.01505">
        <ele>1105.4</ele>
        <time>2021-08-09T10:39:09Z</time>
      </trkpt>
      <trkpt lat="47.82247" lon="7.01503">
        <ele>1105.5</ele>
        <time>2021-08-09T10:39:10Z</time>
      </trkpt>
      <trkpt lat="47.82246" lon="7.01501">
        <ele>1105.7</ele>
        <time>2021-08-09T10:39:11Z</time>
      </trkpt>
      <trkpt lat="47.82246" lon="7.01499">
        <ele>1105.9</ele>
        <time>2021-08-09T10:40:23Z</time>
      </trkpt>
      <trkpt lat="47.82245" lon="7.01497">
        <ele>1106</ele>
        <time>2021-08-09T10:40:25Z</time>
      </trkpt>
      <trkpt lat="47.82244" lon="7.01495">
        <ele>1106.2</ele>
        <time>2021-08-09T10:40:26Z</time>
      </trkpt>
      <trkpt lat="47.82244" lon="7.0149">
        <ele>1106.6</ele>
        <time>2021-08-09T10:40:28Z</time>
      </trkpt>
      <trkpt lat="47.82244" lon="7.01487">
        <ele>1106.8</ele>
        <time>2021-08-09T10:40:29Z</time>
      </trkpt>
      <trkpt lat="47.82245" lon="7.01484">
        <ele>1107</ele>
        <time>2021-08-09T10:40:31Z</time>
      </trkpt>
      <trkpt lat="47.82246" lon="7.01481">
        <ele>1107.2</ele>
        <time>2021-08-09T10:40:32Z</time>
      </trkpt>
      <trkpt lat="47.82247" lon="7.01478">
        <ele>1107.5</ele>
        <time>2021-08-09T10:40:34Z</time>
      </trkpt>
      <trkpt lat="47.82248" lon="7.01475">
        <ele>1107.7</ele>
        <time>2021-08-09T10:40:35Z</time>
      </trkpt>
      <trkpt lat="47.82248" lon="7.01474">
        <ele>1107.9</ele>
        <time>2021-08-09T10:40:36Z</time>
      </trkpt>
      <trkpt lat="47.8225" lon="7.01471">
        <ele>1108.1</ele>
        <time>2021-08-09T10:40:37Z</time>
      </trkpt>
      <trkpt lat="47.82251" lon="7.0147">
        <ele>1108.3</ele>
        <time>2021-08-09T10:40:38Z</time>
      </trkpt>
      <trkpt lat="47.82251" lon="7.01468">
        <ele>1108.4</ele>
        <time>2021-08-09T10:40:39Z</time>
      </trkpt>
      <trkpt lat="47.82253" lon="7.01465">
        <ele>1108.7</ele>
        <time>2021-08-09T10:40:41Z</time>
      </trkpt>
      <trkpt lat="47.82254" lon="7.01463">
        <ele>1108.9</ele>
        <time>2021-08-09T10:40:42Z</time>
      </trkpt>
      <trkpt lat="47.82255" lon="7.0146">
        <ele>1109.1</ele>
        <time>2021-08-09T10:40:43Z</time>
      </trkpt>
      <trkpt lat="47.82256" lon="7.01458">
        <ele>1109.2</ele>
        <time>2021-08-09T10:40:45Z</time>
      </trkpt>
      <trkpt lat="47.82257" lon="7.01454">
        <ele>1109.5</ele>
        <time>2021-08-09T10:40:47Z</time>
      </trkpt>
      <trkpt lat="47.82258" lon="7.01451">
        <ele>1109.8</ele>
        <time>2021-08-09T10:40:48Z</time>
      </trkpt>
      <trkpt lat="47.82258" lon="7.01447">
        <ele>1110</ele>
        <time>2021-08-09T10:40:50Z</time>
      </trkpt>
      <trkpt lat="47.82258" lon="7.01443">
        <ele>1110.3</ele>
        <time>2021-08-09T10:40:52Z</time>
      </trkpt>
      <trkpt lat="47.82259" lon="7.01441">
        <ele>1110.4</ele>
        <time>2021-08-09T10:40:53Z</time>
      </trkpt>
      <trkpt lat="47.82259" lon="7.01437">
        <ele>1110.7</ele>
        <time>2021-08-09T10:40:55Z</time>
      </trkpt>
      <trkpt lat="47.8226" lon="7.01435">
        <ele>1110.9</ele>
        <time>2021-08-09T10:40:56Z</time>
      </trkpt>
      <trkpt lat="47.8226" lon="7.01433">
        <ele>1111</ele>
        <time>2021-08-09T10:40:57Z</time>
      </trkpt>
      <trkpt lat="47.82261" lon="7.01429">
        <ele>1111.3</ele>
        <time>2021-08-09T10:40:59Z</time>
      </trkpt>
      <trkpt lat="47.82262" lon="7.01428">
        <ele>1111.3</ele>
        <time>2021-08-09T10:41:00Z</time>
      </trkpt>
      <trkpt lat="47.82262" lon="7.01426">
        <ele>1111.4</ele>
        <time>2021-08-09T10:41:01Z</time>
      </trkpt>
      <trkpt lat="47.82262" lon="7.01425">
        <ele>1111.5</ele>
        <time>2021-08-09T10:41:02Z</time>
      </trkpt>
      <trkpt lat="47.82262" lon="7.01423">
        <ele>1111.7</ele>
        <time>2021-08-09T10:41:03Z</time>
      </trkpt>
      <trkpt lat="47.82262" lon="7.0142">
        <ele>1111.8</ele>
        <time>2021-08-09T10:41:05Z</time>
      </trkpt>
      <trkpt lat="47.82263" lon="7.01418">
        <ele>1111.9</ele>
        <time>2021-08-09T10:41:06Z</time>
      </trkpt>
      <trkpt lat="47.82264" lon="7.01415">
        <ele>1112.2</ele>
        <time>2021-08-09T10:41:08Z</time>
      </trkpt>
      <trkpt lat="47.82265" lon="7.01413">
        <ele>1112.3</ele>
        <time>2021-08-09T10:41:10Z</time>
      </trkpt>
      <trkpt lat="47.82266" lon="7.01411">
        <ele>1112.4</ele>
        <time>2021-08-09T10:41:12Z</time>
      </trkpt>
      <trkpt lat="47.82266" lon="7.01409">
        <ele>1112.5</ele>
        <time>2021-08-09T10:41:13Z</time>
      </trkpt>
      <trkpt lat="47.82267" lon="7.01407">
        <ele>1112.7</ele>
        <time>2021-08-09T10:41:14Z</time>
      </trkpt>
      <trkpt lat="47.82268" lon="7.01405">
        <ele>1112.8</ele>
        <time>2021-08-09T10:41:15Z</time>
      </trkpt>
      <trkpt lat="47.82268" lon="7.01404">
        <ele>1112.8</ele>
        <time>2021-08-09T10:41:16Z</time>
      </trkpt>
      <trkpt lat="47.82268" lon="7.014">
        <ele>1113.1</ele>
        <time>2021-08-09T10:41:18Z</time>
      </trkpt>
      <trkpt lat="47.82268" lon="7.01398">
        <ele>1113.1</ele>
        <time>2021-08-09T10:41:19Z</time>
      </trkpt>
      <trkpt lat="47.82268" lon="7.01395">
        <ele>1113.3</ele>
        <time>2021-08-09T10:41:20Z</time>
      </trkpt>
      <trkpt lat="47.82268" lon="7.01392">
        <ele>1113.4</ele>
        <time>2021-08-09T10:41:22Z</time>
      </trkpt>
      <trkpt lat="47.82268" lon="7.0139">
        <ele>1113.6</ele>
        <time>2021-08-09T10:41:23Z</time>
      </trkpt>
      <trkpt lat="47.82268" lon="7.01388">
        <ele>1113.7</ele>
        <time>2021-08-09T10:41:24Z</time>
      </trkpt>
      <trkpt lat="47.82269" lon="7.01385">
        <ele>1113.8</ele>
        <time>2021-08-09T10:41:25Z</time>
      </trkpt>
      <trkpt lat="47.82269" lon="7.01383">
        <ele>1113.9</ele>
        <time>2021-08-09T10:41:27Z</time>
      </trkpt>
      <trkpt lat="47.8227" lon="7.01382">
        <ele>1114</ele>
        <time>2021-08-09T10:41:28Z</time>
      </trkpt>
      <trkpt lat="47.82271" lon="7.01379">
        <ele>1114.2</ele>
        <time>2021-08-09T10:41:29Z</time>
      </trkpt>
      <trkpt lat="47.82272" lon="7.01376">
        <ele>1114.4</ele>
        <time>2021-08-09T10:41:31Z</time>
      </trkpt>
      <trkpt lat="47.82272" lon="7.01375">
        <ele>1114.5</ele>
        <time>2021-08-09T10:41:32Z</time>
      </trkpt>
      <trkpt lat="47.82276" lon="7.01372">
        <ele>1114.9</ele>
        <time>2021-08-09T10:41:34Z</time>
      </trkpt>
      <trkpt lat="47.82277" lon="7.01371">
        <ele>1115</ele>
        <time>2021-08-09T10:41:35Z</time>
      </trkpt>
      <trkpt lat="47.8228" lon="7.01369">
        <ele>1115.3</ele>
        <time>2021-08-09T10:41:36Z</time>
      </trkpt>
      <trkpt lat="47.82282" lon="7.01367">
        <ele>1115.5</ele>
        <time>2021-08-09T10:41:38Z</time>
      </trkpt>
      <trkpt lat="47.82284" lon="7.01365">
        <ele>1115.8</ele>
        <time>2021-08-09T10:41:40Z</time>
      </trkpt>
      <trkpt lat="47.82286" lon="7.01362">
        <ele>1116.1</ele>
        <time>2021-08-09T10:41:42Z</time>
      </trkpt>
      <trkpt lat="47.82288" lon="7.01359">
        <ele>1116.4</ele>
        <time>2021-08-09T10:41:44Z</time>
      </trkpt>
      <trkpt lat="47.82288" lon="7.01355">
        <ele>1116.8</ele>
        <time>2021-08-09T10:41:46Z</time>
      </trkpt>
      <trkpt lat="47.82289" lon="7.01354">
        <ele>1116.8</ele>
        <time>2021-08-09T10:41:47Z</time>
      </trkpt>
      <trkpt lat="47.82289" lon="7.01352">
        <ele>1117</ele>
        <time>2021-08-09T10:41:49Z</time>
      </trkpt>
      <trkpt lat="47.8229" lon="7.01349">
        <ele>1117.2</ele>
        <time>2021-08-09T10:41:50Z</time>
      </trkpt>
      <trkpt lat="47.82289" lon="7.01345">
        <ele>1117.5</ele>
        <time>2021-08-09T10:41:51Z</time>
      </trkpt>
      <trkpt lat="47.82289" lon="7.01343">
        <ele>1117.6</ele>
        <time>2021-08-09T10:41:53Z</time>
      </trkpt>
      <trkpt lat="47.82289" lon="7.01342">
        <ele>1117.8</ele>
        <time>2021-08-09T10:41:54Z</time>
      </trkpt>
      <trkpt lat="47.82289" lon="7.0134">
        <ele>1117.9</ele>
        <time>2021-08-09T10:41:55Z</time>
      </trkpt>
      <trkpt lat="47.82289" lon="7.01339">
        <ele>1118</ele>
        <time>2021-08-09T10:41:56Z</time>
      </trkpt>
      <trkpt lat="47.82289" lon="7.01336">
        <ele>1118.2</ele>
        <time>2021-08-09T10:41:58Z</time>
      </trkpt>
      <trkpt lat="47.82289" lon="7.01334">
        <ele>1118.4</ele>
        <time>2021-08-09T10:41:59Z</time>
      </trkpt>
      <trkpt lat="47.82289" lon="7.01329">
        <ele>1118.7</ele>
        <time>2021-08-09T10:42:01Z</time>
      </trkpt>
      <trkpt lat="47.82289" lon="7.01328">
        <ele>1118.8</ele>
        <time>2021-08-09T10:42:02Z</time>
      </trkpt>
      <trkpt lat="47.82289" lon="7.01325">
        <ele>1119</ele>
        <time>2021-08-09T10:42:04Z</time>
      </trkpt>
      <trkpt lat="47.82289" lon="7.01323">
        <ele>1119.2</ele>
        <time>2021-08-09T10:42:05Z</time>
      </trkpt>
      <trkpt lat="47.8229" lon="7.0132">
        <ele>1119.4</ele>
        <time>2021-08-09T10:42:06Z</time>
      </trkpt>
      <trkpt lat="47.82291" lon="7.01319">
        <ele>1119.5</ele>
        <time>2021-08-09T10:42:07Z</time>
      </trkpt>
      <trkpt lat="47.82291" lon="7.01317">
        <ele>1119.6</ele>
        <time>2021-08-09T10:42:08Z</time>
      </trkpt>
      <trkpt lat="47.82292" lon="7.01313">
        <ele>1119.8</ele>
        <time>2021-08-09T10:42:09Z</time>
      </trkpt>
      <trkpt lat="47.82292" lon="7.01312">
        <ele>1119.9</ele>
        <time>2021-08-09T10:42:11Z</time>
      </trkpt>
      <trkpt lat="47.82292" lon="7.0131">
        <ele>1120</ele>
        <time>2021-08-09T10:42:12Z</time>
      </trkpt>
      <trkpt lat="47.82293" lon="7.01309">
        <ele>1120.1</ele>
        <time>2021-08-09T10:42:13Z</time>
      </trkpt>
      <trkpt lat="47.82293" lon="7.01307">
        <ele>1120.2</ele>
        <time>2021-08-09T10:42:14Z</time>
      </trkpt>
      <trkpt lat="47.82294" lon="7.01306">
        <ele>1120.3</ele>
        <time>2021-08-09T10:42:15Z</time>
      </trkpt>
      <trkpt lat="47.82295" lon="7.01304">
        <ele>1120.5</ele>
        <time>2021-08-09T10:42:17Z</time>
      </trkpt>
      <trkpt lat="47.82295" lon="7.01302">
        <ele>1120.6</ele>
        <time>2021-08-09T10:42:18Z</time>
      </trkpt>
      <trkpt lat="47.82297" lon="7.01299">
        <ele>1120.7</ele>
        <time>2021-08-09T10:42:19Z</time>
      </trkpt>
      <trkpt lat="47.82298" lon="7.01296">
        <ele>1121</ele>
        <time>2021-08-09T10:42:21Z</time>
      </trkpt>
      <trkpt lat="47.82299" lon="7.01295">
        <ele>1121.1</ele>
        <time>2021-08-09T10:42:22Z</time>
      </trkpt>
      <trkpt lat="47.823" lon="7.01293">
        <ele>1121.1</ele>
        <time>2021-08-09T10:42:23Z</time>
      </trkpt>
      <trkpt lat="47.823" lon="7.01291">
        <ele>1121.2</ele>
        <time>2021-08-09T10:42:24Z</time>
      </trkpt>
      <trkpt lat="47.82301" lon="7.01288">
        <ele>1121.4</ele>
        <time>2021-08-09T10:42:26Z</time>
      </trkpt>
      <trkpt lat="47.82302" lon="7.01285">
        <ele>1121.6</ele>
        <time>2021-08-09T10:42:27Z</time>
      </trkpt>
      <trkpt lat="47.82303" lon="7.01284">
        <ele>1121.6</ele>
        <time>2021-08-09T10:42:28Z</time>
      </trkpt>
      <trkpt lat="47.82303" lon="7.01283">
        <ele>1121.7</ele>
        <time>2021-08-09T10:42:29Z</time>
      </trkpt>
      <trkpt lat="47.82304" lon="7.01281">
        <ele>1121.8</ele>
        <time>2021-08-09T10:42:30Z</time>
      </trkpt>
      <trkpt lat="47.82305" lon="7.0128">
        <ele>1121.9</ele>
        <time>2021-08-09T10:42:31Z</time>
      </trkpt>
      <trkpt lat="47.82307" lon="7.01275">
        <ele>1122.2</ele>
        <time>2021-08-09T10:42:33Z</time>
      </trkpt>
      <trkpt lat="47.82308" lon="7.01273">
        <ele>1122.3</ele>
        <time>2021-08-09T10:42:34Z</time>
      </trkpt>
      <trkpt lat="47.82309" lon="7.01271">
        <ele>1122.4</ele>
        <time>2021-08-09T10:42:35Z</time>
      </trkpt>
      <trkpt lat="47.8231" lon="7.01267">
        <ele>1122.6</ele>
        <time>2021-08-09T10:42:36Z</time>
      </trkpt>
      <trkpt lat="47.8231" lon="7.01266">
        <ele>1122.6</ele>
        <time>2021-08-09T10:42:37Z</time>
      </trkpt>
      <trkpt lat="47.82312" lon="7.01262">
        <ele>1122.8</ele>
        <time>2021-08-09T10:42:39Z</time>
      </trkpt>
      <trkpt lat="47.82312" lon="7.01259">
        <ele>1123</ele>
        <time>2021-08-09T10:42:40Z</time>
      </trkpt>
      <trkpt lat="47.82313" lon="7.01257">
        <ele>1123.1</ele>
        <time>2021-08-09T10:42:42Z</time>
      </trkpt>
      <trkpt lat="47.82314" lon="7.01253">
        <ele>1123.3</ele>
        <time>2021-08-09T10:42:43Z</time>
      </trkpt>
      <trkpt lat="47.82315" lon="7.01249">
        <ele>1123.5</ele>
        <time>2021-08-09T10:42:45Z</time>
      </trkpt>
      <trkpt lat="47.82315" lon="7.01246">
        <ele>1123.6</ele>
        <time>2021-08-09T10:42:46Z</time>
      </trkpt>
      <trkpt lat="47.82315" lon="7.01245">
        <ele>1123.7</ele>
        <time>2021-08-09T10:42:47Z</time>
      </trkpt>
      <trkpt lat="47.82315" lon="7.01243">
        <ele>1123.7</ele>
        <time>2021-08-09T10:42:48Z</time>
      </trkpt>
      <trkpt lat="47.82315" lon="7.01241">
        <ele>1123.8</ele>
        <time>2021-08-09T10:42:50Z</time>
      </trkpt>
      <trkpt lat="47.82316" lon="7.01239">
        <ele>1123.9</ele>
        <time>2021-08-09T10:42:51Z</time>
      </trkpt>
      <trkpt lat="47.82317" lon="7.01238">
        <ele>1124</ele>
        <time>2021-08-09T10:42:52Z</time>
      </trkpt>
      <trkpt lat="47.82317" lon="7.01236">
        <ele>1124.1</ele>
        <time>2021-08-09T10:42:54Z</time>
      </trkpt>
      <trkpt lat="47.82318" lon="7.01233">
        <ele>1124.2</ele>
        <time>2021-08-09T10:42:56Z</time>
      </trkpt>
      <trkpt lat="47.82318" lon="7.01231">
        <ele>1124.3</ele>
        <time>2021-08-09T10:42:57Z</time>
      </trkpt>
      <trkpt lat="47.82318" lon="7.01229">
        <ele>1124.4</ele>
        <time>2021-08-09T10:42:58Z</time>
      </trkpt>
      <trkpt lat="47.82318" lon="7.01228">
        <ele>1124.4</ele>
        <time>2021-08-09T10:43:00Z</time>
      </trkpt>
      <trkpt lat="47.82318" lon="7.01226">
        <ele>1124.5</ele>
        <time>2021-08-09T10:43:01Z</time>
      </trkpt>
      <trkpt lat="47.82318" lon="7.01225">
        <ele>1124.5</ele>
        <time>2021-08-09T10:43:02Z</time>
      </trkpt>
      <trkpt lat="47.82318" lon="7.01223">
        <ele>1124.6</ele>
        <time>2021-08-09T10:43:03Z</time>
      </trkpt>
      <trkpt lat="47.82318" lon="7.01221">
        <ele>1124.7</ele>
        <time>2021-08-09T10:43:04Z</time>
      </trkpt>
      <trkpt lat="47.82319" lon="7.01219">
        <ele>1124.7</ele>
        <time>2021-08-09T10:43:06Z</time>
      </trkpt>
      <trkpt lat="47.8232" lon="7.01216">
        <ele>1124.8</ele>
        <time>2021-08-09T10:43:07Z</time>
      </trkpt>
      <trkpt lat="47.82321" lon="7.01214">
        <ele>1124.9</ele>
        <time>2021-08-09T10:43:08Z</time>
      </trkpt>
      <trkpt lat="47.82322" lon="7.01212">
        <ele>1125</ele>
        <time>2021-08-09T10:43:10Z</time>
      </trkpt>
      <trkpt lat="47.82323" lon="7.01211">
        <ele>1125</ele>
        <time>2021-08-09T10:43:11Z</time>
      </trkpt>
      <trkpt lat="47.82325" lon="7.01209">
        <ele>1125.1</ele>
        <time>2021-08-09T10:43:12Z</time>
      </trkpt>
      <trkpt lat="47.82327" lon="7.01207">
        <ele>1125.1</ele>
        <time>2021-08-09T10:43:14Z</time>
      </trkpt>
      <trkpt lat="47.82329" lon="7.01204">
        <ele>1125.1</ele>
        <time>2021-08-09T10:43:15Z</time>
      </trkpt>
      <trkpt lat="47.8233" lon="7.01202">
        <ele>1125.1</ele>
        <time>2021-08-09T10:43:16Z</time>
      </trkpt>
      <trkpt lat="47.82331" lon="7.01197">
        <ele>1125.1</ele>
        <time>2021-08-09T10:43:18Z</time>
      </trkpt>
      <trkpt lat="47.82334" lon="7.0119">
        <ele>1125.1</ele>
        <time>2021-08-09T10:43:19Z</time>
      </trkpt>
      <trkpt lat="47.82336" lon="7.01179">
        <ele>1125</ele>
        <time>2021-08-09T10:43:20Z</time>
      </trkpt>
      <trkpt lat="47.82339" lon="7.01171">
        <ele>1125</ele>
        <time>2021-08-09T10:43:22Z</time>
      </trkpt>
      <trkpt lat="47.82342" lon="7.01162">
        <ele>1125</ele>
        <time>2021-08-09T10:43:23Z</time>
      </trkpt>
      <trkpt lat="47.82346" lon="7.01153">
        <ele>1125</ele>
        <time>2021-08-09T10:43:25Z</time>
      </trkpt>
      <trkpt lat="47.82348" lon="7.01146">
        <ele>1125.1</ele>
        <time>2021-08-09T10:43:26Z</time>
      </trkpt>
      <trkpt lat="47.82351" lon="7.01138">
        <ele>1125.2</ele>
        <time>2021-08-09T10:43:27Z</time>
      </trkpt>
      <trkpt lat="47.82355" lon="7.01129">
        <ele>1125.4</ele>
        <time>2021-08-09T10:43:29Z</time>
      </trkpt>
      <trkpt lat="47.82357" lon="7.01124">
        <ele>1125.5</ele>
        <time>2021-08-09T10:43:30Z</time>
      </trkpt>
      <trkpt lat="47.8236" lon="7.01116">
        <ele>1125.6</ele>
        <time>2021-08-09T10:43:31Z</time>
      </trkpt>
      <trkpt lat="47.82362" lon="7.0111">
        <ele>1125.7</ele>
        <time>2021-08-09T10:43:33Z</time>
      </trkpt>
      <trkpt lat="47.82364" lon="7.01103">
        <ele>1125.8</ele>
        <time>2021-08-09T10:43:34Z</time>
      </trkpt>
      <trkpt lat="47.82366" lon="7.01095">
        <ele>1125.9</ele>
        <time>2021-08-09T10:43:36Z</time>
      </trkpt>
      <trkpt lat="47.82367" lon="7.01088">
        <ele>1126</ele>
        <time>2021-08-09T10:43:37Z</time>
      </trkpt>
      <trkpt lat="47.82369" lon="7.01082">
        <ele>1126.1</ele>
        <time>2021-08-09T10:43:39Z</time>
      </trkpt>
      <trkpt lat="47.82371" lon="7.01077">
        <ele>1126.2</ele>
        <time>2021-08-09T10:43:40Z</time>
      </trkpt>
      <trkpt lat="47.82374" lon="7.01073">
        <ele>1126.4</ele>
        <time>2021-08-09T10:43:41Z</time>
      </trkpt>
      <trkpt lat="47.82375" lon="7.01068">
        <ele>1126.5</ele>
        <time>2021-08-09T10:43:43Z</time>
      </trkpt>
      <trkpt lat="47.82376" lon="7.01061">
        <ele>1126.8</ele>
        <time>2021-08-09T10:43:44Z</time>
      </trkpt>
      <trkpt lat="47.82376" lon="7.01053">
        <ele>1127.1</ele>
        <time>2021-08-09T10:43:45Z</time>
      </trkpt>
      <trkpt lat="47.82376" lon="7.01046">
        <ele>1127.3</ele>
        <time>2021-08-09T10:43:46Z</time>
      </trkpt>
      <trkpt lat="47.82376" lon="7.01041">
        <ele>1127.5</ele>
        <time>2021-08-09T10:43:48Z</time>
      </trkpt>
      <trkpt lat="47.82377" lon="7.01037">
        <ele>1127.7</ele>
        <time>2021-08-09T10:43:49Z</time>
      </trkpt>
      <trkpt lat="47.82377" lon="7.01036">
        <ele>1127.7</ele>
        <time>2021-08-09T10:43:51Z</time>
      </trkpt>
      <trkpt lat="47.82378" lon="7.01035">
        <ele>1127.8</ele>
        <time>2021-08-09T10:43:52Z</time>
      </trkpt>
      <trkpt lat="47.82379" lon="7.01034">
        <ele>1127.8</ele>
        <time>2021-08-09T10:43:53Z</time>
      </trkpt>
      <trkpt lat="47.8238" lon="7.01033">
        <ele>1127.9</ele>
        <time>2021-08-09T10:43:54Z</time>
      </trkpt>
      <trkpt lat="47.8238" lon="7.01031">
        <ele>1128</ele>
        <time>2021-08-09T10:43:55Z</time>
      </trkpt>
      <trkpt lat="47.82383" lon="7.01029">
        <ele>1128.1</ele>
        <time>2021-08-09T10:43:56Z</time>
      </trkpt>
      <trkpt lat="47.82384" lon="7.01029">
        <ele>1128.2</ele>
        <time>2021-08-09T10:43:57Z</time>
      </trkpt>
      <trkpt lat="47.82388" lon="7.01028">
        <ele>1128.3</ele>
        <time>2021-08-09T10:43:58Z</time>
      </trkpt>
      <trkpt lat="47.82393" lon="7.01027">
        <ele>1128.5</ele>
        <time>2021-08-09T10:44:00Z</time>
      </trkpt>
      <trkpt lat="47.82396" lon="7.01027">
        <ele>1128.6</ele>
        <time>2021-08-09T10:44:01Z</time>
      </trkpt>
      <trkpt lat="47.82399" lon="7.01026">
        <ele>1128.8</ele>
        <time>2021-08-09T10:44:02Z</time>
      </trkpt>
      <trkpt lat="47.82401" lon="7.01025">
        <ele>1128.9</ele>
        <time>2021-08-09T10:44:03Z</time>
      </trkpt>
      <trkpt lat="47.82403" lon="7.01023">
        <ele>1129</ele>
        <time>2021-08-09T10:44:05Z</time>
      </trkpt>
      <trkpt lat="47.82404" lon="7.0102">
        <ele>1129</ele>
        <time>2021-08-09T10:44:06Z</time>
      </trkpt>
      <trkpt lat="47.82403" lon="7.01017">
        <ele>1129.2</ele>
        <time>2021-08-09T10:44:08Z</time>
      </trkpt>
      <trkpt lat="47.82401" lon="7.01013">
        <ele>1129.3</ele>
        <time>2021-08-09T10:44:09Z</time>
      </trkpt>
      <trkpt lat="47.82401" lon="7.01012">
        <ele>1129.4</ele>
        <time>2021-08-09T10:44:10Z</time>
      </trkpt>
      <trkpt lat="47.824" lon="7.01008">
        <ele>1129.5</ele>
        <time>2021-08-09T10:44:11Z</time>
      </trkpt>
      <trkpt lat="47.824" lon="7.01007">
        <ele>1129.6</ele>
        <time>2021-08-09T10:44:12Z</time>
      </trkpt>
      <trkpt lat="47.824" lon="7.01004">
        <ele>1129.7</ele>
        <time>2021-08-09T10:44:14Z</time>
      </trkpt>
      <trkpt lat="47.824" lon="7.01002">
        <ele>1129.8</ele>
        <time>2021-08-09T10:44:15Z</time>
      </trkpt>
      <trkpt lat="47.824" lon="7.01">
        <ele>1129.9</ele>
        <time>2021-08-09T10:44:16Z</time>
      </trkpt>
      <trkpt lat="47.82401" lon="7.00998">
        <ele>1129.9</ele>
        <time>2021-08-09T10:44:17Z</time>
      </trkpt>
      <trkpt lat="47.82402" lon="7.00997">
        <ele>1130</ele>
        <time>2021-08-09T10:44:19Z</time>
      </trkpt>
      <trkpt lat="47.82403" lon="7.00997">
        <ele>1130.1</ele>
        <time>2021-08-09T10:44:20Z</time>
      </trkpt>
      <trkpt lat="47.82401" lon="7.00998">
        <ele>1130.2</ele>
        <time>2021-08-09T10:44:22Z</time>
      </trkpt>
      <trkpt lat="47.824" lon="7.00998">
        <ele>1130.3</ele>
        <time>2021-08-09T10:44:23Z</time>
      </trkpt>
      <trkpt lat="47.824" lon="7.00999">
        <ele>1130.3</ele>
        <time>2021-08-09T10:44:24Z</time>
      </trkpt>
      <trkpt lat="47.824" lon="7.00999">
        <ele>1130.3</ele>
        <time>2021-08-09T10:44:25Z</time>
      </trkpt>
      <trkpt lat="47.824" lon="7.00999">
        <ele>1130.4</ele>
        <time>2021-08-09T10:44:27Z</time>
      </trkpt>
      <trkpt lat="47.82401" lon="7.00999">
        <ele>1130.4</ele>
        <time>2021-08-09T10:44:28Z</time>
      </trkpt>
      <trkpt lat="47.82402" lon="7.00998">
        <ele>1130.5</ele>
        <time>2021-08-09T10:44:29Z</time>
      </trkpt>
      <trkpt lat="47.82403" lon="7.00997">
        <ele>1130.6</ele>
        <time>2021-08-09T10:44:31Z</time>
      </trkpt>
      <trkpt lat="47.82404" lon="7.00995">
        <ele>1130.7</ele>
        <time>2021-08-09T10:44:32Z</time>
      </trkpt>
      <trkpt lat="47.82405" lon="7.00993">
        <ele>1130.8</ele>
        <time>2021-08-09T10:44:33Z</time>
      </trkpt>
      <trkpt lat="47.82406" lon="7.00993">
        <ele>1130.9</ele>
        <time>2021-08-09T10:44:34Z</time>
      </trkpt>
      <trkpt lat="47.82406" lon="7.00992">
        <ele>1130.9</ele>
        <time>2021-08-09T10:44:35Z</time>
      </trkpt>
      <trkpt lat="47.82407" lon="7.00991">
        <ele>1131</ele>
        <time>2021-08-09T10:44:36Z</time>
      </trkpt>
      <trkpt lat="47.82407" lon="7.0099">
        <ele>1131</ele>
        <time>2021-08-09T10:44:38Z</time>
      </trkpt>
      <trkpt lat="47.82407" lon="7.00989">
        <ele>1131.1</ele>
        <time>2021-08-09T10:44:39Z</time>
      </trkpt>
      <trkpt lat="47.82408" lon="7.00988">
        <ele>1131.2</ele>
        <time>2021-08-09T10:44:40Z</time>
      </trkpt>
      <trkpt lat="47.82408" lon="7.00987">
        <ele>1131.2</ele>
        <time>2021-08-09T10:44:41Z</time>
      </trkpt>
      <trkpt lat="47.82408" lon="7.00985">
        <ele>1131.3</ele>
        <time>2021-08-09T10:44:43Z</time>
      </trkpt>
      <trkpt lat="47.82418" lon="7.00943">
        <ele>1132.5</ele>
        <time>2021-08-09T10:45:32Z</time>
      </trkpt>
      <trkpt lat="47.8242" lon="7.00941">
        <ele>1132.7</ele>
        <time>2021-08-09T10:45:33Z</time>
      </trkpt>
      <trkpt lat="47.82424" lon="7.00938">
        <ele>1133</ele>
        <time>2021-08-09T10:45:35Z</time>
      </trkpt>
      <trkpt lat="47.82426" lon="7.00937">
        <ele>1133.1</ele>
        <time>2021-08-09T10:45:36Z</time>
      </trkpt>
      <trkpt lat="47.82427" lon="7.00936">
        <ele>1133.2</ele>
        <time>2021-08-09T10:45:37Z</time>
      </trkpt>
      <trkpt lat="47.82429" lon="7.00935">
        <ele>1133.3</ele>
        <time>2021-08-09T10:45:38Z</time>
      </trkpt>
      <trkpt lat="47.82431" lon="7.00934">
        <ele>1133.5</ele>
        <time>2021-08-09T10:45:40Z</time>
      </trkpt>
      <trkpt lat="47.82434" lon="7.00932">
        <ele>1133.7</ele>
        <time>2021-08-09T10:45:41Z</time>
      </trkpt>
      <trkpt lat="47.82435" lon="7.00931">
        <ele>1133.8</ele>
        <time>2021-08-09T10:45:42Z</time>
      </trkpt>
      <trkpt lat="47.82436" lon="7.0093">
        <ele>1133.9</ele>
        <time>2021-08-09T10:45:43Z</time>
      </trkpt>
      <trkpt lat="47.82438" lon="7.00927">
        <ele>1134.1</ele>
        <time>2021-08-09T10:45:45Z</time>
      </trkpt>
      <trkpt lat="47.8244" lon="7.00926">
        <ele>1134.2</ele>
        <time>2021-08-09T10:45:46Z</time>
      </trkpt>
      <trkpt lat="47.82441" lon="7.00925">
        <ele>1134.4</ele>
        <time>2021-08-09T10:45:47Z</time>
      </trkpt>
      <trkpt lat="47.82443" lon="7.00923">
        <ele>1134.5</ele>
        <time>2021-08-09T10:45:48Z</time>
      </trkpt>
      <trkpt lat="47.82444" lon="7.00922">
        <ele>1134.6</ele>
        <time>2021-08-09T10:45:49Z</time>
      </trkpt>
      <trkpt lat="47.82446" lon="7.0092">
        <ele>1134.8</ele>
        <time>2021-08-09T10:45:50Z</time>
      </trkpt>
      <trkpt lat="47.82448" lon="7.00918">
        <ele>1134.9</ele>
        <time>2021-08-09T10:45:52Z</time>
      </trkpt>
      <trkpt lat="47.8245" lon="7.00917">
        <ele>1135.1</ele>
        <time>2021-08-09T10:45:53Z</time>
      </trkpt>
      <trkpt lat="47.82451" lon="7.00915">
        <ele>1135.2</ele>
        <time>2021-08-09T10:45:54Z</time>
      </trkpt>
      <trkpt lat="47.82454" lon="7.00912">
        <ele>1135.4</ele>
        <time>2021-08-09T10:45:56Z</time>
      </trkpt>
      <trkpt lat="47.82455" lon="7.0091">
        <ele>1135.5</ele>
        <time>2021-08-09T10:45:57Z</time>
      </trkpt>
      <trkpt lat="47.82457" lon="7.00909">
        <ele>1135.7</ele>
        <time>2021-08-09T10:45:59Z</time>
      </trkpt>
      <trkpt lat="47.8246" lon="7.00906">
        <ele>1135.9</ele>
        <time>2021-08-09T10:46:00Z</time>
      </trkpt>
      <trkpt lat="47.82461" lon="7.00905">
        <ele>1136</ele>
        <time>2021-08-09T10:46:01Z</time>
      </trkpt>
      <trkpt lat="47.82464" lon="7.00903">
        <ele>1136.1</ele>
        <time>2021-08-09T10:46:03Z</time>
      </trkpt>
      <trkpt lat="47.82464" lon="7.00902">
        <ele>1136.2</ele>
        <time>2021-08-09T10:46:04Z</time>
      </trkpt>
      <trkpt lat="47.82467" lon="7.009">
        <ele>1136.3</ele>
        <time>2021-08-09T10:46:05Z</time>
      </trkpt>
      <trkpt lat="47.82468" lon="7.00899">
        <ele>1136.4</ele>
        <time>2021-08-09T10:46:06Z</time>
      </trkpt>
      <trkpt lat="47.82469" lon="7.00897">
        <ele>1136.5</ele>
        <time>2021-08-09T10:46:08Z</time>
      </trkpt>
      <trkpt lat="47.8247" lon="7.00896">
        <ele>1136.5</ele>
        <time>2021-08-09T10:46:09Z</time>
      </trkpt>
      <trkpt lat="47.82471" lon="7.00894">
        <ele>1136.6</ele>
        <time>2021-08-09T10:46:10Z</time>
      </trkpt>
      <trkpt lat="47.82472" lon="7.00893">
        <ele>1136.7</ele>
        <time>2021-08-09T10:46:11Z</time>
      </trkpt>
      <trkpt lat="47.82473" lon="7.00892">
        <ele>1136.7</ele>
        <time>2021-08-09T10:46:12Z</time>
      </trkpt>
      <trkpt lat="47.82475" lon="7.0089">
        <ele>1136.8</ele>
        <time>2021-08-09T10:46:13Z</time>
      </trkpt>
      <trkpt lat="47.82476" lon="7.00889">
        <ele>1136.9</ele>
        <time>2021-08-09T10:46:14Z</time>
      </trkpt>
      <trkpt lat="47.82477" lon="7.00887">
        <ele>1137</ele>
        <time>2021-08-09T10:46:16Z</time>
      </trkpt>
      <trkpt lat="47.82477" lon="7.00886">
        <ele>1137</ele>
        <time>2021-08-09T10:46:17Z</time>
      </trkpt>
      <trkpt lat="47.82479" lon="7.00883">
        <ele>1137.1</ele>
        <time>2021-08-09T10:46:19Z</time>
      </trkpt>
      <trkpt lat="47.82479" lon="7.00881">
        <ele>1137.2</ele>
        <time>2021-08-09T10:46:20Z</time>
      </trkpt>
      <trkpt lat="47.82481" lon="7.00879">
        <ele>1137.3</ele>
        <time>2021-08-09T10:46:21Z</time>
      </trkpt>
      <trkpt lat="47.82482" lon="7.00877">
        <ele>1137.4</ele>
        <time>2021-08-09T10:46:22Z</time>
      </trkpt>
      <trkpt lat="47.82484" lon="7.00874">
        <ele>1137.6</ele>
        <time>2021-08-09T10:46:24Z</time>
      </trkpt>
      <trkpt lat="47.82484" lon="7.00872">
        <ele>1137.6</ele>
        <time>2021-08-09T10:46:25Z</time>
      </trkpt>
      <trkpt lat="47.82485" lon="7.0087">
        <ele>1137.7</ele>
        <time>2021-08-09T10:46:26Z</time>
      </trkpt>
      <trkpt lat="47.82485" lon="7.00869">
        <ele>1137.8</ele>
        <time>2021-08-09T10:46:27Z</time>
      </trkpt>
      <trkpt lat="47.82486" lon="7.00868">
        <ele>1137.8</ele>
        <time>2021-08-09T10:46:28Z</time>
      </trkpt>
      <trkpt lat="47.82487" lon="7.00865">
        <ele>1137.9</ele>
        <time>2021-08-09T10:46:29Z</time>
      </trkpt>
      <trkpt lat="47.82488" lon="7.00863">
        <ele>1138.1</ele>
        <time>2021-08-09T10:46:31Z</time>
      </trkpt>
      <trkpt lat="47.82489" lon="7.00861">
        <ele>1138.1</ele>
        <time>2021-08-09T10:46:32Z</time>
      </trkpt>
      <trkpt lat="47.8249" lon="7.00859">
        <ele>1138.2</ele>
        <time>2021-08-09T10:46:33Z</time>
      </trkpt>
      <trkpt lat="47.82492" lon="7.00857">
        <ele>1138.3</ele>
        <time>2021-08-09T10:46:35Z</time>
      </trkpt>
      <trkpt lat="47.82494" lon="7.00854">
        <ele>1138.5</ele>
        <time>2021-08-09T10:46:37Z</time>
      </trkpt>
      <trkpt lat="47.82495" lon="7.00854">
        <ele>1138.5</ele>
        <time>2021-08-09T10:46:38Z</time>
      </trkpt>
      <trkpt lat="47.82496" lon="7.00852">
        <ele>1138.6</ele>
        <time>2021-08-09T10:46:40Z</time>
      </trkpt>
      <trkpt lat="47.82498" lon="7.00849">
        <ele>1138.7</ele>
        <time>2021-08-09T10:46:42Z</time>
      </trkpt>
      <trkpt lat="47.825" lon="7.00848">
        <ele>1138.8</ele>
        <time>2021-08-09T10:46:43Z</time>
      </trkpt>
      <trkpt lat="47.82501" lon="7.00846">
        <ele>1138.9</ele>
        <time>2021-08-09T10:46:44Z</time>
      </trkpt>
      <trkpt lat="47.82502" lon="7.00845">
        <ele>1139</ele>
        <time>2021-08-09T10:46:45Z</time>
      </trkpt>
      <trkpt lat="47.82505" lon="7.00842">
        <ele>1139.1</ele>
        <time>2021-08-09T10:46:47Z</time>
      </trkpt>
      <trkpt lat="47.82506" lon="7.00841">
        <ele>1139.2</ele>
        <time>2021-08-09T10:46:48Z</time>
      </trkpt>
      <trkpt lat="47.82508" lon="7.0084">
        <ele>1139.2</ele>
        <time>2021-08-09T10:46:49Z</time>
      </trkpt>
      <trkpt lat="47.82509" lon="7.0084">
        <ele>1139.3</ele>
        <time>2021-08-09T10:46:50Z</time>
      </trkpt>
      <trkpt lat="47.82511" lon="7.00838">
        <ele>1139.4</ele>
        <time>2021-08-09T10:46:52Z</time>
      </trkpt>
      <trkpt lat="47.82512" lon="7.00837">
        <ele>1139.5</ele>
        <time>2021-08-09T10:46:53Z</time>
      </trkpt>
      <trkpt lat="47.82513" lon="7.00836">
        <ele>1139.5</ele>
        <time>2021-08-09T10:46:54Z</time>
      </trkpt>
      <trkpt lat="47.82515" lon="7.00835">
        <ele>1139.6</ele>
        <time>2021-08-09T10:46:55Z</time>
      </trkpt>
      <trkpt lat="47.82516" lon="7.00834">
        <ele>1139.7</ele>
        <time>2021-08-09T10:46:56Z</time>
      </trkpt>
      <trkpt lat="47.82519" lon="7.00831">
        <ele>1139.8</ele>
        <time>2021-08-09T10:46:58Z</time>
      </trkpt>
      <trkpt lat="47.8252" lon="7.0083">
        <ele>1139.9</ele>
        <time>2021-08-09T10:46:59Z</time>
      </trkpt>
      <trkpt lat="47.82522" lon="7.00828">
        <ele>1140</ele>
        <time>2021-08-09T10:47:00Z</time>
      </trkpt>
      <trkpt lat="47.82524" lon="7.00825">
        <ele>1140.1</ele>
        <time>2021-08-09T10:47:01Z</time>
      </trkpt>
      <trkpt lat="47.82525" lon="7.00823">
        <ele>1140.1</ele>
        <time>2021-08-09T10:47:02Z</time>
      </trkpt>
      <trkpt lat="47.82526" lon="7.00822">
        <ele>1140.2</ele>
        <time>2021-08-09T10:47:04Z</time>
      </trkpt>
      <trkpt lat="47.82527" lon="7.0082">
        <ele>1140.3</ele>
        <time>2021-08-09T10:47:05Z</time>
      </trkpt>
      <trkpt lat="47.82529" lon="7.00819">
        <ele>1140.3</ele>
        <time>2021-08-09T10:47:06Z</time>
      </trkpt>
      <trkpt lat="47.82529" lon="7.00817">
        <ele>1140.4</ele>
        <time>2021-08-09T10:47:07Z</time>
      </trkpt>
      <trkpt lat="47.82529" lon="7.00815">
        <ele>1140.5</ele>
        <time>2021-08-09T10:47:08Z</time>
      </trkpt>
      <trkpt lat="47.82531" lon="7.00813">
        <ele>1140.5</ele>
        <time>2021-08-09T10:47:09Z</time>
      </trkpt>
      <trkpt lat="47.82532" lon="7.00811">
        <ele>1140.6</ele>
        <time>2021-08-09T10:47:11Z</time>
      </trkpt>
      <trkpt lat="47.82533" lon="7.0081">
        <ele>1140.7</ele>
        <time>2021-08-09T10:47:12Z</time>
      </trkpt>
      <trkpt lat="47.82534" lon="7.0081">
        <ele>1140.7</ele>
        <time>2021-08-09T10:47:13Z</time>
      </trkpt>
      <trkpt lat="47.82535" lon="7.00808">
        <ele>1140.8</ele>
        <time>2021-08-09T10:47:14Z</time>
      </trkpt>
      <trkpt lat="47.82536" lon="7.00806">
        <ele>1140.9</ele>
        <time>2021-08-09T10:47:15Z</time>
      </trkpt>
      <trkpt lat="47.82537" lon="7.00804">
        <ele>1141</ele>
        <time>2021-08-09T10:47:17Z</time>
      </trkpt>
      <trkpt lat="47.82539" lon="7.00802">
        <ele>1141</ele>
        <time>2021-08-09T10:47:18Z</time>
      </trkpt>
      <trkpt lat="47.82541" lon="7.00799">
        <ele>1141.2</ele>
        <time>2021-08-09T10:47:20Z</time>
      </trkpt>
      <trkpt lat="47.82543" lon="7.00798">
        <ele>1141.3</ele>
        <time>2021-08-09T10:47:21Z</time>
      </trkpt>
      <trkpt lat="47.82544" lon="7.00796">
        <ele>1141.3</ele>
        <time>2021-08-09T10:47:22Z</time>
      </trkpt>
      <trkpt lat="47.82546" lon="7.00793">
        <ele>1141.4</ele>
        <time>2021-08-09T10:47:23Z</time>
      </trkpt>
      <trkpt lat="47.82546" lon="7.00792">
        <ele>1141.5</ele>
        <time>2021-08-09T10:47:24Z</time>
      </trkpt>
      <trkpt lat="47.82548" lon="7.0079">
        <ele>1141.6</ele>
        <time>2021-08-09T10:47:25Z</time>
      </trkpt>
      <trkpt lat="47.8255" lon="7.00787">
        <ele>1141.7</ele>
        <time>2021-08-09T10:47:27Z</time>
      </trkpt>
      <trkpt lat="47.82553" lon="7.00782">
        <ele>1141.9</ele>
        <time>2021-08-09T10:47:28Z</time>
      </trkpt>
      <trkpt lat="47.82554" lon="7.00781">
        <ele>1141.9</ele>
        <time>2021-08-09T10:47:29Z</time>
      </trkpt>
      <trkpt lat="47.82555" lon="7.00779">
        <ele>1142</ele>
        <time>2021-08-09T10:47:30Z</time>
      </trkpt>
      <trkpt lat="47.82558" lon="7.00775">
        <ele>1142.2</ele>
        <time>2021-08-09T10:47:32Z</time>
      </trkpt>
      <trkpt lat="47.8256" lon="7.00772">
        <ele>1142.3</ele>
        <time>2021-08-09T10:47:33Z</time>
      </trkpt>
      <trkpt lat="47.82562" lon="7.00768">
        <ele>1142.4</ele>
        <time>2021-08-09T10:47:34Z</time>
      </trkpt>
      <trkpt lat="47.82565" lon="7.00764">
        <ele>1142.5</ele>
        <time>2021-08-09T10:47:36Z</time>
      </trkpt>
      <trkpt lat="47.82567" lon="7.00758">
        <ele>1142.6</ele>
        <time>2021-08-09T10:47:38Z</time>
      </trkpt>
      <trkpt lat="47.82569" lon="7.00754">
        <ele>1142.7</ele>
        <time>2021-08-09T10:47:39Z</time>
      </trkpt>
      <trkpt lat="47.82571" lon="7.0075">
        <ele>1142.8</ele>
        <time>2021-08-09T10:47:40Z</time>
      </trkpt>
      <trkpt lat="47.82571" lon="7.00749">
        <ele>1142.8</ele>
        <time>2021-08-09T10:47:41Z</time>
      </trkpt>
      <trkpt lat="47.82572" lon="7.00747">
        <ele>1142.9</ele>
        <time>2021-08-09T10:47:42Z</time>
      </trkpt>
      <trkpt lat="47.82574" lon="7.00746">
        <ele>1142.9</ele>
        <time>2021-08-09T10:47:43Z</time>
      </trkpt>
      <trkpt lat="47.82578" lon="7.00742">
        <ele>1143.1</ele>
        <time>2021-08-09T10:47:45Z</time>
      </trkpt>
      <trkpt lat="47.82579" lon="7.0074">
        <ele>1143.1</ele>
        <time>2021-08-09T10:47:46Z</time>
      </trkpt>
      <trkpt lat="47.82579" lon="7.00739">
        <ele>1143.2</ele>
        <time>2021-08-09T10:47:47Z</time>
      </trkpt>
      <trkpt lat="47.82582" lon="7.00735">
        <ele>1143.3</ele>
        <time>2021-08-09T10:47:49Z</time>
      </trkpt>
      <trkpt lat="47.82585" lon="7.00731">
        <ele>1143.5</ele>
        <time>2021-08-09T10:47:50Z</time>
      </trkpt>
      <trkpt lat="47.82586" lon="7.0073">
        <ele>1143.6</ele>
        <time>2021-08-09T10:47:51Z</time>
      </trkpt>
      <trkpt lat="47.82589" lon="7.00724">
        <ele>1143.8</ele>
        <time>2021-08-09T10:47:53Z</time>
      </trkpt>
      <trkpt lat="47.82591" lon="7.00721">
        <ele>1143.9</ele>
        <time>2021-08-09T10:47:54Z</time>
      </trkpt>
      <trkpt lat="47.82592" lon="7.00715">
        <ele>1144.2</ele>
        <time>2021-08-09T10:47:56Z</time>
      </trkpt>
      <trkpt lat="47.82593" lon="7.00712">
        <ele>1144.3</ele>
        <time>2021-08-09T10:47:57Z</time>
      </trkpt>
      <trkpt lat="47.82595" lon="7.00708">
        <ele>1144.5</ele>
        <time>2021-08-09T10:47:59Z</time>
      </trkpt>
      <trkpt lat="47.82595" lon="7.00707">
        <ele>1144.6</ele>
        <time>2021-08-09T10:48:00Z</time>
      </trkpt>
      <trkpt lat="47.82596" lon="7.00704">
        <ele>1144.8</ele>
        <time>2021-08-09T10:48:01Z</time>
      </trkpt>
      <trkpt lat="47.82595" lon="7.007">
        <ele>1145</ele>
        <time>2021-08-09T10:48:03Z</time>
      </trkpt>
      <trkpt lat="47.82595" lon="7.00698">
        <ele>1145.1</ele>
        <time>2021-08-09T10:48:04Z</time>
      </trkpt>
      <trkpt lat="47.82596" lon="7.00694">
        <ele>1145.3</ele>
        <time>2021-08-09T10:48:06Z</time>
      </trkpt>
      <trkpt lat="47.82596" lon="7.00693">
        <ele>1145.4</ele>
        <time>2021-08-09T10:48:07Z</time>
      </trkpt>
      <trkpt lat="47.82598" lon="7.00693">
        <ele>1145.5</ele>
        <time>2021-08-09T10:48:09Z</time>
      </trkpt>
      <trkpt lat="47.82598" lon="7.00692">
        <ele>1145.6</ele>
        <time>2021-08-09T10:48:10Z</time>
      </trkpt>
      <trkpt lat="47.82599" lon="7.00691">
        <ele>1145.7</ele>
        <time>2021-08-09T10:48:11Z</time>
      </trkpt>
      <trkpt lat="47.82602" lon="7.00687">
        <ele>1146.1</ele>
        <time>2021-08-09T10:48:13Z</time>
      </trkpt>
      <trkpt lat="47.82604" lon="7.00686">
        <ele>1146.2</ele>
        <time>2021-08-09T10:48:14Z</time>
      </trkpt>
      <trkpt lat="47.82607" lon="7.00682">
        <ele>1146.6</ele>
        <time>2021-08-09T10:48:16Z</time>
      </trkpt>
      <trkpt lat="47.8261" lon="7.00679">
        <ele>1147</ele>
        <time>2021-08-09T10:48:17Z</time>
      </trkpt>
      <trkpt lat="47.82613" lon="7.00676">
        <ele>1147.3</ele>
        <time>2021-08-09T10:48:19Z</time>
      </trkpt>
      <trkpt lat="47.82614" lon="7.00674">
        <ele>1147.5</ele>
        <time>2021-08-09T10:48:20Z</time>
      </trkpt>
      <trkpt lat="47.82615" lon="7.00673">
        <ele>1147.7</ele>
        <time>2021-08-09T10:48:21Z</time>
      </trkpt>
      <trkpt lat="47.82617" lon="7.00671">
        <ele>1147.9</ele>
        <time>2021-08-09T10:48:23Z</time>
      </trkpt>
      <trkpt lat="47.82618" lon="7.00669">
        <ele>1148</ele>
        <time>2021-08-09T10:48:24Z</time>
      </trkpt>
      <trkpt lat="47.82618" lon="7.00668">
        <ele>1148.1</ele>
        <time>2021-08-09T10:48:25Z</time>
      </trkpt>
      <trkpt lat="47.8262" lon="7.00667">
        <ele>1148.2</ele>
        <time>2021-08-09T10:48:26Z</time>
      </trkpt>
      <trkpt lat="47.82621" lon="7.00665">
        <ele>1148.4</ele>
        <time>2021-08-09T10:48:28Z</time>
      </trkpt>
      <trkpt lat="47.82622" lon="7.00664">
        <ele>1148.5</ele>
        <time>2021-08-09T10:48:29Z</time>
      </trkpt>
      <trkpt lat="47.82624" lon="7.00664">
        <ele>1148.7</ele>
        <time>2021-08-09T10:48:30Z</time>
      </trkpt>
      <trkpt lat="47.82628" lon="7.00663">
        <ele>1149</ele>
        <time>2021-08-09T10:48:32Z</time>
      </trkpt>
      <trkpt lat="47.82629" lon="7.00663">
        <ele>1149.1</ele>
        <time>2021-08-09T10:48:33Z</time>
      </trkpt>
      <trkpt lat="47.82631" lon="7.00664">
        <ele>1149.3</ele>
        <time>2021-08-09T10:48:35Z</time>
      </trkpt>
      <trkpt lat="47.82632" lon="7.00664">
        <ele>1149.5</ele>
        <time>2021-08-09T10:48:36Z</time>
      </trkpt>
      <trkpt lat="47.82634" lon="7.00665">
        <ele>1149.7</ele>
        <time>2021-08-09T10:48:37Z</time>
      </trkpt>
      <trkpt lat="47.82635" lon="7.00665">
        <ele>1149.8</ele>
        <time>2021-08-09T10:48:38Z</time>
      </trkpt>
      <trkpt lat="47.82638" lon="7.00666">
        <ele>1150.1</ele>
        <time>2021-08-09T10:48:40Z</time>
      </trkpt>
      <trkpt lat="47.82639" lon="7.00666">
        <ele>1150.1</ele>
        <time>2021-08-09T10:48:41Z</time>
      </trkpt>
      <trkpt lat="47.82642" lon="7.00666">
        <ele>1150.4</ele>
        <time>2021-08-09T10:48:42Z</time>
      </trkpt>
      <trkpt lat="47.82644" lon="7.00666">
        <ele>1150.5</ele>
        <time>2021-08-09T10:48:44Z</time>
      </trkpt>
      <trkpt lat="47.82645" lon="7.00667">
        <ele>1150.7</ele>
        <time>2021-08-09T10:48:46Z</time>
      </trkpt>
      <trkpt lat="47.82646" lon="7.00667">
        <ele>1150.8</ele>
        <time>2021-08-09T10:48:47Z</time>
      </trkpt>
      <trkpt lat="47.82648" lon="7.00664">
        <ele>1151</ele>
        <time>2021-08-09T10:48:49Z</time>
      </trkpt>
      <trkpt lat="47.82648" lon="7.00663">
        <ele>1151.1</ele>
        <time>2021-08-09T10:48:50Z</time>
      </trkpt>
      <trkpt lat="47.82648" lon="7.00661">
        <ele>1151.2</ele>
        <time>2021-08-09T10:48:51Z</time>
      </trkpt>
      <trkpt lat="47.82648" lon="7.00658">
        <ele>1151.4</ele>
        <time>2021-08-09T10:48:53Z</time>
      </trkpt>
      <trkpt lat="47.82648" lon="7.00656">
        <ele>1151.5</ele>
        <time>2021-08-09T10:48:54Z</time>
      </trkpt>
      <trkpt lat="47.82648" lon="7.00653">
        <ele>1151.7</ele>
        <time>2021-08-09T10:48:55Z</time>
      </trkpt>
      <trkpt lat="47.82649" lon="7.00651">
        <ele>1151.8</ele>
        <time>2021-08-09T10:48:56Z</time>
      </trkpt>
      <trkpt lat="47.82651" lon="7.00648">
        <ele>1152.1</ele>
        <time>2021-08-09T10:48:58Z</time>
      </trkpt>
      <trkpt lat="47.82652" lon="7.00647">
        <ele>1152.2</ele>
        <time>2021-08-09T10:48:59Z</time>
      </trkpt>
      <trkpt lat="47.82653" lon="7.00646">
        <ele>1152.3</ele>
        <time>2021-08-09T10:49:00Z</time>
      </trkpt>
      <trkpt lat="47.82654" lon="7.00644">
        <ele>1152.4</ele>
        <time>2021-08-09T10:49:01Z</time>
      </trkpt>
      <trkpt lat="47.82654" lon="7.00643">
        <ele>1152.6</ele>
        <time>2021-08-09T10:49:02Z</time>
      </trkpt>
      <trkpt lat="47.82656" lon="7.00639">
        <ele>1152.8</ele>
        <time>2021-08-09T10:49:04Z</time>
      </trkpt>
      <trkpt lat="47.82659" lon="7.00636">
        <ele>1153.1</ele>
        <time>2021-08-09T10:49:05Z</time>
      </trkpt>
      <trkpt lat="47.82659" lon="7.00635">
        <ele>1153.2</ele>
        <time>2021-08-09T10:49:06Z</time>
      </trkpt>
      <trkpt lat="47.82661" lon="7.00633">
        <ele>1153.4</ele>
        <time>2021-08-09T10:49:08Z</time>
      </trkpt>
      <trkpt lat="47.82662" lon="7.00632">
        <ele>1153.6</ele>
        <time>2021-08-09T10:49:09Z</time>
      </trkpt>
      <trkpt lat="47.82663" lon="7.00632">
        <ele>1153.6</ele>
        <time>2021-08-09T10:49:10Z</time>
      </trkpt>
      <trkpt lat="47.82665" lon="7.00631">
        <ele>1153.8</ele>
        <time>2021-08-09T10:49:12Z</time>
      </trkpt>
      <trkpt lat="47.82665" lon="7.00631">
        <ele>1153.9</ele>
        <time>2021-08-09T10:49:13Z</time>
      </trkpt>
      <trkpt lat="47.82666" lon="7.0063">
        <ele>1154</ele>
        <time>2021-08-09T10:49:14Z</time>
      </trkpt>
      <trkpt lat="47.82668" lon="7.00629">
        <ele>1154.1</ele>
        <time>2021-08-09T10:49:15Z</time>
      </trkpt>
      <trkpt lat="47.82668" lon="7.00629">
        <ele>1154.1</ele>
        <time>2021-08-09T10:49:16Z</time>
      </trkpt>
      <trkpt lat="47.82668" lon="7.00628">
        <ele>1154.2</ele>
        <time>2021-08-09T10:49:18Z</time>
      </trkpt>
      <trkpt lat="47.82669" lon="7.00627">
        <ele>1154.3</ele>
        <time>2021-08-09T10:49:19Z</time>
      </trkpt>
      <trkpt lat="47.82669" lon="7.00626">
        <ele>1154.4</ele>
        <time>2021-08-09T10:49:21Z</time>
      </trkpt>
      <trkpt lat="47.8267" lon="7.00624">
        <ele>1154.5</ele>
        <time>2021-08-09T10:49:23Z</time>
      </trkpt>
      <trkpt lat="47.8267" lon="7.00622">
        <ele>1154.6</ele>
        <time>2021-08-09T10:49:24Z</time>
      </trkpt>
      <trkpt lat="47.82696" lon="7.00619">
        <ele>1156.7</ele>
        <time>2021-08-09T10:50:18Z</time>
      </trkpt>
      <trkpt lat="47.82698" lon="7.00618">
        <ele>1156.9</ele>
        <time>2021-08-09T10:50:19Z</time>
      </trkpt>
      <trkpt lat="47.827" lon="7.00618">
        <ele>1157</ele>
        <time>2021-08-09T10:50:21Z</time>
      </trkpt>
      <trkpt lat="47.82702" lon="7.00617">
        <ele>1157.1</ele>
        <time>2021-08-09T10:50:22Z</time>
      </trkpt>
      <trkpt lat="47.82703" lon="7.00616">
        <ele>1157.1</ele>
        <time>2021-08-09T10:50:23Z</time>
      </trkpt>
      <trkpt lat="47.82704" lon="7.00616">
        <ele>1157.2</ele>
        <time>2021-08-09T10:50:24Z</time>
      </trkpt>
      <trkpt lat="47.82704" lon="7.00615">
        <ele>1157.2</ele>
        <time>2021-08-09T10:50:26Z</time>
      </trkpt>
      <trkpt lat="47.82704" lon="7.00614">
        <ele>1157.3</ele>
        <time>2021-08-09T10:50:27Z</time>
      </trkpt>
      <trkpt lat="47.82705" lon="7.00614">
        <ele>1157.3</ele>
        <time>2021-08-09T10:50:28Z</time>
      </trkpt>
      <trkpt lat="47.82706" lon="7.00613">
        <ele>1157.4</ele>
        <time>2021-08-09T10:50:30Z</time>
      </trkpt>
      <trkpt lat="47.82708" lon="7.00612">
        <ele>1157.5</ele>
        <time>2021-08-09T10:50:31Z</time>
      </trkpt>
      <trkpt lat="47.82709" lon="7.00612">
        <ele>1157.6</ele>
        <time>2021-08-09T10:50:32Z</time>
      </trkpt>
      <trkpt lat="47.82714" lon="7.00612">
        <ele>1157.9</ele>
        <time>2021-08-09T10:50:34Z</time>
      </trkpt>
      <trkpt lat="47.82715" lon="7.00612">
        <ele>1158</ele>
        <time>2021-08-09T10:50:35Z</time>
      </trkpt>
      <trkpt lat="47.82717" lon="7.00612">
        <ele>1158.1</ele>
        <time>2021-08-09T10:50:36Z</time>
      </trkpt>
      <trkpt lat="47.82718" lon="7.00612">
        <ele>1158.2</ele>
        <time>2021-08-09T10:50:37Z</time>
      </trkpt>
      <trkpt lat="47.82719" lon="7.00613">
        <ele>1158.3</ele>
        <time>2021-08-09T10:50:39Z</time>
      </trkpt>
      <trkpt lat="47.82721" lon="7.00613">
        <ele>1158.4</ele>
        <time>2021-08-09T10:50:40Z</time>
      </trkpt>
      <trkpt lat="47.82722" lon="7.00613">
        <ele>1158.4</ele>
        <time>2021-08-09T10:50:41Z</time>
      </trkpt>
      <trkpt lat="47.82723" lon="7.00612">
        <ele>1158.5</ele>
        <time>2021-08-09T10:50:42Z</time>
      </trkpt>
      <trkpt lat="47.82724" lon="7.00609">
        <ele>1158.6</ele>
        <time>2021-08-09T10:50:43Z</time>
      </trkpt>
      <trkpt lat="47.82724" lon="7.00608">
        <ele>1158.7</ele>
        <time>2021-08-09T10:50:45Z</time>
      </trkpt>
      <trkpt lat="47.82724" lon="7.00607">
        <ele>1158.8</ele>
        <time>2021-08-09T10:50:46Z</time>
      </trkpt>
      <trkpt lat="47.82725" lon="7.00605">
        <ele>1158.9</ele>
        <time>2021-08-09T10:50:48Z</time>
      </trkpt>
      <trkpt lat="47.82726" lon="7.00603">
        <ele>1158.9</ele>
        <time>2021-08-09T10:50:49Z</time>
      </trkpt>
      <trkpt lat="47.82727" lon="7.00602">
        <ele>1159</ele>
        <time>2021-08-09T10:50:50Z</time>
      </trkpt>
      <trkpt lat="47.82728" lon="7.00602">
        <ele>1159.1</ele>
        <time>2021-08-09T10:50:52Z</time>
      </trkpt>
      <trkpt lat="47.82728" lon="7.00602">
        <ele>1159.1</ele>
        <time>2021-08-09T10:50:53Z</time>
      </trkpt>
      <trkpt lat="47.82727" lon="7.00601">
        <ele>1159.1</ele>
        <time>2021-08-09T10:50:55Z</time>
      </trkpt>
      <trkpt lat="47.82728" lon="7.00601">
        <ele>1159.1</ele>
        <time>2021-08-09T10:50:56Z</time>
      </trkpt>
      <trkpt lat="47.82728" lon="7.006">
        <ele>1159.2</ele>
        <time>2021-08-09T10:50:57Z</time>
      </trkpt>
      <trkpt lat="47.82729" lon="7.006">
        <ele>1159.2</ele>
        <time>2021-08-09T10:50:59Z</time>
      </trkpt>
      <trkpt lat="47.8273" lon="7.00599">
        <ele>1159.3</ele>
        <time>2021-08-09T10:51:00Z</time>
      </trkpt>
      <trkpt lat="47.82732" lon="7.00598">
        <ele>1159.4</ele>
        <time>2021-08-09T10:51:01Z</time>
      </trkpt>
      <trkpt lat="47.82734" lon="7.00597">
        <ele>1159.5</ele>
        <time>2021-08-09T10:51:03Z</time>
      </trkpt>
      <trkpt lat="47.82747" lon="7.00585">
        <ele>1159.8</ele>
        <time>2021-08-09T10:51:10Z</time>
      </trkpt>
      <trkpt lat="47.8275" lon="7.00583">
        <ele>1159.9</ele>
        <time>2021-08-09T10:51:11Z</time>
      </trkpt>
      <trkpt lat="47.82753" lon="7.00578">
        <ele>1160</ele>
        <time>2021-08-09T10:51:12Z</time>
      </trkpt>
      <trkpt lat="47.82758" lon="7.00569">
        <ele>1160</ele>
        <time>2021-08-09T10:51:14Z</time>
      </trkpt>
      <trkpt lat="47.82761" lon="7.00565">
        <ele>1160</ele>
        <time>2021-08-09T10:51:15Z</time>
      </trkpt>
      <trkpt lat="47.82766" lon="7.00559">
        <ele>1160</ele>
        <time>2021-08-09T10:51:16Z</time>
      </trkpt>
      <trkpt lat="47.82769" lon="7.00555">
        <ele>1160</ele>
        <time>2021-08-09T10:51:18Z</time>
      </trkpt>
      <trkpt lat="47.82772" lon="7.0055">
        <ele>1159.9</ele>
        <time>2021-08-09T10:51:19Z</time>
      </trkpt>
      <trkpt lat="47.82774" lon="7.00547">
        <ele>1159.9</ele>
        <time>2021-08-09T10:51:20Z</time>
      </trkpt>
      <trkpt lat="47.82779" lon="7.00543">
        <ele>1159.9</ele>
        <time>2021-08-09T10:51:22Z</time>
      </trkpt>
      <trkpt lat="47.82782" lon="7.00542">
        <ele>1159.9</ele>
        <time>2021-08-09T10:51:23Z</time>
      </trkpt>
      <trkpt lat="47.82786" lon="7.00539">
        <ele>1160</ele>
        <time>2021-08-09T10:51:24Z</time>
      </trkpt>
      <trkpt lat="47.82787" lon="7.00539">
        <ele>1160</ele>
        <time>2021-08-09T10:51:25Z</time>
      </trkpt>
      <trkpt lat="47.8279" lon="7.00536">
        <ele>1160</ele>
        <time>2021-08-09T10:51:26Z</time>
      </trkpt>
      <trkpt lat="47.82791" lon="7.00535">
        <ele>1160.1</ele>
        <time>2021-08-09T10:51:27Z</time>
      </trkpt>
      <trkpt lat="47.82795" lon="7.00531">
        <ele>1160.2</ele>
        <time>2021-08-09T10:51:28Z</time>
      </trkpt>
      <trkpt lat="47.82798" lon="7.00529">
        <ele>1160.2</ele>
        <time>2021-08-09T10:51:30Z</time>
      </trkpt>
      <trkpt lat="47.82801" lon="7.00528">
        <ele>1160.4</ele>
        <time>2021-08-09T10:51:31Z</time>
      </trkpt>
      <trkpt lat="47.82803" lon="7.00527">
        <ele>1160.4</ele>
        <time>2021-08-09T10:51:32Z</time>
      </trkpt>
      <trkpt lat="47.82807" lon="7.00526">
        <ele>1160.6</ele>
        <time>2021-08-09T10:51:34Z</time>
      </trkpt>
      <trkpt lat="47.8281" lon="7.00525">
        <ele>1160.8</ele>
        <time>2021-08-09T10:51:35Z</time>
      </trkpt>
      <trkpt lat="47.82813" lon="7.00524">
        <ele>1161</ele>
        <time>2021-08-09T10:51:36Z</time>
      </trkpt>
      <trkpt lat="47.82816" lon="7.00523">
        <ele>1161.1</ele>
        <time>2021-08-09T10:51:37Z</time>
      </trkpt>
      <trkpt lat="47.82819" lon="7.00524">
        <ele>1161.3</ele>
        <time>2021-08-09T10:51:39Z</time>
      </trkpt>
      <trkpt lat="47.82822" lon="7.00524">
        <ele>1161.5</ele>
        <time>2021-08-09T10:51:40Z</time>
      </trkpt>
      <trkpt lat="47.82826" lon="7.00524">
        <ele>1161.7</ele>
        <time>2021-08-09T10:51:42Z</time>
      </trkpt>
      <trkpt lat="47.82827" lon="7.00523">
        <ele>1161.8</ele>
        <time>2021-08-09T10:51:43Z</time>
      </trkpt>
      <trkpt lat="47.82828" lon="7.00522">
        <ele>1161.9</ele>
        <time>2021-08-09T10:51:44Z</time>
      </trkpt>
      <trkpt lat="47.82832" lon="7.00523">
        <ele>1162.2</ele>
        <time>2021-08-09T10:51:46Z</time>
      </trkpt>
      <trkpt lat="47.82834" lon="7.00523">
        <ele>1162.3</ele>
        <time>2021-08-09T10:51:47Z</time>
      </trkpt>
      <trkpt lat="47.82835" lon="7.00523">
        <ele>1162.4</ele>
        <time>2021-08-09T10:51:48Z</time>
      </trkpt>
      <trkpt lat="47.82836" lon="7.00522">
        <ele>1162.5</ele>
        <time>2021-08-09T10:51:49Z</time>
      </trkpt>
      <trkpt lat="47.82838" lon="7.00522">
        <ele>1162.7</ele>
        <time>2021-08-09T10:51:51Z</time>
      </trkpt>
      <trkpt lat="47.82838" lon="7.00523">
        <ele>1162.7</ele>
        <time>2021-08-09T10:51:52Z</time>
      </trkpt>
      <trkpt lat="47.82839" lon="7.00523">
        <ele>1162.8</ele>
        <time>2021-08-09T10:51:53Z</time>
      </trkpt>
      <trkpt lat="47.8284" lon="7.00524">
        <ele>1162.9</ele>
        <time>2021-08-09T10:51:55Z</time>
      </trkpt>
      <trkpt lat="47.82841" lon="7.00525">
        <ele>1162.9</ele>
        <time>2021-08-09T10:51:57Z</time>
      </trkpt>
      <trkpt lat="47.82839" lon="7.00526">
        <ele>1163.1</ele>
        <time>2021-08-09T10:51:59Z</time>
      </trkpt>
      <trkpt lat="47.82838" lon="7.00526">
        <ele>1163.1</ele>
        <time>2021-08-09T10:52:00Z</time>
      </trkpt>
      <trkpt lat="47.82838" lon="7.00526">
        <ele>1163.2</ele>
        <time>2021-08-09T10:52:01Z</time>
      </trkpt>
      <trkpt lat="47.82837" lon="7.00525">
        <ele>1163.3</ele>
        <time>2021-08-09T10:52:03Z</time>
      </trkpt>
      <trkpt lat="47.82835" lon="7.00524">
        <ele>1163.4</ele>
        <time>2021-08-09T10:52:05Z</time>
      </trkpt>
      <trkpt lat="47.82834" lon="7.00524">
        <ele>1163.5</ele>
        <time>2021-08-09T10:52:07Z</time>
      </trkpt>
      <trkpt lat="47.8285" lon="7.0052">
        <ele>1164.9</ele>
        <time>2021-08-09T10:52:34Z</time>
      </trkpt>
      <trkpt lat="47.82853" lon="7.00519">
        <ele>1165.1</ele>
        <time>2021-08-09T10:52:35Z</time>
      </trkpt>
      <trkpt lat="47.82857" lon="7.00519">
        <ele>1165.4</ele>
        <time>2021-08-09T10:52:37Z</time>
      </trkpt>
      <trkpt lat="47.82858" lon="7.00519">
        <ele>1165.5</ele>
        <time>2021-08-09T10:52:38Z</time>
      </trkpt>
      <trkpt lat="47.8286" lon="7.00519">
        <ele>1165.7</ele>
        <time>2021-08-09T10:52:39Z</time>
      </trkpt>
      <trkpt lat="47.82863" lon="7.00519">
        <ele>1165.9</ele>
        <time>2021-08-09T10:52:41Z</time>
      </trkpt>
      <trkpt lat="47.82865" lon="7.00519">
        <ele>1166.1</ele>
        <time>2021-08-09T10:52:42Z</time>
      </trkpt>
      <trkpt lat="47.82866" lon="7.00519">
        <ele>1166.2</ele>
        <time>2021-08-09T10:52:43Z</time>
      </trkpt>
      <trkpt lat="47.82869" lon="7.00519">
        <ele>1166.4</ele>
        <time>2021-08-09T10:52:44Z</time>
      </trkpt>
      <trkpt lat="47.82871" lon="7.00519">
        <ele>1166.5</ele>
        <time>2021-08-09T10:52:46Z</time>
      </trkpt>
      <trkpt lat="47.82872" lon="7.00518">
        <ele>1166.6</ele>
        <time>2021-08-09T10:52:47Z</time>
      </trkpt>
      <trkpt lat="47.82874" lon="7.00518">
        <ele>1166.7</ele>
        <time>2021-08-09T10:52:48Z</time>
      </trkpt>
      <trkpt lat="47.82875" lon="7.00517">
        <ele>1166.8</ele>
        <time>2021-08-09T10:52:49Z</time>
      </trkpt>
      <trkpt lat="47.82876" lon="7.00517">
        <ele>1166.9</ele>
        <time>2021-08-09T10:52:51Z</time>
      </trkpt>
      <trkpt lat="47.82877" lon="7.00516">
        <ele>1167</ele>
        <time>2021-08-09T10:52:52Z</time>
      </trkpt>
      <trkpt lat="47.8288" lon="7.00514">
        <ele>1167.1</ele>
        <time>2021-08-09T10:52:53Z</time>
      </trkpt>
      <trkpt lat="47.82881" lon="7.00514">
        <ele>1167.2</ele>
        <time>2021-08-09T10:52:54Z</time>
      </trkpt>
      <trkpt lat="47.82881" lon="7.00513">
        <ele>1167.3</ele>
        <time>2021-08-09T10:52:55Z</time>
      </trkpt>
      <trkpt lat="47.82883" lon="7.00513">
        <ele>1167.3</ele>
        <time>2021-08-09T10:52:57Z</time>
      </trkpt>
      <trkpt lat="47.82884" lon="7.00512">
        <ele>1167.4</ele>
        <time>2021-08-09T10:52:58Z</time>
      </trkpt>
      <trkpt lat="47.82885" lon="7.00512">
        <ele>1167.5</ele>
        <time>2021-08-09T10:52:59Z</time>
      </trkpt>
      <trkpt lat="47.82887" lon="7.00511">
        <ele>1167.6</ele>
        <time>2021-08-09T10:53:01Z</time>
      </trkpt>
      <trkpt lat="47.82889" lon="7.00511">
        <ele>1167.7</ele>
        <time>2021-08-09T10:53:03Z</time>
      </trkpt>
      <trkpt lat="47.82891" lon="7.00511">
        <ele>1167.8</ele>
        <time>2021-08-09T10:53:04Z</time>
      </trkpt>
      <trkpt lat="47.82892" lon="7.00511">
        <ele>1167.8</ele>
        <time>2021-08-09T10:53:06Z</time>
      </trkpt>
      <trkpt lat="47.82893" lon="7.0051">
        <ele>1167.9</ele>
        <time>2021-08-09T10:53:07Z</time>
      </trkpt>
      <trkpt lat="47.82894" lon="7.0051">
        <ele>1167.9</ele>
        <time>2021-08-09T10:53:08Z</time>
      </trkpt>
      <trkpt lat="47.82895" lon="7.0051">
        <ele>1167.9</ele>
        <time>2021-08-09T10:53:10Z</time>
      </trkpt>
      <trkpt lat="47.82896" lon="7.0051">
        <ele>1168</ele>
        <time>2021-08-09T10:53:11Z</time>
      </trkpt>
      <trkpt lat="47.82897" lon="7.00509">
        <ele>1168</ele>
        <time>2021-08-09T10:53:12Z</time>
      </trkpt>
      <trkpt lat="47.82898" lon="7.00508">
        <ele>1168</ele>
        <time>2021-08-09T10:53:13Z</time>
      </trkpt>
      <trkpt lat="47.82899" lon="7.00508">
        <ele>1168</ele>
        <time>2021-08-09T10:53:14Z</time>
      </trkpt>
      <trkpt lat="47.82899" lon="7.00506">
        <ele>1168.1</ele>
        <time>2021-08-09T10:53:15Z</time>
      </trkpt>
      <trkpt lat="47.829" lon="7.00505">
        <ele>1168.1</ele>
        <time>2021-08-09T10:53:17Z</time>
      </trkpt>
      <trkpt lat="47.82901" lon="7.00504">
        <ele>1168.1</ele>
        <time>2021-08-09T10:53:18Z</time>
      </trkpt>
      <trkpt lat="47.82902" lon="7.00502">
        <ele>1168.1</ele>
        <time>2021-08-09T10:53:19Z</time>
      </trkpt>
      <trkpt lat="47.82902" lon="7.00501">
        <ele>1168.1</ele>
        <time>2021-08-09T10:53:20Z</time>
      </trkpt>
      <trkpt lat="47.82903" lon="7.005">
        <ele>1168.1</ele>
        <time>2021-08-09T10:53:22Z</time>
      </trkpt>
      <trkpt lat="47.82904" lon="7.00499">
        <ele>1168</ele>
        <time>2021-08-09T10:53:23Z</time>
      </trkpt>
      <trkpt lat="47.82905" lon="7.00498">
        <ele>1168</ele>
        <time>2021-08-09T10:53:25Z</time>
      </trkpt>
      <trkpt lat="47.82906" lon="7.00497">
        <ele>1168</ele>
        <time>2021-08-09T10:53:26Z</time>
      </trkpt>
      <trkpt lat="47.82907" lon="7.00496">
        <ele>1167.9</ele>
        <time>2021-08-09T10:53:27Z</time>
      </trkpt>
      <trkpt lat="47.82908" lon="7.00494">
        <ele>1167.8</ele>
        <time>2021-08-09T10:53:29Z</time>
      </trkpt>
      <trkpt lat="47.82909" lon="7.00493">
        <ele>1167.8</ele>
        <time>2021-08-09T10:53:30Z</time>
      </trkpt>
      <trkpt lat="47.8291" lon="7.00491">
        <ele>1167.7</ele>
        <time>2021-08-09T10:53:31Z</time>
      </trkpt>
      <trkpt lat="47.82911" lon="7.0049">
        <ele>1167.6</ele>
        <time>2021-08-09T10:53:32Z</time>
      </trkpt>
      <trkpt lat="47.82912" lon="7.00488">
        <ele>1167.4</ele>
        <time>2021-08-09T10:53:33Z</time>
      </trkpt>
      <trkpt lat="47.82912" lon="7.00487">
        <ele>1167.4</ele>
        <time>2021-08-09T10:53:35Z</time>
      </trkpt>
      <trkpt lat="47.82912" lon="7.00486">
        <ele>1167.3</ele>
        <time>2021-08-09T10:53:36Z</time>
      </trkpt>
      <trkpt lat="47.82912" lon="7.00486">
        <ele>1167.3</ele>
        <time>2021-08-09T10:53:38Z</time>
      </trkpt>
      <trkpt lat="47.82912" lon="7.00485">
        <ele>1167.2</ele>
        <time>2021-08-09T10:53:40Z</time>
      </trkpt>
      <trkpt lat="47.82912" lon="7.00484">
        <ele>1167.2</ele>
        <time>2021-08-09T10:53:41Z</time>
      </trkpt>
      <trkpt lat="47.82912" lon="7.00483">
        <ele>1167.1</ele>
        <time>2021-08-09T10:53:42Z</time>
      </trkpt>
      <trkpt lat="47.82912" lon="7.00483">
        <ele>1167.1</ele>
        <time>2021-08-09T10:53:43Z</time>
      </trkpt>
      <trkpt lat="47.82912" lon="7.00482">
        <ele>1167</ele>
        <time>2021-08-09T10:53:45Z</time>
      </trkpt>
      <trkpt lat="47.82912" lon="7.00481">
        <ele>1167</ele>
        <time>2021-08-09T10:53:46Z</time>
      </trkpt>
      <trkpt lat="47.82912" lon="7.00481">
        <ele>1166.9</ele>
        <time>2021-08-09T10:53:48Z</time>
      </trkpt>
      <trkpt lat="47.82912" lon="7.0048">
        <ele>1166.9</ele>
        <time>2021-08-09T10:53:49Z</time>
      </trkpt>
      <trkpt lat="47.82912" lon="7.00479">
        <ele>1166.8</ele>
        <time>2021-08-09T10:53:51Z</time>
      </trkpt>
      <trkpt lat="47.82912" lon="7.00478">
        <ele>1166.8</ele>
        <time>2021-08-09T10:53:52Z</time>
      </trkpt>
      <trkpt lat="47.82912" lon="7.00478">
        <ele>1166.7</ele>
        <time>2021-08-09T10:53:54Z</time>
      </trkpt>
      <trkpt lat="47.82912" lon="7.00477">
        <ele>1166.7</ele>
        <time>2021-08-09T10:53:55Z</time>
      </trkpt>
      <trkpt lat="47.82913" lon="7.00476">
        <ele>1166.6</ele>
        <time>2021-08-09T10:53:56Z</time>
      </trkpt>
      <trkpt lat="47.82913" lon="7.00475">
        <ele>1166.5</ele>
        <time>2021-08-09T10:53:59Z</time>
      </trkpt>
      <trkpt lat="47.82913" lon="7.00475">
        <ele>1166.5</ele>
        <time>2021-08-09T10:54:44Z</time>
      </trkpt>
      <trkpt lat="47.82913" lon="7.00474">
        <ele>1166.4</ele>
        <time>2021-08-09T10:54:45Z</time>
      </trkpt>
      <trkpt lat="47.82913" lon="7.00473">
        <ele>1166.3</ele>
        <time>2021-08-09T10:54:46Z</time>
      </trkpt>
      <trkpt lat="47.82915" lon="7.00464">
        <ele>1165.5</ele>
        <time>2021-08-09T10:54:48Z</time>
      </trkpt>
      <trkpt lat="47.82918" lon="7.00452">
        <ele>1164.3</ele>
        <time>2021-08-09T10:54:49Z</time>
      </trkpt>
      <trkpt lat="47.8292" lon="7.00444">
        <ele>1163.6</ele>
        <time>2021-08-09T10:54:50Z</time>
      </trkpt>
      <trkpt lat="47.82924" lon="7.00427">
        <ele>1162</ele>
        <time>2021-08-09T10:54:52Z</time>
      </trkpt>
      <trkpt lat="47.82934" lon="7.00394">
        <ele>1158.9</ele>
        <time>2021-08-09T10:54:53Z</time>
      </trkpt>
      <trkpt lat="47.82936" lon="7.00386">
        <ele>1158.3</ele>
        <time>2021-08-09T10:54:54Z</time>
      </trkpt>
      <trkpt lat="47.8294" lon="7.00373">
        <ele>1157.2</ele>
        <time>2021-08-09T10:54:55Z</time>
      </trkpt>
      <trkpt lat="47.82946" lon="7.00348">
        <ele>1155.6</ele>
        <time>2021-08-09T10:54:57Z</time>
      </trkpt>
      <trkpt lat="47.82949" lon="7.00337">
        <ele>1154.9</ele>
        <time>2021-08-09T10:54:58Z</time>
      </trkpt>
      <trkpt lat="47.82955" lon="7.00315">
        <ele>1153.9</ele>
        <time>2021-08-09T10:55:00Z</time>
      </trkpt>
      <trkpt lat="47.82958" lon="7.00306">
        <ele>1153.6</ele>
        <time>2021-08-09T10:55:01Z</time>
      </trkpt>
      <trkpt lat="47.82962" lon="7.00295">
        <ele>1153.1</ele>
        <time>2021-08-09T10:55:03Z</time>
      </trkpt>
      <trkpt lat="47.82964" lon="7.0029">
        <ele>1152.9</ele>
        <time>2021-08-09T10:55:04Z</time>
      </trkpt>
      <trkpt lat="47.82964" lon="7.00288">
        <ele>1152.8</ele>
        <time>2021-08-09T10:55:05Z</time>
      </trkpt>
      <trkpt lat="47.82966" lon="7.0028">
        <ele>1152.7</ele>
        <time>2021-08-09T10:55:07Z</time>
      </trkpt>
      <trkpt lat="47.82968" lon="7.00276">
        <ele>1152.6</ele>
        <time>2021-08-09T10:55:08Z</time>
      </trkpt>
      <trkpt lat="47.82968" lon="7.00275">
        <ele>1152.6</ele>
        <time>2021-08-09T10:55:09Z</time>
      </trkpt>
      <trkpt lat="47.82968" lon="7.00277">
        <ele>1152.6</ele>
        <time>2021-08-09T10:55:10Z</time>
      </trkpt>
      <trkpt lat="47.82969" lon="7.00274">
        <ele>1152.6</ele>
        <time>2021-08-09T10:55:12Z</time>
      </trkpt>
      <trkpt lat="47.8297" lon="7.0027">
        <ele>1152.6</ele>
        <time>2021-08-09T10:55:13Z</time>
      </trkpt>
      <trkpt lat="47.82972" lon="7.00263">
        <ele>1152.6</ele>
        <time>2021-08-09T10:55:15Z</time>
      </trkpt>
      <trkpt lat="47.82973" lon="7.00258">
        <ele>1152.6</ele>
        <time>2021-08-09T10:55:16Z</time>
      </trkpt>
      <trkpt lat="47.82975" lon="7.00252">
        <ele>1152.6</ele>
        <time>2021-08-09T10:55:18Z</time>
      </trkpt>
      <trkpt lat="47.82976" lon="7.0025">
        <ele>1152.6</ele>
        <time>2021-08-09T10:55:19Z</time>
      </trkpt>
      <trkpt lat="47.82976" lon="7.00249">
        <ele>1152.6</ele>
        <time>2021-08-09T10:55:20Z</time>
      </trkpt>
      <trkpt lat="47.82977" lon="7.00246">
        <ele>1152.6</ele>
        <time>2021-08-09T10:55:21Z</time>
      </trkpt>
      <trkpt lat="47.82979" lon="7.00243">
        <ele>1152.7</ele>
        <time>2021-08-09T10:55:23Z</time>
      </trkpt>
      <trkpt lat="47.8298" lon="7.00242">
        <ele>1152.7</ele>
        <time>2021-08-09T10:55:25Z</time>
      </trkpt>
      <trkpt lat="47.8298" lon="7.00242">
        <ele>1152.7</ele>
        <time>2021-08-09T10:55:26Z</time>
      </trkpt>
      <trkpt lat="47.8298" lon="7.00241">
        <ele>1152.7</ele>
        <time>2021-08-09T10:55:27Z</time>
      </trkpt>
      <trkpt lat="47.82981" lon="7.00241">
        <ele>1152.7</ele>
        <time>2021-08-09T10:55:28Z</time>
      </trkpt>
      <trkpt lat="47.82981" lon="7.0024">
        <ele>1152.7</ele>
        <time>2021-08-09T10:55:30Z</time>
      </trkpt>
      <trkpt lat="47.82981" lon="7.0024">
        <ele>1152.7</ele>
        <time>2021-08-09T10:55:31Z</time>
      </trkpt>
      <trkpt lat="47.82981" lon="7.0024">
        <ele>1152.7</ele>
        <time>2021-08-09T10:55:32Z</time>
      </trkpt>
      <trkpt lat="47.82981" lon="7.0024">
        <ele>1152.7</ele>
        <time>2021-08-09T10:55:34Z</time>
      </trkpt>
      <trkpt lat="47.82985" lon="7.00233">
        <ele>1152.9</ele>
        <time>2021-08-09T10:55:59Z</time>
      </trkpt>
      <trkpt lat="47.82988" lon="7.0023">
        <ele>1153</ele>
        <time>2021-08-09T10:56:00Z</time>
      </trkpt>
      <trkpt lat="47.82991" lon="7.00226">
        <ele>1153.1</ele>
        <time>2021-08-09T10:56:01Z</time>
      </trkpt>
      <trkpt lat="47.82994" lon="7.00222">
        <ele>1153.2</ele>
        <time>2021-08-09T10:56:02Z</time>
      </trkpt>
      <trkpt lat="47.82997" lon="7.00217">
        <ele>1153.3</ele>
        <time>2021-08-09T10:56:04Z</time>
      </trkpt>
      <trkpt lat="47.82999" lon="7.00213">
        <ele>1153.4</ele>
        <time>2021-08-09T10:56:05Z</time>
      </trkpt>
      <trkpt lat="47.83001" lon="7.00208">
        <ele>1153.5</ele>
        <time>2021-08-09T10:56:06Z</time>
      </trkpt>
      <trkpt lat="47.83002" lon="7.00207">
        <ele>1153.5</ele>
        <time>2021-08-09T10:56:07Z</time>
      </trkpt>
      <trkpt lat="47.83005" lon="7.00203">
        <ele>1153.6</ele>
        <time>2021-08-09T10:56:09Z</time>
      </trkpt>
      <trkpt lat="47.83007" lon="7.00201">
        <ele>1153.6</ele>
        <time>2021-08-09T10:56:10Z</time>
      </trkpt>
      <trkpt lat="47.8301" lon="7.00198">
        <ele>1153.6</ele>
        <time>2021-08-09T10:56:11Z</time>
      </trkpt>
      <trkpt lat="47.83013" lon="7.00192">
        <ele>1153.4</ele>
        <time>2021-08-09T10:56:13Z</time>
      </trkpt>
      <trkpt lat="47.83015" lon="7.00188">
        <ele>1153.3</ele>
        <time>2021-08-09T10:56:14Z</time>
      </trkpt>
      <trkpt lat="47.83018" lon="7.00181">
        <ele>1153</ele>
        <time>2021-08-09T10:56:16Z</time>
      </trkpt>
      <trkpt lat="47.83019" lon="7.0018">
        <ele>1153</ele>
        <time>2021-08-09T10:56:17Z</time>
      </trkpt>
      <trkpt lat="47.8302" lon="7.00178">
        <ele>1152.9</ele>
        <time>2021-08-09T10:56:18Z</time>
      </trkpt>
      <trkpt lat="47.83022" lon="7.00174">
        <ele>1152.6</ele>
        <time>2021-08-09T10:56:19Z</time>
      </trkpt>
      <trkpt lat="47.83023" lon="7.00169">
        <ele>1152.3</ele>
        <time>2021-08-09T10:56:21Z</time>
      </trkpt>
      <trkpt lat="47.83025" lon="7.00165">
        <ele>1152</ele>
        <time>2021-08-09T10:56:22Z</time>
      </trkpt>
      <trkpt lat="47.83026" lon="7.00164">
        <ele>1152</ele>
        <time>2021-08-09T10:56:23Z</time>
      </trkpt>
      <trkpt lat="47.83026" lon="7.00159">
        <ele>1151.7</ele>
        <time>2021-08-09T10:56:25Z</time>
      </trkpt>
      <trkpt lat="47.83025" lon="7.00155">
        <ele>1151.4</ele>
        <time>2021-08-09T10:56:26Z</time>
      </trkpt>
      <trkpt lat="47.83024" lon="7.00151">
        <ele>1151.2</ele>
        <time>2021-08-09T10:56:28Z</time>
      </trkpt>
      <trkpt lat="47.83024" lon="7.00149">
        <ele>1151.1</ele>
        <time>2021-08-09T10:56:29Z</time>
      </trkpt>
      <trkpt lat="47.83024" lon="7.00146">
        <ele>1151.1</ele>
        <time>2021-08-09T10:56:30Z</time>
      </trkpt>
      <trkpt lat="47.83023" lon="7.00146">
        <ele>1151.1</ele>
        <time>2021-08-09T10:56:32Z</time>
      </trkpt>
      <trkpt lat="47.83023" lon="7.00147">
        <ele>1151.1</ele>
        <time>2021-08-09T10:56:33Z</time>
      </trkpt>
      <trkpt lat="47.83023" lon="7.00147">
        <ele>1151.1</ele>
        <time>2021-08-09T10:56:34Z</time>
      </trkpt>
      <trkpt lat="47.83023" lon="7.00147">
        <ele>1151.1</ele>
        <time>2021-08-09T10:56:36Z</time>
      </trkpt>
      <trkpt lat="47.83023" lon="7.00147">
        <ele>1151.1</ele>
        <time>2021-08-09T10:56:37Z</time>
      </trkpt>
      <trkpt lat="47.83023" lon="7.00147">
        <ele>1151.1</ele>
        <time>2021-08-09T10:56:39Z</time>
      </trkpt>
      <trkpt lat="47.83022" lon="7.00147">
        <ele>1151.1</ele>
        <time>2021-08-09T10:56:40Z</time>
      </trkpt>
      <trkpt lat="47.83036" lon="7.00134">
        <ele>1150.8</ele>
        <time>2021-08-09T11:20:48Z</time>
      </trkpt>
      <trkpt lat="47.83037" lon="7.00131">
        <ele>1150.4</ele>
        <time>2021-08-09T11:20:50Z</time>
      </trkpt>
      <trkpt lat="47.83037" lon="7.0013">
        <ele>1150.2</ele>
        <time>2021-08-09T11:20:51Z</time>
      </trkpt>
      <trkpt lat="47.83038" lon="7.00128">
        <ele>1150</ele>
        <time>2021-08-09T11:20:52Z</time>
      </trkpt>
      <trkpt lat="47.83038" lon="7.00128">
        <ele>1149.9</ele>
        <time>2021-08-09T11:20:53Z</time>
      </trkpt>
      <trkpt lat="47.83038" lon="7.00128">
        <ele>1149.8</ele>
        <time>2021-08-09T11:20:54Z</time>
      </trkpt>
      <trkpt lat="47.8304" lon="7.00128">
        <ele>1149.5</ele>
        <time>2021-08-09T11:20:56Z</time>
      </trkpt>
      <trkpt lat="47.83041" lon="7.00128">
        <ele>1149.3</ele>
        <time>2021-08-09T11:20:57Z</time>
      </trkpt>
      <trkpt lat="47.83042" lon="7.00128">
        <ele>1149.1</ele>
        <time>2021-08-09T11:20:58Z</time>
      </trkpt>
      <trkpt lat="47.83044" lon="7.00129">
        <ele>1148.7</ele>
        <time>2021-08-09T11:21:00Z</time>
      </trkpt>
      <trkpt lat="47.83046" lon="7.00131">
        <ele>1148.2</ele>
        <time>2021-08-09T11:21:01Z</time>
      </trkpt>
      <trkpt lat="47.83049" lon="7.00133">
        <ele>1147.4</ele>
        <time>2021-08-09T11:21:03Z</time>
      </trkpt>
      <trkpt lat="47.8305" lon="7.00134">
        <ele>1147.1</ele>
        <time>2021-08-09T11:21:04Z</time>
      </trkpt>
      <trkpt lat="47.83051" lon="7.00136">
        <ele>1146.6</ele>
        <time>2021-08-09T11:21:06Z</time>
      </trkpt>
      <trkpt lat="47.83052" lon="7.00139">
        <ele>1146</ele>
        <time>2021-08-09T11:21:07Z</time>
      </trkpt>
      <trkpt lat="47.83053" lon="7.00146">
        <ele>1144.9</ele>
        <time>2021-08-09T11:21:09Z</time>
      </trkpt>
      <trkpt lat="47.83055" lon="7.00149">
        <ele>1144.3</ele>
        <time>2021-08-09T11:21:10Z</time>
      </trkpt>
      <trkpt lat="47.83056" lon="7.00151">
        <ele>1143.9</ele>
        <time>2021-08-09T11:21:12Z</time>
      </trkpt>
      <trkpt lat="47.83058" lon="7.00153">
        <ele>1143.3</ele>
        <time>2021-08-09T11:21:14Z</time>
      </trkpt>
      <trkpt lat="47.83059" lon="7.00155">
        <ele>1142.8</ele>
        <time>2021-08-09T11:21:15Z</time>
      </trkpt>
      <trkpt lat="47.83061" lon="7.00158">
        <ele>1142.3</ele>
        <time>2021-08-09T11:21:16Z</time>
      </trkpt>
      <trkpt lat="47.83062" lon="7.0016">
        <ele>1141.8</ele>
        <time>2021-08-09T11:21:17Z</time>
      </trkpt>
      <trkpt lat="47.83064" lon="7.00162">
        <ele>1141.3</ele>
        <time>2021-08-09T11:21:55Z</time>
      </trkpt>
      <trkpt lat="47.83065" lon="7.00164">
        <ele>1140.8</ele>
        <time>2021-08-09T11:21:57Z</time>
      </trkpt>
      <trkpt lat="47.83066" lon="7.00167">
        <ele>1140.3</ele>
        <time>2021-08-09T11:21:58Z</time>
      </trkpt>
      <trkpt lat="47.83071" lon="7.00162">
        <ele>1138.9</ele>
        <time>2021-08-09T11:22:00Z</time>
      </trkpt>
      <trkpt lat="47.83074" lon="7.00155">
        <ele>1137.5</ele>
        <time>2021-08-09T11:22:01Z</time>
      </trkpt>
      <trkpt lat="47.83077" lon="7.00151">
        <ele>1136.6</ele>
        <time>2021-08-09T11:22:02Z</time>
      </trkpt>
      <trkpt lat="47.83081" lon="7.00145">
        <ele>1135.1</ele>
        <time>2021-08-09T11:22:04Z</time>
      </trkpt>
      <trkpt lat="47.83085" lon="7.0014">
        <ele>1133.8</ele>
        <time>2021-08-09T11:22:05Z</time>
      </trkpt>
      <trkpt lat="47.83089" lon="7.00134">
        <ele>1132.3</ele>
        <time>2021-08-09T11:22:07Z</time>
      </trkpt>
      <trkpt lat="47.83092" lon="7.00129">
        <ele>1131.1</ele>
        <time>2021-08-09T11:22:08Z</time>
      </trkpt>
      <trkpt lat="47.83094" lon="7.00123">
        <ele>1130</ele>
        <time>2021-08-09T11:22:09Z</time>
      </trkpt>
      <trkpt lat="47.83098" lon="7.00113">
        <ele>1128.5</ele>
        <time>2021-08-09T11:22:10Z</time>
      </trkpt>
      <trkpt lat="47.83099" lon="7.00106">
        <ele>1127.5</ele>
        <time>2021-08-09T11:22:12Z</time>
      </trkpt>
      <trkpt lat="47.83099" lon="7.00099">
        <ele>1126.6</ele>
        <time>2021-08-09T11:22:13Z</time>
      </trkpt>
      <trkpt lat="47.831" lon="7.00094">
        <ele>1126</ele>
        <time>2021-08-09T11:22:14Z</time>
      </trkpt>
      <trkpt lat="47.831" lon="7.00089">
        <ele>1125.4</ele>
        <time>2021-08-09T11:22:15Z</time>
      </trkpt>
      <trkpt lat="47.831" lon="7.00088">
        <ele>1125.2</ele>
        <time>2021-08-09T11:22:16Z</time>
      </trkpt>
      <trkpt lat="47.83097" lon="7.00084">
        <ele>1124.5</ele>
        <time>2021-08-09T11:22:18Z</time>
      </trkpt>
      <trkpt lat="47.83096" lon="7.00082">
        <ele>1124.2</ele>
        <time>2021-08-09T11:22:20Z</time>
      </trkpt>
      <trkpt lat="47.83095" lon="7.0008">
        <ele>1123.8</ele>
        <time>2021-08-09T11:22:21Z</time>
      </trkpt>
      <trkpt lat="47.83092" lon="7.00077">
        <ele>1123.3</ele>
        <time>2021-08-09T11:22:22Z</time>
      </trkpt>
      <trkpt lat="47.83091" lon="7.00073">
        <ele>1122.9</ele>
        <time>2021-08-09T11:22:23Z</time>
      </trkpt>
      <trkpt lat="47.8309" lon="7.00067">
        <ele>1122.1</ele>
        <time>2021-08-09T11:22:25Z</time>
      </trkpt>
      <trkpt lat="47.83092" lon="7.00061">
        <ele>1121.5</ele>
        <time>2021-08-09T11:22:27Z</time>
      </trkpt>
      <trkpt lat="47.83093" lon="7.00059">
        <ele>1121.2</ele>
        <time>2021-08-09T11:22:28Z</time>
      </trkpt>
      <trkpt lat="47.83093" lon="7.00058">
        <ele>1121.1</ele>
        <time>2021-08-09T11:22:29Z</time>
      </trkpt>
      <trkpt lat="47.83093" lon="7.00054">
        <ele>1120.7</ele>
        <time>2021-08-09T11:22:31Z</time>
      </trkpt>
      <trkpt lat="47.83096" lon="7.00051">
        <ele>1120.1</ele>
        <time>2021-08-09T11:22:32Z</time>
      </trkpt>
      <trkpt lat="47.83097" lon="7.0005">
        <ele>1120</ele>
        <time>2021-08-09T11:22:33Z</time>
      </trkpt>
      <trkpt lat="47.83101" lon="7.00048">
        <ele>1119.2</ele>
        <time>2021-08-09T11:22:35Z</time>
      </trkpt>
      <trkpt lat="47.83101" lon="7.00048">
        <ele>1119.1</ele>
        <time>2021-08-09T11:22:37Z</time>
      </trkpt>
      <trkpt lat="47.83102" lon="7.00048">
        <ele>1119.1</ele>
        <time>2021-08-09T11:22:38Z</time>
      </trkpt>
      <trkpt lat="47.83101" lon="7.00047">
        <ele>1119.1</ele>
        <time>2021-08-09T11:22:39Z</time>
      </trkpt>
      <trkpt lat="47.83101" lon="7.00046">
        <ele>1118.9</ele>
        <time>2021-08-09T11:22:41Z</time>
      </trkpt>
      <trkpt lat="47.83106" lon="7.00014">
        <ele>1113</ele>
        <time>2021-08-09T11:22:52Z</time>
      </trkpt>
      <trkpt lat="47.83108" lon="7.00005">
        <ele>1111</ele>
        <time>2021-08-09T11:22:53Z</time>
      </trkpt>
      <trkpt lat="47.83109" lon="6.99997">
        <ele>1109.2</ele>
        <time>2021-08-09T11:22:55Z</time>
      </trkpt>
      <trkpt lat="47.8311" lon="6.9999">
        <ele>1107.7</ele>
        <time>2021-08-09T11:22:56Z</time>
      </trkpt>
      <trkpt lat="47.83112" lon="6.99985">
        <ele>1106.4</ele>
        <time>2021-08-09T11:22:58Z</time>
      </trkpt>
      <trkpt lat="47.83114" lon="6.99981">
        <ele>1105.5</ele>
        <time>2021-08-09T11:22:59Z</time>
      </trkpt>
      <trkpt lat="47.83116" lon="6.99977">
        <ele>1104.3</ele>
        <time>2021-08-09T11:23:00Z</time>
      </trkpt>
      <trkpt lat="47.83119" lon="6.99972">
        <ele>1103</ele>
        <time>2021-08-09T11:23:02Z</time>
      </trkpt>
      <trkpt lat="47.8312" lon="6.99968">
        <ele>1102.2</ele>
        <time>2021-08-09T11:23:03Z</time>
      </trkpt>
      <trkpt lat="47.83121" lon="6.99966">
        <ele>1101.7</ele>
        <time>2021-08-09T11:23:04Z</time>
      </trkpt>
      <trkpt lat="47.83127" lon="6.99957">
        <ele>1099.5</ele>
        <time>2021-08-09T11:23:06Z</time>
      </trkpt>
      <trkpt lat="47.8313" lon="6.9995">
        <ele>1098</ele>
        <time>2021-08-09T11:23:07Z</time>
      </trkpt>
      <trkpt lat="47.83133" lon="6.9994">
        <ele>1096.3</ele>
        <time>2021-08-09T11:23:08Z</time>
      </trkpt>
      <trkpt lat="47.83135" lon="6.99931">
        <ele>1094.9</ele>
        <time>2021-08-09T11:23:09Z</time>
      </trkpt>
      <trkpt lat="47.83137" lon="6.99919">
        <ele>1093.3</ele>
        <time>2021-08-09T11:23:11Z</time>
      </trkpt>
      <trkpt lat="47.8314" lon="6.99912">
        <ele>1092.3</ele>
        <time>2021-08-09T11:23:12Z</time>
      </trkpt>
      <trkpt lat="47.83144" lon="6.99906">
        <ele>1091.3</ele>
        <time>2021-08-09T11:23:13Z</time>
      </trkpt>
      <trkpt lat="47.83146" lon="6.99902">
        <ele>1090.6</ele>
        <time>2021-08-09T11:23:14Z</time>
      </trkpt>
      <trkpt lat="47.83149" lon="6.99899">
        <ele>1090</ele>
        <time>2021-08-09T11:23:15Z</time>
      </trkpt>
      <trkpt lat="47.83151" lon="6.99894">
        <ele>1089.3</ele>
        <time>2021-08-09T11:23:17Z</time>
      </trkpt>
      <trkpt lat="47.83154" lon="6.99889">
        <ele>1088.4</ele>
        <time>2021-08-09T11:23:18Z</time>
      </trkpt>
      <trkpt lat="47.83155" lon="6.99885">
        <ele>1087.8</ele>
        <time>2021-08-09T11:23:19Z</time>
      </trkpt>
      <trkpt lat="47.83159" lon="6.99875">
        <ele>1086.5</ele>
        <time>2021-08-09T11:23:21Z</time>
      </trkpt>
      <trkpt lat="47.83163" lon="6.99869">
        <ele>1085.4</ele>
        <time>2021-08-09T11:23:23Z</time>
      </trkpt>
      <trkpt lat="47.83167" lon="6.99866">
        <ele>1084.6</ele>
        <time>2021-08-09T11:23:24Z</time>
      </trkpt>
      <trkpt lat="47.83169" lon="6.99862">
        <ele>1084</ele>
        <time>2021-08-09T11:23:25Z</time>
      </trkpt>
      <trkpt lat="47.83172" lon="6.99858">
        <ele>1083.4</ele>
        <time>2021-08-09T11:23:26Z</time>
      </trkpt>
      <trkpt lat="47.83174" lon="6.99855">
        <ele>1082.9</ele>
        <time>2021-08-09T11:23:27Z</time>
      </trkpt>
      <trkpt lat="47.83175" lon="6.9985">
        <ele>1082.3</ele>
        <time>2021-08-09T11:23:28Z</time>
      </trkpt>
      <trkpt lat="47.83176" lon="6.99844">
        <ele>1081.6</ele>
        <time>2021-08-09T11:23:29Z</time>
      </trkpt>
      <trkpt lat="47.83176" lon="6.9984">
        <ele>1081.1</ele>
        <time>2021-08-09T11:23:30Z</time>
      </trkpt>
      <trkpt lat="47.83179" lon="6.99833">
        <ele>1080</ele>
        <time>2021-08-09T11:23:32Z</time>
      </trkpt>
      <trkpt lat="47.8318" lon="6.99827">
        <ele>1079.1</ele>
        <time>2021-08-09T11:23:34Z</time>
      </trkpt>
      <trkpt lat="47.8318" lon="6.99823">
        <ele>1078.4</ele>
        <time>2021-08-09T11:23:35Z</time>
      </trkpt>
      <trkpt lat="47.8318" lon="6.99818">
        <ele>1077.4</ele>
        <time>2021-08-09T11:23:37Z</time>
      </trkpt>
      <trkpt lat="47.8318" lon="6.99816">
        <ele>1077.1</ele>
        <time>2021-08-09T11:23:38Z</time>
      </trkpt>
      <trkpt lat="47.8318" lon="6.99811">
        <ele>1076.2</ele>
        <time>2021-08-09T11:23:39Z</time>
      </trkpt>
      <trkpt lat="47.83181" lon="6.99807">
        <ele>1075.4</ele>
        <time>2021-08-09T11:23:40Z</time>
      </trkpt>
      <trkpt lat="47.83181" lon="6.99803">
        <ele>1074.5</ele>
        <time>2021-08-09T11:23:41Z</time>
      </trkpt>
      <trkpt lat="47.83181" lon="6.99797">
        <ele>1073.3</ele>
        <time>2021-08-09T11:23:42Z</time>
      </trkpt>
      <trkpt lat="47.83181" lon="6.99794">
        <ele>1072.9</ele>
        <time>2021-08-09T11:23:43Z</time>
      </trkpt>
      <trkpt lat="47.8318" lon="6.99787">
        <ele>1071.5</ele>
        <time>2021-08-09T11:23:45Z</time>
      </trkpt>
      <trkpt lat="47.83179" lon="6.99782">
        <ele>1070.4</ele>
        <time>2021-08-09T11:23:46Z</time>
      </trkpt>
      <trkpt lat="47.83178" lon="6.99775">
        <ele>1069.1</ele>
        <time>2021-08-09T11:23:47Z</time>
      </trkpt>
      <trkpt lat="47.83177" lon="6.99769">
        <ele>1067.9</ele>
        <time>2021-08-09T11:23:48Z</time>
      </trkpt>
      <trkpt lat="47.83175" lon="6.99761">
        <ele>1066.3</ele>
        <time>2021-08-09T11:23:49Z</time>
      </trkpt>
      <trkpt lat="47.83172" lon="6.99742">
        <ele>1063.3</ele>
        <time>2021-08-09T11:23:50Z</time>
      </trkpt>
      <trkpt lat="47.83171" lon="6.99732">
        <ele>1061.7</ele>
        <time>2021-08-09T11:23:51Z</time>
      </trkpt>
      <trkpt lat="47.83169" lon="6.99714">
        <ele>1059.1</ele>
        <time>2021-08-09T11:23:53Z</time>
      </trkpt>
      <trkpt lat="47.83168" lon="6.99708">
        <ele>1058.2</ele>
        <time>2021-08-09T11:23:54Z</time>
      </trkpt>
      <trkpt lat="47.83168" lon="6.99701">
        <ele>1057.3</ele>
        <time>2021-08-09T11:23:55Z</time>
      </trkpt>
      <trkpt lat="47.83168" lon="6.99694">
        <ele>1056.1</ele>
        <time>2021-08-09T11:23:57Z</time>
      </trkpt>
      <trkpt lat="47.83172" lon="6.99681">
        <ele>1054.5</ele>
        <time>2021-08-09T11:23:58Z</time>
      </trkpt>
      <trkpt lat="47.83175" lon="6.99672">
        <ele>1053.4</ele>
        <time>2021-08-09T11:23:59Z</time>
      </trkpt>
      <trkpt lat="47.83177" lon="6.99663">
        <ele>1052.5</ele>
        <time>2021-08-09T11:24:00Z</time>
      </trkpt>
      <trkpt lat="47.83183" lon="6.99644">
        <ele>1051.3</ele>
        <time>2021-08-09T11:24:02Z</time>
      </trkpt>
      <trkpt lat="47.83187" lon="6.99636">
        <ele>1050.9</ele>
        <time>2021-08-09T11:24:03Z</time>
      </trkpt>
      <trkpt lat="47.83194" lon="6.99622">
        <ele>1050.4</ele>
        <time>2021-08-09T11:24:05Z</time>
      </trkpt>
      <trkpt lat="47.832" lon="6.99611">
        <ele>1050</ele>
        <time>2021-08-09T11:24:07Z</time>
      </trkpt>
      <trkpt lat="47.83209" lon="6.996">
        <ele>1049.4</ele>
        <time>2021-08-09T11:24:09Z</time>
      </trkpt>
      <trkpt lat="47.83216" lon="6.99587">
        <ele>1048.7</ele>
        <time>2021-08-09T11:24:11Z</time>
      </trkpt>
      <trkpt lat="47.83219" lon="6.99579">
        <ele>1048.3</ele>
        <time>2021-08-09T11:24:12Z</time>
      </trkpt>
      <trkpt lat="47.83224" lon="6.99563">
        <ele>1047.4</ele>
        <time>2021-08-09T11:24:14Z</time>
      </trkpt>
      <trkpt lat="47.83231" lon="6.99545">
        <ele>1046.4</ele>
        <time>2021-08-09T11:24:16Z</time>
      </trkpt>
      <trkpt lat="47.83236" lon="6.99538">
        <ele>1046</ele>
        <time>2021-08-09T11:24:17Z</time>
      </trkpt>
      <trkpt lat="47.83241" lon="6.99531">
        <ele>1045.5</ele>
        <time>2021-08-09T11:24:18Z</time>
      </trkpt>
      <trkpt lat="47.83252" lon="6.99518">
        <ele>1044.5</ele>
        <time>2021-08-09T11:24:20Z</time>
      </trkpt>
      <trkpt lat="47.83259" lon="6.99512">
        <ele>1044</ele>
        <time>2021-08-09T11:24:21Z</time>
      </trkpt>
      <trkpt lat="47.83266" lon="6.99507">
        <ele>1043.4</ele>
        <time>2021-08-09T11:24:22Z</time>
      </trkpt>
      <trkpt lat="47.83281" lon="6.99497">
        <ele>1042.3</ele>
        <time>2021-08-09T11:24:24Z</time>
      </trkpt>
      <trkpt lat="47.83294" lon="6.99488">
        <ele>1041.3</ele>
        <time>2021-08-09T11:24:26Z</time>
      </trkpt>
      <trkpt lat="47.83301" lon="6.99485">
        <ele>1040.9</ele>
        <time>2021-08-09T11:24:27Z</time>
      </trkpt>
      <trkpt lat="47.83307" lon="6.99481">
        <ele>1040.4</ele>
        <time>2021-08-09T11:24:28Z</time>
      </trkpt>
      <trkpt lat="47.83322" lon="6.99474">
        <ele>1039.5</ele>
        <time>2021-08-09T11:24:30Z</time>
      </trkpt>
      <trkpt lat="47.83334" lon="6.99467">
        <ele>1038.7</ele>
        <time>2021-08-09T11:24:32Z</time>
      </trkpt>
      <trkpt lat="47.8334" lon="6.99462">
        <ele>1038.3</ele>
        <time>2021-08-09T11:24:34Z</time>
      </trkpt>
      <trkpt lat="47.83341" lon="6.9946">
        <ele>1038.2</ele>
        <time>2021-08-09T11:24:35Z</time>
      </trkpt>
      <trkpt lat="47.83342" lon="6.9946">
        <ele>1038.1</ele>
        <time>2021-08-09T11:24:36Z</time>
      </trkpt>
      <trkpt lat="47.83343" lon="6.99459">
        <ele>1038</ele>
        <time>2021-08-09T11:24:38Z</time>
      </trkpt>
      <trkpt lat="47.83344" lon="6.99459">
        <ele>1038</ele>
        <time>2021-08-09T11:24:40Z</time>
      </trkpt>
      <trkpt lat="47.83345" lon="6.99458">
        <ele>1037.9</ele>
        <time>2021-08-09T11:24:42Z</time>
      </trkpt>
      <trkpt lat="47.83346" lon="6.99458">
        <ele>1037.8</ele>
        <time>2021-08-09T11:24:44Z</time>
      </trkpt>
      <trkpt lat="47.83347" lon="6.99457">
        <ele>1037.8</ele>
        <time>2021-08-09T11:24:45Z</time>
      </trkpt>
      <trkpt lat="47.83348" lon="6.99457">
        <ele>1037.7</ele>
        <time>2021-08-09T11:24:51Z</time>
      </trkpt>
      <trkpt lat="47.83349" lon="6.99456">
        <ele>1037.6</ele>
        <time>2021-08-09T11:24:52Z</time>
      </trkpt>
      <trkpt lat="47.83359" lon="6.99446">
        <ele>1036.9</ele>
        <time>2021-08-09T11:24:53Z</time>
      </trkpt>
      <trkpt lat="47.83365" lon="6.9944">
        <ele>1036.4</ele>
        <time>2021-08-09T11:24:54Z</time>
      </trkpt>
      <trkpt lat="47.83375" lon="6.99429">
        <ele>1035.6</ele>
        <time>2021-08-09T11:24:56Z</time>
      </trkpt>
      <trkpt lat="47.83385" lon="6.99419">
        <ele>1034.8</ele>
        <time>2021-08-09T11:24:58Z</time>
      </trkpt>
      <trkpt lat="47.83396" lon="6.99413">
        <ele>1033.9</ele>
        <time>2021-08-09T11:25:00Z</time>
      </trkpt>
      <trkpt lat="47.83402" lon="6.99412">
        <ele>1033.5</ele>
        <time>2021-08-09T11:25:01Z</time>
      </trkpt>
      <trkpt lat="47.83413" lon="6.9941">
        <ele>1032.7</ele>
        <time>2021-08-09T11:25:03Z</time>
      </trkpt>
      <trkpt lat="47.83423" lon="6.99407">
        <ele>1031.9</ele>
        <time>2021-08-09T11:25:05Z</time>
      </trkpt>
      <trkpt lat="47.83427" lon="6.99405">
        <ele>1031.5</ele>
        <time>2021-08-09T11:25:06Z</time>
      </trkpt>
      <trkpt lat="47.83435" lon="6.99402">
        <ele>1030.9</ele>
        <time>2021-08-09T11:25:08Z</time>
      </trkpt>
      <trkpt lat="47.83439" lon="6.99402">
        <ele>1030.6</ele>
        <time>2021-08-09T11:25:09Z</time>
      </trkpt>
      <trkpt lat="47.83443" lon="6.99402">
        <ele>1030.3</ele>
        <time>2021-08-09T11:25:10Z</time>
      </trkpt>
      <trkpt lat="47.83447" lon="6.99403">
        <ele>1030</ele>
        <time>2021-08-09T11:25:11Z</time>
      </trkpt>
      <trkpt lat="47.8345" lon="6.99403">
        <ele>1029.7</ele>
        <time>2021-08-09T11:25:12Z</time>
      </trkpt>
      <trkpt lat="47.83454" lon="6.99402">
        <ele>1029.4</ele>
        <time>2021-08-09T11:25:14Z</time>
      </trkpt>
      <trkpt lat="47.83456" lon="6.994">
        <ele>1029.2</ele>
        <time>2021-08-09T11:25:15Z</time>
      </trkpt>
      <trkpt lat="47.8346" lon="6.99392">
        <ele>1028.7</ele>
        <time>2021-08-09T11:25:17Z</time>
      </trkpt>
      <trkpt lat="47.83463" lon="6.99383">
        <ele>1028.1</ele>
        <time>2021-08-09T11:25:18Z</time>
      </trkpt>
      <trkpt lat="47.83466" lon="6.99377">
        <ele>1027.7</ele>
        <time>2021-08-09T11:25:19Z</time>
      </trkpt>
      <trkpt lat="47.83468" lon="6.99371">
        <ele>1027.1</ele>
        <time>2021-08-09T11:25:21Z</time>
      </trkpt>
      <trkpt lat="47.83469" lon="6.99368">
        <ele>1026.9</ele>
        <time>2021-08-09T11:25:22Z</time>
      </trkpt>
      <trkpt lat="47.83469" lon="6.99366">
        <ele>1026.7</ele>
        <time>2021-08-09T11:25:24Z</time>
      </trkpt>
      <trkpt lat="47.8347" lon="6.99363">
        <ele>1026.5</ele>
        <time>2021-08-09T11:25:25Z</time>
      </trkpt>
      <trkpt lat="47.8347" lon="6.99361">
        <ele>1026.3</ele>
        <time>2021-08-09T11:25:27Z</time>
      </trkpt>
      <trkpt lat="47.8347" lon="6.99359">
        <ele>1026.1</ele>
        <time>2021-08-09T11:25:28Z</time>
      </trkpt>
      <trkpt lat="47.83471" lon="6.99357">
        <ele>1026</ele>
        <time>2021-08-09T11:25:29Z</time>
      </trkpt>
      <trkpt lat="47.83471" lon="6.99355">
        <ele>1025.8</ele>
        <time>2021-08-09T11:25:30Z</time>
      </trkpt>
      <trkpt lat="47.83472" lon="6.99353">
        <ele>1025.6</ele>
        <time>2021-08-09T11:25:31Z</time>
      </trkpt>
      <trkpt lat="47.83472" lon="6.99351">
        <ele>1025.4</ele>
        <time>2021-08-09T11:25:33Z</time>
      </trkpt>
      <trkpt lat="47.83472" lon="6.99348">
        <ele>1025.2</ele>
        <time>2021-08-09T11:25:50Z</time>
      </trkpt>
      <trkpt lat="47.83473" lon="6.99346">
        <ele>1025</ele>
        <time>2021-08-09T11:25:51Z</time>
      </trkpt>
      <trkpt lat="47.83488" lon="6.99325">
        <ele>1022.3</ele>
        <time>2021-08-09T11:25:53Z</time>
      </trkpt>
      <trkpt lat="47.83501" lon="6.99305">
        <ele>1019.9</ele>
        <time>2021-08-09T11:25:55Z</time>
      </trkpt>
      <trkpt lat="47.83512" lon="6.99287">
        <ele>1018.2</ele>
        <time>2021-08-09T11:25:57Z</time>
      </trkpt>
      <trkpt lat="47.83515" lon="6.99278">
        <ele>1017.6</ele>
        <time>2021-08-09T11:25:58Z</time>
      </trkpt>
      <trkpt lat="47.83523" lon="6.99264">
        <ele>1016.4</ele>
        <time>2021-08-09T11:26:00Z</time>
      </trkpt>
      <trkpt lat="47.83531" lon="6.99252">
        <ele>1015</ele>
        <time>2021-08-09T11:26:02Z</time>
      </trkpt>
      <trkpt lat="47.83534" lon="6.99245">
        <ele>1014.2</ele>
        <time>2021-08-09T11:26:03Z</time>
      </trkpt>
      <trkpt lat="47.83537" lon="6.99236">
        <ele>1013.3</ele>
        <time>2021-08-09T11:26:04Z</time>
      </trkpt>
      <trkpt lat="47.83544" lon="6.99218">
        <ele>1011.3</ele>
        <time>2021-08-09T11:26:06Z</time>
      </trkpt>
      <trkpt lat="47.83554" lon="6.99201">
        <ele>1008.9</ele>
        <time>2021-08-09T11:26:08Z</time>
      </trkpt>
      <trkpt lat="47.8356" lon="6.99192">
        <ele>1007.7</ele>
        <time>2021-08-09T11:26:09Z</time>
      </trkpt>
      <trkpt lat="47.83573" lon="6.99177">
        <ele>1005.7</ele>
        <time>2021-08-09T11:26:11Z</time>
      </trkpt>
      <trkpt lat="47.83581" lon="6.99171">
        <ele>1004.7</ele>
        <time>2021-08-09T11:26:12Z</time>
      </trkpt>
      <trkpt lat="47.83588" lon="6.99165">
        <ele>1003.9</ele>
        <time>2021-08-09T11:26:13Z</time>
      </trkpt>
      <trkpt lat="47.836" lon="6.99157">
        <ele>1002.2</ele>
        <time>2021-08-09T11:26:15Z</time>
      </trkpt>
      <trkpt lat="47.83607" lon="6.99154">
        <ele>1001.3</ele>
        <time>2021-08-09T11:26:16Z</time>
      </trkpt>
      <trkpt lat="47.83618" lon="6.99151">
        <ele>999.6</ele>
        <time>2021-08-09T11:26:18Z</time>
      </trkpt>
      <trkpt lat="47.83629" lon="6.99147">
        <ele>997.9</ele>
        <time>2021-08-09T11:26:20Z</time>
      </trkpt>
      <trkpt lat="47.83634" lon="6.99144">
        <ele>997</ele>
        <time>2021-08-09T11:26:21Z</time>
      </trkpt>
      <trkpt lat="47.83638" lon="6.99142">
        <ele>996.1</ele>
        <time>2021-08-09T11:26:22Z</time>
      </trkpt>
      <trkpt lat="47.83646" lon="6.9914">
        <ele>994.5</ele>
        <time>2021-08-09T11:26:24Z</time>
      </trkpt>
      <trkpt lat="47.83651" lon="6.99139">
        <ele>993.3</ele>
        <time>2021-08-09T11:26:26Z</time>
      </trkpt>
      <trkpt lat="47.83655" lon="6.99139">
        <ele>992.5</ele>
        <time>2021-08-09T11:26:27Z</time>
      </trkpt>
      <trkpt lat="47.83663" lon="6.99136">
        <ele>990.7</ele>
        <time>2021-08-09T11:26:29Z</time>
      </trkpt>
      <trkpt lat="47.83666" lon="6.99135">
        <ele>990</ele>
        <time>2021-08-09T11:26:31Z</time>
      </trkpt>
      <trkpt lat="47.83668" lon="6.99133">
        <ele>989.4</ele>
        <time>2021-08-09T11:26:32Z</time>
      </trkpt>
      <trkpt lat="47.83674" lon="6.99131">
        <ele>988.2</ele>
        <time>2021-08-09T11:26:33Z</time>
      </trkpt>
      <trkpt lat="47.83684" lon="6.99128">
        <ele>986</ele>
        <time>2021-08-09T11:26:34Z</time>
      </trkpt>
      <trkpt lat="47.83695" lon="6.9912">
        <ele>983.8</ele>
        <time>2021-08-09T11:26:36Z</time>
      </trkpt>
      <trkpt lat="47.83707" lon="6.9911">
        <ele>982</ele>
        <time>2021-08-09T11:26:38Z</time>
      </trkpt>
      <trkpt lat="47.83712" lon="6.99106">
        <ele>981.2</ele>
        <time>2021-08-09T11:26:39Z</time>
      </trkpt>
      <trkpt lat="47.83717" lon="6.99102">
        <ele>980.4</ele>
        <time>2021-08-09T11:26:40Z</time>
      </trkpt>
      <trkpt lat="47.83723" lon="6.99098">
        <ele>979.7</ele>
        <time>2021-08-09T11:26:41Z</time>
      </trkpt>
      <trkpt lat="47.83728" lon="6.99093">
        <ele>979.1</ele>
        <time>2021-08-09T11:26:42Z</time>
      </trkpt>
      <trkpt lat="47.83736" lon="6.99085">
        <ele>978</ele>
        <time>2021-08-09T11:26:44Z</time>
      </trkpt>
      <trkpt lat="47.83739" lon="6.99081">
        <ele>977.6</ele>
        <time>2021-08-09T11:26:45Z</time>
      </trkpt>
      <trkpt lat="47.83743" lon="6.99078">
        <ele>977.2</ele>
        <time>2021-08-09T11:26:46Z</time>
      </trkpt>
      <trkpt lat="47.83749" lon="6.99074">
        <ele>976.6</ele>
        <time>2021-08-09T11:26:48Z</time>
      </trkpt>
      <trkpt lat="47.83753" lon="6.99073">
        <ele>976.4</ele>
        <time>2021-08-09T11:26:49Z</time>
      </trkpt>
      <trkpt lat="47.83757" lon="6.99075">
        <ele>976.2</ele>
        <time>2021-08-09T11:26:50Z</time>
      </trkpt>
      <trkpt lat="47.83761" lon="6.99076">
        <ele>976</ele>
        <time>2021-08-09T11:26:51Z</time>
      </trkpt>
      <trkpt lat="47.83767" lon="6.99075">
        <ele>975.8</ele>
        <time>2021-08-09T11:26:52Z</time>
      </trkpt>
      <trkpt lat="47.83771" lon="6.99073">
        <ele>975.7</ele>
        <time>2021-08-09T11:26:53Z</time>
      </trkpt>
      <trkpt lat="47.83778" lon="6.99068">
        <ele>975.6</ele>
        <time>2021-08-09T11:26:55Z</time>
      </trkpt>
      <trkpt lat="47.83782" lon="6.99066">
        <ele>975.5</ele>
        <time>2021-08-09T11:26:57Z</time>
      </trkpt>
      <trkpt lat="47.83785" lon="6.99062">
        <ele>975.4</ele>
        <time>2021-08-09T11:26:58Z</time>
      </trkpt>
      <trkpt lat="47.83789" lon="6.9906">
        <ele>975.3</ele>
        <time>2021-08-09T11:26:59Z</time>
      </trkpt>
      <trkpt lat="47.83794" lon="6.99058">
        <ele>975.1</ele>
        <time>2021-08-09T11:27:01Z</time>
      </trkpt>
      <trkpt lat="47.83798" lon="6.99058">
        <ele>974.9</ele>
        <time>2021-08-09T11:27:02Z</time>
      </trkpt>
      <trkpt lat="47.83803" lon="6.99057">
        <ele>974.7</ele>
        <time>2021-08-09T11:27:04Z</time>
      </trkpt>
      <trkpt lat="47.83806" lon="6.99057">
        <ele>974.5</ele>
        <time>2021-08-09T11:27:05Z</time>
      </trkpt>
      <trkpt lat="47.8381" lon="6.99057">
        <ele>974.3</ele>
        <time>2021-08-09T11:27:06Z</time>
      </trkpt>
      <trkpt lat="47.83816" lon="6.99057">
        <ele>973.9</ele>
        <time>2021-08-09T11:27:07Z</time>
      </trkpt>
      <trkpt lat="47.83821" lon="6.99058">
        <ele>973.7</ele>
        <time>2021-08-09T11:27:08Z</time>
      </trkpt>
      <trkpt lat="47.83824" lon="6.99058">
        <ele>973.5</ele>
        <time>2021-08-09T11:27:09Z</time>
      </trkpt>
      <trkpt lat="47.83829" lon="6.99058">
        <ele>973.2</ele>
        <time>2021-08-09T11:27:11Z</time>
      </trkpt>
      <trkpt lat="47.83832" lon="6.99058">
        <ele>973</ele>
        <time>2021-08-09T11:27:12Z</time>
      </trkpt>
      <trkpt lat="47.83835" lon="6.99056">
        <ele>972.8</ele>
        <time>2021-08-09T11:27:13Z</time>
      </trkpt>
      <trkpt lat="47.83838" lon="6.99058">
        <ele>972.7</ele>
        <time>2021-08-09T11:27:14Z</time>
      </trkpt>
      <trkpt lat="47.83839" lon="6.99058">
        <ele>972.7</ele>
        <time>2021-08-09T11:27:15Z</time>
      </trkpt>
      <trkpt lat="47.83842" lon="6.9906">
        <ele>972.8</ele>
        <time>2021-08-09T11:27:16Z</time>
      </trkpt>
      <trkpt lat="47.83846" lon="6.99061">
        <ele>972.8</ele>
        <time>2021-08-09T11:27:18Z</time>
      </trkpt>
      <trkpt lat="47.8385" lon="6.99061">
        <ele>972.8</ele>
        <time>2021-08-09T11:27:19Z</time>
      </trkpt>
      <trkpt lat="47.83851" lon="6.99061">
        <ele>972.8</ele>
        <time>2021-08-09T11:27:20Z</time>
      </trkpt>
      <trkpt lat="47.83853" lon="6.99061">
        <ele>972.8</ele>
        <time>2021-08-09T11:27:21Z</time>
      </trkpt>
      <trkpt lat="47.83854" lon="6.9906">
        <ele>972.9</ele>
        <time>2021-08-09T11:27:23Z</time>
      </trkpt>
      <trkpt lat="47.83855" lon="6.99059">
        <ele>972.9</ele>
        <time>2021-08-09T11:27:24Z</time>
      </trkpt>
      <trkpt lat="47.83856" lon="6.99058">
        <ele>972.9</ele>
        <time>2021-08-09T11:27:26Z</time>
      </trkpt>
      <trkpt lat="47.83855" lon="6.99057">
        <ele>972.9</ele>
        <time>2021-08-09T11:27:27Z</time>
      </trkpt>
      <trkpt lat="47.83855" lon="6.99057">
        <ele>972.9</ele>
        <time>2021-08-09T11:27:28Z</time>
      </trkpt>
      <trkpt lat="47.83855" lon="6.99058">
        <ele>972.9</ele>
        <time>2021-08-09T11:27:29Z</time>
      </trkpt>
      <trkpt lat="47.83855" lon="6.99058">
        <ele>972.9</ele>
        <time>2021-08-09T11:27:30Z</time>
      </trkpt>
      <trkpt lat="47.83855" lon="6.99058">
        <ele>972.9</ele>
        <time>2021-08-09T11:27:32Z</time>
      </trkpt>
      <trkpt lat="47.83855" lon="6.99058">
        <ele>972.9</ele>
        <time>2021-08-09T11:27:33Z</time>
      </trkpt>
      <trkpt lat="47.83855" lon="6.99058">
        <ele>972.9</ele>
        <time>2021-08-09T11:27:34Z</time>
      </trkpt>
      <trkpt lat="47.83855" lon="6.99058">
        <ele>972.9</ele>
        <time>2021-08-09T11:27:36Z</time>
      </trkpt>
      <trkpt lat="47.83879" lon="6.99036">
        <ele>973.1</ele>
        <time>2021-08-09T11:38:58Z</time>
      </trkpt>
      <trkpt lat="47.83881" lon="6.99034">
        <ele>973.1</ele>
        <time>2021-08-09T11:38:59Z</time>
      </trkpt>
      <trkpt lat="47.83886" lon="6.99029">
        <ele>973.2</ele>
        <time>2021-08-09T11:39:01Z</time>
      </trkpt>
      <trkpt lat="47.8389" lon="6.99027">
        <ele>973.2</ele>
        <time>2021-08-09T11:39:02Z</time>
      </trkpt>
      <trkpt lat="47.83895" lon="6.99023">
        <ele>973.2</ele>
        <time>2021-08-09T11:39:03Z</time>
      </trkpt>
      <trkpt lat="47.83899" lon="6.9902">
        <ele>973.2</ele>
        <time>2021-08-09T11:39:04Z</time>
      </trkpt>
      <trkpt lat="47.83905" lon="6.99016">
        <ele>973.2</ele>
        <time>2021-08-09T11:39:06Z</time>
      </trkpt>
      <trkpt lat="47.8391" lon="6.99011">
        <ele>973.2</ele>
        <time>2021-08-09T11:39:07Z</time>
      </trkpt>
      <trkpt lat="47.83914" lon="6.99007">
        <ele>973.2</ele>
        <time>2021-08-09T11:39:09Z</time>
      </trkpt>
      <trkpt lat="47.83917" lon="6.99004">
        <ele>973.2</ele>
        <time>2021-08-09T11:39:10Z</time>
      </trkpt>
      <trkpt lat="47.8392" lon="6.99002">
        <ele>973.2</ele>
        <time>2021-08-09T11:39:12Z</time>
      </trkpt>
      <trkpt lat="47.83924" lon="6.98999">
        <ele>973.2</ele>
        <time>2021-08-09T11:39:13Z</time>
      </trkpt>
      <trkpt lat="47.83925" lon="6.98998">
        <ele>973.2</ele>
        <time>2021-08-09T11:39:14Z</time>
      </trkpt>
      <trkpt lat="47.83928" lon="6.98996">
        <ele>973.2</ele>
        <time>2021-08-09T11:39:15Z</time>
      </trkpt>
      <trkpt lat="47.83932" lon="6.98993">
        <ele>973.3</ele>
        <time>2021-08-09T11:39:16Z</time>
      </trkpt>
      <trkpt lat="47.83938" lon="6.9899">
        <ele>973.3</ele>
        <time>2021-08-09T11:39:18Z</time>
      </trkpt>
      <trkpt lat="47.83942" lon="6.98989">
        <ele>973.4</ele>
        <time>2021-08-09T11:39:19Z</time>
      </trkpt>
      <trkpt lat="47.83946" lon="6.98988">
        <ele>973.4</ele>
        <time>2021-08-09T11:39:21Z</time>
      </trkpt>
      <trkpt lat="47.83952" lon="6.98986">
        <ele>973.6</ele>
        <time>2021-08-09T11:39:23Z</time>
      </trkpt>
      <trkpt lat="47.83957" lon="6.98985">
        <ele>973.6</ele>
        <time>2021-08-09T11:39:24Z</time>
      </trkpt>
      <trkpt lat="47.83964" lon="6.98983">
        <ele>973.8</ele>
        <time>2021-08-09T11:39:25Z</time>
      </trkpt>
      <trkpt lat="47.83969" lon="6.98979">
        <ele>973.9</ele>
        <time>2021-08-09T11:39:27Z</time>
      </trkpt>
      <trkpt lat="47.83976" lon="6.98974">
        <ele>974</ele>
        <time>2021-08-09T11:39:28Z</time>
      </trkpt>
      <trkpt lat="47.83981" lon="6.9897">
        <ele>974.1</ele>
        <time>2021-08-09T11:39:30Z</time>
      </trkpt>
      <trkpt lat="47.83987" lon="6.98965">
        <ele>974.3</ele>
        <time>2021-08-09T11:39:32Z</time>
      </trkpt>
      <trkpt lat="47.83991" lon="6.9896">
        <ele>974.4</ele>
        <time>2021-08-09T11:39:33Z</time>
      </trkpt>
      <trkpt lat="47.83995" lon="6.98957">
        <ele>974.5</ele>
        <time>2021-08-09T11:39:35Z</time>
      </trkpt>
      <trkpt lat="47.83999" lon="6.98954">
        <ele>974.6</ele>
        <time>2021-08-09T11:39:36Z</time>
      </trkpt>
      <trkpt lat="47.84003" lon="6.9895">
        <ele>974.7</ele>
        <time>2021-08-09T11:39:37Z</time>
      </trkpt>
      <trkpt lat="47.84008" lon="6.98947">
        <ele>974.8</ele>
        <time>2021-08-09T11:39:38Z</time>
      </trkpt>
      <trkpt lat="47.84013" lon="6.98941">
        <ele>974.9</ele>
        <time>2021-08-09T11:39:40Z</time>
      </trkpt>
      <trkpt lat="47.84018" lon="6.98936">
        <ele>975.1</ele>
        <time>2021-08-09T11:39:42Z</time>
      </trkpt>
      <trkpt lat="47.84022" lon="6.98932">
        <ele>975.1</ele>
        <time>2021-08-09T11:39:43Z</time>
      </trkpt>
      <trkpt lat="47.84026" lon="6.98928">
        <ele>975.2</ele>
        <time>2021-08-09T11:39:45Z</time>
      </trkpt>
      <trkpt lat="47.84029" lon="6.98924">
        <ele>975.2</ele>
        <time>2021-08-09T11:39:46Z</time>
      </trkpt>
      <trkpt lat="47.84033" lon="6.98917">
        <ele>975.3</ele>
        <time>2021-08-09T11:39:48Z</time>
      </trkpt>
      <trkpt lat="47.84034" lon="6.98909">
        <ele>975.3</ele>
        <time>2021-08-09T11:39:50Z</time>
      </trkpt>
      <trkpt lat="47.84035" lon="6.98901">
        <ele>975.3</ele>
        <time>2021-08-09T11:39:51Z</time>
      </trkpt>
      <trkpt lat="47.84034" lon="6.98896">
        <ele>975.3</ele>
        <time>2021-08-09T11:39:53Z</time>
      </trkpt>
      <trkpt lat="47.84033" lon="6.98895">
        <ele>975.3</ele>
        <time>2021-08-09T11:39:54Z</time>
      </trkpt>
      <trkpt lat="47.84034" lon="6.98891">
        <ele>975.3</ele>
        <time>2021-08-09T11:39:55Z</time>
      </trkpt>
      <trkpt lat="47.84034" lon="6.98889">
        <ele>975.3</ele>
        <time>2021-08-09T11:39:56Z</time>
      </trkpt>
      <trkpt lat="47.84034" lon="6.98884">
        <ele>975.3</ele>
        <time>2021-08-09T11:39:57Z</time>
      </trkpt>
      <trkpt lat="47.84034" lon="6.98878">
        <ele>975.3</ele>
        <time>2021-08-09T11:39:59Z</time>
      </trkpt>
      <trkpt lat="47.84034" lon="6.98873">
        <ele>975.2</ele>
        <time>2021-08-09T11:40:00Z</time>
      </trkpt>
      <trkpt lat="47.84034" lon="6.98871">
        <ele>975.2</ele>
        <time>2021-08-09T11:40:01Z</time>
      </trkpt>
      <trkpt lat="47.84034" lon="6.98868">
        <ele>975.2</ele>
        <time>2021-08-09T11:40:02Z</time>
      </trkpt>
      <trkpt lat="47.84034" lon="6.98866">
        <ele>975.2</ele>
        <time>2021-08-09T11:40:03Z</time>
      </trkpt>
      <trkpt lat="47.84037" lon="6.98865">
        <ele>975.1</ele>
        <time>2021-08-09T11:40:04Z</time>
      </trkpt>
      <trkpt lat="47.84038" lon="6.98864">
        <ele>975</ele>
        <time>2021-08-09T11:40:05Z</time>
      </trkpt>
      <trkpt lat="47.8404" lon="6.98862">
        <ele>974.9</ele>
        <time>2021-08-09T11:40:07Z</time>
      </trkpt>
      <trkpt lat="47.8404" lon="6.98861">
        <ele>974.9</ele>
        <time>2021-08-09T11:40:08Z</time>
      </trkpt>
      <trkpt lat="47.84039" lon="6.9886">
        <ele>974.9</ele>
        <time>2021-08-09T11:40:09Z</time>
      </trkpt>
      <trkpt lat="47.84039" lon="6.98859">
        <ele>974.8</ele>
        <time>2021-08-09T11:40:10Z</time>
      </trkpt>
      <trkpt lat="47.84039" lon="6.98858">
        <ele>974.8</ele>
        <time>2021-08-09T11:40:11Z</time>
      </trkpt>
      <trkpt lat="47.8404" lon="6.98857">
        <ele>974.8</ele>
        <time>2021-08-09T11:40:12Z</time>
      </trkpt>
      <trkpt lat="47.84042" lon="6.98853">
        <ele>974.6</ele>
        <time>2021-08-09T11:40:14Z</time>
      </trkpt>
      <trkpt lat="47.84044" lon="6.98851">
        <ele>974.5</ele>
        <time>2021-08-09T11:40:15Z</time>
      </trkpt>
      <trkpt lat="47.84048" lon="6.98845">
        <ele>974.2</ele>
        <time>2021-08-09T11:40:17Z</time>
      </trkpt>
      <trkpt lat="47.84051" lon="6.98841">
        <ele>974</ele>
        <time>2021-08-09T11:40:18Z</time>
      </trkpt>
      <trkpt lat="47.84056" lon="6.98837">
        <ele>973.7</ele>
        <time>2021-08-09T11:40:19Z</time>
      </trkpt>
      <trkpt lat="47.84059" lon="6.98833">
        <ele>973.5</ele>
        <time>2021-08-09T11:40:20Z</time>
      </trkpt>
      <trkpt lat="47.84063" lon="6.98829">
        <ele>973.3</ele>
        <time>2021-08-09T11:40:22Z</time>
      </trkpt>
      <trkpt lat="47.84066" lon="6.98827">
        <ele>973.1</ele>
        <time>2021-08-09T11:40:23Z</time>
      </trkpt>
      <trkpt lat="47.84071" lon="6.98824">
        <ele>972.8</ele>
        <time>2021-08-09T11:40:24Z</time>
      </trkpt>
      <trkpt lat="47.84073" lon="6.9882">
        <ele>972.6</ele>
        <time>2021-08-09T11:40:25Z</time>
      </trkpt>
      <trkpt lat="47.84076" lon="6.98816">
        <ele>972.3</ele>
        <time>2021-08-09T11:40:26Z</time>
      </trkpt>
      <trkpt lat="47.84079" lon="6.98811">
        <ele>972.1</ele>
        <time>2021-08-09T11:40:27Z</time>
      </trkpt>
      <trkpt lat="47.84082" lon="6.98807">
        <ele>971.8</ele>
        <time>2021-08-09T11:40:29Z</time>
      </trkpt>
      <trkpt lat="47.84083" lon="6.98804">
        <ele>971.7</ele>
        <time>2021-08-09T11:40:30Z</time>
      </trkpt>
      <trkpt lat="47.84087" lon="6.98796">
        <ele>971.3</ele>
        <time>2021-08-09T11:40:32Z</time>
      </trkpt>
      <trkpt lat="47.84088" lon="6.98791">
        <ele>971.1</ele>
        <time>2021-08-09T11:40:33Z</time>
      </trkpt>
      <trkpt lat="47.8409" lon="6.9878">
        <ele>970.6</ele>
        <time>2021-08-09T11:40:35Z</time>
      </trkpt>
      <trkpt lat="47.84091" lon="6.9877">
        <ele>970.2</ele>
        <time>2021-08-09T11:40:36Z</time>
      </trkpt>
      <trkpt lat="47.84092" lon="6.98763">
        <ele>970</ele>
        <time>2021-08-09T11:40:37Z</time>
      </trkpt>
      <trkpt lat="47.84093" lon="6.98749">
        <ele>969.5</ele>
        <time>2021-08-09T11:40:39Z</time>
      </trkpt>
      <trkpt lat="47.84094" lon="6.98739">
        <ele>969.2</ele>
        <time>2021-08-09T11:40:41Z</time>
      </trkpt>
      <trkpt lat="47.84094" lon="6.98732">
        <ele>969</ele>
        <time>2021-08-09T11:40:42Z</time>
      </trkpt>
      <trkpt lat="47.84095" lon="6.98721">
        <ele>968.7</ele>
        <time>2021-08-09T11:40:44Z</time>
      </trkpt>
      <trkpt lat="47.84097" lon="6.98713">
        <ele>968.5</ele>
        <time>2021-08-09T11:40:45Z</time>
      </trkpt>
      <trkpt lat="47.84098" lon="6.98704">
        <ele>968.2</ele>
        <time>2021-08-09T11:40:46Z</time>
      </trkpt>
      <trkpt lat="47.84099" lon="6.98695">
        <ele>968</ele>
        <time>2021-08-09T11:40:48Z</time>
      </trkpt>
      <trkpt lat="47.841" lon="6.98687">
        <ele>967.7</ele>
        <time>2021-08-09T11:40:49Z</time>
      </trkpt>
      <trkpt lat="47.84101" lon="6.98677">
        <ele>967.5</ele>
        <time>2021-08-09T11:40:51Z</time>
      </trkpt>
      <trkpt lat="47.84102" lon="6.98668">
        <ele>967.3</ele>
        <time>2021-08-09T11:40:53Z</time>
      </trkpt>
      <trkpt lat="47.84104" lon="6.98658">
        <ele>967.1</ele>
        <time>2021-08-09T11:40:54Z</time>
      </trkpt>
      <trkpt lat="47.84105" lon="6.98651">
        <ele>967.1</ele>
        <time>2021-08-09T11:40:56Z</time>
      </trkpt>
      <trkpt lat="47.84107" lon="6.98642">
        <ele>967.1</ele>
        <time>2021-08-09T11:40:57Z</time>
      </trkpt>
      <trkpt lat="47.8411" lon="6.98636">
        <ele>967.2</ele>
        <time>2021-08-09T11:40:59Z</time>
      </trkpt>
      <trkpt lat="47.84112" lon="6.98632">
        <ele>967.3</ele>
        <time>2021-08-09T11:41:00Z</time>
      </trkpt>
      <trkpt lat="47.84113" lon="6.98628">
        <ele>967.4</ele>
        <time>2021-08-09T11:41:01Z</time>
      </trkpt>
      <trkpt lat="47.84116" lon="6.98624">
        <ele>967.5</ele>
        <time>2021-08-09T11:41:02Z</time>
      </trkpt>
      <trkpt lat="47.84119" lon="6.98621">
        <ele>967.6</ele>
        <time>2021-08-09T11:41:03Z</time>
      </trkpt>
      <trkpt lat="47.84121" lon="6.98618">
        <ele>967.7</ele>
        <time>2021-08-09T11:41:04Z</time>
      </trkpt>
      <trkpt lat="47.84123" lon="6.98614">
        <ele>967.8</ele>
        <time>2021-08-09T11:41:05Z</time>
      </trkpt>
      <trkpt lat="47.84125" lon="6.9861">
        <ele>967.9</ele>
        <time>2021-08-09T11:41:06Z</time>
      </trkpt>
      <trkpt lat="47.84128" lon="6.98608">
        <ele>967.9</ele>
        <time>2021-08-09T11:41:07Z</time>
      </trkpt>
      <trkpt lat="47.84131" lon="6.98604">
        <ele>968</ele>
        <time>2021-08-09T11:41:09Z</time>
      </trkpt>
      <trkpt lat="47.84135" lon="6.98599">
        <ele>968</ele>
        <time>2021-08-09T11:41:10Z</time>
      </trkpt>
      <trkpt lat="47.84138" lon="6.98594">
        <ele>967.9</ele>
        <time>2021-08-09T11:41:12Z</time>
      </trkpt>
      <trkpt lat="47.84141" lon="6.98591">
        <ele>967.9</ele>
        <time>2021-08-09T11:41:13Z</time>
      </trkpt>
      <trkpt lat="47.84146" lon="6.98585">
        <ele>967.7</ele>
        <time>2021-08-09T11:41:14Z</time>
      </trkpt>
      <trkpt lat="47.84151" lon="6.98581">
        <ele>967.5</ele>
        <time>2021-08-09T11:41:15Z</time>
      </trkpt>
      <trkpt lat="47.84154" lon="6.98579">
        <ele>967.5</ele>
        <time>2021-08-09T11:41:17Z</time>
      </trkpt>
      <trkpt lat="47.84156" lon="6.98576">
        <ele>967.4</ele>
        <time>2021-08-09T11:41:18Z</time>
      </trkpt>
      <trkpt lat="47.84159" lon="6.98572">
        <ele>967.2</ele>
        <time>2021-08-09T11:41:19Z</time>
      </trkpt>
      <trkpt lat="47.84162" lon="6.98567">
        <ele>967.1</ele>
        <time>2021-08-09T11:41:20Z</time>
      </trkpt>
      <trkpt lat="47.84164" lon="6.9856">
        <ele>966.9</ele>
        <time>2021-08-09T11:41:22Z</time>
      </trkpt>
      <trkpt lat="47.84165" lon="6.98552">
        <ele>966.6</ele>
        <time>2021-08-09T11:41:23Z</time>
      </trkpt>
      <trkpt lat="47.84166" lon="6.98545">
        <ele>966.4</ele>
        <time>2021-08-09T11:41:24Z</time>
      </trkpt>
      <trkpt lat="47.84166" lon="6.98537">
        <ele>966.1</ele>
        <time>2021-08-09T11:41:25Z</time>
      </trkpt>
      <trkpt lat="47.84165" lon="6.98526">
        <ele>965.7</ele>
        <time>2021-08-09T11:41:27Z</time>
      </trkpt>
      <trkpt lat="47.84164" lon="6.98519">
        <ele>965.4</ele>
        <time>2021-08-09T11:41:28Z</time>
      </trkpt>
      <trkpt lat="47.84163" lon="6.9851">
        <ele>965.1</ele>
        <time>2021-08-09T11:41:30Z</time>
      </trkpt>
      <trkpt lat="47.84161" lon="6.985">
        <ele>964.8</ele>
        <time>2021-08-09T11:41:31Z</time>
      </trkpt>
      <trkpt lat="47.84159" lon="6.98493">
        <ele>964.6</ele>
        <time>2021-08-09T11:41:33Z</time>
      </trkpt>
      <trkpt lat="47.84157" lon="6.98488">
        <ele>964.4</ele>
        <time>2021-08-09T11:41:34Z</time>
      </trkpt>
      <trkpt lat="47.84155" lon="6.98483">
        <ele>964.3</ele>
        <time>2021-08-09T11:41:35Z</time>
      </trkpt>
      <trkpt lat="47.84152" lon="6.98468">
        <ele>964</ele>
        <time>2021-08-09T11:41:37Z</time>
      </trkpt>
      <trkpt lat="47.84156" lon="6.9846">
        <ele>963.9</ele>
        <time>2021-08-09T11:41:38Z</time>
      </trkpt>
      <trkpt lat="47.84154" lon="6.98451">
        <ele>964</ele>
        <time>2021-08-09T11:41:40Z</time>
      </trkpt>
      <trkpt lat="47.84152" lon="6.98443">
        <ele>964.2</ele>
        <time>2021-08-09T11:41:41Z</time>
      </trkpt>
      <trkpt lat="47.8415" lon="6.98439">
        <ele>964.4</ele>
        <time>2021-08-09T11:41:43Z</time>
      </trkpt>
      <trkpt lat="47.84148" lon="6.98435">
        <ele>964.6</ele>
        <time>2021-08-09T11:41:44Z</time>
      </trkpt>
      <trkpt lat="47.84146" lon="6.9843">
        <ele>964.9</ele>
        <time>2021-08-09T11:41:45Z</time>
      </trkpt>
      <trkpt lat="47.84146" lon="6.98428">
        <ele>965.1</ele>
        <time>2021-08-09T11:41:46Z</time>
      </trkpt>
      <trkpt lat="47.84145" lon="6.98422">
        <ele>965.5</ele>
        <time>2021-08-09T11:41:48Z</time>
      </trkpt>
      <trkpt lat="47.84144" lon="6.98418">
        <ele>965.8</ele>
        <time>2021-08-09T11:41:49Z</time>
      </trkpt>
      <trkpt lat="47.84143" lon="6.98414">
        <ele>966.1</ele>
        <time>2021-08-09T11:41:51Z</time>
      </trkpt>
      <trkpt lat="47.8414" lon="6.98409">
        <ele>966.5</ele>
        <time>2021-08-09T11:41:52Z</time>
      </trkpt>
      <trkpt lat="47.84137" lon="6.98404">
        <ele>967</ele>
        <time>2021-08-09T11:41:54Z</time>
      </trkpt>
      <trkpt lat="47.84136" lon="6.98402">
        <ele>967.2</ele>
        <time>2021-08-09T11:41:55Z</time>
      </trkpt>
      <trkpt lat="47.84135" lon="6.98401">
        <ele>967.4</ele>
        <time>2021-08-09T11:41:56Z</time>
      </trkpt>
      <trkpt lat="47.84132" lon="6.98396">
        <ele>967.8</ele>
        <time>2021-08-09T11:41:58Z</time>
      </trkpt>
      <trkpt lat="47.8413" lon="6.98392">
        <ele>968.2</ele>
        <time>2021-08-09T11:41:59Z</time>
      </trkpt>
      <trkpt lat="47.84129" lon="6.9839">
        <ele>968.3</ele>
        <time>2021-08-09T11:42:00Z</time>
      </trkpt>
      <trkpt lat="47.84128" lon="6.98389">
        <ele>968.5</ele>
        <time>2021-08-09T11:42:02Z</time>
      </trkpt>
      <trkpt lat="47.84127" lon="6.98389">
        <ele>968.5</ele>
        <time>2021-08-09T11:42:04Z</time>
      </trkpt>
      <trkpt lat="47.84127" lon="6.98389">
        <ele>968.6</ele>
        <time>2021-08-09T11:42:05Z</time>
      </trkpt>
      <trkpt lat="47.84126" lon="6.98387">
        <ele>968.8</ele>
        <time>2021-08-09T11:42:07Z</time>
      </trkpt>
      <trkpt lat="47.84125" lon="6.98384">
        <ele>969</ele>
        <time>2021-08-09T11:42:08Z</time>
      </trkpt>
      <trkpt lat="47.84123" lon="6.98382">
        <ele>969.3</ele>
        <time>2021-08-09T11:42:10Z</time>
      </trkpt>
      <trkpt lat="47.84122" lon="6.98379">
        <ele>969.5</ele>
        <time>2021-08-09T11:42:11Z</time>
      </trkpt>
      <trkpt lat="47.8412" lon="6.98376">
        <ele>969.8</ele>
        <time>2021-08-09T11:42:12Z</time>
      </trkpt>
      <trkpt lat="47.84119" lon="6.98373">
        <ele>970</ele>
        <time>2021-08-09T11:42:23Z</time>
      </trkpt>
      <trkpt lat="47.84117" lon="6.98371">
        <ele>970.2</ele>
        <time>2021-08-09T11:42:24Z</time>
      </trkpt>
      <trkpt lat="47.84111" lon="6.98359">
        <ele>970.8</ele>
        <time>2021-08-09T11:42:26Z</time>
      </trkpt>
      <trkpt lat="47.84107" lon="6.98352">
        <ele>970.8</ele>
        <time>2021-08-09T11:42:27Z</time>
      </trkpt>
      <trkpt lat="47.84104" lon="6.98344">
        <ele>970.8</ele>
        <time>2021-08-09T11:42:28Z</time>
      </trkpt>
      <trkpt lat="47.84102" lon="6.98338">
        <ele>970.6</ele>
        <time>2021-08-09T11:42:29Z</time>
      </trkpt>
      <trkpt lat="47.841" lon="6.98333">
        <ele>970.5</ele>
        <time>2021-08-09T11:42:31Z</time>
      </trkpt>
      <trkpt lat="47.84098" lon="6.98326">
        <ele>970.3</ele>
        <time>2021-08-09T11:42:32Z</time>
      </trkpt>
      <trkpt lat="47.84097" lon="6.9832">
        <ele>970</ele>
        <time>2021-08-09T11:42:33Z</time>
      </trkpt>
      <trkpt lat="47.84094" lon="6.98314">
        <ele>969.8</ele>
        <time>2021-08-09T11:42:35Z</time>
      </trkpt>
      <trkpt lat="47.84092" lon="6.98309">
        <ele>969.6</ele>
        <time>2021-08-09T11:42:36Z</time>
      </trkpt>
      <trkpt lat="47.84089" lon="6.98302">
        <ele>969.3</ele>
        <time>2021-08-09T11:42:37Z</time>
      </trkpt>
      <trkpt lat="47.84086" lon="6.98295">
        <ele>969.1</ele>
        <time>2021-08-09T11:42:39Z</time>
      </trkpt>
      <trkpt lat="47.84084" lon="6.98289">
        <ele>968.9</ele>
        <time>2021-08-09T11:42:40Z</time>
      </trkpt>
      <trkpt lat="47.84083" lon="6.98283">
        <ele>968.7</ele>
        <time>2021-08-09T11:42:42Z</time>
      </trkpt>
      <trkpt lat="47.84083" lon="6.98273">
        <ele>968.6</ele>
        <time>2021-08-09T11:42:44Z</time>
      </trkpt>
      <trkpt lat="47.84083" lon="6.98268">
        <ele>968.5</ele>
        <time>2021-08-09T11:42:45Z</time>
      </trkpt>
      <trkpt lat="47.84085" lon="6.98261">
        <ele>968.3</ele>
        <time>2021-08-09T11:42:46Z</time>
      </trkpt>
      <trkpt lat="47.84086" lon="6.98256">
        <ele>968.3</ele>
        <time>2021-08-09T11:42:47Z</time>
      </trkpt>
      <trkpt lat="47.84088" lon="6.9825">
        <ele>968.2</ele>
        <time>2021-08-09T11:42:48Z</time>
      </trkpt>
      <trkpt lat="47.84091" lon="6.98245">
        <ele>968.2</ele>
        <time>2021-08-09T11:42:50Z</time>
      </trkpt>
      <trkpt lat="47.84095" lon="6.98236">
        <ele>968.4</ele>
        <time>2021-08-09T11:42:51Z</time>
      </trkpt>
      <trkpt lat="47.84097" lon="6.98232">
        <ele>968.5</ele>
        <time>2021-08-09T11:42:53Z</time>
      </trkpt>
      <trkpt lat="47.84099" lon="6.98228">
        <ele>968.6</ele>
        <time>2021-08-09T11:42:54Z</time>
      </trkpt>
      <trkpt lat="47.841" lon="6.98223">
        <ele>968.7</ele>
        <time>2021-08-09T11:42:55Z</time>
      </trkpt>
      <trkpt lat="47.841" lon="6.98222">
        <ele>968.7</ele>
        <time>2021-08-09T11:42:56Z</time>
      </trkpt>
      <trkpt lat="47.841" lon="6.98217">
        <ele>968.9</ele>
        <time>2021-08-09T11:42:58Z</time>
      </trkpt>
      <trkpt lat="47.84101" lon="6.98215">
        <ele>969</ele>
        <time>2021-08-09T11:42:59Z</time>
      </trkpt>
      <trkpt lat="47.84101" lon="6.98212">
        <ele>969.1</ele>
        <time>2021-08-09T11:43:01Z</time>
      </trkpt>
      <trkpt lat="47.84101" lon="6.98211">
        <ele>969.1</ele>
        <time>2021-08-09T11:43:02Z</time>
      </trkpt>
      <trkpt lat="47.84104" lon="6.98213">
        <ele>969.2</ele>
        <time>2021-08-09T11:43:03Z</time>
      </trkpt>
      <trkpt lat="47.84104" lon="6.98213">
        <ele>969.2</ele>
        <time>2021-08-09T11:43:04Z</time>
      </trkpt>
      <trkpt lat="47.84104" lon="6.98213">
        <ele>969.2</ele>
        <time>2021-08-09T11:43:06Z</time>
      </trkpt>
      <trkpt lat="47.84104" lon="6.98212">
        <ele>969.3</ele>
        <time>2021-08-09T11:43:07Z</time>
      </trkpt>
      <trkpt lat="47.84104" lon="6.9821">
        <ele>969.3</ele>
        <time>2021-08-09T11:43:09Z</time>
      </trkpt>
      <trkpt lat="47.84104" lon="6.9821">
        <ele>969.3</ele>
        <time>2021-08-09T11:43:10Z</time>
      </trkpt>
      <trkpt lat="47.84105" lon="6.98209">
        <ele>969.4</ele>
        <time>2021-08-09T11:43:11Z</time>
      </trkpt>
      <trkpt lat="47.84088" lon="6.98189">
        <ele>970</ele>
        <time>2021-08-09T11:44:05Z</time>
      </trkpt>
      <trkpt lat="47.84086" lon="6.98186">
        <ele>970.1</ele>
        <time>2021-08-09T11:44:06Z</time>
      </trkpt>
      <trkpt lat="47.84081" lon="6.98174">
        <ele>969.9</ele>
        <time>2021-08-09T11:44:08Z</time>
      </trkpt>
      <trkpt lat="47.84077" lon="6.98161">
        <ele>969.3</ele>
        <time>2021-08-09T11:44:10Z</time>
      </trkpt>
      <trkpt lat="47.84076" lon="6.98154">
        <ele>969</ele>
        <time>2021-08-09T11:44:11Z</time>
      </trkpt>
      <trkpt lat="47.84072" lon="6.98143">
        <ele>968.3</ele>
        <time>2021-08-09T11:44:13Z</time>
      </trkpt>
      <trkpt lat="47.8407" lon="6.98137">
        <ele>967.9</ele>
        <time>2021-08-09T11:44:14Z</time>
      </trkpt>
      <trkpt lat="47.84067" lon="6.98124">
        <ele>967.1</ele>
        <time>2021-08-09T11:44:16Z</time>
      </trkpt>
      <trkpt lat="47.84066" lon="6.98116">
        <ele>966.6</ele>
        <time>2021-08-09T11:44:17Z</time>
      </trkpt>
      <trkpt lat="47.84067" lon="6.98103">
        <ele>965.7</ele>
        <time>2021-08-09T11:44:19Z</time>
      </trkpt>
      <trkpt lat="47.84069" lon="6.98094">
        <ele>965</ele>
        <time>2021-08-09T11:44:20Z</time>
      </trkpt>
      <trkpt lat="47.84074" lon="6.98079">
        <ele>963.8</ele>
        <time>2021-08-09T11:44:22Z</time>
      </trkpt>
      <trkpt lat="47.84084" lon="6.98061">
        <ele>961.9</ele>
        <time>2021-08-09T11:44:24Z</time>
      </trkpt>
      <trkpt lat="47.84092" lon="6.98042">
        <ele>960.1</ele>
        <time>2021-08-09T11:44:26Z</time>
      </trkpt>
      <trkpt lat="47.841" lon="6.98025">
        <ele>958.6</ele>
        <time>2021-08-09T11:44:28Z</time>
      </trkpt>
      <trkpt lat="47.84108" lon="6.98008">
        <ele>957.2</ele>
        <time>2021-08-09T11:44:30Z</time>
      </trkpt>
      <trkpt lat="47.84112" lon="6.98001">
        <ele>956.7</ele>
        <time>2021-08-09T11:44:31Z</time>
      </trkpt>
      <trkpt lat="47.84116" lon="6.97993">
        <ele>956.1</ele>
        <time>2021-08-09T11:44:32Z</time>
      </trkpt>
      <trkpt lat="47.84121" lon="6.97978">
        <ele>955</ele>
        <time>2021-08-09T11:44:34Z</time>
      </trkpt>
      <trkpt lat="47.84124" lon="6.97971">
        <ele>954.5</ele>
        <time>2021-08-09T11:44:35Z</time>
      </trkpt>
      <trkpt lat="47.84127" lon="6.97966">
        <ele>953.9</ele>
        <time>2021-08-09T11:44:36Z</time>
      </trkpt>
      <trkpt lat="47.84132" lon="6.97954">
        <ele>952.8</ele>
        <time>2021-08-09T11:44:38Z</time>
      </trkpt>
      <trkpt lat="47.84138" lon="6.97945">
        <ele>951.7</ele>
        <time>2021-08-09T11:44:40Z</time>
      </trkpt>
      <trkpt lat="47.8414" lon="6.97941">
        <ele>951.2</ele>
        <time>2021-08-09T11:44:41Z</time>
      </trkpt>
      <trkpt lat="47.84141" lon="6.97937">
        <ele>950.7</ele>
        <time>2021-08-09T11:44:42Z</time>
      </trkpt>
      <trkpt lat="47.84141" lon="6.97932">
        <ele>950.2</ele>
        <time>2021-08-09T11:44:43Z</time>
      </trkpt>
      <trkpt lat="47.84142" lon="6.9793">
        <ele>949.9</ele>
        <time>2021-08-09T11:44:44Z</time>
      </trkpt>
      <trkpt lat="47.84143" lon="6.9793">
        <ele>949.8</ele>
        <time>2021-08-09T11:44:45Z</time>
      </trkpt>
      <trkpt lat="47.84143" lon="6.97926">
        <ele>949.4</ele>
        <time>2021-08-09T11:44:47Z</time>
      </trkpt>
      <trkpt lat="47.84143" lon="6.97925">
        <ele>949.3</ele>
        <time>2021-08-09T11:44:48Z</time>
      </trkpt>
      <trkpt lat="47.84144" lon="6.97924">
        <ele>949</ele>
        <time>2021-08-09T11:44:50Z</time>
      </trkpt>
      <trkpt lat="47.84146" lon="6.97922">
        <ele>948.8</ele>
        <time>2021-08-09T11:44:51Z</time>
      </trkpt>
      <trkpt lat="47.8415" lon="6.9792">
        <ele>948.1</ele>
        <time>2021-08-09T11:44:52Z</time>
      </trkpt>
      <trkpt lat="47.84152" lon="6.97917">
        <ele>947.6</ele>
        <time>2021-08-09T11:44:54Z</time>
      </trkpt>
      <trkpt lat="47.84154" lon="6.97917">
        <ele>947.3</ele>
        <time>2021-08-09T11:44:55Z</time>
      </trkpt>
      <trkpt lat="47.84157" lon="6.97912">
        <ele>946.6</ele>
        <time>2021-08-09T11:44:57Z</time>
      </trkpt>
      <trkpt lat="47.8416" lon="6.97909">
        <ele>946</ele>
        <time>2021-08-09T11:44:58Z</time>
      </trkpt>
      <trkpt lat="47.84163" lon="6.97902">
        <ele>945.1</ele>
        <time>2021-08-09T11:45:00Z</time>
      </trkpt>
      <trkpt lat="47.84165" lon="6.97898">
        <ele>944.5</ele>
        <time>2021-08-09T11:45:01Z</time>
      </trkpt>
      <trkpt lat="47.84169" lon="6.97893">
        <ele>943.7</ele>
        <time>2021-08-09T11:45:03Z</time>
      </trkpt>
      <trkpt lat="47.84175" lon="6.97883">
        <ele>942.4</ele>
        <time>2021-08-09T11:45:04Z</time>
      </trkpt>
      <trkpt lat="47.84179" lon="6.97873">
        <ele>941.4</ele>
        <time>2021-08-09T11:45:06Z</time>
      </trkpt>
      <trkpt lat="47.84184" lon="6.97865">
        <ele>940.5</ele>
        <time>2021-08-09T11:45:07Z</time>
      </trkpt>
      <trkpt lat="47.84186" lon="6.9786">
        <ele>940</ele>
        <time>2021-08-09T11:45:08Z</time>
      </trkpt>
      <trkpt lat="47.84187" lon="6.97855">
        <ele>939.6</ele>
        <time>2021-08-09T11:45:09Z</time>
      </trkpt>
      <trkpt lat="47.84186" lon="6.97848">
        <ele>939.1</ele>
        <time>2021-08-09T11:45:10Z</time>
      </trkpt>
      <trkpt lat="47.84184" lon="6.97843">
        <ele>938.6</ele>
        <time>2021-08-09T11:45:12Z</time>
      </trkpt>
      <trkpt lat="47.84183" lon="6.97837">
        <ele>938.2</ele>
        <time>2021-08-09T11:45:13Z</time>
      </trkpt>
      <trkpt lat="47.84182" lon="6.97832">
        <ele>937.8</ele>
        <time>2021-08-09T11:45:14Z</time>
      </trkpt>
      <trkpt lat="47.8418" lon="6.97826">
        <ele>937.4</ele>
        <time>2021-08-09T11:45:16Z</time>
      </trkpt>
      <trkpt lat="47.84179" lon="6.97821">
        <ele>937.1</ele>
        <time>2021-08-09T11:45:17Z</time>
      </trkpt>
      <trkpt lat="47.84178" lon="6.97815">
        <ele>936.8</ele>
        <time>2021-08-09T11:45:19Z</time>
      </trkpt>
      <trkpt lat="47.84177" lon="6.9781">
        <ele>936.5</ele>
        <time>2021-08-09T11:45:55Z</time>
      </trkpt>
      <trkpt lat="47.84175" lon="6.97804">
        <ele>936.2</ele>
        <time>2021-08-09T11:45:56Z</time>
      </trkpt>
      <trkpt lat="47.84175" lon="6.97796">
        <ele>935.9</ele>
        <time>2021-08-09T11:45:58Z</time>
      </trkpt>
      <trkpt lat="47.84175" lon="6.97787">
        <ele>936</ele>
        <time>2021-08-09T11:45:59Z</time>
      </trkpt>
      <trkpt lat="47.84176" lon="6.97778">
        <ele>936.1</ele>
        <time>2021-08-09T11:46:00Z</time>
      </trkpt>
      <trkpt lat="47.84176" lon="6.97767">
        <ele>936.3</ele>
        <time>2021-08-09T11:46:01Z</time>
      </trkpt>
      <trkpt lat="47.84176" lon="6.97759">
        <ele>936.4</ele>
        <time>2021-08-09T11:46:02Z</time>
      </trkpt>
      <trkpt lat="47.84177" lon="6.97752">
        <ele>936.5</ele>
        <time>2021-08-09T11:46:04Z</time>
      </trkpt>
      <trkpt lat="47.84179" lon="6.9774">
        <ele>936.8</ele>
        <time>2021-08-09T11:46:06Z</time>
      </trkpt>
      <trkpt lat="47.84181" lon="6.97736">
        <ele>936.9</ele>
        <time>2021-08-09T11:46:07Z</time>
      </trkpt>
      <trkpt lat="47.84182" lon="6.97732">
        <ele>937</ele>
        <time>2021-08-09T11:46:08Z</time>
      </trkpt>
      <trkpt lat="47.84184" lon="6.97727">
        <ele>937.2</ele>
        <time>2021-08-09T11:46:10Z</time>
      </trkpt>
      <trkpt lat="47.84186" lon="6.97724">
        <ele>937.3</ele>
        <time>2021-08-09T11:46:11Z</time>
      </trkpt>
      <trkpt lat="47.8419" lon="6.97721">
        <ele>937.6</ele>
        <time>2021-08-09T11:46:13Z</time>
      </trkpt>
      <trkpt lat="47.84194" lon="6.97716">
        <ele>937.8</ele>
        <time>2021-08-09T11:46:15Z</time>
      </trkpt>
      <trkpt lat="47.84198" lon="6.97711">
        <ele>938.1</ele>
        <time>2021-08-09T11:46:16Z</time>
      </trkpt>
      <trkpt lat="47.842" lon="6.97705">
        <ele>938.3</ele>
        <time>2021-08-09T11:46:18Z</time>
      </trkpt>
      <trkpt lat="47.84202" lon="6.977">
        <ele>938.5</ele>
        <time>2021-08-09T11:46:19Z</time>
      </trkpt>
      <trkpt lat="47.84203" lon="6.97697">
        <ele>938.7</ele>
        <time>2021-08-09T11:46:20Z</time>
      </trkpt>
      <trkpt lat="47.84206" lon="6.97694">
        <ele>938.9</ele>
        <time>2021-08-09T11:46:22Z</time>
      </trkpt>
      <trkpt lat="47.84207" lon="6.97693">
        <ele>938.9</ele>
        <time>2021-08-09T11:46:23Z</time>
      </trkpt>
      <trkpt lat="47.84206" lon="6.97691">
        <ele>939</ele>
        <time>2021-08-09T11:46:24Z</time>
      </trkpt>
      <trkpt lat="47.84206" lon="6.9769">
        <ele>939.1</ele>
        <time>2021-08-09T11:46:25Z</time>
      </trkpt>
      <trkpt lat="47.84206" lon="6.97688">
        <ele>939.2</ele>
        <time>2021-08-09T11:46:26Z</time>
      </trkpt>
      <trkpt lat="47.84206" lon="6.97687">
        <ele>939.2</ele>
        <time>2021-08-09T11:46:28Z</time>
      </trkpt>
      <trkpt lat="47.84205" lon="6.97685">
        <ele>939.3</ele>
        <time>2021-08-09T11:46:30Z</time>
      </trkpt>
      <trkpt lat="47.84205" lon="6.97685">
        <ele>939.3</ele>
        <time>2021-08-09T11:46:31Z</time>
      </trkpt>
      <trkpt lat="47.84205" lon="6.97684">
        <ele>939.3</ele>
        <time>2021-08-09T11:46:32Z</time>
      </trkpt>
      <trkpt lat="47.84205" lon="6.97683">
        <ele>939.3</ele>
        <time>2021-08-09T11:46:33Z</time>
      </trkpt>
      <trkpt lat="47.84205" lon="6.97683">
        <ele>939.4</ele>
        <time>2021-08-09T11:46:35Z</time>
      </trkpt>
      <trkpt lat="47.842" lon="6.97629">
        <ele>943</ele>
        <time>2021-08-09T11:46:56Z</time>
      </trkpt>
      <trkpt lat="47.842" lon="6.97624">
        <ele>943.1</ele>
        <time>2021-08-09T11:46:57Z</time>
      </trkpt>
      <trkpt lat="47.84201" lon="6.97619">
        <ele>943.3</ele>
        <time>2021-08-09T11:46:59Z</time>
      </trkpt>
      <trkpt lat="47.84201" lon="6.97611">
        <ele>943.5</ele>
        <time>2021-08-09T11:47:00Z</time>
      </trkpt>
      <trkpt lat="47.84202" lon="6.97605">
        <ele>943.6</ele>
        <time>2021-08-09T11:47:02Z</time>
      </trkpt>
      <trkpt lat="47.84202" lon="6.97603">
        <ele>943.7</ele>
        <time>2021-08-09T11:47:03Z</time>
      </trkpt>
      <trkpt lat="47.842" lon="6.97598">
        <ele>943.8</ele>
        <time>2021-08-09T11:47:04Z</time>
      </trkpt>
      <trkpt lat="47.842" lon="6.97595">
        <ele>943.9</ele>
        <time>2021-08-09T11:47:05Z</time>
      </trkpt>
      <trkpt lat="47.84198" lon="6.9759">
        <ele>944.1</ele>
        <time>2021-08-09T11:47:07Z</time>
      </trkpt>
      <trkpt lat="47.84196" lon="6.97586">
        <ele>944.2</ele>
        <time>2021-08-09T11:47:08Z</time>
      </trkpt>
      <trkpt lat="47.84194" lon="6.97582">
        <ele>944.4</ele>
        <time>2021-08-09T11:47:09Z</time>
      </trkpt>
      <trkpt lat="47.84191" lon="6.97578">
        <ele>944.5</ele>
        <time>2021-08-09T11:47:11Z</time>
      </trkpt>
      <trkpt lat="47.84185" lon="6.97573">
        <ele>944.8</ele>
        <time>2021-08-09T11:47:12Z</time>
      </trkpt>
      <trkpt lat="47.8418" lon="6.97568">
        <ele>945</ele>
        <time>2021-08-09T11:47:13Z</time>
      </trkpt>
      <trkpt lat="47.84177" lon="6.97564">
        <ele>945.2</ele>
        <time>2021-08-09T11:47:15Z</time>
      </trkpt>
      <trkpt lat="47.84174" lon="6.97558">
        <ele>945.3</ele>
        <time>2021-08-09T11:47:16Z</time>
      </trkpt>
      <trkpt lat="47.84172" lon="6.97554">
        <ele>945.4</ele>
        <time>2021-08-09T11:47:17Z</time>
      </trkpt>
      <trkpt lat="47.8417" lon="6.97549">
        <ele>945.5</ele>
        <time>2021-08-09T11:47:18Z</time>
      </trkpt>
      <trkpt lat="47.84168" lon="6.97544">
        <ele>945.6</ele>
        <time>2021-08-09T11:47:20Z</time>
      </trkpt>
      <trkpt lat="47.84167" lon="6.97542">
        <ele>945.7</ele>
        <time>2021-08-09T11:47:21Z</time>
      </trkpt>
      <trkpt lat="47.84165" lon="6.97539">
        <ele>945.7</ele>
        <time>2021-08-09T11:47:22Z</time>
      </trkpt>
      <trkpt lat="47.84163" lon="6.97535">
        <ele>945.8</ele>
        <time>2021-08-09T11:47:23Z</time>
      </trkpt>
      <trkpt lat="47.84162" lon="6.97534">
        <ele>945.8</ele>
        <time>2021-08-09T11:47:24Z</time>
      </trkpt>
      <trkpt lat="47.84161" lon="6.9753">
        <ele>945.9</ele>
        <time>2021-08-09T11:47:25Z</time>
      </trkpt>
      <trkpt lat="47.84161" lon="6.97529">
        <ele>945.9</ele>
        <time>2021-08-09T11:47:26Z</time>
      </trkpt>
      <trkpt lat="47.8416" lon="6.97525">
        <ele>946</ele>
        <time>2021-08-09T11:47:27Z</time>
      </trkpt>
      <trkpt lat="47.84158" lon="6.97521">
        <ele>946</ele>
        <time>2021-08-09T11:47:29Z</time>
      </trkpt>
      <trkpt lat="47.84157" lon="6.97518">
        <ele>946.1</ele>
        <time>2021-08-09T11:47:30Z</time>
      </trkpt>
      <trkpt lat="47.84156" lon="6.97517">
        <ele>946.2</ele>
        <time>2021-08-09T11:47:31Z</time>
      </trkpt>
      <trkpt lat="47.84154" lon="6.97515">
        <ele>946.3</ele>
        <time>2021-08-09T11:47:32Z</time>
      </trkpt>
      <trkpt lat="47.84152" lon="6.97513">
        <ele>946.3</ele>
        <time>2021-08-09T11:47:34Z</time>
      </trkpt>
      <trkpt lat="47.84152" lon="6.97509">
        <ele>946.4</ele>
        <time>2021-08-09T11:47:35Z</time>
      </trkpt>
      <trkpt lat="47.84153" lon="6.97508">
        <ele>946.5</ele>
        <time>2021-08-09T11:47:36Z</time>
      </trkpt>
      <trkpt lat="47.84155" lon="6.97507">
        <ele>946.5</ele>
        <time>2021-08-09T11:47:37Z</time>
      </trkpt>
      <trkpt lat="47.84158" lon="6.97505">
        <ele>946.7</ele>
        <time>2021-08-09T11:47:38Z</time>
      </trkpt>
      <trkpt lat="47.84158" lon="6.97504">
        <ele>946.8</ele>
        <time>2021-08-09T11:47:39Z</time>
      </trkpt>
      <trkpt lat="47.84163" lon="6.97503">
        <ele>947</ele>
        <time>2021-08-09T11:47:40Z</time>
      </trkpt>
      <trkpt lat="47.84165" lon="6.97501">
        <ele>947.2</ele>
        <time>2021-08-09T11:47:42Z</time>
      </trkpt>
      <trkpt lat="47.84165" lon="6.975">
        <ele>947.2</ele>
        <time>2021-08-09T11:47:43Z</time>
      </trkpt>
      <trkpt lat="47.84165" lon="6.97498">
        <ele>947.3</ele>
        <time>2021-08-09T11:47:44Z</time>
      </trkpt>
      <trkpt lat="47.84166" lon="6.97494">
        <ele>947.5</ele>
        <time>2021-08-09T11:47:46Z</time>
      </trkpt>
      <trkpt lat="47.84167" lon="6.97493">
        <ele>947.6</ele>
        <time>2021-08-09T11:47:47Z</time>
      </trkpt>
      <trkpt lat="47.84167" lon="6.97492">
        <ele>947.6</ele>
        <time>2021-08-09T11:47:49Z</time>
      </trkpt>
      <trkpt lat="47.84167" lon="6.97492">
        <ele>947.7</ele>
        <time>2021-08-09T11:47:50Z</time>
      </trkpt>
      <trkpt lat="47.84167" lon="6.97491">
        <ele>947.7</ele>
        <time>2021-08-09T11:47:51Z</time>
      </trkpt>
      <trkpt lat="47.84168" lon="6.97489">
        <ele>947.8</ele>
        <time>2021-08-09T11:47:53Z</time>
      </trkpt>
      <trkpt lat="47.84169" lon="6.97488">
        <ele>947.9</ele>
        <time>2021-08-09T11:47:54Z</time>
      </trkpt>
      <trkpt lat="47.84171" lon="6.97481">
        <ele>948.4</ele>
        <time>2021-08-09T11:47:57Z</time>
      </trkpt>
      <trkpt lat="47.84172" lon="6.97477">
        <ele>948.6</ele>
        <time>2021-08-09T11:47:58Z</time>
      </trkpt>
      <trkpt lat="47.84172" lon="6.97475">
        <ele>948.8</ele>
        <time>2021-08-09T11:48:00Z</time>
      </trkpt>
      <trkpt lat="47.84172" lon="6.97473">
        <ele>948.9</ele>
        <time>2021-08-09T11:48:01Z</time>
      </trkpt>
      <trkpt lat="47.84172" lon="6.97468">
        <ele>949.2</ele>
        <time>2021-08-09T11:48:02Z</time>
      </trkpt>
      <trkpt lat="47.84172" lon="6.97467">
        <ele>949.3</ele>
        <time>2021-08-09T11:48:03Z</time>
      </trkpt>
      <trkpt lat="47.84172" lon="6.97464">
        <ele>949.5</ele>
        <time>2021-08-09T11:48:04Z</time>
      </trkpt>
      <trkpt lat="47.84172" lon="6.97456">
        <ele>950</ele>
        <time>2021-08-09T11:48:07Z</time>
      </trkpt>
      <trkpt lat="47.84174" lon="6.97452">
        <ele>950.3</ele>
        <time>2021-08-09T11:48:08Z</time>
      </trkpt>
      <trkpt lat="47.84174" lon="6.97444">
        <ele>950.7</ele>
        <time>2021-08-09T11:48:10Z</time>
      </trkpt>
      <trkpt lat="47.84174" lon="6.97441">
        <ele>950.8</ele>
        <time>2021-08-09T11:48:12Z</time>
      </trkpt>
      <trkpt lat="47.84174" lon="6.97439">
        <ele>951</ele>
        <time>2021-08-09T11:48:13Z</time>
      </trkpt>
      <trkpt lat="47.84174" lon="6.97436">
        <ele>951.1</ele>
        <time>2021-08-09T11:48:14Z</time>
      </trkpt>
      <trkpt lat="47.84172" lon="6.97432">
        <ele>951.3</ele>
        <time>2021-08-09T11:48:15Z</time>
      </trkpt>
      <trkpt lat="47.84169" lon="6.97426">
        <ele>951.7</ele>
        <time>2021-08-09T11:48:16Z</time>
      </trkpt>
      <trkpt lat="47.84167" lon="6.97423">
        <ele>951.9</ele>
        <time>2021-08-09T11:48:17Z</time>
      </trkpt>
      <trkpt lat="47.84164" lon="6.97419">
        <ele>952.2</ele>
        <time>2021-08-09T11:48:19Z</time>
      </trkpt>
      <trkpt lat="47.84159" lon="6.97411">
        <ele>952.7</ele>
        <time>2021-08-09T11:48:21Z</time>
      </trkpt>
      <trkpt lat="47.84157" lon="6.97405">
        <ele>952.9</ele>
        <time>2021-08-09T11:48:22Z</time>
      </trkpt>
      <trkpt lat="47.84156" lon="6.974">
        <ele>953.1</ele>
        <time>2021-08-09T11:48:23Z</time>
      </trkpt>
      <trkpt lat="47.84155" lon="6.97398">
        <ele>953.2</ele>
        <time>2021-08-09T11:48:24Z</time>
      </trkpt>
      <trkpt lat="47.84154" lon="6.97394">
        <ele>953.3</ele>
        <time>2021-08-09T11:48:26Z</time>
      </trkpt>
      <trkpt lat="47.84153" lon="6.97393">
        <ele>953.4</ele>
        <time>2021-08-09T11:48:27Z</time>
      </trkpt>
      <trkpt lat="47.84151" lon="6.97389">
        <ele>953.5</ele>
        <time>2021-08-09T11:48:28Z</time>
      </trkpt>
      <trkpt lat="47.84149" lon="6.97386">
        <ele>953.6</ele>
        <time>2021-08-09T11:48:29Z</time>
      </trkpt>
      <trkpt lat="47.84146" lon="6.97382">
        <ele>953.8</ele>
        <time>2021-08-09T11:48:31Z</time>
      </trkpt>
      <trkpt lat="47.84143" lon="6.97374">
        <ele>954</ele>
        <time>2021-08-09T11:48:33Z</time>
      </trkpt>
      <trkpt lat="47.8414" lon="6.9737">
        <ele>954.2</ele>
        <time>2021-08-09T11:48:34Z</time>
      </trkpt>
      <trkpt lat="47.84135" lon="6.97361">
        <ele>954.6</ele>
        <time>2021-08-09T11:48:36Z</time>
      </trkpt>
      <trkpt lat="47.84131" lon="6.97354">
        <ele>955.1</ele>
        <time>2021-08-09T11:48:37Z</time>
      </trkpt>
      <trkpt lat="47.8413" lon="6.9735">
        <ele>955.3</ele>
        <time>2021-08-09T11:48:38Z</time>
      </trkpt>
      <trkpt lat="47.84128" lon="6.97346">
        <ele>955.6</ele>
        <time>2021-08-09T11:48:40Z</time>
      </trkpt>
      <trkpt lat="47.84126" lon="6.97341">
        <ele>955.9</ele>
        <time>2021-08-09T11:48:42Z</time>
      </trkpt>
      <trkpt lat="47.84124" lon="6.97339">
        <ele>956.2</ele>
        <time>2021-08-09T11:48:43Z</time>
      </trkpt>
      <trkpt lat="47.84123" lon="6.97339">
        <ele>956.2</ele>
        <time>2021-08-09T11:48:44Z</time>
      </trkpt>
      <trkpt lat="47.84123" lon="6.97334">
        <ele>956.5</ele>
        <time>2021-08-09T11:48:46Z</time>
      </trkpt>
      <trkpt lat="47.84123" lon="6.97332">
        <ele>956.6</ele>
        <time>2021-08-09T11:48:47Z</time>
      </trkpt>
      <trkpt lat="47.84124" lon="6.9733">
        <ele>956.7</ele>
        <time>2021-08-09T11:48:49Z</time>
      </trkpt>
      <trkpt lat="47.84125" lon="6.97328">
        <ele>956.8</ele>
        <time>2021-08-09T11:48:50Z</time>
      </trkpt>
      <trkpt lat="47.84125" lon="6.97326">
        <ele>956.9</ele>
        <time>2021-08-09T11:48:51Z</time>
      </trkpt>
      <trkpt lat="47.84125" lon="6.97323">
        <ele>957</ele>
        <time>2021-08-09T11:48:52Z</time>
      </trkpt>
      <trkpt lat="47.84127" lon="6.9732">
        <ele>957.2</ele>
        <time>2021-08-09T11:48:54Z</time>
      </trkpt>
      <trkpt lat="47.84127" lon="6.97318">
        <ele>957.3</ele>
        <time>2021-08-09T11:48:55Z</time>
      </trkpt>
      <trkpt lat="47.84128" lon="6.97317">
        <ele>957.4</ele>
        <time>2021-08-09T11:48:56Z</time>
      </trkpt>
      <trkpt lat="47.84127" lon="6.97316">
        <ele>957.4</ele>
        <time>2021-08-09T11:48:57Z</time>
      </trkpt>
      <trkpt lat="47.84126" lon="6.97315">
        <ele>957.5</ele>
        <time>2021-08-09T11:48:59Z</time>
      </trkpt>
      <trkpt lat="47.84125" lon="6.97315">
        <ele>957.5</ele>
        <time>2021-08-09T11:49:00Z</time>
      </trkpt>
      <trkpt lat="47.84125" lon="6.97314">
        <ele>957.6</ele>
        <time>2021-08-09T11:49:01Z</time>
      </trkpt>
      <trkpt lat="47.84124" lon="6.97313">
        <ele>957.6</ele>
        <time>2021-08-09T11:49:02Z</time>
      </trkpt>
      <trkpt lat="47.84123" lon="6.9731">
        <ele>957.7</ele>
        <time>2021-08-09T11:49:04Z</time>
      </trkpt>
      <trkpt lat="47.84123" lon="6.97308">
        <ele>957.8</ele>
        <time>2021-08-09T11:49:05Z</time>
      </trkpt>
      <trkpt lat="47.84119" lon="6.97264">
        <ele>958.5</ele>
        <time>2021-08-09T11:49:23Z</time>
      </trkpt>
      <trkpt lat="47.84119" lon="6.97259">
        <ele>958.6</ele>
        <time>2021-08-09T11:49:25Z</time>
      </trkpt>
      <trkpt lat="47.84121" lon="6.97253">
        <ele>958.7</ele>
        <time>2021-08-09T11:49:26Z</time>
      </trkpt>
      <trkpt lat="47.84122" lon="6.97245">
        <ele>958.8</ele>
        <time>2021-08-09T11:49:28Z</time>
      </trkpt>
      <trkpt lat="47.84123" lon="6.97238">
        <ele>959</ele>
        <time>2021-08-09T11:49:29Z</time>
      </trkpt>
      <trkpt lat="47.84124" lon="6.97235">
        <ele>959.1</ele>
        <time>2021-08-09T11:49:30Z</time>
      </trkpt>
      <trkpt lat="47.84124" lon="6.97228">
        <ele>959.2</ele>
        <time>2021-08-09T11:49:31Z</time>
      </trkpt>
      <trkpt lat="47.84124" lon="6.97221">
        <ele>959.4</ele>
        <time>2021-08-09T11:49:33Z</time>
      </trkpt>
      <trkpt lat="47.84122" lon="6.97218">
        <ele>959.5</ele>
        <time>2021-08-09T11:49:34Z</time>
      </trkpt>
      <trkpt lat="47.8412" lon="6.97211">
        <ele>959.7</ele>
        <time>2021-08-09T11:49:36Z</time>
      </trkpt>
      <trkpt lat="47.8412" lon="6.97207">
        <ele>959.8</ele>
        <time>2021-08-09T11:49:38Z</time>
      </trkpt>
      <trkpt lat="47.84119" lon="6.97204">
        <ele>959.9</ele>
        <time>2021-08-09T11:49:39Z</time>
      </trkpt>
      <trkpt lat="47.84117" lon="6.97197">
        <ele>960.1</ele>
        <time>2021-08-09T11:49:41Z</time>
      </trkpt>
      <trkpt lat="47.84116" lon="6.97192">
        <ele>960.3</ele>
        <time>2021-08-09T11:49:42Z</time>
      </trkpt>
      <trkpt lat="47.84115" lon="6.97191">
        <ele>960.3</ele>
        <time>2021-08-09T11:49:43Z</time>
      </trkpt>
      <trkpt lat="47.84113" lon="6.97187">
        <ele>960.5</ele>
        <time>2021-08-09T11:49:44Z</time>
      </trkpt>
      <trkpt lat="47.84112" lon="6.97186">
        <ele>960.5</ele>
        <time>2021-08-09T11:49:45Z</time>
      </trkpt>
      <trkpt lat="47.84111" lon="6.97182">
        <ele>960.7</ele>
        <time>2021-08-09T11:49:46Z</time>
      </trkpt>
      <trkpt lat="47.8411" lon="6.9718">
        <ele>960.8</ele>
        <time>2021-08-09T11:49:47Z</time>
      </trkpt>
      <trkpt lat="47.84109" lon="6.97175">
        <ele>961</ele>
        <time>2021-08-09T11:49:49Z</time>
      </trkpt>
      <trkpt lat="47.84108" lon="6.97172">
        <ele>961.1</ele>
        <time>2021-08-09T11:49:50Z</time>
      </trkpt>
      <trkpt lat="47.84108" lon="6.97171">
        <ele>961.2</ele>
        <time>2021-08-09T11:49:51Z</time>
      </trkpt>
      <trkpt lat="47.84108" lon="6.97164">
        <ele>961.4</ele>
        <time>2021-08-09T11:49:53Z</time>
      </trkpt>
      <trkpt lat="47.84108" lon="6.97162">
        <ele>961.5</ele>
        <time>2021-08-09T11:49:54Z</time>
      </trkpt>
      <trkpt lat="47.84108" lon="6.97161">
        <ele>961.6</ele>
        <time>2021-08-09T11:49:55Z</time>
      </trkpt>
      <trkpt lat="47.84109" lon="6.97159">
        <ele>961.7</ele>
        <time>2021-08-09T11:49:56Z</time>
      </trkpt>
      <trkpt lat="47.8411" lon="6.97156">
        <ele>961.8</ele>
        <time>2021-08-09T11:49:57Z</time>
      </trkpt>
      <trkpt lat="47.84111" lon="6.97151">
        <ele>962</ele>
        <time>2021-08-09T11:49:59Z</time>
      </trkpt>
      <trkpt lat="47.84111" lon="6.9715">
        <ele>962</ele>
        <time>2021-08-09T11:50:00Z</time>
      </trkpt>
      <trkpt lat="47.84112" lon="6.97145">
        <ele>962.2</ele>
        <time>2021-08-09T11:50:01Z</time>
      </trkpt>
      <trkpt lat="47.84112" lon="6.97143">
        <ele>962.3</ele>
        <time>2021-08-09T11:50:02Z</time>
      </trkpt>
      <trkpt lat="47.84114" lon="6.97137">
        <ele>962.5</ele>
        <time>2021-08-09T11:50:04Z</time>
      </trkpt>
      <trkpt lat="47.84116" lon="6.97133">
        <ele>962.6</ele>
        <time>2021-08-09T11:50:05Z</time>
      </trkpt>
      <trkpt lat="47.84116" lon="6.9713">
        <ele>962.7</ele>
        <time>2021-08-09T11:50:06Z</time>
      </trkpt>
      <trkpt lat="47.84116" lon="6.97128">
        <ele>962.7</ele>
        <time>2021-08-09T11:50:07Z</time>
      </trkpt>
      <trkpt lat="47.84116" lon="6.97126">
        <ele>962.8</ele>
        <time>2021-08-09T11:50:09Z</time>
      </trkpt>
      <trkpt lat="47.84116" lon="6.97124">
        <ele>962.8</ele>
        <time>2021-08-09T11:50:10Z</time>
      </trkpt>
      <trkpt lat="47.84116" lon="6.97122">
        <ele>962.9</ele>
        <time>2021-08-09T11:50:11Z</time>
      </trkpt>
      <trkpt lat="47.84116" lon="6.97119">
        <ele>963</ele>
        <time>2021-08-09T11:50:12Z</time>
      </trkpt>
      <trkpt lat="47.84115" lon="6.97118">
        <ele>963</ele>
        <time>2021-08-09T11:50:14Z</time>
      </trkpt>
      <trkpt lat="47.84114" lon="6.97116">
        <ele>963.1</ele>
        <time>2021-08-09T11:50:15Z</time>
      </trkpt>
      <trkpt lat="47.84114" lon="6.97115">
        <ele>963.1</ele>
        <time>2021-08-09T11:50:16Z</time>
      </trkpt>
      <trkpt lat="47.84113" lon="6.97113">
        <ele>963.1</ele>
        <time>2021-08-09T11:50:18Z</time>
      </trkpt>
      <trkpt lat="47.84114" lon="6.97112">
        <ele>963.2</ele>
        <time>2021-08-09T11:50:19Z</time>
      </trkpt>
      <trkpt lat="47.84114" lon="6.9711">
        <ele>963.2</ele>
        <time>2021-08-09T11:50:20Z</time>
      </trkpt>
      <trkpt lat="47.84115" lon="6.97108">
        <ele>963.3</ele>
        <time>2021-08-09T11:50:22Z</time>
      </trkpt>
      <trkpt lat="47.84119" lon="6.97078">
        <ele>964.4</ele>
        <time>2021-08-09T11:50:36Z</time>
      </trkpt>
      <trkpt lat="47.84119" lon="6.97074">
        <ele>964.6</ele>
        <time>2021-08-09T11:50:37Z</time>
      </trkpt>
      <trkpt lat="47.8412" lon="6.97068">
        <ele>965</ele>
        <time>2021-08-09T11:50:39Z</time>
      </trkpt>
      <trkpt lat="47.84122" lon="6.97065">
        <ele>965.1</ele>
        <time>2021-08-09T11:50:40Z</time>
      </trkpt>
      <trkpt lat="47.84122" lon="6.97064">
        <ele>965.3</ele>
        <time>2021-08-09T11:50:41Z</time>
      </trkpt>
      <trkpt lat="47.84123" lon="6.97062">
        <ele>965.4</ele>
        <time>2021-08-09T11:50:42Z</time>
      </trkpt>
      <trkpt lat="47.84125" lon="6.97043">
        <ele>966.5</ele>
        <time>2021-08-09T11:50:43Z</time>
      </trkpt>
      <trkpt lat="47.84126" lon="6.97026">
        <ele>967.5</ele>
        <time>2021-08-09T11:50:45Z</time>
      </trkpt>
      <trkpt lat="47.84127" lon="6.9701">
        <ele>968.7</ele>
        <time>2021-08-09T11:50:47Z</time>
      </trkpt>
      <trkpt lat="47.84128" lon="6.96993">
        <ele>969.9</ele>
        <time>2021-08-09T11:51:48Z</time>
      </trkpt>
      <trkpt lat="47.84129" lon="6.96976">
        <ele>971.2</ele>
        <time>2021-08-09T11:51:49Z</time>
      </trkpt>
      <trkpt lat="47.8413" lon="6.9696">
        <ele>972.3</ele>
        <time>2021-08-09T11:51:50Z</time>
      </trkpt>
      <trkpt lat="47.8413" lon="6.96956">
        <ele>972.5</ele>
        <time>2021-08-09T11:51:51Z</time>
      </trkpt>
      <trkpt lat="47.8413" lon="6.96955">
        <ele>972.6</ele>
        <time>2021-08-09T11:51:53Z</time>
      </trkpt>
      <trkpt lat="47.84131" lon="6.96953">
        <ele>972.7</ele>
        <time>2021-08-09T11:51:55Z</time>
      </trkpt>
      <trkpt lat="47.84131" lon="6.96952">
        <ele>972.7</ele>
        <time>2021-08-09T11:51:56Z</time>
      </trkpt>
      <trkpt lat="47.84131" lon="6.9695">
        <ele>972.8</ele>
        <time>2021-08-09T11:51:57Z</time>
      </trkpt>
      <trkpt lat="47.84131" lon="6.96949">
        <ele>972.9</ele>
        <time>2021-08-09T11:51:58Z</time>
      </trkpt>
      <trkpt lat="47.84131" lon="6.96947">
        <ele>972.9</ele>
        <time>2021-08-09T11:52:00Z</time>
      </trkpt>
      <trkpt lat="47.84131" lon="6.96946">
        <ele>973</ele>
        <time>2021-08-09T11:52:01Z</time>
      </trkpt>
      <trkpt lat="47.84131" lon="6.96944">
        <ele>973.1</ele>
        <time>2021-08-09T11:52:02Z</time>
      </trkpt>
      <trkpt lat="47.84131" lon="6.96938">
        <ele>973.4</ele>
        <time>2021-08-09T11:52:04Z</time>
      </trkpt>
      <trkpt lat="47.84131" lon="6.96935">
        <ele>973.5</ele>
        <time>2021-08-09T11:52:05Z</time>
      </trkpt>
      <trkpt lat="47.84131" lon="6.96933">
        <ele>973.6</ele>
        <time>2021-08-09T11:52:06Z</time>
      </trkpt>
      <trkpt lat="47.84131" lon="6.9693">
        <ele>973.7</ele>
        <time>2021-08-09T11:52:07Z</time>
      </trkpt>
      <trkpt lat="47.84131" lon="6.96927">
        <ele>973.8</ele>
        <time>2021-08-09T11:52:09Z</time>
      </trkpt>
      <trkpt lat="47.84132" lon="6.96923">
        <ele>974</ele>
        <time>2021-08-09T11:52:10Z</time>
      </trkpt>
      <trkpt lat="47.84133" lon="6.96922">
        <ele>974.1</ele>
        <time>2021-08-09T11:52:11Z</time>
      </trkpt>
      <trkpt lat="47.84133" lon="6.9692">
        <ele>974.2</ele>
        <time>2021-08-09T11:52:13Z</time>
      </trkpt>
      <trkpt lat="47.84134" lon="6.96917">
        <ele>974.3</ele>
        <time>2021-08-09T11:52:14Z</time>
      </trkpt>
      <trkpt lat="47.84134" lon="6.96915">
        <ele>974.4</ele>
        <time>2021-08-09T11:52:15Z</time>
      </trkpt>
      <trkpt lat="47.84134" lon="6.96913">
        <ele>974.5</ele>
        <time>2021-08-09T11:52:16Z</time>
      </trkpt>
      <trkpt lat="47.84135" lon="6.96909">
        <ele>974.7</ele>
        <time>2021-08-09T11:52:18Z</time>
      </trkpt>
      <trkpt lat="47.84135" lon="6.96908">
        <ele>974.8</ele>
        <time>2021-08-09T11:52:19Z</time>
      </trkpt>
      <trkpt lat="47.84135" lon="6.96907">
        <ele>974.8</ele>
        <time>2021-08-09T11:52:20Z</time>
      </trkpt>
      <trkpt lat="47.84135" lon="6.96904">
        <ele>975</ele>
        <time>2021-08-09T11:52:21Z</time>
      </trkpt>
      <trkpt lat="47.84135" lon="6.969">
        <ele>975.2</ele>
        <time>2021-08-09T11:52:23Z</time>
      </trkpt>
      <trkpt lat="47.84135" lon="6.96896">
        <ele>975.5</ele>
        <time>2021-08-09T11:52:24Z</time>
      </trkpt>
      <trkpt lat="47.84135" lon="6.96895">
        <ele>975.6</ele>
        <time>2021-08-09T11:52:25Z</time>
      </trkpt>
      <trkpt lat="47.84135" lon="6.96892">
        <ele>975.7</ele>
        <time>2021-08-09T11:52:26Z</time>
      </trkpt>
      <trkpt lat="47.84135" lon="6.96891">
        <ele>975.8</ele>
        <time>2021-08-09T11:52:28Z</time>
      </trkpt>
      <trkpt lat="47.84134" lon="6.96888">
        <ele>976</ele>
        <time>2021-08-09T11:52:30Z</time>
      </trkpt>
      <trkpt lat="47.84134" lon="6.96887">
        <ele>976</ele>
        <time>2021-08-09T11:52:31Z</time>
      </trkpt>
      <trkpt lat="47.84133" lon="6.96886">
        <ele>976.1</ele>
        <time>2021-08-09T11:52:32Z</time>
      </trkpt>
      <trkpt lat="47.84132" lon="6.96885">
        <ele>976.2</ele>
        <time>2021-08-09T11:52:33Z</time>
      </trkpt>
      <trkpt lat="47.84131" lon="6.96884">
        <ele>976.3</ele>
        <time>2021-08-09T11:52:34Z</time>
      </trkpt>
      <trkpt lat="47.84131" lon="6.96883">
        <ele>976.4</ele>
        <time>2021-08-09T11:52:36Z</time>
      </trkpt>
      <trkpt lat="47.84131" lon="6.9688">
        <ele>976.6</ele>
        <time>2021-08-09T11:52:38Z</time>
      </trkpt>
      <trkpt lat="47.84132" lon="6.96876">
        <ele>976.9</ele>
        <time>2021-08-09T11:52:39Z</time>
      </trkpt>
      <trkpt lat="47.84133" lon="6.96871">
        <ele>977.2</ele>
        <time>2021-08-09T11:52:41Z</time>
      </trkpt>
      <trkpt lat="47.84134" lon="6.96869">
        <ele>977.4</ele>
        <time>2021-08-09T11:52:42Z</time>
      </trkpt>
      <trkpt lat="47.84135" lon="6.96865">
        <ele>977.7</ele>
        <time>2021-08-09T11:52:43Z</time>
      </trkpt>
      <trkpt lat="47.84136" lon="6.9686">
        <ele>978.1</ele>
        <time>2021-08-09T11:52:45Z</time>
      </trkpt>
      <trkpt lat="47.84137" lon="6.96857">
        <ele>978.2</ele>
        <time>2021-08-09T11:52:46Z</time>
      </trkpt>
      <trkpt lat="47.84138" lon="6.96852">
        <ele>978.7</ele>
        <time>2021-08-09T11:52:48Z</time>
      </trkpt>
      <trkpt lat="47.84138" lon="6.9685">
        <ele>978.8</ele>
        <time>2021-08-09T11:52:50Z</time>
      </trkpt>
      <trkpt lat="47.84139" lon="6.96848">
        <ele>978.9</ele>
        <time>2021-08-09T11:52:51Z</time>
      </trkpt>
      <trkpt lat="47.8414" lon="6.96843">
        <ele>979.3</ele>
        <time>2021-08-09T11:52:53Z</time>
      </trkpt>
      <trkpt lat="47.84141" lon="6.96842">
        <ele>979.4</ele>
        <time>2021-08-09T11:52:54Z</time>
      </trkpt>
      <trkpt lat="47.84142" lon="6.96839">
        <ele>979.6</ele>
        <time>2021-08-09T11:52:55Z</time>
      </trkpt>
      <trkpt lat="47.84142" lon="6.96838">
        <ele>979.7</ele>
        <time>2021-08-09T11:52:56Z</time>
      </trkpt>
      <trkpt lat="47.84142" lon="6.96837">
        <ele>979.8</ele>
        <time>2021-08-09T11:52:57Z</time>
      </trkpt>
      <trkpt lat="47.84143" lon="6.96835">
        <ele>979.9</ele>
        <time>2021-08-09T11:52:58Z</time>
      </trkpt>
      <trkpt lat="47.84143" lon="6.96833">
        <ele>980</ele>
        <time>2021-08-09T11:53:00Z</time>
      </trkpt>
      <trkpt lat="47.84143" lon="6.96831">
        <ele>980.2</ele>
        <time>2021-08-09T11:53:01Z</time>
      </trkpt>
      <trkpt lat="47.84143" lon="6.96829">
        <ele>980.3</ele>
        <time>2021-08-09T11:53:02Z</time>
      </trkpt>
      <trkpt lat="47.84142" lon="6.96827">
        <ele>980.4</ele>
        <time>2021-08-09T11:53:03Z</time>
      </trkpt>
      <trkpt lat="47.84142" lon="6.96825">
        <ele>980.6</ele>
        <time>2021-08-09T11:53:04Z</time>
      </trkpt>
      <trkpt lat="47.84141" lon="6.96822">
        <ele>980.7</ele>
        <time>2021-08-09T11:53:06Z</time>
      </trkpt>
      <trkpt lat="47.84141" lon="6.96821">
        <ele>980.8</ele>
        <time>2021-08-09T11:53:07Z</time>
      </trkpt>
      <trkpt lat="47.84141" lon="6.96818">
        <ele>980.9</ele>
        <time>2021-08-09T11:53:09Z</time>
      </trkpt>
      <trkpt lat="47.84141" lon="6.96817">
        <ele>980.9</ele>
        <time>2021-08-09T11:53:10Z</time>
      </trkpt>
      <trkpt lat="47.84141" lon="6.96817">
        <ele>981</ele>
        <time>2021-08-09T11:53:11Z</time>
      </trkpt>
      <trkpt lat="47.84141" lon="6.96816">
        <ele>981</ele>
        <time>2021-08-09T11:53:13Z</time>
      </trkpt>
      <trkpt lat="47.84141" lon="6.96815">
        <ele>981.1</ele>
        <time>2021-08-09T11:53:14Z</time>
      </trkpt>
      <trkpt lat="47.84142" lon="6.96814">
        <ele>981.1</ele>
        <time>2021-08-09T11:53:15Z</time>
      </trkpt>
      <trkpt lat="47.84142" lon="6.96814">
        <ele>981.1</ele>
        <time>2021-08-09T11:53:17Z</time>
      </trkpt>
      <trkpt lat="47.84142" lon="6.96813">
        <ele>981.2</ele>
        <time>2021-08-09T11:53:19Z</time>
      </trkpt>
      <trkpt lat="47.84142" lon="6.96812">
        <ele>981.2</ele>
        <time>2021-08-09T11:53:21Z</time>
      </trkpt>
      <trkpt lat="47.84142" lon="6.96811">
        <ele>981.2</ele>
        <time>2021-08-09T11:53:22Z</time>
      </trkpt>
      <trkpt lat="47.84143" lon="6.96809">
        <ele>981.3</ele>
        <time>2021-08-09T11:53:23Z</time>
      </trkpt>
      <trkpt lat="47.84144" lon="6.96804">
        <ele>981.5</ele>
        <time>2021-08-09T11:53:26Z</time>
      </trkpt>
      <trkpt lat="47.84144" lon="6.96803">
        <ele>981.6</ele>
        <time>2021-08-09T11:53:27Z</time>
      </trkpt>
      <trkpt lat="47.84143" lon="6.96799">
        <ele>981.7</ele>
        <time>2021-08-09T11:53:28Z</time>
      </trkpt>
      <trkpt lat="47.84143" lon="6.96797">
        <ele>981.8</ele>
        <time>2021-08-09T11:53:30Z</time>
      </trkpt>
      <trkpt lat="47.84137" lon="6.96785">
        <ele>982.4</ele>
        <time>2021-08-09T11:53:32Z</time>
      </trkpt>
      <trkpt lat="47.84132" lon="6.96775">
        <ele>982.8</ele>
        <time>2021-08-09T11:53:33Z</time>
      </trkpt>
      <trkpt lat="47.84129" lon="6.96769">
        <ele>983</ele>
        <time>2021-08-09T11:53:34Z</time>
      </trkpt>
      <trkpt lat="47.84128" lon="6.96763">
        <ele>983.2</ele>
        <time>2021-08-09T11:53:35Z</time>
      </trkpt>
      <trkpt lat="47.84127" lon="6.96761">
        <ele>983.3</ele>
        <time>2021-08-09T11:53:36Z</time>
      </trkpt>
      <trkpt lat="47.84127" lon="6.96759">
        <ele>983.4</ele>
        <time>2021-08-09T11:53:38Z</time>
      </trkpt>
      <trkpt lat="47.84127" lon="6.96757">
        <ele>983.5</ele>
        <time>2021-08-09T11:53:39Z</time>
      </trkpt>
      <trkpt lat="47.84127" lon="6.96752">
        <ele>983.7</ele>
        <time>2021-08-09T11:53:40Z</time>
      </trkpt>
      <trkpt lat="47.84127" lon="6.96748">
        <ele>983.8</ele>
        <time>2021-08-09T11:53:41Z</time>
      </trkpt>
      <trkpt lat="47.84127" lon="6.96743">
        <ele>984</ele>
        <time>2021-08-09T11:53:43Z</time>
      </trkpt>
      <trkpt lat="47.84127" lon="6.96739">
        <ele>984.2</ele>
        <time>2021-08-09T11:53:44Z</time>
      </trkpt>
      <trkpt lat="47.84127" lon="6.96736">
        <ele>984.4</ele>
        <time>2021-08-09T11:53:46Z</time>
      </trkpt>
      <trkpt lat="47.84127" lon="6.96734">
        <ele>984.5</ele>
        <time>2021-08-09T11:53:47Z</time>
      </trkpt>
      <trkpt lat="47.84127" lon="6.96732">
        <ele>984.5</ele>
        <time>2021-08-09T11:53:48Z</time>
      </trkpt>
      <trkpt lat="47.84127" lon="6.9673">
        <ele>984.7</ele>
        <time>2021-08-09T11:53:49Z</time>
      </trkpt>
      <trkpt lat="47.84128" lon="6.96728">
        <ele>984.8</ele>
        <time>2021-08-09T11:53:50Z</time>
      </trkpt>
      <trkpt lat="47.84128" lon="6.96727">
        <ele>984.8</ele>
        <time>2021-08-09T11:53:52Z</time>
      </trkpt>
      <trkpt lat="47.84136" lon="6.9672">
        <ele>985.4</ele>
        <time>2021-08-09T11:53:54Z</time>
      </trkpt>
      <trkpt lat="47.84144" lon="6.96712">
        <ele>985.9</ele>
        <time>2021-08-09T11:53:55Z</time>
      </trkpt>
      <trkpt lat="47.84146" lon="6.96709">
        <ele>986</ele>
        <time>2021-08-09T11:53:56Z</time>
      </trkpt>
      <trkpt lat="47.84147" lon="6.96707">
        <ele>986</ele>
        <time>2021-08-09T11:53:57Z</time>
      </trkpt>
      <trkpt lat="47.84147" lon="6.96705">
        <ele>986</ele>
        <time>2021-08-09T11:53:59Z</time>
      </trkpt>
      <trkpt lat="47.84148" lon="6.96703">
        <ele>986.1</ele>
        <time>2021-08-09T11:54:01Z</time>
      </trkpt>
      <trkpt lat="47.84149" lon="6.96702">
        <ele>986.1</ele>
        <time>2021-08-09T11:54:02Z</time>
      </trkpt>
      <trkpt lat="47.8415" lon="6.967">
        <ele>986.1</ele>
        <time>2021-08-09T11:54:04Z</time>
      </trkpt>
      <trkpt lat="47.8415" lon="6.96698">
        <ele>986.2</ele>
        <time>2021-08-09T11:54:06Z</time>
      </trkpt>
      <trkpt lat="47.84151" lon="6.96697">
        <ele>986.2</ele>
        <time>2021-08-09T11:54:07Z</time>
      </trkpt>
      <trkpt lat="47.84152" lon="6.96695">
        <ele>986.3</ele>
        <time>2021-08-09T11:54:08Z</time>
      </trkpt>
      <trkpt lat="47.84153" lon="6.96692">
        <ele>986.3</ele>
        <time>2021-08-09T11:54:10Z</time>
      </trkpt>
      <trkpt lat="47.84153" lon="6.96691">
        <ele>986.3</ele>
        <time>2021-08-09T11:54:11Z</time>
      </trkpt>
      <trkpt lat="47.84154" lon="6.96689">
        <ele>986.4</ele>
        <time>2021-08-09T11:54:12Z</time>
      </trkpt>
      <trkpt lat="47.84155" lon="6.96687">
        <ele>986.4</ele>
        <time>2021-08-09T11:54:14Z</time>
      </trkpt>
      <trkpt lat="47.84156" lon="6.96686">
        <ele>986.4</ele>
        <time>2021-08-09T11:54:15Z</time>
      </trkpt>
      <trkpt lat="47.84156" lon="6.96684">
        <ele>986.4</ele>
        <time>2021-08-09T11:54:16Z</time>
      </trkpt>
      <trkpt lat="47.84157" lon="6.96683">
        <ele>986.5</ele>
        <time>2021-08-09T11:54:17Z</time>
      </trkpt>
      <trkpt lat="47.84159" lon="6.9668">
        <ele>986.5</ele>
        <time>2021-08-09T11:54:19Z</time>
      </trkpt>
      <trkpt lat="47.8416" lon="6.96679">
        <ele>986.5</ele>
        <time>2021-08-09T11:54:20Z</time>
      </trkpt>
      <trkpt lat="47.84163" lon="6.96675">
        <ele>986.5</ele>
        <time>2021-08-09T11:54:22Z</time>
      </trkpt>
      <trkpt lat="47.84164" lon="6.96673">
        <ele>986.5</ele>
        <time>2021-08-09T11:54:23Z</time>
      </trkpt>
      <trkpt lat="47.84164" lon="6.96671">
        <ele>986.5</ele>
        <time>2021-08-09T11:54:24Z</time>
      </trkpt>
      <trkpt lat="47.84166" lon="6.96665">
        <ele>986.3</ele>
        <time>2021-08-09T11:54:26Z</time>
      </trkpt>
      <trkpt lat="47.84167" lon="6.96663">
        <ele>986.3</ele>
        <time>2021-08-09T11:54:28Z</time>
      </trkpt>
      <trkpt lat="47.84167" lon="6.96661">
        <ele>986.2</ele>
        <time>2021-08-09T11:54:29Z</time>
      </trkpt>
      <trkpt lat="47.84168" lon="6.96659">
        <ele>986.1</ele>
        <time>2021-08-09T11:54:30Z</time>
      </trkpt>
      <trkpt lat="47.84174" lon="6.96646">
        <ele>985.5</ele>
        <time>2021-08-09T11:54:32Z</time>
      </trkpt>
      <trkpt lat="47.8418" lon="6.96636">
        <ele>984.4</ele>
        <time>2021-08-09T11:54:33Z</time>
      </trkpt>
      <trkpt lat="47.84186" lon="6.96627">
        <ele>983.2</ele>
        <time>2021-08-09T11:54:35Z</time>
      </trkpt>
      <trkpt lat="47.84195" lon="6.96618">
        <ele>981.7</ele>
        <time>2021-08-09T11:54:36Z</time>
      </trkpt>
      <trkpt lat="47.84203" lon="6.96612">
        <ele>980.5</ele>
        <time>2021-08-09T11:54:37Z</time>
      </trkpt>
      <trkpt lat="47.84208" lon="6.96608">
        <ele>979.7</ele>
        <time>2021-08-09T11:54:39Z</time>
      </trkpt>
      <trkpt lat="47.84216" lon="6.96606">
        <ele>978.7</ele>
        <time>2021-08-09T11:54:40Z</time>
      </trkpt>
      <trkpt lat="47.84222" lon="6.96604">
        <ele>978</ele>
        <time>2021-08-09T11:54:41Z</time>
      </trkpt>
      <trkpt lat="47.84231" lon="6.96602">
        <ele>977.3</ele>
        <time>2021-08-09T11:54:43Z</time>
      </trkpt>
      <trkpt lat="47.84235" lon="6.96601">
        <ele>977</ele>
        <time>2021-08-09T11:54:44Z</time>
      </trkpt>
      <trkpt lat="47.8424" lon="6.96599">
        <ele>976.7</ele>
        <time>2021-08-09T11:54:45Z</time>
      </trkpt>
      <trkpt lat="47.84243" lon="6.96597">
        <ele>976.6</ele>
        <time>2021-08-09T11:54:47Z</time>
      </trkpt>
      <trkpt lat="47.84244" lon="6.96595">
        <ele>976.5</ele>
        <time>2021-08-09T11:54:48Z</time>
      </trkpt>
      <trkpt lat="47.84245" lon="6.96593">
        <ele>976.5</ele>
        <time>2021-08-09T11:54:49Z</time>
      </trkpt>
      <trkpt lat="47.84249" lon="6.96589">
        <ele>976.3</ele>
        <time>2021-08-09T11:54:51Z</time>
      </trkpt>
      <trkpt lat="47.84251" lon="6.96585">
        <ele>976.3</ele>
        <time>2021-08-09T11:54:52Z</time>
      </trkpt>
      <trkpt lat="47.84257" lon="6.96579">
        <ele>976.3</ele>
        <time>2021-08-09T11:54:54Z</time>
      </trkpt>
      <trkpt lat="47.84262" lon="6.96573">
        <ele>976.5</ele>
        <time>2021-08-09T11:54:55Z</time>
      </trkpt>
      <trkpt lat="47.84268" lon="6.96568">
        <ele>976.9</ele>
        <time>2021-08-09T11:54:56Z</time>
      </trkpt>
      <trkpt lat="47.84274" lon="6.96563">
        <ele>977.3</ele>
        <time>2021-08-09T11:54:58Z</time>
      </trkpt>
      <trkpt lat="47.84279" lon="6.96559">
        <ele>977.8</ele>
        <time>2021-08-09T11:55:00Z</time>
      </trkpt>
      <trkpt lat="47.84283" lon="6.96558">
        <ele>978</ele>
        <time>2021-08-09T11:55:01Z</time>
      </trkpt>
      <trkpt lat="47.84286" lon="6.96559">
        <ele>978.3</ele>
        <time>2021-08-09T11:55:02Z</time>
      </trkpt>
      <trkpt lat="47.84291" lon="6.96559">
        <ele>978.6</ele>
        <time>2021-08-09T11:55:04Z</time>
      </trkpt>
      <trkpt lat="47.84294" lon="6.9656">
        <ele>978.8</ele>
        <time>2021-08-09T11:55:05Z</time>
      </trkpt>
      <trkpt lat="47.84298" lon="6.9656">
        <ele>979.1</ele>
        <time>2021-08-09T11:55:07Z</time>
      </trkpt>
      <trkpt lat="47.84302" lon="6.96559">
        <ele>979.4</ele>
        <time>2021-08-09T11:55:09Z</time>
      </trkpt>
      <trkpt lat="47.84304" lon="6.96555">
        <ele>979.6</ele>
        <time>2021-08-09T11:55:11Z</time>
      </trkpt>
      <trkpt lat="47.84304" lon="6.96553">
        <ele>979.7</ele>
        <time>2021-08-09T11:55:12Z</time>
      </trkpt>
      <trkpt lat="47.84305" lon="6.96551">
        <ele>979.8</ele>
        <time>2021-08-09T11:55:13Z</time>
      </trkpt>
      <trkpt lat="47.84307" lon="6.96545">
        <ele>980.2</ele>
        <time>2021-08-09T11:55:15Z</time>
      </trkpt>
      <trkpt lat="47.84308" lon="6.96541">
        <ele>980.4</ele>
        <time>2021-08-09T11:55:16Z</time>
      </trkpt>
      <trkpt lat="47.84308" lon="6.9654">
        <ele>980.5</ele>
        <time>2021-08-09T11:55:17Z</time>
      </trkpt>
      <trkpt lat="47.84374" lon="6.96444">
        <ele>993.5</ele>
        <time>2021-08-09T11:57:10Z</time>
      </trkpt>
      <trkpt lat="47.84375" lon="6.96441">
        <ele>993.7</ele>
        <time>2021-08-09T11:57:11Z</time>
      </trkpt>
      <trkpt lat="47.84376" lon="6.9644">
        <ele>993.8</ele>
        <time>2021-08-09T11:57:12Z</time>
      </trkpt>
      <trkpt lat="47.84376" lon="6.96439">
        <ele>993.9</ele>
        <time>2021-08-09T11:57:14Z</time>
      </trkpt>
      <trkpt lat="47.84376" lon="6.96438">
        <ele>993.9</ele>
        <time>2021-08-09T11:57:15Z</time>
      </trkpt>
      <trkpt lat="47.84376" lon="6.96437">
        <ele>994</ele>
        <time>2021-08-09T11:57:16Z</time>
      </trkpt>
      <trkpt lat="47.84376" lon="6.96437">
        <ele>994</ele>
        <time>2021-08-09T11:57:17Z</time>
      </trkpt>
      <trkpt lat="47.84376" lon="6.96436">
        <ele>994.1</ele>
        <time>2021-08-09T11:57:19Z</time>
      </trkpt>
      <trkpt lat="47.84375" lon="6.96435">
        <ele>994.2</ele>
        <time>2021-08-09T11:57:20Z</time>
      </trkpt>
      <trkpt lat="47.84374" lon="6.96434">
        <ele>994.3</ele>
        <time>2021-08-09T11:57:21Z</time>
      </trkpt>
      <trkpt lat="47.84373" lon="6.96432">
        <ele>994.4</ele>
        <time>2021-08-09T11:57:22Z</time>
      </trkpt>
      <trkpt lat="47.84372" lon="6.9643">
        <ele>994.6</ele>
        <time>2021-08-09T11:57:24Z</time>
      </trkpt>
      <trkpt lat="47.84371" lon="6.96428">
        <ele>994.8</ele>
        <time>2021-08-09T11:57:25Z</time>
      </trkpt>
      <trkpt lat="47.8437" lon="6.96427">
        <ele>994.9</ele>
        <time>2021-08-09T11:57:26Z</time>
      </trkpt>
      <trkpt lat="47.84369" lon="6.96426">
        <ele>995</ele>
        <time>2021-08-09T11:57:27Z</time>
      </trkpt>
      <trkpt lat="47.84369" lon="6.96425">
        <ele>995.1</ele>
        <time>2021-08-09T11:57:29Z</time>
      </trkpt>
      <trkpt lat="47.84368" lon="6.96424">
        <ele>995.1</ele>
        <time>2021-08-09T11:57:30Z</time>
      </trkpt>
      <trkpt lat="47.84368" lon="6.96423">
        <ele>995.2</ele>
        <time>2021-08-09T11:57:31Z</time>
      </trkpt>
      <trkpt lat="47.84368" lon="6.96422">
        <ele>995.3</ele>
        <time>2021-08-09T11:57:33Z</time>
      </trkpt>
      <trkpt lat="47.84368" lon="6.96421">
        <ele>995.3</ele>
        <time>2021-08-09T11:57:34Z</time>
      </trkpt>
      <trkpt lat="47.84368" lon="6.96416">
        <ele>995.7</ele>
        <time>2021-08-09T11:57:35Z</time>
      </trkpt>
      <trkpt lat="47.84369" lon="6.96414">
        <ele>995.8</ele>
        <time>2021-08-09T11:57:36Z</time>
      </trkpt>
      <trkpt lat="47.84369" lon="6.96411">
        <ele>996</ele>
        <time>2021-08-09T11:57:38Z</time>
      </trkpt>
      <trkpt lat="47.8437" lon="6.96409">
        <ele>996.1</ele>
        <time>2021-08-09T11:57:39Z</time>
      </trkpt>
      <trkpt lat="47.8437" lon="6.96408">
        <ele>996.2</ele>
        <time>2021-08-09T11:57:40Z</time>
      </trkpt>
      <trkpt lat="47.8437" lon="6.96408">
        <ele>996.3</ele>
        <time>2021-08-09T11:57:41Z</time>
      </trkpt>
      <trkpt lat="47.8437" lon="6.96407">
        <ele>996.3</ele>
        <time>2021-08-09T11:57:43Z</time>
      </trkpt>
      <trkpt lat="47.8437" lon="6.96406">
        <ele>996.4</ele>
        <time>2021-08-09T11:57:44Z</time>
      </trkpt>
      <trkpt lat="47.8437" lon="6.96406">
        <ele>996.4</ele>
        <time>2021-08-09T11:57:45Z</time>
      </trkpt>
      <trkpt lat="47.8437" lon="6.96406">
        <ele>996.4</ele>
        <time>2021-08-09T11:57:46Z</time>
      </trkpt>
      <trkpt lat="47.8437" lon="6.96405">
        <ele>996.5</ele>
        <time>2021-08-09T11:57:47Z</time>
      </trkpt>
      <trkpt lat="47.84371" lon="6.96402">
        <ele>996.7</ele>
        <time>2021-08-09T11:57:49Z</time>
      </trkpt>
      <trkpt lat="47.84373" lon="6.96398">
        <ele>997.1</ele>
        <time>2021-08-09T11:57:51Z</time>
      </trkpt>
      <trkpt lat="47.84374" lon="6.96396">
        <ele>997.3</ele>
        <time>2021-08-09T11:57:52Z</time>
      </trkpt>
      <trkpt lat="47.84375" lon="6.96394">
        <ele>997.5</ele>
        <time>2021-08-09T11:57:53Z</time>
      </trkpt>
      <trkpt lat="47.84377" lon="6.9639">
        <ele>998</ele>
        <time>2021-08-09T11:57:55Z</time>
      </trkpt>
      <trkpt lat="47.84377" lon="6.96389">
        <ele>998.1</ele>
        <time>2021-08-09T11:57:56Z</time>
      </trkpt>
      <trkpt lat="47.84378" lon="6.96387">
        <ele>998.3</ele>
        <time>2021-08-09T11:57:57Z</time>
      </trkpt>
      <trkpt lat="47.84379" lon="6.96386">
        <ele>998.5</ele>
        <time>2021-08-09T11:57:58Z</time>
      </trkpt>
      <trkpt lat="47.84379" lon="6.96384">
        <ele>998.6</ele>
        <time>2021-08-09T11:57:59Z</time>
      </trkpt>
      <trkpt lat="47.8438" lon="6.96383">
        <ele>998.7</ele>
        <time>2021-08-09T11:58:00Z</time>
      </trkpt>
      <trkpt lat="47.8438" lon="6.96382">
        <ele>998.9</ele>
        <time>2021-08-09T11:58:01Z</time>
      </trkpt>
      <trkpt lat="47.84381" lon="6.96381">
        <ele>999</ele>
        <time>2021-08-09T11:58:03Z</time>
      </trkpt>
      <trkpt lat="47.84382" lon="6.9638">
        <ele>999.1</ele>
        <time>2021-08-09T11:58:04Z</time>
      </trkpt>
      <trkpt lat="47.84382" lon="6.96379">
        <ele>999.2</ele>
        <time>2021-08-09T11:58:05Z</time>
      </trkpt>
      <trkpt lat="47.84384" lon="6.96377">
        <ele>999.5</ele>
        <time>2021-08-09T11:58:07Z</time>
      </trkpt>
      <trkpt lat="47.84387" lon="6.96373">
        <ele>1000</ele>
        <time>2021-08-09T11:58:08Z</time>
      </trkpt>
      <trkpt lat="47.84388" lon="6.96372">
        <ele>1000.3</ele>
        <time>2021-08-09T11:58:09Z</time>
      </trkpt>
      <trkpt lat="47.84391" lon="6.96367">
        <ele>1000.8</ele>
        <time>2021-08-09T11:58:11Z</time>
      </trkpt>
      <trkpt lat="47.84391" lon="6.96365">
        <ele>1001</ele>
        <time>2021-08-09T11:58:12Z</time>
      </trkpt>
      <trkpt lat="47.84392" lon="6.96363">
        <ele>1001.1</ele>
        <time>2021-08-09T11:58:13Z</time>
      </trkpt>
      <trkpt lat="47.84395" lon="6.96358">
        <ele>1001.7</ele>
        <time>2021-08-09T11:58:15Z</time>
      </trkpt>
      <trkpt lat="47.84396" lon="6.96357">
        <ele>1001.9</ele>
        <time>2021-08-09T11:58:16Z</time>
      </trkpt>
      <trkpt lat="47.84397" lon="6.96356">
        <ele>1002</ele>
        <time>2021-08-09T11:58:17Z</time>
      </trkpt>
      <trkpt lat="47.84398" lon="6.96354">
        <ele>1002.2</ele>
        <time>2021-08-09T11:58:18Z</time>
      </trkpt>
      <trkpt lat="47.84399" lon="6.96352">
        <ele>1002.4</ele>
        <time>2021-08-09T11:58:19Z</time>
      </trkpt>
      <trkpt lat="47.844" lon="6.9635">
        <ele>1002.7</ele>
        <time>2021-08-09T11:58:21Z</time>
      </trkpt>
      <trkpt lat="47.84401" lon="6.96349">
        <ele>1002.8</ele>
        <time>2021-08-09T11:58:22Z</time>
      </trkpt>
      <trkpt lat="47.84401" lon="6.96348">
        <ele>1002.8</ele>
        <time>2021-08-09T11:58:24Z</time>
      </trkpt>
      <trkpt lat="47.84401" lon="6.96347">
        <ele>1002.9</ele>
        <time>2021-08-09T11:58:25Z</time>
      </trkpt>
      <trkpt lat="47.84401" lon="6.96346">
        <ele>1003</ele>
        <time>2021-08-09T11:58:26Z</time>
      </trkpt>
      <trkpt lat="47.84402" lon="6.96345">
        <ele>1003.1</ele>
        <time>2021-08-09T11:58:28Z</time>
      </trkpt>
      <trkpt lat="47.84402" lon="6.96344">
        <ele>1003.2</ele>
        <time>2021-08-09T11:58:29Z</time>
      </trkpt>
      <trkpt lat="47.84402" lon="6.96343">
        <ele>1003.3</ele>
        <time>2021-08-09T11:58:30Z</time>
      </trkpt>
      <trkpt lat="47.84402" lon="6.96342">
        <ele>1003.4</ele>
        <time>2021-08-09T11:58:31Z</time>
      </trkpt>
      <trkpt lat="47.84402" lon="6.9634">
        <ele>1003.5</ele>
        <time>2021-08-09T11:58:33Z</time>
      </trkpt>
      <trkpt lat="47.84403" lon="6.96339">
        <ele>1003.6</ele>
        <time>2021-08-09T11:58:34Z</time>
      </trkpt>
      <trkpt lat="47.84403" lon="6.96339">
        <ele>1003.7</ele>
        <time>2021-08-09T11:58:35Z</time>
      </trkpt>
      <trkpt lat="47.84403" lon="6.96338">
        <ele>1003.7</ele>
        <time>2021-08-09T11:58:36Z</time>
      </trkpt>
      <trkpt lat="47.84403" lon="6.96338">
        <ele>1003.8</ele>
        <time>2021-08-09T11:58:37Z</time>
      </trkpt>
      <trkpt lat="47.84403" lon="6.96337">
        <ele>1003.8</ele>
        <time>2021-08-09T11:58:39Z</time>
      </trkpt>
      <trkpt lat="47.84403" lon="6.96336">
        <ele>1003.9</ele>
        <time>2021-08-09T11:58:40Z</time>
      </trkpt>
      <trkpt lat="47.84402" lon="6.96334">
        <ele>1004.1</ele>
        <time>2021-08-09T11:58:42Z</time>
      </trkpt>
      <trkpt lat="47.84402" lon="6.96333">
        <ele>1004.2</ele>
        <time>2021-08-09T11:58:43Z</time>
      </trkpt>
      <trkpt lat="47.84402" lon="6.96331">
        <ele>1004.4</ele>
        <time>2021-08-09T11:58:45Z</time>
      </trkpt>
      <trkpt lat="47.84401" lon="6.96329">
        <ele>1004.5</ele>
        <time>2021-08-09T11:58:46Z</time>
      </trkpt>
      <trkpt lat="47.84401" lon="6.96329">
        <ele>1004.6</ele>
        <time>2021-08-09T11:58:47Z</time>
      </trkpt>
      <trkpt lat="47.84401" lon="6.96328">
        <ele>1004.7</ele>
        <time>2021-08-09T11:58:49Z</time>
      </trkpt>
      <trkpt lat="47.84401" lon="6.96327">
        <ele>1004.7</ele>
        <time>2021-08-09T11:58:50Z</time>
      </trkpt>
      <trkpt lat="47.84401" lon="6.96327">
        <ele>1004.8</ele>
        <time>2021-08-09T11:58:51Z</time>
      </trkpt>
      <trkpt lat="47.84401" lon="6.96326">
        <ele>1004.8</ele>
        <time>2021-08-09T11:58:52Z</time>
      </trkpt>
      <trkpt lat="47.84401" lon="6.96326">
        <ele>1004.8</ele>
        <time>2021-08-09T11:58:53Z</time>
      </trkpt>
      <trkpt lat="47.84401" lon="6.96326">
        <ele>1004.9</ele>
        <time>2021-08-09T11:58:55Z</time>
      </trkpt>
      <trkpt lat="47.84401" lon="6.96325">
        <ele>1004.9</ele>
        <time>2021-08-09T11:58:56Z</time>
      </trkpt>
      <trkpt lat="47.84401" lon="6.96324">
        <ele>1005</ele>
        <time>2021-08-09T11:58:58Z</time>
      </trkpt>
      <trkpt lat="47.84402" lon="6.96322">
        <ele>1005.2</ele>
        <time>2021-08-09T11:58:59Z</time>
      </trkpt>
      <trkpt lat="47.84404" lon="6.96319">
        <ele>1005.6</ele>
        <time>2021-08-09T11:59:01Z</time>
      </trkpt>
      <trkpt lat="47.84407" lon="6.96316">
        <ele>1005.9</ele>
        <time>2021-08-09T11:59:02Z</time>
      </trkpt>
      <trkpt lat="47.84407" lon="6.96315">
        <ele>1006</ele>
        <time>2021-08-09T11:59:03Z</time>
      </trkpt>
      <trkpt lat="47.84409" lon="6.96314">
        <ele>1006.2</ele>
        <time>2021-08-09T11:59:05Z</time>
      </trkpt>
      <trkpt lat="47.84409" lon="6.96313">
        <ele>1006.3</ele>
        <time>2021-08-09T11:59:06Z</time>
      </trkpt>
      <trkpt lat="47.84411" lon="6.96312">
        <ele>1006.5</ele>
        <time>2021-08-09T11:59:07Z</time>
      </trkpt>
      <trkpt lat="47.84412" lon="6.96311">
        <ele>1006.6</ele>
        <time>2021-08-09T11:59:08Z</time>
      </trkpt>
      <trkpt lat="47.84413" lon="6.9631">
        <ele>1006.8</ele>
        <time>2021-08-09T11:59:10Z</time>
      </trkpt>
      <trkpt lat="47.84415" lon="6.96309">
        <ele>1006.9</ele>
        <time>2021-08-09T11:59:11Z</time>
      </trkpt>
      <trkpt lat="47.84415" lon="6.96308">
        <ele>1007</ele>
        <time>2021-08-09T11:59:12Z</time>
      </trkpt>
      <trkpt lat="47.84416" lon="6.96307">
        <ele>1007.1</ele>
        <time>2021-08-09T11:59:13Z</time>
      </trkpt>
      <trkpt lat="47.84417" lon="6.96306">
        <ele>1007.2</ele>
        <time>2021-08-09T11:59:15Z</time>
      </trkpt>
      <trkpt lat="47.84417" lon="6.96306">
        <ele>1007.2</ele>
        <time>2021-08-09T11:59:16Z</time>
      </trkpt>
      <trkpt lat="47.84417" lon="6.96305">
        <ele>1007.3</ele>
        <time>2021-08-09T11:59:17Z</time>
      </trkpt>
      <trkpt lat="47.84417" lon="6.96304">
        <ele>1007.3</ele>
        <time>2021-08-09T11:59:19Z</time>
      </trkpt>
      <trkpt lat="47.84417" lon="6.96304">
        <ele>1007.3</ele>
        <time>2021-08-09T11:59:20Z</time>
      </trkpt>
      <trkpt lat="47.84418" lon="6.96303">
        <ele>1007.4</ele>
        <time>2021-08-09T11:59:21Z</time>
      </trkpt>
      <trkpt lat="47.84418" lon="6.96303">
        <ele>1007.4</ele>
        <time>2021-08-09T11:59:23Z</time>
      </trkpt>
      <trkpt lat="47.84418" lon="6.96302">
        <ele>1007.5</ele>
        <time>2021-08-09T11:59:24Z</time>
      </trkpt>
      <trkpt lat="47.84418" lon="6.96299">
        <ele>1007.7</ele>
        <time>2021-08-09T11:59:25Z</time>
      </trkpt>
      <trkpt lat="47.84418" lon="6.96296">
        <ele>1007.9</ele>
        <time>2021-08-09T11:59:27Z</time>
      </trkpt>
      <trkpt lat="47.84418" lon="6.96295">
        <ele>1008</ele>
        <time>2021-08-09T11:59:28Z</time>
      </trkpt>
      <trkpt lat="47.84419" lon="6.96293">
        <ele>1008.1</ele>
        <time>2021-08-09T11:59:29Z</time>
      </trkpt>
      <trkpt lat="47.84418" lon="6.96292">
        <ele>1008.2</ele>
        <time>2021-08-09T11:59:30Z</time>
      </trkpt>
      <trkpt lat="47.84418" lon="6.9629">
        <ele>1008.3</ele>
        <time>2021-08-09T11:59:31Z</time>
      </trkpt>
      <trkpt lat="47.84417" lon="6.96286">
        <ele>1008.5</ele>
        <time>2021-08-09T11:59:33Z</time>
      </trkpt>
      <trkpt lat="47.84415" lon="6.96284">
        <ele>1008.7</ele>
        <time>2021-08-09T11:59:34Z</time>
      </trkpt>
      <trkpt lat="47.84415" lon="6.96281">
        <ele>1008.9</ele>
        <time>2021-08-09T11:59:36Z</time>
      </trkpt>
      <trkpt lat="47.84415" lon="6.96276">
        <ele>1009.2</ele>
        <time>2021-08-09T11:59:37Z</time>
      </trkpt>
      <trkpt lat="47.84415" lon="6.96274">
        <ele>1009.4</ele>
        <time>2021-08-09T11:59:38Z</time>
      </trkpt>
      <trkpt lat="47.84415" lon="6.9627">
        <ele>1009.7</ele>
        <time>2021-08-09T11:59:40Z</time>
      </trkpt>
      <trkpt lat="47.84415" lon="6.96268">
        <ele>1009.8</ele>
        <time>2021-08-09T11:59:41Z</time>
      </trkpt>
      <trkpt lat="47.84416" lon="6.96265">
        <ele>1010</ele>
        <time>2021-08-09T11:59:42Z</time>
      </trkpt>
      <trkpt lat="47.84416" lon="6.96261">
        <ele>1010.3</ele>
        <time>2021-08-09T11:59:44Z</time>
      </trkpt>
      <trkpt lat="47.84416" lon="6.96258">
        <ele>1010.5</ele>
        <time>2021-08-09T11:59:46Z</time>
      </trkpt>
      <trkpt lat="47.84416" lon="6.96256">
        <ele>1010.6</ele>
        <time>2021-08-09T11:59:47Z</time>
      </trkpt>
      <trkpt lat="47.84417" lon="6.96255">
        <ele>1010.7</ele>
        <time>2021-08-09T11:59:48Z</time>
      </trkpt>
      <trkpt lat="47.84417" lon="6.96253">
        <ele>1010.9</ele>
        <time>2021-08-09T11:59:49Z</time>
      </trkpt>
      <trkpt lat="47.8442" lon="6.96249">
        <ele>1011.4</ele>
        <time>2021-08-09T11:59:51Z</time>
      </trkpt>
      <trkpt lat="47.84421" lon="6.96244">
        <ele>1011.8</ele>
        <time>2021-08-09T11:59:52Z</time>
      </trkpt>
      <trkpt lat="47.84422" lon="6.96243">
        <ele>1011.9</ele>
        <time>2021-08-09T11:59:53Z</time>
      </trkpt>
      <trkpt lat="47.84423" lon="6.96241">
        <ele>1012.1</ele>
        <time>2021-08-09T11:59:55Z</time>
      </trkpt>
      <trkpt lat="47.84423" lon="6.9624">
        <ele>1012.2</ele>
        <time>2021-08-09T11:59:56Z</time>
      </trkpt>
      <trkpt lat="47.84424" lon="6.96239">
        <ele>1012.3</ele>
        <time>2021-08-09T11:59:57Z</time>
      </trkpt>
      <trkpt lat="47.84424" lon="6.96237">
        <ele>1012.5</ele>
        <time>2021-08-09T11:59:58Z</time>
      </trkpt>
      <trkpt lat="47.84425" lon="6.96236">
        <ele>1012.6</ele>
        <time>2021-08-09T12:00:00Z</time>
      </trkpt>
      <trkpt lat="47.84426" lon="6.96236">
        <ele>1012.7</ele>
        <time>2021-08-09T12:00:01Z</time>
      </trkpt>
      <trkpt lat="47.84426" lon="6.96235">
        <ele>1012.8</ele>
        <time>2021-08-09T12:00:02Z</time>
      </trkpt>
      <trkpt lat="47.84428" lon="6.96233">
        <ele>1013.1</ele>
        <time>2021-08-09T12:00:04Z</time>
      </trkpt>
      <trkpt lat="47.84429" lon="6.96232">
        <ele>1013.2</ele>
        <time>2021-08-09T12:00:05Z</time>
      </trkpt>
      <trkpt lat="47.8443" lon="6.9623">
        <ele>1013.5</ele>
        <time>2021-08-09T12:00:07Z</time>
      </trkpt>
      <trkpt lat="47.84431" lon="6.96229">
        <ele>1013.6</ele>
        <time>2021-08-09T12:00:08Z</time>
      </trkpt>
      <trkpt lat="47.84431" lon="6.96228">
        <ele>1013.7</ele>
        <time>2021-08-09T12:00:09Z</time>
      </trkpt>
      <trkpt lat="47.84432" lon="6.96227">
        <ele>1013.8</ele>
        <time>2021-08-09T12:00:11Z</time>
      </trkpt>
      <trkpt lat="47.84432" lon="6.96226">
        <ele>1013.9</ele>
        <time>2021-08-09T12:00:13Z</time>
      </trkpt>
      <trkpt lat="47.84433" lon="6.96225">
        <ele>1014.1</ele>
        <time>2021-08-09T12:00:14Z</time>
      </trkpt>
      <trkpt lat="47.84433" lon="6.96224">
        <ele>1014.2</ele>
        <time>2021-08-09T12:00:15Z</time>
      </trkpt>
      <trkpt lat="47.84434" lon="6.96222">
        <ele>1014.5</ele>
        <time>2021-08-09T12:00:16Z</time>
      </trkpt>
      <trkpt lat="47.84436" lon="6.96218">
        <ele>1014.8</ele>
        <time>2021-08-09T12:00:18Z</time>
      </trkpt>
      <trkpt lat="47.84437" lon="6.96216">
        <ele>1015.1</ele>
        <time>2021-08-09T12:00:19Z</time>
      </trkpt>
      <trkpt lat="47.84438" lon="6.96215">
        <ele>1015.3</ele>
        <time>2021-08-09T12:00:20Z</time>
      </trkpt>
      <trkpt lat="47.8444" lon="6.96211">
        <ele>1015.7</ele>
        <time>2021-08-09T12:00:22Z</time>
      </trkpt>
      <trkpt lat="47.84442" lon="6.96209">
        <ele>1016</ele>
        <time>2021-08-09T12:00:23Z</time>
      </trkpt>
      <trkpt lat="47.84442" lon="6.96207">
        <ele>1016.1</ele>
        <time>2021-08-09T12:00:24Z</time>
      </trkpt>
      <trkpt lat="47.84443" lon="6.96206">
        <ele>1016.3</ele>
        <time>2021-08-09T12:00:25Z</time>
      </trkpt>
      <trkpt lat="47.84443" lon="6.96205">
        <ele>1016.4</ele>
        <time>2021-08-09T12:00:27Z</time>
      </trkpt>
      <trkpt lat="47.84444" lon="6.96204">
        <ele>1016.4</ele>
        <time>2021-08-09T12:00:28Z</time>
      </trkpt>
      <trkpt lat="47.84444" lon="6.96204">
        <ele>1016.5</ele>
        <time>2021-08-09T12:00:29Z</time>
      </trkpt>
      <trkpt lat="47.84444" lon="6.96203">
        <ele>1016.5</ele>
        <time>2021-08-09T12:00:30Z</time>
      </trkpt>
      <trkpt lat="47.84444" lon="6.96203">
        <ele>1016.6</ele>
        <time>2021-08-09T12:00:32Z</time>
      </trkpt>
      <trkpt lat="47.84444" lon="6.96203">
        <ele>1016.6</ele>
        <time>2021-08-09T12:00:33Z</time>
      </trkpt>
      <trkpt lat="47.84451" lon="6.96183">
        <ele>1018.3</ele>
        <time>2021-08-09T12:00:42Z</time>
      </trkpt>
      <trkpt lat="47.84452" lon="6.96178">
        <ele>1018.7</ele>
        <time>2021-08-09T12:00:43Z</time>
      </trkpt>
      <trkpt lat="47.84452" lon="6.96177">
        <ele>1018.8</ele>
        <time>2021-08-09T12:00:45Z</time>
      </trkpt>
      <trkpt lat="47.84452" lon="6.96175">
        <ele>1018.9</ele>
        <time>2021-08-09T12:00:47Z</time>
      </trkpt>
      <trkpt lat="47.84452" lon="6.96174">
        <ele>1019</ele>
        <time>2021-08-09T12:00:48Z</time>
      </trkpt>
      <trkpt lat="47.84452" lon="6.96173">
        <ele>1019.1</ele>
        <time>2021-08-09T12:00:49Z</time>
      </trkpt>
      <trkpt lat="47.84452" lon="6.96173">
        <ele>1019.1</ele>
        <time>2021-08-09T12:00:50Z</time>
      </trkpt>
      <trkpt lat="47.84453" lon="6.96172">
        <ele>1019.2</ele>
        <time>2021-08-09T12:00:52Z</time>
      </trkpt>
      <trkpt lat="47.84453" lon="6.96171">
        <ele>1019.2</ele>
        <time>2021-08-09T12:00:54Z</time>
      </trkpt>
      <trkpt lat="47.84596" lon="6.96037">
        <ele>1039.5</ele>
        <time>2021-08-09T12:04:29Z</time>
      </trkpt>
      <trkpt lat="47.846" lon="6.96035">
        <ele>1039.8</ele>
        <time>2021-08-09T12:04:30Z</time>
      </trkpt>
      <trkpt lat="47.84605" lon="6.96033">
        <ele>1040.3</ele>
        <time>2021-08-09T12:04:32Z</time>
      </trkpt>
      <trkpt lat="47.8461" lon="6.9603">
        <ele>1040.7</ele>
        <time>2021-08-09T12:04:34Z</time>
      </trkpt>
      <trkpt lat="47.84614" lon="6.96026">
        <ele>1041.1</ele>
        <time>2021-08-09T12:04:35Z</time>
      </trkpt>
      <trkpt lat="47.84616" lon="6.96024">
        <ele>1041.3</ele>
        <time>2021-08-09T12:04:37Z</time>
      </trkpt>
      <trkpt lat="47.84616" lon="6.96024">
        <ele>1041.3</ele>
        <time>2021-08-09T12:04:38Z</time>
      </trkpt>
      <trkpt lat="47.84617" lon="6.96023">
        <ele>1041.4</ele>
        <time>2021-08-09T12:04:40Z</time>
      </trkpt>
      <trkpt lat="47.84617" lon="6.96023">
        <ele>1041.4</ele>
        <time>2021-08-09T12:04:41Z</time>
      </trkpt>
      <trkpt lat="47.84618" lon="6.96021">
        <ele>1041.6</ele>
        <time>2021-08-09T12:04:42Z</time>
      </trkpt>
      <trkpt lat="47.84619" lon="6.96019">
        <ele>1041.7</ele>
        <time>2021-08-09T12:04:43Z</time>
      </trkpt>
      <trkpt lat="47.84619" lon="6.96018">
        <ele>1041.7</ele>
        <time>2021-08-09T12:04:44Z</time>
      </trkpt>
      <trkpt lat="47.84623" lon="6.9601">
        <ele>1042.4</ele>
        <time>2021-08-09T12:04:47Z</time>
      </trkpt>
      <trkpt lat="47.84627" lon="6.96002">
        <ele>1043.3</ele>
        <time>2021-08-09T12:04:48Z</time>
      </trkpt>
      <trkpt lat="47.84633" lon="6.95992">
        <ele>1044.3</ele>
        <time>2021-08-09T12:04:50Z</time>
      </trkpt>
      <trkpt lat="47.84636" lon="6.95985">
        <ele>1044.9</ele>
        <time>2021-08-09T12:04:51Z</time>
      </trkpt>
      <trkpt lat="47.84639" lon="6.95981">
        <ele>1045.3</ele>
        <time>2021-08-09T12:04:52Z</time>
      </trkpt>
      <trkpt lat="47.84641" lon="6.95976">
        <ele>1045.7</ele>
        <time>2021-08-09T12:04:54Z</time>
      </trkpt>
      <trkpt lat="47.84643" lon="6.95971">
        <ele>1046</ele>
        <time>2021-08-09T12:04:55Z</time>
      </trkpt>
      <trkpt lat="47.84644" lon="6.95969">
        <ele>1046.1</ele>
        <time>2021-08-09T12:04:56Z</time>
      </trkpt>
      <trkpt lat="47.84644" lon="6.95969">
        <ele>1046.1</ele>
        <time>2021-08-09T12:04:58Z</time>
      </trkpt>
      <trkpt lat="47.84645" lon="6.95968">
        <ele>1046.2</ele>
        <time>2021-08-09T12:04:59Z</time>
      </trkpt>
      <trkpt lat="47.84645" lon="6.95967">
        <ele>1046.3</ele>
        <time>2021-08-09T12:05:00Z</time>
      </trkpt>
      <trkpt lat="47.84646" lon="6.95967">
        <ele>1046.3</ele>
        <time>2021-08-09T12:05:01Z</time>
      </trkpt>
      <trkpt lat="47.84648" lon="6.95965">
        <ele>1046.5</ele>
        <time>2021-08-09T12:05:03Z</time>
      </trkpt>
      <trkpt lat="47.84649" lon="6.95965">
        <ele>1046.5</ele>
        <time>2021-08-09T12:05:04Z</time>
      </trkpt>
      <trkpt lat="47.84649" lon="6.95965">
        <ele>1046.5</ele>
        <time>2021-08-09T12:05:05Z</time>
      </trkpt>
      <trkpt lat="47.84655" lon="6.95961">
        <ele>1046.9</ele>
        <time>2021-08-09T12:05:08Z</time>
      </trkpt>
      <trkpt lat="47.84659" lon="6.9596">
        <ele>1047.1</ele>
        <time>2021-08-09T12:05:10Z</time>
      </trkpt>
      <trkpt lat="47.8466" lon="6.95961">
        <ele>1047.1</ele>
        <time>2021-08-09T12:05:11Z</time>
      </trkpt>
      <trkpt lat="47.84661" lon="6.95961">
        <ele>1047.2</ele>
        <time>2021-08-09T12:05:13Z</time>
      </trkpt>
      <trkpt lat="47.84662" lon="6.95961">
        <ele>1047.2</ele>
        <time>2021-08-09T12:05:14Z</time>
      </trkpt>
      <trkpt lat="47.84663" lon="6.95962">
        <ele>1047.2</ele>
        <time>2021-08-09T12:05:15Z</time>
      </trkpt>
      <trkpt lat="47.84664" lon="6.95962">
        <ele>1047.3</ele>
        <time>2021-08-09T12:05:16Z</time>
      </trkpt>
      <trkpt lat="47.84664" lon="6.95962">
        <ele>1047.3</ele>
        <time>2021-08-09T12:05:18Z</time>
      </trkpt>
      <trkpt lat="47.84665" lon="6.95962">
        <ele>1047.4</ele>
        <time>2021-08-09T12:05:19Z</time>
      </trkpt>
      <trkpt lat="47.84667" lon="6.95962">
        <ele>1047.4</ele>
        <time>2021-08-09T12:05:21Z</time>
      </trkpt>
      <trkpt lat="47.84669" lon="6.95962">
        <ele>1047.5</ele>
        <time>2021-08-09T12:05:22Z</time>
      </trkpt>
      <trkpt lat="47.84672" lon="6.95961">
        <ele>1047.7</ele>
        <time>2021-08-09T12:05:24Z</time>
      </trkpt>
      <trkpt lat="47.84674" lon="6.95961">
        <ele>1047.7</ele>
        <time>2021-08-09T12:05:25Z</time>
      </trkpt>
      <trkpt lat="47.84675" lon="6.95959">
        <ele>1047.8</ele>
        <time>2021-08-09T12:05:27Z</time>
      </trkpt>
      <trkpt lat="47.84676" lon="6.95958">
        <ele>1047.8</ele>
        <time>2021-08-09T12:05:28Z</time>
      </trkpt>
      <trkpt lat="47.84678" lon="6.95957">
        <ele>1048</ele>
        <time>2021-08-09T12:05:30Z</time>
      </trkpt>
      <trkpt lat="47.8468" lon="6.95956">
        <ele>1048</ele>
        <time>2021-08-09T12:05:31Z</time>
      </trkpt>
      <trkpt lat="47.84681" lon="6.95955">
        <ele>1048.1</ele>
        <time>2021-08-09T12:05:32Z</time>
      </trkpt>
      <trkpt lat="47.84684" lon="6.95954">
        <ele>1048.2</ele>
        <time>2021-08-09T12:05:34Z</time>
      </trkpt>
      <trkpt lat="47.84686" lon="6.95954">
        <ele>1048.2</ele>
        <time>2021-08-09T12:05:35Z</time>
      </trkpt>
      <trkpt lat="47.8469" lon="6.95952">
        <ele>1048.4</ele>
        <time>2021-08-09T12:05:37Z</time>
      </trkpt>
      <trkpt lat="47.84692" lon="6.95952">
        <ele>1048.4</ele>
        <time>2021-08-09T12:05:38Z</time>
      </trkpt>
      <trkpt lat="47.84693" lon="6.95952">
        <ele>1048.4</ele>
        <time>2021-08-09T12:05:40Z</time>
      </trkpt>
      <trkpt lat="47.84694" lon="6.95952">
        <ele>1048.5</ele>
        <time>2021-08-09T12:05:41Z</time>
      </trkpt>
      <trkpt lat="47.84695" lon="6.95952">
        <ele>1048.5</ele>
        <time>2021-08-09T12:05:42Z</time>
      </trkpt>
      <trkpt lat="47.84695" lon="6.95952">
        <ele>1048.5</ele>
        <time>2021-08-09T12:05:43Z</time>
      </trkpt>
      <trkpt lat="47.84696" lon="6.95952">
        <ele>1048.5</ele>
        <time>2021-08-09T12:05:45Z</time>
      </trkpt>
      <trkpt lat="47.84697" lon="6.95951">
        <ele>1048.5</ele>
        <time>2021-08-09T12:05:46Z</time>
      </trkpt>
      <trkpt lat="47.84749" lon="6.9587">
        <ele>1051.6</ele>
        <time>2021-08-09T12:08:16Z</time>
      </trkpt>
      <trkpt lat="47.84747" lon="6.95866">
        <ele>1051.9</ele>
        <time>2021-08-09T12:08:17Z</time>
      </trkpt>
      <trkpt lat="47.84746" lon="6.95859">
        <ele>1052.7</ele>
        <time>2021-08-09T12:08:19Z</time>
      </trkpt>
      <trkpt lat="47.84749" lon="6.9585">
        <ele>1053.6</ele>
        <time>2021-08-09T12:08:21Z</time>
      </trkpt>
      <trkpt lat="47.84749" lon="6.95847">
        <ele>1053.8</ele>
        <time>2021-08-09T12:08:23Z</time>
      </trkpt>
      <trkpt lat="47.84755" lon="6.9585">
        <ele>1054.5</ele>
        <time>2021-08-09T12:08:25Z</time>
      </trkpt>
      <trkpt lat="47.84754" lon="6.95848">
        <ele>1054.7</ele>
        <time>2021-08-09T12:08:27Z</time>
      </trkpt>
      <trkpt lat="47.8476" lon="6.95856">
        <ele>1055.2</ele>
        <time>2021-08-09T12:09:09Z</time>
      </trkpt>
      <trkpt lat="47.84755" lon="6.95849">
        <ele>1055.3</ele>
        <time>2021-08-09T12:09:11Z</time>
      </trkpt>
      <trkpt lat="47.84752" lon="6.95843">
        <ele>1055.4</ele>
        <time>2021-08-09T12:09:12Z</time>
      </trkpt>
      <trkpt lat="47.8475" lon="6.9584">
        <ele>1055.4</ele>
        <time>2021-08-09T12:09:13Z</time>
      </trkpt>
      <trkpt lat="47.84746" lon="6.95834">
        <ele>1055.5</ele>
        <time>2021-08-09T12:09:15Z</time>
      </trkpt>
      <trkpt lat="47.84742" lon="6.95831">
        <ele>1055.7</ele>
        <time>2021-08-09T12:09:17Z</time>
      </trkpt>
      <trkpt lat="47.84741" lon="6.9583">
        <ele>1055.8</ele>
        <time>2021-08-09T12:09:18Z</time>
      </trkpt>
      <trkpt lat="47.84739" lon="6.95828">
        <ele>1055.9</ele>
        <time>2021-08-09T12:09:19Z</time>
      </trkpt>
      <trkpt lat="47.84738" lon="6.95824">
        <ele>1056</ele>
        <time>2021-08-09T12:09:21Z</time>
      </trkpt>
      <trkpt lat="47.84738" lon="6.95823">
        <ele>1056.1</ele>
        <time>2021-08-09T12:09:22Z</time>
      </trkpt>
      <trkpt lat="47.84737" lon="6.95821">
        <ele>1056.1</ele>
        <time>2021-08-09T12:09:23Z</time>
      </trkpt>
      <trkpt lat="47.84737" lon="6.95819">
        <ele>1056.3</ele>
        <time>2021-08-09T12:09:24Z</time>
      </trkpt>
      <trkpt lat="47.84739" lon="6.95818">
        <ele>1056.4</ele>
        <time>2021-08-09T12:09:25Z</time>
      </trkpt>
      <trkpt lat="47.84741" lon="6.95817">
        <ele>1056.6</ele>
        <time>2021-08-09T12:09:27Z</time>
      </trkpt>
      <trkpt lat="47.84741" lon="6.95816">
        <ele>1056.7</ele>
        <time>2021-08-09T12:09:28Z</time>
      </trkpt>
      <trkpt lat="47.84743" lon="6.95815">
        <ele>1056.9</ele>
        <time>2021-08-09T12:09:30Z</time>
      </trkpt>
      <trkpt lat="47.84743" lon="6.95814">
        <ele>1056.9</ele>
        <time>2021-08-09T12:09:31Z</time>
      </trkpt>
      <trkpt lat="47.84744" lon="6.95814">
        <ele>1057</ele>
        <time>2021-08-09T12:09:33Z</time>
      </trkpt>
      <trkpt lat="47.84744" lon="6.95814">
        <ele>1057.1</ele>
        <time>2021-08-09T12:09:34Z</time>
      </trkpt>
      <trkpt lat="47.84745" lon="6.95814">
        <ele>1057.1</ele>
        <time>2021-08-09T12:09:36Z</time>
      </trkpt>
      <trkpt lat="47.84745" lon="6.95813">
        <ele>1057.2</ele>
        <time>2021-08-09T12:09:37Z</time>
      </trkpt>
      <trkpt lat="47.84745" lon="6.95813">
        <ele>1057.2</ele>
        <time>2021-08-09T12:09:38Z</time>
      </trkpt>
      <trkpt lat="47.84741" lon="6.95802">
        <ele>1057.8</ele>
        <time>2021-08-09T12:09:44Z</time>
      </trkpt>
      <trkpt lat="47.84738" lon="6.95796">
        <ele>1058</ele>
        <time>2021-08-09T12:09:46Z</time>
      </trkpt>
      <trkpt lat="47.84736" lon="6.95793">
        <ele>1058</ele>
        <time>2021-08-09T12:09:47Z</time>
      </trkpt>
      <trkpt lat="47.84734" lon="6.95789">
        <ele>1058.1</ele>
        <time>2021-08-09T12:09:48Z</time>
      </trkpt>
      <trkpt lat="47.84733" lon="6.95788">
        <ele>1058.1</ele>
        <time>2021-08-09T12:09:49Z</time>
      </trkpt>
      <trkpt lat="47.84731" lon="6.95784">
        <ele>1058.1</ele>
        <time>2021-08-09T12:09:51Z</time>
      </trkpt>
      <trkpt lat="47.8473" lon="6.95782">
        <ele>1058.1</ele>
        <time>2021-08-09T12:09:52Z</time>
      </trkpt>
      <trkpt lat="47.84729" lon="6.9578">
        <ele>1058.1</ele>
        <time>2021-08-09T12:09:53Z</time>
      </trkpt>
      <trkpt lat="47.84729" lon="6.95779">
        <ele>1058.1</ele>
        <time>2021-08-09T12:09:54Z</time>
      </trkpt>
      <trkpt lat="47.84729" lon="6.95776">
        <ele>1058.1</ele>
        <time>2021-08-09T12:09:55Z</time>
      </trkpt>
      <trkpt lat="47.84727" lon="6.95771">
        <ele>1058.1</ele>
        <time>2021-08-09T12:09:57Z</time>
      </trkpt>
      <trkpt lat="47.84724" lon="6.95764">
        <ele>1058.1</ele>
        <time>2021-08-09T12:09:58Z</time>
      </trkpt>
      <trkpt lat="47.84721" lon="6.95758">
        <ele>1058.2</ele>
        <time>2021-08-09T12:09:59Z</time>
      </trkpt>
      <trkpt lat="47.84718" lon="6.95753">
        <ele>1058.4</ele>
        <time>2021-08-09T12:10:00Z</time>
      </trkpt>
      <trkpt lat="47.84715" lon="6.95748">
        <ele>1058.7</ele>
        <time>2021-08-09T12:10:01Z</time>
      </trkpt>
      <trkpt lat="47.8471" lon="6.95741">
        <ele>1059.3</ele>
        <time>2021-08-09T12:10:03Z</time>
      </trkpt>
      <trkpt lat="47.84708" lon="6.95737">
        <ele>1059.6</ele>
        <time>2021-08-09T12:10:04Z</time>
      </trkpt>
      <trkpt lat="47.84707" lon="6.95732">
        <ele>1059.9</ele>
        <time>2021-08-09T12:10:05Z</time>
      </trkpt>
      <trkpt lat="47.84707" lon="6.9573">
        <ele>1060</ele>
        <time>2021-08-09T12:10:07Z</time>
      </trkpt>
      <trkpt lat="47.84707" lon="6.95728">
        <ele>1060.1</ele>
        <time>2021-08-09T12:10:09Z</time>
      </trkpt>
      <trkpt lat="47.84706" lon="6.95725">
        <ele>1060.2</ele>
        <time>2021-08-09T12:10:10Z</time>
      </trkpt>
      <trkpt lat="47.84706" lon="6.95723">
        <ele>1060.4</ele>
        <time>2021-08-09T12:10:11Z</time>
      </trkpt>
      <trkpt lat="47.84705" lon="6.95721">
        <ele>1060.4</ele>
        <time>2021-08-09T12:10:13Z</time>
      </trkpt>
      <trkpt lat="47.84705" lon="6.9572">
        <ele>1060.5</ele>
        <time>2021-08-09T12:10:14Z</time>
      </trkpt>
      <trkpt lat="47.84705" lon="6.95719">
        <ele>1060.5</ele>
        <time>2021-08-09T12:10:15Z</time>
      </trkpt>
      <trkpt lat="47.84705" lon="6.95717">
        <ele>1060.6</ele>
        <time>2021-08-09T12:10:17Z</time>
      </trkpt>
      <trkpt lat="47.84675" lon="6.95585">
        <ele>1064.2</ele>
        <time>2021-08-09T12:12:06Z</time>
      </trkpt>
      <trkpt lat="47.84677" lon="6.95572">
        <ele>1063.8</ele>
        <time>2021-08-09T12:12:08Z</time>
      </trkpt>
      <trkpt lat="47.84675" lon="6.95565">
        <ele>1063.7</ele>
        <time>2021-08-09T12:12:09Z</time>
      </trkpt>
      <trkpt lat="47.84675" lon="6.95559">
        <ele>1063.5</ele>
        <time>2021-08-09T12:12:10Z</time>
      </trkpt>
      <trkpt lat="47.84674" lon="6.95553">
        <ele>1063.3</ele>
        <time>2021-08-09T12:12:11Z</time>
      </trkpt>
      <trkpt lat="47.84674" lon="6.95544">
        <ele>1063</ele>
        <time>2021-08-09T12:12:13Z</time>
      </trkpt>
      <trkpt lat="47.84674" lon="6.95531">
        <ele>1062.3</ele>
        <time>2021-08-09T12:12:14Z</time>
      </trkpt>
      <trkpt lat="47.84675" lon="6.95524">
        <ele>1061.9</ele>
        <time>2021-08-09T12:12:16Z</time>
      </trkpt>
      <trkpt lat="47.84676" lon="6.9552">
        <ele>1061.5</ele>
        <time>2021-08-09T12:12:17Z</time>
      </trkpt>
      <trkpt lat="47.84676" lon="6.95515">
        <ele>1061.1</ele>
        <time>2021-08-09T12:12:19Z</time>
      </trkpt>
      <trkpt lat="47.84676" lon="6.95509">
        <ele>1060.6</ele>
        <time>2021-08-09T12:12:20Z</time>
      </trkpt>
      <trkpt lat="47.84677" lon="6.95503">
        <ele>1060.1</ele>
        <time>2021-08-09T12:12:22Z</time>
      </trkpt>
      <trkpt lat="47.84677" lon="6.95501">
        <ele>1059.9</ele>
        <time>2021-08-09T12:12:23Z</time>
      </trkpt>
      <trkpt lat="47.84678" lon="6.95497">
        <ele>1059.4</ele>
        <time>2021-08-09T12:12:24Z</time>
      </trkpt>
      <trkpt lat="47.84677" lon="6.95487">
        <ele>1058.5</ele>
        <time>2021-08-09T12:12:26Z</time>
      </trkpt>
      <trkpt lat="47.84676" lon="6.95484">
        <ele>1058.1</ele>
        <time>2021-08-09T12:12:28Z</time>
      </trkpt>
      <trkpt lat="47.84674" lon="6.95479">
        <ele>1057.7</ele>
        <time>2021-08-09T12:12:29Z</time>
      </trkpt>
      <trkpt lat="47.84672" lon="6.95475">
        <ele>1057.1</ele>
        <time>2021-08-09T12:12:30Z</time>
      </trkpt>
      <trkpt lat="47.84671" lon="6.95465">
        <ele>1056.2</ele>
        <time>2021-08-09T12:12:33Z</time>
      </trkpt>
      <trkpt lat="47.84671" lon="6.9546">
        <ele>1055.7</ele>
        <time>2021-08-09T12:12:34Z</time>
      </trkpt>
      <trkpt lat="47.84671" lon="6.95455">
        <ele>1055.3</ele>
        <time>2021-08-09T12:12:35Z</time>
      </trkpt>
      <trkpt lat="47.84671" lon="6.95451">
        <ele>1054.9</ele>
        <time>2021-08-09T12:12:36Z</time>
      </trkpt>
      <trkpt lat="47.84672" lon="6.95442">
        <ele>1054</ele>
        <time>2021-08-09T12:12:38Z</time>
      </trkpt>
      <trkpt lat="47.84673" lon="6.95429">
        <ele>1052.9</ele>
        <time>2021-08-09T12:12:39Z</time>
      </trkpt>
      <trkpt lat="47.84674" lon="6.9542">
        <ele>1052.2</ele>
        <time>2021-08-09T12:12:41Z</time>
      </trkpt>
      <trkpt lat="47.84676" lon="6.95411">
        <ele>1051.5</ele>
        <time>2021-08-09T12:12:42Z</time>
      </trkpt>
      <trkpt lat="47.84677" lon="6.95403">
        <ele>1051</ele>
        <time>2021-08-09T12:12:43Z</time>
      </trkpt>
      <trkpt lat="47.84676" lon="6.95396">
        <ele>1050.5</ele>
        <time>2021-08-09T12:12:44Z</time>
      </trkpt>
      <trkpt lat="47.84677" lon="6.95391">
        <ele>1050.2</ele>
        <time>2021-08-09T12:12:46Z</time>
      </trkpt>
      <trkpt lat="47.84678" lon="6.95388">
        <ele>1050</ele>
        <time>2021-08-09T12:12:47Z</time>
      </trkpt>
      <trkpt lat="47.84678" lon="6.95385">
        <ele>1049.9</ele>
        <time>2021-08-09T12:12:49Z</time>
      </trkpt>
      <trkpt lat="47.84679" lon="6.9538">
        <ele>1049.7</ele>
        <time>2021-08-09T12:12:50Z</time>
      </trkpt>
      <trkpt lat="47.84679" lon="6.95378">
        <ele>1049.6</ele>
        <time>2021-08-09T12:12:51Z</time>
      </trkpt>
      <trkpt lat="47.8468" lon="6.95373">
        <ele>1049.4</ele>
        <time>2021-08-09T12:12:52Z</time>
      </trkpt>
      <trkpt lat="47.8468" lon="6.95371">
        <ele>1049.4</ele>
        <time>2021-08-09T12:12:53Z</time>
      </trkpt>
      <trkpt lat="47.8468" lon="6.95364">
        <ele>1049.3</ele>
        <time>2021-08-09T12:12:55Z</time>
      </trkpt>
      <trkpt lat="47.8468" lon="6.9536">
        <ele>1049.2</ele>
        <time>2021-08-09T12:12:56Z</time>
      </trkpt>
      <trkpt lat="47.84679" lon="6.95358">
        <ele>1049.2</ele>
        <time>2021-08-09T12:12:58Z</time>
      </trkpt>
      <trkpt lat="47.84679" lon="6.95356">
        <ele>1049.2</ele>
        <time>2021-08-09T12:12:59Z</time>
      </trkpt>
      <trkpt lat="47.84679" lon="6.95353">
        <ele>1049.3</ele>
        <time>2021-08-09T12:13:01Z</time>
      </trkpt>
      <trkpt lat="47.8468" lon="6.95351">
        <ele>1049.3</ele>
        <time>2021-08-09T12:13:03Z</time>
      </trkpt>
      <trkpt lat="47.84685" lon="6.95317">
        <ele>1049.5</ele>
        <time>2021-08-09T12:13:16Z</time>
      </trkpt>
      <trkpt lat="47.84685" lon="6.9531">
        <ele>1049.5</ele>
        <time>2021-08-09T12:13:17Z</time>
      </trkpt>
      <trkpt lat="47.84687" lon="6.95307">
        <ele>1049.5</ele>
        <time>2021-08-09T12:13:18Z</time>
      </trkpt>
      <trkpt lat="47.84688" lon="6.95302">
        <ele>1049.4</ele>
        <time>2021-08-09T12:13:19Z</time>
      </trkpt>
      <trkpt lat="47.84691" lon="6.95293">
        <ele>1049.3</ele>
        <time>2021-08-09T12:13:21Z</time>
      </trkpt>
      <trkpt lat="47.84695" lon="6.95284">
        <ele>1049.2</ele>
        <time>2021-08-09T12:13:23Z</time>
      </trkpt>
      <trkpt lat="47.84696" lon="6.95279">
        <ele>1049.1</ele>
        <time>2021-08-09T12:13:24Z</time>
      </trkpt>
      <trkpt lat="47.84697" lon="6.95274">
        <ele>1049</ele>
        <time>2021-08-09T12:13:25Z</time>
      </trkpt>
      <trkpt lat="47.84701" lon="6.95267">
        <ele>1048.9</ele>
        <time>2021-08-09T12:13:27Z</time>
      </trkpt>
      <trkpt lat="47.84703" lon="6.95264">
        <ele>1048.8</ele>
        <time>2021-08-09T12:13:28Z</time>
      </trkpt>
      <trkpt lat="47.84704" lon="6.95253">
        <ele>1048.6</ele>
        <time>2021-08-09T12:13:30Z</time>
      </trkpt>
      <trkpt lat="47.84704" lon="6.95247">
        <ele>1048.5</ele>
        <time>2021-08-09T12:13:31Z</time>
      </trkpt>
      <trkpt lat="47.84704" lon="6.95241">
        <ele>1048.4</ele>
        <time>2021-08-09T12:13:32Z</time>
      </trkpt>
      <trkpt lat="47.84703" lon="6.95235">
        <ele>1048.4</ele>
        <time>2021-08-09T12:13:33Z</time>
      </trkpt>
      <trkpt lat="47.84704" lon="6.95225">
        <ele>1048.2</ele>
        <time>2021-08-09T12:13:35Z</time>
      </trkpt>
      <trkpt lat="47.84704" lon="6.95218">
        <ele>1048.1</ele>
        <time>2021-08-09T12:13:36Z</time>
      </trkpt>
      <trkpt lat="47.84708" lon="6.95207">
        <ele>1047.8</ele>
        <time>2021-08-09T12:13:38Z</time>
      </trkpt>
      <trkpt lat="47.84708" lon="6.95198">
        <ele>1047.6</ele>
        <time>2021-08-09T12:13:40Z</time>
      </trkpt>
      <trkpt lat="47.84707" lon="6.95192">
        <ele>1047.4</ele>
        <time>2021-08-09T12:13:41Z</time>
      </trkpt>
      <trkpt lat="47.84708" lon="6.95187">
        <ele>1047.3</ele>
        <time>2021-08-09T12:13:42Z</time>
      </trkpt>
      <trkpt lat="47.84709" lon="6.95179">
        <ele>1047</ele>
        <time>2021-08-09T12:13:43Z</time>
      </trkpt>
      <trkpt lat="47.84709" lon="6.95174">
        <ele>1046.9</ele>
        <time>2021-08-09T12:13:44Z</time>
      </trkpt>
      <trkpt lat="47.84709" lon="6.95168">
        <ele>1046.7</ele>
        <time>2021-08-09T12:13:45Z</time>
      </trkpt>
      <trkpt lat="47.84709" lon="6.95166">
        <ele>1046.7</ele>
        <time>2021-08-09T12:13:46Z</time>
      </trkpt>
      <trkpt lat="47.8471" lon="6.95162">
        <ele>1046.5</ele>
        <time>2021-08-09T12:13:48Z</time>
      </trkpt>
      <trkpt lat="47.8471" lon="6.95161">
        <ele>1046.5</ele>
        <time>2021-08-09T12:13:49Z</time>
      </trkpt>
      <trkpt lat="47.84708" lon="6.95158">
        <ele>1046.4</ele>
        <time>2021-08-09T12:13:50Z</time>
      </trkpt>
      <trkpt lat="47.84705" lon="6.95156">
        <ele>1046.2</ele>
        <time>2021-08-09T12:13:51Z</time>
      </trkpt>
      <trkpt lat="47.84705" lon="6.95152">
        <ele>1046.1</ele>
        <time>2021-08-09T12:13:52Z</time>
      </trkpt>
      <trkpt lat="47.84706" lon="6.9515">
        <ele>1046</ele>
        <time>2021-08-09T12:13:53Z</time>
      </trkpt>
      <trkpt lat="47.84707" lon="6.95147">
        <ele>1045.9</ele>
        <time>2021-08-09T12:13:54Z</time>
      </trkpt>
      <trkpt lat="47.84707" lon="6.95147">
        <ele>1045.9</ele>
        <time>2021-08-09T12:13:55Z</time>
      </trkpt>
      <trkpt lat="47.84709" lon="6.95143">
        <ele>1045.8</ele>
        <time>2021-08-09T12:13:57Z</time>
      </trkpt>
      <trkpt lat="47.8471" lon="6.9514">
        <ele>1045.7</ele>
        <time>2021-08-09T12:13:58Z</time>
      </trkpt>
      <trkpt lat="47.8471" lon="6.95138">
        <ele>1045.7</ele>
        <time>2021-08-09T12:13:59Z</time>
      </trkpt>
      <trkpt lat="47.84711" lon="6.95137">
        <ele>1045.7</ele>
        <time>2021-08-09T12:14:00Z</time>
      </trkpt>
      <trkpt lat="47.84713" lon="6.95136">
        <ele>1045.6</ele>
        <time>2021-08-09T12:14:02Z</time>
      </trkpt>
      <trkpt lat="47.84714" lon="6.95134">
        <ele>1045.6</ele>
        <time>2021-08-09T12:14:03Z</time>
      </trkpt>
      <trkpt lat="47.84714" lon="6.9513">
        <ele>1045.7</ele>
        <time>2021-08-09T12:14:05Z</time>
      </trkpt>
      <trkpt lat="47.84715" lon="6.95128">
        <ele>1045.7</ele>
        <time>2021-08-09T12:14:06Z</time>
      </trkpt>
      <trkpt lat="47.84715" lon="6.95127">
        <ele>1045.7</ele>
        <time>2021-08-09T12:14:08Z</time>
      </trkpt>
      <trkpt lat="47.84716" lon="6.95126">
        <ele>1045.7</ele>
        <time>2021-08-09T12:14:09Z</time>
      </trkpt>
      <trkpt lat="47.84716" lon="6.95125">
        <ele>1045.8</ele>
        <time>2021-08-09T12:14:10Z</time>
      </trkpt>
      <trkpt lat="47.84716" lon="6.95122">
        <ele>1045.8</ele>
        <time>2021-08-09T12:14:11Z</time>
      </trkpt>
      <trkpt lat="47.84718" lon="6.95117">
        <ele>1046</ele>
        <time>2021-08-09T12:14:13Z</time>
      </trkpt>
      <trkpt lat="47.84728" lon="6.95059">
        <ele>1048</ele>
        <time>2021-08-09T12:14:51Z</time>
      </trkpt>
      <trkpt lat="47.84729" lon="6.95054">
        <ele>1048.1</ele>
        <time>2021-08-09T12:14:52Z</time>
      </trkpt>
      <trkpt lat="47.8473" lon="6.95046">
        <ele>1048.2</ele>
        <time>2021-08-09T12:14:54Z</time>
      </trkpt>
      <trkpt lat="47.84731" lon="6.9504">
        <ele>1048.3</ele>
        <time>2021-08-09T12:14:55Z</time>
      </trkpt>
      <trkpt lat="47.84731" lon="6.95031">
        <ele>1048.5</ele>
        <time>2021-08-09T12:14:57Z</time>
      </trkpt>
      <trkpt lat="47.84732" lon="6.95026">
        <ele>1048.6</ele>
        <time>2021-08-09T12:14:58Z</time>
      </trkpt>
      <trkpt lat="47.84732" lon="6.95019">
        <ele>1048.8</ele>
        <time>2021-08-09T12:15:00Z</time>
      </trkpt>
      <trkpt lat="47.84734" lon="6.95016">
        <ele>1048.9</ele>
        <time>2021-08-09T12:15:02Z</time>
      </trkpt>
      <trkpt lat="47.84735" lon="6.9501">
        <ele>1049</ele>
        <time>2021-08-09T12:15:03Z</time>
      </trkpt>
      <trkpt lat="47.84735" lon="6.95006">
        <ele>1049.1</ele>
        <time>2021-08-09T12:15:04Z</time>
      </trkpt>
      <trkpt lat="47.84735" lon="6.95003">
        <ele>1049.1</ele>
        <time>2021-08-09T12:15:05Z</time>
      </trkpt>
      <trkpt lat="47.84735" lon="6.94999">
        <ele>1049.2</ele>
        <time>2021-08-09T12:15:07Z</time>
      </trkpt>
      <trkpt lat="47.84734" lon="6.94996">
        <ele>1049.2</ele>
        <time>2021-08-09T12:15:08Z</time>
      </trkpt>
      <trkpt lat="47.84735" lon="6.94993">
        <ele>1049.2</ele>
        <time>2021-08-09T12:15:10Z</time>
      </trkpt>
      <trkpt lat="47.84735" lon="6.94988">
        <ele>1049.2</ele>
        <time>2021-08-09T12:15:11Z</time>
      </trkpt>
      <trkpt lat="47.84735" lon="6.94986">
        <ele>1049.2</ele>
        <time>2021-08-09T12:15:12Z</time>
      </trkpt>
      <trkpt lat="47.84736" lon="6.94982">
        <ele>1049.2</ele>
        <time>2021-08-09T12:15:13Z</time>
      </trkpt>
      <trkpt lat="47.84736" lon="6.94981">
        <ele>1049.2</ele>
        <time>2021-08-09T12:15:14Z</time>
      </trkpt>
      <trkpt lat="47.84736" lon="6.94974">
        <ele>1049.1</ele>
        <time>2021-08-09T12:15:16Z</time>
      </trkpt>
      <trkpt lat="47.84736" lon="6.94971">
        <ele>1049</ele>
        <time>2021-08-09T12:15:17Z</time>
      </trkpt>
      <trkpt lat="47.84737" lon="6.94965">
        <ele>1048.9</ele>
        <time>2021-08-09T12:15:19Z</time>
      </trkpt>
      <trkpt lat="47.84737" lon="6.9496">
        <ele>1048.8</ele>
        <time>2021-08-09T12:15:20Z</time>
      </trkpt>
      <trkpt lat="47.84736" lon="6.94953">
        <ele>1048.6</ele>
        <time>2021-08-09T12:15:21Z</time>
      </trkpt>
      <trkpt lat="47.84736" lon="6.94948">
        <ele>1048.5</ele>
        <time>2021-08-09T12:15:22Z</time>
      </trkpt>
      <trkpt lat="47.84737" lon="6.94942">
        <ele>1048.4</ele>
        <time>2021-08-09T12:15:24Z</time>
      </trkpt>
      <trkpt lat="47.84736" lon="6.94935">
        <ele>1048.3</ele>
        <time>2021-08-09T12:15:25Z</time>
      </trkpt>
      <trkpt lat="47.84736" lon="6.94931">
        <ele>1048.2</ele>
        <time>2021-08-09T12:15:26Z</time>
      </trkpt>
      <trkpt lat="47.84736" lon="6.94926">
        <ele>1048.2</ele>
        <time>2021-08-09T12:15:28Z</time>
      </trkpt>
      <trkpt lat="47.84736" lon="6.94924">
        <ele>1048.2</ele>
        <time>2021-08-09T12:15:29Z</time>
      </trkpt>
      <trkpt lat="47.84737" lon="6.94918">
        <ele>1048.2</ele>
        <time>2021-08-09T12:15:30Z</time>
      </trkpt>
      <trkpt lat="47.84738" lon="6.94915">
        <ele>1048.1</ele>
        <time>2021-08-09T12:15:31Z</time>
      </trkpt>
      <trkpt lat="47.8474" lon="6.94908">
        <ele>1048.1</ele>
        <time>2021-08-09T12:15:33Z</time>
      </trkpt>
      <trkpt lat="47.84742" lon="6.94903">
        <ele>1048</ele>
        <time>2021-08-09T12:15:34Z</time>
      </trkpt>
      <trkpt lat="47.84743" lon="6.94897">
        <ele>1048</ele>
        <time>2021-08-09T12:15:36Z</time>
      </trkpt>
      <trkpt lat="47.84743" lon="6.94895">
        <ele>1048</ele>
        <time>2021-08-09T12:15:37Z</time>
      </trkpt>
      <trkpt lat="47.84744" lon="6.94893">
        <ele>1047.9</ele>
        <time>2021-08-09T12:15:38Z</time>
      </trkpt>
      <trkpt lat="47.84744" lon="6.9489">
        <ele>1047.9</ele>
        <time>2021-08-09T12:15:40Z</time>
      </trkpt>
      <trkpt lat="47.84743" lon="6.94889">
        <ele>1047.9</ele>
        <time>2021-08-09T12:15:41Z</time>
      </trkpt>
      <trkpt lat="47.84743" lon="6.94888">
        <ele>1047.9</ele>
        <time>2021-08-09T12:15:42Z</time>
      </trkpt>
      <trkpt lat="47.84742" lon="6.94882">
        <ele>1047.9</ele>
        <time>2021-08-09T12:15:43Z</time>
      </trkpt>
      <trkpt lat="47.84741" lon="6.94877">
        <ele>1048</ele>
        <time>2021-08-09T12:15:45Z</time>
      </trkpt>
      <trkpt lat="47.84739" lon="6.94874">
        <ele>1048</ele>
        <time>2021-08-09T12:15:46Z</time>
      </trkpt>
      <trkpt lat="47.84738" lon="6.94871">
        <ele>1048.1</ele>
        <time>2021-08-09T12:15:47Z</time>
      </trkpt>
      <trkpt lat="47.84737" lon="6.94863">
        <ele>1048.3</ele>
        <time>2021-08-09T12:15:49Z</time>
      </trkpt>
      <trkpt lat="47.84736" lon="6.94859">
        <ele>1048.4</ele>
        <time>2021-08-09T12:15:50Z</time>
      </trkpt>
      <trkpt lat="47.84734" lon="6.94853">
        <ele>1048.6</ele>
        <time>2021-08-09T12:15:52Z</time>
      </trkpt>
      <trkpt lat="47.84734" lon="6.94848">
        <ele>1048.7</ele>
        <time>2021-08-09T12:15:53Z</time>
      </trkpt>
      <trkpt lat="47.84733" lon="6.94843">
        <ele>1048.8</ele>
        <time>2021-08-09T12:15:54Z</time>
      </trkpt>
      <trkpt lat="47.84733" lon="6.94841">
        <ele>1048.8</ele>
        <time>2021-08-09T12:15:55Z</time>
      </trkpt>
      <trkpt lat="47.84734" lon="6.94833">
        <ele>1048.9</ele>
        <time>2021-08-09T12:15:57Z</time>
      </trkpt>
      <trkpt lat="47.84735" lon="6.94828">
        <ele>1049</ele>
        <time>2021-08-09T12:15:58Z</time>
      </trkpt>
      <trkpt lat="47.84737" lon="6.94821">
        <ele>1049</ele>
        <time>2021-08-09T12:16:00Z</time>
      </trkpt>
      <trkpt lat="47.84737" lon="6.94816">
        <ele>1049.1</ele>
        <time>2021-08-09T12:16:01Z</time>
      </trkpt>
      <trkpt lat="47.84738" lon="6.94812">
        <ele>1049.2</ele>
        <time>2021-08-09T12:16:02Z</time>
      </trkpt>
      <trkpt lat="47.84742" lon="6.94807">
        <ele>1049.3</ele>
        <time>2021-08-09T12:16:04Z</time>
      </trkpt>
      <trkpt lat="47.84745" lon="6.94805">
        <ele>1049.5</ele>
        <time>2021-08-09T12:16:05Z</time>
      </trkpt>
      <trkpt lat="47.84749" lon="6.94802">
        <ele>1049.7</ele>
        <time>2021-08-09T12:16:07Z</time>
      </trkpt>
      <trkpt lat="47.84749" lon="6.94802">
        <ele>1049.8</ele>
        <time>2021-08-09T12:16:08Z</time>
      </trkpt>
      <trkpt lat="47.8475" lon="6.94801">
        <ele>1049.8</ele>
        <time>2021-08-09T12:16:09Z</time>
      </trkpt>
      <trkpt lat="47.8475" lon="6.94801">
        <ele>1049.8</ele>
        <time>2021-08-09T12:16:10Z</time>
      </trkpt>
      <trkpt lat="47.8475" lon="6.94801">
        <ele>1049.9</ele>
        <time>2021-08-09T12:16:12Z</time>
      </trkpt>
      <trkpt lat="47.84751" lon="6.948">
        <ele>1049.9</ele>
        <time>2021-08-09T12:16:13Z</time>
      </trkpt>
      <trkpt lat="47.84753" lon="6.94798">
        <ele>1050.1</ele>
        <time>2021-08-09T12:16:15Z</time>
      </trkpt>
      <trkpt lat="47.84763" lon="6.94766">
        <ele>1052</ele>
        <time>2021-08-09T12:16:43Z</time>
      </trkpt>
      <trkpt lat="47.84765" lon="6.94754">
        <ele>1052.4</ele>
        <time>2021-08-09T12:16:45Z</time>
      </trkpt>
      <trkpt lat="47.84766" lon="6.94752">
        <ele>1052.5</ele>
        <time>2021-08-09T12:16:46Z</time>
      </trkpt>
      <trkpt lat="47.84766" lon="6.9475">
        <ele>1052.6</ele>
        <time>2021-08-09T12:16:47Z</time>
      </trkpt>
      <trkpt lat="47.84767" lon="6.94747">
        <ele>1052.7</ele>
        <time>2021-08-09T12:16:49Z</time>
      </trkpt>
      <trkpt lat="47.84767" lon="6.94745">
        <ele>1052.8</ele>
        <time>2021-08-09T12:16:51Z</time>
      </trkpt>
      <trkpt lat="47.84767" lon="6.94744">
        <ele>1052.9</ele>
        <time>2021-08-09T12:16:52Z</time>
      </trkpt>
      <trkpt lat="47.84766" lon="6.94742">
        <ele>1052.9</ele>
        <time>2021-08-09T12:16:54Z</time>
      </trkpt>
      <trkpt lat="47.84766" lon="6.9474">
        <ele>1053</ele>
        <time>2021-08-09T12:16:55Z</time>
      </trkpt>
      <trkpt lat="47.84766" lon="6.94738">
        <ele>1053.1</ele>
        <time>2021-08-09T12:16:57Z</time>
      </trkpt>
      <trkpt lat="47.84766" lon="6.94734">
        <ele>1053.3</ele>
        <time>2021-08-09T12:16:59Z</time>
      </trkpt>
      <trkpt lat="47.84766" lon="6.9473">
        <ele>1053.4</ele>
        <time>2021-08-09T12:17:00Z</time>
      </trkpt>
      <trkpt lat="47.84767" lon="6.94729">
        <ele>1053.5</ele>
        <time>2021-08-09T12:17:01Z</time>
      </trkpt>
      <trkpt lat="47.84767" lon="6.94726">
        <ele>1053.6</ele>
        <time>2021-08-09T12:17:03Z</time>
      </trkpt>
      <trkpt lat="47.84767" lon="6.94725">
        <ele>1053.7</ele>
        <time>2021-08-09T12:17:04Z</time>
      </trkpt>
      <trkpt lat="47.84768" lon="6.94724">
        <ele>1053.7</ele>
        <time>2021-08-09T12:17:05Z</time>
      </trkpt>
      <trkpt lat="47.84767" lon="6.94721">
        <ele>1053.8</ele>
        <time>2021-08-09T12:17:07Z</time>
      </trkpt>
      <trkpt lat="47.84766" lon="6.94717">
        <ele>1054</ele>
        <time>2021-08-09T12:17:09Z</time>
      </trkpt>
      <trkpt lat="47.84765" lon="6.94715">
        <ele>1054.1</ele>
        <time>2021-08-09T12:17:10Z</time>
      </trkpt>
      <trkpt lat="47.84764" lon="6.9471">
        <ele>1054.3</ele>
        <time>2021-08-09T12:17:12Z</time>
      </trkpt>
      <trkpt lat="47.84764" lon="6.94705">
        <ele>1054.5</ele>
        <time>2021-08-09T12:17:13Z</time>
      </trkpt>
      <trkpt lat="47.84765" lon="6.94698">
        <ele>1054.8</ele>
        <time>2021-08-09T12:17:15Z</time>
      </trkpt>
      <trkpt lat="47.84765" lon="6.94693">
        <ele>1055.1</ele>
        <time>2021-08-09T12:17:16Z</time>
      </trkpt>
      <trkpt lat="47.84765" lon="6.94691">
        <ele>1055.2</ele>
        <time>2021-08-09T12:17:17Z</time>
      </trkpt>
      <trkpt lat="47.84765" lon="6.94689">
        <ele>1055.3</ele>
        <time>2021-08-09T12:17:19Z</time>
      </trkpt>
      <trkpt lat="47.84765" lon="6.94687">
        <ele>1055.4</ele>
        <time>2021-08-09T12:17:20Z</time>
      </trkpt>
      <trkpt lat="47.84765" lon="6.94686">
        <ele>1055.5</ele>
        <time>2021-08-09T12:17:21Z</time>
      </trkpt>
      <trkpt lat="47.84765" lon="6.94686">
        <ele>1055.5</ele>
        <time>2021-08-09T12:17:22Z</time>
      </trkpt>
      <trkpt lat="47.84765" lon="6.94685">
        <ele>1055.6</ele>
        <time>2021-08-09T12:17:24Z</time>
      </trkpt>
      <trkpt lat="47.84765" lon="6.94684">
        <ele>1055.6</ele>
        <time>2021-08-09T12:17:25Z</time>
      </trkpt>
      <trkpt lat="47.84861" lon="6.94385">
        <ele>1109.5</ele>
        <time>2021-08-09T12:27:33Z</time>
      </trkpt>
      <trkpt lat="47.84861" lon="6.94383">
        <ele>1109.6</ele>
        <time>2021-08-09T12:27:34Z</time>
      </trkpt>
      <trkpt lat="47.84861" lon="6.94382">
        <ele>1109.7</ele>
        <time>2021-08-09T12:27:35Z</time>
      </trkpt>
      <trkpt lat="47.84861" lon="6.94381">
        <ele>1109.7</ele>
        <time>2021-08-09T12:27:36Z</time>
      </trkpt>
      <trkpt lat="47.8486" lon="6.9438">
        <ele>1109.8</ele>
        <time>2021-08-09T12:27:37Z</time>
      </trkpt>
      <trkpt lat="47.8486" lon="6.94379">
        <ele>1109.9</ele>
        <time>2021-08-09T12:27:38Z</time>
      </trkpt>
      <trkpt lat="47.84859" lon="6.94379">
        <ele>1109.9</ele>
        <time>2021-08-09T12:27:39Z</time>
      </trkpt>
      <trkpt lat="47.84859" lon="6.94377">
        <ele>1110.1</ele>
        <time>2021-08-09T12:27:41Z</time>
      </trkpt>
      <trkpt lat="47.84858" lon="6.94377">
        <ele>1110.1</ele>
        <time>2021-08-09T12:27:42Z</time>
      </trkpt>
      <trkpt lat="47.84858" lon="6.94376">
        <ele>1110.1</ele>
        <time>2021-08-09T12:27:43Z</time>
      </trkpt>
      <trkpt lat="47.84858" lon="6.94376">
        <ele>1110.2</ele>
        <time>2021-08-09T12:27:45Z</time>
      </trkpt>
      <trkpt lat="47.84858" lon="6.94376">
        <ele>1110.2</ele>
        <time>2021-08-09T12:27:46Z</time>
      </trkpt>
      <trkpt lat="47.84858" lon="6.94376">
        <ele>1110.2</ele>
        <time>2021-08-09T12:27:48Z</time>
      </trkpt>
      <trkpt lat="47.84858" lon="6.94376">
        <ele>1110.2</ele>
        <time>2021-08-09T12:27:49Z</time>
      </trkpt>
      <trkpt lat="47.84858" lon="6.94376">
        <ele>1110.2</ele>
        <time>2021-08-09T12:27:50Z</time>
      </trkpt>
      <trkpt lat="47.84858" lon="6.94376">
        <ele>1110.2</ele>
        <time>2021-08-09T12:27:52Z</time>
      </trkpt>
      <trkpt lat="47.84858" lon="6.94376">
        <ele>1110.3</ele>
        <time>2021-08-09T12:27:54Z</time>
      </trkpt>
      <trkpt lat="47.84858" lon="6.94376">
        <ele>1110.3</ele>
        <time>2021-08-09T12:27:56Z</time>
      </trkpt>
      <trkpt lat="47.84858" lon="6.94376">
        <ele>1110.3</ele>
        <time>2021-08-09T12:27:57Z</time>
      </trkpt>
      <trkpt lat="47.84858" lon="6.94376">
        <ele>1110.3</ele>
        <time>2021-08-09T12:27:58Z</time>
      </trkpt>
      <trkpt lat="47.84857" lon="6.94376">
        <ele>1110.3</ele>
        <time>2021-08-09T12:28:00Z</time>
      </trkpt>
      <trkpt lat="47.84857" lon="6.94376">
        <ele>1110.3</ele>
        <time>2021-08-09T12:28:01Z</time>
      </trkpt>
      <trkpt lat="47.84863" lon="6.94372">
        <ele>1111</ele>
        <time>2021-08-09T12:28:03Z</time>
      </trkpt>
      <trkpt lat="47.84864" lon="6.9437">
        <ele>1111.2</ele>
        <time>2021-08-09T12:28:04Z</time>
      </trkpt>
      <trkpt lat="47.84863" lon="6.94366">
        <ele>1111.5</ele>
        <time>2021-08-09T12:28:06Z</time>
      </trkpt>
      <trkpt lat="47.84863" lon="6.94366">
        <ele>1111.6</ele>
        <time>2021-08-09T12:28:07Z</time>
      </trkpt>
      <trkpt lat="47.84862" lon="6.94365">
        <ele>1111.6</ele>
        <time>2021-08-09T12:28:08Z</time>
      </trkpt>
      <trkpt lat="47.84861" lon="6.94366">
        <ele>1111.8</ele>
        <time>2021-08-09T12:28:10Z</time>
      </trkpt>
      <trkpt lat="47.84861" lon="6.9437">
        <ele>1112.1</ele>
        <time>2021-08-09T12:28:12Z</time>
      </trkpt>
      <trkpt lat="47.8486" lon="6.94371">
        <ele>1112.2</ele>
        <time>2021-08-09T12:28:13Z</time>
      </trkpt>
      <trkpt lat="47.84861" lon="6.94373">
        <ele>1112.3</ele>
        <time>2021-08-09T12:28:14Z</time>
      </trkpt>
      <trkpt lat="47.84861" lon="6.94373">
        <ele>1112.3</ele>
        <time>2021-08-09T12:28:16Z</time>
      </trkpt>
      <trkpt lat="47.84862" lon="6.94372">
        <ele>1112.4</ele>
        <time>2021-08-09T12:28:18Z</time>
      </trkpt>
      <trkpt lat="47.84862" lon="6.94372">
        <ele>1112.4</ele>
        <time>2021-08-09T12:28:20Z</time>
      </trkpt>
      <trkpt lat="47.84862" lon="6.94372">
        <ele>1112.5</ele>
        <time>2021-08-09T12:28:21Z</time>
      </trkpt>
      <trkpt lat="47.84862" lon="6.94373">
        <ele>1112.5</ele>
        <time>2021-08-09T12:28:22Z</time>
      </trkpt>
      <trkpt lat="47.84862" lon="6.94373">
        <ele>1112.5</ele>
        <time>2021-08-09T12:28:23Z</time>
      </trkpt>
      <trkpt lat="47.84862" lon="6.94375">
        <ele>1112.6</ele>
        <time>2021-08-09T12:28:25Z</time>
      </trkpt>
      <trkpt lat="47.84861" lon="6.94377">
        <ele>1112.7</ele>
        <time>2021-08-09T12:28:26Z</time>
      </trkpt>
      <trkpt lat="47.84861" lon="6.94378">
        <ele>1112.8</ele>
        <time>2021-08-09T12:28:28Z</time>
      </trkpt>
      <trkpt lat="47.8486" lon="6.94379">
        <ele>1112.9</ele>
        <time>2021-08-09T12:28:29Z</time>
      </trkpt>
      <trkpt lat="47.8486" lon="6.9438">
        <ele>1112.9</ele>
        <time>2021-08-09T12:28:31Z</time>
      </trkpt>
      <trkpt lat="47.8486" lon="6.94381">
        <ele>1113</ele>
        <time>2021-08-09T12:28:33Z</time>
      </trkpt>
      <trkpt lat="47.8486" lon="6.94381">
        <ele>1113</ele>
        <time>2021-08-09T12:28:35Z</time>
      </trkpt>
      <trkpt lat="47.8486" lon="6.94381">
        <ele>1113.1</ele>
        <time>2021-08-09T12:28:36Z</time>
      </trkpt>
      <trkpt lat="47.8486" lon="6.94382">
        <ele>1113.1</ele>
        <time>2021-08-09T12:28:38Z</time>
      </trkpt>
      <trkpt lat="47.84859" lon="6.94382">
        <ele>1113.1</ele>
        <time>2021-08-09T12:28:40Z</time>
      </trkpt>
      <trkpt lat="47.84859" lon="6.94382">
        <ele>1113.1</ele>
        <time>2021-08-09T12:28:42Z</time>
      </trkpt>
      <trkpt lat="47.84859" lon="6.94381">
        <ele>1113.1</ele>
        <time>2021-08-09T12:28:44Z</time>
      </trkpt>
      <trkpt lat="47.8486" lon="6.94381">
        <ele>1113.2</ele>
        <time>2021-08-09T12:28:46Z</time>
      </trkpt>
      <trkpt lat="47.8486" lon="6.94381">
        <ele>1113.2</ele>
        <time>2021-08-09T12:28:47Z</time>
      </trkpt>
      <trkpt lat="47.84861" lon="6.94381">
        <ele>1113.3</ele>
        <time>2021-08-09T12:28:49Z</time>
      </trkpt>
      <trkpt lat="47.84861" lon="6.94381">
        <ele>1113.3</ele>
        <time>2021-08-09T12:28:50Z</time>
      </trkpt>
      <trkpt lat="47.84861" lon="6.94381">
        <ele>1113.3</ele>
        <time>2021-08-09T12:28:51Z</time>
      </trkpt>
      <trkpt lat="47.84862" lon="6.94381">
        <ele>1113.3</ele>
        <time>2021-08-09T12:28:52Z</time>
      </trkpt>
      <trkpt lat="47.84862" lon="6.94381">
        <ele>1113.3</ele>
        <time>2021-08-09T12:28:53Z</time>
      </trkpt>
      <trkpt lat="47.84862" lon="6.94379">
        <ele>1113.4</ele>
        <time>2021-08-09T12:28:55Z</time>
      </trkpt>
      <trkpt lat="47.84862" lon="6.94379">
        <ele>1113.4</ele>
        <time>2021-08-09T12:28:57Z</time>
      </trkpt>
      <trkpt lat="47.84862" lon="6.94379">
        <ele>1113.4</ele>
        <time>2021-08-09T12:28:58Z</time>
      </trkpt>
      <trkpt lat="47.84862" lon="6.94379">
        <ele>1113.4</ele>
        <time>2021-08-09T12:28:59Z</time>
      </trkpt>
      <trkpt lat="47.84862" lon="6.94379">
        <ele>1113.4</ele>
        <time>2021-08-09T12:29:01Z</time>
      </trkpt>
      <trkpt lat="47.84862" lon="6.94379">
        <ele>1113.4</ele>
        <time>2021-08-09T12:29:02Z</time>
      </trkpt>
      <trkpt lat="47.84862" lon="6.94379">
        <ele>1113.4</ele>
        <time>2021-08-09T12:29:03Z</time>
      </trkpt>
      <trkpt lat="47.84863" lon="6.94379">
        <ele>1113.5</ele>
        <time>2021-08-09T12:29:05Z</time>
      </trkpt>
      <trkpt lat="47.84863" lon="6.94378">
        <ele>1113.6</ele>
        <time>2021-08-09T12:29:06Z</time>
      </trkpt>
      <trkpt lat="47.84865" lon="6.94371">
        <ele>1114</ele>
        <time>2021-08-09T12:29:08Z</time>
      </trkpt>
      <trkpt lat="47.84865" lon="6.9437">
        <ele>1114</ele>
        <time>2021-08-09T12:29:09Z</time>
      </trkpt>
      <trkpt lat="47.84865" lon="6.94368">
        <ele>1114.1</ele>
        <time>2021-08-09T12:29:10Z</time>
      </trkpt>
      <trkpt lat="47.84865" lon="6.94366">
        <ele>1114.3</ele>
        <time>2021-08-09T12:29:11Z</time>
      </trkpt>
      <trkpt lat="47.84866" lon="6.94359">
        <ele>1114.7</ele>
        <time>2021-08-09T12:29:13Z</time>
      </trkpt>
      <trkpt lat="47.84868" lon="6.94353">
        <ele>1115.1</ele>
        <time>2021-08-09T12:29:14Z</time>
      </trkpt>
      <trkpt lat="47.84868" lon="6.94351">
        <ele>1115.2</ele>
        <time>2021-08-09T12:29:15Z</time>
      </trkpt>
      <trkpt lat="47.84868" lon="6.9435">
        <ele>1115.2</ele>
        <time>2021-08-09T12:29:16Z</time>
      </trkpt>
      <trkpt lat="47.84867" lon="6.94348">
        <ele>1115.4</ele>
        <time>2021-08-09T12:29:17Z</time>
      </trkpt>
      <trkpt lat="47.84867" lon="6.94347">
        <ele>1115.4</ele>
        <time>2021-08-09T12:29:19Z</time>
      </trkpt>
      <trkpt lat="47.84867" lon="6.94346">
        <ele>1115.5</ele>
        <time>2021-08-09T12:29:20Z</time>
      </trkpt>
      <trkpt lat="47.84867" lon="6.94346">
        <ele>1115.5</ele>
        <time>2021-08-09T12:29:21Z</time>
      </trkpt>
      <trkpt lat="47.84866" lon="6.94346">
        <ele>1115.5</ele>
        <time>2021-08-09T12:29:22Z</time>
      </trkpt>
      <trkpt lat="47.84866" lon="6.94345">
        <ele>1115.6</ele>
        <time>2021-08-09T12:29:24Z</time>
      </trkpt>
      <trkpt lat="47.84932" lon="6.94268">
        <ele>1121.1</ele>
        <time>2021-08-09T12:31:35Z</time>
      </trkpt>
      <trkpt lat="47.84943" lon="6.94258">
        <ele>1121.4</ele>
        <time>2021-08-09T12:31:37Z</time>
      </trkpt>
      <trkpt lat="47.84952" lon="6.94252">
        <ele>1121.7</ele>
        <time>2021-08-09T12:31:39Z</time>
      </trkpt>
      <trkpt lat="47.84953" lon="6.9425">
        <ele>1121.8</ele>
        <time>2021-08-09T12:31:40Z</time>
      </trkpt>
      <trkpt lat="47.84956" lon="6.94248">
        <ele>1121.9</ele>
        <time>2021-08-09T12:31:42Z</time>
      </trkpt>
      <trkpt lat="47.84958" lon="6.94247">
        <ele>1122.1</ele>
        <time>2021-08-09T12:31:43Z</time>
      </trkpt>
      <trkpt lat="47.84961" lon="6.94245">
        <ele>1122.4</ele>
        <time>2021-08-09T12:31:45Z</time>
      </trkpt>
      <trkpt lat="47.84964" lon="6.94242">
        <ele>1122.7</ele>
        <time>2021-08-09T12:31:46Z</time>
      </trkpt>
      <trkpt lat="47.84966" lon="6.9424">
        <ele>1123.1</ele>
        <time>2021-08-09T12:31:47Z</time>
      </trkpt>
      <trkpt lat="47.84971" lon="6.94233">
        <ele>1124.1</ele>
        <time>2021-08-09T12:31:49Z</time>
      </trkpt>
      <trkpt lat="47.84972" lon="6.94229">
        <ele>1124.5</ele>
        <time>2021-08-09T12:31:51Z</time>
      </trkpt>
      <trkpt lat="47.84972" lon="6.94229">
        <ele>1124.6</ele>
        <time>2021-08-09T12:31:52Z</time>
      </trkpt>
      <trkpt lat="47.84973" lon="6.94228">
        <ele>1124.7</ele>
        <time>2021-08-09T12:31:54Z</time>
      </trkpt>
      <trkpt lat="47.84973" lon="6.94228">
        <ele>1124.8</ele>
        <time>2021-08-09T12:31:56Z</time>
      </trkpt>
      <trkpt lat="47.84973" lon="6.94227">
        <ele>1124.9</ele>
        <time>2021-08-09T12:31:57Z</time>
      </trkpt>
      <trkpt lat="47.85149" lon="6.93963">
        <ele>1171</ele>
        <time>2021-08-09T12:42:16Z</time>
      </trkpt>
      <trkpt lat="47.85151" lon="6.9395">
        <ele>1171.6</ele>
        <time>2021-08-09T12:42:17Z</time>
      </trkpt>
      <trkpt lat="47.85151" lon="6.93943">
        <ele>1171.9</ele>
        <time>2021-08-09T12:42:18Z</time>
      </trkpt>
      <trkpt lat="47.85151" lon="6.93939">
        <ele>1172.1</ele>
        <time>2021-08-09T12:42:20Z</time>
      </trkpt>
      <trkpt lat="47.85151" lon="6.93934">
        <ele>1172.3</ele>
        <time>2021-08-09T12:42:21Z</time>
      </trkpt>
      <trkpt lat="47.85152" lon="6.93932">
        <ele>1172.4</ele>
        <time>2021-08-09T12:42:22Z</time>
      </trkpt>
      <trkpt lat="47.85152" lon="6.93929">
        <ele>1172.4</ele>
        <time>2021-08-09T12:42:23Z</time>
      </trkpt>
      <trkpt lat="47.85151" lon="6.93924">
        <ele>1172.6</ele>
        <time>2021-08-09T12:42:25Z</time>
      </trkpt>
      <trkpt lat="47.8515" lon="6.9392">
        <ele>1172.7</ele>
        <time>2021-08-09T12:42:26Z</time>
      </trkpt>
      <trkpt lat="47.85149" lon="6.93914">
        <ele>1172.9</ele>
        <time>2021-08-09T12:42:28Z</time>
      </trkpt>
      <trkpt lat="47.85146" lon="6.93909">
        <ele>1173.1</ele>
        <time>2021-08-09T12:42:29Z</time>
      </trkpt>
      <trkpt lat="47.85145" lon="6.93908">
        <ele>1173.2</ele>
        <time>2021-08-09T12:42:30Z</time>
      </trkpt>
      <trkpt lat="47.85143" lon="6.93906">
        <ele>1173.3</ele>
        <time>2021-08-09T12:42:32Z</time>
      </trkpt>
      <trkpt lat="47.85142" lon="6.93905">
        <ele>1173.4</ele>
        <time>2021-08-09T12:42:33Z</time>
      </trkpt>
      <trkpt lat="47.8514" lon="6.93901">
        <ele>1173.5</ele>
        <time>2021-08-09T12:42:34Z</time>
      </trkpt>
      <trkpt lat="47.85139" lon="6.939">
        <ele>1173.5</ele>
        <time>2021-08-09T12:42:35Z</time>
      </trkpt>
      <trkpt lat="47.85136" lon="6.93896">
        <ele>1173.6</ele>
        <time>2021-08-09T12:42:37Z</time>
      </trkpt>
      <trkpt lat="47.85135" lon="6.93895">
        <ele>1173.7</ele>
        <time>2021-08-09T12:42:38Z</time>
      </trkpt>
      <trkpt lat="47.85132" lon="6.93894">
        <ele>1173.8</ele>
        <time>2021-08-09T12:42:39Z</time>
      </trkpt>
      <trkpt lat="47.85128" lon="6.93891">
        <ele>1173.9</ele>
        <time>2021-08-09T12:42:41Z</time>
      </trkpt>
      <trkpt lat="47.85125" lon="6.93888">
        <ele>1174.1</ele>
        <time>2021-08-09T12:42:42Z</time>
      </trkpt>
      <trkpt lat="47.85124" lon="6.93885">
        <ele>1174.3</ele>
        <time>2021-08-09T12:42:43Z</time>
      </trkpt>
      <trkpt lat="47.85122" lon="6.9388">
        <ele>1174.5</ele>
        <time>2021-08-09T12:42:45Z</time>
      </trkpt>
      <trkpt lat="47.8512" lon="6.93876">
        <ele>1174.8</ele>
        <time>2021-08-09T12:42:46Z</time>
      </trkpt>
      <trkpt lat="47.85119" lon="6.93875">
        <ele>1174.9</ele>
        <time>2021-08-09T12:42:47Z</time>
      </trkpt>
      <trkpt lat="47.85119" lon="6.93874">
        <ele>1175</ele>
        <time>2021-08-09T12:42:48Z</time>
      </trkpt>
      <trkpt lat="47.85117" lon="6.93871">
        <ele>1175.2</ele>
        <time>2021-08-09T12:42:50Z</time>
      </trkpt>
      <trkpt lat="47.85117" lon="6.93871">
        <ele>1175.2</ele>
        <time>2021-08-09T12:42:51Z</time>
      </trkpt>
      <trkpt lat="47.85117" lon="6.93871">
        <ele>1175.3</ele>
        <time>2021-08-09T12:42:52Z</time>
      </trkpt>
      <trkpt lat="47.85117" lon="6.9387">
        <ele>1175.3</ele>
        <time>2021-08-09T12:42:53Z</time>
      </trkpt>
      <trkpt lat="47.85116" lon="6.93869">
        <ele>1175.3</ele>
        <time>2021-08-09T12:42:54Z</time>
      </trkpt>
      <trkpt lat="47.85116" lon="6.93869">
        <ele>1175.4</ele>
        <time>2021-08-09T12:42:55Z</time>
      </trkpt>
      <trkpt lat="47.85116" lon="6.93868">
        <ele>1175.4</ele>
        <time>2021-08-09T12:42:56Z</time>
      </trkpt>
      <trkpt lat="47.85116" lon="6.93867">
        <ele>1175.5</ele>
        <time>2021-08-09T12:42:58Z</time>
      </trkpt>
      <trkpt lat="47.85104" lon="6.93808">
        <ele>1178.9</ele>
        <time>2021-08-09T12:43:34Z</time>
      </trkpt>
      <trkpt lat="47.85103" lon="6.93804">
        <ele>1179</ele>
        <time>2021-08-09T12:43:35Z</time>
      </trkpt>
      <trkpt lat="47.85102" lon="6.93802">
        <ele>1179</ele>
        <time>2021-08-09T12:43:36Z</time>
      </trkpt>
      <trkpt lat="47.85101" lon="6.93802">
        <ele>1179</ele>
        <time>2021-08-09T12:43:38Z</time>
      </trkpt>
      <trkpt lat="47.851" lon="6.93801">
        <ele>1179.1</ele>
        <time>2021-08-09T12:43:40Z</time>
      </trkpt>
      <trkpt lat="47.851" lon="6.93801">
        <ele>1179.1</ele>
        <time>2021-08-09T12:43:41Z</time>
      </trkpt>
      <trkpt lat="47.85099" lon="6.93801">
        <ele>1179.1</ele>
        <time>2021-08-09T12:43:42Z</time>
      </trkpt>
      <trkpt lat="47.85099" lon="6.938">
        <ele>1179.1</ele>
        <time>2021-08-09T12:43:44Z</time>
      </trkpt>
      <trkpt lat="47.85099" lon="6.938">
        <ele>1179.1</ele>
        <time>2021-08-09T12:43:45Z</time>
      </trkpt>
      <trkpt lat="47.85083" lon="6.93769">
        <ele>1178.3</ele>
        <time>2021-08-09T12:45:12Z</time>
      </trkpt>
      <trkpt lat="47.85079" lon="6.93762">
        <ele>1178.1</ele>
        <time>2021-08-09T12:45:14Z</time>
      </trkpt>
      <trkpt lat="47.85077" lon="6.93755">
        <ele>1177.9</ele>
        <time>2021-08-09T12:45:15Z</time>
      </trkpt>
      <trkpt lat="47.85076" lon="6.93749">
        <ele>1177.8</ele>
        <time>2021-08-09T12:45:16Z</time>
      </trkpt>
      <trkpt lat="47.85075" lon="6.93744">
        <ele>1177.8</ele>
        <time>2021-08-09T12:45:17Z</time>
      </trkpt>
      <trkpt lat="47.85073" lon="6.93737">
        <ele>1177.6</ele>
        <time>2021-08-09T12:45:19Z</time>
      </trkpt>
      <trkpt lat="47.85072" lon="6.93732">
        <ele>1177.5</ele>
        <time>2021-08-09T12:45:20Z</time>
      </trkpt>
      <trkpt lat="47.8507" lon="6.93727">
        <ele>1177.5</ele>
        <time>2021-08-09T12:45:21Z</time>
      </trkpt>
      <trkpt lat="47.85069" lon="6.93722">
        <ele>1177.4</ele>
        <time>2021-08-09T12:45:22Z</time>
      </trkpt>
      <trkpt lat="47.85067" lon="6.93718">
        <ele>1177.3</ele>
        <time>2021-08-09T12:45:23Z</time>
      </trkpt>
      <trkpt lat="47.85065" lon="6.93712">
        <ele>1177.1</ele>
        <time>2021-08-09T12:45:24Z</time>
      </trkpt>
      <trkpt lat="47.85063" lon="6.93706">
        <ele>1177</ele>
        <time>2021-08-09T12:45:26Z</time>
      </trkpt>
      <trkpt lat="47.8506" lon="6.93701">
        <ele>1176.8</ele>
        <time>2021-08-09T12:45:27Z</time>
      </trkpt>
      <trkpt lat="47.85056" lon="6.93694">
        <ele>1176.5</ele>
        <time>2021-08-09T12:45:28Z</time>
      </trkpt>
      <trkpt lat="47.85054" lon="6.93689">
        <ele>1176.2</ele>
        <time>2021-08-09T12:45:29Z</time>
      </trkpt>
      <trkpt lat="47.85051" lon="6.93684">
        <ele>1175.9</ele>
        <time>2021-08-09T12:45:31Z</time>
      </trkpt>
      <trkpt lat="47.85047" lon="6.93677">
        <ele>1175.6</ele>
        <time>2021-08-09T12:45:32Z</time>
      </trkpt>
      <trkpt lat="47.85044" lon="6.93674">
        <ele>1175.4</ele>
        <time>2021-08-09T12:45:33Z</time>
      </trkpt>
      <trkpt lat="47.85042" lon="6.9367">
        <ele>1175.3</ele>
        <time>2021-08-09T12:45:34Z</time>
      </trkpt>
      <trkpt lat="47.8504" lon="6.93665">
        <ele>1175.3</ele>
        <time>2021-08-09T12:45:36Z</time>
      </trkpt>
      <trkpt lat="47.85038" lon="6.93662">
        <ele>1175.2</ele>
        <time>2021-08-09T12:45:38Z</time>
      </trkpt>
      <trkpt lat="47.85036" lon="6.93662">
        <ele>1175.2</ele>
        <time>2021-08-09T12:45:39Z</time>
      </trkpt>
      <trkpt lat="47.85035" lon="6.93661">
        <ele>1175.2</ele>
        <time>2021-08-09T12:45:41Z</time>
      </trkpt>
      <trkpt lat="47.85035" lon="6.93661">
        <ele>1175.2</ele>
        <time>2021-08-09T12:45:42Z</time>
      </trkpt>
      <trkpt lat="47.85034" lon="6.93658">
        <ele>1175.2</ele>
        <time>2021-08-09T12:45:44Z</time>
      </trkpt>
      <trkpt lat="47.85033" lon="6.93657">
        <ele>1175.2</ele>
        <time>2021-08-09T12:45:45Z</time>
      </trkpt>
      <trkpt lat="47.85033" lon="6.93655">
        <ele>1175.2</ele>
        <time>2021-08-09T12:45:46Z</time>
      </trkpt>
      <trkpt lat="47.85023" lon="6.93634">
        <ele>1175.8</ele>
        <time>2021-08-09T12:45:53Z</time>
      </trkpt>
      <trkpt lat="47.85021" lon="6.9363">
        <ele>1175.9</ele>
        <time>2021-08-09T12:45:55Z</time>
      </trkpt>
      <trkpt lat="47.85019" lon="6.93626">
        <ele>1175.9</ele>
        <time>2021-08-09T12:45:56Z</time>
      </trkpt>
      <trkpt lat="47.85017" lon="6.93621">
        <ele>1176</ele>
        <time>2021-08-09T12:45:57Z</time>
      </trkpt>
      <trkpt lat="47.85015" lon="6.93617">
        <ele>1176</ele>
        <time>2021-08-09T12:45:59Z</time>
      </trkpt>
      <trkpt lat="47.85012" lon="6.93612">
        <ele>1176</ele>
        <time>2021-08-09T12:46:00Z</time>
      </trkpt>
      <trkpt lat="47.85009" lon="6.93606">
        <ele>1175.9</ele>
        <time>2021-08-09T12:46:01Z</time>
      </trkpt>
      <trkpt lat="47.85005" lon="6.93601">
        <ele>1175.8</ele>
        <time>2021-08-09T12:46:03Z</time>
      </trkpt>
      <trkpt lat="47.84999" lon="6.93595">
        <ele>1175.8</ele>
        <time>2021-08-09T12:46:05Z</time>
      </trkpt>
      <trkpt lat="47.84995" lon="6.9359">
        <ele>1175.8</ele>
        <time>2021-08-09T12:46:06Z</time>
      </trkpt>
      <trkpt lat="47.84991" lon="6.93583">
        <ele>1176</ele>
        <time>2021-08-09T12:46:08Z</time>
      </trkpt>
      <trkpt lat="47.84987" lon="6.93577">
        <ele>1176.2</ele>
        <time>2021-08-09T12:46:09Z</time>
      </trkpt>
      <trkpt lat="47.84984" lon="6.93572">
        <ele>1176.5</ele>
        <time>2021-08-09T12:46:11Z</time>
      </trkpt>
      <trkpt lat="47.84982" lon="6.93568">
        <ele>1176.8</ele>
        <time>2021-08-09T12:46:12Z</time>
      </trkpt>
      <trkpt lat="47.84981" lon="6.93563">
        <ele>1177.1</ele>
        <time>2021-08-09T12:46:13Z</time>
      </trkpt>
      <trkpt lat="47.8498" lon="6.93561">
        <ele>1177.2</ele>
        <time>2021-08-09T12:46:14Z</time>
      </trkpt>
      <trkpt lat="47.84979" lon="6.93555">
        <ele>1177.6</ele>
        <time>2021-08-09T12:46:16Z</time>
      </trkpt>
      <trkpt lat="47.84978" lon="6.93551">
        <ele>1177.8</ele>
        <time>2021-08-09T12:46:17Z</time>
      </trkpt>
      <trkpt lat="47.84976" lon="6.93547">
        <ele>1178</ele>
        <time>2021-08-09T12:46:19Z</time>
      </trkpt>
      <trkpt lat="47.84975" lon="6.93545">
        <ele>1178.1</ele>
        <time>2021-08-09T12:46:20Z</time>
      </trkpt>
      <trkpt lat="47.84974" lon="6.9354">
        <ele>1178.2</ele>
        <time>2021-08-09T12:46:21Z</time>
      </trkpt>
      <trkpt lat="47.84973" lon="6.93538">
        <ele>1178.2</ele>
        <time>2021-08-09T12:46:22Z</time>
      </trkpt>
      <trkpt lat="47.84971" lon="6.93533">
        <ele>1178.1</ele>
        <time>2021-08-09T12:46:23Z</time>
      </trkpt>
      <trkpt lat="47.8497" lon="6.93531">
        <ele>1178</ele>
        <time>2021-08-09T12:46:24Z</time>
      </trkpt>
      <trkpt lat="47.84968" lon="6.93526">
        <ele>1177.8</ele>
        <time>2021-08-09T12:46:26Z</time>
      </trkpt>
      <trkpt lat="47.84963" lon="6.93521">
        <ele>1177.3</ele>
        <time>2021-08-09T12:46:27Z</time>
      </trkpt>
      <trkpt lat="47.8496" lon="6.93514">
        <ele>1176.7</ele>
        <time>2021-08-09T12:46:29Z</time>
      </trkpt>
      <trkpt lat="47.84955" lon="6.93501">
        <ele>1175.8</ele>
        <time>2021-08-09T12:46:31Z</time>
      </trkpt>
      <trkpt lat="47.84953" lon="6.93494">
        <ele>1175.5</ele>
        <time>2021-08-09T12:46:32Z</time>
      </trkpt>
      <trkpt lat="47.84949" lon="6.93486">
        <ele>1175.4</ele>
        <time>2021-08-09T12:46:34Z</time>
      </trkpt>
      <trkpt lat="47.84947" lon="6.93481">
        <ele>1175.4</ele>
        <time>2021-08-09T12:46:35Z</time>
      </trkpt>
      <trkpt lat="47.84945" lon="6.93477">
        <ele>1175.5</ele>
        <time>2021-08-09T12:46:36Z</time>
      </trkpt>
      <trkpt lat="47.84942" lon="6.93473">
        <ele>1175.6</ele>
        <time>2021-08-09T12:46:37Z</time>
      </trkpt>
      <trkpt lat="47.8494" lon="6.93469">
        <ele>1175.8</ele>
        <time>2021-08-09T12:46:38Z</time>
      </trkpt>
      <trkpt lat="47.84938" lon="6.93465">
        <ele>1176</ele>
        <time>2021-08-09T12:46:40Z</time>
      </trkpt>
      <trkpt lat="47.84936" lon="6.9346">
        <ele>1176.3</ele>
        <time>2021-08-09T12:46:41Z</time>
      </trkpt>
      <trkpt lat="47.84934" lon="6.93455">
        <ele>1176.5</ele>
        <time>2021-08-09T12:46:42Z</time>
      </trkpt>
      <trkpt lat="47.84932" lon="6.9345">
        <ele>1176.7</ele>
        <time>2021-08-09T12:46:44Z</time>
      </trkpt>
      <trkpt lat="47.84931" lon="6.93448">
        <ele>1176.8</ele>
        <time>2021-08-09T12:46:45Z</time>
      </trkpt>
      <trkpt lat="47.8493" lon="6.93446">
        <ele>1176.9</ele>
        <time>2021-08-09T12:46:46Z</time>
      </trkpt>
      <trkpt lat="47.8493" lon="6.93443">
        <ele>1177</ele>
        <time>2021-08-09T12:46:47Z</time>
      </trkpt>
      <trkpt lat="47.84929" lon="6.93439">
        <ele>1177.2</ele>
        <time>2021-08-09T12:46:49Z</time>
      </trkpt>
      <trkpt lat="47.84928" lon="6.93434">
        <ele>1177.3</ele>
        <time>2021-08-09T12:46:50Z</time>
      </trkpt>
      <trkpt lat="47.84925" lon="6.93428">
        <ele>1177.5</ele>
        <time>2021-08-09T12:46:51Z</time>
      </trkpt>
      <trkpt lat="47.84924" lon="6.93423">
        <ele>1177.7</ele>
        <time>2021-08-09T12:46:52Z</time>
      </trkpt>
      <trkpt lat="47.84922" lon="6.93418">
        <ele>1177.8</ele>
        <time>2021-08-09T12:46:54Z</time>
      </trkpt>
      <trkpt lat="47.84921" lon="6.93416">
        <ele>1177.8</ele>
        <time>2021-08-09T12:46:55Z</time>
      </trkpt>
      <trkpt lat="47.84921" lon="6.93414">
        <ele>1177.9</ele>
        <time>2021-08-09T12:46:56Z</time>
      </trkpt>
      <trkpt lat="47.84919" lon="6.93409">
        <ele>1177.9</ele>
        <time>2021-08-09T12:46:57Z</time>
      </trkpt>
      <trkpt lat="47.84919" lon="6.93407">
        <ele>1177.9</ele>
        <time>2021-08-09T12:46:58Z</time>
      </trkpt>
      <trkpt lat="47.84917" lon="6.93403">
        <ele>1177.9</ele>
        <time>2021-08-09T12:46:59Z</time>
      </trkpt>
      <trkpt lat="47.84916" lon="6.93398">
        <ele>1177.9</ele>
        <time>2021-08-09T12:47:01Z</time>
      </trkpt>
      <trkpt lat="47.84915" lon="6.93396">
        <ele>1177.9</ele>
        <time>2021-08-09T12:47:02Z</time>
      </trkpt>
      <trkpt lat="47.84915" lon="6.93393">
        <ele>1177.8</ele>
        <time>2021-08-09T12:47:03Z</time>
      </trkpt>
      <trkpt lat="47.84914" lon="6.93391">
        <ele>1177.8</ele>
        <time>2021-08-09T12:47:05Z</time>
      </trkpt>
      <trkpt lat="47.84914" lon="6.93389">
        <ele>1177.8</ele>
        <time>2021-08-09T12:47:06Z</time>
      </trkpt>
      <trkpt lat="47.84914" lon="6.93382">
        <ele>1177.6</ele>
        <time>2021-08-09T12:47:08Z</time>
      </trkpt>
      <trkpt lat="47.84914" lon="6.93377">
        <ele>1177.4</ele>
        <time>2021-08-09T12:47:09Z</time>
      </trkpt>
      <trkpt lat="47.84913" lon="6.9337">
        <ele>1177.1</ele>
        <time>2021-08-09T12:47:10Z</time>
      </trkpt>
      <trkpt lat="47.84912" lon="6.93365">
        <ele>1176.9</ele>
        <time>2021-08-09T12:47:12Z</time>
      </trkpt>
      <trkpt lat="47.84912" lon="6.93359">
        <ele>1176.7</ele>
        <time>2021-08-09T12:47:13Z</time>
      </trkpt>
      <trkpt lat="47.84911" lon="6.93354">
        <ele>1176.4</ele>
        <time>2021-08-09T12:47:14Z</time>
      </trkpt>
      <trkpt lat="47.84911" lon="6.93348">
        <ele>1176.2</ele>
        <time>2021-08-09T12:47:15Z</time>
      </trkpt>
      <trkpt lat="47.8491" lon="6.93343">
        <ele>1176</ele>
        <time>2021-08-09T12:47:17Z</time>
      </trkpt>
      <trkpt lat="47.84908" lon="6.93337">
        <ele>1175.7</ele>
        <time>2021-08-09T12:47:18Z</time>
      </trkpt>
      <trkpt lat="47.84906" lon="6.93331">
        <ele>1175.4</ele>
        <time>2021-08-09T12:47:19Z</time>
      </trkpt>
      <trkpt lat="47.84905" lon="6.93325">
        <ele>1175.2</ele>
        <time>2021-08-09T12:47:21Z</time>
      </trkpt>
      <trkpt lat="47.84902" lon="6.93316">
        <ele>1174.8</ele>
        <time>2021-08-09T12:47:22Z</time>
      </trkpt>
      <trkpt lat="47.849" lon="6.93309">
        <ele>1174.4</ele>
        <time>2021-08-09T12:47:24Z</time>
      </trkpt>
      <trkpt lat="47.84897" lon="6.93304">
        <ele>1174.2</ele>
        <time>2021-08-09T12:47:25Z</time>
      </trkpt>
      <trkpt lat="47.84894" lon="6.93296">
        <ele>1173.8</ele>
        <time>2021-08-09T12:47:26Z</time>
      </trkpt>
      <trkpt lat="47.84892" lon="6.93287">
        <ele>1173.4</ele>
        <time>2021-08-09T12:47:28Z</time>
      </trkpt>
      <trkpt lat="47.84889" lon="6.93276">
        <ele>1172.8</ele>
        <time>2021-08-09T12:47:29Z</time>
      </trkpt>
      <trkpt lat="47.84884" lon="6.93258">
        <ele>1171.7</ele>
        <time>2021-08-09T12:47:31Z</time>
      </trkpt>
      <trkpt lat="47.84882" lon="6.93249">
        <ele>1171.2</ele>
        <time>2021-08-09T12:47:32Z</time>
      </trkpt>
      <trkpt lat="47.8488" lon="6.93238">
        <ele>1170.5</ele>
        <time>2021-08-09T12:47:34Z</time>
      </trkpt>
      <trkpt lat="47.84879" lon="6.93232">
        <ele>1170</ele>
        <time>2021-08-09T12:47:36Z</time>
      </trkpt>
      <trkpt lat="47.84879" lon="6.9323">
        <ele>1169.9</ele>
        <time>2021-08-09T12:47:37Z</time>
      </trkpt>
      <trkpt lat="47.84878" lon="6.93226">
        <ele>1169.5</ele>
        <time>2021-08-09T12:47:38Z</time>
      </trkpt>
      <trkpt lat="47.84878" lon="6.93222">
        <ele>1169.2</ele>
        <time>2021-08-09T12:47:39Z</time>
      </trkpt>
      <trkpt lat="47.84877" lon="6.93216">
        <ele>1168.7</ele>
        <time>2021-08-09T12:47:41Z</time>
      </trkpt>
      <trkpt lat="47.84877" lon="6.93213">
        <ele>1168.5</ele>
        <time>2021-08-09T12:47:42Z</time>
      </trkpt>
      <trkpt lat="47.84878" lon="6.93159">
        <ele>1163</ele>
        <time>2021-08-09T12:47:57Z</time>
      </trkpt>
      <trkpt lat="47.84877" lon="6.93149">
        <ele>1161.8</ele>
        <time>2021-08-09T12:47:58Z</time>
      </trkpt>
      <trkpt lat="47.84875" lon="6.93136">
        <ele>1160.2</ele>
        <time>2021-08-09T12:47:59Z</time>
      </trkpt>
      <trkpt lat="47.84873" lon="6.93129">
        <ele>1159.3</ele>
        <time>2021-08-09T12:48:01Z</time>
      </trkpt>
      <trkpt lat="47.84872" lon="6.93125">
        <ele>1158.8</ele>
        <time>2021-08-09T12:48:02Z</time>
      </trkpt>
      <trkpt lat="47.84872" lon="6.93123">
        <ele>1158.6</ele>
        <time>2021-08-09T12:48:03Z</time>
      </trkpt>
      <trkpt lat="47.84871" lon="6.93123">
        <ele>1158.4</ele>
        <time>2021-08-09T12:48:04Z</time>
      </trkpt>
      <trkpt lat="47.8487" lon="6.93123">
        <ele>1158.3</ele>
        <time>2021-08-09T12:48:06Z</time>
      </trkpt>
      <trkpt lat="47.8487" lon="6.93124">
        <ele>1158.2</ele>
        <time>2021-08-09T12:48:07Z</time>
      </trkpt>
      <trkpt lat="47.8487" lon="6.93125">
        <ele>1158.1</ele>
        <time>2021-08-09T12:48:09Z</time>
      </trkpt>
      <trkpt lat="47.8487" lon="6.93125">
        <ele>1158</ele>
        <time>2021-08-09T12:48:11Z</time>
      </trkpt>
      <trkpt lat="47.84865" lon="6.93098">
        <ele>1154.8</ele>
        <time>2021-08-09T12:48:42Z</time>
      </trkpt>
      <trkpt lat="47.84863" lon="6.93094">
        <ele>1154.2</ele>
        <time>2021-08-09T12:48:43Z</time>
      </trkpt>
      <trkpt lat="47.84858" lon="6.93086">
        <ele>1153.1</ele>
        <time>2021-08-09T12:48:45Z</time>
      </trkpt>
      <trkpt lat="47.84856" lon="6.93081">
        <ele>1152.3</ele>
        <time>2021-08-09T12:48:46Z</time>
      </trkpt>
      <trkpt lat="47.84852" lon="6.93076">
        <ele>1151.5</ele>
        <time>2021-08-09T12:48:47Z</time>
      </trkpt>
      <trkpt lat="47.84847" lon="6.93068">
        <ele>1150.2</ele>
        <time>2021-08-09T12:48:48Z</time>
      </trkpt>
      <trkpt lat="47.84843" lon="6.93061">
        <ele>1149.3</ele>
        <time>2021-08-09T12:48:50Z</time>
      </trkpt>
      <trkpt lat="47.8484" lon="6.93054">
        <ele>1148.3</ele>
        <time>2021-08-09T12:48:51Z</time>
      </trkpt>
      <trkpt lat="47.84838" lon="6.93047">
        <ele>1147.4</ele>
        <time>2021-08-09T12:48:53Z</time>
      </trkpt>
      <trkpt lat="47.84836" lon="6.93041">
        <ele>1146.5</ele>
        <time>2021-08-09T12:48:54Z</time>
      </trkpt>
      <trkpt lat="47.84833" lon="6.93034">
        <ele>1145.4</ele>
        <time>2021-08-09T12:48:56Z</time>
      </trkpt>
      <trkpt lat="47.84831" lon="6.93028">
        <ele>1144.7</ele>
        <time>2021-08-09T12:48:57Z</time>
      </trkpt>
      <trkpt lat="47.8483" lon="6.93024">
        <ele>1144.1</ele>
        <time>2021-08-09T12:48:58Z</time>
      </trkpt>
      <trkpt lat="47.8483" lon="6.9302">
        <ele>1143.6</ele>
        <time>2021-08-09T12:48:59Z</time>
      </trkpt>
      <trkpt lat="47.84829" lon="6.93016">
        <ele>1142.9</ele>
        <time>2021-08-09T12:49:01Z</time>
      </trkpt>
      <trkpt lat="47.8483" lon="6.93012">
        <ele>1142.2</ele>
        <time>2021-08-09T12:49:02Z</time>
      </trkpt>
      <trkpt lat="47.84831" lon="6.93008">
        <ele>1141.4</ele>
        <time>2021-08-09T12:49:03Z</time>
      </trkpt>
      <trkpt lat="47.84832" lon="6.93003">
        <ele>1140.5</ele>
        <time>2021-08-09T12:49:04Z</time>
      </trkpt>
      <trkpt lat="47.84833" lon="6.92999">
        <ele>1139.8</ele>
        <time>2021-08-09T12:49:05Z</time>
      </trkpt>
      <trkpt lat="47.84835" lon="6.92994">
        <ele>1138.7</ele>
        <time>2021-08-09T12:49:07Z</time>
      </trkpt>
      <trkpt lat="47.84837" lon="6.92988">
        <ele>1137.8</ele>
        <time>2021-08-09T12:49:08Z</time>
      </trkpt>
      <trkpt lat="47.84837" lon="6.92984">
        <ele>1137</ele>
        <time>2021-08-09T12:49:09Z</time>
      </trkpt>
      <trkpt lat="47.84839" lon="6.92979">
        <ele>1136.1</ele>
        <time>2021-08-09T12:49:11Z</time>
      </trkpt>
      <trkpt lat="47.84839" lon="6.92978">
        <ele>1135.9</ele>
        <time>2021-08-09T12:49:12Z</time>
      </trkpt>
      <trkpt lat="47.8484" lon="6.92974">
        <ele>1135.1</ele>
        <time>2021-08-09T12:49:13Z</time>
      </trkpt>
      <trkpt lat="47.8484" lon="6.92972">
        <ele>1134.8</ele>
        <time>2021-08-09T12:49:14Z</time>
      </trkpt>
      <trkpt lat="47.8484" lon="6.92967">
        <ele>1134</ele>
        <time>2021-08-09T12:49:16Z</time>
      </trkpt>
      <trkpt lat="47.84841" lon="6.92966">
        <ele>1133.7</ele>
        <time>2021-08-09T12:49:17Z</time>
      </trkpt>
      <trkpt lat="47.84843" lon="6.92959">
        <ele>1132.5</ele>
        <time>2021-08-09T12:49:19Z</time>
      </trkpt>
      <trkpt lat="47.84844" lon="6.92956">
        <ele>1131.9</ele>
        <time>2021-08-09T12:49:20Z</time>
      </trkpt>
      <trkpt lat="47.84844" lon="6.9295">
        <ele>1130.9</ele>
        <time>2021-08-09T12:49:22Z</time>
      </trkpt>
      <trkpt lat="47.84845" lon="6.92945">
        <ele>1130</ele>
        <time>2021-08-09T12:49:23Z</time>
      </trkpt>
      <trkpt lat="47.84846" lon="6.92937">
        <ele>1128.9</ele>
        <time>2021-08-09T12:49:24Z</time>
      </trkpt>
      <trkpt lat="47.84846" lon="6.9293">
        <ele>1127.9</ele>
        <time>2021-08-09T12:49:26Z</time>
      </trkpt>
      <trkpt lat="47.84846" lon="6.92923">
        <ele>1126.9</ele>
        <time>2021-08-09T12:49:27Z</time>
      </trkpt>
      <trkpt lat="47.84847" lon="6.92915">
        <ele>1125.9</ele>
        <time>2021-08-09T12:49:28Z</time>
      </trkpt>
      <trkpt lat="47.84851" lon="6.92897">
        <ele>1123.8</ele>
        <time>2021-08-09T12:49:30Z</time>
      </trkpt>
      <trkpt lat="47.84855" lon="6.92881">
        <ele>1121.8</ele>
        <time>2021-08-09T12:49:32Z</time>
      </trkpt>
      <trkpt lat="47.84857" lon="6.92868">
        <ele>1120.3</ele>
        <time>2021-08-09T12:49:34Z</time>
      </trkpt>
      <trkpt lat="47.84857" lon="6.92861">
        <ele>1119.4</ele>
        <time>2021-08-09T12:49:35Z</time>
      </trkpt>
      <trkpt lat="47.84857" lon="6.92853">
        <ele>1118.5</ele>
        <time>2021-08-09T12:49:36Z</time>
      </trkpt>
      <trkpt lat="47.84855" lon="6.92847">
        <ele>1117.6</ele>
        <time>2021-08-09T12:49:37Z</time>
      </trkpt>
      <trkpt lat="47.84854" lon="6.9284">
        <ele>1116.7</ele>
        <time>2021-08-09T12:49:39Z</time>
      </trkpt>
      <trkpt lat="47.84854" lon="6.92835">
        <ele>1116.1</ele>
        <time>2021-08-09T12:49:40Z</time>
      </trkpt>
      <trkpt lat="47.84854" lon="6.92833">
        <ele>1115.9</ele>
        <time>2021-08-09T12:49:41Z</time>
      </trkpt>
      <trkpt lat="47.84855" lon="6.92832">
        <ele>1115.7</ele>
        <time>2021-08-09T12:49:43Z</time>
      </trkpt>
      <trkpt lat="47.84855" lon="6.92831">
        <ele>1115.6</ele>
        <time>2021-08-09T12:49:44Z</time>
      </trkpt>
      <trkpt lat="47.84854" lon="6.9283">
        <ele>1115.5</ele>
        <time>2021-08-09T12:49:46Z</time>
      </trkpt>
      <trkpt lat="47.84853" lon="6.92829">
        <ele>1115.3</ele>
        <time>2021-08-09T12:49:47Z</time>
      </trkpt>
      <trkpt lat="47.84852" lon="6.92824">
        <ele>1114.7</ele>
        <time>2021-08-09T12:49:49Z</time>
      </trkpt>
      <trkpt lat="47.84851" lon="6.92823">
        <ele>1114.5</ele>
        <time>2021-08-09T12:49:50Z</time>
      </trkpt>
      <trkpt lat="47.84851" lon="6.92819">
        <ele>1114.1</ele>
        <time>2021-08-09T12:49:52Z</time>
      </trkpt>
      <trkpt lat="47.8485" lon="6.92814">
        <ele>1113.5</ele>
        <time>2021-08-09T12:49:53Z</time>
      </trkpt>
      <trkpt lat="47.84849" lon="6.9281">
        <ele>1113.1</ele>
        <time>2021-08-09T12:49:54Z</time>
      </trkpt>
      <trkpt lat="47.84848" lon="6.92803">
        <ele>1112.5</ele>
        <time>2021-08-09T12:49:55Z</time>
      </trkpt>
      <trkpt lat="47.84848" lon="6.928">
        <ele>1112.2</ele>
        <time>2021-08-09T12:49:56Z</time>
      </trkpt>
      <trkpt lat="47.84849" lon="6.92795">
        <ele>1111.7</ele>
        <time>2021-08-09T12:49:58Z</time>
      </trkpt>
      <trkpt lat="47.84849" lon="6.92788">
        <ele>1111.2</ele>
        <time>2021-08-09T12:49:59Z</time>
      </trkpt>
      <trkpt lat="47.8485" lon="6.92781">
        <ele>1110.5</ele>
        <time>2021-08-09T12:50:00Z</time>
      </trkpt>
      <trkpt lat="47.84853" lon="6.92774">
        <ele>1109.8</ele>
        <time>2021-08-09T12:50:01Z</time>
      </trkpt>
      <trkpt lat="47.84854" lon="6.92764">
        <ele>1109</ele>
        <time>2021-08-09T12:50:02Z</time>
      </trkpt>
      <trkpt lat="47.84854" lon="6.92759">
        <ele>1108.5</ele>
        <time>2021-08-09T12:50:04Z</time>
      </trkpt>
      <trkpt lat="47.84855" lon="6.92752">
        <ele>1107.9</ele>
        <time>2021-08-09T12:50:05Z</time>
      </trkpt>
      <trkpt lat="47.84855" lon="6.92747">
        <ele>1107.5</ele>
        <time>2021-08-09T12:50:06Z</time>
      </trkpt>
      <trkpt lat="47.84855" lon="6.92742">
        <ele>1107.1</ele>
        <time>2021-08-09T12:50:08Z</time>
      </trkpt>
      <trkpt lat="47.84857" lon="6.92742">
        <ele>1106.8</ele>
        <time>2021-08-09T12:50:10Z</time>
      </trkpt>
      <trkpt lat="47.84858" lon="6.92743">
        <ele>1106.7</ele>
        <time>2021-08-09T12:50:11Z</time>
      </trkpt>
      <trkpt lat="47.84858" lon="6.92742">
        <ele>1106.7</ele>
        <time>2021-08-09T12:50:12Z</time>
      </trkpt>
      <trkpt lat="47.84858" lon="6.92742">
        <ele>1106.7</ele>
        <time>2021-08-09T12:50:14Z</time>
      </trkpt>
      <trkpt lat="47.84858" lon="6.92742">
        <ele>1106.7</ele>
        <time>2021-08-09T12:50:15Z</time>
      </trkpt>
      <trkpt lat="47.84858" lon="6.92742">
        <ele>1106.6</ele>
        <time>2021-08-09T12:50:16Z</time>
      </trkpt>
      <trkpt lat="47.84858" lon="6.92721">
        <ele>1104.7</ele>
        <time>2021-08-09T12:50:23Z</time>
      </trkpt>
      <trkpt lat="47.84856" lon="6.9271">
        <ele>1103.7</ele>
        <time>2021-08-09T12:50:25Z</time>
      </trkpt>
      <trkpt lat="47.84857" lon="6.92697">
        <ele>1102.5</ele>
        <time>2021-08-09T12:50:26Z</time>
      </trkpt>
      <trkpt lat="47.84859" lon="6.92685">
        <ele>1101.5</ele>
        <time>2021-08-09T12:50:27Z</time>
      </trkpt>
      <trkpt lat="47.84861" lon="6.92676">
        <ele>1100.8</ele>
        <time>2021-08-09T12:50:29Z</time>
      </trkpt>
      <trkpt lat="47.84861" lon="6.92666">
        <ele>1100.3</ele>
        <time>2021-08-09T12:50:30Z</time>
      </trkpt>
      <trkpt lat="47.84861" lon="6.92653">
        <ele>1099.7</ele>
        <time>2021-08-09T12:50:32Z</time>
      </trkpt>
      <trkpt lat="47.8486" lon="6.92643">
        <ele>1099.2</ele>
        <time>2021-08-09T12:50:33Z</time>
      </trkpt>
      <trkpt lat="47.8486" lon="6.92637">
        <ele>1098.8</ele>
        <time>2021-08-09T12:50:34Z</time>
      </trkpt>
      <trkpt lat="47.84859" lon="6.92632">
        <ele>1098.5</ele>
        <time>2021-08-09T12:50:35Z</time>
      </trkpt>
      <trkpt lat="47.84858" lon="6.92628">
        <ele>1098.1</ele>
        <time>2021-08-09T12:50:36Z</time>
      </trkpt>
      <trkpt lat="47.84856" lon="6.92621">
        <ele>1097.6</ele>
        <time>2021-08-09T12:50:38Z</time>
      </trkpt>
      <trkpt lat="47.84855" lon="6.92619">
        <ele>1097.4</ele>
        <time>2021-08-09T12:50:39Z</time>
      </trkpt>
      <trkpt lat="47.84854" lon="6.92617">
        <ele>1097.2</ele>
        <time>2021-08-09T12:50:40Z</time>
      </trkpt>
      <trkpt lat="47.84853" lon="6.92615">
        <ele>1097</ele>
        <time>2021-08-09T12:50:41Z</time>
      </trkpt>
      <trkpt lat="47.84853" lon="6.92613">
        <ele>1096.8</ele>
        <time>2021-08-09T12:50:43Z</time>
      </trkpt>
      <trkpt lat="47.84852" lon="6.92611">
        <ele>1096.7</ele>
        <time>2021-08-09T12:50:44Z</time>
      </trkpt>
      <trkpt lat="47.84852" lon="6.92609">
        <ele>1096.5</ele>
        <time>2021-08-09T12:50:45Z</time>
      </trkpt>
      <trkpt lat="47.84852" lon="6.92607">
        <ele>1096.2</ele>
        <time>2021-08-09T12:50:47Z</time>
      </trkpt>
      <trkpt lat="47.84851" lon="6.92602">
        <ele>1095.8</ele>
        <time>2021-08-09T12:50:49Z</time>
      </trkpt>
      <trkpt lat="47.84851" lon="6.92601">
        <ele>1095.6</ele>
        <time>2021-08-09T12:50:50Z</time>
      </trkpt>
      <trkpt lat="47.8485" lon="6.92598">
        <ele>1095.4</ele>
        <time>2021-08-09T12:50:51Z</time>
      </trkpt>
      <trkpt lat="47.84849" lon="6.92594">
        <ele>1094.9</ele>
        <time>2021-08-09T12:50:52Z</time>
      </trkpt>
      <trkpt lat="47.84848" lon="6.92593">
        <ele>1094.8</ele>
        <time>2021-08-09T12:50:53Z</time>
      </trkpt>
      <trkpt lat="47.84845" lon="6.9259">
        <ele>1094.2</ele>
        <time>2021-08-09T12:50:55Z</time>
      </trkpt>
      <trkpt lat="47.84844" lon="6.92588">
        <ele>1093.9</ele>
        <time>2021-08-09T12:50:56Z</time>
      </trkpt>
      <trkpt lat="47.84843" lon="6.92587">
        <ele>1093.7</ele>
        <time>2021-08-09T12:50:57Z</time>
      </trkpt>
      <trkpt lat="47.84842" lon="6.92585">
        <ele>1093.4</ele>
        <time>2021-08-09T12:50:58Z</time>
      </trkpt>
      <trkpt lat="47.84841" lon="6.92583">
        <ele>1093.2</ele>
        <time>2021-08-09T12:50:59Z</time>
      </trkpt>
      <trkpt lat="47.8484" lon="6.92583">
        <ele>1093</ele>
        <time>2021-08-09T12:51:00Z</time>
      </trkpt>
      <trkpt lat="47.84841" lon="6.9258">
        <ele>1092.8</ele>
        <time>2021-08-09T12:51:02Z</time>
      </trkpt>
      <trkpt lat="47.84841" lon="6.92579">
        <ele>1092.6</ele>
        <time>2021-08-09T12:51:03Z</time>
      </trkpt>
      <trkpt lat="47.8484" lon="6.92578">
        <ele>1092.4</ele>
        <time>2021-08-09T12:51:05Z</time>
      </trkpt>
      <trkpt lat="47.84839" lon="6.92577">
        <ele>1092.2</ele>
        <time>2021-08-09T12:51:07Z</time>
      </trkpt>
      <trkpt lat="47.84839" lon="6.92577">
        <ele>1092.2</ele>
        <time>2021-08-09T12:51:08Z</time>
      </trkpt>
      <trkpt lat="47.84839" lon="6.92576">
        <ele>1092.1</ele>
        <time>2021-08-09T12:51:09Z</time>
      </trkpt>
      <trkpt lat="47.84857" lon="6.92478">
        <ele>1076.1</ele>
        <time>2021-08-09T12:53:09Z</time>
      </trkpt>
      <trkpt lat="47.84857" lon="6.92473">
        <ele>1075.4</ele>
        <time>2021-08-09T12:53:10Z</time>
      </trkpt>
      <trkpt lat="47.84857" lon="6.92467">
        <ele>1075</ele>
        <time>2021-08-09T12:53:11Z</time>
      </trkpt>
      <trkpt lat="47.84857" lon="6.92463">
        <ele>1074.7</ele>
        <time>2021-08-09T12:53:13Z</time>
      </trkpt>
      <trkpt lat="47.84856" lon="6.92458">
        <ele>1074.9</ele>
        <time>2021-08-09T12:53:14Z</time>
      </trkpt>
      <trkpt lat="47.84858" lon="6.92453">
        <ele>1075</ele>
        <time>2021-08-09T12:53:16Z</time>
      </trkpt>
      <trkpt lat="47.84858" lon="6.92451">
        <ele>1075</ele>
        <time>2021-08-09T12:53:17Z</time>
      </trkpt>
      <trkpt lat="47.84859" lon="6.92446">
        <ele>1075.1</ele>
        <time>2021-08-09T12:53:18Z</time>
      </trkpt>
      <trkpt lat="47.84859" lon="6.92443">
        <ele>1075.2</ele>
        <time>2021-08-09T12:53:20Z</time>
      </trkpt>
      <trkpt lat="47.8486" lon="6.9244">
        <ele>1075.3</ele>
        <time>2021-08-09T12:53:21Z</time>
      </trkpt>
      <trkpt lat="47.8486" lon="6.92438">
        <ele>1075.3</ele>
        <time>2021-08-09T12:53:22Z</time>
      </trkpt>
      <trkpt lat="47.8486" lon="6.92433">
        <ele>1075.5</ele>
        <time>2021-08-09T12:53:24Z</time>
      </trkpt>
      <trkpt lat="47.8486" lon="6.92431">
        <ele>1075.5</ele>
        <time>2021-08-09T12:53:25Z</time>
      </trkpt>
      <trkpt lat="47.8486" lon="6.92426">
        <ele>1075.7</ele>
        <time>2021-08-09T12:53:26Z</time>
      </trkpt>
      <trkpt lat="47.8486" lon="6.92424">
        <ele>1075.8</ele>
        <time>2021-08-09T12:53:27Z</time>
      </trkpt>
      <trkpt lat="47.8486" lon="6.92419">
        <ele>1075.9</ele>
        <time>2021-08-09T12:53:28Z</time>
      </trkpt>
      <trkpt lat="47.8486" lon="6.92414">
        <ele>1076.1</ele>
        <time>2021-08-09T12:53:30Z</time>
      </trkpt>
      <trkpt lat="47.84862" lon="6.9241">
        <ele>1076.3</ele>
        <time>2021-08-09T12:53:31Z</time>
      </trkpt>
      <trkpt lat="47.84863" lon="6.92406">
        <ele>1076.4</ele>
        <time>2021-08-09T12:53:32Z</time>
      </trkpt>
      <trkpt lat="47.84866" lon="6.92401">
        <ele>1076.7</ele>
        <time>2021-08-09T12:53:34Z</time>
      </trkpt>
      <trkpt lat="47.84867" lon="6.924">
        <ele>1076.8</ele>
        <time>2021-08-09T12:53:35Z</time>
      </trkpt>
      <trkpt lat="47.84868" lon="6.92398">
        <ele>1076.8</ele>
        <time>2021-08-09T12:53:36Z</time>
      </trkpt>
      <trkpt lat="47.84869" lon="6.92397">
        <ele>1076.9</ele>
        <time>2021-08-09T12:53:38Z</time>
      </trkpt>
      <trkpt lat="47.8487" lon="6.92396">
        <ele>1077</ele>
        <time>2021-08-09T12:53:39Z</time>
      </trkpt>
      <trkpt lat="47.84871" lon="6.92395">
        <ele>1077</ele>
        <time>2021-08-09T12:53:40Z</time>
      </trkpt>
      <trkpt lat="47.84873" lon="6.92394">
        <ele>1077.1</ele>
        <time>2021-08-09T12:53:41Z</time>
      </trkpt>
      <trkpt lat="47.84874" lon="6.92392">
        <ele>1077.2</ele>
        <time>2021-08-09T12:53:42Z</time>
      </trkpt>
      <trkpt lat="47.84876" lon="6.92391">
        <ele>1077.3</ele>
        <time>2021-08-09T12:53:43Z</time>
      </trkpt>
      <trkpt lat="47.84877" lon="6.9239">
        <ele>1077.4</ele>
        <time>2021-08-09T12:53:45Z</time>
      </trkpt>
      <trkpt lat="47.84878" lon="6.92389">
        <ele>1077.4</ele>
        <time>2021-08-09T12:53:46Z</time>
      </trkpt>
      <trkpt lat="47.84879" lon="6.92388">
        <ele>1077.5</ele>
        <time>2021-08-09T12:53:48Z</time>
      </trkpt>
      <trkpt lat="47.8488" lon="6.92387">
        <ele>1077.6</ele>
        <time>2021-08-09T12:53:49Z</time>
      </trkpt>
      <trkpt lat="47.84881" lon="6.92387">
        <ele>1077.6</ele>
        <time>2021-08-09T12:53:50Z</time>
      </trkpt>
      <trkpt lat="47.84883" lon="6.92385">
        <ele>1077.8</ele>
        <time>2021-08-09T12:53:51Z</time>
      </trkpt>
      <trkpt lat="47.84885" lon="6.92384">
        <ele>1077.9</ele>
        <time>2021-08-09T12:53:53Z</time>
      </trkpt>
      <trkpt lat="47.84909" lon="6.92194">
        <ele>1092.5</ele>
        <time>2021-08-09T12:58:22Z</time>
      </trkpt>
      <trkpt lat="47.84904" lon="6.92194">
        <ele>1092.7</ele>
        <time>2021-08-09T12:58:24Z</time>
      </trkpt>
      <trkpt lat="47.849" lon="6.92195">
        <ele>1092.8</ele>
        <time>2021-08-09T12:58:25Z</time>
      </trkpt>
      <trkpt lat="47.84899" lon="6.92196">
        <ele>1092.8</ele>
        <time>2021-08-09T12:58:26Z</time>
      </trkpt>
      <trkpt lat="47.84894" lon="6.92202">
        <ele>1093.1</ele>
        <time>2021-08-09T12:58:28Z</time>
      </trkpt>
      <trkpt lat="47.84893" lon="6.92213">
        <ele>1093.4</ele>
        <time>2021-08-09T12:58:30Z</time>
      </trkpt>
      <trkpt lat="47.84895" lon="6.9222">
        <ele>1093.5</ele>
        <time>2021-08-09T12:58:32Z</time>
      </trkpt>
      <trkpt lat="47.84896" lon="6.9222">
        <ele>1093.6</ele>
        <time>2021-08-09T12:58:33Z</time>
      </trkpt>
      <trkpt lat="47.849" lon="6.92221">
        <ele>1093.8</ele>
        <time>2021-08-09T12:58:35Z</time>
      </trkpt>
      <trkpt lat="47.849" lon="6.92221">
        <ele>1093.8</ele>
        <time>2021-08-09T12:58:36Z</time>
      </trkpt>
      <trkpt lat="47.849" lon="6.92221">
        <ele>1093.8</ele>
        <time>2021-08-09T12:58:37Z</time>
      </trkpt>
      <trkpt lat="47.84901" lon="6.92222">
        <ele>1093.8</ele>
        <time>2021-08-09T12:58:39Z</time>
      </trkpt>
      <trkpt lat="47.84901" lon="6.92222">
        <ele>1093.9</ele>
        <time>2021-08-09T12:58:40Z</time>
      </trkpt>
      <trkpt lat="47.84901" lon="6.92222">
        <ele>1093.9</ele>
        <time>2021-08-09T12:58:41Z</time>
      </trkpt>
      <trkpt lat="47.84907" lon="6.92227">
        <ele>1094.2</ele>
        <time>2021-08-09T12:58:43Z</time>
      </trkpt>
      <trkpt lat="47.84909" lon="6.92229">
        <ele>1094.3</ele>
        <time>2021-08-09T12:58:45Z</time>
      </trkpt>
      <trkpt lat="47.8491" lon="6.9223">
        <ele>1094.4</ele>
        <time>2021-08-09T12:58:46Z</time>
      </trkpt>
      <trkpt lat="47.8491" lon="6.9223">
        <ele>1094.4</ele>
        <time>2021-08-09T12:58:48Z</time>
      </trkpt>
      <trkpt lat="47.8491" lon="6.9223">
        <ele>1094.5</ele>
        <time>2021-08-09T12:58:50Z</time>
      </trkpt>
      <trkpt lat="47.8491" lon="6.9223">
        <ele>1094.5</ele>
        <time>2021-08-09T12:58:51Z</time>
      </trkpt>
      <trkpt lat="47.8491" lon="6.9223">
        <ele>1094.5</ele>
        <time>2021-08-09T12:58:52Z</time>
      </trkpt>
      <trkpt lat="47.8491" lon="6.9223">
        <ele>1094.5</ele>
        <time>2021-08-09T12:58:53Z</time>
      </trkpt>
      <trkpt lat="47.8491" lon="6.9223">
        <ele>1094.6</ele>
        <time>2021-08-09T12:58:55Z</time>
      </trkpt>
      <trkpt lat="47.8491" lon="6.9223">
        <ele>1094.6</ele>
        <time>2021-08-09T12:58:56Z</time>
      </trkpt>
      <trkpt lat="47.8491" lon="6.9223">
        <ele>1094.6</ele>
        <time>2021-08-09T12:58:58Z</time>
      </trkpt>
      <trkpt lat="47.8491" lon="6.9223">
        <ele>1094.6</ele>
        <time>2021-08-09T12:59:00Z</time>
      </trkpt>
      <trkpt lat="47.8491" lon="6.9223">
        <ele>1094.7</ele>
        <time>2021-08-09T12:59:01Z</time>
      </trkpt>
      <trkpt lat="47.8491" lon="6.9223">
        <ele>1094.7</ele>
        <time>2021-08-09T12:59:02Z</time>
      </trkpt>
      <trkpt lat="47.8491" lon="6.9223">
        <ele>1094.7</ele>
        <time>2021-08-09T12:59:04Z</time>
      </trkpt>
      <trkpt lat="47.8491" lon="6.9223">
        <ele>1094.7</ele>
        <time>2021-08-09T12:59:06Z</time>
      </trkpt>
      <trkpt lat="47.8491" lon="6.9223">
        <ele>1094.8</ele>
        <time>2021-08-09T12:59:08Z</time>
      </trkpt>
      <trkpt lat="47.8491" lon="6.9223">
        <ele>1094.8</ele>
        <time>2021-08-09T12:59:10Z</time>
      </trkpt>
      <trkpt lat="47.8491" lon="6.9223">
        <ele>1094.8</ele>
        <time>2021-08-09T12:59:11Z</time>
      </trkpt>
      <trkpt lat="47.8491" lon="6.9223">
        <ele>1094.8</ele>
        <time>2021-08-09T12:59:12Z</time>
      </trkpt>
      <trkpt lat="47.8491" lon="6.9223">
        <ele>1094.9</ele>
        <time>2021-08-09T12:59:14Z</time>
      </trkpt>
      <trkpt lat="47.8491" lon="6.9223">
        <ele>1094.9</ele>
        <time>2021-08-09T12:59:16Z</time>
      </trkpt>
      <trkpt lat="47.8491" lon="6.9223">
        <ele>1094.9</ele>
        <time>2021-08-09T12:59:18Z</time>
      </trkpt>
      <trkpt lat="47.8491" lon="6.9223">
        <ele>1094.9</ele>
        <time>2021-08-09T12:59:20Z</time>
      </trkpt>
      <trkpt lat="47.8491" lon="6.9223">
        <ele>1094.9</ele>
        <time>2021-08-09T12:59:21Z</time>
      </trkpt>
      <trkpt lat="47.8491" lon="6.9223">
        <ele>1094.9</ele>
        <time>2021-08-09T12:59:23Z</time>
      </trkpt>
      <trkpt lat="47.8491" lon="6.9223">
        <ele>1094.9</ele>
        <time>2021-08-09T12:59:24Z</time>
      </trkpt>
      <trkpt lat="47.8491" lon="6.9223">
        <ele>1094.9</ele>
        <time>2021-08-09T12:59:26Z</time>
      </trkpt>
      <trkpt lat="47.8491" lon="6.9223">
        <ele>1094.9</ele>
        <time>2021-08-09T12:59:28Z</time>
      </trkpt>
      <trkpt lat="47.8491" lon="6.9223">
        <ele>1094.9</ele>
        <time>2021-08-09T12:59:29Z</time>
      </trkpt>
      <trkpt lat="47.8491" lon="6.9223">
        <ele>1094.9</ele>
        <time>2021-08-09T12:59:31Z</time>
      </trkpt>
      <trkpt lat="47.8491" lon="6.9223">
        <ele>1094.9</ele>
        <time>2021-08-09T12:59:32Z</time>
      </trkpt>
      <trkpt lat="47.8491" lon="6.9223">
        <ele>1094.9</ele>
        <time>2021-08-09T12:59:34Z</time>
      </trkpt>
      <trkpt lat="47.8491" lon="6.9223">
        <ele>1094.9</ele>
        <time>2021-08-09T12:59:36Z</time>
      </trkpt>
      <trkpt lat="47.8491" lon="6.9223">
        <ele>1094.9</ele>
        <time>2021-08-09T12:59:38Z</time>
      </trkpt>
      <trkpt lat="47.8491" lon="6.9223">
        <ele>1094.9</ele>
        <time>2021-08-09T12:59:39Z</time>
      </trkpt>
      <trkpt lat="47.8491" lon="6.9223">
        <ele>1094.9</ele>
        <time>2021-08-09T12:59:41Z</time>
      </trkpt>
      <trkpt lat="47.8491" lon="6.9223">
        <ele>1094.9</ele>
        <time>2021-08-09T12:59:43Z</time>
      </trkpt>
      <trkpt lat="47.8491" lon="6.9223">
        <ele>1094.9</ele>
        <time>2021-08-09T12:59:45Z</time>
      </trkpt>
      <trkpt lat="47.8491" lon="6.9223">
        <ele>1094.9</ele>
        <time>2021-08-09T12:59:46Z</time>
      </trkpt>
      <trkpt lat="47.8491" lon="6.9223">
        <ele>1094.9</ele>
        <time>2021-08-09T12:59:47Z</time>
      </trkpt>
      <trkpt lat="47.8491" lon="6.9223">
        <ele>1094.9</ele>
        <time>2021-08-09T12:59:48Z</time>
      </trkpt>
      <trkpt lat="47.8491" lon="6.9223">
        <ele>1094.9</ele>
        <time>2021-08-09T12:59:50Z</time>
      </trkpt>
      <trkpt lat="47.8491" lon="6.9223">
        <ele>1094.9</ele>
        <time>2021-08-09T12:59:51Z</time>
      </trkpt>
      <trkpt lat="47.8491" lon="6.9223">
        <ele>1094.9</ele>
        <time>2021-08-09T12:59:52Z</time>
      </trkpt>
      <trkpt lat="47.8491" lon="6.9223">
        <ele>1094.9</ele>
        <time>2021-08-09T12:59:53Z</time>
      </trkpt>
      <trkpt lat="47.8491" lon="6.9223">
        <ele>1094.9</ele>
        <time>2021-08-09T12:59:54Z</time>
      </trkpt>
      <trkpt lat="47.8491" lon="6.9223">
        <ele>1094.9</ele>
        <time>2021-08-09T12:59:56Z</time>
      </trkpt>
      <trkpt lat="47.8491" lon="6.9223">
        <ele>1094.9</ele>
        <time>2021-08-09T12:59:58Z</time>
      </trkpt>
      <trkpt lat="47.8491" lon="6.9223">
        <ele>1094.9</ele>
        <time>2021-08-09T12:59:59Z</time>
      </trkpt>
      <trkpt lat="47.8491" lon="6.9223">
        <ele>1094.9</ele>
        <time>2021-08-09T13:00:01Z</time>
      </trkpt>
      <trkpt lat="47.8491" lon="6.9223">
        <ele>1094.9</ele>
        <time>2021-08-09T13:00:02Z</time>
      </trkpt>
      <trkpt lat="47.8491" lon="6.9223">
        <ele>1094.9</ele>
        <time>2021-08-09T13:00:04Z</time>
      </trkpt>
      <trkpt lat="47.8491" lon="6.9223">
        <ele>1094.9</ele>
        <time>2021-08-09T13:00:06Z</time>
      </trkpt>
      <trkpt lat="47.8491" lon="6.9223">
        <ele>1094.9</ele>
        <time>2021-08-09T13:00:07Z</time>
      </trkpt>
      <trkpt lat="47.8491" lon="6.9223">
        <ele>1094.9</ele>
        <time>2021-08-09T13:00:09Z</time>
      </trkpt>
      <trkpt lat="47.8491" lon="6.9223">
        <ele>1094.9</ele>
        <time>2021-08-09T13:00:11Z</time>
      </trkpt>
      <trkpt lat="47.8491" lon="6.9223">
        <ele>1094.9</ele>
        <time>2021-08-09T13:00:12Z</time>
      </trkpt>
      <trkpt lat="47.8491" lon="6.9223">
        <ele>1094.9</ele>
        <time>2021-08-09T13:00:14Z</time>
      </trkpt>
      <trkpt lat="47.8491" lon="6.9223">
        <ele>1094.9</ele>
        <time>2021-08-09T13:00:16Z</time>
      </trkpt>
      <trkpt lat="47.8491" lon="6.9223">
        <ele>1094.9</ele>
        <time>2021-08-09T13:00:17Z</time>
      </trkpt>
      <trkpt lat="47.8491" lon="6.9223">
        <ele>1094.9</ele>
        <time>2021-08-09T13:00:19Z</time>
      </trkpt>
      <trkpt lat="47.8491" lon="6.9223">
        <ele>1094.9</ele>
        <time>2021-08-09T13:00:21Z</time>
      </trkpt>
      <trkpt lat="47.8491" lon="6.9223">
        <ele>1094.9</ele>
        <time>2021-08-09T13:00:22Z</time>
      </trkpt>
      <trkpt lat="47.8491" lon="6.9223">
        <ele>1094.9</ele>
        <time>2021-08-09T13:00:24Z</time>
      </trkpt>
      <trkpt lat="47.8491" lon="6.9223">
        <ele>1094.9</ele>
        <time>2021-08-09T13:00:26Z</time>
      </trkpt>
      <trkpt lat="47.8491" lon="6.9223">
        <ele>1094.9</ele>
        <time>2021-08-09T13:00:27Z</time>
      </trkpt>
      <trkpt lat="47.8491" lon="6.9223">
        <ele>1094.9</ele>
        <time>2021-08-09T13:00:28Z</time>
      </trkpt>
      <trkpt lat="47.8491" lon="6.9223">
        <ele>1094.9</ele>
        <time>2021-08-09T13:00:30Z</time>
      </trkpt>
      <trkpt lat="47.8491" lon="6.9223">
        <ele>1094.9</ele>
        <time>2021-08-09T13:00:31Z</time>
      </trkpt>
      <trkpt lat="47.8491" lon="6.9223">
        <ele>1094.9</ele>
        <time>2021-08-09T13:00:32Z</time>
      </trkpt>
      <trkpt lat="47.8491" lon="6.9223">
        <ele>1094.9</ele>
        <time>2021-08-09T13:00:34Z</time>
      </trkpt>
      <trkpt lat="47.8491" lon="6.9223">
        <ele>1094.9</ele>
        <time>2021-08-09T13:00:36Z</time>
      </trkpt>
      <trkpt lat="47.8491" lon="6.9223">
        <ele>1094.9</ele>
        <time>2021-08-09T13:00:37Z</time>
      </trkpt>
      <trkpt lat="47.8491" lon="6.9223">
        <ele>1094.9</ele>
        <time>2021-08-09T13:00:38Z</time>
      </trkpt>
      <trkpt lat="47.8491" lon="6.9223">
        <ele>1094.9</ele>
        <time>2021-08-09T13:00:40Z</time>
      </trkpt>
      <trkpt lat="47.8491" lon="6.9223">
        <ele>1094.9</ele>
        <time>2021-08-09T13:00:41Z</time>
      </trkpt>
      <trkpt lat="47.8491" lon="6.9223">
        <ele>1094.9</ele>
        <time>2021-08-09T13:00:42Z</time>
      </trkpt>
      <trkpt lat="47.8491" lon="6.9223">
        <ele>1094.9</ele>
        <time>2021-08-09T13:00:43Z</time>
      </trkpt>
      <trkpt lat="47.8491" lon="6.9223">
        <ele>1094.9</ele>
        <time>2021-08-09T13:00:44Z</time>
      </trkpt>
      <trkpt lat="47.8491" lon="6.9223">
        <ele>1094.9</ele>
        <time>2021-08-09T13:00:46Z</time>
      </trkpt>
      <trkpt lat="47.8491" lon="6.9223">
        <ele>1094.9</ele>
        <time>2021-08-09T13:00:47Z</time>
      </trkpt>
      <trkpt lat="47.8491" lon="6.9223">
        <ele>1094.9</ele>
        <time>2021-08-09T13:00:48Z</time>
      </trkpt>
      <trkpt lat="47.8491" lon="6.9223">
        <ele>1094.9</ele>
        <time>2021-08-09T13:00:50Z</time>
      </trkpt>
      <trkpt lat="47.8491" lon="6.9223">
        <ele>1094.9</ele>
        <time>2021-08-09T13:00:51Z</time>
      </trkpt>
      <trkpt lat="47.8491" lon="6.9223">
        <ele>1094.9</ele>
        <time>2021-08-09T13:00:53Z</time>
      </trkpt>
      <trkpt lat="47.8491" lon="6.9223">
        <ele>1094.9</ele>
        <time>2021-08-09T13:00:54Z</time>
      </trkpt>
      <trkpt lat="47.8491" lon="6.9223">
        <ele>1094.9</ele>
        <time>2021-08-09T13:00:56Z</time>
      </trkpt>
      <trkpt lat="47.8491" lon="6.9223">
        <ele>1094.9</ele>
        <time>2021-08-09T13:00:58Z</time>
      </trkpt>
      <trkpt lat="47.8491" lon="6.9223">
        <ele>1094.9</ele>
        <time>2021-08-09T13:01:00Z</time>
      </trkpt>
      <trkpt lat="47.8491" lon="6.9223">
        <ele>1094.9</ele>
        <time>2021-08-09T13:01:01Z</time>
      </trkpt>
      <trkpt lat="47.8491" lon="6.9223">
        <ele>1094.9</ele>
        <time>2021-08-09T13:01:02Z</time>
      </trkpt>
      <trkpt lat="47.8491" lon="6.9223">
        <ele>1094.9</ele>
        <time>2021-08-09T13:01:04Z</time>
      </trkpt>
      <trkpt lat="47.8491" lon="6.9223">
        <ele>1094.9</ele>
        <time>2021-08-09T13:01:06Z</time>
      </trkpt>
      <trkpt lat="47.8491" lon="6.9223">
        <ele>1094.9</ele>
        <time>2021-08-09T13:01:07Z</time>
      </trkpt>
      <trkpt lat="47.84911" lon="6.92229">
        <ele>1094.9</ele>
        <time>2021-08-09T13:01:09Z</time>
      </trkpt>
      <trkpt lat="47.84911" lon="6.92226">
        <ele>1095</ele>
        <time>2021-08-09T13:01:10Z</time>
      </trkpt>
      <trkpt lat="47.84912" lon="6.92221">
        <ele>1095.2</ele>
        <time>2021-08-09T13:01:11Z</time>
      </trkpt>
      <trkpt lat="47.84912" lon="6.92219">
        <ele>1095.3</ele>
        <time>2021-08-09T13:01:12Z</time>
      </trkpt>
      <trkpt lat="47.84914" lon="6.92217">
        <ele>1095.4</ele>
        <time>2021-08-09T13:01:14Z</time>
      </trkpt>
      <trkpt lat="47.84915" lon="6.92216">
        <ele>1095.4</ele>
        <time>2021-08-09T13:01:15Z</time>
      </trkpt>
      <trkpt lat="47.84916" lon="6.92215">
        <ele>1095.5</ele>
        <time>2021-08-09T13:01:16Z</time>
      </trkpt>
      <trkpt lat="47.84917" lon="6.92214">
        <ele>1095.6</ele>
        <time>2021-08-09T13:01:17Z</time>
      </trkpt>
      <trkpt lat="47.84919" lon="6.92213">
        <ele>1095.6</ele>
        <time>2021-08-09T13:01:19Z</time>
      </trkpt>
      <trkpt lat="47.8492" lon="6.92212">
        <ele>1095.7</ele>
        <time>2021-08-09T13:01:20Z</time>
      </trkpt>
      <trkpt lat="47.84921" lon="6.9221">
        <ele>1095.8</ele>
        <time>2021-08-09T13:01:22Z</time>
      </trkpt>
      <trkpt lat="47.84922" lon="6.92209">
        <ele>1095.9</ele>
        <time>2021-08-09T13:01:24Z</time>
      </trkpt>
      <trkpt lat="47.84923" lon="6.92207">
        <ele>1095.9</ele>
        <time>2021-08-09T13:01:25Z</time>
      </trkpt>
      <trkpt lat="47.84923" lon="6.92207">
        <ele>1095.9</ele>
        <time>2021-08-09T13:01:26Z</time>
      </trkpt>
      <trkpt lat="47.84924" lon="6.92206">
        <ele>1096</ele>
        <time>2021-08-09T13:01:28Z</time>
      </trkpt>
      <trkpt lat="47.84924" lon="6.92205">
        <ele>1096</ele>
        <time>2021-08-09T13:01:29Z</time>
      </trkpt>
      <trkpt lat="47.84924" lon="6.92205">
        <ele>1096</ele>
        <time>2021-08-09T13:01:31Z</time>
      </trkpt>
      <trkpt lat="47.84925" lon="6.92205">
        <ele>1096</ele>
        <time>2021-08-09T13:01:32Z</time>
      </trkpt>
      <trkpt lat="47.84925" lon="6.92204">
        <ele>1096</ele>
        <time>2021-08-09T13:01:33Z</time>
      </trkpt>
      <trkpt lat="47.84924" lon="6.92204">
        <ele>1096.1</ele>
        <time>2021-08-09T13:01:34Z</time>
      </trkpt>
      <trkpt lat="47.84923" lon="6.922">
        <ele>1096.2</ele>
        <time>2021-08-09T13:01:36Z</time>
      </trkpt>
      <trkpt lat="47.84922" lon="6.92198">
        <ele>1096.3</ele>
        <time>2021-08-09T13:01:37Z</time>
      </trkpt>
      <trkpt lat="47.84921" lon="6.92197">
        <ele>1096.3</ele>
        <time>2021-08-09T13:01:38Z</time>
      </trkpt>
      <trkpt lat="47.8492" lon="6.92195">
        <ele>1096.4</ele>
        <time>2021-08-09T13:01:40Z</time>
      </trkpt>
      <trkpt lat="47.84919" lon="6.92194">
        <ele>1096.5</ele>
        <time>2021-08-09T13:01:41Z</time>
      </trkpt>
      <trkpt lat="47.84919" lon="6.92193">
        <ele>1096.5</ele>
        <time>2021-08-09T13:01:42Z</time>
      </trkpt>
      <trkpt lat="47.84916" lon="6.9219">
        <ele>1096.7</ele>
        <time>2021-08-09T13:01:44Z</time>
      </trkpt>
      <trkpt lat="47.84915" lon="6.92188">
        <ele>1096.8</ele>
        <time>2021-08-09T13:01:45Z</time>
      </trkpt>
      <trkpt lat="47.84913" lon="6.92187">
        <ele>1096.8</ele>
        <time>2021-08-09T13:01:46Z</time>
      </trkpt>
      <trkpt lat="47.84911" lon="6.92183">
        <ele>1097</ele>
        <time>2021-08-09T13:01:48Z</time>
      </trkpt>
      <trkpt lat="47.84911" lon="6.92182">
        <ele>1097</ele>
        <time>2021-08-09T13:01:49Z</time>
      </trkpt>
      <trkpt lat="47.84908" lon="6.92178">
        <ele>1097.2</ele>
        <time>2021-08-09T13:01:51Z</time>
      </trkpt>
      <trkpt lat="47.84906" lon="6.92174">
        <ele>1097.3</ele>
        <time>2021-08-09T13:01:52Z</time>
      </trkpt>
      <trkpt lat="47.84906" lon="6.92173">
        <ele>1097.4</ele>
        <time>2021-08-09T13:01:53Z</time>
      </trkpt>
      <trkpt lat="47.84905" lon="6.92172">
        <ele>1097.4</ele>
        <time>2021-08-09T13:01:55Z</time>
      </trkpt>
      <trkpt lat="47.84904" lon="6.92171">
        <ele>1097.5</ele>
        <time>2021-08-09T13:01:56Z</time>
      </trkpt>
      <trkpt lat="47.84903" lon="6.92171">
        <ele>1097.5</ele>
        <time>2021-08-09T13:01:57Z</time>
      </trkpt>
      <trkpt lat="47.84902" lon="6.9217">
        <ele>1097.6</ele>
        <time>2021-08-09T13:01:58Z</time>
      </trkpt>
      <trkpt lat="47.84901" lon="6.9217">
        <ele>1097.6</ele>
        <time>2021-08-09T13:02:00Z</time>
      </trkpt>
      <trkpt lat="47.849" lon="6.92169">
        <ele>1097.6</ele>
        <time>2021-08-09T13:02:01Z</time>
      </trkpt>
      <trkpt lat="47.84897" lon="6.92166">
        <ele>1097.8</ele>
        <time>2021-08-09T13:02:03Z</time>
      </trkpt>
      <trkpt lat="47.84896" lon="6.92165">
        <ele>1097.8</ele>
        <time>2021-08-09T13:02:04Z</time>
      </trkpt>
      <trkpt lat="47.84893" lon="6.9216">
        <ele>1098</ele>
        <time>2021-08-09T13:02:05Z</time>
      </trkpt>
      <trkpt lat="47.84891" lon="6.92157">
        <ele>1098.1</ele>
        <time>2021-08-09T13:02:07Z</time>
      </trkpt>
      <trkpt lat="47.8489" lon="6.92155">
        <ele>1098.1</ele>
        <time>2021-08-09T13:02:08Z</time>
      </trkpt>
      <trkpt lat="47.84889" lon="6.92153">
        <ele>1098.2</ele>
        <time>2021-08-09T13:02:09Z</time>
      </trkpt>
      <trkpt lat="47.84888" lon="6.92151">
        <ele>1098.2</ele>
        <time>2021-08-09T13:02:11Z</time>
      </trkpt>
      <trkpt lat="47.84887" lon="6.9215">
        <ele>1098.3</ele>
        <time>2021-08-09T13:02:12Z</time>
      </trkpt>
      <trkpt lat="47.84887" lon="6.92149">
        <ele>1098.3</ele>
        <time>2021-08-09T13:02:13Z</time>
      </trkpt>
      <trkpt lat="47.84887" lon="6.92149">
        <ele>1098.3</ele>
        <time>2021-08-09T13:02:14Z</time>
      </trkpt>
      <trkpt lat="47.84887" lon="6.92149">
        <ele>1098.3</ele>
        <time>2021-08-09T13:02:15Z</time>
      </trkpt>
      <trkpt lat="47.84886" lon="6.92148">
        <ele>1098.3</ele>
        <time>2021-08-09T13:02:17Z</time>
      </trkpt>
      <trkpt lat="47.84886" lon="6.92148">
        <ele>1098.3</ele>
        <time>2021-08-09T13:02:18Z</time>
      </trkpt>
      <trkpt lat="47.84887" lon="6.92147">
        <ele>1098.3</ele>
        <time>2021-08-09T13:02:20Z</time>
      </trkpt>
      <trkpt lat="47.84887" lon="6.92146">
        <ele>1098.3</ele>
        <time>2021-08-09T13:02:21Z</time>
      </trkpt>
      <trkpt lat="47.84887" lon="6.92145">
        <ele>1098.4</ele>
        <time>2021-08-09T13:02:22Z</time>
      </trkpt>
      <trkpt lat="47.84887" lon="6.92143">
        <ele>1098.4</ele>
        <time>2021-08-09T13:02:24Z</time>
      </trkpt>
      <trkpt lat="47.84887" lon="6.92142">
        <ele>1098.4</ele>
        <time>2021-08-09T13:02:25Z</time>
      </trkpt>
      <trkpt lat="47.84887" lon="6.9214">
        <ele>1098.5</ele>
        <time>2021-08-09T13:02:27Z</time>
      </trkpt>
      <trkpt lat="47.84887" lon="6.92139">
        <ele>1098.5</ele>
        <time>2021-08-09T13:02:28Z</time>
      </trkpt>
      <trkpt lat="47.84887" lon="6.92139">
        <ele>1098.5</ele>
        <time>2021-08-09T13:02:29Z</time>
      </trkpt>
      <trkpt lat="47.84887" lon="6.92138">
        <ele>1098.5</ele>
        <time>2021-08-09T13:02:31Z</time>
      </trkpt>
      <trkpt lat="47.84887" lon="6.92137">
        <ele>1098.5</ele>
        <time>2021-08-09T13:02:32Z</time>
      </trkpt>
      <trkpt lat="47.84887" lon="6.92136">
        <ele>1098.6</ele>
        <time>2021-08-09T13:02:34Z</time>
      </trkpt>
      <trkpt lat="47.84887" lon="6.92135">
        <ele>1098.6</ele>
        <time>2021-08-09T13:02:35Z</time>
      </trkpt>
      <trkpt lat="47.84887" lon="6.92135">
        <ele>1098.6</ele>
        <time>2021-08-09T13:02:36Z</time>
      </trkpt>
      <trkpt lat="47.84888" lon="6.92134">
        <ele>1098.6</ele>
        <time>2021-08-09T13:02:37Z</time>
      </trkpt>
      <trkpt lat="47.84888" lon="6.92134">
        <ele>1098.6</ele>
        <time>2021-08-09T13:02:39Z</time>
      </trkpt>
      <trkpt lat="47.84888" lon="6.92133">
        <ele>1098.6</ele>
        <time>2021-08-09T13:02:40Z</time>
      </trkpt>
      <trkpt lat="47.84889" lon="6.92132">
        <ele>1098.7</ele>
        <time>2021-08-09T13:02:41Z</time>
      </trkpt>
      <trkpt lat="47.84889" lon="6.92131">
        <ele>1098.7</ele>
        <time>2021-08-09T13:02:42Z</time>
      </trkpt>
      <trkpt lat="47.84889" lon="6.92129">
        <ele>1098.7</ele>
        <time>2021-08-09T13:02:44Z</time>
      </trkpt>
      <trkpt lat="47.84889" lon="6.92128">
        <ele>1098.7</ele>
        <time>2021-08-09T13:02:45Z</time>
      </trkpt>
      <trkpt lat="47.84889" lon="6.92127">
        <ele>1098.7</ele>
        <time>2021-08-09T13:02:47Z</time>
      </trkpt>
      <trkpt lat="47.84889" lon="6.92127">
        <ele>1098.7</ele>
        <time>2021-08-09T13:02:48Z</time>
      </trkpt>
      <trkpt lat="47.84889" lon="6.92125">
        <ele>1098.8</ele>
        <time>2021-08-09T13:02:49Z</time>
      </trkpt>
      <trkpt lat="47.84889" lon="6.92123">
        <ele>1098.8</ele>
        <time>2021-08-09T13:02:51Z</time>
      </trkpt>
      <trkpt lat="47.84889" lon="6.92121">
        <ele>1098.9</ele>
        <time>2021-08-09T13:02:52Z</time>
      </trkpt>
      <trkpt lat="47.84889" lon="6.92119">
        <ele>1098.9</ele>
        <time>2021-08-09T13:02:53Z</time>
      </trkpt>
      <trkpt lat="47.84891" lon="6.92116">
        <ele>1099</ele>
        <time>2021-08-09T13:02:54Z</time>
      </trkpt>
      <trkpt lat="47.84892" lon="6.92115">
        <ele>1099</ele>
        <time>2021-08-09T13:02:56Z</time>
      </trkpt>
      <trkpt lat="47.84893" lon="6.92113">
        <ele>1099.1</ele>
        <time>2021-08-09T13:02:57Z</time>
      </trkpt>
      <trkpt lat="47.84893" lon="6.92111">
        <ele>1099.1</ele>
        <time>2021-08-09T13:02:58Z</time>
      </trkpt>
      <trkpt lat="47.84892" lon="6.92108">
        <ele>1099.2</ele>
        <time>2021-08-09T13:03:00Z</time>
      </trkpt>
      <trkpt lat="47.84889" lon="6.92099">
        <ele>1099.4</ele>
        <time>2021-08-09T13:03:02Z</time>
      </trkpt>
      <trkpt lat="47.84887" lon="6.92094">
        <ele>1099.5</ele>
        <time>2021-08-09T13:03:03Z</time>
      </trkpt>
      <trkpt lat="47.84885" lon="6.92088">
        <ele>1099.6</ele>
        <time>2021-08-09T13:03:05Z</time>
      </trkpt>
      <trkpt lat="47.84885" lon="6.92085">
        <ele>1099.7</ele>
        <time>2021-08-09T13:03:06Z</time>
      </trkpt>
      <trkpt lat="47.84884" lon="6.92083">
        <ele>1099.7</ele>
        <time>2021-08-09T13:03:07Z</time>
      </trkpt>
      <trkpt lat="47.84883" lon="6.92079">
        <ele>1099.8</ele>
        <time>2021-08-09T13:03:09Z</time>
      </trkpt>
      <trkpt lat="47.84882" lon="6.92076">
        <ele>1099.8</ele>
        <time>2021-08-09T13:03:10Z</time>
      </trkpt>
      <trkpt lat="47.84881" lon="6.92074">
        <ele>1099.9</ele>
        <time>2021-08-09T13:03:12Z</time>
      </trkpt>
      <trkpt lat="47.84882" lon="6.92072">
        <ele>1099.9</ele>
        <time>2021-08-09T13:03:14Z</time>
      </trkpt>
      <trkpt lat="47.84882" lon="6.92072">
        <ele>1099.9</ele>
        <time>2021-08-09T13:03:15Z</time>
      </trkpt>
      <trkpt lat="47.84882" lon="6.92071">
        <ele>1099.9</ele>
        <time>2021-08-09T13:03:16Z</time>
      </trkpt>
      <trkpt lat="47.84882" lon="6.92071">
        <ele>1099.9</ele>
        <time>2021-08-09T13:03:17Z</time>
      </trkpt>
      <trkpt lat="47.84882" lon="6.92071">
        <ele>1099.9</ele>
        <time>2021-08-09T13:03:19Z</time>
      </trkpt>
      <trkpt lat="47.84882" lon="6.92071">
        <ele>1099.9</ele>
        <time>2021-08-09T13:03:20Z</time>
      </trkpt>
      <trkpt lat="47.84774" lon="6.91962">
        <ele>1116.2</ele>
        <time>2021-08-09T13:07:41Z</time>
      </trkpt>
      <trkpt lat="47.84773" lon="6.91956">
        <ele>1116.5</ele>
        <time>2021-08-09T13:07:42Z</time>
      </trkpt>
      <trkpt lat="47.84773" lon="6.91951">
        <ele>1116.8</ele>
        <time>2021-08-09T13:07:44Z</time>
      </trkpt>
      <trkpt lat="47.84772" lon="6.91946">
        <ele>1117.2</ele>
        <time>2021-08-09T13:07:45Z</time>
      </trkpt>
      <trkpt lat="47.84772" lon="6.91941">
        <ele>1117.5</ele>
        <time>2021-08-09T13:07:46Z</time>
      </trkpt>
      <trkpt lat="47.84772" lon="6.91939">
        <ele>1117.6</ele>
        <time>2021-08-09T13:07:47Z</time>
      </trkpt>
      <trkpt lat="47.84771" lon="6.91937">
        <ele>1117.8</ele>
        <time>2021-08-09T13:07:48Z</time>
      </trkpt>
      <trkpt lat="47.8477" lon="6.91935">
        <ele>1118</ele>
        <time>2021-08-09T13:07:50Z</time>
      </trkpt>
      <trkpt lat="47.84767" lon="6.91932">
        <ele>1118.2</ele>
        <time>2021-08-09T13:07:51Z</time>
      </trkpt>
      <trkpt lat="47.84765" lon="6.9193">
        <ele>1118.5</ele>
        <time>2021-08-09T13:07:52Z</time>
      </trkpt>
      <trkpt lat="47.84764" lon="6.91927">
        <ele>1118.7</ele>
        <time>2021-08-09T13:07:54Z</time>
      </trkpt>
      <trkpt lat="47.84761" lon="6.91925">
        <ele>1118.9</ele>
        <time>2021-08-09T13:07:55Z</time>
      </trkpt>
      <trkpt lat="47.84759" lon="6.91924">
        <ele>1119.1</ele>
        <time>2021-08-09T13:07:57Z</time>
      </trkpt>
      <trkpt lat="47.84758" lon="6.91924">
        <ele>1119.2</ele>
        <time>2021-08-09T13:07:58Z</time>
      </trkpt>
      <trkpt lat="47.84757" lon="6.91924">
        <ele>1119.3</ele>
        <time>2021-08-09T13:07:59Z</time>
      </trkpt>
      <trkpt lat="47.84755" lon="6.91924">
        <ele>1119.5</ele>
        <time>2021-08-09T13:08:00Z</time>
      </trkpt>
      <trkpt lat="47.84753" lon="6.91924">
        <ele>1119.6</ele>
        <time>2021-08-09T13:08:02Z</time>
      </trkpt>
      <trkpt lat="47.84751" lon="6.91924">
        <ele>1119.7</ele>
        <time>2021-08-09T13:08:03Z</time>
      </trkpt>
      <trkpt lat="47.8475" lon="6.91925">
        <ele>1119.8</ele>
        <time>2021-08-09T13:08:04Z</time>
      </trkpt>
      <trkpt lat="47.84749" lon="6.91926">
        <ele>1119.9</ele>
        <time>2021-08-09T13:08:06Z</time>
      </trkpt>
      <trkpt lat="47.84748" lon="6.91926">
        <ele>1120</ele>
        <time>2021-08-09T13:08:07Z</time>
      </trkpt>
      <trkpt lat="47.84745" lon="6.91925">
        <ele>1120.1</ele>
        <time>2021-08-09T13:08:09Z</time>
      </trkpt>
      <trkpt lat="47.84741" lon="6.91924">
        <ele>1120.3</ele>
        <time>2021-08-09T13:08:11Z</time>
      </trkpt>
      <trkpt lat="47.84741" lon="6.91924">
        <ele>1120.3</ele>
        <time>2021-08-09T13:08:12Z</time>
      </trkpt>
      <trkpt lat="47.84739" lon="6.91924">
        <ele>1120.4</ele>
        <time>2021-08-09T13:08:13Z</time>
      </trkpt>
      <trkpt lat="47.84736" lon="6.91923">
        <ele>1120.6</ele>
        <time>2021-08-09T13:08:15Z</time>
      </trkpt>
      <trkpt lat="47.84732" lon="6.9192">
        <ele>1120.8</ele>
        <time>2021-08-09T13:08:16Z</time>
      </trkpt>
      <trkpt lat="47.84731" lon="6.9192">
        <ele>1120.8</ele>
        <time>2021-08-09T13:08:17Z</time>
      </trkpt>
      <trkpt lat="47.8473" lon="6.91919">
        <ele>1120.8</ele>
        <time>2021-08-09T13:08:18Z</time>
      </trkpt>
      <trkpt lat="47.84729" lon="6.91918">
        <ele>1120.9</ele>
        <time>2021-08-09T13:08:20Z</time>
      </trkpt>
      <trkpt lat="47.84729" lon="6.91918">
        <ele>1120.9</ele>
        <time>2021-08-09T13:08:21Z</time>
      </trkpt>
      <trkpt lat="47.84728" lon="6.91919">
        <ele>1121</ele>
        <time>2021-08-09T13:08:22Z</time>
      </trkpt>
      <trkpt lat="47.84728" lon="6.9192">
        <ele>1121</ele>
        <time>2021-08-09T13:08:24Z</time>
      </trkpt>
      <trkpt lat="47.84728" lon="6.91922">
        <ele>1121.1</ele>
        <time>2021-08-09T13:08:26Z</time>
      </trkpt>
      <trkpt lat="47.84713" lon="6.919">
        <ele>1122.5</ele>
        <time>2021-08-09T13:08:52Z</time>
      </trkpt>
      <trkpt lat="47.84713" lon="6.91897">
        <ele>1122.7</ele>
        <time>2021-08-09T13:08:53Z</time>
      </trkpt>
      <trkpt lat="47.84712" lon="6.91891">
        <ele>1123</ele>
        <time>2021-08-09T13:08:55Z</time>
      </trkpt>
      <trkpt lat="47.84711" lon="6.91888">
        <ele>1123.2</ele>
        <time>2021-08-09T13:08:56Z</time>
      </trkpt>
      <trkpt lat="47.84709" lon="6.91883">
        <ele>1123.5</ele>
        <time>2021-08-09T13:08:57Z</time>
      </trkpt>
      <trkpt lat="47.84709" lon="6.91881">
        <ele>1123.6</ele>
        <time>2021-08-09T13:08:58Z</time>
      </trkpt>
      <trkpt lat="47.84707" lon="6.91875">
        <ele>1123.9</ele>
        <time>2021-08-09T13:09:00Z</time>
      </trkpt>
      <trkpt lat="47.84705" lon="6.91871">
        <ele>1124.1</ele>
        <time>2021-08-09T13:09:01Z</time>
      </trkpt>
      <trkpt lat="47.84702" lon="6.91867">
        <ele>1124.4</ele>
        <time>2021-08-09T13:09:03Z</time>
      </trkpt>
      <trkpt lat="47.847" lon="6.91865">
        <ele>1124.6</ele>
        <time>2021-08-09T13:09:04Z</time>
      </trkpt>
      <trkpt lat="47.847" lon="6.91865">
        <ele>1124.6</ele>
        <time>2021-08-09T13:09:05Z</time>
      </trkpt>
      <trkpt lat="47.847" lon="6.91865">
        <ele>1124.6</ele>
        <time>2021-08-09T13:09:07Z</time>
      </trkpt>
      <trkpt lat="47.847" lon="6.91865">
        <ele>1124.6</ele>
        <time>2021-08-09T13:09:08Z</time>
      </trkpt>
      <trkpt lat="47.847" lon="6.91865">
        <ele>1124.6</ele>
        <time>2021-08-09T13:09:09Z</time>
      </trkpt>
      <trkpt lat="47.84699" lon="6.91864">
        <ele>1124.6</ele>
        <time>2021-08-09T13:09:10Z</time>
      </trkpt>
      <trkpt lat="47.84699" lon="6.91864">
        <ele>1124.7</ele>
        <time>2021-08-09T13:09:11Z</time>
      </trkpt>
      <trkpt lat="47.847" lon="6.91864">
        <ele>1124.7</ele>
        <time>2021-08-09T13:09:12Z</time>
      </trkpt>
      <trkpt lat="47.84701" lon="6.91863">
        <ele>1124.7</ele>
        <time>2021-08-09T13:09:13Z</time>
      </trkpt>
      <trkpt lat="47.84701" lon="6.91863">
        <ele>1124.8</ele>
        <time>2021-08-09T13:09:15Z</time>
      </trkpt>
      <trkpt lat="47.84701" lon="6.91862">
        <ele>1124.8</ele>
        <time>2021-08-09T13:09:16Z</time>
      </trkpt>
      <trkpt lat="47.84701" lon="6.91862">
        <ele>1124.8</ele>
        <time>2021-08-09T13:09:17Z</time>
      </trkpt>
      <trkpt lat="47.84701" lon="6.91861">
        <ele>1124.8</ele>
        <time>2021-08-09T13:09:19Z</time>
      </trkpt>
      <trkpt lat="47.84701" lon="6.9186">
        <ele>1124.9</ele>
        <time>2021-08-09T13:09:20Z</time>
      </trkpt>
      <trkpt lat="47.84636" lon="6.91859">
        <ele>1125.5</ele>
        <time>2021-08-09T13:10:46Z</time>
      </trkpt>
      <trkpt lat="47.84634" lon="6.91855">
        <ele>1125.2</ele>
        <time>2021-08-09T13:10:47Z</time>
      </trkpt>
      <trkpt lat="47.84633" lon="6.9185">
        <ele>1124.9</ele>
        <time>2021-08-09T13:10:49Z</time>
      </trkpt>
      <trkpt lat="47.84633" lon="6.91845">
        <ele>1124.6</ele>
        <time>2021-08-09T13:10:50Z</time>
      </trkpt>
      <trkpt lat="47.84632" lon="6.91842">
        <ele>1124.5</ele>
        <time>2021-08-09T13:10:51Z</time>
      </trkpt>
      <trkpt lat="47.84631" lon="6.9184">
        <ele>1124.4</ele>
        <time>2021-08-09T13:10:53Z</time>
      </trkpt>
      <trkpt lat="47.84631" lon="6.9184">
        <ele>1124.3</ele>
        <time>2021-08-09T13:10:55Z</time>
      </trkpt>
      <trkpt lat="47.8463" lon="6.91839">
        <ele>1124.3</ele>
        <time>2021-08-09T13:10:56Z</time>
      </trkpt>
      <trkpt lat="47.8463" lon="6.91839">
        <ele>1124.3</ele>
        <time>2021-08-09T13:10:57Z</time>
      </trkpt>
      <trkpt lat="47.84628" lon="6.91837">
        <ele>1124.1</ele>
        <time>2021-08-09T13:10:59Z</time>
      </trkpt>
      <trkpt lat="47.84623" lon="6.91836">
        <ele>1123.9</ele>
        <time>2021-08-09T13:11:00Z</time>
      </trkpt>
      <trkpt lat="47.84619" lon="6.91835">
        <ele>1123.7</ele>
        <time>2021-08-09T13:11:01Z</time>
      </trkpt>
      <trkpt lat="47.84613" lon="6.91835">
        <ele>1123.4</ele>
        <time>2021-08-09T13:11:02Z</time>
      </trkpt>
      <trkpt lat="47.84604" lon="6.91833">
        <ele>1122.8</ele>
        <time>2021-08-09T13:11:04Z</time>
      </trkpt>
      <trkpt lat="47.84601" lon="6.91831">
        <ele>1122.6</ele>
        <time>2021-08-09T13:11:05Z</time>
      </trkpt>
      <trkpt lat="47.84598" lon="6.91828">
        <ele>1122.3</ele>
        <time>2021-08-09T13:11:06Z</time>
      </trkpt>
      <trkpt lat="47.84596" lon="6.9182">
        <ele>1121.9</ele>
        <time>2021-08-09T13:11:08Z</time>
      </trkpt>
      <trkpt lat="47.84594" lon="6.91814">
        <ele>1121.6</ele>
        <time>2021-08-09T13:11:10Z</time>
      </trkpt>
      <trkpt lat="47.84591" lon="6.9181">
        <ele>1121.3</ele>
        <time>2021-08-09T13:11:11Z</time>
      </trkpt>
      <trkpt lat="47.8459" lon="6.91809">
        <ele>1121.2</ele>
        <time>2021-08-09T13:11:12Z</time>
      </trkpt>
      <trkpt lat="47.84585" lon="6.91807">
        <ele>1120.9</ele>
        <time>2021-08-09T13:11:14Z</time>
      </trkpt>
      <trkpt lat="47.84582" lon="6.91807">
        <ele>1120.7</ele>
        <time>2021-08-09T13:11:15Z</time>
      </trkpt>
      <trkpt lat="47.84579" lon="6.91807">
        <ele>1120.6</ele>
        <time>2021-08-09T13:11:16Z</time>
      </trkpt>
      <trkpt lat="47.84576" lon="6.91809">
        <ele>1120.4</ele>
        <time>2021-08-09T13:11:17Z</time>
      </trkpt>
      <trkpt lat="47.84571" lon="6.91813">
        <ele>1120.2</ele>
        <time>2021-08-09T13:11:18Z</time>
      </trkpt>
      <trkpt lat="47.84568" lon="6.91817">
        <ele>1120.1</ele>
        <time>2021-08-09T13:11:19Z</time>
      </trkpt>
      <trkpt lat="47.84562" lon="6.91824">
        <ele>1120.1</ele>
        <time>2021-08-09T13:11:21Z</time>
      </trkpt>
      <trkpt lat="47.84559" lon="6.91829">
        <ele>1120.2</ele>
        <time>2021-08-09T13:11:22Z</time>
      </trkpt>
      <trkpt lat="47.84556" lon="6.91835">
        <ele>1120.4</ele>
        <time>2021-08-09T13:11:23Z</time>
      </trkpt>
      <trkpt lat="47.84552" lon="6.9184">
        <ele>1120.9</ele>
        <time>2021-08-09T13:11:24Z</time>
      </trkpt>
      <trkpt lat="47.84547" lon="6.91842">
        <ele>1121.4</ele>
        <time>2021-08-09T13:11:25Z</time>
      </trkpt>
      <trkpt lat="47.84543" lon="6.91843">
        <ele>1121.9</ele>
        <time>2021-08-09T13:11:26Z</time>
      </trkpt>
      <trkpt lat="47.84538" lon="6.91841">
        <ele>1122.7</ele>
        <time>2021-08-09T13:11:28Z</time>
      </trkpt>
      <trkpt lat="47.84536" lon="6.9184">
        <ele>1123</ele>
        <time>2021-08-09T13:11:29Z</time>
      </trkpt>
      <trkpt lat="47.84534" lon="6.91839">
        <ele>1123.4</ele>
        <time>2021-08-09T13:11:31Z</time>
      </trkpt>
      <trkpt lat="47.84534" lon="6.91839">
        <ele>1123.4</ele>
        <time>2021-08-09T13:11:32Z</time>
      </trkpt>
      <trkpt lat="47.84531" lon="6.91841">
        <ele>1124</ele>
        <time>2021-08-09T13:11:34Z</time>
      </trkpt>
      <trkpt lat="47.84528" lon="6.91845">
        <ele>1124.7</ele>
        <time>2021-08-09T13:11:35Z</time>
      </trkpt>
      <trkpt lat="47.84526" lon="6.91847">
        <ele>1125.2</ele>
        <time>2021-08-09T13:11:36Z</time>
      </trkpt>
      <trkpt lat="47.84523" lon="6.91848">
        <ele>1125.8</ele>
        <time>2021-08-09T13:11:38Z</time>
      </trkpt>
      <trkpt lat="47.8452" lon="6.9185">
        <ele>1126.5</ele>
        <time>2021-08-09T13:11:40Z</time>
      </trkpt>
      <trkpt lat="47.84519" lon="6.9185">
        <ele>1126.6</ele>
        <time>2021-08-09T13:11:41Z</time>
      </trkpt>
      <trkpt lat="47.84519" lon="6.9185">
        <ele>1126.7</ele>
        <time>2021-08-09T13:11:43Z</time>
      </trkpt>
      <trkpt lat="47.84519" lon="6.9185">
        <ele>1126.7</ele>
        <time>2021-08-09T13:11:44Z</time>
      </trkpt>
      <trkpt lat="47.84518" lon="6.9185">
        <ele>1126.8</ele>
        <time>2021-08-09T13:11:46Z</time>
      </trkpt>
      <trkpt lat="47.84518" lon="6.9185">
        <ele>1126.8</ele>
        <time>2021-08-09T13:11:48Z</time>
      </trkpt>
      <trkpt lat="47.84454" lon="6.91877">
        <ele>1135.5</ele>
        <time>2021-08-09T13:13:42Z</time>
      </trkpt>
      <trkpt lat="47.84454" lon="6.91874">
        <ele>1135.6</ele>
        <time>2021-08-09T13:13:43Z</time>
      </trkpt>
      <trkpt lat="47.84453" lon="6.91872">
        <ele>1135.7</ele>
        <time>2021-08-09T13:13:44Z</time>
      </trkpt>
      <trkpt lat="47.84453" lon="6.91872">
        <ele>1135.7</ele>
        <time>2021-08-09T13:13:45Z</time>
      </trkpt>
      <trkpt lat="47.84453" lon="6.9187">
        <ele>1135.7</ele>
        <time>2021-08-09T13:13:47Z</time>
      </trkpt>
      <trkpt lat="47.84452" lon="6.91868">
        <ele>1135.8</ele>
        <time>2021-08-09T13:13:49Z</time>
      </trkpt>
      <trkpt lat="47.84453" lon="6.91868">
        <ele>1135.8</ele>
        <time>2021-08-09T13:13:50Z</time>
      </trkpt>
      <trkpt lat="47.84453" lon="6.91868">
        <ele>1135.9</ele>
        <time>2021-08-09T13:13:52Z</time>
      </trkpt>
      <trkpt lat="47.84454" lon="6.91868">
        <ele>1135.9</ele>
        <time>2021-08-09T13:13:53Z</time>
      </trkpt>
      <trkpt lat="47.84454" lon="6.91868">
        <ele>1135.9</ele>
        <time>2021-08-09T13:13:55Z</time>
      </trkpt>
      <trkpt lat="47.84454" lon="6.91868">
        <ele>1135.9</ele>
        <time>2021-08-09T13:13:57Z</time>
      </trkpt>
      <trkpt lat="47.84453" lon="6.91856">
        <ele>1136.1</ele>
        <time>2021-08-09T13:14:08Z</time>
      </trkpt>
      <trkpt lat="47.84452" lon="6.91851">
        <ele>1136.1</ele>
        <time>2021-08-09T13:14:10Z</time>
      </trkpt>
      <trkpt lat="47.84451" lon="6.91845">
        <ele>1136.1</ele>
        <time>2021-08-09T13:14:12Z</time>
      </trkpt>
      <trkpt lat="47.8445" lon="6.91843">
        <ele>1136.1</ele>
        <time>2021-08-09T13:14:13Z</time>
      </trkpt>
      <trkpt lat="47.84449" lon="6.91841">
        <ele>1136</ele>
        <time>2021-08-09T13:14:14Z</time>
      </trkpt>
      <trkpt lat="47.84446" lon="6.91835">
        <ele>1135.8</ele>
        <time>2021-08-09T13:14:15Z</time>
      </trkpt>
      <trkpt lat="47.84443" lon="6.9183">
        <ele>1135.6</ele>
        <time>2021-08-09T13:14:17Z</time>
      </trkpt>
      <trkpt lat="47.84441" lon="6.91824">
        <ele>1135.3</ele>
        <time>2021-08-09T13:14:18Z</time>
      </trkpt>
      <trkpt lat="47.84431" lon="6.9181">
        <ele>1134.5</ele>
        <time>2021-08-09T13:14:20Z</time>
      </trkpt>
      <trkpt lat="47.84424" lon="6.91799">
        <ele>1133.9</ele>
        <time>2021-08-09T13:14:22Z</time>
      </trkpt>
      <trkpt lat="47.84416" lon="6.91788">
        <ele>1133.3</ele>
        <time>2021-08-09T13:14:24Z</time>
      </trkpt>
      <trkpt lat="47.84412" lon="6.91782">
        <ele>1133</ele>
        <time>2021-08-09T13:14:25Z</time>
      </trkpt>
      <trkpt lat="47.84408" lon="6.91776">
        <ele>1132.7</ele>
        <time>2021-08-09T13:14:26Z</time>
      </trkpt>
      <trkpt lat="47.844" lon="6.91764">
        <ele>1132.2</ele>
        <time>2021-08-09T13:14:28Z</time>
      </trkpt>
      <trkpt lat="47.84396" lon="6.91758">
        <ele>1131.9</ele>
        <time>2021-08-09T13:14:29Z</time>
      </trkpt>
      <trkpt lat="47.84393" lon="6.91752">
        <ele>1131.7</ele>
        <time>2021-08-09T13:14:30Z</time>
      </trkpt>
      <trkpt lat="47.84385" lon="6.91738">
        <ele>1131.1</ele>
        <time>2021-08-09T13:14:32Z</time>
      </trkpt>
      <trkpt lat="47.84378" lon="6.91727">
        <ele>1130.6</ele>
        <time>2021-08-09T13:14:34Z</time>
      </trkpt>
      <trkpt lat="47.84376" lon="6.91724">
        <ele>1130.5</ele>
        <time>2021-08-09T13:14:35Z</time>
      </trkpt>
      <trkpt lat="47.84375" lon="6.91718">
        <ele>1130.3</ele>
        <time>2021-08-09T13:14:37Z</time>
      </trkpt>
      <trkpt lat="47.84375" lon="6.91717">
        <ele>1130.2</ele>
        <time>2021-08-09T13:14:38Z</time>
      </trkpt>
      <trkpt lat="47.84375" lon="6.91718">
        <ele>1130.2</ele>
        <time>2021-08-09T13:14:40Z</time>
      </trkpt>
      <trkpt lat="47.84375" lon="6.91719">
        <ele>1130.1</ele>
        <time>2021-08-09T13:14:41Z</time>
      </trkpt>
      <trkpt lat="47.84375" lon="6.91719">
        <ele>1130.1</ele>
        <time>2021-08-09T13:14:43Z</time>
      </trkpt>
      <trkpt lat="47.84375" lon="6.91718">
        <ele>1130.1</ele>
        <time>2021-08-09T13:14:45Z</time>
      </trkpt>
      <trkpt lat="47.84375" lon="6.91718">
        <ele>1130.1</ele>
        <time>2021-08-09T13:14:47Z</time>
      </trkpt>
      <trkpt lat="47.84374" lon="6.91704">
        <ele>1129.5</ele>
        <time>2021-08-09T13:15:48Z</time>
      </trkpt>
      <trkpt lat="47.84371" lon="6.91699">
        <ele>1129.2</ele>
        <time>2021-08-09T13:15:50Z</time>
      </trkpt>
      <trkpt lat="47.8437" lon="6.91695">
        <ele>1129</ele>
        <time>2021-08-09T13:15:51Z</time>
      </trkpt>
      <trkpt lat="47.84368" lon="6.91691">
        <ele>1128.8</ele>
        <time>2021-08-09T13:15:52Z</time>
      </trkpt>
      <trkpt lat="47.84365" lon="6.91687">
        <ele>1128.5</ele>
        <time>2021-08-09T13:15:54Z</time>
      </trkpt>
      <trkpt lat="47.84363" lon="6.91684">
        <ele>1128.3</ele>
        <time>2021-08-09T13:15:55Z</time>
      </trkpt>
      <trkpt lat="47.8436" lon="6.9168">
        <ele>1128.1</ele>
        <time>2021-08-09T13:15:56Z</time>
      </trkpt>
      <trkpt lat="47.84355" lon="6.91675">
        <ele>1127.8</ele>
        <time>2021-08-09T13:15:58Z</time>
      </trkpt>
      <trkpt lat="47.84351" lon="6.91673">
        <ele>1127.6</ele>
        <time>2021-08-09T13:15:59Z</time>
      </trkpt>
      <trkpt lat="47.84349" lon="6.91669">
        <ele>1127.4</ele>
        <time>2021-08-09T13:16:00Z</time>
      </trkpt>
      <trkpt lat="47.84346" lon="6.91662">
        <ele>1127.2</ele>
        <time>2021-08-09T13:16:01Z</time>
      </trkpt>
      <trkpt lat="47.84343" lon="6.91657">
        <ele>1127</ele>
        <time>2021-08-09T13:16:03Z</time>
      </trkpt>
      <trkpt lat="47.84341" lon="6.91654">
        <ele>1126.9</ele>
        <time>2021-08-09T13:16:04Z</time>
      </trkpt>
      <trkpt lat="47.84339" lon="6.91651">
        <ele>1126.7</ele>
        <time>2021-08-09T13:16:05Z</time>
      </trkpt>
      <trkpt lat="47.84334" lon="6.91648">
        <ele>1126.4</ele>
        <time>2021-08-09T13:16:07Z</time>
      </trkpt>
      <trkpt lat="47.84332" lon="6.91644">
        <ele>1126.2</ele>
        <time>2021-08-09T13:16:08Z</time>
      </trkpt>
      <trkpt lat="47.84328" lon="6.91637">
        <ele>1127.5</ele>
        <time>2021-08-09T13:16:09Z</time>
      </trkpt>
      <trkpt lat="47.84325" lon="6.91632">
        <ele>1128.6</ele>
        <time>2021-08-09T13:16:10Z</time>
      </trkpt>
      <trkpt lat="47.8432" lon="6.91626">
        <ele>1130</ele>
        <time>2021-08-09T13:16:12Z</time>
      </trkpt>
      <trkpt lat="47.84317" lon="6.91622">
        <ele>1130.9</ele>
        <time>2021-08-09T13:16:13Z</time>
      </trkpt>
      <trkpt lat="47.84315" lon="6.91618">
        <ele>1131.7</ele>
        <time>2021-08-09T13:16:14Z</time>
      </trkpt>
      <trkpt lat="47.84311" lon="6.91614">
        <ele>1132.8</ele>
        <time>2021-08-09T13:16:16Z</time>
      </trkpt>
      <trkpt lat="47.84308" lon="6.91609">
        <ele>1133.7</ele>
        <time>2021-08-09T13:16:17Z</time>
      </trkpt>
      <trkpt lat="47.84304" lon="6.91604">
        <ele>1134.9</ele>
        <time>2021-08-09T13:16:18Z</time>
      </trkpt>
      <trkpt lat="47.84303" lon="6.916">
        <ele>1135.6</ele>
        <time>2021-08-09T13:16:20Z</time>
      </trkpt>
      <trkpt lat="47.84301" lon="6.91595">
        <ele>1136.5</ele>
        <time>2021-08-09T13:16:21Z</time>
      </trkpt>
      <trkpt lat="47.843" lon="6.91588">
        <ele>1137.6</ele>
        <time>2021-08-09T13:16:23Z</time>
      </trkpt>
      <trkpt lat="47.843" lon="6.91586">
        <ele>1137.9</ele>
        <time>2021-08-09T13:16:24Z</time>
      </trkpt>
      <trkpt lat="47.84299" lon="6.91584">
        <ele>1138.2</ele>
        <time>2021-08-09T13:16:25Z</time>
      </trkpt>
      <trkpt lat="47.84298" lon="6.91578">
        <ele>1139.1</ele>
        <time>2021-08-09T13:16:26Z</time>
      </trkpt>
      <trkpt lat="47.84298" lon="6.91576">
        <ele>1139.4</ele>
        <time>2021-08-09T13:16:27Z</time>
      </trkpt>
      <trkpt lat="47.84297" lon="6.91572">
        <ele>1140</ele>
        <time>2021-08-09T13:16:28Z</time>
      </trkpt>
      <trkpt lat="47.84294" lon="6.91567">
        <ele>1140.9</ele>
        <time>2021-08-09T13:16:29Z</time>
      </trkpt>
      <trkpt lat="47.84293" lon="6.91563">
        <ele>1141.6</ele>
        <time>2021-08-09T13:16:31Z</time>
      </trkpt>
      <trkpt lat="47.8429" lon="6.91558">
        <ele>1142.3</ele>
        <time>2021-08-09T13:16:32Z</time>
      </trkpt>
      <trkpt lat="47.84288" lon="6.91553">
        <ele>1141.6</ele>
        <time>2021-08-09T13:16:33Z</time>
      </trkpt>
      <trkpt lat="47.84287" lon="6.91546">
        <ele>1140.7</ele>
        <time>2021-08-09T13:16:34Z</time>
      </trkpt>
      <trkpt lat="47.84285" lon="6.91541">
        <ele>1140.1</ele>
        <time>2021-08-09T13:16:35Z</time>
      </trkpt>
      <trkpt lat="47.84283" lon="6.91533">
        <ele>1139.2</ele>
        <time>2021-08-09T13:16:37Z</time>
      </trkpt>
      <trkpt lat="47.84281" lon="6.91526">
        <ele>1138.3</ele>
        <time>2021-08-09T13:16:38Z</time>
      </trkpt>
      <trkpt lat="47.84278" lon="6.91512">
        <ele>1136.7</ele>
        <time>2021-08-09T13:16:40Z</time>
      </trkpt>
      <trkpt lat="47.84274" lon="6.91499">
        <ele>1135.2</ele>
        <time>2021-08-09T13:16:42Z</time>
      </trkpt>
      <trkpt lat="47.84269" lon="6.91488">
        <ele>1134.1</ele>
        <time>2021-08-09T13:16:44Z</time>
      </trkpt>
      <trkpt lat="47.84267" lon="6.91481">
        <ele>1133.6</ele>
        <time>2021-08-09T13:16:45Z</time>
      </trkpt>
      <trkpt lat="47.84265" lon="6.91475">
        <ele>1132.9</ele>
        <time>2021-08-09T13:16:47Z</time>
      </trkpt>
      <trkpt lat="47.84262" lon="6.91468">
        <ele>1132.3</ele>
        <time>2021-08-09T13:16:48Z</time>
      </trkpt>
      <trkpt lat="47.84261" lon="6.91463">
        <ele>1131.9</ele>
        <time>2021-08-09T13:16:49Z</time>
      </trkpt>
      <trkpt lat="47.84259" lon="6.91457">
        <ele>1131.2</ele>
        <time>2021-08-09T13:16:51Z</time>
      </trkpt>
      <trkpt lat="47.84258" lon="6.91451">
        <ele>1130.7</ele>
        <time>2021-08-09T13:16:52Z</time>
      </trkpt>
      <trkpt lat="47.84255" lon="6.91441">
        <ele>1129.8</ele>
        <time>2021-08-09T13:16:53Z</time>
      </trkpt>
      <trkpt lat="47.84254" lon="6.91433">
        <ele>1129.2</ele>
        <time>2021-08-09T13:16:54Z</time>
      </trkpt>
      <trkpt lat="47.84252" lon="6.91427">
        <ele>1128.7</ele>
        <time>2021-08-09T13:16:55Z</time>
      </trkpt>
      <trkpt lat="47.8425" lon="6.9142">
        <ele>1128.3</ele>
        <time>2021-08-09T13:16:56Z</time>
      </trkpt>
      <trkpt lat="47.84249" lon="6.91412">
        <ele>1127.8</ele>
        <time>2021-08-09T13:16:58Z</time>
      </trkpt>
      <trkpt lat="47.84249" lon="6.91408">
        <ele>1127.5</ele>
        <time>2021-08-09T13:16:59Z</time>
      </trkpt>
      <trkpt lat="47.84249" lon="6.91399">
        <ele>1127</ele>
        <time>2021-08-09T13:17:01Z</time>
      </trkpt>
      <trkpt lat="47.84248" lon="6.91395">
        <ele>1126.7</ele>
        <time>2021-08-09T13:17:02Z</time>
      </trkpt>
      <trkpt lat="47.84248" lon="6.9139">
        <ele>1126.4</ele>
        <time>2021-08-09T13:17:03Z</time>
      </trkpt>
      <trkpt lat="47.84247" lon="6.91384">
        <ele>1126</ele>
        <time>2021-08-09T13:17:04Z</time>
      </trkpt>
      <trkpt lat="47.84247" lon="6.91378">
        <ele>1125.5</ele>
        <time>2021-08-09T13:17:05Z</time>
      </trkpt>
      <trkpt lat="47.84247" lon="6.91372">
        <ele>1125</ele>
        <time>2021-08-09T13:17:07Z</time>
      </trkpt>
      <trkpt lat="47.84247" lon="6.91367">
        <ele>1124.6</ele>
        <time>2021-08-09T13:17:08Z</time>
      </trkpt>
      <trkpt lat="47.84248" lon="6.9136">
        <ele>1124.1</ele>
        <time>2021-08-09T13:17:09Z</time>
      </trkpt>
      <trkpt lat="47.8425" lon="6.91353">
        <ele>1123.5</ele>
        <time>2021-08-09T13:17:10Z</time>
      </trkpt>
      <trkpt lat="47.84251" lon="6.91348">
        <ele>1123.2</ele>
        <time>2021-08-09T13:17:12Z</time>
      </trkpt>
      <trkpt lat="47.84253" lon="6.91344">
        <ele>1123.2</ele>
        <time>2021-08-09T13:17:13Z</time>
      </trkpt>
      <trkpt lat="47.84255" lon="6.9134">
        <ele>1123.2</ele>
        <time>2021-08-09T13:17:14Z</time>
      </trkpt>
      <trkpt lat="47.84255" lon="6.91335">
        <ele>1123.2</ele>
        <time>2021-08-09T13:17:15Z</time>
      </trkpt>
      <trkpt lat="47.84256" lon="6.91328">
        <ele>1123.2</ele>
        <time>2021-08-09T13:17:17Z</time>
      </trkpt>
      <trkpt lat="47.84256" lon="6.91324">
        <ele>1123.2</ele>
        <time>2021-08-09T13:17:18Z</time>
      </trkpt>
      <trkpt lat="47.84255" lon="6.91317">
        <ele>1123.2</ele>
        <time>2021-08-09T13:17:20Z</time>
      </trkpt>
      <trkpt lat="47.84255" lon="6.91312">
        <ele>1123.2</ele>
        <time>2021-08-09T13:17:21Z</time>
      </trkpt>
      <trkpt lat="47.84255" lon="6.91311">
        <ele>1123.2</ele>
        <time>2021-08-09T13:17:22Z</time>
      </trkpt>
      <trkpt lat="47.84255" lon="6.91306">
        <ele>1123.3</ele>
        <time>2021-08-09T13:17:24Z</time>
      </trkpt>
      <trkpt lat="47.84255" lon="6.91305">
        <ele>1123.4</ele>
        <time>2021-08-09T13:17:25Z</time>
      </trkpt>
      <trkpt lat="47.84257" lon="6.913">
        <ele>1123.6</ele>
        <time>2021-08-09T13:17:26Z</time>
      </trkpt>
      <trkpt lat="47.84257" lon="6.91298">
        <ele>1123.7</ele>
        <time>2021-08-09T13:17:27Z</time>
      </trkpt>
      <trkpt lat="47.84258" lon="6.91295">
        <ele>1123.8</ele>
        <time>2021-08-09T13:17:29Z</time>
      </trkpt>
      <trkpt lat="47.84258" lon="6.91294">
        <ele>1123.8</ele>
        <time>2021-08-09T13:17:30Z</time>
      </trkpt>
      <trkpt lat="47.84258" lon="6.91293">
        <ele>1123.9</ele>
        <time>2021-08-09T13:17:32Z</time>
      </trkpt>
      <trkpt lat="47.84258" lon="6.9129">
        <ele>1124</ele>
        <time>2021-08-09T13:17:33Z</time>
      </trkpt>
      <trkpt lat="47.84259" lon="6.91287">
        <ele>1124.1</ele>
        <time>2021-08-09T13:17:34Z</time>
      </trkpt>
      <trkpt lat="47.8426" lon="6.91282">
        <ele>1124.3</ele>
        <time>2021-08-09T13:17:36Z</time>
      </trkpt>
      <trkpt lat="47.8426" lon="6.91277">
        <ele>1124.5</ele>
        <time>2021-08-09T13:17:37Z</time>
      </trkpt>
      <trkpt lat="47.8426" lon="6.91275">
        <ele>1124.5</ele>
        <time>2021-08-09T13:17:38Z</time>
      </trkpt>
      <trkpt lat="47.84258" lon="6.91269">
        <ele>1124.8</ele>
        <time>2021-08-09T13:17:39Z</time>
      </trkpt>
      <trkpt lat="47.84257" lon="6.91267">
        <ele>1124.9</ele>
        <time>2021-08-09T13:17:40Z</time>
      </trkpt>
      <trkpt lat="47.84257" lon="6.91263">
        <ele>1125</ele>
        <time>2021-08-09T13:17:42Z</time>
      </trkpt>
      <trkpt lat="47.84256" lon="6.91262">
        <ele>1125.1</ele>
        <time>2021-08-09T13:17:43Z</time>
      </trkpt>
      <trkpt lat="47.84257" lon="6.91261">
        <ele>1125.1</ele>
        <time>2021-08-09T13:17:44Z</time>
      </trkpt>
      <trkpt lat="47.84257" lon="6.91259">
        <ele>1125.2</ele>
        <time>2021-08-09T13:17:45Z</time>
      </trkpt>
      <trkpt lat="47.84257" lon="6.91258">
        <ele>1125.2</ele>
        <time>2021-08-09T13:17:47Z</time>
      </trkpt>
      <trkpt lat="47.84257" lon="6.91256">
        <ele>1125.3</ele>
        <time>2021-08-09T13:17:48Z</time>
      </trkpt>
      <trkpt lat="47.84257" lon="6.91255">
        <ele>1125.3</ele>
        <time>2021-08-09T13:17:49Z</time>
      </trkpt>
      <trkpt lat="47.84257" lon="6.91254">
        <ele>1125.4</ele>
        <time>2021-08-09T13:17:50Z</time>
      </trkpt>
      <trkpt lat="47.84258" lon="6.9125">
        <ele>1125.5</ele>
        <time>2021-08-09T13:17:52Z</time>
      </trkpt>
      <trkpt lat="47.8426" lon="6.91247">
        <ele>1125.6</ele>
        <time>2021-08-09T13:17:53Z</time>
      </trkpt>
      <trkpt lat="47.84261" lon="6.91235">
        <ele>1126</ele>
        <time>2021-08-09T13:17:56Z</time>
      </trkpt>
      <trkpt lat="47.84262" lon="6.91234">
        <ele>1126.1</ele>
        <time>2021-08-09T13:17:57Z</time>
      </trkpt>
      <trkpt lat="47.84264" lon="6.91229">
        <ele>1126.3</ele>
        <time>2021-08-09T13:17:59Z</time>
      </trkpt>
      <trkpt lat="47.84265" lon="6.91222">
        <ele>1126.5</ele>
        <time>2021-08-09T13:18:00Z</time>
      </trkpt>
      <trkpt lat="47.84265" lon="6.91215">
        <ele>1126.6</ele>
        <time>2021-08-09T13:18:02Z</time>
      </trkpt>
      <trkpt lat="47.84267" lon="6.9121">
        <ele>1126.7</ele>
        <time>2021-08-09T13:18:03Z</time>
      </trkpt>
      <trkpt lat="47.84268" lon="6.91208">
        <ele>1126.8</ele>
        <time>2021-08-09T13:18:04Z</time>
      </trkpt>
      <trkpt lat="47.8427" lon="6.91202">
        <ele>1126.9</ele>
        <time>2021-08-09T13:18:05Z</time>
      </trkpt>
      <trkpt lat="47.84271" lon="6.91197">
        <ele>1127</ele>
        <time>2021-08-09T13:18:06Z</time>
      </trkpt>
      <trkpt lat="47.84272" lon="6.91192">
        <ele>1127.1</ele>
        <time>2021-08-09T13:18:07Z</time>
      </trkpt>
      <trkpt lat="47.84273" lon="6.91188">
        <ele>1127.2</ele>
        <time>2021-08-09T13:18:09Z</time>
      </trkpt>
      <trkpt lat="47.84274" lon="6.91184">
        <ele>1127.2</ele>
        <time>2021-08-09T13:18:10Z</time>
      </trkpt>
      <trkpt lat="47.84274" lon="6.91179">
        <ele>1127.3</ele>
        <time>2021-08-09T13:18:12Z</time>
      </trkpt>
      <trkpt lat="47.84274" lon="6.91177">
        <ele>1127.3</ele>
        <time>2021-08-09T13:18:13Z</time>
      </trkpt>
      <trkpt lat="47.84275" lon="6.91172">
        <ele>1127.4</ele>
        <time>2021-08-09T13:18:15Z</time>
      </trkpt>
      <trkpt lat="47.84276" lon="6.91168">
        <ele>1127.5</ele>
        <time>2021-08-09T13:18:16Z</time>
      </trkpt>
      <trkpt lat="47.84278" lon="6.91164">
        <ele>1127.6</ele>
        <time>2021-08-09T13:18:17Z</time>
      </trkpt>
      <trkpt lat="47.8428" lon="6.91159">
        <ele>1127.7</ele>
        <time>2021-08-09T13:18:19Z</time>
      </trkpt>
      <trkpt lat="47.84282" lon="6.91155">
        <ele>1127.8</ele>
        <time>2021-08-09T13:18:20Z</time>
      </trkpt>
      <trkpt lat="47.84284" lon="6.91148">
        <ele>1127.9</ele>
        <time>2021-08-09T13:18:21Z</time>
      </trkpt>
      <trkpt lat="47.84285" lon="6.91142">
        <ele>1127.9</ele>
        <time>2021-08-09T13:18:22Z</time>
      </trkpt>
      <trkpt lat="47.84286" lon="6.91135">
        <ele>1128</ele>
        <time>2021-08-09T13:18:23Z</time>
      </trkpt>
      <trkpt lat="47.84287" lon="6.91129">
        <ele>1128.1</ele>
        <time>2021-08-09T13:18:24Z</time>
      </trkpt>
      <trkpt lat="47.84288" lon="6.91125">
        <ele>1128.2</ele>
        <time>2021-08-09T13:18:25Z</time>
      </trkpt>
      <trkpt lat="47.8429" lon="6.9112">
        <ele>1128.2</ele>
        <time>2021-08-09T13:18:26Z</time>
      </trkpt>
      <trkpt lat="47.84292" lon="6.91116">
        <ele>1128.3</ele>
        <time>2021-08-09T13:18:27Z</time>
      </trkpt>
      <trkpt lat="47.84294" lon="6.91112">
        <ele>1128.3</ele>
        <time>2021-08-09T13:18:28Z</time>
      </trkpt>
      <trkpt lat="47.84295" lon="6.91107">
        <ele>1128.4</ele>
        <time>2021-08-09T13:18:30Z</time>
      </trkpt>
      <trkpt lat="47.84295" lon="6.91102">
        <ele>1128.5</ele>
        <time>2021-08-09T13:18:31Z</time>
      </trkpt>
      <trkpt lat="47.84295" lon="6.91097">
        <ele>1128.5</ele>
        <time>2021-08-09T13:18:33Z</time>
      </trkpt>
      <trkpt lat="47.84295" lon="6.91092">
        <ele>1128.6</ele>
        <time>2021-08-09T13:18:34Z</time>
      </trkpt>
      <trkpt lat="47.84295" lon="6.91087">
        <ele>1128.7</ele>
        <time>2021-08-09T13:18:35Z</time>
      </trkpt>
      <trkpt lat="47.84295" lon="6.91081">
        <ele>1128.8</ele>
        <time>2021-08-09T13:18:36Z</time>
      </trkpt>
      <trkpt lat="47.84295" lon="6.91075">
        <ele>1128.9</ele>
        <time>2021-08-09T13:18:37Z</time>
      </trkpt>
      <trkpt lat="47.84296" lon="6.91066">
        <ele>1129</ele>
        <time>2021-08-09T13:18:39Z</time>
      </trkpt>
      <trkpt lat="47.84296" lon="6.91061">
        <ele>1129.1</ele>
        <time>2021-08-09T13:18:40Z</time>
      </trkpt>
      <trkpt lat="47.84296" lon="6.91055">
        <ele>1129.1</ele>
        <time>2021-08-09T13:18:42Z</time>
      </trkpt>
      <trkpt lat="47.84296" lon="6.91051">
        <ele>1129.2</ele>
        <time>2021-08-09T13:18:43Z</time>
      </trkpt>
      <trkpt lat="47.84297" lon="6.91049">
        <ele>1129.2</ele>
        <time>2021-08-09T13:18:44Z</time>
      </trkpt>
      <trkpt lat="47.843" lon="6.91042">
        <ele>1129.3</ele>
        <time>2021-08-09T13:18:46Z</time>
      </trkpt>
      <trkpt lat="47.84301" lon="6.91037">
        <ele>1129.3</ele>
        <time>2021-08-09T13:18:47Z</time>
      </trkpt>
      <trkpt lat="47.84303" lon="6.91033">
        <ele>1129.3</ele>
        <time>2021-08-09T13:18:48Z</time>
      </trkpt>
      <trkpt lat="47.84307" lon="6.91025">
        <ele>1129.3</ele>
        <time>2021-08-09T13:18:50Z</time>
      </trkpt>
      <trkpt lat="47.84309" lon="6.91019">
        <ele>1129.3</ele>
        <time>2021-08-09T13:18:51Z</time>
      </trkpt>
      <trkpt lat="47.84313" lon="6.91012">
        <ele>1129.3</ele>
        <time>2021-08-09T13:18:52Z</time>
      </trkpt>
      <trkpt lat="47.84315" lon="6.9101">
        <ele>1129.3</ele>
        <time>2021-08-09T13:18:53Z</time>
      </trkpt>
      <trkpt lat="47.8432" lon="6.91005">
        <ele>1129.3</ele>
        <time>2021-08-09T13:18:55Z</time>
      </trkpt>
      <trkpt lat="47.84326" lon="6.90995">
        <ele>1129.3</ele>
        <time>2021-08-09T13:18:56Z</time>
      </trkpt>
      <trkpt lat="47.84329" lon="6.90988">
        <ele>1129.4</ele>
        <time>2021-08-09T13:18:58Z</time>
      </trkpt>
      <trkpt lat="47.84331" lon="6.9098">
        <ele>1129.5</ele>
        <time>2021-08-09T13:18:59Z</time>
      </trkpt>
      <trkpt lat="47.84334" lon="6.90973">
        <ele>1129.6</ele>
        <time>2021-08-09T13:19:01Z</time>
      </trkpt>
      <trkpt lat="47.84337" lon="6.9097">
        <ele>1129.7</ele>
        <time>2021-08-09T13:19:02Z</time>
      </trkpt>
      <trkpt lat="47.8434" lon="6.9097">
        <ele>1129.7</ele>
        <time>2021-08-09T13:19:03Z</time>
      </trkpt>
      <trkpt lat="47.84343" lon="6.90968">
        <ele>1129.8</ele>
        <time>2021-08-09T13:19:05Z</time>
      </trkpt>
      <trkpt lat="47.84345" lon="6.90965">
        <ele>1129.8</ele>
        <time>2021-08-09T13:19:06Z</time>
      </trkpt>
      <trkpt lat="47.84345" lon="6.90963">
        <ele>1129.8</ele>
        <time>2021-08-09T13:19:07Z</time>
      </trkpt>
      <trkpt lat="47.84349" lon="6.90959">
        <ele>1129.9</ele>
        <time>2021-08-09T13:19:08Z</time>
      </trkpt>
      <trkpt lat="47.84351" lon="6.90957">
        <ele>1129.9</ele>
        <time>2021-08-09T13:19:09Z</time>
      </trkpt>
      <trkpt lat="47.84354" lon="6.90952">
        <ele>1129.9</ele>
        <time>2021-08-09T13:19:11Z</time>
      </trkpt>
      <trkpt lat="47.84357" lon="6.90949">
        <ele>1130</ele>
        <time>2021-08-09T13:19:12Z</time>
      </trkpt>
      <trkpt lat="47.84361" lon="6.90947">
        <ele>1130</ele>
        <time>2021-08-09T13:19:14Z</time>
      </trkpt>
      <trkpt lat="47.84363" lon="6.90944">
        <ele>1130</ele>
        <time>2021-08-09T13:19:15Z</time>
      </trkpt>
      <trkpt lat="47.84365" lon="6.90939">
        <ele>1130</ele>
        <time>2021-08-09T13:19:16Z</time>
      </trkpt>
      <trkpt lat="47.84367" lon="6.90934">
        <ele>1130</ele>
        <time>2021-08-09T13:19:18Z</time>
      </trkpt>
      <trkpt lat="47.84366" lon="6.9093">
        <ele>1130</ele>
        <time>2021-08-09T13:19:20Z</time>
      </trkpt>
      <trkpt lat="47.84363" lon="6.90925">
        <ele>1129.9</ele>
        <time>2021-08-09T13:19:21Z</time>
      </trkpt>
      <trkpt lat="47.8436" lon="6.90918">
        <ele>1129.9</ele>
        <time>2021-08-09T13:19:22Z</time>
      </trkpt>
      <trkpt lat="47.84358" lon="6.90912">
        <ele>1129.8</ele>
        <time>2021-08-09T13:19:24Z</time>
      </trkpt>
      <trkpt lat="47.84358" lon="6.90909">
        <ele>1129.7</ele>
        <time>2021-08-09T13:19:25Z</time>
      </trkpt>
      <trkpt lat="47.84357" lon="6.90907">
        <ele>1129.7</ele>
        <time>2021-08-09T13:19:26Z</time>
      </trkpt>
      <trkpt lat="47.84357" lon="6.90901">
        <ele>1129.6</ele>
        <time>2021-08-09T13:19:27Z</time>
      </trkpt>
      <trkpt lat="47.84356" lon="6.90899">
        <ele>1129.5</ele>
        <time>2021-08-09T13:19:28Z</time>
      </trkpt>
      <trkpt lat="47.84356" lon="6.90894">
        <ele>1129.3</ele>
        <time>2021-08-09T13:19:29Z</time>
      </trkpt>
      <trkpt lat="47.84355" lon="6.90882">
        <ele>1128.9</ele>
        <time>2021-08-09T13:19:31Z</time>
      </trkpt>
      <trkpt lat="47.84354" lon="6.90877">
        <ele>1128.7</ele>
        <time>2021-08-09T13:19:32Z</time>
      </trkpt>
      <trkpt lat="47.84352" lon="6.9087">
        <ele>1128.4</ele>
        <time>2021-08-09T13:19:33Z</time>
      </trkpt>
      <trkpt lat="47.84349" lon="6.90859">
        <ele>1128</ele>
        <time>2021-08-09T13:19:35Z</time>
      </trkpt>
      <trkpt lat="47.84348" lon="6.90852">
        <ele>1127.8</ele>
        <time>2021-08-09T13:19:36Z</time>
      </trkpt>
      <trkpt lat="47.84347" lon="6.90845">
        <ele>1127.6</ele>
        <time>2021-08-09T13:19:37Z</time>
      </trkpt>
      <trkpt lat="47.84345" lon="6.90838">
        <ele>1127.4</ele>
        <time>2021-08-09T13:19:38Z</time>
      </trkpt>
      <trkpt lat="47.84343" lon="6.90829">
        <ele>1127.3</ele>
        <time>2021-08-09T13:19:39Z</time>
      </trkpt>
      <trkpt lat="47.84341" lon="6.9082">
        <ele>1127.2</ele>
        <time>2021-08-09T13:19:41Z</time>
      </trkpt>
      <trkpt lat="47.8434" lon="6.90809">
        <ele>1127.4</ele>
        <time>2021-08-09T13:19:42Z</time>
      </trkpt>
      <trkpt lat="47.8434" lon="6.90802">
        <ele>1127.5</ele>
        <time>2021-08-09T13:19:43Z</time>
      </trkpt>
      <trkpt lat="47.84338" lon="6.90794">
        <ele>1127.8</ele>
        <time>2021-08-09T13:19:45Z</time>
      </trkpt>
      <trkpt lat="47.84336" lon="6.90787">
        <ele>1128</ele>
        <time>2021-08-09T13:19:46Z</time>
      </trkpt>
      <trkpt lat="47.84334" lon="6.9078">
        <ele>1128.3</ele>
        <time>2021-08-09T13:19:47Z</time>
      </trkpt>
      <trkpt lat="47.84333" lon="6.90773">
        <ele>1128.5</ele>
        <time>2021-08-09T13:19:48Z</time>
      </trkpt>
      <trkpt lat="47.84332" lon="6.90768">
        <ele>1128.6</ele>
        <time>2021-08-09T13:19:49Z</time>
      </trkpt>
      <trkpt lat="47.84331" lon="6.90762">
        <ele>1128.8</ele>
        <time>2021-08-09T13:19:51Z</time>
      </trkpt>
      <trkpt lat="47.84331" lon="6.9076">
        <ele>1128.8</ele>
        <time>2021-08-09T13:19:52Z</time>
      </trkpt>
      <trkpt lat="47.84331" lon="6.90758">
        <ele>1128.9</ele>
        <time>2021-08-09T13:19:53Z</time>
      </trkpt>
      <trkpt lat="47.8433" lon="6.90752">
        <ele>1129</ele>
        <time>2021-08-09T13:19:55Z</time>
      </trkpt>
      <trkpt lat="47.8433" lon="6.90751">
        <ele>1129.1</ele>
        <time>2021-08-09T13:19:56Z</time>
      </trkpt>
      <trkpt lat="47.84331" lon="6.90747">
        <ele>1129.1</ele>
        <time>2021-08-09T13:19:57Z</time>
      </trkpt>
      <trkpt lat="47.8433" lon="6.90743">
        <ele>1129.3</ele>
        <time>2021-08-09T13:19:59Z</time>
      </trkpt>
      <trkpt lat="47.84329" lon="6.90737">
        <ele>1129.4</ele>
        <time>2021-08-09T13:20:01Z</time>
      </trkpt>
      <trkpt lat="47.84328" lon="6.90735">
        <ele>1129.5</ele>
        <time>2021-08-09T13:20:02Z</time>
      </trkpt>
      <trkpt lat="47.84328" lon="6.90734">
        <ele>1129.5</ele>
        <time>2021-08-09T13:20:03Z</time>
      </trkpt>
      <trkpt lat="47.84326" lon="6.9073">
        <ele>1129.7</ele>
        <time>2021-08-09T13:20:04Z</time>
      </trkpt>
      <trkpt lat="47.84326" lon="6.90728">
        <ele>1129.8</ele>
        <time>2021-08-09T13:20:05Z</time>
      </trkpt>
      <trkpt lat="47.84324" lon="6.90725">
        <ele>1129.9</ele>
        <time>2021-08-09T13:20:07Z</time>
      </trkpt>
      <trkpt lat="47.84323" lon="6.90724">
        <ele>1130</ele>
        <time>2021-08-09T13:20:08Z</time>
      </trkpt>
      <trkpt lat="47.84322" lon="6.90722">
        <ele>1130.1</ele>
        <time>2021-08-09T13:20:09Z</time>
      </trkpt>
      <trkpt lat="47.84321" lon="6.90721">
        <ele>1130.2</ele>
        <time>2021-08-09T13:20:10Z</time>
      </trkpt>
      <trkpt lat="47.84321" lon="6.90721">
        <ele>1130.2</ele>
        <time>2021-08-09T13:20:12Z</time>
      </trkpt>
      <trkpt lat="47.84321" lon="6.9072">
        <ele>1130.3</ele>
        <time>2021-08-09T13:20:13Z</time>
      </trkpt>
      <trkpt lat="47.84319" lon="6.90716">
        <ele>1130.5</ele>
        <time>2021-08-09T13:20:15Z</time>
      </trkpt>
      <trkpt lat="47.84318" lon="6.90715">
        <ele>1130.5</ele>
        <time>2021-08-09T13:20:16Z</time>
      </trkpt>
      <trkpt lat="47.84318" lon="6.90715">
        <ele>1130.6</ele>
        <time>2021-08-09T13:20:17Z</time>
      </trkpt>
      <trkpt lat="47.84317" lon="6.90713">
        <ele>1130.6</ele>
        <time>2021-08-09T13:20:18Z</time>
      </trkpt>
      <trkpt lat="47.84316" lon="6.90711">
        <ele>1130.8</ele>
        <time>2021-08-09T13:20:20Z</time>
      </trkpt>
      <trkpt lat="47.84315" lon="6.90708">
        <ele>1130.9</ele>
        <time>2021-08-09T13:20:21Z</time>
      </trkpt>
      <trkpt lat="47.84315" lon="6.90706">
        <ele>1131</ele>
        <time>2021-08-09T13:20:22Z</time>
      </trkpt>
      <trkpt lat="47.84314" lon="6.90703">
        <ele>1131.2</ele>
        <time>2021-08-09T13:20:24Z</time>
      </trkpt>
      <trkpt lat="47.84314" lon="6.90701">
        <ele>1131.3</ele>
        <time>2021-08-09T13:20:25Z</time>
      </trkpt>
      <trkpt lat="47.84318" lon="6.90594">
        <ele>1136.5</ele>
        <time>2021-08-09T13:21:10Z</time>
      </trkpt>
      <trkpt lat="47.84317" lon="6.90593">
        <ele>1136.6</ele>
        <time>2021-08-09T13:21:11Z</time>
      </trkpt>
      <trkpt lat="47.84316" lon="6.90593">
        <ele>1136.6</ele>
        <time>2021-08-09T13:21:13Z</time>
      </trkpt>
      <trkpt lat="47.84316" lon="6.90593">
        <ele>1136.7</ele>
        <time>2021-08-09T13:21:14Z</time>
      </trkpt>
      <trkpt lat="47.84315" lon="6.90593">
        <ele>1136.7</ele>
        <time>2021-08-09T13:21:15Z</time>
      </trkpt>
      <trkpt lat="47.84315" lon="6.90592">
        <ele>1136.8</ele>
        <time>2021-08-09T13:21:16Z</time>
      </trkpt>
      <trkpt lat="47.84314" lon="6.9059">
        <ele>1136.9</ele>
        <time>2021-08-09T13:21:17Z</time>
      </trkpt>
      <trkpt lat="47.84314" lon="6.90588">
        <ele>1137</ele>
        <time>2021-08-09T13:21:19Z</time>
      </trkpt>
      <trkpt lat="47.84313" lon="6.90585">
        <ele>1137.2</ele>
        <time>2021-08-09T13:21:20Z</time>
      </trkpt>
      <trkpt lat="47.84313" lon="6.90583">
        <ele>1137.4</ele>
        <time>2021-08-09T13:21:21Z</time>
      </trkpt>
      <trkpt lat="47.84312" lon="6.90581">
        <ele>1137.5</ele>
        <time>2021-08-09T13:21:22Z</time>
      </trkpt>
      <trkpt lat="47.84311" lon="6.90578">
        <ele>1137.6</ele>
        <time>2021-08-09T13:21:23Z</time>
      </trkpt>
      <trkpt lat="47.84309" lon="6.90574">
        <ele>1137.9</ele>
        <time>2021-08-09T13:21:25Z</time>
      </trkpt>
      <trkpt lat="47.84309" lon="6.90572">
        <ele>1138</ele>
        <time>2021-08-09T13:21:26Z</time>
      </trkpt>
      <trkpt lat="47.84307" lon="6.90566">
        <ele>1138.4</ele>
        <time>2021-08-09T13:21:28Z</time>
      </trkpt>
      <trkpt lat="47.84307" lon="6.90563">
        <ele>1138.6</ele>
        <time>2021-08-09T13:21:29Z</time>
      </trkpt>
      <trkpt lat="47.84306" lon="6.90561">
        <ele>1138.7</ele>
        <time>2021-08-09T13:21:30Z</time>
      </trkpt>
      <trkpt lat="47.84304" lon="6.90557">
        <ele>1138.9</ele>
        <time>2021-08-09T13:21:32Z</time>
      </trkpt>
      <trkpt lat="47.84303" lon="6.90554">
        <ele>1139.1</ele>
        <time>2021-08-09T13:21:33Z</time>
      </trkpt>
      <trkpt lat="47.84301" lon="6.90549">
        <ele>1139.3</ele>
        <time>2021-08-09T13:21:34Z</time>
      </trkpt>
      <trkpt lat="47.84297" lon="6.90544">
        <ele>1139.7</ele>
        <time>2021-08-09T13:21:36Z</time>
      </trkpt>
      <trkpt lat="47.84295" lon="6.90539">
        <ele>1139.9</ele>
        <time>2021-08-09T13:21:37Z</time>
      </trkpt>
      <trkpt lat="47.84292" lon="6.90535">
        <ele>1140.1</ele>
        <time>2021-08-09T13:21:38Z</time>
      </trkpt>
      <trkpt lat="47.84291" lon="6.90534">
        <ele>1140.2</ele>
        <time>2021-08-09T13:21:39Z</time>
      </trkpt>
      <trkpt lat="47.84289" lon="6.9053">
        <ele>1140.4</ele>
        <time>2021-08-09T13:21:41Z</time>
      </trkpt>
      <trkpt lat="47.84285" lon="6.90525">
        <ele>1140.6</ele>
        <time>2021-08-09T13:21:43Z</time>
      </trkpt>
      <trkpt lat="47.84281" lon="6.90522">
        <ele>1140.8</ele>
        <time>2021-08-09T13:21:44Z</time>
      </trkpt>
      <trkpt lat="47.84278" lon="6.90521">
        <ele>1140.9</ele>
        <time>2021-08-09T13:21:45Z</time>
      </trkpt>
      <trkpt lat="47.84275" lon="6.90519">
        <ele>1141</ele>
        <time>2021-08-09T13:21:46Z</time>
      </trkpt>
      <trkpt lat="47.84273" lon="6.90518">
        <ele>1141.1</ele>
        <time>2021-08-09T13:21:47Z</time>
      </trkpt>
      <trkpt lat="47.84271" lon="6.90517">
        <ele>1141.2</ele>
        <time>2021-08-09T13:21:49Z</time>
      </trkpt>
      <trkpt lat="47.84269" lon="6.90516">
        <ele>1141.2</ele>
        <time>2021-08-09T13:21:50Z</time>
      </trkpt>
      <trkpt lat="47.84268" lon="6.90514">
        <ele>1141.3</ele>
        <time>2021-08-09T13:21:51Z</time>
      </trkpt>
      <trkpt lat="47.84267" lon="6.90513">
        <ele>1141.3</ele>
        <time>2021-08-09T13:21:52Z</time>
      </trkpt>
      <trkpt lat="47.84265" lon="6.90511">
        <ele>1141.4</ele>
        <time>2021-08-09T13:21:54Z</time>
      </trkpt>
      <trkpt lat="47.84262" lon="6.90508">
        <ele>1141.5</ele>
        <time>2021-08-09T13:21:55Z</time>
      </trkpt>
      <trkpt lat="47.84261" lon="6.90506">
        <ele>1141.5</ele>
        <time>2021-08-09T13:21:56Z</time>
      </trkpt>
      <trkpt lat="47.84259" lon="6.90504">
        <ele>1141.6</ele>
        <time>2021-08-09T13:21:57Z</time>
      </trkpt>
      <trkpt lat="47.84257" lon="6.905">
        <ele>1141.7</ele>
        <time>2021-08-09T13:21:59Z</time>
      </trkpt>
      <trkpt lat="47.84256" lon="6.90496">
        <ele>1141.8</ele>
        <time>2021-08-09T13:22:00Z</time>
      </trkpt>
      <trkpt lat="47.84255" lon="6.90494">
        <ele>1141.8</ele>
        <time>2021-08-09T13:22:01Z</time>
      </trkpt>
      <trkpt lat="47.84255" lon="6.9049">
        <ele>1141.8</ele>
        <time>2021-08-09T13:22:03Z</time>
      </trkpt>
      <trkpt lat="47.84255" lon="6.90489">
        <ele>1141.9</ele>
        <time>2021-08-09T13:22:04Z</time>
      </trkpt>
      <trkpt lat="47.84254" lon="6.90488">
        <ele>1141.9</ele>
        <time>2021-08-09T13:22:05Z</time>
      </trkpt>
      <trkpt lat="47.84253" lon="6.90487">
        <ele>1141.9</ele>
        <time>2021-08-09T13:22:06Z</time>
      </trkpt>
      <trkpt lat="47.84252" lon="6.90485">
        <ele>1141.9</ele>
        <time>2021-08-09T13:22:08Z</time>
      </trkpt>
      <trkpt lat="47.84252" lon="6.90482">
        <ele>1142</ele>
        <time>2021-08-09T13:22:09Z</time>
      </trkpt>
      <trkpt lat="47.84251" lon="6.90481">
        <ele>1142</ele>
        <time>2021-08-09T13:22:10Z</time>
      </trkpt>
      <trkpt lat="47.84251" lon="6.9048">
        <ele>1142</ele>
        <time>2021-08-09T13:22:11Z</time>
      </trkpt>
      <trkpt lat="47.84251" lon="6.90479">
        <ele>1142</ele>
        <time>2021-08-09T13:22:13Z</time>
      </trkpt>
      <trkpt lat="47.84251" lon="6.90477">
        <ele>1142</ele>
        <time>2021-08-09T13:22:14Z</time>
      </trkpt>
      <trkpt lat="47.84251" lon="6.90476">
        <ele>1142</ele>
        <time>2021-08-09T13:22:15Z</time>
      </trkpt>
      <trkpt lat="47.8425" lon="6.90469">
        <ele>1142</ele>
        <time>2021-08-09T13:22:17Z</time>
      </trkpt>
      <trkpt lat="47.8425" lon="6.90464">
        <ele>1142.1</ele>
        <time>2021-08-09T13:22:18Z</time>
      </trkpt>
      <trkpt lat="47.84251" lon="6.90461">
        <ele>1142.1</ele>
        <time>2021-08-09T13:22:19Z</time>
      </trkpt>
      <trkpt lat="47.84251" lon="6.90459">
        <ele>1142.1</ele>
        <time>2021-08-09T13:22:20Z</time>
      </trkpt>
      <trkpt lat="47.8425" lon="6.90451">
        <ele>1142.1</ele>
        <time>2021-08-09T13:22:22Z</time>
      </trkpt>
      <trkpt lat="47.84248" lon="6.90448">
        <ele>1142.1</ele>
        <time>2021-08-09T13:22:23Z</time>
      </trkpt>
      <trkpt lat="47.84245" lon="6.90444">
        <ele>1142.1</ele>
        <time>2021-08-09T13:22:25Z</time>
      </trkpt>
      <trkpt lat="47.84242" lon="6.90441">
        <ele>1142.2</ele>
        <time>2021-08-09T13:22:26Z</time>
      </trkpt>
      <trkpt lat="47.84238" lon="6.90434">
        <ele>1142.2</ele>
        <time>2021-08-09T13:22:27Z</time>
      </trkpt>
      <trkpt lat="47.84234" lon="6.90428">
        <ele>1142.3</ele>
        <time>2021-08-09T13:22:29Z</time>
      </trkpt>
      <trkpt lat="47.84231" lon="6.90425">
        <ele>1142.3</ele>
        <time>2021-08-09T13:22:30Z</time>
      </trkpt>
      <trkpt lat="47.84229" lon="6.9042">
        <ele>1142.4</ele>
        <time>2021-08-09T13:22:31Z</time>
      </trkpt>
      <trkpt lat="47.84226" lon="6.90415">
        <ele>1142.4</ele>
        <time>2021-08-09T13:22:32Z</time>
      </trkpt>
      <trkpt lat="47.84224" lon="6.90411">
        <ele>1142.5</ele>
        <time>2021-08-09T13:22:33Z</time>
      </trkpt>
      <trkpt lat="47.8422" lon="6.90403">
        <ele>1142.5</ele>
        <time>2021-08-09T13:22:35Z</time>
      </trkpt>
      <trkpt lat="47.84216" lon="6.90397">
        <ele>1142.6</ele>
        <time>2021-08-09T13:22:36Z</time>
      </trkpt>
      <trkpt lat="47.84211" lon="6.90392">
        <ele>1142.6</ele>
        <time>2021-08-09T13:22:37Z</time>
      </trkpt>
      <trkpt lat="47.84206" lon="6.90389">
        <ele>1142.6</ele>
        <time>2021-08-09T13:22:38Z</time>
      </trkpt>
      <trkpt lat="47.84201" lon="6.90386">
        <ele>1142.7</ele>
        <time>2021-08-09T13:22:40Z</time>
      </trkpt>
      <trkpt lat="47.84196" lon="6.90384">
        <ele>1142.8</ele>
        <time>2021-08-09T13:22:41Z</time>
      </trkpt>
      <trkpt lat="47.84192" lon="6.90381">
        <ele>1142.8</ele>
        <time>2021-08-09T13:22:42Z</time>
      </trkpt>
      <trkpt lat="47.84187" lon="6.90377">
        <ele>1142.9</ele>
        <time>2021-08-09T13:22:43Z</time>
      </trkpt>
      <trkpt lat="47.84183" lon="6.90372">
        <ele>1143</ele>
        <time>2021-08-09T13:22:45Z</time>
      </trkpt>
      <trkpt lat="47.84179" lon="6.90367">
        <ele>1143</ele>
        <time>2021-08-09T13:22:46Z</time>
      </trkpt>
      <trkpt lat="47.84174" lon="6.90363">
        <ele>1143.1</ele>
        <time>2021-08-09T13:22:48Z</time>
      </trkpt>
      <trkpt lat="47.8417" lon="6.9036">
        <ele>1143.1</ele>
        <time>2021-08-09T13:22:49Z</time>
      </trkpt>
      <trkpt lat="47.84164" lon="6.90354">
        <ele>1143.2</ele>
        <time>2021-08-09T13:22:51Z</time>
      </trkpt>
      <trkpt lat="47.84159" lon="6.90351">
        <ele>1143.3</ele>
        <time>2021-08-09T13:22:52Z</time>
      </trkpt>
      <trkpt lat="47.84155" lon="6.90348">
        <ele>1143.4</ele>
        <time>2021-08-09T13:22:53Z</time>
      </trkpt>
      <trkpt lat="47.8415" lon="6.90345">
        <ele>1143.4</ele>
        <time>2021-08-09T13:22:55Z</time>
      </trkpt>
      <trkpt lat="47.84144" lon="6.90342">
        <ele>1143.5</ele>
        <time>2021-08-09T13:22:57Z</time>
      </trkpt>
      <trkpt lat="47.84141" lon="6.90341">
        <ele>1143.6</ele>
        <time>2021-08-09T13:22:58Z</time>
      </trkpt>
      <trkpt lat="47.84137" lon="6.9034">
        <ele>1143.6</ele>
        <time>2021-08-09T13:22:59Z</time>
      </trkpt>
      <trkpt lat="47.84134" lon="6.90338">
        <ele>1143.6</ele>
        <time>2021-08-09T13:23:00Z</time>
      </trkpt>
      <trkpt lat="47.8413" lon="6.90336">
        <ele>1143.6</ele>
        <time>2021-08-09T13:23:01Z</time>
      </trkpt>
      <trkpt lat="47.84126" lon="6.90333">
        <ele>1143.6</ele>
        <time>2021-08-09T13:23:02Z</time>
      </trkpt>
      <trkpt lat="47.84122" lon="6.9033">
        <ele>1143.6</ele>
        <time>2021-08-09T13:23:04Z</time>
      </trkpt>
      <trkpt lat="47.84118" lon="6.90327">
        <ele>1143.6</ele>
        <time>2021-08-09T13:23:05Z</time>
      </trkpt>
      <trkpt lat="47.84112" lon="6.90323">
        <ele>1143.5</ele>
        <time>2021-08-09T13:23:07Z</time>
      </trkpt>
      <trkpt lat="47.84107" lon="6.90318">
        <ele>1143.4</ele>
        <time>2021-08-09T13:23:08Z</time>
      </trkpt>
      <trkpt lat="47.84102" lon="6.90312">
        <ele>1143.3</ele>
        <time>2021-08-09T13:23:10Z</time>
      </trkpt>
      <trkpt lat="47.84099" lon="6.90309">
        <ele>1143.2</ele>
        <time>2021-08-09T13:23:11Z</time>
      </trkpt>
      <trkpt lat="47.84097" lon="6.90307">
        <ele>1143.1</ele>
        <time>2021-08-09T13:23:12Z</time>
      </trkpt>
      <trkpt lat="47.84093" lon="6.90303">
        <ele>1143</ele>
        <time>2021-08-09T13:23:13Z</time>
      </trkpt>
      <trkpt lat="47.84092" lon="6.90302">
        <ele>1142.9</ele>
        <time>2021-08-09T13:23:14Z</time>
      </trkpt>
      <trkpt lat="47.84089" lon="6.90301">
        <ele>1142.8</ele>
        <time>2021-08-09T13:23:15Z</time>
      </trkpt>
      <trkpt lat="47.84084" lon="6.90299">
        <ele>1142.6</ele>
        <time>2021-08-09T13:23:17Z</time>
      </trkpt>
      <trkpt lat="47.8408" lon="6.90296">
        <ele>1142.4</ele>
        <time>2021-08-09T13:23:18Z</time>
      </trkpt>
      <trkpt lat="47.84074" lon="6.9029">
        <ele>1142</ele>
        <time>2021-08-09T13:23:20Z</time>
      </trkpt>
      <trkpt lat="47.8407" lon="6.90286">
        <ele>1141.7</ele>
        <time>2021-08-09T13:23:21Z</time>
      </trkpt>
      <trkpt lat="47.84066" lon="6.90281">
        <ele>1141.4</ele>
        <time>2021-08-09T13:23:23Z</time>
      </trkpt>
      <trkpt lat="47.84064" lon="6.90277">
        <ele>1141.1</ele>
        <time>2021-08-09T13:23:24Z</time>
      </trkpt>
      <trkpt lat="47.84061" lon="6.90273">
        <ele>1140.8</ele>
        <time>2021-08-09T13:23:25Z</time>
      </trkpt>
      <trkpt lat="47.84057" lon="6.90269">
        <ele>1140.4</ele>
        <time>2021-08-09T13:23:26Z</time>
      </trkpt>
      <trkpt lat="47.84053" lon="6.90262">
        <ele>1139.9</ele>
        <time>2021-08-09T13:23:28Z</time>
      </trkpt>
      <trkpt lat="47.84049" lon="6.90253">
        <ele>1139.3</ele>
        <time>2021-08-09T13:23:30Z</time>
      </trkpt>
      <trkpt lat="47.84047" lon="6.90249">
        <ele>1139</ele>
        <time>2021-08-09T13:23:31Z</time>
      </trkpt>
      <trkpt lat="47.84046" lon="6.9024">
        <ele>1138.9</ele>
        <time>2021-08-09T13:23:33Z</time>
      </trkpt>
      <trkpt lat="47.84046" lon="6.90235">
        <ele>1139</ele>
        <time>2021-08-09T13:23:35Z</time>
      </trkpt>
      <trkpt lat="47.84046" lon="6.90233">
        <ele>1139</ele>
        <time>2021-08-09T13:23:36Z</time>
      </trkpt>
      <trkpt lat="47.84048" lon="6.90229">
        <ele>1139</ele>
        <time>2021-08-09T13:23:38Z</time>
      </trkpt>
      <trkpt lat="47.84049" lon="6.9023">
        <ele>1139</ele>
        <time>2021-08-09T13:23:40Z</time>
      </trkpt>
      <trkpt lat="47.8405" lon="6.9023">
        <ele>1139</ele>
        <time>2021-08-09T13:23:42Z</time>
      </trkpt>
      <trkpt lat="47.8405" lon="6.9023">
        <ele>1139.1</ele>
        <time>2021-08-09T13:23:43Z</time>
      </trkpt>
      <trkpt lat="47.84051" lon="6.9023">
        <ele>1139.1</ele>
        <time>2021-08-09T13:23:44Z</time>
      </trkpt>
      <trkpt lat="47.84052" lon="6.9023">
        <ele>1139.1</ele>
        <time>2021-08-09T13:23:45Z</time>
      </trkpt>
      <trkpt lat="47.84054" lon="6.90229">
        <ele>1139.1</ele>
        <time>2021-08-09T13:23:47Z</time>
      </trkpt>
      <trkpt lat="47.84066" lon="6.90182">
        <ele>1138.1</ele>
        <time>2021-08-09T13:23:55Z</time>
      </trkpt>
      <trkpt lat="47.84066" lon="6.90172">
        <ele>1137.7</ele>
        <time>2021-08-09T13:23:56Z</time>
      </trkpt>
      <trkpt lat="47.84064" lon="6.90162">
        <ele>1137.2</ele>
        <time>2021-08-09T13:23:57Z</time>
      </trkpt>
      <trkpt lat="47.84062" lon="6.90157">
        <ele>1136.4</ele>
        <time>2021-08-09T13:23:59Z</time>
      </trkpt>
      <trkpt lat="47.84062" lon="6.90156">
        <ele>1136.1</ele>
        <time>2021-08-09T13:24:00Z</time>
      </trkpt>
      <trkpt lat="47.84061" lon="6.90154">
        <ele>1135.8</ele>
        <time>2021-08-09T13:24:02Z</time>
      </trkpt>
      <trkpt lat="47.84061" lon="6.90154">
        <ele>1135.8</ele>
        <time>2021-08-09T13:24:03Z</time>
      </trkpt>
      <trkpt lat="47.8406" lon="6.90154">
        <ele>1135.6</ele>
        <time>2021-08-09T13:24:04Z</time>
      </trkpt>
      <trkpt lat="47.84059" lon="6.90155">
        <ele>1135.4</ele>
        <time>2021-08-09T13:24:05Z</time>
      </trkpt>
      <trkpt lat="47.84056" lon="6.90152">
        <ele>1134.7</ele>
        <time>2021-08-09T13:24:07Z</time>
      </trkpt>
      <trkpt lat="47.84055" lon="6.90151">
        <ele>1134.3</ele>
        <time>2021-08-09T13:24:08Z</time>
      </trkpt>
      <trkpt lat="47.84054" lon="6.90149">
        <ele>1134.1</ele>
        <time>2021-08-09T13:24:10Z</time>
      </trkpt>
      <trkpt lat="47.84054" lon="6.90148">
        <ele>1133.9</ele>
        <time>2021-08-09T13:24:11Z</time>
      </trkpt>
      <trkpt lat="47.84053" lon="6.90146">
        <ele>1133.6</ele>
        <time>2021-08-09T13:24:12Z</time>
      </trkpt>
      <trkpt lat="47.84053" lon="6.90145">
        <ele>1133.4</ele>
        <time>2021-08-09T13:24:13Z</time>
      </trkpt>
      <trkpt lat="47.84046" lon="6.90115">
        <ele>1128.7</ele>
        <time>2021-08-09T13:24:20Z</time>
      </trkpt>
      <trkpt lat="47.84043" lon="6.9011">
        <ele>1127.6</ele>
        <time>2021-08-09T13:24:21Z</time>
      </trkpt>
      <trkpt lat="47.84038" lon="6.90103">
        <ele>1126.1</ele>
        <time>2021-08-09T13:24:23Z</time>
      </trkpt>
      <trkpt lat="47.84034" lon="6.90098">
        <ele>1125.1</ele>
        <time>2021-08-09T13:24:24Z</time>
      </trkpt>
      <trkpt lat="47.84031" lon="6.90094">
        <ele>1124.3</ele>
        <time>2021-08-09T13:24:25Z</time>
      </trkpt>
      <trkpt lat="47.84029" lon="6.90091">
        <ele>1123.8</ele>
        <time>2021-08-09T13:24:26Z</time>
      </trkpt>
      <trkpt lat="47.84025" lon="6.90088">
        <ele>1123.1</ele>
        <time>2021-08-09T13:24:28Z</time>
      </trkpt>
      <trkpt lat="47.84022" lon="6.90086">
        <ele>1122.6</ele>
        <time>2021-08-09T13:24:29Z</time>
      </trkpt>
      <trkpt lat="47.84018" lon="6.90083">
        <ele>1121.9</ele>
        <time>2021-08-09T13:24:30Z</time>
      </trkpt>
      <trkpt lat="47.84015" lon="6.90083">
        <ele>1121.5</ele>
        <time>2021-08-09T13:24:31Z</time>
      </trkpt>
      <trkpt lat="47.84012" lon="6.90084">
        <ele>1121.1</ele>
        <time>2021-08-09T13:24:32Z</time>
      </trkpt>
      <trkpt lat="47.84009" lon="6.90084">
        <ele>1120.9</ele>
        <time>2021-08-09T13:24:34Z</time>
      </trkpt>
      <trkpt lat="47.84008" lon="6.90085">
        <ele>1120.7</ele>
        <time>2021-08-09T13:24:35Z</time>
      </trkpt>
      <trkpt lat="47.84006" lon="6.90082">
        <ele>1120.2</ele>
        <time>2021-08-09T13:24:37Z</time>
      </trkpt>
      <trkpt lat="47.84006" lon="6.90081">
        <ele>1120</ele>
        <time>2021-08-09T13:24:38Z</time>
      </trkpt>
      <trkpt lat="47.84004" lon="6.90077">
        <ele>1119.5</ele>
        <time>2021-08-09T13:24:39Z</time>
      </trkpt>
      <trkpt lat="47.84004" lon="6.90072">
        <ele>1118.9</ele>
        <time>2021-08-09T13:24:41Z</time>
      </trkpt>
      <trkpt lat="47.84003" lon="6.90067">
        <ele>1118.2</ele>
        <time>2021-08-09T13:24:42Z</time>
      </trkpt>
      <trkpt lat="47.84003" lon="6.90063">
        <ele>1117.7</ele>
        <time>2021-08-09T13:24:43Z</time>
      </trkpt>
      <trkpt lat="47.84001" lon="6.90057">
        <ele>1116.8</ele>
        <time>2021-08-09T13:24:44Z</time>
      </trkpt>
      <trkpt lat="47.84" lon="6.90054">
        <ele>1116.3</ele>
        <time>2021-08-09T13:24:45Z</time>
      </trkpt>
      <trkpt lat="47.83997" lon="6.9005">
        <ele>1115.6</ele>
        <time>2021-08-09T13:24:47Z</time>
      </trkpt>
      <trkpt lat="47.83995" lon="6.90045">
        <ele>1113.9</ele>
        <time>2021-08-09T13:24:49Z</time>
      </trkpt>
      <trkpt lat="47.83993" lon="6.90039">
        <ele>1113.1</ele>
        <time>2021-08-09T13:24:50Z</time>
      </trkpt>
      <trkpt lat="47.83991" lon="6.90035">
        <ele>1112.5</ele>
        <time>2021-08-09T13:24:52Z</time>
      </trkpt>
      <trkpt lat="47.8399" lon="6.90031">
        <ele>1112</ele>
        <time>2021-08-09T13:24:54Z</time>
      </trkpt>
      <trkpt lat="47.83988" lon="6.90027">
        <ele>1111.4</ele>
        <time>2021-08-09T13:24:56Z</time>
      </trkpt>
      <trkpt lat="47.83987" lon="6.90023">
        <ele>1110.7</ele>
        <time>2021-08-09T13:24:58Z</time>
      </trkpt>
      <trkpt lat="47.83985" lon="6.90018">
        <ele>1110.1</ele>
        <time>2021-08-09T13:24:59Z</time>
      </trkpt>
      <trkpt lat="47.83983" lon="6.90014">
        <ele>1109.5</ele>
        <time>2021-08-09T13:25:00Z</time>
      </trkpt>
      <trkpt lat="47.83982" lon="6.9001">
        <ele>1108.9</ele>
        <time>2021-08-09T13:25:25Z</time>
      </trkpt>
      <trkpt lat="47.8398" lon="6.90006">
        <ele>1108.3</ele>
        <time>2021-08-09T13:25:26Z</time>
      </trkpt>
      <trkpt lat="47.83976" lon="6.90007">
        <ele>1107.6</ele>
        <time>2021-08-09T13:25:28Z</time>
      </trkpt>
      <trkpt lat="47.83975" lon="6.90013">
        <ele>1106.8</ele>
        <time>2021-08-09T13:25:30Z</time>
      </trkpt>
      <trkpt lat="47.83976" lon="6.90016">
        <ele>1106.5</ele>
        <time>2021-08-09T13:25:31Z</time>
      </trkpt>
      <trkpt lat="47.83976" lon="6.90019">
        <ele>1106.2</ele>
        <time>2021-08-09T13:25:32Z</time>
      </trkpt>
      <trkpt lat="47.83978" lon="6.90023">
        <ele>1105.8</ele>
        <time>2021-08-09T13:25:33Z</time>
      </trkpt>
      <trkpt lat="47.83981" lon="6.90028">
        <ele>1105.3</ele>
        <time>2021-08-09T13:25:35Z</time>
      </trkpt>
      <trkpt lat="47.83977" lon="6.9002">
        <ele>1104.6</ele>
        <time>2021-08-09T13:25:37Z</time>
      </trkpt>
      <trkpt lat="47.83972" lon="6.90006">
        <ele>1103.9</ele>
        <time>2021-08-09T13:26:29Z</time>
      </trkpt>
      <trkpt lat="47.83966" lon="6.89992">
        <ele>1103.4</ele>
        <time>2021-08-09T13:26:30Z</time>
      </trkpt>
      <trkpt lat="47.83958" lon="6.89986">
        <ele>1102.9</ele>
        <time>2021-08-09T13:26:32Z</time>
      </trkpt>
      <trkpt lat="47.83952" lon="6.89979">
        <ele>1102.6</ele>
        <time>2021-08-09T13:26:34Z</time>
      </trkpt>
      <trkpt lat="47.8395" lon="6.89975">
        <ele>1102.4</ele>
        <time>2021-08-09T13:26:35Z</time>
      </trkpt>
      <trkpt lat="47.83949" lon="6.89974">
        <ele>1102.4</ele>
        <time>2021-08-09T13:26:36Z</time>
      </trkpt>
      <trkpt lat="47.83947" lon="6.89971">
        <ele>1102.2</ele>
        <time>2021-08-09T13:26:38Z</time>
      </trkpt>
      <trkpt lat="47.83942" lon="6.89967">
        <ele>1101.9</ele>
        <time>2021-08-09T13:26:39Z</time>
      </trkpt>
      <trkpt lat="47.83937" lon="6.89961">
        <ele>1101.6</ele>
        <time>2021-08-09T13:26:40Z</time>
      </trkpt>
      <trkpt lat="47.8393" lon="6.89956">
        <ele>1101.2</ele>
        <time>2021-08-09T13:26:41Z</time>
      </trkpt>
      <trkpt lat="47.83921" lon="6.89948">
        <ele>1100.6</ele>
        <time>2021-08-09T13:26:42Z</time>
      </trkpt>
      <trkpt lat="47.83901" lon="6.89926">
        <ele>1099</ele>
        <time>2021-08-09T13:26:44Z</time>
      </trkpt>
      <trkpt lat="47.83886" lon="6.89914">
        <ele>1098.6</ele>
        <time>2021-08-09T13:26:46Z</time>
      </trkpt>
      <trkpt lat="47.83878" lon="6.89905">
        <ele>1098.6</ele>
        <time>2021-08-09T13:26:48Z</time>
      </trkpt>
      <trkpt lat="47.83875" lon="6.89901">
        <ele>1098.6</ele>
        <time>2021-08-09T13:26:49Z</time>
      </trkpt>
      <trkpt lat="47.83872" lon="6.89895">
        <ele>1098.8</ele>
        <time>2021-08-09T13:26:51Z</time>
      </trkpt>
      <trkpt lat="47.8387" lon="6.89891">
        <ele>1098.9</ele>
        <time>2021-08-09T13:26:52Z</time>
      </trkpt>
      <trkpt lat="47.8387" lon="6.8989">
        <ele>1098.9</ele>
        <time>2021-08-09T13:26:53Z</time>
      </trkpt>
      <trkpt lat="47.83869" lon="6.8989">
        <ele>1099</ele>
        <time>2021-08-09T13:26:54Z</time>
      </trkpt>
      <trkpt lat="47.83868" lon="6.89893">
        <ele>1099.1</ele>
        <time>2021-08-09T13:26:56Z</time>
      </trkpt>
      <trkpt lat="47.83867" lon="6.89894">
        <ele>1099.1</ele>
        <time>2021-08-09T13:26:58Z</time>
      </trkpt>
      <trkpt lat="47.83867" lon="6.89894">
        <ele>1099.1</ele>
        <time>2021-08-09T13:27:00Z</time>
      </trkpt>
      <trkpt lat="47.83867" lon="6.89894">
        <ele>1099.1</ele>
        <time>2021-08-09T13:27:01Z</time>
      </trkpt>
      <trkpt lat="47.83868" lon="6.89894">
        <ele>1099.1</ele>
        <time>2021-08-09T13:27:02Z</time>
      </trkpt>
      <trkpt lat="47.83867" lon="6.89894">
        <ele>1099.2</ele>
        <time>2021-08-09T13:27:03Z</time>
      </trkpt>
      <trkpt lat="47.83839" lon="6.89889">
        <ele>1101.7</ele>
        <time>2021-08-09T13:27:32Z</time>
      </trkpt>
      <trkpt lat="47.83836" lon="6.89887">
        <ele>1102.1</ele>
        <time>2021-08-09T13:27:33Z</time>
      </trkpt>
      <trkpt lat="47.83835" lon="6.89884">
        <ele>1102.4</ele>
        <time>2021-08-09T13:27:34Z</time>
      </trkpt>
      <trkpt lat="47.83834" lon="6.89882">
        <ele>1102.7</ele>
        <time>2021-08-09T13:27:36Z</time>
      </trkpt>
      <trkpt lat="47.83832" lon="6.89878">
        <ele>1103</ele>
        <time>2021-08-09T13:27:37Z</time>
      </trkpt>
      <trkpt lat="47.83831" lon="6.89874">
        <ele>1103.5</ele>
        <time>2021-08-09T13:27:39Z</time>
      </trkpt>
      <trkpt lat="47.83829" lon="6.89869">
        <ele>1104.1</ele>
        <time>2021-08-09T13:27:40Z</time>
      </trkpt>
      <trkpt lat="47.83828" lon="6.89868">
        <ele>1104.2</ele>
        <time>2021-08-09T13:27:41Z</time>
      </trkpt>
      <trkpt lat="47.83827" lon="6.89866">
        <ele>1104.4</ele>
        <time>2021-08-09T13:27:42Z</time>
      </trkpt>
      <trkpt lat="47.83827" lon="6.89864">
        <ele>1104.6</ele>
        <time>2021-08-09T13:27:43Z</time>
      </trkpt>
      <trkpt lat="47.83824" lon="6.8986">
        <ele>1105.2</ele>
        <time>2021-08-09T13:27:45Z</time>
      </trkpt>
      <trkpt lat="47.83823" lon="6.89858">
        <ele>1105.5</ele>
        <time>2021-08-09T13:27:46Z</time>
      </trkpt>
      <trkpt lat="47.83822" lon="6.89857">
        <ele>1105.7</ele>
        <time>2021-08-09T13:27:47Z</time>
      </trkpt>
      <trkpt lat="47.83822" lon="6.89858">
        <ele>1105.9</ele>
        <time>2021-08-09T13:27:49Z</time>
      </trkpt>
      <trkpt lat="47.83823" lon="6.89861">
        <ele>1106.2</ele>
        <time>2021-08-09T13:27:50Z</time>
      </trkpt>
      <trkpt lat="47.83823" lon="6.89862">
        <ele>1106.3</ele>
        <time>2021-08-09T13:27:52Z</time>
      </trkpt>
      <trkpt lat="47.83822" lon="6.89862">
        <ele>1106.3</ele>
        <time>2021-08-09T13:27:53Z</time>
      </trkpt>
      <trkpt lat="47.83822" lon="6.89863">
        <ele>1106.5</ele>
        <time>2021-08-09T13:27:54Z</time>
      </trkpt>
      <trkpt lat="47.8382" lon="6.89865">
        <ele>1106.9</ele>
        <time>2021-08-09T13:27:56Z</time>
      </trkpt>
      <trkpt lat="47.83817" lon="6.89866">
        <ele>1107.4</ele>
        <time>2021-08-09T13:27:58Z</time>
      </trkpt>
      <trkpt lat="47.83813" lon="6.89864">
        <ele>1108.1</ele>
        <time>2021-08-09T13:28:00Z</time>
      </trkpt>
      <trkpt lat="47.8381" lon="6.89862">
        <ele>1108.8</ele>
        <time>2021-08-09T13:28:01Z</time>
      </trkpt>
      <trkpt lat="47.83805" lon="6.89858">
        <ele>1110.1</ele>
        <time>2021-08-09T13:28:03Z</time>
      </trkpt>
      <trkpt lat="47.83803" lon="6.89856">
        <ele>1110.6</ele>
        <time>2021-08-09T13:28:05Z</time>
      </trkpt>
      <trkpt lat="47.838" lon="6.89851">
        <ele>1111.4</ele>
        <time>2021-08-09T13:28:07Z</time>
      </trkpt>
      <trkpt lat="47.83799" lon="6.89849">
        <ele>1111.9</ele>
        <time>2021-08-09T13:28:08Z</time>
      </trkpt>
      <trkpt lat="47.83799" lon="6.89848">
        <ele>1112.1</ele>
        <time>2021-08-09T13:28:10Z</time>
      </trkpt>
      <trkpt lat="47.83798" lon="6.89847">
        <ele>1112.2</ele>
        <time>2021-08-09T13:28:11Z</time>
      </trkpt>
      <trkpt lat="47.83798" lon="6.89848">
        <ele>1112.2</ele>
        <time>2021-08-09T13:28:13Z</time>
      </trkpt>
      <trkpt lat="47.83798" lon="6.89848">
        <ele>1112.2</ele>
        <time>2021-08-09T13:28:14Z</time>
      </trkpt>
      <trkpt lat="47.83798" lon="6.89848">
        <ele>1112.3</ele>
        <time>2021-08-09T13:28:16Z</time>
      </trkpt>
      <trkpt lat="47.83798" lon="6.89848">
        <ele>1112.3</ele>
        <time>2021-08-09T13:28:18Z</time>
      </trkpt>
      <trkpt lat="47.83798" lon="6.89848">
        <ele>1112.3</ele>
        <time>2021-08-09T13:28:20Z</time>
      </trkpt>
      <trkpt lat="47.83798" lon="6.89846">
        <ele>1112.7</ele>
        <time>2021-08-09T13:28:22Z</time>
      </trkpt>
      <trkpt lat="47.83786" lon="6.8985">
        <ele>1115.2</ele>
        <time>2021-08-09T13:29:12Z</time>
      </trkpt>
      <trkpt lat="47.83787" lon="6.89851">
        <ele>1115.4</ele>
        <time>2021-08-09T13:29:13Z</time>
      </trkpt>
      <trkpt lat="47.83787" lon="6.89852">
        <ele>1115.6</ele>
        <time>2021-08-09T13:29:14Z</time>
      </trkpt>
      <trkpt lat="47.83789" lon="6.89855">
        <ele>1116</ele>
        <time>2021-08-09T13:29:16Z</time>
      </trkpt>
      <trkpt lat="47.83789" lon="6.89857">
        <ele>1116.2</ele>
        <time>2021-08-09T13:29:18Z</time>
      </trkpt>
      <trkpt lat="47.83789" lon="6.89859">
        <ele>1116.5</ele>
        <time>2021-08-09T13:29:20Z</time>
      </trkpt>
      <trkpt lat="47.8379" lon="6.89861">
        <ele>1116.7</ele>
        <time>2021-08-09T13:29:22Z</time>
      </trkpt>
      <trkpt lat="47.83791" lon="6.89862">
        <ele>1116.8</ele>
        <time>2021-08-09T13:29:24Z</time>
      </trkpt>
      <trkpt lat="47.83791" lon="6.89863">
        <ele>1116.9</ele>
        <time>2021-08-09T13:29:25Z</time>
      </trkpt>
      <trkpt lat="47.83791" lon="6.89863">
        <ele>1116.9</ele>
        <time>2021-08-09T13:29:26Z</time>
      </trkpt>
      <trkpt lat="47.83789" lon="6.89862">
        <ele>1117.1</ele>
        <time>2021-08-09T13:29:28Z</time>
      </trkpt>
      <trkpt lat="47.83695" lon="6.89836">
        <ele>1122.4</ele>
        <time>2021-08-09T13:31:25Z</time>
      </trkpt>
      <trkpt lat="47.83691" lon="6.89835">
        <ele>1122.4</ele>
        <time>2021-08-09T13:31:26Z</time>
      </trkpt>
      <trkpt lat="47.8368" lon="6.89829">
        <ele>1122.6</ele>
        <time>2021-08-09T13:31:28Z</time>
      </trkpt>
      <trkpt lat="47.83675" lon="6.89826">
        <ele>1122.9</ele>
        <time>2021-08-09T13:31:29Z</time>
      </trkpt>
      <trkpt lat="47.83671" lon="6.89824">
        <ele>1123.1</ele>
        <time>2021-08-09T13:31:30Z</time>
      </trkpt>
      <trkpt lat="47.83667" lon="6.89821">
        <ele>1123.4</ele>
        <time>2021-08-09T13:31:32Z</time>
      </trkpt>
      <trkpt lat="47.83664" lon="6.89821">
        <ele>1123.6</ele>
        <time>2021-08-09T13:31:33Z</time>
      </trkpt>
      <trkpt lat="47.83662" lon="6.89821">
        <ele>1123.8</ele>
        <time>2021-08-09T13:31:34Z</time>
      </trkpt>
      <trkpt lat="47.8366" lon="6.8982">
        <ele>1123.9</ele>
        <time>2021-08-09T13:31:35Z</time>
      </trkpt>
      <trkpt lat="47.83657" lon="6.89819">
        <ele>1124.1</ele>
        <time>2021-08-09T13:31:37Z</time>
      </trkpt>
      <trkpt lat="47.83655" lon="6.89819">
        <ele>1124.2</ele>
        <time>2021-08-09T13:31:39Z</time>
      </trkpt>
      <trkpt lat="47.83654" lon="6.8982">
        <ele>1124.2</ele>
        <time>2021-08-09T13:31:40Z</time>
      </trkpt>
      <trkpt lat="47.83651" lon="6.89821">
        <ele>1124.4</ele>
        <time>2021-08-09T13:31:42Z</time>
      </trkpt>
      <trkpt lat="47.8365" lon="6.89821">
        <ele>1124.4</ele>
        <time>2021-08-09T13:31:43Z</time>
      </trkpt>
      <trkpt lat="47.83649" lon="6.89821">
        <ele>1124.4</ele>
        <time>2021-08-09T13:31:44Z</time>
      </trkpt>
      <trkpt lat="47.83647" lon="6.89821">
        <ele>1124.5</ele>
        <time>2021-08-09T13:31:46Z</time>
      </trkpt>
      <trkpt lat="47.83646" lon="6.89821">
        <ele>1124.5</ele>
        <time>2021-08-09T13:31:47Z</time>
      </trkpt>
      <trkpt lat="47.83645" lon="6.8982">
        <ele>1124.5</ele>
        <time>2021-08-09T13:31:48Z</time>
      </trkpt>
      <trkpt lat="47.83644" lon="6.8982">
        <ele>1124.5</ele>
        <time>2021-08-09T13:31:49Z</time>
      </trkpt>
      <trkpt lat="47.83607" lon="6.89788">
        <ele>1123.5</ele>
        <time>2021-08-09T13:32:23Z</time>
      </trkpt>
      <trkpt lat="47.83603" lon="6.8979">
        <ele>1123.5</ele>
        <time>2021-08-09T13:32:24Z</time>
      </trkpt>
      <trkpt lat="47.83595" lon="6.89793">
        <ele>1123.3</ele>
        <time>2021-08-09T13:32:26Z</time>
      </trkpt>
      <trkpt lat="47.83589" lon="6.89797">
        <ele>1123.1</ele>
        <time>2021-08-09T13:32:27Z</time>
      </trkpt>
      <trkpt lat="47.83581" lon="6.89799">
        <ele>1122.6</ele>
        <time>2021-08-09T13:32:29Z</time>
      </trkpt>
      <trkpt lat="47.83576" lon="6.89801">
        <ele>1122.2</ele>
        <time>2021-08-09T13:32:30Z</time>
      </trkpt>
      <trkpt lat="47.83571" lon="6.89802">
        <ele>1121.8</ele>
        <time>2021-08-09T13:32:31Z</time>
      </trkpt>
      <trkpt lat="47.83567" lon="6.89801">
        <ele>1121.5</ele>
        <time>2021-08-09T13:32:32Z</time>
      </trkpt>
      <trkpt lat="47.83562" lon="6.89801">
        <ele>1121</ele>
        <time>2021-08-09T13:32:34Z</time>
      </trkpt>
      <trkpt lat="47.83558" lon="6.89801">
        <ele>1120.7</ele>
        <time>2021-08-09T13:32:35Z</time>
      </trkpt>
      <trkpt lat="47.83554" lon="6.89801">
        <ele>1120.4</ele>
        <time>2021-08-09T13:32:36Z</time>
      </trkpt>
      <trkpt lat="47.8355" lon="6.898">
        <ele>1120.3</ele>
        <time>2021-08-09T13:32:37Z</time>
      </trkpt>
      <trkpt lat="47.83548" lon="6.898">
        <ele>1120.1</ele>
        <time>2021-08-09T13:32:38Z</time>
      </trkpt>
      <trkpt lat="47.83544" lon="6.89798">
        <ele>1120</ele>
        <time>2021-08-09T13:32:40Z</time>
      </trkpt>
      <trkpt lat="47.83539" lon="6.89796">
        <ele>1120</ele>
        <time>2021-08-09T13:32:42Z</time>
      </trkpt>
      <trkpt lat="47.83536" lon="6.89795">
        <ele>1120.1</ele>
        <time>2021-08-09T13:32:44Z</time>
      </trkpt>
      <trkpt lat="47.83534" lon="6.89795">
        <ele>1120.1</ele>
        <time>2021-08-09T13:32:46Z</time>
      </trkpt>
      <trkpt lat="47.83533" lon="6.89794">
        <ele>1120.1</ele>
        <time>2021-08-09T13:32:47Z</time>
      </trkpt>
      <trkpt lat="47.83531" lon="6.89792">
        <ele>1120.3</ele>
        <time>2021-08-09T13:32:49Z</time>
      </trkpt>
      <trkpt lat="47.83529" lon="6.89791">
        <ele>1120.3</ele>
        <time>2021-08-09T13:32:50Z</time>
      </trkpt>
      <trkpt lat="47.83527" lon="6.8979">
        <ele>1120.5</ele>
        <time>2021-08-09T13:32:52Z</time>
      </trkpt>
      <trkpt lat="47.83526" lon="6.8979">
        <ele>1120.5</ele>
        <time>2021-08-09T13:32:53Z</time>
      </trkpt>
      <trkpt lat="47.83524" lon="6.8979">
        <ele>1120.6</ele>
        <time>2021-08-09T13:32:55Z</time>
      </trkpt>
      <trkpt lat="47.83524" lon="6.8979">
        <ele>1120.6</ele>
        <time>2021-08-09T13:32:56Z</time>
      </trkpt>
      <trkpt lat="47.83522" lon="6.8979">
        <ele>1120.7</ele>
        <time>2021-08-09T13:32:58Z</time>
      </trkpt>
      <trkpt lat="47.83518" lon="6.8979">
        <ele>1120.8</ele>
        <time>2021-08-09T13:33:00Z</time>
      </trkpt>
      <trkpt lat="47.83484" lon="6.89783">
        <ele>1121.9</ele>
        <time>2021-08-09T13:33:22Z</time>
      </trkpt>
      <trkpt lat="47.83483" lon="6.89782">
        <ele>1121.9</ele>
        <time>2021-08-09T13:33:23Z</time>
      </trkpt>
      <trkpt lat="47.83481" lon="6.89782">
        <ele>1121.9</ele>
        <time>2021-08-09T13:33:24Z</time>
      </trkpt>
      <trkpt lat="47.83478" lon="6.8978">
        <ele>1121.9</ele>
        <time>2021-08-09T13:33:25Z</time>
      </trkpt>
      <trkpt lat="47.83472" lon="6.89778">
        <ele>1121.8</ele>
        <time>2021-08-09T13:33:27Z</time>
      </trkpt>
      <trkpt lat="47.83466" lon="6.89777">
        <ele>1121.6</ele>
        <time>2021-08-09T13:33:28Z</time>
      </trkpt>
      <trkpt lat="47.83455" lon="6.89777">
        <ele>1121</ele>
        <time>2021-08-09T13:33:30Z</time>
      </trkpt>
      <trkpt lat="47.83449" lon="6.89777">
        <ele>1120.6</ele>
        <time>2021-08-09T13:33:31Z</time>
      </trkpt>
      <trkpt lat="47.83445" lon="6.89777">
        <ele>1120.3</ele>
        <time>2021-08-09T13:33:32Z</time>
      </trkpt>
      <trkpt lat="47.83439" lon="6.89777">
        <ele>1119.8</ele>
        <time>2021-08-09T13:33:34Z</time>
      </trkpt>
      <trkpt lat="47.83434" lon="6.89777">
        <ele>1119.2</ele>
        <time>2021-08-09T13:33:36Z</time>
      </trkpt>
      <trkpt lat="47.8343" lon="6.89776">
        <ele>1118.8</ele>
        <time>2021-08-09T13:33:37Z</time>
      </trkpt>
      <trkpt lat="47.83429" lon="6.89775">
        <ele>1118.6</ele>
        <time>2021-08-09T13:33:38Z</time>
      </trkpt>
      <trkpt lat="47.83422" lon="6.89773">
        <ele>1117.8</ele>
        <time>2021-08-09T13:33:40Z</time>
      </trkpt>
      <trkpt lat="47.83417" lon="6.89773">
        <ele>1117.1</ele>
        <time>2021-08-09T13:33:41Z</time>
      </trkpt>
      <trkpt lat="47.83411" lon="6.89772">
        <ele>1116.4</ele>
        <time>2021-08-09T13:33:42Z</time>
      </trkpt>
      <trkpt lat="47.83406" lon="6.89771">
        <ele>1115.7</ele>
        <time>2021-08-09T13:33:43Z</time>
      </trkpt>
      <trkpt lat="47.83401" lon="6.89769">
        <ele>1114.9</ele>
        <time>2021-08-09T13:33:44Z</time>
      </trkpt>
      <trkpt lat="47.83396" lon="6.89769">
        <ele>1114.3</ele>
        <time>2021-08-09T13:33:45Z</time>
      </trkpt>
      <trkpt lat="47.8339" lon="6.89766">
        <ele>1113.3</ele>
        <time>2021-08-09T13:33:47Z</time>
      </trkpt>
      <trkpt lat="47.83385" lon="6.89764">
        <ele>1112.5</ele>
        <time>2021-08-09T13:33:48Z</time>
      </trkpt>
      <trkpt lat="47.83382" lon="6.89762">
        <ele>1111.9</ele>
        <time>2021-08-09T13:33:49Z</time>
      </trkpt>
      <trkpt lat="47.83377" lon="6.8976">
        <ele>1111.1</ele>
        <time>2021-08-09T13:33:51Z</time>
      </trkpt>
      <trkpt lat="47.83374" lon="6.89758">
        <ele>1110.6</ele>
        <time>2021-08-09T13:33:52Z</time>
      </trkpt>
      <trkpt lat="47.83372" lon="6.89756">
        <ele>1110.2</ele>
        <time>2021-08-09T13:33:53Z</time>
      </trkpt>
      <trkpt lat="47.83369" lon="6.89755">
        <ele>1109.7</ele>
        <time>2021-08-09T13:33:55Z</time>
      </trkpt>
      <trkpt lat="47.83365" lon="6.89753">
        <ele>1109.2</ele>
        <time>2021-08-09T13:33:56Z</time>
      </trkpt>
      <trkpt lat="47.83363" lon="6.89753">
        <ele>1108.9</ele>
        <time>2021-08-09T13:33:58Z</time>
      </trkpt>
      <trkpt lat="47.83357" lon="6.89752">
        <ele>1108.1</ele>
        <time>2021-08-09T13:34:00Z</time>
      </trkpt>
      <trkpt lat="47.83354" lon="6.89751">
        <ele>1107.7</ele>
        <time>2021-08-09T13:34:01Z</time>
      </trkpt>
      <trkpt lat="47.83351" lon="6.89751">
        <ele>1107.3</ele>
        <time>2021-08-09T13:34:02Z</time>
      </trkpt>
      <trkpt lat="47.83348" lon="6.89749">
        <ele>1106.8</ele>
        <time>2021-08-09T13:34:03Z</time>
      </trkpt>
      <trkpt lat="47.83344" lon="6.89746">
        <ele>1106.1</ele>
        <time>2021-08-09T13:34:04Z</time>
      </trkpt>
      <trkpt lat="47.8334" lon="6.89742">
        <ele>1105.4</ele>
        <time>2021-08-09T13:34:06Z</time>
      </trkpt>
      <trkpt lat="47.83334" lon="6.89736">
        <ele>1104.5</ele>
        <time>2021-08-09T13:34:07Z</time>
      </trkpt>
      <trkpt lat="47.83321" lon="6.89725">
        <ele>1102.5</ele>
        <time>2021-08-09T13:34:08Z</time>
      </trkpt>
      <trkpt lat="47.83313" lon="6.89719">
        <ele>1101.7</ele>
        <time>2021-08-09T13:34:09Z</time>
      </trkpt>
      <trkpt lat="47.83303" lon="6.89711">
        <ele>1100.9</ele>
        <time>2021-08-09T13:34:11Z</time>
      </trkpt>
      <trkpt lat="47.83301" lon="6.89708">
        <ele>1100.8</ele>
        <time>2021-08-09T13:34:12Z</time>
      </trkpt>
      <trkpt lat="47.83299" lon="6.89704">
        <ele>1100.7</ele>
        <time>2021-08-09T13:34:13Z</time>
      </trkpt>
      <trkpt lat="47.83297" lon="6.89703">
        <ele>1100.6</ele>
        <time>2021-08-09T13:34:14Z</time>
      </trkpt>
      <trkpt lat="47.83294" lon="6.897">
        <ele>1100.5</ele>
        <time>2021-08-09T13:34:15Z</time>
      </trkpt>
      <trkpt lat="47.83292" lon="6.89698">
        <ele>1100.4</ele>
        <time>2021-08-09T13:34:16Z</time>
      </trkpt>
      <trkpt lat="47.8329" lon="6.89695">
        <ele>1100.3</ele>
        <time>2021-08-09T13:34:18Z</time>
      </trkpt>
      <trkpt lat="47.83287" lon="6.89695">
        <ele>1100.2</ele>
        <time>2021-08-09T13:34:20Z</time>
      </trkpt>
      <trkpt lat="47.83286" lon="6.89696">
        <ele>1100.2</ele>
        <time>2021-08-09T13:34:21Z</time>
      </trkpt>
      <trkpt lat="47.83288" lon="6.89698">
        <ele>1100.1</ele>
        <time>2021-08-09T13:34:22Z</time>
      </trkpt>
      <trkpt lat="47.83289" lon="6.89699">
        <ele>1100.1</ele>
        <time>2021-08-09T13:34:23Z</time>
      </trkpt>
      <trkpt lat="47.83289" lon="6.89699">
        <ele>1100</ele>
        <time>2021-08-09T13:34:25Z</time>
      </trkpt>
      <trkpt lat="47.83289" lon="6.897">
        <ele>1100</ele>
        <time>2021-08-09T13:34:26Z</time>
      </trkpt>
      <trkpt lat="47.83288" lon="6.897">
        <ele>1100</ele>
        <time>2021-08-09T13:34:27Z</time>
      </trkpt>
      <trkpt lat="47.83286" lon="6.89701">
        <ele>1099.9</ele>
        <time>2021-08-09T13:34:29Z</time>
      </trkpt>
      <trkpt lat="47.83284" lon="6.897">
        <ele>1099.8</ele>
        <time>2021-08-09T13:34:30Z</time>
      </trkpt>
      <trkpt lat="47.83271" lon="6.89696">
        <ele>1099.5</ele>
        <time>2021-08-09T13:34:35Z</time>
      </trkpt>
      <trkpt lat="47.83266" lon="6.89692">
        <ele>1099.2</ele>
        <time>2021-08-09T13:34:36Z</time>
      </trkpt>
      <trkpt lat="47.83261" lon="6.89688">
        <ele>1099</ele>
        <time>2021-08-09T13:34:37Z</time>
      </trkpt>
      <trkpt lat="47.83254" lon="6.89681">
        <ele>1098.7</ele>
        <time>2021-08-09T13:34:39Z</time>
      </trkpt>
      <trkpt lat="47.8325" lon="6.89674">
        <ele>1098.5</ele>
        <time>2021-08-09T13:34:40Z</time>
      </trkpt>
      <trkpt lat="47.83246" lon="6.89664">
        <ele>1098.1</ele>
        <time>2021-08-09T13:34:42Z</time>
      </trkpt>
      <trkpt lat="47.83244" lon="6.8966">
        <ele>1098</ele>
        <time>2021-08-09T13:34:43Z</time>
      </trkpt>
      <trkpt lat="47.83244" lon="6.89653">
        <ele>1097.9</ele>
        <time>2021-08-09T13:34:45Z</time>
      </trkpt>
      <trkpt lat="47.83244" lon="6.89649">
        <ele>1097.9</ele>
        <time>2021-08-09T13:34:46Z</time>
      </trkpt>
      <trkpt lat="47.83243" lon="6.89641">
        <ele>1097.8</ele>
        <time>2021-08-09T13:34:48Z</time>
      </trkpt>
      <trkpt lat="47.83243" lon="6.89634">
        <ele>1097.7</ele>
        <time>2021-08-09T13:34:49Z</time>
      </trkpt>
      <trkpt lat="47.83242" lon="6.89629">
        <ele>1097.6</ele>
        <time>2021-08-09T13:34:50Z</time>
      </trkpt>
      <trkpt lat="47.83241" lon="6.89623">
        <ele>1097.5</ele>
        <time>2021-08-09T13:34:51Z</time>
      </trkpt>
      <trkpt lat="47.8324" lon="6.89616">
        <ele>1097.5</ele>
        <time>2021-08-09T13:34:53Z</time>
      </trkpt>
      <trkpt lat="47.83239" lon="6.89612">
        <ele>1097.4</ele>
        <time>2021-08-09T13:34:54Z</time>
      </trkpt>
      <trkpt lat="47.83238" lon="6.89607">
        <ele>1097.3</ele>
        <time>2021-08-09T13:34:55Z</time>
      </trkpt>
      <trkpt lat="47.83237" lon="6.89603">
        <ele>1097.3</ele>
        <time>2021-08-09T13:34:56Z</time>
      </trkpt>
      <trkpt lat="47.83236" lon="6.89598">
        <ele>1097.2</ele>
        <time>2021-08-09T13:34:58Z</time>
      </trkpt>
      <trkpt lat="47.83234" lon="6.89591">
        <ele>1097</ele>
        <time>2021-08-09T13:35:00Z</time>
      </trkpt>
      <trkpt lat="47.83233" lon="6.89584">
        <ele>1096.9</ele>
        <time>2021-08-09T13:35:01Z</time>
      </trkpt>
      <trkpt lat="47.83232" lon="6.89577">
        <ele>1096.8</ele>
        <time>2021-08-09T13:35:03Z</time>
      </trkpt>
      <trkpt lat="47.83231" lon="6.89569">
        <ele>1096.7</ele>
        <time>2021-08-09T13:35:04Z</time>
      </trkpt>
      <trkpt lat="47.8323" lon="6.89562">
        <ele>1096.6</ele>
        <time>2021-08-09T13:35:05Z</time>
      </trkpt>
      <trkpt lat="47.83229" lon="6.89554">
        <ele>1096.6</ele>
        <time>2021-08-09T13:35:06Z</time>
      </trkpt>
      <trkpt lat="47.83229" lon="6.89546">
        <ele>1096.7</ele>
        <time>2021-08-09T13:35:08Z</time>
      </trkpt>
      <trkpt lat="47.8323" lon="6.8954">
        <ele>1096.7</ele>
        <time>2021-08-09T13:35:09Z</time>
      </trkpt>
      <trkpt lat="47.83231" lon="6.89536">
        <ele>1096.6</ele>
        <time>2021-08-09T13:35:10Z</time>
      </trkpt>
      <trkpt lat="47.83232" lon="6.89532">
        <ele>1096.6</ele>
        <time>2021-08-09T13:35:11Z</time>
      </trkpt>
      <trkpt lat="47.83232" lon="6.89529">
        <ele>1096.5</ele>
        <time>2021-08-09T13:35:13Z</time>
      </trkpt>
      <trkpt lat="47.83235" lon="6.89526">
        <ele>1096.4</ele>
        <time>2021-08-09T13:35:15Z</time>
      </trkpt>
      <trkpt lat="47.83236" lon="6.89525">
        <ele>1096.3</ele>
        <time>2021-08-09T13:35:16Z</time>
      </trkpt>
      <trkpt lat="47.83237" lon="6.89521">
        <ele>1096.1</ele>
        <time>2021-08-09T13:35:18Z</time>
      </trkpt>
      <trkpt lat="47.83239" lon="6.89515">
        <ele>1095.8</ele>
        <time>2021-08-09T13:35:19Z</time>
      </trkpt>
      <trkpt lat="47.8324" lon="6.89512">
        <ele>1095.6</ele>
        <time>2021-08-09T13:35:20Z</time>
      </trkpt>
      <trkpt lat="47.83241" lon="6.89507">
        <ele>1095.2</ele>
        <time>2021-08-09T13:35:22Z</time>
      </trkpt>
      <trkpt lat="47.83242" lon="6.89501">
        <ele>1094.8</ele>
        <time>2021-08-09T13:35:23Z</time>
      </trkpt>
      <trkpt lat="47.83242" lon="6.89499">
        <ele>1094.7</ele>
        <time>2021-08-09T13:35:24Z</time>
      </trkpt>
      <trkpt lat="47.83243" lon="6.89495">
        <ele>1094.3</ele>
        <time>2021-08-09T13:35:25Z</time>
      </trkpt>
      <trkpt lat="47.83244" lon="6.89492">
        <ele>1094.1</ele>
        <time>2021-08-09T13:35:26Z</time>
      </trkpt>
      <trkpt lat="47.83246" lon="6.89487">
        <ele>1093.5</ele>
        <time>2021-08-09T13:35:28Z</time>
      </trkpt>
      <trkpt lat="47.83248" lon="6.89483">
        <ele>1093</ele>
        <time>2021-08-09T13:35:29Z</time>
      </trkpt>
      <trkpt lat="47.83248" lon="6.89475">
        <ele>1092.3</ele>
        <time>2021-08-09T13:35:31Z</time>
      </trkpt>
      <trkpt lat="47.83247" lon="6.89469">
        <ele>1091.8</ele>
        <time>2021-08-09T13:35:32Z</time>
      </trkpt>
      <trkpt lat="47.83247" lon="6.89461">
        <ele>1091.3</ele>
        <time>2021-08-09T13:35:34Z</time>
      </trkpt>
      <trkpt lat="47.83248" lon="6.89457">
        <ele>1091</ele>
        <time>2021-08-09T13:35:35Z</time>
      </trkpt>
      <trkpt lat="47.83249" lon="6.89455">
        <ele>1091</ele>
        <time>2021-08-09T13:35:36Z</time>
      </trkpt>
      <trkpt lat="47.83249" lon="6.89452">
        <ele>1090.8</ele>
        <time>2021-08-09T13:35:38Z</time>
      </trkpt>
      <trkpt lat="47.8325" lon="6.89451">
        <ele>1090.8</ele>
        <time>2021-08-09T13:35:39Z</time>
      </trkpt>
      <trkpt lat="47.83251" lon="6.89451">
        <ele>1090.8</ele>
        <time>2021-08-09T13:35:40Z</time>
      </trkpt>
      <trkpt lat="47.83253" lon="6.89452">
        <ele>1090.7</ele>
        <time>2021-08-09T13:35:41Z</time>
      </trkpt>
      <trkpt lat="47.83255" lon="6.89452">
        <ele>1090.7</ele>
        <time>2021-08-09T13:35:42Z</time>
      </trkpt>
      <trkpt lat="47.83257" lon="6.89451">
        <ele>1090.7</ele>
        <time>2021-08-09T13:35:44Z</time>
      </trkpt>
      <trkpt lat="47.83257" lon="6.89451">
        <ele>1090.7</ele>
        <time>2021-08-09T13:35:45Z</time>
      </trkpt>
      <trkpt lat="47.83257" lon="6.89451">
        <ele>1090.7</ele>
        <time>2021-08-09T13:35:46Z</time>
      </trkpt>
      <trkpt lat="47.83258" lon="6.89452">
        <ele>1090.7</ele>
        <time>2021-08-09T13:35:47Z</time>
      </trkpt>
      <trkpt lat="47.83258" lon="6.89452">
        <ele>1090.7</ele>
        <time>2021-08-09T13:35:48Z</time>
      </trkpt>
      <trkpt lat="47.83259" lon="6.89452">
        <ele>1090.7</ele>
        <time>2021-08-09T13:35:50Z</time>
      </trkpt>
      <trkpt lat="47.83259" lon="6.89452">
        <ele>1090.7</ele>
        <time>2021-08-09T13:35:51Z</time>
      </trkpt>
      <trkpt lat="47.83259" lon="6.89451">
        <ele>1090.7</ele>
        <time>2021-08-09T13:35:52Z</time>
      </trkpt>
      <trkpt lat="47.83261" lon="6.89448">
        <ele>1090.8</ele>
        <time>2021-08-09T13:35:54Z</time>
      </trkpt>
      <trkpt lat="47.83263" lon="6.89445">
        <ele>1090.8</ele>
        <time>2021-08-09T13:35:55Z</time>
      </trkpt>
      <trkpt lat="47.83266" lon="6.89441">
        <ele>1090.9</ele>
        <time>2021-08-09T13:35:56Z</time>
      </trkpt>
      <trkpt lat="47.83269" lon="6.89434">
        <ele>1090.9</ele>
        <time>2021-08-09T13:35:58Z</time>
      </trkpt>
      <trkpt lat="47.8327" lon="6.89431">
        <ele>1090.8</ele>
        <time>2021-08-09T13:35:59Z</time>
      </trkpt>
      <trkpt lat="47.83271" lon="6.89428">
        <ele>1090.8</ele>
        <time>2021-08-09T13:36:00Z</time>
      </trkpt>
      <trkpt lat="47.83276" lon="6.89414">
        <ele>1090.1</ele>
        <time>2021-08-09T13:36:02Z</time>
      </trkpt>
      <trkpt lat="47.83277" lon="6.89408">
        <ele>1089.6</ele>
        <time>2021-08-09T13:36:03Z</time>
      </trkpt>
      <trkpt lat="47.83281" lon="6.894">
        <ele>1088.7</ele>
        <time>2021-08-09T13:36:05Z</time>
      </trkpt>
      <trkpt lat="47.83285" lon="6.89395">
        <ele>1087.8</ele>
        <time>2021-08-09T13:36:06Z</time>
      </trkpt>
      <trkpt lat="47.83288" lon="6.89389">
        <ele>1087</ele>
        <time>2021-08-09T13:36:07Z</time>
      </trkpt>
      <trkpt lat="47.83291" lon="6.89383">
        <ele>1086.3</ele>
        <time>2021-08-09T13:36:08Z</time>
      </trkpt>
      <trkpt lat="47.83294" lon="6.89373">
        <ele>1085.4</ele>
        <time>2021-08-09T13:36:10Z</time>
      </trkpt>
      <trkpt lat="47.83295" lon="6.89365">
        <ele>1085</ele>
        <time>2021-08-09T13:36:11Z</time>
      </trkpt>
      <trkpt lat="47.83296" lon="6.89357">
        <ele>1084.9</ele>
        <time>2021-08-09T13:36:12Z</time>
      </trkpt>
      <trkpt lat="47.83297" lon="6.89351">
        <ele>1085</ele>
        <time>2021-08-09T13:36:13Z</time>
      </trkpt>
      <trkpt lat="47.83298" lon="6.89341">
        <ele>1085.1</ele>
        <time>2021-08-09T13:36:15Z</time>
      </trkpt>
      <trkpt lat="47.83299" lon="6.89337">
        <ele>1085.2</ele>
        <time>2021-08-09T13:36:16Z</time>
      </trkpt>
      <trkpt lat="47.83301" lon="6.89334">
        <ele>1085.3</ele>
        <time>2021-08-09T13:36:17Z</time>
      </trkpt>
      <trkpt lat="47.83304" lon="6.8933">
        <ele>1085.3</ele>
        <time>2021-08-09T13:36:19Z</time>
      </trkpt>
      <trkpt lat="47.83307" lon="6.89321">
        <ele>1085.3</ele>
        <time>2021-08-09T13:36:21Z</time>
      </trkpt>
      <trkpt lat="47.83308" lon="6.89311">
        <ele>1085</ele>
        <time>2021-08-09T13:36:23Z</time>
      </trkpt>
      <trkpt lat="47.83309" lon="6.89305">
        <ele>1084.8</ele>
        <time>2021-08-09T13:36:24Z</time>
      </trkpt>
      <trkpt lat="47.8331" lon="6.89302">
        <ele>1084.6</ele>
        <time>2021-08-09T13:36:25Z</time>
      </trkpt>
      <trkpt lat="47.8331" lon="6.89301">
        <ele>1084.6</ele>
        <time>2021-08-09T13:36:26Z</time>
      </trkpt>
      <trkpt lat="47.83309" lon="6.89298">
        <ele>1084.4</ele>
        <time>2021-08-09T13:36:28Z</time>
      </trkpt>
      <trkpt lat="47.83309" lon="6.89297">
        <ele>1084.4</ele>
        <time>2021-08-09T13:36:29Z</time>
      </trkpt>
      <trkpt lat="47.83309" lon="6.89297">
        <ele>1084.4</ele>
        <time>2021-08-09T13:36:30Z</time>
      </trkpt>
      <trkpt lat="47.83309" lon="6.89297">
        <ele>1084.4</ele>
        <time>2021-08-09T13:36:32Z</time>
      </trkpt>
      <trkpt lat="47.83309" lon="6.89296">
        <ele>1084.4</ele>
        <time>2021-08-09T13:36:33Z</time>
      </trkpt>
      <trkpt lat="47.83309" lon="6.89296">
        <ele>1084.3</ele>
        <time>2021-08-09T13:36:34Z</time>
      </trkpt>
      <trkpt lat="47.83309" lon="6.89278">
        <ele>1083.2</ele>
        <time>2021-08-09T13:36:53Z</time>
      </trkpt>
      <trkpt lat="47.83307" lon="6.89274">
        <ele>1083</ele>
        <time>2021-08-09T13:36:54Z</time>
      </trkpt>
      <trkpt lat="47.83309" lon="6.89265">
        <ele>1082.4</ele>
        <time>2021-08-09T13:36:56Z</time>
      </trkpt>
      <trkpt lat="47.8331" lon="6.89258">
        <ele>1081.9</ele>
        <time>2021-08-09T13:36:58Z</time>
      </trkpt>
      <trkpt lat="47.8331" lon="6.89256">
        <ele>1081.6</ele>
        <time>2021-08-09T13:36:59Z</time>
      </trkpt>
      <trkpt lat="47.8331" lon="6.89254">
        <ele>1081.5</ele>
        <time>2021-08-09T13:37:00Z</time>
      </trkpt>
      <trkpt lat="47.8331" lon="6.89248">
        <ele>1081</ele>
        <time>2021-08-09T13:37:02Z</time>
      </trkpt>
      <trkpt lat="47.8331" lon="6.89246">
        <ele>1080.7</ele>
        <time>2021-08-09T13:37:03Z</time>
      </trkpt>
      <trkpt lat="47.83309" lon="6.89242">
        <ele>1080.2</ele>
        <time>2021-08-09T13:37:04Z</time>
      </trkpt>
      <trkpt lat="47.83309" lon="6.89238">
        <ele>1079.8</ele>
        <time>2021-08-09T13:37:05Z</time>
      </trkpt>
      <trkpt lat="47.83308" lon="6.89237">
        <ele>1079.7</ele>
        <time>2021-08-09T13:37:06Z</time>
      </trkpt>
      <trkpt lat="47.83308" lon="6.89236">
        <ele>1079.5</ele>
        <time>2021-08-09T13:37:08Z</time>
      </trkpt>
      <trkpt lat="47.83306" lon="6.89228">
        <ele>1078.4</ele>
        <time>2021-08-09T13:37:10Z</time>
      </trkpt>
      <trkpt lat="47.83304" lon="6.89223">
        <ele>1078.4</ele>
        <time>2021-08-09T13:37:11Z</time>
      </trkpt>
      <trkpt lat="47.83302" lon="6.89218">
        <ele>1077.7</ele>
        <time>2021-08-09T13:37:13Z</time>
      </trkpt>
      <trkpt lat="47.833" lon="6.89215">
        <ele>1077.2</ele>
        <time>2021-08-09T13:37:15Z</time>
      </trkpt>
      <trkpt lat="47.833" lon="6.89214">
        <ele>1077</ele>
        <time>2021-08-09T13:37:16Z</time>
      </trkpt>
      <trkpt lat="47.83298" lon="6.8921">
        <ele>1076.5</ele>
        <time>2021-08-09T13:37:17Z</time>
      </trkpt>
      <trkpt lat="47.83297" lon="6.89209">
        <ele>1076.3</ele>
        <time>2021-08-09T13:37:18Z</time>
      </trkpt>
      <trkpt lat="47.83295" lon="6.89205">
        <ele>1075.8</ele>
        <time>2021-08-09T13:37:19Z</time>
      </trkpt>
      <trkpt lat="47.83294" lon="6.89204">
        <ele>1075.7</ele>
        <time>2021-08-09T13:37:20Z</time>
      </trkpt>
      <trkpt lat="47.83293" lon="6.89199">
        <ele>1075.2</ele>
        <time>2021-08-09T13:37:22Z</time>
      </trkpt>
      <trkpt lat="47.83292" lon="6.89195">
        <ele>1074.7</ele>
        <time>2021-08-09T13:37:23Z</time>
      </trkpt>
      <trkpt lat="47.8329" lon="6.89189">
        <ele>1074.1</ele>
        <time>2021-08-09T13:37:24Z</time>
      </trkpt>
      <trkpt lat="47.83288" lon="6.8918">
        <ele>1073.2</ele>
        <time>2021-08-09T13:37:26Z</time>
      </trkpt>
      <trkpt lat="47.83286" lon="6.89175">
        <ele>1072.6</ele>
        <time>2021-08-09T13:37:27Z</time>
      </trkpt>
      <trkpt lat="47.83284" lon="6.89168">
        <ele>1071.8</ele>
        <time>2021-08-09T13:37:28Z</time>
      </trkpt>
      <trkpt lat="47.83284" lon="6.89161">
        <ele>1071.1</ele>
        <time>2021-08-09T13:37:30Z</time>
      </trkpt>
      <trkpt lat="47.83282" lon="6.89155">
        <ele>1070.4</ele>
        <time>2021-08-09T13:37:31Z</time>
      </trkpt>
      <trkpt lat="47.83282" lon="6.89152">
        <ele>1070.1</ele>
        <time>2021-08-09T13:37:32Z</time>
      </trkpt>
      <trkpt lat="47.8328" lon="6.89148">
        <ele>1069.4</ele>
        <time>2021-08-09T13:37:33Z</time>
      </trkpt>
      <trkpt lat="47.83279" lon="6.89143">
        <ele>1068.7</ele>
        <time>2021-08-09T13:37:34Z</time>
      </trkpt>
      <trkpt lat="47.83278" lon="6.8913">
        <ele>1067</ele>
        <time>2021-08-09T13:37:36Z</time>
      </trkpt>
      <trkpt lat="47.83279" lon="6.89125">
        <ele>1066.2</ele>
        <time>2021-08-09T13:37:37Z</time>
      </trkpt>
      <trkpt lat="47.83279" lon="6.89123">
        <ele>1066</ele>
        <time>2021-08-09T13:37:38Z</time>
      </trkpt>
      <trkpt lat="47.83281" lon="6.89111">
        <ele>1062.1</ele>
        <time>2021-08-09T13:37:40Z</time>
      </trkpt>
      <trkpt lat="47.83282" lon="6.89102">
        <ele>1062</ele>
        <time>2021-08-09T13:37:41Z</time>
      </trkpt>
      <trkpt lat="47.83283" lon="6.89093">
        <ele>1062.4</ele>
        <time>2021-08-09T13:37:42Z</time>
      </trkpt>
      <trkpt lat="47.83284" lon="6.89084">
        <ele>1063.1</ele>
        <time>2021-08-09T13:37:44Z</time>
      </trkpt>
      <trkpt lat="47.83284" lon="6.89076">
        <ele>1064.1</ele>
        <time>2021-08-09T13:37:45Z</time>
      </trkpt>
      <trkpt lat="47.83285" lon="6.89067">
        <ele>1065.1</ele>
        <time>2021-08-09T13:37:47Z</time>
      </trkpt>
      <trkpt lat="47.83286" lon="6.89058">
        <ele>1066.1</ele>
        <time>2021-08-09T13:37:48Z</time>
      </trkpt>
      <trkpt lat="47.83287" lon="6.89049">
        <ele>1067</ele>
        <time>2021-08-09T13:37:50Z</time>
      </trkpt>
      <trkpt lat="47.83287" lon="6.89041">
        <ele>1067.7</ele>
        <time>2021-08-09T13:39:39Z</time>
      </trkpt>
      <trkpt lat="47.83288" lon="6.89032">
        <ele>1068.1</ele>
        <time>2021-08-09T13:39:40Z</time>
      </trkpt>
      <trkpt lat="47.83289" lon="6.89023">
        <ele>1068.4</ele>
        <time>2021-08-09T13:39:41Z</time>
      </trkpt>
      <trkpt lat="47.83295" lon="6.89019">
        <ele>1068.5</ele>
        <time>2021-08-09T13:39:43Z</time>
      </trkpt>
      <trkpt lat="47.83296" lon="6.89017">
        <ele>1068.6</ele>
        <time>2021-08-09T13:39:44Z</time>
      </trkpt>
      <trkpt lat="47.83296" lon="6.89016">
        <ele>1068.6</ele>
        <time>2021-08-09T13:39:45Z</time>
      </trkpt>
      <trkpt lat="47.83296" lon="6.89014">
        <ele>1068.7</ele>
        <time>2021-08-09T13:39:47Z</time>
      </trkpt>
      <trkpt lat="47.83296" lon="6.89012">
        <ele>1068.8</ele>
        <time>2021-08-09T13:39:48Z</time>
      </trkpt>
      <trkpt lat="47.83296" lon="6.89011">
        <ele>1068.8</ele>
        <time>2021-08-09T13:39:49Z</time>
      </trkpt>
      <trkpt lat="47.83296" lon="6.89009">
        <ele>1068.9</ele>
        <time>2021-08-09T13:39:50Z</time>
      </trkpt>
      <trkpt lat="47.83295" lon="6.89006">
        <ele>1069.1</ele>
        <time>2021-08-09T13:39:52Z</time>
      </trkpt>
      <trkpt lat="47.83295" lon="6.89004">
        <ele>1069.2</ele>
        <time>2021-08-09T13:39:53Z</time>
      </trkpt>
      <trkpt lat="47.83295" lon="6.89002">
        <ele>1069.3</ele>
        <time>2021-08-09T13:39:55Z</time>
      </trkpt>
      <trkpt lat="47.83295" lon="6.89001">
        <ele>1069.3</ele>
        <time>2021-08-09T13:39:56Z</time>
      </trkpt>
      <trkpt lat="47.83295" lon="6.89">
        <ele>1069.4</ele>
        <time>2021-08-09T13:39:57Z</time>
      </trkpt>
      <trkpt lat="47.83295" lon="6.88998">
        <ele>1069.5</ele>
        <time>2021-08-09T13:39:59Z</time>
      </trkpt>
      <trkpt lat="47.83295" lon="6.88995">
        <ele>1069.7</ele>
        <time>2021-08-09T13:40:00Z</time>
      </trkpt>
      <trkpt lat="47.83295" lon="6.88993">
        <ele>1069.9</ele>
        <time>2021-08-09T13:40:01Z</time>
      </trkpt>
      <trkpt lat="47.83295" lon="6.8899">
        <ele>1070.2</ele>
        <time>2021-08-09T13:40:02Z</time>
      </trkpt>
      <trkpt lat="47.83296" lon="6.88988">
        <ele>1070.3</ele>
        <time>2021-08-09T13:40:04Z</time>
      </trkpt>
      <trkpt lat="47.83295" lon="6.88986">
        <ele>1070.5</ele>
        <time>2021-08-09T13:40:05Z</time>
      </trkpt>
      <trkpt lat="47.83295" lon="6.88985">
        <ele>1070.6</ele>
        <time>2021-08-09T13:40:06Z</time>
      </trkpt>
      <trkpt lat="47.83295" lon="6.88982">
        <ele>1070.9</ele>
        <time>2021-08-09T13:40:07Z</time>
      </trkpt>
      <trkpt lat="47.83294" lon="6.88981">
        <ele>1071</ele>
        <time>2021-08-09T13:40:09Z</time>
      </trkpt>
      <trkpt lat="47.83294" lon="6.8898">
        <ele>1071.1</ele>
        <time>2021-08-09T13:40:10Z</time>
      </trkpt>
      <trkpt lat="47.83294" lon="6.8898">
        <ele>1071.2</ele>
        <time>2021-08-09T13:40:11Z</time>
      </trkpt>
      <trkpt lat="47.83293" lon="6.88975">
        <ele>1071.8</ele>
        <time>2021-08-09T13:40:13Z</time>
      </trkpt>
      <trkpt lat="47.83293" lon="6.88973">
        <ele>1072</ele>
        <time>2021-08-09T13:40:14Z</time>
      </trkpt>
      <trkpt lat="47.83292" lon="6.8897">
        <ele>1072.3</ele>
        <time>2021-08-09T13:40:16Z</time>
      </trkpt>
      <trkpt lat="47.83292" lon="6.88969">
        <ele>1072.4</ele>
        <time>2021-08-09T13:40:17Z</time>
      </trkpt>
      <trkpt lat="47.83292" lon="6.88968">
        <ele>1072.5</ele>
        <time>2021-08-09T13:40:18Z</time>
      </trkpt>
      <trkpt lat="47.83291" lon="6.88967">
        <ele>1072.6</ele>
        <time>2021-08-09T13:40:20Z</time>
      </trkpt>
      <trkpt lat="47.83291" lon="6.88967">
        <ele>1072.7</ele>
        <time>2021-08-09T13:40:21Z</time>
      </trkpt>
      <trkpt lat="47.83291" lon="6.88966">
        <ele>1072.7</ele>
        <time>2021-08-09T13:40:23Z</time>
      </trkpt>
      <trkpt lat="47.83291" lon="6.88965">
        <ele>1072.9</ele>
        <time>2021-08-09T13:40:24Z</time>
      </trkpt>
      <trkpt lat="47.83291" lon="6.88961">
        <ele>1073.1</ele>
        <time>2021-08-09T13:40:26Z</time>
      </trkpt>
      <trkpt lat="47.83292" lon="6.8896">
        <ele>1073.3</ele>
        <time>2021-08-09T13:40:27Z</time>
      </trkpt>
      <trkpt lat="47.83292" lon="6.88959">
        <ele>1073.4</ele>
        <time>2021-08-09T13:40:28Z</time>
      </trkpt>
      <trkpt lat="47.83292" lon="6.88957">
        <ele>1073.5</ele>
        <time>2021-08-09T13:40:29Z</time>
      </trkpt>
      <trkpt lat="47.83292" lon="6.88956">
        <ele>1073.6</ele>
        <time>2021-08-09T13:40:30Z</time>
      </trkpt>
      <trkpt lat="47.8329" lon="6.88952">
        <ele>1073.8</ele>
        <time>2021-08-09T13:40:32Z</time>
      </trkpt>
      <trkpt lat="47.8329" lon="6.88951">
        <ele>1073.9</ele>
        <time>2021-08-09T13:40:33Z</time>
      </trkpt>
      <trkpt lat="47.83288" lon="6.88945">
        <ele>1074.1</ele>
        <time>2021-08-09T13:40:35Z</time>
      </trkpt>
      <trkpt lat="47.83287" lon="6.88941">
        <ele>1074.1</ele>
        <time>2021-08-09T13:40:36Z</time>
      </trkpt>
      <trkpt lat="47.83284" lon="6.88931">
        <ele>1074</ele>
        <time>2021-08-09T13:40:38Z</time>
      </trkpt>
      <trkpt lat="47.83281" lon="6.88919">
        <ele>1073.8</ele>
        <time>2021-08-09T13:40:39Z</time>
      </trkpt>
      <trkpt lat="47.8328" lon="6.88912">
        <ele>1073.7</ele>
        <time>2021-08-09T13:40:40Z</time>
      </trkpt>
      <trkpt lat="47.8328" lon="6.88904">
        <ele>1073.7</ele>
        <time>2021-08-09T13:40:41Z</time>
      </trkpt>
      <trkpt lat="47.83282" lon="6.88898">
        <ele>1073.7</ele>
        <time>2021-08-09T13:40:43Z</time>
      </trkpt>
      <trkpt lat="47.83284" lon="6.88895">
        <ele>1073.8</ele>
        <time>2021-08-09T13:40:44Z</time>
      </trkpt>
      <trkpt lat="47.83286" lon="6.88893">
        <ele>1073.8</ele>
        <time>2021-08-09T13:40:45Z</time>
      </trkpt>
      <trkpt lat="47.83288" lon="6.88891">
        <ele>1073.7</ele>
        <time>2021-08-09T13:40:46Z</time>
      </trkpt>
      <trkpt lat="47.83293" lon="6.88893">
        <ele>1073.6</ele>
        <time>2021-08-09T13:40:48Z</time>
      </trkpt>
      <trkpt lat="47.83295" lon="6.88893">
        <ele>1073.6</ele>
        <time>2021-08-09T13:40:49Z</time>
      </trkpt>
      <trkpt lat="47.83296" lon="6.88892">
        <ele>1073.5</ele>
        <time>2021-08-09T13:40:50Z</time>
      </trkpt>
      <trkpt lat="47.83297" lon="6.8889">
        <ele>1073.5</ele>
        <time>2021-08-09T13:40:52Z</time>
      </trkpt>
      <trkpt lat="47.83297" lon="6.88889">
        <ele>1073.4</ele>
        <time>2021-08-09T13:40:53Z</time>
      </trkpt>
      <trkpt lat="47.83298" lon="6.88888">
        <ele>1073.4</ele>
        <time>2021-08-09T13:40:54Z</time>
      </trkpt>
      <trkpt lat="47.83299" lon="6.88887">
        <ele>1073.3</ele>
        <time>2021-08-09T13:40:55Z</time>
      </trkpt>
      <trkpt lat="47.83299" lon="6.88885">
        <ele>1073.3</ele>
        <time>2021-08-09T13:40:56Z</time>
      </trkpt>
      <trkpt lat="47.83299" lon="6.88872">
        <ele>1073</ele>
        <time>2021-08-09T13:40:59Z</time>
      </trkpt>
      <trkpt lat="47.83296" lon="6.88861">
        <ele>1073.1</ele>
        <time>2021-08-09T13:41:01Z</time>
      </trkpt>
      <trkpt lat="47.83296" lon="6.88858">
        <ele>1073.2</ele>
        <time>2021-08-09T13:41:02Z</time>
      </trkpt>
      <trkpt lat="47.83295" lon="6.88853">
        <ele>1073.4</ele>
        <time>2021-08-09T13:41:04Z</time>
      </trkpt>
      <trkpt lat="47.83295" lon="6.88847">
        <ele>1073.9</ele>
        <time>2021-08-09T13:41:05Z</time>
      </trkpt>
      <trkpt lat="47.83295" lon="6.88844">
        <ele>1074.2</ele>
        <time>2021-08-09T13:41:06Z</time>
      </trkpt>
      <trkpt lat="47.83295" lon="6.88843">
        <ele>1074.3</ele>
        <time>2021-08-09T13:41:07Z</time>
      </trkpt>
      <trkpt lat="47.83294" lon="6.88842">
        <ele>1074.4</ele>
        <time>2021-08-09T13:41:08Z</time>
      </trkpt>
      <trkpt lat="47.83293" lon="6.88836">
        <ele>1075.2</ele>
        <time>2021-08-09T13:41:10Z</time>
      </trkpt>
      <trkpt lat="47.83292" lon="6.88834">
        <ele>1075.4</ele>
        <time>2021-08-09T13:41:11Z</time>
      </trkpt>
      <trkpt lat="47.83292" lon="6.88833">
        <ele>1075.7</ele>
        <time>2021-08-09T13:41:12Z</time>
      </trkpt>
      <trkpt lat="47.83279" lon="6.88721">
        <ele>1084.6</ele>
        <time>2021-08-09T13:42:47Z</time>
      </trkpt>
      <trkpt lat="47.83279" lon="6.88717">
        <ele>1084.5</ele>
        <time>2021-08-09T13:42:48Z</time>
      </trkpt>
      <trkpt lat="47.8328" lon="6.8871">
        <ele>1084.4</ele>
        <time>2021-08-09T13:42:50Z</time>
      </trkpt>
      <trkpt lat="47.83281" lon="6.88705">
        <ele>1084.2</ele>
        <time>2021-08-09T13:42:51Z</time>
      </trkpt>
      <trkpt lat="47.83281" lon="6.887">
        <ele>1083.9</ele>
        <time>2021-08-09T13:42:53Z</time>
      </trkpt>
      <trkpt lat="47.83282" lon="6.88696">
        <ele>1083.6</ele>
        <time>2021-08-09T13:42:54Z</time>
      </trkpt>
      <trkpt lat="47.83284" lon="6.88689">
        <ele>1083</ele>
        <time>2021-08-09T13:42:55Z</time>
      </trkpt>
      <trkpt lat="47.83282" lon="6.88682">
        <ele>1082.4</ele>
        <time>2021-08-09T13:42:56Z</time>
      </trkpt>
      <trkpt lat="47.83279" lon="6.88675">
        <ele>1081.6</ele>
        <time>2021-08-09T13:42:58Z</time>
      </trkpt>
      <trkpt lat="47.83279" lon="6.88673">
        <ele>1081.3</ele>
        <time>2021-08-09T13:43:00Z</time>
      </trkpt>
      <trkpt lat="47.83277" lon="6.88673">
        <ele>1081.2</ele>
        <time>2021-08-09T13:43:01Z</time>
      </trkpt>
      <trkpt lat="47.83276" lon="6.8867">
        <ele>1080.9</ele>
        <time>2021-08-09T13:43:03Z</time>
      </trkpt>
      <trkpt lat="47.83275" lon="6.88665">
        <ele>1080.5</ele>
        <time>2021-08-09T13:43:04Z</time>
      </trkpt>
      <trkpt lat="47.83271" lon="6.88657">
        <ele>1080.1</ele>
        <time>2021-08-09T13:43:06Z</time>
      </trkpt>
      <trkpt lat="47.83268" lon="6.88651">
        <ele>1079.8</ele>
        <time>2021-08-09T13:43:07Z</time>
      </trkpt>
      <trkpt lat="47.83265" lon="6.88645">
        <ele>1079.7</ele>
        <time>2021-08-09T13:43:08Z</time>
      </trkpt>
      <trkpt lat="47.83261" lon="6.88639">
        <ele>1079.6</ele>
        <time>2021-08-09T13:43:10Z</time>
      </trkpt>
      <trkpt lat="47.83258" lon="6.88634">
        <ele>1079.5</ele>
        <time>2021-08-09T13:43:11Z</time>
      </trkpt>
      <trkpt lat="47.83254" lon="6.88627">
        <ele>1079.2</ele>
        <time>2021-08-09T13:43:12Z</time>
      </trkpt>
      <trkpt lat="47.83252" lon="6.88623">
        <ele>1079</ele>
        <time>2021-08-09T13:43:13Z</time>
      </trkpt>
      <trkpt lat="47.83249" lon="6.88616">
        <ele>1078.7</ele>
        <time>2021-08-09T13:43:15Z</time>
      </trkpt>
      <trkpt lat="47.83248" lon="6.88614">
        <ele>1078.6</ele>
        <time>2021-08-09T13:43:16Z</time>
      </trkpt>
      <trkpt lat="47.83246" lon="6.88611">
        <ele>1078.4</ele>
        <time>2021-08-09T13:43:18Z</time>
      </trkpt>
      <trkpt lat="47.83243" lon="6.88607">
        <ele>1078.3</ele>
        <time>2021-08-09T13:43:20Z</time>
      </trkpt>
      <trkpt lat="47.83243" lon="6.88601">
        <ele>1078.2</ele>
        <time>2021-08-09T13:43:22Z</time>
      </trkpt>
      <trkpt lat="47.83244" lon="6.88599">
        <ele>1078.2</ele>
        <time>2021-08-09T13:43:23Z</time>
      </trkpt>
      <trkpt lat="47.83244" lon="6.88594">
        <ele>1078.2</ele>
        <time>2021-08-09T13:43:25Z</time>
      </trkpt>
      <trkpt lat="47.83244" lon="6.88594">
        <ele>1078.2</ele>
        <time>2021-08-09T13:43:26Z</time>
      </trkpt>
      <trkpt lat="47.83243" lon="6.88593">
        <ele>1078.2</ele>
        <time>2021-08-09T13:43:28Z</time>
      </trkpt>
      <trkpt lat="47.83243" lon="6.88592">
        <ele>1078.2</ele>
        <time>2021-08-09T13:43:30Z</time>
      </trkpt>
      <trkpt lat="47.83242" lon="6.88591">
        <ele>1078.2</ele>
        <time>2021-08-09T13:43:31Z</time>
      </trkpt>
      <trkpt lat="47.83242" lon="6.8859">
        <ele>1078.2</ele>
        <time>2021-08-09T13:43:32Z</time>
      </trkpt>
      <trkpt lat="47.83241" lon="6.88587">
        <ele>1078.2</ele>
        <time>2021-08-09T13:43:34Z</time>
      </trkpt>
      <trkpt lat="47.83228" lon="6.88552">
        <ele>1077.5</ele>
        <time>2021-08-09T13:43:53Z</time>
      </trkpt>
      <trkpt lat="47.83228" lon="6.88546">
        <ele>1077.4</ele>
        <time>2021-08-09T13:43:55Z</time>
      </trkpt>
      <trkpt lat="47.83227" lon="6.88543">
        <ele>1077.4</ele>
        <time>2021-08-09T13:43:56Z</time>
      </trkpt>
      <trkpt lat="47.83222" lon="6.88536">
        <ele>1077.4</ele>
        <time>2021-08-09T13:43:58Z</time>
      </trkpt>
      <trkpt lat="47.83221" lon="6.88531">
        <ele>1077.5</ele>
        <time>2021-08-09T13:43:59Z</time>
      </trkpt>
      <trkpt lat="47.83221" lon="6.8853">
        <ele>1077.6</ele>
        <time>2021-08-09T13:44:00Z</time>
      </trkpt>
      <trkpt lat="47.83221" lon="6.88528">
        <ele>1077.6</ele>
        <time>2021-08-09T13:44:02Z</time>
      </trkpt>
      <trkpt lat="47.83221" lon="6.88526">
        <ele>1077.7</ele>
        <time>2021-08-09T13:44:03Z</time>
      </trkpt>
      <trkpt lat="47.83221" lon="6.88524">
        <ele>1077.8</ele>
        <time>2021-08-09T13:44:05Z</time>
      </trkpt>
      <trkpt lat="47.83221" lon="6.88521">
        <ele>1077.9</ele>
        <time>2021-08-09T13:44:06Z</time>
      </trkpt>
      <trkpt lat="47.83222" lon="6.88512">
        <ele>1078.2</ele>
        <time>2021-08-09T13:44:08Z</time>
      </trkpt>
      <trkpt lat="47.83222" lon="6.88505">
        <ele>1078.6</ele>
        <time>2021-08-09T13:44:10Z</time>
      </trkpt>
      <trkpt lat="47.8322" lon="6.88502">
        <ele>1078.7</ele>
        <time>2021-08-09T13:44:11Z</time>
      </trkpt>
      <trkpt lat="47.83219" lon="6.88499">
        <ele>1078.9</ele>
        <time>2021-08-09T13:44:13Z</time>
      </trkpt>
      <trkpt lat="47.83213" lon="6.88495">
        <ele>1079.2</ele>
        <time>2021-08-09T13:44:14Z</time>
      </trkpt>
      <trkpt lat="47.83206" lon="6.88492">
        <ele>1079.1</ele>
        <time>2021-08-09T13:44:16Z</time>
      </trkpt>
      <trkpt lat="47.832" lon="6.88489">
        <ele>1078.7</ele>
        <time>2021-08-09T13:44:17Z</time>
      </trkpt>
      <trkpt lat="47.83194" lon="6.88486">
        <ele>1077.9</ele>
        <time>2021-08-09T13:44:18Z</time>
      </trkpt>
      <trkpt lat="47.83187" lon="6.88483">
        <ele>1077.1</ele>
        <time>2021-08-09T13:44:50Z</time>
      </trkpt>
      <trkpt lat="47.83181" lon="6.8848">
        <ele>1076.2</ele>
        <time>2021-08-09T13:44:51Z</time>
      </trkpt>
      <trkpt lat="47.83178" lon="6.88472">
        <ele>1075.7</ele>
        <time>2021-08-09T13:44:52Z</time>
      </trkpt>
      <trkpt lat="47.83174" lon="6.88463">
        <ele>1075.4</ele>
        <time>2021-08-09T13:44:54Z</time>
      </trkpt>
      <trkpt lat="47.83172" lon="6.88452">
        <ele>1075.4</ele>
        <time>2021-08-09T13:44:55Z</time>
      </trkpt>
      <trkpt lat="47.83171" lon="6.88439">
        <ele>1075.8</ele>
        <time>2021-08-09T13:44:57Z</time>
      </trkpt>
      <trkpt lat="47.8317" lon="6.88427">
        <ele>1076.4</ele>
        <time>2021-08-09T13:44:58Z</time>
      </trkpt>
      <trkpt lat="47.83169" lon="6.88414">
        <ele>1077.4</ele>
        <time>2021-08-09T13:44:59Z</time>
      </trkpt>
      <trkpt lat="47.83168" lon="6.88404">
        <ele>1078.4</ele>
        <time>2021-08-09T13:45:01Z</time>
      </trkpt>
      <trkpt lat="47.83168" lon="6.88399">
        <ele>1078.8</ele>
        <time>2021-08-09T13:45:02Z</time>
      </trkpt>
      <trkpt lat="47.83168" lon="6.88391">
        <ele>1079.5</ele>
        <time>2021-08-09T13:45:04Z</time>
      </trkpt>
      <trkpt lat="47.83168" lon="6.88388">
        <ele>1079.8</ele>
        <time>2021-08-09T13:45:05Z</time>
      </trkpt>
      <trkpt lat="47.83169" lon="6.88389">
        <ele>1079.8</ele>
        <time>2021-08-09T13:45:07Z</time>
      </trkpt>
      <trkpt lat="47.83169" lon="6.88389">
        <ele>1079.8</ele>
        <time>2021-08-09T13:45:08Z</time>
      </trkpt>
      <trkpt lat="47.83169" lon="6.88389">
        <ele>1079.8</ele>
        <time>2021-08-09T13:45:09Z</time>
      </trkpt>
      <trkpt lat="47.83169" lon="6.88389">
        <ele>1079.8</ele>
        <time>2021-08-09T13:45:11Z</time>
      </trkpt>
      <trkpt lat="47.83169" lon="6.88389">
        <ele>1079.8</ele>
        <time>2021-08-09T13:45:12Z</time>
      </trkpt>
      <trkpt lat="47.83169" lon="6.88388">
        <ele>1079.9</ele>
        <time>2021-08-09T13:45:13Z</time>
      </trkpt>
      <trkpt lat="47.83168" lon="6.88387">
        <ele>1080</ele>
        <time>2021-08-09T13:45:15Z</time>
      </trkpt>
      <trkpt lat="47.83155" lon="6.8835">
        <ele>1080.6</ele>
        <time>2021-08-09T13:46:20Z</time>
      </trkpt>
      <trkpt lat="47.83156" lon="6.88349">
        <ele>1080.6</ele>
        <time>2021-08-09T13:46:22Z</time>
      </trkpt>
      <trkpt lat="47.83157" lon="6.88349">
        <ele>1080.6</ele>
        <time>2021-08-09T13:46:23Z</time>
      </trkpt>
      <trkpt lat="47.83157" lon="6.88349">
        <ele>1080.6</ele>
        <time>2021-08-09T13:46:24Z</time>
      </trkpt>
      <trkpt lat="47.83157" lon="6.88348">
        <ele>1080.6</ele>
        <time>2021-08-09T13:46:26Z</time>
      </trkpt>
      <trkpt lat="47.83157" lon="6.88348">
        <ele>1080.6</ele>
        <time>2021-08-09T13:46:27Z</time>
      </trkpt>
      <trkpt lat="47.83157" lon="6.88348">
        <ele>1080.6</ele>
        <time>2021-08-09T13:46:29Z</time>
      </trkpt>
      <trkpt lat="47.83158" lon="6.88347">
        <ele>1080.6</ele>
        <time>2021-08-09T13:46:30Z</time>
      </trkpt>
      <trkpt lat="47.83158" lon="6.88347">
        <ele>1080.6</ele>
        <time>2021-08-09T13:46:31Z</time>
      </trkpt>
      <trkpt lat="47.83158" lon="6.88347">
        <ele>1080.6</ele>
        <time>2021-08-09T13:46:32Z</time>
      </trkpt>
      <trkpt lat="47.83158" lon="6.88347">
        <ele>1080.6</ele>
        <time>2021-08-09T13:46:33Z</time>
      </trkpt>
      <trkpt lat="47.83158" lon="6.88347">
        <ele>1080.6</ele>
        <time>2021-08-09T13:46:35Z</time>
      </trkpt>
      <trkpt lat="47.83158" lon="6.88346">
        <ele>1080.6</ele>
        <time>2021-08-09T13:46:36Z</time>
      </trkpt>
      <trkpt lat="47.83157" lon="6.88342">
        <ele>1080.5</ele>
        <time>2021-08-09T13:46:38Z</time>
      </trkpt>
      <trkpt lat="47.83157" lon="6.88341">
        <ele>1080.5</ele>
        <time>2021-08-09T13:46:39Z</time>
      </trkpt>
      <trkpt lat="47.83158" lon="6.88338">
        <ele>1080.5</ele>
        <time>2021-08-09T13:46:41Z</time>
      </trkpt>
      <trkpt lat="47.83158" lon="6.88337">
        <ele>1080.5</ele>
        <time>2021-08-09T13:46:42Z</time>
      </trkpt>
      <trkpt lat="47.83158" lon="6.88336">
        <ele>1080.5</ele>
        <time>2021-08-09T13:46:43Z</time>
      </trkpt>
      <trkpt lat="47.83158" lon="6.88335">
        <ele>1080.5</ele>
        <time>2021-08-09T13:46:44Z</time>
      </trkpt>
      <trkpt lat="47.83158" lon="6.88335">
        <ele>1080.5</ele>
        <time>2021-08-09T13:46:45Z</time>
      </trkpt>
      <trkpt lat="47.83158" lon="6.88334">
        <ele>1080.5</ele>
        <time>2021-08-09T13:46:47Z</time>
      </trkpt>
      <trkpt lat="47.83158" lon="6.88333">
        <ele>1080.5</ele>
        <time>2021-08-09T13:46:48Z</time>
      </trkpt>
      <trkpt lat="47.83158" lon="6.88333">
        <ele>1080.5</ele>
        <time>2021-08-09T13:46:50Z</time>
      </trkpt>
      <trkpt lat="47.83158" lon="6.88333">
        <ele>1080.5</ele>
        <time>2021-08-09T13:46:51Z</time>
      </trkpt>
      <trkpt lat="47.83158" lon="6.88333">
        <ele>1080.5</ele>
        <time>2021-08-09T13:46:52Z</time>
      </trkpt>
      <trkpt lat="47.83158" lon="6.88333">
        <ele>1080.5</ele>
        <time>2021-08-09T13:46:53Z</time>
      </trkpt>
      <trkpt lat="47.83158" lon="6.88333">
        <ele>1080.6</ele>
        <time>2021-08-09T13:46:55Z</time>
      </trkpt>
      <trkpt lat="47.83158" lon="6.88333">
        <ele>1080.6</ele>
        <time>2021-08-09T13:46:56Z</time>
      </trkpt>
      <trkpt lat="47.83158" lon="6.88332">
        <ele>1080.6</ele>
        <time>2021-08-09T13:46:58Z</time>
      </trkpt>
      <trkpt lat="47.83158" lon="6.88332">
        <ele>1080.6</ele>
        <time>2021-08-09T13:47:00Z</time>
      </trkpt>
      <trkpt lat="47.83158" lon="6.88332">
        <ele>1080.6</ele>
        <time>2021-08-09T13:47:01Z</time>
      </trkpt>
      <trkpt lat="47.83157" lon="6.88332">
        <ele>1080.6</ele>
        <time>2021-08-09T13:47:02Z</time>
      </trkpt>
      <trkpt lat="47.83157" lon="6.88332">
        <ele>1080.6</ele>
        <time>2021-08-09T13:47:03Z</time>
      </trkpt>
      <trkpt lat="47.83158" lon="6.88331">
        <ele>1080.6</ele>
        <time>2021-08-09T13:47:05Z</time>
      </trkpt>
      <trkpt lat="47.83159" lon="6.8833">
        <ele>1080.6</ele>
        <time>2021-08-09T13:47:07Z</time>
      </trkpt>
      <trkpt lat="47.8316" lon="6.88328">
        <ele>1080.6</ele>
        <time>2021-08-09T13:47:09Z</time>
      </trkpt>
      <trkpt lat="47.83161" lon="6.88326">
        <ele>1080.6</ele>
        <time>2021-08-09T13:47:11Z</time>
      </trkpt>
      <trkpt lat="47.83161" lon="6.88325">
        <ele>1080.6</ele>
        <time>2021-08-09T13:47:14Z</time>
      </trkpt>
      <trkpt lat="47.83162" lon="6.88325">
        <ele>1080.7</ele>
        <time>2021-08-09T13:47:16Z</time>
      </trkpt>
      <trkpt lat="47.83162" lon="6.88324">
        <ele>1080.7</ele>
        <time>2021-08-09T13:47:19Z</time>
      </trkpt>
      <trkpt lat="47.83162" lon="6.88324">
        <ele>1080.7</ele>
        <time>2021-08-09T13:47:20Z</time>
      </trkpt>
      <trkpt lat="47.83162" lon="6.88324">
        <ele>1080.7</ele>
        <time>2021-08-09T13:47:22Z</time>
      </trkpt>
      <trkpt lat="47.83162" lon="6.88323">
        <ele>1080.7</ele>
        <time>2021-08-09T13:47:24Z</time>
      </trkpt>
      <trkpt lat="47.83162" lon="6.88323">
        <ele>1080.7</ele>
        <time>2021-08-09T13:47:25Z</time>
      </trkpt>
      <trkpt lat="47.83162" lon="6.88323">
        <ele>1080.7</ele>
        <time>2021-08-09T13:47:26Z</time>
      </trkpt>
      <trkpt lat="47.83162" lon="6.88323">
        <ele>1080.7</ele>
        <time>2021-08-09T13:47:28Z</time>
      </trkpt>
      <trkpt lat="47.83162" lon="6.88323">
        <ele>1080.7</ele>
        <time>2021-08-09T13:47:29Z</time>
      </trkpt>
      <trkpt lat="47.83162" lon="6.88323">
        <ele>1080.7</ele>
        <time>2021-08-09T13:47:30Z</time>
      </trkpt>
      <trkpt lat="47.83162" lon="6.88323">
        <ele>1080.7</ele>
        <time>2021-08-09T13:47:32Z</time>
      </trkpt>
      <trkpt lat="47.83162" lon="6.88323">
        <ele>1080.7</ele>
        <time>2021-08-09T13:47:34Z</time>
      </trkpt>
      <trkpt lat="47.83161" lon="6.88323">
        <ele>1080.7</ele>
        <time>2021-08-09T13:47:35Z</time>
      </trkpt>
      <trkpt lat="47.8316" lon="6.88323">
        <ele>1080.8</ele>
        <time>2021-08-09T13:47:36Z</time>
      </trkpt>
      <trkpt lat="47.83158" lon="6.88324">
        <ele>1080.9</ele>
        <time>2021-08-09T13:47:39Z</time>
      </trkpt>
      <trkpt lat="47.83157" lon="6.88325">
        <ele>1080.9</ele>
        <time>2021-08-09T13:47:41Z</time>
      </trkpt>
      <trkpt lat="47.83157" lon="6.88326">
        <ele>1081</ele>
        <time>2021-08-09T13:47:44Z</time>
      </trkpt>
      <trkpt lat="47.83156" lon="6.88327">
        <ele>1081</ele>
        <time>2021-08-09T13:47:46Z</time>
      </trkpt>
      <trkpt lat="47.83156" lon="6.88329">
        <ele>1081.1</ele>
        <time>2021-08-09T13:47:48Z</time>
      </trkpt>
      <trkpt lat="47.83156" lon="6.88329">
        <ele>1081.1</ele>
        <time>2021-08-09T13:47:49Z</time>
      </trkpt>
      <trkpt lat="47.83156" lon="6.88329">
        <ele>1081.1</ele>
        <time>2021-08-09T13:47:50Z</time>
      </trkpt>
      <trkpt lat="47.83156" lon="6.88329">
        <ele>1081.1</ele>
        <time>2021-08-09T13:47:52Z</time>
      </trkpt>
      <trkpt lat="47.83156" lon="6.88329">
        <ele>1081.1</ele>
        <time>2021-08-09T13:47:53Z</time>
      </trkpt>
      <trkpt lat="47.83156" lon="6.88329">
        <ele>1081.1</ele>
        <time>2021-08-09T13:47:55Z</time>
      </trkpt>
      <trkpt lat="47.83156" lon="6.88329">
        <ele>1081.1</ele>
        <time>2021-08-09T13:47:56Z</time>
      </trkpt>
      <trkpt lat="47.83156" lon="6.88328">
        <ele>1081.2</ele>
        <time>2021-08-09T13:47:59Z</time>
      </trkpt>
      <trkpt lat="47.83156" lon="6.88328">
        <ele>1081.2</ele>
        <time>2021-08-09T13:48:00Z</time>
      </trkpt>
      <trkpt lat="47.83156" lon="6.88328">
        <ele>1081.2</ele>
        <time>2021-08-09T13:48:02Z</time>
      </trkpt>
      <trkpt lat="47.83156" lon="6.88328">
        <ele>1081.2</ele>
        <time>2021-08-09T13:48:04Z</time>
      </trkpt>
      <trkpt lat="47.83156" lon="6.88328">
        <ele>1081.2</ele>
        <time>2021-08-09T13:48:06Z</time>
      </trkpt>
      <trkpt lat="47.83155" lon="6.88325">
        <ele>1081.4</ele>
        <time>2021-08-09T13:48:09Z</time>
      </trkpt>
      <trkpt lat="47.83154" lon="6.88324">
        <ele>1081.5</ele>
        <time>2021-08-09T13:48:10Z</time>
      </trkpt>
      <trkpt lat="47.83153" lon="6.88322">
        <ele>1081.7</ele>
        <time>2021-08-09T13:48:12Z</time>
      </trkpt>
      <trkpt lat="47.83152" lon="6.88321">
        <ele>1081.8</ele>
        <time>2021-08-09T13:48:14Z</time>
      </trkpt>
      <trkpt lat="47.83152" lon="6.8832">
        <ele>1081.9</ele>
        <time>2021-08-09T13:48:16Z</time>
      </trkpt>
      <trkpt lat="47.83151" lon="6.88317">
        <ele>1082.1</ele>
        <time>2021-08-09T13:48:18Z</time>
      </trkpt>
      <trkpt lat="47.83151" lon="6.88317">
        <ele>1082.2</ele>
        <time>2021-08-09T13:48:19Z</time>
      </trkpt>
      <trkpt lat="47.83155" lon="6.88318">
        <ele>1082.8</ele>
        <time>2021-08-09T13:48:20Z</time>
      </trkpt>
      <trkpt lat="47.83161" lon="6.88321">
        <ele>1083.8</ele>
        <time>2021-08-09T13:48:22Z</time>
      </trkpt>
      <trkpt lat="47.83163" lon="6.88323">
        <ele>1084.1</ele>
        <time>2021-08-09T13:48:23Z</time>
      </trkpt>
      <trkpt lat="47.83163" lon="6.88323">
        <ele>1084.2</ele>
        <time>2021-08-09T13:48:24Z</time>
      </trkpt>
      <trkpt lat="47.83164" lon="6.88324">
        <ele>1084.3</ele>
        <time>2021-08-09T13:48:26Z</time>
      </trkpt>
      <trkpt lat="47.83164" lon="6.88324">
        <ele>1084.3</ele>
        <time>2021-08-09T13:48:28Z</time>
      </trkpt>
      <trkpt lat="47.83162" lon="6.88323">
        <ele>1084.6</ele>
        <time>2021-08-09T13:48:29Z</time>
      </trkpt>
      <trkpt lat="47.8316" lon="6.88323">
        <ele>1084.8</ele>
        <time>2021-08-09T13:48:30Z</time>
      </trkpt>
      <trkpt lat="47.83156" lon="6.88323">
        <ele>1085.1</ele>
        <time>2021-08-09T13:48:32Z</time>
      </trkpt>
      <trkpt lat="47.83154" lon="6.88321">
        <ele>1085.2</ele>
        <time>2021-08-09T13:48:33Z</time>
      </trkpt>
      <trkpt lat="47.83153" lon="6.88321">
        <ele>1085.2</ele>
        <time>2021-08-09T13:48:34Z</time>
      </trkpt>
      <trkpt lat="47.83153" lon="6.88319">
        <ele>1085.2</ele>
        <time>2021-08-09T13:48:35Z</time>
      </trkpt>
      <trkpt lat="47.83152" lon="6.88315">
        <ele>1085.2</ele>
        <time>2021-08-09T13:48:37Z</time>
      </trkpt>
      <trkpt lat="47.83152" lon="6.88309">
        <ele>1085</ele>
        <time>2021-08-09T13:48:38Z</time>
      </trkpt>
      <trkpt lat="47.83152" lon="6.88307">
        <ele>1085</ele>
        <time>2021-08-09T13:48:39Z</time>
      </trkpt>
      <trkpt lat="47.83152" lon="6.88306">
        <ele>1084.9</ele>
        <time>2021-08-09T13:48:40Z</time>
      </trkpt>
      <trkpt lat="47.83152" lon="6.88307">
        <ele>1084.9</ele>
        <time>2021-08-09T13:48:41Z</time>
      </trkpt>
      <trkpt lat="47.83152" lon="6.88307">
        <ele>1084.9</ele>
        <time>2021-08-09T13:48:42Z</time>
      </trkpt>
      <trkpt lat="47.83153" lon="6.88307">
        <ele>1084.8</ele>
        <time>2021-08-09T13:48:44Z</time>
      </trkpt>
      <trkpt lat="47.83153" lon="6.88307">
        <ele>1084.7</ele>
        <time>2021-08-09T13:48:45Z</time>
      </trkpt>
      <trkpt lat="47.83152" lon="6.88307">
        <ele>1084.7</ele>
        <time>2021-08-09T13:48:47Z</time>
      </trkpt>
      <trkpt lat="47.83152" lon="6.88307">
        <ele>1084.7</ele>
        <time>2021-08-09T13:48:49Z</time>
      </trkpt>
      <trkpt lat="47.83153" lon="6.88306">
        <ele>1084.6</ele>
        <time>2021-08-09T13:48:50Z</time>
      </trkpt>
      <trkpt lat="47.83153" lon="6.88305">
        <ele>1084.6</ele>
        <time>2021-08-09T13:48:52Z</time>
      </trkpt>
      <trkpt lat="47.83149" lon="6.88227">
        <ele>1079.7</ele>
        <time>2021-08-09T13:50:36Z</time>
      </trkpt>
      <trkpt lat="47.83146" lon="6.88224">
        <ele>1079.3</ele>
        <time>2021-08-09T13:50:37Z</time>
      </trkpt>
      <trkpt lat="47.83143" lon="6.88221">
        <ele>1078.8</ele>
        <time>2021-08-09T13:50:38Z</time>
      </trkpt>
      <trkpt lat="47.83139" lon="6.88215">
        <ele>1078.3</ele>
        <time>2021-08-09T13:50:39Z</time>
      </trkpt>
      <trkpt lat="47.83137" lon="6.88208">
        <ele>1077.7</ele>
        <time>2021-08-09T13:50:41Z</time>
      </trkpt>
      <trkpt lat="47.83135" lon="6.88202">
        <ele>1077.3</ele>
        <time>2021-08-09T13:50:42Z</time>
      </trkpt>
      <trkpt lat="47.83134" lon="6.882">
        <ele>1077.1</ele>
        <time>2021-08-09T13:50:43Z</time>
      </trkpt>
      <trkpt lat="47.83134" lon="6.88201">
        <ele>1077.1</ele>
        <time>2021-08-09T13:50:44Z</time>
      </trkpt>
      <trkpt lat="47.8313" lon="6.88201">
        <ele>1076.6</ele>
        <time>2021-08-09T13:50:46Z</time>
      </trkpt>
      <trkpt lat="47.83128" lon="6.88199">
        <ele>1076.4</ele>
        <time>2021-08-09T13:50:47Z</time>
      </trkpt>
      <trkpt lat="47.83126" lon="6.88198">
        <ele>1076.1</ele>
        <time>2021-08-09T13:50:49Z</time>
      </trkpt>
      <trkpt lat="47.83125" lon="6.88197">
        <ele>1076</ele>
        <time>2021-08-09T13:50:50Z</time>
      </trkpt>
      <trkpt lat="47.83125" lon="6.88194">
        <ele>1075.8</ele>
        <time>2021-08-09T13:50:51Z</time>
      </trkpt>
      <trkpt lat="47.83124" lon="6.88194">
        <ele>1075.7</ele>
        <time>2021-08-09T13:50:53Z</time>
      </trkpt>
      <trkpt lat="47.83123" lon="6.88194">
        <ele>1075.6</ele>
        <time>2021-08-09T13:50:54Z</time>
      </trkpt>
      <trkpt lat="47.83123" lon="6.88193">
        <ele>1075.5</ele>
        <time>2021-08-09T13:50:55Z</time>
      </trkpt>
      <trkpt lat="47.83122" lon="6.88193">
        <ele>1075.5</ele>
        <time>2021-08-09T13:50:56Z</time>
      </trkpt>
      <trkpt lat="47.83122" lon="6.88192">
        <ele>1075.4</ele>
        <time>2021-08-09T13:50:57Z</time>
      </trkpt>
      <trkpt lat="47.83121" lon="6.8819">
        <ele>1075.2</ele>
        <time>2021-08-09T13:50:59Z</time>
      </trkpt>
      <trkpt lat="47.83119" lon="6.88188">
        <ele>1075.1</ele>
        <time>2021-08-09T13:51:00Z</time>
      </trkpt>
      <trkpt lat="47.83117" lon="6.88186">
        <ele>1074.8</ele>
        <time>2021-08-09T13:51:01Z</time>
      </trkpt>
      <trkpt lat="47.83102" lon="6.88168">
        <ele>1073.6</ele>
        <time>2021-08-09T13:51:10Z</time>
      </trkpt>
      <trkpt lat="47.831" lon="6.88166">
        <ele>1073.4</ele>
        <time>2021-08-09T13:51:11Z</time>
      </trkpt>
      <trkpt lat="47.83098" lon="6.88158">
        <ele>1073.1</ele>
        <time>2021-08-09T13:51:13Z</time>
      </trkpt>
      <trkpt lat="47.83096" lon="6.88149">
        <ele>1072.8</ele>
        <time>2021-08-09T13:51:14Z</time>
      </trkpt>
      <trkpt lat="47.83094" lon="6.88138">
        <ele>1072.5</ele>
        <time>2021-08-09T13:51:16Z</time>
      </trkpt>
      <trkpt lat="47.83095" lon="6.88133">
        <ele>1072.4</ele>
        <time>2021-08-09T13:51:17Z</time>
      </trkpt>
      <trkpt lat="47.83095" lon="6.88131">
        <ele>1072.4</ele>
        <time>2021-08-09T13:51:18Z</time>
      </trkpt>
      <trkpt lat="47.83092" lon="6.88127">
        <ele>1072.3</ele>
        <time>2021-08-09T13:51:20Z</time>
      </trkpt>
      <trkpt lat="47.83091" lon="6.88124">
        <ele>1072.2</ele>
        <time>2021-08-09T13:51:21Z</time>
      </trkpt>
      <trkpt lat="47.83092" lon="6.88118">
        <ele>1072.1</ele>
        <time>2021-08-09T13:51:23Z</time>
      </trkpt>
      <trkpt lat="47.83093" lon="6.88116">
        <ele>1072</ele>
        <time>2021-08-09T13:51:24Z</time>
      </trkpt>
      <trkpt lat="47.83094" lon="6.8811">
        <ele>1071.8</ele>
        <time>2021-08-09T13:51:26Z</time>
      </trkpt>
      <trkpt lat="47.83094" lon="6.88105">
        <ele>1071.7</ele>
        <time>2021-08-09T13:51:27Z</time>
      </trkpt>
      <trkpt lat="47.83095" lon="6.881">
        <ele>1071.5</ele>
        <time>2021-08-09T13:51:28Z</time>
      </trkpt>
      <trkpt lat="47.83095" lon="6.88093">
        <ele>1071.4</ele>
        <time>2021-08-09T13:51:30Z</time>
      </trkpt>
      <trkpt lat="47.83095" lon="6.88091">
        <ele>1071.3</ele>
        <time>2021-08-09T13:51:31Z</time>
      </trkpt>
      <trkpt lat="47.83095" lon="6.88089">
        <ele>1071.3</ele>
        <time>2021-08-09T13:51:32Z</time>
      </trkpt>
      <trkpt lat="47.83097" lon="6.88083">
        <ele>1071.1</ele>
        <time>2021-08-09T13:51:34Z</time>
      </trkpt>
      <trkpt lat="47.83098" lon="6.88082">
        <ele>1071</ele>
        <time>2021-08-09T13:51:35Z</time>
      </trkpt>
      <trkpt lat="47.83099" lon="6.8808">
        <ele>1071</ele>
        <time>2021-08-09T13:51:36Z</time>
      </trkpt>
      <trkpt lat="47.831" lon="6.88079">
        <ele>1071</ele>
        <time>2021-08-09T13:51:37Z</time>
      </trkpt>
      <trkpt lat="47.83101" lon="6.88076">
        <ele>1070.9</ele>
        <time>2021-08-09T13:51:38Z</time>
      </trkpt>
      <trkpt lat="47.83104" lon="6.8807">
        <ele>1070.6</ele>
        <time>2021-08-09T13:51:40Z</time>
      </trkpt>
      <trkpt lat="47.83106" lon="6.88066">
        <ele>1070.5</ele>
        <time>2021-08-09T13:51:41Z</time>
      </trkpt>
      <trkpt lat="47.83108" lon="6.88063">
        <ele>1070.3</ele>
        <time>2021-08-09T13:51:42Z</time>
      </trkpt>
      <trkpt lat="47.83112" lon="6.88056">
        <ele>1070</ele>
        <time>2021-08-09T13:51:44Z</time>
      </trkpt>
      <trkpt lat="47.83115" lon="6.8805">
        <ele>1069.6</ele>
        <time>2021-08-09T13:51:45Z</time>
      </trkpt>
      <trkpt lat="47.83118" lon="6.88043">
        <ele>1069.2</ele>
        <time>2021-08-09T13:51:46Z</time>
      </trkpt>
      <trkpt lat="47.83121" lon="6.88033">
        <ele>1068.7</ele>
        <time>2021-08-09T13:51:47Z</time>
      </trkpt>
      <trkpt lat="47.83126" lon="6.88019">
        <ele>1068.2</ele>
        <time>2021-08-09T13:51:48Z</time>
      </trkpt>
      <trkpt lat="47.83128" lon="6.88007">
        <ele>1067.8</ele>
        <time>2021-08-09T13:51:50Z</time>
      </trkpt>
      <trkpt lat="47.83128" lon="6.8799">
        <ele>1067.3</ele>
        <time>2021-08-09T13:51:51Z</time>
      </trkpt>
      <trkpt lat="47.83128" lon="6.8798">
        <ele>1067</ele>
        <time>2021-08-09T13:51:52Z</time>
      </trkpt>
      <trkpt lat="47.83127" lon="6.87971">
        <ele>1066.7</ele>
        <time>2021-08-09T13:51:53Z</time>
      </trkpt>
      <trkpt lat="47.83126" lon="6.87962">
        <ele>1066.2</ele>
        <time>2021-08-09T13:51:54Z</time>
      </trkpt>
      <trkpt lat="47.83123" lon="6.87953">
        <ele>1065.5</ele>
        <time>2021-08-09T13:51:55Z</time>
      </trkpt>
      <trkpt lat="47.83121" lon="6.87945">
        <ele>1065.7</ele>
        <time>2021-08-09T13:51:56Z</time>
      </trkpt>
      <trkpt lat="47.83115" lon="6.87929">
        <ele>1066.1</ele>
        <time>2021-08-09T13:51:58Z</time>
      </trkpt>
      <trkpt lat="47.83111" lon="6.87925">
        <ele>1066.3</ele>
        <time>2021-08-09T13:52:00Z</time>
      </trkpt>
      <trkpt lat="47.83108" lon="6.87922">
        <ele>1066.4</ele>
        <time>2021-08-09T13:52:01Z</time>
      </trkpt>
      <trkpt lat="47.83101" lon="6.87919">
        <ele>1066.8</ele>
        <time>2021-08-09T13:52:03Z</time>
      </trkpt>
      <trkpt lat="47.83095" lon="6.87918">
        <ele>1066.9</ele>
        <time>2021-08-09T13:52:04Z</time>
      </trkpt>
      <trkpt lat="47.83084" lon="6.87914">
        <ele>1067.1</ele>
        <time>2021-08-09T13:52:06Z</time>
      </trkpt>
      <trkpt lat="47.83077" lon="6.87911">
        <ele>1067</ele>
        <time>2021-08-09T13:52:07Z</time>
      </trkpt>
      <trkpt lat="47.83072" lon="6.87909">
        <ele>1067</ele>
        <time>2021-08-09T13:52:08Z</time>
      </trkpt>
      <trkpt lat="47.83068" lon="6.87908">
        <ele>1067</ele>
        <time>2021-08-09T13:52:10Z</time>
      </trkpt>
      <trkpt lat="47.83065" lon="6.87909">
        <ele>1067</ele>
        <time>2021-08-09T13:52:11Z</time>
      </trkpt>
      <trkpt lat="47.83061" lon="6.87908">
        <ele>1067</ele>
        <time>2021-08-09T13:52:12Z</time>
      </trkpt>
      <trkpt lat="47.83059" lon="6.87905">
        <ele>1067</ele>
        <time>2021-08-09T13:52:13Z</time>
      </trkpt>
      <trkpt lat="47.83052" lon="6.879">
        <ele>1067</ele>
        <time>2021-08-09T13:52:15Z</time>
      </trkpt>
      <trkpt lat="47.83047" lon="6.87902">
        <ele>1067</ele>
        <time>2021-08-09T13:52:16Z</time>
      </trkpt>
      <trkpt lat="47.83044" lon="6.87898">
        <ele>1067</ele>
        <time>2021-08-09T13:52:17Z</time>
      </trkpt>
      <trkpt lat="47.8304" lon="6.87892">
        <ele>1066.9</ele>
        <time>2021-08-09T13:52:19Z</time>
      </trkpt>
      <trkpt lat="47.83032" lon="6.87887">
        <ele>1066.9</ele>
        <time>2021-08-09T13:52:20Z</time>
      </trkpt>
      <trkpt lat="47.83017" lon="6.87874">
        <ele>1067.4</ele>
        <time>2021-08-09T13:52:21Z</time>
      </trkpt>
      <trkpt lat="47.83007" lon="6.87869">
        <ele>1068.1</ele>
        <time>2021-08-09T13:52:23Z</time>
      </trkpt>
      <trkpt lat="47.83003" lon="6.87869">
        <ele>1068.3</ele>
        <time>2021-08-09T13:52:24Z</time>
      </trkpt>
      <trkpt lat="47.82998" lon="6.87871">
        <ele>1068.5</ele>
        <time>2021-08-09T13:52:26Z</time>
      </trkpt>
      <trkpt lat="47.82993" lon="6.87868">
        <ele>1068.7</ele>
        <time>2021-08-09T13:52:27Z</time>
      </trkpt>
      <trkpt lat="47.82988" lon="6.87861">
        <ele>1068.9</ele>
        <time>2021-08-09T13:52:28Z</time>
      </trkpt>
      <trkpt lat="47.82985" lon="6.87855">
        <ele>1069</ele>
        <time>2021-08-09T13:52:29Z</time>
      </trkpt>
      <trkpt lat="47.8298" lon="6.87848">
        <ele>1069.2</ele>
        <time>2021-08-09T13:52:31Z</time>
      </trkpt>
      <trkpt lat="47.82979" lon="6.87844">
        <ele>1069.3</ele>
        <time>2021-08-09T13:52:32Z</time>
      </trkpt>
      <trkpt lat="47.82977" lon="6.87842">
        <ele>1069.4</ele>
        <time>2021-08-09T13:52:34Z</time>
      </trkpt>
      <trkpt lat="47.82974" lon="6.8784">
        <ele>1069.6</ele>
        <time>2021-08-09T13:52:35Z</time>
      </trkpt>
      <trkpt lat="47.82972" lon="6.87839">
        <ele>1069.8</ele>
        <time>2021-08-09T13:52:36Z</time>
      </trkpt>
      <trkpt lat="47.8297" lon="6.87838">
        <ele>1069.9</ele>
        <time>2021-08-09T13:52:38Z</time>
      </trkpt>
      <trkpt lat="47.82966" lon="6.87837">
        <ele>1070.2</ele>
        <time>2021-08-09T13:52:39Z</time>
      </trkpt>
      <trkpt lat="47.82965" lon="6.87837">
        <ele>1070.3</ele>
        <time>2021-08-09T13:52:40Z</time>
      </trkpt>
      <trkpt lat="47.82963" lon="6.87837">
        <ele>1070.5</ele>
        <time>2021-08-09T13:52:41Z</time>
      </trkpt>
      <trkpt lat="47.82891" lon="6.87784">
        <ele>1071</ele>
        <time>2021-08-09T13:53:22Z</time>
      </trkpt>
      <trkpt lat="47.82886" lon="6.87781">
        <ele>1070.9</ele>
        <time>2021-08-09T13:53:23Z</time>
      </trkpt>
      <trkpt lat="47.82882" lon="6.87778">
        <ele>1070.7</ele>
        <time>2021-08-09T13:53:24Z</time>
      </trkpt>
      <trkpt lat="47.82878" lon="6.87775">
        <ele>1070.5</ele>
        <time>2021-08-09T13:53:26Z</time>
      </trkpt>
      <trkpt lat="47.82871" lon="6.8777">
        <ele>1070.2</ele>
        <time>2021-08-09T13:53:27Z</time>
      </trkpt>
      <trkpt lat="47.82866" lon="6.87763">
        <ele>1069.8</ele>
        <time>2021-08-09T13:53:28Z</time>
      </trkpt>
      <trkpt lat="47.82864" lon="6.87758">
        <ele>1069.6</ele>
        <time>2021-08-09T13:53:29Z</time>
      </trkpt>
      <trkpt lat="47.82861" lon="6.87748">
        <ele>1069.1</ele>
        <time>2021-08-09T13:53:31Z</time>
      </trkpt>
      <trkpt lat="47.82858" lon="6.8774">
        <ele>1068.6</ele>
        <time>2021-08-09T13:53:32Z</time>
      </trkpt>
      <trkpt lat="47.82855" lon="6.87726">
        <ele>1067.1</ele>
        <time>2021-08-09T13:53:34Z</time>
      </trkpt>
      <trkpt lat="47.82851" lon="6.87717">
        <ele>1065.9</ele>
        <time>2021-08-09T13:53:35Z</time>
      </trkpt>
      <trkpt lat="47.82848" lon="6.87709">
        <ele>1064.8</ele>
        <time>2021-08-09T13:53:37Z</time>
      </trkpt>
      <trkpt lat="47.82847" lon="6.87705">
        <ele>1064.4</ele>
        <time>2021-08-09T13:53:38Z</time>
      </trkpt>
      <trkpt lat="47.82846" lon="6.87701">
        <ele>1063.9</ele>
        <time>2021-08-09T13:53:40Z</time>
      </trkpt>
      <trkpt lat="47.82847" lon="6.87697">
        <ele>1063.5</ele>
        <time>2021-08-09T13:53:41Z</time>
      </trkpt>
      <trkpt lat="47.82848" lon="6.8769">
        <ele>1062.8</ele>
        <time>2021-08-09T13:53:43Z</time>
      </trkpt>
      <trkpt lat="47.82848" lon="6.87687">
        <ele>1062.5</ele>
        <time>2021-08-09T13:53:44Z</time>
      </trkpt>
      <trkpt lat="47.82849" lon="6.87685">
        <ele>1062.3</ele>
        <time>2021-08-09T13:53:45Z</time>
      </trkpt>
      <trkpt lat="47.82848" lon="6.8768">
        <ele>1061.9</ele>
        <time>2021-08-09T13:53:46Z</time>
      </trkpt>
      <trkpt lat="47.82848" lon="6.87678">
        <ele>1061.7</ele>
        <time>2021-08-09T13:53:47Z</time>
      </trkpt>
      <trkpt lat="47.82844" lon="6.87672">
        <ele>1061.1</ele>
        <time>2021-08-09T13:53:49Z</time>
      </trkpt>
      <trkpt lat="47.82841" lon="6.87668">
        <ele>1060.6</ele>
        <time>2021-08-09T13:53:50Z</time>
      </trkpt>
      <trkpt lat="47.82833" lon="6.87663">
        <ele>1059.8</ele>
        <time>2021-08-09T13:53:51Z</time>
      </trkpt>
      <trkpt lat="47.82824" lon="6.87654">
        <ele>1058.9</ele>
        <time>2021-08-09T13:53:53Z</time>
      </trkpt>
      <trkpt lat="47.82821" lon="6.87648">
        <ele>1058.5</ele>
        <time>2021-08-09T13:53:54Z</time>
      </trkpt>
      <trkpt lat="47.82817" lon="6.87643">
        <ele>1058.1</ele>
        <time>2021-08-09T13:53:56Z</time>
      </trkpt>
      <trkpt lat="47.82814" lon="6.87639">
        <ele>1057.7</ele>
        <time>2021-08-09T13:53:57Z</time>
      </trkpt>
      <trkpt lat="47.82811" lon="6.87634">
        <ele>1057.3</ele>
        <time>2021-08-09T13:53:58Z</time>
      </trkpt>
      <trkpt lat="47.8281" lon="6.87629">
        <ele>1057.1</ele>
        <time>2021-08-09T13:53:59Z</time>
      </trkpt>
      <trkpt lat="47.82809" lon="6.87622">
        <ele>1056.7</ele>
        <time>2021-08-09T13:54:00Z</time>
      </trkpt>
      <trkpt lat="47.82808" lon="6.87618">
        <ele>1056.5</ele>
        <time>2021-08-09T13:54:02Z</time>
      </trkpt>
      <trkpt lat="47.82806" lon="6.87613">
        <ele>1056.3</ele>
        <time>2021-08-09T13:54:03Z</time>
      </trkpt>
      <trkpt lat="47.82803" lon="6.87605">
        <ele>1056.1</ele>
        <time>2021-08-09T13:54:04Z</time>
      </trkpt>
      <trkpt lat="47.82799" lon="6.876">
        <ele>1056</ele>
        <time>2021-08-09T13:54:06Z</time>
      </trkpt>
      <trkpt lat="47.82796" lon="6.87595">
        <ele>1055.9</ele>
        <time>2021-08-09T13:54:07Z</time>
      </trkpt>
      <trkpt lat="47.82794" lon="6.8759">
        <ele>1055.8</ele>
        <time>2021-08-09T13:54:08Z</time>
      </trkpt>
      <trkpt lat="47.82792" lon="6.87586">
        <ele>1055.8</ele>
        <time>2021-08-09T13:54:09Z</time>
      </trkpt>
      <trkpt lat="47.82789" lon="6.87579">
        <ele>1055.8</ele>
        <time>2021-08-09T13:54:11Z</time>
      </trkpt>
      <trkpt lat="47.82787" lon="6.87577">
        <ele>1055.8</ele>
        <time>2021-08-09T13:54:12Z</time>
      </trkpt>
      <trkpt lat="47.82785" lon="6.87574">
        <ele>1055.8</ele>
        <time>2021-08-09T13:54:13Z</time>
      </trkpt>
      <trkpt lat="47.82784" lon="6.87572">
        <ele>1055.9</ele>
        <time>2021-08-09T13:54:14Z</time>
      </trkpt>
      <trkpt lat="47.82782" lon="6.87569">
        <ele>1055.9</ele>
        <time>2021-08-09T13:54:16Z</time>
      </trkpt>
      <trkpt lat="47.8278" lon="6.87567">
        <ele>1055.9</ele>
        <time>2021-08-09T13:54:18Z</time>
      </trkpt>
      <trkpt lat="47.82779" lon="6.87564">
        <ele>1055.9</ele>
        <time>2021-08-09T13:54:19Z</time>
      </trkpt>
      <trkpt lat="47.82777" lon="6.87562">
        <ele>1055.9</ele>
        <time>2021-08-09T13:54:21Z</time>
      </trkpt>
      <trkpt lat="47.82775" lon="6.87559">
        <ele>1056</ele>
        <time>2021-08-09T13:54:40Z</time>
      </trkpt>
      <trkpt lat="47.82774" lon="6.87557">
        <ele>1056</ele>
        <time>2021-08-09T13:54:41Z</time>
      </trkpt>
      <trkpt lat="47.82772" lon="6.87554">
        <ele>1056</ele>
        <time>2021-08-09T13:54:42Z</time>
      </trkpt>
      <trkpt lat="47.82771" lon="6.8755">
        <ele>1055.9</ele>
        <time>2021-08-09T13:54:44Z</time>
      </trkpt>
      <trkpt lat="47.8277" lon="6.87543">
        <ele>1055.7</ele>
        <time>2021-08-09T13:54:45Z</time>
      </trkpt>
      <trkpt lat="47.82768" lon="6.87537">
        <ele>1055.5</ele>
        <time>2021-08-09T13:54:47Z</time>
      </trkpt>
      <trkpt lat="47.82767" lon="6.87535">
        <ele>1055.4</ele>
        <time>2021-08-09T13:54:48Z</time>
      </trkpt>
      <trkpt lat="47.82765" lon="6.87533">
        <ele>1055.2</ele>
        <time>2021-08-09T13:54:50Z</time>
      </trkpt>
      <trkpt lat="47.82763" lon="6.87531">
        <ele>1055.1</ele>
        <time>2021-08-09T13:54:51Z</time>
      </trkpt>
      <trkpt lat="47.82763" lon="6.8753">
        <ele>1055.1</ele>
        <time>2021-08-09T13:54:52Z</time>
      </trkpt>
      <trkpt lat="47.82764" lon="6.87528">
        <ele>1055</ele>
        <time>2021-08-09T13:54:54Z</time>
      </trkpt>
      <trkpt lat="47.82764" lon="6.87526">
        <ele>1055</ele>
        <time>2021-08-09T13:54:55Z</time>
      </trkpt>
      <trkpt lat="47.82764" lon="6.87523">
        <ele>1054.8</ele>
        <time>2021-08-09T13:54:57Z</time>
      </trkpt>
      <trkpt lat="47.82763" lon="6.87521">
        <ele>1054.8</ele>
        <time>2021-08-09T13:54:59Z</time>
      </trkpt>
      <trkpt lat="47.82762" lon="6.87519">
        <ele>1054.7</ele>
        <time>2021-08-09T13:55:00Z</time>
      </trkpt>
      <trkpt lat="47.82758" lon="6.87503">
        <ele>1054.4</ele>
        <time>2021-08-09T13:55:07Z</time>
      </trkpt>
      <trkpt lat="47.82756" lon="6.875">
        <ele>1054.3</ele>
        <time>2021-08-09T13:55:08Z</time>
      </trkpt>
      <trkpt lat="47.82754" lon="6.87495">
        <ele>1054.3</ele>
        <time>2021-08-09T13:55:10Z</time>
      </trkpt>
      <trkpt lat="47.82751" lon="6.87486">
        <ele>1054.3</ele>
        <time>2021-08-09T13:55:11Z</time>
      </trkpt>
      <trkpt lat="47.8275" lon="6.87482">
        <ele>1054.3</ele>
        <time>2021-08-09T13:55:12Z</time>
      </trkpt>
      <trkpt lat="47.82748" lon="6.87477">
        <ele>1054.3</ele>
        <time>2021-08-09T13:55:14Z</time>
      </trkpt>
      <trkpt lat="47.82745" lon="6.87475">
        <ele>1054.3</ele>
        <time>2021-08-09T13:55:16Z</time>
      </trkpt>
      <trkpt lat="47.82743" lon="6.87473">
        <ele>1054.3</ele>
        <time>2021-08-09T13:55:18Z</time>
      </trkpt>
      <trkpt lat="47.82743" lon="6.87476">
        <ele>1054.3</ele>
        <time>2021-08-09T13:55:20Z</time>
      </trkpt>
      <trkpt lat="47.82743" lon="6.87476">
        <ele>1054.3</ele>
        <time>2021-08-09T13:55:22Z</time>
      </trkpt>
      <trkpt lat="47.82743" lon="6.87476">
        <ele>1054.3</ele>
        <time>2021-08-09T13:55:23Z</time>
      </trkpt>
      <trkpt lat="47.82743" lon="6.87476">
        <ele>1054.3</ele>
        <time>2021-08-09T13:55:24Z</time>
      </trkpt>
      <trkpt lat="47.82744" lon="6.87476">
        <ele>1054.3</ele>
        <time>2021-08-09T13:55:25Z</time>
      </trkpt>
      <trkpt lat="47.82744" lon="6.87476">
        <ele>1054.3</ele>
        <time>2021-08-09T13:55:26Z</time>
      </trkpt>
      <trkpt lat="47.82752" lon="6.87457">
        <ele>1054.1</ele>
        <time>2021-08-09T13:55:39Z</time>
      </trkpt>
      <trkpt lat="47.82753" lon="6.87452">
        <ele>1054.1</ele>
        <time>2021-08-09T13:55:40Z</time>
      </trkpt>
      <trkpt lat="47.82753" lon="6.87448">
        <ele>1054.1</ele>
        <time>2021-08-09T13:55:41Z</time>
      </trkpt>
      <trkpt lat="47.82753" lon="6.87441">
        <ele>1054</ele>
        <time>2021-08-09T13:55:43Z</time>
      </trkpt>
      <trkpt lat="47.82753" lon="6.87439">
        <ele>1054</ele>
        <time>2021-08-09T13:55:44Z</time>
      </trkpt>
      <trkpt lat="47.82752" lon="6.87426">
        <ele>1054</ele>
        <time>2021-08-09T13:55:46Z</time>
      </trkpt>
      <trkpt lat="47.82752" lon="6.87426">
        <ele>1054</ele>
        <time>2021-08-09T13:55:47Z</time>
      </trkpt>
      <trkpt lat="47.82753" lon="6.87426">
        <ele>1054</ele>
        <time>2021-08-09T13:55:49Z</time>
      </trkpt>
      <trkpt lat="47.82753" lon="6.87426">
        <ele>1054</ele>
        <time>2021-08-09T13:55:51Z</time>
      </trkpt>
      <trkpt lat="47.82753" lon="6.87426">
        <ele>1054</ele>
        <time>2021-08-09T13:55:52Z</time>
      </trkpt>
      <trkpt lat="47.82753" lon="6.87425">
        <ele>1054</ele>
        <time>2021-08-09T13:55:54Z</time>
      </trkpt>
      <trkpt lat="47.82749" lon="6.87399">
        <ele>1054.1</ele>
        <time>2021-08-09T13:56:51Z</time>
      </trkpt>
      <trkpt lat="47.82749" lon="6.87395">
        <ele>1054</ele>
        <time>2021-08-09T13:56:53Z</time>
      </trkpt>
      <trkpt lat="47.82749" lon="6.87394">
        <ele>1054</ele>
        <time>2021-08-09T13:56:54Z</time>
      </trkpt>
      <trkpt lat="47.82749" lon="6.87392">
        <ele>1054</ele>
        <time>2021-08-09T13:56:55Z</time>
      </trkpt>
      <trkpt lat="47.8275" lon="6.87389">
        <ele>1053.9</ele>
        <time>2021-08-09T13:56:56Z</time>
      </trkpt>
      <trkpt lat="47.8275" lon="6.87384">
        <ele>1053.9</ele>
        <time>2021-08-09T13:56:58Z</time>
      </trkpt>
      <trkpt lat="47.8275" lon="6.87381">
        <ele>1053.8</ele>
        <time>2021-08-09T13:56:59Z</time>
      </trkpt>
      <trkpt lat="47.8275" lon="6.87379">
        <ele>1053.8</ele>
        <time>2021-08-09T13:57:00Z</time>
      </trkpt>
      <trkpt lat="47.82752" lon="6.87375">
        <ele>1053.7</ele>
        <time>2021-08-09T13:57:02Z</time>
      </trkpt>
      <trkpt lat="47.82752" lon="6.87374">
        <ele>1053.6</ele>
        <time>2021-08-09T13:57:03Z</time>
      </trkpt>
      <trkpt lat="47.82753" lon="6.87372">
        <ele>1053.6</ele>
        <time>2021-08-09T13:57:04Z</time>
      </trkpt>
      <trkpt lat="47.82753" lon="6.87371">
        <ele>1053.6</ele>
        <time>2021-08-09T13:57:05Z</time>
      </trkpt>
      <trkpt lat="47.82753" lon="6.8737">
        <ele>1053.5</ele>
        <time>2021-08-09T13:57:07Z</time>
      </trkpt>
      <trkpt lat="47.82754" lon="6.8737">
        <ele>1053.5</ele>
        <time>2021-08-09T13:57:09Z</time>
      </trkpt>
      <trkpt lat="47.82753" lon="6.87369">
        <ele>1053.5</ele>
        <time>2021-08-09T13:57:11Z</time>
      </trkpt>
      <trkpt lat="47.82754" lon="6.87367">
        <ele>1053.5</ele>
        <time>2021-08-09T13:57:12Z</time>
      </trkpt>
      <trkpt lat="47.82754" lon="6.87365">
        <ele>1053.4</ele>
        <time>2021-08-09T13:57:14Z</time>
      </trkpt>
      <trkpt lat="47.82757" lon="6.8736">
        <ele>1053.2</ele>
        <time>2021-08-09T13:57:16Z</time>
      </trkpt>
      <trkpt lat="47.82758" lon="6.87356">
        <ele>1053.1</ele>
        <time>2021-08-09T13:57:17Z</time>
      </trkpt>
      <trkpt lat="47.82759" lon="6.87356">
        <ele>1053.1</ele>
        <time>2021-08-09T13:57:18Z</time>
      </trkpt>
      <trkpt lat="47.8276" lon="6.87357">
        <ele>1053.1</ele>
        <time>2021-08-09T13:57:20Z</time>
      </trkpt>
      <trkpt lat="47.82761" lon="6.87357">
        <ele>1053</ele>
        <time>2021-08-09T13:57:22Z</time>
      </trkpt>
      <trkpt lat="47.82761" lon="6.87357">
        <ele>1053</ele>
        <time>2021-08-09T13:57:23Z</time>
      </trkpt>
      <trkpt lat="47.82762" lon="6.87357">
        <ele>1053</ele>
        <time>2021-08-09T13:57:24Z</time>
      </trkpt>
      <trkpt lat="47.82762" lon="6.87356">
        <ele>1053</ele>
        <time>2021-08-09T13:57:25Z</time>
      </trkpt>
      <trkpt lat="47.82762" lon="6.87356">
        <ele>1052.9</ele>
        <time>2021-08-09T13:57:27Z</time>
      </trkpt>
      <trkpt lat="47.82762" lon="6.87356">
        <ele>1052.9</ele>
        <time>2021-08-09T13:57:28Z</time>
      </trkpt>
      <trkpt lat="47.82763" lon="6.87356">
        <ele>1052.9</ele>
        <time>2021-08-09T13:57:29Z</time>
      </trkpt>
      <trkpt lat="47.82763" lon="6.87356">
        <ele>1052.9</ele>
        <time>2021-08-09T13:57:30Z</time>
      </trkpt>
      <trkpt lat="47.82763" lon="6.87356">
        <ele>1052.9</ele>
        <time>2021-08-09T13:57:32Z</time>
      </trkpt>
      <trkpt lat="47.82763" lon="6.87355">
        <ele>1052.9</ele>
        <time>2021-08-09T13:57:33Z</time>
      </trkpt>
      <trkpt lat="47.82763" lon="6.87355">
        <ele>1052.9</ele>
        <time>2021-08-09T13:57:34Z</time>
      </trkpt>
      <trkpt lat="47.82763" lon="6.87355">
        <ele>1052.9</ele>
        <time>2021-08-09T13:57:35Z</time>
      </trkpt>
      <trkpt lat="47.82765" lon="6.87354">
        <ele>1052.8</ele>
        <time>2021-08-09T13:57:37Z</time>
      </trkpt>
      <trkpt lat="47.82767" lon="6.87353">
        <ele>1052.7</ele>
        <time>2021-08-09T13:57:38Z</time>
      </trkpt>
      <trkpt lat="47.8277" lon="6.87351">
        <ele>1052.5</ele>
        <time>2021-08-09T13:57:40Z</time>
      </trkpt>
      <trkpt lat="47.82774" lon="6.87347">
        <ele>1052.3</ele>
        <time>2021-08-09T13:57:41Z</time>
      </trkpt>
      <trkpt lat="47.82775" lon="6.87345">
        <ele>1052.2</ele>
        <time>2021-08-09T13:57:42Z</time>
      </trkpt>
      <trkpt lat="47.82777" lon="6.87341">
        <ele>1052</ele>
        <time>2021-08-09T13:57:43Z</time>
      </trkpt>
      <trkpt lat="47.82779" lon="6.87337">
        <ele>1051.8</ele>
        <time>2021-08-09T13:57:44Z</time>
      </trkpt>
      <trkpt lat="47.82782" lon="6.87331">
        <ele>1051.6</ele>
        <time>2021-08-09T13:57:46Z</time>
      </trkpt>
      <trkpt lat="47.82784" lon="6.87326">
        <ele>1051</ele>
        <time>2021-08-09T13:57:47Z</time>
      </trkpt>
      <trkpt lat="47.82785" lon="6.87324">
        <ele>1050.9</ele>
        <time>2021-08-09T13:57:48Z</time>
      </trkpt>
      <trkpt lat="47.82787" lon="6.8732">
        <ele>1050.8</ele>
        <time>2021-08-09T13:57:50Z</time>
      </trkpt>
      <trkpt lat="47.82789" lon="6.87316">
        <ele>1050.8</ele>
        <time>2021-08-09T13:57:51Z</time>
      </trkpt>
      <trkpt lat="47.82789" lon="6.87314">
        <ele>1050.7</ele>
        <time>2021-08-09T13:57:52Z</time>
      </trkpt>
      <trkpt lat="47.82788" lon="6.87309">
        <ele>1050.6</ele>
        <time>2021-08-09T13:57:53Z</time>
      </trkpt>
      <trkpt lat="47.82788" lon="6.87308">
        <ele>1050.6</ele>
        <time>2021-08-09T13:57:54Z</time>
      </trkpt>
      <trkpt lat="47.82787" lon="6.87303">
        <ele>1050.5</ele>
        <time>2021-08-09T13:57:55Z</time>
      </trkpt>
      <trkpt lat="47.82785" lon="6.87294">
        <ele>1050.2</ele>
        <time>2021-08-09T13:57:57Z</time>
      </trkpt>
      <trkpt lat="47.82785" lon="6.87288">
        <ele>1050</ele>
        <time>2021-08-09T13:57:58Z</time>
      </trkpt>
      <trkpt lat="47.82784" lon="6.87281">
        <ele>1049.8</ele>
        <time>2021-08-09T13:57:59Z</time>
      </trkpt>
      <trkpt lat="47.82784" lon="6.87276">
        <ele>1049.7</ele>
        <time>2021-08-09T13:58:00Z</time>
      </trkpt>
      <trkpt lat="47.82784" lon="6.87267">
        <ele>1049.4</ele>
        <time>2021-08-09T13:58:02Z</time>
      </trkpt>
      <trkpt lat="47.82785" lon="6.87261">
        <ele>1049.1</ele>
        <time>2021-08-09T13:58:03Z</time>
      </trkpt>
      <trkpt lat="47.82786" lon="6.87257">
        <ele>1048.9</ele>
        <time>2021-08-09T13:58:04Z</time>
      </trkpt>
      <trkpt lat="47.82786" lon="6.87253">
        <ele>1048.7</ele>
        <time>2021-08-09T13:58:05Z</time>
      </trkpt>
      <trkpt lat="47.82785" lon="6.8725">
        <ele>1048.6</ele>
        <time>2021-08-09T13:58:06Z</time>
      </trkpt>
      <trkpt lat="47.82785" lon="6.87246">
        <ele>1048.4</ele>
        <time>2021-08-09T13:58:08Z</time>
      </trkpt>
      <trkpt lat="47.82783" lon="6.87241">
        <ele>1048.1</ele>
        <time>2021-08-09T13:58:09Z</time>
      </trkpt>
      <trkpt lat="47.82781" lon="6.87237">
        <ele>1047.8</ele>
        <time>2021-08-09T13:58:10Z</time>
      </trkpt>
      <trkpt lat="47.82779" lon="6.87236">
        <ele>1047.7</ele>
        <time>2021-08-09T13:58:11Z</time>
      </trkpt>
      <trkpt lat="47.82777" lon="6.87235">
        <ele>1047.5</ele>
        <time>2021-08-09T13:58:12Z</time>
      </trkpt>
      <trkpt lat="47.82772" lon="6.87229">
        <ele>1047</ele>
        <time>2021-08-09T13:58:14Z</time>
      </trkpt>
      <trkpt lat="47.82769" lon="6.87225">
        <ele>1046.8</ele>
        <time>2021-08-09T13:58:15Z</time>
      </trkpt>
      <trkpt lat="47.82765" lon="6.87219">
        <ele>1046.4</ele>
        <time>2021-08-09T13:58:17Z</time>
      </trkpt>
      <trkpt lat="47.82764" lon="6.87217">
        <ele>1046.3</ele>
        <time>2021-08-09T13:58:18Z</time>
      </trkpt>
      <trkpt lat="47.82761" lon="6.87212">
        <ele>1046.2</ele>
        <time>2021-08-09T13:58:20Z</time>
      </trkpt>
      <trkpt lat="47.82759" lon="6.87209">
        <ele>1046.3</ele>
        <time>2021-08-09T13:58:22Z</time>
      </trkpt>
      <trkpt lat="47.82758" lon="6.87206">
        <ele>1046.5</ele>
        <time>2021-08-09T13:58:24Z</time>
      </trkpt>
      <trkpt lat="47.82758" lon="6.87201">
        <ele>1046.7</ele>
        <time>2021-08-09T13:58:26Z</time>
      </trkpt>
      <trkpt lat="47.82759" lon="6.87195">
        <ele>1047</ele>
        <time>2021-08-09T13:58:27Z</time>
      </trkpt>
      <trkpt lat="47.82758" lon="6.87189">
        <ele>1047.4</ele>
        <time>2021-08-09T13:58:29Z</time>
      </trkpt>
      <trkpt lat="47.82758" lon="6.87186">
        <ele>1047.6</ele>
        <time>2021-08-09T13:58:30Z</time>
      </trkpt>
      <trkpt lat="47.82758" lon="6.87183">
        <ele>1047.8</ele>
        <time>2021-08-09T13:58:32Z</time>
      </trkpt>
      <trkpt lat="47.82758" lon="6.87186">
        <ele>1048.1</ele>
        <time>2021-08-09T13:58:34Z</time>
      </trkpt>
      <trkpt lat="47.82758" lon="6.87186">
        <ele>1048.1</ele>
        <time>2021-08-09T13:58:35Z</time>
      </trkpt>
      <trkpt lat="47.82758" lon="6.87187">
        <ele>1048.2</ele>
        <time>2021-08-09T13:58:37Z</time>
      </trkpt>
      <trkpt lat="47.82758" lon="6.87187">
        <ele>1048.2</ele>
        <time>2021-08-09T13:58:38Z</time>
      </trkpt>
      <trkpt lat="47.82758" lon="6.87186">
        <ele>1048.2</ele>
        <time>2021-08-09T13:58:39Z</time>
      </trkpt>
      <trkpt lat="47.82758" lon="6.87186">
        <ele>1048.2</ele>
        <time>2021-08-09T13:58:41Z</time>
      </trkpt>
      <trkpt lat="47.82765" lon="6.87176">
        <ele>1049.7</ele>
        <time>2021-08-09T13:58:50Z</time>
      </trkpt>
      <trkpt lat="47.82767" lon="6.87171">
        <ele>1050.3</ele>
        <time>2021-08-09T13:58:52Z</time>
      </trkpt>
      <trkpt lat="47.82769" lon="6.87166">
        <ele>1051.1</ele>
        <time>2021-08-09T13:58:54Z</time>
      </trkpt>
      <trkpt lat="47.8277" lon="6.87165">
        <ele>1051.3</ele>
        <time>2021-08-09T13:58:55Z</time>
      </trkpt>
      <trkpt lat="47.82771" lon="6.87164">
        <ele>1051.5</ele>
        <time>2021-08-09T13:58:57Z</time>
      </trkpt>
      <trkpt lat="47.82772" lon="6.87162">
        <ele>1051.7</ele>
        <time>2021-08-09T13:58:58Z</time>
      </trkpt>
      <trkpt lat="47.82773" lon="6.87161">
        <ele>1051.9</ele>
        <time>2021-08-09T13:59:00Z</time>
      </trkpt>
      <trkpt lat="47.82773" lon="6.8716">
        <ele>1052.2</ele>
        <time>2021-08-09T13:59:02Z</time>
      </trkpt>
      <trkpt lat="47.82774" lon="6.87159">
        <ele>1052.4</ele>
        <time>2021-08-09T13:59:03Z</time>
      </trkpt>
      <trkpt lat="47.82775" lon="6.87157">
        <ele>1052.6</ele>
        <time>2021-08-09T13:59:04Z</time>
      </trkpt>
      <trkpt lat="47.82776" lon="6.87156">
        <ele>1052.9</ele>
        <time>2021-08-09T13:59:05Z</time>
      </trkpt>
      <trkpt lat="47.82777" lon="6.87154">
        <ele>1053.2</ele>
        <time>2021-08-09T13:59:07Z</time>
      </trkpt>
      <trkpt lat="47.82778" lon="6.87153">
        <ele>1053.4</ele>
        <time>2021-08-09T13:59:08Z</time>
      </trkpt>
      <trkpt lat="47.82779" lon="6.87151">
        <ele>1053.7</ele>
        <time>2021-08-09T13:59:09Z</time>
      </trkpt>
      <trkpt lat="47.82779" lon="6.87149">
        <ele>1054</ele>
        <time>2021-08-09T13:59:11Z</time>
      </trkpt>
      <trkpt lat="47.82779" lon="6.87148">
        <ele>1054.2</ele>
        <time>2021-08-09T13:59:13Z</time>
      </trkpt>
      <trkpt lat="47.82779" lon="6.87147">
        <ele>1054.3</ele>
        <time>2021-08-09T13:59:14Z</time>
      </trkpt>
      <trkpt lat="47.82779" lon="6.87146">
        <ele>1054.4</ele>
        <time>2021-08-09T13:59:16Z</time>
      </trkpt>
      <trkpt lat="47.82779" lon="6.87146">
        <ele>1054.5</ele>
        <time>2021-08-09T13:59:17Z</time>
      </trkpt>
      <trkpt lat="47.8278" lon="6.87145">
        <ele>1054.5</ele>
        <time>2021-08-09T13:59:19Z</time>
      </trkpt>
      <trkpt lat="47.8278" lon="6.87145">
        <ele>1054.6</ele>
        <time>2021-08-09T13:59:20Z</time>
      </trkpt>
      <trkpt lat="47.8278" lon="6.87145">
        <ele>1054.6</ele>
        <time>2021-08-09T13:59:22Z</time>
      </trkpt>
      <trkpt lat="47.82778" lon="6.87143">
        <ele>1054.9</ele>
        <time>2021-08-09T13:59:23Z</time>
      </trkpt>
      <trkpt lat="47.82777" lon="6.87142">
        <ele>1055.3</ele>
        <time>2021-08-09T13:59:25Z</time>
      </trkpt>
      <trkpt lat="47.82776" lon="6.87141">
        <ele>1055.5</ele>
        <time>2021-08-09T13:59:26Z</time>
      </trkpt>
      <trkpt lat="47.82775" lon="6.8714">
        <ele>1055.7</ele>
        <time>2021-08-09T13:59:27Z</time>
      </trkpt>
      <trkpt lat="47.82774" lon="6.87138">
        <ele>1056</ele>
        <time>2021-08-09T13:59:29Z</time>
      </trkpt>
      <trkpt lat="47.82774" lon="6.87136">
        <ele>1056.1</ele>
        <time>2021-08-09T13:59:31Z</time>
      </trkpt>
      <trkpt lat="47.82774" lon="6.87136">
        <ele>1056.2</ele>
        <time>2021-08-09T13:59:32Z</time>
      </trkpt>
      <trkpt lat="47.82774" lon="6.87134">
        <ele>1056.4</ele>
        <time>2021-08-09T13:59:34Z</time>
      </trkpt>
      <trkpt lat="47.82775" lon="6.87133">
        <ele>1056.5</ele>
        <time>2021-08-09T13:59:35Z</time>
      </trkpt>
      <trkpt lat="47.82775" lon="6.87132">
        <ele>1056.6</ele>
        <time>2021-08-09T13:59:37Z</time>
      </trkpt>
      <trkpt lat="47.82775" lon="6.87132">
        <ele>1056.7</ele>
        <time>2021-08-09T13:59:39Z</time>
      </trkpt>
      <trkpt lat="47.82775" lon="6.87131">
        <ele>1056.7</ele>
        <time>2021-08-09T13:59:40Z</time>
      </trkpt>
      <trkpt lat="47.82775" lon="6.87131">
        <ele>1056.7</ele>
        <time>2021-08-09T13:59:42Z</time>
      </trkpt>
      <trkpt lat="47.82775" lon="6.8713">
        <ele>1056.8</ele>
        <time>2021-08-09T13:59:43Z</time>
      </trkpt>
      <trkpt lat="47.82776" lon="6.87128">
        <ele>1057</ele>
        <time>2021-08-09T13:59:45Z</time>
      </trkpt>
      <trkpt lat="47.82776" lon="6.87128">
        <ele>1057.1</ele>
        <time>2021-08-09T13:59:46Z</time>
      </trkpt>
      <trkpt lat="47.82776" lon="6.87127">
        <ele>1057.1</ele>
        <time>2021-08-09T13:59:48Z</time>
      </trkpt>
      <trkpt lat="47.82776" lon="6.87126">
        <ele>1057.2</ele>
        <time>2021-08-09T13:59:49Z</time>
      </trkpt>
      <trkpt lat="47.82776" lon="6.87126">
        <ele>1057.2</ele>
        <time>2021-08-09T13:59:51Z</time>
      </trkpt>
      <trkpt lat="47.82776" lon="6.87126">
        <ele>1057.3</ele>
        <time>2021-08-09T13:59:52Z</time>
      </trkpt>
      <trkpt lat="47.82776" lon="6.87125">
        <ele>1057.3</ele>
        <time>2021-08-09T13:59:54Z</time>
      </trkpt>
      <trkpt lat="47.82776" lon="6.87125">
        <ele>1057.3</ele>
        <time>2021-08-09T13:59:56Z</time>
      </trkpt>
      <trkpt lat="47.82776" lon="6.87125">
        <ele>1057.3</ele>
        <time>2021-08-09T13:59:57Z</time>
      </trkpt>
      <trkpt lat="47.82777" lon="6.87125">
        <ele>1057.3</ele>
        <time>2021-08-09T13:59:58Z</time>
      </trkpt>
      <trkpt lat="47.82777" lon="6.87125">
        <ele>1057.3</ele>
        <time>2021-08-09T14:00:00Z</time>
      </trkpt>
      <trkpt lat="47.82777" lon="6.87125">
        <ele>1057.4</ele>
        <time>2021-08-09T14:00:02Z</time>
      </trkpt>
      <trkpt lat="47.82777" lon="6.87125">
        <ele>1057.4</ele>
        <time>2021-08-09T14:00:04Z</time>
      </trkpt>
      <trkpt lat="47.82777" lon="6.87125">
        <ele>1057.4</ele>
        <time>2021-08-09T14:00:05Z</time>
      </trkpt>
      <trkpt lat="47.82777" lon="6.87125">
        <ele>1057.4</ele>
        <time>2021-08-09T14:00:07Z</time>
      </trkpt>
      <trkpt lat="47.82777" lon="6.87125">
        <ele>1057.4</ele>
        <time>2021-08-09T14:00:08Z</time>
      </trkpt>
      <trkpt lat="47.82777" lon="6.87125">
        <ele>1057.4</ele>
        <time>2021-08-09T14:00:09Z</time>
      </trkpt>
      <trkpt lat="47.82777" lon="6.87125">
        <ele>1057.4</ele>
        <time>2021-08-09T14:00:10Z</time>
      </trkpt>
      <trkpt lat="47.82777" lon="6.87124">
        <ele>1057.5</ele>
        <time>2021-08-09T14:00:11Z</time>
      </trkpt>
      <trkpt lat="47.82778" lon="6.87123">
        <ele>1057.6</ele>
        <time>2021-08-09T14:00:12Z</time>
      </trkpt>
      <trkpt lat="47.8278" lon="6.8712">
        <ele>1057.9</ele>
        <time>2021-08-09T14:00:14Z</time>
      </trkpt>
      <trkpt lat="47.82781" lon="6.87119">
        <ele>1058</ele>
        <time>2021-08-09T14:00:15Z</time>
      </trkpt>
      <trkpt lat="47.82781" lon="6.87118">
        <ele>1058.1</ele>
        <time>2021-08-09T14:00:16Z</time>
      </trkpt>
      <trkpt lat="47.82782" lon="6.87116">
        <ele>1058.3</ele>
        <time>2021-08-09T14:00:18Z</time>
      </trkpt>
      <trkpt lat="47.82782" lon="6.87115">
        <ele>1058.4</ele>
        <time>2021-08-09T14:00:19Z</time>
      </trkpt>
      <trkpt lat="47.82783" lon="6.87114">
        <ele>1058.4</ele>
        <time>2021-08-09T14:00:21Z</time>
      </trkpt>
      <trkpt lat="47.82783" lon="6.87114">
        <ele>1058.4</ele>
        <time>2021-08-09T14:00:23Z</time>
      </trkpt>
      <trkpt lat="47.82783" lon="6.87113">
        <ele>1058.5</ele>
        <time>2021-08-09T14:00:24Z</time>
      </trkpt>
      <trkpt lat="47.82783" lon="6.87113">
        <ele>1058.5</ele>
        <time>2021-08-09T14:00:26Z</time>
      </trkpt>
      <trkpt lat="47.82783" lon="6.87113">
        <ele>1058.5</ele>
        <time>2021-08-09T14:00:27Z</time>
      </trkpt>
      <trkpt lat="47.82783" lon="6.87112">
        <ele>1058.6</ele>
        <time>2021-08-09T14:00:28Z</time>
      </trkpt>
      <trkpt lat="47.82784" lon="6.87111">
        <ele>1058.6</ele>
        <time>2021-08-09T14:00:29Z</time>
      </trkpt>
      <trkpt lat="47.82785" lon="6.87109">
        <ele>1058.8</ele>
        <time>2021-08-09T14:00:31Z</time>
      </trkpt>
      <trkpt lat="47.82785" lon="6.87109">
        <ele>1058.9</ele>
        <time>2021-08-09T14:00:32Z</time>
      </trkpt>
      <trkpt lat="47.82786" lon="6.87107">
        <ele>1059</ele>
        <time>2021-08-09T14:00:34Z</time>
      </trkpt>
      <trkpt lat="47.82787" lon="6.87106">
        <ele>1059.1</ele>
        <time>2021-08-09T14:00:36Z</time>
      </trkpt>
      <trkpt lat="47.82787" lon="6.87106">
        <ele>1059.1</ele>
        <time>2021-08-09T14:00:37Z</time>
      </trkpt>
      <trkpt lat="47.82788" lon="6.87105">
        <ele>1059.2</ele>
        <time>2021-08-09T14:00:38Z</time>
      </trkpt>
      <trkpt lat="47.82789" lon="6.87103">
        <ele>1059.4</ele>
        <time>2021-08-09T14:00:40Z</time>
      </trkpt>
      <trkpt lat="47.82789" lon="6.87102">
        <ele>1059.4</ele>
        <time>2021-08-09T14:00:41Z</time>
      </trkpt>
      <trkpt lat="47.8279" lon="6.87101">
        <ele>1059.5</ele>
        <time>2021-08-09T14:00:42Z</time>
      </trkpt>
      <trkpt lat="47.8279" lon="6.871">
        <ele>1059.6</ele>
        <time>2021-08-09T14:00:43Z</time>
      </trkpt>
      <trkpt lat="47.8279" lon="6.871">
        <ele>1059.6</ele>
        <time>2021-08-09T14:00:45Z</time>
      </trkpt>
      <trkpt lat="47.8279" lon="6.87099">
        <ele>1059.7</ele>
        <time>2021-08-09T14:00:46Z</time>
      </trkpt>
      <trkpt lat="47.8279" lon="6.87099">
        <ele>1059.7</ele>
        <time>2021-08-09T14:00:48Z</time>
      </trkpt>
      <trkpt lat="47.8279" lon="6.87098">
        <ele>1059.7</ele>
        <time>2021-08-09T14:00:49Z</time>
      </trkpt>
      <trkpt lat="47.8279" lon="6.87098">
        <ele>1059.7</ele>
        <time>2021-08-09T14:00:50Z</time>
      </trkpt>
      <trkpt lat="47.8279" lon="6.87098">
        <ele>1059.7</ele>
        <time>2021-08-09T14:00:51Z</time>
      </trkpt>
      <trkpt lat="47.82791" lon="6.87098">
        <ele>1059.8</ele>
        <time>2021-08-09T14:00:52Z</time>
      </trkpt>
      <trkpt lat="47.82791" lon="6.87098">
        <ele>1059.8</ele>
        <time>2021-08-09T14:00:54Z</time>
      </trkpt>
      <trkpt lat="47.82791" lon="6.87098">
        <ele>1059.8</ele>
        <time>2021-08-09T14:00:55Z</time>
      </trkpt>
      <trkpt lat="47.82791" lon="6.87098">
        <ele>1059.8</ele>
        <time>2021-08-09T14:00:57Z</time>
      </trkpt>
      <trkpt lat="47.82792" lon="6.87096">
        <ele>1059.9</ele>
        <time>2021-08-09T14:00:58Z</time>
      </trkpt>
      <trkpt lat="47.82793" lon="6.87094">
        <ele>1060.1</ele>
        <time>2021-08-09T14:01:00Z</time>
      </trkpt>
      <trkpt lat="47.82796" lon="6.87092">
        <ele>1060.4</ele>
        <time>2021-08-09T14:01:02Z</time>
      </trkpt>
      <trkpt lat="47.82796" lon="6.87091">
        <ele>1060.5</ele>
        <time>2021-08-09T14:01:03Z</time>
      </trkpt>
      <trkpt lat="47.82799" lon="6.87086">
        <ele>1060.9</ele>
        <time>2021-08-09T14:01:05Z</time>
      </trkpt>
      <trkpt lat="47.82799" lon="6.87086">
        <ele>1060.9</ele>
        <time>2021-08-09T14:01:06Z</time>
      </trkpt>
      <trkpt lat="47.82799" lon="6.87086">
        <ele>1060.9</ele>
        <time>2021-08-09T14:01:07Z</time>
      </trkpt>
      <trkpt lat="47.82799" lon="6.87086">
        <ele>1060.9</ele>
        <time>2021-08-09T14:01:09Z</time>
      </trkpt>
      <trkpt lat="47.82802" lon="6.87085">
        <ele>1061.2</ele>
        <time>2021-08-09T14:01:10Z</time>
      </trkpt>
      <trkpt lat="47.82804" lon="6.87085">
        <ele>1061.4</ele>
        <time>2021-08-09T14:01:11Z</time>
      </trkpt>
      <trkpt lat="47.82806" lon="6.87085">
        <ele>1061.6</ele>
        <time>2021-08-09T14:01:12Z</time>
      </trkpt>
      <trkpt lat="47.82808" lon="6.87085">
        <ele>1061.7</ele>
        <time>2021-08-09T14:01:13Z</time>
      </trkpt>
      <trkpt lat="47.8281" lon="6.87085">
        <ele>1061.9</ele>
        <time>2021-08-09T14:01:15Z</time>
      </trkpt>
      <trkpt lat="47.82811" lon="6.87085">
        <ele>1061.9</ele>
        <time>2021-08-09T14:01:16Z</time>
      </trkpt>
      <trkpt lat="47.82811" lon="6.87085">
        <ele>1062</ele>
        <time>2021-08-09T14:01:17Z</time>
      </trkpt>
      <trkpt lat="47.82812" lon="6.87085">
        <ele>1062</ele>
        <time>2021-08-09T14:01:18Z</time>
      </trkpt>
      <trkpt lat="47.82812" lon="6.87085">
        <ele>1062</ele>
        <time>2021-08-09T14:01:19Z</time>
      </trkpt>
      <trkpt lat="47.82812" lon="6.87085">
        <ele>1062</ele>
        <time>2021-08-09T14:01:21Z</time>
      </trkpt>
      <trkpt lat="47.82812" lon="6.87085">
        <ele>1062</ele>
        <time>2021-08-09T14:01:22Z</time>
      </trkpt>
      <trkpt lat="47.82812" lon="6.87085">
        <ele>1062</ele>
        <time>2021-08-09T14:01:23Z</time>
      </trkpt>
      <trkpt lat="47.82812" lon="6.87085">
        <ele>1062</ele>
        <time>2021-08-09T14:01:24Z</time>
      </trkpt>
      <trkpt lat="47.82812" lon="6.87085">
        <ele>1062</ele>
        <time>2021-08-09T14:01:26Z</time>
      </trkpt>
      <trkpt lat="47.82812" lon="6.87085">
        <ele>1062</ele>
        <time>2021-08-09T14:01:27Z</time>
      </trkpt>
      <trkpt lat="47.82812" lon="6.87085">
        <ele>1062</ele>
        <time>2021-08-09T14:01:29Z</time>
      </trkpt>
      <trkpt lat="47.82813" lon="6.87085">
        <ele>1062</ele>
        <time>2021-08-09T14:01:30Z</time>
      </trkpt>
      <trkpt lat="47.82813" lon="6.87084">
        <ele>1062.1</ele>
        <time>2021-08-09T14:01:31Z</time>
      </trkpt>
      <trkpt lat="47.82813" lon="6.87083">
        <ele>1062.1</ele>
        <time>2021-08-09T14:01:32Z</time>
      </trkpt>
      <trkpt lat="47.82813" lon="6.87081">
        <ele>1062.2</ele>
        <time>2021-08-09T14:01:34Z</time>
      </trkpt>
      <trkpt lat="47.82813" lon="6.87079">
        <ele>1062.3</ele>
        <time>2021-08-09T14:01:35Z</time>
      </trkpt>
      <trkpt lat="47.82814" lon="6.87077">
        <ele>1062.3</ele>
        <time>2021-08-09T14:01:36Z</time>
      </trkpt>
      <trkpt lat="47.82816" lon="6.87071">
        <ele>1061.5</ele>
        <time>2021-08-09T14:01:38Z</time>
      </trkpt>
      <trkpt lat="47.82816" lon="6.87068">
        <ele>1061</ele>
        <time>2021-08-09T14:01:39Z</time>
      </trkpt>
      <trkpt lat="47.82817" lon="6.87062">
        <ele>1060.1</ele>
        <time>2021-08-09T14:01:41Z</time>
      </trkpt>
      <trkpt lat="47.82817" lon="6.87058">
        <ele>1059.5</ele>
        <time>2021-08-09T14:01:42Z</time>
      </trkpt>
      <trkpt lat="47.82818" lon="6.87052">
        <ele>1058.5</ele>
        <time>2021-08-09T14:01:43Z</time>
      </trkpt>
      <trkpt lat="47.82819" lon="6.87048">
        <ele>1058</ele>
        <time>2021-08-09T14:01:45Z</time>
      </trkpt>
      <trkpt lat="47.82819" lon="6.87046">
        <ele>1057.7</ele>
        <time>2021-08-09T14:01:46Z</time>
      </trkpt>
      <trkpt lat="47.8282" lon="6.87044">
        <ele>1057.3</ele>
        <time>2021-08-09T14:01:47Z</time>
      </trkpt>
      <trkpt lat="47.82818" lon="6.87035">
        <ele>1055.9</ele>
        <time>2021-08-09T14:01:49Z</time>
      </trkpt>
      <trkpt lat="47.82817" lon="6.87027">
        <ele>1054.6</ele>
        <time>2021-08-09T14:01:50Z</time>
      </trkpt>
      <trkpt lat="47.82816" lon="6.8702">
        <ele>1053.2</ele>
        <time>2021-08-09T14:01:51Z</time>
      </trkpt>
      <trkpt lat="47.82815" lon="6.87012">
        <ele>1051.8</ele>
        <time>2021-08-09T14:01:53Z</time>
      </trkpt>
      <trkpt lat="47.82814" lon="6.87004">
        <ele>1050.3</ele>
        <time>2021-08-09T14:01:54Z</time>
      </trkpt>
      <trkpt lat="47.82812" lon="6.86997">
        <ele>1048.8</ele>
        <time>2021-08-09T14:01:56Z</time>
      </trkpt>
      <trkpt lat="47.82811" lon="6.86989">
        <ele>1047.1</ele>
        <time>2021-08-09T14:01:57Z</time>
      </trkpt>
      <trkpt lat="47.8281" lon="6.86981">
        <ele>1045.4</ele>
        <time>2021-08-09T14:02:46Z</time>
      </trkpt>
      <trkpt lat="47.82809" lon="6.86973">
        <ele>1043.6</ele>
        <time>2021-08-09T14:02:48Z</time>
      </trkpt>
      <trkpt lat="47.82808" lon="6.86966">
        <ele>1041.9</ele>
        <time>2021-08-09T14:02:49Z</time>
      </trkpt>
      <trkpt lat="47.82806" lon="6.86958">
        <ele>1040.2</ele>
        <time>2021-08-09T14:02:51Z</time>
      </trkpt>
      <trkpt lat="47.82805" lon="6.8695">
        <ele>1038.7</ele>
        <time>2021-08-09T14:02:52Z</time>
      </trkpt>
      <trkpt lat="47.82805" lon="6.86946">
        <ele>1038</ele>
        <time>2021-08-09T14:02:53Z</time>
      </trkpt>
      <trkpt lat="47.82805" lon="6.86943">
        <ele>1037.7</ele>
        <time>2021-08-09T14:02:54Z</time>
      </trkpt>
      <trkpt lat="47.82805" lon="6.86937">
        <ele>1037</ele>
        <time>2021-08-09T14:02:56Z</time>
      </trkpt>
      <trkpt lat="47.82806" lon="6.86933">
        <ele>1036.7</ele>
        <time>2021-08-09T14:02:57Z</time>
      </trkpt>
      <trkpt lat="47.82806" lon="6.86928">
        <ele>1036.5</ele>
        <time>2021-08-09T14:02:59Z</time>
      </trkpt>
      <trkpt lat="47.82806" lon="6.86926">
        <ele>1036.4</ele>
        <time>2021-08-09T14:03:01Z</time>
      </trkpt>
      <trkpt lat="47.82806" lon="6.86925">
        <ele>1036.4</ele>
        <time>2021-08-09T14:03:03Z</time>
      </trkpt>
      <trkpt lat="47.82806" lon="6.86925">
        <ele>1036.4</ele>
        <time>2021-08-09T14:03:05Z</time>
      </trkpt>
      <trkpt lat="47.82806" lon="6.86925">
        <ele>1036.4</ele>
        <time>2021-08-09T14:03:07Z</time>
      </trkpt>
      <trkpt lat="47.8282" lon="6.86812">
        <ele>1031.1</ele>
        <time>2021-08-09T14:05:30Z</time>
      </trkpt>
      <trkpt lat="47.82821" lon="6.86807">
        <ele>1030.6</ele>
        <time>2021-08-09T14:05:31Z</time>
      </trkpt>
      <trkpt lat="47.82821" lon="6.86806">
        <ele>1030.4</ele>
        <time>2021-08-09T14:05:32Z</time>
      </trkpt>
      <trkpt lat="47.82821" lon="6.86798">
        <ele>1029.6</ele>
        <time>2021-08-09T14:05:34Z</time>
      </trkpt>
      <trkpt lat="47.82821" lon="6.86794">
        <ele>1029.3</ele>
        <time>2021-08-09T14:05:35Z</time>
      </trkpt>
      <trkpt lat="47.82821" lon="6.86792">
        <ele>1029.1</ele>
        <time>2021-08-09T14:05:36Z</time>
      </trkpt>
      <trkpt lat="47.82819" lon="6.86786">
        <ele>1028.6</ele>
        <time>2021-08-09T14:05:38Z</time>
      </trkpt>
      <trkpt lat="47.82817" lon="6.86782">
        <ele>1028.2</ele>
        <time>2021-08-09T14:05:39Z</time>
      </trkpt>
      <trkpt lat="47.82815" lon="6.8678">
        <ele>1028</ele>
        <time>2021-08-09T14:05:40Z</time>
      </trkpt>
      <trkpt lat="47.82813" lon="6.86776">
        <ele>1027.7</ele>
        <time>2021-08-09T14:05:41Z</time>
      </trkpt>
      <trkpt lat="47.82811" lon="6.86774">
        <ele>1027.5</ele>
        <time>2021-08-09T14:05:43Z</time>
      </trkpt>
      <trkpt lat="47.8281" lon="6.86773">
        <ele>1027.4</ele>
        <time>2021-08-09T14:05:45Z</time>
      </trkpt>
      <trkpt lat="47.8281" lon="6.86772">
        <ele>1027.3</ele>
        <time>2021-08-09T14:05:46Z</time>
      </trkpt>
      <trkpt lat="47.82811" lon="6.86772">
        <ele>1027.3</ele>
        <time>2021-08-09T14:05:48Z</time>
      </trkpt>
      <trkpt lat="47.82811" lon="6.86772">
        <ele>1027.3</ele>
        <time>2021-08-09T14:05:49Z</time>
      </trkpt>
      <trkpt lat="47.82811" lon="6.86772">
        <ele>1027.3</ele>
        <time>2021-08-09T14:05:50Z</time>
      </trkpt>
      <trkpt lat="47.82812" lon="6.86772">
        <ele>1027.2</ele>
        <time>2021-08-09T14:05:52Z</time>
      </trkpt>
      <trkpt lat="47.82812" lon="6.8677">
        <ele>1027.1</ele>
        <time>2021-08-09T14:05:53Z</time>
      </trkpt>
      <trkpt lat="47.82802" lon="6.86711">
        <ele>1025.9</ele>
        <time>2021-08-09T14:06:33Z</time>
      </trkpt>
      <trkpt lat="47.82799" lon="6.86704">
        <ele>1026.1</ele>
        <time>2021-08-09T14:06:35Z</time>
      </trkpt>
      <trkpt lat="47.82798" lon="6.86699">
        <ele>1026.2</ele>
        <time>2021-08-09T14:06:36Z</time>
      </trkpt>
      <trkpt lat="47.82794" lon="6.86689">
        <ele>1026.7</ele>
        <time>2021-08-09T14:06:38Z</time>
      </trkpt>
      <trkpt lat="47.82793" lon="6.86688">
        <ele>1026.8</ele>
        <time>2021-08-09T14:06:40Z</time>
      </trkpt>
      <trkpt lat="47.82793" lon="6.86688">
        <ele>1026.8</ele>
        <time>2021-08-09T14:06:41Z</time>
      </trkpt>
      <trkpt lat="47.82792" lon="6.86689">
        <ele>1026.9</ele>
        <time>2021-08-09T14:06:43Z</time>
      </trkpt>
      <trkpt lat="47.82792" lon="6.86689">
        <ele>1026.9</ele>
        <time>2021-08-09T14:06:44Z</time>
      </trkpt>
      <trkpt lat="47.82792" lon="6.86689">
        <ele>1027</ele>
        <time>2021-08-09T14:06:46Z</time>
      </trkpt>
      <trkpt lat="47.82782" lon="6.86666">
        <ele>1029.1</ele>
        <time>2021-08-09T14:07:30Z</time>
      </trkpt>
      <trkpt lat="47.82781" lon="6.86663">
        <ele>1029.4</ele>
        <time>2021-08-09T14:07:32Z</time>
      </trkpt>
      <trkpt lat="47.8278" lon="6.86662">
        <ele>1029.5</ele>
        <time>2021-08-09T14:07:33Z</time>
      </trkpt>
      <trkpt lat="47.82779" lon="6.8666">
        <ele>1029.7</ele>
        <time>2021-08-09T14:07:34Z</time>
      </trkpt>
      <trkpt lat="47.82778" lon="6.86659">
        <ele>1029.8</ele>
        <time>2021-08-09T14:07:35Z</time>
      </trkpt>
      <trkpt lat="47.82777" lon="6.86657">
        <ele>1029.9</ele>
        <time>2021-08-09T14:07:36Z</time>
      </trkpt>
      <trkpt lat="47.82776" lon="6.86657">
        <ele>1030</ele>
        <time>2021-08-09T14:07:38Z</time>
      </trkpt>
      <trkpt lat="47.82775" lon="6.86657">
        <ele>1030.1</ele>
        <time>2021-08-09T14:07:40Z</time>
      </trkpt>
      <trkpt lat="47.82774" lon="6.86656">
        <ele>1030.1</ele>
        <time>2021-08-09T14:07:41Z</time>
      </trkpt>
      <trkpt lat="47.82774" lon="6.86655">
        <ele>1030.2</ele>
        <time>2021-08-09T14:07:43Z</time>
      </trkpt>
      <trkpt lat="47.82773" lon="6.86655">
        <ele>1030.2</ele>
        <time>2021-08-09T14:07:44Z</time>
      </trkpt>
      <trkpt lat="47.82773" lon="6.86654">
        <ele>1030.2</ele>
        <time>2021-08-09T14:07:46Z</time>
      </trkpt>
      <trkpt lat="47.82773" lon="6.86638">
        <ele>1030.2</ele>
        <time>2021-08-09T14:08:08Z</time>
      </trkpt>
      <trkpt lat="47.82773" lon="6.86628">
        <ele>1029.9</ele>
        <time>2021-08-09T14:08:10Z</time>
      </trkpt>
      <trkpt lat="47.82771" lon="6.86622">
        <ele>1029.5</ele>
        <time>2021-08-09T14:08:11Z</time>
      </trkpt>
      <trkpt lat="47.8277" lon="6.86618">
        <ele>1029.2</ele>
        <time>2021-08-09T14:08:12Z</time>
      </trkpt>
      <trkpt lat="47.82767" lon="6.86612">
        <ele>1028.7</ele>
        <time>2021-08-09T14:08:14Z</time>
      </trkpt>
      <trkpt lat="47.82766" lon="6.8661">
        <ele>1028.5</ele>
        <time>2021-08-09T14:08:15Z</time>
      </trkpt>
      <trkpt lat="47.82765" lon="6.86608">
        <ele>1028.3</ele>
        <time>2021-08-09T14:08:16Z</time>
      </trkpt>
      <trkpt lat="47.82764" lon="6.86605">
        <ele>1028.1</ele>
        <time>2021-08-09T14:08:17Z</time>
      </trkpt>
      <trkpt lat="47.82762" lon="6.86603">
        <ele>1027.8</ele>
        <time>2021-08-09T14:08:19Z</time>
      </trkpt>
      <trkpt lat="47.82761" lon="6.86603">
        <ele>1027.7</ele>
        <time>2021-08-09T14:08:21Z</time>
      </trkpt>
      <trkpt lat="47.82762" lon="6.86603">
        <ele>1027.7</ele>
        <time>2021-08-09T14:08:22Z</time>
      </trkpt>
      <trkpt lat="47.82762" lon="6.86602">
        <ele>1027.7</ele>
        <time>2021-08-09T14:08:23Z</time>
      </trkpt>
      <trkpt lat="47.82761" lon="6.86602">
        <ele>1027.6</ele>
        <time>2021-08-09T14:08:25Z</time>
      </trkpt>
      <trkpt lat="47.82761" lon="6.86602">
        <ele>1027.6</ele>
        <time>2021-08-09T14:08:27Z</time>
      </trkpt>
      <trkpt lat="47.82761" lon="6.86602">
        <ele>1027.6</ele>
        <time>2021-08-09T14:08:29Z</time>
      </trkpt>
      <trkpt lat="47.82758" lon="6.86589">
        <ele>1026.5</ele>
        <time>2021-08-09T14:08:37Z</time>
      </trkpt>
      <trkpt lat="47.82756" lon="6.86582">
        <ele>1025.8</ele>
        <time>2021-08-09T14:08:39Z</time>
      </trkpt>
      <trkpt lat="47.82753" lon="6.86575">
        <ele>1025.1</ele>
        <time>2021-08-09T14:08:40Z</time>
      </trkpt>
      <trkpt lat="47.82751" lon="6.86567">
        <ele>1024.4</ele>
        <time>2021-08-09T14:08:41Z</time>
      </trkpt>
      <trkpt lat="47.82749" lon="6.86561">
        <ele>1023.8</ele>
        <time>2021-08-09T14:08:42Z</time>
      </trkpt>
      <trkpt lat="47.82744" lon="6.86549">
        <ele>1022.7</ele>
        <time>2021-08-09T14:08:43Z</time>
      </trkpt>
      <trkpt lat="47.82741" lon="6.86537">
        <ele>1021.7</ele>
        <time>2021-08-09T14:08:45Z</time>
      </trkpt>
      <trkpt lat="47.82739" lon="6.8653">
        <ele>1021.3</ele>
        <time>2021-08-09T14:08:46Z</time>
      </trkpt>
      <trkpt lat="47.82738" lon="6.86524">
        <ele>1020.9</ele>
        <time>2021-08-09T14:08:47Z</time>
      </trkpt>
      <trkpt lat="47.82736" lon="6.86516">
        <ele>1020.5</ele>
        <time>2021-08-09T14:08:48Z</time>
      </trkpt>
      <trkpt lat="47.82735" lon="6.86508">
        <ele>1020.2</ele>
        <time>2021-08-09T14:08:50Z</time>
      </trkpt>
      <trkpt lat="47.82731" lon="6.86498">
        <ele>1019.9</ele>
        <time>2021-08-09T14:08:52Z</time>
      </trkpt>
      <trkpt lat="47.82728" lon="6.86492">
        <ele>1019.7</ele>
        <time>2021-08-09T14:08:53Z</time>
      </trkpt>
      <trkpt lat="47.82726" lon="6.86488">
        <ele>1019.6</ele>
        <time>2021-08-09T14:08:54Z</time>
      </trkpt>
      <trkpt lat="47.82725" lon="6.86483">
        <ele>1019.5</ele>
        <time>2021-08-09T14:08:56Z</time>
      </trkpt>
      <trkpt lat="47.82726" lon="6.86483">
        <ele>1019.4</ele>
        <time>2021-08-09T14:08:58Z</time>
      </trkpt>
      <trkpt lat="47.82726" lon="6.86482">
        <ele>1019.4</ele>
        <time>2021-08-09T14:08:59Z</time>
      </trkpt>
      <trkpt lat="47.82727" lon="6.86481">
        <ele>1019.4</ele>
        <time>2021-08-09T14:09:00Z</time>
      </trkpt>
      <trkpt lat="47.82727" lon="6.86478">
        <ele>1019.4</ele>
        <time>2021-08-09T14:09:01Z</time>
      </trkpt>
      <trkpt lat="47.82727" lon="6.86471">
        <ele>1019.3</ele>
        <time>2021-08-09T14:09:03Z</time>
      </trkpt>
      <trkpt lat="47.82726" lon="6.86465">
        <ele>1019.3</ele>
        <time>2021-08-09T14:09:04Z</time>
      </trkpt>
      <trkpt lat="47.82725" lon="6.86464">
        <ele>1019.2</ele>
        <time>2021-08-09T14:09:05Z</time>
      </trkpt>
      <trkpt lat="47.82723" lon="6.86461">
        <ele>1019.2</ele>
        <time>2021-08-09T14:09:06Z</time>
      </trkpt>
      <trkpt lat="47.82719" lon="6.86458">
        <ele>1019.2</ele>
        <time>2021-08-09T14:09:07Z</time>
      </trkpt>
      <trkpt lat="47.82715" lon="6.86455">
        <ele>1019.1</ele>
        <time>2021-08-09T14:09:08Z</time>
      </trkpt>
      <trkpt lat="47.8271" lon="6.86449">
        <ele>1018.9</ele>
        <time>2021-08-09T14:09:10Z</time>
      </trkpt>
      <trkpt lat="47.82706" lon="6.86442">
        <ele>1018.6</ele>
        <time>2021-08-09T14:09:11Z</time>
      </trkpt>
      <trkpt lat="47.82702" lon="6.86435">
        <ele>1018.2</ele>
        <time>2021-08-09T14:09:13Z</time>
      </trkpt>
      <trkpt lat="47.82699" lon="6.8643">
        <ele>1017.8</ele>
        <time>2021-08-09T14:09:14Z</time>
      </trkpt>
      <trkpt lat="47.82697" lon="6.86427">
        <ele>1017.5</ele>
        <time>2021-08-09T14:09:15Z</time>
      </trkpt>
      <trkpt lat="47.82694" lon="6.86423">
        <ele>1017.2</ele>
        <time>2021-08-09T14:09:16Z</time>
      </trkpt>
      <trkpt lat="47.82691" lon="6.8642">
        <ele>1016.8</ele>
        <time>2021-08-09T14:09:18Z</time>
      </trkpt>
      <trkpt lat="47.82688" lon="6.86417">
        <ele>1016.5</ele>
        <time>2021-08-09T14:09:19Z</time>
      </trkpt>
      <trkpt lat="47.82687" lon="6.86414">
        <ele>1016.2</ele>
        <time>2021-08-09T14:09:20Z</time>
      </trkpt>
      <trkpt lat="47.82684" lon="6.86408">
        <ele>1015.9</ele>
        <time>2021-08-09T14:09:22Z</time>
      </trkpt>
      <trkpt lat="47.82682" lon="6.86403">
        <ele>1015.8</ele>
        <time>2021-08-09T14:09:23Z</time>
      </trkpt>
      <trkpt lat="47.82681" lon="6.864">
        <ele>1015.7</ele>
        <time>2021-08-09T14:09:24Z</time>
      </trkpt>
      <trkpt lat="47.8268" lon="6.86399">
        <ele>1015.7</ele>
        <time>2021-08-09T14:09:26Z</time>
      </trkpt>
      <trkpt lat="47.8268" lon="6.86397">
        <ele>1015.7</ele>
        <time>2021-08-09T14:09:27Z</time>
      </trkpt>
      <trkpt lat="47.8268" lon="6.86396">
        <ele>1015.7</ele>
        <time>2021-08-09T14:09:29Z</time>
      </trkpt>
      <trkpt lat="47.8268" lon="6.86396">
        <ele>1015.7</ele>
        <time>2021-08-09T14:09:30Z</time>
      </trkpt>
      <trkpt lat="47.8268" lon="6.86395">
        <ele>1015.7</ele>
        <time>2021-08-09T14:09:31Z</time>
      </trkpt>
      <trkpt lat="47.82679" lon="6.86395">
        <ele>1015.7</ele>
        <time>2021-08-09T14:09:32Z</time>
      </trkpt>
      <trkpt lat="47.82679" lon="6.86393">
        <ele>1015.7</ele>
        <time>2021-08-09T14:09:34Z</time>
      </trkpt>
      <trkpt lat="47.82678" lon="6.86392">
        <ele>1015.7</ele>
        <time>2021-08-09T14:09:35Z</time>
      </trkpt>
      <trkpt lat="47.82652" lon="6.86332">
        <ele>1020.4</ele>
        <time>2021-08-09T14:11:32Z</time>
      </trkpt>
      <trkpt lat="47.8265" lon="6.86329">
        <ele>1020.9</ele>
        <time>2021-08-09T14:11:33Z</time>
      </trkpt>
      <trkpt lat="47.8265" lon="6.86328">
        <ele>1020.9</ele>
        <time>2021-08-09T14:11:35Z</time>
      </trkpt>
      <trkpt lat="47.8265" lon="6.86327">
        <ele>1021</ele>
        <time>2021-08-09T14:11:36Z</time>
      </trkpt>
      <trkpt lat="47.82649" lon="6.86321">
        <ele>1021.7</ele>
        <time>2021-08-09T14:11:38Z</time>
      </trkpt>
      <trkpt lat="47.82648" lon="6.86319">
        <ele>1021.9</ele>
        <time>2021-08-09T14:11:39Z</time>
      </trkpt>
      <trkpt lat="47.82648" lon="6.86316">
        <ele>1022.2</ele>
        <time>2021-08-09T14:11:40Z</time>
      </trkpt>
      <trkpt lat="47.82648" lon="6.86315">
        <ele>1022.4</ele>
        <time>2021-08-09T14:11:41Z</time>
      </trkpt>
      <trkpt lat="47.82647" lon="6.86314">
        <ele>1022.4</ele>
        <time>2021-08-09T14:11:43Z</time>
      </trkpt>
      <trkpt lat="47.82647" lon="6.86314">
        <ele>1022.4</ele>
        <time>2021-08-09T14:11:44Z</time>
      </trkpt>
      <trkpt lat="47.82647" lon="6.86314">
        <ele>1022.4</ele>
        <time>2021-08-09T14:11:45Z</time>
      </trkpt>
      <trkpt lat="47.82647" lon="6.86314">
        <ele>1022.4</ele>
        <time>2021-08-09T14:11:47Z</time>
      </trkpt>
      <trkpt lat="47.82647" lon="6.86313">
        <ele>1022.5</ele>
        <time>2021-08-09T14:11:48Z</time>
      </trkpt>
      <trkpt lat="47.82648" lon="6.86313">
        <ele>1022.5</ele>
        <time>2021-08-09T14:11:49Z</time>
      </trkpt>
      <trkpt lat="47.82648" lon="6.86313">
        <ele>1022.5</ele>
        <time>2021-08-09T14:11:50Z</time>
      </trkpt>
      <trkpt lat="47.82632" lon="6.86268">
        <ele>1026</ele>
        <time>2021-08-09T14:12:39Z</time>
      </trkpt>
      <trkpt lat="47.82631" lon="6.86263">
        <ele>1026.3</ele>
        <time>2021-08-09T14:12:41Z</time>
      </trkpt>
      <trkpt lat="47.82632" lon="6.86258">
        <ele>1026.6</ele>
        <time>2021-08-09T14:12:42Z</time>
      </trkpt>
      <trkpt lat="47.82635" lon="6.86253">
        <ele>1026.9</ele>
        <time>2021-08-09T14:12:44Z</time>
      </trkpt>
      <trkpt lat="47.82637" lon="6.8625">
        <ele>1027.1</ele>
        <time>2021-08-09T14:12:46Z</time>
      </trkpt>
      <trkpt lat="47.82641" lon="6.86246">
        <ele>1027.3</ele>
        <time>2021-08-09T14:12:48Z</time>
      </trkpt>
      <trkpt lat="47.82642" lon="6.86246">
        <ele>1027.3</ele>
        <time>2021-08-09T14:12:50Z</time>
      </trkpt>
      <trkpt lat="47.82642" lon="6.86246">
        <ele>1027.3</ele>
        <time>2021-08-09T14:12:51Z</time>
      </trkpt>
      <trkpt lat="47.82642" lon="6.86245">
        <ele>1027.4</ele>
        <time>2021-08-09T14:12:53Z</time>
      </trkpt>
      <trkpt lat="47.82642" lon="6.86245">
        <ele>1027.4</ele>
        <time>2021-08-09T14:12:54Z</time>
      </trkpt>
      <trkpt lat="47.82577" lon="6.86185">
        <ele>1028.6</ele>
        <time>2021-08-09T14:16:25Z</time>
      </trkpt>
      <trkpt lat="47.82577" lon="6.86186">
        <ele>1028.6</ele>
        <time>2021-08-09T14:16:27Z</time>
      </trkpt>
      <trkpt lat="47.82576" lon="6.86187">
        <ele>1028.6</ele>
        <time>2021-08-09T14:16:28Z</time>
      </trkpt>
      <trkpt lat="47.82575" lon="6.86188">
        <ele>1028.7</ele>
        <time>2021-08-09T14:16:29Z</time>
      </trkpt>
      <trkpt lat="47.82573" lon="6.8619">
        <ele>1028.7</ele>
        <time>2021-08-09T14:16:30Z</time>
      </trkpt>
      <trkpt lat="47.82572" lon="6.86192">
        <ele>1028.8</ele>
        <time>2021-08-09T14:16:32Z</time>
      </trkpt>
      <trkpt lat="47.8257" lon="6.86194">
        <ele>1028.9</ele>
        <time>2021-08-09T14:16:33Z</time>
      </trkpt>
      <trkpt lat="47.8257" lon="6.86195">
        <ele>1028.9</ele>
        <time>2021-08-09T14:16:34Z</time>
      </trkpt>
      <trkpt lat="47.82567" lon="6.86194">
        <ele>1029</ele>
        <time>2021-08-09T14:16:36Z</time>
      </trkpt>
      <trkpt lat="47.82567" lon="6.86192">
        <ele>1029.1</ele>
        <time>2021-08-09T14:16:38Z</time>
      </trkpt>
      <trkpt lat="47.82566" lon="6.86189">
        <ele>1029.2</ele>
        <time>2021-08-09T14:16:39Z</time>
      </trkpt>
      <trkpt lat="47.82565" lon="6.86187">
        <ele>1029.3</ele>
        <time>2021-08-09T14:16:40Z</time>
      </trkpt>
      <trkpt lat="47.82564" lon="6.86184">
        <ele>1029.4</ele>
        <time>2021-08-09T14:16:42Z</time>
      </trkpt>
      <trkpt lat="47.82564" lon="6.86182">
        <ele>1029.5</ele>
        <time>2021-08-09T14:16:43Z</time>
      </trkpt>
      <trkpt lat="47.82563" lon="6.86179">
        <ele>1029.6</ele>
        <time>2021-08-09T14:16:44Z</time>
      </trkpt>
      <trkpt lat="47.82562" lon="6.86176">
        <ele>1029.7</ele>
        <time>2021-08-09T14:16:45Z</time>
      </trkpt>
      <trkpt lat="47.82561" lon="6.86174">
        <ele>1029.9</ele>
        <time>2021-08-09T14:16:47Z</time>
      </trkpt>
      <trkpt lat="47.8256" lon="6.86171">
        <ele>1030.1</ele>
        <time>2021-08-09T14:18:13Z</time>
      </trkpt>
      <trkpt lat="47.8256" lon="6.86169">
        <ele>1030.3</ele>
        <time>2021-08-09T14:18:15Z</time>
      </trkpt>
      <trkpt lat="47.82559" lon="6.86166">
        <ele>1030.5</ele>
        <time>2021-08-09T14:18:17Z</time>
      </trkpt>
      <trkpt lat="47.82558" lon="6.86164">
        <ele>1030.7</ele>
        <time>2021-08-09T14:18:18Z</time>
      </trkpt>
      <trkpt lat="47.82557" lon="6.86161">
        <ele>1031</ele>
        <time>2021-08-09T14:18:19Z</time>
      </trkpt>
      <trkpt lat="47.82556" lon="6.8616">
        <ele>1031.1</ele>
        <time>2021-08-09T14:18:21Z</time>
      </trkpt>
      <trkpt lat="47.82555" lon="6.86159">
        <ele>1031.3</ele>
        <time>2021-08-09T14:18:22Z</time>
      </trkpt>
      <trkpt lat="47.82554" lon="6.86155">
        <ele>1031.7</ele>
        <time>2021-08-09T14:18:24Z</time>
      </trkpt>
      <trkpt lat="47.82553" lon="6.86154">
        <ele>1031.9</ele>
        <time>2021-08-09T14:18:25Z</time>
      </trkpt>
      <trkpt lat="47.82552" lon="6.86153">
        <ele>1032</ele>
        <time>2021-08-09T14:18:26Z</time>
      </trkpt>
      <trkpt lat="47.82551" lon="6.86153">
        <ele>1032.2</ele>
        <time>2021-08-09T14:18:27Z</time>
      </trkpt>
      <trkpt lat="47.8255" lon="6.86152">
        <ele>1032.4</ele>
        <time>2021-08-09T14:18:29Z</time>
      </trkpt>
      <trkpt lat="47.82548" lon="6.86152">
        <ele>1032.6</ele>
        <time>2021-08-09T14:18:30Z</time>
      </trkpt>
      <trkpt lat="47.82547" lon="6.86153">
        <ele>1032.9</ele>
        <time>2021-08-09T14:18:32Z</time>
      </trkpt>
      <trkpt lat="47.82542" lon="6.86145">
        <ele>1034</ele>
        <time>2021-08-09T14:18:33Z</time>
      </trkpt>
      <trkpt lat="47.82538" lon="6.86136">
        <ele>1034.8</ele>
        <time>2021-08-09T14:19:00Z</time>
      </trkpt>
      <trkpt lat="47.82535" lon="6.86128">
        <ele>1035.3</ele>
        <time>2021-08-09T14:19:01Z</time>
      </trkpt>
      <trkpt lat="47.82531" lon="6.8612">
        <ele>1035.3</ele>
        <time>2021-08-09T14:19:02Z</time>
      </trkpt>
      <trkpt lat="47.82529" lon="6.86116">
        <ele>1035.3</ele>
        <time>2021-08-09T14:19:03Z</time>
      </trkpt>
      <trkpt lat="47.82528" lon="6.86112">
        <ele>1035.2</ele>
        <time>2021-08-09T14:19:05Z</time>
      </trkpt>
      <trkpt lat="47.82525" lon="6.8611">
        <ele>1035.1</ele>
        <time>2021-08-09T14:19:06Z</time>
      </trkpt>
      <trkpt lat="47.82523" lon="6.8611">
        <ele>1035</ele>
        <time>2021-08-09T14:19:07Z</time>
      </trkpt>
      <trkpt lat="47.82521" lon="6.86109">
        <ele>1034.9</ele>
        <time>2021-08-09T14:19:09Z</time>
      </trkpt>
      <trkpt lat="47.82521" lon="6.86109">
        <ele>1034.9</ele>
        <time>2021-08-09T14:19:10Z</time>
      </trkpt>
      <trkpt lat="47.82521" lon="6.86108">
        <ele>1034.8</ele>
        <time>2021-08-09T14:19:11Z</time>
      </trkpt>
      <trkpt lat="47.8252" lon="6.86108">
        <ele>1034.8</ele>
        <time>2021-08-09T14:19:13Z</time>
      </trkpt>
      <trkpt lat="47.8252" lon="6.86108">
        <ele>1034.8</ele>
        <time>2021-08-09T14:19:14Z</time>
      </trkpt>
      <trkpt lat="47.8252" lon="6.86108">
        <ele>1034.8</ele>
        <time>2021-08-09T14:19:15Z</time>
      </trkpt>
      <trkpt lat="47.82521" lon="6.86108">
        <ele>1034.8</ele>
        <time>2021-08-09T14:19:17Z</time>
      </trkpt>
      <trkpt lat="47.82457" lon="6.85928">
        <ele>1059.5</ele>
        <time>2021-08-09T14:28:13Z</time>
      </trkpt>
      <trkpt lat="47.82457" lon="6.85926">
        <ele>1059.7</ele>
        <time>2021-08-09T14:28:14Z</time>
      </trkpt>
      <trkpt lat="47.82456" lon="6.85923">
        <ele>1060</ele>
        <time>2021-08-09T14:28:16Z</time>
      </trkpt>
      <trkpt lat="47.82455" lon="6.85922">
        <ele>1060.1</ele>
        <time>2021-08-09T14:28:17Z</time>
      </trkpt>
      <trkpt lat="47.82455" lon="6.85921">
        <ele>1060.3</ele>
        <time>2021-08-09T14:28:19Z</time>
      </trkpt>
      <trkpt lat="47.82455" lon="6.8592">
        <ele>1060.4</ele>
        <time>2021-08-09T14:28:21Z</time>
      </trkpt>
      <trkpt lat="47.82455" lon="6.85919">
        <ele>1060.5</ele>
        <time>2021-08-09T14:28:22Z</time>
      </trkpt>
      <trkpt lat="47.82455" lon="6.85917">
        <ele>1060.7</ele>
        <time>2021-08-09T14:28:23Z</time>
      </trkpt>
      <trkpt lat="47.82455" lon="6.85916">
        <ele>1060.8</ele>
        <time>2021-08-09T14:28:24Z</time>
      </trkpt>
      <trkpt lat="47.82455" lon="6.85915">
        <ele>1061</ele>
        <time>2021-08-09T14:28:26Z</time>
      </trkpt>
      <trkpt lat="47.82455" lon="6.85913">
        <ele>1061.1</ele>
        <time>2021-08-09T14:28:28Z</time>
      </trkpt>
      <trkpt lat="47.82455" lon="6.85912">
        <ele>1061.2</ele>
        <time>2021-08-09T14:28:29Z</time>
      </trkpt>
      <trkpt lat="47.82455" lon="6.85911">
        <ele>1061.4</ele>
        <time>2021-08-09T14:28:31Z</time>
      </trkpt>
      <trkpt lat="47.82455" lon="6.8591">
        <ele>1061.5</ele>
        <time>2021-08-09T14:28:32Z</time>
      </trkpt>
      <trkpt lat="47.82455" lon="6.85908">
        <ele>1061.7</ele>
        <time>2021-08-09T14:28:33Z</time>
      </trkpt>
      <trkpt lat="47.82456" lon="6.85907">
        <ele>1061.8</ele>
        <time>2021-08-09T14:28:34Z</time>
      </trkpt>
      <trkpt lat="47.82456" lon="6.85906">
        <ele>1062</ele>
        <time>2021-08-09T14:28:36Z</time>
      </trkpt>
      <trkpt lat="47.82456" lon="6.85905">
        <ele>1062.1</ele>
        <time>2021-08-09T14:28:37Z</time>
      </trkpt>
      <trkpt lat="47.82456" lon="6.85903">
        <ele>1062.3</ele>
        <time>2021-08-09T14:28:38Z</time>
      </trkpt>
      <trkpt lat="47.82456" lon="6.85902">
        <ele>1062.4</ele>
        <time>2021-08-09T14:28:39Z</time>
      </trkpt>
      <trkpt lat="47.82456" lon="6.85899">
        <ele>1062.8</ele>
        <time>2021-08-09T14:28:41Z</time>
      </trkpt>
      <trkpt lat="47.82456" lon="6.85898">
        <ele>1063</ele>
        <time>2021-08-09T14:28:43Z</time>
      </trkpt>
      <trkpt lat="47.82456" lon="6.85897">
        <ele>1063.1</ele>
        <time>2021-08-09T14:28:44Z</time>
      </trkpt>
      <trkpt lat="47.82455" lon="6.85896">
        <ele>1063.3</ele>
        <time>2021-08-09T14:28:46Z</time>
      </trkpt>
      <trkpt lat="47.82455" lon="6.85895">
        <ele>1063.4</ele>
        <time>2021-08-09T14:28:47Z</time>
      </trkpt>
      <trkpt lat="47.82455" lon="6.85894">
        <ele>1063.5</ele>
        <time>2021-08-09T14:28:49Z</time>
      </trkpt>
      <trkpt lat="47.82455" lon="6.85894">
        <ele>1063.6</ele>
        <time>2021-08-09T14:28:51Z</time>
      </trkpt>
      <trkpt lat="47.82455" lon="6.85894">
        <ele>1063.6</ele>
        <time>2021-08-09T14:28:52Z</time>
      </trkpt>
      <trkpt lat="47.82455" lon="6.85893">
        <ele>1063.7</ele>
        <time>2021-08-09T14:28:53Z</time>
      </trkpt>
      <trkpt lat="47.82455" lon="6.85893">
        <ele>1063.7</ele>
        <time>2021-08-09T14:28:54Z</time>
      </trkpt>
      <trkpt lat="47.82455" lon="6.85893">
        <ele>1063.7</ele>
        <time>2021-08-09T14:28:56Z</time>
      </trkpt>
      <trkpt lat="47.82455" lon="6.85893">
        <ele>1063.8</ele>
        <time>2021-08-09T14:28:57Z</time>
      </trkpt>
      <trkpt lat="47.82455" lon="6.85893">
        <ele>1063.8</ele>
        <time>2021-08-09T14:28:58Z</time>
      </trkpt>
      <trkpt lat="47.82455" lon="6.85893">
        <ele>1063.8</ele>
        <time>2021-08-09T14:28:59Z</time>
      </trkpt>
      <trkpt lat="47.82455" lon="6.85893">
        <ele>1063.9</ele>
        <time>2021-08-09T14:29:01Z</time>
      </trkpt>
      <trkpt lat="47.82455" lon="6.85894">
        <ele>1064.1</ele>
        <time>2021-08-09T14:29:02Z</time>
      </trkpt>
      <trkpt lat="47.82456" lon="6.85895">
        <ele>1064.3</ele>
        <time>2021-08-09T14:29:04Z</time>
      </trkpt>
      <trkpt lat="47.82456" lon="6.85896">
        <ele>1064.4</ele>
        <time>2021-08-09T14:29:05Z</time>
      </trkpt>
      <trkpt lat="47.82456" lon="6.85896">
        <ele>1064.4</ele>
        <time>2021-08-09T14:29:06Z</time>
      </trkpt>
      <trkpt lat="47.82456" lon="6.85896">
        <ele>1064.5</ele>
        <time>2021-08-09T14:29:07Z</time>
      </trkpt>
      <trkpt lat="47.82456" lon="6.85895">
        <ele>1064.6</ele>
        <time>2021-08-09T14:29:09Z</time>
      </trkpt>
      <trkpt lat="47.82456" lon="6.85894">
        <ele>1064.8</ele>
        <time>2021-08-09T14:29:11Z</time>
      </trkpt>
      <trkpt lat="47.82456" lon="6.85894">
        <ele>1064.8</ele>
        <time>2021-08-09T14:29:13Z</time>
      </trkpt>
      <trkpt lat="47.82458" lon="6.85892">
        <ele>1065.3</ele>
        <time>2021-08-09T14:29:15Z</time>
      </trkpt>
      <trkpt lat="47.82459" lon="6.85891">
        <ele>1065.7</ele>
        <time>2021-08-09T14:29:16Z</time>
      </trkpt>
      <trkpt lat="47.82459" lon="6.8589">
        <ele>1065.8</ele>
        <time>2021-08-09T14:29:17Z</time>
      </trkpt>
      <trkpt lat="47.8246" lon="6.8589">
        <ele>1066</ele>
        <time>2021-08-09T14:29:18Z</time>
      </trkpt>
      <trkpt lat="47.82461" lon="6.85892">
        <ele>1066.5</ele>
        <time>2021-08-09T14:29:20Z</time>
      </trkpt>
      <trkpt lat="47.82462" lon="6.85894">
        <ele>1067.1</ele>
        <time>2021-08-09T14:29:21Z</time>
      </trkpt>
      <trkpt lat="47.82463" lon="6.85896">
        <ele>1067.5</ele>
        <time>2021-08-09T14:29:22Z</time>
      </trkpt>
      <trkpt lat="47.82464" lon="6.85897">
        <ele>1068.1</ele>
        <time>2021-08-09T14:29:23Z</time>
      </trkpt>
      <trkpt lat="47.82465" lon="6.85907">
        <ele>1070.3</ele>
        <time>2021-08-09T14:29:25Z</time>
      </trkpt>
      <trkpt lat="47.82463" lon="6.8592">
        <ele>1073.5</ele>
        <time>2021-08-09T14:29:27Z</time>
      </trkpt>
      <trkpt lat="47.82463" lon="6.85924">
        <ele>1074.2</ele>
        <time>2021-08-09T14:29:28Z</time>
      </trkpt>
      <trkpt lat="47.82463" lon="6.85924">
        <ele>1074.4</ele>
        <time>2021-08-09T14:29:29Z</time>
      </trkpt>
      <trkpt lat="47.82463" lon="6.85925">
        <ele>1074.5</ele>
        <time>2021-08-09T14:29:30Z</time>
      </trkpt>
      <trkpt lat="47.82463" lon="6.85925">
        <ele>1074.5</ele>
        <time>2021-08-09T14:29:31Z</time>
      </trkpt>
      <trkpt lat="47.82463" lon="6.85925">
        <ele>1074.5</ele>
        <time>2021-08-09T14:29:33Z</time>
      </trkpt>
      <trkpt lat="47.82463" lon="6.85925">
        <ele>1074.5</ele>
        <time>2021-08-09T14:29:34Z</time>
      </trkpt>
      <trkpt lat="47.82463" lon="6.85925">
        <ele>1074.5</ele>
        <time>2021-08-09T14:29:35Z</time>
      </trkpt>
      <trkpt lat="47.82263" lon="6.85859">
        <ele>1106.5</ele>
        <time>2021-08-09T14:36:53Z</time>
      </trkpt>
      <trkpt lat="47.82258" lon="6.85859">
        <ele>1107.6</ele>
        <time>2021-08-09T14:36:55Z</time>
      </trkpt>
      <trkpt lat="47.82257" lon="6.8586">
        <ele>1107.9</ele>
        <time>2021-08-09T14:36:56Z</time>
      </trkpt>
      <trkpt lat="47.82256" lon="6.85861">
        <ele>1108</ele>
        <time>2021-08-09T14:36:58Z</time>
      </trkpt>
      <trkpt lat="47.82257" lon="6.85859">
        <ele>1108.3</ele>
        <time>2021-08-09T14:37:00Z</time>
      </trkpt>
      <trkpt lat="47.82255" lon="6.85856">
        <ele>1108.8</ele>
        <time>2021-08-09T14:37:02Z</time>
      </trkpt>
      <trkpt lat="47.82255" lon="6.85851">
        <ele>1109.3</ele>
        <time>2021-08-09T14:37:04Z</time>
      </trkpt>
      <trkpt lat="47.82255" lon="6.8585">
        <ele>1109.4</ele>
        <time>2021-08-09T14:37:05Z</time>
      </trkpt>
      <trkpt lat="47.82255" lon="6.8585">
        <ele>1109.4</ele>
        <time>2021-08-09T14:37:06Z</time>
      </trkpt>
      <trkpt lat="47.82255" lon="6.8585">
        <ele>1109.4</ele>
        <time>2021-08-09T14:37:07Z</time>
      </trkpt>
      <trkpt lat="47.82255" lon="6.8585">
        <ele>1109.5</ele>
        <time>2021-08-09T14:37:09Z</time>
      </trkpt>
      <trkpt lat="47.82255" lon="6.8585">
        <ele>1109.5</ele>
        <time>2021-08-09T14:37:10Z</time>
      </trkpt>
      <trkpt lat="47.82211" lon="6.85861">
        <ele>1112.9</ele>
        <time>2021-08-09T14:38:31Z</time>
      </trkpt>
      <trkpt lat="47.82209" lon="6.85859">
        <ele>1112.8</ele>
        <time>2021-08-09T14:38:33Z</time>
      </trkpt>
      <trkpt lat="47.82206" lon="6.85858">
        <ele>1112.8</ele>
        <time>2021-08-09T14:38:35Z</time>
      </trkpt>
      <trkpt lat="47.82206" lon="6.85858">
        <ele>1112.7</ele>
        <time>2021-08-09T14:38:36Z</time>
      </trkpt>
      <trkpt lat="47.82205" lon="6.85859">
        <ele>1112.7</ele>
        <time>2021-08-09T14:38:38Z</time>
      </trkpt>
      <trkpt lat="47.82205" lon="6.85859">
        <ele>1112.7</ele>
        <time>2021-08-09T14:38:39Z</time>
      </trkpt>
      <trkpt lat="47.82205" lon="6.85859">
        <ele>1112.7</ele>
        <time>2021-08-09T14:38:40Z</time>
      </trkpt>
      <trkpt lat="47.82205" lon="6.85859">
        <ele>1112.7</ele>
        <time>2021-08-09T14:38:42Z</time>
      </trkpt>
      <trkpt lat="47.82204" lon="6.85859">
        <ele>1112.6</ele>
        <time>2021-08-09T14:38:43Z</time>
      </trkpt>
      <trkpt lat="47.82185" lon="6.85844">
        <ele>1110.5</ele>
        <time>2021-08-09T14:40:39Z</time>
      </trkpt>
      <trkpt lat="47.82182" lon="6.85845">
        <ele>1110</ele>
        <time>2021-08-09T14:40:41Z</time>
      </trkpt>
      <trkpt lat="47.82181" lon="6.85845">
        <ele>1109.8</ele>
        <time>2021-08-09T14:40:43Z</time>
      </trkpt>
      <trkpt lat="47.82182" lon="6.85845">
        <ele>1109.6</ele>
        <time>2021-08-09T14:40:45Z</time>
      </trkpt>
      <trkpt lat="47.82186" lon="6.85844">
        <ele>1108.9</ele>
        <time>2021-08-09T14:40:47Z</time>
      </trkpt>
      <trkpt lat="47.82185" lon="6.8584">
        <ele>1108.4</ele>
        <time>2021-08-09T14:40:48Z</time>
      </trkpt>
      <trkpt lat="47.82184" lon="6.85837">
        <ele>1107.9</ele>
        <time>2021-08-09T14:40:50Z</time>
      </trkpt>
      <trkpt lat="47.82183" lon="6.85833">
        <ele>1107.4</ele>
        <time>2021-08-09T14:40:51Z</time>
      </trkpt>
      <trkpt lat="47.82183" lon="6.8583">
        <ele>1106.9</ele>
        <time>2021-08-09T14:40:53Z</time>
      </trkpt>
      <trkpt lat="47.82182" lon="6.85826">
        <ele>1106.3</ele>
        <time>2021-08-09T14:40:55Z</time>
      </trkpt>
      <trkpt lat="47.82181" lon="6.85823">
        <ele>1105.8</ele>
        <time>2021-08-09T14:41:11Z</time>
      </trkpt>
      <trkpt lat="47.8218" lon="6.8582">
        <ele>1105.2</ele>
        <time>2021-08-09T14:41:12Z</time>
      </trkpt>
      <trkpt lat="47.82176" lon="6.85815">
        <ele>1103.9</ele>
        <time>2021-08-09T14:41:13Z</time>
      </trkpt>
      <trkpt lat="47.82171" lon="6.85815">
        <ele>1102.8</ele>
        <time>2021-08-09T14:41:15Z</time>
      </trkpt>
      <trkpt lat="47.82166" lon="6.85817">
        <ele>1101.4</ele>
        <time>2021-08-09T14:41:16Z</time>
      </trkpt>
      <trkpt lat="47.82161" lon="6.85819">
        <ele>1100.3</ele>
        <time>2021-08-09T14:41:18Z</time>
      </trkpt>
      <trkpt lat="47.82158" lon="6.85819">
        <ele>1099.4</ele>
        <time>2021-08-09T14:41:19Z</time>
      </trkpt>
      <trkpt lat="47.82156" lon="6.85812">
        <ele>1098.2</ele>
        <time>2021-08-09T14:41:21Z</time>
      </trkpt>
      <trkpt lat="47.82156" lon="6.8581">
        <ele>1097.7</ele>
        <time>2021-08-09T14:41:22Z</time>
      </trkpt>
      <trkpt lat="47.82156" lon="6.85807">
        <ele>1097.3</ele>
        <time>2021-08-09T14:41:23Z</time>
      </trkpt>
      <trkpt lat="47.82155" lon="6.85803">
        <ele>1096.5</ele>
        <time>2021-08-09T14:41:24Z</time>
      </trkpt>
      <trkpt lat="47.82151" lon="6.858">
        <ele>1095.2</ele>
        <time>2021-08-09T14:41:26Z</time>
      </trkpt>
      <trkpt lat="47.82149" lon="6.85801">
        <ele>1094.7</ele>
        <time>2021-08-09T14:41:27Z</time>
      </trkpt>
      <trkpt lat="47.82147" lon="6.85802">
        <ele>1094.3</ele>
        <time>2021-08-09T14:41:28Z</time>
      </trkpt>
      <trkpt lat="47.82146" lon="6.85802">
        <ele>1093.7</ele>
        <time>2021-08-09T14:41:30Z</time>
      </trkpt>
      <trkpt lat="47.82144" lon="6.858">
        <ele>1093.3</ele>
        <time>2021-08-09T14:41:32Z</time>
      </trkpt>
      <trkpt lat="47.82148" lon="6.85801">
        <ele>1092.5</ele>
        <time>2021-08-09T14:41:33Z</time>
      </trkpt>
      <trkpt lat="47.82148" lon="6.85799">
        <ele>1092</ele>
        <time>2021-08-09T14:41:35Z</time>
      </trkpt>
      <trkpt lat="47.82148" lon="6.85796">
        <ele>1091.5</ele>
        <time>2021-08-09T14:41:36Z</time>
      </trkpt>
      <trkpt lat="47.82147" lon="6.85792">
        <ele>1090.8</ele>
        <time>2021-08-09T14:41:37Z</time>
      </trkpt>
      <trkpt lat="47.82147" lon="6.8579">
        <ele>1090.4</ele>
        <time>2021-08-09T14:41:39Z</time>
      </trkpt>
      <trkpt lat="47.82148" lon="6.85787">
        <ele>1089.9</ele>
        <time>2021-08-09T14:41:40Z</time>
      </trkpt>
      <trkpt lat="47.82149" lon="6.85785">
        <ele>1089.5</ele>
        <time>2021-08-09T14:41:41Z</time>
      </trkpt>
      <trkpt lat="47.82149" lon="6.85782">
        <ele>1089.1</ele>
        <time>2021-08-09T14:41:42Z</time>
      </trkpt>
      <trkpt lat="47.8215" lon="6.8578">
        <ele>1087.9</ele>
        <time>2021-08-09T14:41:44Z</time>
      </trkpt>
      <trkpt lat="47.8215" lon="6.85777">
        <ele>1087.8</ele>
        <time>2021-08-09T14:41:45Z</time>
      </trkpt>
      <trkpt lat="47.82151" lon="6.85774">
        <ele>1087.6</ele>
        <time>2021-08-09T14:41:47Z</time>
      </trkpt>
      <trkpt lat="47.82152" lon="6.85772">
        <ele>1087.5</ele>
        <time>2021-08-09T14:41:48Z</time>
      </trkpt>
      <trkpt lat="47.82152" lon="6.85769">
        <ele>1087.4</ele>
        <time>2021-08-09T14:41:49Z</time>
      </trkpt>
      <trkpt lat="47.82153" lon="6.85767">
        <ele>1087.3</ele>
        <time>2021-08-09T14:41:50Z</time>
      </trkpt>
      <trkpt lat="47.82153" lon="6.85764">
        <ele>1087.2</ele>
        <time>2021-08-09T14:41:51Z</time>
      </trkpt>
      <trkpt lat="47.82154" lon="6.85762">
        <ele>1087.2</ele>
        <time>2021-08-09T14:41:53Z</time>
      </trkpt>
      <trkpt lat="47.82155" lon="6.85759">
        <ele>1087.1</ele>
        <time>2021-08-09T14:42:23Z</time>
      </trkpt>
      <trkpt lat="47.82155" lon="6.85756">
        <ele>1087.1</ele>
        <time>2021-08-09T14:42:24Z</time>
      </trkpt>
      <trkpt lat="47.82159" lon="6.85749">
        <ele>1086.9</ele>
        <time>2021-08-09T14:42:26Z</time>
      </trkpt>
      <trkpt lat="47.82164" lon="6.85743">
        <ele>1086.8</ele>
        <time>2021-08-09T14:42:27Z</time>
      </trkpt>
      <trkpt lat="47.82168" lon="6.8574">
        <ele>1086.7</ele>
        <time>2021-08-09T14:42:29Z</time>
      </trkpt>
      <trkpt lat="47.82173" lon="6.85736">
        <ele>1086.6</ele>
        <time>2021-08-09T14:42:31Z</time>
      </trkpt>
      <trkpt lat="47.82175" lon="6.85731">
        <ele>1086.5</ele>
        <time>2021-08-09T14:42:32Z</time>
      </trkpt>
      <trkpt lat="47.82179" lon="6.85728">
        <ele>1086.4</ele>
        <time>2021-08-09T14:42:34Z</time>
      </trkpt>
      <trkpt lat="47.8218" lon="6.85728">
        <ele>1086.3</ele>
        <time>2021-08-09T14:42:35Z</time>
      </trkpt>
      <trkpt lat="47.82183" lon="6.85726">
        <ele>1086.2</ele>
        <time>2021-08-09T14:42:37Z</time>
      </trkpt>
      <trkpt lat="47.82184" lon="6.85725">
        <ele>1086.2</ele>
        <time>2021-08-09T14:42:38Z</time>
      </trkpt>
      <trkpt lat="47.82186" lon="6.85724">
        <ele>1086.1</ele>
        <time>2021-08-09T14:42:39Z</time>
      </trkpt>
      <trkpt lat="47.82188" lon="6.85725">
        <ele>1086</ele>
        <time>2021-08-09T14:42:41Z</time>
      </trkpt>
      <trkpt lat="47.82189" lon="6.85725">
        <ele>1086</ele>
        <time>2021-08-09T14:42:42Z</time>
      </trkpt>
      <trkpt lat="47.82191" lon="6.85725">
        <ele>1085.9</ele>
        <time>2021-08-09T14:42:43Z</time>
      </trkpt>
      <trkpt lat="47.8219" lon="6.85724">
        <ele>1085.9</ele>
        <time>2021-08-09T14:42:44Z</time>
      </trkpt>
      <trkpt lat="47.8219" lon="6.85724">
        <ele>1085.9</ele>
        <time>2021-08-09T14:42:46Z</time>
      </trkpt>
      <trkpt lat="47.8219" lon="6.85724">
        <ele>1085.9</ele>
        <time>2021-08-09T14:42:47Z</time>
      </trkpt>
      <trkpt lat="47.82191" lon="6.85724">
        <ele>1085.8</ele>
        <time>2021-08-09T14:42:48Z</time>
      </trkpt>
      <trkpt lat="47.82192" lon="6.85723">
        <ele>1085.8</ele>
        <time>2021-08-09T14:42:50Z</time>
      </trkpt>
      <trkpt lat="47.82193" lon="6.85723">
        <ele>1085.7</ele>
        <time>2021-08-09T14:42:52Z</time>
      </trkpt>
      <trkpt lat="47.82195" lon="6.85723">
        <ele>1085.7</ele>
        <time>2021-08-09T14:42:53Z</time>
      </trkpt>
      <trkpt lat="47.82205" lon="6.8572">
        <ele>1085.3</ele>
        <time>2021-08-09T14:42:58Z</time>
      </trkpt>
      <trkpt lat="47.82209" lon="6.85718">
        <ele>1085.1</ele>
        <time>2021-08-09T14:42:59Z</time>
      </trkpt>
      <trkpt lat="47.82212" lon="6.85717">
        <ele>1085</ele>
        <time>2021-08-09T14:43:00Z</time>
      </trkpt>
      <trkpt lat="47.82216" lon="6.85715">
        <ele>1084.9</ele>
        <time>2021-08-09T14:43:01Z</time>
      </trkpt>
      <trkpt lat="47.82219" lon="6.85715">
        <ele>1084.9</ele>
        <time>2021-08-09T14:43:03Z</time>
      </trkpt>
      <trkpt lat="47.82222" lon="6.85713">
        <ele>1084.8</ele>
        <time>2021-08-09T14:43:04Z</time>
      </trkpt>
      <trkpt lat="47.82226" lon="6.8571">
        <ele>1084.8</ele>
        <time>2021-08-09T14:43:05Z</time>
      </trkpt>
      <trkpt lat="47.82227" lon="6.85709">
        <ele>1084.8</ele>
        <time>2021-08-09T14:43:06Z</time>
      </trkpt>
      <trkpt lat="47.82229" lon="6.85707">
        <ele>1084.8</ele>
        <time>2021-08-09T14:43:07Z</time>
      </trkpt>
      <trkpt lat="47.82231" lon="6.85706">
        <ele>1084.9</ele>
        <time>2021-08-09T14:43:09Z</time>
      </trkpt>
      <trkpt lat="47.82233" lon="6.85705">
        <ele>1084.9</ele>
        <time>2021-08-09T14:43:10Z</time>
      </trkpt>
      <trkpt lat="47.82234" lon="6.85704">
        <ele>1084.9</ele>
        <time>2021-08-09T14:43:11Z</time>
      </trkpt>
      <trkpt lat="47.82236" lon="6.85701">
        <ele>1085</ele>
        <time>2021-08-09T14:43:13Z</time>
      </trkpt>
      <trkpt lat="47.82239" lon="6.85695">
        <ele>1085.2</ele>
        <time>2021-08-09T14:43:14Z</time>
      </trkpt>
      <trkpt lat="47.8224" lon="6.85693">
        <ele>1085.2</ele>
        <time>2021-08-09T14:43:16Z</time>
      </trkpt>
      <trkpt lat="47.82241" lon="6.85692">
        <ele>1085.3</ele>
        <time>2021-08-09T14:43:17Z</time>
      </trkpt>
      <trkpt lat="47.82244" lon="6.8569">
        <ele>1085.4</ele>
        <time>2021-08-09T14:43:18Z</time>
      </trkpt>
      <trkpt lat="47.82248" lon="6.85687">
        <ele>1085.6</ele>
        <time>2021-08-09T14:43:20Z</time>
      </trkpt>
      <trkpt lat="47.82251" lon="6.85683">
        <ele>1085.9</ele>
        <time>2021-08-09T14:43:21Z</time>
      </trkpt>
      <trkpt lat="47.82255" lon="6.85679">
        <ele>1086.1</ele>
        <time>2021-08-09T14:43:23Z</time>
      </trkpt>
      <trkpt lat="47.82257" lon="6.85677">
        <ele>1086.3</ele>
        <time>2021-08-09T14:43:24Z</time>
      </trkpt>
      <trkpt lat="47.8226" lon="6.85673">
        <ele>1086.7</ele>
        <time>2021-08-09T14:43:25Z</time>
      </trkpt>
      <trkpt lat="47.82262" lon="6.8567">
        <ele>1086.9</ele>
        <time>2021-08-09T14:43:26Z</time>
      </trkpt>
      <trkpt lat="47.82264" lon="6.85667">
        <ele>1087.1</ele>
        <time>2021-08-09T14:43:27Z</time>
      </trkpt>
      <trkpt lat="47.82266" lon="6.85663">
        <ele>1087.4</ele>
        <time>2021-08-09T14:43:29Z</time>
      </trkpt>
      <trkpt lat="47.82268" lon="6.8566">
        <ele>1087.6</ele>
        <time>2021-08-09T14:43:30Z</time>
      </trkpt>
      <trkpt lat="47.82268" lon="6.85657">
        <ele>1087.8</ele>
        <time>2021-08-09T14:43:31Z</time>
      </trkpt>
      <trkpt lat="47.82268" lon="6.85655">
        <ele>1087.8</ele>
        <time>2021-08-09T14:43:33Z</time>
      </trkpt>
      <trkpt lat="47.82267" lon="6.85654">
        <ele>1087.9</ele>
        <time>2021-08-09T14:43:34Z</time>
      </trkpt>
      <trkpt lat="47.82267" lon="6.85652">
        <ele>1088</ele>
        <time>2021-08-09T14:43:35Z</time>
      </trkpt>
      <trkpt lat="47.82267" lon="6.85649">
        <ele>1088.1</ele>
        <time>2021-08-09T14:43:36Z</time>
      </trkpt>
      <trkpt lat="47.82267" lon="6.85647">
        <ele>1088.1</ele>
        <time>2021-08-09T14:43:38Z</time>
      </trkpt>
      <trkpt lat="47.82267" lon="6.85645">
        <ele>1088.2</ele>
        <time>2021-08-09T14:43:39Z</time>
      </trkpt>
      <trkpt lat="47.82268" lon="6.85643">
        <ele>1088.3</ele>
        <time>2021-08-09T14:43:41Z</time>
      </trkpt>
      <trkpt lat="47.82268" lon="6.85641">
        <ele>1088.4</ele>
        <time>2021-08-09T14:43:42Z</time>
      </trkpt>
      <trkpt lat="47.82268" lon="6.85639">
        <ele>1088.4</ele>
        <time>2021-08-09T14:43:43Z</time>
      </trkpt>
      <trkpt lat="47.82269" lon="6.85636">
        <ele>1088.5</ele>
        <time>2021-08-09T14:43:45Z</time>
      </trkpt>
      <trkpt lat="47.82273" lon="6.85617">
        <ele>1088.7</ele>
        <time>2021-08-09T14:43:50Z</time>
      </trkpt>
      <trkpt lat="47.82274" lon="6.85604">
        <ele>1088.5</ele>
        <time>2021-08-09T14:43:52Z</time>
      </trkpt>
      <trkpt lat="47.82276" lon="6.85593">
        <ele>1088.1</ele>
        <time>2021-08-09T14:43:53Z</time>
      </trkpt>
      <trkpt lat="47.82278" lon="6.85585">
        <ele>1087.5</ele>
        <time>2021-08-09T14:43:54Z</time>
      </trkpt>
      <trkpt lat="47.8228" lon="6.85577">
        <ele>1086.9</ele>
        <time>2021-08-09T14:43:55Z</time>
      </trkpt>
      <trkpt lat="47.82282" lon="6.8557">
        <ele>1086.4</ele>
        <time>2021-08-09T14:43:57Z</time>
      </trkpt>
      <trkpt lat="47.82285" lon="6.85559">
        <ele>1085.6</ele>
        <time>2021-08-09T14:43:58Z</time>
      </trkpt>
      <trkpt lat="47.82286" lon="6.85553">
        <ele>1085.3</ele>
        <time>2021-08-09T14:44:00Z</time>
      </trkpt>
      <trkpt lat="47.82287" lon="6.85547">
        <ele>1085</ele>
        <time>2021-08-09T14:44:01Z</time>
      </trkpt>
      <trkpt lat="47.82288" lon="6.85541">
        <ele>1084.6</ele>
        <time>2021-08-09T14:44:02Z</time>
      </trkpt>
      <trkpt lat="47.8229" lon="6.85531">
        <ele>1083.9</ele>
        <time>2021-08-09T14:44:03Z</time>
      </trkpt>
      <trkpt lat="47.82292" lon="6.85519">
        <ele>1083.1</ele>
        <time>2021-08-09T14:44:04Z</time>
      </trkpt>
      <trkpt lat="47.82294" lon="6.85511">
        <ele>1082.5</ele>
        <time>2021-08-09T14:44:06Z</time>
      </trkpt>
      <trkpt lat="47.82293" lon="6.855">
        <ele>1082</ele>
        <time>2021-08-09T14:44:07Z</time>
      </trkpt>
      <trkpt lat="47.82292" lon="6.85494">
        <ele>1081.9</ele>
        <time>2021-08-09T14:44:09Z</time>
      </trkpt>
      <trkpt lat="47.8229" lon="6.85489">
        <ele>1081.8</ele>
        <time>2021-08-09T14:44:10Z</time>
      </trkpt>
      <trkpt lat="47.82289" lon="6.85485">
        <ele>1081.8</ele>
        <time>2021-08-09T14:44:11Z</time>
      </trkpt>
      <trkpt lat="47.82289" lon="6.85481">
        <ele>1081.8</ele>
        <time>2021-08-09T14:44:13Z</time>
      </trkpt>
      <trkpt lat="47.8229" lon="6.85479">
        <ele>1081.9</ele>
        <time>2021-08-09T14:44:14Z</time>
      </trkpt>
      <trkpt lat="47.82291" lon="6.85477">
        <ele>1081.9</ele>
        <time>2021-08-09T14:44:16Z</time>
      </trkpt>
      <trkpt lat="47.82291" lon="6.85474">
        <ele>1081.9</ele>
        <time>2021-08-09T14:44:17Z</time>
      </trkpt>
      <trkpt lat="47.8229" lon="6.85469">
        <ele>1082.1</ele>
        <time>2021-08-09T14:44:19Z</time>
      </trkpt>
      <trkpt lat="47.82292" lon="6.85465">
        <ele>1082.3</ele>
        <time>2021-08-09T14:44:20Z</time>
      </trkpt>
      <trkpt lat="47.82293" lon="6.85462">
        <ele>1082.5</ele>
        <time>2021-08-09T14:44:22Z</time>
      </trkpt>
      <trkpt lat="47.82294" lon="6.8546">
        <ele>1082.6</ele>
        <time>2021-08-09T14:44:23Z</time>
      </trkpt>
      <trkpt lat="47.82295" lon="6.85456">
        <ele>1082.8</ele>
        <time>2021-08-09T14:44:25Z</time>
      </trkpt>
      <trkpt lat="47.82296" lon="6.85454">
        <ele>1082.9</ele>
        <time>2021-08-09T14:44:26Z</time>
      </trkpt>
      <trkpt lat="47.82297" lon="6.85454">
        <ele>1083</ele>
        <time>2021-08-09T14:44:27Z</time>
      </trkpt>
      <trkpt lat="47.82298" lon="6.85454">
        <ele>1083</ele>
        <time>2021-08-09T14:44:29Z</time>
      </trkpt>
      <trkpt lat="47.82298" lon="6.85454">
        <ele>1083.1</ele>
        <time>2021-08-09T14:44:30Z</time>
      </trkpt>
      <trkpt lat="47.82299" lon="6.85452">
        <ele>1083.2</ele>
        <time>2021-08-09T14:44:31Z</time>
      </trkpt>
      <trkpt lat="47.823" lon="6.85451">
        <ele>1083.3</ele>
        <time>2021-08-09T14:44:33Z</time>
      </trkpt>
      <trkpt lat="47.8231" lon="6.85445">
        <ele>1084.2</ele>
        <time>2021-08-09T14:44:34Z</time>
      </trkpt>
      <trkpt lat="47.82319" lon="6.8544">
        <ele>1085.1</ele>
        <time>2021-08-09T14:44:35Z</time>
      </trkpt>
      <trkpt lat="47.82327" lon="6.85436">
        <ele>1085.9</ele>
        <time>2021-08-09T14:45:02Z</time>
      </trkpt>
      <trkpt lat="47.82335" lon="6.85431">
        <ele>1086.5</ele>
        <time>2021-08-09T14:45:03Z</time>
      </trkpt>
      <trkpt lat="47.82344" lon="6.85426">
        <ele>1086.9</ele>
        <time>2021-08-09T14:45:04Z</time>
      </trkpt>
      <trkpt lat="47.82347" lon="6.85423">
        <ele>1087.1</ele>
        <time>2021-08-09T14:45:06Z</time>
      </trkpt>
      <trkpt lat="47.82352" lon="6.85419">
        <ele>1087.3</ele>
        <time>2021-08-09T14:45:08Z</time>
      </trkpt>
      <trkpt lat="47.82355" lon="6.85414">
        <ele>1087.5</ele>
        <time>2021-08-09T14:45:09Z</time>
      </trkpt>
      <trkpt lat="47.82356" lon="6.85412">
        <ele>1087.6</ele>
        <time>2021-08-09T14:45:10Z</time>
      </trkpt>
      <trkpt lat="47.82357" lon="6.85409">
        <ele>1087.7</ele>
        <time>2021-08-09T14:45:11Z</time>
      </trkpt>
      <trkpt lat="47.82358" lon="6.85408">
        <ele>1087.7</ele>
        <time>2021-08-09T14:45:12Z</time>
      </trkpt>
      <trkpt lat="47.82359" lon="6.85408">
        <ele>1087.8</ele>
        <time>2021-08-09T14:45:14Z</time>
      </trkpt>
      <trkpt lat="47.82361" lon="6.85408">
        <ele>1087.8</ele>
        <time>2021-08-09T14:45:15Z</time>
      </trkpt>
      <trkpt lat="47.82364" lon="6.85405">
        <ele>1087.9</ele>
        <time>2021-08-09T14:45:16Z</time>
      </trkpt>
      <trkpt lat="47.82364" lon="6.85404">
        <ele>1088</ele>
        <time>2021-08-09T14:45:17Z</time>
      </trkpt>
      <trkpt lat="47.82368" lon="6.85401">
        <ele>1088.1</ele>
        <time>2021-08-09T14:45:18Z</time>
      </trkpt>
      <trkpt lat="47.8237" lon="6.854">
        <ele>1088.1</ele>
        <time>2021-08-09T14:45:19Z</time>
      </trkpt>
      <trkpt lat="47.82373" lon="6.85399">
        <ele>1088.1</ele>
        <time>2021-08-09T14:45:21Z</time>
      </trkpt>
      <trkpt lat="47.82378" lon="6.85399">
        <ele>1088.1</ele>
        <time>2021-08-09T14:45:22Z</time>
      </trkpt>
      <trkpt lat="47.82383" lon="6.85398">
        <ele>1088</ele>
        <time>2021-08-09T14:45:23Z</time>
      </trkpt>
      <trkpt lat="47.82387" lon="6.85395">
        <ele>1087.9</ele>
        <time>2021-08-09T14:45:25Z</time>
      </trkpt>
      <trkpt lat="47.8239" lon="6.85393">
        <ele>1087.8</ele>
        <time>2021-08-09T14:45:26Z</time>
      </trkpt>
      <trkpt lat="47.82396" lon="6.85391">
        <ele>1087.8</ele>
        <time>2021-08-09T14:45:27Z</time>
      </trkpt>
      <trkpt lat="47.82399" lon="6.8539">
        <ele>1087.9</ele>
        <time>2021-08-09T14:45:28Z</time>
      </trkpt>
      <trkpt lat="47.82401" lon="6.85389">
        <ele>1087.9</ele>
        <time>2021-08-09T14:45:30Z</time>
      </trkpt>
      <trkpt lat="47.82402" lon="6.85389">
        <ele>1088</ele>
        <time>2021-08-09T14:45:31Z</time>
      </trkpt>
      <trkpt lat="47.82403" lon="6.85387">
        <ele>1088</ele>
        <time>2021-08-09T14:45:32Z</time>
      </trkpt>
      <trkpt lat="47.82402" lon="6.85385">
        <ele>1088.1</ele>
        <time>2021-08-09T14:45:34Z</time>
      </trkpt>
      <trkpt lat="47.824" lon="6.85382">
        <ele>1088.2</ele>
        <time>2021-08-09T14:45:36Z</time>
      </trkpt>
      <trkpt lat="47.824" lon="6.85379">
        <ele>1088.3</ele>
        <time>2021-08-09T14:45:37Z</time>
      </trkpt>
      <trkpt lat="47.82401" lon="6.85377">
        <ele>1088.4</ele>
        <time>2021-08-09T14:45:39Z</time>
      </trkpt>
      <trkpt lat="47.82401" lon="6.85374">
        <ele>1088.5</ele>
        <time>2021-08-09T14:45:41Z</time>
      </trkpt>
      <trkpt lat="47.82402" lon="6.85371">
        <ele>1088.6</ele>
        <time>2021-08-09T14:45:42Z</time>
      </trkpt>
      <trkpt lat="47.82425" lon="6.85243">
        <ele>1107.4</ele>
        <time>2021-08-09T14:49:37Z</time>
      </trkpt>
      <trkpt lat="47.82425" lon="6.85238">
        <ele>1107.7</ele>
        <time>2021-08-09T14:49:38Z</time>
      </trkpt>
      <trkpt lat="47.82425" lon="6.85232">
        <ele>1108.1</ele>
        <time>2021-08-09T14:49:39Z</time>
      </trkpt>
      <trkpt lat="47.82426" lon="6.8523">
        <ele>1108.2</ele>
        <time>2021-08-09T14:49:40Z</time>
      </trkpt>
      <trkpt lat="47.82426" lon="6.85223">
        <ele>1108.9</ele>
        <time>2021-08-09T14:49:42Z</time>
      </trkpt>
      <trkpt lat="47.82427" lon="6.85217">
        <ele>1109.4</ele>
        <time>2021-08-09T14:49:43Z</time>
      </trkpt>
      <trkpt lat="47.82427" lon="6.85214">
        <ele>1109.7</ele>
        <time>2021-08-09T14:49:44Z</time>
      </trkpt>
      <trkpt lat="47.82427" lon="6.85213">
        <ele>1109.8</ele>
        <time>2021-08-09T14:49:46Z</time>
      </trkpt>
      <trkpt lat="47.82426" lon="6.8521">
        <ele>1110.3</ele>
        <time>2021-08-09T14:49:48Z</time>
      </trkpt>
      <trkpt lat="47.82426" lon="6.85208">
        <ele>1110.5</ele>
        <time>2021-08-09T14:49:49Z</time>
      </trkpt>
      <trkpt lat="47.82426" lon="6.85207">
        <ele>1110.7</ele>
        <time>2021-08-09T14:49:50Z</time>
      </trkpt>
      <trkpt lat="47.82426" lon="6.85207">
        <ele>1110.7</ele>
        <time>2021-08-09T14:49:51Z</time>
      </trkpt>
      <trkpt lat="47.82426" lon="6.85206">
        <ele>1110.9</ele>
        <time>2021-08-09T14:49:52Z</time>
      </trkpt>
      <trkpt lat="47.82427" lon="6.85205">
        <ele>1111.1</ele>
        <time>2021-08-09T14:49:54Z</time>
      </trkpt>
      <trkpt lat="47.82427" lon="6.85202">
        <ele>1111.5</ele>
        <time>2021-08-09T14:49:55Z</time>
      </trkpt>
      <trkpt lat="47.82428" lon="6.85201">
        <ele>1111.8</ele>
        <time>2021-08-09T14:49:56Z</time>
      </trkpt>
      <trkpt lat="47.82429" lon="6.85198">
        <ele>1112.1</ele>
        <time>2021-08-09T14:49:58Z</time>
      </trkpt>
      <trkpt lat="47.8243" lon="6.85197">
        <ele>1112.4</ele>
        <time>2021-08-09T14:49:59Z</time>
      </trkpt>
      <trkpt lat="47.8243" lon="6.85195">
        <ele>1112.7</ele>
        <time>2021-08-09T14:50:00Z</time>
      </trkpt>
      <trkpt lat="47.82431" lon="6.85194">
        <ele>1112.8</ele>
        <time>2021-08-09T14:50:02Z</time>
      </trkpt>
      <trkpt lat="47.82432" lon="6.85193">
        <ele>1113</ele>
        <time>2021-08-09T14:50:04Z</time>
      </trkpt>
      <trkpt lat="47.82438" lon="6.84953">
        <ele>1148.5</ele>
        <time>2021-08-09T14:57:45Z</time>
      </trkpt>
      <trkpt lat="47.82436" lon="6.84948">
        <ele>1149</ele>
        <time>2021-08-09T14:57:46Z</time>
      </trkpt>
      <trkpt lat="47.82435" lon="6.84944">
        <ele>1149.4</ele>
        <time>2021-08-09T14:57:47Z</time>
      </trkpt>
      <trkpt lat="47.82432" lon="6.84941">
        <ele>1149.7</ele>
        <time>2021-08-09T14:57:48Z</time>
      </trkpt>
      <trkpt lat="47.82431" lon="6.84941">
        <ele>1149.7</ele>
        <time>2021-08-09T14:57:49Z</time>
      </trkpt>
      <trkpt lat="47.82427" lon="6.8494">
        <ele>1150.2</ele>
        <time>2021-08-09T14:57:51Z</time>
      </trkpt>
      <trkpt lat="47.82425" lon="6.84939">
        <ele>1150.3</ele>
        <time>2021-08-09T14:57:52Z</time>
      </trkpt>
      <trkpt lat="47.82424" lon="6.84938">
        <ele>1150.4</ele>
        <time>2021-08-09T14:57:53Z</time>
      </trkpt>
      <trkpt lat="47.82423" lon="6.84937">
        <ele>1150.6</ele>
        <time>2021-08-09T14:57:54Z</time>
      </trkpt>
      <trkpt lat="47.82423" lon="6.84937">
        <ele>1150.6</ele>
        <time>2021-08-09T14:57:56Z</time>
      </trkpt>
      <trkpt lat="47.82423" lon="6.84937">
        <ele>1150.6</ele>
        <time>2021-08-09T14:57:57Z</time>
      </trkpt>
      <trkpt lat="47.82423" lon="6.84937">
        <ele>1150.7</ele>
        <time>2021-08-09T14:57:58Z</time>
      </trkpt>
      <trkpt lat="47.82423" lon="6.84937">
        <ele>1150.7</ele>
        <time>2021-08-09T14:58:00Z</time>
      </trkpt>
      <trkpt lat="47.82423" lon="6.84937">
        <ele>1150.7</ele>
        <time>2021-08-09T14:58:02Z</time>
      </trkpt>
      <trkpt lat="47.82423" lon="6.84937">
        <ele>1150.7</ele>
        <time>2021-08-09T14:58:03Z</time>
      </trkpt>
      <trkpt lat="47.82423" lon="6.84936">
        <ele>1150.7</ele>
        <time>2021-08-09T14:58:04Z</time>
      </trkpt>
      <trkpt lat="47.82354" lon="6.84783">
        <ele>1167.3</ele>
        <time>2021-08-09T15:06:12Z</time>
      </trkpt>
      <trkpt lat="47.82354" lon="6.8478">
        <ele>1168.4</ele>
        <time>2021-08-09T15:06:13Z</time>
      </trkpt>
      <trkpt lat="47.82354" lon="6.84778">
        <ele>1169.6</ele>
        <time>2021-08-09T15:06:14Z</time>
      </trkpt>
      <trkpt lat="47.82355" lon="6.84779">
        <ele>1169.7</ele>
        <time>2021-08-09T15:06:15Z</time>
      </trkpt>
      <trkpt lat="47.82355" lon="6.84779">
        <ele>1168.8</ele>
        <time>2021-08-09T15:06:17Z</time>
      </trkpt>
      <trkpt lat="47.82355" lon="6.8478">
        <ele>1168.9</ele>
        <time>2021-08-09T15:06:18Z</time>
      </trkpt>
      <trkpt lat="47.82355" lon="6.8478">
        <ele>1169.1</ele>
        <time>2021-08-09T15:06:20Z</time>
      </trkpt>
      <trkpt lat="47.82355" lon="6.8478">
        <ele>1169.2</ele>
        <time>2021-08-09T15:06:21Z</time>
      </trkpt>
      <trkpt lat="47.82354" lon="6.84781">
        <ele>1169.3</ele>
        <time>2021-08-09T15:06:22Z</time>
      </trkpt>
      <trkpt lat="47.82353" lon="6.84783">
        <ele>1169.5</ele>
        <time>2021-08-09T15:06:23Z</time>
      </trkpt>
      <trkpt lat="47.82288" lon="6.84764">
        <ele>1181.3</ele>
        <time>2021-08-09T15:14:08Z</time>
      </trkpt>
      <trkpt lat="47.82286" lon="6.84764">
        <ele>1181.7</ele>
        <time>2021-08-09T15:14:09Z</time>
      </trkpt>
      <trkpt lat="47.82285" lon="6.84765">
        <ele>1181.9</ele>
        <time>2021-08-09T15:14:11Z</time>
      </trkpt>
      <trkpt lat="47.82284" lon="6.84765">
        <ele>1182.3</ele>
        <time>2021-08-09T15:14:12Z</time>
      </trkpt>
      <trkpt lat="47.82283" lon="6.84765">
        <ele>1182.4</ele>
        <time>2021-08-09T15:14:14Z</time>
      </trkpt>
      <trkpt lat="47.82282" lon="6.84764">
        <ele>1182.6</ele>
        <time>2021-08-09T15:14:15Z</time>
      </trkpt>
      <trkpt lat="47.82283" lon="6.84763">
        <ele>1182.7</ele>
        <time>2021-08-09T15:14:17Z</time>
      </trkpt>
      <trkpt lat="47.82284" lon="6.8476">
        <ele>1184.4</ele>
        <time>2021-08-09T15:14:19Z</time>
      </trkpt>
      <trkpt lat="47.82284" lon="6.84759">
        <ele>1184.2</ele>
        <time>2021-08-09T15:14:20Z</time>
      </trkpt>
      <trkpt lat="47.82284" lon="6.84759">
        <ele>1184.3</ele>
        <time>2021-08-09T15:14:21Z</time>
      </trkpt>
      <trkpt lat="47.82284" lon="6.84758">
        <ele>1184.5</ele>
        <time>2021-08-09T15:14:22Z</time>
      </trkpt>
      <trkpt lat="47.82284" lon="6.84757">
        <ele>1184.6</ele>
        <time>2021-08-09T15:14:24Z</time>
      </trkpt>
      <trkpt lat="47.82284" lon="6.84757">
        <ele>1186.2</ele>
        <time>2021-08-09T15:14:25Z</time>
      </trkpt>
      <trkpt lat="47.82284" lon="6.84757">
        <ele>1186.4</ele>
        <time>2021-08-09T15:14:26Z</time>
      </trkpt>
      <trkpt lat="47.82284" lon="6.84756">
        <ele>1186.5</ele>
        <time>2021-08-09T15:14:28Z</time>
      </trkpt>
      <trkpt lat="47.82286" lon="6.84755">
        <ele>1186.6</ele>
        <time>2021-08-09T15:14:30Z</time>
      </trkpt>
      <trkpt lat="47.82288" lon="6.84754">
        <ele>1186.4</ele>
        <time>2021-08-09T15:14:32Z</time>
      </trkpt>
      <trkpt lat="47.82289" lon="6.84753">
        <ele>1186.5</ele>
        <time>2021-08-09T15:14:33Z</time>
      </trkpt>
      <trkpt lat="47.82291" lon="6.84753">
        <ele>1186.3</ele>
        <time>2021-08-09T15:14:35Z</time>
      </trkpt>
      <trkpt lat="47.82292" lon="6.84753">
        <ele>1187.9</ele>
        <time>2021-08-09T15:14:36Z</time>
      </trkpt>
      <trkpt lat="47.82293" lon="6.84753">
        <ele>1187.6</ele>
        <time>2021-08-09T15:14:38Z</time>
      </trkpt>
      <trkpt lat="47.82294" lon="6.84752">
        <ele>1187.7</ele>
        <time>2021-08-09T15:14:40Z</time>
      </trkpt>
      <trkpt lat="47.82294" lon="6.84752">
        <ele>1187.9</ele>
        <time>2021-08-09T15:14:41Z</time>
      </trkpt>
      <trkpt lat="47.82294" lon="6.84752">
        <ele>1188</ele>
        <time>2021-08-09T15:14:43Z</time>
      </trkpt>
      <trkpt lat="47.82294" lon="6.84752">
        <ele>1188.2</ele>
        <time>2021-08-09T15:14:45Z</time>
      </trkpt>
      <trkpt lat="47.82295" lon="6.84752">
        <ele>1188.3</ele>
        <time>2021-08-09T15:14:47Z</time>
      </trkpt>
      <trkpt lat="47.82295" lon="6.84752">
        <ele>1188.4</ele>
        <time>2021-08-09T15:14:48Z</time>
      </trkpt>
      <trkpt lat="47.82295" lon="6.84751">
        <ele>1188.6</ele>
        <time>2021-08-09T15:14:50Z</time>
      </trkpt>
      <trkpt lat="47.82295" lon="6.84751">
        <ele>1188.3</ele>
        <time>2021-08-09T15:14:52Z</time>
      </trkpt>
      <trkpt lat="47.82295" lon="6.84751">
        <ele>1188.4</ele>
        <time>2021-08-09T15:14:53Z</time>
      </trkpt>
      <trkpt lat="47.82295" lon="6.84752">
        <ele>1189</ele>
        <time>2021-08-09T15:14:55Z</time>
      </trkpt>
      <trkpt lat="47.82295" lon="6.84752">
        <ele>1189.1</ele>
        <time>2021-08-09T15:14:56Z</time>
      </trkpt>
      <trkpt lat="47.82295" lon="6.84752">
        <ele>1189.2</ele>
        <time>2021-08-09T15:14:58Z</time>
      </trkpt>
      <trkpt lat="47.82295" lon="6.84752">
        <ele>1189.4</ele>
        <time>2021-08-09T15:15:00Z</time>
      </trkpt>
      <trkpt lat="47.82295" lon="6.84752">
        <ele>1189.5</ele>
        <time>2021-08-09T15:15:02Z</time>
      </trkpt>
      <trkpt lat="47.82295" lon="6.84752">
        <ele>1189.7</ele>
        <time>2021-08-09T15:15:04Z</time>
      </trkpt>
      <trkpt lat="47.82295" lon="6.84752">
        <ele>1189.8</ele>
        <time>2021-08-09T15:15:05Z</time>
      </trkpt>
      <trkpt lat="47.82295" lon="6.84752">
        <ele>1189.9</ele>
        <time>2021-08-09T15:15:07Z</time>
      </trkpt>
      <trkpt lat="47.82295" lon="6.84752">
        <ele>1190.1</ele>
        <time>2021-08-09T15:15:09Z</time>
      </trkpt>
      <trkpt lat="47.82295" lon="6.84752">
        <ele>1190.2</ele>
        <time>2021-08-09T15:15:10Z</time>
      </trkpt>
      <trkpt lat="47.82295" lon="6.84752">
        <ele>1190.3</ele>
        <time>2021-08-09T15:15:12Z</time>
      </trkpt>
      <trkpt lat="47.82295" lon="6.84752">
        <ele>1190.5</ele>
        <time>2021-08-09T15:15:14Z</time>
      </trkpt>
      <trkpt lat="47.82295" lon="6.84752">
        <ele>1190.6</ele>
        <time>2021-08-09T15:15:15Z</time>
      </trkpt>
      <trkpt lat="47.82295" lon="6.84752">
        <ele>1190.7</ele>
        <time>2021-08-09T15:15:16Z</time>
      </trkpt>
      <trkpt lat="47.82292" lon="6.84753">
        <ele>1189.9</ele>
        <time>2021-08-09T15:15:18Z</time>
      </trkpt>
      <trkpt lat="47.82291" lon="6.84753">
        <ele>1191.4</ele>
        <time>2021-08-09T15:15:20Z</time>
      </trkpt>
      <trkpt lat="47.82291" lon="6.84753">
        <ele>1191.5</ele>
        <time>2021-08-09T15:15:21Z</time>
      </trkpt>
      <trkpt lat="47.82291" lon="6.84753">
        <ele>1191.7</ele>
        <time>2021-08-09T15:15:22Z</time>
      </trkpt>
      <trkpt lat="47.82291" lon="6.84753">
        <ele>1191.8</ele>
        <time>2021-08-09T15:15:23Z</time>
      </trkpt>
      <trkpt lat="47.82291" lon="6.84753">
        <ele>1192</ele>
        <time>2021-08-09T15:15:25Z</time>
      </trkpt>
      <trkpt lat="47.82291" lon="6.84753">
        <ele>1192.1</ele>
        <time>2021-08-09T15:15:26Z</time>
      </trkpt>
      <trkpt lat="47.82291" lon="6.84753">
        <ele>1192.2</ele>
        <time>2021-08-09T15:15:28Z</time>
      </trkpt>
      <trkpt lat="47.82291" lon="6.84753">
        <ele>1192.4</ele>
        <time>2021-08-09T15:15:30Z</time>
      </trkpt>
      <trkpt lat="47.82291" lon="6.84753">
        <ele>1192.5</ele>
        <time>2021-08-09T15:15:32Z</time>
      </trkpt>
      <trkpt lat="47.82291" lon="6.84753">
        <ele>1192.6</ele>
        <time>2021-08-09T15:15:34Z</time>
      </trkpt>
      <trkpt lat="47.82291" lon="6.84753">
        <ele>1192.8</ele>
        <time>2021-08-09T15:15:35Z</time>
      </trkpt>
      <trkpt lat="47.82291" lon="6.84753">
        <ele>1192.9</ele>
        <time>2021-08-09T15:15:37Z</time>
      </trkpt>
      <trkpt lat="47.82291" lon="6.84753">
        <ele>1193</ele>
        <time>2021-08-09T15:15:38Z</time>
      </trkpt>
      <trkpt lat="47.82291" lon="6.84753">
        <ele>1193.2</ele>
        <time>2021-08-09T15:15:40Z</time>
      </trkpt>
      <trkpt lat="47.82291" lon="6.84753">
        <ele>1193.3</ele>
        <time>2021-08-09T15:15:41Z</time>
      </trkpt>
      <trkpt lat="47.82293" lon="6.84749">
        <ele>1194.4</ele>
        <time>2021-08-09T15:15:43Z</time>
      </trkpt>
      <trkpt lat="47.82295" lon="6.84742">
        <ele>1195.9</ele>
        <time>2021-08-09T15:15:45Z</time>
      </trkpt>
      <trkpt lat="47.82294" lon="6.8474">
        <ele>1196</ele>
        <time>2021-08-09T15:15:47Z</time>
      </trkpt>
      <trkpt lat="47.82294" lon="6.8474">
        <ele>1197.4</ele>
        <time>2021-08-09T15:15:48Z</time>
      </trkpt>
      <trkpt lat="47.82294" lon="6.8474">
        <ele>1197.6</ele>
        <time>2021-08-09T15:15:50Z</time>
      </trkpt>
      <trkpt lat="47.82294" lon="6.8474">
        <ele>1197.7</ele>
        <time>2021-08-09T15:15:52Z</time>
      </trkpt>
      <trkpt lat="47.82294" lon="6.8474">
        <ele>1197.8</ele>
        <time>2021-08-09T15:15:53Z</time>
      </trkpt>
      <trkpt lat="47.82294" lon="6.8474">
        <ele>1198</ele>
        <time>2021-08-09T15:15:55Z</time>
      </trkpt>
      <trkpt lat="47.82297" lon="6.84742">
        <ele>1196.4</ele>
        <time>2021-08-09T15:15:56Z</time>
      </trkpt>
      <trkpt lat="47.82302" lon="6.84748">
        <ele>1194.3</ele>
        <time>2021-08-09T15:15:58Z</time>
      </trkpt>
      <trkpt lat="47.82303" lon="6.8475">
        <ele>1193.2</ele>
        <time>2021-08-09T15:16:00Z</time>
      </trkpt>
      <trkpt lat="47.82303" lon="6.8475">
        <ele>1193.3</ele>
        <time>2021-08-09T15:16:02Z</time>
      </trkpt>
      <trkpt lat="47.82302" lon="6.8475">
        <ele>1193.4</ele>
        <time>2021-08-09T15:16:04Z</time>
      </trkpt>
      <trkpt lat="47.82302" lon="6.84749">
        <ele>1193.6</ele>
        <time>2021-08-09T15:16:05Z</time>
      </trkpt>
      <trkpt lat="47.82301" lon="6.84749">
        <ele>1194.1</ele>
        <time>2021-08-09T15:16:06Z</time>
      </trkpt>
      <trkpt lat="47.823" lon="6.84749">
        <ele>1195.6</ele>
        <time>2021-08-09T15:16:08Z</time>
      </trkpt>
      <trkpt lat="47.823" lon="6.84748">
        <ele>1195.7</ele>
        <time>2021-08-09T15:16:10Z</time>
      </trkpt>
      <trkpt lat="47.82299" lon="6.84748">
        <ele>1195.9</ele>
        <time>2021-08-09T15:16:11Z</time>
      </trkpt>
      <trkpt lat="47.82299" lon="6.84748">
        <ele>1196</ele>
        <time>2021-08-09T15:16:12Z</time>
      </trkpt>
      <trkpt lat="47.82297" lon="6.84747">
        <ele>1196.6</ele>
        <time>2021-08-09T15:16:13Z</time>
      </trkpt>
      <trkpt lat="47.82296" lon="6.84747">
        <ele>1196.7</ele>
        <time>2021-08-09T15:16:15Z</time>
      </trkpt>
      <trkpt lat="47.82296" lon="6.84747">
        <ele>1196.8</ele>
        <time>2021-08-09T15:16:16Z</time>
      </trkpt>
      <trkpt lat="47.82296" lon="6.84747">
        <ele>1197</ele>
        <time>2021-08-09T15:16:17Z</time>
      </trkpt>
      <trkpt lat="47.82296" lon="6.84747">
        <ele>1197.1</ele>
        <time>2021-08-09T15:16:19Z</time>
      </trkpt>
      <trkpt lat="47.82296" lon="6.84747">
        <ele>1197.2</ele>
        <time>2021-08-09T15:16:20Z</time>
      </trkpt>
      <trkpt lat="47.82296" lon="6.84747">
        <ele>1197.4</ele>
        <time>2021-08-09T15:16:22Z</time>
      </trkpt>
      <trkpt lat="47.82296" lon="6.84747">
        <ele>1197.5</ele>
        <time>2021-08-09T15:16:23Z</time>
      </trkpt>
      <trkpt lat="47.82289" lon="6.84743">
        <ele>1200.2</ele>
        <time>2021-08-09T15:16:25Z</time>
      </trkpt>
      <trkpt lat="47.82286" lon="6.84743">
        <ele>1200.8</ele>
        <time>2021-08-09T15:16:26Z</time>
      </trkpt>
      <trkpt lat="47.82282" lon="6.84745">
        <ele>1199.9</ele>
        <time>2021-08-09T15:16:28Z</time>
      </trkpt>
      <trkpt lat="47.82281" lon="6.84746">
        <ele>1200.1</ele>
        <time>2021-08-09T15:16:30Z</time>
      </trkpt>
      <trkpt lat="47.82281" lon="6.84746">
        <ele>1200.2</ele>
        <time>2021-08-09T15:16:32Z</time>
      </trkpt>
      <trkpt lat="47.82281" lon="6.84746">
        <ele>1200.7</ele>
        <time>2021-08-09T15:16:34Z</time>
      </trkpt>
      <trkpt lat="47.82281" lon="6.84746">
        <ele>1200.8</ele>
        <time>2021-08-09T15:16:35Z</time>
      </trkpt>
      <trkpt lat="47.82281" lon="6.84746">
        <ele>1201</ele>
        <time>2021-08-09T15:16:36Z</time>
      </trkpt>
      <trkpt lat="47.82281" lon="6.84746">
        <ele>1201.1</ele>
        <time>2021-08-09T15:16:38Z</time>
      </trkpt>
      <trkpt lat="47.82281" lon="6.84746">
        <ele>1201.2</ele>
        <time>2021-08-09T15:16:40Z</time>
      </trkpt>
      <trkpt lat="47.82281" lon="6.84746">
        <ele>1201.4</ele>
        <time>2021-08-09T15:16:42Z</time>
      </trkpt>
      <trkpt lat="47.82276" lon="6.84746">
        <ele>1201.8</ele>
        <time>2021-08-09T15:16:44Z</time>
      </trkpt>
      <trkpt lat="47.82273" lon="6.84746">
        <ele>1202.3</ele>
        <time>2021-08-09T15:16:45Z</time>
      </trkpt>
      <trkpt lat="47.82269" lon="6.84747">
        <ele>1203</ele>
        <time>2021-08-09T15:16:47Z</time>
      </trkpt>
      <trkpt lat="47.82269" lon="6.84747">
        <ele>1203.1</ele>
        <time>2021-08-09T15:16:49Z</time>
      </trkpt>
      <trkpt lat="47.82269" lon="6.84747">
        <ele>1203.3</ele>
        <time>2021-08-09T15:16:50Z</time>
      </trkpt>
      <trkpt lat="47.82269" lon="6.84747">
        <ele>1203.4</ele>
        <time>2021-08-09T15:16:52Z</time>
      </trkpt>
      <trkpt lat="47.82267" lon="6.84745">
        <ele>1203.6</ele>
        <time>2021-08-09T15:16:54Z</time>
      </trkpt>
      <trkpt lat="47.82267" lon="6.84744">
        <ele>1205.2</ele>
        <time>2021-08-09T15:16:55Z</time>
      </trkpt>
      <trkpt lat="47.82266" lon="6.8474">
        <ele>1207.1</ele>
        <time>2021-08-09T15:16:57Z</time>
      </trkpt>
      <trkpt lat="47.82266" lon="6.84739">
        <ele>1207.2</ele>
        <time>2021-08-09T15:16:58Z</time>
      </trkpt>
      <trkpt lat="47.82268" lon="6.84737">
        <ele>1207.1</ele>
        <time>2021-08-09T15:17:00Z</time>
      </trkpt>
      <trkpt lat="47.82269" lon="6.84737">
        <ele>1207.2</ele>
        <time>2021-08-09T15:17:01Z</time>
      </trkpt>
      <trkpt lat="47.8227" lon="6.84736">
        <ele>1207</ele>
        <time>2021-08-09T15:17:02Z</time>
      </trkpt>
      <trkpt lat="47.82271" lon="6.84734">
        <ele>1208.6</ele>
        <time>2021-08-09T15:17:04Z</time>
      </trkpt>
      <trkpt lat="47.82272" lon="6.84734">
        <ele>1208.8</ele>
        <time>2021-08-09T15:17:05Z</time>
      </trkpt>
      <trkpt lat="47.82272" lon="6.84734">
        <ele>1208.9</ele>
        <time>2021-08-09T15:17:07Z</time>
      </trkpt>
      <trkpt lat="47.82272" lon="6.84734">
        <ele>1209</ele>
        <time>2021-08-09T15:17:09Z</time>
      </trkpt>
      <trkpt lat="47.82272" lon="6.84734">
        <ele>1209.2</ele>
        <time>2021-08-09T15:17:10Z</time>
      </trkpt>
      <trkpt lat="47.82272" lon="6.84734">
        <ele>1209.3</ele>
        <time>2021-08-09T15:17:11Z</time>
      </trkpt>
      <trkpt lat="47.82272" lon="6.84734">
        <ele>1209.5</ele>
        <time>2021-08-09T15:17:12Z</time>
      </trkpt>
      <trkpt lat="47.8228" lon="6.84731">
        <ele>1209.9</ele>
        <time>2021-08-09T15:17:14Z</time>
      </trkpt>
      <trkpt lat="47.82282" lon="6.84729">
        <ele>1209.6</ele>
        <time>2021-08-09T15:17:15Z</time>
      </trkpt>
      <trkpt lat="47.82283" lon="6.84729">
        <ele>1209.7</ele>
        <time>2021-08-09T15:17:16Z</time>
      </trkpt>
      <trkpt lat="47.82283" lon="6.84729">
        <ele>1209.9</ele>
        <time>2021-08-09T15:17:18Z</time>
      </trkpt>
      <trkpt lat="47.82283" lon="6.84729">
        <ele>1210</ele>
        <time>2021-08-09T15:17:20Z</time>
      </trkpt>
      <trkpt lat="47.82283" lon="6.84729">
        <ele>1210.1</ele>
        <time>2021-08-09T15:17:21Z</time>
      </trkpt>
      <trkpt lat="47.82283" lon="6.84729">
        <ele>1210.3</ele>
        <time>2021-08-09T15:17:23Z</time>
      </trkpt>
      <trkpt lat="47.82283" lon="6.84729">
        <ele>1210.4</ele>
        <time>2021-08-09T15:17:25Z</time>
      </trkpt>
      <trkpt lat="47.82283" lon="6.84729">
        <ele>1210.5</ele>
        <time>2021-08-09T15:17:26Z</time>
      </trkpt>
      <trkpt lat="47.82283" lon="6.84729">
        <ele>1210.7</ele>
        <time>2021-08-09T15:17:28Z</time>
      </trkpt>
      <trkpt lat="47.82283" lon="6.84729">
        <ele>1210.8</ele>
        <time>2021-08-09T15:17:30Z</time>
      </trkpt>
      <trkpt lat="47.82283" lon="6.84729">
        <ele>1211</ele>
        <time>2021-08-09T15:17:32Z</time>
      </trkpt>
      <trkpt lat="47.82283" lon="6.84729">
        <ele>1211.1</ele>
        <time>2021-08-09T15:17:34Z</time>
      </trkpt>
      <trkpt lat="47.82283" lon="6.84729">
        <ele>1211.2</ele>
        <time>2021-08-09T15:17:35Z</time>
      </trkpt>
      <trkpt lat="47.82283" lon="6.84729">
        <ele>1211.4</ele>
        <time>2021-08-09T15:17:36Z</time>
      </trkpt>
      <trkpt lat="47.82283" lon="6.84729">
        <ele>1211.5</ele>
        <time>2021-08-09T15:17:38Z</time>
      </trkpt>
      <trkpt lat="47.82283" lon="6.84729">
        <ele>1211.6</ele>
        <time>2021-08-09T15:17:40Z</time>
      </trkpt>
      <trkpt lat="47.82283" lon="6.84729">
        <ele>1211.8</ele>
        <time>2021-08-09T15:17:41Z</time>
      </trkpt>
      <trkpt lat="47.82283" lon="6.84729">
        <ele>1211.9</ele>
        <time>2021-08-09T15:17:43Z</time>
      </trkpt>
      <trkpt lat="47.82283" lon="6.84729">
        <ele>1212</ele>
        <time>2021-08-09T15:17:45Z</time>
      </trkpt>
      <trkpt lat="47.82283" lon="6.84729">
        <ele>1212.2</ele>
        <time>2021-08-09T15:17:47Z</time>
      </trkpt>
      <trkpt lat="47.82283" lon="6.84729">
        <ele>1212.3</ele>
        <time>2021-08-09T15:17:48Z</time>
      </trkpt>
      <trkpt lat="47.82283" lon="6.84729">
        <ele>1212.5</ele>
        <time>2021-08-09T15:17:50Z</time>
      </trkpt>
      <trkpt lat="47.82283" lon="6.84729">
        <ele>1212.6</ele>
        <time>2021-08-09T15:17:52Z</time>
      </trkpt>
      <trkpt lat="47.82283" lon="6.84729">
        <ele>1212.7</ele>
        <time>2021-08-09T15:17:53Z</time>
      </trkpt>
      <trkpt lat="47.82283" lon="6.84728">
        <ele>1212.9</ele>
        <time>2021-08-09T15:17:56Z</time>
      </trkpt>
      <trkpt lat="47.82283" lon="6.84728">
        <ele>1213</ele>
        <time>2021-08-09T15:17:58Z</time>
      </trkpt>
      <trkpt lat="47.82283" lon="6.84728">
        <ele>1213.1</ele>
        <time>2021-08-09T15:18:01Z</time>
      </trkpt>
      <trkpt lat="47.82283" lon="6.84728">
        <ele>1213.3</ele>
        <time>2021-08-09T15:18:02Z</time>
      </trkpt>
      <trkpt lat="47.82283" lon="6.84728">
        <ele>1213.4</ele>
        <time>2021-08-09T15:18:03Z</time>
      </trkpt>
      <trkpt lat="47.82283" lon="6.84728">
        <ele>1213.5</ele>
        <time>2021-08-09T15:18:06Z</time>
      </trkpt>
      <trkpt lat="47.82283" lon="6.84728">
        <ele>1213.7</ele>
        <time>2021-08-09T15:18:08Z</time>
      </trkpt>
      <trkpt lat="47.82283" lon="6.84728">
        <ele>1213.8</ele>
        <time>2021-08-09T15:18:09Z</time>
      </trkpt>
      <trkpt lat="47.82283" lon="6.84728">
        <ele>1214</ele>
        <time>2021-08-09T15:18:11Z</time>
      </trkpt>
      <trkpt lat="47.82283" lon="6.84728">
        <ele>1214.1</ele>
        <time>2021-08-09T15:18:12Z</time>
      </trkpt>
      <trkpt lat="47.82283" lon="6.84728">
        <ele>1214.2</ele>
        <time>2021-08-09T15:18:13Z</time>
      </trkpt>
      <trkpt lat="47.82283" lon="6.84728">
        <ele>1214.4</ele>
        <time>2021-08-09T15:18:14Z</time>
      </trkpt>
      <trkpt lat="47.82283" lon="6.84728">
        <ele>1214.5</ele>
        <time>2021-08-09T15:18:16Z</time>
      </trkpt>
      <trkpt lat="47.82283" lon="6.84728">
        <ele>1214.6</ele>
        <time>2021-08-09T15:18:17Z</time>
      </trkpt>
      <trkpt lat="47.82283" lon="6.84728">
        <ele>1214.8</ele>
        <time>2021-08-09T15:18:18Z</time>
      </trkpt>
      <trkpt lat="47.82283" lon="6.84728">
        <ele>1214.9</ele>
        <time>2021-08-09T15:18:20Z</time>
      </trkpt>
      <trkpt lat="47.82283" lon="6.84728">
        <ele>1215</ele>
        <time>2021-08-09T15:18:21Z</time>
      </trkpt>
      <trkpt lat="47.82283" lon="6.84728">
        <ele>1215.2</ele>
        <time>2021-08-09T15:18:23Z</time>
      </trkpt>
      <trkpt lat="47.82283" lon="6.84728">
        <ele>1215.3</ele>
        <time>2021-08-09T15:18:24Z</time>
      </trkpt>
      <trkpt lat="47.82283" lon="6.84728">
        <ele>1215.4</ele>
        <time>2021-08-09T15:18:25Z</time>
      </trkpt>
      <trkpt lat="47.82282" lon="6.84728">
        <ele>1215.6</ele>
        <time>2021-08-09T15:18:27Z</time>
      </trkpt>
      <trkpt lat="47.82282" lon="6.84728">
        <ele>1215.7</ele>
        <time>2021-08-09T15:18:29Z</time>
      </trkpt>
      <trkpt lat="47.82282" lon="6.84728">
        <ele>1215.9</ele>
        <time>2021-08-09T15:18:31Z</time>
      </trkpt>
      <trkpt lat="47.82282" lon="6.84728">
        <ele>1216</ele>
        <time>2021-08-09T15:18:32Z</time>
      </trkpt>
      <trkpt lat="47.82282" lon="6.84727">
        <ele>1217.6</ele>
        <time>2021-08-09T15:18:34Z</time>
      </trkpt>
      <trkpt lat="47.8228" lon="6.84726">
        <ele>1218.2</ele>
        <time>2021-08-09T15:18:36Z</time>
      </trkpt>
      <trkpt lat="47.82279" lon="6.84726">
        <ele>1218.3</ele>
        <time>2021-08-09T15:18:37Z</time>
      </trkpt>
      <trkpt lat="47.82278" lon="6.84726">
        <ele>1218.9</ele>
        <time>2021-08-09T15:18:39Z</time>
      </trkpt>
      <trkpt lat="47.82275" lon="6.84729">
        <ele>1217.5</ele>
        <time>2021-08-09T15:18:41Z</time>
      </trkpt>
      <trkpt lat="47.82277" lon="6.84732">
        <ele>1216.2</ele>
        <time>2021-08-09T15:18:43Z</time>
      </trkpt>
      <trkpt lat="47.82278" lon="6.84733">
        <ele>1216.4</ele>
        <time>2021-08-09T15:18:45Z</time>
      </trkpt>
      <trkpt lat="47.82279" lon="6.84734">
        <ele>1216.1</ele>
        <time>2021-08-09T15:18:47Z</time>
      </trkpt>
      <trkpt lat="47.8228" lon="6.84735">
        <ele>1216.2</ele>
        <time>2021-08-09T15:18:49Z</time>
      </trkpt>
      <trkpt lat="47.82281" lon="6.84736">
        <ele>1214.5</ele>
        <time>2021-08-09T15:18:51Z</time>
      </trkpt>
      <trkpt lat="47.82282" lon="6.84737">
        <ele>1214.7</ele>
        <time>2021-08-09T15:18:52Z</time>
      </trkpt>
      <trkpt lat="47.82283" lon="6.84738">
        <ele>1214.8</ele>
        <time>2021-08-09T15:18:54Z</time>
      </trkpt>
      <trkpt lat="47.82284" lon="6.84739">
        <ele>1214.5</ele>
        <time>2021-08-09T15:18:56Z</time>
      </trkpt>
      <trkpt lat="47.82285" lon="6.8474">
        <ele>1213.3</ele>
        <time>2021-08-09T15:18:57Z</time>
      </trkpt>
      <trkpt lat="47.8229" lon="6.84742">
        <ele>1212.6</ele>
        <time>2021-08-09T15:18:59Z</time>
      </trkpt>
      <trkpt lat="47.82289" lon="6.84743">
        <ele>1213.2</ele>
        <time>2021-08-09T15:19:00Z</time>
      </trkpt>
      <trkpt lat="47.82287" lon="6.84745">
        <ele>1211.9</ele>
        <time>2021-08-09T15:19:02Z</time>
      </trkpt>
      <trkpt lat="47.82287" lon="6.84745">
        <ele>1212.1</ele>
        <time>2021-08-09T15:19:04Z</time>
      </trkpt>
      <trkpt lat="47.82287" lon="6.84745">
        <ele>1212.2</ele>
        <time>2021-08-09T15:19:05Z</time>
      </trkpt>
      <trkpt lat="47.82287" lon="6.84745">
        <ele>1212.7</ele>
        <time>2021-08-09T15:19:07Z</time>
      </trkpt>
      <trkpt lat="47.82284" lon="6.84745">
        <ele>1212.9</ele>
        <time>2021-08-09T15:19:08Z</time>
      </trkpt>
      <trkpt lat="47.82284" lon="6.84745">
        <ele>1213.4</ele>
        <time>2021-08-09T15:19:10Z</time>
      </trkpt>
      <trkpt lat="47.8228" lon="6.84749">
        <ele>1213.9</ele>
        <time>2021-08-09T15:19:12Z</time>
      </trkpt>
      <trkpt lat="47.82272" lon="6.84757">
        <ele>1211.9</ele>
        <time>2021-08-09T15:19:14Z</time>
      </trkpt>
      <trkpt lat="47.82265" lon="6.84763">
        <ele>1209.4</ele>
        <time>2021-08-09T15:19:15Z</time>
      </trkpt>
      <trkpt lat="47.82247" lon="6.84779">
        <ele>1203.7</ele>
        <time>2021-08-09T15:19:17Z</time>
      </trkpt>
      <trkpt lat="47.82244" lon="6.84783">
        <ele>1203.8</ele>
        <time>2021-08-09T15:19:19Z</time>
      </trkpt>
      <trkpt lat="47.82245" lon="6.84783">
        <ele>1203.9</ele>
        <time>2021-08-09T15:19:20Z</time>
      </trkpt>
      <trkpt lat="47.82246" lon="6.8478">
        <ele>1204</ele>
        <time>2021-08-09T15:19:21Z</time>
      </trkpt>
      <trkpt lat="47.82247" lon="6.84778">
        <ele>1206</ele>
        <time>2021-08-09T15:19:23Z</time>
      </trkpt>
      <trkpt lat="47.82254" lon="6.84765">
        <ele>1211.1</ele>
        <time>2021-08-09T15:19:25Z</time>
      </trkpt>
      <trkpt lat="47.82257" lon="6.8476">
        <ele>1212.7</ele>
        <time>2021-08-09T15:19:26Z</time>
      </trkpt>
      <trkpt lat="47.82259" lon="6.84755">
        <ele>1214.2</ele>
        <time>2021-08-09T15:19:28Z</time>
      </trkpt>
      <trkpt lat="47.82259" lon="6.84754">
        <ele>1214.3</ele>
        <time>2021-08-09T15:19:30Z</time>
      </trkpt>
      <trkpt lat="47.8226" lon="6.84752">
        <ele>1214.3</ele>
        <time>2021-08-09T15:19:31Z</time>
      </trkpt>
      <trkpt lat="47.8226" lon="6.84751">
        <ele>1214.2</ele>
        <time>2021-08-09T15:19:32Z</time>
      </trkpt>
      <trkpt lat="47.82212" lon="6.84626">
        <ele>1230.6</ele>
        <time>2021-08-09T15:26:01Z</time>
      </trkpt>
      <trkpt lat="47.82211" lon="6.84621">
        <ele>1230.8</ele>
        <time>2021-08-09T15:26:02Z</time>
      </trkpt>
      <trkpt lat="47.82211" lon="6.84616">
        <ele>1231</ele>
        <time>2021-08-09T15:26:04Z</time>
      </trkpt>
      <trkpt lat="47.82211" lon="6.84615">
        <ele>1231.1</ele>
        <time>2021-08-09T15:26:05Z</time>
      </trkpt>
      <trkpt lat="47.82211" lon="6.84612">
        <ele>1231.2</ele>
        <time>2021-08-09T15:26:06Z</time>
      </trkpt>
      <trkpt lat="47.8221" lon="6.84607">
        <ele>1231.5</ele>
        <time>2021-08-09T15:26:08Z</time>
      </trkpt>
      <trkpt lat="47.82211" lon="6.84602">
        <ele>1231.7</ele>
        <time>2021-08-09T15:26:09Z</time>
      </trkpt>
      <trkpt lat="47.82211" lon="6.84597">
        <ele>1232</ele>
        <time>2021-08-09T15:26:11Z</time>
      </trkpt>
      <trkpt lat="47.82212" lon="6.84595">
        <ele>1232.1</ele>
        <time>2021-08-09T15:26:12Z</time>
      </trkpt>
      <trkpt lat="47.82212" lon="6.84592">
        <ele>1232.3</ele>
        <time>2021-08-09T15:26:13Z</time>
      </trkpt>
      <trkpt lat="47.82211" lon="6.84589">
        <ele>1232.5</ele>
        <time>2021-08-09T15:26:15Z</time>
      </trkpt>
      <trkpt lat="47.82211" lon="6.84585">
        <ele>1232.8</ele>
        <time>2021-08-09T15:26:17Z</time>
      </trkpt>
      <trkpt lat="47.8221" lon="6.8458">
        <ele>1233</ele>
        <time>2021-08-09T15:26:18Z</time>
      </trkpt>
      <trkpt lat="47.8221" lon="6.84579">
        <ele>1233.1</ele>
        <time>2021-08-09T15:26:19Z</time>
      </trkpt>
      <trkpt lat="47.82209" lon="6.84577">
        <ele>1233.3</ele>
        <time>2021-08-09T15:26:20Z</time>
      </trkpt>
      <trkpt lat="47.8221" lon="6.84574">
        <ele>1233.5</ele>
        <time>2021-08-09T15:26:21Z</time>
      </trkpt>
      <trkpt lat="47.8221" lon="6.84571">
        <ele>1233.7</ele>
        <time>2021-08-09T15:26:22Z</time>
      </trkpt>
      <trkpt lat="47.82211" lon="6.84567">
        <ele>1234</ele>
        <time>2021-08-09T15:26:24Z</time>
      </trkpt>
      <trkpt lat="47.82211" lon="6.84565">
        <ele>1234.1</ele>
        <time>2021-08-09T15:26:25Z</time>
      </trkpt>
      <trkpt lat="47.82211" lon="6.84565">
        <ele>1234.1</ele>
        <time>2021-08-09T15:26:27Z</time>
      </trkpt>
      <trkpt lat="47.82211" lon="6.84565">
        <ele>1234.2</ele>
        <time>2021-08-09T15:26:28Z</time>
      </trkpt>
      <trkpt lat="47.82211" lon="6.84565">
        <ele>1234.2</ele>
        <time>2021-08-09T15:26:29Z</time>
      </trkpt>
      <trkpt lat="47.82212" lon="6.84563">
        <ele>1234.3</ele>
        <time>2021-08-09T15:26:30Z</time>
      </trkpt>
      <trkpt lat="47.82212" lon="6.8456">
        <ele>1234.5</ele>
        <time>2021-08-09T15:26:31Z</time>
      </trkpt>
      <trkpt lat="47.82211" lon="6.84559">
        <ele>1234.6</ele>
        <time>2021-08-09T15:26:32Z</time>
      </trkpt>
      <trkpt lat="47.82211" lon="6.84558">
        <ele>1234.7</ele>
        <time>2021-08-09T15:26:34Z</time>
      </trkpt>
      <trkpt lat="47.82211" lon="6.84557">
        <ele>1234.8</ele>
        <time>2021-08-09T15:26:35Z</time>
      </trkpt>
      <trkpt lat="47.82212" lon="6.84553">
        <ele>1235.4</ele>
        <time>2021-08-09T15:26:37Z</time>
      </trkpt>
      <trkpt lat="47.82213" lon="6.8455">
        <ele>1235.7</ele>
        <time>2021-08-09T15:26:38Z</time>
      </trkpt>
      <trkpt lat="47.82214" lon="6.84549">
        <ele>1235.8</ele>
        <time>2021-08-09T15:26:39Z</time>
      </trkpt>
      <trkpt lat="47.82214" lon="6.8455">
        <ele>1235.8</ele>
        <time>2021-08-09T15:26:41Z</time>
      </trkpt>
      <trkpt lat="47.82214" lon="6.8455">
        <ele>1235.9</ele>
        <time>2021-08-09T15:26:42Z</time>
      </trkpt>
      <trkpt lat="47.82216" lon="6.84549">
        <ele>1236.2</ele>
        <time>2021-08-09T15:26:43Z</time>
      </trkpt>
      <trkpt lat="47.82219" lon="6.84547">
        <ele>1236.5</ele>
        <time>2021-08-09T15:26:45Z</time>
      </trkpt>
      <trkpt lat="47.8222" lon="6.84546">
        <ele>1236.6</ele>
        <time>2021-08-09T15:26:46Z</time>
      </trkpt>
      <trkpt lat="47.82221" lon="6.84545">
        <ele>1236.7</ele>
        <time>2021-08-09T15:26:47Z</time>
      </trkpt>
      <trkpt lat="47.82222" lon="6.84544">
        <ele>1236.9</ele>
        <time>2021-08-09T15:26:48Z</time>
      </trkpt>
      <trkpt lat="47.82224" lon="6.84543">
        <ele>1237.2</ele>
        <time>2021-08-09T15:26:50Z</time>
      </trkpt>
      <trkpt lat="47.82225" lon="6.84543">
        <ele>1237.3</ele>
        <time>2021-08-09T15:26:51Z</time>
      </trkpt>
      <trkpt lat="47.82227" lon="6.84542">
        <ele>1237.6</ele>
        <time>2021-08-09T15:26:53Z</time>
      </trkpt>
      <trkpt lat="47.82229" lon="6.8454">
        <ele>1237.8</ele>
        <time>2021-08-09T15:26:54Z</time>
      </trkpt>
      <trkpt lat="47.82229" lon="6.84538">
        <ele>1238</ele>
        <time>2021-08-09T15:26:55Z</time>
      </trkpt>
      <trkpt lat="47.8223" lon="6.84534">
        <ele>1238.3</ele>
        <time>2021-08-09T15:26:57Z</time>
      </trkpt>
      <trkpt lat="47.82231" lon="6.84533">
        <ele>1238.4</ele>
        <time>2021-08-09T15:26:58Z</time>
      </trkpt>
      <trkpt lat="47.82231" lon="6.84532">
        <ele>1238.4</ele>
        <time>2021-08-09T15:26:59Z</time>
      </trkpt>
      <trkpt lat="47.82231" lon="6.8453">
        <ele>1238.6</ele>
        <time>2021-08-09T15:27:01Z</time>
      </trkpt>
      <trkpt lat="47.82232" lon="6.84528">
        <ele>1238.7</ele>
        <time>2021-08-09T15:27:02Z</time>
      </trkpt>
      <trkpt lat="47.82232" lon="6.84524">
        <ele>1239</ele>
        <time>2021-08-09T15:27:04Z</time>
      </trkpt>
      <trkpt lat="47.8223" lon="6.84523">
        <ele>1239.2</ele>
        <time>2021-08-09T15:27:06Z</time>
      </trkpt>
      <trkpt lat="47.82229" lon="6.84521">
        <ele>1239.4</ele>
        <time>2021-08-09T15:27:07Z</time>
      </trkpt>
      <trkpt lat="47.82227" lon="6.84518">
        <ele>1239.6</ele>
        <time>2021-08-09T15:27:09Z</time>
      </trkpt>
      <trkpt lat="47.82227" lon="6.84514">
        <ele>1239.9</ele>
        <time>2021-08-09T15:27:10Z</time>
      </trkpt>
      <trkpt lat="47.82227" lon="6.84513">
        <ele>1239.9</ele>
        <time>2021-08-09T15:27:11Z</time>
      </trkpt>
      <trkpt lat="47.82227" lon="6.8451">
        <ele>1240.4</ele>
        <time>2021-08-09T15:27:12Z</time>
      </trkpt>
      <trkpt lat="47.82225" lon="6.84507">
        <ele>1240.4</ele>
        <time>2021-08-09T15:27:14Z</time>
      </trkpt>
      <trkpt lat="47.82225" lon="6.84506">
        <ele>1240.4</ele>
        <time>2021-08-09T15:27:16Z</time>
      </trkpt>
      <trkpt lat="47.82225" lon="6.84506">
        <ele>1240.3</ele>
        <time>2021-08-09T15:27:17Z</time>
      </trkpt>
      <trkpt lat="47.82225" lon="6.84506">
        <ele>1240.3</ele>
        <time>2021-08-09T15:27:18Z</time>
      </trkpt>
      <trkpt lat="47.82225" lon="6.84506">
        <ele>1240.3</ele>
        <time>2021-08-09T15:27:19Z</time>
      </trkpt>
      <trkpt lat="47.82225" lon="6.84506">
        <ele>1240.3</ele>
        <time>2021-08-09T15:27:21Z</time>
      </trkpt>
      <trkpt lat="47.82225" lon="6.84505">
        <ele>1240.3</ele>
        <time>2021-08-09T15:27:22Z</time>
      </trkpt>
      <trkpt lat="47.82225" lon="6.84505">
        <ele>1240.3</ele>
        <time>2021-08-09T15:27:24Z</time>
      </trkpt>
      <trkpt lat="47.82228" lon="6.84509">
        <ele>1240.3</ele>
        <time>2021-08-09T15:29:30Z</time>
      </trkpt>
      <trkpt lat="47.82224" lon="6.8451">
        <ele>1240.2</ele>
        <time>2021-08-09T15:29:32Z</time>
      </trkpt>
      <trkpt lat="47.82224" lon="6.84509">
        <ele>1240.2</ele>
        <time>2021-08-09T15:29:33Z</time>
      </trkpt>
      <trkpt lat="47.82224" lon="6.84509">
        <ele>1240.2</ele>
        <time>2021-08-09T15:29:34Z</time>
      </trkpt>
      <trkpt lat="47.82224" lon="6.84509">
        <ele>1240.2</ele>
        <time>2021-08-09T15:29:35Z</time>
      </trkpt>
      <trkpt lat="47.82223" lon="6.84509">
        <ele>1240.2</ele>
        <time>2021-08-09T15:29:37Z</time>
      </trkpt>
      <trkpt lat="47.82223" lon="6.84509">
        <ele>1240.2</ele>
        <time>2021-08-09T15:29:39Z</time>
      </trkpt>
      <trkpt lat="47.82223" lon="6.84509">
        <ele>1240.2</ele>
        <time>2021-08-09T15:29:41Z</time>
      </trkpt>
      <trkpt lat="47.82223" lon="6.84509">
        <ele>1240.2</ele>
        <time>2021-08-09T15:29:42Z</time>
      </trkpt>
      <trkpt lat="47.82223" lon="6.84509">
        <ele>1240.2</ele>
        <time>2021-08-09T15:29:44Z</time>
      </trkpt>
      <trkpt lat="47.82223" lon="6.84509">
        <ele>1240.2</ele>
        <time>2021-08-09T15:29:46Z</time>
      </trkpt>
      <trkpt lat="47.82223" lon="6.84509">
        <ele>1240.2</ele>
        <time>2021-08-09T15:29:48Z</time>
      </trkpt>
      <trkpt lat="47.82223" lon="6.84509">
        <ele>1240.2</ele>
        <time>2021-08-09T15:29:49Z</time>
      </trkpt>
      <trkpt lat="47.82223" lon="6.84509">
        <ele>1240.2</ele>
        <time>2021-08-09T15:29:51Z</time>
      </trkpt>
      <trkpt lat="47.82223" lon="6.84509">
        <ele>1240.2</ele>
        <time>2021-08-09T15:29:52Z</time>
      </trkpt>
      <trkpt lat="47.82223" lon="6.84509">
        <ele>1240.2</ele>
        <time>2021-08-09T15:29:54Z</time>
      </trkpt>
      <trkpt lat="47.82223" lon="6.84509">
        <ele>1240.2</ele>
        <time>2021-08-09T15:29:55Z</time>
      </trkpt>
      <trkpt lat="47.82223" lon="6.84509">
        <ele>1240.2</ele>
        <time>2021-08-09T15:29:57Z</time>
      </trkpt>
      <trkpt lat="47.82223" lon="6.84509">
        <ele>1240.2</ele>
        <time>2021-08-09T15:29:59Z</time>
      </trkpt>
      <trkpt lat="47.82223" lon="6.84509">
        <ele>1240.2</ele>
        <time>2021-08-09T15:30:00Z</time>
      </trkpt>
      <trkpt lat="47.82223" lon="6.84509">
        <ele>1240.2</ele>
        <time>2021-08-09T15:30:02Z</time>
      </trkpt>
      <trkpt lat="47.82223" lon="6.84509">
        <ele>1240.2</ele>
        <time>2021-08-09T15:30:04Z</time>
      </trkpt>
      <trkpt lat="47.82223" lon="6.84509">
        <ele>1240.2</ele>
        <time>2021-08-09T15:30:05Z</time>
      </trkpt>
      <trkpt lat="47.82223" lon="6.84509">
        <ele>1240.2</ele>
        <time>2021-08-09T15:30:07Z</time>
      </trkpt>
      <trkpt lat="47.82223" lon="6.84509">
        <ele>1240.2</ele>
        <time>2021-08-09T15:30:09Z</time>
      </trkpt>
      <trkpt lat="47.82223" lon="6.84509">
        <ele>1240.2</ele>
        <time>2021-08-09T15:30:10Z</time>
      </trkpt>
      <trkpt lat="47.82223" lon="6.84509">
        <ele>1240.2</ele>
        <time>2021-08-09T15:30:12Z</time>
      </trkpt>
      <trkpt lat="47.82223" lon="6.84509">
        <ele>1240.2</ele>
        <time>2021-08-09T15:30:14Z</time>
      </trkpt>
      <trkpt lat="47.82223" lon="6.84509">
        <ele>1240.2</ele>
        <time>2021-08-09T15:30:15Z</time>
      </trkpt>
      <trkpt lat="47.82223" lon="6.84509">
        <ele>1240.2</ele>
        <time>2021-08-09T15:30:17Z</time>
      </trkpt>
      <trkpt lat="47.82223" lon="6.84509">
        <ele>1240.2</ele>
        <time>2021-08-09T15:30:18Z</time>
      </trkpt>
      <trkpt lat="47.82223" lon="6.84509">
        <ele>1240.2</ele>
        <time>2021-08-09T15:30:20Z</time>
      </trkpt>
      <trkpt lat="47.82223" lon="6.84509">
        <ele>1240.2</ele>
        <time>2021-08-09T15:30:22Z</time>
      </trkpt>
      <trkpt lat="47.82223" lon="6.84509">
        <ele>1240.2</ele>
        <time>2021-08-09T15:30:23Z</time>
      </trkpt>
      <trkpt lat="47.82223" lon="6.84509">
        <ele>1240.2</ele>
        <time>2021-08-09T15:30:24Z</time>
      </trkpt>
      <trkpt lat="47.82223" lon="6.84509">
        <ele>1240.2</ele>
        <time>2021-08-09T15:30:25Z</time>
      </trkpt>
      <trkpt lat="47.82223" lon="6.84509">
        <ele>1240.2</ele>
        <time>2021-08-09T15:30:27Z</time>
      </trkpt>
      <trkpt lat="47.82223" lon="6.84509">
        <ele>1240.2</ele>
        <time>2021-08-09T15:30:28Z</time>
      </trkpt>
      <trkpt lat="47.82223" lon="6.84509">
        <ele>1240.2</ele>
        <time>2021-08-09T15:30:30Z</time>
      </trkpt>
      <trkpt lat="47.82223" lon="6.84509">
        <ele>1240.2</ele>
        <time>2021-08-09T15:30:32Z</time>
      </trkpt>
      <trkpt lat="47.82223" lon="6.84509">
        <ele>1240.2</ele>
        <time>2021-08-09T15:30:34Z</time>
      </trkpt>
      <trkpt lat="47.82223" lon="6.84509">
        <ele>1240.2</ele>
        <time>2021-08-09T15:30:36Z</time>
      </trkpt>
      <trkpt lat="47.82223" lon="6.84509">
        <ele>1240.2</ele>
        <time>2021-08-09T15:30:37Z</time>
      </trkpt>
      <trkpt lat="47.82223" lon="6.84509">
        <ele>1240.2</ele>
        <time>2021-08-09T15:30:39Z</time>
      </trkpt>
      <trkpt lat="47.82223" lon="6.84509">
        <ele>1240.2</ele>
        <time>2021-08-09T15:30:40Z</time>
      </trkpt>
      <trkpt lat="47.82223" lon="6.84509">
        <ele>1240.2</ele>
        <time>2021-08-09T15:30:42Z</time>
      </trkpt>
      <trkpt lat="47.82223" lon="6.84509">
        <ele>1240.2</ele>
        <time>2021-08-09T15:30:44Z</time>
      </trkpt>
      <trkpt lat="47.8223" lon="6.84512">
        <ele>1240.1</ele>
        <time>2021-08-09T15:30:46Z</time>
      </trkpt>
      <trkpt lat="47.82233" lon="6.84512">
        <ele>1240</ele>
        <time>2021-08-09T15:30:47Z</time>
      </trkpt>
      <trkpt lat="47.82233" lon="6.84512">
        <ele>1240</ele>
        <time>2021-08-09T15:30:48Z</time>
      </trkpt>
      <trkpt lat="47.82234" lon="6.84512">
        <ele>1240</ele>
        <time>2021-08-09T15:30:49Z</time>
      </trkpt>
      <trkpt lat="47.82234" lon="6.84512">
        <ele>1240</ele>
        <time>2021-08-09T15:30:50Z</time>
      </trkpt>
      <trkpt lat="47.82234" lon="6.84512">
        <ele>1240</ele>
        <time>2021-08-09T15:30:52Z</time>
      </trkpt>
      <trkpt lat="47.82234" lon="6.84512">
        <ele>1240</ele>
        <time>2021-08-09T15:30:54Z</time>
      </trkpt>
      <trkpt lat="47.82234" lon="6.84512">
        <ele>1240</ele>
        <time>2021-08-09T15:30:56Z</time>
      </trkpt>
      <trkpt lat="47.82234" lon="6.84512">
        <ele>1240</ele>
        <time>2021-08-09T15:30:57Z</time>
      </trkpt>
      <trkpt lat="47.82234" lon="6.84512">
        <ele>1240</ele>
        <time>2021-08-09T15:30:58Z</time>
      </trkpt>
      <trkpt lat="47.82234" lon="6.84512">
        <ele>1240</ele>
        <time>2021-08-09T15:31:00Z</time>
      </trkpt>
      <trkpt lat="47.82234" lon="6.84512">
        <ele>1240</ele>
        <time>2021-08-09T15:31:02Z</time>
      </trkpt>
      <trkpt lat="47.82234" lon="6.84512">
        <ele>1240</ele>
        <time>2021-08-09T15:31:03Z</time>
      </trkpt>
      <trkpt lat="47.82234" lon="6.84512">
        <ele>1240</ele>
        <time>2021-08-09T15:31:05Z</time>
      </trkpt>
      <trkpt lat="47.82234" lon="6.84513">
        <ele>1240</ele>
        <time>2021-08-09T15:31:07Z</time>
      </trkpt>
      <trkpt lat="47.82234" lon="6.84515">
        <ele>1239.9</ele>
        <time>2021-08-09T15:31:09Z</time>
      </trkpt>
      <trkpt lat="47.82234" lon="6.84516">
        <ele>1239.9</ele>
        <time>2021-08-09T15:31:10Z</time>
      </trkpt>
      <trkpt lat="47.82234" lon="6.84516">
        <ele>1239.9</ele>
        <time>2021-08-09T15:31:12Z</time>
      </trkpt>
      <trkpt lat="47.82235" lon="6.84517">
        <ele>1239.9</ele>
        <time>2021-08-09T15:31:13Z</time>
      </trkpt>
      <trkpt lat="47.82235" lon="6.84517">
        <ele>1239.9</ele>
        <time>2021-08-09T15:31:15Z</time>
      </trkpt>
      <trkpt lat="47.82235" lon="6.84517">
        <ele>1239.9</ele>
        <time>2021-08-09T15:31:17Z</time>
      </trkpt>
      <trkpt lat="47.82235" lon="6.84517">
        <ele>1239.9</ele>
        <time>2021-08-09T15:31:18Z</time>
      </trkpt>
      <trkpt lat="47.82235" lon="6.84517">
        <ele>1239.9</ele>
        <time>2021-08-09T15:31:19Z</time>
      </trkpt>
      <trkpt lat="47.82238" lon="6.84521">
        <ele>1239.8</ele>
        <time>2021-08-09T15:31:21Z</time>
      </trkpt>
      <trkpt lat="47.82239" lon="6.84524">
        <ele>1239.8</ele>
        <time>2021-08-09T15:31:22Z</time>
      </trkpt>
      <trkpt lat="47.82241" lon="6.84528">
        <ele>1239.7</ele>
        <time>2021-08-09T15:31:24Z</time>
      </trkpt>
      <trkpt lat="47.82242" lon="6.84532">
        <ele>1239.7</ele>
        <time>2021-08-09T15:31:25Z</time>
      </trkpt>
      <trkpt lat="47.82246" lon="6.84542">
        <ele>1239.5</ele>
        <time>2021-08-09T15:31:27Z</time>
      </trkpt>
      <trkpt lat="47.82248" lon="6.84547">
        <ele>1239.5</ele>
        <time>2021-08-09T15:31:28Z</time>
      </trkpt>
      <trkpt lat="47.8225" lon="6.8455">
        <ele>1239.5</ele>
        <time>2021-08-09T15:31:29Z</time>
      </trkpt>
      <trkpt lat="47.82253" lon="6.84554">
        <ele>1239.4</ele>
        <time>2021-08-09T15:31:30Z</time>
      </trkpt>
      <trkpt lat="47.82259" lon="6.84562">
        <ele>1239.4</ele>
        <time>2021-08-09T15:31:32Z</time>
      </trkpt>
      <trkpt lat="47.82265" lon="6.84568">
        <ele>1239.4</ele>
        <time>2021-08-09T15:31:34Z</time>
      </trkpt>
      <trkpt lat="47.8227" lon="6.84573">
        <ele>1239.5</ele>
        <time>2021-08-09T15:31:36Z</time>
      </trkpt>
      <trkpt lat="47.82275" lon="6.84579">
        <ele>1239.5</ele>
        <time>2021-08-09T15:31:38Z</time>
      </trkpt>
      <trkpt lat="47.82281" lon="6.84584">
        <ele>1239.6</ele>
        <time>2021-08-09T15:31:40Z</time>
      </trkpt>
      <trkpt lat="47.82285" lon="6.84586">
        <ele>1239.6</ele>
        <time>2021-08-09T15:31:41Z</time>
      </trkpt>
      <trkpt lat="47.82286" lon="6.84586">
        <ele>1239.6</ele>
        <time>2021-08-09T15:31:42Z</time>
      </trkpt>
      <trkpt lat="47.82292" lon="6.84586">
        <ele>1239.7</ele>
        <time>2021-08-09T15:31:44Z</time>
      </trkpt>
      <trkpt lat="47.82296" lon="6.84581">
        <ele>1239.7</ele>
        <time>2021-08-09T15:31:46Z</time>
      </trkpt>
      <trkpt lat="47.82299" lon="6.84579">
        <ele>1239.8</ele>
        <time>2021-08-09T15:31:47Z</time>
      </trkpt>
      <trkpt lat="47.82303" lon="6.84575">
        <ele>1239.8</ele>
        <time>2021-08-09T15:31:49Z</time>
      </trkpt>
      <trkpt lat="47.82307" lon="6.84573">
        <ele>1239.7</ele>
        <time>2021-08-09T15:31:51Z</time>
      </trkpt>
      <trkpt lat="47.82311" lon="6.84569">
        <ele>1239.7</ele>
        <time>2021-08-09T15:31:53Z</time>
      </trkpt>
      <trkpt lat="47.82316" lon="6.84565">
        <ele>1239.6</ele>
        <time>2021-08-09T15:31:55Z</time>
      </trkpt>
      <trkpt lat="47.82317" lon="6.84563">
        <ele>1239.6</ele>
        <time>2021-08-09T15:31:56Z</time>
      </trkpt>
      <trkpt lat="47.8232" lon="6.84558">
        <ele>1239.4</ele>
        <time>2021-08-09T15:31:58Z</time>
      </trkpt>
      <trkpt lat="47.82322" lon="6.84556">
        <ele>1239.3</ele>
        <time>2021-08-09T15:31:59Z</time>
      </trkpt>
      <trkpt lat="47.82326" lon="6.84554">
        <ele>1239.2</ele>
        <time>2021-08-09T15:32:00Z</time>
      </trkpt>
      <trkpt lat="47.82327" lon="6.84553">
        <ele>1239.1</ele>
        <time>2021-08-09T15:32:01Z</time>
      </trkpt>
      <trkpt lat="47.82329" lon="6.8455">
        <ele>1238.9</ele>
        <time>2021-08-09T15:32:02Z</time>
      </trkpt>
      <trkpt lat="47.82332" lon="6.84546">
        <ele>1238.7</ele>
        <time>2021-08-09T15:32:04Z</time>
      </trkpt>
      <trkpt lat="47.82335" lon="6.84544">
        <ele>1238.5</ele>
        <time>2021-08-09T15:32:05Z</time>
      </trkpt>
      <trkpt lat="47.82339" lon="6.8454">
        <ele>1238.2</ele>
        <time>2021-08-09T15:32:06Z</time>
      </trkpt>
      <trkpt lat="47.82343" lon="6.84536">
        <ele>1237.8</ele>
        <time>2021-08-09T15:32:08Z</time>
      </trkpt>
      <trkpt lat="47.82346" lon="6.84532">
        <ele>1237.5</ele>
        <time>2021-08-09T15:32:09Z</time>
      </trkpt>
      <trkpt lat="47.8235" lon="6.84527">
        <ele>1237.1</ele>
        <time>2021-08-09T15:32:10Z</time>
      </trkpt>
      <trkpt lat="47.8236" lon="6.84518">
        <ele>1236.4</ele>
        <time>2021-08-09T15:32:12Z</time>
      </trkpt>
      <trkpt lat="47.82369" lon="6.8451">
        <ele>1235.6</ele>
        <time>2021-08-09T15:32:14Z</time>
      </trkpt>
      <trkpt lat="47.82379" lon="6.84502">
        <ele>1234.8</ele>
        <time>2021-08-09T15:32:16Z</time>
      </trkpt>
      <trkpt lat="47.82389" lon="6.84493">
        <ele>1234</ele>
        <time>2021-08-09T15:32:18Z</time>
      </trkpt>
      <trkpt lat="47.82394" lon="6.84487">
        <ele>1233.6</ele>
        <time>2021-08-09T15:32:19Z</time>
      </trkpt>
      <trkpt lat="47.82404" lon="6.84474">
        <ele>1232.7</ele>
        <time>2021-08-09T15:32:21Z</time>
      </trkpt>
      <trkpt lat="47.82408" lon="6.84467">
        <ele>1232.3</ele>
        <time>2021-08-09T15:32:22Z</time>
      </trkpt>
      <trkpt lat="47.82416" lon="6.84451">
        <ele>1231.7</ele>
        <time>2021-08-09T15:32:24Z</time>
      </trkpt>
      <trkpt lat="47.82424" lon="6.84435">
        <ele>1231.2</ele>
        <time>2021-08-09T15:32:26Z</time>
      </trkpt>
      <trkpt lat="47.82432" lon="6.84419">
        <ele>1230.9</ele>
        <time>2021-08-09T15:32:28Z</time>
      </trkpt>
      <trkpt lat="47.82436" lon="6.84412">
        <ele>1230.8</ele>
        <time>2021-08-09T15:32:29Z</time>
      </trkpt>
      <trkpt lat="47.82438" lon="6.84406">
        <ele>1230.8</ele>
        <time>2021-08-09T15:32:30Z</time>
      </trkpt>
      <trkpt lat="47.82444" lon="6.84394">
        <ele>1230.7</ele>
        <time>2021-08-09T15:32:32Z</time>
      </trkpt>
      <trkpt lat="47.82447" lon="6.84388">
        <ele>1230.7</ele>
        <time>2021-08-09T15:32:33Z</time>
      </trkpt>
      <trkpt lat="47.8245" lon="6.84382">
        <ele>1230.7</ele>
        <time>2021-08-09T15:32:34Z</time>
      </trkpt>
      <trkpt lat="47.82451" lon="6.84378">
        <ele>1230.8</ele>
        <time>2021-08-09T15:32:35Z</time>
      </trkpt>
      <trkpt lat="47.82454" lon="6.84372">
        <ele>1230.8</ele>
        <time>2021-08-09T15:32:36Z</time>
      </trkpt>
      <trkpt lat="47.82458" lon="6.84362">
        <ele>1230.9</ele>
        <time>2021-08-09T15:32:38Z</time>
      </trkpt>
      <trkpt lat="47.8246" lon="6.84357">
        <ele>1231</ele>
        <time>2021-08-09T15:32:39Z</time>
      </trkpt>
      <trkpt lat="47.82463" lon="6.84347">
        <ele>1231.3</ele>
        <time>2021-08-09T15:32:41Z</time>
      </trkpt>
      <trkpt lat="47.82463" lon="6.84343">
        <ele>1231.4</ele>
        <time>2021-08-09T15:32:42Z</time>
      </trkpt>
      <trkpt lat="47.82464" lon="6.84338">
        <ele>1231.6</ele>
        <time>2021-08-09T15:32:44Z</time>
      </trkpt>
      <trkpt lat="47.82466" lon="6.84334">
        <ele>1231.8</ele>
        <time>2021-08-09T15:32:45Z</time>
      </trkpt>
      <trkpt lat="47.82469" lon="6.84329">
        <ele>1232</ele>
        <time>2021-08-09T15:32:47Z</time>
      </trkpt>
      <trkpt lat="47.8247" lon="6.84328">
        <ele>1232.1</ele>
        <time>2021-08-09T15:32:48Z</time>
      </trkpt>
      <trkpt lat="47.82471" lon="6.84326">
        <ele>1232.2</ele>
        <time>2021-08-09T15:32:49Z</time>
      </trkpt>
      <trkpt lat="47.82473" lon="6.84323">
        <ele>1232.3</ele>
        <time>2021-08-09T15:32:50Z</time>
      </trkpt>
      <trkpt lat="47.82474" lon="6.84322">
        <ele>1232.4</ele>
        <time>2021-08-09T15:32:52Z</time>
      </trkpt>
      <trkpt lat="47.82475" lon="6.84321">
        <ele>1232.5</ele>
        <time>2021-08-09T15:32:53Z</time>
      </trkpt>
      <trkpt lat="47.82476" lon="6.84318">
        <ele>1232.6</ele>
        <time>2021-08-09T15:32:54Z</time>
      </trkpt>
      <trkpt lat="47.82477" lon="6.84316">
        <ele>1232.7</ele>
        <time>2021-08-09T15:32:55Z</time>
      </trkpt>
      <trkpt lat="47.82478" lon="6.84313">
        <ele>1232.8</ele>
        <time>2021-08-09T15:32:57Z</time>
      </trkpt>
      <trkpt lat="47.82479" lon="6.84309">
        <ele>1233</ele>
        <time>2021-08-09T15:32:58Z</time>
      </trkpt>
      <trkpt lat="47.8248" lon="6.84307">
        <ele>1233</ele>
        <time>2021-08-09T15:32:59Z</time>
      </trkpt>
      <trkpt lat="47.82481" lon="6.84304">
        <ele>1233.2</ele>
        <time>2021-08-09T15:33:00Z</time>
      </trkpt>
      <trkpt lat="47.82482" lon="6.84301">
        <ele>1233.3</ele>
        <time>2021-08-09T15:33:02Z</time>
      </trkpt>
      <trkpt lat="47.82484" lon="6.84296">
        <ele>1233.5</ele>
        <time>2021-08-09T15:33:03Z</time>
      </trkpt>
      <trkpt lat="47.82484" lon="6.84295">
        <ele>1233.6</ele>
        <time>2021-08-09T15:33:04Z</time>
      </trkpt>
      <trkpt lat="47.82485" lon="6.84293">
        <ele>1233.6</ele>
        <time>2021-08-09T15:33:05Z</time>
      </trkpt>
      <trkpt lat="47.82485" lon="6.8429">
        <ele>1233.8</ele>
        <time>2021-08-09T15:33:06Z</time>
      </trkpt>
      <trkpt lat="47.82487" lon="6.84286">
        <ele>1233.9</ele>
        <time>2021-08-09T15:33:08Z</time>
      </trkpt>
      <trkpt lat="47.82487" lon="6.84285">
        <ele>1234</ele>
        <time>2021-08-09T15:33:09Z</time>
      </trkpt>
      <trkpt lat="47.82489" lon="6.84283">
        <ele>1234.1</ele>
        <time>2021-08-09T15:33:10Z</time>
      </trkpt>
      <trkpt lat="47.8249" lon="6.84281">
        <ele>1234.1</ele>
        <time>2021-08-09T15:33:12Z</time>
      </trkpt>
      <trkpt lat="47.8249" lon="6.84278">
        <ele>1234.2</ele>
        <time>2021-08-09T15:33:13Z</time>
      </trkpt>
      <trkpt lat="47.82491" lon="6.84276">
        <ele>1234.3</ele>
        <time>2021-08-09T15:33:14Z</time>
      </trkpt>
      <trkpt lat="47.82493" lon="6.84274">
        <ele>1234.4</ele>
        <time>2021-08-09T15:33:15Z</time>
      </trkpt>
      <trkpt lat="47.82494" lon="6.84272">
        <ele>1234.4</ele>
        <time>2021-08-09T15:33:17Z</time>
      </trkpt>
      <trkpt lat="47.82495" lon="6.8427">
        <ele>1234.5</ele>
        <time>2021-08-09T15:33:18Z</time>
      </trkpt>
      <trkpt lat="47.82496" lon="6.84268">
        <ele>1234.6</ele>
        <time>2021-08-09T15:33:19Z</time>
      </trkpt>
      <trkpt lat="47.82497" lon="6.84266">
        <ele>1234.6</ele>
        <time>2021-08-09T15:33:20Z</time>
      </trkpt>
      <trkpt lat="47.82497" lon="6.84263">
        <ele>1234.7</ele>
        <time>2021-08-09T15:33:21Z</time>
      </trkpt>
      <trkpt lat="47.82499" lon="6.84259">
        <ele>1234.8</ele>
        <time>2021-08-09T15:33:23Z</time>
      </trkpt>
      <trkpt lat="47.825" lon="6.84257">
        <ele>1234.8</ele>
        <time>2021-08-09T15:33:24Z</time>
      </trkpt>
      <trkpt lat="47.82501" lon="6.84252">
        <ele>1234.9</ele>
        <time>2021-08-09T15:33:26Z</time>
      </trkpt>
      <trkpt lat="47.82503" lon="6.84246">
        <ele>1234.9</ele>
        <time>2021-08-09T15:33:27Z</time>
      </trkpt>
      <trkpt lat="47.82504" lon="6.84244">
        <ele>1235</ele>
        <time>2021-08-09T15:33:28Z</time>
      </trkpt>
      <trkpt lat="47.82505" lon="6.8424">
        <ele>1235</ele>
        <time>2021-08-09T15:33:29Z</time>
      </trkpt>
      <trkpt lat="47.82506" lon="6.84236">
        <ele>1235</ele>
        <time>2021-08-09T15:33:31Z</time>
      </trkpt>
      <trkpt lat="47.82506" lon="6.8423">
        <ele>1235</ele>
        <time>2021-08-09T15:33:32Z</time>
      </trkpt>
      <trkpt lat="47.82505" lon="6.84226">
        <ele>1235</ele>
        <time>2021-08-09T15:33:33Z</time>
      </trkpt>
      <trkpt lat="47.82505" lon="6.84222">
        <ele>1234.9</ele>
        <time>2021-08-09T15:33:35Z</time>
      </trkpt>
      <trkpt lat="47.82504" lon="6.84217">
        <ele>1234.9</ele>
        <time>2021-08-09T15:33:36Z</time>
      </trkpt>
      <trkpt lat="47.82504" lon="6.84212">
        <ele>1234.8</ele>
        <time>2021-08-09T15:33:37Z</time>
      </trkpt>
      <trkpt lat="47.82504" lon="6.84206">
        <ele>1234.7</ele>
        <time>2021-08-09T15:33:38Z</time>
      </trkpt>
      <trkpt lat="47.82503" lon="6.84201">
        <ele>1234.6</ele>
        <time>2021-08-09T15:33:40Z</time>
      </trkpt>
      <trkpt lat="47.82501" lon="6.84193">
        <ele>1234.3</ele>
        <time>2021-08-09T15:33:41Z</time>
      </trkpt>
      <trkpt lat="47.825" lon="6.84188">
        <ele>1234.2</ele>
        <time>2021-08-09T15:33:42Z</time>
      </trkpt>
      <trkpt lat="47.82498" lon="6.8418">
        <ele>1234</ele>
        <time>2021-08-09T15:33:44Z</time>
      </trkpt>
      <trkpt lat="47.82496" lon="6.84171">
        <ele>1233.7</ele>
        <time>2021-08-09T15:33:46Z</time>
      </trkpt>
      <trkpt lat="47.82495" lon="6.84164">
        <ele>1233.6</ele>
        <time>2021-08-09T15:33:47Z</time>
      </trkpt>
      <trkpt lat="47.82494" lon="6.84159">
        <ele>1233.4</ele>
        <time>2021-08-09T15:33:48Z</time>
      </trkpt>
      <trkpt lat="47.82493" lon="6.84151">
        <ele>1233.3</ele>
        <time>2021-08-09T15:33:49Z</time>
      </trkpt>
      <trkpt lat="47.82492" lon="6.84147">
        <ele>1233.2</ele>
        <time>2021-08-09T15:33:50Z</time>
      </trkpt>
      <trkpt lat="47.82491" lon="6.84141">
        <ele>1233.1</ele>
        <time>2021-08-09T15:33:52Z</time>
      </trkpt>
      <trkpt lat="47.8249" lon="6.84135">
        <ele>1233</ele>
        <time>2021-08-09T15:33:53Z</time>
      </trkpt>
      <trkpt lat="47.82488" lon="6.84127">
        <ele>1232.9</ele>
        <time>2021-08-09T15:33:54Z</time>
      </trkpt>
      <trkpt lat="47.82487" lon="6.84121">
        <ele>1232.8</ele>
        <time>2021-08-09T15:33:55Z</time>
      </trkpt>
      <trkpt lat="47.82486" lon="6.84115">
        <ele>1232.7</ele>
        <time>2021-08-09T15:33:57Z</time>
      </trkpt>
      <trkpt lat="47.82485" lon="6.8411">
        <ele>1232.6</ele>
        <time>2021-08-09T15:33:58Z</time>
      </trkpt>
      <trkpt lat="47.82484" lon="6.84105">
        <ele>1232.6</ele>
        <time>2021-08-09T15:33:59Z</time>
      </trkpt>
      <trkpt lat="47.82484" lon="6.84098">
        <ele>1232.5</ele>
        <time>2021-08-09T15:34:00Z</time>
      </trkpt>
      <trkpt lat="47.82483" lon="6.84092">
        <ele>1232.4</ele>
        <time>2021-08-09T15:34:01Z</time>
      </trkpt>
      <trkpt lat="47.82481" lon="6.84085">
        <ele>1232.4</ele>
        <time>2021-08-09T15:34:03Z</time>
      </trkpt>
      <trkpt lat="47.8248" lon="6.84077">
        <ele>1232.3</ele>
        <time>2021-08-09T15:34:04Z</time>
      </trkpt>
      <trkpt lat="47.8248" lon="6.84072">
        <ele>1232.3</ele>
        <time>2021-08-09T15:34:06Z</time>
      </trkpt>
      <trkpt lat="47.8248" lon="6.84066">
        <ele>1232.3</ele>
        <time>2021-08-09T15:34:07Z</time>
      </trkpt>
      <trkpt lat="47.82481" lon="6.84061">
        <ele>1232.3</ele>
        <time>2021-08-09T15:34:08Z</time>
      </trkpt>
      <trkpt lat="47.82482" lon="6.84056">
        <ele>1232.3</ele>
        <time>2021-08-09T15:34:09Z</time>
      </trkpt>
      <trkpt lat="47.82482" lon="6.84051">
        <ele>1232.3</ele>
        <time>2021-08-09T15:34:10Z</time>
      </trkpt>
      <trkpt lat="47.82483" lon="6.84043">
        <ele>1232.2</ele>
        <time>2021-08-09T15:34:11Z</time>
      </trkpt>
      <trkpt lat="47.82483" lon="6.84037">
        <ele>1232.2</ele>
        <time>2021-08-09T15:34:13Z</time>
      </trkpt>
      <trkpt lat="47.82484" lon="6.84028">
        <ele>1232.2</ele>
        <time>2021-08-09T15:34:15Z</time>
      </trkpt>
      <trkpt lat="47.82483" lon="6.8402">
        <ele>1232.2</ele>
        <time>2021-08-09T15:34:16Z</time>
      </trkpt>
      <trkpt lat="47.82483" lon="6.84016">
        <ele>1232.1</ele>
        <time>2021-08-09T15:34:18Z</time>
      </trkpt>
      <trkpt lat="47.82482" lon="6.8401">
        <ele>1232.1</ele>
        <time>2021-08-09T15:34:19Z</time>
      </trkpt>
      <trkpt lat="47.82482" lon="6.84005">
        <ele>1232</ele>
        <time>2021-08-09T15:34:20Z</time>
      </trkpt>
      <trkpt lat="47.82481" lon="6.83999">
        <ele>1232</ele>
        <time>2021-08-09T15:34:21Z</time>
      </trkpt>
      <trkpt lat="47.8248" lon="6.83993">
        <ele>1231.9</ele>
        <time>2021-08-09T15:34:23Z</time>
      </trkpt>
      <trkpt lat="47.82479" lon="6.83988">
        <ele>1231.9</ele>
        <time>2021-08-09T15:34:24Z</time>
      </trkpt>
      <trkpt lat="47.82477" lon="6.83983">
        <ele>1231.8</ele>
        <time>2021-08-09T15:34:25Z</time>
      </trkpt>
      <trkpt lat="47.82476" lon="6.83977">
        <ele>1231.7</ele>
        <time>2021-08-09T15:34:27Z</time>
      </trkpt>
      <trkpt lat="47.82475" lon="6.83972">
        <ele>1231.6</ele>
        <time>2021-08-09T15:34:28Z</time>
      </trkpt>
      <trkpt lat="47.82474" lon="6.83967">
        <ele>1231.6</ele>
        <time>2021-08-09T15:34:29Z</time>
      </trkpt>
      <trkpt lat="47.82473" lon="6.83959">
        <ele>1231.5</ele>
        <time>2021-08-09T15:34:31Z</time>
      </trkpt>
      <trkpt lat="47.82471" lon="6.83954">
        <ele>1231.5</ele>
        <time>2021-08-09T15:34:32Z</time>
      </trkpt>
      <trkpt lat="47.82469" lon="6.83949">
        <ele>1231.4</ele>
        <time>2021-08-09T15:34:33Z</time>
      </trkpt>
      <trkpt lat="47.82468" lon="6.83945">
        <ele>1231.4</ele>
        <time>2021-08-09T15:34:35Z</time>
      </trkpt>
      <trkpt lat="47.82466" lon="6.83941">
        <ele>1231.3</ele>
        <time>2021-08-09T15:34:36Z</time>
      </trkpt>
      <trkpt lat="47.82463" lon="6.83935">
        <ele>1231.3</ele>
        <time>2021-08-09T15:34:37Z</time>
      </trkpt>
      <trkpt lat="47.8246" lon="6.83931">
        <ele>1231.3</ele>
        <time>2021-08-09T15:34:39Z</time>
      </trkpt>
      <trkpt lat="47.82458" lon="6.83928">
        <ele>1231.2</ele>
        <time>2021-08-09T15:34:40Z</time>
      </trkpt>
      <trkpt lat="47.82453" lon="6.83924">
        <ele>1231.2</ele>
        <time>2021-08-09T15:34:42Z</time>
      </trkpt>
      <trkpt lat="47.82451" lon="6.8392">
        <ele>1231.1</ele>
        <time>2021-08-09T15:34:43Z</time>
      </trkpt>
      <trkpt lat="47.8245" lon="6.83919">
        <ele>1231.1</ele>
        <time>2021-08-09T15:34:44Z</time>
      </trkpt>
      <trkpt lat="47.82448" lon="6.83914">
        <ele>1231</ele>
        <time>2021-08-09T15:34:46Z</time>
      </trkpt>
      <trkpt lat="47.82448" lon="6.83908">
        <ele>1230.8</ele>
        <time>2021-08-09T15:34:47Z</time>
      </trkpt>
      <trkpt lat="47.82448" lon="6.83906">
        <ele>1230.7</ele>
        <time>2021-08-09T15:34:48Z</time>
      </trkpt>
      <trkpt lat="47.82447" lon="6.839">
        <ele>1229.5</ele>
        <time>2021-08-09T15:34:50Z</time>
      </trkpt>
      <trkpt lat="47.82447" lon="6.83899">
        <ele>1229.4</ele>
        <time>2021-08-09T15:34:51Z</time>
      </trkpt>
      <trkpt lat="47.82447" lon="6.83896">
        <ele>1229.2</ele>
        <time>2021-08-09T15:34:52Z</time>
      </trkpt>
      <trkpt lat="47.82446" lon="6.83895">
        <ele>1229</ele>
        <time>2021-08-09T15:34:53Z</time>
      </trkpt>
      <trkpt lat="47.82445" lon="6.83894">
        <ele>1228.8</ele>
        <time>2021-08-09T15:34:54Z</time>
      </trkpt>
      <trkpt lat="47.82443" lon="6.83893">
        <ele>1228.5</ele>
        <time>2021-08-09T15:34:55Z</time>
      </trkpt>
      <trkpt lat="47.82441" lon="6.83893">
        <ele>1228.2</ele>
        <time>2021-08-09T15:34:56Z</time>
      </trkpt>
      <trkpt lat="47.82439" lon="6.83893">
        <ele>1227.9</ele>
        <time>2021-08-09T15:34:58Z</time>
      </trkpt>
      <trkpt lat="47.82435" lon="6.83892">
        <ele>1227.4</ele>
        <time>2021-08-09T15:34:59Z</time>
      </trkpt>
      <trkpt lat="47.82433" lon="6.83889">
        <ele>1226.9</ele>
        <time>2021-08-09T15:35:00Z</time>
      </trkpt>
      <trkpt lat="47.82426" lon="6.83885">
        <ele>1225.8</ele>
        <time>2021-08-09T15:35:02Z</time>
      </trkpt>
      <trkpt lat="47.82419" lon="6.83882">
        <ele>1224.7</ele>
        <time>2021-08-09T15:35:03Z</time>
      </trkpt>
      <trkpt lat="47.82409" lon="6.83877">
        <ele>1223</ele>
        <time>2021-08-09T15:35:05Z</time>
      </trkpt>
      <trkpt lat="47.82404" lon="6.83875">
        <ele>1222.2</ele>
        <time>2021-08-09T15:35:06Z</time>
      </trkpt>
      <trkpt lat="47.82394" lon="6.83872">
        <ele>1220.7</ele>
        <time>2021-08-09T15:35:08Z</time>
      </trkpt>
      <trkpt lat="47.82385" lon="6.83868">
        <ele>1219.3</ele>
        <time>2021-08-09T15:35:10Z</time>
      </trkpt>
      <trkpt lat="47.8238" lon="6.83863">
        <ele>1218.2</ele>
        <time>2021-08-09T15:35:12Z</time>
      </trkpt>
      <trkpt lat="47.82376" lon="6.83862">
        <ele>1217.5</ele>
        <time>2021-08-09T15:35:13Z</time>
      </trkpt>
      <trkpt lat="47.82371" lon="6.83861">
        <ele>1216.8</ele>
        <time>2021-08-09T15:35:14Z</time>
      </trkpt>
      <trkpt lat="47.82367" lon="6.83858">
        <ele>1216</ele>
        <time>2021-08-09T15:35:16Z</time>
      </trkpt>
      <trkpt lat="47.82364" lon="6.83855">
        <ele>1215.5</ele>
        <time>2021-08-09T15:35:17Z</time>
      </trkpt>
      <trkpt lat="47.82361" lon="6.83852">
        <ele>1214.9</ele>
        <time>2021-08-09T15:35:18Z</time>
      </trkpt>
      <trkpt lat="47.82357" lon="6.83848">
        <ele>1214.1</ele>
        <time>2021-08-09T15:35:19Z</time>
      </trkpt>
      <trkpt lat="47.82354" lon="6.83845">
        <ele>1213.5</ele>
        <time>2021-08-09T15:35:20Z</time>
      </trkpt>
      <trkpt lat="47.82349" lon="6.83841">
        <ele>1212.7</ele>
        <time>2021-08-09T15:35:22Z</time>
      </trkpt>
      <trkpt lat="47.82344" lon="6.83836">
        <ele>1211.7</ele>
        <time>2021-08-09T15:35:23Z</time>
      </trkpt>
      <trkpt lat="47.8234" lon="6.83833">
        <ele>1211</ele>
        <time>2021-08-09T15:35:25Z</time>
      </trkpt>
      <trkpt lat="47.82337" lon="6.8383">
        <ele>1210.4</ele>
        <time>2021-08-09T15:35:26Z</time>
      </trkpt>
      <trkpt lat="47.82333" lon="6.83825">
        <ele>1209.7</ele>
        <time>2021-08-09T15:35:27Z</time>
      </trkpt>
      <trkpt lat="47.8233" lon="6.83821">
        <ele>1209.1</ele>
        <time>2021-08-09T15:35:29Z</time>
      </trkpt>
      <trkpt lat="47.82326" lon="6.83818">
        <ele>1208.3</ele>
        <time>2021-08-09T15:35:30Z</time>
      </trkpt>
      <trkpt lat="47.82322" lon="6.83814">
        <ele>1207.6</ele>
        <time>2021-08-09T15:35:31Z</time>
      </trkpt>
      <trkpt lat="47.82315" lon="6.83809">
        <ele>1206.5</ele>
        <time>2021-08-09T15:35:33Z</time>
      </trkpt>
      <trkpt lat="47.82306" lon="6.838">
        <ele>1204.8</ele>
        <time>2021-08-09T15:35:35Z</time>
      </trkpt>
      <trkpt lat="47.82301" lon="6.83795">
        <ele>1203.9</ele>
        <time>2021-08-09T15:35:36Z</time>
      </trkpt>
      <trkpt lat="47.82292" lon="6.83784">
        <ele>1202.4</ele>
        <time>2021-08-09T15:35:38Z</time>
      </trkpt>
      <trkpt lat="47.82286" lon="6.83773">
        <ele>1201</ele>
        <time>2021-08-09T15:35:40Z</time>
      </trkpt>
      <trkpt lat="47.82283" lon="6.83772">
        <ele>1200.4</ele>
        <time>2021-08-09T15:35:41Z</time>
      </trkpt>
      <trkpt lat="47.82281" lon="6.8377">
        <ele>1200.1</ele>
        <time>2021-08-09T15:35:42Z</time>
      </trkpt>
      <trkpt lat="47.82278" lon="6.83763">
        <ele>1199.2</ele>
        <time>2021-08-09T15:35:43Z</time>
      </trkpt>
      <trkpt lat="47.82274" lon="6.83757">
        <ele>1198.4</ele>
        <time>2021-08-09T15:35:44Z</time>
      </trkpt>
      <trkpt lat="47.82269" lon="6.83745">
        <ele>1197</ele>
        <time>2021-08-09T15:35:46Z</time>
      </trkpt>
      <trkpt lat="47.82265" lon="6.83739">
        <ele>1196.3</ele>
        <time>2021-08-09T15:35:47Z</time>
      </trkpt>
      <trkpt lat="47.82262" lon="6.83733">
        <ele>1195.6</ele>
        <time>2021-08-09T15:35:48Z</time>
      </trkpt>
      <trkpt lat="47.82257" lon="6.8373">
        <ele>1194.9</ele>
        <time>2021-08-09T15:35:49Z</time>
      </trkpt>
      <trkpt lat="47.82254" lon="6.83735">
        <ele>1194.4</ele>
        <time>2021-08-09T15:35:51Z</time>
      </trkpt>
      <trkpt lat="47.82251" lon="6.83728">
        <ele>1193.7</ele>
        <time>2021-08-09T15:35:52Z</time>
      </trkpt>
      <trkpt lat="47.8225" lon="6.83722">
        <ele>1193.1</ele>
        <time>2021-08-09T15:35:53Z</time>
      </trkpt>
      <trkpt lat="47.82249" lon="6.83718">
        <ele>1192.7</ele>
        <time>2021-08-09T15:35:54Z</time>
      </trkpt>
      <trkpt lat="47.82247" lon="6.83714">
        <ele>1192.3</ele>
        <time>2021-08-09T15:35:56Z</time>
      </trkpt>
      <trkpt lat="47.82246" lon="6.8371">
        <ele>1191.9</ele>
        <time>2021-08-09T15:35:57Z</time>
      </trkpt>
      <trkpt lat="47.82243" lon="6.83705">
        <ele>1191.2</ele>
        <time>2021-08-09T15:35:58Z</time>
      </trkpt>
      <trkpt lat="47.82242" lon="6.83702">
        <ele>1190.9</ele>
        <time>2021-08-09T15:35:59Z</time>
      </trkpt>
      <trkpt lat="47.8224" lon="6.83698">
        <ele>1190.4</ele>
        <time>2021-08-09T15:36:00Z</time>
      </trkpt>
      <trkpt lat="47.82238" lon="6.83694">
        <ele>1189.9</ele>
        <time>2021-08-09T15:36:02Z</time>
      </trkpt>
      <trkpt lat="47.82236" lon="6.8369">
        <ele>1189.5</ele>
        <time>2021-08-09T15:36:03Z</time>
      </trkpt>
      <trkpt lat="47.82234" lon="6.83688">
        <ele>1189.1</ele>
        <time>2021-08-09T15:36:04Z</time>
      </trkpt>
      <trkpt lat="47.82232" lon="6.83686">
        <ele>1188.7</ele>
        <time>2021-08-09T15:36:06Z</time>
      </trkpt>
      <trkpt lat="47.82229" lon="6.83681">
        <ele>1188.1</ele>
        <time>2021-08-09T15:36:08Z</time>
      </trkpt>
      <trkpt lat="47.82228" lon="6.83679">
        <ele>1187.9</ele>
        <time>2021-08-09T15:36:09Z</time>
      </trkpt>
      <trkpt lat="47.82227" lon="6.83678">
        <ele>1187.7</ele>
        <time>2021-08-09T15:36:10Z</time>
      </trkpt>
      <trkpt lat="47.82226" lon="6.83676">
        <ele>1187.4</ele>
        <time>2021-08-09T15:36:12Z</time>
      </trkpt>
      <trkpt lat="47.82225" lon="6.83674">
        <ele>1187.2</ele>
        <time>2021-08-09T15:36:13Z</time>
      </trkpt>
      <trkpt lat="47.82224" lon="6.8367">
        <ele>1186.8</ele>
        <time>2021-08-09T15:36:14Z</time>
      </trkpt>
      <trkpt lat="47.82224" lon="6.83668">
        <ele>1186.7</ele>
        <time>2021-08-09T15:36:15Z</time>
      </trkpt>
      <trkpt lat="47.82222" lon="6.83664">
        <ele>1186.2</ele>
        <time>2021-08-09T15:36:17Z</time>
      </trkpt>
      <trkpt lat="47.82221" lon="6.83659">
        <ele>1185.7</ele>
        <time>2021-08-09T15:36:18Z</time>
      </trkpt>
      <trkpt lat="47.82219" lon="6.83655">
        <ele>1185.2</ele>
        <time>2021-08-09T15:36:20Z</time>
      </trkpt>
      <trkpt lat="47.82218" lon="6.83653">
        <ele>1185</ele>
        <time>2021-08-09T15:36:21Z</time>
      </trkpt>
      <trkpt lat="47.82217" lon="6.83652">
        <ele>1184.8</ele>
        <time>2021-08-09T15:36:22Z</time>
      </trkpt>
      <trkpt lat="47.82216" lon="6.8365">
        <ele>1184.6</ele>
        <time>2021-08-09T15:36:23Z</time>
      </trkpt>
      <trkpt lat="47.82215" lon="6.83648">
        <ele>1184.4</ele>
        <time>2021-08-09T15:36:24Z</time>
      </trkpt>
      <trkpt lat="47.82214" lon="6.83647">
        <ele>1184.3</ele>
        <time>2021-08-09T15:36:26Z</time>
      </trkpt>
      <trkpt lat="47.82214" lon="6.83646">
        <ele>1184.2</ele>
        <time>2021-08-09T15:36:28Z</time>
      </trkpt>
      <trkpt lat="47.82213" lon="6.83645">
        <ele>1184</ele>
        <time>2021-08-09T15:36:29Z</time>
      </trkpt>
      <trkpt lat="47.82213" lon="6.83644">
        <ele>1183.9</ele>
        <time>2021-08-09T15:36:31Z</time>
      </trkpt>
      <trkpt lat="47.82212" lon="6.83642">
        <ele>1183.8</ele>
        <time>2021-08-09T15:36:32Z</time>
      </trkpt>
      <trkpt lat="47.82212" lon="6.83641">
        <ele>1183.7</ele>
        <time>2021-08-09T15:36:34Z</time>
      </trkpt>
      <trkpt lat="47.82211" lon="6.8364">
        <ele>1183.6</ele>
        <time>2021-08-09T15:36:35Z</time>
      </trkpt>
      <trkpt lat="47.82206" lon="6.83628">
        <ele>1182.4</ele>
        <time>2021-08-09T15:36:36Z</time>
      </trkpt>
      <trkpt lat="47.82197" lon="6.83608">
        <ele>1180.6</ele>
        <time>2021-08-09T15:36:38Z</time>
      </trkpt>
      <trkpt lat="47.82188" lon="6.83593">
        <ele>1179.1</ele>
        <time>2021-08-09T15:36:40Z</time>
      </trkpt>
      <trkpt lat="47.82177" lon="6.83578">
        <ele>1177.5</ele>
        <time>2021-08-09T15:36:42Z</time>
      </trkpt>
      <trkpt lat="47.82165" lon="6.83563">
        <ele>1176</ele>
        <time>2021-08-09T15:36:44Z</time>
      </trkpt>
      <trkpt lat="47.82152" lon="6.83548">
        <ele>1174.8</ele>
        <time>2021-08-09T15:36:46Z</time>
      </trkpt>
      <trkpt lat="47.82146" lon="6.83542">
        <ele>1174.3</ele>
        <time>2021-08-09T15:36:47Z</time>
      </trkpt>
      <trkpt lat="47.8214" lon="6.83538">
        <ele>1173.8</ele>
        <time>2021-08-09T15:36:48Z</time>
      </trkpt>
      <trkpt lat="47.82127" lon="6.83531">
        <ele>1173.1</ele>
        <time>2021-08-09T15:36:50Z</time>
      </trkpt>
      <trkpt lat="47.82114" lon="6.83526">
        <ele>1172.4</ele>
        <time>2021-08-09T15:36:52Z</time>
      </trkpt>
      <trkpt lat="47.82108" lon="6.83523">
        <ele>1172.1</ele>
        <time>2021-08-09T15:36:53Z</time>
      </trkpt>
      <trkpt lat="47.82103" lon="6.83521">
        <ele>1171.8</ele>
        <time>2021-08-09T15:36:54Z</time>
      </trkpt>
      <trkpt lat="47.82095" lon="6.83516">
        <ele>1171.4</ele>
        <time>2021-08-09T15:36:56Z</time>
      </trkpt>
      <trkpt lat="47.82092" lon="6.83514">
        <ele>1171.2</ele>
        <time>2021-08-09T15:36:57Z</time>
      </trkpt>
      <trkpt lat="47.82087" lon="6.83512">
        <ele>1170.9</ele>
        <time>2021-08-09T15:36:58Z</time>
      </trkpt>
      <trkpt lat="47.82084" lon="6.83512">
        <ele>1170.7</ele>
        <time>2021-08-09T15:36:59Z</time>
      </trkpt>
      <trkpt lat="47.82078" lon="6.83511">
        <ele>1170.3</ele>
        <time>2021-08-09T15:37:01Z</time>
      </trkpt>
      <trkpt lat="47.82074" lon="6.83508">
        <ele>1170.1</ele>
        <time>2021-08-09T15:37:02Z</time>
      </trkpt>
      <trkpt lat="47.82072" lon="6.83507">
        <ele>1169.9</ele>
        <time>2021-08-09T15:37:03Z</time>
      </trkpt>
      <trkpt lat="47.82068" lon="6.83505">
        <ele>1169.7</ele>
        <time>2021-08-09T15:37:04Z</time>
      </trkpt>
      <trkpt lat="47.82065" lon="6.83503">
        <ele>1169.5</ele>
        <time>2021-08-09T15:37:05Z</time>
      </trkpt>
      <trkpt lat="47.82061" lon="6.83501">
        <ele>1169.3</ele>
        <time>2021-08-09T15:37:07Z</time>
      </trkpt>
      <trkpt lat="47.82057" lon="6.835">
        <ele>1169.1</ele>
        <time>2021-08-09T15:37:08Z</time>
      </trkpt>
      <trkpt lat="47.82053" lon="6.83497">
        <ele>1168.8</ele>
        <time>2021-08-09T15:37:09Z</time>
      </trkpt>
      <trkpt lat="47.82049" lon="6.83494">
        <ele>1168.6</ele>
        <time>2021-08-09T15:37:11Z</time>
      </trkpt>
      <trkpt lat="47.82046" lon="6.83491">
        <ele>1166.7</ele>
        <time>2021-08-09T15:37:12Z</time>
      </trkpt>
      <trkpt lat="47.82043" lon="6.83489">
        <ele>1164.7</ele>
        <time>2021-08-09T15:37:14Z</time>
      </trkpt>
      <trkpt lat="47.82042" lon="6.83488">
        <ele>1164.2</ele>
        <time>2021-08-09T15:37:15Z</time>
      </trkpt>
      <trkpt lat="47.82041" lon="6.83487">
        <ele>1163.3</ele>
        <time>2021-08-09T15:37:17Z</time>
      </trkpt>
      <trkpt lat="47.82041" lon="6.83486">
        <ele>1163.1</ele>
        <time>2021-08-09T15:37:18Z</time>
      </trkpt>
      <trkpt lat="47.82041" lon="6.83486">
        <ele>1162.9</ele>
        <time>2021-08-09T15:37:19Z</time>
      </trkpt>
      <trkpt lat="47.82041" lon="6.83486">
        <ele>1162.8</ele>
        <time>2021-08-09T15:37:20Z</time>
      </trkpt>
      <trkpt lat="47.82041" lon="6.83486">
        <ele>1162.7</ele>
        <time>2021-08-09T15:37:22Z</time>
      </trkpt>
      <trkpt lat="47.82041" lon="6.83486">
        <ele>1162.7</ele>
        <time>2021-08-09T15:37:23Z</time>
      </trkpt>
      <trkpt lat="47.8204" lon="6.83486">
        <ele>1162.6</ele>
        <time>2021-08-09T15:37:24Z</time>
      </trkpt>
      <trkpt lat="47.8204" lon="6.83486">
        <ele>1162.5</ele>
        <time>2021-08-09T15:37:26Z</time>
      </trkpt>
      <trkpt lat="47.82038" lon="6.83478">
        <ele>1161.6</ele>
        <time>2021-08-09T15:37:44Z</time>
      </trkpt>
      <trkpt lat="47.82035" lon="6.83474">
        <ele>1161.8</ele>
        <time>2021-08-09T15:37:46Z</time>
      </trkpt>
      <trkpt lat="47.82033" lon="6.83472">
        <ele>1161.8</ele>
        <time>2021-08-09T15:37:47Z</time>
      </trkpt>
      <trkpt lat="47.82029" lon="6.83468">
        <ele>1161.8</ele>
        <time>2021-08-09T15:37:49Z</time>
      </trkpt>
      <trkpt lat="47.82028" lon="6.83464">
        <ele>1161.8</ele>
        <time>2021-08-09T15:37:50Z</time>
      </trkpt>
      <trkpt lat="47.82027" lon="6.83459">
        <ele>1161.8</ele>
        <time>2021-08-09T15:37:51Z</time>
      </trkpt>
      <trkpt lat="47.82028" lon="6.83455">
        <ele>1161.8</ele>
        <time>2021-08-09T15:37:52Z</time>
      </trkpt>
      <trkpt lat="47.82031" lon="6.8345">
        <ele>1161.8</ele>
        <time>2021-08-09T15:37:53Z</time>
      </trkpt>
      <trkpt lat="47.82034" lon="6.83447">
        <ele>1161.9</ele>
        <time>2021-08-09T15:37:55Z</time>
      </trkpt>
      <trkpt lat="47.82038" lon="6.83446">
        <ele>1161.9</ele>
        <time>2021-08-09T15:37:56Z</time>
      </trkpt>
      <trkpt lat="47.82041" lon="6.83446">
        <ele>1161.9</ele>
        <time>2021-08-09T15:37:58Z</time>
      </trkpt>
      <trkpt lat="47.82042" lon="6.83446">
        <ele>1161.9</ele>
        <time>2021-08-09T15:37:59Z</time>
      </trkpt>
      <trkpt lat="47.82043" lon="6.83446">
        <ele>1161.9</ele>
        <time>2021-08-09T15:38:00Z</time>
      </trkpt>
      <trkpt lat="47.82044" lon="6.83448">
        <ele>1161.9</ele>
        <time>2021-08-09T15:38:02Z</time>
      </trkpt>
      <trkpt lat="47.82044" lon="6.83449">
        <ele>1161.9</ele>
        <time>2021-08-09T15:38:03Z</time>
      </trkpt>
      <trkpt lat="47.82044" lon="6.83449">
        <ele>1161.9</ele>
        <time>2021-08-09T15:38:04Z</time>
      </trkpt>
      <trkpt lat="47.82044" lon="6.83449">
        <ele>1161.9</ele>
        <time>2021-08-09T15:38:06Z</time>
      </trkpt>
      <trkpt lat="47.82044" lon="6.83449">
        <ele>1161.9</ele>
        <time>2021-08-09T15:38:07Z</time>
      </trkpt>
      <trkpt lat="47.82044" lon="6.8345">
        <ele>1161.9</ele>
        <time>2021-08-09T15:38:09Z</time>
      </trkpt>
      <trkpt lat="47.82043" lon="6.8345">
        <ele>1161.9</ele>
        <time>2021-08-09T15:38:11Z</time>
      </trkpt>
      <trkpt lat="47.82053" lon="6.83433">
        <ele>1161.9</ele>
        <time>2021-08-09T15:46:38Z</time>
      </trkpt>
      <trkpt lat="47.82046" lon="6.83431">
        <ele>1161.9</ele>
        <time>2021-08-09T15:46:40Z</time>
      </trkpt>
      <trkpt lat="47.82037" lon="6.83428">
        <ele>1161.9</ele>
        <time>2021-08-09T15:46:41Z</time>
      </trkpt>
      <trkpt lat="47.82031" lon="6.83428">
        <ele>1162.3</ele>
        <time>2021-08-09T15:46:42Z</time>
      </trkpt>
      <trkpt lat="47.82021" lon="6.83425">
        <ele>1163.7</ele>
        <time>2021-08-09T15:46:44Z</time>
      </trkpt>
      <trkpt lat="47.82015" lon="6.83425">
        <ele>1164.3</ele>
        <time>2021-08-09T15:46:45Z</time>
      </trkpt>
      <trkpt lat="47.8201" lon="6.83427">
        <ele>1164.4</ele>
        <time>2021-08-09T15:46:46Z</time>
      </trkpt>
      <trkpt lat="47.82006" lon="6.8343">
        <ele>1164.5</ele>
        <time>2021-08-09T15:46:47Z</time>
      </trkpt>
      <trkpt lat="47.82004" lon="6.83434">
        <ele>1164.5</ele>
        <time>2021-08-09T15:46:48Z</time>
      </trkpt>
      <trkpt lat="47.82001" lon="6.83436">
        <ele>1164.6</ele>
        <time>2021-08-09T15:46:49Z</time>
      </trkpt>
      <trkpt lat="47.81999" lon="6.83437">
        <ele>1164.6</ele>
        <time>2021-08-09T15:46:50Z</time>
      </trkpt>
      <trkpt lat="47.81995" lon="6.83434">
        <ele>1164.7</ele>
        <time>2021-08-09T15:46:52Z</time>
      </trkpt>
      <trkpt lat="47.81992" lon="6.83433">
        <ele>1164.7</ele>
        <time>2021-08-09T15:46:53Z</time>
      </trkpt>
      <trkpt lat="47.81989" lon="6.83431">
        <ele>1164.8</ele>
        <time>2021-08-09T15:46:54Z</time>
      </trkpt>
      <trkpt lat="47.81984" lon="6.83428">
        <ele>1164.8</ele>
        <time>2021-08-09T15:46:56Z</time>
      </trkpt>
      <trkpt lat="47.81978" lon="6.83428">
        <ele>1164.9</ele>
        <time>2021-08-09T15:46:58Z</time>
      </trkpt>
      <trkpt lat="47.81975" lon="6.83428">
        <ele>1164.9</ele>
        <time>2021-08-09T15:46:59Z</time>
      </trkpt>
      <trkpt lat="47.81972" lon="6.83425">
        <ele>1164.8</ele>
        <time>2021-08-09T15:47:00Z</time>
      </trkpt>
      <trkpt lat="47.81972" lon="6.83424">
        <ele>1164.8</ele>
        <time>2021-08-09T15:47:01Z</time>
      </trkpt>
      <trkpt lat="47.81971" lon="6.83423">
        <ele>1164.8</ele>
        <time>2021-08-09T15:47:03Z</time>
      </trkpt>
      <trkpt lat="47.81971" lon="6.83422">
        <ele>1164.8</ele>
        <time>2021-08-09T15:47:05Z</time>
      </trkpt>
      <trkpt lat="47.81971" lon="6.83422">
        <ele>1164.8</ele>
        <time>2021-08-09T15:47:07Z</time>
      </trkpt>
      <trkpt lat="47.81971" lon="6.83422">
        <ele>1164.8</ele>
        <time>2021-08-09T15:47:09Z</time>
      </trkpt>
      <trkpt lat="47.81971" lon="6.83422">
        <ele>1164.8</ele>
        <time>2021-08-09T15:47:10Z</time>
      </trkpt>
      <trkpt lat="47.81971" lon="6.83422">
        <ele>1164.8</ele>
        <time>2021-08-09T15:47:11Z</time>
      </trkpt>
      <trkpt lat="47.81953" lon="6.83422">
        <ele>1164.6</ele>
        <time>2021-08-09T15:49:34Z</time>
      </trkpt>
      <trkpt lat="47.81948" lon="6.83424">
        <ele>1164.5</ele>
        <time>2021-08-09T15:49:36Z</time>
      </trkpt>
      <trkpt lat="47.81944" lon="6.83425">
        <ele>1164.4</ele>
        <time>2021-08-09T15:49:37Z</time>
      </trkpt>
      <trkpt lat="47.81941" lon="6.83425">
        <ele>1164.3</ele>
        <time>2021-08-09T15:49:38Z</time>
      </trkpt>
      <trkpt lat="47.81937" lon="6.83426">
        <ele>1164.2</ele>
        <time>2021-08-09T15:49:40Z</time>
      </trkpt>
      <trkpt lat="47.81934" lon="6.83427">
        <ele>1164.1</ele>
        <time>2021-08-09T15:49:41Z</time>
      </trkpt>
      <trkpt lat="47.81931" lon="6.83429">
        <ele>1164</ele>
        <time>2021-08-09T15:49:42Z</time>
      </trkpt>
      <trkpt lat="47.81927" lon="6.83429">
        <ele>1163.8</ele>
        <time>2021-08-09T15:49:43Z</time>
      </trkpt>
      <trkpt lat="47.81924" lon="6.83429">
        <ele>1163.7</ele>
        <time>2021-08-09T15:49:45Z</time>
      </trkpt>
      <trkpt lat="47.8192" lon="6.83429">
        <ele>1163.6</ele>
        <time>2021-08-09T15:49:46Z</time>
      </trkpt>
      <trkpt lat="47.81915" lon="6.83428">
        <ele>1163.3</ele>
        <time>2021-08-09T15:49:47Z</time>
      </trkpt>
      <trkpt lat="47.81911" lon="6.83428">
        <ele>1163.1</ele>
        <time>2021-08-09T15:49:48Z</time>
      </trkpt>
      <trkpt lat="47.81905" lon="6.83426">
        <ele>1162.7</ele>
        <time>2021-08-09T15:49:49Z</time>
      </trkpt>
      <trkpt lat="47.81899" lon="6.83426">
        <ele>1162.3</ele>
        <time>2021-08-09T15:49:51Z</time>
      </trkpt>
      <trkpt lat="47.81896" lon="6.83427">
        <ele>1162</ele>
        <time>2021-08-09T15:49:52Z</time>
      </trkpt>
      <trkpt lat="47.81892" lon="6.83423">
        <ele>1161.6</ele>
        <time>2021-08-09T15:49:53Z</time>
      </trkpt>
      <trkpt lat="47.81888" lon="6.83419">
        <ele>1161.3</ele>
        <time>2021-08-09T15:49:54Z</time>
      </trkpt>
      <trkpt lat="47.81884" lon="6.83415">
        <ele>1160.9</ele>
        <time>2021-08-09T15:49:56Z</time>
      </trkpt>
      <trkpt lat="47.81874" lon="6.83409">
        <ele>1160.1</ele>
        <time>2021-08-09T15:49:57Z</time>
      </trkpt>
      <trkpt lat="47.8187" lon="6.83406">
        <ele>1159.7</ele>
        <time>2021-08-09T15:49:58Z</time>
      </trkpt>
      <trkpt lat="47.81862" lon="6.83395">
        <ele>1158.9</ele>
        <time>2021-08-09T15:50:00Z</time>
      </trkpt>
      <trkpt lat="47.81857" lon="6.83383">
        <ele>1158</ele>
        <time>2021-08-09T15:50:02Z</time>
      </trkpt>
      <trkpt lat="47.81855" lon="6.83375">
        <ele>1157.6</ele>
        <time>2021-08-09T15:50:03Z</time>
      </trkpt>
      <trkpt lat="47.81853" lon="6.83358">
        <ele>1156.8</ele>
        <time>2021-08-09T15:50:05Z</time>
      </trkpt>
      <trkpt lat="47.8185" lon="6.8335">
        <ele>1156.4</ele>
        <time>2021-08-09T15:50:06Z</time>
      </trkpt>
      <trkpt lat="47.81847" lon="6.83341">
        <ele>1156.1</ele>
        <time>2021-08-09T15:50:07Z</time>
      </trkpt>
      <trkpt lat="47.81841" lon="6.83327">
        <ele>1155.7</ele>
        <time>2021-08-09T15:50:09Z</time>
      </trkpt>
      <trkpt lat="47.81837" lon="6.8332">
        <ele>1155.5</ele>
        <time>2021-08-09T15:50:10Z</time>
      </trkpt>
      <trkpt lat="47.81834" lon="6.83313">
        <ele>1155.4</ele>
        <time>2021-08-09T15:50:11Z</time>
      </trkpt>
      <trkpt lat="47.81831" lon="6.83308">
        <ele>1155.2</ele>
        <time>2021-08-09T15:50:12Z</time>
      </trkpt>
      <trkpt lat="47.81824" lon="6.83296">
        <ele>1154.9</ele>
        <time>2021-08-09T15:50:14Z</time>
      </trkpt>
      <trkpt lat="47.81821" lon="6.83292">
        <ele>1154.7</ele>
        <time>2021-08-09T15:50:15Z</time>
      </trkpt>
      <trkpt lat="47.8182" lon="6.83291">
        <ele>1154.7</ele>
        <time>2021-08-09T15:50:16Z</time>
      </trkpt>
      <trkpt lat="47.81814" lon="6.83289">
        <ele>1154.4</ele>
        <time>2021-08-09T15:50:18Z</time>
      </trkpt>
      <trkpt lat="47.81812" lon="6.83287">
        <ele>1154.2</ele>
        <time>2021-08-09T15:50:19Z</time>
      </trkpt>
      <trkpt lat="47.81806" lon="6.83279">
        <ele>1153.7</ele>
        <time>2021-08-09T15:50:21Z</time>
      </trkpt>
      <trkpt lat="47.818" lon="6.83275">
        <ele>1153.4</ele>
        <time>2021-08-09T15:50:23Z</time>
      </trkpt>
      <trkpt lat="47.81798" lon="6.83269">
        <ele>1153.3</ele>
        <time>2021-08-09T15:50:24Z</time>
      </trkpt>
      <trkpt lat="47.81795" lon="6.83262">
        <ele>1152.8</ele>
        <time>2021-08-09T15:50:25Z</time>
      </trkpt>
      <trkpt lat="47.81792" lon="6.83256">
        <ele>1152.4</ele>
        <time>2021-08-09T15:50:26Z</time>
      </trkpt>
      <trkpt lat="47.81791" lon="6.83246">
        <ele>1151.8</ele>
        <time>2021-08-09T15:50:28Z</time>
      </trkpt>
      <trkpt lat="47.81791" lon="6.8324">
        <ele>1151.4</ele>
        <time>2021-08-09T15:50:29Z</time>
      </trkpt>
      <trkpt lat="47.81789" lon="6.83234">
        <ele>1150.8</ele>
        <time>2021-08-09T15:50:31Z</time>
      </trkpt>
      <trkpt lat="47.81787" lon="6.83231">
        <ele>1150.4</ele>
        <time>2021-08-09T15:50:32Z</time>
      </trkpt>
      <trkpt lat="47.81785" lon="6.83227">
        <ele>1149.9</ele>
        <time>2021-08-09T15:50:33Z</time>
      </trkpt>
      <trkpt lat="47.81783" lon="6.83223">
        <ele>1149.3</ele>
        <time>2021-08-09T15:50:34Z</time>
      </trkpt>
      <trkpt lat="47.81781" lon="6.83219">
        <ele>1148.8</ele>
        <time>2021-08-09T15:50:35Z</time>
      </trkpt>
      <trkpt lat="47.81777" lon="6.83213">
        <ele>1148</ele>
        <time>2021-08-09T15:50:37Z</time>
      </trkpt>
      <trkpt lat="47.81773" lon="6.83206">
        <ele>1147.1</ele>
        <time>2021-08-09T15:50:38Z</time>
      </trkpt>
      <trkpt lat="47.81767" lon="6.83196">
        <ele>1145.9</ele>
        <time>2021-08-09T15:50:39Z</time>
      </trkpt>
      <trkpt lat="47.81761" lon="6.83181">
        <ele>1144.6</ele>
        <time>2021-08-09T15:50:41Z</time>
      </trkpt>
      <trkpt lat="47.81754" lon="6.83171">
        <ele>1143.5</ele>
        <time>2021-08-09T15:50:43Z</time>
      </trkpt>
      <trkpt lat="47.81754" lon="6.83165">
        <ele>1142.9</ele>
        <time>2021-08-09T15:50:45Z</time>
      </trkpt>
      <trkpt lat="47.81753" lon="6.83163">
        <ele>1142.7</ele>
        <time>2021-08-09T15:50:46Z</time>
      </trkpt>
      <trkpt lat="47.81752" lon="6.83159">
        <ele>1142.3</ele>
        <time>2021-08-09T15:50:48Z</time>
      </trkpt>
      <trkpt lat="47.81752" lon="6.83158">
        <ele>1142.2</ele>
        <time>2021-08-09T15:50:49Z</time>
      </trkpt>
      <trkpt lat="47.81752" lon="6.83156">
        <ele>1142</ele>
        <time>2021-08-09T15:50:50Z</time>
      </trkpt>
      <trkpt lat="47.81752" lon="6.83156">
        <ele>1142</ele>
        <time>2021-08-09T15:50:52Z</time>
      </trkpt>
      <trkpt lat="47.81752" lon="6.83156">
        <ele>1142</ele>
        <time>2021-08-09T15:50:53Z</time>
      </trkpt>
      <trkpt lat="47.81751" lon="6.83157">
        <ele>1141.9</ele>
        <time>2021-08-09T15:50:55Z</time>
      </trkpt>
      <trkpt lat="47.81751" lon="6.83157">
        <ele>1141.8</ele>
        <time>2021-08-09T15:50:56Z</time>
      </trkpt>
      <trkpt lat="47.8175" lon="6.83157">
        <ele>1141.7</ele>
        <time>2021-08-09T15:50:58Z</time>
      </trkpt>
      <trkpt lat="47.8175" lon="6.83157">
        <ele>1141.7</ele>
        <time>2021-08-09T15:50:59Z</time>
      </trkpt>
      <trkpt lat="47.81741" lon="6.8315">
        <ele>1139.9</ele>
        <time>2021-08-09T15:51:01Z</time>
      </trkpt>
      <trkpt lat="47.81733" lon="6.83143">
        <ele>1138.1</ele>
        <time>2021-08-09T15:51:48Z</time>
      </trkpt>
      <trkpt lat="47.81724" lon="6.83135">
        <ele>1136.2</ele>
        <time>2021-08-09T15:51:49Z</time>
      </trkpt>
      <trkpt lat="47.81722" lon="6.83128">
        <ele>1134.2</ele>
        <time>2021-08-09T15:51:50Z</time>
      </trkpt>
      <trkpt lat="47.81722" lon="6.8312">
        <ele>1133.3</ele>
        <time>2021-08-09T15:51:52Z</time>
      </trkpt>
      <trkpt lat="47.81725" lon="6.83097">
        <ele>1131.1</ele>
        <time>2021-08-09T15:51:53Z</time>
      </trkpt>
      <trkpt lat="47.8173" lon="6.83078">
        <ele>1129.1</ele>
        <time>2021-08-09T15:51:55Z</time>
      </trkpt>
      <trkpt lat="47.81735" lon="6.83064">
        <ele>1127.5</ele>
        <time>2021-08-09T15:51:57Z</time>
      </trkpt>
      <trkpt lat="47.81737" lon="6.83059">
        <ele>1126.8</ele>
        <time>2021-08-09T15:51:58Z</time>
      </trkpt>
      <trkpt lat="47.81739" lon="6.8306">
        <ele>1126.6</ele>
        <time>2021-08-09T15:51:59Z</time>
      </trkpt>
      <trkpt lat="47.81741" lon="6.83058">
        <ele>1126.2</ele>
        <time>2021-08-09T15:52:00Z</time>
      </trkpt>
      <trkpt lat="47.81743" lon="6.83056">
        <ele>1125.7</ele>
        <time>2021-08-09T15:52:01Z</time>
      </trkpt>
      <trkpt lat="47.81747" lon="6.83054">
        <ele>1125.2</ele>
        <time>2021-08-09T15:52:03Z</time>
      </trkpt>
      <trkpt lat="47.81748" lon="6.8305">
        <ele>1125</ele>
        <time>2021-08-09T15:52:04Z</time>
      </trkpt>
      <trkpt lat="47.81749" lon="6.83047">
        <ele>1124.9</ele>
        <time>2021-08-09T15:52:05Z</time>
      </trkpt>
      <trkpt lat="47.8175" lon="6.83039">
        <ele>1123.8</ele>
        <time>2021-08-09T15:52:07Z</time>
      </trkpt>
      <trkpt lat="47.8175" lon="6.83034">
        <ele>1123.1</ele>
        <time>2021-08-09T15:52:08Z</time>
      </trkpt>
      <trkpt lat="47.81748" lon="6.83028">
        <ele>1122.2</ele>
        <time>2021-08-09T15:52:10Z</time>
      </trkpt>
      <trkpt lat="47.81748" lon="6.83025">
        <ele>1121.8</ele>
        <time>2021-08-09T15:52:11Z</time>
      </trkpt>
      <trkpt lat="47.81745" lon="6.8302">
        <ele>1120.9</ele>
        <time>2021-08-09T15:52:13Z</time>
      </trkpt>
      <trkpt lat="47.81742" lon="6.83014">
        <ele>1120</ele>
        <time>2021-08-09T15:52:15Z</time>
      </trkpt>
      <trkpt lat="47.81739" lon="6.83009">
        <ele>1119.3</ele>
        <time>2021-08-09T15:52:16Z</time>
      </trkpt>
      <trkpt lat="47.81736" lon="6.83003">
        <ele>1118</ele>
        <time>2021-08-09T15:52:17Z</time>
      </trkpt>
      <trkpt lat="47.81732" lon="6.82997">
        <ele>1117.2</ele>
        <time>2021-08-09T15:52:18Z</time>
      </trkpt>
      <trkpt lat="47.8173" lon="6.82992">
        <ele>1116.7</ele>
        <time>2021-08-09T15:52:20Z</time>
      </trkpt>
      <trkpt lat="47.81729" lon="6.82986">
        <ele>1116</ele>
        <time>2021-08-09T15:52:21Z</time>
      </trkpt>
      <trkpt lat="47.81728" lon="6.8298">
        <ele>1115.4</ele>
        <time>2021-08-09T15:52:22Z</time>
      </trkpt>
      <trkpt lat="47.81726" lon="6.82972">
        <ele>1114.7</ele>
        <time>2021-08-09T15:52:23Z</time>
      </trkpt>
      <trkpt lat="47.81723" lon="6.82966">
        <ele>1114.2</ele>
        <time>2021-08-09T15:52:24Z</time>
      </trkpt>
      <trkpt lat="47.8172" lon="6.82958">
        <ele>1113.6</ele>
        <time>2021-08-09T15:52:26Z</time>
      </trkpt>
      <trkpt lat="47.81716" lon="6.82952">
        <ele>1113.2</ele>
        <time>2021-08-09T15:52:27Z</time>
      </trkpt>
      <trkpt lat="47.81713" lon="6.82945">
        <ele>1113</ele>
        <time>2021-08-09T15:52:29Z</time>
      </trkpt>
      <trkpt lat="47.81708" lon="6.82941">
        <ele>1112.9</ele>
        <time>2021-08-09T15:52:30Z</time>
      </trkpt>
      <trkpt lat="47.81704" lon="6.82937">
        <ele>1113</ele>
        <time>2021-08-09T15:52:31Z</time>
      </trkpt>
      <trkpt lat="47.81699" lon="6.82931">
        <ele>1113.3</ele>
        <time>2021-08-09T15:52:33Z</time>
      </trkpt>
      <trkpt lat="47.81696" lon="6.82928">
        <ele>1113.6</ele>
        <time>2021-08-09T15:52:34Z</time>
      </trkpt>
      <trkpt lat="47.81692" lon="6.82924">
        <ele>1113.9</ele>
        <time>2021-08-09T15:52:35Z</time>
      </trkpt>
      <trkpt lat="47.81689" lon="6.82922">
        <ele>1114.1</ele>
        <time>2021-08-09T15:52:36Z</time>
      </trkpt>
      <trkpt lat="47.81685" lon="6.82918">
        <ele>1114.3</ele>
        <time>2021-08-09T15:52:38Z</time>
      </trkpt>
      <trkpt lat="47.81684" lon="6.82917">
        <ele>1114.3</ele>
        <time>2021-08-09T15:52:39Z</time>
      </trkpt>
      <trkpt lat="47.81683" lon="6.82916">
        <ele>1114.3</ele>
        <time>2021-08-09T15:52:40Z</time>
      </trkpt>
      <trkpt lat="47.8168" lon="6.82912">
        <ele>1114.3</ele>
        <time>2021-08-09T15:52:41Z</time>
      </trkpt>
      <trkpt lat="47.81679" lon="6.8291">
        <ele>1114.3</ele>
        <time>2021-08-09T15:52:42Z</time>
      </trkpt>
      <trkpt lat="47.81679" lon="6.82906">
        <ele>1114.2</ele>
        <time>2021-08-09T15:52:43Z</time>
      </trkpt>
      <trkpt lat="47.81679" lon="6.82899">
        <ele>1113.9</ele>
        <time>2021-08-09T15:52:44Z</time>
      </trkpt>
      <trkpt lat="47.81678" lon="6.82893">
        <ele>1113.6</ele>
        <time>2021-08-09T15:52:45Z</time>
      </trkpt>
      <trkpt lat="47.81676" lon="6.82887">
        <ele>1113.2</ele>
        <time>2021-08-09T15:52:47Z</time>
      </trkpt>
      <trkpt lat="47.81674" lon="6.82882">
        <ele>1112.8</ele>
        <time>2021-08-09T15:52:48Z</time>
      </trkpt>
      <trkpt lat="47.81673" lon="6.82877">
        <ele>1112.4</ele>
        <time>2021-08-09T15:52:49Z</time>
      </trkpt>
      <trkpt lat="47.81671" lon="6.82871">
        <ele>1111.8</ele>
        <time>2021-08-09T15:52:50Z</time>
      </trkpt>
      <trkpt lat="47.81668" lon="6.82866">
        <ele>1111.2</ele>
        <time>2021-08-09T15:52:51Z</time>
      </trkpt>
      <trkpt lat="47.81664" lon="6.82862">
        <ele>1110.6</ele>
        <time>2021-08-09T15:52:53Z</time>
      </trkpt>
      <trkpt lat="47.81661" lon="6.82859">
        <ele>1110</ele>
        <time>2021-08-09T15:52:54Z</time>
      </trkpt>
      <trkpt lat="47.81655" lon="6.82857">
        <ele>1109.1</ele>
        <time>2021-08-09T15:52:55Z</time>
      </trkpt>
      <trkpt lat="47.81651" lon="6.82855">
        <ele>1108.4</ele>
        <time>2021-08-09T15:52:57Z</time>
      </trkpt>
      <trkpt lat="47.81648" lon="6.82852">
        <ele>1108</ele>
        <time>2021-08-09T15:52:58Z</time>
      </trkpt>
      <trkpt lat="47.81646" lon="6.82845">
        <ele>1107.1</ele>
        <time>2021-08-09T15:52:59Z</time>
      </trkpt>
      <trkpt lat="47.81644" lon="6.82837">
        <ele>1106.3</ele>
        <time>2021-08-09T15:53:01Z</time>
      </trkpt>
      <trkpt lat="47.81641" lon="6.82828">
        <ele>1105.3</ele>
        <time>2021-08-09T15:53:02Z</time>
      </trkpt>
      <trkpt lat="47.81635" lon="6.82813">
        <ele>1103.8</ele>
        <time>2021-08-09T15:53:04Z</time>
      </trkpt>
      <trkpt lat="47.81631" lon="6.82805">
        <ele>1103.1</ele>
        <time>2021-08-09T15:53:05Z</time>
      </trkpt>
      <trkpt lat="47.81625" lon="6.82788">
        <ele>1101.7</ele>
        <time>2021-08-09T15:53:07Z</time>
      </trkpt>
      <trkpt lat="47.81619" lon="6.82771">
        <ele>1100.5</ele>
        <time>2021-08-09T15:53:09Z</time>
      </trkpt>
      <trkpt lat="47.81613" lon="6.82757">
        <ele>1099.6</ele>
        <time>2021-08-09T15:53:11Z</time>
      </trkpt>
      <trkpt lat="47.81609" lon="6.82753">
        <ele>1099.3</ele>
        <time>2021-08-09T15:53:12Z</time>
      </trkpt>
      <trkpt lat="47.81604" lon="6.82747">
        <ele>1098.9</ele>
        <time>2021-08-09T15:53:13Z</time>
      </trkpt>
      <trkpt lat="47.81591" lon="6.8274">
        <ele>1097.8</ele>
        <time>2021-08-09T15:53:15Z</time>
      </trkpt>
      <trkpt lat="47.81585" lon="6.82738">
        <ele>1097.1</ele>
        <time>2021-08-09T15:53:16Z</time>
      </trkpt>
      <trkpt lat="47.81578" lon="6.82736">
        <ele>1096.4</ele>
        <time>2021-08-09T15:53:17Z</time>
      </trkpt>
      <trkpt lat="47.81572" lon="6.82734">
        <ele>1096.1</ele>
        <time>2021-08-09T15:53:18Z</time>
      </trkpt>
      <trkpt lat="47.81565" lon="6.82731">
        <ele>1095.6</ele>
        <time>2021-08-09T15:53:19Z</time>
      </trkpt>
      <trkpt lat="47.81555" lon="6.82723">
        <ele>1095.1</ele>
        <time>2021-08-09T15:53:21Z</time>
      </trkpt>
      <trkpt lat="47.81552" lon="6.82718">
        <ele>1094.9</ele>
        <time>2021-08-09T15:53:22Z</time>
      </trkpt>
      <trkpt lat="47.81549" lon="6.8271">
        <ele>1094.8</ele>
        <time>2021-08-09T15:53:24Z</time>
      </trkpt>
      <trkpt lat="47.81548" lon="6.82706">
        <ele>1094.7</ele>
        <time>2021-08-09T15:53:25Z</time>
      </trkpt>
      <trkpt lat="47.81544" lon="6.82698">
        <ele>1094.7</ele>
        <time>2021-08-09T15:53:27Z</time>
      </trkpt>
      <trkpt lat="47.81542" lon="6.82692">
        <ele>1094.6</ele>
        <time>2021-08-09T15:53:28Z</time>
      </trkpt>
      <trkpt lat="47.81536" lon="6.82678">
        <ele>1094.2</ele>
        <time>2021-08-09T15:53:30Z</time>
      </trkpt>
      <trkpt lat="47.81534" lon="6.82674">
        <ele>1093.9</ele>
        <time>2021-08-09T15:53:31Z</time>
      </trkpt>
      <trkpt lat="47.81532" lon="6.82663">
        <ele>1093.3</ele>
        <time>2021-08-09T15:53:33Z</time>
      </trkpt>
      <trkpt lat="47.81529" lon="6.82641">
        <ele>1091.9</ele>
        <time>2021-08-09T15:53:35Z</time>
      </trkpt>
      <trkpt lat="47.81525" lon="6.8262">
        <ele>1089.9</ele>
        <time>2021-08-09T15:53:37Z</time>
      </trkpt>
      <trkpt lat="47.8152" lon="6.82594">
        <ele>1086.8</ele>
        <time>2021-08-09T15:53:39Z</time>
      </trkpt>
      <trkpt lat="47.81518" lon="6.82581">
        <ele>1085.5</ele>
        <time>2021-08-09T15:53:40Z</time>
      </trkpt>
      <trkpt lat="47.81514" lon="6.82568">
        <ele>1084.1</ele>
        <time>2021-08-09T15:53:41Z</time>
      </trkpt>
      <trkpt lat="47.81505" lon="6.8254">
        <ele>1081.8</ele>
        <time>2021-08-09T15:53:43Z</time>
      </trkpt>
      <trkpt lat="47.81497" lon="6.82515">
        <ele>1080.2</ele>
        <time>2021-08-09T15:53:45Z</time>
      </trkpt>
      <trkpt lat="47.81494" lon="6.82503">
        <ele>1079.7</ele>
        <time>2021-08-09T15:53:46Z</time>
      </trkpt>
      <trkpt lat="47.81492" lon="6.82493">
        <ele>1079.4</ele>
        <time>2021-08-09T15:53:47Z</time>
      </trkpt>
      <trkpt lat="47.81487" lon="6.82477">
        <ele>1079.3</ele>
        <time>2021-08-09T15:53:49Z</time>
      </trkpt>
      <trkpt lat="47.81481" lon="6.82458">
        <ele>1079.6</ele>
        <time>2021-08-09T15:53:51Z</time>
      </trkpt>
      <trkpt lat="47.81477" lon="6.82448">
        <ele>1079.8</ele>
        <time>2021-08-09T15:53:52Z</time>
      </trkpt>
      <trkpt lat="47.81473" lon="6.82439">
        <ele>1079.9</ele>
        <time>2021-08-09T15:53:53Z</time>
      </trkpt>
      <trkpt lat="47.81469" lon="6.82429">
        <ele>1079.8</ele>
        <time>2021-08-09T15:53:54Z</time>
      </trkpt>
      <trkpt lat="47.81465" lon="6.82419">
        <ele>1079.7</ele>
        <time>2021-08-09T15:53:55Z</time>
      </trkpt>
      <trkpt lat="47.81459" lon="6.824">
        <ele>1079.5</ele>
        <time>2021-08-09T15:53:57Z</time>
      </trkpt>
      <trkpt lat="47.81454" lon="6.8238">
        <ele>1080.3</ele>
        <time>2021-08-09T15:53:59Z</time>
      </trkpt>
      <trkpt lat="47.81451" lon="6.82362">
        <ele>1081.6</ele>
        <time>2021-08-09T15:54:01Z</time>
      </trkpt>
      <trkpt lat="47.81448" lon="6.82347">
        <ele>1082.4</ele>
        <time>2021-08-09T15:54:03Z</time>
      </trkpt>
      <trkpt lat="47.81443" lon="6.82331">
        <ele>1082.9</ele>
        <time>2021-08-09T15:54:05Z</time>
      </trkpt>
      <trkpt lat="47.8144" lon="6.82313">
        <ele>1083.6</ele>
        <time>2021-08-09T15:54:07Z</time>
      </trkpt>
      <trkpt lat="47.81439" lon="6.82298">
        <ele>1084.6</ele>
        <time>2021-08-09T15:54:09Z</time>
      </trkpt>
      <trkpt lat="47.81439" lon="6.82288">
        <ele>1085.4</ele>
        <time>2021-08-09T15:54:11Z</time>
      </trkpt>
      <trkpt lat="47.81437" lon="6.82279">
        <ele>1086.2</ele>
        <time>2021-08-09T15:54:13Z</time>
      </trkpt>
      <trkpt lat="47.81436" lon="6.8227">
        <ele>1085.7</ele>
        <time>2021-08-09T15:54:15Z</time>
      </trkpt>
      <trkpt lat="47.81437" lon="6.82264">
        <ele>1085.6</ele>
        <time>2021-08-09T15:54:16Z</time>
      </trkpt>
      <trkpt lat="47.81443" lon="6.82254">
        <ele>1085.3</ele>
        <time>2021-08-09T15:54:18Z</time>
      </trkpt>
      <trkpt lat="47.81446" lon="6.82252">
        <ele>1085.3</ele>
        <time>2021-08-09T15:54:19Z</time>
      </trkpt>
      <trkpt lat="47.81451" lon="6.82245">
        <ele>1085.2</ele>
        <time>2021-08-09T15:54:21Z</time>
      </trkpt>
      <trkpt lat="47.81453" lon="6.82242">
        <ele>1085.2</ele>
        <time>2021-08-09T15:54:22Z</time>
      </trkpt>
      <trkpt lat="47.81456" lon="6.82239">
        <ele>1085.1</ele>
        <time>2021-08-09T15:54:23Z</time>
      </trkpt>
      <trkpt lat="47.8146" lon="6.82239">
        <ele>1085</ele>
        <time>2021-08-09T15:54:25Z</time>
      </trkpt>
      <trkpt lat="47.81461" lon="6.82239">
        <ele>1084.9</ele>
        <time>2021-08-09T15:54:26Z</time>
      </trkpt>
      <trkpt lat="47.81464" lon="6.82239">
        <ele>1084.8</ele>
        <time>2021-08-09T15:54:27Z</time>
      </trkpt>
      <trkpt lat="47.81468" lon="6.82238">
        <ele>1084.6</ele>
        <time>2021-08-09T15:54:28Z</time>
      </trkpt>
      <trkpt lat="47.81469" lon="6.82237">
        <ele>1084.5</ele>
        <time>2021-08-09T15:54:29Z</time>
      </trkpt>
      <trkpt lat="47.81472" lon="6.82235">
        <ele>1084.3</ele>
        <time>2021-08-09T15:54:31Z</time>
      </trkpt>
      <trkpt lat="47.81476" lon="6.82232">
        <ele>1083.9</ele>
        <time>2021-08-09T15:54:32Z</time>
      </trkpt>
      <trkpt lat="47.81481" lon="6.82227">
        <ele>1083.2</ele>
        <time>2021-08-09T15:54:33Z</time>
      </trkpt>
      <trkpt lat="47.81485" lon="6.82223">
        <ele>1082.4</ele>
        <time>2021-08-09T15:54:34Z</time>
      </trkpt>
      <trkpt lat="47.81492" lon="6.82213">
        <ele>1081</ele>
        <time>2021-08-09T15:54:36Z</time>
      </trkpt>
      <trkpt lat="47.81496" lon="6.82206">
        <ele>1080</ele>
        <time>2021-08-09T15:54:37Z</time>
      </trkpt>
      <trkpt lat="47.81501" lon="6.82197">
        <ele>1079.1</ele>
        <time>2021-08-09T15:54:39Z</time>
      </trkpt>
      <trkpt lat="47.81505" lon="6.82189">
        <ele>1078.4</ele>
        <time>2021-08-09T15:54:41Z</time>
      </trkpt>
      <trkpt lat="47.81509" lon="6.8218">
        <ele>1077.9</ele>
        <time>2021-08-09T15:54:43Z</time>
      </trkpt>
      <trkpt lat="47.8151" lon="6.82171">
        <ele>1077.5</ele>
        <time>2021-08-09T15:54:45Z</time>
      </trkpt>
      <trkpt lat="47.81511" lon="6.82168">
        <ele>1077.4</ele>
        <time>2021-08-09T15:54:46Z</time>
      </trkpt>
      <trkpt lat="47.81513" lon="6.82168">
        <ele>1077.4</ele>
        <time>2021-08-09T15:54:47Z</time>
      </trkpt>
      <trkpt lat="47.81514" lon="6.82169">
        <ele>1077.3</ele>
        <time>2021-08-09T15:54:49Z</time>
      </trkpt>
      <trkpt lat="47.81515" lon="6.82169">
        <ele>1077.3</ele>
        <time>2021-08-09T15:54:50Z</time>
      </trkpt>
      <trkpt lat="47.81516" lon="6.82169">
        <ele>1077.3</ele>
        <time>2021-08-09T15:54:51Z</time>
      </trkpt>
      <trkpt lat="47.81519" lon="6.82167">
        <ele>1077.1</ele>
        <time>2021-08-09T15:54:52Z</time>
      </trkpt>
      <trkpt lat="47.81522" lon="6.82164">
        <ele>1077</ele>
        <time>2021-08-09T15:54:53Z</time>
      </trkpt>
      <trkpt lat="47.81524" lon="6.82163">
        <ele>1077</ele>
        <time>2021-08-09T15:54:55Z</time>
      </trkpt>
      <trkpt lat="47.81527" lon="6.8216">
        <ele>1076.9</ele>
        <time>2021-08-09T15:54:56Z</time>
      </trkpt>
      <trkpt lat="47.81531" lon="6.82155">
        <ele>1076.9</ele>
        <time>2021-08-09T15:54:57Z</time>
      </trkpt>
      <trkpt lat="47.81535" lon="6.82151">
        <ele>1076.9</ele>
        <time>2021-08-09T15:54:58Z</time>
      </trkpt>
      <trkpt lat="47.81538" lon="6.82147">
        <ele>1076.8</ele>
        <time>2021-08-09T15:55:00Z</time>
      </trkpt>
      <trkpt lat="47.81541" lon="6.82144">
        <ele>1076.8</ele>
        <time>2021-08-09T15:55:01Z</time>
      </trkpt>
      <trkpt lat="47.81546" lon="6.82139">
        <ele>1076.8</ele>
        <time>2021-08-09T15:55:03Z</time>
      </trkpt>
      <trkpt lat="47.8155" lon="6.82136">
        <ele>1076.8</ele>
        <time>2021-08-09T15:55:04Z</time>
      </trkpt>
      <trkpt lat="47.81552" lon="6.82135">
        <ele>1076.7</ele>
        <time>2021-08-09T15:55:05Z</time>
      </trkpt>
      <trkpt lat="47.81556" lon="6.82132">
        <ele>1076.6</ele>
        <time>2021-08-09T15:55:06Z</time>
      </trkpt>
      <trkpt lat="47.81559" lon="6.8213">
        <ele>1076.5</ele>
        <time>2021-08-09T15:55:07Z</time>
      </trkpt>
      <trkpt lat="47.81561" lon="6.82128">
        <ele>1076.3</ele>
        <time>2021-08-09T15:55:08Z</time>
      </trkpt>
      <trkpt lat="47.81564" lon="6.82124">
        <ele>1076.1</ele>
        <time>2021-08-09T15:55:10Z</time>
      </trkpt>
      <trkpt lat="47.81567" lon="6.82123">
        <ele>1075.9</ele>
        <time>2021-08-09T15:55:11Z</time>
      </trkpt>
      <trkpt lat="47.81569" lon="6.8212">
        <ele>1075.6</ele>
        <time>2021-08-09T15:55:13Z</time>
      </trkpt>
      <trkpt lat="47.8157" lon="6.82119">
        <ele>1075.5</ele>
        <time>2021-08-09T15:55:14Z</time>
      </trkpt>
      <trkpt lat="47.81573" lon="6.82117">
        <ele>1075.2</ele>
        <time>2021-08-09T15:55:16Z</time>
      </trkpt>
      <trkpt lat="47.81575" lon="6.82116">
        <ele>1074.9</ele>
        <time>2021-08-09T15:55:17Z</time>
      </trkpt>
      <trkpt lat="47.8158" lon="6.82109">
        <ele>1074.2</ele>
        <time>2021-08-09T15:55:18Z</time>
      </trkpt>
      <trkpt lat="47.81583" lon="6.82105">
        <ele>1073.8</ele>
        <time>2021-08-09T15:55:20Z</time>
      </trkpt>
      <trkpt lat="47.81585" lon="6.82102">
        <ele>1073.4</ele>
        <time>2021-08-09T15:55:21Z</time>
      </trkpt>
      <trkpt lat="47.81587" lon="6.82096">
        <ele>1072.9</ele>
        <time>2021-08-09T15:55:22Z</time>
      </trkpt>
      <trkpt lat="47.81589" lon="6.8209">
        <ele>1072.5</ele>
        <time>2021-08-09T15:55:24Z</time>
      </trkpt>
      <trkpt lat="47.81591" lon="6.82086">
        <ele>1072.1</ele>
        <time>2021-08-09T15:55:25Z</time>
      </trkpt>
      <trkpt lat="47.81595" lon="6.82082">
        <ele>1071.8</ele>
        <time>2021-08-09T15:55:26Z</time>
      </trkpt>
      <trkpt lat="47.81599" lon="6.82078">
        <ele>1071.5</ele>
        <time>2021-08-09T15:55:27Z</time>
      </trkpt>
      <trkpt lat="47.81601" lon="6.82074">
        <ele>1071.3</ele>
        <time>2021-08-09T15:55:28Z</time>
      </trkpt>
      <trkpt lat="47.81604" lon="6.8207">
        <ele>1071.2</ele>
        <time>2021-08-09T15:55:30Z</time>
      </trkpt>
      <trkpt lat="47.81606" lon="6.82068">
        <ele>1071.1</ele>
        <time>2021-08-09T15:55:31Z</time>
      </trkpt>
      <trkpt lat="47.81611" lon="6.82064">
        <ele>1070.9</ele>
        <time>2021-08-09T15:55:33Z</time>
      </trkpt>
      <trkpt lat="47.81615" lon="6.82063">
        <ele>1070.8</ele>
        <time>2021-08-09T15:55:34Z</time>
      </trkpt>
      <trkpt lat="47.81619" lon="6.82062">
        <ele>1070.6</ele>
        <time>2021-08-09T15:55:35Z</time>
      </trkpt>
      <trkpt lat="47.81624" lon="6.82063">
        <ele>1070.3</ele>
        <time>2021-08-09T15:55:36Z</time>
      </trkpt>
      <trkpt lat="47.81629" lon="6.82065">
        <ele>1070</ele>
        <time>2021-08-09T15:55:38Z</time>
      </trkpt>
      <trkpt lat="47.81631" lon="6.82067">
        <ele>1069.8</ele>
        <time>2021-08-09T15:55:39Z</time>
      </trkpt>
      <trkpt lat="47.81633" lon="6.82069">
        <ele>1069.5</ele>
        <time>2021-08-09T15:55:41Z</time>
      </trkpt>
      <trkpt lat="47.81634" lon="6.82073">
        <ele>1069.3</ele>
        <time>2021-08-09T15:55:42Z</time>
      </trkpt>
      <trkpt lat="47.81635" lon="6.82075">
        <ele>1069</ele>
        <time>2021-08-09T15:55:44Z</time>
      </trkpt>
      <trkpt lat="47.81635" lon="6.82079">
        <ele>1068.7</ele>
        <time>2021-08-09T15:55:45Z</time>
      </trkpt>
      <trkpt lat="47.81636" lon="6.82079">
        <ele>1068.5</ele>
        <time>2021-08-09T15:55:46Z</time>
      </trkpt>
      <trkpt lat="47.81638" lon="6.8208">
        <ele>1068.2</ele>
        <time>2021-08-09T15:55:48Z</time>
      </trkpt>
      <trkpt lat="47.81639" lon="6.8208">
        <ele>1067.9</ele>
        <time>2021-08-09T15:55:49Z</time>
      </trkpt>
      <trkpt lat="47.81641" lon="6.82081">
        <ele>1067.6</ele>
        <time>2021-08-09T15:55:50Z</time>
      </trkpt>
      <trkpt lat="47.81644" lon="6.82082">
        <ele>1066.8</ele>
        <time>2021-08-09T15:55:52Z</time>
      </trkpt>
      <trkpt lat="47.81647" lon="6.82083">
        <ele>1065.9</ele>
        <time>2021-08-09T15:55:53Z</time>
      </trkpt>
      <trkpt lat="47.81654" lon="6.82082">
        <ele>1064.2</ele>
        <time>2021-08-09T15:55:55Z</time>
      </trkpt>
      <trkpt lat="47.81656" lon="6.82082">
        <ele>1063.6</ele>
        <time>2021-08-09T15:55:56Z</time>
      </trkpt>
      <trkpt lat="47.81655" lon="6.8208">
        <ele>1063.1</ele>
        <time>2021-08-09T15:55:58Z</time>
      </trkpt>
      <trkpt lat="47.81655" lon="6.82077">
        <ele>1062.5</ele>
        <time>2021-08-09T15:55:59Z</time>
      </trkpt>
      <trkpt lat="47.81658" lon="6.82077">
        <ele>1061.7</ele>
        <time>2021-08-09T15:56:00Z</time>
      </trkpt>
      <trkpt lat="47.81661" lon="6.82076">
        <ele>1060.8</ele>
        <time>2021-08-09T15:56:01Z</time>
      </trkpt>
      <trkpt lat="47.81664" lon="6.82074">
        <ele>1059.9</ele>
        <time>2021-08-09T15:56:02Z</time>
      </trkpt>
      <trkpt lat="47.81667" lon="6.82072">
        <ele>1059.1</ele>
        <time>2021-08-09T15:56:04Z</time>
      </trkpt>
      <trkpt lat="47.8167" lon="6.8207">
        <ele>1058.2</ele>
        <time>2021-08-09T15:56:05Z</time>
      </trkpt>
      <trkpt lat="47.81674" lon="6.82068">
        <ele>1057</ele>
        <time>2021-08-09T15:56:06Z</time>
      </trkpt>
      <trkpt lat="47.81678" lon="6.82066">
        <ele>1055.8</ele>
        <time>2021-08-09T15:56:08Z</time>
      </trkpt>
      <trkpt lat="47.8168" lon="6.82066">
        <ele>1055.3</ele>
        <time>2021-08-09T15:56:09Z</time>
      </trkpt>
      <trkpt lat="47.81684" lon="6.82065">
        <ele>1054.4</ele>
        <time>2021-08-09T15:56:11Z</time>
      </trkpt>
      <trkpt lat="47.81686" lon="6.82065">
        <ele>1054</ele>
        <time>2021-08-09T15:56:12Z</time>
      </trkpt>
      <trkpt lat="47.81689" lon="6.82065">
        <ele>1053.1</ele>
        <time>2021-08-09T15:56:14Z</time>
      </trkpt>
      <trkpt lat="47.81693" lon="6.82064">
        <ele>1052</ele>
        <time>2021-08-09T15:56:15Z</time>
      </trkpt>
      <trkpt lat="47.81698" lon="6.82063">
        <ele>1050.8</ele>
        <time>2021-08-09T15:56:17Z</time>
      </trkpt>
      <trkpt lat="47.81703" lon="6.82064">
        <ele>1049.3</ele>
        <time>2021-08-09T15:56:19Z</time>
      </trkpt>
      <trkpt lat="47.81706" lon="6.82065">
        <ele>1048.5</ele>
        <time>2021-08-09T15:56:20Z</time>
      </trkpt>
      <trkpt lat="47.81708" lon="6.82065">
        <ele>1048</ele>
        <time>2021-08-09T15:56:21Z</time>
      </trkpt>
      <trkpt lat="47.81709" lon="6.82065">
        <ele>1047.7</ele>
        <time>2021-08-09T15:56:22Z</time>
      </trkpt>
      <trkpt lat="47.81709" lon="6.82064">
        <ele>1047.5</ele>
        <time>2021-08-09T15:56:23Z</time>
      </trkpt>
      <trkpt lat="47.8171" lon="6.82063">
        <ele>1047.3</ele>
        <time>2021-08-09T15:56:25Z</time>
      </trkpt>
      <trkpt lat="47.8171" lon="6.82062">
        <ele>1047</ele>
        <time>2021-08-09T15:56:27Z</time>
      </trkpt>
      <trkpt lat="47.81711" lon="6.82061">
        <ele>1046.8</ele>
        <time>2021-08-09T15:56:29Z</time>
      </trkpt>
      <trkpt lat="47.81711" lon="6.8206">
        <ele>1046.6</ele>
        <time>2021-08-09T15:56:30Z</time>
      </trkpt>
      <trkpt lat="47.81713" lon="6.82059">
        <ele>1046.1</ele>
        <time>2021-08-09T15:56:31Z</time>
      </trkpt>
      <trkpt lat="47.81779" lon="6.81998">
        <ele>1028.2</ele>
        <time>2021-08-09T15:58:40Z</time>
      </trkpt>
      <trkpt lat="47.8178" lon="6.81991">
        <ele>1027</ele>
        <time>2021-08-09T15:58:42Z</time>
      </trkpt>
      <trkpt lat="47.81781" lon="6.81985">
        <ele>1026</ele>
        <time>2021-08-09T15:58:43Z</time>
      </trkpt>
      <trkpt lat="47.81784" lon="6.81977">
        <ele>1024.4</ele>
        <time>2021-08-09T15:58:44Z</time>
      </trkpt>
      <trkpt lat="47.81787" lon="6.81972">
        <ele>1023.2</ele>
        <time>2021-08-09T15:58:45Z</time>
      </trkpt>
      <trkpt lat="47.81792" lon="6.81968">
        <ele>1021.8</ele>
        <time>2021-08-09T15:58:47Z</time>
      </trkpt>
      <trkpt lat="47.81796" lon="6.81965">
        <ele>1020.4</ele>
        <time>2021-08-09T15:58:48Z</time>
      </trkpt>
      <trkpt lat="47.81799" lon="6.81962">
        <ele>1019.4</ele>
        <time>2021-08-09T15:58:49Z</time>
      </trkpt>
      <trkpt lat="47.818" lon="6.81961">
        <ele>1018.9</ele>
        <time>2021-08-09T15:58:50Z</time>
      </trkpt>
      <trkpt lat="47.81804" lon="6.81957">
        <ele>1017.7</ele>
        <time>2021-08-09T15:58:52Z</time>
      </trkpt>
      <trkpt lat="47.81805" lon="6.81956">
        <ele>1017.2</ele>
        <time>2021-08-09T15:58:53Z</time>
      </trkpt>
      <trkpt lat="47.81806" lon="6.81955">
        <ele>1016.8</ele>
        <time>2021-08-09T15:58:54Z</time>
      </trkpt>
      <trkpt lat="47.81808" lon="6.81954">
        <ele>1016.1</ele>
        <time>2021-08-09T15:58:56Z</time>
      </trkpt>
      <trkpt lat="47.8181" lon="6.81953">
        <ele>1015.5</ele>
        <time>2021-08-09T15:58:57Z</time>
      </trkpt>
      <trkpt lat="47.81815" lon="6.81947">
        <ele>1013.7</ele>
        <time>2021-08-09T15:58:59Z</time>
      </trkpt>
      <trkpt lat="47.81816" lon="6.81942">
        <ele>1012.6</ele>
        <time>2021-08-09T15:59:01Z</time>
      </trkpt>
      <trkpt lat="47.81818" lon="6.81935">
        <ele>1011.2</ele>
        <time>2021-08-09T15:59:02Z</time>
      </trkpt>
      <trkpt lat="47.8182" lon="6.81929">
        <ele>1010</ele>
        <time>2021-08-09T15:59:04Z</time>
      </trkpt>
      <trkpt lat="47.81822" lon="6.81919">
        <ele>1008.5</ele>
        <time>2021-08-09T15:59:05Z</time>
      </trkpt>
      <trkpt lat="47.81823" lon="6.81913">
        <ele>1007.5</ele>
        <time>2021-08-09T15:59:06Z</time>
      </trkpt>
      <trkpt lat="47.81823" lon="6.81905">
        <ele>1006.5</ele>
        <time>2021-08-09T15:59:08Z</time>
      </trkpt>
      <trkpt lat="47.81824" lon="6.81899">
        <ele>1005.6</ele>
        <time>2021-08-09T15:59:09Z</time>
      </trkpt>
      <trkpt lat="47.81827" lon="6.81887">
        <ele>1003.4</ele>
        <time>2021-08-09T15:59:11Z</time>
      </trkpt>
      <trkpt lat="47.81829" lon="6.81879">
        <ele>1001.8</ele>
        <time>2021-08-09T15:59:12Z</time>
      </trkpt>
      <trkpt lat="47.8183" lon="6.81874">
        <ele>1000.7</ele>
        <time>2021-08-09T15:59:13Z</time>
      </trkpt>
      <trkpt lat="47.81832" lon="6.81868">
        <ele>999.6</ele>
        <time>2021-08-09T15:59:15Z</time>
      </trkpt>
      <trkpt lat="47.81834" lon="6.81864">
        <ele>998.7</ele>
        <time>2021-08-09T15:59:16Z</time>
      </trkpt>
      <trkpt lat="47.81835" lon="6.81859">
        <ele>997.5</ele>
        <time>2021-08-09T15:59:17Z</time>
      </trkpt>
      <trkpt lat="47.81835" lon="6.81853">
        <ele>996.3</ele>
        <time>2021-08-09T15:59:19Z</time>
      </trkpt>
      <trkpt lat="47.81834" lon="6.81851">
        <ele>995.8</ele>
        <time>2021-08-09T15:59:20Z</time>
      </trkpt>
      <trkpt lat="47.81832" lon="6.81845">
        <ele>994.2</ele>
        <time>2021-08-09T15:59:22Z</time>
      </trkpt>
      <trkpt lat="47.81831" lon="6.81843">
        <ele>993.7</ele>
        <time>2021-08-09T15:59:23Z</time>
      </trkpt>
      <trkpt lat="47.8183" lon="6.81841">
        <ele>993.1</ele>
        <time>2021-08-09T15:59:24Z</time>
      </trkpt>
      <trkpt lat="47.81828" lon="6.8184">
        <ele>992.4</ele>
        <time>2021-08-09T15:59:25Z</time>
      </trkpt>
      <trkpt lat="47.81827" lon="6.81837">
        <ele>991.5</ele>
        <time>2021-08-09T15:59:27Z</time>
      </trkpt>
      <trkpt lat="47.81825" lon="6.81832">
        <ele>990.3</ele>
        <time>2021-08-09T15:59:29Z</time>
      </trkpt>
      <trkpt lat="47.81826" lon="6.81828">
        <ele>989.4</ele>
        <time>2021-08-09T15:59:30Z</time>
      </trkpt>
      <trkpt lat="47.81826" lon="6.81824">
        <ele>988.4</ele>
        <time>2021-08-09T15:59:32Z</time>
      </trkpt>
      <trkpt lat="47.81825" lon="6.81824">
        <ele>988.1</ele>
        <time>2021-08-09T15:59:33Z</time>
      </trkpt>
      <trkpt lat="47.81825" lon="6.81824">
        <ele>988</ele>
        <time>2021-08-09T15:59:34Z</time>
      </trkpt>
      <trkpt lat="47.81825" lon="6.81824">
        <ele>987.9</ele>
        <time>2021-08-09T15:59:35Z</time>
      </trkpt>
      <trkpt lat="47.81824" lon="6.81824">
        <ele>987.8</ele>
        <time>2021-08-09T15:59:37Z</time>
      </trkpt>
      <trkpt lat="47.81824" lon="6.81823">
        <ele>987.4</ele>
        <time>2021-08-09T15:59:38Z</time>
      </trkpt>
      <trkpt lat="47.81823" lon="6.81822">
        <ele>987</ele>
        <time>2021-08-09T15:59:40Z</time>
      </trkpt>
      <trkpt lat="47.81844" lon="6.81767">
        <ele>973</ele>
        <time>2021-08-09T16:00:25Z</time>
      </trkpt>
      <trkpt lat="47.81846" lon="6.81762">
        <ele>971.9</ele>
        <time>2021-08-09T16:00:26Z</time>
      </trkpt>
      <trkpt lat="47.81849" lon="6.81757">
        <ele>970.5</ele>
        <time>2021-08-09T16:00:27Z</time>
      </trkpt>
      <trkpt lat="47.81851" lon="6.81755">
        <ele>969.9</ele>
        <time>2021-08-09T16:00:28Z</time>
      </trkpt>
      <trkpt lat="47.81853" lon="6.81749">
        <ele>968.7</ele>
        <time>2021-08-09T16:00:30Z</time>
      </trkpt>
      <trkpt lat="47.81854" lon="6.81748">
        <ele>968.4</ele>
        <time>2021-08-09T16:00:31Z</time>
      </trkpt>
      <trkpt lat="47.81855" lon="6.81747">
        <ele>968.1</ele>
        <time>2021-08-09T16:00:32Z</time>
      </trkpt>
      <trkpt lat="47.81857" lon="6.81746">
        <ele>967.7</ele>
        <time>2021-08-09T16:00:34Z</time>
      </trkpt>
      <trkpt lat="47.81857" lon="6.81746">
        <ele>967.5</ele>
        <time>2021-08-09T16:00:35Z</time>
      </trkpt>
      <trkpt lat="47.81858" lon="6.81746">
        <ele>967.5</ele>
        <time>2021-08-09T16:00:37Z</time>
      </trkpt>
      <trkpt lat="47.81858" lon="6.81745">
        <ele>967.3</ele>
        <time>2021-08-09T16:00:38Z</time>
      </trkpt>
      <trkpt lat="47.81858" lon="6.81744">
        <ele>967.1</ele>
        <time>2021-08-09T16:00:39Z</time>
      </trkpt>
      <trkpt lat="47.81859" lon="6.81742">
        <ele>966.9</ele>
        <time>2021-08-09T16:00:40Z</time>
      </trkpt>
      <trkpt lat="47.8186" lon="6.81739">
        <ele>966.2</ele>
        <time>2021-08-09T16:00:42Z</time>
      </trkpt>
      <trkpt lat="47.8186" lon="6.81733">
        <ele>965.3</ele>
        <time>2021-08-09T16:00:44Z</time>
      </trkpt>
      <trkpt lat="47.8186" lon="6.81731">
        <ele>964.5</ele>
        <time>2021-08-09T16:00:45Z</time>
      </trkpt>
      <trkpt lat="47.8186" lon="6.81728">
        <ele>964.3</ele>
        <time>2021-08-09T16:00:47Z</time>
      </trkpt>
      <trkpt lat="47.81859" lon="6.81726">
        <ele>964.1</ele>
        <time>2021-08-09T16:00:49Z</time>
      </trkpt>
      <trkpt lat="47.81859" lon="6.81725">
        <ele>964</ele>
        <time>2021-08-09T16:00:50Z</time>
      </trkpt>
      <trkpt lat="47.81859" lon="6.81725">
        <ele>964</ele>
        <time>2021-08-09T16:00:52Z</time>
      </trkpt>
      <trkpt lat="47.81858" lon="6.81724">
        <ele>963.9</ele>
        <time>2021-08-09T16:00:54Z</time>
      </trkpt>
      <trkpt lat="47.81858" lon="6.81724">
        <ele>963.9</ele>
        <time>2021-08-09T16:00:55Z</time>
      </trkpt>
      <trkpt lat="47.81864" lon="6.81707">
        <ele>961.9</ele>
        <time>2021-08-09T16:01:35Z</time>
      </trkpt>
      <trkpt lat="47.81865" lon="6.81705">
        <ele>961.9</ele>
        <time>2021-08-09T16:01:36Z</time>
      </trkpt>
      <trkpt lat="47.81867" lon="6.81703">
        <ele>961.8</ele>
        <time>2021-08-09T16:01:38Z</time>
      </trkpt>
      <trkpt lat="47.81868" lon="6.81704">
        <ele>961.8</ele>
        <time>2021-08-09T16:01:40Z</time>
      </trkpt>
      <trkpt lat="47.81868" lon="6.81704">
        <ele>961.8</ele>
        <time>2021-08-09T16:01:41Z</time>
      </trkpt>
      <trkpt lat="47.81869" lon="6.81704">
        <ele>961.8</ele>
        <time>2021-08-09T16:01:43Z</time>
      </trkpt>
      <trkpt lat="47.81869" lon="6.81704">
        <ele>961.8</ele>
        <time>2021-08-09T16:01:45Z</time>
      </trkpt>
      <trkpt lat="47.81869" lon="6.81704">
        <ele>961.7</ele>
        <time>2021-08-09T16:01:47Z</time>
      </trkpt>
      <trkpt lat="47.81876" lon="6.81693">
        <ele>961.5</ele>
        <time>2021-08-09T16:01:57Z</time>
      </trkpt>
      <trkpt lat="47.81879" lon="6.81691">
        <ele>961.4</ele>
        <time>2021-08-09T16:01:58Z</time>
      </trkpt>
      <trkpt lat="47.81882" lon="6.81689">
        <ele>961.3</ele>
        <time>2021-08-09T16:01:59Z</time>
      </trkpt>
      <trkpt lat="47.81886" lon="6.81686">
        <ele>961.2</ele>
        <time>2021-08-09T16:02:00Z</time>
      </trkpt>
      <trkpt lat="47.81891" lon="6.81684">
        <ele>961</ele>
        <time>2021-08-09T16:02:02Z</time>
      </trkpt>
      <trkpt lat="47.81892" lon="6.81685">
        <ele>961</ele>
        <time>2021-08-09T16:02:03Z</time>
      </trkpt>
      <trkpt lat="47.81892" lon="6.81686">
        <ele>961</ele>
        <time>2021-08-09T16:02:04Z</time>
      </trkpt>
      <trkpt lat="47.81891" lon="6.81689">
        <ele>960.9</ele>
        <time>2021-08-09T16:02:06Z</time>
      </trkpt>
      <trkpt lat="47.8189" lon="6.81689">
        <ele>960.9</ele>
        <time>2021-08-09T16:02:08Z</time>
      </trkpt>
      <trkpt lat="47.8189" lon="6.8169">
        <ele>960.9</ele>
        <time>2021-08-09T16:02:10Z</time>
      </trkpt>
      <trkpt lat="47.8189" lon="6.8169">
        <ele>960.9</ele>
        <time>2021-08-09T16:02:11Z</time>
      </trkpt>
      <trkpt lat="47.8189" lon="6.8169">
        <ele>960.9</ele>
        <time>2021-08-09T16:02:13Z</time>
      </trkpt>
      <trkpt lat="47.81867" lon="6.81681">
        <ele>960.3</ele>
        <time>2021-08-09T16:03:23Z</time>
      </trkpt>
      <trkpt lat="47.8187" lon="6.81677">
        <ele>960.1</ele>
        <time>2021-08-09T16:03:25Z</time>
      </trkpt>
      <trkpt lat="47.81871" lon="6.81676">
        <ele>960.2</ele>
        <time>2021-08-09T16:03:27Z</time>
      </trkpt>
      <trkpt lat="47.81872" lon="6.81676">
        <ele>960.2</ele>
        <time>2021-08-09T16:03:29Z</time>
      </trkpt>
      <trkpt lat="47.81872" lon="6.81676">
        <ele>960.2</ele>
        <time>2021-08-09T16:03:31Z</time>
      </trkpt>
      <trkpt lat="47.81872" lon="6.81677">
        <ele>960.2</ele>
        <time>2021-08-09T16:03:33Z</time>
      </trkpt>
      <trkpt lat="47.81872" lon="6.81677">
        <ele>960.2</ele>
        <time>2021-08-09T16:03:34Z</time>
      </trkpt>
      <trkpt lat="47.81873" lon="6.8169">
        <ele>960.8</ele>
        <time>2021-08-09T16:03:36Z</time>
      </trkpt>
      <trkpt lat="47.81869" lon="6.81703">
        <ele>961.6</ele>
        <time>2021-08-09T16:05:18Z</time>
      </trkpt>
      <trkpt lat="47.8187" lon="6.81703">
        <ele>961.6</ele>
        <time>2021-08-09T16:05:19Z</time>
      </trkpt>
      <trkpt lat="47.8187" lon="6.81704">
        <ele>961.7</ele>
        <time>2021-08-09T16:05:20Z</time>
      </trkpt>
      <trkpt lat="47.81871" lon="6.81705">
        <ele>961.8</ele>
        <time>2021-08-09T16:05:22Z</time>
      </trkpt>
      <trkpt lat="47.81871" lon="6.81706">
        <ele>961.8</ele>
        <time>2021-08-09T16:05:24Z</time>
      </trkpt>
      <trkpt lat="47.81871" lon="6.81706">
        <ele>961.8</ele>
        <time>2021-08-09T16:05:25Z</time>
      </trkpt>
      <trkpt lat="47.81871" lon="6.81706">
        <ele>961.8</ele>
        <time>2021-08-09T16:05:27Z</time>
      </trkpt>
      <trkpt lat="47.8187" lon="6.81709">
        <ele>962</ele>
        <time>2021-08-09T16:05:29Z</time>
      </trkpt>
      <trkpt lat="47.81839" lon="6.81734">
        <ele>963.7</ele>
        <time>2021-08-09T16:07:16Z</time>
      </trkpt>
      <trkpt lat="47.81838" lon="6.81735">
        <ele>963.8</ele>
        <time>2021-08-09T16:07:18Z</time>
      </trkpt>
      <trkpt lat="47.81838" lon="6.81735">
        <ele>963.8</ele>
        <time>2021-08-09T16:07:19Z</time>
      </trkpt>
      <trkpt lat="47.81838" lon="6.81735">
        <ele>963.8</ele>
        <time>2021-08-09T16:07:20Z</time>
      </trkpt>
      <trkpt lat="47.81837" lon="6.81734">
        <ele>963.9</ele>
        <time>2021-08-09T16:07:22Z</time>
      </trkpt>
      <trkpt lat="47.81834" lon="6.81734">
        <ele>964.2</ele>
        <time>2021-08-09T16:07:24Z</time>
      </trkpt>
      <trkpt lat="47.81831" lon="6.81733">
        <ele>964.3</ele>
        <time>2021-08-09T16:07:25Z</time>
      </trkpt>
      <trkpt lat="47.8183" lon="6.81732">
        <ele>964.5</ele>
        <time>2021-08-09T16:07:27Z</time>
      </trkpt>
      <trkpt lat="47.81829" lon="6.81731">
        <ele>964.6</ele>
        <time>2021-08-09T16:07:29Z</time>
      </trkpt>
      <trkpt lat="47.81827" lon="6.8173">
        <ele>964.7</ele>
        <time>2021-08-09T16:07:31Z</time>
      </trkpt>
      <trkpt lat="47.81826" lon="6.81729">
        <ele>964.8</ele>
        <time>2021-08-09T16:07:33Z</time>
      </trkpt>
      <trkpt lat="47.81824" lon="6.81728">
        <ele>964.9</ele>
        <time>2021-08-09T16:07:34Z</time>
      </trkpt>
      <trkpt lat="47.81823" lon="6.81726">
        <ele>965</ele>
        <time>2021-08-09T16:07:35Z</time>
      </trkpt>
      <trkpt lat="47.81819" lon="6.81724">
        <ele>965.3</ele>
        <time>2021-08-09T16:07:37Z</time>
      </trkpt>
      <trkpt lat="47.81818" lon="6.81723">
        <ele>965.4</ele>
        <time>2021-08-09T16:07:38Z</time>
      </trkpt>
      <trkpt lat="47.81817" lon="6.81723">
        <ele>965.5</ele>
        <time>2021-08-09T16:07:39Z</time>
      </trkpt>
      <trkpt lat="47.81816" lon="6.81723">
        <ele>965.6</ele>
        <time>2021-08-09T16:07:41Z</time>
      </trkpt>
      <trkpt lat="47.81815" lon="6.81723">
        <ele>965.6</ele>
        <time>2021-08-09T16:07:42Z</time>
      </trkpt>
      <trkpt lat="47.81815" lon="6.81723">
        <ele>965.7</ele>
        <time>2021-08-09T16:07:43Z</time>
      </trkpt>
      <trkpt lat="47.81814" lon="6.81723">
        <ele>965.7</ele>
        <time>2021-08-09T16:07:45Z</time>
      </trkpt>
      <trkpt lat="47.81814" lon="6.81721">
        <ele>965.8</ele>
        <time>2021-08-09T16:07:47Z</time>
      </trkpt>
      <trkpt lat="47.81814" lon="6.8172">
        <ele>965.9</ele>
        <time>2021-08-09T16:07:48Z</time>
      </trkpt>
      <trkpt lat="47.81805" lon="6.81717">
        <ele>966.5</ele>
        <time>2021-08-09T16:07:53Z</time>
      </trkpt>
      <trkpt lat="47.81803" lon="6.81716">
        <ele>966.7</ele>
        <time>2021-08-09T16:07:54Z</time>
      </trkpt>
      <trkpt lat="47.818" lon="6.81716">
        <ele>966.9</ele>
        <time>2021-08-09T16:07:56Z</time>
      </trkpt>
      <trkpt lat="47.81796" lon="6.81714">
        <ele>967.2</ele>
        <time>2021-08-09T16:07:57Z</time>
      </trkpt>
      <trkpt lat="47.81793" lon="6.81713">
        <ele>967.4</ele>
        <time>2021-08-09T16:07:58Z</time>
      </trkpt>
      <trkpt lat="47.81789" lon="6.81711">
        <ele>967.7</ele>
        <time>2021-08-09T16:07:59Z</time>
      </trkpt>
      <trkpt lat="47.81785" lon="6.81711">
        <ele>968</ele>
        <time>2021-08-09T16:08:00Z</time>
      </trkpt>
      <trkpt lat="47.81781" lon="6.81711">
        <ele>968.3</ele>
        <time>2021-08-09T16:08:02Z</time>
      </trkpt>
      <trkpt lat="47.8178" lon="6.81711">
        <ele>968.4</ele>
        <time>2021-08-09T16:08:03Z</time>
      </trkpt>
      <trkpt lat="47.81778" lon="6.8171">
        <ele>968.5</ele>
        <time>2021-08-09T16:08:04Z</time>
      </trkpt>
      <trkpt lat="47.81775" lon="6.81708">
        <ele>968.7</ele>
        <time>2021-08-09T16:08:05Z</time>
      </trkpt>
      <trkpt lat="47.81774" lon="6.81707">
        <ele>968.8</ele>
        <time>2021-08-09T16:08:06Z</time>
      </trkpt>
      <trkpt lat="47.81771" lon="6.81704">
        <ele>969.1</ele>
        <time>2021-08-09T16:08:08Z</time>
      </trkpt>
      <trkpt lat="47.81771" lon="6.81704">
        <ele>969.2</ele>
        <time>2021-08-09T16:08:09Z</time>
      </trkpt>
      <trkpt lat="47.81769" lon="6.81703">
        <ele>969.3</ele>
        <time>2021-08-09T16:08:10Z</time>
      </trkpt>
      <trkpt lat="47.81767" lon="6.81705">
        <ele>969.4</ele>
        <time>2021-08-09T16:08:11Z</time>
      </trkpt>
      <trkpt lat="47.81766" lon="6.81708">
        <ele>969.6</ele>
        <time>2021-08-09T16:08:12Z</time>
      </trkpt>
      <trkpt lat="47.81764" lon="6.81712">
        <ele>969.9</ele>
        <time>2021-08-09T16:08:13Z</time>
      </trkpt>
      <trkpt lat="47.81763" lon="6.81713">
        <ele>970</ele>
        <time>2021-08-09T16:08:14Z</time>
      </trkpt>
      <trkpt lat="47.81763" lon="6.81715">
        <ele>970.1</ele>
        <time>2021-08-09T16:08:16Z</time>
      </trkpt>
      <trkpt lat="47.81761" lon="6.81717">
        <ele>970.2</ele>
        <time>2021-08-09T16:08:18Z</time>
      </trkpt>
      <trkpt lat="47.81757" lon="6.81718">
        <ele>970.6</ele>
        <time>2021-08-09T16:08:20Z</time>
      </trkpt>
      <trkpt lat="47.81756" lon="6.81718">
        <ele>970.7</ele>
        <time>2021-08-09T16:08:21Z</time>
      </trkpt>
      <trkpt lat="47.81754" lon="6.81718">
        <ele>970.8</ele>
        <time>2021-08-09T16:08:22Z</time>
      </trkpt>
      <trkpt lat="47.81752" lon="6.81718">
        <ele>970.9</ele>
        <time>2021-08-09T16:08:23Z</time>
      </trkpt>
      <trkpt lat="47.81751" lon="6.81718">
        <ele>971</ele>
        <time>2021-08-09T16:08:25Z</time>
      </trkpt>
      <trkpt lat="47.81748" lon="6.81716">
        <ele>971.3</ele>
        <time>2021-08-09T16:08:26Z</time>
      </trkpt>
      <trkpt lat="47.81747" lon="6.81715">
        <ele>971.3</ele>
        <time>2021-08-09T16:08:27Z</time>
      </trkpt>
      <trkpt lat="47.81745" lon="6.81714">
        <ele>971.5</ele>
        <time>2021-08-09T16:08:28Z</time>
      </trkpt>
      <trkpt lat="47.81744" lon="6.81713">
        <ele>971.6</ele>
        <time>2021-08-09T16:08:30Z</time>
      </trkpt>
      <trkpt lat="47.81742" lon="6.81712">
        <ele>971.7</ele>
        <time>2021-08-09T16:08:31Z</time>
      </trkpt>
      <trkpt lat="47.8174" lon="6.81711">
        <ele>971.8</ele>
        <time>2021-08-09T16:08:33Z</time>
      </trkpt>
      <trkpt lat="47.81739" lon="6.8171">
        <ele>971.9</ele>
        <time>2021-08-09T16:08:34Z</time>
      </trkpt>
      <trkpt lat="47.81735" lon="6.81708">
        <ele>972.2</ele>
        <time>2021-08-09T16:08:36Z</time>
      </trkpt>
      <trkpt lat="47.81734" lon="6.81707">
        <ele>972.3</ele>
        <time>2021-08-09T16:08:37Z</time>
      </trkpt>
      <trkpt lat="47.81731" lon="6.81702">
        <ele>972.6</ele>
        <time>2021-08-09T16:08:39Z</time>
      </trkpt>
      <trkpt lat="47.81729" lon="6.817">
        <ele>972.7</ele>
        <time>2021-08-09T16:08:41Z</time>
      </trkpt>
      <trkpt lat="47.81727" lon="6.81698">
        <ele>972.9</ele>
        <time>2021-08-09T16:08:43Z</time>
      </trkpt>
      <trkpt lat="47.81727" lon="6.81695">
        <ele>973</ele>
        <time>2021-08-09T16:08:44Z</time>
      </trkpt>
      <trkpt lat="47.81726" lon="6.81694">
        <ele>973.1</ele>
        <time>2021-08-09T16:08:46Z</time>
      </trkpt>
      <trkpt lat="47.81725" lon="6.81692">
        <ele>973.1</ele>
        <time>2021-08-09T16:08:47Z</time>
      </trkpt>
      <trkpt lat="47.81722" lon="6.81689">
        <ele>973.4</ele>
        <time>2021-08-09T16:08:48Z</time>
      </trkpt>
      <trkpt lat="47.81721" lon="6.81689">
        <ele>973.4</ele>
        <time>2021-08-09T16:08:50Z</time>
      </trkpt>
      <trkpt lat="47.81721" lon="6.81688">
        <ele>973.4</ele>
        <time>2021-08-09T16:08:51Z</time>
      </trkpt>
      <trkpt lat="47.8172" lon="6.81688">
        <ele>973.5</ele>
        <time>2021-08-09T16:08:52Z</time>
      </trkpt>
      <trkpt lat="47.81716" lon="6.81683">
        <ele>973.9</ele>
        <time>2021-08-09T16:08:54Z</time>
      </trkpt>
      <trkpt lat="47.81715" lon="6.81683">
        <ele>973.9</ele>
        <time>2021-08-09T16:08:55Z</time>
      </trkpt>
      <trkpt lat="47.81714" lon="6.81683">
        <ele>974</ele>
        <time>2021-08-09T16:08:56Z</time>
      </trkpt>
      <trkpt lat="47.81711" lon="6.81681">
        <ele>974.2</ele>
        <time>2021-08-09T16:08:58Z</time>
      </trkpt>
      <trkpt lat="47.81708" lon="6.81678">
        <ele>974.4</ele>
        <time>2021-08-09T16:08:59Z</time>
      </trkpt>
      <trkpt lat="47.81708" lon="6.81677">
        <ele>974.5</ele>
        <time>2021-08-09T16:09:01Z</time>
      </trkpt>
      <trkpt lat="47.81706" lon="6.81674">
        <ele>974.7</ele>
        <time>2021-08-09T16:09:03Z</time>
      </trkpt>
      <trkpt lat="47.81704" lon="6.81675">
        <ele>974.8</ele>
        <time>2021-08-09T16:09:05Z</time>
      </trkpt>
      <trkpt lat="47.81704" lon="6.81676">
        <ele>974.8</ele>
        <time>2021-08-09T16:09:06Z</time>
      </trkpt>
      <trkpt lat="47.81703" lon="6.81676">
        <ele>974.9</ele>
        <time>2021-08-09T16:09:07Z</time>
      </trkpt>
      <trkpt lat="47.817" lon="6.81675">
        <ele>975.2</ele>
        <time>2021-08-09T16:09:08Z</time>
      </trkpt>
      <trkpt lat="47.81697" lon="6.81675">
        <ele>975.4</ele>
        <time>2021-08-09T16:09:10Z</time>
      </trkpt>
      <trkpt lat="47.81693" lon="6.81675">
        <ele>975.7</ele>
        <time>2021-08-09T16:09:11Z</time>
      </trkpt>
      <trkpt lat="47.8169" lon="6.81674">
        <ele>975.9</ele>
        <time>2021-08-09T16:09:13Z</time>
      </trkpt>
      <trkpt lat="47.8169" lon="6.81674">
        <ele>976</ele>
        <time>2021-08-09T16:09:14Z</time>
      </trkpt>
      <trkpt lat="47.81686" lon="6.81674">
        <ele>976.3</ele>
        <time>2021-08-09T16:09:16Z</time>
      </trkpt>
      <trkpt lat="47.81686" lon="6.81674">
        <ele>976.3</ele>
        <time>2021-08-09T16:09:17Z</time>
      </trkpt>
      <trkpt lat="47.81684" lon="6.81677">
        <ele>976.6</ele>
        <time>2021-08-09T16:09:18Z</time>
      </trkpt>
      <trkpt lat="47.81682" lon="6.81679">
        <ele>976.7</ele>
        <time>2021-08-09T16:09:19Z</time>
      </trkpt>
      <trkpt lat="47.81681" lon="6.81681">
        <ele>976.8</ele>
        <time>2021-08-09T16:09:21Z</time>
      </trkpt>
      <trkpt lat="47.8168" lon="6.81681">
        <ele>976.9</ele>
        <time>2021-08-09T16:09:22Z</time>
      </trkpt>
      <trkpt lat="47.81678" lon="6.81683">
        <ele>977.1</ele>
        <time>2021-08-09T16:09:23Z</time>
      </trkpt>
      <trkpt lat="47.81678" lon="6.81685">
        <ele>977.2</ele>
        <time>2021-08-09T16:09:24Z</time>
      </trkpt>
      <trkpt lat="47.81677" lon="6.81687">
        <ele>977.3</ele>
        <time>2021-08-09T16:09:25Z</time>
      </trkpt>
      <trkpt lat="47.81676" lon="6.81688">
        <ele>977.4</ele>
        <time>2021-08-09T16:09:27Z</time>
      </trkpt>
      <trkpt lat="47.81676" lon="6.81688">
        <ele>977.4</ele>
        <time>2021-08-09T16:09:28Z</time>
      </trkpt>
      <trkpt lat="47.81674" lon="6.81689">
        <ele>977.5</ele>
        <time>2021-08-09T16:09:29Z</time>
      </trkpt>
      <trkpt lat="47.81672" lon="6.81689">
        <ele>977.6</ele>
        <time>2021-08-09T16:09:31Z</time>
      </trkpt>
      <trkpt lat="47.81671" lon="6.81688">
        <ele>977.7</ele>
        <time>2021-08-09T16:09:32Z</time>
      </trkpt>
      <trkpt lat="47.81667" lon="6.81689">
        <ele>977.9</ele>
        <time>2021-08-09T16:09:34Z</time>
      </trkpt>
      <trkpt lat="47.81667" lon="6.81689">
        <ele>978</ele>
        <time>2021-08-09T16:09:35Z</time>
      </trkpt>
      <trkpt lat="47.81664" lon="6.8169">
        <ele>978.2</ele>
        <time>2021-08-09T16:09:36Z</time>
      </trkpt>
      <trkpt lat="47.81661" lon="6.81689">
        <ele>978.4</ele>
        <time>2021-08-09T16:09:38Z</time>
      </trkpt>
      <trkpt lat="47.8166" lon="6.81688">
        <ele>978.5</ele>
        <time>2021-08-09T16:09:39Z</time>
      </trkpt>
      <trkpt lat="47.81657" lon="6.81686">
        <ele>978.6</ele>
        <time>2021-08-09T16:09:40Z</time>
      </trkpt>
      <trkpt lat="47.81655" lon="6.81684">
        <ele>978.8</ele>
        <time>2021-08-09T16:09:41Z</time>
      </trkpt>
      <trkpt lat="47.81653" lon="6.81683">
        <ele>978.9</ele>
        <time>2021-08-09T16:09:43Z</time>
      </trkpt>
      <trkpt lat="47.8165" lon="6.81682">
        <ele>979.1</ele>
        <time>2021-08-09T16:09:44Z</time>
      </trkpt>
      <trkpt lat="47.81647" lon="6.8168">
        <ele>979.3</ele>
        <time>2021-08-09T16:09:46Z</time>
      </trkpt>
      <trkpt lat="47.81646" lon="6.81679">
        <ele>979.3</ele>
        <time>2021-08-09T16:09:47Z</time>
      </trkpt>
      <trkpt lat="47.81643" lon="6.81679">
        <ele>979.5</ele>
        <time>2021-08-09T16:09:49Z</time>
      </trkpt>
      <trkpt lat="47.8164" lon="6.81678">
        <ele>979.7</ele>
        <time>2021-08-09T16:09:50Z</time>
      </trkpt>
      <trkpt lat="47.81636" lon="6.81677">
        <ele>979.8</ele>
        <time>2021-08-09T16:09:51Z</time>
      </trkpt>
      <trkpt lat="47.81633" lon="6.81676">
        <ele>980</ele>
        <time>2021-08-09T16:09:53Z</time>
      </trkpt>
      <trkpt lat="47.8163" lon="6.81675">
        <ele>980.2</ele>
        <time>2021-08-09T16:09:54Z</time>
      </trkpt>
      <trkpt lat="47.81626" lon="6.81676">
        <ele>980.3</ele>
        <time>2021-08-09T16:09:56Z</time>
      </trkpt>
      <trkpt lat="47.81622" lon="6.81678">
        <ele>980.5</ele>
        <time>2021-08-09T16:09:57Z</time>
      </trkpt>
      <trkpt lat="47.81619" lon="6.81678">
        <ele>980.7</ele>
        <time>2021-08-09T16:09:59Z</time>
      </trkpt>
      <trkpt lat="47.81615" lon="6.81677">
        <ele>980.8</ele>
        <time>2021-08-09T16:10:00Z</time>
      </trkpt>
      <trkpt lat="47.81613" lon="6.81675">
        <ele>980.9</ele>
        <time>2021-08-09T16:10:01Z</time>
      </trkpt>
      <trkpt lat="47.8161" lon="6.81672">
        <ele>981.1</ele>
        <time>2021-08-09T16:10:03Z</time>
      </trkpt>
      <trkpt lat="47.81607" lon="6.81672">
        <ele>981.2</ele>
        <time>2021-08-09T16:10:04Z</time>
      </trkpt>
      <trkpt lat="47.81605" lon="6.81673">
        <ele>981.3</ele>
        <time>2021-08-09T16:10:05Z</time>
      </trkpt>
      <trkpt lat="47.81603" lon="6.81672">
        <ele>981.3</ele>
        <time>2021-08-09T16:10:07Z</time>
      </trkpt>
      <trkpt lat="47.81601" lon="6.8167">
        <ele>981.5</ele>
        <time>2021-08-09T16:10:08Z</time>
      </trkpt>
      <trkpt lat="47.81597" lon="6.81669">
        <ele>981.6</ele>
        <time>2021-08-09T16:10:10Z</time>
      </trkpt>
      <trkpt lat="47.81595" lon="6.81669">
        <ele>981.7</ele>
        <time>2021-08-09T16:10:11Z</time>
      </trkpt>
      <trkpt lat="47.81593" lon="6.81669">
        <ele>981.7</ele>
        <time>2021-08-09T16:10:12Z</time>
      </trkpt>
      <trkpt lat="47.81591" lon="6.8167">
        <ele>981.8</ele>
        <time>2021-08-09T16:10:13Z</time>
      </trkpt>
      <trkpt lat="47.81588" lon="6.81671">
        <ele>982</ele>
        <time>2021-08-09T16:10:15Z</time>
      </trkpt>
      <trkpt lat="47.81586" lon="6.8167">
        <ele>982</ele>
        <time>2021-08-09T16:10:16Z</time>
      </trkpt>
      <trkpt lat="47.81587" lon="6.81672">
        <ele>982.1</ele>
        <time>2021-08-09T16:10:17Z</time>
      </trkpt>
      <trkpt lat="47.81587" lon="6.81673">
        <ele>982.1</ele>
        <time>2021-08-09T16:10:19Z</time>
      </trkpt>
      <trkpt lat="47.81587" lon="6.81673">
        <ele>982.1</ele>
        <time>2021-08-09T16:10:20Z</time>
      </trkpt>
      <trkpt lat="47.81587" lon="6.81673">
        <ele>982.1</ele>
        <time>2021-08-09T16:10:21Z</time>
      </trkpt>
      <trkpt lat="47.81587" lon="6.81673">
        <ele>982.1</ele>
        <time>2021-08-09T16:10:23Z</time>
      </trkpt>
      <trkpt lat="47.81586" lon="6.81671">
        <ele>982.1</ele>
        <time>2021-08-09T16:10:24Z</time>
      </trkpt>
      <trkpt lat="47.81585" lon="6.8167">
        <ele>982.2</ele>
        <time>2021-08-09T16:10:26Z</time>
      </trkpt>
      <trkpt lat="47.81577" lon="6.81673">
        <ele>982.5</ele>
        <time>2021-08-09T16:10:33Z</time>
      </trkpt>
      <trkpt lat="47.81574" lon="6.81673">
        <ele>982.6</ele>
        <time>2021-08-09T16:10:34Z</time>
      </trkpt>
      <trkpt lat="47.81571" lon="6.81672">
        <ele>982.7</ele>
        <time>2021-08-09T16:10:35Z</time>
      </trkpt>
      <trkpt lat="47.81569" lon="6.81671">
        <ele>982.7</ele>
        <time>2021-08-09T16:10:36Z</time>
      </trkpt>
      <trkpt lat="47.81568" lon="6.81668">
        <ele>982.8</ele>
        <time>2021-08-09T16:10:37Z</time>
      </trkpt>
      <trkpt lat="47.81566" lon="6.81664">
        <ele>982.9</ele>
        <time>2021-08-09T16:10:39Z</time>
      </trkpt>
      <trkpt lat="47.81565" lon="6.81661">
        <ele>983</ele>
        <time>2021-08-09T16:10:40Z</time>
      </trkpt>
      <trkpt lat="47.81565" lon="6.81659">
        <ele>983</ele>
        <time>2021-08-09T16:10:41Z</time>
      </trkpt>
      <trkpt lat="47.81563" lon="6.81657">
        <ele>983.1</ele>
        <time>2021-08-09T16:10:42Z</time>
      </trkpt>
      <trkpt lat="47.81561" lon="6.81657">
        <ele>983.1</ele>
        <time>2021-08-09T16:10:44Z</time>
      </trkpt>
      <trkpt lat="47.81559" lon="6.8166">
        <ele>983.2</ele>
        <time>2021-08-09T16:10:45Z</time>
      </trkpt>
      <trkpt lat="47.81556" lon="6.81663">
        <ele>983.3</ele>
        <time>2021-08-09T16:10:46Z</time>
      </trkpt>
      <trkpt lat="47.81552" lon="6.81665">
        <ele>983.4</ele>
        <time>2021-08-09T16:10:48Z</time>
      </trkpt>
      <trkpt lat="47.81547" lon="6.81668">
        <ele>983.5</ele>
        <time>2021-08-09T16:10:49Z</time>
      </trkpt>
      <trkpt lat="47.81544" lon="6.81668">
        <ele>983.6</ele>
        <time>2021-08-09T16:10:50Z</time>
      </trkpt>
      <trkpt lat="47.81541" lon="6.81668">
        <ele>983.7</ele>
        <time>2021-08-09T16:10:51Z</time>
      </trkpt>
      <trkpt lat="47.81537" lon="6.81667">
        <ele>983.7</ele>
        <time>2021-08-09T16:10:53Z</time>
      </trkpt>
      <trkpt lat="47.81532" lon="6.81667">
        <ele>983.8</ele>
        <time>2021-08-09T16:10:54Z</time>
      </trkpt>
      <trkpt lat="47.81529" lon="6.81667">
        <ele>983.9</ele>
        <time>2021-08-09T16:10:55Z</time>
      </trkpt>
      <trkpt lat="47.81526" lon="6.81667">
        <ele>984</ele>
        <time>2021-08-09T16:10:56Z</time>
      </trkpt>
      <trkpt lat="47.81523" lon="6.81666">
        <ele>984</ele>
        <time>2021-08-09T16:10:58Z</time>
      </trkpt>
      <trkpt lat="47.81518" lon="6.81665">
        <ele>984.1</ele>
        <time>2021-08-09T16:10:59Z</time>
      </trkpt>
      <trkpt lat="47.81515" lon="6.81664">
        <ele>984.1</ele>
        <time>2021-08-09T16:11:00Z</time>
      </trkpt>
      <trkpt lat="47.8151" lon="6.81662">
        <ele>984.2</ele>
        <time>2021-08-09T16:11:02Z</time>
      </trkpt>
      <trkpt lat="47.81508" lon="6.81662">
        <ele>984.2</ele>
        <time>2021-08-09T16:11:03Z</time>
      </trkpt>
      <trkpt lat="47.81505" lon="6.81661">
        <ele>984.2</ele>
        <time>2021-08-09T16:11:04Z</time>
      </trkpt>
      <trkpt lat="47.81503" lon="6.81659">
        <ele>984.2</ele>
        <time>2021-08-09T16:11:06Z</time>
      </trkpt>
      <trkpt lat="47.81498" lon="6.81659">
        <ele>984.2</ele>
        <time>2021-08-09T16:11:07Z</time>
      </trkpt>
      <trkpt lat="47.81494" lon="6.81657">
        <ele>984.2</ele>
        <time>2021-08-09T16:11:09Z</time>
      </trkpt>
      <trkpt lat="47.8149" lon="6.81655">
        <ele>984.2</ele>
        <time>2021-08-09T16:11:10Z</time>
      </trkpt>
      <trkpt lat="47.81484" lon="6.81654">
        <ele>984.2</ele>
        <time>2021-08-09T16:11:12Z</time>
      </trkpt>
      <trkpt lat="47.8148" lon="6.81654">
        <ele>984.1</ele>
        <time>2021-08-09T16:11:13Z</time>
      </trkpt>
      <trkpt lat="47.81478" lon="6.81653">
        <ele>984.1</ele>
        <time>2021-08-09T16:11:14Z</time>
      </trkpt>
      <trkpt lat="47.81475" lon="6.81653">
        <ele>984.1</ele>
        <time>2021-08-09T16:11:15Z</time>
      </trkpt>
      <trkpt lat="47.81471" lon="6.81652">
        <ele>984</ele>
        <time>2021-08-09T16:11:17Z</time>
      </trkpt>
      <trkpt lat="47.81467" lon="6.81652">
        <ele>984</ele>
        <time>2021-08-09T16:11:18Z</time>
      </trkpt>
      <trkpt lat="47.81464" lon="6.8165">
        <ele>983.9</ele>
        <time>2021-08-09T16:11:20Z</time>
      </trkpt>
      <trkpt lat="47.81461" lon="6.81647">
        <ele>983.9</ele>
        <time>2021-08-09T16:11:21Z</time>
      </trkpt>
      <trkpt lat="47.81457" lon="6.81645">
        <ele>983.8</ele>
        <time>2021-08-09T16:11:22Z</time>
      </trkpt>
      <trkpt lat="47.81453" lon="6.81644">
        <ele>983.8</ele>
        <time>2021-08-09T16:11:23Z</time>
      </trkpt>
      <trkpt lat="47.8145" lon="6.81642">
        <ele>983.8</ele>
        <time>2021-08-09T16:11:24Z</time>
      </trkpt>
      <trkpt lat="47.81445" lon="6.8164">
        <ele>983.7</ele>
        <time>2021-08-09T16:11:25Z</time>
      </trkpt>
      <trkpt lat="47.81441" lon="6.81638">
        <ele>983.7</ele>
        <time>2021-08-09T16:11:27Z</time>
      </trkpt>
      <trkpt lat="47.81437" lon="6.81637">
        <ele>983.6</ele>
        <time>2021-08-09T16:11:28Z</time>
      </trkpt>
      <trkpt lat="47.81429" lon="6.81634">
        <ele>983.6</ele>
        <time>2021-08-09T16:11:30Z</time>
      </trkpt>
      <trkpt lat="47.81425" lon="6.81633">
        <ele>983.5</ele>
        <time>2021-08-09T16:11:31Z</time>
      </trkpt>
      <trkpt lat="47.81419" lon="6.81631">
        <ele>983.5</ele>
        <time>2021-08-09T16:11:32Z</time>
      </trkpt>
      <trkpt lat="47.81415" lon="6.81629">
        <ele>983.4</ele>
        <time>2021-08-09T16:11:33Z</time>
      </trkpt>
      <trkpt lat="47.81409" lon="6.81624">
        <ele>983.3</ele>
        <time>2021-08-09T16:11:35Z</time>
      </trkpt>
      <trkpt lat="47.81401" lon="6.81621">
        <ele>983.3</ele>
        <time>2021-08-09T16:11:36Z</time>
      </trkpt>
      <trkpt lat="47.81393" lon="6.81618">
        <ele>983.2</ele>
        <time>2021-08-09T16:11:38Z</time>
      </trkpt>
      <trkpt lat="47.81389" lon="6.81616">
        <ele>983.2</ele>
        <time>2021-08-09T16:11:39Z</time>
      </trkpt>
      <trkpt lat="47.81384" lon="6.81615">
        <ele>983.2</ele>
        <time>2021-08-09T16:11:41Z</time>
      </trkpt>
      <trkpt lat="47.81376" lon="6.81613">
        <ele>983.1</ele>
        <time>2021-08-09T16:11:43Z</time>
      </trkpt>
      <trkpt lat="47.81371" lon="6.81611">
        <ele>983.1</ele>
        <time>2021-08-09T16:11:44Z</time>
      </trkpt>
      <trkpt lat="47.81367" lon="6.81608">
        <ele>983.1</ele>
        <time>2021-08-09T16:11:45Z</time>
      </trkpt>
      <trkpt lat="47.81363" lon="6.81605">
        <ele>983.1</ele>
        <time>2021-08-09T16:11:47Z</time>
      </trkpt>
      <trkpt lat="47.8136" lon="6.81603">
        <ele>983.1</ele>
        <time>2021-08-09T16:11:48Z</time>
      </trkpt>
      <trkpt lat="47.81357" lon="6.816">
        <ele>983.1</ele>
        <time>2021-08-09T16:11:49Z</time>
      </trkpt>
      <trkpt lat="47.8135" lon="6.81593">
        <ele>983.1</ele>
        <time>2021-08-09T16:11:51Z</time>
      </trkpt>
      <trkpt lat="47.81347" lon="6.81592">
        <ele>983.2</ele>
        <time>2021-08-09T16:11:52Z</time>
      </trkpt>
      <trkpt lat="47.81342" lon="6.81586">
        <ele>983.2</ele>
        <time>2021-08-09T16:11:53Z</time>
      </trkpt>
      <trkpt lat="47.81339" lon="6.81584">
        <ele>983.2</ele>
        <time>2021-08-09T16:11:54Z</time>
      </trkpt>
      <trkpt lat="47.81334" lon="6.81583">
        <ele>983.2</ele>
        <time>2021-08-09T16:11:56Z</time>
      </trkpt>
      <trkpt lat="47.81329" lon="6.81581">
        <ele>983.2</ele>
        <time>2021-08-09T16:11:57Z</time>
      </trkpt>
      <trkpt lat="47.81324" lon="6.81578">
        <ele>983.2</ele>
        <time>2021-08-09T16:11:58Z</time>
      </trkpt>
      <trkpt lat="47.81321" lon="6.81575">
        <ele>983.2</ele>
        <time>2021-08-09T16:11:59Z</time>
      </trkpt>
      <trkpt lat="47.81317" lon="6.81571">
        <ele>983.3</ele>
        <time>2021-08-09T16:12:01Z</time>
      </trkpt>
      <trkpt lat="47.81313" lon="6.81565">
        <ele>983.3</ele>
        <time>2021-08-09T16:12:02Z</time>
      </trkpt>
      <trkpt lat="47.81309" lon="6.81561">
        <ele>983.3</ele>
        <time>2021-08-09T16:12:03Z</time>
      </trkpt>
      <trkpt lat="47.81305" lon="6.81557">
        <ele>983.3</ele>
        <time>2021-08-09T16:12:05Z</time>
      </trkpt>
      <trkpt lat="47.81302" lon="6.81552">
        <ele>983.3</ele>
        <time>2021-08-09T16:12:06Z</time>
      </trkpt>
      <trkpt lat="47.81299" lon="6.81548">
        <ele>983.4</ele>
        <time>2021-08-09T16:12:07Z</time>
      </trkpt>
      <trkpt lat="47.81296" lon="6.81544">
        <ele>983.4</ele>
        <time>2021-08-09T16:12:09Z</time>
      </trkpt>
      <trkpt lat="47.81294" lon="6.81541">
        <ele>983.4</ele>
        <time>2021-08-09T16:12:10Z</time>
      </trkpt>
      <trkpt lat="47.81292" lon="6.81538">
        <ele>983.4</ele>
        <time>2021-08-09T16:12:11Z</time>
      </trkpt>
      <trkpt lat="47.81289" lon="6.81534">
        <ele>983.4</ele>
        <time>2021-08-09T16:12:12Z</time>
      </trkpt>
      <trkpt lat="47.81285" lon="6.81529">
        <ele>983.5</ele>
        <time>2021-08-09T16:12:13Z</time>
      </trkpt>
      <trkpt lat="47.81279" lon="6.81521">
        <ele>983.7</ele>
        <time>2021-08-09T16:12:14Z</time>
      </trkpt>
      <trkpt lat="47.81276" lon="6.81516">
        <ele>983.7</ele>
        <time>2021-08-09T16:12:16Z</time>
      </trkpt>
      <trkpt lat="47.81274" lon="6.81512">
        <ele>983.8</ele>
        <time>2021-08-09T16:12:17Z</time>
      </trkpt>
      <trkpt lat="47.8127" lon="6.81508">
        <ele>984</ele>
        <time>2021-08-09T16:12:18Z</time>
      </trkpt>
      <trkpt lat="47.81266" lon="6.81506">
        <ele>984.1</ele>
        <time>2021-08-09T16:12:19Z</time>
      </trkpt>
      <trkpt lat="47.81264" lon="6.81504">
        <ele>984.2</ele>
        <time>2021-08-09T16:12:21Z</time>
      </trkpt>
      <trkpt lat="47.81261" lon="6.81502">
        <ele>984.3</ele>
        <time>2021-08-09T16:12:22Z</time>
      </trkpt>
      <trkpt lat="47.81255" lon="6.81498">
        <ele>984.5</ele>
        <time>2021-08-09T16:12:24Z</time>
      </trkpt>
      <trkpt lat="47.81252" lon="6.81496">
        <ele>984.6</ele>
        <time>2021-08-09T16:12:25Z</time>
      </trkpt>
      <trkpt lat="47.81249" lon="6.81494">
        <ele>984.7</ele>
        <time>2021-08-09T16:12:26Z</time>
      </trkpt>
      <trkpt lat="47.81245" lon="6.81493">
        <ele>984.9</ele>
        <time>2021-08-09T16:12:27Z</time>
      </trkpt>
      <trkpt lat="47.8124" lon="6.8149">
        <ele>985.1</ele>
        <time>2021-08-09T16:12:29Z</time>
      </trkpt>
      <trkpt lat="47.81238" lon="6.81489">
        <ele>985.1</ele>
        <time>2021-08-09T16:12:30Z</time>
      </trkpt>
      <trkpt lat="47.81237" lon="6.81488">
        <ele>985.2</ele>
        <time>2021-08-09T16:12:31Z</time>
      </trkpt>
      <trkpt lat="47.81235" lon="6.81485">
        <ele>985.3</ele>
        <time>2021-08-09T16:12:32Z</time>
      </trkpt>
      <trkpt lat="47.81233" lon="6.81482">
        <ele>985.4</ele>
        <time>2021-08-09T16:12:34Z</time>
      </trkpt>
      <trkpt lat="47.8123" lon="6.81478">
        <ele>985.6</ele>
        <time>2021-08-09T16:12:35Z</time>
      </trkpt>
      <trkpt lat="47.81227" lon="6.81475">
        <ele>985.7</ele>
        <time>2021-08-09T16:12:37Z</time>
      </trkpt>
      <trkpt lat="47.81223" lon="6.81473">
        <ele>985.8</ele>
        <time>2021-08-09T16:12:38Z</time>
      </trkpt>
      <trkpt lat="47.8122" lon="6.81469">
        <ele>985.9</ele>
        <time>2021-08-09T16:12:40Z</time>
      </trkpt>
      <trkpt lat="47.81218" lon="6.81467">
        <ele>986</ele>
        <time>2021-08-09T16:12:41Z</time>
      </trkpt>
      <trkpt lat="47.81217" lon="6.81466">
        <ele>986</ele>
        <time>2021-08-09T16:12:42Z</time>
      </trkpt>
      <trkpt lat="47.81214" lon="6.81461">
        <ele>986.1</ele>
        <time>2021-08-09T16:12:43Z</time>
      </trkpt>
      <trkpt lat="47.81212" lon="6.81459">
        <ele>986.2</ele>
        <time>2021-08-09T16:12:44Z</time>
      </trkpt>
      <trkpt lat="47.81211" lon="6.81454">
        <ele>986.3</ele>
        <time>2021-08-09T16:12:46Z</time>
      </trkpt>
      <trkpt lat="47.8121" lon="6.81453">
        <ele>986.3</ele>
        <time>2021-08-09T16:12:47Z</time>
      </trkpt>
      <trkpt lat="47.81208" lon="6.8145">
        <ele>986.4</ele>
        <time>2021-08-09T16:12:48Z</time>
      </trkpt>
      <trkpt lat="47.81206" lon="6.81448">
        <ele>986.4</ele>
        <time>2021-08-09T16:12:49Z</time>
      </trkpt>
      <trkpt lat="47.81203" lon="6.81446">
        <ele>986.5</ele>
        <time>2021-08-09T16:12:50Z</time>
      </trkpt>
      <trkpt lat="47.81201" lon="6.81445">
        <ele>986.5</ele>
        <time>2021-08-09T16:12:52Z</time>
      </trkpt>
      <trkpt lat="47.81198" lon="6.81443">
        <ele>986.6</ele>
        <time>2021-08-09T16:12:53Z</time>
      </trkpt>
      <trkpt lat="47.81196" lon="6.81441">
        <ele>986.6</ele>
        <time>2021-08-09T16:12:54Z</time>
      </trkpt>
      <trkpt lat="47.81194" lon="6.81438">
        <ele>986.7</ele>
        <time>2021-08-09T16:12:55Z</time>
      </trkpt>
      <trkpt lat="47.81191" lon="6.81435">
        <ele>986.7</ele>
        <time>2021-08-09T16:12:56Z</time>
      </trkpt>
      <trkpt lat="47.81188" lon="6.81432">
        <ele>986.8</ele>
        <time>2021-08-09T16:12:57Z</time>
      </trkpt>
      <trkpt lat="47.81186" lon="6.81428">
        <ele>986.9</ele>
        <time>2021-08-09T16:12:59Z</time>
      </trkpt>
      <trkpt lat="47.81185" lon="6.81426">
        <ele>986.9</ele>
        <time>2021-08-09T16:13:00Z</time>
      </trkpt>
      <trkpt lat="47.81184" lon="6.81425">
        <ele>987</ele>
        <time>2021-08-09T16:13:01Z</time>
      </trkpt>
      <trkpt lat="47.81181" lon="6.81423">
        <ele>987</ele>
        <time>2021-08-09T16:13:02Z</time>
      </trkpt>
      <trkpt lat="47.81176" lon="6.81418">
        <ele>987.2</ele>
        <time>2021-08-09T16:13:03Z</time>
      </trkpt>
      <trkpt lat="47.81173" lon="6.81415">
        <ele>987.3</ele>
        <time>2021-08-09T16:13:04Z</time>
      </trkpt>
      <trkpt lat="47.81171" lon="6.81412">
        <ele>987.4</ele>
        <time>2021-08-09T16:13:06Z</time>
      </trkpt>
      <trkpt lat="47.81168" lon="6.81409">
        <ele>987.5</ele>
        <time>2021-08-09T16:13:07Z</time>
      </trkpt>
      <trkpt lat="47.81166" lon="6.81407">
        <ele>987.6</ele>
        <time>2021-08-09T16:13:08Z</time>
      </trkpt>
      <trkpt lat="47.81161" lon="6.81404">
        <ele>987.7</ele>
        <time>2021-08-09T16:13:09Z</time>
      </trkpt>
      <trkpt lat="47.81158" lon="6.81403">
        <ele>987.8</ele>
        <time>2021-08-09T16:13:10Z</time>
      </trkpt>
      <trkpt lat="47.81155" lon="6.81403">
        <ele>987.9</ele>
        <time>2021-08-09T16:13:11Z</time>
      </trkpt>
      <trkpt lat="47.81153" lon="6.81401">
        <ele>988</ele>
        <time>2021-08-09T16:13:13Z</time>
      </trkpt>
      <trkpt lat="47.81149" lon="6.81398">
        <ele>988.2</ele>
        <time>2021-08-09T16:13:14Z</time>
      </trkpt>
      <trkpt lat="47.81146" lon="6.81395">
        <ele>988.3</ele>
        <time>2021-08-09T16:13:15Z</time>
      </trkpt>
      <trkpt lat="47.81144" lon="6.81392">
        <ele>988.4</ele>
        <time>2021-08-09T16:13:17Z</time>
      </trkpt>
      <trkpt lat="47.8114" lon="6.81388">
        <ele>988.5</ele>
        <time>2021-08-09T16:13:19Z</time>
      </trkpt>
      <trkpt lat="47.81136" lon="6.81385">
        <ele>988.7</ele>
        <time>2021-08-09T16:13:20Z</time>
      </trkpt>
      <trkpt lat="47.81133" lon="6.81383">
        <ele>988.7</ele>
        <time>2021-08-09T16:13:21Z</time>
      </trkpt>
      <trkpt lat="47.81131" lon="6.8138">
        <ele>988.8</ele>
        <time>2021-08-09T16:13:23Z</time>
      </trkpt>
      <trkpt lat="47.81127" lon="6.81377">
        <ele>988.9</ele>
        <time>2021-08-09T16:13:24Z</time>
      </trkpt>
      <trkpt lat="47.81124" lon="6.81375">
        <ele>989</ele>
        <time>2021-08-09T16:13:25Z</time>
      </trkpt>
      <trkpt lat="47.81122" lon="6.81372">
        <ele>989.1</ele>
        <time>2021-08-09T16:13:27Z</time>
      </trkpt>
      <trkpt lat="47.81119" lon="6.81368">
        <ele>989.2</ele>
        <time>2021-08-09T16:13:28Z</time>
      </trkpt>
      <trkpt lat="47.81116" lon="6.81364">
        <ele>989.3</ele>
        <time>2021-08-09T16:13:29Z</time>
      </trkpt>
      <trkpt lat="47.81115" lon="6.81363">
        <ele>989.4</ele>
        <time>2021-08-09T16:13:30Z</time>
      </trkpt>
      <trkpt lat="47.81112" lon="6.81361">
        <ele>989.4</ele>
        <time>2021-08-09T16:13:31Z</time>
      </trkpt>
      <trkpt lat="47.81108" lon="6.81359">
        <ele>989.6</ele>
        <time>2021-08-09T16:13:32Z</time>
      </trkpt>
      <trkpt lat="47.81104" lon="6.81359">
        <ele>989.7</ele>
        <time>2021-08-09T16:13:33Z</time>
      </trkpt>
      <trkpt lat="47.811" lon="6.81359">
        <ele>989.8</ele>
        <time>2021-08-09T16:13:35Z</time>
      </trkpt>
      <trkpt lat="47.81098" lon="6.81358">
        <ele>989.9</ele>
        <time>2021-08-09T16:13:36Z</time>
      </trkpt>
      <trkpt lat="47.81096" lon="6.81355">
        <ele>990</ele>
        <time>2021-08-09T16:13:38Z</time>
      </trkpt>
      <trkpt lat="47.81093" lon="6.8135">
        <ele>990.1</ele>
        <time>2021-08-09T16:13:39Z</time>
      </trkpt>
      <trkpt lat="47.8109" lon="6.81346">
        <ele>990.2</ele>
        <time>2021-08-09T16:13:40Z</time>
      </trkpt>
      <trkpt lat="47.81086" lon="6.81341">
        <ele>990.4</ele>
        <time>2021-08-09T16:13:42Z</time>
      </trkpt>
      <trkpt lat="47.81084" lon="6.81339">
        <ele>990.5</ele>
        <time>2021-08-09T16:13:43Z</time>
      </trkpt>
      <trkpt lat="47.8108" lon="6.81335">
        <ele>990.6</ele>
        <time>2021-08-09T16:13:44Z</time>
      </trkpt>
      <trkpt lat="47.81077" lon="6.81332">
        <ele>990.7</ele>
        <time>2021-08-09T16:13:46Z</time>
      </trkpt>
      <trkpt lat="47.81074" lon="6.81328">
        <ele>990.9</ele>
        <time>2021-08-09T16:13:47Z</time>
      </trkpt>
      <trkpt lat="47.81072" lon="6.81326">
        <ele>990.9</ele>
        <time>2021-08-09T16:13:48Z</time>
      </trkpt>
      <trkpt lat="47.81069" lon="6.81323">
        <ele>991</ele>
        <time>2021-08-09T16:13:49Z</time>
      </trkpt>
      <trkpt lat="47.81066" lon="6.8132">
        <ele>991.2</ele>
        <time>2021-08-09T16:13:51Z</time>
      </trkpt>
      <trkpt lat="47.81065" lon="6.81319">
        <ele>991.2</ele>
        <time>2021-08-09T16:13:52Z</time>
      </trkpt>
      <trkpt lat="47.81063" lon="6.81316">
        <ele>991.3</ele>
        <time>2021-08-09T16:13:53Z</time>
      </trkpt>
      <trkpt lat="47.8106" lon="6.81313">
        <ele>991.4</ele>
        <time>2021-08-09T16:13:55Z</time>
      </trkpt>
      <trkpt lat="47.81057" lon="6.8131">
        <ele>991.5</ele>
        <time>2021-08-09T16:13:56Z</time>
      </trkpt>
      <trkpt lat="47.81053" lon="6.81307">
        <ele>991.6</ele>
        <time>2021-08-09T16:13:58Z</time>
      </trkpt>
      <trkpt lat="47.81051" lon="6.81306">
        <ele>991.7</ele>
        <time>2021-08-09T16:13:59Z</time>
      </trkpt>
      <trkpt lat="47.81049" lon="6.81305">
        <ele>991.7</ele>
        <time>2021-08-09T16:14:00Z</time>
      </trkpt>
      <trkpt lat="47.81046" lon="6.81304">
        <ele>991.8</ele>
        <time>2021-08-09T16:14:01Z</time>
      </trkpt>
      <trkpt lat="47.81045" lon="6.81304">
        <ele>991.9</ele>
        <time>2021-08-09T16:14:02Z</time>
      </trkpt>
      <trkpt lat="47.81043" lon="6.81304">
        <ele>991.9</ele>
        <time>2021-08-09T16:14:03Z</time>
      </trkpt>
      <trkpt lat="47.8104" lon="6.81303">
        <ele>992</ele>
        <time>2021-08-09T16:14:05Z</time>
      </trkpt>
      <trkpt lat="47.81037" lon="6.81302">
        <ele>992</ele>
        <time>2021-08-09T16:14:06Z</time>
      </trkpt>
      <trkpt lat="47.81035" lon="6.81301">
        <ele>992.1</ele>
        <time>2021-08-09T16:14:07Z</time>
      </trkpt>
      <trkpt lat="47.81031" lon="6.81299">
        <ele>992.1</ele>
        <time>2021-08-09T16:14:08Z</time>
      </trkpt>
      <trkpt lat="47.8103" lon="6.81299">
        <ele>992.2</ele>
        <time>2021-08-09T16:14:09Z</time>
      </trkpt>
      <trkpt lat="47.81027" lon="6.81298">
        <ele>992.2</ele>
        <time>2021-08-09T16:14:10Z</time>
      </trkpt>
      <trkpt lat="47.81023" lon="6.81297">
        <ele>992.3</ele>
        <time>2021-08-09T16:14:12Z</time>
      </trkpt>
      <trkpt lat="47.81021" lon="6.81298">
        <ele>992.4</ele>
        <time>2021-08-09T16:14:13Z</time>
      </trkpt>
      <trkpt lat="47.81017" lon="6.81299">
        <ele>992.5</ele>
        <time>2021-08-09T16:14:14Z</time>
      </trkpt>
      <trkpt lat="47.81016" lon="6.813">
        <ele>992.5</ele>
        <time>2021-08-09T16:14:15Z</time>
      </trkpt>
      <trkpt lat="47.81013" lon="6.813">
        <ele>992.6</ele>
        <time>2021-08-09T16:14:17Z</time>
      </trkpt>
      <trkpt lat="47.8101" lon="6.81301">
        <ele>992.6</ele>
        <time>2021-08-09T16:14:18Z</time>
      </trkpt>
      <trkpt lat="47.81007" lon="6.81303">
        <ele>992.7</ele>
        <time>2021-08-09T16:14:20Z</time>
      </trkpt>
      <trkpt lat="47.81003" lon="6.81304">
        <ele>992.8</ele>
        <time>2021-08-09T16:14:21Z</time>
      </trkpt>
      <trkpt lat="47.80999" lon="6.81304">
        <ele>992.9</ele>
        <time>2021-08-09T16:14:22Z</time>
      </trkpt>
      <trkpt lat="47.80995" lon="6.81304">
        <ele>993</ele>
        <time>2021-08-09T16:14:24Z</time>
      </trkpt>
      <trkpt lat="47.80994" lon="6.81304">
        <ele>993</ele>
        <time>2021-08-09T16:14:25Z</time>
      </trkpt>
      <trkpt lat="47.80991" lon="6.81303">
        <ele>993.1</ele>
        <time>2021-08-09T16:14:26Z</time>
      </trkpt>
      <trkpt lat="47.80987" lon="6.81302">
        <ele>993.2</ele>
        <time>2021-08-09T16:14:28Z</time>
      </trkpt>
      <trkpt lat="47.80983" lon="6.81301">
        <ele>993.2</ele>
        <time>2021-08-09T16:14:29Z</time>
      </trkpt>
      <trkpt lat="47.80982" lon="6.813">
        <ele>993.2</ele>
        <time>2021-08-09T16:14:30Z</time>
      </trkpt>
      <trkpt lat="47.8098" lon="6.81301">
        <ele>993.3</ele>
        <time>2021-08-09T16:14:31Z</time>
      </trkpt>
      <trkpt lat="47.80977" lon="6.81301">
        <ele>993.3</ele>
        <time>2021-08-09T16:14:32Z</time>
      </trkpt>
      <trkpt lat="47.80973" lon="6.81301">
        <ele>993.4</ele>
        <time>2021-08-09T16:14:34Z</time>
      </trkpt>
      <trkpt lat="47.80969" lon="6.81299">
        <ele>993.5</ele>
        <time>2021-08-09T16:14:35Z</time>
      </trkpt>
      <trkpt lat="47.80966" lon="6.81298">
        <ele>993.6</ele>
        <time>2021-08-09T16:14:37Z</time>
      </trkpt>
      <trkpt lat="47.80963" lon="6.81296">
        <ele>993.8</ele>
        <time>2021-08-09T16:14:38Z</time>
      </trkpt>
      <trkpt lat="47.8096" lon="6.81294">
        <ele>993.8</ele>
        <time>2021-08-09T16:14:39Z</time>
      </trkpt>
      <trkpt lat="47.80957" lon="6.81291">
        <ele>994</ele>
        <time>2021-08-09T16:14:40Z</time>
      </trkpt>
      <trkpt lat="47.80955" lon="6.81287">
        <ele>994.1</ele>
        <time>2021-08-09T16:14:41Z</time>
      </trkpt>
      <trkpt lat="47.80953" lon="6.81283">
        <ele>994.2</ele>
        <time>2021-08-09T16:14:43Z</time>
      </trkpt>
      <trkpt lat="47.80948" lon="6.81283">
        <ele>994.3</ele>
        <time>2021-08-09T16:14:44Z</time>
      </trkpt>
      <trkpt lat="47.80945" lon="6.81281">
        <ele>994.4</ele>
        <time>2021-08-09T16:14:46Z</time>
      </trkpt>
      <trkpt lat="47.80942" lon="6.81277">
        <ele>994.5</ele>
        <time>2021-08-09T16:14:47Z</time>
      </trkpt>
      <trkpt lat="47.8094" lon="6.81274">
        <ele>994.6</ele>
        <time>2021-08-09T16:14:49Z</time>
      </trkpt>
      <trkpt lat="47.80939" lon="6.81271">
        <ele>994.7</ele>
        <time>2021-08-09T16:14:50Z</time>
      </trkpt>
      <trkpt lat="47.80935" lon="6.81268">
        <ele>994.8</ele>
        <time>2021-08-09T16:14:51Z</time>
      </trkpt>
      <trkpt lat="47.80934" lon="6.81267">
        <ele>994.8</ele>
        <time>2021-08-09T16:14:52Z</time>
      </trkpt>
      <trkpt lat="47.80931" lon="6.81265">
        <ele>994.9</ele>
        <time>2021-08-09T16:14:53Z</time>
      </trkpt>
      <trkpt lat="47.80927" lon="6.81266">
        <ele>995</ele>
        <time>2021-08-09T16:14:55Z</time>
      </trkpt>
      <trkpt lat="47.80926" lon="6.81266">
        <ele>995</ele>
        <time>2021-08-09T16:14:56Z</time>
      </trkpt>
      <trkpt lat="47.80922" lon="6.81264">
        <ele>995.2</ele>
        <time>2021-08-09T16:14:57Z</time>
      </trkpt>
      <trkpt lat="47.80919" lon="6.8126">
        <ele>995.3</ele>
        <time>2021-08-09T16:14:58Z</time>
      </trkpt>
      <trkpt lat="47.80916" lon="6.81257">
        <ele>995.4</ele>
        <time>2021-08-09T16:15:00Z</time>
      </trkpt>
      <trkpt lat="47.80913" lon="6.81256">
        <ele>995.4</ele>
        <time>2021-08-09T16:15:01Z</time>
      </trkpt>
      <trkpt lat="47.80908" lon="6.81254">
        <ele>995.5</ele>
        <time>2021-08-09T16:15:03Z</time>
      </trkpt>
      <trkpt lat="47.80906" lon="6.81253">
        <ele>995.6</ele>
        <time>2021-08-09T16:15:04Z</time>
      </trkpt>
      <trkpt lat="47.80904" lon="6.81252">
        <ele>995.6</ele>
        <time>2021-08-09T16:15:05Z</time>
      </trkpt>
      <trkpt lat="47.80902" lon="6.81251">
        <ele>995.7</ele>
        <time>2021-08-09T16:15:06Z</time>
      </trkpt>
      <trkpt lat="47.80899" lon="6.8125">
        <ele>995.8</ele>
        <time>2021-08-09T16:15:07Z</time>
      </trkpt>
      <trkpt lat="47.80895" lon="6.81249">
        <ele>995.9</ele>
        <time>2021-08-09T16:15:08Z</time>
      </trkpt>
      <trkpt lat="47.80893" lon="6.81247">
        <ele>996</ele>
        <time>2021-08-09T16:15:10Z</time>
      </trkpt>
      <trkpt lat="47.80891" lon="6.81244">
        <ele>996</ele>
        <time>2021-08-09T16:15:11Z</time>
      </trkpt>
      <trkpt lat="47.80889" lon="6.8124">
        <ele>996.1</ele>
        <time>2021-08-09T16:15:12Z</time>
      </trkpt>
      <trkpt lat="47.80886" lon="6.81238">
        <ele>996.2</ele>
        <time>2021-08-09T16:15:13Z</time>
      </trkpt>
      <trkpt lat="47.80882" lon="6.81233">
        <ele>996.4</ele>
        <time>2021-08-09T16:15:15Z</time>
      </trkpt>
      <trkpt lat="47.8088" lon="6.81231">
        <ele>996.5</ele>
        <time>2021-08-09T16:15:16Z</time>
      </trkpt>
      <trkpt lat="47.80878" lon="6.81229">
        <ele>996.6</ele>
        <time>2021-08-09T16:15:17Z</time>
      </trkpt>
      <trkpt lat="47.80877" lon="6.81227">
        <ele>996.7</ele>
        <time>2021-08-09T16:15:18Z</time>
      </trkpt>
      <trkpt lat="47.80874" lon="6.81224">
        <ele>996.8</ele>
        <time>2021-08-09T16:15:20Z</time>
      </trkpt>
      <trkpt lat="47.80871" lon="6.81222">
        <ele>996.9</ele>
        <time>2021-08-09T16:15:21Z</time>
      </trkpt>
      <trkpt lat="47.8087" lon="6.81222">
        <ele>997</ele>
        <time>2021-08-09T16:15:22Z</time>
      </trkpt>
      <trkpt lat="47.80867" lon="6.8122">
        <ele>997.1</ele>
        <time>2021-08-09T16:15:23Z</time>
      </trkpt>
      <trkpt lat="47.80864" lon="6.81218">
        <ele>997.2</ele>
        <time>2021-08-09T16:15:24Z</time>
      </trkpt>
      <trkpt lat="47.80862" lon="6.81217">
        <ele>997.3</ele>
        <time>2021-08-09T16:15:25Z</time>
      </trkpt>
      <trkpt lat="47.8086" lon="6.81215">
        <ele>997.4</ele>
        <time>2021-08-09T16:15:26Z</time>
      </trkpt>
      <trkpt lat="47.80856" lon="6.81212">
        <ele>997.5</ele>
        <time>2021-08-09T16:15:28Z</time>
      </trkpt>
      <trkpt lat="47.80854" lon="6.81212">
        <ele>997.5</ele>
        <time>2021-08-09T16:15:29Z</time>
      </trkpt>
      <trkpt lat="47.8085" lon="6.81212">
        <ele>997.6</ele>
        <time>2021-08-09T16:15:31Z</time>
      </trkpt>
      <trkpt lat="47.80847" lon="6.81212">
        <ele>997.7</ele>
        <time>2021-08-09T16:15:32Z</time>
      </trkpt>
      <trkpt lat="47.80845" lon="6.8121">
        <ele>997.8</ele>
        <time>2021-08-09T16:15:33Z</time>
      </trkpt>
      <trkpt lat="47.80843" lon="6.8121">
        <ele>997.8</ele>
        <time>2021-08-09T16:15:35Z</time>
      </trkpt>
      <trkpt lat="47.80842" lon="6.81209">
        <ele>997.8</ele>
        <time>2021-08-09T16:15:36Z</time>
      </trkpt>
      <trkpt lat="47.8084" lon="6.8121">
        <ele>997.9</ele>
        <time>2021-08-09T16:15:37Z</time>
      </trkpt>
      <trkpt lat="47.80837" lon="6.81211">
        <ele>998</ele>
        <time>2021-08-09T16:15:39Z</time>
      </trkpt>
      <trkpt lat="47.80834" lon="6.81212">
        <ele>998</ele>
        <time>2021-08-09T16:15:40Z</time>
      </trkpt>
      <trkpt lat="47.8083" lon="6.81213">
        <ele>998.1</ele>
        <time>2021-08-09T16:15:41Z</time>
      </trkpt>
      <trkpt lat="47.80826" lon="6.81214">
        <ele>998.2</ele>
        <time>2021-08-09T16:15:43Z</time>
      </trkpt>
      <trkpt lat="47.80822" lon="6.81213">
        <ele>998.3</ele>
        <time>2021-08-09T16:15:44Z</time>
      </trkpt>
      <trkpt lat="47.80821" lon="6.81213">
        <ele>998.3</ele>
        <time>2021-08-09T16:15:45Z</time>
      </trkpt>
      <trkpt lat="47.80817" lon="6.81214">
        <ele>998.3</ele>
        <time>2021-08-09T16:15:46Z</time>
      </trkpt>
      <trkpt lat="47.80814" lon="6.81216">
        <ele>998.4</ele>
        <time>2021-08-09T16:15:47Z</time>
      </trkpt>
      <trkpt lat="47.8081" lon="6.81218">
        <ele>998.4</ele>
        <time>2021-08-09T16:15:49Z</time>
      </trkpt>
      <trkpt lat="47.80804" lon="6.81221">
        <ele>998.5</ele>
        <time>2021-08-09T16:15:50Z</time>
      </trkpt>
      <trkpt lat="47.80799" lon="6.81222">
        <ele>998.5</ele>
        <time>2021-08-09T16:15:51Z</time>
      </trkpt>
      <trkpt lat="47.80796" lon="6.81224">
        <ele>998.6</ele>
        <time>2021-08-09T16:15:52Z</time>
      </trkpt>
      <trkpt lat="47.80792" lon="6.81227">
        <ele>998.6</ele>
        <time>2021-08-09T16:15:54Z</time>
      </trkpt>
      <trkpt lat="47.80791" lon="6.81228">
        <ele>998.6</ele>
        <time>2021-08-09T16:15:55Z</time>
      </trkpt>
      <trkpt lat="47.80788" lon="6.8123">
        <ele>998.7</ele>
        <time>2021-08-09T16:15:56Z</time>
      </trkpt>
      <trkpt lat="47.80784" lon="6.81235">
        <ele>998.7</ele>
        <time>2021-08-09T16:15:58Z</time>
      </trkpt>
      <trkpt lat="47.80782" lon="6.81237">
        <ele>998.8</ele>
        <time>2021-08-09T16:15:59Z</time>
      </trkpt>
      <trkpt lat="47.80781" lon="6.81239">
        <ele>998.8</ele>
        <time>2021-08-09T16:16:00Z</time>
      </trkpt>
      <trkpt lat="47.80779" lon="6.81243">
        <ele>998.8</ele>
        <time>2021-08-09T16:16:01Z</time>
      </trkpt>
      <trkpt lat="47.80777" lon="6.81247">
        <ele>998.9</ele>
        <time>2021-08-09T16:16:02Z</time>
      </trkpt>
      <trkpt lat="47.80776" lon="6.8125">
        <ele>998.9</ele>
        <time>2021-08-09T16:16:04Z</time>
      </trkpt>
      <trkpt lat="47.80773" lon="6.81257">
        <ele>999</ele>
        <time>2021-08-09T16:16:06Z</time>
      </trkpt>
      <trkpt lat="47.8077" lon="6.8126">
        <ele>999</ele>
        <time>2021-08-09T16:16:07Z</time>
      </trkpt>
      <trkpt lat="47.80767" lon="6.81266">
        <ele>999</ele>
        <time>2021-08-09T16:16:08Z</time>
      </trkpt>
      <trkpt lat="47.80766" lon="6.81268">
        <ele>999.1</ele>
        <time>2021-08-09T16:16:09Z</time>
      </trkpt>
      <trkpt lat="47.80764" lon="6.81272">
        <ele>999.1</ele>
        <time>2021-08-09T16:16:10Z</time>
      </trkpt>
      <trkpt lat="47.80762" lon="6.81278">
        <ele>999.1</ele>
        <time>2021-08-09T16:16:12Z</time>
      </trkpt>
      <trkpt lat="47.8076" lon="6.81283">
        <ele>999.1</ele>
        <time>2021-08-09T16:16:13Z</time>
      </trkpt>
      <trkpt lat="47.80757" lon="6.81291">
        <ele>999.2</ele>
        <time>2021-08-09T16:16:14Z</time>
      </trkpt>
      <trkpt lat="47.80756" lon="6.81298">
        <ele>999.2</ele>
        <time>2021-08-09T16:16:15Z</time>
      </trkpt>
      <trkpt lat="47.80755" lon="6.81305">
        <ele>999.2</ele>
        <time>2021-08-09T16:16:17Z</time>
      </trkpt>
      <trkpt lat="47.80754" lon="6.81314">
        <ele>999.2</ele>
        <time>2021-08-09T16:16:18Z</time>
      </trkpt>
      <trkpt lat="47.80753" lon="6.81323">
        <ele>999.2</ele>
        <time>2021-08-09T16:16:20Z</time>
      </trkpt>
      <trkpt lat="47.80751" lon="6.81333">
        <ele>999.2</ele>
        <time>2021-08-09T16:16:21Z</time>
      </trkpt>
      <trkpt lat="47.80751" lon="6.81339">
        <ele>999.2</ele>
        <time>2021-08-09T16:16:22Z</time>
      </trkpt>
      <trkpt lat="47.8075" lon="6.81346">
        <ele>999.2</ele>
        <time>2021-08-09T16:16:24Z</time>
      </trkpt>
      <trkpt lat="47.80749" lon="6.81358">
        <ele>999.2</ele>
        <time>2021-08-09T16:16:26Z</time>
      </trkpt>
      <trkpt lat="47.80749" lon="6.81364">
        <ele>999.2</ele>
        <time>2021-08-09T16:16:27Z</time>
      </trkpt>
      <trkpt lat="47.80748" lon="6.81371">
        <ele>999.2</ele>
        <time>2021-08-09T16:16:28Z</time>
      </trkpt>
      <trkpt lat="47.80746" lon="6.81377">
        <ele>999.2</ele>
        <time>2021-08-09T16:16:29Z</time>
      </trkpt>
      <trkpt lat="47.80744" lon="6.81386">
        <ele>999.3</ele>
        <time>2021-08-09T16:16:30Z</time>
      </trkpt>
      <trkpt lat="47.80743" lon="6.81393">
        <ele>999.4</ele>
        <time>2021-08-09T16:16:31Z</time>
      </trkpt>
      <trkpt lat="47.80742" lon="6.81401">
        <ele>999.5</ele>
        <time>2021-08-09T16:16:33Z</time>
      </trkpt>
      <trkpt lat="47.80743" lon="6.81407">
        <ele>999.5</ele>
        <time>2021-08-09T16:16:34Z</time>
      </trkpt>
      <trkpt lat="47.80744" lon="6.81416">
        <ele>999.7</ele>
        <time>2021-08-09T16:16:35Z</time>
      </trkpt>
      <trkpt lat="47.80744" lon="6.81424">
        <ele>999.8</ele>
        <time>2021-08-09T16:16:37Z</time>
      </trkpt>
      <trkpt lat="47.80744" lon="6.81429">
        <ele>999.8</ele>
        <time>2021-08-09T16:16:38Z</time>
      </trkpt>
      <trkpt lat="47.80744" lon="6.81438">
        <ele>999.9</ele>
        <time>2021-08-09T16:16:39Z</time>
      </trkpt>
      <trkpt lat="47.80743" lon="6.81444">
        <ele>1000</ele>
        <time>2021-08-09T16:16:41Z</time>
      </trkpt>
      <trkpt lat="47.80743" lon="6.81453">
        <ele>1000.1</ele>
        <time>2021-08-09T16:16:42Z</time>
      </trkpt>
      <trkpt lat="47.80743" lon="6.81458">
        <ele>1000.1</ele>
        <time>2021-08-09T16:16:43Z</time>
      </trkpt>
      <trkpt lat="47.80743" lon="6.81465">
        <ele>1000.1</ele>
        <time>2021-08-09T16:16:45Z</time>
      </trkpt>
      <trkpt lat="47.80743" lon="6.81471">
        <ele>1000.2</ele>
        <time>2021-08-09T16:16:46Z</time>
      </trkpt>
      <trkpt lat="47.80742" lon="6.81478">
        <ele>1000.2</ele>
        <time>2021-08-09T16:16:47Z</time>
      </trkpt>
      <trkpt lat="47.80742" lon="6.81486">
        <ele>1000.2</ele>
        <time>2021-08-09T16:16:49Z</time>
      </trkpt>
      <trkpt lat="47.80741" lon="6.81491">
        <ele>1000.3</ele>
        <time>2021-08-09T16:16:50Z</time>
      </trkpt>
      <trkpt lat="47.80741" lon="6.81501">
        <ele>1000.4</ele>
        <time>2021-08-09T16:16:52Z</time>
      </trkpt>
      <trkpt lat="47.8074" lon="6.81506">
        <ele>1000.5</ele>
        <time>2021-08-09T16:16:53Z</time>
      </trkpt>
      <trkpt lat="47.80737" lon="6.81512">
        <ele>1000.6</ele>
        <time>2021-08-09T16:16:54Z</time>
      </trkpt>
      <trkpt lat="47.80734" lon="6.81517">
        <ele>1000.7</ele>
        <time>2021-08-09T16:16:56Z</time>
      </trkpt>
      <trkpt lat="47.80733" lon="6.81524">
        <ele>1000.8</ele>
        <time>2021-08-09T16:16:58Z</time>
      </trkpt>
      <trkpt lat="47.80733" lon="6.81527">
        <ele>1000.8</ele>
        <time>2021-08-09T16:16:59Z</time>
      </trkpt>
      <trkpt lat="47.80733" lon="6.81534">
        <ele>1000.9</ele>
        <time>2021-08-09T16:17:01Z</time>
      </trkpt>
      <trkpt lat="47.80733" lon="6.8154">
        <ele>1001</ele>
        <time>2021-08-09T16:17:02Z</time>
      </trkpt>
      <trkpt lat="47.80733" lon="6.81542">
        <ele>1001</ele>
        <time>2021-08-09T16:17:03Z</time>
      </trkpt>
      <trkpt lat="47.80732" lon="6.81551">
        <ele>1001.2</ele>
        <time>2021-08-09T16:17:05Z</time>
      </trkpt>
      <trkpt lat="47.80731" lon="6.81555">
        <ele>1001.2</ele>
        <time>2021-08-09T16:17:06Z</time>
      </trkpt>
      <trkpt lat="47.80729" lon="6.81564">
        <ele>1001.4</ele>
        <time>2021-08-09T16:17:08Z</time>
      </trkpt>
      <trkpt lat="47.80727" lon="6.8157">
        <ele>1001.4</ele>
        <time>2021-08-09T16:17:10Z</time>
      </trkpt>
      <trkpt lat="47.80726" lon="6.81569">
        <ele>1001.5</ele>
        <time>2021-08-09T16:17:11Z</time>
      </trkpt>
      <trkpt lat="47.80722" lon="6.81571">
        <ele>1001.6</ele>
        <time>2021-08-09T16:17:13Z</time>
      </trkpt>
      <trkpt lat="47.80718" lon="6.81577">
        <ele>1001.7</ele>
        <time>2021-08-09T16:17:14Z</time>
      </trkpt>
      <trkpt lat="47.80711" lon="6.81581">
        <ele>1001.8</ele>
        <time>2021-08-09T16:17:16Z</time>
      </trkpt>
      <trkpt lat="47.80698" lon="6.81585">
        <ele>1002</ele>
        <time>2021-08-09T16:17:17Z</time>
      </trkpt>
      <trkpt lat="47.80694" lon="6.81589">
        <ele>1002.4</ele>
        <time>2021-08-09T16:17:18Z</time>
      </trkpt>
      <trkpt lat="47.80692" lon="6.81592">
        <ele>1002.7</ele>
        <time>2021-08-09T16:17:19Z</time>
      </trkpt>
      <trkpt lat="47.80688" lon="6.81597">
        <ele>1003.1</ele>
        <time>2021-08-09T16:17:20Z</time>
      </trkpt>
      <trkpt lat="47.80685" lon="6.816">
        <ele>1003.4</ele>
        <time>2021-08-09T16:17:21Z</time>
      </trkpt>
      <trkpt lat="47.80681" lon="6.81602">
        <ele>1003.7</ele>
        <time>2021-08-09T16:17:23Z</time>
      </trkpt>
      <trkpt lat="47.80681" lon="6.81605">
        <ele>1003.9</ele>
        <time>2021-08-09T16:17:24Z</time>
      </trkpt>
      <trkpt lat="47.80681" lon="6.81607">
        <ele>1004</ele>
        <time>2021-08-09T16:17:25Z</time>
      </trkpt>
      <trkpt lat="47.80683" lon="6.81608">
        <ele>1004.2</ele>
        <time>2021-08-09T16:17:27Z</time>
      </trkpt>
      <trkpt lat="47.80682" lon="6.8161">
        <ele>1004.3</ele>
        <time>2021-08-09T16:17:28Z</time>
      </trkpt>
      <trkpt lat="47.80681" lon="6.81611">
        <ele>1004.5</ele>
        <time>2021-08-09T16:17:29Z</time>
      </trkpt>
      <trkpt lat="47.80678" lon="6.81613">
        <ele>1004.8</ele>
        <time>2021-08-09T16:17:30Z</time>
      </trkpt>
      <trkpt lat="47.80676" lon="6.81615">
        <ele>1005</ele>
        <time>2021-08-09T16:17:32Z</time>
      </trkpt>
      <trkpt lat="47.80674" lon="6.81617">
        <ele>1005.3</ele>
        <time>2021-08-09T16:17:34Z</time>
      </trkpt>
      <trkpt lat="47.80672" lon="6.81618">
        <ele>1005.5</ele>
        <time>2021-08-09T16:17:35Z</time>
      </trkpt>
      <trkpt lat="47.8067" lon="6.8162">
        <ele>1005.8</ele>
        <time>2021-08-09T16:17:37Z</time>
      </trkpt>
      <trkpt lat="47.80667" lon="6.81622">
        <ele>1006.2</ele>
        <time>2021-08-09T16:17:39Z</time>
      </trkpt>
      <trkpt lat="47.80666" lon="6.81622">
        <ele>1006.3</ele>
        <time>2021-08-09T16:17:40Z</time>
      </trkpt>
      <trkpt lat="47.80665" lon="6.81621">
        <ele>1007.1</ele>
        <time>2021-08-09T16:17:42Z</time>
      </trkpt>
      <trkpt lat="47.80665" lon="6.8162">
        <ele>1007.2</ele>
        <time>2021-08-09T16:17:43Z</time>
      </trkpt>
      <trkpt lat="47.80664" lon="6.81619">
        <ele>1007.2</ele>
        <time>2021-08-09T16:17:45Z</time>
      </trkpt>
      <trkpt lat="47.80664" lon="6.81619">
        <ele>1007.3</ele>
        <time>2021-08-09T16:17:46Z</time>
      </trkpt>
      <trkpt lat="47.80664" lon="6.8162">
        <ele>1007.3</ele>
        <time>2021-08-09T16:17:47Z</time>
      </trkpt>
      <trkpt lat="47.80663" lon="6.8162">
        <ele>1007.4</ele>
        <time>2021-08-09T16:17:49Z</time>
      </trkpt>
      <trkpt lat="47.80663" lon="6.81621">
        <ele>1007.5</ele>
        <time>2021-08-09T16:17:51Z</time>
      </trkpt>
      <trkpt lat="47.80665" lon="6.81632">
        <ele>1008.4</ele>
        <time>2021-08-09T16:18:33Z</time>
      </trkpt>
      <trkpt lat="47.80669" lon="6.81639">
        <ele>1009.1</ele>
        <time>2021-08-09T16:18:35Z</time>
      </trkpt>
      <trkpt lat="47.80671" lon="6.81642">
        <ele>1009.5</ele>
        <time>2021-08-09T16:18:36Z</time>
      </trkpt>
      <trkpt lat="47.80672" lon="6.81644">
        <ele>1009.7</ele>
        <time>2021-08-09T16:18:38Z</time>
      </trkpt>
      <trkpt lat="47.80675" lon="6.81648">
        <ele>1010.2</ele>
        <time>2021-08-09T16:18:40Z</time>
      </trkpt>
      <trkpt lat="47.80677" lon="6.81651">
        <ele>1010.5</ele>
        <time>2021-08-09T16:18:41Z</time>
      </trkpt>
      <trkpt lat="47.80677" lon="6.81652">
        <ele>1010.6</ele>
        <time>2021-08-09T16:18:42Z</time>
      </trkpt>
      <trkpt lat="47.80674" lon="6.81646">
        <ele>1010</ele>
        <time>2021-08-09T16:18:43Z</time>
      </trkpt>
      <trkpt lat="47.8067" lon="6.81639">
        <ele>1009.3</ele>
        <time>2021-08-09T16:18:45Z</time>
      </trkpt>
      <trkpt lat="47.80666" lon="6.81632">
        <ele>1008.6</ele>
        <time>2021-08-09T16:19:56Z</time>
      </trkpt>
      <trkpt lat="47.80662" lon="6.81624">
        <ele>1007.9</ele>
        <time>2021-08-09T16:19:57Z</time>
      </trkpt>
      <trkpt lat="47.80669" lon="6.81619">
        <ele>1007.1</ele>
        <time>2021-08-09T16:19:58Z</time>
      </trkpt>
      <trkpt lat="47.80672" lon="6.81617">
        <ele>1006.6</ele>
        <time>2021-08-09T16:19:59Z</time>
      </trkpt>
      <trkpt lat="47.80673" lon="6.81614">
        <ele>1006</ele>
        <time>2021-08-09T16:20:01Z</time>
      </trkpt>
      <trkpt lat="47.80672" lon="6.81613">
        <ele>1006</ele>
        <time>2021-08-09T16:20:02Z</time>
      </trkpt>
      <trkpt lat="47.80671" lon="6.81612">
        <ele>1005.9</ele>
        <time>2021-08-09T16:20:03Z</time>
      </trkpt>
      <trkpt lat="47.8067" lon="6.81611">
        <ele>1005.9</ele>
        <time>2021-08-09T16:20:05Z</time>
      </trkpt>
      <trkpt lat="47.80669" lon="6.8161">
        <ele>1005.8</ele>
        <time>2021-08-09T16:20:06Z</time>
      </trkpt>
      <trkpt lat="47.80663" lon="6.81608">
        <ele>1005.5</ele>
        <time>2021-08-09T16:20:08Z</time>
      </trkpt>
      <trkpt lat="47.80659" lon="6.81606">
        <ele>1005.3</ele>
        <time>2021-08-09T16:20:10Z</time>
      </trkpt>
      <trkpt lat="47.80654" lon="6.81604">
        <ele>1000.3</ele>
        <time>2021-08-09T16:20:11Z</time>
      </trkpt>
      <trkpt lat="47.8065" lon="6.81602">
        <ele>1000</ele>
        <time>2021-08-09T16:20:12Z</time>
      </trkpt>
      <trkpt lat="47.80645" lon="6.81601">
        <ele>999.8</ele>
        <time>2021-08-09T16:20:13Z</time>
      </trkpt>
      <trkpt lat="47.80641" lon="6.81599">
        <ele>999.6</ele>
        <time>2021-08-09T16:20:15Z</time>
      </trkpt>
      <trkpt lat="47.80636" lon="6.81597">
        <ele>999.4</ele>
        <time>2021-08-09T16:20:52Z</time>
      </trkpt>
      <trkpt lat="47.80632" lon="6.81595">
        <ele>999.2</ele>
        <time>2021-08-09T16:20:53Z</time>
      </trkpt>
      <trkpt lat="47.80624" lon="6.81587">
        <ele>998.8</ele>
        <time>2021-08-09T16:20:55Z</time>
      </trkpt>
      <trkpt lat="47.8062" lon="6.8158">
        <ele>998.5</ele>
        <time>2021-08-09T16:20:56Z</time>
      </trkpt>
      <trkpt lat="47.80617" lon="6.81574">
        <ele>998.3</ele>
        <time>2021-08-09T16:20:57Z</time>
      </trkpt>
      <trkpt lat="47.80613" lon="6.81566">
        <ele>998.1</ele>
        <time>2021-08-09T16:20:59Z</time>
      </trkpt>
      <trkpt lat="47.80611" lon="6.81562">
        <ele>998</ele>
        <time>2021-08-09T16:21:00Z</time>
      </trkpt>
      <trkpt lat="47.8061" lon="6.81559">
        <ele>997.9</ele>
        <time>2021-08-09T16:21:01Z</time>
      </trkpt>
      <trkpt lat="47.80611" lon="6.81552">
        <ele>997.8</ele>
        <time>2021-08-09T16:21:03Z</time>
      </trkpt>
      <trkpt lat="47.8061" lon="6.81549">
        <ele>997.7</ele>
        <time>2021-08-09T16:21:05Z</time>
      </trkpt>
      <trkpt lat="47.80611" lon="6.81548">
        <ele>997.7</ele>
        <time>2021-08-09T16:21:06Z</time>
      </trkpt>
      <trkpt lat="47.80612" lon="6.81547">
        <ele>997.8</ele>
        <time>2021-08-09T16:21:07Z</time>
      </trkpt>
      <trkpt lat="47.80614" lon="6.81548">
        <ele>997.9</ele>
        <time>2021-08-09T16:21:08Z</time>
      </trkpt>
      <trkpt lat="47.80615" lon="6.81549">
        <ele>997.9</ele>
        <time>2021-08-09T16:21:09Z</time>
      </trkpt>
      <trkpt lat="47.80616" lon="6.8155">
        <ele>998</ele>
        <time>2021-08-09T16:21:10Z</time>
      </trkpt>
      <trkpt lat="47.80618" lon="6.8155">
        <ele>998.1</ele>
        <time>2021-08-09T16:21:11Z</time>
      </trkpt>
      <trkpt lat="47.80622" lon="6.81552">
        <ele>998.3</ele>
        <time>2021-08-09T16:21:13Z</time>
      </trkpt>
      <trkpt lat="47.80626" lon="6.81554">
        <ele>998.5</ele>
        <time>2021-08-09T16:21:15Z</time>
      </trkpt>
      <trkpt lat="47.80629" lon="6.81554">
        <ele>998.6</ele>
        <time>2021-08-09T16:21:16Z</time>
      </trkpt>
      <trkpt lat="47.80633" lon="6.81554">
        <ele>998.8</ele>
        <time>2021-08-09T16:21:18Z</time>
      </trkpt>
      <trkpt lat="47.80636" lon="6.81554">
        <ele>999</ele>
        <time>2021-08-09T16:21:19Z</time>
      </trkpt>
      <trkpt lat="47.80637" lon="6.81554">
        <ele>999</ele>
        <time>2021-08-09T16:21:20Z</time>
      </trkpt>
      <trkpt lat="47.8064" lon="6.81555">
        <ele>999.1</ele>
        <time>2021-08-09T16:21:21Z</time>
      </trkpt>
      <trkpt lat="47.80645" lon="6.81556">
        <ele>999.3</ele>
        <time>2021-08-09T16:21:23Z</time>
      </trkpt>
      <trkpt lat="47.80646" lon="6.81557">
        <ele>999.4</ele>
        <time>2021-08-09T16:21:24Z</time>
      </trkpt>
      <trkpt lat="47.80647" lon="6.81558">
        <ele>999.5</ele>
        <time>2021-08-09T16:21:26Z</time>
      </trkpt>
      <trkpt lat="47.80648" lon="6.8156">
        <ele>999.6</ele>
        <time>2021-08-09T16:21:27Z</time>
      </trkpt>
      <trkpt lat="47.80651" lon="6.81566">
        <ele>1000.3</ele>
        <time>2021-08-09T16:21:29Z</time>
      </trkpt>
      <trkpt lat="47.80653" lon="6.81572">
        <ele>1000.6</ele>
        <time>2021-08-09T16:21:30Z</time>
      </trkpt>
      <trkpt lat="47.80654" lon="6.81577">
        <ele>1000.9</ele>
        <time>2021-08-09T16:21:31Z</time>
      </trkpt>
      <trkpt lat="47.80655" lon="6.81582">
        <ele>1001.2</ele>
        <time>2021-08-09T16:21:33Z</time>
      </trkpt>
      <trkpt lat="47.80654" lon="6.81586">
        <ele>1001.4</ele>
        <time>2021-08-09T16:21:34Z</time>
      </trkpt>
      <trkpt lat="47.80655" lon="6.8159">
        <ele>1001.6</ele>
        <time>2021-08-09T16:21:36Z</time>
      </trkpt>
      <trkpt lat="47.80655" lon="6.81594">
        <ele>1001.8</ele>
        <time>2021-08-09T16:21:37Z</time>
      </trkpt>
      <trkpt lat="47.80655" lon="6.81596">
        <ele>1001.9</ele>
        <time>2021-08-09T16:21:38Z</time>
      </trkpt>
      <trkpt lat="47.80653" lon="6.81599">
        <ele>1002.2</ele>
        <time>2021-08-09T16:21:39Z</time>
      </trkpt>
      <trkpt lat="47.80653" lon="6.81601">
        <ele>1002.2</ele>
        <time>2021-08-09T16:21:40Z</time>
      </trkpt>
      <trkpt lat="47.80651" lon="6.81603">
        <ele>1002.4</ele>
        <time>2021-08-09T16:21:42Z</time>
      </trkpt>
      <trkpt lat="47.80652" lon="6.81601">
        <ele>1002.6</ele>
        <time>2021-08-09T16:21:44Z</time>
      </trkpt>
      <trkpt lat="47.80652" lon="6.81601">
        <ele>1002.7</ele>
        <time>2021-08-09T16:21:45Z</time>
      </trkpt>
      <trkpt lat="47.80652" lon="6.81601">
        <ele>1002.7</ele>
        <time>2021-08-09T16:21:46Z</time>
      </trkpt>
      <trkpt lat="47.80652" lon="6.81601">
        <ele>1002.7</ele>
        <time>2021-08-09T16:21:48Z</time>
      </trkpt>
      <trkpt lat="47.80653" lon="6.81603">
        <ele>1002.8</ele>
        <time>2021-08-09T16:21:49Z</time>
      </trkpt>
      <trkpt lat="47.80654" lon="6.81603">
        <ele>1002.9</ele>
        <time>2021-08-09T16:21:50Z</time>
      </trkpt>
      <trkpt lat="47.80657" lon="6.81603">
        <ele>1003.3</ele>
        <time>2021-08-09T16:21:52Z</time>
      </trkpt>
      <trkpt lat="47.8066" lon="6.81605">
        <ele>1003.5</ele>
        <time>2021-08-09T16:21:53Z</time>
      </trkpt>
      <trkpt lat="47.80661" lon="6.81606">
        <ele>1003.7</ele>
        <time>2021-08-09T16:21:54Z</time>
      </trkpt>
      <trkpt lat="47.80665" lon="6.81609">
        <ele>1004.2</ele>
        <time>2021-08-09T16:21:56Z</time>
      </trkpt>
      <trkpt lat="47.80668" lon="6.81607">
        <ele>1004.5</ele>
        <time>2021-08-09T16:21:58Z</time>
      </trkpt>
      <trkpt lat="47.80669" lon="6.81605">
        <ele>1004.6</ele>
        <time>2021-08-09T16:22:00Z</time>
      </trkpt>
      <trkpt lat="47.80669" lon="6.81605">
        <ele>1004.7</ele>
        <time>2021-08-09T16:22:01Z</time>
      </trkpt>
      <trkpt lat="47.80669" lon="6.81604">
        <ele>1004.7</ele>
        <time>2021-08-09T16:22:02Z</time>
      </trkpt>
      <trkpt lat="47.80669" lon="6.81604">
        <ele>1004.7</ele>
        <time>2021-08-09T16:22:04Z</time>
      </trkpt>
      <trkpt lat="47.80669" lon="6.81714">
        <ele>1015.7</ele>
        <time>2021-08-09T16:23:43Z</time>
      </trkpt>
      <trkpt lat="47.8067" lon="6.81717">
        <ele>1015.9</ele>
        <time>2021-08-09T16:23:45Z</time>
      </trkpt>
      <trkpt lat="47.8067" lon="6.81718">
        <ele>1015.9</ele>
        <time>2021-08-09T16:23:46Z</time>
      </trkpt>
      <trkpt lat="47.80671" lon="6.8172">
        <ele>1016.1</ele>
        <time>2021-08-09T16:23:47Z</time>
      </trkpt>
      <trkpt lat="47.80671" lon="6.81723">
        <ele>1016.2</ele>
        <time>2021-08-09T16:23:48Z</time>
      </trkpt>
      <trkpt lat="47.80672" lon="6.81725">
        <ele>1016.4</ele>
        <time>2021-08-09T16:23:49Z</time>
      </trkpt>
      <trkpt lat="47.80673" lon="6.81727">
        <ele>1016.4</ele>
        <time>2021-08-09T16:23:50Z</time>
      </trkpt>
      <trkpt lat="47.80673" lon="6.81728">
        <ele>1016.5</ele>
        <time>2021-08-09T16:23:52Z</time>
      </trkpt>
      <trkpt lat="47.80673" lon="6.81729">
        <ele>1016.6</ele>
        <time>2021-08-09T16:23:53Z</time>
      </trkpt>
      <trkpt lat="47.80674" lon="6.81731">
        <ele>1016.7</ele>
        <time>2021-08-09T16:23:54Z</time>
      </trkpt>
      <trkpt lat="47.80674" lon="6.81732">
        <ele>1016.7</ele>
        <time>2021-08-09T16:23:55Z</time>
      </trkpt>
      <trkpt lat="47.80674" lon="6.81733">
        <ele>1016.8</ele>
        <time>2021-08-09T16:23:56Z</time>
      </trkpt>
      <trkpt lat="47.80674" lon="6.81735">
        <ele>1016.9</ele>
        <time>2021-08-09T16:23:58Z</time>
      </trkpt>
      <trkpt lat="47.80674" lon="6.81737">
        <ele>1016.9</ele>
        <time>2021-08-09T16:23:59Z</time>
      </trkpt>
      <trkpt lat="47.80659" lon="6.81753">
        <ele>1017.4</ele>
        <time>2021-08-09T16:24:01Z</time>
      </trkpt>
      <trkpt lat="47.80644" lon="6.81767">
        <ele>1017</ele>
        <time>2021-08-09T16:24:02Z</time>
      </trkpt>
      <trkpt lat="47.80628" lon="6.81781">
        <ele>1018.1</ele>
        <time>2021-08-09T16:28:03Z</time>
      </trkpt>
      <trkpt lat="47.80613" lon="6.81795">
        <ele>1021.1</ele>
        <time>2021-08-09T16:28:04Z</time>
      </trkpt>
      <trkpt lat="47.80609" lon="6.81796">
        <ele>1021.5</ele>
        <time>2021-08-09T16:28:05Z</time>
      </trkpt>
      <trkpt lat="47.80605" lon="6.818">
        <ele>1021.9</ele>
        <time>2021-08-09T16:28:07Z</time>
      </trkpt>
      <trkpt lat="47.80604" lon="6.81801">
        <ele>1022.1</ele>
        <time>2021-08-09T16:28:08Z</time>
      </trkpt>
      <trkpt lat="47.80604" lon="6.81801">
        <ele>1022.2</ele>
        <time>2021-08-09T16:28:09Z</time>
      </trkpt>
      <trkpt lat="47.80604" lon="6.81802">
        <ele>1022.2</ele>
        <time>2021-08-09T16:28:11Z</time>
      </trkpt>
      <trkpt lat="47.80603" lon="6.81802">
        <ele>1022.2</ele>
        <time>2021-08-09T16:28:12Z</time>
      </trkpt>
      <trkpt lat="47.80603" lon="6.81802">
        <ele>1022.2</ele>
        <time>2021-08-09T16:28:13Z</time>
      </trkpt>
      <trkpt lat="47.80603" lon="6.81802">
        <ele>1022.2</ele>
        <time>2021-08-09T16:28:15Z</time>
      </trkpt>
      <trkpt lat="47.80603" lon="6.81803">
        <ele>1022.3</ele>
        <time>2021-08-09T16:28:16Z</time>
      </trkpt>
      <trkpt lat="47.80603" lon="6.81803">
        <ele>1022.3</ele>
        <time>2021-08-09T16:28:17Z</time>
      </trkpt>
      <trkpt lat="47.80604" lon="6.81803">
        <ele>1022.3</ele>
        <time>2021-08-09T16:28:18Z</time>
      </trkpt>
      <trkpt lat="47.80604" lon="6.81804">
        <ele>1022.4</ele>
        <time>2021-08-09T16:28:20Z</time>
      </trkpt>
      <trkpt lat="47.80605" lon="6.81805">
        <ele>1022.5</ele>
        <time>2021-08-09T16:28:21Z</time>
      </trkpt>
      <trkpt lat="47.80606" lon="6.81806">
        <ele>1022.6</ele>
        <time>2021-08-09T16:28:22Z</time>
      </trkpt>
      <trkpt lat="47.80607" lon="6.81807">
        <ele>1022.7</ele>
        <time>2021-08-09T16:28:23Z</time>
      </trkpt>
      <trkpt lat="47.8058" lon="6.81823">
        <ele>1025.7</ele>
        <time>2021-08-09T16:29:20Z</time>
      </trkpt>
      <trkpt lat="47.80579" lon="6.81822">
        <ele>1025.8</ele>
        <time>2021-08-09T16:29:21Z</time>
      </trkpt>
      <trkpt lat="47.80577" lon="6.81821">
        <ele>1026</ele>
        <time>2021-08-09T16:29:22Z</time>
      </trkpt>
      <trkpt lat="47.80574" lon="6.81821">
        <ele>1026.3</ele>
        <time>2021-08-09T16:29:24Z</time>
      </trkpt>
      <trkpt lat="47.80573" lon="6.81821">
        <ele>1026.4</ele>
        <time>2021-08-09T16:29:25Z</time>
      </trkpt>
      <trkpt lat="47.80573" lon="6.81821">
        <ele>1026.5</ele>
        <time>2021-08-09T16:29:26Z</time>
      </trkpt>
      <trkpt lat="47.80573" lon="6.81821">
        <ele>1026.5</ele>
        <time>2021-08-09T16:29:28Z</time>
      </trkpt>
      <trkpt lat="47.80572" lon="6.81821">
        <ele>1026.5</ele>
        <time>2021-08-09T16:29:29Z</time>
      </trkpt>
      <trkpt lat="47.80572" lon="6.8182">
        <ele>1026.5</ele>
        <time>2021-08-09T16:29:30Z</time>
      </trkpt>
      <trkpt lat="47.80572" lon="6.8182">
        <ele>1026.5</ele>
        <time>2021-08-09T16:29:31Z</time>
      </trkpt>
      <trkpt lat="47.80572" lon="6.8182">
        <ele>1026.5</ele>
        <time>2021-08-09T16:29:32Z</time>
      </trkpt>
      <trkpt lat="47.80571" lon="6.81821">
        <ele>1026.7</ele>
        <time>2021-08-09T16:29:34Z</time>
      </trkpt>
      <trkpt lat="47.8057" lon="6.81822">
        <ele>1026.8</ele>
        <time>2021-08-09T16:29:35Z</time>
      </trkpt>
      <trkpt lat="47.80545" lon="6.81823">
        <ele>1029.5</ele>
        <time>2021-08-09T16:29:50Z</time>
      </trkpt>
      <trkpt lat="47.80539" lon="6.81818">
        <ele>1030.1</ele>
        <time>2021-08-09T16:29:52Z</time>
      </trkpt>
      <trkpt lat="47.80535" lon="6.81816">
        <ele>1030.4</ele>
        <time>2021-08-09T16:29:53Z</time>
      </trkpt>
      <trkpt lat="47.8053" lon="6.81812">
        <ele>1030.8</ele>
        <time>2021-08-09T16:29:55Z</time>
      </trkpt>
      <trkpt lat="47.80528" lon="6.8181">
        <ele>1030.9</ele>
        <time>2021-08-09T16:29:56Z</time>
      </trkpt>
      <trkpt lat="47.80527" lon="6.81809">
        <ele>1031</ele>
        <time>2021-08-09T16:29:58Z</time>
      </trkpt>
      <trkpt lat="47.80526" lon="6.81812">
        <ele>1031</ele>
        <time>2021-08-09T16:30:00Z</time>
      </trkpt>
      <trkpt lat="47.80525" lon="6.81813">
        <ele>1031.1</ele>
        <time>2021-08-09T16:30:01Z</time>
      </trkpt>
      <trkpt lat="47.80525" lon="6.81815">
        <ele>1031.1</ele>
        <time>2021-08-09T16:30:02Z</time>
      </trkpt>
      <trkpt lat="47.80525" lon="6.81819">
        <ele>1031.2</ele>
        <time>2021-08-09T16:30:04Z</time>
      </trkpt>
      <trkpt lat="47.80524" lon="6.81821">
        <ele>1031.3</ele>
        <time>2021-08-09T16:30:06Z</time>
      </trkpt>
      <trkpt lat="47.80523" lon="6.81822">
        <ele>1031.3</ele>
        <time>2021-08-09T16:30:07Z</time>
      </trkpt>
      <trkpt lat="47.80522" lon="6.81824">
        <ele>1031.4</ele>
        <time>2021-08-09T16:30:09Z</time>
      </trkpt>
      <trkpt lat="47.8052" lon="6.81826">
        <ele>1031.4</ele>
        <time>2021-08-09T16:30:11Z</time>
      </trkpt>
      <trkpt lat="47.8052" lon="6.81827">
        <ele>1031.5</ele>
        <time>2021-08-09T16:30:13Z</time>
      </trkpt>
      <trkpt lat="47.8052" lon="6.81828">
        <ele>1031.5</ele>
        <time>2021-08-09T16:30:14Z</time>
      </trkpt>
      <trkpt lat="47.8051" lon="6.81814">
        <ele>1031.9</ele>
        <time>2021-08-09T16:30:38Z</time>
      </trkpt>
      <trkpt lat="47.8051" lon="6.81814">
        <ele>1031.9</ele>
        <time>2021-08-09T16:30:39Z</time>
      </trkpt>
      <trkpt lat="47.8051" lon="6.81815">
        <ele>1032</ele>
        <time>2021-08-09T16:30:41Z</time>
      </trkpt>
      <trkpt lat="47.80509" lon="6.81815">
        <ele>1032</ele>
        <time>2021-08-09T16:30:42Z</time>
      </trkpt>
      <trkpt lat="47.80508" lon="6.81816">
        <ele>1032</ele>
        <time>2021-08-09T16:30:44Z</time>
      </trkpt>
      <trkpt lat="47.80507" lon="6.81817">
        <ele>1032</ele>
        <time>2021-08-09T16:30:45Z</time>
      </trkpt>
      <trkpt lat="47.80498" lon="6.81823">
        <ele>1032</ele>
        <time>2021-08-09T16:30:47Z</time>
      </trkpt>
      <trkpt lat="47.80492" lon="6.81826">
        <ele>1031.9</ele>
        <time>2021-08-09T16:30:48Z</time>
      </trkpt>
      <trkpt lat="47.80491" lon="6.81829">
        <ele>1031.9</ele>
        <time>2021-08-09T16:30:49Z</time>
      </trkpt>
      <trkpt lat="47.80491" lon="6.8183">
        <ele>1031.8</ele>
        <time>2021-08-09T16:30:50Z</time>
      </trkpt>
      <trkpt lat="47.80493" lon="6.81831">
        <ele>1031.8</ele>
        <time>2021-08-09T16:30:52Z</time>
      </trkpt>
      <trkpt lat="47.80494" lon="6.81832">
        <ele>1031.8</ele>
        <time>2021-08-09T16:30:53Z</time>
      </trkpt>
      <trkpt lat="47.80495" lon="6.81833">
        <ele>1031.7</ele>
        <time>2021-08-09T16:30:54Z</time>
      </trkpt>
      <trkpt lat="47.80495" lon="6.81833">
        <ele>1031.7</ele>
        <time>2021-08-09T16:30:55Z</time>
      </trkpt>
      <trkpt lat="47.80495" lon="6.81834">
        <ele>1031.7</ele>
        <time>2021-08-09T16:30:57Z</time>
      </trkpt>
      <trkpt lat="47.80495" lon="6.81835">
        <ele>1031.7</ele>
        <time>2021-08-09T16:30:58Z</time>
      </trkpt>
      <trkpt lat="47.80494" lon="6.81836">
        <ele>1031.6</ele>
        <time>2021-08-09T16:30:59Z</time>
      </trkpt>
      <trkpt lat="47.80492" lon="6.81837">
        <ele>1031.6</ele>
        <time>2021-08-09T16:31:01Z</time>
      </trkpt>
      <trkpt lat="47.80491" lon="6.81838">
        <ele>1031.5</ele>
        <time>2021-08-09T16:31:03Z</time>
      </trkpt>
      <trkpt lat="47.8049" lon="6.81838">
        <ele>1031.5</ele>
        <time>2021-08-09T16:31:04Z</time>
      </trkpt>
      <trkpt lat="47.8049" lon="6.81839">
        <ele>1031.5</ele>
        <time>2021-08-09T16:31:05Z</time>
      </trkpt>
      <trkpt lat="47.80488" lon="6.81838">
        <ele>1031.4</ele>
        <time>2021-08-09T16:31:07Z</time>
      </trkpt>
      <trkpt lat="47.80486" lon="6.81838">
        <ele>1031.3</ele>
        <time>2021-08-09T16:31:08Z</time>
      </trkpt>
      <trkpt lat="47.80485" lon="6.81838">
        <ele>1031.3</ele>
        <time>2021-08-09T16:31:09Z</time>
      </trkpt>
      <trkpt lat="47.80475" lon="6.81838">
        <ele>1030.8</ele>
        <time>2021-08-09T16:31:11Z</time>
      </trkpt>
      <trkpt lat="47.80467" lon="6.8184">
        <ele>1030.5</ele>
        <time>2021-08-09T16:31:12Z</time>
      </trkpt>
      <trkpt lat="47.80461" lon="6.81846">
        <ele>1030.3</ele>
        <time>2021-08-09T16:31:13Z</time>
      </trkpt>
      <trkpt lat="47.80456" lon="6.81852">
        <ele>1030.1</ele>
        <time>2021-08-09T16:31:14Z</time>
      </trkpt>
      <trkpt lat="47.80448" lon="6.8186">
        <ele>1028.8</ele>
        <time>2021-08-09T16:31:16Z</time>
      </trkpt>
      <trkpt lat="47.80444" lon="6.81862">
        <ele>1028.4</ele>
        <time>2021-08-09T16:31:17Z</time>
      </trkpt>
      <trkpt lat="47.8044" lon="6.81864">
        <ele>1028</ele>
        <time>2021-08-09T16:31:18Z</time>
      </trkpt>
      <trkpt lat="47.80438" lon="6.81865">
        <ele>1027.7</ele>
        <time>2021-08-09T16:31:19Z</time>
      </trkpt>
      <trkpt lat="47.80435" lon="6.81867">
        <ele>1027.2</ele>
        <time>2021-08-09T16:31:21Z</time>
      </trkpt>
      <trkpt lat="47.80432" lon="6.81868">
        <ele>1026.8</ele>
        <time>2021-08-09T16:31:22Z</time>
      </trkpt>
      <trkpt lat="47.80431" lon="6.81869">
        <ele>1026.6</ele>
        <time>2021-08-09T16:31:23Z</time>
      </trkpt>
      <trkpt lat="47.8043" lon="6.81869">
        <ele>1026.6</ele>
        <time>2021-08-09T16:31:24Z</time>
      </trkpt>
      <trkpt lat="47.8043" lon="6.81869">
        <ele>1026.5</ele>
        <time>2021-08-09T16:31:25Z</time>
      </trkpt>
      <trkpt lat="47.8043" lon="6.8187">
        <ele>1026.4</ele>
        <time>2021-08-09T16:31:27Z</time>
      </trkpt>
      <trkpt lat="47.80429" lon="6.81871">
        <ele>1026.2</ele>
        <time>2021-08-09T16:31:29Z</time>
      </trkpt>
      <trkpt lat="47.80428" lon="6.81872">
        <ele>1026.1</ele>
        <time>2021-08-09T16:31:30Z</time>
      </trkpt>
      <trkpt lat="47.80428" lon="6.81873">
        <ele>1026</ele>
        <time>2021-08-09T16:31:31Z</time>
      </trkpt>
      <trkpt lat="47.80428" lon="6.81874">
        <ele>1025.8</ele>
        <time>2021-08-09T16:31:33Z</time>
      </trkpt>
      <trkpt lat="47.80428" lon="6.81876">
        <ele>1025.6</ele>
        <time>2021-08-09T16:31:34Z</time>
      </trkpt>
      <trkpt lat="47.80428" lon="6.81876">
        <ele>1025.5</ele>
        <time>2021-08-09T16:31:35Z</time>
      </trkpt>
      <trkpt lat="47.80427" lon="6.81877">
        <ele>1025.4</ele>
        <time>2021-08-09T16:31:37Z</time>
      </trkpt>
      <trkpt lat="47.80356" lon="6.81948">
        <ele>1013.8</ele>
        <time>2021-08-09T16:32:23Z</time>
      </trkpt>
      <trkpt lat="47.80348" lon="6.81953">
        <ele>1013.4</ele>
        <time>2021-08-09T16:32:24Z</time>
      </trkpt>
      <trkpt lat="47.80342" lon="6.81952">
        <ele>1013.2</ele>
        <time>2021-08-09T16:32:25Z</time>
      </trkpt>
      <trkpt lat="47.80336" lon="6.81951">
        <ele>1013</ele>
        <time>2021-08-09T16:32:27Z</time>
      </trkpt>
      <trkpt lat="47.80328" lon="6.8195">
        <ele>1012.6</ele>
        <time>2021-08-09T16:32:28Z</time>
      </trkpt>
      <trkpt lat="47.80323" lon="6.81951">
        <ele>1012.3</ele>
        <time>2021-08-09T16:32:30Z</time>
      </trkpt>
      <trkpt lat="47.80323" lon="6.81951">
        <ele>1012.3</ele>
        <time>2021-08-09T16:32:32Z</time>
      </trkpt>
      <trkpt lat="47.80322" lon="6.8195">
        <ele>1012.2</ele>
        <time>2021-08-09T16:32:33Z</time>
      </trkpt>
      <trkpt lat="47.80321" lon="6.8195">
        <ele>1012.2</ele>
        <time>2021-08-09T16:32:34Z</time>
      </trkpt>
      <trkpt lat="47.8032" lon="6.81949">
        <ele>1012.1</ele>
        <time>2021-08-09T16:32:35Z</time>
      </trkpt>
      <trkpt lat="47.80319" lon="6.81949">
        <ele>1012</ele>
        <time>2021-08-09T16:32:37Z</time>
      </trkpt>
      <trkpt lat="47.80318" lon="6.81948">
        <ele>1011.8</ele>
        <time>2021-08-09T16:32:38Z</time>
      </trkpt>
      <trkpt lat="47.80319" lon="6.81949">
        <ele>1011.7</ele>
        <time>2021-08-09T16:32:40Z</time>
      </trkpt>
      <trkpt lat="47.80175" lon="6.81881">
        <ele>988</ele>
        <time>2021-08-09T16:32:58Z</time>
      </trkpt>
      <trkpt lat="47.80156" lon="6.8186">
        <ele>985.4</ele>
        <time>2021-08-09T16:33:00Z</time>
      </trkpt>
      <trkpt lat="47.80145" lon="6.81852">
        <ele>983.9</ele>
        <time>2021-08-09T16:33:02Z</time>
      </trkpt>
      <trkpt lat="47.80141" lon="6.81852">
        <ele>983.3</ele>
        <time>2021-08-09T16:33:04Z</time>
      </trkpt>
      <trkpt lat="47.80138" lon="6.81852">
        <ele>982.8</ele>
        <time>2021-08-09T16:33:05Z</time>
      </trkpt>
      <trkpt lat="47.80133" lon="6.81852">
        <ele>982.2</ele>
        <time>2021-08-09T16:33:06Z</time>
      </trkpt>
      <trkpt lat="47.80127" lon="6.81853">
        <ele>981.3</ele>
        <time>2021-08-09T16:33:07Z</time>
      </trkpt>
      <trkpt lat="47.80121" lon="6.81857">
        <ele>980.4</ele>
        <time>2021-08-09T16:33:09Z</time>
      </trkpt>
      <trkpt lat="47.8012" lon="6.81859">
        <ele>980.3</ele>
        <time>2021-08-09T16:33:11Z</time>
      </trkpt>
      <trkpt lat="47.8012" lon="6.8186">
        <ele>980.1</ele>
        <time>2021-08-09T16:33:12Z</time>
      </trkpt>
      <trkpt lat="47.79988" lon="6.81926">
        <ele>968.3</ele>
        <time>2021-08-09T16:33:28Z</time>
      </trkpt>
      <trkpt lat="47.79976" lon="6.81923">
        <ele>966.7</ele>
        <time>2021-08-09T16:33:29Z</time>
      </trkpt>
      <trkpt lat="47.79955" lon="6.81914">
        <ele>966.6</ele>
        <time>2021-08-09T16:33:31Z</time>
      </trkpt>
      <trkpt lat="47.79947" lon="6.81912">
        <ele>966.8</ele>
        <time>2021-08-09T16:33:32Z</time>
      </trkpt>
      <trkpt lat="47.7994" lon="6.81911">
        <ele>966.1</ele>
        <time>2021-08-09T16:33:33Z</time>
      </trkpt>
      <trkpt lat="47.79938" lon="6.81911">
        <ele>966.1</ele>
        <time>2021-08-09T16:33:35Z</time>
      </trkpt>
      <trkpt lat="47.79939" lon="6.81911">
        <ele>966.1</ele>
        <time>2021-08-09T16:33:36Z</time>
      </trkpt>
      <trkpt lat="47.7994" lon="6.8191">
        <ele>966.2</ele>
        <time>2021-08-09T16:33:38Z</time>
      </trkpt>
      <trkpt lat="47.79941" lon="6.8191">
        <ele>966.4</ele>
        <time>2021-08-09T16:33:39Z</time>
      </trkpt>
      <trkpt lat="47.79941" lon="6.8191">
        <ele>966.4</ele>
        <time>2021-08-09T16:33:40Z</time>
      </trkpt>
      <trkpt lat="47.79942" lon="6.8191">
        <ele>966.4</ele>
        <time>2021-08-09T16:33:41Z</time>
      </trkpt>
      <trkpt lat="47.79942" lon="6.8191">
        <ele>966.5</ele>
        <time>2021-08-09T16:33:42Z</time>
      </trkpt>
      <trkpt lat="47.79943" lon="6.82094">
        <ele>928.2</ele>
        <time>2021-08-09T16:33:59Z</time>
      </trkpt>
      <trkpt lat="47.79955" lon="6.82137">
        <ele>915.9</ele>
        <time>2021-08-09T16:34:01Z</time>
      </trkpt>
      <trkpt lat="47.79965" lon="6.82155">
        <ele>910.7</ele>
        <time>2021-08-09T16:34:02Z</time>
      </trkpt>
      <trkpt lat="47.79975" lon="6.82188">
        <ele>900.6</ele>
        <time>2021-08-09T16:34:04Z</time>
      </trkpt>
      <trkpt lat="47.79978" lon="6.82212">
        <ele>895.9</ele>
        <time>2021-08-09T16:34:06Z</time>
      </trkpt>
      <trkpt lat="47.79979" lon="6.82235">
        <ele>889.6</ele>
        <time>2021-08-09T16:34:08Z</time>
      </trkpt>
      <trkpt lat="47.79978" lon="6.82246">
        <ele>888.1</ele>
        <time>2021-08-09T16:34:09Z</time>
      </trkpt>
      <trkpt lat="47.79974" lon="6.82257">
        <ele>887.8</ele>
        <time>2021-08-09T16:34:11Z</time>
      </trkpt>
      <trkpt lat="47.79973" lon="6.82261">
        <ele>887.3</ele>
        <time>2021-08-09T16:34:12Z</time>
      </trkpt>
      <trkpt lat="47.79968" lon="6.82269">
        <ele>888.6</ele>
        <time>2021-08-09T16:34:14Z</time>
      </trkpt>
      <trkpt lat="47.79962" lon="6.82278">
        <ele>890</ele>
        <time>2021-08-09T16:34:15Z</time>
      </trkpt>
      <trkpt lat="47.79961" lon="6.82281">
        <ele>889.6</ele>
        <time>2021-08-09T16:34:17Z</time>
      </trkpt>
      <trkpt lat="47.7996" lon="6.82285">
        <ele>890.7</ele>
        <time>2021-08-09T16:34:18Z</time>
      </trkpt>
      <trkpt lat="47.7996" lon="6.82292">
        <ele>890.1</ele>
        <time>2021-08-09T16:34:19Z</time>
      </trkpt>
      <trkpt lat="47.79957" lon="6.82299">
        <ele>890.6</ele>
        <time>2021-08-09T16:34:21Z</time>
      </trkpt>
      <trkpt lat="47.799" lon="6.82335">
        <ele>907.2</ele>
        <time>2021-08-09T16:34:23Z</time>
      </trkpt>
      <trkpt lat="47.7989" lon="6.82343">
        <ele>907.9</ele>
        <time>2021-08-09T16:34:24Z</time>
      </trkpt>
      <trkpt lat="47.79881" lon="6.82352">
        <ele>908.8</ele>
        <time>2021-08-09T16:34:25Z</time>
      </trkpt>
      <trkpt lat="47.79873" lon="6.82355">
        <ele>910.2</ele>
        <time>2021-08-09T16:34:27Z</time>
      </trkpt>
      <trkpt lat="47.79844" lon="6.82373">
        <ele>914.2</ele>
        <time>2021-08-09T16:34:28Z</time>
      </trkpt>
      <trkpt lat="47.79833" lon="6.82381">
        <ele>915.5</ele>
        <time>2021-08-09T16:34:29Z</time>
      </trkpt>
      <trkpt lat="47.79826" lon="6.82389">
        <ele>914.7</ele>
        <time>2021-08-09T16:34:30Z</time>
      </trkpt>
      <trkpt lat="47.79822" lon="6.82393">
        <ele>914.8</ele>
        <time>2021-08-09T16:34:32Z</time>
      </trkpt>
      <trkpt lat="47.79821" lon="6.82396">
        <ele>914.8</ele>
        <time>2021-08-09T16:34:33Z</time>
      </trkpt>
      <trkpt lat="47.7982" lon="6.82398">
        <ele>913.9</ele>
        <time>2021-08-09T16:34:34Z</time>
      </trkpt>
      <trkpt lat="47.79817" lon="6.82407">
        <ele>913.2</ele>
        <time>2021-08-09T16:34:35Z</time>
      </trkpt>
      <trkpt lat="47.7979" lon="6.82458">
        <ele>908.2</ele>
        <time>2021-08-09T16:34:40Z</time>
      </trkpt>
      <trkpt lat="47.79782" lon="6.82473">
        <ele>907.2</ele>
        <time>2021-08-09T16:34:41Z</time>
      </trkpt>
      <trkpt lat="47.79776" lon="6.82487">
        <ele>906</ele>
        <time>2021-08-09T16:34:42Z</time>
      </trkpt>
      <trkpt lat="47.7977" lon="6.82513">
        <ele>902.8</ele>
        <time>2021-08-09T16:34:44Z</time>
      </trkpt>
      <trkpt lat="47.7977" lon="6.82534">
        <ele>899.6</ele>
        <time>2021-08-09T16:34:46Z</time>
      </trkpt>
      <trkpt lat="47.79774" lon="6.82543">
        <ele>897.8</ele>
        <time>2021-08-09T16:34:47Z</time>
      </trkpt>
      <trkpt lat="47.79778" lon="6.8255">
        <ele>896.9</ele>
        <time>2021-08-09T16:34:48Z</time>
      </trkpt>
      <trkpt lat="47.7979" lon="6.82564">
        <ele>892.6</ele>
        <time>2021-08-09T16:34:49Z</time>
      </trkpt>
      <trkpt lat="47.79793" lon="6.8257">
        <ele>891.7</ele>
        <time>2021-08-09T16:34:50Z</time>
      </trkpt>
      <trkpt lat="47.79811" lon="6.82591">
        <ele>887.5</ele>
        <time>2021-08-09T16:34:52Z</time>
      </trkpt>
      <trkpt lat="47.79824" lon="6.82604">
        <ele>884.7</ele>
        <time>2021-08-09T16:34:54Z</time>
      </trkpt>
      <trkpt lat="47.79829" lon="6.82607">
        <ele>884.3</ele>
        <time>2021-08-09T16:34:55Z</time>
      </trkpt>
      <trkpt lat="47.79837" lon="6.82612">
        <ele>882.1</ele>
        <time>2021-08-09T16:34:56Z</time>
      </trkpt>
      <trkpt lat="47.79852" lon="6.82609">
        <ele>881.3</ele>
        <time>2021-08-09T16:34:57Z</time>
      </trkpt>
      <trkpt lat="47.79861" lon="6.82608">
        <ele>880.2</ele>
        <time>2021-08-09T16:34:59Z</time>
      </trkpt>
      <trkpt lat="47.7987" lon="6.82607">
        <ele>879</ele>
        <time>2021-08-09T16:35:00Z</time>
      </trkpt>
      <trkpt lat="47.79885" lon="6.82608">
        <ele>877.3</ele>
        <time>2021-08-09T16:35:02Z</time>
      </trkpt>
      <trkpt lat="47.79897" lon="6.82605">
        <ele>876.5</ele>
        <time>2021-08-09T16:35:04Z</time>
      </trkpt>
      <trkpt lat="47.79898" lon="6.82605">
        <ele>876.5</ele>
        <time>2021-08-09T16:35:05Z</time>
      </trkpt>
      <trkpt lat="47.79901" lon="6.82605">
        <ele>876.4</ele>
        <time>2021-08-09T16:35:06Z</time>
      </trkpt>
      <trkpt lat="47.79906" lon="6.82604">
        <ele>876.1</ele>
        <time>2021-08-09T16:35:07Z</time>
      </trkpt>
      <trkpt lat="47.79909" lon="6.82604">
        <ele>876.1</ele>
        <time>2021-08-09T16:35:08Z</time>
      </trkpt>
      <trkpt lat="47.79911" lon="6.82604">
        <ele>876</ele>
        <time>2021-08-09T16:35:10Z</time>
      </trkpt>
      <trkpt lat="47.7993" lon="6.82604">
        <ele>875.4</ele>
        <time>2021-08-09T16:35:11Z</time>
      </trkpt>
      <trkpt lat="47.79936" lon="6.82605">
        <ele>875.3</ele>
        <time>2021-08-09T16:35:12Z</time>
      </trkpt>
      <trkpt lat="47.79987" lon="6.82583">
        <ele>872.3</ele>
        <time>2021-08-09T16:35:30Z</time>
      </trkpt>
      <trkpt lat="47.79986" lon="6.82578">
        <ele>873</ele>
        <time>2021-08-09T16:35:32Z</time>
      </trkpt>
      <trkpt lat="47.79985" lon="6.82575">
        <ele>873.4</ele>
        <time>2021-08-09T16:35:33Z</time>
      </trkpt>
      <trkpt lat="47.79985" lon="6.82574">
        <ele>873.4</ele>
        <time>2021-08-09T16:35:34Z</time>
      </trkpt>
      <trkpt lat="47.79984" lon="6.82573">
        <ele>873.5</ele>
        <time>2021-08-09T16:35:36Z</time>
      </trkpt>
      <trkpt lat="47.79972" lon="6.8255">
        <ele>876.9</ele>
        <time>2021-08-09T16:35:37Z</time>
      </trkpt>
      <trkpt lat="47.7997" lon="6.82547">
        <ele>877.1</ele>
        <time>2021-08-09T16:35:38Z</time>
      </trkpt>
      <trkpt lat="47.7997" lon="6.82542">
        <ele>877.3</ele>
        <time>2021-08-09T16:35:40Z</time>
      </trkpt>
      <trkpt lat="47.79969" lon="6.8254">
        <ele>877.3</ele>
        <time>2021-08-09T16:35:41Z</time>
      </trkpt>
      <trkpt lat="47.7997" lon="6.82537">
        <ele>877.5</ele>
        <time>2021-08-09T16:35:42Z</time>
      </trkpt>
      <trkpt lat="47.80007" lon="6.82452">
        <ele>876.1</ele>
        <time>2021-08-09T16:36:08Z</time>
      </trkpt>
      <trkpt lat="47.80011" lon="6.82451">
        <ele>875.8</ele>
        <time>2021-08-09T16:36:10Z</time>
      </trkpt>
      <trkpt lat="47.80017" lon="6.82448">
        <ele>875.2</ele>
        <time>2021-08-09T16:36:11Z</time>
      </trkpt>
      <trkpt lat="47.80022" lon="6.82445">
        <ele>874.3</ele>
        <time>2021-08-09T16:36:12Z</time>
      </trkpt>
      <trkpt lat="47.80029" lon="6.82441">
        <ele>873.4</ele>
        <time>2021-08-09T16:36:14Z</time>
      </trkpt>
      <trkpt lat="47.80036" lon="6.82436">
        <ele>871.9</ele>
        <time>2021-08-09T16:36:15Z</time>
      </trkpt>
      <trkpt lat="47.80044" lon="6.82431">
        <ele>871</ele>
        <time>2021-08-09T16:36:16Z</time>
      </trkpt>
      <trkpt lat="47.80049" lon="6.82427">
        <ele>870.7</ele>
        <time>2021-08-09T16:36:18Z</time>
      </trkpt>
      <trkpt lat="47.80057" lon="6.8242">
        <ele>870.4</ele>
        <time>2021-08-09T16:36:19Z</time>
      </trkpt>
      <trkpt lat="47.80064" lon="6.82413">
        <ele>870.3</ele>
        <time>2021-08-09T16:36:21Z</time>
      </trkpt>
      <trkpt lat="47.80068" lon="6.82409">
        <ele>870.2</ele>
        <time>2021-08-09T16:36:23Z</time>
      </trkpt>
      <trkpt lat="47.80071" lon="6.82405">
        <ele>870.2</ele>
        <time>2021-08-09T16:36:24Z</time>
      </trkpt>
      <trkpt lat="47.80074" lon="6.82399">
        <ele>870.2</ele>
        <time>2021-08-09T16:36:25Z</time>
      </trkpt>
      <trkpt lat="47.80076" lon="6.82394">
        <ele>870.3</ele>
        <time>2021-08-09T16:36:26Z</time>
      </trkpt>
      <trkpt lat="47.80077" lon="6.82388">
        <ele>870.3</ele>
        <time>2021-08-09T16:36:28Z</time>
      </trkpt>
      <trkpt lat="47.80077" lon="6.8238">
        <ele>870.3</ele>
        <time>2021-08-09T16:36:29Z</time>
      </trkpt>
      <trkpt lat="47.80079" lon="6.82375">
        <ele>870.4</ele>
        <time>2021-08-09T16:36:30Z</time>
      </trkpt>
      <trkpt lat="47.80081" lon="6.82368">
        <ele>870.4</ele>
        <time>2021-08-09T16:36:31Z</time>
      </trkpt>
      <trkpt lat="47.80082" lon="6.82362">
        <ele>870.5</ele>
        <time>2021-08-09T16:36:33Z</time>
      </trkpt>
      <trkpt lat="47.80084" lon="6.82356">
        <ele>870.6</ele>
        <time>2021-08-09T16:36:34Z</time>
      </trkpt>
      <trkpt lat="47.80085" lon="6.82348">
        <ele>870.7</ele>
        <time>2021-08-09T16:36:36Z</time>
      </trkpt>
      <trkpt lat="47.80086" lon="6.8234">
        <ele>870.8</ele>
        <time>2021-08-09T16:36:38Z</time>
      </trkpt>
      <trkpt lat="47.80086" lon="6.8233">
        <ele>870.9</ele>
        <time>2021-08-09T16:36:39Z</time>
      </trkpt>
      <trkpt lat="47.80087" lon="6.82322">
        <ele>871</ele>
        <time>2021-08-09T16:36:41Z</time>
      </trkpt>
      <trkpt lat="47.80089" lon="6.82315">
        <ele>871.1</ele>
        <time>2021-08-09T16:36:42Z</time>
      </trkpt>
      <trkpt lat="47.80091" lon="6.82311">
        <ele>871.1</ele>
        <time>2021-08-09T16:36:43Z</time>
      </trkpt>
      <trkpt lat="47.80093" lon="6.82307">
        <ele>871.1</ele>
        <time>2021-08-09T16:36:44Z</time>
      </trkpt>
      <trkpt lat="47.80096" lon="6.82304">
        <ele>871.1</ele>
        <time>2021-08-09T16:36:46Z</time>
      </trkpt>
      <trkpt lat="47.801" lon="6.823">
        <ele>871.1</ele>
        <time>2021-08-09T16:36:48Z</time>
      </trkpt>
      <trkpt lat="47.80108" lon="6.82294">
        <ele>871.1</ele>
        <time>2021-08-09T16:36:50Z</time>
      </trkpt>
      <trkpt lat="47.80117" lon="6.82291">
        <ele>870.8</ele>
        <time>2021-08-09T16:36:52Z</time>
      </trkpt>
      <trkpt lat="47.80127" lon="6.82303">
        <ele>870.2</ele>
        <time>2021-08-09T16:36:54Z</time>
      </trkpt>
      <trkpt lat="47.80134" lon="6.82308">
        <ele>869.7</ele>
        <time>2021-08-09T16:36:55Z</time>
      </trkpt>
      <trkpt lat="47.80141" lon="6.82312">
        <ele>869</ele>
        <time>2021-08-09T16:36:56Z</time>
      </trkpt>
      <trkpt lat="47.80157" lon="6.82318">
        <ele>867.4</ele>
        <time>2021-08-09T16:36:58Z</time>
      </trkpt>
      <trkpt lat="47.80165" lon="6.82322">
        <ele>866.4</ele>
        <time>2021-08-09T16:36:59Z</time>
      </trkpt>
      <trkpt lat="47.80175" lon="6.82326">
        <ele>865.1</ele>
        <time>2021-08-09T16:37:01Z</time>
      </trkpt>
      <trkpt lat="47.80192" lon="6.82333">
        <ele>862.7</ele>
        <time>2021-08-09T16:37:03Z</time>
      </trkpt>
      <trkpt lat="47.802" lon="6.82338">
        <ele>861.7</ele>
        <time>2021-08-09T16:37:04Z</time>
      </trkpt>
      <trkpt lat="47.80205" lon="6.82341">
        <ele>861</ele>
        <time>2021-08-09T16:37:05Z</time>
      </trkpt>
      <trkpt lat="47.80209" lon="6.82347">
        <ele>860.6</ele>
        <time>2021-08-09T16:37:06Z</time>
      </trkpt>
      <trkpt lat="47.80219" lon="6.82355">
        <ele>859.6</ele>
        <time>2021-08-09T16:37:08Z</time>
      </trkpt>
      <trkpt lat="47.80232" lon="6.82367">
        <ele>858.3</ele>
        <time>2021-08-09T16:37:10Z</time>
      </trkpt>
      <trkpt lat="47.80239" lon="6.8238">
        <ele>857.3</ele>
        <time>2021-08-09T16:37:12Z</time>
      </trkpt>
      <trkpt lat="47.80237" lon="6.82401">
        <ele>855.7</ele>
        <time>2021-08-09T16:37:14Z</time>
      </trkpt>
      <trkpt lat="47.80229" lon="6.82429">
        <ele>852.5</ele>
        <time>2021-08-09T16:37:16Z</time>
      </trkpt>
      <trkpt lat="47.80223" lon="6.82455">
        <ele>849.8</ele>
        <time>2021-08-09T16:37:18Z</time>
      </trkpt>
      <trkpt lat="47.80227" lon="6.82477">
        <ele>847.5</ele>
        <time>2021-08-09T16:37:20Z</time>
      </trkpt>
      <trkpt lat="47.8023" lon="6.82485">
        <ele>846.6</ele>
        <time>2021-08-09T16:37:21Z</time>
      </trkpt>
      <trkpt lat="47.80233" lon="6.82492">
        <ele>845.7</ele>
        <time>2021-08-09T16:37:23Z</time>
      </trkpt>
      <trkpt lat="47.80235" lon="6.82497">
        <ele>845.1</ele>
        <time>2021-08-09T16:37:24Z</time>
      </trkpt>
      <trkpt lat="47.80237" lon="6.82509">
        <ele>844</ele>
        <time>2021-08-09T16:37:26Z</time>
      </trkpt>
      <trkpt lat="47.80239" lon="6.82516">
        <ele>843.3</ele>
        <time>2021-08-09T16:37:28Z</time>
      </trkpt>
      <trkpt lat="47.8024" lon="6.8252">
        <ele>842.9</ele>
        <time>2021-08-09T16:37:29Z</time>
      </trkpt>
      <trkpt lat="47.80241" lon="6.82522">
        <ele>842.7</ele>
        <time>2021-08-09T16:37:30Z</time>
      </trkpt>
      <trkpt lat="47.80243" lon="6.82525">
        <ele>842.3</ele>
        <time>2021-08-09T16:37:31Z</time>
      </trkpt>
      <trkpt lat="47.80244" lon="6.82528">
        <ele>842</ele>
        <time>2021-08-09T16:37:33Z</time>
      </trkpt>
      <trkpt lat="47.80247" lon="6.82535">
        <ele>841.2</ele>
        <time>2021-08-09T16:37:34Z</time>
      </trkpt>
      <trkpt lat="47.80249" lon="6.82539">
        <ele>840.6</ele>
        <time>2021-08-09T16:37:35Z</time>
      </trkpt>
      <trkpt lat="47.80251" lon="6.8255">
        <ele>839.5</ele>
        <time>2021-08-09T16:37:36Z</time>
      </trkpt>
      <trkpt lat="47.80252" lon="6.82572">
        <ele>837.2</ele>
        <time>2021-08-09T16:37:38Z</time>
      </trkpt>
      <trkpt lat="47.80251" lon="6.82593">
        <ele>834.9</ele>
        <time>2021-08-09T16:37:40Z</time>
      </trkpt>
      <trkpt lat="47.80249" lon="6.82604">
        <ele>833.8</ele>
        <time>2021-08-09T16:37:41Z</time>
      </trkpt>
      <trkpt lat="47.80247" lon="6.82615">
        <ele>832.8</ele>
        <time>2021-08-09T16:37:42Z</time>
      </trkpt>
      <trkpt lat="47.80245" lon="6.82631">
        <ele>831.5</ele>
        <time>2021-08-09T16:37:44Z</time>
      </trkpt>
      <trkpt lat="47.80244" lon="6.82639">
        <ele>830.9</ele>
        <time>2021-08-09T16:37:45Z</time>
      </trkpt>
      <trkpt lat="47.80244" lon="6.82654">
        <ele>829.6</ele>
        <time>2021-08-09T16:37:47Z</time>
      </trkpt>
      <trkpt lat="47.80245" lon="6.82661">
        <ele>828.9</ele>
        <time>2021-08-09T16:37:48Z</time>
      </trkpt>
      <trkpt lat="47.8025" lon="6.82668">
        <ele>827.9</ele>
        <time>2021-08-09T16:37:49Z</time>
      </trkpt>
      <trkpt lat="47.80258" lon="6.82673">
        <ele>826.6</ele>
        <time>2021-08-09T16:37:50Z</time>
      </trkpt>
      <trkpt lat="47.80272" lon="6.8268">
        <ele>824.8</ele>
        <time>2021-08-09T16:37:52Z</time>
      </trkpt>
      <trkpt lat="47.80279" lon="6.82682">
        <ele>824</ele>
        <time>2021-08-09T16:37:53Z</time>
      </trkpt>
      <trkpt lat="47.80294" lon="6.82691">
        <ele>822.7</ele>
        <time>2021-08-09T16:37:55Z</time>
      </trkpt>
      <trkpt lat="47.803" lon="6.82697">
        <ele>822.3</ele>
        <time>2021-08-09T16:37:56Z</time>
      </trkpt>
      <trkpt lat="47.80307" lon="6.82708">
        <ele>822.1</ele>
        <time>2021-08-09T16:37:58Z</time>
      </trkpt>
      <trkpt lat="47.8031" lon="6.82716">
        <ele>822.1</ele>
        <time>2021-08-09T16:37:59Z</time>
      </trkpt>
      <trkpt lat="47.80318" lon="6.82728">
        <ele>821.7</ele>
        <time>2021-08-09T16:38:00Z</time>
      </trkpt>
      <trkpt lat="47.80321" lon="6.82735">
        <ele>821.7</ele>
        <time>2021-08-09T16:38:02Z</time>
      </trkpt>
      <trkpt lat="47.80322" lon="6.82742">
        <ele>821.2</ele>
        <time>2021-08-09T16:38:03Z</time>
      </trkpt>
      <trkpt lat="47.80314" lon="6.82754">
        <ele>819.7</ele>
        <time>2021-08-09T16:38:05Z</time>
      </trkpt>
      <trkpt lat="47.8031" lon="6.82762">
        <ele>818.8</ele>
        <time>2021-08-09T16:38:06Z</time>
      </trkpt>
      <trkpt lat="47.80301" lon="6.82774">
        <ele>817</ele>
        <time>2021-08-09T16:38:08Z</time>
      </trkpt>
      <trkpt lat="47.80295" lon="6.82781">
        <ele>816</ele>
        <time>2021-08-09T16:38:10Z</time>
      </trkpt>
      <trkpt lat="47.80292" lon="6.82783">
        <ele>815.7</ele>
        <time>2021-08-09T16:38:11Z</time>
      </trkpt>
      <trkpt lat="47.8029" lon="6.82788">
        <ele>815.1</ele>
        <time>2021-08-09T16:38:13Z</time>
      </trkpt>
      <trkpt lat="47.80289" lon="6.8279">
        <ele>814.8</ele>
        <time>2021-08-09T16:38:14Z</time>
      </trkpt>
      <trkpt lat="47.80288" lon="6.82792">
        <ele>814.7</ele>
        <time>2021-08-09T16:38:16Z</time>
      </trkpt>
      <trkpt lat="47.80287" lon="6.82793">
        <ele>814.7</ele>
        <time>2021-08-09T16:38:17Z</time>
      </trkpt>
      <trkpt lat="47.80287" lon="6.82793">
        <ele>814.7</ele>
        <time>2021-08-09T16:38:19Z</time>
      </trkpt>
      <trkpt lat="47.80287" lon="6.82793">
        <ele>814.7</ele>
        <time>2021-08-09T16:38:20Z</time>
      </trkpt>
      <trkpt lat="47.80285" lon="6.82794">
        <ele>814.6</ele>
        <time>2021-08-09T16:38:22Z</time>
      </trkpt>
      <trkpt lat="47.80283" lon="6.82795">
        <ele>814.4</ele>
        <time>2021-08-09T16:38:23Z</time>
      </trkpt>
      <trkpt lat="47.80282" lon="6.82795">
        <ele>814.4</ele>
        <time>2021-08-09T16:38:24Z</time>
      </trkpt>
      <trkpt lat="47.80286" lon="6.82817">
        <ele>813.9</ele>
        <time>2021-08-09T16:38:36Z</time>
      </trkpt>
      <trkpt lat="47.80288" lon="6.8282">
        <ele>813.8</ele>
        <time>2021-08-09T16:38:37Z</time>
      </trkpt>
      <trkpt lat="47.80291" lon="6.82826">
        <ele>813.8</ele>
        <time>2021-08-09T16:38:38Z</time>
      </trkpt>
      <trkpt lat="47.80295" lon="6.82838">
        <ele>813.9</ele>
        <time>2021-08-09T16:38:40Z</time>
      </trkpt>
      <trkpt lat="47.80297" lon="6.82846">
        <ele>814.1</ele>
        <time>2021-08-09T16:38:41Z</time>
      </trkpt>
      <trkpt lat="47.803" lon="6.82864">
        <ele>814.2</ele>
        <time>2021-08-09T16:38:43Z</time>
      </trkpt>
      <trkpt lat="47.80301" lon="6.82869">
        <ele>814.2</ele>
        <time>2021-08-09T16:38:44Z</time>
      </trkpt>
      <trkpt lat="47.80302" lon="6.82876">
        <ele>814.2</ele>
        <time>2021-08-09T16:38:45Z</time>
      </trkpt>
      <trkpt lat="47.80303" lon="6.8289">
        <ele>814.2</ele>
        <time>2021-08-09T16:38:47Z</time>
      </trkpt>
      <trkpt lat="47.80306" lon="6.82905">
        <ele>814.1</ele>
        <time>2021-08-09T16:38:49Z</time>
      </trkpt>
      <trkpt lat="47.80306" lon="6.82912">
        <ele>813.9</ele>
        <time>2021-08-09T16:38:50Z</time>
      </trkpt>
      <trkpt lat="47.8031" lon="6.82928">
        <ele>813.5</ele>
        <time>2021-08-09T16:38:52Z</time>
      </trkpt>
      <trkpt lat="47.80314" lon="6.82939">
        <ele>813.3</ele>
        <time>2021-08-09T16:38:54Z</time>
      </trkpt>
      <trkpt lat="47.80321" lon="6.82958">
        <ele>813.1</ele>
        <time>2021-08-09T16:38:56Z</time>
      </trkpt>
      <trkpt lat="47.80321" lon="6.82972">
        <ele>813.1</ele>
        <time>2021-08-09T16:38:58Z</time>
      </trkpt>
      <trkpt lat="47.8032" lon="6.82987">
        <ele>813.1</ele>
        <time>2021-08-09T16:39:00Z</time>
      </trkpt>
      <trkpt lat="47.80319" lon="6.82993">
        <ele>813.1</ele>
        <time>2021-08-09T16:39:01Z</time>
      </trkpt>
      <trkpt lat="47.80317" lon="6.83002">
        <ele>813.2</ele>
        <time>2021-08-09T16:39:03Z</time>
      </trkpt>
      <trkpt lat="47.80314" lon="6.83001">
        <ele>813.2</ele>
        <time>2021-08-09T16:39:05Z</time>
      </trkpt>
      <trkpt lat="47.80219" lon="6.83027">
        <ele>812.6</ele>
        <time>2021-08-09T16:41:06Z</time>
      </trkpt>
      <trkpt lat="47.80216" lon="6.83029">
        <ele>811.4</ele>
        <time>2021-08-09T16:41:07Z</time>
      </trkpt>
      <trkpt lat="47.80213" lon="6.83029">
        <ele>810.5</ele>
        <time>2021-08-09T16:41:08Z</time>
      </trkpt>
      <trkpt lat="47.80205" lon="6.83029">
        <ele>808.3</ele>
        <time>2021-08-09T16:41:10Z</time>
      </trkpt>
      <trkpt lat="47.80203" lon="6.83026">
        <ele>807.4</ele>
        <time>2021-08-09T16:41:11Z</time>
      </trkpt>
      <trkpt lat="47.80202" lon="6.83025">
        <ele>807</ele>
        <time>2021-08-09T16:41:12Z</time>
      </trkpt>
      <trkpt lat="47.802" lon="6.83021">
        <ele>806.3</ele>
        <time>2021-08-09T16:41:13Z</time>
      </trkpt>
      <trkpt lat="47.802" lon="6.83019">
        <ele>805.9</ele>
        <time>2021-08-09T16:41:14Z</time>
      </trkpt>
      <trkpt lat="47.802" lon="6.83016">
        <ele>805.4</ele>
        <time>2021-08-09T16:41:16Z</time>
      </trkpt>
      <trkpt lat="47.802" lon="6.83015">
        <ele>801.5</ele>
        <time>2021-08-09T16:41:17Z</time>
      </trkpt>
      <trkpt lat="47.802" lon="6.83014">
        <ele>801.4</ele>
        <time>2021-08-09T16:41:18Z</time>
      </trkpt>
      <trkpt lat="47.802" lon="6.83013">
        <ele>801.4</ele>
        <time>2021-08-09T16:41:19Z</time>
      </trkpt>
      <trkpt lat="47.802" lon="6.83013">
        <ele>801.4</ele>
        <time>2021-08-09T16:41:20Z</time>
      </trkpt>
      <trkpt lat="47.80199" lon="6.83012">
        <ele>801.4</ele>
        <time>2021-08-09T16:41:21Z</time>
      </trkpt>
      <trkpt lat="47.80199" lon="6.83012">
        <ele>801.4</ele>
        <time>2021-08-09T16:41:22Z</time>
      </trkpt>
      <trkpt lat="47.80199" lon="6.83012">
        <ele>801.4</ele>
        <time>2021-08-09T16:41:23Z</time>
      </trkpt>
      <trkpt lat="47.80199" lon="6.83012">
        <ele>801.3</ele>
        <time>2021-08-09T16:41:25Z</time>
      </trkpt>
      <trkpt lat="47.80199" lon="6.83012">
        <ele>801.3</ele>
        <time>2021-08-09T16:41:26Z</time>
      </trkpt>
      <trkpt lat="47.80205" lon="6.83025">
        <ele>800.8</ele>
        <time>2021-08-09T16:43:09Z</time>
      </trkpt>
      <trkpt lat="47.80203" lon="6.83027">
        <ele>800.6</ele>
        <time>2021-08-09T16:43:10Z</time>
      </trkpt>
      <trkpt lat="47.80198" lon="6.8303">
        <ele>800.4</ele>
        <time>2021-08-09T16:43:11Z</time>
      </trkpt>
      <trkpt lat="47.80194" lon="6.83032">
        <ele>799.7</ele>
        <time>2021-08-09T16:43:13Z</time>
      </trkpt>
      <trkpt lat="47.80188" lon="6.83035">
        <ele>797.2</ele>
        <time>2021-08-09T16:43:14Z</time>
      </trkpt>
      <trkpt lat="47.80183" lon="6.83039">
        <ele>795.2</ele>
        <time>2021-08-09T16:43:15Z</time>
      </trkpt>
      <trkpt lat="47.80179" lon="6.83042">
        <ele>793.5</ele>
        <time>2021-08-09T16:43:17Z</time>
      </trkpt>
      <trkpt lat="47.80177" lon="6.83043">
        <ele>793</ele>
        <time>2021-08-09T16:43:18Z</time>
      </trkpt>
      <trkpt lat="47.80175" lon="6.83043">
        <ele>792.4</ele>
        <time>2021-08-09T16:43:19Z</time>
      </trkpt>
      <trkpt lat="47.80174" lon="6.83044">
        <ele>792</ele>
        <time>2021-08-09T16:43:21Z</time>
      </trkpt>
      <trkpt lat="47.80174" lon="6.83044">
        <ele>791.7</ele>
        <time>2021-08-09T16:43:22Z</time>
      </trkpt>
      <trkpt lat="47.80173" lon="6.83044">
        <ele>791.6</ele>
        <time>2021-08-09T16:43:23Z</time>
      </trkpt>
      <trkpt lat="47.80173" lon="6.83044">
        <ele>791.6</ele>
        <time>2021-08-09T16:43:25Z</time>
      </trkpt>
      <trkpt lat="47.80173" lon="6.83044">
        <ele>791.5</ele>
        <time>2021-08-09T16:43:26Z</time>
      </trkpt>
      <trkpt lat="47.80173" lon="6.83044">
        <ele>791.4</ele>
        <time>2021-08-09T16:43:27Z</time>
      </trkpt>
      <trkpt lat="47.80173" lon="6.83044">
        <ele>791.4</ele>
        <time>2021-08-09T16:43:29Z</time>
      </trkpt>
      <trkpt lat="47.80173" lon="6.83044">
        <ele>791.2</ele>
        <time>2021-08-09T16:43:30Z</time>
      </trkpt>
      <trkpt lat="47.80174" lon="6.83044">
        <ele>790.9</ele>
        <time>2021-08-09T16:43:32Z</time>
      </trkpt>
      <trkpt lat="47.80147" lon="6.83044">
        <ele>782.9</ele>
        <time>2021-08-09T16:44:55Z</time>
      </trkpt>
      <trkpt lat="47.80142" lon="6.83047">
        <ele>782.2</ele>
        <time>2021-08-09T16:44:57Z</time>
      </trkpt>
      <trkpt lat="47.80137" lon="6.83055">
        <ele>781.3</ele>
        <time>2021-08-09T16:44:58Z</time>
      </trkpt>
      <trkpt lat="47.80134" lon="6.83061">
        <ele>780.5</ele>
        <time>2021-08-09T16:44:59Z</time>
      </trkpt>
      <trkpt lat="47.80131" lon="6.83066">
        <ele>779.7</ele>
        <time>2021-08-09T16:45:01Z</time>
      </trkpt>
      <trkpt lat="47.80125" lon="6.83072">
        <ele>778.4</ele>
        <time>2021-08-09T16:45:02Z</time>
      </trkpt>
      <trkpt lat="47.80122" lon="6.83075">
        <ele>777.6</ele>
        <time>2021-08-09T16:45:04Z</time>
      </trkpt>
      <trkpt lat="47.8012" lon="6.83079">
        <ele>776.9</ele>
        <time>2021-08-09T16:45:05Z</time>
      </trkpt>
      <trkpt lat="47.8012" lon="6.8308">
        <ele>776.7</ele>
        <time>2021-08-09T16:45:06Z</time>
      </trkpt>
      <trkpt lat="47.80119" lon="6.83082">
        <ele>776.4</ele>
        <time>2021-08-09T16:45:08Z</time>
      </trkpt>
      <trkpt lat="47.80119" lon="6.83083">
        <ele>776.3</ele>
        <time>2021-08-09T16:45:10Z</time>
      </trkpt>
      <trkpt lat="47.80119" lon="6.83083">
        <ele>776.2</ele>
        <time>2021-08-09T16:45:12Z</time>
      </trkpt>
      <trkpt lat="47.80119" lon="6.83084">
        <ele>776.1</ele>
        <time>2021-08-09T16:45:13Z</time>
      </trkpt>
      <trkpt lat="47.80119" lon="6.83084">
        <ele>776.1</ele>
        <time>2021-08-09T16:45:15Z</time>
      </trkpt>
      <trkpt lat="47.80102" lon="6.83135">
        <ele>765.5</ele>
        <time>2021-08-09T16:45:51Z</time>
      </trkpt>
      <trkpt lat="47.80099" lon="6.83138">
        <ele>764.4</ele>
        <time>2021-08-09T16:45:52Z</time>
      </trkpt>
      <trkpt lat="47.80096" lon="6.83141">
        <ele>763.2</ele>
        <time>2021-08-09T16:45:53Z</time>
      </trkpt>
      <trkpt lat="47.80093" lon="6.83143">
        <ele>762.3</ele>
        <time>2021-08-09T16:45:55Z</time>
      </trkpt>
      <trkpt lat="47.8009" lon="6.83144">
        <ele>761.4</ele>
        <time>2021-08-09T16:45:56Z</time>
      </trkpt>
      <trkpt lat="47.80088" lon="6.83145">
        <ele>760.5</ele>
        <time>2021-08-09T16:45:57Z</time>
      </trkpt>
      <trkpt lat="47.80085" lon="6.83147">
        <ele>759.8</ele>
        <time>2021-08-09T16:45:58Z</time>
      </trkpt>
      <trkpt lat="47.80083" lon="6.83148">
        <ele>759.1</ele>
        <time>2021-08-09T16:45:59Z</time>
      </trkpt>
      <trkpt lat="47.80081" lon="6.83149">
        <ele>758.4</ele>
        <time>2021-08-09T16:46:00Z</time>
      </trkpt>
      <trkpt lat="47.80079" lon="6.8315">
        <ele>757.7</ele>
        <time>2021-08-09T16:46:02Z</time>
      </trkpt>
      <trkpt lat="47.80077" lon="6.83151">
        <ele>757</ele>
        <time>2021-08-09T16:46:03Z</time>
      </trkpt>
      <trkpt lat="47.80075" lon="6.83152">
        <ele>756.2</ele>
        <time>2021-08-09T16:46:27Z</time>
      </trkpt>
      <trkpt lat="47.80073" lon="6.83153">
        <ele>755.5</ele>
        <time>2021-08-09T16:46:28Z</time>
      </trkpt>
      <trkpt lat="47.80066" lon="6.83153">
        <ele>753.3</ele>
        <time>2021-08-09T16:46:30Z</time>
      </trkpt>
      <trkpt lat="47.80064" lon="6.83152">
        <ele>752.5</ele>
        <time>2021-08-09T16:46:31Z</time>
      </trkpt>
      <trkpt lat="47.80059" lon="6.83152">
        <ele>750.8</ele>
        <time>2021-08-09T16:46:33Z</time>
      </trkpt>
      <trkpt lat="47.80057" lon="6.83154">
        <ele>749.7</ele>
        <time>2021-08-09T16:46:34Z</time>
      </trkpt>
      <trkpt lat="47.80055" lon="6.83156">
        <ele>748.7</ele>
        <time>2021-08-09T16:46:35Z</time>
      </trkpt>
      <trkpt lat="47.80052" lon="6.83157">
        <ele>747.5</ele>
        <time>2021-08-09T16:46:37Z</time>
      </trkpt>
      <trkpt lat="47.80049" lon="6.83156">
        <ele>746.4</ele>
        <time>2021-08-09T16:46:39Z</time>
      </trkpt>
      <trkpt lat="47.80047" lon="6.83157">
        <ele>745.8</ele>
        <time>2021-08-09T16:46:41Z</time>
      </trkpt>
      <trkpt lat="47.80047" lon="6.83158">
        <ele>745.6</ele>
        <time>2021-08-09T16:46:43Z</time>
      </trkpt>
      <trkpt lat="47.80047" lon="6.83158">
        <ele>745.5</ele>
        <time>2021-08-09T16:46:44Z</time>
      </trkpt>
      <trkpt lat="47.80047" lon="6.83158">
        <ele>745.5</ele>
        <time>2021-08-09T16:46:45Z</time>
      </trkpt>
      <trkpt lat="47.80046" lon="6.83159">
        <ele>745.2</ele>
        <time>2021-08-09T16:46:47Z</time>
      </trkpt>
      <trkpt lat="47.80001" lon="6.83246">
        <ele>696.6</ele>
        <time>2021-08-09T16:50:45Z</time>
      </trkpt>
      <trkpt lat="47.8" lon="6.83253">
        <ele>698.6</ele>
        <time>2021-08-09T16:50:46Z</time>
      </trkpt>
      <trkpt lat="47.79995" lon="6.83262">
        <ele>701.7</ele>
        <time>2021-08-09T16:50:47Z</time>
      </trkpt>
      <trkpt lat="47.79992" lon="6.8327">
        <ele>704.2</ele>
        <time>2021-08-09T16:50:48Z</time>
      </trkpt>
      <trkpt lat="47.79991" lon="6.83278">
        <ele>706.2</ele>
        <time>2021-08-09T16:50:50Z</time>
      </trkpt>
      <trkpt lat="47.79991" lon="6.83286">
        <ele>704.6</ele>
        <time>2021-08-09T16:50:51Z</time>
      </trkpt>
      <trkpt lat="47.79991" lon="6.83295">
        <ele>703.8</ele>
        <time>2021-08-09T16:50:53Z</time>
      </trkpt>
      <trkpt lat="47.79991" lon="6.833">
        <ele>703.4</ele>
        <time>2021-08-09T16:50:54Z</time>
      </trkpt>
      <trkpt lat="47.7999" lon="6.83308">
        <ele>702.8</ele>
        <time>2021-08-09T16:50:55Z</time>
      </trkpt>
      <trkpt lat="47.79989" lon="6.83314">
        <ele>702.1</ele>
        <time>2021-08-09T16:50:57Z</time>
      </trkpt>
      <trkpt lat="47.79987" lon="6.83319">
        <ele>701.6</ele>
        <time>2021-08-09T16:50:58Z</time>
      </trkpt>
      <trkpt lat="47.79985" lon="6.83323">
        <ele>701.2</ele>
        <time>2021-08-09T16:50:59Z</time>
      </trkpt>
      <trkpt lat="47.7998" lon="6.83325">
        <ele>700.6</ele>
        <time>2021-08-09T16:51:00Z</time>
      </trkpt>
      <trkpt lat="47.7997" lon="6.83329">
        <ele>699.3</ele>
        <time>2021-08-09T16:51:02Z</time>
      </trkpt>
      <trkpt lat="47.79963" lon="6.8333">
        <ele>698.3</ele>
        <time>2021-08-09T16:51:03Z</time>
      </trkpt>
      <trkpt lat="47.79948" lon="6.83334">
        <ele>697.5</ele>
        <time>2021-08-09T16:51:05Z</time>
      </trkpt>
      <trkpt lat="47.79934" lon="6.83342">
        <ele>696.9</ele>
        <time>2021-08-09T16:51:07Z</time>
      </trkpt>
      <trkpt lat="47.79924" lon="6.83348">
        <ele>696.5</ele>
        <time>2021-08-09T16:51:09Z</time>
      </trkpt>
      <trkpt lat="47.79916" lon="6.83354">
        <ele>696.2</ele>
        <time>2021-08-09T16:51:11Z</time>
      </trkpt>
      <trkpt lat="47.79912" lon="6.83358">
        <ele>696</ele>
        <time>2021-08-09T16:51:12Z</time>
      </trkpt>
      <trkpt lat="47.79908" lon="6.83363">
        <ele>695.8</ele>
        <time>2021-08-09T16:51:13Z</time>
      </trkpt>
      <trkpt lat="47.79904" lon="6.83367">
        <ele>695.6</ele>
        <time>2021-08-09T16:51:14Z</time>
      </trkpt>
      <trkpt lat="47.79901" lon="6.83369">
        <ele>695.4</ele>
        <time>2021-08-09T16:51:16Z</time>
      </trkpt>
      <trkpt lat="47.79898" lon="6.83371">
        <ele>695.3</ele>
        <time>2021-08-09T16:51:17Z</time>
      </trkpt>
      <trkpt lat="47.79896" lon="6.83372">
        <ele>695.2</ele>
        <time>2021-08-09T16:51:18Z</time>
      </trkpt>
      <trkpt lat="47.79887" lon="6.83376">
        <ele>694.8</ele>
        <time>2021-08-09T16:51:20Z</time>
      </trkpt>
      <trkpt lat="47.79883" lon="6.83375">
        <ele>694.4</ele>
        <time>2021-08-09T16:51:21Z</time>
      </trkpt>
      <trkpt lat="47.79872" lon="6.83379">
        <ele>693.5</ele>
        <time>2021-08-09T16:51:23Z</time>
      </trkpt>
      <trkpt lat="47.79856" lon="6.83381">
        <ele>691.6</ele>
        <time>2021-08-09T16:51:25Z</time>
      </trkpt>
      <trkpt lat="47.7985" lon="6.8338">
        <ele>690.7</ele>
        <time>2021-08-09T16:51:26Z</time>
      </trkpt>
      <trkpt lat="47.79843" lon="6.8338">
        <ele>689.7</ele>
        <time>2021-08-09T16:51:27Z</time>
      </trkpt>
      <trkpt lat="47.7983" lon="6.83381">
        <ele>687.5</ele>
        <time>2021-08-09T16:51:29Z</time>
      </trkpt>
      <trkpt lat="47.79813" lon="6.83388">
        <ele>684.9</ele>
        <time>2021-08-09T16:51:31Z</time>
      </trkpt>
      <trkpt lat="47.79804" lon="6.83392">
        <ele>683.8</ele>
        <time>2021-08-09T16:51:32Z</time>
      </trkpt>
      <trkpt lat="47.79787" lon="6.83401">
        <ele>682.6</ele>
        <time>2021-08-09T16:51:34Z</time>
      </trkpt>
      <trkpt lat="47.79777" lon="6.83407">
        <ele>681.5</ele>
        <time>2021-08-09T16:51:35Z</time>
      </trkpt>
      <trkpt lat="47.79766" lon="6.83413">
        <ele>680.4</ele>
        <time>2021-08-09T16:51:36Z</time>
      </trkpt>
      <trkpt lat="47.79745" lon="6.8343">
        <ele>678.5</ele>
        <time>2021-08-09T16:51:38Z</time>
      </trkpt>
      <trkpt lat="47.79727" lon="6.8344">
        <ele>676.6</ele>
        <time>2021-08-09T16:51:40Z</time>
      </trkpt>
      <trkpt lat="47.79718" lon="6.83443">
        <ele>675.7</ele>
        <time>2021-08-09T16:51:41Z</time>
      </trkpt>
      <trkpt lat="47.79703" lon="6.83448">
        <ele>674</ele>
        <time>2021-08-09T16:51:43Z</time>
      </trkpt>
      <trkpt lat="47.79697" lon="6.83449">
        <ele>673.4</ele>
        <time>2021-08-09T16:51:44Z</time>
      </trkpt>
      <trkpt lat="47.79691" lon="6.83447">
        <ele>672.8</ele>
        <time>2021-08-09T16:51:45Z</time>
      </trkpt>
      <trkpt lat="47.79687" lon="6.83444">
        <ele>672.4</ele>
        <time>2021-08-09T16:51:46Z</time>
      </trkpt>
      <trkpt lat="47.79681" lon="6.83441">
        <ele>671.9</ele>
        <time>2021-08-09T16:51:47Z</time>
      </trkpt>
      <trkpt lat="47.79667" lon="6.83436">
        <ele>671.1</ele>
        <time>2021-08-09T16:51:49Z</time>
      </trkpt>
      <trkpt lat="47.79661" lon="6.83433">
        <ele>670.7</ele>
        <time>2021-08-09T16:51:50Z</time>
      </trkpt>
      <trkpt lat="47.79655" lon="6.8343">
        <ele>670.4</ele>
        <time>2021-08-09T16:51:51Z</time>
      </trkpt>
      <trkpt lat="47.79647" lon="6.8342">
        <ele>669.6</ele>
        <time>2021-08-09T16:51:53Z</time>
      </trkpt>
      <trkpt lat="47.79644" lon="6.83412">
        <ele>669.2</ele>
        <time>2021-08-09T16:51:54Z</time>
      </trkpt>
      <trkpt lat="47.7964" lon="6.83404">
        <ele>668.9</ele>
        <time>2021-08-09T16:51:55Z</time>
      </trkpt>
      <trkpt lat="47.79637" lon="6.83398">
        <ele>668.5</ele>
        <time>2021-08-09T16:51:56Z</time>
      </trkpt>
      <trkpt lat="47.79633" lon="6.83385">
        <ele>667.7</ele>
        <time>2021-08-09T16:51:58Z</time>
      </trkpt>
      <trkpt lat="47.79631" lon="6.8338">
        <ele>667.3</ele>
        <time>2021-08-09T16:51:59Z</time>
      </trkpt>
      <trkpt lat="47.79627" lon="6.83369">
        <ele>666.4</ele>
        <time>2021-08-09T16:52:01Z</time>
      </trkpt>
      <trkpt lat="47.79625" lon="6.83365">
        <ele>666.1</ele>
        <time>2021-08-09T16:52:02Z</time>
      </trkpt>
      <trkpt lat="47.79621" lon="6.83359">
        <ele>665.4</ele>
        <time>2021-08-09T16:52:04Z</time>
      </trkpt>
      <trkpt lat="47.79618" lon="6.83356">
        <ele>664.9</ele>
        <time>2021-08-09T16:52:05Z</time>
      </trkpt>
      <trkpt lat="47.79615" lon="6.83354">
        <ele>664.5</ele>
        <time>2021-08-09T16:52:06Z</time>
      </trkpt>
      <trkpt lat="47.7961" lon="6.83352">
        <ele>663.9</ele>
        <time>2021-08-09T16:52:08Z</time>
      </trkpt>
      <trkpt lat="47.79609" lon="6.83351">
        <ele>663.7</ele>
        <time>2021-08-09T16:52:09Z</time>
      </trkpt>
      <trkpt lat="47.79609" lon="6.83349">
        <ele>663.5</ele>
        <time>2021-08-09T16:52:10Z</time>
      </trkpt>
      <trkpt lat="47.79608" lon="6.83347">
        <ele>663.3</ele>
        <time>2021-08-09T16:52:11Z</time>
      </trkpt>
      <trkpt lat="47.79607" lon="6.83346">
        <ele>663.1</ele>
        <time>2021-08-09T16:52:12Z</time>
      </trkpt>
      <trkpt lat="47.79603" lon="6.83344">
        <ele>662.6</ele>
        <time>2021-08-09T16:52:14Z</time>
      </trkpt>
      <trkpt lat="47.79602" lon="6.83344">
        <ele>662.4</ele>
        <time>2021-08-09T16:52:15Z</time>
      </trkpt>
      <trkpt lat="47.79599" lon="6.83344">
        <ele>662</ele>
        <time>2021-08-09T16:52:16Z</time>
      </trkpt>
      <trkpt lat="47.79594" lon="6.83344">
        <ele>661.5</ele>
        <time>2021-08-09T16:52:18Z</time>
      </trkpt>
      <trkpt lat="47.7959" lon="6.83342">
        <ele>661</ele>
        <time>2021-08-09T16:52:20Z</time>
      </trkpt>
      <trkpt lat="47.79586" lon="6.83342">
        <ele>660.6</ele>
        <time>2021-08-09T16:52:21Z</time>
      </trkpt>
      <trkpt lat="47.79581" lon="6.83341">
        <ele>660.1</ele>
        <time>2021-08-09T16:52:22Z</time>
      </trkpt>
      <trkpt lat="47.79576" lon="6.83341">
        <ele>659.6</ele>
        <time>2021-08-09T16:52:24Z</time>
      </trkpt>
      <trkpt lat="47.79573" lon="6.83341">
        <ele>659.4</ele>
        <time>2021-08-09T16:52:25Z</time>
      </trkpt>
      <trkpt lat="47.79571" lon="6.83342">
        <ele>659.2</ele>
        <time>2021-08-09T16:52:27Z</time>
      </trkpt>
      <trkpt lat="47.79569" lon="6.83343">
        <ele>659</ele>
        <time>2021-08-09T16:52:28Z</time>
      </trkpt>
      <trkpt lat="47.79565" lon="6.83344">
        <ele>658.7</ele>
        <time>2021-08-09T16:52:30Z</time>
      </trkpt>
      <trkpt lat="47.79561" lon="6.83345">
        <ele>658.3</ele>
        <time>2021-08-09T16:52:31Z</time>
      </trkpt>
      <trkpt lat="47.79557" lon="6.83346">
        <ele>657.9</ele>
        <time>2021-08-09T16:52:32Z</time>
      </trkpt>
      <trkpt lat="47.79554" lon="6.83346">
        <ele>657.6</ele>
        <time>2021-08-09T16:52:33Z</time>
      </trkpt>
      <trkpt lat="47.79548" lon="6.83346">
        <ele>657.1</ele>
        <time>2021-08-09T16:52:35Z</time>
      </trkpt>
      <trkpt lat="47.79546" lon="6.83346">
        <ele>657</ele>
        <time>2021-08-09T16:52:36Z</time>
      </trkpt>
      <trkpt lat="47.79543" lon="6.83345">
        <ele>656.7</ele>
        <time>2021-08-09T16:52:38Z</time>
      </trkpt>
      <trkpt lat="47.7954" lon="6.83346">
        <ele>656.5</ele>
        <time>2021-08-09T16:52:39Z</time>
      </trkpt>
      <trkpt lat="47.79539" lon="6.83346">
        <ele>656.4</ele>
        <time>2021-08-09T16:52:40Z</time>
      </trkpt>
      <trkpt lat="47.79536" lon="6.83346">
        <ele>656.2</ele>
        <time>2021-08-09T16:52:41Z</time>
      </trkpt>
      <trkpt lat="47.79532" lon="6.83348">
        <ele>655.8</ele>
        <time>2021-08-09T16:52:43Z</time>
      </trkpt>
      <trkpt lat="47.79531" lon="6.83348">
        <ele>655.8</ele>
        <time>2021-08-09T16:52:44Z</time>
      </trkpt>
      <trkpt lat="47.79531" lon="6.83348">
        <ele>655.8</ele>
        <time>2021-08-09T16:52:46Z</time>
      </trkpt>
      <trkpt lat="47.79531" lon="6.83349">
        <ele>655.7</ele>
        <time>2021-08-09T16:52:47Z</time>
      </trkpt>
      <trkpt lat="47.7953" lon="6.83349">
        <ele>655.6</ele>
        <time>2021-08-09T16:52:49Z</time>
      </trkpt>
      <trkpt lat="47.79529" lon="6.83349">
        <ele>655.6</ele>
        <time>2021-08-09T16:52:50Z</time>
      </trkpt>
      <trkpt lat="47.79529" lon="6.8335">
        <ele>655.6</ele>
        <time>2021-08-09T16:52:52Z</time>
      </trkpt>
      <trkpt lat="47.79529" lon="6.8335">
        <ele>655.5</ele>
        <time>2021-08-09T16:52:53Z</time>
      </trkpt>
      <trkpt lat="47.79505" lon="6.83364">
        <ele>653.5</ele>
        <time>2021-08-09T16:54:27Z</time>
      </trkpt>
      <trkpt lat="47.79501" lon="6.83362">
        <ele>653.1</ele>
        <time>2021-08-09T16:54:29Z</time>
      </trkpt>
      <trkpt lat="47.79498" lon="6.83361">
        <ele>652.8</ele>
        <time>2021-08-09T16:54:30Z</time>
      </trkpt>
      <trkpt lat="47.79493" lon="6.83357">
        <ele>652.4</ele>
        <time>2021-08-09T16:54:31Z</time>
      </trkpt>
      <trkpt lat="47.7949" lon="6.83353">
        <ele>652.1</ele>
        <time>2021-08-09T16:54:32Z</time>
      </trkpt>
      <trkpt lat="47.79489" lon="6.83349">
        <ele>651.8</ele>
        <time>2021-08-09T16:54:33Z</time>
      </trkpt>
      <trkpt lat="47.79489" lon="6.83348">
        <ele>651.7</ele>
        <time>2021-08-09T16:54:34Z</time>
      </trkpt>
      <trkpt lat="47.79488" lon="6.83346">
        <ele>650.5</ele>
        <time>2021-08-09T16:54:36Z</time>
      </trkpt>
      <trkpt lat="47.79487" lon="6.83345">
        <ele>650.5</ele>
        <time>2021-08-09T16:54:37Z</time>
      </trkpt>
      <trkpt lat="47.79484" lon="6.83338">
        <ele>650.5</ele>
        <time>2021-08-09T16:54:38Z</time>
      </trkpt>
      <trkpt lat="47.79482" lon="6.83334">
        <ele>651.5</ele>
        <time>2021-08-09T16:54:40Z</time>
      </trkpt>
      <trkpt lat="47.7948" lon="6.83329">
        <ele>651.3</ele>
        <time>2021-08-09T16:54:41Z</time>
      </trkpt>
      <trkpt lat="47.79478" lon="6.83324">
        <ele>651.1</ele>
        <time>2021-08-09T16:56:06Z</time>
      </trkpt>
      <trkpt lat="47.79476" lon="6.8332">
        <ele>650.9</ele>
        <time>2021-08-09T16:56:08Z</time>
      </trkpt>
      <trkpt lat="47.79474" lon="6.83315">
        <ele>650.8</ele>
        <time>2021-08-09T16:56:09Z</time>
      </trkpt>
      <trkpt lat="47.79472" lon="6.8331">
        <ele>650.6</ele>
        <time>2021-08-09T16:56:10Z</time>
      </trkpt>
      <trkpt lat="47.79472" lon="6.83311">
        <ele>650.6</ele>
        <time>2021-08-09T16:56:11Z</time>
      </trkpt>
      <trkpt lat="47.79472" lon="6.8331">
        <ele>650.6</ele>
        <time>2021-08-09T16:56:12Z</time>
      </trkpt>
      <trkpt lat="47.79468" lon="6.83307">
        <ele>650.4</ele>
        <time>2021-08-09T16:56:14Z</time>
      </trkpt>
      <trkpt lat="47.79465" lon="6.83305">
        <ele>650.3</ele>
        <time>2021-08-09T16:56:15Z</time>
      </trkpt>
      <trkpt lat="47.79462" lon="6.83303">
        <ele>650.3</ele>
        <time>2021-08-09T16:56:16Z</time>
      </trkpt>
      <trkpt lat="47.79459" lon="6.83302">
        <ele>650.2</ele>
        <time>2021-08-09T16:56:17Z</time>
      </trkpt>
      <trkpt lat="47.79451" lon="6.83303">
        <ele>650.1</ele>
        <time>2021-08-09T16:56:19Z</time>
      </trkpt>
      <trkpt lat="47.79446" lon="6.833">
        <ele>650.1</ele>
        <time>2021-08-09T16:56:21Z</time>
      </trkpt>
      <trkpt lat="47.79443" lon="6.83295">
        <ele>650.1</ele>
        <time>2021-08-09T16:56:22Z</time>
      </trkpt>
      <trkpt lat="47.79442" lon="6.83294">
        <ele>650.1</ele>
        <time>2021-08-09T16:56:23Z</time>
      </trkpt>
      <trkpt lat="47.79442" lon="6.83292">
        <ele>650.1</ele>
        <time>2021-08-09T16:56:25Z</time>
      </trkpt>
      <trkpt lat="47.79441" lon="6.83291">
        <ele>650.1</ele>
        <time>2021-08-09T16:56:26Z</time>
      </trkpt>
      <trkpt lat="47.79439" lon="6.83285">
        <ele>650.1</ele>
        <time>2021-08-09T16:56:27Z</time>
      </trkpt>
      <trkpt lat="47.79436" lon="6.8328">
        <ele>650.1</ele>
        <time>2021-08-09T16:56:29Z</time>
      </trkpt>
      <trkpt lat="47.79434" lon="6.83275">
        <ele>650.2</ele>
        <time>2021-08-09T16:56:30Z</time>
      </trkpt>
      <trkpt lat="47.79431" lon="6.8327">
        <ele>650.2</ele>
        <time>2021-08-09T16:56:31Z</time>
      </trkpt>
      <trkpt lat="47.79429" lon="6.83265">
        <ele>650.2</ele>
        <time>2021-08-09T16:56:32Z</time>
      </trkpt>
      <trkpt lat="47.79426" lon="6.83259">
        <ele>650.3</ele>
        <time>2021-08-09T16:56:34Z</time>
      </trkpt>
      <trkpt lat="47.79424" lon="6.83254">
        <ele>650.3</ele>
        <time>2021-08-09T16:56:35Z</time>
      </trkpt>
      <trkpt lat="47.79421" lon="6.83249">
        <ele>650.4</ele>
        <time>2021-08-09T16:56:52Z</time>
      </trkpt>
      <trkpt lat="47.79419" lon="6.83244">
        <ele>650.4</ele>
        <time>2021-08-09T16:56:53Z</time>
      </trkpt>
      <trkpt lat="47.79415" lon="6.83239">
        <ele>650.5</ele>
        <time>2021-08-09T16:56:55Z</time>
      </trkpt>
      <trkpt lat="47.79411" lon="6.83238">
        <ele>650.6</ele>
        <time>2021-08-09T16:56:57Z</time>
      </trkpt>
      <trkpt lat="47.7941" lon="6.83237">
        <ele>650.7</ele>
        <time>2021-08-09T16:56:58Z</time>
      </trkpt>
      <trkpt lat="47.79408" lon="6.83236">
        <ele>650.7</ele>
        <time>2021-08-09T16:56:59Z</time>
      </trkpt>
      <trkpt lat="47.79406" lon="6.83235">
        <ele>650.8</ele>
        <time>2021-08-09T16:57:01Z</time>
      </trkpt>
      <trkpt lat="47.79405" lon="6.83235">
        <ele>650.9</ele>
        <time>2021-08-09T16:57:02Z</time>
      </trkpt>
      <trkpt lat="47.79403" lon="6.83234">
        <ele>650.9</ele>
        <time>2021-08-09T16:57:03Z</time>
      </trkpt>
      <trkpt lat="47.79402" lon="6.83234">
        <ele>651</ele>
        <time>2021-08-09T16:57:05Z</time>
      </trkpt>
      <trkpt lat="47.79401" lon="6.83234">
        <ele>651</ele>
        <time>2021-08-09T16:57:06Z</time>
      </trkpt>
      <trkpt lat="47.79389" lon="6.83233">
        <ele>652.2</ele>
        <time>2021-08-09T16:57:07Z</time>
      </trkpt>
      <trkpt lat="47.79113" lon="6.83224">
        <ele>600</ele>
        <time>2021-08-09T16:58:52Z</time>
      </trkpt>
      <trkpt lat="47.79095" lon="6.83221">
        <ele>599.4</ele>
        <time>2021-08-09T16:58:54Z</time>
      </trkpt>
      <trkpt lat="47.79089" lon="6.8322">
        <ele>599.3</ele>
        <time>2021-08-09T16:58:55Z</time>
      </trkpt>
      <trkpt lat="47.79084" lon="6.83218">
        <ele>599.2</ele>
        <time>2021-08-09T16:58:56Z</time>
      </trkpt>
      <trkpt lat="47.79076" lon="6.83212">
        <ele>599.2</ele>
        <time>2021-08-09T16:58:58Z</time>
      </trkpt>
      <trkpt lat="47.79072" lon="6.83211">
        <ele>599.3</ele>
        <time>2021-08-09T16:58:59Z</time>
      </trkpt>
      <trkpt lat="47.79069" lon="6.83211">
        <ele>599.3</ele>
        <time>2021-08-09T16:59:00Z</time>
      </trkpt>
      <trkpt lat="47.79065" lon="6.83212">
        <ele>599.3</ele>
        <time>2021-08-09T16:59:01Z</time>
      </trkpt>
      <trkpt lat="47.79062" lon="6.83213">
        <ele>599.4</ele>
        <time>2021-08-09T16:59:02Z</time>
      </trkpt>
      <trkpt lat="47.79055" lon="6.83215">
        <ele>599.4</ele>
        <time>2021-08-09T16:59:04Z</time>
      </trkpt>
      <trkpt lat="47.79052" lon="6.83216">
        <ele>599.4</ele>
        <time>2021-08-09T16:59:05Z</time>
      </trkpt>
      <trkpt lat="47.79046" lon="6.83218">
        <ele>599.5</ele>
        <time>2021-08-09T16:59:06Z</time>
      </trkpt>
      <trkpt lat="47.79043" lon="6.83219">
        <ele>599.5</ele>
        <time>2021-08-09T16:59:07Z</time>
      </trkpt>
      <trkpt lat="47.79037" lon="6.83222">
        <ele>599.6</ele>
        <time>2021-08-09T16:59:08Z</time>
      </trkpt>
      <trkpt lat="47.79025" lon="6.83225">
        <ele>599.4</ele>
        <time>2021-08-09T16:59:10Z</time>
      </trkpt>
      <trkpt lat="47.79019" lon="6.83226">
        <ele>599.3</ele>
        <time>2021-08-09T16:59:11Z</time>
      </trkpt>
      <trkpt lat="47.79013" lon="6.83228">
        <ele>599.2</ele>
        <time>2021-08-09T16:59:12Z</time>
      </trkpt>
      <trkpt lat="47.79007" lon="6.83231">
        <ele>599</ele>
        <time>2021-08-09T16:59:13Z</time>
      </trkpt>
      <trkpt lat="47.79001" lon="6.83234">
        <ele>598.9</ele>
        <time>2021-08-09T16:59:14Z</time>
      </trkpt>
      <trkpt lat="47.78989" lon="6.83239">
        <ele>598.7</ele>
        <time>2021-08-09T16:59:16Z</time>
      </trkpt>
      <trkpt lat="47.78984" lon="6.83241">
        <ele>598.6</ele>
        <time>2021-08-09T16:59:17Z</time>
      </trkpt>
      <trkpt lat="47.78979" lon="6.83243">
        <ele>598.5</ele>
        <time>2021-08-09T16:59:18Z</time>
      </trkpt>
      <trkpt lat="47.78973" lon="6.83245">
        <ele>598.4</ele>
        <time>2021-08-09T16:59:19Z</time>
      </trkpt>
      <trkpt lat="47.78962" lon="6.8325">
        <ele>598.3</ele>
        <time>2021-08-09T16:59:21Z</time>
      </trkpt>
      <trkpt lat="47.78957" lon="6.83252">
        <ele>598.2</ele>
        <time>2021-08-09T16:59:22Z</time>
      </trkpt>
      <trkpt lat="47.78947" lon="6.83254">
        <ele>598.1</ele>
        <time>2021-08-09T16:59:24Z</time>
      </trkpt>
      <trkpt lat="47.78937" lon="6.83258">
        <ele>597.9</ele>
        <time>2021-08-09T16:59:26Z</time>
      </trkpt>
      <trkpt lat="47.7893" lon="6.83262">
        <ele>597.8</ele>
        <time>2021-08-09T16:59:28Z</time>
      </trkpt>
      <trkpt lat="47.78925" lon="6.83265">
        <ele>597.8</ele>
        <time>2021-08-09T16:59:29Z</time>
      </trkpt>
      <trkpt lat="47.78915" lon="6.83273">
        <ele>597.6</ele>
        <time>2021-08-09T16:59:31Z</time>
      </trkpt>
      <trkpt lat="47.78911" lon="6.83276">
        <ele>597.6</ele>
        <time>2021-08-09T16:59:32Z</time>
      </trkpt>
      <trkpt lat="47.78902" lon="6.83284">
        <ele>597.5</ele>
        <time>2021-08-09T16:59:34Z</time>
      </trkpt>
      <trkpt lat="47.78893" lon="6.83292">
        <ele>597.3</ele>
        <time>2021-08-09T16:59:36Z</time>
      </trkpt>
      <trkpt lat="47.78888" lon="6.83296">
        <ele>597.2</ele>
        <time>2021-08-09T16:59:37Z</time>
      </trkpt>
      <trkpt lat="47.78878" lon="6.83302">
        <ele>597</ele>
        <time>2021-08-09T16:59:39Z</time>
      </trkpt>
      <trkpt lat="47.78869" lon="6.83307">
        <ele>596.7</ele>
        <time>2021-08-09T16:59:41Z</time>
      </trkpt>
      <trkpt lat="47.78864" lon="6.83309">
        <ele>596.7</ele>
        <time>2021-08-09T16:59:42Z</time>
      </trkpt>
      <trkpt lat="47.7886" lon="6.83312">
        <ele>596.6</ele>
        <time>2021-08-09T16:59:43Z</time>
      </trkpt>
      <trkpt lat="47.78855" lon="6.83315">
        <ele>596.4</ele>
        <time>2021-08-09T16:59:44Z</time>
      </trkpt>
      <trkpt lat="47.7885" lon="6.83317">
        <ele>596.3</ele>
        <time>2021-08-09T16:59:45Z</time>
      </trkpt>
      <trkpt lat="47.78843" lon="6.8332">
        <ele>596.2</ele>
        <time>2021-08-09T16:59:47Z</time>
      </trkpt>
      <trkpt lat="47.78838" lon="6.83322">
        <ele>596.1</ele>
        <time>2021-08-09T16:59:48Z</time>
      </trkpt>
      <trkpt lat="47.78833" lon="6.83323">
        <ele>596</ele>
        <time>2021-08-09T16:59:49Z</time>
      </trkpt>
      <trkpt lat="47.78824" lon="6.83325">
        <ele>595.9</ele>
        <time>2021-08-09T16:59:51Z</time>
      </trkpt>
      <trkpt lat="47.78821" lon="6.8333">
        <ele>595.8</ele>
        <time>2021-08-09T16:59:53Z</time>
      </trkpt>
      <trkpt lat="47.78821" lon="6.83333">
        <ele>595.7</ele>
        <time>2021-08-09T16:59:54Z</time>
      </trkpt>
      <trkpt lat="47.78811" lon="6.83336">
        <ele>595.6</ele>
        <time>2021-08-09T16:59:56Z</time>
      </trkpt>
      <trkpt lat="47.78801" lon="6.83339">
        <ele>595.4</ele>
        <time>2021-08-09T16:59:58Z</time>
      </trkpt>
      <trkpt lat="47.78792" lon="6.83344">
        <ele>595.2</ele>
        <time>2021-08-09T17:00:00Z</time>
      </trkpt>
      <trkpt lat="47.78779" lon="6.83346">
        <ele>594.9</ele>
        <time>2021-08-09T17:00:02Z</time>
      </trkpt>
      <trkpt lat="47.7877" lon="6.83352">
        <ele>594.8</ele>
        <time>2021-08-09T17:00:04Z</time>
      </trkpt>
      <trkpt lat="47.78761" lon="6.83361">
        <ele>594.7</ele>
        <time>2021-08-09T17:00:06Z</time>
      </trkpt>
      <trkpt lat="47.78757" lon="6.83365">
        <ele>594.6</ele>
        <time>2021-08-09T17:00:07Z</time>
      </trkpt>
      <trkpt lat="47.78753" lon="6.8337">
        <ele>594.5</ele>
        <time>2021-08-09T17:00:08Z</time>
      </trkpt>
      <trkpt lat="47.78746" lon="6.83379">
        <ele>594.4</ele>
        <time>2021-08-09T17:00:10Z</time>
      </trkpt>
      <trkpt lat="47.78742" lon="6.83384">
        <ele>594.4</ele>
        <time>2021-08-09T17:00:11Z</time>
      </trkpt>
      <trkpt lat="47.78735" lon="6.83393">
        <ele>594.3</ele>
        <time>2021-08-09T17:00:13Z</time>
      </trkpt>
      <trkpt lat="47.78732" lon="6.83398">
        <ele>594.3</ele>
        <time>2021-08-09T17:00:14Z</time>
      </trkpt>
      <trkpt lat="47.78725" lon="6.83406">
        <ele>594.2</ele>
        <time>2021-08-09T17:00:16Z</time>
      </trkpt>
      <trkpt lat="47.78719" lon="6.83411">
        <ele>594.1</ele>
        <time>2021-08-09T17:00:18Z</time>
      </trkpt>
      <trkpt lat="47.78715" lon="6.83414">
        <ele>594</ele>
        <time>2021-08-09T17:00:19Z</time>
      </trkpt>
      <trkpt lat="47.7871" lon="6.83417">
        <ele>594</ele>
        <time>2021-08-09T17:00:20Z</time>
      </trkpt>
      <trkpt lat="47.78699" lon="6.83419">
        <ele>593.9</ele>
        <time>2021-08-09T17:00:22Z</time>
      </trkpt>
      <trkpt lat="47.78688" lon="6.83425">
        <ele>593.8</ele>
        <time>2021-08-09T17:00:24Z</time>
      </trkpt>
      <trkpt lat="47.7868" lon="6.83436">
        <ele>593.7</ele>
        <time>2021-08-09T17:00:26Z</time>
      </trkpt>
      <trkpt lat="47.78671" lon="6.83447">
        <ele>593.6</ele>
        <time>2021-08-09T17:00:28Z</time>
      </trkpt>
      <trkpt lat="47.78666" lon="6.83453">
        <ele>593.6</ele>
        <time>2021-08-09T17:00:29Z</time>
      </trkpt>
      <trkpt lat="47.78661" lon="6.83459">
        <ele>593.5</ele>
        <time>2021-08-09T17:00:30Z</time>
      </trkpt>
      <trkpt lat="47.78657" lon="6.83465">
        <ele>593.5</ele>
        <time>2021-08-09T17:00:31Z</time>
      </trkpt>
      <trkpt lat="47.78653" lon="6.83472">
        <ele>593.4</ele>
        <time>2021-08-09T17:00:32Z</time>
      </trkpt>
      <trkpt lat="47.78647" lon="6.83485">
        <ele>593.4</ele>
        <time>2021-08-09T17:00:34Z</time>
      </trkpt>
      <trkpt lat="47.78645" lon="6.83491">
        <ele>593.3</ele>
        <time>2021-08-09T17:00:35Z</time>
      </trkpt>
      <trkpt lat="47.78643" lon="6.83498">
        <ele>593.3</ele>
        <time>2021-08-09T17:00:36Z</time>
      </trkpt>
      <trkpt lat="47.78641" lon="6.83504">
        <ele>593.3</ele>
        <time>2021-08-09T17:00:37Z</time>
      </trkpt>
      <trkpt lat="47.78637" lon="6.83511">
        <ele>593.3</ele>
        <time>2021-08-09T17:00:39Z</time>
      </trkpt>
      <trkpt lat="47.78637" lon="6.83512">
        <ele>593.3</ele>
        <time>2021-08-09T17:00:40Z</time>
      </trkpt>
      <trkpt lat="47.78632" lon="6.83516">
        <ele>593.3</ele>
        <time>2021-08-09T17:00:42Z</time>
      </trkpt>
      <trkpt lat="47.78628" lon="6.8352">
        <ele>593.3</ele>
        <time>2021-08-09T17:00:43Z</time>
      </trkpt>
      <trkpt lat="47.78625" lon="6.83524">
        <ele>593.3</ele>
        <time>2021-08-09T17:00:44Z</time>
      </trkpt>
      <trkpt lat="47.78616" lon="6.83531">
        <ele>593.4</ele>
        <time>2021-08-09T17:00:46Z</time>
      </trkpt>
      <trkpt lat="47.78611" lon="6.83533">
        <ele>593.4</ele>
        <time>2021-08-09T17:00:47Z</time>
      </trkpt>
      <trkpt lat="47.78606" lon="6.83534">
        <ele>593.4</ele>
        <time>2021-08-09T17:00:49Z</time>
      </trkpt>
      <trkpt lat="47.78601" lon="6.83535">
        <ele>593.4</ele>
        <time>2021-08-09T17:00:50Z</time>
      </trkpt>
      <trkpt lat="47.78597" lon="6.83537">
        <ele>593.4</ele>
        <time>2021-08-09T17:00:52Z</time>
      </trkpt>
      <trkpt lat="47.78592" lon="6.83539">
        <ele>593.4</ele>
        <time>2021-08-09T17:00:53Z</time>
      </trkpt>
      <trkpt lat="47.78588" lon="6.83538">
        <ele>593.4</ele>
        <time>2021-08-09T17:00:54Z</time>
      </trkpt>
      <trkpt lat="47.78579" lon="6.83535">
        <ele>593.4</ele>
        <time>2021-08-09T17:00:56Z</time>
      </trkpt>
      <trkpt lat="47.78571" lon="6.8353">
        <ele>593.5</ele>
        <time>2021-08-09T17:00:58Z</time>
      </trkpt>
      <trkpt lat="47.78567" lon="6.83528">
        <ele>593.5</ele>
        <time>2021-08-09T17:00:59Z</time>
      </trkpt>
      <trkpt lat="47.78561" lon="6.83526">
        <ele>593.6</ele>
        <time>2021-08-09T17:01:00Z</time>
      </trkpt>
      <trkpt lat="47.78555" lon="6.83524">
        <ele>593.7</ele>
        <time>2021-08-09T17:01:02Z</time>
      </trkpt>
      <trkpt lat="47.78549" lon="6.83523">
        <ele>593.7</ele>
        <time>2021-08-09T17:01:03Z</time>
      </trkpt>
      <trkpt lat="47.7854" lon="6.83519">
        <ele>593.8</ele>
        <time>2021-08-09T17:01:05Z</time>
      </trkpt>
      <trkpt lat="47.78536" lon="6.83517">
        <ele>593.8</ele>
        <time>2021-08-09T17:01:06Z</time>
      </trkpt>
      <trkpt lat="47.78529" lon="6.83515">
        <ele>593.8</ele>
        <time>2021-08-09T17:01:08Z</time>
      </trkpt>
      <trkpt lat="47.78525" lon="6.83514">
        <ele>593.8</ele>
        <time>2021-08-09T17:01:09Z</time>
      </trkpt>
      <trkpt lat="47.78521" lon="6.83514">
        <ele>593.8</ele>
        <time>2021-08-09T17:01:10Z</time>
      </trkpt>
      <trkpt lat="47.78515" lon="6.83512">
        <ele>593.8</ele>
        <time>2021-08-09T17:01:12Z</time>
      </trkpt>
      <trkpt lat="47.78511" lon="6.83512">
        <ele>593.8</ele>
        <time>2021-08-09T17:01:13Z</time>
      </trkpt>
      <trkpt lat="47.78507" lon="6.83512">
        <ele>593.7</ele>
        <time>2021-08-09T17:01:14Z</time>
      </trkpt>
      <trkpt lat="47.78502" lon="6.83509">
        <ele>593.7</ele>
        <time>2021-08-09T17:01:15Z</time>
      </trkpt>
      <trkpt lat="47.78496" lon="6.83508">
        <ele>593.7</ele>
        <time>2021-08-09T17:01:17Z</time>
      </trkpt>
      <trkpt lat="47.78491" lon="6.83508">
        <ele>593.6</ele>
        <time>2021-08-09T17:01:18Z</time>
      </trkpt>
      <trkpt lat="47.78483" lon="6.83511">
        <ele>593.6</ele>
        <time>2021-08-09T17:01:20Z</time>
      </trkpt>
      <trkpt lat="47.78475" lon="6.83512">
        <ele>593.6</ele>
        <time>2021-08-09T17:01:22Z</time>
      </trkpt>
      <trkpt lat="47.78471" lon="6.83512">
        <ele>593.6</ele>
        <time>2021-08-09T17:01:23Z</time>
      </trkpt>
      <trkpt lat="47.78463" lon="6.83514">
        <ele>593.6</ele>
        <time>2021-08-09T17:01:25Z</time>
      </trkpt>
      <trkpt lat="47.7846" lon="6.83516">
        <ele>593.5</ele>
        <time>2021-08-09T17:01:26Z</time>
      </trkpt>
      <trkpt lat="47.78458" lon="6.83517">
        <ele>593.5</ele>
        <time>2021-08-09T17:01:27Z</time>
      </trkpt>
      <trkpt lat="47.78454" lon="6.83522">
        <ele>593.5</ele>
        <time>2021-08-09T17:01:28Z</time>
      </trkpt>
      <trkpt lat="47.7845" lon="6.83526">
        <ele>593.4</ele>
        <time>2021-08-09T17:01:30Z</time>
      </trkpt>
      <trkpt lat="47.78445" lon="6.83528">
        <ele>593.3</ele>
        <time>2021-08-09T17:01:31Z</time>
      </trkpt>
      <trkpt lat="47.78441" lon="6.83529">
        <ele>593.2</ele>
        <time>2021-08-09T17:01:32Z</time>
      </trkpt>
      <trkpt lat="47.78435" lon="6.8353">
        <ele>593.1</ele>
        <time>2021-08-09T17:01:33Z</time>
      </trkpt>
      <trkpt lat="47.78428" lon="6.8353">
        <ele>593</ele>
        <time>2021-08-09T17:01:35Z</time>
      </trkpt>
      <trkpt lat="47.78424" lon="6.8353">
        <ele>592.9</ele>
        <time>2021-08-09T17:01:36Z</time>
      </trkpt>
      <trkpt lat="47.78417" lon="6.83533">
        <ele>592.8</ele>
        <time>2021-08-09T17:01:38Z</time>
      </trkpt>
      <trkpt lat="47.78407" lon="6.83534">
        <ele>592.7</ele>
        <time>2021-08-09T17:01:40Z</time>
      </trkpt>
      <trkpt lat="47.78401" lon="6.83533">
        <ele>592.2</ele>
        <time>2021-08-09T17:01:41Z</time>
      </trkpt>
      <trkpt lat="47.78388" lon="6.83527">
        <ele>591.1</ele>
        <time>2021-08-09T17:01:43Z</time>
      </trkpt>
      <trkpt lat="47.78376" lon="6.8352">
        <ele>590.1</ele>
        <time>2021-08-09T17:01:45Z</time>
      </trkpt>
      <trkpt lat="47.7837" lon="6.83517">
        <ele>589.7</ele>
        <time>2021-08-09T17:01:46Z</time>
      </trkpt>
      <trkpt lat="47.78359" lon="6.83507">
        <ele>588.9</ele>
        <time>2021-08-09T17:01:48Z</time>
      </trkpt>
      <trkpt lat="47.78354" lon="6.83499">
        <ele>588.5</ele>
        <time>2021-08-09T17:01:49Z</time>
      </trkpt>
      <trkpt lat="47.78349" lon="6.83492">
        <ele>588.2</ele>
        <time>2021-08-09T17:01:50Z</time>
      </trkpt>
      <trkpt lat="47.78339" lon="6.83479">
        <ele>588.1</ele>
        <time>2021-08-09T17:01:52Z</time>
      </trkpt>
      <trkpt lat="47.78334" lon="6.83472">
        <ele>587.3</ele>
        <time>2021-08-09T17:01:53Z</time>
      </trkpt>
      <trkpt lat="47.78326" lon="6.83458">
        <ele>586</ele>
        <time>2021-08-09T17:01:55Z</time>
      </trkpt>
      <trkpt lat="47.78318" lon="6.83446">
        <ele>584.8</ele>
        <time>2021-08-09T17:01:57Z</time>
      </trkpt>
      <trkpt lat="47.78313" lon="6.83442">
        <ele>584.3</ele>
        <time>2021-08-09T17:01:58Z</time>
      </trkpt>
      <trkpt lat="47.78307" lon="6.83438">
        <ele>582.7</ele>
        <time>2021-08-09T17:01:59Z</time>
      </trkpt>
      <trkpt lat="47.78295" lon="6.83431">
        <ele>582.3</ele>
        <time>2021-08-09T17:02:01Z</time>
      </trkpt>
      <trkpt lat="47.78285" lon="6.83423">
        <ele>581.9</ele>
        <time>2021-08-09T17:02:03Z</time>
      </trkpt>
      <trkpt lat="47.7828" lon="6.83419">
        <ele>581.7</ele>
        <time>2021-08-09T17:02:04Z</time>
      </trkpt>
      <trkpt lat="47.78269" lon="6.83409">
        <ele>581.2</ele>
        <time>2021-08-09T17:02:06Z</time>
      </trkpt>
      <trkpt lat="47.78257" lon="6.834">
        <ele>580.7</ele>
        <time>2021-08-09T17:02:08Z</time>
      </trkpt>
      <trkpt lat="47.78251" lon="6.83396">
        <ele>580.4</ele>
        <time>2021-08-09T17:02:09Z</time>
      </trkpt>
      <trkpt lat="47.78238" lon="6.83387">
        <ele>579.6</ele>
        <time>2021-08-09T17:02:11Z</time>
      </trkpt>
      <trkpt lat="47.78232" lon="6.83382">
        <ele>579.2</ele>
        <time>2021-08-09T17:02:12Z</time>
      </trkpt>
      <trkpt lat="47.78225" lon="6.83376">
        <ele>578.7</ele>
        <time>2021-08-09T17:02:13Z</time>
      </trkpt>
      <trkpt lat="47.7822" lon="6.83371">
        <ele>578.3</ele>
        <time>2021-08-09T17:02:14Z</time>
      </trkpt>
      <trkpt lat="47.78209" lon="6.83358">
        <ele>577.3</ele>
        <time>2021-08-09T17:02:16Z</time>
      </trkpt>
      <trkpt lat="47.78196" lon="6.83343">
        <ele>576.2</ele>
        <time>2021-08-09T17:02:18Z</time>
      </trkpt>
      <trkpt lat="47.78188" lon="6.83335">
        <ele>575.6</ele>
        <time>2021-08-09T17:02:19Z</time>
      </trkpt>
      <trkpt lat="47.78181" lon="6.83326">
        <ele>575</ele>
        <time>2021-08-09T17:02:20Z</time>
      </trkpt>
      <trkpt lat="47.78168" lon="6.83313">
        <ele>574.1</ele>
        <time>2021-08-09T17:02:22Z</time>
      </trkpt>
      <trkpt lat="47.78149" lon="6.83306">
        <ele>573</ele>
        <time>2021-08-09T17:02:24Z</time>
      </trkpt>
      <trkpt lat="47.7814" lon="6.83304">
        <ele>572.4</ele>
        <time>2021-08-09T17:02:25Z</time>
      </trkpt>
      <trkpt lat="47.7813" lon="6.83301">
        <ele>571.7</ele>
        <time>2021-08-09T17:02:26Z</time>
      </trkpt>
      <trkpt lat="47.78111" lon="6.833">
        <ele>570.5</ele>
        <time>2021-08-09T17:02:28Z</time>
      </trkpt>
      <trkpt lat="47.78101" lon="6.83302">
        <ele>569.9</ele>
        <time>2021-08-09T17:02:29Z</time>
      </trkpt>
      <trkpt lat="47.78092" lon="6.83304">
        <ele>569.3</ele>
        <time>2021-08-09T17:02:30Z</time>
      </trkpt>
      <trkpt lat="47.78075" lon="6.83309">
        <ele>567.9</ele>
        <time>2021-08-09T17:02:32Z</time>
      </trkpt>
      <trkpt lat="47.78068" lon="6.83312">
        <ele>567.6</ele>
        <time>2021-08-09T17:02:33Z</time>
      </trkpt>
      <trkpt lat="47.78056" lon="6.83322">
        <ele>567</ele>
        <time>2021-08-09T17:02:35Z</time>
      </trkpt>
      <trkpt lat="47.78049" lon="6.8333">
        <ele>566.6</ele>
        <time>2021-08-09T17:02:36Z</time>
      </trkpt>
      <trkpt lat="47.78044" lon="6.83336">
        <ele>566.4</ele>
        <time>2021-08-09T17:02:37Z</time>
      </trkpt>
      <trkpt lat="47.78043" lon="6.8334">
        <ele>566.3</ele>
        <time>2021-08-09T17:02:38Z</time>
      </trkpt>
      <trkpt lat="47.78036" lon="6.83345">
        <ele>566.2</ele>
        <time>2021-08-09T17:02:40Z</time>
      </trkpt>
      <trkpt lat="47.78031" lon="6.83349">
        <ele>566.1</ele>
        <time>2021-08-09T17:02:41Z</time>
      </trkpt>
      <trkpt lat="47.78029" lon="6.83356">
        <ele>566.1</ele>
        <time>2021-08-09T17:02:42Z</time>
      </trkpt>
      <trkpt lat="47.78023" lon="6.83362">
        <ele>565.8</ele>
        <time>2021-08-09T17:02:44Z</time>
      </trkpt>
      <trkpt lat="47.78021" lon="6.83363">
        <ele>565.7</ele>
        <time>2021-08-09T17:02:45Z</time>
      </trkpt>
      <trkpt lat="47.77914" lon="6.83417">
        <ele>560.9</ele>
        <time>2021-08-09T17:03:22Z</time>
      </trkpt>
      <trkpt lat="47.77908" lon="6.83421">
        <ele>560.8</ele>
        <time>2021-08-09T17:03:23Z</time>
      </trkpt>
      <trkpt lat="47.77902" lon="6.83424">
        <ele>560.7</ele>
        <time>2021-08-09T17:03:24Z</time>
      </trkpt>
      <trkpt lat="47.77894" lon="6.8343">
        <ele>560.5</ele>
        <time>2021-08-09T17:03:26Z</time>
      </trkpt>
      <trkpt lat="47.77882" lon="6.83435">
        <ele>560.3</ele>
        <time>2021-08-09T17:03:28Z</time>
      </trkpt>
      <trkpt lat="47.77877" lon="6.83438">
        <ele>560.2</ele>
        <time>2021-08-09T17:03:29Z</time>
      </trkpt>
      <trkpt lat="47.77864" lon="6.83451">
        <ele>559.9</ele>
        <time>2021-08-09T17:03:31Z</time>
      </trkpt>
      <trkpt lat="47.77859" lon="6.83458">
        <ele>559.9</ele>
        <time>2021-08-09T17:03:32Z</time>
      </trkpt>
      <trkpt lat="47.77854" lon="6.83472">
        <ele>559.8</ele>
        <time>2021-08-09T17:03:34Z</time>
      </trkpt>
      <trkpt lat="47.77851" lon="6.83478">
        <ele>559.8</ele>
        <time>2021-08-09T17:03:35Z</time>
      </trkpt>
      <trkpt lat="47.77849" lon="6.83485">
        <ele>559.7</ele>
        <time>2021-08-09T17:03:36Z</time>
      </trkpt>
      <trkpt lat="47.77845" lon="6.83501">
        <ele>559.6</ele>
        <time>2021-08-09T17:03:38Z</time>
      </trkpt>
      <trkpt lat="47.77841" lon="6.83517">
        <ele>559.6</ele>
        <time>2021-08-09T17:03:40Z</time>
      </trkpt>
      <trkpt lat="47.77839" lon="6.83525">
        <ele>559.5</ele>
        <time>2021-08-09T17:03:41Z</time>
      </trkpt>
      <trkpt lat="47.77839" lon="6.83533">
        <ele>559.5</ele>
        <time>2021-08-09T17:03:42Z</time>
      </trkpt>
      <trkpt lat="47.77838" lon="6.83549">
        <ele>559.4</ele>
        <time>2021-08-09T17:03:44Z</time>
      </trkpt>
      <trkpt lat="47.77834" lon="6.83562">
        <ele>559.3</ele>
        <time>2021-08-09T17:03:46Z</time>
      </trkpt>
      <trkpt lat="47.77832" lon="6.83567">
        <ele>559.3</ele>
        <time>2021-08-09T17:03:47Z</time>
      </trkpt>
      <trkpt lat="47.77821" lon="6.83572">
        <ele>559.1</ele>
        <time>2021-08-09T17:03:49Z</time>
      </trkpt>
      <trkpt lat="47.77816" lon="6.83573">
        <ele>558.9</ele>
        <time>2021-08-09T17:03:50Z</time>
      </trkpt>
      <trkpt lat="47.77808" lon="6.83572">
        <ele>558.4</ele>
        <time>2021-08-09T17:03:52Z</time>
      </trkpt>
      <trkpt lat="47.77802" lon="6.83568">
        <ele>557.9</ele>
        <time>2021-08-09T17:03:53Z</time>
      </trkpt>
      <trkpt lat="47.77787" lon="6.83563">
        <ele>556.5</ele>
        <time>2021-08-09T17:03:55Z</time>
      </trkpt>
      <trkpt lat="47.77779" lon="6.83559">
        <ele>555.7</ele>
        <time>2021-08-09T17:03:56Z</time>
      </trkpt>
      <trkpt lat="47.77765" lon="6.83551">
        <ele>554.3</ele>
        <time>2021-08-09T17:03:58Z</time>
      </trkpt>
      <trkpt lat="47.77758" lon="6.83548">
        <ele>553.8</ele>
        <time>2021-08-09T17:03:59Z</time>
      </trkpt>
      <trkpt lat="47.77751" lon="6.83547">
        <ele>553.2</ele>
        <time>2021-08-09T17:04:00Z</time>
      </trkpt>
      <trkpt lat="47.7774" lon="6.83542">
        <ele>552.4</ele>
        <time>2021-08-09T17:04:02Z</time>
      </trkpt>
      <trkpt lat="47.7773" lon="6.83536">
        <ele>551.7</ele>
        <time>2021-08-09T17:04:04Z</time>
      </trkpt>
      <trkpt lat="47.77718" lon="6.83521">
        <ele>551.2</ele>
        <time>2021-08-09T17:04:06Z</time>
      </trkpt>
      <trkpt lat="47.77712" lon="6.83513">
        <ele>550.5</ele>
        <time>2021-08-09T17:04:07Z</time>
      </trkpt>
      <trkpt lat="47.77701" lon="6.83497">
        <ele>549.2</ele>
        <time>2021-08-09T17:04:09Z</time>
      </trkpt>
      <trkpt lat="47.77695" lon="6.83488">
        <ele>549</ele>
        <time>2021-08-09T17:04:10Z</time>
      </trkpt>
      <trkpt lat="47.77683" lon="6.83468">
        <ele>547.9</ele>
        <time>2021-08-09T17:04:12Z</time>
      </trkpt>
      <trkpt lat="47.77677" lon="6.83459">
        <ele>547.7</ele>
        <time>2021-08-09T17:04:13Z</time>
      </trkpt>
      <trkpt lat="47.77673" lon="6.83451">
        <ele>547.7</ele>
        <time>2021-08-09T17:04:14Z</time>
      </trkpt>
      <trkpt lat="47.77663" lon="6.83437">
        <ele>545.8</ele>
        <time>2021-08-09T17:04:16Z</time>
      </trkpt>
      <trkpt lat="47.77658" lon="6.8343">
        <ele>545.6</ele>
        <time>2021-08-09T17:04:17Z</time>
      </trkpt>
      <trkpt lat="47.77646" lon="6.83416">
        <ele>545.4</ele>
        <time>2021-08-09T17:04:19Z</time>
      </trkpt>
      <trkpt lat="47.7764" lon="6.8341">
        <ele>545.3</ele>
        <time>2021-08-09T17:04:20Z</time>
      </trkpt>
      <trkpt lat="47.77628" lon="6.83397">
        <ele>543.8</ele>
        <time>2021-08-09T17:04:22Z</time>
      </trkpt>
      <trkpt lat="47.77622" lon="6.83391">
        <ele>543.2</ele>
        <time>2021-08-09T17:04:23Z</time>
      </trkpt>
      <trkpt lat="47.77617" lon="6.83384">
        <ele>542.7</ele>
        <time>2021-08-09T17:04:24Z</time>
      </trkpt>
      <trkpt lat="47.77604" lon="6.83369">
        <ele>541.5</ele>
        <time>2021-08-09T17:04:26Z</time>
      </trkpt>
      <trkpt lat="47.77592" lon="6.83354">
        <ele>540.4</ele>
        <time>2021-08-09T17:04:28Z</time>
      </trkpt>
      <trkpt lat="47.77578" lon="6.83339">
        <ele>539.7</ele>
        <time>2021-08-09T17:04:30Z</time>
      </trkpt>
      <trkpt lat="47.77571" lon="6.83331">
        <ele>539.4</ele>
        <time>2021-08-09T17:04:31Z</time>
      </trkpt>
      <trkpt lat="47.77565" lon="6.83323">
        <ele>539.2</ele>
        <time>2021-08-09T17:04:32Z</time>
      </trkpt>
      <trkpt lat="47.77553" lon="6.83309">
        <ele>538.8</ele>
        <time>2021-08-09T17:04:34Z</time>
      </trkpt>
      <trkpt lat="47.77547" lon="6.83302">
        <ele>538.5</ele>
        <time>2021-08-09T17:04:35Z</time>
      </trkpt>
      <trkpt lat="47.7754" lon="6.83295">
        <ele>538.2</ele>
        <time>2021-08-09T17:04:36Z</time>
      </trkpt>
      <trkpt lat="47.77533" lon="6.83288">
        <ele>537.9</ele>
        <time>2021-08-09T17:04:37Z</time>
      </trkpt>
      <trkpt lat="47.77526" lon="6.8328">
        <ele>537.6</ele>
        <time>2021-08-09T17:04:38Z</time>
      </trkpt>
      <trkpt lat="47.77512" lon="6.83266">
        <ele>537.1</ele>
        <time>2021-08-09T17:04:40Z</time>
      </trkpt>
      <trkpt lat="47.775" lon="6.83251">
        <ele>536.6</ele>
        <time>2021-08-09T17:04:42Z</time>
      </trkpt>
      <trkpt lat="47.77489" lon="6.83235">
        <ele>536.2</ele>
        <time>2021-08-09T17:04:44Z</time>
      </trkpt>
      <trkpt lat="47.77478" lon="6.8322">
        <ele>535.9</ele>
        <time>2021-08-09T17:04:46Z</time>
      </trkpt>
      <trkpt lat="47.77473" lon="6.83212">
        <ele>535.7</ele>
        <time>2021-08-09T17:04:47Z</time>
      </trkpt>
      <trkpt lat="47.77469" lon="6.83204">
        <ele>535.6</ele>
        <time>2021-08-09T17:04:48Z</time>
      </trkpt>
      <trkpt lat="47.77466" lon="6.83197">
        <ele>535.5</ele>
        <time>2021-08-09T17:04:49Z</time>
      </trkpt>
      <trkpt lat="47.77458" lon="6.83181">
        <ele>535.3</ele>
        <time>2021-08-09T17:04:51Z</time>
      </trkpt>
      <trkpt lat="47.77455" lon="6.83173">
        <ele>535.2</ele>
        <time>2021-08-09T17:04:52Z</time>
      </trkpt>
      <trkpt lat="47.77449" lon="6.83156">
        <ele>535</ele>
        <time>2021-08-09T17:04:54Z</time>
      </trkpt>
      <trkpt lat="47.77444" lon="6.83139">
        <ele>534.7</ele>
        <time>2021-08-09T17:04:56Z</time>
      </trkpt>
      <trkpt lat="47.77437" lon="6.83124">
        <ele>534.4</ele>
        <time>2021-08-09T17:04:58Z</time>
      </trkpt>
      <trkpt lat="47.77431" lon="6.83107">
        <ele>534</ele>
        <time>2021-08-09T17:05:00Z</time>
      </trkpt>
      <trkpt lat="47.77425" lon="6.8309">
        <ele>533.6</ele>
        <time>2021-08-09T17:05:02Z</time>
      </trkpt>
      <trkpt lat="47.77422" lon="6.83072">
        <ele>533.3</ele>
        <time>2021-08-09T17:05:04Z</time>
      </trkpt>
      <trkpt lat="47.77417" lon="6.83056">
        <ele>532.9</ele>
        <time>2021-08-09T17:05:06Z</time>
      </trkpt>
      <trkpt lat="47.77411" lon="6.83039">
        <ele>532.6</ele>
        <time>2021-08-09T17:05:08Z</time>
      </trkpt>
      <trkpt lat="47.77405" lon="6.83022">
        <ele>532.2</ele>
        <time>2021-08-09T17:05:10Z</time>
      </trkpt>
      <trkpt lat="47.77401" lon="6.83014">
        <ele>532</ele>
        <time>2021-08-09T17:05:11Z</time>
      </trkpt>
      <trkpt lat="47.77396" lon="6.83007">
        <ele>531.9</ele>
        <time>2021-08-09T17:05:12Z</time>
      </trkpt>
      <trkpt lat="47.7739" lon="6.82992">
        <ele>531.6</ele>
        <time>2021-08-09T17:05:14Z</time>
      </trkpt>
      <trkpt lat="47.77384" lon="6.82978">
        <ele>531.4</ele>
        <time>2021-08-09T17:05:16Z</time>
      </trkpt>
      <trkpt lat="47.77382" lon="6.8297">
        <ele>531.4</ele>
        <time>2021-08-09T17:05:17Z</time>
      </trkpt>
      <trkpt lat="47.77372" lon="6.82958">
        <ele>531.3</ele>
        <time>2021-08-09T17:05:19Z</time>
      </trkpt>
      <trkpt lat="47.77367" lon="6.82952">
        <ele>531.2</ele>
        <time>2021-08-09T17:05:20Z</time>
      </trkpt>
      <trkpt lat="47.77357" lon="6.82942">
        <ele>531.1</ele>
        <time>2021-08-09T17:05:22Z</time>
      </trkpt>
      <trkpt lat="47.77352" lon="6.82938">
        <ele>531</ele>
        <time>2021-08-09T17:05:23Z</time>
      </trkpt>
      <trkpt lat="47.77343" lon="6.82932">
        <ele>530.9</ele>
        <time>2021-08-09T17:05:25Z</time>
      </trkpt>
      <trkpt lat="47.77338" lon="6.82929">
        <ele>530.8</ele>
        <time>2021-08-09T17:05:26Z</time>
      </trkpt>
      <trkpt lat="47.77334" lon="6.82925">
        <ele>530.8</ele>
        <time>2021-08-09T17:05:27Z</time>
      </trkpt>
      <trkpt lat="47.77328" lon="6.8292">
        <ele>530.7</ele>
        <time>2021-08-09T17:05:29Z</time>
      </trkpt>
      <trkpt lat="47.77319" lon="6.82913">
        <ele>530.7</ele>
        <time>2021-08-09T17:05:31Z</time>
      </trkpt>
      <trkpt lat="47.77313" lon="6.82911">
        <ele>530.7</ele>
        <time>2021-08-09T17:05:32Z</time>
      </trkpt>
      <trkpt lat="47.77303" lon="6.82908">
        <ele>530.6</ele>
        <time>2021-08-09T17:05:34Z</time>
      </trkpt>
      <trkpt lat="47.77289" lon="6.82906">
        <ele>530.5</ele>
        <time>2021-08-09T17:05:36Z</time>
      </trkpt>
      <trkpt lat="47.77278" lon="6.82906">
        <ele>530.4</ele>
        <time>2021-08-09T17:05:38Z</time>
      </trkpt>
      <trkpt lat="47.77266" lon="6.82906">
        <ele>530.3</ele>
        <time>2021-08-09T17:05:40Z</time>
      </trkpt>
      <trkpt lat="47.77262" lon="6.82906">
        <ele>530.3</ele>
        <time>2021-08-09T17:05:41Z</time>
      </trkpt>
      <trkpt lat="47.77256" lon="6.82906">
        <ele>530.3</ele>
        <time>2021-08-09T17:05:42Z</time>
      </trkpt>
      <trkpt lat="47.77246" lon="6.82907">
        <ele>530.2</ele>
        <time>2021-08-09T17:05:44Z</time>
      </trkpt>
      <trkpt lat="47.77235" lon="6.82906">
        <ele>530.1</ele>
        <time>2021-08-09T17:05:46Z</time>
      </trkpt>
      <trkpt lat="47.77225" lon="6.82907">
        <ele>530.1</ele>
        <time>2021-08-09T17:05:48Z</time>
      </trkpt>
      <trkpt lat="47.7722" lon="6.82909">
        <ele>530.1</ele>
        <time>2021-08-09T17:05:49Z</time>
      </trkpt>
      <trkpt lat="47.77212" lon="6.8291">
        <ele>530</ele>
        <time>2021-08-09T17:05:51Z</time>
      </trkpt>
      <trkpt lat="47.77201" lon="6.82907">
        <ele>529.9</ele>
        <time>2021-08-09T17:05:53Z</time>
      </trkpt>
      <trkpt lat="47.77196" lon="6.82905">
        <ele>529.8</ele>
        <time>2021-08-09T17:05:54Z</time>
      </trkpt>
      <trkpt lat="47.77191" lon="6.82903">
        <ele>529.7</ele>
        <time>2021-08-09T17:05:55Z</time>
      </trkpt>
      <trkpt lat="47.77181" lon="6.82897">
        <ele>529.5</ele>
        <time>2021-08-09T17:05:57Z</time>
      </trkpt>
      <trkpt lat="47.7717" lon="6.82892">
        <ele>529.4</ele>
        <time>2021-08-09T17:05:59Z</time>
      </trkpt>
      <trkpt lat="47.77165" lon="6.8289">
        <ele>529.3</ele>
        <time>2021-08-09T17:06:00Z</time>
      </trkpt>
      <trkpt lat="47.77156" lon="6.82885">
        <ele>529.3</ele>
        <time>2021-08-09T17:06:02Z</time>
      </trkpt>
      <trkpt lat="47.77152" lon="6.82882">
        <ele>529.2</ele>
        <time>2021-08-09T17:06:03Z</time>
      </trkpt>
      <trkpt lat="47.77143" lon="6.82877">
        <ele>529.1</ele>
        <time>2021-08-09T17:06:05Z</time>
      </trkpt>
      <trkpt lat="47.77133" lon="6.82872">
        <ele>529</ele>
        <time>2021-08-09T17:06:07Z</time>
      </trkpt>
      <trkpt lat="47.77129" lon="6.8287">
        <ele>528.9</ele>
        <time>2021-08-09T17:06:08Z</time>
      </trkpt>
      <trkpt lat="47.77119" lon="6.82865">
        <ele>528.8</ele>
        <time>2021-08-09T17:06:10Z</time>
      </trkpt>
      <trkpt lat="47.77115" lon="6.82861">
        <ele>528.7</ele>
        <time>2021-08-09T17:06:11Z</time>
      </trkpt>
      <trkpt lat="47.77111" lon="6.82857">
        <ele>528.6</ele>
        <time>2021-08-09T17:06:12Z</time>
      </trkpt>
      <trkpt lat="47.77102" lon="6.82848">
        <ele>528.4</ele>
        <time>2021-08-09T17:06:14Z</time>
      </trkpt>
      <trkpt lat="47.7709" lon="6.82842">
        <ele>527.8</ele>
        <time>2021-08-09T17:06:16Z</time>
      </trkpt>
      <trkpt lat="47.77079" lon="6.82837">
        <ele>527.2</ele>
        <time>2021-08-09T17:06:18Z</time>
      </trkpt>
      <trkpt lat="47.77073" lon="6.82832">
        <ele>526.9</ele>
        <time>2021-08-09T17:06:19Z</time>
      </trkpt>
      <trkpt lat="47.77068" lon="6.82828">
        <ele>526.7</ele>
        <time>2021-08-09T17:06:20Z</time>
      </trkpt>
      <trkpt lat="47.77056" lon="6.82823">
        <ele>526.2</ele>
        <time>2021-08-09T17:06:22Z</time>
      </trkpt>
      <trkpt lat="47.77044" lon="6.82819">
        <ele>525.8</ele>
        <time>2021-08-09T17:06:24Z</time>
      </trkpt>
      <trkpt lat="47.77039" lon="6.82818">
        <ele>525.6</ele>
        <time>2021-08-09T17:06:25Z</time>
      </trkpt>
      <trkpt lat="47.77033" lon="6.82815">
        <ele>525.5</ele>
        <time>2021-08-09T17:06:26Z</time>
      </trkpt>
      <trkpt lat="47.77021" lon="6.82808">
        <ele>525.2</ele>
        <time>2021-08-09T17:06:28Z</time>
      </trkpt>
      <trkpt lat="47.77015" lon="6.82805">
        <ele>525</ele>
        <time>2021-08-09T17:06:29Z</time>
      </trkpt>
      <trkpt lat="47.77002" lon="6.828">
        <ele>524.7</ele>
        <time>2021-08-09T17:06:31Z</time>
      </trkpt>
      <trkpt lat="47.76995" lon="6.82797">
        <ele>524.6</ele>
        <time>2021-08-09T17:06:32Z</time>
      </trkpt>
      <trkpt lat="47.76983" lon="6.82792">
        <ele>524.3</ele>
        <time>2021-08-09T17:06:34Z</time>
      </trkpt>
      <trkpt lat="47.76977" lon="6.8279">
        <ele>524.1</ele>
        <time>2021-08-09T17:06:35Z</time>
      </trkpt>
      <trkpt lat="47.76971" lon="6.82788">
        <ele>524</ele>
        <time>2021-08-09T17:06:36Z</time>
      </trkpt>
      <trkpt lat="47.76959" lon="6.82785">
        <ele>523.8</ele>
        <time>2021-08-09T17:06:38Z</time>
      </trkpt>
      <trkpt lat="47.76948" lon="6.82782">
        <ele>523.7</ele>
        <time>2021-08-09T17:06:40Z</time>
      </trkpt>
      <trkpt lat="47.76937" lon="6.8278">
        <ele>523.6</ele>
        <time>2021-08-09T17:06:42Z</time>
      </trkpt>
      <trkpt lat="47.76925" lon="6.82777">
        <ele>523.4</ele>
        <time>2021-08-09T17:06:44Z</time>
      </trkpt>
      <trkpt lat="47.76913" lon="6.8277">
        <ele>523.3</ele>
        <time>2021-08-09T17:06:46Z</time>
      </trkpt>
      <trkpt lat="47.76903" lon="6.82762">
        <ele>523.3</ele>
        <time>2021-08-09T17:06:48Z</time>
      </trkpt>
      <trkpt lat="47.76894" lon="6.82753">
        <ele>523.2</ele>
        <time>2021-08-09T17:06:50Z</time>
      </trkpt>
      <trkpt lat="47.76883" lon="6.82747">
        <ele>523.1</ele>
        <time>2021-08-09T17:06:52Z</time>
      </trkpt>
      <trkpt lat="47.76873" lon="6.82739">
        <ele>523.1</ele>
        <time>2021-08-09T17:06:54Z</time>
      </trkpt>
      <trkpt lat="47.76869" lon="6.82734">
        <ele>523.1</ele>
        <time>2021-08-09T17:06:55Z</time>
      </trkpt>
      <trkpt lat="47.76865" lon="6.82728">
        <ele>523.1</ele>
        <time>2021-08-09T17:06:56Z</time>
      </trkpt>
      <trkpt lat="47.76855" lon="6.82716">
        <ele>523.2</ele>
        <time>2021-08-09T17:06:58Z</time>
      </trkpt>
      <trkpt lat="47.7685" lon="6.8271">
        <ele>523.2</ele>
        <time>2021-08-09T17:06:59Z</time>
      </trkpt>
      <trkpt lat="47.76845" lon="6.82705">
        <ele>523.2</ele>
        <time>2021-08-09T17:07:00Z</time>
      </trkpt>
      <trkpt lat="47.76836" lon="6.82696">
        <ele>523.3</ele>
        <time>2021-08-09T17:07:02Z</time>
      </trkpt>
      <trkpt lat="47.76829" lon="6.82687">
        <ele>523.4</ele>
        <time>2021-08-09T17:07:04Z</time>
      </trkpt>
      <trkpt lat="47.76823" lon="6.82682">
        <ele>523.5</ele>
        <time>2021-08-09T17:07:06Z</time>
      </trkpt>
      <trkpt lat="47.76816" lon="6.82676">
        <ele>523.6</ele>
        <time>2021-08-09T17:07:08Z</time>
      </trkpt>
      <trkpt lat="47.76811" lon="6.82671">
        <ele>523.6</ele>
        <time>2021-08-09T17:07:10Z</time>
      </trkpt>
      <trkpt lat="47.76809" lon="6.82668">
        <ele>523.7</ele>
        <time>2021-08-09T17:07:11Z</time>
      </trkpt>
      <trkpt lat="47.76802" lon="6.82662">
        <ele>523.8</ele>
        <time>2021-08-09T17:07:13Z</time>
      </trkpt>
      <trkpt lat="47.768" lon="6.8266">
        <ele>523.8</ele>
        <time>2021-08-09T17:07:14Z</time>
      </trkpt>
      <trkpt lat="47.76797" lon="6.82655">
        <ele>523.9</ele>
        <time>2021-08-09T17:07:16Z</time>
      </trkpt>
      <trkpt lat="47.76791" lon="6.82651">
        <ele>524</ele>
        <time>2021-08-09T17:07:17Z</time>
      </trkpt>
      <trkpt lat="47.76786" lon="6.82647">
        <ele>524.1</ele>
        <time>2021-08-09T17:07:19Z</time>
      </trkpt>
      <trkpt lat="47.76781" lon="6.82643">
        <ele>524.2</ele>
        <time>2021-08-09T17:07:20Z</time>
      </trkpt>
      <trkpt lat="47.76778" lon="6.82638">
        <ele>524.3</ele>
        <time>2021-08-09T17:07:22Z</time>
      </trkpt>
      <trkpt lat="47.76774" lon="6.82634">
        <ele>524.3</ele>
        <time>2021-08-09T17:07:23Z</time>
      </trkpt>
      <trkpt lat="47.76772" lon="6.82631">
        <ele>524.4</ele>
        <time>2021-08-09T17:07:24Z</time>
      </trkpt>
      <trkpt lat="47.76769" lon="6.82626">
        <ele>524.5</ele>
        <time>2021-08-09T17:07:25Z</time>
      </trkpt>
      <trkpt lat="47.76767" lon="6.82622">
        <ele>524.5</ele>
        <time>2021-08-09T17:07:26Z</time>
      </trkpt>
      <trkpt lat="47.76764" lon="6.82619">
        <ele>524.4</ele>
        <time>2021-08-09T17:07:28Z</time>
      </trkpt>
      <trkpt lat="47.76761" lon="6.82616">
        <ele>524.4</ele>
        <time>2021-08-09T17:07:29Z</time>
      </trkpt>
      <trkpt lat="47.76758" lon="6.82612">
        <ele>524.4</ele>
        <time>2021-08-09T17:07:30Z</time>
      </trkpt>
      <trkpt lat="47.76755" lon="6.82609">
        <ele>524.4</ele>
        <time>2021-08-09T17:07:31Z</time>
      </trkpt>
      <trkpt lat="47.76752" lon="6.82608">
        <ele>524.3</ele>
        <time>2021-08-09T17:07:32Z</time>
      </trkpt>
      <trkpt lat="47.76748" lon="6.82607">
        <ele>524.3</ele>
        <time>2021-08-09T17:07:33Z</time>
      </trkpt>
      <trkpt lat="47.76743" lon="6.82605">
        <ele>524.2</ele>
        <time>2021-08-09T17:07:34Z</time>
      </trkpt>
      <trkpt lat="47.76734" lon="6.82601">
        <ele>524.1</ele>
        <time>2021-08-09T17:07:36Z</time>
      </trkpt>
      <trkpt lat="47.7673" lon="6.82598">
        <ele>524</ele>
        <time>2021-08-09T17:07:37Z</time>
      </trkpt>
      <trkpt lat="47.76726" lon="6.82595">
        <ele>524</ele>
        <time>2021-08-09T17:07:38Z</time>
      </trkpt>
      <trkpt lat="47.76722" lon="6.82592">
        <ele>523.8</ele>
        <time>2021-08-09T17:07:39Z</time>
      </trkpt>
      <trkpt lat="47.76718" lon="6.82589">
        <ele>523.7</ele>
        <time>2021-08-09T17:07:40Z</time>
      </trkpt>
      <trkpt lat="47.76713" lon="6.82586">
        <ele>523.6</ele>
        <time>2021-08-09T17:07:41Z</time>
      </trkpt>
      <trkpt lat="47.76701" lon="6.82579">
        <ele>522.7</ele>
        <time>2021-08-09T17:07:43Z</time>
      </trkpt>
      <trkpt lat="47.76696" lon="6.82573">
        <ele>522</ele>
        <time>2021-08-09T17:07:44Z</time>
      </trkpt>
      <trkpt lat="47.76684" lon="6.82557">
        <ele>520.7</ele>
        <time>2021-08-09T17:07:46Z</time>
      </trkpt>
      <trkpt lat="47.76678" lon="6.82548">
        <ele>520.1</ele>
        <time>2021-08-09T17:07:47Z</time>
      </trkpt>
      <trkpt lat="47.76671" lon="6.8254">
        <ele>519.7</ele>
        <time>2021-08-09T17:07:48Z</time>
      </trkpt>
      <trkpt lat="47.76655" lon="6.82523">
        <ele>519.4</ele>
        <time>2021-08-09T17:07:50Z</time>
      </trkpt>
      <trkpt lat="47.7664" lon="6.8251">
        <ele>518.7</ele>
        <time>2021-08-09T17:07:52Z</time>
      </trkpt>
      <trkpt lat="47.76632" lon="6.82505">
        <ele>518.2</ele>
        <time>2021-08-09T17:07:53Z</time>
      </trkpt>
      <trkpt lat="47.76623" lon="6.82501">
        <ele>517.6</ele>
        <time>2021-08-09T17:07:54Z</time>
      </trkpt>
      <trkpt lat="47.76607" lon="6.82495">
        <ele>516.7</ele>
        <time>2021-08-09T17:07:56Z</time>
      </trkpt>
      <trkpt lat="47.76588" lon="6.8249">
        <ele>515.8</ele>
        <time>2021-08-09T17:07:58Z</time>
      </trkpt>
      <trkpt lat="47.7658" lon="6.82486">
        <ele>515.5</ele>
        <time>2021-08-09T17:07:59Z</time>
      </trkpt>
      <trkpt lat="47.76572" lon="6.82483">
        <ele>515.2</ele>
        <time>2021-08-09T17:08:00Z</time>
      </trkpt>
      <trkpt lat="47.76563" lon="6.82479">
        <ele>515</ele>
        <time>2021-08-09T17:08:01Z</time>
      </trkpt>
      <trkpt lat="47.76548" lon="6.82472">
        <ele>514.6</ele>
        <time>2021-08-09T17:08:03Z</time>
      </trkpt>
      <trkpt lat="47.76532" lon="6.82464">
        <ele>514.3</ele>
        <time>2021-08-09T17:08:05Z</time>
      </trkpt>
      <trkpt lat="47.76525" lon="6.82459">
        <ele>514.2</ele>
        <time>2021-08-09T17:08:06Z</time>
      </trkpt>
      <trkpt lat="47.76511" lon="6.82449">
        <ele>513.9</ele>
        <time>2021-08-09T17:08:08Z</time>
      </trkpt>
      <trkpt lat="47.76497" lon="6.8244">
        <ele>513.6</ele>
        <time>2021-08-09T17:08:10Z</time>
      </trkpt>
      <trkpt lat="47.76486" lon="6.82427">
        <ele>513</ele>
        <time>2021-08-09T17:08:12Z</time>
      </trkpt>
      <trkpt lat="47.76476" lon="6.82414">
        <ele>512.5</ele>
        <time>2021-08-09T17:08:14Z</time>
      </trkpt>
      <trkpt lat="47.76468" lon="6.82399">
        <ele>511.9</ele>
        <time>2021-08-09T17:08:16Z</time>
      </trkpt>
      <trkpt lat="47.76465" lon="6.8239">
        <ele>511.7</ele>
        <time>2021-08-09T17:08:17Z</time>
      </trkpt>
      <trkpt lat="47.76459" lon="6.82369">
        <ele>510.7</ele>
        <time>2021-08-09T17:08:19Z</time>
      </trkpt>
      <trkpt lat="47.76457" lon="6.82357">
        <ele>510.2</ele>
        <time>2021-08-09T17:08:20Z</time>
      </trkpt>
      <trkpt lat="47.7645" lon="6.82336">
        <ele>509.5</ele>
        <time>2021-08-09T17:08:22Z</time>
      </trkpt>
      <trkpt lat="47.76444" lon="6.82316">
        <ele>509</ele>
        <time>2021-08-09T17:08:24Z</time>
      </trkpt>
      <trkpt lat="47.76434" lon="6.82302">
        <ele>508.7</ele>
        <time>2021-08-09T17:08:26Z</time>
      </trkpt>
      <trkpt lat="47.76421" lon="6.8229">
        <ele>508.3</ele>
        <time>2021-08-09T17:08:28Z</time>
      </trkpt>
      <trkpt lat="47.76414" lon="6.82285">
        <ele>508.2</ele>
        <time>2021-08-09T17:08:29Z</time>
      </trkpt>
      <trkpt lat="47.76404" lon="6.82273">
        <ele>508.1</ele>
        <time>2021-08-09T17:08:31Z</time>
      </trkpt>
      <trkpt lat="47.76392" lon="6.82263">
        <ele>507.5</ele>
        <time>2021-08-09T17:08:33Z</time>
      </trkpt>
      <trkpt lat="47.76386" lon="6.82259">
        <ele>507.2</ele>
        <time>2021-08-09T17:08:34Z</time>
      </trkpt>
      <trkpt lat="47.76373" lon="6.82251">
        <ele>507</ele>
        <time>2021-08-09T17:08:36Z</time>
      </trkpt>
      <trkpt lat="47.76368" lon="6.82248">
        <ele>507</ele>
        <time>2021-08-09T17:08:37Z</time>
      </trkpt>
      <trkpt lat="47.76363" lon="6.82245">
        <ele>506.9</ele>
        <time>2021-08-09T17:08:38Z</time>
      </trkpt>
      <trkpt lat="47.76352" lon="6.8224">
        <ele>506.8</ele>
        <time>2021-08-09T17:08:40Z</time>
      </trkpt>
      <trkpt lat="47.76346" lon="6.82239">
        <ele>506.7</ele>
        <time>2021-08-09T17:08:41Z</time>
      </trkpt>
      <trkpt lat="47.76332" lon="6.82235">
        <ele>506.4</ele>
        <time>2021-08-09T17:08:43Z</time>
      </trkpt>
      <trkpt lat="47.76326" lon="6.82232">
        <ele>506.3</ele>
        <time>2021-08-09T17:08:44Z</time>
      </trkpt>
      <trkpt lat="47.76315" lon="6.82225">
        <ele>506.2</ele>
        <time>2021-08-09T17:08:46Z</time>
      </trkpt>
      <trkpt lat="47.76309" lon="6.82222">
        <ele>506.1</ele>
        <time>2021-08-09T17:08:47Z</time>
      </trkpt>
      <trkpt lat="47.76303" lon="6.8222">
        <ele>506</ele>
        <time>2021-08-09T17:08:48Z</time>
      </trkpt>
      <trkpt lat="47.76291" lon="6.82215">
        <ele>505.8</ele>
        <time>2021-08-09T17:08:50Z</time>
      </trkpt>
      <trkpt lat="47.7628" lon="6.82213">
        <ele>505.6</ele>
        <time>2021-08-09T17:08:52Z</time>
      </trkpt>
      <trkpt lat="47.76275" lon="6.82211">
        <ele>505.6</ele>
        <time>2021-08-09T17:08:53Z</time>
      </trkpt>
      <trkpt lat="47.7627" lon="6.82209">
        <ele>505.5</ele>
        <time>2021-08-09T17:08:54Z</time>
      </trkpt>
      <trkpt lat="47.76259" lon="6.82203">
        <ele>505.3</ele>
        <time>2021-08-09T17:08:56Z</time>
      </trkpt>
      <trkpt lat="47.76249" lon="6.82197">
        <ele>505.1</ele>
        <time>2021-08-09T17:08:58Z</time>
      </trkpt>
      <trkpt lat="47.76244" lon="6.82192">
        <ele>505</ele>
        <time>2021-08-09T17:08:59Z</time>
      </trkpt>
      <trkpt lat="47.76232" lon="6.82182">
        <ele>504.8</ele>
        <time>2021-08-09T17:09:01Z</time>
      </trkpt>
      <trkpt lat="47.76227" lon="6.82175">
        <ele>504.7</ele>
        <time>2021-08-09T17:09:02Z</time>
      </trkpt>
      <trkpt lat="47.76222" lon="6.82169">
        <ele>504.6</ele>
        <time>2021-08-09T17:09:03Z</time>
      </trkpt>
      <trkpt lat="47.76213" lon="6.82158">
        <ele>504.5</ele>
        <time>2021-08-09T17:09:05Z</time>
      </trkpt>
      <trkpt lat="47.76209" lon="6.82152">
        <ele>504.4</ele>
        <time>2021-08-09T17:09:06Z</time>
      </trkpt>
      <trkpt lat="47.76202" lon="6.82142">
        <ele>504.3</ele>
        <time>2021-08-09T17:09:08Z</time>
      </trkpt>
      <trkpt lat="47.76191" lon="6.82135">
        <ele>504.2</ele>
        <time>2021-08-09T17:09:10Z</time>
      </trkpt>
      <trkpt lat="47.76185" lon="6.82131">
        <ele>504.2</ele>
        <time>2021-08-09T17:09:11Z</time>
      </trkpt>
      <trkpt lat="47.76173" lon="6.82125">
        <ele>504</ele>
        <time>2021-08-09T17:09:13Z</time>
      </trkpt>
      <trkpt lat="47.76168" lon="6.82122">
        <ele>504</ele>
        <time>2021-08-09T17:09:14Z</time>
      </trkpt>
      <trkpt lat="47.76156" lon="6.82115">
        <ele>503.9</ele>
        <time>2021-08-09T17:09:16Z</time>
      </trkpt>
      <trkpt lat="47.76145" lon="6.82109">
        <ele>503.7</ele>
        <time>2021-08-09T17:09:18Z</time>
      </trkpt>
      <trkpt lat="47.76134" lon="6.82103">
        <ele>503.6</ele>
        <time>2021-08-09T17:09:20Z</time>
      </trkpt>
      <trkpt lat="47.76118" lon="6.82099">
        <ele>503.5</ele>
        <time>2021-08-09T17:09:22Z</time>
      </trkpt>
      <trkpt lat="47.76111" lon="6.82097">
        <ele>503.4</ele>
        <time>2021-08-09T17:09:23Z</time>
      </trkpt>
      <trkpt lat="47.76099" lon="6.82093">
        <ele>503.3</ele>
        <time>2021-08-09T17:09:25Z</time>
      </trkpt>
      <trkpt lat="47.76093" lon="6.82092">
        <ele>503.2</ele>
        <time>2021-08-09T17:09:26Z</time>
      </trkpt>
      <trkpt lat="47.76083" lon="6.8209">
        <ele>503.1</ele>
        <time>2021-08-09T17:09:28Z</time>
      </trkpt>
      <trkpt lat="47.76076" lon="6.82089">
        <ele>503.1</ele>
        <time>2021-08-09T17:09:29Z</time>
      </trkpt>
      <trkpt lat="47.7607" lon="6.82088">
        <ele>503</ele>
        <time>2021-08-09T17:09:30Z</time>
      </trkpt>
      <trkpt lat="47.76057" lon="6.82084">
        <ele>502.9</ele>
        <time>2021-08-09T17:09:32Z</time>
      </trkpt>
      <trkpt lat="47.76052" lon="6.82081">
        <ele>502.9</ele>
        <time>2021-08-09T17:09:33Z</time>
      </trkpt>
      <trkpt lat="47.76047" lon="6.82079">
        <ele>502.8</ele>
        <time>2021-08-09T17:09:34Z</time>
      </trkpt>
      <trkpt lat="47.76038" lon="6.82072">
        <ele>502.8</ele>
        <time>2021-08-09T17:09:36Z</time>
      </trkpt>
      <trkpt lat="47.76031" lon="6.82064">
        <ele>502.7</ele>
        <time>2021-08-09T17:09:38Z</time>
      </trkpt>
      <trkpt lat="47.76024" lon="6.82057">
        <ele>502.7</ele>
        <time>2021-08-09T17:09:40Z</time>
      </trkpt>
      <trkpt lat="47.7602" lon="6.82053">
        <ele>502.6</ele>
        <time>2021-08-09T17:09:41Z</time>
      </trkpt>
      <trkpt lat="47.76014" lon="6.82047">
        <ele>502.6</ele>
        <time>2021-08-09T17:09:43Z</time>
      </trkpt>
      <trkpt lat="47.76011" lon="6.82044">
        <ele>502.5</ele>
        <time>2021-08-09T17:09:44Z</time>
      </trkpt>
      <trkpt lat="47.76" lon="6.82038">
        <ele>502.5</ele>
        <time>2021-08-09T17:09:46Z</time>
      </trkpt>
      <trkpt lat="47.75989" lon="6.82034">
        <ele>502.4</ele>
        <time>2021-08-09T17:09:48Z</time>
      </trkpt>
      <trkpt lat="47.75984" lon="6.82032">
        <ele>502.3</ele>
        <time>2021-08-09T17:09:49Z</time>
      </trkpt>
      <trkpt lat="47.7598" lon="6.8203">
        <ele>502.2</ele>
        <time>2021-08-09T17:09:50Z</time>
      </trkpt>
      <trkpt lat="47.7597" lon="6.82025">
        <ele>502.1</ele>
        <time>2021-08-09T17:09:52Z</time>
      </trkpt>
      <trkpt lat="47.75965" lon="6.82023">
        <ele>502</ele>
        <time>2021-08-09T17:09:53Z</time>
      </trkpt>
      <trkpt lat="47.7596" lon="6.82022">
        <ele>501.9</ele>
        <time>2021-08-09T17:09:54Z</time>
      </trkpt>
      <trkpt lat="47.75949" lon="6.82019">
        <ele>501.7</ele>
        <time>2021-08-09T17:09:56Z</time>
      </trkpt>
      <trkpt lat="47.75938" lon="6.82016">
        <ele>501.6</ele>
        <time>2021-08-09T17:09:58Z</time>
      </trkpt>
      <trkpt lat="47.75928" lon="6.82012">
        <ele>501.5</ele>
        <time>2021-08-09T17:10:00Z</time>
      </trkpt>
      <trkpt lat="47.75917" lon="6.82006">
        <ele>501.5</ele>
        <time>2021-08-09T17:10:02Z</time>
      </trkpt>
      <trkpt lat="47.75908" lon="6.81999">
        <ele>501.4</ele>
        <time>2021-08-09T17:10:04Z</time>
      </trkpt>
      <trkpt lat="47.75905" lon="6.81994">
        <ele>501.4</ele>
        <time>2021-08-09T17:10:05Z</time>
      </trkpt>
      <trkpt lat="47.75898" lon="6.81984">
        <ele>501.3</ele>
        <time>2021-08-09T17:10:07Z</time>
      </trkpt>
      <trkpt lat="47.7589" lon="6.81976">
        <ele>501.2</ele>
        <time>2021-08-09T17:10:09Z</time>
      </trkpt>
      <trkpt lat="47.75883" lon="6.81968">
        <ele>501.1</ele>
        <time>2021-08-09T17:10:11Z</time>
      </trkpt>
      <trkpt lat="47.75879" lon="6.81965">
        <ele>501.1</ele>
        <time>2021-08-09T17:10:12Z</time>
      </trkpt>
      <trkpt lat="47.75874" lon="6.81957">
        <ele>501.1</ele>
        <time>2021-08-09T17:10:14Z</time>
      </trkpt>
      <trkpt lat="47.75869" lon="6.81949">
        <ele>501</ele>
        <time>2021-08-09T17:10:16Z</time>
      </trkpt>
      <trkpt lat="47.75867" lon="6.81945">
        <ele>501</ele>
        <time>2021-08-09T17:10:17Z</time>
      </trkpt>
      <trkpt lat="47.75864" lon="6.81941">
        <ele>501</ele>
        <time>2021-08-09T17:10:19Z</time>
      </trkpt>
      <trkpt lat="47.7586" lon="6.81937">
        <ele>501</ele>
        <time>2021-08-09T17:10:21Z</time>
      </trkpt>
      <trkpt lat="47.75856" lon="6.81935">
        <ele>501</ele>
        <time>2021-08-09T17:10:23Z</time>
      </trkpt>
      <trkpt lat="47.75851" lon="6.81934">
        <ele>500.9</ele>
        <time>2021-08-09T17:10:24Z</time>
      </trkpt>
      <trkpt lat="47.75842" lon="6.81933">
        <ele>500.9</ele>
        <time>2021-08-09T17:10:26Z</time>
      </trkpt>
      <trkpt lat="47.75831" lon="6.8193">
        <ele>500.7</ele>
        <time>2021-08-09T17:10:27Z</time>
      </trkpt>
      <trkpt lat="47.75817" lon="6.81927">
        <ele>500.4</ele>
        <time>2021-08-09T17:10:29Z</time>
      </trkpt>
      <trkpt lat="47.75812" lon="6.81925">
        <ele>500.3</ele>
        <time>2021-08-09T17:10:30Z</time>
      </trkpt>
      <trkpt lat="47.75807" lon="6.81922">
        <ele>500.1</ele>
        <time>2021-08-09T17:10:31Z</time>
      </trkpt>
      <trkpt lat="47.75801" lon="6.8192">
        <ele>500</ele>
        <time>2021-08-09T17:10:32Z</time>
      </trkpt>
      <trkpt lat="47.7579" lon="6.81915">
        <ele>499.9</ele>
        <time>2021-08-09T17:10:34Z</time>
      </trkpt>
      <trkpt lat="47.75784" lon="6.81913">
        <ele>499.8</ele>
        <time>2021-08-09T17:10:35Z</time>
      </trkpt>
      <trkpt lat="47.75773" lon="6.81909">
        <ele>499.7</ele>
        <time>2021-08-09T17:10:37Z</time>
      </trkpt>
      <trkpt lat="47.75767" lon="6.81907">
        <ele>499.6</ele>
        <time>2021-08-09T17:10:38Z</time>
      </trkpt>
      <trkpt lat="47.75752" lon="6.819">
        <ele>499.5</ele>
        <time>2021-08-09T17:10:40Z</time>
      </trkpt>
      <trkpt lat="47.75744" lon="6.81897">
        <ele>499.5</ele>
        <time>2021-08-09T17:10:41Z</time>
      </trkpt>
      <trkpt lat="47.75731" lon="6.81892">
        <ele>499.4</ele>
        <time>2021-08-09T17:10:43Z</time>
      </trkpt>
      <trkpt lat="47.75725" lon="6.81891">
        <ele>499.3</ele>
        <time>2021-08-09T17:10:44Z</time>
      </trkpt>
      <trkpt lat="47.75714" lon="6.8189">
        <ele>499.2</ele>
        <time>2021-08-09T17:10:46Z</time>
      </trkpt>
      <trkpt lat="47.75708" lon="6.81889">
        <ele>499.2</ele>
        <time>2021-08-09T17:10:47Z</time>
      </trkpt>
      <trkpt lat="47.75696" lon="6.81886">
        <ele>499.2</ele>
        <time>2021-08-09T17:10:49Z</time>
      </trkpt>
      <trkpt lat="47.75693" lon="6.81883">
        <ele>499.1</ele>
        <time>2021-08-09T17:10:50Z</time>
      </trkpt>
      <trkpt lat="47.75688" lon="6.81881">
        <ele>499.1</ele>
        <time>2021-08-09T17:10:52Z</time>
      </trkpt>
      <trkpt lat="47.75684" lon="6.8188">
        <ele>499.1</ele>
        <time>2021-08-09T17:10:53Z</time>
      </trkpt>
      <trkpt lat="47.75672" lon="6.81882">
        <ele>499.1</ele>
        <time>2021-08-09T17:10:55Z</time>
      </trkpt>
      <trkpt lat="47.75666" lon="6.81884">
        <ele>499</ele>
        <time>2021-08-09T17:10:56Z</time>
      </trkpt>
      <trkpt lat="47.75655" lon="6.81886">
        <ele>499</ele>
        <time>2021-08-09T17:10:58Z</time>
      </trkpt>
      <trkpt lat="47.75649" lon="6.81887">
        <ele>498.9</ele>
        <time>2021-08-09T17:10:59Z</time>
      </trkpt>
      <trkpt lat="47.75639" lon="6.81891">
        <ele>498.8</ele>
        <time>2021-08-09T17:11:01Z</time>
      </trkpt>
      <trkpt lat="47.75634" lon="6.81891">
        <ele>498.7</ele>
        <time>2021-08-09T17:11:02Z</time>
      </trkpt>
      <trkpt lat="47.75624" lon="6.81892">
        <ele>498.5</ele>
        <time>2021-08-09T17:11:04Z</time>
      </trkpt>
      <trkpt lat="47.75619" lon="6.81892">
        <ele>498.5</ele>
        <time>2021-08-09T17:11:05Z</time>
      </trkpt>
      <trkpt lat="47.75613" lon="6.81891">
        <ele>498.4</ele>
        <time>2021-08-09T17:11:07Z</time>
      </trkpt>
      <trkpt lat="47.75608" lon="6.81892">
        <ele>498.4</ele>
        <time>2021-08-09T17:11:08Z</time>
      </trkpt>
      <trkpt lat="47.75596" lon="6.81896">
        <ele>498.3</ele>
        <time>2021-08-09T17:11:10Z</time>
      </trkpt>
      <trkpt lat="47.7559" lon="6.81898">
        <ele>498.2</ele>
        <time>2021-08-09T17:11:11Z</time>
      </trkpt>
      <trkpt lat="47.75581" lon="6.81901">
        <ele>498.1</ele>
        <time>2021-08-09T17:11:13Z</time>
      </trkpt>
      <trkpt lat="47.75576" lon="6.81903">
        <ele>498.1</ele>
        <time>2021-08-09T17:11:14Z</time>
      </trkpt>
      <trkpt lat="47.75569" lon="6.81906">
        <ele>498.1</ele>
        <time>2021-08-09T17:11:16Z</time>
      </trkpt>
      <trkpt lat="47.75567" lon="6.81907">
        <ele>498</ele>
        <time>2021-08-09T17:11:17Z</time>
      </trkpt>
      <trkpt lat="47.75566" lon="6.81908">
        <ele>498</ele>
        <time>2021-08-09T17:11:18Z</time>
      </trkpt>
      <trkpt lat="47.75564" lon="6.81909">
        <ele>498</ele>
        <time>2021-08-09T17:11:19Z</time>
      </trkpt>
      <trkpt lat="47.75561" lon="6.81912">
        <ele>498</ele>
        <time>2021-08-09T17:11:21Z</time>
      </trkpt>
      <trkpt lat="47.75557" lon="6.81916">
        <ele>497.9</ele>
        <time>2021-08-09T17:11:22Z</time>
      </trkpt>
      <trkpt lat="47.75555" lon="6.81918">
        <ele>497.9</ele>
        <time>2021-08-09T17:11:23Z</time>
      </trkpt>
      <trkpt lat="47.75545" lon="6.81922">
        <ele>497.8</ele>
        <time>2021-08-09T17:11:24Z</time>
      </trkpt>
      <trkpt lat="47.75537" lon="6.81926">
        <ele>497.8</ele>
        <time>2021-08-09T17:11:26Z</time>
      </trkpt>
      <trkpt lat="47.75528" lon="6.8193">
        <ele>497.7</ele>
        <time>2021-08-09T17:11:27Z</time>
      </trkpt>
      <trkpt lat="47.7552" lon="6.81934">
        <ele>497.6</ele>
        <time>2021-08-09T17:11:28Z</time>
      </trkpt>
      <trkpt lat="47.75504" lon="6.81941">
        <ele>497.5</ele>
        <time>2021-08-09T17:11:30Z</time>
      </trkpt>
      <trkpt lat="47.75495" lon="6.81941">
        <ele>497.4</ele>
        <time>2021-08-09T17:11:32Z</time>
      </trkpt>
      <trkpt lat="47.7549" lon="6.81942">
        <ele>497.3</ele>
        <time>2021-08-09T17:11:33Z</time>
      </trkpt>
      <trkpt lat="47.75483" lon="6.81944">
        <ele>497.2</ele>
        <time>2021-08-09T17:11:35Z</time>
      </trkpt>
      <trkpt lat="47.75479" lon="6.81944">
        <ele>497.2</ele>
        <time>2021-08-09T17:11:36Z</time>
      </trkpt>
      <trkpt lat="47.75474" lon="6.81944">
        <ele>497.1</ele>
        <time>2021-08-09T17:11:37Z</time>
      </trkpt>
      <trkpt lat="47.75471" lon="6.81943">
        <ele>497</ele>
        <time>2021-08-09T17:11:38Z</time>
      </trkpt>
      <trkpt lat="47.75465" lon="6.81938">
        <ele>496.9</ele>
        <time>2021-08-09T17:11:40Z</time>
      </trkpt>
      <trkpt lat="47.75457" lon="6.81927">
        <ele>496.8</ele>
        <time>2021-08-09T17:11:42Z</time>
      </trkpt>
      <trkpt lat="47.7545" lon="6.81919">
        <ele>496.7</ele>
        <time>2021-08-09T17:11:44Z</time>
      </trkpt>
      <trkpt lat="47.75447" lon="6.81914">
        <ele>496.7</ele>
        <time>2021-08-09T17:11:46Z</time>
      </trkpt>
      <trkpt lat="47.75444" lon="6.81909">
        <ele>496.6</ele>
        <time>2021-08-09T17:11:47Z</time>
      </trkpt>
      <trkpt lat="47.75438" lon="6.819">
        <ele>496.6</ele>
        <time>2021-08-09T17:11:48Z</time>
      </trkpt>
      <trkpt lat="47.75435" lon="6.81897">
        <ele>496.6</ele>
        <time>2021-08-09T17:11:49Z</time>
      </trkpt>
      <trkpt lat="47.75435" lon="6.81896">
        <ele>496.5</ele>
        <time>2021-08-09T17:11:50Z</time>
      </trkpt>
      <trkpt lat="47.75431" lon="6.81891">
        <ele>496.5</ele>
        <time>2021-08-09T17:11:52Z</time>
      </trkpt>
      <trkpt lat="47.75427" lon="6.81887">
        <ele>496.5</ele>
        <time>2021-08-09T17:11:53Z</time>
      </trkpt>
      <trkpt lat="47.75425" lon="6.81883">
        <ele>496.5</ele>
        <time>2021-08-09T17:11:54Z</time>
      </trkpt>
      <trkpt lat="47.75423" lon="6.81881">
        <ele>496.4</ele>
        <time>2021-08-09T17:11:55Z</time>
      </trkpt>
      <trkpt lat="47.75419" lon="6.81879">
        <ele>496.4</ele>
        <time>2021-08-09T17:11:57Z</time>
      </trkpt>
      <trkpt lat="47.75413" lon="6.81878">
        <ele>496.4</ele>
        <time>2021-08-09T17:11:58Z</time>
      </trkpt>
      <trkpt lat="47.75402" lon="6.81877">
        <ele>496.3</ele>
        <time>2021-08-09T17:11:59Z</time>
      </trkpt>
      <trkpt lat="47.75395" lon="6.81875">
        <ele>496.2</ele>
        <time>2021-08-09T17:12:00Z</time>
      </trkpt>
      <trkpt lat="47.75381" lon="6.8187">
        <ele>496.1</ele>
        <time>2021-08-09T17:12:02Z</time>
      </trkpt>
      <trkpt lat="47.7537" lon="6.81867">
        <ele>496.1</ele>
        <time>2021-08-09T17:12:04Z</time>
      </trkpt>
      <trkpt lat="47.75357" lon="6.8187">
        <ele>496</ele>
        <time>2021-08-09T17:12:06Z</time>
      </trkpt>
      <trkpt lat="47.75352" lon="6.81871">
        <ele>496</ele>
        <time>2021-08-09T17:12:07Z</time>
      </trkpt>
      <trkpt lat="47.75348" lon="6.81872">
        <ele>496</ele>
        <time>2021-08-09T17:12:08Z</time>
      </trkpt>
      <trkpt lat="47.75341" lon="6.81875">
        <ele>496</ele>
        <time>2021-08-09T17:12:10Z</time>
      </trkpt>
      <trkpt lat="47.75334" lon="6.81879">
        <ele>496.1</ele>
        <time>2021-08-09T17:12:12Z</time>
      </trkpt>
      <trkpt lat="47.75324" lon="6.81884">
        <ele>496.1</ele>
        <time>2021-08-09T17:12:14Z</time>
      </trkpt>
      <trkpt lat="47.75313" lon="6.81888">
        <ele>495.9</ele>
        <time>2021-08-09T17:12:16Z</time>
      </trkpt>
      <trkpt lat="47.75303" lon="6.81892">
        <ele>495.7</ele>
        <time>2021-08-09T17:12:18Z</time>
      </trkpt>
      <trkpt lat="47.75292" lon="6.81896">
        <ele>495.5</ele>
        <time>2021-08-09T17:12:20Z</time>
      </trkpt>
      <trkpt lat="47.75287" lon="6.81901">
        <ele>495.4</ele>
        <time>2021-08-09T17:12:22Z</time>
      </trkpt>
      <trkpt lat="47.75281" lon="6.81904">
        <ele>495.3</ele>
        <time>2021-08-09T17:12:23Z</time>
      </trkpt>
      <trkpt lat="47.75275" lon="6.81909">
        <ele>495.2</ele>
        <time>2021-08-09T17:12:24Z</time>
      </trkpt>
      <trkpt lat="47.7527" lon="6.81913">
        <ele>495.1</ele>
        <time>2021-08-09T17:12:25Z</time>
      </trkpt>
      <trkpt lat="47.75261" lon="6.81918">
        <ele>495</ele>
        <time>2021-08-09T17:12:27Z</time>
      </trkpt>
      <trkpt lat="47.75258" lon="6.8192">
        <ele>495</ele>
        <time>2021-08-09T17:12:28Z</time>
      </trkpt>
      <trkpt lat="47.75256" lon="6.81921">
        <ele>495</ele>
        <time>2021-08-09T17:12:29Z</time>
      </trkpt>
      <trkpt lat="47.7523" lon="6.81932">
        <ele>494.8</ele>
        <time>2021-08-09T17:12:30Z</time>
      </trkpt>
      <trkpt lat="47.75222" lon="6.81936">
        <ele>494.7</ele>
        <time>2021-08-09T17:12:32Z</time>
      </trkpt>
      <trkpt lat="47.75216" lon="6.81936">
        <ele>494.6</ele>
        <time>2021-08-09T17:12:33Z</time>
      </trkpt>
      <trkpt lat="47.75211" lon="6.81937">
        <ele>494.5</ele>
        <time>2021-08-09T17:12:34Z</time>
      </trkpt>
      <trkpt lat="47.75206" lon="6.81939">
        <ele>494.4</ele>
        <time>2021-08-09T17:12:35Z</time>
      </trkpt>
      <trkpt lat="47.75197" lon="6.81943">
        <ele>494.4</ele>
        <time>2021-08-09T17:12:37Z</time>
      </trkpt>
      <trkpt lat="47.75196" lon="6.81943">
        <ele>494.4</ele>
        <time>2021-08-09T17:12:38Z</time>
      </trkpt>
      <trkpt lat="47.75192" lon="6.8195">
        <ele>494.3</ele>
        <time>2021-08-09T17:12:40Z</time>
      </trkpt>
      <trkpt lat="47.75188" lon="6.81953">
        <ele>494.3</ele>
        <time>2021-08-09T17:12:41Z</time>
      </trkpt>
      <trkpt lat="47.75184" lon="6.81954">
        <ele>494.3</ele>
        <time>2021-08-09T17:12:42Z</time>
      </trkpt>
      <trkpt lat="47.75177" lon="6.81954">
        <ele>494.3</ele>
        <time>2021-08-09T17:12:44Z</time>
      </trkpt>
      <trkpt lat="47.75171" lon="6.81953">
        <ele>494.2</ele>
        <time>2021-08-09T17:12:45Z</time>
      </trkpt>
      <trkpt lat="47.75165" lon="6.8195">
        <ele>494.2</ele>
        <time>2021-08-09T17:12:46Z</time>
      </trkpt>
      <trkpt lat="47.75159" lon="6.81948">
        <ele>494.1</ele>
        <time>2021-08-09T17:12:48Z</time>
      </trkpt>
      <trkpt lat="47.75156" lon="6.81948">
        <ele>494.1</ele>
        <time>2021-08-09T17:12:49Z</time>
      </trkpt>
      <trkpt lat="47.7515" lon="6.81944">
        <ele>494</ele>
        <time>2021-08-09T17:12:51Z</time>
      </trkpt>
      <trkpt lat="47.75145" lon="6.81941">
        <ele>494</ele>
        <time>2021-08-09T17:12:52Z</time>
      </trkpt>
      <trkpt lat="47.75141" lon="6.81939">
        <ele>493.9</ele>
        <time>2021-08-09T17:12:54Z</time>
      </trkpt>
      <trkpt lat="47.75132" lon="6.81937">
        <ele>493.8</ele>
        <time>2021-08-09T17:12:55Z</time>
      </trkpt>
      <trkpt lat="47.75126" lon="6.81936">
        <ele>493.8</ele>
        <time>2021-08-09T17:12:56Z</time>
      </trkpt>
      <trkpt lat="47.75114" lon="6.81933">
        <ele>493.9</ele>
        <time>2021-08-09T17:12:58Z</time>
      </trkpt>
      <trkpt lat="47.75108" lon="6.81932">
        <ele>493.9</ele>
        <time>2021-08-09T17:12:59Z</time>
      </trkpt>
      <trkpt lat="47.75103" lon="6.81932">
        <ele>493.9</ele>
        <time>2021-08-09T17:13:00Z</time>
      </trkpt>
      <trkpt lat="47.75096" lon="6.81931">
        <ele>494.1</ele>
        <time>2021-08-09T17:13:02Z</time>
      </trkpt>
      <trkpt lat="47.75091" lon="6.8193">
        <ele>494.1</ele>
        <time>2021-08-09T17:13:03Z</time>
      </trkpt>
      <trkpt lat="47.75083" lon="6.81926">
        <ele>494.3</ele>
        <time>2021-08-09T17:13:04Z</time>
      </trkpt>
      <trkpt lat="47.75079" lon="6.81924">
        <ele>494.4</ele>
        <time>2021-08-09T17:13:05Z</time>
      </trkpt>
      <trkpt lat="47.75076" lon="6.8192">
        <ele>494.5</ele>
        <time>2021-08-09T17:13:06Z</time>
      </trkpt>
      <trkpt lat="47.7507" lon="6.81914">
        <ele>494.6</ele>
        <time>2021-08-09T17:13:08Z</time>
      </trkpt>
      <trkpt lat="47.75068" lon="6.81914">
        <ele>494.7</ele>
        <time>2021-08-09T17:13:09Z</time>
      </trkpt>
      <trkpt lat="47.75062" lon="6.81915">
        <ele>494.8</ele>
        <time>2021-08-09T17:13:11Z</time>
      </trkpt>
      <trkpt lat="47.75058" lon="6.81917">
        <ele>494.9</ele>
        <time>2021-08-09T17:13:12Z</time>
      </trkpt>
      <trkpt lat="47.75057" lon="6.81918">
        <ele>494.9</ele>
        <time>2021-08-09T17:13:13Z</time>
      </trkpt>
      <trkpt lat="47.75053" lon="6.81923">
        <ele>494.9</ele>
        <time>2021-08-09T17:13:15Z</time>
      </trkpt>
      <trkpt lat="47.75049" lon="6.81927">
        <ele>494.9</ele>
        <time>2021-08-09T17:13:16Z</time>
      </trkpt>
      <trkpt lat="47.75043" lon="6.81931">
        <ele>494.9</ele>
        <time>2021-08-09T17:13:18Z</time>
      </trkpt>
      <trkpt lat="47.75041" lon="6.81934">
        <ele>494.9</ele>
        <time>2021-08-09T17:13:19Z</time>
      </trkpt>
      <trkpt lat="47.75034" lon="6.81941">
        <ele>494.9</ele>
        <time>2021-08-09T17:13:21Z</time>
      </trkpt>
      <trkpt lat="47.75029" lon="6.81944">
        <ele>494.9</ele>
        <time>2021-08-09T17:13:22Z</time>
      </trkpt>
      <trkpt lat="47.75025" lon="6.81947">
        <ele>495</ele>
        <time>2021-08-09T17:13:23Z</time>
      </trkpt>
      <trkpt lat="47.7502" lon="6.81951">
        <ele>495.1</ele>
        <time>2021-08-09T17:13:25Z</time>
      </trkpt>
      <trkpt lat="47.75016" lon="6.81953">
        <ele>495.1</ele>
        <time>2021-08-09T17:13:26Z</time>
      </trkpt>
      <trkpt lat="47.75012" lon="6.81957">
        <ele>495.2</ele>
        <time>2021-08-09T17:13:27Z</time>
      </trkpt>
      <trkpt lat="47.75009" lon="6.8196">
        <ele>495.2</ele>
        <time>2021-08-09T17:13:28Z</time>
      </trkpt>
      <trkpt lat="47.75006" lon="6.81963">
        <ele>495.3</ele>
        <time>2021-08-09T17:13:30Z</time>
      </trkpt>
      <trkpt lat="47.75002" lon="6.81966">
        <ele>495.3</ele>
        <time>2021-08-09T17:13:31Z</time>
      </trkpt>
      <trkpt lat="47.74998" lon="6.81969">
        <ele>495.4</ele>
        <time>2021-08-09T17:13:32Z</time>
      </trkpt>
      <trkpt lat="47.74993" lon="6.81973">
        <ele>495.4</ele>
        <time>2021-08-09T17:13:33Z</time>
      </trkpt>
      <trkpt lat="47.74985" lon="6.81978">
        <ele>495.6</ele>
        <time>2021-08-09T17:13:35Z</time>
      </trkpt>
      <trkpt lat="47.74982" lon="6.81979">
        <ele>495.6</ele>
        <time>2021-08-09T17:13:36Z</time>
      </trkpt>
      <trkpt lat="47.74976" lon="6.81984">
        <ele>495.7</ele>
        <time>2021-08-09T17:13:38Z</time>
      </trkpt>
      <trkpt lat="47.7497" lon="6.81988">
        <ele>495.8</ele>
        <time>2021-08-09T17:13:40Z</time>
      </trkpt>
      <trkpt lat="47.74964" lon="6.81992">
        <ele>495.9</ele>
        <time>2021-08-09T17:13:42Z</time>
      </trkpt>
      <trkpt lat="47.74959" lon="6.81997">
        <ele>495.9</ele>
        <time>2021-08-09T17:13:44Z</time>
      </trkpt>
      <trkpt lat="47.74953" lon="6.82002">
        <ele>495.9</ele>
        <time>2021-08-09T17:13:45Z</time>
      </trkpt>
      <trkpt lat="47.74944" lon="6.82007">
        <ele>496</ele>
        <time>2021-08-09T17:13:47Z</time>
      </trkpt>
      <trkpt lat="47.74937" lon="6.8201">
        <ele>496</ele>
        <time>2021-08-09T17:13:48Z</time>
      </trkpt>
      <trkpt lat="47.74931" lon="6.82015">
        <ele>495.9</ele>
        <time>2021-08-09T17:13:50Z</time>
      </trkpt>
      <trkpt lat="47.74924" lon="6.82018">
        <ele>496.9</ele>
        <time>2021-08-09T17:13:51Z</time>
      </trkpt>
      <trkpt lat="47.74918" lon="6.82022">
        <ele>496.6</ele>
        <time>2021-08-09T17:13:53Z</time>
      </trkpt>
      <trkpt lat="47.74913" lon="6.82025">
        <ele>496.4</ele>
        <time>2021-08-09T17:13:54Z</time>
      </trkpt>
      <trkpt lat="47.74903" lon="6.82031">
        <ele>496.2</ele>
        <time>2021-08-09T17:13:55Z</time>
      </trkpt>
      <trkpt lat="47.74898" lon="6.82034">
        <ele>496.2</ele>
        <time>2021-08-09T17:13:56Z</time>
      </trkpt>
      <trkpt lat="47.74886" lon="6.82041">
        <ele>496.2</ele>
        <time>2021-08-09T17:13:58Z</time>
      </trkpt>
      <trkpt lat="47.74881" lon="6.82044">
        <ele>496.1</ele>
        <time>2021-08-09T17:13:59Z</time>
      </trkpt>
      <trkpt lat="47.74871" lon="6.82049">
        <ele>496.1</ele>
        <time>2021-08-09T17:14:01Z</time>
      </trkpt>
      <trkpt lat="47.74867" lon="6.82053">
        <ele>496.1</ele>
        <time>2021-08-09T17:14:02Z</time>
      </trkpt>
      <trkpt lat="47.7486" lon="6.82064">
        <ele>496.1</ele>
        <time>2021-08-09T17:14:04Z</time>
      </trkpt>
      <trkpt lat="47.74856" lon="6.82068">
        <ele>496.2</ele>
        <time>2021-08-09T17:14:05Z</time>
      </trkpt>
      <trkpt lat="47.74855" lon="6.82072">
        <ele>496.2</ele>
        <time>2021-08-09T17:14:06Z</time>
      </trkpt>
      <trkpt lat="47.7485" lon="6.82076">
        <ele>496.2</ele>
        <time>2021-08-09T17:14:08Z</time>
      </trkpt>
      <trkpt lat="47.74847" lon="6.8208">
        <ele>496.1</ele>
        <time>2021-08-09T17:14:09Z</time>
      </trkpt>
      <trkpt lat="47.74843" lon="6.82083">
        <ele>496.1</ele>
        <time>2021-08-09T17:14:10Z</time>
      </trkpt>
      <trkpt lat="47.74839" lon="6.82091">
        <ele>496</ele>
        <time>2021-08-09T17:14:11Z</time>
      </trkpt>
      <trkpt lat="47.74835" lon="6.82096">
        <ele>495.8</ele>
        <time>2021-08-09T17:14:12Z</time>
      </trkpt>
      <trkpt lat="47.74828" lon="6.82105">
        <ele>495.6</ele>
        <time>2021-08-09T17:14:14Z</time>
      </trkpt>
      <trkpt lat="47.74821" lon="6.82113">
        <ele>495.3</ele>
        <time>2021-08-09T17:14:16Z</time>
      </trkpt>
      <trkpt lat="47.74816" lon="6.82118">
        <ele>495.2</ele>
        <time>2021-08-09T17:14:17Z</time>
      </trkpt>
      <trkpt lat="47.74811" lon="6.82122">
        <ele>495.1</ele>
        <time>2021-08-09T17:14:18Z</time>
      </trkpt>
      <trkpt lat="47.74804" lon="6.82133">
        <ele>494.9</ele>
        <time>2021-08-09T17:14:20Z</time>
      </trkpt>
      <trkpt lat="47.74797" lon="6.82144">
        <ele>494.8</ele>
        <time>2021-08-09T17:14:22Z</time>
      </trkpt>
      <trkpt lat="47.74793" lon="6.82149">
        <ele>494.7</ele>
        <time>2021-08-09T17:14:23Z</time>
      </trkpt>
      <trkpt lat="47.74789" lon="6.82155">
        <ele>494.7</ele>
        <time>2021-08-09T17:14:24Z</time>
      </trkpt>
      <trkpt lat="47.74783" lon="6.82165">
        <ele>494.3</ele>
        <time>2021-08-09T17:14:26Z</time>
      </trkpt>
      <trkpt lat="47.74779" lon="6.8217">
        <ele>494.2</ele>
        <time>2021-08-09T17:14:27Z</time>
      </trkpt>
      <trkpt lat="47.74775" lon="6.82175">
        <ele>494</ele>
        <time>2021-08-09T17:14:28Z</time>
      </trkpt>
      <trkpt lat="47.74771" lon="6.8218">
        <ele>493.9</ele>
        <time>2021-08-09T17:14:29Z</time>
      </trkpt>
      <trkpt lat="47.74761" lon="6.82192">
        <ele>493.8</ele>
        <time>2021-08-09T17:14:31Z</time>
      </trkpt>
      <trkpt lat="47.74756" lon="6.82198">
        <ele>493.7</ele>
        <time>2021-08-09T17:14:32Z</time>
      </trkpt>
      <trkpt lat="47.74749" lon="6.82209">
        <ele>493.6</ele>
        <time>2021-08-09T17:14:34Z</time>
      </trkpt>
      <trkpt lat="47.74742" lon="6.82218">
        <ele>493.5</ele>
        <time>2021-08-09T17:14:36Z</time>
      </trkpt>
      <trkpt lat="47.74736" lon="6.8223">
        <ele>493.4</ele>
        <time>2021-08-09T17:14:38Z</time>
      </trkpt>
      <trkpt lat="47.74732" lon="6.82236">
        <ele>493.3</ele>
        <time>2021-08-09T17:14:39Z</time>
      </trkpt>
      <trkpt lat="47.74724" lon="6.82247">
        <ele>493.2</ele>
        <time>2021-08-09T17:14:41Z</time>
      </trkpt>
      <trkpt lat="47.7472" lon="6.82253">
        <ele>493.2</ele>
        <time>2021-08-09T17:14:42Z</time>
      </trkpt>
      <trkpt lat="47.74716" lon="6.82257">
        <ele>493.1</ele>
        <time>2021-08-09T17:14:43Z</time>
      </trkpt>
      <trkpt lat="47.74712" lon="6.8226">
        <ele>493.1</ele>
        <time>2021-08-09T17:14:44Z</time>
      </trkpt>
      <trkpt lat="47.74704" lon="6.82268">
        <ele>493.1</ele>
        <time>2021-08-09T17:14:46Z</time>
      </trkpt>
      <trkpt lat="47.74699" lon="6.82272">
        <ele>493.1</ele>
        <time>2021-08-09T17:14:47Z</time>
      </trkpt>
      <trkpt lat="47.74691" lon="6.82281">
        <ele>493.1</ele>
        <time>2021-08-09T17:14:49Z</time>
      </trkpt>
      <trkpt lat="47.74687" lon="6.82285">
        <ele>493</ele>
        <time>2021-08-09T17:14:50Z</time>
      </trkpt>
      <trkpt lat="47.74681" lon="6.82294">
        <ele>493</ele>
        <time>2021-08-09T17:14:52Z</time>
      </trkpt>
      <trkpt lat="47.74677" lon="6.82301">
        <ele>492.9</ele>
        <time>2021-08-09T17:14:53Z</time>
      </trkpt>
      <trkpt lat="47.74673" lon="6.82307">
        <ele>492.9</ele>
        <time>2021-08-09T17:14:54Z</time>
      </trkpt>
      <trkpt lat="47.74665" lon="6.82315">
        <ele>492.7</ele>
        <time>2021-08-09T17:14:56Z</time>
      </trkpt>
      <trkpt lat="47.74658" lon="6.82323">
        <ele>492.7</ele>
        <time>2021-08-09T17:14:58Z</time>
      </trkpt>
      <trkpt lat="47.74651" lon="6.82331">
        <ele>492.6</ele>
        <time>2021-08-09T17:15:00Z</time>
      </trkpt>
      <trkpt lat="47.74643" lon="6.82341">
        <ele>492.5</ele>
        <time>2021-08-09T17:15:02Z</time>
      </trkpt>
      <trkpt lat="47.74638" lon="6.8235">
        <ele>492.4</ele>
        <time>2021-08-09T17:15:04Z</time>
      </trkpt>
      <trkpt lat="47.74635" lon="6.82354">
        <ele>492.3</ele>
        <time>2021-08-09T17:15:05Z</time>
      </trkpt>
      <trkpt lat="47.74631" lon="6.82357">
        <ele>492.2</ele>
        <time>2021-08-09T17:15:06Z</time>
      </trkpt>
      <trkpt lat="47.74628" lon="6.8236">
        <ele>492.1</ele>
        <time>2021-08-09T17:15:07Z</time>
      </trkpt>
      <trkpt lat="47.74623" lon="6.82368">
        <ele>491.9</ele>
        <time>2021-08-09T17:15:09Z</time>
      </trkpt>
      <trkpt lat="47.74617" lon="6.82378">
        <ele>491.6</ele>
        <time>2021-08-09T17:15:11Z</time>
      </trkpt>
      <trkpt lat="47.74614" lon="6.82383">
        <ele>491.4</ele>
        <time>2021-08-09T17:15:12Z</time>
      </trkpt>
      <trkpt lat="47.74606" lon="6.82393">
        <ele>490</ele>
        <time>2021-08-09T17:15:14Z</time>
      </trkpt>
      <trkpt lat="47.74595" lon="6.82403">
        <ele>489.1</ele>
        <time>2021-08-09T17:15:16Z</time>
      </trkpt>
      <trkpt lat="47.74589" lon="6.82408">
        <ele>488.7</ele>
        <time>2021-08-09T17:15:17Z</time>
      </trkpt>
      <trkpt lat="47.74576" lon="6.82419">
        <ele>488</ele>
        <time>2021-08-09T17:15:19Z</time>
      </trkpt>
      <trkpt lat="47.74569" lon="6.82423">
        <ele>487.6</ele>
        <time>2021-08-09T17:15:20Z</time>
      </trkpt>
      <trkpt lat="47.74554" lon="6.82429">
        <ele>486.9</ele>
        <time>2021-08-09T17:15:22Z</time>
      </trkpt>
      <trkpt lat="47.74539" lon="6.82436">
        <ele>486.2</ele>
        <time>2021-08-09T17:15:24Z</time>
      </trkpt>
      <trkpt lat="47.74531" lon="6.82439">
        <ele>485.9</ele>
        <time>2021-08-09T17:15:25Z</time>
      </trkpt>
      <trkpt lat="47.74524" lon="6.82442">
        <ele>485.8</ele>
        <time>2021-08-09T17:15:26Z</time>
      </trkpt>
      <trkpt lat="47.74511" lon="6.82448">
        <ele>485.6</ele>
        <time>2021-08-09T17:15:28Z</time>
      </trkpt>
      <trkpt lat="47.74504" lon="6.82451">
        <ele>485.6</ele>
        <time>2021-08-09T17:15:29Z</time>
      </trkpt>
      <trkpt lat="47.74489" lon="6.82459">
        <ele>485.3</ele>
        <time>2021-08-09T17:15:31Z</time>
      </trkpt>
      <trkpt lat="47.74482" lon="6.82462">
        <ele>484.9</ele>
        <time>2021-08-09T17:15:32Z</time>
      </trkpt>
      <trkpt lat="47.74475" lon="6.82466">
        <ele>484.5</ele>
        <time>2021-08-09T17:15:33Z</time>
      </trkpt>
      <trkpt lat="47.74463" lon="6.8247">
        <ele>484.1</ele>
        <time>2021-08-09T17:15:35Z</time>
      </trkpt>
      <trkpt lat="47.74457" lon="6.82471">
        <ele>483.9</ele>
        <time>2021-08-09T17:15:36Z</time>
      </trkpt>
      <trkpt lat="47.74452" lon="6.82473">
        <ele>483.8</ele>
        <time>2021-08-09T17:15:37Z</time>
      </trkpt>
      <trkpt lat="47.74447" lon="6.82475">
        <ele>483.5</ele>
        <time>2021-08-09T17:15:38Z</time>
      </trkpt>
      <trkpt lat="47.74434" lon="6.82477">
        <ele>482.9</ele>
        <time>2021-08-09T17:15:40Z</time>
      </trkpt>
      <trkpt lat="47.74423" lon="6.8248">
        <ele>482.5</ele>
        <time>2021-08-09T17:15:42Z</time>
      </trkpt>
      <trkpt lat="47.74412" lon="6.82483">
        <ele>481.7</ele>
        <time>2021-08-09T17:15:44Z</time>
      </trkpt>
      <trkpt lat="47.74403" lon="6.82484">
        <ele>481.1</ele>
        <time>2021-08-09T17:15:46Z</time>
      </trkpt>
      <trkpt lat="47.74399" lon="6.82484">
        <ele>480.9</ele>
        <time>2021-08-09T17:15:47Z</time>
      </trkpt>
      <trkpt lat="47.74396" lon="6.82484">
        <ele>480.7</ele>
        <time>2021-08-09T17:15:48Z</time>
      </trkpt>
      <trkpt lat="47.74392" lon="6.82484">
        <ele>480.5</ele>
        <time>2021-08-09T17:15:49Z</time>
      </trkpt>
      <trkpt lat="47.74387" lon="6.82484">
        <ele>480.3</ele>
        <time>2021-08-09T17:15:50Z</time>
      </trkpt>
      <trkpt lat="47.74377" lon="6.82482">
        <ele>480.1</ele>
        <time>2021-08-09T17:15:52Z</time>
      </trkpt>
      <trkpt lat="47.74374" lon="6.82486">
        <ele>480</ele>
        <time>2021-08-09T17:15:53Z</time>
      </trkpt>
      <trkpt lat="47.7437" lon="6.82486">
        <ele>479.9</ele>
        <time>2021-08-09T17:15:54Z</time>
      </trkpt>
      <trkpt lat="47.74364" lon="6.82483">
        <ele>479.9</ele>
        <time>2021-08-09T17:15:56Z</time>
      </trkpt>
      <trkpt lat="47.74362" lon="6.82479">
        <ele>479.9</ele>
        <time>2021-08-09T17:15:57Z</time>
      </trkpt>
      <trkpt lat="47.74361" lon="6.82476">
        <ele>479.9</ele>
        <time>2021-08-09T17:15:58Z</time>
      </trkpt>
      <trkpt lat="47.7436" lon="6.82476">
        <ele>479.9</ele>
        <time>2021-08-09T17:16:00Z</time>
      </trkpt>
      <trkpt lat="47.74359" lon="6.82475">
        <ele>479.8</ele>
        <time>2021-08-09T17:16:01Z</time>
      </trkpt>
      <trkpt lat="47.74356" lon="6.82475">
        <ele>479.8</ele>
        <time>2021-08-09T17:16:02Z</time>
      </trkpt>
      <trkpt lat="47.74355" lon="6.82476">
        <ele>479.8</ele>
        <time>2021-08-09T17:16:03Z</time>
      </trkpt>
      <trkpt lat="47.74356" lon="6.82475">
        <ele>479.8</ele>
        <time>2021-08-09T17:16:05Z</time>
      </trkpt>
      <trkpt lat="47.74357" lon="6.82476">
        <ele>479.8</ele>
        <time>2021-08-09T17:16:07Z</time>
      </trkpt>
      <trkpt lat="47.74358" lon="6.82476">
        <ele>479.8</ele>
        <time>2021-08-09T17:16:09Z</time>
      </trkpt>
      <trkpt lat="47.74358" lon="6.82477">
        <ele>479.8</ele>
        <time>2021-08-09T17:16:10Z</time>
      </trkpt>
      <trkpt lat="47.74358" lon="6.82478">
        <ele>479.7</ele>
        <time>2021-08-09T17:16:11Z</time>
      </trkpt>
      <trkpt lat="47.74358" lon="6.82479">
        <ele>479.7</ele>
        <time>2021-08-09T17:16:13Z</time>
      </trkpt>
      <trkpt lat="47.74346" lon="6.82499">
        <ele>479.5</ele>
        <time>2021-08-09T17:17:06Z</time>
      </trkpt>
      <trkpt lat="47.74336" lon="6.82501">
        <ele>479.3</ele>
        <time>2021-08-09T17:17:08Z</time>
      </trkpt>
      <trkpt lat="47.74328" lon="6.82502">
        <ele>479.1</ele>
        <time>2021-08-09T17:17:09Z</time>
      </trkpt>
      <trkpt lat="47.74322" lon="6.82503">
        <ele>478.9</ele>
        <time>2021-08-09T17:17:10Z</time>
      </trkpt>
      <trkpt lat="47.74317" lon="6.82504">
        <ele>478.8</ele>
        <time>2021-08-09T17:17:11Z</time>
      </trkpt>
      <trkpt lat="47.74308" lon="6.82508">
        <ele>478.6</ele>
        <time>2021-08-09T17:17:12Z</time>
      </trkpt>
      <trkpt lat="47.74296" lon="6.82512">
        <ele>478.2</ele>
        <time>2021-08-09T17:17:14Z</time>
      </trkpt>
      <trkpt lat="47.74291" lon="6.82513">
        <ele>478.1</ele>
        <time>2021-08-09T17:17:15Z</time>
      </trkpt>
      <trkpt lat="47.74281" lon="6.82516">
        <ele>477.8</ele>
        <time>2021-08-09T17:17:17Z</time>
      </trkpt>
      <trkpt lat="47.74277" lon="6.82518">
        <ele>477.7</ele>
        <time>2021-08-09T17:17:18Z</time>
      </trkpt>
      <trkpt lat="47.74265" lon="6.8252">
        <ele>477.5</ele>
        <time>2021-08-09T17:17:20Z</time>
      </trkpt>
      <trkpt lat="47.74253" lon="6.8252">
        <ele>477.3</ele>
        <time>2021-08-09T17:17:22Z</time>
      </trkpt>
      <trkpt lat="47.74246" lon="6.8252">
        <ele>477.2</ele>
        <time>2021-08-09T17:17:24Z</time>
      </trkpt>
      <trkpt lat="47.74235" lon="6.8252">
        <ele>477.1</ele>
        <time>2021-08-09T17:17:26Z</time>
      </trkpt>
      <trkpt lat="47.74224" lon="6.82521">
        <ele>477.1</ele>
        <time>2021-08-09T17:17:28Z</time>
      </trkpt>
      <trkpt lat="47.74219" lon="6.82523">
        <ele>477.1</ele>
        <time>2021-08-09T17:17:29Z</time>
      </trkpt>
      <trkpt lat="47.74214" lon="6.82524">
        <ele>477</ele>
        <time>2021-08-09T17:17:30Z</time>
      </trkpt>
      <trkpt lat="47.74203" lon="6.82528">
        <ele>476.6</ele>
        <time>2021-08-09T17:17:32Z</time>
      </trkpt>
      <trkpt lat="47.74195" lon="6.82532">
        <ele>476.3</ele>
        <time>2021-08-09T17:17:34Z</time>
      </trkpt>
      <trkpt lat="47.74188" lon="6.82541">
        <ele>476.1</ele>
        <time>2021-08-09T17:17:36Z</time>
      </trkpt>
      <trkpt lat="47.74181" lon="6.82552">
        <ele>475.8</ele>
        <time>2021-08-09T17:17:38Z</time>
      </trkpt>
      <trkpt lat="47.74176" lon="6.82565">
        <ele>475.4</ele>
        <time>2021-08-09T17:17:40Z</time>
      </trkpt>
      <trkpt lat="47.74175" lon="6.82573">
        <ele>475.2</ele>
        <time>2021-08-09T17:17:41Z</time>
      </trkpt>
      <trkpt lat="47.74171" lon="6.8259">
        <ele>474.6</ele>
        <time>2021-08-09T17:17:43Z</time>
      </trkpt>
      <trkpt lat="47.74168" lon="6.82598">
        <ele>474.3</ele>
        <time>2021-08-09T17:17:44Z</time>
      </trkpt>
      <trkpt lat="47.74164" lon="6.82612">
        <ele>473.9</ele>
        <time>2021-08-09T17:17:46Z</time>
      </trkpt>
      <trkpt lat="47.74159" lon="6.82623">
        <ele>473.5</ele>
        <time>2021-08-09T17:17:48Z</time>
      </trkpt>
      <trkpt lat="47.74155" lon="6.82632">
        <ele>473.2</ele>
        <time>2021-08-09T17:17:50Z</time>
      </trkpt>
      <trkpt lat="47.74154" lon="6.82645">
        <ele>473</ele>
        <time>2021-08-09T17:17:52Z</time>
      </trkpt>
      <trkpt lat="47.74154" lon="6.82652">
        <ele>472.8</ele>
        <time>2021-08-09T17:17:54Z</time>
      </trkpt>
      <trkpt lat="47.74154" lon="6.82659">
        <ele>472.7</ele>
        <time>2021-08-09T17:17:55Z</time>
      </trkpt>
      <trkpt lat="47.74152" lon="6.82664">
        <ele>472.7</ele>
        <time>2021-08-09T17:17:56Z</time>
      </trkpt>
      <trkpt lat="47.74149" lon="6.82673">
        <ele>472.5</ele>
        <time>2021-08-09T17:17:58Z</time>
      </trkpt>
      <trkpt lat="47.74145" lon="6.82681">
        <ele>472.4</ele>
        <time>2021-08-09T17:18:00Z</time>
      </trkpt>
      <trkpt lat="47.74143" lon="6.82685">
        <ele>472.4</ele>
        <time>2021-08-09T17:18:01Z</time>
      </trkpt>
      <trkpt lat="47.74142" lon="6.82689">
        <ele>472.3</ele>
        <time>2021-08-09T17:18:02Z</time>
      </trkpt>
      <trkpt lat="47.74141" lon="6.82696">
        <ele>472.2</ele>
        <time>2021-08-09T17:18:04Z</time>
      </trkpt>
      <trkpt lat="47.74141" lon="6.82701">
        <ele>472.2</ele>
        <time>2021-08-09T17:18:06Z</time>
      </trkpt>
      <trkpt lat="47.74141" lon="6.82703">
        <ele>472.2</ele>
        <time>2021-08-09T17:18:07Z</time>
      </trkpt>
      <trkpt lat="47.74143" lon="6.82705">
        <ele>472.1</ele>
        <time>2021-08-09T17:18:08Z</time>
      </trkpt>
      <trkpt lat="47.74144" lon="6.82709">
        <ele>472.1</ele>
        <time>2021-08-09T17:18:10Z</time>
      </trkpt>
      <trkpt lat="47.74144" lon="6.82711">
        <ele>472.1</ele>
        <time>2021-08-09T17:18:11Z</time>
      </trkpt>
      <trkpt lat="47.74143" lon="6.82714">
        <ele>472</ele>
        <time>2021-08-09T17:18:13Z</time>
      </trkpt>
      <trkpt lat="47.74143" lon="6.82711">
        <ele>472</ele>
        <time>2021-08-09T17:18:14Z</time>
      </trkpt>
      <trkpt lat="47.74143" lon="6.82706">
        <ele>472</ele>
        <time>2021-08-09T17:18:16Z</time>
      </trkpt>
      <trkpt lat="47.74143" lon="6.82705">
        <ele>471.9</ele>
        <time>2021-08-09T17:18:17Z</time>
      </trkpt>
      <trkpt lat="47.74143" lon="6.82705">
        <ele>471.9</ele>
        <time>2021-08-09T17:18:18Z</time>
      </trkpt>
      <trkpt lat="47.74143" lon="6.82705">
        <ele>471.9</ele>
        <time>2021-08-09T17:18:20Z</time>
      </trkpt>
      <trkpt lat="47.74143" lon="6.82705">
        <ele>471.9</ele>
        <time>2021-08-09T17:18:21Z</time>
      </trkpt>
      <trkpt lat="47.74134" lon="6.82682">
        <ele>471.8</ele>
        <time>2021-08-09T17:19:31Z</time>
      </trkpt>
      <trkpt lat="47.7413" lon="6.82681">
        <ele>471.7</ele>
        <time>2021-08-09T17:19:32Z</time>
      </trkpt>
      <trkpt lat="47.74121" lon="6.82682">
        <ele>471.4</ele>
        <time>2021-08-09T17:19:34Z</time>
      </trkpt>
      <trkpt lat="47.74116" lon="6.82684">
        <ele>471.2</ele>
        <time>2021-08-09T17:19:35Z</time>
      </trkpt>
      <trkpt lat="47.74111" lon="6.82688">
        <ele>471.1</ele>
        <time>2021-08-09T17:19:36Z</time>
      </trkpt>
      <trkpt lat="47.74101" lon="6.82693">
        <ele>470.9</ele>
        <time>2021-08-09T17:19:38Z</time>
      </trkpt>
      <trkpt lat="47.74093" lon="6.82696">
        <ele>470.7</ele>
        <time>2021-08-09T17:19:40Z</time>
      </trkpt>
      <trkpt lat="47.7409" lon="6.82697">
        <ele>470.7</ele>
        <time>2021-08-09T17:19:41Z</time>
      </trkpt>
      <trkpt lat="47.74088" lon="6.82699">
        <ele>470.6</ele>
        <time>2021-08-09T17:19:42Z</time>
      </trkpt>
      <trkpt lat="47.74082" lon="6.82703">
        <ele>470.6</ele>
        <time>2021-08-09T17:19:44Z</time>
      </trkpt>
      <trkpt lat="47.74076" lon="6.82706">
        <ele>470.5</ele>
        <time>2021-08-09T17:19:46Z</time>
      </trkpt>
      <trkpt lat="47.74073" lon="6.82708">
        <ele>470.5</ele>
        <time>2021-08-09T17:19:47Z</time>
      </trkpt>
      <trkpt lat="47.7407" lon="6.8271">
        <ele>470.4</ele>
        <time>2021-08-09T17:19:48Z</time>
      </trkpt>
      <trkpt lat="47.74065" lon="6.82713">
        <ele>470.4</ele>
        <time>2021-08-09T17:19:50Z</time>
      </trkpt>
      <trkpt lat="47.74059" lon="6.82715">
        <ele>470.4</ele>
        <time>2021-08-09T17:19:52Z</time>
      </trkpt>
      <trkpt lat="47.74057" lon="6.82716">
        <ele>470.4</ele>
        <time>2021-08-09T17:19:53Z</time>
      </trkpt>
      <trkpt lat="47.74052" lon="6.82718">
        <ele>470.4</ele>
        <time>2021-08-09T17:19:55Z</time>
      </trkpt>
      <trkpt lat="47.74049" lon="6.82719">
        <ele>470.3</ele>
        <time>2021-08-09T17:19:56Z</time>
      </trkpt>
      <trkpt lat="47.74045" lon="6.82722">
        <ele>470.3</ele>
        <time>2021-08-09T17:19:58Z</time>
      </trkpt>
      <trkpt lat="47.74043" lon="6.82724">
        <ele>470.3</ele>
        <time>2021-08-09T17:19:59Z</time>
      </trkpt>
      <trkpt lat="47.74039" lon="6.82726">
        <ele>470.3</ele>
        <time>2021-08-09T17:20:01Z</time>
      </trkpt>
      <trkpt lat="47.74037" lon="6.82727">
        <ele>470.3</ele>
        <time>2021-08-09T17:20:02Z</time>
      </trkpt>
      <trkpt lat="47.74037" lon="6.82727">
        <ele>470.3</ele>
        <time>2021-08-09T17:20:04Z</time>
      </trkpt>
      <trkpt lat="47.74037" lon="6.82727">
        <ele>470.3</ele>
        <time>2021-08-09T17:20:06Z</time>
      </trkpt>
      <trkpt lat="47.74037" lon="6.82727">
        <ele>470.3</ele>
        <time>2021-08-09T17:20:07Z</time>
      </trkpt>
      <trkpt lat="47.74037" lon="6.82727">
        <ele>470.3</ele>
        <time>2021-08-09T17:20:08Z</time>
      </trkpt>
      <trkpt lat="47.74037" lon="6.82728">
        <ele>470.3</ele>
        <time>2021-08-09T17:20:09Z</time>
      </trkpt>
      <trkpt lat="47.74036" lon="6.82728">
        <ele>470.3</ele>
        <time>2021-08-09T17:20:11Z</time>
      </trkpt>
      <trkpt lat="47.74057" lon="6.82735">
        <ele>470.4</ele>
        <time>2021-08-09T17:21:14Z</time>
      </trkpt>
      <trkpt lat="47.74064" lon="6.82733">
        <ele>470.4</ele>
        <time>2021-08-09T17:21:16Z</time>
      </trkpt>
      <trkpt lat="47.7407" lon="6.82731">
        <ele>470.4</ele>
        <time>2021-08-09T17:21:17Z</time>
      </trkpt>
      <trkpt lat="47.74073" lon="6.8273">
        <ele>470.4</ele>
        <time>2021-08-09T17:21:18Z</time>
      </trkpt>
      <trkpt lat="47.74077" lon="6.8273">
        <ele>470.5</ele>
        <time>2021-08-09T17:21:19Z</time>
      </trkpt>
      <trkpt lat="47.74081" lon="6.82728">
        <ele>470.5</ele>
        <time>2021-08-09T17:21:20Z</time>
      </trkpt>
      <trkpt lat="47.74086" lon="6.82727">
        <ele>470.6</ele>
        <time>2021-08-09T17:21:22Z</time>
      </trkpt>
      <trkpt lat="47.74091" lon="6.82725">
        <ele>470.6</ele>
        <time>2021-08-09T17:21:23Z</time>
      </trkpt>
      <trkpt lat="47.74094" lon="6.82723">
        <ele>470.6</ele>
        <time>2021-08-09T17:21:24Z</time>
      </trkpt>
      <trkpt lat="47.74101" lon="6.82721">
        <ele>470.8</ele>
        <time>2021-08-09T17:21:26Z</time>
      </trkpt>
      <trkpt lat="47.74108" lon="6.82718">
        <ele>470.9</ele>
        <time>2021-08-09T17:21:28Z</time>
      </trkpt>
      <trkpt lat="47.74111" lon="6.82716">
        <ele>471</ele>
        <time>2021-08-09T17:21:29Z</time>
      </trkpt>
      <trkpt lat="47.74114" lon="6.82714">
        <ele>471.1</ele>
        <time>2021-08-09T17:21:30Z</time>
      </trkpt>
      <trkpt lat="47.74118" lon="6.8271">
        <ele>471.3</ele>
        <time>2021-08-09T17:21:32Z</time>
      </trkpt>
      <trkpt lat="47.74122" lon="6.82704">
        <ele>471.5</ele>
        <time>2021-08-09T17:21:34Z</time>
      </trkpt>
      <trkpt lat="47.74123" lon="6.82701">
        <ele>471.6</ele>
        <time>2021-08-09T17:21:35Z</time>
      </trkpt>
      <trkpt lat="47.74125" lon="6.82701">
        <ele>471.6</ele>
        <time>2021-08-09T17:21:36Z</time>
      </trkpt>
      <trkpt lat="47.74128" lon="6.82702">
        <ele>471.8</ele>
        <time>2021-08-09T17:21:38Z</time>
      </trkpt>
      <trkpt lat="47.7413" lon="6.82707">
        <ele>471.9</ele>
        <time>2021-08-09T17:21:40Z</time>
      </trkpt>
      <trkpt lat="47.74131" lon="6.82711">
        <ele>472</ele>
        <time>2021-08-09T17:21:41Z</time>
      </trkpt>
      <trkpt lat="47.74134" lon="6.82715">
        <ele>472.1</ele>
        <time>2021-08-09T17:21:43Z</time>
      </trkpt>
      <trkpt lat="47.74135" lon="6.82716">
        <ele>472.2</ele>
        <time>2021-08-09T17:21:44Z</time>
      </trkpt>
      <trkpt lat="47.74138" lon="6.82719">
        <ele>472.3</ele>
        <time>2021-08-09T17:21:46Z</time>
      </trkpt>
      <trkpt lat="47.74139" lon="6.8272">
        <ele>472.3</ele>
        <time>2021-08-09T17:21:47Z</time>
      </trkpt>
      <trkpt lat="47.7414" lon="6.82722">
        <ele>472.4</ele>
        <time>2021-08-09T17:21:48Z</time>
      </trkpt>
      <trkpt lat="47.74141" lon="6.82727">
        <ele>472.4</ele>
        <time>2021-08-09T17:21:50Z</time>
      </trkpt>
      <trkpt lat="47.74142" lon="6.82732">
        <ele>472.4</ele>
        <time>2021-08-09T17:21:52Z</time>
      </trkpt>
      <trkpt lat="47.74144" lon="6.82737">
        <ele>472.5</ele>
        <time>2021-08-09T17:21:53Z</time>
      </trkpt>
      <trkpt lat="47.74145" lon="6.82738">
        <ele>472.5</ele>
        <time>2021-08-09T17:21:54Z</time>
      </trkpt>
      <trkpt lat="47.74147" lon="6.82745">
        <ele>472.5</ele>
        <time>2021-08-09T17:21:56Z</time>
      </trkpt>
      <trkpt lat="47.7415" lon="6.82747">
        <ele>472.5</ele>
        <time>2021-08-09T17:21:57Z</time>
      </trkpt>
      <trkpt lat="47.74155" lon="6.82752">
        <ele>472.5</ele>
        <time>2021-08-09T17:21:59Z</time>
      </trkpt>
      <trkpt lat="47.74158" lon="6.82752">
        <ele>472.5</ele>
        <time>2021-08-09T17:22:00Z</time>
      </trkpt>
      <trkpt lat="47.74161" lon="6.8275">
        <ele>472.5</ele>
        <time>2021-08-09T17:22:02Z</time>
      </trkpt>
      <trkpt lat="47.74162" lon="6.82749">
        <ele>472.5</ele>
        <time>2021-08-09T17:22:03Z</time>
      </trkpt>
      <trkpt lat="47.74166" lon="6.82745">
        <ele>472.5</ele>
        <time>2021-08-09T17:22:05Z</time>
      </trkpt>
      <trkpt lat="47.74168" lon="6.82742">
        <ele>472.3</ele>
        <time>2021-08-09T17:22:06Z</time>
      </trkpt>
      <trkpt lat="47.74172" lon="6.82736">
        <ele>472.2</ele>
        <time>2021-08-09T17:22:08Z</time>
      </trkpt>
      <trkpt lat="47.74176" lon="6.82731">
        <ele>472.2</ele>
        <time>2021-08-09T17:22:09Z</time>
      </trkpt>
      <trkpt lat="47.74179" lon="6.82726">
        <ele>472.2</ele>
        <time>2021-08-09T17:22:10Z</time>
      </trkpt>
      <trkpt lat="47.74183" lon="6.82722">
        <ele>472.3</ele>
        <time>2021-08-09T17:22:11Z</time>
      </trkpt>
      <trkpt lat="47.74189" lon="6.82715">
        <ele>472.4</ele>
        <time>2021-08-09T17:22:13Z</time>
      </trkpt>
      <trkpt lat="47.74192" lon="6.8271">
        <ele>472.5</ele>
        <time>2021-08-09T17:22:14Z</time>
      </trkpt>
      <trkpt lat="47.74194" lon="6.82703">
        <ele>472.4</ele>
        <time>2021-08-09T17:22:16Z</time>
      </trkpt>
      <trkpt lat="47.74195" lon="6.82698">
        <ele>472.4</ele>
        <time>2021-08-09T17:22:17Z</time>
      </trkpt>
      <trkpt lat="47.74195" lon="6.82696">
        <ele>472.4</ele>
        <time>2021-08-09T17:22:18Z</time>
      </trkpt>
      <trkpt lat="47.74196" lon="6.82694">
        <ele>472.4</ele>
        <time>2021-08-09T17:22:19Z</time>
      </trkpt>
      <trkpt lat="47.74199" lon="6.82695">
        <ele>472.4</ele>
        <time>2021-08-09T17:22:21Z</time>
      </trkpt>
      <trkpt lat="47.74199" lon="6.82698">
        <ele>472.3</ele>
        <time>2021-08-09T17:22:23Z</time>
      </trkpt>
      <trkpt lat="47.74199" lon="6.82699">
        <ele>472.3</ele>
        <time>2021-08-09T17:22:24Z</time>
      </trkpt>
      <trkpt lat="47.74198" lon="6.827">
        <ele>472.3</ele>
        <time>2021-08-09T17:22:25Z</time>
      </trkpt>
      <trkpt lat="47.74195" lon="6.82707">
        <ele>472.3</ele>
        <time>2021-08-09T17:22:27Z</time>
      </trkpt>
      <trkpt lat="47.74192" lon="6.8271">
        <ele>472.3</ele>
        <time>2021-08-09T17:22:28Z</time>
      </trkpt>
      <trkpt lat="47.74186" lon="6.82714">
        <ele>472.3</ele>
        <time>2021-08-09T17:22:29Z</time>
      </trkpt>
      <trkpt lat="47.74181" lon="6.82719">
        <ele>472.2</ele>
        <time>2021-08-09T17:22:31Z</time>
      </trkpt>
      <trkpt lat="47.74178" lon="6.82724">
        <ele>472.2</ele>
        <time>2021-08-09T17:22:32Z</time>
      </trkpt>
      <trkpt lat="47.74175" lon="6.8273">
        <ele>472.2</ele>
        <time>2021-08-09T17:22:33Z</time>
      </trkpt>
      <trkpt lat="47.74172" lon="6.82735">
        <ele>472.2</ele>
        <time>2021-08-09T17:22:34Z</time>
      </trkpt>
      <trkpt lat="47.7417" lon="6.82741">
        <ele>472.2</ele>
        <time>2021-08-09T17:22:35Z</time>
      </trkpt>
      <trkpt lat="47.74168" lon="6.82745">
        <ele>472.4</ele>
        <time>2021-08-09T17:22:36Z</time>
      </trkpt>
      <trkpt lat="47.74163" lon="6.82753">
        <ele>472.5</ele>
        <time>2021-08-09T17:22:38Z</time>
      </trkpt>
      <trkpt lat="47.7416" lon="6.82756">
        <ele>472.5</ele>
        <time>2021-08-09T17:22:40Z</time>
      </trkpt>
      <trkpt lat="47.74158" lon="6.82752">
        <ele>472.5</ele>
        <time>2021-08-09T17:22:41Z</time>
      </trkpt>
      <trkpt lat="47.74158" lon="6.8275">
        <ele>472.5</ele>
        <time>2021-08-09T17:22:42Z</time>
      </trkpt>
      <trkpt lat="47.74155" lon="6.82746">
        <ele>472.5</ele>
        <time>2021-08-09T17:22:43Z</time>
      </trkpt>
      <trkpt lat="47.74154" lon="6.82744">
        <ele>472.5</ele>
        <time>2021-08-09T17:22:44Z</time>
      </trkpt>
      <trkpt lat="47.7415" lon="6.82731">
        <ele>472.5</ele>
        <time>2021-08-09T17:22:46Z</time>
      </trkpt>
      <trkpt lat="47.74149" lon="6.82728">
        <ele>472.5</ele>
        <time>2021-08-09T17:22:47Z</time>
      </trkpt>
      <trkpt lat="47.74149" lon="6.82723">
        <ele>472.4</ele>
        <time>2021-08-09T17:22:49Z</time>
      </trkpt>
      <trkpt lat="47.74144" lon="6.82711">
        <ele>472.3</ele>
        <time>2021-08-09T17:22:51Z</time>
      </trkpt>
      <trkpt lat="47.7414" lon="6.82704">
        <ele>472.1</ele>
        <time>2021-08-09T17:22:52Z</time>
      </trkpt>
      <trkpt lat="47.74136" lon="6.82696">
        <ele>472</ele>
        <time>2021-08-09T17:23:23Z</time>
      </trkpt>
      <trkpt lat="47.74132" lon="6.82689">
        <ele>471.8</ele>
        <time>2021-08-09T17:23:24Z</time>
      </trkpt>
      <trkpt lat="47.74129" lon="6.82687">
        <ele>471.7</ele>
        <time>2021-08-09T17:23:25Z</time>
      </trkpt>
      <trkpt lat="47.74126" lon="6.82686">
        <ele>471.7</ele>
        <time>2021-08-09T17:23:26Z</time>
      </trkpt>
      <trkpt lat="47.74116" lon="6.82683">
        <ele>471.4</ele>
        <time>2021-08-09T17:23:28Z</time>
      </trkpt>
      <trkpt lat="47.74112" lon="6.82681">
        <ele>471.3</ele>
        <time>2021-08-09T17:23:29Z</time>
      </trkpt>
      <trkpt lat="47.74111" lon="6.82681">
        <ele>471.3</ele>
        <time>2021-08-09T17:23:30Z</time>
      </trkpt>
      <trkpt lat="47.7411" lon="6.82681">
        <ele>471.3</ele>
        <time>2021-08-09T17:23:32Z</time>
      </trkpt>
      <trkpt lat="47.7411" lon="6.82681">
        <ele>471.3</ele>
        <time>2021-08-09T17:23:34Z</time>
      </trkpt>
      <trkpt lat="47.7411" lon="6.82681">
        <ele>471.3</ele>
        <time>2021-08-09T17:23:35Z</time>
      </trkpt>
      <trkpt lat="47.7411" lon="6.82681">
        <ele>471.2</ele>
        <time>2021-08-09T17:23:36Z</time>
      </trkpt>
      <trkpt lat="47.74102" lon="6.82696">
        <ele>471</ele>
        <time>2021-08-09T17:24:50Z</time>
      </trkpt>
      <trkpt lat="47.74103" lon="6.82702">
        <ele>471</ele>
        <time>2021-08-09T17:24:52Z</time>
      </trkpt>
      <trkpt lat="47.74104" lon="6.82705">
        <ele>471</ele>
        <time>2021-08-09T17:24:53Z</time>
      </trkpt>
      <trkpt lat="47.74104" lon="6.82706">
        <ele>471</ele>
        <time>2021-08-09T17:24:54Z</time>
      </trkpt>
      <trkpt lat="47.74105" lon="6.82708">
        <ele>471</ele>
        <time>2021-08-09T17:24:56Z</time>
      </trkpt>
      <trkpt lat="47.74105" lon="6.82708">
        <ele>471</ele>
        <time>2021-08-09T17:24:58Z</time>
      </trkpt>
      <trkpt lat="47.74101" lon="6.82708">
        <ele>471</ele>
        <time>2021-08-09T17:24:59Z</time>
      </trkpt>
      <trkpt lat="47.741" lon="6.82708">
        <ele>471</ele>
        <time>2021-08-09T17:25:01Z</time>
      </trkpt>
      <trkpt lat="47.741" lon="6.82709">
        <ele>471</ele>
        <time>2021-08-09T17:25:02Z</time>
      </trkpt>
      <trkpt lat="47.741" lon="6.8271">
        <ele>471</ele>
        <time>2021-08-09T17:25:04Z</time>
      </trkpt>
      <trkpt lat="47.74099" lon="6.82711">
        <ele>471</ele>
        <time>2021-08-09T17:26:03Z</time>
      </trkpt>
      <trkpt lat="47.74099" lon="6.82712">
        <ele>471</ele>
        <time>2021-08-09T17:26:10Z</time>
      </trkpt>
      <trkpt lat="47.74099" lon="6.82713">
        <ele>471</ele>
        <time>2021-08-09T17:26:16Z</time>
      </trkpt>
      <trkpt lat="47.74099" lon="6.82714">
        <ele>471</ele>
        <time>2021-08-09T17:26:23Z</time>
      </trkpt>
      <trkpt lat="47.74098" lon="6.82714">
        <ele>471</ele>
        <time>2021-08-09T17:28:41Z</time>
      </trkpt>
      <trkpt lat="47.74098" lon="6.82715">
        <ele>471</ele>
        <time>2021-08-09T17:28:42Z</time>
      </trkpt>
      <trkpt lat="47.74105" lon="6.82716">
        <ele>471.1</ele>
        <time>2021-08-09T17:28:43Z</time>
      </trkpt>
      <trkpt lat="47.7411" lon="6.82715">
        <ele>471.1</ele>
        <time>2021-08-09T17:28:44Z</time>
      </trkpt>
      <trkpt lat="47.74116" lon="6.82713">
        <ele>471.1</ele>
        <time>2021-08-09T17:28:45Z</time>
      </trkpt>
      <trkpt lat="47.74123" lon="6.82709">
        <ele>471.2</ele>
        <time>2021-08-09T17:28:46Z</time>
      </trkpt>
      <trkpt lat="47.74131" lon="6.82705">
        <ele>471.6</ele>
        <time>2021-08-09T17:28:48Z</time>
      </trkpt>
      <trkpt lat="47.74136" lon="6.82699">
        <ele>471.9</ele>
        <time>2021-08-09T17:28:49Z</time>
      </trkpt>
      <trkpt lat="47.7414" lon="6.82693">
        <ele>471.9</ele>
        <time>2021-08-09T17:28:51Z</time>
      </trkpt>
      <trkpt lat="47.74144" lon="6.82685">
        <ele>472.1</ele>
        <time>2021-08-09T17:28:52Z</time>
      </trkpt>
      <trkpt lat="47.74147" lon="6.82678">
        <ele>472.3</ele>
        <time>2021-08-09T17:28:53Z</time>
      </trkpt>
      <trkpt lat="47.74152" lon="6.82666">
        <ele>472.5</ele>
        <time>2021-08-09T17:28:55Z</time>
      </trkpt>
      <trkpt lat="47.74154" lon="6.82661">
        <ele>472.7</ele>
        <time>2021-08-09T17:28:56Z</time>
      </trkpt>
      <trkpt lat="47.7416" lon="6.82653">
        <ele>472.9</ele>
        <time>2021-08-09T17:28:58Z</time>
      </trkpt>
      <trkpt lat="47.74162" lon="6.8265">
        <ele>473</ele>
        <time>2021-08-09T17:28:59Z</time>
      </trkpt>
      <trkpt lat="47.74166" lon="6.82643">
        <ele>473.2</ele>
        <time>2021-08-09T17:29:01Z</time>
      </trkpt>
      <trkpt lat="47.74168" lon="6.8264">
        <ele>473.3</ele>
        <time>2021-08-09T17:29:02Z</time>
      </trkpt>
      <trkpt lat="47.74169" lon="6.82635">
        <ele>473.5</ele>
        <time>2021-08-09T17:29:03Z</time>
      </trkpt>
      <trkpt lat="47.74169" lon="6.82634">
        <ele>473.5</ele>
        <time>2021-08-09T17:29:05Z</time>
      </trkpt>
      <trkpt lat="47.74169" lon="6.82629">
        <ele>473.6</ele>
        <time>2021-08-09T17:29:07Z</time>
      </trkpt>
      <trkpt lat="47.7417" lon="6.82623">
        <ele>473.8</ele>
        <time>2021-08-09T17:29:08Z</time>
      </trkpt>
      <trkpt lat="47.74172" lon="6.82617">
        <ele>473.9</ele>
        <time>2021-08-09T17:29:09Z</time>
      </trkpt>
      <trkpt lat="47.74172" lon="6.82614">
        <ele>474</ele>
        <time>2021-08-09T17:29:10Z</time>
      </trkpt>
      <trkpt lat="47.74173" lon="6.82607">
        <ele>474.2</ele>
        <time>2021-08-09T17:29:12Z</time>
      </trkpt>
      <trkpt lat="47.74175" lon="6.82599">
        <ele>474.5</ele>
        <time>2021-08-09T17:29:14Z</time>
      </trkpt>
      <trkpt lat="47.74177" lon="6.82594">
        <ele>474.6</ele>
        <time>2021-08-09T17:29:15Z</time>
      </trkpt>
      <trkpt lat="47.74178" lon="6.82591">
        <ele>474.7</ele>
        <time>2021-08-09T17:29:16Z</time>
      </trkpt>
      <trkpt lat="47.74178" lon="6.82586">
        <ele>474.9</ele>
        <time>2021-08-09T17:29:17Z</time>
      </trkpt>
      <trkpt lat="47.74178" lon="6.82584">
        <ele>474.9</ele>
        <time>2021-08-09T17:29:18Z</time>
      </trkpt>
      <trkpt lat="47.74179" lon="6.82581">
        <ele>475</ele>
        <time>2021-08-09T17:29:19Z</time>
      </trkpt>
      <trkpt lat="47.7418" lon="6.82579">
        <ele>475.1</ele>
        <time>2021-08-09T17:29:21Z</time>
      </trkpt>
      <trkpt lat="47.74181" lon="6.82578">
        <ele>475.1</ele>
        <time>2021-08-09T17:29:22Z</time>
      </trkpt>
      <trkpt lat="47.74183" lon="6.82577">
        <ele>475.2</ele>
        <time>2021-08-09T17:29:23Z</time>
      </trkpt>
      <trkpt lat="47.74184" lon="6.82576">
        <ele>475.3</ele>
        <time>2021-08-09T17:29:24Z</time>
      </trkpt>
      <trkpt lat="47.74186" lon="6.82572">
        <ele>475.4</ele>
        <time>2021-08-09T17:29:26Z</time>
      </trkpt>
      <trkpt lat="47.74188" lon="6.82569">
        <ele>475.5</ele>
        <time>2021-08-09T17:29:27Z</time>
      </trkpt>
      <trkpt lat="47.74189" lon="6.82567">
        <ele>475.6</ele>
        <time>2021-08-09T17:29:29Z</time>
      </trkpt>
      <trkpt lat="47.74189" lon="6.82566">
        <ele>475.6</ele>
        <time>2021-08-09T17:29:30Z</time>
      </trkpt>
      <trkpt lat="47.7419" lon="6.82565">
        <ele>475.7</ele>
        <time>2021-08-09T17:29:31Z</time>
      </trkpt>
      <trkpt lat="47.74189" lon="6.82564">
        <ele>475.7</ele>
        <time>2021-08-09T17:29:32Z</time>
      </trkpt>
      <trkpt lat="47.74189" lon="6.82563">
        <ele>475.7</ele>
        <time>2021-08-09T17:29:34Z</time>
      </trkpt>
      <trkpt lat="47.74189" lon="6.82561">
        <ele>475.8</ele>
        <time>2021-08-09T17:29:35Z</time>
      </trkpt>
      <trkpt lat="47.7419" lon="6.82557">
        <ele>475.9</ele>
        <time>2021-08-09T17:29:36Z</time>
      </trkpt>
      <trkpt lat="47.7419" lon="6.82552">
        <ele>476.1</ele>
        <time>2021-08-09T17:29:38Z</time>
      </trkpt>
      <trkpt lat="47.74193" lon="6.82544">
        <ele>476.6</ele>
        <time>2021-08-09T17:29:40Z</time>
      </trkpt>
      <trkpt lat="47.74195" lon="6.82531">
        <ele>477.6</ele>
        <time>2021-08-09T17:29:42Z</time>
      </trkpt>
      <trkpt lat="47.74198" lon="6.82517">
        <ele>478.6</ele>
        <time>2021-08-09T17:29:43Z</time>
      </trkpt>
      <trkpt lat="47.74201" lon="6.82501">
        <ele>478.7</ele>
        <time>2021-08-09T17:29:45Z</time>
      </trkpt>
      <trkpt lat="47.74201" lon="6.82488">
        <ele>479</ele>
        <time>2021-08-09T17:29:47Z</time>
      </trkpt>
      <trkpt lat="47.74201" lon="6.82482">
        <ele>479.2</ele>
        <time>2021-08-09T17:29:48Z</time>
      </trkpt>
      <trkpt lat="47.742" lon="6.82476">
        <ele>479.4</ele>
        <time>2021-08-09T17:29:50Z</time>
      </trkpt>
      <trkpt lat="47.742" lon="6.82474">
        <ele>479.5</ele>
        <time>2021-08-09T17:29:51Z</time>
      </trkpt>
      <trkpt lat="47.742" lon="6.82473">
        <ele>479.5</ele>
        <time>2021-08-09T17:29:53Z</time>
      </trkpt>
      <trkpt lat="47.74199" lon="6.82472">
        <ele>479.6</ele>
        <time>2021-08-09T17:29:54Z</time>
      </trkpt>
      <trkpt lat="47.74199" lon="6.82469">
        <ele>479.8</ele>
        <time>2021-08-09T17:29:55Z</time>
      </trkpt>
      <trkpt lat="47.74199" lon="6.82468">
        <ele>479.8</ele>
        <time>2021-08-09T17:29:56Z</time>
      </trkpt>
      <trkpt lat="47.74197" lon="6.82464">
        <ele>479.8</ele>
        <time>2021-08-09T17:29:58Z</time>
      </trkpt>
      <trkpt lat="47.74195" lon="6.82459">
        <ele>479.8</ele>
        <time>2021-08-09T17:29:59Z</time>
      </trkpt>
      <trkpt lat="47.74195" lon="6.82458">
        <ele>479.8</ele>
        <time>2021-08-09T17:30:00Z</time>
      </trkpt>
      <trkpt lat="47.74193" lon="6.82453">
        <ele>479.7</ele>
        <time>2021-08-09T17:30:01Z</time>
      </trkpt>
      <trkpt lat="47.74192" lon="6.82451">
        <ele>479.7</ele>
        <time>2021-08-09T17:30:02Z</time>
      </trkpt>
      <trkpt lat="47.7419" lon="6.82444">
        <ele>479.7</ele>
        <time>2021-08-09T17:30:04Z</time>
      </trkpt>
      <trkpt lat="47.7419" lon="6.8244">
        <ele>479.6</ele>
        <time>2021-08-09T17:30:05Z</time>
      </trkpt>
      <trkpt lat="47.74189" lon="6.82435">
        <ele>479.6</ele>
        <time>2021-08-09T17:30:07Z</time>
      </trkpt>
      <trkpt lat="47.74186" lon="6.82431">
        <ele>479.8</ele>
        <time>2021-08-09T17:30:09Z</time>
      </trkpt>
      <trkpt lat="47.74185" lon="6.82427">
        <ele>479.8</ele>
        <time>2021-08-09T17:30:11Z</time>
      </trkpt>
      <trkpt lat="47.74184" lon="6.82422">
        <ele>479.8</ele>
        <time>2021-08-09T17:30:13Z</time>
      </trkpt>
      <trkpt lat="47.74181" lon="6.82419">
        <ele>479.8</ele>
        <time>2021-08-09T17:30:15Z</time>
      </trkpt>
      <trkpt lat="47.7418" lon="6.82417">
        <ele>479.8</ele>
        <time>2021-08-09T17:30:16Z</time>
      </trkpt>
      <trkpt lat="47.74178" lon="6.82413">
        <ele>479.8</ele>
        <time>2021-08-09T17:30:18Z</time>
      </trkpt>
      <trkpt lat="47.74176" lon="6.82408">
        <ele>479.8</ele>
        <time>2021-08-09T17:30:20Z</time>
      </trkpt>
      <trkpt lat="47.74172" lon="6.82404">
        <ele>479.9</ele>
        <time>2021-08-09T17:30:21Z</time>
      </trkpt>
      <trkpt lat="47.74169" lon="6.82399">
        <ele>479.9</ele>
        <time>2021-08-09T17:30:23Z</time>
      </trkpt>
      <trkpt lat="47.74167" lon="6.82394">
        <ele>479.9</ele>
        <time>2021-08-09T17:30:24Z</time>
      </trkpt>
      <trkpt lat="47.74167" lon="6.82392">
        <ele>479.9</ele>
        <time>2021-08-09T17:30:25Z</time>
      </trkpt>
      <trkpt lat="47.74165" lon="6.82389">
        <ele>479.9</ele>
        <time>2021-08-09T17:30:26Z</time>
      </trkpt>
      <trkpt lat="47.74164" lon="6.82383">
        <ele>479.9</ele>
        <time>2021-08-09T17:30:28Z</time>
      </trkpt>
      <trkpt lat="47.74162" lon="6.82378">
        <ele>479.9</ele>
        <time>2021-08-09T17:30:30Z</time>
      </trkpt>
      <trkpt lat="47.74159" lon="6.82372">
        <ele>479.9</ele>
        <time>2021-08-09T17:30:32Z</time>
      </trkpt>
      <trkpt lat="47.74158" lon="6.82368">
        <ele>479.9</ele>
        <time>2021-08-09T17:30:33Z</time>
      </trkpt>
      <trkpt lat="47.74156" lon="6.82361">
        <ele>479.9</ele>
        <time>2021-08-09T17:30:35Z</time>
      </trkpt>
      <trkpt lat="47.74155" lon="6.82357">
        <ele>479.9</ele>
        <time>2021-08-09T17:30:37Z</time>
      </trkpt>
      <trkpt lat="47.74154" lon="6.82355">
        <ele>479.9</ele>
        <time>2021-08-09T17:30:38Z</time>
      </trkpt>
      <trkpt lat="47.7415" lon="6.82349">
        <ele>479.9</ele>
        <time>2021-08-09T17:30:40Z</time>
      </trkpt>
      <trkpt lat="47.74148" lon="6.82346">
        <ele>479.9</ele>
        <time>2021-08-09T17:30:41Z</time>
      </trkpt>
      <trkpt lat="47.74144" lon="6.8234">
        <ele>479.8</ele>
        <time>2021-08-09T17:30:43Z</time>
      </trkpt>
      <trkpt lat="47.74141" lon="6.82336">
        <ele>479.8</ele>
        <time>2021-08-09T17:30:44Z</time>
      </trkpt>
      <trkpt lat="47.74139" lon="6.82332">
        <ele>479.8</ele>
        <time>2021-08-09T17:30:45Z</time>
      </trkpt>
      <trkpt lat="47.74134" lon="6.82324">
        <ele>479.7</ele>
        <time>2021-08-09T17:30:47Z</time>
      </trkpt>
      <trkpt lat="47.74132" lon="6.82319">
        <ele>479.7</ele>
        <time>2021-08-09T17:30:48Z</time>
      </trkpt>
      <trkpt lat="47.74129" lon="6.82308">
        <ele>479.6</ele>
        <time>2021-08-09T17:30:50Z</time>
      </trkpt>
      <trkpt lat="47.74128" lon="6.82303">
        <ele>479.6</ele>
        <time>2021-08-09T17:30:51Z</time>
      </trkpt>
      <trkpt lat="47.74127" lon="6.82294">
        <ele>479.5</ele>
        <time>2021-08-09T17:30:53Z</time>
      </trkpt>
      <trkpt lat="47.74126" lon="6.82286">
        <ele>479.5</ele>
        <time>2021-08-09T17:30:55Z</time>
      </trkpt>
      <trkpt lat="47.74126" lon="6.82283">
        <ele>479.5</ele>
        <time>2021-08-09T17:30:56Z</time>
      </trkpt>
      <trkpt lat="47.74125" lon="6.82276">
        <ele>479.5</ele>
        <time>2021-08-09T17:30:58Z</time>
      </trkpt>
      <trkpt lat="47.74126" lon="6.8227">
        <ele>479.5</ele>
        <time>2021-08-09T17:30:59Z</time>
      </trkpt>
      <trkpt lat="47.74126" lon="6.82268">
        <ele>479.5</ele>
        <time>2021-08-09T17:31:00Z</time>
      </trkpt>
      <trkpt lat="47.74127" lon="6.82263">
        <ele>479.5</ele>
        <time>2021-08-09T17:31:02Z</time>
      </trkpt>
      <trkpt lat="47.74132" lon="6.82261">
        <ele>479.5</ele>
        <time>2021-08-09T17:31:04Z</time>
      </trkpt>
      <trkpt lat="47.74136" lon="6.8226">
        <ele>479.5</ele>
        <time>2021-08-09T17:31:05Z</time>
      </trkpt>
      <trkpt lat="47.74139" lon="6.82258">
        <ele>479.6</ele>
        <time>2021-08-09T17:31:06Z</time>
      </trkpt>
      <trkpt lat="47.74144" lon="6.82255">
        <ele>479.7</ele>
        <time>2021-08-09T17:31:08Z</time>
      </trkpt>
      <trkpt lat="47.7415" lon="6.82254">
        <ele>479.9</ele>
        <time>2021-08-09T17:31:10Z</time>
      </trkpt>
      <trkpt lat="47.74153" lon="6.82257">
        <ele>480</ele>
        <time>2021-08-09T17:31:11Z</time>
      </trkpt>
      <trkpt lat="47.74154" lon="6.82257">
        <ele>480</ele>
        <time>2021-08-09T17:31:12Z</time>
      </trkpt>
      <trkpt lat="47.74158" lon="6.82259">
        <ele>480.1</ele>
        <time>2021-08-09T17:31:14Z</time>
      </trkpt>
      <trkpt lat="47.74161" lon="6.82261">
        <ele>480.2</ele>
        <time>2021-08-09T17:31:16Z</time>
      </trkpt>
      <trkpt lat="47.74162" lon="6.82263">
        <ele>480.2</ele>
        <time>2021-08-09T17:31:18Z</time>
      </trkpt>
      <trkpt lat="47.74167" lon="6.82265">
        <ele>480.4</ele>
        <time>2021-08-09T17:31:20Z</time>
      </trkpt>
      <trkpt lat="47.7417" lon="6.82265">
        <ele>480.5</ele>
        <time>2021-08-09T17:31:22Z</time>
      </trkpt>
      <trkpt lat="47.74171" lon="6.82265">
        <ele>480.5</ele>
        <time>2021-08-09T17:31:23Z</time>
      </trkpt>
      <trkpt lat="47.74177" lon="6.82263">
        <ele>480.6</ele>
        <time>2021-08-09T17:31:25Z</time>
      </trkpt>
      <trkpt lat="47.74178" lon="6.82263">
        <ele>480.7</ele>
        <time>2021-08-09T17:31:26Z</time>
      </trkpt>
      <trkpt lat="47.74178" lon="6.82262">
        <ele>480.7</ele>
        <time>2021-08-09T17:31:28Z</time>
      </trkpt>
      <trkpt lat="47.74178" lon="6.82262">
        <ele>480.7</ele>
        <time>2021-08-09T17:31:29Z</time>
      </trkpt>
      <trkpt lat="47.74178" lon="6.82262">
        <ele>480.7</ele>
        <time>2021-08-09T17:31:31Z</time>
      </trkpt>
      <trkpt lat="47.74179" lon="6.82261">
        <ele>480.7</ele>
        <time>2021-08-09T17:31:32Z</time>
      </trkpt>
      <trkpt lat="47.74181" lon="6.82257">
        <ele>480.8</ele>
        <time>2021-08-09T17:31:34Z</time>
      </trkpt>
      <trkpt lat="47.74188" lon="6.82253">
        <ele>481</ele>
        <time>2021-08-09T17:31:36Z</time>
      </trkpt>
      <trkpt lat="47.74194" lon="6.82249">
        <ele>481.1</ele>
        <time>2021-08-09T17:31:38Z</time>
      </trkpt>
      <trkpt lat="47.74199" lon="6.82246">
        <ele>481.1</ele>
        <time>2021-08-09T17:31:40Z</time>
      </trkpt>
      <trkpt lat="47.74201" lon="6.82244">
        <ele>481.3</ele>
        <time>2021-08-09T17:31:41Z</time>
      </trkpt>
      <trkpt lat="47.74205" lon="6.82241">
        <ele>481.5</ele>
        <time>2021-08-09T17:31:42Z</time>
      </trkpt>
      <trkpt lat="47.74215" lon="6.82238">
        <ele>482</ele>
        <time>2021-08-09T17:31:44Z</time>
      </trkpt>
      <trkpt lat="47.74222" lon="6.82236">
        <ele>482.4</ele>
        <time>2021-08-09T17:31:46Z</time>
      </trkpt>
      <trkpt lat="47.74225" lon="6.82235">
        <ele>482.5</ele>
        <time>2021-08-09T17:31:47Z</time>
      </trkpt>
      <trkpt lat="47.74228" lon="6.82233">
        <ele>482.7</ele>
        <time>2021-08-09T17:31:48Z</time>
      </trkpt>
      <trkpt lat="47.74236" lon="6.82221">
        <ele>483.3</ele>
        <time>2021-08-09T17:31:50Z</time>
      </trkpt>
      <trkpt lat="47.74241" lon="6.82216">
        <ele>483.3</ele>
        <time>2021-08-09T17:31:52Z</time>
      </trkpt>
      <trkpt lat="47.74247" lon="6.82209">
        <ele>483.3</ele>
        <time>2021-08-09T17:31:54Z</time>
      </trkpt>
      <trkpt lat="47.7425" lon="6.82204">
        <ele>483.4</ele>
        <time>2021-08-09T17:31:55Z</time>
      </trkpt>
      <trkpt lat="47.74253" lon="6.822">
        <ele>483.4</ele>
        <time>2021-08-09T17:31:56Z</time>
      </trkpt>
      <trkpt lat="47.74259" lon="6.82192">
        <ele>483.6</ele>
        <time>2021-08-09T17:31:58Z</time>
      </trkpt>
      <trkpt lat="47.74265" lon="6.82183">
        <ele>483.9</ele>
        <time>2021-08-09T17:32:00Z</time>
      </trkpt>
      <trkpt lat="47.74269" lon="6.82176">
        <ele>484</ele>
        <time>2021-08-09T17:32:01Z</time>
      </trkpt>
      <trkpt lat="47.74271" lon="6.82172">
        <ele>484.1</ele>
        <time>2021-08-09T17:32:02Z</time>
      </trkpt>
      <trkpt lat="47.74274" lon="6.82166">
        <ele>484.6</ele>
        <time>2021-08-09T17:32:03Z</time>
      </trkpt>
      <trkpt lat="47.74276" lon="6.8216">
        <ele>485</ele>
        <time>2021-08-09T17:32:04Z</time>
      </trkpt>
      <trkpt lat="47.74279" lon="6.82154">
        <ele>485.4</ele>
        <time>2021-08-09T17:32:05Z</time>
      </trkpt>
      <trkpt lat="47.74282" lon="6.82149">
        <ele>485.9</ele>
        <time>2021-08-09T17:32:07Z</time>
      </trkpt>
      <trkpt lat="47.74286" lon="6.82146">
        <ele>486.2</ele>
        <time>2021-08-09T17:32:08Z</time>
      </trkpt>
      <trkpt lat="47.7429" lon="6.82143">
        <ele>486.6</ele>
        <time>2021-08-09T17:32:10Z</time>
      </trkpt>
      <trkpt lat="47.74291" lon="6.82143">
        <ele>486.7</ele>
        <time>2021-08-09T17:32:11Z</time>
      </trkpt>
      <trkpt lat="47.74293" lon="6.82143">
        <ele>486.8</ele>
        <time>2021-08-09T17:32:12Z</time>
      </trkpt>
      <trkpt lat="47.74294" lon="6.82143">
        <ele>486.9</ele>
        <time>2021-08-09T17:32:13Z</time>
      </trkpt>
      <trkpt lat="47.74295" lon="6.82141">
        <ele>487</ele>
        <time>2021-08-09T17:32:14Z</time>
      </trkpt>
      <trkpt lat="47.74304" lon="6.82131">
        <ele>487.2</ele>
        <time>2021-08-09T17:32:16Z</time>
      </trkpt>
      <trkpt lat="47.74308" lon="6.82127">
        <ele>487.4</ele>
        <time>2021-08-09T17:32:17Z</time>
      </trkpt>
      <trkpt lat="47.74311" lon="6.82124">
        <ele>487.6</ele>
        <time>2021-08-09T17:32:18Z</time>
      </trkpt>
      <trkpt lat="47.74315" lon="6.82119">
        <ele>487.9</ele>
        <time>2021-08-09T17:32:19Z</time>
      </trkpt>
      <trkpt lat="47.74317" lon="6.82115">
        <ele>488.1</ele>
        <time>2021-08-09T17:32:20Z</time>
      </trkpt>
      <trkpt lat="47.74319" lon="6.8211">
        <ele>488.4</ele>
        <time>2021-08-09T17:32:21Z</time>
      </trkpt>
      <trkpt lat="47.7432" lon="6.82106">
        <ele>488.8</ele>
        <time>2021-08-09T17:32:23Z</time>
      </trkpt>
      <trkpt lat="47.7432" lon="6.82105">
        <ele>488.9</ele>
        <time>2021-08-09T17:32:24Z</time>
      </trkpt>
      <trkpt lat="47.7432" lon="6.82104">
        <ele>488.9</ele>
        <time>2021-08-09T17:32:25Z</time>
      </trkpt>
      <trkpt lat="47.7432" lon="6.82101">
        <ele>489</ele>
        <time>2021-08-09T17:32:26Z</time>
      </trkpt>
      <trkpt lat="47.74321" lon="6.82099">
        <ele>489.1</ele>
        <time>2021-08-09T17:32:28Z</time>
      </trkpt>
      <trkpt lat="47.74321" lon="6.82097">
        <ele>489.1</ele>
        <time>2021-08-09T17:32:29Z</time>
      </trkpt>
      <trkpt lat="47.74321" lon="6.82095">
        <ele>489.2</ele>
        <time>2021-08-09T17:32:30Z</time>
      </trkpt>
      <trkpt lat="47.7432" lon="6.82088">
        <ele>489.4</ele>
        <time>2021-08-09T17:32:32Z</time>
      </trkpt>
      <trkpt lat="47.7432" lon="6.82081">
        <ele>489.7</ele>
        <time>2021-08-09T17:32:33Z</time>
      </trkpt>
      <trkpt lat="47.7432" lon="6.82075">
        <ele>489.8</ele>
        <time>2021-08-09T17:32:35Z</time>
      </trkpt>
      <trkpt lat="47.7432" lon="6.8207">
        <ele>489.9</ele>
        <time>2021-08-09T17:32:36Z</time>
      </trkpt>
      <trkpt lat="47.74319" lon="6.82068">
        <ele>489.9</ele>
        <time>2021-08-09T17:32:37Z</time>
      </trkpt>
      <trkpt lat="47.74317" lon="6.82063">
        <ele>490</ele>
        <time>2021-08-09T17:32:38Z</time>
      </trkpt>
      <trkpt lat="47.74316" lon="6.82061">
        <ele>490</ele>
        <time>2021-08-09T17:32:39Z</time>
      </trkpt>
      <trkpt lat="47.74315" lon="6.82056">
        <ele>490.2</ele>
        <time>2021-08-09T17:32:41Z</time>
      </trkpt>
      <trkpt lat="47.74313" lon="6.82051">
        <ele>490.4</ele>
        <time>2021-08-09T17:32:42Z</time>
      </trkpt>
      <trkpt lat="47.74312" lon="6.82049">
        <ele>490.5</ele>
        <time>2021-08-09T17:32:43Z</time>
      </trkpt>
      <trkpt lat="47.7431" lon="6.82045">
        <ele>490.7</ele>
        <time>2021-08-09T17:32:44Z</time>
      </trkpt>
      <trkpt lat="47.74309" lon="6.8204">
        <ele>490.9</ele>
        <time>2021-08-09T17:32:46Z</time>
      </trkpt>
      <trkpt lat="47.74308" lon="6.82036">
        <ele>491</ele>
        <time>2021-08-09T17:32:47Z</time>
      </trkpt>
      <trkpt lat="47.74309" lon="6.8203">
        <ele>491.2</ele>
        <time>2021-08-09T17:32:48Z</time>
      </trkpt>
      <trkpt lat="47.74309" lon="6.82028">
        <ele>491.3</ele>
        <time>2021-08-09T17:32:49Z</time>
      </trkpt>
      <trkpt lat="47.7431" lon="6.82022">
        <ele>491.6</ele>
        <time>2021-08-09T17:32:50Z</time>
      </trkpt>
      <trkpt lat="47.7431" lon="6.82017">
        <ele>491.2</ele>
        <time>2021-08-09T17:32:51Z</time>
      </trkpt>
      <trkpt lat="47.74311" lon="6.82013">
        <ele>491.2</ele>
        <time>2021-08-09T17:32:53Z</time>
      </trkpt>
      <trkpt lat="47.74311" lon="6.82008">
        <ele>491.2</ele>
        <time>2021-08-09T17:32:54Z</time>
      </trkpt>
      <trkpt lat="47.74311" lon="6.82002">
        <ele>491.3</ele>
        <time>2021-08-09T17:32:55Z</time>
      </trkpt>
      <trkpt lat="47.74311" lon="6.82">
        <ele>491.3</ele>
        <time>2021-08-09T17:32:56Z</time>
      </trkpt>
      <trkpt lat="47.7431" lon="6.81994">
        <ele>491.3</ele>
        <time>2021-08-09T17:32:57Z</time>
      </trkpt>
      <trkpt lat="47.7431" lon="6.81993">
        <ele>491.4</ele>
        <time>2021-08-09T17:32:58Z</time>
      </trkpt>
      <trkpt lat="47.74309" lon="6.81988">
        <ele>491.4</ele>
        <time>2021-08-09T17:32:59Z</time>
      </trkpt>
      <trkpt lat="47.74308" lon="6.81984">
        <ele>491.4</ele>
        <time>2021-08-09T17:33:00Z</time>
      </trkpt>
      <trkpt lat="47.74307" lon="6.8198">
        <ele>491.5</ele>
        <time>2021-08-09T17:33:01Z</time>
      </trkpt>
      <trkpt lat="47.74306" lon="6.81976">
        <ele>491.6</ele>
        <time>2021-08-09T17:33:02Z</time>
      </trkpt>
      <trkpt lat="47.74305" lon="6.81972">
        <ele>491.6</ele>
        <time>2021-08-09T17:33:03Z</time>
      </trkpt>
      <trkpt lat="47.74303" lon="6.81968">
        <ele>491.8</ele>
        <time>2021-08-09T17:33:04Z</time>
      </trkpt>
      <trkpt lat="47.74301" lon="6.81964">
        <ele>491.9</ele>
        <time>2021-08-09T17:33:05Z</time>
      </trkpt>
      <trkpt lat="47.74299" lon="6.8196">
        <ele>492</ele>
        <time>2021-08-09T17:33:06Z</time>
      </trkpt>
      <trkpt lat="47.74298" lon="6.81955">
        <ele>492.1</ele>
        <time>2021-08-09T17:33:08Z</time>
      </trkpt>
      <trkpt lat="47.74296" lon="6.81949">
        <ele>492.3</ele>
        <time>2021-08-09T17:33:10Z</time>
      </trkpt>
      <trkpt lat="47.74295" lon="6.81943">
        <ele>492.4</ele>
        <time>2021-08-09T17:33:11Z</time>
      </trkpt>
      <trkpt lat="47.74295" lon="6.81942">
        <ele>492.5</ele>
        <time>2021-08-09T17:33:12Z</time>
      </trkpt>
      <trkpt lat="47.74293" lon="6.81939">
        <ele>492.6</ele>
        <time>2021-08-09T17:33:13Z</time>
      </trkpt>
      <trkpt lat="47.74291" lon="6.81933">
        <ele>492.7</ele>
        <time>2021-08-09T17:33:15Z</time>
      </trkpt>
      <trkpt lat="47.74291" lon="6.81929">
        <ele>492.9</ele>
        <time>2021-08-09T17:33:17Z</time>
      </trkpt>
      <trkpt lat="47.74291" lon="6.81926">
        <ele>492.9</ele>
        <time>2021-08-09T17:33:18Z</time>
      </trkpt>
      <trkpt lat="47.74292" lon="6.81925">
        <ele>493</ele>
        <time>2021-08-09T17:33:19Z</time>
      </trkpt>
      <trkpt lat="47.74292" lon="6.81924">
        <ele>493</ele>
        <time>2021-08-09T17:33:20Z</time>
      </trkpt>
      <trkpt lat="47.74292" lon="6.8192">
        <ele>493.1</ele>
        <time>2021-08-09T17:33:22Z</time>
      </trkpt>
      <trkpt lat="47.74292" lon="6.8192">
        <ele>493.2</ele>
        <time>2021-08-09T17:33:23Z</time>
      </trkpt>
      <trkpt lat="47.74292" lon="6.81918">
        <ele>493.2</ele>
        <time>2021-08-09T17:33:24Z</time>
      </trkpt>
      <trkpt lat="47.74293" lon="6.81914">
        <ele>493.3</ele>
        <time>2021-08-09T17:33:26Z</time>
      </trkpt>
      <trkpt lat="47.74293" lon="6.81912">
        <ele>493.4</ele>
        <time>2021-08-09T17:33:27Z</time>
      </trkpt>
      <trkpt lat="47.74292" lon="6.81907">
        <ele>493.5</ele>
        <time>2021-08-09T17:33:29Z</time>
      </trkpt>
      <trkpt lat="47.74291" lon="6.81906">
        <ele>493.5</ele>
        <time>2021-08-09T17:33:30Z</time>
      </trkpt>
      <trkpt lat="47.74289" lon="6.81904">
        <ele>493.6</ele>
        <time>2021-08-09T17:33:31Z</time>
      </trkpt>
      <trkpt lat="47.74288" lon="6.81903">
        <ele>493.7</ele>
        <time>2021-08-09T17:33:33Z</time>
      </trkpt>
      <trkpt lat="47.74288" lon="6.81903">
        <ele>493.7</ele>
        <time>2021-08-09T17:33:34Z</time>
      </trkpt>
      <trkpt lat="47.74288" lon="6.81902">
        <ele>493.7</ele>
        <time>2021-08-09T17:33:35Z</time>
      </trkpt>
      <trkpt lat="47.74287" lon="6.81901">
        <ele>493.7</ele>
        <time>2021-08-09T17:33:37Z</time>
      </trkpt>
      <trkpt lat="47.74287" lon="6.819">
        <ele>493.8</ele>
        <time>2021-08-09T17:33:38Z</time>
      </trkpt>
      <trkpt lat="47.74287" lon="6.81899">
        <ele>493.8</ele>
        <time>2021-08-09T17:33:39Z</time>
      </trkpt>
      <trkpt lat="47.74277" lon="6.81881">
        <ele>494.3</ele>
        <time>2021-08-09T17:33:57Z</time>
      </trkpt>
      <trkpt lat="47.74268" lon="6.81874">
        <ele>494.7</ele>
        <time>2021-08-09T17:33:59Z</time>
      </trkpt>
      <trkpt lat="47.74257" lon="6.81866">
        <ele>495.2</ele>
        <time>2021-08-09T17:34:01Z</time>
      </trkpt>
      <trkpt lat="47.74249" lon="6.81863">
        <ele>495.7</ele>
        <time>2021-08-09T17:34:02Z</time>
      </trkpt>
      <trkpt lat="47.74241" lon="6.81857">
        <ele>496.3</ele>
        <time>2021-08-09T17:34:04Z</time>
      </trkpt>
      <trkpt lat="47.74238" lon="6.81853">
        <ele>496.6</ele>
        <time>2021-08-09T17:34:05Z</time>
      </trkpt>
      <trkpt lat="47.74235" lon="6.81848">
        <ele>496.8</ele>
        <time>2021-08-09T17:34:06Z</time>
      </trkpt>
      <trkpt lat="47.74232" lon="6.81842">
        <ele>497.2</ele>
        <time>2021-08-09T17:34:08Z</time>
      </trkpt>
      <trkpt lat="47.7423" lon="6.81837">
        <ele>497.4</ele>
        <time>2021-08-09T17:34:10Z</time>
      </trkpt>
      <trkpt lat="47.7423" lon="6.81832">
        <ele>497.6</ele>
        <time>2021-08-09T17:34:11Z</time>
      </trkpt>
      <trkpt lat="47.7423" lon="6.81831">
        <ele>497.7</ele>
        <time>2021-08-09T17:34:12Z</time>
      </trkpt>
      <trkpt lat="47.7423" lon="6.81828">
        <ele>497.8</ele>
        <time>2021-08-09T17:34:14Z</time>
      </trkpt>
      <trkpt lat="47.74229" lon="6.81826">
        <ele>497.9</ele>
        <time>2021-08-09T17:34:15Z</time>
      </trkpt>
      <trkpt lat="47.74228" lon="6.81823">
        <ele>498</ele>
        <time>2021-08-09T17:34:17Z</time>
      </trkpt>
      <trkpt lat="47.74228" lon="6.81823">
        <ele>498</ele>
        <time>2021-08-09T17:34:18Z</time>
      </trkpt>
      <trkpt lat="47.74227" lon="6.81823">
        <ele>498</ele>
        <time>2021-08-09T17:34:20Z</time>
      </trkpt>
      <trkpt lat="47.74227" lon="6.81823">
        <ele>498</ele>
        <time>2021-08-09T17:34:21Z</time>
      </trkpt>
      <trkpt lat="47.74225" lon="6.8182">
        <ele>498.1</ele>
        <time>2021-08-09T17:34:23Z</time>
      </trkpt>
      <trkpt lat="47.74222" lon="6.81818">
        <ele>498.2</ele>
        <time>2021-08-09T17:34:24Z</time>
      </trkpt>
      <trkpt lat="47.74219" lon="6.81814">
        <ele>498.4</ele>
        <time>2021-08-09T17:34:26Z</time>
      </trkpt>
      <trkpt lat="47.74217" lon="6.81812">
        <ele>498.5</ele>
        <time>2021-08-09T17:34:27Z</time>
      </trkpt>
      <trkpt lat="47.74216" lon="6.81811">
        <ele>498.6</ele>
        <time>2021-08-09T17:34:28Z</time>
      </trkpt>
      <trkpt lat="47.74215" lon="6.81809">
        <ele>498.8</ele>
        <time>2021-08-09T17:34:30Z</time>
      </trkpt>
      <trkpt lat="47.74212" lon="6.81806">
        <ele>499</ele>
        <time>2021-08-09T17:34:32Z</time>
      </trkpt>
      <trkpt lat="47.74211" lon="6.81806">
        <ele>499.1</ele>
        <time>2021-08-09T17:34:34Z</time>
      </trkpt>
      <trkpt lat="47.7421" lon="6.81805">
        <ele>499.2</ele>
        <time>2021-08-09T17:34:35Z</time>
      </trkpt>
      <trkpt lat="47.74209" lon="6.81804">
        <ele>499.2</ele>
        <time>2021-08-09T17:34:36Z</time>
      </trkpt>
      <trkpt lat="47.74208" lon="6.81803">
        <ele>499.3</ele>
        <time>2021-08-09T17:34:37Z</time>
      </trkpt>
      <trkpt lat="47.74204" lon="6.818">
        <ele>499.7</ele>
        <time>2021-08-09T17:34:39Z</time>
      </trkpt>
      <trkpt lat="47.74202" lon="6.81798">
        <ele>499.9</ele>
        <time>2021-08-09T17:34:40Z</time>
      </trkpt>
      <trkpt lat="47.742" lon="6.81796">
        <ele>500</ele>
        <time>2021-08-09T17:34:41Z</time>
      </trkpt>
      <trkpt lat="47.74196" lon="6.81791">
        <ele>500.4</ele>
        <time>2021-08-09T17:34:43Z</time>
      </trkpt>
      <trkpt lat="47.74195" lon="6.81787">
        <ele>500.6</ele>
        <time>2021-08-09T17:34:44Z</time>
      </trkpt>
      <trkpt lat="47.74193" lon="6.81781">
        <ele>500.9</ele>
        <time>2021-08-09T17:34:46Z</time>
      </trkpt>
      <trkpt lat="47.74192" lon="6.81778">
        <ele>501.1</ele>
        <time>2021-08-09T17:34:47Z</time>
      </trkpt>
      <trkpt lat="47.74191" lon="6.81777">
        <ele>501.2</ele>
        <time>2021-08-09T17:34:48Z</time>
      </trkpt>
      <trkpt lat="47.74188" lon="6.81774">
        <ele>501.4</ele>
        <time>2021-08-09T17:34:50Z</time>
      </trkpt>
      <trkpt lat="47.74187" lon="6.81773">
        <ele>501.5</ele>
        <time>2021-08-09T17:34:51Z</time>
      </trkpt>
      <trkpt lat="47.74184" lon="6.8177">
        <ele>501.8</ele>
        <time>2021-08-09T17:34:53Z</time>
      </trkpt>
      <trkpt lat="47.74183" lon="6.81766">
        <ele>502.1</ele>
        <time>2021-08-09T17:34:54Z</time>
      </trkpt>
      <trkpt lat="47.74181" lon="6.81762">
        <ele>502.2</ele>
        <time>2021-08-09T17:34:55Z</time>
      </trkpt>
      <trkpt lat="47.74178" lon="6.81758">
        <ele>502.3</ele>
        <time>2021-08-09T17:34:57Z</time>
      </trkpt>
      <trkpt lat="47.74173" lon="6.81754">
        <ele>502.7</ele>
        <time>2021-08-09T17:34:58Z</time>
      </trkpt>
      <trkpt lat="47.74171" lon="6.81751">
        <ele>502.9</ele>
        <time>2021-08-09T17:34:59Z</time>
      </trkpt>
      <trkpt lat="47.7417" lon="6.81749">
        <ele>503</ele>
        <time>2021-08-09T17:35:00Z</time>
      </trkpt>
      <trkpt lat="47.74167" lon="6.81745">
        <ele>503.2</ele>
        <time>2021-08-09T17:35:02Z</time>
      </trkpt>
      <trkpt lat="47.74164" lon="6.81742">
        <ele>503.5</ele>
        <time>2021-08-09T17:35:03Z</time>
      </trkpt>
      <trkpt lat="47.74161" lon="6.81738">
        <ele>503.8</ele>
        <time>2021-08-09T17:35:05Z</time>
      </trkpt>
      <trkpt lat="47.7416" lon="6.81737">
        <ele>503.9</ele>
        <time>2021-08-09T17:35:06Z</time>
      </trkpt>
      <trkpt lat="47.74158" lon="6.81736">
        <ele>504</ele>
        <time>2021-08-09T17:35:07Z</time>
      </trkpt>
      <trkpt lat="47.74154" lon="6.81734">
        <ele>504.2</ele>
        <time>2021-08-09T17:35:08Z</time>
      </trkpt>
      <trkpt lat="47.74153" lon="6.81733">
        <ele>504.4</ele>
        <time>2021-08-09T17:35:09Z</time>
      </trkpt>
      <trkpt lat="47.74149" lon="6.81732">
        <ele>504.6</ele>
        <time>2021-08-09T17:35:10Z</time>
      </trkpt>
      <trkpt lat="47.74144" lon="6.81729">
        <ele>505</ele>
        <time>2021-08-09T17:35:12Z</time>
      </trkpt>
      <trkpt lat="47.74139" lon="6.81724">
        <ele>505.3</ele>
        <time>2021-08-09T17:35:14Z</time>
      </trkpt>
      <trkpt lat="47.74135" lon="6.81719">
        <ele>505.7</ele>
        <time>2021-08-09T17:35:16Z</time>
      </trkpt>
      <trkpt lat="47.74133" lon="6.81716">
        <ele>505.8</ele>
        <time>2021-08-09T17:35:17Z</time>
      </trkpt>
      <trkpt lat="47.74133" lon="6.81715">
        <ele>505.9</ele>
        <time>2021-08-09T17:35:18Z</time>
      </trkpt>
      <trkpt lat="47.7413" lon="6.81711">
        <ele>506.1</ele>
        <time>2021-08-09T17:35:20Z</time>
      </trkpt>
      <trkpt lat="47.74129" lon="6.81709">
        <ele>506.2</ele>
        <time>2021-08-09T17:35:22Z</time>
      </trkpt>
      <trkpt lat="47.74128" lon="6.81706">
        <ele>506.4</ele>
        <time>2021-08-09T17:35:24Z</time>
      </trkpt>
      <trkpt lat="47.74127" lon="6.81702">
        <ele>506.5</ele>
        <time>2021-08-09T17:35:26Z</time>
      </trkpt>
      <trkpt lat="47.74128" lon="6.81698">
        <ele>506.7</ele>
        <time>2021-08-09T17:35:27Z</time>
      </trkpt>
      <trkpt lat="47.74128" lon="6.81694">
        <ele>506.9</ele>
        <time>2021-08-09T17:35:29Z</time>
      </trkpt>
      <trkpt lat="47.74128" lon="6.81693">
        <ele>506.9</ele>
        <time>2021-08-09T17:35:30Z</time>
      </trkpt>
      <trkpt lat="47.74128" lon="6.81692">
        <ele>507</ele>
        <time>2021-08-09T17:35:31Z</time>
      </trkpt>
      <trkpt lat="47.74126" lon="6.81689">
        <ele>507.2</ele>
        <time>2021-08-09T17:35:32Z</time>
      </trkpt>
      <trkpt lat="47.74125" lon="6.81688">
        <ele>507.3</ele>
        <time>2021-08-09T17:35:33Z</time>
      </trkpt>
      <trkpt lat="47.74122" lon="6.81684">
        <ele>507.5</ele>
        <time>2021-08-09T17:35:35Z</time>
      </trkpt>
      <trkpt lat="47.74121" lon="6.81683">
        <ele>507.6</ele>
        <time>2021-08-09T17:35:36Z</time>
      </trkpt>
      <trkpt lat="47.74116" lon="6.81682">
        <ele>508.3</ele>
        <time>2021-08-09T17:35:38Z</time>
      </trkpt>
      <trkpt lat="47.74112" lon="6.81681">
        <ele>508.3</ele>
        <time>2021-08-09T17:35:39Z</time>
      </trkpt>
      <trkpt lat="47.74109" lon="6.8168">
        <ele>508.3</ele>
        <time>2021-08-09T17:35:40Z</time>
      </trkpt>
      <trkpt lat="47.74106" lon="6.81679">
        <ele>508.2</ele>
        <time>2021-08-09T17:35:42Z</time>
      </trkpt>
      <trkpt lat="47.74103" lon="6.81677">
        <ele>508.2</ele>
        <time>2021-08-09T17:35:43Z</time>
      </trkpt>
      <trkpt lat="47.74102" lon="6.81675">
        <ele>508.2</ele>
        <time>2021-08-09T17:35:44Z</time>
      </trkpt>
      <trkpt lat="47.74099" lon="6.81674">
        <ele>508.3</ele>
        <time>2021-08-09T17:35:46Z</time>
      </trkpt>
      <trkpt lat="47.74097" lon="6.81671">
        <ele>508.5</ele>
        <time>2021-08-09T17:35:47Z</time>
      </trkpt>
      <trkpt lat="47.74094" lon="6.81668">
        <ele>508.7</ele>
        <time>2021-08-09T17:35:49Z</time>
      </trkpt>
      <trkpt lat="47.74093" lon="6.81667">
        <ele>508.8</ele>
        <time>2021-08-09T17:35:50Z</time>
      </trkpt>
      <trkpt lat="47.74091" lon="6.81662">
        <ele>509</ele>
        <time>2021-08-09T17:35:51Z</time>
      </trkpt>
      <trkpt lat="47.7409" lon="6.81661">
        <ele>509</ele>
        <time>2021-08-09T17:35:52Z</time>
      </trkpt>
      <trkpt lat="47.7409" lon="6.81656">
        <ele>509.2</ele>
        <time>2021-08-09T17:35:53Z</time>
      </trkpt>
      <trkpt lat="47.7409" lon="6.81655">
        <ele>509.3</ele>
        <time>2021-08-09T17:35:54Z</time>
      </trkpt>
      <trkpt lat="47.74089" lon="6.81649">
        <ele>509.5</ele>
        <time>2021-08-09T17:35:56Z</time>
      </trkpt>
      <trkpt lat="47.74089" lon="6.81644">
        <ele>509.7</ele>
        <time>2021-08-09T17:35:57Z</time>
      </trkpt>
      <trkpt lat="47.7409" lon="6.81643">
        <ele>509.8</ele>
        <time>2021-08-09T17:35:58Z</time>
      </trkpt>
      <trkpt lat="47.7409" lon="6.81638">
        <ele>510</ele>
        <time>2021-08-09T17:35:59Z</time>
      </trkpt>
      <trkpt lat="47.7409" lon="6.81636">
        <ele>510</ele>
        <time>2021-08-09T17:36:00Z</time>
      </trkpt>
      <trkpt lat="47.7409" lon="6.81632">
        <ele>510.2</ele>
        <time>2021-08-09T17:36:01Z</time>
      </trkpt>
      <trkpt lat="47.7409" lon="6.8163">
        <ele>510.3</ele>
        <time>2021-08-09T17:36:02Z</time>
      </trkpt>
      <trkpt lat="47.7409" lon="6.81625">
        <ele>510.5</ele>
        <time>2021-08-09T17:36:03Z</time>
      </trkpt>
      <trkpt lat="47.7409" lon="6.81624">
        <ele>510.5</ele>
        <time>2021-08-09T17:36:04Z</time>
      </trkpt>
      <trkpt lat="47.7409" lon="6.8162">
        <ele>510.7</ele>
        <time>2021-08-09T17:36:06Z</time>
      </trkpt>
      <trkpt lat="47.7409" lon="6.81617">
        <ele>510.8</ele>
        <time>2021-08-09T17:36:07Z</time>
      </trkpt>
      <trkpt lat="47.7409" lon="6.81615">
        <ele>510.9</ele>
        <time>2021-08-09T17:36:08Z</time>
      </trkpt>
      <trkpt lat="47.74089" lon="6.81612">
        <ele>511.1</ele>
        <time>2021-08-09T17:36:09Z</time>
      </trkpt>
      <trkpt lat="47.74088" lon="6.81606">
        <ele>511.3</ele>
        <time>2021-08-09T17:36:11Z</time>
      </trkpt>
      <trkpt lat="47.74087" lon="6.816">
        <ele>511.5</ele>
        <time>2021-08-09T17:36:12Z</time>
      </trkpt>
      <trkpt lat="47.74087" lon="6.81598">
        <ele>511.6</ele>
        <time>2021-08-09T17:36:13Z</time>
      </trkpt>
      <trkpt lat="47.74086" lon="6.81594">
        <ele>511.8</ele>
        <time>2021-08-09T17:36:14Z</time>
      </trkpt>
      <trkpt lat="47.74085" lon="6.81587">
        <ele>512</ele>
        <time>2021-08-09T17:36:16Z</time>
      </trkpt>
      <trkpt lat="47.74084" lon="6.81583">
        <ele>512.1</ele>
        <time>2021-08-09T17:36:17Z</time>
      </trkpt>
      <trkpt lat="47.74083" lon="6.81578">
        <ele>512.3</ele>
        <time>2021-08-09T17:36:18Z</time>
      </trkpt>
      <trkpt lat="47.74083" lon="6.81574">
        <ele>512.4</ele>
        <time>2021-08-09T17:36:19Z</time>
      </trkpt>
      <trkpt lat="47.74082" lon="6.81571">
        <ele>512.5</ele>
        <time>2021-08-09T17:36:20Z</time>
      </trkpt>
      <trkpt lat="47.74079" lon="6.81563">
        <ele>512.6</ele>
        <time>2021-08-09T17:36:22Z</time>
      </trkpt>
      <trkpt lat="47.74078" lon="6.81559">
        <ele>512.7</ele>
        <time>2021-08-09T17:36:23Z</time>
      </trkpt>
      <trkpt lat="47.74075" lon="6.81553">
        <ele>512.8</ele>
        <time>2021-08-09T17:36:25Z</time>
      </trkpt>
      <trkpt lat="47.74073" lon="6.81549">
        <ele>512.8</ele>
        <time>2021-08-09T17:36:26Z</time>
      </trkpt>
      <trkpt lat="47.74068" lon="6.81544">
        <ele>512.9</ele>
        <time>2021-08-09T17:36:28Z</time>
      </trkpt>
      <trkpt lat="47.74066" lon="6.8154">
        <ele>512.9</ele>
        <time>2021-08-09T17:36:29Z</time>
      </trkpt>
      <trkpt lat="47.74063" lon="6.81538">
        <ele>512.9</ele>
        <time>2021-08-09T17:36:30Z</time>
      </trkpt>
      <trkpt lat="47.7406" lon="6.81536">
        <ele>513</ele>
        <time>2021-08-09T17:36:31Z</time>
      </trkpt>
      <trkpt lat="47.74058" lon="6.81533">
        <ele>513</ele>
        <time>2021-08-09T17:36:32Z</time>
      </trkpt>
      <trkpt lat="47.74052" lon="6.81528">
        <ele>513</ele>
        <time>2021-08-09T17:36:34Z</time>
      </trkpt>
      <trkpt lat="47.74047" lon="6.81522">
        <ele>513</ele>
        <time>2021-08-09T17:36:36Z</time>
      </trkpt>
      <trkpt lat="47.74045" lon="6.81518">
        <ele>513</ele>
        <time>2021-08-09T17:36:37Z</time>
      </trkpt>
      <trkpt lat="47.74044" lon="6.81517">
        <ele>513</ele>
        <time>2021-08-09T17:36:38Z</time>
      </trkpt>
      <trkpt lat="47.74039" lon="6.81513">
        <ele>513</ele>
        <time>2021-08-09T17:36:39Z</time>
      </trkpt>
      <trkpt lat="47.74037" lon="6.8151">
        <ele>513</ele>
        <time>2021-08-09T17:36:41Z</time>
      </trkpt>
      <trkpt lat="47.74036" lon="6.81508">
        <ele>513</ele>
        <time>2021-08-09T17:36:42Z</time>
      </trkpt>
      <trkpt lat="47.74033" lon="6.81502">
        <ele>512.9</ele>
        <time>2021-08-09T17:36:44Z</time>
      </trkpt>
      <trkpt lat="47.74029" lon="6.81495">
        <ele>512.8</ele>
        <time>2021-08-09T17:36:46Z</time>
      </trkpt>
      <trkpt lat="47.74029" lon="6.81492">
        <ele>512.8</ele>
        <time>2021-08-09T17:36:47Z</time>
      </trkpt>
      <trkpt lat="47.74029" lon="6.8149">
        <ele>512.8</ele>
        <time>2021-08-09T17:36:48Z</time>
      </trkpt>
      <trkpt lat="47.74029" lon="6.81489">
        <ele>512.7</ele>
        <time>2021-08-09T17:36:50Z</time>
      </trkpt>
      <trkpt lat="47.74029" lon="6.81488">
        <ele>512.7</ele>
        <time>2021-08-09T17:36:52Z</time>
      </trkpt>
      <trkpt lat="47.74029" lon="6.81488">
        <ele>512.7</ele>
        <time>2021-08-09T17:36:54Z</time>
      </trkpt>
      <trkpt lat="47.7403" lon="6.81488">
        <ele>512.7</ele>
        <time>2021-08-09T17:36:55Z</time>
      </trkpt>
      <trkpt lat="47.7403" lon="6.81488">
        <ele>512.7</ele>
        <time>2021-08-09T17:36:57Z</time>
      </trkpt>
      <trkpt lat="47.74031" lon="6.81446">
        <ele>511.5</ele>
        <time>2021-08-09T17:38:28Z</time>
      </trkpt>
      <trkpt lat="47.7403" lon="6.81444">
        <ele>511.5</ele>
        <time>2021-08-09T17:38:30Z</time>
      </trkpt>
      <trkpt lat="47.74029" lon="6.81444">
        <ele>511.5</ele>
        <time>2021-08-09T17:38:31Z</time>
      </trkpt>
      <trkpt lat="47.74028" lon="6.81444">
        <ele>511.5</ele>
        <time>2021-08-09T17:38:32Z</time>
      </trkpt>
      <trkpt lat="47.74026" lon="6.81444">
        <ele>511.4</ele>
        <time>2021-08-09T17:38:34Z</time>
      </trkpt>
      <trkpt lat="47.74024" lon="6.81443">
        <ele>511.4</ele>
        <time>2021-08-09T17:38:36Z</time>
      </trkpt>
      <trkpt lat="47.74024" lon="6.81442">
        <ele>511.4</ele>
        <time>2021-08-09T17:38:37Z</time>
      </trkpt>
      <trkpt lat="47.74023" lon="6.81441">
        <ele>511.4</ele>
        <time>2021-08-09T17:38:39Z</time>
      </trkpt>
      <trkpt lat="47.74022" lon="6.8144">
        <ele>511.3</ele>
        <time>2021-08-09T17:38:40Z</time>
      </trkpt>
      <trkpt lat="47.74021" lon="6.8144">
        <ele>511.3</ele>
        <time>2021-08-09T17:38:41Z</time>
      </trkpt>
      <trkpt lat="47.74021" lon="6.81439">
        <ele>511.3</ele>
        <time>2021-08-09T17:38:42Z</time>
      </trkpt>
      <trkpt lat="47.74019" lon="6.81439">
        <ele>511.3</ele>
        <time>2021-08-09T17:38:44Z</time>
      </trkpt>
      <trkpt lat="47.74019" lon="6.81439">
        <ele>511.3</ele>
        <time>2021-08-09T17:38:45Z</time>
      </trkpt>
      <trkpt lat="47.74019" lon="6.81439">
        <ele>511.3</ele>
        <time>2021-08-09T17:38:47Z</time>
      </trkpt>
      <trkpt lat="47.74037" lon="6.81448">
        <ele>511.8</ele>
        <time>2021-08-09T17:39:04Z</time>
      </trkpt>
      <trkpt lat="47.74039" lon="6.81452">
        <ele>512</ele>
        <time>2021-08-09T17:39:06Z</time>
      </trkpt>
      <trkpt lat="47.74041" lon="6.81456">
        <ele>512.1</ele>
        <time>2021-08-09T17:39:08Z</time>
      </trkpt>
      <trkpt lat="47.74041" lon="6.81458">
        <ele>512.1</ele>
        <time>2021-08-09T17:39:10Z</time>
      </trkpt>
      <trkpt lat="47.74041" lon="6.8146">
        <ele>512.2</ele>
        <time>2021-08-09T17:39:12Z</time>
      </trkpt>
      <trkpt lat="47.74041" lon="6.81462">
        <ele>512.4</ele>
        <time>2021-08-09T17:39:14Z</time>
      </trkpt>
      <trkpt lat="47.74042" lon="6.81465">
        <ele>512.4</ele>
        <time>2021-08-09T17:39:15Z</time>
      </trkpt>
      <trkpt lat="47.74042" lon="6.8147">
        <ele>512.5</ele>
        <time>2021-08-09T17:39:17Z</time>
      </trkpt>
      <trkpt lat="47.74042" lon="6.81473">
        <ele>512.5</ele>
        <time>2021-08-09T17:39:18Z</time>
      </trkpt>
      <trkpt lat="47.74042" lon="6.81474">
        <ele>512.5</ele>
        <time>2021-08-09T17:39:19Z</time>
      </trkpt>
      <trkpt lat="47.74042" lon="6.81475">
        <ele>512.5</ele>
        <time>2021-08-09T17:39:20Z</time>
      </trkpt>
      <trkpt lat="47.74042" lon="6.81479">
        <ele>512.5</ele>
        <time>2021-08-09T17:39:22Z</time>
      </trkpt>
      <trkpt lat="47.74041" lon="6.81482">
        <ele>512.5</ele>
        <time>2021-08-09T17:39:23Z</time>
      </trkpt>
      <trkpt lat="47.74041" lon="6.81487">
        <ele>512.6</ele>
        <time>2021-08-09T17:39:25Z</time>
      </trkpt>
      <trkpt lat="47.7404" lon="6.8149">
        <ele>512.6</ele>
        <time>2021-08-09T17:39:26Z</time>
      </trkpt>
      <trkpt lat="47.74037" lon="6.81495">
        <ele>512.6</ele>
        <time>2021-08-09T17:39:28Z</time>
      </trkpt>
      <trkpt lat="47.74033" lon="6.815">
        <ele>512.7</ele>
        <time>2021-08-09T17:39:30Z</time>
      </trkpt>
      <trkpt lat="47.74031" lon="6.81501">
        <ele>512.7</ele>
        <time>2021-08-09T17:39:31Z</time>
      </trkpt>
      <trkpt lat="47.7403" lon="6.81502">
        <ele>512.7</ele>
        <time>2021-08-09T17:39:33Z</time>
      </trkpt>
      <trkpt lat="47.74028" lon="6.81502">
        <ele>512.7</ele>
        <time>2021-08-09T17:39:34Z</time>
      </trkpt>
      <trkpt lat="47.74026" lon="6.81503">
        <ele>512.7</ele>
        <time>2021-08-09T17:39:36Z</time>
      </trkpt>
      <trkpt lat="47.74026" lon="6.81503">
        <ele>512.7</ele>
        <time>2021-08-09T17:39:37Z</time>
      </trkpt>
      <trkpt lat="47.74026" lon="6.81503">
        <ele>512.7</ele>
        <time>2021-08-09T17:39:39Z</time>
      </trkpt>
      <trkpt lat="47.74026" lon="6.81503">
        <ele>512.8</ele>
        <time>2021-08-09T17:39:40Z</time>
      </trkpt>
      <trkpt lat="47.74026" lon="6.81501">
        <ele>512.7</ele>
        <time>2021-08-09T17:39:43Z</time>
      </trkpt>
      <trkpt lat="47.74025" lon="6.81498">
        <ele>512.7</ele>
        <time>2021-08-09T17:39:45Z</time>
      </trkpt>
      <trkpt lat="47.74025" lon="6.81496">
        <ele>512.6</ele>
        <time>2021-08-09T17:39:47Z</time>
      </trkpt>
      <trkpt lat="47.74013" lon="6.8147">
        <ele>511.8</ele>
        <time>2021-08-09T17:39:59Z</time>
      </trkpt>
      <trkpt lat="47.74012" lon="6.81458">
        <ele>511.5</ele>
        <time>2021-08-09T17:40:01Z</time>
      </trkpt>
      <trkpt lat="47.74012" lon="6.81454">
        <ele>511.3</ele>
        <time>2021-08-09T17:40:02Z</time>
      </trkpt>
      <trkpt lat="47.74008" lon="6.81445">
        <ele>511</ele>
        <time>2021-08-09T17:40:04Z</time>
      </trkpt>
      <trkpt lat="47.74004" lon="6.81434">
        <ele>510.6</ele>
        <time>2021-08-09T17:40:06Z</time>
      </trkpt>
      <trkpt lat="47.73999" lon="6.81421">
        <ele>510.2</ele>
        <time>2021-08-09T17:40:08Z</time>
      </trkpt>
      <trkpt lat="47.73997" lon="6.81416">
        <ele>510</ele>
        <time>2021-08-09T17:40:09Z</time>
      </trkpt>
      <trkpt lat="47.73994" lon="6.81411">
        <ele>509.8</ele>
        <time>2021-08-09T17:40:10Z</time>
      </trkpt>
      <trkpt lat="47.73986" lon="6.814">
        <ele>509.4</ele>
        <time>2021-08-09T17:40:12Z</time>
      </trkpt>
      <trkpt lat="47.73983" lon="6.81395">
        <ele>509.1</ele>
        <time>2021-08-09T17:40:13Z</time>
      </trkpt>
      <trkpt lat="47.73976" lon="6.81382">
        <ele>508.7</ele>
        <time>2021-08-09T17:40:15Z</time>
      </trkpt>
      <trkpt lat="47.7397" lon="6.8137">
        <ele>508.2</ele>
        <time>2021-08-09T17:40:17Z</time>
      </trkpt>
      <trkpt lat="47.73967" lon="6.81364">
        <ele>508</ele>
        <time>2021-08-09T17:40:18Z</time>
      </trkpt>
      <trkpt lat="47.73959" lon="6.81353">
        <ele>507.5</ele>
        <time>2021-08-09T17:40:20Z</time>
      </trkpt>
      <trkpt lat="47.73951" lon="6.81343">
        <ele>507.1</ele>
        <time>2021-08-09T17:40:22Z</time>
      </trkpt>
      <trkpt lat="47.73946" lon="6.81339">
        <ele>506.9</ele>
        <time>2021-08-09T17:40:23Z</time>
      </trkpt>
      <trkpt lat="47.73942" lon="6.81336">
        <ele>506.6</ele>
        <time>2021-08-09T17:40:24Z</time>
      </trkpt>
      <trkpt lat="47.73932" lon="6.81329">
        <ele>506.1</ele>
        <time>2021-08-09T17:40:26Z</time>
      </trkpt>
      <trkpt lat="47.73922" lon="6.81324">
        <ele>505.7</ele>
        <time>2021-08-09T17:40:28Z</time>
      </trkpt>
      <trkpt lat="47.73916" lon="6.8132">
        <ele>505.4</ele>
        <time>2021-08-09T17:40:29Z</time>
      </trkpt>
      <trkpt lat="47.73902" lon="6.81313">
        <ele>504.8</ele>
        <time>2021-08-09T17:40:31Z</time>
      </trkpt>
      <trkpt lat="47.73895" lon="6.81309">
        <ele>504.5</ele>
        <time>2021-08-09T17:40:32Z</time>
      </trkpt>
      <trkpt lat="47.73883" lon="6.81301">
        <ele>504</ele>
        <time>2021-08-09T17:40:34Z</time>
      </trkpt>
      <trkpt lat="47.73877" lon="6.81297">
        <ele>503.9</ele>
        <time>2021-08-09T17:40:35Z</time>
      </trkpt>
      <trkpt lat="47.73872" lon="6.81293">
        <ele>503.7</ele>
        <time>2021-08-09T17:40:36Z</time>
      </trkpt>
      <trkpt lat="47.73863" lon="6.81285">
        <ele>503.5</ele>
        <time>2021-08-09T17:40:38Z</time>
      </trkpt>
      <trkpt lat="47.73857" lon="6.81281">
        <ele>503.5</ele>
        <time>2021-08-09T17:40:39Z</time>
      </trkpt>
      <trkpt lat="47.73852" lon="6.81276">
        <ele>503.4</ele>
        <time>2021-08-09T17:40:40Z</time>
      </trkpt>
      <trkpt lat="47.73849" lon="6.81272">
        <ele>503.4</ele>
        <time>2021-08-09T17:40:41Z</time>
      </trkpt>
      <trkpt lat="47.73842" lon="6.81266">
        <ele>503.3</ele>
        <time>2021-08-09T17:40:43Z</time>
      </trkpt>
      <trkpt lat="47.73839" lon="6.81264">
        <ele>503.3</ele>
        <time>2021-08-09T17:40:44Z</time>
      </trkpt>
      <trkpt lat="47.73831" lon="6.81261">
        <ele>503.3</ele>
        <time>2021-08-09T17:40:46Z</time>
      </trkpt>
      <trkpt lat="47.73821" lon="6.81258">
        <ele>503.4</ele>
        <time>2021-08-09T17:40:48Z</time>
      </trkpt>
      <trkpt lat="47.73818" lon="6.81259">
        <ele>503.4</ele>
        <time>2021-08-09T17:40:49Z</time>
      </trkpt>
      <trkpt lat="47.73816" lon="6.81259">
        <ele>503.4</ele>
        <time>2021-08-09T17:40:50Z</time>
      </trkpt>
      <trkpt lat="47.73808" lon="6.81261">
        <ele>503.5</ele>
        <time>2021-08-09T17:40:52Z</time>
      </trkpt>
      <trkpt lat="47.738" lon="6.81263">
        <ele>503.5</ele>
        <time>2021-08-09T17:40:54Z</time>
      </trkpt>
      <trkpt lat="47.73795" lon="6.81262">
        <ele>503.5</ele>
        <time>2021-08-09T17:40:56Z</time>
      </trkpt>
      <trkpt lat="47.73791" lon="6.81261">
        <ele>503.6</ele>
        <time>2021-08-09T17:40:57Z</time>
      </trkpt>
      <trkpt lat="47.73789" lon="6.81261">
        <ele>503.6</ele>
        <time>2021-08-09T17:40:58Z</time>
      </trkpt>
      <trkpt lat="47.73786" lon="6.81261">
        <ele>503.7</ele>
        <time>2021-08-09T17:40:59Z</time>
      </trkpt>
      <trkpt lat="47.73784" lon="6.8126">
        <ele>503.7</ele>
        <time>2021-08-09T17:41:00Z</time>
      </trkpt>
      <trkpt lat="47.73779" lon="6.81261">
        <ele>503.8</ele>
        <time>2021-08-09T17:41:02Z</time>
      </trkpt>
      <trkpt lat="47.73775" lon="6.81263">
        <ele>503.9</ele>
        <time>2021-08-09T17:41:04Z</time>
      </trkpt>
      <trkpt lat="47.73771" lon="6.81263">
        <ele>504</ele>
        <time>2021-08-09T17:41:05Z</time>
      </trkpt>
      <trkpt lat="47.7377" lon="6.81263">
        <ele>504</ele>
        <time>2021-08-09T17:41:06Z</time>
      </trkpt>
      <trkpt lat="47.73764" lon="6.81263">
        <ele>504.2</ele>
        <time>2021-08-09T17:41:08Z</time>
      </trkpt>
      <trkpt lat="47.7376" lon="6.81264">
        <ele>504.3</ele>
        <time>2021-08-09T17:41:09Z</time>
      </trkpt>
      <trkpt lat="47.73754" lon="6.81267">
        <ele>504.5</ele>
        <time>2021-08-09T17:41:11Z</time>
      </trkpt>
      <trkpt lat="47.73751" lon="6.81268">
        <ele>504.6</ele>
        <time>2021-08-09T17:41:12Z</time>
      </trkpt>
      <trkpt lat="47.7375" lon="6.81268">
        <ele>504.6</ele>
        <time>2021-08-09T17:41:13Z</time>
      </trkpt>
      <trkpt lat="47.73749" lon="6.81269">
        <ele>504.7</ele>
        <time>2021-08-09T17:41:15Z</time>
      </trkpt>
      <trkpt lat="47.73748" lon="6.81269">
        <ele>504.7</ele>
        <time>2021-08-09T17:41:16Z</time>
      </trkpt>
      <trkpt lat="47.73748" lon="6.81269">
        <ele>504.7</ele>
        <time>2021-08-09T17:41:17Z</time>
      </trkpt>
      <trkpt lat="47.73746" lon="6.8127">
        <ele>504.8</ele>
        <time>2021-08-09T17:41:19Z</time>
      </trkpt>
      <trkpt lat="47.73745" lon="6.8127">
        <ele>504.8</ele>
        <time>2021-08-09T17:41:20Z</time>
      </trkpt>
      <trkpt lat="47.73743" lon="6.8127">
        <ele>504.9</ele>
        <time>2021-08-09T17:41:22Z</time>
      </trkpt>
      <trkpt lat="47.73743" lon="6.81271">
        <ele>504.9</ele>
        <time>2021-08-09T17:41:24Z</time>
      </trkpt>
      <trkpt lat="47.73705" lon="6.81278">
        <ele>507</ele>
        <time>2021-08-09T17:42:29Z</time>
      </trkpt>
      <trkpt lat="47.73704" lon="6.81279">
        <ele>507.1</ele>
        <time>2021-08-09T17:42:30Z</time>
      </trkpt>
      <trkpt lat="47.73701" lon="6.81279">
        <ele>507.3</ele>
        <time>2021-08-09T17:42:32Z</time>
      </trkpt>
      <trkpt lat="47.737" lon="6.81279">
        <ele>507.3</ele>
        <time>2021-08-09T17:42:33Z</time>
      </trkpt>
      <trkpt lat="47.73699" lon="6.8128">
        <ele>507.4</ele>
        <time>2021-08-09T17:42:34Z</time>
      </trkpt>
      <trkpt lat="47.73698" lon="6.8128">
        <ele>507.5</ele>
        <time>2021-08-09T17:42:36Z</time>
      </trkpt>
      <trkpt lat="47.73697" lon="6.81281">
        <ele>507.5</ele>
        <time>2021-08-09T17:42:37Z</time>
      </trkpt>
      <trkpt lat="47.73696" lon="6.81282">
        <ele>507.6</ele>
        <time>2021-08-09T17:42:38Z</time>
      </trkpt>
      <trkpt lat="47.73695" lon="6.81283">
        <ele>507.7</ele>
        <time>2021-08-09T17:42:40Z</time>
      </trkpt>
      <trkpt lat="47.73694" lon="6.81287">
        <ele>507.9</ele>
        <time>2021-08-09T17:42:41Z</time>
      </trkpt>
      <trkpt lat="47.73693" lon="6.81288">
        <ele>508</ele>
        <time>2021-08-09T17:42:42Z</time>
      </trkpt>
      <trkpt lat="47.7369" lon="6.8129">
        <ele>508.2</ele>
        <time>2021-08-09T17:42:44Z</time>
      </trkpt>
      <trkpt lat="47.73688" lon="6.8129">
        <ele>508.3</ele>
        <time>2021-08-09T17:42:46Z</time>
      </trkpt>
      <trkpt lat="47.73687" lon="6.8129">
        <ele>508.4</ele>
        <time>2021-08-09T17:42:47Z</time>
      </trkpt>
      <trkpt lat="47.73682" lon="6.8129">
        <ele>508.7</ele>
        <time>2021-08-09T17:42:49Z</time>
      </trkpt>
      <trkpt lat="47.7368" lon="6.8129">
        <ele>508.8</ele>
        <time>2021-08-09T17:42:50Z</time>
      </trkpt>
      <trkpt lat="47.73677" lon="6.81288">
        <ele>509.1</ele>
        <time>2021-08-09T17:42:52Z</time>
      </trkpt>
      <trkpt lat="47.73675" lon="6.81286">
        <ele>509.3</ele>
        <time>2021-08-09T17:42:53Z</time>
      </trkpt>
      <trkpt lat="47.73672" lon="6.81281">
        <ele>509.6</ele>
        <time>2021-08-09T17:42:54Z</time>
      </trkpt>
      <trkpt lat="47.73671" lon="6.81279">
        <ele>509.7</ele>
        <time>2021-08-09T17:42:55Z</time>
      </trkpt>
      <trkpt lat="47.73666" lon="6.81276">
        <ele>510.1</ele>
        <time>2021-08-09T17:42:57Z</time>
      </trkpt>
      <trkpt lat="47.73664" lon="6.81275">
        <ele>510.2</ele>
        <time>2021-08-09T17:42:58Z</time>
      </trkpt>
      <trkpt lat="47.73662" lon="6.81275">
        <ele>510.4</ele>
        <time>2021-08-09T17:42:59Z</time>
      </trkpt>
      <trkpt lat="47.73658" lon="6.81275">
        <ele>510.7</ele>
        <time>2021-08-09T17:43:00Z</time>
      </trkpt>
      <trkpt lat="47.73656" lon="6.81275">
        <ele>510.8</ele>
        <time>2021-08-09T17:43:01Z</time>
      </trkpt>
      <trkpt lat="47.73651" lon="6.8128">
        <ele>511.4</ele>
        <time>2021-08-09T17:43:02Z</time>
      </trkpt>
      <trkpt lat="47.73645" lon="6.81285">
        <ele>511.9</ele>
        <time>2021-08-09T17:43:04Z</time>
      </trkpt>
      <trkpt lat="47.73643" lon="6.81288">
        <ele>512.1</ele>
        <time>2021-08-09T17:43:05Z</time>
      </trkpt>
      <trkpt lat="47.73641" lon="6.81291">
        <ele>512.3</ele>
        <time>2021-08-09T17:43:06Z</time>
      </trkpt>
      <trkpt lat="47.7364" lon="6.81295">
        <ele>512.5</ele>
        <time>2021-08-09T17:43:08Z</time>
      </trkpt>
      <trkpt lat="47.7364" lon="6.81298">
        <ele>512.6</ele>
        <time>2021-08-09T17:43:09Z</time>
      </trkpt>
      <trkpt lat="47.73637" lon="6.81301">
        <ele>512.8</ele>
        <time>2021-08-09T17:43:11Z</time>
      </trkpt>
      <trkpt lat="47.73635" lon="6.81304">
        <ele>513.1</ele>
        <time>2021-08-09T17:43:12Z</time>
      </trkpt>
      <trkpt lat="47.73633" lon="6.81306">
        <ele>513.2</ele>
        <time>2021-08-09T17:43:13Z</time>
      </trkpt>
      <trkpt lat="47.73631" lon="6.81312">
        <ele>513.5</ele>
        <time>2021-08-09T17:43:15Z</time>
      </trkpt>
      <trkpt lat="47.73631" lon="6.81316">
        <ele>513.7</ele>
        <time>2021-08-09T17:43:17Z</time>
      </trkpt>
      <trkpt lat="47.73632" lon="6.81315">
        <ele>513.7</ele>
        <time>2021-08-09T17:43:18Z</time>
      </trkpt>
      <trkpt lat="47.73633" lon="6.81312">
        <ele>513.9</ele>
        <time>2021-08-09T17:43:19Z</time>
      </trkpt>
      <trkpt lat="47.73634" lon="6.81311">
        <ele>514</ele>
        <time>2021-08-09T17:43:21Z</time>
      </trkpt>
      <trkpt lat="47.73634" lon="6.8131">
        <ele>514</ele>
        <time>2021-08-09T17:43:22Z</time>
      </trkpt>
      <trkpt lat="47.73634" lon="6.8131">
        <ele>514.1</ele>
        <time>2021-08-09T17:43:24Z</time>
      </trkpt>
      <trkpt lat="47.73617" lon="6.81302">
        <ele>515.3</ele>
        <time>2021-08-09T17:43:54Z</time>
      </trkpt>
      <trkpt lat="47.73614" lon="6.81301">
        <ele>515.5</ele>
        <time>2021-08-09T17:43:56Z</time>
      </trkpt>
      <trkpt lat="47.73611" lon="6.813">
        <ele>515.8</ele>
        <time>2021-08-09T17:43:57Z</time>
      </trkpt>
      <trkpt lat="47.73608" lon="6.813">
        <ele>516</ele>
        <time>2021-08-09T17:43:58Z</time>
      </trkpt>
      <trkpt lat="47.73608" lon="6.813">
        <ele>516</ele>
        <time>2021-08-09T17:43:59Z</time>
      </trkpt>
      <trkpt lat="47.73606" lon="6.813">
        <ele>516.2</ele>
        <time>2021-08-09T17:44:01Z</time>
      </trkpt>
      <trkpt lat="47.73605" lon="6.81301">
        <ele>516.2</ele>
        <time>2021-08-09T17:44:02Z</time>
      </trkpt>
      <trkpt lat="47.73605" lon="6.81303">
        <ele>516.3</ele>
        <time>2021-08-09T17:44:04Z</time>
      </trkpt>
      <trkpt lat="47.73604" lon="6.81304">
        <ele>516.4</ele>
        <time>2021-08-09T17:44:05Z</time>
      </trkpt>
      <trkpt lat="47.73603" lon="6.81305">
        <ele>516.5</ele>
        <time>2021-08-09T17:44:07Z</time>
      </trkpt>
      <trkpt lat="47.73602" lon="6.81305">
        <ele>516.6</ele>
        <time>2021-08-09T17:44:08Z</time>
      </trkpt>
      <trkpt lat="47.73602" lon="6.81305">
        <ele>516.6</ele>
        <time>2021-08-09T17:44:09Z</time>
      </trkpt>
      <trkpt lat="47.73602" lon="6.81305">
        <ele>516.6</ele>
        <time>2021-08-09T17:44:11Z</time>
      </trkpt>
      <trkpt lat="47.736" lon="6.81305">
        <ele>516.8</ele>
        <time>2021-08-09T17:44:12Z</time>
      </trkpt>
      <trkpt lat="47.73599" lon="6.81306">
        <ele>516.9</ele>
        <time>2021-08-09T17:44:14Z</time>
      </trkpt>
      <trkpt lat="47.73599" lon="6.81306">
        <ele>516.9</ele>
        <time>2021-08-09T17:44:16Z</time>
      </trkpt>
      <trkpt lat="47.73598" lon="6.81307">
        <ele>516.9</ele>
        <time>2021-08-09T17:44:17Z</time>
      </trkpt>
      <trkpt lat="47.73598" lon="6.81307">
        <ele>517</ele>
        <time>2021-08-09T17:44:18Z</time>
      </trkpt>
      <trkpt lat="47.73597" lon="6.81307">
        <ele>517</ele>
        <time>2021-08-09T17:44:20Z</time>
      </trkpt>
      <trkpt lat="47.73596" lon="6.81307">
        <ele>517.1</ele>
        <time>2021-08-09T17:44:21Z</time>
      </trkpt>
      <trkpt lat="47.73595" lon="6.81308">
        <ele>517.2</ele>
        <time>2021-08-09T17:44:23Z</time>
      </trkpt>
      <trkpt lat="47.73594" lon="6.81308">
        <ele>517.2</ele>
        <time>2021-08-09T17:44:24Z</time>
      </trkpt>
      <trkpt lat="47.73594" lon="6.81307">
        <ele>517.3</ele>
        <time>2021-08-09T17:44:26Z</time>
      </trkpt>
      <trkpt lat="47.73593" lon="6.81307">
        <ele>517.3</ele>
        <time>2021-08-09T17:44:27Z</time>
      </trkpt>
      <trkpt lat="47.73593" lon="6.81307">
        <ele>517.3</ele>
        <time>2021-08-09T17:44:29Z</time>
      </trkpt>
      <trkpt lat="47.73592" lon="6.81307">
        <ele>517.4</ele>
        <time>2021-08-09T17:44:30Z</time>
      </trkpt>
      <trkpt lat="47.73567" lon="6.81278">
        <ele>519.4</ele>
        <time>2021-08-09T17:44:59Z</time>
      </trkpt>
      <trkpt lat="47.73567" lon="6.81277">
        <ele>519.4</ele>
        <time>2021-08-09T17:45:00Z</time>
      </trkpt>
      <trkpt lat="47.73566" lon="6.81276">
        <ele>519.5</ele>
        <time>2021-08-09T17:45:01Z</time>
      </trkpt>
      <trkpt lat="47.73566" lon="6.81276">
        <ele>519.5</ele>
        <time>2021-08-09T17:45:02Z</time>
      </trkpt>
      <trkpt lat="47.73566" lon="6.81275">
        <ele>519.5</ele>
        <time>2021-08-09T17:45:03Z</time>
      </trkpt>
      <trkpt lat="47.73566" lon="6.81274">
        <ele>519.6</ele>
        <time>2021-08-09T17:45:05Z</time>
      </trkpt>
      <trkpt lat="47.73565" lon="6.81273">
        <ele>519.6</ele>
        <time>2021-08-09T17:45:06Z</time>
      </trkpt>
      <trkpt lat="47.73565" lon="6.8127">
        <ele>519.7</ele>
        <time>2021-08-09T17:45:07Z</time>
      </trkpt>
      <trkpt lat="47.73564" lon="6.81266">
        <ele>519.9</ele>
        <time>2021-08-09T17:45:09Z</time>
      </trkpt>
      <trkpt lat="47.73563" lon="6.81261">
        <ele>520.1</ele>
        <time>2021-08-09T17:45:11Z</time>
      </trkpt>
      <trkpt lat="47.73562" lon="6.81256">
        <ele>520.3</ele>
        <time>2021-08-09T17:45:12Z</time>
      </trkpt>
      <trkpt lat="47.73562" lon="6.81255">
        <ele>520.3</ele>
        <time>2021-08-09T17:45:13Z</time>
      </trkpt>
      <trkpt lat="47.73559" lon="6.81247">
        <ele>520.7</ele>
        <time>2021-08-09T17:45:15Z</time>
      </trkpt>
      <trkpt lat="47.73558" lon="6.81243">
        <ele>520.8</ele>
        <time>2021-08-09T17:45:16Z</time>
      </trkpt>
      <trkpt lat="47.73555" lon="6.81237">
        <ele>521.1</ele>
        <time>2021-08-09T17:45:18Z</time>
      </trkpt>
      <trkpt lat="47.73555" lon="6.81235">
        <ele>521.2</ele>
        <time>2021-08-09T17:45:19Z</time>
      </trkpt>
      <trkpt lat="47.73554" lon="6.81233">
        <ele>521.3</ele>
        <time>2021-08-09T17:45:20Z</time>
      </trkpt>
      <trkpt lat="47.73554" lon="6.81228">
        <ele>521.5</ele>
        <time>2021-08-09T17:45:21Z</time>
      </trkpt>
      <trkpt lat="47.73555" lon="6.81227">
        <ele>521.6</ele>
        <time>2021-08-09T17:45:22Z</time>
      </trkpt>
      <trkpt lat="47.73554" lon="6.81222">
        <ele>521.8</ele>
        <time>2021-08-09T17:45:24Z</time>
      </trkpt>
      <trkpt lat="47.73553" lon="6.8122">
        <ele>522</ele>
        <time>2021-08-09T17:45:25Z</time>
      </trkpt>
      <trkpt lat="47.7355" lon="6.81216">
        <ele>522.2</ele>
        <time>2021-08-09T17:45:27Z</time>
      </trkpt>
      <trkpt lat="47.73549" lon="6.81215">
        <ele>522.3</ele>
        <time>2021-08-09T17:45:28Z</time>
      </trkpt>
      <trkpt lat="47.73549" lon="6.81215">
        <ele>522.3</ele>
        <time>2021-08-09T17:45:29Z</time>
      </trkpt>
      <trkpt lat="47.73548" lon="6.81214">
        <ele>522.4</ele>
        <time>2021-08-09T17:45:30Z</time>
      </trkpt>
      <trkpt lat="47.73547" lon="6.81212">
        <ele>522.5</ele>
        <time>2021-08-09T17:45:32Z</time>
      </trkpt>
      <trkpt lat="47.73547" lon="6.81211">
        <ele>522.6</ele>
        <time>2021-08-09T17:45:34Z</time>
      </trkpt>
      <trkpt lat="47.73546" lon="6.81209">
        <ele>522.7</ele>
        <time>2021-08-09T17:45:35Z</time>
      </trkpt>
      <trkpt lat="47.73544" lon="6.81205">
        <ele>522.9</ele>
        <time>2021-08-09T17:45:36Z</time>
      </trkpt>
      <trkpt lat="47.73541" lon="6.81202">
        <ele>523.2</ele>
        <time>2021-08-09T17:45:37Z</time>
      </trkpt>
      <trkpt lat="47.7354" lon="6.81201">
        <ele>523.3</ele>
        <time>2021-08-09T17:45:38Z</time>
      </trkpt>
      <trkpt lat="47.73536" lon="6.81198">
        <ele>523.7</ele>
        <time>2021-08-09T17:45:40Z</time>
      </trkpt>
      <trkpt lat="47.73534" lon="6.81197">
        <ele>523.8</ele>
        <time>2021-08-09T17:45:41Z</time>
      </trkpt>
      <trkpt lat="47.73533" lon="6.81195">
        <ele>523.9</ele>
        <time>2021-08-09T17:45:42Z</time>
      </trkpt>
      <trkpt lat="47.73529" lon="6.81192">
        <ele>524.3</ele>
        <time>2021-08-09T17:45:44Z</time>
      </trkpt>
      <trkpt lat="47.73528" lon="6.81191">
        <ele>524.4</ele>
        <time>2021-08-09T17:45:45Z</time>
      </trkpt>
      <trkpt lat="47.73527" lon="6.8119">
        <ele>524.5</ele>
        <time>2021-08-09T17:45:46Z</time>
      </trkpt>
      <trkpt lat="47.73526" lon="6.81189">
        <ele>524.6</ele>
        <time>2021-08-09T17:45:47Z</time>
      </trkpt>
      <trkpt lat="47.73525" lon="6.81186">
        <ele>524.8</ele>
        <time>2021-08-09T17:45:48Z</time>
      </trkpt>
      <trkpt lat="47.73523" lon="6.81183">
        <ele>525.1</ele>
        <time>2021-08-09T17:45:49Z</time>
      </trkpt>
      <trkpt lat="47.73522" lon="6.81181">
        <ele>525.2</ele>
        <time>2021-08-09T17:45:50Z</time>
      </trkpt>
      <trkpt lat="47.73519" lon="6.81177">
        <ele>525.6</ele>
        <time>2021-08-09T17:45:52Z</time>
      </trkpt>
      <trkpt lat="47.73516" lon="6.81174">
        <ele>525.9</ele>
        <time>2021-08-09T17:45:53Z</time>
      </trkpt>
      <trkpt lat="47.73513" lon="6.81171">
        <ele>526.1</ele>
        <time>2021-08-09T17:45:54Z</time>
      </trkpt>
      <trkpt lat="47.73509" lon="6.81169">
        <ele>526.6</ele>
        <time>2021-08-09T17:45:56Z</time>
      </trkpt>
      <trkpt lat="47.73506" lon="6.81169">
        <ele>526.8</ele>
        <time>2021-08-09T17:45:57Z</time>
      </trkpt>
      <trkpt lat="47.73505" lon="6.81169">
        <ele>527</ele>
        <time>2021-08-09T17:45:59Z</time>
      </trkpt>
      <trkpt lat="47.73505" lon="6.8117">
        <ele>527</ele>
        <time>2021-08-09T17:46:01Z</time>
      </trkpt>
      <trkpt lat="47.73504" lon="6.81171">
        <ele>527.1</ele>
        <time>2021-08-09T17:46:02Z</time>
      </trkpt>
      <trkpt lat="47.73504" lon="6.81171">
        <ele>527.1</ele>
        <time>2021-08-09T17:46:04Z</time>
      </trkpt>
      <trkpt lat="47.73504" lon="6.81171">
        <ele>527.1</ele>
        <time>2021-08-09T17:46:05Z</time>
      </trkpt>
      <trkpt lat="47.73504" lon="6.81171">
        <ele>527.1</ele>
        <time>2021-08-09T17:46:07Z</time>
      </trkpt>
      <trkpt lat="47.73458" lon="6.81092">
        <ele>533.9</ele>
        <time>2021-08-09T17:47:09Z</time>
      </trkpt>
      <trkpt lat="47.73456" lon="6.81091">
        <ele>534</ele>
        <time>2021-08-09T17:47:10Z</time>
      </trkpt>
      <trkpt lat="47.73454" lon="6.81088">
        <ele>534.2</ele>
        <time>2021-08-09T17:47:12Z</time>
      </trkpt>
      <trkpt lat="47.73454" lon="6.81087">
        <ele>534.3</ele>
        <time>2021-08-09T17:47:14Z</time>
      </trkpt>
      <trkpt lat="47.73453" lon="6.81085">
        <ele>534.4</ele>
        <time>2021-08-09T17:47:15Z</time>
      </trkpt>
      <trkpt lat="47.73453" lon="6.81084">
        <ele>534.5</ele>
        <time>2021-08-09T17:47:16Z</time>
      </trkpt>
      <trkpt lat="47.73454" lon="6.8108">
        <ele>534.7</ele>
        <time>2021-08-09T17:47:17Z</time>
      </trkpt>
      <trkpt lat="47.73454" lon="6.81078">
        <ele>534.8</ele>
        <time>2021-08-09T17:47:18Z</time>
      </trkpt>
      <trkpt lat="47.73454" lon="6.81075">
        <ele>534.9</ele>
        <time>2021-08-09T17:47:20Z</time>
      </trkpt>
      <trkpt lat="47.73442" lon="6.81042">
        <ele>536.7</ele>
        <time>2021-08-09T17:47:35Z</time>
      </trkpt>
      <trkpt lat="47.73439" lon="6.8104">
        <ele>536.9</ele>
        <time>2021-08-09T17:47:36Z</time>
      </trkpt>
      <trkpt lat="47.73434" lon="6.81038">
        <ele>537.2</ele>
        <time>2021-08-09T17:47:38Z</time>
      </trkpt>
      <trkpt lat="47.73432" lon="6.81037">
        <ele>537.3</ele>
        <time>2021-08-09T17:47:39Z</time>
      </trkpt>
      <trkpt lat="47.7343" lon="6.81037">
        <ele>537.5</ele>
        <time>2021-08-09T17:47:40Z</time>
      </trkpt>
      <trkpt lat="47.73426" lon="6.81035">
        <ele>537.8</ele>
        <time>2021-08-09T17:47:41Z</time>
      </trkpt>
      <trkpt lat="47.73423" lon="6.81035">
        <ele>538</ele>
        <time>2021-08-09T17:47:42Z</time>
      </trkpt>
      <trkpt lat="47.73417" lon="6.81037">
        <ele>538.2</ele>
        <time>2021-08-09T17:47:44Z</time>
      </trkpt>
      <trkpt lat="47.73412" lon="6.81038">
        <ele>538.4</ele>
        <time>2021-08-09T17:47:46Z</time>
      </trkpt>
      <trkpt lat="47.73408" lon="6.8104">
        <ele>538.6</ele>
        <time>2021-08-09T17:47:47Z</time>
      </trkpt>
      <trkpt lat="47.73404" lon="6.81042">
        <ele>538.7</ele>
        <time>2021-08-09T17:47:49Z</time>
      </trkpt>
      <trkpt lat="47.734" lon="6.81043">
        <ele>538.9</ele>
        <time>2021-08-09T17:47:50Z</time>
      </trkpt>
      <trkpt lat="47.73397" lon="6.81044">
        <ele>539</ele>
        <time>2021-08-09T17:47:51Z</time>
      </trkpt>
      <trkpt lat="47.73394" lon="6.81046">
        <ele>539.2</ele>
        <time>2021-08-09T17:47:53Z</time>
      </trkpt>
      <trkpt lat="47.73389" lon="6.81049">
        <ele>539.4</ele>
        <time>2021-08-09T17:47:55Z</time>
      </trkpt>
      <trkpt lat="47.73384" lon="6.81051">
        <ele>539.6</ele>
        <time>2021-08-09T17:47:57Z</time>
      </trkpt>
      <trkpt lat="47.73382" lon="6.81052">
        <ele>539.7</ele>
        <time>2021-08-09T17:47:58Z</time>
      </trkpt>
      <trkpt lat="47.73377" lon="6.81055">
        <ele>539.9</ele>
        <time>2021-08-09T17:48:00Z</time>
      </trkpt>
      <trkpt lat="47.73375" lon="6.81058">
        <ele>540</ele>
        <time>2021-08-09T17:48:01Z</time>
      </trkpt>
      <trkpt lat="47.73374" lon="6.81058">
        <ele>540.1</ele>
        <time>2021-08-09T17:48:02Z</time>
      </trkpt>
      <trkpt lat="47.73372" lon="6.8106">
        <ele>540.2</ele>
        <time>2021-08-09T17:48:04Z</time>
      </trkpt>
      <trkpt lat="47.73371" lon="6.81061">
        <ele>540.2</ele>
        <time>2021-08-09T17:48:05Z</time>
      </trkpt>
      <trkpt lat="47.7337" lon="6.81062">
        <ele>540.3</ele>
        <time>2021-08-09T17:48:06Z</time>
      </trkpt>
      <trkpt lat="47.73369" lon="6.81063">
        <ele>540.3</ele>
        <time>2021-08-09T17:48:08Z</time>
      </trkpt>
      <trkpt lat="47.73369" lon="6.81064">
        <ele>540.4</ele>
        <time>2021-08-09T17:48:10Z</time>
      </trkpt>
      <trkpt lat="47.73368" lon="6.81065">
        <ele>540.4</ele>
        <time>2021-08-09T17:48:11Z</time>
      </trkpt>
      <trkpt lat="47.73365" lon="6.81068">
        <ele>540.6</ele>
        <time>2021-08-09T17:48:13Z</time>
      </trkpt>
      <trkpt lat="47.73363" lon="6.81069">
        <ele>540.7</ele>
        <time>2021-08-09T17:48:14Z</time>
      </trkpt>
      <trkpt lat="47.73361" lon="6.8107">
        <ele>540.8</ele>
        <time>2021-08-09T17:48:15Z</time>
      </trkpt>
      <trkpt lat="47.73359" lon="6.8107">
        <ele>540.9</ele>
        <time>2021-08-09T17:48:17Z</time>
      </trkpt>
      <trkpt lat="47.73358" lon="6.81069">
        <ele>540.9</ele>
        <time>2021-08-09T17:48:18Z</time>
      </trkpt>
      <trkpt lat="47.73358" lon="6.8107">
        <ele>541</ele>
        <time>2021-08-09T17:48:19Z</time>
      </trkpt>
      <trkpt lat="47.73359" lon="6.81071">
        <ele>541</ele>
        <time>2021-08-09T17:48:20Z</time>
      </trkpt>
      <trkpt lat="47.73359" lon="6.81071">
        <ele>541</ele>
        <time>2021-08-09T17:48:22Z</time>
      </trkpt>
      <trkpt lat="47.73359" lon="6.81072">
        <ele>541</ele>
        <time>2021-08-09T17:48:23Z</time>
      </trkpt>
      <trkpt lat="47.73359" lon="6.81072">
        <ele>541</ele>
        <time>2021-08-09T17:48:24Z</time>
      </trkpt>
      <trkpt lat="47.73359" lon="6.81073">
        <ele>541</ele>
        <time>2021-08-09T17:48:25Z</time>
      </trkpt>
      <trkpt lat="47.73358" lon="6.81073">
        <ele>541</ele>
        <time>2021-08-09T17:48:26Z</time>
      </trkpt>
      <trkpt lat="47.73357" lon="6.81074">
        <ele>541.1</ele>
        <time>2021-08-09T17:48:27Z</time>
      </trkpt>
      <trkpt lat="47.73356" lon="6.81074">
        <ele>541.1</ele>
        <time>2021-08-09T17:48:28Z</time>
      </trkpt>
      <trkpt lat="47.7334" lon="6.81085">
        <ele>542</ele>
        <time>2021-08-09T17:48:38Z</time>
      </trkpt>
      <trkpt lat="47.73337" lon="6.81087">
        <ele>542.1</ele>
        <time>2021-08-09T17:48:39Z</time>
      </trkpt>
      <trkpt lat="47.73334" lon="6.81088">
        <ele>542.2</ele>
        <time>2021-08-09T17:48:40Z</time>
      </trkpt>
      <trkpt lat="47.73332" lon="6.81089">
        <ele>542.3</ele>
        <time>2021-08-09T17:48:41Z</time>
      </trkpt>
      <trkpt lat="47.73329" lon="6.8109">
        <ele>542.5</ele>
        <time>2021-08-09T17:48:43Z</time>
      </trkpt>
      <trkpt lat="47.73325" lon="6.8109">
        <ele>542.7</ele>
        <time>2021-08-09T17:48:44Z</time>
      </trkpt>
      <trkpt lat="47.73323" lon="6.8109">
        <ele>542.7</ele>
        <time>2021-08-09T17:48:45Z</time>
      </trkpt>
      <trkpt lat="47.7332" lon="6.81092">
        <ele>542.9</ele>
        <time>2021-08-09T17:48:47Z</time>
      </trkpt>
      <trkpt lat="47.73316" lon="6.81094">
        <ele>543</ele>
        <time>2021-08-09T17:48:48Z</time>
      </trkpt>
      <trkpt lat="47.73311" lon="6.81097">
        <ele>543.1</ele>
        <time>2021-08-09T17:48:50Z</time>
      </trkpt>
      <trkpt lat="47.73306" lon="6.81101">
        <ele>543.1</ele>
        <time>2021-08-09T17:48:52Z</time>
      </trkpt>
      <trkpt lat="47.73302" lon="6.81104">
        <ele>543.1</ele>
        <time>2021-08-09T17:48:54Z</time>
      </trkpt>
      <trkpt lat="47.73298" lon="6.81107">
        <ele>543.2</ele>
        <time>2021-08-09T17:48:55Z</time>
      </trkpt>
      <trkpt lat="47.73297" lon="6.81109">
        <ele>543.2</ele>
        <time>2021-08-09T17:48:56Z</time>
      </trkpt>
      <trkpt lat="47.73294" lon="6.81112">
        <ele>543.2</ele>
        <time>2021-08-09T17:48:57Z</time>
      </trkpt>
      <trkpt lat="47.73291" lon="6.81116">
        <ele>543.2</ele>
        <time>2021-08-09T17:48:59Z</time>
      </trkpt>
      <trkpt lat="47.73289" lon="6.81119">
        <ele>543.2</ele>
        <time>2021-08-09T17:49:00Z</time>
      </trkpt>
      <trkpt lat="47.73285" lon="6.81124">
        <ele>543.3</ele>
        <time>2021-08-09T17:49:02Z</time>
      </trkpt>
      <trkpt lat="47.73285" lon="6.81125">
        <ele>543.3</ele>
        <time>2021-08-09T17:49:03Z</time>
      </trkpt>
      <trkpt lat="47.73284" lon="6.81127">
        <ele>543.4</ele>
        <time>2021-08-09T17:49:04Z</time>
      </trkpt>
      <trkpt lat="47.73283" lon="6.81133">
        <ele>543.6</ele>
        <time>2021-08-09T17:49:06Z</time>
      </trkpt>
      <trkpt lat="47.73283" lon="6.81134">
        <ele>543.6</ele>
        <time>2021-08-09T17:49:07Z</time>
      </trkpt>
      <trkpt lat="47.73283" lon="6.81136">
        <ele>543.7</ele>
        <time>2021-08-09T17:49:08Z</time>
      </trkpt>
      <trkpt lat="47.73281" lon="6.81141">
        <ele>543.9</ele>
        <time>2021-08-09T17:49:10Z</time>
      </trkpt>
      <trkpt lat="47.73279" lon="6.81145">
        <ele>544</ele>
        <time>2021-08-09T17:49:11Z</time>
      </trkpt>
      <trkpt lat="47.73278" lon="6.81146">
        <ele>544.1</ele>
        <time>2021-08-09T17:49:12Z</time>
      </trkpt>
      <trkpt lat="47.73273" lon="6.81151">
        <ele>544.4</ele>
        <time>2021-08-09T17:49:14Z</time>
      </trkpt>
      <trkpt lat="47.7327" lon="6.81155">
        <ele>544.6</ele>
        <time>2021-08-09T17:49:15Z</time>
      </trkpt>
      <trkpt lat="47.73269" lon="6.81157">
        <ele>544.7</ele>
        <time>2021-08-09T17:49:16Z</time>
      </trkpt>
      <trkpt lat="47.73265" lon="6.81162">
        <ele>545</ele>
        <time>2021-08-09T17:49:18Z</time>
      </trkpt>
      <trkpt lat="47.73261" lon="6.81167">
        <ele>545.2</ele>
        <time>2021-08-09T17:49:19Z</time>
      </trkpt>
      <trkpt lat="47.73259" lon="6.81169">
        <ele>545.4</ele>
        <time>2021-08-09T17:49:20Z</time>
      </trkpt>
      <trkpt lat="47.73255" lon="6.81174">
        <ele>545.7</ele>
        <time>2021-08-09T17:49:22Z</time>
      </trkpt>
      <trkpt lat="47.73253" lon="6.81176">
        <ele>545.8</ele>
        <time>2021-08-09T17:49:23Z</time>
      </trkpt>
      <trkpt lat="47.7325" lon="6.81179">
        <ele>546</ele>
        <time>2021-08-09T17:49:25Z</time>
      </trkpt>
      <trkpt lat="47.73248" lon="6.8118">
        <ele>546.1</ele>
        <time>2021-08-09T17:49:26Z</time>
      </trkpt>
      <trkpt lat="47.73244" lon="6.81182">
        <ele>546.3</ele>
        <time>2021-08-09T17:49:28Z</time>
      </trkpt>
      <trkpt lat="47.73242" lon="6.81184">
        <ele>546.5</ele>
        <time>2021-08-09T17:49:29Z</time>
      </trkpt>
      <trkpt lat="47.73238" lon="6.81187">
        <ele>546.6</ele>
        <time>2021-08-09T17:49:31Z</time>
      </trkpt>
      <trkpt lat="47.73236" lon="6.81189">
        <ele>546.8</ele>
        <time>2021-08-09T17:49:32Z</time>
      </trkpt>
      <trkpt lat="47.73233" lon="6.81194">
        <ele>547.2</ele>
        <time>2021-08-09T17:49:34Z</time>
      </trkpt>
      <trkpt lat="47.7323" lon="6.812">
        <ele>547.5</ele>
        <time>2021-08-09T17:49:36Z</time>
      </trkpt>
      <trkpt lat="47.73227" lon="6.81204">
        <ele>547.8</ele>
        <time>2021-08-09T17:49:38Z</time>
      </trkpt>
      <trkpt lat="47.73225" lon="6.81206">
        <ele>547.9</ele>
        <time>2021-08-09T17:49:39Z</time>
      </trkpt>
      <trkpt lat="47.73224" lon="6.81207">
        <ele>548</ele>
        <time>2021-08-09T17:49:40Z</time>
      </trkpt>
      <trkpt lat="47.73222" lon="6.81211">
        <ele>548.3</ele>
        <time>2021-08-09T17:49:42Z</time>
      </trkpt>
      <trkpt lat="47.73221" lon="6.81212">
        <ele>548.3</ele>
        <time>2021-08-09T17:49:43Z</time>
      </trkpt>
      <trkpt lat="47.73219" lon="6.81214">
        <ele>548.5</ele>
        <time>2021-08-09T17:49:44Z</time>
      </trkpt>
      <trkpt lat="47.73219" lon="6.81215">
        <ele>548.5</ele>
        <time>2021-08-09T17:49:46Z</time>
      </trkpt>
      <trkpt lat="47.73218" lon="6.81215">
        <ele>548.6</ele>
        <time>2021-08-09T17:49:47Z</time>
      </trkpt>
      <trkpt lat="47.73218" lon="6.81216">
        <ele>548.6</ele>
        <time>2021-08-09T17:49:48Z</time>
      </trkpt>
      <trkpt lat="47.73213" lon="6.81218">
        <ele>549</ele>
        <time>2021-08-09T17:49:50Z</time>
      </trkpt>
      <trkpt lat="47.7321" lon="6.81223">
        <ele>549.3</ele>
        <time>2021-08-09T17:49:52Z</time>
      </trkpt>
      <trkpt lat="47.73208" lon="6.81227">
        <ele>549.6</ele>
        <time>2021-08-09T17:49:53Z</time>
      </trkpt>
      <trkpt lat="47.73207" lon="6.81228">
        <ele>549.7</ele>
        <time>2021-08-09T17:49:54Z</time>
      </trkpt>
      <trkpt lat="47.73206" lon="6.8123">
        <ele>549.9</ele>
        <time>2021-08-09T17:49:56Z</time>
      </trkpt>
      <trkpt lat="47.73205" lon="6.8123">
        <ele>550</ele>
        <time>2021-08-09T17:49:57Z</time>
      </trkpt>
      <trkpt lat="47.73204" lon="6.8123">
        <ele>550</ele>
        <time>2021-08-09T17:49:58Z</time>
      </trkpt>
      <trkpt lat="47.73204" lon="6.81231">
        <ele>550.1</ele>
        <time>2021-08-09T17:50:00Z</time>
      </trkpt>
      <trkpt lat="47.73203" lon="6.81232">
        <ele>550.2</ele>
        <time>2021-08-09T17:50:01Z</time>
      </trkpt>
      <trkpt lat="47.73203" lon="6.81233">
        <ele>550.2</ele>
        <time>2021-08-09T17:50:02Z</time>
      </trkpt>
      <trkpt lat="47.73203" lon="6.81235">
        <ele>551</ele>
        <time>2021-08-09T17:50:03Z</time>
      </trkpt>
      <trkpt lat="47.73202" lon="6.81236">
        <ele>551</ele>
        <time>2021-08-09T17:50:04Z</time>
      </trkpt>
      <trkpt lat="47.73202" lon="6.81239">
        <ele>551.1</ele>
        <time>2021-08-09T17:50:06Z</time>
      </trkpt>
      <trkpt lat="47.73165" lon="6.8141">
        <ele>560.5</ele>
        <time>2021-08-09T17:52:28Z</time>
      </trkpt>
      <trkpt lat="47.7316" lon="6.81414">
        <ele>560.6</ele>
        <time>2021-08-09T17:52:30Z</time>
      </trkpt>
      <trkpt lat="47.73156" lon="6.81418">
        <ele>560.6</ele>
        <time>2021-08-09T17:52:32Z</time>
      </trkpt>
      <trkpt lat="47.73152" lon="6.8142">
        <ele>560.6</ele>
        <time>2021-08-09T17:52:34Z</time>
      </trkpt>
      <trkpt lat="47.73148" lon="6.81422">
        <ele>560.6</ele>
        <time>2021-08-09T17:52:35Z</time>
      </trkpt>
      <trkpt lat="47.73146" lon="6.81422">
        <ele>560.5</ele>
        <time>2021-08-09T17:52:36Z</time>
      </trkpt>
      <trkpt lat="47.73142" lon="6.81422">
        <ele>560.5</ele>
        <time>2021-08-09T17:52:38Z</time>
      </trkpt>
      <trkpt lat="47.7314" lon="6.81421">
        <ele>560.5</ele>
        <time>2021-08-09T17:52:39Z</time>
      </trkpt>
      <trkpt lat="47.73138" lon="6.81421">
        <ele>560.5</ele>
        <time>2021-08-09T17:52:41Z</time>
      </trkpt>
      <trkpt lat="47.73135" lon="6.81422">
        <ele>560.4</ele>
        <time>2021-08-09T17:52:42Z</time>
      </trkpt>
      <trkpt lat="47.73133" lon="6.81423">
        <ele>560.4</ele>
        <time>2021-08-09T17:52:44Z</time>
      </trkpt>
      <trkpt lat="47.73132" lon="6.81423">
        <ele>560.4</ele>
        <time>2021-08-09T17:52:45Z</time>
      </trkpt>
      <trkpt lat="47.73131" lon="6.81423">
        <ele>560.3</ele>
        <time>2021-08-09T17:52:47Z</time>
      </trkpt>
      <trkpt lat="47.7313" lon="6.81423">
        <ele>560.3</ele>
        <time>2021-08-09T17:52:48Z</time>
      </trkpt>
      <trkpt lat="47.73128" lon="6.81424">
        <ele>560.3</ele>
        <time>2021-08-09T17:52:49Z</time>
      </trkpt>
      <trkpt lat="47.73115" lon="6.81423">
        <ele>559.8</ele>
        <time>2021-08-09T17:52:52Z</time>
      </trkpt>
      <trkpt lat="47.73108" lon="6.8142">
        <ele>559.6</ele>
        <time>2021-08-09T17:52:54Z</time>
      </trkpt>
      <trkpt lat="47.73101" lon="6.81421">
        <ele>559.3</ele>
        <time>2021-08-09T17:52:55Z</time>
      </trkpt>
      <trkpt lat="47.73096" lon="6.81421">
        <ele>559.2</ele>
        <time>2021-08-09T17:52:56Z</time>
      </trkpt>
      <trkpt lat="47.73087" lon="6.8142">
        <ele>558.9</ele>
        <time>2021-08-09T17:52:58Z</time>
      </trkpt>
      <trkpt lat="47.73081" lon="6.81423">
        <ele>558.7</ele>
        <time>2021-08-09T17:53:00Z</time>
      </trkpt>
      <trkpt lat="47.73078" lon="6.81425">
        <ele>558.5</ele>
        <time>2021-08-09T17:53:01Z</time>
      </trkpt>
      <trkpt lat="47.73073" lon="6.81426">
        <ele>558.4</ele>
        <time>2021-08-09T17:53:02Z</time>
      </trkpt>
      <trkpt lat="47.73066" lon="6.81427">
        <ele>558.2</ele>
        <time>2021-08-09T17:53:04Z</time>
      </trkpt>
      <trkpt lat="47.73061" lon="6.81429">
        <ele>558</ele>
        <time>2021-08-09T17:53:05Z</time>
      </trkpt>
      <trkpt lat="47.73055" lon="6.81431">
        <ele>557.7</ele>
        <time>2021-08-09T17:53:06Z</time>
      </trkpt>
      <trkpt lat="47.7305" lon="6.81433">
        <ele>557.4</ele>
        <time>2021-08-09T17:53:07Z</time>
      </trkpt>
      <trkpt lat="47.73045" lon="6.81436">
        <ele>557.2</ele>
        <time>2021-08-09T17:53:08Z</time>
      </trkpt>
      <trkpt lat="47.73037" lon="6.81439">
        <ele>556.9</ele>
        <time>2021-08-09T17:53:10Z</time>
      </trkpt>
      <trkpt lat="47.73031" lon="6.81439">
        <ele>556.7</ele>
        <time>2021-08-09T17:53:11Z</time>
      </trkpt>
      <trkpt lat="47.73027" lon="6.81439">
        <ele>556.4</ele>
        <time>2021-08-09T17:53:12Z</time>
      </trkpt>
      <trkpt lat="47.73024" lon="6.81437">
        <ele>556.4</ele>
        <time>2021-08-09T17:53:14Z</time>
      </trkpt>
      <trkpt lat="47.73021" lon="6.81435">
        <ele>556.4</ele>
        <time>2021-08-09T17:53:15Z</time>
      </trkpt>
      <trkpt lat="47.7302" lon="6.81431">
        <ele>556.5</ele>
        <time>2021-08-09T17:53:16Z</time>
      </trkpt>
      <trkpt lat="47.73018" lon="6.81427">
        <ele>556.5</ele>
        <time>2021-08-09T17:53:17Z</time>
      </trkpt>
      <trkpt lat="47.73017" lon="6.81426">
        <ele>556.5</ele>
        <time>2021-08-09T17:53:18Z</time>
      </trkpt>
      <trkpt lat="47.73017" lon="6.81424">
        <ele>556.6</ele>
        <time>2021-08-09T17:53:19Z</time>
      </trkpt>
      <trkpt lat="47.73017" lon="6.81423">
        <ele>556.6</ele>
        <time>2021-08-09T17:53:20Z</time>
      </trkpt>
      <trkpt lat="47.73017" lon="6.8142">
        <ele>556.6</ele>
        <time>2021-08-09T17:53:22Z</time>
      </trkpt>
      <trkpt lat="47.73016" lon="6.8142">
        <ele>556.6</ele>
        <time>2021-08-09T17:53:23Z</time>
      </trkpt>
      <trkpt lat="47.73016" lon="6.8142">
        <ele>556.6</ele>
        <time>2021-08-09T17:53:25Z</time>
      </trkpt>
      <trkpt lat="47.73015" lon="6.81419">
        <ele>556.6</ele>
        <time>2021-08-09T17:53:26Z</time>
      </trkpt>
      <trkpt lat="47.73014" lon="6.81419">
        <ele>556.6</ele>
        <time>2021-08-09T17:53:27Z</time>
      </trkpt>
      <trkpt lat="47.73015" lon="6.81418">
        <ele>556.7</ele>
        <time>2021-08-09T17:53:28Z</time>
      </trkpt>
      <trkpt lat="47.73015" lon="6.81417">
        <ele>556.7</ele>
        <time>2021-08-09T17:53:29Z</time>
      </trkpt>
      <trkpt lat="47.73015" lon="6.81414">
        <ele>556.7</ele>
        <time>2021-08-09T17:53:31Z</time>
      </trkpt>
      <trkpt lat="47.73015" lon="6.81412">
        <ele>556.7</ele>
        <time>2021-08-09T17:53:32Z</time>
      </trkpt>
      <trkpt lat="47.73015" lon="6.81405">
        <ele>556.8</ele>
        <time>2021-08-09T17:53:33Z</time>
      </trkpt>
      <trkpt lat="47.73014" lon="6.81402">
        <ele>556.8</ele>
        <time>2021-08-09T17:53:34Z</time>
      </trkpt>
      <trkpt lat="47.73014" lon="6.81396">
        <ele>556.9</ele>
        <time>2021-08-09T17:53:36Z</time>
      </trkpt>
      <trkpt lat="47.73014" lon="6.8139">
        <ele>557</ele>
        <time>2021-08-09T17:53:37Z</time>
      </trkpt>
      <trkpt lat="47.73014" lon="6.81385">
        <ele>557</ele>
        <time>2021-08-09T17:53:38Z</time>
      </trkpt>
      <trkpt lat="47.73014" lon="6.8138">
        <ele>557</ele>
        <time>2021-08-09T17:53:40Z</time>
      </trkpt>
      <trkpt lat="47.73014" lon="6.81378">
        <ele>557.1</ele>
        <time>2021-08-09T17:53:41Z</time>
      </trkpt>
      <trkpt lat="47.73012" lon="6.81373">
        <ele>557.1</ele>
        <time>2021-08-09T17:53:42Z</time>
      </trkpt>
      <trkpt lat="47.73012" lon="6.81371">
        <ele>557.1</ele>
        <time>2021-08-09T17:53:43Z</time>
      </trkpt>
      <trkpt lat="47.73011" lon="6.81367">
        <ele>557.1</ele>
        <time>2021-08-09T17:53:44Z</time>
      </trkpt>
      <trkpt lat="47.73012" lon="6.8136">
        <ele>557.2</ele>
        <time>2021-08-09T17:53:46Z</time>
      </trkpt>
      <trkpt lat="47.73013" lon="6.81355">
        <ele>557.2</ele>
        <time>2021-08-09T17:53:47Z</time>
      </trkpt>
      <trkpt lat="47.73014" lon="6.8135">
        <ele>557.2</ele>
        <time>2021-08-09T17:53:48Z</time>
      </trkpt>
      <trkpt lat="47.73015" lon="6.81347">
        <ele>557.2</ele>
        <time>2021-08-09T17:53:49Z</time>
      </trkpt>
      <trkpt lat="47.73015" lon="6.81342">
        <ele>557.2</ele>
        <time>2021-08-09T17:53:51Z</time>
      </trkpt>
      <trkpt lat="47.73014" lon="6.81337">
        <ele>557.1</ele>
        <time>2021-08-09T17:53:52Z</time>
      </trkpt>
      <trkpt lat="47.73014" lon="6.81335">
        <ele>557.1</ele>
        <time>2021-08-09T17:53:53Z</time>
      </trkpt>
      <trkpt lat="47.73013" lon="6.81329">
        <ele>557.1</ele>
        <time>2021-08-09T17:53:54Z</time>
      </trkpt>
      <trkpt lat="47.73013" lon="6.81328">
        <ele>557.1</ele>
        <time>2021-08-09T17:53:55Z</time>
      </trkpt>
      <trkpt lat="47.73012" lon="6.81323">
        <ele>557</ele>
        <time>2021-08-09T17:53:56Z</time>
      </trkpt>
      <trkpt lat="47.73013" lon="6.81318">
        <ele>557</ele>
        <time>2021-08-09T17:53:57Z</time>
      </trkpt>
      <trkpt lat="47.73016" lon="6.81314">
        <ele>557</ele>
        <time>2021-08-09T17:53:58Z</time>
      </trkpt>
      <trkpt lat="47.73018" lon="6.8131">
        <ele>556.9</ele>
        <time>2021-08-09T17:53:59Z</time>
      </trkpt>
      <trkpt lat="47.7302" lon="6.81304">
        <ele>556.9</ele>
        <time>2021-08-09T17:54:01Z</time>
      </trkpt>
      <trkpt lat="47.73022" lon="6.81299">
        <ele>556.8</ele>
        <time>2021-08-09T17:54:02Z</time>
      </trkpt>
      <trkpt lat="47.73023" lon="6.81291">
        <ele>556.6</ele>
        <time>2021-08-09T17:54:04Z</time>
      </trkpt>
      <trkpt lat="47.73024" lon="6.81289">
        <ele>556.5</ele>
        <time>2021-08-09T17:54:05Z</time>
      </trkpt>
      <trkpt lat="47.73025" lon="6.81288">
        <ele>556.5</ele>
        <time>2021-08-09T17:54:06Z</time>
      </trkpt>
      <trkpt lat="47.73025" lon="6.81287">
        <ele>556.5</ele>
        <time>2021-08-09T17:54:08Z</time>
      </trkpt>
      <trkpt lat="47.73024" lon="6.81286">
        <ele>556.5</ele>
        <time>2021-08-09T17:54:10Z</time>
      </trkpt>
      <trkpt lat="47.73024" lon="6.81286">
        <ele>556.5</ele>
        <time>2021-08-09T17:54:11Z</time>
      </trkpt>
      <trkpt lat="47.73024" lon="6.81286">
        <ele>556.4</ele>
        <time>2021-08-09T17:54:12Z</time>
      </trkpt>
      <trkpt lat="47.73024" lon="6.81286">
        <ele>556.4</ele>
        <time>2021-08-09T17:54:14Z</time>
      </trkpt>
      <trkpt lat="47.73023" lon="6.81286">
        <ele>556.4</ele>
        <time>2021-08-09T17:54:16Z</time>
      </trkpt>
      <trkpt lat="47.73029" lon="6.81055">
        <ele>546.4</ele>
        <time>2021-08-10T06:50:47Z</time>
      </trkpt>
      <trkpt lat="47.73029" lon="6.81055">
        <ele>546.4</ele>
        <time>2021-08-10T06:50:47Z</time>
      </trkpt>
      <trkpt lat="47.73027" lon="6.8105">
        <ele>546.1</ele>
        <time>2021-08-10T06:50:48Z</time>
      </trkpt>
      <trkpt lat="47.73026" lon="6.81044">
        <ele>545.9</ele>
        <time>2021-08-10T06:50:49Z</time>
      </trkpt>
      <trkpt lat="47.73007" lon="6.81072">
        <ele>544.3</ele>
        <time>2021-08-10T06:50:51Z</time>
      </trkpt>
      <trkpt lat="47.73007" lon="6.81073">
        <ele>544.3</ele>
        <time>2021-08-10T06:50:52Z</time>
      </trkpt>
      <trkpt lat="47.73003" lon="6.81078">
        <ele>544</ele>
        <time>2021-08-10T06:50:54Z</time>
      </trkpt>
      <trkpt lat="47.72996" lon="6.81088">
        <ele>543.4</ele>
        <time>2021-08-10T06:50:56Z</time>
      </trkpt>
      <trkpt lat="47.7299" lon="6.81106">
        <ele>542.7</ele>
        <time>2021-08-10T06:50:57Z</time>
      </trkpt>
      <trkpt lat="47.72982" lon="6.81119">
        <ele>542.1</ele>
        <time>2021-08-10T06:50:58Z</time>
      </trkpt>
      <trkpt lat="47.72975" lon="6.81129">
        <ele>541.7</ele>
        <time>2021-08-10T06:51:00Z</time>
      </trkpt>
      <trkpt lat="47.72971" lon="6.81134">
        <ele>541.4</ele>
        <time>2021-08-10T06:51:01Z</time>
      </trkpt>
      <trkpt lat="47.72967" lon="6.81144">
        <ele>541.1</ele>
        <time>2021-08-10T06:51:03Z</time>
      </trkpt>
      <trkpt lat="47.72965" lon="6.81151">
        <ele>540.9</ele>
        <time>2021-08-10T06:51:04Z</time>
      </trkpt>
      <trkpt lat="47.72965" lon="6.81153">
        <ele>540.8</ele>
        <time>2021-08-10T06:51:05Z</time>
      </trkpt>
      <trkpt lat="47.72963" lon="6.81163">
        <ele>540.5</ele>
        <time>2021-08-10T06:51:07Z</time>
      </trkpt>
      <trkpt lat="47.72962" lon="6.81168">
        <ele>540.4</ele>
        <time>2021-08-10T06:51:08Z</time>
      </trkpt>
      <trkpt lat="47.7296" lon="6.81175">
        <ele>540.1</ele>
        <time>2021-08-10T06:51:09Z</time>
      </trkpt>
      <trkpt lat="47.7296" lon="6.81185">
        <ele>539.7</ele>
        <time>2021-08-10T06:51:11Z</time>
      </trkpt>
      <trkpt lat="47.72961" lon="6.81207">
        <ele>538.9</ele>
        <time>2021-08-10T06:51:12Z</time>
      </trkpt>
      <trkpt lat="47.72964" lon="6.81238">
        <ele>537.7</ele>
        <time>2021-08-10T06:51:14Z</time>
      </trkpt>
      <trkpt lat="47.72966" lon="6.81251">
        <ele>537.3</ele>
        <time>2021-08-10T06:51:15Z</time>
      </trkpt>
      <trkpt lat="47.72967" lon="6.81274">
        <ele>536.4</ele>
        <time>2021-08-10T06:51:17Z</time>
      </trkpt>
      <trkpt lat="47.72964" lon="6.81295">
        <ele>535.6</ele>
        <time>2021-08-10T06:51:19Z</time>
      </trkpt>
      <trkpt lat="47.72964" lon="6.81304">
        <ele>535.3</ele>
        <time>2021-08-10T06:51:20Z</time>
      </trkpt>
      <trkpt lat="47.72963" lon="6.81313">
        <ele>535</ele>
        <time>2021-08-10T06:51:21Z</time>
      </trkpt>
      <trkpt lat="47.72961" lon="6.81322">
        <ele>534.7</ele>
        <time>2021-08-10T06:51:22Z</time>
      </trkpt>
      <trkpt lat="47.72959" lon="6.81331">
        <ele>534.3</ele>
        <time>2021-08-10T06:51:23Z</time>
      </trkpt>
      <trkpt lat="47.72959" lon="6.81351">
        <ele>533.6</ele>
        <time>2021-08-10T06:51:25Z</time>
      </trkpt>
      <trkpt lat="47.72961" lon="6.81361">
        <ele>533.3</ele>
        <time>2021-08-10T06:51:26Z</time>
      </trkpt>
      <trkpt lat="47.72961" lon="6.8137">
        <ele>533</ele>
        <time>2021-08-10T06:51:27Z</time>
      </trkpt>
      <trkpt lat="47.72959" lon="6.81388">
        <ele>532.4</ele>
        <time>2021-08-10T06:51:29Z</time>
      </trkpt>
      <trkpt lat="47.72955" lon="6.81405">
        <ele>531.7</ele>
        <time>2021-08-10T06:51:31Z</time>
      </trkpt>
      <trkpt lat="47.72949" lon="6.81421">
        <ele>531.1</ele>
        <time>2021-08-10T06:51:33Z</time>
      </trkpt>
      <trkpt lat="47.72945" lon="6.8143">
        <ele>530.7</ele>
        <time>2021-08-10T06:51:34Z</time>
      </trkpt>
      <trkpt lat="47.72938" lon="6.81448">
        <ele>530</ele>
        <time>2021-08-10T06:51:36Z</time>
      </trkpt>
      <trkpt lat="47.72933" lon="6.81464">
        <ele>529.4</ele>
        <time>2021-08-10T06:51:38Z</time>
      </trkpt>
      <trkpt lat="47.7293" lon="6.81472">
        <ele>529.1</ele>
        <time>2021-08-10T06:51:39Z</time>
      </trkpt>
      <trkpt lat="47.72924" lon="6.81486">
        <ele>528.4</ele>
        <time>2021-08-10T06:51:41Z</time>
      </trkpt>
      <trkpt lat="47.72912" lon="6.81486">
        <ele>527.8</ele>
        <time>2021-08-10T06:51:43Z</time>
      </trkpt>
      <trkpt lat="47.72902" lon="6.81485">
        <ele>527.4</ele>
        <time>2021-08-10T06:51:44Z</time>
      </trkpt>
      <trkpt lat="47.7289" lon="6.81483">
        <ele>526.9</ele>
        <time>2021-08-10T06:51:46Z</time>
      </trkpt>
      <trkpt lat="47.72885" lon="6.81482">
        <ele>526.5</ele>
        <time>2021-08-10T06:51:47Z</time>
      </trkpt>
      <trkpt lat="47.72882" lon="6.8148">
        <ele>526.3</ele>
        <time>2021-08-10T06:51:48Z</time>
      </trkpt>
      <trkpt lat="47.7288" lon="6.81477">
        <ele>526.1</ele>
        <time>2021-08-10T06:51:50Z</time>
      </trkpt>
      <trkpt lat="47.72879" lon="6.8147">
        <ele>525.5</ele>
        <time>2021-08-10T06:51:52Z</time>
      </trkpt>
      <trkpt lat="47.72879" lon="6.81465">
        <ele>525.3</ele>
        <time>2021-08-10T06:51:53Z</time>
      </trkpt>
      <trkpt lat="47.72878" lon="6.81453">
        <ele>524.9</ele>
        <time>2021-08-10T06:51:55Z</time>
      </trkpt>
      <trkpt lat="47.72878" lon="6.8145">
        <ele>524.8</ele>
        <time>2021-08-10T06:51:57Z</time>
      </trkpt>
      <trkpt lat="47.72878" lon="6.81448">
        <ele>524.8</ele>
        <time>2021-08-10T06:51:58Z</time>
      </trkpt>
      <trkpt lat="47.72878" lon="6.81386">
        <ele>523</ele>
        <time>2021-08-10T06:52:09Z</time>
      </trkpt>
      <trkpt lat="47.72877" lon="6.81379">
        <ele>522.7</ele>
        <time>2021-08-10T06:52:10Z</time>
      </trkpt>
      <trkpt lat="47.72874" lon="6.81368">
        <ele>522.4</ele>
        <time>2021-08-10T06:52:12Z</time>
      </trkpt>
      <trkpt lat="47.72865" lon="6.81362">
        <ele>521.9</ele>
        <time>2021-08-10T06:52:14Z</time>
      </trkpt>
      <trkpt lat="47.72861" lon="6.81359">
        <ele>521.8</ele>
        <time>2021-08-10T06:52:15Z</time>
      </trkpt>
      <trkpt lat="47.72855" lon="6.81348">
        <ele>521.3</ele>
        <time>2021-08-10T06:52:17Z</time>
      </trkpt>
      <trkpt lat="47.72854" lon="6.81343">
        <ele>521.2</ele>
        <time>2021-08-10T06:52:18Z</time>
      </trkpt>
      <trkpt lat="47.72852" lon="6.81338">
        <ele>521</ele>
        <time>2021-08-10T06:52:19Z</time>
      </trkpt>
      <trkpt lat="47.72851" lon="6.81332">
        <ele>520.8</ele>
        <time>2021-08-10T06:52:20Z</time>
      </trkpt>
      <trkpt lat="47.72849" lon="6.81326">
        <ele>520.6</ele>
        <time>2021-08-10T06:52:21Z</time>
      </trkpt>
      <trkpt lat="47.72845" lon="6.8131">
        <ele>520.1</ele>
        <time>2021-08-10T06:52:23Z</time>
      </trkpt>
      <trkpt lat="47.72841" lon="6.81295">
        <ele>519.6</ele>
        <time>2021-08-10T06:52:25Z</time>
      </trkpt>
      <trkpt lat="47.72837" lon="6.81282">
        <ele>519.1</ele>
        <time>2021-08-10T06:52:27Z</time>
      </trkpt>
      <trkpt lat="47.72833" lon="6.81268">
        <ele>518.6</ele>
        <time>2021-08-10T06:52:29Z</time>
      </trkpt>
      <trkpt lat="47.72829" lon="6.81255">
        <ele>518.2</ele>
        <time>2021-08-10T06:52:31Z</time>
      </trkpt>
      <trkpt lat="47.72827" lon="6.81249">
        <ele>518.1</ele>
        <time>2021-08-10T06:52:32Z</time>
      </trkpt>
      <trkpt lat="47.72825" lon="6.81245">
        <ele>517.9</ele>
        <time>2021-08-10T06:52:33Z</time>
      </trkpt>
      <trkpt lat="47.72819" lon="6.81236">
        <ele>517.6</ele>
        <time>2021-08-10T06:52:35Z</time>
      </trkpt>
      <trkpt lat="47.72816" lon="6.81225">
        <ele>516.5</ele>
        <time>2021-08-10T06:52:37Z</time>
      </trkpt>
      <trkpt lat="47.72815" lon="6.8122">
        <ele>515.3</ele>
        <time>2021-08-10T06:52:38Z</time>
      </trkpt>
      <trkpt lat="47.72814" lon="6.81215">
        <ele>514.4</ele>
        <time>2021-08-10T06:52:39Z</time>
      </trkpt>
      <trkpt lat="47.72813" lon="6.81208">
        <ele>512.9</ele>
        <time>2021-08-10T06:52:40Z</time>
      </trkpt>
      <trkpt lat="47.72812" lon="6.81193">
        <ele>510.8</ele>
        <time>2021-08-10T06:52:42Z</time>
      </trkpt>
      <trkpt lat="47.72812" lon="6.81187">
        <ele>509.8</ele>
        <time>2021-08-10T06:52:43Z</time>
      </trkpt>
      <trkpt lat="47.72811" lon="6.8118">
        <ele>508.1</ele>
        <time>2021-08-10T06:52:44Z</time>
      </trkpt>
      <trkpt lat="47.72807" lon="6.81167">
        <ele>505.8</ele>
        <time>2021-08-10T06:52:46Z</time>
      </trkpt>
      <trkpt lat="47.72805" lon="6.81156">
        <ele>503.9</ele>
        <time>2021-08-10T06:52:48Z</time>
      </trkpt>
      <trkpt lat="47.72804" lon="6.81144">
        <ele>502.5</ele>
        <time>2021-08-10T06:52:50Z</time>
      </trkpt>
      <trkpt lat="47.72804" lon="6.81139">
        <ele>501.2</ele>
        <time>2021-08-10T06:52:51Z</time>
      </trkpt>
      <trkpt lat="47.72803" lon="6.81126">
        <ele>499.5</ele>
        <time>2021-08-10T06:52:53Z</time>
      </trkpt>
      <trkpt lat="47.72802" lon="6.8112">
        <ele>498.5</ele>
        <time>2021-08-10T06:52:54Z</time>
      </trkpt>
      <trkpt lat="47.728" lon="6.81107">
        <ele>496.6</ele>
        <time>2021-08-10T06:52:56Z</time>
      </trkpt>
      <trkpt lat="47.72797" lon="6.81094">
        <ele>494.8</ele>
        <time>2021-08-10T06:52:58Z</time>
      </trkpt>
      <trkpt lat="47.72792" lon="6.81083">
        <ele>493.6</ele>
        <time>2021-08-10T06:53:00Z</time>
      </trkpt>
      <trkpt lat="47.72791" lon="6.81077">
        <ele>492.8</ele>
        <time>2021-08-10T06:53:01Z</time>
      </trkpt>
      <trkpt lat="47.72791" lon="6.81062">
        <ele>491.2</ele>
        <time>2021-08-10T06:53:03Z</time>
      </trkpt>
      <trkpt lat="47.72788" lon="6.81046">
        <ele>489.3</ele>
        <time>2021-08-10T06:53:05Z</time>
      </trkpt>
      <trkpt lat="47.72785" lon="6.81038">
        <ele>488.3</ele>
        <time>2021-08-10T06:53:06Z</time>
      </trkpt>
      <trkpt lat="47.72783" lon="6.8103">
        <ele>487.3</ele>
        <time>2021-08-10T06:53:07Z</time>
      </trkpt>
      <trkpt lat="47.72782" lon="6.81021">
        <ele>486.1</ele>
        <time>2021-08-10T06:53:08Z</time>
      </trkpt>
      <trkpt lat="47.72781" lon="6.81006">
        <ele>483.9</ele>
        <time>2021-08-10T06:53:10Z</time>
      </trkpt>
      <trkpt lat="47.7278" lon="6.8099">
        <ele>482.2</ele>
        <time>2021-08-10T06:53:12Z</time>
      </trkpt>
      <trkpt lat="47.72779" lon="6.80983">
        <ele>480.9</ele>
        <time>2021-08-10T06:53:13Z</time>
      </trkpt>
      <trkpt lat="47.72774" lon="6.80968">
        <ele>479.4</ele>
        <time>2021-08-10T06:53:15Z</time>
      </trkpt>
      <trkpt lat="47.72772" lon="6.80961">
        <ele>479</ele>
        <time>2021-08-10T06:53:16Z</time>
      </trkpt>
      <trkpt lat="47.72769" lon="6.80953">
        <ele>478.1</ele>
        <time>2021-08-10T06:53:17Z</time>
      </trkpt>
      <trkpt lat="47.72765" lon="6.80938">
        <ele>476.1</ele>
        <time>2021-08-10T06:53:19Z</time>
      </trkpt>
      <trkpt lat="47.72762" lon="6.80922">
        <ele>474.6</ele>
        <time>2021-08-10T06:53:21Z</time>
      </trkpt>
      <trkpt lat="47.72757" lon="6.80906">
        <ele>472.4</ele>
        <time>2021-08-10T06:53:23Z</time>
      </trkpt>
      <trkpt lat="47.72756" lon="6.809">
        <ele>471.4</ele>
        <time>2021-08-10T06:53:24Z</time>
      </trkpt>
      <trkpt lat="47.72755" lon="6.80894">
        <ele>470.2</ele>
        <time>2021-08-10T06:53:25Z</time>
      </trkpt>
      <trkpt lat="47.72633" lon="6.80982">
        <ele>508.9</ele>
        <time>2021-08-10T06:54:06Z</time>
      </trkpt>
      <trkpt lat="47.72626" lon="6.81021">
        <ele>509.4</ele>
        <time>2021-08-10T06:54:07Z</time>
      </trkpt>
      <trkpt lat="47.72621" lon="6.81059">
        <ele>508.2</ele>
        <time>2021-08-10T06:54:09Z</time>
      </trkpt>
      <trkpt lat="47.72615" lon="6.811">
        <ele>506.4</ele>
        <time>2021-08-10T06:54:10Z</time>
      </trkpt>
      <trkpt lat="47.72611" lon="6.81134">
        <ele>504.1</ele>
        <time>2021-08-10T06:54:11Z</time>
      </trkpt>
      <trkpt lat="47.72594" lon="6.81244">
        <ele>495.7</ele>
        <time>2021-08-10T06:54:13Z</time>
      </trkpt>
      <trkpt lat="47.72591" lon="6.81258">
        <ele>494.5</ele>
        <time>2021-08-10T06:54:15Z</time>
      </trkpt>
      <trkpt lat="47.72588" lon="6.81275">
        <ele>493.1</ele>
        <time>2021-08-10T06:54:17Z</time>
      </trkpt>
      <trkpt lat="47.72585" lon="6.81289">
        <ele>491.8</ele>
        <time>2021-08-10T06:54:19Z</time>
      </trkpt>
      <trkpt lat="47.72585" lon="6.81296">
        <ele>490.9</ele>
        <time>2021-08-10T06:54:20Z</time>
      </trkpt>
      <trkpt lat="47.72581" lon="6.81303">
        <ele>489.2</ele>
        <time>2021-08-10T06:54:21Z</time>
      </trkpt>
      <trkpt lat="47.7258" lon="6.81309">
        <ele>488.4</ele>
        <time>2021-08-10T06:54:22Z</time>
      </trkpt>
      <trkpt lat="47.72579" lon="6.81315">
        <ele>487.7</ele>
        <time>2021-08-10T06:54:23Z</time>
      </trkpt>
      <trkpt lat="47.72578" lon="6.81321">
        <ele>486.2</ele>
        <time>2021-08-10T06:54:24Z</time>
      </trkpt>
      <trkpt lat="47.72574" lon="6.81323">
        <ele>485.5</ele>
        <time>2021-08-10T06:54:26Z</time>
      </trkpt>
      <trkpt lat="47.72572" lon="6.81321">
        <ele>484.8</ele>
        <time>2021-08-10T06:54:27Z</time>
      </trkpt>
      <trkpt lat="47.72568" lon="6.8132">
        <ele>484.6</ele>
        <time>2021-08-10T06:54:28Z</time>
      </trkpt>
      <trkpt lat="47.72564" lon="6.81316">
        <ele>484.8</ele>
        <time>2021-08-10T06:54:29Z</time>
      </trkpt>
      <trkpt lat="47.72551" lon="6.81281">
        <ele>486.6</ele>
        <time>2021-08-10T06:54:31Z</time>
      </trkpt>
      <trkpt lat="47.7255" lon="6.81279">
        <ele>486.6</ele>
        <time>2021-08-10T06:54:33Z</time>
      </trkpt>
      <trkpt lat="47.72551" lon="6.81282">
        <ele>486.5</ele>
        <time>2021-08-10T06:54:34Z</time>
      </trkpt>
      <trkpt lat="47.72555" lon="6.81289">
        <ele>486.1</ele>
        <time>2021-08-10T06:54:36Z</time>
      </trkpt>
      <trkpt lat="47.72556" lon="6.81293">
        <ele>485.9</ele>
        <time>2021-08-10T06:54:38Z</time>
      </trkpt>
      <trkpt lat="47.72559" lon="6.813">
        <ele>485.6</ele>
        <time>2021-08-10T06:54:40Z</time>
      </trkpt>
      <trkpt lat="47.72561" lon="6.81306">
        <ele>485.3</ele>
        <time>2021-08-10T06:54:41Z</time>
      </trkpt>
      <trkpt lat="47.72563" lon="6.81317">
        <ele>484.8</ele>
        <time>2021-08-10T06:54:43Z</time>
      </trkpt>
      <trkpt lat="47.72565" lon="6.81324">
        <ele>484.5</ele>
        <time>2021-08-10T06:54:44Z</time>
      </trkpt>
      <trkpt lat="47.7257" lon="6.81339">
        <ele>483.9</ele>
        <time>2021-08-10T06:54:46Z</time>
      </trkpt>
      <trkpt lat="47.72572" lon="6.81347">
        <ele>483.7</ele>
        <time>2021-08-10T06:54:47Z</time>
      </trkpt>
      <trkpt lat="47.72578" lon="6.81361">
        <ele>483.2</ele>
        <time>2021-08-10T06:54:49Z</time>
      </trkpt>
      <trkpt lat="47.72581" lon="6.81368">
        <ele>482.9</ele>
        <time>2021-08-10T06:54:50Z</time>
      </trkpt>
      <trkpt lat="47.72584" lon="6.81374">
        <ele>482.7</ele>
        <time>2021-08-10T06:54:51Z</time>
      </trkpt>
      <trkpt lat="47.72589" lon="6.81386">
        <ele>482.3</ele>
        <time>2021-08-10T06:54:53Z</time>
      </trkpt>
      <trkpt lat="47.72593" lon="6.81397">
        <ele>482</ele>
        <time>2021-08-10T06:54:55Z</time>
      </trkpt>
      <trkpt lat="47.72595" lon="6.81402">
        <ele>481.8</ele>
        <time>2021-08-10T06:54:56Z</time>
      </trkpt>
      <trkpt lat="47.72599" lon="6.81414">
        <ele>481.5</ele>
        <time>2021-08-10T06:54:58Z</time>
      </trkpt>
      <trkpt lat="47.72601" lon="6.8142">
        <ele>481.3</ele>
        <time>2021-08-10T06:54:59Z</time>
      </trkpt>
      <trkpt lat="47.72606" lon="6.81434">
        <ele>480.9</ele>
        <time>2021-08-10T06:55:01Z</time>
      </trkpt>
      <trkpt lat="47.72613" lon="6.81445">
        <ele>480.6</ele>
        <time>2021-08-10T06:55:03Z</time>
      </trkpt>
      <trkpt lat="47.72616" lon="6.8145">
        <ele>480.4</ele>
        <time>2021-08-10T06:55:04Z</time>
      </trkpt>
      <trkpt lat="47.72623" lon="6.81462">
        <ele>480</ele>
        <time>2021-08-10T06:55:06Z</time>
      </trkpt>
      <trkpt lat="47.72625" lon="6.81469">
        <ele>479.8</ele>
        <time>2021-08-10T06:55:07Z</time>
      </trkpt>
      <trkpt lat="47.72631" lon="6.81482">
        <ele>479.3</ele>
        <time>2021-08-10T06:55:09Z</time>
      </trkpt>
      <trkpt lat="47.72637" lon="6.81496">
        <ele>478.9</ele>
        <time>2021-08-10T06:55:11Z</time>
      </trkpt>
      <trkpt lat="47.72641" lon="6.81504">
        <ele>478.6</ele>
        <time>2021-08-10T06:55:12Z</time>
      </trkpt>
      <trkpt lat="47.72648" lon="6.81518">
        <ele>478.1</ele>
        <time>2021-08-10T06:55:14Z</time>
      </trkpt>
      <trkpt lat="47.72652" lon="6.81525">
        <ele>477.9</ele>
        <time>2021-08-10T06:55:15Z</time>
      </trkpt>
      <trkpt lat="47.72659" lon="6.8154">
        <ele>477.5</ele>
        <time>2021-08-10T06:55:17Z</time>
      </trkpt>
      <trkpt lat="47.72662" lon="6.81548">
        <ele>477.3</ele>
        <time>2021-08-10T06:55:18Z</time>
      </trkpt>
      <trkpt lat="47.72666" lon="6.81557">
        <ele>477.1</ele>
        <time>2021-08-10T06:55:19Z</time>
      </trkpt>
      <trkpt lat="47.7267" lon="6.81564">
        <ele>476.9</ele>
        <time>2021-08-10T06:55:20Z</time>
      </trkpt>
      <trkpt lat="47.72677" lon="6.81577">
        <ele>476.6</ele>
        <time>2021-08-10T06:55:22Z</time>
      </trkpt>
      <trkpt lat="47.72683" lon="6.81588">
        <ele>476.4</ele>
        <time>2021-08-10T06:55:24Z</time>
      </trkpt>
      <trkpt lat="47.72685" lon="6.81594">
        <ele>476.2</ele>
        <time>2021-08-10T06:55:25Z</time>
      </trkpt>
      <trkpt lat="47.72687" lon="6.81599">
        <ele>476.1</ele>
        <time>2021-08-10T06:55:26Z</time>
      </trkpt>
      <trkpt lat="47.7269" lon="6.81614">
        <ele>475.8</ele>
        <time>2021-08-10T06:55:28Z</time>
      </trkpt>
      <trkpt lat="47.72689" lon="6.81631">
        <ele>475.4</ele>
        <time>2021-08-10T06:55:30Z</time>
      </trkpt>
      <trkpt lat="47.72687" lon="6.81639">
        <ele>475.3</ele>
        <time>2021-08-10T06:55:31Z</time>
      </trkpt>
      <trkpt lat="47.72681" lon="6.81653">
        <ele>474.9</ele>
        <time>2021-08-10T06:55:33Z</time>
      </trkpt>
      <trkpt lat="47.72677" lon="6.8166">
        <ele>474.7</ele>
        <time>2021-08-10T06:55:34Z</time>
      </trkpt>
      <trkpt lat="47.72672" lon="6.81664">
        <ele>474.5</ele>
        <time>2021-08-10T06:55:35Z</time>
      </trkpt>
      <trkpt lat="47.72657" lon="6.8167">
        <ele>473.9</ele>
        <time>2021-08-10T06:55:37Z</time>
      </trkpt>
      <trkpt lat="47.72653" lon="6.81671">
        <ele>473.8</ele>
        <time>2021-08-10T06:55:38Z</time>
      </trkpt>
      <trkpt lat="47.72644" lon="6.81671">
        <ele>473.3</ele>
        <time>2021-08-10T06:55:40Z</time>
      </trkpt>
      <trkpt lat="47.7264" lon="6.81671">
        <ele>473.1</ele>
        <time>2021-08-10T06:55:41Z</time>
      </trkpt>
      <trkpt lat="47.72633" lon="6.81671">
        <ele>472.8</ele>
        <time>2021-08-10T06:55:42Z</time>
      </trkpt>
      <trkpt lat="47.72626" lon="6.8167">
        <ele>472.4</ele>
        <time>2021-08-10T06:55:43Z</time>
      </trkpt>
      <trkpt lat="47.72616" lon="6.81669">
        <ele>471.9</ele>
        <time>2021-08-10T06:55:45Z</time>
      </trkpt>
      <trkpt lat="47.72608" lon="6.81671">
        <ele>471.4</ele>
        <time>2021-08-10T06:55:47Z</time>
      </trkpt>
      <trkpt lat="47.72601" lon="6.81673">
        <ele>470.9</ele>
        <time>2021-08-10T06:55:49Z</time>
      </trkpt>
      <trkpt lat="47.7259" lon="6.81675">
        <ele>470.2</ele>
        <time>2021-08-10T06:55:51Z</time>
      </trkpt>
      <trkpt lat="47.72579" lon="6.81676">
        <ele>469.5</ele>
        <time>2021-08-10T06:55:53Z</time>
      </trkpt>
      <trkpt lat="47.72573" lon="6.81678">
        <ele>469.1</ele>
        <time>2021-08-10T06:55:54Z</time>
      </trkpt>
      <trkpt lat="47.72569" lon="6.81679">
        <ele>468.8</ele>
        <time>2021-08-10T06:55:55Z</time>
      </trkpt>
      <trkpt lat="47.7249" lon="6.81696">
        <ele>463.9</ele>
        <time>2021-08-10T06:56:07Z</time>
      </trkpt>
      <trkpt lat="47.7247" lon="6.81704">
        <ele>462.6</ele>
        <time>2021-08-10T06:56:09Z</time>
      </trkpt>
      <trkpt lat="47.72457" lon="6.81709">
        <ele>461.8</ele>
        <time>2021-08-10T06:56:10Z</time>
      </trkpt>
      <trkpt lat="47.72438" lon="6.81716">
        <ele>460.6</ele>
        <time>2021-08-10T06:56:12Z</time>
      </trkpt>
      <trkpt lat="47.7243" lon="6.81718">
        <ele>460.2</ele>
        <time>2021-08-10T06:56:13Z</time>
      </trkpt>
      <trkpt lat="47.72422" lon="6.81722">
        <ele>459.7</ele>
        <time>2021-08-10T06:56:14Z</time>
      </trkpt>
      <trkpt lat="47.72414" lon="6.81724">
        <ele>459.3</ele>
        <time>2021-08-10T06:56:15Z</time>
      </trkpt>
      <trkpt lat="47.72398" lon="6.81718">
        <ele>458.5</ele>
        <time>2021-08-10T06:56:17Z</time>
      </trkpt>
      <trkpt lat="47.72387" lon="6.8171">
        <ele>457.9</ele>
        <time>2021-08-10T06:56:19Z</time>
      </trkpt>
      <trkpt lat="47.72383" lon="6.81706">
        <ele>457.7</ele>
        <time>2021-08-10T06:56:20Z</time>
      </trkpt>
      <trkpt lat="47.72379" lon="6.81704">
        <ele>457.5</ele>
        <time>2021-08-10T06:56:21Z</time>
      </trkpt>
      <trkpt lat="47.72371" lon="6.81699">
        <ele>457.4</ele>
        <time>2021-08-10T06:56:23Z</time>
      </trkpt>
      <trkpt lat="47.72366" lon="6.81702">
        <ele>457.6</ele>
        <time>2021-08-10T06:56:25Z</time>
      </trkpt>
      <trkpt lat="47.72363" lon="6.81703">
        <ele>457.7</ele>
        <time>2021-08-10T06:56:26Z</time>
      </trkpt>
      <trkpt lat="47.7236" lon="6.81704">
        <ele>457.8</ele>
        <time>2021-08-10T06:56:28Z</time>
      </trkpt>
      <trkpt lat="47.72378" lon="6.81701">
        <ele>458.4</ele>
        <time>2021-08-10T06:56:35Z</time>
      </trkpt>
      <trkpt lat="47.72385" lon="6.81701">
        <ele>458.7</ele>
        <time>2021-08-10T06:56:37Z</time>
      </trkpt>
      <trkpt lat="47.72387" lon="6.81703">
        <ele>458.8</ele>
        <time>2021-08-10T06:56:38Z</time>
      </trkpt>
      <trkpt lat="47.72396" lon="6.81704">
        <ele>459.1</ele>
        <time>2021-08-10T06:56:40Z</time>
      </trkpt>
      <trkpt lat="47.72403" lon="6.81703">
        <ele>459.4</ele>
        <time>2021-08-10T06:56:41Z</time>
      </trkpt>
      <trkpt lat="47.72411" lon="6.81702">
        <ele>459.7</ele>
        <time>2021-08-10T06:56:42Z</time>
      </trkpt>
      <trkpt lat="47.7242" lon="6.81698">
        <ele>460.1</ele>
        <time>2021-08-10T06:56:43Z</time>
      </trkpt>
      <trkpt lat="47.72439" lon="6.81688">
        <ele>461</ele>
        <time>2021-08-10T06:56:45Z</time>
      </trkpt>
      <trkpt lat="47.72446" lon="6.81683">
        <ele>461.3</ele>
        <time>2021-08-10T06:56:46Z</time>
      </trkpt>
      <trkpt lat="47.72452" lon="6.81677">
        <ele>461.7</ele>
        <time>2021-08-10T06:56:47Z</time>
      </trkpt>
      <trkpt lat="47.72459" lon="6.81668">
        <ele>462.3</ele>
        <time>2021-08-10T06:56:49Z</time>
      </trkpt>
      <trkpt lat="47.72462" lon="6.81664">
        <ele>462.5</ele>
        <time>2021-08-10T06:56:50Z</time>
      </trkpt>
      <trkpt lat="47.72468" lon="6.81658">
        <ele>463.1</ele>
        <time>2021-08-10T06:56:52Z</time>
      </trkpt>
      <trkpt lat="47.72471" lon="6.81653">
        <ele>463.5</ele>
        <time>2021-08-10T06:56:53Z</time>
      </trkpt>
      <trkpt lat="47.72472" lon="6.81641">
        <ele>463.5</ele>
        <time>2021-08-10T06:56:55Z</time>
      </trkpt>
      <trkpt lat="47.72472" lon="6.81637">
        <ele>463.3</ele>
        <time>2021-08-10T06:56:56Z</time>
      </trkpt>
      <trkpt lat="47.72472" lon="6.81627">
        <ele>462.9</ele>
        <time>2021-08-10T06:56:58Z</time>
      </trkpt>
      <trkpt lat="47.72473" lon="6.81622">
        <ele>462.8</ele>
        <time>2021-08-10T06:56:59Z</time>
      </trkpt>
      <trkpt lat="47.72474" lon="6.8162">
        <ele>462.8</ele>
        <time>2021-08-10T06:57:00Z</time>
      </trkpt>
      <trkpt lat="47.72474" lon="6.81614">
        <ele>462.6</ele>
        <time>2021-08-10T06:57:02Z</time>
      </trkpt>
      <trkpt lat="47.72473" lon="6.81609">
        <ele>462.5</ele>
        <time>2021-08-10T06:57:03Z</time>
      </trkpt>
      <trkpt lat="47.72476" lon="6.81601">
        <ele>463.1</ele>
        <time>2021-08-10T06:57:04Z</time>
      </trkpt>
      <trkpt lat="47.72477" lon="6.81597">
        <ele>463</ele>
        <time>2021-08-10T06:57:05Z</time>
      </trkpt>
      <trkpt lat="47.72478" lon="6.81589">
        <ele>463</ele>
        <time>2021-08-10T06:57:07Z</time>
      </trkpt>
      <trkpt lat="47.72477" lon="6.81584">
        <ele>463</ele>
        <time>2021-08-10T06:57:08Z</time>
      </trkpt>
      <trkpt lat="47.72476" lon="6.81583">
        <ele>462.9</ele>
        <time>2021-08-10T06:57:09Z</time>
      </trkpt>
      <trkpt lat="47.72475" lon="6.81578">
        <ele>462.9</ele>
        <time>2021-08-10T06:57:10Z</time>
      </trkpt>
      <trkpt lat="47.72465" lon="6.81558">
        <ele>460.8</ele>
        <time>2021-08-10T06:57:12Z</time>
      </trkpt>
      <trkpt lat="47.72444" lon="6.81518">
        <ele>457.9</ele>
        <time>2021-08-10T06:57:14Z</time>
      </trkpt>
      <trkpt lat="47.72443" lon="6.81514">
        <ele>457.4</ele>
        <time>2021-08-10T06:57:15Z</time>
      </trkpt>
      <trkpt lat="47.72436" lon="6.81505">
        <ele>456.7</ele>
        <time>2021-08-10T06:57:17Z</time>
      </trkpt>
      <trkpt lat="47.7243" lon="6.81499">
        <ele>456.4</ele>
        <time>2021-08-10T06:57:18Z</time>
      </trkpt>
      <trkpt lat="47.72427" lon="6.81497">
        <ele>455.7</ele>
        <time>2021-08-10T06:57:19Z</time>
      </trkpt>
      <trkpt lat="47.72422" lon="6.81495">
        <ele>454.9</ele>
        <time>2021-08-10T06:57:21Z</time>
      </trkpt>
      <trkpt lat="47.7242" lon="6.81494">
        <ele>454.9</ele>
        <time>2021-08-10T06:57:22Z</time>
      </trkpt>
      <trkpt lat="47.72417" lon="6.81493">
        <ele>454.1</ele>
        <time>2021-08-10T06:57:23Z</time>
      </trkpt>
      <trkpt lat="47.72407" lon="6.81487">
        <ele>452.2</ele>
        <time>2021-08-10T06:57:24Z</time>
      </trkpt>
      <trkpt lat="47.72367" lon="6.81475">
        <ele>448</ele>
        <time>2021-08-10T06:57:26Z</time>
      </trkpt>
      <trkpt lat="47.72361" lon="6.81475">
        <ele>447.1</ele>
        <time>2021-08-10T06:57:27Z</time>
      </trkpt>
      <trkpt lat="47.7234" lon="6.81473">
        <ele>444.6</ele>
        <time>2021-08-10T06:57:29Z</time>
      </trkpt>
      <trkpt lat="47.72318" lon="6.81472">
        <ele>441.4</ele>
        <time>2021-08-10T06:57:31Z</time>
      </trkpt>
      <trkpt lat="47.72307" lon="6.81471">
        <ele>440.4</ele>
        <time>2021-08-10T06:57:32Z</time>
      </trkpt>
      <trkpt lat="47.72293" lon="6.81472">
        <ele>439.5</ele>
        <time>2021-08-10T06:57:34Z</time>
      </trkpt>
      <trkpt lat="47.72288" lon="6.81473">
        <ele>439.1</ele>
        <time>2021-08-10T06:57:36Z</time>
      </trkpt>
      <trkpt lat="47.72288" lon="6.81471">
        <ele>439.1</ele>
        <time>2021-08-10T06:57:37Z</time>
      </trkpt>
      <trkpt lat="47.72289" lon="6.8147">
        <ele>439.1</ele>
        <time>2021-08-10T06:57:38Z</time>
      </trkpt>
      <trkpt lat="47.72289" lon="6.81467">
        <ele>439.2</ele>
        <time>2021-08-10T06:57:40Z</time>
      </trkpt>
      <trkpt lat="47.72287" lon="6.81461">
        <ele>439.1</ele>
        <time>2021-08-10T06:57:41Z</time>
      </trkpt>
      <trkpt lat="47.72283" lon="6.81456">
        <ele>438.9</ele>
        <time>2021-08-10T06:57:42Z</time>
      </trkpt>
      <trkpt lat="47.7228" lon="6.8145">
        <ele>438.5</ele>
        <time>2021-08-10T06:57:43Z</time>
      </trkpt>
      <trkpt lat="47.72271" lon="6.81441">
        <ele>437.5</ele>
        <time>2021-08-10T06:57:45Z</time>
      </trkpt>
      <trkpt lat="47.7226" lon="6.81434">
        <ele>436.3</ele>
        <time>2021-08-10T06:57:47Z</time>
      </trkpt>
      <trkpt lat="47.72247" lon="6.81434">
        <ele>435.5</ele>
        <time>2021-08-10T06:57:49Z</time>
      </trkpt>
      <trkpt lat="47.72238" lon="6.81437">
        <ele>434.8</ele>
        <time>2021-08-10T06:57:50Z</time>
      </trkpt>
      <trkpt lat="47.72221" lon="6.81443">
        <ele>434.5</ele>
        <time>2021-08-10T06:57:52Z</time>
      </trkpt>
      <trkpt lat="47.72213" lon="6.81445">
        <ele>434.3</ele>
        <time>2021-08-10T06:57:53Z</time>
      </trkpt>
      <trkpt lat="47.72196" lon="6.81451">
        <ele>434.1</ele>
        <time>2021-08-10T06:57:55Z</time>
      </trkpt>
      <trkpt lat="47.72189" lon="6.81453">
        <ele>434</ele>
        <time>2021-08-10T06:57:56Z</time>
      </trkpt>
      <trkpt lat="47.72177" lon="6.81457">
        <ele>433.9</ele>
        <time>2021-08-10T06:57:58Z</time>
      </trkpt>
      <trkpt lat="47.72166" lon="6.8146">
        <ele>433.7</ele>
        <time>2021-08-10T06:58:00Z</time>
      </trkpt>
      <trkpt lat="47.72155" lon="6.81467">
        <ele>433.6</ele>
        <time>2021-08-10T06:58:02Z</time>
      </trkpt>
      <trkpt lat="47.72142" lon="6.81473">
        <ele>433.5</ele>
        <time>2021-08-10T06:58:04Z</time>
      </trkpt>
      <trkpt lat="47.72134" lon="6.81476">
        <ele>433.4</ele>
        <time>2021-08-10T06:58:05Z</time>
      </trkpt>
      <trkpt lat="47.72128" lon="6.81479">
        <ele>433.4</ele>
        <time>2021-08-10T06:58:06Z</time>
      </trkpt>
      <trkpt lat="47.72122" lon="6.81481">
        <ele>433.4</ele>
        <time>2021-08-10T06:58:07Z</time>
      </trkpt>
      <trkpt lat="47.72116" lon="6.81483">
        <ele>433.3</ele>
        <time>2021-08-10T06:58:08Z</time>
      </trkpt>
      <trkpt lat="47.72104" lon="6.81486">
        <ele>433.3</ele>
        <time>2021-08-10T06:58:10Z</time>
      </trkpt>
      <trkpt lat="47.72099" lon="6.81487">
        <ele>433.3</ele>
        <time>2021-08-10T06:58:11Z</time>
      </trkpt>
      <trkpt lat="47.72094" lon="6.81489">
        <ele>433.2</ele>
        <time>2021-08-10T06:58:12Z</time>
      </trkpt>
      <trkpt lat="47.72085" lon="6.81491">
        <ele>433.2</ele>
        <time>2021-08-10T06:58:14Z</time>
      </trkpt>
      <trkpt lat="47.7208" lon="6.81493">
        <ele>433.2</ele>
        <time>2021-08-10T06:58:15Z</time>
      </trkpt>
      <trkpt lat="47.72069" lon="6.81498">
        <ele>433.1</ele>
        <time>2021-08-10T06:58:17Z</time>
      </trkpt>
      <trkpt lat="47.72059" lon="6.81502">
        <ele>433</ele>
        <time>2021-08-10T06:58:19Z</time>
      </trkpt>
      <trkpt lat="47.72055" lon="6.81503">
        <ele>433</ele>
        <time>2021-08-10T06:58:20Z</time>
      </trkpt>
      <trkpt lat="47.72048" lon="6.81504">
        <ele>432.9</ele>
        <time>2021-08-10T06:58:21Z</time>
      </trkpt>
      <trkpt lat="47.72043" lon="6.81501">
        <ele>432.9</ele>
        <time>2021-08-10T06:58:23Z</time>
      </trkpt>
      <trkpt lat="47.72039" lon="6.81505">
        <ele>432.9</ele>
        <time>2021-08-10T06:58:24Z</time>
      </trkpt>
      <trkpt lat="47.7203" lon="6.81509">
        <ele>432.9</ele>
        <time>2021-08-10T06:58:26Z</time>
      </trkpt>
      <trkpt lat="47.72022" lon="6.81513">
        <ele>432.8</ele>
        <time>2021-08-10T06:58:28Z</time>
      </trkpt>
      <trkpt lat="47.72019" lon="6.81513">
        <ele>432.8</ele>
        <time>2021-08-10T06:58:29Z</time>
      </trkpt>
      <trkpt lat="47.72014" lon="6.81513">
        <ele>432.8</ele>
        <time>2021-08-10T06:58:30Z</time>
      </trkpt>
      <trkpt lat="47.72009" lon="6.81513">
        <ele>432.8</ele>
        <time>2021-08-10T06:58:31Z</time>
      </trkpt>
      <trkpt lat="47.72002" lon="6.81514">
        <ele>432.8</ele>
        <time>2021-08-10T06:58:33Z</time>
      </trkpt>
      <trkpt lat="47.71998" lon="6.81516">
        <ele>432.8</ele>
        <time>2021-08-10T06:58:34Z</time>
      </trkpt>
      <trkpt lat="47.71988" lon="6.81517">
        <ele>432.8</ele>
        <time>2021-08-10T06:58:36Z</time>
      </trkpt>
      <trkpt lat="47.71984" lon="6.81519">
        <ele>432.8</ele>
        <time>2021-08-10T06:58:37Z</time>
      </trkpt>
      <trkpt lat="47.71981" lon="6.81519">
        <ele>432.8</ele>
        <time>2021-08-10T06:58:38Z</time>
      </trkpt>
      <trkpt lat="47.71977" lon="6.81519">
        <ele>432.7</ele>
        <time>2021-08-10T06:58:39Z</time>
      </trkpt>
      <trkpt lat="47.71972" lon="6.81521">
        <ele>432.7</ele>
        <time>2021-08-10T06:58:40Z</time>
      </trkpt>
      <trkpt lat="47.71968" lon="6.81522">
        <ele>432.7</ele>
        <time>2021-08-10T06:58:41Z</time>
      </trkpt>
      <trkpt lat="47.71962" lon="6.81524">
        <ele>432.6</ele>
        <time>2021-08-10T06:58:42Z</time>
      </trkpt>
      <trkpt lat="47.71958" lon="6.81525">
        <ele>432.6</ele>
        <time>2021-08-10T06:58:44Z</time>
      </trkpt>
      <trkpt lat="47.71953" lon="6.81525">
        <ele>432.6</ele>
        <time>2021-08-10T06:58:45Z</time>
      </trkpt>
      <trkpt lat="47.71947" lon="6.81525">
        <ele>432.6</ele>
        <time>2021-08-10T06:58:46Z</time>
      </trkpt>
      <trkpt lat="47.71943" lon="6.81526">
        <ele>432.6</ele>
        <time>2021-08-10T06:58:47Z</time>
      </trkpt>
      <trkpt lat="47.71939" lon="6.81528">
        <ele>432.6</ele>
        <time>2021-08-10T06:58:48Z</time>
      </trkpt>
      <trkpt lat="47.71934" lon="6.81529">
        <ele>432.6</ele>
        <time>2021-08-10T06:58:50Z</time>
      </trkpt>
      <trkpt lat="47.7193" lon="6.8153">
        <ele>432.6</ele>
        <time>2021-08-10T06:58:51Z</time>
      </trkpt>
      <trkpt lat="47.71923" lon="6.81529">
        <ele>432.5</ele>
        <time>2021-08-10T06:58:52Z</time>
      </trkpt>
      <trkpt lat="47.71918" lon="6.81529">
        <ele>432.5</ele>
        <time>2021-08-10T06:58:54Z</time>
      </trkpt>
      <trkpt lat="47.71912" lon="6.81532">
        <ele>432.4</ele>
        <time>2021-08-10T06:58:55Z</time>
      </trkpt>
      <trkpt lat="47.71906" lon="6.81534">
        <ele>432.4</ele>
        <time>2021-08-10T06:58:56Z</time>
      </trkpt>
      <trkpt lat="47.71901" lon="6.81535">
        <ele>432.4</ele>
        <time>2021-08-10T06:58:58Z</time>
      </trkpt>
      <trkpt lat="47.71895" lon="6.81537">
        <ele>432.3</ele>
        <time>2021-08-10T06:58:59Z</time>
      </trkpt>
      <trkpt lat="47.71888" lon="6.8154">
        <ele>432.3</ele>
        <time>2021-08-10T06:59:01Z</time>
      </trkpt>
      <trkpt lat="47.71879" lon="6.81543">
        <ele>432.2</ele>
        <time>2021-08-10T06:59:03Z</time>
      </trkpt>
      <trkpt lat="47.71873" lon="6.81546">
        <ele>432.1</ele>
        <time>2021-08-10T06:59:04Z</time>
      </trkpt>
      <trkpt lat="47.71867" lon="6.8155">
        <ele>432</ele>
        <time>2021-08-10T06:59:06Z</time>
      </trkpt>
      <trkpt lat="47.71861" lon="6.81554">
        <ele>431.9</ele>
        <time>2021-08-10T06:59:07Z</time>
      </trkpt>
      <trkpt lat="47.71856" lon="6.81558">
        <ele>431.9</ele>
        <time>2021-08-10T06:59:08Z</time>
      </trkpt>
      <trkpt lat="47.7185" lon="6.81563">
        <ele>431.8</ele>
        <time>2021-08-10T06:59:10Z</time>
      </trkpt>
      <trkpt lat="47.71846" lon="6.81566">
        <ele>431.8</ele>
        <time>2021-08-10T06:59:11Z</time>
      </trkpt>
      <trkpt lat="47.7184" lon="6.8157">
        <ele>431.7</ele>
        <time>2021-08-10T06:59:12Z</time>
      </trkpt>
      <trkpt lat="47.71831" lon="6.81578">
        <ele>431.6</ele>
        <time>2021-08-10T06:59:14Z</time>
      </trkpt>
      <trkpt lat="47.71826" lon="6.81581">
        <ele>431.6</ele>
        <time>2021-08-10T06:59:15Z</time>
      </trkpt>
      <trkpt lat="47.7182" lon="6.81587">
        <ele>431.5</ele>
        <time>2021-08-10T06:59:16Z</time>
      </trkpt>
      <trkpt lat="47.71816" lon="6.81591">
        <ele>431.5</ele>
        <time>2021-08-10T06:59:18Z</time>
      </trkpt>
      <trkpt lat="47.71809" lon="6.81597">
        <ele>431.5</ele>
        <time>2021-08-10T06:59:19Z</time>
      </trkpt>
      <trkpt lat="47.71804" lon="6.81601">
        <ele>431.5</ele>
        <time>2021-08-10T06:59:21Z</time>
      </trkpt>
      <trkpt lat="47.71798" lon="6.81606">
        <ele>431.5</ele>
        <time>2021-08-10T06:59:22Z</time>
      </trkpt>
      <trkpt lat="47.71794" lon="6.81609">
        <ele>431.5</ele>
        <time>2021-08-10T06:59:23Z</time>
      </trkpt>
      <trkpt lat="47.71793" lon="6.81612">
        <ele>431.5</ele>
        <time>2021-08-10T06:59:24Z</time>
      </trkpt>
      <trkpt lat="47.71788" lon="6.81616">
        <ele>431.5</ele>
        <time>2021-08-10T06:59:26Z</time>
      </trkpt>
      <trkpt lat="47.7178" lon="6.81621">
        <ele>431.4</ele>
        <time>2021-08-10T06:59:27Z</time>
      </trkpt>
      <trkpt lat="47.71774" lon="6.81625">
        <ele>431.4</ele>
        <time>2021-08-10T06:59:29Z</time>
      </trkpt>
      <trkpt lat="47.71769" lon="6.8163">
        <ele>431.4</ele>
        <time>2021-08-10T06:59:30Z</time>
      </trkpt>
      <trkpt lat="47.71765" lon="6.81635">
        <ele>431.4</ele>
        <time>2021-08-10T06:59:31Z</time>
      </trkpt>
      <trkpt lat="47.7176" lon="6.81641">
        <ele>431.3</ele>
        <time>2021-08-10T06:59:32Z</time>
      </trkpt>
      <trkpt lat="47.71756" lon="6.81645">
        <ele>431.3</ele>
        <time>2021-08-10T06:59:34Z</time>
      </trkpt>
      <trkpt lat="47.71749" lon="6.81649">
        <ele>431.2</ele>
        <time>2021-08-10T06:59:35Z</time>
      </trkpt>
      <trkpt lat="47.71745" lon="6.81653">
        <ele>431.2</ele>
        <time>2021-08-10T06:59:37Z</time>
      </trkpt>
      <trkpt lat="47.71741" lon="6.81656">
        <ele>431.1</ele>
        <time>2021-08-10T06:59:38Z</time>
      </trkpt>
      <trkpt lat="47.71736" lon="6.81661">
        <ele>431.1</ele>
        <time>2021-08-10T06:59:39Z</time>
      </trkpt>
      <trkpt lat="47.7173" lon="6.81666">
        <ele>431</ele>
        <time>2021-08-10T06:59:41Z</time>
      </trkpt>
      <trkpt lat="47.71727" lon="6.8167">
        <ele>431</ele>
        <time>2021-08-10T06:59:42Z</time>
      </trkpt>
      <trkpt lat="47.7172" lon="6.81677">
        <ele>430.9</ele>
        <time>2021-08-10T06:59:44Z</time>
      </trkpt>
      <trkpt lat="47.71716" lon="6.8168">
        <ele>430.9</ele>
        <time>2021-08-10T06:59:45Z</time>
      </trkpt>
      <trkpt lat="47.71712" lon="6.81683">
        <ele>430.8</ele>
        <time>2021-08-10T06:59:46Z</time>
      </trkpt>
      <trkpt lat="47.71709" lon="6.81687">
        <ele>430.8</ele>
        <time>2021-08-10T06:59:47Z</time>
      </trkpt>
      <trkpt lat="47.71705" lon="6.81692">
        <ele>430.7</ele>
        <time>2021-08-10T06:59:48Z</time>
      </trkpt>
      <trkpt lat="47.717" lon="6.81697">
        <ele>430.7</ele>
        <time>2021-08-10T06:59:49Z</time>
      </trkpt>
      <trkpt lat="47.71697" lon="6.81703">
        <ele>430.6</ele>
        <time>2021-08-10T06:59:51Z</time>
      </trkpt>
      <trkpt lat="47.71694" lon="6.81707">
        <ele>430.6</ele>
        <time>2021-08-10T06:59:52Z</time>
      </trkpt>
      <trkpt lat="47.71689" lon="6.8171">
        <ele>430.5</ele>
        <time>2021-08-10T06:59:53Z</time>
      </trkpt>
      <trkpt lat="47.71684" lon="6.81715">
        <ele>430.5</ele>
        <time>2021-08-10T06:59:54Z</time>
      </trkpt>
      <trkpt lat="47.71679" lon="6.8172">
        <ele>430.4</ele>
        <time>2021-08-10T06:59:55Z</time>
      </trkpt>
      <trkpt lat="47.71672" lon="6.81726">
        <ele>430.4</ele>
        <time>2021-08-10T06:59:57Z</time>
      </trkpt>
      <trkpt lat="47.71665" lon="6.81733">
        <ele>430.4</ele>
        <time>2021-08-10T06:59:58Z</time>
      </trkpt>
      <trkpt lat="47.71662" lon="6.81738">
        <ele>430.4</ele>
        <time>2021-08-10T07:00:00Z</time>
      </trkpt>
      <trkpt lat="47.71655" lon="6.81744">
        <ele>430.3</ele>
        <time>2021-08-10T07:00:01Z</time>
      </trkpt>
      <trkpt lat="47.71649" lon="6.81748">
        <ele>430.3</ele>
        <time>2021-08-10T07:00:03Z</time>
      </trkpt>
      <trkpt lat="47.71641" lon="6.81756">
        <ele>430.2</ele>
        <time>2021-08-10T07:00:05Z</time>
      </trkpt>
      <trkpt lat="47.71638" lon="6.81758">
        <ele>430.2</ele>
        <time>2021-08-10T07:00:06Z</time>
      </trkpt>
      <trkpt lat="47.71634" lon="6.81761">
        <ele>430.2</ele>
        <time>2021-08-10T07:00:07Z</time>
      </trkpt>
      <trkpt lat="47.71628" lon="6.81763">
        <ele>430.1</ele>
        <time>2021-08-10T07:00:09Z</time>
      </trkpt>
      <trkpt lat="47.71621" lon="6.81765">
        <ele>430.1</ele>
        <time>2021-08-10T07:00:10Z</time>
      </trkpt>
      <trkpt lat="47.71614" lon="6.81766">
        <ele>430</ele>
        <time>2021-08-10T07:00:12Z</time>
      </trkpt>
      <trkpt lat="47.71607" lon="6.81764">
        <ele>429.9</ele>
        <time>2021-08-10T07:00:13Z</time>
      </trkpt>
      <trkpt lat="47.71599" lon="6.81764">
        <ele>429.8</ele>
        <time>2021-08-10T07:00:15Z</time>
      </trkpt>
      <trkpt lat="47.7159" lon="6.81765">
        <ele>429.7</ele>
        <time>2021-08-10T07:00:18Z</time>
      </trkpt>
      <trkpt lat="47.71584" lon="6.81764">
        <ele>429.7</ele>
        <time>2021-08-10T07:00:20Z</time>
      </trkpt>
      <trkpt lat="47.71581" lon="6.81763">
        <ele>429.6</ele>
        <time>2021-08-10T07:00:21Z</time>
      </trkpt>
      <trkpt lat="47.71577" lon="6.81761">
        <ele>429.6</ele>
        <time>2021-08-10T07:00:22Z</time>
      </trkpt>
      <trkpt lat="47.71575" lon="6.81759">
        <ele>429.5</ele>
        <time>2021-08-10T07:00:24Z</time>
      </trkpt>
      <trkpt lat="47.71573" lon="6.81758">
        <ele>429.5</ele>
        <time>2021-08-10T07:00:25Z</time>
      </trkpt>
      <trkpt lat="47.71568" lon="6.81754">
        <ele>429.5</ele>
        <time>2021-08-10T07:00:27Z</time>
      </trkpt>
      <trkpt lat="47.71564" lon="6.81751">
        <ele>429.4</ele>
        <time>2021-08-10T07:00:29Z</time>
      </trkpt>
      <trkpt lat="47.71563" lon="6.8175">
        <ele>429.4</ele>
        <time>2021-08-10T07:00:30Z</time>
      </trkpt>
      <trkpt lat="47.71561" lon="6.81751">
        <ele>429.4</ele>
        <time>2021-08-10T07:00:32Z</time>
      </trkpt>
      <trkpt lat="47.71559" lon="6.81751">
        <ele>429.4</ele>
        <time>2021-08-10T07:00:33Z</time>
      </trkpt>
      <trkpt lat="47.71555" lon="6.81753">
        <ele>429.3</ele>
        <time>2021-08-10T07:00:35Z</time>
      </trkpt>
      <trkpt lat="47.71552" lon="6.81755">
        <ele>429.3</ele>
        <time>2021-08-10T07:00:36Z</time>
      </trkpt>
      <trkpt lat="47.71551" lon="6.81755">
        <ele>429.3</ele>
        <time>2021-08-10T07:00:37Z</time>
      </trkpt>
      <trkpt lat="47.71548" lon="6.81757">
        <ele>429.2</ele>
        <time>2021-08-10T07:00:38Z</time>
      </trkpt>
      <trkpt lat="47.71544" lon="6.81758">
        <ele>429.2</ele>
        <time>2021-08-10T07:00:40Z</time>
      </trkpt>
      <trkpt lat="47.71537" lon="6.81761">
        <ele>429.1</ele>
        <time>2021-08-10T07:00:42Z</time>
      </trkpt>
      <trkpt lat="47.71535" lon="6.81759">
        <ele>429.1</ele>
        <time>2021-08-10T07:00:43Z</time>
      </trkpt>
      <trkpt lat="47.7153" lon="6.81761">
        <ele>429</ele>
        <time>2021-08-10T07:00:45Z</time>
      </trkpt>
      <trkpt lat="47.71523" lon="6.81764">
        <ele>428.9</ele>
        <time>2021-08-10T07:00:47Z</time>
      </trkpt>
      <trkpt lat="47.71517" lon="6.81765">
        <ele>428.8</ele>
        <time>2021-08-10T07:00:49Z</time>
      </trkpt>
      <trkpt lat="47.71514" lon="6.81766">
        <ele>428.8</ele>
        <time>2021-08-10T07:00:50Z</time>
      </trkpt>
      <trkpt lat="47.71506" lon="6.81767">
        <ele>428.7</ele>
        <time>2021-08-10T07:00:52Z</time>
      </trkpt>
      <trkpt lat="47.71502" lon="6.81768">
        <ele>428.6</ele>
        <time>2021-08-10T07:00:53Z</time>
      </trkpt>
      <trkpt lat="47.71494" lon="6.81768">
        <ele>428.6</ele>
        <time>2021-08-10T07:00:55Z</time>
      </trkpt>
      <trkpt lat="47.71489" lon="6.81766">
        <ele>428.5</ele>
        <time>2021-08-10T07:00:56Z</time>
      </trkpt>
      <trkpt lat="47.7148" lon="6.81763">
        <ele>428.4</ele>
        <time>2021-08-10T07:00:58Z</time>
      </trkpt>
      <trkpt lat="47.71473" lon="6.81761">
        <ele>428.4</ele>
        <time>2021-08-10T07:01:00Z</time>
      </trkpt>
      <trkpt lat="47.7147" lon="6.81761">
        <ele>428.3</ele>
        <time>2021-08-10T07:01:01Z</time>
      </trkpt>
      <trkpt lat="47.71462" lon="6.81762">
        <ele>428.3</ele>
        <time>2021-08-10T07:01:02Z</time>
      </trkpt>
      <trkpt lat="47.71458" lon="6.81762">
        <ele>428.2</ele>
        <time>2021-08-10T07:01:04Z</time>
      </trkpt>
      <trkpt lat="47.71454" lon="6.81764">
        <ele>428.1</ele>
        <time>2021-08-10T07:01:05Z</time>
      </trkpt>
      <trkpt lat="47.71451" lon="6.81765">
        <ele>428.1</ele>
        <time>2021-08-10T07:01:06Z</time>
      </trkpt>
      <trkpt lat="47.71444" lon="6.81768">
        <ele>428</ele>
        <time>2021-08-10T07:01:08Z</time>
      </trkpt>
      <trkpt lat="47.71437" lon="6.81769">
        <ele>427.9</ele>
        <time>2021-08-10T07:01:10Z</time>
      </trkpt>
      <trkpt lat="47.71429" lon="6.8177">
        <ele>427.7</ele>
        <time>2021-08-10T07:01:12Z</time>
      </trkpt>
      <trkpt lat="47.71422" lon="6.8177">
        <ele>427.6</ele>
        <time>2021-08-10T07:01:14Z</time>
      </trkpt>
      <trkpt lat="47.71415" lon="6.81771">
        <ele>427.4</ele>
        <time>2021-08-10T07:01:16Z</time>
      </trkpt>
      <trkpt lat="47.71412" lon="6.81772">
        <ele>427.3</ele>
        <time>2021-08-10T07:01:17Z</time>
      </trkpt>
      <trkpt lat="47.71405" lon="6.81774">
        <ele>427.1</ele>
        <time>2021-08-10T07:01:18Z</time>
      </trkpt>
      <trkpt lat="47.714" lon="6.81774">
        <ele>427</ele>
        <time>2021-08-10T07:01:20Z</time>
      </trkpt>
      <trkpt lat="47.71394" lon="6.81774">
        <ele>426.8</ele>
        <time>2021-08-10T07:01:21Z</time>
      </trkpt>
      <trkpt lat="47.71389" lon="6.81776">
        <ele>426.7</ele>
        <time>2021-08-10T07:01:22Z</time>
      </trkpt>
      <trkpt lat="47.71382" lon="6.81776">
        <ele>426.5</ele>
        <time>2021-08-10T07:01:24Z</time>
      </trkpt>
      <trkpt lat="47.71379" lon="6.81776">
        <ele>426.4</ele>
        <time>2021-08-10T07:01:25Z</time>
      </trkpt>
      <trkpt lat="47.71377" lon="6.81774">
        <ele>426.3</ele>
        <time>2021-08-10T07:01:26Z</time>
      </trkpt>
      <trkpt lat="47.71372" lon="6.81773">
        <ele>426.1</ele>
        <time>2021-08-10T07:01:27Z</time>
      </trkpt>
      <trkpt lat="47.71366" lon="6.8177">
        <ele>425.9</ele>
        <time>2021-08-10T07:01:29Z</time>
      </trkpt>
      <trkpt lat="47.7136" lon="6.81766">
        <ele>425.7</ele>
        <time>2021-08-10T07:01:30Z</time>
      </trkpt>
      <trkpt lat="47.71356" lon="6.81764">
        <ele>425.6</ele>
        <time>2021-08-10T07:01:31Z</time>
      </trkpt>
      <trkpt lat="47.71351" lon="6.81762">
        <ele>425.5</ele>
        <time>2021-08-10T07:01:32Z</time>
      </trkpt>
      <trkpt lat="47.71347" lon="6.81759">
        <ele>425.4</ele>
        <time>2021-08-10T07:01:33Z</time>
      </trkpt>
      <trkpt lat="47.71342" lon="6.81757">
        <ele>425.2</ele>
        <time>2021-08-10T07:01:34Z</time>
      </trkpt>
      <trkpt lat="47.71336" lon="6.81755">
        <ele>425.1</ele>
        <time>2021-08-10T07:01:36Z</time>
      </trkpt>
      <trkpt lat="47.71327" lon="6.81751">
        <ele>424.8</ele>
        <time>2021-08-10T07:01:38Z</time>
      </trkpt>
      <trkpt lat="47.71322" lon="6.81748">
        <ele>424.7</ele>
        <time>2021-08-10T07:01:39Z</time>
      </trkpt>
      <trkpt lat="47.71312" lon="6.81745">
        <ele>424.5</ele>
        <time>2021-08-10T07:01:41Z</time>
      </trkpt>
      <trkpt lat="47.71308" lon="6.81742">
        <ele>424.4</ele>
        <time>2021-08-10T07:01:42Z</time>
      </trkpt>
      <trkpt lat="47.71299" lon="6.81739">
        <ele>424.3</ele>
        <time>2021-08-10T07:01:44Z</time>
      </trkpt>
      <trkpt lat="47.71295" lon="6.81737">
        <ele>424.3</ele>
        <time>2021-08-10T07:01:45Z</time>
      </trkpt>
      <trkpt lat="47.71287" lon="6.81731">
        <ele>424.2</ele>
        <time>2021-08-10T07:01:47Z</time>
      </trkpt>
      <trkpt lat="47.71282" lon="6.81728">
        <ele>424.3</ele>
        <time>2021-08-10T07:01:48Z</time>
      </trkpt>
      <trkpt lat="47.7128" lon="6.81727">
        <ele>424.3</ele>
        <time>2021-08-10T07:01:49Z</time>
      </trkpt>
      <trkpt lat="47.7127" lon="6.81727">
        <ele>424.3</ele>
        <time>2021-08-10T07:01:51Z</time>
      </trkpt>
      <trkpt lat="47.71266" lon="6.81728">
        <ele>424.3</ele>
        <time>2021-08-10T07:01:52Z</time>
      </trkpt>
      <trkpt lat="47.71261" lon="6.8173">
        <ele>424.3</ele>
        <time>2021-08-10T07:01:53Z</time>
      </trkpt>
      <trkpt lat="47.71251" lon="6.81735">
        <ele>424.3</ele>
        <time>2021-08-10T07:01:55Z</time>
      </trkpt>
      <trkpt lat="47.71247" lon="6.81738">
        <ele>424.3</ele>
        <time>2021-08-10T07:01:56Z</time>
      </trkpt>
      <trkpt lat="47.71244" lon="6.81744">
        <ele>424.3</ele>
        <time>2021-08-10T07:01:57Z</time>
      </trkpt>
      <trkpt lat="47.71239" lon="6.81749">
        <ele>424.2</ele>
        <time>2021-08-10T07:01:59Z</time>
      </trkpt>
      <trkpt lat="47.71235" lon="6.81751">
        <ele>424.2</ele>
        <time>2021-08-10T07:02:00Z</time>
      </trkpt>
      <trkpt lat="47.71224" lon="6.81753">
        <ele>424.1</ele>
        <time>2021-08-10T07:02:02Z</time>
      </trkpt>
      <trkpt lat="47.71212" lon="6.81757">
        <ele>424</ele>
        <time>2021-08-10T07:02:04Z</time>
      </trkpt>
      <trkpt lat="47.71207" lon="6.8176">
        <ele>423.9</ele>
        <time>2021-08-10T07:02:05Z</time>
      </trkpt>
      <trkpt lat="47.71202" lon="6.81763">
        <ele>423.8</ele>
        <time>2021-08-10T07:02:06Z</time>
      </trkpt>
      <trkpt lat="47.71191" lon="6.81766">
        <ele>423.6</ele>
        <time>2021-08-10T07:02:08Z</time>
      </trkpt>
      <trkpt lat="47.71181" lon="6.81772">
        <ele>423.4</ele>
        <time>2021-08-10T07:02:10Z</time>
      </trkpt>
      <trkpt lat="47.71176" lon="6.81776">
        <ele>423.3</ele>
        <time>2021-08-10T07:02:11Z</time>
      </trkpt>
      <trkpt lat="47.71171" lon="6.81779">
        <ele>423.3</ele>
        <time>2021-08-10T07:02:12Z</time>
      </trkpt>
      <trkpt lat="47.71167" lon="6.81783">
        <ele>423.2</ele>
        <time>2021-08-10T07:02:13Z</time>
      </trkpt>
      <trkpt lat="47.71158" lon="6.8179">
        <ele>423.1</ele>
        <time>2021-08-10T07:02:15Z</time>
      </trkpt>
      <trkpt lat="47.71149" lon="6.81796">
        <ele>423</ele>
        <time>2021-08-10T07:02:17Z</time>
      </trkpt>
      <trkpt lat="47.71143" lon="6.81798">
        <ele>422.9</ele>
        <time>2021-08-10T07:02:19Z</time>
      </trkpt>
      <trkpt lat="47.71136" lon="6.81801">
        <ele>422.8</ele>
        <time>2021-08-10T07:02:21Z</time>
      </trkpt>
      <trkpt lat="47.71134" lon="6.81804">
        <ele>422.7</ele>
        <time>2021-08-10T07:02:22Z</time>
      </trkpt>
      <trkpt lat="47.71133" lon="6.81809">
        <ele>422.6</ele>
        <time>2021-08-10T07:02:23Z</time>
      </trkpt>
      <trkpt lat="47.71131" lon="6.81814">
        <ele>422.5</ele>
        <time>2021-08-10T07:02:24Z</time>
      </trkpt>
      <trkpt lat="47.71129" lon="6.81818">
        <ele>422.5</ele>
        <time>2021-08-10T07:02:26Z</time>
      </trkpt>
      <trkpt lat="47.71123" lon="6.81821">
        <ele>422.3</ele>
        <time>2021-08-10T07:02:28Z</time>
      </trkpt>
      <trkpt lat="47.71121" lon="6.81822">
        <ele>422.2</ele>
        <time>2021-08-10T07:02:29Z</time>
      </trkpt>
      <trkpt lat="47.71118" lon="6.81823">
        <ele>422.2</ele>
        <time>2021-08-10T07:02:30Z</time>
      </trkpt>
      <trkpt lat="47.71114" lon="6.81823">
        <ele>422</ele>
        <time>2021-08-10T07:02:32Z</time>
      </trkpt>
      <trkpt lat="47.71109" lon="6.81827">
        <ele>421.9</ele>
        <time>2021-08-10T07:02:34Z</time>
      </trkpt>
      <trkpt lat="47.71106" lon="6.81828">
        <ele>421.7</ele>
        <time>2021-08-10T07:02:35Z</time>
      </trkpt>
      <trkpt lat="47.71103" lon="6.8183">
        <ele>421.6</ele>
        <time>2021-08-10T07:02:36Z</time>
      </trkpt>
      <trkpt lat="47.71099" lon="6.81832">
        <ele>421.4</ele>
        <time>2021-08-10T07:02:37Z</time>
      </trkpt>
      <trkpt lat="47.71094" lon="6.81838">
        <ele>421.2</ele>
        <time>2021-08-10T07:02:39Z</time>
      </trkpt>
      <trkpt lat="47.71092" lon="6.81842">
        <ele>421</ele>
        <time>2021-08-10T07:02:40Z</time>
      </trkpt>
      <trkpt lat="47.71089" lon="6.81852">
        <ele>420.6</ele>
        <time>2021-08-10T07:02:42Z</time>
      </trkpt>
      <trkpt lat="47.71087" lon="6.81857">
        <ele>420.5</ele>
        <time>2021-08-10T07:02:43Z</time>
      </trkpt>
      <trkpt lat="47.71082" lon="6.81867">
        <ele>420</ele>
        <time>2021-08-10T07:02:45Z</time>
      </trkpt>
      <trkpt lat="47.71078" lon="6.81872">
        <ele>419.7</ele>
        <time>2021-08-10T07:02:46Z</time>
      </trkpt>
      <trkpt lat="47.71074" lon="6.81879">
        <ele>419.4</ele>
        <time>2021-08-10T07:02:47Z</time>
      </trkpt>
      <trkpt lat="47.71071" lon="6.81887">
        <ele>419.1</ele>
        <time>2021-08-10T07:02:48Z</time>
      </trkpt>
      <trkpt lat="47.71066" lon="6.81894">
        <ele>418.9</ele>
        <time>2021-08-10T07:02:49Z</time>
      </trkpt>
      <trkpt lat="47.71062" lon="6.81901">
        <ele>418.6</ele>
        <time>2021-08-10T07:02:50Z</time>
      </trkpt>
      <trkpt lat="47.71059" lon="6.81909">
        <ele>418.4</ele>
        <time>2021-08-10T07:02:51Z</time>
      </trkpt>
      <trkpt lat="47.71049" lon="6.81925">
        <ele>418</ele>
        <time>2021-08-10T07:02:53Z</time>
      </trkpt>
      <trkpt lat="47.71044" lon="6.81933">
        <ele>417.9</ele>
        <time>2021-08-10T07:02:54Z</time>
      </trkpt>
      <trkpt lat="47.71034" lon="6.81947">
        <ele>417.7</ele>
        <time>2021-08-10T07:02:56Z</time>
      </trkpt>
      <trkpt lat="47.71024" lon="6.81961">
        <ele>417.4</ele>
        <time>2021-08-10T07:02:58Z</time>
      </trkpt>
      <trkpt lat="47.71019" lon="6.81968">
        <ele>417.3</ele>
        <time>2021-08-10T07:02:59Z</time>
      </trkpt>
      <trkpt lat="47.71015" lon="6.81974">
        <ele>417.3</ele>
        <time>2021-08-10T07:03:00Z</time>
      </trkpt>
      <trkpt lat="47.7101" lon="6.81981">
        <ele>417.2</ele>
        <time>2021-08-10T07:03:01Z</time>
      </trkpt>
      <trkpt lat="47.71006" lon="6.81987">
        <ele>417.1</ele>
        <time>2021-08-10T07:03:02Z</time>
      </trkpt>
      <trkpt lat="47.71002" lon="6.81993">
        <ele>417.1</ele>
        <time>2021-08-10T07:03:03Z</time>
      </trkpt>
      <trkpt lat="47.70994" lon="6.82004">
        <ele>417</ele>
        <time>2021-08-10T07:03:05Z</time>
      </trkpt>
      <trkpt lat="47.70991" lon="6.82008">
        <ele>417</ele>
        <time>2021-08-10T07:03:06Z</time>
      </trkpt>
      <trkpt lat="47.70987" lon="6.82014">
        <ele>417</ele>
        <time>2021-08-10T07:03:07Z</time>
      </trkpt>
      <trkpt lat="47.70983" lon="6.82018">
        <ele>417</ele>
        <time>2021-08-10T07:03:08Z</time>
      </trkpt>
      <trkpt lat="47.70979" lon="6.82023">
        <ele>417</ele>
        <time>2021-08-10T07:03:09Z</time>
      </trkpt>
      <trkpt lat="47.70969" lon="6.82034">
        <ele>417</ele>
        <time>2021-08-10T07:03:11Z</time>
      </trkpt>
      <trkpt lat="47.70959" lon="6.82045">
        <ele>417</ele>
        <time>2021-08-10T07:03:13Z</time>
      </trkpt>
      <trkpt lat="47.70954" lon="6.8205">
        <ele>417</ele>
        <time>2021-08-10T07:03:14Z</time>
      </trkpt>
      <trkpt lat="47.70945" lon="6.82059">
        <ele>417</ele>
        <time>2021-08-10T07:03:16Z</time>
      </trkpt>
      <trkpt lat="47.70941" lon="6.82062">
        <ele>417</ele>
        <time>2021-08-10T07:03:17Z</time>
      </trkpt>
      <trkpt lat="47.70932" lon="6.82068">
        <ele>417</ele>
        <time>2021-08-10T07:03:19Z</time>
      </trkpt>
      <trkpt lat="47.70923" lon="6.82072">
        <ele>417</ele>
        <time>2021-08-10T07:03:21Z</time>
      </trkpt>
      <trkpt lat="47.70915" lon="6.82076">
        <ele>416.9</ele>
        <time>2021-08-10T07:03:23Z</time>
      </trkpt>
      <trkpt lat="47.70911" lon="6.82077">
        <ele>416.9</ele>
        <time>2021-08-10T07:03:24Z</time>
      </trkpt>
      <trkpt lat="47.70905" lon="6.8208">
        <ele>416.9</ele>
        <time>2021-08-10T07:03:25Z</time>
      </trkpt>
      <trkpt lat="47.709" lon="6.82081">
        <ele>416.9</ele>
        <time>2021-08-10T07:03:26Z</time>
      </trkpt>
      <trkpt lat="47.70891" lon="6.82079">
        <ele>416.9</ele>
        <time>2021-08-10T07:03:28Z</time>
      </trkpt>
      <trkpt lat="47.70887" lon="6.82078">
        <ele>416.9</ele>
        <time>2021-08-10T07:03:29Z</time>
      </trkpt>
      <trkpt lat="47.70882" lon="6.8208">
        <ele>416.9</ele>
        <time>2021-08-10T07:03:30Z</time>
      </trkpt>
      <trkpt lat="47.70875" lon="6.82084">
        <ele>416.9</ele>
        <time>2021-08-10T07:03:32Z</time>
      </trkpt>
      <trkpt lat="47.70872" lon="6.82085">
        <ele>416.9</ele>
        <time>2021-08-10T07:03:33Z</time>
      </trkpt>
      <trkpt lat="47.7087" lon="6.82086">
        <ele>416.9</ele>
        <time>2021-08-10T07:03:34Z</time>
      </trkpt>
      <trkpt lat="47.70865" lon="6.82089">
        <ele>416.9</ele>
        <time>2021-08-10T07:03:35Z</time>
      </trkpt>
      <trkpt lat="47.7086" lon="6.82092">
        <ele>416.9</ele>
        <time>2021-08-10T07:03:36Z</time>
      </trkpt>
      <trkpt lat="47.70855" lon="6.82095">
        <ele>416.9</ele>
        <time>2021-08-10T07:03:37Z</time>
      </trkpt>
      <trkpt lat="47.70851" lon="6.82098">
        <ele>416.8</ele>
        <time>2021-08-10T07:03:39Z</time>
      </trkpt>
      <trkpt lat="47.70847" lon="6.82101">
        <ele>416.8</ele>
        <time>2021-08-10T07:03:40Z</time>
      </trkpt>
      <trkpt lat="47.70843" lon="6.82104">
        <ele>416.8</ele>
        <time>2021-08-10T07:03:41Z</time>
      </trkpt>
      <trkpt lat="47.70839" lon="6.82106">
        <ele>416.8</ele>
        <time>2021-08-10T07:03:42Z</time>
      </trkpt>
      <trkpt lat="47.70835" lon="6.82107">
        <ele>416.7</ele>
        <time>2021-08-10T07:03:43Z</time>
      </trkpt>
      <trkpt lat="47.7083" lon="6.82108">
        <ele>416.7</ele>
        <time>2021-08-10T07:03:44Z</time>
      </trkpt>
      <trkpt lat="47.70822" lon="6.8211">
        <ele>416.7</ele>
        <time>2021-08-10T07:03:46Z</time>
      </trkpt>
      <trkpt lat="47.70817" lon="6.82111">
        <ele>416.6</ele>
        <time>2021-08-10T07:03:47Z</time>
      </trkpt>
      <trkpt lat="47.70813" lon="6.82113">
        <ele>416.6</ele>
        <time>2021-08-10T07:03:48Z</time>
      </trkpt>
      <trkpt lat="47.70803" lon="6.82116">
        <ele>416.6</ele>
        <time>2021-08-10T07:03:50Z</time>
      </trkpt>
      <trkpt lat="47.70793" lon="6.8212">
        <ele>416.5</ele>
        <time>2021-08-10T07:03:52Z</time>
      </trkpt>
      <trkpt lat="47.70788" lon="6.82122">
        <ele>416.5</ele>
        <time>2021-08-10T07:03:53Z</time>
      </trkpt>
      <trkpt lat="47.70783" lon="6.82125">
        <ele>416.5</ele>
        <time>2021-08-10T07:03:54Z</time>
      </trkpt>
      <trkpt lat="47.70779" lon="6.82128">
        <ele>416.5</ele>
        <time>2021-08-10T07:03:55Z</time>
      </trkpt>
      <trkpt lat="47.70774" lon="6.82131">
        <ele>416.4</ele>
        <time>2021-08-10T07:03:56Z</time>
      </trkpt>
      <trkpt lat="47.70764" lon="6.82135">
        <ele>416.4</ele>
        <time>2021-08-10T07:03:58Z</time>
      </trkpt>
      <trkpt lat="47.7076" lon="6.82136">
        <ele>416.4</ele>
        <time>2021-08-10T07:03:59Z</time>
      </trkpt>
      <trkpt lat="47.70755" lon="6.82137">
        <ele>416.3</ele>
        <time>2021-08-10T07:04:00Z</time>
      </trkpt>
      <trkpt lat="47.70745" lon="6.82143">
        <ele>416.3</ele>
        <time>2021-08-10T07:04:02Z</time>
      </trkpt>
      <trkpt lat="47.7074" lon="6.82147">
        <ele>416.3</ele>
        <time>2021-08-10T07:04:03Z</time>
      </trkpt>
      <trkpt lat="47.70731" lon="6.82153">
        <ele>416.2</ele>
        <time>2021-08-10T07:04:05Z</time>
      </trkpt>
      <trkpt lat="47.70726" lon="6.82156">
        <ele>416.2</ele>
        <time>2021-08-10T07:04:06Z</time>
      </trkpt>
      <trkpt lat="47.70718" lon="6.8216">
        <ele>416.1</ele>
        <time>2021-08-10T07:04:08Z</time>
      </trkpt>
      <trkpt lat="47.70709" lon="6.82166">
        <ele>416.1</ele>
        <time>2021-08-10T07:04:10Z</time>
      </trkpt>
      <trkpt lat="47.70699" lon="6.8217">
        <ele>416</ele>
        <time>2021-08-10T07:04:12Z</time>
      </trkpt>
      <trkpt lat="47.70696" lon="6.82171">
        <ele>416</ele>
        <time>2021-08-10T07:04:13Z</time>
      </trkpt>
      <trkpt lat="47.7069" lon="6.82174">
        <ele>416</ele>
        <time>2021-08-10T07:04:15Z</time>
      </trkpt>
      <trkpt lat="47.70681" lon="6.8218">
        <ele>415.9</ele>
        <time>2021-08-10T07:04:17Z</time>
      </trkpt>
      <trkpt lat="47.70674" lon="6.82186">
        <ele>415.9</ele>
        <time>2021-08-10T07:04:19Z</time>
      </trkpt>
      <trkpt lat="47.7067" lon="6.82188">
        <ele>415.9</ele>
        <time>2021-08-10T07:04:20Z</time>
      </trkpt>
      <trkpt lat="47.70665" lon="6.82189">
        <ele>415.8</ele>
        <time>2021-08-10T07:04:21Z</time>
      </trkpt>
      <trkpt lat="47.70657" lon="6.82191">
        <ele>415.7</ele>
        <time>2021-08-10T07:04:23Z</time>
      </trkpt>
      <trkpt lat="47.70653" lon="6.82192">
        <ele>415.7</ele>
        <time>2021-08-10T07:04:24Z</time>
      </trkpt>
      <trkpt lat="47.70649" lon="6.82195">
        <ele>415.6</ele>
        <time>2021-08-10T07:04:25Z</time>
      </trkpt>
      <trkpt lat="47.70642" lon="6.82199">
        <ele>415.5</ele>
        <time>2021-08-10T07:04:27Z</time>
      </trkpt>
      <trkpt lat="47.70638" lon="6.82202">
        <ele>415.5</ele>
        <time>2021-08-10T07:04:28Z</time>
      </trkpt>
      <trkpt lat="47.70629" lon="6.82205">
        <ele>415.4</ele>
        <time>2021-08-10T07:04:30Z</time>
      </trkpt>
      <trkpt lat="47.70621" lon="6.82206">
        <ele>415.3</ele>
        <time>2021-08-10T07:04:32Z</time>
      </trkpt>
      <trkpt lat="47.70618" lon="6.82208">
        <ele>415.2</ele>
        <time>2021-08-10T07:04:33Z</time>
      </trkpt>
      <trkpt lat="47.70614" lon="6.82209">
        <ele>415.2</ele>
        <time>2021-08-10T07:04:34Z</time>
      </trkpt>
      <trkpt lat="47.70606" lon="6.82213">
        <ele>415.1</ele>
        <time>2021-08-10T07:04:36Z</time>
      </trkpt>
      <trkpt lat="47.70602" lon="6.82215">
        <ele>415</ele>
        <time>2021-08-10T07:04:37Z</time>
      </trkpt>
      <trkpt lat="47.70595" lon="6.82218">
        <ele>414.9</ele>
        <time>2021-08-10T07:04:39Z</time>
      </trkpt>
      <trkpt lat="47.70587" lon="6.8222">
        <ele>414.8</ele>
        <time>2021-08-10T07:04:41Z</time>
      </trkpt>
      <trkpt lat="47.70582" lon="6.82219">
        <ele>414.7</ele>
        <time>2021-08-10T07:04:42Z</time>
      </trkpt>
      <trkpt lat="47.70572" lon="6.82218">
        <ele>414.6</ele>
        <time>2021-08-10T07:04:44Z</time>
      </trkpt>
      <trkpt lat="47.70562" lon="6.82218">
        <ele>414.5</ele>
        <time>2021-08-10T07:04:46Z</time>
      </trkpt>
      <trkpt lat="47.70552" lon="6.82215">
        <ele>414.4</ele>
        <time>2021-08-10T07:04:48Z</time>
      </trkpt>
      <trkpt lat="47.70544" lon="6.82213">
        <ele>414.3</ele>
        <time>2021-08-10T07:04:50Z</time>
      </trkpt>
      <trkpt lat="47.7054" lon="6.82212">
        <ele>414.2</ele>
        <time>2021-08-10T07:04:51Z</time>
      </trkpt>
      <trkpt lat="47.70531" lon="6.82211">
        <ele>414.1</ele>
        <time>2021-08-10T07:04:53Z</time>
      </trkpt>
      <trkpt lat="47.70525" lon="6.82211">
        <ele>414.1</ele>
        <time>2021-08-10T07:04:55Z</time>
      </trkpt>
      <trkpt lat="47.70518" lon="6.82211">
        <ele>414</ele>
        <time>2021-08-10T07:04:57Z</time>
      </trkpt>
      <trkpt lat="47.70515" lon="6.82211">
        <ele>413.9</ele>
        <time>2021-08-10T07:04:58Z</time>
      </trkpt>
      <trkpt lat="47.70507" lon="6.82212">
        <ele>413.9</ele>
        <time>2021-08-10T07:05:00Z</time>
      </trkpt>
      <trkpt lat="47.70503" lon="6.82214">
        <ele>413.8</ele>
        <time>2021-08-10T07:05:01Z</time>
      </trkpt>
      <trkpt lat="47.705" lon="6.82217">
        <ele>413.8</ele>
        <time>2021-08-10T07:05:02Z</time>
      </trkpt>
      <trkpt lat="47.70496" lon="6.82221">
        <ele>413.7</ele>
        <time>2021-08-10T07:05:03Z</time>
      </trkpt>
      <trkpt lat="47.70491" lon="6.82225">
        <ele>413.6</ele>
        <time>2021-08-10T07:05:04Z</time>
      </trkpt>
      <trkpt lat="47.70483" lon="6.82233">
        <ele>413.5</ele>
        <time>2021-08-10T07:05:06Z</time>
      </trkpt>
      <trkpt lat="47.70477" lon="6.82238">
        <ele>413.5</ele>
        <time>2021-08-10T07:05:08Z</time>
      </trkpt>
      <trkpt lat="47.70473" lon="6.82241">
        <ele>413.4</ele>
        <time>2021-08-10T07:05:09Z</time>
      </trkpt>
      <trkpt lat="47.70466" lon="6.82247">
        <ele>413.4</ele>
        <time>2021-08-10T07:05:11Z</time>
      </trkpt>
      <trkpt lat="47.70458" lon="6.82255">
        <ele>413.3</ele>
        <time>2021-08-10T07:05:13Z</time>
      </trkpt>
      <trkpt lat="47.70454" lon="6.82258">
        <ele>413.3</ele>
        <time>2021-08-10T07:05:14Z</time>
      </trkpt>
      <trkpt lat="47.70449" lon="6.82261">
        <ele>413.3</ele>
        <time>2021-08-10T07:05:15Z</time>
      </trkpt>
      <trkpt lat="47.70439" lon="6.82268">
        <ele>413.2</ele>
        <time>2021-08-10T07:05:17Z</time>
      </trkpt>
      <trkpt lat="47.7043" lon="6.82277">
        <ele>413.1</ele>
        <time>2021-08-10T07:05:19Z</time>
      </trkpt>
      <trkpt lat="47.70422" lon="6.82284">
        <ele>412.8</ele>
        <time>2021-08-10T07:05:21Z</time>
      </trkpt>
      <trkpt lat="47.70416" lon="6.82287">
        <ele>412.8</ele>
        <time>2021-08-10T07:05:22Z</time>
      </trkpt>
      <trkpt lat="47.70411" lon="6.8229">
        <ele>412.7</ele>
        <time>2021-08-10T07:05:24Z</time>
      </trkpt>
      <trkpt lat="47.70408" lon="6.82289">
        <ele>412.7</ele>
        <time>2021-08-10T07:05:26Z</time>
      </trkpt>
      <trkpt lat="47.70403" lon="6.82292">
        <ele>412.7</ele>
        <time>2021-08-10T07:05:27Z</time>
      </trkpt>
      <trkpt lat="47.704" lon="6.82298">
        <ele>412.7</ele>
        <time>2021-08-10T07:05:28Z</time>
      </trkpt>
      <trkpt lat="47.70396" lon="6.82304">
        <ele>412.6</ele>
        <time>2021-08-10T07:05:29Z</time>
      </trkpt>
      <trkpt lat="47.70391" lon="6.82314">
        <ele>412.6</ele>
        <time>2021-08-10T07:05:30Z</time>
      </trkpt>
      <trkpt lat="47.70383" lon="6.82325">
        <ele>412.5</ele>
        <time>2021-08-10T07:05:32Z</time>
      </trkpt>
      <trkpt lat="47.70378" lon="6.82329">
        <ele>412.5</ele>
        <time>2021-08-10T07:05:33Z</time>
      </trkpt>
      <trkpt lat="47.70374" lon="6.82333">
        <ele>412.5</ele>
        <time>2021-08-10T07:05:34Z</time>
      </trkpt>
      <trkpt lat="47.7037" lon="6.82335">
        <ele>412.5</ele>
        <time>2021-08-10T07:05:35Z</time>
      </trkpt>
      <trkpt lat="47.70366" lon="6.82338">
        <ele>412.4</ele>
        <time>2021-08-10T07:05:36Z</time>
      </trkpt>
      <trkpt lat="47.7036" lon="6.82348">
        <ele>412.4</ele>
        <time>2021-08-10T07:05:38Z</time>
      </trkpt>
      <trkpt lat="47.70358" lon="6.82363">
        <ele>412.3</ele>
        <time>2021-08-10T07:05:40Z</time>
      </trkpt>
      <trkpt lat="47.70355" lon="6.82375">
        <ele>412.3</ele>
        <time>2021-08-10T07:05:42Z</time>
      </trkpt>
      <trkpt lat="47.70351" lon="6.8238">
        <ele>412.2</ele>
        <time>2021-08-10T07:05:43Z</time>
      </trkpt>
      <trkpt lat="47.70344" lon="6.8239">
        <ele>412.1</ele>
        <time>2021-08-10T07:05:45Z</time>
      </trkpt>
      <trkpt lat="47.70339" lon="6.82394">
        <ele>412.1</ele>
        <time>2021-08-10T07:05:46Z</time>
      </trkpt>
      <trkpt lat="47.70331" lon="6.82405">
        <ele>412</ele>
        <time>2021-08-10T07:05:48Z</time>
      </trkpt>
      <trkpt lat="47.70327" lon="6.82408">
        <ele>412</ele>
        <time>2021-08-10T07:05:49Z</time>
      </trkpt>
      <trkpt lat="47.70323" lon="6.82411">
        <ele>412</ele>
        <time>2021-08-10T07:05:50Z</time>
      </trkpt>
      <trkpt lat="47.70319" lon="6.82414">
        <ele>412</ele>
        <time>2021-08-10T07:05:51Z</time>
      </trkpt>
      <trkpt lat="47.70315" lon="6.82417">
        <ele>411.9</ele>
        <time>2021-08-10T07:05:52Z</time>
      </trkpt>
      <trkpt lat="47.70307" lon="6.82423">
        <ele>411.9</ele>
        <time>2021-08-10T07:05:54Z</time>
      </trkpt>
      <trkpt lat="47.70297" lon="6.82427">
        <ele>411.8</ele>
        <time>2021-08-10T07:05:56Z</time>
      </trkpt>
      <trkpt lat="47.70287" lon="6.82431">
        <ele>411.7</ele>
        <time>2021-08-10T07:05:58Z</time>
      </trkpt>
      <trkpt lat="47.70282" lon="6.82434">
        <ele>411.6</ele>
        <time>2021-08-10T07:05:59Z</time>
      </trkpt>
      <trkpt lat="47.70276" lon="6.82438">
        <ele>411.6</ele>
        <time>2021-08-10T07:06:00Z</time>
      </trkpt>
      <trkpt lat="47.70269" lon="6.82444">
        <ele>411.5</ele>
        <time>2021-08-10T07:06:02Z</time>
      </trkpt>
      <trkpt lat="47.70266" lon="6.82445">
        <ele>411.5</ele>
        <time>2021-08-10T07:06:03Z</time>
      </trkpt>
      <trkpt lat="47.70261" lon="6.82449">
        <ele>411.4</ele>
        <time>2021-08-10T07:06:04Z</time>
      </trkpt>
      <trkpt lat="47.70257" lon="6.82452">
        <ele>411.4</ele>
        <time>2021-08-10T07:06:05Z</time>
      </trkpt>
      <trkpt lat="47.70246" lon="6.82456">
        <ele>411.2</ele>
        <time>2021-08-10T07:06:07Z</time>
      </trkpt>
      <trkpt lat="47.70241" lon="6.82458">
        <ele>411.2</ele>
        <time>2021-08-10T07:06:08Z</time>
      </trkpt>
      <trkpt lat="47.70236" lon="6.82461">
        <ele>411.1</ele>
        <time>2021-08-10T07:06:09Z</time>
      </trkpt>
      <trkpt lat="47.70231" lon="6.82464">
        <ele>411</ele>
        <time>2021-08-10T07:06:10Z</time>
      </trkpt>
      <trkpt lat="47.7022" lon="6.8247">
        <ele>410.8</ele>
        <time>2021-08-10T07:06:12Z</time>
      </trkpt>
      <trkpt lat="47.7021" lon="6.82476">
        <ele>410.7</ele>
        <time>2021-08-10T07:06:14Z</time>
      </trkpt>
      <trkpt lat="47.70199" lon="6.82482">
        <ele>410.7</ele>
        <time>2021-08-10T07:06:16Z</time>
      </trkpt>
      <trkpt lat="47.70193" lon="6.82486">
        <ele>410.6</ele>
        <time>2021-08-10T07:06:17Z</time>
      </trkpt>
      <trkpt lat="47.70189" lon="6.82489">
        <ele>410.5</ele>
        <time>2021-08-10T07:06:18Z</time>
      </trkpt>
      <trkpt lat="47.70179" lon="6.82496">
        <ele>410.4</ele>
        <time>2021-08-10T07:06:20Z</time>
      </trkpt>
      <trkpt lat="47.7017" lon="6.82502">
        <ele>410.4</ele>
        <time>2021-08-10T07:06:22Z</time>
      </trkpt>
      <trkpt lat="47.70165" lon="6.82504">
        <ele>410.5</ele>
        <time>2021-08-10T07:06:23Z</time>
      </trkpt>
      <trkpt lat="47.70159" lon="6.82506">
        <ele>410.6</ele>
        <time>2021-08-10T07:06:24Z</time>
      </trkpt>
      <trkpt lat="47.70149" lon="6.82512">
        <ele>410.5</ele>
        <time>2021-08-10T07:06:26Z</time>
      </trkpt>
      <trkpt lat="47.7014" lon="6.8252">
        <ele>410.4</ele>
        <time>2021-08-10T07:06:28Z</time>
      </trkpt>
      <trkpt lat="47.70137" lon="6.82525">
        <ele>410.3</ele>
        <time>2021-08-10T07:06:29Z</time>
      </trkpt>
      <trkpt lat="47.70133" lon="6.82528">
        <ele>410.2</ele>
        <time>2021-08-10T07:06:30Z</time>
      </trkpt>
      <trkpt lat="47.70125" lon="6.82536">
        <ele>410.1</ele>
        <time>2021-08-10T07:06:32Z</time>
      </trkpt>
      <trkpt lat="47.70121" lon="6.82539">
        <ele>410</ele>
        <time>2021-08-10T07:06:33Z</time>
      </trkpt>
      <trkpt lat="47.70112" lon="6.82544">
        <ele>409.9</ele>
        <time>2021-08-10T07:06:35Z</time>
      </trkpt>
      <trkpt lat="47.70107" lon="6.82545">
        <ele>409.8</ele>
        <time>2021-08-10T07:06:36Z</time>
      </trkpt>
      <trkpt lat="47.70098" lon="6.82545">
        <ele>409.7</ele>
        <time>2021-08-10T07:06:38Z</time>
      </trkpt>
      <trkpt lat="47.70094" lon="6.82545">
        <ele>409.6</ele>
        <time>2021-08-10T07:06:39Z</time>
      </trkpt>
      <trkpt lat="47.70084" lon="6.82549">
        <ele>409.4</ele>
        <time>2021-08-10T07:06:41Z</time>
      </trkpt>
      <trkpt lat="47.70079" lon="6.8255">
        <ele>409.3</ele>
        <time>2021-08-10T07:06:42Z</time>
      </trkpt>
      <trkpt lat="47.70075" lon="6.82552">
        <ele>409.3</ele>
        <time>2021-08-10T07:06:43Z</time>
      </trkpt>
      <trkpt lat="47.70069" lon="6.82553">
        <ele>409.1</ele>
        <time>2021-08-10T07:06:45Z</time>
      </trkpt>
      <trkpt lat="47.70067" lon="6.82552">
        <ele>409.1</ele>
        <time>2021-08-10T07:06:46Z</time>
      </trkpt>
      <trkpt lat="47.70066" lon="6.82552">
        <ele>409.1</ele>
        <time>2021-08-10T07:06:47Z</time>
      </trkpt>
      <trkpt lat="47.70063" lon="6.82554">
        <ele>409</ele>
        <time>2021-08-10T07:06:49Z</time>
      </trkpt>
      <trkpt lat="47.70062" lon="6.82555">
        <ele>409</ele>
        <time>2021-08-10T07:06:50Z</time>
      </trkpt>
      <trkpt lat="47.7006" lon="6.82557">
        <ele>409</ele>
        <time>2021-08-10T07:06:51Z</time>
      </trkpt>
      <trkpt lat="47.70059" lon="6.82559">
        <ele>409</ele>
        <time>2021-08-10T07:06:53Z</time>
      </trkpt>
      <trkpt lat="47.70058" lon="6.82561">
        <ele>409</ele>
        <time>2021-08-10T07:06:54Z</time>
      </trkpt>
      <trkpt lat="47.70056" lon="6.82562">
        <ele>408.9</ele>
        <time>2021-08-10T07:06:56Z</time>
      </trkpt>
      <trkpt lat="47.70055" lon="6.82564">
        <ele>408.9</ele>
        <time>2021-08-10T07:06:57Z</time>
      </trkpt>
      <trkpt lat="47.70054" lon="6.82566">
        <ele>408.9</ele>
        <time>2021-08-10T07:07:02Z</time>
      </trkpt>
      <trkpt lat="47.70052" lon="6.82568">
        <ele>408.9</ele>
        <time>2021-08-10T07:07:03Z</time>
      </trkpt>
      <trkpt lat="47.70044" lon="6.82575">
        <ele>408.8</ele>
        <time>2021-08-10T07:07:05Z</time>
      </trkpt>
      <trkpt lat="47.70036" lon="6.82584">
        <ele>408.6</ele>
        <time>2021-08-10T07:07:07Z</time>
      </trkpt>
      <trkpt lat="47.70029" lon="6.82592">
        <ele>408.5</ele>
        <time>2021-08-10T07:07:08Z</time>
      </trkpt>
      <trkpt lat="47.70021" lon="6.82602">
        <ele>408.4</ele>
        <time>2021-08-10T07:07:10Z</time>
      </trkpt>
      <trkpt lat="47.70016" lon="6.82606">
        <ele>408.4</ele>
        <time>2021-08-10T07:07:11Z</time>
      </trkpt>
      <trkpt lat="47.70009" lon="6.82615">
        <ele>408.4</ele>
        <time>2021-08-10T07:07:13Z</time>
      </trkpt>
      <trkpt lat="47.70006" lon="6.82618">
        <ele>408.4</ele>
        <time>2021-08-10T07:07:14Z</time>
      </trkpt>
      <trkpt lat="47.70004" lon="6.82626">
        <ele>408.4</ele>
        <time>2021-08-10T07:07:16Z</time>
      </trkpt>
      <trkpt lat="47.70001" lon="6.82621">
        <ele>408.4</ele>
        <time>2021-08-10T07:07:17Z</time>
      </trkpt>
      <trkpt lat="47.69995" lon="6.82628">
        <ele>408.5</ele>
        <time>2021-08-10T07:07:18Z</time>
      </trkpt>
      <trkpt lat="47.69984" lon="6.82637">
        <ele>408.5</ele>
        <time>2021-08-10T07:07:20Z</time>
      </trkpt>
      <trkpt lat="47.6998" lon="6.82641">
        <ele>408.5</ele>
        <time>2021-08-10T07:07:21Z</time>
      </trkpt>
      <trkpt lat="47.69975" lon="6.82639">
        <ele>408.5</ele>
        <time>2021-08-10T07:07:22Z</time>
      </trkpt>
      <trkpt lat="47.69971" lon="6.82641">
        <ele>408.6</ele>
        <time>2021-08-10T07:07:23Z</time>
      </trkpt>
      <trkpt lat="47.69967" lon="6.82645">
        <ele>408.6</ele>
        <time>2021-08-10T07:07:24Z</time>
      </trkpt>
      <trkpt lat="47.69963" lon="6.82649">
        <ele>408.7</ele>
        <time>2021-08-10T07:07:25Z</time>
      </trkpt>
      <trkpt lat="47.69959" lon="6.82653">
        <ele>408.7</ele>
        <time>2021-08-10T07:07:27Z</time>
      </trkpt>
      <trkpt lat="47.69955" lon="6.82656">
        <ele>408.8</ele>
        <time>2021-08-10T07:07:28Z</time>
      </trkpt>
      <trkpt lat="47.69951" lon="6.8266">
        <ele>408.8</ele>
        <time>2021-08-10T07:07:29Z</time>
      </trkpt>
      <trkpt lat="47.69948" lon="6.82664">
        <ele>408.9</ele>
        <time>2021-08-10T07:07:30Z</time>
      </trkpt>
      <trkpt lat="47.69944" lon="6.82667">
        <ele>408.9</ele>
        <time>2021-08-10T07:07:31Z</time>
      </trkpt>
      <trkpt lat="47.6994" lon="6.8267">
        <ele>408.9</ele>
        <time>2021-08-10T07:07:32Z</time>
      </trkpt>
      <trkpt lat="47.69936" lon="6.82673">
        <ele>408.9</ele>
        <time>2021-08-10T07:07:33Z</time>
      </trkpt>
      <trkpt lat="47.69933" lon="6.82675">
        <ele>408.9</ele>
        <time>2021-08-10T07:07:34Z</time>
      </trkpt>
      <trkpt lat="47.69929" lon="6.82677">
        <ele>408.9</ele>
        <time>2021-08-10T07:07:35Z</time>
      </trkpt>
      <trkpt lat="47.69925" lon="6.82681">
        <ele>408.9</ele>
        <time>2021-08-10T07:07:36Z</time>
      </trkpt>
      <trkpt lat="47.69918" lon="6.82683">
        <ele>408.8</ele>
        <time>2021-08-10T07:07:38Z</time>
      </trkpt>
      <trkpt lat="47.69907" lon="6.82686">
        <ele>408.7</ele>
        <time>2021-08-10T07:07:40Z</time>
      </trkpt>
      <trkpt lat="47.69902" lon="6.82687">
        <ele>408.6</ele>
        <time>2021-08-10T07:07:41Z</time>
      </trkpt>
      <trkpt lat="47.69891" lon="6.82694">
        <ele>408.4</ele>
        <time>2021-08-10T07:07:43Z</time>
      </trkpt>
      <trkpt lat="47.69887" lon="6.82699">
        <ele>408.2</ele>
        <time>2021-08-10T07:07:44Z</time>
      </trkpt>
      <trkpt lat="47.69879" lon="6.82711">
        <ele>407.9</ele>
        <time>2021-08-10T07:07:46Z</time>
      </trkpt>
      <trkpt lat="47.69874" lon="6.82716">
        <ele>407.9</ele>
        <time>2021-08-10T07:07:47Z</time>
      </trkpt>
      <trkpt lat="47.6987" lon="6.82721">
        <ele>407.9</ele>
        <time>2021-08-10T07:07:48Z</time>
      </trkpt>
      <trkpt lat="47.69861" lon="6.82732">
        <ele>407.9</ele>
        <time>2021-08-10T07:07:50Z</time>
      </trkpt>
      <trkpt lat="47.69851" lon="6.82739">
        <ele>407.4</ele>
        <time>2021-08-10T07:07:52Z</time>
      </trkpt>
      <trkpt lat="47.69846" lon="6.82744">
        <ele>407.2</ele>
        <time>2021-08-10T07:07:53Z</time>
      </trkpt>
      <trkpt lat="47.69843" lon="6.8275">
        <ele>407.1</ele>
        <time>2021-08-10T07:07:54Z</time>
      </trkpt>
      <trkpt lat="47.69835" lon="6.82762">
        <ele>406.9</ele>
        <time>2021-08-10T07:07:56Z</time>
      </trkpt>
      <trkpt lat="47.69832" lon="6.82768">
        <ele>406.8</ele>
        <time>2021-08-10T07:07:57Z</time>
      </trkpt>
      <trkpt lat="47.69823" lon="6.82779">
        <ele>406.6</ele>
        <time>2021-08-10T07:07:59Z</time>
      </trkpt>
      <trkpt lat="47.69819" lon="6.82785">
        <ele>406.6</ele>
        <time>2021-08-10T07:08:00Z</time>
      </trkpt>
      <trkpt lat="47.6981" lon="6.82795">
        <ele>406.5</ele>
        <time>2021-08-10T07:08:02Z</time>
      </trkpt>
      <trkpt lat="47.69802" lon="6.82805">
        <ele>406.5</ele>
        <time>2021-08-10T07:08:04Z</time>
      </trkpt>
      <trkpt lat="47.69798" lon="6.82811">
        <ele>406.5</ele>
        <time>2021-08-10T07:08:05Z</time>
      </trkpt>
      <trkpt lat="47.69795" lon="6.82816">
        <ele>406.5</ele>
        <time>2021-08-10T07:08:06Z</time>
      </trkpt>
      <trkpt lat="47.69788" lon="6.82826">
        <ele>406.5</ele>
        <time>2021-08-10T07:08:08Z</time>
      </trkpt>
      <trkpt lat="47.6978" lon="6.82835">
        <ele>406.5</ele>
        <time>2021-08-10T07:08:10Z</time>
      </trkpt>
      <trkpt lat="47.69776" lon="6.8284">
        <ele>406.6</ele>
        <time>2021-08-10T07:08:11Z</time>
      </trkpt>
      <trkpt lat="47.69769" lon="6.82849">
        <ele>406.6</ele>
        <time>2021-08-10T07:08:13Z</time>
      </trkpt>
      <trkpt lat="47.69765" lon="6.82853">
        <ele>406.6</ele>
        <time>2021-08-10T07:08:14Z</time>
      </trkpt>
      <trkpt lat="47.69757" lon="6.82862">
        <ele>406.5</ele>
        <time>2021-08-10T07:08:16Z</time>
      </trkpt>
      <trkpt lat="47.69753" lon="6.82867">
        <ele>406.5</ele>
        <time>2021-08-10T07:08:17Z</time>
      </trkpt>
      <trkpt lat="47.69745" lon="6.82878">
        <ele>406.4</ele>
        <time>2021-08-10T07:08:19Z</time>
      </trkpt>
      <trkpt lat="47.69741" lon="6.82883">
        <ele>406.4</ele>
        <time>2021-08-10T07:08:20Z</time>
      </trkpt>
      <trkpt lat="47.69733" lon="6.82891">
        <ele>406.4</ele>
        <time>2021-08-10T07:08:22Z</time>
      </trkpt>
      <trkpt lat="47.69729" lon="6.82896">
        <ele>406.3</ele>
        <time>2021-08-10T07:08:23Z</time>
      </trkpt>
      <trkpt lat="47.6972" lon="6.82906">
        <ele>406.2</ele>
        <time>2021-08-10T07:08:25Z</time>
      </trkpt>
      <trkpt lat="47.69716" lon="6.82911">
        <ele>406.2</ele>
        <time>2021-08-10T07:08:26Z</time>
      </trkpt>
      <trkpt lat="47.69708" lon="6.82921">
        <ele>406.1</ele>
        <time>2021-08-10T07:08:28Z</time>
      </trkpt>
      <trkpt lat="47.69704" lon="6.82925">
        <ele>406</ele>
        <time>2021-08-10T07:08:29Z</time>
      </trkpt>
      <trkpt lat="47.69696" lon="6.82934">
        <ele>405.9</ele>
        <time>2021-08-10T07:08:31Z</time>
      </trkpt>
      <trkpt lat="47.69693" lon="6.82938">
        <ele>405.9</ele>
        <time>2021-08-10T07:08:32Z</time>
      </trkpt>
      <trkpt lat="47.69687" lon="6.82948">
        <ele>405.8</ele>
        <time>2021-08-10T07:08:34Z</time>
      </trkpt>
      <trkpt lat="47.69683" lon="6.82954">
        <ele>405.7</ele>
        <time>2021-08-10T07:08:35Z</time>
      </trkpt>
      <trkpt lat="47.6968" lon="6.82958">
        <ele>405.7</ele>
        <time>2021-08-10T07:08:36Z</time>
      </trkpt>
      <trkpt lat="47.69676" lon="6.82963">
        <ele>405.7</ele>
        <time>2021-08-10T07:08:37Z</time>
      </trkpt>
      <trkpt lat="47.69672" lon="6.82968">
        <ele>405.6</ele>
        <time>2021-08-10T07:08:38Z</time>
      </trkpt>
      <trkpt lat="47.69668" lon="6.82973">
        <ele>405.6</ele>
        <time>2021-08-10T07:08:39Z</time>
      </trkpt>
      <trkpt lat="47.69659" lon="6.82984">
        <ele>405.4</ele>
        <time>2021-08-10T07:08:41Z</time>
      </trkpt>
      <trkpt lat="47.69655" lon="6.82989">
        <ele>405.4</ele>
        <time>2021-08-10T07:08:42Z</time>
      </trkpt>
      <trkpt lat="47.69646" lon="6.82999">
        <ele>405.3</ele>
        <time>2021-08-10T07:08:44Z</time>
      </trkpt>
      <trkpt lat="47.69642" lon="6.83005">
        <ele>405.2</ele>
        <time>2021-08-10T07:08:45Z</time>
      </trkpt>
      <trkpt lat="47.69634" lon="6.83015">
        <ele>405.1</ele>
        <time>2021-08-10T07:08:47Z</time>
      </trkpt>
      <trkpt lat="47.6963" lon="6.83019">
        <ele>405</ele>
        <time>2021-08-10T07:08:48Z</time>
      </trkpt>
      <trkpt lat="47.69625" lon="6.83024">
        <ele>404.9</ele>
        <time>2021-08-10T07:08:49Z</time>
      </trkpt>
      <trkpt lat="47.69617" lon="6.83033">
        <ele>404.8</ele>
        <time>2021-08-10T07:08:51Z</time>
      </trkpt>
      <trkpt lat="47.69612" lon="6.83037">
        <ele>404.7</ele>
        <time>2021-08-10T07:08:52Z</time>
      </trkpt>
      <trkpt lat="47.69604" lon="6.83045">
        <ele>404.6</ele>
        <time>2021-08-10T07:08:54Z</time>
      </trkpt>
      <trkpt lat="47.69599" lon="6.83048">
        <ele>404.5</ele>
        <time>2021-08-10T07:08:55Z</time>
      </trkpt>
      <trkpt lat="47.69595" lon="6.83053">
        <ele>404.5</ele>
        <time>2021-08-10T07:08:56Z</time>
      </trkpt>
      <trkpt lat="47.69588" lon="6.83063">
        <ele>404.2</ele>
        <time>2021-08-10T07:08:58Z</time>
      </trkpt>
      <trkpt lat="47.69584" lon="6.83068">
        <ele>404.1</ele>
        <time>2021-08-10T07:08:59Z</time>
      </trkpt>
      <trkpt lat="47.6958" lon="6.83073">
        <ele>404</ele>
        <time>2021-08-10T07:09:00Z</time>
      </trkpt>
      <trkpt lat="47.69576" lon="6.83078">
        <ele>403.9</ele>
        <time>2021-08-10T07:09:01Z</time>
      </trkpt>
      <trkpt lat="47.69572" lon="6.83083">
        <ele>403.8</ele>
        <time>2021-08-10T07:09:02Z</time>
      </trkpt>
      <trkpt lat="47.69567" lon="6.83088">
        <ele>403.6</ele>
        <time>2021-08-10T07:09:03Z</time>
      </trkpt>
      <trkpt lat="47.69559" lon="6.83098">
        <ele>403.4</ele>
        <time>2021-08-10T07:09:05Z</time>
      </trkpt>
      <trkpt lat="47.69554" lon="6.83104">
        <ele>403.3</ele>
        <time>2021-08-10T07:09:06Z</time>
      </trkpt>
      <trkpt lat="47.69546" lon="6.83112">
        <ele>403.2</ele>
        <time>2021-08-10T07:09:08Z</time>
      </trkpt>
      <trkpt lat="47.69538" lon="6.83121">
        <ele>403.1</ele>
        <time>2021-08-10T07:09:10Z</time>
      </trkpt>
      <trkpt lat="47.69533" lon="6.83126">
        <ele>403.1</ele>
        <time>2021-08-10T07:09:11Z</time>
      </trkpt>
      <trkpt lat="47.69525" lon="6.83137">
        <ele>403.1</ele>
        <time>2021-08-10T07:09:13Z</time>
      </trkpt>
      <trkpt lat="47.6952" lon="6.83142">
        <ele>403.1</ele>
        <time>2021-08-10T07:09:14Z</time>
      </trkpt>
      <trkpt lat="47.6951" lon="6.8315">
        <ele>403.1</ele>
        <time>2021-08-10T07:09:16Z</time>
      </trkpt>
      <trkpt lat="47.69506" lon="6.83154">
        <ele>403.1</ele>
        <time>2021-08-10T07:09:17Z</time>
      </trkpt>
      <trkpt lat="47.69497" lon="6.83163">
        <ele>403</ele>
        <time>2021-08-10T07:09:19Z</time>
      </trkpt>
      <trkpt lat="47.69494" lon="6.83168">
        <ele>402.9</ele>
        <time>2021-08-10T07:09:20Z</time>
      </trkpt>
      <trkpt lat="47.69486" lon="6.83179">
        <ele>402.8</ele>
        <time>2021-08-10T07:09:22Z</time>
      </trkpt>
      <trkpt lat="47.69482" lon="6.83185">
        <ele>402.8</ele>
        <time>2021-08-10T07:09:23Z</time>
      </trkpt>
      <trkpt lat="47.69474" lon="6.83194">
        <ele>402.7</ele>
        <time>2021-08-10T07:09:25Z</time>
      </trkpt>
      <trkpt lat="47.6947" lon="6.83198">
        <ele>402.7</ele>
        <time>2021-08-10T07:09:26Z</time>
      </trkpt>
      <trkpt lat="47.69462" lon="6.83204">
        <ele>402.6</ele>
        <time>2021-08-10T07:09:28Z</time>
      </trkpt>
      <trkpt lat="47.69457" lon="6.83207">
        <ele>402.6</ele>
        <time>2021-08-10T07:09:29Z</time>
      </trkpt>
      <trkpt lat="47.6945" lon="6.83212">
        <ele>402.5</ele>
        <time>2021-08-10T07:09:31Z</time>
      </trkpt>
      <trkpt lat="47.69442" lon="6.83217">
        <ele>402.3</ele>
        <time>2021-08-10T07:09:33Z</time>
      </trkpt>
      <trkpt lat="47.6944" lon="6.8322">
        <ele>402.3</ele>
        <time>2021-08-10T07:09:34Z</time>
      </trkpt>
      <trkpt lat="47.69437" lon="6.83222">
        <ele>402.3</ele>
        <time>2021-08-10T07:09:35Z</time>
      </trkpt>
      <trkpt lat="47.69429" lon="6.83223">
        <ele>402.1</ele>
        <time>2021-08-10T07:09:37Z</time>
      </trkpt>
      <trkpt lat="47.69425" lon="6.83224">
        <ele>402.1</ele>
        <time>2021-08-10T07:09:38Z</time>
      </trkpt>
      <trkpt lat="47.69418" lon="6.83225">
        <ele>402</ele>
        <time>2021-08-10T07:09:40Z</time>
      </trkpt>
      <trkpt lat="47.6941" lon="6.83228">
        <ele>401.9</ele>
        <time>2021-08-10T07:09:42Z</time>
      </trkpt>
      <trkpt lat="47.69403" lon="6.8323">
        <ele>401.9</ele>
        <time>2021-08-10T07:09:44Z</time>
      </trkpt>
      <trkpt lat="47.69396" lon="6.83229">
        <ele>401.8</ele>
        <time>2021-08-10T07:09:46Z</time>
      </trkpt>
      <trkpt lat="47.69393" lon="6.83228">
        <ele>401.8</ele>
        <time>2021-08-10T07:09:47Z</time>
      </trkpt>
      <trkpt lat="47.69391" lon="6.83228">
        <ele>401.8</ele>
        <time>2021-08-10T07:09:48Z</time>
      </trkpt>
      <trkpt lat="47.69388" lon="6.83229">
        <ele>401.8</ele>
        <time>2021-08-10T07:09:49Z</time>
      </trkpt>
      <trkpt lat="47.69384" lon="6.8323">
        <ele>401.7</ele>
        <time>2021-08-10T07:09:51Z</time>
      </trkpt>
      <trkpt lat="47.69382" lon="6.83229">
        <ele>401.7</ele>
        <time>2021-08-10T07:09:52Z</time>
      </trkpt>
      <trkpt lat="47.69377" lon="6.83229">
        <ele>401.6</ele>
        <time>2021-08-10T07:09:54Z</time>
      </trkpt>
      <trkpt lat="47.69372" lon="6.83227">
        <ele>401.6</ele>
        <time>2021-08-10T07:09:55Z</time>
      </trkpt>
      <trkpt lat="47.69368" lon="6.83226">
        <ele>401.5</ele>
        <time>2021-08-10T07:09:57Z</time>
      </trkpt>
      <trkpt lat="47.69365" lon="6.83225">
        <ele>401.3</ele>
        <time>2021-08-10T07:09:58Z</time>
      </trkpt>
      <trkpt lat="47.69358" lon="6.83225">
        <ele>401.1</ele>
        <time>2021-08-10T07:10:00Z</time>
      </trkpt>
      <trkpt lat="47.69355" lon="6.83228">
        <ele>401</ele>
        <time>2021-08-10T07:10:01Z</time>
      </trkpt>
      <trkpt lat="47.69352" lon="6.83232">
        <ele>400.9</ele>
        <time>2021-08-10T07:10:02Z</time>
      </trkpt>
      <trkpt lat="47.69349" lon="6.83237">
        <ele>400.9</ele>
        <time>2021-08-10T07:10:04Z</time>
      </trkpt>
      <trkpt lat="47.69348" lon="6.83233">
        <ele>400.8</ele>
        <time>2021-08-10T07:10:05Z</time>
      </trkpt>
      <trkpt lat="47.69348" lon="6.83231">
        <ele>400.7</ele>
        <time>2021-08-10T07:10:06Z</time>
      </trkpt>
      <trkpt lat="47.69348" lon="6.83228">
        <ele>400.5</ele>
        <time>2021-08-10T07:10:08Z</time>
      </trkpt>
      <trkpt lat="47.69348" lon="6.83228">
        <ele>400.5</ele>
        <time>2021-08-10T07:10:10Z</time>
      </trkpt>
      <trkpt lat="47.69356" lon="6.83231">
        <ele>400.6</ele>
        <time>2021-08-10T07:10:12Z</time>
      </trkpt>
      <trkpt lat="47.69362" lon="6.83233">
        <ele>400.7</ele>
        <time>2021-08-10T07:10:14Z</time>
      </trkpt>
      <trkpt lat="47.6936" lon="6.83234">
        <ele>400.6</ele>
        <time>2021-08-10T07:10:16Z</time>
      </trkpt>
      <trkpt lat="47.69365" lon="6.83237">
        <ele>400.6</ele>
        <time>2021-08-10T07:10:18Z</time>
      </trkpt>
      <trkpt lat="47.69369" lon="6.8324">
        <ele>400.7</ele>
        <time>2021-08-10T07:10:19Z</time>
      </trkpt>
      <trkpt lat="47.69375" lon="6.83244">
        <ele>400.8</ele>
        <time>2021-08-10T07:10:20Z</time>
      </trkpt>
      <trkpt lat="47.69382" lon="6.83249">
        <ele>400.8</ele>
        <time>2021-08-10T07:10:21Z</time>
      </trkpt>
      <trkpt lat="47.69389" lon="6.83253">
        <ele>400.9</ele>
        <time>2021-08-10T07:10:22Z</time>
      </trkpt>
      <trkpt lat="47.69394" lon="6.83255">
        <ele>400.9</ele>
        <time>2021-08-10T07:10:24Z</time>
      </trkpt>
      <trkpt lat="47.69399" lon="6.83258">
        <ele>400.8</ele>
        <time>2021-08-10T07:10:25Z</time>
      </trkpt>
      <trkpt lat="47.69404" lon="6.8326">
        <ele>401</ele>
        <time>2021-08-10T07:10:26Z</time>
      </trkpt>
      <trkpt lat="47.69413" lon="6.83263">
        <ele>401.5</ele>
        <time>2021-08-10T07:10:27Z</time>
      </trkpt>
      <trkpt lat="47.69418" lon="6.83266">
        <ele>401.7</ele>
        <time>2021-08-10T07:10:29Z</time>
      </trkpt>
      <trkpt lat="47.69425" lon="6.8327">
        <ele>402</ele>
        <time>2021-08-10T07:10:30Z</time>
      </trkpt>
      <trkpt lat="47.69428" lon="6.83273">
        <ele>402.1</ele>
        <time>2021-08-10T07:10:32Z</time>
      </trkpt>
      <trkpt lat="47.69431" lon="6.83276">
        <ele>402.3</ele>
        <time>2021-08-10T07:10:33Z</time>
      </trkpt>
      <trkpt lat="47.69433" lon="6.83281">
        <ele>402.8</ele>
        <time>2021-08-10T07:10:34Z</time>
      </trkpt>
      <trkpt lat="47.69434" lon="6.83284">
        <ele>402.8</ele>
        <time>2021-08-10T07:10:35Z</time>
      </trkpt>
      <trkpt lat="47.69434" lon="6.8329">
        <ele>402.8</ele>
        <time>2021-08-10T07:10:36Z</time>
      </trkpt>
      <trkpt lat="47.69434" lon="6.83291">
        <ele>402.8</ele>
        <time>2021-08-10T07:10:37Z</time>
      </trkpt>
      <trkpt lat="47.69432" lon="6.83297">
        <ele>402.8</ele>
        <time>2021-08-10T07:10:38Z</time>
      </trkpt>
      <trkpt lat="47.69431" lon="6.83298">
        <ele>402.8</ele>
        <time>2021-08-10T07:10:39Z</time>
      </trkpt>
      <trkpt lat="47.69429" lon="6.83302">
        <ele>402.8</ele>
        <time>2021-08-10T07:10:41Z</time>
      </trkpt>
      <trkpt lat="47.69427" lon="6.83307">
        <ele>402.7</ele>
        <time>2021-08-10T07:10:42Z</time>
      </trkpt>
      <trkpt lat="47.69425" lon="6.83311">
        <ele>402.7</ele>
        <time>2021-08-10T07:10:43Z</time>
      </trkpt>
      <trkpt lat="47.69423" lon="6.83316">
        <ele>402.7</ele>
        <time>2021-08-10T07:10:44Z</time>
      </trkpt>
      <trkpt lat="47.6942" lon="6.83322">
        <ele>402.7</ele>
        <time>2021-08-10T07:10:45Z</time>
      </trkpt>
      <trkpt lat="47.69418" lon="6.83328">
        <ele>402.7</ele>
        <time>2021-08-10T07:10:46Z</time>
      </trkpt>
      <trkpt lat="47.69416" lon="6.83334">
        <ele>402.6</ele>
        <time>2021-08-10T07:10:47Z</time>
      </trkpt>
      <trkpt lat="47.69415" lon="6.8334">
        <ele>402.6</ele>
        <time>2021-08-10T07:10:48Z</time>
      </trkpt>
      <trkpt lat="47.69413" lon="6.83345">
        <ele>402.5</ele>
        <time>2021-08-10T07:10:50Z</time>
      </trkpt>
      <trkpt lat="47.69411" lon="6.8335">
        <ele>402.5</ele>
        <time>2021-08-10T07:10:51Z</time>
      </trkpt>
      <trkpt lat="47.6941" lon="6.83358">
        <ele>402.4</ele>
        <time>2021-08-10T07:10:52Z</time>
      </trkpt>
      <trkpt lat="47.69409" lon="6.83364">
        <ele>402.3</ele>
        <time>2021-08-10T07:10:53Z</time>
      </trkpt>
      <trkpt lat="47.69407" lon="6.83371">
        <ele>402.3</ele>
        <time>2021-08-10T07:10:54Z</time>
      </trkpt>
      <trkpt lat="47.69407" lon="6.83377">
        <ele>402.3</ele>
        <time>2021-08-10T07:10:55Z</time>
      </trkpt>
      <trkpt lat="47.69406" lon="6.83391">
        <ele>402.2</ele>
        <time>2021-08-10T07:10:57Z</time>
      </trkpt>
      <trkpt lat="47.69404" lon="6.83404">
        <ele>402.1</ele>
        <time>2021-08-10T07:10:59Z</time>
      </trkpt>
      <trkpt lat="47.69402" lon="6.8341">
        <ele>402.1</ele>
        <time>2021-08-10T07:11:00Z</time>
      </trkpt>
      <trkpt lat="47.69398" lon="6.83421">
        <ele>402</ele>
        <time>2021-08-10T07:11:02Z</time>
      </trkpt>
      <trkpt lat="47.69395" lon="6.83425">
        <ele>402</ele>
        <time>2021-08-10T07:11:03Z</time>
      </trkpt>
      <trkpt lat="47.69393" lon="6.8343">
        <ele>402</ele>
        <time>2021-08-10T07:11:04Z</time>
      </trkpt>
      <trkpt lat="47.69391" lon="6.83436">
        <ele>401.9</ele>
        <time>2021-08-10T07:11:05Z</time>
      </trkpt>
      <trkpt lat="47.69389" lon="6.83445">
        <ele>401.9</ele>
        <time>2021-08-10T07:11:07Z</time>
      </trkpt>
      <trkpt lat="47.69388" lon="6.83451">
        <ele>401.9</ele>
        <time>2021-08-10T07:11:08Z</time>
      </trkpt>
      <trkpt lat="47.69386" lon="6.83462">
        <ele>401.8</ele>
        <time>2021-08-10T07:11:10Z</time>
      </trkpt>
      <trkpt lat="47.69384" lon="6.83468">
        <ele>401.8</ele>
        <time>2021-08-10T07:11:11Z</time>
      </trkpt>
      <trkpt lat="47.69383" lon="6.83473">
        <ele>401.8</ele>
        <time>2021-08-10T07:11:12Z</time>
      </trkpt>
      <trkpt lat="47.69382" lon="6.83482">
        <ele>401.8</ele>
        <time>2021-08-10T07:11:14Z</time>
      </trkpt>
      <trkpt lat="47.6938" lon="6.83489">
        <ele>401.6</ele>
        <time>2021-08-10T07:11:16Z</time>
      </trkpt>
      <trkpt lat="47.69379" lon="6.83492">
        <ele>401.6</ele>
        <time>2021-08-10T07:11:17Z</time>
      </trkpt>
      <trkpt lat="47.69375" lon="6.83496">
        <ele>401.5</ele>
        <time>2021-08-10T07:11:19Z</time>
      </trkpt>
      <trkpt lat="47.69372" lon="6.83496">
        <ele>401.5</ele>
        <time>2021-08-10T07:11:20Z</time>
      </trkpt>
      <trkpt lat="47.69371" lon="6.83496">
        <ele>401.5</ele>
        <time>2021-08-10T07:11:21Z</time>
      </trkpt>
      <trkpt lat="47.69365" lon="6.83495">
        <ele>401.4</ele>
        <time>2021-08-10T07:11:23Z</time>
      </trkpt>
      <trkpt lat="47.69362" lon="6.83496">
        <ele>401.4</ele>
        <time>2021-08-10T07:11:24Z</time>
      </trkpt>
      <trkpt lat="47.69359" lon="6.83498">
        <ele>401.4</ele>
        <time>2021-08-10T07:11:25Z</time>
      </trkpt>
      <trkpt lat="47.69355" lon="6.83501">
        <ele>401.3</ele>
        <time>2021-08-10T07:11:26Z</time>
      </trkpt>
      <trkpt lat="47.69353" lon="6.83502">
        <ele>401.3</ele>
        <time>2021-08-10T07:11:27Z</time>
      </trkpt>
      <trkpt lat="47.69349" lon="6.83503">
        <ele>401.3</ele>
        <time>2021-08-10T07:11:29Z</time>
      </trkpt>
      <trkpt lat="47.69346" lon="6.83504">
        <ele>401.2</ele>
        <time>2021-08-10T07:11:30Z</time>
      </trkpt>
      <trkpt lat="47.69339" lon="6.83504">
        <ele>401.1</ele>
        <time>2021-08-10T07:11:31Z</time>
      </trkpt>
      <trkpt lat="47.69332" lon="6.83503">
        <ele>401.1</ele>
        <time>2021-08-10T07:11:33Z</time>
      </trkpt>
      <trkpt lat="47.69324" lon="6.83502">
        <ele>401</ele>
        <time>2021-08-10T07:11:35Z</time>
      </trkpt>
      <trkpt lat="47.6932" lon="6.83501">
        <ele>400.9</ele>
        <time>2021-08-10T07:11:36Z</time>
      </trkpt>
      <trkpt lat="47.69315" lon="6.83505">
        <ele>400.9</ele>
        <time>2021-08-10T07:11:38Z</time>
      </trkpt>
      <trkpt lat="47.69313" lon="6.83508">
        <ele>400.9</ele>
        <time>2021-08-10T07:11:39Z</time>
      </trkpt>
      <trkpt lat="47.69311" lon="6.83513">
        <ele>400.8</ele>
        <time>2021-08-10T07:11:41Z</time>
      </trkpt>
      <trkpt lat="47.6931" lon="6.83514">
        <ele>400.8</ele>
        <time>2021-08-10T07:11:43Z</time>
      </trkpt>
      <trkpt lat="47.69312" lon="6.83515">
        <ele>400.8</ele>
        <time>2021-08-10T07:11:45Z</time>
      </trkpt>
      <trkpt lat="47.69313" lon="6.83516">
        <ele>400.8</ele>
        <time>2021-08-10T07:11:46Z</time>
      </trkpt>
      <trkpt lat="47.69313" lon="6.83516">
        <ele>400.8</ele>
        <time>2021-08-10T07:11:47Z</time>
      </trkpt>
      <trkpt lat="47.69313" lon="6.83516">
        <ele>400.8</ele>
        <time>2021-08-10T07:11:48Z</time>
      </trkpt>
      <trkpt lat="47.69313" lon="6.83516">
        <ele>400.8</ele>
        <time>2021-08-10T07:11:49Z</time>
      </trkpt>
      <trkpt lat="47.69313" lon="6.83516">
        <ele>400.8</ele>
        <time>2021-08-10T07:11:51Z</time>
      </trkpt>
      <trkpt lat="47.69317" lon="6.83517">
        <ele>400.7</ele>
        <time>2021-08-10T07:14:40Z</time>
      </trkpt>
      <trkpt lat="47.69318" lon="6.83517">
        <ele>400.7</ele>
        <time>2021-08-10T07:14:41Z</time>
      </trkpt>
      <trkpt lat="47.69318" lon="6.83525">
        <ele>400.7</ele>
        <time>2021-08-10T07:14:43Z</time>
      </trkpt>
      <trkpt lat="47.69318" lon="6.83526">
        <ele>400.7</ele>
        <time>2021-08-10T07:14:44Z</time>
      </trkpt>
      <trkpt lat="47.69315" lon="6.83528">
        <ele>400.7</ele>
        <time>2021-08-10T07:14:46Z</time>
      </trkpt>
      <trkpt lat="47.69315" lon="6.83528">
        <ele>400.7</ele>
        <time>2021-08-10T07:14:47Z</time>
      </trkpt>
      <trkpt lat="47.69315" lon="6.83528">
        <ele>400.7</ele>
        <time>2021-08-10T07:14:48Z</time>
      </trkpt>
      <trkpt lat="47.69315" lon="6.83527">
        <ele>400.6</ele>
        <time>2021-08-10T07:14:49Z</time>
      </trkpt>
      <trkpt lat="47.69315" lon="6.83526">
        <ele>400.6</ele>
        <time>2021-08-10T07:14:51Z</time>
      </trkpt>
      <trkpt lat="47.6931" lon="6.83523">
        <ele>400.6</ele>
        <time>2021-08-10T07:14:59Z</time>
      </trkpt>
      <trkpt lat="47.693" lon="6.83527">
        <ele>400.5</ele>
        <time>2021-08-10T07:15:01Z</time>
      </trkpt>
      <trkpt lat="47.69288" lon="6.83532">
        <ele>400.4</ele>
        <time>2021-08-10T07:15:02Z</time>
      </trkpt>
      <trkpt lat="47.69272" lon="6.83538">
        <ele>400.2</ele>
        <time>2021-08-10T07:15:04Z</time>
      </trkpt>
      <trkpt lat="47.69266" lon="6.83541">
        <ele>400.2</ele>
        <time>2021-08-10T07:15:05Z</time>
      </trkpt>
      <trkpt lat="47.69258" lon="6.83549">
        <ele>400.1</ele>
        <time>2021-08-10T07:15:07Z</time>
      </trkpt>
      <trkpt lat="47.69254" lon="6.83553">
        <ele>400</ele>
        <time>2021-08-10T07:15:08Z</time>
      </trkpt>
      <trkpt lat="47.6925" lon="6.83556">
        <ele>399.9</ele>
        <time>2021-08-10T07:15:09Z</time>
      </trkpt>
      <trkpt lat="47.69247" lon="6.83559">
        <ele>399.9</ele>
        <time>2021-08-10T07:15:10Z</time>
      </trkpt>
      <trkpt lat="47.69246" lon="6.83562">
        <ele>399.9</ele>
        <time>2021-08-10T07:15:11Z</time>
      </trkpt>
      <trkpt lat="47.69235" lon="6.83567">
        <ele>399.7</ele>
        <time>2021-08-10T07:15:13Z</time>
      </trkpt>
      <trkpt lat="47.6923" lon="6.8357">
        <ele>399.7</ele>
        <time>2021-08-10T07:15:14Z</time>
      </trkpt>
      <trkpt lat="47.69225" lon="6.83573">
        <ele>399.6</ele>
        <time>2021-08-10T07:15:15Z</time>
      </trkpt>
      <trkpt lat="47.6922" lon="6.83577">
        <ele>399.6</ele>
        <time>2021-08-10T07:15:16Z</time>
      </trkpt>
      <trkpt lat="47.69216" lon="6.83579">
        <ele>399.5</ele>
        <time>2021-08-10T07:15:17Z</time>
      </trkpt>
      <trkpt lat="47.69211" lon="6.83583">
        <ele>399.5</ele>
        <time>2021-08-10T07:15:19Z</time>
      </trkpt>
      <trkpt lat="47.69206" lon="6.83587">
        <ele>399.5</ele>
        <time>2021-08-10T07:15:20Z</time>
      </trkpt>
      <trkpt lat="47.69202" lon="6.83592">
        <ele>399.4</ele>
        <time>2021-08-10T07:15:21Z</time>
      </trkpt>
      <trkpt lat="47.69198" lon="6.83594">
        <ele>399.4</ele>
        <time>2021-08-10T07:15:22Z</time>
      </trkpt>
      <trkpt lat="47.69191" lon="6.83594">
        <ele>399.3</ele>
        <time>2021-08-10T07:15:24Z</time>
      </trkpt>
      <trkpt lat="47.69186" lon="6.83595">
        <ele>399.3</ele>
        <time>2021-08-10T07:15:25Z</time>
      </trkpt>
      <trkpt lat="47.69176" lon="6.83599">
        <ele>399.2</ele>
        <time>2021-08-10T07:15:27Z</time>
      </trkpt>
      <trkpt lat="47.69169" lon="6.83603">
        <ele>399.2</ele>
        <time>2021-08-10T07:15:29Z</time>
      </trkpt>
      <trkpt lat="47.69163" lon="6.83606">
        <ele>399.1</ele>
        <time>2021-08-10T07:15:30Z</time>
      </trkpt>
      <trkpt lat="47.69155" lon="6.83606">
        <ele>399.1</ele>
        <time>2021-08-10T07:15:32Z</time>
      </trkpt>
      <trkpt lat="47.69146" lon="6.83604">
        <ele>399.1</ele>
        <time>2021-08-10T07:15:34Z</time>
      </trkpt>
      <trkpt lat="47.69141" lon="6.83604">
        <ele>399.1</ele>
        <time>2021-08-10T07:15:35Z</time>
      </trkpt>
      <trkpt lat="47.69136" lon="6.83602">
        <ele>399.1</ele>
        <time>2021-08-10T07:15:37Z</time>
      </trkpt>
      <trkpt lat="47.6913" lon="6.83599">
        <ele>399.1</ele>
        <time>2021-08-10T07:15:38Z</time>
      </trkpt>
      <trkpt lat="47.69125" lon="6.83596">
        <ele>399</ele>
        <time>2021-08-10T07:15:40Z</time>
      </trkpt>
      <trkpt lat="47.6912" lon="6.83596">
        <ele>399</ele>
        <time>2021-08-10T07:15:41Z</time>
      </trkpt>
      <trkpt lat="47.69114" lon="6.83595">
        <ele>398.9</ele>
        <time>2021-08-10T07:15:42Z</time>
      </trkpt>
      <trkpt lat="47.69107" lon="6.83592">
        <ele>398.8</ele>
        <time>2021-08-10T07:15:44Z</time>
      </trkpt>
      <trkpt lat="47.69097" lon="6.83587">
        <ele>398.7</ele>
        <time>2021-08-10T07:15:46Z</time>
      </trkpt>
      <trkpt lat="47.69087" lon="6.83583">
        <ele>398.6</ele>
        <time>2021-08-10T07:15:48Z</time>
      </trkpt>
      <trkpt lat="47.69083" lon="6.83588">
        <ele>398.5</ele>
        <time>2021-08-10T07:15:49Z</time>
      </trkpt>
      <trkpt lat="47.69078" lon="6.83588">
        <ele>398.5</ele>
        <time>2021-08-10T07:15:50Z</time>
      </trkpt>
      <trkpt lat="47.69073" lon="6.83584">
        <ele>398.4</ele>
        <time>2021-08-10T07:15:52Z</time>
      </trkpt>
      <trkpt lat="47.69065" lon="6.83578">
        <ele>398.3</ele>
        <time>2021-08-10T07:15:54Z</time>
      </trkpt>
      <trkpt lat="47.69055" lon="6.83571">
        <ele>398.2</ele>
        <time>2021-08-10T07:15:56Z</time>
      </trkpt>
      <trkpt lat="47.69051" lon="6.83568">
        <ele>398.2</ele>
        <time>2021-08-10T07:15:57Z</time>
      </trkpt>
      <trkpt lat="47.69049" lon="6.83566">
        <ele>398.2</ele>
        <time>2021-08-10T07:15:58Z</time>
      </trkpt>
      <trkpt lat="47.69047" lon="6.83566">
        <ele>398.2</ele>
        <time>2021-08-10T07:15:59Z</time>
      </trkpt>
      <trkpt lat="47.69043" lon="6.83566">
        <ele>398.1</ele>
        <time>2021-08-10T07:16:00Z</time>
      </trkpt>
      <trkpt lat="47.69038" lon="6.83565">
        <ele>398.1</ele>
        <time>2021-08-10T07:16:01Z</time>
      </trkpt>
      <trkpt lat="47.69033" lon="6.83564">
        <ele>398</ele>
        <time>2021-08-10T07:16:02Z</time>
      </trkpt>
      <trkpt lat="47.69027" lon="6.83564">
        <ele>398</ele>
        <time>2021-08-10T07:16:04Z</time>
      </trkpt>
      <trkpt lat="47.69024" lon="6.83564">
        <ele>398</ele>
        <time>2021-08-10T07:16:05Z</time>
      </trkpt>
      <trkpt lat="47.69019" lon="6.83564">
        <ele>398</ele>
        <time>2021-08-10T07:16:06Z</time>
      </trkpt>
      <trkpt lat="47.69008" lon="6.83561">
        <ele>397.9</ele>
        <time>2021-08-10T07:16:08Z</time>
      </trkpt>
      <trkpt lat="47.68998" lon="6.83558">
        <ele>397.9</ele>
        <time>2021-08-10T07:16:10Z</time>
      </trkpt>
      <trkpt lat="47.68994" lon="6.83557">
        <ele>397.8</ele>
        <time>2021-08-10T07:16:11Z</time>
      </trkpt>
      <trkpt lat="47.68988" lon="6.83557">
        <ele>397.8</ele>
        <time>2021-08-10T07:16:12Z</time>
      </trkpt>
      <trkpt lat="47.68982" lon="6.83555">
        <ele>397.7</ele>
        <time>2021-08-10T07:16:13Z</time>
      </trkpt>
      <trkpt lat="47.68978" lon="6.83553">
        <ele>397.7</ele>
        <time>2021-08-10T07:16:14Z</time>
      </trkpt>
      <trkpt lat="47.68971" lon="6.83551">
        <ele>397.7</ele>
        <time>2021-08-10T07:16:16Z</time>
      </trkpt>
      <trkpt lat="47.68967" lon="6.8355">
        <ele>397.7</ele>
        <time>2021-08-10T07:16:17Z</time>
      </trkpt>
      <trkpt lat="47.68963" lon="6.83547">
        <ele>397.6</ele>
        <time>2021-08-10T07:16:18Z</time>
      </trkpt>
      <trkpt lat="47.68952" lon="6.83548">
        <ele>397.6</ele>
        <time>2021-08-10T07:16:20Z</time>
      </trkpt>
      <trkpt lat="47.68941" lon="6.83551">
        <ele>397.6</ele>
        <time>2021-08-10T07:16:22Z</time>
      </trkpt>
      <trkpt lat="47.68935" lon="6.83553">
        <ele>397.6</ele>
        <time>2021-08-10T07:16:23Z</time>
      </trkpt>
      <trkpt lat="47.6893" lon="6.83555">
        <ele>397.6</ele>
        <time>2021-08-10T07:16:24Z</time>
      </trkpt>
      <trkpt lat="47.68925" lon="6.83556">
        <ele>397.6</ele>
        <time>2021-08-10T07:16:25Z</time>
      </trkpt>
      <trkpt lat="47.6892" lon="6.83557">
        <ele>397.6</ele>
        <time>2021-08-10T07:16:26Z</time>
      </trkpt>
      <trkpt lat="47.68916" lon="6.8356">
        <ele>397.6</ele>
        <time>2021-08-10T07:16:27Z</time>
      </trkpt>
      <trkpt lat="47.68911" lon="6.83563">
        <ele>397.6</ele>
        <time>2021-08-10T07:16:28Z</time>
      </trkpt>
      <trkpt lat="47.68908" lon="6.83565">
        <ele>397.6</ele>
        <time>2021-08-10T07:16:29Z</time>
      </trkpt>
      <trkpt lat="47.68903" lon="6.83566">
        <ele>397.6</ele>
        <time>2021-08-10T07:16:31Z</time>
      </trkpt>
      <trkpt lat="47.68901" lon="6.83566">
        <ele>397.6</ele>
        <time>2021-08-10T07:16:32Z</time>
      </trkpt>
      <trkpt lat="47.68899" lon="6.83565">
        <ele>397.6</ele>
        <time>2021-08-10T07:16:33Z</time>
      </trkpt>
      <trkpt lat="47.68895" lon="6.83565">
        <ele>397.6</ele>
        <time>2021-08-10T07:16:35Z</time>
      </trkpt>
      <trkpt lat="47.6889" lon="6.83564">
        <ele>397.7</ele>
        <time>2021-08-10T07:16:37Z</time>
      </trkpt>
      <trkpt lat="47.68887" lon="6.83563">
        <ele>397.7</ele>
        <time>2021-08-10T07:16:38Z</time>
      </trkpt>
      <trkpt lat="47.68885" lon="6.8356">
        <ele>397.7</ele>
        <time>2021-08-10T07:16:39Z</time>
      </trkpt>
      <trkpt lat="47.68883" lon="6.83556">
        <ele>397.7</ele>
        <time>2021-08-10T07:16:40Z</time>
      </trkpt>
      <trkpt lat="47.68881" lon="6.83553">
        <ele>397.7</ele>
        <time>2021-08-10T07:16:41Z</time>
      </trkpt>
      <trkpt lat="47.68878" lon="6.83548">
        <ele>397.7</ele>
        <time>2021-08-10T07:16:42Z</time>
      </trkpt>
      <trkpt lat="47.68875" lon="6.83542">
        <ele>397.7</ele>
        <time>2021-08-10T07:16:44Z</time>
      </trkpt>
      <trkpt lat="47.68868" lon="6.83531">
        <ele>397.2</ele>
        <time>2021-08-10T07:16:46Z</time>
      </trkpt>
      <trkpt lat="47.68864" lon="6.83526">
        <ele>396.9</ele>
        <time>2021-08-10T07:16:47Z</time>
      </trkpt>
      <trkpt lat="47.68857" lon="6.83516">
        <ele>396.7</ele>
        <time>2021-08-10T07:16:49Z</time>
      </trkpt>
      <trkpt lat="47.68853" lon="6.8351">
        <ele>396.7</ele>
        <time>2021-08-10T07:16:50Z</time>
      </trkpt>
      <trkpt lat="47.68855" lon="6.83506">
        <ele>396.6</ele>
        <time>2021-08-10T07:16:51Z</time>
      </trkpt>
      <trkpt lat="47.68852" lon="6.83499">
        <ele>396.6</ele>
        <time>2021-08-10T07:16:53Z</time>
      </trkpt>
      <trkpt lat="47.68848" lon="6.83495">
        <ele>396.6</ele>
        <time>2021-08-10T07:16:54Z</time>
      </trkpt>
      <trkpt lat="47.68844" lon="6.83493">
        <ele>396.5</ele>
        <time>2021-08-10T07:16:55Z</time>
      </trkpt>
      <trkpt lat="47.6884" lon="6.83491">
        <ele>396.5</ele>
        <time>2021-08-10T07:16:56Z</time>
      </trkpt>
      <trkpt lat="47.68837" lon="6.83491">
        <ele>396.5</ele>
        <time>2021-08-10T07:16:57Z</time>
      </trkpt>
      <trkpt lat="47.68834" lon="6.83491">
        <ele>396.5</ele>
        <time>2021-08-10T07:16:59Z</time>
      </trkpt>
      <trkpt lat="47.68833" lon="6.83492">
        <ele>396.5</ele>
        <time>2021-08-10T07:17:00Z</time>
      </trkpt>
      <trkpt lat="47.68833" lon="6.83494">
        <ele>396.5</ele>
        <time>2021-08-10T07:17:01Z</time>
      </trkpt>
      <trkpt lat="47.68833" lon="6.83496">
        <ele>396.4</ele>
        <time>2021-08-10T07:17:03Z</time>
      </trkpt>
      <trkpt lat="47.68832" lon="6.83498">
        <ele>396.4</ele>
        <time>2021-08-10T07:17:04Z</time>
      </trkpt>
      <trkpt lat="47.68832" lon="6.83502">
        <ele>396.4</ele>
        <time>2021-08-10T07:17:05Z</time>
      </trkpt>
      <trkpt lat="47.68832" lon="6.83504">
        <ele>396.4</ele>
        <time>2021-08-10T07:17:07Z</time>
      </trkpt>
      <trkpt lat="47.6883" lon="6.83513">
        <ele>396.4</ele>
        <time>2021-08-10T07:17:08Z</time>
      </trkpt>
      <trkpt lat="47.68829" lon="6.83521">
        <ele>396.3</ele>
        <time>2021-08-10T07:17:10Z</time>
      </trkpt>
      <trkpt lat="47.68828" lon="6.83529">
        <ele>396.3</ele>
        <time>2021-08-10T07:17:12Z</time>
      </trkpt>
      <trkpt lat="47.68828" lon="6.83535">
        <ele>396.3</ele>
        <time>2021-08-10T07:17:14Z</time>
      </trkpt>
      <trkpt lat="47.68829" lon="6.83538">
        <ele>396.3</ele>
        <time>2021-08-10T07:17:15Z</time>
      </trkpt>
      <trkpt lat="47.68829" lon="6.83539">
        <ele>396.3</ele>
        <time>2021-08-10T07:17:16Z</time>
      </trkpt>
      <trkpt lat="47.6883" lon="6.8354">
        <ele>396.3</ele>
        <time>2021-08-10T07:17:18Z</time>
      </trkpt>
      <trkpt lat="47.6883" lon="6.83541">
        <ele>396.2</ele>
        <time>2021-08-10T07:17:19Z</time>
      </trkpt>
      <trkpt lat="47.6883" lon="6.83541">
        <ele>396.2</ele>
        <time>2021-08-10T07:17:20Z</time>
      </trkpt>
      <trkpt lat="47.6883" lon="6.83541">
        <ele>396.2</ele>
        <time>2021-08-10T07:17:21Z</time>
      </trkpt>
      <trkpt lat="47.6883" lon="6.83542">
        <ele>396.2</ele>
        <time>2021-08-10T07:17:23Z</time>
      </trkpt>
      <trkpt lat="47.6883" lon="6.83543">
        <ele>396.2</ele>
        <time>2021-08-10T07:17:24Z</time>
      </trkpt>
      <trkpt lat="47.68826" lon="6.83536">
        <ele>396.2</ele>
        <time>2021-08-10T07:22:28Z</time>
      </trkpt>
      <trkpt lat="47.68826" lon="6.83531">
        <ele>396.2</ele>
        <time>2021-08-10T07:22:29Z</time>
      </trkpt>
      <trkpt lat="47.68825" lon="6.83533">
        <ele>396.2</ele>
        <time>2021-08-10T07:22:30Z</time>
      </trkpt>
      <trkpt lat="47.68825" lon="6.83525">
        <ele>396.1</ele>
        <time>2021-08-10T07:22:32Z</time>
      </trkpt>
      <trkpt lat="47.68825" lon="6.83521">
        <ele>396.1</ele>
        <time>2021-08-10T07:22:33Z</time>
      </trkpt>
      <trkpt lat="47.68823" lon="6.83516">
        <ele>396.1</ele>
        <time>2021-08-10T07:22:35Z</time>
      </trkpt>
      <trkpt lat="47.68822" lon="6.83514">
        <ele>396.1</ele>
        <time>2021-08-10T07:22:36Z</time>
      </trkpt>
      <trkpt lat="47.68821" lon="6.83511">
        <ele>396.1</ele>
        <time>2021-08-10T07:22:38Z</time>
      </trkpt>
      <trkpt lat="47.68821" lon="6.8351">
        <ele>396.1</ele>
        <time>2021-08-10T07:22:40Z</time>
      </trkpt>
      <trkpt lat="47.68821" lon="6.83506">
        <ele>396</ele>
        <time>2021-08-10T07:22:42Z</time>
      </trkpt>
      <trkpt lat="47.68823" lon="6.83498">
        <ele>396</ele>
        <time>2021-08-10T07:22:44Z</time>
      </trkpt>
      <trkpt lat="47.68825" lon="6.83492">
        <ele>396</ele>
        <time>2021-08-10T07:22:45Z</time>
      </trkpt>
      <trkpt lat="47.68826" lon="6.8348">
        <ele>395.8</ele>
        <time>2021-08-10T07:22:46Z</time>
      </trkpt>
      <trkpt lat="47.68825" lon="6.83473">
        <ele>395.7</ele>
        <time>2021-08-10T07:22:47Z</time>
      </trkpt>
      <trkpt lat="47.68825" lon="6.83466">
        <ele>395.6</ele>
        <time>2021-08-10T07:22:48Z</time>
      </trkpt>
      <trkpt lat="47.68827" lon="6.83457">
        <ele>395.5</ele>
        <time>2021-08-10T07:22:50Z</time>
      </trkpt>
      <trkpt lat="47.68828" lon="6.83442">
        <ele>395.4</ele>
        <time>2021-08-10T07:22:52Z</time>
      </trkpt>
      <trkpt lat="47.68827" lon="6.83432">
        <ele>395.3</ele>
        <time>2021-08-10T07:22:54Z</time>
      </trkpt>
      <trkpt lat="47.68827" lon="6.83421">
        <ele>395.2</ele>
        <time>2021-08-10T07:22:55Z</time>
      </trkpt>
      <trkpt lat="47.68829" lon="6.8341">
        <ele>395.1</ele>
        <time>2021-08-10T07:22:57Z</time>
      </trkpt>
      <trkpt lat="47.68828" lon="6.83395">
        <ele>395.1</ele>
        <time>2021-08-10T07:22:59Z</time>
      </trkpt>
      <trkpt lat="47.68827" lon="6.83379">
        <ele>395</ele>
        <time>2021-08-10T07:23:01Z</time>
      </trkpt>
      <trkpt lat="47.68827" lon="6.83371">
        <ele>395</ele>
        <time>2021-08-10T07:23:02Z</time>
      </trkpt>
      <trkpt lat="47.68826" lon="6.83363">
        <ele>394.9</ele>
        <time>2021-08-10T07:23:03Z</time>
      </trkpt>
      <trkpt lat="47.68824" lon="6.83352">
        <ele>394.9</ele>
        <time>2021-08-10T07:23:04Z</time>
      </trkpt>
      <trkpt lat="47.68822" lon="6.83348">
        <ele>394.9</ele>
        <time>2021-08-10T07:23:06Z</time>
      </trkpt>
      <trkpt lat="47.68824" lon="6.83345">
        <ele>394.9</ele>
        <time>2021-08-10T07:23:07Z</time>
      </trkpt>
      <trkpt lat="47.6882" lon="6.83326">
        <ele>394.9</ele>
        <time>2021-08-10T07:23:09Z</time>
      </trkpt>
      <trkpt lat="47.68817" lon="6.8331">
        <ele>394.9</ele>
        <time>2021-08-10T07:23:11Z</time>
      </trkpt>
      <trkpt lat="47.68816" lon="6.83304">
        <ele>394.9</ele>
        <time>2021-08-10T07:23:12Z</time>
      </trkpt>
      <trkpt lat="47.68816" lon="6.83297">
        <ele>394.9</ele>
        <time>2021-08-10T07:23:13Z</time>
      </trkpt>
      <trkpt lat="47.68816" lon="6.83291">
        <ele>394.9</ele>
        <time>2021-08-10T07:23:14Z</time>
      </trkpt>
      <trkpt lat="47.6881" lon="6.83276">
        <ele>394.9</ele>
        <time>2021-08-10T07:23:16Z</time>
      </trkpt>
      <trkpt lat="47.68808" lon="6.83269">
        <ele>394.9</ele>
        <time>2021-08-10T07:23:17Z</time>
      </trkpt>
      <trkpt lat="47.68805" lon="6.83256">
        <ele>394.9</ele>
        <time>2021-08-10T07:23:19Z</time>
      </trkpt>
      <trkpt lat="47.68804" lon="6.83249">
        <ele>394.9</ele>
        <time>2021-08-10T07:23:20Z</time>
      </trkpt>
      <trkpt lat="47.68801" lon="6.83237">
        <ele>394.9</ele>
        <time>2021-08-10T07:23:22Z</time>
      </trkpt>
      <trkpt lat="47.688" lon="6.83225">
        <ele>394.9</ele>
        <time>2021-08-10T07:23:24Z</time>
      </trkpt>
      <trkpt lat="47.688" lon="6.83217">
        <ele>394.9</ele>
        <time>2021-08-10T07:23:25Z</time>
      </trkpt>
      <trkpt lat="47.68799" lon="6.8321">
        <ele>394.9</ele>
        <time>2021-08-10T07:23:26Z</time>
      </trkpt>
      <trkpt lat="47.68798" lon="6.83202">
        <ele>395</ele>
        <time>2021-08-10T07:23:27Z</time>
      </trkpt>
      <trkpt lat="47.68796" lon="6.83187">
        <ele>395</ele>
        <time>2021-08-10T07:23:29Z</time>
      </trkpt>
      <trkpt lat="47.68795" lon="6.83181">
        <ele>395</ele>
        <time>2021-08-10T07:23:30Z</time>
      </trkpt>
      <trkpt lat="47.68794" lon="6.83174">
        <ele>395.1</ele>
        <time>2021-08-10T07:23:31Z</time>
      </trkpt>
      <trkpt lat="47.68793" lon="6.83166">
        <ele>395.1</ele>
        <time>2021-08-10T07:23:32Z</time>
      </trkpt>
      <trkpt lat="47.68792" lon="6.83159">
        <ele>395.1</ele>
        <time>2021-08-10T07:23:33Z</time>
      </trkpt>
      <trkpt lat="47.68792" lon="6.83146">
        <ele>394.8</ele>
        <time>2021-08-10T07:23:35Z</time>
      </trkpt>
      <trkpt lat="47.68791" lon="6.83135">
        <ele>394.6</ele>
        <time>2021-08-10T07:23:37Z</time>
      </trkpt>
      <trkpt lat="47.6879" lon="6.8313">
        <ele>394.5</ele>
        <time>2021-08-10T07:23:38Z</time>
      </trkpt>
      <trkpt lat="47.6879" lon="6.83121">
        <ele>394.3</ele>
        <time>2021-08-10T07:23:39Z</time>
      </trkpt>
      <trkpt lat="47.6879" lon="6.83114">
        <ele>394.2</ele>
        <time>2021-08-10T07:23:40Z</time>
      </trkpt>
      <trkpt lat="47.68791" lon="6.83107">
        <ele>394.1</ele>
        <time>2021-08-10T07:23:42Z</time>
      </trkpt>
      <trkpt lat="47.68793" lon="6.83099">
        <ele>394</ele>
        <time>2021-08-10T07:23:43Z</time>
      </trkpt>
      <trkpt lat="47.68795" lon="6.8309">
        <ele>393.9</ele>
        <time>2021-08-10T07:23:44Z</time>
      </trkpt>
      <trkpt lat="47.68797" lon="6.83081">
        <ele>393.8</ele>
        <time>2021-08-10T07:23:46Z</time>
      </trkpt>
      <trkpt lat="47.68797" lon="6.83066">
        <ele>393.7</ele>
        <time>2021-08-10T07:23:48Z</time>
      </trkpt>
      <trkpt lat="47.68796" lon="6.83051">
        <ele>393.5</ele>
        <time>2021-08-10T07:23:50Z</time>
      </trkpt>
      <trkpt lat="47.68794" lon="6.83038">
        <ele>393.5</ele>
        <time>2021-08-10T07:23:52Z</time>
      </trkpt>
      <trkpt lat="47.68793" lon="6.83029">
        <ele>393.4</ele>
        <time>2021-08-10T07:23:53Z</time>
      </trkpt>
      <trkpt lat="47.68793" lon="6.8302">
        <ele>393.4</ele>
        <time>2021-08-10T07:23:54Z</time>
      </trkpt>
      <trkpt lat="47.68792" lon="6.83005">
        <ele>393.3</ele>
        <time>2021-08-10T07:23:56Z</time>
      </trkpt>
      <trkpt lat="47.68789" lon="6.82991">
        <ele>393.3</ele>
        <time>2021-08-10T07:23:58Z</time>
      </trkpt>
      <trkpt lat="47.68788" lon="6.82985">
        <ele>393.2</ele>
        <time>2021-08-10T07:23:59Z</time>
      </trkpt>
      <trkpt lat="47.68786" lon="6.82978">
        <ele>393.2</ele>
        <time>2021-08-10T07:24:00Z</time>
      </trkpt>
      <trkpt lat="47.68782" lon="6.8296">
        <ele>393.1</ele>
        <time>2021-08-10T07:24:02Z</time>
      </trkpt>
      <trkpt lat="47.68779" lon="6.82949">
        <ele>393</ele>
        <time>2021-08-10T07:24:04Z</time>
      </trkpt>
      <trkpt lat="47.68777" lon="6.82942">
        <ele>393</ele>
        <time>2021-08-10T07:24:05Z</time>
      </trkpt>
      <trkpt lat="47.68776" lon="6.82934">
        <ele>393</ele>
        <time>2021-08-10T07:24:06Z</time>
      </trkpt>
      <trkpt lat="47.68775" lon="6.82922">
        <ele>392.9</ele>
        <time>2021-08-10T07:24:08Z</time>
      </trkpt>
      <trkpt lat="47.68774" lon="6.8291">
        <ele>392.9</ele>
        <time>2021-08-10T07:24:09Z</time>
      </trkpt>
      <trkpt lat="47.68772" lon="6.829">
        <ele>392.9</ele>
        <time>2021-08-10T07:24:11Z</time>
      </trkpt>
      <trkpt lat="47.68771" lon="6.82891">
        <ele>392.9</ele>
        <time>2021-08-10T07:24:12Z</time>
      </trkpt>
      <trkpt lat="47.68768" lon="6.82876">
        <ele>392.9</ele>
        <time>2021-08-10T07:24:14Z</time>
      </trkpt>
      <trkpt lat="47.68763" lon="6.82863">
        <ele>392.9</ele>
        <time>2021-08-10T07:24:16Z</time>
      </trkpt>
      <trkpt lat="47.68761" lon="6.82857">
        <ele>392.9</ele>
        <time>2021-08-10T07:24:17Z</time>
      </trkpt>
      <trkpt lat="47.68759" lon="6.8285">
        <ele>392.9</ele>
        <time>2021-08-10T07:24:18Z</time>
      </trkpt>
      <trkpt lat="47.68759" lon="6.82844">
        <ele>392.9</ele>
        <time>2021-08-10T07:24:20Z</time>
      </trkpt>
      <trkpt lat="47.68756" lon="6.8284">
        <ele>392.9</ele>
        <time>2021-08-10T07:24:21Z</time>
      </trkpt>
      <trkpt lat="47.68746" lon="6.82826">
        <ele>393</ele>
        <time>2021-08-10T07:24:23Z</time>
      </trkpt>
      <trkpt lat="47.68741" lon="6.82821">
        <ele>393.1</ele>
        <time>2021-08-10T07:24:24Z</time>
      </trkpt>
      <trkpt lat="47.68736" lon="6.82809">
        <ele>393.1</ele>
        <time>2021-08-10T07:24:26Z</time>
      </trkpt>
      <trkpt lat="47.68738" lon="6.82803">
        <ele>393.2</ele>
        <time>2021-08-10T07:24:28Z</time>
      </trkpt>
      <trkpt lat="47.68727" lon="6.82786">
        <ele>393.4</ele>
        <time>2021-08-10T07:24:30Z</time>
      </trkpt>
      <trkpt lat="47.68725" lon="6.82781">
        <ele>393.5</ele>
        <time>2021-08-10T07:24:31Z</time>
      </trkpt>
      <trkpt lat="47.6872" lon="6.82781">
        <ele>393.6</ele>
        <time>2021-08-10T07:24:33Z</time>
      </trkpt>
      <trkpt lat="47.68718" lon="6.82777">
        <ele>393.6</ele>
        <time>2021-08-10T07:24:34Z</time>
      </trkpt>
      <trkpt lat="47.68713" lon="6.82763">
        <ele>393.8</ele>
        <time>2021-08-10T07:24:36Z</time>
      </trkpt>
      <trkpt lat="47.68708" lon="6.8275">
        <ele>394</ele>
        <time>2021-08-10T07:24:38Z</time>
      </trkpt>
      <trkpt lat="47.68704" lon="6.8274">
        <ele>394.1</ele>
        <time>2021-08-10T07:24:39Z</time>
      </trkpt>
      <trkpt lat="47.68701" lon="6.82734">
        <ele>394.2</ele>
        <time>2021-08-10T07:24:40Z</time>
      </trkpt>
      <trkpt lat="47.68697" lon="6.82728">
        <ele>394.3</ele>
        <time>2021-08-10T07:24:42Z</time>
      </trkpt>
      <trkpt lat="47.68695" lon="6.82723">
        <ele>394.3</ele>
        <time>2021-08-10T07:24:43Z</time>
      </trkpt>
      <trkpt lat="47.68694" lon="6.82718">
        <ele>394.3</ele>
        <time>2021-08-10T07:24:44Z</time>
      </trkpt>
      <trkpt lat="47.68691" lon="6.82714">
        <ele>394.3</ele>
        <time>2021-08-10T07:24:45Z</time>
      </trkpt>
      <trkpt lat="47.68687" lon="6.82704">
        <ele>394.3</ele>
        <time>2021-08-10T07:24:47Z</time>
      </trkpt>
      <trkpt lat="47.68685" lon="6.82699">
        <ele>394.2</ele>
        <time>2021-08-10T07:24:48Z</time>
      </trkpt>
      <trkpt lat="47.68681" lon="6.82689">
        <ele>394.1</ele>
        <time>2021-08-10T07:24:50Z</time>
      </trkpt>
      <trkpt lat="47.68677" lon="6.82679">
        <ele>394.1</ele>
        <time>2021-08-10T07:24:52Z</time>
      </trkpt>
      <trkpt lat="47.68675" lon="6.82673">
        <ele>394</ele>
        <time>2021-08-10T07:24:53Z</time>
      </trkpt>
      <trkpt lat="47.68673" lon="6.82666">
        <ele>394</ele>
        <time>2021-08-10T07:24:54Z</time>
      </trkpt>
      <trkpt lat="47.6867" lon="6.82657">
        <ele>393.9</ele>
        <time>2021-08-10T07:24:56Z</time>
      </trkpt>
      <trkpt lat="47.68666" lon="6.82646">
        <ele>393.9</ele>
        <time>2021-08-10T07:24:58Z</time>
      </trkpt>
      <trkpt lat="47.68664" lon="6.82637">
        <ele>393.8</ele>
        <time>2021-08-10T07:24:59Z</time>
      </trkpt>
      <trkpt lat="47.68662" lon="6.82631">
        <ele>393.8</ele>
        <time>2021-08-10T07:25:00Z</time>
      </trkpt>
      <trkpt lat="47.68662" lon="6.82626">
        <ele>393.8</ele>
        <time>2021-08-10T07:25:01Z</time>
      </trkpt>
      <trkpt lat="47.68663" lon="6.82617">
        <ele>393.7</ele>
        <time>2021-08-10T07:25:03Z</time>
      </trkpt>
      <trkpt lat="47.68667" lon="6.82608">
        <ele>393.7</ele>
        <time>2021-08-10T07:25:05Z</time>
      </trkpt>
      <trkpt lat="47.6867" lon="6.82601">
        <ele>393.7</ele>
        <time>2021-08-10T07:25:07Z</time>
      </trkpt>
      <trkpt lat="47.68673" lon="6.82596">
        <ele>393.7</ele>
        <time>2021-08-10T07:25:08Z</time>
      </trkpt>
      <trkpt lat="47.68678" lon="6.82584">
        <ele>393.8</ele>
        <time>2021-08-10T07:25:10Z</time>
      </trkpt>
      <trkpt lat="47.6868" lon="6.8258">
        <ele>393.8</ele>
        <time>2021-08-10T07:25:11Z</time>
      </trkpt>
      <trkpt lat="47.68684" lon="6.82571">
        <ele>393.8</ele>
        <time>2021-08-10T07:25:12Z</time>
      </trkpt>
      <trkpt lat="47.68685" lon="6.82565">
        <ele>393.8</ele>
        <time>2021-08-10T07:25:14Z</time>
      </trkpt>
      <trkpt lat="47.68687" lon="6.8256">
        <ele>393.8</ele>
        <time>2021-08-10T07:25:15Z</time>
      </trkpt>
      <trkpt lat="47.68689" lon="6.82555">
        <ele>393.8</ele>
        <time>2021-08-10T07:25:16Z</time>
      </trkpt>
      <trkpt lat="47.68691" lon="6.8255">
        <ele>393.8</ele>
        <time>2021-08-10T07:25:17Z</time>
      </trkpt>
      <trkpt lat="47.68698" lon="6.82542">
        <ele>393.8</ele>
        <time>2021-08-10T07:25:19Z</time>
      </trkpt>
      <trkpt lat="47.68703" lon="6.82535">
        <ele>393.8</ele>
        <time>2021-08-10T07:25:21Z</time>
      </trkpt>
      <trkpt lat="47.6871" lon="6.82528">
        <ele>393.9</ele>
        <time>2021-08-10T07:25:23Z</time>
      </trkpt>
      <trkpt lat="47.68712" lon="6.82524">
        <ele>393.9</ele>
        <time>2021-08-10T07:25:24Z</time>
      </trkpt>
      <trkpt lat="47.68714" lon="6.8252">
        <ele>394</ele>
        <time>2021-08-10T07:25:25Z</time>
      </trkpt>
      <trkpt lat="47.68717" lon="6.82517">
        <ele>394</ele>
        <time>2021-08-10T07:25:26Z</time>
      </trkpt>
      <trkpt lat="47.68721" lon="6.82511">
        <ele>394</ele>
        <time>2021-08-10T07:25:28Z</time>
      </trkpt>
      <trkpt lat="47.68724" lon="6.82508">
        <ele>394.1</ele>
        <time>2021-08-10T07:25:29Z</time>
      </trkpt>
      <trkpt lat="47.68728" lon="6.82502">
        <ele>394.1</ele>
        <time>2021-08-10T07:25:31Z</time>
      </trkpt>
      <trkpt lat="47.68734" lon="6.82498">
        <ele>394.1</ele>
        <time>2021-08-10T07:25:33Z</time>
      </trkpt>
      <trkpt lat="47.68738" lon="6.82498">
        <ele>394.2</ele>
        <time>2021-08-10T07:25:34Z</time>
      </trkpt>
      <trkpt lat="47.68743" lon="6.82497">
        <ele>394.2</ele>
        <time>2021-08-10T07:25:35Z</time>
      </trkpt>
      <trkpt lat="47.68751" lon="6.82494">
        <ele>394.2</ele>
        <time>2021-08-10T07:25:37Z</time>
      </trkpt>
      <trkpt lat="47.68759" lon="6.82492">
        <ele>394.3</ele>
        <time>2021-08-10T07:25:39Z</time>
      </trkpt>
      <trkpt lat="47.68763" lon="6.8249">
        <ele>394.3</ele>
        <time>2021-08-10T07:25:40Z</time>
      </trkpt>
      <trkpt lat="47.68772" lon="6.82486">
        <ele>394.4</ele>
        <time>2021-08-10T07:25:42Z</time>
      </trkpt>
      <trkpt lat="47.68775" lon="6.82484">
        <ele>394.5</ele>
        <time>2021-08-10T07:25:43Z</time>
      </trkpt>
      <trkpt lat="47.68781" lon="6.82479">
        <ele>394.6</ele>
        <time>2021-08-10T07:25:44Z</time>
      </trkpt>
      <trkpt lat="47.68784" lon="6.82477">
        <ele>394.6</ele>
        <time>2021-08-10T07:25:45Z</time>
      </trkpt>
      <trkpt lat="47.68787" lon="6.82474">
        <ele>394.7</ele>
        <time>2021-08-10T07:25:47Z</time>
      </trkpt>
      <trkpt lat="47.6879" lon="6.8247">
        <ele>394.8</ele>
        <time>2021-08-10T07:25:48Z</time>
      </trkpt>
      <trkpt lat="47.68793" lon="6.82464">
        <ele>394.9</ele>
        <time>2021-08-10T07:25:50Z</time>
      </trkpt>
      <trkpt lat="47.68794" lon="6.82458">
        <ele>395.1</ele>
        <time>2021-08-10T07:25:51Z</time>
      </trkpt>
      <trkpt lat="47.68794" lon="6.82453">
        <ele>395.2</ele>
        <time>2021-08-10T07:25:52Z</time>
      </trkpt>
      <trkpt lat="47.68794" lon="6.82447">
        <ele>395.3</ele>
        <time>2021-08-10T07:25:53Z</time>
      </trkpt>
      <trkpt lat="47.68793" lon="6.82442">
        <ele>395.3</ele>
        <time>2021-08-10T07:25:55Z</time>
      </trkpt>
      <trkpt lat="47.68792" lon="6.82437">
        <ele>395.4</ele>
        <time>2021-08-10T07:25:56Z</time>
      </trkpt>
      <trkpt lat="47.68791" lon="6.82433">
        <ele>395.4</ele>
        <time>2021-08-10T07:25:57Z</time>
      </trkpt>
      <trkpt lat="47.68787" lon="6.82431">
        <ele>395.4</ele>
        <time>2021-08-10T07:25:58Z</time>
      </trkpt>
      <trkpt lat="47.68786" lon="6.82431">
        <ele>395.4</ele>
        <time>2021-08-10T07:25:59Z</time>
      </trkpt>
      <trkpt lat="47.68784" lon="6.82428">
        <ele>395.4</ele>
        <time>2021-08-10T07:26:00Z</time>
      </trkpt>
      <trkpt lat="47.68778" lon="6.8242">
        <ele>395.4</ele>
        <time>2021-08-10T07:26:02Z</time>
      </trkpt>
      <trkpt lat="47.68772" lon="6.82412">
        <ele>395.2</ele>
        <time>2021-08-10T07:26:04Z</time>
      </trkpt>
      <trkpt lat="47.68769" lon="6.82408">
        <ele>395.1</ele>
        <time>2021-08-10T07:26:05Z</time>
      </trkpt>
      <trkpt lat="47.68765" lon="6.82405">
        <ele>395</ele>
        <time>2021-08-10T07:26:06Z</time>
      </trkpt>
      <trkpt lat="47.68758" lon="6.82397">
        <ele>394.8</ele>
        <time>2021-08-10T07:26:08Z</time>
      </trkpt>
      <trkpt lat="47.68751" lon="6.82389">
        <ele>394.7</ele>
        <time>2021-08-10T07:26:10Z</time>
      </trkpt>
      <trkpt lat="47.68749" lon="6.82388">
        <ele>394.7</ele>
        <time>2021-08-10T07:26:11Z</time>
      </trkpt>
      <trkpt lat="47.68743" lon="6.8238">
        <ele>394.6</ele>
        <time>2021-08-10T07:26:13Z</time>
      </trkpt>
      <trkpt lat="47.68739" lon="6.82374">
        <ele>394.6</ele>
        <time>2021-08-10T07:26:14Z</time>
      </trkpt>
      <trkpt lat="47.68733" lon="6.82363">
        <ele>394.5</ele>
        <time>2021-08-10T07:26:16Z</time>
      </trkpt>
      <trkpt lat="47.6873" lon="6.82358">
        <ele>394.4</ele>
        <time>2021-08-10T07:26:17Z</time>
      </trkpt>
      <trkpt lat="47.68726" lon="6.82353">
        <ele>394.4</ele>
        <time>2021-08-10T07:26:18Z</time>
      </trkpt>
      <trkpt lat="47.68723" lon="6.82349">
        <ele>394.3</ele>
        <time>2021-08-10T07:26:19Z</time>
      </trkpt>
      <trkpt lat="47.68719" lon="6.82344">
        <ele>394.3</ele>
        <time>2021-08-10T07:26:20Z</time>
      </trkpt>
      <trkpt lat="47.68713" lon="6.82333">
        <ele>394.1</ele>
        <time>2021-08-10T07:26:22Z</time>
      </trkpt>
      <trkpt lat="47.68709" lon="6.82327">
        <ele>394.1</ele>
        <time>2021-08-10T07:26:23Z</time>
      </trkpt>
      <trkpt lat="47.68706" lon="6.82321">
        <ele>394</ele>
        <time>2021-08-10T07:26:24Z</time>
      </trkpt>
      <trkpt lat="47.68699" lon="6.8231">
        <ele>393.9</ele>
        <time>2021-08-10T07:26:26Z</time>
      </trkpt>
      <trkpt lat="47.68693" lon="6.82298">
        <ele>393.8</ele>
        <time>2021-08-10T07:26:28Z</time>
      </trkpt>
      <trkpt lat="47.68686" lon="6.82286">
        <ele>393.6</ele>
        <time>2021-08-10T07:26:30Z</time>
      </trkpt>
      <trkpt lat="47.6868" lon="6.82273">
        <ele>393.5</ele>
        <time>2021-08-10T07:26:32Z</time>
      </trkpt>
      <trkpt lat="47.68672" lon="6.82261">
        <ele>393.3</ele>
        <time>2021-08-10T07:26:34Z</time>
      </trkpt>
      <trkpt lat="47.68666" lon="6.82248">
        <ele>393.2</ele>
        <time>2021-08-10T07:26:36Z</time>
      </trkpt>
      <trkpt lat="47.68663" lon="6.82242">
        <ele>393.1</ele>
        <time>2021-08-10T07:26:37Z</time>
      </trkpt>
      <trkpt lat="47.68659" lon="6.82235">
        <ele>393.1</ele>
        <time>2021-08-10T07:26:38Z</time>
      </trkpt>
      <trkpt lat="47.68652" lon="6.82221">
        <ele>393</ele>
        <time>2021-08-10T07:26:40Z</time>
      </trkpt>
      <trkpt lat="47.68645" lon="6.82208">
        <ele>393</ele>
        <time>2021-08-10T07:26:42Z</time>
      </trkpt>
      <trkpt lat="47.68641" lon="6.82202">
        <ele>392.9</ele>
        <time>2021-08-10T07:26:43Z</time>
      </trkpt>
      <trkpt lat="47.68637" lon="6.82195">
        <ele>392.9</ele>
        <time>2021-08-10T07:26:44Z</time>
      </trkpt>
      <trkpt lat="47.68629" lon="6.82182">
        <ele>392.7</ele>
        <time>2021-08-10T07:26:46Z</time>
      </trkpt>
      <trkpt lat="47.68626" lon="6.82175">
        <ele>392.7</ele>
        <time>2021-08-10T07:26:47Z</time>
      </trkpt>
      <trkpt lat="47.68619" lon="6.82162">
        <ele>392.6</ele>
        <time>2021-08-10T07:26:49Z</time>
      </trkpt>
      <trkpt lat="47.68615" lon="6.82156">
        <ele>392.5</ele>
        <time>2021-08-10T07:26:50Z</time>
      </trkpt>
      <trkpt lat="47.68607" lon="6.82143">
        <ele>392.4</ele>
        <time>2021-08-10T07:26:52Z</time>
      </trkpt>
      <trkpt lat="47.68603" lon="6.82137">
        <ele>392.4</ele>
        <time>2021-08-10T07:26:53Z</time>
      </trkpt>
      <trkpt lat="47.68599" lon="6.8213">
        <ele>392.4</ele>
        <time>2021-08-10T07:26:54Z</time>
      </trkpt>
      <trkpt lat="47.68595" lon="6.82123">
        <ele>392.3</ele>
        <time>2021-08-10T07:26:55Z</time>
      </trkpt>
      <trkpt lat="47.68588" lon="6.82111">
        <ele>392.3</ele>
        <time>2021-08-10T07:26:57Z</time>
      </trkpt>
      <trkpt lat="47.6858" lon="6.82098">
        <ele>392.2</ele>
        <time>2021-08-10T07:26:59Z</time>
      </trkpt>
      <trkpt lat="47.68577" lon="6.82092">
        <ele>392.2</ele>
        <time>2021-08-10T07:27:00Z</time>
      </trkpt>
      <trkpt lat="47.6857" lon="6.8208">
        <ele>392.3</ele>
        <time>2021-08-10T07:27:02Z</time>
      </trkpt>
      <trkpt lat="47.68563" lon="6.82069">
        <ele>392.4</ele>
        <time>2021-08-10T07:27:04Z</time>
      </trkpt>
      <trkpt lat="47.68555" lon="6.82059">
        <ele>392.6</ele>
        <time>2021-08-10T07:27:06Z</time>
      </trkpt>
      <trkpt lat="47.68551" lon="6.82053">
        <ele>392.7</ele>
        <time>2021-08-10T07:27:07Z</time>
      </trkpt>
      <trkpt lat="47.68548" lon="6.82048">
        <ele>392.8</ele>
        <time>2021-08-10T07:27:08Z</time>
      </trkpt>
      <trkpt lat="47.68543" lon="6.8204">
        <ele>392.9</ele>
        <time>2021-08-10T07:27:10Z</time>
      </trkpt>
      <trkpt lat="47.68541" lon="6.82036">
        <ele>393</ele>
        <time>2021-08-10T07:27:11Z</time>
      </trkpt>
      <trkpt lat="47.68538" lon="6.82028">
        <ele>393</ele>
        <time>2021-08-10T07:27:13Z</time>
      </trkpt>
      <trkpt lat="47.68539" lon="6.82024">
        <ele>393.1</ele>
        <time>2021-08-10T07:27:14Z</time>
      </trkpt>
      <trkpt lat="47.68539" lon="6.82016">
        <ele>393</ele>
        <time>2021-08-10T07:27:16Z</time>
      </trkpt>
      <trkpt lat="47.68539" lon="6.82011">
        <ele>393</ele>
        <time>2021-08-10T07:27:17Z</time>
      </trkpt>
      <trkpt lat="47.68539" lon="6.82007">
        <ele>393</ele>
        <time>2021-08-10T07:27:18Z</time>
      </trkpt>
      <trkpt lat="47.68539" lon="6.82002">
        <ele>393</ele>
        <time>2021-08-10T07:27:19Z</time>
      </trkpt>
      <trkpt lat="47.68537" lon="6.81995">
        <ele>392.9</ele>
        <time>2021-08-10T07:27:21Z</time>
      </trkpt>
      <trkpt lat="47.68536" lon="6.81989">
        <ele>392.8</ele>
        <time>2021-08-10T07:27:22Z</time>
      </trkpt>
      <trkpt lat="47.68533" lon="6.81981">
        <ele>392.7</ele>
        <time>2021-08-10T07:27:24Z</time>
      </trkpt>
      <trkpt lat="47.6853" lon="6.81971">
        <ele>392.6</ele>
        <time>2021-08-10T07:27:26Z</time>
      </trkpt>
      <trkpt lat="47.68529" lon="6.81966">
        <ele>392.6</ele>
        <time>2021-08-10T07:27:27Z</time>
      </trkpt>
      <trkpt lat="47.68524" lon="6.81958">
        <ele>392.5</ele>
        <time>2021-08-10T07:27:28Z</time>
      </trkpt>
      <trkpt lat="47.68522" lon="6.81952">
        <ele>392.4</ele>
        <time>2021-08-10T07:27:29Z</time>
      </trkpt>
      <trkpt lat="47.6852" lon="6.81947">
        <ele>392.4</ele>
        <time>2021-08-10T07:27:31Z</time>
      </trkpt>
      <trkpt lat="47.68519" lon="6.81942">
        <ele>392.3</ele>
        <time>2021-08-10T07:27:32Z</time>
      </trkpt>
      <trkpt lat="47.68517" lon="6.81934">
        <ele>392.2</ele>
        <time>2021-08-10T07:27:33Z</time>
      </trkpt>
      <trkpt lat="47.68516" lon="6.81927">
        <ele>392.1</ele>
        <time>2021-08-10T07:27:34Z</time>
      </trkpt>
      <trkpt lat="47.68512" lon="6.81915">
        <ele>391.9</ele>
        <time>2021-08-10T07:27:36Z</time>
      </trkpt>
      <trkpt lat="47.68511" lon="6.81909">
        <ele>391.8</ele>
        <time>2021-08-10T07:27:37Z</time>
      </trkpt>
      <trkpt lat="47.68509" lon="6.81901">
        <ele>391.7</ele>
        <time>2021-08-10T07:27:38Z</time>
      </trkpt>
      <trkpt lat="47.68505" lon="6.81888">
        <ele>391.5</ele>
        <time>2021-08-10T07:27:40Z</time>
      </trkpt>
      <trkpt lat="47.68503" lon="6.81881">
        <ele>391.4</ele>
        <time>2021-08-10T07:27:41Z</time>
      </trkpt>
      <trkpt lat="47.685" lon="6.81866">
        <ele>391.3</ele>
        <time>2021-08-10T07:27:43Z</time>
      </trkpt>
      <trkpt lat="47.68498" lon="6.81858">
        <ele>391.2</ele>
        <time>2021-08-10T07:27:44Z</time>
      </trkpt>
      <trkpt lat="47.68494" lon="6.81843">
        <ele>391</ele>
        <time>2021-08-10T07:27:46Z</time>
      </trkpt>
      <trkpt lat="47.68492" lon="6.81836">
        <ele>390.9</ele>
        <time>2021-08-10T07:27:47Z</time>
      </trkpt>
      <trkpt lat="47.6849" lon="6.81829">
        <ele>390.9</ele>
        <time>2021-08-10T07:27:48Z</time>
      </trkpt>
      <trkpt lat="47.68488" lon="6.81821">
        <ele>390.8</ele>
        <time>2021-08-10T07:27:49Z</time>
      </trkpt>
      <trkpt lat="47.68486" lon="6.81813">
        <ele>390.8</ele>
        <time>2021-08-10T07:27:50Z</time>
      </trkpt>
      <trkpt lat="47.68482" lon="6.81798">
        <ele>390.7</ele>
        <time>2021-08-10T07:27:52Z</time>
      </trkpt>
      <trkpt lat="47.6848" lon="6.81791">
        <ele>390.7</ele>
        <time>2021-08-10T07:27:53Z</time>
      </trkpt>
      <trkpt lat="47.68479" lon="6.81783">
        <ele>390.7</ele>
        <time>2021-08-10T07:27:54Z</time>
      </trkpt>
      <trkpt lat="47.68478" lon="6.81777">
        <ele>390.7</ele>
        <time>2021-08-10T07:27:55Z</time>
      </trkpt>
      <trkpt lat="47.68476" lon="6.8177">
        <ele>390.7</ele>
        <time>2021-08-10T07:27:56Z</time>
      </trkpt>
      <trkpt lat="47.68476" lon="6.81763">
        <ele>390.3</ele>
        <time>2021-08-10T07:27:57Z</time>
      </trkpt>
      <trkpt lat="47.68474" lon="6.81751">
        <ele>390.2</ele>
        <time>2021-08-10T07:27:59Z</time>
      </trkpt>
      <trkpt lat="47.68473" lon="6.81744">
        <ele>390.2</ele>
        <time>2021-08-10T07:28:00Z</time>
      </trkpt>
      <trkpt lat="47.68473" lon="6.81737">
        <ele>390.1</ele>
        <time>2021-08-10T07:28:01Z</time>
      </trkpt>
      <trkpt lat="47.68474" lon="6.81732">
        <ele>390.1</ele>
        <time>2021-08-10T07:28:02Z</time>
      </trkpt>
      <trkpt lat="47.68475" lon="6.81723">
        <ele>390.1</ele>
        <time>2021-08-10T07:28:03Z</time>
      </trkpt>
      <trkpt lat="47.68475" lon="6.81715">
        <ele>390</ele>
        <time>2021-08-10T07:28:05Z</time>
      </trkpt>
      <trkpt lat="47.68476" lon="6.81708">
        <ele>390</ele>
        <time>2021-08-10T07:28:06Z</time>
      </trkpt>
      <trkpt lat="47.68476" lon="6.817">
        <ele>389.9</ele>
        <time>2021-08-10T07:28:07Z</time>
      </trkpt>
      <trkpt lat="47.68476" lon="6.81691">
        <ele>389.9</ele>
        <time>2021-08-10T07:28:09Z</time>
      </trkpt>
      <trkpt lat="47.68476" lon="6.81681">
        <ele>389.9</ele>
        <time>2021-08-10T07:28:10Z</time>
      </trkpt>
      <trkpt lat="47.68476" lon="6.81671">
        <ele>389.9</ele>
        <time>2021-08-10T07:28:12Z</time>
      </trkpt>
      <trkpt lat="47.68476" lon="6.81664">
        <ele>389.9</ele>
        <time>2021-08-10T07:28:13Z</time>
      </trkpt>
      <trkpt lat="47.68475" lon="6.81651">
        <ele>389.9</ele>
        <time>2021-08-10T07:28:15Z</time>
      </trkpt>
      <trkpt lat="47.68474" lon="6.81643">
        <ele>389.9</ele>
        <time>2021-08-10T07:28:16Z</time>
      </trkpt>
      <trkpt lat="47.68474" lon="6.81633">
        <ele>389.8</ele>
        <time>2021-08-10T07:28:17Z</time>
      </trkpt>
      <trkpt lat="47.68474" lon="6.81622">
        <ele>389.8</ele>
        <time>2021-08-10T07:28:19Z</time>
      </trkpt>
      <trkpt lat="47.68473" lon="6.81614">
        <ele>389.8</ele>
        <time>2021-08-10T07:28:20Z</time>
      </trkpt>
      <trkpt lat="47.68472" lon="6.81607">
        <ele>389.8</ele>
        <time>2021-08-10T07:28:21Z</time>
      </trkpt>
      <trkpt lat="47.68473" lon="6.81599">
        <ele>389.8</ele>
        <time>2021-08-10T07:28:22Z</time>
      </trkpt>
      <trkpt lat="47.68475" lon="6.81592">
        <ele>389.8</ele>
        <time>2021-08-10T07:28:23Z</time>
      </trkpt>
      <trkpt lat="47.68476" lon="6.81583">
        <ele>389.8</ele>
        <time>2021-08-10T07:28:24Z</time>
      </trkpt>
      <trkpt lat="47.68477" lon="6.81575">
        <ele>389.8</ele>
        <time>2021-08-10T07:28:26Z</time>
      </trkpt>
      <trkpt lat="47.68478" lon="6.81568">
        <ele>389.7</ele>
        <time>2021-08-10T07:28:27Z</time>
      </trkpt>
      <trkpt lat="47.6848" lon="6.81559">
        <ele>389.7</ele>
        <time>2021-08-10T07:28:28Z</time>
      </trkpt>
      <trkpt lat="47.6848" lon="6.81551">
        <ele>389.7</ele>
        <time>2021-08-10T07:28:30Z</time>
      </trkpt>
      <trkpt lat="47.68482" lon="6.8154">
        <ele>389.7</ele>
        <time>2021-08-10T07:28:31Z</time>
      </trkpt>
      <trkpt lat="47.68482" lon="6.81533">
        <ele>389.7</ele>
        <time>2021-08-10T07:28:33Z</time>
      </trkpt>
      <trkpt lat="47.68483" lon="6.81523">
        <ele>389.7</ele>
        <time>2021-08-10T07:28:34Z</time>
      </trkpt>
      <trkpt lat="47.68484" lon="6.81516">
        <ele>389.6</ele>
        <time>2021-08-10T07:28:36Z</time>
      </trkpt>
      <trkpt lat="47.68485" lon="6.81503">
        <ele>389.6</ele>
        <time>2021-08-10T07:28:38Z</time>
      </trkpt>
      <trkpt lat="47.68486" lon="6.81497">
        <ele>389.6</ele>
        <time>2021-08-10T07:28:39Z</time>
      </trkpt>
      <trkpt lat="47.68485" lon="6.81488">
        <ele>389.6</ele>
        <time>2021-08-10T07:28:40Z</time>
      </trkpt>
      <trkpt lat="47.68484" lon="6.81479">
        <ele>389.6</ele>
        <time>2021-08-10T07:28:42Z</time>
      </trkpt>
      <trkpt lat="47.68483" lon="6.81473">
        <ele>389.6</ele>
        <time>2021-08-10T07:28:43Z</time>
      </trkpt>
      <trkpt lat="47.68482" lon="6.81467">
        <ele>389.6</ele>
        <time>2021-08-10T07:28:44Z</time>
      </trkpt>
      <trkpt lat="47.6848" lon="6.81457">
        <ele>389.6</ele>
        <time>2021-08-10T07:28:46Z</time>
      </trkpt>
      <trkpt lat="47.68478" lon="6.81451">
        <ele>389.6</ele>
        <time>2021-08-10T07:28:47Z</time>
      </trkpt>
      <trkpt lat="47.68476" lon="6.81444">
        <ele>389.6</ele>
        <time>2021-08-10T07:28:48Z</time>
      </trkpt>
      <trkpt lat="47.68475" lon="6.81436">
        <ele>389.6</ele>
        <time>2021-08-10T07:28:49Z</time>
      </trkpt>
      <trkpt lat="47.68474" lon="6.81429">
        <ele>389.6</ele>
        <time>2021-08-10T07:28:51Z</time>
      </trkpt>
      <trkpt lat="47.68473" lon="6.8142">
        <ele>389.6</ele>
        <time>2021-08-10T07:28:52Z</time>
      </trkpt>
      <trkpt lat="47.68473" lon="6.81415">
        <ele>389.6</ele>
        <time>2021-08-10T07:28:53Z</time>
      </trkpt>
      <trkpt lat="47.68472" lon="6.81408">
        <ele>389.6</ele>
        <time>2021-08-10T07:28:55Z</time>
      </trkpt>
      <trkpt lat="47.6847" lon="6.81399">
        <ele>389.5</ele>
        <time>2021-08-10T07:28:56Z</time>
      </trkpt>
      <trkpt lat="47.6847" lon="6.81391">
        <ele>389.5</ele>
        <time>2021-08-10T07:28:58Z</time>
      </trkpt>
      <trkpt lat="47.68469" lon="6.81386">
        <ele>389.5</ele>
        <time>2021-08-10T07:28:59Z</time>
      </trkpt>
      <trkpt lat="47.68469" lon="6.81381">
        <ele>389.5</ele>
        <time>2021-08-10T07:29:00Z</time>
      </trkpt>
      <trkpt lat="47.68468" lon="6.8137">
        <ele>389.5</ele>
        <time>2021-08-10T07:29:01Z</time>
      </trkpt>
      <trkpt lat="47.68468" lon="6.81361">
        <ele>389.6</ele>
        <time>2021-08-10T07:29:03Z</time>
      </trkpt>
      <trkpt lat="47.68468" lon="6.81355">
        <ele>389.6</ele>
        <time>2021-08-10T07:29:04Z</time>
      </trkpt>
      <trkpt lat="47.68468" lon="6.81346">
        <ele>389.5</ele>
        <time>2021-08-10T07:29:05Z</time>
      </trkpt>
      <trkpt lat="47.68468" lon="6.81338">
        <ele>389.5</ele>
        <time>2021-08-10T07:29:06Z</time>
      </trkpt>
      <trkpt lat="47.68467" lon="6.8133">
        <ele>389.5</ele>
        <time>2021-08-10T07:29:08Z</time>
      </trkpt>
      <trkpt lat="47.68465" lon="6.81318">
        <ele>389.5</ele>
        <time>2021-08-10T07:29:10Z</time>
      </trkpt>
      <trkpt lat="47.68464" lon="6.81311">
        <ele>389.5</ele>
        <time>2021-08-10T07:29:11Z</time>
      </trkpt>
      <trkpt lat="47.68464" lon="6.81306">
        <ele>389.5</ele>
        <time>2021-08-10T07:29:12Z</time>
      </trkpt>
      <trkpt lat="47.68463" lon="6.81295">
        <ele>389.5</ele>
        <time>2021-08-10T07:29:14Z</time>
      </trkpt>
      <trkpt lat="47.68462" lon="6.81288">
        <ele>389.5</ele>
        <time>2021-08-10T07:29:15Z</time>
      </trkpt>
      <trkpt lat="47.68462" lon="6.81279">
        <ele>389.5</ele>
        <time>2021-08-10T07:29:17Z</time>
      </trkpt>
      <trkpt lat="47.68462" lon="6.81273">
        <ele>389.5</ele>
        <time>2021-08-10T07:29:18Z</time>
      </trkpt>
      <trkpt lat="47.68462" lon="6.81265">
        <ele>389.5</ele>
        <time>2021-08-10T07:29:19Z</time>
      </trkpt>
      <trkpt lat="47.6846" lon="6.81256">
        <ele>389.4</ele>
        <time>2021-08-10T07:29:21Z</time>
      </trkpt>
      <trkpt lat="47.68459" lon="6.8125">
        <ele>389.5</ele>
        <time>2021-08-10T07:29:22Z</time>
      </trkpt>
      <trkpt lat="47.68459" lon="6.81245">
        <ele>389.5</ele>
        <time>2021-08-10T07:29:23Z</time>
      </trkpt>
      <trkpt lat="47.68458" lon="6.8124">
        <ele>389.5</ele>
        <time>2021-08-10T07:29:24Z</time>
      </trkpt>
      <trkpt lat="47.68455" lon="6.81235">
        <ele>389.5</ele>
        <time>2021-08-10T07:29:26Z</time>
      </trkpt>
      <trkpt lat="47.68452" lon="6.81233">
        <ele>389.5</ele>
        <time>2021-08-10T07:29:27Z</time>
      </trkpt>
      <trkpt lat="47.68451" lon="6.81232">
        <ele>389.5</ele>
        <time>2021-08-10T07:29:29Z</time>
      </trkpt>
      <trkpt lat="47.6845" lon="6.8123">
        <ele>389.6</ele>
        <time>2021-08-10T07:29:30Z</time>
      </trkpt>
      <trkpt lat="47.68449" lon="6.81227">
        <ele>389.6</ele>
        <time>2021-08-10T07:29:32Z</time>
      </trkpt>
      <trkpt lat="47.6845" lon="6.81222">
        <ele>389.6</ele>
        <time>2021-08-10T07:29:34Z</time>
      </trkpt>
      <trkpt lat="47.6845" lon="6.81215">
        <ele>389.6</ele>
        <time>2021-08-10T07:29:36Z</time>
      </trkpt>
      <trkpt lat="47.68451" lon="6.81208">
        <ele>389.7</ele>
        <time>2021-08-10T07:29:38Z</time>
      </trkpt>
      <trkpt lat="47.68451" lon="6.81201">
        <ele>389.7</ele>
        <time>2021-08-10T07:29:40Z</time>
      </trkpt>
      <trkpt lat="47.68452" lon="6.81193">
        <ele>389.8</ele>
        <time>2021-08-10T07:29:42Z</time>
      </trkpt>
      <trkpt lat="47.68452" lon="6.81187">
        <ele>389.8</ele>
        <time>2021-08-10T07:29:43Z</time>
      </trkpt>
      <trkpt lat="47.68453" lon="6.81185">
        <ele>389.9</ele>
        <time>2021-08-10T07:29:44Z</time>
      </trkpt>
      <trkpt lat="47.68452" lon="6.81176">
        <ele>389.9</ele>
        <time>2021-08-10T07:29:46Z</time>
      </trkpt>
      <trkpt lat="47.68451" lon="6.81171">
        <ele>390</ele>
        <time>2021-08-10T07:29:47Z</time>
      </trkpt>
      <trkpt lat="47.68451" lon="6.81162">
        <ele>390.1</ele>
        <time>2021-08-10T07:29:49Z</time>
      </trkpt>
      <trkpt lat="47.68451" lon="6.81157">
        <ele>390.1</ele>
        <time>2021-08-10T07:29:50Z</time>
      </trkpt>
      <trkpt lat="47.68449" lon="6.81149">
        <ele>390.2</ele>
        <time>2021-08-10T07:29:52Z</time>
      </trkpt>
      <trkpt lat="47.68447" lon="6.8114">
        <ele>390.2</ele>
        <time>2021-08-10T07:29:54Z</time>
      </trkpt>
      <trkpt lat="47.68445" lon="6.81136">
        <ele>390.3</ele>
        <time>2021-08-10T07:29:55Z</time>
      </trkpt>
      <trkpt lat="47.68443" lon="6.81129">
        <ele>390.3</ele>
        <time>2021-08-10T07:29:57Z</time>
      </trkpt>
      <trkpt lat="47.68441" lon="6.81124">
        <ele>390.4</ele>
        <time>2021-08-10T07:29:58Z</time>
      </trkpt>
      <trkpt lat="47.6844" lon="6.81119">
        <ele>390.4</ele>
        <time>2021-08-10T07:29:59Z</time>
      </trkpt>
      <trkpt lat="47.68438" lon="6.81112">
        <ele>390.4</ele>
        <time>2021-08-10T07:30:00Z</time>
      </trkpt>
      <trkpt lat="47.68437" lon="6.81107">
        <ele>390.5</ele>
        <time>2021-08-10T07:30:01Z</time>
      </trkpt>
      <trkpt lat="47.68436" lon="6.81103">
        <ele>390.5</ele>
        <time>2021-08-10T07:30:03Z</time>
      </trkpt>
      <trkpt lat="47.68434" lon="6.81099">
        <ele>390.5</ele>
        <time>2021-08-10T07:30:04Z</time>
      </trkpt>
      <trkpt lat="47.68434" lon="6.81093">
        <ele>390.6</ele>
        <time>2021-08-10T07:30:05Z</time>
      </trkpt>
      <trkpt lat="47.68434" lon="6.81084">
        <ele>390.6</ele>
        <time>2021-08-10T07:30:07Z</time>
      </trkpt>
      <trkpt lat="47.68433" lon="6.8108">
        <ele>390.6</ele>
        <time>2021-08-10T07:30:08Z</time>
      </trkpt>
      <trkpt lat="47.68431" lon="6.81075">
        <ele>390.7</ele>
        <time>2021-08-10T07:30:09Z</time>
      </trkpt>
      <trkpt lat="47.68428" lon="6.81071">
        <ele>390.7</ele>
        <time>2021-08-10T07:30:11Z</time>
      </trkpt>
      <trkpt lat="47.68427" lon="6.81067">
        <ele>390.7</ele>
        <time>2021-08-10T07:30:12Z</time>
      </trkpt>
      <trkpt lat="47.68425" lon="6.81061">
        <ele>390.8</ele>
        <time>2021-08-10T07:30:14Z</time>
      </trkpt>
      <trkpt lat="47.68424" lon="6.81054">
        <ele>390.8</ele>
        <time>2021-08-10T07:30:16Z</time>
      </trkpt>
      <trkpt lat="47.68422" lon="6.81046">
        <ele>390.8</ele>
        <time>2021-08-10T07:30:18Z</time>
      </trkpt>
      <trkpt lat="47.68421" lon="6.81038">
        <ele>390.8</ele>
        <time>2021-08-10T07:30:20Z</time>
      </trkpt>
      <trkpt lat="47.68419" lon="6.81031">
        <ele>390.8</ele>
        <time>2021-08-10T07:30:22Z</time>
      </trkpt>
      <trkpt lat="47.68418" lon="6.81028">
        <ele>390.7</ele>
        <time>2021-08-10T07:30:23Z</time>
      </trkpt>
      <trkpt lat="47.68415" lon="6.81025">
        <ele>390.7</ele>
        <time>2021-08-10T07:30:25Z</time>
      </trkpt>
      <trkpt lat="47.68413" lon="6.81025">
        <ele>390.6</ele>
        <time>2021-08-10T07:30:26Z</time>
      </trkpt>
      <trkpt lat="47.68412" lon="6.81026">
        <ele>390.6</ele>
        <time>2021-08-10T07:30:27Z</time>
      </trkpt>
      <trkpt lat="47.68411" lon="6.81027">
        <ele>390.6</ele>
        <time>2021-08-10T07:30:28Z</time>
      </trkpt>
      <trkpt lat="47.68407" lon="6.81029">
        <ele>390.5</ele>
        <time>2021-08-10T07:30:30Z</time>
      </trkpt>
      <trkpt lat="47.68402" lon="6.81033">
        <ele>390.4</ele>
        <time>2021-08-10T07:30:32Z</time>
      </trkpt>
      <trkpt lat="47.68398" lon="6.81034">
        <ele>390.3</ele>
        <time>2021-08-10T07:30:33Z</time>
      </trkpt>
      <trkpt lat="47.68395" lon="6.81033">
        <ele>390.2</ele>
        <time>2021-08-10T07:30:34Z</time>
      </trkpt>
      <trkpt lat="47.6839" lon="6.81031">
        <ele>390.1</ele>
        <time>2021-08-10T07:30:36Z</time>
      </trkpt>
      <trkpt lat="47.68386" lon="6.8103">
        <ele>390</ele>
        <time>2021-08-10T07:30:38Z</time>
      </trkpt>
      <trkpt lat="47.68385" lon="6.81032">
        <ele>390</ele>
        <time>2021-08-10T07:30:39Z</time>
      </trkpt>
      <trkpt lat="47.68384" lon="6.81033">
        <ele>390</ele>
        <time>2021-08-10T07:30:40Z</time>
      </trkpt>
      <trkpt lat="47.68383" lon="6.81034">
        <ele>389.9</ele>
        <time>2021-08-10T07:30:42Z</time>
      </trkpt>
      <trkpt lat="47.68382" lon="6.81035">
        <ele>389.9</ele>
        <time>2021-08-10T07:30:44Z</time>
      </trkpt>
      <trkpt lat="47.68381" lon="6.81036">
        <ele>389.9</ele>
        <time>2021-08-10T07:30:45Z</time>
      </trkpt>
      <trkpt lat="47.6838" lon="6.81037">
        <ele>389.8</ele>
        <time>2021-08-10T07:30:47Z</time>
      </trkpt>
      <trkpt lat="47.68379" lon="6.81038">
        <ele>389.8</ele>
        <time>2021-08-10T07:30:49Z</time>
      </trkpt>
      <trkpt lat="47.68378" lon="6.81039">
        <ele>389.8</ele>
        <time>2021-08-10T07:32:08Z</time>
      </trkpt>
      <trkpt lat="47.68377" lon="6.8104">
        <ele>389.8</ele>
        <time>2021-08-10T07:32:09Z</time>
      </trkpt>
      <trkpt lat="47.68376" lon="6.81048">
        <ele>389.8</ele>
        <time>2021-08-10T07:32:10Z</time>
      </trkpt>
      <trkpt lat="47.68376" lon="6.81054">
        <ele>389.7</ele>
        <time>2021-08-10T07:32:11Z</time>
      </trkpt>
      <trkpt lat="47.68377" lon="6.81061">
        <ele>389.7</ele>
        <time>2021-08-10T07:32:13Z</time>
      </trkpt>
      <trkpt lat="47.68377" lon="6.81067">
        <ele>389.7</ele>
        <time>2021-08-10T07:32:14Z</time>
      </trkpt>
      <trkpt lat="47.68377" lon="6.81073">
        <ele>389.7</ele>
        <time>2021-08-10T07:32:15Z</time>
      </trkpt>
      <trkpt lat="47.68377" lon="6.81083">
        <ele>389.6</ele>
        <time>2021-08-10T07:32:16Z</time>
      </trkpt>
      <trkpt lat="47.68378" lon="6.81088">
        <ele>389.6</ele>
        <time>2021-08-10T07:32:18Z</time>
      </trkpt>
      <trkpt lat="47.68378" lon="6.81093">
        <ele>389.6</ele>
        <time>2021-08-10T07:32:19Z</time>
      </trkpt>
      <trkpt lat="47.68378" lon="6.81099">
        <ele>389.6</ele>
        <time>2021-08-10T07:32:20Z</time>
      </trkpt>
      <trkpt lat="47.68379" lon="6.81101">
        <ele>389.6</ele>
        <time>2021-08-10T07:32:21Z</time>
      </trkpt>
      <trkpt lat="47.68379" lon="6.81109">
        <ele>389.6</ele>
        <time>2021-08-10T07:32:23Z</time>
      </trkpt>
      <trkpt lat="47.68379" lon="6.81115">
        <ele>389.6</ele>
        <time>2021-08-10T07:32:24Z</time>
      </trkpt>
      <trkpt lat="47.68378" lon="6.81122">
        <ele>389.6</ele>
        <time>2021-08-10T07:32:25Z</time>
      </trkpt>
      <trkpt lat="47.68378" lon="6.81127">
        <ele>389.6</ele>
        <time>2021-08-10T07:32:26Z</time>
      </trkpt>
      <trkpt lat="47.68376" lon="6.81132">
        <ele>389.6</ele>
        <time>2021-08-10T07:32:28Z</time>
      </trkpt>
      <trkpt lat="47.68376" lon="6.81132">
        <ele>389.5</ele>
        <time>2021-08-10T07:32:29Z</time>
      </trkpt>
      <trkpt lat="47.68373" lon="6.81132">
        <ele>389.5</ele>
        <time>2021-08-10T07:32:30Z</time>
      </trkpt>
      <trkpt lat="47.68371" lon="6.81132">
        <ele>389.5</ele>
        <time>2021-08-10T07:32:31Z</time>
      </trkpt>
      <trkpt lat="47.68367" lon="6.81128">
        <ele>389.5</ele>
        <time>2021-08-10T07:32:33Z</time>
      </trkpt>
      <trkpt lat="47.68362" lon="6.81124">
        <ele>389.5</ele>
        <time>2021-08-10T07:32:34Z</time>
      </trkpt>
      <trkpt lat="47.6836" lon="6.81122">
        <ele>389.5</ele>
        <time>2021-08-10T07:32:35Z</time>
      </trkpt>
      <trkpt lat="47.68357" lon="6.8112">
        <ele>389.5</ele>
        <time>2021-08-10T07:32:36Z</time>
      </trkpt>
      <trkpt lat="47.68353" lon="6.81118">
        <ele>389.5</ele>
        <time>2021-08-10T07:32:37Z</time>
      </trkpt>
      <trkpt lat="47.68351" lon="6.81115">
        <ele>389.5</ele>
        <time>2021-08-10T07:32:38Z</time>
      </trkpt>
      <trkpt lat="47.68347" lon="6.81111">
        <ele>389.6</ele>
        <time>2021-08-10T07:32:40Z</time>
      </trkpt>
      <trkpt lat="47.68342" lon="6.81106">
        <ele>389.6</ele>
        <time>2021-08-10T07:32:41Z</time>
      </trkpt>
      <trkpt lat="47.68338" lon="6.81104">
        <ele>389.6</ele>
        <time>2021-08-10T07:32:42Z</time>
      </trkpt>
      <trkpt lat="47.68335" lon="6.81101">
        <ele>389.6</ele>
        <time>2021-08-10T07:32:43Z</time>
      </trkpt>
      <trkpt lat="47.68329" lon="6.81095">
        <ele>389.6</ele>
        <time>2021-08-10T07:32:45Z</time>
      </trkpt>
      <trkpt lat="47.68327" lon="6.8109">
        <ele>389.6</ele>
        <time>2021-08-10T07:32:47Z</time>
      </trkpt>
      <trkpt lat="47.68324" lon="6.81086">
        <ele>389.6</ele>
        <time>2021-08-10T07:32:48Z</time>
      </trkpt>
      <trkpt lat="47.68319" lon="6.8108">
        <ele>389.6</ele>
        <time>2021-08-10T07:32:49Z</time>
      </trkpt>
      <trkpt lat="47.68316" lon="6.81076">
        <ele>389.6</ele>
        <time>2021-08-10T07:32:51Z</time>
      </trkpt>
      <trkpt lat="47.68313" lon="6.81072">
        <ele>389.6</ele>
        <time>2021-08-10T07:32:52Z</time>
      </trkpt>
      <trkpt lat="47.6831" lon="6.81068">
        <ele>389.6</ele>
        <time>2021-08-10T07:32:53Z</time>
      </trkpt>
      <trkpt lat="47.68308" lon="6.81064">
        <ele>389.6</ele>
        <time>2021-08-10T07:32:54Z</time>
      </trkpt>
      <trkpt lat="47.68306" lon="6.81059">
        <ele>389.5</ele>
        <time>2021-08-10T07:32:55Z</time>
      </trkpt>
      <trkpt lat="47.68304" lon="6.81053">
        <ele>389.5</ele>
        <time>2021-08-10T07:32:57Z</time>
      </trkpt>
      <trkpt lat="47.68302" lon="6.81046">
        <ele>389.5</ele>
        <time>2021-08-10T07:32:58Z</time>
      </trkpt>
      <trkpt lat="47.68301" lon="6.8104">
        <ele>389.5</ele>
        <time>2021-08-10T07:32:59Z</time>
      </trkpt>
      <trkpt lat="47.68298" lon="6.81034">
        <ele>389.4</ele>
        <time>2021-08-10T07:33:00Z</time>
      </trkpt>
      <trkpt lat="47.68296" lon="6.81029">
        <ele>389.4</ele>
        <time>2021-08-10T07:33:01Z</time>
      </trkpt>
      <trkpt lat="47.68294" lon="6.81024">
        <ele>389.4</ele>
        <time>2021-08-10T07:33:02Z</time>
      </trkpt>
      <trkpt lat="47.6829" lon="6.81016">
        <ele>389.3</ele>
        <time>2021-08-10T07:33:03Z</time>
      </trkpt>
      <trkpt lat="47.68288" lon="6.8101">
        <ele>389.3</ele>
        <time>2021-08-10T07:33:04Z</time>
      </trkpt>
      <trkpt lat="47.68286" lon="6.81003">
        <ele>389.3</ele>
        <time>2021-08-10T07:33:05Z</time>
      </trkpt>
      <trkpt lat="47.68284" lon="6.80997">
        <ele>389.3</ele>
        <time>2021-08-10T07:33:06Z</time>
      </trkpt>
      <trkpt lat="47.68282" lon="6.8099">
        <ele>389.3</ele>
        <time>2021-08-10T07:33:08Z</time>
      </trkpt>
      <trkpt lat="47.6828" lon="6.80983">
        <ele>389.3</ele>
        <time>2021-08-10T07:33:09Z</time>
      </trkpt>
      <trkpt lat="47.68278" lon="6.80974">
        <ele>389.3</ele>
        <time>2021-08-10T07:33:10Z</time>
      </trkpt>
      <trkpt lat="47.68275" lon="6.80967">
        <ele>389.3</ele>
        <time>2021-08-10T07:33:12Z</time>
      </trkpt>
      <trkpt lat="47.68273" lon="6.80959">
        <ele>389.3</ele>
        <time>2021-08-10T07:33:14Z</time>
      </trkpt>
      <trkpt lat="47.6827" lon="6.80954">
        <ele>389.2</ele>
        <time>2021-08-10T07:33:16Z</time>
      </trkpt>
      <trkpt lat="47.68269" lon="6.80953">
        <ele>389.2</ele>
        <time>2021-08-10T07:33:17Z</time>
      </trkpt>
      <trkpt lat="47.68269" lon="6.80952">
        <ele>389.2</ele>
        <time>2021-08-10T07:33:18Z</time>
      </trkpt>
      <trkpt lat="47.68268" lon="6.80951">
        <ele>389.2</ele>
        <time>2021-08-10T07:33:20Z</time>
      </trkpt>
      <trkpt lat="47.68267" lon="6.8095">
        <ele>389.2</ele>
        <time>2021-08-10T07:33:21Z</time>
      </trkpt>
      <trkpt lat="47.68266" lon="6.80949">
        <ele>389.2</ele>
        <time>2021-08-10T07:33:23Z</time>
      </trkpt>
      <trkpt lat="47.68266" lon="6.80948">
        <ele>389.2</ele>
        <time>2021-08-10T07:33:24Z</time>
      </trkpt>
      <trkpt lat="47.68265" lon="6.80947">
        <ele>389.2</ele>
        <time>2021-08-10T07:33:49Z</time>
      </trkpt>
      <trkpt lat="47.68264" lon="6.80947">
        <ele>389.2</ele>
        <time>2021-08-10T07:33:50Z</time>
      </trkpt>
      <trkpt lat="47.68262" lon="6.80938">
        <ele>389.2</ele>
        <time>2021-08-10T07:33:52Z</time>
      </trkpt>
      <trkpt lat="47.6826" lon="6.80933">
        <ele>389.2</ele>
        <time>2021-08-10T07:33:53Z</time>
      </trkpt>
      <trkpt lat="47.6826" lon="6.80938">
        <ele>389.2</ele>
        <time>2021-08-10T07:33:54Z</time>
      </trkpt>
      <trkpt lat="47.68259" lon="6.80931">
        <ele>389.2</ele>
        <time>2021-08-10T07:33:56Z</time>
      </trkpt>
      <trkpt lat="47.68257" lon="6.80922">
        <ele>389.2</ele>
        <time>2021-08-10T07:33:57Z</time>
      </trkpt>
      <trkpt lat="47.68255" lon="6.80916">
        <ele>389.2</ele>
        <time>2021-08-10T07:33:58Z</time>
      </trkpt>
      <trkpt lat="47.68252" lon="6.8091">
        <ele>389.2</ele>
        <time>2021-08-10T07:34:00Z</time>
      </trkpt>
      <trkpt lat="47.6825" lon="6.80904">
        <ele>389.3</ele>
        <time>2021-08-10T07:34:01Z</time>
      </trkpt>
      <trkpt lat="47.68246" lon="6.80896">
        <ele>389.3</ele>
        <time>2021-08-10T07:34:02Z</time>
      </trkpt>
      <trkpt lat="47.68244" lon="6.80889">
        <ele>389.3</ele>
        <time>2021-08-10T07:34:03Z</time>
      </trkpt>
      <trkpt lat="47.68242" lon="6.80882">
        <ele>389.3</ele>
        <time>2021-08-10T07:34:04Z</time>
      </trkpt>
      <trkpt lat="47.68241" lon="6.80873">
        <ele>389.3</ele>
        <time>2021-08-10T07:34:05Z</time>
      </trkpt>
      <trkpt lat="47.68239" lon="6.80865">
        <ele>389.3</ele>
        <time>2021-08-10T07:34:07Z</time>
      </trkpt>
      <trkpt lat="47.68239" lon="6.80858">
        <ele>389.3</ele>
        <time>2021-08-10T07:34:08Z</time>
      </trkpt>
      <trkpt lat="47.68237" lon="6.8085">
        <ele>389.3</ele>
        <time>2021-08-10T07:34:09Z</time>
      </trkpt>
      <trkpt lat="47.68236" lon="6.80844">
        <ele>389.3</ele>
        <time>2021-08-10T07:34:10Z</time>
      </trkpt>
      <trkpt lat="47.68234" lon="6.80836">
        <ele>389.3</ele>
        <time>2021-08-10T07:34:12Z</time>
      </trkpt>
      <trkpt lat="47.68232" lon="6.8083">
        <ele>389.3</ele>
        <time>2021-08-10T07:34:13Z</time>
      </trkpt>
      <trkpt lat="47.68231" lon="6.80824">
        <ele>389.3</ele>
        <time>2021-08-10T07:34:14Z</time>
      </trkpt>
      <trkpt lat="47.68229" lon="6.80816">
        <ele>389.3</ele>
        <time>2021-08-10T07:34:15Z</time>
      </trkpt>
      <trkpt lat="47.68227" lon="6.80809">
        <ele>389.3</ele>
        <time>2021-08-10T07:34:16Z</time>
      </trkpt>
      <trkpt lat="47.68225" lon="6.80803">
        <ele>389.3</ele>
        <time>2021-08-10T07:34:18Z</time>
      </trkpt>
      <trkpt lat="47.68223" lon="6.80795">
        <ele>389.3</ele>
        <time>2021-08-10T07:34:19Z</time>
      </trkpt>
      <trkpt lat="47.68223" lon="6.80788">
        <ele>389.3</ele>
        <time>2021-08-10T07:34:20Z</time>
      </trkpt>
      <trkpt lat="47.68222" lon="6.80782">
        <ele>389.3</ele>
        <time>2021-08-10T07:34:21Z</time>
      </trkpt>
      <trkpt lat="47.68221" lon="6.80775">
        <ele>389.3</ele>
        <time>2021-08-10T07:34:23Z</time>
      </trkpt>
      <trkpt lat="47.68219" lon="6.8077">
        <ele>389.3</ele>
        <time>2021-08-10T07:34:24Z</time>
      </trkpt>
      <trkpt lat="47.68217" lon="6.80765">
        <ele>389.3</ele>
        <time>2021-08-10T07:34:25Z</time>
      </trkpt>
      <trkpt lat="47.68216" lon="6.8076">
        <ele>389.3</ele>
        <time>2021-08-10T07:34:26Z</time>
      </trkpt>
      <trkpt lat="47.68213" lon="6.8075">
        <ele>389.3</ele>
        <time>2021-08-10T07:34:27Z</time>
      </trkpt>
      <trkpt lat="47.68211" lon="6.80744">
        <ele>389.3</ele>
        <time>2021-08-10T07:34:29Z</time>
      </trkpt>
      <trkpt lat="47.68209" lon="6.80739">
        <ele>389.3</ele>
        <time>2021-08-10T07:34:30Z</time>
      </trkpt>
      <trkpt lat="47.68207" lon="6.80731">
        <ele>389.3</ele>
        <time>2021-08-10T07:34:31Z</time>
      </trkpt>
      <trkpt lat="47.68205" lon="6.80726">
        <ele>389.3</ele>
        <time>2021-08-10T07:34:32Z</time>
      </trkpt>
      <trkpt lat="47.68204" lon="6.80719">
        <ele>389.3</ele>
        <time>2021-08-10T07:34:33Z</time>
      </trkpt>
      <trkpt lat="47.68202" lon="6.80713">
        <ele>389.3</ele>
        <time>2021-08-10T07:34:35Z</time>
      </trkpt>
      <trkpt lat="47.682" lon="6.80707">
        <ele>389.3</ele>
        <time>2021-08-10T07:34:36Z</time>
      </trkpt>
      <trkpt lat="47.68198" lon="6.807">
        <ele>389.4</ele>
        <time>2021-08-10T07:34:37Z</time>
      </trkpt>
      <trkpt lat="47.68196" lon="6.80694">
        <ele>389.4</ele>
        <time>2021-08-10T07:34:38Z</time>
      </trkpt>
      <trkpt lat="47.68195" lon="6.80689">
        <ele>389.4</ele>
        <time>2021-08-10T07:34:39Z</time>
      </trkpt>
      <trkpt lat="47.68193" lon="6.80683">
        <ele>389.4</ele>
        <time>2021-08-10T07:34:41Z</time>
      </trkpt>
      <trkpt lat="47.68191" lon="6.80678">
        <ele>389.4</ele>
        <time>2021-08-10T07:34:42Z</time>
      </trkpt>
      <trkpt lat="47.68189" lon="6.80673">
        <ele>389.5</ele>
        <time>2021-08-10T07:34:43Z</time>
      </trkpt>
      <trkpt lat="47.68187" lon="6.80669">
        <ele>389.5</ele>
        <time>2021-08-10T07:34:44Z</time>
      </trkpt>
      <trkpt lat="47.68183" lon="6.80662">
        <ele>389.5</ele>
        <time>2021-08-10T07:34:46Z</time>
      </trkpt>
      <trkpt lat="47.68182" lon="6.8066">
        <ele>389.5</ele>
        <time>2021-08-10T07:34:47Z</time>
      </trkpt>
      <trkpt lat="47.68181" lon="6.80659">
        <ele>389.5</ele>
        <time>2021-08-10T07:34:48Z</time>
      </trkpt>
      <trkpt lat="47.6818" lon="6.80657">
        <ele>389.5</ele>
        <time>2021-08-10T07:34:49Z</time>
      </trkpt>
      <trkpt lat="47.68179" lon="6.80655">
        <ele>389.5</ele>
        <time>2021-08-10T07:34:51Z</time>
      </trkpt>
      <trkpt lat="47.68177" lon="6.80652">
        <ele>389.6</ele>
        <time>2021-08-10T07:34:53Z</time>
      </trkpt>
      <trkpt lat="47.68177" lon="6.80648">
        <ele>389.6</ele>
        <time>2021-08-10T07:34:54Z</time>
      </trkpt>
      <trkpt lat="47.68175" lon="6.80643">
        <ele>389.6</ele>
        <time>2021-08-10T07:34:55Z</time>
      </trkpt>
      <trkpt lat="47.68174" lon="6.8064">
        <ele>389.6</ele>
        <time>2021-08-10T07:34:56Z</time>
      </trkpt>
      <trkpt lat="47.68171" lon="6.80638">
        <ele>389.6</ele>
        <time>2021-08-10T07:34:58Z</time>
      </trkpt>
      <trkpt lat="47.6817" lon="6.80637">
        <ele>389.3</ele>
        <time>2021-08-10T07:34:59Z</time>
      </trkpt>
      <trkpt lat="47.68167" lon="6.80637">
        <ele>388.9</ele>
        <time>2021-08-10T07:35:00Z</time>
      </trkpt>
      <trkpt lat="47.68164" lon="6.80636">
        <ele>388.4</ele>
        <time>2021-08-10T07:35:01Z</time>
      </trkpt>
      <trkpt lat="47.68159" lon="6.80636">
        <ele>387.6</ele>
        <time>2021-08-10T07:35:03Z</time>
      </trkpt>
      <trkpt lat="47.68154" lon="6.80637">
        <ele>387.8</ele>
        <time>2021-08-10T07:35:05Z</time>
      </trkpt>
      <trkpt lat="47.6815" lon="6.80639">
        <ele>387.9</ele>
        <time>2021-08-10T07:35:06Z</time>
      </trkpt>
      <trkpt lat="47.68148" lon="6.8064">
        <ele>388</ele>
        <time>2021-08-10T07:35:07Z</time>
      </trkpt>
      <trkpt lat="47.68144" lon="6.80643">
        <ele>388.2</ele>
        <time>2021-08-10T07:35:09Z</time>
      </trkpt>
      <trkpt lat="47.68141" lon="6.80646">
        <ele>388.2</ele>
        <time>2021-08-10T07:35:10Z</time>
      </trkpt>
      <trkpt lat="47.68138" lon="6.80648">
        <ele>388.2</ele>
        <time>2021-08-10T07:35:12Z</time>
      </trkpt>
      <trkpt lat="47.68134" lon="6.80652">
        <ele>388.2</ele>
        <time>2021-08-10T07:35:13Z</time>
      </trkpt>
      <trkpt lat="47.68131" lon="6.80654">
        <ele>388.2</ele>
        <time>2021-08-10T07:35:14Z</time>
      </trkpt>
      <trkpt lat="47.68128" lon="6.80654">
        <ele>388.3</ele>
        <time>2021-08-10T07:35:16Z</time>
      </trkpt>
      <trkpt lat="47.68124" lon="6.80651">
        <ele>388.3</ele>
        <time>2021-08-10T07:35:18Z</time>
      </trkpt>
      <trkpt lat="47.68121" lon="6.80647">
        <ele>388.3</ele>
        <time>2021-08-10T07:35:20Z</time>
      </trkpt>
      <trkpt lat="47.68121" lon="6.80645">
        <ele>388.3</ele>
        <time>2021-08-10T07:35:22Z</time>
      </trkpt>
      <trkpt lat="47.6812" lon="6.80646">
        <ele>388.3</ele>
        <time>2021-08-10T07:35:23Z</time>
      </trkpt>
      <trkpt lat="47.6812" lon="6.80649">
        <ele>388.3</ele>
        <time>2021-08-10T07:35:24Z</time>
      </trkpt>
      <trkpt lat="47.6812" lon="6.80651">
        <ele>388.3</ele>
        <time>2021-08-10T07:35:25Z</time>
      </trkpt>
      <trkpt lat="47.68123" lon="6.80654">
        <ele>388.3</ele>
        <time>2021-08-10T07:35:26Z</time>
      </trkpt>
      <trkpt lat="47.68124" lon="6.80654">
        <ele>388.3</ele>
        <time>2021-08-10T07:35:27Z</time>
      </trkpt>
      <trkpt lat="47.68128" lon="6.80655">
        <ele>388.3</ele>
        <time>2021-08-10T07:35:28Z</time>
      </trkpt>
      <trkpt lat="47.6813" lon="6.80654">
        <ele>388.3</ele>
        <time>2021-08-10T07:35:30Z</time>
      </trkpt>
      <trkpt lat="47.68135" lon="6.80654">
        <ele>388.3</ele>
        <time>2021-08-10T07:35:32Z</time>
      </trkpt>
      <trkpt lat="47.68137" lon="6.80652">
        <ele>388.2</ele>
        <time>2021-08-10T07:35:33Z</time>
      </trkpt>
      <trkpt lat="47.6814" lon="6.80649">
        <ele>388.2</ele>
        <time>2021-08-10T07:35:34Z</time>
      </trkpt>
      <trkpt lat="47.68144" lon="6.80648">
        <ele>388.2</ele>
        <time>2021-08-10T07:35:35Z</time>
      </trkpt>
      <trkpt lat="47.68147" lon="6.80647">
        <ele>388</ele>
        <time>2021-08-10T07:35:37Z</time>
      </trkpt>
      <trkpt lat="47.68152" lon="6.80646">
        <ele>387.8</ele>
        <time>2021-08-10T07:35:38Z</time>
      </trkpt>
      <trkpt lat="47.68155" lon="6.80643">
        <ele>387.6</ele>
        <time>2021-08-10T07:35:40Z</time>
      </trkpt>
      <trkpt lat="47.68157" lon="6.80638">
        <ele>387.8</ele>
        <time>2021-08-10T07:35:41Z</time>
      </trkpt>
      <trkpt lat="47.6816" lon="6.8063">
        <ele>388.5</ele>
        <time>2021-08-10T07:35:42Z</time>
      </trkpt>
      <trkpt lat="47.68161" lon="6.80623">
        <ele>389</ele>
        <time>2021-08-10T07:35:44Z</time>
      </trkpt>
      <trkpt lat="47.68162" lon="6.80613">
        <ele>389.7</ele>
        <time>2021-08-10T07:35:46Z</time>
      </trkpt>
      <trkpt lat="47.68164" lon="6.80603">
        <ele>389.8</ele>
        <time>2021-08-10T07:35:48Z</time>
      </trkpt>
      <trkpt lat="47.68163" lon="6.80597">
        <ele>389.9</ele>
        <time>2021-08-10T07:35:49Z</time>
      </trkpt>
      <trkpt lat="47.68162" lon="6.80592">
        <ele>390</ele>
        <time>2021-08-10T07:35:50Z</time>
      </trkpt>
      <trkpt lat="47.6816" lon="6.80585">
        <ele>390</ele>
        <time>2021-08-10T07:35:51Z</time>
      </trkpt>
      <trkpt lat="47.68157" lon="6.8058">
        <ele>390.1</ele>
        <time>2021-08-10T07:35:53Z</time>
      </trkpt>
      <trkpt lat="47.68154" lon="6.80572">
        <ele>390.2</ele>
        <time>2021-08-10T07:35:55Z</time>
      </trkpt>
      <trkpt lat="47.68151" lon="6.80563">
        <ele>390.3</ele>
        <time>2021-08-10T07:35:57Z</time>
      </trkpt>
      <trkpt lat="47.68148" lon="6.80557">
        <ele>390.4</ele>
        <time>2021-08-10T07:35:58Z</time>
      </trkpt>
      <trkpt lat="47.68146" lon="6.80553">
        <ele>390.5</ele>
        <time>2021-08-10T07:36:00Z</time>
      </trkpt>
      <trkpt lat="47.68143" lon="6.80547">
        <ele>390.6</ele>
        <time>2021-08-10T07:36:02Z</time>
      </trkpt>
      <trkpt lat="47.68141" lon="6.80544">
        <ele>390.6</ele>
        <time>2021-08-10T07:36:03Z</time>
      </trkpt>
      <trkpt lat="47.68138" lon="6.80541">
        <ele>390.7</ele>
        <time>2021-08-10T07:36:04Z</time>
      </trkpt>
      <trkpt lat="47.68136" lon="6.80536">
        <ele>390.7</ele>
        <time>2021-08-10T07:36:06Z</time>
      </trkpt>
      <trkpt lat="47.68136" lon="6.8053">
        <ele>390.8</ele>
        <time>2021-08-10T07:36:07Z</time>
      </trkpt>
      <trkpt lat="47.68136" lon="6.80525">
        <ele>390.9</ele>
        <time>2021-08-10T07:36:08Z</time>
      </trkpt>
      <trkpt lat="47.68135" lon="6.80519">
        <ele>390.9</ele>
        <time>2021-08-10T07:36:09Z</time>
      </trkpt>
      <trkpt lat="47.68134" lon="6.80512">
        <ele>391</ele>
        <time>2021-08-10T07:36:11Z</time>
      </trkpt>
      <trkpt lat="47.68134" lon="6.80507">
        <ele>391</ele>
        <time>2021-08-10T07:36:12Z</time>
      </trkpt>
      <trkpt lat="47.68133" lon="6.80502">
        <ele>391</ele>
        <time>2021-08-10T07:36:13Z</time>
      </trkpt>
      <trkpt lat="47.68132" lon="6.80496">
        <ele>391.1</ele>
        <time>2021-08-10T07:36:14Z</time>
      </trkpt>
      <trkpt lat="47.6813" lon="6.80488">
        <ele>391.2</ele>
        <time>2021-08-10T07:36:16Z</time>
      </trkpt>
      <trkpt lat="47.68129" lon="6.80483">
        <ele>391.3</ele>
        <time>2021-08-10T07:36:17Z</time>
      </trkpt>
      <trkpt lat="47.68128" lon="6.80474">
        <ele>391.4</ele>
        <time>2021-08-10T07:36:18Z</time>
      </trkpt>
      <trkpt lat="47.68129" lon="6.8047">
        <ele>391.5</ele>
        <time>2021-08-10T07:36:19Z</time>
      </trkpt>
      <trkpt lat="47.68129" lon="6.80467">
        <ele>391.5</ele>
        <time>2021-08-10T07:36:21Z</time>
      </trkpt>
      <trkpt lat="47.68128" lon="6.80462">
        <ele>391.6</ele>
        <time>2021-08-10T07:36:23Z</time>
      </trkpt>
      <trkpt lat="47.68128" lon="6.80458">
        <ele>391.6</ele>
        <time>2021-08-10T07:36:24Z</time>
      </trkpt>
      <trkpt lat="47.68127" lon="6.80453">
        <ele>391.7</ele>
        <time>2021-08-10T07:36:26Z</time>
      </trkpt>
      <trkpt lat="47.68125" lon="6.80447">
        <ele>391.8</ele>
        <time>2021-08-10T07:36:28Z</time>
      </trkpt>
      <trkpt lat="47.68124" lon="6.80442">
        <ele>391.9</ele>
        <time>2021-08-10T07:36:30Z</time>
      </trkpt>
      <trkpt lat="47.68123" lon="6.80436">
        <ele>392</ele>
        <time>2021-08-10T07:36:32Z</time>
      </trkpt>
      <trkpt lat="47.68122" lon="6.80435">
        <ele>392.1</ele>
        <time>2021-08-10T07:36:33Z</time>
      </trkpt>
      <trkpt lat="47.6812" lon="6.80434">
        <ele>392.1</ele>
        <time>2021-08-10T07:36:34Z</time>
      </trkpt>
      <trkpt lat="47.68119" lon="6.80435">
        <ele>392.2</ele>
        <time>2021-08-10T07:36:35Z</time>
      </trkpt>
      <trkpt lat="47.68118" lon="6.80439">
        <ele>392.3</ele>
        <time>2021-08-10T07:36:37Z</time>
      </trkpt>
      <trkpt lat="47.68119" lon="6.80442">
        <ele>392.4</ele>
        <time>2021-08-10T07:36:38Z</time>
      </trkpt>
      <trkpt lat="47.68122" lon="6.8045">
        <ele>392.1</ele>
        <time>2021-08-10T07:36:40Z</time>
      </trkpt>
      <trkpt lat="47.68123" lon="6.80455">
        <ele>392</ele>
        <time>2021-08-10T07:36:41Z</time>
      </trkpt>
      <trkpt lat="47.68127" lon="6.80469">
        <ele>391.7</ele>
        <time>2021-08-10T07:36:43Z</time>
      </trkpt>
      <trkpt lat="47.68129" lon="6.8048">
        <ele>391.5</ele>
        <time>2021-08-10T07:36:45Z</time>
      </trkpt>
      <trkpt lat="47.68129" lon="6.8049">
        <ele>391.3</ele>
        <time>2021-08-10T07:36:47Z</time>
      </trkpt>
      <trkpt lat="47.68128" lon="6.80496">
        <ele>391.2</ele>
        <time>2021-08-10T07:36:48Z</time>
      </trkpt>
      <trkpt lat="47.68128" lon="6.80501">
        <ele>391.1</ele>
        <time>2021-08-10T07:36:49Z</time>
      </trkpt>
      <trkpt lat="47.68129" lon="6.80511">
        <ele>391</ele>
        <time>2021-08-10T07:36:51Z</time>
      </trkpt>
      <trkpt lat="47.6813" lon="6.80516">
        <ele>390.9</ele>
        <time>2021-08-10T07:36:52Z</time>
      </trkpt>
      <trkpt lat="47.68129" lon="6.80524">
        <ele>390.9</ele>
        <time>2021-08-10T07:36:53Z</time>
      </trkpt>
      <trkpt lat="47.68128" lon="6.80532">
        <ele>390.8</ele>
        <time>2021-08-10T07:36:54Z</time>
      </trkpt>
      <trkpt lat="47.68125" lon="6.80535">
        <ele>390.7</ele>
        <time>2021-08-10T07:36:55Z</time>
      </trkpt>
      <trkpt lat="47.68121" lon="6.80538">
        <ele>390.7</ele>
        <time>2021-08-10T07:36:57Z</time>
      </trkpt>
      <trkpt lat="47.68117" lon="6.8054">
        <ele>390.7</ele>
        <time>2021-08-10T07:36:58Z</time>
      </trkpt>
      <trkpt lat="47.68114" lon="6.80543">
        <ele>390.8</ele>
        <time>2021-08-10T07:36:59Z</time>
      </trkpt>
      <trkpt lat="47.68111" lon="6.80544">
        <ele>390.8</ele>
        <time>2021-08-10T07:37:00Z</time>
      </trkpt>
      <trkpt lat="47.68108" lon="6.80545">
        <ele>390.9</ele>
        <time>2021-08-10T07:37:01Z</time>
      </trkpt>
      <trkpt lat="47.68104" lon="6.80546">
        <ele>390.9</ele>
        <time>2021-08-10T07:37:02Z</time>
      </trkpt>
      <trkpt lat="47.68098" lon="6.80546">
        <ele>391.1</ele>
        <time>2021-08-10T07:37:04Z</time>
      </trkpt>
      <trkpt lat="47.68096" lon="6.80546">
        <ele>391.2</ele>
        <time>2021-08-10T07:37:05Z</time>
      </trkpt>
      <trkpt lat="47.68094" lon="6.80546">
        <ele>391.3</ele>
        <time>2021-08-10T07:37:06Z</time>
      </trkpt>
      <trkpt lat="47.6809" lon="6.80547">
        <ele>391.4</ele>
        <time>2021-08-10T07:37:07Z</time>
      </trkpt>
      <trkpt lat="47.68087" lon="6.80548">
        <ele>391.5</ele>
        <time>2021-08-10T07:37:09Z</time>
      </trkpt>
      <trkpt lat="47.68084" lon="6.80549">
        <ele>391.7</ele>
        <time>2021-08-10T07:37:10Z</time>
      </trkpt>
      <trkpt lat="47.6808" lon="6.80552">
        <ele>391.8</ele>
        <time>2021-08-10T07:37:11Z</time>
      </trkpt>
      <trkpt lat="47.68077" lon="6.80554">
        <ele>392</ele>
        <time>2021-08-10T07:37:12Z</time>
      </trkpt>
      <trkpt lat="47.68073" lon="6.80555">
        <ele>392.1</ele>
        <time>2021-08-10T07:37:14Z</time>
      </trkpt>
      <trkpt lat="47.68069" lon="6.80556">
        <ele>392.3</ele>
        <time>2021-08-10T07:37:15Z</time>
      </trkpt>
      <trkpt lat="47.68065" lon="6.80557">
        <ele>392.5</ele>
        <time>2021-08-10T07:37:16Z</time>
      </trkpt>
      <trkpt lat="47.68061" lon="6.80558">
        <ele>392.7</ele>
        <time>2021-08-10T07:37:18Z</time>
      </trkpt>
      <trkpt lat="47.68058" lon="6.80559">
        <ele>392.9</ele>
        <time>2021-08-10T07:37:19Z</time>
      </trkpt>
      <trkpt lat="47.68054" lon="6.80559">
        <ele>393.1</ele>
        <time>2021-08-10T07:37:20Z</time>
      </trkpt>
      <trkpt lat="47.68051" lon="6.8056">
        <ele>393.2</ele>
        <time>2021-08-10T07:37:21Z</time>
      </trkpt>
      <trkpt lat="47.68047" lon="6.8056">
        <ele>393.4</ele>
        <time>2021-08-10T07:37:23Z</time>
      </trkpt>
      <trkpt lat="47.68043" lon="6.80559">
        <ele>393.6</ele>
        <time>2021-08-10T07:37:24Z</time>
      </trkpt>
      <trkpt lat="47.6804" lon="6.80558">
        <ele>393.7</ele>
        <time>2021-08-10T07:37:26Z</time>
      </trkpt>
      <trkpt lat="47.68037" lon="6.80555">
        <ele>393.9</ele>
        <time>2021-08-10T07:37:27Z</time>
      </trkpt>
      <trkpt lat="47.68035" lon="6.80551">
        <ele>394</ele>
        <time>2021-08-10T07:37:29Z</time>
      </trkpt>
      <trkpt lat="47.68031" lon="6.8055">
        <ele>394.1</ele>
        <time>2021-08-10T07:37:30Z</time>
      </trkpt>
      <trkpt lat="47.68027" lon="6.80547">
        <ele>394.2</ele>
        <time>2021-08-10T07:37:31Z</time>
      </trkpt>
      <trkpt lat="47.68023" lon="6.80545">
        <ele>394.2</ele>
        <time>2021-08-10T07:37:32Z</time>
      </trkpt>
      <trkpt lat="47.6802" lon="6.80542">
        <ele>394.3</ele>
        <time>2021-08-10T07:37:33Z</time>
      </trkpt>
      <trkpt lat="47.68017" lon="6.8054">
        <ele>394.3</ele>
        <time>2021-08-10T07:37:35Z</time>
      </trkpt>
      <trkpt lat="47.68015" lon="6.80538">
        <ele>394.3</ele>
        <time>2021-08-10T07:37:36Z</time>
      </trkpt>
      <trkpt lat="47.6801" lon="6.80533">
        <ele>394.3</ele>
        <time>2021-08-10T07:37:38Z</time>
      </trkpt>
      <trkpt lat="47.68005" lon="6.80527">
        <ele>394.2</ele>
        <time>2021-08-10T07:37:40Z</time>
      </trkpt>
      <trkpt lat="47.68002" lon="6.80524">
        <ele>394.2</ele>
        <time>2021-08-10T07:37:41Z</time>
      </trkpt>
      <trkpt lat="47.68" lon="6.80521">
        <ele>394.1</ele>
        <time>2021-08-10T07:37:42Z</time>
      </trkpt>
      <trkpt lat="47.67995" lon="6.80513">
        <ele>394</ele>
        <time>2021-08-10T07:37:44Z</time>
      </trkpt>
      <trkpt lat="47.6799" lon="6.80507">
        <ele>393.8</ele>
        <time>2021-08-10T07:37:46Z</time>
      </trkpt>
      <trkpt lat="47.67987" lon="6.80505">
        <ele>393.7</ele>
        <time>2021-08-10T07:37:47Z</time>
      </trkpt>
      <trkpt lat="47.67985" lon="6.80502">
        <ele>393.6</ele>
        <time>2021-08-10T07:37:48Z</time>
      </trkpt>
      <trkpt lat="47.6798" lon="6.805">
        <ele>393.5</ele>
        <time>2021-08-10T07:37:49Z</time>
      </trkpt>
      <trkpt lat="47.67975" lon="6.805">
        <ele>393.3</ele>
        <time>2021-08-10T07:37:51Z</time>
      </trkpt>
      <trkpt lat="47.67972" lon="6.80501">
        <ele>393.2</ele>
        <time>2021-08-10T07:37:52Z</time>
      </trkpt>
      <trkpt lat="47.67967" lon="6.80507">
        <ele>393</ele>
        <time>2021-08-10T07:37:53Z</time>
      </trkpt>
      <trkpt lat="47.67964" lon="6.80524">
        <ele>392.6</ele>
        <time>2021-08-10T07:37:55Z</time>
      </trkpt>
      <trkpt lat="47.67963" lon="6.80544">
        <ele>392.3</ele>
        <time>2021-08-10T07:37:57Z</time>
      </trkpt>
      <trkpt lat="47.67961" lon="6.80555">
        <ele>392.2</ele>
        <time>2021-08-10T07:37:58Z</time>
      </trkpt>
      <trkpt lat="47.67959" lon="6.80565">
        <ele>392.1</ele>
        <time>2021-08-10T07:37:59Z</time>
      </trkpt>
      <trkpt lat="47.67957" lon="6.80575">
        <ele>392.1</ele>
        <time>2021-08-10T07:38:00Z</time>
      </trkpt>
      <trkpt lat="47.67954" lon="6.80593">
        <ele>392</ele>
        <time>2021-08-10T07:38:02Z</time>
      </trkpt>
      <trkpt lat="47.6795" lon="6.80612">
        <ele>392</ele>
        <time>2021-08-10T07:38:04Z</time>
      </trkpt>
      <trkpt lat="47.67948" lon="6.8062">
        <ele>391.9</ele>
        <time>2021-08-10T07:38:05Z</time>
      </trkpt>
      <trkpt lat="47.67947" lon="6.80629">
        <ele>391.9</ele>
        <time>2021-08-10T07:38:06Z</time>
      </trkpt>
      <trkpt lat="47.67946" lon="6.80637">
        <ele>391.9</ele>
        <time>2021-08-10T07:38:07Z</time>
      </trkpt>
      <trkpt lat="47.67945" lon="6.80645">
        <ele>391.9</ele>
        <time>2021-08-10T07:38:08Z</time>
      </trkpt>
      <trkpt lat="47.67942" lon="6.8066">
        <ele>391.9</ele>
        <time>2021-08-10T07:38:10Z</time>
      </trkpt>
      <trkpt lat="47.67941" lon="6.80668">
        <ele>391.9</ele>
        <time>2021-08-10T07:38:11Z</time>
      </trkpt>
      <trkpt lat="47.6794" lon="6.80676">
        <ele>391.9</ele>
        <time>2021-08-10T07:38:12Z</time>
      </trkpt>
      <trkpt lat="47.67939" lon="6.80691">
        <ele>391.9</ele>
        <time>2021-08-10T07:38:14Z</time>
      </trkpt>
      <trkpt lat="47.67938" lon="6.80698">
        <ele>391.9</ele>
        <time>2021-08-10T07:38:15Z</time>
      </trkpt>
      <trkpt lat="47.67937" lon="6.80713">
        <ele>391.9</ele>
        <time>2021-08-10T07:38:17Z</time>
      </trkpt>
      <trkpt lat="47.67937" lon="6.80719">
        <ele>391.9</ele>
        <time>2021-08-10T07:38:18Z</time>
      </trkpt>
      <trkpt lat="47.67936" lon="6.80731">
        <ele>391.9</ele>
        <time>2021-08-10T07:38:20Z</time>
      </trkpt>
      <trkpt lat="47.67934" lon="6.80744">
        <ele>391.9</ele>
        <time>2021-08-10T07:38:22Z</time>
      </trkpt>
      <trkpt lat="47.67933" lon="6.80749">
        <ele>391.9</ele>
        <time>2021-08-10T07:38:23Z</time>
      </trkpt>
      <trkpt lat="47.67929" lon="6.80765">
        <ele>391.9</ele>
        <time>2021-08-10T07:38:25Z</time>
      </trkpt>
      <trkpt lat="47.67928" lon="6.80772">
        <ele>391.9</ele>
        <time>2021-08-10T07:38:26Z</time>
      </trkpt>
      <trkpt lat="47.67929" lon="6.8078">
        <ele>391.9</ele>
        <time>2021-08-10T07:38:28Z</time>
      </trkpt>
      <trkpt lat="47.67928" lon="6.80792">
        <ele>391.9</ele>
        <time>2021-08-10T07:38:29Z</time>
      </trkpt>
      <trkpt lat="47.67927" lon="6.80801">
        <ele>391.9</ele>
        <time>2021-08-10T07:38:31Z</time>
      </trkpt>
      <trkpt lat="47.67926" lon="6.8081">
        <ele>391.9</ele>
        <time>2021-08-10T07:38:32Z</time>
      </trkpt>
      <trkpt lat="47.67924" lon="6.80821">
        <ele>391.9</ele>
        <time>2021-08-10T07:38:34Z</time>
      </trkpt>
      <trkpt lat="47.67923" lon="6.80829">
        <ele>391.9</ele>
        <time>2021-08-10T07:38:35Z</time>
      </trkpt>
      <trkpt lat="47.67922" lon="6.80838">
        <ele>391.8</ele>
        <time>2021-08-10T07:38:36Z</time>
      </trkpt>
      <trkpt lat="47.67921" lon="6.80849">
        <ele>391.8</ele>
        <time>2021-08-10T07:38:38Z</time>
      </trkpt>
      <trkpt lat="47.67919" lon="6.80863">
        <ele>391.8</ele>
        <time>2021-08-10T07:38:40Z</time>
      </trkpt>
      <trkpt lat="47.67918" lon="6.80869">
        <ele>391.7</ele>
        <time>2021-08-10T07:38:41Z</time>
      </trkpt>
      <trkpt lat="47.67918" lon="6.80874">
        <ele>391.7</ele>
        <time>2021-08-10T07:38:42Z</time>
      </trkpt>
      <trkpt lat="47.67916" lon="6.80883">
        <ele>391.6</ele>
        <time>2021-08-10T07:38:43Z</time>
      </trkpt>
      <trkpt lat="47.67914" lon="6.8089">
        <ele>391.5</ele>
        <time>2021-08-10T07:38:44Z</time>
      </trkpt>
      <trkpt lat="47.67912" lon="6.80897">
        <ele>391.4</ele>
        <time>2021-08-10T07:38:45Z</time>
      </trkpt>
      <trkpt lat="47.6791" lon="6.80904">
        <ele>391.2</ele>
        <time>2021-08-10T07:38:47Z</time>
      </trkpt>
      <trkpt lat="47.67908" lon="6.8091">
        <ele>391</ele>
        <time>2021-08-10T07:38:48Z</time>
      </trkpt>
      <trkpt lat="47.67902" lon="6.80925">
        <ele>390.1</ele>
        <time>2021-08-10T07:38:50Z</time>
      </trkpt>
      <trkpt lat="47.67897" lon="6.80939">
        <ele>389.3</ele>
        <time>2021-08-10T07:38:52Z</time>
      </trkpt>
      <trkpt lat="47.6789" lon="6.80955">
        <ele>388.4</ele>
        <time>2021-08-10T07:38:54Z</time>
      </trkpt>
      <trkpt lat="47.67886" lon="6.80965">
        <ele>388</ele>
        <time>2021-08-10T07:38:55Z</time>
      </trkpt>
      <trkpt lat="47.67878" lon="6.80984">
        <ele>387.2</ele>
        <time>2021-08-10T07:38:57Z</time>
      </trkpt>
      <trkpt lat="47.67869" lon="6.81003">
        <ele>386.7</ele>
        <time>2021-08-10T07:38:59Z</time>
      </trkpt>
      <trkpt lat="47.6786" lon="6.81021">
        <ele>386.4</ele>
        <time>2021-08-10T07:39:01Z</time>
      </trkpt>
      <trkpt lat="47.67855" lon="6.81029">
        <ele>386.2</ele>
        <time>2021-08-10T07:39:02Z</time>
      </trkpt>
      <trkpt lat="47.6785" lon="6.81035">
        <ele>386.1</ele>
        <time>2021-08-10T07:39:03Z</time>
      </trkpt>
      <trkpt lat="47.67839" lon="6.81046">
        <ele>386</ele>
        <time>2021-08-10T07:39:05Z</time>
      </trkpt>
      <trkpt lat="47.67833" lon="6.81051">
        <ele>385.9</ele>
        <time>2021-08-10T07:39:06Z</time>
      </trkpt>
      <trkpt lat="47.67828" lon="6.81055">
        <ele>385.9</ele>
        <time>2021-08-10T07:39:07Z</time>
      </trkpt>
      <trkpt lat="47.67822" lon="6.81058">
        <ele>385.9</ele>
        <time>2021-08-10T07:39:08Z</time>
      </trkpt>
      <trkpt lat="47.67811" lon="6.81064">
        <ele>385.8</ele>
        <time>2021-08-10T07:39:10Z</time>
      </trkpt>
      <trkpt lat="47.67806" lon="6.81067">
        <ele>385.9</ele>
        <time>2021-08-10T07:39:11Z</time>
      </trkpt>
      <trkpt lat="47.67796" lon="6.81074">
        <ele>385.9</ele>
        <time>2021-08-10T07:39:13Z</time>
      </trkpt>
      <trkpt lat="47.67792" lon="6.81078">
        <ele>385.9</ele>
        <time>2021-08-10T07:39:14Z</time>
      </trkpt>
      <trkpt lat="47.67785" lon="6.81087">
        <ele>385.9</ele>
        <time>2021-08-10T07:39:16Z</time>
      </trkpt>
      <trkpt lat="47.67783" lon="6.81094">
        <ele>386</ele>
        <time>2021-08-10T07:39:17Z</time>
      </trkpt>
      <trkpt lat="47.67781" lon="6.811">
        <ele>386</ele>
        <time>2021-08-10T07:39:18Z</time>
      </trkpt>
      <trkpt lat="47.6778" lon="6.81105">
        <ele>386</ele>
        <time>2021-08-10T07:39:19Z</time>
      </trkpt>
      <trkpt lat="47.67778" lon="6.81113">
        <ele>386</ele>
        <time>2021-08-10T07:39:20Z</time>
      </trkpt>
      <trkpt lat="47.67776" lon="6.81126">
        <ele>386.1</ele>
        <time>2021-08-10T07:39:22Z</time>
      </trkpt>
      <trkpt lat="47.67774" lon="6.81133">
        <ele>386.1</ele>
        <time>2021-08-10T07:39:23Z</time>
      </trkpt>
      <trkpt lat="47.67772" lon="6.81141">
        <ele>386.1</ele>
        <time>2021-08-10T07:39:24Z</time>
      </trkpt>
      <trkpt lat="47.6777" lon="6.81149">
        <ele>386.2</ele>
        <time>2021-08-10T07:39:25Z</time>
      </trkpt>
      <trkpt lat="47.67767" lon="6.81161">
        <ele>386.3</ele>
        <time>2021-08-10T07:39:27Z</time>
      </trkpt>
      <trkpt lat="47.67764" lon="6.8117">
        <ele>386.4</ele>
        <time>2021-08-10T07:39:28Z</time>
      </trkpt>
      <trkpt lat="47.67762" lon="6.81176">
        <ele>386.4</ele>
        <time>2021-08-10T07:39:29Z</time>
      </trkpt>
      <trkpt lat="47.67759" lon="6.81183">
        <ele>386.5</ele>
        <time>2021-08-10T07:39:31Z</time>
      </trkpt>
      <trkpt lat="47.67757" lon="6.81188">
        <ele>386.5</ele>
        <time>2021-08-10T07:39:32Z</time>
      </trkpt>
      <trkpt lat="47.67755" lon="6.81194">
        <ele>386.6</ele>
        <time>2021-08-10T07:39:33Z</time>
      </trkpt>
      <trkpt lat="47.67753" lon="6.81199">
        <ele>386.6</ele>
        <time>2021-08-10T07:39:34Z</time>
      </trkpt>
      <trkpt lat="47.67751" lon="6.81204">
        <ele>386.6</ele>
        <time>2021-08-10T07:39:35Z</time>
      </trkpt>
      <trkpt lat="47.67749" lon="6.81208">
        <ele>386.7</ele>
        <time>2021-08-10T07:39:36Z</time>
      </trkpt>
      <trkpt lat="47.67746" lon="6.81212">
        <ele>386.7</ele>
        <time>2021-08-10T07:39:37Z</time>
      </trkpt>
      <trkpt lat="47.67743" lon="6.81215">
        <ele>386.7</ele>
        <time>2021-08-10T07:39:38Z</time>
      </trkpt>
      <trkpt lat="47.6774" lon="6.8122">
        <ele>386.8</ele>
        <time>2021-08-10T07:39:39Z</time>
      </trkpt>
      <trkpt lat="47.67738" lon="6.81224">
        <ele>386.8</ele>
        <time>2021-08-10T07:39:40Z</time>
      </trkpt>
      <trkpt lat="47.67735" lon="6.81228">
        <ele>386.9</ele>
        <time>2021-08-10T07:39:41Z</time>
      </trkpt>
      <trkpt lat="47.67729" lon="6.81235">
        <ele>386.9</ele>
        <time>2021-08-10T07:39:44Z</time>
      </trkpt>
      <trkpt lat="47.67727" lon="6.81238">
        <ele>387</ele>
        <time>2021-08-10T07:39:45Z</time>
      </trkpt>
      <trkpt lat="47.67723" lon="6.81243">
        <ele>387.1</ele>
        <time>2021-08-10T07:39:46Z</time>
      </trkpt>
      <trkpt lat="47.6772" lon="6.81249">
        <ele>387.1</ele>
        <time>2021-08-10T07:39:47Z</time>
      </trkpt>
      <trkpt lat="47.67716" lon="6.81257">
        <ele>387.2</ele>
        <time>2021-08-10T07:39:49Z</time>
      </trkpt>
      <trkpt lat="47.67711" lon="6.81266">
        <ele>387.3</ele>
        <time>2021-08-10T07:39:51Z</time>
      </trkpt>
      <trkpt lat="47.67709" lon="6.8127">
        <ele>387.4</ele>
        <time>2021-08-10T07:39:52Z</time>
      </trkpt>
      <trkpt lat="47.67706" lon="6.81277">
        <ele>387.5</ele>
        <time>2021-08-10T07:39:54Z</time>
      </trkpt>
      <trkpt lat="47.67702" lon="6.81282">
        <ele>387.5</ele>
        <time>2021-08-10T07:39:55Z</time>
      </trkpt>
      <trkpt lat="47.677" lon="6.81285">
        <ele>387.6</ele>
        <time>2021-08-10T07:39:56Z</time>
      </trkpt>
      <trkpt lat="47.67698" lon="6.81289">
        <ele>387.6</ele>
        <time>2021-08-10T07:39:57Z</time>
      </trkpt>
      <trkpt lat="47.67696" lon="6.81292">
        <ele>387.7</ele>
        <time>2021-08-10T07:39:59Z</time>
      </trkpt>
      <trkpt lat="47.67694" lon="6.81296">
        <ele>387.8</ele>
        <time>2021-08-10T07:40:00Z</time>
      </trkpt>
      <trkpt lat="47.6769" lon="6.81303">
        <ele>387.9</ele>
        <time>2021-08-10T07:40:01Z</time>
      </trkpt>
      <trkpt lat="47.67688" lon="6.81306">
        <ele>388</ele>
        <time>2021-08-10T07:40:03Z</time>
      </trkpt>
      <trkpt lat="47.67685" lon="6.8131">
        <ele>388.1</ele>
        <time>2021-08-10T07:40:04Z</time>
      </trkpt>
      <trkpt lat="47.67682" lon="6.81314">
        <ele>388.1</ele>
        <time>2021-08-10T07:40:06Z</time>
      </trkpt>
      <trkpt lat="47.6768" lon="6.81317">
        <ele>388.3</ele>
        <time>2021-08-10T07:40:07Z</time>
      </trkpt>
      <trkpt lat="47.67678" lon="6.81322">
        <ele>388.4</ele>
        <time>2021-08-10T07:40:08Z</time>
      </trkpt>
      <trkpt lat="47.67677" lon="6.81326">
        <ele>388.5</ele>
        <time>2021-08-10T07:40:09Z</time>
      </trkpt>
      <trkpt lat="47.67675" lon="6.8133">
        <ele>388.6</ele>
        <time>2021-08-10T07:40:10Z</time>
      </trkpt>
      <trkpt lat="47.67674" lon="6.81335">
        <ele>388.7</ele>
        <time>2021-08-10T07:40:12Z</time>
      </trkpt>
      <trkpt lat="47.67673" lon="6.8134">
        <ele>388.8</ele>
        <time>2021-08-10T07:40:13Z</time>
      </trkpt>
      <trkpt lat="47.67673" lon="6.81341">
        <ele>388.9</ele>
        <time>2021-08-10T07:40:14Z</time>
      </trkpt>
      <trkpt lat="47.67672" lon="6.81344">
        <ele>388.9</ele>
        <time>2021-08-10T07:40:15Z</time>
      </trkpt>
      <trkpt lat="47.67671" lon="6.81347">
        <ele>389</ele>
        <time>2021-08-10T07:40:17Z</time>
      </trkpt>
      <trkpt lat="47.67668" lon="6.81352">
        <ele>389.2</ele>
        <time>2021-08-10T07:40:18Z</time>
      </trkpt>
      <trkpt lat="47.67667" lon="6.81354">
        <ele>389.3</ele>
        <time>2021-08-10T07:40:19Z</time>
      </trkpt>
      <trkpt lat="47.67665" lon="6.81357">
        <ele>389.4</ele>
        <time>2021-08-10T07:40:21Z</time>
      </trkpt>
      <trkpt lat="47.67662" lon="6.81361">
        <ele>389.5</ele>
        <time>2021-08-10T07:40:22Z</time>
      </trkpt>
      <trkpt lat="47.67661" lon="6.81363">
        <ele>389.6</ele>
        <time>2021-08-10T07:40:23Z</time>
      </trkpt>
      <trkpt lat="47.6766" lon="6.81367">
        <ele>389.7</ele>
        <time>2021-08-10T07:40:25Z</time>
      </trkpt>
      <trkpt lat="47.6766" lon="6.81369">
        <ele>389.7</ele>
        <time>2021-08-10T07:40:26Z</time>
      </trkpt>
      <trkpt lat="47.67658" lon="6.81374">
        <ele>389.9</ele>
        <time>2021-08-10T07:40:27Z</time>
      </trkpt>
      <trkpt lat="47.67658" lon="6.81375">
        <ele>389.9</ele>
        <time>2021-08-10T07:40:28Z</time>
      </trkpt>
      <trkpt lat="47.67658" lon="6.8138">
        <ele>390</ele>
        <time>2021-08-10T07:40:29Z</time>
      </trkpt>
      <trkpt lat="47.67658" lon="6.81382">
        <ele>390.1</ele>
        <time>2021-08-10T07:40:30Z</time>
      </trkpt>
      <trkpt lat="47.67658" lon="6.81387">
        <ele>390.2</ele>
        <time>2021-08-10T07:40:32Z</time>
      </trkpt>
      <trkpt lat="47.67657" lon="6.81388">
        <ele>390.2</ele>
        <time>2021-08-10T07:40:33Z</time>
      </trkpt>
      <trkpt lat="47.67657" lon="6.81393">
        <ele>390.3</ele>
        <time>2021-08-10T07:40:34Z</time>
      </trkpt>
      <trkpt lat="47.67655" lon="6.81396">
        <ele>390.4</ele>
        <time>2021-08-10T07:40:35Z</time>
      </trkpt>
      <trkpt lat="47.67654" lon="6.81399">
        <ele>390.5</ele>
        <time>2021-08-10T07:40:37Z</time>
      </trkpt>
      <trkpt lat="47.67653" lon="6.81403">
        <ele>390.6</ele>
        <time>2021-08-10T07:40:38Z</time>
      </trkpt>
      <trkpt lat="47.67652" lon="6.81404">
        <ele>390.7</ele>
        <time>2021-08-10T07:40:39Z</time>
      </trkpt>
      <trkpt lat="47.67651" lon="6.81407">
        <ele>390.7</ele>
        <time>2021-08-10T07:40:40Z</time>
      </trkpt>
      <trkpt lat="47.67649" lon="6.81412">
        <ele>390.9</ele>
        <time>2021-08-10T07:40:42Z</time>
      </trkpt>
      <trkpt lat="47.67648" lon="6.81417">
        <ele>391</ele>
        <time>2021-08-10T07:40:43Z</time>
      </trkpt>
      <trkpt lat="47.67647" lon="6.81419">
        <ele>391.1</ele>
        <time>2021-08-10T07:40:44Z</time>
      </trkpt>
      <trkpt lat="47.67646" lon="6.81423">
        <ele>391.1</ele>
        <time>2021-08-10T07:40:45Z</time>
      </trkpt>
      <trkpt lat="47.67645" lon="6.81426">
        <ele>391.2</ele>
        <time>2021-08-10T07:40:47Z</time>
      </trkpt>
      <trkpt lat="47.67643" lon="6.81432">
        <ele>391.4</ele>
        <time>2021-08-10T07:40:49Z</time>
      </trkpt>
      <trkpt lat="47.67642" lon="6.81434">
        <ele>391.4</ele>
        <time>2021-08-10T07:40:50Z</time>
      </trkpt>
      <trkpt lat="47.67641" lon="6.81436">
        <ele>391.5</ele>
        <time>2021-08-10T07:40:51Z</time>
      </trkpt>
      <trkpt lat="47.67639" lon="6.8144">
        <ele>391.6</ele>
        <time>2021-08-10T07:40:52Z</time>
      </trkpt>
      <trkpt lat="47.67636" lon="6.81443">
        <ele>391.7</ele>
        <time>2021-08-10T07:40:54Z</time>
      </trkpt>
      <trkpt lat="47.67634" lon="6.8145">
        <ele>391.9</ele>
        <time>2021-08-10T07:40:56Z</time>
      </trkpt>
      <trkpt lat="47.67632" lon="6.81454">
        <ele>392</ele>
        <time>2021-08-10T07:40:57Z</time>
      </trkpt>
      <trkpt lat="47.6763" lon="6.8146">
        <ele>392.2</ele>
        <time>2021-08-10T07:40:58Z</time>
      </trkpt>
      <trkpt lat="47.67627" lon="6.81465">
        <ele>392.4</ele>
        <time>2021-08-10T07:40:59Z</time>
      </trkpt>
      <trkpt lat="47.67626" lon="6.81467">
        <ele>392.4</ele>
        <time>2021-08-10T07:41:00Z</time>
      </trkpt>
      <trkpt lat="47.67624" lon="6.81471">
        <ele>392.6</ele>
        <time>2021-08-10T07:41:01Z</time>
      </trkpt>
      <trkpt lat="47.67622" lon="6.81474">
        <ele>392.7</ele>
        <time>2021-08-10T07:41:02Z</time>
      </trkpt>
      <trkpt lat="47.67621" lon="6.81479">
        <ele>392.9</ele>
        <time>2021-08-10T07:41:04Z</time>
      </trkpt>
      <trkpt lat="47.67619" lon="6.81484">
        <ele>393</ele>
        <time>2021-08-10T07:41:05Z</time>
      </trkpt>
      <trkpt lat="47.67618" lon="6.81488">
        <ele>393.1</ele>
        <time>2021-08-10T07:41:06Z</time>
      </trkpt>
      <trkpt lat="47.67617" lon="6.81494">
        <ele>393.2</ele>
        <time>2021-08-10T07:41:08Z</time>
      </trkpt>
      <trkpt lat="47.67616" lon="6.81501">
        <ele>393.4</ele>
        <time>2021-08-10T07:41:09Z</time>
      </trkpt>
      <trkpt lat="47.67615" lon="6.81505">
        <ele>393.5</ele>
        <time>2021-08-10T07:41:10Z</time>
      </trkpt>
      <trkpt lat="47.67614" lon="6.81509">
        <ele>393.6</ele>
        <time>2021-08-10T07:41:11Z</time>
      </trkpt>
      <trkpt lat="47.67611" lon="6.81514">
        <ele>393.8</ele>
        <time>2021-08-10T07:41:13Z</time>
      </trkpt>
      <trkpt lat="47.6761" lon="6.81516">
        <ele>393.9</ele>
        <time>2021-08-10T07:41:14Z</time>
      </trkpt>
      <trkpt lat="47.67609" lon="6.81518">
        <ele>393.9</ele>
        <time>2021-08-10T07:41:15Z</time>
      </trkpt>
      <trkpt lat="47.67607" lon="6.81524">
        <ele>394.1</ele>
        <time>2021-08-10T07:41:16Z</time>
      </trkpt>
      <trkpt lat="47.67606" lon="6.81528">
        <ele>394.2</ele>
        <time>2021-08-10T07:41:17Z</time>
      </trkpt>
      <trkpt lat="47.67605" lon="6.81534">
        <ele>394.4</ele>
        <time>2021-08-10T07:41:18Z</time>
      </trkpt>
      <trkpt lat="47.67604" lon="6.81536">
        <ele>394.4</ele>
        <time>2021-08-10T07:41:19Z</time>
      </trkpt>
      <trkpt lat="47.67603" lon="6.81541">
        <ele>394.6</ele>
        <time>2021-08-10T07:41:21Z</time>
      </trkpt>
      <trkpt lat="47.67602" lon="6.81548">
        <ele>394.8</ele>
        <time>2021-08-10T07:41:23Z</time>
      </trkpt>
      <trkpt lat="47.67601" lon="6.81553">
        <ele>395</ele>
        <time>2021-08-10T07:41:24Z</time>
      </trkpt>
      <trkpt lat="47.67599" lon="6.81557">
        <ele>395.1</ele>
        <time>2021-08-10T07:41:25Z</time>
      </trkpt>
      <trkpt lat="47.67599" lon="6.81558">
        <ele>395.1</ele>
        <time>2021-08-10T07:41:26Z</time>
      </trkpt>
      <trkpt lat="47.67597" lon="6.81561">
        <ele>395.2</ele>
        <time>2021-08-10T07:41:27Z</time>
      </trkpt>
      <trkpt lat="47.67596" lon="6.81563">
        <ele>395.3</ele>
        <time>2021-08-10T07:41:29Z</time>
      </trkpt>
      <trkpt lat="47.67595" lon="6.81568">
        <ele>395.5</ele>
        <time>2021-08-10T07:41:30Z</time>
      </trkpt>
      <trkpt lat="47.67594" lon="6.81569">
        <ele>395.5</ele>
        <time>2021-08-10T07:41:31Z</time>
      </trkpt>
      <trkpt lat="47.67593" lon="6.81572">
        <ele>395.6</ele>
        <time>2021-08-10T07:41:32Z</time>
      </trkpt>
      <trkpt lat="47.67592" lon="6.81575">
        <ele>395.7</ele>
        <time>2021-08-10T07:41:34Z</time>
      </trkpt>
      <trkpt lat="47.6759" lon="6.81581">
        <ele>395.8</ele>
        <time>2021-08-10T07:41:36Z</time>
      </trkpt>
      <trkpt lat="47.6759" lon="6.81586">
        <ele>396</ele>
        <time>2021-08-10T07:41:37Z</time>
      </trkpt>
      <trkpt lat="47.6759" lon="6.81588">
        <ele>396</ele>
        <time>2021-08-10T07:41:38Z</time>
      </trkpt>
      <trkpt lat="47.6759" lon="6.81591">
        <ele>396.1</ele>
        <time>2021-08-10T07:41:39Z</time>
      </trkpt>
      <trkpt lat="47.6759" lon="6.81596">
        <ele>396.2</ele>
        <time>2021-08-10T07:41:41Z</time>
      </trkpt>
      <trkpt lat="47.67591" lon="6.81601">
        <ele>396.3</ele>
        <time>2021-08-10T07:41:42Z</time>
      </trkpt>
      <trkpt lat="47.67591" lon="6.81607">
        <ele>396.5</ele>
        <time>2021-08-10T07:41:43Z</time>
      </trkpt>
      <trkpt lat="47.67591" lon="6.81613">
        <ele>396.6</ele>
        <time>2021-08-10T07:41:44Z</time>
      </trkpt>
      <trkpt lat="47.67591" lon="6.81615">
        <ele>396.7</ele>
        <time>2021-08-10T07:41:45Z</time>
      </trkpt>
      <trkpt lat="47.6759" lon="6.81622">
        <ele>396.8</ele>
        <time>2021-08-10T07:41:47Z</time>
      </trkpt>
      <trkpt lat="47.6759" lon="6.81624">
        <ele>396.9</ele>
        <time>2021-08-10T07:41:48Z</time>
      </trkpt>
      <trkpt lat="47.6759" lon="6.81626">
        <ele>396.9</ele>
        <time>2021-08-10T07:41:49Z</time>
      </trkpt>
      <trkpt lat="47.67589" lon="6.8163">
        <ele>397</ele>
        <time>2021-08-10T07:41:50Z</time>
      </trkpt>
      <trkpt lat="47.67588" lon="6.81636">
        <ele>397.2</ele>
        <time>2021-08-10T07:41:51Z</time>
      </trkpt>
      <trkpt lat="47.67587" lon="6.81642">
        <ele>397.3</ele>
        <time>2021-08-10T07:41:52Z</time>
      </trkpt>
      <trkpt lat="47.67587" lon="6.81647">
        <ele>397.5</ele>
        <time>2021-08-10T07:41:54Z</time>
      </trkpt>
      <trkpt lat="47.67586" lon="6.81651">
        <ele>397.6</ele>
        <time>2021-08-10T07:41:55Z</time>
      </trkpt>
      <trkpt lat="47.67584" lon="6.81656">
        <ele>397.7</ele>
        <time>2021-08-10T07:41:56Z</time>
      </trkpt>
      <trkpt lat="47.67584" lon="6.81658">
        <ele>397.8</ele>
        <time>2021-08-10T07:41:57Z</time>
      </trkpt>
      <trkpt lat="47.67582" lon="6.81663">
        <ele>397.9</ele>
        <time>2021-08-10T07:41:59Z</time>
      </trkpt>
      <trkpt lat="47.67581" lon="6.81667">
        <ele>398</ele>
        <time>2021-08-10T07:42:00Z</time>
      </trkpt>
      <trkpt lat="47.67579" lon="6.81673">
        <ele>398.2</ele>
        <time>2021-08-10T07:42:01Z</time>
      </trkpt>
      <trkpt lat="47.67578" lon="6.81674">
        <ele>398.2</ele>
        <time>2021-08-10T07:42:02Z</time>
      </trkpt>
      <trkpt lat="47.67578" lon="6.81679">
        <ele>398.3</ele>
        <time>2021-08-10T07:42:04Z</time>
      </trkpt>
      <trkpt lat="47.67578" lon="6.8168">
        <ele>398.4</ele>
        <time>2021-08-10T07:42:05Z</time>
      </trkpt>
      <trkpt lat="47.67577" lon="6.81683">
        <ele>398.4</ele>
        <time>2021-08-10T07:42:06Z</time>
      </trkpt>
      <trkpt lat="47.67574" lon="6.81689">
        <ele>398.6</ele>
        <time>2021-08-10T07:42:08Z</time>
      </trkpt>
      <trkpt lat="47.67573" lon="6.81696">
        <ele>398.8</ele>
        <time>2021-08-10T07:42:10Z</time>
      </trkpt>
      <trkpt lat="47.67571" lon="6.81701">
        <ele>398.9</ele>
        <time>2021-08-10T07:42:11Z</time>
      </trkpt>
      <trkpt lat="47.6757" lon="6.81703">
        <ele>399</ele>
        <time>2021-08-10T07:42:12Z</time>
      </trkpt>
      <trkpt lat="47.67569" lon="6.81707">
        <ele>399.1</ele>
        <time>2021-08-10T07:42:13Z</time>
      </trkpt>
      <trkpt lat="47.67567" lon="6.81712">
        <ele>399.2</ele>
        <time>2021-08-10T07:42:14Z</time>
      </trkpt>
      <trkpt lat="47.67566" lon="6.81714">
        <ele>399.3</ele>
        <time>2021-08-10T07:42:15Z</time>
      </trkpt>
      <trkpt lat="47.67565" lon="6.81717">
        <ele>399.4</ele>
        <time>2021-08-10T07:42:16Z</time>
      </trkpt>
      <trkpt lat="47.67563" lon="6.81721">
        <ele>399.4</ele>
        <time>2021-08-10T07:42:17Z</time>
      </trkpt>
      <trkpt lat="47.67561" lon="6.81724">
        <ele>399.5</ele>
        <time>2021-08-10T07:42:18Z</time>
      </trkpt>
      <trkpt lat="47.6756" lon="6.81729">
        <ele>399.6</ele>
        <time>2021-08-10T07:42:20Z</time>
      </trkpt>
      <trkpt lat="47.67558" lon="6.81734">
        <ele>399.6</ele>
        <time>2021-08-10T07:42:21Z</time>
      </trkpt>
      <trkpt lat="47.67557" lon="6.81739">
        <ele>399.7</ele>
        <time>2021-08-10T07:42:23Z</time>
      </trkpt>
      <trkpt lat="47.67557" lon="6.81741">
        <ele>399.7</ele>
        <time>2021-08-10T07:42:24Z</time>
      </trkpt>
      <trkpt lat="47.67554" lon="6.81745">
        <ele>399.8</ele>
        <time>2021-08-10T07:42:26Z</time>
      </trkpt>
      <trkpt lat="47.67553" lon="6.81749">
        <ele>399.9</ele>
        <time>2021-08-10T07:42:27Z</time>
      </trkpt>
      <trkpt lat="47.67552" lon="6.81753">
        <ele>399.9</ele>
        <time>2021-08-10T07:42:28Z</time>
      </trkpt>
      <trkpt lat="47.67552" lon="6.81755">
        <ele>399.9</ele>
        <time>2021-08-10T07:42:29Z</time>
      </trkpt>
      <trkpt lat="47.67553" lon="6.81759">
        <ele>400</ele>
        <time>2021-08-10T07:42:30Z</time>
      </trkpt>
      <trkpt lat="47.67553" lon="6.81761">
        <ele>400</ele>
        <time>2021-08-10T07:42:31Z</time>
      </trkpt>
      <trkpt lat="47.67552" lon="6.81767">
        <ele>400.1</ele>
        <time>2021-08-10T07:42:33Z</time>
      </trkpt>
      <trkpt lat="47.67551" lon="6.8177">
        <ele>400.1</ele>
        <time>2021-08-10T07:42:34Z</time>
      </trkpt>
      <trkpt lat="47.67549" lon="6.81778">
        <ele>400.2</ele>
        <time>2021-08-10T07:42:36Z</time>
      </trkpt>
      <trkpt lat="47.67547" lon="6.81781">
        <ele>400.3</ele>
        <time>2021-08-10T07:42:37Z</time>
      </trkpt>
      <trkpt lat="47.67545" lon="6.81785">
        <ele>400.4</ele>
        <time>2021-08-10T07:42:39Z</time>
      </trkpt>
      <trkpt lat="47.67544" lon="6.81787">
        <ele>400.4</ele>
        <time>2021-08-10T07:42:40Z</time>
      </trkpt>
      <trkpt lat="47.67542" lon="6.8179">
        <ele>400.4</ele>
        <time>2021-08-10T07:42:41Z</time>
      </trkpt>
      <trkpt lat="47.67539" lon="6.81798">
        <ele>400.5</ele>
        <time>2021-08-10T07:42:42Z</time>
      </trkpt>
      <trkpt lat="47.67537" lon="6.81803">
        <ele>400.6</ele>
        <time>2021-08-10T07:42:44Z</time>
      </trkpt>
      <trkpt lat="47.67535" lon="6.81806">
        <ele>400.7</ele>
        <time>2021-08-10T07:42:45Z</time>
      </trkpt>
      <trkpt lat="47.67533" lon="6.81811">
        <ele>400.8</ele>
        <time>2021-08-10T07:42:46Z</time>
      </trkpt>
      <trkpt lat="47.67532" lon="6.81814">
        <ele>400.8</ele>
        <time>2021-08-10T07:42:47Z</time>
      </trkpt>
      <trkpt lat="47.6753" lon="6.81817">
        <ele>400.9</ele>
        <time>2021-08-10T07:42:48Z</time>
      </trkpt>
      <trkpt lat="47.67529" lon="6.81821">
        <ele>400.9</ele>
        <time>2021-08-10T07:42:50Z</time>
      </trkpt>
      <trkpt lat="47.67527" lon="6.81828">
        <ele>401.1</ele>
        <time>2021-08-10T07:42:52Z</time>
      </trkpt>
      <trkpt lat="47.67525" lon="6.81832">
        <ele>401.1</ele>
        <time>2021-08-10T07:42:53Z</time>
      </trkpt>
      <trkpt lat="47.67524" lon="6.81834">
        <ele>401.2</ele>
        <time>2021-08-10T07:42:54Z</time>
      </trkpt>
      <trkpt lat="47.67522" lon="6.81838">
        <ele>401.3</ele>
        <time>2021-08-10T07:42:55Z</time>
      </trkpt>
      <trkpt lat="47.67521" lon="6.8184">
        <ele>401.3</ele>
        <time>2021-08-10T07:42:56Z</time>
      </trkpt>
      <trkpt lat="47.6752" lon="6.81844">
        <ele>401.4</ele>
        <time>2021-08-10T07:42:57Z</time>
      </trkpt>
      <trkpt lat="47.67517" lon="6.8185">
        <ele>401.5</ele>
        <time>2021-08-10T07:42:59Z</time>
      </trkpt>
      <trkpt lat="47.67516" lon="6.81852">
        <ele>401.5</ele>
        <time>2021-08-10T07:43:00Z</time>
      </trkpt>
      <trkpt lat="47.67514" lon="6.81854">
        <ele>401.6</ele>
        <time>2021-08-10T07:43:01Z</time>
      </trkpt>
      <trkpt lat="47.67513" lon="6.81858">
        <ele>401.7</ele>
        <time>2021-08-10T07:43:02Z</time>
      </trkpt>
      <trkpt lat="47.67512" lon="6.8186">
        <ele>401.7</ele>
        <time>2021-08-10T07:43:03Z</time>
      </trkpt>
      <trkpt lat="47.6751" lon="6.81863">
        <ele>401.8</ele>
        <time>2021-08-10T07:43:04Z</time>
      </trkpt>
      <trkpt lat="47.67508" lon="6.81867">
        <ele>401.9</ele>
        <time>2021-08-10T07:43:06Z</time>
      </trkpt>
      <trkpt lat="47.67506" lon="6.8187">
        <ele>401.9</ele>
        <time>2021-08-10T07:43:07Z</time>
      </trkpt>
      <trkpt lat="47.67503" lon="6.81874">
        <ele>402</ele>
        <time>2021-08-10T07:43:08Z</time>
      </trkpt>
      <trkpt lat="47.67503" lon="6.81876">
        <ele>402</ele>
        <time>2021-08-10T07:43:09Z</time>
      </trkpt>
      <trkpt lat="47.675" lon="6.8188">
        <ele>402.1</ele>
        <time>2021-08-10T07:43:10Z</time>
      </trkpt>
      <trkpt lat="47.67499" lon="6.81881">
        <ele>402.1</ele>
        <time>2021-08-10T07:43:11Z</time>
      </trkpt>
      <trkpt lat="47.67498" lon="6.81884">
        <ele>402.1</ele>
        <time>2021-08-10T07:43:13Z</time>
      </trkpt>
      <trkpt lat="47.67495" lon="6.8189">
        <ele>402.2</ele>
        <time>2021-08-10T07:43:15Z</time>
      </trkpt>
      <trkpt lat="47.67492" lon="6.81894">
        <ele>402.2</ele>
        <time>2021-08-10T07:43:17Z</time>
      </trkpt>
      <trkpt lat="47.67491" lon="6.81896">
        <ele>402.2</ele>
        <time>2021-08-10T07:43:18Z</time>
      </trkpt>
      <trkpt lat="47.67489" lon="6.819">
        <ele>402.2</ele>
        <time>2021-08-10T07:43:20Z</time>
      </trkpt>
      <trkpt lat="47.67485" lon="6.81903">
        <ele>402.2</ele>
        <time>2021-08-10T07:43:21Z</time>
      </trkpt>
      <trkpt lat="47.67482" lon="6.81906">
        <ele>402.2</ele>
        <time>2021-08-10T07:43:22Z</time>
      </trkpt>
      <trkpt lat="47.67479" lon="6.8191">
        <ele>402.2</ele>
        <time>2021-08-10T07:43:23Z</time>
      </trkpt>
      <trkpt lat="47.67476" lon="6.81916">
        <ele>402.1</ele>
        <time>2021-08-10T07:43:25Z</time>
      </trkpt>
      <trkpt lat="47.67473" lon="6.81919">
        <ele>402.1</ele>
        <time>2021-08-10T07:43:26Z</time>
      </trkpt>
      <trkpt lat="47.67469" lon="6.81928">
        <ele>402</ele>
        <time>2021-08-10T07:43:28Z</time>
      </trkpt>
      <trkpt lat="47.67465" lon="6.81932">
        <ele>401.9</ele>
        <time>2021-08-10T07:43:29Z</time>
      </trkpt>
      <trkpt lat="47.6746" lon="6.81942">
        <ele>401.8</ele>
        <time>2021-08-10T07:43:31Z</time>
      </trkpt>
      <trkpt lat="47.67457" lon="6.8195">
        <ele>401.6</ele>
        <time>2021-08-10T07:43:32Z</time>
      </trkpt>
      <trkpt lat="47.67452" lon="6.81961">
        <ele>401.4</ele>
        <time>2021-08-10T07:43:34Z</time>
      </trkpt>
      <trkpt lat="47.67453" lon="6.81968">
        <ele>401.3</ele>
        <time>2021-08-10T07:43:36Z</time>
      </trkpt>
      <trkpt lat="47.6745" lon="6.81978">
        <ele>401.1</ele>
        <time>2021-08-10T07:43:37Z</time>
      </trkpt>
      <trkpt lat="47.67447" lon="6.81987">
        <ele>400.9</ele>
        <time>2021-08-10T07:43:39Z</time>
      </trkpt>
      <trkpt lat="47.67444" lon="6.81997">
        <ele>400.6</ele>
        <time>2021-08-10T07:43:41Z</time>
      </trkpt>
      <trkpt lat="47.67443" lon="6.82003">
        <ele>400.5</ele>
        <time>2021-08-10T07:43:42Z</time>
      </trkpt>
      <trkpt lat="47.67441" lon="6.82015">
        <ele>400</ele>
        <time>2021-08-10T07:43:44Z</time>
      </trkpt>
      <trkpt lat="47.67438" lon="6.82033">
        <ele>399.2</ele>
        <time>2021-08-10T07:43:46Z</time>
      </trkpt>
      <trkpt lat="47.67436" lon="6.82041">
        <ele>398.8</ele>
        <time>2021-08-10T07:43:47Z</time>
      </trkpt>
      <trkpt lat="47.67434" lon="6.82057">
        <ele>397.9</ele>
        <time>2021-08-10T07:43:49Z</time>
      </trkpt>
      <trkpt lat="47.67432" lon="6.82065">
        <ele>397.4</ele>
        <time>2021-08-10T07:43:50Z</time>
      </trkpt>
      <trkpt lat="47.6743" lon="6.82081">
        <ele>396.5</ele>
        <time>2021-08-10T07:43:52Z</time>
      </trkpt>
      <trkpt lat="47.6743" lon="6.82097">
        <ele>395.6</ele>
        <time>2021-08-10T07:43:54Z</time>
      </trkpt>
      <trkpt lat="47.6743" lon="6.82105">
        <ele>395.2</ele>
        <time>2021-08-10T07:43:55Z</time>
      </trkpt>
      <trkpt lat="47.6743" lon="6.82113">
        <ele>394.8</ele>
        <time>2021-08-10T07:43:56Z</time>
      </trkpt>
      <trkpt lat="47.6743" lon="6.82131">
        <ele>393.9</ele>
        <time>2021-08-10T07:43:58Z</time>
      </trkpt>
      <trkpt lat="47.67431" lon="6.8214">
        <ele>393.4</ele>
        <time>2021-08-10T07:43:59Z</time>
      </trkpt>
      <trkpt lat="47.67432" lon="6.8215">
        <ele>392.9</ele>
        <time>2021-08-10T07:44:00Z</time>
      </trkpt>
      <trkpt lat="47.67434" lon="6.82171">
        <ele>391.9</ele>
        <time>2021-08-10T07:44:02Z</time>
      </trkpt>
      <trkpt lat="47.67435" lon="6.82194">
        <ele>390.8</ele>
        <time>2021-08-10T07:44:04Z</time>
      </trkpt>
      <trkpt lat="47.67435" lon="6.82206">
        <ele>390.2</ele>
        <time>2021-08-10T07:44:05Z</time>
      </trkpt>
      <trkpt lat="47.67435" lon="6.82218">
        <ele>389.6</ele>
        <time>2021-08-10T07:44:06Z</time>
      </trkpt>
      <trkpt lat="47.67437" lon="6.82229">
        <ele>389.2</ele>
        <time>2021-08-10T07:44:07Z</time>
      </trkpt>
      <trkpt lat="47.6744" lon="6.82239">
        <ele>388.7</ele>
        <time>2021-08-10T07:44:08Z</time>
      </trkpt>
      <trkpt lat="47.67447" lon="6.82256">
        <ele>388</ele>
        <time>2021-08-10T07:44:10Z</time>
      </trkpt>
      <trkpt lat="47.67456" lon="6.82267">
        <ele>387.5</ele>
        <time>2021-08-10T07:44:12Z</time>
      </trkpt>
      <trkpt lat="47.67461" lon="6.82277">
        <ele>386.9</ele>
        <time>2021-08-10T07:44:14Z</time>
      </trkpt>
      <trkpt lat="47.67466" lon="6.82288">
        <ele>386.4</ele>
        <time>2021-08-10T07:44:16Z</time>
      </trkpt>
      <trkpt lat="47.67467" lon="6.82296">
        <ele>386.2</ele>
        <time>2021-08-10T07:44:17Z</time>
      </trkpt>
      <trkpt lat="47.6747" lon="6.82309">
        <ele>385.9</ele>
        <time>2021-08-10T07:44:19Z</time>
      </trkpt>
      <trkpt lat="47.6747" lon="6.82317">
        <ele>385.8</ele>
        <time>2021-08-10T07:44:20Z</time>
      </trkpt>
      <trkpt lat="47.67471" lon="6.82333">
        <ele>385.6</ele>
        <time>2021-08-10T07:44:22Z</time>
      </trkpt>
      <trkpt lat="47.6747" lon="6.82341">
        <ele>385.6</ele>
        <time>2021-08-10T07:44:23Z</time>
      </trkpt>
      <trkpt lat="47.67469" lon="6.82348">
        <ele>385.6</ele>
        <time>2021-08-10T07:44:24Z</time>
      </trkpt>
      <trkpt lat="47.67469" lon="6.82361">
        <ele>385.6</ele>
        <time>2021-08-10T07:44:26Z</time>
      </trkpt>
      <trkpt lat="47.6747" lon="6.82368">
        <ele>385.7</ele>
        <time>2021-08-10T07:44:27Z</time>
      </trkpt>
      <trkpt lat="47.6747" lon="6.82373">
        <ele>385.8</ele>
        <time>2021-08-10T07:44:28Z</time>
      </trkpt>
      <trkpt lat="47.6747" lon="6.8238">
        <ele>385.9</ele>
        <time>2021-08-10T07:44:29Z</time>
      </trkpt>
      <trkpt lat="47.67468" lon="6.82393">
        <ele>386.1</ele>
        <time>2021-08-10T07:44:31Z</time>
      </trkpt>
      <trkpt lat="47.67469" lon="6.82412">
        <ele>386.7</ele>
        <time>2021-08-10T07:44:33Z</time>
      </trkpt>
      <trkpt lat="47.6747" lon="6.82425">
        <ele>387.3</ele>
        <time>2021-08-10T07:44:34Z</time>
      </trkpt>
      <trkpt lat="47.67471" lon="6.82434">
        <ele>387.7</ele>
        <time>2021-08-10T07:44:36Z</time>
      </trkpt>
      <trkpt lat="47.6747" lon="6.82444">
        <ele>388.2</ele>
        <time>2021-08-10T07:44:38Z</time>
      </trkpt>
      <trkpt lat="47.67469" lon="6.8245">
        <ele>388.4</ele>
        <time>2021-08-10T07:44:39Z</time>
      </trkpt>
      <trkpt lat="47.67467" lon="6.82458">
        <ele>388.9</ele>
        <time>2021-08-10T07:44:41Z</time>
      </trkpt>
      <trkpt lat="47.67467" lon="6.82462">
        <ele>389</ele>
        <time>2021-08-10T07:44:42Z</time>
      </trkpt>
      <trkpt lat="47.67466" lon="6.82465">
        <ele>389.2</ele>
        <time>2021-08-10T07:44:44Z</time>
      </trkpt>
      <trkpt lat="47.67467" lon="6.82467">
        <ele>389.3</ele>
        <time>2021-08-10T07:44:45Z</time>
      </trkpt>
      <trkpt lat="47.67467" lon="6.82469">
        <ele>389.4</ele>
        <time>2021-08-10T07:44:46Z</time>
      </trkpt>
      <trkpt lat="47.67466" lon="6.8247">
        <ele>389.4</ele>
        <time>2021-08-10T07:44:47Z</time>
      </trkpt>
      <trkpt lat="47.67465" lon="6.82469">
        <ele>389.5</ele>
        <time>2021-08-10T07:44:48Z</time>
      </trkpt>
      <trkpt lat="47.67463" lon="6.82467">
        <ele>389.6</ele>
        <time>2021-08-10T07:44:49Z</time>
      </trkpt>
      <trkpt lat="47.67462" lon="6.82466">
        <ele>389.7</ele>
        <time>2021-08-10T07:44:50Z</time>
      </trkpt>
      <trkpt lat="47.67461" lon="6.82466">
        <ele>389.8</ele>
        <time>2021-08-10T07:44:51Z</time>
      </trkpt>
      <trkpt lat="47.6746" lon="6.82468">
        <ele>389.9</ele>
        <time>2021-08-10T07:44:52Z</time>
      </trkpt>
      <trkpt lat="47.67459" lon="6.82469">
        <ele>389.9</ele>
        <time>2021-08-10T07:44:54Z</time>
      </trkpt>
      <trkpt lat="47.67458" lon="6.82469">
        <ele>390</ele>
        <time>2021-08-10T07:44:55Z</time>
      </trkpt>
      <trkpt lat="47.67457" lon="6.8247">
        <ele>390.1</ele>
        <time>2021-08-10T07:44:56Z</time>
      </trkpt>
      <trkpt lat="47.67454" lon="6.82471">
        <ele>390.3</ele>
        <time>2021-08-10T07:44:57Z</time>
      </trkpt>
      <trkpt lat="47.67451" lon="6.82473">
        <ele>390.5</ele>
        <time>2021-08-10T07:44:58Z</time>
      </trkpt>
      <trkpt lat="47.67448" lon="6.82475">
        <ele>390.7</ele>
        <time>2021-08-10T07:45:00Z</time>
      </trkpt>
      <trkpt lat="47.67445" lon="6.82477">
        <ele>390.9</ele>
        <time>2021-08-10T07:45:01Z</time>
      </trkpt>
      <trkpt lat="47.67442" lon="6.82478">
        <ele>391.1</ele>
        <time>2021-08-10T07:45:02Z</time>
      </trkpt>
      <trkpt lat="47.67439" lon="6.82482">
        <ele>391.3</ele>
        <time>2021-08-10T07:45:03Z</time>
      </trkpt>
      <trkpt lat="47.67438" lon="6.82483">
        <ele>391.4</ele>
        <time>2021-08-10T07:45:04Z</time>
      </trkpt>
      <trkpt lat="47.67437" lon="6.82482">
        <ele>391.5</ele>
        <time>2021-08-10T07:45:06Z</time>
      </trkpt>
      <trkpt lat="47.67436" lon="6.82481">
        <ele>391.6</ele>
        <time>2021-08-10T07:45:07Z</time>
      </trkpt>
      <trkpt lat="47.67436" lon="6.82482">
        <ele>391.6</ele>
        <time>2021-08-10T07:45:08Z</time>
      </trkpt>
      <trkpt lat="47.67436" lon="6.82481">
        <ele>391.6</ele>
        <time>2021-08-10T07:45:09Z</time>
      </trkpt>
      <trkpt lat="47.67436" lon="6.82481">
        <ele>391.6</ele>
        <time>2021-08-10T07:45:10Z</time>
      </trkpt>
      <trkpt lat="47.67436" lon="6.82482">
        <ele>391.6</ele>
        <time>2021-08-10T07:45:12Z</time>
      </trkpt>
      <trkpt lat="47.67436" lon="6.82485">
        <ele>391.7</ele>
        <time>2021-08-10T07:45:14Z</time>
      </trkpt>
      <trkpt lat="47.67429" lon="6.82498">
        <ele>392.4</ele>
        <time>2021-08-10T07:45:23Z</time>
      </trkpt>
      <trkpt lat="47.67425" lon="6.825">
        <ele>392.6</ele>
        <time>2021-08-10T07:45:24Z</time>
      </trkpt>
      <trkpt lat="47.67421" lon="6.82499">
        <ele>392.9</ele>
        <time>2021-08-10T07:45:26Z</time>
      </trkpt>
      <trkpt lat="47.67417" lon="6.825">
        <ele>393.1</ele>
        <time>2021-08-10T07:45:27Z</time>
      </trkpt>
      <trkpt lat="47.67415" lon="6.82501">
        <ele>393.2</ele>
        <time>2021-08-10T07:45:28Z</time>
      </trkpt>
      <trkpt lat="47.67411" lon="6.82503">
        <ele>393.5</ele>
        <time>2021-08-10T07:45:30Z</time>
      </trkpt>
      <trkpt lat="47.67407" lon="6.82507">
        <ele>393.7</ele>
        <time>2021-08-10T07:45:31Z</time>
      </trkpt>
      <trkpt lat="47.67405" lon="6.8251">
        <ele>393.9</ele>
        <time>2021-08-10T07:45:33Z</time>
      </trkpt>
      <trkpt lat="47.67403" lon="6.82513">
        <ele>394</ele>
        <time>2021-08-10T07:45:34Z</time>
      </trkpt>
      <trkpt lat="47.674" lon="6.82517">
        <ele>394.2</ele>
        <time>2021-08-10T07:45:35Z</time>
      </trkpt>
      <trkpt lat="47.67399" lon="6.82518">
        <ele>394.3</ele>
        <time>2021-08-10T07:45:36Z</time>
      </trkpt>
      <trkpt lat="47.67397" lon="6.8252">
        <ele>394.5</ele>
        <time>2021-08-10T07:45:38Z</time>
      </trkpt>
      <trkpt lat="47.67396" lon="6.82521">
        <ele>394.5</ele>
        <time>2021-08-10T07:45:39Z</time>
      </trkpt>
      <trkpt lat="47.67394" lon="6.82522">
        <ele>394.6</ele>
        <time>2021-08-10T07:45:40Z</time>
      </trkpt>
      <trkpt lat="47.67393" lon="6.82523">
        <ele>394.7</ele>
        <time>2021-08-10T07:45:41Z</time>
      </trkpt>
      <trkpt lat="47.6739" lon="6.82524">
        <ele>394.8</ele>
        <time>2021-08-10T07:45:42Z</time>
      </trkpt>
      <trkpt lat="47.67389" lon="6.82525">
        <ele>394.9</ele>
        <time>2021-08-10T07:45:43Z</time>
      </trkpt>
      <trkpt lat="47.67385" lon="6.82526">
        <ele>395.1</ele>
        <time>2021-08-10T07:45:44Z</time>
      </trkpt>
      <trkpt lat="47.67384" lon="6.82527">
        <ele>395.1</ele>
        <time>2021-08-10T07:45:45Z</time>
      </trkpt>
      <trkpt lat="47.67381" lon="6.82529">
        <ele>395.3</ele>
        <time>2021-08-10T07:45:46Z</time>
      </trkpt>
      <trkpt lat="47.6738" lon="6.8253">
        <ele>395.4</ele>
        <time>2021-08-10T07:45:47Z</time>
      </trkpt>
      <trkpt lat="47.67378" lon="6.82531">
        <ele>395.5</ele>
        <time>2021-08-10T07:45:48Z</time>
      </trkpt>
      <trkpt lat="47.67374" lon="6.82532">
        <ele>395.6</ele>
        <time>2021-08-10T07:45:50Z</time>
      </trkpt>
      <trkpt lat="47.67371" lon="6.82534">
        <ele>395.8</ele>
        <time>2021-08-10T07:45:51Z</time>
      </trkpt>
      <trkpt lat="47.67368" lon="6.82537">
        <ele>396</ele>
        <time>2021-08-10T07:45:52Z</time>
      </trkpt>
      <trkpt lat="47.67364" lon="6.8254">
        <ele>396.1</ele>
        <time>2021-08-10T07:45:54Z</time>
      </trkpt>
      <trkpt lat="47.67363" lon="6.82541">
        <ele>396.2</ele>
        <time>2021-08-10T07:45:55Z</time>
      </trkpt>
      <trkpt lat="47.67361" lon="6.82542">
        <ele>396.3</ele>
        <time>2021-08-10T07:45:56Z</time>
      </trkpt>
      <trkpt lat="47.67357" lon="6.82542">
        <ele>396.4</ele>
        <time>2021-08-10T07:45:58Z</time>
      </trkpt>
      <trkpt lat="47.67354" lon="6.82542">
        <ele>396.6</ele>
        <time>2021-08-10T07:45:59Z</time>
      </trkpt>
      <trkpt lat="47.67351" lon="6.82542">
        <ele>396.7</ele>
        <time>2021-08-10T07:46:01Z</time>
      </trkpt>
      <trkpt lat="47.6735" lon="6.82542">
        <ele>396.7</ele>
        <time>2021-08-10T07:46:02Z</time>
      </trkpt>
      <trkpt lat="47.67349" lon="6.82543">
        <ele>396.8</ele>
        <time>2021-08-10T07:46:04Z</time>
      </trkpt>
      <trkpt lat="47.67348" lon="6.82543">
        <ele>396.8</ele>
        <time>2021-08-10T07:46:05Z</time>
      </trkpt>
      <trkpt lat="47.67344" lon="6.82545">
        <ele>397</ele>
        <time>2021-08-10T07:46:06Z</time>
      </trkpt>
      <trkpt lat="47.67343" lon="6.82546">
        <ele>397</ele>
        <time>2021-08-10T07:46:07Z</time>
      </trkpt>
      <trkpt lat="47.67341" lon="6.82548">
        <ele>397.1</ele>
        <time>2021-08-10T07:46:08Z</time>
      </trkpt>
      <trkpt lat="47.6734" lon="6.82549">
        <ele>397.2</ele>
        <time>2021-08-10T07:46:09Z</time>
      </trkpt>
      <trkpt lat="47.67338" lon="6.82551">
        <ele>397.3</ele>
        <time>2021-08-10T07:46:11Z</time>
      </trkpt>
      <trkpt lat="47.67337" lon="6.82552">
        <ele>397.3</ele>
        <time>2021-08-10T07:46:13Z</time>
      </trkpt>
      <trkpt lat="47.67336" lon="6.82553">
        <ele>397.4</ele>
        <time>2021-08-10T07:46:14Z</time>
      </trkpt>
      <trkpt lat="47.67333" lon="6.82557">
        <ele>397.5</ele>
        <time>2021-08-10T07:46:16Z</time>
      </trkpt>
      <trkpt lat="47.67329" lon="6.82558">
        <ele>397.7</ele>
        <time>2021-08-10T07:46:18Z</time>
      </trkpt>
      <trkpt lat="47.67326" lon="6.82559">
        <ele>397.8</ele>
        <time>2021-08-10T07:46:19Z</time>
      </trkpt>
      <trkpt lat="47.67324" lon="6.82559">
        <ele>397.8</ele>
        <time>2021-08-10T07:46:20Z</time>
      </trkpt>
      <trkpt lat="47.67323" lon="6.8256">
        <ele>397.9</ele>
        <time>2021-08-10T07:46:21Z</time>
      </trkpt>
      <trkpt lat="47.67322" lon="6.82561">
        <ele>397.9</ele>
        <time>2021-08-10T07:46:22Z</time>
      </trkpt>
      <trkpt lat="47.67321" lon="6.82563">
        <ele>398</ele>
        <time>2021-08-10T07:46:24Z</time>
      </trkpt>
      <trkpt lat="47.6732" lon="6.82564">
        <ele>398</ele>
        <time>2021-08-10T07:46:25Z</time>
      </trkpt>
      <trkpt lat="47.67319" lon="6.82569">
        <ele>398.1</ele>
        <time>2021-08-10T07:46:26Z</time>
      </trkpt>
      <trkpt lat="47.67318" lon="6.82574">
        <ele>398.3</ele>
        <time>2021-08-10T07:46:27Z</time>
      </trkpt>
      <trkpt lat="47.67318" lon="6.82581">
        <ele>398.4</ele>
        <time>2021-08-10T07:46:29Z</time>
      </trkpt>
      <trkpt lat="47.67318" lon="6.82586">
        <ele>398.6</ele>
        <time>2021-08-10T07:46:30Z</time>
      </trkpt>
      <trkpt lat="47.67318" lon="6.8259">
        <ele>398.6</ele>
        <time>2021-08-10T07:46:31Z</time>
      </trkpt>
      <trkpt lat="47.67316" lon="6.82596">
        <ele>398.8</ele>
        <time>2021-08-10T07:46:32Z</time>
      </trkpt>
      <trkpt lat="47.67316" lon="6.82599">
        <ele>398.9</ele>
        <time>2021-08-10T07:46:33Z</time>
      </trkpt>
      <trkpt lat="47.67315" lon="6.82603">
        <ele>399</ele>
        <time>2021-08-10T07:46:34Z</time>
      </trkpt>
      <trkpt lat="47.67314" lon="6.82609">
        <ele>399.1</ele>
        <time>2021-08-10T07:46:36Z</time>
      </trkpt>
      <trkpt lat="47.67313" lon="6.82614">
        <ele>399.2</ele>
        <time>2021-08-10T07:46:37Z</time>
      </trkpt>
      <trkpt lat="47.67312" lon="6.82618">
        <ele>399.3</ele>
        <time>2021-08-10T07:46:38Z</time>
      </trkpt>
      <trkpt lat="47.67312" lon="6.82623">
        <ele>399.3</ele>
        <time>2021-08-10T07:46:39Z</time>
      </trkpt>
      <trkpt lat="47.67312" lon="6.82624">
        <ele>399.4</ele>
        <time>2021-08-10T07:46:40Z</time>
      </trkpt>
      <trkpt lat="47.67309" lon="6.82628">
        <ele>399.5</ele>
        <time>2021-08-10T07:46:41Z</time>
      </trkpt>
      <trkpt lat="47.67308" lon="6.82631">
        <ele>399.6</ele>
        <time>2021-08-10T07:46:43Z</time>
      </trkpt>
      <trkpt lat="47.67307" lon="6.82633">
        <ele>399.6</ele>
        <time>2021-08-10T07:46:44Z</time>
      </trkpt>
      <trkpt lat="47.67305" lon="6.82636">
        <ele>399.7</ele>
        <time>2021-08-10T07:46:45Z</time>
      </trkpt>
      <trkpt lat="47.67303" lon="6.82642">
        <ele>399.8</ele>
        <time>2021-08-10T07:46:47Z</time>
      </trkpt>
      <trkpt lat="47.67302" lon="6.82648">
        <ele>400</ele>
        <time>2021-08-10T07:46:48Z</time>
      </trkpt>
      <trkpt lat="47.67301" lon="6.82651">
        <ele>400</ele>
        <time>2021-08-10T07:46:49Z</time>
      </trkpt>
      <trkpt lat="47.67299" lon="6.82657">
        <ele>400.2</ele>
        <time>2021-08-10T07:46:51Z</time>
      </trkpt>
      <trkpt lat="47.67298" lon="6.82664">
        <ele>400.3</ele>
        <time>2021-08-10T07:46:52Z</time>
      </trkpt>
      <trkpt lat="47.67296" lon="6.82668">
        <ele>400.4</ele>
        <time>2021-08-10T07:46:54Z</time>
      </trkpt>
      <trkpt lat="47.67295" lon="6.82669">
        <ele>400.4</ele>
        <time>2021-08-10T07:46:55Z</time>
      </trkpt>
      <trkpt lat="47.67294" lon="6.82674">
        <ele>400.5</ele>
        <time>2021-08-10T07:46:56Z</time>
      </trkpt>
      <trkpt lat="47.67292" lon="6.82678">
        <ele>400.6</ele>
        <time>2021-08-10T07:46:58Z</time>
      </trkpt>
      <trkpt lat="47.67292" lon="6.8268">
        <ele>400.7</ele>
        <time>2021-08-10T07:46:59Z</time>
      </trkpt>
      <trkpt lat="47.6729" lon="6.82683">
        <ele>400.7</ele>
        <time>2021-08-10T07:47:00Z</time>
      </trkpt>
      <trkpt lat="47.67288" lon="6.82686">
        <ele>400.8</ele>
        <time>2021-08-10T07:47:02Z</time>
      </trkpt>
      <trkpt lat="47.67286" lon="6.8269">
        <ele>400.9</ele>
        <time>2021-08-10T07:47:03Z</time>
      </trkpt>
      <trkpt lat="47.67284" lon="6.82693">
        <ele>401</ele>
        <time>2021-08-10T07:47:05Z</time>
      </trkpt>
      <trkpt lat="47.67283" lon="6.82694">
        <ele>401</ele>
        <time>2021-08-10T07:47:06Z</time>
      </trkpt>
      <trkpt lat="47.67282" lon="6.827">
        <ele>401.1</ele>
        <time>2021-08-10T07:47:08Z</time>
      </trkpt>
      <trkpt lat="47.67282" lon="6.82702">
        <ele>401.1</ele>
        <time>2021-08-10T07:47:09Z</time>
      </trkpt>
      <trkpt lat="47.67282" lon="6.82706">
        <ele>401.2</ele>
        <time>2021-08-10T07:47:10Z</time>
      </trkpt>
      <trkpt lat="47.67281" lon="6.82711">
        <ele>401.2</ele>
        <time>2021-08-10T07:47:12Z</time>
      </trkpt>
      <trkpt lat="47.6728" lon="6.82716">
        <ele>401.3</ele>
        <time>2021-08-10T07:47:14Z</time>
      </trkpt>
      <trkpt lat="47.67279" lon="6.82722">
        <ele>401.4</ele>
        <time>2021-08-10T07:47:15Z</time>
      </trkpt>
      <trkpt lat="47.67279" lon="6.82724">
        <ele>401.4</ele>
        <time>2021-08-10T07:47:16Z</time>
      </trkpt>
      <trkpt lat="47.67278" lon="6.82728">
        <ele>401.4</ele>
        <time>2021-08-10T07:47:17Z</time>
      </trkpt>
      <trkpt lat="47.67277" lon="6.82734">
        <ele>401.5</ele>
        <time>2021-08-10T07:47:19Z</time>
      </trkpt>
      <trkpt lat="47.67277" lon="6.82737">
        <ele>401.5</ele>
        <time>2021-08-10T07:47:20Z</time>
      </trkpt>
      <trkpt lat="47.67276" lon="6.82742">
        <ele>401.6</ele>
        <time>2021-08-10T07:47:22Z</time>
      </trkpt>
      <trkpt lat="47.67274" lon="6.82746">
        <ele>401.6</ele>
        <time>2021-08-10T07:47:23Z</time>
      </trkpt>
      <trkpt lat="47.67273" lon="6.82747">
        <ele>401.6</ele>
        <time>2021-08-10T07:47:24Z</time>
      </trkpt>
      <trkpt lat="47.6727" lon="6.82752">
        <ele>401.7</ele>
        <time>2021-08-10T07:47:26Z</time>
      </trkpt>
      <trkpt lat="47.67269" lon="6.82754">
        <ele>401.7</ele>
        <time>2021-08-10T07:47:27Z</time>
      </trkpt>
      <trkpt lat="47.67268" lon="6.82759">
        <ele>401.7</ele>
        <time>2021-08-10T07:47:29Z</time>
      </trkpt>
      <trkpt lat="47.67267" lon="6.82763">
        <ele>401.7</ele>
        <time>2021-08-10T07:47:30Z</time>
      </trkpt>
      <trkpt lat="47.67266" lon="6.82764">
        <ele>401.7</ele>
        <time>2021-08-10T07:47:32Z</time>
      </trkpt>
      <trkpt lat="47.67266" lon="6.82766">
        <ele>401.7</ele>
        <time>2021-08-10T07:47:34Z</time>
      </trkpt>
      <trkpt lat="47.67265" lon="6.82768">
        <ele>401.7</ele>
        <time>2021-08-10T07:47:35Z</time>
      </trkpt>
      <trkpt lat="47.67265" lon="6.82769">
        <ele>401.7</ele>
        <time>2021-08-10T07:47:36Z</time>
      </trkpt>
      <trkpt lat="47.67264" lon="6.82771">
        <ele>401.6</ele>
        <time>2021-08-10T07:47:37Z</time>
      </trkpt>
      <trkpt lat="47.67263" lon="6.82773">
        <ele>401.6</ele>
        <time>2021-08-10T07:47:39Z</time>
      </trkpt>
      <trkpt lat="47.67263" lon="6.82774">
        <ele>401.6</ele>
        <time>2021-08-10T07:47:41Z</time>
      </trkpt>
      <trkpt lat="47.67262" lon="6.82776">
        <ele>401.5</ele>
        <time>2021-08-10T07:48:45Z</time>
      </trkpt>
      <trkpt lat="47.67262" lon="6.82778">
        <ele>401.5</ele>
        <time>2021-08-10T07:48:46Z</time>
      </trkpt>
      <trkpt lat="47.67258" lon="6.82788">
        <ele>401.4</ele>
        <time>2021-08-10T07:48:48Z</time>
      </trkpt>
      <trkpt lat="47.67256" lon="6.82795">
        <ele>401.2</ele>
        <time>2021-08-10T07:48:49Z</time>
      </trkpt>
      <trkpt lat="47.67252" lon="6.82807">
        <ele>401.1</ele>
        <time>2021-08-10T07:48:50Z</time>
      </trkpt>
      <trkpt lat="47.6725" lon="6.82813">
        <ele>401</ele>
        <time>2021-08-10T07:48:51Z</time>
      </trkpt>
      <trkpt lat="47.67247" lon="6.82823">
        <ele>400.8</ele>
        <time>2021-08-10T07:48:53Z</time>
      </trkpt>
      <trkpt lat="47.67244" lon="6.8283">
        <ele>400.7</ele>
        <time>2021-08-10T07:48:54Z</time>
      </trkpt>
      <trkpt lat="47.67239" lon="6.82845">
        <ele>400.4</ele>
        <time>2021-08-10T07:48:56Z</time>
      </trkpt>
      <trkpt lat="47.67237" lon="6.82851">
        <ele>400.3</ele>
        <time>2021-08-10T07:48:57Z</time>
      </trkpt>
      <trkpt lat="47.67232" lon="6.82864">
        <ele>400.1</ele>
        <time>2021-08-10T07:48:59Z</time>
      </trkpt>
      <trkpt lat="47.67227" lon="6.82877">
        <ele>399.8</ele>
        <time>2021-08-10T07:49:01Z</time>
      </trkpt>
      <trkpt lat="47.67225" lon="6.82883">
        <ele>399.6</ele>
        <time>2021-08-10T07:49:02Z</time>
      </trkpt>
      <trkpt lat="47.67222" lon="6.8289">
        <ele>399.4</ele>
        <time>2021-08-10T07:49:03Z</time>
      </trkpt>
      <trkpt lat="47.67216" lon="6.82903">
        <ele>399</ele>
        <time>2021-08-10T07:49:05Z</time>
      </trkpt>
      <trkpt lat="47.67209" lon="6.82917">
        <ele>398.6</ele>
        <time>2021-08-10T07:49:07Z</time>
      </trkpt>
      <trkpt lat="47.67206" lon="6.82923">
        <ele>398.4</ele>
        <time>2021-08-10T07:49:08Z</time>
      </trkpt>
      <trkpt lat="47.67199" lon="6.82935">
        <ele>398</ele>
        <time>2021-08-10T07:49:10Z</time>
      </trkpt>
      <trkpt lat="47.67195" lon="6.82941">
        <ele>397.8</ele>
        <time>2021-08-10T07:49:11Z</time>
      </trkpt>
      <trkpt lat="47.67191" lon="6.82946">
        <ele>397.6</ele>
        <time>2021-08-10T07:49:12Z</time>
      </trkpt>
      <trkpt lat="47.67183" lon="6.82957">
        <ele>397.3</ele>
        <time>2021-08-10T07:49:14Z</time>
      </trkpt>
      <trkpt lat="47.67178" lon="6.8296">
        <ele>397.1</ele>
        <time>2021-08-10T07:49:15Z</time>
      </trkpt>
      <trkpt lat="47.67169" lon="6.82967">
        <ele>396.9</ele>
        <time>2021-08-10T07:49:17Z</time>
      </trkpt>
      <trkpt lat="47.67164" lon="6.8297">
        <ele>396.8</ele>
        <time>2021-08-10T07:49:18Z</time>
      </trkpt>
      <trkpt lat="47.6716" lon="6.82973">
        <ele>396.7</ele>
        <time>2021-08-10T07:49:19Z</time>
      </trkpt>
      <trkpt lat="47.67157" lon="6.82975">
        <ele>396.6</ele>
        <time>2021-08-10T07:49:20Z</time>
      </trkpt>
      <trkpt lat="47.67151" lon="6.82978">
        <ele>396.5</ele>
        <time>2021-08-10T07:49:22Z</time>
      </trkpt>
      <trkpt lat="47.67148" lon="6.8298">
        <ele>396.5</ele>
        <time>2021-08-10T07:49:23Z</time>
      </trkpt>
      <trkpt lat="47.67145" lon="6.82983">
        <ele>396.5</ele>
        <time>2021-08-10T07:49:24Z</time>
      </trkpt>
      <trkpt lat="47.67143" lon="6.82985">
        <ele>396.4</ele>
        <time>2021-08-10T07:49:25Z</time>
      </trkpt>
      <trkpt lat="47.6714" lon="6.82989">
        <ele>396.4</ele>
        <time>2021-08-10T07:49:26Z</time>
      </trkpt>
      <trkpt lat="47.6714" lon="6.82991">
        <ele>396.4</ele>
        <time>2021-08-10T07:49:27Z</time>
      </trkpt>
      <trkpt lat="47.67137" lon="6.82993">
        <ele>396.4</ele>
        <time>2021-08-10T07:49:28Z</time>
      </trkpt>
      <trkpt lat="47.67134" lon="6.82995">
        <ele>396.4</ele>
        <time>2021-08-10T07:49:29Z</time>
      </trkpt>
      <trkpt lat="47.6713" lon="6.83">
        <ele>396.4</ele>
        <time>2021-08-10T07:49:31Z</time>
      </trkpt>
      <trkpt lat="47.67127" lon="6.83006">
        <ele>396.4</ele>
        <time>2021-08-10T07:49:32Z</time>
      </trkpt>
      <trkpt lat="47.67125" lon="6.8301">
        <ele>396.5</ele>
        <time>2021-08-10T07:49:34Z</time>
      </trkpt>
      <trkpt lat="47.67123" lon="6.83018">
        <ele>396.6</ele>
        <time>2021-08-10T07:49:35Z</time>
      </trkpt>
      <trkpt lat="47.6712" lon="6.83022">
        <ele>396.6</ele>
        <time>2021-08-10T07:49:36Z</time>
      </trkpt>
      <trkpt lat="47.67118" lon="6.83029">
        <ele>396.8</ele>
        <time>2021-08-10T07:49:38Z</time>
      </trkpt>
      <trkpt lat="47.67116" lon="6.83035">
        <ele>396.9</ele>
        <time>2021-08-10T07:49:39Z</time>
      </trkpt>
      <trkpt lat="47.67115" lon="6.83039">
        <ele>397</ele>
        <time>2021-08-10T07:49:40Z</time>
      </trkpt>
      <trkpt lat="47.67113" lon="6.83045">
        <ele>397.2</ele>
        <time>2021-08-10T07:49:41Z</time>
      </trkpt>
      <trkpt lat="47.67111" lon="6.83052">
        <ele>397.4</ele>
        <time>2021-08-10T07:49:43Z</time>
      </trkpt>
      <trkpt lat="47.6711" lon="6.83058">
        <ele>397.6</ele>
        <time>2021-08-10T07:49:45Z</time>
      </trkpt>
      <trkpt lat="47.67109" lon="6.83062">
        <ele>397.8</ele>
        <time>2021-08-10T07:49:46Z</time>
      </trkpt>
      <trkpt lat="47.67108" lon="6.83069">
        <ele>398.1</ele>
        <time>2021-08-10T07:49:48Z</time>
      </trkpt>
      <trkpt lat="47.67107" lon="6.83075">
        <ele>398.4</ele>
        <time>2021-08-10T07:49:49Z</time>
      </trkpt>
      <trkpt lat="47.67107" lon="6.83077">
        <ele>398.4</ele>
        <time>2021-08-10T07:49:51Z</time>
      </trkpt>
      <trkpt lat="47.67108" lon="6.8308">
        <ele>398.5</ele>
        <time>2021-08-10T07:49:52Z</time>
      </trkpt>
      <trkpt lat="47.67108" lon="6.83082">
        <ele>398.7</ele>
        <time>2021-08-10T07:49:53Z</time>
      </trkpt>
      <trkpt lat="47.6711" lon="6.83088">
        <ele>399</ele>
        <time>2021-08-10T07:49:55Z</time>
      </trkpt>
      <trkpt lat="47.67111" lon="6.83094">
        <ele>399.2</ele>
        <time>2021-08-10T07:49:57Z</time>
      </trkpt>
      <trkpt lat="47.6711" lon="6.831">
        <ele>399.5</ele>
        <time>2021-08-10T07:49:58Z</time>
      </trkpt>
      <trkpt lat="47.6711" lon="6.83104">
        <ele>399.7</ele>
        <time>2021-08-10T07:50:00Z</time>
      </trkpt>
      <trkpt lat="47.67109" lon="6.83106">
        <ele>399.7</ele>
        <time>2021-08-10T07:50:01Z</time>
      </trkpt>
      <trkpt lat="47.67108" lon="6.83114">
        <ele>400</ele>
        <time>2021-08-10T07:50:02Z</time>
      </trkpt>
      <trkpt lat="47.67107" lon="6.83118">
        <ele>400.2</ele>
        <time>2021-08-10T07:50:03Z</time>
      </trkpt>
      <trkpt lat="47.67105" lon="6.83124">
        <ele>400.4</ele>
        <time>2021-08-10T07:50:05Z</time>
      </trkpt>
      <trkpt lat="47.67105" lon="6.83126">
        <ele>400.5</ele>
        <time>2021-08-10T07:50:06Z</time>
      </trkpt>
      <trkpt lat="47.67104" lon="6.83128">
        <ele>400.5</ele>
        <time>2021-08-10T07:50:07Z</time>
      </trkpt>
      <trkpt lat="47.67106" lon="6.83145">
        <ele>400.9</ele>
        <time>2021-08-10T07:50:12Z</time>
      </trkpt>
      <trkpt lat="47.67106" lon="6.8315">
        <ele>400.9</ele>
        <time>2021-08-10T07:50:13Z</time>
      </trkpt>
      <trkpt lat="47.67107" lon="6.83161">
        <ele>401</ele>
        <time>2021-08-10T07:50:15Z</time>
      </trkpt>
      <trkpt lat="47.67108" lon="6.83173">
        <ele>400.9</ele>
        <time>2021-08-10T07:50:17Z</time>
      </trkpt>
      <trkpt lat="47.67108" lon="6.8318">
        <ele>400.8</ele>
        <time>2021-08-10T07:50:18Z</time>
      </trkpt>
      <trkpt lat="47.67108" lon="6.83186">
        <ele>400.7</ele>
        <time>2021-08-10T07:50:19Z</time>
      </trkpt>
      <trkpt lat="47.67107" lon="6.83192">
        <ele>400.5</ele>
        <time>2021-08-10T07:50:20Z</time>
      </trkpt>
      <trkpt lat="47.67104" lon="6.83204">
        <ele>400.1</ele>
        <time>2021-08-10T07:50:21Z</time>
      </trkpt>
      <trkpt lat="47.67102" lon="6.83211">
        <ele>399.9</ele>
        <time>2021-08-10T07:50:23Z</time>
      </trkpt>
      <trkpt lat="47.671" lon="6.83216">
        <ele>399.6</ele>
        <time>2021-08-10T07:50:24Z</time>
      </trkpt>
      <trkpt lat="47.67095" lon="6.83225">
        <ele>399.2</ele>
        <time>2021-08-10T07:50:25Z</time>
      </trkpt>
      <trkpt lat="47.67091" lon="6.8323">
        <ele>399</ele>
        <time>2021-08-10T07:50:27Z</time>
      </trkpt>
      <trkpt lat="47.67072" lon="6.8323">
        <ele>398.2</ele>
        <time>2021-08-10T07:50:29Z</time>
      </trkpt>
      <trkpt lat="47.67062" lon="6.83229">
        <ele>398</ele>
        <time>2021-08-10T07:50:30Z</time>
      </trkpt>
      <trkpt lat="47.67049" lon="6.83231">
        <ele>397.8</ele>
        <time>2021-08-10T07:50:32Z</time>
      </trkpt>
      <trkpt lat="47.67042" lon="6.83227">
        <ele>397.6</ele>
        <time>2021-08-10T07:50:34Z</time>
      </trkpt>
      <trkpt lat="47.67035" lon="6.83231">
        <ele>397.5</ele>
        <time>2021-08-10T07:50:36Z</time>
      </trkpt>
      <trkpt lat="47.67032" lon="6.83234">
        <ele>397.4</ele>
        <time>2021-08-10T07:50:37Z</time>
      </trkpt>
      <trkpt lat="47.67028" lon="6.83237">
        <ele>397.3</ele>
        <time>2021-08-10T07:50:39Z</time>
      </trkpt>
      <trkpt lat="47.67026" lon="6.83238">
        <ele>397.2</ele>
        <time>2021-08-10T07:50:40Z</time>
      </trkpt>
      <trkpt lat="47.67024" lon="6.83239">
        <ele>397.2</ele>
        <time>2021-08-10T07:50:42Z</time>
      </trkpt>
      <trkpt lat="47.67023" lon="6.83242">
        <ele>397.1</ele>
        <time>2021-08-10T07:50:44Z</time>
      </trkpt>
      <trkpt lat="47.67022" lon="6.83246">
        <ele>397</ele>
        <time>2021-08-10T07:50:46Z</time>
      </trkpt>
      <trkpt lat="47.67023" lon="6.83248">
        <ele>396.9</ele>
        <time>2021-08-10T07:50:48Z</time>
      </trkpt>
      <trkpt lat="47.67023" lon="6.83249">
        <ele>396.9</ele>
        <time>2021-08-10T07:50:50Z</time>
      </trkpt>
      <trkpt lat="47.67019" lon="6.83274">
        <ele>396</ele>
        <time>2021-08-10T07:52:46Z</time>
      </trkpt>
      <trkpt lat="47.67019" lon="6.83273">
        <ele>395.9</ele>
        <time>2021-08-10T07:52:48Z</time>
      </trkpt>
      <trkpt lat="47.67018" lon="6.83271">
        <ele>395.9</ele>
        <time>2021-08-10T07:52:49Z</time>
      </trkpt>
      <trkpt lat="47.67018" lon="6.83271">
        <ele>395.9</ele>
        <time>2021-08-10T07:52:50Z</time>
      </trkpt>
      <trkpt lat="47.67018" lon="6.8327">
        <ele>395.8</ele>
        <time>2021-08-10T07:52:52Z</time>
      </trkpt>
      <trkpt lat="47.67018" lon="6.8327">
        <ele>395.8</ele>
        <time>2021-08-10T07:52:53Z</time>
      </trkpt>
      <trkpt lat="47.67017" lon="6.83268">
        <ele>395.7</ele>
        <time>2021-08-10T07:52:55Z</time>
      </trkpt>
      <trkpt lat="47.67016" lon="6.83267">
        <ele>395.7</ele>
        <time>2021-08-10T07:52:56Z</time>
      </trkpt>
      <trkpt lat="47.67016" lon="6.83266">
        <ele>395.6</ele>
        <time>2021-08-10T07:52:57Z</time>
      </trkpt>
      <trkpt lat="47.67016" lon="6.83265">
        <ele>395.6</ele>
        <time>2021-08-10T07:52:58Z</time>
      </trkpt>
      <trkpt lat="47.67015" lon="6.83265">
        <ele>395.6</ele>
        <time>2021-08-10T07:53:00Z</time>
      </trkpt>
      <trkpt lat="47.67015" lon="6.83264">
        <ele>395.5</ele>
        <time>2021-08-10T07:53:01Z</time>
      </trkpt>
      <trkpt lat="47.67014" lon="6.83263">
        <ele>395.5</ele>
        <time>2021-08-10T07:53:02Z</time>
      </trkpt>
      <trkpt lat="47.67014" lon="6.83262">
        <ele>395.4</ele>
        <time>2021-08-10T07:53:03Z</time>
      </trkpt>
      <trkpt lat="47.67011" lon="6.83261">
        <ele>395.2</ele>
        <time>2021-08-10T07:53:04Z</time>
      </trkpt>
      <trkpt lat="47.67009" lon="6.83261">
        <ele>395.2</ele>
        <time>2021-08-10T07:53:05Z</time>
      </trkpt>
      <trkpt lat="47.67004" lon="6.83262">
        <ele>394.9</ele>
        <time>2021-08-10T07:53:07Z</time>
      </trkpt>
      <trkpt lat="47.66998" lon="6.83265">
        <ele>394.6</ele>
        <time>2021-08-10T07:53:09Z</time>
      </trkpt>
      <trkpt lat="47.66994" lon="6.83267">
        <ele>394.4</ele>
        <time>2021-08-10T07:53:10Z</time>
      </trkpt>
      <trkpt lat="47.66991" lon="6.8327">
        <ele>394.6</ele>
        <time>2021-08-10T07:53:11Z</time>
      </trkpt>
      <trkpt lat="47.66989" lon="6.83272">
        <ele>395.1</ele>
        <time>2021-08-10T07:53:13Z</time>
      </trkpt>
      <trkpt lat="47.66988" lon="6.83275">
        <ele>394.9</ele>
        <time>2021-08-10T07:53:15Z</time>
      </trkpt>
      <trkpt lat="47.66987" lon="6.83276">
        <ele>395</ele>
        <time>2021-08-10T07:53:16Z</time>
      </trkpt>
      <trkpt lat="47.66987" lon="6.83277">
        <ele>394.7</ele>
        <time>2021-08-10T07:53:17Z</time>
      </trkpt>
      <trkpt lat="47.66988" lon="6.83279">
        <ele>394.9</ele>
        <time>2021-08-10T07:53:19Z</time>
      </trkpt>
      <trkpt lat="47.66988" lon="6.83281">
        <ele>394.6</ele>
        <time>2021-08-10T07:53:21Z</time>
      </trkpt>
      <trkpt lat="47.66989" lon="6.83283">
        <ele>394.7</ele>
        <time>2021-08-10T07:53:22Z</time>
      </trkpt>
      <trkpt lat="47.6699" lon="6.83284">
        <ele>394.5</ele>
        <time>2021-08-10T07:53:23Z</time>
      </trkpt>
      <trkpt lat="47.66991" lon="6.83285">
        <ele>394.6</ele>
        <time>2021-08-10T07:53:24Z</time>
      </trkpt>
      <trkpt lat="47.66992" lon="6.83287">
        <ele>394.3</ele>
        <time>2021-08-10T07:53:25Z</time>
      </trkpt>
      <trkpt lat="47.66996" lon="6.83292">
        <ele>392.9</ele>
        <time>2021-08-10T07:53:27Z</time>
      </trkpt>
      <trkpt lat="47.66998" lon="6.83295">
        <ele>392</ele>
        <time>2021-08-10T07:53:28Z</time>
      </trkpt>
      <trkpt lat="47.67" lon="6.83296">
        <ele>392.1</ele>
        <time>2021-08-10T07:53:29Z</time>
      </trkpt>
      <trkpt lat="47.66999" lon="6.83294">
        <ele>392.3</ele>
        <time>2021-08-10T07:53:30Z</time>
      </trkpt>
      <trkpt lat="47.66997" lon="6.83293">
        <ele>393.5</ele>
        <time>2021-08-10T07:53:32Z</time>
      </trkpt>
      <trkpt lat="47.66991" lon="6.83293">
        <ele>394.7</ele>
        <time>2021-08-10T07:53:34Z</time>
      </trkpt>
      <trkpt lat="47.66988" lon="6.83294">
        <ele>395.3</ele>
        <time>2021-08-10T07:53:35Z</time>
      </trkpt>
      <trkpt lat="47.66987" lon="6.83294">
        <ele>395.9</ele>
        <time>2021-08-10T07:53:36Z</time>
      </trkpt>
      <trkpt lat="47.66985" lon="6.83296">
        <ele>395.6</ele>
        <time>2021-08-10T07:53:38Z</time>
      </trkpt>
      <trkpt lat="47.6696" lon="6.83336">
        <ele>397.2</ele>
        <time>2021-08-10T07:53:43Z</time>
      </trkpt>
      <trkpt lat="47.66959" lon="6.8334">
        <ele>396.9</ele>
        <time>2021-08-10T07:53:44Z</time>
      </trkpt>
      <trkpt lat="47.66958" lon="6.83345">
        <ele>397</ele>
        <time>2021-08-10T07:53:45Z</time>
      </trkpt>
      <trkpt lat="47.66956" lon="6.83355">
        <ele>395.7</ele>
        <time>2021-08-10T07:53:46Z</time>
      </trkpt>
      <trkpt lat="47.66956" lon="6.83364">
        <ele>394.9</ele>
        <time>2021-08-10T07:53:48Z</time>
      </trkpt>
      <trkpt lat="47.66957" lon="6.83371">
        <ele>394.6</ele>
        <time>2021-08-10T07:53:49Z</time>
      </trkpt>
      <trkpt lat="47.66958" lon="6.83377">
        <ele>393.6</ele>
        <time>2021-08-10T07:53:50Z</time>
      </trkpt>
      <trkpt lat="47.66959" lon="6.83388">
        <ele>392.1</ele>
        <time>2021-08-10T07:53:52Z</time>
      </trkpt>
      <trkpt lat="47.66958" lon="6.83395">
        <ele>391.1</ele>
        <time>2021-08-10T07:53:53Z</time>
      </trkpt>
      <trkpt lat="47.66956" lon="6.834">
        <ele>391.1</ele>
        <time>2021-08-10T07:53:55Z</time>
      </trkpt>
      <trkpt lat="47.66955" lon="6.83404">
        <ele>391.1</ele>
        <time>2021-08-10T07:53:56Z</time>
      </trkpt>
      <trkpt lat="47.66949" lon="6.83412">
        <ele>391</ele>
        <time>2021-08-10T07:53:58Z</time>
      </trkpt>
      <trkpt lat="47.66946" lon="6.83419">
        <ele>390.4</ele>
        <time>2021-08-10T07:53:59Z</time>
      </trkpt>
      <trkpt lat="47.66943" lon="6.83428">
        <ele>389.8</ele>
        <time>2021-08-10T07:54:01Z</time>
      </trkpt>
      <trkpt lat="47.66939" lon="6.8344">
        <ele>388.7</ele>
        <time>2021-08-10T07:54:02Z</time>
      </trkpt>
      <trkpt lat="47.66924" lon="6.83458">
        <ele>387.2</ele>
        <time>2021-08-10T07:54:04Z</time>
      </trkpt>
      <trkpt lat="47.66917" lon="6.83466">
        <ele>386</ele>
        <time>2021-08-10T07:54:05Z</time>
      </trkpt>
      <trkpt lat="47.6691" lon="6.83473">
        <ele>385.5</ele>
        <time>2021-08-10T07:54:06Z</time>
      </trkpt>
      <trkpt lat="47.66901" lon="6.83485">
        <ele>383.6</ele>
        <time>2021-08-10T07:54:08Z</time>
      </trkpt>
      <trkpt lat="47.6689" lon="6.83492">
        <ele>382.3</ele>
        <time>2021-08-10T07:54:10Z</time>
      </trkpt>
      <trkpt lat="47.66886" lon="6.83495">
        <ele>382.4</ele>
        <time>2021-08-10T07:54:11Z</time>
      </trkpt>
      <trkpt lat="47.66882" lon="6.83496">
        <ele>381.8</ele>
        <time>2021-08-10T07:54:12Z</time>
      </trkpt>
      <trkpt lat="47.66879" lon="6.83497">
        <ele>381.9</ele>
        <time>2021-08-10T07:54:13Z</time>
      </trkpt>
      <trkpt lat="47.66874" lon="6.83497">
        <ele>381.5</ele>
        <time>2021-08-10T07:54:14Z</time>
      </trkpt>
      <trkpt lat="47.66869" lon="6.83499">
        <ele>381.1</ele>
        <time>2021-08-10T07:54:16Z</time>
      </trkpt>
      <trkpt lat="47.66861" lon="6.83502">
        <ele>380.8</ele>
        <time>2021-08-10T07:54:17Z</time>
      </trkpt>
      <trkpt lat="47.66857" lon="6.83505">
        <ele>380.7</ele>
        <time>2021-08-10T07:54:19Z</time>
      </trkpt>
      <trkpt lat="47.66853" lon="6.83506">
        <ele>380.6</ele>
        <time>2021-08-10T07:54:20Z</time>
      </trkpt>
      <trkpt lat="47.66848" lon="6.83508">
        <ele>380.5</ele>
        <time>2021-08-10T07:54:21Z</time>
      </trkpt>
      <trkpt lat="47.66841" lon="6.83514">
        <ele>380.3</ele>
        <time>2021-08-10T07:54:23Z</time>
      </trkpt>
      <trkpt lat="47.66836" lon="6.83519">
        <ele>380.2</ele>
        <time>2021-08-10T07:54:24Z</time>
      </trkpt>
      <trkpt lat="47.66831" lon="6.83524">
        <ele>380</ele>
        <time>2021-08-10T07:54:25Z</time>
      </trkpt>
      <trkpt lat="47.66827" lon="6.83529">
        <ele>379.9</ele>
        <time>2021-08-10T07:54:26Z</time>
      </trkpt>
      <trkpt lat="47.66818" lon="6.83538">
        <ele>379.6</ele>
        <time>2021-08-10T07:54:28Z</time>
      </trkpt>
      <trkpt lat="47.66812" lon="6.83547">
        <ele>379.5</ele>
        <time>2021-08-10T07:54:30Z</time>
      </trkpt>
      <trkpt lat="47.66809" lon="6.83554">
        <ele>379.4</ele>
        <time>2021-08-10T07:54:31Z</time>
      </trkpt>
      <trkpt lat="47.66803" lon="6.83567">
        <ele>379.2</ele>
        <time>2021-08-10T07:54:33Z</time>
      </trkpt>
      <trkpt lat="47.668" lon="6.83573">
        <ele>379.1</ele>
        <time>2021-08-10T07:54:34Z</time>
      </trkpt>
      <trkpt lat="47.66792" lon="6.83585">
        <ele>379</ele>
        <time>2021-08-10T07:54:36Z</time>
      </trkpt>
      <trkpt lat="47.66785" lon="6.83596">
        <ele>378.9</ele>
        <time>2021-08-10T07:54:38Z</time>
      </trkpt>
      <trkpt lat="47.66781" lon="6.83603">
        <ele>378.9</ele>
        <time>2021-08-10T07:54:39Z</time>
      </trkpt>
      <trkpt lat="47.66775" lon="6.83615">
        <ele>378.7</ele>
        <time>2021-08-10T07:54:41Z</time>
      </trkpt>
      <trkpt lat="47.66772" lon="6.83621">
        <ele>378.6</ele>
        <time>2021-08-10T07:54:42Z</time>
      </trkpt>
      <trkpt lat="47.66765" lon="6.83633">
        <ele>378.4</ele>
        <time>2021-08-10T07:54:44Z</time>
      </trkpt>
      <trkpt lat="47.66759" lon="6.83645">
        <ele>378.2</ele>
        <time>2021-08-10T07:54:46Z</time>
      </trkpt>
      <trkpt lat="47.66755" lon="6.8365">
        <ele>378.1</ele>
        <time>2021-08-10T07:54:47Z</time>
      </trkpt>
      <trkpt lat="47.66752" lon="6.83655">
        <ele>378</ele>
        <time>2021-08-10T07:54:48Z</time>
      </trkpt>
      <trkpt lat="47.66743" lon="6.83663">
        <ele>377.9</ele>
        <time>2021-08-10T07:54:50Z</time>
      </trkpt>
      <trkpt lat="47.66736" lon="6.83671">
        <ele>377.7</ele>
        <time>2021-08-10T07:54:52Z</time>
      </trkpt>
      <trkpt lat="47.66732" lon="6.83676">
        <ele>377.7</ele>
        <time>2021-08-10T07:54:53Z</time>
      </trkpt>
      <trkpt lat="47.66728" lon="6.8368">
        <ele>377.6</ele>
        <time>2021-08-10T07:54:54Z</time>
      </trkpt>
      <trkpt lat="47.66721" lon="6.8369">
        <ele>377.5</ele>
        <time>2021-08-10T07:54:56Z</time>
      </trkpt>
      <trkpt lat="47.66713" lon="6.83699">
        <ele>377.5</ele>
        <time>2021-08-10T07:54:58Z</time>
      </trkpt>
      <trkpt lat="47.66711" lon="6.83703">
        <ele>377.4</ele>
        <time>2021-08-10T07:54:59Z</time>
      </trkpt>
      <trkpt lat="47.66708" lon="6.83707">
        <ele>377.4</ele>
        <time>2021-08-10T07:55:00Z</time>
      </trkpt>
      <trkpt lat="47.667" lon="6.83717">
        <ele>377.3</ele>
        <time>2021-08-10T07:55:02Z</time>
      </trkpt>
      <trkpt lat="47.66693" lon="6.83726">
        <ele>377.3</ele>
        <time>2021-08-10T07:55:04Z</time>
      </trkpt>
      <trkpt lat="47.66689" lon="6.83731">
        <ele>377.3</ele>
        <time>2021-08-10T07:55:05Z</time>
      </trkpt>
      <trkpt lat="47.66685" lon="6.83737">
        <ele>377.2</ele>
        <time>2021-08-10T07:55:06Z</time>
      </trkpt>
      <trkpt lat="47.66678" lon="6.83748">
        <ele>377.1</ele>
        <time>2021-08-10T07:55:08Z</time>
      </trkpt>
      <trkpt lat="47.66671" lon="6.83758">
        <ele>377.1</ele>
        <time>2021-08-10T07:55:10Z</time>
      </trkpt>
      <trkpt lat="47.66667" lon="6.83764">
        <ele>377</ele>
        <time>2021-08-10T07:55:11Z</time>
      </trkpt>
      <trkpt lat="47.66663" lon="6.83769">
        <ele>377</ele>
        <time>2021-08-10T07:55:12Z</time>
      </trkpt>
      <trkpt lat="47.66656" lon="6.8378">
        <ele>376.9</ele>
        <time>2021-08-10T07:55:14Z</time>
      </trkpt>
      <trkpt lat="47.66653" lon="6.83786">
        <ele>376.9</ele>
        <time>2021-08-10T07:55:15Z</time>
      </trkpt>
      <trkpt lat="47.66649" lon="6.83802">
        <ele>376.8</ele>
        <time>2021-08-10T07:55:17Z</time>
      </trkpt>
      <trkpt lat="47.66646" lon="6.83809">
        <ele>376.7</ele>
        <time>2021-08-10T07:55:18Z</time>
      </trkpt>
      <trkpt lat="47.66644" lon="6.83816">
        <ele>376.6</ele>
        <time>2021-08-10T07:55:19Z</time>
      </trkpt>
      <trkpt lat="47.6664" lon="6.83822">
        <ele>376.6</ele>
        <time>2021-08-10T07:55:20Z</time>
      </trkpt>
      <trkpt lat="47.66633" lon="6.83835">
        <ele>376.4</ele>
        <time>2021-08-10T07:55:22Z</time>
      </trkpt>
      <trkpt lat="47.6663" lon="6.83842">
        <ele>376.3</ele>
        <time>2021-08-10T07:55:23Z</time>
      </trkpt>
      <trkpt lat="47.66627" lon="6.83848">
        <ele>376.2</ele>
        <time>2021-08-10T07:55:24Z</time>
      </trkpt>
      <trkpt lat="47.66624" lon="6.83855">
        <ele>376.1</ele>
        <time>2021-08-10T07:55:25Z</time>
      </trkpt>
      <trkpt lat="47.66622" lon="6.8386">
        <ele>376</ele>
        <time>2021-08-10T07:55:26Z</time>
      </trkpt>
      <trkpt lat="47.66619" lon="6.83866">
        <ele>375.9</ele>
        <time>2021-08-10T07:55:27Z</time>
      </trkpt>
      <trkpt lat="47.66617" lon="6.83878">
        <ele>375.8</ele>
        <time>2021-08-10T07:55:29Z</time>
      </trkpt>
      <trkpt lat="47.66616" lon="6.83885">
        <ele>375.8</ele>
        <time>2021-08-10T07:55:30Z</time>
      </trkpt>
      <trkpt lat="47.66615" lon="6.8389">
        <ele>375.7</ele>
        <time>2021-08-10T07:55:31Z</time>
      </trkpt>
      <trkpt lat="47.66614" lon="6.83896">
        <ele>375.7</ele>
        <time>2021-08-10T07:55:32Z</time>
      </trkpt>
      <trkpt lat="47.6661" lon="6.83906">
        <ele>375.7</ele>
        <time>2021-08-10T07:55:34Z</time>
      </trkpt>
      <trkpt lat="47.66608" lon="6.83913">
        <ele>375.7</ele>
        <time>2021-08-10T07:55:35Z</time>
      </trkpt>
      <trkpt lat="47.66603" lon="6.83925">
        <ele>375.7</ele>
        <time>2021-08-10T07:55:37Z</time>
      </trkpt>
      <trkpt lat="47.66601" lon="6.83931">
        <ele>375.7</ele>
        <time>2021-08-10T07:55:38Z</time>
      </trkpt>
      <trkpt lat="47.66597" lon="6.83938">
        <ele>375.7</ele>
        <time>2021-08-10T07:55:39Z</time>
      </trkpt>
      <trkpt lat="47.66596" lon="6.83945">
        <ele>375.6</ele>
        <time>2021-08-10T07:55:41Z</time>
      </trkpt>
      <trkpt lat="47.66596" lon="6.83953">
        <ele>375.6</ele>
        <time>2021-08-10T07:55:42Z</time>
      </trkpt>
      <trkpt lat="47.66595" lon="6.8396">
        <ele>375.5</ele>
        <time>2021-08-10T07:55:43Z</time>
      </trkpt>
      <trkpt lat="47.66591" lon="6.83975">
        <ele>375.4</ele>
        <time>2021-08-10T07:55:45Z</time>
      </trkpt>
      <trkpt lat="47.66588" lon="6.83981">
        <ele>375.4</ele>
        <time>2021-08-10T07:55:46Z</time>
      </trkpt>
      <trkpt lat="47.66586" lon="6.83989">
        <ele>375.4</ele>
        <time>2021-08-10T07:55:47Z</time>
      </trkpt>
      <trkpt lat="47.66587" lon="6.83991">
        <ele>375.4</ele>
        <time>2021-08-10T07:55:48Z</time>
      </trkpt>
      <trkpt lat="47.66583" lon="6.84">
        <ele>375.4</ele>
        <time>2021-08-10T07:55:50Z</time>
      </trkpt>
      <trkpt lat="47.66576" lon="6.84014">
        <ele>375.4</ele>
        <time>2021-08-10T07:55:51Z</time>
      </trkpt>
      <trkpt lat="47.6657" lon="6.84028">
        <ele>375.3</ele>
        <time>2021-08-10T07:55:53Z</time>
      </trkpt>
      <trkpt lat="47.66566" lon="6.84035">
        <ele>375.3</ele>
        <time>2021-08-10T07:55:54Z</time>
      </trkpt>
      <trkpt lat="47.66559" lon="6.84045">
        <ele>375.2</ele>
        <time>2021-08-10T07:55:56Z</time>
      </trkpt>
      <trkpt lat="47.66549" lon="6.84055">
        <ele>375.2</ele>
        <time>2021-08-10T07:55:58Z</time>
      </trkpt>
      <trkpt lat="47.66544" lon="6.8406">
        <ele>375.1</ele>
        <time>2021-08-10T07:55:59Z</time>
      </trkpt>
      <trkpt lat="47.66539" lon="6.84066">
        <ele>375.1</ele>
        <time>2021-08-10T07:56:00Z</time>
      </trkpt>
      <trkpt lat="47.66534" lon="6.84078">
        <ele>375.1</ele>
        <time>2021-08-10T07:56:02Z</time>
      </trkpt>
      <trkpt lat="47.66531" lon="6.84093">
        <ele>375</ele>
        <time>2021-08-10T07:56:04Z</time>
      </trkpt>
      <trkpt lat="47.66529" lon="6.84105">
        <ele>374.9</ele>
        <time>2021-08-10T07:56:06Z</time>
      </trkpt>
      <trkpt lat="47.66529" lon="6.84109">
        <ele>374.9</ele>
        <time>2021-08-10T07:56:07Z</time>
      </trkpt>
      <trkpt lat="47.66529" lon="6.84115">
        <ele>374.9</ele>
        <time>2021-08-10T07:56:08Z</time>
      </trkpt>
      <trkpt lat="47.66531" lon="6.84122">
        <ele>375</ele>
        <time>2021-08-10T07:56:10Z</time>
      </trkpt>
      <trkpt lat="47.66531" lon="6.84124">
        <ele>375</ele>
        <time>2021-08-10T07:56:11Z</time>
      </trkpt>
      <trkpt lat="47.66532" lon="6.84126">
        <ele>375.1</ele>
        <time>2021-08-10T07:56:13Z</time>
      </trkpt>
      <trkpt lat="47.66532" lon="6.84126">
        <ele>375.1</ele>
        <time>2021-08-10T07:56:14Z</time>
      </trkpt>
      <trkpt lat="47.66533" lon="6.84125">
        <ele>375.1</ele>
        <time>2021-08-10T07:56:15Z</time>
      </trkpt>
      <trkpt lat="47.66533" lon="6.84125">
        <ele>375.1</ele>
        <time>2021-08-10T07:56:17Z</time>
      </trkpt>
      <trkpt lat="47.66533" lon="6.84125">
        <ele>375.1</ele>
        <time>2021-08-10T07:56:19Z</time>
      </trkpt>
      <trkpt lat="47.66533" lon="6.84125">
        <ele>375.1</ele>
        <time>2021-08-10T07:56:20Z</time>
      </trkpt>
      <trkpt lat="47.66533" lon="6.84125">
        <ele>375.1</ele>
        <time>2021-08-10T07:56:22Z</time>
      </trkpt>
      <trkpt lat="47.66534" lon="6.84139">
        <ele>375.2</ele>
        <time>2021-08-10T07:56:49Z</time>
      </trkpt>
      <trkpt lat="47.66535" lon="6.84144">
        <ele>375.3</ele>
        <time>2021-08-10T07:56:50Z</time>
      </trkpt>
      <trkpt lat="47.66538" lon="6.84149">
        <ele>375.3</ele>
        <time>2021-08-10T07:56:52Z</time>
      </trkpt>
      <trkpt lat="47.66544" lon="6.84158">
        <ele>375.4</ele>
        <time>2021-08-10T07:56:54Z</time>
      </trkpt>
      <trkpt lat="47.66547" lon="6.84164">
        <ele>375.5</ele>
        <time>2021-08-10T07:56:55Z</time>
      </trkpt>
      <trkpt lat="47.66549" lon="6.8417">
        <ele>375.6</ele>
        <time>2021-08-10T07:56:56Z</time>
      </trkpt>
      <trkpt lat="47.66551" lon="6.84173">
        <ele>375.6</ele>
        <time>2021-08-10T07:56:58Z</time>
      </trkpt>
      <trkpt lat="47.66553" lon="6.84175">
        <ele>375.7</ele>
        <time>2021-08-10T07:56:59Z</time>
      </trkpt>
      <trkpt lat="47.66556" lon="6.84178">
        <ele>375.7</ele>
        <time>2021-08-10T07:57:00Z</time>
      </trkpt>
      <trkpt lat="47.66559" lon="6.8418">
        <ele>375.7</ele>
        <time>2021-08-10T07:57:02Z</time>
      </trkpt>
      <trkpt lat="47.66562" lon="6.84182">
        <ele>375.8</ele>
        <time>2021-08-10T07:57:03Z</time>
      </trkpt>
      <trkpt lat="47.66565" lon="6.84183">
        <ele>375.8</ele>
        <time>2021-08-10T07:57:05Z</time>
      </trkpt>
      <trkpt lat="47.66567" lon="6.84183">
        <ele>375.8</ele>
        <time>2021-08-10T07:57:06Z</time>
      </trkpt>
      <trkpt lat="47.66567" lon="6.84182">
        <ele>375.8</ele>
        <time>2021-08-10T07:57:07Z</time>
      </trkpt>
      <trkpt lat="47.66568" lon="6.84181">
        <ele>375.8</ele>
        <time>2021-08-10T07:57:09Z</time>
      </trkpt>
      <trkpt lat="47.66568" lon="6.8418">
        <ele>375.8</ele>
        <time>2021-08-10T07:57:10Z</time>
      </trkpt>
      <trkpt lat="47.66569" lon="6.8418">
        <ele>375.8</ele>
        <time>2021-08-10T07:57:12Z</time>
      </trkpt>
      <trkpt lat="47.66569" lon="6.8418">
        <ele>375.8</ele>
        <time>2021-08-10T07:57:13Z</time>
      </trkpt>
      <trkpt lat="47.66568" lon="6.8418">
        <ele>375.8</ele>
        <time>2021-08-10T07:57:14Z</time>
      </trkpt>
      <trkpt lat="47.66568" lon="6.8418">
        <ele>375.8</ele>
        <time>2021-08-10T07:57:16Z</time>
      </trkpt>
      <trkpt lat="47.66565" lon="6.84177">
        <ele>375.8</ele>
        <time>2021-08-10T07:57:18Z</time>
      </trkpt>
      <trkpt lat="47.66553" lon="6.84173">
        <ele>375.5</ele>
        <time>2021-08-10T07:57:20Z</time>
      </trkpt>
      <trkpt lat="47.66543" lon="6.84177">
        <ele>375.4</ele>
        <time>2021-08-10T07:57:22Z</time>
      </trkpt>
      <trkpt lat="47.6654" lon="6.84181">
        <ele>375.4</ele>
        <time>2021-08-10T07:57:23Z</time>
      </trkpt>
      <trkpt lat="47.66536" lon="6.84187">
        <ele>374.5</ele>
        <time>2021-08-10T07:57:24Z</time>
      </trkpt>
      <trkpt lat="47.66531" lon="6.84195">
        <ele>374</ele>
        <time>2021-08-10T07:57:26Z</time>
      </trkpt>
      <trkpt lat="47.66529" lon="6.842">
        <ele>373.9</ele>
        <time>2021-08-10T07:57:27Z</time>
      </trkpt>
      <trkpt lat="47.6653" lon="6.84208">
        <ele>373.8</ele>
        <time>2021-08-10T07:57:28Z</time>
      </trkpt>
      <trkpt lat="47.66531" lon="6.84213">
        <ele>373.7</ele>
        <time>2021-08-10T07:57:30Z</time>
      </trkpt>
      <trkpt lat="47.66533" lon="6.84218">
        <ele>373.7</ele>
        <time>2021-08-10T07:57:31Z</time>
      </trkpt>
      <trkpt lat="47.66535" lon="6.84223">
        <ele>373.7</ele>
        <time>2021-08-10T07:57:32Z</time>
      </trkpt>
      <trkpt lat="47.66537" lon="6.84228">
        <ele>373.6</ele>
        <time>2021-08-10T07:57:33Z</time>
      </trkpt>
      <trkpt lat="47.66538" lon="6.84233">
        <ele>373.6</ele>
        <time>2021-08-10T07:57:34Z</time>
      </trkpt>
      <trkpt lat="47.6654" lon="6.84238">
        <ele>373.5</ele>
        <time>2021-08-10T07:57:35Z</time>
      </trkpt>
      <trkpt lat="47.66542" lon="6.84244">
        <ele>373.5</ele>
        <time>2021-08-10T07:57:36Z</time>
      </trkpt>
      <trkpt lat="47.66544" lon="6.84251">
        <ele>373.4</ele>
        <time>2021-08-10T07:57:37Z</time>
      </trkpt>
      <trkpt lat="47.66545" lon="6.84257">
        <ele>373.4</ele>
        <time>2021-08-10T07:57:39Z</time>
      </trkpt>
      <trkpt lat="47.66546" lon="6.84268">
        <ele>373.3</ele>
        <time>2021-08-10T07:57:40Z</time>
      </trkpt>
      <trkpt lat="47.66545" lon="6.84274">
        <ele>373.3</ele>
        <time>2021-08-10T07:57:41Z</time>
      </trkpt>
      <trkpt lat="47.66544" lon="6.84282">
        <ele>373.2</ele>
        <time>2021-08-10T07:57:43Z</time>
      </trkpt>
      <trkpt lat="47.66541" lon="6.84291">
        <ele>373.2</ele>
        <time>2021-08-10T07:57:44Z</time>
      </trkpt>
      <trkpt lat="47.66537" lon="6.84301">
        <ele>373.2</ele>
        <time>2021-08-10T07:57:46Z</time>
      </trkpt>
      <trkpt lat="47.66534" lon="6.84308">
        <ele>373.2</ele>
        <time>2021-08-10T07:57:48Z</time>
      </trkpt>
      <trkpt lat="47.66529" lon="6.84314">
        <ele>373.2</ele>
        <time>2021-08-10T07:57:49Z</time>
      </trkpt>
      <trkpt lat="47.66524" lon="6.84317">
        <ele>373.1</ele>
        <time>2021-08-10T07:57:50Z</time>
      </trkpt>
      <trkpt lat="47.6652" lon="6.8432">
        <ele>373.1</ele>
        <time>2021-08-10T07:57:51Z</time>
      </trkpt>
      <trkpt lat="47.66516" lon="6.84324">
        <ele>373.1</ele>
        <time>2021-08-10T07:57:52Z</time>
      </trkpt>
      <trkpt lat="47.66512" lon="6.84332">
        <ele>373</ele>
        <time>2021-08-10T07:57:54Z</time>
      </trkpt>
      <trkpt lat="47.66508" lon="6.84344">
        <ele>373</ele>
        <time>2021-08-10T07:57:56Z</time>
      </trkpt>
      <trkpt lat="47.66504" lon="6.84355">
        <ele>373.1</ele>
        <time>2021-08-10T07:57:58Z</time>
      </trkpt>
      <trkpt lat="47.66498" lon="6.84363">
        <ele>373.1</ele>
        <time>2021-08-10T07:58:00Z</time>
      </trkpt>
      <trkpt lat="47.66497" lon="6.84367">
        <ele>373.1</ele>
        <time>2021-08-10T07:58:01Z</time>
      </trkpt>
      <trkpt lat="47.66497" lon="6.84369">
        <ele>373.1</ele>
        <time>2021-08-10T07:58:02Z</time>
      </trkpt>
      <trkpt lat="47.66497" lon="6.84374">
        <ele>373.1</ele>
        <time>2021-08-10T07:58:04Z</time>
      </trkpt>
      <trkpt lat="47.66496" lon="6.84375">
        <ele>373.1</ele>
        <time>2021-08-10T07:58:05Z</time>
      </trkpt>
      <trkpt lat="47.66493" lon="6.84379">
        <ele>372.9</ele>
        <time>2021-08-10T07:58:07Z</time>
      </trkpt>
      <trkpt lat="47.66492" lon="6.8438">
        <ele>372.9</ele>
        <time>2021-08-10T07:58:08Z</time>
      </trkpt>
      <trkpt lat="47.66486" lon="6.84388">
        <ele>372.8</ele>
        <time>2021-08-10T07:58:10Z</time>
      </trkpt>
      <trkpt lat="47.66479" lon="6.84397">
        <ele>372.5</ele>
        <time>2021-08-10T07:58:12Z</time>
      </trkpt>
      <trkpt lat="47.66476" lon="6.84401">
        <ele>372.4</ele>
        <time>2021-08-10T07:58:13Z</time>
      </trkpt>
      <trkpt lat="47.6647" lon="6.84408">
        <ele>372.1</ele>
        <time>2021-08-10T07:58:14Z</time>
      </trkpt>
      <trkpt lat="47.6646" lon="6.84418">
        <ele>371.9</ele>
        <time>2021-08-10T07:58:16Z</time>
      </trkpt>
      <trkpt lat="47.66456" lon="6.84423">
        <ele>371.8</ele>
        <time>2021-08-10T07:58:17Z</time>
      </trkpt>
      <trkpt lat="47.66453" lon="6.84426">
        <ele>371.7</ele>
        <time>2021-08-10T07:58:18Z</time>
      </trkpt>
      <trkpt lat="47.66449" lon="6.84431">
        <ele>371.7</ele>
        <time>2021-08-10T07:58:19Z</time>
      </trkpt>
      <trkpt lat="47.66444" lon="6.84436">
        <ele>371.6</ele>
        <time>2021-08-10T07:58:20Z</time>
      </trkpt>
      <trkpt lat="47.6644" lon="6.84441">
        <ele>371.6</ele>
        <time>2021-08-10T07:58:22Z</time>
      </trkpt>
      <trkpt lat="47.66437" lon="6.84445">
        <ele>371.6</ele>
        <time>2021-08-10T07:58:23Z</time>
      </trkpt>
      <trkpt lat="47.66434" lon="6.84449">
        <ele>371.6</ele>
        <time>2021-08-10T07:58:24Z</time>
      </trkpt>
      <trkpt lat="47.66431" lon="6.84453">
        <ele>371.6</ele>
        <time>2021-08-10T07:58:25Z</time>
      </trkpt>
      <trkpt lat="47.66423" lon="6.84459">
        <ele>371.5</ele>
        <time>2021-08-10T07:58:27Z</time>
      </trkpt>
      <trkpt lat="47.66419" lon="6.84462">
        <ele>371.5</ele>
        <time>2021-08-10T07:58:28Z</time>
      </trkpt>
      <trkpt lat="47.66415" lon="6.84464">
        <ele>371.5</ele>
        <time>2021-08-10T07:58:29Z</time>
      </trkpt>
      <trkpt lat="47.66411" lon="6.84463">
        <ele>371.5</ele>
        <time>2021-08-10T07:58:30Z</time>
      </trkpt>
      <trkpt lat="47.66406" lon="6.84469">
        <ele>371.5</ele>
        <time>2021-08-10T07:58:31Z</time>
      </trkpt>
      <trkpt lat="47.66401" lon="6.84475">
        <ele>371.5</ele>
        <time>2021-08-10T07:58:32Z</time>
      </trkpt>
      <trkpt lat="47.66398" lon="6.84481">
        <ele>371.5</ele>
        <time>2021-08-10T07:58:33Z</time>
      </trkpt>
      <trkpt lat="47.66394" lon="6.84485">
        <ele>371.4</ele>
        <time>2021-08-10T07:58:35Z</time>
      </trkpt>
      <trkpt lat="47.66389" lon="6.84488">
        <ele>371.4</ele>
        <time>2021-08-10T07:58:36Z</time>
      </trkpt>
      <trkpt lat="47.66385" lon="6.84491">
        <ele>371.4</ele>
        <time>2021-08-10T07:58:37Z</time>
      </trkpt>
      <trkpt lat="47.66378" lon="6.84496">
        <ele>371.4</ele>
        <time>2021-08-10T07:58:39Z</time>
      </trkpt>
      <trkpt lat="47.66374" lon="6.84492">
        <ele>371.4</ele>
        <time>2021-08-10T07:58:41Z</time>
      </trkpt>
      <trkpt lat="47.6637" lon="6.84498">
        <ele>371.3</ele>
        <time>2021-08-10T07:58:42Z</time>
      </trkpt>
      <trkpt lat="47.66364" lon="6.84506">
        <ele>371.3</ele>
        <time>2021-08-10T07:58:43Z</time>
      </trkpt>
      <trkpt lat="47.6636" lon="6.8451">
        <ele>371.3</ele>
        <time>2021-08-10T07:58:44Z</time>
      </trkpt>
      <trkpt lat="47.66356" lon="6.84512">
        <ele>371.3</ele>
        <time>2021-08-10T07:58:46Z</time>
      </trkpt>
      <trkpt lat="47.66352" lon="6.84513">
        <ele>371.3</ele>
        <time>2021-08-10T07:58:47Z</time>
      </trkpt>
      <trkpt lat="47.66345" lon="6.84515">
        <ele>371.3</ele>
        <time>2021-08-10T07:58:48Z</time>
      </trkpt>
      <trkpt lat="47.6634" lon="6.84517">
        <ele>371.3</ele>
        <time>2021-08-10T07:58:49Z</time>
      </trkpt>
      <trkpt lat="47.66334" lon="6.84522">
        <ele>371.3</ele>
        <time>2021-08-10T07:58:51Z</time>
      </trkpt>
      <trkpt lat="47.66328" lon="6.84528">
        <ele>371.3</ele>
        <time>2021-08-10T07:58:52Z</time>
      </trkpt>
      <trkpt lat="47.66324" lon="6.84533">
        <ele>371.3</ele>
        <time>2021-08-10T07:58:54Z</time>
      </trkpt>
      <trkpt lat="47.66316" lon="6.84547">
        <ele>371.2</ele>
        <time>2021-08-10T07:58:56Z</time>
      </trkpt>
      <trkpt lat="47.66314" lon="6.84556">
        <ele>371.2</ele>
        <time>2021-08-10T07:58:58Z</time>
      </trkpt>
      <trkpt lat="47.66309" lon="6.84561">
        <ele>371.2</ele>
        <time>2021-08-10T07:58:59Z</time>
      </trkpt>
      <trkpt lat="47.66305" lon="6.84566">
        <ele>371.1</ele>
        <time>2021-08-10T07:59:00Z</time>
      </trkpt>
      <trkpt lat="47.66302" lon="6.84572">
        <ele>371.1</ele>
        <time>2021-08-10T07:59:01Z</time>
      </trkpt>
      <trkpt lat="47.663" lon="6.84579">
        <ele>371.1</ele>
        <time>2021-08-10T07:59:02Z</time>
      </trkpt>
      <trkpt lat="47.66297" lon="6.84586">
        <ele>371.1</ele>
        <time>2021-08-10T07:59:03Z</time>
      </trkpt>
      <trkpt lat="47.66294" lon="6.84592">
        <ele>371</ele>
        <time>2021-08-10T07:59:05Z</time>
      </trkpt>
      <trkpt lat="47.66291" lon="6.84597">
        <ele>371</ele>
        <time>2021-08-10T07:59:06Z</time>
      </trkpt>
      <trkpt lat="47.66287" lon="6.84603">
        <ele>371</ele>
        <time>2021-08-10T07:59:07Z</time>
      </trkpt>
      <trkpt lat="47.66285" lon="6.8461">
        <ele>371</ele>
        <time>2021-08-10T07:59:08Z</time>
      </trkpt>
      <trkpt lat="47.66283" lon="6.84617">
        <ele>371.1</ele>
        <time>2021-08-10T07:59:09Z</time>
      </trkpt>
      <trkpt lat="47.66282" lon="6.84624">
        <ele>371.1</ele>
        <time>2021-08-10T07:59:11Z</time>
      </trkpt>
      <trkpt lat="47.6628" lon="6.84629">
        <ele>371.1</ele>
        <time>2021-08-10T07:59:12Z</time>
      </trkpt>
      <trkpt lat="47.66276" lon="6.84639">
        <ele>371</ele>
        <time>2021-08-10T07:59:13Z</time>
      </trkpt>
      <trkpt lat="47.66274" lon="6.84647">
        <ele>370.9</ele>
        <time>2021-08-10T07:59:15Z</time>
      </trkpt>
      <trkpt lat="47.66272" lon="6.84668">
        <ele>370.7</ele>
        <time>2021-08-10T07:59:17Z</time>
      </trkpt>
      <trkpt lat="47.66271" lon="6.84678">
        <ele>370.6</ele>
        <time>2021-08-10T07:59:18Z</time>
      </trkpt>
      <trkpt lat="47.66271" lon="6.84696">
        <ele>370.4</ele>
        <time>2021-08-10T07:59:20Z</time>
      </trkpt>
      <trkpt lat="47.66273" lon="6.84714">
        <ele>370.2</ele>
        <time>2021-08-10T07:59:22Z</time>
      </trkpt>
      <trkpt lat="47.66275" lon="6.84723">
        <ele>370.2</ele>
        <time>2021-08-10T07:59:23Z</time>
      </trkpt>
      <trkpt lat="47.66277" lon="6.84731">
        <ele>370.2</ele>
        <time>2021-08-10T07:59:24Z</time>
      </trkpt>
      <trkpt lat="47.6628" lon="6.84739">
        <ele>370.1</ele>
        <time>2021-08-10T07:59:25Z</time>
      </trkpt>
      <trkpt lat="47.66283" lon="6.8475">
        <ele>370.1</ele>
        <time>2021-08-10T07:59:26Z</time>
      </trkpt>
      <trkpt lat="47.66282" lon="6.84756">
        <ele>370.2</ele>
        <time>2021-08-10T07:59:28Z</time>
      </trkpt>
      <trkpt lat="47.66284" lon="6.84761">
        <ele>370.2</ele>
        <time>2021-08-10T07:59:29Z</time>
      </trkpt>
      <trkpt lat="47.66286" lon="6.84765">
        <ele>370.2</ele>
        <time>2021-08-10T07:59:30Z</time>
      </trkpt>
      <trkpt lat="47.66288" lon="6.8477">
        <ele>370.3</ele>
        <time>2021-08-10T07:59:31Z</time>
      </trkpt>
      <trkpt lat="47.66291" lon="6.8478">
        <ele>370.3</ele>
        <time>2021-08-10T07:59:33Z</time>
      </trkpt>
      <trkpt lat="47.66293" lon="6.84784">
        <ele>370.3</ele>
        <time>2021-08-10T07:59:34Z</time>
      </trkpt>
      <trkpt lat="47.66292" lon="6.84787">
        <ele>370.4</ele>
        <time>2021-08-10T07:59:36Z</time>
      </trkpt>
      <trkpt lat="47.66291" lon="6.84789">
        <ele>370.4</ele>
        <time>2021-08-10T07:59:37Z</time>
      </trkpt>
      <trkpt lat="47.6629" lon="6.84792">
        <ele>370.4</ele>
        <time>2021-08-10T07:59:39Z</time>
      </trkpt>
      <trkpt lat="47.66288" lon="6.84793">
        <ele>370.4</ele>
        <time>2021-08-10T07:59:40Z</time>
      </trkpt>
      <trkpt lat="47.66287" lon="6.84795">
        <ele>370.4</ele>
        <time>2021-08-10T07:59:41Z</time>
      </trkpt>
      <trkpt lat="47.66284" lon="6.84797">
        <ele>370.4</ele>
        <time>2021-08-10T07:59:42Z</time>
      </trkpt>
      <trkpt lat="47.66282" lon="6.84797">
        <ele>370.4</ele>
        <time>2021-08-10T07:59:43Z</time>
      </trkpt>
      <trkpt lat="47.66278" lon="6.84796">
        <ele>370.4</ele>
        <time>2021-08-10T07:59:45Z</time>
      </trkpt>
      <trkpt lat="47.66269" lon="6.84798">
        <ele>370.3</ele>
        <time>2021-08-10T07:59:46Z</time>
      </trkpt>
      <trkpt lat="47.66262" lon="6.84798">
        <ele>370.3</ele>
        <time>2021-08-10T07:59:48Z</time>
      </trkpt>
      <trkpt lat="47.66258" lon="6.848">
        <ele>370.3</ele>
        <time>2021-08-10T07:59:49Z</time>
      </trkpt>
      <trkpt lat="47.66254" lon="6.84803">
        <ele>370.3</ele>
        <time>2021-08-10T07:59:50Z</time>
      </trkpt>
      <trkpt lat="47.66252" lon="6.84806">
        <ele>370.3</ele>
        <time>2021-08-10T07:59:52Z</time>
      </trkpt>
      <trkpt lat="47.6625" lon="6.84805">
        <ele>370.3</ele>
        <time>2021-08-10T07:59:54Z</time>
      </trkpt>
      <trkpt lat="47.66249" lon="6.84805">
        <ele>370.3</ele>
        <time>2021-08-10T07:59:55Z</time>
      </trkpt>
      <trkpt lat="47.66245" lon="6.84805">
        <ele>370.3</ele>
        <time>2021-08-10T07:59:56Z</time>
      </trkpt>
      <trkpt lat="47.66244" lon="6.84805">
        <ele>370.3</ele>
        <time>2021-08-10T07:59:57Z</time>
      </trkpt>
      <trkpt lat="47.66237" lon="6.8481">
        <ele>370.2</ele>
        <time>2021-08-10T07:59:59Z</time>
      </trkpt>
      <trkpt lat="47.66231" lon="6.84812">
        <ele>370.2</ele>
        <time>2021-08-10T08:00:00Z</time>
      </trkpt>
      <trkpt lat="47.66226" lon="6.84815">
        <ele>370.2</ele>
        <time>2021-08-10T08:00:02Z</time>
      </trkpt>
      <trkpt lat="47.66223" lon="6.84817">
        <ele>370.2</ele>
        <time>2021-08-10T08:00:03Z</time>
      </trkpt>
      <trkpt lat="47.66217" lon="6.84819">
        <ele>370.1</ele>
        <time>2021-08-10T08:00:04Z</time>
      </trkpt>
      <trkpt lat="47.6621" lon="6.84821">
        <ele>370.1</ele>
        <time>2021-08-10T08:00:06Z</time>
      </trkpt>
      <trkpt lat="47.66205" lon="6.84824">
        <ele>370.1</ele>
        <time>2021-08-10T08:00:07Z</time>
      </trkpt>
      <trkpt lat="47.66201" lon="6.84826">
        <ele>370</ele>
        <time>2021-08-10T08:00:08Z</time>
      </trkpt>
      <trkpt lat="47.66195" lon="6.84829">
        <ele>370</ele>
        <time>2021-08-10T08:00:10Z</time>
      </trkpt>
      <trkpt lat="47.66189" lon="6.84832">
        <ele>370</ele>
        <time>2021-08-10T08:00:11Z</time>
      </trkpt>
      <trkpt lat="47.66185" lon="6.84834">
        <ele>369.9</ele>
        <time>2021-08-10T08:00:13Z</time>
      </trkpt>
      <trkpt lat="47.66182" lon="6.84837">
        <ele>369.9</ele>
        <time>2021-08-10T08:00:14Z</time>
      </trkpt>
      <trkpt lat="47.66175" lon="6.8484">
        <ele>369.9</ele>
        <time>2021-08-10T08:00:16Z</time>
      </trkpt>
      <trkpt lat="47.66171" lon="6.84841">
        <ele>369.9</ele>
        <time>2021-08-10T08:00:17Z</time>
      </trkpt>
      <trkpt lat="47.66161" lon="6.84848">
        <ele>369.8</ele>
        <time>2021-08-10T08:00:19Z</time>
      </trkpt>
      <trkpt lat="47.66158" lon="6.84852">
        <ele>369.8</ele>
        <time>2021-08-10T08:00:20Z</time>
      </trkpt>
      <trkpt lat="47.66155" lon="6.84857">
        <ele>369.7</ele>
        <time>2021-08-10T08:00:21Z</time>
      </trkpt>
      <trkpt lat="47.66149" lon="6.84866">
        <ele>369.7</ele>
        <time>2021-08-10T08:00:23Z</time>
      </trkpt>
      <trkpt lat="47.66145" lon="6.8487">
        <ele>369.7</ele>
        <time>2021-08-10T08:00:24Z</time>
      </trkpt>
      <trkpt lat="47.6614" lon="6.84873">
        <ele>369.7</ele>
        <time>2021-08-10T08:00:25Z</time>
      </trkpt>
      <trkpt lat="47.66135" lon="6.84878">
        <ele>369.7</ele>
        <time>2021-08-10T08:00:27Z</time>
      </trkpt>
      <trkpt lat="47.66131" lon="6.84882">
        <ele>369.7</ele>
        <time>2021-08-10T08:00:28Z</time>
      </trkpt>
      <trkpt lat="47.66128" lon="6.84886">
        <ele>369.7</ele>
        <time>2021-08-10T08:00:29Z</time>
      </trkpt>
      <trkpt lat="47.66124" lon="6.84891">
        <ele>369.7</ele>
        <time>2021-08-10T08:00:30Z</time>
      </trkpt>
      <trkpt lat="47.66118" lon="6.84895">
        <ele>369.6</ele>
        <time>2021-08-10T08:00:32Z</time>
      </trkpt>
      <trkpt lat="47.66113" lon="6.84898">
        <ele>369.6</ele>
        <time>2021-08-10T08:00:33Z</time>
      </trkpt>
      <trkpt lat="47.66109" lon="6.84902">
        <ele>369.6</ele>
        <time>2021-08-10T08:00:34Z</time>
      </trkpt>
      <trkpt lat="47.66103" lon="6.84905">
        <ele>369.6</ele>
        <time>2021-08-10T08:00:36Z</time>
      </trkpt>
      <trkpt lat="47.66099" lon="6.84907">
        <ele>369.6</ele>
        <time>2021-08-10T08:00:37Z</time>
      </trkpt>
      <trkpt lat="47.66096" lon="6.84908">
        <ele>369.6</ele>
        <time>2021-08-10T08:00:38Z</time>
      </trkpt>
      <trkpt lat="47.66091" lon="6.84909">
        <ele>369.6</ele>
        <time>2021-08-10T08:00:39Z</time>
      </trkpt>
      <trkpt lat="47.66088" lon="6.84908">
        <ele>369.6</ele>
        <time>2021-08-10T08:00:40Z</time>
      </trkpt>
      <trkpt lat="47.66083" lon="6.84908">
        <ele>369.6</ele>
        <time>2021-08-10T08:00:42Z</time>
      </trkpt>
      <trkpt lat="47.6608" lon="6.84908">
        <ele>369.6</ele>
        <time>2021-08-10T08:00:43Z</time>
      </trkpt>
      <trkpt lat="47.66076" lon="6.84906">
        <ele>369.5</ele>
        <time>2021-08-10T08:00:44Z</time>
      </trkpt>
      <trkpt lat="47.6607" lon="6.84905">
        <ele>369.5</ele>
        <time>2021-08-10T08:00:45Z</time>
      </trkpt>
      <trkpt lat="47.66063" lon="6.84903">
        <ele>369.5</ele>
        <time>2021-08-10T08:00:47Z</time>
      </trkpt>
      <trkpt lat="47.66056" lon="6.84899">
        <ele>369.5</ele>
        <time>2021-08-10T08:00:49Z</time>
      </trkpt>
      <trkpt lat="47.66052" lon="6.84895">
        <ele>369.4</ele>
        <time>2021-08-10T08:00:50Z</time>
      </trkpt>
      <trkpt lat="47.66046" lon="6.8489">
        <ele>369.3</ele>
        <time>2021-08-10T08:00:52Z</time>
      </trkpt>
      <trkpt lat="47.66041" lon="6.84887">
        <ele>369.3</ele>
        <time>2021-08-10T08:00:53Z</time>
      </trkpt>
      <trkpt lat="47.66031" lon="6.8488">
        <ele>369.2</ele>
        <time>2021-08-10T08:00:55Z</time>
      </trkpt>
      <trkpt lat="47.66026" lon="6.84877">
        <ele>369.2</ele>
        <time>2021-08-10T08:00:56Z</time>
      </trkpt>
      <trkpt lat="47.66018" lon="6.84873">
        <ele>369.1</ele>
        <time>2021-08-10T08:00:57Z</time>
      </trkpt>
      <trkpt lat="47.66012" lon="6.84872">
        <ele>369.1</ele>
        <time>2021-08-10T08:00:59Z</time>
      </trkpt>
      <trkpt lat="47.66009" lon="6.84873">
        <ele>369.1</ele>
        <time>2021-08-10T08:01:00Z</time>
      </trkpt>
      <trkpt lat="47.66011" lon="6.84874">
        <ele>369.1</ele>
        <time>2021-08-10T08:01:01Z</time>
      </trkpt>
      <trkpt lat="47.66001" lon="6.84874">
        <ele>369.1</ele>
        <time>2021-08-10T08:01:03Z</time>
      </trkpt>
      <trkpt lat="47.65994" lon="6.84871">
        <ele>369.1</ele>
        <time>2021-08-10T08:01:05Z</time>
      </trkpt>
      <trkpt lat="47.65986" lon="6.84869">
        <ele>369.1</ele>
        <time>2021-08-10T08:01:07Z</time>
      </trkpt>
      <trkpt lat="47.65977" lon="6.84868">
        <ele>369</ele>
        <time>2021-08-10T08:01:08Z</time>
      </trkpt>
      <trkpt lat="47.65973" lon="6.84866">
        <ele>369</ele>
        <time>2021-08-10T08:01:10Z</time>
      </trkpt>
      <trkpt lat="47.65967" lon="6.84864">
        <ele>369</ele>
        <time>2021-08-10T08:01:11Z</time>
      </trkpt>
      <trkpt lat="47.6596" lon="6.84861">
        <ele>368.9</ele>
        <time>2021-08-10T08:01:13Z</time>
      </trkpt>
      <trkpt lat="47.65953" lon="6.84861">
        <ele>368.9</ele>
        <time>2021-08-10T08:01:14Z</time>
      </trkpt>
      <trkpt lat="47.65941" lon="6.8486">
        <ele>368.9</ele>
        <time>2021-08-10T08:01:16Z</time>
      </trkpt>
      <trkpt lat="47.65933" lon="6.84859">
        <ele>368.8</ele>
        <time>2021-08-10T08:01:18Z</time>
      </trkpt>
      <trkpt lat="47.65927" lon="6.84856">
        <ele>368.8</ele>
        <time>2021-08-10T08:01:20Z</time>
      </trkpt>
      <trkpt lat="47.65918" lon="6.84859">
        <ele>368.7</ele>
        <time>2021-08-10T08:01:22Z</time>
      </trkpt>
      <trkpt lat="47.65911" lon="6.84864">
        <ele>368.7</ele>
        <time>2021-08-10T08:01:24Z</time>
      </trkpt>
      <trkpt lat="47.65907" lon="6.84867">
        <ele>368.7</ele>
        <time>2021-08-10T08:01:25Z</time>
      </trkpt>
      <trkpt lat="47.65903" lon="6.84871">
        <ele>368.6</ele>
        <time>2021-08-10T08:01:26Z</time>
      </trkpt>
      <trkpt lat="47.65901" lon="6.84876">
        <ele>368.6</ele>
        <time>2021-08-10T08:01:27Z</time>
      </trkpt>
      <trkpt lat="47.65895" lon="6.84876">
        <ele>368.6</ele>
        <time>2021-08-10T08:01:28Z</time>
      </trkpt>
      <trkpt lat="47.65891" lon="6.84874">
        <ele>368.5</ele>
        <time>2021-08-10T08:01:30Z</time>
      </trkpt>
      <trkpt lat="47.65888" lon="6.84872">
        <ele>368.5</ele>
        <time>2021-08-10T08:01:31Z</time>
      </trkpt>
      <trkpt lat="47.65886" lon="6.84867">
        <ele>368.4</ele>
        <time>2021-08-10T08:01:32Z</time>
      </trkpt>
      <trkpt lat="47.65886" lon="6.84864">
        <ele>368.4</ele>
        <time>2021-08-10T08:01:33Z</time>
      </trkpt>
      <trkpt lat="47.65885" lon="6.84859">
        <ele>368.4</ele>
        <time>2021-08-10T08:01:34Z</time>
      </trkpt>
      <trkpt lat="47.65884" lon="6.84853">
        <ele>368.4</ele>
        <time>2021-08-10T08:01:35Z</time>
      </trkpt>
      <trkpt lat="47.65883" lon="6.84846">
        <ele>368.4</ele>
        <time>2021-08-10T08:01:37Z</time>
      </trkpt>
      <trkpt lat="47.65881" lon="6.84839">
        <ele>368.3</ele>
        <time>2021-08-10T08:01:38Z</time>
      </trkpt>
      <trkpt lat="47.6588" lon="6.84826">
        <ele>368.3</ele>
        <time>2021-08-10T08:01:39Z</time>
      </trkpt>
      <trkpt lat="47.6588" lon="6.84805">
        <ele>368.3</ele>
        <time>2021-08-10T08:01:41Z</time>
      </trkpt>
      <trkpt lat="47.6588" lon="6.84795">
        <ele>368.3</ele>
        <time>2021-08-10T08:01:42Z</time>
      </trkpt>
      <trkpt lat="47.6588" lon="6.84778">
        <ele>368.3</ele>
        <time>2021-08-10T08:01:44Z</time>
      </trkpt>
      <trkpt lat="47.65879" lon="6.84771">
        <ele>368.3</ele>
        <time>2021-08-10T08:01:45Z</time>
      </trkpt>
      <trkpt lat="47.6588" lon="6.84766">
        <ele>368.4</ele>
        <time>2021-08-10T08:01:46Z</time>
      </trkpt>
      <trkpt lat="47.65879" lon="6.84758">
        <ele>368.4</ele>
        <time>2021-08-10T08:01:48Z</time>
      </trkpt>
      <trkpt lat="47.65878" lon="6.84753">
        <ele>368.4</ele>
        <time>2021-08-10T08:01:50Z</time>
      </trkpt>
      <trkpt lat="47.65875" lon="6.84759">
        <ele>368.5</ele>
        <time>2021-08-10T08:01:51Z</time>
      </trkpt>
      <trkpt lat="47.65873" lon="6.84763">
        <ele>368.5</ele>
        <time>2021-08-10T08:01:52Z</time>
      </trkpt>
      <trkpt lat="47.65872" lon="6.84763">
        <ele>368.5</ele>
        <time>2021-08-10T08:01:53Z</time>
      </trkpt>
      <trkpt lat="47.6587" lon="6.84767">
        <ele>368.5</ele>
        <time>2021-08-10T08:01:55Z</time>
      </trkpt>
      <trkpt lat="47.65868" lon="6.84771">
        <ele>368.6</ele>
        <time>2021-08-10T08:01:56Z</time>
      </trkpt>
      <trkpt lat="47.65865" lon="6.84772">
        <ele>368.6</ele>
        <time>2021-08-10T08:01:59Z</time>
      </trkpt>
      <trkpt lat="47.65864" lon="6.84772">
        <ele>368.6</ele>
        <time>2021-08-10T08:02:00Z</time>
      </trkpt>
      <trkpt lat="47.65862" lon="6.84772">
        <ele>368.6</ele>
        <time>2021-08-10T08:02:02Z</time>
      </trkpt>
      <trkpt lat="47.65861" lon="6.84772">
        <ele>368.6</ele>
        <time>2021-08-10T08:02:03Z</time>
      </trkpt>
      <trkpt lat="47.6586" lon="6.84771">
        <ele>368.6</ele>
        <time>2021-08-10T08:02:04Z</time>
      </trkpt>
      <trkpt lat="47.6582" lon="6.84803">
        <ele>368.4</ele>
        <time>2021-08-10T08:02:06Z</time>
      </trkpt>
      <trkpt lat="47.65812" lon="6.84809">
        <ele>368.4</ele>
        <time>2021-08-10T08:02:08Z</time>
      </trkpt>
      <trkpt lat="47.65807" lon="6.84812">
        <ele>368.4</ele>
        <time>2021-08-10T08:02:09Z</time>
      </trkpt>
      <trkpt lat="47.65803" lon="6.84816">
        <ele>368.3</ele>
        <time>2021-08-10T08:02:10Z</time>
      </trkpt>
      <trkpt lat="47.65793" lon="6.84816">
        <ele>368.3</ele>
        <time>2021-08-10T08:02:11Z</time>
      </trkpt>
      <trkpt lat="47.65786" lon="6.84816">
        <ele>368.3</ele>
        <time>2021-08-10T08:02:12Z</time>
      </trkpt>
      <trkpt lat="47.65776" lon="6.84817">
        <ele>368.2</ele>
        <time>2021-08-10T08:02:14Z</time>
      </trkpt>
      <trkpt lat="47.65771" lon="6.84819">
        <ele>368.2</ele>
        <time>2021-08-10T08:02:15Z</time>
      </trkpt>
      <trkpt lat="47.65764" lon="6.84819">
        <ele>368.2</ele>
        <time>2021-08-10T08:02:16Z</time>
      </trkpt>
      <trkpt lat="47.65759" lon="6.8482">
        <ele>368.2</ele>
        <time>2021-08-10T08:02:17Z</time>
      </trkpt>
      <trkpt lat="47.65754" lon="6.84821">
        <ele>368.2</ele>
        <time>2021-08-10T08:02:18Z</time>
      </trkpt>
      <trkpt lat="47.65749" lon="6.84822">
        <ele>368.2</ele>
        <time>2021-08-10T08:02:20Z</time>
      </trkpt>
      <trkpt lat="47.65739" lon="6.84827">
        <ele>368.2</ele>
        <time>2021-08-10T08:02:22Z</time>
      </trkpt>
      <trkpt lat="47.65734" lon="6.84829">
        <ele>368.1</ele>
        <time>2021-08-10T08:02:23Z</time>
      </trkpt>
      <trkpt lat="47.65725" lon="6.84835">
        <ele>368.1</ele>
        <time>2021-08-10T08:02:24Z</time>
      </trkpt>
      <trkpt lat="47.65713" lon="6.8484">
        <ele>368</ele>
        <time>2021-08-10T08:02:26Z</time>
      </trkpt>
      <trkpt lat="47.65702" lon="6.84848">
        <ele>367.9</ele>
        <time>2021-08-10T08:02:28Z</time>
      </trkpt>
      <trkpt lat="47.6569" lon="6.84855">
        <ele>367.9</ele>
        <time>2021-08-10T08:02:30Z</time>
      </trkpt>
      <trkpt lat="47.65679" lon="6.84862">
        <ele>367.9</ele>
        <time>2021-08-10T08:02:32Z</time>
      </trkpt>
      <trkpt lat="47.65671" lon="6.8487">
        <ele>367.9</ele>
        <time>2021-08-10T08:02:34Z</time>
      </trkpt>
      <trkpt lat="47.65661" lon="6.84874">
        <ele>367.8</ele>
        <time>2021-08-10T08:02:36Z</time>
      </trkpt>
      <trkpt lat="47.65656" lon="6.84877">
        <ele>367.8</ele>
        <time>2021-08-10T08:02:37Z</time>
      </trkpt>
      <trkpt lat="47.6565" lon="6.8488">
        <ele>367.8</ele>
        <time>2021-08-10T08:02:38Z</time>
      </trkpt>
      <trkpt lat="47.6564" lon="6.84883">
        <ele>367.7</ele>
        <time>2021-08-10T08:02:40Z</time>
      </trkpt>
      <trkpt lat="47.65636" lon="6.84883">
        <ele>367.7</ele>
        <time>2021-08-10T08:02:42Z</time>
      </trkpt>
      <trkpt lat="47.65632" lon="6.84883">
        <ele>367.7</ele>
        <time>2021-08-10T08:02:44Z</time>
      </trkpt>
      <trkpt lat="47.65629" lon="6.84884">
        <ele>367.7</ele>
        <time>2021-08-10T08:02:45Z</time>
      </trkpt>
      <trkpt lat="47.65626" lon="6.84891">
        <ele>367.7</ele>
        <time>2021-08-10T08:02:47Z</time>
      </trkpt>
      <trkpt lat="47.65624" lon="6.84894">
        <ele>367.7</ele>
        <time>2021-08-10T08:02:48Z</time>
      </trkpt>
      <trkpt lat="47.65621" lon="6.84896">
        <ele>367.7</ele>
        <time>2021-08-10T08:02:50Z</time>
      </trkpt>
      <trkpt lat="47.6562" lon="6.84898">
        <ele>367.7</ele>
        <time>2021-08-10T08:02:51Z</time>
      </trkpt>
      <trkpt lat="47.65615" lon="6.84902">
        <ele>367.6</ele>
        <time>2021-08-10T08:02:53Z</time>
      </trkpt>
      <trkpt lat="47.65613" lon="6.84903">
        <ele>367.6</ele>
        <time>2021-08-10T08:02:54Z</time>
      </trkpt>
      <trkpt lat="47.65607" lon="6.84903">
        <ele>367.6</ele>
        <time>2021-08-10T08:02:56Z</time>
      </trkpt>
      <trkpt lat="47.65604" lon="6.84901">
        <ele>367.6</ele>
        <time>2021-08-10T08:02:57Z</time>
      </trkpt>
      <trkpt lat="47.65603" lon="6.849">
        <ele>367.6</ele>
        <time>2021-08-10T08:02:58Z</time>
      </trkpt>
      <trkpt lat="47.65605" lon="6.84894">
        <ele>367.5</ele>
        <time>2021-08-10T08:03:00Z</time>
      </trkpt>
      <trkpt lat="47.65607" lon="6.84892">
        <ele>367.5</ele>
        <time>2021-08-10T08:03:01Z</time>
      </trkpt>
      <trkpt lat="47.65607" lon="6.84892">
        <ele>367.5</ele>
        <time>2021-08-10T08:03:03Z</time>
      </trkpt>
      <trkpt lat="47.65607" lon="6.84891">
        <ele>367.5</ele>
        <time>2021-08-10T08:03:04Z</time>
      </trkpt>
      <trkpt lat="47.65607" lon="6.84891">
        <ele>367.5</ele>
        <time>2021-08-10T08:03:06Z</time>
      </trkpt>
      <trkpt lat="47.65607" lon="6.84892">
        <ele>367.5</ele>
        <time>2021-08-10T08:03:08Z</time>
      </trkpt>
      <trkpt lat="47.65604" lon="6.84898">
        <ele>367.5</ele>
        <time>2021-08-10T08:04:07Z</time>
      </trkpt>
      <trkpt lat="47.65592" lon="6.84904">
        <ele>367.4</ele>
        <time>2021-08-10T08:04:09Z</time>
      </trkpt>
      <trkpt lat="47.65586" lon="6.84905">
        <ele>367.4</ele>
        <time>2021-08-10T08:04:10Z</time>
      </trkpt>
      <trkpt lat="47.65579" lon="6.84906">
        <ele>367.3</ele>
        <time>2021-08-10T08:04:11Z</time>
      </trkpt>
      <trkpt lat="47.65567" lon="6.8491">
        <ele>367.3</ele>
        <time>2021-08-10T08:04:12Z</time>
      </trkpt>
      <trkpt lat="47.65559" lon="6.84913">
        <ele>367.2</ele>
        <time>2021-08-10T08:04:13Z</time>
      </trkpt>
      <trkpt lat="47.65552" lon="6.84916">
        <ele>367.2</ele>
        <time>2021-08-10T08:04:15Z</time>
      </trkpt>
      <trkpt lat="47.65544" lon="6.84919">
        <ele>367.1</ele>
        <time>2021-08-10T08:04:16Z</time>
      </trkpt>
      <trkpt lat="47.65538" lon="6.8492">
        <ele>367.1</ele>
        <time>2021-08-10T08:04:17Z</time>
      </trkpt>
      <trkpt lat="47.65532" lon="6.8492">
        <ele>367</ele>
        <time>2021-08-10T08:04:19Z</time>
      </trkpt>
      <trkpt lat="47.65527" lon="6.84919">
        <ele>367</ele>
        <time>2021-08-10T08:04:20Z</time>
      </trkpt>
      <trkpt lat="47.65519" lon="6.84923">
        <ele>367</ele>
        <time>2021-08-10T08:04:21Z</time>
      </trkpt>
      <trkpt lat="47.65514" lon="6.84926">
        <ele>367</ele>
        <time>2021-08-10T08:04:23Z</time>
      </trkpt>
      <trkpt lat="47.65509" lon="6.8493">
        <ele>367</ele>
        <time>2021-08-10T08:04:24Z</time>
      </trkpt>
      <trkpt lat="47.65506" lon="6.84933">
        <ele>367</ele>
        <time>2021-08-10T08:04:25Z</time>
      </trkpt>
      <trkpt lat="47.65499" lon="6.84939">
        <ele>367</ele>
        <time>2021-08-10T08:04:26Z</time>
      </trkpt>
      <trkpt lat="47.65496" lon="6.84943">
        <ele>366.9</ele>
        <time>2021-08-10T08:04:28Z</time>
      </trkpt>
      <trkpt lat="47.65493" lon="6.84947">
        <ele>366.9</ele>
        <time>2021-08-10T08:04:29Z</time>
      </trkpt>
      <trkpt lat="47.6549" lon="6.84951">
        <ele>366.8</ele>
        <time>2021-08-10T08:04:30Z</time>
      </trkpt>
      <trkpt lat="47.65485" lon="6.84958">
        <ele>366.8</ele>
        <time>2021-08-10T08:04:31Z</time>
      </trkpt>
      <trkpt lat="47.65477" lon="6.84966">
        <ele>366.7</ele>
        <time>2021-08-10T08:04:33Z</time>
      </trkpt>
      <trkpt lat="47.65473" lon="6.84971">
        <ele>366.7</ele>
        <time>2021-08-10T08:04:34Z</time>
      </trkpt>
      <trkpt lat="47.65468" lon="6.84975">
        <ele>366.7</ele>
        <time>2021-08-10T08:04:35Z</time>
      </trkpt>
      <trkpt lat="47.65463" lon="6.84979">
        <ele>366.6</ele>
        <time>2021-08-10T08:04:36Z</time>
      </trkpt>
      <trkpt lat="47.65459" lon="6.84984">
        <ele>366.6</ele>
        <time>2021-08-10T08:04:37Z</time>
      </trkpt>
      <trkpt lat="47.65451" lon="6.84994">
        <ele>366.6</ele>
        <time>2021-08-10T08:04:39Z</time>
      </trkpt>
      <trkpt lat="47.65443" lon="6.85005">
        <ele>366.6</ele>
        <time>2021-08-10T08:04:41Z</time>
      </trkpt>
      <trkpt lat="47.65435" lon="6.85017">
        <ele>366.5</ele>
        <time>2021-08-10T08:04:43Z</time>
      </trkpt>
      <trkpt lat="47.65431" lon="6.85021">
        <ele>366.5</ele>
        <time>2021-08-10T08:04:44Z</time>
      </trkpt>
      <trkpt lat="47.65421" lon="6.85028">
        <ele>366.4</ele>
        <time>2021-08-10T08:04:46Z</time>
      </trkpt>
      <trkpt lat="47.65416" lon="6.8503">
        <ele>366.4</ele>
        <time>2021-08-10T08:04:47Z</time>
      </trkpt>
      <trkpt lat="47.65412" lon="6.85034">
        <ele>366.3</ele>
        <time>2021-08-10T08:04:48Z</time>
      </trkpt>
      <trkpt lat="47.65402" lon="6.85042">
        <ele>366.2</ele>
        <time>2021-08-10T08:04:50Z</time>
      </trkpt>
      <trkpt lat="47.65395" lon="6.8505">
        <ele>366.2</ele>
        <time>2021-08-10T08:04:52Z</time>
      </trkpt>
      <trkpt lat="47.65391" lon="6.85054">
        <ele>366.1</ele>
        <time>2021-08-10T08:04:53Z</time>
      </trkpt>
      <trkpt lat="47.65388" lon="6.85058">
        <ele>366.1</ele>
        <time>2021-08-10T08:04:54Z</time>
      </trkpt>
      <trkpt lat="47.65385" lon="6.85061">
        <ele>366.1</ele>
        <time>2021-08-10T08:04:55Z</time>
      </trkpt>
      <trkpt lat="47.65381" lon="6.85066">
        <ele>366.1</ele>
        <time>2021-08-10T08:04:56Z</time>
      </trkpt>
      <trkpt lat="47.65378" lon="6.8507">
        <ele>366</ele>
        <time>2021-08-10T08:04:57Z</time>
      </trkpt>
      <trkpt lat="47.6537" lon="6.85078">
        <ele>366</ele>
        <time>2021-08-10T08:04:59Z</time>
      </trkpt>
      <trkpt lat="47.65366" lon="6.85083">
        <ele>366</ele>
        <time>2021-08-10T08:05:00Z</time>
      </trkpt>
      <trkpt lat="47.65358" lon="6.8509">
        <ele>366</ele>
        <time>2021-08-10T08:05:02Z</time>
      </trkpt>
      <trkpt lat="47.6535" lon="6.85097">
        <ele>366</ele>
        <time>2021-08-10T08:05:04Z</time>
      </trkpt>
      <trkpt lat="47.65346" lon="6.85101">
        <ele>366</ele>
        <time>2021-08-10T08:05:05Z</time>
      </trkpt>
      <trkpt lat="47.65337" lon="6.85109">
        <ele>365.9</ele>
        <time>2021-08-10T08:05:07Z</time>
      </trkpt>
      <trkpt lat="47.65328" lon="6.85116">
        <ele>365.9</ele>
        <time>2021-08-10T08:05:09Z</time>
      </trkpt>
      <trkpt lat="47.65319" lon="6.85123">
        <ele>366</ele>
        <time>2021-08-10T08:05:11Z</time>
      </trkpt>
      <trkpt lat="47.65315" lon="6.85127">
        <ele>366</ele>
        <time>2021-08-10T08:05:12Z</time>
      </trkpt>
      <trkpt lat="47.65308" lon="6.85136">
        <ele>366</ele>
        <time>2021-08-10T08:05:14Z</time>
      </trkpt>
      <trkpt lat="47.65304" lon="6.85141">
        <ele>366</ele>
        <time>2021-08-10T08:05:16Z</time>
      </trkpt>
      <trkpt lat="47.653" lon="6.85145">
        <ele>366</ele>
        <time>2021-08-10T08:05:17Z</time>
      </trkpt>
      <trkpt lat="47.65299" lon="6.85147">
        <ele>366</ele>
        <time>2021-08-10T08:05:18Z</time>
      </trkpt>
      <trkpt lat="47.65293" lon="6.85152">
        <ele>366</ele>
        <time>2021-08-10T08:05:20Z</time>
      </trkpt>
      <trkpt lat="47.65292" lon="6.85161">
        <ele>366</ele>
        <time>2021-08-10T08:05:22Z</time>
      </trkpt>
      <trkpt lat="47.65289" lon="6.85162">
        <ele>366</ele>
        <time>2021-08-10T08:05:23Z</time>
      </trkpt>
      <trkpt lat="47.65286" lon="6.85163">
        <ele>366</ele>
        <time>2021-08-10T08:05:24Z</time>
      </trkpt>
      <trkpt lat="47.65286" lon="6.85166">
        <ele>366</ele>
        <time>2021-08-10T08:05:25Z</time>
      </trkpt>
      <trkpt lat="47.65287" lon="6.85169">
        <ele>366</ele>
        <time>2021-08-10T08:05:26Z</time>
      </trkpt>
      <trkpt lat="47.65288" lon="6.85174">
        <ele>366</ele>
        <time>2021-08-10T08:05:27Z</time>
      </trkpt>
      <trkpt lat="47.6529" lon="6.8518">
        <ele>365.9</ele>
        <time>2021-08-10T08:05:29Z</time>
      </trkpt>
      <trkpt lat="47.65292" lon="6.85185">
        <ele>365.9</ele>
        <time>2021-08-10T08:05:30Z</time>
      </trkpt>
      <trkpt lat="47.65295" lon="6.85189">
        <ele>365.9</ele>
        <time>2021-08-10T08:05:31Z</time>
      </trkpt>
      <trkpt lat="47.65298" lon="6.85194">
        <ele>365.8</ele>
        <time>2021-08-10T08:05:32Z</time>
      </trkpt>
      <trkpt lat="47.65301" lon="6.85199">
        <ele>365.7</ele>
        <time>2021-08-10T08:05:33Z</time>
      </trkpt>
      <trkpt lat="47.65304" lon="6.85206">
        <ele>365.7</ele>
        <time>2021-08-10T08:05:34Z</time>
      </trkpt>
      <trkpt lat="47.65306" lon="6.85212">
        <ele>365.6</ele>
        <time>2021-08-10T08:05:35Z</time>
      </trkpt>
      <trkpt lat="47.65309" lon="6.85217">
        <ele>365.6</ele>
        <time>2021-08-10T08:05:37Z</time>
      </trkpt>
      <trkpt lat="47.65314" lon="6.85228">
        <ele>365.5</ele>
        <time>2021-08-10T08:05:39Z</time>
      </trkpt>
      <trkpt lat="47.65317" lon="6.85237">
        <ele>365.4</ele>
        <time>2021-08-10T08:05:40Z</time>
      </trkpt>
      <trkpt lat="47.6532" lon="6.85243">
        <ele>365.3</ele>
        <time>2021-08-10T08:05:41Z</time>
      </trkpt>
      <trkpt lat="47.65322" lon="6.8525">
        <ele>365.3</ele>
        <time>2021-08-10T08:05:42Z</time>
      </trkpt>
      <trkpt lat="47.65327" lon="6.85265">
        <ele>365.1</ele>
        <time>2021-08-10T08:05:44Z</time>
      </trkpt>
      <trkpt lat="47.65329" lon="6.85272">
        <ele>365</ele>
        <time>2021-08-10T08:05:45Z</time>
      </trkpt>
      <trkpt lat="47.65333" lon="6.85288">
        <ele>364.9</ele>
        <time>2021-08-10T08:05:47Z</time>
      </trkpt>
      <trkpt lat="47.65338" lon="6.85301">
        <ele>364.8</ele>
        <time>2021-08-10T08:05:49Z</time>
      </trkpt>
      <trkpt lat="47.65338" lon="6.85309">
        <ele>364.7</ele>
        <time>2021-08-10T08:05:50Z</time>
      </trkpt>
      <trkpt lat="47.65342" lon="6.85315">
        <ele>364.7</ele>
        <time>2021-08-10T08:05:52Z</time>
      </trkpt>
      <trkpt lat="47.65345" lon="6.85321">
        <ele>364.7</ele>
        <time>2021-08-10T08:05:53Z</time>
      </trkpt>
      <trkpt lat="47.65348" lon="6.85327">
        <ele>364.6</ele>
        <time>2021-08-10T08:05:55Z</time>
      </trkpt>
      <trkpt lat="47.65351" lon="6.85336">
        <ele>364.6</ele>
        <time>2021-08-10T08:05:56Z</time>
      </trkpt>
      <trkpt lat="47.65353" lon="6.85342">
        <ele>364.6</ele>
        <time>2021-08-10T08:05:58Z</time>
      </trkpt>
      <trkpt lat="47.65355" lon="6.85348">
        <ele>364.5</ele>
        <time>2021-08-10T08:05:59Z</time>
      </trkpt>
      <trkpt lat="47.65359" lon="6.85357">
        <ele>364.5</ele>
        <time>2021-08-10T08:06:00Z</time>
      </trkpt>
      <trkpt lat="47.65361" lon="6.85364">
        <ele>364.4</ele>
        <time>2021-08-10T08:06:01Z</time>
      </trkpt>
      <trkpt lat="47.65364" lon="6.85371">
        <ele>364.4</ele>
        <time>2021-08-10T08:06:02Z</time>
      </trkpt>
      <trkpt lat="47.65368" lon="6.8538">
        <ele>364.3</ele>
        <time>2021-08-10T08:06:04Z</time>
      </trkpt>
      <trkpt lat="47.65372" lon="6.85389">
        <ele>364.3</ele>
        <time>2021-08-10T08:06:05Z</time>
      </trkpt>
      <trkpt lat="47.65377" lon="6.85402">
        <ele>364.2</ele>
        <time>2021-08-10T08:06:07Z</time>
      </trkpt>
      <trkpt lat="47.65377" lon="6.85409">
        <ele>364.2</ele>
        <time>2021-08-10T08:06:08Z</time>
      </trkpt>
      <trkpt lat="47.65378" lon="6.85417">
        <ele>364.2</ele>
        <time>2021-08-10T08:06:09Z</time>
      </trkpt>
      <trkpt lat="47.65381" lon="6.85425">
        <ele>364.2</ele>
        <time>2021-08-10T08:06:11Z</time>
      </trkpt>
      <trkpt lat="47.65383" lon="6.8543">
        <ele>364.3</ele>
        <time>2021-08-10T08:06:12Z</time>
      </trkpt>
      <trkpt lat="47.65385" lon="6.85437">
        <ele>364.3</ele>
        <time>2021-08-10T08:06:13Z</time>
      </trkpt>
      <trkpt lat="47.65385" lon="6.85442">
        <ele>364.3</ele>
        <time>2021-08-10T08:06:15Z</time>
      </trkpt>
      <trkpt lat="47.65385" lon="6.85448">
        <ele>364.4</ele>
        <time>2021-08-10T08:06:17Z</time>
      </trkpt>
      <trkpt lat="47.65385" lon="6.85453">
        <ele>364.4</ele>
        <time>2021-08-10T08:06:19Z</time>
      </trkpt>
      <trkpt lat="47.65387" lon="6.85458">
        <ele>364.4</ele>
        <time>2021-08-10T08:06:21Z</time>
      </trkpt>
      <trkpt lat="47.65391" lon="6.85469">
        <ele>364.5</ele>
        <time>2021-08-10T08:06:23Z</time>
      </trkpt>
      <trkpt lat="47.65394" lon="6.85478">
        <ele>364.5</ele>
        <time>2021-08-10T08:06:24Z</time>
      </trkpt>
      <trkpt lat="47.65394" lon="6.8549">
        <ele>364.5</ele>
        <time>2021-08-10T08:06:25Z</time>
      </trkpt>
      <trkpt lat="47.65394" lon="6.85499">
        <ele>364.2</ele>
        <time>2021-08-10T08:06:27Z</time>
      </trkpt>
      <trkpt lat="47.65392" lon="6.85506">
        <ele>364.2</ele>
        <time>2021-08-10T08:06:28Z</time>
      </trkpt>
      <trkpt lat="47.65389" lon="6.85515">
        <ele>363.8</ele>
        <time>2021-08-10T08:06:29Z</time>
      </trkpt>
      <trkpt lat="47.65386" lon="6.85523">
        <ele>363.7</ele>
        <time>2021-08-10T08:06:30Z</time>
      </trkpt>
      <trkpt lat="47.6538" lon="6.85531">
        <ele>363.7</ele>
        <time>2021-08-10T08:06:32Z</time>
      </trkpt>
      <trkpt lat="47.65376" lon="6.85535">
        <ele>363.6</ele>
        <time>2021-08-10T08:06:33Z</time>
      </trkpt>
      <trkpt lat="47.65368" lon="6.85544">
        <ele>363.5</ele>
        <time>2021-08-10T08:06:35Z</time>
      </trkpt>
      <trkpt lat="47.65363" lon="6.85548">
        <ele>363.5</ele>
        <time>2021-08-10T08:06:36Z</time>
      </trkpt>
      <trkpt lat="47.65359" lon="6.85552">
        <ele>363.5</ele>
        <time>2021-08-10T08:06:38Z</time>
      </trkpt>
      <trkpt lat="47.65354" lon="6.85555">
        <ele>363.5</ele>
        <time>2021-08-10T08:06:39Z</time>
      </trkpt>
      <trkpt lat="47.65347" lon="6.85557">
        <ele>363.5</ele>
        <time>2021-08-10T08:06:40Z</time>
      </trkpt>
      <trkpt lat="47.65338" lon="6.85556">
        <ele>363.5</ele>
        <time>2021-08-10T08:06:42Z</time>
      </trkpt>
      <trkpt lat="47.65333" lon="6.85557">
        <ele>363.5</ele>
        <time>2021-08-10T08:06:43Z</time>
      </trkpt>
      <trkpt lat="47.65323" lon="6.85559">
        <ele>363.5</ele>
        <time>2021-08-10T08:06:45Z</time>
      </trkpt>
      <trkpt lat="47.65319" lon="6.85561">
        <ele>363.5</ele>
        <time>2021-08-10T08:06:46Z</time>
      </trkpt>
      <trkpt lat="47.65316" lon="6.85563">
        <ele>363.5</ele>
        <time>2021-08-10T08:06:47Z</time>
      </trkpt>
      <trkpt lat="47.65309" lon="6.85567">
        <ele>363.5</ele>
        <time>2021-08-10T08:06:49Z</time>
      </trkpt>
      <trkpt lat="47.65304" lon="6.85567">
        <ele>363.6</ele>
        <time>2021-08-10T08:06:50Z</time>
      </trkpt>
      <trkpt lat="47.65299" lon="6.85568">
        <ele>363.6</ele>
        <time>2021-08-10T08:06:51Z</time>
      </trkpt>
      <trkpt lat="47.65294" lon="6.85569">
        <ele>363.6</ele>
        <time>2021-08-10T08:06:52Z</time>
      </trkpt>
      <trkpt lat="47.6529" lon="6.85569">
        <ele>363.6</ele>
        <time>2021-08-10T08:06:54Z</time>
      </trkpt>
      <trkpt lat="47.65286" lon="6.85569">
        <ele>363.6</ele>
        <time>2021-08-10T08:06:55Z</time>
      </trkpt>
      <trkpt lat="47.65283" lon="6.8557">
        <ele>363.6</ele>
        <time>2021-08-10T08:06:56Z</time>
      </trkpt>
      <trkpt lat="47.65277" lon="6.85571">
        <ele>363.6</ele>
        <time>2021-08-10T08:06:57Z</time>
      </trkpt>
      <trkpt lat="47.65273" lon="6.85572">
        <ele>363.5</ele>
        <time>2021-08-10T08:06:59Z</time>
      </trkpt>
      <trkpt lat="47.6527" lon="6.85573">
        <ele>363.5</ele>
        <time>2021-08-10T08:07:00Z</time>
      </trkpt>
      <trkpt lat="47.65266" lon="6.85574">
        <ele>363.5</ele>
        <time>2021-08-10T08:07:01Z</time>
      </trkpt>
      <trkpt lat="47.65261" lon="6.85576">
        <ele>363.5</ele>
        <time>2021-08-10T08:07:02Z</time>
      </trkpt>
      <trkpt lat="47.65253" lon="6.85579">
        <ele>363.5</ele>
        <time>2021-08-10T08:07:04Z</time>
      </trkpt>
      <trkpt lat="47.65246" lon="6.8558">
        <ele>363.4</ele>
        <time>2021-08-10T08:07:06Z</time>
      </trkpt>
      <trkpt lat="47.6524" lon="6.85582">
        <ele>363.4</ele>
        <time>2021-08-10T08:07:07Z</time>
      </trkpt>
      <trkpt lat="47.65235" lon="6.85584">
        <ele>363.4</ele>
        <time>2021-08-10T08:07:08Z</time>
      </trkpt>
      <trkpt lat="47.65225" lon="6.85586">
        <ele>363.3</ele>
        <time>2021-08-10T08:07:10Z</time>
      </trkpt>
      <trkpt lat="47.6522" lon="6.85587">
        <ele>363.2</ele>
        <time>2021-08-10T08:07:11Z</time>
      </trkpt>
      <trkpt lat="47.65215" lon="6.8559">
        <ele>363.2</ele>
        <time>2021-08-10T08:07:12Z</time>
      </trkpt>
      <trkpt lat="47.65208" lon="6.85594">
        <ele>363.1</ele>
        <time>2021-08-10T08:07:13Z</time>
      </trkpt>
      <trkpt lat="47.65203" lon="6.85598">
        <ele>363.1</ele>
        <time>2021-08-10T08:07:15Z</time>
      </trkpt>
      <trkpt lat="47.65198" lon="6.85601">
        <ele>363</ele>
        <time>2021-08-10T08:07:16Z</time>
      </trkpt>
      <trkpt lat="47.65193" lon="6.85603">
        <ele>363</ele>
        <time>2021-08-10T08:07:17Z</time>
      </trkpt>
      <trkpt lat="47.65187" lon="6.85604">
        <ele>362.9</ele>
        <time>2021-08-10T08:07:19Z</time>
      </trkpt>
      <trkpt lat="47.65177" lon="6.85607">
        <ele>362.9</ele>
        <time>2021-08-10T08:07:21Z</time>
      </trkpt>
      <trkpt lat="47.65172" lon="6.85609">
        <ele>362.8</ele>
        <time>2021-08-10T08:07:22Z</time>
      </trkpt>
      <trkpt lat="47.65168" lon="6.85611">
        <ele>362.8</ele>
        <time>2021-08-10T08:07:23Z</time>
      </trkpt>
      <trkpt lat="47.65166" lon="6.85611">
        <ele>362.8</ele>
        <time>2021-08-10T08:07:24Z</time>
      </trkpt>
      <trkpt lat="47.65154" lon="6.85617">
        <ele>362.7</ele>
        <time>2021-08-10T08:07:26Z</time>
      </trkpt>
      <trkpt lat="47.65148" lon="6.85622">
        <ele>362.7</ele>
        <time>2021-08-10T08:07:27Z</time>
      </trkpt>
      <trkpt lat="47.65138" lon="6.85629">
        <ele>362.6</ele>
        <time>2021-08-10T08:07:29Z</time>
      </trkpt>
      <trkpt lat="47.65135" lon="6.85633">
        <ele>362.6</ele>
        <time>2021-08-10T08:07:30Z</time>
      </trkpt>
      <trkpt lat="47.65132" lon="6.8564">
        <ele>362.6</ele>
        <time>2021-08-10T08:07:31Z</time>
      </trkpt>
      <trkpt lat="47.65129" lon="6.85647">
        <ele>362.6</ele>
        <time>2021-08-10T08:07:33Z</time>
      </trkpt>
      <trkpt lat="47.65129" lon="6.85653">
        <ele>362.5</ele>
        <time>2021-08-10T08:07:34Z</time>
      </trkpt>
      <trkpt lat="47.65126" lon="6.85654">
        <ele>362.5</ele>
        <time>2021-08-10T08:07:35Z</time>
      </trkpt>
      <trkpt lat="47.65122" lon="6.85653">
        <ele>362.5</ele>
        <time>2021-08-10T08:07:37Z</time>
      </trkpt>
      <trkpt lat="47.65118" lon="6.85652">
        <ele>362.5</ele>
        <time>2021-08-10T08:07:38Z</time>
      </trkpt>
      <trkpt lat="47.65113" lon="6.85651">
        <ele>362.5</ele>
        <time>2021-08-10T08:07:40Z</time>
      </trkpt>
      <trkpt lat="47.65109" lon="6.8565">
        <ele>362.5</ele>
        <time>2021-08-10T08:07:41Z</time>
      </trkpt>
      <trkpt lat="47.65105" lon="6.85649">
        <ele>362.5</ele>
        <time>2021-08-10T08:07:42Z</time>
      </trkpt>
      <trkpt lat="47.65094" lon="6.85646">
        <ele>362.5</ele>
        <time>2021-08-10T08:07:44Z</time>
      </trkpt>
      <trkpt lat="47.65083" lon="6.85645">
        <ele>362.5</ele>
        <time>2021-08-10T08:07:45Z</time>
      </trkpt>
      <trkpt lat="47.65074" lon="6.85646">
        <ele>362.6</ele>
        <time>2021-08-10T08:07:46Z</time>
      </trkpt>
      <trkpt lat="47.65068" lon="6.85646">
        <ele>362.6</ele>
        <time>2021-08-10T08:07:48Z</time>
      </trkpt>
      <trkpt lat="47.65058" lon="6.85646">
        <ele>362.7</ele>
        <time>2021-08-10T08:07:49Z</time>
      </trkpt>
      <trkpt lat="47.65052" lon="6.85644">
        <ele>362.7</ele>
        <time>2021-08-10T08:07:50Z</time>
      </trkpt>
      <trkpt lat="47.65046" lon="6.85646">
        <ele>362.6</ele>
        <time>2021-08-10T08:07:51Z</time>
      </trkpt>
      <trkpt lat="47.65041" lon="6.85648">
        <ele>362.4</ele>
        <time>2021-08-10T08:07:53Z</time>
      </trkpt>
      <trkpt lat="47.65035" lon="6.85653">
        <ele>362.1</ele>
        <time>2021-08-10T08:07:54Z</time>
      </trkpt>
      <trkpt lat="47.65025" lon="6.85659">
        <ele>361.7</ele>
        <time>2021-08-10T08:07:56Z</time>
      </trkpt>
      <trkpt lat="47.65017" lon="6.85664">
        <ele>361.5</ele>
        <time>2021-08-10T08:07:58Z</time>
      </trkpt>
      <trkpt lat="47.65012" lon="6.85669">
        <ele>361.4</ele>
        <time>2021-08-10T08:07:59Z</time>
      </trkpt>
      <trkpt lat="47.65007" lon="6.85673">
        <ele>361.3</ele>
        <time>2021-08-10T08:08:00Z</time>
      </trkpt>
      <trkpt lat="47.64999" lon="6.85679">
        <ele>361.3</ele>
        <time>2021-08-10T08:08:02Z</time>
      </trkpt>
      <trkpt lat="47.64991" lon="6.85687">
        <ele>361.2</ele>
        <time>2021-08-10T08:08:04Z</time>
      </trkpt>
      <trkpt lat="47.64987" lon="6.85691">
        <ele>361.2</ele>
        <time>2021-08-10T08:08:05Z</time>
      </trkpt>
      <trkpt lat="47.6498" lon="6.857">
        <ele>361.2</ele>
        <time>2021-08-10T08:08:07Z</time>
      </trkpt>
      <trkpt lat="47.64972" lon="6.85709">
        <ele>361.2</ele>
        <time>2021-08-10T08:08:09Z</time>
      </trkpt>
      <trkpt lat="47.64966" lon="6.85716">
        <ele>361.1</ele>
        <time>2021-08-10T08:08:11Z</time>
      </trkpt>
      <trkpt lat="47.64964" lon="6.85721">
        <ele>361.1</ele>
        <time>2021-08-10T08:08:13Z</time>
      </trkpt>
      <trkpt lat="47.64962" lon="6.85724">
        <ele>361.1</ele>
        <time>2021-08-10T08:08:14Z</time>
      </trkpt>
      <trkpt lat="47.64954" lon="6.85735">
        <ele>361</ele>
        <time>2021-08-10T08:08:15Z</time>
      </trkpt>
      <trkpt lat="47.64946" lon="6.85745">
        <ele>360.9</ele>
        <time>2021-08-10T08:08:17Z</time>
      </trkpt>
      <trkpt lat="47.64942" lon="6.85749">
        <ele>360.9</ele>
        <time>2021-08-10T08:08:18Z</time>
      </trkpt>
      <trkpt lat="47.64939" lon="6.85755">
        <ele>360.9</ele>
        <time>2021-08-10T08:08:19Z</time>
      </trkpt>
      <trkpt lat="47.64935" lon="6.85761">
        <ele>360.8</ele>
        <time>2021-08-10T08:08:20Z</time>
      </trkpt>
      <trkpt lat="47.64931" lon="6.85766">
        <ele>360.8</ele>
        <time>2021-08-10T08:08:21Z</time>
      </trkpt>
      <trkpt lat="47.64925" lon="6.85776">
        <ele>360.7</ele>
        <time>2021-08-10T08:08:23Z</time>
      </trkpt>
      <trkpt lat="47.64922" lon="6.85782">
        <ele>360.7</ele>
        <time>2021-08-10T08:08:24Z</time>
      </trkpt>
      <trkpt lat="47.64916" lon="6.8579">
        <ele>360.7</ele>
        <time>2021-08-10T08:08:26Z</time>
      </trkpt>
      <trkpt lat="47.64912" lon="6.85797">
        <ele>360.6</ele>
        <time>2021-08-10T08:08:28Z</time>
      </trkpt>
      <trkpt lat="47.64909" lon="6.85803">
        <ele>360.6</ele>
        <time>2021-08-10T08:08:29Z</time>
      </trkpt>
      <trkpt lat="47.64906" lon="6.85807">
        <ele>360.6</ele>
        <time>2021-08-10T08:08:30Z</time>
      </trkpt>
      <trkpt lat="47.64903" lon="6.85812">
        <ele>360.6</ele>
        <time>2021-08-10T08:08:31Z</time>
      </trkpt>
      <trkpt lat="47.64899" lon="6.85818">
        <ele>360.6</ele>
        <time>2021-08-10T08:08:32Z</time>
      </trkpt>
      <trkpt lat="47.64894" lon="6.85822">
        <ele>360.5</ele>
        <time>2021-08-10T08:08:33Z</time>
      </trkpt>
      <trkpt lat="47.64889" lon="6.85826">
        <ele>360.5</ele>
        <time>2021-08-10T08:08:35Z</time>
      </trkpt>
      <trkpt lat="47.64882" lon="6.8583">
        <ele>360.5</ele>
        <time>2021-08-10T08:08:36Z</time>
      </trkpt>
      <trkpt lat="47.64876" lon="6.85834">
        <ele>360.4</ele>
        <time>2021-08-10T08:08:37Z</time>
      </trkpt>
      <trkpt lat="47.6487" lon="6.85837">
        <ele>360.4</ele>
        <time>2021-08-10T08:08:38Z</time>
      </trkpt>
      <trkpt lat="47.64862" lon="6.85839">
        <ele>360.4</ele>
        <time>2021-08-10T08:08:40Z</time>
      </trkpt>
      <trkpt lat="47.64856" lon="6.85842">
        <ele>360.3</ele>
        <time>2021-08-10T08:08:41Z</time>
      </trkpt>
      <trkpt lat="47.64851" lon="6.85845">
        <ele>360.3</ele>
        <time>2021-08-10T08:08:42Z</time>
      </trkpt>
      <trkpt lat="47.64841" lon="6.8585">
        <ele>360.3</ele>
        <time>2021-08-10T08:08:44Z</time>
      </trkpt>
      <trkpt lat="47.64836" lon="6.85852">
        <ele>360.2</ele>
        <time>2021-08-10T08:08:45Z</time>
      </trkpt>
      <trkpt lat="47.64827" lon="6.85857">
        <ele>360.2</ele>
        <time>2021-08-10T08:08:47Z</time>
      </trkpt>
      <trkpt lat="47.64823" lon="6.8586">
        <ele>360.2</ele>
        <time>2021-08-10T08:08:48Z</time>
      </trkpt>
      <trkpt lat="47.64819" lon="6.85858">
        <ele>360.2</ele>
        <time>2021-08-10T08:08:49Z</time>
      </trkpt>
      <trkpt lat="47.64812" lon="6.85863">
        <ele>360.2</ele>
        <time>2021-08-10T08:08:51Z</time>
      </trkpt>
      <trkpt lat="47.64805" lon="6.85868">
        <ele>360.2</ele>
        <time>2021-08-10T08:08:53Z</time>
      </trkpt>
      <trkpt lat="47.648" lon="6.85872">
        <ele>360.1</ele>
        <time>2021-08-10T08:08:54Z</time>
      </trkpt>
      <trkpt lat="47.64796" lon="6.85876">
        <ele>360.1</ele>
        <time>2021-08-10T08:08:55Z</time>
      </trkpt>
      <trkpt lat="47.64792" lon="6.8588">
        <ele>360.1</ele>
        <time>2021-08-10T08:08:56Z</time>
      </trkpt>
      <trkpt lat="47.64787" lon="6.85886">
        <ele>360.1</ele>
        <time>2021-08-10T08:08:57Z</time>
      </trkpt>
      <trkpt lat="47.64782" lon="6.8589">
        <ele>360.1</ele>
        <time>2021-08-10T08:08:59Z</time>
      </trkpt>
      <trkpt lat="47.64779" lon="6.85892">
        <ele>360.1</ele>
        <time>2021-08-10T08:09:00Z</time>
      </trkpt>
      <trkpt lat="47.64773" lon="6.85895">
        <ele>360.1</ele>
        <time>2021-08-10T08:09:02Z</time>
      </trkpt>
      <trkpt lat="47.64767" lon="6.85898">
        <ele>360.1</ele>
        <time>2021-08-10T08:09:04Z</time>
      </trkpt>
      <trkpt lat="47.64764" lon="6.859">
        <ele>360.1</ele>
        <time>2021-08-10T08:09:05Z</time>
      </trkpt>
      <trkpt lat="47.64761" lon="6.85902">
        <ele>360.1</ele>
        <time>2021-08-10T08:09:06Z</time>
      </trkpt>
      <trkpt lat="47.64755" lon="6.85902">
        <ele>360.1</ele>
        <time>2021-08-10T08:09:08Z</time>
      </trkpt>
      <trkpt lat="47.64751" lon="6.85903">
        <ele>360.1</ele>
        <time>2021-08-10T08:09:09Z</time>
      </trkpt>
      <trkpt lat="47.64744" lon="6.85904">
        <ele>360.1</ele>
        <time>2021-08-10T08:09:11Z</time>
      </trkpt>
      <trkpt lat="47.64741" lon="6.85905">
        <ele>360.1</ele>
        <time>2021-08-10T08:09:12Z</time>
      </trkpt>
      <trkpt lat="47.64734" lon="6.85909">
        <ele>360.1</ele>
        <time>2021-08-10T08:09:14Z</time>
      </trkpt>
      <trkpt lat="47.64731" lon="6.85911">
        <ele>360.1</ele>
        <time>2021-08-10T08:09:15Z</time>
      </trkpt>
      <trkpt lat="47.64726" lon="6.85916">
        <ele>360.1</ele>
        <time>2021-08-10T08:09:17Z</time>
      </trkpt>
      <trkpt lat="47.6472" lon="6.85921">
        <ele>360.1</ele>
        <time>2021-08-10T08:09:19Z</time>
      </trkpt>
      <trkpt lat="47.64715" lon="6.85925">
        <ele>360</ele>
        <time>2021-08-10T08:09:20Z</time>
      </trkpt>
      <trkpt lat="47.64711" lon="6.85928">
        <ele>360</ele>
        <time>2021-08-10T08:09:21Z</time>
      </trkpt>
      <trkpt lat="47.64704" lon="6.85931">
        <ele>359.9</ele>
        <time>2021-08-10T08:09:23Z</time>
      </trkpt>
      <trkpt lat="47.64692" lon="6.85936">
        <ele>359.9</ele>
        <time>2021-08-10T08:09:25Z</time>
      </trkpt>
      <trkpt lat="47.64687" lon="6.85938">
        <ele>359.9</ele>
        <time>2021-08-10T08:09:26Z</time>
      </trkpt>
      <trkpt lat="47.64683" lon="6.8594">
        <ele>359.9</ele>
        <time>2021-08-10T08:09:27Z</time>
      </trkpt>
      <trkpt lat="47.64684" lon="6.85941">
        <ele>359.9</ele>
        <time>2021-08-10T08:09:28Z</time>
      </trkpt>
      <trkpt lat="47.64676" lon="6.85943">
        <ele>359.9</ele>
        <time>2021-08-10T08:09:30Z</time>
      </trkpt>
      <trkpt lat="47.64667" lon="6.85948">
        <ele>359.9</ele>
        <time>2021-08-10T08:09:31Z</time>
      </trkpt>
      <trkpt lat="47.6466" lon="6.85954">
        <ele>359.9</ele>
        <time>2021-08-10T08:09:33Z</time>
      </trkpt>
      <trkpt lat="47.64655" lon="6.85959">
        <ele>359.9</ele>
        <time>2021-08-10T08:09:35Z</time>
      </trkpt>
      <trkpt lat="47.64651" lon="6.85963">
        <ele>359.9</ele>
        <time>2021-08-10T08:09:36Z</time>
      </trkpt>
      <trkpt lat="47.64647" lon="6.85966">
        <ele>359.9</ele>
        <time>2021-08-10T08:09:38Z</time>
      </trkpt>
      <trkpt lat="47.64643" lon="6.85971">
        <ele>359.9</ele>
        <time>2021-08-10T08:09:39Z</time>
      </trkpt>
      <trkpt lat="47.6464" lon="6.85973">
        <ele>359.9</ele>
        <time>2021-08-10T08:09:41Z</time>
      </trkpt>
      <trkpt lat="47.64636" lon="6.85975">
        <ele>359.8</ele>
        <time>2021-08-10T08:09:42Z</time>
      </trkpt>
      <trkpt lat="47.64628" lon="6.85979">
        <ele>359.8</ele>
        <time>2021-08-10T08:09:44Z</time>
      </trkpt>
      <trkpt lat="47.64621" lon="6.85983">
        <ele>359.8</ele>
        <time>2021-08-10T08:09:45Z</time>
      </trkpt>
      <trkpt lat="47.64615" lon="6.85986">
        <ele>359.8</ele>
        <time>2021-08-10T08:09:46Z</time>
      </trkpt>
      <trkpt lat="47.64609" lon="6.85989">
        <ele>359.7</ele>
        <time>2021-08-10T08:09:47Z</time>
      </trkpt>
      <trkpt lat="47.64602" lon="6.85992">
        <ele>359.7</ele>
        <time>2021-08-10T08:09:49Z</time>
      </trkpt>
      <trkpt lat="47.64585" lon="6.86003">
        <ele>359.7</ele>
        <time>2021-08-10T08:09:51Z</time>
      </trkpt>
      <trkpt lat="47.64578" lon="6.86012">
        <ele>359.6</ele>
        <time>2021-08-10T08:09:52Z</time>
      </trkpt>
      <trkpt lat="47.64573" lon="6.86012">
        <ele>359.6</ele>
        <time>2021-08-10T08:09:53Z</time>
      </trkpt>
      <trkpt lat="47.64565" lon="6.86013">
        <ele>359.6</ele>
        <time>2021-08-10T08:09:55Z</time>
      </trkpt>
      <trkpt lat="47.6456" lon="6.86016">
        <ele>359.6</ele>
        <time>2021-08-10T08:09:56Z</time>
      </trkpt>
      <trkpt lat="47.64555" lon="6.86019">
        <ele>359.5</ele>
        <time>2021-08-10T08:09:57Z</time>
      </trkpt>
      <trkpt lat="47.64548" lon="6.86023">
        <ele>359.5</ele>
        <time>2021-08-10T08:09:58Z</time>
      </trkpt>
      <trkpt lat="47.64543" lon="6.86024">
        <ele>359.5</ele>
        <time>2021-08-10T08:09:59Z</time>
      </trkpt>
      <trkpt lat="47.64537" lon="6.86025">
        <ele>359.5</ele>
        <time>2021-08-10T08:10:01Z</time>
      </trkpt>
      <trkpt lat="47.64532" lon="6.86026">
        <ele>359.5</ele>
        <time>2021-08-10T08:10:02Z</time>
      </trkpt>
      <trkpt lat="47.64518" lon="6.86033">
        <ele>359.5</ele>
        <time>2021-08-10T08:10:05Z</time>
      </trkpt>
      <trkpt lat="47.64514" lon="6.86032">
        <ele>359.5</ele>
        <time>2021-08-10T08:10:06Z</time>
      </trkpt>
      <trkpt lat="47.64506" lon="6.86035">
        <ele>359.5</ele>
        <time>2021-08-10T08:10:08Z</time>
      </trkpt>
      <trkpt lat="47.64501" lon="6.86038">
        <ele>359.5</ele>
        <time>2021-08-10T08:10:09Z</time>
      </trkpt>
      <trkpt lat="47.64491" lon="6.86041">
        <ele>359.5</ele>
        <time>2021-08-10T08:10:11Z</time>
      </trkpt>
      <trkpt lat="47.64484" lon="6.86043">
        <ele>359.5</ele>
        <time>2021-08-10T08:10:12Z</time>
      </trkpt>
      <trkpt lat="47.64477" lon="6.86046">
        <ele>359.5</ele>
        <time>2021-08-10T08:10:14Z</time>
      </trkpt>
      <trkpt lat="47.64471" lon="6.86047">
        <ele>359.5</ele>
        <time>2021-08-10T08:10:15Z</time>
      </trkpt>
      <trkpt lat="47.64461" lon="6.86052">
        <ele>359.6</ele>
        <time>2021-08-10T08:10:17Z</time>
      </trkpt>
      <trkpt lat="47.64457" lon="6.86053">
        <ele>359.6</ele>
        <time>2021-08-10T08:10:18Z</time>
      </trkpt>
      <trkpt lat="47.64452" lon="6.86054">
        <ele>359.6</ele>
        <time>2021-08-10T08:10:19Z</time>
      </trkpt>
      <trkpt lat="47.64447" lon="6.86057">
        <ele>359.6</ele>
        <time>2021-08-10T08:10:20Z</time>
      </trkpt>
      <trkpt lat="47.64443" lon="6.86059">
        <ele>359.6</ele>
        <time>2021-08-10T08:10:21Z</time>
      </trkpt>
      <trkpt lat="47.64438" lon="6.8606">
        <ele>359.6</ele>
        <time>2021-08-10T08:10:22Z</time>
      </trkpt>
      <trkpt lat="47.64433" lon="6.86061">
        <ele>359.6</ele>
        <time>2021-08-10T08:10:24Z</time>
      </trkpt>
      <trkpt lat="47.64427" lon="6.86063">
        <ele>359.6</ele>
        <time>2021-08-10T08:10:25Z</time>
      </trkpt>
      <trkpt lat="47.64423" lon="6.86065">
        <ele>359.6</ele>
        <time>2021-08-10T08:10:26Z</time>
      </trkpt>
      <trkpt lat="47.64419" lon="6.86067">
        <ele>359.7</ele>
        <time>2021-08-10T08:10:27Z</time>
      </trkpt>
      <trkpt lat="47.64415" lon="6.8607">
        <ele>359.7</ele>
        <time>2021-08-10T08:10:28Z</time>
      </trkpt>
      <trkpt lat="47.64411" lon="6.86073">
        <ele>359.7</ele>
        <time>2021-08-10T08:10:30Z</time>
      </trkpt>
      <trkpt lat="47.644" lon="6.86079">
        <ele>359.8</ele>
        <time>2021-08-10T08:10:32Z</time>
      </trkpt>
      <trkpt lat="47.64396" lon="6.86082">
        <ele>359.8</ele>
        <time>2021-08-10T08:10:33Z</time>
      </trkpt>
      <trkpt lat="47.6439" lon="6.8609">
        <ele>359.8</ele>
        <time>2021-08-10T08:10:34Z</time>
      </trkpt>
      <trkpt lat="47.64384" lon="6.86095">
        <ele>359.8</ele>
        <time>2021-08-10T08:10:36Z</time>
      </trkpt>
      <trkpt lat="47.6438" lon="6.861">
        <ele>359.8</ele>
        <time>2021-08-10T08:10:37Z</time>
      </trkpt>
      <trkpt lat="47.64377" lon="6.86106">
        <ele>359.8</ele>
        <time>2021-08-10T08:10:38Z</time>
      </trkpt>
      <trkpt lat="47.64374" lon="6.8611">
        <ele>359.8</ele>
        <time>2021-08-10T08:10:39Z</time>
      </trkpt>
      <trkpt lat="47.64371" lon="6.86114">
        <ele>359.9</ele>
        <time>2021-08-10T08:10:40Z</time>
      </trkpt>
      <trkpt lat="47.64368" lon="6.86117">
        <ele>359.9</ele>
        <time>2021-08-10T08:10:42Z</time>
      </trkpt>
      <trkpt lat="47.64366" lon="6.86119">
        <ele>359.9</ele>
        <time>2021-08-10T08:10:43Z</time>
      </trkpt>
      <trkpt lat="47.64363" lon="6.86121">
        <ele>359.9</ele>
        <time>2021-08-10T08:10:44Z</time>
      </trkpt>
      <trkpt lat="47.64362" lon="6.8612">
        <ele>359.9</ele>
        <time>2021-08-10T08:10:45Z</time>
      </trkpt>
      <trkpt lat="47.64359" lon="6.86121">
        <ele>359.9</ele>
        <time>2021-08-10T08:10:47Z</time>
      </trkpt>
      <trkpt lat="47.64359" lon="6.86119">
        <ele>359.9</ele>
        <time>2021-08-10T08:10:48Z</time>
      </trkpt>
      <trkpt lat="47.64358" lon="6.86118">
        <ele>359.9</ele>
        <time>2021-08-10T08:10:49Z</time>
      </trkpt>
      <trkpt lat="47.64356" lon="6.86117">
        <ele>359.9</ele>
        <time>2021-08-10T08:10:51Z</time>
      </trkpt>
      <trkpt lat="47.6435" lon="6.86116">
        <ele>359.9</ele>
        <time>2021-08-10T08:10:53Z</time>
      </trkpt>
      <trkpt lat="47.64342" lon="6.86114">
        <ele>359.9</ele>
        <time>2021-08-10T08:10:55Z</time>
      </trkpt>
      <trkpt lat="47.64338" lon="6.86112">
        <ele>359.9</ele>
        <time>2021-08-10T08:10:56Z</time>
      </trkpt>
      <trkpt lat="47.64331" lon="6.8611">
        <ele>359.9</ele>
        <time>2021-08-10T08:10:58Z</time>
      </trkpt>
      <trkpt lat="47.64327" lon="6.86111">
        <ele>359.8</ele>
        <time>2021-08-10T08:10:59Z</time>
      </trkpt>
      <trkpt lat="47.64318" lon="6.86113">
        <ele>359.8</ele>
        <time>2021-08-10T08:11:01Z</time>
      </trkpt>
      <trkpt lat="47.64308" lon="6.86114">
        <ele>359.7</ele>
        <time>2021-08-10T08:11:03Z</time>
      </trkpt>
      <trkpt lat="47.64303" lon="6.86115">
        <ele>359.7</ele>
        <time>2021-08-10T08:11:04Z</time>
      </trkpt>
      <trkpt lat="47.64299" lon="6.86116">
        <ele>359.7</ele>
        <time>2021-08-10T08:11:05Z</time>
      </trkpt>
      <trkpt lat="47.64294" lon="6.86118">
        <ele>359.7</ele>
        <time>2021-08-10T08:11:06Z</time>
      </trkpt>
      <trkpt lat="47.64289" lon="6.8612">
        <ele>359.8</ele>
        <time>2021-08-10T08:11:07Z</time>
      </trkpt>
      <trkpt lat="47.64284" lon="6.86122">
        <ele>359.7</ele>
        <time>2021-08-10T08:11:09Z</time>
      </trkpt>
      <trkpt lat="47.64278" lon="6.86124">
        <ele>359.7</ele>
        <time>2021-08-10T08:11:11Z</time>
      </trkpt>
      <trkpt lat="47.64277" lon="6.86128">
        <ele>359.8</ele>
        <time>2021-08-10T08:11:12Z</time>
      </trkpt>
      <trkpt lat="47.64277" lon="6.86131">
        <ele>360</ele>
        <time>2021-08-10T08:11:13Z</time>
      </trkpt>
      <trkpt lat="47.64277" lon="6.86133">
        <ele>360</ele>
        <time>2021-08-10T08:11:15Z</time>
      </trkpt>
      <trkpt lat="47.64277" lon="6.86134">
        <ele>360</ele>
        <time>2021-08-10T08:11:16Z</time>
      </trkpt>
      <trkpt lat="47.64278" lon="6.86135">
        <ele>360.2</ele>
        <time>2021-08-10T08:11:18Z</time>
      </trkpt>
      <trkpt lat="47.64278" lon="6.86136">
        <ele>360.2</ele>
        <time>2021-08-10T08:11:19Z</time>
      </trkpt>
      <trkpt lat="47.64278" lon="6.86136">
        <ele>360.2</ele>
        <time>2021-08-10T08:11:21Z</time>
      </trkpt>
      <trkpt lat="47.64293" lon="6.86078">
        <ele>359.5</ele>
        <time>2021-08-10T08:12:59Z</time>
      </trkpt>
      <trkpt lat="47.64292" lon="6.86077">
        <ele>359.5</ele>
        <time>2021-08-10T08:13:01Z</time>
      </trkpt>
      <trkpt lat="47.64292" lon="6.86076">
        <ele>359.5</ele>
        <time>2021-08-10T08:13:02Z</time>
      </trkpt>
      <trkpt lat="47.64293" lon="6.86074">
        <ele>359.6</ele>
        <time>2021-08-10T08:13:03Z</time>
      </trkpt>
      <trkpt lat="47.64294" lon="6.86073">
        <ele>359.6</ele>
        <time>2021-08-10T08:13:05Z</time>
      </trkpt>
      <trkpt lat="47.64294" lon="6.86074">
        <ele>359.6</ele>
        <time>2021-08-10T08:13:06Z</time>
      </trkpt>
      <trkpt lat="47.64294" lon="6.86076">
        <ele>359.6</ele>
        <time>2021-08-10T08:13:07Z</time>
      </trkpt>
      <trkpt lat="47.64292" lon="6.86082">
        <ele>359.5</ele>
        <time>2021-08-10T08:13:09Z</time>
      </trkpt>
      <trkpt lat="47.64291" lon="6.86085">
        <ele>359.5</ele>
        <time>2021-08-10T08:13:11Z</time>
      </trkpt>
      <trkpt lat="47.64291" lon="6.86086">
        <ele>359.5</ele>
        <time>2021-08-10T08:13:13Z</time>
      </trkpt>
      <trkpt lat="47.6429" lon="6.86087">
        <ele>359.5</ele>
        <time>2021-08-10T08:13:15Z</time>
      </trkpt>
      <trkpt lat="47.6429" lon="6.86088">
        <ele>359.5</ele>
        <time>2021-08-10T08:13:17Z</time>
      </trkpt>
      <trkpt lat="47.64296" lon="6.86101">
        <ele>359.7</ele>
        <time>2021-08-10T08:13:27Z</time>
      </trkpt>
      <trkpt lat="47.643" lon="6.8611">
        <ele>359.9</ele>
        <time>2021-08-10T08:13:29Z</time>
      </trkpt>
      <trkpt lat="47.64302" lon="6.86115">
        <ele>360</ele>
        <time>2021-08-10T08:13:30Z</time>
      </trkpt>
      <trkpt lat="47.64307" lon="6.86123">
        <ele>360.2</ele>
        <time>2021-08-10T08:13:31Z</time>
      </trkpt>
      <trkpt lat="47.6431" lon="6.86128">
        <ele>360.4</ele>
        <time>2021-08-10T08:13:33Z</time>
      </trkpt>
      <trkpt lat="47.64312" lon="6.86133">
        <ele>360.5</ele>
        <time>2021-08-10T08:13:34Z</time>
      </trkpt>
      <trkpt lat="47.64314" lon="6.86138">
        <ele>360.6</ele>
        <time>2021-08-10T08:13:35Z</time>
      </trkpt>
      <trkpt lat="47.64315" lon="6.86143">
        <ele>360.7</ele>
        <time>2021-08-10T08:13:36Z</time>
      </trkpt>
      <trkpt lat="47.64316" lon="6.86148">
        <ele>360.9</ele>
        <time>2021-08-10T08:13:37Z</time>
      </trkpt>
      <trkpt lat="47.64316" lon="6.86155">
        <ele>361</ele>
        <time>2021-08-10T08:13:38Z</time>
      </trkpt>
      <trkpt lat="47.64316" lon="6.86164">
        <ele>361.3</ele>
        <time>2021-08-10T08:13:40Z</time>
      </trkpt>
      <trkpt lat="47.64315" lon="6.8617">
        <ele>361.7</ele>
        <time>2021-08-10T08:13:41Z</time>
      </trkpt>
      <trkpt lat="47.64313" lon="6.86177">
        <ele>361.9</ele>
        <time>2021-08-10T08:13:42Z</time>
      </trkpt>
      <trkpt lat="47.6431" lon="6.86182">
        <ele>362.3</ele>
        <time>2021-08-10T08:13:43Z</time>
      </trkpt>
      <trkpt lat="47.64306" lon="6.86187">
        <ele>362.5</ele>
        <time>2021-08-10T08:13:45Z</time>
      </trkpt>
      <trkpt lat="47.64303" lon="6.8619">
        <ele>362.6</ele>
        <time>2021-08-10T08:13:46Z</time>
      </trkpt>
      <trkpt lat="47.64298" lon="6.8619">
        <ele>362.6</ele>
        <time>2021-08-10T08:13:47Z</time>
      </trkpt>
      <trkpt lat="47.64292" lon="6.8619">
        <ele>362.6</ele>
        <time>2021-08-10T08:13:49Z</time>
      </trkpt>
      <trkpt lat="47.64285" lon="6.86193">
        <ele>362.8</ele>
        <time>2021-08-10T08:13:50Z</time>
      </trkpt>
      <trkpt lat="47.6428" lon="6.86197">
        <ele>363.1</ele>
        <time>2021-08-10T08:13:52Z</time>
      </trkpt>
      <trkpt lat="47.64277" lon="6.86201">
        <ele>363.3</ele>
        <time>2021-08-10T08:13:53Z</time>
      </trkpt>
      <trkpt lat="47.64274" lon="6.86205">
        <ele>363.6</ele>
        <time>2021-08-10T08:13:54Z</time>
      </trkpt>
      <trkpt lat="47.64268" lon="6.8621">
        <ele>363.8</ele>
        <time>2021-08-10T08:13:55Z</time>
      </trkpt>
      <trkpt lat="47.64264" lon="6.86214">
        <ele>364</ele>
        <time>2021-08-10T08:13:57Z</time>
      </trkpt>
      <trkpt lat="47.64261" lon="6.86215">
        <ele>364</ele>
        <time>2021-08-10T08:13:58Z</time>
      </trkpt>
      <trkpt lat="47.64257" lon="6.86217">
        <ele>364.2</ele>
        <time>2021-08-10T08:13:59Z</time>
      </trkpt>
      <trkpt lat="47.64251" lon="6.8622">
        <ele>364.1</ele>
        <time>2021-08-10T08:14:01Z</time>
      </trkpt>
      <trkpt lat="47.64246" lon="6.86221">
        <ele>364.2</ele>
        <time>2021-08-10T08:14:02Z</time>
      </trkpt>
      <trkpt lat="47.64243" lon="6.86221">
        <ele>363.9</ele>
        <time>2021-08-10T08:14:03Z</time>
      </trkpt>
      <trkpt lat="47.64239" lon="6.86221">
        <ele>364.1</ele>
        <time>2021-08-10T08:14:05Z</time>
      </trkpt>
      <trkpt lat="47.64236" lon="6.86223">
        <ele>364</ele>
        <time>2021-08-10T08:14:06Z</time>
      </trkpt>
      <trkpt lat="47.64231" lon="6.86227">
        <ele>364.1</ele>
        <time>2021-08-10T08:14:07Z</time>
      </trkpt>
      <trkpt lat="47.64226" lon="6.8623">
        <ele>364.1</ele>
        <time>2021-08-10T08:14:09Z</time>
      </trkpt>
      <trkpt lat="47.64218" lon="6.86234">
        <ele>364.1</ele>
        <time>2021-08-10T08:14:11Z</time>
      </trkpt>
      <trkpt lat="47.64214" lon="6.86236">
        <ele>363.9</ele>
        <time>2021-08-10T08:14:12Z</time>
      </trkpt>
      <trkpt lat="47.64209" lon="6.86238">
        <ele>363.7</ele>
        <time>2021-08-10T08:14:13Z</time>
      </trkpt>
      <trkpt lat="47.64196" lon="6.86239">
        <ele>363.3</ele>
        <time>2021-08-10T08:14:15Z</time>
      </trkpt>
      <trkpt lat="47.64188" lon="6.86242">
        <ele>362.8</ele>
        <time>2021-08-10T08:14:17Z</time>
      </trkpt>
      <trkpt lat="47.64184" lon="6.86244">
        <ele>362.9</ele>
        <time>2021-08-10T08:14:18Z</time>
      </trkpt>
      <trkpt lat="47.6418" lon="6.86244">
        <ele>362.8</ele>
        <time>2021-08-10T08:14:19Z</time>
      </trkpt>
      <trkpt lat="47.64176" lon="6.86241">
        <ele>362.4</ele>
        <time>2021-08-10T08:14:21Z</time>
      </trkpt>
      <trkpt lat="47.64167" lon="6.86241">
        <ele>362.1</ele>
        <time>2021-08-10T08:14:23Z</time>
      </trkpt>
      <trkpt lat="47.64163" lon="6.86241">
        <ele>362.1</ele>
        <time>2021-08-10T08:14:24Z</time>
      </trkpt>
      <trkpt lat="47.64158" lon="6.86242">
        <ele>361.9</ele>
        <time>2021-08-10T08:14:25Z</time>
      </trkpt>
      <trkpt lat="47.64154" lon="6.86242">
        <ele>361.9</ele>
        <time>2021-08-10T08:14:26Z</time>
      </trkpt>
      <trkpt lat="47.64149" lon="6.86241">
        <ele>361.7</ele>
        <time>2021-08-10T08:14:27Z</time>
      </trkpt>
      <trkpt lat="47.64142" lon="6.86242">
        <ele>361.5</ele>
        <time>2021-08-10T08:14:29Z</time>
      </trkpt>
      <trkpt lat="47.64136" lon="6.86241">
        <ele>361.3</ele>
        <time>2021-08-10T08:14:31Z</time>
      </trkpt>
      <trkpt lat="47.6413" lon="6.8624">
        <ele>361.2</ele>
        <time>2021-08-10T08:14:33Z</time>
      </trkpt>
      <trkpt lat="47.64125" lon="6.8624">
        <ele>361.1</ele>
        <time>2021-08-10T08:14:35Z</time>
      </trkpt>
      <trkpt lat="47.64122" lon="6.86238">
        <ele>361.1</ele>
        <time>2021-08-10T08:14:36Z</time>
      </trkpt>
      <trkpt lat="47.64121" lon="6.86237">
        <ele>361</ele>
        <time>2021-08-10T08:14:37Z</time>
      </trkpt>
      <trkpt lat="47.64118" lon="6.86237">
        <ele>360.9</ele>
        <time>2021-08-10T08:14:38Z</time>
      </trkpt>
      <trkpt lat="47.64117" lon="6.86238">
        <ele>360.9</ele>
        <time>2021-08-10T08:14:39Z</time>
      </trkpt>
      <trkpt lat="47.64116" lon="6.86237">
        <ele>360.9</ele>
        <time>2021-08-10T08:14:41Z</time>
      </trkpt>
      <trkpt lat="47.64114" lon="6.86237">
        <ele>360.9</ele>
        <time>2021-08-10T08:14:42Z</time>
      </trkpt>
      <trkpt lat="47.64112" lon="6.86238">
        <ele>360.9</ele>
        <time>2021-08-10T08:14:43Z</time>
      </trkpt>
      <trkpt lat="47.64111" lon="6.86238">
        <ele>360.9</ele>
        <time>2021-08-10T08:14:44Z</time>
      </trkpt>
      <trkpt lat="47.64105" lon="6.8624">
        <ele>360.8</ele>
        <time>2021-08-10T08:14:46Z</time>
      </trkpt>
      <trkpt lat="47.64097" lon="6.86242">
        <ele>360.7</ele>
        <time>2021-08-10T08:14:47Z</time>
      </trkpt>
      <trkpt lat="47.64093" lon="6.86243">
        <ele>360.7</ele>
        <time>2021-08-10T08:14:48Z</time>
      </trkpt>
      <trkpt lat="47.64087" lon="6.86246">
        <ele>360.7</ele>
        <time>2021-08-10T08:14:50Z</time>
      </trkpt>
      <trkpt lat="47.64078" lon="6.8625">
        <ele>360.6</ele>
        <time>2021-08-10T08:14:51Z</time>
      </trkpt>
      <trkpt lat="47.64071" lon="6.86254">
        <ele>360.5</ele>
        <time>2021-08-10T08:14:52Z</time>
      </trkpt>
      <trkpt lat="47.64064" lon="6.86257">
        <ele>360.5</ele>
        <time>2021-08-10T08:14:53Z</time>
      </trkpt>
      <trkpt lat="47.64059" lon="6.86258">
        <ele>360.5</ele>
        <time>2021-08-10T08:14:54Z</time>
      </trkpt>
      <trkpt lat="47.64053" lon="6.86258">
        <ele>360.5</ele>
        <time>2021-08-10T08:14:56Z</time>
      </trkpt>
      <trkpt lat="47.64048" lon="6.86259">
        <ele>360.6</ele>
        <time>2021-08-10T08:14:57Z</time>
      </trkpt>
      <trkpt lat="47.64044" lon="6.86258">
        <ele>360.6</ele>
        <time>2021-08-10T08:14:58Z</time>
      </trkpt>
      <trkpt lat="47.6404" lon="6.86258">
        <ele>360.7</ele>
        <time>2021-08-10T08:14:59Z</time>
      </trkpt>
      <trkpt lat="47.64037" lon="6.86257">
        <ele>360.7</ele>
        <time>2021-08-10T08:15:01Z</time>
      </trkpt>
      <trkpt lat="47.64035" lon="6.86256">
        <ele>360.7</ele>
        <time>2021-08-10T08:15:02Z</time>
      </trkpt>
      <trkpt lat="47.64031" lon="6.86257">
        <ele>360.8</ele>
        <time>2021-08-10T08:15:04Z</time>
      </trkpt>
      <trkpt lat="47.64029" lon="6.86259">
        <ele>360.8</ele>
        <time>2021-08-10T08:15:05Z</time>
      </trkpt>
      <trkpt lat="47.64029" lon="6.86261">
        <ele>360.8</ele>
        <time>2021-08-10T08:15:07Z</time>
      </trkpt>
      <trkpt lat="47.64029" lon="6.86267">
        <ele>360.8</ele>
        <time>2021-08-10T08:15:08Z</time>
      </trkpt>
      <trkpt lat="47.64029" lon="6.86269">
        <ele>360.8</ele>
        <time>2021-08-10T08:15:09Z</time>
      </trkpt>
      <trkpt lat="47.64029" lon="6.86277">
        <ele>360.7</ele>
        <time>2021-08-10T08:15:10Z</time>
      </trkpt>
      <trkpt lat="47.6403" lon="6.86284">
        <ele>360.7</ele>
        <time>2021-08-10T08:15:13Z</time>
      </trkpt>
      <trkpt lat="47.6403" lon="6.86287">
        <ele>360.6</ele>
        <time>2021-08-10T08:15:15Z</time>
      </trkpt>
      <trkpt lat="47.64029" lon="6.86289">
        <ele>360.7</ele>
        <time>2021-08-10T08:15:16Z</time>
      </trkpt>
      <trkpt lat="47.64029" lon="6.86291">
        <ele>360.6</ele>
        <time>2021-08-10T08:15:17Z</time>
      </trkpt>
      <trkpt lat="47.64026" lon="6.86293">
        <ele>360.7</ele>
        <time>2021-08-10T08:15:19Z</time>
      </trkpt>
      <trkpt lat="47.64021" lon="6.86294">
        <ele>360.6</ele>
        <time>2021-08-10T08:15:20Z</time>
      </trkpt>
      <trkpt lat="47.64018" lon="6.86297">
        <ele>360.7</ele>
        <time>2021-08-10T08:15:22Z</time>
      </trkpt>
      <trkpt lat="47.64014" lon="6.86301">
        <ele>360.7</ele>
        <time>2021-08-10T08:15:23Z</time>
      </trkpt>
      <trkpt lat="47.64011" lon="6.86304">
        <ele>360.7</ele>
        <time>2021-08-10T08:15:25Z</time>
      </trkpt>
      <trkpt lat="47.64007" lon="6.86307">
        <ele>360.6</ele>
        <time>2021-08-10T08:15:26Z</time>
      </trkpt>
      <trkpt lat="47.64001" lon="6.86309">
        <ele>360.7</ele>
        <time>2021-08-10T08:15:28Z</time>
      </trkpt>
      <trkpt lat="47.63998" lon="6.86309">
        <ele>360.7</ele>
        <time>2021-08-10T08:15:29Z</time>
      </trkpt>
      <trkpt lat="47.63993" lon="6.86308">
        <ele>360.8</ele>
        <time>2021-08-10T08:15:31Z</time>
      </trkpt>
      <trkpt lat="47.63991" lon="6.86313">
        <ele>360.7</ele>
        <time>2021-08-10T08:15:33Z</time>
      </trkpt>
      <trkpt lat="47.63991" lon="6.86316">
        <ele>360.7</ele>
        <time>2021-08-10T08:15:34Z</time>
      </trkpt>
      <trkpt lat="47.6399" lon="6.8632">
        <ele>360.6</ele>
        <time>2021-08-10T08:15:36Z</time>
      </trkpt>
      <trkpt lat="47.63989" lon="6.86322">
        <ele>360.6</ele>
        <time>2021-08-10T08:15:37Z</time>
      </trkpt>
      <trkpt lat="47.63985" lon="6.86325">
        <ele>360.6</ele>
        <time>2021-08-10T08:15:38Z</time>
      </trkpt>
      <trkpt lat="47.63979" lon="6.8633">
        <ele>360.5</ele>
        <time>2021-08-10T08:15:40Z</time>
      </trkpt>
      <trkpt lat="47.63975" lon="6.86333">
        <ele>360.4</ele>
        <time>2021-08-10T08:15:41Z</time>
      </trkpt>
      <trkpt lat="47.6397" lon="6.86336">
        <ele>360.4</ele>
        <time>2021-08-10T08:15:42Z</time>
      </trkpt>
      <trkpt lat="47.63966" lon="6.86339">
        <ele>360.5</ele>
        <time>2021-08-10T08:15:43Z</time>
      </trkpt>
      <trkpt lat="47.63963" lon="6.86339">
        <ele>360.5</ele>
        <time>2021-08-10T08:15:44Z</time>
      </trkpt>
      <trkpt lat="47.63961" lon="6.8634">
        <ele>360.5</ele>
        <time>2021-08-10T08:15:45Z</time>
      </trkpt>
      <trkpt lat="47.6396" lon="6.86342">
        <ele>360.5</ele>
        <time>2021-08-10T08:15:46Z</time>
      </trkpt>
      <trkpt lat="47.63961" lon="6.86343">
        <ele>360.5</ele>
        <time>2021-08-10T08:15:47Z</time>
      </trkpt>
      <trkpt lat="47.63962" lon="6.86343">
        <ele>360.5</ele>
        <time>2021-08-10T08:15:48Z</time>
      </trkpt>
      <trkpt lat="47.63963" lon="6.86344">
        <ele>360.5</ele>
        <time>2021-08-10T08:15:49Z</time>
      </trkpt>
      <trkpt lat="47.63961" lon="6.86344">
        <ele>360.5</ele>
        <time>2021-08-10T08:15:50Z</time>
      </trkpt>
      <trkpt lat="47.63957" lon="6.86344">
        <ele>360.6</ele>
        <time>2021-08-10T08:15:52Z</time>
      </trkpt>
      <trkpt lat="47.63954" lon="6.86343">
        <ele>360.6</ele>
        <time>2021-08-10T08:15:53Z</time>
      </trkpt>
      <trkpt lat="47.63951" lon="6.86343">
        <ele>360.6</ele>
        <time>2021-08-10T08:15:55Z</time>
      </trkpt>
      <trkpt lat="47.63947" lon="6.86343">
        <ele>360.6</ele>
        <time>2021-08-10T08:15:57Z</time>
      </trkpt>
      <trkpt lat="47.63944" lon="6.86343">
        <ele>360.6</ele>
        <time>2021-08-10T08:16:13Z</time>
      </trkpt>
      <trkpt lat="47.6394" lon="6.86342">
        <ele>360.7</ele>
        <time>2021-08-10T08:16:14Z</time>
      </trkpt>
      <trkpt lat="47.63934" lon="6.8634">
        <ele>360.7</ele>
        <time>2021-08-10T08:16:15Z</time>
      </trkpt>
      <trkpt lat="47.63923" lon="6.86338">
        <ele>360.8</ele>
        <time>2021-08-10T08:16:16Z</time>
      </trkpt>
      <trkpt lat="47.63914" lon="6.86336">
        <ele>360.8</ele>
        <time>2021-08-10T08:16:18Z</time>
      </trkpt>
      <trkpt lat="47.63908" lon="6.86334">
        <ele>360.8</ele>
        <time>2021-08-10T08:16:20Z</time>
      </trkpt>
      <trkpt lat="47.639" lon="6.86335">
        <ele>360.9</ele>
        <time>2021-08-10T08:16:21Z</time>
      </trkpt>
      <trkpt lat="47.63898" lon="6.86336">
        <ele>360.9</ele>
        <time>2021-08-10T08:16:23Z</time>
      </trkpt>
      <trkpt lat="47.63897" lon="6.86336">
        <ele>360.9</ele>
        <time>2021-08-10T08:16:25Z</time>
      </trkpt>
      <trkpt lat="47.63897" lon="6.86336">
        <ele>360.9</ele>
        <time>2021-08-10T08:16:27Z</time>
      </trkpt>
      <trkpt lat="47.63896" lon="6.86336">
        <ele>360.9</ele>
        <time>2021-08-10T08:16:28Z</time>
      </trkpt>
      <trkpt lat="47.63899" lon="6.86332">
        <ele>360.9</ele>
        <time>2021-08-10T08:17:21Z</time>
      </trkpt>
      <trkpt lat="47.63899" lon="6.86331">
        <ele>360.9</ele>
        <time>2021-08-10T08:17:27Z</time>
      </trkpt>
      <trkpt lat="47.63899" lon="6.86331">
        <ele>360.9</ele>
        <time>2021-08-10T08:17:34Z</time>
      </trkpt>
      <trkpt lat="47.639" lon="6.86331">
        <ele>360.9</ele>
        <time>2021-08-10T08:17:40Z</time>
      </trkpt>
      <trkpt lat="47.63899" lon="6.86331">
        <ele>360.9</ele>
        <time>2021-08-10T08:17:47Z</time>
      </trkpt>
      <trkpt lat="47.63899" lon="6.86331">
        <ele>360.9</ele>
        <time>2021-08-10T08:17:53Z</time>
      </trkpt>
      <trkpt lat="47.639" lon="6.86331">
        <ele>360.9</ele>
        <time>2021-08-10T08:18:00Z</time>
      </trkpt>
      <trkpt lat="47.639" lon="6.86331">
        <ele>360.9</ele>
        <time>2021-08-10T08:18:06Z</time>
      </trkpt>
      <trkpt lat="47.639" lon="6.86331">
        <ele>360.9</ele>
        <time>2021-08-10T08:18:12Z</time>
      </trkpt>
      <trkpt lat="47.63899" lon="6.86331">
        <ele>360.9</ele>
        <time>2021-08-10T08:18:19Z</time>
      </trkpt>
      <trkpt lat="47.639" lon="6.86331">
        <ele>360.9</ele>
        <time>2021-08-10T08:18:25Z</time>
      </trkpt>
      <trkpt lat="47.639" lon="6.86331">
        <ele>360.9</ele>
        <time>2021-08-10T08:18:31Z</time>
      </trkpt>
      <trkpt lat="47.639" lon="6.86331">
        <ele>360.9</ele>
        <time>2021-08-10T08:18:38Z</time>
      </trkpt>
      <trkpt lat="47.63898" lon="6.86331">
        <ele>360.9</ele>
        <time>2021-08-10T08:18:44Z</time>
      </trkpt>
      <trkpt lat="47.639" lon="6.86331">
        <ele>360.9</ele>
        <time>2021-08-10T08:18:51Z</time>
      </trkpt>
      <trkpt lat="47.639" lon="6.86331">
        <ele>360.9</ele>
        <time>2021-08-10T08:18:57Z</time>
      </trkpt>
      <trkpt lat="47.639" lon="6.86331">
        <ele>360.9</ele>
        <time>2021-08-10T08:19:04Z</time>
      </trkpt>
      <trkpt lat="47.63903" lon="6.86331">
        <ele>360.9</ele>
        <time>2021-08-10T08:19:10Z</time>
      </trkpt>
      <trkpt lat="47.63905" lon="6.86332">
        <ele>360.9</ele>
        <time>2021-08-10T08:19:14Z</time>
      </trkpt>
      <trkpt lat="47.63904" lon="6.86334">
        <ele>360.9</ele>
        <time>2021-08-10T08:19:16Z</time>
      </trkpt>
      <trkpt lat="47.63905" lon="6.86335">
        <ele>360.9</ele>
        <time>2021-08-10T08:19:17Z</time>
      </trkpt>
      <trkpt lat="47.63906" lon="6.86335">
        <ele>360.9</ele>
        <time>2021-08-10T08:19:19Z</time>
      </trkpt>
      <trkpt lat="47.63906" lon="6.86336">
        <ele>360.9</ele>
        <time>2021-08-10T08:19:20Z</time>
      </trkpt>
      <trkpt lat="47.63906" lon="6.86336">
        <ele>360.9</ele>
        <time>2021-08-10T08:19:22Z</time>
      </trkpt>
      <trkpt lat="47.63907" lon="6.86337">
        <ele>360.9</ele>
        <time>2021-08-10T08:19:24Z</time>
      </trkpt>
      <trkpt lat="47.63896" lon="6.86352">
        <ele>360.9</ele>
        <time>2021-08-10T08:20:28Z</time>
      </trkpt>
      <trkpt lat="47.63892" lon="6.86353">
        <ele>360.9</ele>
        <time>2021-08-10T08:20:29Z</time>
      </trkpt>
      <trkpt lat="47.63885" lon="6.86348">
        <ele>361</ele>
        <time>2021-08-10T08:20:31Z</time>
      </trkpt>
      <trkpt lat="47.63878" lon="6.86344">
        <ele>361</ele>
        <time>2021-08-10T08:20:33Z</time>
      </trkpt>
      <trkpt lat="47.63875" lon="6.86342">
        <ele>361</ele>
        <time>2021-08-10T08:20:34Z</time>
      </trkpt>
      <trkpt lat="47.63872" lon="6.8634">
        <ele>360.9</ele>
        <time>2021-08-10T08:20:35Z</time>
      </trkpt>
      <trkpt lat="47.63868" lon="6.86339">
        <ele>360.9</ele>
        <time>2021-08-10T08:20:36Z</time>
      </trkpt>
      <trkpt lat="47.63863" lon="6.86334">
        <ele>360.9</ele>
        <time>2021-08-10T08:20:38Z</time>
      </trkpt>
      <trkpt lat="47.6386" lon="6.86332">
        <ele>360.9</ele>
        <time>2021-08-10T08:20:40Z</time>
      </trkpt>
      <trkpt lat="47.63859" lon="6.86332">
        <ele>360.9</ele>
        <time>2021-08-10T08:20:41Z</time>
      </trkpt>
      <trkpt lat="47.63856" lon="6.86331">
        <ele>360.8</ele>
        <time>2021-08-10T08:20:43Z</time>
      </trkpt>
      <trkpt lat="47.63853" lon="6.86331">
        <ele>360.8</ele>
        <time>2021-08-10T08:20:44Z</time>
      </trkpt>
      <trkpt lat="47.63852" lon="6.86331">
        <ele>360.8</ele>
        <time>2021-08-10T08:20:46Z</time>
      </trkpt>
      <trkpt lat="47.63849" lon="6.86333">
        <ele>360.8</ele>
        <time>2021-08-10T08:20:47Z</time>
      </trkpt>
      <trkpt lat="47.63847" lon="6.86335">
        <ele>360.8</ele>
        <time>2021-08-10T08:20:49Z</time>
      </trkpt>
      <trkpt lat="47.63847" lon="6.86335">
        <ele>360.8</ele>
        <time>2021-08-10T08:20:49Z</time>
      </trkpt>
      <trkpt lat="47.63846" lon="6.86337">
        <ele>360.8</ele>
        <time>2021-08-10T08:20:50Z</time>
      </trkpt>
      <trkpt lat="47.63846" lon="6.86336">
        <ele>360.8</ele>
        <time>2021-08-10T08:20:51Z</time>
      </trkpt>
      <trkpt lat="47.63847" lon="6.86332">
        <ele>360.8</ele>
        <time>2021-08-10T08:20:53Z</time>
      </trkpt>
      <trkpt lat="47.63846" lon="6.86324">
        <ele>360.7</ele>
        <time>2021-08-10T08:20:55Z</time>
      </trkpt>
      <trkpt lat="47.63844" lon="6.86318">
        <ele>360.6</ele>
        <time>2021-08-10T08:20:56Z</time>
      </trkpt>
      <trkpt lat="47.63843" lon="6.86313">
        <ele>360.6</ele>
        <time>2021-08-10T08:20:57Z</time>
      </trkpt>
      <trkpt lat="47.63841" lon="6.86308">
        <ele>360.6</ele>
        <time>2021-08-10T08:20:58Z</time>
      </trkpt>
      <trkpt lat="47.63838" lon="6.86303">
        <ele>360.6</ele>
        <time>2021-08-10T08:21:00Z</time>
      </trkpt>
      <trkpt lat="47.63838" lon="6.86302">
        <ele>360.6</ele>
        <time>2021-08-10T08:21:01Z</time>
      </trkpt>
      <trkpt lat="47.63838" lon="6.86302">
        <ele>360.6</ele>
        <time>2021-08-10T08:21:03Z</time>
      </trkpt>
      <trkpt lat="47.63838" lon="6.86301">
        <ele>360.6</ele>
        <time>2021-08-10T08:21:04Z</time>
      </trkpt>
      <trkpt lat="47.63839" lon="6.86301">
        <ele>360.6</ele>
        <time>2021-08-10T08:21:05Z</time>
      </trkpt>
      <trkpt lat="47.63839" lon="6.86301">
        <ele>360.6</ele>
        <time>2021-08-10T08:21:07Z</time>
      </trkpt>
      <trkpt lat="47.63839" lon="6.86301">
        <ele>360.6</ele>
        <time>2021-08-10T08:21:08Z</time>
      </trkpt>
      <trkpt lat="47.63831" lon="6.86289">
        <ele>360.6</ele>
        <time>2021-08-10T08:22:59Z</time>
      </trkpt>
      <trkpt lat="47.63826" lon="6.86283">
        <ele>360.7</ele>
        <time>2021-08-10T08:23:01Z</time>
      </trkpt>
      <trkpt lat="47.63821" lon="6.8628">
        <ele>360.7</ele>
        <time>2021-08-10T08:23:03Z</time>
      </trkpt>
      <trkpt lat="47.63813" lon="6.86279">
        <ele>360.6</ele>
        <time>2021-08-10T08:23:04Z</time>
      </trkpt>
      <trkpt lat="47.63811" lon="6.86279">
        <ele>360.6</ele>
        <time>2021-08-10T08:23:05Z</time>
      </trkpt>
      <trkpt lat="47.63808" lon="6.86278">
        <ele>360.6</ele>
        <time>2021-08-10T08:23:07Z</time>
      </trkpt>
      <trkpt lat="47.63808" lon="6.86278">
        <ele>360.6</ele>
        <time>2021-08-10T08:23:08Z</time>
      </trkpt>
      <trkpt lat="47.63807" lon="6.86277">
        <ele>360.6</ele>
        <time>2021-08-10T08:23:09Z</time>
      </trkpt>
      <trkpt lat="47.63806" lon="6.86277">
        <ele>360.6</ele>
        <time>2021-08-10T08:23:10Z</time>
      </trkpt>
      <trkpt lat="47.63804" lon="6.86272">
        <ele>360.6</ele>
        <time>2021-08-10T08:23:11Z</time>
      </trkpt>
      <trkpt lat="47.63804" lon="6.86272">
        <ele>360.6</ele>
        <time>2021-08-10T08:23:11Z</time>
      </trkpt>
      <trkpt lat="47.63796" lon="6.86264">
        <ele>360.5</ele>
        <time>2021-08-10T08:23:13Z</time>
      </trkpt>
      <trkpt lat="47.63788" lon="6.86259">
        <ele>360.4</ele>
        <time>2021-08-10T08:23:14Z</time>
      </trkpt>
      <trkpt lat="47.63772" lon="6.86247">
        <ele>360.3</ele>
        <time>2021-08-10T08:23:16Z</time>
      </trkpt>
      <trkpt lat="47.63762" lon="6.86238">
        <ele>360.1</ele>
        <time>2021-08-10T08:23:18Z</time>
      </trkpt>
      <trkpt lat="47.63757" lon="6.86232">
        <ele>360</ele>
        <time>2021-08-10T08:23:19Z</time>
      </trkpt>
      <trkpt lat="47.63748" lon="6.86228">
        <ele>360</ele>
        <time>2021-08-10T08:23:22Z</time>
      </trkpt>
      <trkpt lat="47.63745" lon="6.86227">
        <ele>359.9</ele>
        <time>2021-08-10T08:23:23Z</time>
      </trkpt>
      <trkpt lat="47.63743" lon="6.86225">
        <ele>359.9</ele>
        <time>2021-08-10T08:23:25Z</time>
      </trkpt>
      <trkpt lat="47.63741" lon="6.86225">
        <ele>359.9</ele>
        <time>2021-08-10T08:23:26Z</time>
      </trkpt>
      <trkpt lat="47.63739" lon="6.86224">
        <ele>359.9</ele>
        <time>2021-08-10T08:23:27Z</time>
      </trkpt>
      <trkpt lat="47.63724" lon="6.86201">
        <ele>359.7</ele>
        <time>2021-08-10T08:23:28Z</time>
      </trkpt>
      <trkpt lat="47.63709" lon="6.86178">
        <ele>359.6</ele>
        <time>2021-08-10T08:24:07Z</time>
      </trkpt>
      <trkpt lat="47.63695" lon="6.86155">
        <ele>359.4</ele>
        <time>2021-08-10T08:24:08Z</time>
      </trkpt>
      <trkpt lat="47.63703" lon="6.86144">
        <ele>359.4</ele>
        <time>2021-08-10T08:24:10Z</time>
      </trkpt>
      <trkpt lat="47.63707" lon="6.86141">
        <ele>359.4</ele>
        <time>2021-08-10T08:24:11Z</time>
      </trkpt>
      <trkpt lat="47.63712" lon="6.8614">
        <ele>359.4</ele>
        <time>2021-08-10T08:24:13Z</time>
      </trkpt>
      <trkpt lat="47.63713" lon="6.86142">
        <ele>359.4</ele>
        <time>2021-08-10T08:24:14Z</time>
      </trkpt>
      <trkpt lat="47.63713" lon="6.86144">
        <ele>359.4</ele>
        <time>2021-08-10T08:24:15Z</time>
      </trkpt>
      <trkpt lat="47.63713" lon="6.86146">
        <ele>359.3</ele>
        <time>2021-08-10T08:24:17Z</time>
      </trkpt>
      <trkpt lat="47.63713" lon="6.86147">
        <ele>359.3</ele>
        <time>2021-08-10T08:24:18Z</time>
      </trkpt>
      <trkpt lat="47.63712" lon="6.86156">
        <ele>359.3</ele>
        <time>2021-08-10T08:24:20Z</time>
      </trkpt>
      <trkpt lat="47.63689" lon="6.86175">
        <ele>359.2</ele>
        <time>2021-08-10T08:24:22Z</time>
      </trkpt>
      <trkpt lat="47.63673" lon="6.86176">
        <ele>359.2</ele>
        <time>2021-08-10T08:25:14Z</time>
      </trkpt>
      <trkpt lat="47.63657" lon="6.86177">
        <ele>359.2</ele>
        <time>2021-08-10T08:25:15Z</time>
      </trkpt>
      <trkpt lat="47.63647" lon="6.86174">
        <ele>359.1</ele>
        <time>2021-08-10T08:25:16Z</time>
      </trkpt>
      <trkpt lat="47.63641" lon="6.86173">
        <ele>359.1</ele>
        <time>2021-08-10T08:25:17Z</time>
      </trkpt>
      <trkpt lat="47.63631" lon="6.86172">
        <ele>359</ele>
        <time>2021-08-10T08:25:19Z</time>
      </trkpt>
      <trkpt lat="47.63621" lon="6.86171">
        <ele>358.9</ele>
        <time>2021-08-10T08:25:21Z</time>
      </trkpt>
      <trkpt lat="47.63611" lon="6.86167">
        <ele>358.7</ele>
        <time>2021-08-10T08:25:23Z</time>
      </trkpt>
      <trkpt lat="47.63605" lon="6.86171">
        <ele>358.6</ele>
        <time>2021-08-10T08:25:25Z</time>
      </trkpt>
      <trkpt lat="47.63601" lon="6.8617">
        <ele>358.6</ele>
        <time>2021-08-10T08:25:26Z</time>
      </trkpt>
      <trkpt lat="47.63597" lon="6.86168">
        <ele>358.5</ele>
        <time>2021-08-10T08:25:27Z</time>
      </trkpt>
      <trkpt lat="47.63593" lon="6.86166">
        <ele>358.5</ele>
        <time>2021-08-10T08:25:28Z</time>
      </trkpt>
      <trkpt lat="47.6359" lon="6.86165">
        <ele>358.4</ele>
        <time>2021-08-10T08:25:29Z</time>
      </trkpt>
      <trkpt lat="47.63584" lon="6.86155">
        <ele>358.4</ele>
        <time>2021-08-10T08:25:31Z</time>
      </trkpt>
      <trkpt lat="47.63577" lon="6.86153">
        <ele>358.3</ele>
        <time>2021-08-10T08:25:33Z</time>
      </trkpt>
      <trkpt lat="47.63574" lon="6.86154">
        <ele>358.3</ele>
        <time>2021-08-10T08:25:34Z</time>
      </trkpt>
      <trkpt lat="47.63567" lon="6.86156">
        <ele>358.3</ele>
        <time>2021-08-10T08:25:36Z</time>
      </trkpt>
      <trkpt lat="47.63565" lon="6.86157">
        <ele>358.3</ele>
        <time>2021-08-10T08:25:37Z</time>
      </trkpt>
      <trkpt lat="47.6356" lon="6.86157">
        <ele>358.2</ele>
        <time>2021-08-10T08:25:39Z</time>
      </trkpt>
      <trkpt lat="47.63557" lon="6.86158">
        <ele>358.2</ele>
        <time>2021-08-10T08:25:40Z</time>
      </trkpt>
      <trkpt lat="47.63551" lon="6.86158">
        <ele>358.1</ele>
        <time>2021-08-10T08:25:42Z</time>
      </trkpt>
      <trkpt lat="47.63545" lon="6.86158">
        <ele>358</ele>
        <time>2021-08-10T08:25:44Z</time>
      </trkpt>
      <trkpt lat="47.63539" lon="6.86161">
        <ele>357.9</ele>
        <time>2021-08-10T08:25:46Z</time>
      </trkpt>
      <trkpt lat="47.63538" lon="6.86163">
        <ele>357.9</ele>
        <time>2021-08-10T08:25:47Z</time>
      </trkpt>
      <trkpt lat="47.63537" lon="6.86164">
        <ele>357.9</ele>
        <time>2021-08-10T08:25:48Z</time>
      </trkpt>
      <trkpt lat="47.63536" lon="6.86166">
        <ele>357.8</ele>
        <time>2021-08-10T08:25:50Z</time>
      </trkpt>
      <trkpt lat="47.63536" lon="6.86167">
        <ele>357.8</ele>
        <time>2021-08-10T08:25:51Z</time>
      </trkpt>
      <trkpt lat="47.63536" lon="6.86168">
        <ele>357.8</ele>
        <time>2021-08-10T08:25:53Z</time>
      </trkpt>
      <trkpt lat="47.63536" lon="6.86168">
        <ele>357.8</ele>
        <time>2021-08-10T08:25:54Z</time>
      </trkpt>
      <trkpt lat="47.63536" lon="6.86168">
        <ele>357.8</ele>
        <time>2021-08-10T08:25:55Z</time>
      </trkpt>
      <trkpt lat="47.63535" lon="6.86168">
        <ele>357.8</ele>
        <time>2021-08-10T08:25:57Z</time>
      </trkpt>
      <trkpt lat="47.63535" lon="6.8617">
        <ele>357.8</ele>
        <time>2021-08-10T08:25:58Z</time>
      </trkpt>
      <trkpt lat="47.63531" lon="6.86188">
        <ele>357.7</ele>
        <time>2021-08-10T08:26:04Z</time>
      </trkpt>
      <trkpt lat="47.6353" lon="6.86196">
        <ele>357.7</ele>
        <time>2021-08-10T08:26:05Z</time>
      </trkpt>
      <trkpt lat="47.6353" lon="6.86205">
        <ele>357.7</ele>
        <time>2021-08-10T08:26:06Z</time>
      </trkpt>
      <trkpt lat="47.6353" lon="6.86212">
        <ele>357.7</ele>
        <time>2021-08-10T08:26:07Z</time>
      </trkpt>
      <trkpt lat="47.6353" lon="6.86219">
        <ele>357.7</ele>
        <time>2021-08-10T08:26:08Z</time>
      </trkpt>
      <trkpt lat="47.63531" lon="6.86229">
        <ele>357.7</ele>
        <time>2021-08-10T08:26:10Z</time>
      </trkpt>
      <trkpt lat="47.6353" lon="6.86237">
        <ele>357.7</ele>
        <time>2021-08-10T08:26:11Z</time>
      </trkpt>
      <trkpt lat="47.63528" lon="6.86244">
        <ele>357.7</ele>
        <time>2021-08-10T08:26:13Z</time>
      </trkpt>
      <trkpt lat="47.63526" lon="6.86248">
        <ele>357.8</ele>
        <time>2021-08-10T08:26:14Z</time>
      </trkpt>
      <trkpt lat="47.63524" lon="6.86252">
        <ele>357.8</ele>
        <time>2021-08-10T08:26:15Z</time>
      </trkpt>
      <trkpt lat="47.63519" lon="6.86257">
        <ele>357.8</ele>
        <time>2021-08-10T08:26:16Z</time>
      </trkpt>
      <trkpt lat="47.63515" lon="6.86258">
        <ele>357.8</ele>
        <time>2021-08-10T08:26:17Z</time>
      </trkpt>
      <trkpt lat="47.63509" lon="6.8626">
        <ele>357.8</ele>
        <time>2021-08-10T08:26:19Z</time>
      </trkpt>
      <trkpt lat="47.63505" lon="6.8626">
        <ele>357.8</ele>
        <time>2021-08-10T08:26:20Z</time>
      </trkpt>
      <trkpt lat="47.635" lon="6.86259">
        <ele>357.8</ele>
        <time>2021-08-10T08:26:21Z</time>
      </trkpt>
      <trkpt lat="47.63496" lon="6.86259">
        <ele>357.9</ele>
        <time>2021-08-10T08:26:22Z</time>
      </trkpt>
      <trkpt lat="47.63491" lon="6.86261">
        <ele>358</ele>
        <time>2021-08-10T08:26:23Z</time>
      </trkpt>
      <trkpt lat="47.63486" lon="6.86262">
        <ele>358.1</ele>
        <time>2021-08-10T08:26:24Z</time>
      </trkpt>
      <trkpt lat="47.6348" lon="6.86264">
        <ele>358.2</ele>
        <time>2021-08-10T08:26:26Z</time>
      </trkpt>
      <trkpt lat="47.63476" lon="6.86265">
        <ele>358.3</ele>
        <time>2021-08-10T08:26:27Z</time>
      </trkpt>
      <trkpt lat="47.63471" lon="6.86266">
        <ele>358.4</ele>
        <time>2021-08-10T08:26:28Z</time>
      </trkpt>
      <trkpt lat="47.63467" lon="6.86268">
        <ele>358.5</ele>
        <time>2021-08-10T08:26:29Z</time>
      </trkpt>
      <trkpt lat="47.63463" lon="6.86269">
        <ele>358.5</ele>
        <time>2021-08-10T08:26:30Z</time>
      </trkpt>
      <trkpt lat="47.6346" lon="6.8627">
        <ele>358.5</ele>
        <time>2021-08-10T08:26:31Z</time>
      </trkpt>
      <trkpt lat="47.63457" lon="6.86272">
        <ele>358.5</ele>
        <time>2021-08-10T08:26:32Z</time>
      </trkpt>
      <trkpt lat="47.63453" lon="6.86272">
        <ele>358.5</ele>
        <time>2021-08-10T08:26:33Z</time>
      </trkpt>
      <trkpt lat="47.63451" lon="6.86272">
        <ele>358.5</ele>
        <time>2021-08-10T08:26:34Z</time>
      </trkpt>
      <trkpt lat="47.63446" lon="6.86271">
        <ele>358.5</ele>
        <time>2021-08-10T08:26:36Z</time>
      </trkpt>
      <trkpt lat="47.63443" lon="6.86272">
        <ele>358.5</ele>
        <time>2021-08-10T08:26:37Z</time>
      </trkpt>
      <trkpt lat="47.6344" lon="6.86274">
        <ele>358.5</ele>
        <time>2021-08-10T08:26:38Z</time>
      </trkpt>
      <trkpt lat="47.63437" lon="6.86276">
        <ele>358.4</ele>
        <time>2021-08-10T08:26:39Z</time>
      </trkpt>
      <trkpt lat="47.63433" lon="6.86278">
        <ele>358.4</ele>
        <time>2021-08-10T08:26:41Z</time>
      </trkpt>
      <trkpt lat="47.63429" lon="6.86278">
        <ele>358.4</ele>
        <time>2021-08-10T08:26:42Z</time>
      </trkpt>
      <trkpt lat="47.63426" lon="6.86279">
        <ele>358.4</ele>
        <time>2021-08-10T08:26:43Z</time>
      </trkpt>
      <trkpt lat="47.63425" lon="6.86279">
        <ele>358.4</ele>
        <time>2021-08-10T08:26:44Z</time>
      </trkpt>
      <trkpt lat="47.63422" lon="6.86279">
        <ele>358.3</ele>
        <time>2021-08-10T08:26:46Z</time>
      </trkpt>
      <trkpt lat="47.6342" lon="6.86279">
        <ele>358.3</ele>
        <time>2021-08-10T08:26:47Z</time>
      </trkpt>
      <trkpt lat="47.63419" lon="6.86279">
        <ele>358.3</ele>
        <time>2021-08-10T08:26:48Z</time>
      </trkpt>
      <trkpt lat="47.63415" lon="6.86277">
        <ele>358.3</ele>
        <time>2021-08-10T08:26:49Z</time>
      </trkpt>
      <trkpt lat="47.63414" lon="6.86277">
        <ele>358.2</ele>
        <time>2021-08-10T08:26:50Z</time>
      </trkpt>
      <trkpt lat="47.6341" lon="6.86277">
        <ele>358.2</ele>
        <time>2021-08-10T08:26:52Z</time>
      </trkpt>
      <trkpt lat="47.63406" lon="6.86276">
        <ele>358.1</ele>
        <time>2021-08-10T08:26:53Z</time>
      </trkpt>
      <trkpt lat="47.63403" lon="6.86277">
        <ele>358</ele>
        <time>2021-08-10T08:26:54Z</time>
      </trkpt>
      <trkpt lat="47.634" lon="6.86277">
        <ele>357.9</ele>
        <time>2021-08-10T08:26:55Z</time>
      </trkpt>
      <trkpt lat="47.63396" lon="6.86278">
        <ele>357.8</ele>
        <time>2021-08-10T08:26:56Z</time>
      </trkpt>
      <trkpt lat="47.63391" lon="6.86278">
        <ele>357.7</ele>
        <time>2021-08-10T08:26:57Z</time>
      </trkpt>
      <trkpt lat="47.63386" lon="6.86279">
        <ele>357.6</ele>
        <time>2021-08-10T08:26:59Z</time>
      </trkpt>
      <trkpt lat="47.63381" lon="6.86281">
        <ele>357.5</ele>
        <time>2021-08-10T08:27:00Z</time>
      </trkpt>
      <trkpt lat="47.63377" lon="6.86283">
        <ele>357.4</ele>
        <time>2021-08-10T08:27:01Z</time>
      </trkpt>
      <trkpt lat="47.63368" lon="6.86285">
        <ele>357.3</ele>
        <time>2021-08-10T08:27:02Z</time>
      </trkpt>
      <trkpt lat="47.63357" lon="6.86286">
        <ele>357.1</ele>
        <time>2021-08-10T08:27:04Z</time>
      </trkpt>
      <trkpt lat="47.63352" lon="6.86289">
        <ele>357</ele>
        <time>2021-08-10T08:27:05Z</time>
      </trkpt>
      <trkpt lat="47.63347" lon="6.86292">
        <ele>357</ele>
        <time>2021-08-10T08:27:06Z</time>
      </trkpt>
      <trkpt lat="47.63345" lon="6.86293">
        <ele>356.9</ele>
        <time>2021-08-10T08:27:08Z</time>
      </trkpt>
      <trkpt lat="47.63338" lon="6.863">
        <ele>356.9</ele>
        <time>2021-08-10T08:27:10Z</time>
      </trkpt>
      <trkpt lat="47.63333" lon="6.86306">
        <ele>356.8</ele>
        <time>2021-08-10T08:27:12Z</time>
      </trkpt>
      <trkpt lat="47.6333" lon="6.86308">
        <ele>356.8</ele>
        <time>2021-08-10T08:27:13Z</time>
      </trkpt>
      <trkpt lat="47.63328" lon="6.86312">
        <ele>356.8</ele>
        <time>2021-08-10T08:27:14Z</time>
      </trkpt>
      <trkpt lat="47.63325" lon="6.86319">
        <ele>356.8</ele>
        <time>2021-08-10T08:27:16Z</time>
      </trkpt>
      <trkpt lat="47.63323" lon="6.86321">
        <ele>356.8</ele>
        <time>2021-08-10T08:27:17Z</time>
      </trkpt>
      <trkpt lat="47.63321" lon="6.86322">
        <ele>356.8</ele>
        <time>2021-08-10T08:27:19Z</time>
      </trkpt>
      <trkpt lat="47.63318" lon="6.86322">
        <ele>356.8</ele>
        <time>2021-08-10T08:27:20Z</time>
      </trkpt>
      <trkpt lat="47.63315" lon="6.86322">
        <ele>356.8</ele>
        <time>2021-08-10T08:27:21Z</time>
      </trkpt>
      <trkpt lat="47.63309" lon="6.86322">
        <ele>356.8</ele>
        <time>2021-08-10T08:27:23Z</time>
      </trkpt>
      <trkpt lat="47.63306" lon="6.86322">
        <ele>356.7</ele>
        <time>2021-08-10T08:27:24Z</time>
      </trkpt>
      <trkpt lat="47.63302" lon="6.86324">
        <ele>356.7</ele>
        <time>2021-08-10T08:27:25Z</time>
      </trkpt>
      <trkpt lat="47.63296" lon="6.86326">
        <ele>356.6</ele>
        <time>2021-08-10T08:27:27Z</time>
      </trkpt>
      <trkpt lat="47.6329" lon="6.86328">
        <ele>356.5</ele>
        <time>2021-08-10T08:27:28Z</time>
      </trkpt>
      <trkpt lat="47.63287" lon="6.86329">
        <ele>356.5</ele>
        <time>2021-08-10T08:27:29Z</time>
      </trkpt>
      <trkpt lat="47.63283" lon="6.86331">
        <ele>356.5</ele>
        <time>2021-08-10T08:27:31Z</time>
      </trkpt>
      <trkpt lat="47.63274" lon="6.86335">
        <ele>356.4</ele>
        <time>2021-08-10T08:27:32Z</time>
      </trkpt>
      <trkpt lat="47.63264" lon="6.8634">
        <ele>356.4</ele>
        <time>2021-08-10T08:27:34Z</time>
      </trkpt>
      <trkpt lat="47.63261" lon="6.86343">
        <ele>356.4</ele>
        <time>2021-08-10T08:27:35Z</time>
      </trkpt>
      <trkpt lat="47.63254" lon="6.86351">
        <ele>356.3</ele>
        <time>2021-08-10T08:27:37Z</time>
      </trkpt>
      <trkpt lat="47.63248" lon="6.86355">
        <ele>356.3</ele>
        <time>2021-08-10T08:27:39Z</time>
      </trkpt>
      <trkpt lat="47.63242" lon="6.86356">
        <ele>356.2</ele>
        <time>2021-08-10T08:27:41Z</time>
      </trkpt>
      <trkpt lat="47.63237" lon="6.86356">
        <ele>356.2</ele>
        <time>2021-08-10T08:27:43Z</time>
      </trkpt>
      <trkpt lat="47.63234" lon="6.86358">
        <ele>356.2</ele>
        <time>2021-08-10T08:27:44Z</time>
      </trkpt>
      <trkpt lat="47.63231" lon="6.86359">
        <ele>356.2</ele>
        <time>2021-08-10T08:27:45Z</time>
      </trkpt>
      <trkpt lat="47.63227" lon="6.86361">
        <ele>356.2</ele>
        <time>2021-08-10T08:27:46Z</time>
      </trkpt>
      <trkpt lat="47.63221" lon="6.86365">
        <ele>356.2</ele>
        <time>2021-08-10T08:27:48Z</time>
      </trkpt>
      <trkpt lat="47.63217" lon="6.86366">
        <ele>356.2</ele>
        <time>2021-08-10T08:27:49Z</time>
      </trkpt>
      <trkpt lat="47.6321" lon="6.86365">
        <ele>356.3</ele>
        <time>2021-08-10T08:27:51Z</time>
      </trkpt>
      <trkpt lat="47.63206" lon="6.86364">
        <ele>356.3</ele>
        <time>2021-08-10T08:27:52Z</time>
      </trkpt>
      <trkpt lat="47.63203" lon="6.86363">
        <ele>356.3</ele>
        <time>2021-08-10T08:27:53Z</time>
      </trkpt>
      <trkpt lat="47.63196" lon="6.86361">
        <ele>356.2</ele>
        <time>2021-08-10T08:27:55Z</time>
      </trkpt>
      <trkpt lat="47.6319" lon="6.86358">
        <ele>356.2</ele>
        <time>2021-08-10T08:27:57Z</time>
      </trkpt>
      <trkpt lat="47.63184" lon="6.86353">
        <ele>356.2</ele>
        <time>2021-08-10T08:27:59Z</time>
      </trkpt>
      <trkpt lat="47.63181" lon="6.8635">
        <ele>356.2</ele>
        <time>2021-08-10T08:28:00Z</time>
      </trkpt>
      <trkpt lat="47.63174" lon="6.86344">
        <ele>356.2</ele>
        <time>2021-08-10T08:28:02Z</time>
      </trkpt>
      <trkpt lat="47.63168" lon="6.86342">
        <ele>356.2</ele>
        <time>2021-08-10T08:28:04Z</time>
      </trkpt>
      <trkpt lat="47.63163" lon="6.8634">
        <ele>356.1</ele>
        <time>2021-08-10T08:28:05Z</time>
      </trkpt>
      <trkpt lat="47.63158" lon="6.86337">
        <ele>356.1</ele>
        <time>2021-08-10T08:28:06Z</time>
      </trkpt>
      <trkpt lat="47.63154" lon="6.86335">
        <ele>356.1</ele>
        <time>2021-08-10T08:28:07Z</time>
      </trkpt>
      <trkpt lat="47.63151" lon="6.86333">
        <ele>356.1</ele>
        <time>2021-08-10T08:28:08Z</time>
      </trkpt>
      <trkpt lat="47.63143" lon="6.86328">
        <ele>356</ele>
        <time>2021-08-10T08:28:10Z</time>
      </trkpt>
      <trkpt lat="47.63139" lon="6.86327">
        <ele>356.1</ele>
        <time>2021-08-10T08:28:11Z</time>
      </trkpt>
      <trkpt lat="47.63133" lon="6.86324">
        <ele>356.1</ele>
        <time>2021-08-10T08:28:13Z</time>
      </trkpt>
      <trkpt lat="47.63126" lon="6.86323">
        <ele>356.1</ele>
        <time>2021-08-10T08:28:15Z</time>
      </trkpt>
      <trkpt lat="47.63122" lon="6.86322">
        <ele>356.1</ele>
        <time>2021-08-10T08:28:16Z</time>
      </trkpt>
      <trkpt lat="47.63118" lon="6.8632">
        <ele>356.1</ele>
        <time>2021-08-10T08:28:17Z</time>
      </trkpt>
      <trkpt lat="47.63114" lon="6.86318">
        <ele>356.2</ele>
        <time>2021-08-10T08:28:18Z</time>
      </trkpt>
      <trkpt lat="47.6311" lon="6.86316">
        <ele>356.2</ele>
        <time>2021-08-10T08:28:19Z</time>
      </trkpt>
      <trkpt lat="47.63107" lon="6.86314">
        <ele>356.2</ele>
        <time>2021-08-10T08:28:20Z</time>
      </trkpt>
      <trkpt lat="47.63099" lon="6.86312">
        <ele>356.2</ele>
        <time>2021-08-10T08:28:22Z</time>
      </trkpt>
      <trkpt lat="47.63094" lon="6.86309">
        <ele>356.2</ele>
        <time>2021-08-10T08:28:24Z</time>
      </trkpt>
      <trkpt lat="47.63089" lon="6.86306">
        <ele>356.2</ele>
        <time>2021-08-10T08:28:26Z</time>
      </trkpt>
      <trkpt lat="47.63089" lon="6.86308">
        <ele>356.4</ele>
        <time>2021-08-10T08:28:28Z</time>
      </trkpt>
      <trkpt lat="47.63089" lon="6.86309">
        <ele>356.4</ele>
        <time>2021-08-10T08:28:29Z</time>
      </trkpt>
      <trkpt lat="47.63088" lon="6.86308">
        <ele>356.4</ele>
        <time>2021-08-10T08:28:31Z</time>
      </trkpt>
      <trkpt lat="47.63086" lon="6.86309">
        <ele>356.4</ele>
        <time>2021-08-10T08:28:33Z</time>
      </trkpt>
      <trkpt lat="47.63082" lon="6.86314">
        <ele>356.4</ele>
        <time>2021-08-10T08:28:35Z</time>
      </trkpt>
      <trkpt lat="47.63081" lon="6.86318">
        <ele>356.4</ele>
        <time>2021-08-10T08:28:36Z</time>
      </trkpt>
      <trkpt lat="47.63079" lon="6.86322">
        <ele>356.4</ele>
        <time>2021-08-10T08:28:47Z</time>
      </trkpt>
      <trkpt lat="47.63077" lon="6.86327">
        <ele>356.4</ele>
        <time>2021-08-10T08:28:48Z</time>
      </trkpt>
      <trkpt lat="47.63073" lon="6.86333">
        <ele>356.3</ele>
        <time>2021-08-10T08:28:49Z</time>
      </trkpt>
      <trkpt lat="47.6307" lon="6.86339">
        <ele>356.3</ele>
        <time>2021-08-10T08:28:50Z</time>
      </trkpt>
      <trkpt lat="47.63068" lon="6.86344">
        <ele>356.2</ele>
        <time>2021-08-10T08:28:51Z</time>
      </trkpt>
      <trkpt lat="47.63063" lon="6.86352">
        <ele>356.2</ele>
        <time>2021-08-10T08:28:53Z</time>
      </trkpt>
      <trkpt lat="47.63059" lon="6.86359">
        <ele>356.1</ele>
        <time>2021-08-10T08:28:54Z</time>
      </trkpt>
      <trkpt lat="47.63055" lon="6.86366">
        <ele>356.1</ele>
        <time>2021-08-10T08:28:56Z</time>
      </trkpt>
      <trkpt lat="47.63051" lon="6.86375">
        <ele>356</ele>
        <time>2021-08-10T08:28:57Z</time>
      </trkpt>
      <trkpt lat="47.63048" lon="6.86382">
        <ele>356</ele>
        <time>2021-08-10T08:28:58Z</time>
      </trkpt>
      <trkpt lat="47.63042" lon="6.86393">
        <ele>356</ele>
        <time>2021-08-10T08:28:59Z</time>
      </trkpt>
      <trkpt lat="47.63039" lon="6.864">
        <ele>356</ele>
        <time>2021-08-10T08:29:00Z</time>
      </trkpt>
      <trkpt lat="47.63035" lon="6.8641">
        <ele>356</ele>
        <time>2021-08-10T08:29:02Z</time>
      </trkpt>
      <trkpt lat="47.63032" lon="6.86412">
        <ele>356</ele>
        <time>2021-08-10T08:29:04Z</time>
      </trkpt>
      <trkpt lat="47.6303" lon="6.86415">
        <ele>356</ele>
        <time>2021-08-10T08:29:05Z</time>
      </trkpt>
      <trkpt lat="47.63025" lon="6.86421">
        <ele>356</ele>
        <time>2021-08-10T08:29:07Z</time>
      </trkpt>
      <trkpt lat="47.63019" lon="6.86426">
        <ele>356</ele>
        <time>2021-08-10T08:29:08Z</time>
      </trkpt>
      <trkpt lat="47.63016" lon="6.86429">
        <ele>356</ele>
        <time>2021-08-10T08:29:09Z</time>
      </trkpt>
      <trkpt lat="47.63009" lon="6.86434">
        <ele>355.9</ele>
        <time>2021-08-10T08:29:11Z</time>
      </trkpt>
      <trkpt lat="47.63004" lon="6.86435">
        <ele>355.9</ele>
        <time>2021-08-10T08:29:12Z</time>
      </trkpt>
      <trkpt lat="47.62999" lon="6.86434">
        <ele>355.8</ele>
        <time>2021-08-10T08:29:13Z</time>
      </trkpt>
      <trkpt lat="47.62994" lon="6.86433">
        <ele>355.8</ele>
        <time>2021-08-10T08:29:15Z</time>
      </trkpt>
      <trkpt lat="47.62988" lon="6.86432">
        <ele>355.7</ele>
        <time>2021-08-10T08:29:16Z</time>
      </trkpt>
      <trkpt lat="47.62983" lon="6.86431">
        <ele>355.6</ele>
        <time>2021-08-10T08:29:17Z</time>
      </trkpt>
      <trkpt lat="47.62979" lon="6.8643">
        <ele>355.6</ele>
        <time>2021-08-10T08:29:18Z</time>
      </trkpt>
      <trkpt lat="47.62974" lon="6.86429">
        <ele>355.5</ele>
        <time>2021-08-10T08:29:20Z</time>
      </trkpt>
      <trkpt lat="47.62969" lon="6.86428">
        <ele>355.5</ele>
        <time>2021-08-10T08:29:21Z</time>
      </trkpt>
      <trkpt lat="47.62964" lon="6.86427">
        <ele>355.4</ele>
        <time>2021-08-10T08:29:22Z</time>
      </trkpt>
      <trkpt lat="47.62957" lon="6.86427">
        <ele>355.4</ele>
        <time>2021-08-10T08:29:23Z</time>
      </trkpt>
      <trkpt lat="47.62952" lon="6.86427">
        <ele>355.3</ele>
        <time>2021-08-10T08:29:24Z</time>
      </trkpt>
      <trkpt lat="47.62941" lon="6.86428">
        <ele>355.2</ele>
        <time>2021-08-10T08:29:26Z</time>
      </trkpt>
      <trkpt lat="47.62931" lon="6.86431">
        <ele>355.1</ele>
        <time>2021-08-10T08:29:28Z</time>
      </trkpt>
      <trkpt lat="47.62926" lon="6.86433">
        <ele>355.1</ele>
        <time>2021-08-10T08:29:29Z</time>
      </trkpt>
      <trkpt lat="47.62921" lon="6.86434">
        <ele>355</ele>
        <time>2021-08-10T08:29:30Z</time>
      </trkpt>
      <trkpt lat="47.62911" lon="6.86435">
        <ele>355</ele>
        <time>2021-08-10T08:29:32Z</time>
      </trkpt>
      <trkpt lat="47.62907" lon="6.86437">
        <ele>354.9</ele>
        <time>2021-08-10T08:29:33Z</time>
      </trkpt>
      <trkpt lat="47.62904" lon="6.86441">
        <ele>354.9</ele>
        <time>2021-08-10T08:29:35Z</time>
      </trkpt>
      <trkpt lat="47.629" lon="6.86443">
        <ele>354.9</ele>
        <time>2021-08-10T08:29:36Z</time>
      </trkpt>
      <trkpt lat="47.62894" lon="6.86444">
        <ele>354.9</ele>
        <time>2021-08-10T08:29:37Z</time>
      </trkpt>
      <trkpt lat="47.6289" lon="6.86446">
        <ele>354.9</ele>
        <time>2021-08-10T08:29:38Z</time>
      </trkpt>
      <trkpt lat="47.62883" lon="6.86447">
        <ele>355</ele>
        <time>2021-08-10T08:29:40Z</time>
      </trkpt>
      <trkpt lat="47.6288" lon="6.86447">
        <ele>355</ele>
        <time>2021-08-10T08:29:41Z</time>
      </trkpt>
      <trkpt lat="47.62875" lon="6.86445">
        <ele>355</ele>
        <time>2021-08-10T08:29:43Z</time>
      </trkpt>
      <trkpt lat="47.62872" lon="6.86442">
        <ele>355</ele>
        <time>2021-08-10T08:29:44Z</time>
      </trkpt>
      <trkpt lat="47.62871" lon="6.86441">
        <ele>355</ele>
        <time>2021-08-10T08:29:45Z</time>
      </trkpt>
      <trkpt lat="47.6287" lon="6.86437">
        <ele>355.1</ele>
        <time>2021-08-10T08:29:47Z</time>
      </trkpt>
      <trkpt lat="47.6287" lon="6.86435">
        <ele>355.1</ele>
        <time>2021-08-10T08:29:48Z</time>
      </trkpt>
      <trkpt lat="47.6287" lon="6.86431">
        <ele>355.1</ele>
        <time>2021-08-10T08:29:50Z</time>
      </trkpt>
      <trkpt lat="47.6287" lon="6.86429">
        <ele>355.1</ele>
        <time>2021-08-10T08:29:51Z</time>
      </trkpt>
      <trkpt lat="47.62869" lon="6.86424">
        <ele>355.1</ele>
        <time>2021-08-10T08:29:53Z</time>
      </trkpt>
      <trkpt lat="47.62869" lon="6.86422">
        <ele>355.1</ele>
        <time>2021-08-10T08:29:54Z</time>
      </trkpt>
      <trkpt lat="47.62869" lon="6.86419">
        <ele>355.1</ele>
        <time>2021-08-10T08:29:55Z</time>
      </trkpt>
      <trkpt lat="47.62869" lon="6.86418">
        <ele>355.1</ele>
        <time>2021-08-10T08:29:56Z</time>
      </trkpt>
      <trkpt lat="47.62866" lon="6.86416">
        <ele>355.1</ele>
        <time>2021-08-10T08:29:58Z</time>
      </trkpt>
      <trkpt lat="47.62864" lon="6.86416">
        <ele>355.2</ele>
        <time>2021-08-10T08:29:59Z</time>
      </trkpt>
      <trkpt lat="47.62861" lon="6.86417">
        <ele>355.2</ele>
        <time>2021-08-10T08:30:01Z</time>
      </trkpt>
      <trkpt lat="47.62858" lon="6.86422">
        <ele>355.1</ele>
        <time>2021-08-10T08:30:02Z</time>
      </trkpt>
      <trkpt lat="47.62856" lon="6.86426">
        <ele>355.1</ele>
        <time>2021-08-10T08:30:03Z</time>
      </trkpt>
      <trkpt lat="47.62851" lon="6.86434">
        <ele>355.1</ele>
        <time>2021-08-10T08:30:05Z</time>
      </trkpt>
      <trkpt lat="47.62846" lon="6.86443">
        <ele>355.1</ele>
        <time>2021-08-10T08:30:07Z</time>
      </trkpt>
      <trkpt lat="47.62842" lon="6.86446">
        <ele>355.1</ele>
        <time>2021-08-10T08:30:08Z</time>
      </trkpt>
      <trkpt lat="47.62839" lon="6.86449">
        <ele>355.1</ele>
        <time>2021-08-10T08:30:09Z</time>
      </trkpt>
      <trkpt lat="47.62836" lon="6.86452">
        <ele>355.1</ele>
        <time>2021-08-10T08:30:10Z</time>
      </trkpt>
      <trkpt lat="47.62832" lon="6.86456">
        <ele>355</ele>
        <time>2021-08-10T08:30:11Z</time>
      </trkpt>
      <trkpt lat="47.62827" lon="6.86459">
        <ele>354.9</ele>
        <time>2021-08-10T08:30:13Z</time>
      </trkpt>
      <trkpt lat="47.62819" lon="6.86464">
        <ele>354.9</ele>
        <time>2021-08-10T08:30:15Z</time>
      </trkpt>
      <trkpt lat="47.62811" lon="6.86463">
        <ele>354.8</ele>
        <time>2021-08-10T08:30:17Z</time>
      </trkpt>
      <trkpt lat="47.62807" lon="6.86461">
        <ele>354.8</ele>
        <time>2021-08-10T08:30:18Z</time>
      </trkpt>
      <trkpt lat="47.62803" lon="6.86457">
        <ele>354.8</ele>
        <time>2021-08-10T08:30:20Z</time>
      </trkpt>
      <trkpt lat="47.628" lon="6.86455">
        <ele>354.8</ele>
        <time>2021-08-10T08:30:21Z</time>
      </trkpt>
      <trkpt lat="47.628" lon="6.86456">
        <ele>354.8</ele>
        <time>2021-08-10T08:30:23Z</time>
      </trkpt>
      <trkpt lat="47.62799" lon="6.86457">
        <ele>354.8</ele>
        <time>2021-08-10T08:30:24Z</time>
      </trkpt>
      <trkpt lat="47.62798" lon="6.86456">
        <ele>354.8</ele>
        <time>2021-08-10T08:30:25Z</time>
      </trkpt>
      <trkpt lat="47.62795" lon="6.86451">
        <ele>354.7</ele>
        <time>2021-08-10T08:30:27Z</time>
      </trkpt>
      <trkpt lat="47.62787" lon="6.86444">
        <ele>354.7</ele>
        <time>2021-08-10T08:30:29Z</time>
      </trkpt>
      <trkpt lat="47.6278" lon="6.86438">
        <ele>354.7</ele>
        <time>2021-08-10T08:30:31Z</time>
      </trkpt>
      <trkpt lat="47.62772" lon="6.8643">
        <ele>354.7</ele>
        <time>2021-08-10T08:30:33Z</time>
      </trkpt>
      <trkpt lat="47.62768" lon="6.86426">
        <ele>354.7</ele>
        <time>2021-08-10T08:30:34Z</time>
      </trkpt>
      <trkpt lat="47.62765" lon="6.86425">
        <ele>354.7</ele>
        <time>2021-08-10T08:30:35Z</time>
      </trkpt>
      <trkpt lat="47.62762" lon="6.86423">
        <ele>354.6</ele>
        <time>2021-08-10T08:30:37Z</time>
      </trkpt>
      <trkpt lat="47.62759" lon="6.8642">
        <ele>354.6</ele>
        <time>2021-08-10T08:30:38Z</time>
      </trkpt>
      <trkpt lat="47.62758" lon="6.86419">
        <ele>354.6</ele>
        <time>2021-08-10T08:30:39Z</time>
      </trkpt>
      <trkpt lat="47.62755" lon="6.86418">
        <ele>354.6</ele>
        <time>2021-08-10T08:30:41Z</time>
      </trkpt>
      <trkpt lat="47.62751" lon="6.86419">
        <ele>354.6</ele>
        <time>2021-08-10T08:30:43Z</time>
      </trkpt>
      <trkpt lat="47.62748" lon="6.86419">
        <ele>354.6</ele>
        <time>2021-08-10T08:30:45Z</time>
      </trkpt>
      <trkpt lat="47.62728" lon="6.86404">
        <ele>354.6</ele>
        <time>2021-08-10T08:30:52Z</time>
      </trkpt>
      <trkpt lat="47.62723" lon="6.864">
        <ele>354.6</ele>
        <time>2021-08-10T08:30:53Z</time>
      </trkpt>
      <trkpt lat="47.62719" lon="6.86396">
        <ele>354.6</ele>
        <time>2021-08-10T08:30:54Z</time>
      </trkpt>
      <trkpt lat="47.62713" lon="6.8639">
        <ele>354.6</ele>
        <time>2021-08-10T08:30:55Z</time>
      </trkpt>
      <trkpt lat="47.62708" lon="6.86385">
        <ele>354.6</ele>
        <time>2021-08-10T08:30:56Z</time>
      </trkpt>
      <trkpt lat="47.627" lon="6.86374">
        <ele>354.6</ele>
        <time>2021-08-10T08:30:58Z</time>
      </trkpt>
      <trkpt lat="47.62693" lon="6.86366">
        <ele>354.5</ele>
        <time>2021-08-10T08:31:00Z</time>
      </trkpt>
      <trkpt lat="47.62689" lon="6.86361">
        <ele>354.5</ele>
        <time>2021-08-10T08:31:01Z</time>
      </trkpt>
      <trkpt lat="47.62686" lon="6.86357">
        <ele>354.5</ele>
        <time>2021-08-10T08:31:02Z</time>
      </trkpt>
      <trkpt lat="47.62681" lon="6.86351">
        <ele>354.5</ele>
        <time>2021-08-10T08:31:04Z</time>
      </trkpt>
      <trkpt lat="47.62676" lon="6.86344">
        <ele>354.5</ele>
        <time>2021-08-10T08:31:05Z</time>
      </trkpt>
      <trkpt lat="47.62671" lon="6.86335">
        <ele>354.4</ele>
        <time>2021-08-10T08:31:07Z</time>
      </trkpt>
      <trkpt lat="47.62663" lon="6.86323">
        <ele>354.3</ele>
        <time>2021-08-10T08:31:08Z</time>
      </trkpt>
      <trkpt lat="47.62655" lon="6.86312">
        <ele>354.3</ele>
        <time>2021-08-10T08:31:10Z</time>
      </trkpt>
      <trkpt lat="47.62653" lon="6.86309">
        <ele>354.3</ele>
        <time>2021-08-10T08:31:11Z</time>
      </trkpt>
      <trkpt lat="47.62655" lon="6.86308">
        <ele>354.3</ele>
        <time>2021-08-10T08:31:12Z</time>
      </trkpt>
      <trkpt lat="47.62642" lon="6.86304">
        <ele>354.2</ele>
        <time>2021-08-10T08:31:14Z</time>
      </trkpt>
      <trkpt lat="47.62638" lon="6.86301">
        <ele>354.2</ele>
        <time>2021-08-10T08:31:15Z</time>
      </trkpt>
      <trkpt lat="47.62633" lon="6.863">
        <ele>354.2</ele>
        <time>2021-08-10T08:31:16Z</time>
      </trkpt>
      <trkpt lat="47.62629" lon="6.86298">
        <ele>354.2</ele>
        <time>2021-08-10T08:31:18Z</time>
      </trkpt>
      <trkpt lat="47.62624" lon="6.86296">
        <ele>354.2</ele>
        <time>2021-08-10T08:31:19Z</time>
      </trkpt>
      <trkpt lat="47.62619" lon="6.86294">
        <ele>354.1</ele>
        <time>2021-08-10T08:31:20Z</time>
      </trkpt>
      <trkpt lat="47.62614" lon="6.86291">
        <ele>354.1</ele>
        <time>2021-08-10T08:31:21Z</time>
      </trkpt>
      <trkpt lat="47.62605" lon="6.8629">
        <ele>354</ele>
        <time>2021-08-10T08:31:22Z</time>
      </trkpt>
      <trkpt lat="47.62599" lon="6.86289">
        <ele>354</ele>
        <time>2021-08-10T08:31:23Z</time>
      </trkpt>
      <trkpt lat="47.62588" lon="6.86284">
        <ele>353.9</ele>
        <time>2021-08-10T08:31:25Z</time>
      </trkpt>
      <trkpt lat="47.6258" lon="6.86281">
        <ele>353.8</ele>
        <time>2021-08-10T08:31:27Z</time>
      </trkpt>
      <trkpt lat="47.62574" lon="6.8628">
        <ele>353.8</ele>
        <time>2021-08-10T08:31:29Z</time>
      </trkpt>
      <trkpt lat="47.62571" lon="6.86279">
        <ele>353.8</ele>
        <time>2021-08-10T08:31:30Z</time>
      </trkpt>
      <trkpt lat="47.62567" lon="6.86278">
        <ele>353.7</ele>
        <time>2021-08-10T08:31:32Z</time>
      </trkpt>
      <trkpt lat="47.62562" lon="6.86275">
        <ele>353.7</ele>
        <time>2021-08-10T08:31:34Z</time>
      </trkpt>
      <trkpt lat="47.62554" lon="6.86274">
        <ele>353.6</ele>
        <time>2021-08-10T08:31:35Z</time>
      </trkpt>
      <trkpt lat="47.62546" lon="6.86273">
        <ele>353.5</ele>
        <time>2021-08-10T08:31:37Z</time>
      </trkpt>
      <trkpt lat="47.62539" lon="6.86274">
        <ele>353.4</ele>
        <time>2021-08-10T08:31:38Z</time>
      </trkpt>
      <trkpt lat="47.62534" lon="6.86276">
        <ele>353.3</ele>
        <time>2021-08-10T08:31:39Z</time>
      </trkpt>
      <trkpt lat="47.6253" lon="6.86279">
        <ele>353.3</ele>
        <time>2021-08-10T08:31:40Z</time>
      </trkpt>
      <trkpt lat="47.62528" lon="6.86282">
        <ele>353.3</ele>
        <time>2021-08-10T08:31:41Z</time>
      </trkpt>
      <trkpt lat="47.62526" lon="6.86285">
        <ele>353.2</ele>
        <time>2021-08-10T08:31:43Z</time>
      </trkpt>
      <trkpt lat="47.62524" lon="6.86287">
        <ele>353.2</ele>
        <time>2021-08-10T08:31:44Z</time>
      </trkpt>
      <trkpt lat="47.62522" lon="6.86289">
        <ele>353.2</ele>
        <time>2021-08-10T08:31:45Z</time>
      </trkpt>
      <trkpt lat="47.62521" lon="6.8629">
        <ele>353.2</ele>
        <time>2021-08-10T08:31:46Z</time>
      </trkpt>
      <trkpt lat="47.6252" lon="6.8629">
        <ele>353.1</ele>
        <time>2021-08-10T08:31:48Z</time>
      </trkpt>
      <trkpt lat="47.62519" lon="6.86291">
        <ele>353.1</ele>
        <time>2021-08-10T08:31:52Z</time>
      </trkpt>
      <trkpt lat="47.62437" lon="6.86329">
        <ele>352.8</ele>
        <time>2021-08-10T08:32:01Z</time>
      </trkpt>
      <trkpt lat="47.62432" lon="6.8633">
        <ele>352.8</ele>
        <time>2021-08-10T08:32:02Z</time>
      </trkpt>
      <trkpt lat="47.6242" lon="6.86328">
        <ele>352.8</ele>
        <time>2021-08-10T08:32:04Z</time>
      </trkpt>
      <trkpt lat="47.62413" lon="6.86327">
        <ele>352.8</ele>
        <time>2021-08-10T08:32:06Z</time>
      </trkpt>
      <trkpt lat="47.62408" lon="6.86328">
        <ele>352.7</ele>
        <time>2021-08-10T08:32:07Z</time>
      </trkpt>
      <trkpt lat="47.62403" lon="6.86329">
        <ele>352.7</ele>
        <time>2021-08-10T08:32:08Z</time>
      </trkpt>
      <trkpt lat="47.62395" lon="6.86327">
        <ele>352.7</ele>
        <time>2021-08-10T08:32:09Z</time>
      </trkpt>
      <trkpt lat="47.6239" lon="6.86326">
        <ele>352.6</ele>
        <time>2021-08-10T08:32:10Z</time>
      </trkpt>
      <trkpt lat="47.62382" lon="6.86327">
        <ele>352.6</ele>
        <time>2021-08-10T08:32:12Z</time>
      </trkpt>
      <trkpt lat="47.62377" lon="6.86324">
        <ele>352.6</ele>
        <time>2021-08-10T08:32:13Z</time>
      </trkpt>
      <trkpt lat="47.62374" lon="6.86324">
        <ele>352.6</ele>
        <time>2021-08-10T08:32:14Z</time>
      </trkpt>
      <trkpt lat="47.62367" lon="6.86322">
        <ele>352.6</ele>
        <time>2021-08-10T08:32:16Z</time>
      </trkpt>
      <trkpt lat="47.62361" lon="6.86316">
        <ele>352.6</ele>
        <time>2021-08-10T08:32:17Z</time>
      </trkpt>
      <trkpt lat="47.62353" lon="6.86313">
        <ele>352.6</ele>
        <time>2021-08-10T08:32:19Z</time>
      </trkpt>
      <trkpt lat="47.6235" lon="6.86312">
        <ele>352.6</ele>
        <time>2021-08-10T08:32:20Z</time>
      </trkpt>
      <trkpt lat="47.62347" lon="6.86309">
        <ele>352.6</ele>
        <time>2021-08-10T08:32:21Z</time>
      </trkpt>
      <trkpt lat="47.62342" lon="6.86306">
        <ele>352.5</ele>
        <time>2021-08-10T08:32:23Z</time>
      </trkpt>
      <trkpt lat="47.62338" lon="6.86304">
        <ele>352.5</ele>
        <time>2021-08-10T08:32:24Z</time>
      </trkpt>
      <trkpt lat="47.62333" lon="6.86301">
        <ele>352.5</ele>
        <time>2021-08-10T08:32:25Z</time>
      </trkpt>
      <trkpt lat="47.6233" lon="6.86298">
        <ele>352.5</ele>
        <time>2021-08-10T08:32:27Z</time>
      </trkpt>
      <trkpt lat="47.62326" lon="6.86295">
        <ele>352.5</ele>
        <time>2021-08-10T08:32:28Z</time>
      </trkpt>
      <trkpt lat="47.62322" lon="6.86292">
        <ele>352.5</ele>
        <time>2021-08-10T08:32:29Z</time>
      </trkpt>
      <trkpt lat="47.62318" lon="6.86289">
        <ele>352.6</ele>
        <time>2021-08-10T08:32:30Z</time>
      </trkpt>
      <trkpt lat="47.62314" lon="6.86286">
        <ele>352.6</ele>
        <time>2021-08-10T08:32:31Z</time>
      </trkpt>
      <trkpt lat="47.62307" lon="6.8628">
        <ele>352.6</ele>
        <time>2021-08-10T08:32:32Z</time>
      </trkpt>
      <trkpt lat="47.62298" lon="6.86275">
        <ele>352.6</ele>
        <time>2021-08-10T08:32:34Z</time>
      </trkpt>
      <trkpt lat="47.62296" lon="6.86273">
        <ele>352.6</ele>
        <time>2021-08-10T08:32:35Z</time>
      </trkpt>
      <trkpt lat="47.62289" lon="6.8627">
        <ele>352.6</ele>
        <time>2021-08-10T08:32:37Z</time>
      </trkpt>
      <trkpt lat="47.62285" lon="6.86269">
        <ele>352.6</ele>
        <time>2021-08-10T08:32:38Z</time>
      </trkpt>
      <trkpt lat="47.62281" lon="6.86268">
        <ele>352.6</ele>
        <time>2021-08-10T08:32:40Z</time>
      </trkpt>
      <trkpt lat="47.62277" lon="6.86268">
        <ele>352.7</ele>
        <time>2021-08-10T08:32:41Z</time>
      </trkpt>
      <trkpt lat="47.62272" lon="6.86268">
        <ele>352.7</ele>
        <time>2021-08-10T08:32:42Z</time>
      </trkpt>
      <trkpt lat="47.62267" lon="6.86266">
        <ele>352.7</ele>
        <time>2021-08-10T08:32:43Z</time>
      </trkpt>
      <trkpt lat="47.62259" lon="6.86264">
        <ele>352.7</ele>
        <time>2021-08-10T08:32:45Z</time>
      </trkpt>
      <trkpt lat="47.62253" lon="6.8626">
        <ele>352.8</ele>
        <time>2021-08-10T08:32:47Z</time>
      </trkpt>
      <trkpt lat="47.62249" lon="6.86257">
        <ele>352.8</ele>
        <time>2021-08-10T08:32:48Z</time>
      </trkpt>
      <trkpt lat="47.62243" lon="6.86255">
        <ele>352.8</ele>
        <time>2021-08-10T08:32:49Z</time>
      </trkpt>
      <trkpt lat="47.6224" lon="6.86254">
        <ele>352.8</ele>
        <time>2021-08-10T08:32:50Z</time>
      </trkpt>
      <trkpt lat="47.62236" lon="6.86253">
        <ele>352.8</ele>
        <time>2021-08-10T08:32:51Z</time>
      </trkpt>
      <trkpt lat="47.62232" lon="6.86253">
        <ele>352.7</ele>
        <time>2021-08-10T08:32:52Z</time>
      </trkpt>
      <trkpt lat="47.62231" lon="6.86253">
        <ele>352.7</ele>
        <time>2021-08-10T08:32:53Z</time>
      </trkpt>
      <trkpt lat="47.62226" lon="6.86254">
        <ele>352.7</ele>
        <time>2021-08-10T08:32:55Z</time>
      </trkpt>
      <trkpt lat="47.62223" lon="6.86256">
        <ele>352.6</ele>
        <time>2021-08-10T08:32:56Z</time>
      </trkpt>
      <trkpt lat="47.62219" lon="6.86257">
        <ele>352.6</ele>
        <time>2021-08-10T08:32:57Z</time>
      </trkpt>
      <trkpt lat="47.62216" lon="6.86258">
        <ele>352.6</ele>
        <time>2021-08-10T08:32:58Z</time>
      </trkpt>
      <trkpt lat="47.62212" lon="6.86257">
        <ele>352.5</ele>
        <time>2021-08-10T08:32:59Z</time>
      </trkpt>
      <trkpt lat="47.62208" lon="6.86254">
        <ele>352.5</ele>
        <time>2021-08-10T08:33:00Z</time>
      </trkpt>
      <trkpt lat="47.62204" lon="6.86252">
        <ele>352.4</ele>
        <time>2021-08-10T08:33:02Z</time>
      </trkpt>
      <trkpt lat="47.62199" lon="6.8625">
        <ele>352.4</ele>
        <time>2021-08-10T08:33:03Z</time>
      </trkpt>
      <trkpt lat="47.62188" lon="6.8624">
        <ele>352.3</ele>
        <time>2021-08-10T08:33:04Z</time>
      </trkpt>
      <trkpt lat="47.62183" lon="6.86235">
        <ele>352.3</ele>
        <time>2021-08-10T08:33:05Z</time>
      </trkpt>
      <trkpt lat="47.62177" lon="6.8623">
        <ele>352.3</ele>
        <time>2021-08-10T08:33:07Z</time>
      </trkpt>
      <trkpt lat="47.62173" lon="6.86226">
        <ele>352.3</ele>
        <time>2021-08-10T08:33:08Z</time>
      </trkpt>
      <trkpt lat="47.62168" lon="6.86222">
        <ele>352.4</ele>
        <time>2021-08-10T08:33:10Z</time>
      </trkpt>
      <trkpt lat="47.62164" lon="6.86219">
        <ele>352.4</ele>
        <time>2021-08-10T08:33:12Z</time>
      </trkpt>
      <trkpt lat="47.62161" lon="6.86217">
        <ele>352.5</ele>
        <time>2021-08-10T08:33:14Z</time>
      </trkpt>
      <trkpt lat="47.62157" lon="6.86215">
        <ele>352.5</ele>
        <time>2021-08-10T08:33:15Z</time>
      </trkpt>
      <trkpt lat="47.62156" lon="6.86214">
        <ele>352.5</ele>
        <time>2021-08-10T08:33:16Z</time>
      </trkpt>
      <trkpt lat="47.62151" lon="6.86208">
        <ele>352.3</ele>
        <time>2021-08-10T08:33:18Z</time>
      </trkpt>
      <trkpt lat="47.6215" lon="6.86205">
        <ele>352.1</ele>
        <time>2021-08-10T08:33:19Z</time>
      </trkpt>
      <trkpt lat="47.62146" lon="6.86199">
        <ele>351.9</ele>
        <time>2021-08-10T08:33:21Z</time>
      </trkpt>
      <trkpt lat="47.62145" lon="6.86198">
        <ele>351.9</ele>
        <time>2021-08-10T08:33:22Z</time>
      </trkpt>
      <trkpt lat="47.62142" lon="6.86191">
        <ele>351.7</ele>
        <time>2021-08-10T08:33:24Z</time>
      </trkpt>
      <trkpt lat="47.6214" lon="6.86183">
        <ele>351.5</ele>
        <time>2021-08-10T08:33:26Z</time>
      </trkpt>
      <trkpt lat="47.62139" lon="6.8618">
        <ele>351.4</ele>
        <time>2021-08-10T08:33:27Z</time>
      </trkpt>
      <trkpt lat="47.62136" lon="6.86173">
        <ele>351.3</ele>
        <time>2021-08-10T08:33:29Z</time>
      </trkpt>
      <trkpt lat="47.62134" lon="6.86172">
        <ele>351.3</ele>
        <time>2021-08-10T08:33:31Z</time>
      </trkpt>
      <trkpt lat="47.62133" lon="6.86171">
        <ele>351.2</ele>
        <time>2021-08-10T08:33:32Z</time>
      </trkpt>
      <trkpt lat="47.62131" lon="6.86169">
        <ele>351.2</ele>
        <time>2021-08-10T08:33:33Z</time>
      </trkpt>
      <trkpt lat="47.6213" lon="6.86168">
        <ele>351.1</ele>
        <time>2021-08-10T08:33:35Z</time>
      </trkpt>
      <trkpt lat="47.62128" lon="6.86167">
        <ele>351.1</ele>
        <time>2021-08-10T08:33:37Z</time>
      </trkpt>
      <trkpt lat="47.62127" lon="6.86166">
        <ele>351.1</ele>
        <time>2021-08-10T09:00:47Z</time>
      </trkpt>
      <trkpt lat="47.62125" lon="6.86165">
        <ele>351.1</ele>
        <time>2021-08-10T09:00:49Z</time>
      </trkpt>
      <trkpt lat="47.62124" lon="6.86164">
        <ele>351</ele>
        <time>2021-08-10T09:00:51Z</time>
      </trkpt>
      <trkpt lat="47.62121" lon="6.86166">
        <ele>351.1</ele>
        <time>2021-08-10T09:00:52Z</time>
      </trkpt>
      <trkpt lat="47.6212" lon="6.86167">
        <ele>351.1</ele>
        <time>2021-08-10T09:00:54Z</time>
      </trkpt>
      <trkpt lat="47.6212" lon="6.86167">
        <ele>351</ele>
        <time>2021-08-10T09:00:55Z</time>
      </trkpt>
      <trkpt lat="47.6212" lon="6.86167">
        <ele>351</ele>
        <time>2021-08-10T09:00:57Z</time>
      </trkpt>
      <trkpt lat="47.6212" lon="6.86168">
        <ele>351</ele>
        <time>2021-08-10T09:00:59Z</time>
      </trkpt>
      <trkpt lat="47.62187" lon="6.86159">
        <ele>351.5</ele>
        <time>2021-08-10T09:03:59Z</time>
      </trkpt>
      <trkpt lat="47.62177" lon="6.86158">
        <ele>351.1</ele>
        <time>2021-08-10T09:04:01Z</time>
      </trkpt>
      <trkpt lat="47.62174" lon="6.8616">
        <ele>351</ele>
        <time>2021-08-10T09:04:02Z</time>
      </trkpt>
      <trkpt lat="47.62172" lon="6.86161">
        <ele>350.9</ele>
        <time>2021-08-10T09:04:03Z</time>
      </trkpt>
      <trkpt lat="47.62169" lon="6.86168">
        <ele>350.9</ele>
        <time>2021-08-10T09:04:05Z</time>
      </trkpt>
      <trkpt lat="47.62168" lon="6.86172">
        <ele>351</ele>
        <time>2021-08-10T09:04:07Z</time>
      </trkpt>
      <trkpt lat="47.62168" lon="6.86173">
        <ele>351</ele>
        <time>2021-08-10T09:04:08Z</time>
      </trkpt>
      <trkpt lat="47.62168" lon="6.86173">
        <ele>351</ele>
        <time>2021-08-10T09:04:10Z</time>
      </trkpt>
      <trkpt lat="47.62168" lon="6.86173">
        <ele>350.9</ele>
        <time>2021-08-10T09:04:12Z</time>
      </trkpt>
      <trkpt lat="47.62164" lon="6.86175">
        <ele>350.9</ele>
        <time>2021-08-10T09:04:14Z</time>
      </trkpt>
      <trkpt lat="47.6216" lon="6.86177">
        <ele>350.8</ele>
        <time>2021-08-10T09:04:15Z</time>
      </trkpt>
      <trkpt lat="47.62133" lon="6.8622">
        <ele>351.6</ele>
        <time>2021-08-10T09:14:15Z</time>
      </trkpt>
      <trkpt lat="47.62134" lon="6.86222">
        <ele>351.6</ele>
        <time>2021-08-10T09:14:16Z</time>
      </trkpt>
      <trkpt lat="47.62135" lon="6.86224">
        <ele>351.6</ele>
        <time>2021-08-10T09:14:17Z</time>
      </trkpt>
      <trkpt lat="47.62135" lon="6.86229">
        <ele>351.6</ele>
        <time>2021-08-10T09:14:19Z</time>
      </trkpt>
      <trkpt lat="47.62135" lon="6.86232">
        <ele>351.7</ele>
        <time>2021-08-10T09:14:20Z</time>
      </trkpt>
      <trkpt lat="47.62138" lon="6.86238">
        <ele>351.8</ele>
        <time>2021-08-10T09:14:22Z</time>
      </trkpt>
      <trkpt lat="47.62139" lon="6.86239">
        <ele>351.9</ele>
        <time>2021-08-10T09:14:23Z</time>
      </trkpt>
      <trkpt lat="47.62143" lon="6.8624">
        <ele>352</ele>
        <time>2021-08-10T09:14:25Z</time>
      </trkpt>
      <trkpt lat="47.62148" lon="6.86243">
        <ele>352.2</ele>
        <time>2021-08-10T09:14:27Z</time>
      </trkpt>
      <trkpt lat="47.6215" lon="6.86244">
        <ele>352.2</ele>
        <time>2021-08-10T09:14:28Z</time>
      </trkpt>
      <trkpt lat="47.62151" lon="6.86245">
        <ele>352.2</ele>
        <time>2021-08-10T09:14:29Z</time>
      </trkpt>
      <trkpt lat="47.62151" lon="6.86249">
        <ele>352.3</ele>
        <time>2021-08-10T09:14:31Z</time>
      </trkpt>
      <trkpt lat="47.62151" lon="6.8625">
        <ele>352.3</ele>
        <time>2021-08-10T09:14:32Z</time>
      </trkpt>
      <trkpt lat="47.62148" lon="6.86255">
        <ele>352.3</ele>
        <time>2021-08-10T09:14:34Z</time>
      </trkpt>
      <trkpt lat="47.62147" lon="6.86256">
        <ele>352.4</ele>
        <time>2021-08-10T09:14:35Z</time>
      </trkpt>
      <trkpt lat="47.62145" lon="6.86257">
        <ele>352.4</ele>
        <time>2021-08-10T09:14:36Z</time>
      </trkpt>
      <trkpt lat="47.62142" lon="6.8626">
        <ele>352.3</ele>
        <time>2021-08-10T09:14:37Z</time>
      </trkpt>
      <trkpt lat="47.62141" lon="6.86262">
        <ele>352.3</ele>
        <time>2021-08-10T09:14:38Z</time>
      </trkpt>
      <trkpt lat="47.62135" lon="6.86269">
        <ele>352.2</ele>
        <time>2021-08-10T09:14:40Z</time>
      </trkpt>
      <trkpt lat="47.62133" lon="6.86272">
        <ele>352.2</ele>
        <time>2021-08-10T09:14:41Z</time>
      </trkpt>
      <trkpt lat="47.62127" lon="6.86277">
        <ele>352.1</ele>
        <time>2021-08-10T09:14:43Z</time>
      </trkpt>
      <trkpt lat="47.62124" lon="6.8628">
        <ele>352.1</ele>
        <time>2021-08-10T09:14:45Z</time>
      </trkpt>
      <trkpt lat="47.62121" lon="6.86282">
        <ele>352.1</ele>
        <time>2021-08-10T09:14:46Z</time>
      </trkpt>
      <trkpt lat="47.62116" lon="6.86284">
        <ele>352</ele>
        <time>2021-08-10T09:14:48Z</time>
      </trkpt>
      <trkpt lat="47.62114" lon="6.8629">
        <ele>352</ele>
        <time>2021-08-10T09:14:49Z</time>
      </trkpt>
      <trkpt lat="47.62114" lon="6.86292">
        <ele>352</ele>
        <time>2021-08-10T09:14:50Z</time>
      </trkpt>
      <trkpt lat="47.62113" lon="6.86302">
        <ele>352</ele>
        <time>2021-08-10T09:14:52Z</time>
      </trkpt>
      <trkpt lat="47.62114" lon="6.86311">
        <ele>351.9</ele>
        <time>2021-08-10T09:14:54Z</time>
      </trkpt>
      <trkpt lat="47.62113" lon="6.86318">
        <ele>351.9</ele>
        <time>2021-08-10T09:14:56Z</time>
      </trkpt>
      <trkpt lat="47.6211" lon="6.86322">
        <ele>351.9</ele>
        <time>2021-08-10T09:14:57Z</time>
      </trkpt>
      <trkpt lat="47.62105" lon="6.86324">
        <ele>351.9</ele>
        <time>2021-08-10T09:14:59Z</time>
      </trkpt>
      <trkpt lat="47.62102" lon="6.86325">
        <ele>351.9</ele>
        <time>2021-08-10T09:15:00Z</time>
      </trkpt>
      <trkpt lat="47.62096" lon="6.86326">
        <ele>351.9</ele>
        <time>2021-08-10T09:15:02Z</time>
      </trkpt>
      <trkpt lat="47.62091" lon="6.86327">
        <ele>351.9</ele>
        <time>2021-08-10T09:15:04Z</time>
      </trkpt>
      <trkpt lat="47.62087" lon="6.86322">
        <ele>351.9</ele>
        <time>2021-08-10T09:15:05Z</time>
      </trkpt>
      <trkpt lat="47.62084" lon="6.8632">
        <ele>351.9</ele>
        <time>2021-08-10T09:15:06Z</time>
      </trkpt>
      <trkpt lat="47.62078" lon="6.86318">
        <ele>351.9</ele>
        <time>2021-08-10T09:15:08Z</time>
      </trkpt>
      <trkpt lat="47.62076" lon="6.86317">
        <ele>351.9</ele>
        <time>2021-08-10T09:15:09Z</time>
      </trkpt>
      <trkpt lat="47.62071" lon="6.86315">
        <ele>351.9</ele>
        <time>2021-08-10T09:15:11Z</time>
      </trkpt>
      <trkpt lat="47.62066" lon="6.86315">
        <ele>351.9</ele>
        <time>2021-08-10T09:15:13Z</time>
      </trkpt>
      <trkpt lat="47.62065" lon="6.86315">
        <ele>351.9</ele>
        <time>2021-08-10T09:15:14Z</time>
      </trkpt>
      <trkpt lat="47.62062" lon="6.86314">
        <ele>351.9</ele>
        <time>2021-08-10T09:15:16Z</time>
      </trkpt>
      <trkpt lat="47.62059" lon="6.86313">
        <ele>351.9</ele>
        <time>2021-08-10T09:15:17Z</time>
      </trkpt>
      <trkpt lat="47.62058" lon="6.86313">
        <ele>351.9</ele>
        <time>2021-08-10T09:15:18Z</time>
      </trkpt>
      <trkpt lat="47.62054" lon="6.86313">
        <ele>352</ele>
        <time>2021-08-10T09:15:20Z</time>
      </trkpt>
      <trkpt lat="47.62053" lon="6.86315">
        <ele>351.9</ele>
        <time>2021-08-10T09:15:22Z</time>
      </trkpt>
      <trkpt lat="47.62052" lon="6.86317">
        <ele>351.8</ele>
        <time>2021-08-10T09:15:23Z</time>
      </trkpt>
      <trkpt lat="47.62052" lon="6.86322">
        <ele>351.8</ele>
        <time>2021-08-10T09:15:24Z</time>
      </trkpt>
      <trkpt lat="47.62051" lon="6.86324">
        <ele>351.8</ele>
        <time>2021-08-10T09:15:25Z</time>
      </trkpt>
      <trkpt lat="47.6205" lon="6.86329">
        <ele>351.8</ele>
        <time>2021-08-10T09:15:27Z</time>
      </trkpt>
      <trkpt lat="47.6205" lon="6.86334">
        <ele>351.7</ele>
        <time>2021-08-10T09:15:28Z</time>
      </trkpt>
      <trkpt lat="47.6205" lon="6.86336">
        <ele>351.7</ele>
        <time>2021-08-10T09:15:29Z</time>
      </trkpt>
      <trkpt lat="47.62051" lon="6.86339">
        <ele>351.7</ele>
        <time>2021-08-10T09:15:31Z</time>
      </trkpt>
      <trkpt lat="47.62053" lon="6.86341">
        <ele>351.7</ele>
        <time>2021-08-10T09:15:33Z</time>
      </trkpt>
      <trkpt lat="47.62053" lon="6.86344">
        <ele>351.7</ele>
        <time>2021-08-10T09:15:35Z</time>
      </trkpt>
      <trkpt lat="47.62052" lon="6.86347">
        <ele>351.6</ele>
        <time>2021-08-10T09:15:37Z</time>
      </trkpt>
      <trkpt lat="47.62051" lon="6.86349">
        <ele>351.6</ele>
        <time>2021-08-10T09:15:38Z</time>
      </trkpt>
      <trkpt lat="47.6205" lon="6.86352">
        <ele>351.6</ele>
        <time>2021-08-10T09:15:39Z</time>
      </trkpt>
      <trkpt lat="47.62047" lon="6.86357">
        <ele>351.5</ele>
        <time>2021-08-10T09:15:41Z</time>
      </trkpt>
      <trkpt lat="47.62045" lon="6.86358">
        <ele>351.5</ele>
        <time>2021-08-10T09:15:43Z</time>
      </trkpt>
      <trkpt lat="47.62045" lon="6.86355">
        <ele>351.4</ele>
        <time>2021-08-10T09:15:45Z</time>
      </trkpt>
      <trkpt lat="47.62045" lon="6.86353">
        <ele>351.4</ele>
        <time>2021-08-10T09:15:47Z</time>
      </trkpt>
      <trkpt lat="47.62045" lon="6.86351">
        <ele>351.4</ele>
        <time>2021-08-10T09:15:48Z</time>
      </trkpt>
      <trkpt lat="47.62041" lon="6.86346">
        <ele>351.3</ele>
        <time>2021-08-10T09:15:50Z</time>
      </trkpt>
      <trkpt lat="47.62037" lon="6.86344">
        <ele>351.2</ele>
        <time>2021-08-10T09:15:52Z</time>
      </trkpt>
      <trkpt lat="47.62033" lon="6.86339">
        <ele>351.2</ele>
        <time>2021-08-10T09:15:54Z</time>
      </trkpt>
      <trkpt lat="47.62029" lon="6.86337">
        <ele>351.2</ele>
        <time>2021-08-10T09:15:56Z</time>
      </trkpt>
      <trkpt lat="47.62027" lon="6.86338">
        <ele>351.1</ele>
        <time>2021-08-10T09:15:58Z</time>
      </trkpt>
      <trkpt lat="47.62025" lon="6.8634">
        <ele>351.1</ele>
        <time>2021-08-10T09:16:00Z</time>
      </trkpt>
      <trkpt lat="47.62023" lon="6.8634">
        <ele>351.1</ele>
        <time>2021-08-10T09:16:02Z</time>
      </trkpt>
      <trkpt lat="47.62021" lon="6.8634">
        <ele>351.1</ele>
        <time>2021-08-10T09:16:03Z</time>
      </trkpt>
      <trkpt lat="47.62018" lon="6.86342">
        <ele>351</ele>
        <time>2021-08-10T09:16:05Z</time>
      </trkpt>
      <trkpt lat="47.62018" lon="6.8634">
        <ele>351</ele>
        <time>2021-08-10T09:16:07Z</time>
      </trkpt>
      <trkpt lat="47.62018" lon="6.86339">
        <ele>351</ele>
        <time>2021-08-10T09:16:08Z</time>
      </trkpt>
      <trkpt lat="47.62011" lon="6.86338">
        <ele>351</ele>
        <time>2021-08-10T09:16:10Z</time>
      </trkpt>
      <trkpt lat="47.62004" lon="6.86339">
        <ele>350.9</ele>
        <time>2021-08-10T09:16:11Z</time>
      </trkpt>
      <trkpt lat="47.61991" lon="6.86339">
        <ele>350.8</ele>
        <time>2021-08-10T09:16:13Z</time>
      </trkpt>
      <trkpt lat="47.6198" lon="6.86337">
        <ele>350.8</ele>
        <time>2021-08-10T09:16:15Z</time>
      </trkpt>
      <trkpt lat="47.61976" lon="6.86337">
        <ele>350.7</ele>
        <time>2021-08-10T09:16:16Z</time>
      </trkpt>
      <trkpt lat="47.61972" lon="6.86336">
        <ele>350.7</ele>
        <time>2021-08-10T09:16:17Z</time>
      </trkpt>
      <trkpt lat="47.61961" lon="6.86339">
        <ele>350.7</ele>
        <time>2021-08-10T09:16:19Z</time>
      </trkpt>
      <trkpt lat="47.61954" lon="6.86341">
        <ele>350.6</ele>
        <time>2021-08-10T09:16:21Z</time>
      </trkpt>
      <trkpt lat="47.61947" lon="6.86343">
        <ele>350.6</ele>
        <time>2021-08-10T09:16:23Z</time>
      </trkpt>
      <trkpt lat="47.61943" lon="6.86345">
        <ele>350.6</ele>
        <time>2021-08-10T09:16:24Z</time>
      </trkpt>
      <trkpt lat="47.61942" lon="6.86346">
        <ele>350.6</ele>
        <time>2021-08-10T09:16:25Z</time>
      </trkpt>
      <trkpt lat="47.61937" lon="6.86349">
        <ele>350.6</ele>
        <time>2021-08-10T09:16:27Z</time>
      </trkpt>
      <trkpt lat="47.61933" lon="6.8635">
        <ele>350.6</ele>
        <time>2021-08-10T09:16:28Z</time>
      </trkpt>
      <trkpt lat="47.61929" lon="6.86352">
        <ele>350.6</ele>
        <time>2021-08-10T09:16:30Z</time>
      </trkpt>
      <trkpt lat="47.61926" lon="6.86353">
        <ele>350.6</ele>
        <time>2021-08-10T09:16:31Z</time>
      </trkpt>
      <trkpt lat="47.61914" lon="6.86358">
        <ele>350.5</ele>
        <time>2021-08-10T09:16:33Z</time>
      </trkpt>
      <trkpt lat="47.61907" lon="6.86361">
        <ele>350.5</ele>
        <time>2021-08-10T09:16:50Z</time>
      </trkpt>
      <trkpt lat="47.61899" lon="6.86364">
        <ele>350.5</ele>
        <time>2021-08-10T09:16:51Z</time>
      </trkpt>
      <trkpt lat="47.61882" lon="6.86372">
        <ele>350.4</ele>
        <time>2021-08-10T09:16:53Z</time>
      </trkpt>
      <trkpt lat="47.61875" lon="6.86376">
        <ele>350.4</ele>
        <time>2021-08-10T09:16:54Z</time>
      </trkpt>
      <trkpt lat="47.6186" lon="6.86383">
        <ele>350.3</ele>
        <time>2021-08-10T09:16:56Z</time>
      </trkpt>
      <trkpt lat="47.61853" lon="6.86385">
        <ele>350.3</ele>
        <time>2021-08-10T09:16:57Z</time>
      </trkpt>
      <trkpt lat="47.61848" lon="6.86387">
        <ele>350.3</ele>
        <time>2021-08-10T09:16:58Z</time>
      </trkpt>
      <trkpt lat="47.61837" lon="6.86388">
        <ele>350.4</ele>
        <time>2021-08-10T09:17:00Z</time>
      </trkpt>
      <trkpt lat="47.61832" lon="6.86389">
        <ele>350.4</ele>
        <time>2021-08-10T09:17:01Z</time>
      </trkpt>
      <trkpt lat="47.61824" lon="6.86389">
        <ele>350.4</ele>
        <time>2021-08-10T09:17:03Z</time>
      </trkpt>
      <trkpt lat="47.6182" lon="6.86391">
        <ele>350.5</ele>
        <time>2021-08-10T09:17:04Z</time>
      </trkpt>
      <trkpt lat="47.61817" lon="6.86393">
        <ele>350.5</ele>
        <time>2021-08-10T09:17:05Z</time>
      </trkpt>
      <trkpt lat="47.61814" lon="6.86399">
        <ele>350.5</ele>
        <time>2021-08-10T09:17:07Z</time>
      </trkpt>
      <trkpt lat="47.61812" lon="6.86405">
        <ele>350.5</ele>
        <time>2021-08-10T09:17:08Z</time>
      </trkpt>
      <trkpt lat="47.61811" lon="6.8641">
        <ele>350.5</ele>
        <time>2021-08-10T09:17:09Z</time>
      </trkpt>
      <trkpt lat="47.61811" lon="6.86415">
        <ele>350.5</ele>
        <time>2021-08-10T09:17:11Z</time>
      </trkpt>
      <trkpt lat="47.6181" lon="6.86421">
        <ele>350.5</ele>
        <time>2021-08-10T09:17:12Z</time>
      </trkpt>
      <trkpt lat="47.6181" lon="6.86428">
        <ele>350.5</ele>
        <time>2021-08-10T09:17:13Z</time>
      </trkpt>
      <trkpt lat="47.6181" lon="6.86439">
        <ele>350.5</ele>
        <time>2021-08-10T09:17:15Z</time>
      </trkpt>
      <trkpt lat="47.6181" lon="6.86446">
        <ele>350.5</ele>
        <time>2021-08-10T09:17:16Z</time>
      </trkpt>
      <trkpt lat="47.61809" lon="6.86453">
        <ele>350.5</ele>
        <time>2021-08-10T09:17:17Z</time>
      </trkpt>
      <trkpt lat="47.61809" lon="6.8646">
        <ele>350.5</ele>
        <time>2021-08-10T09:17:18Z</time>
      </trkpt>
      <trkpt lat="47.61809" lon="6.86466">
        <ele>350.5</ele>
        <time>2021-08-10T09:17:19Z</time>
      </trkpt>
      <trkpt lat="47.6181" lon="6.86472">
        <ele>350.5</ele>
        <time>2021-08-10T09:17:21Z</time>
      </trkpt>
      <trkpt lat="47.6181" lon="6.86479">
        <ele>350.5</ele>
        <time>2021-08-10T09:17:22Z</time>
      </trkpt>
      <trkpt lat="47.6181" lon="6.86485">
        <ele>350.5</ele>
        <time>2021-08-10T09:17:23Z</time>
      </trkpt>
      <trkpt lat="47.6181" lon="6.86493">
        <ele>350.5</ele>
        <time>2021-08-10T09:17:25Z</time>
      </trkpt>
      <trkpt lat="47.61808" lon="6.86497">
        <ele>350.5</ele>
        <time>2021-08-10T09:17:27Z</time>
      </trkpt>
      <trkpt lat="47.61806" lon="6.86498">
        <ele>350.4</ele>
        <time>2021-08-10T09:17:28Z</time>
      </trkpt>
      <trkpt lat="47.61801" lon="6.86499">
        <ele>350.4</ele>
        <time>2021-08-10T09:17:30Z</time>
      </trkpt>
      <trkpt lat="47.61796" lon="6.86498">
        <ele>350.3</ele>
        <time>2021-08-10T09:17:31Z</time>
      </trkpt>
      <trkpt lat="47.61792" lon="6.86496">
        <ele>350.3</ele>
        <time>2021-08-10T09:17:32Z</time>
      </trkpt>
      <trkpt lat="47.61788" lon="6.86495">
        <ele>350.2</ele>
        <time>2021-08-10T09:17:33Z</time>
      </trkpt>
      <trkpt lat="47.61783" lon="6.86493">
        <ele>350.2</ele>
        <time>2021-08-10T09:17:34Z</time>
      </trkpt>
      <trkpt lat="47.61778" lon="6.86491">
        <ele>350.1</ele>
        <time>2021-08-10T09:17:36Z</time>
      </trkpt>
      <trkpt lat="47.61773" lon="6.86489">
        <ele>350</ele>
        <time>2021-08-10T09:17:37Z</time>
      </trkpt>
      <trkpt lat="47.61761" lon="6.86489">
        <ele>350</ele>
        <time>2021-08-10T09:17:39Z</time>
      </trkpt>
      <trkpt lat="47.61755" lon="6.8649">
        <ele>349.9</ele>
        <time>2021-08-10T09:17:40Z</time>
      </trkpt>
      <trkpt lat="47.61746" lon="6.86489">
        <ele>349.9</ele>
        <time>2021-08-10T09:17:42Z</time>
      </trkpt>
      <trkpt lat="47.6174" lon="6.86492">
        <ele>349.9</ele>
        <time>2021-08-10T09:17:44Z</time>
      </trkpt>
      <trkpt lat="47.61736" lon="6.86492">
        <ele>349.9</ele>
        <time>2021-08-10T09:17:45Z</time>
      </trkpt>
      <trkpt lat="47.61729" lon="6.86495">
        <ele>349.9</ele>
        <time>2021-08-10T09:17:47Z</time>
      </trkpt>
      <trkpt lat="47.61726" lon="6.86495">
        <ele>350</ele>
        <time>2021-08-10T09:17:48Z</time>
      </trkpt>
      <trkpt lat="47.61722" lon="6.86497">
        <ele>350</ele>
        <time>2021-08-10T09:17:50Z</time>
      </trkpt>
      <trkpt lat="47.61715" lon="6.86499">
        <ele>350</ele>
        <time>2021-08-10T09:17:52Z</time>
      </trkpt>
      <trkpt lat="47.61711" lon="6.865">
        <ele>350</ele>
        <time>2021-08-10T09:17:53Z</time>
      </trkpt>
      <trkpt lat="47.61702" lon="6.86502">
        <ele>349.9</ele>
        <time>2021-08-10T09:17:55Z</time>
      </trkpt>
      <trkpt lat="47.61695" lon="6.865">
        <ele>349.9</ele>
        <time>2021-08-10T09:17:57Z</time>
      </trkpt>
      <trkpt lat="47.61687" lon="6.86496">
        <ele>349.9</ele>
        <time>2021-08-10T09:17:59Z</time>
      </trkpt>
      <trkpt lat="47.61678" lon="6.86488">
        <ele>349.9</ele>
        <time>2021-08-10T09:18:01Z</time>
      </trkpt>
      <trkpt lat="47.6167" lon="6.86481">
        <ele>349.8</ele>
        <time>2021-08-10T09:18:03Z</time>
      </trkpt>
      <trkpt lat="47.61667" lon="6.86477">
        <ele>349.8</ele>
        <time>2021-08-10T09:18:04Z</time>
      </trkpt>
      <trkpt lat="47.61661" lon="6.86469">
        <ele>349.8</ele>
        <time>2021-08-10T09:18:06Z</time>
      </trkpt>
      <trkpt lat="47.61658" lon="6.86466">
        <ele>349.8</ele>
        <time>2021-08-10T09:18:07Z</time>
      </trkpt>
      <trkpt lat="47.61651" lon="6.86459">
        <ele>349.7</ele>
        <time>2021-08-10T09:18:09Z</time>
      </trkpt>
      <trkpt lat="47.61642" lon="6.86453">
        <ele>349.7</ele>
        <time>2021-08-10T09:18:11Z</time>
      </trkpt>
      <trkpt lat="47.61637" lon="6.86449">
        <ele>349.7</ele>
        <time>2021-08-10T09:18:13Z</time>
      </trkpt>
      <trkpt lat="47.61629" lon="6.86443">
        <ele>349.6</ele>
        <time>2021-08-10T09:18:15Z</time>
      </trkpt>
      <trkpt lat="47.61622" lon="6.86438">
        <ele>349.6</ele>
        <time>2021-08-10T09:18:17Z</time>
      </trkpt>
      <trkpt lat="47.61613" lon="6.86433">
        <ele>349.5</ele>
        <time>2021-08-10T09:18:19Z</time>
      </trkpt>
      <trkpt lat="47.61605" lon="6.86425">
        <ele>349.4</ele>
        <time>2021-08-10T09:18:21Z</time>
      </trkpt>
      <trkpt lat="47.61602" lon="6.86421">
        <ele>349.4</ele>
        <time>2021-08-10T09:18:22Z</time>
      </trkpt>
      <trkpt lat="47.61598" lon="6.86416">
        <ele>349.4</ele>
        <time>2021-08-10T09:18:23Z</time>
      </trkpt>
      <trkpt lat="47.61595" lon="6.86412">
        <ele>349.4</ele>
        <time>2021-08-10T09:18:24Z</time>
      </trkpt>
      <trkpt lat="47.61592" lon="6.86407">
        <ele>349.4</ele>
        <time>2021-08-10T09:18:25Z</time>
      </trkpt>
      <trkpt lat="47.61588" lon="6.86398">
        <ele>349.4</ele>
        <time>2021-08-10T09:18:27Z</time>
      </trkpt>
      <trkpt lat="47.61586" lon="6.86386">
        <ele>349.3</ele>
        <time>2021-08-10T09:18:29Z</time>
      </trkpt>
      <trkpt lat="47.61585" lon="6.86381">
        <ele>349.3</ele>
        <time>2021-08-10T09:18:30Z</time>
      </trkpt>
      <trkpt lat="47.61583" lon="6.86369">
        <ele>349.2</ele>
        <time>2021-08-10T09:18:32Z</time>
      </trkpt>
      <trkpt lat="47.61579" lon="6.8636">
        <ele>349.2</ele>
        <time>2021-08-10T09:18:34Z</time>
      </trkpt>
      <trkpt lat="47.61573" lon="6.86353">
        <ele>349.1</ele>
        <time>2021-08-10T09:18:36Z</time>
      </trkpt>
      <trkpt lat="47.61572" lon="6.86349">
        <ele>349.1</ele>
        <time>2021-08-10T09:18:37Z</time>
      </trkpt>
      <trkpt lat="47.61566" lon="6.86343">
        <ele>349.1</ele>
        <time>2021-08-10T09:18:39Z</time>
      </trkpt>
      <trkpt lat="47.61563" lon="6.8634">
        <ele>349</ele>
        <time>2021-08-10T09:18:40Z</time>
      </trkpt>
      <trkpt lat="47.61559" lon="6.86337">
        <ele>349</ele>
        <time>2021-08-10T09:18:41Z</time>
      </trkpt>
      <trkpt lat="47.61555" lon="6.86333">
        <ele>349</ele>
        <time>2021-08-10T09:18:42Z</time>
      </trkpt>
      <trkpt lat="47.61552" lon="6.86332">
        <ele>349</ele>
        <time>2021-08-10T09:18:43Z</time>
      </trkpt>
      <trkpt lat="47.61544" lon="6.86329">
        <ele>348.9</ele>
        <time>2021-08-10T09:18:45Z</time>
      </trkpt>
      <trkpt lat="47.6154" lon="6.86328">
        <ele>348.9</ele>
        <time>2021-08-10T09:18:46Z</time>
      </trkpt>
      <trkpt lat="47.61532" lon="6.86325">
        <ele>348.9</ele>
        <time>2021-08-10T09:18:48Z</time>
      </trkpt>
      <trkpt lat="47.61527" lon="6.86322">
        <ele>348.9</ele>
        <time>2021-08-10T09:18:50Z</time>
      </trkpt>
      <trkpt lat="47.61522" lon="6.8632">
        <ele>348.9</ele>
        <time>2021-08-10T09:18:51Z</time>
      </trkpt>
      <trkpt lat="47.61518" lon="6.86318">
        <ele>348.9</ele>
        <time>2021-08-10T09:18:52Z</time>
      </trkpt>
      <trkpt lat="47.61513" lon="6.86315">
        <ele>348.9</ele>
        <time>2021-08-10T09:18:53Z</time>
      </trkpt>
      <trkpt lat="47.61509" lon="6.86311">
        <ele>348.9</ele>
        <time>2021-08-10T09:18:55Z</time>
      </trkpt>
      <trkpt lat="47.61505" lon="6.86307">
        <ele>348.9</ele>
        <time>2021-08-10T09:18:56Z</time>
      </trkpt>
      <trkpt lat="47.61499" lon="6.863">
        <ele>349</ele>
        <time>2021-08-10T09:18:58Z</time>
      </trkpt>
      <trkpt lat="47.61497" lon="6.86297">
        <ele>349</ele>
        <time>2021-08-10T09:18:59Z</time>
      </trkpt>
      <trkpt lat="47.61494" lon="6.8629">
        <ele>349.1</ele>
        <time>2021-08-10T09:19:01Z</time>
      </trkpt>
      <trkpt lat="47.61492" lon="6.86286">
        <ele>349.1</ele>
        <time>2021-08-10T09:19:03Z</time>
      </trkpt>
      <trkpt lat="47.61491" lon="6.86284">
        <ele>349.1</ele>
        <time>2021-08-10T09:19:04Z</time>
      </trkpt>
      <trkpt lat="47.61489" lon="6.86282">
        <ele>349.2</ele>
        <time>2021-08-10T09:19:06Z</time>
      </trkpt>
      <trkpt lat="47.61489" lon="6.86281">
        <ele>349.2</ele>
        <time>2021-08-10T09:19:07Z</time>
      </trkpt>
      <trkpt lat="47.61491" lon="6.8628">
        <ele>349.2</ele>
        <time>2021-08-10T09:19:09Z</time>
      </trkpt>
      <trkpt lat="47.61491" lon="6.8628">
        <ele>349.2</ele>
        <time>2021-08-10T09:19:10Z</time>
      </trkpt>
      <trkpt lat="47.61491" lon="6.8628">
        <ele>349.2</ele>
        <time>2021-08-10T09:19:12Z</time>
      </trkpt>
      <trkpt lat="47.6149" lon="6.8628">
        <ele>349.2</ele>
        <time>2021-08-10T09:19:14Z</time>
      </trkpt>
      <trkpt lat="47.6149" lon="6.86279">
        <ele>349.2</ele>
        <time>2021-08-10T09:19:15Z</time>
      </trkpt>
      <trkpt lat="47.6149" lon="6.86279">
        <ele>349.2</ele>
        <time>2021-08-10T09:19:17Z</time>
      </trkpt>
      <trkpt lat="47.6149" lon="6.86277">
        <ele>349.2</ele>
        <time>2021-08-10T09:19:19Z</time>
      </trkpt>
      <trkpt lat="47.61489" lon="6.86272">
        <ele>349.2</ele>
        <time>2021-08-10T09:19:20Z</time>
      </trkpt>
      <trkpt lat="47.61487" lon="6.86261">
        <ele>349.2</ele>
        <time>2021-08-10T09:19:22Z</time>
      </trkpt>
      <trkpt lat="47.61483" lon="6.86249">
        <ele>349.1</ele>
        <time>2021-08-10T09:19:24Z</time>
      </trkpt>
      <trkpt lat="47.61477" lon="6.86242">
        <ele>349.1</ele>
        <time>2021-08-10T09:19:26Z</time>
      </trkpt>
      <trkpt lat="47.61472" lon="6.86237">
        <ele>349</ele>
        <time>2021-08-10T09:19:27Z</time>
      </trkpt>
      <trkpt lat="47.61462" lon="6.86232">
        <ele>349</ele>
        <time>2021-08-10T09:19:28Z</time>
      </trkpt>
      <trkpt lat="47.61453" lon="6.86228">
        <ele>348.9</ele>
        <time>2021-08-10T09:19:30Z</time>
      </trkpt>
      <trkpt lat="47.61449" lon="6.86225">
        <ele>348.9</ele>
        <time>2021-08-10T09:19:31Z</time>
      </trkpt>
      <trkpt lat="47.61444" lon="6.86221">
        <ele>348.9</ele>
        <time>2021-08-10T09:19:32Z</time>
      </trkpt>
      <trkpt lat="47.61438" lon="6.86217">
        <ele>348.8</ele>
        <time>2021-08-10T09:19:34Z</time>
      </trkpt>
      <trkpt lat="47.61433" lon="6.86214">
        <ele>348.8</ele>
        <time>2021-08-10T09:19:35Z</time>
      </trkpt>
      <trkpt lat="47.61428" lon="6.86209">
        <ele>348.8</ele>
        <time>2021-08-10T09:19:37Z</time>
      </trkpt>
      <trkpt lat="47.61423" lon="6.86207">
        <ele>348.8</ele>
        <time>2021-08-10T09:19:38Z</time>
      </trkpt>
      <trkpt lat="47.6142" lon="6.86206">
        <ele>348.7</ele>
        <time>2021-08-10T09:19:39Z</time>
      </trkpt>
      <trkpt lat="47.61417" lon="6.86205">
        <ele>348.7</ele>
        <time>2021-08-10T09:19:40Z</time>
      </trkpt>
      <trkpt lat="47.61409" lon="6.86203">
        <ele>348.7</ele>
        <time>2021-08-10T09:19:42Z</time>
      </trkpt>
      <trkpt lat="47.61401" lon="6.862">
        <ele>348.6</ele>
        <time>2021-08-10T09:19:44Z</time>
      </trkpt>
      <trkpt lat="47.61394" lon="6.86195">
        <ele>348.5</ele>
        <time>2021-08-10T09:19:46Z</time>
      </trkpt>
      <trkpt lat="47.6139" lon="6.86193">
        <ele>348.5</ele>
        <time>2021-08-10T09:19:47Z</time>
      </trkpt>
      <trkpt lat="47.61381" lon="6.86191">
        <ele>348.4</ele>
        <time>2021-08-10T09:19:49Z</time>
      </trkpt>
      <trkpt lat="47.61376" lon="6.86191">
        <ele>348.3</ele>
        <time>2021-08-10T09:19:50Z</time>
      </trkpt>
      <trkpt lat="47.61371" lon="6.86191">
        <ele>348.3</ele>
        <time>2021-08-10T09:19:51Z</time>
      </trkpt>
      <trkpt lat="47.61364" lon="6.86189">
        <ele>348.2</ele>
        <time>2021-08-10T09:19:53Z</time>
      </trkpt>
      <trkpt lat="47.61359" lon="6.86187">
        <ele>348.1</ele>
        <time>2021-08-10T09:19:54Z</time>
      </trkpt>
      <trkpt lat="47.61354" lon="6.86184">
        <ele>348</ele>
        <time>2021-08-10T09:19:55Z</time>
      </trkpt>
      <trkpt lat="47.61347" lon="6.86176">
        <ele>347.9</ele>
        <time>2021-08-10T09:19:57Z</time>
      </trkpt>
      <trkpt lat="47.61343" lon="6.86173">
        <ele>347.8</ele>
        <time>2021-08-10T09:19:58Z</time>
      </trkpt>
      <trkpt lat="47.61339" lon="6.8617">
        <ele>347.8</ele>
        <time>2021-08-10T09:19:59Z</time>
      </trkpt>
      <trkpt lat="47.61334" lon="6.86164">
        <ele>347.7</ele>
        <time>2021-08-10T09:20:01Z</time>
      </trkpt>
      <trkpt lat="47.61333" lon="6.86162">
        <ele>347.7</ele>
        <time>2021-08-10T09:20:02Z</time>
      </trkpt>
      <trkpt lat="47.61331" lon="6.86158">
        <ele>347.7</ele>
        <time>2021-08-10T09:20:04Z</time>
      </trkpt>
      <trkpt lat="47.61329" lon="6.86156">
        <ele>347.7</ele>
        <time>2021-08-10T09:20:05Z</time>
      </trkpt>
      <trkpt lat="47.6133" lon="6.86154">
        <ele>347.7</ele>
        <time>2021-08-10T09:20:07Z</time>
      </trkpt>
      <trkpt lat="47.61331" lon="6.86153">
        <ele>347.7</ele>
        <time>2021-08-10T09:20:09Z</time>
      </trkpt>
      <trkpt lat="47.61332" lon="6.86152">
        <ele>347.7</ele>
        <time>2021-08-10T09:20:11Z</time>
      </trkpt>
      <trkpt lat="47.61332" lon="6.86152">
        <ele>347.7</ele>
        <time>2021-08-10T09:20:12Z</time>
      </trkpt>
      <trkpt lat="47.61333" lon="6.86144">
        <ele>347.7</ele>
        <time>2021-08-10T09:20:14Z</time>
      </trkpt>
      <trkpt lat="47.61332" lon="6.86138">
        <ele>347.7</ele>
        <time>2021-08-10T09:20:16Z</time>
      </trkpt>
      <trkpt lat="47.61324" lon="6.86134">
        <ele>347.6</ele>
        <time>2021-08-10T09:20:20Z</time>
      </trkpt>
      <trkpt lat="47.61322" lon="6.86134">
        <ele>347.6</ele>
        <time>2021-08-10T09:20:22Z</time>
      </trkpt>
      <trkpt lat="47.6132" lon="6.86134">
        <ele>347.6</ele>
        <time>2021-08-10T09:20:24Z</time>
      </trkpt>
      <trkpt lat="47.61318" lon="6.86135">
        <ele>347.6</ele>
        <time>2021-08-10T09:20:25Z</time>
      </trkpt>
      <trkpt lat="47.61313" lon="6.86135">
        <ele>347.5</ele>
        <time>2021-08-10T09:20:27Z</time>
      </trkpt>
      <trkpt lat="47.6131" lon="6.86136">
        <ele>347.4</ele>
        <time>2021-08-10T09:20:28Z</time>
      </trkpt>
      <trkpt lat="47.61306" lon="6.86137">
        <ele>347.3</ele>
        <time>2021-08-10T09:20:29Z</time>
      </trkpt>
      <trkpt lat="47.61301" lon="6.86144">
        <ele>347.1</ele>
        <time>2021-08-10T09:20:31Z</time>
      </trkpt>
      <trkpt lat="47.61298" lon="6.86153">
        <ele>346.9</ele>
        <time>2021-08-10T09:20:33Z</time>
      </trkpt>
      <trkpt lat="47.61297" lon="6.86157">
        <ele>346.8</ele>
        <time>2021-08-10T09:20:34Z</time>
      </trkpt>
      <trkpt lat="47.61295" lon="6.86162">
        <ele>346.7</ele>
        <time>2021-08-10T09:20:35Z</time>
      </trkpt>
      <trkpt lat="47.61288" lon="6.86174">
        <ele>346.4</ele>
        <time>2021-08-10T09:20:37Z</time>
      </trkpt>
      <trkpt lat="47.6128" lon="6.86186">
        <ele>346.2</ele>
        <time>2021-08-10T09:20:39Z</time>
      </trkpt>
      <trkpt lat="47.61277" lon="6.86191">
        <ele>346.2</ele>
        <time>2021-08-10T09:20:40Z</time>
      </trkpt>
      <trkpt lat="47.61274" lon="6.86197">
        <ele>346.1</ele>
        <time>2021-08-10T09:20:41Z</time>
      </trkpt>
      <trkpt lat="47.61271" lon="6.86204">
        <ele>346</ele>
        <time>2021-08-10T09:20:43Z</time>
      </trkpt>
      <trkpt lat="47.61266" lon="6.86212">
        <ele>346</ele>
        <time>2021-08-10T09:20:45Z</time>
      </trkpt>
      <trkpt lat="47.61259" lon="6.86223">
        <ele>345.9</ele>
        <time>2021-08-10T09:20:47Z</time>
      </trkpt>
      <trkpt lat="47.61255" lon="6.86228">
        <ele>345.8</ele>
        <time>2021-08-10T09:20:48Z</time>
      </trkpt>
      <trkpt lat="47.6125" lon="6.86233">
        <ele>345.8</ele>
        <time>2021-08-10T09:20:49Z</time>
      </trkpt>
      <trkpt lat="47.61242" lon="6.86243">
        <ele>345.8</ele>
        <time>2021-08-10T09:20:51Z</time>
      </trkpt>
      <trkpt lat="47.61235" lon="6.86251">
        <ele>345.8</ele>
        <time>2021-08-10T09:20:53Z</time>
      </trkpt>
      <trkpt lat="47.61226" lon="6.86259">
        <ele>345.8</ele>
        <time>2021-08-10T09:20:55Z</time>
      </trkpt>
      <trkpt lat="47.61222" lon="6.86264">
        <ele>345.8</ele>
        <time>2021-08-10T09:20:56Z</time>
      </trkpt>
      <trkpt lat="47.61214" lon="6.86274">
        <ele>345.8</ele>
        <time>2021-08-10T09:20:58Z</time>
      </trkpt>
      <trkpt lat="47.6121" lon="6.86279">
        <ele>345.7</ele>
        <time>2021-08-10T09:20:59Z</time>
      </trkpt>
      <trkpt lat="47.61202" lon="6.86286">
        <ele>345.7</ele>
        <time>2021-08-10T09:21:01Z</time>
      </trkpt>
      <trkpt lat="47.61198" lon="6.8629">
        <ele>345.6</ele>
        <time>2021-08-10T09:21:02Z</time>
      </trkpt>
      <trkpt lat="47.61194" lon="6.86294">
        <ele>345.6</ele>
        <time>2021-08-10T09:21:04Z</time>
      </trkpt>
      <trkpt lat="47.61187" lon="6.86299">
        <ele>345.6</ele>
        <time>2021-08-10T09:21:05Z</time>
      </trkpt>
      <trkpt lat="47.6118" lon="6.86302">
        <ele>345.6</ele>
        <time>2021-08-10T09:21:06Z</time>
      </trkpt>
      <trkpt lat="47.61173" lon="6.86304">
        <ele>345.5</ele>
        <time>2021-08-10T09:21:07Z</time>
      </trkpt>
      <trkpt lat="47.61157" lon="6.86308">
        <ele>345.5</ele>
        <time>2021-08-10T09:21:09Z</time>
      </trkpt>
      <trkpt lat="47.61151" lon="6.86312">
        <ele>345.5</ele>
        <time>2021-08-10T09:21:10Z</time>
      </trkpt>
      <trkpt lat="47.6114" lon="6.86319">
        <ele>345.4</ele>
        <time>2021-08-10T09:21:12Z</time>
      </trkpt>
      <trkpt lat="47.61133" lon="6.86327">
        <ele>345.4</ele>
        <time>2021-08-10T09:21:14Z</time>
      </trkpt>
      <trkpt lat="47.61126" lon="6.86339">
        <ele>345.4</ele>
        <time>2021-08-10T09:21:16Z</time>
      </trkpt>
      <trkpt lat="47.61121" lon="6.86344">
        <ele>345.4</ele>
        <time>2021-08-10T09:21:17Z</time>
      </trkpt>
      <trkpt lat="47.61113" lon="6.8635">
        <ele>345.4</ele>
        <time>2021-08-10T09:21:19Z</time>
      </trkpt>
      <trkpt lat="47.61107" lon="6.86355">
        <ele>345.4</ele>
        <time>2021-08-10T09:21:21Z</time>
      </trkpt>
      <trkpt lat="47.61104" lon="6.86356">
        <ele>345.5</ele>
        <time>2021-08-10T09:21:22Z</time>
      </trkpt>
      <trkpt lat="47.61101" lon="6.86356">
        <ele>345.5</ele>
        <time>2021-08-10T09:21:23Z</time>
      </trkpt>
      <trkpt lat="47.61096" lon="6.86357">
        <ele>345.5</ele>
        <time>2021-08-10T09:21:25Z</time>
      </trkpt>
      <trkpt lat="47.61095" lon="6.86358">
        <ele>345.5</ele>
        <time>2021-08-10T09:21:26Z</time>
      </trkpt>
      <trkpt lat="47.61094" lon="6.86358">
        <ele>345.5</ele>
        <time>2021-08-10T09:21:27Z</time>
      </trkpt>
      <trkpt lat="47.61091" lon="6.8636">
        <ele>345.5</ele>
        <time>2021-08-10T09:21:28Z</time>
      </trkpt>
      <trkpt lat="47.61089" lon="6.8636">
        <ele>345.5</ele>
        <time>2021-08-10T09:21:29Z</time>
      </trkpt>
      <trkpt lat="47.61079" lon="6.8636">
        <ele>345.5</ele>
        <time>2021-08-10T09:21:31Z</time>
      </trkpt>
      <trkpt lat="47.61074" lon="6.86363">
        <ele>345.4</ele>
        <time>2021-08-10T09:21:32Z</time>
      </trkpt>
      <trkpt lat="47.61065" lon="6.86367">
        <ele>345.4</ele>
        <time>2021-08-10T09:21:34Z</time>
      </trkpt>
      <trkpt lat="47.61062" lon="6.86369">
        <ele>345.3</ele>
        <time>2021-08-10T09:21:35Z</time>
      </trkpt>
      <trkpt lat="47.61059" lon="6.86371">
        <ele>345.3</ele>
        <time>2021-08-10T09:21:36Z</time>
      </trkpt>
      <trkpt lat="47.61052" lon="6.86376">
        <ele>345.2</ele>
        <time>2021-08-10T09:21:38Z</time>
      </trkpt>
      <trkpt lat="47.61049" lon="6.86379">
        <ele>345.2</ele>
        <time>2021-08-10T09:21:39Z</time>
      </trkpt>
      <trkpt lat="47.61045" lon="6.86383">
        <ele>345.1</ele>
        <time>2021-08-10T09:21:40Z</time>
      </trkpt>
      <trkpt lat="47.61042" lon="6.86387">
        <ele>345.1</ele>
        <time>2021-08-10T09:21:41Z</time>
      </trkpt>
      <trkpt lat="47.61035" lon="6.86395">
        <ele>345</ele>
        <time>2021-08-10T09:21:43Z</time>
      </trkpt>
      <trkpt lat="47.61034" lon="6.86398">
        <ele>344.9</ele>
        <time>2021-08-10T09:21:44Z</time>
      </trkpt>
      <trkpt lat="47.61028" lon="6.86406">
        <ele>344.8</ele>
        <time>2021-08-10T09:21:46Z</time>
      </trkpt>
      <trkpt lat="47.61024" lon="6.8641">
        <ele>344.8</ele>
        <time>2021-08-10T09:21:47Z</time>
      </trkpt>
      <trkpt lat="47.61018" lon="6.86418">
        <ele>344.6</ele>
        <time>2021-08-10T09:21:49Z</time>
      </trkpt>
      <trkpt lat="47.61016" lon="6.8642">
        <ele>344.6</ele>
        <time>2021-08-10T09:21:50Z</time>
      </trkpt>
      <trkpt lat="47.6101" lon="6.8643">
        <ele>344.5</ele>
        <time>2021-08-10T09:21:52Z</time>
      </trkpt>
      <trkpt lat="47.61006" lon="6.86435">
        <ele>344.5</ele>
        <time>2021-08-10T09:21:53Z</time>
      </trkpt>
      <trkpt lat="47.61002" lon="6.86439">
        <ele>344.4</ele>
        <time>2021-08-10T09:21:54Z</time>
      </trkpt>
      <trkpt lat="47.60993" lon="6.86445">
        <ele>344.4</ele>
        <time>2021-08-10T09:21:56Z</time>
      </trkpt>
      <trkpt lat="47.60988" lon="6.86449">
        <ele>344.3</ele>
        <time>2021-08-10T09:21:57Z</time>
      </trkpt>
      <trkpt lat="47.60979" lon="6.86457">
        <ele>344.2</ele>
        <time>2021-08-10T09:21:59Z</time>
      </trkpt>
      <trkpt lat="47.60975" lon="6.86459">
        <ele>344.2</ele>
        <time>2021-08-10T09:22:00Z</time>
      </trkpt>
      <trkpt lat="47.60969" lon="6.86466">
        <ele>344.2</ele>
        <time>2021-08-10T09:22:02Z</time>
      </trkpt>
      <trkpt lat="47.60962" lon="6.86472">
        <ele>344.2</ele>
        <time>2021-08-10T09:22:04Z</time>
      </trkpt>
      <trkpt lat="47.60958" lon="6.86475">
        <ele>344.2</ele>
        <time>2021-08-10T09:22:05Z</time>
      </trkpt>
      <trkpt lat="47.60954" lon="6.86477">
        <ele>344.2</ele>
        <time>2021-08-10T09:22:06Z</time>
      </trkpt>
      <trkpt lat="47.60946" lon="6.86481">
        <ele>344.2</ele>
        <time>2021-08-10T09:22:08Z</time>
      </trkpt>
      <trkpt lat="47.6094" lon="6.86488">
        <ele>344.2</ele>
        <time>2021-08-10T09:22:10Z</time>
      </trkpt>
      <trkpt lat="47.60937" lon="6.86492">
        <ele>344.2</ele>
        <time>2021-08-10T09:22:11Z</time>
      </trkpt>
      <trkpt lat="47.60935" lon="6.86496">
        <ele>344.2</ele>
        <time>2021-08-10T09:22:12Z</time>
      </trkpt>
      <trkpt lat="47.60928" lon="6.86503">
        <ele>344.2</ele>
        <time>2021-08-10T09:22:14Z</time>
      </trkpt>
      <trkpt lat="47.60924" lon="6.86504">
        <ele>344.2</ele>
        <time>2021-08-10T09:22:15Z</time>
      </trkpt>
      <trkpt lat="47.60919" lon="6.86503">
        <ele>344.3</ele>
        <time>2021-08-10T09:22:16Z</time>
      </trkpt>
      <trkpt lat="47.6091" lon="6.86501">
        <ele>344.3</ele>
        <time>2021-08-10T09:22:18Z</time>
      </trkpt>
      <trkpt lat="47.60908" lon="6.86499">
        <ele>344.3</ele>
        <time>2021-08-10T09:22:19Z</time>
      </trkpt>
      <trkpt lat="47.60905" lon="6.86497">
        <ele>344.3</ele>
        <time>2021-08-10T09:22:20Z</time>
      </trkpt>
      <trkpt lat="47.60901" lon="6.86491">
        <ele>344.3</ele>
        <time>2021-08-10T09:22:22Z</time>
      </trkpt>
      <trkpt lat="47.60899" lon="6.86486">
        <ele>344.3</ele>
        <time>2021-08-10T09:22:23Z</time>
      </trkpt>
      <trkpt lat="47.60898" lon="6.86484">
        <ele>344.3</ele>
        <time>2021-08-10T09:22:24Z</time>
      </trkpt>
      <trkpt lat="47.60894" lon="6.86477">
        <ele>344.3</ele>
        <time>2021-08-10T09:22:26Z</time>
      </trkpt>
      <trkpt lat="47.60891" lon="6.86474">
        <ele>344.3</ele>
        <time>2021-08-10T09:22:27Z</time>
      </trkpt>
      <trkpt lat="47.60884" lon="6.86473">
        <ele>344.3</ele>
        <time>2021-08-10T09:22:29Z</time>
      </trkpt>
      <trkpt lat="47.60875" lon="6.8647">
        <ele>344.4</ele>
        <time>2021-08-10T09:22:30Z</time>
      </trkpt>
      <trkpt lat="47.60868" lon="6.86465">
        <ele>344.4</ele>
        <time>2021-08-10T09:22:31Z</time>
      </trkpt>
      <trkpt lat="47.60872" lon="6.86465">
        <ele>344.4</ele>
        <time>2021-08-10T09:22:33Z</time>
      </trkpt>
      <trkpt lat="47.60875" lon="6.86466">
        <ele>344.5</ele>
        <time>2021-08-10T09:22:34Z</time>
      </trkpt>
      <trkpt lat="47.60873" lon="6.86462">
        <ele>344.5</ele>
        <time>2021-08-10T09:22:35Z</time>
      </trkpt>
      <trkpt lat="47.60869" lon="6.86459">
        <ele>344.5</ele>
        <time>2021-08-10T09:22:36Z</time>
      </trkpt>
      <trkpt lat="47.60857" lon="6.86447">
        <ele>344.5</ele>
        <time>2021-08-10T09:22:38Z</time>
      </trkpt>
      <trkpt lat="47.60854" lon="6.86445">
        <ele>344.5</ele>
        <time>2021-08-10T09:22:40Z</time>
      </trkpt>
      <trkpt lat="47.6085" lon="6.86444">
        <ele>344.5</ele>
        <time>2021-08-10T09:22:42Z</time>
      </trkpt>
      <trkpt lat="47.60846" lon="6.86443">
        <ele>344.4</ele>
        <time>2021-08-10T09:22:43Z</time>
      </trkpt>
      <trkpt lat="47.60844" lon="6.86443">
        <ele>344.4</ele>
        <time>2021-08-10T09:22:44Z</time>
      </trkpt>
      <trkpt lat="47.60827" lon="6.86448">
        <ele>344.3</ele>
        <time>2021-08-10T09:22:56Z</time>
      </trkpt>
      <trkpt lat="47.60824" lon="6.86452">
        <ele>344.3</ele>
        <time>2021-08-10T09:22:57Z</time>
      </trkpt>
      <trkpt lat="47.60814" lon="6.86458">
        <ele>344.2</ele>
        <time>2021-08-10T09:22:59Z</time>
      </trkpt>
      <trkpt lat="47.60809" lon="6.86463">
        <ele>344.2</ele>
        <time>2021-08-10T09:23:00Z</time>
      </trkpt>
      <trkpt lat="47.60806" lon="6.86468">
        <ele>344.2</ele>
        <time>2021-08-10T09:23:01Z</time>
      </trkpt>
      <trkpt lat="47.60801" lon="6.86479">
        <ele>344.2</ele>
        <time>2021-08-10T09:23:03Z</time>
      </trkpt>
      <trkpt lat="47.60798" lon="6.86485">
        <ele>344.2</ele>
        <time>2021-08-10T09:23:04Z</time>
      </trkpt>
      <trkpt lat="47.60794" lon="6.86493">
        <ele>344.2</ele>
        <time>2021-08-10T09:23:05Z</time>
      </trkpt>
      <trkpt lat="47.60791" lon="6.865">
        <ele>344.2</ele>
        <time>2021-08-10T09:23:06Z</time>
      </trkpt>
      <trkpt lat="47.60787" lon="6.86506">
        <ele>344.2</ele>
        <time>2021-08-10T09:23:07Z</time>
      </trkpt>
      <trkpt lat="47.60783" lon="6.86511">
        <ele>344.1</ele>
        <time>2021-08-10T09:23:08Z</time>
      </trkpt>
      <trkpt lat="47.60779" lon="6.86513">
        <ele>344.1</ele>
        <time>2021-08-10T09:23:09Z</time>
      </trkpt>
      <trkpt lat="47.60774" lon="6.86514">
        <ele>344.1</ele>
        <time>2021-08-10T09:23:11Z</time>
      </trkpt>
      <trkpt lat="47.6077" lon="6.86514">
        <ele>344.1</ele>
        <time>2021-08-10T09:23:12Z</time>
      </trkpt>
      <trkpt lat="47.60766" lon="6.86513">
        <ele>344.1</ele>
        <time>2021-08-10T09:23:13Z</time>
      </trkpt>
      <trkpt lat="47.60762" lon="6.86511">
        <ele>344.2</ele>
        <time>2021-08-10T09:23:14Z</time>
      </trkpt>
      <trkpt lat="47.60756" lon="6.86508">
        <ele>344.2</ele>
        <time>2021-08-10T09:23:15Z</time>
      </trkpt>
      <trkpt lat="47.60749" lon="6.86507">
        <ele>344.3</ele>
        <time>2021-08-10T09:23:17Z</time>
      </trkpt>
      <trkpt lat="47.60744" lon="6.86507">
        <ele>344.3</ele>
        <time>2021-08-10T09:23:19Z</time>
      </trkpt>
      <trkpt lat="47.60739" lon="6.8651">
        <ele>344.3</ele>
        <time>2021-08-10T09:23:20Z</time>
      </trkpt>
      <trkpt lat="47.60735" lon="6.86513">
        <ele>344.3</ele>
        <time>2021-08-10T09:23:21Z</time>
      </trkpt>
      <trkpt lat="47.60729" lon="6.8652">
        <ele>344.2</ele>
        <time>2021-08-10T09:23:23Z</time>
      </trkpt>
      <trkpt lat="47.60725" lon="6.86525">
        <ele>344.2</ele>
        <time>2021-08-10T09:23:24Z</time>
      </trkpt>
      <trkpt lat="47.60721" lon="6.86529">
        <ele>344.1</ele>
        <time>2021-08-10T09:23:25Z</time>
      </trkpt>
      <trkpt lat="47.60707" lon="6.86541">
        <ele>343.9</ele>
        <time>2021-08-10T09:23:27Z</time>
      </trkpt>
      <trkpt lat="47.60703" lon="6.86544">
        <ele>343.9</ele>
        <time>2021-08-10T09:23:28Z</time>
      </trkpt>
      <trkpt lat="47.60696" lon="6.86548">
        <ele>343.8</ele>
        <time>2021-08-10T09:23:30Z</time>
      </trkpt>
      <trkpt lat="47.60692" lon="6.86551">
        <ele>343.7</ele>
        <time>2021-08-10T09:23:31Z</time>
      </trkpt>
      <trkpt lat="47.60686" lon="6.86558">
        <ele>343.6</ele>
        <time>2021-08-10T09:23:33Z</time>
      </trkpt>
      <trkpt lat="47.60683" lon="6.86561">
        <ele>343.6</ele>
        <time>2021-08-10T09:23:34Z</time>
      </trkpt>
      <trkpt lat="47.6068" lon="6.86564">
        <ele>343.6</ele>
        <time>2021-08-10T09:23:35Z</time>
      </trkpt>
      <trkpt lat="47.60673" lon="6.86574">
        <ele>343.5</ele>
        <time>2021-08-10T09:23:37Z</time>
      </trkpt>
      <trkpt lat="47.60667" lon="6.86582">
        <ele>343.4</ele>
        <time>2021-08-10T09:23:39Z</time>
      </trkpt>
      <trkpt lat="47.60664" lon="6.86588">
        <ele>343.4</ele>
        <time>2021-08-10T09:23:40Z</time>
      </trkpt>
      <trkpt lat="47.60662" lon="6.86591">
        <ele>343.4</ele>
        <time>2021-08-10T09:23:41Z</time>
      </trkpt>
      <trkpt lat="47.60659" lon="6.86595">
        <ele>343.4</ele>
        <time>2021-08-10T09:23:42Z</time>
      </trkpt>
      <trkpt lat="47.60657" lon="6.86598">
        <ele>343.4</ele>
        <time>2021-08-10T09:23:43Z</time>
      </trkpt>
      <trkpt lat="47.60651" lon="6.86605">
        <ele>343.4</ele>
        <time>2021-08-10T09:23:45Z</time>
      </trkpt>
      <trkpt lat="47.60649" lon="6.86607">
        <ele>343.3</ele>
        <time>2021-08-10T09:23:46Z</time>
      </trkpt>
      <trkpt lat="47.60645" lon="6.86612">
        <ele>343.3</ele>
        <time>2021-08-10T09:23:48Z</time>
      </trkpt>
      <trkpt lat="47.60644" lon="6.86615">
        <ele>343.3</ele>
        <time>2021-08-10T09:23:49Z</time>
      </trkpt>
      <trkpt lat="47.60642" lon="6.8662">
        <ele>343.4</ele>
        <time>2021-08-10T09:23:51Z</time>
      </trkpt>
      <trkpt lat="47.60639" lon="6.86622">
        <ele>343.4</ele>
        <time>2021-08-10T09:23:52Z</time>
      </trkpt>
      <trkpt lat="47.60637" lon="6.86623">
        <ele>343.4</ele>
        <time>2021-08-10T09:23:53Z</time>
      </trkpt>
      <trkpt lat="47.60634" lon="6.86626">
        <ele>343.4</ele>
        <time>2021-08-10T09:23:54Z</time>
      </trkpt>
      <trkpt lat="47.60633" lon="6.86627">
        <ele>343.4</ele>
        <time>2021-08-10T09:23:55Z</time>
      </trkpt>
      <trkpt lat="47.60629" lon="6.86629">
        <ele>343.4</ele>
        <time>2021-08-10T09:23:57Z</time>
      </trkpt>
      <trkpt lat="47.60626" lon="6.86631">
        <ele>343.5</ele>
        <time>2021-08-10T09:23:58Z</time>
      </trkpt>
      <trkpt lat="47.60625" lon="6.86631">
        <ele>343.5</ele>
        <time>2021-08-10T09:23:59Z</time>
      </trkpt>
      <trkpt lat="47.6062" lon="6.86635">
        <ele>343.5</ele>
        <time>2021-08-10T09:24:01Z</time>
      </trkpt>
      <trkpt lat="47.60617" lon="6.86642">
        <ele>343.5</ele>
        <time>2021-08-10T09:24:03Z</time>
      </trkpt>
      <trkpt lat="47.60616" lon="6.86645">
        <ele>343.5</ele>
        <time>2021-08-10T09:24:04Z</time>
      </trkpt>
      <trkpt lat="47.60614" lon="6.86648">
        <ele>343.5</ele>
        <time>2021-08-10T09:24:05Z</time>
      </trkpt>
      <trkpt lat="47.60612" lon="6.86652">
        <ele>343.5</ele>
        <time>2021-08-10T09:24:06Z</time>
      </trkpt>
      <trkpt lat="47.60611" lon="6.86655">
        <ele>343.5</ele>
        <time>2021-08-10T09:24:07Z</time>
      </trkpt>
      <trkpt lat="47.60608" lon="6.86661">
        <ele>343.5</ele>
        <time>2021-08-10T09:24:09Z</time>
      </trkpt>
      <trkpt lat="47.60606" lon="6.86664">
        <ele>343.5</ele>
        <time>2021-08-10T09:24:10Z</time>
      </trkpt>
      <trkpt lat="47.606" lon="6.8667">
        <ele>343.5</ele>
        <time>2021-08-10T09:24:12Z</time>
      </trkpt>
      <trkpt lat="47.60599" lon="6.86672">
        <ele>343.5</ele>
        <time>2021-08-10T09:24:13Z</time>
      </trkpt>
      <trkpt lat="47.60594" lon="6.86678">
        <ele>343.5</ele>
        <time>2021-08-10T09:24:15Z</time>
      </trkpt>
      <trkpt lat="47.60589" lon="6.86685">
        <ele>343.5</ele>
        <time>2021-08-10T09:24:17Z</time>
      </trkpt>
      <trkpt lat="47.60587" lon="6.86688">
        <ele>343.5</ele>
        <time>2021-08-10T09:24:18Z</time>
      </trkpt>
      <trkpt lat="47.60589" lon="6.86688">
        <ele>343.5</ele>
        <time>2021-08-10T09:24:19Z</time>
      </trkpt>
      <trkpt lat="47.60587" lon="6.86691">
        <ele>343.5</ele>
        <time>2021-08-10T09:24:21Z</time>
      </trkpt>
      <trkpt lat="47.60585" lon="6.86691">
        <ele>343.5</ele>
        <time>2021-08-10T09:24:22Z</time>
      </trkpt>
      <trkpt lat="47.60582" lon="6.86692">
        <ele>343.5</ele>
        <time>2021-08-10T09:24:23Z</time>
      </trkpt>
      <trkpt lat="47.60575" lon="6.86695">
        <ele>343.5</ele>
        <time>2021-08-10T09:24:25Z</time>
      </trkpt>
      <trkpt lat="47.6057" lon="6.86696">
        <ele>343.4</ele>
        <time>2021-08-10T09:24:27Z</time>
      </trkpt>
      <trkpt lat="47.60567" lon="6.86698">
        <ele>343.4</ele>
        <time>2021-08-10T09:24:28Z</time>
      </trkpt>
      <trkpt lat="47.60561" lon="6.86701">
        <ele>343.4</ele>
        <time>2021-08-10T09:24:30Z</time>
      </trkpt>
      <trkpt lat="47.60557" lon="6.86702">
        <ele>343.3</ele>
        <time>2021-08-10T09:24:31Z</time>
      </trkpt>
      <trkpt lat="47.60544" lon="6.86707">
        <ele>343.2</ele>
        <time>2021-08-10T09:24:33Z</time>
      </trkpt>
      <trkpt lat="47.60541" lon="6.86709">
        <ele>343.2</ele>
        <time>2021-08-10T09:24:34Z</time>
      </trkpt>
      <trkpt lat="47.6054" lon="6.86711">
        <ele>343.1</ele>
        <time>2021-08-10T09:24:35Z</time>
      </trkpt>
      <trkpt lat="47.60527" lon="6.86704">
        <ele>343.1</ele>
        <time>2021-08-10T09:24:37Z</time>
      </trkpt>
      <trkpt lat="47.60519" lon="6.86702">
        <ele>343</ele>
        <time>2021-08-10T09:24:39Z</time>
      </trkpt>
      <trkpt lat="47.60511" lon="6.867">
        <ele>343</ele>
        <time>2021-08-10T09:24:41Z</time>
      </trkpt>
      <trkpt lat="47.60502" lon="6.86701">
        <ele>342.9</ele>
        <time>2021-08-10T09:24:43Z</time>
      </trkpt>
      <trkpt lat="47.60492" lon="6.86701">
        <ele>342.9</ele>
        <time>2021-08-10T09:24:45Z</time>
      </trkpt>
      <trkpt lat="47.6048" lon="6.86702">
        <ele>342.9</ele>
        <time>2021-08-10T09:24:47Z</time>
      </trkpt>
      <trkpt lat="47.60475" lon="6.86701">
        <ele>342.9</ele>
        <time>2021-08-10T09:24:48Z</time>
      </trkpt>
      <trkpt lat="47.6047" lon="6.86699">
        <ele>342.9</ele>
        <time>2021-08-10T09:24:49Z</time>
      </trkpt>
      <trkpt lat="47.60463" lon="6.86698">
        <ele>343</ele>
        <time>2021-08-10T09:24:51Z</time>
      </trkpt>
      <trkpt lat="47.60458" lon="6.86697">
        <ele>343</ele>
        <time>2021-08-10T09:24:52Z</time>
      </trkpt>
      <trkpt lat="47.60451" lon="6.86697">
        <ele>343</ele>
        <time>2021-08-10T09:24:53Z</time>
      </trkpt>
      <trkpt lat="47.60447" lon="6.86693">
        <ele>343</ele>
        <time>2021-08-10T09:24:54Z</time>
      </trkpt>
      <trkpt lat="47.60437" lon="6.86693">
        <ele>343.1</ele>
        <time>2021-08-10T09:24:56Z</time>
      </trkpt>
      <trkpt lat="47.60428" lon="6.86695">
        <ele>343.1</ele>
        <time>2021-08-10T09:24:58Z</time>
      </trkpt>
      <trkpt lat="47.60423" lon="6.86696">
        <ele>343.1</ele>
        <time>2021-08-10T09:24:59Z</time>
      </trkpt>
      <trkpt lat="47.60419" lon="6.86696">
        <ele>343.1</ele>
        <time>2021-08-10T09:25:00Z</time>
      </trkpt>
      <trkpt lat="47.60415" lon="6.86696">
        <ele>343.2</ele>
        <time>2021-08-10T09:25:01Z</time>
      </trkpt>
      <trkpt lat="47.60409" lon="6.86694">
        <ele>343.2</ele>
        <time>2021-08-10T09:25:03Z</time>
      </trkpt>
      <trkpt lat="47.60406" lon="6.86692">
        <ele>343.2</ele>
        <time>2021-08-10T09:25:04Z</time>
      </trkpt>
      <trkpt lat="47.60405" lon="6.86692">
        <ele>343.2</ele>
        <time>2021-08-10T09:25:05Z</time>
      </trkpt>
      <trkpt lat="47.60401" lon="6.86691">
        <ele>343.3</ele>
        <time>2021-08-10T09:25:07Z</time>
      </trkpt>
      <trkpt lat="47.60397" lon="6.86688">
        <ele>343.3</ele>
        <time>2021-08-10T09:25:09Z</time>
      </trkpt>
      <trkpt lat="47.60395" lon="6.86687">
        <ele>343.3</ele>
        <time>2021-08-10T09:25:10Z</time>
      </trkpt>
      <trkpt lat="47.60394" lon="6.86686">
        <ele>343.3</ele>
        <time>2021-08-10T09:25:11Z</time>
      </trkpt>
      <trkpt lat="47.60394" lon="6.86686">
        <ele>343.3</ele>
        <time>2021-08-10T09:25:13Z</time>
      </trkpt>
      <trkpt lat="47.60394" lon="6.86685">
        <ele>343.3</ele>
        <time>2021-08-10T09:25:15Z</time>
      </trkpt>
      <trkpt lat="47.60394" lon="6.86685">
        <ele>343.3</ele>
        <time>2021-08-10T09:25:16Z</time>
      </trkpt>
      <trkpt lat="47.60394" lon="6.86685">
        <ele>343.3</ele>
        <time>2021-08-10T09:25:18Z</time>
      </trkpt>
      <trkpt lat="47.60394" lon="6.86685">
        <ele>343.3</ele>
        <time>2021-08-10T09:25:19Z</time>
      </trkpt>
      <trkpt lat="47.60394" lon="6.86685">
        <ele>343.3</ele>
        <time>2021-08-10T09:25:21Z</time>
      </trkpt>
      <trkpt lat="47.60368" lon="6.86665">
        <ele>343.4</ele>
        <time>2021-08-10T09:26:51Z</time>
      </trkpt>
      <trkpt lat="47.60365" lon="6.86666">
        <ele>343.4</ele>
        <time>2021-08-10T09:26:52Z</time>
      </trkpt>
      <trkpt lat="47.60359" lon="6.86668">
        <ele>343.4</ele>
        <time>2021-08-10T09:26:54Z</time>
      </trkpt>
      <trkpt lat="47.60356" lon="6.8667">
        <ele>343.5</ele>
        <time>2021-08-10T09:26:55Z</time>
      </trkpt>
      <trkpt lat="47.6035" lon="6.86671">
        <ele>343.5</ele>
        <time>2021-08-10T09:26:57Z</time>
      </trkpt>
      <trkpt lat="47.60346" lon="6.86671">
        <ele>343.5</ele>
        <time>2021-08-10T09:26:58Z</time>
      </trkpt>
      <trkpt lat="47.60346" lon="6.86672">
        <ele>343.5</ele>
        <time>2021-08-10T09:26:59Z</time>
      </trkpt>
      <trkpt lat="47.60342" lon="6.86673">
        <ele>343.5</ele>
        <time>2021-08-10T09:27:01Z</time>
      </trkpt>
      <trkpt lat="47.60336" lon="6.86674">
        <ele>343.5</ele>
        <time>2021-08-10T09:27:03Z</time>
      </trkpt>
      <trkpt lat="47.6033" lon="6.86674">
        <ele>343.5</ele>
        <time>2021-08-10T09:27:04Z</time>
      </trkpt>
      <trkpt lat="47.60321" lon="6.86674">
        <ele>343.5</ele>
        <time>2021-08-10T09:27:05Z</time>
      </trkpt>
      <trkpt lat="47.60317" lon="6.86675">
        <ele>343.5</ele>
        <time>2021-08-10T09:27:06Z</time>
      </trkpt>
      <trkpt lat="47.60314" lon="6.8668">
        <ele>343.5</ele>
        <time>2021-08-10T09:27:07Z</time>
      </trkpt>
      <trkpt lat="47.60306" lon="6.86673">
        <ele>343.6</ele>
        <time>2021-08-10T09:27:09Z</time>
      </trkpt>
      <trkpt lat="47.60307" lon="6.86673">
        <ele>343.6</ele>
        <time>2021-08-10T09:27:10Z</time>
      </trkpt>
      <trkpt lat="47.60302" lon="6.86668">
        <ele>343.6</ele>
        <time>2021-08-10T09:27:12Z</time>
      </trkpt>
      <trkpt lat="47.60298" lon="6.86664">
        <ele>343.6</ele>
        <time>2021-08-10T09:27:13Z</time>
      </trkpt>
      <trkpt lat="47.60294" lon="6.86655">
        <ele>343.6</ele>
        <time>2021-08-10T09:27:15Z</time>
      </trkpt>
      <trkpt lat="47.6029" lon="6.8665">
        <ele>343.6</ele>
        <time>2021-08-10T09:27:16Z</time>
      </trkpt>
      <trkpt lat="47.60285" lon="6.86646">
        <ele>343.6</ele>
        <time>2021-08-10T09:27:18Z</time>
      </trkpt>
      <trkpt lat="47.60284" lon="6.86645">
        <ele>343.6</ele>
        <time>2021-08-10T09:27:19Z</time>
      </trkpt>
      <trkpt lat="47.60279" lon="6.86641">
        <ele>343.7</ele>
        <time>2021-08-10T09:27:21Z</time>
      </trkpt>
      <trkpt lat="47.60273" lon="6.86637">
        <ele>343.7</ele>
        <time>2021-08-10T09:27:22Z</time>
      </trkpt>
      <trkpt lat="47.60268" lon="6.86633">
        <ele>343.7</ele>
        <time>2021-08-10T09:27:24Z</time>
      </trkpt>
      <trkpt lat="47.60264" lon="6.86629">
        <ele>343.7</ele>
        <time>2021-08-10T09:27:25Z</time>
      </trkpt>
      <trkpt lat="47.60259" lon="6.86626">
        <ele>343.7</ele>
        <time>2021-08-10T09:27:27Z</time>
      </trkpt>
      <trkpt lat="47.60254" lon="6.86625">
        <ele>343.8</ele>
        <time>2021-08-10T09:27:29Z</time>
      </trkpt>
      <trkpt lat="47.60249" lon="6.86628">
        <ele>343.8</ele>
        <time>2021-08-10T09:27:30Z</time>
      </trkpt>
      <trkpt lat="47.60244" lon="6.86632">
        <ele>343.8</ele>
        <time>2021-08-10T09:27:32Z</time>
      </trkpt>
      <trkpt lat="47.6024" lon="6.86634">
        <ele>343.8</ele>
        <time>2021-08-10T09:27:33Z</time>
      </trkpt>
      <trkpt lat="47.60233" lon="6.86636">
        <ele>343.9</ele>
        <time>2021-08-10T09:27:35Z</time>
      </trkpt>
      <trkpt lat="47.60228" lon="6.86635">
        <ele>343.9</ele>
        <time>2021-08-10T09:27:36Z</time>
      </trkpt>
      <trkpt lat="47.60224" lon="6.86635">
        <ele>343.9</ele>
        <time>2021-08-10T09:27:38Z</time>
      </trkpt>
      <trkpt lat="47.6022" lon="6.86635">
        <ele>344</ele>
        <time>2021-08-10T09:27:39Z</time>
      </trkpt>
      <trkpt lat="47.60217" lon="6.86635">
        <ele>344</ele>
        <time>2021-08-10T09:27:40Z</time>
      </trkpt>
      <trkpt lat="47.60212" lon="6.86634">
        <ele>344</ele>
        <time>2021-08-10T09:27:41Z</time>
      </trkpt>
      <trkpt lat="47.60209" lon="6.86633">
        <ele>344.1</ele>
        <time>2021-08-10T09:27:42Z</time>
      </trkpt>
      <trkpt lat="47.60204" lon="6.86631">
        <ele>344.1</ele>
        <time>2021-08-10T09:27:43Z</time>
      </trkpt>
      <trkpt lat="47.602" lon="6.86628">
        <ele>344.1</ele>
        <time>2021-08-10T09:27:44Z</time>
      </trkpt>
      <trkpt lat="47.60196" lon="6.86625">
        <ele>344.1</ele>
        <time>2021-08-10T09:27:45Z</time>
      </trkpt>
      <trkpt lat="47.60185" lon="6.86619">
        <ele>344</ele>
        <time>2021-08-10T09:27:47Z</time>
      </trkpt>
      <trkpt lat="47.60176" lon="6.86617">
        <ele>343.9</ele>
        <time>2021-08-10T09:27:49Z</time>
      </trkpt>
      <trkpt lat="47.60171" lon="6.86617">
        <ele>343.8</ele>
        <time>2021-08-10T09:27:50Z</time>
      </trkpt>
      <trkpt lat="47.60167" lon="6.86619">
        <ele>343.8</ele>
        <time>2021-08-10T09:27:52Z</time>
      </trkpt>
      <trkpt lat="47.60162" lon="6.86623">
        <ele>343.7</ele>
        <time>2021-08-10T09:27:53Z</time>
      </trkpt>
      <trkpt lat="47.60158" lon="6.86627">
        <ele>343.7</ele>
        <time>2021-08-10T09:27:54Z</time>
      </trkpt>
      <trkpt lat="47.60154" lon="6.86629">
        <ele>343.7</ele>
        <time>2021-08-10T09:27:55Z</time>
      </trkpt>
      <trkpt lat="47.60147" lon="6.86632">
        <ele>343.6</ele>
        <time>2021-08-10T09:27:56Z</time>
      </trkpt>
      <trkpt lat="47.60144" lon="6.86635">
        <ele>343.6</ele>
        <time>2021-08-10T09:27:57Z</time>
      </trkpt>
      <trkpt lat="47.60139" lon="6.86634">
        <ele>343.5</ele>
        <time>2021-08-10T09:27:58Z</time>
      </trkpt>
      <trkpt lat="47.60136" lon="6.86633">
        <ele>343.5</ele>
        <time>2021-08-10T09:27:59Z</time>
      </trkpt>
      <trkpt lat="47.60131" lon="6.86632">
        <ele>343.4</ele>
        <time>2021-08-10T09:28:01Z</time>
      </trkpt>
      <trkpt lat="47.60117" lon="6.86628">
        <ele>343.3</ele>
        <time>2021-08-10T09:28:02Z</time>
      </trkpt>
      <trkpt lat="47.6011" lon="6.86626">
        <ele>343.2</ele>
        <time>2021-08-10T09:28:03Z</time>
      </trkpt>
      <trkpt lat="47.60106" lon="6.86625">
        <ele>343.2</ele>
        <time>2021-08-10T09:28:04Z</time>
      </trkpt>
      <trkpt lat="47.60101" lon="6.86625">
        <ele>343.1</ele>
        <time>2021-08-10T09:28:05Z</time>
      </trkpt>
      <trkpt lat="47.60093" lon="6.86624">
        <ele>343</ele>
        <time>2021-08-10T09:28:07Z</time>
      </trkpt>
      <trkpt lat="47.6008" lon="6.86624">
        <ele>342.9</ele>
        <time>2021-08-10T09:28:09Z</time>
      </trkpt>
      <trkpt lat="47.60076" lon="6.86624">
        <ele>342.9</ele>
        <time>2021-08-10T09:28:10Z</time>
      </trkpt>
      <trkpt lat="47.60069" lon="6.86623">
        <ele>342.8</ele>
        <time>2021-08-10T09:28:11Z</time>
      </trkpt>
      <trkpt lat="47.60063" lon="6.86622">
        <ele>342.8</ele>
        <time>2021-08-10T09:28:12Z</time>
      </trkpt>
      <trkpt lat="47.60058" lon="6.8662">
        <ele>342.8</ele>
        <time>2021-08-10T09:28:13Z</time>
      </trkpt>
      <trkpt lat="47.60053" lon="6.86619">
        <ele>342.7</ele>
        <time>2021-08-10T09:28:14Z</time>
      </trkpt>
      <trkpt lat="47.60043" lon="6.86617">
        <ele>342.7</ele>
        <time>2021-08-10T09:28:16Z</time>
      </trkpt>
      <trkpt lat="47.60038" lon="6.86616">
        <ele>342.7</ele>
        <time>2021-08-10T09:28:17Z</time>
      </trkpt>
      <trkpt lat="47.60033" lon="6.86615">
        <ele>342.7</ele>
        <time>2021-08-10T09:28:18Z</time>
      </trkpt>
      <trkpt lat="47.6003" lon="6.86615">
        <ele>342.7</ele>
        <time>2021-08-10T09:28:19Z</time>
      </trkpt>
      <trkpt lat="47.60027" lon="6.86617">
        <ele>342.7</ele>
        <time>2021-08-10T09:28:20Z</time>
      </trkpt>
      <trkpt lat="47.60022" lon="6.86614">
        <ele>342.7</ele>
        <time>2021-08-10T09:28:21Z</time>
      </trkpt>
      <trkpt lat="47.60017" lon="6.8661">
        <ele>342.7</ele>
        <time>2021-08-10T09:28:23Z</time>
      </trkpt>
      <trkpt lat="47.60011" lon="6.86605">
        <ele>342.7</ele>
        <time>2021-08-10T09:28:24Z</time>
      </trkpt>
      <trkpt lat="47.60004" lon="6.86599">
        <ele>342.6</ele>
        <time>2021-08-10T09:28:25Z</time>
      </trkpt>
      <trkpt lat="47.59998" lon="6.86596">
        <ele>342.6</ele>
        <time>2021-08-10T09:28:27Z</time>
      </trkpt>
      <trkpt lat="47.59994" lon="6.86594">
        <ele>342.6</ele>
        <time>2021-08-10T09:28:28Z</time>
      </trkpt>
      <trkpt lat="47.5999" lon="6.86593">
        <ele>342.6</ele>
        <time>2021-08-10T09:28:29Z</time>
      </trkpt>
      <trkpt lat="47.59981" lon="6.8659">
        <ele>342.5</ele>
        <time>2021-08-10T09:28:31Z</time>
      </trkpt>
      <trkpt lat="47.59975" lon="6.8659">
        <ele>342.5</ele>
        <time>2021-08-10T09:28:33Z</time>
      </trkpt>
      <trkpt lat="47.5997" lon="6.8659">
        <ele>342.4</ele>
        <time>2021-08-10T09:28:34Z</time>
      </trkpt>
      <trkpt lat="47.59966" lon="6.86589">
        <ele>342.4</ele>
        <time>2021-08-10T09:28:35Z</time>
      </trkpt>
      <trkpt lat="47.59956" lon="6.86591">
        <ele>342.3</ele>
        <time>2021-08-10T09:28:37Z</time>
      </trkpt>
      <trkpt lat="47.59946" lon="6.86598">
        <ele>342.3</ele>
        <time>2021-08-10T09:28:39Z</time>
      </trkpt>
      <trkpt lat="47.59941" lon="6.86598">
        <ele>342.3</ele>
        <time>2021-08-10T09:28:41Z</time>
      </trkpt>
      <trkpt lat="47.59938" lon="6.86599">
        <ele>342.2</ele>
        <time>2021-08-10T09:28:42Z</time>
      </trkpt>
      <trkpt lat="47.59931" lon="6.866">
        <ele>342.2</ele>
        <time>2021-08-10T09:28:43Z</time>
      </trkpt>
      <trkpt lat="47.59925" lon="6.86601">
        <ele>342.2</ele>
        <time>2021-08-10T09:28:44Z</time>
      </trkpt>
      <trkpt lat="47.59919" lon="6.86601">
        <ele>342.2</ele>
        <time>2021-08-10T09:28:45Z</time>
      </trkpt>
      <trkpt lat="47.59912" lon="6.86602">
        <ele>342.2</ele>
        <time>2021-08-10T09:28:47Z</time>
      </trkpt>
      <trkpt lat="47.59904" lon="6.86602">
        <ele>342.2</ele>
        <time>2021-08-10T09:28:48Z</time>
      </trkpt>
      <trkpt lat="47.599" lon="6.866">
        <ele>342.2</ele>
        <time>2021-08-10T09:28:49Z</time>
      </trkpt>
      <trkpt lat="47.59895" lon="6.86597">
        <ele>342.2</ele>
        <time>2021-08-10T09:28:50Z</time>
      </trkpt>
      <trkpt lat="47.5989" lon="6.86597">
        <ele>342.2</ele>
        <time>2021-08-10T09:28:52Z</time>
      </trkpt>
      <trkpt lat="47.59886" lon="6.86596">
        <ele>342.2</ele>
        <time>2021-08-10T09:28:53Z</time>
      </trkpt>
      <trkpt lat="47.59882" lon="6.86594">
        <ele>342.2</ele>
        <time>2021-08-10T09:28:54Z</time>
      </trkpt>
      <trkpt lat="47.59879" lon="6.8659">
        <ele>342.2</ele>
        <time>2021-08-10T09:28:55Z</time>
      </trkpt>
      <trkpt lat="47.59874" lon="6.86585">
        <ele>342.2</ele>
        <time>2021-08-10T09:28:56Z</time>
      </trkpt>
      <trkpt lat="47.5987" lon="6.86581">
        <ele>342.2</ele>
        <time>2021-08-10T09:28:57Z</time>
      </trkpt>
      <trkpt lat="47.59862" lon="6.86575">
        <ele>342.2</ele>
        <time>2021-08-10T09:28:59Z</time>
      </trkpt>
      <trkpt lat="47.59856" lon="6.86575">
        <ele>342.2</ele>
        <time>2021-08-10T09:29:01Z</time>
      </trkpt>
      <trkpt lat="47.5985" lon="6.86576">
        <ele>342.2</ele>
        <time>2021-08-10T09:29:02Z</time>
      </trkpt>
      <trkpt lat="47.59842" lon="6.86576">
        <ele>342.2</ele>
        <time>2021-08-10T09:29:04Z</time>
      </trkpt>
      <trkpt lat="47.59838" lon="6.86576">
        <ele>342.2</ele>
        <time>2021-08-10T09:29:05Z</time>
      </trkpt>
      <trkpt lat="47.59832" lon="6.86579">
        <ele>342.2</ele>
        <time>2021-08-10T09:29:07Z</time>
      </trkpt>
      <trkpt lat="47.59826" lon="6.8658">
        <ele>342.3</ele>
        <time>2021-08-10T09:29:08Z</time>
      </trkpt>
      <trkpt lat="47.59821" lon="6.86581">
        <ele>342.3</ele>
        <time>2021-08-10T09:29:09Z</time>
      </trkpt>
      <trkpt lat="47.59815" lon="6.86583">
        <ele>342.3</ele>
        <time>2021-08-10T09:29:11Z</time>
      </trkpt>
      <trkpt lat="47.59808" lon="6.86584">
        <ele>342.3</ele>
        <time>2021-08-10T09:29:13Z</time>
      </trkpt>
      <trkpt lat="47.598" lon="6.86586">
        <ele>342.2</ele>
        <time>2021-08-10T09:29:15Z</time>
      </trkpt>
      <trkpt lat="47.59796" lon="6.86587">
        <ele>342.2</ele>
        <time>2021-08-10T09:29:16Z</time>
      </trkpt>
      <trkpt lat="47.59788" lon="6.86589">
        <ele>342.2</ele>
        <time>2021-08-10T09:29:18Z</time>
      </trkpt>
      <trkpt lat="47.59784" lon="6.86591">
        <ele>342.2</ele>
        <time>2021-08-10T09:29:19Z</time>
      </trkpt>
      <trkpt lat="47.59778" lon="6.86591">
        <ele>342.2</ele>
        <time>2021-08-10T09:29:20Z</time>
      </trkpt>
      <trkpt lat="47.59773" lon="6.86591">
        <ele>342.1</ele>
        <time>2021-08-10T09:29:22Z</time>
      </trkpt>
      <trkpt lat="47.59768" lon="6.86591">
        <ele>342.1</ele>
        <time>2021-08-10T09:29:23Z</time>
      </trkpt>
      <trkpt lat="47.59757" lon="6.86589">
        <ele>342</ele>
        <time>2021-08-10T09:29:25Z</time>
      </trkpt>
      <trkpt lat="47.59751" lon="6.86589">
        <ele>342</ele>
        <time>2021-08-10T09:29:27Z</time>
      </trkpt>
      <trkpt lat="47.59747" lon="6.86596">
        <ele>342</ele>
        <time>2021-08-10T09:29:28Z</time>
      </trkpt>
      <trkpt lat="47.59743" lon="6.86594">
        <ele>342</ele>
        <time>2021-08-10T09:29:29Z</time>
      </trkpt>
      <trkpt lat="47.59731" lon="6.86588">
        <ele>342</ele>
        <time>2021-08-10T09:29:31Z</time>
      </trkpt>
      <trkpt lat="47.59722" lon="6.8659">
        <ele>342</ele>
        <time>2021-08-10T09:29:33Z</time>
      </trkpt>
      <trkpt lat="47.59717" lon="6.86592">
        <ele>342</ele>
        <time>2021-08-10T09:29:34Z</time>
      </trkpt>
      <trkpt lat="47.59712" lon="6.86592">
        <ele>342</ele>
        <time>2021-08-10T09:29:35Z</time>
      </trkpt>
      <trkpt lat="47.59702" lon="6.86595">
        <ele>341.9</ele>
        <time>2021-08-10T09:29:37Z</time>
      </trkpt>
      <trkpt lat="47.59697" lon="6.86595">
        <ele>341.9</ele>
        <time>2021-08-10T09:29:38Z</time>
      </trkpt>
      <trkpt lat="47.59693" lon="6.86596">
        <ele>341.9</ele>
        <time>2021-08-10T09:29:40Z</time>
      </trkpt>
      <trkpt lat="47.5969" lon="6.86596">
        <ele>341.9</ele>
        <time>2021-08-10T09:29:41Z</time>
      </trkpt>
      <trkpt lat="47.59685" lon="6.86597">
        <ele>341.9</ele>
        <time>2021-08-10T09:29:42Z</time>
      </trkpt>
      <trkpt lat="47.59676" lon="6.86598">
        <ele>341.9</ele>
        <time>2021-08-10T09:29:43Z</time>
      </trkpt>
      <trkpt lat="47.59666" lon="6.866">
        <ele>341.8</ele>
        <time>2021-08-10T09:29:45Z</time>
      </trkpt>
      <trkpt lat="47.59661" lon="6.86602">
        <ele>341.8</ele>
        <time>2021-08-10T09:29:46Z</time>
      </trkpt>
      <trkpt lat="47.59651" lon="6.86604">
        <ele>341.8</ele>
        <time>2021-08-10T09:29:48Z</time>
      </trkpt>
      <trkpt lat="47.59646" lon="6.86604">
        <ele>341.7</ele>
        <time>2021-08-10T09:29:49Z</time>
      </trkpt>
      <trkpt lat="47.59639" lon="6.86604">
        <ele>341.7</ele>
        <time>2021-08-10T09:29:51Z</time>
      </trkpt>
      <trkpt lat="47.59635" lon="6.86602">
        <ele>341.7</ele>
        <time>2021-08-10T09:29:52Z</time>
      </trkpt>
      <trkpt lat="47.5963" lon="6.86602">
        <ele>341.7</ele>
        <time>2021-08-10T09:29:53Z</time>
      </trkpt>
      <trkpt lat="47.59626" lon="6.86601">
        <ele>341.7</ele>
        <time>2021-08-10T09:29:54Z</time>
      </trkpt>
      <trkpt lat="47.59623" lon="6.866">
        <ele>341.7</ele>
        <time>2021-08-10T09:29:55Z</time>
      </trkpt>
      <trkpt lat="47.59615" lon="6.866">
        <ele>341.6</ele>
        <time>2021-08-10T09:29:57Z</time>
      </trkpt>
      <trkpt lat="47.59612" lon="6.86601">
        <ele>341.6</ele>
        <time>2021-08-10T09:29:58Z</time>
      </trkpt>
      <trkpt lat="47.59608" lon="6.86601">
        <ele>341.6</ele>
        <time>2021-08-10T09:29:59Z</time>
      </trkpt>
      <trkpt lat="47.59599" lon="6.86598">
        <ele>341.7</ele>
        <time>2021-08-10T09:30:01Z</time>
      </trkpt>
      <trkpt lat="47.59592" lon="6.86595">
        <ele>341.7</ele>
        <time>2021-08-10T09:30:03Z</time>
      </trkpt>
      <trkpt lat="47.5959" lon="6.86593">
        <ele>341.7</ele>
        <time>2021-08-10T09:30:04Z</time>
      </trkpt>
      <trkpt lat="47.59587" lon="6.86593">
        <ele>341.8</ele>
        <time>2021-08-10T09:30:05Z</time>
      </trkpt>
      <trkpt lat="47.59583" lon="6.86592">
        <ele>341.8</ele>
        <time>2021-08-10T09:30:07Z</time>
      </trkpt>
      <trkpt lat="47.59578" lon="6.8659">
        <ele>341.8</ele>
        <time>2021-08-10T09:30:09Z</time>
      </trkpt>
      <trkpt lat="47.59575" lon="6.8659">
        <ele>341.9</ele>
        <time>2021-08-10T09:30:10Z</time>
      </trkpt>
      <trkpt lat="47.59574" lon="6.86589">
        <ele>341.9</ele>
        <time>2021-08-10T09:30:11Z</time>
      </trkpt>
      <trkpt lat="47.59572" lon="6.86589">
        <ele>341.9</ele>
        <time>2021-08-10T09:30:12Z</time>
      </trkpt>
      <trkpt lat="47.59572" lon="6.86583">
        <ele>341.9</ele>
        <time>2021-08-10T09:30:14Z</time>
      </trkpt>
      <trkpt lat="47.59573" lon="6.8658">
        <ele>342</ele>
        <time>2021-08-10T09:30:16Z</time>
      </trkpt>
      <trkpt lat="47.59573" lon="6.86581">
        <ele>342</ele>
        <time>2021-08-10T09:30:17Z</time>
      </trkpt>
      <trkpt lat="47.59574" lon="6.86581">
        <ele>342</ele>
        <time>2021-08-10T09:30:19Z</time>
      </trkpt>
      <trkpt lat="47.59574" lon="6.86582">
        <ele>342</ele>
        <time>2021-08-10T09:30:20Z</time>
      </trkpt>
      <trkpt lat="47.59574" lon="6.86583">
        <ele>342</ele>
        <time>2021-08-10T09:30:21Z</time>
      </trkpt>
      <trkpt lat="47.59575" lon="6.86583">
        <ele>342</ele>
        <time>2021-08-10T09:30:22Z</time>
      </trkpt>
      <trkpt lat="47.59575" lon="6.86584">
        <ele>342</ele>
        <time>2021-08-10T09:30:23Z</time>
      </trkpt>
      <trkpt lat="47.59578" lon="6.86585">
        <ele>342</ele>
        <time>2021-08-10T09:30:25Z</time>
      </trkpt>
      <trkpt lat="47.5956" lon="6.86571">
        <ele>342.2</ele>
        <time>2021-08-10T09:30:53Z</time>
      </trkpt>
      <trkpt lat="47.59555" lon="6.86569">
        <ele>342.3</ele>
        <time>2021-08-10T09:30:55Z</time>
      </trkpt>
      <trkpt lat="47.5955" lon="6.86572">
        <ele>342.3</ele>
        <time>2021-08-10T09:30:57Z</time>
      </trkpt>
      <trkpt lat="47.59547" lon="6.86573">
        <ele>342.3</ele>
        <time>2021-08-10T09:30:58Z</time>
      </trkpt>
      <trkpt lat="47.59543" lon="6.86572">
        <ele>342.3</ele>
        <time>2021-08-10T09:30:59Z</time>
      </trkpt>
      <trkpt lat="47.59537" lon="6.8657">
        <ele>342.3</ele>
        <time>2021-08-10T09:31:01Z</time>
      </trkpt>
      <trkpt lat="47.59533" lon="6.86567">
        <ele>342.3</ele>
        <time>2021-08-10T09:31:02Z</time>
      </trkpt>
      <trkpt lat="47.59527" lon="6.86564">
        <ele>342.4</ele>
        <time>2021-08-10T09:31:04Z</time>
      </trkpt>
      <trkpt lat="47.59524" lon="6.86559">
        <ele>342.4</ele>
        <time>2021-08-10T09:31:05Z</time>
      </trkpt>
      <trkpt lat="47.59522" lon="6.86554">
        <ele>342.4</ele>
        <time>2021-08-10T09:31:06Z</time>
      </trkpt>
      <trkpt lat="47.59518" lon="6.86549">
        <ele>342.4</ele>
        <time>2021-08-10T09:31:07Z</time>
      </trkpt>
      <trkpt lat="47.59512" lon="6.86545">
        <ele>342.4</ele>
        <time>2021-08-10T09:31:09Z</time>
      </trkpt>
      <trkpt lat="47.59508" lon="6.86543">
        <ele>342.5</ele>
        <time>2021-08-10T09:31:10Z</time>
      </trkpt>
      <trkpt lat="47.59504" lon="6.86543">
        <ele>342.5</ele>
        <time>2021-08-10T09:31:11Z</time>
      </trkpt>
      <trkpt lat="47.59498" lon="6.86545">
        <ele>342.5</ele>
        <time>2021-08-10T09:31:12Z</time>
      </trkpt>
      <trkpt lat="47.59492" lon="6.86544">
        <ele>342.5</ele>
        <time>2021-08-10T09:31:14Z</time>
      </trkpt>
      <trkpt lat="47.59489" lon="6.86544">
        <ele>342.6</ele>
        <time>2021-08-10T09:31:15Z</time>
      </trkpt>
      <trkpt lat="47.59487" lon="6.86544">
        <ele>342.6</ele>
        <time>2021-08-10T09:31:16Z</time>
      </trkpt>
      <trkpt lat="47.59484" lon="6.86542">
        <ele>342.6</ele>
        <time>2021-08-10T09:31:17Z</time>
      </trkpt>
      <trkpt lat="47.59477" lon="6.86539">
        <ele>342.6</ele>
        <time>2021-08-10T09:31:19Z</time>
      </trkpt>
      <trkpt lat="47.59471" lon="6.86538">
        <ele>342.6</ele>
        <time>2021-08-10T09:31:21Z</time>
      </trkpt>
      <trkpt lat="47.59467" lon="6.86538">
        <ele>342.6</ele>
        <time>2021-08-10T09:31:22Z</time>
      </trkpt>
      <trkpt lat="47.59461" lon="6.86537">
        <ele>342.6</ele>
        <time>2021-08-10T09:31:24Z</time>
      </trkpt>
      <trkpt lat="47.59457" lon="6.86536">
        <ele>342.6</ele>
        <time>2021-08-10T09:31:25Z</time>
      </trkpt>
      <trkpt lat="47.59452" lon="6.86534">
        <ele>342.6</ele>
        <time>2021-08-10T09:31:26Z</time>
      </trkpt>
      <trkpt lat="47.59445" lon="6.8653">
        <ele>342.6</ele>
        <time>2021-08-10T09:31:27Z</time>
      </trkpt>
      <trkpt lat="47.59441" lon="6.86526">
        <ele>342.6</ele>
        <time>2021-08-10T09:31:28Z</time>
      </trkpt>
      <trkpt lat="47.59436" lon="6.86522">
        <ele>342.5</ele>
        <time>2021-08-10T09:31:29Z</time>
      </trkpt>
      <trkpt lat="47.5943" lon="6.86518">
        <ele>342.5</ele>
        <time>2021-08-10T09:31:30Z</time>
      </trkpt>
      <trkpt lat="47.59425" lon="6.86514">
        <ele>342.5</ele>
        <time>2021-08-10T09:31:31Z</time>
      </trkpt>
      <trkpt lat="47.59413" lon="6.86503">
        <ele>342.4</ele>
        <time>2021-08-10T09:31:33Z</time>
      </trkpt>
      <trkpt lat="47.59408" lon="6.865">
        <ele>342.4</ele>
        <time>2021-08-10T09:31:34Z</time>
      </trkpt>
      <trkpt lat="47.59404" lon="6.86497">
        <ele>342.3</ele>
        <time>2021-08-10T09:31:35Z</time>
      </trkpt>
      <trkpt lat="47.594" lon="6.86494">
        <ele>342.3</ele>
        <time>2021-08-10T09:31:36Z</time>
      </trkpt>
      <trkpt lat="47.59397" lon="6.86493">
        <ele>342.3</ele>
        <time>2021-08-10T09:31:37Z</time>
      </trkpt>
      <trkpt lat="47.59391" lon="6.86489">
        <ele>342.2</ele>
        <time>2021-08-10T09:31:39Z</time>
      </trkpt>
      <trkpt lat="47.59388" lon="6.86484">
        <ele>342.2</ele>
        <time>2021-08-10T09:31:40Z</time>
      </trkpt>
      <trkpt lat="47.59382" lon="6.86478">
        <ele>342.1</ele>
        <time>2021-08-10T09:31:42Z</time>
      </trkpt>
      <trkpt lat="47.59379" lon="6.86474">
        <ele>342.1</ele>
        <time>2021-08-10T09:31:43Z</time>
      </trkpt>
      <trkpt lat="47.59376" lon="6.8647">
        <ele>342.1</ele>
        <time>2021-08-10T09:31:44Z</time>
      </trkpt>
      <trkpt lat="47.59373" lon="6.86466">
        <ele>342</ele>
        <time>2021-08-10T09:31:45Z</time>
      </trkpt>
      <trkpt lat="47.5937" lon="6.86461">
        <ele>342</ele>
        <time>2021-08-10T09:31:46Z</time>
      </trkpt>
      <trkpt lat="47.59367" lon="6.86456">
        <ele>341.9</ele>
        <time>2021-08-10T09:31:47Z</time>
      </trkpt>
      <trkpt lat="47.59364" lon="6.86448">
        <ele>341.9</ele>
        <time>2021-08-10T09:31:49Z</time>
      </trkpt>
      <trkpt lat="47.59361" lon="6.86442">
        <ele>341.8</ele>
        <time>2021-08-10T09:31:50Z</time>
      </trkpt>
      <trkpt lat="47.5936" lon="6.86435">
        <ele>341.7</ele>
        <time>2021-08-10T09:31:51Z</time>
      </trkpt>
      <trkpt lat="47.59359" lon="6.86428">
        <ele>341.7</ele>
        <time>2021-08-10T09:31:52Z</time>
      </trkpt>
      <trkpt lat="47.59358" lon="6.86422">
        <ele>341.7</ele>
        <time>2021-08-10T09:31:53Z</time>
      </trkpt>
      <trkpt lat="47.59356" lon="6.86414">
        <ele>341.6</ele>
        <time>2021-08-10T09:31:54Z</time>
      </trkpt>
      <trkpt lat="47.59353" lon="6.86407">
        <ele>341.6</ele>
        <time>2021-08-10T09:31:55Z</time>
      </trkpt>
      <trkpt lat="47.59345" lon="6.86389">
        <ele>341.5</ele>
        <time>2021-08-10T09:31:57Z</time>
      </trkpt>
      <trkpt lat="47.59339" lon="6.86376">
        <ele>341.4</ele>
        <time>2021-08-10T09:31:59Z</time>
      </trkpt>
      <trkpt lat="47.59332" lon="6.86364">
        <ele>341.4</ele>
        <time>2021-08-10T09:32:01Z</time>
      </trkpt>
      <trkpt lat="47.59325" lon="6.86354">
        <ele>341.4</ele>
        <time>2021-08-10T09:32:03Z</time>
      </trkpt>
      <trkpt lat="47.5932" lon="6.86348">
        <ele>341.3</ele>
        <time>2021-08-10T09:32:04Z</time>
      </trkpt>
      <trkpt lat="47.59315" lon="6.86344">
        <ele>341.3</ele>
        <time>2021-08-10T09:32:05Z</time>
      </trkpt>
      <trkpt lat="47.59311" lon="6.86338">
        <ele>341.2</ele>
        <time>2021-08-10T09:32:07Z</time>
      </trkpt>
      <trkpt lat="47.59306" lon="6.86334">
        <ele>341.2</ele>
        <time>2021-08-10T09:32:08Z</time>
      </trkpt>
      <trkpt lat="47.593" lon="6.86331">
        <ele>341.1</ele>
        <time>2021-08-10T09:32:09Z</time>
      </trkpt>
      <trkpt lat="47.59292" lon="6.86326">
        <ele>341</ele>
        <time>2021-08-10T09:32:10Z</time>
      </trkpt>
      <trkpt lat="47.5928" lon="6.86318">
        <ele>340.9</ele>
        <time>2021-08-10T09:32:12Z</time>
      </trkpt>
      <trkpt lat="47.59275" lon="6.86313">
        <ele>340.9</ele>
        <time>2021-08-10T09:32:13Z</time>
      </trkpt>
      <trkpt lat="47.59265" lon="6.86303">
        <ele>340.9</ele>
        <time>2021-08-10T09:32:15Z</time>
      </trkpt>
      <trkpt lat="47.59261" lon="6.86299">
        <ele>341</ele>
        <time>2021-08-10T09:32:16Z</time>
      </trkpt>
      <trkpt lat="47.59258" lon="6.86292">
        <ele>341</ele>
        <time>2021-08-10T09:32:17Z</time>
      </trkpt>
      <trkpt lat="47.5925" lon="6.86284">
        <ele>341.1</ele>
        <time>2021-08-10T09:32:19Z</time>
      </trkpt>
      <trkpt lat="47.59244" lon="6.86279">
        <ele>341.1</ele>
        <time>2021-08-10T09:32:21Z</time>
      </trkpt>
      <trkpt lat="47.59239" lon="6.86277">
        <ele>341.1</ele>
        <time>2021-08-10T09:32:22Z</time>
      </trkpt>
      <trkpt lat="47.59233" lon="6.86276">
        <ele>341.1</ele>
        <time>2021-08-10T09:32:24Z</time>
      </trkpt>
      <trkpt lat="47.59229" lon="6.86273">
        <ele>341.1</ele>
        <time>2021-08-10T09:32:25Z</time>
      </trkpt>
      <trkpt lat="47.59224" lon="6.86269">
        <ele>341.1</ele>
        <time>2021-08-10T09:32:27Z</time>
      </trkpt>
      <trkpt lat="47.59219" lon="6.86263">
        <ele>341</ele>
        <time>2021-08-10T09:32:28Z</time>
      </trkpt>
      <trkpt lat="47.59216" lon="6.86259">
        <ele>341</ele>
        <time>2021-08-10T09:32:29Z</time>
      </trkpt>
      <trkpt lat="47.59211" lon="6.86256">
        <ele>341</ele>
        <time>2021-08-10T09:32:30Z</time>
      </trkpt>
      <trkpt lat="47.59203" lon="6.8625">
        <ele>341</ele>
        <time>2021-08-10T09:32:32Z</time>
      </trkpt>
      <trkpt lat="47.59199" lon="6.86249">
        <ele>341</ele>
        <time>2021-08-10T09:32:33Z</time>
      </trkpt>
      <trkpt lat="47.59195" lon="6.86249">
        <ele>341</ele>
        <time>2021-08-10T09:32:34Z</time>
      </trkpt>
      <trkpt lat="47.59185" lon="6.8625">
        <ele>341</ele>
        <time>2021-08-10T09:32:35Z</time>
      </trkpt>
      <trkpt lat="47.59179" lon="6.8625">
        <ele>341</ele>
        <time>2021-08-10T09:32:36Z</time>
      </trkpt>
      <trkpt lat="47.59175" lon="6.86249">
        <ele>341</ele>
        <time>2021-08-10T09:32:37Z</time>
      </trkpt>
      <trkpt lat="47.59166" lon="6.86251">
        <ele>341.1</ele>
        <time>2021-08-10T09:32:39Z</time>
      </trkpt>
      <trkpt lat="47.59165" lon="6.8625">
        <ele>341.1</ele>
        <time>2021-08-10T09:32:41Z</time>
      </trkpt>
      <trkpt lat="47.5916" lon="6.86247">
        <ele>341.1</ele>
        <time>2021-08-10T09:32:43Z</time>
      </trkpt>
      <trkpt lat="47.59155" lon="6.86243">
        <ele>341.1</ele>
        <time>2021-08-10T09:32:45Z</time>
      </trkpt>
      <trkpt lat="47.59149" lon="6.8624">
        <ele>341.1</ele>
        <time>2021-08-10T09:32:47Z</time>
      </trkpt>
      <trkpt lat="47.59148" lon="6.86234">
        <ele>341.1</ele>
        <time>2021-08-10T09:32:48Z</time>
      </trkpt>
      <trkpt lat="47.59141" lon="6.86229">
        <ele>341.1</ele>
        <time>2021-08-10T09:32:50Z</time>
      </trkpt>
      <trkpt lat="47.59131" lon="6.86226">
        <ele>341.1</ele>
        <time>2021-08-10T09:32:52Z</time>
      </trkpt>
      <trkpt lat="47.59121" lon="6.86225">
        <ele>341.1</ele>
        <time>2021-08-10T09:32:54Z</time>
      </trkpt>
      <trkpt lat="47.59113" lon="6.86224">
        <ele>341.1</ele>
        <time>2021-08-10T09:32:56Z</time>
      </trkpt>
      <trkpt lat="47.59106" lon="6.86223">
        <ele>341.2</ele>
        <time>2021-08-10T09:32:58Z</time>
      </trkpt>
      <trkpt lat="47.59097" lon="6.86223">
        <ele>341.2</ele>
        <time>2021-08-10T09:33:00Z</time>
      </trkpt>
      <trkpt lat="47.59092" lon="6.86224">
        <ele>341.3</ele>
        <time>2021-08-10T09:33:01Z</time>
      </trkpt>
      <trkpt lat="47.59085" lon="6.86226">
        <ele>341.4</ele>
        <time>2021-08-10T09:33:03Z</time>
      </trkpt>
      <trkpt lat="47.59079" lon="6.8623">
        <ele>341.5</ele>
        <time>2021-08-10T09:33:05Z</time>
      </trkpt>
      <trkpt lat="47.59074" lon="6.86233">
        <ele>341.5</ele>
        <time>2021-08-10T09:33:07Z</time>
      </trkpt>
      <trkpt lat="47.59071" lon="6.86235">
        <ele>341.6</ele>
        <time>2021-08-10T09:33:08Z</time>
      </trkpt>
      <trkpt lat="47.59067" lon="6.8624">
        <ele>341.7</ele>
        <time>2021-08-10T09:33:10Z</time>
      </trkpt>
      <trkpt lat="47.59064" lon="6.86244">
        <ele>341.7</ele>
        <time>2021-08-10T09:33:11Z</time>
      </trkpt>
      <trkpt lat="47.59062" lon="6.86246">
        <ele>341.8</ele>
        <time>2021-08-10T09:33:12Z</time>
      </trkpt>
      <trkpt lat="47.59056" lon="6.86249">
        <ele>341.9</ele>
        <time>2021-08-10T09:33:14Z</time>
      </trkpt>
      <trkpt lat="47.59053" lon="6.86249">
        <ele>342</ele>
        <time>2021-08-10T09:33:15Z</time>
      </trkpt>
      <trkpt lat="47.59045" lon="6.86251">
        <ele>342.1</ele>
        <time>2021-08-10T09:33:17Z</time>
      </trkpt>
      <trkpt lat="47.59038" lon="6.86247">
        <ele>342.2</ele>
        <time>2021-08-10T09:33:19Z</time>
      </trkpt>
      <trkpt lat="47.59032" lon="6.8624">
        <ele>342.1</ele>
        <time>2021-08-10T09:33:21Z</time>
      </trkpt>
      <trkpt lat="47.59028" lon="6.8623">
        <ele>342</ele>
        <time>2021-08-10T09:33:22Z</time>
      </trkpt>
      <trkpt lat="47.59024" lon="6.86221">
        <ele>341.8</ele>
        <time>2021-08-10T09:33:24Z</time>
      </trkpt>
      <trkpt lat="47.59019" lon="6.86202">
        <ele>341.6</ele>
        <time>2021-08-10T09:33:26Z</time>
      </trkpt>
      <trkpt lat="47.59016" lon="6.86188">
        <ele>341.5</ele>
        <time>2021-08-10T09:33:28Z</time>
      </trkpt>
      <trkpt lat="47.59015" lon="6.86182">
        <ele>341.5</ele>
        <time>2021-08-10T09:33:29Z</time>
      </trkpt>
      <trkpt lat="47.59014" lon="6.86177">
        <ele>341.5</ele>
        <time>2021-08-10T09:33:30Z</time>
      </trkpt>
      <trkpt lat="47.59013" lon="6.86171">
        <ele>341.4</ele>
        <time>2021-08-10T09:33:31Z</time>
      </trkpt>
      <trkpt lat="47.59013" lon="6.86169">
        <ele>341.4</ele>
        <time>2021-08-10T09:33:32Z</time>
      </trkpt>
      <trkpt lat="47.5901" lon="6.86163">
        <ele>341.4</ele>
        <time>2021-08-10T09:33:34Z</time>
      </trkpt>
      <trkpt lat="47.59005" lon="6.86153">
        <ele>341.4</ele>
        <time>2021-08-10T09:33:36Z</time>
      </trkpt>
      <trkpt lat="47.59004" lon="6.86148">
        <ele>341.4</ele>
        <time>2021-08-10T09:33:37Z</time>
      </trkpt>
      <trkpt lat="47.59" lon="6.86138">
        <ele>341.4</ele>
        <time>2021-08-10T09:33:39Z</time>
      </trkpt>
      <trkpt lat="47.58998" lon="6.86134">
        <ele>341.4</ele>
        <time>2021-08-10T09:33:41Z</time>
      </trkpt>
      <trkpt lat="47.58996" lon="6.86127">
        <ele>341.3</ele>
        <time>2021-08-10T09:33:43Z</time>
      </trkpt>
      <trkpt lat="47.58995" lon="6.86123">
        <ele>341.3</ele>
        <time>2021-08-10T09:33:44Z</time>
      </trkpt>
      <trkpt lat="47.58994" lon="6.86118">
        <ele>341.3</ele>
        <time>2021-08-10T09:33:45Z</time>
      </trkpt>
      <trkpt lat="47.58992" lon="6.86105">
        <ele>341.3</ele>
        <time>2021-08-10T09:33:47Z</time>
      </trkpt>
      <trkpt lat="47.58991" lon="6.86099">
        <ele>341.3</ele>
        <time>2021-08-10T09:33:48Z</time>
      </trkpt>
      <trkpt lat="47.58989" lon="6.86093">
        <ele>341.3</ele>
        <time>2021-08-10T09:33:49Z</time>
      </trkpt>
      <trkpt lat="47.58983" lon="6.86079">
        <ele>341.2</ele>
        <time>2021-08-10T09:33:51Z</time>
      </trkpt>
      <trkpt lat="47.58971" lon="6.86064">
        <ele>341.2</ele>
        <time>2021-08-10T09:33:53Z</time>
      </trkpt>
      <trkpt lat="47.58962" lon="6.86052">
        <ele>341.2</ele>
        <time>2021-08-10T09:33:55Z</time>
      </trkpt>
      <trkpt lat="47.58959" lon="6.86047">
        <ele>341.1</ele>
        <time>2021-08-10T09:33:56Z</time>
      </trkpt>
      <trkpt lat="47.58956" lon="6.86042">
        <ele>341.1</ele>
        <time>2021-08-10T09:33:57Z</time>
      </trkpt>
      <trkpt lat="47.58953" lon="6.86036">
        <ele>341.1</ele>
        <time>2021-08-10T09:33:58Z</time>
      </trkpt>
      <trkpt lat="47.5895" lon="6.86026">
        <ele>341</ele>
        <time>2021-08-10T09:34:00Z</time>
      </trkpt>
      <trkpt lat="47.58949" lon="6.86022">
        <ele>341</ele>
        <time>2021-08-10T09:34:01Z</time>
      </trkpt>
      <trkpt lat="47.58948" lon="6.86012">
        <ele>341</ele>
        <time>2021-08-10T09:34:03Z</time>
      </trkpt>
      <trkpt lat="47.58946" lon="6.86006">
        <ele>341</ele>
        <time>2021-08-10T09:34:04Z</time>
      </trkpt>
      <trkpt lat="47.58942" lon="6.85994">
        <ele>340.9</ele>
        <time>2021-08-10T09:34:06Z</time>
      </trkpt>
      <trkpt lat="47.58939" lon="6.85988">
        <ele>340.9</ele>
        <time>2021-08-10T09:34:07Z</time>
      </trkpt>
      <trkpt lat="47.58934" lon="6.85978">
        <ele>340.9</ele>
        <time>2021-08-10T09:34:09Z</time>
      </trkpt>
      <trkpt lat="47.58932" lon="6.85973">
        <ele>340.9</ele>
        <time>2021-08-10T09:34:10Z</time>
      </trkpt>
      <trkpt lat="47.58931" lon="6.85967">
        <ele>340.9</ele>
        <time>2021-08-10T09:34:11Z</time>
      </trkpt>
      <trkpt lat="47.58929" lon="6.85962">
        <ele>340.9</ele>
        <time>2021-08-10T09:34:12Z</time>
      </trkpt>
      <trkpt lat="47.58922" lon="6.85952">
        <ele>340.9</ele>
        <time>2021-08-10T09:34:14Z</time>
      </trkpt>
      <trkpt lat="47.58913" lon="6.85945">
        <ele>341</ele>
        <time>2021-08-10T09:34:16Z</time>
      </trkpt>
      <trkpt lat="47.58909" lon="6.85942">
        <ele>341</ele>
        <time>2021-08-10T09:34:17Z</time>
      </trkpt>
      <trkpt lat="47.589" lon="6.85938">
        <ele>340.9</ele>
        <time>2021-08-10T09:34:19Z</time>
      </trkpt>
      <trkpt lat="47.58894" lon="6.85937">
        <ele>340.9</ele>
        <time>2021-08-10T09:34:20Z</time>
      </trkpt>
      <trkpt lat="47.58885" lon="6.85937">
        <ele>340.7</ele>
        <time>2021-08-10T09:34:22Z</time>
      </trkpt>
      <trkpt lat="47.58876" lon="6.85938">
        <ele>340.6</ele>
        <time>2021-08-10T09:34:24Z</time>
      </trkpt>
      <trkpt lat="47.58866" lon="6.85938">
        <ele>340.5</ele>
        <time>2021-08-10T09:34:26Z</time>
      </trkpt>
      <trkpt lat="47.58861" lon="6.85938">
        <ele>340.5</ele>
        <time>2021-08-10T09:34:27Z</time>
      </trkpt>
      <trkpt lat="47.58851" lon="6.85938">
        <ele>340.4</ele>
        <time>2021-08-10T09:34:29Z</time>
      </trkpt>
      <trkpt lat="47.58847" lon="6.85939">
        <ele>340.4</ele>
        <time>2021-08-10T09:34:30Z</time>
      </trkpt>
      <trkpt lat="47.58839" lon="6.8594">
        <ele>340.4</ele>
        <time>2021-08-10T09:34:32Z</time>
      </trkpt>
      <trkpt lat="47.5883" lon="6.85942">
        <ele>340.4</ele>
        <time>2021-08-10T09:34:34Z</time>
      </trkpt>
      <trkpt lat="47.58822" lon="6.85947">
        <ele>340.4</ele>
        <time>2021-08-10T09:34:36Z</time>
      </trkpt>
      <trkpt lat="47.58814" lon="6.85955">
        <ele>340.4</ele>
        <time>2021-08-10T09:34:38Z</time>
      </trkpt>
      <trkpt lat="47.58811" lon="6.85959">
        <ele>340.4</ele>
        <time>2021-08-10T09:34:39Z</time>
      </trkpt>
      <trkpt lat="47.58807" lon="6.8597">
        <ele>340.5</ele>
        <time>2021-08-10T09:34:41Z</time>
      </trkpt>
      <trkpt lat="47.58804" lon="6.85975">
        <ele>340.5</ele>
        <time>2021-08-10T09:34:42Z</time>
      </trkpt>
      <trkpt lat="47.58802" lon="6.8598">
        <ele>340.5</ele>
        <time>2021-08-10T09:34:43Z</time>
      </trkpt>
      <trkpt lat="47.58794" lon="6.85988">
        <ele>340.5</ele>
        <time>2021-08-10T09:34:45Z</time>
      </trkpt>
      <trkpt lat="47.5879" lon="6.85991">
        <ele>340.5</ele>
        <time>2021-08-10T09:34:46Z</time>
      </trkpt>
      <trkpt lat="47.58788" lon="6.85996">
        <ele>340.5</ele>
        <time>2021-08-10T09:34:47Z</time>
      </trkpt>
      <trkpt lat="47.58786" lon="6.86002">
        <ele>340.5</ele>
        <time>2021-08-10T09:34:48Z</time>
      </trkpt>
      <trkpt lat="47.58783" lon="6.86013">
        <ele>340.5</ele>
        <time>2021-08-10T09:34:50Z</time>
      </trkpt>
      <trkpt lat="47.5878" lon="6.86023">
        <ele>340.5</ele>
        <time>2021-08-10T09:34:52Z</time>
      </trkpt>
      <trkpt lat="47.58777" lon="6.86033">
        <ele>340.5</ele>
        <time>2021-08-10T09:34:54Z</time>
      </trkpt>
      <trkpt lat="47.58775" lon="6.86038">
        <ele>340.5</ele>
        <time>2021-08-10T09:34:55Z</time>
      </trkpt>
      <trkpt lat="47.58772" lon="6.86046">
        <ele>340.5</ele>
        <time>2021-08-10T09:34:57Z</time>
      </trkpt>
      <trkpt lat="47.58771" lon="6.86051">
        <ele>340.5</ele>
        <time>2021-08-10T09:34:58Z</time>
      </trkpt>
      <trkpt lat="47.5877" lon="6.86055">
        <ele>340.5</ele>
        <time>2021-08-10T09:34:59Z</time>
      </trkpt>
      <trkpt lat="47.58767" lon="6.86062">
        <ele>340.4</ele>
        <time>2021-08-10T09:35:01Z</time>
      </trkpt>
      <trkpt lat="47.58766" lon="6.86066">
        <ele>340.4</ele>
        <time>2021-08-10T09:35:02Z</time>
      </trkpt>
      <trkpt lat="47.58765" lon="6.86068">
        <ele>340.4</ele>
        <time>2021-08-10T09:35:03Z</time>
      </trkpt>
      <trkpt lat="47.58764" lon="6.86072">
        <ele>340.4</ele>
        <time>2021-08-10T09:35:04Z</time>
      </trkpt>
      <trkpt lat="47.58762" lon="6.86081">
        <ele>340.4</ele>
        <time>2021-08-10T09:35:06Z</time>
      </trkpt>
      <trkpt lat="47.58762" lon="6.86086">
        <ele>340.4</ele>
        <time>2021-08-10T09:35:07Z</time>
      </trkpt>
      <trkpt lat="47.58762" lon="6.86087">
        <ele>340.4</ele>
        <time>2021-08-10T09:35:08Z</time>
      </trkpt>
      <trkpt lat="47.58761" lon="6.8609">
        <ele>340.4</ele>
        <time>2021-08-10T09:35:10Z</time>
      </trkpt>
      <trkpt lat="47.5876" lon="6.86089">
        <ele>340.4</ele>
        <time>2021-08-10T09:35:11Z</time>
      </trkpt>
      <trkpt lat="47.58755" lon="6.86082">
        <ele>340.3</ele>
        <time>2021-08-10T09:35:13Z</time>
      </trkpt>
      <trkpt lat="47.58751" lon="6.86078">
        <ele>340.3</ele>
        <time>2021-08-10T09:35:14Z</time>
      </trkpt>
      <trkpt lat="47.58749" lon="6.86076">
        <ele>340.3</ele>
        <time>2021-08-10T09:35:15Z</time>
      </trkpt>
      <trkpt lat="47.58742" lon="6.86071">
        <ele>340.3</ele>
        <time>2021-08-10T09:35:17Z</time>
      </trkpt>
      <trkpt lat="47.58739" lon="6.86069">
        <ele>340.3</ele>
        <time>2021-08-10T09:35:18Z</time>
      </trkpt>
      <trkpt lat="47.5874" lon="6.86065">
        <ele>340.3</ele>
        <time>2021-08-10T09:35:20Z</time>
      </trkpt>
      <trkpt lat="47.58744" lon="6.86062">
        <ele>340.3</ele>
        <time>2021-08-10T09:35:21Z</time>
      </trkpt>
      <trkpt lat="47.58753" lon="6.86053">
        <ele>340.3</ele>
        <time>2021-08-10T09:35:23Z</time>
      </trkpt>
      <trkpt lat="47.5876" lon="6.86049">
        <ele>340.3</ele>
        <time>2021-08-10T09:35:24Z</time>
      </trkpt>
      <trkpt lat="47.58765" lon="6.86046">
        <ele>340.3</ele>
        <time>2021-08-10T09:35:25Z</time>
      </trkpt>
      <trkpt lat="47.58769" lon="6.86042">
        <ele>340.3</ele>
        <time>2021-08-10T09:35:26Z</time>
      </trkpt>
      <trkpt lat="47.58774" lon="6.86032">
        <ele>340.3</ele>
        <time>2021-08-10T09:35:28Z</time>
      </trkpt>
      <trkpt lat="47.58779" lon="6.86021">
        <ele>340.3</ele>
        <time>2021-08-10T09:35:30Z</time>
      </trkpt>
      <trkpt lat="47.58782" lon="6.86011">
        <ele>340.3</ele>
        <time>2021-08-10T09:35:32Z</time>
      </trkpt>
      <trkpt lat="47.58784" lon="6.86005">
        <ele>340.4</ele>
        <time>2021-08-10T09:35:33Z</time>
      </trkpt>
      <trkpt lat="47.58788" lon="6.85998">
        <ele>340.4</ele>
        <time>2021-08-10T09:35:35Z</time>
      </trkpt>
      <trkpt lat="47.58791" lon="6.85992">
        <ele>340.4</ele>
        <time>2021-08-10T09:35:36Z</time>
      </trkpt>
      <trkpt lat="47.58793" lon="6.85987">
        <ele>340.4</ele>
        <time>2021-08-10T09:35:37Z</time>
      </trkpt>
      <trkpt lat="47.58795" lon="6.85983">
        <ele>340.4</ele>
        <time>2021-08-10T09:35:38Z</time>
      </trkpt>
      <trkpt lat="47.58799" lon="6.85977">
        <ele>340.4</ele>
        <time>2021-08-10T09:35:39Z</time>
      </trkpt>
      <trkpt lat="47.58802" lon="6.85973">
        <ele>340.4</ele>
        <time>2021-08-10T09:35:41Z</time>
      </trkpt>
      <trkpt lat="47.58806" lon="6.85968">
        <ele>340.5</ele>
        <time>2021-08-10T09:35:42Z</time>
      </trkpt>
      <trkpt lat="47.58809" lon="6.85965">
        <ele>340.4</ele>
        <time>2021-08-10T09:35:43Z</time>
      </trkpt>
      <trkpt lat="47.58812" lon="6.85963">
        <ele>340.4</ele>
        <time>2021-08-10T09:35:44Z</time>
      </trkpt>
      <trkpt lat="47.58817" lon="6.85957">
        <ele>340.4</ele>
        <time>2021-08-10T09:35:46Z</time>
      </trkpt>
      <trkpt lat="47.58821" lon="6.85954">
        <ele>340.4</ele>
        <time>2021-08-10T09:35:47Z</time>
      </trkpt>
      <trkpt lat="47.58828" lon="6.85951">
        <ele>340.4</ele>
        <time>2021-08-10T09:35:49Z</time>
      </trkpt>
      <trkpt lat="47.58834" lon="6.85948">
        <ele>340.4</ele>
        <time>2021-08-10T09:35:51Z</time>
      </trkpt>
      <trkpt lat="47.58841" lon="6.85947">
        <ele>340.4</ele>
        <time>2021-08-10T09:35:53Z</time>
      </trkpt>
      <trkpt lat="47.58847" lon="6.85947">
        <ele>340.4</ele>
        <time>2021-08-10T09:35:55Z</time>
      </trkpt>
      <trkpt lat="47.58854" lon="6.8595">
        <ele>340.4</ele>
        <time>2021-08-10T09:35:57Z</time>
      </trkpt>
      <trkpt lat="47.58861" lon="6.85952">
        <ele>340.5</ele>
        <time>2021-08-10T09:35:59Z</time>
      </trkpt>
      <trkpt lat="47.58869" lon="6.85953">
        <ele>340.5</ele>
        <time>2021-08-10T09:36:01Z</time>
      </trkpt>
      <trkpt lat="47.58876" lon="6.85954">
        <ele>340.6</ele>
        <time>2021-08-10T09:36:03Z</time>
      </trkpt>
      <trkpt lat="47.5888" lon="6.85956">
        <ele>340.6</ele>
        <time>2021-08-10T09:36:04Z</time>
      </trkpt>
      <trkpt lat="47.58884" lon="6.85959">
        <ele>340.7</ele>
        <time>2021-08-10T09:36:06Z</time>
      </trkpt>
      <trkpt lat="47.58887" lon="6.85959">
        <ele>340.7</ele>
        <time>2021-08-10T09:36:07Z</time>
      </trkpt>
      <trkpt lat="47.58891" lon="6.85955">
        <ele>340.8</ele>
        <time>2021-08-10T09:36:09Z</time>
      </trkpt>
      <trkpt lat="47.58891" lon="6.85953">
        <ele>340.8</ele>
        <time>2021-08-10T09:36:10Z</time>
      </trkpt>
      <trkpt lat="47.58892" lon="6.85948">
        <ele>340.8</ele>
        <time>2021-08-10T09:36:12Z</time>
      </trkpt>
      <trkpt lat="47.58894" lon="6.85946">
        <ele>340.9</ele>
        <time>2021-08-10T09:36:13Z</time>
      </trkpt>
      <trkpt lat="47.58895" lon="6.85943">
        <ele>340.9</ele>
        <time>2021-08-10T09:36:15Z</time>
      </trkpt>
      <trkpt lat="47.58898" lon="6.8594">
        <ele>340.9</ele>
        <time>2021-08-10T09:36:16Z</time>
      </trkpt>
      <trkpt lat="47.58898" lon="6.85938">
        <ele>340.9</ele>
        <time>2021-08-10T09:36:17Z</time>
      </trkpt>
      <trkpt lat="47.58899" lon="6.85933">
        <ele>340.9</ele>
        <time>2021-08-10T09:36:19Z</time>
      </trkpt>
      <trkpt lat="47.589" lon="6.85929">
        <ele>340.9</ele>
        <time>2021-08-10T09:36:20Z</time>
      </trkpt>
      <trkpt lat="47.589" lon="6.85924">
        <ele>340.9</ele>
        <time>2021-08-10T09:36:21Z</time>
      </trkpt>
      <trkpt lat="47.58899" lon="6.85918">
        <ele>341</ele>
        <time>2021-08-10T09:36:22Z</time>
      </trkpt>
      <trkpt lat="47.58895" lon="6.85909">
        <ele>341.2</ele>
        <time>2021-08-10T09:36:24Z</time>
      </trkpt>
      <trkpt lat="47.58891" lon="6.85902">
        <ele>341.3</ele>
        <time>2021-08-10T09:36:26Z</time>
      </trkpt>
      <trkpt lat="47.58889" lon="6.85898">
        <ele>341.4</ele>
        <time>2021-08-10T09:36:27Z</time>
      </trkpt>
      <trkpt lat="47.58887" lon="6.85896">
        <ele>341.5</ele>
        <time>2021-08-10T09:36:28Z</time>
      </trkpt>
      <trkpt lat="47.58883" lon="6.85894">
        <ele>341.6</ele>
        <time>2021-08-10T09:36:30Z</time>
      </trkpt>
      <trkpt lat="47.5888" lon="6.85892">
        <ele>341.7</ele>
        <time>2021-08-10T09:36:31Z</time>
      </trkpt>
      <trkpt lat="47.58877" lon="6.85891">
        <ele>341.8</ele>
        <time>2021-08-10T09:36:32Z</time>
      </trkpt>
      <trkpt lat="47.58873" lon="6.85891">
        <ele>341.9</ele>
        <time>2021-08-10T09:36:34Z</time>
      </trkpt>
      <trkpt lat="47.58869" lon="6.8589">
        <ele>342</ele>
        <time>2021-08-10T09:36:35Z</time>
      </trkpt>
      <trkpt lat="47.58862" lon="6.85888">
        <ele>342.1</ele>
        <time>2021-08-10T09:36:37Z</time>
      </trkpt>
      <trkpt lat="47.58857" lon="6.85887">
        <ele>342.1</ele>
        <time>2021-08-10T09:36:38Z</time>
      </trkpt>
      <trkpt lat="47.58853" lon="6.85886">
        <ele>342.2</ele>
        <time>2021-08-10T09:36:39Z</time>
      </trkpt>
      <trkpt lat="47.58849" lon="6.85885">
        <ele>342.2</ele>
        <time>2021-08-10T09:36:40Z</time>
      </trkpt>
      <trkpt lat="47.58843" lon="6.85884">
        <ele>342.3</ele>
        <time>2021-08-10T09:36:42Z</time>
      </trkpt>
      <trkpt lat="47.58837" lon="6.85884">
        <ele>342.3</ele>
        <time>2021-08-10T09:36:43Z</time>
      </trkpt>
      <trkpt lat="47.58833" lon="6.85883">
        <ele>342.3</ele>
        <time>2021-08-10T09:36:44Z</time>
      </trkpt>
      <trkpt lat="47.58829" lon="6.85883">
        <ele>342.4</ele>
        <time>2021-08-10T09:36:46Z</time>
      </trkpt>
      <trkpt lat="47.58824" lon="6.85883">
        <ele>342.4</ele>
        <time>2021-08-10T09:36:47Z</time>
      </trkpt>
      <trkpt lat="47.5882" lon="6.85882">
        <ele>342.4</ele>
        <time>2021-08-10T09:36:48Z</time>
      </trkpt>
      <trkpt lat="47.58817" lon="6.85881">
        <ele>342.4</ele>
        <time>2021-08-10T09:36:49Z</time>
      </trkpt>
      <trkpt lat="47.58813" lon="6.85879">
        <ele>342.4</ele>
        <time>2021-08-10T09:36:50Z</time>
      </trkpt>
      <trkpt lat="47.58808" lon="6.85876">
        <ele>342.4</ele>
        <time>2021-08-10T09:36:52Z</time>
      </trkpt>
      <trkpt lat="47.58804" lon="6.85875">
        <ele>342.5</ele>
        <time>2021-08-10T09:36:53Z</time>
      </trkpt>
      <trkpt lat="47.58797" lon="6.85874">
        <ele>342.5</ele>
        <time>2021-08-10T09:36:55Z</time>
      </trkpt>
      <trkpt lat="47.58792" lon="6.85874">
        <ele>342.5</ele>
        <time>2021-08-10T09:36:56Z</time>
      </trkpt>
      <trkpt lat="47.58784" lon="6.85872">
        <ele>342.5</ele>
        <time>2021-08-10T09:36:58Z</time>
      </trkpt>
      <trkpt lat="47.58775" lon="6.85868">
        <ele>342.5</ele>
        <time>2021-08-10T09:37:00Z</time>
      </trkpt>
      <trkpt lat="47.58771" lon="6.85866">
        <ele>342.5</ele>
        <time>2021-08-10T09:37:01Z</time>
      </trkpt>
      <trkpt lat="47.58767" lon="6.85864">
        <ele>342.5</ele>
        <time>2021-08-10T09:37:02Z</time>
      </trkpt>
      <trkpt lat="47.58764" lon="6.85862">
        <ele>342.5</ele>
        <time>2021-08-10T09:37:03Z</time>
      </trkpt>
      <trkpt lat="47.58758" lon="6.85858">
        <ele>342.6</ele>
        <time>2021-08-10T09:37:05Z</time>
      </trkpt>
      <trkpt lat="47.58754" lon="6.85856">
        <ele>342.6</ele>
        <time>2021-08-10T09:37:06Z</time>
      </trkpt>
      <trkpt lat="47.58749" lon="6.85855">
        <ele>342.6</ele>
        <time>2021-08-10T09:37:07Z</time>
      </trkpt>
      <trkpt lat="47.5874" lon="6.85856">
        <ele>342.7</ele>
        <time>2021-08-10T09:37:09Z</time>
      </trkpt>
      <trkpt lat="47.58732" lon="6.85858">
        <ele>342.8</ele>
        <time>2021-08-10T09:37:11Z</time>
      </trkpt>
      <trkpt lat="47.58724" lon="6.8586">
        <ele>343.1</ele>
        <time>2021-08-10T09:37:13Z</time>
      </trkpt>
      <trkpt lat="47.5872" lon="6.85861">
        <ele>343.2</ele>
        <time>2021-08-10T09:37:14Z</time>
      </trkpt>
      <trkpt lat="47.58716" lon="6.85862">
        <ele>343.4</ele>
        <time>2021-08-10T09:37:15Z</time>
      </trkpt>
      <trkpt lat="47.58712" lon="6.85863">
        <ele>343.6</ele>
        <time>2021-08-10T09:37:16Z</time>
      </trkpt>
      <trkpt lat="47.58706" lon="6.85862">
        <ele>343.9</ele>
        <time>2021-08-10T09:37:18Z</time>
      </trkpt>
      <trkpt lat="47.58702" lon="6.85862">
        <ele>344.1</ele>
        <time>2021-08-10T09:37:19Z</time>
      </trkpt>
      <trkpt lat="47.58698" lon="6.85861">
        <ele>344.3</ele>
        <time>2021-08-10T09:37:21Z</time>
      </trkpt>
      <trkpt lat="47.58694" lon="6.85862">
        <ele>344.5</ele>
        <time>2021-08-10T09:37:22Z</time>
      </trkpt>
      <trkpt lat="47.58692" lon="6.85862">
        <ele>344.6</ele>
        <time>2021-08-10T09:37:23Z</time>
      </trkpt>
      <trkpt lat="47.58688" lon="6.85862">
        <ele>344.8</ele>
        <time>2021-08-10T09:37:25Z</time>
      </trkpt>
      <trkpt lat="47.58684" lon="6.85861">
        <ele>344.9</ele>
        <time>2021-08-10T09:37:26Z</time>
      </trkpt>
      <trkpt lat="47.58681" lon="6.8586">
        <ele>345.1</ele>
        <time>2021-08-10T09:37:27Z</time>
      </trkpt>
      <trkpt lat="47.58677" lon="6.85856">
        <ele>345.3</ele>
        <time>2021-08-10T09:37:29Z</time>
      </trkpt>
      <trkpt lat="47.58673" lon="6.85852">
        <ele>345.4</ele>
        <time>2021-08-10T09:37:30Z</time>
      </trkpt>
      <trkpt lat="47.5867" lon="6.85849">
        <ele>345.6</ele>
        <time>2021-08-10T09:37:31Z</time>
      </trkpt>
      <trkpt lat="47.58666" lon="6.85844">
        <ele>345.8</ele>
        <time>2021-08-10T09:37:33Z</time>
      </trkpt>
      <trkpt lat="47.58662" lon="6.8584">
        <ele>345.9</ele>
        <time>2021-08-10T09:37:34Z</time>
      </trkpt>
      <trkpt lat="47.58659" lon="6.85834">
        <ele>345.9</ele>
        <time>2021-08-10T09:37:35Z</time>
      </trkpt>
      <trkpt lat="47.58658" lon="6.85829">
        <ele>345.9</ele>
        <time>2021-08-10T09:37:36Z</time>
      </trkpt>
      <trkpt lat="47.58659" lon="6.85824">
        <ele>346</ele>
        <time>2021-08-10T09:37:37Z</time>
      </trkpt>
      <trkpt lat="47.58662" lon="6.85815">
        <ele>346</ele>
        <time>2021-08-10T09:37:38Z</time>
      </trkpt>
      <trkpt lat="47.58665" lon="6.85806">
        <ele>346.1</ele>
        <time>2021-08-10T09:37:40Z</time>
      </trkpt>
      <trkpt lat="47.58666" lon="6.858">
        <ele>346</ele>
        <time>2021-08-10T09:37:41Z</time>
      </trkpt>
      <trkpt lat="47.5867" lon="6.85786">
        <ele>346</ele>
        <time>2021-08-10T09:37:43Z</time>
      </trkpt>
      <trkpt lat="47.58672" lon="6.85778">
        <ele>346</ele>
        <time>2021-08-10T09:37:44Z</time>
      </trkpt>
      <trkpt lat="47.58674" lon="6.85767">
        <ele>346.1</ele>
        <time>2021-08-10T09:37:46Z</time>
      </trkpt>
      <trkpt lat="47.58675" lon="6.85759">
        <ele>346.1</ele>
        <time>2021-08-10T09:37:47Z</time>
      </trkpt>
      <trkpt lat="47.58676" lon="6.85754">
        <ele>346.2</ele>
        <time>2021-08-10T09:37:48Z</time>
      </trkpt>
      <trkpt lat="47.58676" lon="6.85748">
        <ele>346.2</ele>
        <time>2021-08-10T09:37:49Z</time>
      </trkpt>
      <trkpt lat="47.58678" lon="6.85741">
        <ele>346.3</ele>
        <time>2021-08-10T09:37:51Z</time>
      </trkpt>
      <trkpt lat="47.58677" lon="6.85737">
        <ele>346.3</ele>
        <time>2021-08-10T09:37:52Z</time>
      </trkpt>
      <trkpt lat="47.58677" lon="6.85735">
        <ele>346.3</ele>
        <time>2021-08-10T09:37:53Z</time>
      </trkpt>
      <trkpt lat="47.58676" lon="6.85734">
        <ele>346.3</ele>
        <time>2021-08-10T09:37:54Z</time>
      </trkpt>
      <trkpt lat="47.58676" lon="6.85732">
        <ele>346.3</ele>
        <time>2021-08-10T09:37:55Z</time>
      </trkpt>
      <trkpt lat="47.58677" lon="6.85727">
        <ele>346.4</ele>
        <time>2021-08-10T09:37:56Z</time>
      </trkpt>
      <trkpt lat="47.58677" lon="6.85724">
        <ele>346.4</ele>
        <time>2021-08-10T09:37:57Z</time>
      </trkpt>
      <trkpt lat="47.5868" lon="6.85713">
        <ele>346.5</ele>
        <time>2021-08-10T09:37:59Z</time>
      </trkpt>
      <trkpt lat="47.58681" lon="6.85705">
        <ele>346.6</ele>
        <time>2021-08-10T09:38:00Z</time>
      </trkpt>
      <trkpt lat="47.58682" lon="6.85695">
        <ele>346.7</ele>
        <time>2021-08-10T09:38:02Z</time>
      </trkpt>
      <trkpt lat="47.58683" lon="6.8569">
        <ele>345.4</ele>
        <time>2021-08-10T09:38:03Z</time>
      </trkpt>
      <trkpt lat="47.58684" lon="6.85689">
        <ele>345.3</ele>
        <time>2021-08-10T09:38:04Z</time>
      </trkpt>
      <trkpt lat="47.58683" lon="6.85686">
        <ele>345.1</ele>
        <time>2021-08-10T09:38:06Z</time>
      </trkpt>
      <trkpt lat="47.58682" lon="6.85686">
        <ele>345</ele>
        <time>2021-08-10T09:38:07Z</time>
      </trkpt>
      <trkpt lat="47.58682" lon="6.85687">
        <ele>344.9</ele>
        <time>2021-08-10T09:38:09Z</time>
      </trkpt>
      <trkpt lat="47.58684" lon="6.8569">
        <ele>344.7</ele>
        <time>2021-08-10T09:38:10Z</time>
      </trkpt>
      <trkpt lat="47.58686" lon="6.85698">
        <ele>344.1</ele>
        <time>2021-08-10T09:38:12Z</time>
      </trkpt>
      <trkpt lat="47.58689" lon="6.85712">
        <ele>343.1</ele>
        <time>2021-08-10T09:38:13Z</time>
      </trkpt>
      <trkpt lat="47.5869" lon="6.85722">
        <ele>342.5</ele>
        <time>2021-08-10T09:38:14Z</time>
      </trkpt>
      <trkpt lat="47.58692" lon="6.85733">
        <ele>342.1</ele>
        <time>2021-08-10T09:38:15Z</time>
      </trkpt>
      <trkpt lat="47.58695" lon="6.85756">
        <ele>341.4</ele>
        <time>2021-08-10T09:38:17Z</time>
      </trkpt>
      <trkpt lat="47.58696" lon="6.85766">
        <ele>341.2</ele>
        <time>2021-08-10T09:38:18Z</time>
      </trkpt>
      <trkpt lat="47.58698" lon="6.85775">
        <ele>341.1</ele>
        <time>2021-08-10T09:38:19Z</time>
      </trkpt>
      <trkpt lat="47.58698" lon="6.85783">
        <ele>341</ele>
        <time>2021-08-10T09:38:20Z</time>
      </trkpt>
      <trkpt lat="47.58697" lon="6.85795">
        <ele>341</ele>
        <time>2021-08-10T09:38:22Z</time>
      </trkpt>
      <trkpt lat="47.58701" lon="6.85802">
        <ele>341</ele>
        <time>2021-08-10T09:38:23Z</time>
      </trkpt>
      <trkpt lat="47.58705" lon="6.8581">
        <ele>341.1</ele>
        <time>2021-08-10T09:38:25Z</time>
      </trkpt>
      <trkpt lat="47.58709" lon="6.85814">
        <ele>341.1</ele>
        <time>2021-08-10T09:38:26Z</time>
      </trkpt>
      <trkpt lat="47.58729" lon="6.85806">
        <ele>341.6</ele>
        <time>2021-08-10T09:38:27Z</time>
      </trkpt>
      <trkpt lat="47.58735" lon="6.85805">
        <ele>341.8</ele>
        <time>2021-08-10T09:38:29Z</time>
      </trkpt>
      <trkpt lat="47.58742" lon="6.85807">
        <ele>342.2</ele>
        <time>2021-08-10T09:38:31Z</time>
      </trkpt>
      <trkpt lat="47.58746" lon="6.85807">
        <ele>342.2</ele>
        <time>2021-08-10T09:38:32Z</time>
      </trkpt>
      <trkpt lat="47.58743" lon="6.85806">
        <ele>342.2</ele>
        <time>2021-08-10T09:38:33Z</time>
      </trkpt>
      <trkpt lat="47.58739" lon="6.85804">
        <ele>342.2</ele>
        <time>2021-08-10T09:38:35Z</time>
      </trkpt>
      <trkpt lat="47.58736" lon="6.85803">
        <ele>342.2</ele>
        <time>2021-08-10T09:38:36Z</time>
      </trkpt>
      <trkpt lat="47.58732" lon="6.85802">
        <ele>342.2</ele>
        <time>2021-08-10T09:38:38Z</time>
      </trkpt>
      <trkpt lat="47.58729" lon="6.85801">
        <ele>342.2</ele>
        <time>2021-08-10T09:38:39Z</time>
      </trkpt>
      <trkpt lat="47.58725" lon="6.85799">
        <ele>342.3</ele>
        <time>2021-08-10T09:38:40Z</time>
      </trkpt>
      <trkpt lat="47.58722" lon="6.85798">
        <ele>342.3</ele>
        <time>2021-08-10T09:38:41Z</time>
      </trkpt>
      <trkpt lat="47.58707" lon="6.85794">
        <ele>342.4</ele>
        <time>2021-08-10T09:38:42Z</time>
      </trkpt>
      <trkpt lat="47.58701" lon="6.85792">
        <ele>342.4</ele>
        <time>2021-08-10T09:38:44Z</time>
      </trkpt>
      <trkpt lat="47.58694" lon="6.85791">
        <ele>342.5</ele>
        <time>2021-08-10T09:38:45Z</time>
      </trkpt>
      <trkpt lat="47.58687" lon="6.85789">
        <ele>342.5</ele>
        <time>2021-08-10T09:38:46Z</time>
      </trkpt>
      <trkpt lat="47.58678" lon="6.85787">
        <ele>342.5</ele>
        <time>2021-08-10T09:38:47Z</time>
      </trkpt>
      <trkpt lat="47.58671" lon="6.85789">
        <ele>342.6</ele>
        <time>2021-08-10T09:38:48Z</time>
      </trkpt>
      <trkpt lat="47.58667" lon="6.85787">
        <ele>342.6</ele>
        <time>2021-08-10T09:38:50Z</time>
      </trkpt>
      <trkpt lat="47.58661" lon="6.85783">
        <ele>342.6</ele>
        <time>2021-08-10T09:38:51Z</time>
      </trkpt>
      <trkpt lat="47.58657" lon="6.8578">
        <ele>342.6</ele>
        <time>2021-08-10T09:38:52Z</time>
      </trkpt>
      <trkpt lat="47.58653" lon="6.85776">
        <ele>342.5</ele>
        <time>2021-08-10T09:38:53Z</time>
      </trkpt>
      <trkpt lat="47.58641" lon="6.85766">
        <ele>342.4</ele>
        <time>2021-08-10T09:38:55Z</time>
      </trkpt>
      <trkpt lat="47.58632" lon="6.85759">
        <ele>342.4</ele>
        <time>2021-08-10T09:38:57Z</time>
      </trkpt>
      <trkpt lat="47.58626" lon="6.85756">
        <ele>342.4</ele>
        <time>2021-08-10T09:38:58Z</time>
      </trkpt>
      <trkpt lat="47.58621" lon="6.85754">
        <ele>342.3</ele>
        <time>2021-08-10T09:38:59Z</time>
      </trkpt>
      <trkpt lat="47.58611" lon="6.85749">
        <ele>342.3</ele>
        <time>2021-08-10T09:39:01Z</time>
      </trkpt>
      <trkpt lat="47.58602" lon="6.85746">
        <ele>342.3</ele>
        <time>2021-08-10T09:39:03Z</time>
      </trkpt>
      <trkpt lat="47.58597" lon="6.85747">
        <ele>342.3</ele>
        <time>2021-08-10T09:39:04Z</time>
      </trkpt>
      <trkpt lat="47.58591" lon="6.85749">
        <ele>342.3</ele>
        <time>2021-08-10T09:39:05Z</time>
      </trkpt>
      <trkpt lat="47.58578" lon="6.8575">
        <ele>342.2</ele>
        <time>2021-08-10T09:39:07Z</time>
      </trkpt>
      <trkpt lat="47.58565" lon="6.85749">
        <ele>342.2</ele>
        <time>2021-08-10T09:39:09Z</time>
      </trkpt>
      <trkpt lat="47.5856" lon="6.85748">
        <ele>342.2</ele>
        <time>2021-08-10T09:39:10Z</time>
      </trkpt>
      <trkpt lat="47.58553" lon="6.85746">
        <ele>342.1</ele>
        <time>2021-08-10T09:39:12Z</time>
      </trkpt>
      <trkpt lat="47.58549" lon="6.85743">
        <ele>342.1</ele>
        <time>2021-08-10T09:39:13Z</time>
      </trkpt>
      <trkpt lat="47.58541" lon="6.85737">
        <ele>342.1</ele>
        <time>2021-08-10T09:39:15Z</time>
      </trkpt>
      <trkpt lat="47.58537" lon="6.85733">
        <ele>342.1</ele>
        <time>2021-08-10T09:39:16Z</time>
      </trkpt>
      <trkpt lat="47.58539" lon="6.85726">
        <ele>342.1</ele>
        <time>2021-08-10T09:39:17Z</time>
      </trkpt>
      <trkpt lat="47.58538" lon="6.85726">
        <ele>342.1</ele>
        <time>2021-08-10T09:39:19Z</time>
      </trkpt>
      <trkpt lat="47.58537" lon="6.85726">
        <ele>342.1</ele>
        <time>2021-08-10T09:39:20Z</time>
      </trkpt>
      <trkpt lat="47.58533" lon="6.85726">
        <ele>342.1</ele>
        <time>2021-08-10T09:39:22Z</time>
      </trkpt>
      <trkpt lat="47.58516" lon="6.85724">
        <ele>342.1</ele>
        <time>2021-08-10T09:39:23Z</time>
      </trkpt>
      <trkpt lat="47.58512" lon="6.85723">
        <ele>342.1</ele>
        <time>2021-08-10T09:39:24Z</time>
      </trkpt>
      <trkpt lat="47.58507" lon="6.85723">
        <ele>342.1</ele>
        <time>2021-08-10T09:39:25Z</time>
      </trkpt>
      <trkpt lat="47.58506" lon="6.85723">
        <ele>342.1</ele>
        <time>2021-08-10T09:39:27Z</time>
      </trkpt>
      <trkpt lat="47.58451" lon="6.85701">
        <ele>342.2</ele>
        <time>2021-08-10T09:39:43Z</time>
      </trkpt>
      <trkpt lat="47.58444" lon="6.85697">
        <ele>342.2</ele>
        <time>2021-08-10T09:39:45Z</time>
      </trkpt>
      <trkpt lat="47.58436" lon="6.85696">
        <ele>342.2</ele>
        <time>2021-08-10T09:39:46Z</time>
      </trkpt>
      <trkpt lat="47.58428" lon="6.85695">
        <ele>342.2</ele>
        <time>2021-08-10T09:39:47Z</time>
      </trkpt>
      <trkpt lat="47.58419" lon="6.85694">
        <ele>342.1</ele>
        <time>2021-08-10T09:39:48Z</time>
      </trkpt>
      <trkpt lat="47.58396" lon="6.85697">
        <ele>342.1</ele>
        <time>2021-08-10T09:39:50Z</time>
      </trkpt>
      <trkpt lat="47.58391" lon="6.85695">
        <ele>342.1</ele>
        <time>2021-08-10T09:39:51Z</time>
      </trkpt>
      <trkpt lat="47.58385" lon="6.85699">
        <ele>342.1</ele>
        <time>2021-08-10T09:39:52Z</time>
      </trkpt>
      <trkpt lat="47.58382" lon="6.857">
        <ele>342.1</ele>
        <time>2021-08-10T09:39:53Z</time>
      </trkpt>
      <trkpt lat="47.58375" lon="6.85697">
        <ele>342.1</ele>
        <time>2021-08-10T09:39:55Z</time>
      </trkpt>
      <trkpt lat="47.5837" lon="6.85696">
        <ele>342.1</ele>
        <time>2021-08-10T09:39:56Z</time>
      </trkpt>
      <trkpt lat="47.58361" lon="6.85695">
        <ele>342.1</ele>
        <time>2021-08-10T09:39:58Z</time>
      </trkpt>
      <trkpt lat="47.58357" lon="6.85695">
        <ele>342.1</ele>
        <time>2021-08-10T09:39:59Z</time>
      </trkpt>
      <trkpt lat="47.58352" lon="6.85695">
        <ele>342.1</ele>
        <time>2021-08-10T09:40:00Z</time>
      </trkpt>
      <trkpt lat="47.58348" lon="6.85695">
        <ele>342.1</ele>
        <time>2021-08-10T09:40:01Z</time>
      </trkpt>
      <trkpt lat="47.58343" lon="6.85694">
        <ele>342.1</ele>
        <time>2021-08-10T09:40:02Z</time>
      </trkpt>
      <trkpt lat="47.58337" lon="6.85693">
        <ele>342.1</ele>
        <time>2021-08-10T09:40:03Z</time>
      </trkpt>
      <trkpt lat="47.5833" lon="6.85692">
        <ele>342.1</ele>
        <time>2021-08-10T09:40:05Z</time>
      </trkpt>
      <trkpt lat="47.58325" lon="6.8569">
        <ele>342.1</ele>
        <time>2021-08-10T09:40:06Z</time>
      </trkpt>
      <trkpt lat="47.58319" lon="6.85688">
        <ele>342.1</ele>
        <time>2021-08-10T09:40:07Z</time>
      </trkpt>
      <trkpt lat="47.58303" lon="6.85686">
        <ele>342.1</ele>
        <time>2021-08-10T09:40:09Z</time>
      </trkpt>
      <trkpt lat="47.58298" lon="6.85685">
        <ele>342.1</ele>
        <time>2021-08-10T09:40:10Z</time>
      </trkpt>
      <trkpt lat="47.58291" lon="6.85683">
        <ele>342.1</ele>
        <time>2021-08-10T09:40:11Z</time>
      </trkpt>
      <trkpt lat="47.58279" lon="6.8568">
        <ele>342.1</ele>
        <time>2021-08-10T09:40:13Z</time>
      </trkpt>
      <trkpt lat="47.58266" lon="6.85676">
        <ele>342.2</ele>
        <time>2021-08-10T09:40:15Z</time>
      </trkpt>
      <trkpt lat="47.58256" lon="6.85674">
        <ele>342.3</ele>
        <time>2021-08-10T09:40:17Z</time>
      </trkpt>
      <trkpt lat="47.58251" lon="6.85674">
        <ele>342.3</ele>
        <time>2021-08-10T09:40:18Z</time>
      </trkpt>
      <trkpt lat="47.58245" lon="6.85675">
        <ele>342.4</ele>
        <time>2021-08-10T09:40:19Z</time>
      </trkpt>
      <trkpt lat="47.58232" lon="6.85679">
        <ele>342.5</ele>
        <time>2021-08-10T09:40:21Z</time>
      </trkpt>
      <trkpt lat="47.58221" lon="6.85685">
        <ele>342.5</ele>
        <time>2021-08-10T09:40:23Z</time>
      </trkpt>
      <trkpt lat="47.58218" lon="6.85687">
        <ele>342.5</ele>
        <time>2021-08-10T09:40:24Z</time>
      </trkpt>
      <trkpt lat="47.58216" lon="6.85687">
        <ele>342.5</ele>
        <time>2021-08-10T09:40:25Z</time>
      </trkpt>
      <trkpt lat="47.58209" lon="6.85688">
        <ele>342.4</ele>
        <time>2021-08-10T09:40:27Z</time>
      </trkpt>
      <trkpt lat="47.58205" lon="6.85687">
        <ele>342.4</ele>
        <time>2021-08-10T09:40:28Z</time>
      </trkpt>
      <trkpt lat="47.58202" lon="6.85686">
        <ele>342.4</ele>
        <time>2021-08-10T09:40:29Z</time>
      </trkpt>
      <trkpt lat="47.58197" lon="6.85687">
        <ele>342.4</ele>
        <time>2021-08-10T09:40:31Z</time>
      </trkpt>
      <trkpt lat="47.58194" lon="6.85688">
        <ele>342.4</ele>
        <time>2021-08-10T09:40:32Z</time>
      </trkpt>
      <trkpt lat="47.58188" lon="6.85689">
        <ele>342.4</ele>
        <time>2021-08-10T09:40:34Z</time>
      </trkpt>
      <trkpt lat="47.58185" lon="6.85691">
        <ele>342.3</ele>
        <time>2021-08-10T09:40:35Z</time>
      </trkpt>
      <trkpt lat="47.58182" lon="6.85694">
        <ele>342.3</ele>
        <time>2021-08-10T09:40:36Z</time>
      </trkpt>
      <trkpt lat="47.58178" lon="6.85698">
        <ele>342.4</ele>
        <time>2021-08-10T09:40:37Z</time>
      </trkpt>
      <trkpt lat="47.58173" lon="6.85706">
        <ele>342.4</ele>
        <time>2021-08-10T09:40:39Z</time>
      </trkpt>
      <trkpt lat="47.5817" lon="6.85712">
        <ele>342.4</ele>
        <time>2021-08-10T09:40:40Z</time>
      </trkpt>
      <trkpt lat="47.58163" lon="6.85721">
        <ele>342.4</ele>
        <time>2021-08-10T09:40:42Z</time>
      </trkpt>
      <trkpt lat="47.58159" lon="6.85725">
        <ele>342.4</ele>
        <time>2021-08-10T09:40:43Z</time>
      </trkpt>
      <trkpt lat="47.58153" lon="6.85736">
        <ele>342.5</ele>
        <time>2021-08-10T09:40:45Z</time>
      </trkpt>
      <trkpt lat="47.5815" lon="6.85741">
        <ele>342.5</ele>
        <time>2021-08-10T09:40:46Z</time>
      </trkpt>
      <trkpt lat="47.58145" lon="6.85751">
        <ele>342.5</ele>
        <time>2021-08-10T09:40:48Z</time>
      </trkpt>
      <trkpt lat="47.58141" lon="6.85756">
        <ele>342.5</ele>
        <time>2021-08-10T09:40:49Z</time>
      </trkpt>
      <trkpt lat="47.58139" lon="6.85763">
        <ele>342.5</ele>
        <time>2021-08-10T09:40:51Z</time>
      </trkpt>
      <trkpt lat="47.58137" lon="6.8577">
        <ele>342.4</ele>
        <time>2021-08-10T09:40:53Z</time>
      </trkpt>
      <trkpt lat="47.58136" lon="6.85777">
        <ele>342.4</ele>
        <time>2021-08-10T09:40:55Z</time>
      </trkpt>
      <trkpt lat="47.58135" lon="6.85783">
        <ele>342.4</ele>
        <time>2021-08-10T09:40:57Z</time>
      </trkpt>
      <trkpt lat="47.58131" lon="6.85789">
        <ele>342.4</ele>
        <time>2021-08-10T09:40:59Z</time>
      </trkpt>
      <trkpt lat="47.58128" lon="6.85793">
        <ele>342.4</ele>
        <time>2021-08-10T09:41:00Z</time>
      </trkpt>
      <trkpt lat="47.58127" lon="6.85794">
        <ele>342.4</ele>
        <time>2021-08-10T09:41:01Z</time>
      </trkpt>
      <trkpt lat="47.58125" lon="6.85798">
        <ele>342.4</ele>
        <time>2021-08-10T09:41:02Z</time>
      </trkpt>
      <trkpt lat="47.58124" lon="6.858">
        <ele>342.4</ele>
        <time>2021-08-10T09:41:03Z</time>
      </trkpt>
      <trkpt lat="47.58122" lon="6.85803">
        <ele>342.3</ele>
        <time>2021-08-10T09:41:04Z</time>
      </trkpt>
      <trkpt lat="47.5812" lon="6.85809">
        <ele>342.3</ele>
        <time>2021-08-10T09:41:06Z</time>
      </trkpt>
      <trkpt lat="47.58117" lon="6.85813">
        <ele>342.3</ele>
        <time>2021-08-10T09:41:07Z</time>
      </trkpt>
      <trkpt lat="47.58113" lon="6.8582">
        <ele>342.3</ele>
        <time>2021-08-10T09:41:09Z</time>
      </trkpt>
      <trkpt lat="47.58109" lon="6.85824">
        <ele>342.2</ele>
        <time>2021-08-10T09:41:10Z</time>
      </trkpt>
      <trkpt lat="47.58105" lon="6.85827">
        <ele>342.2</ele>
        <time>2021-08-10T09:41:11Z</time>
      </trkpt>
      <trkpt lat="47.58102" lon="6.8583">
        <ele>342.1</ele>
        <time>2021-08-10T09:41:13Z</time>
      </trkpt>
      <trkpt lat="47.58098" lon="6.85834">
        <ele>342.1</ele>
        <time>2021-08-10T09:41:14Z</time>
      </trkpt>
      <trkpt lat="47.58096" lon="6.85837">
        <ele>342</ele>
        <time>2021-08-10T09:41:15Z</time>
      </trkpt>
      <trkpt lat="47.58096" lon="6.85838">
        <ele>342</ele>
        <time>2021-08-10T09:41:16Z</time>
      </trkpt>
      <trkpt lat="47.58092" lon="6.85842">
        <ele>342</ele>
        <time>2021-08-10T09:41:18Z</time>
      </trkpt>
      <trkpt lat="47.5809" lon="6.85846">
        <ele>342</ele>
        <time>2021-08-10T09:41:19Z</time>
      </trkpt>
      <trkpt lat="47.58087" lon="6.8585">
        <ele>341.9</ele>
        <time>2021-08-10T09:41:20Z</time>
      </trkpt>
      <trkpt lat="47.58078" lon="6.85864">
        <ele>341.8</ele>
        <time>2021-08-10T09:41:22Z</time>
      </trkpt>
      <trkpt lat="47.58074" lon="6.8587">
        <ele>341.6</ele>
        <time>2021-08-10T09:41:23Z</time>
      </trkpt>
      <trkpt lat="47.58065" lon="6.85881">
        <ele>341.2</ele>
        <time>2021-08-10T09:41:25Z</time>
      </trkpt>
      <trkpt lat="47.58051" lon="6.85888">
        <ele>340.4</ele>
        <time>2021-08-10T09:41:27Z</time>
      </trkpt>
      <trkpt lat="47.58037" lon="6.85895">
        <ele>339.7</ele>
        <time>2021-08-10T09:41:29Z</time>
      </trkpt>
      <trkpt lat="47.58025" lon="6.85898">
        <ele>339.4</ele>
        <time>2021-08-10T09:41:31Z</time>
      </trkpt>
      <trkpt lat="47.58013" lon="6.859">
        <ele>339.2</ele>
        <time>2021-08-10T09:41:33Z</time>
      </trkpt>
      <trkpt lat="47.58001" lon="6.85899">
        <ele>339.1</ele>
        <time>2021-08-10T09:41:35Z</time>
      </trkpt>
      <trkpt lat="47.57996" lon="6.85898">
        <ele>339.1</ele>
        <time>2021-08-10T09:41:36Z</time>
      </trkpt>
      <trkpt lat="47.57991" lon="6.85897">
        <ele>339.1</ele>
        <time>2021-08-10T09:41:37Z</time>
      </trkpt>
      <trkpt lat="47.57978" lon="6.85895">
        <ele>339</ele>
        <time>2021-08-10T09:41:39Z</time>
      </trkpt>
      <trkpt lat="47.57971" lon="6.85894">
        <ele>339</ele>
        <time>2021-08-10T09:41:40Z</time>
      </trkpt>
      <trkpt lat="47.57957" lon="6.85894">
        <ele>339</ele>
        <time>2021-08-10T09:41:42Z</time>
      </trkpt>
      <trkpt lat="47.5795" lon="6.85894">
        <ele>339.1</ele>
        <time>2021-08-10T09:41:43Z</time>
      </trkpt>
      <trkpt lat="47.57935" lon="6.85893">
        <ele>339.1</ele>
        <time>2021-08-10T09:41:45Z</time>
      </trkpt>
      <trkpt lat="47.57928" lon="6.85892">
        <ele>339</ele>
        <time>2021-08-10T09:41:46Z</time>
      </trkpt>
      <trkpt lat="47.57921" lon="6.85892">
        <ele>339</ele>
        <time>2021-08-10T09:41:47Z</time>
      </trkpt>
      <trkpt lat="47.5791" lon="6.85891">
        <ele>339</ele>
        <time>2021-08-10T09:41:49Z</time>
      </trkpt>
      <trkpt lat="47.57899" lon="6.85889">
        <ele>339</ele>
        <time>2021-08-10T09:41:51Z</time>
      </trkpt>
      <trkpt lat="47.57894" lon="6.85889">
        <ele>339</ele>
        <time>2021-08-10T09:41:52Z</time>
      </trkpt>
      <trkpt lat="47.57883" lon="6.85888">
        <ele>339</ele>
        <time>2021-08-10T09:41:54Z</time>
      </trkpt>
      <trkpt lat="47.57878" lon="6.85888">
        <ele>339</ele>
        <time>2021-08-10T09:41:55Z</time>
      </trkpt>
      <trkpt lat="47.57868" lon="6.85888">
        <ele>339</ele>
        <time>2021-08-10T09:41:57Z</time>
      </trkpt>
      <trkpt lat="47.57856" lon="6.85891">
        <ele>339</ele>
        <time>2021-08-10T09:41:59Z</time>
      </trkpt>
      <trkpt lat="47.57844" lon="6.85894">
        <ele>339</ele>
        <time>2021-08-10T09:42:01Z</time>
      </trkpt>
      <trkpt lat="47.57834" lon="6.85897">
        <ele>339.1</ele>
        <time>2021-08-10T09:42:03Z</time>
      </trkpt>
      <trkpt lat="47.57822" lon="6.85899">
        <ele>339.1</ele>
        <time>2021-08-10T09:42:05Z</time>
      </trkpt>
      <trkpt lat="47.57809" lon="6.859">
        <ele>339.1</ele>
        <time>2021-08-10T09:42:07Z</time>
      </trkpt>
      <trkpt lat="47.57798" lon="6.85899">
        <ele>339.1</ele>
        <time>2021-08-10T09:42:09Z</time>
      </trkpt>
      <trkpt lat="47.5779" lon="6.85896">
        <ele>339.1</ele>
        <time>2021-08-10T09:42:11Z</time>
      </trkpt>
      <trkpt lat="47.57779" lon="6.85893">
        <ele>339.1</ele>
        <time>2021-08-10T09:42:13Z</time>
      </trkpt>
      <trkpt lat="47.57771" lon="6.85889">
        <ele>339.1</ele>
        <time>2021-08-10T09:42:15Z</time>
      </trkpt>
      <trkpt lat="47.57767" lon="6.85888">
        <ele>339.1</ele>
        <time>2021-08-10T09:42:16Z</time>
      </trkpt>
      <trkpt lat="47.57762" lon="6.85887">
        <ele>339.1</ele>
        <time>2021-08-10T09:42:17Z</time>
      </trkpt>
      <trkpt lat="47.57759" lon="6.85889">
        <ele>339.1</ele>
        <time>2021-08-10T09:42:18Z</time>
      </trkpt>
      <trkpt lat="47.5775" lon="6.8589">
        <ele>339.1</ele>
        <time>2021-08-10T09:42:20Z</time>
      </trkpt>
      <trkpt lat="47.5774" lon="6.85893">
        <ele>339</ele>
        <time>2021-08-10T09:42:21Z</time>
      </trkpt>
      <trkpt lat="47.57733" lon="6.85894">
        <ele>339</ele>
        <time>2021-08-10T09:42:22Z</time>
      </trkpt>
      <trkpt lat="47.57721" lon="6.85892">
        <ele>338.9</ele>
        <time>2021-08-10T09:42:24Z</time>
      </trkpt>
      <trkpt lat="47.57715" lon="6.85891">
        <ele>338.9</ele>
        <time>2021-08-10T09:42:25Z</time>
      </trkpt>
      <trkpt lat="47.57703" lon="6.85891">
        <ele>338.9</ele>
        <time>2021-08-10T09:42:27Z</time>
      </trkpt>
      <trkpt lat="47.5769" lon="6.85893">
        <ele>338.8</ele>
        <time>2021-08-10T09:42:29Z</time>
      </trkpt>
      <trkpt lat="47.57679" lon="6.85896">
        <ele>338.8</ele>
        <time>2021-08-10T09:42:31Z</time>
      </trkpt>
      <trkpt lat="47.5767" lon="6.85897">
        <ele>338.8</ele>
        <time>2021-08-10T09:42:33Z</time>
      </trkpt>
      <trkpt lat="47.57665" lon="6.85898">
        <ele>338.8</ele>
        <time>2021-08-10T09:42:34Z</time>
      </trkpt>
      <trkpt lat="47.5766" lon="6.85899">
        <ele>338.8</ele>
        <time>2021-08-10T09:42:35Z</time>
      </trkpt>
      <trkpt lat="47.57651" lon="6.85901">
        <ele>338.8</ele>
        <time>2021-08-10T09:42:37Z</time>
      </trkpt>
      <trkpt lat="47.5764" lon="6.85901">
        <ele>338.8</ele>
        <time>2021-08-10T09:42:39Z</time>
      </trkpt>
      <trkpt lat="47.57629" lon="6.859">
        <ele>338.8</ele>
        <time>2021-08-10T09:42:41Z</time>
      </trkpt>
      <trkpt lat="47.57624" lon="6.859">
        <ele>338.9</ele>
        <time>2021-08-10T09:42:42Z</time>
      </trkpt>
      <trkpt lat="47.57619" lon="6.859">
        <ele>338.9</ele>
        <time>2021-08-10T09:42:43Z</time>
      </trkpt>
      <trkpt lat="47.57608" lon="6.85902">
        <ele>338.9</ele>
        <time>2021-08-10T09:42:45Z</time>
      </trkpt>
      <trkpt lat="47.57603" lon="6.85903">
        <ele>338.9</ele>
        <time>2021-08-10T09:42:46Z</time>
      </trkpt>
      <trkpt lat="47.57599" lon="6.85903">
        <ele>338.9</ele>
        <time>2021-08-10T09:42:47Z</time>
      </trkpt>
      <trkpt lat="47.57592" lon="6.85902">
        <ele>338.9</ele>
        <time>2021-08-10T09:42:49Z</time>
      </trkpt>
      <trkpt lat="47.57586" lon="6.85902">
        <ele>338.9</ele>
        <time>2021-08-10T09:42:51Z</time>
      </trkpt>
      <trkpt lat="47.57577" lon="6.85902">
        <ele>338.9</ele>
        <time>2021-08-10T09:42:53Z</time>
      </trkpt>
      <trkpt lat="47.57573" lon="6.85901">
        <ele>338.9</ele>
        <time>2021-08-10T09:42:54Z</time>
      </trkpt>
      <trkpt lat="47.57569" lon="6.859">
        <ele>338.9</ele>
        <time>2021-08-10T09:42:56Z</time>
      </trkpt>
      <trkpt lat="47.57565" lon="6.85895">
        <ele>338.9</ele>
        <time>2021-08-10T09:42:57Z</time>
      </trkpt>
      <trkpt lat="47.57557" lon="6.859">
        <ele>338.9</ele>
        <time>2021-08-10T09:42:58Z</time>
      </trkpt>
      <trkpt lat="47.57553" lon="6.859">
        <ele>338.8</ele>
        <time>2021-08-10T09:42:59Z</time>
      </trkpt>
      <trkpt lat="47.5755" lon="6.85902">
        <ele>338.8</ele>
        <time>2021-08-10T09:43:00Z</time>
      </trkpt>
      <trkpt lat="47.57549" lon="6.85903">
        <ele>338.8</ele>
        <time>2021-08-10T09:43:01Z</time>
      </trkpt>
      <trkpt lat="47.57545" lon="6.85905">
        <ele>338.8</ele>
        <time>2021-08-10T09:43:02Z</time>
      </trkpt>
      <trkpt lat="47.57541" lon="6.85907">
        <ele>338.8</ele>
        <time>2021-08-10T09:43:03Z</time>
      </trkpt>
      <trkpt lat="47.57537" lon="6.8591">
        <ele>338.9</ele>
        <time>2021-08-10T09:43:05Z</time>
      </trkpt>
      <trkpt lat="47.57533" lon="6.85913">
        <ele>338.9</ele>
        <time>2021-08-10T09:43:06Z</time>
      </trkpt>
      <trkpt lat="47.5753" lon="6.85915">
        <ele>338.9</ele>
        <time>2021-08-10T09:43:07Z</time>
      </trkpt>
      <trkpt lat="47.57525" lon="6.85915">
        <ele>338.9</ele>
        <time>2021-08-10T09:43:08Z</time>
      </trkpt>
      <trkpt lat="47.57517" lon="6.85914">
        <ele>338.9</ele>
        <time>2021-08-10T09:43:10Z</time>
      </trkpt>
      <trkpt lat="47.57508" lon="6.8591">
        <ele>338.9</ele>
        <time>2021-08-10T09:43:12Z</time>
      </trkpt>
      <trkpt lat="47.57503" lon="6.85908">
        <ele>338.9</ele>
        <time>2021-08-10T09:43:13Z</time>
      </trkpt>
      <trkpt lat="47.57496" lon="6.85905">
        <ele>338.9</ele>
        <time>2021-08-10T09:43:14Z</time>
      </trkpt>
      <trkpt lat="47.57491" lon="6.85904">
        <ele>338.8</ele>
        <time>2021-08-10T09:43:15Z</time>
      </trkpt>
      <trkpt lat="47.57485" lon="6.85904">
        <ele>338.8</ele>
        <time>2021-08-10T09:43:16Z</time>
      </trkpt>
      <trkpt lat="47.57478" lon="6.85902">
        <ele>338.8</ele>
        <time>2021-08-10T09:43:18Z</time>
      </trkpt>
      <trkpt lat="47.57472" lon="6.85901">
        <ele>338.8</ele>
        <time>2021-08-10T09:43:19Z</time>
      </trkpt>
      <trkpt lat="47.57464" lon="6.85901">
        <ele>338.8</ele>
        <time>2021-08-10T09:43:21Z</time>
      </trkpt>
      <trkpt lat="47.57459" lon="6.859">
        <ele>338.8</ele>
        <time>2021-08-10T09:43:22Z</time>
      </trkpt>
      <trkpt lat="47.57454" lon="6.85899">
        <ele>338.8</ele>
        <time>2021-08-10T09:43:23Z</time>
      </trkpt>
      <trkpt lat="47.57449" lon="6.859">
        <ele>338.8</ele>
        <time>2021-08-10T09:43:24Z</time>
      </trkpt>
      <trkpt lat="47.57441" lon="6.85901">
        <ele>338.8</ele>
        <time>2021-08-10T09:43:25Z</time>
      </trkpt>
      <trkpt lat="47.5743" lon="6.85902">
        <ele>338.8</ele>
        <time>2021-08-10T09:43:27Z</time>
      </trkpt>
      <trkpt lat="47.57425" lon="6.85902">
        <ele>338.8</ele>
        <time>2021-08-10T09:43:28Z</time>
      </trkpt>
      <trkpt lat="47.5742" lon="6.85901">
        <ele>338.8</ele>
        <time>2021-08-10T09:43:29Z</time>
      </trkpt>
      <trkpt lat="47.57414" lon="6.859">
        <ele>338.8</ele>
        <time>2021-08-10T09:43:30Z</time>
      </trkpt>
      <trkpt lat="47.57409" lon="6.85899">
        <ele>338.8</ele>
        <time>2021-08-10T09:43:31Z</time>
      </trkpt>
      <trkpt lat="47.574" lon="6.85898">
        <ele>338.8</ele>
        <time>2021-08-10T09:43:33Z</time>
      </trkpt>
      <trkpt lat="47.57391" lon="6.85899">
        <ele>338.7</ele>
        <time>2021-08-10T09:43:35Z</time>
      </trkpt>
      <trkpt lat="47.57379" lon="6.85901">
        <ele>338.4</ele>
        <time>2021-08-10T09:43:37Z</time>
      </trkpt>
      <trkpt lat="47.57368" lon="6.85902">
        <ele>337.9</ele>
        <time>2021-08-10T09:43:39Z</time>
      </trkpt>
      <trkpt lat="47.57363" lon="6.85901">
        <ele>337.6</ele>
        <time>2021-08-10T09:43:40Z</time>
      </trkpt>
      <trkpt lat="47.57358" lon="6.859">
        <ele>337.3</ele>
        <time>2021-08-10T09:43:41Z</time>
      </trkpt>
      <trkpt lat="47.57347" lon="6.859">
        <ele>336.9</ele>
        <time>2021-08-10T09:43:43Z</time>
      </trkpt>
      <trkpt lat="47.57341" lon="6.85901">
        <ele>336.7</ele>
        <time>2021-08-10T09:43:44Z</time>
      </trkpt>
      <trkpt lat="47.57336" lon="6.85901">
        <ele>336.6</ele>
        <time>2021-08-10T09:43:45Z</time>
      </trkpt>
      <trkpt lat="47.57324" lon="6.85901">
        <ele>336.4</ele>
        <time>2021-08-10T09:43:47Z</time>
      </trkpt>
      <trkpt lat="47.57312" lon="6.859">
        <ele>336.3</ele>
        <time>2021-08-10T09:43:49Z</time>
      </trkpt>
      <trkpt lat="47.57301" lon="6.859">
        <ele>336.1</ele>
        <time>2021-08-10T09:43:51Z</time>
      </trkpt>
      <trkpt lat="47.57295" lon="6.859">
        <ele>336.1</ele>
        <time>2021-08-10T09:43:52Z</time>
      </trkpt>
      <trkpt lat="47.5729" lon="6.85899">
        <ele>336.1</ele>
        <time>2021-08-10T09:43:53Z</time>
      </trkpt>
      <trkpt lat="47.5728" lon="6.85898">
        <ele>336</ele>
        <time>2021-08-10T09:43:55Z</time>
      </trkpt>
      <trkpt lat="47.57272" lon="6.85899">
        <ele>336</ele>
        <time>2021-08-10T09:43:57Z</time>
      </trkpt>
      <trkpt lat="47.57267" lon="6.859">
        <ele>336</ele>
        <time>2021-08-10T09:43:58Z</time>
      </trkpt>
      <trkpt lat="47.57255" lon="6.859">
        <ele>335.9</ele>
        <time>2021-08-10T09:44:00Z</time>
      </trkpt>
      <trkpt lat="47.57248" lon="6.85901">
        <ele>335.9</ele>
        <time>2021-08-10T09:44:01Z</time>
      </trkpt>
      <trkpt lat="47.57237" lon="6.85903">
        <ele>335.9</ele>
        <time>2021-08-10T09:44:03Z</time>
      </trkpt>
      <trkpt lat="47.57231" lon="6.85904">
        <ele>335.9</ele>
        <time>2021-08-10T09:44:04Z</time>
      </trkpt>
      <trkpt lat="47.57225" lon="6.85906">
        <ele>335.9</ele>
        <time>2021-08-10T09:44:05Z</time>
      </trkpt>
      <trkpt lat="47.57219" lon="6.85908">
        <ele>335.9</ele>
        <time>2021-08-10T09:44:06Z</time>
      </trkpt>
      <trkpt lat="47.57213" lon="6.8591">
        <ele>335.9</ele>
        <time>2021-08-10T09:44:07Z</time>
      </trkpt>
      <trkpt lat="47.57198" lon="6.85919">
        <ele>335.9</ele>
        <time>2021-08-10T09:44:09Z</time>
      </trkpt>
      <trkpt lat="47.57191" lon="6.85923">
        <ele>335.9</ele>
        <time>2021-08-10T09:44:10Z</time>
      </trkpt>
      <trkpt lat="47.57184" lon="6.85926">
        <ele>335.9</ele>
        <time>2021-08-10T09:44:11Z</time>
      </trkpt>
      <trkpt lat="47.57178" lon="6.85928">
        <ele>335.9</ele>
        <time>2021-08-10T09:44:12Z</time>
      </trkpt>
      <trkpt lat="47.57172" lon="6.85929">
        <ele>335.9</ele>
        <time>2021-08-10T09:44:13Z</time>
      </trkpt>
      <trkpt lat="47.57161" lon="6.85929">
        <ele>335.9</ele>
        <time>2021-08-10T09:44:15Z</time>
      </trkpt>
      <trkpt lat="47.57156" lon="6.85928">
        <ele>335.9</ele>
        <time>2021-08-10T09:44:16Z</time>
      </trkpt>
      <trkpt lat="47.57151" lon="6.85927">
        <ele>335.9</ele>
        <time>2021-08-10T09:44:17Z</time>
      </trkpt>
      <trkpt lat="47.57148" lon="6.85925">
        <ele>335.9</ele>
        <time>2021-08-10T09:44:18Z</time>
      </trkpt>
      <trkpt lat="47.57143" lon="6.85923">
        <ele>335.9</ele>
        <time>2021-08-10T09:44:20Z</time>
      </trkpt>
      <trkpt lat="47.57139" lon="6.85922">
        <ele>335.9</ele>
        <time>2021-08-10T09:44:21Z</time>
      </trkpt>
      <trkpt lat="47.57129" lon="6.8592">
        <ele>335.9</ele>
        <time>2021-08-10T09:44:23Z</time>
      </trkpt>
      <trkpt lat="47.57121" lon="6.85919">
        <ele>335.9</ele>
        <time>2021-08-10T09:44:25Z</time>
      </trkpt>
      <trkpt lat="47.57112" lon="6.85921">
        <ele>335.9</ele>
        <time>2021-08-10T09:44:27Z</time>
      </trkpt>
      <trkpt lat="47.57108" lon="6.85923">
        <ele>335.9</ele>
        <time>2021-08-10T09:44:28Z</time>
      </trkpt>
      <trkpt lat="47.57107" lon="6.85924">
        <ele>335.9</ele>
        <time>2021-08-10T09:44:29Z</time>
      </trkpt>
      <trkpt lat="47.57102" lon="6.85924">
        <ele>335.9</ele>
        <time>2021-08-10T09:44:30Z</time>
      </trkpt>
      <trkpt lat="47.57099" lon="6.85924">
        <ele>335.9</ele>
        <time>2021-08-10T09:44:31Z</time>
      </trkpt>
      <trkpt lat="47.57096" lon="6.85923">
        <ele>335.9</ele>
        <time>2021-08-10T09:44:33Z</time>
      </trkpt>
      <trkpt lat="47.57093" lon="6.85922">
        <ele>335.9</ele>
        <time>2021-08-10T09:44:34Z</time>
      </trkpt>
      <trkpt lat="47.57088" lon="6.85921">
        <ele>335.9</ele>
        <time>2021-08-10T09:44:35Z</time>
      </trkpt>
      <trkpt lat="47.57078" lon="6.8592">
        <ele>335.9</ele>
        <time>2021-08-10T09:44:37Z</time>
      </trkpt>
      <trkpt lat="47.57072" lon="6.85922">
        <ele>336</ele>
        <time>2021-08-10T09:44:38Z</time>
      </trkpt>
      <trkpt lat="47.57067" lon="6.85924">
        <ele>336</ele>
        <time>2021-08-10T09:44:39Z</time>
      </trkpt>
      <trkpt lat="47.57062" lon="6.85926">
        <ele>336</ele>
        <time>2021-08-10T09:44:40Z</time>
      </trkpt>
      <trkpt lat="47.57055" lon="6.85927">
        <ele>336</ele>
        <time>2021-08-10T09:44:42Z</time>
      </trkpt>
      <trkpt lat="47.5705" lon="6.85928">
        <ele>336</ele>
        <time>2021-08-10T09:44:43Z</time>
      </trkpt>
      <trkpt lat="47.57044" lon="6.85929">
        <ele>336</ele>
        <time>2021-08-10T09:44:44Z</time>
      </trkpt>
      <trkpt lat="47.57035" lon="6.8593">
        <ele>336</ele>
        <time>2021-08-10T09:44:46Z</time>
      </trkpt>
      <trkpt lat="47.57032" lon="6.85924">
        <ele>336</ele>
        <time>2021-08-10T09:44:48Z</time>
      </trkpt>
      <trkpt lat="47.57025" lon="6.85925">
        <ele>336</ele>
        <time>2021-08-10T09:44:49Z</time>
      </trkpt>
      <trkpt lat="47.5702" lon="6.8593">
        <ele>336</ele>
        <time>2021-08-10T09:44:50Z</time>
      </trkpt>
      <trkpt lat="47.57014" lon="6.85932">
        <ele>336</ele>
        <time>2021-08-10T09:44:51Z</time>
      </trkpt>
      <trkpt lat="47.57008" lon="6.85935">
        <ele>336</ele>
        <time>2021-08-10T09:44:53Z</time>
      </trkpt>
      <trkpt lat="47.57002" lon="6.85938">
        <ele>336</ele>
        <time>2021-08-10T09:44:54Z</time>
      </trkpt>
      <trkpt lat="47.56997" lon="6.8594">
        <ele>336</ele>
        <time>2021-08-10T09:44:55Z</time>
      </trkpt>
      <trkpt lat="47.5699" lon="6.85942">
        <ele>336</ele>
        <time>2021-08-10T09:44:57Z</time>
      </trkpt>
      <trkpt lat="47.56982" lon="6.85941">
        <ele>336</ele>
        <time>2021-08-10T09:44:58Z</time>
      </trkpt>
      <trkpt lat="47.56972" lon="6.85944">
        <ele>336</ele>
        <time>2021-08-10T09:45:00Z</time>
      </trkpt>
      <trkpt lat="47.56967" lon="6.85946">
        <ele>336</ele>
        <time>2021-08-10T09:45:01Z</time>
      </trkpt>
      <trkpt lat="47.56957" lon="6.85949">
        <ele>336</ele>
        <time>2021-08-10T09:45:03Z</time>
      </trkpt>
      <trkpt lat="47.56949" lon="6.85951">
        <ele>336</ele>
        <time>2021-08-10T09:45:05Z</time>
      </trkpt>
      <trkpt lat="47.56942" lon="6.85952">
        <ele>336</ele>
        <time>2021-08-10T09:45:07Z</time>
      </trkpt>
      <trkpt lat="47.56937" lon="6.85952">
        <ele>336</ele>
        <time>2021-08-10T09:45:08Z</time>
      </trkpt>
      <trkpt lat="47.56929" lon="6.85956">
        <ele>336.1</ele>
        <time>2021-08-10T09:45:10Z</time>
      </trkpt>
      <trkpt lat="47.56925" lon="6.8596">
        <ele>336.1</ele>
        <time>2021-08-10T09:45:11Z</time>
      </trkpt>
      <trkpt lat="47.56916" lon="6.85963">
        <ele>336.1</ele>
        <time>2021-08-10T09:45:13Z</time>
      </trkpt>
      <trkpt lat="47.56913" lon="6.8596">
        <ele>336.1</ele>
        <time>2021-08-10T09:45:15Z</time>
      </trkpt>
      <trkpt lat="47.56908" lon="6.85967">
        <ele>336.1</ele>
        <time>2021-08-10T09:45:16Z</time>
      </trkpt>
      <trkpt lat="47.56904" lon="6.85969">
        <ele>336.1</ele>
        <time>2021-08-10T09:45:17Z</time>
      </trkpt>
      <trkpt lat="47.56901" lon="6.85978">
        <ele>336.1</ele>
        <time>2021-08-10T09:45:19Z</time>
      </trkpt>
      <trkpt lat="47.56895" lon="6.8598">
        <ele>336</ele>
        <time>2021-08-10T09:45:20Z</time>
      </trkpt>
      <trkpt lat="47.56891" lon="6.85982">
        <ele>336</ele>
        <time>2021-08-10T09:45:21Z</time>
      </trkpt>
      <trkpt lat="47.56887" lon="6.85984">
        <ele>336</ele>
        <time>2021-08-10T09:45:23Z</time>
      </trkpt>
      <trkpt lat="47.56882" lon="6.85986">
        <ele>336</ele>
        <time>2021-08-10T09:45:24Z</time>
      </trkpt>
      <trkpt lat="47.56878" lon="6.85988">
        <ele>336</ele>
        <time>2021-08-10T09:45:25Z</time>
      </trkpt>
      <trkpt lat="47.5687" lon="6.85993">
        <ele>336</ele>
        <time>2021-08-10T09:45:27Z</time>
      </trkpt>
      <trkpt lat="47.56867" lon="6.85992">
        <ele>336</ele>
        <time>2021-08-10T09:45:29Z</time>
      </trkpt>
      <trkpt lat="47.56864" lon="6.85993">
        <ele>336</ele>
        <time>2021-08-10T09:45:30Z</time>
      </trkpt>
      <trkpt lat="47.5686" lon="6.85996">
        <ele>336</ele>
        <time>2021-08-10T09:45:31Z</time>
      </trkpt>
      <trkpt lat="47.56855" lon="6.86">
        <ele>336</ele>
        <time>2021-08-10T09:45:32Z</time>
      </trkpt>
      <trkpt lat="47.56851" lon="6.86001">
        <ele>336</ele>
        <time>2021-08-10T09:45:34Z</time>
      </trkpt>
      <trkpt lat="47.56847" lon="6.86002">
        <ele>336</ele>
        <time>2021-08-10T09:45:35Z</time>
      </trkpt>
      <trkpt lat="47.56843" lon="6.86003">
        <ele>336</ele>
        <time>2021-08-10T09:45:36Z</time>
      </trkpt>
      <trkpt lat="47.56838" lon="6.86005">
        <ele>336</ele>
        <time>2021-08-10T09:45:37Z</time>
      </trkpt>
      <trkpt lat="47.56834" lon="6.86007">
        <ele>335.9</ele>
        <time>2021-08-10T09:45:38Z</time>
      </trkpt>
      <trkpt lat="47.5683" lon="6.8601">
        <ele>335.9</ele>
        <time>2021-08-10T09:45:39Z</time>
      </trkpt>
      <trkpt lat="47.56821" lon="6.8601">
        <ele>335.9</ele>
        <time>2021-08-10T09:45:41Z</time>
      </trkpt>
      <trkpt lat="47.5681" lon="6.86014">
        <ele>335.9</ele>
        <time>2021-08-10T09:45:43Z</time>
      </trkpt>
      <trkpt lat="47.56804" lon="6.86016">
        <ele>335.9</ele>
        <time>2021-08-10T09:45:45Z</time>
      </trkpt>
      <trkpt lat="47.56799" lon="6.8602">
        <ele>336</ele>
        <time>2021-08-10T09:45:46Z</time>
      </trkpt>
      <trkpt lat="47.56796" lon="6.86023">
        <ele>336</ele>
        <time>2021-08-10T09:45:47Z</time>
      </trkpt>
      <trkpt lat="47.56791" lon="6.86026">
        <ele>336</ele>
        <time>2021-08-10T09:45:49Z</time>
      </trkpt>
      <trkpt lat="47.56787" lon="6.86028">
        <ele>336</ele>
        <time>2021-08-10T09:45:50Z</time>
      </trkpt>
      <trkpt lat="47.56783" lon="6.8603">
        <ele>336.1</ele>
        <time>2021-08-10T09:45:51Z</time>
      </trkpt>
      <trkpt lat="47.56778" lon="6.86031">
        <ele>336.1</ele>
        <time>2021-08-10T09:45:52Z</time>
      </trkpt>
      <trkpt lat="47.56773" lon="6.86033">
        <ele>336.1</ele>
        <time>2021-08-10T09:45:53Z</time>
      </trkpt>
      <trkpt lat="47.56768" lon="6.86035">
        <ele>336.1</ele>
        <time>2021-08-10T09:45:55Z</time>
      </trkpt>
      <trkpt lat="47.56764" lon="6.86039">
        <ele>336.1</ele>
        <time>2021-08-10T09:45:56Z</time>
      </trkpt>
      <trkpt lat="47.56755" lon="6.86045">
        <ele>336.1</ele>
        <time>2021-08-10T09:45:57Z</time>
      </trkpt>
      <trkpt lat="47.5675" lon="6.86049">
        <ele>336.2</ele>
        <time>2021-08-10T09:45:58Z</time>
      </trkpt>
      <trkpt lat="47.56741" lon="6.86054">
        <ele>336.4</ele>
        <time>2021-08-10T09:46:00Z</time>
      </trkpt>
      <trkpt lat="47.56737" lon="6.86056">
        <ele>336.6</ele>
        <time>2021-08-10T09:46:01Z</time>
      </trkpt>
      <trkpt lat="47.56732" lon="6.86058">
        <ele>336.7</ele>
        <time>2021-08-10T09:46:02Z</time>
      </trkpt>
      <trkpt lat="47.56729" lon="6.86058">
        <ele>336.9</ele>
        <time>2021-08-10T09:46:03Z</time>
      </trkpt>
      <trkpt lat="47.56725" lon="6.86059">
        <ele>337.1</ele>
        <time>2021-08-10T09:46:05Z</time>
      </trkpt>
      <trkpt lat="47.5672" lon="6.86061">
        <ele>337.3</ele>
        <time>2021-08-10T09:46:06Z</time>
      </trkpt>
      <trkpt lat="47.56714" lon="6.86066">
        <ele>337.6</ele>
        <time>2021-08-10T09:46:08Z</time>
      </trkpt>
      <trkpt lat="47.56709" lon="6.86068">
        <ele>337.8</ele>
        <time>2021-08-10T09:46:10Z</time>
      </trkpt>
      <trkpt lat="47.56707" lon="6.86069">
        <ele>337.7</ele>
        <time>2021-08-10T09:46:11Z</time>
      </trkpt>
      <trkpt lat="47.56702" lon="6.86068">
        <ele>337.5</ele>
        <time>2021-08-10T09:46:13Z</time>
      </trkpt>
      <trkpt lat="47.56698" lon="6.86069">
        <ele>337.3</ele>
        <time>2021-08-10T09:46:14Z</time>
      </trkpt>
      <trkpt lat="47.56692" lon="6.8607">
        <ele>337</ele>
        <time>2021-08-10T09:46:16Z</time>
      </trkpt>
      <trkpt lat="47.56687" lon="6.86071">
        <ele>336.8</ele>
        <time>2021-08-10T09:46:17Z</time>
      </trkpt>
      <trkpt lat="47.56676" lon="6.86078">
        <ele>336.1</ele>
        <time>2021-08-10T09:46:18Z</time>
      </trkpt>
      <trkpt lat="47.5667" lon="6.86081">
        <ele>335.7</ele>
        <time>2021-08-10T09:46:19Z</time>
      </trkpt>
      <trkpt lat="47.56654" lon="6.86085">
        <ele>335.1</ele>
        <time>2021-08-10T09:46:21Z</time>
      </trkpt>
      <trkpt lat="47.56646" lon="6.86088">
        <ele>334.9</ele>
        <time>2021-08-10T09:46:22Z</time>
      </trkpt>
      <trkpt lat="47.56639" lon="6.86091">
        <ele>334.7</ele>
        <time>2021-08-10T09:46:23Z</time>
      </trkpt>
      <trkpt lat="47.56633" lon="6.86095">
        <ele>334.7</ele>
        <time>2021-08-10T09:46:24Z</time>
      </trkpt>
      <trkpt lat="47.5662" lon="6.861">
        <ele>334.5</ele>
        <time>2021-08-10T09:46:26Z</time>
      </trkpt>
      <trkpt lat="47.56614" lon="6.86103">
        <ele>334.5</ele>
        <time>2021-08-10T09:46:27Z</time>
      </trkpt>
      <trkpt lat="47.56602" lon="6.86108">
        <ele>334.5</ele>
        <time>2021-08-10T09:46:29Z</time>
      </trkpt>
      <trkpt lat="47.56592" lon="6.86111">
        <ele>334.5</ele>
        <time>2021-08-10T09:46:31Z</time>
      </trkpt>
      <trkpt lat="47.56584" lon="6.86107">
        <ele>334.4</ele>
        <time>2021-08-10T09:46:33Z</time>
      </trkpt>
      <trkpt lat="47.56575" lon="6.86098">
        <ele>334.3</ele>
        <time>2021-08-10T09:46:35Z</time>
      </trkpt>
      <trkpt lat="47.56567" lon="6.86088">
        <ele>334.1</ele>
        <time>2021-08-10T09:46:37Z</time>
      </trkpt>
      <trkpt lat="47.5656" lon="6.8608">
        <ele>333.9</ele>
        <time>2021-08-10T09:46:39Z</time>
      </trkpt>
      <trkpt lat="47.56551" lon="6.86077">
        <ele>333.9</ele>
        <time>2021-08-10T09:46:41Z</time>
      </trkpt>
      <trkpt lat="47.56546" lon="6.86077">
        <ele>333.8</ele>
        <time>2021-08-10T09:46:43Z</time>
      </trkpt>
      <trkpt lat="47.56544" lon="6.86078">
        <ele>333.8</ele>
        <time>2021-08-10T09:46:44Z</time>
      </trkpt>
      <trkpt lat="47.5654" lon="6.86082">
        <ele>333.8</ele>
        <time>2021-08-10T09:46:46Z</time>
      </trkpt>
      <trkpt lat="47.56537" lon="6.86085">
        <ele>333.8</ele>
        <time>2021-08-10T09:46:47Z</time>
      </trkpt>
      <trkpt lat="47.56536" lon="6.86089">
        <ele>333.8</ele>
        <time>2021-08-10T09:46:48Z</time>
      </trkpt>
      <trkpt lat="47.56534" lon="6.86091">
        <ele>333.8</ele>
        <time>2021-08-10T09:46:49Z</time>
      </trkpt>
      <trkpt lat="47.56529" lon="6.86097">
        <ele>333.8</ele>
        <time>2021-08-10T09:46:51Z</time>
      </trkpt>
      <trkpt lat="47.56524" lon="6.86107">
        <ele>333.8</ele>
        <time>2021-08-10T09:46:53Z</time>
      </trkpt>
      <trkpt lat="47.56517" lon="6.86115">
        <ele>333.9</ele>
        <time>2021-08-10T09:46:55Z</time>
      </trkpt>
      <trkpt lat="47.5651" lon="6.86122">
        <ele>333.9</ele>
        <time>2021-08-10T09:46:57Z</time>
      </trkpt>
      <trkpt lat="47.56506" lon="6.86125">
        <ele>333.9</ele>
        <time>2021-08-10T09:46:58Z</time>
      </trkpt>
      <trkpt lat="47.56498" lon="6.8613">
        <ele>334</ele>
        <time>2021-08-10T09:47:00Z</time>
      </trkpt>
      <trkpt lat="47.56494" lon="6.86131">
        <ele>334</ele>
        <time>2021-08-10T09:47:01Z</time>
      </trkpt>
      <trkpt lat="47.56488" lon="6.86139">
        <ele>334</ele>
        <time>2021-08-10T09:47:03Z</time>
      </trkpt>
      <trkpt lat="47.56485" lon="6.86144">
        <ele>334</ele>
        <time>2021-08-10T09:47:04Z</time>
      </trkpt>
      <trkpt lat="47.5648" lon="6.86155">
        <ele>334</ele>
        <time>2021-08-10T09:47:06Z</time>
      </trkpt>
      <trkpt lat="47.56477" lon="6.86161">
        <ele>334</ele>
        <time>2021-08-10T09:47:07Z</time>
      </trkpt>
      <trkpt lat="47.56474" lon="6.8617">
        <ele>334</ele>
        <time>2021-08-10T09:47:09Z</time>
      </trkpt>
      <trkpt lat="47.56472" lon="6.86176">
        <ele>334</ele>
        <time>2021-08-10T09:47:10Z</time>
      </trkpt>
      <trkpt lat="47.5647" lon="6.8618">
        <ele>334</ele>
        <time>2021-08-10T09:47:11Z</time>
      </trkpt>
      <trkpt lat="47.56468" lon="6.86185">
        <ele>334</ele>
        <time>2021-08-10T09:47:13Z</time>
      </trkpt>
      <trkpt lat="47.56464" lon="6.86185">
        <ele>334</ele>
        <time>2021-08-10T09:47:14Z</time>
      </trkpt>
      <trkpt lat="47.56461" lon="6.86186">
        <ele>333.9</ele>
        <time>2021-08-10T09:47:15Z</time>
      </trkpt>
      <trkpt lat="47.56455" lon="6.86188">
        <ele>333.9</ele>
        <time>2021-08-10T09:47:17Z</time>
      </trkpt>
      <trkpt lat="47.56451" lon="6.86188">
        <ele>333.9</ele>
        <time>2021-08-10T09:47:19Z</time>
      </trkpt>
      <trkpt lat="47.56448" lon="6.86187">
        <ele>333.9</ele>
        <time>2021-08-10T09:47:20Z</time>
      </trkpt>
      <trkpt lat="47.56445" lon="6.86185">
        <ele>333.8</ele>
        <time>2021-08-10T09:47:21Z</time>
      </trkpt>
      <trkpt lat="47.56443" lon="6.86185">
        <ele>333.8</ele>
        <time>2021-08-10T09:47:23Z</time>
      </trkpt>
      <trkpt lat="47.56441" lon="6.86185">
        <ele>333.8</ele>
        <time>2021-08-10T09:47:24Z</time>
      </trkpt>
      <trkpt lat="47.56439" lon="6.86185">
        <ele>333.8</ele>
        <time>2021-08-10T09:47:26Z</time>
      </trkpt>
      <trkpt lat="47.56437" lon="6.86185">
        <ele>333.8</ele>
        <time>2021-08-10T09:47:28Z</time>
      </trkpt>
      <trkpt lat="47.56435" lon="6.86185">
        <ele>333.8</ele>
        <time>2021-08-10T09:47:30Z</time>
      </trkpt>
      <trkpt lat="47.56433" lon="6.86185">
        <ele>333.8</ele>
        <time>2021-08-10T09:47:31Z</time>
      </trkpt>
      <trkpt lat="47.56431" lon="6.86185">
        <ele>333.9</ele>
        <time>2021-08-10T09:50:00Z</time>
      </trkpt>
      <trkpt lat="47.56428" lon="6.86185">
        <ele>333.9</ele>
        <time>2021-08-10T09:50:01Z</time>
      </trkpt>
      <trkpt lat="47.56421" lon="6.86189">
        <ele>333.9</ele>
        <time>2021-08-10T09:50:02Z</time>
      </trkpt>
      <trkpt lat="47.56414" lon="6.86194">
        <ele>333.9</ele>
        <time>2021-08-10T09:50:04Z</time>
      </trkpt>
      <trkpt lat="47.56408" lon="6.86199">
        <ele>333.9</ele>
        <time>2021-08-10T09:50:05Z</time>
      </trkpt>
      <trkpt lat="47.56401" lon="6.86205">
        <ele>333.9</ele>
        <time>2021-08-10T09:50:07Z</time>
      </trkpt>
      <trkpt lat="47.56394" lon="6.86208">
        <ele>333.9</ele>
        <time>2021-08-10T09:50:08Z</time>
      </trkpt>
      <trkpt lat="47.56387" lon="6.86212">
        <ele>333.9</ele>
        <time>2021-08-10T09:50:10Z</time>
      </trkpt>
      <trkpt lat="47.56383" lon="6.86214">
        <ele>333.8</ele>
        <time>2021-08-10T09:50:11Z</time>
      </trkpt>
      <trkpt lat="47.56377" lon="6.86218">
        <ele>333.8</ele>
        <time>2021-08-10T09:50:12Z</time>
      </trkpt>
      <trkpt lat="47.56371" lon="6.86221">
        <ele>333.8</ele>
        <time>2021-08-10T09:50:14Z</time>
      </trkpt>
      <trkpt lat="47.56366" lon="6.86223">
        <ele>333.8</ele>
        <time>2021-08-10T09:50:15Z</time>
      </trkpt>
      <trkpt lat="47.56357" lon="6.86227">
        <ele>333.8</ele>
        <time>2021-08-10T09:50:17Z</time>
      </trkpt>
      <trkpt lat="47.5635" lon="6.86231">
        <ele>333.8</ele>
        <time>2021-08-10T09:50:19Z</time>
      </trkpt>
      <trkpt lat="47.56346" lon="6.86232">
        <ele>333.8</ele>
        <time>2021-08-10T09:50:20Z</time>
      </trkpt>
      <trkpt lat="47.56339" lon="6.86233">
        <ele>333.7</ele>
        <time>2021-08-10T09:50:22Z</time>
      </trkpt>
      <trkpt lat="47.56335" lon="6.86235">
        <ele>333.7</ele>
        <time>2021-08-10T09:50:23Z</time>
      </trkpt>
      <trkpt lat="47.56328" lon="6.86238">
        <ele>333.7</ele>
        <time>2021-08-10T09:50:24Z</time>
      </trkpt>
      <trkpt lat="47.56322" lon="6.8624">
        <ele>333.7</ele>
        <time>2021-08-10T09:50:26Z</time>
      </trkpt>
      <trkpt lat="47.56317" lon="6.86242">
        <ele>333.7</ele>
        <time>2021-08-10T09:50:27Z</time>
      </trkpt>
      <trkpt lat="47.5631" lon="6.86244">
        <ele>333.7</ele>
        <time>2021-08-10T09:50:29Z</time>
      </trkpt>
      <trkpt lat="47.56305" lon="6.86246">
        <ele>333.7</ele>
        <time>2021-08-10T09:50:30Z</time>
      </trkpt>
      <trkpt lat="47.563" lon="6.86248">
        <ele>333.7</ele>
        <time>2021-08-10T09:50:31Z</time>
      </trkpt>
      <trkpt lat="47.56293" lon="6.86249">
        <ele>333.7</ele>
        <time>2021-08-10T09:50:33Z</time>
      </trkpt>
      <trkpt lat="47.56287" lon="6.86249">
        <ele>333.6</ele>
        <time>2021-08-10T09:50:34Z</time>
      </trkpt>
      <trkpt lat="47.56282" lon="6.8625">
        <ele>333.6</ele>
        <time>2021-08-10T09:50:35Z</time>
      </trkpt>
      <trkpt lat="47.56277" lon="6.86253">
        <ele>333.6</ele>
        <time>2021-08-10T09:50:36Z</time>
      </trkpt>
      <trkpt lat="47.56272" lon="6.86256">
        <ele>333.7</ele>
        <time>2021-08-10T09:50:38Z</time>
      </trkpt>
      <trkpt lat="47.56266" lon="6.86259">
        <ele>333.7</ele>
        <time>2021-08-10T09:50:39Z</time>
      </trkpt>
      <trkpt lat="47.56257" lon="6.86265">
        <ele>333.7</ele>
        <time>2021-08-10T09:50:41Z</time>
      </trkpt>
      <trkpt lat="47.56254" lon="6.86267">
        <ele>333.7</ele>
        <time>2021-08-10T09:50:42Z</time>
      </trkpt>
      <trkpt lat="47.56249" lon="6.86271">
        <ele>333.7</ele>
        <time>2021-08-10T09:50:44Z</time>
      </trkpt>
      <trkpt lat="47.56244" lon="6.86274">
        <ele>333.7</ele>
        <time>2021-08-10T09:50:45Z</time>
      </trkpt>
      <trkpt lat="47.56232" lon="6.86282">
        <ele>333.7</ele>
        <time>2021-08-10T09:50:47Z</time>
      </trkpt>
      <trkpt lat="47.56229" lon="6.86284">
        <ele>333.7</ele>
        <time>2021-08-10T09:50:48Z</time>
      </trkpt>
      <trkpt lat="47.56219" lon="6.8629">
        <ele>333.7</ele>
        <time>2021-08-10T09:50:50Z</time>
      </trkpt>
      <trkpt lat="47.56216" lon="6.86294">
        <ele>333.7</ele>
        <time>2021-08-10T09:50:51Z</time>
      </trkpt>
      <trkpt lat="47.56215" lon="6.86295">
        <ele>333.7</ele>
        <time>2021-08-10T09:50:52Z</time>
      </trkpt>
      <trkpt lat="47.56203" lon="6.863">
        <ele>333.7</ele>
        <time>2021-08-10T09:50:54Z</time>
      </trkpt>
      <trkpt lat="47.56197" lon="6.86301">
        <ele>333.6</ele>
        <time>2021-08-10T09:50:55Z</time>
      </trkpt>
      <trkpt lat="47.56187" lon="6.86304">
        <ele>333.6</ele>
        <time>2021-08-10T09:50:57Z</time>
      </trkpt>
      <trkpt lat="47.56183" lon="6.86306">
        <ele>333.6</ele>
        <time>2021-08-10T09:50:58Z</time>
      </trkpt>
      <trkpt lat="47.56179" lon="6.86308">
        <ele>333.6</ele>
        <time>2021-08-10T09:50:59Z</time>
      </trkpt>
      <trkpt lat="47.56169" lon="6.86312">
        <ele>333.6</ele>
        <time>2021-08-10T09:51:01Z</time>
      </trkpt>
      <trkpt lat="47.56164" lon="6.86318">
        <ele>333.6</ele>
        <time>2021-08-10T09:51:03Z</time>
      </trkpt>
      <trkpt lat="47.5616" lon="6.8632">
        <ele>333.6</ele>
        <time>2021-08-10T09:51:04Z</time>
      </trkpt>
      <trkpt lat="47.56157" lon="6.86322">
        <ele>333.6</ele>
        <time>2021-08-10T09:51:05Z</time>
      </trkpt>
      <trkpt lat="47.56153" lon="6.86323">
        <ele>333.6</ele>
        <time>2021-08-10T09:51:06Z</time>
      </trkpt>
      <trkpt lat="47.56148" lon="6.86325">
        <ele>333.6</ele>
        <time>2021-08-10T09:51:07Z</time>
      </trkpt>
      <trkpt lat="47.56143" lon="6.86326">
        <ele>333.6</ele>
        <time>2021-08-10T09:51:09Z</time>
      </trkpt>
      <trkpt lat="47.56138" lon="6.86327">
        <ele>333.6</ele>
        <time>2021-08-10T09:51:10Z</time>
      </trkpt>
      <trkpt lat="47.56134" lon="6.86326">
        <ele>333.6</ele>
        <time>2021-08-10T09:51:11Z</time>
      </trkpt>
      <trkpt lat="47.5613" lon="6.86327">
        <ele>333.6</ele>
        <time>2021-08-10T09:51:13Z</time>
      </trkpt>
      <trkpt lat="47.56125" lon="6.86328">
        <ele>333.6</ele>
        <time>2021-08-10T09:51:14Z</time>
      </trkpt>
      <trkpt lat="47.5612" lon="6.8633">
        <ele>333.6</ele>
        <time>2021-08-10T09:51:15Z</time>
      </trkpt>
      <trkpt lat="47.56115" lon="6.86332">
        <ele>333.7</ele>
        <time>2021-08-10T09:51:16Z</time>
      </trkpt>
      <trkpt lat="47.5611" lon="6.86334">
        <ele>333.7</ele>
        <time>2021-08-10T09:51:17Z</time>
      </trkpt>
      <trkpt lat="47.56105" lon="6.86337">
        <ele>333.7</ele>
        <time>2021-08-10T09:51:18Z</time>
      </trkpt>
      <trkpt lat="47.56099" lon="6.86339">
        <ele>333.7</ele>
        <time>2021-08-10T09:51:20Z</time>
      </trkpt>
      <trkpt lat="47.56093" lon="6.86342">
        <ele>333.7</ele>
        <time>2021-08-10T09:51:21Z</time>
      </trkpt>
      <trkpt lat="47.56084" lon="6.86347">
        <ele>333.7</ele>
        <time>2021-08-10T09:51:23Z</time>
      </trkpt>
      <trkpt lat="47.5608" lon="6.86349">
        <ele>333.6</ele>
        <time>2021-08-10T09:51:24Z</time>
      </trkpt>
      <trkpt lat="47.56075" lon="6.86351">
        <ele>333.6</ele>
        <time>2021-08-10T09:51:25Z</time>
      </trkpt>
      <trkpt lat="47.56066" lon="6.86355">
        <ele>333.5</ele>
        <time>2021-08-10T09:51:27Z</time>
      </trkpt>
      <trkpt lat="47.56061" lon="6.86357">
        <ele>333.4</ele>
        <time>2021-08-10T09:51:28Z</time>
      </trkpt>
      <trkpt lat="47.56055" lon="6.86357">
        <ele>333.4</ele>
        <time>2021-08-10T09:51:30Z</time>
      </trkpt>
      <trkpt lat="47.56049" lon="6.86358">
        <ele>333.4</ele>
        <time>2021-08-10T09:51:31Z</time>
      </trkpt>
      <trkpt lat="47.56045" lon="6.86363">
        <ele>333.4</ele>
        <time>2021-08-10T09:51:32Z</time>
      </trkpt>
      <trkpt lat="47.56041" lon="6.86367">
        <ele>333.4</ele>
        <time>2021-08-10T09:51:34Z</time>
      </trkpt>
      <trkpt lat="47.56036" lon="6.8637">
        <ele>333.4</ele>
        <time>2021-08-10T09:51:35Z</time>
      </trkpt>
      <trkpt lat="47.56031" lon="6.86377">
        <ele>333.4</ele>
        <time>2021-08-10T09:51:36Z</time>
      </trkpt>
      <trkpt lat="47.56027" lon="6.86381">
        <ele>333.4</ele>
        <time>2021-08-10T09:51:37Z</time>
      </trkpt>
      <trkpt lat="47.56017" lon="6.86388">
        <ele>333.4</ele>
        <time>2021-08-10T09:51:39Z</time>
      </trkpt>
      <trkpt lat="47.56011" lon="6.86391">
        <ele>333.4</ele>
        <time>2021-08-10T09:51:40Z</time>
      </trkpt>
      <trkpt lat="47.56006" lon="6.86394">
        <ele>333.4</ele>
        <time>2021-08-10T09:51:41Z</time>
      </trkpt>
      <trkpt lat="47.55997" lon="6.864">
        <ele>333.4</ele>
        <time>2021-08-10T09:51:43Z</time>
      </trkpt>
      <trkpt lat="47.55988" lon="6.86406">
        <ele>333.3</ele>
        <time>2021-08-10T09:51:45Z</time>
      </trkpt>
      <trkpt lat="47.55985" lon="6.86409">
        <ele>333.3</ele>
        <time>2021-08-10T09:51:46Z</time>
      </trkpt>
      <trkpt lat="47.55981" lon="6.86413">
        <ele>333.3</ele>
        <time>2021-08-10T09:51:48Z</time>
      </trkpt>
      <trkpt lat="47.55976" lon="6.86415">
        <ele>333.3</ele>
        <time>2021-08-10T09:51:49Z</time>
      </trkpt>
      <trkpt lat="47.55971" lon="6.86417">
        <ele>333.3</ele>
        <time>2021-08-10T09:51:50Z</time>
      </trkpt>
      <trkpt lat="47.55968" lon="6.86419">
        <ele>333.3</ele>
        <time>2021-08-10T09:51:51Z</time>
      </trkpt>
      <trkpt lat="47.55963" lon="6.86422">
        <ele>333.3</ele>
        <time>2021-08-10T09:51:52Z</time>
      </trkpt>
      <trkpt lat="47.55959" lon="6.86425">
        <ele>333.3</ele>
        <time>2021-08-10T09:51:53Z</time>
      </trkpt>
      <trkpt lat="47.55954" lon="6.86429">
        <ele>333.4</ele>
        <time>2021-08-10T09:51:55Z</time>
      </trkpt>
      <trkpt lat="47.55949" lon="6.86432">
        <ele>333.4</ele>
        <time>2021-08-10T09:51:56Z</time>
      </trkpt>
      <trkpt lat="47.55941" lon="6.86437">
        <ele>333.4</ele>
        <time>2021-08-10T09:51:58Z</time>
      </trkpt>
      <trkpt lat="47.55937" lon="6.86439">
        <ele>333.4</ele>
        <time>2021-08-10T09:51:59Z</time>
      </trkpt>
      <trkpt lat="47.55933" lon="6.8644">
        <ele>333.4</ele>
        <time>2021-08-10T09:52:00Z</time>
      </trkpt>
      <trkpt lat="47.55928" lon="6.86441">
        <ele>333.4</ele>
        <time>2021-08-10T09:52:01Z</time>
      </trkpt>
      <trkpt lat="47.55921" lon="6.86442">
        <ele>333.4</ele>
        <time>2021-08-10T09:52:03Z</time>
      </trkpt>
      <trkpt lat="47.55916" lon="6.86444">
        <ele>333.4</ele>
        <time>2021-08-10T09:52:04Z</time>
      </trkpt>
      <trkpt lat="47.55909" lon="6.86446">
        <ele>333.4</ele>
        <time>2021-08-10T09:52:06Z</time>
      </trkpt>
      <trkpt lat="47.55904" lon="6.86449">
        <ele>333.4</ele>
        <time>2021-08-10T09:52:08Z</time>
      </trkpt>
      <trkpt lat="47.55898" lon="6.86452">
        <ele>333.4</ele>
        <time>2021-08-10T09:52:09Z</time>
      </trkpt>
      <trkpt lat="47.55891" lon="6.86455">
        <ele>333.4</ele>
        <time>2021-08-10T09:52:11Z</time>
      </trkpt>
      <trkpt lat="47.55881" lon="6.86458">
        <ele>333.4</ele>
        <time>2021-08-10T09:52:13Z</time>
      </trkpt>
      <trkpt lat="47.55877" lon="6.86459">
        <ele>333.4</ele>
        <time>2021-08-10T09:52:14Z</time>
      </trkpt>
      <trkpt lat="47.55872" lon="6.8646">
        <ele>333.4</ele>
        <time>2021-08-10T09:52:15Z</time>
      </trkpt>
      <trkpt lat="47.55865" lon="6.86462">
        <ele>333.4</ele>
        <time>2021-08-10T09:52:17Z</time>
      </trkpt>
      <trkpt lat="47.55861" lon="6.86464">
        <ele>333.4</ele>
        <time>2021-08-10T09:52:18Z</time>
      </trkpt>
      <trkpt lat="47.55855" lon="6.8647">
        <ele>333.4</ele>
        <time>2021-08-10T09:52:20Z</time>
      </trkpt>
      <trkpt lat="47.55849" lon="6.86472">
        <ele>333.4</ele>
        <time>2021-08-10T09:52:22Z</time>
      </trkpt>
      <trkpt lat="47.55845" lon="6.86474">
        <ele>333.3</ele>
        <time>2021-08-10T09:52:23Z</time>
      </trkpt>
      <trkpt lat="47.55842" lon="6.86476">
        <ele>333.3</ele>
        <time>2021-08-10T09:52:24Z</time>
      </trkpt>
      <trkpt lat="47.55834" lon="6.86477">
        <ele>333.3</ele>
        <time>2021-08-10T09:52:26Z</time>
      </trkpt>
      <trkpt lat="47.5583" lon="6.86478">
        <ele>333.3</ele>
        <time>2021-08-10T09:52:27Z</time>
      </trkpt>
      <trkpt lat="47.55827" lon="6.86479">
        <ele>333.2</ele>
        <time>2021-08-10T09:52:28Z</time>
      </trkpt>
      <trkpt lat="47.55824" lon="6.86479">
        <ele>333.2</ele>
        <time>2021-08-10T09:52:29Z</time>
      </trkpt>
      <trkpt lat="47.55819" lon="6.86479">
        <ele>333.2</ele>
        <time>2021-08-10T09:52:30Z</time>
      </trkpt>
      <trkpt lat="47.55813" lon="6.86478">
        <ele>333.2</ele>
        <time>2021-08-10T09:52:32Z</time>
      </trkpt>
      <trkpt lat="47.5581" lon="6.86477">
        <ele>333.2</ele>
        <time>2021-08-10T09:52:33Z</time>
      </trkpt>
      <trkpt lat="47.55804" lon="6.86477">
        <ele>333.2</ele>
        <time>2021-08-10T09:52:35Z</time>
      </trkpt>
      <trkpt lat="47.55801" lon="6.86476">
        <ele>333.2</ele>
        <time>2021-08-10T09:52:36Z</time>
      </trkpt>
      <trkpt lat="47.55796" lon="6.86473">
        <ele>333.2</ele>
        <time>2021-08-10T09:52:38Z</time>
      </trkpt>
      <trkpt lat="47.55792" lon="6.86471">
        <ele>333.2</ele>
        <time>2021-08-10T09:52:39Z</time>
      </trkpt>
      <trkpt lat="47.55784" lon="6.86469">
        <ele>333.2</ele>
        <time>2021-08-10T09:52:41Z</time>
      </trkpt>
      <trkpt lat="47.55778" lon="6.86468">
        <ele>333.2</ele>
        <time>2021-08-10T09:52:43Z</time>
      </trkpt>
      <trkpt lat="47.55772" lon="6.86468">
        <ele>333.2</ele>
        <time>2021-08-10T09:52:44Z</time>
      </trkpt>
      <trkpt lat="47.55765" lon="6.8647">
        <ele>333.2</ele>
        <time>2021-08-10T09:52:45Z</time>
      </trkpt>
      <trkpt lat="47.55761" lon="6.86469">
        <ele>333.2</ele>
        <time>2021-08-10T09:52:47Z</time>
      </trkpt>
      <trkpt lat="47.55756" lon="6.86466">
        <ele>333.2</ele>
        <time>2021-08-10T09:52:48Z</time>
      </trkpt>
      <trkpt lat="47.55746" lon="6.86462">
        <ele>333.1</ele>
        <time>2021-08-10T09:52:50Z</time>
      </trkpt>
      <trkpt lat="47.55739" lon="6.86461">
        <ele>333.1</ele>
        <time>2021-08-10T09:52:51Z</time>
      </trkpt>
      <trkpt lat="47.55733" lon="6.86462">
        <ele>333.1</ele>
        <time>2021-08-10T09:52:52Z</time>
      </trkpt>
      <trkpt lat="47.55721" lon="6.86464">
        <ele>333.1</ele>
        <time>2021-08-10T09:52:54Z</time>
      </trkpt>
      <trkpt lat="47.55714" lon="6.86465">
        <ele>333.1</ele>
        <time>2021-08-10T09:52:55Z</time>
      </trkpt>
      <trkpt lat="47.55702" lon="6.86468">
        <ele>333.1</ele>
        <time>2021-08-10T09:52:57Z</time>
      </trkpt>
      <trkpt lat="47.55691" lon="6.8647">
        <ele>333.1</ele>
        <time>2021-08-10T09:52:59Z</time>
      </trkpt>
      <trkpt lat="47.55679" lon="6.86472">
        <ele>333.1</ele>
        <time>2021-08-10T09:53:01Z</time>
      </trkpt>
      <trkpt lat="47.55666" lon="6.86476">
        <ele>333.2</ele>
        <time>2021-08-10T09:53:03Z</time>
      </trkpt>
      <trkpt lat="47.55656" lon="6.8648">
        <ele>333.2</ele>
        <time>2021-08-10T09:53:05Z</time>
      </trkpt>
      <trkpt lat="47.55645" lon="6.86485">
        <ele>333.2</ele>
        <time>2021-08-10T09:53:07Z</time>
      </trkpt>
      <trkpt lat="47.55633" lon="6.86489">
        <ele>333.1</ele>
        <time>2021-08-10T09:53:09Z</time>
      </trkpt>
      <trkpt lat="47.55627" lon="6.86493">
        <ele>333.1</ele>
        <time>2021-08-10T09:53:10Z</time>
      </trkpt>
      <trkpt lat="47.55614" lon="6.86501">
        <ele>333.1</ele>
        <time>2021-08-10T09:53:12Z</time>
      </trkpt>
      <trkpt lat="47.55607" lon="6.86504">
        <ele>333.1</ele>
        <time>2021-08-10T09:53:13Z</time>
      </trkpt>
      <trkpt lat="47.55595" lon="6.86509">
        <ele>333.2</ele>
        <time>2021-08-10T09:53:15Z</time>
      </trkpt>
      <trkpt lat="47.5559" lon="6.86511">
        <ele>333.2</ele>
        <time>2021-08-10T09:53:16Z</time>
      </trkpt>
      <trkpt lat="47.55583" lon="6.86512">
        <ele>333.2</ele>
        <time>2021-08-10T09:53:17Z</time>
      </trkpt>
      <trkpt lat="47.55571" lon="6.86515">
        <ele>333.2</ele>
        <time>2021-08-10T09:53:19Z</time>
      </trkpt>
      <trkpt lat="47.55558" lon="6.86518">
        <ele>333.2</ele>
        <time>2021-08-10T09:53:21Z</time>
      </trkpt>
      <trkpt lat="47.55547" lon="6.86521">
        <ele>333.3</ele>
        <time>2021-08-10T09:53:23Z</time>
      </trkpt>
      <trkpt lat="47.55536" lon="6.86523">
        <ele>333.3</ele>
        <time>2021-08-10T09:53:25Z</time>
      </trkpt>
      <trkpt lat="47.55526" lon="6.86525">
        <ele>333.3</ele>
        <time>2021-08-10T09:53:27Z</time>
      </trkpt>
      <trkpt lat="47.55521" lon="6.86525">
        <ele>333.3</ele>
        <time>2021-08-10T09:53:28Z</time>
      </trkpt>
      <trkpt lat="47.55509" lon="6.86528">
        <ele>333.3</ele>
        <time>2021-08-10T09:53:30Z</time>
      </trkpt>
      <trkpt lat="47.55504" lon="6.86531">
        <ele>333.3</ele>
        <time>2021-08-10T09:53:31Z</time>
      </trkpt>
      <trkpt lat="47.55492" lon="6.86534">
        <ele>333.3</ele>
        <time>2021-08-10T09:53:33Z</time>
      </trkpt>
      <trkpt lat="47.55481" lon="6.86538">
        <ele>333.2</ele>
        <time>2021-08-10T09:53:35Z</time>
      </trkpt>
      <trkpt lat="47.55475" lon="6.86539">
        <ele>333.2</ele>
        <time>2021-08-10T09:53:36Z</time>
      </trkpt>
      <trkpt lat="47.55471" lon="6.8654">
        <ele>333.2</ele>
        <time>2021-08-10T09:53:37Z</time>
      </trkpt>
      <trkpt lat="47.55462" lon="6.86541">
        <ele>333.2</ele>
        <time>2021-08-10T09:53:39Z</time>
      </trkpt>
      <trkpt lat="47.55457" lon="6.86542">
        <ele>333.2</ele>
        <time>2021-08-10T09:53:40Z</time>
      </trkpt>
      <trkpt lat="47.55448" lon="6.86544">
        <ele>333.2</ele>
        <time>2021-08-10T09:53:42Z</time>
      </trkpt>
      <trkpt lat="47.55438" lon="6.86548">
        <ele>333.2</ele>
        <time>2021-08-10T09:53:44Z</time>
      </trkpt>
      <trkpt lat="47.55433" lon="6.86549">
        <ele>333.2</ele>
        <time>2021-08-10T09:53:45Z</time>
      </trkpt>
      <trkpt lat="47.55423" lon="6.86551">
        <ele>333.2</ele>
        <time>2021-08-10T09:53:47Z</time>
      </trkpt>
      <trkpt lat="47.55418" lon="6.8655">
        <ele>333.2</ele>
        <time>2021-08-10T09:53:48Z</time>
      </trkpt>
      <trkpt lat="47.55414" lon="6.8655">
        <ele>333.2</ele>
        <time>2021-08-10T09:53:49Z</time>
      </trkpt>
      <trkpt lat="47.55403" lon="6.86553">
        <ele>333.3</ele>
        <time>2021-08-10T09:53:51Z</time>
      </trkpt>
      <trkpt lat="47.55398" lon="6.86555">
        <ele>333.3</ele>
        <time>2021-08-10T09:53:52Z</time>
      </trkpt>
      <trkpt lat="47.55393" lon="6.86557">
        <ele>333.3</ele>
        <time>2021-08-10T09:53:53Z</time>
      </trkpt>
      <trkpt lat="47.55384" lon="6.86559">
        <ele>333.3</ele>
        <time>2021-08-10T09:53:55Z</time>
      </trkpt>
      <trkpt lat="47.55376" lon="6.86561">
        <ele>333.3</ele>
        <time>2021-08-10T09:53:57Z</time>
      </trkpt>
      <trkpt lat="47.55366" lon="6.86565">
        <ele>333.2</ele>
        <time>2021-08-10T09:53:59Z</time>
      </trkpt>
      <trkpt lat="47.55357" lon="6.86567">
        <ele>333.2</ele>
        <time>2021-08-10T09:54:01Z</time>
      </trkpt>
      <trkpt lat="47.55353" lon="6.8657">
        <ele>333.2</ele>
        <time>2021-08-10T09:54:02Z</time>
      </trkpt>
      <trkpt lat="47.55349" lon="6.86572">
        <ele>333.2</ele>
        <time>2021-08-10T09:54:03Z</time>
      </trkpt>
      <trkpt lat="47.55345" lon="6.86573">
        <ele>333.1</ele>
        <time>2021-08-10T09:54:04Z</time>
      </trkpt>
      <trkpt lat="47.55342" lon="6.86574">
        <ele>333.1</ele>
        <time>2021-08-10T09:54:06Z</time>
      </trkpt>
      <trkpt lat="47.55337" lon="6.86575">
        <ele>333.1</ele>
        <time>2021-08-10T09:54:07Z</time>
      </trkpt>
      <trkpt lat="47.55331" lon="6.86577">
        <ele>333.1</ele>
        <time>2021-08-10T09:54:08Z</time>
      </trkpt>
      <trkpt lat="47.55322" lon="6.86579">
        <ele>333.1</ele>
        <time>2021-08-10T09:54:10Z</time>
      </trkpt>
      <trkpt lat="47.55319" lon="6.8658">
        <ele>333.2</ele>
        <time>2021-08-10T09:54:11Z</time>
      </trkpt>
      <trkpt lat="47.55311" lon="6.86582">
        <ele>333.2</ele>
        <time>2021-08-10T09:54:13Z</time>
      </trkpt>
      <trkpt lat="47.55305" lon="6.86583">
        <ele>333.2</ele>
        <time>2021-08-10T09:54:14Z</time>
      </trkpt>
      <trkpt lat="47.553" lon="6.86581">
        <ele>333.2</ele>
        <time>2021-08-10T09:54:15Z</time>
      </trkpt>
      <trkpt lat="47.55291" lon="6.86583">
        <ele>333.2</ele>
        <time>2021-08-10T09:54:17Z</time>
      </trkpt>
      <trkpt lat="47.5528" lon="6.86585">
        <ele>333.2</ele>
        <time>2021-08-10T09:54:19Z</time>
      </trkpt>
      <trkpt lat="47.5527" lon="6.86588">
        <ele>333.2</ele>
        <time>2021-08-10T09:54:21Z</time>
      </trkpt>
      <trkpt lat="47.55264" lon="6.86589">
        <ele>333.2</ele>
        <time>2021-08-10T09:54:22Z</time>
      </trkpt>
      <trkpt lat="47.55259" lon="6.8659">
        <ele>333.3</ele>
        <time>2021-08-10T09:54:23Z</time>
      </trkpt>
      <trkpt lat="47.5525" lon="6.86592">
        <ele>333.3</ele>
        <time>2021-08-10T09:54:25Z</time>
      </trkpt>
      <trkpt lat="47.5524" lon="6.86596">
        <ele>333.3</ele>
        <time>2021-08-10T09:54:27Z</time>
      </trkpt>
      <trkpt lat="47.5523" lon="6.866">
        <ele>333.3</ele>
        <time>2021-08-10T09:54:29Z</time>
      </trkpt>
      <trkpt lat="47.55225" lon="6.86595">
        <ele>333.3</ele>
        <time>2021-08-10T09:54:31Z</time>
      </trkpt>
      <trkpt lat="47.55218" lon="6.86598">
        <ele>333.3</ele>
        <time>2021-08-10T09:54:32Z</time>
      </trkpt>
      <trkpt lat="47.55214" lon="6.866">
        <ele>333.2</ele>
        <time>2021-08-10T09:54:33Z</time>
      </trkpt>
      <trkpt lat="47.55202" lon="6.86603">
        <ele>333.2</ele>
        <time>2021-08-10T09:54:35Z</time>
      </trkpt>
      <trkpt lat="47.55197" lon="6.86605">
        <ele>333.2</ele>
        <time>2021-08-10T09:54:36Z</time>
      </trkpt>
      <trkpt lat="47.55192" lon="6.86607">
        <ele>333.3</ele>
        <time>2021-08-10T09:54:37Z</time>
      </trkpt>
      <trkpt lat="47.55184" lon="6.8661">
        <ele>333.3</ele>
        <time>2021-08-10T09:54:39Z</time>
      </trkpt>
      <trkpt lat="47.55178" lon="6.86614">
        <ele>333.3</ele>
        <time>2021-08-10T09:54:41Z</time>
      </trkpt>
      <trkpt lat="47.55169" lon="6.86611">
        <ele>333.3</ele>
        <time>2021-08-10T09:54:42Z</time>
      </trkpt>
      <trkpt lat="47.5516" lon="6.86613">
        <ele>333.3</ele>
        <time>2021-08-10T09:54:44Z</time>
      </trkpt>
      <trkpt lat="47.55156" lon="6.86612">
        <ele>333.3</ele>
        <time>2021-08-10T09:54:45Z</time>
      </trkpt>
      <trkpt lat="47.55153" lon="6.86609">
        <ele>333.3</ele>
        <time>2021-08-10T09:54:46Z</time>
      </trkpt>
      <trkpt lat="47.55149" lon="6.8661">
        <ele>333.3</ele>
        <time>2021-08-10T09:54:48Z</time>
      </trkpt>
      <trkpt lat="47.55144" lon="6.86613">
        <ele>333.3</ele>
        <time>2021-08-10T09:54:49Z</time>
      </trkpt>
      <trkpt lat="47.55139" lon="6.86613">
        <ele>333.3</ele>
        <time>2021-08-10T09:54:50Z</time>
      </trkpt>
      <trkpt lat="47.55134" lon="6.86614">
        <ele>333.3</ele>
        <time>2021-08-10T09:54:51Z</time>
      </trkpt>
      <trkpt lat="47.55129" lon="6.86615">
        <ele>333.3</ele>
        <time>2021-08-10T09:54:52Z</time>
      </trkpt>
      <trkpt lat="47.55125" lon="6.86618">
        <ele>333.3</ele>
        <time>2021-08-10T09:54:53Z</time>
      </trkpt>
      <trkpt lat="47.55121" lon="6.8662">
        <ele>333.3</ele>
        <time>2021-08-10T09:54:54Z</time>
      </trkpt>
      <trkpt lat="47.55117" lon="6.86621">
        <ele>333.3</ele>
        <time>2021-08-10T09:54:55Z</time>
      </trkpt>
      <trkpt lat="47.55108" lon="6.86624">
        <ele>333.3</ele>
        <time>2021-08-10T09:54:57Z</time>
      </trkpt>
      <trkpt lat="47.55096" lon="6.86625">
        <ele>333.3</ele>
        <time>2021-08-10T09:54:59Z</time>
      </trkpt>
      <trkpt lat="47.55091" lon="6.86625">
        <ele>333.3</ele>
        <time>2021-08-10T09:55:00Z</time>
      </trkpt>
      <trkpt lat="47.55087" lon="6.86625">
        <ele>333.4</ele>
        <time>2021-08-10T09:55:01Z</time>
      </trkpt>
      <trkpt lat="47.55081" lon="6.86626">
        <ele>333.4</ele>
        <time>2021-08-10T09:55:03Z</time>
      </trkpt>
      <trkpt lat="47.55076" lon="6.86626">
        <ele>333.4</ele>
        <time>2021-08-10T09:55:04Z</time>
      </trkpt>
      <trkpt lat="47.55071" lon="6.86627">
        <ele>333.4</ele>
        <time>2021-08-10T09:55:05Z</time>
      </trkpt>
      <trkpt lat="47.55059" lon="6.86628">
        <ele>333.4</ele>
        <time>2021-08-10T09:55:07Z</time>
      </trkpt>
      <trkpt lat="47.55055" lon="6.86626">
        <ele>333.4</ele>
        <time>2021-08-10T09:55:08Z</time>
      </trkpt>
      <trkpt lat="47.55049" lon="6.86627">
        <ele>333.4</ele>
        <time>2021-08-10T09:55:10Z</time>
      </trkpt>
      <trkpt lat="47.55045" lon="6.86629">
        <ele>333.4</ele>
        <time>2021-08-10T09:55:11Z</time>
      </trkpt>
      <trkpt lat="47.55039" lon="6.86631">
        <ele>333.4</ele>
        <time>2021-08-10T09:55:12Z</time>
      </trkpt>
      <trkpt lat="47.55032" lon="6.86632">
        <ele>333.4</ele>
        <time>2021-08-10T09:55:14Z</time>
      </trkpt>
      <trkpt lat="47.55029" lon="6.86632">
        <ele>333.3</ele>
        <time>2021-08-10T09:55:15Z</time>
      </trkpt>
      <trkpt lat="47.55023" lon="6.86632">
        <ele>333.3</ele>
        <time>2021-08-10T09:55:16Z</time>
      </trkpt>
      <trkpt lat="47.55019" lon="6.86632">
        <ele>333.3</ele>
        <time>2021-08-10T09:55:18Z</time>
      </trkpt>
      <trkpt lat="47.55014" lon="6.86631">
        <ele>333.3</ele>
        <time>2021-08-10T09:55:19Z</time>
      </trkpt>
      <trkpt lat="47.55005" lon="6.86631">
        <ele>333.2</ele>
        <time>2021-08-10T09:55:20Z</time>
      </trkpt>
      <trkpt lat="47.55" lon="6.86631">
        <ele>333.2</ele>
        <time>2021-08-10T09:55:21Z</time>
      </trkpt>
      <trkpt lat="47.54996" lon="6.86631">
        <ele>333.2</ele>
        <time>2021-08-10T09:55:22Z</time>
      </trkpt>
      <trkpt lat="47.54987" lon="6.86631">
        <ele>333.1</ele>
        <time>2021-08-10T09:55:24Z</time>
      </trkpt>
      <trkpt lat="47.54983" lon="6.86632">
        <ele>333.1</ele>
        <time>2021-08-10T09:55:25Z</time>
      </trkpt>
      <trkpt lat="47.54975" lon="6.86634">
        <ele>333.1</ele>
        <time>2021-08-10T09:55:27Z</time>
      </trkpt>
      <trkpt lat="47.54971" lon="6.86635">
        <ele>333.1</ele>
        <time>2021-08-10T09:55:28Z</time>
      </trkpt>
      <trkpt lat="47.54965" lon="6.86638">
        <ele>333.1</ele>
        <time>2021-08-10T09:55:30Z</time>
      </trkpt>
      <trkpt lat="47.54961" lon="6.86638">
        <ele>333.1</ele>
        <time>2021-08-10T09:55:31Z</time>
      </trkpt>
      <trkpt lat="47.54957" lon="6.86638">
        <ele>333</ele>
        <time>2021-08-10T09:55:32Z</time>
      </trkpt>
      <trkpt lat="47.54954" lon="6.86637">
        <ele>333</ele>
        <time>2021-08-10T09:55:33Z</time>
      </trkpt>
      <trkpt lat="47.5495" lon="6.86636">
        <ele>333</ele>
        <time>2021-08-10T09:55:34Z</time>
      </trkpt>
      <trkpt lat="47.54946" lon="6.86634">
        <ele>333</ele>
        <time>2021-08-10T09:55:36Z</time>
      </trkpt>
      <trkpt lat="47.54942" lon="6.86633">
        <ele>333</ele>
        <time>2021-08-10T09:55:37Z</time>
      </trkpt>
      <trkpt lat="47.5494" lon="6.86632">
        <ele>333</ele>
        <time>2021-08-10T09:55:38Z</time>
      </trkpt>
      <trkpt lat="47.54936" lon="6.86631">
        <ele>333</ele>
        <time>2021-08-10T09:55:40Z</time>
      </trkpt>
      <trkpt lat="47.54935" lon="6.8663">
        <ele>333</ele>
        <time>2021-08-10T09:55:41Z</time>
      </trkpt>
      <trkpt lat="47.54934" lon="6.8663">
        <ele>333</ele>
        <time>2021-08-10T09:55:42Z</time>
      </trkpt>
      <trkpt lat="47.54931" lon="6.86632">
        <ele>333</ele>
        <time>2021-08-10T09:55:44Z</time>
      </trkpt>
      <trkpt lat="47.5493" lon="6.86632">
        <ele>332.9</ele>
        <time>2021-08-10T09:55:45Z</time>
      </trkpt>
      <trkpt lat="47.54928" lon="6.86633">
        <ele>332.9</ele>
        <time>2021-08-10T09:55:46Z</time>
      </trkpt>
      <trkpt lat="47.54924" lon="6.86634">
        <ele>332.9</ele>
        <time>2021-08-10T09:55:47Z</time>
      </trkpt>
      <trkpt lat="47.54923" lon="6.86634">
        <ele>332.9</ele>
        <time>2021-08-10T09:55:48Z</time>
      </trkpt>
      <trkpt lat="47.54919" lon="6.86635">
        <ele>332.9</ele>
        <time>2021-08-10T09:55:50Z</time>
      </trkpt>
      <trkpt lat="47.54914" lon="6.86637">
        <ele>332.9</ele>
        <time>2021-08-10T09:55:51Z</time>
      </trkpt>
      <trkpt lat="47.54909" lon="6.86638">
        <ele>332.8</ele>
        <time>2021-08-10T09:55:53Z</time>
      </trkpt>
      <trkpt lat="47.54902" lon="6.86639">
        <ele>332.5</ele>
        <time>2021-08-10T09:55:55Z</time>
      </trkpt>
      <trkpt lat="47.54898" lon="6.86639">
        <ele>332.4</ele>
        <time>2021-08-10T09:55:56Z</time>
      </trkpt>
      <trkpt lat="47.54897" lon="6.86639">
        <ele>332.3</ele>
        <time>2021-08-10T09:55:57Z</time>
      </trkpt>
      <trkpt lat="47.54891" lon="6.86638">
        <ele>332</ele>
        <time>2021-08-10T09:55:59Z</time>
      </trkpt>
      <trkpt lat="47.54887" lon="6.86637">
        <ele>331.7</ele>
        <time>2021-08-10T09:56:00Z</time>
      </trkpt>
      <trkpt lat="47.54884" lon="6.86636">
        <ele>331.6</ele>
        <time>2021-08-10T09:56:01Z</time>
      </trkpt>
      <trkpt lat="47.54881" lon="6.86635">
        <ele>331.4</ele>
        <time>2021-08-10T09:56:02Z</time>
      </trkpt>
      <trkpt lat="47.54877" lon="6.86632">
        <ele>331.1</ele>
        <time>2021-08-10T09:56:03Z</time>
      </trkpt>
      <trkpt lat="47.54873" lon="6.86629">
        <ele>330.9</ele>
        <time>2021-08-10T09:56:05Z</time>
      </trkpt>
      <trkpt lat="47.54871" lon="6.86628">
        <ele>330.8</ele>
        <time>2021-08-10T09:56:06Z</time>
      </trkpt>
      <trkpt lat="47.5487" lon="6.86627">
        <ele>330.8</ele>
        <time>2021-08-10T09:56:07Z</time>
      </trkpt>
      <trkpt lat="47.54861" lon="6.86624">
        <ele>330.4</ele>
        <time>2021-08-10T09:56:09Z</time>
      </trkpt>
      <trkpt lat="47.54853" lon="6.86621">
        <ele>330.1</ele>
        <time>2021-08-10T09:56:10Z</time>
      </trkpt>
      <trkpt lat="47.54846" lon="6.86618">
        <ele>330</ele>
        <time>2021-08-10T09:56:12Z</time>
      </trkpt>
      <trkpt lat="47.54842" lon="6.86616">
        <ele>329.9</ele>
        <time>2021-08-10T09:56:13Z</time>
      </trkpt>
      <trkpt lat="47.54742" lon="6.86584">
        <ele>329.9</ele>
        <time>2021-08-10T09:56:23Z</time>
      </trkpt>
      <trkpt lat="47.54727" lon="6.86582">
        <ele>329.9</ele>
        <time>2021-08-10T09:56:24Z</time>
      </trkpt>
      <trkpt lat="47.54715" lon="6.8658">
        <ele>329.9</ele>
        <time>2021-08-10T09:56:25Z</time>
      </trkpt>
      <trkpt lat="47.54696" lon="6.86576">
        <ele>330</ele>
        <time>2021-08-10T09:56:27Z</time>
      </trkpt>
      <trkpt lat="47.54688" lon="6.86575">
        <ele>330</ele>
        <time>2021-08-10T09:56:28Z</time>
      </trkpt>
      <trkpt lat="47.54679" lon="6.86575">
        <ele>330</ele>
        <time>2021-08-10T09:56:29Z</time>
      </trkpt>
      <trkpt lat="47.54661" lon="6.86574">
        <ele>330.1</ele>
        <time>2021-08-10T09:56:31Z</time>
      </trkpt>
      <trkpt lat="47.54643" lon="6.8657">
        <ele>330.1</ele>
        <time>2021-08-10T09:56:33Z</time>
      </trkpt>
      <trkpt lat="47.54635" lon="6.86568">
        <ele>330.1</ele>
        <time>2021-08-10T09:56:34Z</time>
      </trkpt>
      <trkpt lat="47.54622" lon="6.86563">
        <ele>330.2</ele>
        <time>2021-08-10T09:56:36Z</time>
      </trkpt>
      <trkpt lat="47.54615" lon="6.86561">
        <ele>330.2</ele>
        <time>2021-08-10T09:56:37Z</time>
      </trkpt>
      <trkpt lat="47.54601" lon="6.86557">
        <ele>330.2</ele>
        <time>2021-08-10T09:56:39Z</time>
      </trkpt>
      <trkpt lat="47.54594" lon="6.86555">
        <ele>330.3</ele>
        <time>2021-08-10T09:56:41Z</time>
      </trkpt>
      <trkpt lat="47.54588" lon="6.86554">
        <ele>330.3</ele>
        <time>2021-08-10T09:56:42Z</time>
      </trkpt>
      <trkpt lat="47.54582" lon="6.86552">
        <ele>330.3</ele>
        <time>2021-08-10T09:56:43Z</time>
      </trkpt>
      <trkpt lat="47.54573" lon="6.86548">
        <ele>330.3</ele>
        <time>2021-08-10T09:56:45Z</time>
      </trkpt>
      <trkpt lat="47.54566" lon="6.86546">
        <ele>330.3</ele>
        <time>2021-08-10T09:56:47Z</time>
      </trkpt>
      <trkpt lat="47.54563" lon="6.86544">
        <ele>330.3</ele>
        <time>2021-08-10T09:56:48Z</time>
      </trkpt>
      <trkpt lat="47.5456" lon="6.8654">
        <ele>330.3</ele>
        <time>2021-08-10T09:56:49Z</time>
      </trkpt>
      <trkpt lat="47.54555" lon="6.86539">
        <ele>330.3</ele>
        <time>2021-08-10T09:56:51Z</time>
      </trkpt>
      <trkpt lat="47.5455" lon="6.86537">
        <ele>330.3</ele>
        <time>2021-08-10T09:56:52Z</time>
      </trkpt>
      <trkpt lat="47.54545" lon="6.86537">
        <ele>330.3</ele>
        <time>2021-08-10T09:56:53Z</time>
      </trkpt>
      <trkpt lat="47.54538" lon="6.86535">
        <ele>330.4</ele>
        <time>2021-08-10T09:56:54Z</time>
      </trkpt>
      <trkpt lat="47.54532" lon="6.86534">
        <ele>330.4</ele>
        <time>2021-08-10T09:56:55Z</time>
      </trkpt>
      <trkpt lat="47.54525" lon="6.8653">
        <ele>330.5</ele>
        <time>2021-08-10T09:56:57Z</time>
      </trkpt>
      <trkpt lat="47.54519" lon="6.86529">
        <ele>330.5</ele>
        <time>2021-08-10T09:56:58Z</time>
      </trkpt>
      <trkpt lat="47.54515" lon="6.8653">
        <ele>330.5</ele>
        <time>2021-08-10T09:56:59Z</time>
      </trkpt>
      <trkpt lat="47.54397" lon="6.86453">
        <ele>330.6</ele>
        <time>2021-08-10T09:58:01Z</time>
      </trkpt>
      <trkpt lat="47.54393" lon="6.86452">
        <ele>330.6</ele>
        <time>2021-08-10T09:58:02Z</time>
      </trkpt>
      <trkpt lat="47.54387" lon="6.86451">
        <ele>330.6</ele>
        <time>2021-08-10T09:58:03Z</time>
      </trkpt>
      <trkpt lat="47.54376" lon="6.8645">
        <ele>330.6</ele>
        <time>2021-08-10T09:58:04Z</time>
      </trkpt>
      <trkpt lat="47.54332" lon="6.86447">
        <ele>330.6</ele>
        <time>2021-08-10T09:58:06Z</time>
      </trkpt>
      <trkpt lat="47.54326" lon="6.86447">
        <ele>330.6</ele>
        <time>2021-08-10T09:58:08Z</time>
      </trkpt>
      <trkpt lat="47.54322" lon="6.86447">
        <ele>330.6</ele>
        <time>2021-08-10T09:58:09Z</time>
      </trkpt>
      <trkpt lat="47.54312" lon="6.86445">
        <ele>330.6</ele>
        <time>2021-08-10T09:58:10Z</time>
      </trkpt>
      <trkpt lat="47.54305" lon="6.86443">
        <ele>330.6</ele>
        <time>2021-08-10T09:58:11Z</time>
      </trkpt>
      <trkpt lat="47.543" lon="6.8644">
        <ele>330.7</ele>
        <time>2021-08-10T09:58:13Z</time>
      </trkpt>
      <trkpt lat="47.54294" lon="6.86438">
        <ele>330.7</ele>
        <time>2021-08-10T09:58:14Z</time>
      </trkpt>
      <trkpt lat="47.54288" lon="6.86435">
        <ele>330.7</ele>
        <time>2021-08-10T09:58:15Z</time>
      </trkpt>
      <trkpt lat="47.54282" lon="6.86432">
        <ele>330.7</ele>
        <time>2021-08-10T09:58:16Z</time>
      </trkpt>
      <trkpt lat="47.54276" lon="6.86428">
        <ele>330.7</ele>
        <time>2021-08-10T09:58:17Z</time>
      </trkpt>
      <trkpt lat="47.54271" lon="6.86425">
        <ele>330.7</ele>
        <time>2021-08-10T09:58:18Z</time>
      </trkpt>
      <trkpt lat="47.54266" lon="6.86422">
        <ele>330.7</ele>
        <time>2021-08-10T09:58:21Z</time>
      </trkpt>
      <trkpt lat="47.54265" lon="6.86421">
        <ele>330.7</ele>
        <time>2021-08-10T09:58:22Z</time>
      </trkpt>
      <trkpt lat="47.54264" lon="6.8642">
        <ele>330.7</ele>
        <time>2021-08-10T09:58:23Z</time>
      </trkpt>
      <trkpt lat="47.54261" lon="6.86418">
        <ele>330.7</ele>
        <time>2021-08-10T09:58:24Z</time>
      </trkpt>
      <trkpt lat="47.54243" lon="6.86404">
        <ele>330.7</ele>
        <time>2021-08-10T09:58:25Z</time>
      </trkpt>
      <trkpt lat="47.54226" lon="6.86391">
        <ele>330.7</ele>
        <time>2021-08-10T09:58:27Z</time>
      </trkpt>
      <trkpt lat="47.5421" lon="6.86379">
        <ele>330.7</ele>
        <time>2021-08-10T09:58:28Z</time>
      </trkpt>
      <trkpt lat="47.54203" lon="6.86373">
        <ele>330.7</ele>
        <time>2021-08-10T09:58:29Z</time>
      </trkpt>
      <trkpt lat="47.54198" lon="6.8637">
        <ele>330.7</ele>
        <time>2021-08-10T09:58:30Z</time>
      </trkpt>
      <trkpt lat="47.54193" lon="6.86368">
        <ele>330.7</ele>
        <time>2021-08-10T09:58:31Z</time>
      </trkpt>
      <trkpt lat="47.54187" lon="6.86366">
        <ele>330.7</ele>
        <time>2021-08-10T09:58:32Z</time>
      </trkpt>
      <trkpt lat="47.54179" lon="6.86364">
        <ele>330.7</ele>
        <time>2021-08-10T09:58:33Z</time>
      </trkpt>
      <trkpt lat="47.54169" lon="6.86361">
        <ele>330.7</ele>
        <time>2021-08-10T09:58:35Z</time>
      </trkpt>
      <trkpt lat="47.54161" lon="6.86358">
        <ele>330.7</ele>
        <time>2021-08-10T09:58:36Z</time>
      </trkpt>
      <trkpt lat="47.54153" lon="6.86354">
        <ele>330.6</ele>
        <time>2021-08-10T09:58:37Z</time>
      </trkpt>
      <trkpt lat="47.54146" lon="6.86351">
        <ele>330.6</ele>
        <time>2021-08-10T09:58:38Z</time>
      </trkpt>
      <trkpt lat="47.54135" lon="6.86345">
        <ele>330.6</ele>
        <time>2021-08-10T09:58:40Z</time>
      </trkpt>
      <trkpt lat="47.54128" lon="6.86341">
        <ele>330.6</ele>
        <time>2021-08-10T09:58:41Z</time>
      </trkpt>
      <trkpt lat="47.54122" lon="6.86337">
        <ele>330.6</ele>
        <time>2021-08-10T09:58:42Z</time>
      </trkpt>
      <trkpt lat="47.54117" lon="6.86333">
        <ele>330.6</ele>
        <time>2021-08-10T09:58:43Z</time>
      </trkpt>
      <trkpt lat="47.54107" lon="6.86327">
        <ele>330.6</ele>
        <time>2021-08-10T09:58:45Z</time>
      </trkpt>
      <trkpt lat="47.541" lon="6.86324">
        <ele>330.7</ele>
        <time>2021-08-10T09:58:46Z</time>
      </trkpt>
      <trkpt lat="47.54095" lon="6.86322">
        <ele>330.7</ele>
        <time>2021-08-10T09:58:48Z</time>
      </trkpt>
      <trkpt lat="47.54088" lon="6.86319">
        <ele>330.7</ele>
        <time>2021-08-10T09:58:49Z</time>
      </trkpt>
      <trkpt lat="47.54082" lon="6.86316">
        <ele>330.7</ele>
        <time>2021-08-10T09:58:51Z</time>
      </trkpt>
      <trkpt lat="47.54076" lon="6.86313">
        <ele>330.7</ele>
        <time>2021-08-10T09:58:52Z</time>
      </trkpt>
      <trkpt lat="47.54069" lon="6.86309">
        <ele>330.7</ele>
        <time>2021-08-10T09:58:54Z</time>
      </trkpt>
      <trkpt lat="47.54063" lon="6.86306">
        <ele>330.8</ele>
        <time>2021-08-10T09:58:55Z</time>
      </trkpt>
      <trkpt lat="47.54058" lon="6.86302">
        <ele>330.8</ele>
        <time>2021-08-10T09:58:56Z</time>
      </trkpt>
      <trkpt lat="47.54054" lon="6.86299">
        <ele>330.8</ele>
        <time>2021-08-10T09:58:57Z</time>
      </trkpt>
      <trkpt lat="47.54048" lon="6.86297">
        <ele>330.7</ele>
        <time>2021-08-10T09:58:58Z</time>
      </trkpt>
      <trkpt lat="47.54042" lon="6.86296">
        <ele>330.7</ele>
        <time>2021-08-10T09:58:59Z</time>
      </trkpt>
      <trkpt lat="47.54037" lon="6.86295">
        <ele>330.7</ele>
        <time>2021-08-10T09:59:01Z</time>
      </trkpt>
      <trkpt lat="47.5403" lon="6.86295">
        <ele>330.7</ele>
        <time>2021-08-10T09:59:02Z</time>
      </trkpt>
      <trkpt lat="47.54024" lon="6.86294">
        <ele>330.6</ele>
        <time>2021-08-10T09:59:03Z</time>
      </trkpt>
      <trkpt lat="47.54018" lon="6.86293">
        <ele>330.6</ele>
        <time>2021-08-10T09:59:04Z</time>
      </trkpt>
      <trkpt lat="47.54009" lon="6.86292">
        <ele>330.6</ele>
        <time>2021-08-10T09:59:06Z</time>
      </trkpt>
      <trkpt lat="47.54003" lon="6.86291">
        <ele>330.6</ele>
        <time>2021-08-10T09:59:07Z</time>
      </trkpt>
      <trkpt lat="47.53995" lon="6.8629">
        <ele>330.5</ele>
        <time>2021-08-10T09:59:09Z</time>
      </trkpt>
      <trkpt lat="47.53989" lon="6.8629">
        <ele>330.5</ele>
        <time>2021-08-10T09:59:10Z</time>
      </trkpt>
      <trkpt lat="47.53983" lon="6.86289">
        <ele>330.5</ele>
        <time>2021-08-10T09:59:11Z</time>
      </trkpt>
      <trkpt lat="47.53977" lon="6.86289">
        <ele>330.5</ele>
        <time>2021-08-10T09:59:12Z</time>
      </trkpt>
      <trkpt lat="47.5397" lon="6.86288">
        <ele>330.5</ele>
        <time>2021-08-10T09:59:14Z</time>
      </trkpt>
      <trkpt lat="47.53962" lon="6.86288">
        <ele>330.5</ele>
        <time>2021-08-10T09:59:15Z</time>
      </trkpt>
      <trkpt lat="47.53954" lon="6.86289">
        <ele>330.5</ele>
        <time>2021-08-10T09:59:17Z</time>
      </trkpt>
      <trkpt lat="47.53948" lon="6.86289">
        <ele>330.5</ele>
        <time>2021-08-10T09:59:18Z</time>
      </trkpt>
      <trkpt lat="47.53941" lon="6.86289">
        <ele>330.5</ele>
        <time>2021-08-10T09:59:19Z</time>
      </trkpt>
      <trkpt lat="47.53936" lon="6.86289">
        <ele>330.5</ele>
        <time>2021-08-10T09:59:20Z</time>
      </trkpt>
      <trkpt lat="47.53929" lon="6.86289">
        <ele>330.5</ele>
        <time>2021-08-10T09:59:22Z</time>
      </trkpt>
      <trkpt lat="47.53924" lon="6.86289">
        <ele>330.5</ele>
        <time>2021-08-10T09:59:23Z</time>
      </trkpt>
      <trkpt lat="47.53918" lon="6.86289">
        <ele>330.5</ele>
        <time>2021-08-10T09:59:24Z</time>
      </trkpt>
      <trkpt lat="47.53911" lon="6.86288">
        <ele>330.5</ele>
        <time>2021-08-10T09:59:25Z</time>
      </trkpt>
      <trkpt lat="47.53905" lon="6.86288">
        <ele>330.4</ele>
        <time>2021-08-10T09:59:26Z</time>
      </trkpt>
      <trkpt lat="47.539" lon="6.86287">
        <ele>330.4</ele>
        <time>2021-08-10T09:59:27Z</time>
      </trkpt>
      <trkpt lat="47.53894" lon="6.86286">
        <ele>330.3</ele>
        <time>2021-08-10T09:59:28Z</time>
      </trkpt>
      <trkpt lat="47.53884" lon="6.86285">
        <ele>330.2</ele>
        <time>2021-08-10T09:59:30Z</time>
      </trkpt>
      <trkpt lat="47.53878" lon="6.86284">
        <ele>330.1</ele>
        <time>2021-08-10T09:59:31Z</time>
      </trkpt>
      <trkpt lat="47.53874" lon="6.86283">
        <ele>329.9</ele>
        <time>2021-08-10T09:59:32Z</time>
      </trkpt>
      <trkpt lat="47.53867" lon="6.86281">
        <ele>329.8</ele>
        <time>2021-08-10T09:59:34Z</time>
      </trkpt>
      <trkpt lat="47.5386" lon="6.86278">
        <ele>329.5</ele>
        <time>2021-08-10T09:59:35Z</time>
      </trkpt>
      <trkpt lat="47.53855" lon="6.86277">
        <ele>329.3</ele>
        <time>2021-08-10T09:59:36Z</time>
      </trkpt>
      <trkpt lat="47.53846" lon="6.86275">
        <ele>329</ele>
        <time>2021-08-10T09:59:38Z</time>
      </trkpt>
      <trkpt lat="47.53836" lon="6.86272">
        <ele>328.7</ele>
        <time>2021-08-10T09:59:40Z</time>
      </trkpt>
      <trkpt lat="47.53817" lon="6.86268">
        <ele>328.2</ele>
        <time>2021-08-10T09:59:42Z</time>
      </trkpt>
      <trkpt lat="47.5381" lon="6.86266">
        <ele>328.1</ele>
        <time>2021-08-10T09:59:43Z</time>
      </trkpt>
      <trkpt lat="47.53797" lon="6.86261">
        <ele>327.9</ele>
        <time>2021-08-10T09:59:45Z</time>
      </trkpt>
      <trkpt lat="47.5379" lon="6.86259">
        <ele>327.8</ele>
        <time>2021-08-10T09:59:46Z</time>
      </trkpt>
      <trkpt lat="47.53784" lon="6.86258">
        <ele>327.8</ele>
        <time>2021-08-10T09:59:47Z</time>
      </trkpt>
      <trkpt lat="47.53778" lon="6.86256">
        <ele>327.7</ele>
        <time>2021-08-10T09:59:48Z</time>
      </trkpt>
      <trkpt lat="47.53767" lon="6.86254">
        <ele>327.7</ele>
        <time>2021-08-10T09:59:50Z</time>
      </trkpt>
      <trkpt lat="47.53756" lon="6.86252">
        <ele>327.7</ele>
        <time>2021-08-10T09:59:52Z</time>
      </trkpt>
      <trkpt lat="47.53751" lon="6.86251">
        <ele>327.7</ele>
        <time>2021-08-10T09:59:53Z</time>
      </trkpt>
      <trkpt lat="47.53741" lon="6.86248">
        <ele>327.7</ele>
        <time>2021-08-10T09:59:55Z</time>
      </trkpt>
      <trkpt lat="47.53737" lon="6.86247">
        <ele>327.7</ele>
        <time>2021-08-10T09:59:56Z</time>
      </trkpt>
      <trkpt lat="47.53732" lon="6.86246">
        <ele>327.7</ele>
        <time>2021-08-10T09:59:57Z</time>
      </trkpt>
      <trkpt lat="47.53728" lon="6.86245">
        <ele>327.7</ele>
        <time>2021-08-10T09:59:58Z</time>
      </trkpt>
      <trkpt lat="47.53724" lon="6.86243">
        <ele>327.7</ele>
        <time>2021-08-10T09:59:59Z</time>
      </trkpt>
      <trkpt lat="47.53715" lon="6.8624">
        <ele>327.7</ele>
        <time>2021-08-10T10:00:01Z</time>
      </trkpt>
      <trkpt lat="47.53704" lon="6.86236">
        <ele>327.7</ele>
        <time>2021-08-10T10:00:03Z</time>
      </trkpt>
      <trkpt lat="47.53697" lon="6.86241">
        <ele>327.7</ele>
        <time>2021-08-10T10:00:05Z</time>
      </trkpt>
      <trkpt lat="47.53691" lon="6.86238">
        <ele>327.7</ele>
        <time>2021-08-10T10:00:06Z</time>
      </trkpt>
      <trkpt lat="47.53686" lon="6.86233">
        <ele>327.7</ele>
        <time>2021-08-10T10:00:07Z</time>
      </trkpt>
      <trkpt lat="47.53682" lon="6.8623">
        <ele>327.8</ele>
        <time>2021-08-10T10:00:08Z</time>
      </trkpt>
      <trkpt lat="47.53676" lon="6.86224">
        <ele>327.8</ele>
        <time>2021-08-10T10:00:10Z</time>
      </trkpt>
      <trkpt lat="47.5367" lon="6.86218">
        <ele>327.8</ele>
        <time>2021-08-10T10:00:11Z</time>
      </trkpt>
      <trkpt lat="47.53666" lon="6.86213">
        <ele>327.8</ele>
        <time>2021-08-10T10:00:13Z</time>
      </trkpt>
      <trkpt lat="47.53662" lon="6.86209">
        <ele>327.8</ele>
        <time>2021-08-10T10:00:14Z</time>
      </trkpt>
      <trkpt lat="47.53656" lon="6.86205">
        <ele>327.8</ele>
        <time>2021-08-10T10:00:15Z</time>
      </trkpt>
      <trkpt lat="47.53651" lon="6.86204">
        <ele>327.8</ele>
        <time>2021-08-10T10:00:16Z</time>
      </trkpt>
      <trkpt lat="47.53645" lon="6.86202">
        <ele>327.7</ele>
        <time>2021-08-10T10:00:17Z</time>
      </trkpt>
      <trkpt lat="47.53635" lon="6.86202">
        <ele>327.7</ele>
        <time>2021-08-10T10:00:18Z</time>
      </trkpt>
      <trkpt lat="47.53629" lon="6.862">
        <ele>327.7</ele>
        <time>2021-08-10T10:00:19Z</time>
      </trkpt>
      <trkpt lat="47.53619" lon="6.86197">
        <ele>327.6</ele>
        <time>2021-08-10T10:00:21Z</time>
      </trkpt>
      <trkpt lat="47.53614" lon="6.86196">
        <ele>327.6</ele>
        <time>2021-08-10T10:00:22Z</time>
      </trkpt>
      <trkpt lat="47.53603" lon="6.86194">
        <ele>327.6</ele>
        <time>2021-08-10T10:00:24Z</time>
      </trkpt>
      <trkpt lat="47.53597" lon="6.86194">
        <ele>327.6</ele>
        <time>2021-08-10T10:00:25Z</time>
      </trkpt>
      <trkpt lat="47.53586" lon="6.86193">
        <ele>327.7</ele>
        <time>2021-08-10T10:00:27Z</time>
      </trkpt>
      <trkpt lat="47.53581" lon="6.86192">
        <ele>327.7</ele>
        <time>2021-08-10T10:00:28Z</time>
      </trkpt>
      <trkpt lat="47.53572" lon="6.8619">
        <ele>327.7</ele>
        <time>2021-08-10T10:00:30Z</time>
      </trkpt>
      <trkpt lat="47.53564" lon="6.86187">
        <ele>327.7</ele>
        <time>2021-08-10T10:00:32Z</time>
      </trkpt>
      <trkpt lat="47.5356" lon="6.86186">
        <ele>327.7</ele>
        <time>2021-08-10T10:00:33Z</time>
      </trkpt>
      <trkpt lat="47.53556" lon="6.86185">
        <ele>327.8</ele>
        <time>2021-08-10T10:00:34Z</time>
      </trkpt>
      <trkpt lat="47.53549" lon="6.86182">
        <ele>327.8</ele>
        <time>2021-08-10T10:00:36Z</time>
      </trkpt>
      <trkpt lat="47.5354" lon="6.8618">
        <ele>327.8</ele>
        <time>2021-08-10T10:00:38Z</time>
      </trkpt>
      <trkpt lat="47.53535" lon="6.86179">
        <ele>327.9</ele>
        <time>2021-08-10T10:00:40Z</time>
      </trkpt>
      <trkpt lat="47.5353" lon="6.86175">
        <ele>327.9</ele>
        <time>2021-08-10T10:00:42Z</time>
      </trkpt>
      <trkpt lat="47.53526" lon="6.86173">
        <ele>327.9</ele>
        <time>2021-08-10T10:00:43Z</time>
      </trkpt>
      <trkpt lat="47.53522" lon="6.86169">
        <ele>327.9</ele>
        <time>2021-08-10T10:00:45Z</time>
      </trkpt>
      <trkpt lat="47.53521" lon="6.86167">
        <ele>327.9</ele>
        <time>2021-08-10T10:00:46Z</time>
      </trkpt>
      <trkpt lat="47.5352" lon="6.86166">
        <ele>327.9</ele>
        <time>2021-08-10T10:00:47Z</time>
      </trkpt>
      <trkpt lat="47.53518" lon="6.86164">
        <ele>327.9</ele>
        <time>2021-08-10T10:00:48Z</time>
      </trkpt>
      <trkpt lat="47.53025" lon="6.85954">
        <ele>327.7</ele>
        <time>2021-08-10T10:02:35Z</time>
      </trkpt>
      <trkpt lat="47.53012" lon="6.85954">
        <ele>327.8</ele>
        <time>2021-08-10T10:02:37Z</time>
      </trkpt>
      <trkpt lat="47.53002" lon="6.85956">
        <ele>327.9</ele>
        <time>2021-08-10T10:02:38Z</time>
      </trkpt>
      <trkpt lat="47.52987" lon="6.85958">
        <ele>327.9</ele>
        <time>2021-08-10T10:02:40Z</time>
      </trkpt>
      <trkpt lat="47.52974" lon="6.85961">
        <ele>328</ele>
        <time>2021-08-10T10:02:41Z</time>
      </trkpt>
      <trkpt lat="47.52962" lon="6.85962">
        <ele>328</ele>
        <time>2021-08-10T10:02:43Z</time>
      </trkpt>
      <trkpt lat="47.52954" lon="6.85962">
        <ele>328</ele>
        <time>2021-08-10T10:02:44Z</time>
      </trkpt>
      <trkpt lat="47.52943" lon="6.85962">
        <ele>328</ele>
        <time>2021-08-10T10:02:46Z</time>
      </trkpt>
      <trkpt lat="47.52937" lon="6.85958">
        <ele>328</ele>
        <time>2021-08-10T10:02:48Z</time>
      </trkpt>
      <trkpt lat="47.52932" lon="6.85953">
        <ele>328</ele>
        <time>2021-08-10T10:02:49Z</time>
      </trkpt>
      <trkpt lat="47.52929" lon="6.8595">
        <ele>328</ele>
        <time>2021-08-10T10:02:50Z</time>
      </trkpt>
      <trkpt lat="47.52924" lon="6.85947">
        <ele>328</ele>
        <time>2021-08-10T10:02:52Z</time>
      </trkpt>
      <trkpt lat="47.52921" lon="6.85944">
        <ele>328</ele>
        <time>2021-08-10T10:02:53Z</time>
      </trkpt>
      <trkpt lat="47.52919" lon="6.85942">
        <ele>328</ele>
        <time>2021-08-10T10:02:54Z</time>
      </trkpt>
      <trkpt lat="47.52916" lon="6.8594">
        <ele>328</ele>
        <time>2021-08-10T10:02:55Z</time>
      </trkpt>
      <trkpt lat="47.52914" lon="6.85938">
        <ele>328</ele>
        <time>2021-08-10T10:02:56Z</time>
      </trkpt>
      <trkpt lat="47.52911" lon="6.85939">
        <ele>328</ele>
        <time>2021-08-10T10:02:58Z</time>
      </trkpt>
      <trkpt lat="47.52911" lon="6.85937">
        <ele>328</ele>
        <time>2021-08-10T10:02:59Z</time>
      </trkpt>
      <trkpt lat="47.52912" lon="6.85937">
        <ele>327.9</ele>
        <time>2021-08-10T10:03:01Z</time>
      </trkpt>
      <trkpt lat="47.52913" lon="6.85936">
        <ele>327.9</ele>
        <time>2021-08-10T10:03:02Z</time>
      </trkpt>
      <trkpt lat="47.52914" lon="6.85936">
        <ele>327.9</ele>
        <time>2021-08-10T10:03:03Z</time>
      </trkpt>
      <trkpt lat="47.52915" lon="6.85935">
        <ele>327.9</ele>
        <time>2021-08-10T10:03:04Z</time>
      </trkpt>
      <trkpt lat="47.52915" lon="6.85935">
        <ele>327.9</ele>
        <time>2021-08-10T10:03:05Z</time>
      </trkpt>
      <trkpt lat="47.52917" lon="6.85935">
        <ele>327.9</ele>
        <time>2021-08-10T10:03:07Z</time>
      </trkpt>
      <trkpt lat="47.52918" lon="6.85935">
        <ele>327.9</ele>
        <time>2021-08-10T10:03:08Z</time>
      </trkpt>
      <trkpt lat="47.52917" lon="6.85936">
        <ele>327.9</ele>
        <time>2021-08-10T10:03:09Z</time>
      </trkpt>
      <trkpt lat="47.52917" lon="6.85936">
        <ele>327.9</ele>
        <time>2021-08-10T10:03:11Z</time>
      </trkpt>
      <trkpt lat="47.52917" lon="6.85936">
        <ele>327.9</ele>
        <time>2021-08-10T10:03:12Z</time>
      </trkpt>
      <trkpt lat="47.52916" lon="6.85936">
        <ele>327.9</ele>
        <time>2021-08-10T10:03:13Z</time>
      </trkpt>
      <trkpt lat="47.52916" lon="6.85936">
        <ele>327.9</ele>
        <time>2021-08-10T10:03:15Z</time>
      </trkpt>
      <trkpt lat="47.52915" lon="6.85938">
        <ele>327.9</ele>
        <time>2021-08-10T10:03:17Z</time>
      </trkpt>
      <trkpt lat="47.52912" lon="6.85961">
        <ele>327.8</ele>
        <time>2021-08-10T10:05:08Z</time>
      </trkpt>
      <trkpt lat="47.5291" lon="6.85962">
        <ele>327.8</ele>
        <time>2021-08-10T10:05:09Z</time>
      </trkpt>
      <trkpt lat="47.52904" lon="6.85964">
        <ele>327.7</ele>
        <time>2021-08-10T10:05:11Z</time>
      </trkpt>
      <trkpt lat="47.52899" lon="6.85965">
        <ele>327.7</ele>
        <time>2021-08-10T10:05:12Z</time>
      </trkpt>
      <trkpt lat="47.52895" lon="6.85966">
        <ele>327.7</ele>
        <time>2021-08-10T10:05:13Z</time>
      </trkpt>
      <trkpt lat="47.5289" lon="6.85967">
        <ele>327.7</ele>
        <time>2021-08-10T10:05:14Z</time>
      </trkpt>
      <trkpt lat="47.52885" lon="6.85968">
        <ele>327.7</ele>
        <time>2021-08-10T10:05:15Z</time>
      </trkpt>
      <trkpt lat="47.52881" lon="6.85968">
        <ele>327.7</ele>
        <time>2021-08-10T10:05:16Z</time>
      </trkpt>
      <trkpt lat="47.52875" lon="6.85968">
        <ele>327.7</ele>
        <time>2021-08-10T10:05:17Z</time>
      </trkpt>
      <trkpt lat="47.5287" lon="6.85969">
        <ele>327.6</ele>
        <time>2021-08-10T10:05:18Z</time>
      </trkpt>
      <trkpt lat="47.52861" lon="6.8597">
        <ele>327.6</ele>
        <time>2021-08-10T10:05:20Z</time>
      </trkpt>
      <trkpt lat="47.52856" lon="6.85972">
        <ele>327.6</ele>
        <time>2021-08-10T10:05:21Z</time>
      </trkpt>
      <trkpt lat="47.52851" lon="6.85973">
        <ele>327.6</ele>
        <time>2021-08-10T10:05:22Z</time>
      </trkpt>
      <trkpt lat="47.52846" lon="6.85974">
        <ele>327.6</ele>
        <time>2021-08-10T10:05:23Z</time>
      </trkpt>
      <trkpt lat="47.52839" lon="6.85977">
        <ele>327.6</ele>
        <time>2021-08-10T10:05:25Z</time>
      </trkpt>
      <trkpt lat="47.52833" lon="6.85978">
        <ele>327.6</ele>
        <time>2021-08-10T10:05:26Z</time>
      </trkpt>
      <trkpt lat="47.52828" lon="6.8598">
        <ele>327.6</ele>
        <time>2021-08-10T10:05:27Z</time>
      </trkpt>
      <trkpt lat="47.52823" lon="6.85982">
        <ele>327.6</ele>
        <time>2021-08-10T10:05:28Z</time>
      </trkpt>
      <trkpt lat="47.52817" lon="6.85985">
        <ele>327.6</ele>
        <time>2021-08-10T10:05:29Z</time>
      </trkpt>
      <trkpt lat="47.52811" lon="6.85987">
        <ele>327.6</ele>
        <time>2021-08-10T10:05:30Z</time>
      </trkpt>
      <trkpt lat="47.52806" lon="6.8599">
        <ele>327.6</ele>
        <time>2021-08-10T10:05:32Z</time>
      </trkpt>
      <trkpt lat="47.52801" lon="6.85992">
        <ele>327.6</ele>
        <time>2021-08-10T10:05:33Z</time>
      </trkpt>
      <trkpt lat="47.52796" lon="6.85995">
        <ele>327.6</ele>
        <time>2021-08-10T10:05:34Z</time>
      </trkpt>
      <trkpt lat="47.52792" lon="6.85998">
        <ele>327.6</ele>
        <time>2021-08-10T10:05:35Z</time>
      </trkpt>
      <trkpt lat="47.52786" lon="6.86001">
        <ele>327.6</ele>
        <time>2021-08-10T10:05:36Z</time>
      </trkpt>
      <trkpt lat="47.52781" lon="6.86004">
        <ele>327.6</ele>
        <time>2021-08-10T10:05:37Z</time>
      </trkpt>
      <trkpt lat="47.52777" lon="6.86007">
        <ele>327.6</ele>
        <time>2021-08-10T10:05:39Z</time>
      </trkpt>
      <trkpt lat="47.52772" lon="6.8601">
        <ele>327.6</ele>
        <time>2021-08-10T10:05:40Z</time>
      </trkpt>
      <trkpt lat="47.52768" lon="6.86013">
        <ele>327.6</ele>
        <time>2021-08-10T10:05:41Z</time>
      </trkpt>
      <trkpt lat="47.52764" lon="6.86016">
        <ele>327.6</ele>
        <time>2021-08-10T10:05:42Z</time>
      </trkpt>
      <trkpt lat="47.52759" lon="6.8602">
        <ele>327.5</ele>
        <time>2021-08-10T10:05:43Z</time>
      </trkpt>
      <trkpt lat="47.52755" lon="6.86023">
        <ele>327.5</ele>
        <time>2021-08-10T10:05:44Z</time>
      </trkpt>
      <trkpt lat="47.52752" lon="6.86026">
        <ele>327.5</ele>
        <time>2021-08-10T10:05:46Z</time>
      </trkpt>
      <trkpt lat="47.52748" lon="6.86029">
        <ele>327.5</ele>
        <time>2021-08-10T10:05:47Z</time>
      </trkpt>
      <trkpt lat="47.52744" lon="6.86032">
        <ele>327.5</ele>
        <time>2021-08-10T10:05:48Z</time>
      </trkpt>
      <trkpt lat="47.5274" lon="6.86035">
        <ele>327.5</ele>
        <time>2021-08-10T10:05:49Z</time>
      </trkpt>
      <trkpt lat="47.52736" lon="6.86037">
        <ele>327.5</ele>
        <time>2021-08-10T10:05:50Z</time>
      </trkpt>
      <trkpt lat="47.52732" lon="6.8604">
        <ele>327.5</ele>
        <time>2021-08-10T10:05:51Z</time>
      </trkpt>
      <trkpt lat="47.52728" lon="6.86043">
        <ele>327.5</ele>
        <time>2021-08-10T10:05:52Z</time>
      </trkpt>
      <trkpt lat="47.52724" lon="6.86046">
        <ele>327.5</ele>
        <time>2021-08-10T10:05:54Z</time>
      </trkpt>
      <trkpt lat="47.52719" lon="6.86049">
        <ele>327.5</ele>
        <time>2021-08-10T10:05:55Z</time>
      </trkpt>
      <trkpt lat="47.52714" lon="6.86051">
        <ele>327.5</ele>
        <time>2021-08-10T10:05:56Z</time>
      </trkpt>
      <trkpt lat="47.52707" lon="6.86056">
        <ele>327.4</ele>
        <time>2021-08-10T10:05:58Z</time>
      </trkpt>
      <trkpt lat="47.52702" lon="6.86059">
        <ele>327.4</ele>
        <time>2021-08-10T10:05:59Z</time>
      </trkpt>
      <trkpt lat="47.52698" lon="6.86062">
        <ele>327.4</ele>
        <time>2021-08-10T10:06:00Z</time>
      </trkpt>
      <trkpt lat="47.52691" lon="6.86067">
        <ele>327.4</ele>
        <time>2021-08-10T10:06:02Z</time>
      </trkpt>
      <trkpt lat="47.52685" lon="6.8607">
        <ele>327.3</ele>
        <time>2021-08-10T10:06:03Z</time>
      </trkpt>
      <trkpt lat="47.52681" lon="6.86072">
        <ele>327.3</ele>
        <time>2021-08-10T10:06:04Z</time>
      </trkpt>
      <trkpt lat="47.52676" lon="6.86075">
        <ele>327.3</ele>
        <time>2021-08-10T10:06:06Z</time>
      </trkpt>
      <trkpt lat="47.52672" lon="6.86078">
        <ele>327.3</ele>
        <time>2021-08-10T10:06:07Z</time>
      </trkpt>
      <trkpt lat="47.52667" lon="6.86081">
        <ele>327.3</ele>
        <time>2021-08-10T10:06:08Z</time>
      </trkpt>
      <trkpt lat="47.5266" lon="6.86087">
        <ele>327.3</ele>
        <time>2021-08-10T10:06:10Z</time>
      </trkpt>
      <trkpt lat="47.52656" lon="6.86089">
        <ele>327.4</ele>
        <time>2021-08-10T10:06:11Z</time>
      </trkpt>
      <trkpt lat="47.52651" lon="6.86093">
        <ele>327.4</ele>
        <time>2021-08-10T10:06:12Z</time>
      </trkpt>
      <trkpt lat="47.52646" lon="6.86097">
        <ele>327.4</ele>
        <time>2021-08-10T10:06:13Z</time>
      </trkpt>
      <trkpt lat="47.5264" lon="6.86102">
        <ele>327.4</ele>
        <time>2021-08-10T10:06:15Z</time>
      </trkpt>
      <trkpt lat="47.52636" lon="6.86105">
        <ele>327.4</ele>
        <time>2021-08-10T10:06:16Z</time>
      </trkpt>
      <trkpt lat="47.5263" lon="6.8611">
        <ele>327.4</ele>
        <time>2021-08-10T10:06:17Z</time>
      </trkpt>
      <trkpt lat="47.52625" lon="6.86114">
        <ele>327.3</ele>
        <time>2021-08-10T10:06:19Z</time>
      </trkpt>
      <trkpt lat="47.5262" lon="6.86118">
        <ele>327.3</ele>
        <time>2021-08-10T10:06:20Z</time>
      </trkpt>
      <trkpt lat="47.52616" lon="6.86121">
        <ele>327.3</ele>
        <time>2021-08-10T10:06:21Z</time>
      </trkpt>
      <trkpt lat="47.52612" lon="6.86125">
        <ele>327.3</ele>
        <time>2021-08-10T10:06:22Z</time>
      </trkpt>
      <trkpt lat="47.52606" lon="6.86129">
        <ele>327.3</ele>
        <time>2021-08-10T10:06:23Z</time>
      </trkpt>
      <trkpt lat="47.526" lon="6.86134">
        <ele>327.3</ele>
        <time>2021-08-10T10:06:25Z</time>
      </trkpt>
      <trkpt lat="47.52596" lon="6.86137">
        <ele>327.3</ele>
        <time>2021-08-10T10:06:26Z</time>
      </trkpt>
      <trkpt lat="47.52592" lon="6.8614">
        <ele>327.3</ele>
        <time>2021-08-10T10:06:27Z</time>
      </trkpt>
      <trkpt lat="47.52588" lon="6.86143">
        <ele>327.3</ele>
        <time>2021-08-10T10:06:28Z</time>
      </trkpt>
      <trkpt lat="47.52581" lon="6.86149">
        <ele>327.3</ele>
        <time>2021-08-10T10:06:30Z</time>
      </trkpt>
      <trkpt lat="47.52576" lon="6.86154">
        <ele>327.3</ele>
        <time>2021-08-10T10:06:31Z</time>
      </trkpt>
      <trkpt lat="47.52569" lon="6.86162">
        <ele>327.3</ele>
        <time>2021-08-10T10:06:33Z</time>
      </trkpt>
      <trkpt lat="47.52566" lon="6.86166">
        <ele>327.3</ele>
        <time>2021-08-10T10:06:34Z</time>
      </trkpt>
      <trkpt lat="47.52561" lon="6.86174">
        <ele>327.3</ele>
        <time>2021-08-10T10:06:36Z</time>
      </trkpt>
      <trkpt lat="47.52556" lon="6.86178">
        <ele>327.3</ele>
        <time>2021-08-10T10:06:37Z</time>
      </trkpt>
      <trkpt lat="47.52553" lon="6.86182">
        <ele>327.3</ele>
        <time>2021-08-10T10:06:38Z</time>
      </trkpt>
      <trkpt lat="47.52546" lon="6.86189">
        <ele>327.3</ele>
        <time>2021-08-10T10:06:40Z</time>
      </trkpt>
      <trkpt lat="47.52539" lon="6.86198">
        <ele>327.4</ele>
        <time>2021-08-10T10:06:42Z</time>
      </trkpt>
      <trkpt lat="47.52536" lon="6.86203">
        <ele>327.4</ele>
        <time>2021-08-10T10:06:43Z</time>
      </trkpt>
      <trkpt lat="47.52529" lon="6.86211">
        <ele>327.4</ele>
        <time>2021-08-10T10:06:45Z</time>
      </trkpt>
      <trkpt lat="47.52526" lon="6.86215">
        <ele>327.4</ele>
        <time>2021-08-10T10:06:46Z</time>
      </trkpt>
      <trkpt lat="47.52522" lon="6.86222">
        <ele>327.4</ele>
        <time>2021-08-10T10:06:47Z</time>
      </trkpt>
      <trkpt lat="47.52518" lon="6.86227">
        <ele>327.4</ele>
        <time>2021-08-10T10:06:49Z</time>
      </trkpt>
      <trkpt lat="47.52515" lon="6.86232">
        <ele>327.4</ele>
        <time>2021-08-10T10:06:50Z</time>
      </trkpt>
      <trkpt lat="47.52512" lon="6.86237">
        <ele>327.4</ele>
        <time>2021-08-10T10:06:51Z</time>
      </trkpt>
      <trkpt lat="47.52509" lon="6.86243">
        <ele>327.4</ele>
        <time>2021-08-10T10:06:53Z</time>
      </trkpt>
      <trkpt lat="47.52507" lon="6.86248">
        <ele>327.4</ele>
        <time>2021-08-10T10:06:54Z</time>
      </trkpt>
      <trkpt lat="47.52504" lon="6.86253">
        <ele>327.5</ele>
        <time>2021-08-10T10:06:55Z</time>
      </trkpt>
      <trkpt lat="47.52502" lon="6.86257">
        <ele>327.5</ele>
        <time>2021-08-10T10:06:56Z</time>
      </trkpt>
      <trkpt lat="47.52499" lon="6.86262">
        <ele>327.5</ele>
        <time>2021-08-10T10:06:57Z</time>
      </trkpt>
      <trkpt lat="47.52497" lon="6.86267">
        <ele>327.5</ele>
        <time>2021-08-10T10:06:59Z</time>
      </trkpt>
      <trkpt lat="47.52494" lon="6.86272">
        <ele>327.5</ele>
        <time>2021-08-10T10:07:00Z</time>
      </trkpt>
      <trkpt lat="47.52492" lon="6.86277">
        <ele>327.5</ele>
        <time>2021-08-10T10:07:01Z</time>
      </trkpt>
      <trkpt lat="47.52488" lon="6.86284">
        <ele>327.5</ele>
        <time>2021-08-10T10:07:03Z</time>
      </trkpt>
      <trkpt lat="47.52486" lon="6.86289">
        <ele>327.5</ele>
        <time>2021-08-10T10:07:04Z</time>
      </trkpt>
      <trkpt lat="47.52483" lon="6.86297">
        <ele>327.5</ele>
        <time>2021-08-10T10:07:06Z</time>
      </trkpt>
      <trkpt lat="47.5248" lon="6.86302">
        <ele>327.5</ele>
        <time>2021-08-10T10:07:07Z</time>
      </trkpt>
      <trkpt lat="47.52478" lon="6.86308">
        <ele>327.5</ele>
        <time>2021-08-10T10:07:08Z</time>
      </trkpt>
      <trkpt lat="47.52475" lon="6.86314">
        <ele>327.5</ele>
        <time>2021-08-10T10:07:10Z</time>
      </trkpt>
      <trkpt lat="47.52473" lon="6.8632">
        <ele>327.5</ele>
        <time>2021-08-10T10:07:11Z</time>
      </trkpt>
      <trkpt lat="47.5247" lon="6.86326">
        <ele>327.5</ele>
        <time>2021-08-10T10:07:12Z</time>
      </trkpt>
      <trkpt lat="47.52467" lon="6.86331">
        <ele>327.5</ele>
        <time>2021-08-10T10:07:13Z</time>
      </trkpt>
      <trkpt lat="47.52464" lon="6.86336">
        <ele>327.5</ele>
        <time>2021-08-10T10:07:14Z</time>
      </trkpt>
      <trkpt lat="47.52462" lon="6.86341">
        <ele>327.5</ele>
        <time>2021-08-10T10:07:15Z</time>
      </trkpt>
      <trkpt lat="47.5246" lon="6.86345">
        <ele>327.5</ele>
        <time>2021-08-10T10:07:16Z</time>
      </trkpt>
      <trkpt lat="47.52456" lon="6.86353">
        <ele>327.5</ele>
        <time>2021-08-10T10:07:18Z</time>
      </trkpt>
      <trkpt lat="47.52453" lon="6.8636">
        <ele>327.5</ele>
        <time>2021-08-10T10:07:19Z</time>
      </trkpt>
      <trkpt lat="47.52449" lon="6.86369">
        <ele>327.5</ele>
        <time>2021-08-10T10:07:21Z</time>
      </trkpt>
      <trkpt lat="47.52448" lon="6.86374">
        <ele>327.5</ele>
        <time>2021-08-10T10:07:22Z</time>
      </trkpt>
      <trkpt lat="47.52444" lon="6.86382">
        <ele>327.5</ele>
        <time>2021-08-10T10:07:24Z</time>
      </trkpt>
      <trkpt lat="47.52442" lon="6.86388">
        <ele>327.5</ele>
        <time>2021-08-10T10:07:25Z</time>
      </trkpt>
      <trkpt lat="47.5244" lon="6.86395">
        <ele>327.5</ele>
        <time>2021-08-10T10:07:26Z</time>
      </trkpt>
      <trkpt lat="47.52438" lon="6.86401">
        <ele>327.5</ele>
        <time>2021-08-10T10:07:28Z</time>
      </trkpt>
      <trkpt lat="47.52436" lon="6.86408">
        <ele>327.5</ele>
        <time>2021-08-10T10:07:29Z</time>
      </trkpt>
      <trkpt lat="47.52434" lon="6.86414">
        <ele>327.5</ele>
        <time>2021-08-10T10:07:30Z</time>
      </trkpt>
      <trkpt lat="47.52432" lon="6.8642">
        <ele>327.6</ele>
        <time>2021-08-10T10:07:31Z</time>
      </trkpt>
      <trkpt lat="47.5243" lon="6.86428">
        <ele>327.6</ele>
        <time>2021-08-10T10:07:33Z</time>
      </trkpt>
      <trkpt lat="47.52427" lon="6.86434">
        <ele>327.6</ele>
        <time>2021-08-10T10:07:34Z</time>
      </trkpt>
      <trkpt lat="47.52424" lon="6.86441">
        <ele>327.6</ele>
        <time>2021-08-10T10:07:35Z</time>
      </trkpt>
      <trkpt lat="47.52423" lon="6.86447">
        <ele>327.6</ele>
        <time>2021-08-10T10:07:37Z</time>
      </trkpt>
      <trkpt lat="47.52421" lon="6.86453">
        <ele>327.6</ele>
        <time>2021-08-10T10:07:38Z</time>
      </trkpt>
      <trkpt lat="47.5242" lon="6.8646">
        <ele>327.6</ele>
        <time>2021-08-10T10:07:39Z</time>
      </trkpt>
      <trkpt lat="47.52419" lon="6.86471">
        <ele>327.6</ele>
        <time>2021-08-10T10:07:41Z</time>
      </trkpt>
      <trkpt lat="47.52418" lon="6.86483">
        <ele>327.6</ele>
        <time>2021-08-10T10:07:43Z</time>
      </trkpt>
      <trkpt lat="47.52416" lon="6.8649">
        <ele>327.6</ele>
        <time>2021-08-10T10:07:44Z</time>
      </trkpt>
      <trkpt lat="47.52415" lon="6.86495">
        <ele>327.6</ele>
        <time>2021-08-10T10:07:45Z</time>
      </trkpt>
      <trkpt lat="47.52413" lon="6.86501">
        <ele>327.6</ele>
        <time>2021-08-10T10:07:46Z</time>
      </trkpt>
      <trkpt lat="47.52411" lon="6.86506">
        <ele>327.6</ele>
        <time>2021-08-10T10:07:47Z</time>
      </trkpt>
      <trkpt lat="47.52408" lon="6.86517">
        <ele>327.6</ele>
        <time>2021-08-10T10:07:49Z</time>
      </trkpt>
      <trkpt lat="47.52406" lon="6.86527">
        <ele>327.6</ele>
        <time>2021-08-10T10:07:51Z</time>
      </trkpt>
      <trkpt lat="47.52406" lon="6.86531">
        <ele>327.6</ele>
        <time>2021-08-10T10:07:52Z</time>
      </trkpt>
      <trkpt lat="47.52406" lon="6.86539">
        <ele>327.6</ele>
        <time>2021-08-10T10:07:54Z</time>
      </trkpt>
      <trkpt lat="47.52406" lon="6.86545">
        <ele>327.7</ele>
        <time>2021-08-10T10:07:56Z</time>
      </trkpt>
      <trkpt lat="47.52407" lon="6.86547">
        <ele>327.7</ele>
        <time>2021-08-10T10:07:57Z</time>
      </trkpt>
      <trkpt lat="47.52408" lon="6.86549">
        <ele>327.7</ele>
        <time>2021-08-10T10:07:58Z</time>
      </trkpt>
      <trkpt lat="47.52408" lon="6.86552">
        <ele>327.7</ele>
        <time>2021-08-10T10:08:00Z</time>
      </trkpt>
      <trkpt lat="47.52408" lon="6.86554">
        <ele>327.7</ele>
        <time>2021-08-10T10:08:01Z</time>
      </trkpt>
      <trkpt lat="47.52408" lon="6.86556">
        <ele>327.7</ele>
        <time>2021-08-10T10:08:02Z</time>
      </trkpt>
      <trkpt lat="47.5241" lon="6.86555">
        <ele>327.7</ele>
        <time>2021-08-10T10:08:04Z</time>
      </trkpt>
      <trkpt lat="47.5241" lon="6.86555">
        <ele>327.7</ele>
        <time>2021-08-10T10:08:06Z</time>
      </trkpt>
      <trkpt lat="47.5241" lon="6.86555">
        <ele>327.7</ele>
        <time>2021-08-10T10:08:07Z</time>
      </trkpt>
      <trkpt lat="47.52411" lon="6.86555">
        <ele>327.7</ele>
        <time>2021-08-10T10:08:08Z</time>
      </trkpt>
      <trkpt lat="47.52411" lon="6.86555">
        <ele>327.7</ele>
        <time>2021-08-10T10:08:10Z</time>
      </trkpt>
      <trkpt lat="47.52411" lon="6.86555">
        <ele>327.7</ele>
        <time>2021-08-10T10:08:11Z</time>
      </trkpt>
      <trkpt lat="47.524" lon="6.86574">
        <ele>327.7</ele>
        <time>2021-08-10T10:08:47Z</time>
      </trkpt>
      <trkpt lat="47.52399" lon="6.86586">
        <ele>327.7</ele>
        <time>2021-08-10T10:08:49Z</time>
      </trkpt>
      <trkpt lat="47.52398" lon="6.86602">
        <ele>327.8</ele>
        <time>2021-08-10T10:08:51Z</time>
      </trkpt>
      <trkpt lat="47.52397" lon="6.86612">
        <ele>327.8</ele>
        <time>2021-08-10T10:08:52Z</time>
      </trkpt>
      <trkpt lat="47.52396" lon="6.86625">
        <ele>327.8</ele>
        <time>2021-08-10T10:08:54Z</time>
      </trkpt>
      <trkpt lat="47.52396" lon="6.86633">
        <ele>327.8</ele>
        <time>2021-08-10T10:08:55Z</time>
      </trkpt>
      <trkpt lat="47.52395" lon="6.86643">
        <ele>327.8</ele>
        <time>2021-08-10T10:08:56Z</time>
      </trkpt>
      <trkpt lat="47.52394" lon="6.86656">
        <ele>327.7</ele>
        <time>2021-08-10T10:08:58Z</time>
      </trkpt>
      <trkpt lat="47.52392" lon="6.86666">
        <ele>327.7</ele>
        <time>2021-08-10T10:08:59Z</time>
      </trkpt>
      <trkpt lat="47.5239" lon="6.86675">
        <ele>327.7</ele>
        <time>2021-08-10T10:09:00Z</time>
      </trkpt>
      <trkpt lat="47.52389" lon="6.86683">
        <ele>327.6</ele>
        <time>2021-08-10T10:09:01Z</time>
      </trkpt>
      <trkpt lat="47.52388" lon="6.86694">
        <ele>327.6</ele>
        <time>2021-08-10T10:09:03Z</time>
      </trkpt>
      <trkpt lat="47.52387" lon="6.86704">
        <ele>327.5</ele>
        <time>2021-08-10T10:09:04Z</time>
      </trkpt>
      <trkpt lat="47.52386" lon="6.86712">
        <ele>327.5</ele>
        <time>2021-08-10T10:09:05Z</time>
      </trkpt>
      <trkpt lat="47.52386" lon="6.8672">
        <ele>327.5</ele>
        <time>2021-08-10T10:09:07Z</time>
      </trkpt>
      <trkpt lat="47.52386" lon="6.86729">
        <ele>327.5</ele>
        <time>2021-08-10T10:09:08Z</time>
      </trkpt>
      <trkpt lat="47.52386" lon="6.86736">
        <ele>327.5</ele>
        <time>2021-08-10T10:09:09Z</time>
      </trkpt>
      <trkpt lat="47.52386" lon="6.86742">
        <ele>327.5</ele>
        <time>2021-08-10T10:09:10Z</time>
      </trkpt>
      <trkpt lat="47.52386" lon="6.86749">
        <ele>327.5</ele>
        <time>2021-08-10T10:09:11Z</time>
      </trkpt>
      <trkpt lat="47.52386" lon="6.8676">
        <ele>327.5</ele>
        <time>2021-08-10T10:09:13Z</time>
      </trkpt>
      <trkpt lat="47.52386" lon="6.86768">
        <ele>327.5</ele>
        <time>2021-08-10T10:09:14Z</time>
      </trkpt>
      <trkpt lat="47.52385" lon="6.86786">
        <ele>327.5</ele>
        <time>2021-08-10T10:09:17Z</time>
      </trkpt>
      <trkpt lat="47.52384" lon="6.86794">
        <ele>327.5</ele>
        <time>2021-08-10T10:09:18Z</time>
      </trkpt>
      <trkpt lat="47.52383" lon="6.86802">
        <ele>327.5</ele>
        <time>2021-08-10T10:09:19Z</time>
      </trkpt>
      <trkpt lat="47.52383" lon="6.86808">
        <ele>327.5</ele>
        <time>2021-08-10T10:09:20Z</time>
      </trkpt>
      <trkpt lat="47.52382" lon="6.86816">
        <ele>327.6</ele>
        <time>2021-08-10T10:09:21Z</time>
      </trkpt>
      <trkpt lat="47.52382" lon="6.86823">
        <ele>327.6</ele>
        <time>2021-08-10T10:09:22Z</time>
      </trkpt>
      <trkpt lat="47.52382" lon="6.86829">
        <ele>327.6</ele>
        <time>2021-08-10T10:09:24Z</time>
      </trkpt>
      <trkpt lat="47.52381" lon="6.86836">
        <ele>327.6</ele>
        <time>2021-08-10T10:09:25Z</time>
      </trkpt>
      <trkpt lat="47.52381" lon="6.86843">
        <ele>327.7</ele>
        <time>2021-08-10T10:09:26Z</time>
      </trkpt>
      <trkpt lat="47.5238" lon="6.86851">
        <ele>327.7</ele>
        <time>2021-08-10T10:09:27Z</time>
      </trkpt>
      <trkpt lat="47.5238" lon="6.86858">
        <ele>327.7</ele>
        <time>2021-08-10T10:09:29Z</time>
      </trkpt>
      <trkpt lat="47.5238" lon="6.86865">
        <ele>327.7</ele>
        <time>2021-08-10T10:09:30Z</time>
      </trkpt>
      <trkpt lat="47.5238" lon="6.86873">
        <ele>327.7</ele>
        <time>2021-08-10T10:09:31Z</time>
      </trkpt>
      <trkpt lat="47.5238" lon="6.8688">
        <ele>327.7</ele>
        <time>2021-08-10T10:09:32Z</time>
      </trkpt>
      <trkpt lat="47.5238" lon="6.86886">
        <ele>327.7</ele>
        <time>2021-08-10T10:09:33Z</time>
      </trkpt>
      <trkpt lat="47.5238" lon="6.86893">
        <ele>327.7</ele>
        <time>2021-08-10T10:09:35Z</time>
      </trkpt>
      <trkpt lat="47.52379" lon="6.86899">
        <ele>327.7</ele>
        <time>2021-08-10T10:09:36Z</time>
      </trkpt>
      <trkpt lat="47.52379" lon="6.86905">
        <ele>327.7</ele>
        <time>2021-08-10T10:09:37Z</time>
      </trkpt>
      <trkpt lat="47.52378" lon="6.86913">
        <ele>327.7</ele>
        <time>2021-08-10T10:09:38Z</time>
      </trkpt>
      <trkpt lat="47.52376" lon="6.86922">
        <ele>327.7</ele>
        <time>2021-08-10T10:09:40Z</time>
      </trkpt>
      <trkpt lat="47.52374" lon="6.86933">
        <ele>327.7</ele>
        <time>2021-08-10T10:09:42Z</time>
      </trkpt>
      <trkpt lat="47.52373" lon="6.86942">
        <ele>327.7</ele>
        <time>2021-08-10T10:09:43Z</time>
      </trkpt>
      <trkpt lat="47.52372" lon="6.86949">
        <ele>327.7</ele>
        <time>2021-08-10T10:09:45Z</time>
      </trkpt>
      <trkpt lat="47.52371" lon="6.86957">
        <ele>327.7</ele>
        <time>2021-08-10T10:09:46Z</time>
      </trkpt>
      <trkpt lat="47.52369" lon="6.86965">
        <ele>327.7</ele>
        <time>2021-08-10T10:09:47Z</time>
      </trkpt>
      <trkpt lat="47.52369" lon="6.86974">
        <ele>327.7</ele>
        <time>2021-08-10T10:09:49Z</time>
      </trkpt>
      <trkpt lat="47.52368" lon="6.8698">
        <ele>327.7</ele>
        <time>2021-08-10T10:09:50Z</time>
      </trkpt>
      <trkpt lat="47.52367" lon="6.86988">
        <ele>327.7</ele>
        <time>2021-08-10T10:09:51Z</time>
      </trkpt>
      <trkpt lat="47.52367" lon="6.86994">
        <ele>327.7</ele>
        <time>2021-08-10T10:09:53Z</time>
      </trkpt>
      <trkpt lat="47.52366" lon="6.87001">
        <ele>327.7</ele>
        <time>2021-08-10T10:09:54Z</time>
      </trkpt>
      <trkpt lat="47.52365" lon="6.87007">
        <ele>327.7</ele>
        <time>2021-08-10T10:09:55Z</time>
      </trkpt>
      <trkpt lat="47.52363" lon="6.87015">
        <ele>327.7</ele>
        <time>2021-08-10T10:09:57Z</time>
      </trkpt>
      <trkpt lat="47.52361" lon="6.87022">
        <ele>327.7</ele>
        <time>2021-08-10T10:09:58Z</time>
      </trkpt>
      <trkpt lat="47.52359" lon="6.87029">
        <ele>327.7</ele>
        <time>2021-08-10T10:09:59Z</time>
      </trkpt>
      <trkpt lat="47.52357" lon="6.87036">
        <ele>327.7</ele>
        <time>2021-08-10T10:10:00Z</time>
      </trkpt>
      <trkpt lat="47.52355" lon="6.87044">
        <ele>327.7</ele>
        <time>2021-08-10T10:10:02Z</time>
      </trkpt>
      <trkpt lat="47.52353" lon="6.8705">
        <ele>327.7</ele>
        <time>2021-08-10T10:10:03Z</time>
      </trkpt>
      <trkpt lat="47.52351" lon="6.87056">
        <ele>327.7</ele>
        <time>2021-08-10T10:10:04Z</time>
      </trkpt>
      <trkpt lat="47.5235" lon="6.87062">
        <ele>327.7</ele>
        <time>2021-08-10T10:10:05Z</time>
      </trkpt>
      <trkpt lat="47.52348" lon="6.87071">
        <ele>327.7</ele>
        <time>2021-08-10T10:10:06Z</time>
      </trkpt>
      <trkpt lat="47.52347" lon="6.87078">
        <ele>327.7</ele>
        <time>2021-08-10T10:10:08Z</time>
      </trkpt>
      <trkpt lat="47.52346" lon="6.87085">
        <ele>327.7</ele>
        <time>2021-08-10T10:10:09Z</time>
      </trkpt>
      <trkpt lat="47.52345" lon="6.87092">
        <ele>327.7</ele>
        <time>2021-08-10T10:10:10Z</time>
      </trkpt>
      <trkpt lat="47.52344" lon="6.87099">
        <ele>327.7</ele>
        <time>2021-08-10T10:10:11Z</time>
      </trkpt>
      <trkpt lat="47.52342" lon="6.87108">
        <ele>327.6</ele>
        <time>2021-08-10T10:10:12Z</time>
      </trkpt>
      <trkpt lat="47.52341" lon="6.87115">
        <ele>327.6</ele>
        <time>2021-08-10T10:10:14Z</time>
      </trkpt>
      <trkpt lat="47.52339" lon="6.87124">
        <ele>327.6</ele>
        <time>2021-08-10T10:10:15Z</time>
      </trkpt>
      <trkpt lat="47.52338" lon="6.87136">
        <ele>327.6</ele>
        <time>2021-08-10T10:10:17Z</time>
      </trkpt>
      <trkpt lat="47.52337" lon="6.87142">
        <ele>327.6</ele>
        <time>2021-08-10T10:10:18Z</time>
      </trkpt>
      <trkpt lat="47.52335" lon="6.8715">
        <ele>327.6</ele>
        <time>2021-08-10T10:10:19Z</time>
      </trkpt>
      <trkpt lat="47.52334" lon="6.87157">
        <ele>327.6</ele>
        <time>2021-08-10T10:10:20Z</time>
      </trkpt>
      <trkpt lat="47.52333" lon="6.87164">
        <ele>327.6</ele>
        <time>2021-08-10T10:10:22Z</time>
      </trkpt>
      <trkpt lat="47.52332" lon="6.87171">
        <ele>327.6</ele>
        <time>2021-08-10T10:10:23Z</time>
      </trkpt>
      <trkpt lat="47.52331" lon="6.87178">
        <ele>327.6</ele>
        <time>2021-08-10T10:10:24Z</time>
      </trkpt>
      <trkpt lat="47.52331" lon="6.87184">
        <ele>327.6</ele>
        <time>2021-08-10T10:10:25Z</time>
      </trkpt>
      <trkpt lat="47.5233" lon="6.8719">
        <ele>327.6</ele>
        <time>2021-08-10T10:10:26Z</time>
      </trkpt>
      <trkpt lat="47.52329" lon="6.87199">
        <ele>327.6</ele>
        <time>2021-08-10T10:10:27Z</time>
      </trkpt>
      <trkpt lat="47.52328" lon="6.87206">
        <ele>327.7</ele>
        <time>2021-08-10T10:10:29Z</time>
      </trkpt>
      <trkpt lat="47.52327" lon="6.87213">
        <ele>327.7</ele>
        <time>2021-08-10T10:10:30Z</time>
      </trkpt>
      <trkpt lat="47.52326" lon="6.87221">
        <ele>327.6</ele>
        <time>2021-08-10T10:10:31Z</time>
      </trkpt>
      <trkpt lat="47.52324" lon="6.87234">
        <ele>327.6</ele>
        <time>2021-08-10T10:10:33Z</time>
      </trkpt>
      <trkpt lat="47.52322" lon="6.8724">
        <ele>327.6</ele>
        <time>2021-08-10T10:10:34Z</time>
      </trkpt>
      <trkpt lat="47.52321" lon="6.87249">
        <ele>327.6</ele>
        <time>2021-08-10T10:10:35Z</time>
      </trkpt>
      <trkpt lat="47.52319" lon="6.87257">
        <ele>327.6</ele>
        <time>2021-08-10T10:10:37Z</time>
      </trkpt>
      <trkpt lat="47.52318" lon="6.87265">
        <ele>327.6</ele>
        <time>2021-08-10T10:10:38Z</time>
      </trkpt>
      <trkpt lat="47.52317" lon="6.87274">
        <ele>327.6</ele>
        <time>2021-08-10T10:10:39Z</time>
      </trkpt>
      <trkpt lat="47.52315" lon="6.87281">
        <ele>327.6</ele>
        <time>2021-08-10T10:10:40Z</time>
      </trkpt>
      <trkpt lat="47.52314" lon="6.87288">
        <ele>327.6</ele>
        <time>2021-08-10T10:10:41Z</time>
      </trkpt>
      <trkpt lat="47.52312" lon="6.87299">
        <ele>327.6</ele>
        <time>2021-08-10T10:10:43Z</time>
      </trkpt>
      <trkpt lat="47.52311" lon="6.87308">
        <ele>327.6</ele>
        <time>2021-08-10T10:10:44Z</time>
      </trkpt>
      <trkpt lat="47.5231" lon="6.87317">
        <ele>327.6</ele>
        <time>2021-08-10T10:10:45Z</time>
      </trkpt>
      <trkpt lat="47.52309" lon="6.87325">
        <ele>327.6</ele>
        <time>2021-08-10T10:10:47Z</time>
      </trkpt>
      <trkpt lat="47.52308" lon="6.87333">
        <ele>327.6</ele>
        <time>2021-08-10T10:10:48Z</time>
      </trkpt>
      <trkpt lat="47.52307" lon="6.8734">
        <ele>327.5</ele>
        <time>2021-08-10T10:10:49Z</time>
      </trkpt>
      <trkpt lat="47.52305" lon="6.87349">
        <ele>327.5</ele>
        <time>2021-08-10T10:10:50Z</time>
      </trkpt>
      <trkpt lat="47.52304" lon="6.87357">
        <ele>327.5</ele>
        <time>2021-08-10T10:10:52Z</time>
      </trkpt>
      <trkpt lat="47.52303" lon="6.87364">
        <ele>327.5</ele>
        <time>2021-08-10T10:10:53Z</time>
      </trkpt>
      <trkpt lat="47.52302" lon="6.87373">
        <ele>327.5</ele>
        <time>2021-08-10T10:10:54Z</time>
      </trkpt>
      <trkpt lat="47.52301" lon="6.8738">
        <ele>327.6</ele>
        <time>2021-08-10T10:10:55Z</time>
      </trkpt>
      <trkpt lat="47.52299" lon="6.87394">
        <ele>327.6</ele>
        <time>2021-08-10T10:10:57Z</time>
      </trkpt>
      <trkpt lat="47.52298" lon="6.87401">
        <ele>327.6</ele>
        <time>2021-08-10T10:10:58Z</time>
      </trkpt>
      <trkpt lat="47.52296" lon="6.87413">
        <ele>327.6</ele>
        <time>2021-08-10T10:11:00Z</time>
      </trkpt>
      <trkpt lat="47.52295" lon="6.8742">
        <ele>327.6</ele>
        <time>2021-08-10T10:11:01Z</time>
      </trkpt>
      <trkpt lat="47.52295" lon="6.87428">
        <ele>327.6</ele>
        <time>2021-08-10T10:11:02Z</time>
      </trkpt>
      <trkpt lat="47.52294" lon="6.87435">
        <ele>327.6</ele>
        <time>2021-08-10T10:11:03Z</time>
      </trkpt>
      <trkpt lat="47.52294" lon="6.87442">
        <ele>327.6</ele>
        <time>2021-08-10T10:11:04Z</time>
      </trkpt>
      <trkpt lat="47.52294" lon="6.87448">
        <ele>327.6</ele>
        <time>2021-08-10T10:11:05Z</time>
      </trkpt>
      <trkpt lat="47.52294" lon="6.87459">
        <ele>327.6</ele>
        <time>2021-08-10T10:11:07Z</time>
      </trkpt>
      <trkpt lat="47.52294" lon="6.87466">
        <ele>327.6</ele>
        <time>2021-08-10T10:11:08Z</time>
      </trkpt>
      <trkpt lat="47.52294" lon="6.87475">
        <ele>327.7</ele>
        <time>2021-08-10T10:11:09Z</time>
      </trkpt>
      <trkpt lat="47.52294" lon="6.87482">
        <ele>327.7</ele>
        <time>2021-08-10T10:11:10Z</time>
      </trkpt>
      <trkpt lat="47.52294" lon="6.87489">
        <ele>327.8</ele>
        <time>2021-08-10T10:11:11Z</time>
      </trkpt>
      <trkpt lat="47.52294" lon="6.87499">
        <ele>327.8</ele>
        <time>2021-08-10T10:11:13Z</time>
      </trkpt>
      <trkpt lat="47.52294" lon="6.87507">
        <ele>327.9</ele>
        <time>2021-08-10T10:11:14Z</time>
      </trkpt>
      <trkpt lat="47.52295" lon="6.87514">
        <ele>327.9</ele>
        <time>2021-08-10T10:11:15Z</time>
      </trkpt>
      <trkpt lat="47.52296" lon="6.87522">
        <ele>327.9</ele>
        <time>2021-08-10T10:11:16Z</time>
      </trkpt>
      <trkpt lat="47.52297" lon="6.87529">
        <ele>327.9</ele>
        <time>2021-08-10T10:11:17Z</time>
      </trkpt>
      <trkpt lat="47.52298" lon="6.87536">
        <ele>327.9</ele>
        <time>2021-08-10T10:11:18Z</time>
      </trkpt>
      <trkpt lat="47.523" lon="6.8755">
        <ele>327.9</ele>
        <time>2021-08-10T10:11:20Z</time>
      </trkpt>
      <trkpt lat="47.52301" lon="6.87561">
        <ele>327.9</ele>
        <time>2021-08-10T10:11:22Z</time>
      </trkpt>
      <trkpt lat="47.52303" lon="6.87569">
        <ele>327.9</ele>
        <time>2021-08-10T10:11:23Z</time>
      </trkpt>
      <trkpt lat="47.52305" lon="6.87579">
        <ele>327.9</ele>
        <time>2021-08-10T10:11:25Z</time>
      </trkpt>
      <trkpt lat="47.52307" lon="6.87586">
        <ele>328</ele>
        <time>2021-08-10T10:11:26Z</time>
      </trkpt>
      <trkpt lat="47.52309" lon="6.87593">
        <ele>328</ele>
        <time>2021-08-10T10:11:27Z</time>
      </trkpt>
      <trkpt lat="47.5231" lon="6.87601">
        <ele>328</ele>
        <time>2021-08-10T10:11:28Z</time>
      </trkpt>
      <trkpt lat="47.52312" lon="6.87607">
        <ele>328</ele>
        <time>2021-08-10T10:11:29Z</time>
      </trkpt>
      <trkpt lat="47.52314" lon="6.87616">
        <ele>328</ele>
        <time>2021-08-10T10:11:31Z</time>
      </trkpt>
      <trkpt lat="47.52316" lon="6.87623">
        <ele>328</ele>
        <time>2021-08-10T10:11:32Z</time>
      </trkpt>
      <trkpt lat="47.52318" lon="6.8763">
        <ele>328</ele>
        <time>2021-08-10T10:11:33Z</time>
      </trkpt>
      <trkpt lat="47.5232" lon="6.87636">
        <ele>328</ele>
        <time>2021-08-10T10:11:34Z</time>
      </trkpt>
      <trkpt lat="47.52322" lon="6.87642">
        <ele>328</ele>
        <time>2021-08-10T10:11:35Z</time>
      </trkpt>
      <trkpt lat="47.52325" lon="6.8765">
        <ele>328</ele>
        <time>2021-08-10T10:11:37Z</time>
      </trkpt>
      <trkpt lat="47.52327" lon="6.87658">
        <ele>328</ele>
        <time>2021-08-10T10:11:38Z</time>
      </trkpt>
      <trkpt lat="47.52329" lon="6.87664">
        <ele>327.9</ele>
        <time>2021-08-10T10:11:39Z</time>
      </trkpt>
      <trkpt lat="47.52331" lon="6.87671">
        <ele>327.9</ele>
        <time>2021-08-10T10:11:40Z</time>
      </trkpt>
      <trkpt lat="47.52332" lon="6.87677">
        <ele>327.9</ele>
        <time>2021-08-10T10:11:41Z</time>
      </trkpt>
      <trkpt lat="47.52333" lon="6.87686">
        <ele>327.9</ele>
        <time>2021-08-10T10:11:42Z</time>
      </trkpt>
      <trkpt lat="47.52334" lon="6.87693">
        <ele>327.9</ele>
        <time>2021-08-10T10:11:44Z</time>
      </trkpt>
      <trkpt lat="47.52335" lon="6.87698">
        <ele>327.9</ele>
        <time>2021-08-10T10:11:45Z</time>
      </trkpt>
      <trkpt lat="47.52336" lon="6.87705">
        <ele>327.9</ele>
        <time>2021-08-10T10:11:46Z</time>
      </trkpt>
      <trkpt lat="47.52337" lon="6.87711">
        <ele>327.9</ele>
        <time>2021-08-10T10:11:47Z</time>
      </trkpt>
      <trkpt lat="47.5234" lon="6.87718">
        <ele>327.9</ele>
        <time>2021-08-10T10:11:48Z</time>
      </trkpt>
      <trkpt lat="47.52342" lon="6.87724">
        <ele>327.9</ele>
        <time>2021-08-10T10:11:49Z</time>
      </trkpt>
      <trkpt lat="47.52344" lon="6.8773">
        <ele>327.9</ele>
        <time>2021-08-10T10:11:51Z</time>
      </trkpt>
      <trkpt lat="47.52346" lon="6.87736">
        <ele>327.9</ele>
        <time>2021-08-10T10:11:52Z</time>
      </trkpt>
      <trkpt lat="47.52348" lon="6.87742">
        <ele>327.9</ele>
        <time>2021-08-10T10:11:53Z</time>
      </trkpt>
      <trkpt lat="47.52352" lon="6.87752">
        <ele>328</ele>
        <time>2021-08-10T10:11:55Z</time>
      </trkpt>
      <trkpt lat="47.52354" lon="6.87758">
        <ele>328</ele>
        <time>2021-08-10T10:11:56Z</time>
      </trkpt>
      <trkpt lat="47.52356" lon="6.87763">
        <ele>328</ele>
        <time>2021-08-10T10:11:57Z</time>
      </trkpt>
      <trkpt lat="47.52358" lon="6.87769">
        <ele>328</ele>
        <time>2021-08-10T10:11:58Z</time>
      </trkpt>
      <trkpt lat="47.5236" lon="6.87775">
        <ele>328</ele>
        <time>2021-08-10T10:11:59Z</time>
      </trkpt>
      <trkpt lat="47.52364" lon="6.87787">
        <ele>328</ele>
        <time>2021-08-10T10:12:01Z</time>
      </trkpt>
      <trkpt lat="47.52367" lon="6.87792">
        <ele>328</ele>
        <time>2021-08-10T10:12:02Z</time>
      </trkpt>
      <trkpt lat="47.52371" lon="6.878">
        <ele>328</ele>
        <time>2021-08-10T10:12:04Z</time>
      </trkpt>
      <trkpt lat="47.52375" lon="6.87808">
        <ele>328</ele>
        <time>2021-08-10T10:12:05Z</time>
      </trkpt>
      <trkpt lat="47.5238" lon="6.87818">
        <ele>328</ele>
        <time>2021-08-10T10:12:07Z</time>
      </trkpt>
      <trkpt lat="47.52383" lon="6.87827">
        <ele>328</ele>
        <time>2021-08-10T10:12:08Z</time>
      </trkpt>
      <trkpt lat="47.52386" lon="6.87834">
        <ele>328</ele>
        <time>2021-08-10T10:12:10Z</time>
      </trkpt>
      <trkpt lat="47.52389" lon="6.87841">
        <ele>328</ele>
        <time>2021-08-10T10:12:11Z</time>
      </trkpt>
      <trkpt lat="47.52392" lon="6.87849">
        <ele>328</ele>
        <time>2021-08-10T10:12:12Z</time>
      </trkpt>
      <trkpt lat="47.52393" lon="6.87856">
        <ele>328.1</ele>
        <time>2021-08-10T10:12:13Z</time>
      </trkpt>
      <trkpt lat="47.52394" lon="6.87866">
        <ele>328.1</ele>
        <time>2021-08-10T10:12:15Z</time>
      </trkpt>
      <trkpt lat="47.52394" lon="6.87872">
        <ele>328.1</ele>
        <time>2021-08-10T10:12:16Z</time>
      </trkpt>
      <trkpt lat="47.52393" lon="6.87879">
        <ele>328.1</ele>
        <time>2021-08-10T10:12:17Z</time>
      </trkpt>
      <trkpt lat="47.5239" lon="6.87886">
        <ele>328.1</ele>
        <time>2021-08-10T10:12:18Z</time>
      </trkpt>
      <trkpt lat="47.52389" lon="6.87892">
        <ele>328.1</ele>
        <time>2021-08-10T10:12:19Z</time>
      </trkpt>
      <trkpt lat="47.52384" lon="6.87904">
        <ele>328.1</ele>
        <time>2021-08-10T10:12:21Z</time>
      </trkpt>
      <trkpt lat="47.5238" lon="6.87916">
        <ele>328.1</ele>
        <time>2021-08-10T10:12:23Z</time>
      </trkpt>
      <trkpt lat="47.52378" lon="6.87922">
        <ele>328</ele>
        <time>2021-08-10T10:12:24Z</time>
      </trkpt>
      <trkpt lat="47.52375" lon="6.87928">
        <ele>328</ele>
        <time>2021-08-10T10:12:25Z</time>
      </trkpt>
      <trkpt lat="47.52369" lon="6.87942">
        <ele>328</ele>
        <time>2021-08-10T10:12:27Z</time>
      </trkpt>
      <trkpt lat="47.52366" lon="6.87949">
        <ele>328</ele>
        <time>2021-08-10T10:12:28Z</time>
      </trkpt>
      <trkpt lat="47.52363" lon="6.87955">
        <ele>328</ele>
        <time>2021-08-10T10:12:29Z</time>
      </trkpt>
      <trkpt lat="47.5236" lon="6.87962">
        <ele>328</ele>
        <time>2021-08-10T10:12:30Z</time>
      </trkpt>
      <trkpt lat="47.52354" lon="6.87972">
        <ele>327.9</ele>
        <time>2021-08-10T10:12:32Z</time>
      </trkpt>
      <trkpt lat="47.52351" lon="6.87979">
        <ele>327.9</ele>
        <time>2021-08-10T10:12:33Z</time>
      </trkpt>
      <trkpt lat="47.52347" lon="6.87986">
        <ele>327.9</ele>
        <time>2021-08-10T10:12:34Z</time>
      </trkpt>
      <trkpt lat="47.52342" lon="6.87993">
        <ele>327.9</ele>
        <time>2021-08-10T10:12:35Z</time>
      </trkpt>
      <trkpt lat="47.52337" lon="6.88005">
        <ele>327.9</ele>
        <time>2021-08-10T10:12:37Z</time>
      </trkpt>
      <trkpt lat="47.52334" lon="6.88011">
        <ele>327.9</ele>
        <time>2021-08-10T10:12:38Z</time>
      </trkpt>
      <trkpt lat="47.52329" lon="6.8802">
        <ele>328</ele>
        <time>2021-08-10T10:12:40Z</time>
      </trkpt>
      <trkpt lat="47.52326" lon="6.88027">
        <ele>328</ele>
        <time>2021-08-10T10:12:41Z</time>
      </trkpt>
      <trkpt lat="47.52322" lon="6.88033">
        <ele>328</ele>
        <time>2021-08-10T10:12:42Z</time>
      </trkpt>
      <trkpt lat="47.52318" lon="6.88038">
        <ele>328</ele>
        <time>2021-08-10T10:12:44Z</time>
      </trkpt>
      <trkpt lat="47.52315" lon="6.88042">
        <ele>328</ele>
        <time>2021-08-10T10:12:45Z</time>
      </trkpt>
      <trkpt lat="47.52312" lon="6.88046">
        <ele>328</ele>
        <time>2021-08-10T10:12:46Z</time>
      </trkpt>
      <trkpt lat="47.52308" lon="6.8805">
        <ele>328</ele>
        <time>2021-08-10T10:12:47Z</time>
      </trkpt>
      <trkpt lat="47.52305" lon="6.88053">
        <ele>328</ele>
        <time>2021-08-10T10:12:49Z</time>
      </trkpt>
      <trkpt lat="47.52301" lon="6.88057">
        <ele>328</ele>
        <time>2021-08-10T10:12:50Z</time>
      </trkpt>
      <trkpt lat="47.52298" lon="6.88061">
        <ele>328</ele>
        <time>2021-08-10T10:12:51Z</time>
      </trkpt>
      <trkpt lat="47.52296" lon="6.88065">
        <ele>328</ele>
        <time>2021-08-10T10:12:52Z</time>
      </trkpt>
      <trkpt lat="47.52293" lon="6.88068">
        <ele>328</ele>
        <time>2021-08-10T10:12:53Z</time>
      </trkpt>
      <trkpt lat="47.52289" lon="6.88072">
        <ele>328</ele>
        <time>2021-08-10T10:12:54Z</time>
      </trkpt>
      <trkpt lat="47.52284" lon="6.88077">
        <ele>328</ele>
        <time>2021-08-10T10:12:56Z</time>
      </trkpt>
      <trkpt lat="47.5228" lon="6.8808">
        <ele>328</ele>
        <time>2021-08-10T10:12:57Z</time>
      </trkpt>
      <trkpt lat="47.52276" lon="6.88083">
        <ele>328</ele>
        <time>2021-08-10T10:12:59Z</time>
      </trkpt>
      <trkpt lat="47.52272" lon="6.88086">
        <ele>328</ele>
        <time>2021-08-10T10:13:00Z</time>
      </trkpt>
      <trkpt lat="47.52269" lon="6.88089">
        <ele>328</ele>
        <time>2021-08-10T10:13:01Z</time>
      </trkpt>
      <trkpt lat="47.52263" lon="6.88094">
        <ele>328</ele>
        <time>2021-08-10T10:13:03Z</time>
      </trkpt>
      <trkpt lat="47.52257" lon="6.88099">
        <ele>328</ele>
        <time>2021-08-10T10:13:05Z</time>
      </trkpt>
      <trkpt lat="47.52254" lon="6.88101">
        <ele>328.1</ele>
        <time>2021-08-10T10:13:06Z</time>
      </trkpt>
      <trkpt lat="47.52251" lon="6.88103">
        <ele>328.1</ele>
        <time>2021-08-10T10:13:07Z</time>
      </trkpt>
      <trkpt lat="47.52247" lon="6.88109">
        <ele>328.2</ele>
        <time>2021-08-10T10:13:09Z</time>
      </trkpt>
      <trkpt lat="47.52245" lon="6.88114">
        <ele>328.2</ele>
        <time>2021-08-10T10:13:10Z</time>
      </trkpt>
      <trkpt lat="47.52244" lon="6.88119">
        <ele>328.3</ele>
        <time>2021-08-10T10:13:12Z</time>
      </trkpt>
      <trkpt lat="47.52244" lon="6.88123">
        <ele>328.3</ele>
        <time>2021-08-10T10:13:13Z</time>
      </trkpt>
      <trkpt lat="47.52245" lon="6.88127">
        <ele>328.3</ele>
        <time>2021-08-10T10:13:14Z</time>
      </trkpt>
      <trkpt lat="47.52247" lon="6.88129">
        <ele>328.4</ele>
        <time>2021-08-10T10:13:16Z</time>
      </trkpt>
      <trkpt lat="47.52249" lon="6.88133">
        <ele>328.4</ele>
        <time>2021-08-10T10:13:17Z</time>
      </trkpt>
      <trkpt lat="47.5225" lon="6.88134">
        <ele>328.4</ele>
        <time>2021-08-10T10:13:18Z</time>
      </trkpt>
      <trkpt lat="47.52252" lon="6.88137">
        <ele>328.4</ele>
        <time>2021-08-10T10:13:19Z</time>
      </trkpt>
      <trkpt lat="47.52254" lon="6.88143">
        <ele>328.4</ele>
        <time>2021-08-10T10:13:21Z</time>
      </trkpt>
      <trkpt lat="47.52254" lon="6.88148">
        <ele>328.1</ele>
        <time>2021-08-10T10:13:22Z</time>
      </trkpt>
      <trkpt lat="47.52253" lon="6.88155">
        <ele>327.8</ele>
        <time>2021-08-10T10:13:23Z</time>
      </trkpt>
      <trkpt lat="47.52252" lon="6.88158">
        <ele>327.7</ele>
        <time>2021-08-10T10:13:24Z</time>
      </trkpt>
      <trkpt lat="47.5225" lon="6.88165">
        <ele>327.5</ele>
        <time>2021-08-10T10:13:26Z</time>
      </trkpt>
      <trkpt lat="47.52246" lon="6.88173">
        <ele>327.2</ele>
        <time>2021-08-10T10:13:27Z</time>
      </trkpt>
      <trkpt lat="47.52243" lon="6.88179">
        <ele>326.9</ele>
        <time>2021-08-10T10:13:29Z</time>
      </trkpt>
      <trkpt lat="47.52239" lon="6.88184">
        <ele>326.7</ele>
        <time>2021-08-10T10:13:30Z</time>
      </trkpt>
      <trkpt lat="47.52235" lon="6.88191">
        <ele>326.5</ele>
        <time>2021-08-10T10:13:31Z</time>
      </trkpt>
      <trkpt lat="47.52227" lon="6.88201">
        <ele>326.3</ele>
        <time>2021-08-10T10:13:33Z</time>
      </trkpt>
      <trkpt lat="47.52218" lon="6.88212">
        <ele>326.2</ele>
        <time>2021-08-10T10:13:34Z</time>
      </trkpt>
      <trkpt lat="47.52212" lon="6.88218">
        <ele>326.1</ele>
        <time>2021-08-10T10:13:35Z</time>
      </trkpt>
      <trkpt lat="47.52208" lon="6.88223">
        <ele>326.1</ele>
        <time>2021-08-10T10:13:36Z</time>
      </trkpt>
      <trkpt lat="47.52199" lon="6.88233">
        <ele>326.1</ele>
        <time>2021-08-10T10:13:38Z</time>
      </trkpt>
      <trkpt lat="47.52191" lon="6.88243">
        <ele>326.1</ele>
        <time>2021-08-10T10:13:40Z</time>
      </trkpt>
      <trkpt lat="47.52187" lon="6.88247">
        <ele>326.1</ele>
        <time>2021-08-10T10:13:41Z</time>
      </trkpt>
      <trkpt lat="47.52179" lon="6.88256">
        <ele>326.1</ele>
        <time>2021-08-10T10:13:43Z</time>
      </trkpt>
      <trkpt lat="47.52171" lon="6.88264">
        <ele>326.2</ele>
        <time>2021-08-10T10:13:45Z</time>
      </trkpt>
      <trkpt lat="47.52166" lon="6.88269">
        <ele>326.2</ele>
        <time>2021-08-10T10:13:46Z</time>
      </trkpt>
      <trkpt lat="47.52162" lon="6.88273">
        <ele>326.3</ele>
        <time>2021-08-10T10:13:47Z</time>
      </trkpt>
      <trkpt lat="47.52154" lon="6.88281">
        <ele>326.4</ele>
        <time>2021-08-10T10:13:49Z</time>
      </trkpt>
      <trkpt lat="47.5215" lon="6.88285">
        <ele>326.4</ele>
        <time>2021-08-10T10:13:50Z</time>
      </trkpt>
      <trkpt lat="47.52142" lon="6.88293">
        <ele>326.6</ele>
        <time>2021-08-10T10:13:52Z</time>
      </trkpt>
      <trkpt lat="47.52138" lon="6.88297">
        <ele>326.7</ele>
        <time>2021-08-10T10:13:53Z</time>
      </trkpt>
      <trkpt lat="47.52134" lon="6.88302">
        <ele>326.8</ele>
        <time>2021-08-10T10:13:54Z</time>
      </trkpt>
      <trkpt lat="47.52131" lon="6.88306">
        <ele>326.9</ele>
        <time>2021-08-10T10:13:55Z</time>
      </trkpt>
      <trkpt lat="47.52124" lon="6.88315">
        <ele>327.1</ele>
        <time>2021-08-10T10:13:57Z</time>
      </trkpt>
      <trkpt lat="47.5212" lon="6.88318">
        <ele>327.2</ele>
        <time>2021-08-10T10:13:58Z</time>
      </trkpt>
      <trkpt lat="47.52118" lon="6.88321">
        <ele>327.2</ele>
        <time>2021-08-10T10:13:59Z</time>
      </trkpt>
      <trkpt lat="47.52111" lon="6.88328">
        <ele>327.4</ele>
        <time>2021-08-10T10:14:01Z</time>
      </trkpt>
      <trkpt lat="47.52108" lon="6.88331">
        <ele>327.5</ele>
        <time>2021-08-10T10:14:02Z</time>
      </trkpt>
      <trkpt lat="47.52102" lon="6.88336">
        <ele>327.5</ele>
        <time>2021-08-10T10:14:04Z</time>
      </trkpt>
      <trkpt lat="47.52099" lon="6.88339">
        <ele>327.5</ele>
        <time>2021-08-10T10:14:05Z</time>
      </trkpt>
      <trkpt lat="47.52097" lon="6.88336">
        <ele>327.5</ele>
        <time>2021-08-10T10:14:06Z</time>
      </trkpt>
      <trkpt lat="47.52092" lon="6.88338">
        <ele>327.4</ele>
        <time>2021-08-10T10:14:08Z</time>
      </trkpt>
      <trkpt lat="47.52088" lon="6.88343">
        <ele>327.2</ele>
        <time>2021-08-10T10:14:09Z</time>
      </trkpt>
      <trkpt lat="47.52083" lon="6.88349">
        <ele>327.1</ele>
        <time>2021-08-10T10:14:10Z</time>
      </trkpt>
      <trkpt lat="47.52078" lon="6.88353">
        <ele>326.9</ele>
        <time>2021-08-10T10:14:11Z</time>
      </trkpt>
      <trkpt lat="47.52072" lon="6.8836">
        <ele>326.8</ele>
        <time>2021-08-10T10:14:13Z</time>
      </trkpt>
      <trkpt lat="47.52068" lon="6.88364">
        <ele>326.7</ele>
        <time>2021-08-10T10:14:14Z</time>
      </trkpt>
      <trkpt lat="47.52063" lon="6.88372">
        <ele>326.7</ele>
        <time>2021-08-10T10:14:15Z</time>
      </trkpt>
      <trkpt lat="47.52056" lon="6.88385">
        <ele>326.6</ele>
        <time>2021-08-10T10:14:17Z</time>
      </trkpt>
      <trkpt lat="47.52052" lon="6.88399">
        <ele>326.4</ele>
        <time>2021-08-10T10:14:19Z</time>
      </trkpt>
      <trkpt lat="47.52051" lon="6.88414">
        <ele>326.4</ele>
        <time>2021-08-10T10:14:21Z</time>
      </trkpt>
      <trkpt lat="47.52052" lon="6.88422">
        <ele>326.4</ele>
        <time>2021-08-10T10:14:22Z</time>
      </trkpt>
      <trkpt lat="47.52053" lon="6.8843">
        <ele>326.3</ele>
        <time>2021-08-10T10:14:23Z</time>
      </trkpt>
      <trkpt lat="47.52058" lon="6.88446">
        <ele>326.3</ele>
        <time>2021-08-10T10:14:25Z</time>
      </trkpt>
      <trkpt lat="47.52064" lon="6.88462">
        <ele>326.3</ele>
        <time>2021-08-10T10:14:27Z</time>
      </trkpt>
      <trkpt lat="47.52067" lon="6.88469">
        <ele>326.2</ele>
        <time>2021-08-10T10:14:28Z</time>
      </trkpt>
      <trkpt lat="47.52072" lon="6.88484">
        <ele>326.2</ele>
        <time>2021-08-10T10:14:30Z</time>
      </trkpt>
      <trkpt lat="47.52075" lon="6.88492">
        <ele>326.2</ele>
        <time>2021-08-10T10:14:31Z</time>
      </trkpt>
      <trkpt lat="47.52079" lon="6.88507">
        <ele>326.2</ele>
        <time>2021-08-10T10:14:33Z</time>
      </trkpt>
      <trkpt lat="47.52084" lon="6.8852">
        <ele>326.2</ele>
        <time>2021-08-10T10:14:35Z</time>
      </trkpt>
      <trkpt lat="47.52087" lon="6.88526">
        <ele>326.2</ele>
        <time>2021-08-10T10:14:36Z</time>
      </trkpt>
      <trkpt lat="47.52091" lon="6.88539">
        <ele>326.1</ele>
        <time>2021-08-10T10:14:38Z</time>
      </trkpt>
      <trkpt lat="47.52094" lon="6.88545">
        <ele>326.1</ele>
        <time>2021-08-10T10:14:39Z</time>
      </trkpt>
      <trkpt lat="47.52096" lon="6.88551">
        <ele>326.1</ele>
        <time>2021-08-10T10:14:40Z</time>
      </trkpt>
      <trkpt lat="47.52101" lon="6.88563">
        <ele>326</ele>
        <time>2021-08-10T10:14:42Z</time>
      </trkpt>
      <trkpt lat="47.52104" lon="6.88569">
        <ele>326</ele>
        <time>2021-08-10T10:14:43Z</time>
      </trkpt>
      <trkpt lat="47.52109" lon="6.88581">
        <ele>326</ele>
        <time>2021-08-10T10:14:45Z</time>
      </trkpt>
      <trkpt lat="47.52112" lon="6.88587">
        <ele>326</ele>
        <time>2021-08-10T10:14:46Z</time>
      </trkpt>
      <trkpt lat="47.52115" lon="6.88593">
        <ele>326</ele>
        <time>2021-08-10T10:14:47Z</time>
      </trkpt>
      <trkpt lat="47.5212" lon="6.88606">
        <ele>326</ele>
        <time>2021-08-10T10:14:49Z</time>
      </trkpt>
      <trkpt lat="47.52125" lon="6.88618">
        <ele>326</ele>
        <time>2021-08-10T10:14:51Z</time>
      </trkpt>
      <trkpt lat="47.52127" lon="6.88624">
        <ele>326</ele>
        <time>2021-08-10T10:14:52Z</time>
      </trkpt>
      <trkpt lat="47.52131" lon="6.88636">
        <ele>326</ele>
        <time>2021-08-10T10:14:54Z</time>
      </trkpt>
      <trkpt lat="47.52133" lon="6.88642">
        <ele>326</ele>
        <time>2021-08-10T10:14:55Z</time>
      </trkpt>
      <trkpt lat="47.52136" lon="6.88655">
        <ele>326</ele>
        <time>2021-08-10T10:14:57Z</time>
      </trkpt>
      <trkpt lat="47.52138" lon="6.88662">
        <ele>326</ele>
        <time>2021-08-10T10:14:58Z</time>
      </trkpt>
      <trkpt lat="47.5214" lon="6.88668">
        <ele>326</ele>
        <time>2021-08-10T10:14:59Z</time>
      </trkpt>
      <trkpt lat="47.52142" lon="6.88674">
        <ele>326</ele>
        <time>2021-08-10T10:15:00Z</time>
      </trkpt>
      <trkpt lat="47.52146" lon="6.88686">
        <ele>326</ele>
        <time>2021-08-10T10:15:02Z</time>
      </trkpt>
      <trkpt lat="47.52147" lon="6.88692">
        <ele>326</ele>
        <time>2021-08-10T10:15:03Z</time>
      </trkpt>
      <trkpt lat="47.52149" lon="6.88699">
        <ele>326</ele>
        <time>2021-08-10T10:15:04Z</time>
      </trkpt>
      <trkpt lat="47.52151" lon="6.88705">
        <ele>325.9</ele>
        <time>2021-08-10T10:15:05Z</time>
      </trkpt>
      <trkpt lat="47.52155" lon="6.88717">
        <ele>325.9</ele>
        <time>2021-08-10T10:15:07Z</time>
      </trkpt>
      <trkpt lat="47.5216" lon="6.88729">
        <ele>325.9</ele>
        <time>2021-08-10T10:15:09Z</time>
      </trkpt>
      <trkpt lat="47.52164" lon="6.88741">
        <ele>325.9</ele>
        <time>2021-08-10T10:15:11Z</time>
      </trkpt>
      <trkpt lat="47.52169" lon="6.88754">
        <ele>325.9</ele>
        <time>2021-08-10T10:15:13Z</time>
      </trkpt>
      <trkpt lat="47.52171" lon="6.8876">
        <ele>325.9</ele>
        <time>2021-08-10T10:15:14Z</time>
      </trkpt>
      <trkpt lat="47.52175" lon="6.88773">
        <ele>325.9</ele>
        <time>2021-08-10T10:15:16Z</time>
      </trkpt>
      <trkpt lat="47.52178" lon="6.88779">
        <ele>325.9</ele>
        <time>2021-08-10T10:15:17Z</time>
      </trkpt>
      <trkpt lat="47.5218" lon="6.88785">
        <ele>325.9</ele>
        <time>2021-08-10T10:15:18Z</time>
      </trkpt>
      <trkpt lat="47.52185" lon="6.88797">
        <ele>325.9</ele>
        <time>2021-08-10T10:15:20Z</time>
      </trkpt>
      <trkpt lat="47.5219" lon="6.88809">
        <ele>325.9</ele>
        <time>2021-08-10T10:15:22Z</time>
      </trkpt>
      <trkpt lat="47.52195" lon="6.8882">
        <ele>326</ele>
        <time>2021-08-10T10:15:24Z</time>
      </trkpt>
      <trkpt lat="47.52197" lon="6.88826">
        <ele>326</ele>
        <time>2021-08-10T10:15:25Z</time>
      </trkpt>
      <trkpt lat="47.52201" lon="6.88837">
        <ele>326</ele>
        <time>2021-08-10T10:15:27Z</time>
      </trkpt>
      <trkpt lat="47.52203" lon="6.88842">
        <ele>326</ele>
        <time>2021-08-10T10:15:28Z</time>
      </trkpt>
      <trkpt lat="47.52205" lon="6.88848">
        <ele>326.1</ele>
        <time>2021-08-10T10:15:29Z</time>
      </trkpt>
      <trkpt lat="47.5221" lon="6.88859">
        <ele>326.1</ele>
        <time>2021-08-10T10:15:31Z</time>
      </trkpt>
      <trkpt lat="47.5221" lon="6.88865">
        <ele>326.1</ele>
        <time>2021-08-10T10:15:33Z</time>
      </trkpt>
      <trkpt lat="47.52212" lon="6.88872">
        <ele>326.1</ele>
        <time>2021-08-10T10:15:34Z</time>
      </trkpt>
      <trkpt lat="47.52215" lon="6.88879">
        <ele>326.1</ele>
        <time>2021-08-10T10:15:35Z</time>
      </trkpt>
      <trkpt lat="47.52218" lon="6.88886">
        <ele>326</ele>
        <time>2021-08-10T10:15:36Z</time>
      </trkpt>
      <trkpt lat="47.52222" lon="6.88897">
        <ele>326</ele>
        <time>2021-08-10T10:15:37Z</time>
      </trkpt>
      <trkpt lat="47.52227" lon="6.8891">
        <ele>326</ele>
        <time>2021-08-10T10:15:39Z</time>
      </trkpt>
      <trkpt lat="47.52229" lon="6.88916">
        <ele>326</ele>
        <time>2021-08-10T10:15:40Z</time>
      </trkpt>
      <trkpt lat="47.52231" lon="6.88922">
        <ele>326</ele>
        <time>2021-08-10T10:15:41Z</time>
      </trkpt>
      <trkpt lat="47.52233" lon="6.88929">
        <ele>326</ele>
        <time>2021-08-10T10:15:42Z</time>
      </trkpt>
      <trkpt lat="47.52235" lon="6.88935">
        <ele>326</ele>
        <time>2021-08-10T10:15:43Z</time>
      </trkpt>
      <trkpt lat="47.52239" lon="6.88949">
        <ele>326</ele>
        <time>2021-08-10T10:15:45Z</time>
      </trkpt>
      <trkpt lat="47.52241" lon="6.88956">
        <ele>325.9</ele>
        <time>2021-08-10T10:15:46Z</time>
      </trkpt>
      <trkpt lat="47.52243" lon="6.88965">
        <ele>325.9</ele>
        <time>2021-08-10T10:15:48Z</time>
      </trkpt>
      <trkpt lat="47.52245" lon="6.8897">
        <ele>325.9</ele>
        <time>2021-08-10T10:15:49Z</time>
      </trkpt>
      <trkpt lat="47.52246" lon="6.88976">
        <ele>325.9</ele>
        <time>2021-08-10T10:15:50Z</time>
      </trkpt>
      <trkpt lat="47.52248" lon="6.88985">
        <ele>325.9</ele>
        <time>2021-08-10T10:15:52Z</time>
      </trkpt>
      <trkpt lat="47.5225" lon="6.88994">
        <ele>325.9</ele>
        <time>2021-08-10T10:15:53Z</time>
      </trkpt>
      <trkpt lat="47.52253" lon="6.89004">
        <ele>325.9</ele>
        <time>2021-08-10T10:15:54Z</time>
      </trkpt>
      <trkpt lat="47.52256" lon="6.89012">
        <ele>325.9</ele>
        <time>2021-08-10T10:15:55Z</time>
      </trkpt>
      <trkpt lat="47.52258" lon="6.8902">
        <ele>325.9</ele>
        <time>2021-08-10T10:15:57Z</time>
      </trkpt>
      <trkpt lat="47.5226" lon="6.89027">
        <ele>325.9</ele>
        <time>2021-08-10T10:15:58Z</time>
      </trkpt>
      <trkpt lat="47.52262" lon="6.89034">
        <ele>325.9</ele>
        <time>2021-08-10T10:15:59Z</time>
      </trkpt>
      <trkpt lat="47.52265" lon="6.89043">
        <ele>325.9</ele>
        <time>2021-08-10T10:16:01Z</time>
      </trkpt>
      <trkpt lat="47.52268" lon="6.89052">
        <ele>325.9</ele>
        <time>2021-08-10T10:16:02Z</time>
      </trkpt>
      <trkpt lat="47.5227" lon="6.8906">
        <ele>325.9</ele>
        <time>2021-08-10T10:16:03Z</time>
      </trkpt>
      <trkpt lat="47.52272" lon="6.89068">
        <ele>326</ele>
        <time>2021-08-10T10:16:05Z</time>
      </trkpt>
      <trkpt lat="47.52275" lon="6.89076">
        <ele>326</ele>
        <time>2021-08-10T10:16:06Z</time>
      </trkpt>
      <trkpt lat="47.52277" lon="6.89082">
        <ele>326</ele>
        <time>2021-08-10T10:16:07Z</time>
      </trkpt>
      <trkpt lat="47.52279" lon="6.89088">
        <ele>326</ele>
        <time>2021-08-10T10:16:08Z</time>
      </trkpt>
      <trkpt lat="47.52281" lon="6.89093">
        <ele>325.9</ele>
        <time>2021-08-10T10:16:09Z</time>
      </trkpt>
      <trkpt lat="47.52285" lon="6.89104">
        <ele>325.9</ele>
        <time>2021-08-10T10:16:11Z</time>
      </trkpt>
      <trkpt lat="47.52288" lon="6.89111">
        <ele>325.9</ele>
        <time>2021-08-10T10:16:12Z</time>
      </trkpt>
      <trkpt lat="47.5229" lon="6.89117">
        <ele>325.9</ele>
        <time>2021-08-10T10:16:13Z</time>
      </trkpt>
      <trkpt lat="47.52293" lon="6.89123">
        <ele>325.9</ele>
        <time>2021-08-10T10:16:14Z</time>
      </trkpt>
      <trkpt lat="47.52295" lon="6.89129">
        <ele>325.9</ele>
        <time>2021-08-10T10:16:15Z</time>
      </trkpt>
      <trkpt lat="47.523" lon="6.89146">
        <ele>325.9</ele>
        <time>2021-08-10T10:16:17Z</time>
      </trkpt>
      <trkpt lat="47.52304" lon="6.89159">
        <ele>325.9</ele>
        <time>2021-08-10T10:16:19Z</time>
      </trkpt>
      <trkpt lat="47.52308" lon="6.89172">
        <ele>325.9</ele>
        <time>2021-08-10T10:16:21Z</time>
      </trkpt>
      <trkpt lat="47.52313" lon="6.89185">
        <ele>326</ele>
        <time>2021-08-10T10:16:23Z</time>
      </trkpt>
      <trkpt lat="47.52318" lon="6.89197">
        <ele>326</ele>
        <time>2021-08-10T10:16:25Z</time>
      </trkpt>
      <trkpt lat="47.5232" lon="6.89202">
        <ele>326</ele>
        <time>2021-08-10T10:16:26Z</time>
      </trkpt>
      <trkpt lat="47.52322" lon="6.89208">
        <ele>326</ele>
        <time>2021-08-10T10:16:27Z</time>
      </trkpt>
      <trkpt lat="47.52325" lon="6.89217">
        <ele>326</ele>
        <time>2021-08-10T10:16:29Z</time>
      </trkpt>
      <trkpt lat="47.52331" lon="6.89229">
        <ele>326</ele>
        <time>2021-08-10T10:16:31Z</time>
      </trkpt>
      <trkpt lat="47.52333" lon="6.89235">
        <ele>326</ele>
        <time>2021-08-10T10:16:32Z</time>
      </trkpt>
      <trkpt lat="47.52336" lon="6.8924">
        <ele>326</ele>
        <time>2021-08-10T10:16:34Z</time>
      </trkpt>
      <trkpt lat="47.52337" lon="6.89242">
        <ele>326</ele>
        <time>2021-08-10T10:16:35Z</time>
      </trkpt>
      <trkpt lat="47.52339" lon="6.89247">
        <ele>326</ele>
        <time>2021-08-10T10:16:36Z</time>
      </trkpt>
      <trkpt lat="47.52346" lon="6.89262">
        <ele>326</ele>
        <time>2021-08-10T10:16:38Z</time>
      </trkpt>
      <trkpt lat="47.52351" lon="6.89276">
        <ele>325.9</ele>
        <time>2021-08-10T10:16:39Z</time>
      </trkpt>
      <trkpt lat="47.52355" lon="6.89284">
        <ele>325.9</ele>
        <time>2021-08-10T10:16:40Z</time>
      </trkpt>
      <trkpt lat="47.5236" lon="6.89298">
        <ele>325.9</ele>
        <time>2021-08-10T10:16:42Z</time>
      </trkpt>
      <trkpt lat="47.52362" lon="6.89305">
        <ele>325.9</ele>
        <time>2021-08-10T10:16:43Z</time>
      </trkpt>
      <trkpt lat="47.52366" lon="6.89319">
        <ele>325.9</ele>
        <time>2021-08-10T10:16:45Z</time>
      </trkpt>
      <trkpt lat="47.5237" lon="6.89333">
        <ele>325.9</ele>
        <time>2021-08-10T10:16:47Z</time>
      </trkpt>
      <trkpt lat="47.52372" lon="6.8934">
        <ele>325.9</ele>
        <time>2021-08-10T10:16:48Z</time>
      </trkpt>
      <trkpt lat="47.52374" lon="6.89346">
        <ele>325.9</ele>
        <time>2021-08-10T10:16:49Z</time>
      </trkpt>
      <trkpt lat="47.52378" lon="6.89359">
        <ele>325.9</ele>
        <time>2021-08-10T10:16:51Z</time>
      </trkpt>
      <trkpt lat="47.5238" lon="6.89366">
        <ele>325.9</ele>
        <time>2021-08-10T10:16:52Z</time>
      </trkpt>
      <trkpt lat="47.52385" lon="6.8938">
        <ele>325.9</ele>
        <time>2021-08-10T10:16:54Z</time>
      </trkpt>
      <trkpt lat="47.52388" lon="6.89393">
        <ele>325.8</ele>
        <time>2021-08-10T10:16:56Z</time>
      </trkpt>
      <trkpt lat="47.5239" lon="6.89399">
        <ele>325.8</ele>
        <time>2021-08-10T10:16:57Z</time>
      </trkpt>
      <trkpt lat="47.52392" lon="6.89406">
        <ele>325.8</ele>
        <time>2021-08-10T10:16:58Z</time>
      </trkpt>
      <trkpt lat="47.52393" lon="6.89413">
        <ele>325.9</ele>
        <time>2021-08-10T10:16:59Z</time>
      </trkpt>
      <trkpt lat="47.52396" lon="6.89427">
        <ele>325.9</ele>
        <time>2021-08-10T10:17:01Z</time>
      </trkpt>
      <trkpt lat="47.524" lon="6.8944">
        <ele>325.9</ele>
        <time>2021-08-10T10:17:03Z</time>
      </trkpt>
      <trkpt lat="47.52402" lon="6.89447">
        <ele>325.9</ele>
        <time>2021-08-10T10:17:04Z</time>
      </trkpt>
      <trkpt lat="47.52403" lon="6.89453">
        <ele>325.9</ele>
        <time>2021-08-10T10:17:05Z</time>
      </trkpt>
      <trkpt lat="47.52406" lon="6.89467">
        <ele>325.9</ele>
        <time>2021-08-10T10:17:07Z</time>
      </trkpt>
      <trkpt lat="47.52408" lon="6.8948">
        <ele>325.9</ele>
        <time>2021-08-10T10:17:09Z</time>
      </trkpt>
      <trkpt lat="47.5241" lon="6.89487">
        <ele>325.9</ele>
        <time>2021-08-10T10:17:10Z</time>
      </trkpt>
      <trkpt lat="47.52411" lon="6.89493">
        <ele>325.9</ele>
        <time>2021-08-10T10:17:11Z</time>
      </trkpt>
      <trkpt lat="47.52413" lon="6.89507">
        <ele>326</ele>
        <time>2021-08-10T10:17:13Z</time>
      </trkpt>
      <trkpt lat="47.52415" lon="6.8952">
        <ele>326</ele>
        <time>2021-08-10T10:17:15Z</time>
      </trkpt>
      <trkpt lat="47.52416" lon="6.89527">
        <ele>326</ele>
        <time>2021-08-10T10:17:16Z</time>
      </trkpt>
      <trkpt lat="47.52418" lon="6.89533">
        <ele>326</ele>
        <time>2021-08-10T10:17:17Z</time>
      </trkpt>
      <trkpt lat="47.52421" lon="6.89546">
        <ele>326</ele>
        <time>2021-08-10T10:17:19Z</time>
      </trkpt>
      <trkpt lat="47.52423" lon="6.89558">
        <ele>326.1</ele>
        <time>2021-08-10T10:17:21Z</time>
      </trkpt>
      <trkpt lat="47.52425" lon="6.89565">
        <ele>326.1</ele>
        <time>2021-08-10T10:17:22Z</time>
      </trkpt>
      <trkpt lat="47.52428" lon="6.89576">
        <ele>326.2</ele>
        <time>2021-08-10T10:17:24Z</time>
      </trkpt>
      <trkpt lat="47.52425" lon="6.89582">
        <ele>326.3</ele>
        <time>2021-08-10T10:17:25Z</time>
      </trkpt>
      <trkpt lat="47.52425" lon="6.89591">
        <ele>326.4</ele>
        <time>2021-08-10T10:17:27Z</time>
      </trkpt>
      <trkpt lat="47.52429" lon="6.89599">
        <ele>326.4</ele>
        <time>2021-08-10T10:17:28Z</time>
      </trkpt>
      <trkpt lat="47.52432" lon="6.89607">
        <ele>326.5</ele>
        <time>2021-08-10T10:17:29Z</time>
      </trkpt>
      <trkpt lat="47.52434" lon="6.89613">
        <ele>326.6</ele>
        <time>2021-08-10T10:17:30Z</time>
      </trkpt>
      <trkpt lat="47.52437" lon="6.89619">
        <ele>326.6</ele>
        <time>2021-08-10T10:17:31Z</time>
      </trkpt>
      <trkpt lat="47.52439" lon="6.89624">
        <ele>326.7</ele>
        <time>2021-08-10T10:17:32Z</time>
      </trkpt>
      <trkpt lat="47.52443" lon="6.89632">
        <ele>326.8</ele>
        <time>2021-08-10T10:17:34Z</time>
      </trkpt>
      <trkpt lat="47.52445" lon="6.89636">
        <ele>326.8</ele>
        <time>2021-08-10T10:17:35Z</time>
      </trkpt>
      <trkpt lat="47.52445" lon="6.89637">
        <ele>326.8</ele>
        <time>2021-08-10T10:17:36Z</time>
      </trkpt>
      <trkpt lat="47.52445" lon="6.89641">
        <ele>326.8</ele>
        <time>2021-08-10T10:17:37Z</time>
      </trkpt>
      <trkpt lat="47.52446" lon="6.89642">
        <ele>326.8</ele>
        <time>2021-08-10T10:17:38Z</time>
      </trkpt>
      <trkpt lat="47.52444" lon="6.89639">
        <ele>326.8</ele>
        <time>2021-08-10T10:17:40Z</time>
      </trkpt>
      <trkpt lat="47.52442" lon="6.89638">
        <ele>326.8</ele>
        <time>2021-08-10T10:17:41Z</time>
      </trkpt>
      <trkpt lat="47.52438" lon="6.89634">
        <ele>326.9</ele>
        <time>2021-08-10T10:17:42Z</time>
      </trkpt>
      <trkpt lat="47.52437" lon="6.89633">
        <ele>326.9</ele>
        <time>2021-08-10T10:17:43Z</time>
      </trkpt>
      <trkpt lat="47.52435" lon="6.89629">
        <ele>326.9</ele>
        <time>2021-08-10T10:17:45Z</time>
      </trkpt>
      <trkpt lat="47.52434" lon="6.89629">
        <ele>326.9</ele>
        <time>2021-08-10T10:17:46Z</time>
      </trkpt>
      <trkpt lat="47.52434" lon="6.89628">
        <ele>326.9</ele>
        <time>2021-08-10T10:17:47Z</time>
      </trkpt>
      <trkpt lat="47.52434" lon="6.89628">
        <ele>326.9</ele>
        <time>2021-08-10T10:17:49Z</time>
      </trkpt>
      <trkpt lat="47.52434" lon="6.89628">
        <ele>326.9</ele>
        <time>2021-08-10T10:17:50Z</time>
      </trkpt>
      <trkpt lat="47.52434" lon="6.89627">
        <ele>326.9</ele>
        <time>2021-08-10T10:17:52Z</time>
      </trkpt>
      <trkpt lat="47.52433" lon="6.89627">
        <ele>326.9</ele>
        <time>2021-08-10T10:17:54Z</time>
      </trkpt>
      <trkpt lat="47.52433" lon="6.89627">
        <ele>326.9</ele>
        <time>2021-08-10T10:17:55Z</time>
      </trkpt>
      <trkpt lat="47.52426" lon="6.89635">
        <ele>326.9</ele>
        <time>2021-08-10T10:18:29Z</time>
      </trkpt>
      <trkpt lat="47.52418" lon="6.89644">
        <ele>327</ele>
        <time>2021-08-10T10:18:31Z</time>
      </trkpt>
      <trkpt lat="47.52414" lon="6.89651">
        <ele>327</ele>
        <time>2021-08-10T10:18:32Z</time>
      </trkpt>
      <trkpt lat="47.52408" lon="6.89663">
        <ele>327.1</ele>
        <time>2021-08-10T10:18:34Z</time>
      </trkpt>
      <trkpt lat="47.52404" lon="6.89672">
        <ele>327.2</ele>
        <time>2021-08-10T10:18:36Z</time>
      </trkpt>
      <trkpt lat="47.52402" lon="6.89678">
        <ele>327.4</ele>
        <time>2021-08-10T10:18:37Z</time>
      </trkpt>
      <trkpt lat="47.524" lon="6.89685">
        <ele>327.5</ele>
        <time>2021-08-10T10:18:38Z</time>
      </trkpt>
      <trkpt lat="47.52398" lon="6.89692">
        <ele>327.7</ele>
        <time>2021-08-10T10:18:39Z</time>
      </trkpt>
      <trkpt lat="47.52397" lon="6.897">
        <ele>327.8</ele>
        <time>2021-08-10T10:18:41Z</time>
      </trkpt>
      <trkpt lat="47.52396" lon="6.89704">
        <ele>327.9</ele>
        <time>2021-08-10T10:18:42Z</time>
      </trkpt>
      <trkpt lat="47.52394" lon="6.8971">
        <ele>328.1</ele>
        <time>2021-08-10T10:18:44Z</time>
      </trkpt>
      <trkpt lat="47.52391" lon="6.89715">
        <ele>328.3</ele>
        <time>2021-08-10T10:18:45Z</time>
      </trkpt>
      <trkpt lat="47.52385" lon="6.89723">
        <ele>328.6</ele>
        <time>2021-08-10T10:18:47Z</time>
      </trkpt>
      <trkpt lat="47.5238" lon="6.8973">
        <ele>328.9</ele>
        <time>2021-08-10T10:18:49Z</time>
      </trkpt>
      <trkpt lat="47.52378" lon="6.89733">
        <ele>329.1</ele>
        <time>2021-08-10T10:18:50Z</time>
      </trkpt>
      <trkpt lat="47.52375" lon="6.89735">
        <ele>329.2</ele>
        <time>2021-08-10T10:18:51Z</time>
      </trkpt>
      <trkpt lat="47.52372" lon="6.89738">
        <ele>329.4</ele>
        <time>2021-08-10T10:18:52Z</time>
      </trkpt>
      <trkpt lat="47.5237" lon="6.8974">
        <ele>329.5</ele>
        <time>2021-08-10T10:18:53Z</time>
      </trkpt>
      <trkpt lat="47.52368" lon="6.89742">
        <ele>329.6</ele>
        <time>2021-08-10T10:18:54Z</time>
      </trkpt>
      <trkpt lat="47.52365" lon="6.89745">
        <ele>329.8</ele>
        <time>2021-08-10T10:18:55Z</time>
      </trkpt>
      <trkpt lat="47.52363" lon="6.89747">
        <ele>329.9</ele>
        <time>2021-08-10T10:18:56Z</time>
      </trkpt>
      <trkpt lat="47.5236" lon="6.8975">
        <ele>330.1</ele>
        <time>2021-08-10T10:18:58Z</time>
      </trkpt>
      <trkpt lat="47.52357" lon="6.89754">
        <ele>330.3</ele>
        <time>2021-08-10T10:18:59Z</time>
      </trkpt>
      <trkpt lat="47.52356" lon="6.89755">
        <ele>330.3</ele>
        <time>2021-08-10T10:19:00Z</time>
      </trkpt>
      <trkpt lat="47.52353" lon="6.89758">
        <ele>330.5</ele>
        <time>2021-08-10T10:19:02Z</time>
      </trkpt>
      <trkpt lat="47.52351" lon="6.89759">
        <ele>330.6</ele>
        <time>2021-08-10T10:19:03Z</time>
      </trkpt>
      <trkpt lat="47.52348" lon="6.89761">
        <ele>330.8</ele>
        <time>2021-08-10T10:19:04Z</time>
      </trkpt>
      <trkpt lat="47.52346" lon="6.89761">
        <ele>330.9</ele>
        <time>2021-08-10T10:19:05Z</time>
      </trkpt>
      <trkpt lat="47.52341" lon="6.8976">
        <ele>331.5</ele>
        <time>2021-08-10T10:19:07Z</time>
      </trkpt>
      <trkpt lat="47.52336" lon="6.89759">
        <ele>331.8</ele>
        <time>2021-08-10T10:19:09Z</time>
      </trkpt>
      <trkpt lat="47.52333" lon="6.89759">
        <ele>332</ele>
        <time>2021-08-10T10:19:10Z</time>
      </trkpt>
      <trkpt lat="47.52332" lon="6.89759">
        <ele>332</ele>
        <time>2021-08-10T10:19:11Z</time>
      </trkpt>
      <trkpt lat="47.52329" lon="6.89757">
        <ele>332.2</ele>
        <time>2021-08-10T10:19:12Z</time>
      </trkpt>
      <trkpt lat="47.52328" lon="6.89757">
        <ele>332.2</ele>
        <time>2021-08-10T10:19:13Z</time>
      </trkpt>
      <trkpt lat="47.52324" lon="6.89755">
        <ele>332.4</ele>
        <time>2021-08-10T10:19:15Z</time>
      </trkpt>
      <trkpt lat="47.52322" lon="6.89753">
        <ele>332.6</ele>
        <time>2021-08-10T10:19:16Z</time>
      </trkpt>
      <trkpt lat="47.5232" lon="6.89752">
        <ele>332.7</ele>
        <time>2021-08-10T10:19:17Z</time>
      </trkpt>
      <trkpt lat="47.52316" lon="6.89748">
        <ele>333</ele>
        <time>2021-08-10T10:19:19Z</time>
      </trkpt>
      <trkpt lat="47.52314" lon="6.89743">
        <ele>333.2</ele>
        <time>2021-08-10T10:19:20Z</time>
      </trkpt>
      <trkpt lat="47.52312" lon="6.89738">
        <ele>333.4</ele>
        <time>2021-08-10T10:19:22Z</time>
      </trkpt>
      <trkpt lat="47.5231" lon="6.89733">
        <ele>333.6</ele>
        <time>2021-08-10T10:19:24Z</time>
      </trkpt>
      <trkpt lat="47.52309" lon="6.89728">
        <ele>333.8</ele>
        <time>2021-08-10T10:19:25Z</time>
      </trkpt>
      <trkpt lat="47.52308" lon="6.89727">
        <ele>333.8</ele>
        <time>2021-08-10T10:19:26Z</time>
      </trkpt>
      <trkpt lat="47.52307" lon="6.89726">
        <ele>333.9</ele>
        <time>2021-08-10T10:19:27Z</time>
      </trkpt>
      <trkpt lat="47.52306" lon="6.89724">
        <ele>334</ele>
        <time>2021-08-10T10:19:29Z</time>
      </trkpt>
      <trkpt lat="47.52305" lon="6.89723">
        <ele>334.1</ele>
        <time>2021-08-10T10:19:30Z</time>
      </trkpt>
      <trkpt lat="47.52302" lon="6.89724">
        <ele>334.2</ele>
        <time>2021-08-10T10:19:32Z</time>
      </trkpt>
      <trkpt lat="47.52297" lon="6.89727">
        <ele>334.7</ele>
        <time>2021-08-10T10:19:34Z</time>
      </trkpt>
      <trkpt lat="47.52294" lon="6.89728">
        <ele>334.9</ele>
        <time>2021-08-10T10:19:35Z</time>
      </trkpt>
      <trkpt lat="47.52291" lon="6.8973">
        <ele>335.2</ele>
        <time>2021-08-10T10:19:36Z</time>
      </trkpt>
      <trkpt lat="47.52288" lon="6.89731">
        <ele>335.4</ele>
        <time>2021-08-10T10:19:38Z</time>
      </trkpt>
      <trkpt lat="47.52286" lon="6.89732">
        <ele>335.6</ele>
        <time>2021-08-10T10:19:39Z</time>
      </trkpt>
      <trkpt lat="47.52283" lon="6.89733">
        <ele>335.8</ele>
        <time>2021-08-10T10:19:41Z</time>
      </trkpt>
      <trkpt lat="47.52281" lon="6.89733">
        <ele>335.9</ele>
        <time>2021-08-10T10:19:42Z</time>
      </trkpt>
      <trkpt lat="47.52279" lon="6.89735">
        <ele>336.1</ele>
        <time>2021-08-10T10:19:44Z</time>
      </trkpt>
      <trkpt lat="47.52277" lon="6.89736">
        <ele>336.3</ele>
        <time>2021-08-10T10:19:45Z</time>
      </trkpt>
      <trkpt lat="47.52276" lon="6.89737">
        <ele>336.4</ele>
        <time>2021-08-10T10:19:46Z</time>
      </trkpt>
      <trkpt lat="47.52274" lon="6.89737">
        <ele>336.5</ele>
        <time>2021-08-10T10:19:47Z</time>
      </trkpt>
      <trkpt lat="47.52272" lon="6.89739">
        <ele>336.6</ele>
        <time>2021-08-10T10:19:49Z</time>
      </trkpt>
      <trkpt lat="47.52269" lon="6.8974">
        <ele>336.9</ele>
        <time>2021-08-10T10:19:51Z</time>
      </trkpt>
      <trkpt lat="47.52267" lon="6.8974">
        <ele>337</ele>
        <time>2021-08-10T10:19:52Z</time>
      </trkpt>
      <trkpt lat="47.52265" lon="6.89741">
        <ele>337.1</ele>
        <time>2021-08-10T10:19:54Z</time>
      </trkpt>
      <trkpt lat="47.52262" lon="6.89741">
        <ele>337.3</ele>
        <time>2021-08-10T10:19:55Z</time>
      </trkpt>
      <trkpt lat="47.52261" lon="6.89741">
        <ele>337.4</ele>
        <time>2021-08-10T10:19:56Z</time>
      </trkpt>
      <trkpt lat="47.52259" lon="6.89742">
        <ele>337.6</ele>
        <time>2021-08-10T10:19:58Z</time>
      </trkpt>
      <trkpt lat="47.52258" lon="6.89743">
        <ele>337.6</ele>
        <time>2021-08-10T10:20:00Z</time>
      </trkpt>
      <trkpt lat="47.52258" lon="6.89744">
        <ele>337.6</ele>
        <time>2021-08-10T10:20:01Z</time>
      </trkpt>
      <trkpt lat="47.52257" lon="6.89745">
        <ele>337.7</ele>
        <time>2021-08-10T10:20:03Z</time>
      </trkpt>
      <trkpt lat="47.52255" lon="6.89745">
        <ele>337.8</ele>
        <time>2021-08-10T10:20:05Z</time>
      </trkpt>
      <trkpt lat="47.52254" lon="6.89745">
        <ele>337.9</ele>
        <time>2021-08-10T10:20:06Z</time>
      </trkpt>
      <trkpt lat="47.52255" lon="6.89745">
        <ele>337.9</ele>
        <time>2021-08-10T10:20:07Z</time>
      </trkpt>
      <trkpt lat="47.52255" lon="6.89745">
        <ele>337.9</ele>
        <time>2021-08-10T10:20:09Z</time>
      </trkpt>
      <trkpt lat="47.52255" lon="6.89744">
        <ele>338</ele>
        <time>2021-08-10T10:20:10Z</time>
      </trkpt>
      <trkpt lat="47.52254" lon="6.89744">
        <ele>338</ele>
        <time>2021-08-10T10:20:11Z</time>
      </trkpt>
      <trkpt lat="47.52254" lon="6.89744">
        <ele>338</ele>
        <time>2021-08-10T10:20:12Z</time>
      </trkpt>
      <trkpt lat="47.52253" lon="6.89744">
        <ele>338.1</ele>
        <time>2021-08-10T10:20:14Z</time>
      </trkpt>
      <trkpt lat="47.52252" lon="6.89744">
        <ele>338.2</ele>
        <time>2021-08-10T10:20:15Z</time>
      </trkpt>
      <trkpt lat="47.52251" lon="6.89744">
        <ele>338.2</ele>
        <time>2021-08-10T10:20:16Z</time>
      </trkpt>
      <trkpt lat="47.52234" lon="6.8974">
        <ele>339.4</ele>
        <time>2021-08-10T10:20:26Z</time>
      </trkpt>
      <trkpt lat="47.52226" lon="6.89745">
        <ele>339.9</ele>
        <time>2021-08-10T10:20:28Z</time>
      </trkpt>
      <trkpt lat="47.52221" lon="6.89747">
        <ele>340.3</ele>
        <time>2021-08-10T10:20:29Z</time>
      </trkpt>
      <trkpt lat="47.52214" lon="6.89752">
        <ele>340.7</ele>
        <time>2021-08-10T10:20:31Z</time>
      </trkpt>
      <trkpt lat="47.52208" lon="6.89756">
        <ele>341</ele>
        <time>2021-08-10T10:20:33Z</time>
      </trkpt>
      <trkpt lat="47.52204" lon="6.89759">
        <ele>341.1</ele>
        <time>2021-08-10T10:20:34Z</time>
      </trkpt>
      <trkpt lat="47.52202" lon="6.89761">
        <ele>341.2</ele>
        <time>2021-08-10T10:20:35Z</time>
      </trkpt>
      <trkpt lat="47.52199" lon="6.89764">
        <ele>341.3</ele>
        <time>2021-08-10T10:20:36Z</time>
      </trkpt>
      <trkpt lat="47.52197" lon="6.89768">
        <ele>341.4</ele>
        <time>2021-08-10T10:20:38Z</time>
      </trkpt>
      <trkpt lat="47.52196" lon="6.8977">
        <ele>341.5</ele>
        <time>2021-08-10T10:20:39Z</time>
      </trkpt>
      <trkpt lat="47.52192" lon="6.89772">
        <ele>341.6</ele>
        <time>2021-08-10T10:20:41Z</time>
      </trkpt>
      <trkpt lat="47.5219" lon="6.89774">
        <ele>341.7</ele>
        <time>2021-08-10T10:20:42Z</time>
      </trkpt>
      <trkpt lat="47.52187" lon="6.89777">
        <ele>341.9</ele>
        <time>2021-08-10T10:20:44Z</time>
      </trkpt>
      <trkpt lat="47.52184" lon="6.89779">
        <ele>342</ele>
        <time>2021-08-10T10:20:45Z</time>
      </trkpt>
      <trkpt lat="47.52181" lon="6.89781">
        <ele>342.1</ele>
        <time>2021-08-10T10:20:47Z</time>
      </trkpt>
      <trkpt lat="47.52178" lon="6.89782">
        <ele>342.2</ele>
        <time>2021-08-10T10:20:48Z</time>
      </trkpt>
      <trkpt lat="47.52174" lon="6.89785">
        <ele>342.4</ele>
        <time>2021-08-10T10:20:50Z</time>
      </trkpt>
      <trkpt lat="47.52172" lon="6.89787">
        <ele>342.6</ele>
        <time>2021-08-10T10:20:51Z</time>
      </trkpt>
      <trkpt lat="47.52171" lon="6.89788">
        <ele>342.6</ele>
        <time>2021-08-10T10:20:52Z</time>
      </trkpt>
      <trkpt lat="47.52169" lon="6.89789">
        <ele>342.7</ele>
        <time>2021-08-10T10:20:53Z</time>
      </trkpt>
      <trkpt lat="47.52167" lon="6.89792">
        <ele>342.9</ele>
        <time>2021-08-10T10:20:55Z</time>
      </trkpt>
      <trkpt lat="47.52164" lon="6.89795">
        <ele>343</ele>
        <time>2021-08-10T10:20:56Z</time>
      </trkpt>
      <trkpt lat="47.52163" lon="6.89795">
        <ele>343.1</ele>
        <time>2021-08-10T10:20:57Z</time>
      </trkpt>
      <trkpt lat="47.52161" lon="6.89798">
        <ele>343.3</ele>
        <time>2021-08-10T10:20:58Z</time>
      </trkpt>
      <trkpt lat="47.5216" lon="6.89799">
        <ele>343.3</ele>
        <time>2021-08-10T10:20:59Z</time>
      </trkpt>
      <trkpt lat="47.52157" lon="6.89802">
        <ele>343.5</ele>
        <time>2021-08-10T10:21:01Z</time>
      </trkpt>
      <trkpt lat="47.52155" lon="6.89806">
        <ele>343.7</ele>
        <time>2021-08-10T10:21:03Z</time>
      </trkpt>
      <trkpt lat="47.52153" lon="6.89808">
        <ele>343.8</ele>
        <time>2021-08-10T10:21:04Z</time>
      </trkpt>
      <trkpt lat="47.5215" lon="6.89811">
        <ele>344.1</ele>
        <time>2021-08-10T10:21:06Z</time>
      </trkpt>
      <trkpt lat="47.52149" lon="6.89812">
        <ele>344.2</ele>
        <time>2021-08-10T10:21:07Z</time>
      </trkpt>
      <trkpt lat="47.52146" lon="6.89815">
        <ele>344.4</ele>
        <time>2021-08-10T10:21:09Z</time>
      </trkpt>
      <trkpt lat="47.52144" lon="6.89817">
        <ele>344.5</ele>
        <time>2021-08-10T10:21:10Z</time>
      </trkpt>
      <trkpt lat="47.52142" lon="6.8982">
        <ele>344.7</ele>
        <time>2021-08-10T10:21:12Z</time>
      </trkpt>
      <trkpt lat="47.5214" lon="6.89824">
        <ele>344.9</ele>
        <time>2021-08-10T10:21:13Z</time>
      </trkpt>
      <trkpt lat="47.52139" lon="6.89825">
        <ele>345</ele>
        <time>2021-08-10T10:21:14Z</time>
      </trkpt>
      <trkpt lat="47.52137" lon="6.89829">
        <ele>345.2</ele>
        <time>2021-08-10T10:21:16Z</time>
      </trkpt>
      <trkpt lat="47.52137" lon="6.89831">
        <ele>345.3</ele>
        <time>2021-08-10T10:21:17Z</time>
      </trkpt>
      <trkpt lat="47.52135" lon="6.89834">
        <ele>345.5</ele>
        <time>2021-08-10T10:21:19Z</time>
      </trkpt>
      <trkpt lat="47.52133" lon="6.89838">
        <ele>345.7</ele>
        <time>2021-08-10T10:21:21Z</time>
      </trkpt>
      <trkpt lat="47.52133" lon="6.89839">
        <ele>345.7</ele>
        <time>2021-08-10T10:21:22Z</time>
      </trkpt>
      <trkpt lat="47.52132" lon="6.8984">
        <ele>345.8</ele>
        <time>2021-08-10T10:21:23Z</time>
      </trkpt>
      <trkpt lat="47.5213" lon="6.89843">
        <ele>346</ele>
        <time>2021-08-10T10:21:25Z</time>
      </trkpt>
      <trkpt lat="47.52128" lon="6.89847">
        <ele>346.2</ele>
        <time>2021-08-10T10:21:27Z</time>
      </trkpt>
      <trkpt lat="47.52124" lon="6.8985">
        <ele>346.4</ele>
        <time>2021-08-10T10:21:29Z</time>
      </trkpt>
      <trkpt lat="47.52123" lon="6.89852">
        <ele>346.5</ele>
        <time>2021-08-10T10:21:30Z</time>
      </trkpt>
      <trkpt lat="47.52121" lon="6.89855">
        <ele>346.6</ele>
        <time>2021-08-10T10:21:32Z</time>
      </trkpt>
      <trkpt lat="47.52119" lon="6.89856">
        <ele>346.7</ele>
        <time>2021-08-10T10:21:33Z</time>
      </trkpt>
      <trkpt lat="47.52118" lon="6.89858">
        <ele>346.8</ele>
        <time>2021-08-10T10:21:34Z</time>
      </trkpt>
      <trkpt lat="47.52115" lon="6.89861">
        <ele>346.9</ele>
        <time>2021-08-10T10:21:36Z</time>
      </trkpt>
      <trkpt lat="47.52111" lon="6.89865">
        <ele>347.1</ele>
        <time>2021-08-10T10:21:38Z</time>
      </trkpt>
      <trkpt lat="47.5211" lon="6.89868">
        <ele>347.2</ele>
        <time>2021-08-10T10:21:39Z</time>
      </trkpt>
      <trkpt lat="47.52107" lon="6.89872">
        <ele>347.4</ele>
        <time>2021-08-10T10:21:41Z</time>
      </trkpt>
      <trkpt lat="47.52105" lon="6.89876">
        <ele>347.5</ele>
        <time>2021-08-10T10:21:42Z</time>
      </trkpt>
      <trkpt lat="47.52104" lon="6.89879">
        <ele>347.6</ele>
        <time>2021-08-10T10:21:43Z</time>
      </trkpt>
      <trkpt lat="47.52102" lon="6.89884">
        <ele>347.7</ele>
        <time>2021-08-10T10:21:45Z</time>
      </trkpt>
      <trkpt lat="47.52098" lon="6.89889">
        <ele>347.9</ele>
        <time>2021-08-10T10:21:47Z</time>
      </trkpt>
      <trkpt lat="47.52096" lon="6.8989">
        <ele>348</ele>
        <time>2021-08-10T10:21:49Z</time>
      </trkpt>
      <trkpt lat="47.52095" lon="6.89891">
        <ele>348.1</ele>
        <time>2021-08-10T10:21:50Z</time>
      </trkpt>
      <trkpt lat="47.52093" lon="6.89893">
        <ele>348.1</ele>
        <time>2021-08-10T10:21:51Z</time>
      </trkpt>
      <trkpt lat="47.52091" lon="6.89894">
        <ele>348.2</ele>
        <time>2021-08-10T10:21:53Z</time>
      </trkpt>
      <trkpt lat="47.5209" lon="6.89895">
        <ele>348.2</ele>
        <time>2021-08-10T10:21:54Z</time>
      </trkpt>
      <trkpt lat="47.52088" lon="6.89898">
        <ele>348.3</ele>
        <time>2021-08-10T10:21:56Z</time>
      </trkpt>
      <trkpt lat="47.52085" lon="6.89899">
        <ele>348.4</ele>
        <time>2021-08-10T10:21:57Z</time>
      </trkpt>
      <trkpt lat="47.52083" lon="6.89901">
        <ele>348.5</ele>
        <time>2021-08-10T10:21:59Z</time>
      </trkpt>
      <trkpt lat="47.5208" lon="6.89903">
        <ele>348.6</ele>
        <time>2021-08-10T10:22:00Z</time>
      </trkpt>
      <trkpt lat="47.52079" lon="6.89903">
        <ele>348.6</ele>
        <time>2021-08-10T10:22:01Z</time>
      </trkpt>
      <trkpt lat="47.52076" lon="6.89905">
        <ele>348.8</ele>
        <time>2021-08-10T10:22:02Z</time>
      </trkpt>
      <trkpt lat="47.52072" lon="6.89908">
        <ele>348.9</ele>
        <time>2021-08-10T10:22:04Z</time>
      </trkpt>
      <trkpt lat="47.5207" lon="6.89909">
        <ele>349</ele>
        <time>2021-08-10T10:22:05Z</time>
      </trkpt>
      <trkpt lat="47.52068" lon="6.89909">
        <ele>349.1</ele>
        <time>2021-08-10T10:22:06Z</time>
      </trkpt>
      <trkpt lat="47.52064" lon="6.89911">
        <ele>349.2</ele>
        <time>2021-08-10T10:22:08Z</time>
      </trkpt>
      <trkpt lat="47.52061" lon="6.89913">
        <ele>349.4</ele>
        <time>2021-08-10T10:22:09Z</time>
      </trkpt>
      <trkpt lat="47.52057" lon="6.89915">
        <ele>349.6</ele>
        <time>2021-08-10T10:22:11Z</time>
      </trkpt>
      <trkpt lat="47.52054" lon="6.89916">
        <ele>349.8</ele>
        <time>2021-08-10T10:22:12Z</time>
      </trkpt>
      <trkpt lat="47.5205" lon="6.89918">
        <ele>350</ele>
        <time>2021-08-10T10:22:13Z</time>
      </trkpt>
      <trkpt lat="47.52048" lon="6.89919">
        <ele>350.1</ele>
        <time>2021-08-10T10:22:14Z</time>
      </trkpt>
      <trkpt lat="47.52045" lon="6.89921">
        <ele>350.4</ele>
        <time>2021-08-10T10:22:15Z</time>
      </trkpt>
      <trkpt lat="47.52043" lon="6.89922">
        <ele>350.4</ele>
        <time>2021-08-10T10:22:16Z</time>
      </trkpt>
      <trkpt lat="47.52041" lon="6.89924">
        <ele>350.6</ele>
        <time>2021-08-10T10:22:17Z</time>
      </trkpt>
      <trkpt lat="47.5204" lon="6.89924">
        <ele>350.7</ele>
        <time>2021-08-10T10:22:18Z</time>
      </trkpt>
      <trkpt lat="47.52037" lon="6.89926">
        <ele>350.9</ele>
        <time>2021-08-10T10:22:20Z</time>
      </trkpt>
      <trkpt lat="47.52036" lon="6.89928">
        <ele>351</ele>
        <time>2021-08-10T10:22:21Z</time>
      </trkpt>
      <trkpt lat="47.52035" lon="6.8993">
        <ele>351.1</ele>
        <time>2021-08-10T10:22:22Z</time>
      </trkpt>
      <trkpt lat="47.52034" lon="6.89932">
        <ele>351.2</ele>
        <time>2021-08-10T10:22:23Z</time>
      </trkpt>
      <trkpt lat="47.52033" lon="6.89934">
        <ele>351.3</ele>
        <time>2021-08-10T10:22:24Z</time>
      </trkpt>
      <trkpt lat="47.52032" lon="6.89936">
        <ele>351.4</ele>
        <time>2021-08-10T10:22:25Z</time>
      </trkpt>
      <trkpt lat="47.5203" lon="6.89937">
        <ele>351.5</ele>
        <time>2021-08-10T10:22:26Z</time>
      </trkpt>
      <trkpt lat="47.52028" lon="6.8994">
        <ele>351.7</ele>
        <time>2021-08-10T10:22:27Z</time>
      </trkpt>
      <trkpt lat="47.52028" lon="6.89941">
        <ele>351.7</ele>
        <time>2021-08-10T10:22:28Z</time>
      </trkpt>
      <trkpt lat="47.52025" lon="6.89945">
        <ele>352</ele>
        <time>2021-08-10T10:22:30Z</time>
      </trkpt>
      <trkpt lat="47.52024" lon="6.89946">
        <ele>352</ele>
        <time>2021-08-10T10:22:31Z</time>
      </trkpt>
      <trkpt lat="47.52023" lon="6.89948">
        <ele>352.1</ele>
        <time>2021-08-10T10:22:32Z</time>
      </trkpt>
      <trkpt lat="47.52022" lon="6.8995">
        <ele>352.2</ele>
        <time>2021-08-10T10:22:33Z</time>
      </trkpt>
      <trkpt lat="47.5202" lon="6.89952">
        <ele>352.3</ele>
        <time>2021-08-10T10:22:34Z</time>
      </trkpt>
      <trkpt lat="47.52019" lon="6.89953">
        <ele>352.4</ele>
        <time>2021-08-10T10:22:35Z</time>
      </trkpt>
      <trkpt lat="47.52016" lon="6.8995">
        <ele>352.6</ele>
        <time>2021-08-10T10:22:37Z</time>
      </trkpt>
      <trkpt lat="47.52015" lon="6.89949">
        <ele>352.7</ele>
        <time>2021-08-10T10:22:38Z</time>
      </trkpt>
      <trkpt lat="47.52014" lon="6.89944">
        <ele>352.9</ele>
        <time>2021-08-10T10:22:39Z</time>
      </trkpt>
      <trkpt lat="47.52013" lon="6.89942">
        <ele>353</ele>
        <time>2021-08-10T10:22:40Z</time>
      </trkpt>
      <trkpt lat="47.52011" lon="6.89938">
        <ele>353.2</ele>
        <time>2021-08-10T10:22:42Z</time>
      </trkpt>
      <trkpt lat="47.52011" lon="6.89937">
        <ele>353.2</ele>
        <time>2021-08-10T10:22:43Z</time>
      </trkpt>
      <trkpt lat="47.5201" lon="6.89937">
        <ele>353.3</ele>
        <time>2021-08-10T10:22:44Z</time>
      </trkpt>
      <trkpt lat="47.5201" lon="6.89935">
        <ele>353.3</ele>
        <time>2021-08-10T10:22:46Z</time>
      </trkpt>
      <trkpt lat="47.5201" lon="6.89935">
        <ele>353.3</ele>
        <time>2021-08-10T10:22:47Z</time>
      </trkpt>
      <trkpt lat="47.5201" lon="6.89935">
        <ele>353.3</ele>
        <time>2021-08-10T10:22:48Z</time>
      </trkpt>
      <trkpt lat="47.5201" lon="6.89934">
        <ele>353.3</ele>
        <time>2021-08-10T10:22:49Z</time>
      </trkpt>
      <trkpt lat="47.52011" lon="6.89934">
        <ele>353.4</ele>
        <time>2021-08-10T10:22:50Z</time>
      </trkpt>
      <trkpt lat="47.52011" lon="6.89934">
        <ele>353.4</ele>
        <time>2021-08-10T10:22:52Z</time>
      </trkpt>
      <trkpt lat="47.52011" lon="6.89934">
        <ele>353.4</ele>
        <time>2021-08-10T10:22:54Z</time>
      </trkpt>
      <trkpt lat="47.5201" lon="6.89934">
        <ele>353.4</ele>
        <time>2021-08-10T10:22:55Z</time>
      </trkpt>
      <trkpt lat="47.5201" lon="6.89934">
        <ele>353.4</ele>
        <time>2021-08-10T10:22:57Z</time>
      </trkpt>
      <trkpt lat="47.5201" lon="6.89934">
        <ele>353.4</ele>
        <time>2021-08-10T10:22:58Z</time>
      </trkpt>
      <trkpt lat="47.5201" lon="6.89934">
        <ele>353.4</ele>
        <time>2021-08-10T10:22:59Z</time>
      </trkpt>
      <trkpt lat="47.52012" lon="6.89957">
        <ele>354</ele>
        <time>2021-08-10T10:23:17Z</time>
      </trkpt>
      <trkpt lat="47.5201" lon="6.89961">
        <ele>354</ele>
        <time>2021-08-10T10:23:18Z</time>
      </trkpt>
      <trkpt lat="47.52008" lon="6.89965">
        <ele>354.1</ele>
        <time>2021-08-10T10:23:19Z</time>
      </trkpt>
      <trkpt lat="47.52003" lon="6.89973">
        <ele>354.1</ele>
        <time>2021-08-10T10:23:21Z</time>
      </trkpt>
      <trkpt lat="47.51997" lon="6.89981">
        <ele>354.1</ele>
        <time>2021-08-10T10:23:23Z</time>
      </trkpt>
      <trkpt lat="47.51994" lon="6.89985">
        <ele>354</ele>
        <time>2021-08-10T10:23:24Z</time>
      </trkpt>
      <trkpt lat="47.51991" lon="6.89989">
        <ele>354</ele>
        <time>2021-08-10T10:23:25Z</time>
      </trkpt>
      <trkpt lat="47.51988" lon="6.89993">
        <ele>353.9</ele>
        <time>2021-08-10T10:23:26Z</time>
      </trkpt>
      <trkpt lat="47.51983" lon="6.9">
        <ele>353.8</ele>
        <time>2021-08-10T10:23:28Z</time>
      </trkpt>
      <trkpt lat="47.51978" lon="6.90008">
        <ele>353.7</ele>
        <time>2021-08-10T10:23:30Z</time>
      </trkpt>
      <trkpt lat="47.51974" lon="6.90015">
        <ele>353.7</ele>
        <time>2021-08-10T10:23:32Z</time>
      </trkpt>
      <trkpt lat="47.51971" lon="6.90019">
        <ele>353.7</ele>
        <time>2021-08-10T10:23:33Z</time>
      </trkpt>
      <trkpt lat="47.51968" lon="6.90024">
        <ele>353.7</ele>
        <time>2021-08-10T10:23:34Z</time>
      </trkpt>
      <trkpt lat="47.51965" lon="6.90028">
        <ele>353.7</ele>
        <time>2021-08-10T10:23:36Z</time>
      </trkpt>
      <trkpt lat="47.51962" lon="6.90033">
        <ele>353.7</ele>
        <time>2021-08-10T10:23:37Z</time>
      </trkpt>
      <trkpt lat="47.51959" lon="6.90038">
        <ele>353.7</ele>
        <time>2021-08-10T10:23:38Z</time>
      </trkpt>
      <trkpt lat="47.51957" lon="6.90042">
        <ele>353.7</ele>
        <time>2021-08-10T10:23:39Z</time>
      </trkpt>
      <trkpt lat="47.51954" lon="6.90047">
        <ele>353.8</ele>
        <time>2021-08-10T10:23:40Z</time>
      </trkpt>
      <trkpt lat="47.51951" lon="6.90051">
        <ele>353.8</ele>
        <time>2021-08-10T10:23:41Z</time>
      </trkpt>
      <trkpt lat="47.51948" lon="6.90057">
        <ele>353.9</ele>
        <time>2021-08-10T10:23:42Z</time>
      </trkpt>
      <trkpt lat="47.51944" lon="6.90065">
        <ele>354.1</ele>
        <time>2021-08-10T10:23:44Z</time>
      </trkpt>
      <trkpt lat="47.5194" lon="6.90071">
        <ele>354.2</ele>
        <time>2021-08-10T10:23:45Z</time>
      </trkpt>
      <trkpt lat="47.51935" lon="6.9008">
        <ele>354.5</ele>
        <time>2021-08-10T10:23:47Z</time>
      </trkpt>
      <trkpt lat="47.51932" lon="6.90085">
        <ele>354.7</ele>
        <time>2021-08-10T10:23:48Z</time>
      </trkpt>
      <trkpt lat="47.51928" lon="6.90091">
        <ele>354.9</ele>
        <time>2021-08-10T10:23:49Z</time>
      </trkpt>
      <trkpt lat="47.51924" lon="6.90097">
        <ele>355.2</ele>
        <time>2021-08-10T10:23:51Z</time>
      </trkpt>
      <trkpt lat="47.51921" lon="6.90101">
        <ele>355.4</ele>
        <time>2021-08-10T10:23:52Z</time>
      </trkpt>
      <trkpt lat="47.51918" lon="6.90105">
        <ele>355.7</ele>
        <time>2021-08-10T10:23:53Z</time>
      </trkpt>
      <trkpt lat="47.51914" lon="6.9011">
        <ele>356</ele>
        <time>2021-08-10T10:23:55Z</time>
      </trkpt>
      <trkpt lat="47.51911" lon="6.90112">
        <ele>356.2</ele>
        <time>2021-08-10T10:23:56Z</time>
      </trkpt>
      <trkpt lat="47.51908" lon="6.90117">
        <ele>356.6</ele>
        <time>2021-08-10T10:23:58Z</time>
      </trkpt>
      <trkpt lat="47.51905" lon="6.9012">
        <ele>356.8</ele>
        <time>2021-08-10T10:23:59Z</time>
      </trkpt>
      <trkpt lat="47.51903" lon="6.90123">
        <ele>357</ele>
        <time>2021-08-10T10:24:01Z</time>
      </trkpt>
      <trkpt lat="47.51901" lon="6.90125">
        <ele>357.3</ele>
        <time>2021-08-10T10:24:02Z</time>
      </trkpt>
      <trkpt lat="47.51898" lon="6.90128">
        <ele>357.6</ele>
        <time>2021-08-10T10:24:03Z</time>
      </trkpt>
      <trkpt lat="47.51897" lon="6.90129">
        <ele>357.7</ele>
        <time>2021-08-10T10:24:04Z</time>
      </trkpt>
      <trkpt lat="47.51895" lon="6.90132">
        <ele>357.9</ele>
        <time>2021-08-10T10:24:05Z</time>
      </trkpt>
      <trkpt lat="47.51894" lon="6.90133">
        <ele>358</ele>
        <time>2021-08-10T10:24:06Z</time>
      </trkpt>
      <trkpt lat="47.51892" lon="6.90136">
        <ele>358.3</ele>
        <time>2021-08-10T10:24:07Z</time>
      </trkpt>
      <trkpt lat="47.51892" lon="6.90137">
        <ele>358.4</ele>
        <time>2021-08-10T10:24:08Z</time>
      </trkpt>
      <trkpt lat="47.5189" lon="6.90139">
        <ele>358.6</ele>
        <time>2021-08-10T10:24:09Z</time>
      </trkpt>
      <trkpt lat="47.51889" lon="6.90141">
        <ele>358.8</ele>
        <time>2021-08-10T10:24:11Z</time>
      </trkpt>
      <trkpt lat="47.51887" lon="6.90145">
        <ele>359</ele>
        <time>2021-08-10T10:24:12Z</time>
      </trkpt>
      <trkpt lat="47.51886" lon="6.90146">
        <ele>359.1</ele>
        <time>2021-08-10T10:24:13Z</time>
      </trkpt>
      <trkpt lat="47.51884" lon="6.9015">
        <ele>359.5</ele>
        <time>2021-08-10T10:24:14Z</time>
      </trkpt>
      <trkpt lat="47.51884" lon="6.90151">
        <ele>359.6</ele>
        <time>2021-08-10T10:24:15Z</time>
      </trkpt>
      <trkpt lat="47.51882" lon="6.90154">
        <ele>359.9</ele>
        <time>2021-08-10T10:24:16Z</time>
      </trkpt>
      <trkpt lat="47.51881" lon="6.90155">
        <ele>360</ele>
        <time>2021-08-10T10:24:17Z</time>
      </trkpt>
      <trkpt lat="47.51879" lon="6.90158">
        <ele>360.3</ele>
        <time>2021-08-10T10:24:18Z</time>
      </trkpt>
      <trkpt lat="47.51877" lon="6.90161">
        <ele>360.3</ele>
        <time>2021-08-10T10:24:19Z</time>
      </trkpt>
      <trkpt lat="47.51875" lon="6.90163">
        <ele>360.3</ele>
        <time>2021-08-10T10:24:21Z</time>
      </trkpt>
      <trkpt lat="47.51873" lon="6.90167">
        <ele>360.3</ele>
        <time>2021-08-10T10:24:22Z</time>
      </trkpt>
      <trkpt lat="47.51872" lon="6.90168">
        <ele>360.3</ele>
        <time>2021-08-10T10:24:23Z</time>
      </trkpt>
      <trkpt lat="47.5187" lon="6.90171">
        <ele>360.3</ele>
        <time>2021-08-10T10:24:24Z</time>
      </trkpt>
      <trkpt lat="47.51869" lon="6.90172">
        <ele>360.3</ele>
        <time>2021-08-10T10:24:25Z</time>
      </trkpt>
      <trkpt lat="47.51869" lon="6.90176">
        <ele>360.3</ele>
        <time>2021-08-10T10:24:27Z</time>
      </trkpt>
      <trkpt lat="47.51868" lon="6.90178">
        <ele>360.3</ele>
        <time>2021-08-10T10:24:28Z</time>
      </trkpt>
      <trkpt lat="47.51867" lon="6.9018">
        <ele>360.3</ele>
        <time>2021-08-10T10:24:29Z</time>
      </trkpt>
      <trkpt lat="47.51866" lon="6.90185">
        <ele>360.3</ele>
        <time>2021-08-10T10:24:31Z</time>
      </trkpt>
      <trkpt lat="47.51865" lon="6.90187">
        <ele>360.3</ele>
        <time>2021-08-10T10:24:32Z</time>
      </trkpt>
      <trkpt lat="47.51863" lon="6.9019">
        <ele>360.3</ele>
        <time>2021-08-10T10:24:34Z</time>
      </trkpt>
      <trkpt lat="47.5186" lon="6.90193">
        <ele>360.3</ele>
        <time>2021-08-10T10:24:35Z</time>
      </trkpt>
      <trkpt lat="47.51859" lon="6.90193">
        <ele>360.3</ele>
        <time>2021-08-10T10:24:36Z</time>
      </trkpt>
      <trkpt lat="47.51857" lon="6.90194">
        <ele>360.3</ele>
        <time>2021-08-10T10:24:37Z</time>
      </trkpt>
      <trkpt lat="47.51854" lon="6.90195">
        <ele>360.3</ele>
        <time>2021-08-10T10:24:39Z</time>
      </trkpt>
      <trkpt lat="47.51853" lon="6.90195">
        <ele>360.4</ele>
        <time>2021-08-10T10:24:40Z</time>
      </trkpt>
      <trkpt lat="47.51852" lon="6.90194">
        <ele>360.5</ele>
        <time>2021-08-10T10:24:41Z</time>
      </trkpt>
      <trkpt lat="47.5185" lon="6.90193">
        <ele>360.6</ele>
        <time>2021-08-10T10:24:43Z</time>
      </trkpt>
      <trkpt lat="47.51849" lon="6.90188">
        <ele>360.9</ele>
        <time>2021-08-10T10:24:44Z</time>
      </trkpt>
      <trkpt lat="47.51849" lon="6.90184">
        <ele>361.1</ele>
        <time>2021-08-10T10:24:45Z</time>
      </trkpt>
      <trkpt lat="47.51849" lon="6.90181">
        <ele>361.2</ele>
        <time>2021-08-10T10:24:46Z</time>
      </trkpt>
      <trkpt lat="47.51848" lon="6.90176">
        <ele>361.5</ele>
        <time>2021-08-10T10:24:48Z</time>
      </trkpt>
      <trkpt lat="47.51847" lon="6.90172">
        <ele>361.7</ele>
        <time>2021-08-10T10:24:49Z</time>
      </trkpt>
      <trkpt lat="47.51844" lon="6.90167">
        <ele>362</ele>
        <time>2021-08-10T10:24:51Z</time>
      </trkpt>
      <trkpt lat="47.51842" lon="6.90163">
        <ele>362.3</ele>
        <time>2021-08-10T10:24:52Z</time>
      </trkpt>
      <trkpt lat="47.51841" lon="6.90159">
        <ele>362.5</ele>
        <time>2021-08-10T10:24:54Z</time>
      </trkpt>
      <trkpt lat="47.5184" lon="6.90157">
        <ele>362.6</ele>
        <time>2021-08-10T10:24:55Z</time>
      </trkpt>
      <trkpt lat="47.51839" lon="6.90152">
        <ele>362.9</ele>
        <time>2021-08-10T10:24:57Z</time>
      </trkpt>
      <trkpt lat="47.51839" lon="6.9015">
        <ele>363</ele>
        <time>2021-08-10T10:24:58Z</time>
      </trkpt>
      <trkpt lat="47.5184" lon="6.90147">
        <ele>363.2</ele>
        <time>2021-08-10T10:24:59Z</time>
      </trkpt>
      <trkpt lat="47.5184" lon="6.90146">
        <ele>363.3</ele>
        <time>2021-08-10T10:25:01Z</time>
      </trkpt>
      <trkpt lat="47.5184" lon="6.90144">
        <ele>363.4</ele>
        <time>2021-08-10T10:25:02Z</time>
      </trkpt>
      <trkpt lat="47.5184" lon="6.90143">
        <ele>363.5</ele>
        <time>2021-08-10T10:25:03Z</time>
      </trkpt>
      <trkpt lat="47.51839" lon="6.90141">
        <ele>363.5</ele>
        <time>2021-08-10T10:25:05Z</time>
      </trkpt>
      <trkpt lat="47.51839" lon="6.9014">
        <ele>363.6</ele>
        <time>2021-08-10T10:25:06Z</time>
      </trkpt>
      <trkpt lat="47.51839" lon="6.90138">
        <ele>363.7</ele>
        <time>2021-08-10T10:25:08Z</time>
      </trkpt>
      <trkpt lat="47.51839" lon="6.90137">
        <ele>363.8</ele>
        <time>2021-08-10T10:25:09Z</time>
      </trkpt>
      <trkpt lat="47.51839" lon="6.90134">
        <ele>363.9</ele>
        <time>2021-08-10T10:25:11Z</time>
      </trkpt>
      <trkpt lat="47.51838" lon="6.90132">
        <ele>364</ele>
        <time>2021-08-10T10:25:12Z</time>
      </trkpt>
      <trkpt lat="47.51788" lon="6.9008">
        <ele>368.8</ele>
        <time>2021-08-10T10:26:13Z</time>
      </trkpt>
      <trkpt lat="47.51784" lon="6.90073">
        <ele>369.2</ele>
        <time>2021-08-10T10:26:15Z</time>
      </trkpt>
      <trkpt lat="47.51783" lon="6.90069">
        <ele>369.4</ele>
        <time>2021-08-10T10:26:16Z</time>
      </trkpt>
      <trkpt lat="47.51781" lon="6.90064">
        <ele>369.7</ele>
        <time>2021-08-10T10:26:18Z</time>
      </trkpt>
      <trkpt lat="47.5178" lon="6.90061">
        <ele>369.8</ele>
        <time>2021-08-10T10:26:19Z</time>
      </trkpt>
      <trkpt lat="47.5178" lon="6.90058">
        <ele>370</ele>
        <time>2021-08-10T10:26:21Z</time>
      </trkpt>
      <trkpt lat="47.51779" lon="6.90057">
        <ele>370.1</ele>
        <time>2021-08-10T10:26:22Z</time>
      </trkpt>
      <trkpt lat="47.51777" lon="6.90055">
        <ele>370.2</ele>
        <time>2021-08-10T10:26:23Z</time>
      </trkpt>
      <trkpt lat="47.51775" lon="6.90052">
        <ele>370.4</ele>
        <time>2021-08-10T10:26:24Z</time>
      </trkpt>
      <trkpt lat="47.51774" lon="6.90052">
        <ele>370.5</ele>
        <time>2021-08-10T10:26:25Z</time>
      </trkpt>
      <trkpt lat="47.51773" lon="6.90051">
        <ele>370.6</ele>
        <time>2021-08-10T10:26:26Z</time>
      </trkpt>
      <trkpt lat="47.51772" lon="6.9005">
        <ele>370.7</ele>
        <time>2021-08-10T10:26:27Z</time>
      </trkpt>
      <trkpt lat="47.51769" lon="6.90048">
        <ele>370.9</ele>
        <time>2021-08-10T10:26:29Z</time>
      </trkpt>
      <trkpt lat="47.51767" lon="6.90046">
        <ele>371.1</ele>
        <time>2021-08-10T10:26:30Z</time>
      </trkpt>
      <trkpt lat="47.51764" lon="6.90044">
        <ele>371.3</ele>
        <time>2021-08-10T10:26:32Z</time>
      </trkpt>
      <trkpt lat="47.51762" lon="6.90042">
        <ele>371.6</ele>
        <time>2021-08-10T10:26:33Z</time>
      </trkpt>
      <trkpt lat="47.51761" lon="6.90042">
        <ele>371.6</ele>
        <time>2021-08-10T10:26:34Z</time>
      </trkpt>
      <trkpt lat="47.51759" lon="6.90041">
        <ele>371.8</ele>
        <time>2021-08-10T10:26:35Z</time>
      </trkpt>
      <trkpt lat="47.51755" lon="6.9004">
        <ele>372.1</ele>
        <time>2021-08-10T10:26:37Z</time>
      </trkpt>
      <trkpt lat="47.51753" lon="6.90039">
        <ele>372.2</ele>
        <time>2021-08-10T10:26:39Z</time>
      </trkpt>
      <trkpt lat="47.51752" lon="6.90039">
        <ele>372.4</ele>
        <time>2021-08-10T10:26:40Z</time>
      </trkpt>
      <trkpt lat="47.51749" lon="6.90038">
        <ele>372.6</ele>
        <time>2021-08-10T10:26:41Z</time>
      </trkpt>
      <trkpt lat="47.51748" lon="6.90038">
        <ele>372.7</ele>
        <time>2021-08-10T10:26:42Z</time>
      </trkpt>
      <trkpt lat="47.51746" lon="6.90038">
        <ele>372.9</ele>
        <time>2021-08-10T10:26:43Z</time>
      </trkpt>
      <trkpt lat="47.51742" lon="6.90038">
        <ele>373.2</ele>
        <time>2021-08-10T10:26:45Z</time>
      </trkpt>
      <trkpt lat="47.51741" lon="6.90038">
        <ele>373.3</ele>
        <time>2021-08-10T10:26:46Z</time>
      </trkpt>
      <trkpt lat="47.51739" lon="6.90037">
        <ele>373.4</ele>
        <time>2021-08-10T10:26:47Z</time>
      </trkpt>
      <trkpt lat="47.51736" lon="6.90036">
        <ele>373.7</ele>
        <time>2021-08-10T10:26:49Z</time>
      </trkpt>
      <trkpt lat="47.51733" lon="6.90035">
        <ele>373.9</ele>
        <time>2021-08-10T10:26:50Z</time>
      </trkpt>
      <trkpt lat="47.51732" lon="6.90035">
        <ele>374</ele>
        <time>2021-08-10T10:26:51Z</time>
      </trkpt>
      <trkpt lat="47.51732" lon="6.90033">
        <ele>374.1</ele>
        <time>2021-08-10T10:26:52Z</time>
      </trkpt>
      <trkpt lat="47.51731" lon="6.90031">
        <ele>374.2</ele>
        <time>2021-08-10T10:26:53Z</time>
      </trkpt>
      <trkpt lat="47.51731" lon="6.90026">
        <ele>374.5</ele>
        <time>2021-08-10T10:26:55Z</time>
      </trkpt>
      <trkpt lat="47.51731" lon="6.90025">
        <ele>374.6</ele>
        <time>2021-08-10T10:26:56Z</time>
      </trkpt>
      <trkpt lat="47.51731" lon="6.90024">
        <ele>374.7</ele>
        <time>2021-08-10T10:26:57Z</time>
      </trkpt>
      <trkpt lat="47.51731" lon="6.90023">
        <ele>374.7</ele>
        <time>2021-08-10T10:26:58Z</time>
      </trkpt>
      <trkpt lat="47.51732" lon="6.90021">
        <ele>374.8</ele>
        <time>2021-08-10T10:26:59Z</time>
      </trkpt>
      <trkpt lat="47.51733" lon="6.90021">
        <ele>374.9</ele>
        <time>2021-08-10T10:27:01Z</time>
      </trkpt>
      <trkpt lat="47.51733" lon="6.90021">
        <ele>374.9</ele>
        <time>2021-08-10T10:27:02Z</time>
      </trkpt>
      <trkpt lat="47.51733" lon="6.90022">
        <ele>374.9</ele>
        <time>2021-08-10T10:27:03Z</time>
      </trkpt>
      <trkpt lat="47.51733" lon="6.90022">
        <ele>374.9</ele>
        <time>2021-08-10T10:27:05Z</time>
      </trkpt>
      <trkpt lat="47.51733" lon="6.90022">
        <ele>375</ele>
        <time>2021-08-10T10:27:06Z</time>
      </trkpt>
      <trkpt lat="47.51731" lon="6.90023">
        <ele>375.1</ele>
        <time>2021-08-10T10:27:08Z</time>
      </trkpt>
      <trkpt lat="47.51615" lon="6.89898">
        <ele>386.1</ele>
        <time>2021-08-10T10:29:29Z</time>
      </trkpt>
      <trkpt lat="47.51612" lon="6.89895">
        <ele>386.4</ele>
        <time>2021-08-10T10:29:30Z</time>
      </trkpt>
      <trkpt lat="47.51608" lon="6.89892">
        <ele>386.7</ele>
        <time>2021-08-10T10:29:32Z</time>
      </trkpt>
      <trkpt lat="47.51607" lon="6.8989">
        <ele>386.8</ele>
        <time>2021-08-10T10:29:33Z</time>
      </trkpt>
      <trkpt lat="47.51606" lon="6.89889">
        <ele>386.9</ele>
        <time>2021-08-10T10:29:34Z</time>
      </trkpt>
      <trkpt lat="47.51605" lon="6.89885">
        <ele>387.1</ele>
        <time>2021-08-10T10:29:36Z</time>
      </trkpt>
      <trkpt lat="47.51605" lon="6.89884">
        <ele>387.2</ele>
        <time>2021-08-10T10:29:37Z</time>
      </trkpt>
      <trkpt lat="47.51604" lon="6.89883">
        <ele>387.2</ele>
        <time>2021-08-10T10:29:38Z</time>
      </trkpt>
      <trkpt lat="47.51604" lon="6.89882">
        <ele>387.3</ele>
        <time>2021-08-10T10:29:40Z</time>
      </trkpt>
      <trkpt lat="47.51603" lon="6.89881">
        <ele>387.4</ele>
        <time>2021-08-10T10:29:41Z</time>
      </trkpt>
      <trkpt lat="47.51602" lon="6.89879">
        <ele>387.5</ele>
        <time>2021-08-10T10:29:42Z</time>
      </trkpt>
      <trkpt lat="47.51601" lon="6.89878">
        <ele>387.6</ele>
        <time>2021-08-10T10:29:43Z</time>
      </trkpt>
      <trkpt lat="47.51601" lon="6.89877">
        <ele>387.6</ele>
        <time>2021-08-10T10:29:44Z</time>
      </trkpt>
      <trkpt lat="47.516" lon="6.89875">
        <ele>387.7</ele>
        <time>2021-08-10T10:29:46Z</time>
      </trkpt>
      <trkpt lat="47.51481" lon="6.89787">
        <ele>393.2</ele>
        <time>2021-08-10T10:31:53Z</time>
      </trkpt>
      <trkpt lat="47.51478" lon="6.89784">
        <ele>393.3</ele>
        <time>2021-08-10T10:31:54Z</time>
      </trkpt>
      <trkpt lat="47.51475" lon="6.89781">
        <ele>393.3</ele>
        <time>2021-08-10T10:31:55Z</time>
      </trkpt>
      <trkpt lat="47.51474" lon="6.8978">
        <ele>393.4</ele>
        <time>2021-08-10T10:31:56Z</time>
      </trkpt>
      <trkpt lat="47.51471" lon="6.89777">
        <ele>393.4</ele>
        <time>2021-08-10T10:31:58Z</time>
      </trkpt>
      <trkpt lat="47.51469" lon="6.89774">
        <ele>393.4</ele>
        <time>2021-08-10T10:31:59Z</time>
      </trkpt>
      <trkpt lat="47.51465" lon="6.89769">
        <ele>393.5</ele>
        <time>2021-08-10T10:32:01Z</time>
      </trkpt>
      <trkpt lat="47.51464" lon="6.89768">
        <ele>393.5</ele>
        <time>2021-08-10T10:32:02Z</time>
      </trkpt>
      <trkpt lat="47.51462" lon="6.89768">
        <ele>393.5</ele>
        <time>2021-08-10T10:32:03Z</time>
      </trkpt>
      <trkpt lat="47.5146" lon="6.89767">
        <ele>393.5</ele>
        <time>2021-08-10T10:32:04Z</time>
      </trkpt>
      <trkpt lat="47.51456" lon="6.89765">
        <ele>393.4</ele>
        <time>2021-08-10T10:32:06Z</time>
      </trkpt>
      <trkpt lat="47.51453" lon="6.89764">
        <ele>393.4</ele>
        <time>2021-08-10T10:32:07Z</time>
      </trkpt>
      <trkpt lat="47.51448" lon="6.89762">
        <ele>393.4</ele>
        <time>2021-08-10T10:32:09Z</time>
      </trkpt>
      <trkpt lat="47.51444" lon="6.8976">
        <ele>393.3</ele>
        <time>2021-08-10T10:32:10Z</time>
      </trkpt>
      <trkpt lat="47.51438" lon="6.89758">
        <ele>393.2</ele>
        <time>2021-08-10T10:32:12Z</time>
      </trkpt>
      <trkpt lat="47.51433" lon="6.89756">
        <ele>393.1</ele>
        <time>2021-08-10T10:32:13Z</time>
      </trkpt>
      <trkpt lat="47.51425" lon="6.89753">
        <ele>392.9</ele>
        <time>2021-08-10T10:32:15Z</time>
      </trkpt>
      <trkpt lat="47.5142" lon="6.89751">
        <ele>392.8</ele>
        <time>2021-08-10T10:32:16Z</time>
      </trkpt>
      <trkpt lat="47.51414" lon="6.89749">
        <ele>392.7</ele>
        <time>2021-08-10T10:32:17Z</time>
      </trkpt>
      <trkpt lat="47.5141" lon="6.89747">
        <ele>392.6</ele>
        <time>2021-08-10T10:32:18Z</time>
      </trkpt>
      <trkpt lat="47.51406" lon="6.89745">
        <ele>392.6</ele>
        <time>2021-08-10T10:32:19Z</time>
      </trkpt>
      <trkpt lat="47.51398" lon="6.89742">
        <ele>392.5</ele>
        <time>2021-08-10T10:32:21Z</time>
      </trkpt>
      <trkpt lat="47.51393" lon="6.89739">
        <ele>392.5</ele>
        <time>2021-08-10T10:32:22Z</time>
      </trkpt>
      <trkpt lat="47.51386" lon="6.89735">
        <ele>392.6</ele>
        <time>2021-08-10T10:32:24Z</time>
      </trkpt>
      <trkpt lat="47.51382" lon="6.89732">
        <ele>392.6</ele>
        <time>2021-08-10T10:32:25Z</time>
      </trkpt>
      <trkpt lat="47.51378" lon="6.8973">
        <ele>392.6</ele>
        <time>2021-08-10T10:32:26Z</time>
      </trkpt>
      <trkpt lat="47.51371" lon="6.89724">
        <ele>392.7</ele>
        <time>2021-08-10T10:32:28Z</time>
      </trkpt>
      <trkpt lat="47.51367" lon="6.89722">
        <ele>392.8</ele>
        <time>2021-08-10T10:32:29Z</time>
      </trkpt>
      <trkpt lat="47.51364" lon="6.89719">
        <ele>392.8</ele>
        <time>2021-08-10T10:32:30Z</time>
      </trkpt>
      <trkpt lat="47.5136" lon="6.89717">
        <ele>392.9</ele>
        <time>2021-08-10T10:32:31Z</time>
      </trkpt>
      <trkpt lat="47.51356" lon="6.89714">
        <ele>393</ele>
        <time>2021-08-10T10:32:33Z</time>
      </trkpt>
      <trkpt lat="47.51353" lon="6.89713">
        <ele>393</ele>
        <time>2021-08-10T10:32:34Z</time>
      </trkpt>
      <trkpt lat="47.5135" lon="6.8971">
        <ele>393.1</ele>
        <time>2021-08-10T10:32:35Z</time>
      </trkpt>
      <trkpt lat="47.51347" lon="6.89707">
        <ele>393.1</ele>
        <time>2021-08-10T10:32:36Z</time>
      </trkpt>
      <trkpt lat="47.51345" lon="6.89705">
        <ele>393.1</ele>
        <time>2021-08-10T10:32:37Z</time>
      </trkpt>
      <trkpt lat="47.51343" lon="6.89701">
        <ele>393.2</ele>
        <time>2021-08-10T10:32:38Z</time>
      </trkpt>
      <trkpt lat="47.51341" lon="6.89697">
        <ele>393.2</ele>
        <time>2021-08-10T10:32:39Z</time>
      </trkpt>
      <trkpt lat="47.5134" lon="6.89694">
        <ele>393.3</ele>
        <time>2021-08-10T10:32:40Z</time>
      </trkpt>
      <trkpt lat="47.51338" lon="6.89691">
        <ele>393.3</ele>
        <time>2021-08-10T10:32:42Z</time>
      </trkpt>
      <trkpt lat="47.51335" lon="6.89687">
        <ele>393.4</ele>
        <time>2021-08-10T10:32:43Z</time>
      </trkpt>
      <trkpt lat="47.51332" lon="6.89684">
        <ele>393.5</ele>
        <time>2021-08-10T10:32:45Z</time>
      </trkpt>
      <trkpt lat="47.51329" lon="6.89681">
        <ele>393.6</ele>
        <time>2021-08-10T10:32:46Z</time>
      </trkpt>
      <trkpt lat="47.51326" lon="6.89678">
        <ele>393.7</ele>
        <time>2021-08-10T10:32:47Z</time>
      </trkpt>
      <trkpt lat="47.51325" lon="6.89677">
        <ele>393.8</ele>
        <time>2021-08-10T10:32:48Z</time>
      </trkpt>
      <trkpt lat="47.51322" lon="6.89674">
        <ele>393.8</ele>
        <time>2021-08-10T10:32:49Z</time>
      </trkpt>
      <trkpt lat="47.51321" lon="6.89673">
        <ele>393.9</ele>
        <time>2021-08-10T10:32:50Z</time>
      </trkpt>
      <trkpt lat="47.51319" lon="6.89672">
        <ele>394</ele>
        <time>2021-08-10T10:32:51Z</time>
      </trkpt>
      <trkpt lat="47.51317" lon="6.89669">
        <ele>394</ele>
        <time>2021-08-10T10:32:53Z</time>
      </trkpt>
      <trkpt lat="47.51315" lon="6.89667">
        <ele>394.2</ele>
        <time>2021-08-10T10:32:54Z</time>
      </trkpt>
      <trkpt lat="47.51314" lon="6.89666">
        <ele>394.2</ele>
        <time>2021-08-10T10:32:55Z</time>
      </trkpt>
      <trkpt lat="47.51312" lon="6.89665">
        <ele>394.3</ele>
        <time>2021-08-10T10:32:56Z</time>
      </trkpt>
      <trkpt lat="47.51311" lon="6.89664">
        <ele>394.3</ele>
        <time>2021-08-10T10:32:57Z</time>
      </trkpt>
      <trkpt lat="47.51309" lon="6.89663">
        <ele>394.4</ele>
        <time>2021-08-10T10:32:59Z</time>
      </trkpt>
      <trkpt lat="47.51309" lon="6.89662">
        <ele>394.4</ele>
        <time>2021-08-10T10:33:00Z</time>
      </trkpt>
      <trkpt lat="47.51307" lon="6.89661">
        <ele>394.5</ele>
        <time>2021-08-10T10:33:01Z</time>
      </trkpt>
      <trkpt lat="47.51307" lon="6.89661">
        <ele>394.5</ele>
        <time>2021-08-10T10:33:02Z</time>
      </trkpt>
      <trkpt lat="47.51306" lon="6.8966">
        <ele>394.6</ele>
        <time>2021-08-10T10:33:03Z</time>
      </trkpt>
      <trkpt lat="47.51305" lon="6.8966">
        <ele>394.6</ele>
        <time>2021-08-10T10:33:04Z</time>
      </trkpt>
      <trkpt lat="47.51303" lon="6.89659">
        <ele>394.7</ele>
        <time>2021-08-10T10:33:06Z</time>
      </trkpt>
      <trkpt lat="47.51301" lon="6.89658">
        <ele>394.8</ele>
        <time>2021-08-10T10:33:07Z</time>
      </trkpt>
      <trkpt lat="47.51299" lon="6.89657">
        <ele>394.8</ele>
        <time>2021-08-10T10:33:08Z</time>
      </trkpt>
      <trkpt lat="47.51298" lon="6.89656">
        <ele>394.9</ele>
        <time>2021-08-10T10:33:09Z</time>
      </trkpt>
      <trkpt lat="47.51296" lon="6.89656">
        <ele>395</ele>
        <time>2021-08-10T10:33:11Z</time>
      </trkpt>
      <trkpt lat="47.51295" lon="6.89655">
        <ele>395.1</ele>
        <time>2021-08-10T10:33:12Z</time>
      </trkpt>
      <trkpt lat="47.51292" lon="6.89654">
        <ele>395.2</ele>
        <time>2021-08-10T10:33:14Z</time>
      </trkpt>
      <trkpt lat="47.51291" lon="6.89654">
        <ele>395.3</ele>
        <time>2021-08-10T10:33:15Z</time>
      </trkpt>
      <trkpt lat="47.51289" lon="6.89654">
        <ele>395.4</ele>
        <time>2021-08-10T10:33:17Z</time>
      </trkpt>
      <trkpt lat="47.51288" lon="6.89654">
        <ele>395.4</ele>
        <time>2021-08-10T10:33:18Z</time>
      </trkpt>
      <trkpt lat="47.51286" lon="6.89654">
        <ele>395.5</ele>
        <time>2021-08-10T10:33:19Z</time>
      </trkpt>
      <trkpt lat="47.51283" lon="6.89654">
        <ele>395.7</ele>
        <time>2021-08-10T10:33:20Z</time>
      </trkpt>
      <trkpt lat="47.51281" lon="6.89654">
        <ele>395.8</ele>
        <time>2021-08-10T10:33:22Z</time>
      </trkpt>
      <trkpt lat="47.51278" lon="6.89653">
        <ele>396</ele>
        <time>2021-08-10T10:33:23Z</time>
      </trkpt>
      <trkpt lat="47.51277" lon="6.89653">
        <ele>396</ele>
        <time>2021-08-10T10:33:24Z</time>
      </trkpt>
      <trkpt lat="47.51274" lon="6.89652">
        <ele>396.2</ele>
        <time>2021-08-10T10:33:26Z</time>
      </trkpt>
      <trkpt lat="47.51272" lon="6.89652">
        <ele>396.3</ele>
        <time>2021-08-10T10:33:27Z</time>
      </trkpt>
      <trkpt lat="47.51269" lon="6.89651">
        <ele>396.5</ele>
        <time>2021-08-10T10:33:29Z</time>
      </trkpt>
      <trkpt lat="47.51266" lon="6.8965">
        <ele>396.6</ele>
        <time>2021-08-10T10:33:30Z</time>
      </trkpt>
      <trkpt lat="47.51265" lon="6.8965">
        <ele>396.7</ele>
        <time>2021-08-10T10:33:31Z</time>
      </trkpt>
      <trkpt lat="47.51263" lon="6.89649">
        <ele>396.8</ele>
        <time>2021-08-10T10:33:32Z</time>
      </trkpt>
      <trkpt lat="47.51262" lon="6.89648">
        <ele>396.9</ele>
        <time>2021-08-10T10:33:33Z</time>
      </trkpt>
      <trkpt lat="47.51261" lon="6.89647">
        <ele>396.9</ele>
        <time>2021-08-10T10:33:34Z</time>
      </trkpt>
      <trkpt lat="47.51259" lon="6.89646">
        <ele>397</ele>
        <time>2021-08-10T10:33:36Z</time>
      </trkpt>
      <trkpt lat="47.51258" lon="6.89645">
        <ele>397.1</ele>
        <time>2021-08-10T10:33:37Z</time>
      </trkpt>
      <trkpt lat="47.51257" lon="6.89644">
        <ele>397.2</ele>
        <time>2021-08-10T10:33:38Z</time>
      </trkpt>
      <trkpt lat="47.51256" lon="6.89643">
        <ele>397.2</ele>
        <time>2021-08-10T10:33:39Z</time>
      </trkpt>
      <trkpt lat="47.51256" lon="6.89642">
        <ele>397.2</ele>
        <time>2021-08-10T10:33:41Z</time>
      </trkpt>
      <trkpt lat="47.51255" lon="6.89641">
        <ele>397.3</ele>
        <time>2021-08-10T10:33:42Z</time>
      </trkpt>
      <trkpt lat="47.51254" lon="6.8964">
        <ele>397.3</ele>
        <time>2021-08-10T10:33:43Z</time>
      </trkpt>
      <trkpt lat="47.51253" lon="6.89639">
        <ele>397.4</ele>
        <time>2021-08-10T10:33:44Z</time>
      </trkpt>
      <trkpt lat="47.51253" lon="6.89638">
        <ele>397.4</ele>
        <time>2021-08-10T10:33:45Z</time>
      </trkpt>
      <trkpt lat="47.51252" lon="6.89637">
        <ele>397.5</ele>
        <time>2021-08-10T10:33:46Z</time>
      </trkpt>
      <trkpt lat="47.51251" lon="6.89635">
        <ele>397.5</ele>
        <time>2021-08-10T10:33:47Z</time>
      </trkpt>
      <trkpt lat="47.5125" lon="6.89633">
        <ele>397.6</ele>
        <time>2021-08-10T10:33:49Z</time>
      </trkpt>
      <trkpt lat="47.5125" lon="6.89631">
        <ele>397.6</ele>
        <time>2021-08-10T10:33:50Z</time>
      </trkpt>
      <trkpt lat="47.51249" lon="6.8963">
        <ele>397.7</ele>
        <time>2021-08-10T10:33:51Z</time>
      </trkpt>
      <trkpt lat="47.51249" lon="6.89629">
        <ele>397.7</ele>
        <time>2021-08-10T10:33:53Z</time>
      </trkpt>
      <trkpt lat="47.51247" lon="6.89626">
        <ele>397.8</ele>
        <time>2021-08-10T10:33:55Z</time>
      </trkpt>
      <trkpt lat="47.51246" lon="6.89624">
        <ele>397.8</ele>
        <time>2021-08-10T10:33:56Z</time>
      </trkpt>
      <trkpt lat="47.51245" lon="6.89622">
        <ele>397.9</ele>
        <time>2021-08-10T10:33:58Z</time>
      </trkpt>
      <trkpt lat="47.51244" lon="6.8962">
        <ele>398</ele>
        <time>2021-08-10T10:33:59Z</time>
      </trkpt>
      <trkpt lat="47.51242" lon="6.89617">
        <ele>398.1</ele>
        <time>2021-08-10T10:34:01Z</time>
      </trkpt>
      <trkpt lat="47.51239" lon="6.89616">
        <ele>398.1</ele>
        <time>2021-08-10T10:34:02Z</time>
      </trkpt>
      <trkpt lat="47.51238" lon="6.89615">
        <ele>398.2</ele>
        <time>2021-08-10T10:34:04Z</time>
      </trkpt>
      <trkpt lat="47.51236" lon="6.89615">
        <ele>398.2</ele>
        <time>2021-08-10T10:34:05Z</time>
      </trkpt>
      <trkpt lat="47.51234" lon="6.89614">
        <ele>398.3</ele>
        <time>2021-08-10T10:34:06Z</time>
      </trkpt>
      <trkpt lat="47.51233" lon="6.89615">
        <ele>398.3</ele>
        <time>2021-08-10T10:34:07Z</time>
      </trkpt>
      <trkpt lat="47.51231" lon="6.89614">
        <ele>398.4</ele>
        <time>2021-08-10T10:34:09Z</time>
      </trkpt>
      <trkpt lat="47.51229" lon="6.89614">
        <ele>398.4</ele>
        <time>2021-08-10T10:34:10Z</time>
      </trkpt>
      <trkpt lat="47.51228" lon="6.89614">
        <ele>398.4</ele>
        <time>2021-08-10T10:34:11Z</time>
      </trkpt>
      <trkpt lat="47.51226" lon="6.89614">
        <ele>398.5</ele>
        <time>2021-08-10T10:34:12Z</time>
      </trkpt>
      <trkpt lat="47.51225" lon="6.89614">
        <ele>398.5</ele>
        <time>2021-08-10T10:34:14Z</time>
      </trkpt>
      <trkpt lat="47.51224" lon="6.89613">
        <ele>398.5</ele>
        <time>2021-08-10T10:34:16Z</time>
      </trkpt>
      <trkpt lat="47.51223" lon="6.89612">
        <ele>398.5</ele>
        <time>2021-08-10T10:34:17Z</time>
      </trkpt>
      <trkpt lat="47.51222" lon="6.89611">
        <ele>398.6</ele>
        <time>2021-08-10T10:34:18Z</time>
      </trkpt>
      <trkpt lat="47.51221" lon="6.89609">
        <ele>398.6</ele>
        <time>2021-08-10T10:34:20Z</time>
      </trkpt>
      <trkpt lat="47.5122" lon="6.89609">
        <ele>398.6</ele>
        <time>2021-08-10T10:34:21Z</time>
      </trkpt>
      <trkpt lat="47.5122" lon="6.89608">
        <ele>398.6</ele>
        <time>2021-08-10T10:34:22Z</time>
      </trkpt>
      <trkpt lat="47.51218" lon="6.89608">
        <ele>398.7</ele>
        <time>2021-08-10T10:34:24Z</time>
      </trkpt>
      <trkpt lat="47.51217" lon="6.89607">
        <ele>398.7</ele>
        <time>2021-08-10T10:34:25Z</time>
      </trkpt>
      <trkpt lat="47.51216" lon="6.89607">
        <ele>398.7</ele>
        <time>2021-08-10T10:34:26Z</time>
      </trkpt>
      <trkpt lat="47.51215" lon="6.89606">
        <ele>399.2</ele>
        <time>2021-08-10T10:34:28Z</time>
      </trkpt>
      <trkpt lat="47.51214" lon="6.89606">
        <ele>399.3</ele>
        <time>2021-08-10T10:34:29Z</time>
      </trkpt>
      <trkpt lat="47.51213" lon="6.89605">
        <ele>399.3</ele>
        <time>2021-08-10T10:34:30Z</time>
      </trkpt>
      <trkpt lat="47.51212" lon="6.89604">
        <ele>399.4</ele>
        <time>2021-08-10T10:34:31Z</time>
      </trkpt>
      <trkpt lat="47.51211" lon="6.89604">
        <ele>399.5</ele>
        <time>2021-08-10T10:34:32Z</time>
      </trkpt>
      <trkpt lat="47.51208" lon="6.89602">
        <ele>399.7</ele>
        <time>2021-08-10T10:34:35Z</time>
      </trkpt>
      <trkpt lat="47.51207" lon="6.89601">
        <ele>399.8</ele>
        <time>2021-08-10T10:34:36Z</time>
      </trkpt>
      <trkpt lat="47.51206" lon="6.896">
        <ele>399.8</ele>
        <time>2021-08-10T10:34:37Z</time>
      </trkpt>
      <trkpt lat="47.51206" lon="6.896">
        <ele>399.9</ele>
        <time>2021-08-10T10:34:38Z</time>
      </trkpt>
      <trkpt lat="47.51204" lon="6.896">
        <ele>399.9</ele>
        <time>2021-08-10T10:34:39Z</time>
      </trkpt>
      <trkpt lat="47.51204" lon="6.89601">
        <ele>400</ele>
        <time>2021-08-10T10:34:40Z</time>
      </trkpt>
      <trkpt lat="47.51203" lon="6.89602">
        <ele>400</ele>
        <time>2021-08-10T10:34:42Z</time>
      </trkpt>
      <trkpt lat="47.51202" lon="6.89603">
        <ele>400.1</ele>
        <time>2021-08-10T10:34:43Z</time>
      </trkpt>
      <trkpt lat="47.51201" lon="6.89604">
        <ele>400.2</ele>
        <time>2021-08-10T10:34:44Z</time>
      </trkpt>
      <trkpt lat="47.51198" lon="6.89605">
        <ele>400.3</ele>
        <time>2021-08-10T10:34:45Z</time>
      </trkpt>
      <trkpt lat="47.51198" lon="6.89605">
        <ele>400.4</ele>
        <time>2021-08-10T10:34:46Z</time>
      </trkpt>
      <trkpt lat="47.51196" lon="6.89605">
        <ele>400.4</ele>
        <time>2021-08-10T10:34:48Z</time>
      </trkpt>
      <trkpt lat="47.51194" lon="6.89606">
        <ele>400.4</ele>
        <time>2021-08-10T10:34:49Z</time>
      </trkpt>
      <trkpt lat="47.51193" lon="6.89606">
        <ele>400.3</ele>
        <time>2021-08-10T10:34:50Z</time>
      </trkpt>
      <trkpt lat="47.51192" lon="6.89606">
        <ele>400.3</ele>
        <time>2021-08-10T10:34:51Z</time>
      </trkpt>
      <trkpt lat="47.5119" lon="6.89606">
        <ele>400.3</ele>
        <time>2021-08-10T10:34:52Z</time>
      </trkpt>
      <trkpt lat="47.5119" lon="6.89606">
        <ele>400.3</ele>
        <time>2021-08-10T10:34:54Z</time>
      </trkpt>
      <trkpt lat="47.51189" lon="6.89606">
        <ele>400.3</ele>
        <time>2021-08-10T10:34:55Z</time>
      </trkpt>
      <trkpt lat="47.51189" lon="6.89605">
        <ele>400.2</ele>
        <time>2021-08-10T10:34:56Z</time>
      </trkpt>
      <trkpt lat="47.51189" lon="6.89605">
        <ele>400.2</ele>
        <time>2021-08-10T10:34:58Z</time>
      </trkpt>
      <trkpt lat="47.5119" lon="6.89604">
        <ele>400.2</ele>
        <time>2021-08-10T10:34:59Z</time>
      </trkpt>
      <trkpt lat="47.5119" lon="6.89604">
        <ele>400.2</ele>
        <time>2021-08-10T10:35:01Z</time>
      </trkpt>
      <trkpt lat="47.5119" lon="6.89604">
        <ele>400.2</ele>
        <time>2021-08-10T10:35:02Z</time>
      </trkpt>
      <trkpt lat="47.5119" lon="6.89606">
        <ele>400.2</ele>
        <time>2021-08-10T10:35:04Z</time>
      </trkpt>
      <trkpt lat="47.5119" lon="6.89607">
        <ele>400.2</ele>
        <time>2021-08-10T10:35:05Z</time>
      </trkpt>
      <trkpt lat="47.5119" lon="6.8962">
        <ele>400</ele>
        <time>2021-08-10T10:35:13Z</time>
      </trkpt>
      <trkpt lat="47.51189" lon="6.89625">
        <ele>400</ele>
        <time>2021-08-10T10:35:14Z</time>
      </trkpt>
      <trkpt lat="47.51189" lon="6.89634">
        <ele>399.9</ele>
        <time>2021-08-10T10:35:15Z</time>
      </trkpt>
      <trkpt lat="47.51189" lon="6.89641">
        <ele>399.8</ele>
        <time>2021-08-10T10:35:16Z</time>
      </trkpt>
      <trkpt lat="47.51188" lon="6.8965">
        <ele>399.7</ele>
        <time>2021-08-10T10:35:18Z</time>
      </trkpt>
      <trkpt lat="47.51188" lon="6.89657">
        <ele>399.6</ele>
        <time>2021-08-10T10:35:19Z</time>
      </trkpt>
      <trkpt lat="47.51187" lon="6.89662">
        <ele>399.6</ele>
        <time>2021-08-10T10:35:20Z</time>
      </trkpt>
      <trkpt lat="47.51186" lon="6.89672">
        <ele>399.5</ele>
        <time>2021-08-10T10:35:21Z</time>
      </trkpt>
      <trkpt lat="47.51186" lon="6.89679">
        <ele>399.5</ele>
        <time>2021-08-10T10:35:22Z</time>
      </trkpt>
      <trkpt lat="47.51185" lon="6.89685">
        <ele>399.4</ele>
        <time>2021-08-10T10:35:24Z</time>
      </trkpt>
      <trkpt lat="47.51184" lon="6.89692">
        <ele>399.4</ele>
        <time>2021-08-10T10:35:25Z</time>
      </trkpt>
      <trkpt lat="47.51183" lon="6.89697">
        <ele>399.3</ele>
        <time>2021-08-10T10:35:26Z</time>
      </trkpt>
      <trkpt lat="47.51182" lon="6.89705">
        <ele>399.3</ele>
        <time>2021-08-10T10:35:27Z</time>
      </trkpt>
      <trkpt lat="47.51181" lon="6.89713">
        <ele>399.2</ele>
        <time>2021-08-10T10:35:29Z</time>
      </trkpt>
      <trkpt lat="47.51179" lon="6.89722">
        <ele>399.1</ele>
        <time>2021-08-10T10:35:31Z</time>
      </trkpt>
      <trkpt lat="47.51178" lon="6.89727">
        <ele>399.1</ele>
        <time>2021-08-10T10:35:32Z</time>
      </trkpt>
      <trkpt lat="47.51176" lon="6.89737">
        <ele>399</ele>
        <time>2021-08-10T10:35:33Z</time>
      </trkpt>
      <trkpt lat="47.51173" lon="6.89748">
        <ele>398.9</ele>
        <time>2021-08-10T10:35:36Z</time>
      </trkpt>
      <trkpt lat="47.5117" lon="6.89752">
        <ele>398.9</ele>
        <time>2021-08-10T10:35:37Z</time>
      </trkpt>
      <trkpt lat="47.51168" lon="6.89757">
        <ele>398.8</ele>
        <time>2021-08-10T10:35:38Z</time>
      </trkpt>
      <trkpt lat="47.51166" lon="6.89763">
        <ele>398.8</ele>
        <time>2021-08-10T10:35:39Z</time>
      </trkpt>
      <trkpt lat="47.51163" lon="6.89769">
        <ele>398.8</ele>
        <time>2021-08-10T10:35:40Z</time>
      </trkpt>
      <trkpt lat="47.5116" lon="6.89778">
        <ele>398.8</ele>
        <time>2021-08-10T10:35:42Z</time>
      </trkpt>
      <trkpt lat="47.51157" lon="6.89786">
        <ele>398.8</ele>
        <time>2021-08-10T10:35:44Z</time>
      </trkpt>
      <trkpt lat="47.51154" lon="6.89794">
        <ele>398.9</ele>
        <time>2021-08-10T10:35:45Z</time>
      </trkpt>
      <trkpt lat="47.51151" lon="6.89803">
        <ele>399</ele>
        <time>2021-08-10T10:35:47Z</time>
      </trkpt>
      <trkpt lat="47.51149" lon="6.89808">
        <ele>399</ele>
        <time>2021-08-10T10:35:49Z</time>
      </trkpt>
      <trkpt lat="47.51147" lon="6.89814">
        <ele>399.1</ele>
        <time>2021-08-10T10:35:50Z</time>
      </trkpt>
      <trkpt lat="47.51146" lon="6.89819">
        <ele>399.1</ele>
        <time>2021-08-10T10:35:51Z</time>
      </trkpt>
      <trkpt lat="47.51145" lon="6.89824">
        <ele>399.2</ele>
        <time>2021-08-10T10:35:53Z</time>
      </trkpt>
      <trkpt lat="47.51144" lon="6.89829">
        <ele>399.2</ele>
        <time>2021-08-10T10:35:54Z</time>
      </trkpt>
      <trkpt lat="47.51143" lon="6.89837">
        <ele>399.3</ele>
        <time>2021-08-10T10:35:55Z</time>
      </trkpt>
      <trkpt lat="47.51142" lon="6.89843">
        <ele>399.4</ele>
        <time>2021-08-10T10:35:57Z</time>
      </trkpt>
      <trkpt lat="47.51141" lon="6.89848">
        <ele>399.4</ele>
        <time>2021-08-10T10:35:58Z</time>
      </trkpt>
      <trkpt lat="47.51141" lon="6.89853">
        <ele>399.5</ele>
        <time>2021-08-10T10:35:59Z</time>
      </trkpt>
      <trkpt lat="47.5114" lon="6.89857">
        <ele>399.5</ele>
        <time>2021-08-10T10:36:00Z</time>
      </trkpt>
      <trkpt lat="47.51138" lon="6.89861">
        <ele>399.6</ele>
        <time>2021-08-10T10:36:01Z</time>
      </trkpt>
      <trkpt lat="47.51136" lon="6.89869">
        <ele>399.6</ele>
        <time>2021-08-10T10:36:02Z</time>
      </trkpt>
      <trkpt lat="47.51135" lon="6.89874">
        <ele>399.6</ele>
        <time>2021-08-10T10:36:04Z</time>
      </trkpt>
      <trkpt lat="47.51132" lon="6.89879">
        <ele>399.7</ele>
        <time>2021-08-10T10:36:05Z</time>
      </trkpt>
      <trkpt lat="47.51131" lon="6.89884">
        <ele>399.7</ele>
        <time>2021-08-10T10:36:06Z</time>
      </trkpt>
      <trkpt lat="47.51128" lon="6.89891">
        <ele>399.7</ele>
        <time>2021-08-10T10:36:08Z</time>
      </trkpt>
      <trkpt lat="47.51126" lon="6.899">
        <ele>399.7</ele>
        <time>2021-08-10T10:36:10Z</time>
      </trkpt>
      <trkpt lat="47.51125" lon="6.89903">
        <ele>399.7</ele>
        <time>2021-08-10T10:36:11Z</time>
      </trkpt>
      <trkpt lat="47.51123" lon="6.89911">
        <ele>399.7</ele>
        <time>2021-08-10T10:36:13Z</time>
      </trkpt>
      <trkpt lat="47.51121" lon="6.89918">
        <ele>399.7</ele>
        <time>2021-08-10T10:36:14Z</time>
      </trkpt>
      <trkpt lat="47.5112" lon="6.89922">
        <ele>399.7</ele>
        <time>2021-08-10T10:36:16Z</time>
      </trkpt>
      <trkpt lat="47.51118" lon="6.8993">
        <ele>399.7</ele>
        <time>2021-08-10T10:36:18Z</time>
      </trkpt>
      <trkpt lat="47.51116" lon="6.89937">
        <ele>399.7</ele>
        <time>2021-08-10T10:36:20Z</time>
      </trkpt>
      <trkpt lat="47.51114" lon="6.89942">
        <ele>399.7</ele>
        <time>2021-08-10T10:36:21Z</time>
      </trkpt>
      <trkpt lat="47.51113" lon="6.89944">
        <ele>399.7</ele>
        <time>2021-08-10T10:36:22Z</time>
      </trkpt>
      <trkpt lat="47.51111" lon="6.89948">
        <ele>399.7</ele>
        <time>2021-08-10T10:36:23Z</time>
      </trkpt>
      <trkpt lat="47.51109" lon="6.89953">
        <ele>399.7</ele>
        <time>2021-08-10T10:36:25Z</time>
      </trkpt>
      <trkpt lat="47.51107" lon="6.89956">
        <ele>399.6</ele>
        <time>2021-08-10T10:36:26Z</time>
      </trkpt>
      <trkpt lat="47.51104" lon="6.89962">
        <ele>399.6</ele>
        <time>2021-08-10T10:36:28Z</time>
      </trkpt>
      <trkpt lat="47.51102" lon="6.89965">
        <ele>399.5</ele>
        <time>2021-08-10T10:36:29Z</time>
      </trkpt>
      <trkpt lat="47.511" lon="6.89969">
        <ele>399.5</ele>
        <time>2021-08-10T10:36:30Z</time>
      </trkpt>
      <trkpt lat="47.51098" lon="6.89974">
        <ele>399.5</ele>
        <time>2021-08-10T10:36:31Z</time>
      </trkpt>
      <trkpt lat="47.51095" lon="6.89981">
        <ele>399.4</ele>
        <time>2021-08-10T10:36:33Z</time>
      </trkpt>
      <trkpt lat="47.51092" lon="6.89987">
        <ele>399.3</ele>
        <time>2021-08-10T10:36:34Z</time>
      </trkpt>
      <trkpt lat="47.5109" lon="6.89991">
        <ele>399.2</ele>
        <time>2021-08-10T10:36:35Z</time>
      </trkpt>
      <trkpt lat="47.51088" lon="6.89995">
        <ele>399.2</ele>
        <time>2021-08-10T10:36:36Z</time>
      </trkpt>
      <trkpt lat="47.51086" lon="6.89999">
        <ele>399.1</ele>
        <time>2021-08-10T10:36:37Z</time>
      </trkpt>
      <trkpt lat="47.51084" lon="6.90006">
        <ele>399.1</ele>
        <time>2021-08-10T10:36:39Z</time>
      </trkpt>
      <trkpt lat="47.51083" lon="6.9001">
        <ele>399</ele>
        <time>2021-08-10T10:36:40Z</time>
      </trkpt>
      <trkpt lat="47.51082" lon="6.90017">
        <ele>398.9</ele>
        <time>2021-08-10T10:36:41Z</time>
      </trkpt>
      <trkpt lat="47.51081" lon="6.90022">
        <ele>398.8</ele>
        <time>2021-08-10T10:36:42Z</time>
      </trkpt>
      <trkpt lat="47.5108" lon="6.90029">
        <ele>398.8</ele>
        <time>2021-08-10T10:36:44Z</time>
      </trkpt>
      <trkpt lat="47.51078" lon="6.90038">
        <ele>398.6</ele>
        <time>2021-08-10T10:36:45Z</time>
      </trkpt>
      <trkpt lat="47.51077" lon="6.90046">
        <ele>398.5</ele>
        <time>2021-08-10T10:36:47Z</time>
      </trkpt>
      <trkpt lat="47.51076" lon="6.90053">
        <ele>398.4</ele>
        <time>2021-08-10T10:36:48Z</time>
      </trkpt>
      <trkpt lat="47.51074" lon="6.90062">
        <ele>398.3</ele>
        <time>2021-08-10T10:36:49Z</time>
      </trkpt>
      <trkpt lat="47.51073" lon="6.90069">
        <ele>398.2</ele>
        <time>2021-08-10T10:36:51Z</time>
      </trkpt>
      <trkpt lat="47.51071" lon="6.90075">
        <ele>398.1</ele>
        <time>2021-08-10T10:36:52Z</time>
      </trkpt>
      <trkpt lat="47.51069" lon="6.90087">
        <ele>397.9</ele>
        <time>2021-08-10T10:36:54Z</time>
      </trkpt>
      <trkpt lat="47.51067" lon="6.90092">
        <ele>397.8</ele>
        <time>2021-08-10T10:36:55Z</time>
      </trkpt>
      <trkpt lat="47.51066" lon="6.90099">
        <ele>397.7</ele>
        <time>2021-08-10T10:36:56Z</time>
      </trkpt>
      <trkpt lat="47.51064" lon="6.90105">
        <ele>397.6</ele>
        <time>2021-08-10T10:36:57Z</time>
      </trkpt>
      <trkpt lat="47.51062" lon="6.9011">
        <ele>397.5</ele>
        <time>2021-08-10T10:36:58Z</time>
      </trkpt>
      <trkpt lat="47.5106" lon="6.90117">
        <ele>397.5</ele>
        <time>2021-08-10T10:37:00Z</time>
      </trkpt>
      <trkpt lat="47.51058" lon="6.90122">
        <ele>397.4</ele>
        <time>2021-08-10T10:37:01Z</time>
      </trkpt>
      <trkpt lat="47.51056" lon="6.90128">
        <ele>397.2</ele>
        <time>2021-08-10T10:37:02Z</time>
      </trkpt>
      <trkpt lat="47.5105" lon="6.90137">
        <ele>397</ele>
        <time>2021-08-10T10:37:03Z</time>
      </trkpt>
      <trkpt lat="47.51047" lon="6.90143">
        <ele>396.9</ele>
        <time>2021-08-10T10:37:05Z</time>
      </trkpt>
      <trkpt lat="47.51044" lon="6.90149">
        <ele>396.7</ele>
        <time>2021-08-10T10:37:06Z</time>
      </trkpt>
      <trkpt lat="47.5104" lon="6.90153">
        <ele>396.6</ele>
        <time>2021-08-10T10:37:07Z</time>
      </trkpt>
      <trkpt lat="47.51037" lon="6.90157">
        <ele>396.5</ele>
        <time>2021-08-10T10:37:08Z</time>
      </trkpt>
      <trkpt lat="47.51032" lon="6.90164">
        <ele>396.4</ele>
        <time>2021-08-10T10:37:10Z</time>
      </trkpt>
      <trkpt lat="47.51029" lon="6.90169">
        <ele>396.2</ele>
        <time>2021-08-10T10:37:11Z</time>
      </trkpt>
      <trkpt lat="47.51026" lon="6.90171">
        <ele>396.1</ele>
        <time>2021-08-10T10:37:13Z</time>
      </trkpt>
      <trkpt lat="47.51023" lon="6.90175">
        <ele>396</ele>
        <time>2021-08-10T10:37:14Z</time>
      </trkpt>
      <trkpt lat="47.51019" lon="6.9018">
        <ele>395.8</ele>
        <time>2021-08-10T10:37:16Z</time>
      </trkpt>
      <trkpt lat="47.51018" lon="6.90182">
        <ele>395.8</ele>
        <time>2021-08-10T10:37:17Z</time>
      </trkpt>
      <trkpt lat="47.51016" lon="6.90185">
        <ele>395.7</ele>
        <time>2021-08-10T10:37:18Z</time>
      </trkpt>
      <trkpt lat="47.51013" lon="6.90189">
        <ele>395.6</ele>
        <time>2021-08-10T10:37:20Z</time>
      </trkpt>
      <trkpt lat="47.5101" lon="6.90194">
        <ele>395.4</ele>
        <time>2021-08-10T10:37:21Z</time>
      </trkpt>
      <trkpt lat="47.51007" lon="6.902">
        <ele>395.2</ele>
        <time>2021-08-10T10:37:22Z</time>
      </trkpt>
      <trkpt lat="47.51004" lon="6.90207">
        <ele>395</ele>
        <time>2021-08-10T10:37:24Z</time>
      </trkpt>
      <trkpt lat="47.51001" lon="6.90212">
        <ele>394.8</ele>
        <time>2021-08-10T10:37:25Z</time>
      </trkpt>
      <trkpt lat="47.50997" lon="6.90221">
        <ele>394.6</ele>
        <time>2021-08-10T10:37:26Z</time>
      </trkpt>
      <trkpt lat="47.50993" lon="6.90228">
        <ele>394.3</ele>
        <time>2021-08-10T10:37:27Z</time>
      </trkpt>
      <trkpt lat="47.50989" lon="6.90236">
        <ele>394</ele>
        <time>2021-08-10T10:37:29Z</time>
      </trkpt>
      <trkpt lat="47.50986" lon="6.90244">
        <ele>393.7</ele>
        <time>2021-08-10T10:37:30Z</time>
      </trkpt>
      <trkpt lat="47.50982" lon="6.90259">
        <ele>393.2</ele>
        <time>2021-08-10T10:37:31Z</time>
      </trkpt>
      <trkpt lat="47.50978" lon="6.90268">
        <ele>392.8</ele>
        <time>2021-08-10T10:37:32Z</time>
      </trkpt>
      <trkpt lat="47.50972" lon="6.90284">
        <ele>392.2</ele>
        <time>2021-08-10T10:37:34Z</time>
      </trkpt>
      <trkpt lat="47.50968" lon="6.90292">
        <ele>391.8</ele>
        <time>2021-08-10T10:37:35Z</time>
      </trkpt>
      <trkpt lat="47.50964" lon="6.903">
        <ele>391.5</ele>
        <time>2021-08-10T10:37:36Z</time>
      </trkpt>
      <trkpt lat="47.50961" lon="6.90308">
        <ele>391.1</ele>
        <time>2021-08-10T10:37:37Z</time>
      </trkpt>
      <trkpt lat="47.50958" lon="6.90315">
        <ele>390.7</ele>
        <time>2021-08-10T10:37:38Z</time>
      </trkpt>
      <trkpt lat="47.50952" lon="6.9033">
        <ele>389.7</ele>
        <time>2021-08-10T10:37:40Z</time>
      </trkpt>
      <trkpt lat="47.50948" lon="6.90338">
        <ele>389.2</ele>
        <time>2021-08-10T10:37:41Z</time>
      </trkpt>
      <trkpt lat="47.50942" lon="6.90352">
        <ele>388.4</ele>
        <time>2021-08-10T10:37:43Z</time>
      </trkpt>
      <trkpt lat="47.5094" lon="6.90359">
        <ele>388</ele>
        <time>2021-08-10T10:37:44Z</time>
      </trkpt>
      <trkpt lat="47.50934" lon="6.90371">
        <ele>387.5</ele>
        <time>2021-08-10T10:37:46Z</time>
      </trkpt>
      <trkpt lat="47.50931" lon="6.90377">
        <ele>387.2</ele>
        <time>2021-08-10T10:37:47Z</time>
      </trkpt>
      <trkpt lat="47.50929" lon="6.90382">
        <ele>387.1</ele>
        <time>2021-08-10T10:37:48Z</time>
      </trkpt>
      <trkpt lat="47.50925" lon="6.90393">
        <ele>386.8</ele>
        <time>2021-08-10T10:37:50Z</time>
      </trkpt>
      <trkpt lat="47.50921" lon="6.90405">
        <ele>386.7</ele>
        <time>2021-08-10T10:37:52Z</time>
      </trkpt>
      <trkpt lat="47.50919" lon="6.90411">
        <ele>386.7</ele>
        <time>2021-08-10T10:37:53Z</time>
      </trkpt>
      <trkpt lat="47.50917" lon="6.90419">
        <ele>386.7</ele>
        <time>2021-08-10T10:37:55Z</time>
      </trkpt>
      <trkpt lat="47.50916" lon="6.90425">
        <ele>386.8</ele>
        <time>2021-08-10T10:37:56Z</time>
      </trkpt>
      <trkpt lat="47.50914" lon="6.9043">
        <ele>386.8</ele>
        <time>2021-08-10T10:37:57Z</time>
      </trkpt>
      <trkpt lat="47.50914" lon="6.90434">
        <ele>386.8</ele>
        <time>2021-08-10T10:37:58Z</time>
      </trkpt>
      <trkpt lat="47.50912" lon="6.90436">
        <ele>386.9</ele>
        <time>2021-08-10T10:38:00Z</time>
      </trkpt>
      <trkpt lat="47.50911" lon="6.9044">
        <ele>386.9</ele>
        <time>2021-08-10T10:38:01Z</time>
      </trkpt>
      <trkpt lat="47.50909" lon="6.90452">
        <ele>387.2</ele>
        <time>2021-08-10T10:38:03Z</time>
      </trkpt>
      <trkpt lat="47.50908" lon="6.90456">
        <ele>387.3</ele>
        <time>2021-08-10T10:38:04Z</time>
      </trkpt>
      <trkpt lat="47.50907" lon="6.90462">
        <ele>387.4</ele>
        <time>2021-08-10T10:38:05Z</time>
      </trkpt>
      <trkpt lat="47.50906" lon="6.90466">
        <ele>387.6</ele>
        <time>2021-08-10T10:38:06Z</time>
      </trkpt>
      <trkpt lat="47.50905" lon="6.90471">
        <ele>387.7</ele>
        <time>2021-08-10T10:38:08Z</time>
      </trkpt>
      <trkpt lat="47.50903" lon="6.90474">
        <ele>387.9</ele>
        <time>2021-08-10T10:38:09Z</time>
      </trkpt>
      <trkpt lat="47.509" lon="6.90476">
        <ele>388</ele>
        <time>2021-08-10T10:38:10Z</time>
      </trkpt>
      <trkpt lat="47.50899" lon="6.90477">
        <ele>388.1</ele>
        <time>2021-08-10T10:38:11Z</time>
      </trkpt>
      <trkpt lat="47.50897" lon="6.9048">
        <ele>388.2</ele>
        <time>2021-08-10T10:38:13Z</time>
      </trkpt>
      <trkpt lat="47.50896" lon="6.90481">
        <ele>388.3</ele>
        <time>2021-08-10T10:38:14Z</time>
      </trkpt>
      <trkpt lat="47.50894" lon="6.90485">
        <ele>388.4</ele>
        <time>2021-08-10T10:38:16Z</time>
      </trkpt>
      <trkpt lat="47.50893" lon="6.90486">
        <ele>388.5</ele>
        <time>2021-08-10T10:38:17Z</time>
      </trkpt>
      <trkpt lat="47.50892" lon="6.90488">
        <ele>388.6</ele>
        <time>2021-08-10T10:38:19Z</time>
      </trkpt>
      <trkpt lat="47.50891" lon="6.9049">
        <ele>388.6</ele>
        <time>2021-08-10T10:38:20Z</time>
      </trkpt>
      <trkpt lat="47.50891" lon="6.90492">
        <ele>388.7</ele>
        <time>2021-08-10T10:38:21Z</time>
      </trkpt>
      <trkpt lat="47.50891" lon="6.90495">
        <ele>388.8</ele>
        <time>2021-08-10T10:38:22Z</time>
      </trkpt>
      <trkpt lat="47.50891" lon="6.90497">
        <ele>388.8</ele>
        <time>2021-08-10T10:38:23Z</time>
      </trkpt>
      <trkpt lat="47.50891" lon="6.905">
        <ele>388.9</ele>
        <time>2021-08-10T10:38:24Z</time>
      </trkpt>
      <trkpt lat="47.50891" lon="6.90502">
        <ele>389</ele>
        <time>2021-08-10T10:38:25Z</time>
      </trkpt>
      <trkpt lat="47.5089" lon="6.90507">
        <ele>389.1</ele>
        <time>2021-08-10T10:38:26Z</time>
      </trkpt>
      <trkpt lat="47.5089" lon="6.90508">
        <ele>389.1</ele>
        <time>2021-08-10T10:38:27Z</time>
      </trkpt>
      <trkpt lat="47.50889" lon="6.90515">
        <ele>389.3</ele>
        <time>2021-08-10T10:38:29Z</time>
      </trkpt>
      <trkpt lat="47.50889" lon="6.90517">
        <ele>389.4</ele>
        <time>2021-08-10T10:38:30Z</time>
      </trkpt>
      <trkpt lat="47.50889" lon="6.90519">
        <ele>389.4</ele>
        <time>2021-08-10T10:38:31Z</time>
      </trkpt>
      <trkpt lat="47.50889" lon="6.90526">
        <ele>389.6</ele>
        <time>2021-08-10T10:38:32Z</time>
      </trkpt>
      <trkpt lat="47.50889" lon="6.9053">
        <ele>389.6</ele>
        <time>2021-08-10T10:38:34Z</time>
      </trkpt>
      <trkpt lat="47.50889" lon="6.90537">
        <ele>389.8</ele>
        <time>2021-08-10T10:38:35Z</time>
      </trkpt>
      <trkpt lat="47.50888" lon="6.90542">
        <ele>389.8</ele>
        <time>2021-08-10T10:38:37Z</time>
      </trkpt>
      <trkpt lat="47.50888" lon="6.90547">
        <ele>389.9</ele>
        <time>2021-08-10T10:38:38Z</time>
      </trkpt>
      <trkpt lat="47.50887" lon="6.90553">
        <ele>390.1</ele>
        <time>2021-08-10T10:38:40Z</time>
      </trkpt>
      <trkpt lat="47.50887" lon="6.90559">
        <ele>390.2</ele>
        <time>2021-08-10T10:38:41Z</time>
      </trkpt>
      <trkpt lat="47.50887" lon="6.90562">
        <ele>390.2</ele>
        <time>2021-08-10T10:38:42Z</time>
      </trkpt>
      <trkpt lat="47.50888" lon="6.90566">
        <ele>390.3</ele>
        <time>2021-08-10T10:38:44Z</time>
      </trkpt>
      <trkpt lat="47.5089" lon="6.90569">
        <ele>390.3</ele>
        <time>2021-08-10T10:38:45Z</time>
      </trkpt>
      <trkpt lat="47.50892" lon="6.90576">
        <ele>390.3</ele>
        <time>2021-08-10T10:38:46Z</time>
      </trkpt>
      <trkpt lat="47.50893" lon="6.90584">
        <ele>390.3</ele>
        <time>2021-08-10T10:38:48Z</time>
      </trkpt>
      <trkpt lat="47.50893" lon="6.90593">
        <ele>390.3</ele>
        <time>2021-08-10T10:38:49Z</time>
      </trkpt>
      <trkpt lat="47.50893" lon="6.906">
        <ele>390.3</ele>
        <time>2021-08-10T10:38:50Z</time>
      </trkpt>
      <trkpt lat="47.50892" lon="6.90607">
        <ele>390.2</ele>
        <time>2021-08-10T10:38:52Z</time>
      </trkpt>
      <trkpt lat="47.50891" lon="6.90614">
        <ele>390.2</ele>
        <time>2021-08-10T10:38:53Z</time>
      </trkpt>
      <trkpt lat="47.5089" lon="6.9062">
        <ele>390.1</ele>
        <time>2021-08-10T10:38:54Z</time>
      </trkpt>
      <trkpt lat="47.50889" lon="6.90627">
        <ele>390.1</ele>
        <time>2021-08-10T10:38:55Z</time>
      </trkpt>
      <trkpt lat="47.50887" lon="6.90633">
        <ele>390</ele>
        <time>2021-08-10T10:38:57Z</time>
      </trkpt>
      <trkpt lat="47.50887" lon="6.90638">
        <ele>389.9</ele>
        <time>2021-08-10T10:38:58Z</time>
      </trkpt>
      <trkpt lat="47.50886" lon="6.90645">
        <ele>389.8</ele>
        <time>2021-08-10T10:38:59Z</time>
      </trkpt>
      <trkpt lat="47.50885" lon="6.9065">
        <ele>389.6</ele>
        <time>2021-08-10T10:39:01Z</time>
      </trkpt>
      <trkpt lat="47.50885" lon="6.90658">
        <ele>389.4</ele>
        <time>2021-08-10T10:39:02Z</time>
      </trkpt>
      <trkpt lat="47.50884" lon="6.90663">
        <ele>389.3</ele>
        <time>2021-08-10T10:39:04Z</time>
      </trkpt>
      <trkpt lat="47.50884" lon="6.90668">
        <ele>389.1</ele>
        <time>2021-08-10T10:39:05Z</time>
      </trkpt>
      <trkpt lat="47.50882" lon="6.90676">
        <ele>388.8</ele>
        <time>2021-08-10T10:39:07Z</time>
      </trkpt>
      <trkpt lat="47.50881" lon="6.90679">
        <ele>388.7</ele>
        <time>2021-08-10T10:39:08Z</time>
      </trkpt>
      <trkpt lat="47.50878" lon="6.90684">
        <ele>388.5</ele>
        <time>2021-08-10T10:39:09Z</time>
      </trkpt>
      <trkpt lat="47.50877" lon="6.90686">
        <ele>388.4</ele>
        <time>2021-08-10T10:39:10Z</time>
      </trkpt>
      <trkpt lat="47.50875" lon="6.90689">
        <ele>388.3</ele>
        <time>2021-08-10T10:39:11Z</time>
      </trkpt>
      <trkpt lat="47.50873" lon="6.90694">
        <ele>388.1</ele>
        <time>2021-08-10T10:39:13Z</time>
      </trkpt>
      <trkpt lat="47.50872" lon="6.90697">
        <ele>387.9</ele>
        <time>2021-08-10T10:39:14Z</time>
      </trkpt>
      <trkpt lat="47.50871" lon="6.90703">
        <ele>387.7</ele>
        <time>2021-08-10T10:39:15Z</time>
      </trkpt>
      <trkpt lat="47.50869" lon="6.9071">
        <ele>387.5</ele>
        <time>2021-08-10T10:39:17Z</time>
      </trkpt>
      <trkpt lat="47.50865" lon="6.9072">
        <ele>387.1</ele>
        <time>2021-08-10T10:39:19Z</time>
      </trkpt>
      <trkpt lat="47.50863" lon="6.90727">
        <ele>386.8</ele>
        <time>2021-08-10T10:39:20Z</time>
      </trkpt>
      <trkpt lat="47.5086" lon="6.9074">
        <ele>386.4</ele>
        <time>2021-08-10T10:39:22Z</time>
      </trkpt>
      <trkpt lat="47.50858" lon="6.90754">
        <ele>385.9</ele>
        <time>2021-08-10T10:39:24Z</time>
      </trkpt>
      <trkpt lat="47.50853" lon="6.90767">
        <ele>385.4</ele>
        <time>2021-08-10T10:39:26Z</time>
      </trkpt>
      <trkpt lat="47.5085" lon="6.90773">
        <ele>385.2</ele>
        <time>2021-08-10T10:39:27Z</time>
      </trkpt>
      <trkpt lat="47.50846" lon="6.90778">
        <ele>384.9</ele>
        <time>2021-08-10T10:39:28Z</time>
      </trkpt>
      <trkpt lat="47.50843" lon="6.90783">
        <ele>384.7</ele>
        <time>2021-08-10T10:39:29Z</time>
      </trkpt>
      <trkpt lat="47.50837" lon="6.90788">
        <ele>384.6</ele>
        <time>2021-08-10T10:39:31Z</time>
      </trkpt>
      <trkpt lat="47.50833" lon="6.90788">
        <ele>384.8</ele>
        <time>2021-08-10T10:39:32Z</time>
      </trkpt>
      <trkpt lat="47.5083" lon="6.90788">
        <ele>385.1</ele>
        <time>2021-08-10T10:39:33Z</time>
      </trkpt>
      <trkpt lat="47.50826" lon="6.90785">
        <ele>385.3</ele>
        <time>2021-08-10T10:39:34Z</time>
      </trkpt>
      <trkpt lat="47.50824" lon="6.90782">
        <ele>385.7</ele>
        <time>2021-08-10T10:39:35Z</time>
      </trkpt>
      <trkpt lat="47.50822" lon="6.90776">
        <ele>385.8</ele>
        <time>2021-08-10T10:39:37Z</time>
      </trkpt>
      <trkpt lat="47.50822" lon="6.9077">
        <ele>386</ele>
        <time>2021-08-10T10:39:38Z</time>
      </trkpt>
      <trkpt lat="47.50822" lon="6.90765">
        <ele>386.2</ele>
        <time>2021-08-10T10:39:39Z</time>
      </trkpt>
      <trkpt lat="47.50823" lon="6.9076">
        <ele>386.4</ele>
        <time>2021-08-10T10:39:41Z</time>
      </trkpt>
      <trkpt lat="47.50824" lon="6.90757">
        <ele>386.6</ele>
        <time>2021-08-10T10:39:42Z</time>
      </trkpt>
      <trkpt lat="47.50826" lon="6.90752">
        <ele>386.8</ele>
        <time>2021-08-10T10:39:43Z</time>
      </trkpt>
      <trkpt lat="47.50826" lon="6.9075">
        <ele>386.9</ele>
        <time>2021-08-10T10:39:44Z</time>
      </trkpt>
      <trkpt lat="47.5083" lon="6.90745">
        <ele>387.3</ele>
        <time>2021-08-10T10:39:46Z</time>
      </trkpt>
      <trkpt lat="47.50832" lon="6.9074">
        <ele>387.5</ele>
        <time>2021-08-10T10:39:47Z</time>
      </trkpt>
      <trkpt lat="47.50833" lon="6.90737">
        <ele>387.7</ele>
        <time>2021-08-10T10:39:49Z</time>
      </trkpt>
      <trkpt lat="47.50835" lon="6.90735">
        <ele>387.9</ele>
        <time>2021-08-10T10:39:50Z</time>
      </trkpt>
      <trkpt lat="47.50838" lon="6.90731">
        <ele>388.1</ele>
        <time>2021-08-10T10:39:52Z</time>
      </trkpt>
      <trkpt lat="47.50841" lon="6.90728">
        <ele>388.2</ele>
        <time>2021-08-10T10:39:54Z</time>
      </trkpt>
      <trkpt lat="47.50843" lon="6.90726">
        <ele>388.3</ele>
        <time>2021-08-10T10:39:56Z</time>
      </trkpt>
      <trkpt lat="47.50845" lon="6.90723">
        <ele>388.3</ele>
        <time>2021-08-10T10:39:58Z</time>
      </trkpt>
      <trkpt lat="47.50845" lon="6.90722">
        <ele>388.3</ele>
        <time>2021-08-10T10:39:59Z</time>
      </trkpt>
      <trkpt lat="47.50845" lon="6.9072">
        <ele>388.3</ele>
        <time>2021-08-10T10:40:00Z</time>
      </trkpt>
      <trkpt lat="47.50844" lon="6.90716">
        <ele>388.4</ele>
        <time>2021-08-10T10:40:02Z</time>
      </trkpt>
      <trkpt lat="47.50843" lon="6.90713">
        <ele>388.5</ele>
        <time>2021-08-10T10:40:04Z</time>
      </trkpt>
      <trkpt lat="47.50841" lon="6.90711">
        <ele>388.6</ele>
        <time>2021-08-10T10:40:05Z</time>
      </trkpt>
      <trkpt lat="47.50839" lon="6.90707">
        <ele>388.7</ele>
        <time>2021-08-10T10:40:07Z</time>
      </trkpt>
      <trkpt lat="47.50837" lon="6.90702">
        <ele>388.8</ele>
        <time>2021-08-10T10:40:08Z</time>
      </trkpt>
      <trkpt lat="47.50836" lon="6.90701">
        <ele>388.9</ele>
        <time>2021-08-10T10:40:09Z</time>
      </trkpt>
      <trkpt lat="47.50835" lon="6.90697">
        <ele>389</ele>
        <time>2021-08-10T10:40:11Z</time>
      </trkpt>
      <trkpt lat="47.50834" lon="6.90693">
        <ele>389.1</ele>
        <time>2021-08-10T10:40:12Z</time>
      </trkpt>
      <trkpt lat="47.50834" lon="6.9069">
        <ele>389.2</ele>
        <time>2021-08-10T10:40:14Z</time>
      </trkpt>
      <trkpt lat="47.50835" lon="6.90686">
        <ele>389.4</ele>
        <time>2021-08-10T10:40:16Z</time>
      </trkpt>
      <trkpt lat="47.50835" lon="6.90684">
        <ele>389.4</ele>
        <time>2021-08-10T10:40:17Z</time>
      </trkpt>
      <trkpt lat="47.50835" lon="6.90684">
        <ele>389.5</ele>
        <time>2021-08-10T10:40:19Z</time>
      </trkpt>
      <trkpt lat="47.50835" lon="6.90685">
        <ele>389.5</ele>
        <time>2021-08-10T10:40:20Z</time>
      </trkpt>
      <trkpt lat="47.50835" lon="6.90684">
        <ele>389.5</ele>
        <time>2021-08-10T10:40:21Z</time>
      </trkpt>
      <trkpt lat="47.50835" lon="6.90684">
        <ele>389.5</ele>
        <time>2021-08-10T10:40:22Z</time>
      </trkpt>
      <trkpt lat="47.50835" lon="6.90682">
        <ele>389.6</ele>
        <time>2021-08-10T10:40:23Z</time>
      </trkpt>
      <trkpt lat="47.50837" lon="6.90681">
        <ele>389.7</ele>
        <time>2021-08-10T10:40:25Z</time>
      </trkpt>
      <trkpt lat="47.50838" lon="6.9068">
        <ele>389.7</ele>
        <time>2021-08-10T10:40:26Z</time>
      </trkpt>
      <trkpt lat="47.50839" lon="6.90679">
        <ele>389.8</ele>
        <time>2021-08-10T10:40:27Z</time>
      </trkpt>
      <trkpt lat="47.50839" lon="6.90678">
        <ele>389.8</ele>
        <time>2021-08-10T10:40:29Z</time>
      </trkpt>
      <trkpt lat="47.50839" lon="6.90678">
        <ele>389.9</ele>
        <time>2021-08-10T10:40:30Z</time>
      </trkpt>
      <trkpt lat="47.5084" lon="6.90676">
        <ele>389.9</ele>
        <time>2021-08-10T10:40:31Z</time>
      </trkpt>
      <trkpt lat="47.50839" lon="6.90654">
        <ele>390.8</ele>
        <time>2021-08-10T10:40:32Z</time>
      </trkpt>
      <trkpt lat="47.50838" lon="6.90634">
        <ele>391.5</ele>
        <time>2021-08-10T10:40:33Z</time>
      </trkpt>
      <trkpt lat="47.50837" lon="6.90613">
        <ele>392.1</ele>
        <time>2021-08-10T10:41:33Z</time>
      </trkpt>
      <trkpt lat="47.50835" lon="6.90592">
        <ele>392.6</ele>
        <time>2021-08-10T10:41:34Z</time>
      </trkpt>
      <trkpt lat="47.50834" lon="6.90572">
        <ele>393</ele>
        <time>2021-08-10T10:41:35Z</time>
      </trkpt>
      <trkpt lat="47.50831" lon="6.90566">
        <ele>393.1</ele>
        <time>2021-08-10T10:41:37Z</time>
      </trkpt>
      <trkpt lat="47.5083" lon="6.90564">
        <ele>393.1</ele>
        <time>2021-08-10T10:41:38Z</time>
      </trkpt>
      <trkpt lat="47.50829" lon="6.90562">
        <ele>393.2</ele>
        <time>2021-08-10T10:41:39Z</time>
      </trkpt>
      <trkpt lat="47.50826" lon="6.90558">
        <ele>393.2</ele>
        <time>2021-08-10T10:41:41Z</time>
      </trkpt>
      <trkpt lat="47.50824" lon="6.90556">
        <ele>393.2</ele>
        <time>2021-08-10T10:41:42Z</time>
      </trkpt>
      <trkpt lat="47.50821" lon="6.90554">
        <ele>393.3</ele>
        <time>2021-08-10T10:41:44Z</time>
      </trkpt>
      <trkpt lat="47.5082" lon="6.90554">
        <ele>393.3</ele>
        <time>2021-08-10T10:41:45Z</time>
      </trkpt>
      <trkpt lat="47.50816" lon="6.90552">
        <ele>393.3</ele>
        <time>2021-08-10T10:41:47Z</time>
      </trkpt>
      <trkpt lat="47.50815" lon="6.90552">
        <ele>393.2</ele>
        <time>2021-08-10T10:41:48Z</time>
      </trkpt>
      <trkpt lat="47.50813" lon="6.90552">
        <ele>393.2</ele>
        <time>2021-08-10T10:41:49Z</time>
      </trkpt>
      <trkpt lat="47.5081" lon="6.90551">
        <ele>393.1</ele>
        <time>2021-08-10T10:41:51Z</time>
      </trkpt>
      <trkpt lat="47.50809" lon="6.90551">
        <ele>393.1</ele>
        <time>2021-08-10T10:41:52Z</time>
      </trkpt>
      <trkpt lat="47.50806" lon="6.90551">
        <ele>393.1</ele>
        <time>2021-08-10T10:41:53Z</time>
      </trkpt>
      <trkpt lat="47.50804" lon="6.90551">
        <ele>393</ele>
        <time>2021-08-10T10:41:55Z</time>
      </trkpt>
      <trkpt lat="47.50801" lon="6.90551">
        <ele>392.9</ele>
        <time>2021-08-10T10:41:56Z</time>
      </trkpt>
      <trkpt lat="47.508" lon="6.90551">
        <ele>392.9</ele>
        <time>2021-08-10T10:41:57Z</time>
      </trkpt>
      <trkpt lat="47.50796" lon="6.90551">
        <ele>392.8</ele>
        <time>2021-08-10T10:41:58Z</time>
      </trkpt>
      <trkpt lat="47.50792" lon="6.90551">
        <ele>392.8</ele>
        <time>2021-08-10T10:42:00Z</time>
      </trkpt>
      <trkpt lat="47.50791" lon="6.90552">
        <ele>392.7</ele>
        <time>2021-08-10T10:42:01Z</time>
      </trkpt>
      <trkpt lat="47.5079" lon="6.90552">
        <ele>392.7</ele>
        <time>2021-08-10T10:42:02Z</time>
      </trkpt>
      <trkpt lat="47.50786" lon="6.90552">
        <ele>392.7</ele>
        <time>2021-08-10T10:42:04Z</time>
      </trkpt>
      <trkpt lat="47.50785" lon="6.90552">
        <ele>392.6</ele>
        <time>2021-08-10T10:42:05Z</time>
      </trkpt>
      <trkpt lat="47.50781" lon="6.90551">
        <ele>392.6</ele>
        <time>2021-08-10T10:42:07Z</time>
      </trkpt>
      <trkpt lat="47.50778" lon="6.90549">
        <ele>392.7</ele>
        <time>2021-08-10T10:42:08Z</time>
      </trkpt>
      <trkpt lat="47.50777" lon="6.90549">
        <ele>392.7</ele>
        <time>2021-08-10T10:42:09Z</time>
      </trkpt>
      <trkpt lat="47.50774" lon="6.90548">
        <ele>392.8</ele>
        <time>2021-08-10T10:42:10Z</time>
      </trkpt>
      <trkpt lat="47.50773" lon="6.90548">
        <ele>392.8</ele>
        <time>2021-08-10T10:42:11Z</time>
      </trkpt>
      <trkpt lat="47.50769" lon="6.90548">
        <ele>392.9</ele>
        <time>2021-08-10T10:42:13Z</time>
      </trkpt>
      <trkpt lat="47.50767" lon="6.90548">
        <ele>393</ele>
        <time>2021-08-10T10:42:14Z</time>
      </trkpt>
      <trkpt lat="47.50762" lon="6.90547">
        <ele>393.2</ele>
        <time>2021-08-10T10:42:16Z</time>
      </trkpt>
      <trkpt lat="47.50759" lon="6.90546">
        <ele>393.4</ele>
        <time>2021-08-10T10:42:17Z</time>
      </trkpt>
      <trkpt lat="47.50758" lon="6.90546">
        <ele>393.4</ele>
        <time>2021-08-10T10:42:18Z</time>
      </trkpt>
      <trkpt lat="47.50757" lon="6.90546">
        <ele>393.5</ele>
        <time>2021-08-10T10:42:19Z</time>
      </trkpt>
      <trkpt lat="47.50756" lon="6.90546">
        <ele>393.5</ele>
        <time>2021-08-10T10:42:20Z</time>
      </trkpt>
      <trkpt lat="47.50754" lon="6.90545">
        <ele>393.7</ele>
        <time>2021-08-10T10:42:22Z</time>
      </trkpt>
      <trkpt lat="47.50752" lon="6.90545">
        <ele>393.8</ele>
        <time>2021-08-10T10:42:23Z</time>
      </trkpt>
      <trkpt lat="47.50751" lon="6.90544">
        <ele>393.9</ele>
        <time>2021-08-10T10:42:24Z</time>
      </trkpt>
      <trkpt lat="47.5075" lon="6.90543">
        <ele>394</ele>
        <time>2021-08-10T10:42:26Z</time>
      </trkpt>
      <trkpt lat="47.50749" lon="6.90543">
        <ele>394</ele>
        <time>2021-08-10T10:42:27Z</time>
      </trkpt>
      <trkpt lat="47.50745" lon="6.90541">
        <ele>394.3</ele>
        <time>2021-08-10T10:42:29Z</time>
      </trkpt>
      <trkpt lat="47.50743" lon="6.90541">
        <ele>394.4</ele>
        <time>2021-08-10T10:42:30Z</time>
      </trkpt>
      <trkpt lat="47.50742" lon="6.9054">
        <ele>394.5</ele>
        <time>2021-08-10T10:42:31Z</time>
      </trkpt>
      <trkpt lat="47.50741" lon="6.9054">
        <ele>394.6</ele>
        <time>2021-08-10T10:42:32Z</time>
      </trkpt>
      <trkpt lat="47.50738" lon="6.90538">
        <ele>394.7</ele>
        <time>2021-08-10T10:42:34Z</time>
      </trkpt>
      <trkpt lat="47.50594" lon="6.90425">
        <ele>401</ele>
        <time>2021-08-10T10:45:01Z</time>
      </trkpt>
      <trkpt lat="47.50592" lon="6.90422">
        <ele>401</ele>
        <time>2021-08-10T10:45:03Z</time>
      </trkpt>
      <trkpt lat="47.50589" lon="6.9042">
        <ele>401.1</ele>
        <time>2021-08-10T10:45:04Z</time>
      </trkpt>
      <trkpt lat="47.50586" lon="6.90416">
        <ele>401.1</ele>
        <time>2021-08-10T10:45:06Z</time>
      </trkpt>
      <trkpt lat="47.50585" lon="6.90413">
        <ele>401.1</ele>
        <time>2021-08-10T10:45:07Z</time>
      </trkpt>
      <trkpt lat="47.50583" lon="6.9041">
        <ele>401.2</ele>
        <time>2021-08-10T10:45:09Z</time>
      </trkpt>
      <trkpt lat="47.5058" lon="6.90407">
        <ele>401.2</ele>
        <time>2021-08-10T10:45:10Z</time>
      </trkpt>
      <trkpt lat="47.50579" lon="6.90406">
        <ele>401.2</ele>
        <time>2021-08-10T10:45:11Z</time>
      </trkpt>
      <trkpt lat="47.50578" lon="6.90403">
        <ele>401.2</ele>
        <time>2021-08-10T10:45:13Z</time>
      </trkpt>
      <trkpt lat="47.50576" lon="6.90401">
        <ele>401.2</ele>
        <time>2021-08-10T10:45:14Z</time>
      </trkpt>
      <trkpt lat="47.50572" lon="6.90398">
        <ele>401.3</ele>
        <time>2021-08-10T10:45:16Z</time>
      </trkpt>
      <trkpt lat="47.5057" lon="6.90395">
        <ele>401.3</ele>
        <time>2021-08-10T10:45:17Z</time>
      </trkpt>
      <trkpt lat="47.50569" lon="6.90394">
        <ele>401.3</ele>
        <time>2021-08-10T10:45:18Z</time>
      </trkpt>
      <trkpt lat="47.50566" lon="6.9039">
        <ele>401.3</ele>
        <time>2021-08-10T10:45:20Z</time>
      </trkpt>
      <trkpt lat="47.50565" lon="6.90389">
        <ele>401.3</ele>
        <time>2021-08-10T10:45:21Z</time>
      </trkpt>
      <trkpt lat="47.50563" lon="6.90386">
        <ele>401.3</ele>
        <time>2021-08-10T10:45:22Z</time>
      </trkpt>
      <trkpt lat="47.50561" lon="6.90382">
        <ele>401.3</ele>
        <time>2021-08-10T10:45:24Z</time>
      </trkpt>
      <trkpt lat="47.50559" lon="6.90379">
        <ele>401.3</ele>
        <time>2021-08-10T10:45:25Z</time>
      </trkpt>
      <trkpt lat="47.50556" lon="6.90375">
        <ele>401.3</ele>
        <time>2021-08-10T10:45:26Z</time>
      </trkpt>
      <trkpt lat="47.50555" lon="6.90373">
        <ele>401.3</ele>
        <time>2021-08-10T10:45:27Z</time>
      </trkpt>
      <trkpt lat="47.50553" lon="6.90369">
        <ele>401.3</ele>
        <time>2021-08-10T10:45:28Z</time>
      </trkpt>
      <trkpt lat="47.50552" lon="6.90367">
        <ele>401.3</ele>
        <time>2021-08-10T10:45:29Z</time>
      </trkpt>
      <trkpt lat="47.5055" lon="6.90362">
        <ele>401.3</ele>
        <time>2021-08-10T10:45:31Z</time>
      </trkpt>
      <trkpt lat="47.5055" lon="6.9036">
        <ele>401.3</ele>
        <time>2021-08-10T10:45:32Z</time>
      </trkpt>
      <trkpt lat="47.50548" lon="6.90356">
        <ele>401.4</ele>
        <time>2021-08-10T10:45:33Z</time>
      </trkpt>
      <trkpt lat="47.50548" lon="6.90353">
        <ele>401.4</ele>
        <time>2021-08-10T10:45:34Z</time>
      </trkpt>
      <trkpt lat="47.50546" lon="6.90349">
        <ele>401.4</ele>
        <time>2021-08-10T10:45:36Z</time>
      </trkpt>
      <trkpt lat="47.50544" lon="6.90345">
        <ele>401.5</ele>
        <time>2021-08-10T10:45:37Z</time>
      </trkpt>
      <trkpt lat="47.50543" lon="6.90344">
        <ele>401.5</ele>
        <time>2021-08-10T10:45:38Z</time>
      </trkpt>
      <trkpt lat="47.50542" lon="6.90342">
        <ele>401.5</ele>
        <time>2021-08-10T10:45:39Z</time>
      </trkpt>
      <trkpt lat="47.5054" lon="6.90339">
        <ele>401.6</ele>
        <time>2021-08-10T10:45:41Z</time>
      </trkpt>
      <trkpt lat="47.50539" lon="6.90336">
        <ele>401.6</ele>
        <time>2021-08-10T10:45:42Z</time>
      </trkpt>
      <trkpt lat="47.50538" lon="6.90334">
        <ele>401.7</ele>
        <time>2021-08-10T10:45:43Z</time>
      </trkpt>
      <trkpt lat="47.50536" lon="6.90332">
        <ele>401.7</ele>
        <time>2021-08-10T10:45:45Z</time>
      </trkpt>
      <trkpt lat="47.50534" lon="6.90329">
        <ele>401.8</ele>
        <time>2021-08-10T10:45:47Z</time>
      </trkpt>
      <trkpt lat="47.50532" lon="6.90328">
        <ele>401.9</ele>
        <time>2021-08-10T10:45:48Z</time>
      </trkpt>
      <trkpt lat="47.50529" lon="6.90326">
        <ele>401.9</ele>
        <time>2021-08-10T10:45:50Z</time>
      </trkpt>
      <trkpt lat="47.50527" lon="6.90324">
        <ele>402</ele>
        <time>2021-08-10T10:45:51Z</time>
      </trkpt>
      <trkpt lat="47.50524" lon="6.90324">
        <ele>402.1</ele>
        <time>2021-08-10T10:45:53Z</time>
      </trkpt>
      <trkpt lat="47.50521" lon="6.90323">
        <ele>402.1</ele>
        <time>2021-08-10T10:45:54Z</time>
      </trkpt>
      <trkpt lat="47.5052" lon="6.90322">
        <ele>402.1</ele>
        <time>2021-08-10T10:45:55Z</time>
      </trkpt>
      <trkpt lat="47.50517" lon="6.9032">
        <ele>402.2</ele>
        <time>2021-08-10T10:45:56Z</time>
      </trkpt>
      <trkpt lat="47.50516" lon="6.90319">
        <ele>402.2</ele>
        <time>2021-08-10T10:45:57Z</time>
      </trkpt>
      <trkpt lat="47.50513" lon="6.90317">
        <ele>402.3</ele>
        <time>2021-08-10T10:45:58Z</time>
      </trkpt>
      <trkpt lat="47.50512" lon="6.90315">
        <ele>402.3</ele>
        <time>2021-08-10T10:46:00Z</time>
      </trkpt>
      <trkpt lat="47.50511" lon="6.90314">
        <ele>402.3</ele>
        <time>2021-08-10T10:46:01Z</time>
      </trkpt>
      <trkpt lat="47.5051" lon="6.90313">
        <ele>402.3</ele>
        <time>2021-08-10T10:46:02Z</time>
      </trkpt>
      <trkpt lat="47.50507" lon="6.9031">
        <ele>402.4</ele>
        <time>2021-08-10T10:46:03Z</time>
      </trkpt>
      <trkpt lat="47.50506" lon="6.90309">
        <ele>402.4</ele>
        <time>2021-08-10T10:46:04Z</time>
      </trkpt>
      <trkpt lat="47.50506" lon="6.90307">
        <ele>402.4</ele>
        <time>2021-08-10T10:46:06Z</time>
      </trkpt>
      <trkpt lat="47.50504" lon="6.90303">
        <ele>402.4</ele>
        <time>2021-08-10T10:46:08Z</time>
      </trkpt>
      <trkpt lat="47.50503" lon="6.903">
        <ele>402.4</ele>
        <time>2021-08-10T10:46:09Z</time>
      </trkpt>
      <trkpt lat="47.50501" lon="6.90298">
        <ele>402.5</ele>
        <time>2021-08-10T10:46:10Z</time>
      </trkpt>
      <trkpt lat="47.50499" lon="6.90296">
        <ele>402.5</ele>
        <time>2021-08-10T10:46:12Z</time>
      </trkpt>
      <trkpt lat="47.50498" lon="6.90294">
        <ele>402.5</ele>
        <time>2021-08-10T10:46:13Z</time>
      </trkpt>
      <trkpt lat="47.50494" lon="6.90289">
        <ele>402.5</ele>
        <time>2021-08-10T10:46:16Z</time>
      </trkpt>
      <trkpt lat="47.50491" lon="6.90286">
        <ele>402.5</ele>
        <time>2021-08-10T10:46:18Z</time>
      </trkpt>
      <trkpt lat="47.50491" lon="6.90285">
        <ele>402.6</ele>
        <time>2021-08-10T10:46:19Z</time>
      </trkpt>
      <trkpt lat="47.5049" lon="6.90283">
        <ele>402.6</ele>
        <time>2021-08-10T10:46:20Z</time>
      </trkpt>
      <trkpt lat="47.50486" lon="6.90279">
        <ele>402.6</ele>
        <time>2021-08-10T10:46:22Z</time>
      </trkpt>
      <trkpt lat="47.50482" lon="6.90275">
        <ele>402.6</ele>
        <time>2021-08-10T10:46:24Z</time>
      </trkpt>
      <trkpt lat="47.50481" lon="6.90273">
        <ele>402.5</ele>
        <time>2021-08-10T10:46:26Z</time>
      </trkpt>
      <trkpt lat="47.5048" lon="6.90271">
        <ele>402.5</ele>
        <time>2021-08-10T10:46:27Z</time>
      </trkpt>
      <trkpt lat="47.50478" lon="6.90269">
        <ele>402.5</ele>
        <time>2021-08-10T10:46:28Z</time>
      </trkpt>
      <trkpt lat="47.50477" lon="6.90268">
        <ele>402.5</ele>
        <time>2021-08-10T10:46:29Z</time>
      </trkpt>
      <trkpt lat="47.50476" lon="6.90266">
        <ele>402.5</ele>
        <time>2021-08-10T10:46:30Z</time>
      </trkpt>
      <trkpt lat="47.50476" lon="6.90264">
        <ele>402.5</ele>
        <time>2021-08-10T10:46:31Z</time>
      </trkpt>
      <trkpt lat="47.50474" lon="6.90263">
        <ele>402.5</ele>
        <time>2021-08-10T10:46:32Z</time>
      </trkpt>
      <trkpt lat="47.50469" lon="6.9026">
        <ele>402.5</ele>
        <time>2021-08-10T10:46:34Z</time>
      </trkpt>
      <trkpt lat="47.50468" lon="6.9026">
        <ele>402.5</ele>
        <time>2021-08-10T10:46:35Z</time>
      </trkpt>
      <trkpt lat="47.50466" lon="6.90259">
        <ele>402.5</ele>
        <time>2021-08-10T10:46:36Z</time>
      </trkpt>
      <trkpt lat="47.50464" lon="6.90259">
        <ele>402.4</ele>
        <time>2021-08-10T10:46:37Z</time>
      </trkpt>
      <trkpt lat="47.5046" lon="6.90258">
        <ele>402.4</ele>
        <time>2021-08-10T10:46:39Z</time>
      </trkpt>
      <trkpt lat="47.50457" lon="6.90259">
        <ele>402.4</ele>
        <time>2021-08-10T10:46:40Z</time>
      </trkpt>
      <trkpt lat="47.50456" lon="6.90259">
        <ele>402.3</ele>
        <time>2021-08-10T10:46:41Z</time>
      </trkpt>
      <trkpt lat="47.50452" lon="6.90259">
        <ele>402.3</ele>
        <time>2021-08-10T10:46:42Z</time>
      </trkpt>
      <trkpt lat="47.5045" lon="6.90259">
        <ele>402.2</ele>
        <time>2021-08-10T10:46:43Z</time>
      </trkpt>
      <trkpt lat="47.50447" lon="6.90258">
        <ele>402.1</ele>
        <time>2021-08-10T10:46:45Z</time>
      </trkpt>
      <trkpt lat="47.50443" lon="6.90255">
        <ele>402</ele>
        <time>2021-08-10T10:46:46Z</time>
      </trkpt>
      <trkpt lat="47.5044" lon="6.90252">
        <ele>402</ele>
        <time>2021-08-10T10:46:48Z</time>
      </trkpt>
      <trkpt lat="47.50436" lon="6.90249">
        <ele>401.9</ele>
        <time>2021-08-10T10:46:49Z</time>
      </trkpt>
      <trkpt lat="47.50433" lon="6.90246">
        <ele>401.8</ele>
        <time>2021-08-10T10:46:51Z</time>
      </trkpt>
      <trkpt lat="47.50431" lon="6.90244">
        <ele>401.7</ele>
        <time>2021-08-10T10:46:52Z</time>
      </trkpt>
      <trkpt lat="47.50427" lon="6.90242">
        <ele>401.6</ele>
        <time>2021-08-10T10:46:53Z</time>
      </trkpt>
      <trkpt lat="47.50424" lon="6.90241">
        <ele>401.6</ele>
        <time>2021-08-10T10:46:54Z</time>
      </trkpt>
      <trkpt lat="47.5042" lon="6.9024">
        <ele>401.5</ele>
        <time>2021-08-10T10:46:56Z</time>
      </trkpt>
      <trkpt lat="47.50415" lon="6.90239">
        <ele>401.4</ele>
        <time>2021-08-10T10:46:57Z</time>
      </trkpt>
      <trkpt lat="47.50411" lon="6.90238">
        <ele>401.4</ele>
        <time>2021-08-10T10:46:59Z</time>
      </trkpt>
      <trkpt lat="47.50406" lon="6.90237">
        <ele>401.3</ele>
        <time>2021-08-10T10:47:01Z</time>
      </trkpt>
      <trkpt lat="47.50402" lon="6.90236">
        <ele>401.2</ele>
        <time>2021-08-10T10:47:02Z</time>
      </trkpt>
      <trkpt lat="47.50398" lon="6.90235">
        <ele>401.2</ele>
        <time>2021-08-10T10:47:03Z</time>
      </trkpt>
      <trkpt lat="47.50397" lon="6.90234">
        <ele>401.2</ele>
        <time>2021-08-10T10:47:04Z</time>
      </trkpt>
      <trkpt lat="47.50394" lon="6.90233">
        <ele>401.1</ele>
        <time>2021-08-10T10:47:05Z</time>
      </trkpt>
      <trkpt lat="47.50391" lon="6.90232">
        <ele>401.1</ele>
        <time>2021-08-10T10:47:07Z</time>
      </trkpt>
      <trkpt lat="47.50388" lon="6.90231">
        <ele>401</ele>
        <time>2021-08-10T10:47:08Z</time>
      </trkpt>
      <trkpt lat="47.50385" lon="6.9023">
        <ele>400.9</ele>
        <time>2021-08-10T10:47:10Z</time>
      </trkpt>
      <trkpt lat="47.50381" lon="6.9023">
        <ele>400.9</ele>
        <time>2021-08-10T10:47:11Z</time>
      </trkpt>
      <trkpt lat="47.50377" lon="6.90228">
        <ele>400.8</ele>
        <time>2021-08-10T10:47:13Z</time>
      </trkpt>
      <trkpt lat="47.50374" lon="6.90228">
        <ele>400.7</ele>
        <time>2021-08-10T10:47:14Z</time>
      </trkpt>
      <trkpt lat="47.50371" lon="6.90228">
        <ele>400.6</ele>
        <time>2021-08-10T10:47:15Z</time>
      </trkpt>
      <trkpt lat="47.50366" lon="6.90226">
        <ele>400.5</ele>
        <time>2021-08-10T10:47:17Z</time>
      </trkpt>
      <trkpt lat="47.50363" lon="6.90225">
        <ele>400.4</ele>
        <time>2021-08-10T10:47:18Z</time>
      </trkpt>
      <trkpt lat="47.50358" lon="6.90225">
        <ele>400.3</ele>
        <time>2021-08-10T10:47:19Z</time>
      </trkpt>
      <trkpt lat="47.50355" lon="6.90224">
        <ele>400.3</ele>
        <time>2021-08-10T10:47:20Z</time>
      </trkpt>
      <trkpt lat="47.50351" lon="6.90224">
        <ele>400.2</ele>
        <time>2021-08-10T10:47:21Z</time>
      </trkpt>
      <trkpt lat="47.50347" lon="6.90223">
        <ele>400.2</ele>
        <time>2021-08-10T10:47:23Z</time>
      </trkpt>
      <trkpt lat="47.50344" lon="6.90223">
        <ele>400.2</ele>
        <time>2021-08-10T10:47:24Z</time>
      </trkpt>
      <trkpt lat="47.5034" lon="6.90221">
        <ele>400.2</ele>
        <time>2021-08-10T10:47:26Z</time>
      </trkpt>
      <trkpt lat="47.50336" lon="6.90219">
        <ele>400.3</ele>
        <time>2021-08-10T10:47:27Z</time>
      </trkpt>
      <trkpt lat="47.50335" lon="6.90218">
        <ele>400.3</ele>
        <time>2021-08-10T10:47:28Z</time>
      </trkpt>
      <trkpt lat="47.50333" lon="6.90217">
        <ele>400.3</ele>
        <time>2021-08-10T10:47:29Z</time>
      </trkpt>
      <trkpt lat="47.50331" lon="6.90215">
        <ele>400.4</ele>
        <time>2021-08-10T10:47:31Z</time>
      </trkpt>
      <trkpt lat="47.50327" lon="6.90213">
        <ele>400.4</ele>
        <time>2021-08-10T10:47:33Z</time>
      </trkpt>
      <trkpt lat="47.50324" lon="6.9021">
        <ele>400.5</ele>
        <time>2021-08-10T10:47:34Z</time>
      </trkpt>
      <trkpt lat="47.50323" lon="6.9021">
        <ele>400.5</ele>
        <time>2021-08-10T10:47:35Z</time>
      </trkpt>
      <trkpt lat="47.5032" lon="6.90207">
        <ele>400.6</ele>
        <time>2021-08-10T10:47:37Z</time>
      </trkpt>
      <trkpt lat="47.50319" lon="6.90206">
        <ele>400.7</ele>
        <time>2021-08-10T10:47:38Z</time>
      </trkpt>
      <trkpt lat="47.50316" lon="6.90204">
        <ele>400.7</ele>
        <time>2021-08-10T10:47:39Z</time>
      </trkpt>
      <trkpt lat="47.50313" lon="6.90201">
        <ele>400.8</ele>
        <time>2021-08-10T10:47:41Z</time>
      </trkpt>
      <trkpt lat="47.50312" lon="6.90201">
        <ele>400.8</ele>
        <time>2021-08-10T10:47:42Z</time>
      </trkpt>
      <trkpt lat="47.50309" lon="6.90198">
        <ele>400.9</ele>
        <time>2021-08-10T10:47:43Z</time>
      </trkpt>
      <trkpt lat="47.50305" lon="6.90197">
        <ele>401</ele>
        <time>2021-08-10T10:47:45Z</time>
      </trkpt>
      <trkpt lat="47.50303" lon="6.90195">
        <ele>401</ele>
        <time>2021-08-10T10:47:46Z</time>
      </trkpt>
      <trkpt lat="47.50302" lon="6.90195">
        <ele>401</ele>
        <time>2021-08-10T10:47:47Z</time>
      </trkpt>
      <trkpt lat="47.50299" lon="6.90192">
        <ele>401.1</ele>
        <time>2021-08-10T10:47:48Z</time>
      </trkpt>
      <trkpt lat="47.50298" lon="6.90191">
        <ele>401.1</ele>
        <time>2021-08-10T10:47:49Z</time>
      </trkpt>
      <trkpt lat="47.50296" lon="6.90188">
        <ele>401.2</ele>
        <time>2021-08-10T10:47:51Z</time>
      </trkpt>
      <trkpt lat="47.50295" lon="6.90188">
        <ele>401.2</ele>
        <time>2021-08-10T10:47:52Z</time>
      </trkpt>
      <trkpt lat="47.50292" lon="6.90187">
        <ele>401.2</ele>
        <time>2021-08-10T10:47:53Z</time>
      </trkpt>
      <trkpt lat="47.50291" lon="6.90187">
        <ele>401.3</ele>
        <time>2021-08-10T10:47:54Z</time>
      </trkpt>
      <trkpt lat="47.50287" lon="6.90185">
        <ele>401.3</ele>
        <time>2021-08-10T10:47:55Z</time>
      </trkpt>
      <trkpt lat="47.50286" lon="6.90184">
        <ele>401.3</ele>
        <time>2021-08-10T10:47:56Z</time>
      </trkpt>
      <trkpt lat="47.50284" lon="6.90182">
        <ele>401.4</ele>
        <time>2021-08-10T10:47:57Z</time>
      </trkpt>
      <trkpt lat="47.50283" lon="6.90181">
        <ele>401.4</ele>
        <time>2021-08-10T10:47:58Z</time>
      </trkpt>
      <trkpt lat="47.5028" lon="6.90179">
        <ele>401.7</ele>
        <time>2021-08-10T10:47:59Z</time>
      </trkpt>
      <trkpt lat="47.50279" lon="6.90178">
        <ele>401.7</ele>
        <time>2021-08-10T10:48:01Z</time>
      </trkpt>
      <trkpt lat="47.50277" lon="6.90177">
        <ele>401.7</ele>
        <time>2021-08-10T10:48:02Z</time>
      </trkpt>
      <trkpt lat="47.50275" lon="6.90176">
        <ele>401.7</ele>
        <time>2021-08-10T10:48:03Z</time>
      </trkpt>
      <trkpt lat="47.50274" lon="6.90176">
        <ele>401.7</ele>
        <time>2021-08-10T10:48:04Z</time>
      </trkpt>
      <trkpt lat="47.50271" lon="6.90174">
        <ele>401.7</ele>
        <time>2021-08-10T10:48:06Z</time>
      </trkpt>
      <trkpt lat="47.50268" lon="6.90173">
        <ele>401.7</ele>
        <time>2021-08-10T10:48:07Z</time>
      </trkpt>
      <trkpt lat="47.50267" lon="6.90174">
        <ele>401.7</ele>
        <time>2021-08-10T10:48:08Z</time>
      </trkpt>
      <trkpt lat="47.50266" lon="6.90175">
        <ele>401.7</ele>
        <time>2021-08-10T10:48:10Z</time>
      </trkpt>
      <trkpt lat="47.50267" lon="6.90175">
        <ele>401.7</ele>
        <time>2021-08-10T10:48:11Z</time>
      </trkpt>
      <trkpt lat="47.50268" lon="6.90173">
        <ele>401.7</ele>
        <time>2021-08-10T10:48:13Z</time>
      </trkpt>
      <trkpt lat="47.50268" lon="6.90171">
        <ele>401.7</ele>
        <time>2021-08-10T10:48:15Z</time>
      </trkpt>
      <trkpt lat="47.50268" lon="6.9017">
        <ele>401.7</ele>
        <time>2021-08-10T10:48:16Z</time>
      </trkpt>
      <trkpt lat="47.50268" lon="6.9017">
        <ele>401.7</ele>
        <time>2021-08-10T10:48:17Z</time>
      </trkpt>
      <trkpt lat="47.50269" lon="6.90169">
        <ele>401.7</ele>
        <time>2021-08-10T10:48:19Z</time>
      </trkpt>
      <trkpt lat="47.50269" lon="6.90169">
        <ele>401.7</ele>
        <time>2021-08-10T10:48:20Z</time>
      </trkpt>
      <trkpt lat="47.5027" lon="6.90169">
        <ele>401.7</ele>
        <time>2021-08-10T10:48:21Z</time>
      </trkpt>
      <trkpt lat="47.5027" lon="6.90169">
        <ele>401.7</ele>
        <time>2021-08-10T10:48:22Z</time>
      </trkpt>
      <trkpt lat="47.50272" lon="6.90169">
        <ele>401.7</ele>
        <time>2021-08-10T10:48:23Z</time>
      </trkpt>
      <trkpt lat="47.50278" lon="6.90177">
        <ele>401.8</ele>
        <time>2021-08-10T10:48:29Z</time>
      </trkpt>
      <trkpt lat="47.50279" lon="6.9018">
        <ele>401.8</ele>
        <time>2021-08-10T10:48:30Z</time>
      </trkpt>
      <trkpt lat="47.5028" lon="6.90185">
        <ele>401.8</ele>
        <time>2021-08-10T10:48:32Z</time>
      </trkpt>
      <trkpt lat="47.50281" lon="6.90189">
        <ele>401.8</ele>
        <time>2021-08-10T10:48:33Z</time>
      </trkpt>
      <trkpt lat="47.50282" lon="6.90194">
        <ele>401.8</ele>
        <time>2021-08-10T10:48:35Z</time>
      </trkpt>
      <trkpt lat="47.50283" lon="6.90201">
        <ele>401.8</ele>
        <time>2021-08-10T10:48:36Z</time>
      </trkpt>
      <trkpt lat="47.50284" lon="6.90204">
        <ele>401.8</ele>
        <time>2021-08-10T10:48:37Z</time>
      </trkpt>
      <trkpt lat="47.50283" lon="6.9021">
        <ele>401.8</ele>
        <time>2021-08-10T10:48:39Z</time>
      </trkpt>
      <trkpt lat="47.50283" lon="6.90212">
        <ele>401.8</ele>
        <time>2021-08-10T10:48:40Z</time>
      </trkpt>
      <trkpt lat="47.50282" lon="6.90213">
        <ele>401.8</ele>
        <time>2021-08-10T10:48:41Z</time>
      </trkpt>
      <trkpt lat="47.50282" lon="6.90215">
        <ele>401.8</ele>
        <time>2021-08-10T10:48:42Z</time>
      </trkpt>
      <trkpt lat="47.5028" lon="6.90218">
        <ele>401.8</ele>
        <time>2021-08-10T10:48:44Z</time>
      </trkpt>
      <trkpt lat="47.50279" lon="6.9022">
        <ele>401.8</ele>
        <time>2021-08-10T10:48:45Z</time>
      </trkpt>
      <trkpt lat="47.50278" lon="6.90221">
        <ele>401.8</ele>
        <time>2021-08-10T10:48:46Z</time>
      </trkpt>
      <trkpt lat="47.50278" lon="6.90223">
        <ele>401.8</ele>
        <time>2021-08-10T10:48:48Z</time>
      </trkpt>
      <trkpt lat="47.50279" lon="6.90224">
        <ele>401.8</ele>
        <time>2021-08-10T10:48:49Z</time>
      </trkpt>
      <trkpt lat="47.50279" lon="6.90224">
        <ele>401.8</ele>
        <time>2021-08-10T10:48:51Z</time>
      </trkpt>
      <trkpt lat="47.50279" lon="6.90225">
        <ele>401.8</ele>
        <time>2021-08-10T10:48:52Z</time>
      </trkpt>
      <trkpt lat="47.50279" lon="6.90225">
        <ele>401.8</ele>
        <time>2021-08-10T10:48:53Z</time>
      </trkpt>
      <trkpt lat="47.50277" lon="6.90221">
        <ele>401.8</ele>
        <time>2021-08-10T10:48:54Z</time>
      </trkpt>
      <trkpt lat="47.50274" lon="6.90216">
        <ele>401.8</ele>
        <time>2021-08-10T10:48:56Z</time>
      </trkpt>
      <trkpt lat="47.50271" lon="6.90212">
        <ele>401.8</ele>
        <time>2021-08-10T10:48:57Z</time>
      </trkpt>
      <trkpt lat="47.50269" lon="6.90207">
        <ele>401.8</ele>
        <time>2021-08-10T10:48:58Z</time>
      </trkpt>
      <trkpt lat="47.50266" lon="6.90202">
        <ele>401.8</ele>
        <time>2021-08-10T10:49:50Z</time>
      </trkpt>
      <trkpt lat="47.50263" lon="6.90198">
        <ele>401.8</ele>
        <time>2021-08-10T10:49:51Z</time>
      </trkpt>
      <trkpt lat="47.50261" lon="6.90193">
        <ele>401.8</ele>
        <time>2021-08-10T10:49:52Z</time>
      </trkpt>
      <trkpt lat="47.50258" lon="6.90187">
        <ele>401.8</ele>
        <time>2021-08-10T10:49:53Z</time>
      </trkpt>
      <trkpt lat="47.50257" lon="6.90183">
        <ele>401.8</ele>
        <time>2021-08-10T10:49:55Z</time>
      </trkpt>
      <trkpt lat="47.50256" lon="6.90179">
        <ele>401.8</ele>
        <time>2021-08-10T10:49:56Z</time>
      </trkpt>
      <trkpt lat="47.50255" lon="6.90175">
        <ele>401.8</ele>
        <time>2021-08-10T10:49:57Z</time>
      </trkpt>
      <trkpt lat="47.50253" lon="6.90171">
        <ele>401.8</ele>
        <time>2021-08-10T10:49:58Z</time>
      </trkpt>
      <trkpt lat="47.50251" lon="6.90165">
        <ele>401.8</ele>
        <time>2021-08-10T10:50:00Z</time>
      </trkpt>
      <trkpt lat="47.5025" lon="6.90162">
        <ele>401.8</ele>
        <time>2021-08-10T10:50:01Z</time>
      </trkpt>
      <trkpt lat="47.50249" lon="6.9016">
        <ele>401.8</ele>
        <time>2021-08-10T10:50:02Z</time>
      </trkpt>
      <trkpt lat="47.50247" lon="6.90155">
        <ele>401.8</ele>
        <time>2021-08-10T10:50:04Z</time>
      </trkpt>
      <trkpt lat="47.50247" lon="6.90153">
        <ele>401.8</ele>
        <time>2021-08-10T10:50:05Z</time>
      </trkpt>
      <trkpt lat="47.50246" lon="6.90152">
        <ele>401.8</ele>
        <time>2021-08-10T10:50:06Z</time>
      </trkpt>
      <trkpt lat="47.50244" lon="6.90148">
        <ele>401.8</ele>
        <time>2021-08-10T10:50:08Z</time>
      </trkpt>
      <trkpt lat="47.50243" lon="6.90146">
        <ele>401.8</ele>
        <time>2021-08-10T10:50:09Z</time>
      </trkpt>
      <trkpt lat="47.50241" lon="6.90142">
        <ele>401.8</ele>
        <time>2021-08-10T10:50:11Z</time>
      </trkpt>
      <trkpt lat="47.50239" lon="6.90141">
        <ele>401.8</ele>
        <time>2021-08-10T10:50:12Z</time>
      </trkpt>
      <trkpt lat="47.50238" lon="6.9014">
        <ele>401.8</ele>
        <time>2021-08-10T10:50:13Z</time>
      </trkpt>
      <trkpt lat="47.50237" lon="6.9014">
        <ele>401.8</ele>
        <time>2021-08-10T10:50:14Z</time>
      </trkpt>
      <trkpt lat="47.50237" lon="6.90139">
        <ele>401.8</ele>
        <time>2021-08-10T10:50:16Z</time>
      </trkpt>
      <trkpt lat="47.50237" lon="6.90138">
        <ele>401.8</ele>
        <time>2021-08-10T10:50:17Z</time>
      </trkpt>
      <trkpt lat="47.50238" lon="6.90136">
        <ele>401.8</ele>
        <time>2021-08-10T10:50:18Z</time>
      </trkpt>
      <trkpt lat="47.50239" lon="6.90136">
        <ele>401.8</ele>
        <time>2021-08-10T10:50:20Z</time>
      </trkpt>
      <trkpt lat="47.50241" lon="6.90136">
        <ele>401.8</ele>
        <time>2021-08-10T10:50:21Z</time>
      </trkpt>
      <trkpt lat="47.50242" lon="6.90136">
        <ele>401.8</ele>
        <time>2021-08-10T10:50:23Z</time>
      </trkpt>
      <trkpt lat="47.50244" lon="6.90137">
        <ele>401.8</ele>
        <time>2021-08-10T10:50:24Z</time>
      </trkpt>
      <trkpt lat="47.50246" lon="6.90138">
        <ele>401.8</ele>
        <time>2021-08-10T10:50:26Z</time>
      </trkpt>
      <trkpt lat="47.50246" lon="6.90138">
        <ele>401.8</ele>
        <time>2021-08-10T10:50:27Z</time>
      </trkpt>
      <trkpt lat="47.50254" lon="6.90143">
        <ele>401.9</ele>
        <time>2021-08-10T10:50:28Z</time>
      </trkpt>
      <trkpt lat="47.50265" lon="6.90153">
        <ele>401.9</ele>
        <time>2021-08-10T10:50:31Z</time>
      </trkpt>
      <trkpt lat="47.50268" lon="6.90155">
        <ele>401.9</ele>
        <time>2021-08-10T10:50:33Z</time>
      </trkpt>
      <trkpt lat="47.50271" lon="6.90159">
        <ele>401.9</ele>
        <time>2021-08-10T10:50:34Z</time>
      </trkpt>
      <trkpt lat="47.50273" lon="6.90162">
        <ele>401.9</ele>
        <time>2021-08-10T10:50:35Z</time>
      </trkpt>
      <trkpt lat="47.50275" lon="6.90166">
        <ele>401.9</ele>
        <time>2021-08-10T10:50:36Z</time>
      </trkpt>
      <trkpt lat="47.50278" lon="6.90171">
        <ele>402</ele>
        <time>2021-08-10T10:50:38Z</time>
      </trkpt>
      <trkpt lat="47.50279" lon="6.90176">
        <ele>402</ele>
        <time>2021-08-10T10:50:40Z</time>
      </trkpt>
      <trkpt lat="47.5028" lon="6.90178">
        <ele>402</ele>
        <time>2021-08-10T10:50:41Z</time>
      </trkpt>
      <trkpt lat="47.50281" lon="6.90179">
        <ele>402</ele>
        <time>2021-08-10T10:50:42Z</time>
      </trkpt>
      <trkpt lat="47.50281" lon="6.90182">
        <ele>402</ele>
        <time>2021-08-10T10:50:43Z</time>
      </trkpt>
      <trkpt lat="47.50281" lon="6.90184">
        <ele>402</ele>
        <time>2021-08-10T10:50:45Z</time>
      </trkpt>
      <trkpt lat="47.50279" lon="6.90186">
        <ele>402</ele>
        <time>2021-08-10T10:50:47Z</time>
      </trkpt>
      <trkpt lat="47.50276" lon="6.90186">
        <ele>402</ele>
        <time>2021-08-10T10:50:49Z</time>
      </trkpt>
      <trkpt lat="47.50275" lon="6.90185">
        <ele>402</ele>
        <time>2021-08-10T10:50:50Z</time>
      </trkpt>
      <trkpt lat="47.50274" lon="6.90184">
        <ele>402</ele>
        <time>2021-08-10T10:50:51Z</time>
      </trkpt>
      <trkpt lat="47.50273" lon="6.90185">
        <ele>402</ele>
        <time>2021-08-10T10:50:52Z</time>
      </trkpt>
      <trkpt lat="47.5027" lon="6.90184">
        <ele>402</ele>
        <time>2021-08-10T10:50:54Z</time>
      </trkpt>
      <trkpt lat="47.50269" lon="6.90183">
        <ele>402</ele>
        <time>2021-08-10T10:50:55Z</time>
      </trkpt>
      <trkpt lat="47.50267" lon="6.90182">
        <ele>402</ele>
        <time>2021-08-10T10:50:56Z</time>
      </trkpt>
      <trkpt lat="47.50256" lon="6.90177">
        <ele>402.1</ele>
        <time>2021-08-10T10:50:57Z</time>
      </trkpt>
      <trkpt lat="47.50246" lon="6.90172">
        <ele>402.1</ele>
        <time>2021-08-10T10:51:01Z</time>
      </trkpt>
      <trkpt lat="47.50243" lon="6.90168">
        <ele>402.1</ele>
        <time>2021-08-10T10:51:03Z</time>
      </trkpt>
      <trkpt lat="47.50241" lon="6.90164">
        <ele>402.1</ele>
        <time>2021-08-10T10:51:04Z</time>
      </trkpt>
      <trkpt lat="47.50237" lon="6.90157">
        <ele>402.2</ele>
        <time>2021-08-10T10:51:06Z</time>
      </trkpt>
      <trkpt lat="47.50236" lon="6.90153">
        <ele>402.2</ele>
        <time>2021-08-10T10:51:07Z</time>
      </trkpt>
      <trkpt lat="47.50235" lon="6.90147">
        <ele>402.2</ele>
        <time>2021-08-10T10:51:08Z</time>
      </trkpt>
      <trkpt lat="47.50234" lon="6.90142">
        <ele>402.2</ele>
        <time>2021-08-10T10:51:09Z</time>
      </trkpt>
      <trkpt lat="47.50233" lon="6.90135">
        <ele>402.2</ele>
        <time>2021-08-10T10:51:11Z</time>
      </trkpt>
      <trkpt lat="47.50233" lon="6.90133">
        <ele>402.3</ele>
        <time>2021-08-10T10:51:12Z</time>
      </trkpt>
      <trkpt lat="47.50232" lon="6.9013">
        <ele>402.3</ele>
        <time>2021-08-10T10:51:13Z</time>
      </trkpt>
      <trkpt lat="47.50232" lon="6.90127">
        <ele>402.3</ele>
        <time>2021-08-10T10:51:14Z</time>
      </trkpt>
      <trkpt lat="47.50231" lon="6.90122">
        <ele>402.3</ele>
        <time>2021-08-10T10:51:16Z</time>
      </trkpt>
      <trkpt lat="47.5023" lon="6.90118">
        <ele>402.3</ele>
        <time>2021-08-10T10:51:17Z</time>
      </trkpt>
      <trkpt lat="47.50229" lon="6.90111">
        <ele>402.3</ele>
        <time>2021-08-10T10:51:19Z</time>
      </trkpt>
      <trkpt lat="47.50229" lon="6.90108">
        <ele>402.3</ele>
        <time>2021-08-10T10:51:20Z</time>
      </trkpt>
      <trkpt lat="47.50229" lon="6.90105">
        <ele>402.3</ele>
        <time>2021-08-10T10:51:21Z</time>
      </trkpt>
      <trkpt lat="47.50229" lon="6.90098">
        <ele>402.4</ele>
        <time>2021-08-10T10:51:23Z</time>
      </trkpt>
      <trkpt lat="47.50229" lon="6.90095">
        <ele>402.4</ele>
        <time>2021-08-10T10:51:24Z</time>
      </trkpt>
      <trkpt lat="47.5023" lon="6.90092">
        <ele>402.4</ele>
        <time>2021-08-10T10:51:25Z</time>
      </trkpt>
      <trkpt lat="47.5023" lon="6.90088">
        <ele>402.4</ele>
        <time>2021-08-10T10:51:26Z</time>
      </trkpt>
      <trkpt lat="47.50229" lon="6.90082">
        <ele>402.4</ele>
        <time>2021-08-10T10:51:28Z</time>
      </trkpt>
      <trkpt lat="47.50228" lon="6.90076">
        <ele>402.5</ele>
        <time>2021-08-10T10:51:29Z</time>
      </trkpt>
      <trkpt lat="47.50226" lon="6.90071">
        <ele>402.5</ele>
        <time>2021-08-10T10:51:31Z</time>
      </trkpt>
      <trkpt lat="47.50225" lon="6.90065">
        <ele>402.5</ele>
        <time>2021-08-10T10:51:32Z</time>
      </trkpt>
      <trkpt lat="47.50223" lon="6.9006">
        <ele>402.5</ele>
        <time>2021-08-10T10:51:33Z</time>
      </trkpt>
      <trkpt lat="47.50221" lon="6.90056">
        <ele>402.6</ele>
        <time>2021-08-10T10:51:34Z</time>
      </trkpt>
      <trkpt lat="47.50219" lon="6.90051">
        <ele>402.6</ele>
        <time>2021-08-10T10:51:36Z</time>
      </trkpt>
      <trkpt lat="47.50216" lon="6.90044">
        <ele>402.6</ele>
        <time>2021-08-10T10:51:37Z</time>
      </trkpt>
      <trkpt lat="47.50215" lon="6.9004">
        <ele>402.6</ele>
        <time>2021-08-10T10:51:38Z</time>
      </trkpt>
      <trkpt lat="47.50213" lon="6.90036">
        <ele>402.7</ele>
        <time>2021-08-10T10:51:40Z</time>
      </trkpt>
      <trkpt lat="47.50212" lon="6.90032">
        <ele>402.7</ele>
        <time>2021-08-10T10:51:41Z</time>
      </trkpt>
      <trkpt lat="47.5021" lon="6.90026">
        <ele>402.7</ele>
        <time>2021-08-10T10:51:43Z</time>
      </trkpt>
      <trkpt lat="47.50207" lon="6.90021">
        <ele>402.8</ele>
        <time>2021-08-10T10:51:44Z</time>
      </trkpt>
      <trkpt lat="47.50205" lon="6.90017">
        <ele>402.8</ele>
        <time>2021-08-10T10:51:46Z</time>
      </trkpt>
      <trkpt lat="47.50203" lon="6.90011">
        <ele>402.8</ele>
        <time>2021-08-10T10:51:48Z</time>
      </trkpt>
      <trkpt lat="47.50202" lon="6.90006">
        <ele>402.9</ele>
        <time>2021-08-10T10:51:49Z</time>
      </trkpt>
      <trkpt lat="47.50201" lon="6.90001">
        <ele>402.9</ele>
        <time>2021-08-10T10:51:51Z</time>
      </trkpt>
      <trkpt lat="47.502" lon="6.89996">
        <ele>402.9</ele>
        <time>2021-08-10T10:51:52Z</time>
      </trkpt>
      <trkpt lat="47.50199" lon="6.89995">
        <ele>402.9</ele>
        <time>2021-08-10T10:51:53Z</time>
      </trkpt>
      <trkpt lat="47.50197" lon="6.8999">
        <ele>403</ele>
        <time>2021-08-10T10:51:54Z</time>
      </trkpt>
      <trkpt lat="47.50195" lon="6.89985">
        <ele>403</ele>
        <time>2021-08-10T10:51:55Z</time>
      </trkpt>
      <trkpt lat="47.50195" lon="6.89983">
        <ele>403</ele>
        <time>2021-08-10T10:51:56Z</time>
      </trkpt>
      <trkpt lat="47.50194" lon="6.8998">
        <ele>403</ele>
        <time>2021-08-10T10:51:57Z</time>
      </trkpt>
      <trkpt lat="47.50193" lon="6.89977">
        <ele>403</ele>
        <time>2021-08-10T10:51:59Z</time>
      </trkpt>
      <trkpt lat="47.50192" lon="6.89972">
        <ele>403.1</ele>
        <time>2021-08-10T10:52:00Z</time>
      </trkpt>
      <trkpt lat="47.50192" lon="6.8997">
        <ele>403.1</ele>
        <time>2021-08-10T10:52:01Z</time>
      </trkpt>
      <trkpt lat="47.5019" lon="6.89966">
        <ele>403.1</ele>
        <time>2021-08-10T10:52:02Z</time>
      </trkpt>
      <trkpt lat="47.50188" lon="6.89962">
        <ele>403.2</ele>
        <time>2021-08-10T10:52:04Z</time>
      </trkpt>
      <trkpt lat="47.50187" lon="6.89959">
        <ele>403.2</ele>
        <time>2021-08-10T10:52:05Z</time>
      </trkpt>
      <trkpt lat="47.50185" lon="6.89954">
        <ele>403.2</ele>
        <time>2021-08-10T10:52:07Z</time>
      </trkpt>
      <trkpt lat="47.50184" lon="6.89949">
        <ele>403.3</ele>
        <time>2021-08-10T10:52:08Z</time>
      </trkpt>
      <trkpt lat="47.50183" lon="6.89947">
        <ele>403.3</ele>
        <time>2021-08-10T10:52:09Z</time>
      </trkpt>
      <trkpt lat="47.50182" lon="6.89943">
        <ele>403.3</ele>
        <time>2021-08-10T10:52:11Z</time>
      </trkpt>
      <trkpt lat="47.50181" lon="6.89942">
        <ele>403.3</ele>
        <time>2021-08-10T10:52:12Z</time>
      </trkpt>
      <trkpt lat="47.50179" lon="6.89939">
        <ele>403.4</ele>
        <time>2021-08-10T10:52:14Z</time>
      </trkpt>
      <trkpt lat="47.50178" lon="6.89937">
        <ele>403.4</ele>
        <time>2021-08-10T10:52:15Z</time>
      </trkpt>
      <trkpt lat="47.50175" lon="6.89934">
        <ele>403.5</ele>
        <time>2021-08-10T10:52:17Z</time>
      </trkpt>
      <trkpt lat="47.50171" lon="6.89932">
        <ele>403.6</ele>
        <time>2021-08-10T10:52:19Z</time>
      </trkpt>
      <trkpt lat="47.50168" lon="6.8993">
        <ele>403.6</ele>
        <time>2021-08-10T10:52:20Z</time>
      </trkpt>
      <trkpt lat="47.50163" lon="6.89928">
        <ele>403.6</ele>
        <time>2021-08-10T10:52:21Z</time>
      </trkpt>
      <trkpt lat="47.5016" lon="6.89927">
        <ele>403.5</ele>
        <time>2021-08-10T10:52:23Z</time>
      </trkpt>
      <trkpt lat="47.50156" lon="6.89926">
        <ele>403.5</ele>
        <time>2021-08-10T10:52:24Z</time>
      </trkpt>
      <trkpt lat="47.5015" lon="6.89922">
        <ele>403.4</ele>
        <time>2021-08-10T10:52:26Z</time>
      </trkpt>
      <trkpt lat="47.50145" lon="6.89919">
        <ele>403.2</ele>
        <time>2021-08-10T10:52:27Z</time>
      </trkpt>
      <trkpt lat="47.50142" lon="6.89917">
        <ele>403.1</ele>
        <time>2021-08-10T10:52:28Z</time>
      </trkpt>
      <trkpt lat="47.50139" lon="6.89914">
        <ele>403</ele>
        <time>2021-08-10T10:52:30Z</time>
      </trkpt>
      <trkpt lat="47.50135" lon="6.8991">
        <ele>402.9</ele>
        <time>2021-08-10T10:52:31Z</time>
      </trkpt>
      <trkpt lat="47.5013" lon="6.89906">
        <ele>402.7</ele>
        <time>2021-08-10T10:52:32Z</time>
      </trkpt>
      <trkpt lat="47.50127" lon="6.89904">
        <ele>402.6</ele>
        <time>2021-08-10T10:52:34Z</time>
      </trkpt>
      <trkpt lat="47.50123" lon="6.89903">
        <ele>402.5</ele>
        <time>2021-08-10T10:52:35Z</time>
      </trkpt>
      <trkpt lat="47.50122" lon="6.89902">
        <ele>402.5</ele>
        <time>2021-08-10T10:52:36Z</time>
      </trkpt>
      <trkpt lat="47.50121" lon="6.89899">
        <ele>402.4</ele>
        <time>2021-08-10T10:52:38Z</time>
      </trkpt>
      <trkpt lat="47.50119" lon="6.89897">
        <ele>402.3</ele>
        <time>2021-08-10T10:52:40Z</time>
      </trkpt>
      <trkpt lat="47.50117" lon="6.89895">
        <ele>402.3</ele>
        <time>2021-08-10T10:52:41Z</time>
      </trkpt>
      <trkpt lat="47.50117" lon="6.89894">
        <ele>402.3</ele>
        <time>2021-08-10T10:52:42Z</time>
      </trkpt>
      <trkpt lat="47.50116" lon="6.89893">
        <ele>402.3</ele>
        <time>2021-08-10T10:52:43Z</time>
      </trkpt>
      <trkpt lat="47.50116" lon="6.89892">
        <ele>402.2</ele>
        <time>2021-08-10T10:52:44Z</time>
      </trkpt>
      <trkpt lat="47.50116" lon="6.8989">
        <ele>402.2</ele>
        <time>2021-08-10T10:52:46Z</time>
      </trkpt>
      <trkpt lat="47.50116" lon="6.89889">
        <ele>402.2</ele>
        <time>2021-08-10T10:52:47Z</time>
      </trkpt>
      <trkpt lat="47.50115" lon="6.89888">
        <ele>402.2</ele>
        <time>2021-08-10T10:52:49Z</time>
      </trkpt>
      <trkpt lat="47.50114" lon="6.89887">
        <ele>402.2</ele>
        <time>2021-08-10T10:52:50Z</time>
      </trkpt>
      <trkpt lat="47.50113" lon="6.89885">
        <ele>402.1</ele>
        <time>2021-08-10T10:52:52Z</time>
      </trkpt>
      <trkpt lat="47.49999" lon="6.89854">
        <ele>404.8</ele>
        <time>2021-08-10T10:54:24Z</time>
      </trkpt>
      <trkpt lat="47.49997" lon="6.89855">
        <ele>404.9</ele>
        <time>2021-08-10T10:54:25Z</time>
      </trkpt>
      <trkpt lat="47.49995" lon="6.89855">
        <ele>404.9</ele>
        <time>2021-08-10T10:54:27Z</time>
      </trkpt>
      <trkpt lat="47.49994" lon="6.89856">
        <ele>404.9</ele>
        <time>2021-08-10T10:54:28Z</time>
      </trkpt>
      <trkpt lat="47.49993" lon="6.89856">
        <ele>404.9</ele>
        <time>2021-08-10T10:54:29Z</time>
      </trkpt>
      <trkpt lat="47.49992" lon="6.89854">
        <ele>405</ele>
        <time>2021-08-10T10:54:31Z</time>
      </trkpt>
      <trkpt lat="47.49991" lon="6.89851">
        <ele>405</ele>
        <time>2021-08-10T10:54:32Z</time>
      </trkpt>
      <trkpt lat="47.49991" lon="6.89849">
        <ele>405</ele>
        <time>2021-08-10T10:54:33Z</time>
      </trkpt>
      <trkpt lat="47.49991" lon="6.89846">
        <ele>405.1</ele>
        <time>2021-08-10T10:54:35Z</time>
      </trkpt>
      <trkpt lat="47.49991" lon="6.89845">
        <ele>405.1</ele>
        <time>2021-08-10T10:54:36Z</time>
      </trkpt>
      <trkpt lat="47.49991" lon="6.89844">
        <ele>405.1</ele>
        <time>2021-08-10T10:54:38Z</time>
      </trkpt>
      <trkpt lat="47.4999" lon="6.89843">
        <ele>405.1</ele>
        <time>2021-08-10T10:54:39Z</time>
      </trkpt>
      <trkpt lat="47.49977" lon="6.89828">
        <ele>405.2</ele>
        <time>2021-08-10T10:54:52Z</time>
      </trkpt>
      <trkpt lat="47.49975" lon="6.89825">
        <ele>405.2</ele>
        <time>2021-08-10T10:54:53Z</time>
      </trkpt>
      <trkpt lat="47.49971" lon="6.89822">
        <ele>405.2</ele>
        <time>2021-08-10T10:54:55Z</time>
      </trkpt>
      <trkpt lat="47.49969" lon="6.89819">
        <ele>405.2</ele>
        <time>2021-08-10T10:54:56Z</time>
      </trkpt>
      <trkpt lat="47.49965" lon="6.89816">
        <ele>405.2</ele>
        <time>2021-08-10T10:54:57Z</time>
      </trkpt>
      <trkpt lat="47.49963" lon="6.89814">
        <ele>405.2</ele>
        <time>2021-08-10T10:54:58Z</time>
      </trkpt>
      <trkpt lat="47.4996" lon="6.89812">
        <ele>405.2</ele>
        <time>2021-08-10T10:55:00Z</time>
      </trkpt>
      <trkpt lat="47.49956" lon="6.89808">
        <ele>405.1</ele>
        <time>2021-08-10T10:55:02Z</time>
      </trkpt>
      <trkpt lat="47.49953" lon="6.89804">
        <ele>405.1</ele>
        <time>2021-08-10T10:55:03Z</time>
      </trkpt>
      <trkpt lat="47.49951" lon="6.898">
        <ele>405.1</ele>
        <time>2021-08-10T10:55:04Z</time>
      </trkpt>
      <trkpt lat="47.49948" lon="6.89797">
        <ele>405.1</ele>
        <time>2021-08-10T10:55:05Z</time>
      </trkpt>
      <trkpt lat="47.49946" lon="6.89793">
        <ele>405.1</ele>
        <time>2021-08-10T10:55:06Z</time>
      </trkpt>
      <trkpt lat="47.49943" lon="6.89791">
        <ele>405.1</ele>
        <time>2021-08-10T10:55:08Z</time>
      </trkpt>
      <trkpt lat="47.49941" lon="6.89789">
        <ele>405.1</ele>
        <time>2021-08-10T10:55:09Z</time>
      </trkpt>
      <trkpt lat="47.49938" lon="6.89787">
        <ele>405.1</ele>
        <time>2021-08-10T10:55:10Z</time>
      </trkpt>
      <trkpt lat="47.49935" lon="6.89785">
        <ele>405.1</ele>
        <time>2021-08-10T10:55:11Z</time>
      </trkpt>
      <trkpt lat="47.49932" lon="6.89782">
        <ele>405.1</ele>
        <time>2021-08-10T10:55:12Z</time>
      </trkpt>
      <trkpt lat="47.49927" lon="6.89778">
        <ele>405.2</ele>
        <time>2021-08-10T10:55:13Z</time>
      </trkpt>
      <trkpt lat="47.49924" lon="6.89775">
        <ele>405.2</ele>
        <time>2021-08-10T10:55:15Z</time>
      </trkpt>
      <trkpt lat="47.49921" lon="6.89773">
        <ele>405.2</ele>
        <time>2021-08-10T10:55:16Z</time>
      </trkpt>
      <trkpt lat="47.49916" lon="6.89771">
        <ele>405.2</ele>
        <time>2021-08-10T10:55:17Z</time>
      </trkpt>
      <trkpt lat="47.49912" lon="6.89768">
        <ele>405.2</ele>
        <time>2021-08-10T10:55:19Z</time>
      </trkpt>
      <trkpt lat="47.49908" lon="6.89766">
        <ele>405.2</ele>
        <time>2021-08-10T10:55:20Z</time>
      </trkpt>
      <trkpt lat="47.49902" lon="6.89764">
        <ele>405.2</ele>
        <time>2021-08-10T10:55:22Z</time>
      </trkpt>
      <trkpt lat="47.49899" lon="6.89762">
        <ele>405.2</ele>
        <time>2021-08-10T10:55:23Z</time>
      </trkpt>
      <trkpt lat="47.49894" lon="6.89761">
        <ele>405.2</ele>
        <time>2021-08-10T10:55:24Z</time>
      </trkpt>
      <trkpt lat="47.49891" lon="6.89759">
        <ele>405.2</ele>
        <time>2021-08-10T10:55:25Z</time>
      </trkpt>
      <trkpt lat="47.49886" lon="6.89757">
        <ele>405.2</ele>
        <time>2021-08-10T10:55:27Z</time>
      </trkpt>
      <trkpt lat="47.49882" lon="6.89757">
        <ele>405.2</ele>
        <time>2021-08-10T10:55:28Z</time>
      </trkpt>
      <trkpt lat="47.49878" lon="6.89756">
        <ele>405.2</ele>
        <time>2021-08-10T10:55:29Z</time>
      </trkpt>
      <trkpt lat="47.49874" lon="6.89754">
        <ele>405.2</ele>
        <time>2021-08-10T10:55:30Z</time>
      </trkpt>
      <trkpt lat="47.49869" lon="6.89753">
        <ele>405.1</ele>
        <time>2021-08-10T10:55:31Z</time>
      </trkpt>
      <trkpt lat="47.49865" lon="6.89754">
        <ele>405.1</ele>
        <time>2021-08-10T10:55:32Z</time>
      </trkpt>
      <trkpt lat="47.49862" lon="6.89754">
        <ele>405.1</ele>
        <time>2021-08-10T10:55:33Z</time>
      </trkpt>
      <trkpt lat="47.49859" lon="6.89755">
        <ele>405.1</ele>
        <time>2021-08-10T10:55:34Z</time>
      </trkpt>
      <trkpt lat="47.49856" lon="6.89756">
        <ele>405</ele>
        <time>2021-08-10T10:55:36Z</time>
      </trkpt>
      <trkpt lat="47.49852" lon="6.89757">
        <ele>405</ele>
        <time>2021-08-10T10:55:38Z</time>
      </trkpt>
      <trkpt lat="47.49849" lon="6.89757">
        <ele>405</ele>
        <time>2021-08-10T10:55:39Z</time>
      </trkpt>
      <trkpt lat="47.49848" lon="6.89757">
        <ele>405</ele>
        <time>2021-08-10T10:55:40Z</time>
      </trkpt>
      <trkpt lat="47.49846" lon="6.89757">
        <ele>405</ele>
        <time>2021-08-10T10:55:41Z</time>
      </trkpt>
      <trkpt lat="47.49843" lon="6.89758">
        <ele>405</ele>
        <time>2021-08-10T10:55:43Z</time>
      </trkpt>
      <trkpt lat="47.4984" lon="6.89759">
        <ele>404.9</ele>
        <time>2021-08-10T10:55:44Z</time>
      </trkpt>
      <trkpt lat="47.49834" lon="6.89759">
        <ele>404.9</ele>
        <time>2021-08-10T10:55:46Z</time>
      </trkpt>
      <trkpt lat="47.49831" lon="6.89759">
        <ele>404.9</ele>
        <time>2021-08-10T10:55:47Z</time>
      </trkpt>
      <trkpt lat="47.49825" lon="6.8976">
        <ele>404.9</ele>
        <time>2021-08-10T10:55:49Z</time>
      </trkpt>
      <trkpt lat="47.49822" lon="6.89761">
        <ele>404.9</ele>
        <time>2021-08-10T10:55:50Z</time>
      </trkpt>
      <trkpt lat="47.49817" lon="6.89761">
        <ele>404.9</ele>
        <time>2021-08-10T10:55:52Z</time>
      </trkpt>
      <trkpt lat="47.49813" lon="6.89761">
        <ele>404.9</ele>
        <time>2021-08-10T10:55:53Z</time>
      </trkpt>
      <trkpt lat="47.49811" lon="6.89762">
        <ele>404.9</ele>
        <time>2021-08-10T10:55:54Z</time>
      </trkpt>
      <trkpt lat="47.49806" lon="6.89763">
        <ele>404.8</ele>
        <time>2021-08-10T10:55:56Z</time>
      </trkpt>
      <trkpt lat="47.49802" lon="6.89764">
        <ele>404.8</ele>
        <time>2021-08-10T10:55:57Z</time>
      </trkpt>
      <trkpt lat="47.49799" lon="6.89764">
        <ele>404.8</ele>
        <time>2021-08-10T10:55:58Z</time>
      </trkpt>
      <trkpt lat="47.49795" lon="6.89766">
        <ele>404.7</ele>
        <time>2021-08-10T10:56:00Z</time>
      </trkpt>
      <trkpt lat="47.49791" lon="6.89767">
        <ele>404.7</ele>
        <time>2021-08-10T10:56:01Z</time>
      </trkpt>
      <trkpt lat="47.49789" lon="6.89768">
        <ele>404.7</ele>
        <time>2021-08-10T10:56:02Z</time>
      </trkpt>
      <trkpt lat="47.49786" lon="6.89768">
        <ele>404.6</ele>
        <time>2021-08-10T10:56:03Z</time>
      </trkpt>
      <trkpt lat="47.49782" lon="6.89769">
        <ele>404.6</ele>
        <time>2021-08-10T10:56:04Z</time>
      </trkpt>
      <trkpt lat="47.4978" lon="6.8977">
        <ele>404.5</ele>
        <time>2021-08-10T10:56:05Z</time>
      </trkpt>
      <trkpt lat="47.49777" lon="6.8977">
        <ele>404.5</ele>
        <time>2021-08-10T10:56:07Z</time>
      </trkpt>
      <trkpt lat="47.49774" lon="6.8977">
        <ele>404.4</ele>
        <time>2021-08-10T10:56:08Z</time>
      </trkpt>
      <trkpt lat="47.4977" lon="6.8977">
        <ele>404.4</ele>
        <time>2021-08-10T10:56:09Z</time>
      </trkpt>
      <trkpt lat="47.49768" lon="6.89771">
        <ele>404.3</ele>
        <time>2021-08-10T10:56:10Z</time>
      </trkpt>
      <trkpt lat="47.49764" lon="6.89772">
        <ele>404.3</ele>
        <time>2021-08-10T10:56:12Z</time>
      </trkpt>
      <trkpt lat="47.49763" lon="6.89772">
        <ele>404.3</ele>
        <time>2021-08-10T10:56:13Z</time>
      </trkpt>
      <trkpt lat="47.49759" lon="6.89773">
        <ele>404.2</ele>
        <time>2021-08-10T10:56:14Z</time>
      </trkpt>
      <trkpt lat="47.49758" lon="6.89773">
        <ele>404.2</ele>
        <time>2021-08-10T10:56:15Z</time>
      </trkpt>
      <trkpt lat="47.49755" lon="6.89774">
        <ele>404.2</ele>
        <time>2021-08-10T10:56:17Z</time>
      </trkpt>
      <trkpt lat="47.49752" lon="6.89775">
        <ele>404.1</ele>
        <time>2021-08-10T10:56:18Z</time>
      </trkpt>
      <trkpt lat="47.49748" lon="6.89777">
        <ele>404</ele>
        <time>2021-08-10T10:56:20Z</time>
      </trkpt>
      <trkpt lat="47.49745" lon="6.89777">
        <ele>404</ele>
        <time>2021-08-10T10:56:21Z</time>
      </trkpt>
      <trkpt lat="47.49741" lon="6.89779">
        <ele>403.9</ele>
        <time>2021-08-10T10:56:23Z</time>
      </trkpt>
      <trkpt lat="47.49737" lon="6.89781">
        <ele>403.9</ele>
        <time>2021-08-10T10:56:24Z</time>
      </trkpt>
      <trkpt lat="47.49736" lon="6.89781">
        <ele>403.9</ele>
        <time>2021-08-10T10:56:25Z</time>
      </trkpt>
      <trkpt lat="47.49731" lon="6.89784">
        <ele>403.8</ele>
        <time>2021-08-10T10:56:26Z</time>
      </trkpt>
      <trkpt lat="47.49729" lon="6.89784">
        <ele>403.8</ele>
        <time>2021-08-10T10:56:27Z</time>
      </trkpt>
      <trkpt lat="47.49724" lon="6.89786">
        <ele>403.8</ele>
        <time>2021-08-10T10:56:29Z</time>
      </trkpt>
      <trkpt lat="47.4972" lon="6.89787">
        <ele>403.8</ele>
        <time>2021-08-10T10:56:30Z</time>
      </trkpt>
      <trkpt lat="47.49717" lon="6.89788">
        <ele>403.8</ele>
        <time>2021-08-10T10:56:31Z</time>
      </trkpt>
      <trkpt lat="47.49713" lon="6.89789">
        <ele>403.8</ele>
        <time>2021-08-10T10:56:32Z</time>
      </trkpt>
      <trkpt lat="47.49709" lon="6.89792">
        <ele>403.8</ele>
        <time>2021-08-10T10:56:34Z</time>
      </trkpt>
      <trkpt lat="47.49706" lon="6.89794">
        <ele>403.8</ele>
        <time>2021-08-10T10:56:35Z</time>
      </trkpt>
      <trkpt lat="47.49704" lon="6.89794">
        <ele>403.8</ele>
        <time>2021-08-10T10:56:36Z</time>
      </trkpt>
      <trkpt lat="47.497" lon="6.89795">
        <ele>403.9</ele>
        <time>2021-08-10T10:56:38Z</time>
      </trkpt>
      <trkpt lat="47.49698" lon="6.89797">
        <ele>403.9</ele>
        <time>2021-08-10T10:56:40Z</time>
      </trkpt>
      <trkpt lat="47.49698" lon="6.89795">
        <ele>403.9</ele>
        <time>2021-08-10T10:56:41Z</time>
      </trkpt>
      <trkpt lat="47.49697" lon="6.89795">
        <ele>403.9</ele>
        <time>2021-08-10T10:56:42Z</time>
      </trkpt>
      <trkpt lat="47.49696" lon="6.89794">
        <ele>403.9</ele>
        <time>2021-08-10T10:56:43Z</time>
      </trkpt>
      <trkpt lat="47.49695" lon="6.89795">
        <ele>403.9</ele>
        <time>2021-08-10T10:56:45Z</time>
      </trkpt>
      <trkpt lat="47.49694" lon="6.89795">
        <ele>404</ele>
        <time>2021-08-10T10:56:46Z</time>
      </trkpt>
      <trkpt lat="47.49693" lon="6.89795">
        <ele>404</ele>
        <time>2021-08-10T10:56:47Z</time>
      </trkpt>
      <trkpt lat="47.49691" lon="6.89794">
        <ele>404</ele>
        <time>2021-08-10T10:56:48Z</time>
      </trkpt>
      <trkpt lat="47.4969" lon="6.89794">
        <ele>404</ele>
        <time>2021-08-10T10:56:50Z</time>
      </trkpt>
      <trkpt lat="47.49689" lon="6.89794">
        <ele>404.1</ele>
        <time>2021-08-10T10:56:51Z</time>
      </trkpt>
      <trkpt lat="47.49687" lon="6.89795">
        <ele>404.1</ele>
        <time>2021-08-10T10:56:53Z</time>
      </trkpt>
      <trkpt lat="47.49684" lon="6.89796">
        <ele>404.2</ele>
        <time>2021-08-10T10:56:55Z</time>
      </trkpt>
      <trkpt lat="47.49682" lon="6.89795">
        <ele>404.2</ele>
        <time>2021-08-10T10:56:56Z</time>
      </trkpt>
      <trkpt lat="47.49681" lon="6.89794">
        <ele>404.2</ele>
        <time>2021-08-10T10:56:57Z</time>
      </trkpt>
      <trkpt lat="47.49678" lon="6.89793">
        <ele>404.3</ele>
        <time>2021-08-10T10:56:59Z</time>
      </trkpt>
      <trkpt lat="47.49675" lon="6.89791">
        <ele>404.3</ele>
        <time>2021-08-10T10:57:00Z</time>
      </trkpt>
      <trkpt lat="47.49673" lon="6.8979">
        <ele>404.4</ele>
        <time>2021-08-10T10:57:02Z</time>
      </trkpt>
      <trkpt lat="47.49672" lon="6.89788">
        <ele>404.4</ele>
        <time>2021-08-10T10:57:03Z</time>
      </trkpt>
      <trkpt lat="47.4967" lon="6.89786">
        <ele>404.4</ele>
        <time>2021-08-10T10:57:05Z</time>
      </trkpt>
      <trkpt lat="47.49667" lon="6.89784">
        <ele>404.6</ele>
        <time>2021-08-10T10:57:06Z</time>
      </trkpt>
      <trkpt lat="47.49665" lon="6.89783">
        <ele>404.6</ele>
        <time>2021-08-10T10:57:07Z</time>
      </trkpt>
      <trkpt lat="47.49664" lon="6.89782">
        <ele>404.6</ele>
        <time>2021-08-10T10:57:08Z</time>
      </trkpt>
      <trkpt lat="47.49662" lon="6.89779">
        <ele>404.6</ele>
        <time>2021-08-10T10:57:10Z</time>
      </trkpt>
      <trkpt lat="47.49659" lon="6.89776">
        <ele>404.6</ele>
        <time>2021-08-10T10:57:11Z</time>
      </trkpt>
      <trkpt lat="47.49659" lon="6.89775">
        <ele>404.6</ele>
        <time>2021-08-10T10:57:12Z</time>
      </trkpt>
      <trkpt lat="47.49657" lon="6.89772">
        <ele>404.7</ele>
        <time>2021-08-10T10:57:13Z</time>
      </trkpt>
      <trkpt lat="47.49654" lon="6.89768">
        <ele>404.7</ele>
        <time>2021-08-10T10:57:14Z</time>
      </trkpt>
      <trkpt lat="47.49652" lon="6.89765">
        <ele>404.7</ele>
        <time>2021-08-10T10:57:15Z</time>
      </trkpt>
      <trkpt lat="47.49649" lon="6.89759">
        <ele>404.8</ele>
        <time>2021-08-10T10:57:17Z</time>
      </trkpt>
      <trkpt lat="47.49646" lon="6.89755">
        <ele>404.8</ele>
        <time>2021-08-10T10:57:18Z</time>
      </trkpt>
      <trkpt lat="47.49644" lon="6.8975">
        <ele>404.8</ele>
        <time>2021-08-10T10:57:19Z</time>
      </trkpt>
      <trkpt lat="47.49641" lon="6.89744">
        <ele>404.9</ele>
        <time>2021-08-10T10:57:20Z</time>
      </trkpt>
      <trkpt lat="47.49638" lon="6.89739">
        <ele>404.9</ele>
        <time>2021-08-10T10:57:22Z</time>
      </trkpt>
      <trkpt lat="47.49635" lon="6.89735">
        <ele>404.9</ele>
        <time>2021-08-10T10:57:23Z</time>
      </trkpt>
      <trkpt lat="47.49631" lon="6.89729">
        <ele>404.8</ele>
        <time>2021-08-10T10:57:24Z</time>
      </trkpt>
      <trkpt lat="47.49628" lon="6.89724">
        <ele>404.6</ele>
        <time>2021-08-10T10:57:25Z</time>
      </trkpt>
      <trkpt lat="47.49624" lon="6.8972">
        <ele>404.5</ele>
        <time>2021-08-10T10:57:27Z</time>
      </trkpt>
      <trkpt lat="47.49621" lon="6.89715">
        <ele>404.4</ele>
        <time>2021-08-10T10:57:28Z</time>
      </trkpt>
      <trkpt lat="47.49617" lon="6.89709">
        <ele>404.3</ele>
        <time>2021-08-10T10:57:29Z</time>
      </trkpt>
      <trkpt lat="47.49613" lon="6.89703">
        <ele>404.1</ele>
        <time>2021-08-10T10:57:30Z</time>
      </trkpt>
      <trkpt lat="47.4961" lon="6.89698">
        <ele>404</ele>
        <time>2021-08-10T10:57:32Z</time>
      </trkpt>
      <trkpt lat="47.49606" lon="6.89692">
        <ele>403.9</ele>
        <time>2021-08-10T10:57:33Z</time>
      </trkpt>
      <trkpt lat="47.49603" lon="6.89688">
        <ele>403.7</ele>
        <time>2021-08-10T10:57:34Z</time>
      </trkpt>
      <trkpt lat="47.496" lon="6.89683">
        <ele>403.6</ele>
        <time>2021-08-10T10:57:35Z</time>
      </trkpt>
      <trkpt lat="47.49597" lon="6.89679">
        <ele>403.5</ele>
        <time>2021-08-10T10:57:36Z</time>
      </trkpt>
      <trkpt lat="47.49594" lon="6.89674">
        <ele>403.4</ele>
        <time>2021-08-10T10:57:37Z</time>
      </trkpt>
      <trkpt lat="47.4959" lon="6.89669">
        <ele>403.3</ele>
        <time>2021-08-10T10:57:38Z</time>
      </trkpt>
      <trkpt lat="47.49586" lon="6.89662">
        <ele>403.1</ele>
        <time>2021-08-10T10:57:39Z</time>
      </trkpt>
      <trkpt lat="47.49583" lon="6.89657">
        <ele>402.9</ele>
        <time>2021-08-10T10:57:40Z</time>
      </trkpt>
      <trkpt lat="47.49579" lon="6.89652">
        <ele>402.8</ele>
        <time>2021-08-10T10:57:42Z</time>
      </trkpt>
      <trkpt lat="47.49576" lon="6.89647">
        <ele>402.6</ele>
        <time>2021-08-10T10:57:43Z</time>
      </trkpt>
      <trkpt lat="47.49571" lon="6.89641">
        <ele>402.5</ele>
        <time>2021-08-10T10:57:44Z</time>
      </trkpt>
      <trkpt lat="47.49568" lon="6.89637">
        <ele>402.4</ele>
        <time>2021-08-10T10:57:45Z</time>
      </trkpt>
      <trkpt lat="47.49563" lon="6.89632">
        <ele>402.2</ele>
        <time>2021-08-10T10:57:47Z</time>
      </trkpt>
      <trkpt lat="47.49559" lon="6.89625">
        <ele>402.1</ele>
        <time>2021-08-10T10:57:48Z</time>
      </trkpt>
      <trkpt lat="47.49555" lon="6.89619">
        <ele>401.9</ele>
        <time>2021-08-10T10:57:50Z</time>
      </trkpt>
      <trkpt lat="47.49551" lon="6.89613">
        <ele>401.8</ele>
        <time>2021-08-10T10:57:51Z</time>
      </trkpt>
      <trkpt lat="47.49547" lon="6.89608">
        <ele>401.8</ele>
        <time>2021-08-10T10:57:53Z</time>
      </trkpt>
      <trkpt lat="47.49544" lon="6.89602">
        <ele>401.7</ele>
        <time>2021-08-10T10:57:54Z</time>
      </trkpt>
      <trkpt lat="47.49544" lon="6.89599">
        <ele>401.7</ele>
        <time>2021-08-10T10:57:56Z</time>
      </trkpt>
      <trkpt lat="47.49544" lon="6.89597">
        <ele>401.7</ele>
        <time>2021-08-10T10:57:57Z</time>
      </trkpt>
      <trkpt lat="47.49542" lon="6.89592">
        <ele>401.7</ele>
        <time>2021-08-10T10:57:58Z</time>
      </trkpt>
      <trkpt lat="47.4954" lon="6.8959">
        <ele>401.7</ele>
        <time>2021-08-10T10:57:59Z</time>
      </trkpt>
      <trkpt lat="47.49539" lon="6.89583">
        <ele>401.8</ele>
        <time>2021-08-10T10:58:01Z</time>
      </trkpt>
      <trkpt lat="47.49539" lon="6.89578">
        <ele>401.8</ele>
        <time>2021-08-10T10:58:02Z</time>
      </trkpt>
      <trkpt lat="47.49537" lon="6.8957">
        <ele>401.9</ele>
        <time>2021-08-10T10:58:03Z</time>
      </trkpt>
      <trkpt lat="47.49535" lon="6.89565">
        <ele>402</ele>
        <time>2021-08-10T10:58:04Z</time>
      </trkpt>
      <trkpt lat="47.49534" lon="6.89559">
        <ele>402.1</ele>
        <time>2021-08-10T10:58:06Z</time>
      </trkpt>
      <trkpt lat="47.49532" lon="6.89554">
        <ele>402.1</ele>
        <time>2021-08-10T10:58:07Z</time>
      </trkpt>
      <trkpt lat="47.4953" lon="6.8955">
        <ele>402.2</ele>
        <time>2021-08-10T10:58:08Z</time>
      </trkpt>
      <trkpt lat="47.49529" lon="6.89546">
        <ele>402.2</ele>
        <time>2021-08-10T10:58:09Z</time>
      </trkpt>
      <trkpt lat="47.49527" lon="6.89541">
        <ele>402.3</ele>
        <time>2021-08-10T10:58:11Z</time>
      </trkpt>
      <trkpt lat="47.49525" lon="6.89536">
        <ele>402.3</ele>
        <time>2021-08-10T10:58:12Z</time>
      </trkpt>
      <trkpt lat="47.49522" lon="6.8953">
        <ele>402.4</ele>
        <time>2021-08-10T10:58:13Z</time>
      </trkpt>
      <trkpt lat="47.4952" lon="6.89524">
        <ele>402.4</ele>
        <time>2021-08-10T10:58:15Z</time>
      </trkpt>
      <trkpt lat="47.49517" lon="6.89516">
        <ele>402.4</ele>
        <time>2021-08-10T10:58:17Z</time>
      </trkpt>
      <trkpt lat="47.49516" lon="6.89512">
        <ele>402.4</ele>
        <time>2021-08-10T10:58:18Z</time>
      </trkpt>
      <trkpt lat="47.49513" lon="6.89504">
        <ele>402.4</ele>
        <time>2021-08-10T10:58:20Z</time>
      </trkpt>
      <trkpt lat="47.49512" lon="6.895">
        <ele>402.4</ele>
        <time>2021-08-10T10:58:21Z</time>
      </trkpt>
      <trkpt lat="47.49511" lon="6.89495">
        <ele>402.4</ele>
        <time>2021-08-10T10:58:22Z</time>
      </trkpt>
      <trkpt lat="47.4951" lon="6.8949">
        <ele>402.5</ele>
        <time>2021-08-10T10:58:23Z</time>
      </trkpt>
      <trkpt lat="47.49508" lon="6.89483">
        <ele>402.5</ele>
        <time>2021-08-10T10:58:24Z</time>
      </trkpt>
      <trkpt lat="47.49506" lon="6.89479">
        <ele>402.4</ele>
        <time>2021-08-10T10:58:26Z</time>
      </trkpt>
      <trkpt lat="47.49505" lon="6.89475">
        <ele>402.4</ele>
        <time>2021-08-10T10:58:27Z</time>
      </trkpt>
      <trkpt lat="47.49504" lon="6.8947">
        <ele>402.4</ele>
        <time>2021-08-10T10:58:28Z</time>
      </trkpt>
      <trkpt lat="47.49502" lon="6.89466">
        <ele>402.4</ele>
        <time>2021-08-10T10:58:29Z</time>
      </trkpt>
      <trkpt lat="47.495" lon="6.89462">
        <ele>402.4</ele>
        <time>2021-08-10T10:58:30Z</time>
      </trkpt>
      <trkpt lat="47.49498" lon="6.89456">
        <ele>402.3</ele>
        <time>2021-08-10T10:58:31Z</time>
      </trkpt>
      <trkpt lat="47.49496" lon="6.89451">
        <ele>402.3</ele>
        <time>2021-08-10T10:58:32Z</time>
      </trkpt>
      <trkpt lat="47.49492" lon="6.89444">
        <ele>402.2</ele>
        <time>2021-08-10T10:58:34Z</time>
      </trkpt>
      <trkpt lat="47.4949" lon="6.8944">
        <ele>402.2</ele>
        <time>2021-08-10T10:58:35Z</time>
      </trkpt>
      <trkpt lat="47.49486" lon="6.89432">
        <ele>402.1</ele>
        <time>2021-08-10T10:58:37Z</time>
      </trkpt>
      <trkpt lat="47.49483" lon="6.89426">
        <ele>402.1</ele>
        <time>2021-08-10T10:58:38Z</time>
      </trkpt>
      <trkpt lat="47.4948" lon="6.89419">
        <ele>402</ele>
        <time>2021-08-10T10:58:40Z</time>
      </trkpt>
      <trkpt lat="47.49478" lon="6.89414">
        <ele>401.9</ele>
        <time>2021-08-10T10:58:41Z</time>
      </trkpt>
      <trkpt lat="47.49477" lon="6.89409">
        <ele>401.9</ele>
        <time>2021-08-10T10:58:42Z</time>
      </trkpt>
      <trkpt lat="47.49476" lon="6.89403">
        <ele>401.8</ele>
        <time>2021-08-10T10:58:44Z</time>
      </trkpt>
      <trkpt lat="47.49474" lon="6.89397">
        <ele>401.7</ele>
        <time>2021-08-10T10:58:45Z</time>
      </trkpt>
      <trkpt lat="47.49472" lon="6.89392">
        <ele>401.7</ele>
        <time>2021-08-10T10:58:47Z</time>
      </trkpt>
      <trkpt lat="47.49472" lon="6.89388">
        <ele>401.6</ele>
        <time>2021-08-10T10:58:48Z</time>
      </trkpt>
      <trkpt lat="47.49471" lon="6.89382">
        <ele>401.5</ele>
        <time>2021-08-10T10:58:49Z</time>
      </trkpt>
      <trkpt lat="47.49471" lon="6.8938">
        <ele>401.5</ele>
        <time>2021-08-10T10:58:50Z</time>
      </trkpt>
      <trkpt lat="47.4947" lon="6.89375">
        <ele>401.4</ele>
        <time>2021-08-10T10:58:51Z</time>
      </trkpt>
      <trkpt lat="47.49469" lon="6.89371">
        <ele>401.4</ele>
        <time>2021-08-10T10:58:53Z</time>
      </trkpt>
      <trkpt lat="47.49469" lon="6.89366">
        <ele>401.3</ele>
        <time>2021-08-10T10:58:54Z</time>
      </trkpt>
      <trkpt lat="47.49468" lon="6.89358">
        <ele>401.2</ele>
        <time>2021-08-10T10:58:56Z</time>
      </trkpt>
      <trkpt lat="47.49467" lon="6.89354">
        <ele>401.1</ele>
        <time>2021-08-10T10:58:57Z</time>
      </trkpt>
      <trkpt lat="47.49466" lon="6.89347">
        <ele>401</ele>
        <time>2021-08-10T10:58:59Z</time>
      </trkpt>
      <trkpt lat="47.49464" lon="6.89339">
        <ele>400.8</ele>
        <time>2021-08-10T10:59:00Z</time>
      </trkpt>
      <trkpt lat="47.49463" lon="6.89333">
        <ele>400.7</ele>
        <time>2021-08-10T10:59:02Z</time>
      </trkpt>
      <trkpt lat="47.49462" lon="6.89327">
        <ele>400.5</ele>
        <time>2021-08-10T10:59:03Z</time>
      </trkpt>
      <trkpt lat="47.49461" lon="6.89323">
        <ele>400.4</ele>
        <time>2021-08-10T10:59:05Z</time>
      </trkpt>
      <trkpt lat="47.49459" lon="6.89316">
        <ele>400.2</ele>
        <time>2021-08-10T10:59:07Z</time>
      </trkpt>
      <trkpt lat="47.49458" lon="6.89311">
        <ele>400.1</ele>
        <time>2021-08-10T10:59:08Z</time>
      </trkpt>
      <trkpt lat="47.49458" lon="6.89308">
        <ele>400</ele>
        <time>2021-08-10T10:59:09Z</time>
      </trkpt>
      <trkpt lat="47.49455" lon="6.89303">
        <ele>399.8</ele>
        <time>2021-08-10T10:59:10Z</time>
      </trkpt>
      <trkpt lat="47.49454" lon="6.89301">
        <ele>399.8</ele>
        <time>2021-08-10T10:59:11Z</time>
      </trkpt>
      <trkpt lat="47.49453" lon="6.89296">
        <ele>399.6</ele>
        <time>2021-08-10T10:59:12Z</time>
      </trkpt>
      <trkpt lat="47.49451" lon="6.89291">
        <ele>399.5</ele>
        <time>2021-08-10T10:59:13Z</time>
      </trkpt>
      <trkpt lat="47.49449" lon="6.89287">
        <ele>399.4</ele>
        <time>2021-08-10T10:59:15Z</time>
      </trkpt>
      <trkpt lat="47.49449" lon="6.89277">
        <ele>399.2</ele>
        <time>2021-08-10T10:59:17Z</time>
      </trkpt>
      <trkpt lat="47.4945" lon="6.89271">
        <ele>399.1</ele>
        <time>2021-08-10T10:59:18Z</time>
      </trkpt>
      <trkpt lat="47.49449" lon="6.89266">
        <ele>399</ele>
        <time>2021-08-10T10:59:19Z</time>
      </trkpt>
      <trkpt lat="47.49449" lon="6.89263">
        <ele>398.9</ele>
        <time>2021-08-10T10:59:20Z</time>
      </trkpt>
      <trkpt lat="47.49448" lon="6.89256">
        <ele>398.8</ele>
        <time>2021-08-10T10:59:22Z</time>
      </trkpt>
      <trkpt lat="47.49448" lon="6.89249">
        <ele>398.7</ele>
        <time>2021-08-10T10:59:24Z</time>
      </trkpt>
      <trkpt lat="47.49447" lon="6.89243">
        <ele>398.6</ele>
        <time>2021-08-10T10:59:25Z</time>
      </trkpt>
      <trkpt lat="47.49444" lon="6.89235">
        <ele>398.4</ele>
        <time>2021-08-10T10:59:26Z</time>
      </trkpt>
      <trkpt lat="47.49443" lon="6.89231">
        <ele>398.4</ele>
        <time>2021-08-10T10:59:27Z</time>
      </trkpt>
      <trkpt lat="47.49441" lon="6.89225">
        <ele>398.3</ele>
        <time>2021-08-10T10:59:28Z</time>
      </trkpt>
      <trkpt lat="47.49439" lon="6.89218">
        <ele>398.2</ele>
        <time>2021-08-10T10:59:30Z</time>
      </trkpt>
      <trkpt lat="47.49436" lon="6.89208">
        <ele>398.1</ele>
        <time>2021-08-10T10:59:31Z</time>
      </trkpt>
      <trkpt lat="47.49433" lon="6.89201">
        <ele>398</ele>
        <time>2021-08-10T10:59:32Z</time>
      </trkpt>
      <trkpt lat="47.49431" lon="6.89191">
        <ele>397.9</ele>
        <time>2021-08-10T10:59:34Z</time>
      </trkpt>
      <trkpt lat="47.49427" lon="6.89179">
        <ele>397.8</ele>
        <time>2021-08-10T10:59:36Z</time>
      </trkpt>
      <trkpt lat="47.49425" lon="6.89172">
        <ele>397.8</ele>
        <time>2021-08-10T10:59:37Z</time>
      </trkpt>
      <trkpt lat="47.49422" lon="6.89162">
        <ele>397.7</ele>
        <time>2021-08-10T10:59:38Z</time>
      </trkpt>
      <trkpt lat="47.49418" lon="6.89154">
        <ele>397.7</ele>
        <time>2021-08-10T10:59:40Z</time>
      </trkpt>
      <trkpt lat="47.49414" lon="6.89147">
        <ele>397.7</ele>
        <time>2021-08-10T10:59:41Z</time>
      </trkpt>
      <trkpt lat="47.49411" lon="6.89142">
        <ele>397.5</ele>
        <time>2021-08-10T10:59:43Z</time>
      </trkpt>
      <trkpt lat="47.49409" lon="6.89139">
        <ele>397.4</ele>
        <time>2021-08-10T10:59:44Z</time>
      </trkpt>
      <trkpt lat="47.49407" lon="6.89132">
        <ele>397.2</ele>
        <time>2021-08-10T10:59:45Z</time>
      </trkpt>
      <trkpt lat="47.49405" lon="6.89128">
        <ele>397.1</ele>
        <time>2021-08-10T10:59:46Z</time>
      </trkpt>
      <trkpt lat="47.49404" lon="6.89123">
        <ele>397</ele>
        <time>2021-08-10T10:59:48Z</time>
      </trkpt>
      <trkpt lat="47.49402" lon="6.89119">
        <ele>396.9</ele>
        <time>2021-08-10T10:59:49Z</time>
      </trkpt>
      <trkpt lat="47.49401" lon="6.89114">
        <ele>396.8</ele>
        <time>2021-08-10T10:59:50Z</time>
      </trkpt>
      <trkpt lat="47.49401" lon="6.89112">
        <ele>396.7</ele>
        <time>2021-08-10T10:59:51Z</time>
      </trkpt>
      <trkpt lat="47.49402" lon="6.89107">
        <ele>396.6</ele>
        <time>2021-08-10T10:59:52Z</time>
      </trkpt>
      <trkpt lat="47.49402" lon="6.89101">
        <ele>396.5</ele>
        <time>2021-08-10T10:59:54Z</time>
      </trkpt>
      <trkpt lat="47.49403" lon="6.89095">
        <ele>396.3</ele>
        <time>2021-08-10T10:59:55Z</time>
      </trkpt>
      <trkpt lat="47.49404" lon="6.89091">
        <ele>396.2</ele>
        <time>2021-08-10T10:59:56Z</time>
      </trkpt>
      <trkpt lat="47.49406" lon="6.89081">
        <ele>396</ele>
        <time>2021-08-10T10:59:58Z</time>
      </trkpt>
      <trkpt lat="47.49407" lon="6.89076">
        <ele>395.8</ele>
        <time>2021-08-10T10:59:59Z</time>
      </trkpt>
      <trkpt lat="47.49408" lon="6.89072">
        <ele>395.7</ele>
        <time>2021-08-10T11:00:00Z</time>
      </trkpt>
      <trkpt lat="47.4941" lon="6.89063">
        <ele>395.6</ele>
        <time>2021-08-10T11:00:01Z</time>
      </trkpt>
      <trkpt lat="47.4941" lon="6.89056">
        <ele>395.5</ele>
        <time>2021-08-10T11:00:03Z</time>
      </trkpt>
      <trkpt lat="47.49411" lon="6.89049">
        <ele>395.3</ele>
        <time>2021-08-10T11:00:04Z</time>
      </trkpt>
      <trkpt lat="47.49411" lon="6.89045">
        <ele>395.2</ele>
        <time>2021-08-10T11:00:05Z</time>
      </trkpt>
      <trkpt lat="47.4941" lon="6.89039">
        <ele>395.1</ele>
        <time>2021-08-10T11:00:06Z</time>
      </trkpt>
      <trkpt lat="47.49409" lon="6.89032">
        <ele>394.9</ele>
        <time>2021-08-10T11:00:08Z</time>
      </trkpt>
      <trkpt lat="47.49408" lon="6.89022">
        <ele>394.7</ele>
        <time>2021-08-10T11:00:09Z</time>
      </trkpt>
      <trkpt lat="47.49406" lon="6.89016">
        <ele>394.5</ele>
        <time>2021-08-10T11:00:11Z</time>
      </trkpt>
      <trkpt lat="47.49405" lon="6.8901">
        <ele>394.3</ele>
        <time>2021-08-10T11:00:12Z</time>
      </trkpt>
      <trkpt lat="47.49401" lon="6.89001">
        <ele>394</ele>
        <time>2021-08-10T11:00:14Z</time>
      </trkpt>
      <trkpt lat="47.49398" lon="6.88993">
        <ele>393.8</ele>
        <time>2021-08-10T11:00:15Z</time>
      </trkpt>
      <trkpt lat="47.49396" lon="6.88985">
        <ele>393.6</ele>
        <time>2021-08-10T11:00:16Z</time>
      </trkpt>
      <trkpt lat="47.49394" lon="6.88978">
        <ele>393.4</ele>
        <time>2021-08-10T11:00:17Z</time>
      </trkpt>
      <trkpt lat="47.49392" lon="6.88971">
        <ele>393.2</ele>
        <time>2021-08-10T11:00:18Z</time>
      </trkpt>
      <trkpt lat="47.49388" lon="6.8896">
        <ele>392.9</ele>
        <time>2021-08-10T11:00:20Z</time>
      </trkpt>
      <trkpt lat="47.49382" lon="6.88948">
        <ele>392.6</ele>
        <time>2021-08-10T11:00:21Z</time>
      </trkpt>
      <trkpt lat="47.49373" lon="6.88933">
        <ele>392.2</ele>
        <time>2021-08-10T11:00:23Z</time>
      </trkpt>
      <trkpt lat="47.49368" lon="6.88924">
        <ele>391.9</ele>
        <time>2021-08-10T11:00:24Z</time>
      </trkpt>
      <trkpt lat="47.49365" lon="6.88918">
        <ele>391.7</ele>
        <time>2021-08-10T11:00:25Z</time>
      </trkpt>
      <trkpt lat="47.49359" lon="6.88906">
        <ele>391.3</ele>
        <time>2021-08-10T11:00:27Z</time>
      </trkpt>
      <trkpt lat="47.49356" lon="6.889">
        <ele>391.1</ele>
        <time>2021-08-10T11:00:28Z</time>
      </trkpt>
      <trkpt lat="47.49354" lon="6.88894">
        <ele>390.8</ele>
        <time>2021-08-10T11:00:29Z</time>
      </trkpt>
      <trkpt lat="47.49352" lon="6.88889">
        <ele>390.6</ele>
        <time>2021-08-10T11:00:30Z</time>
      </trkpt>
      <trkpt lat="47.49348" lon="6.88882">
        <ele>390.3</ele>
        <time>2021-08-10T11:00:31Z</time>
      </trkpt>
      <trkpt lat="47.49343" lon="6.88873">
        <ele>389.8</ele>
        <time>2021-08-10T11:00:33Z</time>
      </trkpt>
      <trkpt lat="47.49342" lon="6.88867">
        <ele>389.6</ele>
        <time>2021-08-10T11:00:34Z</time>
      </trkpt>
      <trkpt lat="47.49336" lon="6.88857">
        <ele>389.1</ele>
        <time>2021-08-10T11:00:36Z</time>
      </trkpt>
      <trkpt lat="47.49334" lon="6.88852">
        <ele>388.9</ele>
        <time>2021-08-10T11:00:37Z</time>
      </trkpt>
      <trkpt lat="47.49332" lon="6.88848">
        <ele>388.7</ele>
        <time>2021-08-10T11:00:38Z</time>
      </trkpt>
      <trkpt lat="47.49329" lon="6.8884">
        <ele>388.4</ele>
        <time>2021-08-10T11:00:40Z</time>
      </trkpt>
      <trkpt lat="47.49327" lon="6.88835">
        <ele>388.2</ele>
        <time>2021-08-10T11:00:41Z</time>
      </trkpt>
      <trkpt lat="47.49325" lon="6.88831">
        <ele>388</ele>
        <time>2021-08-10T11:00:42Z</time>
      </trkpt>
      <trkpt lat="47.49323" lon="6.88828">
        <ele>387.9</ele>
        <time>2021-08-10T11:00:43Z</time>
      </trkpt>
      <trkpt lat="47.49321" lon="6.88823">
        <ele>387.8</ele>
        <time>2021-08-10T11:00:45Z</time>
      </trkpt>
      <trkpt lat="47.49321" lon="6.88819">
        <ele>387.6</ele>
        <time>2021-08-10T11:00:46Z</time>
      </trkpt>
      <trkpt lat="47.49321" lon="6.88817">
        <ele>387.6</ele>
        <time>2021-08-10T11:00:47Z</time>
      </trkpt>
      <trkpt lat="47.49322" lon="6.88813">
        <ele>387.5</ele>
        <time>2021-08-10T11:00:48Z</time>
      </trkpt>
      <trkpt lat="47.49323" lon="6.88809">
        <ele>387.4</ele>
        <time>2021-08-10T11:00:50Z</time>
      </trkpt>
      <trkpt lat="47.49324" lon="6.88807">
        <ele>387.4</ele>
        <time>2021-08-10T11:00:51Z</time>
      </trkpt>
      <trkpt lat="47.49326" lon="6.88797">
        <ele>387.3</ele>
        <time>2021-08-10T11:00:53Z</time>
      </trkpt>
      <trkpt lat="47.49328" lon="6.88792">
        <ele>387.3</ele>
        <time>2021-08-10T11:00:54Z</time>
      </trkpt>
      <trkpt lat="47.49329" lon="6.88787">
        <ele>387.2</ele>
        <time>2021-08-10T11:00:56Z</time>
      </trkpt>
      <trkpt lat="47.4933" lon="6.88783">
        <ele>387.2</ele>
        <time>2021-08-10T11:00:57Z</time>
      </trkpt>
      <trkpt lat="47.49333" lon="6.88777">
        <ele>387.2</ele>
        <time>2021-08-10T11:00:59Z</time>
      </trkpt>
      <trkpt lat="47.49336" lon="6.88775">
        <ele>387.2</ele>
        <time>2021-08-10T11:01:00Z</time>
      </trkpt>
      <trkpt lat="47.49338" lon="6.88773">
        <ele>387.2</ele>
        <time>2021-08-10T11:01:01Z</time>
      </trkpt>
      <trkpt lat="47.49341" lon="6.88769">
        <ele>387.2</ele>
        <time>2021-08-10T11:01:03Z</time>
      </trkpt>
      <trkpt lat="47.49344" lon="6.88766">
        <ele>387.2</ele>
        <time>2021-08-10T11:01:04Z</time>
      </trkpt>
      <trkpt lat="47.49345" lon="6.88764">
        <ele>387.2</ele>
        <time>2021-08-10T11:01:05Z</time>
      </trkpt>
      <trkpt lat="47.49346" lon="6.88762">
        <ele>387.3</ele>
        <time>2021-08-10T11:01:07Z</time>
      </trkpt>
      <trkpt lat="47.49347" lon="6.8876">
        <ele>387.3</ele>
        <time>2021-08-10T11:01:08Z</time>
      </trkpt>
      <trkpt lat="47.49351" lon="6.8875">
        <ele>387.3</ele>
        <time>2021-08-10T11:01:09Z</time>
      </trkpt>
      <trkpt lat="47.49355" lon="6.88742">
        <ele>387.4</ele>
        <time>2021-08-10T11:01:11Z</time>
      </trkpt>
      <trkpt lat="47.49359" lon="6.8873">
        <ele>387.5</ele>
        <time>2021-08-10T11:01:12Z</time>
      </trkpt>
      <trkpt lat="47.4936" lon="6.88721">
        <ele>387.5</ele>
        <time>2021-08-10T11:01:13Z</time>
      </trkpt>
      <trkpt lat="47.4936" lon="6.88709">
        <ele>387.6</ele>
        <time>2021-08-10T11:01:17Z</time>
      </trkpt>
      <trkpt lat="47.49359" lon="6.88699">
        <ele>387.6</ele>
        <time>2021-08-10T11:01:19Z</time>
      </trkpt>
      <trkpt lat="47.49358" lon="6.88691">
        <ele>387.5</ele>
        <time>2021-08-10T11:01:20Z</time>
      </trkpt>
      <trkpt lat="47.49358" lon="6.88682">
        <ele>387.5</ele>
        <time>2021-08-10T11:01:21Z</time>
      </trkpt>
      <trkpt lat="47.49358" lon="6.88675">
        <ele>387.4</ele>
        <time>2021-08-10T11:01:22Z</time>
      </trkpt>
      <trkpt lat="47.49359" lon="6.88667">
        <ele>387.3</ele>
        <time>2021-08-10T11:01:24Z</time>
      </trkpt>
      <trkpt lat="47.49359" lon="6.8866">
        <ele>387.2</ele>
        <time>2021-08-10T11:01:25Z</time>
      </trkpt>
      <trkpt lat="47.4936" lon="6.88647">
        <ele>387</ele>
        <time>2021-08-10T11:01:27Z</time>
      </trkpt>
      <trkpt lat="47.49361" lon="6.88637">
        <ele>386.8</ele>
        <time>2021-08-10T11:01:28Z</time>
      </trkpt>
      <trkpt lat="47.49363" lon="6.88627">
        <ele>386.6</ele>
        <time>2021-08-10T11:01:29Z</time>
      </trkpt>
      <trkpt lat="47.49364" lon="6.88619">
        <ele>386.4</ele>
        <time>2021-08-10T11:01:31Z</time>
      </trkpt>
      <trkpt lat="47.49365" lon="6.88612">
        <ele>386.2</ele>
        <time>2021-08-10T11:01:32Z</time>
      </trkpt>
      <trkpt lat="47.49367" lon="6.88606">
        <ele>386</ele>
        <time>2021-08-10T11:01:33Z</time>
      </trkpt>
      <trkpt lat="47.49368" lon="6.88601">
        <ele>385.8</ele>
        <time>2021-08-10T11:01:34Z</time>
      </trkpt>
      <trkpt lat="47.49369" lon="6.8859">
        <ele>385.5</ele>
        <time>2021-08-10T11:01:35Z</time>
      </trkpt>
      <trkpt lat="47.4937" lon="6.8858">
        <ele>385.1</ele>
        <time>2021-08-10T11:01:37Z</time>
      </trkpt>
      <trkpt lat="47.4937" lon="6.88572">
        <ele>384.9</ele>
        <time>2021-08-10T11:01:38Z</time>
      </trkpt>
      <trkpt lat="47.49371" lon="6.88562">
        <ele>384.5</ele>
        <time>2021-08-10T11:01:39Z</time>
      </trkpt>
      <trkpt lat="47.49371" lon="6.88552">
        <ele>384.2</ele>
        <time>2021-08-10T11:01:41Z</time>
      </trkpt>
      <trkpt lat="47.49371" lon="6.88543">
        <ele>383.9</ele>
        <time>2021-08-10T11:01:42Z</time>
      </trkpt>
      <trkpt lat="47.49371" lon="6.88536">
        <ele>383.7</ele>
        <time>2021-08-10T11:01:43Z</time>
      </trkpt>
      <trkpt lat="47.49372" lon="6.88528">
        <ele>383.5</ele>
        <time>2021-08-10T11:01:45Z</time>
      </trkpt>
      <trkpt lat="47.49372" lon="6.88516">
        <ele>383.1</ele>
        <time>2021-08-10T11:01:47Z</time>
      </trkpt>
      <trkpt lat="47.49373" lon="6.88509">
        <ele>382.9</ele>
        <time>2021-08-10T11:01:48Z</time>
      </trkpt>
      <trkpt lat="47.49372" lon="6.88499">
        <ele>382.7</ele>
        <time>2021-08-10T11:01:49Z</time>
      </trkpt>
      <trkpt lat="47.4937" lon="6.88491">
        <ele>382.5</ele>
        <time>2021-08-10T11:01:51Z</time>
      </trkpt>
      <trkpt lat="47.49369" lon="6.88483">
        <ele>382.3</ele>
        <time>2021-08-10T11:01:52Z</time>
      </trkpt>
      <trkpt lat="47.49368" lon="6.88476">
        <ele>382.1</ele>
        <time>2021-08-10T11:01:53Z</time>
      </trkpt>
      <trkpt lat="47.49366" lon="6.88469">
        <ele>381.9</ele>
        <time>2021-08-10T11:01:55Z</time>
      </trkpt>
      <trkpt lat="47.49365" lon="6.88462">
        <ele>381.7</ele>
        <time>2021-08-10T11:01:56Z</time>
      </trkpt>
      <trkpt lat="47.49365" lon="6.88455">
        <ele>381.6</ele>
        <time>2021-08-10T11:01:58Z</time>
      </trkpt>
      <trkpt lat="47.49366" lon="6.88446">
        <ele>381.3</ele>
        <time>2021-08-10T11:01:59Z</time>
      </trkpt>
      <trkpt lat="47.49367" lon="6.88441">
        <ele>381.2</ele>
        <time>2021-08-10T11:02:01Z</time>
      </trkpt>
      <trkpt lat="47.49368" lon="6.88435">
        <ele>381</ele>
        <time>2021-08-10T11:02:02Z</time>
      </trkpt>
      <trkpt lat="47.49368" lon="6.8843">
        <ele>380.9</ele>
        <time>2021-08-10T11:02:03Z</time>
      </trkpt>
      <trkpt lat="47.49368" lon="6.88423">
        <ele>380.7</ele>
        <time>2021-08-10T11:02:04Z</time>
      </trkpt>
      <trkpt lat="47.49369" lon="6.88419">
        <ele>380.5</ele>
        <time>2021-08-10T11:02:06Z</time>
      </trkpt>
      <trkpt lat="47.49368" lon="6.88413">
        <ele>380.4</ele>
        <time>2021-08-10T11:02:07Z</time>
      </trkpt>
      <trkpt lat="47.49368" lon="6.88404">
        <ele>380.1</ele>
        <time>2021-08-10T11:02:08Z</time>
      </trkpt>
      <trkpt lat="47.49368" lon="6.88398">
        <ele>379.9</ele>
        <time>2021-08-10T11:02:10Z</time>
      </trkpt>
      <trkpt lat="47.49367" lon="6.88388">
        <ele>379.6</ele>
        <time>2021-08-10T11:02:11Z</time>
      </trkpt>
      <trkpt lat="47.49367" lon="6.88383">
        <ele>379.4</ele>
        <time>2021-08-10T11:02:12Z</time>
      </trkpt>
      <trkpt lat="47.49367" lon="6.88378">
        <ele>379.2</ele>
        <time>2021-08-10T11:02:13Z</time>
      </trkpt>
      <trkpt lat="47.49367" lon="6.88371">
        <ele>379</ele>
        <time>2021-08-10T11:02:15Z</time>
      </trkpt>
      <trkpt lat="47.49367" lon="6.88367">
        <ele>378.9</ele>
        <time>2021-08-10T11:02:16Z</time>
      </trkpt>
      <trkpt lat="47.49368" lon="6.88359">
        <ele>378.6</ele>
        <time>2021-08-10T11:02:17Z</time>
      </trkpt>
      <trkpt lat="47.49368" lon="6.88353">
        <ele>378.5</ele>
        <time>2021-08-10T11:02:19Z</time>
      </trkpt>
      <trkpt lat="47.49368" lon="6.88347">
        <ele>378.3</ele>
        <time>2021-08-10T11:02:20Z</time>
      </trkpt>
      <trkpt lat="47.49368" lon="6.88339">
        <ele>378.1</ele>
        <time>2021-08-10T11:02:22Z</time>
      </trkpt>
      <trkpt lat="47.49368" lon="6.88333">
        <ele>377.9</ele>
        <time>2021-08-10T11:02:23Z</time>
      </trkpt>
      <trkpt lat="47.49368" lon="6.88325">
        <ele>377.8</ele>
        <time>2021-08-10T11:02:24Z</time>
      </trkpt>
      <trkpt lat="47.49367" lon="6.88317">
        <ele>377.6</ele>
        <time>2021-08-10T11:02:26Z</time>
      </trkpt>
      <trkpt lat="47.49367" lon="6.88311">
        <ele>377.4</ele>
        <time>2021-08-10T11:02:27Z</time>
      </trkpt>
      <trkpt lat="47.49367" lon="6.88305">
        <ele>377.3</ele>
        <time>2021-08-10T11:02:28Z</time>
      </trkpt>
      <trkpt lat="47.49366" lon="6.88296">
        <ele>377.1</ele>
        <time>2021-08-10T11:02:29Z</time>
      </trkpt>
      <trkpt lat="47.49365" lon="6.88289">
        <ele>376.9</ele>
        <time>2021-08-10T11:02:31Z</time>
      </trkpt>
      <trkpt lat="47.49364" lon="6.88277">
        <ele>376.7</ele>
        <time>2021-08-10T11:02:34Z</time>
      </trkpt>
      <trkpt lat="47.49362" lon="6.8827">
        <ele>376.7</ele>
        <time>2021-08-10T11:02:36Z</time>
      </trkpt>
      <trkpt lat="47.49362" lon="6.88265">
        <ele>376.6</ele>
        <time>2021-08-10T11:02:37Z</time>
      </trkpt>
      <trkpt lat="47.49362" lon="6.88262">
        <ele>376.6</ele>
        <time>2021-08-10T11:02:38Z</time>
      </trkpt>
      <trkpt lat="47.4936" lon="6.8826">
        <ele>376.6</ele>
        <time>2021-08-10T11:02:40Z</time>
      </trkpt>
      <trkpt lat="47.4936" lon="6.88257">
        <ele>376.6</ele>
        <time>2021-08-10T11:02:42Z</time>
      </trkpt>
      <trkpt lat="47.4936" lon="6.88256">
        <ele>376.6</ele>
        <time>2021-08-10T11:02:43Z</time>
      </trkpt>
      <trkpt lat="47.4936" lon="6.88256">
        <ele>376.6</ele>
        <time>2021-08-10T11:02:45Z</time>
      </trkpt>
      <trkpt lat="47.49361" lon="6.88256">
        <ele>376.6</ele>
        <time>2021-08-10T11:02:46Z</time>
      </trkpt>
      <trkpt lat="47.49361" lon="6.88256">
        <ele>376.6</ele>
        <time>2021-08-10T11:02:48Z</time>
      </trkpt>
      <trkpt lat="47.49361" lon="6.88255">
        <ele>376.6</ele>
        <time>2021-08-10T11:02:49Z</time>
      </trkpt>
      <trkpt lat="47.49362" lon="6.88255">
        <ele>376.6</ele>
        <time>2021-08-10T11:02:50Z</time>
      </trkpt>
      <trkpt lat="47.49362" lon="6.88255">
        <ele>376.6</ele>
        <time>2021-08-10T11:02:52Z</time>
      </trkpt>
      <trkpt lat="47.4921" lon="6.88227">
        <ele>391.4</ele>
        <time>2021-08-10T11:06:36Z</time>
      </trkpt>
      <trkpt lat="47.49207" lon="6.88226">
        <ele>391.5</ele>
        <time>2021-08-10T11:06:38Z</time>
      </trkpt>
      <trkpt lat="47.49205" lon="6.88225">
        <ele>391.6</ele>
        <time>2021-08-10T11:06:39Z</time>
      </trkpt>
      <trkpt lat="47.49203" lon="6.88224">
        <ele>391.6</ele>
        <time>2021-08-10T11:06:40Z</time>
      </trkpt>
      <trkpt lat="47.49203" lon="6.88224">
        <ele>391.7</ele>
        <time>2021-08-10T11:06:41Z</time>
      </trkpt>
      <trkpt lat="47.49202" lon="6.88223">
        <ele>391.7</ele>
        <time>2021-08-10T11:06:42Z</time>
      </trkpt>
      <trkpt lat="47.49201" lon="6.88223">
        <ele>391.8</ele>
        <time>2021-08-10T11:06:43Z</time>
      </trkpt>
      <trkpt lat="47.49199" lon="6.88222">
        <ele>391.8</ele>
        <time>2021-08-10T11:06:45Z</time>
      </trkpt>
      <trkpt lat="47.49198" lon="6.88222">
        <ele>391.8</ele>
        <time>2021-08-10T11:06:46Z</time>
      </trkpt>
      <trkpt lat="47.49197" lon="6.88222">
        <ele>391.9</ele>
        <time>2021-08-10T11:06:48Z</time>
      </trkpt>
      <trkpt lat="47.49196" lon="6.88222">
        <ele>392</ele>
        <time>2021-08-10T11:06:49Z</time>
      </trkpt>
      <trkpt lat="47.49194" lon="6.88221">
        <ele>392</ele>
        <time>2021-08-10T11:06:50Z</time>
      </trkpt>
      <trkpt lat="47.49193" lon="6.8822">
        <ele>392.1</ele>
        <time>2021-08-10T11:06:51Z</time>
      </trkpt>
      <trkpt lat="47.49191" lon="6.8822">
        <ele>392.1</ele>
        <time>2021-08-10T11:06:52Z</time>
      </trkpt>
      <trkpt lat="47.49189" lon="6.88219">
        <ele>392.2</ele>
        <time>2021-08-10T11:06:54Z</time>
      </trkpt>
      <trkpt lat="47.49186" lon="6.88219">
        <ele>392.4</ele>
        <time>2021-08-10T11:06:55Z</time>
      </trkpt>
      <trkpt lat="47.49185" lon="6.88218">
        <ele>392.4</ele>
        <time>2021-08-10T11:06:56Z</time>
      </trkpt>
      <trkpt lat="47.49182" lon="6.88218">
        <ele>392.6</ele>
        <time>2021-08-10T11:06:58Z</time>
      </trkpt>
      <trkpt lat="47.49181" lon="6.88218">
        <ele>392.6</ele>
        <time>2021-08-10T11:06:59Z</time>
      </trkpt>
      <trkpt lat="47.49179" lon="6.88218">
        <ele>392.7</ele>
        <time>2021-08-10T11:07:00Z</time>
      </trkpt>
      <trkpt lat="47.49178" lon="6.88219">
        <ele>392.8</ele>
        <time>2021-08-10T11:07:02Z</time>
      </trkpt>
      <trkpt lat="47.49177" lon="6.88219">
        <ele>392.8</ele>
        <time>2021-08-10T11:07:03Z</time>
      </trkpt>
      <trkpt lat="47.49176" lon="6.88219">
        <ele>392.9</ele>
        <time>2021-08-10T11:07:05Z</time>
      </trkpt>
      <trkpt lat="47.49176" lon="6.88218">
        <ele>392.9</ele>
        <time>2021-08-10T11:07:06Z</time>
      </trkpt>
      <trkpt lat="47.49175" lon="6.88218">
        <ele>392.9</ele>
        <time>2021-08-10T11:07:07Z</time>
      </trkpt>
      <trkpt lat="47.49175" lon="6.88218">
        <ele>392.9</ele>
        <time>2021-08-10T11:07:08Z</time>
      </trkpt>
      <trkpt lat="47.49174" lon="6.88218">
        <ele>393</ele>
        <time>2021-08-10T11:07:10Z</time>
      </trkpt>
      <trkpt lat="47.49173" lon="6.88218">
        <ele>393</ele>
        <time>2021-08-10T11:07:11Z</time>
      </trkpt>
      <trkpt lat="47.49172" lon="6.88218">
        <ele>393.1</ele>
        <time>2021-08-10T11:07:13Z</time>
      </trkpt>
      <trkpt lat="47.49171" lon="6.88217">
        <ele>393.1</ele>
        <time>2021-08-10T11:07:14Z</time>
      </trkpt>
      <trkpt lat="47.49169" lon="6.88217">
        <ele>393.2</ele>
        <time>2021-08-10T11:07:16Z</time>
      </trkpt>
      <trkpt lat="47.49039" lon="6.88232">
        <ele>401.2</ele>
        <time>2021-08-10T11:09:36Z</time>
      </trkpt>
      <trkpt lat="47.49037" lon="6.88233">
        <ele>401.2</ele>
        <time>2021-08-10T11:09:37Z</time>
      </trkpt>
      <trkpt lat="47.49035" lon="6.88234">
        <ele>401.2</ele>
        <time>2021-08-10T11:09:39Z</time>
      </trkpt>
      <trkpt lat="47.49034" lon="6.88234">
        <ele>401.2</ele>
        <time>2021-08-10T11:09:40Z</time>
      </trkpt>
      <trkpt lat="47.49032" lon="6.88231">
        <ele>401.3</ele>
        <time>2021-08-10T11:09:42Z</time>
      </trkpt>
      <trkpt lat="47.49031" lon="6.8823">
        <ele>401.3</ele>
        <time>2021-08-10T11:09:43Z</time>
      </trkpt>
      <trkpt lat="47.4903" lon="6.88228">
        <ele>401.3</ele>
        <time>2021-08-10T11:09:44Z</time>
      </trkpt>
      <trkpt lat="47.49029" lon="6.88227">
        <ele>401.3</ele>
        <time>2021-08-10T11:09:46Z</time>
      </trkpt>
      <trkpt lat="47.49029" lon="6.88226">
        <ele>401.3</ele>
        <time>2021-08-10T11:09:47Z</time>
      </trkpt>
      <trkpt lat="47.49029" lon="6.88226">
        <ele>401.3</ele>
        <time>2021-08-10T11:09:48Z</time>
      </trkpt>
      <trkpt lat="47.49028" lon="6.88225">
        <ele>401.3</ele>
        <time>2021-08-10T11:09:49Z</time>
      </trkpt>
      <trkpt lat="47.49028" lon="6.88225">
        <ele>401.3</ele>
        <time>2021-08-10T11:09:51Z</time>
      </trkpt>
      <trkpt lat="47.49028" lon="6.88225">
        <ele>401.3</ele>
        <time>2021-08-10T11:09:52Z</time>
      </trkpt>
      <trkpt lat="47.49027" lon="6.88225">
        <ele>401.3</ele>
        <time>2021-08-10T11:09:53Z</time>
      </trkpt>
      <trkpt lat="47.49027" lon="6.88224">
        <ele>401.3</ele>
        <time>2021-08-10T11:09:55Z</time>
      </trkpt>
      <trkpt lat="47.49027" lon="6.88224">
        <ele>401.3</ele>
        <time>2021-08-10T11:09:56Z</time>
      </trkpt>
      <trkpt lat="47.49005" lon="6.88233">
        <ele>400.9</ele>
        <time>2021-08-10T11:10:10Z</time>
      </trkpt>
      <trkpt lat="47.49001" lon="6.88236">
        <ele>400.8</ele>
        <time>2021-08-10T11:10:11Z</time>
      </trkpt>
      <trkpt lat="47.48996" lon="6.88243">
        <ele>400.4</ele>
        <time>2021-08-10T11:10:12Z</time>
      </trkpt>
      <trkpt lat="47.4899" lon="6.8825">
        <ele>400</ele>
        <time>2021-08-10T11:10:13Z</time>
      </trkpt>
      <trkpt lat="47.48985" lon="6.88255">
        <ele>399.7</ele>
        <time>2021-08-10T11:10:15Z</time>
      </trkpt>
      <trkpt lat="47.48978" lon="6.88262">
        <ele>399.3</ele>
        <time>2021-08-10T11:10:16Z</time>
      </trkpt>
      <trkpt lat="47.48974" lon="6.88266">
        <ele>399</ele>
        <time>2021-08-10T11:10:17Z</time>
      </trkpt>
      <trkpt lat="47.4897" lon="6.8827">
        <ele>398.7</ele>
        <time>2021-08-10T11:10:19Z</time>
      </trkpt>
      <trkpt lat="47.48965" lon="6.88274">
        <ele>398.4</ele>
        <time>2021-08-10T11:10:20Z</time>
      </trkpt>
      <trkpt lat="47.4896" lon="6.88278">
        <ele>398.1</ele>
        <time>2021-08-10T11:10:21Z</time>
      </trkpt>
      <trkpt lat="47.48955" lon="6.88282">
        <ele>397.8</ele>
        <time>2021-08-10T11:10:22Z</time>
      </trkpt>
      <trkpt lat="47.4895" lon="6.88285">
        <ele>397.5</ele>
        <time>2021-08-10T11:10:23Z</time>
      </trkpt>
      <trkpt lat="47.48942" lon="6.88289">
        <ele>397</ele>
        <time>2021-08-10T11:10:25Z</time>
      </trkpt>
      <trkpt lat="47.48935" lon="6.88293">
        <ele>396.7</ele>
        <time>2021-08-10T11:10:26Z</time>
      </trkpt>
      <trkpt lat="47.48928" lon="6.88296">
        <ele>396.3</ele>
        <time>2021-08-10T11:10:27Z</time>
      </trkpt>
      <trkpt lat="47.48922" lon="6.88299">
        <ele>396</ele>
        <time>2021-08-10T11:10:29Z</time>
      </trkpt>
      <trkpt lat="47.48917" lon="6.88301">
        <ele>395.8</ele>
        <time>2021-08-10T11:10:30Z</time>
      </trkpt>
      <trkpt lat="47.4891" lon="6.88303">
        <ele>395.6</ele>
        <time>2021-08-10T11:10:31Z</time>
      </trkpt>
      <trkpt lat="47.48904" lon="6.88305">
        <ele>395.4</ele>
        <time>2021-08-10T11:10:33Z</time>
      </trkpt>
      <trkpt lat="47.48899" lon="6.88306">
        <ele>395.2</ele>
        <time>2021-08-10T11:10:34Z</time>
      </trkpt>
      <trkpt lat="47.48892" lon="6.88309">
        <ele>394.9</ele>
        <time>2021-08-10T11:10:36Z</time>
      </trkpt>
      <trkpt lat="47.48887" lon="6.8831">
        <ele>394.8</ele>
        <time>2021-08-10T11:10:37Z</time>
      </trkpt>
      <trkpt lat="47.48879" lon="6.8831">
        <ele>394.5</ele>
        <time>2021-08-10T11:10:38Z</time>
      </trkpt>
      <trkpt lat="47.48874" lon="6.8831">
        <ele>394.4</ele>
        <time>2021-08-10T11:10:40Z</time>
      </trkpt>
      <trkpt lat="47.48868" lon="6.8831">
        <ele>394.3</ele>
        <time>2021-08-10T11:10:41Z</time>
      </trkpt>
      <trkpt lat="47.48861" lon="6.88311">
        <ele>394.1</ele>
        <time>2021-08-10T11:10:43Z</time>
      </trkpt>
      <trkpt lat="47.48856" lon="6.88311">
        <ele>394</ele>
        <time>2021-08-10T11:10:44Z</time>
      </trkpt>
      <trkpt lat="47.48852" lon="6.88312">
        <ele>394</ele>
        <time>2021-08-10T11:10:45Z</time>
      </trkpt>
      <trkpt lat="47.48847" lon="6.88313">
        <ele>393.9</ele>
        <time>2021-08-10T11:10:47Z</time>
      </trkpt>
      <trkpt lat="47.48843" lon="6.88312">
        <ele>393.9</ele>
        <time>2021-08-10T11:10:48Z</time>
      </trkpt>
      <trkpt lat="47.4884" lon="6.88313">
        <ele>393.9</ele>
        <time>2021-08-10T11:10:49Z</time>
      </trkpt>
      <trkpt lat="47.48837" lon="6.88313">
        <ele>393.9</ele>
        <time>2021-08-10T11:10:50Z</time>
      </trkpt>
      <trkpt lat="47.48834" lon="6.88313">
        <ele>394</ele>
        <time>2021-08-10T11:10:52Z</time>
      </trkpt>
      <trkpt lat="47.48833" lon="6.88313">
        <ele>394</ele>
        <time>2021-08-10T11:10:53Z</time>
      </trkpt>
      <trkpt lat="47.48831" lon="6.88313">
        <ele>394</ele>
        <time>2021-08-10T11:10:54Z</time>
      </trkpt>
      <trkpt lat="47.4883" lon="6.88314">
        <ele>394</ele>
        <time>2021-08-10T11:10:55Z</time>
      </trkpt>
      <trkpt lat="47.48828" lon="6.88315">
        <ele>394</ele>
        <time>2021-08-10T11:10:56Z</time>
      </trkpt>
      <trkpt lat="47.48828" lon="6.88317">
        <ele>394</ele>
        <time>2021-08-10T11:10:58Z</time>
      </trkpt>
      <trkpt lat="47.48828" lon="6.88318">
        <ele>394.1</ele>
        <time>2021-08-10T11:10:59Z</time>
      </trkpt>
      <trkpt lat="47.48826" lon="6.8832">
        <ele>394.1</ele>
        <time>2021-08-10T11:11:01Z</time>
      </trkpt>
      <trkpt lat="47.48824" lon="6.8832">
        <ele>394.1</ele>
        <time>2021-08-10T11:11:02Z</time>
      </trkpt>
      <trkpt lat="47.48823" lon="6.8832">
        <ele>394.2</ele>
        <time>2021-08-10T11:11:03Z</time>
      </trkpt>
      <trkpt lat="47.48822" lon="6.8832">
        <ele>394.2</ele>
        <time>2021-08-10T11:11:04Z</time>
      </trkpt>
      <trkpt lat="47.48822" lon="6.88321">
        <ele>394.2</ele>
        <time>2021-08-10T11:11:05Z</time>
      </trkpt>
      <trkpt lat="47.4882" lon="6.88322">
        <ele>394.2</ele>
        <time>2021-08-10T11:11:07Z</time>
      </trkpt>
      <trkpt lat="47.48819" lon="6.88322">
        <ele>394.3</ele>
        <time>2021-08-10T11:11:08Z</time>
      </trkpt>
      <trkpt lat="47.48817" lon="6.88323">
        <ele>394.3</ele>
        <time>2021-08-10T11:11:09Z</time>
      </trkpt>
      <trkpt lat="47.48783" lon="6.88341">
        <ele>396.2</ele>
        <time>2021-08-10T11:11:29Z</time>
      </trkpt>
      <trkpt lat="47.48781" lon="6.88341">
        <ele>396.4</ele>
        <time>2021-08-10T11:11:30Z</time>
      </trkpt>
      <trkpt lat="47.48776" lon="6.88342">
        <ele>396.7</ele>
        <time>2021-08-10T11:11:32Z</time>
      </trkpt>
      <trkpt lat="47.48772" lon="6.88342">
        <ele>397.1</ele>
        <time>2021-08-10T11:11:33Z</time>
      </trkpt>
      <trkpt lat="47.48768" lon="6.88343">
        <ele>397.5</ele>
        <time>2021-08-10T11:11:35Z</time>
      </trkpt>
      <trkpt lat="47.48766" lon="6.88344">
        <ele>397.6</ele>
        <time>2021-08-10T11:11:36Z</time>
      </trkpt>
      <trkpt lat="47.48763" lon="6.88345">
        <ele>397.9</ele>
        <time>2021-08-10T11:11:37Z</time>
      </trkpt>
      <trkpt lat="47.48759" lon="6.88346">
        <ele>398.2</ele>
        <time>2021-08-10T11:11:38Z</time>
      </trkpt>
      <trkpt lat="47.48757" lon="6.88346">
        <ele>398.4</ele>
        <time>2021-08-10T11:11:40Z</time>
      </trkpt>
      <trkpt lat="47.48755" lon="6.88347">
        <ele>398.6</ele>
        <time>2021-08-10T11:11:41Z</time>
      </trkpt>
      <trkpt lat="47.48753" lon="6.88348">
        <ele>398.8</ele>
        <time>2021-08-10T11:11:43Z</time>
      </trkpt>
      <trkpt lat="47.48751" lon="6.88351">
        <ele>399</ele>
        <time>2021-08-10T11:11:44Z</time>
      </trkpt>
      <trkpt lat="47.48751" lon="6.88352">
        <ele>399.1</ele>
        <time>2021-08-10T11:11:46Z</time>
      </trkpt>
      <trkpt lat="47.4875" lon="6.88353">
        <ele>399.1</ele>
        <time>2021-08-10T11:11:47Z</time>
      </trkpt>
      <trkpt lat="47.4875" lon="6.88355">
        <ele>399.2</ele>
        <time>2021-08-10T11:11:48Z</time>
      </trkpt>
      <trkpt lat="47.4875" lon="6.88356">
        <ele>399.3</ele>
        <time>2021-08-10T11:11:49Z</time>
      </trkpt>
      <trkpt lat="47.48749" lon="6.88358">
        <ele>399.4</ele>
        <time>2021-08-10T11:11:50Z</time>
      </trkpt>
      <trkpt lat="47.48749" lon="6.8836">
        <ele>399.5</ele>
        <time>2021-08-10T11:11:52Z</time>
      </trkpt>
      <trkpt lat="47.48749" lon="6.88362">
        <ele>399.6</ele>
        <time>2021-08-10T11:11:53Z</time>
      </trkpt>
      <trkpt lat="47.48749" lon="6.88365">
        <ele>399.8</ele>
        <time>2021-08-10T11:11:54Z</time>
      </trkpt>
      <trkpt lat="47.48748" lon="6.88368">
        <ele>400</ele>
        <time>2021-08-10T11:11:55Z</time>
      </trkpt>
      <trkpt lat="47.48748" lon="6.88369">
        <ele>400.1</ele>
        <time>2021-08-10T11:11:56Z</time>
      </trkpt>
      <trkpt lat="47.48748" lon="6.88371">
        <ele>400.2</ele>
        <time>2021-08-10T11:11:57Z</time>
      </trkpt>
      <trkpt lat="47.48744" lon="6.88373">
        <ele>400.5</ele>
        <time>2021-08-10T11:11:59Z</time>
      </trkpt>
      <trkpt lat="47.48741" lon="6.88374">
        <ele>400.7</ele>
        <time>2021-08-10T11:12:06Z</time>
      </trkpt>
      <trkpt lat="47.48738" lon="6.88374">
        <ele>401</ele>
        <time>2021-08-10T11:12:07Z</time>
      </trkpt>
      <trkpt lat="47.48735" lon="6.88375">
        <ele>401.2</ele>
        <time>2021-08-10T11:12:08Z</time>
      </trkpt>
      <trkpt lat="47.48733" lon="6.88375">
        <ele>401.3</ele>
        <time>2021-08-10T11:12:09Z</time>
      </trkpt>
      <trkpt lat="47.48733" lon="6.88375">
        <ele>401.4</ele>
        <time>2021-08-10T11:12:10Z</time>
      </trkpt>
      <trkpt lat="47.48732" lon="6.88375">
        <ele>401.4</ele>
        <time>2021-08-10T11:12:12Z</time>
      </trkpt>
      <trkpt lat="47.48732" lon="6.88375">
        <ele>401.5</ele>
        <time>2021-08-10T11:12:13Z</time>
      </trkpt>
      <trkpt lat="47.48731" lon="6.88375">
        <ele>401.5</ele>
        <time>2021-08-10T11:12:15Z</time>
      </trkpt>
      <trkpt lat="47.48729" lon="6.88375">
        <ele>401.6</ele>
        <time>2021-08-10T11:12:17Z</time>
      </trkpt>
      <trkpt lat="47.48728" lon="6.88376">
        <ele>401.7</ele>
        <time>2021-08-10T11:12:18Z</time>
      </trkpt>
      <trkpt lat="47.48727" lon="6.88376">
        <ele>401.8</ele>
        <time>2021-08-10T11:12:19Z</time>
      </trkpt>
      <trkpt lat="47.48662" lon="6.88395">
        <ele>406.7</ele>
        <time>2021-08-10T11:13:24Z</time>
      </trkpt>
      <trkpt lat="47.48661" lon="6.88396">
        <ele>406.8</ele>
        <time>2021-08-10T11:13:26Z</time>
      </trkpt>
      <trkpt lat="47.48659" lon="6.88397">
        <ele>406.9</ele>
        <time>2021-08-10T11:13:27Z</time>
      </trkpt>
      <trkpt lat="47.48658" lon="6.88399">
        <ele>407</ele>
        <time>2021-08-10T11:13:28Z</time>
      </trkpt>
      <trkpt lat="47.48657" lon="6.884">
        <ele>407</ele>
        <time>2021-08-10T11:13:29Z</time>
      </trkpt>
      <trkpt lat="47.48656" lon="6.884">
        <ele>407.1</ele>
        <time>2021-08-10T11:13:31Z</time>
      </trkpt>
      <trkpt lat="47.48654" lon="6.88401">
        <ele>407.2</ele>
        <time>2021-08-10T11:13:33Z</time>
      </trkpt>
      <trkpt lat="47.48654" lon="6.88402">
        <ele>407.2</ele>
        <time>2021-08-10T11:13:34Z</time>
      </trkpt>
      <trkpt lat="47.48652" lon="6.88402">
        <ele>407.3</ele>
        <time>2021-08-10T11:13:35Z</time>
      </trkpt>
      <trkpt lat="47.48652" lon="6.88402">
        <ele>407.3</ele>
        <time>2021-08-10T11:13:37Z</time>
      </trkpt>
      <trkpt lat="47.4865" lon="6.88402">
        <ele>407.4</ele>
        <time>2021-08-10T11:13:38Z</time>
      </trkpt>
      <trkpt lat="47.48649" lon="6.88401">
        <ele>407.4</ele>
        <time>2021-08-10T11:13:40Z</time>
      </trkpt>
      <trkpt lat="47.48592" lon="6.88403">
        <ele>409.8</ele>
        <time>2021-08-10T11:14:36Z</time>
      </trkpt>
      <trkpt lat="47.48587" lon="6.88404">
        <ele>409.9</ele>
        <time>2021-08-10T11:14:38Z</time>
      </trkpt>
      <trkpt lat="47.48585" lon="6.88405">
        <ele>410</ele>
        <time>2021-08-10T11:14:39Z</time>
      </trkpt>
      <trkpt lat="47.4858" lon="6.88406">
        <ele>410.1</ele>
        <time>2021-08-10T11:14:40Z</time>
      </trkpt>
      <trkpt lat="47.48575" lon="6.88405">
        <ele>410.2</ele>
        <time>2021-08-10T11:14:42Z</time>
      </trkpt>
      <trkpt lat="47.48571" lon="6.88404">
        <ele>410.4</ele>
        <time>2021-08-10T11:14:43Z</time>
      </trkpt>
      <trkpt lat="47.48569" lon="6.88403">
        <ele>410.4</ele>
        <time>2021-08-10T11:14:44Z</time>
      </trkpt>
      <trkpt lat="47.48565" lon="6.88403">
        <ele>410.5</ele>
        <time>2021-08-10T11:14:46Z</time>
      </trkpt>
      <trkpt lat="47.48562" lon="6.88404">
        <ele>410.6</ele>
        <time>2021-08-10T11:14:47Z</time>
      </trkpt>
      <trkpt lat="47.48559" lon="6.88403">
        <ele>410.7</ele>
        <time>2021-08-10T11:14:49Z</time>
      </trkpt>
      <trkpt lat="47.48558" lon="6.88403">
        <ele>410.7</ele>
        <time>2021-08-10T11:14:50Z</time>
      </trkpt>
      <trkpt lat="47.48556" lon="6.88404">
        <ele>410.7</ele>
        <time>2021-08-10T11:14:51Z</time>
      </trkpt>
      <trkpt lat="47.48555" lon="6.88405">
        <ele>410.7</ele>
        <time>2021-08-10T11:14:53Z</time>
      </trkpt>
      <trkpt lat="47.48553" lon="6.88406">
        <ele>410.8</ele>
        <time>2021-08-10T11:14:54Z</time>
      </trkpt>
      <trkpt lat="47.48551" lon="6.88408">
        <ele>410.8</ele>
        <time>2021-08-10T11:14:55Z</time>
      </trkpt>
      <trkpt lat="47.4855" lon="6.88409">
        <ele>410.8</ele>
        <time>2021-08-10T11:14:57Z</time>
      </trkpt>
      <trkpt lat="47.48547" lon="6.8841">
        <ele>410.9</ele>
        <time>2021-08-10T11:14:58Z</time>
      </trkpt>
      <trkpt lat="47.48546" lon="6.88411">
        <ele>410.9</ele>
        <time>2021-08-10T11:14:59Z</time>
      </trkpt>
      <trkpt lat="47.48541" lon="6.88411">
        <ele>410.9</ele>
        <time>2021-08-10T11:15:01Z</time>
      </trkpt>
      <trkpt lat="47.48539" lon="6.88411">
        <ele>411</ele>
        <time>2021-08-10T11:15:02Z</time>
      </trkpt>
      <trkpt lat="47.48537" lon="6.88411">
        <ele>411</ele>
        <time>2021-08-10T11:15:03Z</time>
      </trkpt>
      <trkpt lat="47.48534" lon="6.8841">
        <ele>411</ele>
        <time>2021-08-10T11:15:04Z</time>
      </trkpt>
      <trkpt lat="47.48533" lon="6.88411">
        <ele>411</ele>
        <time>2021-08-10T11:15:05Z</time>
      </trkpt>
      <trkpt lat="47.4853" lon="6.88411">
        <ele>411</ele>
        <time>2021-08-10T11:15:07Z</time>
      </trkpt>
      <trkpt lat="47.48526" lon="6.88412">
        <ele>411</ele>
        <time>2021-08-10T11:15:09Z</time>
      </trkpt>
      <trkpt lat="47.48525" lon="6.88415">
        <ele>411</ele>
        <time>2021-08-10T11:15:10Z</time>
      </trkpt>
      <trkpt lat="47.48522" lon="6.88419">
        <ele>411.1</ele>
        <time>2021-08-10T11:15:12Z</time>
      </trkpt>
      <trkpt lat="47.48522" lon="6.8842">
        <ele>411.1</ele>
        <time>2021-08-10T11:15:13Z</time>
      </trkpt>
      <trkpt lat="47.48521" lon="6.88422">
        <ele>411.1</ele>
        <time>2021-08-10T11:15:14Z</time>
      </trkpt>
      <trkpt lat="47.4852" lon="6.88424">
        <ele>411.1</ele>
        <time>2021-08-10T11:15:15Z</time>
      </trkpt>
      <trkpt lat="47.48518" lon="6.88426">
        <ele>411.1</ele>
        <time>2021-08-10T11:15:17Z</time>
      </trkpt>
      <trkpt lat="47.48516" lon="6.88428">
        <ele>411.1</ele>
        <time>2021-08-10T11:15:18Z</time>
      </trkpt>
      <trkpt lat="47.48514" lon="6.88429">
        <ele>411.1</ele>
        <time>2021-08-10T11:15:19Z</time>
      </trkpt>
      <trkpt lat="47.48512" lon="6.88429">
        <ele>411.1</ele>
        <time>2021-08-10T11:15:21Z</time>
      </trkpt>
      <trkpt lat="47.48509" lon="6.8843">
        <ele>411.2</ele>
        <time>2021-08-10T11:15:23Z</time>
      </trkpt>
      <trkpt lat="47.48505" lon="6.88432">
        <ele>411.2</ele>
        <time>2021-08-10T11:15:24Z</time>
      </trkpt>
      <trkpt lat="47.48505" lon="6.88432">
        <ele>411.2</ele>
        <time>2021-08-10T11:15:25Z</time>
      </trkpt>
      <trkpt lat="47.48502" lon="6.88435">
        <ele>411.3</ele>
        <time>2021-08-10T11:15:26Z</time>
      </trkpt>
      <trkpt lat="47.485" lon="6.88436">
        <ele>411.3</ele>
        <time>2021-08-10T11:15:27Z</time>
      </trkpt>
      <trkpt lat="47.48499" lon="6.88438">
        <ele>411.4</ele>
        <time>2021-08-10T11:15:28Z</time>
      </trkpt>
      <trkpt lat="47.48495" lon="6.88441">
        <ele>411.5</ele>
        <time>2021-08-10T11:15:30Z</time>
      </trkpt>
      <trkpt lat="47.48492" lon="6.88443">
        <ele>411.5</ele>
        <time>2021-08-10T11:15:32Z</time>
      </trkpt>
      <trkpt lat="47.48488" lon="6.88446">
        <ele>411.6</ele>
        <time>2021-08-10T11:15:34Z</time>
      </trkpt>
      <trkpt lat="47.48483" lon="6.8845">
        <ele>411.7</ele>
        <time>2021-08-10T11:15:37Z</time>
      </trkpt>
      <trkpt lat="47.48481" lon="6.88453">
        <ele>411.8</ele>
        <time>2021-08-10T11:15:39Z</time>
      </trkpt>
      <trkpt lat="47.4848" lon="6.88454">
        <ele>411.8</ele>
        <time>2021-08-10T11:15:40Z</time>
      </trkpt>
      <trkpt lat="47.48479" lon="6.88454">
        <ele>411.8</ele>
        <time>2021-08-10T11:15:41Z</time>
      </trkpt>
      <trkpt lat="47.48479" lon="6.88455">
        <ele>411.8</ele>
        <time>2021-08-10T11:15:43Z</time>
      </trkpt>
      <trkpt lat="47.48479" lon="6.88454">
        <ele>411.8</ele>
        <time>2021-08-10T11:15:45Z</time>
      </trkpt>
      <trkpt lat="47.48478" lon="6.88454">
        <ele>411.8</ele>
        <time>2021-08-10T11:15:47Z</time>
      </trkpt>
      <trkpt lat="47.48478" lon="6.88453">
        <ele>411.8</ele>
        <time>2021-08-10T11:15:49Z</time>
      </trkpt>
      <trkpt lat="47.48478" lon="6.88453">
        <ele>411.8</ele>
        <time>2021-08-10T11:15:51Z</time>
      </trkpt>
      <trkpt lat="47.48461" lon="6.88463">
        <ele>411.6</ele>
        <time>2021-08-10T11:16:07Z</time>
      </trkpt>
      <trkpt lat="47.48458" lon="6.88466">
        <ele>411.5</ele>
        <time>2021-08-10T11:16:08Z</time>
      </trkpt>
      <trkpt lat="47.48453" lon="6.88471">
        <ele>411.3</ele>
        <time>2021-08-10T11:16:10Z</time>
      </trkpt>
      <trkpt lat="47.48449" lon="6.88475">
        <ele>411.1</ele>
        <time>2021-08-10T11:16:11Z</time>
      </trkpt>
      <trkpt lat="47.48445" lon="6.88477">
        <ele>411</ele>
        <time>2021-08-10T11:16:12Z</time>
      </trkpt>
      <trkpt lat="47.48439" lon="6.88481">
        <ele>410.7</ele>
        <time>2021-08-10T11:16:13Z</time>
      </trkpt>
      <trkpt lat="47.48436" lon="6.88483">
        <ele>410.5</ele>
        <time>2021-08-10T11:16:14Z</time>
      </trkpt>
      <trkpt lat="47.48431" lon="6.88486">
        <ele>410.2</ele>
        <time>2021-08-10T11:16:16Z</time>
      </trkpt>
      <trkpt lat="47.48428" lon="6.88488">
        <ele>410</ele>
        <time>2021-08-10T11:16:17Z</time>
      </trkpt>
      <trkpt lat="47.48425" lon="6.8849">
        <ele>409.9</ele>
        <time>2021-08-10T11:16:18Z</time>
      </trkpt>
      <trkpt lat="47.48419" lon="6.88493">
        <ele>409.6</ele>
        <time>2021-08-10T11:16:20Z</time>
      </trkpt>
      <trkpt lat="47.48416" lon="6.88495">
        <ele>409.4</ele>
        <time>2021-08-10T11:16:21Z</time>
      </trkpt>
      <trkpt lat="47.48413" lon="6.88497">
        <ele>409.2</ele>
        <time>2021-08-10T11:16:22Z</time>
      </trkpt>
      <trkpt lat="47.4841" lon="6.88499">
        <ele>409.1</ele>
        <time>2021-08-10T11:16:23Z</time>
      </trkpt>
      <trkpt lat="47.48408" lon="6.88501">
        <ele>408.9</ele>
        <time>2021-08-10T11:16:24Z</time>
      </trkpt>
      <trkpt lat="47.48404" lon="6.88503">
        <ele>408.8</ele>
        <time>2021-08-10T11:16:26Z</time>
      </trkpt>
      <trkpt lat="47.48403" lon="6.88503">
        <ele>408.7</ele>
        <time>2021-08-10T11:16:27Z</time>
      </trkpt>
      <trkpt lat="47.484" lon="6.88504">
        <ele>408.6</ele>
        <time>2021-08-10T11:16:28Z</time>
      </trkpt>
      <trkpt lat="47.48398" lon="6.88504">
        <ele>408.5</ele>
        <time>2021-08-10T11:16:29Z</time>
      </trkpt>
      <trkpt lat="47.48395" lon="6.88504">
        <ele>408.4</ele>
        <time>2021-08-10T11:16:31Z</time>
      </trkpt>
      <trkpt lat="47.48391" lon="6.88504">
        <ele>408.2</ele>
        <time>2021-08-10T11:16:32Z</time>
      </trkpt>
      <trkpt lat="47.48388" lon="6.88505">
        <ele>408.1</ele>
        <time>2021-08-10T11:16:34Z</time>
      </trkpt>
      <trkpt lat="47.48385" lon="6.88505">
        <ele>408.1</ele>
        <time>2021-08-10T11:16:35Z</time>
      </trkpt>
      <trkpt lat="47.48382" lon="6.88507">
        <ele>408</ele>
        <time>2021-08-10T11:16:36Z</time>
      </trkpt>
      <trkpt lat="47.48379" lon="6.8851">
        <ele>407.9</ele>
        <time>2021-08-10T11:16:38Z</time>
      </trkpt>
      <trkpt lat="47.48378" lon="6.88512">
        <ele>407.9</ele>
        <time>2021-08-10T11:16:39Z</time>
      </trkpt>
      <trkpt lat="47.48376" lon="6.88514">
        <ele>407.8</ele>
        <time>2021-08-10T11:16:40Z</time>
      </trkpt>
      <trkpt lat="47.48375" lon="6.88515">
        <ele>407.8</ele>
        <time>2021-08-10T11:16:41Z</time>
      </trkpt>
      <trkpt lat="47.48371" lon="6.88515">
        <ele>407.7</ele>
        <time>2021-08-10T11:16:43Z</time>
      </trkpt>
      <trkpt lat="47.48369" lon="6.88514">
        <ele>407.7</ele>
        <time>2021-08-10T11:16:44Z</time>
      </trkpt>
      <trkpt lat="47.48365" lon="6.88513">
        <ele>407.6</ele>
        <time>2021-08-10T11:16:46Z</time>
      </trkpt>
      <trkpt lat="47.48362" lon="6.88513">
        <ele>407.6</ele>
        <time>2021-08-10T11:16:47Z</time>
      </trkpt>
      <trkpt lat="47.48361" lon="6.88514">
        <ele>407.6</ele>
        <time>2021-08-10T11:16:48Z</time>
      </trkpt>
      <trkpt lat="47.48359" lon="6.88514">
        <ele>407.5</ele>
        <time>2021-08-10T11:16:49Z</time>
      </trkpt>
      <trkpt lat="47.48357" lon="6.88515">
        <ele>407.5</ele>
        <time>2021-08-10T11:16:51Z</time>
      </trkpt>
      <trkpt lat="47.48354" lon="6.88516">
        <ele>407.4</ele>
        <time>2021-08-10T11:16:52Z</time>
      </trkpt>
      <trkpt lat="47.48351" lon="6.88518">
        <ele>407.4</ele>
        <time>2021-08-10T11:16:53Z</time>
      </trkpt>
      <trkpt lat="47.48348" lon="6.8852">
        <ele>407.3</ele>
        <time>2021-08-10T11:16:55Z</time>
      </trkpt>
      <trkpt lat="47.48345" lon="6.88522">
        <ele>407.3</ele>
        <time>2021-08-10T11:16:56Z</time>
      </trkpt>
      <trkpt lat="47.48342" lon="6.88522">
        <ele>407.2</ele>
        <time>2021-08-10T11:16:57Z</time>
      </trkpt>
      <trkpt lat="47.48338" lon="6.88521">
        <ele>407.1</ele>
        <time>2021-08-10T11:16:59Z</time>
      </trkpt>
      <trkpt lat="47.48334" lon="6.88521">
        <ele>407.1</ele>
        <time>2021-08-10T11:17:00Z</time>
      </trkpt>
      <trkpt lat="47.4833" lon="6.88521">
        <ele>407</ele>
        <time>2021-08-10T11:17:01Z</time>
      </trkpt>
      <trkpt lat="47.48325" lon="6.88521">
        <ele>407</ele>
        <time>2021-08-10T11:17:03Z</time>
      </trkpt>
      <trkpt lat="47.48321" lon="6.88521">
        <ele>407</ele>
        <time>2021-08-10T11:17:04Z</time>
      </trkpt>
      <trkpt lat="47.48318" lon="6.88521">
        <ele>407</ele>
        <time>2021-08-10T11:17:05Z</time>
      </trkpt>
      <trkpt lat="47.48314" lon="6.88521">
        <ele>406.9</ele>
        <time>2021-08-10T11:17:06Z</time>
      </trkpt>
      <trkpt lat="47.48312" lon="6.88521">
        <ele>406.9</ele>
        <time>2021-08-10T11:17:07Z</time>
      </trkpt>
      <trkpt lat="47.48308" lon="6.8852">
        <ele>406.9</ele>
        <time>2021-08-10T11:17:08Z</time>
      </trkpt>
      <trkpt lat="47.48304" lon="6.88519">
        <ele>406.8</ele>
        <time>2021-08-10T11:17:09Z</time>
      </trkpt>
      <trkpt lat="47.48301" lon="6.88518">
        <ele>406.8</ele>
        <time>2021-08-10T11:17:10Z</time>
      </trkpt>
      <trkpt lat="47.48297" lon="6.88516">
        <ele>406.8</ele>
        <time>2021-08-10T11:17:12Z</time>
      </trkpt>
      <trkpt lat="47.48293" lon="6.88515">
        <ele>406.7</ele>
        <time>2021-08-10T11:17:13Z</time>
      </trkpt>
      <trkpt lat="47.48289" lon="6.88514">
        <ele>406.6</ele>
        <time>2021-08-10T11:17:14Z</time>
      </trkpt>
      <trkpt lat="47.48286" lon="6.88513">
        <ele>406.6</ele>
        <time>2021-08-10T11:17:15Z</time>
      </trkpt>
      <trkpt lat="47.48283" lon="6.88512">
        <ele>406.5</ele>
        <time>2021-08-10T11:17:16Z</time>
      </trkpt>
      <trkpt lat="47.48278" lon="6.88512">
        <ele>406.5</ele>
        <time>2021-08-10T11:17:18Z</time>
      </trkpt>
      <trkpt lat="47.48273" lon="6.8851">
        <ele>406.4</ele>
        <time>2021-08-10T11:17:19Z</time>
      </trkpt>
      <trkpt lat="47.48269" lon="6.8851">
        <ele>406.2</ele>
        <time>2021-08-10T11:17:21Z</time>
      </trkpt>
      <trkpt lat="47.48265" lon="6.8851">
        <ele>406.1</ele>
        <time>2021-08-10T11:17:22Z</time>
      </trkpt>
      <trkpt lat="47.48262" lon="6.8851">
        <ele>406</ele>
        <time>2021-08-10T11:17:23Z</time>
      </trkpt>
      <trkpt lat="47.48257" lon="6.88509">
        <ele>405.8</ele>
        <time>2021-08-10T11:17:24Z</time>
      </trkpt>
      <trkpt lat="47.48253" lon="6.88509">
        <ele>405.6</ele>
        <time>2021-08-10T11:17:25Z</time>
      </trkpt>
      <trkpt lat="47.48246" lon="6.88509">
        <ele>405.3</ele>
        <time>2021-08-10T11:17:27Z</time>
      </trkpt>
      <trkpt lat="47.48242" lon="6.88509">
        <ele>405</ele>
        <time>2021-08-10T11:17:28Z</time>
      </trkpt>
      <trkpt lat="47.48237" lon="6.8851">
        <ele>404.7</ele>
        <time>2021-08-10T11:17:29Z</time>
      </trkpt>
      <trkpt lat="47.48229" lon="6.88512">
        <ele>404.2</ele>
        <time>2021-08-10T11:17:31Z</time>
      </trkpt>
      <trkpt lat="47.48225" lon="6.88514">
        <ele>403.9</ele>
        <time>2021-08-10T11:17:32Z</time>
      </trkpt>
      <trkpt lat="47.4822" lon="6.88517">
        <ele>403.5</ele>
        <time>2021-08-10T11:17:33Z</time>
      </trkpt>
      <trkpt lat="47.48216" lon="6.88518">
        <ele>403.3</ele>
        <time>2021-08-10T11:17:35Z</time>
      </trkpt>
      <trkpt lat="47.48213" lon="6.88518">
        <ele>403.1</ele>
        <time>2021-08-10T11:17:36Z</time>
      </trkpt>
      <trkpt lat="47.48212" lon="6.88518">
        <ele>403</ele>
        <time>2021-08-10T11:17:37Z</time>
      </trkpt>
      <trkpt lat="47.4821" lon="6.88517">
        <ele>402.4</ele>
        <time>2021-08-10T11:17:39Z</time>
      </trkpt>
      <trkpt lat="47.48209" lon="6.88516">
        <ele>402.4</ele>
        <time>2021-08-10T11:17:40Z</time>
      </trkpt>
      <trkpt lat="47.48208" lon="6.88516">
        <ele>402.4</ele>
        <time>2021-08-10T11:17:41Z</time>
      </trkpt>
      <trkpt lat="47.48208" lon="6.88515">
        <ele>402.4</ele>
        <time>2021-08-10T11:17:43Z</time>
      </trkpt>
      <trkpt lat="47.48207" lon="6.88515">
        <ele>402.4</ele>
        <time>2021-08-10T11:17:44Z</time>
      </trkpt>
      <trkpt lat="47.48206" lon="6.88515">
        <ele>402.4</ele>
        <time>2021-08-10T11:17:45Z</time>
      </trkpt>
      <trkpt lat="47.48205" lon="6.88515">
        <ele>402.4</ele>
        <time>2021-08-10T11:17:46Z</time>
      </trkpt>
      <trkpt lat="47.48205" lon="6.88516">
        <ele>402.5</ele>
        <time>2021-08-10T11:17:48Z</time>
      </trkpt>
      <trkpt lat="47.48205" lon="6.88517">
        <ele>402.5</ele>
        <time>2021-08-10T11:17:49Z</time>
      </trkpt>
      <trkpt lat="47.48205" lon="6.88518">
        <ele>402.6</ele>
        <time>2021-08-10T11:17:51Z</time>
      </trkpt>
      <trkpt lat="47.48204" lon="6.8852">
        <ele>402.7</ele>
        <time>2021-08-10T11:17:53Z</time>
      </trkpt>
      <trkpt lat="47.48204" lon="6.88522">
        <ele>402.8</ele>
        <time>2021-08-10T11:17:54Z</time>
      </trkpt>
      <trkpt lat="47.48204" lon="6.88523">
        <ele>403</ele>
        <time>2021-08-10T11:17:56Z</time>
      </trkpt>
      <trkpt lat="47.48203" lon="6.88768">
        <ele>409.5</ele>
        <time>2021-08-10T11:21:30Z</time>
      </trkpt>
      <trkpt lat="47.48208" lon="6.88769">
        <ele>409.5</ele>
        <time>2021-08-10T11:21:31Z</time>
      </trkpt>
      <trkpt lat="47.48213" lon="6.8877">
        <ele>409.4</ele>
        <time>2021-08-10T11:21:33Z</time>
      </trkpt>
      <trkpt lat="47.48216" lon="6.88767">
        <ele>409.4</ele>
        <time>2021-08-10T11:21:35Z</time>
      </trkpt>
      <trkpt lat="47.48217" lon="6.88768">
        <ele>409.4</ele>
        <time>2021-08-10T11:21:37Z</time>
      </trkpt>
      <trkpt lat="47.48218" lon="6.88767">
        <ele>409.3</ele>
        <time>2021-08-10T11:21:38Z</time>
      </trkpt>
      <trkpt lat="47.48218" lon="6.88767">
        <ele>409.3</ele>
        <time>2021-08-10T11:21:39Z</time>
      </trkpt>
      <trkpt lat="47.48218" lon="6.88766">
        <ele>409.3</ele>
        <time>2021-08-10T11:21:40Z</time>
      </trkpt>
      <trkpt lat="47.48219" lon="6.88764">
        <ele>409.3</ele>
        <time>2021-08-10T11:21:42Z</time>
      </trkpt>
      <trkpt lat="47.48217" lon="6.88763">
        <ele>409.3</ele>
        <time>2021-08-10T11:21:44Z</time>
      </trkpt>
      <trkpt lat="47.48217" lon="6.88762">
        <ele>409.3</ele>
        <time>2021-08-10T11:21:46Z</time>
      </trkpt>
      <trkpt lat="47.48216" lon="6.88761">
        <ele>409.3</ele>
        <time>2021-08-10T11:21:47Z</time>
      </trkpt>
      <trkpt lat="47.48214" lon="6.88761">
        <ele>409.2</ele>
        <time>2021-08-10T11:21:49Z</time>
      </trkpt>
      <trkpt lat="47.48214" lon="6.88761">
        <ele>409.2</ele>
        <time>2021-08-10T11:21:50Z</time>
      </trkpt>
      <trkpt lat="47.48213" lon="6.88761">
        <ele>409.2</ele>
        <time>2021-08-10T11:21:51Z</time>
      </trkpt>
      <trkpt lat="47.48212" lon="6.88761">
        <ele>409.2</ele>
        <time>2021-08-10T11:21:53Z</time>
      </trkpt>
      <trkpt lat="47.48211" lon="6.8876">
        <ele>409.2</ele>
        <time>2021-08-10T11:21:54Z</time>
      </trkpt>
      <trkpt lat="47.4821" lon="6.8876">
        <ele>409.2</ele>
        <time>2021-08-10T11:21:56Z</time>
      </trkpt>
      <trkpt lat="47.4821" lon="6.8876">
        <ele>409.2</ele>
        <time>2021-08-10T11:21:58Z</time>
      </trkpt>
      <trkpt lat="47.48209" lon="6.88759">
        <ele>409.2</ele>
        <time>2021-08-10T11:22:00Z</time>
      </trkpt>
      <trkpt lat="47.48167" lon="6.88754">
        <ele>408.2</ele>
        <time>2021-08-10T11:23:25Z</time>
      </trkpt>
      <trkpt lat="47.48162" lon="6.88759">
        <ele>408</ele>
        <time>2021-08-10T11:23:27Z</time>
      </trkpt>
      <trkpt lat="47.48159" lon="6.88761">
        <ele>407.8</ele>
        <time>2021-08-10T11:23:29Z</time>
      </trkpt>
      <trkpt lat="47.48155" lon="6.88764">
        <ele>407.7</ele>
        <time>2021-08-10T11:23:30Z</time>
      </trkpt>
      <trkpt lat="47.48151" lon="6.88767">
        <ele>407.5</ele>
        <time>2021-08-10T11:23:32Z</time>
      </trkpt>
      <trkpt lat="47.48147" lon="6.88769">
        <ele>407.4</ele>
        <time>2021-08-10T11:23:33Z</time>
      </trkpt>
      <trkpt lat="47.48145" lon="6.88771">
        <ele>407.3</ele>
        <time>2021-08-10T11:23:34Z</time>
      </trkpt>
      <trkpt lat="47.48141" lon="6.88772">
        <ele>407.1</ele>
        <time>2021-08-10T11:23:36Z</time>
      </trkpt>
      <trkpt lat="47.4814" lon="6.88773">
        <ele>407.1</ele>
        <time>2021-08-10T11:23:37Z</time>
      </trkpt>
      <trkpt lat="47.48135" lon="6.88777">
        <ele>406.9</ele>
        <time>2021-08-10T11:23:39Z</time>
      </trkpt>
      <trkpt lat="47.48133" lon="6.88779">
        <ele>406.7</ele>
        <time>2021-08-10T11:23:40Z</time>
      </trkpt>
      <trkpt lat="47.48129" lon="6.8878">
        <ele>406.6</ele>
        <time>2021-08-10T11:23:41Z</time>
      </trkpt>
      <trkpt lat="47.48128" lon="6.88781">
        <ele>406.4</ele>
        <time>2021-08-10T11:23:42Z</time>
      </trkpt>
      <trkpt lat="47.48124" lon="6.88782">
        <ele>406.1</ele>
        <time>2021-08-10T11:23:44Z</time>
      </trkpt>
      <trkpt lat="47.48121" lon="6.88784">
        <ele>405.8</ele>
        <time>2021-08-10T11:23:45Z</time>
      </trkpt>
      <trkpt lat="47.48118" lon="6.88786">
        <ele>405.5</ele>
        <time>2021-08-10T11:23:46Z</time>
      </trkpt>
      <trkpt lat="47.48114" lon="6.8879">
        <ele>405</ele>
        <time>2021-08-10T11:23:48Z</time>
      </trkpt>
      <trkpt lat="47.4811" lon="6.88793">
        <ele>404.6</ele>
        <time>2021-08-10T11:23:49Z</time>
      </trkpt>
      <trkpt lat="47.48107" lon="6.88796">
        <ele>404.3</ele>
        <time>2021-08-10T11:23:50Z</time>
      </trkpt>
      <trkpt lat="47.48103" lon="6.88799">
        <ele>403.9</ele>
        <time>2021-08-10T11:23:51Z</time>
      </trkpt>
      <trkpt lat="47.48099" lon="6.88802">
        <ele>403.4</ele>
        <time>2021-08-10T11:23:52Z</time>
      </trkpt>
      <trkpt lat="47.48095" lon="6.88806">
        <ele>402.9</ele>
        <time>2021-08-10T11:23:54Z</time>
      </trkpt>
      <trkpt lat="47.48088" lon="6.88813">
        <ele>402.1</ele>
        <time>2021-08-10T11:23:56Z</time>
      </trkpt>
      <trkpt lat="47.48083" lon="6.88818">
        <ele>401.4</ele>
        <time>2021-08-10T11:23:57Z</time>
      </trkpt>
      <trkpt lat="47.48079" lon="6.88821">
        <ele>400.8</ele>
        <time>2021-08-10T11:23:58Z</time>
      </trkpt>
      <trkpt lat="47.48075" lon="6.88825">
        <ele>400.2</ele>
        <time>2021-08-10T11:23:59Z</time>
      </trkpt>
      <trkpt lat="47.4807" lon="6.88829">
        <ele>399.5</ele>
        <time>2021-08-10T11:24:01Z</time>
      </trkpt>
      <trkpt lat="47.48066" lon="6.88832">
        <ele>399</ele>
        <time>2021-08-10T11:24:02Z</time>
      </trkpt>
      <trkpt lat="47.48062" lon="6.88837">
        <ele>398.3</ele>
        <time>2021-08-10T11:24:03Z</time>
      </trkpt>
      <trkpt lat="47.48056" lon="6.88842">
        <ele>397.4</ele>
        <time>2021-08-10T11:24:05Z</time>
      </trkpt>
      <trkpt lat="47.48051" lon="6.88846">
        <ele>396.8</ele>
        <time>2021-08-10T11:24:06Z</time>
      </trkpt>
      <trkpt lat="47.48046" lon="6.88851">
        <ele>396.1</ele>
        <time>2021-08-10T11:24:08Z</time>
      </trkpt>
      <trkpt lat="47.48042" lon="6.88854">
        <ele>395.6</ele>
        <time>2021-08-10T11:24:09Z</time>
      </trkpt>
      <trkpt lat="47.48038" lon="6.88857">
        <ele>395</ele>
        <time>2021-08-10T11:24:10Z</time>
      </trkpt>
      <trkpt lat="47.48034" lon="6.88861">
        <ele>394.5</ele>
        <time>2021-08-10T11:24:11Z</time>
      </trkpt>
      <trkpt lat="47.48031" lon="6.88864">
        <ele>394.1</ele>
        <time>2021-08-10T11:24:12Z</time>
      </trkpt>
      <trkpt lat="47.48026" lon="6.88869">
        <ele>393.6</ele>
        <time>2021-08-10T11:24:13Z</time>
      </trkpt>
      <trkpt lat="47.48021" lon="6.88873">
        <ele>393</ele>
        <time>2021-08-10T11:24:15Z</time>
      </trkpt>
      <trkpt lat="47.48017" lon="6.88876">
        <ele>392.6</ele>
        <time>2021-08-10T11:24:16Z</time>
      </trkpt>
      <trkpt lat="47.48011" lon="6.88882">
        <ele>392</ele>
        <time>2021-08-10T11:24:17Z</time>
      </trkpt>
      <trkpt lat="47.48006" lon="6.88886">
        <ele>391.5</ele>
        <time>2021-08-10T11:24:18Z</time>
      </trkpt>
      <trkpt lat="47.47995" lon="6.88893">
        <ele>390.7</ele>
        <time>2021-08-10T11:24:20Z</time>
      </trkpt>
      <trkpt lat="47.4799" lon="6.88897">
        <ele>390.3</ele>
        <time>2021-08-10T11:24:21Z</time>
      </trkpt>
      <trkpt lat="47.47984" lon="6.88901">
        <ele>390.1</ele>
        <time>2021-08-10T11:24:22Z</time>
      </trkpt>
      <trkpt lat="47.47973" lon="6.88907">
        <ele>389.7</ele>
        <time>2021-08-10T11:24:24Z</time>
      </trkpt>
      <trkpt lat="47.47968" lon="6.88909">
        <ele>389.5</ele>
        <time>2021-08-10T11:24:25Z</time>
      </trkpt>
      <trkpt lat="47.47959" lon="6.88912">
        <ele>389.3</ele>
        <time>2021-08-10T11:24:27Z</time>
      </trkpt>
      <trkpt lat="47.47955" lon="6.88915">
        <ele>389.3</ele>
        <time>2021-08-10T11:24:28Z</time>
      </trkpt>
      <trkpt lat="47.47957" lon="6.88917">
        <ele>389.2</ele>
        <time>2021-08-10T11:24:29Z</time>
      </trkpt>
      <trkpt lat="47.47952" lon="6.88921">
        <ele>389.2</ele>
        <time>2021-08-10T11:24:31Z</time>
      </trkpt>
      <trkpt lat="47.47946" lon="6.88927">
        <ele>389.1</ele>
        <time>2021-08-10T11:24:32Z</time>
      </trkpt>
      <trkpt lat="47.47943" lon="6.88931">
        <ele>389</ele>
        <time>2021-08-10T11:24:33Z</time>
      </trkpt>
      <trkpt lat="47.47941" lon="6.88935">
        <ele>389</ele>
        <time>2021-08-10T11:24:35Z</time>
      </trkpt>
      <trkpt lat="47.47939" lon="6.8894">
        <ele>389</ele>
        <time>2021-08-10T11:24:36Z</time>
      </trkpt>
      <trkpt lat="47.47938" lon="6.88946">
        <ele>389</ele>
        <time>2021-08-10T11:24:38Z</time>
      </trkpt>
      <trkpt lat="47.47937" lon="6.88953">
        <ele>389</ele>
        <time>2021-08-10T11:24:39Z</time>
      </trkpt>
      <trkpt lat="47.47936" lon="6.88961">
        <ele>389</ele>
        <time>2021-08-10T11:24:42Z</time>
      </trkpt>
      <trkpt lat="47.47936" lon="6.88969">
        <ele>388.9</ele>
        <time>2021-08-10T11:24:44Z</time>
      </trkpt>
      <trkpt lat="47.47935" lon="6.88973">
        <ele>388.9</ele>
        <time>2021-08-10T11:24:45Z</time>
      </trkpt>
      <trkpt lat="47.47935" lon="6.88975">
        <ele>388.9</ele>
        <time>2021-08-10T11:24:46Z</time>
      </trkpt>
      <trkpt lat="47.47934" lon="6.88979">
        <ele>388.9</ele>
        <time>2021-08-10T11:24:48Z</time>
      </trkpt>
      <trkpt lat="47.47934" lon="6.88981">
        <ele>388.9</ele>
        <time>2021-08-10T11:24:49Z</time>
      </trkpt>
      <trkpt lat="47.47935" lon="6.88985">
        <ele>388.9</ele>
        <time>2021-08-10T11:24:51Z</time>
      </trkpt>
      <trkpt lat="47.47936" lon="6.88989">
        <ele>388.9</ele>
        <time>2021-08-10T11:24:53Z</time>
      </trkpt>
      <trkpt lat="47.47936" lon="6.88991">
        <ele>388.9</ele>
        <time>2021-08-10T11:24:54Z</time>
      </trkpt>
      <trkpt lat="47.47936" lon="6.88993">
        <ele>388.8</ele>
        <time>2021-08-10T11:24:56Z</time>
      </trkpt>
      <trkpt lat="47.47936" lon="6.88994">
        <ele>388.8</ele>
        <time>2021-08-10T11:24:58Z</time>
      </trkpt>
      <trkpt lat="47.47937" lon="6.88993">
        <ele>388.8</ele>
        <time>2021-08-10T11:24:59Z</time>
      </trkpt>
      <trkpt lat="47.47937" lon="6.88991">
        <ele>388.8</ele>
        <time>2021-08-10T11:25:01Z</time>
      </trkpt>
      <trkpt lat="47.47936" lon="6.8899">
        <ele>388.8</ele>
        <time>2021-08-10T11:25:02Z</time>
      </trkpt>
      <trkpt lat="47.47936" lon="6.88991">
        <ele>388.8</ele>
        <time>2021-08-10T11:25:04Z</time>
      </trkpt>
      <trkpt lat="47.47935" lon="6.88992">
        <ele>388.8</ele>
        <time>2021-08-10T11:25:05Z</time>
      </trkpt>
      <trkpt lat="47.47935" lon="6.88992">
        <ele>388.8</ele>
        <time>2021-08-10T11:25:07Z</time>
      </trkpt>
      <trkpt lat="47.47936" lon="6.88994">
        <ele>388.8</ele>
        <time>2021-08-10T11:25:09Z</time>
      </trkpt>
      <trkpt lat="47.47936" lon="6.88994">
        <ele>388.8</ele>
        <time>2021-08-10T11:25:10Z</time>
      </trkpt>
      <trkpt lat="47.47936" lon="6.88995">
        <ele>388.8</ele>
        <time>2021-08-10T11:25:11Z</time>
      </trkpt>
      <trkpt lat="47.47927" lon="6.89011">
        <ele>388.6</ele>
        <time>2021-08-10T11:46:12Z</time>
      </trkpt>
      <trkpt lat="47.47927" lon="6.89015">
        <ele>388.6</ele>
        <time>2021-08-10T11:46:13Z</time>
      </trkpt>
      <trkpt lat="47.47925" lon="6.89025">
        <ele>388.4</ele>
        <time>2021-08-10T11:46:15Z</time>
      </trkpt>
      <trkpt lat="47.47924" lon="6.89029">
        <ele>388.4</ele>
        <time>2021-08-10T11:46:16Z</time>
      </trkpt>
      <trkpt lat="47.47923" lon="6.89033">
        <ele>388.3</ele>
        <time>2021-08-10T11:46:17Z</time>
      </trkpt>
      <trkpt lat="47.4792" lon="6.89041">
        <ele>388.1</ele>
        <time>2021-08-10T11:46:19Z</time>
      </trkpt>
      <trkpt lat="47.47917" lon="6.89046">
        <ele>387.9</ele>
        <time>2021-08-10T11:46:20Z</time>
      </trkpt>
      <trkpt lat="47.47913" lon="6.89054">
        <ele>387.6</ele>
        <time>2021-08-10T11:46:22Z</time>
      </trkpt>
      <trkpt lat="47.4791" lon="6.8906">
        <ele>387.4</ele>
        <time>2021-08-10T11:46:23Z</time>
      </trkpt>
      <trkpt lat="47.47906" lon="6.89069">
        <ele>386.9</ele>
        <time>2021-08-10T11:46:25Z</time>
      </trkpt>
      <trkpt lat="47.47903" lon="6.89075">
        <ele>386.7</ele>
        <time>2021-08-10T11:46:26Z</time>
      </trkpt>
      <trkpt lat="47.47899" lon="6.89081">
        <ele>386.4</ele>
        <time>2021-08-10T11:46:27Z</time>
      </trkpt>
      <trkpt lat="47.47897" lon="6.89087">
        <ele>386.1</ele>
        <time>2021-08-10T11:46:28Z</time>
      </trkpt>
      <trkpt lat="47.47894" lon="6.89092">
        <ele>385.8</ele>
        <time>2021-08-10T11:46:29Z</time>
      </trkpt>
      <trkpt lat="47.47888" lon="6.89103">
        <ele>385.3</ele>
        <time>2021-08-10T11:46:31Z</time>
      </trkpt>
      <trkpt lat="47.47885" lon="6.8911">
        <ele>385</ele>
        <time>2021-08-10T11:46:32Z</time>
      </trkpt>
      <trkpt lat="47.47882" lon="6.89116">
        <ele>384.7</ele>
        <time>2021-08-10T11:46:33Z</time>
      </trkpt>
      <trkpt lat="47.47879" lon="6.89122">
        <ele>384.5</ele>
        <time>2021-08-10T11:46:34Z</time>
      </trkpt>
      <trkpt lat="47.47876" lon="6.89127">
        <ele>384.3</ele>
        <time>2021-08-10T11:46:35Z</time>
      </trkpt>
      <trkpt lat="47.47871" lon="6.89136">
        <ele>384</ele>
        <time>2021-08-10T11:46:37Z</time>
      </trkpt>
      <trkpt lat="47.47868" lon="6.89141">
        <ele>383.8</ele>
        <time>2021-08-10T11:46:38Z</time>
      </trkpt>
      <trkpt lat="47.47863" lon="6.8915">
        <ele>383.5</ele>
        <time>2021-08-10T11:46:40Z</time>
      </trkpt>
      <trkpt lat="47.47861" lon="6.89154">
        <ele>383.5</ele>
        <time>2021-08-10T11:46:41Z</time>
      </trkpt>
      <trkpt lat="47.47857" lon="6.89163">
        <ele>383.3</ele>
        <time>2021-08-10T11:46:43Z</time>
      </trkpt>
      <trkpt lat="47.47854" lon="6.89167">
        <ele>383.2</ele>
        <time>2021-08-10T11:46:44Z</time>
      </trkpt>
      <trkpt lat="47.47851" lon="6.89171">
        <ele>383</ele>
        <time>2021-08-10T11:46:45Z</time>
      </trkpt>
      <trkpt lat="47.47847" lon="6.8918">
        <ele>382.5</ele>
        <time>2021-08-10T11:46:47Z</time>
      </trkpt>
      <trkpt lat="47.47844" lon="6.89186">
        <ele>382.3</ele>
        <time>2021-08-10T11:46:48Z</time>
      </trkpt>
      <trkpt lat="47.4784" lon="6.89191">
        <ele>382</ele>
        <time>2021-08-10T11:46:49Z</time>
      </trkpt>
      <trkpt lat="47.47828" lon="6.89206">
        <ele>381.1</ele>
        <time>2021-08-10T11:46:51Z</time>
      </trkpt>
      <trkpt lat="47.47824" lon="6.89212">
        <ele>380.7</ele>
        <time>2021-08-10T11:46:52Z</time>
      </trkpt>
      <trkpt lat="47.47819" lon="6.89217">
        <ele>380.4</ele>
        <time>2021-08-10T11:46:53Z</time>
      </trkpt>
      <trkpt lat="47.47815" lon="6.89223">
        <ele>380.1</ele>
        <time>2021-08-10T11:46:54Z</time>
      </trkpt>
      <trkpt lat="47.4781" lon="6.89228">
        <ele>379.8</ele>
        <time>2021-08-10T11:46:55Z</time>
      </trkpt>
      <trkpt lat="47.478" lon="6.89236">
        <ele>379.4</ele>
        <time>2021-08-10T11:46:57Z</time>
      </trkpt>
      <trkpt lat="47.4779" lon="6.89243">
        <ele>379</ele>
        <time>2021-08-10T11:46:59Z</time>
      </trkpt>
      <trkpt lat="47.47785" lon="6.89246">
        <ele>378.9</ele>
        <time>2021-08-10T11:47:00Z</time>
      </trkpt>
      <trkpt lat="47.4778" lon="6.89249">
        <ele>378.7</ele>
        <time>2021-08-10T11:47:01Z</time>
      </trkpt>
      <trkpt lat="47.4777" lon="6.89255">
        <ele>378.4</ele>
        <time>2021-08-10T11:47:03Z</time>
      </trkpt>
      <trkpt lat="47.47766" lon="6.89257">
        <ele>378.3</ele>
        <time>2021-08-10T11:47:04Z</time>
      </trkpt>
      <trkpt lat="47.4776" lon="6.8926">
        <ele>378.1</ele>
        <time>2021-08-10T11:47:06Z</time>
      </trkpt>
      <trkpt lat="47.47758" lon="6.89261">
        <ele>378.1</ele>
        <time>2021-08-10T11:47:07Z</time>
      </trkpt>
      <trkpt lat="47.47755" lon="6.89263">
        <ele>378</ele>
        <time>2021-08-10T11:47:09Z</time>
      </trkpt>
      <trkpt lat="47.47755" lon="6.89263">
        <ele>378</ele>
        <time>2021-08-10T11:47:10Z</time>
      </trkpt>
      <trkpt lat="47.47755" lon="6.89263">
        <ele>378</ele>
        <time>2021-08-10T11:47:12Z</time>
      </trkpt>
      <trkpt lat="47.47755" lon="6.89264">
        <ele>378</ele>
        <time>2021-08-10T11:47:13Z</time>
      </trkpt>
      <trkpt lat="47.47756" lon="6.89266">
        <ele>378</ele>
        <time>2021-08-10T11:47:15Z</time>
      </trkpt>
      <trkpt lat="47.47756" lon="6.89266">
        <ele>378</ele>
        <time>2021-08-10T11:47:16Z</time>
      </trkpt>
      <trkpt lat="47.47755" lon="6.89267">
        <ele>378</ele>
        <time>2021-08-10T11:47:17Z</time>
      </trkpt>
      <trkpt lat="47.47755" lon="6.89269">
        <ele>377.9</ele>
        <time>2021-08-10T11:47:19Z</time>
      </trkpt>
      <trkpt lat="47.47754" lon="6.89273">
        <ele>377.9</ele>
        <time>2021-08-10T11:47:21Z</time>
      </trkpt>
      <trkpt lat="47.47753" lon="6.89274">
        <ele>377.9</ele>
        <time>2021-08-10T11:47:23Z</time>
      </trkpt>
      <trkpt lat="47.47752" lon="6.89274">
        <ele>377.8</ele>
        <time>2021-08-10T11:47:24Z</time>
      </trkpt>
      <trkpt lat="47.47751" lon="6.89272">
        <ele>377.8</ele>
        <time>2021-08-10T11:47:25Z</time>
      </trkpt>
      <trkpt lat="47.4775" lon="6.89268">
        <ele>377.8</ele>
        <time>2021-08-10T11:47:27Z</time>
      </trkpt>
      <trkpt lat="47.4775" lon="6.89267">
        <ele>377.8</ele>
        <time>2021-08-10T11:47:28Z</time>
      </trkpt>
      <trkpt lat="47.4775" lon="6.89264">
        <ele>377.7</ele>
        <time>2021-08-10T11:47:30Z</time>
      </trkpt>
      <trkpt lat="47.47751" lon="6.89261">
        <ele>377.7</ele>
        <time>2021-08-10T11:47:31Z</time>
      </trkpt>
      <trkpt lat="47.47751" lon="6.89259">
        <ele>377.7</ele>
        <time>2021-08-10T11:47:33Z</time>
      </trkpt>
      <trkpt lat="47.47751" lon="6.89257">
        <ele>377.6</ele>
        <time>2021-08-10T11:47:34Z</time>
      </trkpt>
      <trkpt lat="47.4775" lon="6.89252">
        <ele>377.5</ele>
        <time>2021-08-10T11:47:36Z</time>
      </trkpt>
      <trkpt lat="47.47749" lon="6.89247">
        <ele>377.4</ele>
        <time>2021-08-10T11:47:37Z</time>
      </trkpt>
      <trkpt lat="47.47748" lon="6.89243">
        <ele>377.3</ele>
        <time>2021-08-10T11:47:38Z</time>
      </trkpt>
      <trkpt lat="47.47747" lon="6.89236">
        <ele>377.2</ele>
        <time>2021-08-10T11:47:40Z</time>
      </trkpt>
      <trkpt lat="47.47746" lon="6.89232">
        <ele>377.1</ele>
        <time>2021-08-10T11:47:41Z</time>
      </trkpt>
      <trkpt lat="47.47745" lon="6.89226">
        <ele>377</ele>
        <time>2021-08-10T11:47:42Z</time>
      </trkpt>
      <trkpt lat="47.47743" lon="6.8922">
        <ele>376.9</ele>
        <time>2021-08-10T11:47:43Z</time>
      </trkpt>
      <trkpt lat="47.47741" lon="6.89215">
        <ele>376.8</ele>
        <time>2021-08-10T11:47:44Z</time>
      </trkpt>
      <trkpt lat="47.47739" lon="6.89207">
        <ele>376.6</ele>
        <time>2021-08-10T11:47:46Z</time>
      </trkpt>
      <trkpt lat="47.47737" lon="6.89202">
        <ele>376.4</ele>
        <time>2021-08-10T11:47:47Z</time>
      </trkpt>
      <trkpt lat="47.47732" lon="6.89192">
        <ele>376.1</ele>
        <time>2021-08-10T11:47:49Z</time>
      </trkpt>
      <trkpt lat="47.47727" lon="6.89183">
        <ele>375.9</ele>
        <time>2021-08-10T11:47:51Z</time>
      </trkpt>
      <trkpt lat="47.47725" lon="6.89179">
        <ele>375.8</ele>
        <time>2021-08-10T11:47:52Z</time>
      </trkpt>
      <trkpt lat="47.47722" lon="6.89175">
        <ele>375.6</ele>
        <time>2021-08-10T11:47:53Z</time>
      </trkpt>
      <trkpt lat="47.47718" lon="6.89171">
        <ele>375.5</ele>
        <time>2021-08-10T11:47:54Z</time>
      </trkpt>
      <trkpt lat="47.47713" lon="6.89168">
        <ele>375.4</ele>
        <time>2021-08-10T11:47:55Z</time>
      </trkpt>
      <trkpt lat="47.47709" lon="6.89167">
        <ele>375.3</ele>
        <time>2021-08-10T11:47:57Z</time>
      </trkpt>
      <trkpt lat="47.47703" lon="6.89169">
        <ele>375.2</ele>
        <time>2021-08-10T11:47:58Z</time>
      </trkpt>
      <trkpt lat="47.47698" lon="6.89171">
        <ele>375.1</ele>
        <time>2021-08-10T11:48:00Z</time>
      </trkpt>
      <trkpt lat="47.47692" lon="6.89174">
        <ele>375.1</ele>
        <time>2021-08-10T11:48:01Z</time>
      </trkpt>
      <trkpt lat="47.47684" lon="6.89178">
        <ele>375</ele>
        <time>2021-08-10T11:48:03Z</time>
      </trkpt>
      <trkpt lat="47.47675" lon="6.89183">
        <ele>375</ele>
        <time>2021-08-10T11:48:05Z</time>
      </trkpt>
      <trkpt lat="47.47665" lon="6.89189">
        <ele>374.9</ele>
        <time>2021-08-10T11:48:07Z</time>
      </trkpt>
      <trkpt lat="47.4766" lon="6.89193">
        <ele>374.9</ele>
        <time>2021-08-10T11:48:08Z</time>
      </trkpt>
      <trkpt lat="47.47653" lon="6.89197">
        <ele>375</ele>
        <time>2021-08-10T11:48:09Z</time>
      </trkpt>
      <trkpt lat="47.47648" lon="6.892">
        <ele>375</ele>
        <time>2021-08-10T11:48:10Z</time>
      </trkpt>
      <trkpt lat="47.47641" lon="6.89204">
        <ele>375.1</ele>
        <time>2021-08-10T11:48:12Z</time>
      </trkpt>
      <trkpt lat="47.47637" lon="6.89206">
        <ele>375.2</ele>
        <time>2021-08-10T11:48:13Z</time>
      </trkpt>
      <trkpt lat="47.47632" lon="6.89208">
        <ele>375.3</ele>
        <time>2021-08-10T11:48:14Z</time>
      </trkpt>
      <trkpt lat="47.47625" lon="6.89211">
        <ele>375.4</ele>
        <time>2021-08-10T11:48:16Z</time>
      </trkpt>
      <trkpt lat="47.47619" lon="6.89215">
        <ele>375.6</ele>
        <time>2021-08-10T11:48:18Z</time>
      </trkpt>
      <trkpt lat="47.47616" lon="6.89216">
        <ele>375.7</ele>
        <time>2021-08-10T11:48:19Z</time>
      </trkpt>
      <trkpt lat="47.47614" lon="6.8922">
        <ele>376.1</ele>
        <time>2021-08-10T11:48:21Z</time>
      </trkpt>
      <trkpt lat="47.47615" lon="6.89223">
        <ele>376.1</ele>
        <time>2021-08-10T11:48:22Z</time>
      </trkpt>
      <trkpt lat="47.47616" lon="6.89225">
        <ele>376.2</ele>
        <time>2021-08-10T11:48:23Z</time>
      </trkpt>
      <trkpt lat="47.47617" lon="6.89227">
        <ele>376.2</ele>
        <time>2021-08-10T11:48:25Z</time>
      </trkpt>
      <trkpt lat="47.47617" lon="6.89229">
        <ele>376.2</ele>
        <time>2021-08-10T11:48:26Z</time>
      </trkpt>
      <trkpt lat="47.47617" lon="6.89232">
        <ele>376.3</ele>
        <time>2021-08-10T11:48:27Z</time>
      </trkpt>
      <trkpt lat="47.47617" lon="6.89237">
        <ele>376.3</ele>
        <time>2021-08-10T11:48:29Z</time>
      </trkpt>
      <trkpt lat="47.47617" lon="6.89242">
        <ele>376.4</ele>
        <time>2021-08-10T11:48:30Z</time>
      </trkpt>
      <trkpt lat="47.47617" lon="6.89249">
        <ele>376.5</ele>
        <time>2021-08-10T11:48:31Z</time>
      </trkpt>
      <trkpt lat="47.47617" lon="6.89255">
        <ele>376.6</ele>
        <time>2021-08-10T11:48:32Z</time>
      </trkpt>
      <trkpt lat="47.47617" lon="6.89261">
        <ele>376.6</ele>
        <time>2021-08-10T11:48:33Z</time>
      </trkpt>
      <trkpt lat="47.47616" lon="6.89268">
        <ele>376.7</ele>
        <time>2021-08-10T11:48:35Z</time>
      </trkpt>
      <trkpt lat="47.47614" lon="6.89276">
        <ele>376.8</ele>
        <time>2021-08-10T11:48:36Z</time>
      </trkpt>
      <trkpt lat="47.47611" lon="6.89281">
        <ele>376.9</ele>
        <time>2021-08-10T11:48:38Z</time>
      </trkpt>
      <trkpt lat="47.47607" lon="6.89283">
        <ele>377</ele>
        <time>2021-08-10T11:48:39Z</time>
      </trkpt>
      <trkpt lat="47.47603" lon="6.89281">
        <ele>377.1</ele>
        <time>2021-08-10T11:48:41Z</time>
      </trkpt>
      <trkpt lat="47.47599" lon="6.89278">
        <ele>377.3</ele>
        <time>2021-08-10T11:48:42Z</time>
      </trkpt>
      <trkpt lat="47.47597" lon="6.89275">
        <ele>377.3</ele>
        <time>2021-08-10T11:48:43Z</time>
      </trkpt>
      <trkpt lat="47.47595" lon="6.89271">
        <ele>377.4</ele>
        <time>2021-08-10T11:48:44Z</time>
      </trkpt>
      <trkpt lat="47.4759" lon="6.89264">
        <ele>377.4</ele>
        <time>2021-08-10T11:48:46Z</time>
      </trkpt>
      <trkpt lat="47.47589" lon="6.89258">
        <ele>377.5</ele>
        <time>2021-08-10T11:48:47Z</time>
      </trkpt>
      <trkpt lat="47.47587" lon="6.8925">
        <ele>377.6</ele>
        <time>2021-08-10T11:48:48Z</time>
      </trkpt>
      <trkpt lat="47.47585" lon="6.89243">
        <ele>377.6</ele>
        <time>2021-08-10T11:48:50Z</time>
      </trkpt>
      <trkpt lat="47.47584" lon="6.89238">
        <ele>377.7</ele>
        <time>2021-08-10T11:48:51Z</time>
      </trkpt>
      <trkpt lat="47.47582" lon="6.89234">
        <ele>377.8</ele>
        <time>2021-08-10T11:48:52Z</time>
      </trkpt>
      <trkpt lat="47.47579" lon="6.89228">
        <ele>377.9</ele>
        <time>2021-08-10T11:48:53Z</time>
      </trkpt>
      <trkpt lat="47.47576" lon="6.89225">
        <ele>377.9</ele>
        <time>2021-08-10T11:48:54Z</time>
      </trkpt>
      <trkpt lat="47.47573" lon="6.89222">
        <ele>378</ele>
        <time>2021-08-10T11:48:56Z</time>
      </trkpt>
      <trkpt lat="47.4757" lon="6.8922">
        <ele>378.1</ele>
        <time>2021-08-10T11:48:57Z</time>
      </trkpt>
      <trkpt lat="47.47565" lon="6.89218">
        <ele>378.2</ele>
        <time>2021-08-10T11:48:59Z</time>
      </trkpt>
      <trkpt lat="47.4756" lon="6.89217">
        <ele>378.3</ele>
        <time>2021-08-10T11:49:01Z</time>
      </trkpt>
      <trkpt lat="47.47557" lon="6.89217">
        <ele>378.4</ele>
        <time>2021-08-10T11:49:02Z</time>
      </trkpt>
      <trkpt lat="47.47553" lon="6.89217">
        <ele>378.5</ele>
        <time>2021-08-10T11:49:03Z</time>
      </trkpt>
      <trkpt lat="47.47549" lon="6.89216">
        <ele>378.6</ele>
        <time>2021-08-10T11:49:05Z</time>
      </trkpt>
      <trkpt lat="47.47546" lon="6.89217">
        <ele>378.7</ele>
        <time>2021-08-10T11:49:06Z</time>
      </trkpt>
      <trkpt lat="47.47541" lon="6.89218">
        <ele>378.8</ele>
        <time>2021-08-10T11:49:08Z</time>
      </trkpt>
      <trkpt lat="47.47538" lon="6.89219">
        <ele>378.9</ele>
        <time>2021-08-10T11:49:09Z</time>
      </trkpt>
      <trkpt lat="47.47533" lon="6.89221">
        <ele>379.1</ele>
        <time>2021-08-10T11:49:10Z</time>
      </trkpt>
      <trkpt lat="47.4753" lon="6.89222">
        <ele>379.2</ele>
        <time>2021-08-10T11:49:11Z</time>
      </trkpt>
      <trkpt lat="47.47528" lon="6.89224">
        <ele>379.3</ele>
        <time>2021-08-10T11:49:13Z</time>
      </trkpt>
      <trkpt lat="47.47525" lon="6.89225">
        <ele>379.4</ele>
        <time>2021-08-10T11:49:14Z</time>
      </trkpt>
      <trkpt lat="47.4752" lon="6.89225">
        <ele>379.6</ele>
        <time>2021-08-10T11:49:15Z</time>
      </trkpt>
      <trkpt lat="47.47516" lon="6.89226">
        <ele>379.7</ele>
        <time>2021-08-10T11:49:16Z</time>
      </trkpt>
      <trkpt lat="47.47515" lon="6.89226">
        <ele>379.8</ele>
        <time>2021-08-10T11:49:17Z</time>
      </trkpt>
      <trkpt lat="47.4751" lon="6.89227">
        <ele>379.9</ele>
        <time>2021-08-10T11:49:19Z</time>
      </trkpt>
      <trkpt lat="47.47507" lon="6.89227">
        <ele>380.1</ele>
        <time>2021-08-10T11:49:20Z</time>
      </trkpt>
      <trkpt lat="47.47503" lon="6.89229">
        <ele>380.3</ele>
        <time>2021-08-10T11:49:22Z</time>
      </trkpt>
      <trkpt lat="47.47501" lon="6.89229">
        <ele>380.3</ele>
        <time>2021-08-10T11:49:23Z</time>
      </trkpt>
      <trkpt lat="47.475" lon="6.8923">
        <ele>380.4</ele>
        <time>2021-08-10T11:49:24Z</time>
      </trkpt>
      <trkpt lat="47.47497" lon="6.8923">
        <ele>380.6</ele>
        <time>2021-08-10T11:49:25Z</time>
      </trkpt>
      <trkpt lat="47.47495" lon="6.8923">
        <ele>380.6</ele>
        <time>2021-08-10T11:49:26Z</time>
      </trkpt>
      <trkpt lat="47.47492" lon="6.8923">
        <ele>380.8</ele>
        <time>2021-08-10T11:49:28Z</time>
      </trkpt>
      <trkpt lat="47.47488" lon="6.89228">
        <ele>381</ele>
        <time>2021-08-10T11:49:29Z</time>
      </trkpt>
      <trkpt lat="47.47487" lon="6.89227">
        <ele>381.1</ele>
        <time>2021-08-10T11:49:30Z</time>
      </trkpt>
      <trkpt lat="47.47483" lon="6.89223">
        <ele>381.4</ele>
        <time>2021-08-10T11:49:32Z</time>
      </trkpt>
      <trkpt lat="47.47482" lon="6.89222">
        <ele>381.4</ele>
        <time>2021-08-10T11:49:33Z</time>
      </trkpt>
      <trkpt lat="47.47481" lon="6.8922">
        <ele>381.5</ele>
        <time>2021-08-10T11:49:34Z</time>
      </trkpt>
      <trkpt lat="47.4748" lon="6.89219">
        <ele>381.6</ele>
        <time>2021-08-10T11:49:36Z</time>
      </trkpt>
      <trkpt lat="47.47479" lon="6.89217">
        <ele>381.7</ele>
        <time>2021-08-10T11:49:37Z</time>
      </trkpt>
      <trkpt lat="47.47474" lon="6.89213">
        <ele>382</ele>
        <time>2021-08-10T11:49:39Z</time>
      </trkpt>
      <trkpt lat="47.47473" lon="6.89211">
        <ele>382.1</ele>
        <time>2021-08-10T11:49:40Z</time>
      </trkpt>
      <trkpt lat="47.47471" lon="6.8921">
        <ele>382.2</ele>
        <time>2021-08-10T11:49:41Z</time>
      </trkpt>
      <trkpt lat="47.47467" lon="6.89206">
        <ele>382.5</ele>
        <time>2021-08-10T11:49:43Z</time>
      </trkpt>
      <trkpt lat="47.47466" lon="6.89205">
        <ele>382.6</ele>
        <time>2021-08-10T11:49:44Z</time>
      </trkpt>
      <trkpt lat="47.47464" lon="6.89203">
        <ele>382.7</ele>
        <time>2021-08-10T11:49:45Z</time>
      </trkpt>
      <trkpt lat="47.47461" lon="6.89201">
        <ele>382.9</ele>
        <time>2021-08-10T11:49:47Z</time>
      </trkpt>
      <trkpt lat="47.47459" lon="6.89201">
        <ele>383</ele>
        <time>2021-08-10T11:49:48Z</time>
      </trkpt>
      <trkpt lat="47.47456" lon="6.89199">
        <ele>383.1</ele>
        <time>2021-08-10T11:49:50Z</time>
      </trkpt>
      <trkpt lat="47.47455" lon="6.89199">
        <ele>383.2</ele>
        <time>2021-08-10T11:49:51Z</time>
      </trkpt>
      <trkpt lat="47.47453" lon="6.89199">
        <ele>383.3</ele>
        <time>2021-08-10T11:49:53Z</time>
      </trkpt>
      <trkpt lat="47.47451" lon="6.89199">
        <ele>383.4</ele>
        <time>2021-08-10T11:49:54Z</time>
      </trkpt>
      <trkpt lat="47.47449" lon="6.89199">
        <ele>383.5</ele>
        <time>2021-08-10T11:49:55Z</time>
      </trkpt>
      <trkpt lat="47.47446" lon="6.89198">
        <ele>383.7</ele>
        <time>2021-08-10T11:49:57Z</time>
      </trkpt>
      <trkpt lat="47.47443" lon="6.89198">
        <ele>383.9</ele>
        <time>2021-08-10T11:49:59Z</time>
      </trkpt>
      <trkpt lat="47.47441" lon="6.89199">
        <ele>384</ele>
        <time>2021-08-10T11:50:00Z</time>
      </trkpt>
      <trkpt lat="47.4744" lon="6.89199">
        <ele>384.1</ele>
        <time>2021-08-10T11:50:01Z</time>
      </trkpt>
      <trkpt lat="47.47437" lon="6.89199">
        <ele>384.2</ele>
        <time>2021-08-10T11:50:02Z</time>
      </trkpt>
      <trkpt lat="47.47436" lon="6.89199">
        <ele>384.2</ele>
        <time>2021-08-10T11:50:03Z</time>
      </trkpt>
      <trkpt lat="47.47432" lon="6.89199">
        <ele>384.4</ele>
        <time>2021-08-10T11:50:05Z</time>
      </trkpt>
      <trkpt lat="47.47432" lon="6.89199">
        <ele>384.4</ele>
        <time>2021-08-10T11:50:06Z</time>
      </trkpt>
      <trkpt lat="47.47428" lon="6.89201">
        <ele>384.6</ele>
        <time>2021-08-10T11:50:08Z</time>
      </trkpt>
      <trkpt lat="47.47426" lon="6.89201">
        <ele>384.6</ele>
        <time>2021-08-10T11:50:09Z</time>
      </trkpt>
      <trkpt lat="47.47425" lon="6.89202">
        <ele>384.6</ele>
        <time>2021-08-10T11:50:10Z</time>
      </trkpt>
      <trkpt lat="47.47421" lon="6.89203">
        <ele>384.8</ele>
        <time>2021-08-10T11:50:12Z</time>
      </trkpt>
      <trkpt lat="47.47419" lon="6.89204">
        <ele>384.8</ele>
        <time>2021-08-10T11:50:13Z</time>
      </trkpt>
      <trkpt lat="47.47418" lon="6.89204">
        <ele>384.9</ele>
        <time>2021-08-10T11:50:14Z</time>
      </trkpt>
      <trkpt lat="47.47416" lon="6.89204">
        <ele>385</ele>
        <time>2021-08-10T11:50:15Z</time>
      </trkpt>
      <trkpt lat="47.47412" lon="6.89206">
        <ele>385.1</ele>
        <time>2021-08-10T11:50:17Z</time>
      </trkpt>
      <trkpt lat="47.47411" lon="6.89207">
        <ele>385.1</ele>
        <time>2021-08-10T11:50:18Z</time>
      </trkpt>
      <trkpt lat="47.47407" lon="6.89209">
        <ele>385.3</ele>
        <time>2021-08-10T11:50:20Z</time>
      </trkpt>
      <trkpt lat="47.47404" lon="6.8921">
        <ele>385.4</ele>
        <time>2021-08-10T11:50:21Z</time>
      </trkpt>
      <trkpt lat="47.47403" lon="6.8921">
        <ele>385.4</ele>
        <time>2021-08-10T11:50:22Z</time>
      </trkpt>
      <trkpt lat="47.47401" lon="6.89211">
        <ele>385.4</ele>
        <time>2021-08-10T11:50:23Z</time>
      </trkpt>
      <trkpt lat="47.47399" lon="6.89213">
        <ele>385.5</ele>
        <time>2021-08-10T11:50:25Z</time>
      </trkpt>
      <trkpt lat="47.47396" lon="6.89214">
        <ele>385.6</ele>
        <time>2021-08-10T11:50:26Z</time>
      </trkpt>
      <trkpt lat="47.47394" lon="6.89215">
        <ele>385.6</ele>
        <time>2021-08-10T11:50:27Z</time>
      </trkpt>
      <trkpt lat="47.47391" lon="6.89215">
        <ele>385.7</ele>
        <time>2021-08-10T11:50:29Z</time>
      </trkpt>
      <trkpt lat="47.47389" lon="6.89215">
        <ele>385.7</ele>
        <time>2021-08-10T11:50:30Z</time>
      </trkpt>
      <trkpt lat="47.47386" lon="6.89215">
        <ele>385.8</ele>
        <time>2021-08-10T11:50:31Z</time>
      </trkpt>
      <trkpt lat="47.47381" lon="6.89213">
        <ele>385.8</ele>
        <time>2021-08-10T11:50:33Z</time>
      </trkpt>
      <trkpt lat="47.4738" lon="6.89213">
        <ele>385.9</ele>
        <time>2021-08-10T11:50:34Z</time>
      </trkpt>
      <trkpt lat="47.47378" lon="6.89212">
        <ele>385.9</ele>
        <time>2021-08-10T11:50:35Z</time>
      </trkpt>
      <trkpt lat="47.47375" lon="6.89212">
        <ele>385.9</ele>
        <time>2021-08-10T11:50:36Z</time>
      </trkpt>
      <trkpt lat="47.47373" lon="6.89212">
        <ele>385.9</ele>
        <time>2021-08-10T11:50:37Z</time>
      </trkpt>
      <trkpt lat="47.47371" lon="6.89213">
        <ele>385.9</ele>
        <time>2021-08-10T11:50:39Z</time>
      </trkpt>
      <trkpt lat="47.47368" lon="6.89215">
        <ele>385.8</ele>
        <time>2021-08-10T11:50:40Z</time>
      </trkpt>
      <trkpt lat="47.47365" lon="6.89217">
        <ele>385.8</ele>
        <time>2021-08-10T11:50:42Z</time>
      </trkpt>
      <trkpt lat="47.4736" lon="6.89219">
        <ele>385.7</ele>
        <time>2021-08-10T11:50:44Z</time>
      </trkpt>
      <trkpt lat="47.47356" lon="6.89219">
        <ele>385.6</ele>
        <time>2021-08-10T11:50:45Z</time>
      </trkpt>
      <trkpt lat="47.47352" lon="6.8922">
        <ele>385.5</ele>
        <time>2021-08-10T11:50:46Z</time>
      </trkpt>
      <trkpt lat="47.47345" lon="6.89221">
        <ele>385.4</ele>
        <time>2021-08-10T11:50:47Z</time>
      </trkpt>
      <trkpt lat="47.47339" lon="6.89222">
        <ele>385.3</ele>
        <time>2021-08-10T11:50:48Z</time>
      </trkpt>
      <trkpt lat="47.47331" lon="6.89223">
        <ele>385.2</ele>
        <time>2021-08-10T11:50:50Z</time>
      </trkpt>
      <trkpt lat="47.47323" lon="6.89225">
        <ele>385.1</ele>
        <time>2021-08-10T11:50:52Z</time>
      </trkpt>
      <trkpt lat="47.47318" lon="6.89225">
        <ele>385.2</ele>
        <time>2021-08-10T11:50:53Z</time>
      </trkpt>
      <trkpt lat="47.4731" lon="6.89226">
        <ele>385.2</ele>
        <time>2021-08-10T11:50:54Z</time>
      </trkpt>
      <trkpt lat="47.47306" lon="6.89226">
        <ele>385.3</ele>
        <time>2021-08-10T11:50:56Z</time>
      </trkpt>
      <trkpt lat="47.47302" lon="6.89227">
        <ele>385.4</ele>
        <time>2021-08-10T11:50:57Z</time>
      </trkpt>
      <trkpt lat="47.47299" lon="6.89227">
        <ele>385.4</ele>
        <time>2021-08-10T11:50:58Z</time>
      </trkpt>
      <trkpt lat="47.47293" lon="6.89226">
        <ele>385.6</ele>
        <time>2021-08-10T11:51:00Z</time>
      </trkpt>
      <trkpt lat="47.47291" lon="6.89223">
        <ele>385.8</ele>
        <time>2021-08-10T11:51:02Z</time>
      </trkpt>
      <trkpt lat="47.4729" lon="6.89223">
        <ele>385.8</ele>
        <time>2021-08-10T11:51:03Z</time>
      </trkpt>
      <trkpt lat="47.47289" lon="6.89223">
        <ele>385.9</ele>
        <time>2021-08-10T11:51:04Z</time>
      </trkpt>
      <trkpt lat="47.47289" lon="6.89223">
        <ele>385.9</ele>
        <time>2021-08-10T11:51:05Z</time>
      </trkpt>
      <trkpt lat="47.4729" lon="6.89222">
        <ele>385.9</ele>
        <time>2021-08-10T11:51:06Z</time>
      </trkpt>
      <trkpt lat="47.47291" lon="6.8922">
        <ele>386</ele>
        <time>2021-08-10T11:51:08Z</time>
      </trkpt>
      <trkpt lat="47.47291" lon="6.89219">
        <ele>386</ele>
        <time>2021-08-10T11:51:09Z</time>
      </trkpt>
      <trkpt lat="47.4729" lon="6.89219">
        <ele>386.1</ele>
        <time>2021-08-10T11:51:10Z</time>
      </trkpt>
      <trkpt lat="47.47289" lon="6.89219">
        <ele>386.1</ele>
        <time>2021-08-10T11:51:11Z</time>
      </trkpt>
      <trkpt lat="47.47289" lon="6.89219">
        <ele>386.2</ele>
        <time>2021-08-10T11:51:12Z</time>
      </trkpt>
      <trkpt lat="47.47288" lon="6.89218">
        <ele>386.2</ele>
        <time>2021-08-10T11:51:13Z</time>
      </trkpt>
      <trkpt lat="47.47288" lon="6.89218">
        <ele>386.2</ele>
        <time>2021-08-10T11:51:15Z</time>
      </trkpt>
      <trkpt lat="47.47288" lon="6.89218">
        <ele>386.3</ele>
        <time>2021-08-10T11:51:16Z</time>
      </trkpt>
      <trkpt lat="47.47286" lon="6.89217">
        <ele>386.4</ele>
        <time>2021-08-10T11:51:18Z</time>
      </trkpt>
      <trkpt lat="47.47284" lon="6.89217">
        <ele>386.5</ele>
        <time>2021-08-10T11:51:19Z</time>
      </trkpt>
      <trkpt lat="47.47283" lon="6.89217">
        <ele>386.6</ele>
        <time>2021-08-10T11:51:21Z</time>
      </trkpt>
      <trkpt lat="47.47277" lon="6.89217">
        <ele>387.1</ele>
        <time>2021-08-10T11:51:24Z</time>
      </trkpt>
      <trkpt lat="47.47272" lon="6.89216">
        <ele>387.6</ele>
        <time>2021-08-10T11:51:26Z</time>
      </trkpt>
      <trkpt lat="47.4727" lon="6.89215">
        <ele>387.8</ele>
        <time>2021-08-10T11:51:27Z</time>
      </trkpt>
      <trkpt lat="47.47268" lon="6.89214">
        <ele>388</ele>
        <time>2021-08-10T11:51:29Z</time>
      </trkpt>
      <trkpt lat="47.47265" lon="6.89213">
        <ele>388.3</ele>
        <time>2021-08-10T11:51:30Z</time>
      </trkpt>
      <trkpt lat="47.47264" lon="6.89213">
        <ele>388.4</ele>
        <time>2021-08-10T11:51:31Z</time>
      </trkpt>
      <trkpt lat="47.47262" lon="6.89212">
        <ele>388.6</ele>
        <time>2021-08-10T11:51:33Z</time>
      </trkpt>
      <trkpt lat="47.47261" lon="6.89212">
        <ele>388.7</ele>
        <time>2021-08-10T11:51:34Z</time>
      </trkpt>
      <trkpt lat="47.47259" lon="6.89211">
        <ele>388.8</ele>
        <time>2021-08-10T11:51:35Z</time>
      </trkpt>
      <trkpt lat="47.47257" lon="6.89211">
        <ele>389.1</ele>
        <time>2021-08-10T11:51:37Z</time>
      </trkpt>
      <trkpt lat="47.47255" lon="6.89211">
        <ele>389.2</ele>
        <time>2021-08-10T11:51:38Z</time>
      </trkpt>
      <trkpt lat="47.47253" lon="6.89211">
        <ele>389.4</ele>
        <time>2021-08-10T11:51:40Z</time>
      </trkpt>
      <trkpt lat="47.47252" lon="6.89211">
        <ele>389.5</ele>
        <time>2021-08-10T11:51:41Z</time>
      </trkpt>
      <trkpt lat="47.4725" lon="6.89211">
        <ele>389.7</ele>
        <time>2021-08-10T11:51:43Z</time>
      </trkpt>
      <trkpt lat="47.47247" lon="6.89211">
        <ele>389.9</ele>
        <time>2021-08-10T11:51:45Z</time>
      </trkpt>
      <trkpt lat="47.47245" lon="6.89211">
        <ele>390</ele>
        <time>2021-08-10T11:51:46Z</time>
      </trkpt>
      <trkpt lat="47.47244" lon="6.89211">
        <ele>390.1</ele>
        <time>2021-08-10T11:51:47Z</time>
      </trkpt>
      <trkpt lat="47.47242" lon="6.8921">
        <ele>390.3</ele>
        <time>2021-08-10T11:51:49Z</time>
      </trkpt>
      <trkpt lat="47.47241" lon="6.8921">
        <ele>390.4</ele>
        <time>2021-08-10T11:51:50Z</time>
      </trkpt>
      <trkpt lat="47.47239" lon="6.89209">
        <ele>390.5</ele>
        <time>2021-08-10T11:51:51Z</time>
      </trkpt>
      <trkpt lat="47.47238" lon="6.89209">
        <ele>390.6</ele>
        <time>2021-08-10T11:51:52Z</time>
      </trkpt>
      <trkpt lat="47.47237" lon="6.89208">
        <ele>390.7</ele>
        <time>2021-08-10T11:51:53Z</time>
      </trkpt>
      <trkpt lat="47.47236" lon="6.89208">
        <ele>390.8</ele>
        <time>2021-08-10T11:51:54Z</time>
      </trkpt>
      <trkpt lat="47.47235" lon="6.89207">
        <ele>390.9</ele>
        <time>2021-08-10T11:51:55Z</time>
      </trkpt>
      <trkpt lat="47.47233" lon="6.89206">
        <ele>391</ele>
        <time>2021-08-10T11:51:57Z</time>
      </trkpt>
      <trkpt lat="47.47231" lon="6.89204">
        <ele>391.2</ele>
        <time>2021-08-10T11:51:59Z</time>
      </trkpt>
      <trkpt lat="47.4723" lon="6.89203">
        <ele>391.3</ele>
        <time>2021-08-10T11:52:00Z</time>
      </trkpt>
      <trkpt lat="47.47229" lon="6.89202">
        <ele>391.4</ele>
        <time>2021-08-10T11:52:01Z</time>
      </trkpt>
      <trkpt lat="47.47228" lon="6.89201">
        <ele>391.5</ele>
        <time>2021-08-10T11:52:02Z</time>
      </trkpt>
      <trkpt lat="47.47226" lon="6.892">
        <ele>391.6</ele>
        <time>2021-08-10T11:52:03Z</time>
      </trkpt>
      <trkpt lat="47.47225" lon="6.892">
        <ele>391.7</ele>
        <time>2021-08-10T11:52:04Z</time>
      </trkpt>
      <trkpt lat="47.47224" lon="6.892">
        <ele>391.7</ele>
        <time>2021-08-10T11:52:05Z</time>
      </trkpt>
      <trkpt lat="47.47223" lon="6.89199">
        <ele>391.8</ele>
        <time>2021-08-10T11:52:06Z</time>
      </trkpt>
      <trkpt lat="47.47221" lon="6.89199">
        <ele>391.9</ele>
        <time>2021-08-10T11:52:08Z</time>
      </trkpt>
      <trkpt lat="47.4722" lon="6.89198">
        <ele>392.1</ele>
        <time>2021-08-10T11:52:09Z</time>
      </trkpt>
      <trkpt lat="47.47218" lon="6.89198">
        <ele>392.2</ele>
        <time>2021-08-10T11:52:11Z</time>
      </trkpt>
      <trkpt lat="47.47217" lon="6.89198">
        <ele>392.3</ele>
        <time>2021-08-10T11:52:12Z</time>
      </trkpt>
      <trkpt lat="47.47216" lon="6.89198">
        <ele>392.4</ele>
        <time>2021-08-10T11:52:13Z</time>
      </trkpt>
      <trkpt lat="47.47215" lon="6.89197">
        <ele>392.5</ele>
        <time>2021-08-10T11:52:14Z</time>
      </trkpt>
      <trkpt lat="47.47215" lon="6.89197">
        <ele>392.5</ele>
        <time>2021-08-10T11:52:15Z</time>
      </trkpt>
      <trkpt lat="47.47214" lon="6.89197">
        <ele>392.6</ele>
        <time>2021-08-10T11:52:17Z</time>
      </trkpt>
      <trkpt lat="47.47214" lon="6.89197">
        <ele>392.6</ele>
        <time>2021-08-10T11:52:18Z</time>
      </trkpt>
      <trkpt lat="47.47213" lon="6.89197">
        <ele>392.7</ele>
        <time>2021-08-10T11:52:19Z</time>
      </trkpt>
      <trkpt lat="47.47212" lon="6.89197">
        <ele>392.7</ele>
        <time>2021-08-10T11:52:20Z</time>
      </trkpt>
      <trkpt lat="47.47211" lon="6.89197">
        <ele>392.8</ele>
        <time>2021-08-10T11:52:21Z</time>
      </trkpt>
      <trkpt lat="47.47211" lon="6.89197">
        <ele>392.9</ele>
        <time>2021-08-10T11:52:23Z</time>
      </trkpt>
      <trkpt lat="47.47209" lon="6.89196">
        <ele>393</ele>
        <time>2021-08-10T11:52:24Z</time>
      </trkpt>
      <trkpt lat="47.47207" lon="6.89195">
        <ele>393.2</ele>
        <time>2021-08-10T11:52:25Z</time>
      </trkpt>
      <trkpt lat="47.47205" lon="6.89195">
        <ele>393.3</ele>
        <time>2021-08-10T11:52:27Z</time>
      </trkpt>
      <trkpt lat="47.47204" lon="6.89195">
        <ele>393.4</ele>
        <time>2021-08-10T11:52:28Z</time>
      </trkpt>
      <trkpt lat="47.47203" lon="6.89194">
        <ele>393.6</ele>
        <time>2021-08-10T11:52:29Z</time>
      </trkpt>
      <trkpt lat="47.47201" lon="6.89195">
        <ele>393.7</ele>
        <time>2021-08-10T11:52:30Z</time>
      </trkpt>
      <trkpt lat="47.472" lon="6.89195">
        <ele>393.8</ele>
        <time>2021-08-10T11:52:32Z</time>
      </trkpt>
      <trkpt lat="47.47199" lon="6.89195">
        <ele>393.9</ele>
        <time>2021-08-10T11:52:33Z</time>
      </trkpt>
      <trkpt lat="47.47198" lon="6.89196">
        <ele>393.9</ele>
        <time>2021-08-10T11:52:34Z</time>
      </trkpt>
      <trkpt lat="47.47197" lon="6.89196">
        <ele>394</ele>
        <time>2021-08-10T11:52:35Z</time>
      </trkpt>
      <trkpt lat="47.47197" lon="6.89195">
        <ele>394.1</ele>
        <time>2021-08-10T11:52:36Z</time>
      </trkpt>
      <trkpt lat="47.47196" lon="6.89195">
        <ele>394.2</ele>
        <time>2021-08-10T11:52:38Z</time>
      </trkpt>
      <trkpt lat="47.47195" lon="6.89195">
        <ele>394.3</ele>
        <time>2021-08-10T11:52:39Z</time>
      </trkpt>
      <trkpt lat="47.47193" lon="6.89194">
        <ele>394.4</ele>
        <time>2021-08-10T11:52:40Z</time>
      </trkpt>
      <trkpt lat="47.47191" lon="6.89193">
        <ele>394.6</ele>
        <time>2021-08-10T11:52:41Z</time>
      </trkpt>
      <trkpt lat="47.4719" lon="6.89193">
        <ele>394.7</ele>
        <time>2021-08-10T11:52:43Z</time>
      </trkpt>
      <trkpt lat="47.47189" lon="6.89192">
        <ele>394.7</ele>
        <time>2021-08-10T11:52:44Z</time>
      </trkpt>
      <trkpt lat="47.47185" lon="6.89192">
        <ele>395</ele>
        <time>2021-08-10T11:52:46Z</time>
      </trkpt>
      <trkpt lat="47.47184" lon="6.89191">
        <ele>395.1</ele>
        <time>2021-08-10T11:52:47Z</time>
      </trkpt>
      <trkpt lat="47.47182" lon="6.89191">
        <ele>395.3</ele>
        <time>2021-08-10T11:52:48Z</time>
      </trkpt>
      <trkpt lat="47.47181" lon="6.89191">
        <ele>395.4</ele>
        <time>2021-08-10T11:52:49Z</time>
      </trkpt>
      <trkpt lat="47.47178" lon="6.8919">
        <ele>395.6</ele>
        <time>2021-08-10T11:52:51Z</time>
      </trkpt>
      <trkpt lat="47.47177" lon="6.8919">
        <ele>395.7</ele>
        <time>2021-08-10T11:52:52Z</time>
      </trkpt>
      <trkpt lat="47.47176" lon="6.8919">
        <ele>395.8</ele>
        <time>2021-08-10T11:52:53Z</time>
      </trkpt>
      <trkpt lat="47.47174" lon="6.89189">
        <ele>395.9</ele>
        <time>2021-08-10T11:52:55Z</time>
      </trkpt>
      <trkpt lat="47.47173" lon="6.89189">
        <ele>396</ele>
        <time>2021-08-10T11:52:56Z</time>
      </trkpt>
      <trkpt lat="47.47172" lon="6.89188">
        <ele>396.1</ele>
        <time>2021-08-10T11:52:57Z</time>
      </trkpt>
      <trkpt lat="47.4717" lon="6.89187">
        <ele>396.3</ele>
        <time>2021-08-10T11:52:59Z</time>
      </trkpt>
      <trkpt lat="47.47169" lon="6.89186">
        <ele>396.3</ele>
        <time>2021-08-10T11:53:01Z</time>
      </trkpt>
      <trkpt lat="47.4717" lon="6.89185">
        <ele>396.4</ele>
        <time>2021-08-10T11:53:03Z</time>
      </trkpt>
      <trkpt lat="47.47171" lon="6.89185">
        <ele>396.5</ele>
        <time>2021-08-10T11:53:05Z</time>
      </trkpt>
      <trkpt lat="47.47171" lon="6.89184">
        <ele>396.5</ele>
        <time>2021-08-10T11:53:06Z</time>
      </trkpt>
      <trkpt lat="47.47171" lon="6.89184">
        <ele>396.5</ele>
        <time>2021-08-10T11:53:07Z</time>
      </trkpt>
      <trkpt lat="47.47171" lon="6.89184">
        <ele>396.5</ele>
        <time>2021-08-10T11:53:08Z</time>
      </trkpt>
      <trkpt lat="47.4717" lon="6.89184">
        <ele>396.6</ele>
        <time>2021-08-10T11:53:10Z</time>
      </trkpt>
      <trkpt lat="47.47169" lon="6.89184">
        <ele>396.6</ele>
        <time>2021-08-10T11:53:11Z</time>
      </trkpt>
      <trkpt lat="47.47169" lon="6.89184">
        <ele>396.6</ele>
        <time>2021-08-10T11:53:13Z</time>
      </trkpt>
      <trkpt lat="47.47169" lon="6.89183">
        <ele>396.7</ele>
        <time>2021-08-10T11:53:14Z</time>
      </trkpt>
      <trkpt lat="47.47168" lon="6.89183">
        <ele>396.7</ele>
        <time>2021-08-10T11:53:15Z</time>
      </trkpt>
      <trkpt lat="47.47167" lon="6.89183">
        <ele>396.8</ele>
        <time>2021-08-10T11:53:16Z</time>
      </trkpt>
      <trkpt lat="47.47167" lon="6.89182">
        <ele>396.8</ele>
        <time>2021-08-10T11:53:18Z</time>
      </trkpt>
      <trkpt lat="47.47153" lon="6.89182">
        <ele>397.9</ele>
        <time>2021-08-10T11:53:37Z</time>
      </trkpt>
      <trkpt lat="47.47152" lon="6.89181">
        <ele>397.9</ele>
        <time>2021-08-10T11:53:39Z</time>
      </trkpt>
      <trkpt lat="47.47152" lon="6.8918">
        <ele>398</ele>
        <time>2021-08-10T11:53:40Z</time>
      </trkpt>
      <trkpt lat="47.47151" lon="6.8918">
        <ele>398</ele>
        <time>2021-08-10T11:53:42Z</time>
      </trkpt>
      <trkpt lat="47.47151" lon="6.8918">
        <ele>398</ele>
        <time>2021-08-10T11:53:43Z</time>
      </trkpt>
      <trkpt lat="47.4715" lon="6.89179">
        <ele>398.1</ele>
        <time>2021-08-10T11:53:45Z</time>
      </trkpt>
      <trkpt lat="47.4715" lon="6.89178">
        <ele>398.1</ele>
        <time>2021-08-10T11:53:46Z</time>
      </trkpt>
      <trkpt lat="47.47149" lon="6.89178">
        <ele>398.2</ele>
        <time>2021-08-10T11:53:48Z</time>
      </trkpt>
      <trkpt lat="47.47148" lon="6.89179">
        <ele>398.3</ele>
        <time>2021-08-10T11:53:50Z</time>
      </trkpt>
      <trkpt lat="47.47118" lon="6.89184">
        <ele>400</ele>
        <time>2021-08-10T11:55:21Z</time>
      </trkpt>
      <trkpt lat="47.47116" lon="6.89185">
        <ele>400.1</ele>
        <time>2021-08-10T11:55:22Z</time>
      </trkpt>
      <trkpt lat="47.47113" lon="6.89185">
        <ele>400.2</ele>
        <time>2021-08-10T11:55:24Z</time>
      </trkpt>
      <trkpt lat="47.47109" lon="6.89187">
        <ele>400.5</ele>
        <time>2021-08-10T11:55:25Z</time>
      </trkpt>
      <trkpt lat="47.47107" lon="6.89187">
        <ele>400.6</ele>
        <time>2021-08-10T11:55:26Z</time>
      </trkpt>
      <trkpt lat="47.47105" lon="6.89188">
        <ele>400.7</ele>
        <time>2021-08-10T11:55:27Z</time>
      </trkpt>
      <trkpt lat="47.47103" lon="6.89188">
        <ele>400.8</ele>
        <time>2021-08-10T11:55:29Z</time>
      </trkpt>
      <trkpt lat="47.47101" lon="6.89187">
        <ele>400.9</ele>
        <time>2021-08-10T11:55:30Z</time>
      </trkpt>
      <trkpt lat="47.47098" lon="6.89186">
        <ele>401.1</ele>
        <time>2021-08-10T11:55:31Z</time>
      </trkpt>
      <trkpt lat="47.47095" lon="6.89185">
        <ele>401.3</ele>
        <time>2021-08-10T11:55:32Z</time>
      </trkpt>
      <trkpt lat="47.47094" lon="6.89185">
        <ele>401.4</ele>
        <time>2021-08-10T11:55:34Z</time>
      </trkpt>
      <trkpt lat="47.47092" lon="6.89185">
        <ele>401.5</ele>
        <time>2021-08-10T11:55:35Z</time>
      </trkpt>
      <trkpt lat="47.47091" lon="6.89184">
        <ele>401.6</ele>
        <time>2021-08-10T11:55:36Z</time>
      </trkpt>
      <trkpt lat="47.47089" lon="6.89185">
        <ele>401.7</ele>
        <time>2021-08-10T11:55:38Z</time>
      </trkpt>
      <trkpt lat="47.47088" lon="6.89185">
        <ele>401.8</ele>
        <time>2021-08-10T11:55:39Z</time>
      </trkpt>
      <trkpt lat="47.47087" lon="6.89185">
        <ele>401.8</ele>
        <time>2021-08-10T11:55:40Z</time>
      </trkpt>
      <trkpt lat="47.47087" lon="6.89186">
        <ele>401.9</ele>
        <time>2021-08-10T11:55:41Z</time>
      </trkpt>
      <trkpt lat="47.47086" lon="6.89186">
        <ele>401.9</ele>
        <time>2021-08-10T11:55:43Z</time>
      </trkpt>
      <trkpt lat="47.47085" lon="6.89187">
        <ele>402</ele>
        <time>2021-08-10T11:55:44Z</time>
      </trkpt>
      <trkpt lat="47.47083" lon="6.89187">
        <ele>402.1</ele>
        <time>2021-08-10T11:55:45Z</time>
      </trkpt>
      <trkpt lat="47.47083" lon="6.89187">
        <ele>402.1</ele>
        <time>2021-08-10T11:55:46Z</time>
      </trkpt>
      <trkpt lat="47.47082" lon="6.89187">
        <ele>402.2</ele>
        <time>2021-08-10T11:55:47Z</time>
      </trkpt>
      <trkpt lat="47.47081" lon="6.89187">
        <ele>402.2</ele>
        <time>2021-08-10T11:55:48Z</time>
      </trkpt>
      <trkpt lat="47.4708" lon="6.89187">
        <ele>402.3</ele>
        <time>2021-08-10T11:55:50Z</time>
      </trkpt>
      <trkpt lat="47.47079" lon="6.89187">
        <ele>402.4</ele>
        <time>2021-08-10T11:55:51Z</time>
      </trkpt>
      <trkpt lat="47.47078" lon="6.89186">
        <ele>402.4</ele>
        <time>2021-08-10T11:55:52Z</time>
      </trkpt>
      <trkpt lat="47.47077" lon="6.89186">
        <ele>402.5</ele>
        <time>2021-08-10T11:55:53Z</time>
      </trkpt>
      <trkpt lat="47.47076" lon="6.89184">
        <ele>402.6</ele>
        <time>2021-08-10T11:55:54Z</time>
      </trkpt>
      <trkpt lat="47.47075" lon="6.89184">
        <ele>402.7</ele>
        <time>2021-08-10T11:55:56Z</time>
      </trkpt>
      <trkpt lat="47.47073" lon="6.89184">
        <ele>402.9</ele>
        <time>2021-08-10T11:55:57Z</time>
      </trkpt>
      <trkpt lat="47.47072" lon="6.89184">
        <ele>402.9</ele>
        <time>2021-08-10T11:55:58Z</time>
      </trkpt>
      <trkpt lat="47.47071" lon="6.89185">
        <ele>403</ele>
        <time>2021-08-10T11:55:59Z</time>
      </trkpt>
      <trkpt lat="47.4707" lon="6.89186">
        <ele>403.1</ele>
        <time>2021-08-10T11:56:01Z</time>
      </trkpt>
      <trkpt lat="47.47069" lon="6.89186">
        <ele>403.1</ele>
        <time>2021-08-10T11:56:02Z</time>
      </trkpt>
      <trkpt lat="47.47068" lon="6.89187">
        <ele>403.2</ele>
        <time>2021-08-10T11:56:03Z</time>
      </trkpt>
      <trkpt lat="47.47067" lon="6.89188">
        <ele>403.3</ele>
        <time>2021-08-10T11:56:04Z</time>
      </trkpt>
      <trkpt lat="47.47066" lon="6.89189">
        <ele>403.4</ele>
        <time>2021-08-10T11:56:05Z</time>
      </trkpt>
      <trkpt lat="47.47066" lon="6.89191">
        <ele>403.5</ele>
        <time>2021-08-10T11:56:07Z</time>
      </trkpt>
      <trkpt lat="47.47065" lon="6.89194">
        <ele>403.6</ele>
        <time>2021-08-10T11:56:09Z</time>
      </trkpt>
      <trkpt lat="47.47065" lon="6.89196">
        <ele>403.7</ele>
        <time>2021-08-10T11:56:10Z</time>
      </trkpt>
      <trkpt lat="47.47064" lon="6.89197">
        <ele>403.7</ele>
        <time>2021-08-10T11:56:11Z</time>
      </trkpt>
      <trkpt lat="47.47063" lon="6.89198">
        <ele>403.8</ele>
        <time>2021-08-10T11:56:12Z</time>
      </trkpt>
      <trkpt lat="47.47063" lon="6.89199">
        <ele>403.9</ele>
        <time>2021-08-10T11:56:14Z</time>
      </trkpt>
      <trkpt lat="47.47062" lon="6.892">
        <ele>403.9</ele>
        <time>2021-08-10T11:56:16Z</time>
      </trkpt>
      <trkpt lat="47.47061" lon="6.892">
        <ele>404</ele>
        <time>2021-08-10T11:56:17Z</time>
      </trkpt>
      <trkpt lat="47.47061" lon="6.89201">
        <ele>404</ele>
        <time>2021-08-10T11:56:18Z</time>
      </trkpt>
      <trkpt lat="47.47061" lon="6.89201">
        <ele>404</ele>
        <time>2021-08-10T11:56:19Z</time>
      </trkpt>
      <trkpt lat="47.4706" lon="6.89202">
        <ele>404.1</ele>
        <time>2021-08-10T11:56:21Z</time>
      </trkpt>
      <trkpt lat="47.4706" lon="6.89204">
        <ele>404.1</ele>
        <time>2021-08-10T11:56:22Z</time>
      </trkpt>
      <trkpt lat="47.47059" lon="6.89205">
        <ele>404.2</ele>
        <time>2021-08-10T11:56:23Z</time>
      </trkpt>
      <trkpt lat="47.47058" lon="6.89207">
        <ele>404.3</ele>
        <time>2021-08-10T11:56:24Z</time>
      </trkpt>
      <trkpt lat="47.47058" lon="6.89209">
        <ele>404.3</ele>
        <time>2021-08-10T11:56:25Z</time>
      </trkpt>
      <trkpt lat="47.47057" lon="6.89211">
        <ele>404.4</ele>
        <time>2021-08-10T11:56:27Z</time>
      </trkpt>
      <trkpt lat="47.47056" lon="6.89212">
        <ele>404.5</ele>
        <time>2021-08-10T11:56:28Z</time>
      </trkpt>
      <trkpt lat="47.47053" lon="6.89217">
        <ele>404.7</ele>
        <time>2021-08-10T11:56:30Z</time>
      </trkpt>
      <trkpt lat="47.47051" lon="6.8922">
        <ele>404.8</ele>
        <time>2021-08-10T11:56:31Z</time>
      </trkpt>
      <trkpt lat="47.47051" lon="6.89221">
        <ele>404.9</ele>
        <time>2021-08-10T11:56:32Z</time>
      </trkpt>
      <trkpt lat="47.47048" lon="6.89224">
        <ele>405</ele>
        <time>2021-08-10T11:56:34Z</time>
      </trkpt>
      <trkpt lat="47.47047" lon="6.89226">
        <ele>405.1</ele>
        <time>2021-08-10T11:56:35Z</time>
      </trkpt>
      <trkpt lat="47.47046" lon="6.89227">
        <ele>405.2</ele>
        <time>2021-08-10T11:56:37Z</time>
      </trkpt>
      <trkpt lat="47.47046" lon="6.89229">
        <ele>405.2</ele>
        <time>2021-08-10T11:56:38Z</time>
      </trkpt>
      <trkpt lat="47.47045" lon="6.89231">
        <ele>405.3</ele>
        <time>2021-08-10T11:56:39Z</time>
      </trkpt>
      <trkpt lat="47.47044" lon="6.89233">
        <ele>405.4</ele>
        <time>2021-08-10T11:56:41Z</time>
      </trkpt>
      <trkpt lat="47.47044" lon="6.89234">
        <ele>405.4</ele>
        <time>2021-08-10T11:56:42Z</time>
      </trkpt>
      <trkpt lat="47.47043" lon="6.89235">
        <ele>405.4</ele>
        <time>2021-08-10T11:56:43Z</time>
      </trkpt>
      <trkpt lat="47.47044" lon="6.89236">
        <ele>405.5</ele>
        <time>2021-08-10T11:56:44Z</time>
      </trkpt>
      <trkpt lat="47.47044" lon="6.89237">
        <ele>405.5</ele>
        <time>2021-08-10T11:56:45Z</time>
      </trkpt>
      <trkpt lat="47.47044" lon="6.89238">
        <ele>405.5</ele>
        <time>2021-08-10T11:56:46Z</time>
      </trkpt>
      <trkpt lat="47.47044" lon="6.89239">
        <ele>405.6</ele>
        <time>2021-08-10T11:56:48Z</time>
      </trkpt>
      <trkpt lat="47.47044" lon="6.8924">
        <ele>405.6</ele>
        <time>2021-08-10T11:56:49Z</time>
      </trkpt>
      <trkpt lat="47.47044" lon="6.89241">
        <ele>405.6</ele>
        <time>2021-08-10T11:56:50Z</time>
      </trkpt>
      <trkpt lat="47.47044" lon="6.89242">
        <ele>405.7</ele>
        <time>2021-08-10T11:56:51Z</time>
      </trkpt>
      <trkpt lat="47.47043" lon="6.89243">
        <ele>405.7</ele>
        <time>2021-08-10T11:56:52Z</time>
      </trkpt>
      <trkpt lat="47.47043" lon="6.89245">
        <ele>405.8</ele>
        <time>2021-08-10T11:56:53Z</time>
      </trkpt>
      <trkpt lat="47.47042" lon="6.89247">
        <ele>405.9</ele>
        <time>2021-08-10T11:56:54Z</time>
      </trkpt>
      <trkpt lat="47.47041" lon="6.8925">
        <ele>406</ele>
        <time>2021-08-10T11:56:56Z</time>
      </trkpt>
      <trkpt lat="47.4704" lon="6.89252">
        <ele>406.1</ele>
        <time>2021-08-10T11:56:57Z</time>
      </trkpt>
      <trkpt lat="47.47039" lon="6.89255">
        <ele>406.2</ele>
        <time>2021-08-10T11:56:58Z</time>
      </trkpt>
      <trkpt lat="47.47038" lon="6.89256">
        <ele>406.3</ele>
        <time>2021-08-10T11:56:59Z</time>
      </trkpt>
      <trkpt lat="47.47037" lon="6.89258">
        <ele>406.3</ele>
        <time>2021-08-10T11:57:00Z</time>
      </trkpt>
      <trkpt lat="47.47037" lon="6.89259">
        <ele>406.4</ele>
        <time>2021-08-10T11:57:01Z</time>
      </trkpt>
      <trkpt lat="47.47036" lon="6.8926">
        <ele>406.5</ele>
        <time>2021-08-10T11:57:03Z</time>
      </trkpt>
      <trkpt lat="47.47035" lon="6.89262">
        <ele>406.6</ele>
        <time>2021-08-10T11:57:04Z</time>
      </trkpt>
      <trkpt lat="47.47034" lon="6.89263">
        <ele>406.7</ele>
        <time>2021-08-10T11:57:05Z</time>
      </trkpt>
      <trkpt lat="47.47033" lon="6.89265">
        <ele>406.7</ele>
        <time>2021-08-10T11:57:06Z</time>
      </trkpt>
      <trkpt lat="47.47032" lon="6.89267">
        <ele>406.8</ele>
        <time>2021-08-10T11:57:07Z</time>
      </trkpt>
      <trkpt lat="47.47031" lon="6.89268">
        <ele>406.9</ele>
        <time>2021-08-10T11:57:09Z</time>
      </trkpt>
      <trkpt lat="47.47031" lon="6.8927">
        <ele>407</ele>
        <time>2021-08-10T11:57:10Z</time>
      </trkpt>
      <trkpt lat="47.4703" lon="6.89273">
        <ele>407.1</ele>
        <time>2021-08-10T11:57:12Z</time>
      </trkpt>
      <trkpt lat="47.4703" lon="6.89276">
        <ele>407.3</ele>
        <time>2021-08-10T11:57:13Z</time>
      </trkpt>
      <trkpt lat="47.47029" lon="6.89278">
        <ele>407.3</ele>
        <time>2021-08-10T11:57:14Z</time>
      </trkpt>
      <trkpt lat="47.47029" lon="6.8928">
        <ele>407.4</ele>
        <time>2021-08-10T11:57:16Z</time>
      </trkpt>
      <trkpt lat="47.47029" lon="6.89283">
        <ele>407.5</ele>
        <time>2021-08-10T11:57:17Z</time>
      </trkpt>
      <trkpt lat="47.47029" lon="6.89284">
        <ele>407.6</ele>
        <time>2021-08-10T11:57:19Z</time>
      </trkpt>
      <trkpt lat="47.47029" lon="6.89287">
        <ele>407.7</ele>
        <time>2021-08-10T11:57:20Z</time>
      </trkpt>
      <trkpt lat="47.47028" lon="6.89288">
        <ele>407.8</ele>
        <time>2021-08-10T11:57:22Z</time>
      </trkpt>
      <trkpt lat="47.47027" lon="6.8929">
        <ele>407.9</ele>
        <time>2021-08-10T11:57:24Z</time>
      </trkpt>
      <trkpt lat="47.47027" lon="6.8929">
        <ele>407.9</ele>
        <time>2021-08-10T11:57:25Z</time>
      </trkpt>
      <trkpt lat="47.47026" lon="6.8929">
        <ele>408</ele>
        <time>2021-08-10T11:57:26Z</time>
      </trkpt>
      <trkpt lat="47.47026" lon="6.89291">
        <ele>408</ele>
        <time>2021-08-10T11:57:27Z</time>
      </trkpt>
      <trkpt lat="47.47025" lon="6.89293">
        <ele>408.1</ele>
        <time>2021-08-10T11:57:28Z</time>
      </trkpt>
      <trkpt lat="47.47024" lon="6.89294">
        <ele>408.2</ele>
        <time>2021-08-10T11:57:30Z</time>
      </trkpt>
      <trkpt lat="47.47024" lon="6.89295">
        <ele>408.2</ele>
        <time>2021-08-10T11:57:31Z</time>
      </trkpt>
      <trkpt lat="47.47022" lon="6.89298">
        <ele>408.4</ele>
        <time>2021-08-10T11:57:32Z</time>
      </trkpt>
      <trkpt lat="47.47021" lon="6.89301">
        <ele>408.5</ele>
        <time>2021-08-10T11:57:34Z</time>
      </trkpt>
      <trkpt lat="47.47019" lon="6.89306">
        <ele>408.8</ele>
        <time>2021-08-10T11:57:36Z</time>
      </trkpt>
      <trkpt lat="47.47018" lon="6.89308">
        <ele>408.9</ele>
        <time>2021-08-10T11:57:37Z</time>
      </trkpt>
      <trkpt lat="47.47016" lon="6.89312">
        <ele>409.1</ele>
        <time>2021-08-10T11:57:39Z</time>
      </trkpt>
      <trkpt lat="47.47016" lon="6.89314">
        <ele>409.2</ele>
        <time>2021-08-10T11:57:40Z</time>
      </trkpt>
      <trkpt lat="47.47015" lon="6.89316">
        <ele>409.3</ele>
        <time>2021-08-10T11:57:41Z</time>
      </trkpt>
      <trkpt lat="47.47015" lon="6.89319">
        <ele>409.5</ele>
        <time>2021-08-10T11:57:42Z</time>
      </trkpt>
      <trkpt lat="47.47014" lon="6.89321">
        <ele>409.5</ele>
        <time>2021-08-10T11:57:43Z</time>
      </trkpt>
      <trkpt lat="47.47014" lon="6.89323">
        <ele>409.7</ele>
        <time>2021-08-10T11:57:45Z</time>
      </trkpt>
      <trkpt lat="47.47014" lon="6.89326">
        <ele>409.8</ele>
        <time>2021-08-10T11:57:46Z</time>
      </trkpt>
      <trkpt lat="47.47013" lon="6.89328">
        <ele>409.9</ele>
        <time>2021-08-10T11:57:48Z</time>
      </trkpt>
      <trkpt lat="47.47013" lon="6.8933">
        <ele>410</ele>
        <time>2021-08-10T11:57:49Z</time>
      </trkpt>
      <trkpt lat="47.47012" lon="6.89331">
        <ele>410.1</ele>
        <time>2021-08-10T11:57:50Z</time>
      </trkpt>
      <trkpt lat="47.47012" lon="6.89333">
        <ele>410.1</ele>
        <time>2021-08-10T11:57:51Z</time>
      </trkpt>
      <trkpt lat="47.47012" lon="6.89334">
        <ele>410.2</ele>
        <time>2021-08-10T11:57:53Z</time>
      </trkpt>
      <trkpt lat="47.47012" lon="6.89336">
        <ele>410.3</ele>
        <time>2021-08-10T11:57:54Z</time>
      </trkpt>
      <trkpt lat="47.47011" lon="6.89338">
        <ele>410.4</ele>
        <time>2021-08-10T11:57:56Z</time>
      </trkpt>
      <trkpt lat="47.47011" lon="6.89339">
        <ele>410.5</ele>
        <time>2021-08-10T11:57:57Z</time>
      </trkpt>
      <trkpt lat="47.47011" lon="6.89341">
        <ele>410.6</ele>
        <time>2021-08-10T11:57:58Z</time>
      </trkpt>
      <trkpt lat="47.4701" lon="6.89343">
        <ele>410.7</ele>
        <time>2021-08-10T11:57:59Z</time>
      </trkpt>
      <trkpt lat="47.47008" lon="6.89345">
        <ele>410.8</ele>
        <time>2021-08-10T11:58:01Z</time>
      </trkpt>
      <trkpt lat="47.47007" lon="6.89346">
        <ele>410.9</ele>
        <time>2021-08-10T11:58:03Z</time>
      </trkpt>
      <trkpt lat="47.47007" lon="6.89346">
        <ele>410.9</ele>
        <time>2021-08-10T11:58:04Z</time>
      </trkpt>
      <trkpt lat="47.47006" lon="6.89346">
        <ele>411</ele>
        <time>2021-08-10T11:58:05Z</time>
      </trkpt>
      <trkpt lat="47.47006" lon="6.89347">
        <ele>411</ele>
        <time>2021-08-10T11:58:06Z</time>
      </trkpt>
      <trkpt lat="47.47006" lon="6.89348">
        <ele>411.1</ele>
        <time>2021-08-10T11:58:08Z</time>
      </trkpt>
      <trkpt lat="47.47005" lon="6.8935">
        <ele>411.2</ele>
        <time>2021-08-10T11:58:09Z</time>
      </trkpt>
      <trkpt lat="47.47005" lon="6.89351">
        <ele>411.2</ele>
        <time>2021-08-10T11:58:10Z</time>
      </trkpt>
      <trkpt lat="47.47005" lon="6.89352">
        <ele>411.3</ele>
        <time>2021-08-10T11:58:11Z</time>
      </trkpt>
      <trkpt lat="47.47004" lon="6.89356">
        <ele>411.5</ele>
        <time>2021-08-10T11:58:13Z</time>
      </trkpt>
      <trkpt lat="47.47004" lon="6.89359">
        <ele>411.6</ele>
        <time>2021-08-10T11:58:14Z</time>
      </trkpt>
      <trkpt lat="47.47003" lon="6.89361">
        <ele>411.7</ele>
        <time>2021-08-10T11:58:15Z</time>
      </trkpt>
      <trkpt lat="47.47003" lon="6.89362">
        <ele>411.8</ele>
        <time>2021-08-10T11:58:17Z</time>
      </trkpt>
      <trkpt lat="47.47002" lon="6.89368">
        <ele>412.1</ele>
        <time>2021-08-10T11:58:19Z</time>
      </trkpt>
      <trkpt lat="47.47001" lon="6.89372">
        <ele>412.4</ele>
        <time>2021-08-10T11:58:20Z</time>
      </trkpt>
      <trkpt lat="47.47001" lon="6.89374">
        <ele>412.4</ele>
        <time>2021-08-10T11:58:21Z</time>
      </trkpt>
      <trkpt lat="47.47001" lon="6.89376">
        <ele>412.6</ele>
        <time>2021-08-10T11:58:22Z</time>
      </trkpt>
      <trkpt lat="47.47" lon="6.89379">
        <ele>412.7</ele>
        <time>2021-08-10T11:58:24Z</time>
      </trkpt>
      <trkpt lat="47.47" lon="6.89382">
        <ele>412.9</ele>
        <time>2021-08-10T11:58:25Z</time>
      </trkpt>
      <trkpt lat="47.46999" lon="6.89384">
        <ele>413</ele>
        <time>2021-08-10T11:58:26Z</time>
      </trkpt>
      <trkpt lat="47.46999" lon="6.89386">
        <ele>413.1</ele>
        <time>2021-08-10T11:58:27Z</time>
      </trkpt>
      <trkpt lat="47.46998" lon="6.89388">
        <ele>413.3</ele>
        <time>2021-08-10T11:58:28Z</time>
      </trkpt>
      <trkpt lat="47.46997" lon="6.89392">
        <ele>413.5</ele>
        <time>2021-08-10T11:58:30Z</time>
      </trkpt>
      <trkpt lat="47.46997" lon="6.89394">
        <ele>413.6</ele>
        <time>2021-08-10T11:58:31Z</time>
      </trkpt>
      <trkpt lat="47.46995" lon="6.89398">
        <ele>413.8</ele>
        <time>2021-08-10T11:58:33Z</time>
      </trkpt>
      <trkpt lat="47.46995" lon="6.89399">
        <ele>413.9</ele>
        <time>2021-08-10T11:58:34Z</time>
      </trkpt>
      <trkpt lat="47.46994" lon="6.894">
        <ele>414</ele>
        <time>2021-08-10T11:58:35Z</time>
      </trkpt>
      <trkpt lat="47.46994" lon="6.89403">
        <ele>414.1</ele>
        <time>2021-08-10T11:58:37Z</time>
      </trkpt>
      <trkpt lat="47.46993" lon="6.89406">
        <ele>414.3</ele>
        <time>2021-08-10T11:58:38Z</time>
      </trkpt>
      <trkpt lat="47.46993" lon="6.89408">
        <ele>414.4</ele>
        <time>2021-08-10T11:58:39Z</time>
      </trkpt>
      <trkpt lat="47.46994" lon="6.8941">
        <ele>414.5</ele>
        <time>2021-08-10T11:58:41Z</time>
      </trkpt>
      <trkpt lat="47.46994" lon="6.89412">
        <ele>414.6</ele>
        <time>2021-08-10T11:58:42Z</time>
      </trkpt>
      <trkpt lat="47.46993" lon="6.89416">
        <ele>414.8</ele>
        <time>2021-08-10T11:58:44Z</time>
      </trkpt>
      <trkpt lat="47.46993" lon="6.89418">
        <ele>414.9</ele>
        <time>2021-08-10T11:58:46Z</time>
      </trkpt>
      <trkpt lat="47.46993" lon="6.89419">
        <ele>415</ele>
        <time>2021-08-10T11:58:47Z</time>
      </trkpt>
      <trkpt lat="47.46993" lon="6.89421">
        <ele>415.1</ele>
        <time>2021-08-10T11:58:48Z</time>
      </trkpt>
      <trkpt lat="47.46993" lon="6.89423">
        <ele>415.2</ele>
        <time>2021-08-10T11:58:49Z</time>
      </trkpt>
      <trkpt lat="47.46993" lon="6.89424">
        <ele>415.3</ele>
        <time>2021-08-10T11:58:51Z</time>
      </trkpt>
      <trkpt lat="47.46993" lon="6.89425">
        <ele>415.3</ele>
        <time>2021-08-10T11:58:52Z</time>
      </trkpt>
      <trkpt lat="47.46993" lon="6.89426">
        <ele>415.4</ele>
        <time>2021-08-10T11:58:53Z</time>
      </trkpt>
      <trkpt lat="47.46993" lon="6.89427">
        <ele>415.4</ele>
        <time>2021-08-10T11:58:55Z</time>
      </trkpt>
      <trkpt lat="47.46993" lon="6.89428">
        <ele>415.5</ele>
        <time>2021-08-10T11:58:56Z</time>
      </trkpt>
      <trkpt lat="47.46993" lon="6.89428">
        <ele>415.5</ele>
        <time>2021-08-10T11:58:57Z</time>
      </trkpt>
      <trkpt lat="47.46993" lon="6.89429">
        <ele>415.5</ele>
        <time>2021-08-10T11:58:58Z</time>
      </trkpt>
      <trkpt lat="47.46993" lon="6.89429">
        <ele>415.5</ele>
        <time>2021-08-10T11:58:59Z</time>
      </trkpt>
      <trkpt lat="47.46992" lon="6.89431">
        <ele>415.6</ele>
        <time>2021-08-10T11:59:00Z</time>
      </trkpt>
      <trkpt lat="47.46992" lon="6.89432">
        <ele>415.7</ele>
        <time>2021-08-10T11:59:02Z</time>
      </trkpt>
      <trkpt lat="47.46992" lon="6.89433">
        <ele>415.7</ele>
        <time>2021-08-10T11:59:03Z</time>
      </trkpt>
      <trkpt lat="47.46991" lon="6.89435">
        <ele>415.8</ele>
        <time>2021-08-10T11:59:04Z</time>
      </trkpt>
      <trkpt lat="47.46991" lon="6.89436">
        <ele>415.9</ele>
        <time>2021-08-10T11:59:05Z</time>
      </trkpt>
      <trkpt lat="47.4699" lon="6.89437">
        <ele>415.9</ele>
        <time>2021-08-10T11:59:06Z</time>
      </trkpt>
      <trkpt lat="47.46984" lon="6.89441">
        <ele>416.4</ele>
        <time>2021-08-10T11:59:07Z</time>
      </trkpt>
      <trkpt lat="47.46978" lon="6.89444">
        <ele>416.8</ele>
        <time>2021-08-10T11:59:09Z</time>
      </trkpt>
      <trkpt lat="47.46972" lon="6.89447">
        <ele>417.2</ele>
        <time>2021-08-10T11:59:27Z</time>
      </trkpt>
      <trkpt lat="47.46967" lon="6.8945">
        <ele>417.5</ele>
        <time>2021-08-10T11:59:28Z</time>
      </trkpt>
      <trkpt lat="47.46961" lon="6.89453">
        <ele>417.9</ele>
        <time>2021-08-10T11:59:29Z</time>
      </trkpt>
      <trkpt lat="47.46957" lon="6.89456">
        <ele>418.1</ele>
        <time>2021-08-10T11:59:31Z</time>
      </trkpt>
      <trkpt lat="47.46954" lon="6.89458">
        <ele>418.3</ele>
        <time>2021-08-10T11:59:32Z</time>
      </trkpt>
      <trkpt lat="47.46953" lon="6.89458">
        <ele>418.4</ele>
        <time>2021-08-10T11:59:33Z</time>
      </trkpt>
      <trkpt lat="47.46952" lon="6.8946">
        <ele>418.5</ele>
        <time>2021-08-10T11:59:34Z</time>
      </trkpt>
      <trkpt lat="47.46951" lon="6.89462">
        <ele>418.6</ele>
        <time>2021-08-10T11:59:35Z</time>
      </trkpt>
      <trkpt lat="47.4695" lon="6.89463">
        <ele>418.7</ele>
        <time>2021-08-10T11:59:37Z</time>
      </trkpt>
      <trkpt lat="47.46949" lon="6.89465">
        <ele>418.8</ele>
        <time>2021-08-10T11:59:38Z</time>
      </trkpt>
      <trkpt lat="47.46947" lon="6.89467">
        <ele>419</ele>
        <time>2021-08-10T11:59:39Z</time>
      </trkpt>
      <trkpt lat="47.46945" lon="6.89468">
        <ele>419.1</ele>
        <time>2021-08-10T11:59:41Z</time>
      </trkpt>
      <trkpt lat="47.46944" lon="6.89469">
        <ele>419.2</ele>
        <time>2021-08-10T11:59:43Z</time>
      </trkpt>
      <trkpt lat="47.46943" lon="6.8947">
        <ele>419.3</ele>
        <time>2021-08-10T11:59:44Z</time>
      </trkpt>
      <trkpt lat="47.46941" lon="6.89471">
        <ele>419.4</ele>
        <time>2021-08-10T11:59:45Z</time>
      </trkpt>
      <trkpt lat="47.46941" lon="6.89471">
        <ele>419.4</ele>
        <time>2021-08-10T11:59:46Z</time>
      </trkpt>
      <trkpt lat="47.46939" lon="6.89471">
        <ele>419.5</ele>
        <time>2021-08-10T11:59:47Z</time>
      </trkpt>
      <trkpt lat="47.46938" lon="6.89472">
        <ele>419.6</ele>
        <time>2021-08-10T11:59:48Z</time>
      </trkpt>
      <trkpt lat="47.46937" lon="6.89472">
        <ele>419.8</ele>
        <time>2021-08-10T11:59:49Z</time>
      </trkpt>
      <trkpt lat="47.46935" lon="6.89473">
        <ele>419.8</ele>
        <time>2021-08-10T11:59:50Z</time>
      </trkpt>
      <trkpt lat="47.46934" lon="6.89473">
        <ele>420</ele>
        <time>2021-08-10T11:59:52Z</time>
      </trkpt>
      <trkpt lat="47.46933" lon="6.89474">
        <ele>420</ele>
        <time>2021-08-10T11:59:53Z</time>
      </trkpt>
      <trkpt lat="47.46932" lon="6.89474">
        <ele>420.1</ele>
        <time>2021-08-10T11:59:54Z</time>
      </trkpt>
      <trkpt lat="47.4693" lon="6.89475">
        <ele>420.3</ele>
        <time>2021-08-10T11:59:56Z</time>
      </trkpt>
      <trkpt lat="47.46927" lon="6.89477">
        <ele>420.5</ele>
        <time>2021-08-10T11:59:58Z</time>
      </trkpt>
      <trkpt lat="47.46926" lon="6.89478">
        <ele>420.6</ele>
        <time>2021-08-10T11:59:59Z</time>
      </trkpt>
      <trkpt lat="47.46925" lon="6.89478">
        <ele>420.7</ele>
        <time>2021-08-10T12:00:00Z</time>
      </trkpt>
      <trkpt lat="47.46924" lon="6.89479">
        <ele>420.8</ele>
        <time>2021-08-10T12:00:02Z</time>
      </trkpt>
      <trkpt lat="47.46923" lon="6.89479">
        <ele>420.9</ele>
        <time>2021-08-10T12:00:03Z</time>
      </trkpt>
      <trkpt lat="47.46921" lon="6.89479">
        <ele>421</ele>
        <time>2021-08-10T12:00:04Z</time>
      </trkpt>
      <trkpt lat="47.46921" lon="6.89479">
        <ele>421.1</ele>
        <time>2021-08-10T12:00:05Z</time>
      </trkpt>
      <trkpt lat="47.46919" lon="6.89478">
        <ele>421.2</ele>
        <time>2021-08-10T12:00:06Z</time>
      </trkpt>
      <trkpt lat="47.46918" lon="6.89478">
        <ele>421.3</ele>
        <time>2021-08-10T12:00:08Z</time>
      </trkpt>
      <trkpt lat="47.46916" lon="6.89478">
        <ele>421.5</ele>
        <time>2021-08-10T12:00:10Z</time>
      </trkpt>
      <trkpt lat="47.46914" lon="6.89478">
        <ele>421.7</ele>
        <time>2021-08-10T12:00:11Z</time>
      </trkpt>
      <trkpt lat="47.46912" lon="6.89478">
        <ele>421.8</ele>
        <time>2021-08-10T12:00:12Z</time>
      </trkpt>
      <trkpt lat="47.46911" lon="6.89477">
        <ele>421.9</ele>
        <time>2021-08-10T12:00:13Z</time>
      </trkpt>
      <trkpt lat="47.46908" lon="6.89477">
        <ele>422.1</ele>
        <time>2021-08-10T12:00:15Z</time>
      </trkpt>
      <trkpt lat="47.46907" lon="6.89476">
        <ele>422.2</ele>
        <time>2021-08-10T12:00:16Z</time>
      </trkpt>
      <trkpt lat="47.46906" lon="6.89477">
        <ele>422.3</ele>
        <time>2021-08-10T12:00:18Z</time>
      </trkpt>
      <trkpt lat="47.46904" lon="6.89477">
        <ele>422.4</ele>
        <time>2021-08-10T12:00:19Z</time>
      </trkpt>
      <trkpt lat="47.46902" lon="6.89479">
        <ele>422.6</ele>
        <time>2021-08-10T12:00:20Z</time>
      </trkpt>
      <trkpt lat="47.46901" lon="6.89479">
        <ele>422.6</ele>
        <time>2021-08-10T12:00:21Z</time>
      </trkpt>
      <trkpt lat="47.46899" lon="6.8948">
        <ele>422.7</ele>
        <time>2021-08-10T12:00:22Z</time>
      </trkpt>
      <trkpt lat="47.46898" lon="6.89481">
        <ele>422.8</ele>
        <time>2021-08-10T12:00:23Z</time>
      </trkpt>
      <trkpt lat="47.46897" lon="6.89482">
        <ele>422.9</ele>
        <time>2021-08-10T12:00:25Z</time>
      </trkpt>
      <trkpt lat="47.46895" lon="6.89483">
        <ele>423</ele>
        <time>2021-08-10T12:00:26Z</time>
      </trkpt>
      <trkpt lat="47.46892" lon="6.89484">
        <ele>423.2</ele>
        <time>2021-08-10T12:00:27Z</time>
      </trkpt>
      <trkpt lat="47.4689" lon="6.89484">
        <ele>423.3</ele>
        <time>2021-08-10T12:00:28Z</time>
      </trkpt>
      <trkpt lat="47.46889" lon="6.89484">
        <ele>423.4</ele>
        <time>2021-08-10T12:00:30Z</time>
      </trkpt>
      <trkpt lat="47.46888" lon="6.89484">
        <ele>423.4</ele>
        <time>2021-08-10T12:00:31Z</time>
      </trkpt>
      <trkpt lat="47.46886" lon="6.89485">
        <ele>423.5</ele>
        <time>2021-08-10T12:00:32Z</time>
      </trkpt>
      <trkpt lat="47.46885" lon="6.89485">
        <ele>423.6</ele>
        <time>2021-08-10T12:00:33Z</time>
      </trkpt>
      <trkpt lat="47.46883" lon="6.89485">
        <ele>423.7</ele>
        <time>2021-08-10T12:00:35Z</time>
      </trkpt>
      <trkpt lat="47.46882" lon="6.89485">
        <ele>423.8</ele>
        <time>2021-08-10T12:00:36Z</time>
      </trkpt>
      <trkpt lat="47.4688" lon="6.89484">
        <ele>423.9</ele>
        <time>2021-08-10T12:00:38Z</time>
      </trkpt>
      <trkpt lat="47.46879" lon="6.89483">
        <ele>423.9</ele>
        <time>2021-08-10T12:00:39Z</time>
      </trkpt>
      <trkpt lat="47.46878" lon="6.8948">
        <ele>424.2</ele>
        <time>2021-08-10T12:00:40Z</time>
      </trkpt>
      <trkpt lat="47.46877" lon="6.89479">
        <ele>424.2</ele>
        <time>2021-08-10T12:00:42Z</time>
      </trkpt>
      <trkpt lat="47.46876" lon="6.89478">
        <ele>424.2</ele>
        <time>2021-08-10T12:00:44Z</time>
      </trkpt>
      <trkpt lat="47.46876" lon="6.89478">
        <ele>424.2</ele>
        <time>2021-08-10T12:00:45Z</time>
      </trkpt>
      <trkpt lat="47.46876" lon="6.89478">
        <ele>424.2</ele>
        <time>2021-08-10T12:00:47Z</time>
      </trkpt>
      <trkpt lat="47.46876" lon="6.89479">
        <ele>424.2</ele>
        <time>2021-08-10T12:00:49Z</time>
      </trkpt>
      <trkpt lat="47.46876" lon="6.89479">
        <ele>424.2</ele>
        <time>2021-08-10T12:00:50Z</time>
      </trkpt>
      <trkpt lat="47.46876" lon="6.8948">
        <ele>424.3</ele>
        <time>2021-08-10T12:00:51Z</time>
      </trkpt>
      <trkpt lat="47.46875" lon="6.89481">
        <ele>424.3</ele>
        <time>2021-08-10T12:00:53Z</time>
      </trkpt>
      <trkpt lat="47.46875" lon="6.89482">
        <ele>424.3</ele>
        <time>2021-08-10T12:00:55Z</time>
      </trkpt>
      <trkpt lat="47.46875" lon="6.89483">
        <ele>424.3</ele>
        <time>2021-08-10T12:00:56Z</time>
      </trkpt>
      <trkpt lat="47.46874" lon="6.89485">
        <ele>424.3</ele>
        <time>2021-08-10T12:00:57Z</time>
      </trkpt>
      <trkpt lat="47.46874" lon="6.89486">
        <ele>424.3</ele>
        <time>2021-08-10T12:00:59Z</time>
      </trkpt>
      <trkpt lat="47.46876" lon="6.89529">
        <ele>424.1</ele>
        <time>2021-08-10T12:01:19Z</time>
      </trkpt>
      <trkpt lat="47.46876" lon="6.89535">
        <ele>424.1</ele>
        <time>2021-08-10T12:01:20Z</time>
      </trkpt>
      <trkpt lat="47.46878" lon="6.89547">
        <ele>424</ele>
        <time>2021-08-10T12:01:21Z</time>
      </trkpt>
      <trkpt lat="47.46879" lon="6.89555">
        <ele>424</ele>
        <time>2021-08-10T12:01:23Z</time>
      </trkpt>
      <trkpt lat="47.4688" lon="6.89563">
        <ele>424</ele>
        <time>2021-08-10T12:01:24Z</time>
      </trkpt>
      <trkpt lat="47.4688" lon="6.89568">
        <ele>424</ele>
        <time>2021-08-10T12:01:25Z</time>
      </trkpt>
      <trkpt lat="47.46881" lon="6.89578">
        <ele>423.9</ele>
        <time>2021-08-10T12:01:27Z</time>
      </trkpt>
      <trkpt lat="47.46881" lon="6.89584">
        <ele>423.9</ele>
        <time>2021-08-10T12:01:28Z</time>
      </trkpt>
      <trkpt lat="47.46882" lon="6.89589">
        <ele>423.9</ele>
        <time>2021-08-10T12:01:29Z</time>
      </trkpt>
      <trkpt lat="47.46883" lon="6.896">
        <ele>423.9</ele>
        <time>2021-08-10T12:01:31Z</time>
      </trkpt>
      <trkpt lat="47.46884" lon="6.89607">
        <ele>424</ele>
        <time>2021-08-10T12:01:32Z</time>
      </trkpt>
      <trkpt lat="47.46884" lon="6.89616">
        <ele>424</ele>
        <time>2021-08-10T12:01:34Z</time>
      </trkpt>
      <trkpt lat="47.46884" lon="6.89621">
        <ele>424</ele>
        <time>2021-08-10T12:01:35Z</time>
      </trkpt>
      <trkpt lat="47.46885" lon="6.89627">
        <ele>424</ele>
        <time>2021-08-10T12:01:36Z</time>
      </trkpt>
      <trkpt lat="47.46885" lon="6.89634">
        <ele>424.1</ele>
        <time>2021-08-10T12:01:37Z</time>
      </trkpt>
      <trkpt lat="47.46886" lon="6.8964">
        <ele>424.1</ele>
        <time>2021-08-10T12:01:38Z</time>
      </trkpt>
      <trkpt lat="47.46886" lon="6.89646">
        <ele>424.1</ele>
        <time>2021-08-10T12:01:39Z</time>
      </trkpt>
      <trkpt lat="47.46886" lon="6.89651">
        <ele>424.2</ele>
        <time>2021-08-10T12:01:40Z</time>
      </trkpt>
      <trkpt lat="47.46886" lon="6.89656">
        <ele>424.2</ele>
        <time>2021-08-10T12:01:41Z</time>
      </trkpt>
      <trkpt lat="47.46886" lon="6.89661">
        <ele>424.3</ele>
        <time>2021-08-10T12:01:42Z</time>
      </trkpt>
      <trkpt lat="47.46886" lon="6.89666">
        <ele>424.3</ele>
        <time>2021-08-10T12:01:43Z</time>
      </trkpt>
      <trkpt lat="47.46887" lon="6.89672">
        <ele>424.3</ele>
        <time>2021-08-10T12:01:44Z</time>
      </trkpt>
      <trkpt lat="47.46888" lon="6.89677">
        <ele>424.4</ele>
        <time>2021-08-10T12:01:45Z</time>
      </trkpt>
      <trkpt lat="47.46889" lon="6.89682">
        <ele>424.4</ele>
        <time>2021-08-10T12:01:46Z</time>
      </trkpt>
      <trkpt lat="47.46891" lon="6.8969">
        <ele>424.5</ele>
        <time>2021-08-10T12:01:48Z</time>
      </trkpt>
      <trkpt lat="47.46892" lon="6.89695">
        <ele>424.5</ele>
        <time>2021-08-10T12:01:49Z</time>
      </trkpt>
      <trkpt lat="47.46893" lon="6.89703">
        <ele>424.6</ele>
        <time>2021-08-10T12:01:50Z</time>
      </trkpt>
      <trkpt lat="47.46894" lon="6.8971">
        <ele>424.7</ele>
        <time>2021-08-10T12:01:52Z</time>
      </trkpt>
      <trkpt lat="47.46894" lon="6.89715">
        <ele>424.8</ele>
        <time>2021-08-10T12:01:53Z</time>
      </trkpt>
      <trkpt lat="47.46895" lon="6.89721">
        <ele>424.9</ele>
        <time>2021-08-10T12:01:54Z</time>
      </trkpt>
      <trkpt lat="47.46895" lon="6.89726">
        <ele>424.9</ele>
        <time>2021-08-10T12:01:55Z</time>
      </trkpt>
      <trkpt lat="47.46895" lon="6.89731">
        <ele>425</ele>
        <time>2021-08-10T12:01:56Z</time>
      </trkpt>
      <trkpt lat="47.46895" lon="6.89738">
        <ele>425.1</ele>
        <time>2021-08-10T12:01:58Z</time>
      </trkpt>
      <trkpt lat="47.46895" lon="6.89747">
        <ele>425.3</ele>
        <time>2021-08-10T12:02:00Z</time>
      </trkpt>
      <trkpt lat="47.46894" lon="6.89754">
        <ele>425.4</ele>
        <time>2021-08-10T12:02:01Z</time>
      </trkpt>
      <trkpt lat="47.46894" lon="6.89757">
        <ele>425.4</ele>
        <time>2021-08-10T12:02:02Z</time>
      </trkpt>
      <trkpt lat="47.46895" lon="6.89763">
        <ele>425.5</ele>
        <time>2021-08-10T12:02:04Z</time>
      </trkpt>
      <trkpt lat="47.46895" lon="6.89768">
        <ele>425.6</ele>
        <time>2021-08-10T12:02:05Z</time>
      </trkpt>
      <trkpt lat="47.46895" lon="6.8977">
        <ele>425.6</ele>
        <time>2021-08-10T12:02:06Z</time>
      </trkpt>
      <trkpt lat="47.46894" lon="6.89778">
        <ele>425.8</ele>
        <time>2021-08-10T12:02:08Z</time>
      </trkpt>
      <trkpt lat="47.46894" lon="6.89786">
        <ele>425.9</ele>
        <time>2021-08-10T12:02:10Z</time>
      </trkpt>
      <trkpt lat="47.46894" lon="6.8979">
        <ele>426</ele>
        <time>2021-08-10T12:02:11Z</time>
      </trkpt>
      <trkpt lat="47.46894" lon="6.89797">
        <ele>426.1</ele>
        <time>2021-08-10T12:02:13Z</time>
      </trkpt>
      <trkpt lat="47.46893" lon="6.89802">
        <ele>426.2</ele>
        <time>2021-08-10T12:02:14Z</time>
      </trkpt>
      <trkpt lat="47.46894" lon="6.89806">
        <ele>426.2</ele>
        <time>2021-08-10T12:02:16Z</time>
      </trkpt>
      <trkpt lat="47.46894" lon="6.89809">
        <ele>426.3</ele>
        <time>2021-08-10T12:02:17Z</time>
      </trkpt>
      <trkpt lat="47.46895" lon="6.89811">
        <ele>426.3</ele>
        <time>2021-08-10T12:02:19Z</time>
      </trkpt>
      <trkpt lat="47.46895" lon="6.89813">
        <ele>426.3</ele>
        <time>2021-08-10T12:02:21Z</time>
      </trkpt>
      <trkpt lat="47.46895" lon="6.89813">
        <ele>426.3</ele>
        <time>2021-08-10T12:02:22Z</time>
      </trkpt>
      <trkpt lat="47.46893" lon="6.8981">
        <ele>426.4</ele>
        <time>2021-08-10T12:02:23Z</time>
      </trkpt>
      <trkpt lat="47.46894" lon="6.8981">
        <ele>426.4</ele>
        <time>2021-08-10T12:02:25Z</time>
      </trkpt>
      <trkpt lat="47.46893" lon="6.8981">
        <ele>426.4</ele>
        <time>2021-08-10T12:02:27Z</time>
      </trkpt>
      <trkpt lat="47.46893" lon="6.89809">
        <ele>426.4</ele>
        <time>2021-08-10T12:02:28Z</time>
      </trkpt>
      <trkpt lat="47.46893" lon="6.89809">
        <ele>426.4</ele>
        <time>2021-08-10T12:02:30Z</time>
      </trkpt>
      <trkpt lat="47.46892" lon="6.89809">
        <ele>426.4</ele>
        <time>2021-08-10T12:02:31Z</time>
      </trkpt>
      <trkpt lat="47.46893" lon="6.89809">
        <ele>426.4</ele>
        <time>2021-08-10T12:02:33Z</time>
      </trkpt>
      <trkpt lat="47.46893" lon="6.89809">
        <ele>426.4</ele>
        <time>2021-08-10T12:02:35Z</time>
      </trkpt>
      <trkpt lat="47.46886" lon="6.89822">
        <ele>426.5</ele>
        <time>2021-08-10T12:03:22Z</time>
      </trkpt>
      <trkpt lat="47.46886" lon="6.89827">
        <ele>426.5</ele>
        <time>2021-08-10T12:03:23Z</time>
      </trkpt>
      <trkpt lat="47.46885" lon="6.89841">
        <ele>426.5</ele>
        <time>2021-08-10T12:03:25Z</time>
      </trkpt>
      <trkpt lat="47.46884" lon="6.89847">
        <ele>426.5</ele>
        <time>2021-08-10T12:03:26Z</time>
      </trkpt>
      <trkpt lat="47.46883" lon="6.89858">
        <ele>426.5</ele>
        <time>2021-08-10T12:03:27Z</time>
      </trkpt>
      <trkpt lat="47.46881" lon="6.89865">
        <ele>426.7</ele>
        <time>2021-08-10T12:03:29Z</time>
      </trkpt>
      <trkpt lat="47.4688" lon="6.89868">
        <ele>426.7</ele>
        <time>2021-08-10T12:03:30Z</time>
      </trkpt>
      <trkpt lat="47.46877" lon="6.89871">
        <ele>426.8</ele>
        <time>2021-08-10T12:03:32Z</time>
      </trkpt>
      <trkpt lat="47.46876" lon="6.89873">
        <ele>426.8</ele>
        <time>2021-08-10T12:03:33Z</time>
      </trkpt>
      <trkpt lat="47.46875" lon="6.89875">
        <ele>426.8</ele>
        <time>2021-08-10T12:03:34Z</time>
      </trkpt>
      <trkpt lat="47.46874" lon="6.89877">
        <ele>426.9</ele>
        <time>2021-08-10T12:03:35Z</time>
      </trkpt>
      <trkpt lat="47.46873" lon="6.8988">
        <ele>426.9</ele>
        <time>2021-08-10T12:03:37Z</time>
      </trkpt>
      <trkpt lat="47.46872" lon="6.89885">
        <ele>427</ele>
        <time>2021-08-10T12:03:39Z</time>
      </trkpt>
      <trkpt lat="47.4687" lon="6.89889">
        <ele>427</ele>
        <time>2021-08-10T12:03:40Z</time>
      </trkpt>
      <trkpt lat="47.46869" lon="6.8989">
        <ele>427</ele>
        <time>2021-08-10T12:03:41Z</time>
      </trkpt>
      <trkpt lat="47.46865" lon="6.89895">
        <ele>427</ele>
        <time>2021-08-10T12:03:43Z</time>
      </trkpt>
      <trkpt lat="47.46861" lon="6.89902">
        <ele>426.9</ele>
        <time>2021-08-10T12:03:44Z</time>
      </trkpt>
      <trkpt lat="47.46858" lon="6.89907">
        <ele>426.9</ele>
        <time>2021-08-10T12:03:46Z</time>
      </trkpt>
      <trkpt lat="47.46855" lon="6.89913">
        <ele>426.8</ele>
        <time>2021-08-10T12:03:47Z</time>
      </trkpt>
      <trkpt lat="47.46853" lon="6.89919">
        <ele>426.8</ele>
        <time>2021-08-10T12:03:48Z</time>
      </trkpt>
      <trkpt lat="47.4685" lon="6.89926">
        <ele>426.7</ele>
        <time>2021-08-10T12:03:50Z</time>
      </trkpt>
      <trkpt lat="47.46847" lon="6.89932">
        <ele>426.6</ele>
        <time>2021-08-10T12:03:51Z</time>
      </trkpt>
      <trkpt lat="47.46845" lon="6.89937">
        <ele>426.5</ele>
        <time>2021-08-10T12:03:52Z</time>
      </trkpt>
      <trkpt lat="47.46842" lon="6.89943">
        <ele>426.4</ele>
        <time>2021-08-10T12:03:54Z</time>
      </trkpt>
      <trkpt lat="47.4684" lon="6.89948">
        <ele>426.3</ele>
        <time>2021-08-10T12:03:55Z</time>
      </trkpt>
      <trkpt lat="47.46837" lon="6.89952">
        <ele>426.2</ele>
        <time>2021-08-10T12:03:56Z</time>
      </trkpt>
      <trkpt lat="47.46831" lon="6.8996">
        <ele>426.1</ele>
        <time>2021-08-10T12:03:58Z</time>
      </trkpt>
      <trkpt lat="47.46829" lon="6.89965">
        <ele>425.9</ele>
        <time>2021-08-10T12:03:59Z</time>
      </trkpt>
      <trkpt lat="47.46824" lon="6.89973">
        <ele>425.7</ele>
        <time>2021-08-10T12:04:00Z</time>
      </trkpt>
      <trkpt lat="47.46819" lon="6.8998">
        <ele>425.4</ele>
        <time>2021-08-10T12:04:02Z</time>
      </trkpt>
      <trkpt lat="47.46813" lon="6.89989">
        <ele>425.1</ele>
        <time>2021-08-10T12:04:03Z</time>
      </trkpt>
      <trkpt lat="47.46808" lon="6.89995">
        <ele>424.8</ele>
        <time>2021-08-10T12:04:05Z</time>
      </trkpt>
      <trkpt lat="47.46802" lon="6.90005">
        <ele>424.4</ele>
        <time>2021-08-10T12:04:06Z</time>
      </trkpt>
      <trkpt lat="47.46795" lon="6.90016">
        <ele>424</ele>
        <time>2021-08-10T12:04:08Z</time>
      </trkpt>
      <trkpt lat="47.46787" lon="6.90026">
        <ele>423.4</ele>
        <time>2021-08-10T12:04:10Z</time>
      </trkpt>
      <trkpt lat="47.46782" lon="6.90032">
        <ele>423.1</ele>
        <time>2021-08-10T12:04:11Z</time>
      </trkpt>
      <trkpt lat="47.46773" lon="6.90042">
        <ele>422.3</ele>
        <time>2021-08-10T12:04:13Z</time>
      </trkpt>
      <trkpt lat="47.46769" lon="6.90046">
        <ele>422</ele>
        <time>2021-08-10T12:04:14Z</time>
      </trkpt>
      <trkpt lat="47.46763" lon="6.90055">
        <ele>421.4</ele>
        <time>2021-08-10T12:04:16Z</time>
      </trkpt>
      <trkpt lat="47.46759" lon="6.90059">
        <ele>421.1</ele>
        <time>2021-08-10T12:04:17Z</time>
      </trkpt>
      <trkpt lat="47.46756" lon="6.90063">
        <ele>420.8</ele>
        <time>2021-08-10T12:04:18Z</time>
      </trkpt>
      <trkpt lat="47.46751" lon="6.90071">
        <ele>420.3</ele>
        <time>2021-08-10T12:04:20Z</time>
      </trkpt>
      <trkpt lat="47.46749" lon="6.90075">
        <ele>420.1</ele>
        <time>2021-08-10T12:04:21Z</time>
      </trkpt>
      <trkpt lat="47.46747" lon="6.90081">
        <ele>419.8</ele>
        <time>2021-08-10T12:04:22Z</time>
      </trkpt>
      <trkpt lat="47.46747" lon="6.90086">
        <ele>419.6</ele>
        <time>2021-08-10T12:04:23Z</time>
      </trkpt>
      <trkpt lat="47.46746" lon="6.90092">
        <ele>419.4</ele>
        <time>2021-08-10T12:04:24Z</time>
      </trkpt>
      <trkpt lat="47.46746" lon="6.90099">
        <ele>419.1</ele>
        <time>2021-08-10T12:04:26Z</time>
      </trkpt>
      <trkpt lat="47.46744" lon="6.90109">
        <ele>418.8</ele>
        <time>2021-08-10T12:04:27Z</time>
      </trkpt>
      <trkpt lat="47.46742" lon="6.90115">
        <ele>418.6</ele>
        <time>2021-08-10T12:04:29Z</time>
      </trkpt>
      <trkpt lat="47.46738" lon="6.9012">
        <ele>418.4</ele>
        <time>2021-08-10T12:04:30Z</time>
      </trkpt>
      <trkpt lat="47.46731" lon="6.90128">
        <ele>418.4</ele>
        <time>2021-08-10T12:04:31Z</time>
      </trkpt>
      <trkpt lat="47.46724" lon="6.90133">
        <ele>417.6</ele>
        <time>2021-08-10T12:04:33Z</time>
      </trkpt>
      <trkpt lat="47.4671" lon="6.90142">
        <ele>416.2</ele>
        <time>2021-08-10T12:04:34Z</time>
      </trkpt>
      <trkpt lat="47.467" lon="6.90146">
        <ele>415.4</ele>
        <time>2021-08-10T12:04:35Z</time>
      </trkpt>
      <trkpt lat="47.46684" lon="6.90154">
        <ele>415.1</ele>
        <time>2021-08-10T12:04:37Z</time>
      </trkpt>
      <trkpt lat="47.4667" lon="6.90165">
        <ele>415.1</ele>
        <time>2021-08-10T12:04:39Z</time>
      </trkpt>
      <trkpt lat="47.46664" lon="6.9017">
        <ele>415</ele>
        <time>2021-08-10T12:04:40Z</time>
      </trkpt>
      <trkpt lat="47.46657" lon="6.90175">
        <ele>415</ele>
        <time>2021-08-10T12:04:41Z</time>
      </trkpt>
      <trkpt lat="47.46651" lon="6.90179">
        <ele>415</ele>
        <time>2021-08-10T12:04:42Z</time>
      </trkpt>
      <trkpt lat="47.46645" lon="6.90182">
        <ele>415</ele>
        <time>2021-08-10T12:04:43Z</time>
      </trkpt>
      <trkpt lat="47.46636" lon="6.90189">
        <ele>415.1</ele>
        <time>2021-08-10T12:04:45Z</time>
      </trkpt>
      <trkpt lat="47.46631" lon="6.90192">
        <ele>415.2</ele>
        <time>2021-08-10T12:04:46Z</time>
      </trkpt>
      <trkpt lat="47.46627" lon="6.90195">
        <ele>415.3</ele>
        <time>2021-08-10T12:04:47Z</time>
      </trkpt>
      <trkpt lat="47.46618" lon="6.902">
        <ele>415.5</ele>
        <time>2021-08-10T12:04:49Z</time>
      </trkpt>
      <trkpt lat="47.46615" lon="6.90203">
        <ele>415.6</ele>
        <time>2021-08-10T12:04:50Z</time>
      </trkpt>
      <trkpt lat="47.46611" lon="6.90207">
        <ele>415.7</ele>
        <time>2021-08-10T12:04:51Z</time>
      </trkpt>
      <trkpt lat="47.46604" lon="6.90212">
        <ele>415.9</ele>
        <time>2021-08-10T12:04:53Z</time>
      </trkpt>
      <trkpt lat="47.46598" lon="6.90213">
        <ele>416</ele>
        <time>2021-08-10T12:04:55Z</time>
      </trkpt>
      <trkpt lat="47.46595" lon="6.90211">
        <ele>416.1</ele>
        <time>2021-08-10T12:04:56Z</time>
      </trkpt>
      <trkpt lat="47.46593" lon="6.90211">
        <ele>416.2</ele>
        <time>2021-08-10T12:04:57Z</time>
      </trkpt>
      <trkpt lat="47.46589" lon="6.9021">
        <ele>416.3</ele>
        <time>2021-08-10T12:04:58Z</time>
      </trkpt>
      <trkpt lat="47.46584" lon="6.9021">
        <ele>416.4</ele>
        <time>2021-08-10T12:05:00Z</time>
      </trkpt>
      <trkpt lat="47.46581" lon="6.90209">
        <ele>416.4</ele>
        <time>2021-08-10T12:05:01Z</time>
      </trkpt>
      <trkpt lat="47.46575" lon="6.90206">
        <ele>416.2</ele>
        <time>2021-08-10T12:05:03Z</time>
      </trkpt>
      <trkpt lat="47.46572" lon="6.90203">
        <ele>416.2</ele>
        <time>2021-08-10T12:05:04Z</time>
      </trkpt>
      <trkpt lat="47.4657" lon="6.90201">
        <ele>416.1</ele>
        <time>2021-08-10T12:05:05Z</time>
      </trkpt>
      <trkpt lat="47.46567" lon="6.90197">
        <ele>416</ele>
        <time>2021-08-10T12:05:07Z</time>
      </trkpt>
      <trkpt lat="47.46565" lon="6.90194">
        <ele>416</ele>
        <time>2021-08-10T12:05:08Z</time>
      </trkpt>
      <trkpt lat="47.46565" lon="6.90194">
        <ele>416</ele>
        <time>2021-08-10T12:05:09Z</time>
      </trkpt>
      <trkpt lat="47.46565" lon="6.90197">
        <ele>415.9</ele>
        <time>2021-08-10T12:05:11Z</time>
      </trkpt>
      <trkpt lat="47.46566" lon="6.90199">
        <ele>415.9</ele>
        <time>2021-08-10T12:05:12Z</time>
      </trkpt>
      <trkpt lat="47.46567" lon="6.90201">
        <ele>415.9</ele>
        <time>2021-08-10T12:05:13Z</time>
      </trkpt>
      <trkpt lat="47.46572" lon="6.90207">
        <ele>416.1</ele>
        <time>2021-08-10T12:05:16Z</time>
      </trkpt>
      <trkpt lat="47.46576" lon="6.90212">
        <ele>416.3</ele>
        <time>2021-08-10T12:05:17Z</time>
      </trkpt>
      <trkpt lat="47.46579" lon="6.90216">
        <ele>416.4</ele>
        <time>2021-08-10T12:05:19Z</time>
      </trkpt>
      <trkpt lat="47.46581" lon="6.9022">
        <ele>416.6</ele>
        <time>2021-08-10T12:05:20Z</time>
      </trkpt>
      <trkpt lat="47.46582" lon="6.90222">
        <ele>416.8</ele>
        <time>2021-08-10T12:05:21Z</time>
      </trkpt>
      <trkpt lat="47.46584" lon="6.90226">
        <ele>417.2</ele>
        <time>2021-08-10T12:05:22Z</time>
      </trkpt>
      <trkpt lat="47.46587" lon="6.90231">
        <ele>417.7</ele>
        <time>2021-08-10T12:05:24Z</time>
      </trkpt>
      <trkpt lat="47.46588" lon="6.90233">
        <ele>418</ele>
        <time>2021-08-10T12:05:25Z</time>
      </trkpt>
      <trkpt lat="47.4659" lon="6.90236">
        <ele>418.3</ele>
        <time>2021-08-10T12:05:27Z</time>
      </trkpt>
      <trkpt lat="47.46591" lon="6.90239">
        <ele>418.7</ele>
        <time>2021-08-10T12:05:28Z</time>
      </trkpt>
      <trkpt lat="47.46592" lon="6.90244">
        <ele>419.1</ele>
        <time>2021-08-10T12:05:30Z</time>
      </trkpt>
      <trkpt lat="47.46592" lon="6.90247">
        <ele>419.3</ele>
        <time>2021-08-10T12:05:31Z</time>
      </trkpt>
      <trkpt lat="47.4659" lon="6.90248">
        <ele>419.3</ele>
        <time>2021-08-10T12:05:32Z</time>
      </trkpt>
      <trkpt lat="47.46589" lon="6.90251">
        <ele>419.5</ele>
        <time>2021-08-10T12:05:33Z</time>
      </trkpt>
      <trkpt lat="47.46589" lon="6.90253">
        <ele>419.6</ele>
        <time>2021-08-10T12:05:35Z</time>
      </trkpt>
      <trkpt lat="47.46588" lon="6.90254">
        <ele>419.7</ele>
        <time>2021-08-10T12:05:36Z</time>
      </trkpt>
      <trkpt lat="47.46588" lon="6.90257">
        <ele>419.9</ele>
        <time>2021-08-10T12:05:38Z</time>
      </trkpt>
      <trkpt lat="47.46587" lon="6.90262">
        <ele>420.1</ele>
        <time>2021-08-10T12:05:40Z</time>
      </trkpt>
      <trkpt lat="47.46587" lon="6.90262">
        <ele>420.2</ele>
        <time>2021-08-10T12:05:41Z</time>
      </trkpt>
      <trkpt lat="47.46586" lon="6.90262">
        <ele>420.2</ele>
        <time>2021-08-10T12:05:42Z</time>
      </trkpt>
      <trkpt lat="47.46586" lon="6.90263">
        <ele>420.3</ele>
        <time>2021-08-10T12:05:43Z</time>
      </trkpt>
      <trkpt lat="47.46584" lon="6.90265">
        <ele>420.5</ele>
        <time>2021-08-10T12:05:45Z</time>
      </trkpt>
      <trkpt lat="47.4658" lon="6.90268">
        <ele>420.8</ele>
        <time>2021-08-10T12:05:46Z</time>
      </trkpt>
      <trkpt lat="47.46577" lon="6.9027">
        <ele>421</ele>
        <time>2021-08-10T12:05:47Z</time>
      </trkpt>
      <trkpt lat="47.46575" lon="6.90272">
        <ele>421.2</ele>
        <time>2021-08-10T12:05:49Z</time>
      </trkpt>
      <trkpt lat="47.46572" lon="6.90274">
        <ele>421.4</ele>
        <time>2021-08-10T12:05:51Z</time>
      </trkpt>
      <trkpt lat="47.46569" lon="6.90276">
        <ele>421.6</ele>
        <time>2021-08-10T12:05:52Z</time>
      </trkpt>
      <trkpt lat="47.46567" lon="6.90278">
        <ele>421.8</ele>
        <time>2021-08-10T12:05:53Z</time>
      </trkpt>
      <trkpt lat="47.46566" lon="6.90279">
        <ele>421.9</ele>
        <time>2021-08-10T12:05:54Z</time>
      </trkpt>
      <trkpt lat="47.46565" lon="6.9028">
        <ele>421.9</ele>
        <time>2021-08-10T12:05:55Z</time>
      </trkpt>
      <trkpt lat="47.46563" lon="6.90283">
        <ele>422.1</ele>
        <time>2021-08-10T12:05:57Z</time>
      </trkpt>
      <trkpt lat="47.4656" lon="6.90286">
        <ele>422.3</ele>
        <time>2021-08-10T12:05:58Z</time>
      </trkpt>
      <trkpt lat="47.46559" lon="6.90287">
        <ele>422.4</ele>
        <time>2021-08-10T12:05:59Z</time>
      </trkpt>
      <trkpt lat="47.46556" lon="6.90289">
        <ele>422.6</ele>
        <time>2021-08-10T12:06:01Z</time>
      </trkpt>
      <trkpt lat="47.46555" lon="6.9029">
        <ele>422.7</ele>
        <time>2021-08-10T12:06:02Z</time>
      </trkpt>
      <trkpt lat="47.46552" lon="6.90293">
        <ele>422.9</ele>
        <time>2021-08-10T12:06:03Z</time>
      </trkpt>
      <trkpt lat="47.4655" lon="6.90294">
        <ele>423</ele>
        <time>2021-08-10T12:06:04Z</time>
      </trkpt>
      <trkpt lat="47.46548" lon="6.90296">
        <ele>423.1</ele>
        <time>2021-08-10T12:06:05Z</time>
      </trkpt>
      <trkpt lat="47.46547" lon="6.90298">
        <ele>423.2</ele>
        <time>2021-08-10T12:06:06Z</time>
      </trkpt>
      <trkpt lat="47.46546" lon="6.90301">
        <ele>423.4</ele>
        <time>2021-08-10T12:06:08Z</time>
      </trkpt>
      <trkpt lat="47.46544" lon="6.90304">
        <ele>423.6</ele>
        <time>2021-08-10T12:06:09Z</time>
      </trkpt>
      <trkpt lat="47.46543" lon="6.90306">
        <ele>423.6</ele>
        <time>2021-08-10T12:06:10Z</time>
      </trkpt>
      <trkpt lat="47.46541" lon="6.90308">
        <ele>423.8</ele>
        <time>2021-08-10T12:06:12Z</time>
      </trkpt>
      <trkpt lat="47.46539" lon="6.9031">
        <ele>424</ele>
        <time>2021-08-10T12:06:14Z</time>
      </trkpt>
      <trkpt lat="47.46537" lon="6.90312">
        <ele>424.1</ele>
        <time>2021-08-10T12:06:15Z</time>
      </trkpt>
      <trkpt lat="47.46536" lon="6.90314">
        <ele>424.2</ele>
        <time>2021-08-10T12:06:17Z</time>
      </trkpt>
      <trkpt lat="47.46533" lon="6.90315">
        <ele>424.4</ele>
        <time>2021-08-10T12:06:18Z</time>
      </trkpt>
      <trkpt lat="47.46531" lon="6.90316">
        <ele>424.6</ele>
        <time>2021-08-10T12:06:20Z</time>
      </trkpt>
      <trkpt lat="47.4653" lon="6.90317">
        <ele>424.7</ele>
        <time>2021-08-10T12:06:21Z</time>
      </trkpt>
      <trkpt lat="47.46529" lon="6.90318">
        <ele>424.8</ele>
        <time>2021-08-10T12:06:22Z</time>
      </trkpt>
      <trkpt lat="47.46528" lon="6.9032">
        <ele>425</ele>
        <time>2021-08-10T12:06:24Z</time>
      </trkpt>
      <trkpt lat="47.46527" lon="6.90321">
        <ele>425.1</ele>
        <time>2021-08-10T12:06:25Z</time>
      </trkpt>
      <trkpt lat="47.46525" lon="6.90322">
        <ele>425.2</ele>
        <time>2021-08-10T12:06:26Z</time>
      </trkpt>
      <trkpt lat="47.46524" lon="6.90324">
        <ele>425.3</ele>
        <time>2021-08-10T12:06:27Z</time>
      </trkpt>
      <trkpt lat="47.46521" lon="6.90326">
        <ele>425.6</ele>
        <time>2021-08-10T12:06:29Z</time>
      </trkpt>
      <trkpt lat="47.46519" lon="6.90327">
        <ele>425.8</ele>
        <time>2021-08-10T12:06:30Z</time>
      </trkpt>
      <trkpt lat="47.46518" lon="6.90329">
        <ele>425.9</ele>
        <time>2021-08-10T12:06:31Z</time>
      </trkpt>
      <trkpt lat="47.46516" lon="6.90332">
        <ele>426.2</ele>
        <time>2021-08-10T12:06:33Z</time>
      </trkpt>
      <trkpt lat="47.46515" lon="6.90334">
        <ele>426.3</ele>
        <time>2021-08-10T12:06:34Z</time>
      </trkpt>
      <trkpt lat="47.46514" lon="6.90336">
        <ele>426.5</ele>
        <time>2021-08-10T12:06:35Z</time>
      </trkpt>
      <trkpt lat="47.4651" lon="6.90339">
        <ele>426.9</ele>
        <time>2021-08-10T12:06:37Z</time>
      </trkpt>
      <trkpt lat="47.46508" lon="6.9034">
        <ele>427.1</ele>
        <time>2021-08-10T12:06:38Z</time>
      </trkpt>
      <trkpt lat="47.46506" lon="6.90342">
        <ele>427.4</ele>
        <time>2021-08-10T12:06:40Z</time>
      </trkpt>
      <trkpt lat="47.46504" lon="6.90343">
        <ele>427.6</ele>
        <time>2021-08-10T12:06:41Z</time>
      </trkpt>
      <trkpt lat="47.46503" lon="6.90344">
        <ele>427.7</ele>
        <time>2021-08-10T12:06:42Z</time>
      </trkpt>
      <trkpt lat="47.46502" lon="6.90346">
        <ele>427.9</ele>
        <time>2021-08-10T12:06:43Z</time>
      </trkpt>
      <trkpt lat="47.46501" lon="6.90346">
        <ele>428</ele>
        <time>2021-08-10T12:06:44Z</time>
      </trkpt>
      <trkpt lat="47.46502" lon="6.90347">
        <ele>428.1</ele>
        <time>2021-08-10T12:06:45Z</time>
      </trkpt>
      <trkpt lat="47.46502" lon="6.90348">
        <ele>428.1</ele>
        <time>2021-08-10T12:06:47Z</time>
      </trkpt>
      <trkpt lat="47.46502" lon="6.90348">
        <ele>428.2</ele>
        <time>2021-08-10T12:06:48Z</time>
      </trkpt>
      <trkpt lat="47.46502" lon="6.90349">
        <ele>428.2</ele>
        <time>2021-08-10T12:06:49Z</time>
      </trkpt>
      <trkpt lat="47.46502" lon="6.90349">
        <ele>428.2</ele>
        <time>2021-08-10T12:06:51Z</time>
      </trkpt>
      <trkpt lat="47.46503" lon="6.90349">
        <ele>428.2</ele>
        <time>2021-08-10T12:06:52Z</time>
      </trkpt>
      <trkpt lat="47.46503" lon="6.90349">
        <ele>428.3</ele>
        <time>2021-08-10T12:06:53Z</time>
      </trkpt>
      <trkpt lat="47.46465" lon="6.90374">
        <ele>432.8</ele>
        <time>2021-08-10T12:08:30Z</time>
      </trkpt>
      <trkpt lat="47.46463" lon="6.90375">
        <ele>433</ele>
        <time>2021-08-10T12:08:31Z</time>
      </trkpt>
      <trkpt lat="47.4646" lon="6.90375">
        <ele>433.2</ele>
        <time>2021-08-10T12:08:33Z</time>
      </trkpt>
      <trkpt lat="47.46457" lon="6.90374">
        <ele>433.4</ele>
        <time>2021-08-10T12:08:34Z</time>
      </trkpt>
      <trkpt lat="47.46456" lon="6.90374">
        <ele>433.5</ele>
        <time>2021-08-10T12:08:35Z</time>
      </trkpt>
      <trkpt lat="47.46453" lon="6.90373">
        <ele>433.8</ele>
        <time>2021-08-10T12:08:36Z</time>
      </trkpt>
      <trkpt lat="47.4645" lon="6.90372">
        <ele>434</ele>
        <time>2021-08-10T12:08:38Z</time>
      </trkpt>
      <trkpt lat="47.46449" lon="6.90372">
        <ele>434.1</ele>
        <time>2021-08-10T12:08:39Z</time>
      </trkpt>
      <trkpt lat="47.46446" lon="6.90371">
        <ele>434.4</ele>
        <time>2021-08-10T12:08:41Z</time>
      </trkpt>
      <trkpt lat="47.46445" lon="6.90371">
        <ele>434.5</ele>
        <time>2021-08-10T12:08:42Z</time>
      </trkpt>
      <trkpt lat="47.46442" lon="6.9037">
        <ele>434.7</ele>
        <time>2021-08-10T12:08:43Z</time>
      </trkpt>
      <trkpt lat="47.4644" lon="6.9037">
        <ele>434.9</ele>
        <time>2021-08-10T12:08:45Z</time>
      </trkpt>
      <trkpt lat="47.46439" lon="6.9037">
        <ele>435</ele>
        <time>2021-08-10T12:08:46Z</time>
      </trkpt>
      <trkpt lat="47.46438" lon="6.9037">
        <ele>435.1</ele>
        <time>2021-08-10T12:08:47Z</time>
      </trkpt>
      <trkpt lat="47.46436" lon="6.9037">
        <ele>435.2</ele>
        <time>2021-08-10T12:08:48Z</time>
      </trkpt>
      <trkpt lat="47.46436" lon="6.9037">
        <ele>435.2</ele>
        <time>2021-08-10T12:08:50Z</time>
      </trkpt>
      <trkpt lat="47.46435" lon="6.90371">
        <ele>435.3</ele>
        <time>2021-08-10T12:08:51Z</time>
      </trkpt>
      <trkpt lat="47.46433" lon="6.90371">
        <ele>435.7</ele>
        <time>2021-08-10T12:08:52Z</time>
      </trkpt>
      <trkpt lat="47.46432" lon="6.90371">
        <ele>435.8</ele>
        <time>2021-08-10T12:08:53Z</time>
      </trkpt>
      <trkpt lat="47.46431" lon="6.90372">
        <ele>436</ele>
        <time>2021-08-10T12:08:54Z</time>
      </trkpt>
      <trkpt lat="47.46429" lon="6.90373">
        <ele>436.1</ele>
        <time>2021-08-10T12:08:55Z</time>
      </trkpt>
      <trkpt lat="47.46428" lon="6.90373">
        <ele>436.3</ele>
        <time>2021-08-10T12:08:57Z</time>
      </trkpt>
      <trkpt lat="47.46427" lon="6.90374">
        <ele>436.4</ele>
        <time>2021-08-10T12:08:58Z</time>
      </trkpt>
      <trkpt lat="47.46424" lon="6.90377">
        <ele>436.8</ele>
        <time>2021-08-10T12:08:59Z</time>
      </trkpt>
      <trkpt lat="47.46423" lon="6.90378">
        <ele>436.9</ele>
        <time>2021-08-10T12:09:00Z</time>
      </trkpt>
      <trkpt lat="47.46422" lon="6.90378">
        <ele>437</ele>
        <time>2021-08-10T12:09:01Z</time>
      </trkpt>
      <trkpt lat="47.4642" lon="6.90379">
        <ele>437.2</ele>
        <time>2021-08-10T12:09:02Z</time>
      </trkpt>
      <trkpt lat="47.46419" lon="6.9038">
        <ele>437.4</ele>
        <time>2021-08-10T12:09:04Z</time>
      </trkpt>
      <trkpt lat="47.46417" lon="6.90382">
        <ele>437.6</ele>
        <time>2021-08-10T12:09:05Z</time>
      </trkpt>
      <trkpt lat="47.46415" lon="6.90385">
        <ele>437.9</ele>
        <time>2021-08-10T12:09:07Z</time>
      </trkpt>
      <trkpt lat="47.46414" lon="6.90385">
        <ele>438</ele>
        <time>2021-08-10T12:09:08Z</time>
      </trkpt>
      <trkpt lat="47.46413" lon="6.90387">
        <ele>438.1</ele>
        <time>2021-08-10T12:09:09Z</time>
      </trkpt>
      <trkpt lat="47.46411" lon="6.90388">
        <ele>438.2</ele>
        <time>2021-08-10T12:09:10Z</time>
      </trkpt>
      <trkpt lat="47.4641" lon="6.90389">
        <ele>438.4</ele>
        <time>2021-08-10T12:09:12Z</time>
      </trkpt>
      <trkpt lat="47.46409" lon="6.90389">
        <ele>438.5</ele>
        <time>2021-08-10T12:09:13Z</time>
      </trkpt>
      <trkpt lat="47.46409" lon="6.90389">
        <ele>438.5</ele>
        <time>2021-08-10T12:09:14Z</time>
      </trkpt>
      <trkpt lat="47.46407" lon="6.9039">
        <ele>438.6</ele>
        <time>2021-08-10T12:09:16Z</time>
      </trkpt>
      <trkpt lat="47.46407" lon="6.90391">
        <ele>438.7</ele>
        <time>2021-08-10T12:09:17Z</time>
      </trkpt>
      <trkpt lat="47.46406" lon="6.90392">
        <ele>438.7</ele>
        <time>2021-08-10T12:09:19Z</time>
      </trkpt>
      <trkpt lat="47.46405" lon="6.90393">
        <ele>438.8</ele>
        <time>2021-08-10T12:09:21Z</time>
      </trkpt>
      <trkpt lat="47.46404" lon="6.90394">
        <ele>438.9</ele>
        <time>2021-08-10T12:09:22Z</time>
      </trkpt>
      <trkpt lat="47.46403" lon="6.90395">
        <ele>439</ele>
        <time>2021-08-10T12:09:24Z</time>
      </trkpt>
      <trkpt lat="47.46403" lon="6.90396">
        <ele>439</ele>
        <time>2021-08-10T12:09:25Z</time>
      </trkpt>
      <trkpt lat="47.46402" lon="6.90397">
        <ele>439.1</ele>
        <time>2021-08-10T12:09:26Z</time>
      </trkpt>
      <trkpt lat="47.46399" lon="6.90404">
        <ele>439.4</ele>
        <time>2021-08-10T12:09:28Z</time>
      </trkpt>
      <trkpt lat="47.46397" lon="6.9041">
        <ele>439.6</ele>
        <time>2021-08-10T12:09:29Z</time>
      </trkpt>
      <trkpt lat="47.46394" lon="6.90418">
        <ele>439.8</ele>
        <time>2021-08-10T12:09:30Z</time>
      </trkpt>
      <trkpt lat="47.46393" lon="6.90424">
        <ele>439.9</ele>
        <time>2021-08-10T12:09:31Z</time>
      </trkpt>
      <trkpt lat="47.46393" lon="6.90429">
        <ele>440</ele>
        <time>2021-08-10T12:09:32Z</time>
      </trkpt>
      <trkpt lat="47.46392" lon="6.90435">
        <ele>440.1</ele>
        <time>2021-08-10T12:09:33Z</time>
      </trkpt>
      <trkpt lat="47.46392" lon="6.9044">
        <ele>440.2</ele>
        <time>2021-08-10T12:09:35Z</time>
      </trkpt>
      <trkpt lat="47.46391" lon="6.90448">
        <ele>440.3</ele>
        <time>2021-08-10T12:09:36Z</time>
      </trkpt>
      <trkpt lat="47.46391" lon="6.90452">
        <ele>440.4</ele>
        <time>2021-08-10T12:09:37Z</time>
      </trkpt>
      <trkpt lat="47.4639" lon="6.90457">
        <ele>440.4</ele>
        <time>2021-08-10T12:09:39Z</time>
      </trkpt>
      <trkpt lat="47.46389" lon="6.90462">
        <ele>440.5</ele>
        <time>2021-08-10T12:09:40Z</time>
      </trkpt>
      <trkpt lat="47.46387" lon="6.90467">
        <ele>440.5</ele>
        <time>2021-08-10T12:09:41Z</time>
      </trkpt>
      <trkpt lat="47.46386" lon="6.90472">
        <ele>440.6</ele>
        <time>2021-08-10T12:09:43Z</time>
      </trkpt>
      <trkpt lat="47.46384" lon="6.90477">
        <ele>440.7</ele>
        <time>2021-08-10T12:09:44Z</time>
      </trkpt>
      <trkpt lat="47.46383" lon="6.90479">
        <ele>440.7</ele>
        <time>2021-08-10T12:09:45Z</time>
      </trkpt>
      <trkpt lat="47.4638" lon="6.90483">
        <ele>440.8</ele>
        <time>2021-08-10T12:09:46Z</time>
      </trkpt>
      <trkpt lat="47.46379" lon="6.90485">
        <ele>440.9</ele>
        <time>2021-08-10T12:09:47Z</time>
      </trkpt>
      <trkpt lat="47.46376" lon="6.90488">
        <ele>441</ele>
        <time>2021-08-10T12:09:48Z</time>
      </trkpt>
      <trkpt lat="47.46375" lon="6.90489">
        <ele>441</ele>
        <time>2021-08-10T12:09:49Z</time>
      </trkpt>
      <trkpt lat="47.46371" lon="6.90493">
        <ele>441.2</ele>
        <time>2021-08-10T12:09:51Z</time>
      </trkpt>
      <trkpt lat="47.46369" lon="6.90495">
        <ele>441.2</ele>
        <time>2021-08-10T12:09:52Z</time>
      </trkpt>
      <trkpt lat="47.46368" lon="6.90496">
        <ele>441.3</ele>
        <time>2021-08-10T12:09:53Z</time>
      </trkpt>
      <trkpt lat="47.46365" lon="6.90499">
        <ele>441.5</ele>
        <time>2021-08-10T12:09:55Z</time>
      </trkpt>
      <trkpt lat="47.46362" lon="6.90501">
        <ele>441.6</ele>
        <time>2021-08-10T12:09:56Z</time>
      </trkpt>
      <trkpt lat="47.46358" lon="6.90502">
        <ele>441.8</ele>
        <time>2021-08-10T12:09:58Z</time>
      </trkpt>
      <trkpt lat="47.46355" lon="6.90504">
        <ele>441.9</ele>
        <time>2021-08-10T12:09:59Z</time>
      </trkpt>
      <trkpt lat="47.46352" lon="6.90507">
        <ele>442.1</ele>
        <time>2021-08-10T12:10:01Z</time>
      </trkpt>
      <trkpt lat="47.46351" lon="6.90507">
        <ele>442.1</ele>
        <time>2021-08-10T12:10:02Z</time>
      </trkpt>
      <trkpt lat="47.46348" lon="6.90509">
        <ele>442.4</ele>
        <time>2021-08-10T12:10:03Z</time>
      </trkpt>
      <trkpt lat="47.46347" lon="6.9051">
        <ele>442.5</ele>
        <time>2021-08-10T12:10:04Z</time>
      </trkpt>
      <trkpt lat="47.46343" lon="6.90512">
        <ele>442.8</ele>
        <time>2021-08-10T12:10:05Z</time>
      </trkpt>
      <trkpt lat="47.46342" lon="6.90512">
        <ele>442.8</ele>
        <time>2021-08-10T12:10:06Z</time>
      </trkpt>
      <trkpt lat="47.46339" lon="6.90512">
        <ele>443.1</ele>
        <time>2021-08-10T12:10:07Z</time>
      </trkpt>
      <trkpt lat="47.46337" lon="6.90513">
        <ele>443.4</ele>
        <time>2021-08-10T12:10:09Z</time>
      </trkpt>
      <trkpt lat="47.46335" lon="6.90514">
        <ele>443.5</ele>
        <time>2021-08-10T12:10:10Z</time>
      </trkpt>
      <trkpt lat="47.46333" lon="6.90516">
        <ele>443.8</ele>
        <time>2021-08-10T12:10:12Z</time>
      </trkpt>
      <trkpt lat="47.46332" lon="6.90517">
        <ele>443.9</ele>
        <time>2021-08-10T12:10:13Z</time>
      </trkpt>
      <trkpt lat="47.46327" lon="6.90518">
        <ele>444.4</ele>
        <time>2021-08-10T12:10:15Z</time>
      </trkpt>
      <trkpt lat="47.46326" lon="6.90519">
        <ele>444.5</ele>
        <time>2021-08-10T12:10:16Z</time>
      </trkpt>
      <trkpt lat="47.46324" lon="6.90519">
        <ele>444.7</ele>
        <time>2021-08-10T12:10:17Z</time>
      </trkpt>
      <trkpt lat="47.46321" lon="6.90519">
        <ele>445.1</ele>
        <time>2021-08-10T12:10:19Z</time>
      </trkpt>
      <trkpt lat="47.46319" lon="6.9052">
        <ele>445.2</ele>
        <time>2021-08-10T12:10:20Z</time>
      </trkpt>
      <trkpt lat="47.46318" lon="6.9052">
        <ele>445.4</ele>
        <time>2021-08-10T12:10:22Z</time>
      </trkpt>
      <trkpt lat="47.46316" lon="6.90521">
        <ele>445.6</ele>
        <time>2021-08-10T12:10:23Z</time>
      </trkpt>
      <trkpt lat="47.46315" lon="6.90522">
        <ele>445.7</ele>
        <time>2021-08-10T12:10:24Z</time>
      </trkpt>
      <trkpt lat="47.46313" lon="6.90523">
        <ele>445.9</ele>
        <time>2021-08-10T12:10:25Z</time>
      </trkpt>
      <trkpt lat="47.46312" lon="6.90524">
        <ele>446.1</ele>
        <time>2021-08-10T12:10:27Z</time>
      </trkpt>
      <trkpt lat="47.4631" lon="6.90525">
        <ele>446.3</ele>
        <time>2021-08-10T12:10:28Z</time>
      </trkpt>
      <trkpt lat="47.46309" lon="6.90526">
        <ele>446.5</ele>
        <time>2021-08-10T12:10:29Z</time>
      </trkpt>
      <trkpt lat="47.46308" lon="6.90527">
        <ele>446.6</ele>
        <time>2021-08-10T12:10:31Z</time>
      </trkpt>
      <trkpt lat="47.46306" lon="6.90528">
        <ele>446.8</ele>
        <time>2021-08-10T12:10:33Z</time>
      </trkpt>
      <trkpt lat="47.46303" lon="6.90529">
        <ele>447.1</ele>
        <time>2021-08-10T12:10:35Z</time>
      </trkpt>
      <trkpt lat="47.463" lon="6.90528">
        <ele>447.5</ele>
        <time>2021-08-10T12:10:37Z</time>
      </trkpt>
      <trkpt lat="47.46299" lon="6.90528">
        <ele>447.5</ele>
        <time>2021-08-10T12:10:38Z</time>
      </trkpt>
      <trkpt lat="47.46297" lon="6.90527">
        <ele>447.8</ele>
        <time>2021-08-10T12:10:39Z</time>
      </trkpt>
      <trkpt lat="47.46294" lon="6.90525">
        <ele>448</ele>
        <time>2021-08-10T12:10:41Z</time>
      </trkpt>
      <trkpt lat="47.46292" lon="6.90524">
        <ele>448.2</ele>
        <time>2021-08-10T12:10:42Z</time>
      </trkpt>
      <trkpt lat="47.4629" lon="6.90524">
        <ele>448.4</ele>
        <time>2021-08-10T12:10:44Z</time>
      </trkpt>
      <trkpt lat="47.46288" lon="6.90524">
        <ele>448.6</ele>
        <time>2021-08-10T12:10:45Z</time>
      </trkpt>
      <trkpt lat="47.46287" lon="6.90524">
        <ele>448.7</ele>
        <time>2021-08-10T12:10:46Z</time>
      </trkpt>
      <trkpt lat="47.46286" lon="6.90524">
        <ele>448.7</ele>
        <time>2021-08-10T12:10:47Z</time>
      </trkpt>
      <trkpt lat="47.46286" lon="6.90525">
        <ele>448.8</ele>
        <time>2021-08-10T12:10:48Z</time>
      </trkpt>
      <trkpt lat="47.46285" lon="6.90525">
        <ele>448.9</ele>
        <time>2021-08-10T12:10:50Z</time>
      </trkpt>
      <trkpt lat="47.46283" lon="6.90526">
        <ele>449</ele>
        <time>2021-08-10T12:10:51Z</time>
      </trkpt>
      <trkpt lat="47.4628" lon="6.90527">
        <ele>449.3</ele>
        <time>2021-08-10T12:10:52Z</time>
      </trkpt>
      <trkpt lat="47.46278" lon="6.90527">
        <ele>449.4</ele>
        <time>2021-08-10T12:10:53Z</time>
      </trkpt>
      <trkpt lat="47.46275" lon="6.90529">
        <ele>449.6</ele>
        <time>2021-08-10T12:10:55Z</time>
      </trkpt>
      <trkpt lat="47.46274" lon="6.90529">
        <ele>449.7</ele>
        <time>2021-08-10T12:10:58Z</time>
      </trkpt>
      <trkpt lat="47.46273" lon="6.9053">
        <ele>449.8</ele>
        <time>2021-08-10T12:11:00Z</time>
      </trkpt>
      <trkpt lat="47.46272" lon="6.90531">
        <ele>449.8</ele>
        <time>2021-08-10T12:11:01Z</time>
      </trkpt>
      <trkpt lat="47.46271" lon="6.90531">
        <ele>449.9</ele>
        <time>2021-08-10T12:11:02Z</time>
      </trkpt>
      <trkpt lat="47.46269" lon="6.90534">
        <ele>450.1</ele>
        <time>2021-08-10T12:11:03Z</time>
      </trkpt>
      <trkpt lat="47.46268" lon="6.90534">
        <ele>450.2</ele>
        <time>2021-08-10T12:11:04Z</time>
      </trkpt>
      <trkpt lat="47.46267" lon="6.90535">
        <ele>450.3</ele>
        <time>2021-08-10T12:11:05Z</time>
      </trkpt>
      <trkpt lat="47.46265" lon="6.90537">
        <ele>450.4</ele>
        <time>2021-08-10T12:11:07Z</time>
      </trkpt>
      <trkpt lat="47.46265" lon="6.90538">
        <ele>450.5</ele>
        <time>2021-08-10T12:11:08Z</time>
      </trkpt>
      <trkpt lat="47.46264" lon="6.90539">
        <ele>450.5</ele>
        <time>2021-08-10T12:11:09Z</time>
      </trkpt>
      <trkpt lat="47.46263" lon="6.90541">
        <ele>450.6</ele>
        <time>2021-08-10T12:11:10Z</time>
      </trkpt>
      <trkpt lat="47.46261" lon="6.90543">
        <ele>450.7</ele>
        <time>2021-08-10T12:11:12Z</time>
      </trkpt>
      <trkpt lat="47.46259" lon="6.90544">
        <ele>450.9</ele>
        <time>2021-08-10T12:11:14Z</time>
      </trkpt>
      <trkpt lat="47.46257" lon="6.90544">
        <ele>450.9</ele>
        <time>2021-08-10T12:11:15Z</time>
      </trkpt>
      <trkpt lat="47.46256" lon="6.90545">
        <ele>451</ele>
        <time>2021-08-10T12:11:17Z</time>
      </trkpt>
      <trkpt lat="47.46254" lon="6.90545">
        <ele>451.1</ele>
        <time>2021-08-10T12:11:19Z</time>
      </trkpt>
      <trkpt lat="47.46253" lon="6.90546">
        <ele>451.1</ele>
        <time>2021-08-10T12:11:20Z</time>
      </trkpt>
      <trkpt lat="47.46252" lon="6.90546">
        <ele>451.2</ele>
        <time>2021-08-10T12:11:22Z</time>
      </trkpt>
      <trkpt lat="47.46252" lon="6.90546">
        <ele>451.2</ele>
        <time>2021-08-10T12:11:23Z</time>
      </trkpt>
      <trkpt lat="47.46251" lon="6.90546">
        <ele>451.2</ele>
        <time>2021-08-10T12:11:24Z</time>
      </trkpt>
      <trkpt lat="47.46251" lon="6.90546">
        <ele>451.2</ele>
        <time>2021-08-10T12:11:26Z</time>
      </trkpt>
      <trkpt lat="47.4625" lon="6.90546">
        <ele>451.3</ele>
        <time>2021-08-10T12:11:27Z</time>
      </trkpt>
      <trkpt lat="47.46248" lon="6.90547">
        <ele>451.3</ele>
        <time>2021-08-10T12:11:29Z</time>
      </trkpt>
      <trkpt lat="47.46248" lon="6.90547">
        <ele>451.3</ele>
        <time>2021-08-10T12:11:30Z</time>
      </trkpt>
      <trkpt lat="47.46223" lon="6.90552">
        <ele>452.4</ele>
        <time>2021-08-10T12:11:51Z</time>
      </trkpt>
      <trkpt lat="47.4622" lon="6.90554">
        <ele>452.5</ele>
        <time>2021-08-10T12:11:52Z</time>
      </trkpt>
      <trkpt lat="47.46217" lon="6.90556">
        <ele>452.7</ele>
        <time>2021-08-10T12:11:54Z</time>
      </trkpt>
      <trkpt lat="47.46215" lon="6.90559">
        <ele>452.8</ele>
        <time>2021-08-10T12:11:55Z</time>
      </trkpt>
      <trkpt lat="47.46214" lon="6.90559">
        <ele>452.9</ele>
        <time>2021-08-10T12:11:57Z</time>
      </trkpt>
      <trkpt lat="47.46213" lon="6.9056">
        <ele>452.9</ele>
        <time>2021-08-10T12:11:58Z</time>
      </trkpt>
      <trkpt lat="47.46213" lon="6.9056">
        <ele>452.9</ele>
        <time>2021-08-10T12:11:59Z</time>
      </trkpt>
      <trkpt lat="47.46212" lon="6.90561">
        <ele>453</ele>
        <time>2021-08-10T12:12:00Z</time>
      </trkpt>
      <trkpt lat="47.46212" lon="6.90561">
        <ele>453</ele>
        <time>2021-08-10T12:12:02Z</time>
      </trkpt>
      <trkpt lat="47.46211" lon="6.90561">
        <ele>453</ele>
        <time>2021-08-10T12:12:03Z</time>
      </trkpt>
      <trkpt lat="47.46209" lon="6.90562">
        <ele>453.1</ele>
        <time>2021-08-10T12:12:05Z</time>
      </trkpt>
      <trkpt lat="47.46202" lon="6.90568">
        <ele>453.5</ele>
        <time>2021-08-10T12:12:10Z</time>
      </trkpt>
      <trkpt lat="47.46199" lon="6.90573">
        <ele>453.7</ele>
        <time>2021-08-10T12:12:12Z</time>
      </trkpt>
      <trkpt lat="47.46195" lon="6.9058">
        <ele>453.8</ele>
        <time>2021-08-10T12:12:13Z</time>
      </trkpt>
      <trkpt lat="47.46192" lon="6.90587">
        <ele>453.9</ele>
        <time>2021-08-10T12:12:14Z</time>
      </trkpt>
      <trkpt lat="47.46189" lon="6.90595">
        <ele>453.9</ele>
        <time>2021-08-10T12:12:16Z</time>
      </trkpt>
      <trkpt lat="47.46184" lon="6.90605">
        <ele>453.8</ele>
        <time>2021-08-10T12:12:17Z</time>
      </trkpt>
      <trkpt lat="47.4618" lon="6.90613">
        <ele>453.6</ele>
        <time>2021-08-10T12:12:19Z</time>
      </trkpt>
      <trkpt lat="47.46178" lon="6.9062">
        <ele>453.3</ele>
        <time>2021-08-10T12:12:20Z</time>
      </trkpt>
      <trkpt lat="47.46173" lon="6.90634">
        <ele>452.8</ele>
        <time>2021-08-10T12:12:22Z</time>
      </trkpt>
      <trkpt lat="47.4617" lon="6.90641">
        <ele>452.5</ele>
        <time>2021-08-10T12:12:23Z</time>
      </trkpt>
      <trkpt lat="47.46166" lon="6.90653">
        <ele>452.1</ele>
        <time>2021-08-10T12:12:25Z</time>
      </trkpt>
      <trkpt lat="47.46163" lon="6.9066">
        <ele>451.9</ele>
        <time>2021-08-10T12:12:26Z</time>
      </trkpt>
      <trkpt lat="47.46159" lon="6.90669">
        <ele>451.6</ele>
        <time>2021-08-10T12:12:27Z</time>
      </trkpt>
      <trkpt lat="47.46156" lon="6.90676">
        <ele>451.4</ele>
        <time>2021-08-10T12:12:29Z</time>
      </trkpt>
      <trkpt lat="47.46153" lon="6.90682">
        <ele>451.3</ele>
        <time>2021-08-10T12:12:30Z</time>
      </trkpt>
      <trkpt lat="47.4615" lon="6.9069">
        <ele>451.2</ele>
        <time>2021-08-10T12:12:31Z</time>
      </trkpt>
      <trkpt lat="47.46147" lon="6.90698">
        <ele>451.1</ele>
        <time>2021-08-10T12:12:33Z</time>
      </trkpt>
      <trkpt lat="47.46145" lon="6.90705">
        <ele>451.1</ele>
        <time>2021-08-10T12:12:34Z</time>
      </trkpt>
      <trkpt lat="47.46144" lon="6.90712">
        <ele>451</ele>
        <time>2021-08-10T12:12:35Z</time>
      </trkpt>
      <trkpt lat="47.46141" lon="6.90721">
        <ele>451</ele>
        <time>2021-08-10T12:12:36Z</time>
      </trkpt>
      <trkpt lat="47.46138" lon="6.90731">
        <ele>450.9</ele>
        <time>2021-08-10T12:12:38Z</time>
      </trkpt>
      <trkpt lat="47.46133" lon="6.90743">
        <ele>450.8</ele>
        <time>2021-08-10T12:12:39Z</time>
      </trkpt>
      <trkpt lat="47.4613" lon="6.90752">
        <ele>450.7</ele>
        <time>2021-08-10T12:12:41Z</time>
      </trkpt>
      <trkpt lat="47.46128" lon="6.90758">
        <ele>450.7</ele>
        <time>2021-08-10T12:12:42Z</time>
      </trkpt>
      <trkpt lat="47.46125" lon="6.90767">
        <ele>450.6</ele>
        <time>2021-08-10T12:12:43Z</time>
      </trkpt>
      <trkpt lat="47.46124" lon="6.90773">
        <ele>450.6</ele>
        <time>2021-08-10T12:12:44Z</time>
      </trkpt>
      <trkpt lat="47.46121" lon="6.90781">
        <ele>450.7</ele>
        <time>2021-08-10T12:12:46Z</time>
      </trkpt>
      <trkpt lat="47.46119" lon="6.90789">
        <ele>450.7</ele>
        <time>2021-08-10T12:12:47Z</time>
      </trkpt>
      <trkpt lat="47.46117" lon="6.90797">
        <ele>450.8</ele>
        <time>2021-08-10T12:12:49Z</time>
      </trkpt>
      <trkpt lat="47.46115" lon="6.90803">
        <ele>450.8</ele>
        <time>2021-08-10T12:12:50Z</time>
      </trkpt>
      <trkpt lat="47.46113" lon="6.9081">
        <ele>450.9</ele>
        <time>2021-08-10T12:12:51Z</time>
      </trkpt>
      <trkpt lat="47.46111" lon="6.90818">
        <ele>451</ele>
        <time>2021-08-10T12:12:52Z</time>
      </trkpt>
      <trkpt lat="47.46109" lon="6.90824">
        <ele>451.1</ele>
        <time>2021-08-10T12:12:54Z</time>
      </trkpt>
      <trkpt lat="47.46108" lon="6.90829">
        <ele>451.2</ele>
        <time>2021-08-10T12:12:55Z</time>
      </trkpt>
      <trkpt lat="47.46106" lon="6.90834">
        <ele>451.4</ele>
        <time>2021-08-10T12:12:56Z</time>
      </trkpt>
      <trkpt lat="47.46104" lon="6.90841">
        <ele>451.5</ele>
        <time>2021-08-10T12:12:57Z</time>
      </trkpt>
      <trkpt lat="47.46102" lon="6.90847">
        <ele>451.7</ele>
        <time>2021-08-10T12:12:58Z</time>
      </trkpt>
      <trkpt lat="47.461" lon="6.90852">
        <ele>451.9</ele>
        <time>2021-08-10T12:12:59Z</time>
      </trkpt>
      <trkpt lat="47.46098" lon="6.90858">
        <ele>452</ele>
        <time>2021-08-10T12:13:00Z</time>
      </trkpt>
      <trkpt lat="47.46097" lon="6.90863">
        <ele>452.2</ele>
        <time>2021-08-10T12:13:02Z</time>
      </trkpt>
      <trkpt lat="47.46095" lon="6.90869">
        <ele>452.3</ele>
        <time>2021-08-10T12:13:03Z</time>
      </trkpt>
      <trkpt lat="47.46091" lon="6.90875">
        <ele>452.5</ele>
        <time>2021-08-10T12:13:04Z</time>
      </trkpt>
      <trkpt lat="47.46088" lon="6.9088">
        <ele>452.6</ele>
        <time>2021-08-10T12:13:05Z</time>
      </trkpt>
      <trkpt lat="47.46085" lon="6.90884">
        <ele>452.8</ele>
        <time>2021-08-10T12:13:06Z</time>
      </trkpt>
      <trkpt lat="47.46081" lon="6.9089">
        <ele>452.9</ele>
        <time>2021-08-10T12:13:07Z</time>
      </trkpt>
      <trkpt lat="47.46076" lon="6.90896">
        <ele>453.1</ele>
        <time>2021-08-10T12:13:09Z</time>
      </trkpt>
      <trkpt lat="47.46072" lon="6.90901">
        <ele>453.3</ele>
        <time>2021-08-10T12:13:10Z</time>
      </trkpt>
      <trkpt lat="47.46067" lon="6.90906">
        <ele>453.5</ele>
        <time>2021-08-10T12:13:11Z</time>
      </trkpt>
      <trkpt lat="47.46061" lon="6.9091">
        <ele>453.8</ele>
        <time>2021-08-10T12:13:12Z</time>
      </trkpt>
      <trkpt lat="47.46052" lon="6.90917">
        <ele>454.2</ele>
        <time>2021-08-10T12:13:14Z</time>
      </trkpt>
      <trkpt lat="47.46046" lon="6.90921">
        <ele>454.5</ele>
        <time>2021-08-10T12:13:15Z</time>
      </trkpt>
      <trkpt lat="47.4604" lon="6.90925">
        <ele>454.7</ele>
        <time>2021-08-10T12:13:16Z</time>
      </trkpt>
      <trkpt lat="47.46034" lon="6.90929">
        <ele>455</ele>
        <time>2021-08-10T12:13:17Z</time>
      </trkpt>
      <trkpt lat="47.46024" lon="6.90936">
        <ele>455.4</ele>
        <time>2021-08-10T12:13:19Z</time>
      </trkpt>
      <trkpt lat="47.4602" lon="6.90941">
        <ele>455.7</ele>
        <time>2021-08-10T12:13:20Z</time>
      </trkpt>
      <trkpt lat="47.46014" lon="6.90947">
        <ele>456</ele>
        <time>2021-08-10T12:13:22Z</time>
      </trkpt>
      <trkpt lat="47.46011" lon="6.90951">
        <ele>456.2</ele>
        <time>2021-08-10T12:13:23Z</time>
      </trkpt>
      <trkpt lat="47.46009" lon="6.90954">
        <ele>456.3</ele>
        <time>2021-08-10T12:13:24Z</time>
      </trkpt>
      <trkpt lat="47.46005" lon="6.90959">
        <ele>456.6</ele>
        <time>2021-08-10T12:13:25Z</time>
      </trkpt>
      <trkpt lat="47.46003" lon="6.90965">
        <ele>456.8</ele>
        <time>2021-08-10T12:13:27Z</time>
      </trkpt>
      <trkpt lat="47.46002" lon="6.90968">
        <ele>457</ele>
        <time>2021-08-10T12:13:28Z</time>
      </trkpt>
      <trkpt lat="47.46002" lon="6.90972">
        <ele>457.1</ele>
        <time>2021-08-10T12:13:29Z</time>
      </trkpt>
      <trkpt lat="47.46002" lon="6.90975">
        <ele>457.3</ele>
        <time>2021-08-10T12:13:30Z</time>
      </trkpt>
      <trkpt lat="47.46002" lon="6.90979">
        <ele>457.4</ele>
        <time>2021-08-10T12:13:32Z</time>
      </trkpt>
      <trkpt lat="47.46002" lon="6.90983">
        <ele>457.6</ele>
        <time>2021-08-10T12:13:33Z</time>
      </trkpt>
      <trkpt lat="47.46002" lon="6.90986">
        <ele>457.7</ele>
        <time>2021-08-10T12:13:34Z</time>
      </trkpt>
      <trkpt lat="47.46002" lon="6.9099">
        <ele>457.8</ele>
        <time>2021-08-10T12:13:36Z</time>
      </trkpt>
      <trkpt lat="47.46002" lon="6.90994">
        <ele>458</ele>
        <time>2021-08-10T12:14:18Z</time>
      </trkpt>
      <trkpt lat="47.46002" lon="6.90997">
        <ele>458.2</ele>
        <time>2021-08-10T12:14:19Z</time>
      </trkpt>
      <trkpt lat="47.45999" lon="6.91005">
        <ele>458.6</ele>
        <time>2021-08-10T12:14:21Z</time>
      </trkpt>
      <trkpt lat="47.45996" lon="6.9101">
        <ele>458.9</ele>
        <time>2021-08-10T12:14:23Z</time>
      </trkpt>
      <trkpt lat="47.45995" lon="6.91014">
        <ele>459.1</ele>
        <time>2021-08-10T12:14:24Z</time>
      </trkpt>
      <trkpt lat="47.45993" lon="6.91021">
        <ele>459.4</ele>
        <time>2021-08-10T12:14:25Z</time>
      </trkpt>
      <trkpt lat="47.45992" lon="6.91024">
        <ele>459.6</ele>
        <time>2021-08-10T12:14:26Z</time>
      </trkpt>
      <trkpt lat="47.4599" lon="6.9103">
        <ele>459.9</ele>
        <time>2021-08-10T12:14:28Z</time>
      </trkpt>
      <trkpt lat="47.45988" lon="6.91036">
        <ele>460.2</ele>
        <time>2021-08-10T12:14:29Z</time>
      </trkpt>
      <trkpt lat="47.45987" lon="6.91038">
        <ele>460.3</ele>
        <time>2021-08-10T12:14:30Z</time>
      </trkpt>
      <trkpt lat="47.45985" lon="6.91044">
        <ele>460.7</ele>
        <time>2021-08-10T12:14:31Z</time>
      </trkpt>
      <trkpt lat="47.45983" lon="6.91048">
        <ele>460.9</ele>
        <time>2021-08-10T12:14:32Z</time>
      </trkpt>
      <trkpt lat="47.45982" lon="6.9105">
        <ele>461</ele>
        <time>2021-08-10T12:14:33Z</time>
      </trkpt>
      <trkpt lat="47.4598" lon="6.91054">
        <ele>461.2</ele>
        <time>2021-08-10T12:14:34Z</time>
      </trkpt>
      <trkpt lat="47.45979" lon="6.91055">
        <ele>461.3</ele>
        <time>2021-08-10T12:14:35Z</time>
      </trkpt>
      <trkpt lat="47.45978" lon="6.91057">
        <ele>461.4</ele>
        <time>2021-08-10T12:14:36Z</time>
      </trkpt>
      <trkpt lat="47.45976" lon="6.91059">
        <ele>461.5</ele>
        <time>2021-08-10T12:14:38Z</time>
      </trkpt>
      <trkpt lat="47.45974" lon="6.91062">
        <ele>461.8</ele>
        <time>2021-08-10T12:14:39Z</time>
      </trkpt>
      <trkpt lat="47.45973" lon="6.91064">
        <ele>461.8</ele>
        <time>2021-08-10T12:14:40Z</time>
      </trkpt>
      <trkpt lat="47.45971" lon="6.91066">
        <ele>462</ele>
        <time>2021-08-10T12:14:41Z</time>
      </trkpt>
      <trkpt lat="47.45969" lon="6.91068">
        <ele>462.1</ele>
        <time>2021-08-10T12:14:43Z</time>
      </trkpt>
      <trkpt lat="47.45966" lon="6.91069">
        <ele>462.3</ele>
        <time>2021-08-10T12:14:44Z</time>
      </trkpt>
      <trkpt lat="47.45965" lon="6.91071">
        <ele>462.4</ele>
        <time>2021-08-10T12:14:45Z</time>
      </trkpt>
      <trkpt lat="47.45963" lon="6.91072">
        <ele>462.6</ele>
        <time>2021-08-10T12:14:46Z</time>
      </trkpt>
      <trkpt lat="47.45963" lon="6.91072">
        <ele>462.6</ele>
        <time>2021-08-10T12:14:48Z</time>
      </trkpt>
      <trkpt lat="47.45962" lon="6.91072">
        <ele>462.6</ele>
        <time>2021-08-10T12:14:49Z</time>
      </trkpt>
      <trkpt lat="47.45962" lon="6.91072">
        <ele>462.7</ele>
        <time>2021-08-10T12:14:51Z</time>
      </trkpt>
      <trkpt lat="47.45962" lon="6.91072">
        <ele>462.7</ele>
        <time>2021-08-10T12:14:52Z</time>
      </trkpt>
      <trkpt lat="47.4596" lon="6.91072">
        <ele>462.8</ele>
        <time>2021-08-10T12:14:53Z</time>
      </trkpt>
      <trkpt lat="47.45958" lon="6.91074">
        <ele>463</ele>
        <time>2021-08-10T12:14:54Z</time>
      </trkpt>
      <trkpt lat="47.45957" lon="6.91074">
        <ele>463.1</ele>
        <time>2021-08-10T12:14:55Z</time>
      </trkpt>
      <trkpt lat="47.45955" lon="6.91075">
        <ele>463.2</ele>
        <time>2021-08-10T12:14:56Z</time>
      </trkpt>
      <trkpt lat="47.45954" lon="6.91078">
        <ele>463.4</ele>
        <time>2021-08-10T12:14:58Z</time>
      </trkpt>
      <trkpt lat="47.45953" lon="6.9108">
        <ele>463.5</ele>
        <time>2021-08-10T12:14:59Z</time>
      </trkpt>
      <trkpt lat="47.45952" lon="6.91082">
        <ele>463.7</ele>
        <time>2021-08-10T12:15:01Z</time>
      </trkpt>
      <trkpt lat="47.4595" lon="6.91084">
        <ele>463.9</ele>
        <time>2021-08-10T12:15:03Z</time>
      </trkpt>
      <trkpt lat="47.4595" lon="6.91085">
        <ele>463.9</ele>
        <time>2021-08-10T12:15:04Z</time>
      </trkpt>
      <trkpt lat="47.4595" lon="6.91086">
        <ele>464</ele>
        <time>2021-08-10T12:15:05Z</time>
      </trkpt>
      <trkpt lat="47.4595" lon="6.91086">
        <ele>464</ele>
        <time>2021-08-10T12:15:06Z</time>
      </trkpt>
      <trkpt lat="47.4595" lon="6.91087">
        <ele>464.1</ele>
        <time>2021-08-10T12:15:07Z</time>
      </trkpt>
      <trkpt lat="47.4595" lon="6.91087">
        <ele>464.1</ele>
        <time>2021-08-10T12:15:09Z</time>
      </trkpt>
      <trkpt lat="47.4595" lon="6.91088">
        <ele>464.1</ele>
        <time>2021-08-10T12:15:10Z</time>
      </trkpt>
      <trkpt lat="47.4595" lon="6.91088">
        <ele>464.1</ele>
        <time>2021-08-10T12:15:11Z</time>
      </trkpt>
      <trkpt lat="47.4595" lon="6.91088">
        <ele>464.1</ele>
        <time>2021-08-10T12:15:12Z</time>
      </trkpt>
      <trkpt lat="47.4595" lon="6.91088">
        <ele>464.1</ele>
        <time>2021-08-10T12:15:14Z</time>
      </trkpt>
      <trkpt lat="47.45934" lon="6.91101">
        <ele>465.9</ele>
        <time>2021-08-10T12:15:30Z</time>
      </trkpt>
      <trkpt lat="47.45932" lon="6.91104">
        <ele>466.1</ele>
        <time>2021-08-10T12:15:31Z</time>
      </trkpt>
      <trkpt lat="47.4593" lon="6.91107">
        <ele>466.4</ele>
        <time>2021-08-10T12:15:33Z</time>
      </trkpt>
      <trkpt lat="47.45927" lon="6.91109">
        <ele>466.6</ele>
        <time>2021-08-10T12:15:34Z</time>
      </trkpt>
      <trkpt lat="47.45926" lon="6.91111">
        <ele>466.8</ele>
        <time>2021-08-10T12:15:36Z</time>
      </trkpt>
      <trkpt lat="47.45925" lon="6.91113">
        <ele>466.9</ele>
        <time>2021-08-10T12:15:37Z</time>
      </trkpt>
      <trkpt lat="47.45923" lon="6.91117">
        <ele>467.2</ele>
        <time>2021-08-10T12:15:38Z</time>
      </trkpt>
      <trkpt lat="47.45922" lon="6.91119">
        <ele>467.3</ele>
        <time>2021-08-10T12:15:39Z</time>
      </trkpt>
      <trkpt lat="47.45922" lon="6.91121">
        <ele>467.4</ele>
        <time>2021-08-10T12:15:41Z</time>
      </trkpt>
      <trkpt lat="47.45922" lon="6.91122">
        <ele>467.4</ele>
        <time>2021-08-10T12:15:42Z</time>
      </trkpt>
      <trkpt lat="47.45922" lon="6.91122">
        <ele>467.4</ele>
        <time>2021-08-10T12:15:43Z</time>
      </trkpt>
      <trkpt lat="47.45922" lon="6.91122">
        <ele>467.4</ele>
        <time>2021-08-10T12:15:44Z</time>
      </trkpt>
      <trkpt lat="47.45922" lon="6.91122">
        <ele>467.5</ele>
        <time>2021-08-10T12:15:46Z</time>
      </trkpt>
      <trkpt lat="47.45922" lon="6.91122">
        <ele>467.5</ele>
        <time>2021-08-10T12:15:47Z</time>
      </trkpt>
      <trkpt lat="47.45922" lon="6.91123">
        <ele>467.5</ele>
        <time>2021-08-10T12:15:48Z</time>
      </trkpt>
      <trkpt lat="47.45922" lon="6.91123">
        <ele>467.5</ele>
        <time>2021-08-10T12:15:49Z</time>
      </trkpt>
      <trkpt lat="47.45922" lon="6.91123">
        <ele>467.5</ele>
        <time>2021-08-10T12:15:51Z</time>
      </trkpt>
      <trkpt lat="47.45898" lon="6.91182">
        <ele>469.8</ele>
        <time>2021-08-10T12:16:31Z</time>
      </trkpt>
      <trkpt lat="47.45895" lon="6.91187">
        <ele>470</ele>
        <time>2021-08-10T12:16:33Z</time>
      </trkpt>
      <trkpt lat="47.45894" lon="6.91191">
        <ele>470.2</ele>
        <time>2021-08-10T12:16:34Z</time>
      </trkpt>
      <trkpt lat="47.45892" lon="6.91196">
        <ele>470.4</ele>
        <time>2021-08-10T12:16:35Z</time>
      </trkpt>
      <trkpt lat="47.45891" lon="6.91199">
        <ele>470.6</ele>
        <time>2021-08-10T12:16:36Z</time>
      </trkpt>
      <trkpt lat="47.45889" lon="6.91203">
        <ele>470.8</ele>
        <time>2021-08-10T12:16:37Z</time>
      </trkpt>
      <trkpt lat="47.45886" lon="6.91207">
        <ele>471</ele>
        <time>2021-08-10T12:16:39Z</time>
      </trkpt>
      <trkpt lat="47.45886" lon="6.91209">
        <ele>471.1</ele>
        <time>2021-08-10T12:16:40Z</time>
      </trkpt>
      <trkpt lat="47.45885" lon="6.91211">
        <ele>471.2</ele>
        <time>2021-08-10T12:16:41Z</time>
      </trkpt>
      <trkpt lat="47.45884" lon="6.91213">
        <ele>471.3</ele>
        <time>2021-08-10T12:16:43Z</time>
      </trkpt>
      <trkpt lat="47.45884" lon="6.91213">
        <ele>471.4</ele>
        <time>2021-08-10T12:16:44Z</time>
      </trkpt>
      <trkpt lat="47.45883" lon="6.91214">
        <ele>471.4</ele>
        <time>2021-08-10T12:16:45Z</time>
      </trkpt>
      <trkpt lat="47.45882" lon="6.91214">
        <ele>471.5</ele>
        <time>2021-08-10T12:16:47Z</time>
      </trkpt>
      <trkpt lat="47.45882" lon="6.91215">
        <ele>471.5</ele>
        <time>2021-08-10T12:16:48Z</time>
      </trkpt>
      <trkpt lat="47.45881" lon="6.91215">
        <ele>471.6</ele>
        <time>2021-08-10T12:16:50Z</time>
      </trkpt>
      <trkpt lat="47.45881" lon="6.91216">
        <ele>471.6</ele>
        <time>2021-08-10T12:16:51Z</time>
      </trkpt>
      <trkpt lat="47.4588" lon="6.91216">
        <ele>471.7</ele>
        <time>2021-08-10T12:16:52Z</time>
      </trkpt>
      <trkpt lat="47.45878" lon="6.91217">
        <ele>471.8</ele>
        <time>2021-08-10T12:16:53Z</time>
      </trkpt>
      <trkpt lat="47.45786" lon="6.91299">
        <ele>509.5</ele>
        <time>2021-08-10T12:19:34Z</time>
      </trkpt>
      <trkpt lat="47.45786" lon="6.913">
        <ele>509.5</ele>
        <time>2021-08-10T12:19:35Z</time>
      </trkpt>
      <trkpt lat="47.45783" lon="6.91303">
        <ele>510.3</ele>
        <time>2021-08-10T12:19:37Z</time>
      </trkpt>
      <trkpt lat="47.45781" lon="6.91303">
        <ele>510.9</ele>
        <time>2021-08-10T12:19:39Z</time>
      </trkpt>
      <trkpt lat="47.45779" lon="6.91304">
        <ele>511</ele>
        <time>2021-08-10T12:19:41Z</time>
      </trkpt>
      <trkpt lat="47.45779" lon="6.91304">
        <ele>511</ele>
        <time>2021-08-10T12:19:42Z</time>
      </trkpt>
      <trkpt lat="47.45778" lon="6.91305">
        <ele>511.1</ele>
        <time>2021-08-10T12:19:44Z</time>
      </trkpt>
      <trkpt lat="47.45777" lon="6.91305">
        <ele>511.5</ele>
        <time>2021-08-10T12:19:46Z</time>
      </trkpt>
      <trkpt lat="47.45531" lon="6.91494">
        <ele>549</ele>
        <time>2021-08-10T12:39:52Z</time>
      </trkpt>
      <trkpt lat="47.45527" lon="6.91491">
        <ele>549.4</ele>
        <time>2021-08-10T12:39:53Z</time>
      </trkpt>
      <trkpt lat="47.45524" lon="6.91489">
        <ele>549.6</ele>
        <time>2021-08-10T12:39:54Z</time>
      </trkpt>
      <trkpt lat="47.45523" lon="6.91488">
        <ele>549.7</ele>
        <time>2021-08-10T12:39:55Z</time>
      </trkpt>
      <trkpt lat="47.45522" lon="6.91488">
        <ele>549.7</ele>
        <time>2021-08-10T12:39:57Z</time>
      </trkpt>
      <trkpt lat="47.45522" lon="6.91487">
        <ele>549.8</ele>
        <time>2021-08-10T12:39:58Z</time>
      </trkpt>
      <trkpt lat="47.45522" lon="6.91487">
        <ele>549.8</ele>
        <time>2021-08-10T12:39:59Z</time>
      </trkpt>
      <trkpt lat="47.45522" lon="6.91487">
        <ele>549.8</ele>
        <time>2021-08-10T12:40:00Z</time>
      </trkpt>
      <trkpt lat="47.45522" lon="6.91487">
        <ele>549.8</ele>
        <time>2021-08-10T12:40:01Z</time>
      </trkpt>
      <trkpt lat="47.45521" lon="6.91487">
        <ele>549.8</ele>
        <time>2021-08-10T12:40:03Z</time>
      </trkpt>
      <trkpt lat="47.45521" lon="6.91487">
        <ele>549.8</ele>
        <time>2021-08-10T12:40:04Z</time>
      </trkpt>
      <trkpt lat="47.45521" lon="6.91487">
        <ele>549.8</ele>
        <time>2021-08-10T12:40:06Z</time>
      </trkpt>
      <trkpt lat="47.45521" lon="6.91487">
        <ele>549.9</ele>
        <time>2021-08-10T12:40:07Z</time>
      </trkpt>
      <trkpt lat="47.45521" lon="6.91487">
        <ele>549.9</ele>
        <time>2021-08-10T12:40:08Z</time>
      </trkpt>
      <trkpt lat="47.45417" lon="6.9151">
        <ele>555.9</ele>
        <time>2021-08-10T12:42:39Z</time>
      </trkpt>
      <trkpt lat="47.45413" lon="6.91509">
        <ele>556</ele>
        <time>2021-08-10T12:42:41Z</time>
      </trkpt>
      <trkpt lat="47.4541" lon="6.91508">
        <ele>556.2</ele>
        <time>2021-08-10T12:42:42Z</time>
      </trkpt>
      <trkpt lat="47.45407" lon="6.91506">
        <ele>556.3</ele>
        <time>2021-08-10T12:42:44Z</time>
      </trkpt>
      <trkpt lat="47.45406" lon="6.91505">
        <ele>556.3</ele>
        <time>2021-08-10T12:42:45Z</time>
      </trkpt>
      <trkpt lat="47.45402" lon="6.91504">
        <ele>556.5</ele>
        <time>2021-08-10T12:42:47Z</time>
      </trkpt>
      <trkpt lat="47.45401" lon="6.91503">
        <ele>556.5</ele>
        <time>2021-08-10T12:42:48Z</time>
      </trkpt>
      <trkpt lat="47.45398" lon="6.915">
        <ele>556.6</ele>
        <time>2021-08-10T12:42:49Z</time>
      </trkpt>
      <trkpt lat="47.45398" lon="6.915">
        <ele>556.7</ele>
        <time>2021-08-10T12:42:50Z</time>
      </trkpt>
      <trkpt lat="47.45397" lon="6.91498">
        <ele>556.7</ele>
        <time>2021-08-10T12:42:51Z</time>
      </trkpt>
      <trkpt lat="47.45396" lon="6.91496">
        <ele>556.8</ele>
        <time>2021-08-10T12:42:53Z</time>
      </trkpt>
      <trkpt lat="47.45396" lon="6.91496">
        <ele>556.8</ele>
        <time>2021-08-10T12:42:54Z</time>
      </trkpt>
      <trkpt lat="47.45394" lon="6.91494">
        <ele>556.9</ele>
        <time>2021-08-10T12:42:55Z</time>
      </trkpt>
      <trkpt lat="47.45393" lon="6.91493">
        <ele>557</ele>
        <time>2021-08-10T12:42:57Z</time>
      </trkpt>
      <trkpt lat="47.45391" lon="6.91491">
        <ele>557</ele>
        <time>2021-08-10T12:42:58Z</time>
      </trkpt>
      <trkpt lat="47.45389" lon="6.9149">
        <ele>557.1</ele>
        <time>2021-08-10T12:43:00Z</time>
      </trkpt>
      <trkpt lat="47.45288" lon="6.91416">
        <ele>560.6</ele>
        <time>2021-08-10T12:44:01Z</time>
      </trkpt>
      <trkpt lat="47.45284" lon="6.91413">
        <ele>560.8</ele>
        <time>2021-08-10T12:44:03Z</time>
      </trkpt>
      <trkpt lat="47.4528" lon="6.9141">
        <ele>560.9</ele>
        <time>2021-08-10T12:44:04Z</time>
      </trkpt>
      <trkpt lat="47.45272" lon="6.91405">
        <ele>561.3</ele>
        <time>2021-08-10T12:44:06Z</time>
      </trkpt>
      <trkpt lat="47.45268" lon="6.91402">
        <ele>561.5</ele>
        <time>2021-08-10T12:44:07Z</time>
      </trkpt>
      <trkpt lat="47.45265" lon="6.91399">
        <ele>561.7</ele>
        <time>2021-08-10T12:44:08Z</time>
      </trkpt>
      <trkpt lat="47.45261" lon="6.91397">
        <ele>561.9</ele>
        <time>2021-08-10T12:44:09Z</time>
      </trkpt>
      <trkpt lat="47.45257" lon="6.91395">
        <ele>562.2</ele>
        <time>2021-08-10T12:44:10Z</time>
      </trkpt>
      <trkpt lat="47.45254" lon="6.91394">
        <ele>562.4</ele>
        <time>2021-08-10T12:44:11Z</time>
      </trkpt>
      <trkpt lat="47.45251" lon="6.91395">
        <ele>562.6</ele>
        <time>2021-08-10T12:44:13Z</time>
      </trkpt>
      <trkpt lat="47.4525" lon="6.91395">
        <ele>562.6</ele>
        <time>2021-08-10T12:44:14Z</time>
      </trkpt>
      <trkpt lat="47.45248" lon="6.91396">
        <ele>562.7</ele>
        <time>2021-08-10T12:44:15Z</time>
      </trkpt>
      <trkpt lat="47.45247" lon="6.91396">
        <ele>562.8</ele>
        <time>2021-08-10T12:44:16Z</time>
      </trkpt>
      <trkpt lat="47.45247" lon="6.91396">
        <ele>562.8</ele>
        <time>2021-08-10T12:44:17Z</time>
      </trkpt>
      <trkpt lat="47.45247" lon="6.91396">
        <ele>562.8</ele>
        <time>2021-08-10T12:44:18Z</time>
      </trkpt>
      <trkpt lat="47.45246" lon="6.91395">
        <ele>562.9</ele>
        <time>2021-08-10T12:44:19Z</time>
      </trkpt>
      <trkpt lat="47.45243" lon="6.91393">
        <ele>563.1</ele>
        <time>2021-08-10T12:44:21Z</time>
      </trkpt>
      <trkpt lat="47.45242" lon="6.91392">
        <ele>563.2</ele>
        <time>2021-08-10T12:44:22Z</time>
      </trkpt>
      <trkpt lat="47.45241" lon="6.91392">
        <ele>563.3</ele>
        <time>2021-08-10T12:44:24Z</time>
      </trkpt>
      <trkpt lat="47.45241" lon="6.91392">
        <ele>563.3</ele>
        <time>2021-08-10T12:44:25Z</time>
      </trkpt>
      <trkpt lat="47.4524" lon="6.91393">
        <ele>563.4</ele>
        <time>2021-08-10T12:44:27Z</time>
      </trkpt>
      <trkpt lat="47.45239" lon="6.91394">
        <ele>563.5</ele>
        <time>2021-08-10T12:44:29Z</time>
      </trkpt>
      <trkpt lat="47.45239" lon="6.91396">
        <ele>563.6</ele>
        <time>2021-08-10T12:44:30Z</time>
      </trkpt>
      <trkpt lat="47.45238" lon="6.91398">
        <ele>563.7</ele>
        <time>2021-08-10T12:44:32Z</time>
      </trkpt>
      <trkpt lat="47.45237" lon="6.91399">
        <ele>563.8</ele>
        <time>2021-08-10T12:44:33Z</time>
      </trkpt>
      <trkpt lat="47.45237" lon="6.914">
        <ele>563.9</ele>
        <time>2021-08-10T12:44:34Z</time>
      </trkpt>
      <trkpt lat="47.45236" lon="6.91401">
        <ele>563.9</ele>
        <time>2021-08-10T12:44:35Z</time>
      </trkpt>
      <trkpt lat="47.45235" lon="6.91401">
        <ele>564</ele>
        <time>2021-08-10T12:44:36Z</time>
      </trkpt>
      <trkpt lat="47.45232" lon="6.91402">
        <ele>564.2</ele>
        <time>2021-08-10T12:44:38Z</time>
      </trkpt>
      <trkpt lat="47.45231" lon="6.91403">
        <ele>564.3</ele>
        <time>2021-08-10T12:44:39Z</time>
      </trkpt>
      <trkpt lat="47.45201" lon="6.91396">
        <ele>566.3</ele>
        <time>2021-08-10T12:45:02Z</time>
      </trkpt>
      <trkpt lat="47.45196" lon="6.91395">
        <ele>566.6</ele>
        <time>2021-08-10T12:45:04Z</time>
      </trkpt>
      <trkpt lat="47.45191" lon="6.91395">
        <ele>566.9</ele>
        <time>2021-08-10T12:45:05Z</time>
      </trkpt>
      <trkpt lat="47.45189" lon="6.91396">
        <ele>567</ele>
        <time>2021-08-10T12:45:06Z</time>
      </trkpt>
      <trkpt lat="47.45185" lon="6.91399">
        <ele>567.2</ele>
        <time>2021-08-10T12:45:08Z</time>
      </trkpt>
      <trkpt lat="47.45182" lon="6.91401">
        <ele>567.3</ele>
        <time>2021-08-10T12:45:09Z</time>
      </trkpt>
      <trkpt lat="47.45178" lon="6.91403">
        <ele>567.5</ele>
        <time>2021-08-10T12:45:11Z</time>
      </trkpt>
      <trkpt lat="47.45176" lon="6.91405">
        <ele>567.6</ele>
        <time>2021-08-10T12:45:12Z</time>
      </trkpt>
      <trkpt lat="47.45173" lon="6.91408">
        <ele>567.7</ele>
        <time>2021-08-10T12:45:13Z</time>
      </trkpt>
      <trkpt lat="47.45172" lon="6.91408">
        <ele>567.7</ele>
        <time>2021-08-10T12:45:14Z</time>
      </trkpt>
      <trkpt lat="47.4517" lon="6.9141">
        <ele>567.8</ele>
        <time>2021-08-10T12:45:15Z</time>
      </trkpt>
      <trkpt lat="47.45167" lon="6.9141">
        <ele>567.9</ele>
        <time>2021-08-10T12:45:17Z</time>
      </trkpt>
      <trkpt lat="47.45164" lon="6.91409">
        <ele>567.9</ele>
        <time>2021-08-10T12:45:18Z</time>
      </trkpt>
      <trkpt lat="47.45162" lon="6.91408">
        <ele>568</ele>
        <time>2021-08-10T12:45:19Z</time>
      </trkpt>
      <trkpt lat="47.45159" lon="6.91408">
        <ele>568.1</ele>
        <time>2021-08-10T12:45:20Z</time>
      </trkpt>
      <trkpt lat="47.45158" lon="6.91408">
        <ele>568.1</ele>
        <time>2021-08-10T12:45:21Z</time>
      </trkpt>
      <trkpt lat="47.45155" lon="6.9141">
        <ele>568.2</ele>
        <time>2021-08-10T12:45:22Z</time>
      </trkpt>
      <trkpt lat="47.45153" lon="6.91414">
        <ele>568.3</ele>
        <time>2021-08-10T12:45:24Z</time>
      </trkpt>
      <trkpt lat="47.45152" lon="6.91415">
        <ele>568.4</ele>
        <time>2021-08-10T12:45:25Z</time>
      </trkpt>
      <trkpt lat="47.4515" lon="6.91422">
        <ele>568.5</ele>
        <time>2021-08-10T12:45:27Z</time>
      </trkpt>
      <trkpt lat="47.45149" lon="6.91424">
        <ele>568.6</ele>
        <time>2021-08-10T12:45:28Z</time>
      </trkpt>
      <trkpt lat="47.45146" lon="6.91426">
        <ele>568.7</ele>
        <time>2021-08-10T12:45:30Z</time>
      </trkpt>
      <trkpt lat="47.45143" lon="6.91426">
        <ele>568.8</ele>
        <time>2021-08-10T12:45:32Z</time>
      </trkpt>
      <trkpt lat="47.45139" lon="6.91426">
        <ele>568.9</ele>
        <time>2021-08-10T12:45:33Z</time>
      </trkpt>
      <trkpt lat="47.45135" lon="6.91427">
        <ele>569</ele>
        <time>2021-08-10T12:45:35Z</time>
      </trkpt>
      <trkpt lat="47.45132" lon="6.91425">
        <ele>569.1</ele>
        <time>2021-08-10T12:45:36Z</time>
      </trkpt>
      <trkpt lat="47.45129" lon="6.91424">
        <ele>569.2</ele>
        <time>2021-08-10T12:45:37Z</time>
      </trkpt>
      <trkpt lat="47.45122" lon="6.91422">
        <ele>569.4</ele>
        <time>2021-08-10T12:45:39Z</time>
      </trkpt>
      <trkpt lat="47.45121" lon="6.91421">
        <ele>569.5</ele>
        <time>2021-08-10T12:45:40Z</time>
      </trkpt>
      <trkpt lat="47.45114" lon="6.91417">
        <ele>569.7</ele>
        <time>2021-08-10T12:45:42Z</time>
      </trkpt>
      <trkpt lat="47.45113" lon="6.91416">
        <ele>569.8</ele>
        <time>2021-08-10T12:45:43Z</time>
      </trkpt>
      <trkpt lat="47.45111" lon="6.91414">
        <ele>569.8</ele>
        <time>2021-08-10T12:45:44Z</time>
      </trkpt>
      <trkpt lat="47.45109" lon="6.91412">
        <ele>569.9</ele>
        <time>2021-08-10T12:45:45Z</time>
      </trkpt>
      <trkpt lat="47.45108" lon="6.91412">
        <ele>569.9</ele>
        <time>2021-08-10T12:45:46Z</time>
      </trkpt>
      <trkpt lat="47.45104" lon="6.91409">
        <ele>570.1</ele>
        <time>2021-08-10T12:45:48Z</time>
      </trkpt>
      <trkpt lat="47.451" lon="6.91407">
        <ele>570.2</ele>
        <time>2021-08-10T12:45:50Z</time>
      </trkpt>
      <trkpt lat="47.45097" lon="6.91406">
        <ele>570.3</ele>
        <time>2021-08-10T12:45:51Z</time>
      </trkpt>
      <trkpt lat="47.45094" lon="6.91405">
        <ele>570.4</ele>
        <time>2021-08-10T12:45:52Z</time>
      </trkpt>
      <trkpt lat="47.45092" lon="6.91404">
        <ele>570.5</ele>
        <time>2021-08-10T12:45:53Z</time>
      </trkpt>
      <trkpt lat="47.45089" lon="6.91402">
        <ele>570.6</ele>
        <time>2021-08-10T12:45:55Z</time>
      </trkpt>
      <trkpt lat="47.45086" lon="6.914">
        <ele>570.7</ele>
        <time>2021-08-10T12:45:56Z</time>
      </trkpt>
      <trkpt lat="47.45083" lon="6.91399">
        <ele>570.8</ele>
        <time>2021-08-10T12:45:57Z</time>
      </trkpt>
      <trkpt lat="47.45079" lon="6.91397">
        <ele>570.9</ele>
        <time>2021-08-10T12:45:59Z</time>
      </trkpt>
      <trkpt lat="47.45077" lon="6.91396">
        <ele>570.9</ele>
        <time>2021-08-10T12:46:00Z</time>
      </trkpt>
      <trkpt lat="47.45074" lon="6.91394">
        <ele>571</ele>
        <time>2021-08-10T12:46:02Z</time>
      </trkpt>
      <trkpt lat="47.45071" lon="6.91392">
        <ele>571.1</ele>
        <time>2021-08-10T12:46:03Z</time>
      </trkpt>
      <trkpt lat="47.4507" lon="6.91391">
        <ele>571.2</ele>
        <time>2021-08-10T12:46:05Z</time>
      </trkpt>
      <trkpt lat="47.45067" lon="6.9139">
        <ele>571.3</ele>
        <time>2021-08-10T12:46:06Z</time>
      </trkpt>
      <trkpt lat="47.45066" lon="6.91389">
        <ele>571.3</ele>
        <time>2021-08-10T12:46:07Z</time>
      </trkpt>
      <trkpt lat="47.45063" lon="6.91387">
        <ele>571.4</ele>
        <time>2021-08-10T12:46:09Z</time>
      </trkpt>
      <trkpt lat="47.45062" lon="6.91387">
        <ele>571.4</ele>
        <time>2021-08-10T12:46:10Z</time>
      </trkpt>
      <trkpt lat="47.45059" lon="6.91386">
        <ele>571.5</ele>
        <time>2021-08-10T12:46:11Z</time>
      </trkpt>
      <trkpt lat="47.45058" lon="6.91385">
        <ele>571.5</ele>
        <time>2021-08-10T12:46:12Z</time>
      </trkpt>
      <trkpt lat="47.45053" lon="6.91383">
        <ele>571.6</ele>
        <time>2021-08-10T12:46:14Z</time>
      </trkpt>
      <trkpt lat="47.45046" lon="6.91381">
        <ele>571.8</ele>
        <time>2021-08-10T12:46:16Z</time>
      </trkpt>
      <trkpt lat="47.45043" lon="6.91379">
        <ele>571.9</ele>
        <time>2021-08-10T12:46:17Z</time>
      </trkpt>
      <trkpt lat="47.45041" lon="6.91379">
        <ele>571.9</ele>
        <time>2021-08-10T12:46:18Z</time>
      </trkpt>
      <trkpt lat="47.45038" lon="6.91379">
        <ele>572</ele>
        <time>2021-08-10T12:46:20Z</time>
      </trkpt>
      <trkpt lat="47.45036" lon="6.91378">
        <ele>572</ele>
        <time>2021-08-10T12:46:21Z</time>
      </trkpt>
      <trkpt lat="47.45035" lon="6.91377">
        <ele>572</ele>
        <time>2021-08-10T12:46:22Z</time>
      </trkpt>
      <trkpt lat="47.45032" lon="6.91377">
        <ele>572.1</ele>
        <time>2021-08-10T12:46:23Z</time>
      </trkpt>
      <trkpt lat="47.45031" lon="6.91377">
        <ele>572.1</ele>
        <time>2021-08-10T12:46:24Z</time>
      </trkpt>
      <trkpt lat="47.45028" lon="6.91376">
        <ele>572.1</ele>
        <time>2021-08-10T12:46:25Z</time>
      </trkpt>
      <trkpt lat="47.45026" lon="6.91376">
        <ele>572.2</ele>
        <time>2021-08-10T12:46:27Z</time>
      </trkpt>
      <trkpt lat="47.45026" lon="6.91376">
        <ele>572.2</ele>
        <time>2021-08-10T12:46:28Z</time>
      </trkpt>
      <trkpt lat="47.45022" lon="6.91377">
        <ele>572.3</ele>
        <time>2021-08-10T12:46:30Z</time>
      </trkpt>
      <trkpt lat="47.45019" lon="6.91378">
        <ele>572.3</ele>
        <time>2021-08-10T12:46:31Z</time>
      </trkpt>
      <trkpt lat="47.45015" lon="6.91378">
        <ele>572.4</ele>
        <time>2021-08-10T12:46:32Z</time>
      </trkpt>
      <trkpt lat="47.4501" lon="6.9138">
        <ele>572.5</ele>
        <time>2021-08-10T12:46:34Z</time>
      </trkpt>
      <trkpt lat="47.45009" lon="6.9138">
        <ele>572.5</ele>
        <time>2021-08-10T12:46:35Z</time>
      </trkpt>
      <trkpt lat="47.45007" lon="6.9138">
        <ele>572.5</ele>
        <time>2021-08-10T12:46:36Z</time>
      </trkpt>
      <trkpt lat="47.45003" lon="6.9138">
        <ele>572.6</ele>
        <time>2021-08-10T12:46:37Z</time>
      </trkpt>
      <trkpt lat="47.45002" lon="6.9138">
        <ele>572.7</ele>
        <time>2021-08-10T12:46:38Z</time>
      </trkpt>
      <trkpt lat="47.45001" lon="6.91381">
        <ele>572.7</ele>
        <time>2021-08-10T12:46:39Z</time>
      </trkpt>
      <trkpt lat="47.44999" lon="6.91381">
        <ele>572.7</ele>
        <time>2021-08-10T12:46:41Z</time>
      </trkpt>
      <trkpt lat="47.44998" lon="6.91381">
        <ele>572.8</ele>
        <time>2021-08-10T12:46:42Z</time>
      </trkpt>
      <trkpt lat="47.44997" lon="6.91381">
        <ele>572.8</ele>
        <time>2021-08-10T12:46:43Z</time>
      </trkpt>
      <trkpt lat="47.44996" lon="6.9138">
        <ele>572.9</ele>
        <time>2021-08-10T12:46:44Z</time>
      </trkpt>
      <trkpt lat="47.44996" lon="6.9138">
        <ele>572.9</ele>
        <time>2021-08-10T12:46:46Z</time>
      </trkpt>
      <trkpt lat="47.44995" lon="6.9138">
        <ele>572.9</ele>
        <time>2021-08-10T12:46:47Z</time>
      </trkpt>
      <trkpt lat="47.44992" lon="6.91379">
        <ele>573</ele>
        <time>2021-08-10T12:46:49Z</time>
      </trkpt>
      <trkpt lat="47.44991" lon="6.91378">
        <ele>573</ele>
        <time>2021-08-10T12:46:50Z</time>
      </trkpt>
      <trkpt lat="47.4499" lon="6.91378">
        <ele>573.1</ele>
        <time>2021-08-10T12:46:51Z</time>
      </trkpt>
      <trkpt lat="47.44988" lon="6.91378">
        <ele>573.2</ele>
        <time>2021-08-10T12:46:52Z</time>
      </trkpt>
      <trkpt lat="47.44984" lon="6.91373">
        <ele>573.4</ele>
        <time>2021-08-10T12:46:54Z</time>
      </trkpt>
      <trkpt lat="47.44981" lon="6.9137">
        <ele>573.6</ele>
        <time>2021-08-10T12:46:55Z</time>
      </trkpt>
      <trkpt lat="47.44979" lon="6.91367">
        <ele>573.7</ele>
        <time>2021-08-10T12:46:56Z</time>
      </trkpt>
      <trkpt lat="47.44976" lon="6.91363">
        <ele>573.9</ele>
        <time>2021-08-10T12:46:58Z</time>
      </trkpt>
      <trkpt lat="47.44974" lon="6.91359">
        <ele>574.1</ele>
        <time>2021-08-10T12:46:59Z</time>
      </trkpt>
      <trkpt lat="47.4497" lon="6.91354">
        <ele>574.4</ele>
        <time>2021-08-10T12:47:00Z</time>
      </trkpt>
      <trkpt lat="47.4497" lon="6.91354">
        <ele>574.4</ele>
        <time>2021-08-10T12:47:02Z</time>
      </trkpt>
      <trkpt lat="47.4497" lon="6.91354">
        <ele>574.4</ele>
        <time>2021-08-10T12:47:03Z</time>
      </trkpt>
      <trkpt lat="47.44968" lon="6.91352">
        <ele>574.5</ele>
        <time>2021-08-10T12:47:04Z</time>
      </trkpt>
      <trkpt lat="47.44966" lon="6.9135">
        <ele>574.6</ele>
        <time>2021-08-10T12:47:06Z</time>
      </trkpt>
      <trkpt lat="47.44964" lon="6.91348">
        <ele>574.8</ele>
        <time>2021-08-10T12:47:07Z</time>
      </trkpt>
      <trkpt lat="47.44961" lon="6.91346">
        <ele>574.9</ele>
        <time>2021-08-10T12:47:08Z</time>
      </trkpt>
      <trkpt lat="47.44959" lon="6.91344">
        <ele>575.1</ele>
        <time>2021-08-10T12:47:10Z</time>
      </trkpt>
      <trkpt lat="47.44956" lon="6.91343">
        <ele>575.3</ele>
        <time>2021-08-10T12:47:11Z</time>
      </trkpt>
      <trkpt lat="47.44954" lon="6.91342">
        <ele>575.4</ele>
        <time>2021-08-10T12:47:12Z</time>
      </trkpt>
      <trkpt lat="47.44951" lon="6.91341">
        <ele>575.5</ele>
        <time>2021-08-10T12:47:13Z</time>
      </trkpt>
      <trkpt lat="47.4495" lon="6.91341">
        <ele>575.5</ele>
        <time>2021-08-10T12:47:15Z</time>
      </trkpt>
      <trkpt lat="47.4495" lon="6.91341">
        <ele>575.6</ele>
        <time>2021-08-10T12:47:16Z</time>
      </trkpt>
      <trkpt lat="47.4495" lon="6.91341">
        <ele>575.6</ele>
        <time>2021-08-10T12:47:17Z</time>
      </trkpt>
      <trkpt lat="47.44949" lon="6.9134">
        <ele>575.6</ele>
        <time>2021-08-10T12:47:19Z</time>
      </trkpt>
      <trkpt lat="47.44949" lon="6.9134">
        <ele>575.6</ele>
        <time>2021-08-10T12:47:20Z</time>
      </trkpt>
      <trkpt lat="47.44949" lon="6.9134">
        <ele>575.6</ele>
        <time>2021-08-10T12:47:21Z</time>
      </trkpt>
      <trkpt lat="47.44949" lon="6.9134">
        <ele>575.6</ele>
        <time>2021-08-10T12:47:23Z</time>
      </trkpt>
      <trkpt lat="47.44949" lon="6.9134">
        <ele>575.6</ele>
        <time>2021-08-10T12:47:24Z</time>
      </trkpt>
      <trkpt lat="47.44949" lon="6.9134">
        <ele>575.6</ele>
        <time>2021-08-10T12:47:26Z</time>
      </trkpt>
      <trkpt lat="47.44949" lon="6.9134">
        <ele>575.6</ele>
        <time>2021-08-10T12:47:27Z</time>
      </trkpt>
      <trkpt lat="47.44949" lon="6.9134">
        <ele>575.6</ele>
        <time>2021-08-10T12:47:28Z</time>
      </trkpt>
      <trkpt lat="47.44949" lon="6.9134">
        <ele>575.6</ele>
        <time>2021-08-10T12:47:29Z</time>
      </trkpt>
      <trkpt lat="47.44949" lon="6.9134">
        <ele>575.7</ele>
        <time>2021-08-10T12:47:31Z</time>
      </trkpt>
      <trkpt lat="47.44825" lon="6.91301">
        <ele>585.3</ele>
        <time>2021-08-10T12:49:30Z</time>
      </trkpt>
      <trkpt lat="47.44823" lon="6.91299">
        <ele>585.4</ele>
        <time>2021-08-10T12:49:32Z</time>
      </trkpt>
      <trkpt lat="47.44822" lon="6.91298">
        <ele>585.5</ele>
        <time>2021-08-10T12:49:33Z</time>
      </trkpt>
      <trkpt lat="47.44822" lon="6.91298">
        <ele>585.6</ele>
        <time>2021-08-10T12:49:34Z</time>
      </trkpt>
      <trkpt lat="47.44821" lon="6.91297">
        <ele>585.6</ele>
        <time>2021-08-10T12:49:36Z</time>
      </trkpt>
      <trkpt lat="47.44821" lon="6.91297">
        <ele>585.6</ele>
        <time>2021-08-10T12:49:38Z</time>
      </trkpt>
      <trkpt lat="47.44821" lon="6.91297">
        <ele>585.6</ele>
        <time>2021-08-10T12:49:39Z</time>
      </trkpt>
      <trkpt lat="47.44821" lon="6.91296">
        <ele>585.7</ele>
        <time>2021-08-10T12:49:41Z</time>
      </trkpt>
      <trkpt lat="47.44821" lon="6.91296">
        <ele>585.7</ele>
        <time>2021-08-10T12:49:42Z</time>
      </trkpt>
      <trkpt lat="47.4482" lon="6.91296">
        <ele>585.7</ele>
        <time>2021-08-10T12:49:43Z</time>
      </trkpt>
      <trkpt lat="47.44691" lon="6.91297">
        <ele>594.2</ele>
        <time>2021-08-10T12:52:13Z</time>
      </trkpt>
      <trkpt lat="47.44687" lon="6.91297">
        <ele>594.4</ele>
        <time>2021-08-10T12:52:15Z</time>
      </trkpt>
      <trkpt lat="47.44683" lon="6.91296">
        <ele>594.6</ele>
        <time>2021-08-10T12:52:16Z</time>
      </trkpt>
      <trkpt lat="47.44675" lon="6.91293">
        <ele>594.8</ele>
        <time>2021-08-10T12:52:18Z</time>
      </trkpt>
      <trkpt lat="47.44671" lon="6.91292">
        <ele>594.8</ele>
        <time>2021-08-10T12:52:19Z</time>
      </trkpt>
      <trkpt lat="47.44667" lon="6.9129">
        <ele>594.8</ele>
        <time>2021-08-10T12:52:20Z</time>
      </trkpt>
      <trkpt lat="47.44661" lon="6.91289">
        <ele>594.8</ele>
        <time>2021-08-10T12:52:22Z</time>
      </trkpt>
      <trkpt lat="47.44656" lon="6.91289">
        <ele>594.6</ele>
        <time>2021-08-10T12:52:23Z</time>
      </trkpt>
      <trkpt lat="47.44653" lon="6.91289">
        <ele>594.5</ele>
        <time>2021-08-10T12:52:24Z</time>
      </trkpt>
      <trkpt lat="47.44648" lon="6.9129">
        <ele>594.2</ele>
        <time>2021-08-10T12:52:26Z</time>
      </trkpt>
      <trkpt lat="47.44646" lon="6.91292">
        <ele>594</ele>
        <time>2021-08-10T12:52:27Z</time>
      </trkpt>
      <trkpt lat="47.44641" lon="6.91293">
        <ele>593.8</ele>
        <time>2021-08-10T12:52:29Z</time>
      </trkpt>
      <trkpt lat="47.44639" lon="6.91292">
        <ele>593.6</ele>
        <time>2021-08-10T12:52:30Z</time>
      </trkpt>
      <trkpt lat="47.44635" lon="6.91291">
        <ele>593.3</ele>
        <time>2021-08-10T12:52:31Z</time>
      </trkpt>
      <trkpt lat="47.44633" lon="6.9129">
        <ele>593.1</ele>
        <time>2021-08-10T12:52:32Z</time>
      </trkpt>
      <trkpt lat="47.44629" lon="6.91289">
        <ele>592.8</ele>
        <time>2021-08-10T12:52:34Z</time>
      </trkpt>
      <trkpt lat="47.44628" lon="6.91289">
        <ele>592.7</ele>
        <time>2021-08-10T12:52:35Z</time>
      </trkpt>
      <trkpt lat="47.44628" lon="6.91289">
        <ele>592.7</ele>
        <time>2021-08-10T12:52:36Z</time>
      </trkpt>
      <trkpt lat="47.44627" lon="6.91289">
        <ele>592.6</ele>
        <time>2021-08-10T12:52:37Z</time>
      </trkpt>
      <trkpt lat="47.44627" lon="6.9129">
        <ele>592.6</ele>
        <time>2021-08-10T12:52:38Z</time>
      </trkpt>
      <trkpt lat="47.44626" lon="6.9129">
        <ele>592.5</ele>
        <time>2021-08-10T12:52:40Z</time>
      </trkpt>
      <trkpt lat="47.44626" lon="6.9129">
        <ele>592.5</ele>
        <time>2021-08-10T12:52:41Z</time>
      </trkpt>
      <trkpt lat="47.44626" lon="6.9129">
        <ele>592.5</ele>
        <time>2021-08-10T12:52:42Z</time>
      </trkpt>
      <trkpt lat="47.44614" lon="6.91295">
        <ele>591.3</ele>
        <time>2021-08-10T12:52:48Z</time>
      </trkpt>
      <trkpt lat="47.44608" lon="6.91301">
        <ele>590.6</ele>
        <time>2021-08-10T12:52:50Z</time>
      </trkpt>
      <trkpt lat="47.44601" lon="6.91309">
        <ele>589.8</ele>
        <time>2021-08-10T12:52:51Z</time>
      </trkpt>
      <trkpt lat="47.44596" lon="6.91314">
        <ele>589.1</ele>
        <time>2021-08-10T12:52:52Z</time>
      </trkpt>
      <trkpt lat="47.44586" lon="6.91321">
        <ele>588.2</ele>
        <time>2021-08-10T12:52:54Z</time>
      </trkpt>
      <trkpt lat="47.44579" lon="6.91326">
        <ele>587.5</ele>
        <time>2021-08-10T12:52:55Z</time>
      </trkpt>
      <trkpt lat="47.44572" lon="6.91331">
        <ele>586.7</ele>
        <time>2021-08-10T12:52:56Z</time>
      </trkpt>
      <trkpt lat="47.44566" lon="6.91336">
        <ele>586.1</ele>
        <time>2021-08-10T12:52:57Z</time>
      </trkpt>
      <trkpt lat="47.4456" lon="6.9134">
        <ele>585.5</ele>
        <time>2021-08-10T12:52:58Z</time>
      </trkpt>
      <trkpt lat="47.44554" lon="6.91344">
        <ele>585</ele>
        <time>2021-08-10T12:53:00Z</time>
      </trkpt>
      <trkpt lat="47.44549" lon="6.91351">
        <ele>584.5</ele>
        <time>2021-08-10T12:53:01Z</time>
      </trkpt>
      <trkpt lat="47.44544" lon="6.91359">
        <ele>584</ele>
        <time>2021-08-10T12:53:03Z</time>
      </trkpt>
      <trkpt lat="47.44541" lon="6.91362">
        <ele>583.8</ele>
        <time>2021-08-10T12:53:04Z</time>
      </trkpt>
      <trkpt lat="47.44537" lon="6.91366">
        <ele>583.5</ele>
        <time>2021-08-10T12:53:05Z</time>
      </trkpt>
      <trkpt lat="47.44534" lon="6.9137">
        <ele>583.2</ele>
        <time>2021-08-10T12:53:07Z</time>
      </trkpt>
      <trkpt lat="47.44531" lon="6.91372">
        <ele>583</ele>
        <time>2021-08-10T12:53:08Z</time>
      </trkpt>
      <trkpt lat="47.4453" lon="6.91372">
        <ele>583</ele>
        <time>2021-08-10T12:53:09Z</time>
      </trkpt>
      <trkpt lat="47.44529" lon="6.91374">
        <ele>582.9</ele>
        <time>2021-08-10T12:53:10Z</time>
      </trkpt>
      <trkpt lat="47.44529" lon="6.91374">
        <ele>582.9</ele>
        <time>2021-08-10T12:53:11Z</time>
      </trkpt>
      <trkpt lat="47.44529" lon="6.91374">
        <ele>582.8</ele>
        <time>2021-08-10T12:53:13Z</time>
      </trkpt>
      <trkpt lat="47.44528" lon="6.91373">
        <ele>582.8</ele>
        <time>2021-08-10T12:53:14Z</time>
      </trkpt>
      <trkpt lat="47.44528" lon="6.91372">
        <ele>582.8</ele>
        <time>2021-08-10T12:53:16Z</time>
      </trkpt>
      <trkpt lat="47.44528" lon="6.9137">
        <ele>582.7</ele>
        <time>2021-08-10T12:53:17Z</time>
      </trkpt>
      <trkpt lat="47.44521" lon="6.91369">
        <ele>582.3</ele>
        <time>2021-08-10T12:53:18Z</time>
      </trkpt>
      <trkpt lat="47.44515" lon="6.91369">
        <ele>582</ele>
        <time>2021-08-10T12:53:45Z</time>
      </trkpt>
      <trkpt lat="47.44509" lon="6.9137">
        <ele>581.6</ele>
        <time>2021-08-10T12:53:46Z</time>
      </trkpt>
      <trkpt lat="47.44503" lon="6.9137">
        <ele>581.3</ele>
        <time>2021-08-10T12:53:48Z</time>
      </trkpt>
      <trkpt lat="47.44497" lon="6.9137">
        <ele>580.9</ele>
        <time>2021-08-10T12:53:50Z</time>
      </trkpt>
      <trkpt lat="47.44491" lon="6.91371">
        <ele>580.5</ele>
        <time>2021-08-10T12:53:52Z</time>
      </trkpt>
      <trkpt lat="47.44485" lon="6.91371">
        <ele>580.2</ele>
        <time>2021-08-10T12:53:53Z</time>
      </trkpt>
      <trkpt lat="47.44479" lon="6.91372">
        <ele>579.9</ele>
        <time>2021-08-10T12:53:54Z</time>
      </trkpt>
      <trkpt lat="47.44473" lon="6.91372">
        <ele>579.7</ele>
        <time>2021-08-10T12:53:55Z</time>
      </trkpt>
      <trkpt lat="47.44467" lon="6.91372">
        <ele>579.5</ele>
        <time>2021-08-10T12:53:57Z</time>
      </trkpt>
      <trkpt lat="47.44461" lon="6.91373">
        <ele>579.3</ele>
        <time>2021-08-10T13:07:18Z</time>
      </trkpt>
      <trkpt lat="47.44455" lon="6.91373">
        <ele>578.9</ele>
        <time>2021-08-10T13:07:19Z</time>
      </trkpt>
      <trkpt lat="47.44448" lon="6.91376">
        <ele>578.5</ele>
        <time>2021-08-10T13:07:20Z</time>
      </trkpt>
      <trkpt lat="47.4444" lon="6.9138">
        <ele>578.1</ele>
        <time>2021-08-10T13:07:22Z</time>
      </trkpt>
      <trkpt lat="47.4443" lon="6.91385">
        <ele>577.5</ele>
        <time>2021-08-10T13:07:23Z</time>
      </trkpt>
      <trkpt lat="47.4442" lon="6.91392">
        <ele>577</ele>
        <time>2021-08-10T13:07:25Z</time>
      </trkpt>
      <trkpt lat="47.44411" lon="6.91397">
        <ele>576.5</ele>
        <time>2021-08-10T13:07:27Z</time>
      </trkpt>
      <trkpt lat="47.44401" lon="6.91401">
        <ele>576</ele>
        <time>2021-08-10T13:07:29Z</time>
      </trkpt>
      <trkpt lat="47.44391" lon="6.91407">
        <ele>575.5</ele>
        <time>2021-08-10T13:07:31Z</time>
      </trkpt>
      <trkpt lat="47.44386" lon="6.91411">
        <ele>575.3</ele>
        <time>2021-08-10T13:07:32Z</time>
      </trkpt>
      <trkpt lat="47.44381" lon="6.91415">
        <ele>575.1</ele>
        <time>2021-08-10T13:07:33Z</time>
      </trkpt>
      <trkpt lat="47.4437" lon="6.91423">
        <ele>574.7</ele>
        <time>2021-08-10T13:07:35Z</time>
      </trkpt>
      <trkpt lat="47.44364" lon="6.91427">
        <ele>574.5</ele>
        <time>2021-08-10T13:07:36Z</time>
      </trkpt>
      <trkpt lat="47.44354" lon="6.91438">
        <ele>574.1</ele>
        <time>2021-08-10T13:07:38Z</time>
      </trkpt>
      <trkpt lat="47.44349" lon="6.91445">
        <ele>574</ele>
        <time>2021-08-10T13:07:39Z</time>
      </trkpt>
      <trkpt lat="47.44344" lon="6.91452">
        <ele>573.8</ele>
        <time>2021-08-10T13:07:40Z</time>
      </trkpt>
      <trkpt lat="47.44333" lon="6.91466">
        <ele>573.6</ele>
        <time>2021-08-10T13:07:42Z</time>
      </trkpt>
      <trkpt lat="47.44328" lon="6.91473">
        <ele>573.5</ele>
        <time>2021-08-10T13:07:43Z</time>
      </trkpt>
      <trkpt lat="47.44323" lon="6.9148">
        <ele>573.4</ele>
        <time>2021-08-10T13:07:44Z</time>
      </trkpt>
      <trkpt lat="47.44318" lon="6.91486">
        <ele>573.3</ele>
        <time>2021-08-10T13:07:45Z</time>
      </trkpt>
      <trkpt lat="47.44308" lon="6.91497">
        <ele>573.4</ele>
        <time>2021-08-10T13:07:47Z</time>
      </trkpt>
      <trkpt lat="47.44302" lon="6.91502">
        <ele>573.4</ele>
        <time>2021-08-10T13:07:48Z</time>
      </trkpt>
      <trkpt lat="47.44297" lon="6.91507">
        <ele>573.5</ele>
        <time>2021-08-10T13:07:49Z</time>
      </trkpt>
      <trkpt lat="47.44286" lon="6.91515">
        <ele>573.7</ele>
        <time>2021-08-10T13:07:51Z</time>
      </trkpt>
      <trkpt lat="47.44275" lon="6.91521">
        <ele>574</ele>
        <time>2021-08-10T13:07:53Z</time>
      </trkpt>
      <trkpt lat="47.44269" lon="6.91524">
        <ele>574.1</ele>
        <time>2021-08-10T13:07:54Z</time>
      </trkpt>
      <trkpt lat="47.44264" lon="6.91527">
        <ele>574.2</ele>
        <time>2021-08-10T13:07:55Z</time>
      </trkpt>
      <trkpt lat="47.44254" lon="6.91532">
        <ele>574.6</ele>
        <time>2021-08-10T13:07:57Z</time>
      </trkpt>
      <trkpt lat="47.44245" lon="6.91537">
        <ele>574.9</ele>
        <time>2021-08-10T13:07:59Z</time>
      </trkpt>
      <trkpt lat="47.44238" lon="6.9154">
        <ele>575.2</ele>
        <time>2021-08-10T13:08:01Z</time>
      </trkpt>
      <trkpt lat="47.44232" lon="6.91543">
        <ele>575.5</ele>
        <time>2021-08-10T13:08:03Z</time>
      </trkpt>
      <trkpt lat="47.44228" lon="6.91545">
        <ele>575.6</ele>
        <time>2021-08-10T13:08:04Z</time>
      </trkpt>
      <trkpt lat="47.44225" lon="6.91547">
        <ele>575.9</ele>
        <time>2021-08-10T13:08:05Z</time>
      </trkpt>
      <trkpt lat="47.44217" lon="6.91552">
        <ele>576.3</ele>
        <time>2021-08-10T13:08:07Z</time>
      </trkpt>
      <trkpt lat="47.44218" lon="6.91551">
        <ele>576.4</ele>
        <time>2021-08-10T13:08:08Z</time>
      </trkpt>
      <trkpt lat="47.44214" lon="6.91555">
        <ele>576.7</ele>
        <time>2021-08-10T13:08:10Z</time>
      </trkpt>
      <trkpt lat="47.4421" lon="6.91561">
        <ele>577</ele>
        <time>2021-08-10T13:08:11Z</time>
      </trkpt>
      <trkpt lat="47.44206" lon="6.91567">
        <ele>577.3</ele>
        <time>2021-08-10T13:08:13Z</time>
      </trkpt>
      <trkpt lat="47.44204" lon="6.91572">
        <ele>577.5</ele>
        <time>2021-08-10T13:08:14Z</time>
      </trkpt>
      <trkpt lat="47.44202" lon="6.91575">
        <ele>577.7</ele>
        <time>2021-08-10T13:08:15Z</time>
      </trkpt>
      <trkpt lat="47.442" lon="6.91578">
        <ele>577.8</ele>
        <time>2021-08-10T13:08:16Z</time>
      </trkpt>
      <trkpt lat="47.44198" lon="6.91582">
        <ele>578.1</ele>
        <time>2021-08-10T13:08:18Z</time>
      </trkpt>
      <trkpt lat="47.44196" lon="6.91585">
        <ele>578.2</ele>
        <time>2021-08-10T13:08:19Z</time>
      </trkpt>
      <trkpt lat="47.44195" lon="6.91588">
        <ele>578.4</ele>
        <time>2021-08-10T13:08:21Z</time>
      </trkpt>
      <trkpt lat="47.44193" lon="6.9159">
        <ele>578.5</ele>
        <time>2021-08-10T13:08:22Z</time>
      </trkpt>
      <trkpt lat="47.4419" lon="6.91592">
        <ele>578.8</ele>
        <time>2021-08-10T13:08:24Z</time>
      </trkpt>
      <trkpt lat="47.44187" lon="6.91597">
        <ele>579.1</ele>
        <time>2021-08-10T13:08:26Z</time>
      </trkpt>
      <trkpt lat="47.44186" lon="6.91598">
        <ele>579.2</ele>
        <time>2021-08-10T13:08:27Z</time>
      </trkpt>
      <trkpt lat="47.44185" lon="6.916">
        <ele>579.3</ele>
        <time>2021-08-10T13:08:28Z</time>
      </trkpt>
      <trkpt lat="47.44183" lon="6.91603">
        <ele>579.5</ele>
        <time>2021-08-10T13:08:30Z</time>
      </trkpt>
      <trkpt lat="47.44181" lon="6.91606">
        <ele>579.7</ele>
        <time>2021-08-10T13:08:31Z</time>
      </trkpt>
      <trkpt lat="47.44179" lon="6.91609">
        <ele>580</ele>
        <time>2021-08-10T13:08:33Z</time>
      </trkpt>
      <trkpt lat="47.44178" lon="6.91611">
        <ele>580.1</ele>
        <time>2021-08-10T13:08:34Z</time>
      </trkpt>
      <trkpt lat="47.44177" lon="6.91613">
        <ele>580.2</ele>
        <time>2021-08-10T13:08:35Z</time>
      </trkpt>
      <trkpt lat="47.44175" lon="6.91617">
        <ele>580.5</ele>
        <time>2021-08-10T13:08:37Z</time>
      </trkpt>
      <trkpt lat="47.44174" lon="6.91619">
        <ele>580.6</ele>
        <time>2021-08-10T13:08:38Z</time>
      </trkpt>
      <trkpt lat="47.44173" lon="6.9162">
        <ele>580.7</ele>
        <time>2021-08-10T13:08:39Z</time>
      </trkpt>
      <trkpt lat="47.4417" lon="6.91624">
        <ele>581</ele>
        <time>2021-08-10T13:08:41Z</time>
      </trkpt>
      <trkpt lat="47.44169" lon="6.91626">
        <ele>581.2</ele>
        <time>2021-08-10T13:08:42Z</time>
      </trkpt>
      <trkpt lat="47.44168" lon="6.91628">
        <ele>581.3</ele>
        <time>2021-08-10T13:08:43Z</time>
      </trkpt>
      <trkpt lat="47.44167" lon="6.91629">
        <ele>581.4</ele>
        <time>2021-08-10T13:08:45Z</time>
      </trkpt>
      <trkpt lat="47.44165" lon="6.91631">
        <ele>581.5</ele>
        <time>2021-08-10T13:08:46Z</time>
      </trkpt>
      <trkpt lat="47.44163" lon="6.91635">
        <ele>581.8</ele>
        <time>2021-08-10T13:08:47Z</time>
      </trkpt>
      <trkpt lat="47.44163" lon="6.91635">
        <ele>581.8</ele>
        <time>2021-08-10T13:08:48Z</time>
      </trkpt>
      <trkpt lat="47.44162" lon="6.91638">
        <ele>582</ele>
        <time>2021-08-10T13:08:49Z</time>
      </trkpt>
      <trkpt lat="47.44161" lon="6.9164">
        <ele>582.1</ele>
        <time>2021-08-10T13:08:51Z</time>
      </trkpt>
      <trkpt lat="47.4416" lon="6.91642">
        <ele>582.2</ele>
        <time>2021-08-10T13:08:52Z</time>
      </trkpt>
      <trkpt lat="47.4416" lon="6.91644">
        <ele>582.3</ele>
        <time>2021-08-10T13:08:53Z</time>
      </trkpt>
      <trkpt lat="47.44159" lon="6.9165">
        <ele>582.6</ele>
        <time>2021-08-10T13:08:54Z</time>
      </trkpt>
      <trkpt lat="47.44158" lon="6.91651">
        <ele>582.6</ele>
        <time>2021-08-10T13:08:55Z</time>
      </trkpt>
      <trkpt lat="47.44158" lon="6.91654">
        <ele>582.8</ele>
        <time>2021-08-10T13:08:57Z</time>
      </trkpt>
      <trkpt lat="47.44158" lon="6.91657">
        <ele>582.9</ele>
        <time>2021-08-10T13:08:58Z</time>
      </trkpt>
      <trkpt lat="47.44158" lon="6.9166">
        <ele>583</ele>
        <time>2021-08-10T13:08:59Z</time>
      </trkpt>
      <trkpt lat="47.44157" lon="6.91664">
        <ele>583.1</ele>
        <time>2021-08-10T13:09:01Z</time>
      </trkpt>
      <trkpt lat="47.44157" lon="6.91665">
        <ele>583.2</ele>
        <time>2021-08-10T13:09:02Z</time>
      </trkpt>
      <trkpt lat="47.44156" lon="6.91669">
        <ele>583.4</ele>
        <time>2021-08-10T13:09:04Z</time>
      </trkpt>
      <trkpt lat="47.44155" lon="6.91671">
        <ele>583.5</ele>
        <time>2021-08-10T13:09:05Z</time>
      </trkpt>
      <trkpt lat="47.44155" lon="6.91673">
        <ele>583.6</ele>
        <time>2021-08-10T13:09:06Z</time>
      </trkpt>
      <trkpt lat="47.44154" lon="6.91675">
        <ele>583.6</ele>
        <time>2021-08-10T13:09:07Z</time>
      </trkpt>
      <trkpt lat="47.44153" lon="6.91678">
        <ele>583.8</ele>
        <time>2021-08-10T13:09:09Z</time>
      </trkpt>
      <trkpt lat="47.44153" lon="6.91681">
        <ele>583.9</ele>
        <time>2021-08-10T13:09:10Z</time>
      </trkpt>
      <trkpt lat="47.44152" lon="6.91683">
        <ele>584</ele>
        <time>2021-08-10T13:09:11Z</time>
      </trkpt>
      <trkpt lat="47.4415" lon="6.91688">
        <ele>584.2</ele>
        <time>2021-08-10T13:09:13Z</time>
      </trkpt>
      <trkpt lat="47.4415" lon="6.91689">
        <ele>584.2</ele>
        <time>2021-08-10T13:09:14Z</time>
      </trkpt>
      <trkpt lat="47.44149" lon="6.9169">
        <ele>584.3</ele>
        <time>2021-08-10T13:09:15Z</time>
      </trkpt>
      <trkpt lat="47.44149" lon="6.91692">
        <ele>584.4</ele>
        <time>2021-08-10T13:09:16Z</time>
      </trkpt>
      <trkpt lat="47.44148" lon="6.91693">
        <ele>584.4</ele>
        <time>2021-08-10T13:09:17Z</time>
      </trkpt>
      <trkpt lat="47.44147" lon="6.91696">
        <ele>584.6</ele>
        <time>2021-08-10T13:09:19Z</time>
      </trkpt>
      <trkpt lat="47.44145" lon="6.91699">
        <ele>584.7</ele>
        <time>2021-08-10T13:09:20Z</time>
      </trkpt>
      <trkpt lat="47.44145" lon="6.917">
        <ele>584.8</ele>
        <time>2021-08-10T13:09:21Z</time>
      </trkpt>
      <trkpt lat="47.44145" lon="6.91701">
        <ele>584.8</ele>
        <time>2021-08-10T13:09:22Z</time>
      </trkpt>
      <trkpt lat="47.44144" lon="6.91703">
        <ele>584.9</ele>
        <time>2021-08-10T13:09:23Z</time>
      </trkpt>
      <trkpt lat="47.44143" lon="6.91708">
        <ele>585.1</ele>
        <time>2021-08-10T13:09:25Z</time>
      </trkpt>
      <trkpt lat="47.44142" lon="6.91713">
        <ele>585.3</ele>
        <time>2021-08-10T13:09:27Z</time>
      </trkpt>
      <trkpt lat="47.44141" lon="6.91715">
        <ele>585.4</ele>
        <time>2021-08-10T13:09:28Z</time>
      </trkpt>
      <trkpt lat="47.4414" lon="6.91719">
        <ele>585.5</ele>
        <time>2021-08-10T13:09:30Z</time>
      </trkpt>
      <trkpt lat="47.44139" lon="6.91721">
        <ele>585.6</ele>
        <time>2021-08-10T13:09:31Z</time>
      </trkpt>
      <trkpt lat="47.44137" lon="6.91725">
        <ele>585.9</ele>
        <time>2021-08-10T13:09:33Z</time>
      </trkpt>
      <trkpt lat="47.44135" lon="6.91729">
        <ele>586</ele>
        <time>2021-08-10T13:09:34Z</time>
      </trkpt>
      <trkpt lat="47.44134" lon="6.91732">
        <ele>586.2</ele>
        <time>2021-08-10T13:09:36Z</time>
      </trkpt>
      <trkpt lat="47.44133" lon="6.91734">
        <ele>586.3</ele>
        <time>2021-08-10T13:09:37Z</time>
      </trkpt>
      <trkpt lat="47.44132" lon="6.91738">
        <ele>586.4</ele>
        <time>2021-08-10T13:09:39Z</time>
      </trkpt>
      <trkpt lat="47.44131" lon="6.9174">
        <ele>586.5</ele>
        <time>2021-08-10T13:09:40Z</time>
      </trkpt>
      <trkpt lat="47.44131" lon="6.91742">
        <ele>586.6</ele>
        <time>2021-08-10T13:09:41Z</time>
      </trkpt>
      <trkpt lat="47.4413" lon="6.91744">
        <ele>586.7</ele>
        <time>2021-08-10T13:09:42Z</time>
      </trkpt>
      <trkpt lat="47.44129" lon="6.91747">
        <ele>586.8</ele>
        <time>2021-08-10T13:09:44Z</time>
      </trkpt>
      <trkpt lat="47.44127" lon="6.91749">
        <ele>586.9</ele>
        <time>2021-08-10T13:09:45Z</time>
      </trkpt>
      <trkpt lat="47.44126" lon="6.91751">
        <ele>587</ele>
        <time>2021-08-10T13:09:46Z</time>
      </trkpt>
      <trkpt lat="47.44125" lon="6.91753">
        <ele>587.1</ele>
        <time>2021-08-10T13:09:47Z</time>
      </trkpt>
      <trkpt lat="47.44123" lon="6.91754">
        <ele>587.2</ele>
        <time>2021-08-10T13:09:48Z</time>
      </trkpt>
      <trkpt lat="47.44122" lon="6.91755">
        <ele>587.3</ele>
        <time>2021-08-10T13:09:50Z</time>
      </trkpt>
      <trkpt lat="47.44121" lon="6.91756">
        <ele>587.4</ele>
        <time>2021-08-10T13:09:51Z</time>
      </trkpt>
      <trkpt lat="47.44119" lon="6.91757">
        <ele>587.5</ele>
        <time>2021-08-10T13:09:52Z</time>
      </trkpt>
      <trkpt lat="47.44118" lon="6.91759">
        <ele>587.6</ele>
        <time>2021-08-10T13:09:53Z</time>
      </trkpt>
      <trkpt lat="47.44115" lon="6.91762">
        <ele>587.8</ele>
        <time>2021-08-10T13:09:54Z</time>
      </trkpt>
      <trkpt lat="47.44115" lon="6.91763">
        <ele>587.8</ele>
        <time>2021-08-10T13:09:55Z</time>
      </trkpt>
      <trkpt lat="47.44113" lon="6.91766">
        <ele>588</ele>
        <time>2021-08-10T13:09:56Z</time>
      </trkpt>
      <trkpt lat="47.44112" lon="6.91767">
        <ele>588</ele>
        <time>2021-08-10T13:09:57Z</time>
      </trkpt>
      <trkpt lat="47.44111" lon="6.91769">
        <ele>588.2</ele>
        <time>2021-08-10T13:09:58Z</time>
      </trkpt>
      <trkpt lat="47.44108" lon="6.91773">
        <ele>588.4</ele>
        <time>2021-08-10T13:10:00Z</time>
      </trkpt>
      <trkpt lat="47.44107" lon="6.91775">
        <ele>588.5</ele>
        <time>2021-08-10T13:10:01Z</time>
      </trkpt>
      <trkpt lat="47.44106" lon="6.91776">
        <ele>588.5</ele>
        <time>2021-08-10T13:10:02Z</time>
      </trkpt>
      <trkpt lat="47.44104" lon="6.91776">
        <ele>588.6</ele>
        <time>2021-08-10T13:10:03Z</time>
      </trkpt>
      <trkpt lat="47.44103" lon="6.91777">
        <ele>588.7</ele>
        <time>2021-08-10T13:10:05Z</time>
      </trkpt>
      <trkpt lat="47.44101" lon="6.91778">
        <ele>588.8</ele>
        <time>2021-08-10T13:10:06Z</time>
      </trkpt>
      <trkpt lat="47.441" lon="6.91779">
        <ele>588.9</ele>
        <time>2021-08-10T13:10:07Z</time>
      </trkpt>
      <trkpt lat="47.44098" lon="6.9178">
        <ele>589</ele>
        <time>2021-08-10T13:10:08Z</time>
      </trkpt>
      <trkpt lat="47.44095" lon="6.91781">
        <ele>589.1</ele>
        <time>2021-08-10T13:10:10Z</time>
      </trkpt>
      <trkpt lat="47.44093" lon="6.91782">
        <ele>589.2</ele>
        <time>2021-08-10T13:10:11Z</time>
      </trkpt>
      <trkpt lat="47.4409" lon="6.91784">
        <ele>589.4</ele>
        <time>2021-08-10T13:10:13Z</time>
      </trkpt>
      <trkpt lat="47.44087" lon="6.91786">
        <ele>589.5</ele>
        <time>2021-08-10T13:10:14Z</time>
      </trkpt>
      <trkpt lat="47.44085" lon="6.91789">
        <ele>589.6</ele>
        <time>2021-08-10T13:10:15Z</time>
      </trkpt>
      <trkpt lat="47.44084" lon="6.9179">
        <ele>589.6</ele>
        <time>2021-08-10T13:10:16Z</time>
      </trkpt>
      <trkpt lat="47.4408" lon="6.91793">
        <ele>589.7</ele>
        <time>2021-08-10T13:10:18Z</time>
      </trkpt>
      <trkpt lat="47.44077" lon="6.91796">
        <ele>589.9</ele>
        <time>2021-08-10T13:10:20Z</time>
      </trkpt>
      <trkpt lat="47.44075" lon="6.91798">
        <ele>589.9</ele>
        <time>2021-08-10T13:10:21Z</time>
      </trkpt>
      <trkpt lat="47.44072" lon="6.91803">
        <ele>590.1</ele>
        <time>2021-08-10T13:10:23Z</time>
      </trkpt>
      <trkpt lat="47.44068" lon="6.91808">
        <ele>590.2</ele>
        <time>2021-08-10T13:10:25Z</time>
      </trkpt>
      <trkpt lat="47.44066" lon="6.91813">
        <ele>590.3</ele>
        <time>2021-08-10T13:10:27Z</time>
      </trkpt>
      <trkpt lat="47.44064" lon="6.91815">
        <ele>590.3</ele>
        <time>2021-08-10T13:10:28Z</time>
      </trkpt>
      <trkpt lat="47.44062" lon="6.91819">
        <ele>590.4</ele>
        <time>2021-08-10T13:10:29Z</time>
      </trkpt>
      <trkpt lat="47.4406" lon="6.91822">
        <ele>590.4</ele>
        <time>2021-08-10T13:10:30Z</time>
      </trkpt>
      <trkpt lat="47.44058" lon="6.91825">
        <ele>590.5</ele>
        <time>2021-08-10T13:10:31Z</time>
      </trkpt>
      <trkpt lat="47.44057" lon="6.91827">
        <ele>590.5</ele>
        <time>2021-08-10T13:10:32Z</time>
      </trkpt>
      <trkpt lat="47.44055" lon="6.9183">
        <ele>590.5</ele>
        <time>2021-08-10T13:10:34Z</time>
      </trkpt>
      <trkpt lat="47.44052" lon="6.91832">
        <ele>590.6</ele>
        <time>2021-08-10T13:10:35Z</time>
      </trkpt>
      <trkpt lat="47.44049" lon="6.91834">
        <ele>590.7</ele>
        <time>2021-08-10T13:10:36Z</time>
      </trkpt>
      <trkpt lat="47.44047" lon="6.91836">
        <ele>590.7</ele>
        <time>2021-08-10T13:10:37Z</time>
      </trkpt>
      <trkpt lat="47.44045" lon="6.91839">
        <ele>590.8</ele>
        <time>2021-08-10T13:10:39Z</time>
      </trkpt>
      <trkpt lat="47.44042" lon="6.91841">
        <ele>590.9</ele>
        <time>2021-08-10T13:10:40Z</time>
      </trkpt>
      <trkpt lat="47.44039" lon="6.91843">
        <ele>590.9</ele>
        <time>2021-08-10T13:10:41Z</time>
      </trkpt>
      <trkpt lat="47.44036" lon="6.91844">
        <ele>591</ele>
        <time>2021-08-10T13:10:42Z</time>
      </trkpt>
      <trkpt lat="47.44033" lon="6.91846">
        <ele>591.1</ele>
        <time>2021-08-10T13:10:43Z</time>
      </trkpt>
      <trkpt lat="47.44028" lon="6.91848">
        <ele>591.2</ele>
        <time>2021-08-10T13:10:45Z</time>
      </trkpt>
      <trkpt lat="47.44023" lon="6.91851">
        <ele>591.3</ele>
        <time>2021-08-10T13:10:47Z</time>
      </trkpt>
      <trkpt lat="47.4402" lon="6.91851">
        <ele>591.4</ele>
        <time>2021-08-10T13:10:48Z</time>
      </trkpt>
      <trkpt lat="47.44015" lon="6.91852">
        <ele>591.5</ele>
        <time>2021-08-10T13:10:50Z</time>
      </trkpt>
      <trkpt lat="47.44012" lon="6.91852">
        <ele>591.5</ele>
        <time>2021-08-10T13:10:51Z</time>
      </trkpt>
      <trkpt lat="47.4401" lon="6.91852">
        <ele>591.6</ele>
        <time>2021-08-10T13:10:52Z</time>
      </trkpt>
      <trkpt lat="47.44007" lon="6.91852">
        <ele>591.7</ele>
        <time>2021-08-10T13:10:53Z</time>
      </trkpt>
      <trkpt lat="47.44002" lon="6.91852">
        <ele>591.8</ele>
        <time>2021-08-10T13:10:55Z</time>
      </trkpt>
      <trkpt lat="47.43999" lon="6.91851">
        <ele>591.9</ele>
        <time>2021-08-10T13:10:56Z</time>
      </trkpt>
      <trkpt lat="47.43996" lon="6.91851">
        <ele>591.9</ele>
        <time>2021-08-10T13:10:57Z</time>
      </trkpt>
      <trkpt lat="47.4399" lon="6.9185">
        <ele>592.1</ele>
        <time>2021-08-10T13:10:59Z</time>
      </trkpt>
      <trkpt lat="47.43987" lon="6.9185">
        <ele>592.2</ele>
        <time>2021-08-10T13:11:00Z</time>
      </trkpt>
      <trkpt lat="47.43984" lon="6.91849">
        <ele>592.3</ele>
        <time>2021-08-10T13:11:01Z</time>
      </trkpt>
      <trkpt lat="47.4398" lon="6.91848">
        <ele>592.4</ele>
        <time>2021-08-10T13:11:03Z</time>
      </trkpt>
      <trkpt lat="47.43977" lon="6.91848">
        <ele>592.5</ele>
        <time>2021-08-10T13:11:04Z</time>
      </trkpt>
      <trkpt lat="47.43973" lon="6.91848">
        <ele>592.5</ele>
        <time>2021-08-10T13:11:05Z</time>
      </trkpt>
      <trkpt lat="47.43972" lon="6.91848">
        <ele>592.6</ele>
        <time>2021-08-10T13:11:06Z</time>
      </trkpt>
      <trkpt lat="47.43968" lon="6.91847">
        <ele>592.7</ele>
        <time>2021-08-10T13:11:07Z</time>
      </trkpt>
      <trkpt lat="47.43966" lon="6.91847">
        <ele>592.7</ele>
        <time>2021-08-10T13:11:08Z</time>
      </trkpt>
      <trkpt lat="47.43964" lon="6.91847">
        <ele>592.7</ele>
        <time>2021-08-10T13:11:09Z</time>
      </trkpt>
      <trkpt lat="47.43962" lon="6.91846">
        <ele>592.7</ele>
        <time>2021-08-10T13:11:11Z</time>
      </trkpt>
      <trkpt lat="47.43958" lon="6.91845">
        <ele>592.8</ele>
        <time>2021-08-10T13:11:12Z</time>
      </trkpt>
      <trkpt lat="47.43957" lon="6.91845">
        <ele>592.8</ele>
        <time>2021-08-10T13:11:13Z</time>
      </trkpt>
      <trkpt lat="47.43952" lon="6.91844">
        <ele>592.8</ele>
        <time>2021-08-10T13:11:15Z</time>
      </trkpt>
      <trkpt lat="47.43949" lon="6.91843">
        <ele>592.8</ele>
        <time>2021-08-10T13:11:16Z</time>
      </trkpt>
      <trkpt lat="47.43944" lon="6.91843">
        <ele>592.8</ele>
        <time>2021-08-10T13:11:18Z</time>
      </trkpt>
      <trkpt lat="47.4394" lon="6.91843">
        <ele>592.8</ele>
        <time>2021-08-10T13:11:19Z</time>
      </trkpt>
      <trkpt lat="47.43934" lon="6.91841">
        <ele>592.7</ele>
        <time>2021-08-10T13:11:21Z</time>
      </trkpt>
      <trkpt lat="47.4393" lon="6.91841">
        <ele>592.7</ele>
        <time>2021-08-10T13:11:22Z</time>
      </trkpt>
      <trkpt lat="47.43929" lon="6.91842">
        <ele>592.7</ele>
        <time>2021-08-10T13:11:23Z</time>
      </trkpt>
      <trkpt lat="47.43924" lon="6.91841">
        <ele>592.6</ele>
        <time>2021-08-10T13:11:25Z</time>
      </trkpt>
      <trkpt lat="47.43922" lon="6.9184">
        <ele>592.6</ele>
        <time>2021-08-10T13:11:26Z</time>
      </trkpt>
      <trkpt lat="47.4392" lon="6.9184">
        <ele>592.6</ele>
        <time>2021-08-10T13:11:27Z</time>
      </trkpt>
      <trkpt lat="47.43915" lon="6.91839">
        <ele>592.5</ele>
        <time>2021-08-10T13:11:29Z</time>
      </trkpt>
      <trkpt lat="47.4391" lon="6.9184">
        <ele>592.4</ele>
        <time>2021-08-10T13:11:31Z</time>
      </trkpt>
      <trkpt lat="47.43908" lon="6.9184">
        <ele>592.3</ele>
        <time>2021-08-10T13:11:32Z</time>
      </trkpt>
      <trkpt lat="47.43903" lon="6.91836">
        <ele>592.2</ele>
        <time>2021-08-10T13:11:34Z</time>
      </trkpt>
      <trkpt lat="47.43899" lon="6.91834">
        <ele>592.1</ele>
        <time>2021-08-10T13:11:36Z</time>
      </trkpt>
      <trkpt lat="47.43897" lon="6.91833">
        <ele>592</ele>
        <time>2021-08-10T13:11:37Z</time>
      </trkpt>
      <trkpt lat="47.43893" lon="6.91834">
        <ele>591.9</ele>
        <time>2021-08-10T13:11:39Z</time>
      </trkpt>
      <trkpt lat="47.43889" lon="6.91833">
        <ele>591.8</ele>
        <time>2021-08-10T13:11:40Z</time>
      </trkpt>
      <trkpt lat="47.43888" lon="6.91832">
        <ele>591.8</ele>
        <time>2021-08-10T13:11:41Z</time>
      </trkpt>
      <trkpt lat="47.43882" lon="6.9183">
        <ele>591.6</ele>
        <time>2021-08-10T13:11:43Z</time>
      </trkpt>
      <trkpt lat="47.43878" lon="6.91829">
        <ele>591.4</ele>
        <time>2021-08-10T13:11:44Z</time>
      </trkpt>
      <trkpt lat="47.43875" lon="6.91829">
        <ele>591.3</ele>
        <time>2021-08-10T13:11:45Z</time>
      </trkpt>
      <trkpt lat="47.43867" lon="6.91829">
        <ele>591</ele>
        <time>2021-08-10T13:11:47Z</time>
      </trkpt>
      <trkpt lat="47.4386" lon="6.9183">
        <ele>590.7</ele>
        <time>2021-08-10T13:11:49Z</time>
      </trkpt>
      <trkpt lat="47.43852" lon="6.91832">
        <ele>590.4</ele>
        <time>2021-08-10T13:11:51Z</time>
      </trkpt>
      <trkpt lat="47.43849" lon="6.91833">
        <ele>590.2</ele>
        <time>2021-08-10T13:11:52Z</time>
      </trkpt>
      <trkpt lat="47.43846" lon="6.91833">
        <ele>590.1</ele>
        <time>2021-08-10T13:11:53Z</time>
      </trkpt>
      <trkpt lat="47.43841" lon="6.91836">
        <ele>589.8</ele>
        <time>2021-08-10T13:11:55Z</time>
      </trkpt>
      <trkpt lat="47.43839" lon="6.91838">
        <ele>589.7</ele>
        <time>2021-08-10T13:11:56Z</time>
      </trkpt>
      <trkpt lat="47.43837" lon="6.91839">
        <ele>589.6</ele>
        <time>2021-08-10T13:11:57Z</time>
      </trkpt>
      <trkpt lat="47.43835" lon="6.91841">
        <ele>589.5</ele>
        <time>2021-08-10T13:11:59Z</time>
      </trkpt>
      <trkpt lat="47.43833" lon="6.91842">
        <ele>589.4</ele>
        <time>2021-08-10T13:12:00Z</time>
      </trkpt>
      <trkpt lat="47.43831" lon="6.91844">
        <ele>589.3</ele>
        <time>2021-08-10T13:12:02Z</time>
      </trkpt>
      <trkpt lat="47.43829" lon="6.91845">
        <ele>589.2</ele>
        <time>2021-08-10T13:12:03Z</time>
      </trkpt>
      <trkpt lat="47.43827" lon="6.91847">
        <ele>589.1</ele>
        <time>2021-08-10T13:12:04Z</time>
      </trkpt>
      <trkpt lat="47.43825" lon="6.91848">
        <ele>589.1</ele>
        <time>2021-08-10T13:12:05Z</time>
      </trkpt>
      <trkpt lat="47.43823" lon="6.91849">
        <ele>589</ele>
        <time>2021-08-10T13:12:54Z</time>
      </trkpt>
      <trkpt lat="47.43821" lon="6.91851">
        <ele>588.9</ele>
        <time>2021-08-10T13:12:55Z</time>
      </trkpt>
      <trkpt lat="47.43808" lon="6.91859">
        <ele>588.3</ele>
        <time>2021-08-10T13:12:57Z</time>
      </trkpt>
      <trkpt lat="47.43803" lon="6.91864">
        <ele>588.1</ele>
        <time>2021-08-10T13:12:58Z</time>
      </trkpt>
      <trkpt lat="47.43795" lon="6.91877">
        <ele>587.7</ele>
        <time>2021-08-10T13:13:00Z</time>
      </trkpt>
      <trkpt lat="47.43792" lon="6.91884">
        <ele>587.6</ele>
        <time>2021-08-10T13:13:01Z</time>
      </trkpt>
      <trkpt lat="47.43787" lon="6.91901">
        <ele>587.4</ele>
        <time>2021-08-10T13:13:03Z</time>
      </trkpt>
      <trkpt lat="47.43785" lon="6.9191">
        <ele>587.4</ele>
        <time>2021-08-10T13:13:04Z</time>
      </trkpt>
      <trkpt lat="47.43781" lon="6.91926">
        <ele>587.4</ele>
        <time>2021-08-10T13:13:06Z</time>
      </trkpt>
      <trkpt lat="47.43779" lon="6.91935">
        <ele>587.4</ele>
        <time>2021-08-10T13:13:07Z</time>
      </trkpt>
      <trkpt lat="47.43775" lon="6.91951">
        <ele>587.4</ele>
        <time>2021-08-10T13:13:09Z</time>
      </trkpt>
      <trkpt lat="47.4377" lon="6.91964">
        <ele>587.3</ele>
        <time>2021-08-10T13:13:11Z</time>
      </trkpt>
      <trkpt lat="47.43768" lon="6.91971">
        <ele>587</ele>
        <time>2021-08-10T13:13:12Z</time>
      </trkpt>
      <trkpt lat="47.43767" lon="6.91976">
        <ele>586.9</ele>
        <time>2021-08-10T13:13:13Z</time>
      </trkpt>
      <trkpt lat="47.43767" lon="6.91989">
        <ele>586.7</ele>
        <time>2021-08-10T13:13:15Z</time>
      </trkpt>
      <trkpt lat="47.43767" lon="6.91995">
        <ele>586.6</ele>
        <time>2021-08-10T13:13:16Z</time>
      </trkpt>
      <trkpt lat="47.43767" lon="6.92">
        <ele>586.4</ele>
        <time>2021-08-10T13:13:17Z</time>
      </trkpt>
      <trkpt lat="47.43767" lon="6.92006">
        <ele>586.3</ele>
        <time>2021-08-10T13:13:18Z</time>
      </trkpt>
      <trkpt lat="47.43763" lon="6.92011">
        <ele>586.1</ele>
        <time>2021-08-10T13:13:20Z</time>
      </trkpt>
      <trkpt lat="47.43761" lon="6.92016">
        <ele>586.2</ele>
        <time>2021-08-10T13:13:21Z</time>
      </trkpt>
      <trkpt lat="47.4376" lon="6.92017">
        <ele>586.2</ele>
        <time>2021-08-10T13:13:22Z</time>
      </trkpt>
      <trkpt lat="47.43757" lon="6.9202">
        <ele>586.3</ele>
        <time>2021-08-10T13:13:24Z</time>
      </trkpt>
      <trkpt lat="47.43754" lon="6.92022">
        <ele>586.3</ele>
        <time>2021-08-10T13:13:25Z</time>
      </trkpt>
      <trkpt lat="47.43749" lon="6.92023">
        <ele>586.3</ele>
        <time>2021-08-10T13:13:26Z</time>
      </trkpt>
      <trkpt lat="47.43744" lon="6.92024">
        <ele>586.3</ele>
        <time>2021-08-10T13:13:27Z</time>
      </trkpt>
      <trkpt lat="47.4374" lon="6.92025">
        <ele>586.3</ele>
        <time>2021-08-10T13:13:28Z</time>
      </trkpt>
      <trkpt lat="47.43734" lon="6.92028">
        <ele>586.2</ele>
        <time>2021-08-10T13:13:29Z</time>
      </trkpt>
      <trkpt lat="47.43723" lon="6.92029">
        <ele>586.2</ele>
        <time>2021-08-10T13:13:31Z</time>
      </trkpt>
      <trkpt lat="47.43711" lon="6.9203">
        <ele>586.1</ele>
        <time>2021-08-10T13:13:33Z</time>
      </trkpt>
      <trkpt lat="47.43705" lon="6.92031">
        <ele>585.9</ele>
        <time>2021-08-10T13:13:34Z</time>
      </trkpt>
      <trkpt lat="47.43699" lon="6.92032">
        <ele>585.8</ele>
        <time>2021-08-10T13:13:35Z</time>
      </trkpt>
      <trkpt lat="47.43687" lon="6.92034">
        <ele>585.5</ele>
        <time>2021-08-10T13:13:37Z</time>
      </trkpt>
      <trkpt lat="47.43674" lon="6.92036">
        <ele>585.3</ele>
        <time>2021-08-10T13:13:39Z</time>
      </trkpt>
      <trkpt lat="47.43668" lon="6.92037">
        <ele>585.2</ele>
        <time>2021-08-10T13:13:40Z</time>
      </trkpt>
      <trkpt lat="47.43656" lon="6.92039">
        <ele>585</ele>
        <time>2021-08-10T13:13:42Z</time>
      </trkpt>
      <trkpt lat="47.4365" lon="6.92039">
        <ele>584.9</ele>
        <time>2021-08-10T13:13:43Z</time>
      </trkpt>
      <trkpt lat="47.43643" lon="6.92039">
        <ele>584.7</ele>
        <time>2021-08-10T13:13:44Z</time>
      </trkpt>
      <trkpt lat="47.43637" lon="6.9204">
        <ele>584.6</ele>
        <time>2021-08-10T13:13:45Z</time>
      </trkpt>
      <trkpt lat="47.43631" lon="6.9204">
        <ele>584.4</ele>
        <time>2021-08-10T13:13:46Z</time>
      </trkpt>
      <trkpt lat="47.43625" lon="6.92041">
        <ele>584.3</ele>
        <time>2021-08-10T13:13:47Z</time>
      </trkpt>
      <trkpt lat="47.43613" lon="6.92041">
        <ele>583.9</ele>
        <time>2021-08-10T13:13:49Z</time>
      </trkpt>
      <trkpt lat="47.436" lon="6.92042">
        <ele>583.4</ele>
        <time>2021-08-10T13:13:51Z</time>
      </trkpt>
      <trkpt lat="47.43594" lon="6.92042">
        <ele>583.1</ele>
        <time>2021-08-10T13:13:52Z</time>
      </trkpt>
      <trkpt lat="47.43587" lon="6.92041">
        <ele>582.7</ele>
        <time>2021-08-10T13:13:53Z</time>
      </trkpt>
      <trkpt lat="47.43572" lon="6.92038">
        <ele>581.9</ele>
        <time>2021-08-10T13:13:55Z</time>
      </trkpt>
      <trkpt lat="47.43565" lon="6.92037">
        <ele>581.4</ele>
        <time>2021-08-10T13:13:56Z</time>
      </trkpt>
      <trkpt lat="47.43549" lon="6.92034">
        <ele>580.3</ele>
        <time>2021-08-10T13:13:58Z</time>
      </trkpt>
      <trkpt lat="47.43542" lon="6.92031">
        <ele>579.7</ele>
        <time>2021-08-10T13:13:59Z</time>
      </trkpt>
      <trkpt lat="47.43534" lon="6.92029">
        <ele>579.1</ele>
        <time>2021-08-10T13:14:00Z</time>
      </trkpt>
      <trkpt lat="47.43517" lon="6.92023">
        <ele>577.9</ele>
        <time>2021-08-10T13:14:02Z</time>
      </trkpt>
      <trkpt lat="47.43499" lon="6.92015">
        <ele>576.6</ele>
        <time>2021-08-10T13:14:04Z</time>
      </trkpt>
      <trkpt lat="47.4349" lon="6.92011">
        <ele>576</ele>
        <time>2021-08-10T13:14:05Z</time>
      </trkpt>
      <trkpt lat="47.4348" lon="6.92006">
        <ele>575.5</ele>
        <time>2021-08-10T13:14:06Z</time>
      </trkpt>
      <trkpt lat="47.4347" lon="6.92002">
        <ele>575</ele>
        <time>2021-08-10T13:14:07Z</time>
      </trkpt>
      <trkpt lat="47.4345" lon="6.91993">
        <ele>574.3</ele>
        <time>2021-08-10T13:14:09Z</time>
      </trkpt>
      <trkpt lat="47.4344" lon="6.91988">
        <ele>574</ele>
        <time>2021-08-10T13:14:10Z</time>
      </trkpt>
      <trkpt lat="47.43431" lon="6.91984">
        <ele>573.9</ele>
        <time>2021-08-10T13:14:11Z</time>
      </trkpt>
      <trkpt lat="47.43421" lon="6.91979">
        <ele>573.8</ele>
        <time>2021-08-10T13:14:12Z</time>
      </trkpt>
      <trkpt lat="47.43404" lon="6.91972">
        <ele>573.8</ele>
        <time>2021-08-10T13:14:14Z</time>
      </trkpt>
      <trkpt lat="47.43395" lon="6.91969">
        <ele>573.9</ele>
        <time>2021-08-10T13:14:15Z</time>
      </trkpt>
      <trkpt lat="47.43387" lon="6.91967">
        <ele>573.9</ele>
        <time>2021-08-10T13:14:16Z</time>
      </trkpt>
      <trkpt lat="47.4337" lon="6.9196">
        <ele>574.2</ele>
        <time>2021-08-10T13:14:18Z</time>
      </trkpt>
      <trkpt lat="47.43362" lon="6.91957">
        <ele>574.4</ele>
        <time>2021-08-10T13:14:19Z</time>
      </trkpt>
      <trkpt lat="47.43346" lon="6.9195">
        <ele>575</ele>
        <time>2021-08-10T13:14:21Z</time>
      </trkpt>
      <trkpt lat="47.43339" lon="6.91947">
        <ele>575.3</ele>
        <time>2021-08-10T13:14:22Z</time>
      </trkpt>
      <trkpt lat="47.43333" lon="6.91943">
        <ele>575.4</ele>
        <time>2021-08-10T13:14:23Z</time>
      </trkpt>
      <trkpt lat="47.43321" lon="6.91939">
        <ele>575.6</ele>
        <time>2021-08-10T13:14:25Z</time>
      </trkpt>
      <trkpt lat="47.43316" lon="6.91937">
        <ele>575.7</ele>
        <time>2021-08-10T13:14:26Z</time>
      </trkpt>
      <trkpt lat="47.43306" lon="6.91936">
        <ele>575.9</ele>
        <time>2021-08-10T13:14:28Z</time>
      </trkpt>
      <trkpt lat="47.43297" lon="6.91936">
        <ele>576.1</ele>
        <time>2021-08-10T13:14:30Z</time>
      </trkpt>
      <trkpt lat="47.43292" lon="6.91936">
        <ele>576.1</ele>
        <time>2021-08-10T13:14:31Z</time>
      </trkpt>
      <trkpt lat="47.43284" lon="6.91937">
        <ele>576.3</ele>
        <time>2021-08-10T13:14:33Z</time>
      </trkpt>
      <trkpt lat="47.43277" lon="6.91939">
        <ele>576.5</ele>
        <time>2021-08-10T13:14:35Z</time>
      </trkpt>
      <trkpt lat="47.43269" lon="6.91941">
        <ele>576.6</ele>
        <time>2021-08-10T13:14:37Z</time>
      </trkpt>
      <trkpt lat="47.43265" lon="6.91942">
        <ele>576.7</ele>
        <time>2021-08-10T13:14:38Z</time>
      </trkpt>
      <trkpt lat="47.43263" lon="6.91944">
        <ele>576.7</ele>
        <time>2021-08-10T13:14:39Z</time>
      </trkpt>
      <trkpt lat="47.4326" lon="6.91944">
        <ele>576.8</ele>
        <time>2021-08-10T13:14:40Z</time>
      </trkpt>
      <trkpt lat="47.43253" lon="6.91944">
        <ele>576.8</ele>
        <time>2021-08-10T13:14:41Z</time>
      </trkpt>
      <trkpt lat="47.43247" lon="6.91945">
        <ele>576.9</ele>
        <time>2021-08-10T13:14:43Z</time>
      </trkpt>
      <trkpt lat="47.43243" lon="6.91945">
        <ele>576.9</ele>
        <time>2021-08-10T13:14:44Z</time>
      </trkpt>
      <trkpt lat="47.43238" lon="6.91945">
        <ele>576.9</ele>
        <time>2021-08-10T13:14:45Z</time>
      </trkpt>
      <trkpt lat="47.43235" lon="6.91945">
        <ele>576.9</ele>
        <time>2021-08-10T13:14:46Z</time>
      </trkpt>
      <trkpt lat="47.43231" lon="6.91944">
        <ele>576.9</ele>
        <time>2021-08-10T13:14:47Z</time>
      </trkpt>
      <trkpt lat="47.43229" lon="6.91944">
        <ele>576.9</ele>
        <time>2021-08-10T13:14:48Z</time>
      </trkpt>
      <trkpt lat="47.43226" lon="6.91944">
        <ele>576.7</ele>
        <time>2021-08-10T13:14:50Z</time>
      </trkpt>
      <trkpt lat="47.43223" lon="6.91943">
        <ele>576.6</ele>
        <time>2021-08-10T13:14:51Z</time>
      </trkpt>
      <trkpt lat="47.4322" lon="6.91942">
        <ele>576.5</ele>
        <time>2021-08-10T13:14:52Z</time>
      </trkpt>
      <trkpt lat="47.43217" lon="6.9194">
        <ele>576.4</ele>
        <time>2021-08-10T13:14:53Z</time>
      </trkpt>
      <trkpt lat="47.43215" lon="6.91936">
        <ele>576.4</ele>
        <time>2021-08-10T13:14:54Z</time>
      </trkpt>
      <trkpt lat="47.43212" lon="6.91932">
        <ele>576.1</ele>
        <time>2021-08-10T13:14:55Z</time>
      </trkpt>
      <trkpt lat="47.43207" lon="6.91927">
        <ele>576</ele>
        <time>2021-08-10T13:14:56Z</time>
      </trkpt>
      <trkpt lat="47.43198" lon="6.91919">
        <ele>575.6</ele>
        <time>2021-08-10T13:14:58Z</time>
      </trkpt>
      <trkpt lat="47.43192" lon="6.91915">
        <ele>575.3</ele>
        <time>2021-08-10T13:14:59Z</time>
      </trkpt>
      <trkpt lat="47.43181" lon="6.91907">
        <ele>574.6</ele>
        <time>2021-08-10T13:15:01Z</time>
      </trkpt>
      <trkpt lat="47.4317" lon="6.919">
        <ele>574.1</ele>
        <time>2021-08-10T13:15:03Z</time>
      </trkpt>
      <trkpt lat="47.43161" lon="6.91894">
        <ele>573.6</ele>
        <time>2021-08-10T13:15:05Z</time>
      </trkpt>
      <trkpt lat="47.43157" lon="6.91891">
        <ele>573.4</ele>
        <time>2021-08-10T13:15:06Z</time>
      </trkpt>
      <trkpt lat="47.43148" lon="6.91882">
        <ele>573.2</ele>
        <time>2021-08-10T13:15:08Z</time>
      </trkpt>
      <trkpt lat="47.43139" lon="6.91875">
        <ele>572.9</ele>
        <time>2021-08-10T13:15:10Z</time>
      </trkpt>
      <trkpt lat="47.43133" lon="6.91874">
        <ele>572.8</ele>
        <time>2021-08-10T13:15:11Z</time>
      </trkpt>
      <trkpt lat="47.43123" lon="6.91873">
        <ele>572.4</ele>
        <time>2021-08-10T13:15:13Z</time>
      </trkpt>
      <trkpt lat="47.43113" lon="6.91879">
        <ele>572.1</ele>
        <time>2021-08-10T13:15:15Z</time>
      </trkpt>
      <trkpt lat="47.43108" lon="6.91882">
        <ele>572.1</ele>
        <time>2021-08-10T13:15:16Z</time>
      </trkpt>
      <trkpt lat="47.43104" lon="6.91884">
        <ele>572</ele>
        <time>2021-08-10T13:15:17Z</time>
      </trkpt>
      <trkpt lat="47.43095" lon="6.91883">
        <ele>571.9</ele>
        <time>2021-08-10T13:15:19Z</time>
      </trkpt>
      <trkpt lat="47.43086" lon="6.91875">
        <ele>571.8</ele>
        <time>2021-08-10T13:15:21Z</time>
      </trkpt>
      <trkpt lat="47.43081" lon="6.9187">
        <ele>571.7</ele>
        <time>2021-08-10T13:15:22Z</time>
      </trkpt>
      <trkpt lat="47.4307" lon="6.9186">
        <ele>571</ele>
        <time>2021-08-10T13:15:24Z</time>
      </trkpt>
      <trkpt lat="47.43065" lon="6.91856">
        <ele>570.7</ele>
        <time>2021-08-10T13:15:25Z</time>
      </trkpt>
      <trkpt lat="47.43053" lon="6.91846">
        <ele>570.1</ele>
        <time>2021-08-10T13:15:27Z</time>
      </trkpt>
      <trkpt lat="47.43041" lon="6.91837">
        <ele>569.8</ele>
        <time>2021-08-10T13:15:29Z</time>
      </trkpt>
      <trkpt lat="47.43028" lon="6.91826">
        <ele>569.6</ele>
        <time>2021-08-10T13:15:31Z</time>
      </trkpt>
      <trkpt lat="47.43015" lon="6.91816">
        <ele>569.3</ele>
        <time>2021-08-10T13:15:33Z</time>
      </trkpt>
      <trkpt lat="47.43003" lon="6.91807">
        <ele>569</ele>
        <time>2021-08-10T13:15:35Z</time>
      </trkpt>
      <trkpt lat="47.42991" lon="6.91798">
        <ele>568.6</ele>
        <time>2021-08-10T13:15:37Z</time>
      </trkpt>
      <trkpt lat="47.42978" lon="6.9179">
        <ele>568.2</ele>
        <time>2021-08-10T13:15:39Z</time>
      </trkpt>
      <trkpt lat="47.42964" lon="6.91782">
        <ele>567.8</ele>
        <time>2021-08-10T13:15:41Z</time>
      </trkpt>
      <trkpt lat="47.4295" lon="6.91775">
        <ele>567.5</ele>
        <time>2021-08-10T13:15:43Z</time>
      </trkpt>
      <trkpt lat="47.42942" lon="6.91772">
        <ele>567.4</ele>
        <time>2021-08-10T13:15:44Z</time>
      </trkpt>
      <trkpt lat="47.42928" lon="6.91764">
        <ele>567.1</ele>
        <time>2021-08-10T13:15:46Z</time>
      </trkpt>
      <trkpt lat="47.42921" lon="6.91761">
        <ele>567</ele>
        <time>2021-08-10T13:15:47Z</time>
      </trkpt>
      <trkpt lat="47.42907" lon="6.91753">
        <ele>566.8</ele>
        <time>2021-08-10T13:15:49Z</time>
      </trkpt>
      <trkpt lat="47.42895" lon="6.91747">
        <ele>566.7</ele>
        <time>2021-08-10T13:15:51Z</time>
      </trkpt>
      <trkpt lat="47.42889" lon="6.91745">
        <ele>566.6</ele>
        <time>2021-08-10T13:15:52Z</time>
      </trkpt>
      <trkpt lat="47.42883" lon="6.91742">
        <ele>566.5</ele>
        <time>2021-08-10T13:15:53Z</time>
      </trkpt>
      <trkpt lat="47.42871" lon="6.91737">
        <ele>566.4</ele>
        <time>2021-08-10T13:15:55Z</time>
      </trkpt>
      <trkpt lat="47.42859" lon="6.91733">
        <ele>566.2</ele>
        <time>2021-08-10T13:15:57Z</time>
      </trkpt>
      <trkpt lat="47.42848" lon="6.91729">
        <ele>566.1</ele>
        <time>2021-08-10T13:15:59Z</time>
      </trkpt>
      <trkpt lat="47.42842" lon="6.91727">
        <ele>566</ele>
        <time>2021-08-10T13:16:00Z</time>
      </trkpt>
      <trkpt lat="47.4283" lon="6.91723">
        <ele>565.9</ele>
        <time>2021-08-10T13:16:02Z</time>
      </trkpt>
      <trkpt lat="47.42819" lon="6.91718">
        <ele>565.8</ele>
        <time>2021-08-10T13:16:04Z</time>
      </trkpt>
      <trkpt lat="47.42813" lon="6.91716">
        <ele>565.7</ele>
        <time>2021-08-10T13:16:05Z</time>
      </trkpt>
      <trkpt lat="47.42808" lon="6.91714">
        <ele>565.6</ele>
        <time>2021-08-10T13:16:06Z</time>
      </trkpt>
      <trkpt lat="47.42796" lon="6.91709">
        <ele>565.6</ele>
        <time>2021-08-10T13:16:08Z</time>
      </trkpt>
      <trkpt lat="47.4279" lon="6.91706">
        <ele>565.5</ele>
        <time>2021-08-10T13:16:09Z</time>
      </trkpt>
      <trkpt lat="47.42784" lon="6.91704">
        <ele>565.5</ele>
        <time>2021-08-10T13:16:10Z</time>
      </trkpt>
      <trkpt lat="47.42771" lon="6.91698">
        <ele>565.4</ele>
        <time>2021-08-10T13:16:12Z</time>
      </trkpt>
      <trkpt lat="47.42765" lon="6.91695">
        <ele>565.4</ele>
        <time>2021-08-10T13:16:13Z</time>
      </trkpt>
      <trkpt lat="47.42759" lon="6.91692">
        <ele>565.3</ele>
        <time>2021-08-10T13:16:14Z</time>
      </trkpt>
      <trkpt lat="47.42746" lon="6.91686">
        <ele>565.3</ele>
        <time>2021-08-10T13:16:16Z</time>
      </trkpt>
      <trkpt lat="47.4274" lon="6.91683">
        <ele>565.3</ele>
        <time>2021-08-10T13:16:17Z</time>
      </trkpt>
      <trkpt lat="47.42729" lon="6.91679">
        <ele>565.3</ele>
        <time>2021-08-10T13:16:19Z</time>
      </trkpt>
      <trkpt lat="47.42717" lon="6.91678">
        <ele>565.5</ele>
        <time>2021-08-10T13:16:21Z</time>
      </trkpt>
      <trkpt lat="47.42706" lon="6.91678">
        <ele>566</ele>
        <time>2021-08-10T13:16:23Z</time>
      </trkpt>
      <trkpt lat="47.42697" lon="6.91678">
        <ele>566.4</ele>
        <time>2021-08-10T13:16:25Z</time>
      </trkpt>
      <trkpt lat="47.42689" lon="6.91678">
        <ele>566.7</ele>
        <time>2021-08-10T13:16:27Z</time>
      </trkpt>
      <trkpt lat="47.42682" lon="6.91678">
        <ele>567</ele>
        <time>2021-08-10T13:16:29Z</time>
      </trkpt>
      <trkpt lat="47.42674" lon="6.91678">
        <ele>567.3</ele>
        <time>2021-08-10T13:16:31Z</time>
      </trkpt>
      <trkpt lat="47.4267" lon="6.91677">
        <ele>567.5</ele>
        <time>2021-08-10T13:16:32Z</time>
      </trkpt>
      <trkpt lat="47.42666" lon="6.91677">
        <ele>567.6</ele>
        <time>2021-08-10T13:16:34Z</time>
      </trkpt>
      <trkpt lat="47.42668" lon="6.91681">
        <ele>567.7</ele>
        <time>2021-08-10T13:16:35Z</time>
      </trkpt>
      <trkpt lat="47.42661" lon="6.91678">
        <ele>568</ele>
        <time>2021-08-10T13:16:37Z</time>
      </trkpt>
      <trkpt lat="47.42655" lon="6.91676">
        <ele>568.1</ele>
        <time>2021-08-10T13:16:38Z</time>
      </trkpt>
      <trkpt lat="47.42651" lon="6.91673">
        <ele>568.3</ele>
        <time>2021-08-10T13:16:39Z</time>
      </trkpt>
      <trkpt lat="47.42645" lon="6.91671">
        <ele>568.4</ele>
        <time>2021-08-10T13:16:41Z</time>
      </trkpt>
      <trkpt lat="47.4264" lon="6.91669">
        <ele>568.6</ele>
        <time>2021-08-10T13:16:42Z</time>
      </trkpt>
      <trkpt lat="47.42634" lon="6.91668">
        <ele>568.7</ele>
        <time>2021-08-10T13:16:43Z</time>
      </trkpt>
      <trkpt lat="47.42629" lon="6.91667">
        <ele>568.8</ele>
        <time>2021-08-10T13:16:45Z</time>
      </trkpt>
      <trkpt lat="47.42624" lon="6.91665">
        <ele>569</ele>
        <time>2021-08-10T13:16:46Z</time>
      </trkpt>
      <trkpt lat="47.42619" lon="6.91664">
        <ele>569.1</ele>
        <time>2021-08-10T13:16:48Z</time>
      </trkpt>
      <trkpt lat="47.42613" lon="6.91663">
        <ele>569.2</ele>
        <time>2021-08-10T13:16:49Z</time>
      </trkpt>
      <trkpt lat="47.42608" lon="6.91662">
        <ele>569.3</ele>
        <time>2021-08-10T13:16:51Z</time>
      </trkpt>
      <trkpt lat="47.42605" lon="6.91662">
        <ele>569.3</ele>
        <time>2021-08-10T13:16:52Z</time>
      </trkpt>
      <trkpt lat="47.426" lon="6.9166">
        <ele>569.4</ele>
        <time>2021-08-10T13:16:53Z</time>
      </trkpt>
      <trkpt lat="47.42595" lon="6.91659">
        <ele>569.5</ele>
        <time>2021-08-10T13:16:55Z</time>
      </trkpt>
      <trkpt lat="47.4259" lon="6.91658">
        <ele>569.5</ele>
        <time>2021-08-10T13:16:56Z</time>
      </trkpt>
      <trkpt lat="47.42585" lon="6.91656">
        <ele>569.6</ele>
        <time>2021-08-10T13:16:57Z</time>
      </trkpt>
      <trkpt lat="47.4258" lon="6.91654">
        <ele>569.7</ele>
        <time>2021-08-10T13:16:59Z</time>
      </trkpt>
      <trkpt lat="47.42575" lon="6.91652">
        <ele>569.7</ele>
        <time>2021-08-10T13:17:00Z</time>
      </trkpt>
      <trkpt lat="47.42571" lon="6.9165">
        <ele>569.8</ele>
        <time>2021-08-10T13:17:01Z</time>
      </trkpt>
      <trkpt lat="47.42568" lon="6.91649">
        <ele>569.8</ele>
        <time>2021-08-10T13:17:02Z</time>
      </trkpt>
      <trkpt lat="47.42565" lon="6.91647">
        <ele>569.8</ele>
        <time>2021-08-10T13:17:04Z</time>
      </trkpt>
      <trkpt lat="47.42562" lon="6.91647">
        <ele>569.8</ele>
        <time>2021-08-10T13:17:05Z</time>
      </trkpt>
      <trkpt lat="47.42559" lon="6.91646">
        <ele>569.8</ele>
        <time>2021-08-10T13:17:06Z</time>
      </trkpt>
      <trkpt lat="47.42556" lon="6.91646">
        <ele>569.9</ele>
        <time>2021-08-10T13:17:07Z</time>
      </trkpt>
      <trkpt lat="47.4255" lon="6.91646">
        <ele>569.9</ele>
        <time>2021-08-10T13:17:08Z</time>
      </trkpt>
      <trkpt lat="47.42546" lon="6.91647">
        <ele>569.9</ele>
        <time>2021-08-10T13:17:09Z</time>
      </trkpt>
      <trkpt lat="47.42542" lon="6.91647">
        <ele>569.9</ele>
        <time>2021-08-10T13:17:11Z</time>
      </trkpt>
      <trkpt lat="47.42537" lon="6.91647">
        <ele>569.8</ele>
        <time>2021-08-10T13:17:12Z</time>
      </trkpt>
      <trkpt lat="47.42533" lon="6.91648">
        <ele>569.7</ele>
        <time>2021-08-10T13:17:13Z</time>
      </trkpt>
      <trkpt lat="47.42528" lon="6.91648">
        <ele>569.6</ele>
        <time>2021-08-10T13:17:14Z</time>
      </trkpt>
      <trkpt lat="47.42524" lon="6.91649">
        <ele>569.5</ele>
        <time>2021-08-10T13:17:16Z</time>
      </trkpt>
      <trkpt lat="47.42519" lon="6.9165">
        <ele>569.4</ele>
        <time>2021-08-10T13:17:17Z</time>
      </trkpt>
      <trkpt lat="47.42515" lon="6.91651">
        <ele>569.2</ele>
        <time>2021-08-10T13:17:18Z</time>
      </trkpt>
      <trkpt lat="47.42512" lon="6.91651">
        <ele>569.1</ele>
        <time>2021-08-10T13:17:19Z</time>
      </trkpt>
      <trkpt lat="47.42508" lon="6.91651">
        <ele>569</ele>
        <time>2021-08-10T13:17:20Z</time>
      </trkpt>
      <trkpt lat="47.42505" lon="6.91652">
        <ele>568.9</ele>
        <time>2021-08-10T13:17:21Z</time>
      </trkpt>
      <trkpt lat="47.425" lon="6.91652">
        <ele>568.7</ele>
        <time>2021-08-10T13:17:23Z</time>
      </trkpt>
      <trkpt lat="47.42496" lon="6.91653">
        <ele>568.6</ele>
        <time>2021-08-10T13:17:24Z</time>
      </trkpt>
      <trkpt lat="47.42491" lon="6.91652">
        <ele>568.4</ele>
        <time>2021-08-10T13:17:25Z</time>
      </trkpt>
      <trkpt lat="47.42481" lon="6.9165">
        <ele>568.2</ele>
        <time>2021-08-10T13:17:27Z</time>
      </trkpt>
      <trkpt lat="47.42471" lon="6.91652">
        <ele>568</ele>
        <time>2021-08-10T13:17:29Z</time>
      </trkpt>
      <trkpt lat="47.42466" lon="6.91652">
        <ele>568</ele>
        <time>2021-08-10T13:17:30Z</time>
      </trkpt>
      <trkpt lat="47.42461" lon="6.91652">
        <ele>568</ele>
        <time>2021-08-10T13:17:32Z</time>
      </trkpt>
      <trkpt lat="47.42457" lon="6.91652">
        <ele>568</ele>
        <time>2021-08-10T13:17:33Z</time>
      </trkpt>
      <trkpt lat="47.42449" lon="6.91653">
        <ele>568</ele>
        <time>2021-08-10T13:17:35Z</time>
      </trkpt>
      <trkpt lat="47.42444" lon="6.91653">
        <ele>568</ele>
        <time>2021-08-10T13:17:36Z</time>
      </trkpt>
      <trkpt lat="47.42438" lon="6.91653">
        <ele>568</ele>
        <time>2021-08-10T13:17:37Z</time>
      </trkpt>
      <trkpt lat="47.42429" lon="6.91655">
        <ele>568.1</ele>
        <time>2021-08-10T13:17:39Z</time>
      </trkpt>
      <trkpt lat="47.42424" lon="6.91655">
        <ele>568.2</ele>
        <time>2021-08-10T13:17:40Z</time>
      </trkpt>
      <trkpt lat="47.42418" lon="6.91655">
        <ele>568.2</ele>
        <time>2021-08-10T13:17:41Z</time>
      </trkpt>
      <trkpt lat="47.42413" lon="6.91654">
        <ele>568.3</ele>
        <time>2021-08-10T13:17:43Z</time>
      </trkpt>
      <trkpt lat="47.42407" lon="6.91654">
        <ele>568.4</ele>
        <time>2021-08-10T13:17:44Z</time>
      </trkpt>
      <trkpt lat="47.42402" lon="6.91653">
        <ele>568.5</ele>
        <time>2021-08-10T13:17:45Z</time>
      </trkpt>
      <trkpt lat="47.42395" lon="6.91652">
        <ele>568.6</ele>
        <time>2021-08-10T13:17:47Z</time>
      </trkpt>
      <trkpt lat="47.42388" lon="6.91652">
        <ele>568.8</ele>
        <time>2021-08-10T13:17:48Z</time>
      </trkpt>
      <trkpt lat="47.42384" lon="6.91652">
        <ele>568.9</ele>
        <time>2021-08-10T13:17:49Z</time>
      </trkpt>
      <trkpt lat="47.42379" lon="6.91653">
        <ele>569.1</ele>
        <time>2021-08-10T13:17:50Z</time>
      </trkpt>
      <trkpt lat="47.42373" lon="6.91652">
        <ele>569.2</ele>
        <time>2021-08-10T13:17:52Z</time>
      </trkpt>
      <trkpt lat="47.42367" lon="6.91653">
        <ele>569.5</ele>
        <time>2021-08-10T13:17:54Z</time>
      </trkpt>
      <trkpt lat="47.42364" lon="6.91652">
        <ele>569.6</ele>
        <time>2021-08-10T13:17:55Z</time>
      </trkpt>
      <trkpt lat="47.4236" lon="6.91652">
        <ele>569.7</ele>
        <time>2021-08-10T13:17:57Z</time>
      </trkpt>
      <trkpt lat="47.42356" lon="6.91654">
        <ele>569.8</ele>
        <time>2021-08-10T13:17:58Z</time>
      </trkpt>
      <trkpt lat="47.42355" lon="6.91654">
        <ele>569.8</ele>
        <time>2021-08-10T13:17:59Z</time>
      </trkpt>
      <trkpt lat="47.42353" lon="6.91655">
        <ele>569.9</ele>
        <time>2021-08-10T13:18:01Z</time>
      </trkpt>
      <trkpt lat="47.42352" lon="6.91656">
        <ele>569.9</ele>
        <time>2021-08-10T13:18:02Z</time>
      </trkpt>
      <trkpt lat="47.42352" lon="6.91656">
        <ele>569.9</ele>
        <time>2021-08-10T13:18:03Z</time>
      </trkpt>
      <trkpt lat="47.42351" lon="6.91656">
        <ele>570</ele>
        <time>2021-08-10T13:18:04Z</time>
      </trkpt>
      <trkpt lat="47.4235" lon="6.91656">
        <ele>570</ele>
        <time>2021-08-10T13:18:05Z</time>
      </trkpt>
      <trkpt lat="47.42348" lon="6.91656">
        <ele>570</ele>
        <time>2021-08-10T13:18:07Z</time>
      </trkpt>
      <trkpt lat="47.42345" lon="6.91657">
        <ele>570.1</ele>
        <time>2021-08-10T13:18:09Z</time>
      </trkpt>
      <trkpt lat="47.42343" lon="6.91657">
        <ele>570.1</ele>
        <time>2021-08-10T13:18:10Z</time>
      </trkpt>
      <trkpt lat="47.42341" lon="6.91657">
        <ele>570.1</ele>
        <time>2021-08-10T13:18:11Z</time>
      </trkpt>
      <trkpt lat="47.42338" lon="6.91657">
        <ele>570.2</ele>
        <time>2021-08-10T13:18:13Z</time>
      </trkpt>
      <trkpt lat="47.42335" lon="6.91657">
        <ele>570.2</ele>
        <time>2021-08-10T13:18:14Z</time>
      </trkpt>
      <trkpt lat="47.42331" lon="6.91656">
        <ele>570.2</ele>
        <time>2021-08-10T13:18:16Z</time>
      </trkpt>
      <trkpt lat="47.42329" lon="6.91655">
        <ele>570.2</ele>
        <time>2021-08-10T13:18:17Z</time>
      </trkpt>
      <trkpt lat="47.42326" lon="6.91654">
        <ele>570.2</ele>
        <time>2021-08-10T13:18:18Z</time>
      </trkpt>
      <trkpt lat="47.42321" lon="6.91654">
        <ele>570.1</ele>
        <time>2021-08-10T13:18:19Z</time>
      </trkpt>
      <trkpt lat="47.42316" lon="6.91653">
        <ele>570.1</ele>
        <time>2021-08-10T13:18:21Z</time>
      </trkpt>
      <trkpt lat="47.42313" lon="6.91653">
        <ele>570</ele>
        <time>2021-08-10T13:18:22Z</time>
      </trkpt>
      <trkpt lat="47.42309" lon="6.91652">
        <ele>570</ele>
        <time>2021-08-10T13:18:23Z</time>
      </trkpt>
      <trkpt lat="47.42306" lon="6.91652">
        <ele>569.9</ele>
        <time>2021-08-10T13:18:24Z</time>
      </trkpt>
      <trkpt lat="47.423" lon="6.91651">
        <ele>569.8</ele>
        <time>2021-08-10T13:18:25Z</time>
      </trkpt>
      <trkpt lat="47.42294" lon="6.9165">
        <ele>569.6</ele>
        <time>2021-08-10T13:18:27Z</time>
      </trkpt>
      <trkpt lat="47.42286" lon="6.9165">
        <ele>569.5</ele>
        <time>2021-08-10T13:18:29Z</time>
      </trkpt>
      <trkpt lat="47.42282" lon="6.91651">
        <ele>569.4</ele>
        <time>2021-08-10T13:18:30Z</time>
      </trkpt>
      <trkpt lat="47.42276" lon="6.91652">
        <ele>569.2</ele>
        <time>2021-08-10T13:18:32Z</time>
      </trkpt>
      <trkpt lat="47.42271" lon="6.91652">
        <ele>569.1</ele>
        <time>2021-08-10T13:18:33Z</time>
      </trkpt>
      <trkpt lat="47.42265" lon="6.91652">
        <ele>569</ele>
        <time>2021-08-10T13:18:34Z</time>
      </trkpt>
      <trkpt lat="47.42258" lon="6.91653">
        <ele>568.8</ele>
        <time>2021-08-10T13:18:36Z</time>
      </trkpt>
      <trkpt lat="47.42253" lon="6.91653">
        <ele>568.7</ele>
        <time>2021-08-10T13:18:37Z</time>
      </trkpt>
      <trkpt lat="47.42246" lon="6.91653">
        <ele>568.5</ele>
        <time>2021-08-10T13:18:38Z</time>
      </trkpt>
      <trkpt lat="47.42238" lon="6.91652">
        <ele>568.3</ele>
        <time>2021-08-10T13:18:40Z</time>
      </trkpt>
      <trkpt lat="47.42233" lon="6.91651">
        <ele>568.2</ele>
        <time>2021-08-10T13:18:41Z</time>
      </trkpt>
      <trkpt lat="47.42224" lon="6.9165">
        <ele>567.9</ele>
        <time>2021-08-10T13:18:43Z</time>
      </trkpt>
      <trkpt lat="47.42217" lon="6.9165">
        <ele>567.6</ele>
        <time>2021-08-10T13:18:44Z</time>
      </trkpt>
      <trkpt lat="47.4221" lon="6.9165">
        <ele>567.4</ele>
        <time>2021-08-10T13:18:45Z</time>
      </trkpt>
      <trkpt lat="47.42204" lon="6.9165">
        <ele>567.1</ele>
        <time>2021-08-10T13:18:47Z</time>
      </trkpt>
      <trkpt lat="47.42198" lon="6.91651">
        <ele>566.9</ele>
        <time>2021-08-10T13:18:48Z</time>
      </trkpt>
      <trkpt lat="47.4219" lon="6.91651">
        <ele>566.5</ele>
        <time>2021-08-10T13:18:49Z</time>
      </trkpt>
      <trkpt lat="47.42184" lon="6.91652">
        <ele>566.2</ele>
        <time>2021-08-10T13:18:50Z</time>
      </trkpt>
      <trkpt lat="47.42172" lon="6.91652">
        <ele>565.6</ele>
        <time>2021-08-10T13:18:52Z</time>
      </trkpt>
      <trkpt lat="47.42166" lon="6.91652">
        <ele>565.3</ele>
        <time>2021-08-10T13:18:53Z</time>
      </trkpt>
      <trkpt lat="47.4216" lon="6.91651">
        <ele>565</ele>
        <time>2021-08-10T13:18:54Z</time>
      </trkpt>
      <trkpt lat="47.42148" lon="6.9165">
        <ele>564.5</ele>
        <time>2021-08-10T13:18:56Z</time>
      </trkpt>
      <trkpt lat="47.42137" lon="6.9165">
        <ele>564</ele>
        <time>2021-08-10T13:18:58Z</time>
      </trkpt>
      <trkpt lat="47.42131" lon="6.9165">
        <ele>563.7</ele>
        <time>2021-08-10T13:18:59Z</time>
      </trkpt>
      <trkpt lat="47.42124" lon="6.9165">
        <ele>563.5</ele>
        <time>2021-08-10T13:19:00Z</time>
      </trkpt>
      <trkpt lat="47.42118" lon="6.91649">
        <ele>563.3</ele>
        <time>2021-08-10T13:19:01Z</time>
      </trkpt>
      <trkpt lat="47.42106" lon="6.91647">
        <ele>562.9</ele>
        <time>2021-08-10T13:19:03Z</time>
      </trkpt>
      <trkpt lat="47.42099" lon="6.91645">
        <ele>562.6</ele>
        <time>2021-08-10T13:19:04Z</time>
      </trkpt>
      <trkpt lat="47.42093" lon="6.91643">
        <ele>562.4</ele>
        <time>2021-08-10T13:19:05Z</time>
      </trkpt>
      <trkpt lat="47.42081" lon="6.91641">
        <ele>562</ele>
        <time>2021-08-10T13:19:07Z</time>
      </trkpt>
      <trkpt lat="47.4207" lon="6.91638">
        <ele>561.7</ele>
        <time>2021-08-10T13:19:09Z</time>
      </trkpt>
      <trkpt lat="47.42064" lon="6.91638">
        <ele>561.5</ele>
        <time>2021-08-10T13:19:10Z</time>
      </trkpt>
      <trkpt lat="47.42059" lon="6.91638">
        <ele>561.4</ele>
        <time>2021-08-10T13:19:11Z</time>
      </trkpt>
      <trkpt lat="47.42054" lon="6.91638">
        <ele>561.2</ele>
        <time>2021-08-10T13:19:12Z</time>
      </trkpt>
      <trkpt lat="47.42049" lon="6.91638">
        <ele>561.1</ele>
        <time>2021-08-10T13:19:13Z</time>
      </trkpt>
      <trkpt lat="47.42043" lon="6.91638">
        <ele>560.9</ele>
        <time>2021-08-10T13:19:14Z</time>
      </trkpt>
      <trkpt lat="47.42032" lon="6.91638">
        <ele>560.6</ele>
        <time>2021-08-10T13:19:16Z</time>
      </trkpt>
      <trkpt lat="47.42026" lon="6.91639">
        <ele>560.4</ele>
        <time>2021-08-10T13:19:17Z</time>
      </trkpt>
      <trkpt lat="47.4202" lon="6.9164">
        <ele>560.3</ele>
        <time>2021-08-10T13:19:18Z</time>
      </trkpt>
      <trkpt lat="47.42007" lon="6.91643">
        <ele>559.9</ele>
        <time>2021-08-10T13:19:20Z</time>
      </trkpt>
      <trkpt lat="47.42001" lon="6.91645">
        <ele>559.7</ele>
        <time>2021-08-10T13:19:21Z</time>
      </trkpt>
      <trkpt lat="47.41994" lon="6.91646">
        <ele>559.5</ele>
        <time>2021-08-10T13:19:22Z</time>
      </trkpt>
      <trkpt lat="47.41988" lon="6.91648">
        <ele>559.3</ele>
        <time>2021-08-10T13:19:23Z</time>
      </trkpt>
      <trkpt lat="47.41974" lon="6.9165">
        <ele>558.8</ele>
        <time>2021-08-10T13:19:25Z</time>
      </trkpt>
      <trkpt lat="47.4196" lon="6.91652">
        <ele>558.4</ele>
        <time>2021-08-10T13:19:27Z</time>
      </trkpt>
      <trkpt lat="47.41954" lon="6.91653">
        <ele>558.3</ele>
        <time>2021-08-10T13:19:28Z</time>
      </trkpt>
      <trkpt lat="47.41947" lon="6.91653">
        <ele>558.2</ele>
        <time>2021-08-10T13:19:29Z</time>
      </trkpt>
      <trkpt lat="47.41934" lon="6.91655">
        <ele>558.2</ele>
        <time>2021-08-10T13:19:31Z</time>
      </trkpt>
      <trkpt lat="47.41928" lon="6.91655">
        <ele>558.3</ele>
        <time>2021-08-10T13:19:32Z</time>
      </trkpt>
      <trkpt lat="47.41922" lon="6.91655">
        <ele>558.3</ele>
        <time>2021-08-10T13:19:33Z</time>
      </trkpt>
      <trkpt lat="47.41916" lon="6.91655">
        <ele>558.2</ele>
        <time>2021-08-10T13:19:34Z</time>
      </trkpt>
      <trkpt lat="47.41906" lon="6.91656">
        <ele>558.1</ele>
        <time>2021-08-10T13:19:36Z</time>
      </trkpt>
      <trkpt lat="47.41902" lon="6.91657">
        <ele>558.1</ele>
        <time>2021-08-10T13:19:37Z</time>
      </trkpt>
      <trkpt lat="47.41893" lon="6.91657">
        <ele>558</ele>
        <time>2021-08-10T13:19:39Z</time>
      </trkpt>
      <trkpt lat="47.41889" lon="6.91658">
        <ele>557.9</ele>
        <time>2021-08-10T13:19:40Z</time>
      </trkpt>
      <trkpt lat="47.41878" lon="6.91659">
        <ele>557.7</ele>
        <time>2021-08-10T13:19:42Z</time>
      </trkpt>
      <trkpt lat="47.41882" lon="6.91661">
        <ele>557.6</ele>
        <time>2021-08-10T13:19:44Z</time>
      </trkpt>
      <trkpt lat="47.41877" lon="6.9166">
        <ele>557.5</ele>
        <time>2021-08-10T13:19:45Z</time>
      </trkpt>
      <trkpt lat="47.4187" lon="6.91659">
        <ele>557.3</ele>
        <time>2021-08-10T13:19:47Z</time>
      </trkpt>
      <trkpt lat="47.41864" lon="6.91657">
        <ele>557.1</ele>
        <time>2021-08-10T13:19:48Z</time>
      </trkpt>
      <trkpt lat="47.4186" lon="6.91657">
        <ele>556.8</ele>
        <time>2021-08-10T13:19:49Z</time>
      </trkpt>
      <trkpt lat="47.41855" lon="6.91657">
        <ele>556.2</ele>
        <time>2021-08-10T13:19:51Z</time>
      </trkpt>
      <trkpt lat="47.41851" lon="6.91658">
        <ele>555.8</ele>
        <time>2021-08-10T13:19:52Z</time>
      </trkpt>
      <trkpt lat="47.41847" lon="6.91659">
        <ele>555.2</ele>
        <time>2021-08-10T13:19:54Z</time>
      </trkpt>
      <trkpt lat="47.41844" lon="6.91659">
        <ele>554.8</ele>
        <time>2021-08-10T13:19:55Z</time>
      </trkpt>
      <trkpt lat="47.41841" lon="6.91659">
        <ele>554.3</ele>
        <time>2021-08-10T13:19:56Z</time>
      </trkpt>
      <trkpt lat="47.41839" lon="6.91659">
        <ele>554.1</ele>
        <time>2021-08-10T13:19:57Z</time>
      </trkpt>
      <trkpt lat="47.41836" lon="6.91657">
        <ele>553.6</ele>
        <time>2021-08-10T13:19:59Z</time>
      </trkpt>
      <trkpt lat="47.41832" lon="6.91654">
        <ele>552.8</ele>
        <time>2021-08-10T13:20:00Z</time>
      </trkpt>
      <trkpt lat="47.41828" lon="6.91652">
        <ele>552.2</ele>
        <time>2021-08-10T13:20:01Z</time>
      </trkpt>
      <trkpt lat="47.41825" lon="6.91651">
        <ele>551.7</ele>
        <time>2021-08-10T13:20:03Z</time>
      </trkpt>
      <trkpt lat="47.41824" lon="6.91651">
        <ele>551.4</ele>
        <time>2021-08-10T13:20:04Z</time>
      </trkpt>
      <trkpt lat="47.41823" lon="6.91653">
        <ele>551.2</ele>
        <time>2021-08-10T13:20:06Z</time>
      </trkpt>
      <trkpt lat="47.41823" lon="6.91653">
        <ele>551.1</ele>
        <time>2021-08-10T13:20:07Z</time>
      </trkpt>
      <trkpt lat="47.41823" lon="6.91653">
        <ele>551.1</ele>
        <time>2021-08-10T13:20:09Z</time>
      </trkpt>
      <trkpt lat="47.41823" lon="6.91653">
        <ele>551.1</ele>
        <time>2021-08-10T13:20:11Z</time>
      </trkpt>
      <trkpt lat="47.41823" lon="6.91654">
        <ele>551.1</ele>
        <time>2021-08-10T13:20:12Z</time>
      </trkpt>
      <trkpt lat="47.41823" lon="6.91654">
        <ele>551.1</ele>
        <time>2021-08-10T13:20:13Z</time>
      </trkpt>
      <trkpt lat="47.41823" lon="6.91654">
        <ele>551</ele>
        <time>2021-08-10T13:20:15Z</time>
      </trkpt>
      <trkpt lat="47.41814" lon="6.9165">
        <ele>549.6</ele>
        <time>2021-08-10T13:20:24Z</time>
      </trkpt>
      <trkpt lat="47.41813" lon="6.91647">
        <ele>549.2</ele>
        <time>2021-08-10T13:20:25Z</time>
      </trkpt>
      <trkpt lat="47.4181" lon="6.9164">
        <ele>548.3</ele>
        <time>2021-08-10T13:20:27Z</time>
      </trkpt>
      <trkpt lat="47.41808" lon="6.91636">
        <ele>547.8</ele>
        <time>2021-08-10T13:20:29Z</time>
      </trkpt>
      <trkpt lat="47.41807" lon="6.91636">
        <ele>547.7</ele>
        <time>2021-08-10T13:20:31Z</time>
      </trkpt>
      <trkpt lat="47.41807" lon="6.91635">
        <ele>547.6</ele>
        <time>2021-08-10T13:20:33Z</time>
      </trkpt>
      <trkpt lat="47.41806" lon="6.91635">
        <ele>547.5</ele>
        <time>2021-08-10T13:20:34Z</time>
      </trkpt>
      <trkpt lat="47.41805" lon="6.91633">
        <ele>547.2</ele>
        <time>2021-08-10T13:20:35Z</time>
      </trkpt>
      <trkpt lat="47.41801" lon="6.91625">
        <ele>546.1</ele>
        <time>2021-08-10T13:20:41Z</time>
      </trkpt>
      <trkpt lat="47.41795" lon="6.91622">
        <ele>545.2</ele>
        <time>2021-08-10T13:20:43Z</time>
      </trkpt>
      <trkpt lat="47.41789" lon="6.9162">
        <ele>544.2</ele>
        <time>2021-08-10T13:20:44Z</time>
      </trkpt>
      <trkpt lat="47.41783" lon="6.91617">
        <ele>543.2</ele>
        <time>2021-08-10T13:20:45Z</time>
      </trkpt>
      <trkpt lat="47.41777" lon="6.91614">
        <ele>542.1</ele>
        <time>2021-08-10T13:20:46Z</time>
      </trkpt>
      <trkpt lat="47.41773" lon="6.91612">
        <ele>541.6</ele>
        <time>2021-08-10T13:20:47Z</time>
      </trkpt>
      <trkpt lat="47.41769" lon="6.91611">
        <ele>541</ele>
        <time>2021-08-10T13:20:49Z</time>
      </trkpt>
      <trkpt lat="47.41766" lon="6.91607">
        <ele>540.4</ele>
        <time>2021-08-10T13:20:51Z</time>
      </trkpt>
      <trkpt lat="47.41764" lon="6.91606">
        <ele>540.2</ele>
        <time>2021-08-10T13:20:53Z</time>
      </trkpt>
      <trkpt lat="47.41763" lon="6.91605">
        <ele>540</ele>
        <time>2021-08-10T13:20:54Z</time>
      </trkpt>
      <trkpt lat="47.41761" lon="6.91604">
        <ele>539.8</ele>
        <time>2021-08-10T13:20:55Z</time>
      </trkpt>
      <trkpt lat="47.4176" lon="6.91603">
        <ele>539.5</ele>
        <time>2021-08-10T13:20:57Z</time>
      </trkpt>
      <trkpt lat="47.41758" lon="6.91602">
        <ele>539.3</ele>
        <time>2021-08-10T13:20:58Z</time>
      </trkpt>
      <trkpt lat="47.41757" lon="6.91601">
        <ele>539.1</ele>
        <time>2021-08-10T13:21:00Z</time>
      </trkpt>
      <trkpt lat="47.41755" lon="6.916">
        <ele>539</ele>
        <time>2021-08-10T13:21:01Z</time>
      </trkpt>
      <trkpt lat="47.41754" lon="6.91599">
        <ele>538.8</ele>
        <time>2021-08-10T13:21:09Z</time>
      </trkpt>
      <trkpt lat="47.41752" lon="6.91598">
        <ele>538.6</ele>
        <time>2021-08-10T13:21:10Z</time>
      </trkpt>
      <trkpt lat="47.41747" lon="6.91594">
        <ele>537.9</ele>
        <time>2021-08-10T13:21:11Z</time>
      </trkpt>
      <trkpt lat="47.41743" lon="6.9159">
        <ele>537.4</ele>
        <time>2021-08-10T13:21:12Z</time>
      </trkpt>
      <trkpt lat="47.41735" lon="6.91583">
        <ele>536.6</ele>
        <time>2021-08-10T13:21:13Z</time>
      </trkpt>
      <trkpt lat="47.41729" lon="6.91577">
        <ele>536.1</ele>
        <time>2021-08-10T13:21:15Z</time>
      </trkpt>
      <trkpt lat="47.41724" lon="6.91572">
        <ele>535.7</ele>
        <time>2021-08-10T13:21:17Z</time>
      </trkpt>
      <trkpt lat="47.41721" lon="6.91569">
        <ele>535.5</ele>
        <time>2021-08-10T13:21:18Z</time>
      </trkpt>
      <trkpt lat="47.41717" lon="6.91564">
        <ele>535</ele>
        <time>2021-08-10T13:21:19Z</time>
      </trkpt>
      <trkpt lat="47.41713" lon="6.91559">
        <ele>534.6</ele>
        <time>2021-08-10T13:21:21Z</time>
      </trkpt>
      <trkpt lat="47.4171" lon="6.91554">
        <ele>534.2</ele>
        <time>2021-08-10T13:21:22Z</time>
      </trkpt>
      <trkpt lat="47.41706" lon="6.9155">
        <ele>533.7</ele>
        <time>2021-08-10T13:21:23Z</time>
      </trkpt>
      <trkpt lat="47.41704" lon="6.91546">
        <ele>533.2</ele>
        <time>2021-08-10T13:21:24Z</time>
      </trkpt>
      <trkpt lat="47.41701" lon="6.91543">
        <ele>532.7</ele>
        <time>2021-08-10T13:21:26Z</time>
      </trkpt>
      <trkpt lat="47.41697" lon="6.9154">
        <ele>532</ele>
        <time>2021-08-10T13:21:28Z</time>
      </trkpt>
      <trkpt lat="47.41694" lon="6.91537">
        <ele>531.4</ele>
        <time>2021-08-10T13:21:29Z</time>
      </trkpt>
      <trkpt lat="47.4169" lon="6.91535">
        <ele>530.6</ele>
        <time>2021-08-10T13:21:31Z</time>
      </trkpt>
      <trkpt lat="47.41688" lon="6.91534">
        <ele>530.2</ele>
        <time>2021-08-10T13:21:33Z</time>
      </trkpt>
      <trkpt lat="47.41688" lon="6.91537">
        <ele>529.9</ele>
        <time>2021-08-10T13:21:34Z</time>
      </trkpt>
      <trkpt lat="47.41688" lon="6.91537">
        <ele>529.8</ele>
        <time>2021-08-10T13:21:36Z</time>
      </trkpt>
      <trkpt lat="47.41688" lon="6.91537">
        <ele>529.8</ele>
        <time>2021-08-10T13:21:37Z</time>
      </trkpt>
      <trkpt lat="47.41688" lon="6.91537">
        <ele>529.7</ele>
        <time>2021-08-10T13:21:39Z</time>
      </trkpt>
      <trkpt lat="47.41688" lon="6.91537">
        <ele>529.7</ele>
        <time>2021-08-10T13:21:41Z</time>
      </trkpt>
      <trkpt lat="47.41679" lon="6.9152">
        <ele>526.5</ele>
        <time>2021-08-10T13:21:55Z</time>
      </trkpt>
      <trkpt lat="47.41676" lon="6.91518">
        <ele>525.8</ele>
        <time>2021-08-10T13:21:56Z</time>
      </trkpt>
      <trkpt lat="47.41671" lon="6.91514">
        <ele>524.5</ele>
        <time>2021-08-10T13:21:57Z</time>
      </trkpt>
      <trkpt lat="47.41665" lon="6.91508">
        <ele>522.9</ele>
        <time>2021-08-10T13:21:59Z</time>
      </trkpt>
      <trkpt lat="47.41663" lon="6.91505">
        <ele>522.1</ele>
        <time>2021-08-10T13:22:00Z</time>
      </trkpt>
      <trkpt lat="47.41661" lon="6.91503">
        <ele>521.5</ele>
        <time>2021-08-10T13:22:01Z</time>
      </trkpt>
      <trkpt lat="47.41655" lon="6.91496">
        <ele>519.8</ele>
        <time>2021-08-10T13:22:03Z</time>
      </trkpt>
      <trkpt lat="47.41654" lon="6.91494">
        <ele>519.4</ele>
        <time>2021-08-10T13:22:04Z</time>
      </trkpt>
      <trkpt lat="47.41652" lon="6.9149">
        <ele>518.7</ele>
        <time>2021-08-10T13:22:06Z</time>
      </trkpt>
      <trkpt lat="47.41651" lon="6.91489">
        <ele>518.4</ele>
        <time>2021-08-10T13:22:07Z</time>
      </trkpt>
      <trkpt lat="47.4165" lon="6.91488">
        <ele>518</ele>
        <time>2021-08-10T13:22:09Z</time>
      </trkpt>
      <trkpt lat="47.4165" lon="6.91487">
        <ele>518</ele>
        <time>2021-08-10T13:22:10Z</time>
      </trkpt>
      <trkpt lat="47.4165" lon="6.91487">
        <ele>518</ele>
        <time>2021-08-10T13:22:11Z</time>
      </trkpt>
      <trkpt lat="47.41649" lon="6.91487">
        <ele>517.9</ele>
        <time>2021-08-10T13:22:13Z</time>
      </trkpt>
      <trkpt lat="47.41649" lon="6.91487">
        <ele>517.9</ele>
        <time>2021-08-10T13:22:14Z</time>
      </trkpt>
      <trkpt lat="47.41649" lon="6.91487">
        <ele>517.9</ele>
        <time>2021-08-10T13:22:15Z</time>
      </trkpt>
      <trkpt lat="47.41649" lon="6.91486">
        <ele>517.8</ele>
        <time>2021-08-10T13:22:17Z</time>
      </trkpt>
      <trkpt lat="47.41639" lon="6.91476">
        <ele>515.4</ele>
        <time>2021-08-10T13:22:26Z</time>
      </trkpt>
      <trkpt lat="47.41635" lon="6.91473">
        <ele>514.6</ele>
        <time>2021-08-10T13:22:28Z</time>
      </trkpt>
      <trkpt lat="47.41631" lon="6.9147">
        <ele>513.7</ele>
        <time>2021-08-10T13:22:29Z</time>
      </trkpt>
      <trkpt lat="47.41629" lon="6.91469">
        <ele>513.2</ele>
        <time>2021-08-10T13:22:30Z</time>
      </trkpt>
      <trkpt lat="47.41627" lon="6.91466">
        <ele>512.6</ele>
        <time>2021-08-10T13:22:32Z</time>
      </trkpt>
      <trkpt lat="47.41626" lon="6.91465">
        <ele>512.5</ele>
        <time>2021-08-10T13:22:34Z</time>
      </trkpt>
      <trkpt lat="47.41626" lon="6.91464">
        <ele>512.4</ele>
        <time>2021-08-10T13:22:36Z</time>
      </trkpt>
      <trkpt lat="47.41626" lon="6.91464">
        <ele>512.4</ele>
        <time>2021-08-10T13:22:37Z</time>
      </trkpt>
      <trkpt lat="47.41626" lon="6.91464">
        <ele>512.4</ele>
        <time>2021-08-10T13:22:39Z</time>
      </trkpt>
      <trkpt lat="47.41621" lon="6.91452">
        <ele>510.5</ele>
        <time>2021-08-10T13:23:07Z</time>
      </trkpt>
      <trkpt lat="47.41617" lon="6.91451">
        <ele>509.8</ele>
        <time>2021-08-10T13:23:09Z</time>
      </trkpt>
      <trkpt lat="47.41612" lon="6.91449">
        <ele>509</ele>
        <time>2021-08-10T13:23:11Z</time>
      </trkpt>
      <trkpt lat="47.41607" lon="6.91448">
        <ele>508.3</ele>
        <time>2021-08-10T13:23:13Z</time>
      </trkpt>
      <trkpt lat="47.41607" lon="6.91448">
        <ele>508.3</ele>
        <time>2021-08-10T13:23:14Z</time>
      </trkpt>
      <trkpt lat="47.41605" lon="6.91448">
        <ele>508</ele>
        <time>2021-08-10T13:23:15Z</time>
      </trkpt>
      <trkpt lat="47.41603" lon="6.91447">
        <ele>507.7</ele>
        <time>2021-08-10T13:23:17Z</time>
      </trkpt>
      <trkpt lat="47.41599" lon="6.91449">
        <ele>507.2</ele>
        <time>2021-08-10T13:23:18Z</time>
      </trkpt>
      <trkpt lat="47.41596" lon="6.9145">
        <ele>506.7</ele>
        <time>2021-08-10T13:23:19Z</time>
      </trkpt>
      <trkpt lat="47.41592" lon="6.91451">
        <ele>506.3</ele>
        <time>2021-08-10T13:23:20Z</time>
      </trkpt>
      <trkpt lat="47.41586" lon="6.91452">
        <ele>505.4</ele>
        <time>2021-08-10T13:23:22Z</time>
      </trkpt>
      <trkpt lat="47.41582" lon="6.91452">
        <ele>504.9</ele>
        <time>2021-08-10T13:23:23Z</time>
      </trkpt>
      <trkpt lat="47.41576" lon="6.9145">
        <ele>504.2</ele>
        <time>2021-08-10T13:23:25Z</time>
      </trkpt>
      <trkpt lat="47.41572" lon="6.9145">
        <ele>503.8</ele>
        <time>2021-08-10T13:23:26Z</time>
      </trkpt>
      <trkpt lat="47.41568" lon="6.91449">
        <ele>503.2</ele>
        <time>2021-08-10T13:23:27Z</time>
      </trkpt>
      <trkpt lat="47.41564" lon="6.9145">
        <ele>502.8</ele>
        <time>2021-08-10T13:23:29Z</time>
      </trkpt>
      <trkpt lat="47.41559" lon="6.9145">
        <ele>502.3</ele>
        <time>2021-08-10T13:23:31Z</time>
      </trkpt>
      <trkpt lat="47.41558" lon="6.91445">
        <ele>502</ele>
        <time>2021-08-10T13:23:33Z</time>
      </trkpt>
      <trkpt lat="47.41556" lon="6.91443">
        <ele>501.7</ele>
        <time>2021-08-10T13:23:34Z</time>
      </trkpt>
      <trkpt lat="47.41554" lon="6.9144">
        <ele>501.4</ele>
        <time>2021-08-10T13:23:36Z</time>
      </trkpt>
      <trkpt lat="47.41552" lon="6.91437">
        <ele>501.1</ele>
        <time>2021-08-10T13:23:37Z</time>
      </trkpt>
      <trkpt lat="47.4155" lon="6.91434">
        <ele>500.7</ele>
        <time>2021-08-10T13:23:39Z</time>
      </trkpt>
      <trkpt lat="47.41548" lon="6.91431">
        <ele>500.4</ele>
        <time>2021-08-10T13:23:50Z</time>
      </trkpt>
      <trkpt lat="47.41546" lon="6.91429">
        <ele>500.1</ele>
        <time>2021-08-10T13:23:51Z</time>
      </trkpt>
      <trkpt lat="47.41539" lon="6.91425">
        <ele>499.2</ele>
        <time>2021-08-10T13:23:53Z</time>
      </trkpt>
      <trkpt lat="47.41531" lon="6.91422">
        <ele>498.4</ele>
        <time>2021-08-10T13:23:54Z</time>
      </trkpt>
      <trkpt lat="47.41523" lon="6.91417">
        <ele>497.4</ele>
        <time>2021-08-10T13:23:55Z</time>
      </trkpt>
      <trkpt lat="47.41517" lon="6.91414">
        <ele>496.7</ele>
        <time>2021-08-10T13:23:57Z</time>
      </trkpt>
      <trkpt lat="47.41513" lon="6.91412">
        <ele>496.2</ele>
        <time>2021-08-10T13:23:58Z</time>
      </trkpt>
      <trkpt lat="47.41511" lon="6.91411">
        <ele>495.9</ele>
        <time>2021-08-10T13:23:59Z</time>
      </trkpt>
      <trkpt lat="47.41507" lon="6.9141">
        <ele>495.4</ele>
        <time>2021-08-10T13:24:00Z</time>
      </trkpt>
      <trkpt lat="47.41503" lon="6.91408">
        <ele>494.9</ele>
        <time>2021-08-10T13:24:01Z</time>
      </trkpt>
      <trkpt lat="47.41498" lon="6.91407">
        <ele>494.3</ele>
        <time>2021-08-10T13:24:02Z</time>
      </trkpt>
      <trkpt lat="47.41494" lon="6.91407">
        <ele>493.8</ele>
        <time>2021-08-10T13:24:04Z</time>
      </trkpt>
      <trkpt lat="47.41491" lon="6.91405">
        <ele>493.4</ele>
        <time>2021-08-10T13:24:05Z</time>
      </trkpt>
      <trkpt lat="47.41488" lon="6.91403">
        <ele>492.9</ele>
        <time>2021-08-10T13:24:06Z</time>
      </trkpt>
      <trkpt lat="47.41486" lon="6.91401">
        <ele>492.6</ele>
        <time>2021-08-10T13:24:07Z</time>
      </trkpt>
      <trkpt lat="47.41483" lon="6.91398">
        <ele>492.2</ele>
        <time>2021-08-10T13:24:09Z</time>
      </trkpt>
      <trkpt lat="47.4148" lon="6.91395">
        <ele>491.8</ele>
        <time>2021-08-10T13:24:10Z</time>
      </trkpt>
      <trkpt lat="47.41478" lon="6.91392">
        <ele>491.3</ele>
        <time>2021-08-10T13:24:11Z</time>
      </trkpt>
      <trkpt lat="47.41475" lon="6.91388">
        <ele>490.9</ele>
        <time>2021-08-10T13:24:12Z</time>
      </trkpt>
      <trkpt lat="47.41471" lon="6.91385">
        <ele>490.4</ele>
        <time>2021-08-10T13:24:13Z</time>
      </trkpt>
      <trkpt lat="47.41467" lon="6.91382">
        <ele>489.8</ele>
        <time>2021-08-10T13:24:15Z</time>
      </trkpt>
      <trkpt lat="47.41465" lon="6.91381">
        <ele>489.6</ele>
        <time>2021-08-10T13:24:16Z</time>
      </trkpt>
      <trkpt lat="47.41463" lon="6.91379">
        <ele>489.3</ele>
        <time>2021-08-10T13:24:18Z</time>
      </trkpt>
      <trkpt lat="47.41461" lon="6.91378">
        <ele>489.1</ele>
        <time>2021-08-10T13:24:19Z</time>
      </trkpt>
      <trkpt lat="47.41459" lon="6.91378">
        <ele>488.8</ele>
        <time>2021-08-10T13:24:21Z</time>
      </trkpt>
      <trkpt lat="47.41458" lon="6.91378">
        <ele>488.6</ele>
        <time>2021-08-10T13:24:22Z</time>
      </trkpt>
      <trkpt lat="47.41455" lon="6.91377">
        <ele>488.3</ele>
        <time>2021-08-10T13:24:24Z</time>
      </trkpt>
      <trkpt lat="47.41452" lon="6.91376">
        <ele>487.9</ele>
        <time>2021-08-10T13:24:25Z</time>
      </trkpt>
      <trkpt lat="47.4145" lon="6.91373">
        <ele>487.5</ele>
        <time>2021-08-10T13:24:26Z</time>
      </trkpt>
      <trkpt lat="47.41449" lon="6.91371">
        <ele>487.3</ele>
        <time>2021-08-10T13:24:27Z</time>
      </trkpt>
      <trkpt lat="47.41448" lon="6.91369">
        <ele>487</ele>
        <time>2021-08-10T13:24:29Z</time>
      </trkpt>
      <trkpt lat="47.41446" lon="6.91363">
        <ele>486.4</ele>
        <time>2021-08-10T13:24:31Z</time>
      </trkpt>
      <trkpt lat="47.41446" lon="6.91362">
        <ele>486.3</ele>
        <time>2021-08-10T13:24:32Z</time>
      </trkpt>
      <trkpt lat="47.41446" lon="6.91361">
        <ele>486.2</ele>
        <time>2021-08-10T13:24:34Z</time>
      </trkpt>
      <trkpt lat="47.41446" lon="6.91361">
        <ele>486.2</ele>
        <time>2021-08-10T13:24:35Z</time>
      </trkpt>
      <trkpt lat="47.41446" lon="6.91361">
        <ele>486.2</ele>
        <time>2021-08-10T13:24:37Z</time>
      </trkpt>
      <trkpt lat="47.41446" lon="6.91361">
        <ele>486.1</ele>
        <time>2021-08-10T13:24:39Z</time>
      </trkpt>
      <trkpt lat="47.41325" lon="6.91369">
        <ele>464</ele>
        <time>2021-08-10T13:25:16Z</time>
      </trkpt>
      <trkpt lat="47.41318" lon="6.91367">
        <ele>463</ele>
        <time>2021-08-10T13:25:17Z</time>
      </trkpt>
      <trkpt lat="47.41309" lon="6.91363">
        <ele>461.8</ele>
        <time>2021-08-10T13:25:19Z</time>
      </trkpt>
      <trkpt lat="47.41304" lon="6.9136">
        <ele>461.1</ele>
        <time>2021-08-10T13:25:20Z</time>
      </trkpt>
      <trkpt lat="47.41299" lon="6.91358">
        <ele>460.6</ele>
        <time>2021-08-10T13:25:21Z</time>
      </trkpt>
      <trkpt lat="47.41295" lon="6.91355">
        <ele>460.1</ele>
        <time>2021-08-10T13:25:22Z</time>
      </trkpt>
      <trkpt lat="47.41292" lon="6.91353">
        <ele>459.7</ele>
        <time>2021-08-10T13:25:23Z</time>
      </trkpt>
      <trkpt lat="47.41289" lon="6.91352">
        <ele>459.4</ele>
        <time>2021-08-10T13:25:25Z</time>
      </trkpt>
      <trkpt lat="47.41286" lon="6.9135">
        <ele>459.1</ele>
        <time>2021-08-10T13:25:26Z</time>
      </trkpt>
      <trkpt lat="47.41281" lon="6.91345">
        <ele>458.6</ele>
        <time>2021-08-10T13:25:28Z</time>
      </trkpt>
      <trkpt lat="47.41277" lon="6.9134">
        <ele>458.1</ele>
        <time>2021-08-10T13:25:29Z</time>
      </trkpt>
      <trkpt lat="47.41274" lon="6.91337">
        <ele>457.7</ele>
        <time>2021-08-10T13:25:30Z</time>
      </trkpt>
      <trkpt lat="47.41271" lon="6.91333">
        <ele>457.3</ele>
        <time>2021-08-10T13:25:31Z</time>
      </trkpt>
      <trkpt lat="47.41267" lon="6.91329">
        <ele>456.8</ele>
        <time>2021-08-10T13:25:32Z</time>
      </trkpt>
      <trkpt lat="47.41261" lon="6.91323">
        <ele>456.2</ele>
        <time>2021-08-10T13:25:34Z</time>
      </trkpt>
      <trkpt lat="47.41258" lon="6.91319">
        <ele>455.7</ele>
        <time>2021-08-10T13:25:35Z</time>
      </trkpt>
      <trkpt lat="47.41254" lon="6.91316">
        <ele>455.3</ele>
        <time>2021-08-10T13:25:36Z</time>
      </trkpt>
      <trkpt lat="47.41251" lon="6.91314">
        <ele>454.8</ele>
        <time>2021-08-10T13:25:37Z</time>
      </trkpt>
      <trkpt lat="47.41245" lon="6.9131">
        <ele>454.1</ele>
        <time>2021-08-10T13:25:38Z</time>
      </trkpt>
      <trkpt lat="47.4124" lon="6.91306">
        <ele>453.4</ele>
        <time>2021-08-10T13:25:40Z</time>
      </trkpt>
      <trkpt lat="47.41236" lon="6.91305">
        <ele>452.8</ele>
        <time>2021-08-10T13:25:41Z</time>
      </trkpt>
      <trkpt lat="47.41229" lon="6.91302">
        <ele>451.8</ele>
        <time>2021-08-10T13:25:43Z</time>
      </trkpt>
      <trkpt lat="47.41223" lon="6.91299">
        <ele>451</ele>
        <time>2021-08-10T13:25:44Z</time>
      </trkpt>
      <trkpt lat="47.41218" lon="6.91296">
        <ele>450.3</ele>
        <time>2021-08-10T13:25:46Z</time>
      </trkpt>
      <trkpt lat="47.41215" lon="6.91293">
        <ele>449.8</ele>
        <time>2021-08-10T13:25:47Z</time>
      </trkpt>
      <trkpt lat="47.41211" lon="6.91288">
        <ele>449</ele>
        <time>2021-08-10T13:25:49Z</time>
      </trkpt>
      <trkpt lat="47.41209" lon="6.91286">
        <ele>448.7</ele>
        <time>2021-08-10T13:25:50Z</time>
      </trkpt>
      <trkpt lat="47.41208" lon="6.91284">
        <ele>448.5</ele>
        <time>2021-08-10T13:25:51Z</time>
      </trkpt>
      <trkpt lat="47.41207" lon="6.91281">
        <ele>448.2</ele>
        <time>2021-08-10T13:25:52Z</time>
      </trkpt>
      <trkpt lat="47.41207" lon="6.9128">
        <ele>448.1</ele>
        <time>2021-08-10T13:25:53Z</time>
      </trkpt>
      <trkpt lat="47.41207" lon="6.91279">
        <ele>448</ele>
        <time>2021-08-10T13:25:54Z</time>
      </trkpt>
      <trkpt lat="47.41207" lon="6.91279">
        <ele>448</ele>
        <time>2021-08-10T13:25:55Z</time>
      </trkpt>
      <trkpt lat="47.41207" lon="6.91279">
        <ele>448</ele>
        <time>2021-08-10T13:25:56Z</time>
      </trkpt>
      <trkpt lat="47.41207" lon="6.91279">
        <ele>448</ele>
        <time>2021-08-10T13:25:58Z</time>
      </trkpt>
      <trkpt lat="47.41207" lon="6.91279">
        <ele>448</ele>
        <time>2021-08-10T13:25:59Z</time>
      </trkpt>
      <trkpt lat="47.41207" lon="6.91279">
        <ele>448</ele>
        <time>2021-08-10T13:26:00Z</time>
      </trkpt>
      <trkpt lat="47.41167" lon="6.91301">
        <ele>441.4</ele>
        <time>2021-08-10T13:27:00Z</time>
      </trkpt>
      <trkpt lat="47.41161" lon="6.91305">
        <ele>440.5</ele>
        <time>2021-08-10T13:27:02Z</time>
      </trkpt>
      <trkpt lat="47.41157" lon="6.91306">
        <ele>439.9</ele>
        <time>2021-08-10T13:27:03Z</time>
      </trkpt>
      <trkpt lat="47.41155" lon="6.91306">
        <ele>439.6</ele>
        <time>2021-08-10T13:27:04Z</time>
      </trkpt>
      <trkpt lat="47.41151" lon="6.91307">
        <ele>439.2</ele>
        <time>2021-08-10T13:27:06Z</time>
      </trkpt>
      <trkpt lat="47.4115" lon="6.91307">
        <ele>439.1</ele>
        <time>2021-08-10T13:27:07Z</time>
      </trkpt>
      <trkpt lat="47.41145" lon="6.91307">
        <ele>438.6</ele>
        <time>2021-08-10T13:27:09Z</time>
      </trkpt>
      <trkpt lat="47.41142" lon="6.91306">
        <ele>438.3</ele>
        <time>2021-08-10T13:27:10Z</time>
      </trkpt>
      <trkpt lat="47.41139" lon="6.91306">
        <ele>438.1</ele>
        <time>2021-08-10T13:27:11Z</time>
      </trkpt>
      <trkpt lat="47.41135" lon="6.91306">
        <ele>437.9</ele>
        <time>2021-08-10T13:27:13Z</time>
      </trkpt>
      <trkpt lat="47.41131" lon="6.91306">
        <ele>437.6</ele>
        <time>2021-08-10T13:27:14Z</time>
      </trkpt>
      <trkpt lat="47.41128" lon="6.91306">
        <ele>437.5</ele>
        <time>2021-08-10T13:27:15Z</time>
      </trkpt>
      <trkpt lat="47.41126" lon="6.91305">
        <ele>437.5</ele>
        <time>2021-08-10T13:27:16Z</time>
      </trkpt>
      <trkpt lat="47.41124" lon="6.91305">
        <ele>437.3</ele>
        <time>2021-08-10T13:27:18Z</time>
      </trkpt>
      <trkpt lat="47.41121" lon="6.91303">
        <ele>437.2</ele>
        <time>2021-08-10T13:27:19Z</time>
      </trkpt>
      <trkpt lat="47.41117" lon="6.913">
        <ele>437</ele>
        <time>2021-08-10T13:27:20Z</time>
      </trkpt>
      <trkpt lat="47.41114" lon="6.91298">
        <ele>436.8</ele>
        <time>2021-08-10T13:27:21Z</time>
      </trkpt>
      <trkpt lat="47.41111" lon="6.91295">
        <ele>436.7</ele>
        <time>2021-08-10T13:27:22Z</time>
      </trkpt>
      <trkpt lat="47.41107" lon="6.91293">
        <ele>436.5</ele>
        <time>2021-08-10T13:27:24Z</time>
      </trkpt>
      <trkpt lat="47.41102" lon="6.91289">
        <ele>436.2</ele>
        <time>2021-08-10T13:27:25Z</time>
      </trkpt>
      <trkpt lat="47.41096" lon="6.91284">
        <ele>436</ele>
        <time>2021-08-10T13:27:27Z</time>
      </trkpt>
      <trkpt lat="47.41092" lon="6.9128">
        <ele>435.9</ele>
        <time>2021-08-10T13:27:28Z</time>
      </trkpt>
      <trkpt lat="47.41088" lon="6.91277">
        <ele>435.8</ele>
        <time>2021-08-10T13:27:29Z</time>
      </trkpt>
      <trkpt lat="47.41087" lon="6.91276">
        <ele>435.7</ele>
        <time>2021-08-10T13:27:30Z</time>
      </trkpt>
      <trkpt lat="47.41084" lon="6.91273">
        <ele>435.7</ele>
        <time>2021-08-10T13:27:32Z</time>
      </trkpt>
      <trkpt lat="47.41081" lon="6.9127">
        <ele>435.6</ele>
        <time>2021-08-10T13:27:33Z</time>
      </trkpt>
      <trkpt lat="47.41079" lon="6.91269">
        <ele>435.6</ele>
        <time>2021-08-10T13:27:34Z</time>
      </trkpt>
      <trkpt lat="47.4107" lon="6.91262">
        <ele>435.4</ele>
        <time>2021-08-10T13:27:39Z</time>
      </trkpt>
      <trkpt lat="47.41066" lon="6.9126">
        <ele>435.4</ele>
        <time>2021-08-10T13:27:41Z</time>
      </trkpt>
      <trkpt lat="47.41064" lon="6.91258">
        <ele>435.4</ele>
        <time>2021-08-10T13:27:42Z</time>
      </trkpt>
      <trkpt lat="47.41063" lon="6.91257">
        <ele>435.4</ele>
        <time>2021-08-10T13:27:43Z</time>
      </trkpt>
      <trkpt lat="47.41062" lon="6.91256">
        <ele>435.4</ele>
        <time>2021-08-10T13:27:44Z</time>
      </trkpt>
      <trkpt lat="47.4106" lon="6.91255">
        <ele>435.4</ele>
        <time>2021-08-10T13:27:46Z</time>
      </trkpt>
      <trkpt lat="47.41059" lon="6.91254">
        <ele>435.3</ele>
        <time>2021-08-10T13:27:47Z</time>
      </trkpt>
      <trkpt lat="47.41058" lon="6.91254">
        <ele>435.3</ele>
        <time>2021-08-10T13:27:48Z</time>
      </trkpt>
      <trkpt lat="47.41057" lon="6.91254">
        <ele>435.3</ele>
        <time>2021-08-10T13:27:49Z</time>
      </trkpt>
      <trkpt lat="47.41056" lon="6.91254">
        <ele>435.3</ele>
        <time>2021-08-10T13:27:50Z</time>
      </trkpt>
      <trkpt lat="47.41054" lon="6.91255">
        <ele>435.3</ele>
        <time>2021-08-10T13:27:51Z</time>
      </trkpt>
      <trkpt lat="47.41052" lon="6.91255">
        <ele>435.3</ele>
        <time>2021-08-10T13:27:53Z</time>
      </trkpt>
      <trkpt lat="47.41051" lon="6.91254">
        <ele>435.3</ele>
        <time>2021-08-10T13:27:54Z</time>
      </trkpt>
      <trkpt lat="47.41049" lon="6.91253">
        <ele>435.3</ele>
        <time>2021-08-10T13:27:55Z</time>
      </trkpt>
      <trkpt lat="47.41045" lon="6.91251">
        <ele>435.3</ele>
        <time>2021-08-10T13:27:57Z</time>
      </trkpt>
      <trkpt lat="47.41042" lon="6.9125">
        <ele>435.3</ele>
        <time>2021-08-10T13:27:58Z</time>
      </trkpt>
      <trkpt lat="47.4104" lon="6.91249">
        <ele>435.3</ele>
        <time>2021-08-10T13:27:59Z</time>
      </trkpt>
      <trkpt lat="47.41037" lon="6.91248">
        <ele>435.3</ele>
        <time>2021-08-10T13:28:00Z</time>
      </trkpt>
      <trkpt lat="47.41035" lon="6.91248">
        <ele>435.2</ele>
        <time>2021-08-10T13:28:01Z</time>
      </trkpt>
      <trkpt lat="47.41034" lon="6.91249">
        <ele>435.2</ele>
        <time>2021-08-10T13:28:02Z</time>
      </trkpt>
      <trkpt lat="47.41032" lon="6.91249">
        <ele>435.2</ele>
        <time>2021-08-10T13:28:04Z</time>
      </trkpt>
      <trkpt lat="47.41029" lon="6.91248">
        <ele>435.1</ele>
        <time>2021-08-10T13:28:05Z</time>
      </trkpt>
      <trkpt lat="47.41025" lon="6.91248">
        <ele>435</ele>
        <time>2021-08-10T13:28:06Z</time>
      </trkpt>
      <trkpt lat="47.41024" lon="6.91248">
        <ele>435</ele>
        <time>2021-08-10T13:28:07Z</time>
      </trkpt>
      <trkpt lat="47.41022" lon="6.91249">
        <ele>435</ele>
        <time>2021-08-10T13:28:08Z</time>
      </trkpt>
      <trkpt lat="47.4102" lon="6.91249">
        <ele>434.9</ele>
        <time>2021-08-10T13:28:10Z</time>
      </trkpt>
      <trkpt lat="47.41013" lon="6.91247">
        <ele>434.8</ele>
        <time>2021-08-10T13:28:11Z</time>
      </trkpt>
      <trkpt lat="47.41007" lon="6.91246">
        <ele>434.8</ele>
        <time>2021-08-10T13:28:12Z</time>
      </trkpt>
      <trkpt lat="47.40995" lon="6.91242">
        <ele>435</ele>
        <time>2021-08-10T13:28:14Z</time>
      </trkpt>
      <trkpt lat="47.4099" lon="6.91239">
        <ele>435.1</ele>
        <time>2021-08-10T13:28:15Z</time>
      </trkpt>
      <trkpt lat="47.40986" lon="6.91236">
        <ele>435.3</ele>
        <time>2021-08-10T13:28:16Z</time>
      </trkpt>
      <trkpt lat="47.40982" lon="6.91234">
        <ele>435.6</ele>
        <time>2021-08-10T13:28:17Z</time>
      </trkpt>
      <trkpt lat="47.40978" lon="6.91233">
        <ele>435.8</ele>
        <time>2021-08-10T13:28:19Z</time>
      </trkpt>
      <trkpt lat="47.40977" lon="6.91232">
        <ele>435.9</ele>
        <time>2021-08-10T13:28:20Z</time>
      </trkpt>
      <trkpt lat="47.40975" lon="6.91231">
        <ele>436</ele>
        <time>2021-08-10T13:28:21Z</time>
      </trkpt>
      <trkpt lat="47.40974" lon="6.91232">
        <ele>436.1</ele>
        <time>2021-08-10T13:28:22Z</time>
      </trkpt>
      <trkpt lat="47.40973" lon="6.91232">
        <ele>436.2</ele>
        <time>2021-08-10T13:28:23Z</time>
      </trkpt>
      <trkpt lat="47.40973" lon="6.91233">
        <ele>436.2</ele>
        <time>2021-08-10T13:28:24Z</time>
      </trkpt>
      <trkpt lat="47.40972" lon="6.91236">
        <ele>436.4</ele>
        <time>2021-08-10T13:28:26Z</time>
      </trkpt>
      <trkpt lat="47.4097" lon="6.91239">
        <ele>436.6</ele>
        <time>2021-08-10T13:28:27Z</time>
      </trkpt>
      <trkpt lat="47.40967" lon="6.91242">
        <ele>436.8</ele>
        <time>2021-08-10T13:28:29Z</time>
      </trkpt>
      <trkpt lat="47.40967" lon="6.91243">
        <ele>436.8</ele>
        <time>2021-08-10T13:28:30Z</time>
      </trkpt>
      <trkpt lat="47.40965" lon="6.91243">
        <ele>436.9</ele>
        <time>2021-08-10T13:28:31Z</time>
      </trkpt>
      <trkpt lat="47.40964" lon="6.91242">
        <ele>437</ele>
        <time>2021-08-10T13:28:32Z</time>
      </trkpt>
      <trkpt lat="47.40959" lon="6.9124">
        <ele>437.2</ele>
        <time>2021-08-10T13:28:34Z</time>
      </trkpt>
      <trkpt lat="47.40957" lon="6.91239">
        <ele>437.3</ele>
        <time>2021-08-10T13:28:35Z</time>
      </trkpt>
      <trkpt lat="47.40955" lon="6.91238">
        <ele>437.3</ele>
        <time>2021-08-10T13:28:36Z</time>
      </trkpt>
      <trkpt lat="47.40953" lon="6.91236">
        <ele>437.4</ele>
        <time>2021-08-10T13:28:37Z</time>
      </trkpt>
      <trkpt lat="47.40949" lon="6.91231">
        <ele>437.4</ele>
        <time>2021-08-10T13:28:39Z</time>
      </trkpt>
      <trkpt lat="47.40945" lon="6.91232">
        <ele>437.5</ele>
        <time>2021-08-10T13:28:40Z</time>
      </trkpt>
      <trkpt lat="47.40942" lon="6.91231">
        <ele>437.5</ele>
        <time>2021-08-10T13:28:42Z</time>
      </trkpt>
      <trkpt lat="47.40941" lon="6.91231">
        <ele>437.5</ele>
        <time>2021-08-10T13:28:43Z</time>
      </trkpt>
      <trkpt lat="47.40938" lon="6.91231">
        <ele>437.4</ele>
        <time>2021-08-10T13:28:44Z</time>
      </trkpt>
      <trkpt lat="47.40935" lon="6.91232">
        <ele>437.4</ele>
        <time>2021-08-10T13:28:46Z</time>
      </trkpt>
      <trkpt lat="47.40933" lon="6.91232">
        <ele>437.4</ele>
        <time>2021-08-10T13:28:47Z</time>
      </trkpt>
      <trkpt lat="47.40931" lon="6.91233">
        <ele>437.4</ele>
        <time>2021-08-10T13:28:48Z</time>
      </trkpt>
      <trkpt lat="47.40927" lon="6.91234">
        <ele>437.3</ele>
        <time>2021-08-10T13:28:50Z</time>
      </trkpt>
      <trkpt lat="47.40925" lon="6.91235">
        <ele>437.3</ele>
        <time>2021-08-10T13:28:51Z</time>
      </trkpt>
      <trkpt lat="47.40921" lon="6.91237">
        <ele>437.2</ele>
        <time>2021-08-10T13:28:53Z</time>
      </trkpt>
      <trkpt lat="47.40916" lon="6.9124">
        <ele>437.1</ele>
        <time>2021-08-10T13:28:54Z</time>
      </trkpt>
      <trkpt lat="47.4091" lon="6.91244">
        <ele>437</ele>
        <time>2021-08-10T13:28:56Z</time>
      </trkpt>
      <trkpt lat="47.40905" lon="6.91245">
        <ele>436.8</ele>
        <time>2021-08-10T13:28:57Z</time>
      </trkpt>
      <trkpt lat="47.40899" lon="6.91248">
        <ele>436.7</ele>
        <time>2021-08-10T13:28:58Z</time>
      </trkpt>
      <trkpt lat="47.40896" lon="6.9125">
        <ele>436.5</ele>
        <time>2021-08-10T13:28:59Z</time>
      </trkpt>
      <trkpt lat="47.40894" lon="6.91251">
        <ele>436.5</ele>
        <time>2021-08-10T13:29:00Z</time>
      </trkpt>
      <trkpt lat="47.40887" lon="6.91253">
        <ele>436.1</ele>
        <time>2021-08-10T13:29:02Z</time>
      </trkpt>
      <trkpt lat="47.40881" lon="6.91254">
        <ele>435.7</ele>
        <time>2021-08-10T13:29:03Z</time>
      </trkpt>
      <trkpt lat="47.40871" lon="6.91253">
        <ele>434.8</ele>
        <time>2021-08-10T13:29:05Z</time>
      </trkpt>
      <trkpt lat="47.40863" lon="6.91254">
        <ele>434.3</ele>
        <time>2021-08-10T13:29:06Z</time>
      </trkpt>
      <trkpt lat="47.40859" lon="6.91255">
        <ele>434</ele>
        <time>2021-08-10T13:29:07Z</time>
      </trkpt>
      <trkpt lat="47.40855" lon="6.91256">
        <ele>433.8</ele>
        <time>2021-08-10T13:29:09Z</time>
      </trkpt>
      <trkpt lat="47.40852" lon="6.91256">
        <ele>433.7</ele>
        <time>2021-08-10T13:29:10Z</time>
      </trkpt>
      <trkpt lat="47.40851" lon="6.91256">
        <ele>433.7</ele>
        <time>2021-08-10T13:29:11Z</time>
      </trkpt>
      <trkpt lat="47.40848" lon="6.91255">
        <ele>433.6</ele>
        <time>2021-08-10T13:29:12Z</time>
      </trkpt>
      <trkpt lat="47.40845" lon="6.91254">
        <ele>433.5</ele>
        <time>2021-08-10T13:29:13Z</time>
      </trkpt>
      <trkpt lat="47.40843" lon="6.91254">
        <ele>433.5</ele>
        <time>2021-08-10T13:29:14Z</time>
      </trkpt>
      <trkpt lat="47.40841" lon="6.91253">
        <ele>433.4</ele>
        <time>2021-08-10T13:29:15Z</time>
      </trkpt>
      <trkpt lat="47.40839" lon="6.91252">
        <ele>433.4</ele>
        <time>2021-08-10T13:29:17Z</time>
      </trkpt>
      <trkpt lat="47.40835" lon="6.91252">
        <ele>433.4</ele>
        <time>2021-08-10T13:29:18Z</time>
      </trkpt>
      <trkpt lat="47.40835" lon="6.91253">
        <ele>433.4</ele>
        <time>2021-08-10T13:29:19Z</time>
      </trkpt>
      <trkpt lat="47.40832" lon="6.91252">
        <ele>433.4</ele>
        <time>2021-08-10T13:29:21Z</time>
      </trkpt>
      <trkpt lat="47.40831" lon="6.91252">
        <ele>433.4</ele>
        <time>2021-08-10T13:29:22Z</time>
      </trkpt>
      <trkpt lat="47.40829" lon="6.91252">
        <ele>433.4</ele>
        <time>2021-08-10T13:29:24Z</time>
      </trkpt>
      <trkpt lat="47.40828" lon="6.91252">
        <ele>433.4</ele>
        <time>2021-08-10T13:29:25Z</time>
      </trkpt>
      <trkpt lat="47.40827" lon="6.91252">
        <ele>433.4</ele>
        <time>2021-08-10T13:29:26Z</time>
      </trkpt>
      <trkpt lat="47.40825" lon="6.91253">
        <ele>433.4</ele>
        <time>2021-08-10T13:29:27Z</time>
      </trkpt>
      <trkpt lat="47.40824" lon="6.91253">
        <ele>433.4</ele>
        <time>2021-08-10T13:29:29Z</time>
      </trkpt>
      <trkpt lat="47.40603" lon="6.90842">
        <ele>429.1</ele>
        <time>2021-08-10T13:31:09Z</time>
      </trkpt>
      <trkpt lat="47.40598" lon="6.90839">
        <ele>429.1</ele>
        <time>2021-08-10T13:31:11Z</time>
      </trkpt>
      <trkpt lat="47.40594" lon="6.90837">
        <ele>429</ele>
        <time>2021-08-10T13:31:12Z</time>
      </trkpt>
      <trkpt lat="47.40592" lon="6.90835">
        <ele>429</ele>
        <time>2021-08-10T13:31:13Z</time>
      </trkpt>
      <trkpt lat="47.40591" lon="6.90834">
        <ele>429</ele>
        <time>2021-08-10T13:31:14Z</time>
      </trkpt>
      <trkpt lat="47.40591" lon="6.90833">
        <ele>429</ele>
        <time>2021-08-10T13:31:15Z</time>
      </trkpt>
      <trkpt lat="47.4059" lon="6.90832">
        <ele>429</ele>
        <time>2021-08-10T13:31:17Z</time>
      </trkpt>
      <trkpt lat="47.40589" lon="6.90832">
        <ele>429</ele>
        <time>2021-08-10T13:31:18Z</time>
      </trkpt>
      <trkpt lat="47.40589" lon="6.90831">
        <ele>429</ele>
        <time>2021-08-10T13:31:19Z</time>
      </trkpt>
      <trkpt lat="47.40429" lon="6.90861">
        <ele>438.3</ele>
        <time>2021-08-10T13:32:15Z</time>
      </trkpt>
      <trkpt lat="47.40422" lon="6.90871">
        <ele>438.9</ele>
        <time>2021-08-10T13:32:16Z</time>
      </trkpt>
      <trkpt lat="47.40414" lon="6.90881">
        <ele>437.6</ele>
        <time>2021-08-10T13:32:17Z</time>
      </trkpt>
      <trkpt lat="47.40399" lon="6.90896">
        <ele>436.4</ele>
        <time>2021-08-10T13:32:19Z</time>
      </trkpt>
      <trkpt lat="47.40391" lon="6.909">
        <ele>435.8</ele>
        <time>2021-08-10T13:32:20Z</time>
      </trkpt>
      <trkpt lat="47.40381" lon="6.90905">
        <ele>435.1</ele>
        <time>2021-08-10T13:32:22Z</time>
      </trkpt>
      <trkpt lat="47.4037" lon="6.90909">
        <ele>434.4</ele>
        <time>2021-08-10T13:32:23Z</time>
      </trkpt>
      <trkpt lat="47.40362" lon="6.90911">
        <ele>433.9</ele>
        <time>2021-08-10T13:32:25Z</time>
      </trkpt>
      <trkpt lat="47.40358" lon="6.90913">
        <ele>433.9</ele>
        <time>2021-08-10T13:32:26Z</time>
      </trkpt>
      <trkpt lat="47.40354" lon="6.90913">
        <ele>433.9</ele>
        <time>2021-08-10T13:32:27Z</time>
      </trkpt>
      <trkpt lat="47.40353" lon="6.90913">
        <ele>433.9</ele>
        <time>2021-08-10T13:32:28Z</time>
      </trkpt>
      <trkpt lat="47.4035" lon="6.90911">
        <ele>433.9</ele>
        <time>2021-08-10T13:32:30Z</time>
      </trkpt>
      <trkpt lat="47.40351" lon="6.90883">
        <ele>433.9</ele>
        <time>2021-08-10T13:33:07Z</time>
      </trkpt>
      <trkpt lat="47.40353" lon="6.90884">
        <ele>433.9</ele>
        <time>2021-08-10T13:33:08Z</time>
      </trkpt>
      <trkpt lat="47.40356" lon="6.90886">
        <ele>433.9</ele>
        <time>2021-08-10T13:33:10Z</time>
      </trkpt>
      <trkpt lat="47.40358" lon="6.90886">
        <ele>433.9</ele>
        <time>2021-08-10T13:33:11Z</time>
      </trkpt>
      <trkpt lat="47.40361" lon="6.90885">
        <ele>433.9</ele>
        <time>2021-08-10T13:33:13Z</time>
      </trkpt>
      <trkpt lat="47.40363" lon="6.90884">
        <ele>434.3</ele>
        <time>2021-08-10T13:33:15Z</time>
      </trkpt>
      <trkpt lat="47.40363" lon="6.90884">
        <ele>434.3</ele>
        <time>2021-08-10T13:33:16Z</time>
      </trkpt>
      <trkpt lat="47.40363" lon="6.90884">
        <ele>434.4</ele>
        <time>2021-08-10T13:33:17Z</time>
      </trkpt>
      <trkpt lat="47.40364" lon="6.90885">
        <ele>434.5</ele>
        <time>2021-08-10T13:33:19Z</time>
      </trkpt>
      <trkpt lat="47.40363" lon="6.90885">
        <ele>434.6</ele>
        <time>2021-08-10T13:33:21Z</time>
      </trkpt>
      <trkpt lat="47.40363" lon="6.90886">
        <ele>434.6</ele>
        <time>2021-08-10T13:33:23Z</time>
      </trkpt>
      <trkpt lat="47.40308" lon="6.90985">
        <ele>450.5</ele>
        <time>2021-08-10T13:34:51Z</time>
      </trkpt>
      <trkpt lat="47.40306" lon="6.90989">
        <ele>451.2</ele>
        <time>2021-08-10T13:34:53Z</time>
      </trkpt>
      <trkpt lat="47.40305" lon="6.9099">
        <ele>451.4</ele>
        <time>2021-08-10T13:34:54Z</time>
      </trkpt>
      <trkpt lat="47.40303" lon="6.90994">
        <ele>452</ele>
        <time>2021-08-10T13:34:55Z</time>
      </trkpt>
      <trkpt lat="47.40302" lon="6.90995">
        <ele>452.2</ele>
        <time>2021-08-10T13:34:56Z</time>
      </trkpt>
      <trkpt lat="47.40302" lon="6.90997">
        <ele>451.9</ele>
        <time>2021-08-10T13:34:57Z</time>
      </trkpt>
      <trkpt lat="47.40301" lon="6.90998">
        <ele>452.5</ele>
        <time>2021-08-10T13:34:59Z</time>
      </trkpt>
      <trkpt lat="47.40301" lon="6.90999">
        <ele>452.1</ele>
        <time>2021-08-10T13:35:00Z</time>
      </trkpt>
      <trkpt lat="47.40301" lon="6.91">
        <ele>451.8</ele>
        <time>2021-08-10T13:35:01Z</time>
      </trkpt>
      <trkpt lat="47.40301" lon="6.91">
        <ele>451.5</ele>
        <time>2021-08-10T13:35:03Z</time>
      </trkpt>
      <trkpt lat="47.40301" lon="6.91001">
        <ele>451.2</ele>
        <time>2021-08-10T13:35:04Z</time>
      </trkpt>
      <trkpt lat="47.40301" lon="6.91001">
        <ele>450.9</ele>
        <time>2021-08-10T13:35:05Z</time>
      </trkpt>
      <trkpt lat="47.40301" lon="6.91001">
        <ele>450.6</ele>
        <time>2021-08-10T13:35:06Z</time>
      </trkpt>
      <trkpt lat="47.40301" lon="6.91001">
        <ele>450.3</ele>
        <time>2021-08-10T13:35:08Z</time>
      </trkpt>
      <trkpt lat="47.40403" lon="6.91259">
        <ele>538.3</ele>
        <time>2021-08-10T13:43:03Z</time>
      </trkpt>
      <trkpt lat="47.40411" lon="6.91262">
        <ele>538</ele>
        <time>2021-08-10T13:43:05Z</time>
      </trkpt>
      <trkpt lat="47.40411" lon="6.91262">
        <ele>537.7</ele>
        <time>2021-08-10T13:43:05Z</time>
      </trkpt>
      <trkpt lat="47.40415" lon="6.91264">
        <ele>538</ele>
        <time>2021-08-10T13:43:06Z</time>
      </trkpt>
      <trkpt lat="47.40419" lon="6.91262">
        <ele>537.2</ele>
        <time>2021-08-10T13:43:08Z</time>
      </trkpt>
      <trkpt lat="47.40418" lon="6.91259">
        <ele>536.3</ele>
        <time>2021-08-10T13:43:09Z</time>
      </trkpt>
      <trkpt lat="47.40413" lon="6.91252">
        <ele>535.4</ele>
        <time>2021-08-10T13:43:11Z</time>
      </trkpt>
      <trkpt lat="47.4041" lon="6.91249">
        <ele>534.4</ele>
        <time>2021-08-10T13:43:12Z</time>
      </trkpt>
      <trkpt lat="47.40408" lon="6.91248">
        <ele>534.1</ele>
        <time>2021-08-10T13:43:13Z</time>
      </trkpt>
      <trkpt lat="47.40408" lon="6.91249">
        <ele>533.8</ele>
        <time>2021-08-10T13:43:14Z</time>
      </trkpt>
      <trkpt lat="47.40407" lon="6.91251">
        <ele>534.1</ele>
        <time>2021-08-10T13:43:16Z</time>
      </trkpt>
      <trkpt lat="47.40407" lon="6.91252">
        <ele>533.8</ele>
        <time>2021-08-10T13:43:17Z</time>
      </trkpt>
      <trkpt lat="47.40409" lon="6.91252">
        <ele>533.5</ele>
        <time>2021-08-10T13:43:20Z</time>
      </trkpt>
      <trkpt lat="47.40409" lon="6.91251">
        <ele>533.2</ele>
        <time>2021-08-10T13:43:28Z</time>
      </trkpt>
      <trkpt lat="47.40285" lon="6.91217">
        <ele>493.3</ele>
        <time>2021-08-10T13:44:11Z</time>
      </trkpt>
      <trkpt lat="47.40277" lon="6.91212">
        <ele>489.1</ele>
        <time>2021-08-10T13:44:12Z</time>
      </trkpt>
      <trkpt lat="47.40261" lon="6.91203">
        <ele>481.5</ele>
        <time>2021-08-10T13:44:14Z</time>
      </trkpt>
      <trkpt lat="47.40266" lon="6.91206">
        <ele>483.5</ele>
        <time>2021-08-10T13:44:15Z</time>
      </trkpt>
      <trkpt lat="47.40273" lon="6.9121">
        <ele>485.8</ele>
        <time>2021-08-10T13:44:16Z</time>
      </trkpt>
      <trkpt lat="47.40278" lon="6.91214">
        <ele>486.8</ele>
        <time>2021-08-10T13:44:18Z</time>
      </trkpt>
      <trkpt lat="47.40276" lon="6.91214">
        <ele>487.1</ele>
        <time>2021-08-10T13:44:19Z</time>
      </trkpt>
      <trkpt lat="47.40273" lon="6.91213">
        <ele>487.6</ele>
        <time>2021-08-10T13:44:21Z</time>
      </trkpt>
      <trkpt lat="47.40272" lon="6.91213">
        <ele>487.8</ele>
        <time>2021-08-10T13:44:22Z</time>
      </trkpt>
      <trkpt lat="47.40271" lon="6.91213">
        <ele>488</ele>
        <time>2021-08-10T13:44:23Z</time>
      </trkpt>
      <trkpt lat="47.40271" lon="6.91214">
        <ele>488.2</ele>
        <time>2021-08-10T13:44:24Z</time>
      </trkpt>
      <trkpt lat="47.4027" lon="6.91216">
        <ele>488.4</ele>
        <time>2021-08-10T13:44:25Z</time>
      </trkpt>
      <trkpt lat="47.40269" lon="6.91219">
        <ele>488.8</ele>
        <time>2021-08-10T13:44:27Z</time>
      </trkpt>
      <trkpt lat="47.40278" lon="6.91319">
        <ele>501.4</ele>
        <time>2021-08-10T13:45:51Z</time>
      </trkpt>
      <trkpt lat="47.40277" lon="6.91322">
        <ele>501.8</ele>
        <time>2021-08-10T13:45:52Z</time>
      </trkpt>
      <trkpt lat="47.40276" lon="6.91325">
        <ele>502.3</ele>
        <time>2021-08-10T13:45:54Z</time>
      </trkpt>
      <trkpt lat="47.40275" lon="6.9133">
        <ele>503</ele>
        <time>2021-08-10T13:45:55Z</time>
      </trkpt>
      <trkpt lat="47.40274" lon="6.91332">
        <ele>503.2</ele>
        <time>2021-08-10T13:45:56Z</time>
      </trkpt>
      <trkpt lat="47.40273" lon="6.91337">
        <ele>503.8</ele>
        <time>2021-08-10T13:45:58Z</time>
      </trkpt>
      <trkpt lat="47.40273" lon="6.91338">
        <ele>503.9</ele>
        <time>2021-08-10T13:45:59Z</time>
      </trkpt>
      <trkpt lat="47.40274" lon="6.9135">
        <ele>505.5</ele>
        <time>2021-08-10T13:46:00Z</time>
      </trkpt>
      <trkpt lat="47.40275" lon="6.91362">
        <ele>506.9</ele>
        <time>2021-08-10T13:46:02Z</time>
      </trkpt>
      <trkpt lat="47.40276" lon="6.91373">
        <ele>508.3</ele>
        <time>2021-08-10T13:46:03Z</time>
      </trkpt>
      <trkpt lat="47.40278" lon="6.91384">
        <ele>509.7</ele>
        <time>2021-08-10T13:46:04Z</time>
      </trkpt>
      <trkpt lat="47.40279" lon="6.91395">
        <ele>511.1</ele>
        <time>2021-08-10T13:46:05Z</time>
      </trkpt>
      <trkpt lat="47.4028" lon="6.91406">
        <ele>512.5</ele>
        <time>2021-08-10T13:46:06Z</time>
      </trkpt>
      <trkpt lat="47.40281" lon="6.91412">
        <ele>513.3</ele>
        <time>2021-08-10T13:46:07Z</time>
      </trkpt>
      <trkpt lat="47.40283" lon="6.91418">
        <ele>514.1</ele>
        <time>2021-08-10T13:46:09Z</time>
      </trkpt>
      <trkpt lat="47.40284" lon="6.91423">
        <ele>514.8</ele>
        <time>2021-08-10T13:46:10Z</time>
      </trkpt>
      <trkpt lat="47.40285" lon="6.91426">
        <ele>515.1</ele>
        <time>2021-08-10T13:46:11Z</time>
      </trkpt>
      <trkpt lat="47.40285" lon="6.91427">
        <ele>515.3</ele>
        <time>2021-08-10T13:46:12Z</time>
      </trkpt>
      <trkpt lat="47.40286" lon="6.91428">
        <ele>515.5</ele>
        <time>2021-08-10T13:46:14Z</time>
      </trkpt>
      <trkpt lat="47.40286" lon="6.91431">
        <ele>515.8</ele>
        <time>2021-08-10T13:46:15Z</time>
      </trkpt>
      <trkpt lat="47.40286" lon="6.91432">
        <ele>515.9</ele>
        <time>2021-08-10T13:46:16Z</time>
      </trkpt>
      <trkpt lat="47.40285" lon="6.91433">
        <ele>516</ele>
        <time>2021-08-10T13:46:17Z</time>
      </trkpt>
      <trkpt lat="47.40285" lon="6.91433">
        <ele>516.2</ele>
        <time>2021-08-10T13:46:19Z</time>
      </trkpt>
      <trkpt lat="47.40284" lon="6.91435">
        <ele>516.4</ele>
        <time>2021-08-10T13:46:20Z</time>
      </trkpt>
      <trkpt lat="47.4029" lon="6.91483">
        <ele>522.5</ele>
        <time>2021-08-10T13:47:47Z</time>
      </trkpt>
      <trkpt lat="47.40289" lon="6.91487">
        <ele>523</ele>
        <time>2021-08-10T13:47:48Z</time>
      </trkpt>
      <trkpt lat="47.40289" lon="6.91488">
        <ele>523.2</ele>
        <time>2021-08-10T13:47:49Z</time>
      </trkpt>
      <trkpt lat="47.40289" lon="6.9149">
        <ele>523.4</ele>
        <time>2021-08-10T13:47:51Z</time>
      </trkpt>
      <trkpt lat="47.40288" lon="6.91492">
        <ele>523.7</ele>
        <time>2021-08-10T13:47:52Z</time>
      </trkpt>
      <trkpt lat="47.40288" lon="6.91494">
        <ele>523.9</ele>
        <time>2021-08-10T13:47:54Z</time>
      </trkpt>
      <trkpt lat="47.40288" lon="6.91494">
        <ele>523.9</ele>
        <time>2021-08-10T13:47:55Z</time>
      </trkpt>
      <trkpt lat="47.40288" lon="6.91494">
        <ele>524</ele>
        <time>2021-08-10T13:47:57Z</time>
      </trkpt>
      <trkpt lat="47.40287" lon="6.91494">
        <ele>524.1</ele>
        <time>2021-08-10T13:47:58Z</time>
      </trkpt>
      <trkpt lat="47.40287" lon="6.91495">
        <ele>524.1</ele>
        <time>2021-08-10T13:47:59Z</time>
      </trkpt>
      <trkpt lat="47.40286" lon="6.91496">
        <ele>524.3</ele>
        <time>2021-08-10T13:48:01Z</time>
      </trkpt>
      <trkpt lat="47.40286" lon="6.91497">
        <ele>524.5</ele>
        <time>2021-08-10T13:48:03Z</time>
      </trkpt>
      <trkpt lat="47.40313" lon="6.91602">
        <ele>538.4</ele>
        <time>2021-08-10T13:49:28Z</time>
      </trkpt>
      <trkpt lat="47.40313" lon="6.91603">
        <ele>538.6</ele>
        <time>2021-08-10T13:49:29Z</time>
      </trkpt>
      <trkpt lat="47.40313" lon="6.91605">
        <ele>538.8</ele>
        <time>2021-08-10T13:49:31Z</time>
      </trkpt>
      <trkpt lat="47.40313" lon="6.91604">
        <ele>538.9</ele>
        <time>2021-08-10T13:49:33Z</time>
      </trkpt>
      <trkpt lat="47.40312" lon="6.91604">
        <ele>539</ele>
        <time>2021-08-10T13:49:34Z</time>
      </trkpt>
      <trkpt lat="47.40312" lon="6.91604">
        <ele>539</ele>
        <time>2021-08-10T13:49:35Z</time>
      </trkpt>
      <trkpt lat="47.40312" lon="6.91604">
        <ele>539</ele>
        <time>2021-08-10T13:49:36Z</time>
      </trkpt>
      <trkpt lat="47.40312" lon="6.91604">
        <ele>539</ele>
        <time>2021-08-10T13:49:38Z</time>
      </trkpt>
      <trkpt lat="47.40312" lon="6.91604">
        <ele>539</ele>
        <time>2021-08-10T13:49:40Z</time>
      </trkpt>
      <trkpt lat="47.40306" lon="6.91675">
        <ele>548</ele>
        <time>2021-08-10T13:51:26Z</time>
      </trkpt>
      <trkpt lat="47.40304" lon="6.91676">
        <ele>548.3</ele>
        <time>2021-08-10T13:51:27Z</time>
      </trkpt>
      <trkpt lat="47.40304" lon="6.91676">
        <ele>548.4</ele>
        <time>2021-08-10T13:51:29Z</time>
      </trkpt>
      <trkpt lat="47.40303" lon="6.91677">
        <ele>548.5</ele>
        <time>2021-08-10T13:51:31Z</time>
      </trkpt>
      <trkpt lat="47.40304" lon="6.91677">
        <ele>548.6</ele>
        <time>2021-08-10T13:51:32Z</time>
      </trkpt>
      <trkpt lat="47.40304" lon="6.91677">
        <ele>548.6</ele>
        <time>2021-08-10T13:51:33Z</time>
      </trkpt>
      <trkpt lat="47.40305" lon="6.91676">
        <ele>548.8</ele>
        <time>2021-08-10T13:51:34Z</time>
      </trkpt>
      <trkpt lat="47.40305" lon="6.91676">
        <ele>548.9</ele>
        <time>2021-08-10T13:51:35Z</time>
      </trkpt>
      <trkpt lat="47.40306" lon="6.91676">
        <ele>548.9</ele>
        <time>2021-08-10T13:51:37Z</time>
      </trkpt>
      <trkpt lat="47.40306" lon="6.91676">
        <ele>549</ele>
        <time>2021-08-10T13:51:39Z</time>
      </trkpt>
      <trkpt lat="47.40306" lon="6.91677">
        <ele>549</ele>
        <time>2021-08-10T13:51:40Z</time>
      </trkpt>
      <trkpt lat="47.40306" lon="6.91677">
        <ele>549.1</ele>
        <time>2021-08-10T13:51:41Z</time>
      </trkpt>
      <trkpt lat="47.40305" lon="6.91677">
        <ele>549.2</ele>
        <time>2021-08-10T13:51:43Z</time>
      </trkpt>
      <trkpt lat="47.40305" lon="6.91678">
        <ele>549.2</ele>
        <time>2021-08-10T13:51:44Z</time>
      </trkpt>
      <trkpt lat="47.40306" lon="6.91678">
        <ele>549.3</ele>
        <time>2021-08-10T13:51:45Z</time>
      </trkpt>
      <trkpt lat="47.40306" lon="6.91678">
        <ele>549.4</ele>
        <time>2021-08-10T13:51:47Z</time>
      </trkpt>
      <trkpt lat="47.40307" lon="6.91679">
        <ele>549.5</ele>
        <time>2021-08-10T13:51:49Z</time>
      </trkpt>
      <trkpt lat="47.40307" lon="6.91681">
        <ele>549.6</ele>
        <time>2021-08-10T13:51:51Z</time>
      </trkpt>
      <trkpt lat="47.40308" lon="6.91682">
        <ele>549.6</ele>
        <time>2021-08-10T13:51:53Z</time>
      </trkpt>
      <trkpt lat="47.40309" lon="6.91684">
        <ele>549.6</ele>
        <time>2021-08-10T13:51:55Z</time>
      </trkpt>
      <trkpt lat="47.4031" lon="6.91685">
        <ele>549.6</ele>
        <time>2021-08-10T13:51:56Z</time>
      </trkpt>
      <trkpt lat="47.40311" lon="6.91686">
        <ele>549.6</ele>
        <time>2021-08-10T13:51:57Z</time>
      </trkpt>
      <trkpt lat="47.40311" lon="6.91687">
        <ele>549.6</ele>
        <time>2021-08-10T13:51:58Z</time>
      </trkpt>
      <trkpt lat="47.40312" lon="6.91687">
        <ele>549.7</ele>
        <time>2021-08-10T13:52:00Z</time>
      </trkpt>
      <trkpt lat="47.40312" lon="6.91688">
        <ele>549.7</ele>
        <time>2021-08-10T13:52:01Z</time>
      </trkpt>
      <trkpt lat="47.40313" lon="6.91689">
        <ele>549.7</ele>
        <time>2021-08-10T13:52:02Z</time>
      </trkpt>
      <trkpt lat="47.40314" lon="6.9169">
        <ele>549.7</ele>
        <time>2021-08-10T13:52:04Z</time>
      </trkpt>
      <trkpt lat="47.40314" lon="6.9169">
        <ele>549.7</ele>
        <time>2021-08-10T13:52:06Z</time>
      </trkpt>
      <trkpt lat="47.40315" lon="6.9169">
        <ele>549.7</ele>
        <time>2021-08-10T13:52:08Z</time>
      </trkpt>
      <trkpt lat="47.40316" lon="6.9169">
        <ele>549.7</ele>
        <time>2021-08-10T13:52:10Z</time>
      </trkpt>
      <trkpt lat="47.40316" lon="6.9169">
        <ele>549.7</ele>
        <time>2021-08-10T13:52:11Z</time>
      </trkpt>
      <trkpt lat="47.40316" lon="6.91689">
        <ele>549.7</ele>
        <time>2021-08-10T13:52:14Z</time>
      </trkpt>
      <trkpt lat="47.40316" lon="6.91689">
        <ele>549.7</ele>
        <time>2021-08-10T13:52:15Z</time>
      </trkpt>
      <trkpt lat="47.40316" lon="6.91688">
        <ele>549.7</ele>
        <time>2021-08-10T13:52:17Z</time>
      </trkpt>
      <trkpt lat="47.40316" lon="6.91687">
        <ele>549.7</ele>
        <time>2021-08-10T13:52:19Z</time>
      </trkpt>
      <trkpt lat="47.40316" lon="6.91684">
        <ele>549.7</ele>
        <time>2021-08-10T13:52:20Z</time>
      </trkpt>
      <trkpt lat="47.40315" lon="6.91682">
        <ele>549.8</ele>
        <time>2021-08-10T13:52:21Z</time>
      </trkpt>
      <trkpt lat="47.40315" lon="6.91681">
        <ele>549.8</ele>
        <time>2021-08-10T13:52:22Z</time>
      </trkpt>
      <trkpt lat="47.40315" lon="6.91681">
        <ele>549.8</ele>
        <time>2021-08-10T13:52:23Z</time>
      </trkpt>
      <trkpt lat="47.40314" lon="6.91681">
        <ele>549.8</ele>
        <time>2021-08-10T13:52:25Z</time>
      </trkpt>
      <trkpt lat="47.40313" lon="6.91681">
        <ele>549.8</ele>
        <time>2021-08-10T13:52:26Z</time>
      </trkpt>
      <trkpt lat="47.40312" lon="6.91683">
        <ele>549.8</ele>
        <time>2021-08-10T13:52:28Z</time>
      </trkpt>
      <trkpt lat="47.40311" lon="6.91683">
        <ele>549.8</ele>
        <time>2021-08-10T13:52:29Z</time>
      </trkpt>
      <trkpt lat="47.40312" lon="6.91684">
        <ele>549.8</ele>
        <time>2021-08-10T13:52:30Z</time>
      </trkpt>
      <trkpt lat="47.40312" lon="6.91684">
        <ele>549.8</ele>
        <time>2021-08-10T13:52:31Z</time>
      </trkpt>
      <trkpt lat="47.40311" lon="6.91685">
        <ele>549.8</ele>
        <time>2021-08-10T13:52:33Z</time>
      </trkpt>
      <trkpt lat="47.40311" lon="6.91685">
        <ele>549.8</ele>
        <time>2021-08-10T13:52:34Z</time>
      </trkpt>
      <trkpt lat="47.40311" lon="6.91685">
        <ele>549.8</ele>
        <time>2021-08-10T13:52:35Z</time>
      </trkpt>
      <trkpt lat="47.4031" lon="6.91686">
        <ele>549.8</ele>
        <time>2021-08-10T13:52:37Z</time>
      </trkpt>
      <trkpt lat="47.4031" lon="6.91686">
        <ele>549.9</ele>
        <time>2021-08-10T13:52:38Z</time>
      </trkpt>
      <trkpt lat="47.40309" lon="6.91687">
        <ele>549.9</ele>
        <time>2021-08-10T13:52:39Z</time>
      </trkpt>
      <trkpt lat="47.40307" lon="6.91688">
        <ele>549.9</ele>
        <time>2021-08-10T13:52:41Z</time>
      </trkpt>
      <trkpt lat="47.40306" lon="6.91689">
        <ele>549.9</ele>
        <time>2021-08-10T13:52:42Z</time>
      </trkpt>
      <trkpt lat="47.40305" lon="6.9169">
        <ele>549.9</ele>
        <time>2021-08-10T13:52:43Z</time>
      </trkpt>
      <trkpt lat="47.40303" lon="6.91691">
        <ele>549.9</ele>
        <time>2021-08-10T13:52:45Z</time>
      </trkpt>
      <trkpt lat="47.40303" lon="6.91692">
        <ele>549.9</ele>
        <time>2021-08-10T13:52:46Z</time>
      </trkpt>
      <trkpt lat="47.40303" lon="6.91692">
        <ele>549.9</ele>
        <time>2021-08-10T13:52:47Z</time>
      </trkpt>
      <trkpt lat="47.40304" lon="6.91693">
        <ele>549.9</ele>
        <time>2021-08-10T13:52:48Z</time>
      </trkpt>
      <trkpt lat="47.40305" lon="6.91695">
        <ele>550</ele>
        <time>2021-08-10T13:52:49Z</time>
      </trkpt>
      <trkpt lat="47.40306" lon="6.91697">
        <ele>550</ele>
        <time>2021-08-10T13:52:51Z</time>
      </trkpt>
      <trkpt lat="47.40306" lon="6.91699">
        <ele>550</ele>
        <time>2021-08-10T13:52:53Z</time>
      </trkpt>
      <trkpt lat="47.40307" lon="6.91699">
        <ele>550</ele>
        <time>2021-08-10T13:52:54Z</time>
      </trkpt>
      <trkpt lat="47.40307" lon="6.917">
        <ele>550</ele>
        <time>2021-08-10T13:52:55Z</time>
      </trkpt>
      <trkpt lat="47.40308" lon="6.91703">
        <ele>550</ele>
        <time>2021-08-10T13:52:57Z</time>
      </trkpt>
      <trkpt lat="47.40308" lon="6.91704">
        <ele>550</ele>
        <time>2021-08-10T13:52:58Z</time>
      </trkpt>
      <trkpt lat="47.40309" lon="6.91705">
        <ele>550</ele>
        <time>2021-08-10T13:52:59Z</time>
      </trkpt>
      <trkpt lat="47.40309" lon="6.91706">
        <ele>550</ele>
        <time>2021-08-10T13:53:00Z</time>
      </trkpt>
      <trkpt lat="47.4031" lon="6.91708">
        <ele>550</ele>
        <time>2021-08-10T13:53:02Z</time>
      </trkpt>
      <trkpt lat="47.40311" lon="6.91709">
        <ele>550</ele>
        <time>2021-08-10T13:53:03Z</time>
      </trkpt>
      <trkpt lat="47.40312" lon="6.9171">
        <ele>550</ele>
        <time>2021-08-10T13:53:04Z</time>
      </trkpt>
      <trkpt lat="47.40313" lon="6.91711">
        <ele>550</ele>
        <time>2021-08-10T13:53:06Z</time>
      </trkpt>
      <trkpt lat="47.40314" lon="6.91712">
        <ele>549.9</ele>
        <time>2021-08-10T13:53:07Z</time>
      </trkpt>
      <trkpt lat="47.40316" lon="6.91713">
        <ele>549.9</ele>
        <time>2021-08-10T13:53:09Z</time>
      </trkpt>
      <trkpt lat="47.40317" lon="6.91713">
        <ele>549.9</ele>
        <time>2021-08-10T13:53:10Z</time>
      </trkpt>
      <trkpt lat="47.40319" lon="6.91713">
        <ele>549.9</ele>
        <time>2021-08-10T13:53:12Z</time>
      </trkpt>
      <trkpt lat="47.40322" lon="6.91713">
        <ele>549.8</ele>
        <time>2021-08-10T13:53:13Z</time>
      </trkpt>
      <trkpt lat="47.40323" lon="6.91713">
        <ele>549.8</ele>
        <time>2021-08-10T13:53:15Z</time>
      </trkpt>
      <trkpt lat="47.40325" lon="6.91714">
        <ele>549.7</ele>
        <time>2021-08-10T13:53:17Z</time>
      </trkpt>
      <trkpt lat="47.40326" lon="6.91713">
        <ele>549.7</ele>
        <time>2021-08-10T13:53:18Z</time>
      </trkpt>
      <trkpt lat="47.40328" lon="6.91713">
        <ele>549.6</ele>
        <time>2021-08-10T13:53:19Z</time>
      </trkpt>
      <trkpt lat="47.40329" lon="6.91712">
        <ele>549.6</ele>
        <time>2021-08-10T13:53:20Z</time>
      </trkpt>
      <trkpt lat="47.40331" lon="6.91712">
        <ele>549.6</ele>
        <time>2021-08-10T13:53:22Z</time>
      </trkpt>
      <trkpt lat="47.40332" lon="6.91713">
        <ele>549.5</ele>
        <time>2021-08-10T13:53:23Z</time>
      </trkpt>
      <trkpt lat="47.40335" lon="6.91714">
        <ele>549.4</ele>
        <time>2021-08-10T13:53:25Z</time>
      </trkpt>
      <trkpt lat="47.40336" lon="6.91715">
        <ele>549.4</ele>
        <time>2021-08-10T13:53:28Z</time>
      </trkpt>
      <trkpt lat="47.40336" lon="6.91715">
        <ele>549.3</ele>
        <time>2021-08-10T13:53:29Z</time>
      </trkpt>
      <trkpt lat="47.40337" lon="6.91716">
        <ele>549.3</ele>
        <time>2021-08-10T13:53:30Z</time>
      </trkpt>
      <trkpt lat="47.40337" lon="6.91717">
        <ele>549.3</ele>
        <time>2021-08-10T13:53:32Z</time>
      </trkpt>
      <trkpt lat="47.40338" lon="6.91718">
        <ele>549.2</ele>
        <time>2021-08-10T13:53:33Z</time>
      </trkpt>
      <trkpt lat="47.40338" lon="6.91719">
        <ele>549.2</ele>
        <time>2021-08-10T13:53:35Z</time>
      </trkpt>
      <trkpt lat="47.40339" lon="6.91719">
        <ele>549.2</ele>
        <time>2021-08-10T13:53:36Z</time>
      </trkpt>
      <trkpt lat="47.40339" lon="6.9172">
        <ele>549.2</ele>
        <time>2021-08-10T13:53:38Z</time>
      </trkpt>
      <trkpt lat="47.4034" lon="6.91722">
        <ele>549.1</ele>
        <time>2021-08-10T13:53:40Z</time>
      </trkpt>
      <trkpt lat="47.40341" lon="6.91722">
        <ele>549.1</ele>
        <time>2021-08-10T13:53:41Z</time>
      </trkpt>
      <trkpt lat="47.40341" lon="6.91723">
        <ele>549</ele>
        <time>2021-08-10T13:53:42Z</time>
      </trkpt>
      <trkpt lat="47.40342" lon="6.91724">
        <ele>549</ele>
        <time>2021-08-10T13:53:43Z</time>
      </trkpt>
      <trkpt lat="47.40342" lon="6.91725">
        <ele>549</ele>
        <time>2021-08-10T13:53:45Z</time>
      </trkpt>
      <trkpt lat="47.40343" lon="6.91726">
        <ele>549</ele>
        <time>2021-08-10T13:53:46Z</time>
      </trkpt>
      <trkpt lat="47.40343" lon="6.91726">
        <ele>548.9</ele>
        <time>2021-08-10T13:53:47Z</time>
      </trkpt>
      <trkpt lat="47.40343" lon="6.91727">
        <ele>548.9</ele>
        <time>2021-08-10T13:53:48Z</time>
      </trkpt>
      <trkpt lat="47.40343" lon="6.91729">
        <ele>548.9</ele>
        <time>2021-08-10T13:53:50Z</time>
      </trkpt>
      <trkpt lat="47.40343" lon="6.91731">
        <ele>548.8</ele>
        <time>2021-08-10T13:53:52Z</time>
      </trkpt>
      <trkpt lat="47.40343" lon="6.91732">
        <ele>548.8</ele>
        <time>2021-08-10T13:53:53Z</time>
      </trkpt>
      <trkpt lat="47.40343" lon="6.91732">
        <ele>548.8</ele>
        <time>2021-08-10T13:53:54Z</time>
      </trkpt>
      <trkpt lat="47.40343" lon="6.91733">
        <ele>548.7</ele>
        <time>2021-08-10T13:53:55Z</time>
      </trkpt>
      <trkpt lat="47.40342" lon="6.91734">
        <ele>548.7</ele>
        <time>2021-08-10T13:53:56Z</time>
      </trkpt>
      <trkpt lat="47.40341" lon="6.91737">
        <ele>548.6</ele>
        <time>2021-08-10T13:53:58Z</time>
      </trkpt>
      <trkpt lat="47.40341" lon="6.9174">
        <ele>548.5</ele>
        <time>2021-08-10T13:53:59Z</time>
      </trkpt>
      <trkpt lat="47.40341" lon="6.91741">
        <ele>548.5</ele>
        <time>2021-08-10T13:54:00Z</time>
      </trkpt>
      <trkpt lat="47.40341" lon="6.91742">
        <ele>548.5</ele>
        <time>2021-08-10T13:54:02Z</time>
      </trkpt>
      <trkpt lat="47.40341" lon="6.91743">
        <ele>548.4</ele>
        <time>2021-08-10T13:54:03Z</time>
      </trkpt>
      <trkpt lat="47.40341" lon="6.91745">
        <ele>548.4</ele>
        <time>2021-08-10T13:54:04Z</time>
      </trkpt>
      <trkpt lat="47.40341" lon="6.91746">
        <ele>548.4</ele>
        <time>2021-08-10T13:54:06Z</time>
      </trkpt>
      <trkpt lat="47.4034" lon="6.91747">
        <ele>548.3</ele>
        <time>2021-08-10T13:54:07Z</time>
      </trkpt>
      <trkpt lat="47.4034" lon="6.91749">
        <ele>548.3</ele>
        <time>2021-08-10T13:54:08Z</time>
      </trkpt>
      <trkpt lat="47.4034" lon="6.9175">
        <ele>548.3</ele>
        <time>2021-08-10T13:54:09Z</time>
      </trkpt>
      <trkpt lat="47.4034" lon="6.91751">
        <ele>548.2</ele>
        <time>2021-08-10T13:54:11Z</time>
      </trkpt>
      <trkpt lat="47.4034" lon="6.91752">
        <ele>548.2</ele>
        <time>2021-08-10T13:54:12Z</time>
      </trkpt>
      <trkpt lat="47.4034" lon="6.91752">
        <ele>548.2</ele>
        <time>2021-08-10T13:54:13Z</time>
      </trkpt>
      <trkpt lat="47.4034" lon="6.91753">
        <ele>548.2</ele>
        <time>2021-08-10T13:54:14Z</time>
      </trkpt>
      <trkpt lat="47.4034" lon="6.91754">
        <ele>548.1</ele>
        <time>2021-08-10T13:54:16Z</time>
      </trkpt>
      <trkpt lat="47.4034" lon="6.91755">
        <ele>548.1</ele>
        <time>2021-08-10T13:54:17Z</time>
      </trkpt>
      <trkpt lat="47.4034" lon="6.91756">
        <ele>548.1</ele>
        <time>2021-08-10T13:54:18Z</time>
      </trkpt>
      <trkpt lat="47.4034" lon="6.91757">
        <ele>548.1</ele>
        <time>2021-08-10T13:54:19Z</time>
      </trkpt>
      <trkpt lat="47.4034" lon="6.91759">
        <ele>548</ele>
        <time>2021-08-10T13:54:20Z</time>
      </trkpt>
      <trkpt lat="47.4034" lon="6.91761">
        <ele>547.9</ele>
        <time>2021-08-10T13:54:22Z</time>
      </trkpt>
      <trkpt lat="47.4034" lon="6.91763">
        <ele>547.9</ele>
        <time>2021-08-10T13:54:23Z</time>
      </trkpt>
      <trkpt lat="47.4034" lon="6.91764">
        <ele>547.9</ele>
        <time>2021-08-10T13:54:24Z</time>
      </trkpt>
      <trkpt lat="47.40341" lon="6.91764">
        <ele>547.8</ele>
        <time>2021-08-10T13:54:25Z</time>
      </trkpt>
      <trkpt lat="47.40342" lon="6.91763">
        <ele>547.8</ele>
        <time>2021-08-10T13:54:27Z</time>
      </trkpt>
      <trkpt lat="47.40343" lon="6.91763">
        <ele>547.7</ele>
        <time>2021-08-10T13:54:28Z</time>
      </trkpt>
      <trkpt lat="47.40343" lon="6.91763">
        <ele>547.7</ele>
        <time>2021-08-10T13:54:30Z</time>
      </trkpt>
      <trkpt lat="47.40344" lon="6.91763">
        <ele>547.7</ele>
        <time>2021-08-10T13:54:31Z</time>
      </trkpt>
      <trkpt lat="47.40344" lon="6.91763">
        <ele>547.7</ele>
        <time>2021-08-10T13:54:32Z</time>
      </trkpt>
      <trkpt lat="47.40345" lon="6.91764">
        <ele>547.7</ele>
        <time>2021-08-10T13:54:33Z</time>
      </trkpt>
      <trkpt lat="47.40345" lon="6.91764">
        <ele>547.6</ele>
        <time>2021-08-10T13:54:35Z</time>
      </trkpt>
      <trkpt lat="47.40346" lon="6.91765">
        <ele>547.6</ele>
        <time>2021-08-10T13:54:36Z</time>
      </trkpt>
      <trkpt lat="47.40347" lon="6.91766">
        <ele>547.6</ele>
        <time>2021-08-10T13:54:38Z</time>
      </trkpt>
      <trkpt lat="47.40347" lon="6.91767">
        <ele>547.5</ele>
        <time>2021-08-10T13:54:39Z</time>
      </trkpt>
      <trkpt lat="47.40348" lon="6.91769">
        <ele>547.5</ele>
        <time>2021-08-10T13:54:41Z</time>
      </trkpt>
      <trkpt lat="47.40349" lon="6.9177">
        <ele>547.5</ele>
        <time>2021-08-10T13:54:42Z</time>
      </trkpt>
      <trkpt lat="47.4035" lon="6.9177">
        <ele>547.4</ele>
        <time>2021-08-10T13:54:44Z</time>
      </trkpt>
      <trkpt lat="47.4035" lon="6.9177">
        <ele>547.4</ele>
        <time>2021-08-10T13:54:45Z</time>
      </trkpt>
      <trkpt lat="47.40352" lon="6.9177">
        <ele>547.4</ele>
        <time>2021-08-10T13:54:47Z</time>
      </trkpt>
      <trkpt lat="47.40352" lon="6.9177">
        <ele>547.3</ele>
        <time>2021-08-10T13:54:49Z</time>
      </trkpt>
      <trkpt lat="47.40353" lon="6.91769">
        <ele>547.3</ele>
        <time>2021-08-10T13:54:50Z</time>
      </trkpt>
      <trkpt lat="47.40354" lon="6.91768">
        <ele>547.3</ele>
        <time>2021-08-10T13:54:52Z</time>
      </trkpt>
      <trkpt lat="47.40354" lon="6.91768">
        <ele>547.3</ele>
        <time>2021-08-10T13:54:53Z</time>
      </trkpt>
      <trkpt lat="47.40356" lon="6.91763">
        <ele>547.1</ele>
        <time>2021-08-10T13:54:54Z</time>
      </trkpt>
      <trkpt lat="47.40358" lon="6.91759">
        <ele>547.1</ele>
        <time>2021-08-10T13:54:56Z</time>
      </trkpt>
      <trkpt lat="47.40358" lon="6.91758">
        <ele>547</ele>
        <time>2021-08-10T13:54:58Z</time>
      </trkpt>
      <trkpt lat="47.40359" lon="6.91756">
        <ele>547</ele>
        <time>2021-08-10T13:55:00Z</time>
      </trkpt>
      <trkpt lat="47.4036" lon="6.91755">
        <ele>546.9</ele>
        <time>2021-08-10T13:55:02Z</time>
      </trkpt>
      <trkpt lat="47.40361" lon="6.91755">
        <ele>546.9</ele>
        <time>2021-08-10T13:55:03Z</time>
      </trkpt>
      <trkpt lat="47.40362" lon="6.91751">
        <ele>546.8</ele>
        <time>2021-08-10T13:55:05Z</time>
      </trkpt>
      <trkpt lat="47.40363" lon="6.9175">
        <ele>545.6</ele>
        <time>2021-08-10T13:55:06Z</time>
      </trkpt>
      <trkpt lat="47.40363" lon="6.91749">
        <ele>545.6</ele>
        <time>2021-08-10T13:55:07Z</time>
      </trkpt>
      <trkpt lat="47.40364" lon="6.91748">
        <ele>545.5</ele>
        <time>2021-08-10T13:55:08Z</time>
      </trkpt>
      <trkpt lat="47.40364" lon="6.91748">
        <ele>545.5</ele>
        <time>2021-08-10T13:55:09Z</time>
      </trkpt>
      <trkpt lat="47.40365" lon="6.91748">
        <ele>545.4</ele>
        <time>2021-08-10T13:55:11Z</time>
      </trkpt>
      <trkpt lat="47.40366" lon="6.91748">
        <ele>545.3</ele>
        <time>2021-08-10T13:55:12Z</time>
      </trkpt>
      <trkpt lat="47.40366" lon="6.91748">
        <ele>545.3</ele>
        <time>2021-08-10T13:55:13Z</time>
      </trkpt>
      <trkpt lat="47.40366" lon="6.91749">
        <ele>545.2</ele>
        <time>2021-08-10T13:55:15Z</time>
      </trkpt>
      <trkpt lat="47.40366" lon="6.9175">
        <ele>545.2</ele>
        <time>2021-08-10T13:55:16Z</time>
      </trkpt>
      <trkpt lat="47.40366" lon="6.91751">
        <ele>545.1</ele>
        <time>2021-08-10T13:55:17Z</time>
      </trkpt>
      <trkpt lat="47.40366" lon="6.91752">
        <ele>545.1</ele>
        <time>2021-08-10T13:55:18Z</time>
      </trkpt>
      <trkpt lat="47.40367" lon="6.91752">
        <ele>545.1</ele>
        <time>2021-08-10T13:55:20Z</time>
      </trkpt>
      <trkpt lat="47.40367" lon="6.91752">
        <ele>545.1</ele>
        <time>2021-08-10T13:55:21Z</time>
      </trkpt>
      <trkpt lat="47.40366" lon="6.91752">
        <ele>545.1</ele>
        <time>2021-08-10T13:55:22Z</time>
      </trkpt>
      <trkpt lat="47.40366" lon="6.91752">
        <ele>545</ele>
        <time>2021-08-10T13:55:24Z</time>
      </trkpt>
      <trkpt lat="47.40365" lon="6.91752">
        <ele>545</ele>
        <time>2021-08-10T13:55:25Z</time>
      </trkpt>
      <trkpt lat="47.40364" lon="6.91752">
        <ele>544.9</ele>
        <time>2021-08-10T13:55:26Z</time>
      </trkpt>
      <trkpt lat="47.40363" lon="6.91752">
        <ele>544.9</ele>
        <time>2021-08-10T13:55:28Z</time>
      </trkpt>
      <trkpt lat="47.40362" lon="6.91751">
        <ele>544.8</ele>
        <time>2021-08-10T13:55:30Z</time>
      </trkpt>
      <trkpt lat="47.4036" lon="6.9175">
        <ele>544.8</ele>
        <time>2021-08-10T13:55:31Z</time>
      </trkpt>
      <trkpt lat="47.4036" lon="6.91749">
        <ele>544.7</ele>
        <time>2021-08-10T13:55:33Z</time>
      </trkpt>
      <trkpt lat="47.40359" lon="6.91748">
        <ele>544.7</ele>
        <time>2021-08-10T13:55:34Z</time>
      </trkpt>
      <trkpt lat="47.40359" lon="6.91747">
        <ele>544.7</ele>
        <time>2021-08-10T13:55:35Z</time>
      </trkpt>
      <trkpt lat="47.40357" lon="6.91745">
        <ele>544.7</ele>
        <time>2021-08-10T13:55:37Z</time>
      </trkpt>
      <trkpt lat="47.40355" lon="6.91744">
        <ele>544.7</ele>
        <time>2021-08-10T13:55:38Z</time>
      </trkpt>
      <trkpt lat="47.40353" lon="6.91743">
        <ele>544.7</ele>
        <time>2021-08-10T13:55:40Z</time>
      </trkpt>
      <trkpt lat="47.40352" lon="6.91743">
        <ele>544.8</ele>
        <time>2021-08-10T13:55:42Z</time>
      </trkpt>
      <trkpt lat="47.40351" lon="6.91743">
        <ele>544.9</ele>
        <time>2021-08-10T13:55:43Z</time>
      </trkpt>
      <trkpt lat="47.40349" lon="6.91742">
        <ele>545</ele>
        <time>2021-08-10T13:55:44Z</time>
      </trkpt>
      <trkpt lat="47.40347" lon="6.91742">
        <ele>545.1</ele>
        <time>2021-08-10T13:55:46Z</time>
      </trkpt>
      <trkpt lat="47.40346" lon="6.91742">
        <ele>545.2</ele>
        <time>2021-08-10T13:55:47Z</time>
      </trkpt>
      <trkpt lat="47.40344" lon="6.91741">
        <ele>545.5</ele>
        <time>2021-08-10T13:55:49Z</time>
      </trkpt>
      <trkpt lat="47.40343" lon="6.91741">
        <ele>545.6</ele>
        <time>2021-08-10T13:55:50Z</time>
      </trkpt>
      <trkpt lat="47.40342" lon="6.91742">
        <ele>545.7</ele>
        <time>2021-08-10T13:55:51Z</time>
      </trkpt>
      <trkpt lat="47.40342" lon="6.91742">
        <ele>545.7</ele>
        <time>2021-08-10T13:55:53Z</time>
      </trkpt>
      <trkpt lat="47.40342" lon="6.91743">
        <ele>545.9</ele>
        <time>2021-08-10T13:55:55Z</time>
      </trkpt>
      <trkpt lat="47.40341" lon="6.91744">
        <ele>546</ele>
        <time>2021-08-10T13:55:57Z</time>
      </trkpt>
      <trkpt lat="47.4034" lon="6.91745">
        <ele>546.2</ele>
        <time>2021-08-10T13:55:59Z</time>
      </trkpt>
      <trkpt lat="47.40322" lon="6.91736">
        <ele>550</ele>
        <time>2021-08-10T13:56:29Z</time>
      </trkpt>
      <trkpt lat="47.40321" lon="6.91736">
        <ele>550.3</ele>
        <time>2021-08-10T13:56:30Z</time>
      </trkpt>
      <trkpt lat="47.4032" lon="6.91737">
        <ele>550.6</ele>
        <time>2021-08-10T13:56:32Z</time>
      </trkpt>
      <trkpt lat="47.4032" lon="6.91737">
        <ele>550.7</ele>
        <time>2021-08-10T13:56:33Z</time>
      </trkpt>
      <trkpt lat="47.40319" lon="6.91737">
        <ele>550.7</ele>
        <time>2021-08-10T13:56:35Z</time>
      </trkpt>
      <trkpt lat="47.40319" lon="6.91737">
        <ele>550.7</ele>
        <time>2021-08-10T13:56:36Z</time>
      </trkpt>
      <trkpt lat="47.4032" lon="6.91737">
        <ele>550.8</ele>
        <time>2021-08-10T13:56:38Z</time>
      </trkpt>
      <trkpt lat="47.40319" lon="6.91737">
        <ele>550.8</ele>
        <time>2021-08-10T13:56:40Z</time>
      </trkpt>
      <trkpt lat="47.40319" lon="6.91737">
        <ele>550.9</ele>
        <time>2021-08-10T13:56:42Z</time>
      </trkpt>
      <trkpt lat="47.40319" lon="6.91737">
        <ele>551</ele>
        <time>2021-08-10T13:56:43Z</time>
      </trkpt>
      <trkpt lat="47.40278" lon="6.91722">
        <ele>559.2</ele>
        <time>2021-08-10T13:58:11Z</time>
      </trkpt>
      <trkpt lat="47.40277" lon="6.91721">
        <ele>559.4</ele>
        <time>2021-08-10T13:58:13Z</time>
      </trkpt>
      <trkpt lat="47.40276" lon="6.91722">
        <ele>559.4</ele>
        <time>2021-08-10T13:58:15Z</time>
      </trkpt>
      <trkpt lat="47.40277" lon="6.91723">
        <ele>559.6</ele>
        <time>2021-08-10T13:58:16Z</time>
      </trkpt>
      <trkpt lat="47.40277" lon="6.91723">
        <ele>559.6</ele>
        <time>2021-08-10T13:58:17Z</time>
      </trkpt>
      <trkpt lat="47.40277" lon="6.91724">
        <ele>559.7</ele>
        <time>2021-08-10T13:58:18Z</time>
      </trkpt>
      <trkpt lat="47.40277" lon="6.91724">
        <ele>559.7</ele>
        <time>2021-08-10T13:58:19Z</time>
      </trkpt>
      <trkpt lat="47.40277" lon="6.91724">
        <ele>559.8</ele>
        <time>2021-08-10T13:58:20Z</time>
      </trkpt>
      <trkpt lat="47.40276" lon="6.91725">
        <ele>559.8</ele>
        <time>2021-08-10T13:58:22Z</time>
      </trkpt>
      <trkpt lat="47.40276" lon="6.91725">
        <ele>559.9</ele>
        <time>2021-08-10T13:58:23Z</time>
      </trkpt>
      <trkpt lat="47.40223" lon="6.91726">
        <ele>565</ele>
        <time>2021-08-10T13:59:40Z</time>
      </trkpt>
      <trkpt lat="47.40219" lon="6.91726">
        <ele>565.1</ele>
        <time>2021-08-10T13:59:42Z</time>
      </trkpt>
      <trkpt lat="47.40217" lon="6.91726">
        <ele>565.2</ele>
        <time>2021-08-10T13:59:43Z</time>
      </trkpt>
      <trkpt lat="47.40217" lon="6.91726">
        <ele>565.2</ele>
        <time>2021-08-10T13:59:45Z</time>
      </trkpt>
      <trkpt lat="47.40215" lon="6.91725">
        <ele>565.2</ele>
        <time>2021-08-10T13:59:46Z</time>
      </trkpt>
      <trkpt lat="47.40215" lon="6.91724">
        <ele>565.3</ele>
        <time>2021-08-10T13:59:47Z</time>
      </trkpt>
      <trkpt lat="47.40214" lon="6.91723">
        <ele>565.3</ele>
        <time>2021-08-10T13:59:48Z</time>
      </trkpt>
      <trkpt lat="47.40213" lon="6.91721">
        <ele>565.3</ele>
        <time>2021-08-10T13:59:50Z</time>
      </trkpt>
      <trkpt lat="47.40212" lon="6.91718">
        <ele>565.4</ele>
        <time>2021-08-10T13:59:51Z</time>
      </trkpt>
      <trkpt lat="47.40211" lon="6.91717">
        <ele>565.5</ele>
        <time>2021-08-10T13:59:53Z</time>
      </trkpt>
      <trkpt lat="47.40205" lon="6.91714">
        <ele>565.7</ele>
        <time>2021-08-10T13:59:56Z</time>
      </trkpt>
      <trkpt lat="47.40203" lon="6.91713">
        <ele>565.8</ele>
        <time>2021-08-10T13:59:58Z</time>
      </trkpt>
      <trkpt lat="47.40202" lon="6.91712">
        <ele>565.9</ele>
        <time>2021-08-10T13:59:59Z</time>
      </trkpt>
      <trkpt lat="47.402" lon="6.9171">
        <ele>565.9</ele>
        <time>2021-08-10T14:00:00Z</time>
      </trkpt>
      <trkpt lat="47.40198" lon="6.9171">
        <ele>566</ele>
        <time>2021-08-10T14:00:02Z</time>
      </trkpt>
      <trkpt lat="47.40198" lon="6.9171">
        <ele>566</ele>
        <time>2021-08-10T14:00:03Z</time>
      </trkpt>
      <trkpt lat="47.40198" lon="6.91709">
        <ele>566</ele>
        <time>2021-08-10T14:00:04Z</time>
      </trkpt>
      <trkpt lat="47.40197" lon="6.91709">
        <ele>566.1</ele>
        <time>2021-08-10T14:00:05Z</time>
      </trkpt>
      <trkpt lat="47.40196" lon="6.91709">
        <ele>566.1</ele>
        <time>2021-08-10T14:00:06Z</time>
      </trkpt>
      <trkpt lat="47.40196" lon="6.91709">
        <ele>566.1</ele>
        <time>2021-08-10T14:00:08Z</time>
      </trkpt>
      <trkpt lat="47.40195" lon="6.91709">
        <ele>566.2</ele>
        <time>2021-08-10T14:00:09Z</time>
      </trkpt>
      <trkpt lat="47.40194" lon="6.9171">
        <ele>566.2</ele>
        <time>2021-08-10T14:00:11Z</time>
      </trkpt>
      <trkpt lat="47.40194" lon="6.9171">
        <ele>566.2</ele>
        <time>2021-08-10T14:00:12Z</time>
      </trkpt>
      <trkpt lat="47.40161" lon="6.91699">
        <ele>567.8</ele>
        <time>2021-08-10T14:06:33Z</time>
      </trkpt>
      <trkpt lat="47.40158" lon="6.91699">
        <ele>568</ele>
        <time>2021-08-10T14:06:34Z</time>
      </trkpt>
      <trkpt lat="47.40153" lon="6.91698">
        <ele>568.3</ele>
        <time>2021-08-10T14:06:36Z</time>
      </trkpt>
      <trkpt lat="47.40148" lon="6.91698">
        <ele>568.5</ele>
        <time>2021-08-10T14:06:38Z</time>
      </trkpt>
      <trkpt lat="47.40144" lon="6.91699">
        <ele>568.7</ele>
        <time>2021-08-10T14:06:40Z</time>
      </trkpt>
      <trkpt lat="47.40141" lon="6.91699">
        <ele>568.8</ele>
        <time>2021-08-10T14:06:41Z</time>
      </trkpt>
      <trkpt lat="47.4014" lon="6.91699">
        <ele>568.8</ele>
        <time>2021-08-10T14:06:42Z</time>
      </trkpt>
      <trkpt lat="47.40136" lon="6.91698">
        <ele>568.9</ele>
        <time>2021-08-10T14:06:44Z</time>
      </trkpt>
      <trkpt lat="47.40133" lon="6.91698">
        <ele>569</ele>
        <time>2021-08-10T14:06:46Z</time>
      </trkpt>
      <trkpt lat="47.40131" lon="6.91698">
        <ele>569.1</ele>
        <time>2021-08-10T14:06:47Z</time>
      </trkpt>
      <trkpt lat="47.40128" lon="6.91697">
        <ele>569.1</ele>
        <time>2021-08-10T14:06:49Z</time>
      </trkpt>
      <trkpt lat="47.40127" lon="6.91697">
        <ele>569.2</ele>
        <time>2021-08-10T14:06:50Z</time>
      </trkpt>
      <trkpt lat="47.40125" lon="6.91696">
        <ele>569.2</ele>
        <time>2021-08-10T14:06:52Z</time>
      </trkpt>
      <trkpt lat="47.40123" lon="6.91696">
        <ele>569.2</ele>
        <time>2021-08-10T14:06:54Z</time>
      </trkpt>
      <trkpt lat="47.40118" lon="6.91696">
        <ele>569.2</ele>
        <time>2021-08-10T14:06:56Z</time>
      </trkpt>
      <trkpt lat="47.40114" lon="6.91697">
        <ele>569.2</ele>
        <time>2021-08-10T14:06:58Z</time>
      </trkpt>
      <trkpt lat="47.40113" lon="6.91698">
        <ele>569.2</ele>
        <time>2021-08-10T14:06:59Z</time>
      </trkpt>
      <trkpt lat="47.40112" lon="6.91699">
        <ele>569.2</ele>
        <time>2021-08-10T14:07:00Z</time>
      </trkpt>
      <trkpt lat="47.4011" lon="6.91698">
        <ele>569.2</ele>
        <time>2021-08-10T14:07:01Z</time>
      </trkpt>
      <trkpt lat="47.40107" lon="6.91697">
        <ele>569.2</ele>
        <time>2021-08-10T14:07:03Z</time>
      </trkpt>
      <trkpt lat="47.40104" lon="6.91695">
        <ele>569.1</ele>
        <time>2021-08-10T14:07:04Z</time>
      </trkpt>
      <trkpt lat="47.40103" lon="6.91695">
        <ele>569.1</ele>
        <time>2021-08-10T14:07:05Z</time>
      </trkpt>
      <trkpt lat="47.401" lon="6.91692">
        <ele>569</ele>
        <time>2021-08-10T14:07:06Z</time>
      </trkpt>
      <trkpt lat="47.40099" lon="6.91691">
        <ele>569</ele>
        <time>2021-08-10T14:07:07Z</time>
      </trkpt>
      <trkpt lat="47.40096" lon="6.9169">
        <ele>568.9</ele>
        <time>2021-08-10T14:07:08Z</time>
      </trkpt>
      <trkpt lat="47.40094" lon="6.91687">
        <ele>568.8</ele>
        <time>2021-08-10T14:07:10Z</time>
      </trkpt>
      <trkpt lat="47.40091" lon="6.91685">
        <ele>568.6</ele>
        <time>2021-08-10T14:07:11Z</time>
      </trkpt>
      <trkpt lat="47.40089" lon="6.91684">
        <ele>568.5</ele>
        <time>2021-08-10T14:07:12Z</time>
      </trkpt>
      <trkpt lat="47.40085" lon="6.91683">
        <ele>568.3</ele>
        <time>2021-08-10T14:07:14Z</time>
      </trkpt>
      <trkpt lat="47.40082" lon="6.91682">
        <ele>568.1</ele>
        <time>2021-08-10T14:07:15Z</time>
      </trkpt>
      <trkpt lat="47.40078" lon="6.91681">
        <ele>567.8</ele>
        <time>2021-08-10T14:07:16Z</time>
      </trkpt>
      <trkpt lat="47.40075" lon="6.91681">
        <ele>567.6</ele>
        <time>2021-08-10T14:07:17Z</time>
      </trkpt>
      <trkpt lat="47.40071" lon="6.9168">
        <ele>567.4</ele>
        <time>2021-08-10T14:07:18Z</time>
      </trkpt>
      <trkpt lat="47.40066" lon="6.91677">
        <ele>567</ele>
        <time>2021-08-10T14:07:20Z</time>
      </trkpt>
      <trkpt lat="47.40064" lon="6.91676">
        <ele>566.9</ele>
        <time>2021-08-10T14:07:21Z</time>
      </trkpt>
      <trkpt lat="47.40062" lon="6.91675">
        <ele>566.8</ele>
        <time>2021-08-10T14:07:22Z</time>
      </trkpt>
      <trkpt lat="47.40059" lon="6.91672">
        <ele>566.5</ele>
        <time>2021-08-10T14:07:24Z</time>
      </trkpt>
      <trkpt lat="47.40054" lon="6.9167">
        <ele>566.2</ele>
        <time>2021-08-10T14:07:25Z</time>
      </trkpt>
      <trkpt lat="47.40051" lon="6.91666">
        <ele>566</ele>
        <time>2021-08-10T14:07:27Z</time>
      </trkpt>
      <trkpt lat="47.40048" lon="6.91663">
        <ele>565.7</ele>
        <time>2021-08-10T14:07:28Z</time>
      </trkpt>
      <trkpt lat="47.40045" lon="6.91661">
        <ele>565.5</ele>
        <time>2021-08-10T14:07:29Z</time>
      </trkpt>
      <trkpt lat="47.40042" lon="6.91658">
        <ele>565.3</ele>
        <time>2021-08-10T14:07:30Z</time>
      </trkpt>
      <trkpt lat="47.40036" lon="6.91653">
        <ele>564.8</ele>
        <time>2021-08-10T14:07:32Z</time>
      </trkpt>
      <trkpt lat="47.40031" lon="6.91649">
        <ele>564.3</ele>
        <time>2021-08-10T14:07:33Z</time>
      </trkpt>
      <trkpt lat="47.40025" lon="6.91646">
        <ele>563.9</ele>
        <time>2021-08-10T14:07:35Z</time>
      </trkpt>
      <trkpt lat="47.40019" lon="6.91642">
        <ele>563.5</ele>
        <time>2021-08-10T14:07:36Z</time>
      </trkpt>
      <trkpt lat="47.40014" lon="6.91639">
        <ele>563.1</ele>
        <time>2021-08-10T14:07:37Z</time>
      </trkpt>
      <trkpt lat="47.40009" lon="6.91637">
        <ele>562.8</ele>
        <time>2021-08-10T14:07:39Z</time>
      </trkpt>
      <trkpt lat="47.40003" lon="6.91633">
        <ele>562.5</ele>
        <time>2021-08-10T14:07:40Z</time>
      </trkpt>
      <trkpt lat="47.39995" lon="6.91627">
        <ele>562.2</ele>
        <time>2021-08-10T14:07:41Z</time>
      </trkpt>
      <trkpt lat="47.39986" lon="6.9162">
        <ele>562</ele>
        <time>2021-08-10T14:07:43Z</time>
      </trkpt>
      <trkpt lat="47.39983" lon="6.91617">
        <ele>562</ele>
        <time>2021-08-10T14:07:44Z</time>
      </trkpt>
      <trkpt lat="47.39976" lon="6.91612">
        <ele>562</ele>
        <time>2021-08-10T14:07:46Z</time>
      </trkpt>
      <trkpt lat="47.39972" lon="6.9161">
        <ele>562</ele>
        <time>2021-08-10T14:07:47Z</time>
      </trkpt>
      <trkpt lat="47.39967" lon="6.91605">
        <ele>562.1</ele>
        <time>2021-08-10T14:07:48Z</time>
      </trkpt>
      <trkpt lat="47.39962" lon="6.91602">
        <ele>562.3</ele>
        <time>2021-08-10T14:07:49Z</time>
      </trkpt>
      <trkpt lat="47.39958" lon="6.916">
        <ele>562.5</ele>
        <time>2021-08-10T14:07:51Z</time>
      </trkpt>
      <trkpt lat="47.39955" lon="6.91599">
        <ele>562.6</ele>
        <time>2021-08-10T14:07:52Z</time>
      </trkpt>
      <trkpt lat="47.39952" lon="6.91598">
        <ele>562.7</ele>
        <time>2021-08-10T14:07:53Z</time>
      </trkpt>
      <trkpt lat="47.39948" lon="6.91594">
        <ele>562.9</ele>
        <time>2021-08-10T14:07:55Z</time>
      </trkpt>
      <trkpt lat="47.39946" lon="6.91591">
        <ele>563</ele>
        <time>2021-08-10T14:07:56Z</time>
      </trkpt>
      <trkpt lat="47.39943" lon="6.91589">
        <ele>563.2</ele>
        <time>2021-08-10T14:07:57Z</time>
      </trkpt>
      <trkpt lat="47.3994" lon="6.91585">
        <ele>563.4</ele>
        <time>2021-08-10T14:07:58Z</time>
      </trkpt>
      <trkpt lat="47.39937" lon="6.91582">
        <ele>563.5</ele>
        <time>2021-08-10T14:07:59Z</time>
      </trkpt>
      <trkpt lat="47.39933" lon="6.91579">
        <ele>563.8</ele>
        <time>2021-08-10T14:08:00Z</time>
      </trkpt>
      <trkpt lat="47.39929" lon="6.91575">
        <ele>564</ele>
        <time>2021-08-10T14:08:02Z</time>
      </trkpt>
      <trkpt lat="47.39928" lon="6.91573">
        <ele>564.1</ele>
        <time>2021-08-10T14:08:03Z</time>
      </trkpt>
      <trkpt lat="47.39927" lon="6.91572">
        <ele>564.2</ele>
        <time>2021-08-10T14:08:04Z</time>
      </trkpt>
      <trkpt lat="47.39926" lon="6.91571">
        <ele>564.3</ele>
        <time>2021-08-10T14:08:05Z</time>
      </trkpt>
      <trkpt lat="47.39926" lon="6.91571">
        <ele>564.3</ele>
        <time>2021-08-10T14:08:06Z</time>
      </trkpt>
      <trkpt lat="47.39924" lon="6.9157">
        <ele>564.4</ele>
        <time>2021-08-10T14:08:07Z</time>
      </trkpt>
      <trkpt lat="47.39921" lon="6.91569">
        <ele>564.6</ele>
        <time>2021-08-10T14:08:09Z</time>
      </trkpt>
      <trkpt lat="47.3992" lon="6.91569">
        <ele>564.7</ele>
        <time>2021-08-10T14:08:10Z</time>
      </trkpt>
      <trkpt lat="47.39918" lon="6.91568">
        <ele>564.8</ele>
        <time>2021-08-10T14:08:12Z</time>
      </trkpt>
      <trkpt lat="47.39916" lon="6.91566">
        <ele>565</ele>
        <time>2021-08-10T14:08:14Z</time>
      </trkpt>
      <trkpt lat="47.39916" lon="6.91565">
        <ele>565</ele>
        <time>2021-08-10T14:08:15Z</time>
      </trkpt>
      <trkpt lat="47.39915" lon="6.91565">
        <ele>565.1</ele>
        <time>2021-08-10T14:08:16Z</time>
      </trkpt>
      <trkpt lat="47.39914" lon="6.91565">
        <ele>565.2</ele>
        <time>2021-08-10T14:08:17Z</time>
      </trkpt>
      <trkpt lat="47.39912" lon="6.91566">
        <ele>565.2</ele>
        <time>2021-08-10T14:08:18Z</time>
      </trkpt>
      <trkpt lat="47.39911" lon="6.91566">
        <ele>565.3</ele>
        <time>2021-08-10T14:08:19Z</time>
      </trkpt>
      <trkpt lat="47.3991" lon="6.91565">
        <ele>565.4</ele>
        <time>2021-08-10T14:08:20Z</time>
      </trkpt>
      <trkpt lat="47.39907" lon="6.91566">
        <ele>565.6</ele>
        <time>2021-08-10T14:08:22Z</time>
      </trkpt>
      <trkpt lat="47.39906" lon="6.91567">
        <ele>565.6</ele>
        <time>2021-08-10T14:08:23Z</time>
      </trkpt>
      <trkpt lat="47.39904" lon="6.91567">
        <ele>565.5</ele>
        <time>2021-08-10T14:08:24Z</time>
      </trkpt>
      <trkpt lat="47.39903" lon="6.91568">
        <ele>565.4</ele>
        <time>2021-08-10T14:08:25Z</time>
      </trkpt>
      <trkpt lat="47.39901" lon="6.91569">
        <ele>565.2</ele>
        <time>2021-08-10T14:08:27Z</time>
      </trkpt>
      <trkpt lat="47.39898" lon="6.91571">
        <ele>565.1</ele>
        <time>2021-08-10T14:08:28Z</time>
      </trkpt>
      <trkpt lat="47.39897" lon="6.91572">
        <ele>565</ele>
        <time>2021-08-10T14:08:29Z</time>
      </trkpt>
      <trkpt lat="47.39891" lon="6.91575">
        <ele>564.6</ele>
        <time>2021-08-10T14:08:30Z</time>
      </trkpt>
      <trkpt lat="47.39884" lon="6.91576">
        <ele>564.1</ele>
        <time>2021-08-10T14:08:32Z</time>
      </trkpt>
      <trkpt lat="47.39877" lon="6.91576">
        <ele>563.6</ele>
        <time>2021-08-10T14:08:33Z</time>
      </trkpt>
      <trkpt lat="47.39872" lon="6.91576">
        <ele>563.2</ele>
        <time>2021-08-10T14:08:34Z</time>
      </trkpt>
      <trkpt lat="47.39863" lon="6.91577">
        <ele>562.5</ele>
        <time>2021-08-10T14:08:35Z</time>
      </trkpt>
      <trkpt lat="47.39856" lon="6.91578">
        <ele>561.9</ele>
        <time>2021-08-10T14:08:37Z</time>
      </trkpt>
      <trkpt lat="47.39848" lon="6.91579">
        <ele>561.2</ele>
        <time>2021-08-10T14:08:38Z</time>
      </trkpt>
      <trkpt lat="47.39842" lon="6.91576">
        <ele>560.7</ele>
        <time>2021-08-10T14:08:40Z</time>
      </trkpt>
      <trkpt lat="47.39835" lon="6.91572">
        <ele>560</ele>
        <time>2021-08-10T14:08:41Z</time>
      </trkpt>
      <trkpt lat="47.3983" lon="6.9157">
        <ele>559.5</ele>
        <time>2021-08-10T14:08:43Z</time>
      </trkpt>
      <trkpt lat="47.39825" lon="6.91569">
        <ele>559</ele>
        <time>2021-08-10T14:08:44Z</time>
      </trkpt>
      <trkpt lat="47.39818" lon="6.91568">
        <ele>558.4</ele>
        <time>2021-08-10T14:08:45Z</time>
      </trkpt>
      <trkpt lat="47.39812" lon="6.91568">
        <ele>557.8</ele>
        <time>2021-08-10T14:08:47Z</time>
      </trkpt>
      <trkpt lat="47.39809" lon="6.91567">
        <ele>557.4</ele>
        <time>2021-08-10T14:08:48Z</time>
      </trkpt>
      <trkpt lat="47.39804" lon="6.91566">
        <ele>556.7</ele>
        <time>2021-08-10T14:08:49Z</time>
      </trkpt>
      <trkpt lat="47.398" lon="6.91565">
        <ele>556.2</ele>
        <time>2021-08-10T14:08:50Z</time>
      </trkpt>
      <trkpt lat="47.39796" lon="6.91564">
        <ele>555.7</ele>
        <time>2021-08-10T14:08:51Z</time>
      </trkpt>
      <trkpt lat="47.39791" lon="6.91562">
        <ele>555</ele>
        <time>2021-08-10T14:08:53Z</time>
      </trkpt>
      <trkpt lat="47.39788" lon="6.91561">
        <ele>554.5</ele>
        <time>2021-08-10T14:08:54Z</time>
      </trkpt>
      <trkpt lat="47.39782" lon="6.91559">
        <ele>553.6</ele>
        <time>2021-08-10T14:08:55Z</time>
      </trkpt>
      <trkpt lat="47.39778" lon="6.91556">
        <ele>552.9</ele>
        <time>2021-08-10T14:08:57Z</time>
      </trkpt>
      <trkpt lat="47.39773" lon="6.91553">
        <ele>552.1</ele>
        <time>2021-08-10T14:08:58Z</time>
      </trkpt>
      <trkpt lat="47.39769" lon="6.91551">
        <ele>551.4</ele>
        <time>2021-08-10T14:09:00Z</time>
      </trkpt>
      <trkpt lat="47.39765" lon="6.9155">
        <ele>550.6</ele>
        <time>2021-08-10T14:09:01Z</time>
      </trkpt>
      <trkpt lat="47.39762" lon="6.9155">
        <ele>549.9</ele>
        <time>2021-08-10T14:09:03Z</time>
      </trkpt>
      <trkpt lat="47.39758" lon="6.91551">
        <ele>549.2</ele>
        <time>2021-08-10T14:09:04Z</time>
      </trkpt>
      <trkpt lat="47.39756" lon="6.91552">
        <ele>548.6</ele>
        <time>2021-08-10T14:09:05Z</time>
      </trkpt>
      <trkpt lat="47.39754" lon="6.91552">
        <ele>548.1</ele>
        <time>2021-08-10T14:09:07Z</time>
      </trkpt>
      <trkpt lat="47.39751" lon="6.91552">
        <ele>547.6</ele>
        <time>2021-08-10T14:09:08Z</time>
      </trkpt>
      <trkpt lat="47.39749" lon="6.91553">
        <ele>547.1</ele>
        <time>2021-08-10T14:09:10Z</time>
      </trkpt>
      <trkpt lat="47.39748" lon="6.91552">
        <ele>546.7</ele>
        <time>2021-08-10T14:09:11Z</time>
      </trkpt>
      <trkpt lat="47.39746" lon="6.91551">
        <ele>546.3</ele>
        <time>2021-08-10T14:09:12Z</time>
      </trkpt>
      <trkpt lat="47.39743" lon="6.9155">
        <ele>545.6</ele>
        <time>2021-08-10T14:09:13Z</time>
      </trkpt>
      <trkpt lat="47.39741" lon="6.9155">
        <ele>545.2</ele>
        <time>2021-08-10T14:09:14Z</time>
      </trkpt>
      <trkpt lat="47.39739" lon="6.91549">
        <ele>544.7</ele>
        <time>2021-08-10T14:09:16Z</time>
      </trkpt>
      <trkpt lat="47.39735" lon="6.91548">
        <ele>543.8</ele>
        <time>2021-08-10T14:09:17Z</time>
      </trkpt>
      <trkpt lat="47.39733" lon="6.91548">
        <ele>543.4</ele>
        <time>2021-08-10T14:09:18Z</time>
      </trkpt>
      <trkpt lat="47.3973" lon="6.91548">
        <ele>542.8</ele>
        <time>2021-08-10T14:09:20Z</time>
      </trkpt>
      <trkpt lat="47.39728" lon="6.91546">
        <ele>542.2</ele>
        <time>2021-08-10T14:09:21Z</time>
      </trkpt>
      <trkpt lat="47.39725" lon="6.91544">
        <ele>541.6</ele>
        <time>2021-08-10T14:09:22Z</time>
      </trkpt>
      <trkpt lat="47.39725" lon="6.91543">
        <ele>541.4</ele>
        <time>2021-08-10T14:09:23Z</time>
      </trkpt>
      <trkpt lat="47.39723" lon="6.91541">
        <ele>541.1</ele>
        <time>2021-08-10T14:09:24Z</time>
      </trkpt>
      <trkpt lat="47.39723" lon="6.91537">
        <ele>540.6</ele>
        <time>2021-08-10T14:09:26Z</time>
      </trkpt>
      <trkpt lat="47.39722" lon="6.9153">
        <ele>539.8</ele>
        <time>2021-08-10T14:09:27Z</time>
      </trkpt>
      <trkpt lat="47.39721" lon="6.91527">
        <ele>539.5</ele>
        <time>2021-08-10T14:09:28Z</time>
      </trkpt>
      <trkpt lat="47.3972" lon="6.91522">
        <ele>538.9</ele>
        <time>2021-08-10T14:09:29Z</time>
      </trkpt>
      <trkpt lat="47.3972" lon="6.91514">
        <ele>538.3</ele>
        <time>2021-08-10T14:09:31Z</time>
      </trkpt>
      <trkpt lat="47.39715" lon="6.91508">
        <ele>537.7</ele>
        <time>2021-08-10T14:09:32Z</time>
      </trkpt>
      <trkpt lat="47.39708" lon="6.91501">
        <ele>537</ele>
        <time>2021-08-10T14:09:33Z</time>
      </trkpt>
      <trkpt lat="47.39705" lon="6.91495">
        <ele>536.5</ele>
        <time>2021-08-10T14:09:34Z</time>
      </trkpt>
      <trkpt lat="47.39691" lon="6.91495">
        <ele>535.2</ele>
        <time>2021-08-10T14:09:36Z</time>
      </trkpt>
      <trkpt lat="47.39684" lon="6.91496">
        <ele>534.6</ele>
        <time>2021-08-10T14:09:37Z</time>
      </trkpt>
      <trkpt lat="47.39679" lon="6.91496">
        <ele>534.2</ele>
        <time>2021-08-10T14:09:38Z</time>
      </trkpt>
      <trkpt lat="47.3967" lon="6.91499">
        <ele>533.5</ele>
        <time>2021-08-10T14:09:40Z</time>
      </trkpt>
      <trkpt lat="47.39668" lon="6.915">
        <ele>533.3</ele>
        <time>2021-08-10T14:09:41Z</time>
      </trkpt>
      <trkpt lat="47.39668" lon="6.91502">
        <ele>533.3</ele>
        <time>2021-08-10T14:09:42Z</time>
      </trkpt>
      <trkpt lat="47.39668" lon="6.91507">
        <ele>533</ele>
        <time>2021-08-10T14:09:44Z</time>
      </trkpt>
      <trkpt lat="47.39668" lon="6.91507">
        <ele>533</ele>
        <time>2021-08-10T14:09:45Z</time>
      </trkpt>
      <trkpt lat="47.39669" lon="6.91507">
        <ele>533</ele>
        <time>2021-08-10T14:09:47Z</time>
      </trkpt>
      <trkpt lat="47.39669" lon="6.91508">
        <ele>533</ele>
        <time>2021-08-10T14:09:49Z</time>
      </trkpt>
      <trkpt lat="47.39669" lon="6.91508">
        <ele>532.9</ele>
        <time>2021-08-10T14:09:50Z</time>
      </trkpt>
      <trkpt lat="47.39669" lon="6.91508">
        <ele>532.9</ele>
        <time>2021-08-10T14:09:52Z</time>
      </trkpt>
      <trkpt lat="47.39708" lon="6.91425">
        <ele>528.1</ele>
        <time>2021-08-10T14:35:19Z</time>
      </trkpt>
      <trkpt lat="47.39709" lon="6.91422">
        <ele>527.9</ele>
        <time>2021-08-10T14:35:21Z</time>
      </trkpt>
      <trkpt lat="47.39709" lon="6.9142">
        <ele>527.9</ele>
        <time>2021-08-10T14:35:22Z</time>
      </trkpt>
      <trkpt lat="47.39709" lon="6.91419">
        <ele>527.8</ele>
        <time>2021-08-10T14:35:23Z</time>
      </trkpt>
      <trkpt lat="47.39708" lon="6.91418">
        <ele>527.7</ele>
        <time>2021-08-10T14:35:24Z</time>
      </trkpt>
      <trkpt lat="47.39708" lon="6.91416">
        <ele>527.6</ele>
        <time>2021-08-10T14:35:25Z</time>
      </trkpt>
      <trkpt lat="47.39707" lon="6.91414">
        <ele>527.5</ele>
        <time>2021-08-10T14:35:26Z</time>
      </trkpt>
      <trkpt lat="47.39705" lon="6.91411">
        <ele>527.3</ele>
        <time>2021-08-10T14:35:28Z</time>
      </trkpt>
      <trkpt lat="47.39702" lon="6.91409">
        <ele>527.1</ele>
        <time>2021-08-10T14:35:29Z</time>
      </trkpt>
      <trkpt lat="47.397" lon="6.91408">
        <ele>527</ele>
        <time>2021-08-10T14:35:30Z</time>
      </trkpt>
      <trkpt lat="47.39697" lon="6.91405">
        <ele>526.8</ele>
        <time>2021-08-10T14:35:32Z</time>
      </trkpt>
      <trkpt lat="47.39694" lon="6.91403">
        <ele>526.5</ele>
        <time>2021-08-10T14:35:33Z</time>
      </trkpt>
      <trkpt lat="47.3969" lon="6.91401">
        <ele>526.2</ele>
        <time>2021-08-10T14:35:35Z</time>
      </trkpt>
      <trkpt lat="47.39685" lon="6.914">
        <ele>525.8</ele>
        <time>2021-08-10T14:35:36Z</time>
      </trkpt>
      <trkpt lat="47.39679" lon="6.91398">
        <ele>525.3</ele>
        <time>2021-08-10T14:35:37Z</time>
      </trkpt>
      <trkpt lat="47.39668" lon="6.91389">
        <ele>524.4</ele>
        <time>2021-08-10T14:35:38Z</time>
      </trkpt>
      <trkpt lat="47.39665" lon="6.91387">
        <ele>524.2</ele>
        <time>2021-08-10T14:35:39Z</time>
      </trkpt>
      <trkpt lat="47.39663" lon="6.91385">
        <ele>524.1</ele>
        <time>2021-08-10T14:35:41Z</time>
      </trkpt>
      <trkpt lat="47.39663" lon="6.91384">
        <ele>524</ele>
        <time>2021-08-10T14:35:42Z</time>
      </trkpt>
      <trkpt lat="47.39662" lon="6.91382">
        <ele>524</ele>
        <time>2021-08-10T14:35:44Z</time>
      </trkpt>
      <trkpt lat="47.39662" lon="6.91382">
        <ele>523.9</ele>
        <time>2021-08-10T14:35:46Z</time>
      </trkpt>
      <trkpt lat="47.39662" lon="6.91381">
        <ele>523.9</ele>
        <time>2021-08-10T14:35:47Z</time>
      </trkpt>
      <trkpt lat="47.39662" lon="6.9138">
        <ele>523.8</ele>
        <time>2021-08-10T14:35:48Z</time>
      </trkpt>
      <trkpt lat="47.39662" lon="6.91378">
        <ele>523.8</ele>
        <time>2021-08-10T14:35:49Z</time>
      </trkpt>
      <trkpt lat="47.39662" lon="6.91376">
        <ele>523.7</ele>
        <time>2021-08-10T14:35:50Z</time>
      </trkpt>
      <trkpt lat="47.39663" lon="6.91374">
        <ele>523.6</ele>
        <time>2021-08-10T14:35:51Z</time>
      </trkpt>
      <trkpt lat="47.39664" lon="6.91372">
        <ele>523.5</ele>
        <time>2021-08-10T14:35:52Z</time>
      </trkpt>
      <trkpt lat="47.39639" lon="6.91194">
        <ele>515.3</ele>
        <time>2021-08-10T14:37:30Z</time>
      </trkpt>
      <trkpt lat="47.39633" lon="6.91186">
        <ele>514.7</ele>
        <time>2021-08-10T14:37:31Z</time>
      </trkpt>
      <trkpt lat="47.3963" lon="6.9118">
        <ele>514.3</ele>
        <time>2021-08-10T14:37:32Z</time>
      </trkpt>
      <trkpt lat="47.39626" lon="6.9117">
        <ele>513.8</ele>
        <time>2021-08-10T14:37:34Z</time>
      </trkpt>
      <trkpt lat="47.39622" lon="6.91158">
        <ele>513.1</ele>
        <time>2021-08-10T14:37:35Z</time>
      </trkpt>
      <trkpt lat="47.39619" lon="6.91148">
        <ele>512.6</ele>
        <time>2021-08-10T14:37:37Z</time>
      </trkpt>
      <trkpt lat="47.39618" lon="6.91144">
        <ele>512.4</ele>
        <time>2021-08-10T14:37:38Z</time>
      </trkpt>
      <trkpt lat="47.39616" lon="6.91138">
        <ele>512.1</ele>
        <time>2021-08-10T14:37:39Z</time>
      </trkpt>
      <trkpt lat="47.39616" lon="6.91131">
        <ele>511.7</ele>
        <time>2021-08-10T14:37:41Z</time>
      </trkpt>
      <trkpt lat="47.39616" lon="6.91129">
        <ele>511.6</ele>
        <time>2021-08-10T14:37:42Z</time>
      </trkpt>
      <trkpt lat="47.39559" lon="6.90999">
        <ele>525.4</ele>
        <time>2021-08-10T14:41:15Z</time>
      </trkpt>
      <trkpt lat="47.39557" lon="6.90999">
        <ele>526</ele>
        <time>2021-08-10T14:41:17Z</time>
      </trkpt>
      <trkpt lat="47.39557" lon="6.90998">
        <ele>526.2</ele>
        <time>2021-08-10T14:41:18Z</time>
      </trkpt>
      <trkpt lat="47.39558" lon="6.90998">
        <ele>526.6</ele>
        <time>2021-08-10T14:41:20Z</time>
      </trkpt>
      <trkpt lat="47.39559" lon="6.90999">
        <ele>527</ele>
        <time>2021-08-10T14:41:22Z</time>
      </trkpt>
      <trkpt lat="47.3956" lon="6.91">
        <ele>527.3</ele>
        <time>2021-08-10T14:41:24Z</time>
      </trkpt>
      <trkpt lat="47.3956" lon="6.91">
        <ele>527.5</ele>
        <time>2021-08-10T14:41:26Z</time>
      </trkpt>
      <trkpt lat="47.3956" lon="6.91001">
        <ele>527.6</ele>
        <time>2021-08-10T14:41:27Z</time>
      </trkpt>
      <trkpt lat="47.3956" lon="6.91001">
        <ele>527.7</ele>
        <time>2021-08-10T14:41:28Z</time>
      </trkpt>
      <trkpt lat="47.39487" lon="6.91042">
        <ele>542.2</ele>
        <time>2021-08-10T14:43:39Z</time>
      </trkpt>
      <trkpt lat="47.39485" lon="6.91043">
        <ele>542.4</ele>
        <time>2021-08-10T14:43:40Z</time>
      </trkpt>
      <trkpt lat="47.39484" lon="6.91043">
        <ele>542.5</ele>
        <time>2021-08-10T14:43:41Z</time>
      </trkpt>
      <trkpt lat="47.39483" lon="6.91043">
        <ele>542.5</ele>
        <time>2021-08-10T14:43:42Z</time>
      </trkpt>
      <trkpt lat="47.39482" lon="6.91043">
        <ele>542.6</ele>
        <time>2021-08-10T14:43:43Z</time>
      </trkpt>
      <trkpt lat="47.3948" lon="6.91042">
        <ele>542.7</ele>
        <time>2021-08-10T14:43:45Z</time>
      </trkpt>
      <trkpt lat="47.3948" lon="6.91042">
        <ele>542.8</ele>
        <time>2021-08-10T14:43:46Z</time>
      </trkpt>
      <trkpt lat="47.39479" lon="6.91042">
        <ele>542.8</ele>
        <time>2021-08-10T14:43:47Z</time>
      </trkpt>
      <trkpt lat="47.39478" lon="6.91043">
        <ele>542.9</ele>
        <time>2021-08-10T14:43:48Z</time>
      </trkpt>
      <trkpt lat="47.39476" lon="6.91043">
        <ele>543</ele>
        <time>2021-08-10T14:43:50Z</time>
      </trkpt>
      <trkpt lat="47.39475" lon="6.91043">
        <ele>543</ele>
        <time>2021-08-10T14:43:51Z</time>
      </trkpt>
      <trkpt lat="47.39474" lon="6.91044">
        <ele>543.1</ele>
        <time>2021-08-10T14:43:52Z</time>
      </trkpt>
      <trkpt lat="47.39472" lon="6.91044">
        <ele>543.1</ele>
        <time>2021-08-10T14:43:53Z</time>
      </trkpt>
      <trkpt lat="47.39471" lon="6.91044">
        <ele>543.2</ele>
        <time>2021-08-10T14:43:54Z</time>
      </trkpt>
      <trkpt lat="47.39467" lon="6.91043">
        <ele>543.3</ele>
        <time>2021-08-10T14:43:56Z</time>
      </trkpt>
      <trkpt lat="47.39466" lon="6.91042">
        <ele>543.4</ele>
        <time>2021-08-10T14:43:58Z</time>
      </trkpt>
      <trkpt lat="47.39465" lon="6.91042">
        <ele>543.4</ele>
        <time>2021-08-10T14:43:59Z</time>
      </trkpt>
      <trkpt lat="47.39464" lon="6.91042">
        <ele>543.4</ele>
        <time>2021-08-10T14:44:00Z</time>
      </trkpt>
      <trkpt lat="47.39464" lon="6.91042">
        <ele>543.4</ele>
        <time>2021-08-10T14:44:02Z</time>
      </trkpt>
      <trkpt lat="47.39464" lon="6.91043">
        <ele>543.4</ele>
        <time>2021-08-10T14:44:04Z</time>
      </trkpt>
      <trkpt lat="47.39464" lon="6.91044">
        <ele>543.4</ele>
        <time>2021-08-10T14:44:05Z</time>
      </trkpt>
      <trkpt lat="47.39464" lon="6.91044">
        <ele>543.4</ele>
        <time>2021-08-10T14:44:06Z</time>
      </trkpt>
      <trkpt lat="47.39463" lon="6.91045">
        <ele>543.5</ele>
        <time>2021-08-10T14:44:07Z</time>
      </trkpt>
      <trkpt lat="47.39463" lon="6.91045">
        <ele>543.5</ele>
        <time>2021-08-10T14:44:08Z</time>
      </trkpt>
      <trkpt lat="47.39462" lon="6.91045">
        <ele>543.5</ele>
        <time>2021-08-10T14:44:10Z</time>
      </trkpt>
      <trkpt lat="47.39439" lon="6.91052">
        <ele>542.9</ele>
        <time>2021-08-10T14:44:36Z</time>
      </trkpt>
      <trkpt lat="47.39435" lon="6.91055">
        <ele>542.6</ele>
        <time>2021-08-10T14:44:38Z</time>
      </trkpt>
      <trkpt lat="47.39432" lon="6.9106">
        <ele>542.4</ele>
        <time>2021-08-10T14:44:39Z</time>
      </trkpt>
      <trkpt lat="47.39431" lon="6.91065">
        <ele>542.1</ele>
        <time>2021-08-10T14:44:40Z</time>
      </trkpt>
      <trkpt lat="47.39431" lon="6.91067">
        <ele>542</ele>
        <time>2021-08-10T14:44:41Z</time>
      </trkpt>
      <trkpt lat="47.39429" lon="6.91074">
        <ele>541.6</ele>
        <time>2021-08-10T14:44:43Z</time>
      </trkpt>
      <trkpt lat="47.39429" lon="6.91077">
        <ele>541.4</ele>
        <time>2021-08-10T14:44:44Z</time>
      </trkpt>
      <trkpt lat="47.39428" lon="6.91079">
        <ele>541.3</ele>
        <time>2021-08-10T14:44:45Z</time>
      </trkpt>
      <trkpt lat="47.39425" lon="6.91085">
        <ele>540.8</ele>
        <time>2021-08-10T14:44:46Z</time>
      </trkpt>
      <trkpt lat="47.39423" lon="6.9109">
        <ele>540.3</ele>
        <time>2021-08-10T14:44:48Z</time>
      </trkpt>
      <trkpt lat="47.39421" lon="6.91095">
        <ele>539.7</ele>
        <time>2021-08-10T14:44:49Z</time>
      </trkpt>
      <trkpt lat="47.39419" lon="6.91104">
        <ele>538.7</ele>
        <time>2021-08-10T14:44:50Z</time>
      </trkpt>
      <trkpt lat="47.39417" lon="6.91111">
        <ele>537.7</ele>
        <time>2021-08-10T14:44:52Z</time>
      </trkpt>
      <trkpt lat="47.39414" lon="6.91117">
        <ele>536.6</ele>
        <time>2021-08-10T14:44:53Z</time>
      </trkpt>
      <trkpt lat="47.39411" lon="6.91122">
        <ele>535.7</ele>
        <time>2021-08-10T14:44:54Z</time>
      </trkpt>
      <trkpt lat="47.39408" lon="6.91127">
        <ele>534.6</ele>
        <time>2021-08-10T14:44:56Z</time>
      </trkpt>
      <trkpt lat="47.39404" lon="6.91131">
        <ele>533.7</ele>
        <time>2021-08-10T14:44:57Z</time>
      </trkpt>
      <trkpt lat="47.39401" lon="6.91135">
        <ele>532.8</ele>
        <time>2021-08-10T14:44:58Z</time>
      </trkpt>
      <trkpt lat="47.39398" lon="6.9114">
        <ele>531.7</ele>
        <time>2021-08-10T14:44:59Z</time>
      </trkpt>
      <trkpt lat="47.39394" lon="6.91147">
        <ele>530.4</ele>
        <time>2021-08-10T14:45:01Z</time>
      </trkpt>
      <trkpt lat="47.39387" lon="6.91153">
        <ele>529.2</ele>
        <time>2021-08-10T14:45:03Z</time>
      </trkpt>
      <trkpt lat="47.39381" lon="6.91154">
        <ele>528.6</ele>
        <time>2021-08-10T14:45:04Z</time>
      </trkpt>
      <trkpt lat="47.39372" lon="6.91155">
        <ele>528.2</ele>
        <time>2021-08-10T14:45:05Z</time>
      </trkpt>
      <trkpt lat="47.39364" lon="6.91155">
        <ele>528</ele>
        <time>2021-08-10T14:45:07Z</time>
      </trkpt>
      <trkpt lat="47.39355" lon="6.91157">
        <ele>528.1</ele>
        <time>2021-08-10T14:45:08Z</time>
      </trkpt>
      <trkpt lat="47.39349" lon="6.91159">
        <ele>528.3</ele>
        <time>2021-08-10T14:45:10Z</time>
      </trkpt>
      <trkpt lat="47.39344" lon="6.9116">
        <ele>528.5</ele>
        <time>2021-08-10T14:45:11Z</time>
      </trkpt>
      <trkpt lat="47.3934" lon="6.9116">
        <ele>528.6</ele>
        <time>2021-08-10T14:45:13Z</time>
      </trkpt>
      <trkpt lat="47.39336" lon="6.91159">
        <ele>528.8</ele>
        <time>2021-08-10T14:45:14Z</time>
      </trkpt>
      <trkpt lat="47.39335" lon="6.91159">
        <ele>528.8</ele>
        <time>2021-08-10T14:45:15Z</time>
      </trkpt>
      <trkpt lat="47.39333" lon="6.91156">
        <ele>529</ele>
        <time>2021-08-10T14:45:17Z</time>
      </trkpt>
      <trkpt lat="47.39334" lon="6.91156">
        <ele>529</ele>
        <time>2021-08-10T14:45:18Z</time>
      </trkpt>
      <trkpt lat="47.39335" lon="6.91154">
        <ele>529.1</ele>
        <time>2021-08-10T14:45:20Z</time>
      </trkpt>
      <trkpt lat="47.39336" lon="6.91154">
        <ele>529.2</ele>
        <time>2021-08-10T14:45:21Z</time>
      </trkpt>
      <trkpt lat="47.39336" lon="6.91152">
        <ele>529.2</ele>
        <time>2021-08-10T14:45:22Z</time>
      </trkpt>
      <trkpt lat="47.39336" lon="6.91153">
        <ele>529.2</ele>
        <time>2021-08-10T14:45:23Z</time>
      </trkpt>
      <trkpt lat="47.39335" lon="6.91153">
        <ele>529.3</ele>
        <time>2021-08-10T14:45:24Z</time>
      </trkpt>
      <trkpt lat="47.39334" lon="6.91152">
        <ele>529.3</ele>
        <time>2021-08-10T14:45:25Z</time>
      </trkpt>
      <trkpt lat="47.39334" lon="6.91152">
        <ele>529.4</ele>
        <time>2021-08-10T14:45:27Z</time>
      </trkpt>
      <trkpt lat="47.39334" lon="6.91151">
        <ele>529.4</ele>
        <time>2021-08-10T14:45:29Z</time>
      </trkpt>
      <trkpt lat="47.39333" lon="6.91151">
        <ele>529.4</ele>
        <time>2021-08-10T14:45:30Z</time>
      </trkpt>
      <trkpt lat="47.39333" lon="6.9115">
        <ele>529.5</ele>
        <time>2021-08-10T14:45:32Z</time>
      </trkpt>
      <trkpt lat="47.39322" lon="6.91143">
        <ele>530.4</ele>
        <time>2021-08-10T14:45:38Z</time>
      </trkpt>
      <trkpt lat="47.3932" lon="6.91141">
        <ele>530.6</ele>
        <time>2021-08-10T14:45:39Z</time>
      </trkpt>
      <trkpt lat="47.39319" lon="6.9114">
        <ele>530.7</ele>
        <time>2021-08-10T14:45:40Z</time>
      </trkpt>
      <trkpt lat="47.39314" lon="6.91138">
        <ele>531.2</ele>
        <time>2021-08-10T14:45:42Z</time>
      </trkpt>
      <trkpt lat="47.39311" lon="6.91137">
        <ele>531.6</ele>
        <time>2021-08-10T14:45:43Z</time>
      </trkpt>
      <trkpt lat="47.39309" lon="6.91137">
        <ele>531.8</ele>
        <time>2021-08-10T14:45:44Z</time>
      </trkpt>
      <trkpt lat="47.39305" lon="6.91137">
        <ele>532.2</ele>
        <time>2021-08-10T14:45:46Z</time>
      </trkpt>
      <trkpt lat="47.39302" lon="6.91138">
        <ele>532.6</ele>
        <time>2021-08-10T14:45:47Z</time>
      </trkpt>
      <trkpt lat="47.393" lon="6.91138">
        <ele>532.8</ele>
        <time>2021-08-10T14:45:48Z</time>
      </trkpt>
      <trkpt lat="47.39299" lon="6.91138">
        <ele>533.1</ele>
        <time>2021-08-10T14:45:50Z</time>
      </trkpt>
      <trkpt lat="47.39296" lon="6.91137">
        <ele>533.4</ele>
        <time>2021-08-10T14:45:51Z</time>
      </trkpt>
      <trkpt lat="47.39293" lon="6.91136">
        <ele>533.9</ele>
        <time>2021-08-10T14:45:53Z</time>
      </trkpt>
      <trkpt lat="47.3929" lon="6.91136">
        <ele>534.3</ele>
        <time>2021-08-10T14:45:55Z</time>
      </trkpt>
      <trkpt lat="47.39217" lon="6.91123">
        <ele>544.2</ele>
        <time>2021-08-10T14:47:30Z</time>
      </trkpt>
      <trkpt lat="47.39215" lon="6.91123">
        <ele>544.4</ele>
        <time>2021-08-10T14:47:32Z</time>
      </trkpt>
      <trkpt lat="47.39212" lon="6.91123">
        <ele>544.7</ele>
        <time>2021-08-10T14:47:34Z</time>
      </trkpt>
      <trkpt lat="47.3921" lon="6.91124">
        <ele>544.8</ele>
        <time>2021-08-10T14:47:35Z</time>
      </trkpt>
      <trkpt lat="47.3921" lon="6.91125">
        <ele>544.9</ele>
        <time>2021-08-10T14:47:37Z</time>
      </trkpt>
      <trkpt lat="47.39209" lon="6.91126">
        <ele>545</ele>
        <time>2021-08-10T14:47:39Z</time>
      </trkpt>
      <trkpt lat="47.39209" lon="6.91127">
        <ele>545.1</ele>
        <time>2021-08-10T14:47:40Z</time>
      </trkpt>
      <trkpt lat="47.39208" lon="6.91127">
        <ele>545.1</ele>
        <time>2021-08-10T14:47:41Z</time>
      </trkpt>
      <trkpt lat="47.39207" lon="6.91127">
        <ele>545.3</ele>
        <time>2021-08-10T14:47:42Z</time>
      </trkpt>
      <trkpt lat="47.39205" lon="6.91126">
        <ele>545.5</ele>
        <time>2021-08-10T14:47:43Z</time>
      </trkpt>
      <trkpt lat="47.39203" lon="6.91125">
        <ele>545.7</ele>
        <time>2021-08-10T14:47:45Z</time>
      </trkpt>
      <trkpt lat="47.39193" lon="6.91122">
        <ele>546.7</ele>
        <time>2021-08-10T14:47:55Z</time>
      </trkpt>
      <trkpt lat="47.39192" lon="6.9112">
        <ele>546.9</ele>
        <time>2021-08-10T14:47:56Z</time>
      </trkpt>
      <trkpt lat="47.3919" lon="6.91119">
        <ele>547.1</ele>
        <time>2021-08-10T14:47:57Z</time>
      </trkpt>
      <trkpt lat="47.39189" lon="6.91119">
        <ele>547.2</ele>
        <time>2021-08-10T14:47:58Z</time>
      </trkpt>
      <trkpt lat="47.39189" lon="6.91118">
        <ele>547.3</ele>
        <time>2021-08-10T14:48:00Z</time>
      </trkpt>
      <trkpt lat="47.39188" lon="6.91117">
        <ele>547.4</ele>
        <time>2021-08-10T14:48:01Z</time>
      </trkpt>
      <trkpt lat="47.39186" lon="6.91115">
        <ele>547.6</ele>
        <time>2021-08-10T14:48:03Z</time>
      </trkpt>
      <trkpt lat="47.39185" lon="6.91113">
        <ele>547.8</ele>
        <time>2021-08-10T14:48:05Z</time>
      </trkpt>
      <trkpt lat="47.39174" lon="6.91117">
        <ele>548.9</ele>
        <time>2021-08-10T14:48:06Z</time>
      </trkpt>
      <trkpt lat="47.39164" lon="6.91123">
        <ele>549.9</ele>
        <time>2021-08-10T14:48:40Z</time>
      </trkpt>
      <trkpt lat="47.39154" lon="6.91128">
        <ele>550.9</ele>
        <time>2021-08-10T14:48:41Z</time>
      </trkpt>
      <trkpt lat="47.39151" lon="6.91128">
        <ele>551.2</ele>
        <time>2021-08-10T14:48:42Z</time>
      </trkpt>
      <trkpt lat="47.3915" lon="6.91128">
        <ele>551.3</ele>
        <time>2021-08-10T14:48:43Z</time>
      </trkpt>
      <trkpt lat="47.39148" lon="6.91127">
        <ele>551.5</ele>
        <time>2021-08-10T14:48:44Z</time>
      </trkpt>
      <trkpt lat="47.39142" lon="6.91122">
        <ele>551.9</ele>
        <time>2021-08-10T14:48:46Z</time>
      </trkpt>
      <trkpt lat="47.39138" lon="6.91123">
        <ele>552.2</ele>
        <time>2021-08-10T14:48:48Z</time>
      </trkpt>
      <trkpt lat="47.39137" lon="6.91125">
        <ele>552.3</ele>
        <time>2021-08-10T14:48:49Z</time>
      </trkpt>
      <trkpt lat="47.39135" lon="6.91127">
        <ele>552.4</ele>
        <time>2021-08-10T14:48:50Z</time>
      </trkpt>
      <trkpt lat="47.39134" lon="6.91129">
        <ele>552.5</ele>
        <time>2021-08-10T14:48:52Z</time>
      </trkpt>
      <trkpt lat="47.39133" lon="6.91131">
        <ele>552.6</ele>
        <time>2021-08-10T14:48:53Z</time>
      </trkpt>
      <trkpt lat="47.39132" lon="6.91133">
        <ele>552.7</ele>
        <time>2021-08-10T14:48:54Z</time>
      </trkpt>
      <trkpt lat="47.39131" lon="6.91135">
        <ele>552.8</ele>
        <time>2021-08-10T14:48:55Z</time>
      </trkpt>
      <trkpt lat="47.39129" lon="6.91137">
        <ele>552.9</ele>
        <time>2021-08-10T14:48:56Z</time>
      </trkpt>
      <trkpt lat="47.39128" lon="6.91139">
        <ele>553</ele>
        <time>2021-08-10T14:48:57Z</time>
      </trkpt>
      <trkpt lat="47.39127" lon="6.91141">
        <ele>553.2</ele>
        <time>2021-08-10T14:48:58Z</time>
      </trkpt>
      <trkpt lat="47.39126" lon="6.91143">
        <ele>553.3</ele>
        <time>2021-08-10T14:49:00Z</time>
      </trkpt>
      <trkpt lat="47.39125" lon="6.91145">
        <ele>553.4</ele>
        <time>2021-08-10T14:49:01Z</time>
      </trkpt>
      <trkpt lat="47.39123" lon="6.91147">
        <ele>553.5</ele>
        <time>2021-08-10T14:49:02Z</time>
      </trkpt>
      <trkpt lat="47.39122" lon="6.91149">
        <ele>553.6</ele>
        <time>2021-08-10T14:49:04Z</time>
      </trkpt>
      <trkpt lat="47.39121" lon="6.91151">
        <ele>553.7</ele>
        <time>2021-08-10T14:49:05Z</time>
      </trkpt>
      <trkpt lat="47.3912" lon="6.91153">
        <ele>553.8</ele>
        <time>2021-08-10T14:49:21Z</time>
      </trkpt>
      <trkpt lat="47.39118" lon="6.91155">
        <ele>553.9</ele>
        <time>2021-08-10T14:49:22Z</time>
      </trkpt>
      <trkpt lat="47.39117" lon="6.91157">
        <ele>554</ele>
        <time>2021-08-10T14:49:23Z</time>
      </trkpt>
      <trkpt lat="47.39115" lon="6.91158">
        <ele>554.2</ele>
        <time>2021-08-10T14:49:25Z</time>
      </trkpt>
      <trkpt lat="47.39114" lon="6.91158">
        <ele>554.3</ele>
        <time>2021-08-10T14:49:26Z</time>
      </trkpt>
      <trkpt lat="47.39111" lon="6.91157">
        <ele>554.4</ele>
        <time>2021-08-10T14:49:27Z</time>
      </trkpt>
      <trkpt lat="47.39109" lon="6.91156">
        <ele>554.5</ele>
        <time>2021-08-10T14:49:28Z</time>
      </trkpt>
      <trkpt lat="47.39107" lon="6.91155">
        <ele>554.7</ele>
        <time>2021-08-10T14:49:30Z</time>
      </trkpt>
      <trkpt lat="47.39105" lon="6.91155">
        <ele>554.8</ele>
        <time>2021-08-10T14:49:31Z</time>
      </trkpt>
      <trkpt lat="47.39104" lon="6.91156">
        <ele>554.9</ele>
        <time>2021-08-10T14:49:32Z</time>
      </trkpt>
      <trkpt lat="47.39102" lon="6.91156">
        <ele>555</ele>
        <time>2021-08-10T14:49:33Z</time>
      </trkpt>
      <trkpt lat="47.39101" lon="6.91157">
        <ele>555.1</ele>
        <time>2021-08-10T14:49:35Z</time>
      </trkpt>
      <trkpt lat="47.391" lon="6.91158">
        <ele>555.1</ele>
        <time>2021-08-10T14:49:36Z</time>
      </trkpt>
      <trkpt lat="47.39099" lon="6.91159">
        <ele>555.2</ele>
        <time>2021-08-10T14:49:37Z</time>
      </trkpt>
      <trkpt lat="47.39098" lon="6.91161">
        <ele>555.3</ele>
        <time>2021-08-10T14:49:38Z</time>
      </trkpt>
      <trkpt lat="47.39098" lon="6.91162">
        <ele>555.3</ele>
        <time>2021-08-10T14:49:39Z</time>
      </trkpt>
      <trkpt lat="47.39097" lon="6.91162">
        <ele>555.4</ele>
        <time>2021-08-10T14:49:40Z</time>
      </trkpt>
      <trkpt lat="47.39096" lon="6.91163">
        <ele>555.4</ele>
        <time>2021-08-10T14:49:42Z</time>
      </trkpt>
      <trkpt lat="47.39096" lon="6.91163">
        <ele>555.4</ele>
        <time>2021-08-10T14:49:43Z</time>
      </trkpt>
      <trkpt lat="47.39096" lon="6.91163">
        <ele>555.5</ele>
        <time>2021-08-10T14:49:44Z</time>
      </trkpt>
      <trkpt lat="47.39096" lon="6.91163">
        <ele>555.5</ele>
        <time>2021-08-10T14:49:45Z</time>
      </trkpt>
      <trkpt lat="47.39096" lon="6.91163">
        <ele>555.5</ele>
        <time>2021-08-10T14:49:46Z</time>
      </trkpt>
      <trkpt lat="47.39095" lon="6.91162">
        <ele>555.5</ele>
        <time>2021-08-10T14:49:48Z</time>
      </trkpt>
      <trkpt lat="47.39095" lon="6.91162">
        <ele>555.6</ele>
        <time>2021-08-10T14:49:49Z</time>
      </trkpt>
      <trkpt lat="47.39094" lon="6.91161">
        <ele>555.6</ele>
        <time>2021-08-10T14:49:50Z</time>
      </trkpt>
      <trkpt lat="47.39093" lon="6.91161">
        <ele>555.7</ele>
        <time>2021-08-10T14:49:51Z</time>
      </trkpt>
      <trkpt lat="47.39091" lon="6.91161">
        <ele>555.8</ele>
        <time>2021-08-10T14:49:52Z</time>
      </trkpt>
      <trkpt lat="47.3909" lon="6.91161">
        <ele>555.9</ele>
        <time>2021-08-10T14:49:54Z</time>
      </trkpt>
      <trkpt lat="47.39087" lon="6.91161">
        <ele>556</ele>
        <time>2021-08-10T14:49:55Z</time>
      </trkpt>
      <trkpt lat="47.39085" lon="6.91161">
        <ele>556.2</ele>
        <time>2021-08-10T14:49:57Z</time>
      </trkpt>
      <trkpt lat="47.39071" lon="6.91164">
        <ele>556.9</ele>
        <time>2021-08-10T14:50:06Z</time>
      </trkpt>
      <trkpt lat="47.39068" lon="6.91165">
        <ele>557.1</ele>
        <time>2021-08-10T14:50:07Z</time>
      </trkpt>
      <trkpt lat="47.39064" lon="6.91165">
        <ele>557.3</ele>
        <time>2021-08-10T14:50:09Z</time>
      </trkpt>
      <trkpt lat="47.39063" lon="6.91165">
        <ele>557.4</ele>
        <time>2021-08-10T14:50:10Z</time>
      </trkpt>
      <trkpt lat="47.39061" lon="6.91166">
        <ele>557.5</ele>
        <time>2021-08-10T14:50:11Z</time>
      </trkpt>
      <trkpt lat="47.3906" lon="6.91167">
        <ele>557.5</ele>
        <time>2021-08-10T14:50:13Z</time>
      </trkpt>
      <trkpt lat="47.3906" lon="6.91167">
        <ele>557.6</ele>
        <time>2021-08-10T14:50:14Z</time>
      </trkpt>
      <trkpt lat="47.3906" lon="6.91169">
        <ele>557.6</ele>
        <time>2021-08-10T14:50:16Z</time>
      </trkpt>
      <trkpt lat="47.39061" lon="6.91171">
        <ele>557.7</ele>
        <time>2021-08-10T14:50:18Z</time>
      </trkpt>
      <trkpt lat="47.39061" lon="6.91173">
        <ele>557.7</ele>
        <time>2021-08-10T14:50:20Z</time>
      </trkpt>
      <trkpt lat="47.39061" lon="6.91174">
        <ele>557.8</ele>
        <time>2021-08-10T14:50:21Z</time>
      </trkpt>
      <trkpt lat="47.39051" lon="6.91207">
        <ele>558.8</ele>
        <time>2021-08-10T14:51:06Z</time>
      </trkpt>
      <trkpt lat="47.39049" lon="6.91211">
        <ele>558.9</ele>
        <time>2021-08-10T14:51:08Z</time>
      </trkpt>
      <trkpt lat="47.39047" lon="6.91212">
        <ele>559</ele>
        <time>2021-08-10T14:51:09Z</time>
      </trkpt>
      <trkpt lat="47.39046" lon="6.91212">
        <ele>559.1</ele>
        <time>2021-08-10T14:51:10Z</time>
      </trkpt>
      <trkpt lat="47.39045" lon="6.91211">
        <ele>559.1</ele>
        <time>2021-08-10T14:51:11Z</time>
      </trkpt>
      <trkpt lat="47.39044" lon="6.9121">
        <ele>559.2</ele>
        <time>2021-08-10T14:51:12Z</time>
      </trkpt>
      <trkpt lat="47.39043" lon="6.91206">
        <ele>559.3</ele>
        <time>2021-08-10T14:51:15Z</time>
      </trkpt>
      <trkpt lat="47.39042" lon="6.91204">
        <ele>559.3</ele>
        <time>2021-08-10T14:51:16Z</time>
      </trkpt>
      <trkpt lat="47.39041" lon="6.91204">
        <ele>559.3</ele>
        <time>2021-08-10T14:51:18Z</time>
      </trkpt>
      <trkpt lat="47.3904" lon="6.91204">
        <ele>559.4</ele>
        <time>2021-08-10T14:51:19Z</time>
      </trkpt>
      <trkpt lat="47.39039" lon="6.91203">
        <ele>559.4</ele>
        <time>2021-08-10T14:51:20Z</time>
      </trkpt>
      <trkpt lat="47.39028" lon="6.91209">
        <ele>559.7</ele>
        <time>2021-08-10T14:51:27Z</time>
      </trkpt>
      <trkpt lat="47.39025" lon="6.91213">
        <ele>559.8</ele>
        <time>2021-08-10T14:51:28Z</time>
      </trkpt>
      <trkpt lat="47.39021" lon="6.91218">
        <ele>559.9</ele>
        <time>2021-08-10T14:51:30Z</time>
      </trkpt>
      <trkpt lat="47.39018" lon="6.91223">
        <ele>560</ele>
        <time>2021-08-10T14:51:32Z</time>
      </trkpt>
      <trkpt lat="47.39016" lon="6.91226">
        <ele>560</ele>
        <time>2021-08-10T14:51:33Z</time>
      </trkpt>
      <trkpt lat="47.39015" lon="6.9123">
        <ele>560.1</ele>
        <time>2021-08-10T14:51:35Z</time>
      </trkpt>
      <trkpt lat="47.39015" lon="6.91231">
        <ele>560.1</ele>
        <time>2021-08-10T14:51:37Z</time>
      </trkpt>
      <trkpt lat="47.39014" lon="6.9123">
        <ele>560.1</ele>
        <time>2021-08-10T14:51:38Z</time>
      </trkpt>
      <trkpt lat="47.39016" lon="6.91227">
        <ele>560.1</ele>
        <time>2021-08-10T14:51:40Z</time>
      </trkpt>
      <trkpt lat="47.39016" lon="6.91226">
        <ele>560.1</ele>
        <time>2021-08-10T14:51:41Z</time>
      </trkpt>
      <trkpt lat="47.39017" lon="6.91225">
        <ele>560.2</ele>
        <time>2021-08-10T14:51:43Z</time>
      </trkpt>
      <trkpt lat="47.39017" lon="6.91223">
        <ele>560.2</ele>
        <time>2021-08-10T14:51:45Z</time>
      </trkpt>
      <trkpt lat="47.39017" lon="6.91222">
        <ele>560.2</ele>
        <time>2021-08-10T14:51:46Z</time>
      </trkpt>
      <trkpt lat="47.39017" lon="6.91221">
        <ele>560.2</ele>
        <time>2021-08-10T14:51:48Z</time>
      </trkpt>
      <trkpt lat="47.3898" lon="6.91218">
        <ele>560.8</ele>
        <time>2021-08-10T14:52:04Z</time>
      </trkpt>
      <trkpt lat="47.38976" lon="6.91215">
        <ele>560.9</ele>
        <time>2021-08-10T14:52:06Z</time>
      </trkpt>
      <trkpt lat="47.38974" lon="6.91212">
        <ele>560.9</ele>
        <time>2021-08-10T14:52:07Z</time>
      </trkpt>
      <trkpt lat="47.38971" lon="6.91206">
        <ele>561</ele>
        <time>2021-08-10T14:52:09Z</time>
      </trkpt>
      <trkpt lat="47.3897" lon="6.912">
        <ele>561.1</ele>
        <time>2021-08-10T14:52:11Z</time>
      </trkpt>
      <trkpt lat="47.38969" lon="6.91195">
        <ele>561.2</ele>
        <time>2021-08-10T14:52:13Z</time>
      </trkpt>
      <trkpt lat="47.38969" lon="6.91195">
        <ele>561.2</ele>
        <time>2021-08-10T14:52:14Z</time>
      </trkpt>
      <trkpt lat="47.38972" lon="6.91197">
        <ele>561.3</ele>
        <time>2021-08-10T14:52:16Z</time>
      </trkpt>
      <trkpt lat="47.38974" lon="6.91199">
        <ele>561.3</ele>
        <time>2021-08-10T14:52:17Z</time>
      </trkpt>
      <trkpt lat="47.38975" lon="6.91199">
        <ele>561.4</ele>
        <time>2021-08-10T14:52:18Z</time>
      </trkpt>
      <trkpt lat="47.38976" lon="6.91199">
        <ele>561.4</ele>
        <time>2021-08-10T14:52:19Z</time>
      </trkpt>
      <trkpt lat="47.38977" lon="6.912">
        <ele>561.4</ele>
        <time>2021-08-10T14:52:20Z</time>
      </trkpt>
      <trkpt lat="47.38978" lon="6.912">
        <ele>561.4</ele>
        <time>2021-08-10T14:52:22Z</time>
      </trkpt>
      <trkpt lat="47.39005" lon="6.91213">
        <ele>562.1</ele>
        <time>2021-08-10T14:52:27Z</time>
      </trkpt>
      <trkpt lat="47.39007" lon="6.91214">
        <ele>562.1</ele>
        <time>2021-08-10T14:52:28Z</time>
      </trkpt>
      <trkpt lat="47.39007" lon="6.91214">
        <ele>562.1</ele>
        <time>2021-08-10T14:52:29Z</time>
      </trkpt>
      <trkpt lat="47.39007" lon="6.91213">
        <ele>562.1</ele>
        <time>2021-08-10T14:52:31Z</time>
      </trkpt>
      <trkpt lat="47.39008" lon="6.91213">
        <ele>562.1</ele>
        <time>2021-08-10T14:52:33Z</time>
      </trkpt>
      <trkpt lat="47.39008" lon="6.91213">
        <ele>562.2</ele>
        <time>2021-08-10T14:52:34Z</time>
      </trkpt>
      <trkpt lat="47.39007" lon="6.91213">
        <ele>562.2</ele>
        <time>2021-08-10T14:52:35Z</time>
      </trkpt>
      <trkpt lat="47.39007" lon="6.91214">
        <ele>562.2</ele>
        <time>2021-08-10T14:52:36Z</time>
      </trkpt>
      <trkpt lat="47.39006" lon="6.91214">
        <ele>562.2</ele>
        <time>2021-08-10T14:52:38Z</time>
      </trkpt>
      <trkpt lat="47.39006" lon="6.91216">
        <ele>562.2</ele>
        <time>2021-08-10T14:52:39Z</time>
      </trkpt>
      <trkpt lat="47.39005" lon="6.91217">
        <ele>562.3</ele>
        <time>2021-08-10T14:52:41Z</time>
      </trkpt>
      <trkpt lat="47.39" lon="6.91237">
        <ele>562.5</ele>
        <time>2021-08-10T14:52:50Z</time>
      </trkpt>
      <trkpt lat="47.38997" lon="6.91243">
        <ele>562.6</ele>
        <time>2021-08-10T14:52:51Z</time>
      </trkpt>
      <trkpt lat="47.38995" lon="6.91248">
        <ele>562.6</ele>
        <time>2021-08-10T14:52:52Z</time>
      </trkpt>
      <trkpt lat="47.38992" lon="6.91254">
        <ele>562.7</ele>
        <time>2021-08-10T14:52:53Z</time>
      </trkpt>
      <trkpt lat="47.3899" lon="6.91259">
        <ele>562.7</ele>
        <time>2021-08-10T14:52:54Z</time>
      </trkpt>
      <trkpt lat="47.38987" lon="6.91268">
        <ele>562.8</ele>
        <time>2021-08-10T14:52:55Z</time>
      </trkpt>
      <trkpt lat="47.38984" lon="6.91274">
        <ele>562.8</ele>
        <time>2021-08-10T14:52:57Z</time>
      </trkpt>
      <trkpt lat="47.38981" lon="6.91281">
        <ele>562.8</ele>
        <time>2021-08-10T14:52:58Z</time>
      </trkpt>
      <trkpt lat="47.38979" lon="6.91285">
        <ele>562.9</ele>
        <time>2021-08-10T14:52:59Z</time>
      </trkpt>
      <trkpt lat="47.38978" lon="6.91289">
        <ele>562.9</ele>
        <time>2021-08-10T14:53:00Z</time>
      </trkpt>
      <trkpt lat="47.38977" lon="6.91292">
        <ele>562.9</ele>
        <time>2021-08-10T14:53:01Z</time>
      </trkpt>
      <trkpt lat="47.38975" lon="6.91296">
        <ele>562.9</ele>
        <time>2021-08-10T14:53:03Z</time>
      </trkpt>
      <trkpt lat="47.38974" lon="6.91299">
        <ele>563</ele>
        <time>2021-08-10T14:53:04Z</time>
      </trkpt>
      <trkpt lat="47.38972" lon="6.91302">
        <ele>563</ele>
        <time>2021-08-10T14:53:06Z</time>
      </trkpt>
      <trkpt lat="47.38972" lon="6.91307">
        <ele>563</ele>
        <time>2021-08-10T14:53:08Z</time>
      </trkpt>
      <trkpt lat="47.38971" lon="6.9131">
        <ele>563</ele>
        <time>2021-08-10T14:53:09Z</time>
      </trkpt>
      <trkpt lat="47.38971" lon="6.91312">
        <ele>563</ele>
        <time>2021-08-10T14:53:10Z</time>
      </trkpt>
      <trkpt lat="47.3897" lon="6.91316">
        <ele>563.1</ele>
        <time>2021-08-10T14:53:11Z</time>
      </trkpt>
      <trkpt lat="47.3897" lon="6.91317">
        <ele>563.1</ele>
        <time>2021-08-10T14:53:12Z</time>
      </trkpt>
      <trkpt lat="47.3897" lon="6.91323">
        <ele>563.1</ele>
        <time>2021-08-10T14:53:13Z</time>
      </trkpt>
      <trkpt lat="47.38969" lon="6.91328">
        <ele>563.1</ele>
        <time>2021-08-10T14:53:15Z</time>
      </trkpt>
      <trkpt lat="47.38968" lon="6.91332">
        <ele>563.1</ele>
        <time>2021-08-10T14:53:16Z</time>
      </trkpt>
      <trkpt lat="47.38969" lon="6.91339">
        <ele>563.1</ele>
        <time>2021-08-10T14:53:17Z</time>
      </trkpt>
      <trkpt lat="47.38969" lon="6.91342">
        <ele>563.1</ele>
        <time>2021-08-10T14:53:18Z</time>
      </trkpt>
      <trkpt lat="47.38966" lon="6.91345">
        <ele>563.1</ele>
        <time>2021-08-10T14:53:20Z</time>
      </trkpt>
      <trkpt lat="47.38962" lon="6.91348">
        <ele>563.1</ele>
        <time>2021-08-10T14:53:21Z</time>
      </trkpt>
      <trkpt lat="47.38959" lon="6.9135">
        <ele>563.1</ele>
        <time>2021-08-10T14:53:23Z</time>
      </trkpt>
      <trkpt lat="47.38955" lon="6.91353">
        <ele>563</ele>
        <time>2021-08-10T14:53:24Z</time>
      </trkpt>
      <trkpt lat="47.38951" lon="6.91358">
        <ele>563</ele>
        <time>2021-08-10T14:53:26Z</time>
      </trkpt>
      <trkpt lat="47.38948" lon="6.9136">
        <ele>563.1</ele>
        <time>2021-08-10T14:53:27Z</time>
      </trkpt>
      <trkpt lat="47.38946" lon="6.91363">
        <ele>563.1</ele>
        <time>2021-08-10T14:53:28Z</time>
      </trkpt>
      <trkpt lat="47.38945" lon="6.91368">
        <ele>563.2</ele>
        <time>2021-08-10T14:53:30Z</time>
      </trkpt>
      <trkpt lat="47.38942" lon="6.91371">
        <ele>563.2</ele>
        <time>2021-08-10T14:53:31Z</time>
      </trkpt>
      <trkpt lat="47.38938" lon="6.91373">
        <ele>563.3</ele>
        <time>2021-08-10T14:53:32Z</time>
      </trkpt>
      <trkpt lat="47.38938" lon="6.91374">
        <ele>563.4</ele>
        <time>2021-08-10T14:53:33Z</time>
      </trkpt>
      <trkpt lat="47.38936" lon="6.91378">
        <ele>563.4</ele>
        <time>2021-08-10T14:53:35Z</time>
      </trkpt>
      <trkpt lat="47.38934" lon="6.91382">
        <ele>563.6</ele>
        <time>2021-08-10T14:53:36Z</time>
      </trkpt>
      <trkpt lat="47.38933" lon="6.91383">
        <ele>563.6</ele>
        <time>2021-08-10T14:53:37Z</time>
      </trkpt>
      <trkpt lat="47.38932" lon="6.91385">
        <ele>563.7</ele>
        <time>2021-08-10T14:53:38Z</time>
      </trkpt>
      <trkpt lat="47.38932" lon="6.91387">
        <ele>563.7</ele>
        <time>2021-08-10T14:53:39Z</time>
      </trkpt>
      <trkpt lat="47.38932" lon="6.91389">
        <ele>563.8</ele>
        <time>2021-08-10T14:53:40Z</time>
      </trkpt>
      <trkpt lat="47.38931" lon="6.91396">
        <ele>564</ele>
        <time>2021-08-10T14:53:42Z</time>
      </trkpt>
      <trkpt lat="47.3893" lon="6.91398">
        <ele>564.1</ele>
        <time>2021-08-10T14:53:43Z</time>
      </trkpt>
      <trkpt lat="47.3893" lon="6.91403">
        <ele>564.2</ele>
        <time>2021-08-10T14:53:44Z</time>
      </trkpt>
      <trkpt lat="47.3893" lon="6.91408">
        <ele>564.4</ele>
        <time>2021-08-10T14:53:45Z</time>
      </trkpt>
      <trkpt lat="47.38929" lon="6.91413">
        <ele>564.6</ele>
        <time>2021-08-10T14:53:47Z</time>
      </trkpt>
      <trkpt lat="47.38929" lon="6.91414">
        <ele>564.6</ele>
        <time>2021-08-10T14:53:48Z</time>
      </trkpt>
      <trkpt lat="47.38928" lon="6.91418">
        <ele>564.8</ele>
        <time>2021-08-10T14:53:49Z</time>
      </trkpt>
      <trkpt lat="47.38927" lon="6.91422">
        <ele>564.9</ele>
        <time>2021-08-10T14:53:50Z</time>
      </trkpt>
      <trkpt lat="47.38927" lon="6.91424">
        <ele>565.1</ele>
        <time>2021-08-10T14:53:52Z</time>
      </trkpt>
      <trkpt lat="47.38925" lon="6.91429">
        <ele>565.3</ele>
        <time>2021-08-10T14:53:53Z</time>
      </trkpt>
      <trkpt lat="47.38924" lon="6.9143">
        <ele>565.4</ele>
        <time>2021-08-10T14:53:54Z</time>
      </trkpt>
      <trkpt lat="47.38922" lon="6.91432">
        <ele>565.6</ele>
        <time>2021-08-10T14:53:55Z</time>
      </trkpt>
      <trkpt lat="47.3892" lon="6.91433">
        <ele>565.7</ele>
        <time>2021-08-10T14:53:57Z</time>
      </trkpt>
      <trkpt lat="47.38919" lon="6.91434">
        <ele>565.8</ele>
        <time>2021-08-10T14:53:58Z</time>
      </trkpt>
      <trkpt lat="47.38918" lon="6.91435">
        <ele>566</ele>
        <time>2021-08-10T14:53:59Z</time>
      </trkpt>
      <trkpt lat="47.38915" lon="6.91437">
        <ele>566.2</ele>
        <time>2021-08-10T14:54:00Z</time>
      </trkpt>
      <trkpt lat="47.38914" lon="6.91438">
        <ele>566.3</ele>
        <time>2021-08-10T14:54:02Z</time>
      </trkpt>
      <trkpt lat="47.38913" lon="6.91439">
        <ele>566.4</ele>
        <time>2021-08-10T14:54:04Z</time>
      </trkpt>
      <trkpt lat="47.38912" lon="6.9144">
        <ele>566.5</ele>
        <time>2021-08-10T14:54:05Z</time>
      </trkpt>
      <trkpt lat="47.3891" lon="6.91441">
        <ele>566.7</ele>
        <time>2021-08-10T14:54:06Z</time>
      </trkpt>
      <trkpt lat="47.38907" lon="6.91442">
        <ele>567</ele>
        <time>2021-08-10T14:54:08Z</time>
      </trkpt>
      <trkpt lat="47.38905" lon="6.91442">
        <ele>567.2</ele>
        <time>2021-08-10T14:54:09Z</time>
      </trkpt>
      <trkpt lat="47.38902" lon="6.91443">
        <ele>567.4</ele>
        <time>2021-08-10T14:54:11Z</time>
      </trkpt>
      <trkpt lat="47.389" lon="6.91443">
        <ele>567.6</ele>
        <time>2021-08-10T14:54:12Z</time>
      </trkpt>
      <trkpt lat="47.38899" lon="6.91442">
        <ele>567.7</ele>
        <time>2021-08-10T14:54:13Z</time>
      </trkpt>
      <trkpt lat="47.38896" lon="6.91441">
        <ele>568</ele>
        <time>2021-08-10T14:54:15Z</time>
      </trkpt>
      <trkpt lat="47.38895" lon="6.9144">
        <ele>568.1</ele>
        <time>2021-08-10T14:54:16Z</time>
      </trkpt>
      <trkpt lat="47.38894" lon="6.91439">
        <ele>568.2</ele>
        <time>2021-08-10T14:54:17Z</time>
      </trkpt>
      <trkpt lat="47.38893" lon="6.91437">
        <ele>568.4</ele>
        <time>2021-08-10T14:54:18Z</time>
      </trkpt>
      <trkpt lat="47.38891" lon="6.91436">
        <ele>568.6</ele>
        <time>2021-08-10T14:54:20Z</time>
      </trkpt>
      <trkpt lat="47.38891" lon="6.91435">
        <ele>568.7</ele>
        <time>2021-08-10T14:54:21Z</time>
      </trkpt>
      <trkpt lat="47.38891" lon="6.91434">
        <ele>568.7</ele>
        <time>2021-08-10T14:54:22Z</time>
      </trkpt>
      <trkpt lat="47.38891" lon="6.91432">
        <ele>568.8</ele>
        <time>2021-08-10T14:54:23Z</time>
      </trkpt>
      <trkpt lat="47.3889" lon="6.9143">
        <ele>569</ele>
        <time>2021-08-10T14:54:25Z</time>
      </trkpt>
      <trkpt lat="47.38889" lon="6.91429">
        <ele>569.1</ele>
        <time>2021-08-10T14:54:26Z</time>
      </trkpt>
      <trkpt lat="47.38889" lon="6.91428">
        <ele>569.2</ele>
        <time>2021-08-10T14:54:27Z</time>
      </trkpt>
      <trkpt lat="47.38889" lon="6.91426">
        <ele>569.3</ele>
        <time>2021-08-10T14:54:29Z</time>
      </trkpt>
      <trkpt lat="47.38889" lon="6.91425">
        <ele>569.3</ele>
        <time>2021-08-10T14:54:30Z</time>
      </trkpt>
      <trkpt lat="47.38889" lon="6.91424">
        <ele>569.4</ele>
        <time>2021-08-10T14:54:31Z</time>
      </trkpt>
      <trkpt lat="47.3889" lon="6.91424">
        <ele>569.4</ele>
        <time>2021-08-10T14:54:32Z</time>
      </trkpt>
      <trkpt lat="47.3889" lon="6.91423">
        <ele>569.5</ele>
        <time>2021-08-10T14:54:33Z</time>
      </trkpt>
      <trkpt lat="47.3889" lon="6.91422">
        <ele>569.5</ele>
        <time>2021-08-10T14:54:34Z</time>
      </trkpt>
      <trkpt lat="47.3889" lon="6.91421">
        <ele>569.6</ele>
        <time>2021-08-10T14:54:36Z</time>
      </trkpt>
      <trkpt lat="47.38889" lon="6.91419">
        <ele>569.7</ele>
        <time>2021-08-10T14:54:37Z</time>
      </trkpt>
      <trkpt lat="47.38889" lon="6.91418">
        <ele>569.8</ele>
        <time>2021-08-10T14:54:39Z</time>
      </trkpt>
      <trkpt lat="47.38889" lon="6.91417">
        <ele>569.8</ele>
        <time>2021-08-10T14:54:40Z</time>
      </trkpt>
      <trkpt lat="47.38868" lon="6.91418">
        <ele>571.7</ele>
        <time>2021-08-10T14:55:02Z</time>
      </trkpt>
      <trkpt lat="47.38867" lon="6.91418">
        <ele>571.8</ele>
        <time>2021-08-10T14:55:03Z</time>
      </trkpt>
      <trkpt lat="47.38863" lon="6.91418">
        <ele>572.2</ele>
        <time>2021-08-10T14:55:05Z</time>
      </trkpt>
      <trkpt lat="47.3886" lon="6.91418">
        <ele>572.4</ele>
        <time>2021-08-10T14:55:06Z</time>
      </trkpt>
      <trkpt lat="47.38856" lon="6.91415">
        <ele>572.9</ele>
        <time>2021-08-10T14:55:08Z</time>
      </trkpt>
      <trkpt lat="47.38855" lon="6.91414">
        <ele>573</ele>
        <time>2021-08-10T14:55:09Z</time>
      </trkpt>
      <trkpt lat="47.38853" lon="6.91413">
        <ele>573.2</ele>
        <time>2021-08-10T14:55:10Z</time>
      </trkpt>
      <trkpt lat="47.38851" lon="6.91412">
        <ele>573.4</ele>
        <time>2021-08-10T14:55:11Z</time>
      </trkpt>
      <trkpt lat="47.3885" lon="6.91411">
        <ele>573.5</ele>
        <time>2021-08-10T14:55:13Z</time>
      </trkpt>
      <trkpt lat="47.38848" lon="6.9141">
        <ele>573.7</ele>
        <time>2021-08-10T14:55:14Z</time>
      </trkpt>
      <trkpt lat="47.38847" lon="6.9141">
        <ele>573.8</ele>
        <time>2021-08-10T14:55:15Z</time>
      </trkpt>
      <trkpt lat="47.38846" lon="6.9141">
        <ele>573.9</ele>
        <time>2021-08-10T14:55:16Z</time>
      </trkpt>
      <trkpt lat="47.38844" lon="6.9141">
        <ele>574.1</ele>
        <time>2021-08-10T14:55:17Z</time>
      </trkpt>
      <trkpt lat="47.38843" lon="6.9141">
        <ele>574.2</ele>
        <time>2021-08-10T14:55:18Z</time>
      </trkpt>
      <trkpt lat="47.38838" lon="6.91409">
        <ele>574.7</ele>
        <time>2021-08-10T14:55:20Z</time>
      </trkpt>
      <trkpt lat="47.38836" lon="6.91409">
        <ele>574.9</ele>
        <time>2021-08-10T14:55:21Z</time>
      </trkpt>
      <trkpt lat="47.38834" lon="6.91409">
        <ele>575.1</ele>
        <time>2021-08-10T14:55:22Z</time>
      </trkpt>
      <trkpt lat="47.38831" lon="6.91407">
        <ele>575.3</ele>
        <time>2021-08-10T14:55:24Z</time>
      </trkpt>
      <trkpt lat="47.38829" lon="6.91405">
        <ele>575.6</ele>
        <time>2021-08-10T14:55:25Z</time>
      </trkpt>
      <trkpt lat="47.38824" lon="6.91401">
        <ele>576.1</ele>
        <time>2021-08-10T14:55:27Z</time>
      </trkpt>
      <trkpt lat="47.38823" lon="6.91399">
        <ele>576.3</ele>
        <time>2021-08-10T14:55:28Z</time>
      </trkpt>
      <trkpt lat="47.38821" lon="6.91397">
        <ele>576.5</ele>
        <time>2021-08-10T14:55:30Z</time>
      </trkpt>
      <trkpt lat="47.3882" lon="6.91397">
        <ele>576.6</ele>
        <time>2021-08-10T14:55:32Z</time>
      </trkpt>
      <trkpt lat="47.3882" lon="6.91396">
        <ele>576.6</ele>
        <time>2021-08-10T14:55:33Z</time>
      </trkpt>
      <trkpt lat="47.3882" lon="6.91396">
        <ele>576.6</ele>
        <time>2021-08-10T14:55:35Z</time>
      </trkpt>
      <trkpt lat="47.3882" lon="6.91396">
        <ele>576.6</ele>
        <time>2021-08-10T14:55:36Z</time>
      </trkpt>
      <trkpt lat="47.3882" lon="6.91395">
        <ele>576.7</ele>
        <time>2021-08-10T14:55:38Z</time>
      </trkpt>
      <trkpt lat="47.3882" lon="6.91394">
        <ele>576.8</ele>
        <time>2021-08-10T14:55:39Z</time>
      </trkpt>
      <trkpt lat="47.38819" lon="6.91393">
        <ele>576.9</ele>
        <time>2021-08-10T14:55:41Z</time>
      </trkpt>
      <trkpt lat="47.38819" lon="6.91392">
        <ele>576.9</ele>
        <time>2021-08-10T14:55:42Z</time>
      </trkpt>
      <trkpt lat="47.38818" lon="6.9139">
        <ele>577.1</ele>
        <time>2021-08-10T14:55:44Z</time>
      </trkpt>
      <trkpt lat="47.38817" lon="6.91388">
        <ele>577.2</ele>
        <time>2021-08-10T14:55:45Z</time>
      </trkpt>
      <trkpt lat="47.38811" lon="6.9137">
        <ele>578.9</ele>
        <time>2021-08-10T14:55:47Z</time>
      </trkpt>
      <trkpt lat="47.3881" lon="6.91366">
        <ele>579.3</ele>
        <time>2021-08-10T14:55:48Z</time>
      </trkpt>
      <trkpt lat="47.38812" lon="6.91373">
        <ele>580</ele>
        <time>2021-08-10T14:55:49Z</time>
      </trkpt>
      <trkpt lat="47.38783" lon="6.91405">
        <ele>585.8</ele>
        <time>2021-08-10T14:57:31Z</time>
      </trkpt>
      <trkpt lat="47.38783" lon="6.91406">
        <ele>585.9</ele>
        <time>2021-08-10T14:57:32Z</time>
      </trkpt>
      <trkpt lat="47.38782" lon="6.91407">
        <ele>586.1</ele>
        <time>2021-08-10T14:57:33Z</time>
      </trkpt>
      <trkpt lat="47.38781" lon="6.91407">
        <ele>586.3</ele>
        <time>2021-08-10T14:57:35Z</time>
      </trkpt>
      <trkpt lat="47.3878" lon="6.91406">
        <ele>586.5</ele>
        <time>2021-08-10T14:57:37Z</time>
      </trkpt>
      <trkpt lat="47.38779" lon="6.91404">
        <ele>586.6</ele>
        <time>2021-08-10T14:57:38Z</time>
      </trkpt>
      <trkpt lat="47.3878" lon="6.91403">
        <ele>586.8</ele>
        <time>2021-08-10T14:57:39Z</time>
      </trkpt>
      <trkpt lat="47.3878" lon="6.91402">
        <ele>586.9</ele>
        <time>2021-08-10T14:57:40Z</time>
      </trkpt>
      <trkpt lat="47.3878" lon="6.91401">
        <ele>587</ele>
        <time>2021-08-10T14:57:41Z</time>
      </trkpt>
      <trkpt lat="47.3878" lon="6.91399">
        <ele>587.2</ele>
        <time>2021-08-10T14:57:43Z</time>
      </trkpt>
      <trkpt lat="47.38602" lon="6.91178">
        <ele>604.4</ele>
        <time>2021-08-10T15:00:17Z</time>
      </trkpt>
      <trkpt lat="47.386" lon="6.91174">
        <ele>604.5</ele>
        <time>2021-08-10T15:00:18Z</time>
      </trkpt>
      <trkpt lat="47.38598" lon="6.91173">
        <ele>604.6</ele>
        <time>2021-08-10T15:00:19Z</time>
      </trkpt>
      <trkpt lat="47.38596" lon="6.91169">
        <ele>604.8</ele>
        <time>2021-08-10T15:00:20Z</time>
      </trkpt>
      <trkpt lat="47.38593" lon="6.91164">
        <ele>605.1</ele>
        <time>2021-08-10T15:00:21Z</time>
      </trkpt>
      <trkpt lat="47.38591" lon="6.91159">
        <ele>605.3</ele>
        <time>2021-08-10T15:00:23Z</time>
      </trkpt>
      <trkpt lat="47.38589" lon="6.91154">
        <ele>605.5</ele>
        <time>2021-08-10T15:00:24Z</time>
      </trkpt>
      <trkpt lat="47.38588" lon="6.91151">
        <ele>605.6</ele>
        <time>2021-08-10T15:00:26Z</time>
      </trkpt>
      <trkpt lat="47.38587" lon="6.91143">
        <ele>606</ele>
        <time>2021-08-10T15:00:28Z</time>
      </trkpt>
      <trkpt lat="47.38586" lon="6.91142">
        <ele>606</ele>
        <time>2021-08-10T15:00:29Z</time>
      </trkpt>
      <trkpt lat="47.38585" lon="6.91141">
        <ele>606.1</ele>
        <time>2021-08-10T15:00:30Z</time>
      </trkpt>
      <trkpt lat="47.38585" lon="6.91139">
        <ele>606.1</ele>
        <time>2021-08-10T15:00:31Z</time>
      </trkpt>
      <trkpt lat="47.38584" lon="6.91137">
        <ele>606.2</ele>
        <time>2021-08-10T15:00:32Z</time>
      </trkpt>
      <trkpt lat="47.38583" lon="6.91133">
        <ele>606.4</ele>
        <time>2021-08-10T15:00:34Z</time>
      </trkpt>
      <trkpt lat="47.38511" lon="6.91022">
        <ele>611.1</ele>
        <time>2021-08-10T15:01:34Z</time>
      </trkpt>
      <trkpt lat="47.38509" lon="6.91018">
        <ele>611.3</ele>
        <time>2021-08-10T15:01:35Z</time>
      </trkpt>
      <trkpt lat="47.38507" lon="6.91015">
        <ele>611.4</ele>
        <time>2021-08-10T15:01:36Z</time>
      </trkpt>
      <trkpt lat="47.38505" lon="6.91012">
        <ele>611.6</ele>
        <time>2021-08-10T15:01:37Z</time>
      </trkpt>
      <trkpt lat="47.385" lon="6.91009">
        <ele>611.9</ele>
        <time>2021-08-10T15:01:39Z</time>
      </trkpt>
      <trkpt lat="47.38493" lon="6.91006">
        <ele>612.4</ele>
        <time>2021-08-10T15:01:40Z</time>
      </trkpt>
      <trkpt lat="47.38487" lon="6.91003">
        <ele>612.8</ele>
        <time>2021-08-10T15:01:41Z</time>
      </trkpt>
      <trkpt lat="47.38485" lon="6.91001">
        <ele>613</ele>
        <time>2021-08-10T15:01:43Z</time>
      </trkpt>
      <trkpt lat="47.38481" lon="6.90996">
        <ele>613.4</ele>
        <time>2021-08-10T15:01:45Z</time>
      </trkpt>
      <trkpt lat="47.38478" lon="6.90993">
        <ele>613.7</ele>
        <time>2021-08-10T15:01:47Z</time>
      </trkpt>
      <trkpt lat="47.38477" lon="6.90992">
        <ele>613.8</ele>
        <time>2021-08-10T15:01:48Z</time>
      </trkpt>
      <trkpt lat="47.38475" lon="6.90991">
        <ele>614</ele>
        <time>2021-08-10T15:01:49Z</time>
      </trkpt>
      <trkpt lat="47.38473" lon="6.9099">
        <ele>614.2</ele>
        <time>2021-08-10T15:01:51Z</time>
      </trkpt>
      <trkpt lat="47.38471" lon="6.90989">
        <ele>614.4</ele>
        <time>2021-08-10T15:01:52Z</time>
      </trkpt>
      <trkpt lat="47.38467" lon="6.90988">
        <ele>614.7</ele>
        <time>2021-08-10T15:01:54Z</time>
      </trkpt>
      <trkpt lat="47.38465" lon="6.90988">
        <ele>615</ele>
        <time>2021-08-10T15:01:55Z</time>
      </trkpt>
      <trkpt lat="47.38464" lon="6.90988">
        <ele>615.1</ele>
        <time>2021-08-10T15:01:56Z</time>
      </trkpt>
      <trkpt lat="47.38463" lon="6.90987">
        <ele>615.2</ele>
        <time>2021-08-10T15:01:57Z</time>
      </trkpt>
      <trkpt lat="47.38462" lon="6.90988">
        <ele>615.3</ele>
        <time>2021-08-10T15:01:58Z</time>
      </trkpt>
      <trkpt lat="47.3846" lon="6.9099">
        <ele>615.5</ele>
        <time>2021-08-10T15:02:00Z</time>
      </trkpt>
      <trkpt lat="47.38459" lon="6.90991">
        <ele>615.6</ele>
        <time>2021-08-10T15:02:01Z</time>
      </trkpt>
      <trkpt lat="47.38458" lon="6.90992">
        <ele>615.8</ele>
        <time>2021-08-10T15:02:03Z</time>
      </trkpt>
      <trkpt lat="47.38458" lon="6.90993">
        <ele>615.9</ele>
        <time>2021-08-10T15:02:04Z</time>
      </trkpt>
      <trkpt lat="47.38458" lon="6.90994">
        <ele>616</ele>
        <time>2021-08-10T15:02:05Z</time>
      </trkpt>
      <trkpt lat="47.38458" lon="6.90995">
        <ele>616</ele>
        <time>2021-08-10T15:02:06Z</time>
      </trkpt>
      <trkpt lat="47.38458" lon="6.90995">
        <ele>616</ele>
        <time>2021-08-10T15:02:08Z</time>
      </trkpt>
      <trkpt lat="47.38362" lon="6.90738">
        <ele>637.2</ele>
        <time>2021-08-10T15:07:41Z</time>
      </trkpt>
      <trkpt lat="47.38361" lon="6.90737">
        <ele>637.3</ele>
        <time>2021-08-10T15:07:42Z</time>
      </trkpt>
      <trkpt lat="47.38359" lon="6.90736">
        <ele>637.7</ele>
        <time>2021-08-10T15:07:44Z</time>
      </trkpt>
      <trkpt lat="47.38358" lon="6.90736">
        <ele>637.9</ele>
        <time>2021-08-10T15:07:45Z</time>
      </trkpt>
      <trkpt lat="47.38357" lon="6.90737">
        <ele>638</ele>
        <time>2021-08-10T15:07:46Z</time>
      </trkpt>
      <trkpt lat="47.38356" lon="6.90737">
        <ele>638.2</ele>
        <time>2021-08-10T15:07:47Z</time>
      </trkpt>
      <trkpt lat="47.38355" lon="6.90737">
        <ele>638.2</ele>
        <time>2021-08-10T15:07:48Z</time>
      </trkpt>
      <trkpt lat="47.38356" lon="6.90737">
        <ele>638.3</ele>
        <time>2021-08-10T15:07:49Z</time>
      </trkpt>
      <trkpt lat="47.38356" lon="6.90736">
        <ele>638.4</ele>
        <time>2021-08-10T15:07:50Z</time>
      </trkpt>
      <trkpt lat="47.38357" lon="6.90734">
        <ele>638.6</ele>
        <time>2021-08-10T15:07:52Z</time>
      </trkpt>
      <trkpt lat="47.38357" lon="6.90733">
        <ele>638.8</ele>
        <time>2021-08-10T15:07:54Z</time>
      </trkpt>
      <trkpt lat="47.38356" lon="6.90731">
        <ele>639</ele>
        <time>2021-08-10T15:07:55Z</time>
      </trkpt>
      <trkpt lat="47.38349" lon="6.90724">
        <ele>640.1</ele>
        <time>2021-08-10T15:08:00Z</time>
      </trkpt>
      <trkpt lat="47.38344" lon="6.90718">
        <ele>641</ele>
        <time>2021-08-10T15:08:02Z</time>
      </trkpt>
      <trkpt lat="47.38339" lon="6.90712">
        <ele>641.7</ele>
        <time>2021-08-10T15:08:03Z</time>
      </trkpt>
      <trkpt lat="47.38335" lon="6.907">
        <ele>642.9</ele>
        <time>2021-08-10T15:08:05Z</time>
      </trkpt>
      <trkpt lat="47.38334" lon="6.90688">
        <ele>643.9</ele>
        <time>2021-08-10T15:08:06Z</time>
      </trkpt>
      <trkpt lat="47.38333" lon="6.90681">
        <ele>644.5</ele>
        <time>2021-08-10T15:08:08Z</time>
      </trkpt>
      <trkpt lat="47.38336" lon="6.90665">
        <ele>645.5</ele>
        <time>2021-08-10T15:08:09Z</time>
      </trkpt>
      <trkpt lat="47.38337" lon="6.90659">
        <ele>646</ele>
        <time>2021-08-10T15:08:11Z</time>
      </trkpt>
      <trkpt lat="47.38339" lon="6.90655">
        <ele>646.3</ele>
        <time>2021-08-10T15:08:12Z</time>
      </trkpt>
      <trkpt lat="47.3834" lon="6.90649">
        <ele>646.6</ele>
        <time>2021-08-10T15:08:13Z</time>
      </trkpt>
      <trkpt lat="47.38333" lon="6.90647">
        <ele>647.2</ele>
        <time>2021-08-10T15:08:15Z</time>
      </trkpt>
      <trkpt lat="47.38325" lon="6.90646">
        <ele>647.7</ele>
        <time>2021-08-10T15:08:17Z</time>
      </trkpt>
      <trkpt lat="47.38317" lon="6.90646">
        <ele>648.2</ele>
        <time>2021-08-10T15:09:23Z</time>
      </trkpt>
      <trkpt lat="47.38309" lon="6.90646">
        <ele>648.6</ele>
        <time>2021-08-10T15:09:24Z</time>
      </trkpt>
      <trkpt lat="47.38301" lon="6.90646">
        <ele>648.9</ele>
        <time>2021-08-10T15:09:26Z</time>
      </trkpt>
      <trkpt lat="47.38293" lon="6.90646">
        <ele>649.4</ele>
        <time>2021-08-10T15:09:27Z</time>
      </trkpt>
      <trkpt lat="47.38285" lon="6.90646">
        <ele>650</ele>
        <time>2021-08-10T15:09:28Z</time>
      </trkpt>
      <trkpt lat="47.38285" lon="6.90643">
        <ele>650.1</ele>
        <time>2021-08-10T15:09:29Z</time>
      </trkpt>
      <trkpt lat="47.38285" lon="6.90643">
        <ele>650.2</ele>
        <time>2021-08-10T15:09:30Z</time>
      </trkpt>
      <trkpt lat="47.38285" lon="6.90642">
        <ele>650.2</ele>
        <time>2021-08-10T15:09:31Z</time>
      </trkpt>
      <trkpt lat="47.38285" lon="6.90642">
        <ele>650.2</ele>
        <time>2021-08-10T15:09:32Z</time>
      </trkpt>
      <trkpt lat="47.38285" lon="6.90641">
        <ele>650.2</ele>
        <time>2021-08-10T15:09:33Z</time>
      </trkpt>
      <trkpt lat="47.38285" lon="6.9064">
        <ele>650.3</ele>
        <time>2021-08-10T15:09:35Z</time>
      </trkpt>
      <trkpt lat="47.38253" lon="6.90464">
        <ele>669.6</ele>
        <time>2021-08-10T15:14:06Z</time>
      </trkpt>
      <trkpt lat="47.38253" lon="6.90459">
        <ele>670.7</ele>
        <time>2021-08-10T15:14:08Z</time>
      </trkpt>
      <trkpt lat="47.38253" lon="6.90458">
        <ele>670.9</ele>
        <time>2021-08-10T15:14:09Z</time>
      </trkpt>
      <trkpt lat="47.38254" lon="6.90453">
        <ele>671.9</ele>
        <time>2021-08-10T15:14:11Z</time>
      </trkpt>
      <trkpt lat="47.38254" lon="6.90452">
        <ele>672.1</ele>
        <time>2021-08-10T15:14:12Z</time>
      </trkpt>
      <trkpt lat="47.38255" lon="6.90451">
        <ele>672.3</ele>
        <time>2021-08-10T15:14:13Z</time>
      </trkpt>
      <trkpt lat="47.38256" lon="6.90449">
        <ele>672.7</ele>
        <time>2021-08-10T15:14:15Z</time>
      </trkpt>
      <trkpt lat="47.38256" lon="6.90446">
        <ele>673.1</ele>
        <time>2021-08-10T15:14:16Z</time>
      </trkpt>
      <trkpt lat="47.38257" lon="6.90444">
        <ele>673.3</ele>
        <time>2021-08-10T15:14:17Z</time>
      </trkpt>
      <trkpt lat="47.38257" lon="6.90438">
        <ele>673.8</ele>
        <time>2021-08-10T15:14:18Z</time>
      </trkpt>
      <trkpt lat="47.38257" lon="6.90436">
        <ele>673.9</ele>
        <time>2021-08-10T15:14:20Z</time>
      </trkpt>
      <trkpt lat="47.38256" lon="6.90434">
        <ele>674</ele>
        <time>2021-08-10T15:14:22Z</time>
      </trkpt>
      <trkpt lat="47.38256" lon="6.90431">
        <ele>674</ele>
        <time>2021-08-10T15:14:23Z</time>
      </trkpt>
      <trkpt lat="47.38256" lon="6.90426">
        <ele>674.2</ele>
        <time>2021-08-10T15:14:25Z</time>
      </trkpt>
      <trkpt lat="47.38256" lon="6.90425">
        <ele>674.2</ele>
        <time>2021-08-10T15:14:26Z</time>
      </trkpt>
      <trkpt lat="47.38256" lon="6.90422">
        <ele>674.2</ele>
        <time>2021-08-10T15:14:28Z</time>
      </trkpt>
      <trkpt lat="47.38257" lon="6.90417">
        <ele>674.2</ele>
        <time>2021-08-10T15:14:30Z</time>
      </trkpt>
      <trkpt lat="47.38257" lon="6.90414">
        <ele>674.3</ele>
        <time>2021-08-10T15:14:31Z</time>
      </trkpt>
      <trkpt lat="47.38258" lon="6.90408">
        <ele>674.3</ele>
        <time>2021-08-10T15:14:33Z</time>
      </trkpt>
      <trkpt lat="47.38259" lon="6.90402">
        <ele>674.4</ele>
        <time>2021-08-10T15:14:34Z</time>
      </trkpt>
      <trkpt lat="47.38258" lon="6.90398">
        <ele>674.4</ele>
        <time>2021-08-10T15:14:35Z</time>
      </trkpt>
      <trkpt lat="47.38258" lon="6.90393">
        <ele>674.5</ele>
        <time>2021-08-10T15:14:36Z</time>
      </trkpt>
      <trkpt lat="47.38259" lon="6.90387">
        <ele>674.5</ele>
        <time>2021-08-10T15:14:38Z</time>
      </trkpt>
      <trkpt lat="47.38259" lon="6.90383">
        <ele>674.5</ele>
        <time>2021-08-10T15:14:39Z</time>
      </trkpt>
      <trkpt lat="47.38261" lon="6.90377">
        <ele>674.6</ele>
        <time>2021-08-10T15:14:41Z</time>
      </trkpt>
      <trkpt lat="47.38261" lon="6.90375">
        <ele>674.6</ele>
        <time>2021-08-10T15:14:42Z</time>
      </trkpt>
      <trkpt lat="47.38261" lon="6.90373">
        <ele>674.6</ele>
        <time>2021-08-10T15:14:43Z</time>
      </trkpt>
      <trkpt lat="47.38261" lon="6.90371">
        <ele>674.5</ele>
        <time>2021-08-10T15:14:44Z</time>
      </trkpt>
      <trkpt lat="47.38261" lon="6.90369">
        <ele>674.5</ele>
        <time>2021-08-10T15:14:45Z</time>
      </trkpt>
      <trkpt lat="47.38262" lon="6.90364">
        <ele>674.5</ele>
        <time>2021-08-10T15:14:47Z</time>
      </trkpt>
      <trkpt lat="47.38263" lon="6.90362">
        <ele>674.5</ele>
        <time>2021-08-10T15:14:48Z</time>
      </trkpt>
      <trkpt lat="47.38263" lon="6.9036">
        <ele>674.5</ele>
        <time>2021-08-10T15:14:50Z</time>
      </trkpt>
      <trkpt lat="47.38264" lon="6.90359">
        <ele>674.5</ele>
        <time>2021-08-10T15:14:51Z</time>
      </trkpt>
      <trkpt lat="47.38265" lon="6.90358">
        <ele>674.5</ele>
        <time>2021-08-10T15:14:52Z</time>
      </trkpt>
      <trkpt lat="47.38265" lon="6.90356">
        <ele>674.5</ele>
        <time>2021-08-10T15:14:53Z</time>
      </trkpt>
      <trkpt lat="47.38265" lon="6.90355">
        <ele>674.5</ele>
        <time>2021-08-10T15:14:54Z</time>
      </trkpt>
      <trkpt lat="47.38264" lon="6.90353">
        <ele>674.5</ele>
        <time>2021-08-10T15:14:56Z</time>
      </trkpt>
      <trkpt lat="47.38263" lon="6.90353">
        <ele>674.5</ele>
        <time>2021-08-10T15:14:57Z</time>
      </trkpt>
      <trkpt lat="47.38262" lon="6.90352">
        <ele>674.5</ele>
        <time>2021-08-10T15:14:58Z</time>
      </trkpt>
      <trkpt lat="47.3826" lon="6.90351">
        <ele>674.5</ele>
        <time>2021-08-10T15:14:59Z</time>
      </trkpt>
      <trkpt lat="47.38259" lon="6.90351">
        <ele>674.5</ele>
        <time>2021-08-10T15:15:01Z</time>
      </trkpt>
      <trkpt lat="47.38258" lon="6.90349">
        <ele>674.5</ele>
        <time>2021-08-10T15:15:02Z</time>
      </trkpt>
      <trkpt lat="47.38257" lon="6.90348">
        <ele>674.6</ele>
        <time>2021-08-10T15:15:04Z</time>
      </trkpt>
      <trkpt lat="47.38256" lon="6.90339">
        <ele>674.7</ele>
        <time>2021-08-10T15:15:08Z</time>
      </trkpt>
      <trkpt lat="47.38257" lon="6.90334">
        <ele>674.9</ele>
        <time>2021-08-10T15:15:10Z</time>
      </trkpt>
      <trkpt lat="47.3826" lon="6.90329">
        <ele>675</ele>
        <time>2021-08-10T15:15:11Z</time>
      </trkpt>
      <trkpt lat="47.38263" lon="6.90323">
        <ele>675.1</ele>
        <time>2021-08-10T15:15:12Z</time>
      </trkpt>
      <trkpt lat="47.38264" lon="6.90319">
        <ele>675.2</ele>
        <time>2021-08-10T15:15:14Z</time>
      </trkpt>
      <trkpt lat="47.38265" lon="6.90314">
        <ele>675.3</ele>
        <time>2021-08-10T15:15:15Z</time>
      </trkpt>
      <trkpt lat="47.38265" lon="6.90307">
        <ele>675.4</ele>
        <time>2021-08-10T15:15:17Z</time>
      </trkpt>
      <trkpt lat="47.38265" lon="6.90305">
        <ele>675.5</ele>
        <time>2021-08-10T15:15:18Z</time>
      </trkpt>
      <trkpt lat="47.38264" lon="6.90301">
        <ele>675.6</ele>
        <time>2021-08-10T15:15:19Z</time>
      </trkpt>
      <trkpt lat="47.38264" lon="6.90297">
        <ele>675.8</ele>
        <time>2021-08-10T15:15:21Z</time>
      </trkpt>
      <trkpt lat="47.38262" lon="6.90292">
        <ele>675.9</ele>
        <time>2021-08-10T15:15:22Z</time>
      </trkpt>
      <trkpt lat="47.38261" lon="6.90288">
        <ele>676</ele>
        <time>2021-08-10T15:15:23Z</time>
      </trkpt>
      <trkpt lat="47.3826" lon="6.90283">
        <ele>676.2</ele>
        <time>2021-08-10T15:15:24Z</time>
      </trkpt>
      <trkpt lat="47.38259" lon="6.90282">
        <ele>676.2</ele>
        <time>2021-08-10T15:15:25Z</time>
      </trkpt>
      <trkpt lat="47.38259" lon="6.90279">
        <ele>676.3</ele>
        <time>2021-08-10T15:15:26Z</time>
      </trkpt>
      <trkpt lat="47.38257" lon="6.90272">
        <ele>676.4</ele>
        <time>2021-08-10T15:15:28Z</time>
      </trkpt>
      <trkpt lat="47.38257" lon="6.90268">
        <ele>676.4</ele>
        <time>2021-08-10T15:15:29Z</time>
      </trkpt>
      <trkpt lat="47.38257" lon="6.90261">
        <ele>676.5</ele>
        <time>2021-08-10T15:15:31Z</time>
      </trkpt>
      <trkpt lat="47.38257" lon="6.90259">
        <ele>676.6</ele>
        <time>2021-08-10T15:15:32Z</time>
      </trkpt>
      <trkpt lat="47.38256" lon="6.90253">
        <ele>676.6</ele>
        <time>2021-08-10T15:15:33Z</time>
      </trkpt>
      <trkpt lat="47.38256" lon="6.90247">
        <ele>676.8</ele>
        <time>2021-08-10T15:15:35Z</time>
      </trkpt>
      <trkpt lat="47.38255" lon="6.90239">
        <ele>677</ele>
        <time>2021-08-10T15:15:37Z</time>
      </trkpt>
      <trkpt lat="47.38254" lon="6.90233">
        <ele>677.1</ele>
        <time>2021-08-10T15:15:38Z</time>
      </trkpt>
      <trkpt lat="47.38254" lon="6.90229">
        <ele>677.3</ele>
        <time>2021-08-10T15:15:39Z</time>
      </trkpt>
      <trkpt lat="47.38253" lon="6.90225">
        <ele>677.4</ele>
        <time>2021-08-10T15:15:40Z</time>
      </trkpt>
      <trkpt lat="47.38252" lon="6.90216">
        <ele>677.7</ele>
        <time>2021-08-10T15:15:42Z</time>
      </trkpt>
      <trkpt lat="47.38253" lon="6.90208">
        <ele>678</ele>
        <time>2021-08-10T15:15:44Z</time>
      </trkpt>
      <trkpt lat="47.38253" lon="6.90203">
        <ele>678.2</ele>
        <time>2021-08-10T15:15:45Z</time>
      </trkpt>
      <trkpt lat="47.38253" lon="6.90201">
        <ele>678.2</ele>
        <time>2021-08-10T15:15:46Z</time>
      </trkpt>
      <trkpt lat="47.38255" lon="6.90196">
        <ele>678.4</ele>
        <time>2021-08-10T15:15:47Z</time>
      </trkpt>
      <trkpt lat="47.38255" lon="6.90195">
        <ele>678.4</ele>
        <time>2021-08-10T15:15:48Z</time>
      </trkpt>
      <trkpt lat="47.38256" lon="6.9019">
        <ele>678.5</ele>
        <time>2021-08-10T15:15:50Z</time>
      </trkpt>
      <trkpt lat="47.38256" lon="6.90188">
        <ele>678.5</ele>
        <time>2021-08-10T15:15:51Z</time>
      </trkpt>
      <trkpt lat="47.38254" lon="6.90183">
        <ele>678.6</ele>
        <time>2021-08-10T15:15:52Z</time>
      </trkpt>
      <trkpt lat="47.38253" lon="6.90181">
        <ele>678.6</ele>
        <time>2021-08-10T15:15:53Z</time>
      </trkpt>
      <trkpt lat="47.38251" lon="6.90179">
        <ele>678.7</ele>
        <time>2021-08-10T15:15:55Z</time>
      </trkpt>
      <trkpt lat="47.3825" lon="6.90178">
        <ele>678.7</ele>
        <time>2021-08-10T15:15:56Z</time>
      </trkpt>
      <trkpt lat="47.38248" lon="6.90177">
        <ele>678.8</ele>
        <time>2021-08-10T15:15:57Z</time>
      </trkpt>
      <trkpt lat="47.38247" lon="6.90176">
        <ele>678.8</ele>
        <time>2021-08-10T15:15:59Z</time>
      </trkpt>
      <trkpt lat="47.38246" lon="6.90172">
        <ele>678.9</ele>
        <time>2021-08-10T15:16:00Z</time>
      </trkpt>
      <trkpt lat="47.38246" lon="6.9017">
        <ele>679</ele>
        <time>2021-08-10T15:16:01Z</time>
      </trkpt>
      <trkpt lat="47.38245" lon="6.90168">
        <ele>679</ele>
        <time>2021-08-10T15:16:03Z</time>
      </trkpt>
      <trkpt lat="47.38244" lon="6.90166">
        <ele>679.1</ele>
        <time>2021-08-10T15:16:04Z</time>
      </trkpt>
      <trkpt lat="47.38244" lon="6.90161">
        <ele>679.2</ele>
        <time>2021-08-10T15:16:06Z</time>
      </trkpt>
      <trkpt lat="47.38245" lon="6.90156">
        <ele>679.4</ele>
        <time>2021-08-10T15:16:08Z</time>
      </trkpt>
      <trkpt lat="47.38244" lon="6.90151">
        <ele>679.5</ele>
        <time>2021-08-10T15:16:09Z</time>
      </trkpt>
      <trkpt lat="47.38244" lon="6.90148">
        <ele>679.5</ele>
        <time>2021-08-10T15:16:10Z</time>
      </trkpt>
      <trkpt lat="47.38244" lon="6.90146">
        <ele>679.6</ele>
        <time>2021-08-10T15:16:11Z</time>
      </trkpt>
      <trkpt lat="47.38244" lon="6.90143">
        <ele>679.6</ele>
        <time>2021-08-10T15:16:12Z</time>
      </trkpt>
      <trkpt lat="47.38245" lon="6.90141">
        <ele>679.7</ele>
        <time>2021-08-10T15:16:13Z</time>
      </trkpt>
      <trkpt lat="47.38245" lon="6.90138">
        <ele>679.7</ele>
        <time>2021-08-10T15:16:14Z</time>
      </trkpt>
      <trkpt lat="47.38245" lon="6.90135">
        <ele>679.8</ele>
        <time>2021-08-10T15:16:15Z</time>
      </trkpt>
      <trkpt lat="47.38244" lon="6.90129">
        <ele>679.8</ele>
        <time>2021-08-10T15:16:18Z</time>
      </trkpt>
      <trkpt lat="47.38243" lon="6.90124">
        <ele>679.8</ele>
        <time>2021-08-10T15:16:19Z</time>
      </trkpt>
      <trkpt lat="47.38243" lon="6.90118">
        <ele>679.8</ele>
        <time>2021-08-10T15:16:21Z</time>
      </trkpt>
      <trkpt lat="47.38243" lon="6.90112">
        <ele>679.8</ele>
        <time>2021-08-10T15:16:22Z</time>
      </trkpt>
      <trkpt lat="47.38243" lon="6.90106">
        <ele>679.8</ele>
        <time>2021-08-10T15:16:23Z</time>
      </trkpt>
      <trkpt lat="47.38242" lon="6.90096">
        <ele>679.9</ele>
        <time>2021-08-10T15:16:25Z</time>
      </trkpt>
      <trkpt lat="47.38242" lon="6.90089">
        <ele>679.9</ele>
        <time>2021-08-10T15:16:27Z</time>
      </trkpt>
      <trkpt lat="47.38242" lon="6.90083">
        <ele>679.9</ele>
        <time>2021-08-10T15:16:28Z</time>
      </trkpt>
      <trkpt lat="47.38242" lon="6.90078">
        <ele>680</ele>
        <time>2021-08-10T15:16:29Z</time>
      </trkpt>
      <trkpt lat="47.38242" lon="6.90073">
        <ele>680</ele>
        <time>2021-08-10T15:16:30Z</time>
      </trkpt>
      <trkpt lat="47.38242" lon="6.90066">
        <ele>680.2</ele>
        <time>2021-08-10T15:16:32Z</time>
      </trkpt>
      <trkpt lat="47.38238" lon="6.90064">
        <ele>680.3</ele>
        <time>2021-08-10T15:16:33Z</time>
      </trkpt>
      <trkpt lat="47.38235" lon="6.90061">
        <ele>680.5</ele>
        <time>2021-08-10T15:16:35Z</time>
      </trkpt>
      <trkpt lat="47.38234" lon="6.9006">
        <ele>680.6</ele>
        <time>2021-08-10T15:16:36Z</time>
      </trkpt>
      <trkpt lat="47.3823" lon="6.90058">
        <ele>680.8</ele>
        <time>2021-08-10T15:16:37Z</time>
      </trkpt>
      <trkpt lat="47.38229" lon="6.90056">
        <ele>681</ele>
        <time>2021-08-10T15:16:39Z</time>
      </trkpt>
      <trkpt lat="47.38228" lon="6.90054">
        <ele>681.1</ele>
        <time>2021-08-10T15:16:40Z</time>
      </trkpt>
      <trkpt lat="47.3823" lon="6.9005">
        <ele>681.3</ele>
        <time>2021-08-10T15:16:41Z</time>
      </trkpt>
      <trkpt lat="47.38231" lon="6.90049">
        <ele>681.4</ele>
        <time>2021-08-10T15:16:42Z</time>
      </trkpt>
      <trkpt lat="47.38231" lon="6.90047">
        <ele>681.5</ele>
        <time>2021-08-10T15:16:43Z</time>
      </trkpt>
      <trkpt lat="47.38232" lon="6.90045">
        <ele>681.6</ele>
        <time>2021-08-10T15:16:45Z</time>
      </trkpt>
      <trkpt lat="47.38232" lon="6.90043">
        <ele>681.7</ele>
        <time>2021-08-10T15:16:46Z</time>
      </trkpt>
      <trkpt lat="47.38232" lon="6.90042">
        <ele>681.7</ele>
        <time>2021-08-10T15:16:47Z</time>
      </trkpt>
      <trkpt lat="47.38232" lon="6.90041">
        <ele>681.8</ele>
        <time>2021-08-10T15:16:48Z</time>
      </trkpt>
      <trkpt lat="47.38232" lon="6.90038">
        <ele>681.9</ele>
        <time>2021-08-10T15:16:50Z</time>
      </trkpt>
      <trkpt lat="47.38232" lon="6.90038">
        <ele>682</ele>
        <time>2021-08-10T15:16:51Z</time>
      </trkpt>
      <trkpt lat="47.38232" lon="6.90037">
        <ele>682</ele>
        <time>2021-08-10T15:16:52Z</time>
      </trkpt>
      <trkpt lat="47.38233" lon="6.90036">
        <ele>682.1</ele>
        <time>2021-08-10T15:16:54Z</time>
      </trkpt>
      <trkpt lat="47.38234" lon="6.90034">
        <ele>682.2</ele>
        <time>2021-08-10T15:16:56Z</time>
      </trkpt>
      <trkpt lat="47.38234" lon="6.9003">
        <ele>682.3</ele>
        <time>2021-08-10T15:16:58Z</time>
      </trkpt>
      <trkpt lat="47.38234" lon="6.90029">
        <ele>682.3</ele>
        <time>2021-08-10T15:16:59Z</time>
      </trkpt>
      <trkpt lat="47.38235" lon="6.90026">
        <ele>682.4</ele>
        <time>2021-08-10T15:17:01Z</time>
      </trkpt>
      <trkpt lat="47.38235" lon="6.90025">
        <ele>682.5</ele>
        <time>2021-08-10T15:17:02Z</time>
      </trkpt>
      <trkpt lat="47.38234" lon="6.90023">
        <ele>682.5</ele>
        <time>2021-08-10T15:17:03Z</time>
      </trkpt>
      <trkpt lat="47.38234" lon="6.90022">
        <ele>682.6</ele>
        <time>2021-08-10T15:17:04Z</time>
      </trkpt>
      <trkpt lat="47.38232" lon="6.90016">
        <ele>682.7</ele>
        <time>2021-08-10T15:17:07Z</time>
      </trkpt>
      <trkpt lat="47.38231" lon="6.90011">
        <ele>682.7</ele>
        <time>2021-08-10T15:17:09Z</time>
      </trkpt>
      <trkpt lat="47.3823" lon="6.90006">
        <ele>682.8</ele>
        <time>2021-08-10T15:17:10Z</time>
      </trkpt>
      <trkpt lat="47.3823" lon="6.90004">
        <ele>682.8</ele>
        <time>2021-08-10T15:17:11Z</time>
      </trkpt>
      <trkpt lat="47.38229" lon="6.90001">
        <ele>682.7</ele>
        <time>2021-08-10T15:17:12Z</time>
      </trkpt>
      <trkpt lat="47.38228" lon="6.89995">
        <ele>682.7</ele>
        <time>2021-08-10T15:17:13Z</time>
      </trkpt>
      <trkpt lat="47.38228" lon="6.89993">
        <ele>682.7</ele>
        <time>2021-08-10T15:17:14Z</time>
      </trkpt>
      <trkpt lat="47.38227" lon="6.89986">
        <ele>682.5</ele>
        <time>2021-08-10T15:17:16Z</time>
      </trkpt>
      <trkpt lat="47.38226" lon="6.89981">
        <ele>682.4</ele>
        <time>2021-08-10T15:17:17Z</time>
      </trkpt>
      <trkpt lat="47.38226" lon="6.89975">
        <ele>682.2</ele>
        <time>2021-08-10T15:17:18Z</time>
      </trkpt>
      <trkpt lat="47.38226" lon="6.89965">
        <ele>681.8</ele>
        <time>2021-08-10T15:17:20Z</time>
      </trkpt>
      <trkpt lat="47.38226" lon="6.89957">
        <ele>681.5</ele>
        <time>2021-08-10T15:17:21Z</time>
      </trkpt>
      <trkpt lat="47.38226" lon="6.89947">
        <ele>681</ele>
        <time>2021-08-10T15:17:22Z</time>
      </trkpt>
      <trkpt lat="47.38225" lon="6.89939">
        <ele>680.6</ele>
        <time>2021-08-10T15:17:24Z</time>
      </trkpt>
      <trkpt lat="47.38225" lon="6.89928">
        <ele>680.2</ele>
        <time>2021-08-10T15:17:25Z</time>
      </trkpt>
      <trkpt lat="47.38225" lon="6.89922">
        <ele>679.9</ele>
        <time>2021-08-10T15:17:26Z</time>
      </trkpt>
      <trkpt lat="47.38225" lon="6.89913">
        <ele>679.5</ele>
        <time>2021-08-10T15:17:28Z</time>
      </trkpt>
      <trkpt lat="47.38225" lon="6.89907">
        <ele>679.3</ele>
        <time>2021-08-10T15:17:29Z</time>
      </trkpt>
      <trkpt lat="47.38226" lon="6.89901">
        <ele>679</ele>
        <time>2021-08-10T15:17:30Z</time>
      </trkpt>
      <trkpt lat="47.38227" lon="6.89892">
        <ele>678.6</ele>
        <time>2021-08-10T15:17:31Z</time>
      </trkpt>
      <trkpt lat="47.38226" lon="6.89884">
        <ele>678.2</ele>
        <time>2021-08-10T15:17:33Z</time>
      </trkpt>
      <trkpt lat="47.38226" lon="6.8987">
        <ele>677.7</ele>
        <time>2021-08-10T15:17:35Z</time>
      </trkpt>
      <trkpt lat="47.38226" lon="6.89864">
        <ele>677.4</ele>
        <time>2021-08-10T15:17:36Z</time>
      </trkpt>
      <trkpt lat="47.38226" lon="6.89859">
        <ele>677.3</ele>
        <time>2021-08-10T15:17:37Z</time>
      </trkpt>
      <trkpt lat="47.38231" lon="6.89849">
        <ele>677</ele>
        <time>2021-08-10T15:17:39Z</time>
      </trkpt>
      <trkpt lat="47.38234" lon="6.89844">
        <ele>676.8</ele>
        <time>2021-08-10T15:17:40Z</time>
      </trkpt>
      <trkpt lat="47.38236" lon="6.89839">
        <ele>676.7</ele>
        <time>2021-08-10T15:17:41Z</time>
      </trkpt>
      <trkpt lat="47.38237" lon="6.89834">
        <ele>676.5</ele>
        <time>2021-08-10T15:17:42Z</time>
      </trkpt>
      <trkpt lat="47.38237" lon="6.89828">
        <ele>676.3</ele>
        <time>2021-08-10T15:17:43Z</time>
      </trkpt>
      <trkpt lat="47.38238" lon="6.89823">
        <ele>676.1</ele>
        <time>2021-08-10T15:17:44Z</time>
      </trkpt>
      <trkpt lat="47.38239" lon="6.89813">
        <ele>675.7</ele>
        <time>2021-08-10T15:17:46Z</time>
      </trkpt>
      <trkpt lat="47.38238" lon="6.89808">
        <ele>675.5</ele>
        <time>2021-08-10T15:17:47Z</time>
      </trkpt>
      <trkpt lat="47.38238" lon="6.89801">
        <ele>675</ele>
        <time>2021-08-10T15:17:49Z</time>
      </trkpt>
      <trkpt lat="47.38238" lon="6.89801">
        <ele>675</ele>
        <time>2021-08-10T15:17:50Z</time>
      </trkpt>
      <trkpt lat="47.38235" lon="6.89795">
        <ele>674.6</ele>
        <time>2021-08-10T15:17:52Z</time>
      </trkpt>
      <trkpt lat="47.38232" lon="6.8979">
        <ele>674.2</ele>
        <time>2021-08-10T15:17:53Z</time>
      </trkpt>
      <trkpt lat="47.38232" lon="6.89784">
        <ele>673.8</ele>
        <time>2021-08-10T15:17:55Z</time>
      </trkpt>
      <trkpt lat="47.38233" lon="6.89781">
        <ele>673.7</ele>
        <time>2021-08-10T15:17:56Z</time>
      </trkpt>
      <trkpt lat="47.38234" lon="6.89777">
        <ele>673.5</ele>
        <time>2021-08-10T15:17:57Z</time>
      </trkpt>
      <trkpt lat="47.38235" lon="6.89774">
        <ele>673.3</ele>
        <time>2021-08-10T15:17:59Z</time>
      </trkpt>
      <trkpt lat="47.38207" lon="6.89654">
        <ele>675</ele>
        <time>2021-08-10T15:18:46Z</time>
      </trkpt>
      <trkpt lat="47.38208" lon="6.89652">
        <ele>675.1</ele>
        <time>2021-08-10T15:18:47Z</time>
      </trkpt>
      <trkpt lat="47.38208" lon="6.89651">
        <ele>675.1</ele>
        <time>2021-08-10T15:18:48Z</time>
      </trkpt>
      <trkpt lat="47.38209" lon="6.89649">
        <ele>675.2</ele>
        <time>2021-08-10T15:18:49Z</time>
      </trkpt>
      <trkpt lat="47.38209" lon="6.89647">
        <ele>675.3</ele>
        <time>2021-08-10T15:18:50Z</time>
      </trkpt>
      <trkpt lat="47.3821" lon="6.89644">
        <ele>675.5</ele>
        <time>2021-08-10T15:18:52Z</time>
      </trkpt>
      <trkpt lat="47.3821" lon="6.89642">
        <ele>675.6</ele>
        <time>2021-08-10T15:18:54Z</time>
      </trkpt>
      <trkpt lat="47.3821" lon="6.8964">
        <ele>675.7</ele>
        <time>2021-08-10T15:18:55Z</time>
      </trkpt>
      <trkpt lat="47.3821" lon="6.89638">
        <ele>675.8</ele>
        <time>2021-08-10T15:18:56Z</time>
      </trkpt>
      <trkpt lat="47.38209" lon="6.89636">
        <ele>675.9</ele>
        <time>2021-08-10T15:18:58Z</time>
      </trkpt>
      <trkpt lat="47.38193" lon="6.89568">
        <ele>678.6</ele>
        <time>2021-08-10T15:19:39Z</time>
      </trkpt>
      <trkpt lat="47.38192" lon="6.89563">
        <ele>678.6</ele>
        <time>2021-08-10T15:19:40Z</time>
      </trkpt>
      <trkpt lat="47.38191" lon="6.89555">
        <ele>678.7</ele>
        <time>2021-08-10T15:19:41Z</time>
      </trkpt>
      <trkpt lat="47.3819" lon="6.89551">
        <ele>678.7</ele>
        <time>2021-08-10T15:19:43Z</time>
      </trkpt>
      <trkpt lat="47.38188" lon="6.89549">
        <ele>678.8</ele>
        <time>2021-08-10T15:19:44Z</time>
      </trkpt>
      <trkpt lat="47.38184" lon="6.89546">
        <ele>678.9</ele>
        <time>2021-08-10T15:19:46Z</time>
      </trkpt>
      <trkpt lat="47.38182" lon="6.89543">
        <ele>679.1</ele>
        <time>2021-08-10T15:19:47Z</time>
      </trkpt>
      <trkpt lat="47.3818" lon="6.89539">
        <ele>679.3</ele>
        <time>2021-08-10T15:19:49Z</time>
      </trkpt>
      <trkpt lat="47.38179" lon="6.89534">
        <ele>679.6</ele>
        <time>2021-08-10T15:19:50Z</time>
      </trkpt>
      <trkpt lat="47.38179" lon="6.89532">
        <ele>679.7</ele>
        <time>2021-08-10T15:19:51Z</time>
      </trkpt>
      <trkpt lat="47.38178" lon="6.89528">
        <ele>680.1</ele>
        <time>2021-08-10T15:19:53Z</time>
      </trkpt>
      <trkpt lat="47.38178" lon="6.89527">
        <ele>680.1</ele>
        <time>2021-08-10T15:19:54Z</time>
      </trkpt>
      <trkpt lat="47.38177" lon="6.89527">
        <ele>680.2</ele>
        <time>2021-08-10T15:19:56Z</time>
      </trkpt>
      <trkpt lat="47.38177" lon="6.89526">
        <ele>680.2</ele>
        <time>2021-08-10T15:19:57Z</time>
      </trkpt>
      <trkpt lat="47.38177" lon="6.89525">
        <ele>680.3</ele>
        <time>2021-08-10T15:19:58Z</time>
      </trkpt>
      <trkpt lat="47.38176" lon="6.89525">
        <ele>680.3</ele>
        <time>2021-08-10T15:19:59Z</time>
      </trkpt>
      <trkpt lat="47.38176" lon="6.89524">
        <ele>680.4</ele>
        <time>2021-08-10T15:20:01Z</time>
      </trkpt>
      <trkpt lat="47.38176" lon="6.89524">
        <ele>680.4</ele>
        <time>2021-08-10T15:20:02Z</time>
      </trkpt>
      <trkpt lat="47.38175" lon="6.8952">
        <ele>680.3</ele>
        <time>2021-08-10T15:20:03Z</time>
      </trkpt>
      <trkpt lat="47.38175" lon="6.89519">
        <ele>680.3</ele>
        <time>2021-08-10T15:20:05Z</time>
      </trkpt>
      <trkpt lat="47.38175" lon="6.89518">
        <ele>680.3</ele>
        <time>2021-08-10T15:20:06Z</time>
      </trkpt>
      <trkpt lat="47.38175" lon="6.89516">
        <ele>680.3</ele>
        <time>2021-08-10T15:20:07Z</time>
      </trkpt>
      <trkpt lat="47.38176" lon="6.89513">
        <ele>680.3</ele>
        <time>2021-08-10T15:20:08Z</time>
      </trkpt>
      <trkpt lat="47.38176" lon="6.89511">
        <ele>680.2</ele>
        <time>2021-08-10T15:20:10Z</time>
      </trkpt>
      <trkpt lat="47.38177" lon="6.89508">
        <ele>680.2</ele>
        <time>2021-08-10T15:20:12Z</time>
      </trkpt>
      <trkpt lat="47.38173" lon="6.89454">
        <ele>679.6</ele>
        <time>2021-08-10T15:20:51Z</time>
      </trkpt>
      <trkpt lat="47.38175" lon="6.89451">
        <ele>679.7</ele>
        <time>2021-08-10T15:20:52Z</time>
      </trkpt>
      <trkpt lat="47.38176" lon="6.89447">
        <ele>679.8</ele>
        <time>2021-08-10T15:20:53Z</time>
      </trkpt>
      <trkpt lat="47.38176" lon="6.89444">
        <ele>679.9</ele>
        <time>2021-08-10T15:20:54Z</time>
      </trkpt>
      <trkpt lat="47.38175" lon="6.8944">
        <ele>680</ele>
        <time>2021-08-10T15:20:56Z</time>
      </trkpt>
      <trkpt lat="47.38175" lon="6.89434">
        <ele>680.2</ele>
        <time>2021-08-10T15:20:58Z</time>
      </trkpt>
      <trkpt lat="47.38175" lon="6.89431">
        <ele>680.2</ele>
        <time>2021-08-10T15:20:59Z</time>
      </trkpt>
      <trkpt lat="47.38175" lon="6.89429">
        <ele>680.3</ele>
        <time>2021-08-10T15:21:00Z</time>
      </trkpt>
      <trkpt lat="47.38175" lon="6.89424">
        <ele>680.4</ele>
        <time>2021-08-10T15:21:01Z</time>
      </trkpt>
      <trkpt lat="47.38174" lon="6.89422">
        <ele>680.5</ele>
        <time>2021-08-10T15:21:02Z</time>
      </trkpt>
      <trkpt lat="47.38173" lon="6.89417">
        <ele>680.6</ele>
        <time>2021-08-10T15:21:04Z</time>
      </trkpt>
      <trkpt lat="47.38173" lon="6.89415">
        <ele>680.6</ele>
        <time>2021-08-10T15:21:05Z</time>
      </trkpt>
      <trkpt lat="47.38172" lon="6.89411">
        <ele>680.7</ele>
        <time>2021-08-10T15:21:07Z</time>
      </trkpt>
      <trkpt lat="47.38171" lon="6.8941">
        <ele>680.8</ele>
        <time>2021-08-10T15:21:08Z</time>
      </trkpt>
      <trkpt lat="47.3817" lon="6.89408">
        <ele>680.8</ele>
        <time>2021-08-10T15:21:10Z</time>
      </trkpt>
      <trkpt lat="47.38169" lon="6.89407">
        <ele>680.8</ele>
        <time>2021-08-10T15:21:11Z</time>
      </trkpt>
      <trkpt lat="47.38167" lon="6.89402">
        <ele>680.9</ele>
        <time>2021-08-10T15:21:13Z</time>
      </trkpt>
      <trkpt lat="47.38166" lon="6.894">
        <ele>680.9</ele>
        <time>2021-08-10T15:21:14Z</time>
      </trkpt>
      <trkpt lat="47.38164" lon="6.89398">
        <ele>680.9</ele>
        <time>2021-08-10T15:21:15Z</time>
      </trkpt>
      <trkpt lat="47.38161" lon="6.89394">
        <ele>681</ele>
        <time>2021-08-10T15:21:17Z</time>
      </trkpt>
      <trkpt lat="47.38158" lon="6.8939">
        <ele>681</ele>
        <time>2021-08-10T15:21:18Z</time>
      </trkpt>
      <trkpt lat="47.38156" lon="6.89386">
        <ele>681.1</ele>
        <time>2021-08-10T15:21:20Z</time>
      </trkpt>
      <trkpt lat="47.38153" lon="6.89382">
        <ele>681.1</ele>
        <time>2021-08-10T15:21:21Z</time>
      </trkpt>
      <trkpt lat="47.38151" lon="6.89379">
        <ele>681.2</ele>
        <time>2021-08-10T15:21:22Z</time>
      </trkpt>
      <trkpt lat="47.3815" lon="6.89376">
        <ele>681.2</ele>
        <time>2021-08-10T15:21:24Z</time>
      </trkpt>
      <trkpt lat="47.38149" lon="6.89374">
        <ele>681.2</ele>
        <time>2021-08-10T15:21:26Z</time>
      </trkpt>
      <trkpt lat="47.38145" lon="6.89369">
        <ele>681.3</ele>
        <time>2021-08-10T15:21:28Z</time>
      </trkpt>
      <trkpt lat="47.38141" lon="6.89366">
        <ele>681.4</ele>
        <time>2021-08-10T15:21:29Z</time>
      </trkpt>
      <trkpt lat="47.38138" lon="6.89365">
        <ele>681.4</ele>
        <time>2021-08-10T15:21:31Z</time>
      </trkpt>
      <trkpt lat="47.38137" lon="6.89365">
        <ele>681.5</ele>
        <time>2021-08-10T15:21:32Z</time>
      </trkpt>
      <trkpt lat="47.38135" lon="6.89364">
        <ele>681.5</ele>
        <time>2021-08-10T15:21:33Z</time>
      </trkpt>
      <trkpt lat="47.38134" lon="6.89364">
        <ele>681.6</ele>
        <time>2021-08-10T15:21:34Z</time>
      </trkpt>
      <trkpt lat="47.38133" lon="6.89363">
        <ele>681.6</ele>
        <time>2021-08-10T15:21:35Z</time>
      </trkpt>
      <trkpt lat="47.38132" lon="6.89363">
        <ele>681.6</ele>
        <time>2021-08-10T15:21:36Z</time>
      </trkpt>
      <trkpt lat="47.38132" lon="6.89362">
        <ele>681.7</ele>
        <time>2021-08-10T15:21:37Z</time>
      </trkpt>
      <trkpt lat="47.38109" lon="6.89307">
        <ele>683.5</ele>
        <time>2021-08-10T15:23:09Z</time>
      </trkpt>
      <trkpt lat="47.38108" lon="6.89304">
        <ele>683.5</ele>
        <time>2021-08-10T15:23:10Z</time>
      </trkpt>
      <trkpt lat="47.38105" lon="6.893">
        <ele>683.7</ele>
        <time>2021-08-10T15:23:12Z</time>
      </trkpt>
      <trkpt lat="47.38104" lon="6.89298">
        <ele>683.7</ele>
        <time>2021-08-10T15:23:13Z</time>
      </trkpt>
      <trkpt lat="47.38104" lon="6.89297">
        <ele>683.8</ele>
        <time>2021-08-10T15:23:15Z</time>
      </trkpt>
      <trkpt lat="47.38103" lon="6.89295">
        <ele>683.8</ele>
        <time>2021-08-10T15:23:16Z</time>
      </trkpt>
      <trkpt lat="47.38103" lon="6.89293">
        <ele>683.8</ele>
        <time>2021-08-10T15:23:17Z</time>
      </trkpt>
      <trkpt lat="47.38102" lon="6.89291">
        <ele>683.9</ele>
        <time>2021-08-10T15:23:18Z</time>
      </trkpt>
      <trkpt lat="47.38101" lon="6.89289">
        <ele>684</ele>
        <time>2021-08-10T15:23:19Z</time>
      </trkpt>
      <trkpt lat="47.381" lon="6.89288">
        <ele>684</ele>
        <time>2021-08-10T15:23:21Z</time>
      </trkpt>
      <trkpt lat="47.38099" lon="6.89287">
        <ele>684</ele>
        <time>2021-08-10T15:23:22Z</time>
      </trkpt>
      <trkpt lat="47.38097" lon="6.89286">
        <ele>684</ele>
        <time>2021-08-10T15:23:23Z</time>
      </trkpt>
      <trkpt lat="47.38095" lon="6.89285">
        <ele>684.1</ele>
        <time>2021-08-10T15:23:25Z</time>
      </trkpt>
      <trkpt lat="47.38093" lon="6.89281">
        <ele>684.1</ele>
        <time>2021-08-10T15:23:26Z</time>
      </trkpt>
      <trkpt lat="47.38092" lon="6.89279">
        <ele>684.1</ele>
        <time>2021-08-10T15:23:27Z</time>
      </trkpt>
      <trkpt lat="47.38092" lon="6.89276">
        <ele>684.1</ele>
        <time>2021-08-10T15:23:29Z</time>
      </trkpt>
      <trkpt lat="47.38091" lon="6.89273">
        <ele>684.1</ele>
        <time>2021-08-10T15:23:30Z</time>
      </trkpt>
      <trkpt lat="47.38091" lon="6.8927">
        <ele>684.2</ele>
        <time>2021-08-10T15:23:31Z</time>
      </trkpt>
      <trkpt lat="47.3809" lon="6.89267">
        <ele>684.2</ele>
        <time>2021-08-10T15:23:33Z</time>
      </trkpt>
      <trkpt lat="47.38089" lon="6.89265">
        <ele>684.2</ele>
        <time>2021-08-10T15:23:34Z</time>
      </trkpt>
      <trkpt lat="47.38089" lon="6.89262">
        <ele>684.2</ele>
        <time>2021-08-10T15:23:35Z</time>
      </trkpt>
      <trkpt lat="47.38088" lon="6.89259">
        <ele>684.2</ele>
        <time>2021-08-10T15:23:36Z</time>
      </trkpt>
      <trkpt lat="47.38088" lon="6.89256">
        <ele>684.2</ele>
        <time>2021-08-10T15:23:37Z</time>
      </trkpt>
      <trkpt lat="47.38087" lon="6.89254">
        <ele>684.2</ele>
        <time>2021-08-10T15:23:39Z</time>
      </trkpt>
      <trkpt lat="47.38087" lon="6.89251">
        <ele>684.2</ele>
        <time>2021-08-10T15:23:41Z</time>
      </trkpt>
      <trkpt lat="47.38086" lon="6.89248">
        <ele>684.2</ele>
        <time>2021-08-10T15:23:43Z</time>
      </trkpt>
      <trkpt lat="47.38085" lon="6.89245">
        <ele>684.2</ele>
        <time>2021-08-10T15:23:45Z</time>
      </trkpt>
      <trkpt lat="47.38085" lon="6.89243">
        <ele>684.2</ele>
        <time>2021-08-10T15:23:46Z</time>
      </trkpt>
      <trkpt lat="47.38084" lon="6.8924">
        <ele>684.2</ele>
        <time>2021-08-10T15:23:47Z</time>
      </trkpt>
      <trkpt lat="47.38084" lon="6.89237">
        <ele>684.2</ele>
        <time>2021-08-10T15:24:02Z</time>
      </trkpt>
      <trkpt lat="47.38083" lon="6.89234">
        <ele>684.2</ele>
        <time>2021-08-10T15:24:03Z</time>
      </trkpt>
      <trkpt lat="47.38081" lon="6.89225">
        <ele>684.2</ele>
        <time>2021-08-10T15:24:05Z</time>
      </trkpt>
      <trkpt lat="47.3808" lon="6.8922">
        <ele>684.2</ele>
        <time>2021-08-10T15:24:06Z</time>
      </trkpt>
      <trkpt lat="47.38078" lon="6.89215">
        <ele>684.2</ele>
        <time>2021-08-10T15:24:07Z</time>
      </trkpt>
      <trkpt lat="47.38076" lon="6.8921">
        <ele>684.1</ele>
        <time>2021-08-10T15:24:08Z</time>
      </trkpt>
      <trkpt lat="47.38074" lon="6.89205">
        <ele>684</ele>
        <time>2021-08-10T15:24:10Z</time>
      </trkpt>
      <trkpt lat="47.38072" lon="6.89201">
        <ele>683.9</ele>
        <time>2021-08-10T15:24:11Z</time>
      </trkpt>
      <trkpt lat="47.38069" lon="6.89196">
        <ele>683.8</ele>
        <time>2021-08-10T15:24:13Z</time>
      </trkpt>
      <trkpt lat="47.38067" lon="6.89192">
        <ele>683.8</ele>
        <time>2021-08-10T15:24:14Z</time>
      </trkpt>
      <trkpt lat="47.38065" lon="6.8919">
        <ele>683.7</ele>
        <time>2021-08-10T15:24:15Z</time>
      </trkpt>
      <trkpt lat="47.38062" lon="6.89186">
        <ele>683.7</ele>
        <time>2021-08-10T15:24:17Z</time>
      </trkpt>
      <trkpt lat="47.38057" lon="6.89182">
        <ele>683.7</ele>
        <time>2021-08-10T15:24:19Z</time>
      </trkpt>
      <trkpt lat="47.38055" lon="6.8918">
        <ele>683.6</ele>
        <time>2021-08-10T15:24:20Z</time>
      </trkpt>
      <trkpt lat="47.38053" lon="6.89177">
        <ele>683.6</ele>
        <time>2021-08-10T15:24:22Z</time>
      </trkpt>
      <trkpt lat="47.38052" lon="6.89173">
        <ele>683.6</ele>
        <time>2021-08-10T15:24:23Z</time>
      </trkpt>
      <trkpt lat="47.38052" lon="6.89171">
        <ele>683.6</ele>
        <time>2021-08-10T15:24:24Z</time>
      </trkpt>
      <trkpt lat="47.38051" lon="6.89167">
        <ele>683.6</ele>
        <time>2021-08-10T15:24:25Z</time>
      </trkpt>
      <trkpt lat="47.3805" lon="6.89164">
        <ele>683.6</ele>
        <time>2021-08-10T15:24:26Z</time>
      </trkpt>
      <trkpt lat="47.38048" lon="6.8916">
        <ele>683.6</ele>
        <time>2021-08-10T15:24:28Z</time>
      </trkpt>
      <trkpt lat="47.38046" lon="6.89156">
        <ele>683.6</ele>
        <time>2021-08-10T15:24:29Z</time>
      </trkpt>
      <trkpt lat="47.38045" lon="6.89155">
        <ele>683.6</ele>
        <time>2021-08-10T15:24:30Z</time>
      </trkpt>
      <trkpt lat="47.38044" lon="6.89152">
        <ele>683.5</ele>
        <time>2021-08-10T15:24:31Z</time>
      </trkpt>
      <trkpt lat="47.38042" lon="6.89148">
        <ele>683.5</ele>
        <time>2021-08-10T15:24:33Z</time>
      </trkpt>
      <trkpt lat="47.38042" lon="6.89145">
        <ele>683.5</ele>
        <time>2021-08-10T15:24:34Z</time>
      </trkpt>
      <trkpt lat="47.38039" lon="6.89139">
        <ele>683.5</ele>
        <time>2021-08-10T15:24:37Z</time>
      </trkpt>
      <trkpt lat="47.38037" lon="6.89134">
        <ele>683.5</ele>
        <time>2021-08-10T15:24:39Z</time>
      </trkpt>
      <trkpt lat="47.38036" lon="6.89133">
        <ele>683.5</ele>
        <time>2021-08-10T15:24:40Z</time>
      </trkpt>
      <trkpt lat="47.38034" lon="6.89129">
        <ele>683.5</ele>
        <time>2021-08-10T15:24:42Z</time>
      </trkpt>
      <trkpt lat="47.38033" lon="6.89125">
        <ele>683.5</ele>
        <time>2021-08-10T15:24:43Z</time>
      </trkpt>
      <trkpt lat="47.38033" lon="6.89122">
        <ele>683.5</ele>
        <time>2021-08-10T15:24:45Z</time>
      </trkpt>
      <trkpt lat="47.38032" lon="6.89117">
        <ele>683.5</ele>
        <time>2021-08-10T15:24:46Z</time>
      </trkpt>
      <trkpt lat="47.38031" lon="6.89116">
        <ele>683.5</ele>
        <time>2021-08-10T15:24:47Z</time>
      </trkpt>
      <trkpt lat="47.3803" lon="6.89111">
        <ele>683.5</ele>
        <time>2021-08-10T15:24:48Z</time>
      </trkpt>
      <trkpt lat="47.3803" lon="6.8911">
        <ele>683.5</ele>
        <time>2021-08-10T15:24:49Z</time>
      </trkpt>
      <trkpt lat="47.38028" lon="6.89105">
        <ele>683.5</ele>
        <time>2021-08-10T15:24:51Z</time>
      </trkpt>
      <trkpt lat="47.38028" lon="6.89104">
        <ele>683.5</ele>
        <time>2021-08-10T15:24:52Z</time>
      </trkpt>
      <trkpt lat="47.38027" lon="6.89099">
        <ele>683.5</ele>
        <time>2021-08-10T15:24:53Z</time>
      </trkpt>
      <trkpt lat="47.38027" lon="6.89098">
        <ele>683.5</ele>
        <time>2021-08-10T15:24:54Z</time>
      </trkpt>
      <trkpt lat="47.38026" lon="6.89093">
        <ele>683.5</ele>
        <time>2021-08-10T15:24:55Z</time>
      </trkpt>
      <trkpt lat="47.38025" lon="6.89092">
        <ele>683.5</ele>
        <time>2021-08-10T15:24:56Z</time>
      </trkpt>
      <trkpt lat="47.38024" lon="6.89089">
        <ele>683.5</ele>
        <time>2021-08-10T15:24:57Z</time>
      </trkpt>
      <trkpt lat="47.38024" lon="6.89085">
        <ele>683.5</ele>
        <time>2021-08-10T15:24:59Z</time>
      </trkpt>
      <trkpt lat="47.38022" lon="6.89081">
        <ele>683.5</ele>
        <time>2021-08-10T15:25:00Z</time>
      </trkpt>
      <trkpt lat="47.38022" lon="6.89079">
        <ele>683.5</ele>
        <time>2021-08-10T15:25:01Z</time>
      </trkpt>
      <trkpt lat="47.38021" lon="6.89075">
        <ele>683.5</ele>
        <time>2021-08-10T15:25:02Z</time>
      </trkpt>
      <trkpt lat="47.38021" lon="6.89073">
        <ele>683.6</ele>
        <time>2021-08-10T15:25:03Z</time>
      </trkpt>
      <trkpt lat="47.38021" lon="6.8907">
        <ele>683.6</ele>
        <time>2021-08-10T15:25:04Z</time>
      </trkpt>
      <trkpt lat="47.38019" lon="6.89067">
        <ele>683.6</ele>
        <time>2021-08-10T15:25:06Z</time>
      </trkpt>
      <trkpt lat="47.38018" lon="6.89063">
        <ele>683.7</ele>
        <time>2021-08-10T15:25:07Z</time>
      </trkpt>
      <trkpt lat="47.38017" lon="6.89062">
        <ele>683.7</ele>
        <time>2021-08-10T15:25:08Z</time>
      </trkpt>
      <trkpt lat="47.38017" lon="6.89058">
        <ele>683.7</ele>
        <time>2021-08-10T15:25:09Z</time>
      </trkpt>
      <trkpt lat="47.38016" lon="6.89055">
        <ele>683.7</ele>
        <time>2021-08-10T15:25:11Z</time>
      </trkpt>
      <trkpt lat="47.38014" lon="6.89052">
        <ele>683.8</ele>
        <time>2021-08-10T15:25:12Z</time>
      </trkpt>
      <trkpt lat="47.38013" lon="6.89052">
        <ele>683.8</ele>
        <time>2021-08-10T15:25:13Z</time>
      </trkpt>
      <trkpt lat="47.38011" lon="6.8905">
        <ele>683.9</ele>
        <time>2021-08-10T15:25:14Z</time>
      </trkpt>
      <trkpt lat="47.3801" lon="6.89051">
        <ele>683.9</ele>
        <time>2021-08-10T15:25:15Z</time>
      </trkpt>
      <trkpt lat="47.38006" lon="6.89053">
        <ele>684</ele>
        <time>2021-08-10T15:25:17Z</time>
      </trkpt>
      <trkpt lat="47.38005" lon="6.89054">
        <ele>684.1</ele>
        <time>2021-08-10T15:25:18Z</time>
      </trkpt>
      <trkpt lat="47.38004" lon="6.89055">
        <ele>684.1</ele>
        <time>2021-08-10T15:25:19Z</time>
      </trkpt>
      <trkpt lat="47.38002" lon="6.89056">
        <ele>684.2</ele>
        <time>2021-08-10T15:25:21Z</time>
      </trkpt>
      <trkpt lat="47.38" lon="6.89056">
        <ele>684.3</ele>
        <time>2021-08-10T15:25:23Z</time>
      </trkpt>
      <trkpt lat="47.37998" lon="6.89055">
        <ele>684.4</ele>
        <time>2021-08-10T15:25:25Z</time>
      </trkpt>
      <trkpt lat="47.37998" lon="6.89055">
        <ele>684.5</ele>
        <time>2021-08-10T15:25:26Z</time>
      </trkpt>
      <trkpt lat="47.37997" lon="6.89057">
        <ele>684.5</ele>
        <time>2021-08-10T15:25:28Z</time>
      </trkpt>
      <trkpt lat="47.37996" lon="6.89059">
        <ele>684.6</ele>
        <time>2021-08-10T15:25:29Z</time>
      </trkpt>
      <trkpt lat="47.37996" lon="6.8906">
        <ele>684.6</ele>
        <time>2021-08-10T15:25:30Z</time>
      </trkpt>
      <trkpt lat="47.37996" lon="6.89061">
        <ele>684.7</ele>
        <time>2021-08-10T15:25:31Z</time>
      </trkpt>
      <trkpt lat="47.37996" lon="6.89062">
        <ele>684.7</ele>
        <time>2021-08-10T15:25:32Z</time>
      </trkpt>
      <trkpt lat="47.37996" lon="6.89062">
        <ele>684.7</ele>
        <time>2021-08-10T15:25:34Z</time>
      </trkpt>
      <trkpt lat="47.37996" lon="6.89062">
        <ele>684.7</ele>
        <time>2021-08-10T15:25:36Z</time>
      </trkpt>
      <trkpt lat="47.37981" lon="6.89027">
        <ele>684.8</ele>
        <time>2021-08-10T15:26:38Z</time>
      </trkpt>
      <trkpt lat="47.3798" lon="6.89023">
        <ele>684.8</ele>
        <time>2021-08-10T15:26:39Z</time>
      </trkpt>
      <trkpt lat="47.37978" lon="6.89019">
        <ele>684.7</ele>
        <time>2021-08-10T15:26:40Z</time>
      </trkpt>
      <trkpt lat="47.37977" lon="6.89013">
        <ele>684.7</ele>
        <time>2021-08-10T15:26:41Z</time>
      </trkpt>
      <trkpt lat="47.37974" lon="6.89005">
        <ele>684.7</ele>
        <time>2021-08-10T15:26:43Z</time>
      </trkpt>
      <trkpt lat="47.37973" lon="6.88999">
        <ele>684.7</ele>
        <time>2021-08-10T15:26:44Z</time>
      </trkpt>
      <trkpt lat="47.3797" lon="6.88993">
        <ele>684.6</ele>
        <time>2021-08-10T15:26:45Z</time>
      </trkpt>
      <trkpt lat="47.37968" lon="6.88987">
        <ele>684.6</ele>
        <time>2021-08-10T15:26:46Z</time>
      </trkpt>
      <trkpt lat="47.37967" lon="6.88983">
        <ele>684.6</ele>
        <time>2021-08-10T15:26:47Z</time>
      </trkpt>
      <trkpt lat="47.37963" lon="6.88975">
        <ele>684.5</ele>
        <time>2021-08-10T15:26:49Z</time>
      </trkpt>
      <trkpt lat="47.37961" lon="6.88971">
        <ele>684.5</ele>
        <time>2021-08-10T15:26:50Z</time>
      </trkpt>
      <trkpt lat="47.3796" lon="6.88967">
        <ele>684.4</ele>
        <time>2021-08-10T15:26:51Z</time>
      </trkpt>
      <trkpt lat="47.37957" lon="6.88957">
        <ele>684.4</ele>
        <time>2021-08-10T15:26:53Z</time>
      </trkpt>
      <trkpt lat="47.37952" lon="6.88949">
        <ele>684.3</ele>
        <time>2021-08-10T15:26:55Z</time>
      </trkpt>
      <trkpt lat="47.37949" lon="6.88944">
        <ele>684.3</ele>
        <time>2021-08-10T15:26:56Z</time>
      </trkpt>
      <trkpt lat="47.37947" lon="6.88938">
        <ele>684.2</ele>
        <time>2021-08-10T15:26:57Z</time>
      </trkpt>
      <trkpt lat="47.37941" lon="6.88929">
        <ele>684</ele>
        <time>2021-08-10T15:26:59Z</time>
      </trkpt>
      <trkpt lat="47.37938" lon="6.88922">
        <ele>683.9</ele>
        <time>2021-08-10T15:27:00Z</time>
      </trkpt>
      <trkpt lat="47.37931" lon="6.8891">
        <ele>683.7</ele>
        <time>2021-08-10T15:27:02Z</time>
      </trkpt>
      <trkpt lat="47.37927" lon="6.88901">
        <ele>683.6</ele>
        <time>2021-08-10T15:27:03Z</time>
      </trkpt>
      <trkpt lat="47.37925" lon="6.88894">
        <ele>683.6</ele>
        <time>2021-08-10T15:27:04Z</time>
      </trkpt>
      <trkpt lat="47.37922" lon="6.88887">
        <ele>683.6</ele>
        <time>2021-08-10T15:27:05Z</time>
      </trkpt>
      <trkpt lat="47.37918" lon="6.88876">
        <ele>683.7</ele>
        <time>2021-08-10T15:27:07Z</time>
      </trkpt>
      <trkpt lat="47.37916" lon="6.88866">
        <ele>683.7</ele>
        <time>2021-08-10T15:27:09Z</time>
      </trkpt>
      <trkpt lat="47.37916" lon="6.88859">
        <ele>683.8</ele>
        <time>2021-08-10T15:27:11Z</time>
      </trkpt>
      <trkpt lat="47.37914" lon="6.88852">
        <ele>683.8</ele>
        <time>2021-08-10T15:27:12Z</time>
      </trkpt>
      <trkpt lat="47.37914" lon="6.8885">
        <ele>683.8</ele>
        <time>2021-08-10T15:27:13Z</time>
      </trkpt>
      <trkpt lat="47.37911" lon="6.88848">
        <ele>683.8</ele>
        <time>2021-08-10T15:27:15Z</time>
      </trkpt>
      <trkpt lat="47.37909" lon="6.88843">
        <ele>683.7</ele>
        <time>2021-08-10T15:27:16Z</time>
      </trkpt>
      <trkpt lat="47.37909" lon="6.88841">
        <ele>683.7</ele>
        <time>2021-08-10T15:27:17Z</time>
      </trkpt>
      <trkpt lat="47.37908" lon="6.88836">
        <ele>683.7</ele>
        <time>2021-08-10T15:27:18Z</time>
      </trkpt>
      <trkpt lat="47.37908" lon="6.88832">
        <ele>683.7</ele>
        <time>2021-08-10T15:27:19Z</time>
      </trkpt>
      <trkpt lat="47.37908" lon="6.88823">
        <ele>683.6</ele>
        <time>2021-08-10T15:27:21Z</time>
      </trkpt>
      <trkpt lat="47.37907" lon="6.88819">
        <ele>683.5</ele>
        <time>2021-08-10T15:27:22Z</time>
      </trkpt>
      <trkpt lat="47.37904" lon="6.88803">
        <ele>683.3</ele>
        <time>2021-08-10T15:27:24Z</time>
      </trkpt>
      <trkpt lat="47.37902" lon="6.88793">
        <ele>683.1</ele>
        <time>2021-08-10T15:27:25Z</time>
      </trkpt>
      <trkpt lat="47.37901" lon="6.88784">
        <ele>683</ele>
        <time>2021-08-10T15:27:26Z</time>
      </trkpt>
      <trkpt lat="47.37898" lon="6.88771">
        <ele>682.7</ele>
        <time>2021-08-10T15:27:27Z</time>
      </trkpt>
      <trkpt lat="47.37896" lon="6.88751">
        <ele>682.3</ele>
        <time>2021-08-10T15:27:28Z</time>
      </trkpt>
      <trkpt lat="47.37894" lon="6.8874">
        <ele>682</ele>
        <time>2021-08-10T15:27:29Z</time>
      </trkpt>
      <trkpt lat="47.37893" lon="6.8873">
        <ele>681.8</ele>
        <time>2021-08-10T15:27:30Z</time>
      </trkpt>
      <trkpt lat="47.37889" lon="6.88713">
        <ele>681.5</ele>
        <time>2021-08-10T15:27:32Z</time>
      </trkpt>
      <trkpt lat="47.37887" lon="6.88706">
        <ele>681.3</ele>
        <time>2021-08-10T15:27:33Z</time>
      </trkpt>
      <trkpt lat="47.37882" lon="6.88691">
        <ele>680.9</ele>
        <time>2021-08-10T15:27:35Z</time>
      </trkpt>
      <trkpt lat="47.3788" lon="6.88684">
        <ele>680.8</ele>
        <time>2021-08-10T15:27:36Z</time>
      </trkpt>
      <trkpt lat="47.37878" lon="6.88678">
        <ele>680.6</ele>
        <time>2021-08-10T15:27:37Z</time>
      </trkpt>
      <trkpt lat="47.37873" lon="6.88666">
        <ele>680.3</ele>
        <time>2021-08-10T15:27:39Z</time>
      </trkpt>
      <trkpt lat="47.37871" lon="6.8867">
        <ele>680.1</ele>
        <time>2021-08-10T15:27:41Z</time>
      </trkpt>
      <trkpt lat="47.3787" lon="6.88669">
        <ele>680.1</ele>
        <time>2021-08-10T15:27:43Z</time>
      </trkpt>
      <trkpt lat="47.37869" lon="6.88667">
        <ele>680.1</ele>
        <time>2021-08-10T15:27:45Z</time>
      </trkpt>
      <trkpt lat="47.37869" lon="6.88667">
        <ele>680</ele>
        <time>2021-08-10T15:27:46Z</time>
      </trkpt>
      <trkpt lat="47.37869" lon="6.88667">
        <ele>680</ele>
        <time>2021-08-10T15:27:48Z</time>
      </trkpt>
      <trkpt lat="47.37869" lon="6.88667">
        <ele>680</ele>
        <time>2021-08-10T15:27:50Z</time>
      </trkpt>
      <trkpt lat="47.37863" lon="6.88628">
        <ele>679</ele>
        <time>2021-08-10T15:28:43Z</time>
      </trkpt>
      <trkpt lat="47.3786" lon="6.88623">
        <ele>678.9</ele>
        <time>2021-08-10T15:28:44Z</time>
      </trkpt>
      <trkpt lat="47.37858" lon="6.88617">
        <ele>678.6</ele>
        <time>2021-08-10T15:28:45Z</time>
      </trkpt>
      <trkpt lat="47.37856" lon="6.88611">
        <ele>678.4</ele>
        <time>2021-08-10T15:28:46Z</time>
      </trkpt>
      <trkpt lat="47.37854" lon="6.88606">
        <ele>678.2</ele>
        <time>2021-08-10T15:28:47Z</time>
      </trkpt>
      <trkpt lat="47.37849" lon="6.88596">
        <ele>677.9</ele>
        <time>2021-08-10T15:28:49Z</time>
      </trkpt>
      <trkpt lat="47.37846" lon="6.88588">
        <ele>677.6</ele>
        <time>2021-08-10T15:28:51Z</time>
      </trkpt>
      <trkpt lat="47.37842" lon="6.8858">
        <ele>677.4</ele>
        <time>2021-08-10T15:28:52Z</time>
      </trkpt>
      <trkpt lat="47.37838" lon="6.88573">
        <ele>677.2</ele>
        <time>2021-08-10T15:28:54Z</time>
      </trkpt>
      <trkpt lat="47.37834" lon="6.88567">
        <ele>676.9</ele>
        <time>2021-08-10T15:28:55Z</time>
      </trkpt>
      <trkpt lat="47.3783" lon="6.88562">
        <ele>676.8</ele>
        <time>2021-08-10T15:28:56Z</time>
      </trkpt>
      <trkpt lat="47.37828" lon="6.88558">
        <ele>676.6</ele>
        <time>2021-08-10T15:28:57Z</time>
      </trkpt>
      <trkpt lat="47.37824" lon="6.88551">
        <ele>676.4</ele>
        <time>2021-08-10T15:28:59Z</time>
      </trkpt>
      <trkpt lat="47.37821" lon="6.88545">
        <ele>676.1</ele>
        <time>2021-08-10T15:29:00Z</time>
      </trkpt>
      <trkpt lat="47.37818" lon="6.8854">
        <ele>675.9</ele>
        <time>2021-08-10T15:29:01Z</time>
      </trkpt>
      <trkpt lat="47.37813" lon="6.88533">
        <ele>675.6</ele>
        <time>2021-08-10T15:29:03Z</time>
      </trkpt>
      <trkpt lat="47.37809" lon="6.88527">
        <ele>675.3</ele>
        <time>2021-08-10T15:29:04Z</time>
      </trkpt>
      <trkpt lat="47.37805" lon="6.88522">
        <ele>675.1</ele>
        <time>2021-08-10T15:29:05Z</time>
      </trkpt>
      <trkpt lat="47.37799" lon="6.88512">
        <ele>674.7</ele>
        <time>2021-08-10T15:29:07Z</time>
      </trkpt>
      <trkpt lat="47.37793" lon="6.88503">
        <ele>674.3</ele>
        <time>2021-08-10T15:29:09Z</time>
      </trkpt>
      <trkpt lat="47.37786" lon="6.88497">
        <ele>673.9</ele>
        <time>2021-08-10T15:29:10Z</time>
      </trkpt>
      <trkpt lat="47.37782" lon="6.88492">
        <ele>673.6</ele>
        <time>2021-08-10T15:29:11Z</time>
      </trkpt>
      <trkpt lat="47.37774" lon="6.88483">
        <ele>673.1</ele>
        <time>2021-08-10T15:29:13Z</time>
      </trkpt>
      <trkpt lat="47.3777" lon="6.88478">
        <ele>672.8</ele>
        <time>2021-08-10T15:29:14Z</time>
      </trkpt>
      <trkpt lat="47.37763" lon="6.8847">
        <ele>672.2</ele>
        <time>2021-08-10T15:29:16Z</time>
      </trkpt>
      <trkpt lat="47.37755" lon="6.88463">
        <ele>671.4</ele>
        <time>2021-08-10T15:29:18Z</time>
      </trkpt>
      <trkpt lat="47.37747" lon="6.88449">
        <ele>670.4</ele>
        <time>2021-08-10T15:29:20Z</time>
      </trkpt>
      <trkpt lat="47.37743" lon="6.88442">
        <ele>669.9</ele>
        <time>2021-08-10T15:29:21Z</time>
      </trkpt>
      <trkpt lat="47.37735" lon="6.88425">
        <ele>668.8</ele>
        <time>2021-08-10T15:29:23Z</time>
      </trkpt>
      <trkpt lat="47.3773" lon="6.88417">
        <ele>668.3</ele>
        <time>2021-08-10T15:29:24Z</time>
      </trkpt>
      <trkpt lat="47.37726" lon="6.8841">
        <ele>667.8</ele>
        <time>2021-08-10T15:29:25Z</time>
      </trkpt>
      <trkpt lat="47.37718" lon="6.88396">
        <ele>667.1</ele>
        <time>2021-08-10T15:29:27Z</time>
      </trkpt>
      <trkpt lat="47.3771" lon="6.88385">
        <ele>666.4</ele>
        <time>2021-08-10T15:29:29Z</time>
      </trkpt>
      <trkpt lat="47.37702" lon="6.88378">
        <ele>665.9</ele>
        <time>2021-08-10T15:29:31Z</time>
      </trkpt>
      <trkpt lat="47.37698" lon="6.88374">
        <ele>665.6</ele>
        <time>2021-08-10T15:29:32Z</time>
      </trkpt>
      <trkpt lat="47.37691" lon="6.88366">
        <ele>665</ele>
        <time>2021-08-10T15:29:34Z</time>
      </trkpt>
      <trkpt lat="47.37686" lon="6.88362">
        <ele>664.7</ele>
        <time>2021-08-10T15:29:35Z</time>
      </trkpt>
      <trkpt lat="47.37679" lon="6.8835">
        <ele>664</ele>
        <time>2021-08-10T15:29:37Z</time>
      </trkpt>
      <trkpt lat="47.37676" lon="6.88343">
        <ele>663.6</ele>
        <time>2021-08-10T15:29:38Z</time>
      </trkpt>
      <trkpt lat="47.37673" lon="6.88334">
        <ele>663.2</ele>
        <time>2021-08-10T15:29:39Z</time>
      </trkpt>
      <trkpt lat="47.37669" lon="6.88315">
        <ele>662.4</ele>
        <time>2021-08-10T15:29:41Z</time>
      </trkpt>
      <trkpt lat="47.37666" lon="6.88298">
        <ele>661.5</ele>
        <time>2021-08-10T15:29:43Z</time>
      </trkpt>
      <trkpt lat="47.37661" lon="6.88283">
        <ele>660.7</ele>
        <time>2021-08-10T15:29:45Z</time>
      </trkpt>
      <trkpt lat="47.37658" lon="6.88275">
        <ele>660.2</ele>
        <time>2021-08-10T15:29:46Z</time>
      </trkpt>
      <trkpt lat="47.37651" lon="6.88258">
        <ele>659.1</ele>
        <time>2021-08-10T15:29:48Z</time>
      </trkpt>
      <trkpt lat="47.37648" lon="6.88248">
        <ele>658.5</ele>
        <time>2021-08-10T15:29:49Z</time>
      </trkpt>
      <trkpt lat="47.37643" lon="6.88225">
        <ele>657.1</ele>
        <time>2021-08-10T15:29:51Z</time>
      </trkpt>
      <trkpt lat="47.3764" lon="6.88213">
        <ele>656.4</ele>
        <time>2021-08-10T15:29:52Z</time>
      </trkpt>
      <trkpt lat="47.37635" lon="6.88188">
        <ele>654.8</ele>
        <time>2021-08-10T15:29:54Z</time>
      </trkpt>
      <trkpt lat="47.37633" lon="6.88174">
        <ele>654</ele>
        <time>2021-08-10T15:29:55Z</time>
      </trkpt>
      <trkpt lat="47.37627" lon="6.88148">
        <ele>652.4</ele>
        <time>2021-08-10T15:29:57Z</time>
      </trkpt>
      <trkpt lat="47.37623" lon="6.88133">
        <ele>651.4</ele>
        <time>2021-08-10T15:29:58Z</time>
      </trkpt>
      <trkpt lat="47.37619" lon="6.88118">
        <ele>650.4</ele>
        <time>2021-08-10T15:29:59Z</time>
      </trkpt>
      <trkpt lat="47.37611" lon="6.8809">
        <ele>648.2</ele>
        <time>2021-08-10T15:30:01Z</time>
      </trkpt>
      <trkpt lat="47.37604" lon="6.88063">
        <ele>646.4</ele>
        <time>2021-08-10T15:30:03Z</time>
      </trkpt>
      <trkpt lat="47.37602" lon="6.88049">
        <ele>645.6</ele>
        <time>2021-08-10T15:30:04Z</time>
      </trkpt>
      <trkpt lat="47.376" lon="6.88036">
        <ele>644.7</ele>
        <time>2021-08-10T15:30:05Z</time>
      </trkpt>
      <trkpt lat="47.37594" lon="6.88008">
        <ele>642.9</ele>
        <time>2021-08-10T15:30:07Z</time>
      </trkpt>
      <trkpt lat="47.37588" lon="6.87981">
        <ele>640.9</ele>
        <time>2021-08-10T15:30:09Z</time>
      </trkpt>
      <trkpt lat="47.37581" lon="6.87954">
        <ele>639</ele>
        <time>2021-08-10T15:30:11Z</time>
      </trkpt>
      <trkpt lat="47.37571" lon="6.87929">
        <ele>637.1</ele>
        <time>2021-08-10T15:30:13Z</time>
      </trkpt>
      <trkpt lat="47.37563" lon="6.87904">
        <ele>635.3</ele>
        <time>2021-08-10T15:30:15Z</time>
      </trkpt>
      <trkpt lat="47.37559" lon="6.87893">
        <ele>634.6</ele>
        <time>2021-08-10T15:30:16Z</time>
      </trkpt>
      <trkpt lat="47.37555" lon="6.87883">
        <ele>633.9</ele>
        <time>2021-08-10T15:30:17Z</time>
      </trkpt>
      <trkpt lat="47.37546" lon="6.87863">
        <ele>632.5</ele>
        <time>2021-08-10T15:30:19Z</time>
      </trkpt>
      <trkpt lat="47.37537" lon="6.87843">
        <ele>631.1</ele>
        <time>2021-08-10T15:30:21Z</time>
      </trkpt>
      <trkpt lat="47.37534" lon="6.87834">
        <ele>630.5</ele>
        <time>2021-08-10T15:30:22Z</time>
      </trkpt>
      <trkpt lat="47.37531" lon="6.87824">
        <ele>629.9</ele>
        <time>2021-08-10T15:30:23Z</time>
      </trkpt>
      <trkpt lat="47.37526" lon="6.87805">
        <ele>628.8</ele>
        <time>2021-08-10T15:30:25Z</time>
      </trkpt>
      <trkpt lat="47.3752" lon="6.87786">
        <ele>627.9</ele>
        <time>2021-08-10T15:30:27Z</time>
      </trkpt>
      <trkpt lat="47.37518" lon="6.87776">
        <ele>627.4</ele>
        <time>2021-08-10T15:30:28Z</time>
      </trkpt>
      <trkpt lat="47.37517" lon="6.87766">
        <ele>627</ele>
        <time>2021-08-10T15:30:29Z</time>
      </trkpt>
      <trkpt lat="47.37517" lon="6.87746">
        <ele>626</ele>
        <time>2021-08-10T15:30:31Z</time>
      </trkpt>
      <trkpt lat="47.3752" lon="6.87728">
        <ele>624.9</ele>
        <time>2021-08-10T15:30:33Z</time>
      </trkpt>
      <trkpt lat="47.37524" lon="6.87713">
        <ele>624</ele>
        <time>2021-08-10T15:30:35Z</time>
      </trkpt>
      <trkpt lat="47.37526" lon="6.87708">
        <ele>623.7</ele>
        <time>2021-08-10T15:30:36Z</time>
      </trkpt>
      <trkpt lat="47.37527" lon="6.87703">
        <ele>623.3</ele>
        <time>2021-08-10T15:30:37Z</time>
      </trkpt>
      <trkpt lat="47.37527" lon="6.87688">
        <ele>622.3</ele>
        <time>2021-08-10T15:30:39Z</time>
      </trkpt>
      <trkpt lat="47.37525" lon="6.8768">
        <ele>621.5</ele>
        <time>2021-08-10T15:30:40Z</time>
      </trkpt>
      <trkpt lat="47.37518" lon="6.87669">
        <ele>620.8</ele>
        <time>2021-08-10T15:30:42Z</time>
      </trkpt>
      <trkpt lat="47.37513" lon="6.87664">
        <ele>620.3</ele>
        <time>2021-08-10T15:30:43Z</time>
      </trkpt>
      <trkpt lat="47.37501" lon="6.87655">
        <ele>619.4</ele>
        <time>2021-08-10T15:30:45Z</time>
      </trkpt>
      <trkpt lat="47.37496" lon="6.8765">
        <ele>619</ele>
        <time>2021-08-10T15:30:46Z</time>
      </trkpt>
      <trkpt lat="47.37492" lon="6.87645">
        <ele>618.6</ele>
        <time>2021-08-10T15:30:47Z</time>
      </trkpt>
      <trkpt lat="47.37485" lon="6.87636">
        <ele>617.9</ele>
        <time>2021-08-10T15:30:49Z</time>
      </trkpt>
      <trkpt lat="47.37476" lon="6.87626">
        <ele>617.1</ele>
        <time>2021-08-10T15:30:51Z</time>
      </trkpt>
      <trkpt lat="47.37472" lon="6.87619">
        <ele>616.7</ele>
        <time>2021-08-10T15:30:52Z</time>
      </trkpt>
      <trkpt lat="47.37465" lon="6.87603">
        <ele>615.7</ele>
        <time>2021-08-10T15:30:54Z</time>
      </trkpt>
      <trkpt lat="47.37456" lon="6.87589">
        <ele>614.7</ele>
        <time>2021-08-10T15:30:56Z</time>
      </trkpt>
      <trkpt lat="47.37446" lon="6.87579">
        <ele>613.8</ele>
        <time>2021-08-10T15:30:58Z</time>
      </trkpt>
      <trkpt lat="47.37441" lon="6.87574">
        <ele>613.3</ele>
        <time>2021-08-10T15:30:59Z</time>
      </trkpt>
      <trkpt lat="47.37437" lon="6.87569">
        <ele>612.9</ele>
        <time>2021-08-10T15:31:00Z</time>
      </trkpt>
      <trkpt lat="47.37426" lon="6.87564">
        <ele>611.9</ele>
        <time>2021-08-10T15:31:02Z</time>
      </trkpt>
      <trkpt lat="47.37421" lon="6.87561">
        <ele>611.4</ele>
        <time>2021-08-10T15:31:03Z</time>
      </trkpt>
      <trkpt lat="47.37416" lon="6.87558">
        <ele>610.8</ele>
        <time>2021-08-10T15:31:04Z</time>
      </trkpt>
      <trkpt lat="47.37412" lon="6.87555">
        <ele>610.3</ele>
        <time>2021-08-10T15:31:05Z</time>
      </trkpt>
      <trkpt lat="47.37409" lon="6.87552">
        <ele>609.9</ele>
        <time>2021-08-10T15:31:06Z</time>
      </trkpt>
      <trkpt lat="47.37403" lon="6.87547">
        <ele>609.1</ele>
        <time>2021-08-10T15:31:08Z</time>
      </trkpt>
      <trkpt lat="47.374" lon="6.87545">
        <ele>608.6</ele>
        <time>2021-08-10T15:31:10Z</time>
      </trkpt>
      <trkpt lat="47.37396" lon="6.87544">
        <ele>608.2</ele>
        <time>2021-08-10T15:31:12Z</time>
      </trkpt>
      <trkpt lat="47.37392" lon="6.87542">
        <ele>607.6</ele>
        <time>2021-08-10T15:31:13Z</time>
      </trkpt>
      <trkpt lat="47.3739" lon="6.87539">
        <ele>607.3</ele>
        <time>2021-08-10T15:31:14Z</time>
      </trkpt>
      <trkpt lat="47.37387" lon="6.87532">
        <ele>606.9</ele>
        <time>2021-08-10T15:31:16Z</time>
      </trkpt>
      <trkpt lat="47.37387" lon="6.8753">
        <ele>606.8</ele>
        <time>2021-08-10T15:31:17Z</time>
      </trkpt>
      <trkpt lat="47.37387" lon="6.87527">
        <ele>606.7</ele>
        <time>2021-08-10T15:31:18Z</time>
      </trkpt>
      <trkpt lat="47.37386" lon="6.87524">
        <ele>606.6</ele>
        <time>2021-08-10T15:31:19Z</time>
      </trkpt>
      <trkpt lat="47.37385" lon="6.87516">
        <ele>606.2</ele>
        <time>2021-08-10T15:31:21Z</time>
      </trkpt>
      <trkpt lat="47.37385" lon="6.87511">
        <ele>606.1</ele>
        <time>2021-08-10T15:31:22Z</time>
      </trkpt>
      <trkpt lat="47.37387" lon="6.87507">
        <ele>605.9</ele>
        <time>2021-08-10T15:31:23Z</time>
      </trkpt>
      <trkpt lat="47.37387" lon="6.87503">
        <ele>605.8</ele>
        <time>2021-08-10T15:31:24Z</time>
      </trkpt>
      <trkpt lat="47.37387" lon="6.87499">
        <ele>605.7</ele>
        <time>2021-08-10T15:31:25Z</time>
      </trkpt>
      <trkpt lat="47.37384" lon="6.87487">
        <ele>605.2</ele>
        <time>2021-08-10T15:31:26Z</time>
      </trkpt>
      <trkpt lat="47.3738" lon="6.87471">
        <ele>604.3</ele>
        <time>2021-08-10T15:31:28Z</time>
      </trkpt>
      <trkpt lat="47.37379" lon="6.87463">
        <ele>603.9</ele>
        <time>2021-08-10T15:31:29Z</time>
      </trkpt>
      <trkpt lat="47.37376" lon="6.87446">
        <ele>602.9</ele>
        <time>2021-08-10T15:31:31Z</time>
      </trkpt>
      <trkpt lat="47.37375" lon="6.87436">
        <ele>602.4</ele>
        <time>2021-08-10T15:31:32Z</time>
      </trkpt>
      <trkpt lat="47.37372" lon="6.87416">
        <ele>601.4</ele>
        <time>2021-08-10T15:31:34Z</time>
      </trkpt>
      <trkpt lat="47.3737" lon="6.87407">
        <ele>600.9</ele>
        <time>2021-08-10T15:31:35Z</time>
      </trkpt>
      <trkpt lat="47.37368" lon="6.8739">
        <ele>600.1</ele>
        <time>2021-08-10T15:31:37Z</time>
      </trkpt>
      <trkpt lat="47.37367" lon="6.87382">
        <ele>599.8</ele>
        <time>2021-08-10T15:31:38Z</time>
      </trkpt>
      <trkpt lat="47.37364" lon="6.87368">
        <ele>599.5</ele>
        <time>2021-08-10T15:31:40Z</time>
      </trkpt>
      <trkpt lat="47.37364" lon="6.87363">
        <ele>599.4</ele>
        <time>2021-08-10T15:31:41Z</time>
      </trkpt>
      <trkpt lat="47.37362" lon="6.87357">
        <ele>599.3</ele>
        <time>2021-08-10T15:31:43Z</time>
      </trkpt>
      <trkpt lat="47.37361" lon="6.87353">
        <ele>599.2</ele>
        <time>2021-08-10T15:31:44Z</time>
      </trkpt>
      <trkpt lat="47.37357" lon="6.87348">
        <ele>599</ele>
        <time>2021-08-10T15:31:45Z</time>
      </trkpt>
      <trkpt lat="47.37355" lon="6.87346">
        <ele>598.9</ele>
        <time>2021-08-10T15:31:46Z</time>
      </trkpt>
      <trkpt lat="47.3735" lon="6.87345">
        <ele>598.8</ele>
        <time>2021-08-10T15:31:47Z</time>
      </trkpt>
      <trkpt lat="47.37345" lon="6.87343">
        <ele>598.7</ele>
        <time>2021-08-10T15:31:49Z</time>
      </trkpt>
      <trkpt lat="47.37342" lon="6.8734">
        <ele>598.6</ele>
        <time>2021-08-10T15:31:50Z</time>
      </trkpt>
      <trkpt lat="47.37339" lon="6.87337">
        <ele>598.5</ele>
        <time>2021-08-10T15:31:51Z</time>
      </trkpt>
      <trkpt lat="47.37336" lon="6.87332">
        <ele>598.4</ele>
        <time>2021-08-10T15:31:52Z</time>
      </trkpt>
      <trkpt lat="47.37332" lon="6.87323">
        <ele>598.2</ele>
        <time>2021-08-10T15:31:54Z</time>
      </trkpt>
      <trkpt lat="47.37329" lon="6.87316">
        <ele>598</ele>
        <time>2021-08-10T15:31:55Z</time>
      </trkpt>
      <trkpt lat="47.37325" lon="6.87305">
        <ele>597.8</ele>
        <time>2021-08-10T15:31:57Z</time>
      </trkpt>
      <trkpt lat="47.37323" lon="6.87298">
        <ele>597.6</ele>
        <time>2021-08-10T15:31:58Z</time>
      </trkpt>
      <trkpt lat="47.37321" lon="6.87292">
        <ele>597.5</ele>
        <time>2021-08-10T15:31:59Z</time>
      </trkpt>
      <trkpt lat="47.37319" lon="6.87285">
        <ele>597.4</ele>
        <time>2021-08-10T15:32:00Z</time>
      </trkpt>
      <trkpt lat="47.37317" lon="6.87279">
        <ele>597.4</ele>
        <time>2021-08-10T15:32:01Z</time>
      </trkpt>
      <trkpt lat="47.37313" lon="6.8727">
        <ele>597.3</ele>
        <time>2021-08-10T15:32:03Z</time>
      </trkpt>
      <trkpt lat="47.37311" lon="6.87262">
        <ele>597.2</ele>
        <time>2021-08-10T15:32:04Z</time>
      </trkpt>
      <trkpt lat="47.37308" lon="6.87256">
        <ele>597.2</ele>
        <time>2021-08-10T15:32:05Z</time>
      </trkpt>
      <trkpt lat="47.37301" lon="6.87249">
        <ele>597.1</ele>
        <time>2021-08-10T15:32:07Z</time>
      </trkpt>
      <trkpt lat="47.37296" lon="6.87247">
        <ele>597</ele>
        <time>2021-08-10T15:32:08Z</time>
      </trkpt>
      <trkpt lat="47.3729" lon="6.87244">
        <ele>597</ele>
        <time>2021-08-10T15:32:10Z</time>
      </trkpt>
      <trkpt lat="47.37284" lon="6.87243">
        <ele>596.9</ele>
        <time>2021-08-10T15:32:11Z</time>
      </trkpt>
      <trkpt lat="47.37277" lon="6.87242">
        <ele>596.9</ele>
        <time>2021-08-10T15:32:13Z</time>
      </trkpt>
      <trkpt lat="47.37272" lon="6.87241">
        <ele>596.9</ele>
        <time>2021-08-10T15:32:15Z</time>
      </trkpt>
      <trkpt lat="47.37267" lon="6.8724">
        <ele>596.8</ele>
        <time>2021-08-10T15:32:16Z</time>
      </trkpt>
      <trkpt lat="47.37262" lon="6.87238">
        <ele>596.8</ele>
        <time>2021-08-10T15:32:18Z</time>
      </trkpt>
      <trkpt lat="47.37258" lon="6.87237">
        <ele>596.9</ele>
        <time>2021-08-10T15:32:19Z</time>
      </trkpt>
      <trkpt lat="47.37253" lon="6.87234">
        <ele>596.9</ele>
        <time>2021-08-10T15:32:21Z</time>
      </trkpt>
      <trkpt lat="47.37247" lon="6.87231">
        <ele>597</ele>
        <time>2021-08-10T15:32:22Z</time>
      </trkpt>
      <trkpt lat="47.37243" lon="6.8723">
        <ele>597</ele>
        <time>2021-08-10T15:32:23Z</time>
      </trkpt>
      <trkpt lat="47.37235" lon="6.8723">
        <ele>597.1</ele>
        <time>2021-08-10T15:32:25Z</time>
      </trkpt>
      <trkpt lat="47.3723" lon="6.87228">
        <ele>597.1</ele>
        <time>2021-08-10T15:32:27Z</time>
      </trkpt>
      <trkpt lat="47.37225" lon="6.87228">
        <ele>597.2</ele>
        <time>2021-08-10T15:32:28Z</time>
      </trkpt>
      <trkpt lat="47.37219" lon="6.87228">
        <ele>597.3</ele>
        <time>2021-08-10T15:32:30Z</time>
      </trkpt>
      <trkpt lat="47.37216" lon="6.87228">
        <ele>597.4</ele>
        <time>2021-08-10T15:32:31Z</time>
      </trkpt>
      <trkpt lat="47.37213" lon="6.87231">
        <ele>597.4</ele>
        <time>2021-08-10T15:32:33Z</time>
      </trkpt>
      <trkpt lat="47.37209" lon="6.87233">
        <ele>597.4</ele>
        <time>2021-08-10T15:32:34Z</time>
      </trkpt>
      <trkpt lat="47.37204" lon="6.87237">
        <ele>597.5</ele>
        <time>2021-08-10T15:32:35Z</time>
      </trkpt>
      <trkpt lat="47.37197" lon="6.87239">
        <ele>597.5</ele>
        <time>2021-08-10T15:32:37Z</time>
      </trkpt>
      <trkpt lat="47.37193" lon="6.8724">
        <ele>597.6</ele>
        <time>2021-08-10T15:32:38Z</time>
      </trkpt>
      <trkpt lat="47.3719" lon="6.8724">
        <ele>597.7</ele>
        <time>2021-08-10T15:32:39Z</time>
      </trkpt>
      <trkpt lat="47.37185" lon="6.8724">
        <ele>597.8</ele>
        <time>2021-08-10T15:32:41Z</time>
      </trkpt>
      <trkpt lat="47.37181" lon="6.87242">
        <ele>597.9</ele>
        <time>2021-08-10T15:32:43Z</time>
      </trkpt>
      <trkpt lat="47.3718" lon="6.87242">
        <ele>597.9</ele>
        <time>2021-08-10T15:32:44Z</time>
      </trkpt>
      <trkpt lat="47.37179" lon="6.87243">
        <ele>598</ele>
        <time>2021-08-10T15:32:45Z</time>
      </trkpt>
      <trkpt lat="47.37176" lon="6.87245">
        <ele>598.1</ele>
        <time>2021-08-10T15:32:46Z</time>
      </trkpt>
      <trkpt lat="47.37175" lon="6.87245">
        <ele>598.1</ele>
        <time>2021-08-10T15:32:47Z</time>
      </trkpt>
      <trkpt lat="47.37172" lon="6.87247">
        <ele>598.3</ele>
        <time>2021-08-10T15:32:48Z</time>
      </trkpt>
      <trkpt lat="47.37171" lon="6.87248">
        <ele>598.4</ele>
        <time>2021-08-10T15:32:49Z</time>
      </trkpt>
      <trkpt lat="47.37166" lon="6.87252">
        <ele>598.6</ele>
        <time>2021-08-10T15:32:51Z</time>
      </trkpt>
      <trkpt lat="47.37164" lon="6.87256">
        <ele>598.8</ele>
        <time>2021-08-10T15:32:52Z</time>
      </trkpt>
      <trkpt lat="47.37163" lon="6.87257">
        <ele>598.9</ele>
        <time>2021-08-10T15:32:53Z</time>
      </trkpt>
      <trkpt lat="47.37158" lon="6.87262">
        <ele>599.2</ele>
        <time>2021-08-10T15:32:55Z</time>
      </trkpt>
      <trkpt lat="47.37156" lon="6.87265">
        <ele>599.3</ele>
        <time>2021-08-10T15:32:56Z</time>
      </trkpt>
      <trkpt lat="47.37152" lon="6.87271">
        <ele>599.6</ele>
        <time>2021-08-10T15:32:57Z</time>
      </trkpt>
      <trkpt lat="47.37149" lon="6.87274">
        <ele>599.8</ele>
        <time>2021-08-10T15:32:58Z</time>
      </trkpt>
      <trkpt lat="47.37144" lon="6.87278">
        <ele>600.2</ele>
        <time>2021-08-10T15:33:00Z</time>
      </trkpt>
      <trkpt lat="47.3714" lon="6.87281">
        <ele>600.5</ele>
        <time>2021-08-10T15:33:01Z</time>
      </trkpt>
      <trkpt lat="47.37136" lon="6.87281">
        <ele>600.8</ele>
        <time>2021-08-10T15:33:03Z</time>
      </trkpt>
      <trkpt lat="47.37132" lon="6.87284">
        <ele>601</ele>
        <time>2021-08-10T15:33:04Z</time>
      </trkpt>
      <trkpt lat="47.37131" lon="6.87285">
        <ele>601.1</ele>
        <time>2021-08-10T15:33:05Z</time>
      </trkpt>
      <trkpt lat="47.37127" lon="6.87288">
        <ele>601.5</ele>
        <time>2021-08-10T15:33:07Z</time>
      </trkpt>
      <trkpt lat="47.37124" lon="6.87291">
        <ele>601.7</ele>
        <time>2021-08-10T15:33:09Z</time>
      </trkpt>
      <trkpt lat="47.37124" lon="6.87292">
        <ele>601.8</ele>
        <time>2021-08-10T15:33:10Z</time>
      </trkpt>
      <trkpt lat="47.37125" lon="6.87291">
        <ele>601.9</ele>
        <time>2021-08-10T15:33:11Z</time>
      </trkpt>
      <trkpt lat="47.37126" lon="6.87291">
        <ele>601.9</ele>
        <time>2021-08-10T15:33:12Z</time>
      </trkpt>
      <trkpt lat="47.37126" lon="6.87291">
        <ele>602</ele>
        <time>2021-08-10T15:33:13Z</time>
      </trkpt>
      <trkpt lat="47.37125" lon="6.87293">
        <ele>602.1</ele>
        <time>2021-08-10T15:33:14Z</time>
      </trkpt>
      <trkpt lat="47.37123" lon="6.87297">
        <ele>602.4</ele>
        <time>2021-08-10T15:33:16Z</time>
      </trkpt>
      <trkpt lat="47.37121" lon="6.873">
        <ele>602.6</ele>
        <time>2021-08-10T15:33:17Z</time>
      </trkpt>
      <trkpt lat="47.3712" lon="6.87304">
        <ele>602.8</ele>
        <time>2021-08-10T15:33:19Z</time>
      </trkpt>
      <trkpt lat="47.37117" lon="6.87309">
        <ele>603.1</ele>
        <time>2021-08-10T15:33:21Z</time>
      </trkpt>
      <trkpt lat="47.37116" lon="6.87312">
        <ele>603.3</ele>
        <time>2021-08-10T15:33:22Z</time>
      </trkpt>
      <trkpt lat="47.37115" lon="6.87316">
        <ele>603.6</ele>
        <time>2021-08-10T15:33:24Z</time>
      </trkpt>
      <trkpt lat="47.37114" lon="6.8732">
        <ele>603.8</ele>
        <time>2021-08-10T15:33:26Z</time>
      </trkpt>
      <trkpt lat="47.37113" lon="6.87323">
        <ele>604</ele>
        <time>2021-08-10T15:33:28Z</time>
      </trkpt>
      <trkpt lat="47.37111" lon="6.87326">
        <ele>604.2</ele>
        <time>2021-08-10T15:33:29Z</time>
      </trkpt>
      <trkpt lat="47.3711" lon="6.87327">
        <ele>604.3</ele>
        <time>2021-08-10T15:33:30Z</time>
      </trkpt>
      <trkpt lat="47.37107" lon="6.87332">
        <ele>604.7</ele>
        <time>2021-08-10T15:33:32Z</time>
      </trkpt>
      <trkpt lat="47.37105" lon="6.87337">
        <ele>605</ele>
        <time>2021-08-10T15:33:34Z</time>
      </trkpt>
      <trkpt lat="47.37103" lon="6.8734">
        <ele>605.2</ele>
        <time>2021-08-10T15:33:35Z</time>
      </trkpt>
      <trkpt lat="47.371" lon="6.87342">
        <ele>605.5</ele>
        <time>2021-08-10T15:33:37Z</time>
      </trkpt>
      <trkpt lat="47.37098" lon="6.87346">
        <ele>605.8</ele>
        <time>2021-08-10T15:33:39Z</time>
      </trkpt>
      <trkpt lat="47.37096" lon="6.87349">
        <ele>606</ele>
        <time>2021-08-10T15:33:40Z</time>
      </trkpt>
      <trkpt lat="47.37094" lon="6.87354">
        <ele>606.4</ele>
        <time>2021-08-10T15:33:42Z</time>
      </trkpt>
      <trkpt lat="47.37091" lon="6.87359">
        <ele>606.8</ele>
        <time>2021-08-10T15:33:43Z</time>
      </trkpt>
      <trkpt lat="47.37089" lon="6.87364">
        <ele>607.2</ele>
        <time>2021-08-10T15:33:45Z</time>
      </trkpt>
      <trkpt lat="47.37086" lon="6.87367">
        <ele>607.5</ele>
        <time>2021-08-10T15:33:46Z</time>
      </trkpt>
      <trkpt lat="47.37086" lon="6.87368">
        <ele>607.6</ele>
        <time>2021-08-10T15:33:47Z</time>
      </trkpt>
      <trkpt lat="47.37085" lon="6.87369">
        <ele>607.7</ele>
        <time>2021-08-10T15:33:48Z</time>
      </trkpt>
      <trkpt lat="47.37084" lon="6.87369">
        <ele>607.8</ele>
        <time>2021-08-10T15:33:49Z</time>
      </trkpt>
      <trkpt lat="47.37083" lon="6.87371">
        <ele>607.9</ele>
        <time>2021-08-10T15:33:50Z</time>
      </trkpt>
      <trkpt lat="47.37083" lon="6.87373">
        <ele>608.1</ele>
        <time>2021-08-10T15:33:51Z</time>
      </trkpt>
      <trkpt lat="47.37082" lon="6.87374">
        <ele>608.2</ele>
        <time>2021-08-10T15:33:52Z</time>
      </trkpt>
      <trkpt lat="47.3708" lon="6.87374">
        <ele>608.4</ele>
        <time>2021-08-10T15:33:54Z</time>
      </trkpt>
      <trkpt lat="47.3708" lon="6.87373">
        <ele>608.4</ele>
        <time>2021-08-10T15:33:55Z</time>
      </trkpt>
      <trkpt lat="47.3708" lon="6.87374">
        <ele>608.6</ele>
        <time>2021-08-10T15:33:56Z</time>
      </trkpt>
      <trkpt lat="47.37079" lon="6.87375">
        <ele>608.7</ele>
        <time>2021-08-10T15:33:58Z</time>
      </trkpt>
      <trkpt lat="47.37078" lon="6.87376">
        <ele>608.8</ele>
        <time>2021-08-10T15:33:59Z</time>
      </trkpt>
      <trkpt lat="47.37077" lon="6.87377">
        <ele>608.9</ele>
        <time>2021-08-10T15:34:00Z</time>
      </trkpt>
      <trkpt lat="47.37076" lon="6.87378">
        <ele>609</ele>
        <time>2021-08-10T15:34:01Z</time>
      </trkpt>
      <trkpt lat="47.37075" lon="6.87379">
        <ele>609.1</ele>
        <time>2021-08-10T15:34:02Z</time>
      </trkpt>
      <trkpt lat="47.37074" lon="6.8738">
        <ele>609.3</ele>
        <time>2021-08-10T15:34:09Z</time>
      </trkpt>
      <trkpt lat="47.37074" lon="6.87381">
        <ele>609.4</ele>
        <time>2021-08-10T15:34:10Z</time>
      </trkpt>
      <trkpt lat="47.37073" lon="6.87382">
        <ele>609.5</ele>
        <time>2021-08-10T15:34:11Z</time>
      </trkpt>
      <trkpt lat="47.37071" lon="6.87386">
        <ele>609.8</ele>
        <time>2021-08-10T15:34:12Z</time>
      </trkpt>
      <trkpt lat="47.3707" lon="6.87387">
        <ele>609.9</ele>
        <time>2021-08-10T15:34:13Z</time>
      </trkpt>
      <trkpt lat="47.37066" lon="6.8739">
        <ele>610.4</ele>
        <time>2021-08-10T15:34:15Z</time>
      </trkpt>
      <trkpt lat="47.37065" lon="6.87391">
        <ele>610.6</ele>
        <time>2021-08-10T15:34:16Z</time>
      </trkpt>
      <trkpt lat="47.37064" lon="6.87392">
        <ele>610.7</ele>
        <time>2021-08-10T15:34:17Z</time>
      </trkpt>
      <trkpt lat="47.37064" lon="6.87393">
        <ele>610.7</ele>
        <time>2021-08-10T15:34:19Z</time>
      </trkpt>
      <trkpt lat="47.37063" lon="6.87394">
        <ele>610.7</ele>
        <time>2021-08-10T15:34:20Z</time>
      </trkpt>
      <trkpt lat="47.37063" lon="6.87395">
        <ele>610.8</ele>
        <time>2021-08-10T15:34:21Z</time>
      </trkpt>
      <trkpt lat="47.37063" lon="6.87396">
        <ele>610.8</ele>
        <time>2021-08-10T15:34:23Z</time>
      </trkpt>
      <trkpt lat="47.37063" lon="6.87396">
        <ele>610.8</ele>
        <time>2021-08-10T15:34:24Z</time>
      </trkpt>
      <trkpt lat="47.37063" lon="6.87397">
        <ele>610.8</ele>
        <time>2021-08-10T15:34:26Z</time>
      </trkpt>
      <trkpt lat="47.37063" lon="6.87398">
        <ele>610.8</ele>
        <time>2021-08-10T15:34:27Z</time>
      </trkpt>
      <trkpt lat="47.36834" lon="6.87291">
        <ele>651.6</ele>
        <time>2021-08-10T15:42:12Z</time>
      </trkpt>
      <trkpt lat="47.36832" lon="6.87289">
        <ele>651.8</ele>
        <time>2021-08-10T15:42:13Z</time>
      </trkpt>
      <trkpt lat="47.36827" lon="6.87289">
        <ele>652.3</ele>
        <time>2021-08-10T15:42:15Z</time>
      </trkpt>
      <trkpt lat="47.36826" lon="6.87289">
        <ele>652.4</ele>
        <time>2021-08-10T15:42:16Z</time>
      </trkpt>
      <trkpt lat="47.36825" lon="6.87289">
        <ele>652.5</ele>
        <time>2021-08-10T15:42:17Z</time>
      </trkpt>
      <trkpt lat="47.36824" lon="6.8729">
        <ele>652.6</ele>
        <time>2021-08-10T15:42:18Z</time>
      </trkpt>
      <trkpt lat="47.36823" lon="6.8729">
        <ele>652.6</ele>
        <time>2021-08-10T15:42:19Z</time>
      </trkpt>
      <trkpt lat="47.36823" lon="6.87292">
        <ele>652.7</ele>
        <time>2021-08-10T15:42:21Z</time>
      </trkpt>
      <trkpt lat="47.36822" lon="6.87292">
        <ele>652.8</ele>
        <time>2021-08-10T15:42:22Z</time>
      </trkpt>
      <trkpt lat="47.36822" lon="6.87292">
        <ele>652.8</ele>
        <time>2021-08-10T15:42:24Z</time>
      </trkpt>
      <trkpt lat="47.36822" lon="6.87293">
        <ele>652.8</ele>
        <time>2021-08-10T15:42:25Z</time>
      </trkpt>
      <trkpt lat="47.36822" lon="6.87293">
        <ele>652.9</ele>
        <time>2021-08-10T15:42:27Z</time>
      </trkpt>
      <trkpt lat="47.36822" lon="6.87294">
        <ele>652.9</ele>
        <time>2021-08-10T15:42:28Z</time>
      </trkpt>
      <trkpt lat="47.36822" lon="6.87294">
        <ele>652.9</ele>
        <time>2021-08-10T15:42:30Z</time>
      </trkpt>
      <trkpt lat="47.36822" lon="6.87294">
        <ele>652.9</ele>
        <time>2021-08-10T15:42:31Z</time>
      </trkpt>
      <trkpt lat="47.36822" lon="6.87295">
        <ele>653</ele>
        <time>2021-08-10T15:42:33Z</time>
      </trkpt>
      <trkpt lat="47.36748" lon="6.87005">
        <ele>675</ele>
        <time>2021-08-10T15:47:41Z</time>
      </trkpt>
      <trkpt lat="47.36746" lon="6.87001">
        <ele>675.1</ele>
        <time>2021-08-10T15:47:42Z</time>
      </trkpt>
      <trkpt lat="47.36745" lon="6.86997">
        <ele>675.3</ele>
        <time>2021-08-10T15:47:43Z</time>
      </trkpt>
      <trkpt lat="47.36743" lon="6.86992">
        <ele>675.5</ele>
        <time>2021-08-10T15:47:44Z</time>
      </trkpt>
      <trkpt lat="47.36742" lon="6.86985">
        <ele>675.7</ele>
        <time>2021-08-10T15:47:45Z</time>
      </trkpt>
      <trkpt lat="47.36742" lon="6.86981">
        <ele>675.8</ele>
        <time>2021-08-10T15:47:47Z</time>
      </trkpt>
      <trkpt lat="47.36742" lon="6.8698">
        <ele>675.9</ele>
        <time>2021-08-10T15:47:48Z</time>
      </trkpt>
      <trkpt lat="47.36741" lon="6.8698">
        <ele>675.9</ele>
        <time>2021-08-10T15:47:49Z</time>
      </trkpt>
      <trkpt lat="47.36741" lon="6.86979">
        <ele>675.9</ele>
        <time>2021-08-10T15:47:50Z</time>
      </trkpt>
      <trkpt lat="47.36741" lon="6.86978">
        <ele>676</ele>
        <time>2021-08-10T15:47:51Z</time>
      </trkpt>
      <trkpt lat="47.3674" lon="6.86976">
        <ele>676.1</ele>
        <time>2021-08-10T15:47:52Z</time>
      </trkpt>
      <trkpt lat="47.3674" lon="6.86974">
        <ele>676.1</ele>
        <time>2021-08-10T15:47:53Z</time>
      </trkpt>
      <trkpt lat="47.36739" lon="6.86972">
        <ele>676.2</ele>
        <time>2021-08-10T15:47:54Z</time>
      </trkpt>
      <trkpt lat="47.36713" lon="6.86861">
        <ele>682.2</ele>
        <time>2021-08-10T15:49:12Z</time>
      </trkpt>
      <trkpt lat="47.36714" lon="6.86858">
        <ele>682.4</ele>
        <time>2021-08-10T15:49:13Z</time>
      </trkpt>
      <trkpt lat="47.36715" lon="6.86855">
        <ele>682.6</ele>
        <time>2021-08-10T15:49:15Z</time>
      </trkpt>
      <trkpt lat="47.36716" lon="6.86852">
        <ele>682.9</ele>
        <time>2021-08-10T15:49:16Z</time>
      </trkpt>
      <trkpt lat="47.36716" lon="6.86851">
        <ele>682.9</ele>
        <time>2021-08-10T15:49:19Z</time>
      </trkpt>
      <trkpt lat="47.36716" lon="6.8685">
        <ele>683</ele>
        <time>2021-08-10T15:49:20Z</time>
      </trkpt>
      <trkpt lat="47.36716" lon="6.86849">
        <ele>683.1</ele>
        <time>2021-08-10T15:49:21Z</time>
      </trkpt>
      <trkpt lat="47.36716" lon="6.86848">
        <ele>683.2</ele>
        <time>2021-08-10T15:49:23Z</time>
      </trkpt>
      <trkpt lat="47.36716" lon="6.86846">
        <ele>683.3</ele>
        <time>2021-08-10T15:49:25Z</time>
      </trkpt>
      <trkpt lat="47.36716" lon="6.86845">
        <ele>683.4</ele>
        <time>2021-08-10T15:49:26Z</time>
      </trkpt>
      <trkpt lat="47.36714" lon="6.86842">
        <ele>683.6</ele>
        <time>2021-08-10T15:49:27Z</time>
      </trkpt>
      <trkpt lat="47.36713" lon="6.86841">
        <ele>683.8</ele>
        <time>2021-08-10T15:49:28Z</time>
      </trkpt>
      <trkpt lat="47.36711" lon="6.86837">
        <ele>684.2</ele>
        <time>2021-08-10T15:49:31Z</time>
      </trkpt>
      <trkpt lat="47.3671" lon="6.86835">
        <ele>684.3</ele>
        <time>2021-08-10T15:49:33Z</time>
      </trkpt>
      <trkpt lat="47.36708" lon="6.86834">
        <ele>684.6</ele>
        <time>2021-08-10T15:49:34Z</time>
      </trkpt>
      <trkpt lat="47.36699" lon="6.86828">
        <ele>685.7</ele>
        <time>2021-08-10T15:49:35Z</time>
      </trkpt>
      <trkpt lat="47.36693" lon="6.86825">
        <ele>686.5</ele>
        <time>2021-08-10T15:49:37Z</time>
      </trkpt>
      <trkpt lat="47.36689" lon="6.86824">
        <ele>686.9</ele>
        <time>2021-08-10T15:49:39Z</time>
      </trkpt>
      <trkpt lat="47.36687" lon="6.86823">
        <ele>687.1</ele>
        <time>2021-08-10T15:49:40Z</time>
      </trkpt>
      <trkpt lat="47.36685" lon="6.86822">
        <ele>687.3</ele>
        <time>2021-08-10T15:49:42Z</time>
      </trkpt>
      <trkpt lat="47.36685" lon="6.86821">
        <ele>687.4</ele>
        <time>2021-08-10T15:49:43Z</time>
      </trkpt>
      <trkpt lat="47.36684" lon="6.8682">
        <ele>687.5</ele>
        <time>2021-08-10T15:49:45Z</time>
      </trkpt>
      <trkpt lat="47.36684" lon="6.8682">
        <ele>687.6</ele>
        <time>2021-08-10T15:49:46Z</time>
      </trkpt>
      <trkpt lat="47.36684" lon="6.86819">
        <ele>687.6</ele>
        <time>2021-08-10T15:49:47Z</time>
      </trkpt>
      <trkpt lat="47.36684" lon="6.86818">
        <ele>687.7</ele>
        <time>2021-08-10T15:49:48Z</time>
      </trkpt>
      <trkpt lat="47.36685" lon="6.86815">
        <ele>687.9</ele>
        <time>2021-08-10T15:49:49Z</time>
      </trkpt>
      <trkpt lat="47.36687" lon="6.86813">
        <ele>688.1</ele>
        <time>2021-08-10T15:49:51Z</time>
      </trkpt>
      <trkpt lat="47.36688" lon="6.86811">
        <ele>688.3</ele>
        <time>2021-08-10T15:49:52Z</time>
      </trkpt>
      <trkpt lat="47.36689" lon="6.8681">
        <ele>688.5</ele>
        <time>2021-08-10T15:49:53Z</time>
      </trkpt>
      <trkpt lat="47.36692" lon="6.86805">
        <ele>688.9</ele>
        <time>2021-08-10T15:49:55Z</time>
      </trkpt>
      <trkpt lat="47.36692" lon="6.86803">
        <ele>689</ele>
        <time>2021-08-10T15:49:57Z</time>
      </trkpt>
      <trkpt lat="47.36692" lon="6.86801">
        <ele>689.2</ele>
        <time>2021-08-10T15:49:58Z</time>
      </trkpt>
      <trkpt lat="47.36693" lon="6.868">
        <ele>689.2</ele>
        <time>2021-08-10T15:49:59Z</time>
      </trkpt>
      <trkpt lat="47.36693" lon="6.86799">
        <ele>689.3</ele>
        <time>2021-08-10T15:50:01Z</time>
      </trkpt>
      <trkpt lat="47.36693" lon="6.86798">
        <ele>689.4</ele>
        <time>2021-08-10T15:50:02Z</time>
      </trkpt>
      <trkpt lat="47.36693" lon="6.86796">
        <ele>689.5</ele>
        <time>2021-08-10T15:50:03Z</time>
      </trkpt>
      <trkpt lat="47.36693" lon="6.86794">
        <ele>689.6</ele>
        <time>2021-08-10T15:50:04Z</time>
      </trkpt>
      <trkpt lat="47.36692" lon="6.86791">
        <ele>689.9</ele>
        <time>2021-08-10T15:50:06Z</time>
      </trkpt>
      <trkpt lat="47.36692" lon="6.86789">
        <ele>690</ele>
        <time>2021-08-10T15:50:07Z</time>
      </trkpt>
      <trkpt lat="47.36692" lon="6.86787">
        <ele>690.2</ele>
        <time>2021-08-10T15:50:08Z</time>
      </trkpt>
      <trkpt lat="47.36692" lon="6.86785">
        <ele>690.3</ele>
        <time>2021-08-10T15:50:09Z</time>
      </trkpt>
      <trkpt lat="47.36692" lon="6.86783">
        <ele>690.4</ele>
        <time>2021-08-10T15:50:11Z</time>
      </trkpt>
      <trkpt lat="47.36692" lon="6.86782">
        <ele>690.5</ele>
        <time>2021-08-10T15:50:12Z</time>
      </trkpt>
      <trkpt lat="47.36692" lon="6.86779">
        <ele>690.7</ele>
        <time>2021-08-10T15:50:14Z</time>
      </trkpt>
      <trkpt lat="47.36691" lon="6.86778">
        <ele>690.8</ele>
        <time>2021-08-10T15:50:15Z</time>
      </trkpt>
      <trkpt lat="47.3669" lon="6.86777">
        <ele>690.9</ele>
        <time>2021-08-10T15:50:17Z</time>
      </trkpt>
      <trkpt lat="47.36689" lon="6.86776">
        <ele>691</ele>
        <time>2021-08-10T15:50:18Z</time>
      </trkpt>
      <trkpt lat="47.36689" lon="6.86775">
        <ele>691.2</ele>
        <time>2021-08-10T15:50:20Z</time>
      </trkpt>
      <trkpt lat="47.36688" lon="6.86774">
        <ele>691.3</ele>
        <time>2021-08-10T15:50:22Z</time>
      </trkpt>
      <trkpt lat="47.36687" lon="6.86773">
        <ele>691.4</ele>
        <time>2021-08-10T15:50:23Z</time>
      </trkpt>
      <trkpt lat="47.36685" lon="6.86771">
        <ele>691.7</ele>
        <time>2021-08-10T15:50:24Z</time>
      </trkpt>
      <trkpt lat="47.36682" lon="6.86769">
        <ele>692.1</ele>
        <time>2021-08-10T15:50:26Z</time>
      </trkpt>
      <trkpt lat="47.3668" lon="6.86767">
        <ele>692.3</ele>
        <time>2021-08-10T15:50:27Z</time>
      </trkpt>
      <trkpt lat="47.36677" lon="6.86765">
        <ele>692.7</ele>
        <time>2021-08-10T15:50:29Z</time>
      </trkpt>
      <trkpt lat="47.36674" lon="6.86762">
        <ele>693.2</ele>
        <time>2021-08-10T15:50:30Z</time>
      </trkpt>
      <trkpt lat="47.36673" lon="6.86761">
        <ele>693.3</ele>
        <time>2021-08-10T15:50:31Z</time>
      </trkpt>
      <trkpt lat="47.36669" lon="6.86758">
        <ele>693.7</ele>
        <time>2021-08-10T15:50:33Z</time>
      </trkpt>
      <trkpt lat="47.36668" lon="6.86757">
        <ele>693.9</ele>
        <time>2021-08-10T15:50:34Z</time>
      </trkpt>
      <trkpt lat="47.36668" lon="6.86756">
        <ele>694</ele>
        <time>2021-08-10T15:50:35Z</time>
      </trkpt>
      <trkpt lat="47.36665" lon="6.86755">
        <ele>694.2</ele>
        <time>2021-08-10T15:50:37Z</time>
      </trkpt>
      <trkpt lat="47.36662" lon="6.86754">
        <ele>694.6</ele>
        <time>2021-08-10T15:50:38Z</time>
      </trkpt>
      <trkpt lat="47.3666" lon="6.86753">
        <ele>694.9</ele>
        <time>2021-08-10T15:50:39Z</time>
      </trkpt>
      <trkpt lat="47.36659" lon="6.86753">
        <ele>695</ele>
        <time>2021-08-10T15:50:40Z</time>
      </trkpt>
      <trkpt lat="47.36658" lon="6.86753">
        <ele>695</ele>
        <time>2021-08-10T15:50:41Z</time>
      </trkpt>
      <trkpt lat="47.36657" lon="6.86752">
        <ele>695.2</ele>
        <time>2021-08-10T15:50:43Z</time>
      </trkpt>
      <trkpt lat="47.36657" lon="6.86752">
        <ele>695.3</ele>
        <time>2021-08-10T15:50:44Z</time>
      </trkpt>
      <trkpt lat="47.36656" lon="6.8675">
        <ele>695.4</ele>
        <time>2021-08-10T15:50:45Z</time>
      </trkpt>
      <trkpt lat="47.36656" lon="6.86749">
        <ele>695.5</ele>
        <time>2021-08-10T15:50:46Z</time>
      </trkpt>
      <trkpt lat="47.36656" lon="6.86748">
        <ele>695.6</ele>
        <time>2021-08-10T15:50:47Z</time>
      </trkpt>
      <trkpt lat="47.36656" lon="6.86745">
        <ele>695.7</ele>
        <time>2021-08-10T15:50:49Z</time>
      </trkpt>
      <trkpt lat="47.36656" lon="6.86744">
        <ele>695.8</ele>
        <time>2021-08-10T15:50:50Z</time>
      </trkpt>
      <trkpt lat="47.36656" lon="6.86743">
        <ele>695.9</ele>
        <time>2021-08-10T15:50:51Z</time>
      </trkpt>
      <trkpt lat="47.36656" lon="6.86742">
        <ele>696</ele>
        <time>2021-08-10T15:50:53Z</time>
      </trkpt>
      <trkpt lat="47.36592" lon="6.86654">
        <ele>705.9</ele>
        <time>2021-08-10T15:53:39Z</time>
      </trkpt>
      <trkpt lat="47.36591" lon="6.86661">
        <ele>707.5</ele>
        <time>2021-08-10T15:53:41Z</time>
      </trkpt>
      <trkpt lat="47.3659" lon="6.86669">
        <ele>708.1</ele>
        <time>2021-08-10T15:53:42Z</time>
      </trkpt>
      <trkpt lat="47.36588" lon="6.86676">
        <ele>708.6</ele>
        <time>2021-08-10T15:53:43Z</time>
      </trkpt>
      <trkpt lat="47.36587" lon="6.86681">
        <ele>709.1</ele>
        <time>2021-08-10T15:53:44Z</time>
      </trkpt>
      <trkpt lat="47.36585" lon="6.86686">
        <ele>709.4</ele>
        <time>2021-08-10T15:53:46Z</time>
      </trkpt>
      <trkpt lat="47.3658" lon="6.86689">
        <ele>709.9</ele>
        <time>2021-08-10T15:53:47Z</time>
      </trkpt>
      <trkpt lat="47.36578" lon="6.8669">
        <ele>710.1</ele>
        <time>2021-08-10T15:53:48Z</time>
      </trkpt>
      <trkpt lat="47.36579" lon="6.86692">
        <ele>710.3</ele>
        <time>2021-08-10T15:53:49Z</time>
      </trkpt>
      <trkpt lat="47.3658" lon="6.86696">
        <ele>710.6</ele>
        <time>2021-08-10T15:53:51Z</time>
      </trkpt>
      <trkpt lat="47.3658" lon="6.86698">
        <ele>710.7</ele>
        <time>2021-08-10T15:53:52Z</time>
      </trkpt>
      <trkpt lat="47.36582" lon="6.86698">
        <ele>710.9</ele>
        <time>2021-08-10T15:53:54Z</time>
      </trkpt>
      <trkpt lat="47.36583" lon="6.86698">
        <ele>711</ele>
        <time>2021-08-10T15:53:55Z</time>
      </trkpt>
      <trkpt lat="47.36584" lon="6.86698">
        <ele>711</ele>
        <time>2021-08-10T15:53:56Z</time>
      </trkpt>
      <trkpt lat="47.36584" lon="6.86698">
        <ele>711</ele>
        <time>2021-08-10T15:53:57Z</time>
      </trkpt>
      <trkpt lat="47.36584" lon="6.86699">
        <ele>711</ele>
        <time>2021-08-10T15:53:59Z</time>
      </trkpt>
      <trkpt lat="47.36583" lon="6.86699">
        <ele>711.1</ele>
        <time>2021-08-10T15:54:00Z</time>
      </trkpt>
      <trkpt lat="47.36583" lon="6.86701">
        <ele>711.2</ele>
        <time>2021-08-10T15:54:02Z</time>
      </trkpt>
      <trkpt lat="47.36595" lon="6.86813">
        <ele>718.2</ele>
        <time>2021-08-10T15:55:19Z</time>
      </trkpt>
      <trkpt lat="47.36594" lon="6.86817">
        <ele>718.5</ele>
        <time>2021-08-10T15:55:20Z</time>
      </trkpt>
      <trkpt lat="47.36594" lon="6.86818">
        <ele>718.5</ele>
        <time>2021-08-10T15:55:22Z</time>
      </trkpt>
      <trkpt lat="47.36594" lon="6.86819">
        <ele>718.6</ele>
        <time>2021-08-10T15:55:23Z</time>
      </trkpt>
      <trkpt lat="47.36594" lon="6.8682">
        <ele>718.7</ele>
        <time>2021-08-10T15:55:24Z</time>
      </trkpt>
      <trkpt lat="47.36593" lon="6.8682">
        <ele>718.7</ele>
        <time>2021-08-10T15:55:26Z</time>
      </trkpt>
      <trkpt lat="47.36593" lon="6.86821">
        <ele>718.7</ele>
        <time>2021-08-10T15:55:27Z</time>
      </trkpt>
      <trkpt lat="47.36593" lon="6.86821">
        <ele>718.7</ele>
        <time>2021-08-10T15:55:28Z</time>
      </trkpt>
      <trkpt lat="47.36592" lon="6.86823">
        <ele>718.9</ele>
        <time>2021-08-10T15:55:30Z</time>
      </trkpt>
      <trkpt lat="47.36592" lon="6.86824">
        <ele>719</ele>
        <time>2021-08-10T15:55:32Z</time>
      </trkpt>
      <trkpt lat="47.36591" lon="6.86826">
        <ele>719.1</ele>
        <time>2021-08-10T15:55:34Z</time>
      </trkpt>
      <trkpt lat="47.36591" lon="6.86827">
        <ele>719.2</ele>
        <time>2021-08-10T15:55:35Z</time>
      </trkpt>
      <trkpt lat="47.3659" lon="6.8683">
        <ele>719.3</ele>
        <time>2021-08-10T15:55:36Z</time>
      </trkpt>
      <trkpt lat="47.36589" lon="6.86833">
        <ele>719.6</ele>
        <time>2021-08-10T15:55:38Z</time>
      </trkpt>
      <trkpt lat="47.36586" lon="6.86837">
        <ele>719.9</ele>
        <time>2021-08-10T15:55:39Z</time>
      </trkpt>
      <trkpt lat="47.36586" lon="6.86838">
        <ele>720</ele>
        <time>2021-08-10T15:55:40Z</time>
      </trkpt>
      <trkpt lat="47.36585" lon="6.8684">
        <ele>720.1</ele>
        <time>2021-08-10T15:55:41Z</time>
      </trkpt>
      <trkpt lat="47.36583" lon="6.86843">
        <ele>720.4</ele>
        <time>2021-08-10T15:55:43Z</time>
      </trkpt>
      <trkpt lat="47.36582" lon="6.86845">
        <ele>720.5</ele>
        <time>2021-08-10T15:55:44Z</time>
      </trkpt>
      <trkpt lat="47.36581" lon="6.86846">
        <ele>720.6</ele>
        <time>2021-08-10T15:55:46Z</time>
      </trkpt>
      <trkpt lat="47.36581" lon="6.86847">
        <ele>720.7</ele>
        <time>2021-08-10T15:55:47Z</time>
      </trkpt>
      <trkpt lat="47.36581" lon="6.86848">
        <ele>720.8</ele>
        <time>2021-08-10T15:55:48Z</time>
      </trkpt>
      <trkpt lat="47.36581" lon="6.86849">
        <ele>720.8</ele>
        <time>2021-08-10T15:55:49Z</time>
      </trkpt>
      <trkpt lat="47.3658" lon="6.86852">
        <ele>721</ele>
        <time>2021-08-10T15:55:51Z</time>
      </trkpt>
      <trkpt lat="47.3658" lon="6.86853">
        <ele>721</ele>
        <time>2021-08-10T15:55:52Z</time>
      </trkpt>
      <trkpt lat="47.36581" lon="6.86854">
        <ele>721.1</ele>
        <time>2021-08-10T15:55:54Z</time>
      </trkpt>
      <trkpt lat="47.36581" lon="6.86855">
        <ele>721.2</ele>
        <time>2021-08-10T15:55:55Z</time>
      </trkpt>
      <trkpt lat="47.36582" lon="6.86856">
        <ele>721.3</ele>
        <time>2021-08-10T15:55:57Z</time>
      </trkpt>
      <trkpt lat="47.36584" lon="6.86858">
        <ele>721.5</ele>
        <time>2021-08-10T15:55:58Z</time>
      </trkpt>
      <trkpt lat="47.36584" lon="6.86859">
        <ele>721.6</ele>
        <time>2021-08-10T15:55:59Z</time>
      </trkpt>
      <trkpt lat="47.36585" lon="6.8686">
        <ele>721.7</ele>
        <time>2021-08-10T15:56:00Z</time>
      </trkpt>
      <trkpt lat="47.36586" lon="6.86863">
        <ele>721.9</ele>
        <time>2021-08-10T15:56:02Z</time>
      </trkpt>
      <trkpt lat="47.36587" lon="6.86865">
        <ele>722</ele>
        <time>2021-08-10T15:56:03Z</time>
      </trkpt>
      <trkpt lat="47.36587" lon="6.86868">
        <ele>722.2</ele>
        <time>2021-08-10T15:56:04Z</time>
      </trkpt>
      <trkpt lat="47.36587" lon="6.86869">
        <ele>722.3</ele>
        <time>2021-08-10T15:56:05Z</time>
      </trkpt>
      <trkpt lat="47.36586" lon="6.86872">
        <ele>722.4</ele>
        <time>2021-08-10T15:56:06Z</time>
      </trkpt>
      <trkpt lat="47.36585" lon="6.86873">
        <ele>722.5</ele>
        <time>2021-08-10T15:56:07Z</time>
      </trkpt>
      <trkpt lat="47.36585" lon="6.86874">
        <ele>722.6</ele>
        <time>2021-08-10T15:56:08Z</time>
      </trkpt>
      <trkpt lat="47.36582" lon="6.86878">
        <ele>722.9</ele>
        <time>2021-08-10T15:56:10Z</time>
      </trkpt>
      <trkpt lat="47.36581" lon="6.86879">
        <ele>723</ele>
        <time>2021-08-10T15:56:11Z</time>
      </trkpt>
      <trkpt lat="47.36575" lon="6.86884">
        <ele>723.6</ele>
        <time>2021-08-10T15:56:13Z</time>
      </trkpt>
      <trkpt lat="47.36569" lon="6.86888">
        <ele>724</ele>
        <time>2021-08-10T15:56:14Z</time>
      </trkpt>
      <trkpt lat="47.36561" lon="6.86894">
        <ele>724.8</ele>
        <time>2021-08-10T15:56:15Z</time>
      </trkpt>
      <trkpt lat="47.36557" lon="6.86898">
        <ele>725.1</ele>
        <time>2021-08-10T15:56:16Z</time>
      </trkpt>
      <trkpt lat="47.36556" lon="6.86899">
        <ele>725.2</ele>
        <time>2021-08-10T15:56:17Z</time>
      </trkpt>
      <trkpt lat="47.36556" lon="6.86901">
        <ele>725.3</ele>
        <time>2021-08-10T15:56:19Z</time>
      </trkpt>
      <trkpt lat="47.36556" lon="6.86902">
        <ele>725.4</ele>
        <time>2021-08-10T15:56:20Z</time>
      </trkpt>
      <trkpt lat="47.36557" lon="6.86905">
        <ele>725.5</ele>
        <time>2021-08-10T15:56:21Z</time>
      </trkpt>
      <trkpt lat="47.36557" lon="6.86908">
        <ele>725.7</ele>
        <time>2021-08-10T15:56:22Z</time>
      </trkpt>
      <trkpt lat="47.36556" lon="6.86911">
        <ele>725.9</ele>
        <time>2021-08-10T15:56:24Z</time>
      </trkpt>
      <trkpt lat="47.36555" lon="6.86913">
        <ele>726</ele>
        <time>2021-08-10T15:56:25Z</time>
      </trkpt>
      <trkpt lat="47.36555" lon="6.86915">
        <ele>726</ele>
        <time>2021-08-10T15:56:26Z</time>
      </trkpt>
      <trkpt lat="47.36554" lon="6.86917">
        <ele>726.2</ele>
        <time>2021-08-10T15:56:28Z</time>
      </trkpt>
      <trkpt lat="47.36555" lon="6.8692">
        <ele>726.3</ele>
        <time>2021-08-10T15:56:30Z</time>
      </trkpt>
      <trkpt lat="47.36555" lon="6.86921">
        <ele>726.4</ele>
        <time>2021-08-10T15:56:31Z</time>
      </trkpt>
      <trkpt lat="47.36556" lon="6.86922">
        <ele>726.4</ele>
        <time>2021-08-10T15:56:32Z</time>
      </trkpt>
      <trkpt lat="47.36557" lon="6.86923">
        <ele>726.5</ele>
        <time>2021-08-10T15:56:34Z</time>
      </trkpt>
      <trkpt lat="47.36557" lon="6.86924">
        <ele>726.6</ele>
        <time>2021-08-10T15:56:35Z</time>
      </trkpt>
      <trkpt lat="47.36558" lon="6.86924">
        <ele>726.6</ele>
        <time>2021-08-10T15:56:36Z</time>
      </trkpt>
      <trkpt lat="47.3656" lon="6.86926">
        <ele>726.8</ele>
        <time>2021-08-10T15:56:38Z</time>
      </trkpt>
      <trkpt lat="47.36562" lon="6.86928">
        <ele>727</ele>
        <time>2021-08-10T15:56:40Z</time>
      </trkpt>
      <trkpt lat="47.36563" lon="6.8693">
        <ele>727.1</ele>
        <time>2021-08-10T15:56:41Z</time>
      </trkpt>
      <trkpt lat="47.36564" lon="6.86931">
        <ele>727.2</ele>
        <time>2021-08-10T15:56:42Z</time>
      </trkpt>
      <trkpt lat="47.36565" lon="6.86932">
        <ele>727.3</ele>
        <time>2021-08-10T15:56:43Z</time>
      </trkpt>
      <trkpt lat="47.36565" lon="6.86935">
        <ele>727.5</ele>
        <time>2021-08-10T15:56:45Z</time>
      </trkpt>
      <trkpt lat="47.36566" lon="6.86939">
        <ele>727.7</ele>
        <time>2021-08-10T15:56:47Z</time>
      </trkpt>
      <trkpt lat="47.36567" lon="6.86941">
        <ele>727.8</ele>
        <time>2021-08-10T15:56:49Z</time>
      </trkpt>
      <trkpt lat="47.36567" lon="6.86943">
        <ele>727.9</ele>
        <time>2021-08-10T15:56:50Z</time>
      </trkpt>
      <trkpt lat="47.36567" lon="6.86944">
        <ele>728</ele>
        <time>2021-08-10T15:56:51Z</time>
      </trkpt>
      <trkpt lat="47.36567" lon="6.86945">
        <ele>728</ele>
        <time>2021-08-10T15:56:52Z</time>
      </trkpt>
      <trkpt lat="47.36567" lon="6.86947">
        <ele>728.1</ele>
        <time>2021-08-10T15:56:54Z</time>
      </trkpt>
      <trkpt lat="47.36567" lon="6.86948">
        <ele>728.2</ele>
        <time>2021-08-10T15:56:55Z</time>
      </trkpt>
      <trkpt lat="47.36566" lon="6.8695">
        <ele>728.3</ele>
        <time>2021-08-10T15:56:56Z</time>
      </trkpt>
      <trkpt lat="47.36566" lon="6.86951">
        <ele>728.4</ele>
        <time>2021-08-10T15:56:57Z</time>
      </trkpt>
      <trkpt lat="47.36565" lon="6.86954">
        <ele>728.6</ele>
        <time>2021-08-10T15:56:59Z</time>
      </trkpt>
      <trkpt lat="47.36564" lon="6.86956">
        <ele>728.7</ele>
        <time>2021-08-10T15:57:01Z</time>
      </trkpt>
      <trkpt lat="47.36563" lon="6.86957">
        <ele>728.8</ele>
        <time>2021-08-10T15:57:02Z</time>
      </trkpt>
      <trkpt lat="47.36562" lon="6.86959">
        <ele>729</ele>
        <time>2021-08-10T15:57:03Z</time>
      </trkpt>
      <trkpt lat="47.36561" lon="6.86961">
        <ele>729.1</ele>
        <time>2021-08-10T15:57:05Z</time>
      </trkpt>
      <trkpt lat="47.3656" lon="6.86961">
        <ele>729.2</ele>
        <time>2021-08-10T15:57:06Z</time>
      </trkpt>
      <trkpt lat="47.36559" lon="6.86962">
        <ele>729.2</ele>
        <time>2021-08-10T15:57:07Z</time>
      </trkpt>
      <trkpt lat="47.36559" lon="6.86962">
        <ele>729.3</ele>
        <time>2021-08-10T15:57:08Z</time>
      </trkpt>
      <trkpt lat="47.36558" lon="6.86962">
        <ele>729.3</ele>
        <time>2021-08-10T15:57:09Z</time>
      </trkpt>
      <trkpt lat="47.36558" lon="6.86963">
        <ele>729.3</ele>
        <time>2021-08-10T15:57:11Z</time>
      </trkpt>
      <trkpt lat="47.36558" lon="6.86963">
        <ele>729.4</ele>
        <time>2021-08-10T15:57:12Z</time>
      </trkpt>
      <trkpt lat="47.36557" lon="6.86963">
        <ele>729.5</ele>
        <time>2021-08-10T15:57:13Z</time>
      </trkpt>
      <trkpt lat="47.36555" lon="6.86963">
        <ele>729.6</ele>
        <time>2021-08-10T15:57:14Z</time>
      </trkpt>
      <trkpt lat="47.36551" lon="6.86962">
        <ele>729.9</ele>
        <time>2021-08-10T15:57:16Z</time>
      </trkpt>
      <trkpt lat="47.36548" lon="6.86962">
        <ele>730.2</ele>
        <time>2021-08-10T15:57:17Z</time>
      </trkpt>
      <trkpt lat="47.36547" lon="6.86962">
        <ele>730.3</ele>
        <time>2021-08-10T15:57:18Z</time>
      </trkpt>
      <trkpt lat="47.36543" lon="6.86961">
        <ele>730.5</ele>
        <time>2021-08-10T15:57:19Z</time>
      </trkpt>
      <trkpt lat="47.36542" lon="6.86961">
        <ele>730.6</ele>
        <time>2021-08-10T15:57:20Z</time>
      </trkpt>
      <trkpt lat="47.36539" lon="6.86959">
        <ele>730.9</ele>
        <time>2021-08-10T15:57:22Z</time>
      </trkpt>
      <trkpt lat="47.36538" lon="6.86958">
        <ele>730.9</ele>
        <time>2021-08-10T15:57:23Z</time>
      </trkpt>
      <trkpt lat="47.36535" lon="6.86955">
        <ele>731.2</ele>
        <time>2021-08-10T15:57:24Z</time>
      </trkpt>
      <trkpt lat="47.36534" lon="6.86954">
        <ele>731.3</ele>
        <time>2021-08-10T15:57:25Z</time>
      </trkpt>
      <trkpt lat="47.36532" lon="6.86952">
        <ele>731.5</ele>
        <time>2021-08-10T15:57:27Z</time>
      </trkpt>
      <trkpt lat="47.36529" lon="6.86951">
        <ele>731.8</ele>
        <time>2021-08-10T15:57:28Z</time>
      </trkpt>
      <trkpt lat="47.36527" lon="6.8695">
        <ele>732</ele>
        <time>2021-08-10T15:57:29Z</time>
      </trkpt>
      <trkpt lat="47.36525" lon="6.86949">
        <ele>732.1</ele>
        <time>2021-08-10T15:57:30Z</time>
      </trkpt>
      <trkpt lat="47.36522" lon="6.86949">
        <ele>732.3</ele>
        <time>2021-08-10T15:57:32Z</time>
      </trkpt>
      <trkpt lat="47.36521" lon="6.8695">
        <ele>732.5</ele>
        <time>2021-08-10T15:57:33Z</time>
      </trkpt>
      <trkpt lat="47.3652" lon="6.8695">
        <ele>732.6</ele>
        <time>2021-08-10T15:57:34Z</time>
      </trkpt>
      <trkpt lat="47.36519" lon="6.86951">
        <ele>732.6</ele>
        <time>2021-08-10T15:57:35Z</time>
      </trkpt>
      <trkpt lat="47.36519" lon="6.86951">
        <ele>732.7</ele>
        <time>2021-08-10T15:57:37Z</time>
      </trkpt>
      <trkpt lat="47.36519" lon="6.86952">
        <ele>732.7</ele>
        <time>2021-08-10T15:57:38Z</time>
      </trkpt>
      <trkpt lat="47.36518" lon="6.86952">
        <ele>732.7</ele>
        <time>2021-08-10T15:57:39Z</time>
      </trkpt>
      <trkpt lat="47.36518" lon="6.86952">
        <ele>732.8</ele>
        <time>2021-08-10T15:57:40Z</time>
      </trkpt>
      <trkpt lat="47.36516" lon="6.86952">
        <ele>732.9</ele>
        <time>2021-08-10T15:57:42Z</time>
      </trkpt>
      <trkpt lat="47.36515" lon="6.86952">
        <ele>733</ele>
        <time>2021-08-10T15:57:43Z</time>
      </trkpt>
      <trkpt lat="47.36513" lon="6.86951">
        <ele>733.2</ele>
        <time>2021-08-10T15:57:44Z</time>
      </trkpt>
      <trkpt lat="47.36512" lon="6.86951">
        <ele>733.3</ele>
        <time>2021-08-10T15:57:46Z</time>
      </trkpt>
      <trkpt lat="47.3651" lon="6.8695">
        <ele>733.5</ele>
        <time>2021-08-10T15:57:48Z</time>
      </trkpt>
      <trkpt lat="47.36509" lon="6.8695">
        <ele>733.6</ele>
        <time>2021-08-10T15:57:49Z</time>
      </trkpt>
      <trkpt lat="47.36508" lon="6.8695">
        <ele>733.6</ele>
        <time>2021-08-10T15:57:50Z</time>
      </trkpt>
      <trkpt lat="47.36507" lon="6.8695">
        <ele>733.7</ele>
        <time>2021-08-10T15:57:52Z</time>
      </trkpt>
      <trkpt lat="47.36506" lon="6.8695">
        <ele>733.8</ele>
        <time>2021-08-10T15:57:53Z</time>
      </trkpt>
      <trkpt lat="47.36506" lon="6.8695">
        <ele>733.9</ele>
        <time>2021-08-10T15:57:54Z</time>
      </trkpt>
      <trkpt lat="47.36505" lon="6.8695">
        <ele>734</ele>
        <time>2021-08-10T15:57:55Z</time>
      </trkpt>
      <trkpt lat="47.36504" lon="6.86949">
        <ele>734</ele>
        <time>2021-08-10T15:57:56Z</time>
      </trkpt>
      <trkpt lat="47.36502" lon="6.86947">
        <ele>734.3</ele>
        <time>2021-08-10T15:57:58Z</time>
      </trkpt>
      <trkpt lat="47.36501" lon="6.86943">
        <ele>734.6</ele>
        <time>2021-08-10T15:58:00Z</time>
      </trkpt>
      <trkpt lat="47.365" lon="6.86941">
        <ele>734.7</ele>
        <time>2021-08-10T15:58:01Z</time>
      </trkpt>
      <trkpt lat="47.365" lon="6.86939">
        <ele>734.9</ele>
        <time>2021-08-10T15:58:02Z</time>
      </trkpt>
      <trkpt lat="47.36498" lon="6.86935">
        <ele>735.1</ele>
        <time>2021-08-10T15:58:03Z</time>
      </trkpt>
      <trkpt lat="47.36498" lon="6.86932">
        <ele>735.4</ele>
        <time>2021-08-10T15:58:05Z</time>
      </trkpt>
      <trkpt lat="47.36497" lon="6.8693">
        <ele>735.5</ele>
        <time>2021-08-10T15:58:06Z</time>
      </trkpt>
      <trkpt lat="47.36497" lon="6.86928">
        <ele>735.6</ele>
        <time>2021-08-10T15:58:07Z</time>
      </trkpt>
      <trkpt lat="47.36497" lon="6.86926">
        <ele>735.8</ele>
        <time>2021-08-10T15:58:09Z</time>
      </trkpt>
      <trkpt lat="47.36496" lon="6.86925">
        <ele>735.9</ele>
        <time>2021-08-10T15:58:10Z</time>
      </trkpt>
      <trkpt lat="47.36496" lon="6.86924">
        <ele>736</ele>
        <time>2021-08-10T15:58:12Z</time>
      </trkpt>
      <trkpt lat="47.36496" lon="6.86924">
        <ele>736</ele>
        <time>2021-08-10T15:58:13Z</time>
      </trkpt>
      <trkpt lat="47.36496" lon="6.86924">
        <ele>736</ele>
        <time>2021-08-10T15:58:14Z</time>
      </trkpt>
      <trkpt lat="47.36495" lon="6.86924">
        <ele>736</ele>
        <time>2021-08-10T15:58:16Z</time>
      </trkpt>
      <trkpt lat="47.36495" lon="6.86924">
        <ele>736</ele>
        <time>2021-08-10T15:58:17Z</time>
      </trkpt>
      <trkpt lat="47.36495" lon="6.86924">
        <ele>736</ele>
        <time>2021-08-10T15:58:19Z</time>
      </trkpt>
      <trkpt lat="47.36475" lon="6.86877">
        <ele>740.2</ele>
        <time>2021-08-10T15:59:10Z</time>
      </trkpt>
      <trkpt lat="47.36475" lon="6.86872">
        <ele>740.6</ele>
        <time>2021-08-10T15:59:11Z</time>
      </trkpt>
      <trkpt lat="47.36477" lon="6.86866">
        <ele>741.2</ele>
        <time>2021-08-10T15:59:12Z</time>
      </trkpt>
      <trkpt lat="47.36478" lon="6.86861">
        <ele>741.6</ele>
        <time>2021-08-10T15:59:14Z</time>
      </trkpt>
      <trkpt lat="47.3648" lon="6.86855">
        <ele>742.1</ele>
        <time>2021-08-10T15:59:15Z</time>
      </trkpt>
      <trkpt lat="47.36481" lon="6.86854">
        <ele>742.3</ele>
        <time>2021-08-10T15:59:16Z</time>
      </trkpt>
      <trkpt lat="47.3648" lon="6.86853">
        <ele>742.3</ele>
        <time>2021-08-10T15:59:17Z</time>
      </trkpt>
      <trkpt lat="47.3648" lon="6.86853">
        <ele>742.4</ele>
        <time>2021-08-10T15:59:19Z</time>
      </trkpt>
      <trkpt lat="47.3648" lon="6.86852">
        <ele>742.4</ele>
        <time>2021-08-10T15:59:20Z</time>
      </trkpt>
      <trkpt lat="47.36481" lon="6.86851">
        <ele>742.5</ele>
        <time>2021-08-10T15:59:21Z</time>
      </trkpt>
      <trkpt lat="47.36481" lon="6.86849">
        <ele>742.7</ele>
        <time>2021-08-10T15:59:22Z</time>
      </trkpt>
      <trkpt lat="47.3648" lon="6.86846">
        <ele>742.9</ele>
        <time>2021-08-10T15:59:24Z</time>
      </trkpt>
      <trkpt lat="47.3648" lon="6.86844">
        <ele>743.1</ele>
        <time>2021-08-10T15:59:25Z</time>
      </trkpt>
      <trkpt lat="47.3648" lon="6.86842">
        <ele>743.3</ele>
        <time>2021-08-10T15:59:26Z</time>
      </trkpt>
      <trkpt lat="47.3648" lon="6.86841">
        <ele>743.4</ele>
        <time>2021-08-10T15:59:27Z</time>
      </trkpt>
      <trkpt lat="47.3648" lon="6.86841">
        <ele>743.4</ele>
        <time>2021-08-10T15:59:29Z</time>
      </trkpt>
      <trkpt lat="47.3648" lon="6.86841">
        <ele>743.4</ele>
        <time>2021-08-10T15:59:30Z</time>
      </trkpt>
      <trkpt lat="47.36479" lon="6.8684">
        <ele>743.5</ele>
        <time>2021-08-10T15:59:31Z</time>
      </trkpt>
      <trkpt lat="47.36477" lon="6.86839">
        <ele>743.7</ele>
        <time>2021-08-10T15:59:32Z</time>
      </trkpt>
      <trkpt lat="47.36477" lon="6.86838">
        <ele>743.8</ele>
        <time>2021-08-10T15:59:34Z</time>
      </trkpt>
      <trkpt lat="47.36478" lon="6.86837">
        <ele>743.9</ele>
        <time>2021-08-10T15:59:35Z</time>
      </trkpt>
      <trkpt lat="47.36478" lon="6.86837">
        <ele>744</ele>
        <time>2021-08-10T15:59:36Z</time>
      </trkpt>
      <trkpt lat="47.36479" lon="6.86836">
        <ele>744</ele>
        <time>2021-08-10T15:59:37Z</time>
      </trkpt>
      <trkpt lat="47.36479" lon="6.86835">
        <ele>744.1</ele>
        <time>2021-08-10T15:59:39Z</time>
      </trkpt>
      <trkpt lat="47.3648" lon="6.86834">
        <ele>744.2</ele>
        <time>2021-08-10T15:59:40Z</time>
      </trkpt>
      <trkpt lat="47.3648" lon="6.86834">
        <ele>744.3</ele>
        <time>2021-08-10T15:59:41Z</time>
      </trkpt>
      <trkpt lat="47.36481" lon="6.86831">
        <ele>744.5</ele>
        <time>2021-08-10T15:59:43Z</time>
      </trkpt>
      <trkpt lat="47.36427" lon="6.86754">
        <ele>754.1</ele>
        <time>2021-08-10T16:01:08Z</time>
      </trkpt>
      <trkpt lat="47.36424" lon="6.86752">
        <ele>754.2</ele>
        <time>2021-08-10T16:01:09Z</time>
      </trkpt>
      <trkpt lat="47.36424" lon="6.86751">
        <ele>754.3</ele>
        <time>2021-08-10T16:01:10Z</time>
      </trkpt>
      <trkpt lat="47.3642" lon="6.86748">
        <ele>754.5</ele>
        <time>2021-08-10T16:01:12Z</time>
      </trkpt>
      <trkpt lat="47.36419" lon="6.86748">
        <ele>754.5</ele>
        <time>2021-08-10T16:01:13Z</time>
      </trkpt>
      <trkpt lat="47.36418" lon="6.86747">
        <ele>754.6</ele>
        <time>2021-08-10T16:01:14Z</time>
      </trkpt>
      <trkpt lat="47.36416" lon="6.86746">
        <ele>754.7</ele>
        <time>2021-08-10T16:01:16Z</time>
      </trkpt>
      <trkpt lat="47.36414" lon="6.86744">
        <ele>754.8</ele>
        <time>2021-08-10T16:01:18Z</time>
      </trkpt>
      <trkpt lat="47.36413" lon="6.86743">
        <ele>754.9</ele>
        <time>2021-08-10T16:01:19Z</time>
      </trkpt>
      <trkpt lat="47.36412" lon="6.86742">
        <ele>755</ele>
        <time>2021-08-10T16:01:20Z</time>
      </trkpt>
      <trkpt lat="47.36412" lon="6.86741">
        <ele>755</ele>
        <time>2021-08-10T16:01:21Z</time>
      </trkpt>
      <trkpt lat="47.3641" lon="6.86739">
        <ele>755.1</ele>
        <time>2021-08-10T16:01:23Z</time>
      </trkpt>
      <trkpt lat="47.36409" lon="6.86738">
        <ele>755.2</ele>
        <time>2021-08-10T16:01:24Z</time>
      </trkpt>
      <trkpt lat="47.36409" lon="6.86737">
        <ele>755.2</ele>
        <time>2021-08-10T16:01:25Z</time>
      </trkpt>
      <trkpt lat="47.36408" lon="6.86736">
        <ele>755.3</ele>
        <time>2021-08-10T16:01:26Z</time>
      </trkpt>
      <trkpt lat="47.36407" lon="6.86735">
        <ele>755.4</ele>
        <time>2021-08-10T16:01:28Z</time>
      </trkpt>
      <trkpt lat="47.36407" lon="6.86734">
        <ele>755.4</ele>
        <time>2021-08-10T16:01:29Z</time>
      </trkpt>
      <trkpt lat="47.36406" lon="6.86734">
        <ele>755.4</ele>
        <time>2021-08-10T16:01:30Z</time>
      </trkpt>
      <trkpt lat="47.36406" lon="6.86733">
        <ele>755.4</ele>
        <time>2021-08-10T16:01:32Z</time>
      </trkpt>
      <trkpt lat="47.36406" lon="6.86733">
        <ele>755.5</ele>
        <time>2021-08-10T16:01:33Z</time>
      </trkpt>
      <trkpt lat="47.36405" lon="6.86733">
        <ele>755.5</ele>
        <time>2021-08-10T16:01:34Z</time>
      </trkpt>
      <trkpt lat="47.36405" lon="6.86733">
        <ele>755.5</ele>
        <time>2021-08-10T16:01:35Z</time>
      </trkpt>
      <trkpt lat="47.36405" lon="6.86733">
        <ele>755.5</ele>
        <time>2021-08-10T16:01:37Z</time>
      </trkpt>
      <trkpt lat="47.36405" lon="6.86733">
        <ele>755.5</ele>
        <time>2021-08-10T16:01:38Z</time>
      </trkpt>
      <trkpt lat="47.36404" lon="6.86732">
        <ele>755.6</ele>
        <time>2021-08-10T16:01:39Z</time>
      </trkpt>
      <trkpt lat="47.36401" lon="6.86719">
        <ele>756.1</ele>
        <time>2021-08-10T16:01:41Z</time>
      </trkpt>
      <trkpt lat="47.36399" lon="6.8671">
        <ele>756.5</ele>
        <time>2021-08-10T16:01:55Z</time>
      </trkpt>
      <trkpt lat="47.36396" lon="6.86702">
        <ele>757</ele>
        <time>2021-08-10T16:01:57Z</time>
      </trkpt>
      <trkpt lat="47.36394" lon="6.86693">
        <ele>757.4</ele>
        <time>2021-08-10T16:01:58Z</time>
      </trkpt>
      <trkpt lat="47.36393" lon="6.86691">
        <ele>757.5</ele>
        <time>2021-08-10T16:01:59Z</time>
      </trkpt>
      <trkpt lat="47.36393" lon="6.86689">
        <ele>757.6</ele>
        <time>2021-08-10T16:02:00Z</time>
      </trkpt>
      <trkpt lat="47.36393" lon="6.86687">
        <ele>757.7</ele>
        <time>2021-08-10T16:02:01Z</time>
      </trkpt>
      <trkpt lat="47.36393" lon="6.86686">
        <ele>757.7</ele>
        <time>2021-08-10T16:02:02Z</time>
      </trkpt>
      <trkpt lat="47.36392" lon="6.86685">
        <ele>757.8</ele>
        <time>2021-08-10T16:02:03Z</time>
      </trkpt>
      <trkpt lat="47.36392" lon="6.86684">
        <ele>757.9</ele>
        <time>2021-08-10T16:02:04Z</time>
      </trkpt>
      <trkpt lat="47.36392" lon="6.86682">
        <ele>758</ele>
        <time>2021-08-10T16:02:05Z</time>
      </trkpt>
      <trkpt lat="47.36392" lon="6.86679">
        <ele>758.1</ele>
        <time>2021-08-10T16:02:06Z</time>
      </trkpt>
      <trkpt lat="47.36392" lon="6.86674">
        <ele>758.4</ele>
        <time>2021-08-10T16:02:07Z</time>
      </trkpt>
      <trkpt lat="47.36392" lon="6.86673">
        <ele>758.4</ele>
        <time>2021-08-10T16:02:08Z</time>
      </trkpt>
      <trkpt lat="47.36392" lon="6.8667">
        <ele>758.6</ele>
        <time>2021-08-10T16:02:09Z</time>
      </trkpt>
      <trkpt lat="47.36391" lon="6.86668">
        <ele>758.7</ele>
        <time>2021-08-10T16:02:10Z</time>
      </trkpt>
      <trkpt lat="47.36388" lon="6.86663">
        <ele>759.1</ele>
        <time>2021-08-10T16:02:12Z</time>
      </trkpt>
      <trkpt lat="47.36387" lon="6.86662">
        <ele>759.2</ele>
        <time>2021-08-10T16:02:14Z</time>
      </trkpt>
      <trkpt lat="47.36386" lon="6.86661">
        <ele>759.3</ele>
        <time>2021-08-10T16:02:15Z</time>
      </trkpt>
      <trkpt lat="47.36383" lon="6.86658">
        <ele>759.5</ele>
        <time>2021-08-10T16:02:16Z</time>
      </trkpt>
      <trkpt lat="47.36383" lon="6.86658">
        <ele>759.6</ele>
        <time>2021-08-10T16:02:17Z</time>
      </trkpt>
      <trkpt lat="47.3638" lon="6.86656">
        <ele>759.8</ele>
        <time>2021-08-10T16:02:18Z</time>
      </trkpt>
      <trkpt lat="47.36379" lon="6.86655">
        <ele>759.9</ele>
        <time>2021-08-10T16:02:19Z</time>
      </trkpt>
      <trkpt lat="47.36379" lon="6.86654">
        <ele>760</ele>
        <time>2021-08-10T16:02:20Z</time>
      </trkpt>
      <trkpt lat="47.36376" lon="6.86651">
        <ele>760.2</ele>
        <time>2021-08-10T16:02:21Z</time>
      </trkpt>
      <trkpt lat="47.36375" lon="6.8665">
        <ele>760.3</ele>
        <time>2021-08-10T16:02:22Z</time>
      </trkpt>
      <trkpt lat="47.36374" lon="6.86647">
        <ele>760.4</ele>
        <time>2021-08-10T16:02:23Z</time>
      </trkpt>
      <trkpt lat="47.36374" lon="6.86646">
        <ele>760.5</ele>
        <time>2021-08-10T16:02:24Z</time>
      </trkpt>
      <trkpt lat="47.36373" lon="6.86645">
        <ele>760.5</ele>
        <time>2021-08-10T16:02:26Z</time>
      </trkpt>
      <trkpt lat="47.36373" lon="6.86644">
        <ele>760.6</ele>
        <time>2021-08-10T16:02:28Z</time>
      </trkpt>
      <trkpt lat="47.36372" lon="6.86643">
        <ele>760.6</ele>
        <time>2021-08-10T16:02:29Z</time>
      </trkpt>
      <trkpt lat="47.36372" lon="6.86642">
        <ele>760.7</ele>
        <time>2021-08-10T16:02:31Z</time>
      </trkpt>
      <trkpt lat="47.36372" lon="6.86641">
        <ele>760.7</ele>
        <time>2021-08-10T16:02:32Z</time>
      </trkpt>
      <trkpt lat="47.36371" lon="6.8664">
        <ele>760.8</ele>
        <time>2021-08-10T16:02:34Z</time>
      </trkpt>
      <trkpt lat="47.3637" lon="6.86637">
        <ele>761</ele>
        <time>2021-08-10T16:02:36Z</time>
      </trkpt>
      <trkpt lat="47.36369" lon="6.86632">
        <ele>761.2</ele>
        <time>2021-08-10T16:02:37Z</time>
      </trkpt>
      <trkpt lat="47.36368" lon="6.86628">
        <ele>761.4</ele>
        <time>2021-08-10T16:02:38Z</time>
      </trkpt>
      <trkpt lat="47.36367" lon="6.86626">
        <ele>761.4</ele>
        <time>2021-08-10T16:02:39Z</time>
      </trkpt>
      <trkpt lat="47.36366" lon="6.86624">
        <ele>761.6</ele>
        <time>2021-08-10T16:02:40Z</time>
      </trkpt>
      <trkpt lat="47.36364" lon="6.8662">
        <ele>761.7</ele>
        <time>2021-08-10T16:02:42Z</time>
      </trkpt>
      <trkpt lat="47.36362" lon="6.86617">
        <ele>761.9</ele>
        <time>2021-08-10T16:02:43Z</time>
      </trkpt>
      <trkpt lat="47.36359" lon="6.86613">
        <ele>762.1</ele>
        <time>2021-08-10T16:02:45Z</time>
      </trkpt>
      <trkpt lat="47.36358" lon="6.8661">
        <ele>762.3</ele>
        <time>2021-08-10T16:02:46Z</time>
      </trkpt>
      <trkpt lat="47.36356" lon="6.86606">
        <ele>762.4</ele>
        <time>2021-08-10T16:02:48Z</time>
      </trkpt>
      <trkpt lat="47.36354" lon="6.86602">
        <ele>762.6</ele>
        <time>2021-08-10T16:02:49Z</time>
      </trkpt>
      <trkpt lat="47.36351" lon="6.86599">
        <ele>762.8</ele>
        <time>2021-08-10T16:02:51Z</time>
      </trkpt>
      <trkpt lat="47.36348" lon="6.86596">
        <ele>763</ele>
        <time>2021-08-10T16:02:52Z</time>
      </trkpt>
      <trkpt lat="47.36346" lon="6.86592">
        <ele>763.2</ele>
        <time>2021-08-10T16:02:54Z</time>
      </trkpt>
      <trkpt lat="47.36344" lon="6.86589">
        <ele>763.3</ele>
        <time>2021-08-10T16:02:56Z</time>
      </trkpt>
      <trkpt lat="47.36343" lon="6.86585">
        <ele>763.4</ele>
        <time>2021-08-10T16:02:57Z</time>
      </trkpt>
      <trkpt lat="47.36342" lon="6.86582">
        <ele>763.6</ele>
        <time>2021-08-10T16:02:58Z</time>
      </trkpt>
      <trkpt lat="47.3634" lon="6.86579">
        <ele>763.7</ele>
        <time>2021-08-10T16:03:00Z</time>
      </trkpt>
      <trkpt lat="47.36339" lon="6.86576">
        <ele>763.8</ele>
        <time>2021-08-10T16:03:01Z</time>
      </trkpt>
      <trkpt lat="47.36337" lon="6.86572">
        <ele>764</ele>
        <time>2021-08-10T16:03:03Z</time>
      </trkpt>
      <trkpt lat="47.36336" lon="6.86568">
        <ele>764.1</ele>
        <time>2021-08-10T16:03:04Z</time>
      </trkpt>
      <trkpt lat="47.36335" lon="6.86563">
        <ele>764.3</ele>
        <time>2021-08-10T16:03:06Z</time>
      </trkpt>
      <trkpt lat="47.36332" lon="6.86559">
        <ele>764.4</ele>
        <time>2021-08-10T16:03:07Z</time>
      </trkpt>
      <trkpt lat="47.36332" lon="6.86559">
        <ele>764.5</ele>
        <time>2021-08-10T16:03:08Z</time>
      </trkpt>
      <trkpt lat="47.36331" lon="6.86557">
        <ele>764.5</ele>
        <time>2021-08-10T16:03:09Z</time>
      </trkpt>
      <trkpt lat="47.36329" lon="6.86555">
        <ele>764.6</ele>
        <time>2021-08-10T16:03:10Z</time>
      </trkpt>
      <trkpt lat="47.36328" lon="6.86553">
        <ele>764.7</ele>
        <time>2021-08-10T16:03:11Z</time>
      </trkpt>
      <trkpt lat="47.36326" lon="6.86551">
        <ele>764.8</ele>
        <time>2021-08-10T16:03:13Z</time>
      </trkpt>
      <trkpt lat="47.36325" lon="6.86548">
        <ele>764.9</ele>
        <time>2021-08-10T16:03:14Z</time>
      </trkpt>
      <trkpt lat="47.36325" lon="6.86547">
        <ele>764.9</ele>
        <time>2021-08-10T16:03:15Z</time>
      </trkpt>
      <trkpt lat="47.36325" lon="6.86547">
        <ele>764.9</ele>
        <time>2021-08-10T16:03:17Z</time>
      </trkpt>
      <trkpt lat="47.36324" lon="6.86545">
        <ele>765</ele>
        <time>2021-08-10T16:03:18Z</time>
      </trkpt>
      <trkpt lat="47.36323" lon="6.86542">
        <ele>765.1</ele>
        <time>2021-08-10T16:03:19Z</time>
      </trkpt>
      <trkpt lat="47.36321" lon="6.86537">
        <ele>765.3</ele>
        <time>2021-08-10T16:03:20Z</time>
      </trkpt>
      <trkpt lat="47.36321" lon="6.86535">
        <ele>765.3</ele>
        <time>2021-08-10T16:03:21Z</time>
      </trkpt>
      <trkpt lat="47.3632" lon="6.86531">
        <ele>765.4</ele>
        <time>2021-08-10T16:03:22Z</time>
      </trkpt>
      <trkpt lat="47.3632" lon="6.86527">
        <ele>765.5</ele>
        <time>2021-08-10T16:03:23Z</time>
      </trkpt>
      <trkpt lat="47.3632" lon="6.86521">
        <ele>765.6</ele>
        <time>2021-08-10T16:03:25Z</time>
      </trkpt>
      <trkpt lat="47.3632" lon="6.86516">
        <ele>765.7</ele>
        <time>2021-08-10T16:03:27Z</time>
      </trkpt>
      <trkpt lat="47.3632" lon="6.86511">
        <ele>765.8</ele>
        <time>2021-08-10T16:03:28Z</time>
      </trkpt>
      <trkpt lat="47.36319" lon="6.86508">
        <ele>765.9</ele>
        <time>2021-08-10T16:03:29Z</time>
      </trkpt>
      <trkpt lat="47.36318" lon="6.86506">
        <ele>765.9</ele>
        <time>2021-08-10T16:03:30Z</time>
      </trkpt>
      <trkpt lat="47.36314" lon="6.86504">
        <ele>766</ele>
        <time>2021-08-10T16:03:32Z</time>
      </trkpt>
      <trkpt lat="47.36311" lon="6.86503">
        <ele>766</ele>
        <time>2021-08-10T16:03:33Z</time>
      </trkpt>
      <trkpt lat="47.36307" lon="6.86501">
        <ele>766</ele>
        <time>2021-08-10T16:03:34Z</time>
      </trkpt>
      <trkpt lat="47.36304" lon="6.86499">
        <ele>766.1</ele>
        <time>2021-08-10T16:03:35Z</time>
      </trkpt>
      <trkpt lat="47.36298" lon="6.86495">
        <ele>766.1</ele>
        <time>2021-08-10T16:03:37Z</time>
      </trkpt>
      <trkpt lat="47.36295" lon="6.86492">
        <ele>766.1</ele>
        <time>2021-08-10T16:03:38Z</time>
      </trkpt>
      <trkpt lat="47.36293" lon="6.86491">
        <ele>766.1</ele>
        <time>2021-08-10T16:03:39Z</time>
      </trkpt>
      <trkpt lat="47.36289" lon="6.86487">
        <ele>766.1</ele>
        <time>2021-08-10T16:03:41Z</time>
      </trkpt>
      <trkpt lat="47.36287" lon="6.86482">
        <ele>766</ele>
        <time>2021-08-10T16:03:42Z</time>
      </trkpt>
      <trkpt lat="47.36286" lon="6.8648">
        <ele>766</ele>
        <time>2021-08-10T16:03:43Z</time>
      </trkpt>
      <trkpt lat="47.36286" lon="6.86476">
        <ele>766</ele>
        <time>2021-08-10T16:03:44Z</time>
      </trkpt>
      <trkpt lat="47.36283" lon="6.8647">
        <ele>766</ele>
        <time>2021-08-10T16:03:46Z</time>
      </trkpt>
      <trkpt lat="47.36283" lon="6.86468">
        <ele>765.9</ele>
        <time>2021-08-10T16:03:47Z</time>
      </trkpt>
      <trkpt lat="47.36282" lon="6.86466">
        <ele>765.9</ele>
        <time>2021-08-10T16:03:48Z</time>
      </trkpt>
      <trkpt lat="47.3628" lon="6.86461">
        <ele>765.9</ele>
        <time>2021-08-10T16:03:49Z</time>
      </trkpt>
      <trkpt lat="47.36279" lon="6.86459">
        <ele>765.8</ele>
        <time>2021-08-10T16:03:50Z</time>
      </trkpt>
      <trkpt lat="47.36276" lon="6.86457">
        <ele>765.8</ele>
        <time>2021-08-10T16:03:51Z</time>
      </trkpt>
      <trkpt lat="47.36272" lon="6.86451">
        <ele>765.6</ele>
        <time>2021-08-10T16:03:53Z</time>
      </trkpt>
      <trkpt lat="47.3627" lon="6.86449">
        <ele>765.5</ele>
        <time>2021-08-10T16:03:54Z</time>
      </trkpt>
      <trkpt lat="47.36266" lon="6.86447">
        <ele>765.4</ele>
        <time>2021-08-10T16:03:55Z</time>
      </trkpt>
      <trkpt lat="47.36263" lon="6.86445">
        <ele>765.3</ele>
        <time>2021-08-10T16:03:56Z</time>
      </trkpt>
      <trkpt lat="47.36257" lon="6.86441">
        <ele>765.1</ele>
        <time>2021-08-10T16:03:58Z</time>
      </trkpt>
      <trkpt lat="47.36252" lon="6.86437">
        <ele>764.8</ele>
        <time>2021-08-10T16:03:59Z</time>
      </trkpt>
      <trkpt lat="47.36246" lon="6.86432">
        <ele>764.5</ele>
        <time>2021-08-10T16:04:01Z</time>
      </trkpt>
      <trkpt lat="47.36244" lon="6.86429">
        <ele>764.4</ele>
        <time>2021-08-10T16:04:02Z</time>
      </trkpt>
      <trkpt lat="47.36239" lon="6.86423">
        <ele>764.1</ele>
        <time>2021-08-10T16:04:04Z</time>
      </trkpt>
      <trkpt lat="47.36236" lon="6.86419">
        <ele>763.9</ele>
        <time>2021-08-10T16:04:05Z</time>
      </trkpt>
      <trkpt lat="47.36234" lon="6.86415">
        <ele>763.7</ele>
        <time>2021-08-10T16:04:07Z</time>
      </trkpt>
      <trkpt lat="47.36233" lon="6.86414">
        <ele>763.7</ele>
        <time>2021-08-10T16:04:08Z</time>
      </trkpt>
      <trkpt lat="47.36232" lon="6.86411">
        <ele>763.6</ele>
        <time>2021-08-10T16:04:10Z</time>
      </trkpt>
      <trkpt lat="47.36052" lon="6.86268">
        <ele>758</ele>
        <time>2021-08-10T16:04:40Z</time>
      </trkpt>
      <trkpt lat="47.36043" lon="6.86258">
        <ele>757.9</ele>
        <time>2021-08-10T16:04:41Z</time>
      </trkpt>
      <trkpt lat="47.36034" lon="6.86252">
        <ele>757.8</ele>
        <time>2021-08-10T16:04:42Z</time>
      </trkpt>
      <trkpt lat="47.36028" lon="6.86246">
        <ele>757.8</ele>
        <time>2021-08-10T16:04:43Z</time>
      </trkpt>
      <trkpt lat="47.36016" lon="6.86238">
        <ele>757.8</ele>
        <time>2021-08-10T16:04:45Z</time>
      </trkpt>
      <trkpt lat="47.36011" lon="6.86233">
        <ele>757.8</ele>
        <time>2021-08-10T16:04:46Z</time>
      </trkpt>
      <trkpt lat="47.36002" lon="6.86224">
        <ele>757.7</ele>
        <time>2021-08-10T16:04:48Z</time>
      </trkpt>
      <trkpt lat="47.35998" lon="6.8622">
        <ele>757.7</ele>
        <time>2021-08-10T16:04:50Z</time>
      </trkpt>
      <trkpt lat="47.35994" lon="6.86211">
        <ele>757.6</ele>
        <time>2021-08-10T16:04:52Z</time>
      </trkpt>
      <trkpt lat="47.35988" lon="6.86197">
        <ele>757.5</ele>
        <time>2021-08-10T16:04:53Z</time>
      </trkpt>
      <trkpt lat="47.35986" lon="6.8619">
        <ele>757.5</ele>
        <time>2021-08-10T16:04:54Z</time>
      </trkpt>
      <trkpt lat="47.35983" lon="6.86186">
        <ele>757.4</ele>
        <time>2021-08-10T16:04:55Z</time>
      </trkpt>
      <trkpt lat="47.35982" lon="6.86183">
        <ele>757.4</ele>
        <time>2021-08-10T16:04:56Z</time>
      </trkpt>
      <trkpt lat="47.35979" lon="6.86179">
        <ele>757.4</ele>
        <time>2021-08-10T16:04:58Z</time>
      </trkpt>
      <trkpt lat="47.35976" lon="6.86175">
        <ele>757.3</ele>
        <time>2021-08-10T16:04:59Z</time>
      </trkpt>
      <trkpt lat="47.35974" lon="6.86171">
        <ele>757.3</ele>
        <time>2021-08-10T16:05:00Z</time>
      </trkpt>
      <trkpt lat="47.35965" lon="6.86158">
        <ele>757.2</ele>
        <time>2021-08-10T16:05:01Z</time>
      </trkpt>
      <trkpt lat="47.35958" lon="6.86149">
        <ele>757.1</ele>
        <time>2021-08-10T16:05:02Z</time>
      </trkpt>
      <trkpt lat="47.3595" lon="6.86138">
        <ele>757.1</ele>
        <time>2021-08-10T16:05:03Z</time>
      </trkpt>
      <trkpt lat="47.35939" lon="6.86121">
        <ele>756.9</ele>
        <time>2021-08-10T16:05:05Z</time>
      </trkpt>
      <trkpt lat="47.35936" lon="6.86114">
        <ele>756.9</ele>
        <time>2021-08-10T16:05:06Z</time>
      </trkpt>
      <trkpt lat="47.35931" lon="6.861">
        <ele>756.7</ele>
        <time>2021-08-10T16:05:08Z</time>
      </trkpt>
      <trkpt lat="47.35926" lon="6.86085">
        <ele>756.6</ele>
        <time>2021-08-10T16:05:10Z</time>
      </trkpt>
      <trkpt lat="47.35925" lon="6.86077">
        <ele>756.6</ele>
        <time>2021-08-10T16:05:11Z</time>
      </trkpt>
      <trkpt lat="47.35922" lon="6.86061">
        <ele>756.5</ele>
        <time>2021-08-10T16:05:13Z</time>
      </trkpt>
      <trkpt lat="47.35919" lon="6.86044">
        <ele>756.5</ele>
        <time>2021-08-10T16:05:15Z</time>
      </trkpt>
      <trkpt lat="47.35917" lon="6.86036">
        <ele>756.5</ele>
        <time>2021-08-10T16:05:16Z</time>
      </trkpt>
      <trkpt lat="47.35915" lon="6.86028">
        <ele>756.5</ele>
        <time>2021-08-10T16:05:17Z</time>
      </trkpt>
      <trkpt lat="47.35911" lon="6.86013">
        <ele>756.5</ele>
        <time>2021-08-10T16:05:19Z</time>
      </trkpt>
      <trkpt lat="47.35909" lon="6.86005">
        <ele>756.6</ele>
        <time>2021-08-10T16:05:20Z</time>
      </trkpt>
      <trkpt lat="47.35906" lon="6.85998">
        <ele>756.6</ele>
        <time>2021-08-10T16:05:21Z</time>
      </trkpt>
      <trkpt lat="47.35901" lon="6.85984">
        <ele>756.8</ele>
        <time>2021-08-10T16:05:23Z</time>
      </trkpt>
      <trkpt lat="47.35899" lon="6.85977">
        <ele>756.8</ele>
        <time>2021-08-10T16:05:24Z</time>
      </trkpt>
      <trkpt lat="47.35895" lon="6.85963">
        <ele>757.2</ele>
        <time>2021-08-10T16:05:26Z</time>
      </trkpt>
      <trkpt lat="47.35889" lon="6.85951">
        <ele>757.5</ele>
        <time>2021-08-10T16:05:28Z</time>
      </trkpt>
      <trkpt lat="47.35884" lon="6.85942">
        <ele>757.7</ele>
        <time>2021-08-10T16:05:30Z</time>
      </trkpt>
      <trkpt lat="47.35882" lon="6.85937">
        <ele>757.7</ele>
        <time>2021-08-10T16:05:31Z</time>
      </trkpt>
      <trkpt lat="47.3588" lon="6.85934">
        <ele>757.8</ele>
        <time>2021-08-10T16:05:32Z</time>
      </trkpt>
      <trkpt lat="47.35876" lon="6.85928">
        <ele>758</ele>
        <time>2021-08-10T16:05:34Z</time>
      </trkpt>
      <trkpt lat="47.35873" lon="6.8592">
        <ele>758.1</ele>
        <time>2021-08-10T16:05:36Z</time>
      </trkpt>
      <trkpt lat="47.35873" lon="6.85919">
        <ele>758.1</ele>
        <time>2021-08-10T16:05:38Z</time>
      </trkpt>
      <trkpt lat="47.35871" lon="6.85916">
        <ele>758.1</ele>
        <time>2021-08-10T16:05:39Z</time>
      </trkpt>
      <trkpt lat="47.35869" lon="6.85911">
        <ele>758.2</ele>
        <time>2021-08-10T16:05:40Z</time>
      </trkpt>
      <trkpt lat="47.35866" lon="6.85902">
        <ele>758.3</ele>
        <time>2021-08-10T16:05:42Z</time>
      </trkpt>
      <trkpt lat="47.35864" lon="6.85897">
        <ele>758.4</ele>
        <time>2021-08-10T16:05:43Z</time>
      </trkpt>
      <trkpt lat="47.35861" lon="6.85893">
        <ele>758.4</ele>
        <time>2021-08-10T16:05:44Z</time>
      </trkpt>
      <trkpt lat="47.35858" lon="6.8589">
        <ele>758.5</ele>
        <time>2021-08-10T16:05:45Z</time>
      </trkpt>
      <trkpt lat="47.35853" lon="6.85883">
        <ele>758.6</ele>
        <time>2021-08-10T16:05:47Z</time>
      </trkpt>
      <trkpt lat="47.3585" lon="6.85876">
        <ele>758.7</ele>
        <time>2021-08-10T16:05:49Z</time>
      </trkpt>
      <trkpt lat="47.35849" lon="6.8587">
        <ele>758.7</ele>
        <time>2021-08-10T16:05:50Z</time>
      </trkpt>
      <trkpt lat="47.35846" lon="6.8586">
        <ele>758.8</ele>
        <time>2021-08-10T16:05:52Z</time>
      </trkpt>
      <trkpt lat="47.35846" lon="6.85851">
        <ele>758.8</ele>
        <time>2021-08-10T16:05:54Z</time>
      </trkpt>
      <trkpt lat="47.35847" lon="6.85845">
        <ele>758.8</ele>
        <time>2021-08-10T16:05:55Z</time>
      </trkpt>
      <trkpt lat="47.35848" lon="6.8584">
        <ele>758.8</ele>
        <time>2021-08-10T16:05:56Z</time>
      </trkpt>
      <trkpt lat="47.35849" lon="6.85834">
        <ele>758.8</ele>
        <time>2021-08-10T16:05:57Z</time>
      </trkpt>
      <trkpt lat="47.35849" lon="6.85828">
        <ele>758.7</ele>
        <time>2021-08-10T16:05:58Z</time>
      </trkpt>
      <trkpt lat="47.35848" lon="6.85824">
        <ele>758.7</ele>
        <time>2021-08-10T16:05:59Z</time>
      </trkpt>
      <trkpt lat="47.35848" lon="6.85823">
        <ele>758.7</ele>
        <time>2021-08-10T16:06:00Z</time>
      </trkpt>
      <trkpt lat="47.35846" lon="6.85811">
        <ele>758.6</ele>
        <time>2021-08-10T16:06:01Z</time>
      </trkpt>
      <trkpt lat="47.35843" lon="6.85793">
        <ele>758.4</ele>
        <time>2021-08-10T16:06:03Z</time>
      </trkpt>
      <trkpt lat="47.35843" lon="6.8579">
        <ele>758.4</ele>
        <time>2021-08-10T16:06:05Z</time>
      </trkpt>
      <trkpt lat="47.35843" lon="6.85787">
        <ele>758.3</ele>
        <time>2021-08-10T16:06:06Z</time>
      </trkpt>
      <trkpt lat="47.3584" lon="6.8578">
        <ele>758.2</ele>
        <time>2021-08-10T16:06:07Z</time>
      </trkpt>
      <trkpt lat="47.35836" lon="6.85772">
        <ele>758.1</ele>
        <time>2021-08-10T16:06:08Z</time>
      </trkpt>
      <trkpt lat="47.35821" lon="6.85751">
        <ele>757.7</ele>
        <time>2021-08-10T16:06:10Z</time>
      </trkpt>
      <trkpt lat="47.35818" lon="6.85743">
        <ele>757.6</ele>
        <time>2021-08-10T16:06:11Z</time>
      </trkpt>
      <trkpt lat="47.35815" lon="6.85736">
        <ele>757.5</ele>
        <time>2021-08-10T16:06:12Z</time>
      </trkpt>
      <trkpt lat="47.3581" lon="6.85719">
        <ele>757.2</ele>
        <time>2021-08-10T16:06:14Z</time>
      </trkpt>
      <trkpt lat="47.35808" lon="6.85712">
        <ele>757</ele>
        <time>2021-08-10T16:06:15Z</time>
      </trkpt>
      <trkpt lat="47.35803" lon="6.85697">
        <ele>756.7</ele>
        <time>2021-08-10T16:06:17Z</time>
      </trkpt>
      <trkpt lat="47.35796" lon="6.85684">
        <ele>756.3</ele>
        <time>2021-08-10T16:06:19Z</time>
      </trkpt>
      <trkpt lat="47.35794" lon="6.85677">
        <ele>756.2</ele>
        <time>2021-08-10T16:06:20Z</time>
      </trkpt>
      <trkpt lat="47.3579" lon="6.85662">
        <ele>755.8</ele>
        <time>2021-08-10T16:06:22Z</time>
      </trkpt>
      <trkpt lat="47.35788" lon="6.85654">
        <ele>755.7</ele>
        <time>2021-08-10T16:06:23Z</time>
      </trkpt>
      <trkpt lat="47.35783" lon="6.85636">
        <ele>755.3</ele>
        <time>2021-08-10T16:06:25Z</time>
      </trkpt>
      <trkpt lat="47.35778" lon="6.85619">
        <ele>755.1</ele>
        <time>2021-08-10T16:06:27Z</time>
      </trkpt>
      <trkpt lat="47.35774" lon="6.85609">
        <ele>755</ele>
        <time>2021-08-10T16:06:28Z</time>
      </trkpt>
      <trkpt lat="47.3577" lon="6.85592">
        <ele>754.8</ele>
        <time>2021-08-10T16:06:30Z</time>
      </trkpt>
      <trkpt lat="47.35766" lon="6.85575">
        <ele>754.6</ele>
        <time>2021-08-10T16:06:32Z</time>
      </trkpt>
      <trkpt lat="47.35764" lon="6.85558">
        <ele>754.4</ele>
        <time>2021-08-10T16:06:34Z</time>
      </trkpt>
      <trkpt lat="47.35762" lon="6.85551">
        <ele>754.3</ele>
        <time>2021-08-10T16:06:35Z</time>
      </trkpt>
      <trkpt lat="47.35759" lon="6.85537">
        <ele>754.2</ele>
        <time>2021-08-10T16:06:37Z</time>
      </trkpt>
      <trkpt lat="47.35758" lon="6.85529">
        <ele>754.2</ele>
        <time>2021-08-10T16:06:38Z</time>
      </trkpt>
      <trkpt lat="47.35756" lon="6.85515">
        <ele>754.2</ele>
        <time>2021-08-10T16:06:40Z</time>
      </trkpt>
      <trkpt lat="47.35754" lon="6.85507">
        <ele>754.2</ele>
        <time>2021-08-10T16:06:41Z</time>
      </trkpt>
      <trkpt lat="47.35753" lon="6.855">
        <ele>754.2</ele>
        <time>2021-08-10T16:06:42Z</time>
      </trkpt>
      <trkpt lat="47.3575" lon="6.85487">
        <ele>754.3</ele>
        <time>2021-08-10T16:06:45Z</time>
      </trkpt>
      <trkpt lat="47.35749" lon="6.85481">
        <ele>754.4</ele>
        <time>2021-08-10T16:06:46Z</time>
      </trkpt>
      <trkpt lat="47.35749" lon="6.85478">
        <ele>754.4</ele>
        <time>2021-08-10T16:06:47Z</time>
      </trkpt>
      <trkpt lat="47.35748" lon="6.85473">
        <ele>754.4</ele>
        <time>2021-08-10T16:06:48Z</time>
      </trkpt>
      <trkpt lat="47.35746" lon="6.85462">
        <ele>754.5</ele>
        <time>2021-08-10T16:06:50Z</time>
      </trkpt>
      <trkpt lat="47.35743" lon="6.8545">
        <ele>754.6</ele>
        <time>2021-08-10T16:06:52Z</time>
      </trkpt>
      <trkpt lat="47.3574" lon="6.85445">
        <ele>754.7</ele>
        <time>2021-08-10T16:06:54Z</time>
      </trkpt>
      <trkpt lat="47.35737" lon="6.85439">
        <ele>754.7</ele>
        <time>2021-08-10T16:06:55Z</time>
      </trkpt>
      <trkpt lat="47.35735" lon="6.85432">
        <ele>754.8</ele>
        <time>2021-08-10T16:06:56Z</time>
      </trkpt>
      <trkpt lat="47.35734" lon="6.85426">
        <ele>754.8</ele>
        <time>2021-08-10T16:06:57Z</time>
      </trkpt>
      <trkpt lat="47.35734" lon="6.85419">
        <ele>754.9</ele>
        <time>2021-08-10T16:06:58Z</time>
      </trkpt>
      <trkpt lat="47.35732" lon="6.85402">
        <ele>755</ele>
        <time>2021-08-10T16:07:00Z</time>
      </trkpt>
      <trkpt lat="47.3573" lon="6.85393">
        <ele>755.1</ele>
        <time>2021-08-10T16:07:02Z</time>
      </trkpt>
      <trkpt lat="47.35728" lon="6.85389">
        <ele>755.1</ele>
        <time>2021-08-10T16:07:03Z</time>
      </trkpt>
      <trkpt lat="47.35727" lon="6.85386">
        <ele>755.2</ele>
        <time>2021-08-10T16:07:04Z</time>
      </trkpt>
      <trkpt lat="47.35727" lon="6.85373">
        <ele>755.2</ele>
        <time>2021-08-10T16:07:06Z</time>
      </trkpt>
      <trkpt lat="47.35726" lon="6.8536">
        <ele>755.3</ele>
        <time>2021-08-10T16:07:08Z</time>
      </trkpt>
      <trkpt lat="47.35725" lon="6.8535">
        <ele>755.3</ele>
        <time>2021-08-10T16:07:10Z</time>
      </trkpt>
      <trkpt lat="47.35724" lon="6.85343">
        <ele>755.2</ele>
        <time>2021-08-10T16:07:11Z</time>
      </trkpt>
      <trkpt lat="47.35723" lon="6.85337">
        <ele>755.2</ele>
        <time>2021-08-10T16:07:12Z</time>
      </trkpt>
      <trkpt lat="47.35721" lon="6.85325">
        <ele>755.1</ele>
        <time>2021-08-10T16:07:14Z</time>
      </trkpt>
      <trkpt lat="47.3572" lon="6.85313">
        <ele>755.1</ele>
        <time>2021-08-10T16:07:16Z</time>
      </trkpt>
      <trkpt lat="47.35718" lon="6.85302">
        <ele>755.1</ele>
        <time>2021-08-10T16:07:18Z</time>
      </trkpt>
      <trkpt lat="47.35717" lon="6.85297">
        <ele>755</ele>
        <time>2021-08-10T16:07:19Z</time>
      </trkpt>
      <trkpt lat="47.35716" lon="6.85286">
        <ele>755</ele>
        <time>2021-08-10T16:07:21Z</time>
      </trkpt>
      <trkpt lat="47.35715" lon="6.8528">
        <ele>755</ele>
        <time>2021-08-10T16:07:22Z</time>
      </trkpt>
      <trkpt lat="47.35714" lon="6.85275">
        <ele>755</ele>
        <time>2021-08-10T16:07:23Z</time>
      </trkpt>
      <trkpt lat="47.35714" lon="6.85267">
        <ele>755</ele>
        <time>2021-08-10T16:07:25Z</time>
      </trkpt>
      <trkpt lat="47.35712" lon="6.85259">
        <ele>754.9</ele>
        <time>2021-08-10T16:07:26Z</time>
      </trkpt>
      <trkpt lat="47.3571" lon="6.85248">
        <ele>754.8</ele>
        <time>2021-08-10T16:07:28Z</time>
      </trkpt>
      <trkpt lat="47.35709" lon="6.85243">
        <ele>754.7</ele>
        <time>2021-08-10T16:07:29Z</time>
      </trkpt>
      <trkpt lat="47.35708" lon="6.85236">
        <ele>754.6</ele>
        <time>2021-08-10T16:07:30Z</time>
      </trkpt>
      <trkpt lat="47.35706" lon="6.85226">
        <ele>754.5</ele>
        <time>2021-08-10T16:07:32Z</time>
      </trkpt>
      <trkpt lat="47.35705" lon="6.85216">
        <ele>754.4</ele>
        <time>2021-08-10T16:07:33Z</time>
      </trkpt>
      <trkpt lat="47.35704" lon="6.85203">
        <ele>754.2</ele>
        <time>2021-08-10T16:07:34Z</time>
      </trkpt>
      <trkpt lat="47.35704" lon="6.85187">
        <ele>753.9</ele>
        <time>2021-08-10T16:07:36Z</time>
      </trkpt>
      <trkpt lat="47.35704" lon="6.85179">
        <ele>753.8</ele>
        <time>2021-08-10T16:07:37Z</time>
      </trkpt>
      <trkpt lat="47.35704" lon="6.85171">
        <ele>753.7</ele>
        <time>2021-08-10T16:07:38Z</time>
      </trkpt>
      <trkpt lat="47.35703" lon="6.85155">
        <ele>753.4</ele>
        <time>2021-08-10T16:07:40Z</time>
      </trkpt>
      <trkpt lat="47.35702" lon="6.85146">
        <ele>753.3</ele>
        <time>2021-08-10T16:07:41Z</time>
      </trkpt>
      <trkpt lat="47.35699" lon="6.85129">
        <ele>753.1</ele>
        <time>2021-08-10T16:07:43Z</time>
      </trkpt>
      <trkpt lat="47.35697" lon="6.85111">
        <ele>752.9</ele>
        <time>2021-08-10T16:07:45Z</time>
      </trkpt>
      <trkpt lat="47.35696" lon="6.85093">
        <ele>752.8</ele>
        <time>2021-08-10T16:07:47Z</time>
      </trkpt>
      <trkpt lat="47.35695" lon="6.85086">
        <ele>752.7</ele>
        <time>2021-08-10T16:07:48Z</time>
      </trkpt>
      <trkpt lat="47.35693" lon="6.8507">
        <ele>752.7</ele>
        <time>2021-08-10T16:07:50Z</time>
      </trkpt>
      <trkpt lat="47.35692" lon="6.85062">
        <ele>752.7</ele>
        <time>2021-08-10T16:07:51Z</time>
      </trkpt>
      <trkpt lat="47.35691" lon="6.85054">
        <ele>752.7</ele>
        <time>2021-08-10T16:07:52Z</time>
      </trkpt>
      <trkpt lat="47.35689" lon="6.85039">
        <ele>752.7</ele>
        <time>2021-08-10T16:07:54Z</time>
      </trkpt>
      <trkpt lat="47.35688" lon="6.85024">
        <ele>752.7</ele>
        <time>2021-08-10T16:07:56Z</time>
      </trkpt>
      <trkpt lat="47.35688" lon="6.85017">
        <ele>752.7</ele>
        <time>2021-08-10T16:07:57Z</time>
      </trkpt>
      <trkpt lat="47.35687" lon="6.85002">
        <ele>752.7</ele>
        <time>2021-08-10T16:07:59Z</time>
      </trkpt>
      <trkpt lat="47.35686" lon="6.84995">
        <ele>752.8</ele>
        <time>2021-08-10T16:08:00Z</time>
      </trkpt>
      <trkpt lat="47.35684" lon="6.84981">
        <ele>752.9</ele>
        <time>2021-08-10T16:08:02Z</time>
      </trkpt>
      <trkpt lat="47.35682" lon="6.84968">
        <ele>753</ele>
        <time>2021-08-10T16:08:04Z</time>
      </trkpt>
      <trkpt lat="47.3568" lon="6.84962">
        <ele>753.1</ele>
        <time>2021-08-10T16:08:05Z</time>
      </trkpt>
      <trkpt lat="47.3568" lon="6.8496">
        <ele>753.1</ele>
        <time>2021-08-10T16:08:06Z</time>
      </trkpt>
      <trkpt lat="47.35678" lon="6.84949">
        <ele>753.2</ele>
        <time>2021-08-10T16:08:08Z</time>
      </trkpt>
      <trkpt lat="47.35677" lon="6.84943">
        <ele>753.2</ele>
        <time>2021-08-10T16:08:09Z</time>
      </trkpt>
      <trkpt lat="47.35673" lon="6.84932">
        <ele>753.3</ele>
        <time>2021-08-10T16:08:11Z</time>
      </trkpt>
      <trkpt lat="47.35672" lon="6.84929">
        <ele>753.4</ele>
        <time>2021-08-10T16:08:12Z</time>
      </trkpt>
      <trkpt lat="47.3567" lon="6.84924">
        <ele>753.4</ele>
        <time>2021-08-10T16:08:14Z</time>
      </trkpt>
      <trkpt lat="47.35668" lon="6.84919">
        <ele>753.4</ele>
        <time>2021-08-10T16:08:15Z</time>
      </trkpt>
      <trkpt lat="47.35665" lon="6.84913">
        <ele>753.4</ele>
        <time>2021-08-10T16:08:17Z</time>
      </trkpt>
      <trkpt lat="47.35662" lon="6.84903">
        <ele>753.4</ele>
        <time>2021-08-10T16:08:18Z</time>
      </trkpt>
      <trkpt lat="47.3566" lon="6.84898">
        <ele>753.4</ele>
        <time>2021-08-10T16:08:19Z</time>
      </trkpt>
      <trkpt lat="47.35657" lon="6.84886">
        <ele>753.3</ele>
        <time>2021-08-10T16:08:21Z</time>
      </trkpt>
      <trkpt lat="47.35654" lon="6.8488">
        <ele>753.2</ele>
        <time>2021-08-10T16:08:22Z</time>
      </trkpt>
      <trkpt lat="47.35651" lon="6.84876">
        <ele>753.2</ele>
        <time>2021-08-10T16:08:24Z</time>
      </trkpt>
      <trkpt lat="47.35649" lon="6.84867">
        <ele>753.1</ele>
        <time>2021-08-10T16:08:26Z</time>
      </trkpt>
      <trkpt lat="47.35648" lon="6.84859">
        <ele>753.1</ele>
        <time>2021-08-10T16:08:27Z</time>
      </trkpt>
      <trkpt lat="47.35647" lon="6.84851">
        <ele>753.1</ele>
        <time>2021-08-10T16:08:28Z</time>
      </trkpt>
      <trkpt lat="47.35646" lon="6.8484">
        <ele>753.1</ele>
        <time>2021-08-10T16:08:30Z</time>
      </trkpt>
      <trkpt lat="47.35644" lon="6.84833">
        <ele>753.1</ele>
        <time>2021-08-10T16:08:31Z</time>
      </trkpt>
      <trkpt lat="47.35642" lon="6.84822">
        <ele>753.3</ele>
        <time>2021-08-10T16:08:33Z</time>
      </trkpt>
      <trkpt lat="47.35639" lon="6.8481">
        <ele>753.6</ele>
        <time>2021-08-10T16:08:35Z</time>
      </trkpt>
      <trkpt lat="47.35638" lon="6.84804">
        <ele>753.7</ele>
        <time>2021-08-10T16:08:36Z</time>
      </trkpt>
      <trkpt lat="47.35636" lon="6.84792">
        <ele>753.8</ele>
        <time>2021-08-10T16:08:38Z</time>
      </trkpt>
      <trkpt lat="47.35634" lon="6.8478">
        <ele>753.9</ele>
        <time>2021-08-10T16:08:40Z</time>
      </trkpt>
      <trkpt lat="47.35632" lon="6.8477">
        <ele>754</ele>
        <time>2021-08-10T16:08:42Z</time>
      </trkpt>
      <trkpt lat="47.35632" lon="6.84763">
        <ele>754.1</ele>
        <time>2021-08-10T16:08:43Z</time>
      </trkpt>
      <trkpt lat="47.35632" lon="6.84756">
        <ele>754.1</ele>
        <time>2021-08-10T16:08:45Z</time>
      </trkpt>
      <trkpt lat="47.35632" lon="6.84749">
        <ele>754.2</ele>
        <time>2021-08-10T16:08:46Z</time>
      </trkpt>
      <trkpt lat="47.35631" lon="6.84744">
        <ele>754.2</ele>
        <time>2021-08-10T16:08:47Z</time>
      </trkpt>
      <trkpt lat="47.35631" lon="6.84738">
        <ele>754.3</ele>
        <time>2021-08-10T16:08:49Z</time>
      </trkpt>
      <trkpt lat="47.3563" lon="6.84734">
        <ele>754.4</ele>
        <time>2021-08-10T16:08:50Z</time>
      </trkpt>
      <trkpt lat="47.3563" lon="6.84726">
        <ele>754.4</ele>
        <time>2021-08-10T16:08:51Z</time>
      </trkpt>
      <trkpt lat="47.3563" lon="6.84721">
        <ele>754.5</ele>
        <time>2021-08-10T16:08:52Z</time>
      </trkpt>
      <trkpt lat="47.3563" lon="6.84714">
        <ele>754.6</ele>
        <time>2021-08-10T16:08:54Z</time>
      </trkpt>
      <trkpt lat="47.35629" lon="6.84708">
        <ele>754.6</ele>
        <time>2021-08-10T16:08:55Z</time>
      </trkpt>
      <trkpt lat="47.35628" lon="6.84703">
        <ele>754.7</ele>
        <time>2021-08-10T16:08:56Z</time>
      </trkpt>
      <trkpt lat="47.35628" lon="6.84697">
        <ele>754.8</ele>
        <time>2021-08-10T16:08:57Z</time>
      </trkpt>
      <trkpt lat="47.35628" lon="6.84692">
        <ele>754.8</ele>
        <time>2021-08-10T16:08:58Z</time>
      </trkpt>
      <trkpt lat="47.35628" lon="6.84682">
        <ele>755</ele>
        <time>2021-08-10T16:09:00Z</time>
      </trkpt>
      <trkpt lat="47.35629" lon="6.84673">
        <ele>755.1</ele>
        <time>2021-08-10T16:09:02Z</time>
      </trkpt>
      <trkpt lat="47.3563" lon="6.84663">
        <ele>755.3</ele>
        <time>2021-08-10T16:09:04Z</time>
      </trkpt>
      <trkpt lat="47.35629" lon="6.84655">
        <ele>755.4</ele>
        <time>2021-08-10T16:09:06Z</time>
      </trkpt>
      <trkpt lat="47.35629" lon="6.84649">
        <ele>755.5</ele>
        <time>2021-08-10T16:09:07Z</time>
      </trkpt>
      <trkpt lat="47.35629" lon="6.84644">
        <ele>755.6</ele>
        <time>2021-08-10T16:09:08Z</time>
      </trkpt>
      <trkpt lat="47.35628" lon="6.84639">
        <ele>755.7</ele>
        <time>2021-08-10T16:09:09Z</time>
      </trkpt>
      <trkpt lat="47.35628" lon="6.84634">
        <ele>755.8</ele>
        <time>2021-08-10T16:09:10Z</time>
      </trkpt>
      <trkpt lat="47.35628" lon="6.8463">
        <ele>755.8</ele>
        <time>2021-08-10T16:09:11Z</time>
      </trkpt>
      <trkpt lat="47.35628" lon="6.84626">
        <ele>755.9</ele>
        <time>2021-08-10T16:09:12Z</time>
      </trkpt>
      <trkpt lat="47.35627" lon="6.8462">
        <ele>755.9</ele>
        <time>2021-08-10T16:09:14Z</time>
      </trkpt>
      <trkpt lat="47.35627" lon="6.84615">
        <ele>756</ele>
        <time>2021-08-10T16:09:15Z</time>
      </trkpt>
      <trkpt lat="47.35626" lon="6.84611">
        <ele>756</ele>
        <time>2021-08-10T16:09:16Z</time>
      </trkpt>
      <trkpt lat="47.35626" lon="6.84606">
        <ele>756</ele>
        <time>2021-08-10T16:09:17Z</time>
      </trkpt>
      <trkpt lat="47.35626" lon="6.84601">
        <ele>756.1</ele>
        <time>2021-08-10T16:09:18Z</time>
      </trkpt>
      <trkpt lat="47.35627" lon="6.84597">
        <ele>756.1</ele>
        <time>2021-08-10T16:09:19Z</time>
      </trkpt>
      <trkpt lat="47.35626" lon="6.84593">
        <ele>756.1</ele>
        <time>2021-08-10T16:09:20Z</time>
      </trkpt>
      <trkpt lat="47.35626" lon="6.84589">
        <ele>756.2</ele>
        <time>2021-08-10T16:09:21Z</time>
      </trkpt>
      <trkpt lat="47.35626" lon="6.84581">
        <ele>756.2</ele>
        <time>2021-08-10T16:09:23Z</time>
      </trkpt>
      <trkpt lat="47.35626" lon="6.84576">
        <ele>756.3</ele>
        <time>2021-08-10T16:09:24Z</time>
      </trkpt>
      <trkpt lat="47.35624" lon="6.84569">
        <ele>756.3</ele>
        <time>2021-08-10T16:09:26Z</time>
      </trkpt>
      <trkpt lat="47.35623" lon="6.84564">
        <ele>756.4</ele>
        <time>2021-08-10T16:09:27Z</time>
      </trkpt>
      <trkpt lat="47.35622" lon="6.84559">
        <ele>756.4</ele>
        <time>2021-08-10T16:09:28Z</time>
      </trkpt>
      <trkpt lat="47.35621" lon="6.84554">
        <ele>756.4</ele>
        <time>2021-08-10T16:09:29Z</time>
      </trkpt>
      <trkpt lat="47.3562" lon="6.84549">
        <ele>756.5</ele>
        <time>2021-08-10T16:09:30Z</time>
      </trkpt>
      <trkpt lat="47.35619" lon="6.84544">
        <ele>756.5</ele>
        <time>2021-08-10T16:09:31Z</time>
      </trkpt>
      <trkpt lat="47.35619" lon="6.84539">
        <ele>756.5</ele>
        <time>2021-08-10T16:09:32Z</time>
      </trkpt>
      <trkpt lat="47.35619" lon="6.84534">
        <ele>756.6</ele>
        <time>2021-08-10T16:09:33Z</time>
      </trkpt>
      <trkpt lat="47.35618" lon="6.84524">
        <ele>756.7</ele>
        <time>2021-08-10T16:09:35Z</time>
      </trkpt>
      <trkpt lat="47.35618" lon="6.84515">
        <ele>756.7</ele>
        <time>2021-08-10T16:09:37Z</time>
      </trkpt>
      <trkpt lat="47.35617" lon="6.84508">
        <ele>756.8</ele>
        <time>2021-08-10T16:09:39Z</time>
      </trkpt>
      <trkpt lat="47.35617" lon="6.84504">
        <ele>756.9</ele>
        <time>2021-08-10T16:09:40Z</time>
      </trkpt>
      <trkpt lat="47.35616" lon="6.84499">
        <ele>756.9</ele>
        <time>2021-08-10T16:09:41Z</time>
      </trkpt>
      <trkpt lat="47.35615" lon="6.84498">
        <ele>756.9</ele>
        <time>2021-08-10T16:09:42Z</time>
      </trkpt>
      <trkpt lat="47.35614" lon="6.84493">
        <ele>757</ele>
        <time>2021-08-10T16:09:43Z</time>
      </trkpt>
      <trkpt lat="47.35612" lon="6.84489">
        <ele>757</ele>
        <time>2021-08-10T16:09:44Z</time>
      </trkpt>
      <trkpt lat="47.35609" lon="6.84484">
        <ele>757.1</ele>
        <time>2021-08-10T16:09:46Z</time>
      </trkpt>
      <trkpt lat="47.35608" lon="6.84477">
        <ele>757.1</ele>
        <time>2021-08-10T16:09:48Z</time>
      </trkpt>
      <trkpt lat="47.35608" lon="6.84473">
        <ele>757.1</ele>
        <time>2021-08-10T16:09:49Z</time>
      </trkpt>
      <trkpt lat="47.35607" lon="6.84469">
        <ele>757.2</ele>
        <time>2021-08-10T16:09:50Z</time>
      </trkpt>
      <trkpt lat="47.35606" lon="6.84462">
        <ele>757.2</ele>
        <time>2021-08-10T16:09:52Z</time>
      </trkpt>
      <trkpt lat="47.35606" lon="6.84457">
        <ele>757.3</ele>
        <time>2021-08-10T16:09:53Z</time>
      </trkpt>
      <trkpt lat="47.35605" lon="6.84451">
        <ele>757.3</ele>
        <time>2021-08-10T16:09:54Z</time>
      </trkpt>
      <trkpt lat="47.35604" lon="6.84443">
        <ele>757.3</ele>
        <time>2021-08-10T16:09:56Z</time>
      </trkpt>
      <trkpt lat="47.35603" lon="6.84439">
        <ele>757.4</ele>
        <time>2021-08-10T16:09:57Z</time>
      </trkpt>
      <trkpt lat="47.35602" lon="6.84433">
        <ele>757.4</ele>
        <time>2021-08-10T16:09:58Z</time>
      </trkpt>
      <trkpt lat="47.35601" lon="6.84429">
        <ele>757.4</ele>
        <time>2021-08-10T16:09:59Z</time>
      </trkpt>
      <trkpt lat="47.356" lon="6.84424">
        <ele>757.4</ele>
        <time>2021-08-10T16:10:00Z</time>
      </trkpt>
      <trkpt lat="47.35597" lon="6.84414">
        <ele>757.4</ele>
        <time>2021-08-10T16:10:02Z</time>
      </trkpt>
      <trkpt lat="47.35595" lon="6.84407">
        <ele>757.4</ele>
        <time>2021-08-10T16:10:04Z</time>
      </trkpt>
      <trkpt lat="47.35593" lon="6.84401">
        <ele>757.4</ele>
        <time>2021-08-10T16:10:05Z</time>
      </trkpt>
      <trkpt lat="47.35593" lon="6.84396">
        <ele>757.4</ele>
        <time>2021-08-10T16:10:06Z</time>
      </trkpt>
      <trkpt lat="47.35593" lon="6.84389">
        <ele>757.4</ele>
        <time>2021-08-10T16:10:08Z</time>
      </trkpt>
      <trkpt lat="47.35591" lon="6.84383">
        <ele>757.4</ele>
        <time>2021-08-10T16:10:09Z</time>
      </trkpt>
      <trkpt lat="47.35589" lon="6.84375">
        <ele>757.4</ele>
        <time>2021-08-10T16:10:11Z</time>
      </trkpt>
      <trkpt lat="47.35587" lon="6.84366">
        <ele>757.4</ele>
        <time>2021-08-10T16:10:12Z</time>
      </trkpt>
      <trkpt lat="47.35585" lon="6.84358">
        <ele>757.4</ele>
        <time>2021-08-10T16:10:14Z</time>
      </trkpt>
      <trkpt lat="47.35584" lon="6.84348">
        <ele>757.4</ele>
        <time>2021-08-10T16:10:15Z</time>
      </trkpt>
      <trkpt lat="47.35583" lon="6.84337">
        <ele>757.4</ele>
        <time>2021-08-10T16:10:17Z</time>
      </trkpt>
      <trkpt lat="47.35582" lon="6.84332">
        <ele>757.4</ele>
        <time>2021-08-10T16:10:18Z</time>
      </trkpt>
      <trkpt lat="47.3558" lon="6.84324">
        <ele>757.4</ele>
        <time>2021-08-10T16:10:20Z</time>
      </trkpt>
      <trkpt lat="47.35578" lon="6.84319">
        <ele>757.4</ele>
        <time>2021-08-10T16:10:21Z</time>
      </trkpt>
      <trkpt lat="47.35577" lon="6.84314">
        <ele>757.4</ele>
        <time>2021-08-10T16:10:22Z</time>
      </trkpt>
      <trkpt lat="47.35576" lon="6.84309">
        <ele>757.4</ele>
        <time>2021-08-10T16:10:23Z</time>
      </trkpt>
      <trkpt lat="47.35576" lon="6.84305">
        <ele>757.4</ele>
        <time>2021-08-10T16:10:24Z</time>
      </trkpt>
      <trkpt lat="47.35575" lon="6.84301">
        <ele>757.4</ele>
        <time>2021-08-10T16:10:25Z</time>
      </trkpt>
      <trkpt lat="47.35574" lon="6.84296">
        <ele>757.4</ele>
        <time>2021-08-10T16:10:26Z</time>
      </trkpt>
      <trkpt lat="47.35574" lon="6.84292">
        <ele>757.4</ele>
        <time>2021-08-10T16:10:27Z</time>
      </trkpt>
      <trkpt lat="47.35574" lon="6.84287">
        <ele>757.4</ele>
        <time>2021-08-10T16:10:28Z</time>
      </trkpt>
      <trkpt lat="47.35573" lon="6.84277">
        <ele>757.4</ele>
        <time>2021-08-10T16:10:30Z</time>
      </trkpt>
      <trkpt lat="47.35572" lon="6.84273">
        <ele>757.4</ele>
        <time>2021-08-10T16:10:31Z</time>
      </trkpt>
      <trkpt lat="47.35571" lon="6.84267">
        <ele>757.5</ele>
        <time>2021-08-10T16:10:32Z</time>
      </trkpt>
      <trkpt lat="47.3557" lon="6.84263">
        <ele>757.5</ele>
        <time>2021-08-10T16:10:33Z</time>
      </trkpt>
      <trkpt lat="47.35568" lon="6.84254">
        <ele>757.5</ele>
        <time>2021-08-10T16:10:35Z</time>
      </trkpt>
      <trkpt lat="47.35567" lon="6.84249">
        <ele>757.6</ele>
        <time>2021-08-10T16:10:36Z</time>
      </trkpt>
      <trkpt lat="47.35566" lon="6.84243">
        <ele>757.6</ele>
        <time>2021-08-10T16:10:38Z</time>
      </trkpt>
      <trkpt lat="47.35566" lon="6.84238">
        <ele>757.7</ele>
        <time>2021-08-10T16:10:39Z</time>
      </trkpt>
      <trkpt lat="47.35566" lon="6.84234">
        <ele>757.7</ele>
        <time>2021-08-10T16:10:40Z</time>
      </trkpt>
      <trkpt lat="47.35565" lon="6.84228">
        <ele>757.7</ele>
        <time>2021-08-10T16:10:41Z</time>
      </trkpt>
      <trkpt lat="47.35565" lon="6.84224">
        <ele>757.8</ele>
        <time>2021-08-10T16:10:42Z</time>
      </trkpt>
      <trkpt lat="47.35564" lon="6.84215">
        <ele>757.8</ele>
        <time>2021-08-10T16:10:44Z</time>
      </trkpt>
      <trkpt lat="47.35562" lon="6.84206">
        <ele>757.9</ele>
        <time>2021-08-10T16:10:46Z</time>
      </trkpt>
      <trkpt lat="47.3556" lon="6.84201">
        <ele>757.9</ele>
        <time>2021-08-10T16:10:47Z</time>
      </trkpt>
      <trkpt lat="47.35557" lon="6.8419">
        <ele>758</ele>
        <time>2021-08-10T16:10:49Z</time>
      </trkpt>
      <trkpt lat="47.35553" lon="6.84179">
        <ele>758</ele>
        <time>2021-08-10T16:10:51Z</time>
      </trkpt>
      <trkpt lat="47.35551" lon="6.84174">
        <ele>758.1</ele>
        <time>2021-08-10T16:10:52Z</time>
      </trkpt>
      <trkpt lat="47.35548" lon="6.84164">
        <ele>758.1</ele>
        <time>2021-08-10T16:10:54Z</time>
      </trkpt>
      <trkpt lat="47.35547" lon="6.84159">
        <ele>758.1</ele>
        <time>2021-08-10T16:10:55Z</time>
      </trkpt>
      <trkpt lat="47.35546" lon="6.84155">
        <ele>758.2</ele>
        <time>2021-08-10T16:10:56Z</time>
      </trkpt>
      <trkpt lat="47.35544" lon="6.84146">
        <ele>758.2</ele>
        <time>2021-08-10T16:10:58Z</time>
      </trkpt>
      <trkpt lat="47.35541" lon="6.84138">
        <ele>758.3</ele>
        <time>2021-08-10T16:11:00Z</time>
      </trkpt>
      <trkpt lat="47.35539" lon="6.84133">
        <ele>758.3</ele>
        <time>2021-08-10T16:11:01Z</time>
      </trkpt>
      <trkpt lat="47.35537" lon="6.84129">
        <ele>758.4</ele>
        <time>2021-08-10T16:11:02Z</time>
      </trkpt>
      <trkpt lat="47.35535" lon="6.84125">
        <ele>758.4</ele>
        <time>2021-08-10T16:11:03Z</time>
      </trkpt>
      <trkpt lat="47.35534" lon="6.84121">
        <ele>758.5</ele>
        <time>2021-08-10T16:11:04Z</time>
      </trkpt>
      <trkpt lat="47.35532" lon="6.84112">
        <ele>758.6</ele>
        <time>2021-08-10T16:11:06Z</time>
      </trkpt>
      <trkpt lat="47.3553" lon="6.84104">
        <ele>758.6</ele>
        <time>2021-08-10T16:11:08Z</time>
      </trkpt>
      <trkpt lat="47.35529" lon="6.84098">
        <ele>758.7</ele>
        <time>2021-08-10T16:11:10Z</time>
      </trkpt>
      <trkpt lat="47.35527" lon="6.84094">
        <ele>758.8</ele>
        <time>2021-08-10T16:11:11Z</time>
      </trkpt>
      <trkpt lat="47.35526" lon="6.84089">
        <ele>758.8</ele>
        <time>2021-08-10T16:11:12Z</time>
      </trkpt>
      <trkpt lat="47.35526" lon="6.84088">
        <ele>758.8</ele>
        <time>2021-08-10T16:11:13Z</time>
      </trkpt>
      <trkpt lat="47.35526" lon="6.84089">
        <ele>758.8</ele>
        <time>2021-08-10T16:11:14Z</time>
      </trkpt>
      <trkpt lat="47.35524" lon="6.84085">
        <ele>758.9</ele>
        <time>2021-08-10T16:11:15Z</time>
      </trkpt>
      <trkpt lat="47.3552" lon="6.84078">
        <ele>759</ele>
        <time>2021-08-10T16:11:17Z</time>
      </trkpt>
      <trkpt lat="47.35518" lon="6.84075">
        <ele>759.1</ele>
        <time>2021-08-10T16:11:18Z</time>
      </trkpt>
      <trkpt lat="47.35518" lon="6.84074">
        <ele>759.1</ele>
        <time>2021-08-10T16:11:20Z</time>
      </trkpt>
      <trkpt lat="47.35517" lon="6.84073">
        <ele>759.2</ele>
        <time>2021-08-10T16:11:21Z</time>
      </trkpt>
      <trkpt lat="47.35516" lon="6.84072">
        <ele>759.2</ele>
        <time>2021-08-10T16:11:22Z</time>
      </trkpt>
      <trkpt lat="47.35515" lon="6.84071">
        <ele>759.2</ele>
        <time>2021-08-10T16:11:23Z</time>
      </trkpt>
      <trkpt lat="47.35514" lon="6.8407">
        <ele>759.3</ele>
        <time>2021-08-10T16:11:24Z</time>
      </trkpt>
      <trkpt lat="47.35511" lon="6.84067">
        <ele>759.4</ele>
        <time>2021-08-10T16:11:26Z</time>
      </trkpt>
      <trkpt lat="47.3551" lon="6.84065">
        <ele>759.5</ele>
        <time>2021-08-10T16:11:27Z</time>
      </trkpt>
      <trkpt lat="47.35413" lon="6.83889">
        <ele>758.4</ele>
        <time>2021-08-10T16:12:06Z</time>
      </trkpt>
      <trkpt lat="47.35393" lon="6.83852">
        <ele>757</ele>
        <time>2021-08-10T16:12:08Z</time>
      </trkpt>
      <trkpt lat="47.35385" lon="6.83838">
        <ele>756.5</ele>
        <time>2021-08-10T16:12:09Z</time>
      </trkpt>
      <trkpt lat="47.35378" lon="6.83828">
        <ele>756</ele>
        <time>2021-08-10T16:12:10Z</time>
      </trkpt>
      <trkpt lat="47.3537" lon="6.83815">
        <ele>755.5</ele>
        <time>2021-08-10T16:12:12Z</time>
      </trkpt>
      <trkpt lat="47.35365" lon="6.83804">
        <ele>755</ele>
        <time>2021-08-10T16:12:14Z</time>
      </trkpt>
      <trkpt lat="47.35362" lon="6.83798">
        <ele>754.7</ele>
        <time>2021-08-10T16:12:16Z</time>
      </trkpt>
      <trkpt lat="47.35361" lon="6.83797">
        <ele>754.6</ele>
        <time>2021-08-10T16:12:17Z</time>
      </trkpt>
      <trkpt lat="47.35357" lon="6.83794">
        <ele>754.3</ele>
        <time>2021-08-10T16:12:19Z</time>
      </trkpt>
      <trkpt lat="47.35349" lon="6.83784">
        <ele>753.6</ele>
        <time>2021-08-10T16:12:21Z</time>
      </trkpt>
      <trkpt lat="47.35348" lon="6.83781">
        <ele>753.4</ele>
        <time>2021-08-10T16:12:22Z</time>
      </trkpt>
      <trkpt lat="47.35345" lon="6.83769">
        <ele>752.8</ele>
        <time>2021-08-10T16:12:24Z</time>
      </trkpt>
      <trkpt lat="47.35344" lon="6.83764">
        <ele>752.6</ele>
        <time>2021-08-10T16:12:25Z</time>
      </trkpt>
      <trkpt lat="47.35342" lon="6.83761">
        <ele>752.3</ele>
        <time>2021-08-10T16:12:27Z</time>
      </trkpt>
      <trkpt lat="47.35337" lon="6.83755">
        <ele>751.9</ele>
        <time>2021-08-10T16:12:29Z</time>
      </trkpt>
      <trkpt lat="47.35334" lon="6.83748">
        <ele>751.6</ele>
        <time>2021-08-10T16:12:30Z</time>
      </trkpt>
      <trkpt lat="47.35331" lon="6.83743">
        <ele>751.3</ele>
        <time>2021-08-10T16:12:32Z</time>
      </trkpt>
      <trkpt lat="47.35318" lon="6.83722">
        <ele>750</ele>
        <time>2021-08-10T16:12:33Z</time>
      </trkpt>
      <trkpt lat="47.35306" lon="6.83703">
        <ele>748.6</ele>
        <time>2021-08-10T16:12:34Z</time>
      </trkpt>
      <trkpt lat="47.35294" lon="6.83684">
        <ele>747</ele>
        <time>2021-08-10T16:12:36Z</time>
      </trkpt>
      <trkpt lat="47.35294" lon="6.83684">
        <ele>747</ele>
        <time>2021-08-10T16:12:36Z</time>
      </trkpt>
      <trkpt lat="47.35277" lon="6.83656">
        <ele>744.4</ele>
        <time>2021-08-10T16:12:37Z</time>
      </trkpt>
      <trkpt lat="47.35239" lon="6.83611">
        <ele>740.2</ele>
        <time>2021-08-10T16:12:39Z</time>
      </trkpt>
      <trkpt lat="47.35214" lon="6.83577">
        <ele>737.4</ele>
        <time>2021-08-10T16:12:41Z</time>
      </trkpt>
      <trkpt lat="47.352" lon="6.83554">
        <ele>735.8</ele>
        <time>2021-08-10T16:12:43Z</time>
      </trkpt>
      <trkpt lat="47.35188" lon="6.83531">
        <ele>734.6</ele>
        <time>2021-08-10T16:12:45Z</time>
      </trkpt>
      <trkpt lat="47.35185" lon="6.83517">
        <ele>734</ele>
        <time>2021-08-10T16:12:46Z</time>
      </trkpt>
      <trkpt lat="47.35181" lon="6.83503">
        <ele>733.4</ele>
        <time>2021-08-10T16:12:47Z</time>
      </trkpt>
      <trkpt lat="47.35177" lon="6.83491">
        <ele>732.8</ele>
        <time>2021-08-10T16:12:48Z</time>
      </trkpt>
      <trkpt lat="47.35172" lon="6.8347">
        <ele>731.8</ele>
        <time>2021-08-10T16:12:50Z</time>
      </trkpt>
      <trkpt lat="47.35166" lon="6.83459">
        <ele>731.2</ele>
        <time>2021-08-10T16:12:51Z</time>
      </trkpt>
      <trkpt lat="47.35155" lon="6.83437">
        <ele>730.2</ele>
        <time>2021-08-10T16:12:53Z</time>
      </trkpt>
      <trkpt lat="47.35151" lon="6.83426">
        <ele>729.8</ele>
        <time>2021-08-10T16:12:54Z</time>
      </trkpt>
      <trkpt lat="47.35144" lon="6.83403">
        <ele>729</ele>
        <time>2021-08-10T16:12:56Z</time>
      </trkpt>
      <trkpt lat="47.35139" lon="6.83378">
        <ele>728.3</ele>
        <time>2021-08-10T16:12:58Z</time>
      </trkpt>
      <trkpt lat="47.35136" lon="6.83366">
        <ele>727.9</ele>
        <time>2021-08-10T16:12:59Z</time>
      </trkpt>
      <trkpt lat="47.35133" lon="6.83354">
        <ele>727.5</ele>
        <time>2021-08-10T16:13:00Z</time>
      </trkpt>
      <trkpt lat="47.3513" lon="6.83342">
        <ele>727</ele>
        <time>2021-08-10T16:13:01Z</time>
      </trkpt>
      <trkpt lat="47.35123" lon="6.83319">
        <ele>726.1</ele>
        <time>2021-08-10T16:13:03Z</time>
      </trkpt>
      <trkpt lat="47.3512" lon="6.83309">
        <ele>725.6</ele>
        <time>2021-08-10T16:13:04Z</time>
      </trkpt>
      <trkpt lat="47.35116" lon="6.83296">
        <ele>725.1</ele>
        <time>2021-08-10T16:13:06Z</time>
      </trkpt>
      <trkpt lat="47.35109" lon="6.83278">
        <ele>724.1</ele>
        <time>2021-08-10T16:13:08Z</time>
      </trkpt>
      <trkpt lat="47.35104" lon="6.83265">
        <ele>723.4</ele>
        <time>2021-08-10T16:13:09Z</time>
      </trkpt>
      <trkpt lat="47.35099" lon="6.83251">
        <ele>722.8</ele>
        <time>2021-08-10T16:13:10Z</time>
      </trkpt>
      <trkpt lat="47.35088" lon="6.83225">
        <ele>721.3</ele>
        <time>2021-08-10T16:13:12Z</time>
      </trkpt>
      <trkpt lat="47.35076" lon="6.83201">
        <ele>719.8</ele>
        <time>2021-08-10T16:13:14Z</time>
      </trkpt>
      <trkpt lat="47.35066" lon="6.83178">
        <ele>718.2</ele>
        <time>2021-08-10T16:13:16Z</time>
      </trkpt>
      <trkpt lat="47.35062" lon="6.83165">
        <ele>717.3</ele>
        <time>2021-08-10T16:13:17Z</time>
      </trkpt>
      <trkpt lat="47.3506" lon="6.83152">
        <ele>717</ele>
        <time>2021-08-10T16:13:18Z</time>
      </trkpt>
      <trkpt lat="47.35063" lon="6.83118">
        <ele>716.1</ele>
        <time>2021-08-10T16:13:20Z</time>
      </trkpt>
      <trkpt lat="47.35063" lon="6.83102">
        <ele>715.8</ele>
        <time>2021-08-10T16:13:21Z</time>
      </trkpt>
      <trkpt lat="47.35063" lon="6.83087">
        <ele>715.5</ele>
        <time>2021-08-10T16:13:22Z</time>
      </trkpt>
      <trkpt lat="47.35064" lon="6.83073">
        <ele>715.8</ele>
        <time>2021-08-10T16:13:23Z</time>
      </trkpt>
      <trkpt lat="47.35071" lon="6.83047">
        <ele>715.6</ele>
        <time>2021-08-10T16:13:25Z</time>
      </trkpt>
      <trkpt lat="47.35076" lon="6.83023">
        <ele>715</ele>
        <time>2021-08-10T16:13:27Z</time>
      </trkpt>
      <trkpt lat="47.35079" lon="6.83002">
        <ele>714.6</ele>
        <time>2021-08-10T16:13:29Z</time>
      </trkpt>
      <trkpt lat="47.3508" lon="6.82993">
        <ele>714.1</ele>
        <time>2021-08-10T16:13:30Z</time>
      </trkpt>
      <trkpt lat="47.35081" lon="6.8298">
        <ele>713.9</ele>
        <time>2021-08-10T16:13:32Z</time>
      </trkpt>
      <trkpt lat="47.35082" lon="6.82973">
        <ele>713.7</ele>
        <time>2021-08-10T16:13:33Z</time>
      </trkpt>
      <trkpt lat="47.35082" lon="6.82956">
        <ele>712.8</ele>
        <time>2021-08-10T16:13:35Z</time>
      </trkpt>
      <trkpt lat="47.35081" lon="6.82947">
        <ele>712.7</ele>
        <time>2021-08-10T16:13:36Z</time>
      </trkpt>
      <trkpt lat="47.35078" lon="6.82931">
        <ele>711.7</ele>
        <time>2021-08-10T16:13:38Z</time>
      </trkpt>
      <trkpt lat="47.35072" lon="6.82919">
        <ele>710.2</ele>
        <time>2021-08-10T16:13:40Z</time>
      </trkpt>
      <trkpt lat="47.35065" lon="6.8291">
        <ele>709.7</ele>
        <time>2021-08-10T16:13:41Z</time>
      </trkpt>
      <trkpt lat="47.35056" lon="6.82902">
        <ele>709.1</ele>
        <time>2021-08-10T16:13:42Z</time>
      </trkpt>
      <trkpt lat="47.35037" lon="6.82893">
        <ele>708.5</ele>
        <time>2021-08-10T16:13:44Z</time>
      </trkpt>
      <trkpt lat="47.35028" lon="6.8289">
        <ele>708.1</ele>
        <time>2021-08-10T16:13:45Z</time>
      </trkpt>
      <trkpt lat="47.35009" lon="6.82884">
        <ele>706.8</ele>
        <time>2021-08-10T16:13:47Z</time>
      </trkpt>
      <trkpt lat="47.35001" lon="6.8288">
        <ele>706.2</ele>
        <time>2021-08-10T16:13:48Z</time>
      </trkpt>
      <trkpt lat="47.34984" lon="6.82872">
        <ele>704.9</ele>
        <time>2021-08-10T16:13:50Z</time>
      </trkpt>
      <trkpt lat="47.34975" lon="6.82866">
        <ele>704.2</ele>
        <time>2021-08-10T16:13:51Z</time>
      </trkpt>
      <trkpt lat="47.34958" lon="6.82855">
        <ele>702.8</ele>
        <time>2021-08-10T16:13:53Z</time>
      </trkpt>
      <trkpt lat="47.34949" lon="6.8285">
        <ele>702.1</ele>
        <time>2021-08-10T16:13:54Z</time>
      </trkpt>
      <trkpt lat="47.34932" lon="6.82839">
        <ele>700.7</ele>
        <time>2021-08-10T16:13:56Z</time>
      </trkpt>
      <trkpt lat="47.34915" lon="6.82829">
        <ele>699.2</ele>
        <time>2021-08-10T16:13:58Z</time>
      </trkpt>
      <trkpt lat="47.34905" lon="6.82824">
        <ele>698.5</ele>
        <time>2021-08-10T16:13:59Z</time>
      </trkpt>
      <trkpt lat="47.34887" lon="6.82815">
        <ele>697.3</ele>
        <time>2021-08-10T16:14:01Z</time>
      </trkpt>
      <trkpt lat="47.34872" lon="6.82805">
        <ele>696.2</ele>
        <time>2021-08-10T16:14:03Z</time>
      </trkpt>
      <trkpt lat="47.34864" lon="6.828">
        <ele>695.7</ele>
        <time>2021-08-10T16:14:04Z</time>
      </trkpt>
      <trkpt lat="47.34851" lon="6.8279">
        <ele>694.7</ele>
        <time>2021-08-10T16:14:06Z</time>
      </trkpt>
      <trkpt lat="47.34836" lon="6.82783">
        <ele>693.7</ele>
        <time>2021-08-10T16:14:08Z</time>
      </trkpt>
      <trkpt lat="47.34828" lon="6.82779">
        <ele>693.2</ele>
        <time>2021-08-10T16:14:09Z</time>
      </trkpt>
      <trkpt lat="47.3482" lon="6.82775">
        <ele>692.7</ele>
        <time>2021-08-10T16:14:10Z</time>
      </trkpt>
      <trkpt lat="47.34811" lon="6.82775">
        <ele>692.2</ele>
        <time>2021-08-10T16:14:11Z</time>
      </trkpt>
      <trkpt lat="47.34793" lon="6.82771">
        <ele>691.1</ele>
        <time>2021-08-10T16:14:13Z</time>
      </trkpt>
      <trkpt lat="47.34784" lon="6.82767">
        <ele>690.6</ele>
        <time>2021-08-10T16:14:14Z</time>
      </trkpt>
      <trkpt lat="47.34776" lon="6.82763">
        <ele>690.1</ele>
        <time>2021-08-10T16:14:15Z</time>
      </trkpt>
      <trkpt lat="47.34758" lon="6.82752">
        <ele>689.1</ele>
        <time>2021-08-10T16:14:17Z</time>
      </trkpt>
      <trkpt lat="47.34749" lon="6.82747">
        <ele>688.6</ele>
        <time>2021-08-10T16:14:18Z</time>
      </trkpt>
      <trkpt lat="47.34734" lon="6.82736">
        <ele>687.9</ele>
        <time>2021-08-10T16:14:20Z</time>
      </trkpt>
      <trkpt lat="47.34726" lon="6.82732">
        <ele>687.6</ele>
        <time>2021-08-10T16:14:21Z</time>
      </trkpt>
      <trkpt lat="47.3471" lon="6.82725">
        <ele>687.1</ele>
        <time>2021-08-10T16:14:23Z</time>
      </trkpt>
      <trkpt lat="47.34693" lon="6.82714">
        <ele>686.8</ele>
        <time>2021-08-10T16:14:25Z</time>
      </trkpt>
      <trkpt lat="47.34685" lon="6.82711">
        <ele>686.6</ele>
        <time>2021-08-10T16:14:26Z</time>
      </trkpt>
      <trkpt lat="47.34678" lon="6.8271">
        <ele>686.6</ele>
        <time>2021-08-10T16:14:27Z</time>
      </trkpt>
      <trkpt lat="47.34663" lon="6.82713">
        <ele>686.4</ele>
        <time>2021-08-10T16:14:29Z</time>
      </trkpt>
      <trkpt lat="47.34656" lon="6.82716">
        <ele>686.4</ele>
        <time>2021-08-10T16:14:30Z</time>
      </trkpt>
      <trkpt lat="47.34651" lon="6.82718">
        <ele>686.3</ele>
        <time>2021-08-10T16:14:31Z</time>
      </trkpt>
      <trkpt lat="47.34645" lon="6.82722">
        <ele>686.3</ele>
        <time>2021-08-10T16:14:32Z</time>
      </trkpt>
      <trkpt lat="47.34637" lon="6.82737">
        <ele>686.2</ele>
        <time>2021-08-10T16:14:34Z</time>
      </trkpt>
      <trkpt lat="47.34633" lon="6.82759">
        <ele>686.1</ele>
        <time>2021-08-10T16:14:36Z</time>
      </trkpt>
      <trkpt lat="47.34631" lon="6.82771">
        <ele>685.3</ele>
        <time>2021-08-10T16:14:37Z</time>
      </trkpt>
      <trkpt lat="47.34629" lon="6.82777">
        <ele>685.2</ele>
        <time>2021-08-10T16:14:38Z</time>
      </trkpt>
      <trkpt lat="47.34626" lon="6.82779">
        <ele>685.1</ele>
        <time>2021-08-10T16:14:39Z</time>
      </trkpt>
      <trkpt lat="47.34624" lon="6.82778">
        <ele>685.1</ele>
        <time>2021-08-10T16:14:40Z</time>
      </trkpt>
      <trkpt lat="47.3462" lon="6.82769">
        <ele>684.9</ele>
        <time>2021-08-10T16:14:42Z</time>
      </trkpt>
      <trkpt lat="47.34608" lon="6.8275">
        <ele>684.6</ele>
        <time>2021-08-10T16:14:44Z</time>
      </trkpt>
      <trkpt lat="47.34601" lon="6.82738">
        <ele>684.4</ele>
        <time>2021-08-10T16:14:45Z</time>
      </trkpt>
      <trkpt lat="47.34587" lon="6.82721">
        <ele>683.9</ele>
        <time>2021-08-10T16:14:47Z</time>
      </trkpt>
      <trkpt lat="47.34574" lon="6.82706">
        <ele>683.4</ele>
        <time>2021-08-10T16:14:49Z</time>
      </trkpt>
      <trkpt lat="47.34568" lon="6.82699">
        <ele>683.1</ele>
        <time>2021-08-10T16:14:50Z</time>
      </trkpt>
      <trkpt lat="47.34557" lon="6.82685">
        <ele>682.6</ele>
        <time>2021-08-10T16:14:52Z</time>
      </trkpt>
      <trkpt lat="47.34552" lon="6.82679">
        <ele>682.3</ele>
        <time>2021-08-10T16:14:53Z</time>
      </trkpt>
      <trkpt lat="47.34542" lon="6.82667">
        <ele>681.6</ele>
        <time>2021-08-10T16:14:55Z</time>
      </trkpt>
      <trkpt lat="47.34533" lon="6.82653">
        <ele>681</ele>
        <time>2021-08-10T16:14:57Z</time>
      </trkpt>
      <trkpt lat="47.34529" lon="6.82645">
        <ele>680.5</ele>
        <time>2021-08-10T16:14:58Z</time>
      </trkpt>
      <trkpt lat="47.3452" lon="6.8263">
        <ele>679.7</ele>
        <time>2021-08-10T16:15:00Z</time>
      </trkpt>
      <trkpt lat="47.34516" lon="6.82624">
        <ele>679.3</ele>
        <time>2021-08-10T16:15:01Z</time>
      </trkpt>
      <trkpt lat="47.3451" lon="6.82619">
        <ele>678.9</ele>
        <time>2021-08-10T16:15:02Z</time>
      </trkpt>
      <trkpt lat="47.34498" lon="6.82605">
        <ele>677.9</ele>
        <time>2021-08-10T16:15:04Z</time>
      </trkpt>
      <trkpt lat="47.3449" lon="6.82599">
        <ele>677.4</ele>
        <time>2021-08-10T16:15:05Z</time>
      </trkpt>
      <trkpt lat="47.34483" lon="6.82595">
        <ele>677</ele>
        <time>2021-08-10T16:15:06Z</time>
      </trkpt>
      <trkpt lat="47.34475" lon="6.82591">
        <ele>676.6</ele>
        <time>2021-08-10T16:15:07Z</time>
      </trkpt>
      <trkpt lat="47.34461" lon="6.82584">
        <ele>675.9</ele>
        <time>2021-08-10T16:15:09Z</time>
      </trkpt>
      <trkpt lat="47.34453" lon="6.82581">
        <ele>675.6</ele>
        <time>2021-08-10T16:15:10Z</time>
      </trkpt>
      <trkpt lat="47.34446" lon="6.82578">
        <ele>675.4</ele>
        <time>2021-08-10T16:15:11Z</time>
      </trkpt>
      <trkpt lat="47.34431" lon="6.82573">
        <ele>674.8</ele>
        <time>2021-08-10T16:15:13Z</time>
      </trkpt>
      <trkpt lat="47.34422" lon="6.82571">
        <ele>674.6</ele>
        <time>2021-08-10T16:15:14Z</time>
      </trkpt>
      <trkpt lat="47.34406" lon="6.82566">
        <ele>674.2</ele>
        <time>2021-08-10T16:15:16Z</time>
      </trkpt>
      <trkpt lat="47.34399" lon="6.82563">
        <ele>674.1</ele>
        <time>2021-08-10T16:15:17Z</time>
      </trkpt>
      <trkpt lat="47.34392" lon="6.8256">
        <ele>673.9</ele>
        <time>2021-08-10T16:15:18Z</time>
      </trkpt>
      <trkpt lat="47.3438" lon="6.8255">
        <ele>673.7</ele>
        <time>2021-08-10T16:15:20Z</time>
      </trkpt>
      <trkpt lat="47.34367" lon="6.82538">
        <ele>673.5</ele>
        <time>2021-08-10T16:15:22Z</time>
      </trkpt>
      <trkpt lat="47.3436" lon="6.82532">
        <ele>673.4</ele>
        <time>2021-08-10T16:15:23Z</time>
      </trkpt>
      <trkpt lat="47.34353" lon="6.82527">
        <ele>673.3</ele>
        <time>2021-08-10T16:15:24Z</time>
      </trkpt>
      <trkpt lat="47.34346" lon="6.82522">
        <ele>673.2</ele>
        <time>2021-08-10T16:15:25Z</time>
      </trkpt>
      <trkpt lat="47.34333" lon="6.8251">
        <ele>673</ele>
        <time>2021-08-10T16:15:27Z</time>
      </trkpt>
      <trkpt lat="47.34321" lon="6.82497">
        <ele>672.8</ele>
        <time>2021-08-10T16:15:29Z</time>
      </trkpt>
      <trkpt lat="47.34307" lon="6.82487">
        <ele>672.6</ele>
        <time>2021-08-10T16:15:31Z</time>
      </trkpt>
      <trkpt lat="47.34293" lon="6.82476">
        <ele>672.3</ele>
        <time>2021-08-10T16:15:33Z</time>
      </trkpt>
      <trkpt lat="47.34287" lon="6.82471">
        <ele>672.2</ele>
        <time>2021-08-10T16:15:34Z</time>
      </trkpt>
      <trkpt lat="47.34275" lon="6.82461">
        <ele>672</ele>
        <time>2021-08-10T16:15:36Z</time>
      </trkpt>
      <trkpt lat="47.34269" lon="6.82456">
        <ele>671.9</ele>
        <time>2021-08-10T16:15:37Z</time>
      </trkpt>
      <trkpt lat="47.3426" lon="6.82444">
        <ele>671.6</ele>
        <time>2021-08-10T16:15:39Z</time>
      </trkpt>
      <trkpt lat="47.34256" lon="6.82437">
        <ele>671.5</ele>
        <time>2021-08-10T16:15:40Z</time>
      </trkpt>
      <trkpt lat="47.34248" lon="6.82425">
        <ele>671.2</ele>
        <time>2021-08-10T16:15:42Z</time>
      </trkpt>
      <trkpt lat="47.34245" lon="6.82419">
        <ele>671</ele>
        <time>2021-08-10T16:15:43Z</time>
      </trkpt>
      <trkpt lat="47.34241" lon="6.82412">
        <ele>670.9</ele>
        <time>2021-08-10T16:15:44Z</time>
      </trkpt>
      <trkpt lat="47.34234" lon="6.824">
        <ele>670.5</ele>
        <time>2021-08-10T16:15:46Z</time>
      </trkpt>
      <trkpt lat="47.34224" lon="6.82384">
        <ele>670</ele>
        <time>2021-08-10T16:15:48Z</time>
      </trkpt>
      <trkpt lat="47.34219" lon="6.82375">
        <ele>669.7</ele>
        <time>2021-08-10T16:15:49Z</time>
      </trkpt>
      <trkpt lat="47.34216" lon="6.82365">
        <ele>669.5</ele>
        <time>2021-08-10T16:15:50Z</time>
      </trkpt>
      <trkpt lat="47.3421" lon="6.82345">
        <ele>669.1</ele>
        <time>2021-08-10T16:15:52Z</time>
      </trkpt>
      <trkpt lat="47.342" lon="6.82328">
        <ele>668.8</ele>
        <time>2021-08-10T16:15:54Z</time>
      </trkpt>
      <trkpt lat="47.34196" lon="6.8232">
        <ele>668.7</ele>
        <time>2021-08-10T16:15:55Z</time>
      </trkpt>
      <trkpt lat="47.34188" lon="6.82305">
        <ele>668.5</ele>
        <time>2021-08-10T16:15:57Z</time>
      </trkpt>
      <trkpt lat="47.34185" lon="6.82298">
        <ele>668.4</ele>
        <time>2021-08-10T16:15:58Z</time>
      </trkpt>
      <trkpt lat="47.34179" lon="6.82283">
        <ele>668.1</ele>
        <time>2021-08-10T16:16:00Z</time>
      </trkpt>
      <trkpt lat="47.34174" lon="6.82276">
        <ele>668</ele>
        <time>2021-08-10T16:16:01Z</time>
      </trkpt>
      <trkpt lat="47.3417" lon="6.82271">
        <ele>667.9</ele>
        <time>2021-08-10T16:16:02Z</time>
      </trkpt>
      <trkpt lat="47.34161" lon="6.82261">
        <ele>667.7</ele>
        <time>2021-08-10T16:16:04Z</time>
      </trkpt>
      <trkpt lat="47.34156" lon="6.82257">
        <ele>667.6</ele>
        <time>2021-08-10T16:16:05Z</time>
      </trkpt>
      <trkpt lat="47.34148" lon="6.82248">
        <ele>667.4</ele>
        <time>2021-08-10T16:16:07Z</time>
      </trkpt>
      <trkpt lat="47.34139" lon="6.82241">
        <ele>667.2</ele>
        <time>2021-08-10T16:16:09Z</time>
      </trkpt>
      <trkpt lat="47.34128" lon="6.82234">
        <ele>666.9</ele>
        <time>2021-08-10T16:16:11Z</time>
      </trkpt>
      <trkpt lat="47.34118" lon="6.82226">
        <ele>666.7</ele>
        <time>2021-08-10T16:16:13Z</time>
      </trkpt>
      <trkpt lat="47.3411" lon="6.82218">
        <ele>666.5</ele>
        <time>2021-08-10T16:16:15Z</time>
      </trkpt>
      <trkpt lat="47.34102" lon="6.8221">
        <ele>666.4</ele>
        <time>2021-08-10T16:16:17Z</time>
      </trkpt>
      <trkpt lat="47.34095" lon="6.82199">
        <ele>666.2</ele>
        <time>2021-08-10T16:16:19Z</time>
      </trkpt>
      <trkpt lat="47.34091" lon="6.82194">
        <ele>666</ele>
        <time>2021-08-10T16:16:20Z</time>
      </trkpt>
      <trkpt lat="47.34081" lon="6.82184">
        <ele>665.9</ele>
        <time>2021-08-10T16:16:22Z</time>
      </trkpt>
      <trkpt lat="47.34076" lon="6.8218">
        <ele>665.8</ele>
        <time>2021-08-10T16:16:23Z</time>
      </trkpt>
      <trkpt lat="47.34064" lon="6.82171">
        <ele>665.6</ele>
        <time>2021-08-10T16:16:25Z</time>
      </trkpt>
      <trkpt lat="47.34058" lon="6.82167">
        <ele>665.5</ele>
        <time>2021-08-10T16:16:26Z</time>
      </trkpt>
      <trkpt lat="47.34048" lon="6.82155">
        <ele>665.3</ele>
        <time>2021-08-10T16:16:28Z</time>
      </trkpt>
      <trkpt lat="47.34044" lon="6.82148">
        <ele>665.2</ele>
        <time>2021-08-10T16:16:29Z</time>
      </trkpt>
      <trkpt lat="47.34036" lon="6.82134">
        <ele>665</ele>
        <time>2021-08-10T16:16:31Z</time>
      </trkpt>
      <trkpt lat="47.34033" lon="6.82126">
        <ele>664.9</ele>
        <time>2021-08-10T16:16:32Z</time>
      </trkpt>
      <trkpt lat="47.34027" lon="6.82113">
        <ele>664.8</ele>
        <time>2021-08-10T16:16:34Z</time>
      </trkpt>
      <trkpt lat="47.34023" lon="6.82107">
        <ele>664.8</ele>
        <time>2021-08-10T16:16:35Z</time>
      </trkpt>
      <trkpt lat="47.34019" lon="6.82102">
        <ele>664.8</ele>
        <time>2021-08-10T16:16:36Z</time>
      </trkpt>
      <trkpt lat="47.34014" lon="6.82096">
        <ele>664.8</ele>
        <time>2021-08-10T16:16:37Z</time>
      </trkpt>
      <trkpt lat="47.34008" lon="6.8209">
        <ele>664.9</ele>
        <time>2021-08-10T16:16:38Z</time>
      </trkpt>
      <trkpt lat="47.33999" lon="6.82079">
        <ele>665.1</ele>
        <time>2021-08-10T16:16:40Z</time>
      </trkpt>
      <trkpt lat="47.33995" lon="6.82075">
        <ele>665.2</ele>
        <time>2021-08-10T16:16:41Z</time>
      </trkpt>
      <trkpt lat="47.33988" lon="6.82068">
        <ele>665.5</ele>
        <time>2021-08-10T16:16:43Z</time>
      </trkpt>
      <trkpt lat="47.33982" lon="6.8206">
        <ele>665.8</ele>
        <time>2021-08-10T16:16:45Z</time>
      </trkpt>
      <trkpt lat="47.33978" lon="6.82056">
        <ele>666</ele>
        <time>2021-08-10T16:16:46Z</time>
      </trkpt>
      <trkpt lat="47.33976" lon="6.82053">
        <ele>666.2</ele>
        <time>2021-08-10T16:16:47Z</time>
      </trkpt>
      <trkpt lat="47.33973" lon="6.8205">
        <ele>666.4</ele>
        <time>2021-08-10T16:16:48Z</time>
      </trkpt>
      <trkpt lat="47.33965" lon="6.82047">
        <ele>666.8</ele>
        <time>2021-08-10T16:16:50Z</time>
      </trkpt>
      <trkpt lat="47.33963" lon="6.82044">
        <ele>667</ele>
        <time>2021-08-10T16:16:51Z</time>
      </trkpt>
      <trkpt lat="47.33961" lon="6.82041">
        <ele>667.1</ele>
        <time>2021-08-10T16:16:52Z</time>
      </trkpt>
      <trkpt lat="47.33961" lon="6.8204">
        <ele>667.2</ele>
        <time>2021-08-10T16:16:53Z</time>
      </trkpt>
      <trkpt lat="47.33957" lon="6.82035">
        <ele>667.4</ele>
        <time>2021-08-10T16:16:55Z</time>
      </trkpt>
      <trkpt lat="47.33955" lon="6.8203">
        <ele>667.6</ele>
        <time>2021-08-10T16:16:56Z</time>
      </trkpt>
      <trkpt lat="47.33953" lon="6.82028">
        <ele>667.6</ele>
        <time>2021-08-10T16:16:57Z</time>
      </trkpt>
      <trkpt lat="47.33952" lon="6.82029">
        <ele>667.7</ele>
        <time>2021-08-10T16:16:58Z</time>
      </trkpt>
      <trkpt lat="47.33948" lon="6.82029">
        <ele>667.8</ele>
        <time>2021-08-10T16:17:00Z</time>
      </trkpt>
      <trkpt lat="47.33946" lon="6.82029">
        <ele>667.9</ele>
        <time>2021-08-10T16:17:01Z</time>
      </trkpt>
      <trkpt lat="47.33945" lon="6.8203">
        <ele>667.9</ele>
        <time>2021-08-10T16:17:02Z</time>
      </trkpt>
      <trkpt lat="47.33939" lon="6.82034">
        <ele>667.8</ele>
        <time>2021-08-10T16:17:04Z</time>
      </trkpt>
      <trkpt lat="47.33937" lon="6.8204">
        <ele>667.7</ele>
        <time>2021-08-10T16:17:05Z</time>
      </trkpt>
      <trkpt lat="47.33934" lon="6.82047">
        <ele>667.6</ele>
        <time>2021-08-10T16:17:07Z</time>
      </trkpt>
      <trkpt lat="47.33932" lon="6.82053">
        <ele>667.4</ele>
        <time>2021-08-10T16:17:08Z</time>
      </trkpt>
      <trkpt lat="47.33925" lon="6.82064">
        <ele>667.1</ele>
        <time>2021-08-10T16:17:09Z</time>
      </trkpt>
      <trkpt lat="47.3392" lon="6.82069">
        <ele>666.9</ele>
        <time>2021-08-10T16:17:10Z</time>
      </trkpt>
      <trkpt lat="47.33914" lon="6.82077">
        <ele>666.7</ele>
        <time>2021-08-10T16:17:12Z</time>
      </trkpt>
      <trkpt lat="47.33907" lon="6.82081">
        <ele>666.4</ele>
        <time>2021-08-10T16:17:13Z</time>
      </trkpt>
      <trkpt lat="47.3389" lon="6.82088">
        <ele>665.8</ele>
        <time>2021-08-10T16:17:15Z</time>
      </trkpt>
      <trkpt lat="47.33874" lon="6.8209">
        <ele>665.3</ele>
        <time>2021-08-10T16:17:17Z</time>
      </trkpt>
      <trkpt lat="47.33866" lon="6.8209">
        <ele>664.9</ele>
        <time>2021-08-10T16:17:18Z</time>
      </trkpt>
      <trkpt lat="47.3385" lon="6.82084">
        <ele>664</ele>
        <time>2021-08-10T16:17:20Z</time>
      </trkpt>
      <trkpt lat="47.33832" lon="6.82076">
        <ele>663</ele>
        <time>2021-08-10T16:17:22Z</time>
      </trkpt>
      <trkpt lat="47.33825" lon="6.82071">
        <ele>662.6</ele>
        <time>2021-08-10T16:17:23Z</time>
      </trkpt>
      <trkpt lat="47.33818" lon="6.82066">
        <ele>662.2</ele>
        <time>2021-08-10T16:17:24Z</time>
      </trkpt>
      <trkpt lat="47.33811" lon="6.8206">
        <ele>661.8</ele>
        <time>2021-08-10T16:17:25Z</time>
      </trkpt>
      <trkpt lat="47.33797" lon="6.82051">
        <ele>660.9</ele>
        <time>2021-08-10T16:17:27Z</time>
      </trkpt>
      <trkpt lat="47.33789" lon="6.82044">
        <ele>660.4</ele>
        <time>2021-08-10T16:17:28Z</time>
      </trkpt>
      <trkpt lat="47.33778" lon="6.82033">
        <ele>659.6</ele>
        <time>2021-08-10T16:17:30Z</time>
      </trkpt>
      <trkpt lat="47.33766" lon="6.82021">
        <ele>658.8</ele>
        <time>2021-08-10T16:17:32Z</time>
      </trkpt>
      <trkpt lat="47.33761" lon="6.82014">
        <ele>658.5</ele>
        <time>2021-08-10T16:17:33Z</time>
      </trkpt>
      <trkpt lat="47.33749" lon="6.81998">
        <ele>657.7</ele>
        <time>2021-08-10T16:17:35Z</time>
      </trkpt>
      <trkpt lat="47.33743" lon="6.8199">
        <ele>657.3</ele>
        <time>2021-08-10T16:17:36Z</time>
      </trkpt>
      <trkpt lat="47.33736" lon="6.81982">
        <ele>656.9</ele>
        <time>2021-08-10T16:17:37Z</time>
      </trkpt>
      <trkpt lat="47.3373" lon="6.81976">
        <ele>656.5</ele>
        <time>2021-08-10T16:17:38Z</time>
      </trkpt>
      <trkpt lat="47.33723" lon="6.81969">
        <ele>656.1</ele>
        <time>2021-08-10T16:17:39Z</time>
      </trkpt>
      <trkpt lat="47.33707" lon="6.81958">
        <ele>655.2</ele>
        <time>2021-08-10T16:17:41Z</time>
      </trkpt>
      <trkpt lat="47.33698" lon="6.81952">
        <ele>654.7</ele>
        <time>2021-08-10T16:17:42Z</time>
      </trkpt>
      <trkpt lat="47.33689" lon="6.81946">
        <ele>654.2</ele>
        <time>2021-08-10T16:17:43Z</time>
      </trkpt>
      <trkpt lat="47.33681" lon="6.81939">
        <ele>653.7</ele>
        <time>2021-08-10T16:17:44Z</time>
      </trkpt>
      <trkpt lat="47.33666" lon="6.81925">
        <ele>652.8</ele>
        <time>2021-08-10T16:17:46Z</time>
      </trkpt>
      <trkpt lat="47.33658" lon="6.81917">
        <ele>652.3</ele>
        <time>2021-08-10T16:17:47Z</time>
      </trkpt>
      <trkpt lat="47.33642" lon="6.81903">
        <ele>651.4</ele>
        <time>2021-08-10T16:17:49Z</time>
      </trkpt>
      <trkpt lat="47.33625" lon="6.81893">
        <ele>650.5</ele>
        <time>2021-08-10T16:17:51Z</time>
      </trkpt>
      <trkpt lat="47.3361" lon="6.81884">
        <ele>649.6</ele>
        <time>2021-08-10T16:17:53Z</time>
      </trkpt>
      <trkpt lat="47.33593" lon="6.81876">
        <ele>648.6</ele>
        <time>2021-08-10T16:17:55Z</time>
      </trkpt>
      <trkpt lat="47.33585" lon="6.81874">
        <ele>648.2</ele>
        <time>2021-08-10T16:17:56Z</time>
      </trkpt>
      <trkpt lat="47.33576" lon="6.81872">
        <ele>647.7</ele>
        <time>2021-08-10T16:17:57Z</time>
      </trkpt>
      <trkpt lat="47.33559" lon="6.81867">
        <ele>646.7</ele>
        <time>2021-08-10T16:17:59Z</time>
      </trkpt>
      <trkpt lat="47.3355" lon="6.81865">
        <ele>646.2</ele>
        <time>2021-08-10T16:18:00Z</time>
      </trkpt>
      <trkpt lat="47.33541" lon="6.81864">
        <ele>645.7</ele>
        <time>2021-08-10T16:18:01Z</time>
      </trkpt>
      <trkpt lat="47.33531" lon="6.81861">
        <ele>645.2</ele>
        <time>2021-08-10T16:18:02Z</time>
      </trkpt>
      <trkpt lat="47.33522" lon="6.81859">
        <ele>644.7</ele>
        <time>2021-08-10T16:18:03Z</time>
      </trkpt>
      <trkpt lat="47.33503" lon="6.81856">
        <ele>643.7</ele>
        <time>2021-08-10T16:18:05Z</time>
      </trkpt>
      <trkpt lat="47.33484" lon="6.81852">
        <ele>642.7</ele>
        <time>2021-08-10T16:18:07Z</time>
      </trkpt>
      <trkpt lat="47.33465" lon="6.81849">
        <ele>641.8</ele>
        <time>2021-08-10T16:18:09Z</time>
      </trkpt>
      <trkpt lat="47.33456" lon="6.81847">
        <ele>641.3</ele>
        <time>2021-08-10T16:18:10Z</time>
      </trkpt>
      <trkpt lat="47.33439" lon="6.81844">
        <ele>640.4</ele>
        <time>2021-08-10T16:18:12Z</time>
      </trkpt>
      <trkpt lat="47.33431" lon="6.81844">
        <ele>640</ele>
        <time>2021-08-10T16:18:13Z</time>
      </trkpt>
      <trkpt lat="47.33421" lon="6.81844">
        <ele>639.5</ele>
        <time>2021-08-10T16:18:14Z</time>
      </trkpt>
      <trkpt lat="47.33403" lon="6.81846">
        <ele>638.4</ele>
        <time>2021-08-10T16:18:16Z</time>
      </trkpt>
      <trkpt lat="47.33385" lon="6.81849">
        <ele>637.5</ele>
        <time>2021-08-10T16:18:18Z</time>
      </trkpt>
      <trkpt lat="47.33368" lon="6.81853">
        <ele>636.6</ele>
        <time>2021-08-10T16:18:20Z</time>
      </trkpt>
      <trkpt lat="47.33351" lon="6.81858">
        <ele>635.7</ele>
        <time>2021-08-10T16:18:22Z</time>
      </trkpt>
      <trkpt lat="47.33343" lon="6.8186">
        <ele>635.3</ele>
        <time>2021-08-10T16:18:23Z</time>
      </trkpt>
      <trkpt lat="47.33325" lon="6.81863">
        <ele>634.3</ele>
        <time>2021-08-10T16:18:25Z</time>
      </trkpt>
      <trkpt lat="47.33309" lon="6.81868">
        <ele>633.2</ele>
        <time>2021-08-10T16:18:27Z</time>
      </trkpt>
      <trkpt lat="47.333" lon="6.81871">
        <ele>632.7</ele>
        <time>2021-08-10T16:18:28Z</time>
      </trkpt>
      <trkpt lat="47.33292" lon="6.81873">
        <ele>632.3</ele>
        <time>2021-08-10T16:18:29Z</time>
      </trkpt>
      <trkpt lat="47.33284" lon="6.81876">
        <ele>631.8</ele>
        <time>2021-08-10T16:18:30Z</time>
      </trkpt>
      <trkpt lat="47.33268" lon="6.81881">
        <ele>630.9</ele>
        <time>2021-08-10T16:18:32Z</time>
      </trkpt>
      <trkpt lat="47.3326" lon="6.81884">
        <ele>630.3</ele>
        <time>2021-08-10T16:18:33Z</time>
      </trkpt>
      <trkpt lat="47.33252" lon="6.81887">
        <ele>629.7</ele>
        <time>2021-08-10T16:18:34Z</time>
      </trkpt>
      <trkpt lat="47.33233" lon="6.81896">
        <ele>628.2</ele>
        <time>2021-08-10T16:18:36Z</time>
      </trkpt>
      <trkpt lat="47.33223" lon="6.81899">
        <ele>627.4</ele>
        <time>2021-08-10T16:18:37Z</time>
      </trkpt>
      <trkpt lat="47.33212" lon="6.81902">
        <ele>626.6</ele>
        <time>2021-08-10T16:18:38Z</time>
      </trkpt>
      <trkpt lat="47.33192" lon="6.81909">
        <ele>625.1</ele>
        <time>2021-08-10T16:18:40Z</time>
      </trkpt>
      <trkpt lat="47.33182" lon="6.81914">
        <ele>624.4</ele>
        <time>2021-08-10T16:18:41Z</time>
      </trkpt>
      <trkpt lat="47.33173" lon="6.81919">
        <ele>623.7</ele>
        <time>2021-08-10T16:18:42Z</time>
      </trkpt>
      <trkpt lat="47.33155" lon="6.81928">
        <ele>622.6</ele>
        <time>2021-08-10T16:18:44Z</time>
      </trkpt>
      <trkpt lat="47.33146" lon="6.81931">
        <ele>622</ele>
        <time>2021-08-10T16:18:45Z</time>
      </trkpt>
      <trkpt lat="47.33137" lon="6.81935">
        <ele>621.4</ele>
        <time>2021-08-10T16:18:46Z</time>
      </trkpt>
      <trkpt lat="47.33118" lon="6.81944">
        <ele>620.2</ele>
        <time>2021-08-10T16:18:48Z</time>
      </trkpt>
      <trkpt lat="47.33109" lon="6.81948">
        <ele>619.6</ele>
        <time>2021-08-10T16:18:49Z</time>
      </trkpt>
      <trkpt lat="47.331" lon="6.81952">
        <ele>619</ele>
        <time>2021-08-10T16:18:50Z</time>
      </trkpt>
      <trkpt lat="47.33091" lon="6.81955">
        <ele>618.5</ele>
        <time>2021-08-10T16:18:51Z</time>
      </trkpt>
      <trkpt lat="47.33069" lon="6.81957">
        <ele>617.1</ele>
        <time>2021-08-10T16:18:53Z</time>
      </trkpt>
      <trkpt lat="47.33059" lon="6.81959">
        <ele>616.3</ele>
        <time>2021-08-10T16:18:54Z</time>
      </trkpt>
      <trkpt lat="47.33049" lon="6.81961">
        <ele>615.6</ele>
        <time>2021-08-10T16:18:55Z</time>
      </trkpt>
      <trkpt lat="47.33029" lon="6.81968">
        <ele>614.1</ele>
        <time>2021-08-10T16:18:57Z</time>
      </trkpt>
      <trkpt lat="47.33021" lon="6.81975">
        <ele>613.3</ele>
        <time>2021-08-10T16:18:58Z</time>
      </trkpt>
      <trkpt lat="47.33008" lon="6.81992">
        <ele>611.8</ele>
        <time>2021-08-10T16:19:00Z</time>
      </trkpt>
      <trkpt lat="47.33004" lon="6.81994">
        <ele>611.4</ele>
        <time>2021-08-10T16:19:02Z</time>
      </trkpt>
      <trkpt lat="47.33004" lon="6.81995">
        <ele>611.4</ele>
        <time>2021-08-10T16:19:04Z</time>
      </trkpt>
      <trkpt lat="47.33004" lon="6.81995">
        <ele>611.4</ele>
        <time>2021-08-10T16:19:05Z</time>
      </trkpt>
      <trkpt lat="47.33004" lon="6.81996">
        <ele>611.3</ele>
        <time>2021-08-10T16:19:07Z</time>
      </trkpt>
      <trkpt lat="47.32932" lon="6.82243">
        <ele>598.5</ele>
        <time>2021-08-10T16:19:45Z</time>
      </trkpt>
      <trkpt lat="47.3294" lon="6.82977">
        <ele>562.3</ele>
        <time>2021-08-10T16:20:13Z</time>
      </trkpt>
      <trkpt lat="47.3294" lon="6.82977">
        <ele>562.3</ele>
        <time>2021-08-10T16:20:13Z</time>
      </trkpt>
      <trkpt lat="47.32943" lon="6.82992">
        <ele>561.6</ele>
        <time>2021-08-10T16:20:14Z</time>
      </trkpt>
      <trkpt lat="47.32952" lon="6.8302">
        <ele>560</ele>
        <time>2021-08-10T16:20:16Z</time>
      </trkpt>
      <trkpt lat="47.3296" lon="6.83048">
        <ele>558.6</ele>
        <time>2021-08-10T16:20:18Z</time>
      </trkpt>
      <trkpt lat="47.32964" lon="6.83079">
        <ele>557.1</ele>
        <time>2021-08-10T16:20:20Z</time>
      </trkpt>
      <trkpt lat="47.32965" lon="6.83092">
        <ele>556.5</ele>
        <time>2021-08-10T16:20:21Z</time>
      </trkpt>
      <trkpt lat="47.32965" lon="6.83113">
        <ele>555.5</ele>
        <time>2021-08-10T16:20:23Z</time>
      </trkpt>
      <trkpt lat="47.32964" lon="6.83114">
        <ele>556.4</ele>
        <time>2021-08-10T16:20:25Z</time>
      </trkpt>
      <trkpt lat="47.32964" lon="6.83114">
        <ele>557.6</ele>
        <time>2021-08-10T16:20:26Z</time>
      </trkpt>
      <trkpt lat="47.32964" lon="6.83115">
        <ele>558.9</ele>
        <time>2021-08-10T16:20:28Z</time>
      </trkpt>
      <trkpt lat="47.32963" lon="6.83115">
        <ele>560.2</ele>
        <time>2021-08-10T16:20:29Z</time>
      </trkpt>
      <trkpt lat="47.32963" lon="6.83118">
        <ele>559.6</ele>
        <time>2021-08-10T16:20:31Z</time>
      </trkpt>
      <trkpt lat="47.32963" lon="6.83119">
        <ele>560.5</ele>
        <time>2021-08-10T16:20:32Z</time>
      </trkpt>
      <trkpt lat="47.32962" lon="6.83122">
        <ele>561.5</ele>
        <time>2021-08-10T16:20:34Z</time>
      </trkpt>
      <trkpt lat="47.32785" lon="6.82995">
        <ele>520.2</ele>
        <time>2021-08-10T16:21:20Z</time>
      </trkpt>
      <trkpt lat="47.32782" lon="6.82976">
        <ele>522</ele>
        <time>2021-08-10T16:21:21Z</time>
      </trkpt>
      <trkpt lat="47.32779" lon="6.82953">
        <ele>521.3</ele>
        <time>2021-08-10T16:21:23Z</time>
      </trkpt>
      <trkpt lat="47.32781" lon="6.8294">
        <ele>521</ele>
        <time>2021-08-10T16:21:24Z</time>
      </trkpt>
      <trkpt lat="47.32778" lon="6.82916">
        <ele>520.4</ele>
        <time>2021-08-10T16:21:26Z</time>
      </trkpt>
      <trkpt lat="47.32776" lon="6.82903">
        <ele>520.1</ele>
        <time>2021-08-10T16:21:27Z</time>
      </trkpt>
      <trkpt lat="47.32768" lon="6.8288">
        <ele>519.5</ele>
        <time>2021-08-10T16:21:29Z</time>
      </trkpt>
      <trkpt lat="47.32755" lon="6.82861">
        <ele>518.9</ele>
        <time>2021-08-10T16:21:31Z</time>
      </trkpt>
      <trkpt lat="47.32749" lon="6.82852">
        <ele>518.7</ele>
        <time>2021-08-10T16:21:32Z</time>
      </trkpt>
      <trkpt lat="47.32745" lon="6.82841">
        <ele>518.4</ele>
        <time>2021-08-10T16:21:33Z</time>
      </trkpt>
      <trkpt lat="47.32738" lon="6.8282">
        <ele>517.9</ele>
        <time>2021-08-10T16:21:35Z</time>
      </trkpt>
      <trkpt lat="47.32733" lon="6.828">
        <ele>517.5</ele>
        <time>2021-08-10T16:21:37Z</time>
      </trkpt>
      <trkpt lat="47.3273" lon="6.82789">
        <ele>517.3</ele>
        <time>2021-08-10T16:21:38Z</time>
      </trkpt>
      <trkpt lat="47.32728" lon="6.82779">
        <ele>517.2</ele>
        <time>2021-08-10T16:21:39Z</time>
      </trkpt>
      <trkpt lat="47.32726" lon="6.82769">
        <ele>517</ele>
        <time>2021-08-10T16:21:40Z</time>
      </trkpt>
      <trkpt lat="47.32721" lon="6.82749">
        <ele>516.6</ele>
        <time>2021-08-10T16:21:42Z</time>
      </trkpt>
      <trkpt lat="47.32718" lon="6.82739">
        <ele>516.4</ele>
        <time>2021-08-10T16:21:43Z</time>
      </trkpt>
      <trkpt lat="47.32715" lon="6.82719">
        <ele>515.9</ele>
        <time>2021-08-10T16:21:45Z</time>
      </trkpt>
      <trkpt lat="47.32711" lon="6.82699">
        <ele>515.4</ele>
        <time>2021-08-10T16:21:47Z</time>
      </trkpt>
      <trkpt lat="47.32708" lon="6.82683">
        <ele>515</ele>
        <time>2021-08-10T16:21:49Z</time>
      </trkpt>
      <trkpt lat="47.32706" lon="6.82679">
        <ele>514.8</ele>
        <time>2021-08-10T16:21:50Z</time>
      </trkpt>
      <trkpt lat="47.32704" lon="6.82673">
        <ele>514.6</ele>
        <time>2021-08-10T16:21:51Z</time>
      </trkpt>
      <trkpt lat="47.32691" lon="6.82657">
        <ele>513.9</ele>
        <time>2021-08-10T16:21:53Z</time>
      </trkpt>
      <trkpt lat="47.3268" lon="6.82646">
        <ele>513.3</ele>
        <time>2021-08-10T16:21:54Z</time>
      </trkpt>
      <trkpt lat="47.32669" lon="6.82637">
        <ele>512.6</ele>
        <time>2021-08-10T16:21:55Z</time>
      </trkpt>
      <trkpt lat="47.3266" lon="6.82629">
        <ele>512</ele>
        <time>2021-08-10T16:21:56Z</time>
      </trkpt>
      <trkpt lat="47.32645" lon="6.82616">
        <ele>511</ele>
        <time>2021-08-10T16:21:58Z</time>
      </trkpt>
      <trkpt lat="47.3263" lon="6.82603">
        <ele>509.9</ele>
        <time>2021-08-10T16:22:00Z</time>
      </trkpt>
      <trkpt lat="47.32623" lon="6.82596">
        <ele>509.3</ele>
        <time>2021-08-10T16:22:01Z</time>
      </trkpt>
      <trkpt lat="47.32615" lon="6.82588">
        <ele>508.7</ele>
        <time>2021-08-10T16:22:02Z</time>
      </trkpt>
      <trkpt lat="47.32609" lon="6.82581">
        <ele>508.2</ele>
        <time>2021-08-10T16:22:03Z</time>
      </trkpt>
      <trkpt lat="47.32599" lon="6.82563">
        <ele>507.1</ele>
        <time>2021-08-10T16:22:05Z</time>
      </trkpt>
      <trkpt lat="47.32587" lon="6.82545">
        <ele>506</ele>
        <time>2021-08-10T16:22:07Z</time>
      </trkpt>
      <trkpt lat="47.32582" lon="6.82536">
        <ele>505.4</ele>
        <time>2021-08-10T16:22:08Z</time>
      </trkpt>
      <trkpt lat="47.32577" lon="6.82526">
        <ele>504.9</ele>
        <time>2021-08-10T16:22:09Z</time>
      </trkpt>
      <trkpt lat="47.3257" lon="6.82502">
        <ele>503.7</ele>
        <time>2021-08-10T16:22:11Z</time>
      </trkpt>
      <trkpt lat="47.32565" lon="6.82477">
        <ele>502.4</ele>
        <time>2021-08-10T16:22:13Z</time>
      </trkpt>
      <trkpt lat="47.32563" lon="6.82463">
        <ele>501.8</ele>
        <time>2021-08-10T16:22:14Z</time>
      </trkpt>
      <trkpt lat="47.32564" lon="6.82438">
        <ele>500.5</ele>
        <time>2021-08-10T16:22:16Z</time>
      </trkpt>
      <trkpt lat="47.32565" lon="6.82425">
        <ele>500</ele>
        <time>2021-08-10T16:22:17Z</time>
      </trkpt>
      <trkpt lat="47.32568" lon="6.82398">
        <ele>498.7</ele>
        <time>2021-08-10T16:22:19Z</time>
      </trkpt>
      <trkpt lat="47.3257" lon="6.82384">
        <ele>498.1</ele>
        <time>2021-08-10T16:22:20Z</time>
      </trkpt>
      <trkpt lat="47.32569" lon="6.82358">
        <ele>496.9</ele>
        <time>2021-08-10T16:22:22Z</time>
      </trkpt>
      <trkpt lat="47.32567" lon="6.82345">
        <ele>496.4</ele>
        <time>2021-08-10T16:22:23Z</time>
      </trkpt>
      <trkpt lat="47.32566" lon="6.82332">
        <ele>495.8</ele>
        <time>2021-08-10T16:22:24Z</time>
      </trkpt>
      <trkpt lat="47.32564" lon="6.82305">
        <ele>494.6</ele>
        <time>2021-08-10T16:22:26Z</time>
      </trkpt>
      <trkpt lat="47.32559" lon="6.82282">
        <ele>493.5</ele>
        <time>2021-08-10T16:22:28Z</time>
      </trkpt>
      <trkpt lat="47.32556" lon="6.82258">
        <ele>492.4</ele>
        <time>2021-08-10T16:22:30Z</time>
      </trkpt>
      <trkpt lat="47.32554" lon="6.82246">
        <ele>491.7</ele>
        <time>2021-08-10T16:22:31Z</time>
      </trkpt>
      <trkpt lat="47.3255" lon="6.82233">
        <ele>491.1</ele>
        <time>2021-08-10T16:22:32Z</time>
      </trkpt>
      <trkpt lat="47.32541" lon="6.82209">
        <ele>489.8</ele>
        <time>2021-08-10T16:22:34Z</time>
      </trkpt>
      <trkpt lat="47.32537" lon="6.82197">
        <ele>489.3</ele>
        <time>2021-08-10T16:22:35Z</time>
      </trkpt>
      <trkpt lat="47.3253" lon="6.82175">
        <ele>488.3</ele>
        <time>2021-08-10T16:22:37Z</time>
      </trkpt>
      <trkpt lat="47.32522" lon="6.82153">
        <ele>487.3</ele>
        <time>2021-08-10T16:22:39Z</time>
      </trkpt>
      <trkpt lat="47.32519" lon="6.82142">
        <ele>486.8</ele>
        <time>2021-08-10T16:22:40Z</time>
      </trkpt>
      <trkpt lat="47.32515" lon="6.82131">
        <ele>486.3</ele>
        <time>2021-08-10T16:22:41Z</time>
      </trkpt>
      <trkpt lat="47.32511" lon="6.82121">
        <ele>485.8</ele>
        <time>2021-08-10T16:22:42Z</time>
      </trkpt>
      <trkpt lat="47.32503" lon="6.82099">
        <ele>484.8</ele>
        <time>2021-08-10T16:22:44Z</time>
      </trkpt>
      <trkpt lat="47.32498" lon="6.82088">
        <ele>484.3</ele>
        <time>2021-08-10T16:22:45Z</time>
      </trkpt>
      <trkpt lat="47.32488" lon="6.82067">
        <ele>483.2</ele>
        <time>2021-08-10T16:22:47Z</time>
      </trkpt>
      <trkpt lat="47.32482" lon="6.82057">
        <ele>482.6</ele>
        <time>2021-08-10T16:22:48Z</time>
      </trkpt>
      <trkpt lat="47.32469" lon="6.82038">
        <ele>481.5</ele>
        <time>2021-08-10T16:22:50Z</time>
      </trkpt>
      <trkpt lat="47.32461" lon="6.82029">
        <ele>480.9</ele>
        <time>2021-08-10T16:22:51Z</time>
      </trkpt>
      <trkpt lat="47.32442" lon="6.82014">
        <ele>479.5</ele>
        <time>2021-08-10T16:22:53Z</time>
      </trkpt>
      <trkpt lat="47.32433" lon="6.82006">
        <ele>478.9</ele>
        <time>2021-08-10T16:22:54Z</time>
      </trkpt>
      <trkpt lat="47.3242" lon="6.81988">
        <ele>477.8</ele>
        <time>2021-08-10T16:22:56Z</time>
      </trkpt>
      <trkpt lat="47.32413" lon="6.81977">
        <ele>477.2</ele>
        <time>2021-08-10T16:22:57Z</time>
      </trkpt>
      <trkpt lat="47.32402" lon="6.81954">
        <ele>476.1</ele>
        <time>2021-08-10T16:22:59Z</time>
      </trkpt>
      <trkpt lat="47.32397" lon="6.81942">
        <ele>475.6</ele>
        <time>2021-08-10T16:23:00Z</time>
      </trkpt>
      <trkpt lat="47.32387" lon="6.81919">
        <ele>474.3</ele>
        <time>2021-08-10T16:23:02Z</time>
      </trkpt>
      <trkpt lat="47.3238" lon="6.81895">
        <ele>473.2</ele>
        <time>2021-08-10T16:23:04Z</time>
      </trkpt>
      <trkpt lat="47.32371" lon="6.81871">
        <ele>471.9</ele>
        <time>2021-08-10T16:23:06Z</time>
      </trkpt>
      <trkpt lat="47.32365" lon="6.81859">
        <ele>471.2</ele>
        <time>2021-08-10T16:23:07Z</time>
      </trkpt>
      <trkpt lat="47.32351" lon="6.81837">
        <ele>469.9</ele>
        <time>2021-08-10T16:23:09Z</time>
      </trkpt>
      <trkpt lat="47.32344" lon="6.81825">
        <ele>469.2</ele>
        <time>2021-08-10T16:23:10Z</time>
      </trkpt>
      <trkpt lat="47.3233" lon="6.818">
        <ele>468</ele>
        <time>2021-08-10T16:23:12Z</time>
      </trkpt>
      <trkpt lat="47.32316" lon="6.81775">
        <ele>466.9</ele>
        <time>2021-08-10T16:23:14Z</time>
      </trkpt>
      <trkpt lat="47.32309" lon="6.81763">
        <ele>466.5</ele>
        <time>2021-08-10T16:23:15Z</time>
      </trkpt>
      <trkpt lat="47.32297" lon="6.81739">
        <ele>465.7</ele>
        <time>2021-08-10T16:23:17Z</time>
      </trkpt>
      <trkpt lat="47.32287" lon="6.81711">
        <ele>465</ele>
        <time>2021-08-10T16:23:19Z</time>
      </trkpt>
      <trkpt lat="47.32277" lon="6.81684">
        <ele>464.2</ele>
        <time>2021-08-10T16:23:21Z</time>
      </trkpt>
      <trkpt lat="47.32276" lon="6.81672">
        <ele>463.7</ele>
        <time>2021-08-10T16:23:22Z</time>
      </trkpt>
      <trkpt lat="47.32281" lon="6.81649">
        <ele>462.7</ele>
        <time>2021-08-10T16:23:24Z</time>
      </trkpt>
      <trkpt lat="47.32301" lon="6.81632">
        <ele>460.9</ele>
        <time>2021-08-10T16:23:26Z</time>
      </trkpt>
      <trkpt lat="47.32315" lon="6.81627">
        <ele>459.9</ele>
        <time>2021-08-10T16:23:27Z</time>
      </trkpt>
      <trkpt lat="47.32338" lon="6.8162">
        <ele>458.2</ele>
        <time>2021-08-10T16:23:29Z</time>
      </trkpt>
      <trkpt lat="47.32363" lon="6.81613">
        <ele>456.4</ele>
        <time>2021-08-10T16:23:31Z</time>
      </trkpt>
      <trkpt lat="47.32374" lon="6.81609">
        <ele>455.8</ele>
        <time>2021-08-10T16:23:32Z</time>
      </trkpt>
      <trkpt lat="47.32385" lon="6.81605">
        <ele>455.2</ele>
        <time>2021-08-10T16:23:33Z</time>
      </trkpt>
      <trkpt lat="47.32406" lon="6.81598">
        <ele>453.9</ele>
        <time>2021-08-10T16:23:35Z</time>
      </trkpt>
      <trkpt lat="47.32416" lon="6.81596">
        <ele>453.3</ele>
        <time>2021-08-10T16:23:36Z</time>
      </trkpt>
      <trkpt lat="47.32437" lon="6.81592">
        <ele>452</ele>
        <time>2021-08-10T16:23:38Z</time>
      </trkpt>
      <trkpt lat="47.32457" lon="6.81592">
        <ele>450.7</ele>
        <time>2021-08-10T16:23:40Z</time>
      </trkpt>
      <trkpt lat="47.32467" lon="6.81592">
        <ele>450</ele>
        <time>2021-08-10T16:23:41Z</time>
      </trkpt>
      <trkpt lat="47.32478" lon="6.81593">
        <ele>449.4</ele>
        <time>2021-08-10T16:23:42Z</time>
      </trkpt>
      <trkpt lat="47.32499" lon="6.81596">
        <ele>448</ele>
        <time>2021-08-10T16:23:44Z</time>
      </trkpt>
      <trkpt lat="47.32519" lon="6.81598">
        <ele>446.7</ele>
        <time>2021-08-10T16:23:46Z</time>
      </trkpt>
      <trkpt lat="47.32529" lon="6.81599">
        <ele>446.1</ele>
        <time>2021-08-10T16:23:47Z</time>
      </trkpt>
      <trkpt lat="47.32539" lon="6.816">
        <ele>445.4</ele>
        <time>2021-08-10T16:23:48Z</time>
      </trkpt>
      <trkpt lat="47.32557" lon="6.816">
        <ele>444.3</ele>
        <time>2021-08-10T16:23:50Z</time>
      </trkpt>
      <trkpt lat="47.32566" lon="6.81599">
        <ele>443.8</ele>
        <time>2021-08-10T16:23:51Z</time>
      </trkpt>
      <trkpt lat="47.3258" lon="6.81595">
        <ele>443</ele>
        <time>2021-08-10T16:23:53Z</time>
      </trkpt>
      <trkpt lat="47.32587" lon="6.8159">
        <ele>442.6</ele>
        <time>2021-08-10T16:23:54Z</time>
      </trkpt>
      <trkpt lat="47.32595" lon="6.81582">
        <ele>442.2</ele>
        <time>2021-08-10T16:23:55Z</time>
      </trkpt>
      <trkpt lat="47.32609" lon="6.81561">
        <ele>441.1</ele>
        <time>2021-08-10T16:23:57Z</time>
      </trkpt>
      <trkpt lat="47.32622" lon="6.8154">
        <ele>440</ele>
        <time>2021-08-10T16:23:59Z</time>
      </trkpt>
      <trkpt lat="47.32633" lon="6.81526">
        <ele>439.3</ele>
        <time>2021-08-10T16:24:01Z</time>
      </trkpt>
      <trkpt lat="47.32636" lon="6.81522">
        <ele>439.3</ele>
        <time>2021-08-10T16:24:03Z</time>
      </trkpt>
      <trkpt lat="47.32637" lon="6.81521">
        <ele>439.1</ele>
        <time>2021-08-10T16:24:04Z</time>
      </trkpt>
      <trkpt lat="47.32638" lon="6.81519">
        <ele>439</ele>
        <time>2021-08-10T16:24:05Z</time>
      </trkpt>
      <trkpt lat="47.32637" lon="6.81518">
        <ele>438.8</ele>
        <time>2021-08-10T16:24:06Z</time>
      </trkpt>
      <trkpt lat="47.32635" lon="6.81519">
        <ele>438.6</ele>
        <time>2021-08-10T16:24:07Z</time>
      </trkpt>
      <trkpt lat="47.32633" lon="6.8152">
        <ele>438.4</ele>
        <time>2021-08-10T16:24:09Z</time>
      </trkpt>
      <trkpt lat="47.32631" lon="6.8152">
        <ele>438.2</ele>
        <time>2021-08-10T16:24:10Z</time>
      </trkpt>
      <trkpt lat="47.32593" lon="6.81526">
        <ele>434</ele>
        <time>2021-08-10T16:24:11Z</time>
      </trkpt>
      <trkpt lat="47.32575" lon="6.81527">
        <ele>431.8</ele>
        <time>2021-08-10T16:24:14Z</time>
      </trkpt>
      <trkpt lat="47.32562" lon="6.81524">
        <ele>430.3</ele>
        <time>2021-08-10T16:24:15Z</time>
      </trkpt>
      <trkpt lat="47.32544" lon="6.81516">
        <ele>428.1</ele>
        <time>2021-08-10T16:24:17Z</time>
      </trkpt>
      <trkpt lat="47.32539" lon="6.81515">
        <ele>427.6</ele>
        <time>2021-08-10T16:24:19Z</time>
      </trkpt>
      <trkpt lat="47.32532" lon="6.81516">
        <ele>426.8</ele>
        <time>2021-08-10T16:24:20Z</time>
      </trkpt>
      <trkpt lat="47.32522" lon="6.81506">
        <ele>425.3</ele>
        <time>2021-08-10T16:24:22Z</time>
      </trkpt>
      <trkpt lat="47.32522" lon="6.81501">
        <ele>424.9</ele>
        <time>2021-08-10T16:24:23Z</time>
      </trkpt>
      <trkpt lat="47.32516" lon="6.81496">
        <ele>424.1</ele>
        <time>2021-08-10T16:24:25Z</time>
      </trkpt>
      <trkpt lat="47.32508" lon="6.81487">
        <ele>422.8</ele>
        <time>2021-08-10T16:24:27Z</time>
      </trkpt>
      <trkpt lat="47.32501" lon="6.81482">
        <ele>421.9</ele>
        <time>2021-08-10T16:24:28Z</time>
      </trkpt>
      <trkpt lat="47.32498" lon="6.8148">
        <ele>421.5</ele>
        <time>2021-08-10T16:24:30Z</time>
      </trkpt>
      <trkpt lat="47.32495" lon="6.81477">
        <ele>421.1</ele>
        <time>2021-08-10T16:24:31Z</time>
      </trkpt>
      <trkpt lat="47.32492" lon="6.81474">
        <ele>420.7</ele>
        <time>2021-08-10T16:24:32Z</time>
      </trkpt>
      <trkpt lat="47.32477" lon="6.81461">
        <ele>418.5</ele>
        <time>2021-08-10T16:24:34Z</time>
      </trkpt>
      <trkpt lat="47.32468" lon="6.81456">
        <ele>417.4</ele>
        <time>2021-08-10T16:24:35Z</time>
      </trkpt>
      <trkpt lat="47.32449" lon="6.81448">
        <ele>414.9</ele>
        <time>2021-08-10T16:24:37Z</time>
      </trkpt>
      <trkpt lat="47.3244" lon="6.81445">
        <ele>413.7</ele>
        <time>2021-08-10T16:24:38Z</time>
      </trkpt>
      <trkpt lat="47.32432" lon="6.81443">
        <ele>412.6</ele>
        <time>2021-08-10T16:24:39Z</time>
      </trkpt>
      <trkpt lat="47.32424" lon="6.81442">
        <ele>411.5</ele>
        <time>2021-08-10T16:24:40Z</time>
      </trkpt>
      <trkpt lat="47.32417" lon="6.81439">
        <ele>410.5</ele>
        <time>2021-08-10T16:24:41Z</time>
      </trkpt>
      <trkpt lat="47.32404" lon="6.81434">
        <ele>408.5</ele>
        <time>2021-08-10T16:24:43Z</time>
      </trkpt>
      <trkpt lat="47.32392" lon="6.81428">
        <ele>406.6</ele>
        <time>2021-08-10T16:24:45Z</time>
      </trkpt>
      <trkpt lat="47.32379" lon="6.81422">
        <ele>403.8</ele>
        <time>2021-08-10T16:24:47Z</time>
      </trkpt>
      <trkpt lat="47.32372" lon="6.81419">
        <ele>403.3</ele>
        <time>2021-08-10T16:24:48Z</time>
      </trkpt>
      <trkpt lat="47.32357" lon="6.81413">
        <ele>402.2</ele>
        <time>2021-08-10T16:24:50Z</time>
      </trkpt>
      <trkpt lat="47.32349" lon="6.81409">
        <ele>401.7</ele>
        <time>2021-08-10T16:24:51Z</time>
      </trkpt>
      <trkpt lat="47.32333" lon="6.81402">
        <ele>400.6</ele>
        <time>2021-08-10T16:24:53Z</time>
      </trkpt>
      <trkpt lat="47.32324" lon="6.81399">
        <ele>399.9</ele>
        <time>2021-08-10T16:24:54Z</time>
      </trkpt>
      <trkpt lat="47.32306" lon="6.81392">
        <ele>398.6</ele>
        <time>2021-08-10T16:24:56Z</time>
      </trkpt>
      <trkpt lat="47.32288" lon="6.81388">
        <ele>397.2</ele>
        <time>2021-08-10T16:24:58Z</time>
      </trkpt>
      <trkpt lat="47.32279" lon="6.81387">
        <ele>396.6</ele>
        <time>2021-08-10T16:24:59Z</time>
      </trkpt>
      <trkpt lat="47.3227" lon="6.81388">
        <ele>396</ele>
        <time>2021-08-10T16:25:00Z</time>
      </trkpt>
      <trkpt lat="47.32252" lon="6.81395">
        <ele>394.5</ele>
        <time>2021-08-10T16:25:02Z</time>
      </trkpt>
      <trkpt lat="47.32237" lon="6.81414">
        <ele>393</ele>
        <time>2021-08-10T16:25:04Z</time>
      </trkpt>
      <trkpt lat="47.3223" lon="6.81423">
        <ele>392.3</ele>
        <time>2021-08-10T16:25:05Z</time>
      </trkpt>
      <trkpt lat="47.32214" lon="6.81439">
        <ele>390.9</ele>
        <time>2021-08-10T16:25:07Z</time>
      </trkpt>
      <trkpt lat="47.32197" lon="6.81453">
        <ele>389.6</ele>
        <time>2021-08-10T16:25:09Z</time>
      </trkpt>
      <trkpt lat="47.3218" lon="6.81473">
        <ele>388.5</ele>
        <time>2021-08-10T16:25:11Z</time>
      </trkpt>
      <trkpt lat="47.32171" lon="6.81481">
        <ele>388</ele>
        <time>2021-08-10T16:25:12Z</time>
      </trkpt>
      <trkpt lat="47.32162" lon="6.81492">
        <ele>387.6</ele>
        <time>2021-08-10T16:25:13Z</time>
      </trkpt>
      <trkpt lat="47.32153" lon="6.81502">
        <ele>387.2</ele>
        <time>2021-08-10T16:25:14Z</time>
      </trkpt>
      <trkpt lat="47.32138" lon="6.81523">
        <ele>386.8</ele>
        <time>2021-08-10T16:25:16Z</time>
      </trkpt>
      <trkpt lat="47.32122" lon="6.81541">
        <ele>386.5</ele>
        <time>2021-08-10T16:25:18Z</time>
      </trkpt>
      <trkpt lat="47.32107" lon="6.81557">
        <ele>386.3</ele>
        <time>2021-08-10T16:25:20Z</time>
      </trkpt>
      <trkpt lat="47.321" lon="6.81565">
        <ele>386.2</ele>
        <time>2021-08-10T16:25:21Z</time>
      </trkpt>
      <trkpt lat="47.3209" lon="6.81578">
        <ele>386.1</ele>
        <time>2021-08-10T16:25:23Z</time>
      </trkpt>
      <trkpt lat="47.32084" lon="6.81584">
        <ele>386</ele>
        <time>2021-08-10T16:25:24Z</time>
      </trkpt>
      <trkpt lat="47.32072" lon="6.81592">
        <ele>385.8</ele>
        <time>2021-08-10T16:25:26Z</time>
      </trkpt>
      <trkpt lat="47.32065" lon="6.81594">
        <ele>385.7</ele>
        <time>2021-08-10T16:25:27Z</time>
      </trkpt>
      <trkpt lat="47.32054" lon="6.81605">
        <ele>385.6</ele>
        <time>2021-08-10T16:25:29Z</time>
      </trkpt>
      <trkpt lat="47.32044" lon="6.81617">
        <ele>385.5</ele>
        <time>2021-08-10T16:25:31Z</time>
      </trkpt>
      <trkpt lat="47.32039" lon="6.81624">
        <ele>385.5</ele>
        <time>2021-08-10T16:25:32Z</time>
      </trkpt>
      <trkpt lat="47.3203" lon="6.81633">
        <ele>385.4</ele>
        <time>2021-08-10T16:25:34Z</time>
      </trkpt>
      <trkpt lat="47.32025" lon="6.81638">
        <ele>385.4</ele>
        <time>2021-08-10T16:25:35Z</time>
      </trkpt>
      <trkpt lat="47.32017" lon="6.81647">
        <ele>385.4</ele>
        <time>2021-08-10T16:25:37Z</time>
      </trkpt>
      <trkpt lat="47.32007" lon="6.81655">
        <ele>385.3</ele>
        <time>2021-08-10T16:25:39Z</time>
      </trkpt>
      <trkpt lat="47.31997" lon="6.81661">
        <ele>385.2</ele>
        <time>2021-08-10T16:25:41Z</time>
      </trkpt>
      <trkpt lat="47.31992" lon="6.81663">
        <ele>385.1</ele>
        <time>2021-08-10T16:25:42Z</time>
      </trkpt>
      <trkpt lat="47.31981" lon="6.81668">
        <ele>385</ele>
        <time>2021-08-10T16:25:44Z</time>
      </trkpt>
      <trkpt lat="47.31977" lon="6.81671">
        <ele>384.9</ele>
        <time>2021-08-10T16:25:45Z</time>
      </trkpt>
      <trkpt lat="47.31966" lon="6.81674">
        <ele>384.8</ele>
        <time>2021-08-10T16:25:47Z</time>
      </trkpt>
      <trkpt lat="47.3196" lon="6.81673">
        <ele>384.8</ele>
        <time>2021-08-10T16:25:48Z</time>
      </trkpt>
      <trkpt lat="47.3195" lon="6.8167">
        <ele>384.7</ele>
        <time>2021-08-10T16:25:50Z</time>
      </trkpt>
      <trkpt lat="47.31948" lon="6.81668">
        <ele>384.7</ele>
        <time>2021-08-10T16:25:51Z</time>
      </trkpt>
      <trkpt lat="47.31945" lon="6.81665">
        <ele>384.7</ele>
        <time>2021-08-10T16:25:52Z</time>
      </trkpt>
      <trkpt lat="47.31943" lon="6.81657">
        <ele>384.6</ele>
        <time>2021-08-10T16:25:54Z</time>
      </trkpt>
      <trkpt lat="47.31942" lon="6.81653">
        <ele>384.6</ele>
        <time>2021-08-10T16:25:55Z</time>
      </trkpt>
      <trkpt lat="47.31942" lon="6.81651">
        <ele>384.6</ele>
        <time>2021-08-10T16:25:56Z</time>
      </trkpt>
      <trkpt lat="47.31941" lon="6.81649">
        <ele>384.6</ele>
        <time>2021-08-10T16:25:57Z</time>
      </trkpt>
      <trkpt lat="47.31942" lon="6.81649">
        <ele>384.6</ele>
        <time>2021-08-10T16:25:59Z</time>
      </trkpt>
      <trkpt lat="47.31943" lon="6.81654">
        <ele>384.7</ele>
        <time>2021-08-10T16:26:01Z</time>
      </trkpt>
      <trkpt lat="47.31946" lon="6.8166">
        <ele>384.7</ele>
        <time>2021-08-10T16:26:02Z</time>
      </trkpt>
      <trkpt lat="47.31952" lon="6.81669">
        <ele>384.7</ele>
        <time>2021-08-10T16:26:04Z</time>
      </trkpt>
      <trkpt lat="47.31958" lon="6.81679">
        <ele>384.8</ele>
        <time>2021-08-10T16:26:06Z</time>
      </trkpt>
      <trkpt lat="47.31962" lon="6.81683">
        <ele>384.8</ele>
        <time>2021-08-10T16:26:07Z</time>
      </trkpt>
      <trkpt lat="47.31965" lon="6.81686">
        <ele>384.8</ele>
        <time>2021-08-10T16:26:08Z</time>
      </trkpt>
      <trkpt lat="47.31972" lon="6.81689">
        <ele>384.9</ele>
        <time>2021-08-10T16:26:10Z</time>
      </trkpt>
      <trkpt lat="47.31975" lon="6.81688">
        <ele>384.9</ele>
        <time>2021-08-10T16:26:11Z</time>
      </trkpt>
      <trkpt lat="47.31978" lon="6.81686">
        <ele>385</ele>
        <time>2021-08-10T16:26:12Z</time>
      </trkpt>
      <trkpt lat="47.31984" lon="6.8168">
        <ele>385</ele>
        <time>2021-08-10T16:26:14Z</time>
      </trkpt>
      <trkpt lat="47.31988" lon="6.81677">
        <ele>385.1</ele>
        <time>2021-08-10T16:26:15Z</time>
      </trkpt>
      <trkpt lat="47.31992" lon="6.81674">
        <ele>385.1</ele>
        <time>2021-08-10T16:26:16Z</time>
      </trkpt>
      <trkpt lat="47.31997" lon="6.81672">
        <ele>385.1</ele>
        <time>2021-08-10T16:26:18Z</time>
      </trkpt>
      <trkpt lat="47.32" lon="6.81674">
        <ele>385</ele>
        <time>2021-08-10T16:26:19Z</time>
      </trkpt>
      <trkpt lat="47.32002" lon="6.81677">
        <ele>385</ele>
        <time>2021-08-10T16:26:20Z</time>
      </trkpt>
      <trkpt lat="47.32004" lon="6.8168">
        <ele>384.9</ele>
        <time>2021-08-10T16:26:21Z</time>
      </trkpt>
      <trkpt lat="47.32007" lon="6.81688">
        <ele>384.8</ele>
        <time>2021-08-10T16:26:23Z</time>
      </trkpt>
      <trkpt lat="47.32009" lon="6.81693">
        <ele>384.8</ele>
        <time>2021-08-10T16:26:24Z</time>
      </trkpt>
      <trkpt lat="47.32013" lon="6.81703">
        <ele>384.7</ele>
        <time>2021-08-10T16:26:26Z</time>
      </trkpt>
      <trkpt lat="47.32014" lon="6.81707">
        <ele>384.6</ele>
        <time>2021-08-10T16:26:27Z</time>
      </trkpt>
      <trkpt lat="47.32014" lon="6.81712">
        <ele>384.6</ele>
        <time>2021-08-10T16:26:28Z</time>
      </trkpt>
      <trkpt lat="47.32017" lon="6.8172">
        <ele>384.5</ele>
        <time>2021-08-10T16:26:30Z</time>
      </trkpt>
      <trkpt lat="47.32023" lon="6.81728">
        <ele>384.3</ele>
        <time>2021-08-10T16:26:32Z</time>
      </trkpt>
      <trkpt lat="47.32027" lon="6.81737">
        <ele>384.2</ele>
        <time>2021-08-10T16:26:34Z</time>
      </trkpt>
      <trkpt lat="47.32031" lon="6.8174">
        <ele>384.2</ele>
        <time>2021-08-10T16:26:36Z</time>
      </trkpt>
      <trkpt lat="47.32035" lon="6.81738">
        <ele>384.2</ele>
        <time>2021-08-10T16:26:38Z</time>
      </trkpt>
      <trkpt lat="47.32042" lon="6.81735">
        <ele>384.5</ele>
        <time>2021-08-10T16:26:40Z</time>
      </trkpt>
      <trkpt lat="47.32049" lon="6.81732">
        <ele>385.2</ele>
        <time>2021-08-10T16:26:42Z</time>
      </trkpt>
      <trkpt lat="47.32054" lon="6.8173">
        <ele>385.7</ele>
        <time>2021-08-10T16:26:43Z</time>
      </trkpt>
      <trkpt lat="47.32061" lon="6.81727">
        <ele>386.5</ele>
        <time>2021-08-10T16:26:45Z</time>
      </trkpt>
      <trkpt lat="47.32068" lon="6.81726">
        <ele>387.2</ele>
        <time>2021-08-10T16:26:46Z</time>
      </trkpt>
      <trkpt lat="47.32073" lon="6.81727">
        <ele>387.8</ele>
        <time>2021-08-10T16:26:47Z</time>
      </trkpt>
      <trkpt lat="47.32079" lon="6.81729">
        <ele>388.4</ele>
        <time>2021-08-10T16:26:48Z</time>
      </trkpt>
      <trkpt lat="47.3209" lon="6.81732">
        <ele>389.6</ele>
        <time>2021-08-10T16:26:50Z</time>
      </trkpt>
      <trkpt lat="47.32095" lon="6.81732">
        <ele>390.2</ele>
        <time>2021-08-10T16:26:51Z</time>
      </trkpt>
      <trkpt lat="47.32107" lon="6.81729">
        <ele>391.3</ele>
        <time>2021-08-10T16:26:53Z</time>
      </trkpt>
      <trkpt lat="47.32113" lon="6.81729">
        <ele>391.9</ele>
        <time>2021-08-10T16:26:54Z</time>
      </trkpt>
      <trkpt lat="47.32118" lon="6.81729">
        <ele>392.3</ele>
        <time>2021-08-10T16:26:55Z</time>
      </trkpt>
      <trkpt lat="47.32127" lon="6.81732">
        <ele>393.2</ele>
        <time>2021-08-10T16:26:57Z</time>
      </trkpt>
      <trkpt lat="47.32133" lon="6.81737">
        <ele>393.6</ele>
        <time>2021-08-10T16:26:58Z</time>
      </trkpt>
      <trkpt lat="47.32137" lon="6.81743">
        <ele>393.8</ele>
        <time>2021-08-10T16:27:00Z</time>
      </trkpt>
      <trkpt lat="47.32149" lon="6.81755">
        <ele>394.2</ele>
        <time>2021-08-10T16:27:02Z</time>
      </trkpt>
      <trkpt lat="47.32153" lon="6.81763">
        <ele>394.4</ele>
        <time>2021-08-10T16:27:03Z</time>
      </trkpt>
      <trkpt lat="47.3216" lon="6.81779">
        <ele>394.8</ele>
        <time>2021-08-10T16:27:05Z</time>
      </trkpt>
      <trkpt lat="47.32163" lon="6.81788">
        <ele>395</ele>
        <time>2021-08-10T16:27:06Z</time>
      </trkpt>
      <trkpt lat="47.32166" lon="6.81807">
        <ele>395.4</ele>
        <time>2021-08-10T16:27:08Z</time>
      </trkpt>
      <trkpt lat="47.32168" lon="6.81827">
        <ele>395</ele>
        <time>2021-08-10T16:27:10Z</time>
      </trkpt>
      <trkpt lat="47.32169" lon="6.81844">
        <ele>394.5</ele>
        <time>2021-08-10T16:27:12Z</time>
      </trkpt>
      <trkpt lat="47.3217" lon="6.8186">
        <ele>394</ele>
        <time>2021-08-10T16:27:14Z</time>
      </trkpt>
      <trkpt lat="47.32171" lon="6.81876">
        <ele>393.5</ele>
        <time>2021-08-10T16:27:16Z</time>
      </trkpt>
      <trkpt lat="47.3217" lon="6.81884">
        <ele>393.3</ele>
        <time>2021-08-10T16:27:17Z</time>
      </trkpt>
      <trkpt lat="47.3217" lon="6.81893">
        <ele>393</ele>
        <time>2021-08-10T16:27:18Z</time>
      </trkpt>
      <trkpt lat="47.32171" lon="6.81901">
        <ele>392.8</ele>
        <time>2021-08-10T16:27:19Z</time>
      </trkpt>
      <trkpt lat="47.32176" lon="6.81916">
        <ele>392.3</ele>
        <time>2021-08-10T16:27:21Z</time>
      </trkpt>
      <trkpt lat="47.32178" lon="6.8192">
        <ele>392.2</ele>
        <time>2021-08-10T16:27:22Z</time>
      </trkpt>
      <trkpt lat="47.32183" lon="6.81933">
        <ele>392</ele>
        <time>2021-08-10T16:27:24Z</time>
      </trkpt>
      <trkpt lat="47.3219" lon="6.81944">
        <ele>391.9</ele>
        <time>2021-08-10T16:27:26Z</time>
      </trkpt>
      <trkpt lat="47.32194" lon="6.81949">
        <ele>391.8</ele>
        <time>2021-08-10T16:27:27Z</time>
      </trkpt>
      <trkpt lat="47.322" lon="6.81962">
        <ele>391.7</ele>
        <time>2021-08-10T16:27:29Z</time>
      </trkpt>
      <trkpt lat="47.32202" lon="6.81969">
        <ele>391.7</ele>
        <time>2021-08-10T16:27:30Z</time>
      </trkpt>
      <trkpt lat="47.32204" lon="6.81975">
        <ele>391.6</ele>
        <time>2021-08-10T16:27:31Z</time>
      </trkpt>
      <trkpt lat="47.32206" lon="6.81982">
        <ele>391.5</ele>
        <time>2021-08-10T16:27:32Z</time>
      </trkpt>
      <trkpt lat="47.32208" lon="6.81996">
        <ele>391.4</ele>
        <time>2021-08-10T16:27:34Z</time>
      </trkpt>
      <trkpt lat="47.32212" lon="6.82007">
        <ele>391.3</ele>
        <time>2021-08-10T16:27:36Z</time>
      </trkpt>
      <trkpt lat="47.32219" lon="6.82023">
        <ele>391.3</ele>
        <time>2021-08-10T16:27:38Z</time>
      </trkpt>
      <trkpt lat="47.32222" lon="6.82031">
        <ele>391.3</ele>
        <time>2021-08-10T16:27:39Z</time>
      </trkpt>
      <trkpt lat="47.32227" lon="6.82045">
        <ele>391.3</ele>
        <time>2021-08-10T16:27:41Z</time>
      </trkpt>
      <trkpt lat="47.32233" lon="6.82058">
        <ele>391.3</ele>
        <time>2021-08-10T16:27:43Z</time>
      </trkpt>
      <trkpt lat="47.32235" lon="6.82064">
        <ele>391.3</ele>
        <time>2021-08-10T16:27:44Z</time>
      </trkpt>
      <trkpt lat="47.32238" lon="6.8207">
        <ele>391.3</ele>
        <time>2021-08-10T16:27:45Z</time>
      </trkpt>
      <trkpt lat="47.3224" lon="6.82074">
        <ele>391.3</ele>
        <time>2021-08-10T16:27:46Z</time>
      </trkpt>
      <trkpt lat="47.32244" lon="6.8208">
        <ele>391.4</ele>
        <time>2021-08-10T16:27:47Z</time>
      </trkpt>
      <trkpt lat="47.32247" lon="6.82088">
        <ele>391.4</ele>
        <time>2021-08-10T16:27:49Z</time>
      </trkpt>
      <trkpt lat="47.32249" lon="6.82095">
        <ele>391.5</ele>
        <time>2021-08-10T16:27:50Z</time>
      </trkpt>
      <trkpt lat="47.3225" lon="6.821">
        <ele>391.6</ele>
        <time>2021-08-10T16:27:52Z</time>
      </trkpt>
      <trkpt lat="47.32251" lon="6.82103">
        <ele>391.6</ele>
        <time>2021-08-10T16:27:53Z</time>
      </trkpt>
      <trkpt lat="47.32251" lon="6.82104">
        <ele>391.6</ele>
        <time>2021-08-10T16:27:54Z</time>
      </trkpt>
      <trkpt lat="47.32251" lon="6.82107">
        <ele>391.6</ele>
        <time>2021-08-10T16:27:55Z</time>
      </trkpt>
      <trkpt lat="47.3225" lon="6.82108">
        <ele>391.7</ele>
        <time>2021-08-10T16:27:57Z</time>
      </trkpt>
      <trkpt lat="47.3225" lon="6.82107">
        <ele>391.7</ele>
        <time>2021-08-10T16:27:58Z</time>
      </trkpt>
      <trkpt lat="47.3225" lon="6.82107">
        <ele>391.7</ele>
        <time>2021-08-10T16:28:00Z</time>
      </trkpt>
      <trkpt lat="47.32251" lon="6.82107">
        <ele>391.7</ele>
        <time>2021-08-10T16:28:02Z</time>
      </trkpt>
      <trkpt lat="47.32251" lon="6.82107">
        <ele>391.7</ele>
        <time>2021-08-10T16:28:04Z</time>
      </trkpt>
      <trkpt lat="47.32251" lon="6.82107">
        <ele>391.7</ele>
        <time>2021-08-10T16:28:06Z</time>
      </trkpt>
      <trkpt lat="47.32258" lon="6.82109">
        <ele>391.8</ele>
        <time>2021-08-12T07:09:16Z</time>
      </trkpt>
      <trkpt lat="47.32258" lon="6.82109">
        <ele>391.8</ele>
        <time>2021-08-12T07:09:16Z</time>
      </trkpt>
      <trkpt lat="47.3225" lon="6.82041">
        <ele>391.1</ele>
        <time>2021-08-12T07:09:19Z</time>
      </trkpt>
      <trkpt lat="47.32247" lon="6.82056">
        <ele>391.2</ele>
        <time>2021-08-12T07:09:21Z</time>
      </trkpt>
      <trkpt lat="47.32244" lon="6.82075">
        <ele>391.3</ele>
        <time>2021-08-12T07:09:22Z</time>
      </trkpt>
      <trkpt lat="47.32241" lon="6.82095">
        <ele>391.5</ele>
        <time>2021-08-12T07:09:23Z</time>
      </trkpt>
      <trkpt lat="47.32239" lon="6.82114">
        <ele>391.7</ele>
        <time>2021-08-12T07:09:25Z</time>
      </trkpt>
      <trkpt lat="47.32239" lon="6.82114">
        <ele>391.7</ele>
        <time>2021-08-12T07:09:26Z</time>
      </trkpt>
      <trkpt lat="47.32239" lon="6.82116">
        <ele>391.6</ele>
        <time>2021-08-12T07:09:28Z</time>
      </trkpt>
      <trkpt lat="47.32241" lon="6.82117">
        <ele>391.6</ele>
        <time>2021-08-12T07:09:30Z</time>
      </trkpt>
      <trkpt lat="47.32242" lon="6.82117">
        <ele>391.6</ele>
        <time>2021-08-12T07:09:32Z</time>
      </trkpt>
      <trkpt lat="47.32243" lon="6.82117">
        <ele>391.6</ele>
        <time>2021-08-12T07:09:33Z</time>
      </trkpt>
      <trkpt lat="47.32243" lon="6.82115">
        <ele>391.6</ele>
        <time>2021-08-12T07:09:34Z</time>
      </trkpt>
      <trkpt lat="47.32243" lon="6.82114">
        <ele>391.6</ele>
        <time>2021-08-12T07:09:36Z</time>
      </trkpt>
      <trkpt lat="47.32243" lon="6.82112">
        <ele>391.6</ele>
        <time>2021-08-12T07:09:37Z</time>
      </trkpt>
      <trkpt lat="47.32243" lon="6.82106">
        <ele>391.5</ele>
        <time>2021-08-12T07:09:38Z</time>
      </trkpt>
      <trkpt lat="47.32242" lon="6.82104">
        <ele>391.5</ele>
        <time>2021-08-12T07:09:39Z</time>
      </trkpt>
      <trkpt lat="47.32242" lon="6.82098">
        <ele>391.5</ele>
        <time>2021-08-12T07:09:40Z</time>
      </trkpt>
      <trkpt lat="47.32241" lon="6.82092">
        <ele>391.4</ele>
        <time>2021-08-12T07:09:41Z</time>
      </trkpt>
      <trkpt lat="47.3224" lon="6.82086">
        <ele>391.4</ele>
        <time>2021-08-12T07:09:43Z</time>
      </trkpt>
      <trkpt lat="47.32238" lon="6.82078">
        <ele>391.3</ele>
        <time>2021-08-12T07:09:44Z</time>
      </trkpt>
      <trkpt lat="47.32237" lon="6.82072">
        <ele>391.2</ele>
        <time>2021-08-12T07:09:45Z</time>
      </trkpt>
      <trkpt lat="47.32234" lon="6.82062">
        <ele>391.1</ele>
        <time>2021-08-12T07:09:47Z</time>
      </trkpt>
      <trkpt lat="47.32232" lon="6.82054">
        <ele>391.1</ele>
        <time>2021-08-12T07:09:48Z</time>
      </trkpt>
      <trkpt lat="47.32228" lon="6.82039">
        <ele>391</ele>
        <time>2021-08-12T07:09:49Z</time>
      </trkpt>
      <trkpt lat="47.32226" lon="6.82031">
        <ele>391</ele>
        <time>2021-08-12T07:09:50Z</time>
      </trkpt>
      <trkpt lat="47.32223" lon="6.82023">
        <ele>391</ele>
        <time>2021-08-12T07:09:51Z</time>
      </trkpt>
      <trkpt lat="47.32218" lon="6.82009">
        <ele>391</ele>
        <time>2021-08-12T07:09:53Z</time>
      </trkpt>
      <trkpt lat="47.32215" lon="6.82003">
        <ele>391</ele>
        <time>2021-08-12T07:09:54Z</time>
      </trkpt>
      <trkpt lat="47.3221" lon="6.81991">
        <ele>391.1</ele>
        <time>2021-08-12T07:09:56Z</time>
      </trkpt>
      <trkpt lat="47.32208" lon="6.81985">
        <ele>391.2</ele>
        <time>2021-08-12T07:09:57Z</time>
      </trkpt>
      <trkpt lat="47.32202" lon="6.81973">
        <ele>391.3</ele>
        <time>2021-08-12T07:09:59Z</time>
      </trkpt>
      <trkpt lat="47.32199" lon="6.81967">
        <ele>391.4</ele>
        <time>2021-08-12T07:10:00Z</time>
      </trkpt>
      <trkpt lat="47.32193" lon="6.81956">
        <ele>391.5</ele>
        <time>2021-08-12T07:10:02Z</time>
      </trkpt>
      <trkpt lat="47.32191" lon="6.81951">
        <ele>391.6</ele>
        <time>2021-08-12T07:10:03Z</time>
      </trkpt>
      <trkpt lat="47.32185" lon="6.81943">
        <ele>391.8</ele>
        <time>2021-08-12T07:10:05Z</time>
      </trkpt>
      <trkpt lat="47.3218" lon="6.81935">
        <ele>391.9</ele>
        <time>2021-08-12T07:10:07Z</time>
      </trkpt>
      <trkpt lat="47.32179" lon="6.81931">
        <ele>392</ele>
        <time>2021-08-12T07:10:08Z</time>
      </trkpt>
      <trkpt lat="47.32176" lon="6.81924">
        <ele>392.1</ele>
        <time>2021-08-12T07:10:10Z</time>
      </trkpt>
      <trkpt lat="47.32176" lon="6.81918">
        <ele>392.2</ele>
        <time>2021-08-12T07:10:11Z</time>
      </trkpt>
      <trkpt lat="47.32174" lon="6.81912">
        <ele>392.4</ele>
        <time>2021-08-12T07:10:13Z</time>
      </trkpt>
      <trkpt lat="47.32173" lon="6.81908">
        <ele>392.5</ele>
        <time>2021-08-12T07:10:14Z</time>
      </trkpt>
      <trkpt lat="47.32172" lon="6.81904">
        <ele>392.7</ele>
        <time>2021-08-12T07:10:15Z</time>
      </trkpt>
      <trkpt lat="47.32171" lon="6.81898">
        <ele>392.9</ele>
        <time>2021-08-12T07:10:16Z</time>
      </trkpt>
      <trkpt lat="47.3217" lon="6.81891">
        <ele>393.1</ele>
        <time>2021-08-12T07:10:18Z</time>
      </trkpt>
      <trkpt lat="47.32169" lon="6.81886">
        <ele>393.2</ele>
        <time>2021-08-12T07:10:19Z</time>
      </trkpt>
      <trkpt lat="47.32168" lon="6.81882">
        <ele>393.3</ele>
        <time>2021-08-12T07:10:20Z</time>
      </trkpt>
      <trkpt lat="47.32165" lon="6.81876">
        <ele>393.5</ele>
        <time>2021-08-12T07:10:22Z</time>
      </trkpt>
      <trkpt lat="47.32164" lon="6.81868">
        <ele>393.8</ele>
        <time>2021-08-12T07:10:24Z</time>
      </trkpt>
      <trkpt lat="47.32163" lon="6.81863">
        <ele>393.9</ele>
        <time>2021-08-12T07:10:25Z</time>
      </trkpt>
      <trkpt lat="47.32161" lon="6.81859">
        <ele>394.1</ele>
        <time>2021-08-12T07:10:27Z</time>
      </trkpt>
      <trkpt lat="47.3216" lon="6.81853">
        <ele>394.3</ele>
        <time>2021-08-12T07:10:29Z</time>
      </trkpt>
      <trkpt lat="47.3216" lon="6.81851">
        <ele>394.4</ele>
        <time>2021-08-12T07:10:30Z</time>
      </trkpt>
      <trkpt lat="47.3216" lon="6.81847">
        <ele>394.5</ele>
        <time>2021-08-12T07:10:32Z</time>
      </trkpt>
      <trkpt lat="47.32159" lon="6.81845">
        <ele>394.5</ele>
        <time>2021-08-12T07:10:33Z</time>
      </trkpt>
      <trkpt lat="47.32157" lon="6.81841">
        <ele>394.7</ele>
        <time>2021-08-12T07:10:35Z</time>
      </trkpt>
      <trkpt lat="47.32156" lon="6.81839">
        <ele>394.8</ele>
        <time>2021-08-12T07:10:36Z</time>
      </trkpt>
      <trkpt lat="47.32153" lon="6.81834">
        <ele>394.9</ele>
        <time>2021-08-12T07:10:38Z</time>
      </trkpt>
      <trkpt lat="47.32151" lon="6.81828">
        <ele>395.2</ele>
        <time>2021-08-12T07:10:40Z</time>
      </trkpt>
      <trkpt lat="47.32149" lon="6.8182">
        <ele>395.4</ele>
        <time>2021-08-12T07:10:42Z</time>
      </trkpt>
      <trkpt lat="47.32148" lon="6.81816">
        <ele>395.4</ele>
        <time>2021-08-12T07:10:43Z</time>
      </trkpt>
      <trkpt lat="47.32146" lon="6.81809">
        <ele>395.2</ele>
        <time>2021-08-12T07:10:45Z</time>
      </trkpt>
      <trkpt lat="47.32144" lon="6.81804">
        <ele>395.1</ele>
        <time>2021-08-12T07:10:47Z</time>
      </trkpt>
      <trkpt lat="47.32143" lon="6.81799">
        <ele>395</ele>
        <time>2021-08-12T07:10:49Z</time>
      </trkpt>
      <trkpt lat="47.32143" lon="6.81792">
        <ele>394.8</ele>
        <time>2021-08-12T07:10:51Z</time>
      </trkpt>
      <trkpt lat="47.32141" lon="6.81786">
        <ele>394.7</ele>
        <time>2021-08-12T07:10:53Z</time>
      </trkpt>
      <trkpt lat="47.3214" lon="6.8178">
        <ele>394.5</ele>
        <time>2021-08-12T07:10:55Z</time>
      </trkpt>
      <trkpt lat="47.3214" lon="6.81773">
        <ele>394.4</ele>
        <time>2021-08-12T07:10:57Z</time>
      </trkpt>
      <trkpt lat="47.32139" lon="6.81765">
        <ele>394.2</ele>
        <time>2021-08-12T07:10:59Z</time>
      </trkpt>
      <trkpt lat="47.32139" lon="6.8176">
        <ele>394.1</ele>
        <time>2021-08-12T07:11:00Z</time>
      </trkpt>
      <trkpt lat="47.32139" lon="6.81755">
        <ele>394</ele>
        <time>2021-08-12T07:11:01Z</time>
      </trkpt>
      <trkpt lat="47.32139" lon="6.81747">
        <ele>393.8</ele>
        <time>2021-08-12T07:11:03Z</time>
      </trkpt>
      <trkpt lat="47.32139" lon="6.81737">
        <ele>393.6</ele>
        <time>2021-08-12T07:11:05Z</time>
      </trkpt>
      <trkpt lat="47.32139" lon="6.81725">
        <ele>393.3</ele>
        <time>2021-08-12T07:11:07Z</time>
      </trkpt>
      <trkpt lat="47.3214" lon="6.81712">
        <ele>393.3</ele>
        <time>2021-08-12T07:11:09Z</time>
      </trkpt>
      <trkpt lat="47.3214" lon="6.81707">
        <ele>393.3</ele>
        <time>2021-08-12T07:11:10Z</time>
      </trkpt>
      <trkpt lat="47.3214" lon="6.81702">
        <ele>393.3</ele>
        <time>2021-08-12T07:11:11Z</time>
      </trkpt>
      <trkpt lat="47.3214" lon="6.81697">
        <ele>393.3</ele>
        <time>2021-08-12T07:11:12Z</time>
      </trkpt>
      <trkpt lat="47.32138" lon="6.81687">
        <ele>393.3</ele>
        <time>2021-08-12T07:11:14Z</time>
      </trkpt>
      <trkpt lat="47.32137" lon="6.81682">
        <ele>393.3</ele>
        <time>2021-08-12T07:11:15Z</time>
      </trkpt>
      <trkpt lat="47.32137" lon="6.81677">
        <ele>393.3</ele>
        <time>2021-08-12T07:11:16Z</time>
      </trkpt>
      <trkpt lat="47.32137" lon="6.81666">
        <ele>393.3</ele>
        <time>2021-08-12T07:11:18Z</time>
      </trkpt>
      <trkpt lat="47.32137" lon="6.81662">
        <ele>393.3</ele>
        <time>2021-08-12T07:11:19Z</time>
      </trkpt>
      <trkpt lat="47.32137" lon="6.81656">
        <ele>393.3</ele>
        <time>2021-08-12T07:11:20Z</time>
      </trkpt>
      <trkpt lat="47.32137" lon="6.81646">
        <ele>393.3</ele>
        <time>2021-08-12T07:11:22Z</time>
      </trkpt>
      <trkpt lat="47.32137" lon="6.8164">
        <ele>392.8</ele>
        <time>2021-08-12T07:11:23Z</time>
      </trkpt>
      <trkpt lat="47.32136" lon="6.8163">
        <ele>391.7</ele>
        <time>2021-08-12T07:11:25Z</time>
      </trkpt>
      <trkpt lat="47.32134" lon="6.81622">
        <ele>390.8</ele>
        <time>2021-08-12T07:11:27Z</time>
      </trkpt>
      <trkpt lat="47.32133" lon="6.81618">
        <ele>390.4</ele>
        <time>2021-08-12T07:11:28Z</time>
      </trkpt>
      <trkpt lat="47.32132" lon="6.81609">
        <ele>389.4</ele>
        <time>2021-08-12T07:11:30Z</time>
      </trkpt>
      <trkpt lat="47.3213" lon="6.816">
        <ele>388.4</ele>
        <time>2021-08-12T07:11:32Z</time>
      </trkpt>
      <trkpt lat="47.3213" lon="6.81594">
        <ele>388</ele>
        <time>2021-08-12T07:11:33Z</time>
      </trkpt>
      <trkpt lat="47.32129" lon="6.8159">
        <ele>387.9</ele>
        <time>2021-08-12T07:11:34Z</time>
      </trkpt>
      <trkpt lat="47.32128" lon="6.81585">
        <ele>387.7</ele>
        <time>2021-08-12T07:11:36Z</time>
      </trkpt>
      <trkpt lat="47.32126" lon="6.8158">
        <ele>387.6</ele>
        <time>2021-08-12T07:11:37Z</time>
      </trkpt>
      <trkpt lat="47.32124" lon="6.81575">
        <ele>387.5</ele>
        <time>2021-08-12T07:11:38Z</time>
      </trkpt>
      <trkpt lat="47.32123" lon="6.81571">
        <ele>387.3</ele>
        <time>2021-08-12T07:11:39Z</time>
      </trkpt>
      <trkpt lat="47.32121" lon="6.81567">
        <ele>387.2</ele>
        <time>2021-08-12T07:11:40Z</time>
      </trkpt>
      <trkpt lat="47.32119" lon="6.81563">
        <ele>387.1</ele>
        <time>2021-08-12T07:11:41Z</time>
      </trkpt>
      <trkpt lat="47.32117" lon="6.81559">
        <ele>386.9</ele>
        <time>2021-08-12T07:11:42Z</time>
      </trkpt>
      <trkpt lat="47.32113" lon="6.81555">
        <ele>386.8</ele>
        <time>2021-08-12T07:11:43Z</time>
      </trkpt>
      <trkpt lat="47.32109" lon="6.81553">
        <ele>386.6</ele>
        <time>2021-08-12T07:11:44Z</time>
      </trkpt>
      <trkpt lat="47.32105" lon="6.81553">
        <ele>386.6</ele>
        <time>2021-08-12T07:11:46Z</time>
      </trkpt>
      <trkpt lat="47.32101" lon="6.81554">
        <ele>386.6</ele>
        <time>2021-08-12T07:11:47Z</time>
      </trkpt>
      <trkpt lat="47.32099" lon="6.81556">
        <ele>386.6</ele>
        <time>2021-08-12T07:11:48Z</time>
      </trkpt>
      <trkpt lat="47.32099" lon="6.81558">
        <ele>386.6</ele>
        <time>2021-08-12T07:11:49Z</time>
      </trkpt>
      <trkpt lat="47.32097" lon="6.81561">
        <ele>386.6</ele>
        <time>2021-08-12T07:11:50Z</time>
      </trkpt>
      <trkpt lat="47.32097" lon="6.81564">
        <ele>386.6</ele>
        <time>2021-08-12T07:11:51Z</time>
      </trkpt>
      <trkpt lat="47.32094" lon="6.81565">
        <ele>386.6</ele>
        <time>2021-08-12T07:11:53Z</time>
      </trkpt>
      <trkpt lat="47.32091" lon="6.81567">
        <ele>386.3</ele>
        <time>2021-08-12T07:11:54Z</time>
      </trkpt>
      <trkpt lat="47.32089" lon="6.81567">
        <ele>386.1</ele>
        <time>2021-08-12T07:11:55Z</time>
      </trkpt>
      <trkpt lat="47.32085" lon="6.81565">
        <ele>385.6</ele>
        <time>2021-08-12T07:11:57Z</time>
      </trkpt>
      <trkpt lat="47.3208" lon="6.81561">
        <ele>385.1</ele>
        <time>2021-08-12T07:11:58Z</time>
      </trkpt>
      <trkpt lat="47.32074" lon="6.81557">
        <ele>384.5</ele>
        <time>2021-08-12T07:12:00Z</time>
      </trkpt>
      <trkpt lat="47.3207" lon="6.81554">
        <ele>384.1</ele>
        <time>2021-08-12T07:12:01Z</time>
      </trkpt>
      <trkpt lat="47.32065" lon="6.81551">
        <ele>383.7</ele>
        <time>2021-08-12T07:12:02Z</time>
      </trkpt>
      <trkpt lat="47.32061" lon="6.81548">
        <ele>383.3</ele>
        <time>2021-08-12T07:12:03Z</time>
      </trkpt>
      <trkpt lat="47.32058" lon="6.81544">
        <ele>383</ele>
        <time>2021-08-12T07:12:04Z</time>
      </trkpt>
      <trkpt lat="47.32054" lon="6.81538">
        <ele>382.6</ele>
        <time>2021-08-12T07:12:06Z</time>
      </trkpt>
      <trkpt lat="47.32052" lon="6.81536">
        <ele>382.5</ele>
        <time>2021-08-12T07:12:07Z</time>
      </trkpt>
      <trkpt lat="47.32051" lon="6.81536">
        <ele>382.4</ele>
        <time>2021-08-12T07:12:09Z</time>
      </trkpt>
      <trkpt lat="47.32048" lon="6.81535">
        <ele>382.2</ele>
        <time>2021-08-12T07:12:11Z</time>
      </trkpt>
      <trkpt lat="47.32044" lon="6.81531">
        <ele>381.9</ele>
        <time>2021-08-12T07:12:13Z</time>
      </trkpt>
      <trkpt lat="47.32039" lon="6.81526">
        <ele>379.8</ele>
        <time>2021-08-12T07:12:15Z</time>
      </trkpt>
      <trkpt lat="47.32035" lon="6.8152">
        <ele>379.8</ele>
        <time>2021-08-12T07:12:16Z</time>
      </trkpt>
      <trkpt lat="47.32032" lon="6.81515">
        <ele>379.8</ele>
        <time>2021-08-12T07:12:18Z</time>
      </trkpt>
      <trkpt lat="47.32028" lon="6.81508">
        <ele>379.9</ele>
        <time>2021-08-12T07:12:20Z</time>
      </trkpt>
      <trkpt lat="47.32025" lon="6.81504">
        <ele>379.9</ele>
        <time>2021-08-12T07:12:21Z</time>
      </trkpt>
      <trkpt lat="47.32023" lon="6.81499">
        <ele>379.9</ele>
        <time>2021-08-12T07:12:22Z</time>
      </trkpt>
      <trkpt lat="47.3202" lon="6.81492">
        <ele>379.9</ele>
        <time>2021-08-12T07:12:24Z</time>
      </trkpt>
      <trkpt lat="47.32017" lon="6.81487">
        <ele>379.9</ele>
        <time>2021-08-12T07:12:25Z</time>
      </trkpt>
      <trkpt lat="47.32015" lon="6.81483">
        <ele>380.1</ele>
        <time>2021-08-12T07:12:26Z</time>
      </trkpt>
      <trkpt lat="47.32011" lon="6.81479">
        <ele>382.9</ele>
        <time>2021-08-12T07:12:28Z</time>
      </trkpt>
      <trkpt lat="47.32008" lon="6.81474">
        <ele>383</ele>
        <time>2021-08-12T07:12:29Z</time>
      </trkpt>
      <trkpt lat="47.32005" lon="6.81468">
        <ele>383.1</ele>
        <time>2021-08-12T07:12:31Z</time>
      </trkpt>
      <trkpt lat="47.32004" lon="6.81462">
        <ele>383.1</ele>
        <time>2021-08-12T07:12:32Z</time>
      </trkpt>
      <trkpt lat="47.31999" lon="6.81456">
        <ele>383.2</ele>
        <time>2021-08-12T07:12:34Z</time>
      </trkpt>
      <trkpt lat="47.31995" lon="6.81453">
        <ele>382.8</ele>
        <time>2021-08-12T07:12:35Z</time>
      </trkpt>
      <trkpt lat="47.31991" lon="6.81451">
        <ele>382.6</ele>
        <time>2021-08-12T07:12:37Z</time>
      </trkpt>
      <trkpt lat="47.31988" lon="6.81448">
        <ele>382.3</ele>
        <time>2021-08-12T07:12:39Z</time>
      </trkpt>
      <trkpt lat="47.31984" lon="6.81445">
        <ele>382.1</ele>
        <time>2021-08-12T07:12:41Z</time>
      </trkpt>
      <trkpt lat="47.3198" lon="6.81443">
        <ele>381.8</ele>
        <time>2021-08-12T07:12:43Z</time>
      </trkpt>
      <trkpt lat="47.31977" lon="6.8144">
        <ele>381.6</ele>
        <time>2021-08-12T07:12:45Z</time>
      </trkpt>
      <trkpt lat="47.31973" lon="6.81438">
        <ele>381.4</ele>
        <time>2021-08-12T07:12:46Z</time>
      </trkpt>
      <trkpt lat="47.31969" lon="6.81435">
        <ele>381.1</ele>
        <time>2021-08-12T07:12:48Z</time>
      </trkpt>
      <trkpt lat="47.31966" lon="6.81433">
        <ele>380.9</ele>
        <time>2021-08-12T07:13:54Z</time>
      </trkpt>
      <trkpt lat="47.31962" lon="6.8143">
        <ele>380.7</ele>
        <time>2021-08-12T07:13:55Z</time>
      </trkpt>
      <trkpt lat="47.31955" lon="6.81417">
        <ele>380.1</ele>
        <time>2021-08-12T07:13:56Z</time>
      </trkpt>
      <trkpt lat="47.3195" lon="6.81408">
        <ele>379.7</ele>
        <time>2021-08-12T07:13:57Z</time>
      </trkpt>
      <trkpt lat="47.31938" lon="6.81386">
        <ele>378.9</ele>
        <time>2021-08-12T07:13:59Z</time>
      </trkpt>
      <trkpt lat="47.31931" lon="6.81369">
        <ele>378.4</ele>
        <time>2021-08-12T07:14:01Z</time>
      </trkpt>
      <trkpt lat="47.31926" lon="6.81359">
        <ele>378.2</ele>
        <time>2021-08-12T07:14:03Z</time>
      </trkpt>
      <trkpt lat="47.31923" lon="6.81354">
        <ele>378.1</ele>
        <time>2021-08-12T07:14:04Z</time>
      </trkpt>
      <trkpt lat="47.31922" lon="6.81352">
        <ele>378</ele>
        <time>2021-08-12T07:14:05Z</time>
      </trkpt>
      <trkpt lat="47.31921" lon="6.8135">
        <ele>378</ele>
        <time>2021-08-12T07:14:06Z</time>
      </trkpt>
      <trkpt lat="47.31919" lon="6.81349">
        <ele>378</ele>
        <time>2021-08-12T07:14:07Z</time>
      </trkpt>
      <trkpt lat="47.31917" lon="6.81346">
        <ele>377.9</ele>
        <time>2021-08-12T07:14:08Z</time>
      </trkpt>
      <trkpt lat="47.31913" lon="6.81341">
        <ele>377.4</ele>
        <time>2021-08-12T07:14:10Z</time>
      </trkpt>
      <trkpt lat="47.31909" lon="6.81337">
        <ele>377.4</ele>
        <time>2021-08-12T07:14:11Z</time>
      </trkpt>
      <trkpt lat="47.31905" lon="6.81332">
        <ele>377.3</ele>
        <time>2021-08-12T07:14:13Z</time>
      </trkpt>
      <trkpt lat="47.319" lon="6.81328">
        <ele>377.3</ele>
        <time>2021-08-12T07:14:14Z</time>
      </trkpt>
      <trkpt lat="47.31894" lon="6.81322">
        <ele>377.3</ele>
        <time>2021-08-12T07:14:15Z</time>
      </trkpt>
      <trkpt lat="47.31889" lon="6.81318">
        <ele>377.2</ele>
        <time>2021-08-12T07:14:17Z</time>
      </trkpt>
      <trkpt lat="47.31881" lon="6.81311">
        <ele>377.3</ele>
        <time>2021-08-12T07:14:18Z</time>
      </trkpt>
      <trkpt lat="47.31876" lon="6.81307">
        <ele>377.3</ele>
        <time>2021-08-12T07:14:19Z</time>
      </trkpt>
      <trkpt lat="47.31868" lon="6.813">
        <ele>377.4</ele>
        <time>2021-08-12T07:14:21Z</time>
      </trkpt>
      <trkpt lat="47.31864" lon="6.81297">
        <ele>377.4</ele>
        <time>2021-08-12T07:14:22Z</time>
      </trkpt>
      <trkpt lat="47.3186" lon="6.81294">
        <ele>377.5</ele>
        <time>2021-08-12T07:14:23Z</time>
      </trkpt>
      <trkpt lat="47.31855" lon="6.8129">
        <ele>377.6</ele>
        <time>2021-08-12T07:14:24Z</time>
      </trkpt>
      <trkpt lat="47.31853" lon="6.81287">
        <ele>377.6</ele>
        <time>2021-08-12T07:14:26Z</time>
      </trkpt>
      <trkpt lat="47.31849" lon="6.81284">
        <ele>377.7</ele>
        <time>2021-08-12T07:14:27Z</time>
      </trkpt>
      <trkpt lat="47.31845" lon="6.81282">
        <ele>377.8</ele>
        <time>2021-08-12T07:14:28Z</time>
      </trkpt>
      <trkpt lat="47.31841" lon="6.8128">
        <ele>377.9</ele>
        <time>2021-08-12T07:14:29Z</time>
      </trkpt>
      <trkpt lat="47.31838" lon="6.81277">
        <ele>377.9</ele>
        <time>2021-08-12T07:14:30Z</time>
      </trkpt>
      <trkpt lat="47.31834" lon="6.81275">
        <ele>378</ele>
        <time>2021-08-12T07:14:31Z</time>
      </trkpt>
      <trkpt lat="47.31828" lon="6.8127">
        <ele>378.3</ele>
        <time>2021-08-12T07:14:33Z</time>
      </trkpt>
      <trkpt lat="47.31823" lon="6.81266">
        <ele>378.5</ele>
        <time>2021-08-12T07:14:34Z</time>
      </trkpt>
      <trkpt lat="47.3182" lon="6.81261">
        <ele>378.7</ele>
        <time>2021-08-12T07:14:36Z</time>
      </trkpt>
      <trkpt lat="47.31821" lon="6.81256">
        <ele>378.9</ele>
        <time>2021-08-12T07:14:37Z</time>
      </trkpt>
      <trkpt lat="47.31819" lon="6.81251">
        <ele>379.3</ele>
        <time>2021-08-12T07:14:39Z</time>
      </trkpt>
      <trkpt lat="47.31817" lon="6.81249">
        <ele>379.5</ele>
        <time>2021-08-12T07:14:40Z</time>
      </trkpt>
      <trkpt lat="47.31815" lon="6.81249">
        <ele>379.5</ele>
        <time>2021-08-12T07:14:41Z</time>
      </trkpt>
      <trkpt lat="47.31812" lon="6.81251">
        <ele>379.7</ele>
        <time>2021-08-12T07:14:42Z</time>
      </trkpt>
      <trkpt lat="47.31811" lon="6.81251">
        <ele>379.7</ele>
        <time>2021-08-12T07:14:43Z</time>
      </trkpt>
      <trkpt lat="47.31804" lon="6.81257">
        <ele>380</ele>
        <time>2021-08-12T07:14:44Z</time>
      </trkpt>
      <trkpt lat="47.31801" lon="6.8126">
        <ele>380.1</ele>
        <time>2021-08-12T07:14:46Z</time>
      </trkpt>
      <trkpt lat="47.31799" lon="6.81263">
        <ele>380.3</ele>
        <time>2021-08-12T07:14:47Z</time>
      </trkpt>
      <trkpt lat="47.31796" lon="6.81268">
        <ele>380.4</ele>
        <time>2021-08-12T07:14:49Z</time>
      </trkpt>
      <trkpt lat="47.31795" lon="6.8127">
        <ele>380.5</ele>
        <time>2021-08-12T07:14:50Z</time>
      </trkpt>
      <trkpt lat="47.31794" lon="6.81271">
        <ele>380.6</ele>
        <time>2021-08-12T07:14:51Z</time>
      </trkpt>
      <trkpt lat="47.31794" lon="6.81271">
        <ele>380.6</ele>
        <time>2021-08-12T07:14:53Z</time>
      </trkpt>
      <trkpt lat="47.31794" lon="6.81272">
        <ele>380.6</ele>
        <time>2021-08-12T07:14:54Z</time>
      </trkpt>
      <trkpt lat="47.31793" lon="6.81272">
        <ele>380.6</ele>
        <time>2021-08-12T07:14:55Z</time>
      </trkpt>
      <trkpt lat="47.31793" lon="6.81272">
        <ele>380.6</ele>
        <time>2021-08-12T07:14:56Z</time>
      </trkpt>
      <trkpt lat="47.31792" lon="6.81272">
        <ele>380.7</ele>
        <time>2021-08-12T07:14:57Z</time>
      </trkpt>
      <trkpt lat="47.31791" lon="6.81273">
        <ele>380.7</ele>
        <time>2021-08-12T07:14:59Z</time>
      </trkpt>
      <trkpt lat="47.3179" lon="6.81274">
        <ele>380.8</ele>
        <time>2021-08-12T07:15:00Z</time>
      </trkpt>
      <trkpt lat="47.31784" lon="6.8137">
        <ele>383.9</ele>
        <time>2021-08-12T07:15:28Z</time>
      </trkpt>
      <trkpt lat="47.31784" lon="6.81377">
        <ele>384.2</ele>
        <time>2021-08-12T07:15:29Z</time>
      </trkpt>
      <trkpt lat="47.31783" lon="6.81381">
        <ele>384.4</ele>
        <time>2021-08-12T07:15:30Z</time>
      </trkpt>
      <trkpt lat="47.31783" lon="6.81387">
        <ele>384.6</ele>
        <time>2021-08-12T07:15:32Z</time>
      </trkpt>
      <trkpt lat="47.31782" lon="6.81392">
        <ele>384.8</ele>
        <time>2021-08-12T07:15:33Z</time>
      </trkpt>
      <trkpt lat="47.31781" lon="6.81401">
        <ele>385.1</ele>
        <time>2021-08-12T07:15:35Z</time>
      </trkpt>
      <trkpt lat="47.31781" lon="6.81405">
        <ele>385.3</ele>
        <time>2021-08-12T07:15:36Z</time>
      </trkpt>
      <trkpt lat="47.31782" lon="6.81411">
        <ele>385.5</ele>
        <time>2021-08-12T07:15:38Z</time>
      </trkpt>
      <trkpt lat="47.31781" lon="6.81421">
        <ele>385.8</ele>
        <time>2021-08-12T07:15:40Z</time>
      </trkpt>
      <trkpt lat="47.31781" lon="6.81426">
        <ele>386</ele>
        <time>2021-08-12T07:15:41Z</time>
      </trkpt>
      <trkpt lat="47.31783" lon="6.81433">
        <ele>386.2</ele>
        <time>2021-08-12T07:15:43Z</time>
      </trkpt>
      <trkpt lat="47.31784" lon="6.81439">
        <ele>386.3</ele>
        <time>2021-08-12T07:15:44Z</time>
      </trkpt>
      <trkpt lat="47.31784" lon="6.81447">
        <ele>386.5</ele>
        <time>2021-08-12T07:15:46Z</time>
      </trkpt>
      <trkpt lat="47.31784" lon="6.81451">
        <ele>386.6</ele>
        <time>2021-08-12T07:15:47Z</time>
      </trkpt>
      <trkpt lat="47.31785" lon="6.81458">
        <ele>386.8</ele>
        <time>2021-08-12T07:15:49Z</time>
      </trkpt>
      <trkpt lat="47.31785" lon="6.81464">
        <ele>386.9</ele>
        <time>2021-08-12T07:15:50Z</time>
      </trkpt>
      <trkpt lat="47.31784" lon="6.81466">
        <ele>386.9</ele>
        <time>2021-08-12T07:15:51Z</time>
      </trkpt>
      <trkpt lat="47.31784" lon="6.8147">
        <ele>387</ele>
        <time>2021-08-12T07:15:52Z</time>
      </trkpt>
      <trkpt lat="47.31784" lon="6.81476">
        <ele>387.1</ele>
        <time>2021-08-12T07:15:54Z</time>
      </trkpt>
      <trkpt lat="47.31783" lon="6.81482">
        <ele>387.2</ele>
        <time>2021-08-12T07:15:56Z</time>
      </trkpt>
      <trkpt lat="47.31784" lon="6.81488">
        <ele>387.3</ele>
        <time>2021-08-12T07:15:57Z</time>
      </trkpt>
      <trkpt lat="47.31785" lon="6.8149">
        <ele>387.3</ele>
        <time>2021-08-12T07:15:58Z</time>
      </trkpt>
      <trkpt lat="47.31785" lon="6.81495">
        <ele>387.4</ele>
        <time>2021-08-12T07:15:59Z</time>
      </trkpt>
      <trkpt lat="47.31785" lon="6.81496">
        <ele>387.4</ele>
        <time>2021-08-12T07:16:00Z</time>
      </trkpt>
      <trkpt lat="47.31787" lon="6.81501">
        <ele>387.4</ele>
        <time>2021-08-12T07:16:02Z</time>
      </trkpt>
      <trkpt lat="47.31789" lon="6.81505">
        <ele>387.5</ele>
        <time>2021-08-12T07:16:04Z</time>
      </trkpt>
      <trkpt lat="47.31791" lon="6.81508">
        <ele>387.5</ele>
        <time>2021-08-12T07:16:05Z</time>
      </trkpt>
      <trkpt lat="47.31791" lon="6.81511">
        <ele>387.5</ele>
        <time>2021-08-12T07:16:06Z</time>
      </trkpt>
      <trkpt lat="47.31792" lon="6.81516">
        <ele>387.6</ele>
        <time>2021-08-12T07:16:07Z</time>
      </trkpt>
      <trkpt lat="47.31794" lon="6.81523">
        <ele>387.6</ele>
        <time>2021-08-12T07:16:09Z</time>
      </trkpt>
      <trkpt lat="47.31795" lon="6.81528">
        <ele>387.5</ele>
        <time>2021-08-12T07:16:10Z</time>
      </trkpt>
      <trkpt lat="47.31797" lon="6.81534">
        <ele>387.5</ele>
        <time>2021-08-12T07:16:11Z</time>
      </trkpt>
      <trkpt lat="47.31799" lon="6.8154">
        <ele>387.4</ele>
        <time>2021-08-12T07:16:12Z</time>
      </trkpt>
      <trkpt lat="47.31801" lon="6.81544">
        <ele>387.4</ele>
        <time>2021-08-12T07:16:13Z</time>
      </trkpt>
      <trkpt lat="47.31803" lon="6.8155">
        <ele>387.3</ele>
        <time>2021-08-12T07:16:14Z</time>
      </trkpt>
      <trkpt lat="47.31805" lon="6.8156">
        <ele>387.2</ele>
        <time>2021-08-12T07:16:16Z</time>
      </trkpt>
      <trkpt lat="47.31805" lon="6.81567">
        <ele>387.1</ele>
        <time>2021-08-12T07:16:17Z</time>
      </trkpt>
      <trkpt lat="47.31804" lon="6.81579">
        <ele>387</ele>
        <time>2021-08-12T07:16:19Z</time>
      </trkpt>
      <trkpt lat="47.31804" lon="6.81585">
        <ele>386.9</ele>
        <time>2021-08-12T07:16:20Z</time>
      </trkpt>
      <trkpt lat="47.31804" lon="6.81593">
        <ele>386.8</ele>
        <time>2021-08-12T07:16:21Z</time>
      </trkpt>
      <trkpt lat="47.31804" lon="6.816">
        <ele>386.8</ele>
        <time>2021-08-12T07:16:22Z</time>
      </trkpt>
      <trkpt lat="47.31804" lon="6.8161">
        <ele>386.7</ele>
        <time>2021-08-12T07:16:23Z</time>
      </trkpt>
      <trkpt lat="47.31805" lon="6.81619">
        <ele>386.6</ele>
        <time>2021-08-12T07:16:25Z</time>
      </trkpt>
      <trkpt lat="47.31806" lon="6.81628">
        <ele>386.5</ele>
        <time>2021-08-12T07:16:26Z</time>
      </trkpt>
      <trkpt lat="47.31807" lon="6.81639">
        <ele>386.5</ele>
        <time>2021-08-12T07:16:27Z</time>
      </trkpt>
      <trkpt lat="47.31809" lon="6.81648">
        <ele>386.4</ele>
        <time>2021-08-12T07:16:29Z</time>
      </trkpt>
      <trkpt lat="47.3181" lon="6.81656">
        <ele>386.4</ele>
        <time>2021-08-12T07:16:30Z</time>
      </trkpt>
      <trkpt lat="47.31811" lon="6.81663">
        <ele>386.4</ele>
        <time>2021-08-12T07:16:31Z</time>
      </trkpt>
      <trkpt lat="47.31812" lon="6.81674">
        <ele>386.4</ele>
        <time>2021-08-12T07:16:32Z</time>
      </trkpt>
      <trkpt lat="47.31812" lon="6.81683">
        <ele>386.4</ele>
        <time>2021-08-12T07:16:34Z</time>
      </trkpt>
      <trkpt lat="47.31812" lon="6.81689">
        <ele>386.3</ele>
        <time>2021-08-12T07:16:35Z</time>
      </trkpt>
      <trkpt lat="47.31813" lon="6.81698">
        <ele>386.3</ele>
        <time>2021-08-12T07:16:36Z</time>
      </trkpt>
      <trkpt lat="47.31814" lon="6.81705">
        <ele>386.3</ele>
        <time>2021-08-12T07:16:37Z</time>
      </trkpt>
      <trkpt lat="47.31816" lon="6.81713">
        <ele>386.4</ele>
        <time>2021-08-12T07:16:39Z</time>
      </trkpt>
      <trkpt lat="47.31817" lon="6.81718">
        <ele>386.4</ele>
        <time>2021-08-12T07:16:40Z</time>
      </trkpt>
      <trkpt lat="47.31818" lon="6.81723">
        <ele>386.4</ele>
        <time>2021-08-12T07:16:41Z</time>
      </trkpt>
      <trkpt lat="47.31821" lon="6.81731">
        <ele>386.4</ele>
        <time>2021-08-12T07:16:42Z</time>
      </trkpt>
      <trkpt lat="47.31823" lon="6.81739">
        <ele>386.4</ele>
        <time>2021-08-12T07:16:44Z</time>
      </trkpt>
      <trkpt lat="47.31824" lon="6.81745">
        <ele>386.5</ele>
        <time>2021-08-12T07:16:45Z</time>
      </trkpt>
      <trkpt lat="47.31825" lon="6.8175">
        <ele>386.5</ele>
        <time>2021-08-12T07:16:46Z</time>
      </trkpt>
      <trkpt lat="47.31825" lon="6.81761">
        <ele>386.5</ele>
        <time>2021-08-12T07:16:48Z</time>
      </trkpt>
      <trkpt lat="47.31824" lon="6.81767">
        <ele>386.5</ele>
        <time>2021-08-12T07:16:49Z</time>
      </trkpt>
      <trkpt lat="47.31822" lon="6.81777">
        <ele>386.6</ele>
        <time>2021-08-12T07:16:51Z</time>
      </trkpt>
      <trkpt lat="47.31821" lon="6.81789">
        <ele>386.6</ele>
        <time>2021-08-12T07:16:53Z</time>
      </trkpt>
      <trkpt lat="47.3182" lon="6.81795">
        <ele>386.6</ele>
        <time>2021-08-12T07:16:54Z</time>
      </trkpt>
      <trkpt lat="47.3182" lon="6.81801">
        <ele>386.6</ele>
        <time>2021-08-12T07:16:55Z</time>
      </trkpt>
      <trkpt lat="47.31821" lon="6.81807">
        <ele>386.6</ele>
        <time>2021-08-12T07:16:56Z</time>
      </trkpt>
      <trkpt lat="47.31823" lon="6.81817">
        <ele>386.7</ele>
        <time>2021-08-12T07:16:57Z</time>
      </trkpt>
      <trkpt lat="47.31825" lon="6.81825">
        <ele>386.8</ele>
        <time>2021-08-12T07:16:59Z</time>
      </trkpt>
      <trkpt lat="47.31826" lon="6.81832">
        <ele>386.8</ele>
        <time>2021-08-12T07:17:00Z</time>
      </trkpt>
      <trkpt lat="47.31828" lon="6.81838">
        <ele>386.9</ele>
        <time>2021-08-12T07:17:01Z</time>
      </trkpt>
      <trkpt lat="47.3183" lon="6.81844">
        <ele>387</ele>
        <time>2021-08-12T07:17:02Z</time>
      </trkpt>
      <trkpt lat="47.31834" lon="6.81855">
        <ele>387.1</ele>
        <time>2021-08-12T07:17:03Z</time>
      </trkpt>
      <trkpt lat="47.31835" lon="6.81865">
        <ele>387.3</ele>
        <time>2021-08-12T07:17:05Z</time>
      </trkpt>
      <trkpt lat="47.31835" lon="6.81872">
        <ele>387.4</ele>
        <time>2021-08-12T07:17:06Z</time>
      </trkpt>
      <trkpt lat="47.31835" lon="6.81884">
        <ele>387.6</ele>
        <time>2021-08-12T07:17:08Z</time>
      </trkpt>
      <trkpt lat="47.31835" lon="6.81889">
        <ele>387.7</ele>
        <time>2021-08-12T07:17:09Z</time>
      </trkpt>
      <trkpt lat="47.31837" lon="6.81894">
        <ele>387.8</ele>
        <time>2021-08-12T07:17:10Z</time>
      </trkpt>
      <trkpt lat="47.31838" lon="6.81897">
        <ele>387.8</ele>
        <time>2021-08-12T07:17:11Z</time>
      </trkpt>
      <trkpt lat="47.31839" lon="6.81898">
        <ele>387.8</ele>
        <time>2021-08-12T07:17:13Z</time>
      </trkpt>
      <trkpt lat="47.31845" lon="6.81902">
        <ele>388</ele>
        <time>2021-08-12T07:17:15Z</time>
      </trkpt>
      <trkpt lat="47.31849" lon="6.81906">
        <ele>388.2</ele>
        <time>2021-08-12T07:17:16Z</time>
      </trkpt>
      <trkpt lat="47.31852" lon="6.81906">
        <ele>388.2</ele>
        <time>2021-08-12T07:17:17Z</time>
      </trkpt>
      <trkpt lat="47.31853" lon="6.81907">
        <ele>388.3</ele>
        <time>2021-08-12T07:17:18Z</time>
      </trkpt>
      <trkpt lat="47.31856" lon="6.81911">
        <ele>388.4</ele>
        <time>2021-08-12T07:17:19Z</time>
      </trkpt>
      <trkpt lat="47.3186" lon="6.81913">
        <ele>388.5</ele>
        <time>2021-08-12T07:17:21Z</time>
      </trkpt>
      <trkpt lat="47.31864" lon="6.81913">
        <ele>388.7</ele>
        <time>2021-08-12T07:17:22Z</time>
      </trkpt>
      <trkpt lat="47.31865" lon="6.81911">
        <ele>388.7</ele>
        <time>2021-08-12T07:17:23Z</time>
      </trkpt>
      <trkpt lat="47.31867" lon="6.81911">
        <ele>388.8</ele>
        <time>2021-08-12T07:17:24Z</time>
      </trkpt>
      <trkpt lat="47.31871" lon="6.81913">
        <ele>388.9</ele>
        <time>2021-08-12T07:17:25Z</time>
      </trkpt>
      <trkpt lat="47.31874" lon="6.81915">
        <ele>389.1</ele>
        <time>2021-08-12T07:17:26Z</time>
      </trkpt>
      <trkpt lat="47.31877" lon="6.81919">
        <ele>389.2</ele>
        <time>2021-08-12T07:17:28Z</time>
      </trkpt>
      <trkpt lat="47.31879" lon="6.81921">
        <ele>389.3</ele>
        <time>2021-08-12T07:17:29Z</time>
      </trkpt>
      <trkpt lat="47.31881" lon="6.81924">
        <ele>389.5</ele>
        <time>2021-08-12T07:17:30Z</time>
      </trkpt>
      <trkpt lat="47.31883" lon="6.81928">
        <ele>389.6</ele>
        <time>2021-08-12T07:17:31Z</time>
      </trkpt>
      <trkpt lat="47.31886" lon="6.81933">
        <ele>389.8</ele>
        <time>2021-08-12T07:17:33Z</time>
      </trkpt>
      <trkpt lat="47.31888" lon="6.81935">
        <ele>389.9</ele>
        <time>2021-08-12T07:17:34Z</time>
      </trkpt>
      <trkpt lat="47.31892" lon="6.81939">
        <ele>390.1</ele>
        <time>2021-08-12T07:17:36Z</time>
      </trkpt>
      <trkpt lat="47.31895" lon="6.81942">
        <ele>390.2</ele>
        <time>2021-08-12T07:17:37Z</time>
      </trkpt>
      <trkpt lat="47.31897" lon="6.81945">
        <ele>390.3</ele>
        <time>2021-08-12T07:17:38Z</time>
      </trkpt>
      <trkpt lat="47.31899" lon="6.8195">
        <ele>390.5</ele>
        <time>2021-08-12T07:17:39Z</time>
      </trkpt>
      <trkpt lat="47.31899" lon="6.81954">
        <ele>390.6</ele>
        <time>2021-08-12T07:17:41Z</time>
      </trkpt>
      <trkpt lat="47.319" lon="6.81958">
        <ele>390.7</ele>
        <time>2021-08-12T07:17:42Z</time>
      </trkpt>
      <trkpt lat="47.31902" lon="6.81964">
        <ele>390.9</ele>
        <time>2021-08-12T07:17:44Z</time>
      </trkpt>
      <trkpt lat="47.31903" lon="6.81966">
        <ele>390.9</ele>
        <time>2021-08-12T07:17:45Z</time>
      </trkpt>
      <trkpt lat="47.31905" lon="6.8197">
        <ele>391.1</ele>
        <time>2021-08-12T07:17:47Z</time>
      </trkpt>
      <trkpt lat="47.31907" lon="6.81973">
        <ele>391.2</ele>
        <time>2021-08-12T07:17:49Z</time>
      </trkpt>
      <trkpt lat="47.31907" lon="6.81973">
        <ele>391.2</ele>
        <time>2021-08-12T07:17:50Z</time>
      </trkpt>
      <trkpt lat="47.31908" lon="6.81974">
        <ele>391.3</ele>
        <time>2021-08-12T07:17:51Z</time>
      </trkpt>
      <trkpt lat="47.31911" lon="6.81977">
        <ele>391.4</ele>
        <time>2021-08-12T07:17:53Z</time>
      </trkpt>
      <trkpt lat="47.31915" lon="6.81982">
        <ele>391.6</ele>
        <time>2021-08-12T07:17:55Z</time>
      </trkpt>
      <trkpt lat="47.31917" lon="6.81984">
        <ele>391.8</ele>
        <time>2021-08-12T07:17:56Z</time>
      </trkpt>
      <trkpt lat="47.31919" lon="6.81988">
        <ele>391.9</ele>
        <time>2021-08-12T07:17:57Z</time>
      </trkpt>
      <trkpt lat="47.31922" lon="6.81992">
        <ele>392.1</ele>
        <time>2021-08-12T07:17:58Z</time>
      </trkpt>
      <trkpt lat="47.31923" lon="6.81993">
        <ele>392.1</ele>
        <time>2021-08-12T07:17:59Z</time>
      </trkpt>
      <trkpt lat="47.31926" lon="6.81996">
        <ele>392.3</ele>
        <time>2021-08-12T07:18:01Z</time>
      </trkpt>
      <trkpt lat="47.31926" lon="6.81997">
        <ele>392.3</ele>
        <time>2021-08-12T07:18:02Z</time>
      </trkpt>
      <trkpt lat="47.31926" lon="6.81998">
        <ele>392.3</ele>
        <time>2021-08-12T07:18:03Z</time>
      </trkpt>
      <trkpt lat="47.31926" lon="6.82001">
        <ele>392.4</ele>
        <time>2021-08-12T07:18:04Z</time>
      </trkpt>
      <trkpt lat="47.31928" lon="6.82006">
        <ele>392.6</ele>
        <time>2021-08-12T07:18:05Z</time>
      </trkpt>
      <trkpt lat="47.31928" lon="6.82007">
        <ele>392.6</ele>
        <time>2021-08-12T07:18:06Z</time>
      </trkpt>
      <trkpt lat="47.31929" lon="6.8201">
        <ele>392.7</ele>
        <time>2021-08-12T07:18:07Z</time>
      </trkpt>
      <trkpt lat="47.3193" lon="6.82015">
        <ele>392.9</ele>
        <time>2021-08-12T07:18:09Z</time>
      </trkpt>
      <trkpt lat="47.31931" lon="6.8202">
        <ele>393.1</ele>
        <time>2021-08-12T07:18:10Z</time>
      </trkpt>
      <trkpt lat="47.31931" lon="6.82021">
        <ele>393.1</ele>
        <time>2021-08-12T07:18:11Z</time>
      </trkpt>
      <trkpt lat="47.31933" lon="6.82026">
        <ele>393.3</ele>
        <time>2021-08-12T07:18:13Z</time>
      </trkpt>
      <trkpt lat="47.31935" lon="6.82032">
        <ele>393.5</ele>
        <time>2021-08-12T07:18:15Z</time>
      </trkpt>
      <trkpt lat="47.31936" lon="6.82035">
        <ele>393.6</ele>
        <time>2021-08-12T07:18:16Z</time>
      </trkpt>
      <trkpt lat="47.31939" lon="6.82043">
        <ele>393.9</ele>
        <time>2021-08-12T07:18:18Z</time>
      </trkpt>
      <trkpt lat="47.3194" lon="6.82047">
        <ele>394</ele>
        <time>2021-08-12T07:18:19Z</time>
      </trkpt>
      <trkpt lat="47.31942" lon="6.82056">
        <ele>394.3</ele>
        <time>2021-08-12T07:18:20Z</time>
      </trkpt>
      <trkpt lat="47.31943" lon="6.8206">
        <ele>394.4</ele>
        <time>2021-08-12T07:18:21Z</time>
      </trkpt>
      <trkpt lat="47.31944" lon="6.82064">
        <ele>394.5</ele>
        <time>2021-08-12T07:18:23Z</time>
      </trkpt>
      <trkpt lat="47.31945" lon="6.82068">
        <ele>394.6</ele>
        <time>2021-08-12T07:18:24Z</time>
      </trkpt>
      <trkpt lat="47.31947" lon="6.82072">
        <ele>394.7</ele>
        <time>2021-08-12T07:18:25Z</time>
      </trkpt>
      <trkpt lat="47.31949" lon="6.82076">
        <ele>394.8</ele>
        <time>2021-08-12T07:18:26Z</time>
      </trkpt>
      <trkpt lat="47.31951" lon="6.8208">
        <ele>394.9</ele>
        <time>2021-08-12T07:18:27Z</time>
      </trkpt>
      <trkpt lat="47.31953" lon="6.82083">
        <ele>395</ele>
        <time>2021-08-12T07:18:28Z</time>
      </trkpt>
      <trkpt lat="47.31957" lon="6.8209">
        <ele>395.2</ele>
        <time>2021-08-12T07:18:30Z</time>
      </trkpt>
      <trkpt lat="47.31959" lon="6.82095">
        <ele>395.3</ele>
        <time>2021-08-12T07:18:31Z</time>
      </trkpt>
      <trkpt lat="47.3196" lon="6.82098">
        <ele>395.4</ele>
        <time>2021-08-12T07:18:32Z</time>
      </trkpt>
      <trkpt lat="47.31963" lon="6.82102">
        <ele>395.5</ele>
        <time>2021-08-12T07:18:34Z</time>
      </trkpt>
      <trkpt lat="47.31963" lon="6.82104">
        <ele>395.5</ele>
        <time>2021-08-12T07:18:35Z</time>
      </trkpt>
      <trkpt lat="47.31965" lon="6.82108">
        <ele>395.6</ele>
        <time>2021-08-12T07:18:36Z</time>
      </trkpt>
      <trkpt lat="47.31966" lon="6.8211">
        <ele>395.6</ele>
        <time>2021-08-12T07:18:37Z</time>
      </trkpt>
      <trkpt lat="47.31967" lon="6.82113">
        <ele>395.7</ele>
        <time>2021-08-12T07:18:38Z</time>
      </trkpt>
      <trkpt lat="47.31969" lon="6.82119">
        <ele>395.8</ele>
        <time>2021-08-12T07:18:40Z</time>
      </trkpt>
      <trkpt lat="47.3197" lon="6.82122">
        <ele>395.8</ele>
        <time>2021-08-12T07:18:41Z</time>
      </trkpt>
      <trkpt lat="47.31973" lon="6.82124">
        <ele>395.9</ele>
        <time>2021-08-12T07:18:43Z</time>
      </trkpt>
      <trkpt lat="47.31977" lon="6.82126">
        <ele>396</ele>
        <time>2021-08-12T07:18:44Z</time>
      </trkpt>
      <trkpt lat="47.31978" lon="6.82127">
        <ele>396</ele>
        <time>2021-08-12T07:18:45Z</time>
      </trkpt>
      <trkpt lat="47.3198" lon="6.8213">
        <ele>396</ele>
        <time>2021-08-12T07:18:46Z</time>
      </trkpt>
      <trkpt lat="47.31982" lon="6.82133">
        <ele>396.1</ele>
        <time>2021-08-12T07:18:47Z</time>
      </trkpt>
      <trkpt lat="47.31986" lon="6.82139">
        <ele>396.1</ele>
        <time>2021-08-12T07:18:49Z</time>
      </trkpt>
      <trkpt lat="47.31988" lon="6.82143">
        <ele>396.2</ele>
        <time>2021-08-12T07:18:50Z</time>
      </trkpt>
      <trkpt lat="47.31991" lon="6.8215">
        <ele>396.3</ele>
        <time>2021-08-12T07:18:52Z</time>
      </trkpt>
      <trkpt lat="47.31992" lon="6.82155">
        <ele>396.3</ele>
        <time>2021-08-12T07:18:53Z</time>
      </trkpt>
      <trkpt lat="47.31995" lon="6.82163">
        <ele>396.4</ele>
        <time>2021-08-12T07:18:55Z</time>
      </trkpt>
      <trkpt lat="47.31997" lon="6.82168">
        <ele>396.4</ele>
        <time>2021-08-12T07:18:56Z</time>
      </trkpt>
      <trkpt lat="47.32" lon="6.82174">
        <ele>396.5</ele>
        <time>2021-08-12T07:18:57Z</time>
      </trkpt>
      <trkpt lat="47.32002" lon="6.82178">
        <ele>396.5</ele>
        <time>2021-08-12T07:18:58Z</time>
      </trkpt>
      <trkpt lat="47.32004" lon="6.82182">
        <ele>396.6</ele>
        <time>2021-08-12T07:19:00Z</time>
      </trkpt>
      <trkpt lat="47.32005" lon="6.82187">
        <ele>396.6</ele>
        <time>2021-08-12T07:19:01Z</time>
      </trkpt>
      <trkpt lat="47.32008" lon="6.82194">
        <ele>396.7</ele>
        <time>2021-08-12T07:19:03Z</time>
      </trkpt>
      <trkpt lat="47.3201" lon="6.82197">
        <ele>396.7</ele>
        <time>2021-08-12T07:19:04Z</time>
      </trkpt>
      <trkpt lat="47.32011" lon="6.822">
        <ele>396.7</ele>
        <time>2021-08-12T07:19:05Z</time>
      </trkpt>
      <trkpt lat="47.32013" lon="6.82204">
        <ele>396.8</ele>
        <time>2021-08-12T07:19:06Z</time>
      </trkpt>
      <trkpt lat="47.32014" lon="6.82208">
        <ele>396.8</ele>
        <time>2021-08-12T07:19:07Z</time>
      </trkpt>
      <trkpt lat="47.32016" lon="6.82212">
        <ele>396.9</ele>
        <time>2021-08-12T07:19:08Z</time>
      </trkpt>
      <trkpt lat="47.32018" lon="6.82215">
        <ele>396.9</ele>
        <time>2021-08-12T07:19:09Z</time>
      </trkpt>
      <trkpt lat="47.3202" lon="6.82218">
        <ele>397</ele>
        <time>2021-08-12T07:19:10Z</time>
      </trkpt>
      <trkpt lat="47.32022" lon="6.82221">
        <ele>397</ele>
        <time>2021-08-12T07:19:11Z</time>
      </trkpt>
      <trkpt lat="47.32025" lon="6.82228">
        <ele>397.1</ele>
        <time>2021-08-12T07:19:13Z</time>
      </trkpt>
      <trkpt lat="47.32027" lon="6.82232">
        <ele>397.2</ele>
        <time>2021-08-12T07:19:14Z</time>
      </trkpt>
      <trkpt lat="47.3203" lon="6.82235">
        <ele>397.3</ele>
        <time>2021-08-12T07:19:15Z</time>
      </trkpt>
      <trkpt lat="47.32033" lon="6.82239">
        <ele>397.4</ele>
        <time>2021-08-12T07:19:17Z</time>
      </trkpt>
      <trkpt lat="47.32035" lon="6.82242">
        <ele>397.5</ele>
        <time>2021-08-12T07:19:18Z</time>
      </trkpt>
      <trkpt lat="47.32037" lon="6.82245">
        <ele>397.6</ele>
        <time>2021-08-12T07:19:19Z</time>
      </trkpt>
      <trkpt lat="47.3204" lon="6.82249">
        <ele>397.7</ele>
        <time>2021-08-12T07:19:21Z</time>
      </trkpt>
      <trkpt lat="47.32042" lon="6.82251">
        <ele>397.7</ele>
        <time>2021-08-12T07:19:22Z</time>
      </trkpt>
      <trkpt lat="47.32043" lon="6.82254">
        <ele>397.8</ele>
        <time>2021-08-12T07:19:24Z</time>
      </trkpt>
      <trkpt lat="47.32044" lon="6.82254">
        <ele>397.8</ele>
        <time>2021-08-12T07:19:25Z</time>
      </trkpt>
      <trkpt lat="47.32046" lon="6.82254">
        <ele>397.9</ele>
        <time>2021-08-12T07:19:26Z</time>
      </trkpt>
      <trkpt lat="47.32048" lon="6.82254">
        <ele>397.9</ele>
        <time>2021-08-12T07:19:27Z</time>
      </trkpt>
      <trkpt lat="47.32049" lon="6.82256">
        <ele>398</ele>
        <time>2021-08-12T07:19:28Z</time>
      </trkpt>
      <trkpt lat="47.32051" lon="6.8226">
        <ele>398.1</ele>
        <time>2021-08-12T07:19:29Z</time>
      </trkpt>
      <trkpt lat="47.32054" lon="6.82266">
        <ele>398.3</ele>
        <time>2021-08-12T07:19:31Z</time>
      </trkpt>
      <trkpt lat="47.32055" lon="6.8227">
        <ele>398.4</ele>
        <time>2021-08-12T07:19:32Z</time>
      </trkpt>
      <trkpt lat="47.32056" lon="6.82272">
        <ele>398.4</ele>
        <time>2021-08-12T07:19:33Z</time>
      </trkpt>
      <trkpt lat="47.32057" lon="6.82279">
        <ele>398.6</ele>
        <time>2021-08-12T07:19:34Z</time>
      </trkpt>
      <trkpt lat="47.32058" lon="6.82284">
        <ele>398.8</ele>
        <time>2021-08-12T07:19:35Z</time>
      </trkpt>
      <trkpt lat="47.32059" lon="6.82289">
        <ele>398.9</ele>
        <time>2021-08-12T07:19:36Z</time>
      </trkpt>
      <trkpt lat="47.32059" lon="6.82294">
        <ele>399.1</ele>
        <time>2021-08-12T07:19:37Z</time>
      </trkpt>
      <trkpt lat="47.3206" lon="6.82298">
        <ele>399.2</ele>
        <time>2021-08-12T07:19:38Z</time>
      </trkpt>
      <trkpt lat="47.3206" lon="6.82302">
        <ele>399.3</ele>
        <time>2021-08-12T07:19:39Z</time>
      </trkpt>
      <trkpt lat="47.32061" lon="6.82307">
        <ele>399.5</ele>
        <time>2021-08-12T07:19:40Z</time>
      </trkpt>
      <trkpt lat="47.32062" lon="6.82309">
        <ele>399.6</ele>
        <time>2021-08-12T07:19:41Z</time>
      </trkpt>
      <trkpt lat="47.32063" lon="6.82315">
        <ele>399.7</ele>
        <time>2021-08-12T07:19:43Z</time>
      </trkpt>
      <trkpt lat="47.32063" lon="6.82316">
        <ele>399.8</ele>
        <time>2021-08-12T07:19:44Z</time>
      </trkpt>
      <trkpt lat="47.32063" lon="6.82322">
        <ele>400</ele>
        <time>2021-08-12T07:19:45Z</time>
      </trkpt>
      <trkpt lat="47.32064" lon="6.82324">
        <ele>400</ele>
        <time>2021-08-12T07:19:46Z</time>
      </trkpt>
      <trkpt lat="47.32065" lon="6.82329">
        <ele>400.2</ele>
        <time>2021-08-12T07:19:48Z</time>
      </trkpt>
      <trkpt lat="47.32065" lon="6.82331">
        <ele>400.3</ele>
        <time>2021-08-12T07:19:49Z</time>
      </trkpt>
      <trkpt lat="47.32067" lon="6.82332">
        <ele>400.4</ele>
        <time>2021-08-12T07:19:50Z</time>
      </trkpt>
      <trkpt lat="47.32069" lon="6.82333">
        <ele>400.5</ele>
        <time>2021-08-12T07:19:51Z</time>
      </trkpt>
      <trkpt lat="47.3207" lon="6.82335">
        <ele>400.6</ele>
        <time>2021-08-12T07:19:52Z</time>
      </trkpt>
      <trkpt lat="47.32071" lon="6.82338">
        <ele>400.7</ele>
        <time>2021-08-12T07:19:53Z</time>
      </trkpt>
      <trkpt lat="47.32071" lon="6.8234">
        <ele>400.8</ele>
        <time>2021-08-12T07:19:54Z</time>
      </trkpt>
      <trkpt lat="47.32072" lon="6.82342">
        <ele>400.9</ele>
        <time>2021-08-12T07:19:56Z</time>
      </trkpt>
      <trkpt lat="47.32072" lon="6.82345">
        <ele>400.9</ele>
        <time>2021-08-12T07:19:57Z</time>
      </trkpt>
      <trkpt lat="47.32071" lon="6.82348">
        <ele>401.1</ele>
        <time>2021-08-12T07:19:58Z</time>
      </trkpt>
      <trkpt lat="47.32071" lon="6.8235">
        <ele>401.1</ele>
        <time>2021-08-12T07:19:59Z</time>
      </trkpt>
      <trkpt lat="47.3207" lon="6.82352">
        <ele>401.2</ele>
        <time>2021-08-12T07:20:00Z</time>
      </trkpt>
      <trkpt lat="47.32069" lon="6.82357">
        <ele>401.4</ele>
        <time>2021-08-12T07:20:01Z</time>
      </trkpt>
      <trkpt lat="47.32069" lon="6.82358">
        <ele>401.5</ele>
        <time>2021-08-12T07:20:02Z</time>
      </trkpt>
      <trkpt lat="47.32068" lon="6.82361">
        <ele>401.6</ele>
        <time>2021-08-12T07:20:04Z</time>
      </trkpt>
      <trkpt lat="47.32069" lon="6.82361">
        <ele>401.6</ele>
        <time>2021-08-12T07:20:05Z</time>
      </trkpt>
      <trkpt lat="47.32069" lon="6.82362">
        <ele>401.7</ele>
        <time>2021-08-12T07:20:06Z</time>
      </trkpt>
      <trkpt lat="47.32068" lon="6.82364">
        <ele>401.8</ele>
        <time>2021-08-12T07:20:07Z</time>
      </trkpt>
      <trkpt lat="47.32067" lon="6.82365">
        <ele>401.8</ele>
        <time>2021-08-12T07:20:08Z</time>
      </trkpt>
      <trkpt lat="47.32067" lon="6.82369">
        <ele>402</ele>
        <time>2021-08-12T07:20:10Z</time>
      </trkpt>
      <trkpt lat="47.32065" lon="6.82374">
        <ele>402.2</ele>
        <time>2021-08-12T07:20:11Z</time>
      </trkpt>
      <trkpt lat="47.32065" lon="6.82375">
        <ele>402.2</ele>
        <time>2021-08-12T07:20:12Z</time>
      </trkpt>
      <trkpt lat="47.32064" lon="6.82384">
        <ele>402.6</ele>
        <time>2021-08-12T07:20:15Z</time>
      </trkpt>
      <trkpt lat="47.32064" lon="6.82389">
        <ele>402.8</ele>
        <time>2021-08-12T07:20:16Z</time>
      </trkpt>
      <trkpt lat="47.32065" lon="6.82394">
        <ele>403</ele>
        <time>2021-08-12T07:20:17Z</time>
      </trkpt>
      <trkpt lat="47.32066" lon="6.82399">
        <ele>403.2</ele>
        <time>2021-08-12T07:20:19Z</time>
      </trkpt>
      <trkpt lat="47.32067" lon="6.82403">
        <ele>403.4</ele>
        <time>2021-08-12T07:20:20Z</time>
      </trkpt>
      <trkpt lat="47.32067" lon="6.82405">
        <ele>403.5</ele>
        <time>2021-08-12T07:20:21Z</time>
      </trkpt>
      <trkpt lat="47.32068" lon="6.8241">
        <ele>403.6</ele>
        <time>2021-08-12T07:20:22Z</time>
      </trkpt>
      <trkpt lat="47.32069" lon="6.82414">
        <ele>403.8</ele>
        <time>2021-08-12T07:20:23Z</time>
      </trkpt>
      <trkpt lat="47.32072" lon="6.82418">
        <ele>404</ele>
        <time>2021-08-12T07:20:24Z</time>
      </trkpt>
      <trkpt lat="47.32073" lon="6.82419">
        <ele>404.1</ele>
        <time>2021-08-12T07:20:25Z</time>
      </trkpt>
      <trkpt lat="47.32076" lon="6.82423">
        <ele>404.3</ele>
        <time>2021-08-12T07:20:26Z</time>
      </trkpt>
      <trkpt lat="47.32079" lon="6.82429">
        <ele>404.6</ele>
        <time>2021-08-12T07:20:28Z</time>
      </trkpt>
      <trkpt lat="47.32082" lon="6.82435">
        <ele>404.9</ele>
        <time>2021-08-12T07:20:30Z</time>
      </trkpt>
      <trkpt lat="47.32084" lon="6.82438">
        <ele>405</ele>
        <time>2021-08-12T07:20:31Z</time>
      </trkpt>
      <trkpt lat="47.32086" lon="6.82442">
        <ele>405.2</ele>
        <time>2021-08-12T07:20:32Z</time>
      </trkpt>
      <trkpt lat="47.3209" lon="6.82448">
        <ele>405.5</ele>
        <time>2021-08-12T07:20:34Z</time>
      </trkpt>
      <trkpt lat="47.32092" lon="6.82451">
        <ele>405.7</ele>
        <time>2021-08-12T07:20:35Z</time>
      </trkpt>
      <trkpt lat="47.32094" lon="6.82456">
        <ele>405.9</ele>
        <time>2021-08-12T07:20:36Z</time>
      </trkpt>
      <trkpt lat="47.32095" lon="6.82458">
        <ele>406</ele>
        <time>2021-08-12T07:20:37Z</time>
      </trkpt>
      <trkpt lat="47.32096" lon="6.82461">
        <ele>406.1</ele>
        <time>2021-08-12T07:20:38Z</time>
      </trkpt>
      <trkpt lat="47.32096" lon="6.82465">
        <ele>406.2</ele>
        <time>2021-08-12T07:20:40Z</time>
      </trkpt>
      <trkpt lat="47.32097" lon="6.8247">
        <ele>406.4</ele>
        <time>2021-08-12T07:20:41Z</time>
      </trkpt>
      <trkpt lat="47.32097" lon="6.82471">
        <ele>406.5</ele>
        <time>2021-08-12T07:20:42Z</time>
      </trkpt>
      <trkpt lat="47.32097" lon="6.82475">
        <ele>406.6</ele>
        <time>2021-08-12T07:20:43Z</time>
      </trkpt>
      <trkpt lat="47.32098" lon="6.8248">
        <ele>406.8</ele>
        <time>2021-08-12T07:20:45Z</time>
      </trkpt>
      <trkpt lat="47.321" lon="6.82482">
        <ele>406.9</ele>
        <time>2021-08-12T07:20:46Z</time>
      </trkpt>
      <trkpt lat="47.32101" lon="6.82483">
        <ele>407</ele>
        <time>2021-08-12T07:20:48Z</time>
      </trkpt>
      <trkpt lat="47.32102" lon="6.82483">
        <ele>407</ele>
        <time>2021-08-12T07:20:49Z</time>
      </trkpt>
      <trkpt lat="47.32103" lon="6.82484">
        <ele>407.1</ele>
        <time>2021-08-12T07:20:50Z</time>
      </trkpt>
      <trkpt lat="47.32103" lon="6.82485">
        <ele>407.1</ele>
        <time>2021-08-12T07:20:51Z</time>
      </trkpt>
      <trkpt lat="47.32104" lon="6.82489">
        <ele>407.3</ele>
        <time>2021-08-12T07:20:52Z</time>
      </trkpt>
      <trkpt lat="47.32105" lon="6.8249">
        <ele>407.3</ele>
        <time>2021-08-12T07:20:53Z</time>
      </trkpt>
      <trkpt lat="47.32105" lon="6.82495">
        <ele>407.5</ele>
        <time>2021-08-12T07:20:54Z</time>
      </trkpt>
      <trkpt lat="47.32106" lon="6.825">
        <ele>407.6</ele>
        <time>2021-08-12T07:20:56Z</time>
      </trkpt>
      <trkpt lat="47.32106" lon="6.82506">
        <ele>407.8</ele>
        <time>2021-08-12T07:20:58Z</time>
      </trkpt>
      <trkpt lat="47.32106" lon="6.82513">
        <ele>408</ele>
        <time>2021-08-12T07:21:00Z</time>
      </trkpt>
      <trkpt lat="47.32106" lon="6.82517">
        <ele>408.1</ele>
        <time>2021-08-12T07:21:01Z</time>
      </trkpt>
      <trkpt lat="47.32106" lon="6.82524">
        <ele>408.2</ele>
        <time>2021-08-12T07:21:03Z</time>
      </trkpt>
      <trkpt lat="47.32106" lon="6.8253">
        <ele>408.4</ele>
        <time>2021-08-12T07:21:04Z</time>
      </trkpt>
      <trkpt lat="47.32106" lon="6.82531">
        <ele>408.4</ele>
        <time>2021-08-12T07:21:05Z</time>
      </trkpt>
      <trkpt lat="47.32108" lon="6.82537">
        <ele>408.5</ele>
        <time>2021-08-12T07:21:07Z</time>
      </trkpt>
      <trkpt lat="47.32109" lon="6.82543">
        <ele>408.6</ele>
        <time>2021-08-12T07:21:09Z</time>
      </trkpt>
      <trkpt lat="47.3211" lon="6.82549">
        <ele>408.8</ele>
        <time>2021-08-12T07:21:10Z</time>
      </trkpt>
      <trkpt lat="47.3211" lon="6.82551">
        <ele>408.8</ele>
        <time>2021-08-12T07:21:11Z</time>
      </trkpt>
      <trkpt lat="47.3211" lon="6.82556">
        <ele>408.9</ele>
        <time>2021-08-12T07:21:12Z</time>
      </trkpt>
      <trkpt lat="47.3211" lon="6.82558">
        <ele>408.9</ele>
        <time>2021-08-12T07:21:13Z</time>
      </trkpt>
      <trkpt lat="47.32111" lon="6.82564">
        <ele>409.1</ele>
        <time>2021-08-12T07:21:15Z</time>
      </trkpt>
      <trkpt lat="47.32113" lon="6.82568">
        <ele>409.2</ele>
        <time>2021-08-12T07:21:16Z</time>
      </trkpt>
      <trkpt lat="47.32115" lon="6.82571">
        <ele>409.2</ele>
        <time>2021-08-12T07:21:17Z</time>
      </trkpt>
      <trkpt lat="47.32115" lon="6.82572">
        <ele>409.3</ele>
        <time>2021-08-12T07:21:18Z</time>
      </trkpt>
      <trkpt lat="47.32116" lon="6.82572">
        <ele>409.3</ele>
        <time>2021-08-12T07:21:20Z</time>
      </trkpt>
      <trkpt lat="47.32118" lon="6.82574">
        <ele>409.3</ele>
        <time>2021-08-12T07:21:21Z</time>
      </trkpt>
      <trkpt lat="47.32119" lon="6.82577">
        <ele>409.4</ele>
        <time>2021-08-12T07:21:22Z</time>
      </trkpt>
      <trkpt lat="47.32121" lon="6.82582">
        <ele>409.5</ele>
        <time>2021-08-12T07:21:24Z</time>
      </trkpt>
      <trkpt lat="47.32122" lon="6.82588">
        <ele>409.7</ele>
        <time>2021-08-12T07:21:25Z</time>
      </trkpt>
      <trkpt lat="47.32124" lon="6.82597">
        <ele>409.8</ele>
        <time>2021-08-12T07:21:27Z</time>
      </trkpt>
      <trkpt lat="47.32127" lon="6.82606">
        <ele>410.1</ele>
        <time>2021-08-12T07:21:29Z</time>
      </trkpt>
      <trkpt lat="47.32132" lon="6.82613">
        <ele>410.3</ele>
        <time>2021-08-12T07:21:31Z</time>
      </trkpt>
      <trkpt lat="47.32134" lon="6.82616">
        <ele>410.4</ele>
        <time>2021-08-12T07:21:32Z</time>
      </trkpt>
      <trkpt lat="47.32136" lon="6.82621">
        <ele>410.5</ele>
        <time>2021-08-12T07:21:33Z</time>
      </trkpt>
      <trkpt lat="47.32139" lon="6.82626">
        <ele>410.7</ele>
        <time>2021-08-12T07:21:35Z</time>
      </trkpt>
      <trkpt lat="47.3214" lon="6.82628">
        <ele>410.7</ele>
        <time>2021-08-12T07:21:36Z</time>
      </trkpt>
      <trkpt lat="47.32141" lon="6.8263">
        <ele>410.8</ele>
        <time>2021-08-12T07:21:37Z</time>
      </trkpt>
      <trkpt lat="47.32144" lon="6.82634">
        <ele>410.9</ele>
        <time>2021-08-12T07:21:38Z</time>
      </trkpt>
      <trkpt lat="47.32144" lon="6.82635">
        <ele>411</ele>
        <time>2021-08-12T07:21:39Z</time>
      </trkpt>
      <trkpt lat="47.32146" lon="6.82639">
        <ele>411.1</ele>
        <time>2021-08-12T07:21:40Z</time>
      </trkpt>
      <trkpt lat="47.32147" lon="6.82641">
        <ele>411.1</ele>
        <time>2021-08-12T07:21:41Z</time>
      </trkpt>
      <trkpt lat="47.32149" lon="6.82646">
        <ele>411.3</ele>
        <time>2021-08-12T07:21:42Z</time>
      </trkpt>
      <trkpt lat="47.32151" lon="6.82651">
        <ele>411.4</ele>
        <time>2021-08-12T07:21:44Z</time>
      </trkpt>
      <trkpt lat="47.32153" lon="6.82656">
        <ele>411.6</ele>
        <time>2021-08-12T07:21:45Z</time>
      </trkpt>
      <trkpt lat="47.32154" lon="6.8266">
        <ele>411.7</ele>
        <time>2021-08-12T07:21:46Z</time>
      </trkpt>
      <trkpt lat="47.32156" lon="6.82665">
        <ele>411.8</ele>
        <time>2021-08-12T07:21:48Z</time>
      </trkpt>
      <trkpt lat="47.32158" lon="6.82668">
        <ele>412</ele>
        <time>2021-08-12T07:21:49Z</time>
      </trkpt>
      <trkpt lat="47.3216" lon="6.82673">
        <ele>412.1</ele>
        <time>2021-08-12T07:21:50Z</time>
      </trkpt>
      <trkpt lat="47.32161" lon="6.82675">
        <ele>412.2</ele>
        <time>2021-08-12T07:21:51Z</time>
      </trkpt>
      <trkpt lat="47.32163" lon="6.82679">
        <ele>412.4</ele>
        <time>2021-08-12T07:21:52Z</time>
      </trkpt>
      <trkpt lat="47.32164" lon="6.8268">
        <ele>412.4</ele>
        <time>2021-08-12T07:21:53Z</time>
      </trkpt>
      <trkpt lat="47.32166" lon="6.82684">
        <ele>412.6</ele>
        <time>2021-08-12T07:21:54Z</time>
      </trkpt>
      <trkpt lat="47.32167" lon="6.82685">
        <ele>412.6</ele>
        <time>2021-08-12T07:21:55Z</time>
      </trkpt>
      <trkpt lat="47.32168" lon="6.8269">
        <ele>412.8</ele>
        <time>2021-08-12T07:21:57Z</time>
      </trkpt>
      <trkpt lat="47.3217" lon="6.82694">
        <ele>412.9</ele>
        <time>2021-08-12T07:21:58Z</time>
      </trkpt>
      <trkpt lat="47.32171" lon="6.82696">
        <ele>413</ele>
        <time>2021-08-12T07:21:59Z</time>
      </trkpt>
      <trkpt lat="47.32173" lon="6.827">
        <ele>413.2</ele>
        <time>2021-08-12T07:22:00Z</time>
      </trkpt>
      <trkpt lat="47.32174" lon="6.82703">
        <ele>413.3</ele>
        <time>2021-08-12T07:22:01Z</time>
      </trkpt>
      <trkpt lat="47.32176" lon="6.82704">
        <ele>413.4</ele>
        <time>2021-08-12T07:22:03Z</time>
      </trkpt>
      <trkpt lat="47.32179" lon="6.82705">
        <ele>413.6</ele>
        <time>2021-08-12T07:22:04Z</time>
      </trkpt>
      <trkpt lat="47.32181" lon="6.82705">
        <ele>413.6</ele>
        <time>2021-08-12T07:22:05Z</time>
      </trkpt>
      <trkpt lat="47.32182" lon="6.82706">
        <ele>413.7</ele>
        <time>2021-08-12T07:22:06Z</time>
      </trkpt>
      <trkpt lat="47.32184" lon="6.82708">
        <ele>413.8</ele>
        <time>2021-08-12T07:22:07Z</time>
      </trkpt>
      <trkpt lat="47.32185" lon="6.82709">
        <ele>413.9</ele>
        <time>2021-08-12T07:22:09Z</time>
      </trkpt>
      <trkpt lat="47.32186" lon="6.8271">
        <ele>413.9</ele>
        <time>2021-08-12T07:22:11Z</time>
      </trkpt>
      <trkpt lat="47.32187" lon="6.82712">
        <ele>414</ele>
        <time>2021-08-12T07:22:12Z</time>
      </trkpt>
      <trkpt lat="47.32187" lon="6.82714">
        <ele>414.1</ele>
        <time>2021-08-12T07:22:13Z</time>
      </trkpt>
      <trkpt lat="47.32187" lon="6.82719">
        <ele>414.3</ele>
        <time>2021-08-12T07:22:15Z</time>
      </trkpt>
      <trkpt lat="47.32188" lon="6.82723">
        <ele>414.4</ele>
        <time>2021-08-12T07:22:16Z</time>
      </trkpt>
      <trkpt lat="47.32189" lon="6.82728">
        <ele>414.6</ele>
        <time>2021-08-12T07:22:18Z</time>
      </trkpt>
      <trkpt lat="47.32192" lon="6.82731">
        <ele>414.8</ele>
        <time>2021-08-12T07:22:19Z</time>
      </trkpt>
      <trkpt lat="47.32193" lon="6.82732">
        <ele>414.9</ele>
        <time>2021-08-12T07:22:20Z</time>
      </trkpt>
      <trkpt lat="47.32194" lon="6.82733">
        <ele>415</ele>
        <time>2021-08-12T07:22:22Z</time>
      </trkpt>
      <trkpt lat="47.32195" lon="6.82735">
        <ele>415.1</ele>
        <time>2021-08-12T07:22:23Z</time>
      </trkpt>
      <trkpt lat="47.32197" lon="6.82739">
        <ele>415.3</ele>
        <time>2021-08-12T07:22:24Z</time>
      </trkpt>
      <trkpt lat="47.32198" lon="6.82741">
        <ele>415.4</ele>
        <time>2021-08-12T07:22:25Z</time>
      </trkpt>
      <trkpt lat="47.32202" lon="6.82744">
        <ele>415.7</ele>
        <time>2021-08-12T07:22:27Z</time>
      </trkpt>
      <trkpt lat="47.32205" lon="6.82748">
        <ele>415.9</ele>
        <time>2021-08-12T07:22:28Z</time>
      </trkpt>
      <trkpt lat="47.32205" lon="6.8275">
        <ele>416</ele>
        <time>2021-08-12T07:22:29Z</time>
      </trkpt>
      <trkpt lat="47.32205" lon="6.82753">
        <ele>416.2</ele>
        <time>2021-08-12T07:22:30Z</time>
      </trkpt>
      <trkpt lat="47.32205" lon="6.82757">
        <ele>416.4</ele>
        <time>2021-08-12T07:22:32Z</time>
      </trkpt>
      <trkpt lat="47.32205" lon="6.82762">
        <ele>416.6</ele>
        <time>2021-08-12T07:22:33Z</time>
      </trkpt>
      <trkpt lat="47.32206" lon="6.82765">
        <ele>416.8</ele>
        <time>2021-08-12T07:22:35Z</time>
      </trkpt>
      <trkpt lat="47.32207" lon="6.82767">
        <ele>416.9</ele>
        <time>2021-08-12T07:22:37Z</time>
      </trkpt>
      <trkpt lat="47.32207" lon="6.8277">
        <ele>417</ele>
        <time>2021-08-12T07:22:38Z</time>
      </trkpt>
      <trkpt lat="47.32209" lon="6.82773">
        <ele>417.2</ele>
        <time>2021-08-12T07:22:39Z</time>
      </trkpt>
      <trkpt lat="47.3221" lon="6.82775">
        <ele>417.4</ele>
        <time>2021-08-12T07:22:41Z</time>
      </trkpt>
      <trkpt lat="47.32213" lon="6.82778">
        <ele>417.6</ele>
        <time>2021-08-12T07:22:42Z</time>
      </trkpt>
      <trkpt lat="47.32213" lon="6.82779">
        <ele>417.7</ele>
        <time>2021-08-12T07:22:43Z</time>
      </trkpt>
      <trkpt lat="47.32216" lon="6.82783">
        <ele>417.9</ele>
        <time>2021-08-12T07:22:45Z</time>
      </trkpt>
      <trkpt lat="47.32217" lon="6.82784">
        <ele>418</ele>
        <time>2021-08-12T07:22:46Z</time>
      </trkpt>
      <trkpt lat="47.32221" lon="6.82785">
        <ele>418.3</ele>
        <time>2021-08-12T07:22:48Z</time>
      </trkpt>
      <trkpt lat="47.32224" lon="6.82787">
        <ele>418.5</ele>
        <time>2021-08-12T07:22:50Z</time>
      </trkpt>
      <trkpt lat="47.32226" lon="6.8279">
        <ele>418.7</ele>
        <time>2021-08-12T07:22:51Z</time>
      </trkpt>
      <trkpt lat="47.32228" lon="6.82795">
        <ele>418.9</ele>
        <time>2021-08-12T07:22:53Z</time>
      </trkpt>
      <trkpt lat="47.32229" lon="6.82796">
        <ele>419</ele>
        <time>2021-08-12T07:22:54Z</time>
      </trkpt>
      <trkpt lat="47.3223" lon="6.82798">
        <ele>419.1</ele>
        <time>2021-08-12T07:22:55Z</time>
      </trkpt>
      <trkpt lat="47.32233" lon="6.82802">
        <ele>419.4</ele>
        <time>2021-08-12T07:22:57Z</time>
      </trkpt>
      <trkpt lat="47.32234" lon="6.82804">
        <ele>419.5</ele>
        <time>2021-08-12T07:22:58Z</time>
      </trkpt>
      <trkpt lat="47.32235" lon="6.82805">
        <ele>419.5</ele>
        <time>2021-08-12T07:22:59Z</time>
      </trkpt>
      <trkpt lat="47.32236" lon="6.82807">
        <ele>419.7</ele>
        <time>2021-08-12T07:23:01Z</time>
      </trkpt>
      <trkpt lat="47.32236" lon="6.82808">
        <ele>419.7</ele>
        <time>2021-08-12T07:23:02Z</time>
      </trkpt>
      <trkpt lat="47.32237" lon="6.82809">
        <ele>419.7</ele>
        <time>2021-08-12T07:23:03Z</time>
      </trkpt>
      <trkpt lat="47.32237" lon="6.8281">
        <ele>419.8</ele>
        <time>2021-08-12T07:23:04Z</time>
      </trkpt>
      <trkpt lat="47.3224" lon="6.82815">
        <ele>420</ele>
        <time>2021-08-12T07:23:05Z</time>
      </trkpt>
      <trkpt lat="47.32241" lon="6.82817">
        <ele>420.2</ele>
        <time>2021-08-12T07:23:06Z</time>
      </trkpt>
      <trkpt lat="47.32243" lon="6.82819">
        <ele>420.3</ele>
        <time>2021-08-12T07:23:07Z</time>
      </trkpt>
      <trkpt lat="47.32245" lon="6.82823">
        <ele>420.5</ele>
        <time>2021-08-12T07:23:08Z</time>
      </trkpt>
      <trkpt lat="47.32247" lon="6.82825">
        <ele>420.6</ele>
        <time>2021-08-12T07:23:09Z</time>
      </trkpt>
      <trkpt lat="47.32249" lon="6.82829">
        <ele>420.8</ele>
        <time>2021-08-12T07:23:11Z</time>
      </trkpt>
      <trkpt lat="47.32251" lon="6.82832">
        <ele>421</ele>
        <time>2021-08-12T07:23:12Z</time>
      </trkpt>
      <trkpt lat="47.32252" lon="6.82836">
        <ele>421.1</ele>
        <time>2021-08-12T07:23:13Z</time>
      </trkpt>
      <trkpt lat="47.32253" lon="6.8284">
        <ele>421.2</ele>
        <time>2021-08-12T07:23:14Z</time>
      </trkpt>
      <trkpt lat="47.32254" lon="6.82845">
        <ele>421.4</ele>
        <time>2021-08-12T07:23:15Z</time>
      </trkpt>
      <trkpt lat="47.32255" lon="6.82852">
        <ele>421.6</ele>
        <time>2021-08-12T07:23:16Z</time>
      </trkpt>
      <trkpt lat="47.32256" lon="6.82858">
        <ele>421.7</ele>
        <time>2021-08-12T07:23:18Z</time>
      </trkpt>
      <trkpt lat="47.32257" lon="6.82862">
        <ele>421.8</ele>
        <time>2021-08-12T07:23:19Z</time>
      </trkpt>
      <trkpt lat="47.32259" lon="6.82867">
        <ele>422</ele>
        <time>2021-08-12T07:23:21Z</time>
      </trkpt>
      <trkpt lat="47.32259" lon="6.82869">
        <ele>422</ele>
        <time>2021-08-12T07:23:22Z</time>
      </trkpt>
      <trkpt lat="47.3226" lon="6.82872">
        <ele>422.1</ele>
        <time>2021-08-12T07:23:23Z</time>
      </trkpt>
      <trkpt lat="47.32262" lon="6.82877">
        <ele>422.2</ele>
        <time>2021-08-12T07:23:25Z</time>
      </trkpt>
      <trkpt lat="47.32264" lon="6.82882">
        <ele>422.3</ele>
        <time>2021-08-12T07:23:26Z</time>
      </trkpt>
      <trkpt lat="47.32265" lon="6.82883">
        <ele>422.3</ele>
        <time>2021-08-12T07:23:27Z</time>
      </trkpt>
      <trkpt lat="47.32268" lon="6.82885">
        <ele>422.4</ele>
        <time>2021-08-12T07:23:28Z</time>
      </trkpt>
      <trkpt lat="47.3227" lon="6.82889">
        <ele>422.5</ele>
        <time>2021-08-12T07:23:29Z</time>
      </trkpt>
      <trkpt lat="47.3227" lon="6.8289">
        <ele>422.5</ele>
        <time>2021-08-12T07:23:30Z</time>
      </trkpt>
      <trkpt lat="47.32272" lon="6.82895">
        <ele>422.6</ele>
        <time>2021-08-12T07:23:31Z</time>
      </trkpt>
      <trkpt lat="47.32273" lon="6.829">
        <ele>422.7</ele>
        <time>2021-08-12T07:23:33Z</time>
      </trkpt>
      <trkpt lat="47.32276" lon="6.82905">
        <ele>422.7</ele>
        <time>2021-08-12T07:23:34Z</time>
      </trkpt>
      <trkpt lat="47.32278" lon="6.82909">
        <ele>422.8</ele>
        <time>2021-08-12T07:23:35Z</time>
      </trkpt>
      <trkpt lat="47.32281" lon="6.82919">
        <ele>422.9</ele>
        <time>2021-08-12T07:23:37Z</time>
      </trkpt>
      <trkpt lat="47.32282" lon="6.82924">
        <ele>422.9</ele>
        <time>2021-08-12T07:23:38Z</time>
      </trkpt>
      <trkpt lat="47.32283" lon="6.82929">
        <ele>422.9</ele>
        <time>2021-08-12T07:23:39Z</time>
      </trkpt>
      <trkpt lat="47.32284" lon="6.82934">
        <ele>422.9</ele>
        <time>2021-08-12T07:23:40Z</time>
      </trkpt>
      <trkpt lat="47.32286" lon="6.82938">
        <ele>423</ele>
        <time>2021-08-12T07:23:41Z</time>
      </trkpt>
      <trkpt lat="47.32289" lon="6.82946">
        <ele>423</ele>
        <time>2021-08-12T07:23:42Z</time>
      </trkpt>
      <trkpt lat="47.32291" lon="6.82951">
        <ele>423</ele>
        <time>2021-08-12T07:23:44Z</time>
      </trkpt>
      <trkpt lat="47.32295" lon="6.82958">
        <ele>423</ele>
        <time>2021-08-12T07:23:46Z</time>
      </trkpt>
      <trkpt lat="47.32296" lon="6.82967">
        <ele>423</ele>
        <time>2021-08-12T07:23:47Z</time>
      </trkpt>
      <trkpt lat="47.32297" lon="6.82974">
        <ele>423</ele>
        <time>2021-08-12T07:23:48Z</time>
      </trkpt>
      <trkpt lat="47.32299" lon="6.82979">
        <ele>423</ele>
        <time>2021-08-12T07:23:50Z</time>
      </trkpt>
      <trkpt lat="47.323" lon="6.82983">
        <ele>423</ele>
        <time>2021-08-12T07:23:51Z</time>
      </trkpt>
      <trkpt lat="47.32303" lon="6.82992">
        <ele>422.9</ele>
        <time>2021-08-12T07:23:53Z</time>
      </trkpt>
      <trkpt lat="47.32303" lon="6.82998">
        <ele>422.9</ele>
        <time>2021-08-12T07:23:54Z</time>
      </trkpt>
      <trkpt lat="47.32303" lon="6.83003">
        <ele>423</ele>
        <time>2021-08-12T07:23:56Z</time>
      </trkpt>
      <trkpt lat="47.32304" lon="6.83009">
        <ele>423.1</ele>
        <time>2021-08-12T07:23:57Z</time>
      </trkpt>
      <trkpt lat="47.32307" lon="6.83019">
        <ele>423.4</ele>
        <time>2021-08-12T07:23:59Z</time>
      </trkpt>
      <trkpt lat="47.32309" lon="6.83024">
        <ele>423.6</ele>
        <time>2021-08-12T07:24:00Z</time>
      </trkpt>
      <trkpt lat="47.32312" lon="6.83029">
        <ele>423.8</ele>
        <time>2021-08-12T07:24:01Z</time>
      </trkpt>
      <trkpt lat="47.32316" lon="6.8304">
        <ele>424.3</ele>
        <time>2021-08-12T07:24:03Z</time>
      </trkpt>
      <trkpt lat="47.3232" lon="6.83049">
        <ele>424.7</ele>
        <time>2021-08-12T07:24:05Z</time>
      </trkpt>
      <trkpt lat="47.32322" lon="6.83056">
        <ele>425.1</ele>
        <time>2021-08-12T07:24:07Z</time>
      </trkpt>
      <trkpt lat="47.32322" lon="6.83057">
        <ele>425.2</ele>
        <time>2021-08-12T07:24:08Z</time>
      </trkpt>
      <trkpt lat="47.32321" lon="6.8306">
        <ele>425.4</ele>
        <time>2021-08-12T07:24:09Z</time>
      </trkpt>
      <trkpt lat="47.32321" lon="6.83061">
        <ele>425.5</ele>
        <time>2021-08-12T07:24:10Z</time>
      </trkpt>
      <trkpt lat="47.32321" lon="6.83063">
        <ele>425.6</ele>
        <time>2021-08-12T07:24:11Z</time>
      </trkpt>
      <trkpt lat="47.32322" lon="6.83064">
        <ele>425.6</ele>
        <time>2021-08-12T07:24:12Z</time>
      </trkpt>
      <trkpt lat="47.32324" lon="6.83068">
        <ele>425.9</ele>
        <time>2021-08-12T07:24:13Z</time>
      </trkpt>
      <trkpt lat="47.32325" lon="6.83069">
        <ele>426</ele>
        <time>2021-08-12T07:24:14Z</time>
      </trkpt>
      <trkpt lat="47.32327" lon="6.83071">
        <ele>426.2</ele>
        <time>2021-08-12T07:24:15Z</time>
      </trkpt>
      <trkpt lat="47.32329" lon="6.83073">
        <ele>426.4</ele>
        <time>2021-08-12T07:24:16Z</time>
      </trkpt>
      <trkpt lat="47.32331" lon="6.83075">
        <ele>426.6</ele>
        <time>2021-08-12T07:24:18Z</time>
      </trkpt>
      <trkpt lat="47.32331" lon="6.8308">
        <ele>426.8</ele>
        <time>2021-08-12T07:24:20Z</time>
      </trkpt>
      <trkpt lat="47.3233" lon="6.83084">
        <ele>427</ele>
        <time>2021-08-12T07:24:21Z</time>
      </trkpt>
      <trkpt lat="47.3233" lon="6.83086">
        <ele>427.2</ele>
        <time>2021-08-12T07:24:22Z</time>
      </trkpt>
      <trkpt lat="47.3233" lon="6.83088">
        <ele>427.2</ele>
        <time>2021-08-12T07:24:23Z</time>
      </trkpt>
      <trkpt lat="47.3233" lon="6.83089">
        <ele>427.3</ele>
        <time>2021-08-12T07:24:24Z</time>
      </trkpt>
      <trkpt lat="47.32329" lon="6.83092">
        <ele>427.5</ele>
        <time>2021-08-12T07:24:26Z</time>
      </trkpt>
      <trkpt lat="47.32343" lon="6.83143">
        <ele>430.2</ele>
        <time>2021-08-12T07:24:53Z</time>
      </trkpt>
      <trkpt lat="47.32344" lon="6.83148">
        <ele>430.4</ele>
        <time>2021-08-12T07:24:54Z</time>
      </trkpt>
      <trkpt lat="47.32346" lon="6.83154">
        <ele>430.7</ele>
        <time>2021-08-12T07:24:56Z</time>
      </trkpt>
      <trkpt lat="47.32347" lon="6.83157">
        <ele>430.8</ele>
        <time>2021-08-12T07:24:57Z</time>
      </trkpt>
      <trkpt lat="47.32347" lon="6.83159">
        <ele>431</ele>
        <time>2021-08-12T07:24:58Z</time>
      </trkpt>
      <trkpt lat="47.32348" lon="6.83164">
        <ele>431.2</ele>
        <time>2021-08-12T07:25:00Z</time>
      </trkpt>
      <trkpt lat="47.32347" lon="6.8317">
        <ele>431.5</ele>
        <time>2021-08-12T07:25:02Z</time>
      </trkpt>
      <trkpt lat="47.32347" lon="6.83177">
        <ele>431.8</ele>
        <time>2021-08-12T07:25:04Z</time>
      </trkpt>
      <trkpt lat="47.32347" lon="6.83181">
        <ele>431.9</ele>
        <time>2021-08-12T07:25:05Z</time>
      </trkpt>
      <trkpt lat="47.32348" lon="6.83182">
        <ele>432</ele>
        <time>2021-08-12T07:25:06Z</time>
      </trkpt>
      <trkpt lat="47.3235" lon="6.83184">
        <ele>432.1</ele>
        <time>2021-08-12T07:25:07Z</time>
      </trkpt>
      <trkpt lat="47.32351" lon="6.83185">
        <ele>432.2</ele>
        <time>2021-08-12T07:25:08Z</time>
      </trkpt>
      <trkpt lat="47.32351" lon="6.83186">
        <ele>432.3</ele>
        <time>2021-08-12T07:25:09Z</time>
      </trkpt>
      <trkpt lat="47.32352" lon="6.83188">
        <ele>432.3</ele>
        <time>2021-08-12T07:25:10Z</time>
      </trkpt>
      <trkpt lat="47.32352" lon="6.83188">
        <ele>432.4</ele>
        <time>2021-08-12T07:25:12Z</time>
      </trkpt>
      <trkpt lat="47.32352" lon="6.83189">
        <ele>432.4</ele>
        <time>2021-08-12T07:25:13Z</time>
      </trkpt>
      <trkpt lat="47.32352" lon="6.83191">
        <ele>432.5</ele>
        <time>2021-08-12T07:25:14Z</time>
      </trkpt>
      <trkpt lat="47.32352" lon="6.83193">
        <ele>432.6</ele>
        <time>2021-08-12T07:25:15Z</time>
      </trkpt>
      <trkpt lat="47.32353" lon="6.83218">
        <ele>433.6</ele>
        <time>2021-08-12T07:25:25Z</time>
      </trkpt>
      <trkpt lat="47.32353" lon="6.83225">
        <ele>433.9</ele>
        <time>2021-08-12T07:25:27Z</time>
      </trkpt>
      <trkpt lat="47.3235" lon="6.83229">
        <ele>434.2</ele>
        <time>2021-08-12T07:25:28Z</time>
      </trkpt>
      <trkpt lat="47.32348" lon="6.83232">
        <ele>434.4</ele>
        <time>2021-08-12T07:25:29Z</time>
      </trkpt>
      <trkpt lat="47.32344" lon="6.83237">
        <ele>434.8</ele>
        <time>2021-08-12T07:25:30Z</time>
      </trkpt>
      <trkpt lat="47.32341" lon="6.83241">
        <ele>435</ele>
        <time>2021-08-12T07:25:31Z</time>
      </trkpt>
      <trkpt lat="47.32339" lon="6.83243">
        <ele>435.2</ele>
        <time>2021-08-12T07:25:32Z</time>
      </trkpt>
      <trkpt lat="47.32339" lon="6.83243">
        <ele>435.2</ele>
        <time>2021-08-12T07:25:33Z</time>
      </trkpt>
      <trkpt lat="47.32338" lon="6.83244">
        <ele>435.3</ele>
        <time>2021-08-12T07:25:34Z</time>
      </trkpt>
      <trkpt lat="47.32338" lon="6.83245">
        <ele>435.3</ele>
        <time>2021-08-12T07:25:35Z</time>
      </trkpt>
      <trkpt lat="47.32338" lon="6.83245">
        <ele>435.3</ele>
        <time>2021-08-12T07:25:37Z</time>
      </trkpt>
      <trkpt lat="47.32339" lon="6.83244">
        <ele>435.4</ele>
        <time>2021-08-12T07:25:39Z</time>
      </trkpt>
      <trkpt lat="47.32339" lon="6.83244">
        <ele>435.4</ele>
        <time>2021-08-12T07:25:40Z</time>
      </trkpt>
      <trkpt lat="47.32339" lon="6.83245">
        <ele>435.5</ele>
        <time>2021-08-12T07:25:41Z</time>
      </trkpt>
      <trkpt lat="47.32339" lon="6.83246">
        <ele>435.5</ele>
        <time>2021-08-12T07:25:42Z</time>
      </trkpt>
      <trkpt lat="47.32395" lon="6.83326">
        <ele>440.5</ele>
        <time>2021-08-12T07:26:47Z</time>
      </trkpt>
      <trkpt lat="47.324" lon="6.83333">
        <ele>440.9</ele>
        <time>2021-08-12T07:26:48Z</time>
      </trkpt>
      <trkpt lat="47.32405" lon="6.8334">
        <ele>441.3</ele>
        <time>2021-08-12T07:26:49Z</time>
      </trkpt>
      <trkpt lat="47.32416" lon="6.8336">
        <ele>442.3</ele>
        <time>2021-08-12T07:26:51Z</time>
      </trkpt>
      <trkpt lat="47.32418" lon="6.83363">
        <ele>442.4</ele>
        <time>2021-08-12T07:26:52Z</time>
      </trkpt>
      <trkpt lat="47.32419" lon="6.83366">
        <ele>442.6</ele>
        <time>2021-08-12T07:26:53Z</time>
      </trkpt>
      <trkpt lat="47.32421" lon="6.8337">
        <ele>442.8</ele>
        <time>2021-08-12T07:26:54Z</time>
      </trkpt>
      <trkpt lat="47.32425" lon="6.83378">
        <ele>443.2</ele>
        <time>2021-08-12T07:26:56Z</time>
      </trkpt>
      <trkpt lat="47.32427" lon="6.83384">
        <ele>443.5</ele>
        <time>2021-08-12T07:26:57Z</time>
      </trkpt>
      <trkpt lat="47.32427" lon="6.83386">
        <ele>443.6</ele>
        <time>2021-08-12T07:26:58Z</time>
      </trkpt>
      <trkpt lat="47.32429" lon="6.83392">
        <ele>443.9</ele>
        <time>2021-08-12T07:26:59Z</time>
      </trkpt>
      <trkpt lat="47.3243" lon="6.83398">
        <ele>444.1</ele>
        <time>2021-08-12T07:27:00Z</time>
      </trkpt>
      <trkpt lat="47.32431" lon="6.83402">
        <ele>444.4</ele>
        <time>2021-08-12T07:27:01Z</time>
      </trkpt>
      <trkpt lat="47.32432" lon="6.83406">
        <ele>444.5</ele>
        <time>2021-08-12T07:27:02Z</time>
      </trkpt>
      <trkpt lat="47.32433" lon="6.83411">
        <ele>444.7</ele>
        <time>2021-08-12T07:27:03Z</time>
      </trkpt>
      <trkpt lat="47.32433" lon="6.83412">
        <ele>444.7</ele>
        <time>2021-08-12T07:27:04Z</time>
      </trkpt>
      <trkpt lat="47.32434" lon="6.83417">
        <ele>444.9</ele>
        <time>2021-08-12T07:27:05Z</time>
      </trkpt>
      <trkpt lat="47.32434" lon="6.83419">
        <ele>445</ele>
        <time>2021-08-12T07:27:06Z</time>
      </trkpt>
      <trkpt lat="47.32434" lon="6.83424">
        <ele>445.2</ele>
        <time>2021-08-12T07:27:07Z</time>
      </trkpt>
      <trkpt lat="47.32434" lon="6.83426">
        <ele>445.3</ele>
        <time>2021-08-12T07:27:08Z</time>
      </trkpt>
      <trkpt lat="47.32432" lon="6.83427">
        <ele>445.4</ele>
        <time>2021-08-12T07:27:10Z</time>
      </trkpt>
      <trkpt lat="47.3243" lon="6.83425">
        <ele>445.5</ele>
        <time>2021-08-12T07:27:37Z</time>
      </trkpt>
      <trkpt lat="47.32428" lon="6.83422">
        <ele>445.7</ele>
        <time>2021-08-12T07:27:38Z</time>
      </trkpt>
      <trkpt lat="47.32426" lon="6.8342">
        <ele>445.8</ele>
        <time>2021-08-12T07:27:39Z</time>
      </trkpt>
      <trkpt lat="47.32425" lon="6.83422">
        <ele>445.9</ele>
        <time>2021-08-12T07:27:40Z</time>
      </trkpt>
      <trkpt lat="47.32423" lon="6.83426">
        <ele>446.1</ele>
        <time>2021-08-12T07:27:42Z</time>
      </trkpt>
      <trkpt lat="47.32423" lon="6.83428">
        <ele>446.2</ele>
        <time>2021-08-12T07:27:43Z</time>
      </trkpt>
      <trkpt lat="47.32422" lon="6.83431">
        <ele>446.3</ele>
        <time>2021-08-12T07:27:44Z</time>
      </trkpt>
      <trkpt lat="47.32423" lon="6.83432">
        <ele>446.4</ele>
        <time>2021-08-12T07:27:45Z</time>
      </trkpt>
      <trkpt lat="47.32422" lon="6.83434">
        <ele>446.4</ele>
        <time>2021-08-12T07:27:46Z</time>
      </trkpt>
      <trkpt lat="47.32421" lon="6.83439">
        <ele>446.7</ele>
        <time>2021-08-12T07:27:48Z</time>
      </trkpt>
      <trkpt lat="47.32421" lon="6.83441">
        <ele>446.7</ele>
        <time>2021-08-12T07:27:49Z</time>
      </trkpt>
      <trkpt lat="47.32422" lon="6.83443">
        <ele>446.8</ele>
        <time>2021-08-12T07:27:50Z</time>
      </trkpt>
      <trkpt lat="47.32421" lon="6.83449">
        <ele>447.1</ele>
        <time>2021-08-12T07:27:52Z</time>
      </trkpt>
      <trkpt lat="47.32421" lon="6.83452">
        <ele>447.2</ele>
        <time>2021-08-12T07:27:53Z</time>
      </trkpt>
      <trkpt lat="47.32421" lon="6.83456">
        <ele>447.3</ele>
        <time>2021-08-12T07:27:55Z</time>
      </trkpt>
      <trkpt lat="47.32421" lon="6.83457">
        <ele>447.4</ele>
        <time>2021-08-12T07:27:56Z</time>
      </trkpt>
      <trkpt lat="47.32421" lon="6.83456">
        <ele>447.4</ele>
        <time>2021-08-12T07:27:57Z</time>
      </trkpt>
      <trkpt lat="47.3242" lon="6.83456">
        <ele>447.5</ele>
        <time>2021-08-12T07:27:58Z</time>
      </trkpt>
      <trkpt lat="47.32419" lon="6.83456">
        <ele>447.5</ele>
        <time>2021-08-12T07:27:59Z</time>
      </trkpt>
      <trkpt lat="47.32419" lon="6.83457">
        <ele>447.6</ele>
        <time>2021-08-12T07:28:00Z</time>
      </trkpt>
      <trkpt lat="47.32418" lon="6.83458">
        <ele>447.6</ele>
        <time>2021-08-12T07:28:02Z</time>
      </trkpt>
      <trkpt lat="47.32418" lon="6.83459">
        <ele>447.7</ele>
        <time>2021-08-12T07:28:03Z</time>
      </trkpt>
      <trkpt lat="47.32417" lon="6.8346">
        <ele>447.7</ele>
        <time>2021-08-12T07:28:04Z</time>
      </trkpt>
      <trkpt lat="47.32417" lon="6.83461">
        <ele>447.8</ele>
        <time>2021-08-12T07:28:05Z</time>
      </trkpt>
      <trkpt lat="47.32412" lon="6.83469">
        <ele>448.2</ele>
        <time>2021-08-12T07:28:09Z</time>
      </trkpt>
      <trkpt lat="47.3241" lon="6.83471">
        <ele>448.3</ele>
        <time>2021-08-12T07:28:10Z</time>
      </trkpt>
      <trkpt lat="47.3241" lon="6.83472">
        <ele>448.3</ele>
        <time>2021-08-12T07:28:11Z</time>
      </trkpt>
      <trkpt lat="47.32408" lon="6.83475">
        <ele>448.4</ele>
        <time>2021-08-12T07:28:12Z</time>
      </trkpt>
      <trkpt lat="47.32407" lon="6.83477">
        <ele>448.5</ele>
        <time>2021-08-12T07:28:13Z</time>
      </trkpt>
      <trkpt lat="47.32404" lon="6.8348">
        <ele>448.7</ele>
        <time>2021-08-12T07:28:14Z</time>
      </trkpt>
      <trkpt lat="47.32403" lon="6.83482">
        <ele>448.8</ele>
        <time>2021-08-12T07:28:15Z</time>
      </trkpt>
      <trkpt lat="47.32402" lon="6.83482">
        <ele>448.8</ele>
        <time>2021-08-12T07:28:16Z</time>
      </trkpt>
      <trkpt lat="47.32402" lon="6.83484">
        <ele>448.9</ele>
        <time>2021-08-12T07:28:18Z</time>
      </trkpt>
      <trkpt lat="47.32401" lon="6.83485">
        <ele>448.9</ele>
        <time>2021-08-12T07:28:19Z</time>
      </trkpt>
      <trkpt lat="47.324" lon="6.83489">
        <ele>449</ele>
        <time>2021-08-12T07:28:20Z</time>
      </trkpt>
      <trkpt lat="47.32398" lon="6.83492">
        <ele>449.2</ele>
        <time>2021-08-12T07:28:21Z</time>
      </trkpt>
      <trkpt lat="47.32398" lon="6.83493">
        <ele>449.2</ele>
        <time>2021-08-12T07:28:22Z</time>
      </trkpt>
      <trkpt lat="47.32398" lon="6.83495">
        <ele>449.2</ele>
        <time>2021-08-12T07:28:23Z</time>
      </trkpt>
      <trkpt lat="47.32396" lon="6.83498">
        <ele>449.4</ele>
        <time>2021-08-12T07:28:25Z</time>
      </trkpt>
      <trkpt lat="47.32395" lon="6.83501">
        <ele>449.5</ele>
        <time>2021-08-12T07:28:26Z</time>
      </trkpt>
      <trkpt lat="47.32394" lon="6.83503">
        <ele>449.6</ele>
        <time>2021-08-12T07:28:27Z</time>
      </trkpt>
      <trkpt lat="47.32393" lon="6.8351">
        <ele>449.8</ele>
        <time>2021-08-12T07:28:28Z</time>
      </trkpt>
      <trkpt lat="47.32393" lon="6.83516">
        <ele>450</ele>
        <time>2021-08-12T07:28:30Z</time>
      </trkpt>
      <trkpt lat="47.32392" lon="6.83518">
        <ele>450</ele>
        <time>2021-08-12T07:28:31Z</time>
      </trkpt>
      <trkpt lat="47.32391" lon="6.83521">
        <ele>450.2</ele>
        <time>2021-08-12T07:28:33Z</time>
      </trkpt>
      <trkpt lat="47.32389" lon="6.83523">
        <ele>450.3</ele>
        <time>2021-08-12T07:28:34Z</time>
      </trkpt>
      <trkpt lat="47.32386" lon="6.83526">
        <ele>450.4</ele>
        <time>2021-08-12T07:28:36Z</time>
      </trkpt>
      <trkpt lat="47.32384" lon="6.83528">
        <ele>450.5</ele>
        <time>2021-08-12T07:28:37Z</time>
      </trkpt>
      <trkpt lat="47.32381" lon="6.83529">
        <ele>450.7</ele>
        <time>2021-08-12T07:28:39Z</time>
      </trkpt>
      <trkpt lat="47.32378" lon="6.83529">
        <ele>450.8</ele>
        <time>2021-08-12T07:28:40Z</time>
      </trkpt>
      <trkpt lat="47.32377" lon="6.83529">
        <ele>450.8</ele>
        <time>2021-08-12T07:28:41Z</time>
      </trkpt>
      <trkpt lat="47.32375" lon="6.8353">
        <ele>450.9</ele>
        <time>2021-08-12T07:28:42Z</time>
      </trkpt>
      <trkpt lat="47.32374" lon="6.83531">
        <ele>451</ele>
        <time>2021-08-12T07:28:43Z</time>
      </trkpt>
      <trkpt lat="47.32372" lon="6.83533">
        <ele>451.1</ele>
        <time>2021-08-12T07:28:45Z</time>
      </trkpt>
      <trkpt lat="47.3237" lon="6.83534">
        <ele>451.2</ele>
        <time>2021-08-12T07:28:46Z</time>
      </trkpt>
      <trkpt lat="47.32368" lon="6.83535">
        <ele>451.2</ele>
        <time>2021-08-12T07:28:48Z</time>
      </trkpt>
      <trkpt lat="47.32367" lon="6.83535">
        <ele>451.3</ele>
        <time>2021-08-12T07:28:49Z</time>
      </trkpt>
      <trkpt lat="47.32365" lon="6.83535">
        <ele>451.4</ele>
        <time>2021-08-12T07:28:51Z</time>
      </trkpt>
      <trkpt lat="47.32364" lon="6.83535">
        <ele>451.4</ele>
        <time>2021-08-12T07:28:52Z</time>
      </trkpt>
      <trkpt lat="47.32362" lon="6.83535">
        <ele>451.5</ele>
        <time>2021-08-12T07:28:53Z</time>
      </trkpt>
      <trkpt lat="47.32361" lon="6.83536">
        <ele>451.6</ele>
        <time>2021-08-12T07:28:55Z</time>
      </trkpt>
      <trkpt lat="47.32359" lon="6.83539">
        <ele>451.7</ele>
        <time>2021-08-12T07:28:57Z</time>
      </trkpt>
      <trkpt lat="47.32358" lon="6.83542">
        <ele>451.8</ele>
        <time>2021-08-12T07:28:59Z</time>
      </trkpt>
      <trkpt lat="47.32359" lon="6.83541">
        <ele>451.8</ele>
        <time>2021-08-12T07:29:00Z</time>
      </trkpt>
      <trkpt lat="47.32359" lon="6.83541">
        <ele>451.8</ele>
        <time>2021-08-12T07:29:02Z</time>
      </trkpt>
      <trkpt lat="47.32358" lon="6.83539">
        <ele>451.8</ele>
        <time>2021-08-12T07:29:03Z</time>
      </trkpt>
      <trkpt lat="47.32358" lon="6.83539">
        <ele>451.9</ele>
        <time>2021-08-12T07:29:04Z</time>
      </trkpt>
      <trkpt lat="47.32358" lon="6.83537">
        <ele>451.9</ele>
        <time>2021-08-12T07:29:06Z</time>
      </trkpt>
      <trkpt lat="47.32358" lon="6.83537">
        <ele>451.9</ele>
        <time>2021-08-12T07:29:07Z</time>
      </trkpt>
      <trkpt lat="47.32358" lon="6.83536">
        <ele>452</ele>
        <time>2021-08-12T07:29:09Z</time>
      </trkpt>
      <trkpt lat="47.32358" lon="6.83535">
        <ele>452</ele>
        <time>2021-08-12T07:29:11Z</time>
      </trkpt>
      <trkpt lat="47.32358" lon="6.83535">
        <ele>452</ele>
        <time>2021-08-12T07:29:12Z</time>
      </trkpt>
      <trkpt lat="47.3233" lon="6.83549">
        <ele>453.4</ele>
        <time>2021-08-12T07:31:18Z</time>
      </trkpt>
      <trkpt lat="47.32327" lon="6.83552">
        <ele>453.6</ele>
        <time>2021-08-12T07:31:19Z</time>
      </trkpt>
      <trkpt lat="47.32322" lon="6.83559">
        <ele>453.9</ele>
        <time>2021-08-12T07:31:21Z</time>
      </trkpt>
      <trkpt lat="47.32318" lon="6.83565">
        <ele>454.1</ele>
        <time>2021-08-12T07:31:23Z</time>
      </trkpt>
      <trkpt lat="47.32315" lon="6.83567">
        <ele>454.3</ele>
        <time>2021-08-12T07:31:24Z</time>
      </trkpt>
      <trkpt lat="47.32313" lon="6.83569">
        <ele>454.4</ele>
        <time>2021-08-12T07:31:25Z</time>
      </trkpt>
      <trkpt lat="47.32309" lon="6.83572">
        <ele>454.6</ele>
        <time>2021-08-12T07:31:26Z</time>
      </trkpt>
      <trkpt lat="47.32308" lon="6.83573">
        <ele>454.7</ele>
        <time>2021-08-12T07:31:27Z</time>
      </trkpt>
      <trkpt lat="47.32305" lon="6.83576">
        <ele>454.8</ele>
        <time>2021-08-12T07:31:28Z</time>
      </trkpt>
      <trkpt lat="47.32302" lon="6.83577">
        <ele>455</ele>
        <time>2021-08-12T07:31:29Z</time>
      </trkpt>
      <trkpt lat="47.32298" lon="6.83579">
        <ele>455.1</ele>
        <time>2021-08-12T07:31:31Z</time>
      </trkpt>
      <trkpt lat="47.32294" lon="6.8358">
        <ele>455.3</ele>
        <time>2021-08-12T07:31:32Z</time>
      </trkpt>
      <trkpt lat="47.32293" lon="6.8358">
        <ele>455.4</ele>
        <time>2021-08-12T07:31:33Z</time>
      </trkpt>
      <trkpt lat="47.32291" lon="6.83582">
        <ele>455.5</ele>
        <time>2021-08-12T07:31:34Z</time>
      </trkpt>
      <trkpt lat="47.32289" lon="6.83584">
        <ele>455.6</ele>
        <time>2021-08-12T07:31:36Z</time>
      </trkpt>
      <trkpt lat="47.32286" lon="6.83586">
        <ele>455.7</ele>
        <time>2021-08-12T07:31:37Z</time>
      </trkpt>
      <trkpt lat="47.32285" lon="6.83586">
        <ele>455.8</ele>
        <time>2021-08-12T07:31:38Z</time>
      </trkpt>
      <trkpt lat="47.32282" lon="6.83587">
        <ele>455.9</ele>
        <time>2021-08-12T07:31:40Z</time>
      </trkpt>
      <trkpt lat="47.32281" lon="6.83588">
        <ele>455.9</ele>
        <time>2021-08-12T07:31:41Z</time>
      </trkpt>
      <trkpt lat="47.32277" lon="6.83589">
        <ele>456.1</ele>
        <time>2021-08-12T07:31:42Z</time>
      </trkpt>
      <trkpt lat="47.32276" lon="6.8359">
        <ele>456.1</ele>
        <time>2021-08-12T07:31:43Z</time>
      </trkpt>
      <trkpt lat="47.32272" lon="6.83596">
        <ele>456.3</ele>
        <time>2021-08-12T07:31:45Z</time>
      </trkpt>
      <trkpt lat="47.3227" lon="6.83598">
        <ele>456.4</ele>
        <time>2021-08-12T07:31:46Z</time>
      </trkpt>
      <trkpt lat="47.32269" lon="6.836">
        <ele>456.5</ele>
        <time>2021-08-12T07:31:47Z</time>
      </trkpt>
      <trkpt lat="47.32267" lon="6.83604">
        <ele>456.6</ele>
        <time>2021-08-12T07:31:49Z</time>
      </trkpt>
      <trkpt lat="47.32265" lon="6.83608">
        <ele>456.7</ele>
        <time>2021-08-12T07:31:50Z</time>
      </trkpt>
      <trkpt lat="47.32262" lon="6.83613">
        <ele>456.8</ele>
        <time>2021-08-12T07:31:51Z</time>
      </trkpt>
      <trkpt lat="47.3226" lon="6.83619">
        <ele>457</ele>
        <time>2021-08-12T07:31:53Z</time>
      </trkpt>
      <trkpt lat="47.32258" lon="6.83621">
        <ele>457.1</ele>
        <time>2021-08-12T07:31:54Z</time>
      </trkpt>
      <trkpt lat="47.32257" lon="6.83623">
        <ele>457.1</ele>
        <time>2021-08-12T07:31:55Z</time>
      </trkpt>
      <trkpt lat="47.32257" lon="6.83625">
        <ele>457.2</ele>
        <time>2021-08-12T07:31:56Z</time>
      </trkpt>
      <trkpt lat="47.32256" lon="6.83629">
        <ele>457.3</ele>
        <time>2021-08-12T07:31:58Z</time>
      </trkpt>
      <trkpt lat="47.32256" lon="6.83632">
        <ele>457.3</ele>
        <time>2021-08-12T07:31:59Z</time>
      </trkpt>
      <trkpt lat="47.32255" lon="6.83634">
        <ele>457.4</ele>
        <time>2021-08-12T07:32:00Z</time>
      </trkpt>
      <trkpt lat="47.32256" lon="6.83638">
        <ele>457.5</ele>
        <time>2021-08-12T07:32:01Z</time>
      </trkpt>
      <trkpt lat="47.32256" lon="6.83643">
        <ele>457.6</ele>
        <time>2021-08-12T07:32:03Z</time>
      </trkpt>
      <trkpt lat="47.32257" lon="6.83648">
        <ele>457.7</ele>
        <time>2021-08-12T07:32:04Z</time>
      </trkpt>
      <trkpt lat="47.32257" lon="6.8365">
        <ele>457.7</ele>
        <time>2021-08-12T07:32:05Z</time>
      </trkpt>
      <trkpt lat="47.32257" lon="6.83655">
        <ele>457.9</ele>
        <time>2021-08-12T07:32:06Z</time>
      </trkpt>
      <trkpt lat="47.32258" lon="6.83657">
        <ele>457.9</ele>
        <time>2021-08-12T07:32:07Z</time>
      </trkpt>
      <trkpt lat="47.32257" lon="6.83662">
        <ele>458</ele>
        <time>2021-08-12T07:32:09Z</time>
      </trkpt>
      <trkpt lat="47.32256" lon="6.83667">
        <ele>458.1</ele>
        <time>2021-08-12T07:32:10Z</time>
      </trkpt>
      <trkpt lat="47.32256" lon="6.83669">
        <ele>458.2</ele>
        <time>2021-08-12T07:32:11Z</time>
      </trkpt>
      <trkpt lat="47.32256" lon="6.83672">
        <ele>458.3</ele>
        <time>2021-08-12T07:32:12Z</time>
      </trkpt>
      <trkpt lat="47.32258" lon="6.83678">
        <ele>458.4</ele>
        <time>2021-08-12T07:32:14Z</time>
      </trkpt>
      <trkpt lat="47.32257" lon="6.83682">
        <ele>458.5</ele>
        <time>2021-08-12T07:32:15Z</time>
      </trkpt>
      <trkpt lat="47.32257" lon="6.83683">
        <ele>458.5</ele>
        <time>2021-08-12T07:32:16Z</time>
      </trkpt>
      <trkpt lat="47.32255" lon="6.83688">
        <ele>458.6</ele>
        <time>2021-08-12T07:32:17Z</time>
      </trkpt>
      <trkpt lat="47.32255" lon="6.83689">
        <ele>458.6</ele>
        <time>2021-08-12T07:32:18Z</time>
      </trkpt>
      <trkpt lat="47.32254" lon="6.83691">
        <ele>458.7</ele>
        <time>2021-08-12T07:32:19Z</time>
      </trkpt>
      <trkpt lat="47.32255" lon="6.83694">
        <ele>458.7</ele>
        <time>2021-08-12T07:32:20Z</time>
      </trkpt>
      <trkpt lat="47.32256" lon="6.83696">
        <ele>458.8</ele>
        <time>2021-08-12T07:32:21Z</time>
      </trkpt>
      <trkpt lat="47.32257" lon="6.83698">
        <ele>458.8</ele>
        <time>2021-08-12T07:32:22Z</time>
      </trkpt>
      <trkpt lat="47.32257" lon="6.83698">
        <ele>458.8</ele>
        <time>2021-08-12T07:32:23Z</time>
      </trkpt>
      <trkpt lat="47.32259" lon="6.83699">
        <ele>458.9</ele>
        <time>2021-08-12T07:32:25Z</time>
      </trkpt>
      <trkpt lat="47.32261" lon="6.83703">
        <ele>459</ele>
        <time>2021-08-12T07:32:27Z</time>
      </trkpt>
      <trkpt lat="47.32263" lon="6.83707">
        <ele>459.1</ele>
        <time>2021-08-12T07:32:28Z</time>
      </trkpt>
      <trkpt lat="47.32265" lon="6.8371">
        <ele>459.2</ele>
        <time>2021-08-12T07:32:29Z</time>
      </trkpt>
      <trkpt lat="47.32266" lon="6.83716">
        <ele>459.3</ele>
        <time>2021-08-12T07:32:31Z</time>
      </trkpt>
      <trkpt lat="47.32269" lon="6.83724">
        <ele>459.5</ele>
        <time>2021-08-12T07:32:32Z</time>
      </trkpt>
      <trkpt lat="47.32271" lon="6.8373">
        <ele>459.7</ele>
        <time>2021-08-12T07:32:34Z</time>
      </trkpt>
      <trkpt lat="47.32273" lon="6.83739">
        <ele>459.9</ele>
        <time>2021-08-12T07:32:35Z</time>
      </trkpt>
      <trkpt lat="47.32275" lon="6.83745">
        <ele>460</ele>
        <time>2021-08-12T07:32:37Z</time>
      </trkpt>
      <trkpt lat="47.32276" lon="6.8375">
        <ele>460.2</ele>
        <time>2021-08-12T07:32:38Z</time>
      </trkpt>
      <trkpt lat="47.32277" lon="6.83754">
        <ele>460.3</ele>
        <time>2021-08-12T07:32:39Z</time>
      </trkpt>
      <trkpt lat="47.32278" lon="6.83761">
        <ele>460.4</ele>
        <time>2021-08-12T07:32:41Z</time>
      </trkpt>
      <trkpt lat="47.32278" lon="6.83764">
        <ele>460.5</ele>
        <time>2021-08-12T07:32:42Z</time>
      </trkpt>
      <trkpt lat="47.32276" lon="6.83769">
        <ele>460.7</ele>
        <time>2021-08-12T07:32:44Z</time>
      </trkpt>
      <trkpt lat="47.32275" lon="6.83774">
        <ele>460.9</ele>
        <time>2021-08-12T07:32:46Z</time>
      </trkpt>
      <trkpt lat="47.32275" lon="6.83779">
        <ele>461</ele>
        <time>2021-08-12T07:32:48Z</time>
      </trkpt>
      <trkpt lat="47.32275" lon="6.83782">
        <ele>461.1</ele>
        <time>2021-08-12T07:32:49Z</time>
      </trkpt>
      <trkpt lat="47.32275" lon="6.83788">
        <ele>461.4</ele>
        <time>2021-08-12T07:32:51Z</time>
      </trkpt>
      <trkpt lat="47.32278" lon="6.83793">
        <ele>461.6</ele>
        <time>2021-08-12T07:32:53Z</time>
      </trkpt>
      <trkpt lat="47.32279" lon="6.83799">
        <ele>461.9</ele>
        <time>2021-08-12T07:32:55Z</time>
      </trkpt>
      <trkpt lat="47.32279" lon="6.83805">
        <ele>462.1</ele>
        <time>2021-08-12T07:32:57Z</time>
      </trkpt>
      <trkpt lat="47.32278" lon="6.83811">
        <ele>462.3</ele>
        <time>2021-08-12T07:32:59Z</time>
      </trkpt>
      <trkpt lat="47.3228" lon="6.83815">
        <ele>462.4</ele>
        <time>2021-08-12T07:33:01Z</time>
      </trkpt>
      <trkpt lat="47.3228" lon="6.83817">
        <ele>462.5</ele>
        <time>2021-08-12T07:33:02Z</time>
      </trkpt>
      <trkpt lat="47.3228" lon="6.8382">
        <ele>462.6</ele>
        <time>2021-08-12T07:33:04Z</time>
      </trkpt>
      <trkpt lat="47.32281" lon="6.83823">
        <ele>462.7</ele>
        <time>2021-08-12T07:33:05Z</time>
      </trkpt>
      <trkpt lat="47.32282" lon="6.83826">
        <ele>462.9</ele>
        <time>2021-08-12T07:33:07Z</time>
      </trkpt>
      <trkpt lat="47.32282" lon="6.83828">
        <ele>462.9</ele>
        <time>2021-08-12T07:33:08Z</time>
      </trkpt>
      <trkpt lat="47.32283" lon="6.83832">
        <ele>463.1</ele>
        <time>2021-08-12T07:33:10Z</time>
      </trkpt>
      <trkpt lat="47.32284" lon="6.83834">
        <ele>463.2</ele>
        <time>2021-08-12T07:33:11Z</time>
      </trkpt>
      <trkpt lat="47.32285" lon="6.83837">
        <ele>463.3</ele>
        <time>2021-08-12T07:33:12Z</time>
      </trkpt>
      <trkpt lat="47.32286" lon="6.8384">
        <ele>463.5</ele>
        <time>2021-08-12T07:33:13Z</time>
      </trkpt>
      <trkpt lat="47.32287" lon="6.83842">
        <ele>463.6</ele>
        <time>2021-08-12T07:33:14Z</time>
      </trkpt>
      <trkpt lat="47.32286" lon="6.83846">
        <ele>463.8</ele>
        <time>2021-08-12T07:33:16Z</time>
      </trkpt>
      <trkpt lat="47.32285" lon="6.83848">
        <ele>463.8</ele>
        <time>2021-08-12T07:33:17Z</time>
      </trkpt>
      <trkpt lat="47.32284" lon="6.83849">
        <ele>463.9</ele>
        <time>2021-08-12T07:33:18Z</time>
      </trkpt>
      <trkpt lat="47.32283" lon="6.83851">
        <ele>464</ele>
        <time>2021-08-12T07:33:19Z</time>
      </trkpt>
      <trkpt lat="47.32283" lon="6.83852">
        <ele>464.1</ele>
        <time>2021-08-12T07:33:20Z</time>
      </trkpt>
      <trkpt lat="47.32283" lon="6.83852">
        <ele>464.1</ele>
        <time>2021-08-12T07:33:21Z</time>
      </trkpt>
      <trkpt lat="47.32284" lon="6.83858">
        <ele>464.3</ele>
        <time>2021-08-12T07:33:23Z</time>
      </trkpt>
      <trkpt lat="47.32284" lon="6.83863">
        <ele>464.5</ele>
        <time>2021-08-12T07:33:25Z</time>
      </trkpt>
      <trkpt lat="47.32284" lon="6.83869">
        <ele>464.8</ele>
        <time>2021-08-12T07:33:27Z</time>
      </trkpt>
      <trkpt lat="47.32284" lon="6.83871">
        <ele>464.9</ele>
        <time>2021-08-12T07:33:28Z</time>
      </trkpt>
      <trkpt lat="47.32284" lon="6.83873">
        <ele>465</ele>
        <time>2021-08-12T07:33:29Z</time>
      </trkpt>
      <trkpt lat="47.32285" lon="6.83878">
        <ele>465.2</ele>
        <time>2021-08-12T07:33:31Z</time>
      </trkpt>
      <trkpt lat="47.32286" lon="6.8388">
        <ele>465.3</ele>
        <time>2021-08-12T07:33:32Z</time>
      </trkpt>
      <trkpt lat="47.32286" lon="6.83882">
        <ele>465.4</ele>
        <time>2021-08-12T07:33:33Z</time>
      </trkpt>
      <trkpt lat="47.32285" lon="6.83884">
        <ele>465.5</ele>
        <time>2021-08-12T07:33:35Z</time>
      </trkpt>
      <trkpt lat="47.32285" lon="6.83885">
        <ele>465.5</ele>
        <time>2021-08-12T07:33:36Z</time>
      </trkpt>
      <trkpt lat="47.32285" lon="6.83886">
        <ele>465.6</ele>
        <time>2021-08-12T07:33:37Z</time>
      </trkpt>
      <trkpt lat="47.32284" lon="6.83887">
        <ele>465.6</ele>
        <time>2021-08-12T07:33:39Z</time>
      </trkpt>
      <trkpt lat="47.32284" lon="6.83889">
        <ele>465.7</ele>
        <time>2021-08-12T07:33:40Z</time>
      </trkpt>
      <trkpt lat="47.32282" lon="6.83891">
        <ele>465.8</ele>
        <time>2021-08-12T07:33:41Z</time>
      </trkpt>
      <trkpt lat="47.32282" lon="6.83893">
        <ele>465.9</ele>
        <time>2021-08-12T07:33:42Z</time>
      </trkpt>
      <trkpt lat="47.32281" lon="6.83896">
        <ele>466.1</ele>
        <time>2021-08-12T07:33:44Z</time>
      </trkpt>
      <trkpt lat="47.32279" lon="6.83901">
        <ele>466.3</ele>
        <time>2021-08-12T07:33:46Z</time>
      </trkpt>
      <trkpt lat="47.32279" lon="6.83902">
        <ele>466.3</ele>
        <time>2021-08-12T07:33:47Z</time>
      </trkpt>
      <trkpt lat="47.32279" lon="6.83905">
        <ele>466.4</ele>
        <time>2021-08-12T07:33:49Z</time>
      </trkpt>
      <trkpt lat="47.32279" lon="6.83907">
        <ele>466.5</ele>
        <time>2021-08-12T07:33:50Z</time>
      </trkpt>
      <trkpt lat="47.32279" lon="6.83909">
        <ele>466.6</ele>
        <time>2021-08-12T07:33:52Z</time>
      </trkpt>
      <trkpt lat="47.32279" lon="6.83911">
        <ele>466.6</ele>
        <time>2021-08-12T07:33:53Z</time>
      </trkpt>
      <trkpt lat="47.32279" lon="6.83912">
        <ele>466.7</ele>
        <time>2021-08-12T07:33:54Z</time>
      </trkpt>
      <trkpt lat="47.32279" lon="6.83917">
        <ele>466.9</ele>
        <time>2021-08-12T07:33:55Z</time>
      </trkpt>
      <trkpt lat="47.32279" lon="6.83919">
        <ele>466.9</ele>
        <time>2021-08-12T07:33:56Z</time>
      </trkpt>
      <trkpt lat="47.32279" lon="6.83925">
        <ele>467.1</ele>
        <time>2021-08-12T07:33:57Z</time>
      </trkpt>
      <trkpt lat="47.32278" lon="6.83928">
        <ele>467.2</ele>
        <time>2021-08-12T07:33:58Z</time>
      </trkpt>
      <trkpt lat="47.32276" lon="6.83933">
        <ele>467.5</ele>
        <time>2021-08-12T07:34:00Z</time>
      </trkpt>
      <trkpt lat="47.32275" lon="6.83938">
        <ele>467.6</ele>
        <time>2021-08-12T07:34:01Z</time>
      </trkpt>
      <trkpt lat="47.32273" lon="6.8394">
        <ele>467.7</ele>
        <time>2021-08-12T07:34:03Z</time>
      </trkpt>
      <trkpt lat="47.32272" lon="6.83942">
        <ele>467.8</ele>
        <time>2021-08-12T07:34:04Z</time>
      </trkpt>
      <trkpt lat="47.32271" lon="6.83943">
        <ele>467.9</ele>
        <time>2021-08-12T07:34:05Z</time>
      </trkpt>
      <trkpt lat="47.32269" lon="6.83947">
        <ele>468.1</ele>
        <time>2021-08-12T07:34:06Z</time>
      </trkpt>
      <trkpt lat="47.32268" lon="6.83948">
        <ele>468.1</ele>
        <time>2021-08-12T07:34:07Z</time>
      </trkpt>
      <trkpt lat="47.32266" lon="6.83951">
        <ele>468.3</ele>
        <time>2021-08-12T07:34:09Z</time>
      </trkpt>
      <trkpt lat="47.32264" lon="6.83952">
        <ele>468.4</ele>
        <time>2021-08-12T07:34:10Z</time>
      </trkpt>
      <trkpt lat="47.32262" lon="6.83957">
        <ele>468.6</ele>
        <time>2021-08-12T07:34:12Z</time>
      </trkpt>
      <trkpt lat="47.32263" lon="6.83966">
        <ele>469</ele>
        <time>2021-08-12T07:34:13Z</time>
      </trkpt>
      <trkpt lat="47.32263" lon="6.83971">
        <ele>469.2</ele>
        <time>2021-08-12T07:34:14Z</time>
      </trkpt>
      <trkpt lat="47.32262" lon="6.83976">
        <ele>469.4</ele>
        <time>2021-08-12T07:34:16Z</time>
      </trkpt>
      <trkpt lat="47.32262" lon="6.83978">
        <ele>469.5</ele>
        <time>2021-08-12T07:34:17Z</time>
      </trkpt>
      <trkpt lat="47.32261" lon="6.83983">
        <ele>469.7</ele>
        <time>2021-08-12T07:34:18Z</time>
      </trkpt>
      <trkpt lat="47.32261" lon="6.83984">
        <ele>469.8</ele>
        <time>2021-08-12T07:34:19Z</time>
      </trkpt>
      <trkpt lat="47.32261" lon="6.83984">
        <ele>469.8</ele>
        <time>2021-08-12T07:34:20Z</time>
      </trkpt>
      <trkpt lat="47.32261" lon="6.83982">
        <ele>469.9</ele>
        <time>2021-08-12T07:34:21Z</time>
      </trkpt>
      <trkpt lat="47.3226" lon="6.83982">
        <ele>469.9</ele>
        <time>2021-08-12T07:34:23Z</time>
      </trkpt>
      <trkpt lat="47.3226" lon="6.83983">
        <ele>469.9</ele>
        <time>2021-08-12T07:34:24Z</time>
      </trkpt>
      <trkpt lat="47.32259" lon="6.83983">
        <ele>470</ele>
        <time>2021-08-12T07:34:25Z</time>
      </trkpt>
      <trkpt lat="47.32257" lon="6.83984">
        <ele>470.1</ele>
        <time>2021-08-12T07:34:26Z</time>
      </trkpt>
      <trkpt lat="47.32256" lon="6.83985">
        <ele>470.2</ele>
        <time>2021-08-12T07:34:28Z</time>
      </trkpt>
      <trkpt lat="47.32251" lon="6.83988">
        <ele>470.6</ele>
        <time>2021-08-12T07:34:31Z</time>
      </trkpt>
      <trkpt lat="47.32246" lon="6.8399">
        <ele>470.9</ele>
        <time>2021-08-12T07:34:32Z</time>
      </trkpt>
      <trkpt lat="47.32244" lon="6.83991">
        <ele>471.1</ele>
        <time>2021-08-12T07:34:34Z</time>
      </trkpt>
      <trkpt lat="47.32243" lon="6.8399">
        <ele>471.1</ele>
        <time>2021-08-12T07:34:35Z</time>
      </trkpt>
      <trkpt lat="47.32239" lon="6.8399">
        <ele>471.4</ele>
        <time>2021-08-12T07:34:37Z</time>
      </trkpt>
      <trkpt lat="47.32238" lon="6.83991">
        <ele>471.4</ele>
        <time>2021-08-12T07:34:38Z</time>
      </trkpt>
      <trkpt lat="47.32235" lon="6.83991">
        <ele>471.7</ele>
        <time>2021-08-12T07:34:39Z</time>
      </trkpt>
      <trkpt lat="47.32233" lon="6.83991">
        <ele>471.8</ele>
        <time>2021-08-12T07:34:40Z</time>
      </trkpt>
      <trkpt lat="47.32229" lon="6.8399">
        <ele>472</ele>
        <time>2021-08-12T07:34:42Z</time>
      </trkpt>
      <trkpt lat="47.32226" lon="6.83989">
        <ele>472.2</ele>
        <time>2021-08-12T07:34:43Z</time>
      </trkpt>
      <trkpt lat="47.32225" lon="6.83988">
        <ele>472.3</ele>
        <time>2021-08-12T07:34:44Z</time>
      </trkpt>
      <trkpt lat="47.32222" lon="6.83987">
        <ele>472.5</ele>
        <time>2021-08-12T07:34:45Z</time>
      </trkpt>
      <trkpt lat="47.32219" lon="6.83982">
        <ele>472.8</ele>
        <time>2021-08-12T07:34:47Z</time>
      </trkpt>
      <trkpt lat="47.32217" lon="6.8398">
        <ele>473</ele>
        <time>2021-08-12T07:34:48Z</time>
      </trkpt>
      <trkpt lat="47.32216" lon="6.83978">
        <ele>473.1</ele>
        <time>2021-08-12T07:34:49Z</time>
      </trkpt>
      <trkpt lat="47.32212" lon="6.83972">
        <ele>473.5</ele>
        <time>2021-08-12T07:34:50Z</time>
      </trkpt>
      <trkpt lat="47.3221" lon="6.83968">
        <ele>473.7</ele>
        <time>2021-08-12T07:34:52Z</time>
      </trkpt>
      <trkpt lat="47.32208" lon="6.83965">
        <ele>473.9</ele>
        <time>2021-08-12T07:34:53Z</time>
      </trkpt>
      <trkpt lat="47.32206" lon="6.83959">
        <ele>474.3</ele>
        <time>2021-08-12T07:34:55Z</time>
      </trkpt>
      <trkpt lat="47.32205" lon="6.83953">
        <ele>474.6</ele>
        <time>2021-08-12T07:34:57Z</time>
      </trkpt>
      <trkpt lat="47.32205" lon="6.83951">
        <ele>474.7</ele>
        <time>2021-08-12T07:34:58Z</time>
      </trkpt>
      <trkpt lat="47.32205" lon="6.83949">
        <ele>474.7</ele>
        <time>2021-08-12T07:34:59Z</time>
      </trkpt>
      <trkpt lat="47.32207" lon="6.83943">
        <ele>475</ele>
        <time>2021-08-12T07:35:01Z</time>
      </trkpt>
      <trkpt lat="47.32208" lon="6.83939">
        <ele>475.2</ele>
        <time>2021-08-12T07:35:02Z</time>
      </trkpt>
      <trkpt lat="47.32208" lon="6.83938">
        <ele>475.3</ele>
        <time>2021-08-12T07:35:03Z</time>
      </trkpt>
      <trkpt lat="47.32209" lon="6.83934">
        <ele>475.4</ele>
        <time>2021-08-12T07:35:05Z</time>
      </trkpt>
      <trkpt lat="47.3221" lon="6.8393">
        <ele>475.6</ele>
        <time>2021-08-12T07:35:07Z</time>
      </trkpt>
      <trkpt lat="47.32211" lon="6.83928">
        <ele>475.7</ele>
        <time>2021-08-12T07:35:08Z</time>
      </trkpt>
      <trkpt lat="47.32211" lon="6.83926">
        <ele>475.8</ele>
        <time>2021-08-12T07:35:09Z</time>
      </trkpt>
      <trkpt lat="47.32211" lon="6.83923">
        <ele>476</ele>
        <time>2021-08-12T07:35:10Z</time>
      </trkpt>
      <trkpt lat="47.3221" lon="6.83921">
        <ele>476.1</ele>
        <time>2021-08-12T07:35:11Z</time>
      </trkpt>
      <trkpt lat="47.32207" lon="6.83916">
        <ele>476.3</ele>
        <time>2021-08-12T07:35:12Z</time>
      </trkpt>
      <trkpt lat="47.32206" lon="6.83915">
        <ele>476.4</ele>
        <time>2021-08-12T07:35:13Z</time>
      </trkpt>
      <trkpt lat="47.32202" lon="6.83911">
        <ele>476.7</ele>
        <time>2021-08-12T07:35:14Z</time>
      </trkpt>
      <trkpt lat="47.32201" lon="6.83909">
        <ele>476.8</ele>
        <time>2021-08-12T07:35:15Z</time>
      </trkpt>
      <trkpt lat="47.32196" lon="6.83904">
        <ele>477.2</ele>
        <time>2021-08-12T07:35:18Z</time>
      </trkpt>
      <trkpt lat="47.32195" lon="6.839">
        <ele>477.4</ele>
        <time>2021-08-12T07:35:19Z</time>
      </trkpt>
      <trkpt lat="47.32193" lon="6.83895">
        <ele>477.6</ele>
        <time>2021-08-12T07:35:21Z</time>
      </trkpt>
      <trkpt lat="47.32191" lon="6.83892">
        <ele>477.8</ele>
        <time>2021-08-12T07:35:22Z</time>
      </trkpt>
      <trkpt lat="47.32189" lon="6.83888">
        <ele>477.9</ele>
        <time>2021-08-12T07:35:24Z</time>
      </trkpt>
      <trkpt lat="47.32188" lon="6.83886">
        <ele>478</ele>
        <time>2021-08-12T07:35:25Z</time>
      </trkpt>
      <trkpt lat="47.32188" lon="6.83885">
        <ele>478.1</ele>
        <time>2021-08-12T07:35:27Z</time>
      </trkpt>
      <trkpt lat="47.32187" lon="6.83884">
        <ele>478.1</ele>
        <time>2021-08-12T07:35:28Z</time>
      </trkpt>
      <trkpt lat="47.32187" lon="6.83883">
        <ele>478.2</ele>
        <time>2021-08-12T07:35:29Z</time>
      </trkpt>
      <trkpt lat="47.32187" lon="6.83881">
        <ele>478.3</ele>
        <time>2021-08-12T07:35:30Z</time>
      </trkpt>
      <trkpt lat="47.32186" lon="6.83877">
        <ele>478.4</ele>
        <time>2021-08-12T07:35:32Z</time>
      </trkpt>
      <trkpt lat="47.32186" lon="6.83874">
        <ele>478.5</ele>
        <time>2021-08-12T07:35:33Z</time>
      </trkpt>
      <trkpt lat="47.32186" lon="6.83873">
        <ele>478.6</ele>
        <time>2021-08-12T07:35:34Z</time>
      </trkpt>
      <trkpt lat="47.32186" lon="6.83871">
        <ele>478.7</ele>
        <time>2021-08-12T07:35:35Z</time>
      </trkpt>
      <trkpt lat="47.32185" lon="6.83869">
        <ele>478.8</ele>
        <time>2021-08-12T07:35:36Z</time>
      </trkpt>
      <trkpt lat="47.32185" lon="6.83864">
        <ele>479.1</ele>
        <time>2021-08-12T07:35:38Z</time>
      </trkpt>
      <trkpt lat="47.32187" lon="6.83857">
        <ele>479.5</ele>
        <time>2021-08-12T07:35:40Z</time>
      </trkpt>
      <trkpt lat="47.32187" lon="6.83852">
        <ele>479.7</ele>
        <time>2021-08-12T07:35:42Z</time>
      </trkpt>
      <trkpt lat="47.32187" lon="6.8385">
        <ele>479.7</ele>
        <time>2021-08-12T07:35:43Z</time>
      </trkpt>
      <trkpt lat="47.32187" lon="6.83849">
        <ele>479.8</ele>
        <time>2021-08-12T07:35:44Z</time>
      </trkpt>
      <trkpt lat="47.32187" lon="6.83844">
        <ele>480.1</ele>
        <time>2021-08-12T07:35:46Z</time>
      </trkpt>
      <trkpt lat="47.32188" lon="6.83839">
        <ele>480.3</ele>
        <time>2021-08-12T07:35:48Z</time>
      </trkpt>
      <trkpt lat="47.32189" lon="6.83836">
        <ele>480.4</ele>
        <time>2021-08-12T07:35:49Z</time>
      </trkpt>
      <trkpt lat="47.32189" lon="6.83832">
        <ele>480.6</ele>
        <time>2021-08-12T07:35:51Z</time>
      </trkpt>
      <trkpt lat="47.32189" lon="6.83827">
        <ele>480.9</ele>
        <time>2021-08-12T07:35:53Z</time>
      </trkpt>
      <trkpt lat="47.3219" lon="6.83822">
        <ele>481.1</ele>
        <time>2021-08-12T07:35:55Z</time>
      </trkpt>
      <trkpt lat="47.32191" lon="6.83819">
        <ele>481.3</ele>
        <time>2021-08-12T07:35:56Z</time>
      </trkpt>
      <trkpt lat="47.32192" lon="6.83815">
        <ele>481.5</ele>
        <time>2021-08-12T07:35:58Z</time>
      </trkpt>
      <trkpt lat="47.32194" lon="6.83812">
        <ele>481.7</ele>
        <time>2021-08-12T07:35:59Z</time>
      </trkpt>
      <trkpt lat="47.32194" lon="6.83811">
        <ele>481.8</ele>
        <time>2021-08-12T07:36:00Z</time>
      </trkpt>
      <trkpt lat="47.32195" lon="6.8381">
        <ele>481.9</ele>
        <time>2021-08-12T07:36:02Z</time>
      </trkpt>
      <trkpt lat="47.32199" lon="6.83807">
        <ele>482.2</ele>
        <time>2021-08-12T07:36:04Z</time>
      </trkpt>
      <trkpt lat="47.32199" lon="6.83806">
        <ele>482.2</ele>
        <time>2021-08-12T07:36:05Z</time>
      </trkpt>
      <trkpt lat="47.322" lon="6.83804">
        <ele>482.3</ele>
        <time>2021-08-12T07:36:07Z</time>
      </trkpt>
      <trkpt lat="47.322" lon="6.83803">
        <ele>482.4</ele>
        <time>2021-08-12T07:36:08Z</time>
      </trkpt>
      <trkpt lat="47.322" lon="6.83794">
        <ele>482.9</ele>
        <time>2021-08-12T07:36:09Z</time>
      </trkpt>
      <trkpt lat="47.322" lon="6.83786">
        <ele>483.2</ele>
        <time>2021-08-12T07:36:11Z</time>
      </trkpt>
      <trkpt lat="47.322" lon="6.83779">
        <ele>483.6</ele>
        <time>2021-08-12T07:36:37Z</time>
      </trkpt>
      <trkpt lat="47.322" lon="6.83771">
        <ele>483.9</ele>
        <time>2021-08-12T07:36:39Z</time>
      </trkpt>
      <trkpt lat="47.322" lon="6.83764">
        <ele>484.3</ele>
        <time>2021-08-12T07:36:40Z</time>
      </trkpt>
      <trkpt lat="47.322" lon="6.83756">
        <ele>484.6</ele>
        <time>2021-08-12T07:36:41Z</time>
      </trkpt>
      <trkpt lat="47.32199" lon="6.83752">
        <ele>484.9</ele>
        <time>2021-08-12T07:36:43Z</time>
      </trkpt>
      <trkpt lat="47.32198" lon="6.83749">
        <ele>485</ele>
        <time>2021-08-12T07:36:44Z</time>
      </trkpt>
      <trkpt lat="47.32198" lon="6.83747">
        <ele>485.1</ele>
        <time>2021-08-12T07:36:45Z</time>
      </trkpt>
      <trkpt lat="47.32199" lon="6.8374">
        <ele>485.4</ele>
        <time>2021-08-12T07:36:47Z</time>
      </trkpt>
      <trkpt lat="47.322" lon="6.83737">
        <ele>485.6</ele>
        <time>2021-08-12T07:36:48Z</time>
      </trkpt>
      <trkpt lat="47.322" lon="6.83735">
        <ele>485.7</ele>
        <time>2021-08-12T07:36:49Z</time>
      </trkpt>
      <trkpt lat="47.322" lon="6.83734">
        <ele>485.8</ele>
        <time>2021-08-12T07:36:50Z</time>
      </trkpt>
      <trkpt lat="47.32201" lon="6.83732">
        <ele>485.9</ele>
        <time>2021-08-12T07:36:51Z</time>
      </trkpt>
      <trkpt lat="47.32202" lon="6.8373">
        <ele>486</ele>
        <time>2021-08-12T07:36:53Z</time>
      </trkpt>
      <trkpt lat="47.32203" lon="6.83727">
        <ele>486.1</ele>
        <time>2021-08-12T07:36:54Z</time>
      </trkpt>
      <trkpt lat="47.32203" lon="6.83725">
        <ele>486.2</ele>
        <time>2021-08-12T07:36:55Z</time>
      </trkpt>
      <trkpt lat="47.32203" lon="6.8372">
        <ele>486.4</ele>
        <time>2021-08-12T07:36:57Z</time>
      </trkpt>
      <trkpt lat="47.32203" lon="6.83719">
        <ele>486.5</ele>
        <time>2021-08-12T07:36:58Z</time>
      </trkpt>
      <trkpt lat="47.32204" lon="6.83717">
        <ele>486.6</ele>
        <time>2021-08-12T07:36:59Z</time>
      </trkpt>
      <trkpt lat="47.32205" lon="6.83716">
        <ele>486.7</ele>
        <time>2021-08-12T07:37:00Z</time>
      </trkpt>
      <trkpt lat="47.32205" lon="6.83714">
        <ele>486.8</ele>
        <time>2021-08-12T07:37:01Z</time>
      </trkpt>
      <trkpt lat="47.32206" lon="6.83712">
        <ele>486.9</ele>
        <time>2021-08-12T07:37:03Z</time>
      </trkpt>
      <trkpt lat="47.32207" lon="6.8371">
        <ele>487</ele>
        <time>2021-08-12T07:37:04Z</time>
      </trkpt>
      <trkpt lat="47.32207" lon="6.83709">
        <ele>487</ele>
        <time>2021-08-12T07:37:05Z</time>
      </trkpt>
      <trkpt lat="47.32208" lon="6.83706">
        <ele>487.2</ele>
        <time>2021-08-12T07:37:07Z</time>
      </trkpt>
      <trkpt lat="47.32209" lon="6.83699">
        <ele>487.5</ele>
        <time>2021-08-12T07:37:09Z</time>
      </trkpt>
      <trkpt lat="47.32209" lon="6.83697">
        <ele>487.6</ele>
        <time>2021-08-12T07:37:11Z</time>
      </trkpt>
      <trkpt lat="47.32209" lon="6.83695">
        <ele>487.7</ele>
        <time>2021-08-12T07:37:12Z</time>
      </trkpt>
      <trkpt lat="47.3221" lon="6.83693">
        <ele>487.9</ele>
        <time>2021-08-12T07:37:13Z</time>
      </trkpt>
      <trkpt lat="47.3221" lon="6.83688">
        <ele>488.1</ele>
        <time>2021-08-12T07:37:15Z</time>
      </trkpt>
      <trkpt lat="47.3221" lon="6.83686">
        <ele>488.2</ele>
        <time>2021-08-12T07:37:16Z</time>
      </trkpt>
      <trkpt lat="47.32209" lon="6.83683">
        <ele>488.4</ele>
        <time>2021-08-12T07:37:18Z</time>
      </trkpt>
      <trkpt lat="47.32209" lon="6.83681">
        <ele>488.4</ele>
        <time>2021-08-12T07:37:19Z</time>
      </trkpt>
      <trkpt lat="47.32209" lon="6.8368">
        <ele>488.5</ele>
        <time>2021-08-12T07:37:20Z</time>
      </trkpt>
      <trkpt lat="47.32209" lon="6.83678">
        <ele>488.6</ele>
        <time>2021-08-12T07:37:22Z</time>
      </trkpt>
      <trkpt lat="47.3221" lon="6.83677">
        <ele>488.6</ele>
        <time>2021-08-12T07:37:23Z</time>
      </trkpt>
      <trkpt lat="47.3221" lon="6.83674">
        <ele>488.8</ele>
        <time>2021-08-12T07:37:25Z</time>
      </trkpt>
      <trkpt lat="47.3221" lon="6.83672">
        <ele>488.9</ele>
        <time>2021-08-12T07:37:27Z</time>
      </trkpt>
      <trkpt lat="47.3221" lon="6.83668">
        <ele>489.1</ele>
        <time>2021-08-12T07:37:28Z</time>
      </trkpt>
      <trkpt lat="47.3221" lon="6.83667">
        <ele>489.1</ele>
        <time>2021-08-12T07:37:29Z</time>
      </trkpt>
      <trkpt lat="47.3221" lon="6.83666">
        <ele>489.2</ele>
        <time>2021-08-12T07:37:30Z</time>
      </trkpt>
      <trkpt lat="47.32209" lon="6.83663">
        <ele>489.3</ele>
        <time>2021-08-12T07:37:31Z</time>
      </trkpt>
      <trkpt lat="47.32207" lon="6.83658">
        <ele>489.6</ele>
        <time>2021-08-12T07:37:33Z</time>
      </trkpt>
      <trkpt lat="47.32204" lon="6.83655">
        <ele>489.8</ele>
        <time>2021-08-12T07:37:34Z</time>
      </trkpt>
      <trkpt lat="47.32203" lon="6.83654">
        <ele>489.9</ele>
        <time>2021-08-12T07:37:35Z</time>
      </trkpt>
      <trkpt lat="47.32201" lon="6.83651">
        <ele>490</ele>
        <time>2021-08-12T07:37:37Z</time>
      </trkpt>
      <trkpt lat="47.32201" lon="6.8365">
        <ele>490.1</ele>
        <time>2021-08-12T07:37:38Z</time>
      </trkpt>
      <trkpt lat="47.322" lon="6.83648">
        <ele>490.2</ele>
        <time>2021-08-12T07:37:40Z</time>
      </trkpt>
      <trkpt lat="47.32201" lon="6.83646">
        <ele>490.3</ele>
        <time>2021-08-12T07:37:41Z</time>
      </trkpt>
      <trkpt lat="47.32201" lon="6.83645">
        <ele>490.4</ele>
        <time>2021-08-12T07:37:42Z</time>
      </trkpt>
      <trkpt lat="47.32201" lon="6.83643">
        <ele>490.5</ele>
        <time>2021-08-12T07:37:43Z</time>
      </trkpt>
      <trkpt lat="47.32202" lon="6.8364">
        <ele>490.6</ele>
        <time>2021-08-12T07:37:44Z</time>
      </trkpt>
      <trkpt lat="47.32203" lon="6.83637">
        <ele>490.7</ele>
        <time>2021-08-12T07:37:46Z</time>
      </trkpt>
      <trkpt lat="47.32203" lon="6.83631">
        <ele>491</ele>
        <time>2021-08-12T07:37:48Z</time>
      </trkpt>
      <trkpt lat="47.32204" lon="6.83626">
        <ele>491.3</ele>
        <time>2021-08-12T07:37:49Z</time>
      </trkpt>
      <trkpt lat="47.32205" lon="6.83622">
        <ele>491.5</ele>
        <time>2021-08-12T07:37:50Z</time>
      </trkpt>
      <trkpt lat="47.32206" lon="6.83616">
        <ele>491.7</ele>
        <time>2021-08-12T07:37:51Z</time>
      </trkpt>
      <trkpt lat="47.32206" lon="6.83614">
        <ele>491.8</ele>
        <time>2021-08-12T07:37:53Z</time>
      </trkpt>
      <trkpt lat="47.32207" lon="6.83613">
        <ele>491.9</ele>
        <time>2021-08-12T07:37:54Z</time>
      </trkpt>
      <trkpt lat="47.32208" lon="6.83612">
        <ele>492</ele>
        <time>2021-08-12T07:37:55Z</time>
      </trkpt>
      <trkpt lat="47.32208" lon="6.8361">
        <ele>492.1</ele>
        <time>2021-08-12T07:37:56Z</time>
      </trkpt>
      <trkpt lat="47.32209" lon="6.83609">
        <ele>492.2</ele>
        <time>2021-08-12T07:37:57Z</time>
      </trkpt>
      <trkpt lat="47.32211" lon="6.83607">
        <ele>492.3</ele>
        <time>2021-08-12T07:37:59Z</time>
      </trkpt>
      <trkpt lat="47.32211" lon="6.83606">
        <ele>492.3</ele>
        <time>2021-08-12T07:38:00Z</time>
      </trkpt>
      <trkpt lat="47.32212" lon="6.83603">
        <ele>492.5</ele>
        <time>2021-08-12T07:38:02Z</time>
      </trkpt>
      <trkpt lat="47.32184" lon="6.83582">
        <ele>494.6</ele>
        <time>2021-08-12T07:38:12Z</time>
      </trkpt>
      <trkpt lat="47.32181" lon="6.83579">
        <ele>494.9</ele>
        <time>2021-08-12T07:38:14Z</time>
      </trkpt>
      <trkpt lat="47.3218" lon="6.83578">
        <ele>494.9</ele>
        <time>2021-08-12T07:38:15Z</time>
      </trkpt>
      <trkpt lat="47.32179" lon="6.83577">
        <ele>495</ele>
        <time>2021-08-12T07:38:16Z</time>
      </trkpt>
      <trkpt lat="47.32178" lon="6.83576">
        <ele>495.1</ele>
        <time>2021-08-12T07:38:17Z</time>
      </trkpt>
      <trkpt lat="47.32175" lon="6.83573">
        <ele>495.3</ele>
        <time>2021-08-12T07:38:19Z</time>
      </trkpt>
      <trkpt lat="47.32176" lon="6.83569">
        <ele>495.5</ele>
        <time>2021-08-12T07:38:20Z</time>
      </trkpt>
      <trkpt lat="47.32179" lon="6.83563">
        <ele>495.9</ele>
        <time>2021-08-12T07:38:22Z</time>
      </trkpt>
      <trkpt lat="47.32179" lon="6.83561">
        <ele>496</ele>
        <time>2021-08-12T07:38:23Z</time>
      </trkpt>
      <trkpt lat="47.3218" lon="6.83559">
        <ele>496.1</ele>
        <time>2021-08-12T07:38:24Z</time>
      </trkpt>
      <trkpt lat="47.32179" lon="6.83549">
        <ele>496.5</ele>
        <time>2021-08-12T07:38:26Z</time>
      </trkpt>
      <trkpt lat="47.32177" lon="6.83543">
        <ele>496.7</ele>
        <time>2021-08-12T07:38:40Z</time>
      </trkpt>
      <trkpt lat="47.32175" lon="6.83537">
        <ele>497</ele>
        <time>2021-08-12T07:38:41Z</time>
      </trkpt>
      <trkpt lat="47.32173" lon="6.83531">
        <ele>497.3</ele>
        <time>2021-08-12T07:38:42Z</time>
      </trkpt>
      <trkpt lat="47.3217" lon="6.83528">
        <ele>497.5</ele>
        <time>2021-08-12T07:38:44Z</time>
      </trkpt>
      <trkpt lat="47.32168" lon="6.83524">
        <ele>497.8</ele>
        <time>2021-08-12T07:38:46Z</time>
      </trkpt>
      <trkpt lat="47.32166" lon="6.83523">
        <ele>497.9</ele>
        <time>2021-08-12T07:38:47Z</time>
      </trkpt>
      <trkpt lat="47.32162" lon="6.83522">
        <ele>498.1</ele>
        <time>2021-08-12T07:38:49Z</time>
      </trkpt>
      <trkpt lat="47.32161" lon="6.8352">
        <ele>498.3</ele>
        <time>2021-08-12T07:38:50Z</time>
      </trkpt>
      <trkpt lat="47.32159" lon="6.8352">
        <ele>498.3</ele>
        <time>2021-08-12T07:38:51Z</time>
      </trkpt>
      <trkpt lat="47.32158" lon="6.83519">
        <ele>498.4</ele>
        <time>2021-08-12T07:38:52Z</time>
      </trkpt>
      <trkpt lat="47.32157" lon="6.83518">
        <ele>498.5</ele>
        <time>2021-08-12T07:38:54Z</time>
      </trkpt>
      <trkpt lat="47.32157" lon="6.83517">
        <ele>498.6</ele>
        <time>2021-08-12T07:38:55Z</time>
      </trkpt>
      <trkpt lat="47.32156" lon="6.83516">
        <ele>498.6</ele>
        <time>2021-08-12T07:38:57Z</time>
      </trkpt>
      <trkpt lat="47.32155" lon="6.83516">
        <ele>498.7</ele>
        <time>2021-08-12T07:38:58Z</time>
      </trkpt>
      <trkpt lat="47.32154" lon="6.83515">
        <ele>498.8</ele>
        <time>2021-08-12T07:38:59Z</time>
      </trkpt>
      <trkpt lat="47.32152" lon="6.83514">
        <ele>498.9</ele>
        <time>2021-08-12T07:39:01Z</time>
      </trkpt>
      <trkpt lat="47.3215" lon="6.83512">
        <ele>499.1</ele>
        <time>2021-08-12T07:39:03Z</time>
      </trkpt>
      <trkpt lat="47.32144" lon="6.83506">
        <ele>499.6</ele>
        <time>2021-08-12T07:39:05Z</time>
      </trkpt>
      <trkpt lat="47.3214" lon="6.83502">
        <ele>499.9</ele>
        <time>2021-08-12T07:39:06Z</time>
      </trkpt>
      <trkpt lat="47.32137" lon="6.83499">
        <ele>500.1</ele>
        <time>2021-08-12T07:39:08Z</time>
      </trkpt>
      <trkpt lat="47.32136" lon="6.83498">
        <ele>500.3</ele>
        <time>2021-08-12T07:39:09Z</time>
      </trkpt>
      <trkpt lat="47.32133" lon="6.83497">
        <ele>500.5</ele>
        <time>2021-08-12T07:39:11Z</time>
      </trkpt>
      <trkpt lat="47.32128" lon="6.83494">
        <ele>500.9</ele>
        <time>2021-08-12T07:39:12Z</time>
      </trkpt>
      <trkpt lat="47.32127" lon="6.83494">
        <ele>500.9</ele>
        <time>2021-08-12T07:39:13Z</time>
      </trkpt>
      <trkpt lat="47.32126" lon="6.83493">
        <ele>501</ele>
        <time>2021-08-12T07:39:15Z</time>
      </trkpt>
      <trkpt lat="47.32126" lon="6.83492">
        <ele>501.1</ele>
        <time>2021-08-12T07:39:16Z</time>
      </trkpt>
      <trkpt lat="47.32125" lon="6.83491">
        <ele>501.1</ele>
        <time>2021-08-12T07:39:17Z</time>
      </trkpt>
      <trkpt lat="47.32123" lon="6.83489">
        <ele>501.3</ele>
        <time>2021-08-12T07:39:19Z</time>
      </trkpt>
      <trkpt lat="47.32123" lon="6.83486">
        <ele>501.4</ele>
        <time>2021-08-12T07:39:21Z</time>
      </trkpt>
      <trkpt lat="47.32122" lon="6.83486">
        <ele>501.5</ele>
        <time>2021-08-12T07:39:22Z</time>
      </trkpt>
      <trkpt lat="47.32121" lon="6.83485">
        <ele>501.6</ele>
        <time>2021-08-12T07:39:23Z</time>
      </trkpt>
      <trkpt lat="47.3212" lon="6.83483">
        <ele>501.7</ele>
        <time>2021-08-12T07:39:24Z</time>
      </trkpt>
      <trkpt lat="47.3212" lon="6.83482">
        <ele>501.7</ele>
        <time>2021-08-12T07:39:25Z</time>
      </trkpt>
      <trkpt lat="47.3212" lon="6.8348">
        <ele>501.8</ele>
        <time>2021-08-12T07:39:27Z</time>
      </trkpt>
      <trkpt lat="47.3212" lon="6.83478">
        <ele>501.9</ele>
        <time>2021-08-12T07:39:28Z</time>
      </trkpt>
      <trkpt lat="47.3212" lon="6.83477">
        <ele>502</ele>
        <time>2021-08-12T07:39:29Z</time>
      </trkpt>
      <trkpt lat="47.32118" lon="6.83472">
        <ele>502.2</ele>
        <time>2021-08-12T07:39:31Z</time>
      </trkpt>
      <trkpt lat="47.32118" lon="6.83471">
        <ele>502.3</ele>
        <time>2021-08-12T07:39:32Z</time>
      </trkpt>
      <trkpt lat="47.32105" lon="6.83383">
        <ele>506.3</ele>
        <time>2021-08-12T07:40:18Z</time>
      </trkpt>
      <trkpt lat="47.32105" lon="6.83379">
        <ele>506.5</ele>
        <time>2021-08-12T07:40:19Z</time>
      </trkpt>
      <trkpt lat="47.32106" lon="6.83373">
        <ele>506.8</ele>
        <time>2021-08-12T07:40:21Z</time>
      </trkpt>
      <trkpt lat="47.32107" lon="6.83371">
        <ele>506.9</ele>
        <time>2021-08-12T07:40:22Z</time>
      </trkpt>
      <trkpt lat="47.32107" lon="6.83369">
        <ele>507</ele>
        <time>2021-08-12T07:40:23Z</time>
      </trkpt>
      <trkpt lat="47.32107" lon="6.83366">
        <ele>507.1</ele>
        <time>2021-08-12T07:40:25Z</time>
      </trkpt>
      <trkpt lat="47.32107" lon="6.83364">
        <ele>507.2</ele>
        <time>2021-08-12T07:40:26Z</time>
      </trkpt>
      <trkpt lat="47.32107" lon="6.83364">
        <ele>507.3</ele>
        <time>2021-08-12T07:40:27Z</time>
      </trkpt>
      <trkpt lat="47.32107" lon="6.83363">
        <ele>507.3</ele>
        <time>2021-08-12T07:40:28Z</time>
      </trkpt>
      <trkpt lat="47.32107" lon="6.83362">
        <ele>507.3</ele>
        <time>2021-08-12T07:40:29Z</time>
      </trkpt>
      <trkpt lat="47.32108" lon="6.8336">
        <ele>507.4</ele>
        <time>2021-08-12T07:40:31Z</time>
      </trkpt>
      <trkpt lat="47.32107" lon="6.8336">
        <ele>507.5</ele>
        <time>2021-08-12T07:40:32Z</time>
      </trkpt>
      <trkpt lat="47.32081" lon="6.83305">
        <ele>510.2</ele>
        <time>2021-08-12T07:41:13Z</time>
      </trkpt>
      <trkpt lat="47.3208" lon="6.83303">
        <ele>510.3</ele>
        <time>2021-08-12T07:41:14Z</time>
      </trkpt>
      <trkpt lat="47.32079" lon="6.833">
        <ele>510.4</ele>
        <time>2021-08-12T07:41:16Z</time>
      </trkpt>
      <trkpt lat="47.32079" lon="6.83298">
        <ele>510.5</ele>
        <time>2021-08-12T07:41:17Z</time>
      </trkpt>
      <trkpt lat="47.32079" lon="6.83296">
        <ele>510.6</ele>
        <time>2021-08-12T07:41:18Z</time>
      </trkpt>
      <trkpt lat="47.32079" lon="6.83292">
        <ele>510.8</ele>
        <time>2021-08-12T07:41:20Z</time>
      </trkpt>
      <trkpt lat="47.32079" lon="6.83291">
        <ele>510.8</ele>
        <time>2021-08-12T07:41:21Z</time>
      </trkpt>
      <trkpt lat="47.32076" lon="6.83287">
        <ele>511</ele>
        <time>2021-08-12T07:41:22Z</time>
      </trkpt>
      <trkpt lat="47.32076" lon="6.83286">
        <ele>511.1</ele>
        <time>2021-08-12T07:41:23Z</time>
      </trkpt>
      <trkpt lat="47.32073" lon="6.83282">
        <ele>511.3</ele>
        <time>2021-08-12T07:41:25Z</time>
      </trkpt>
      <trkpt lat="47.32073" lon="6.83281">
        <ele>511.4</ele>
        <time>2021-08-12T07:41:26Z</time>
      </trkpt>
      <trkpt lat="47.32071" lon="6.83277">
        <ele>511.5</ele>
        <time>2021-08-12T07:41:27Z</time>
      </trkpt>
      <trkpt lat="47.32071" lon="6.83276">
        <ele>511.6</ele>
        <time>2021-08-12T07:41:28Z</time>
      </trkpt>
      <trkpt lat="47.3207" lon="6.83274">
        <ele>511.7</ele>
        <time>2021-08-12T07:41:30Z</time>
      </trkpt>
      <trkpt lat="47.32066" lon="6.83268">
        <ele>512</ele>
        <time>2021-08-12T07:41:33Z</time>
      </trkpt>
      <trkpt lat="47.32065" lon="6.83264">
        <ele>512.2</ele>
        <time>2021-08-12T07:41:34Z</time>
      </trkpt>
      <trkpt lat="47.32064" lon="6.83263">
        <ele>512.3</ele>
        <time>2021-08-12T07:41:35Z</time>
      </trkpt>
      <trkpt lat="47.32064" lon="6.83258">
        <ele>512.5</ele>
        <time>2021-08-12T07:41:37Z</time>
      </trkpt>
      <trkpt lat="47.32063" lon="6.83256">
        <ele>512.5</ele>
        <time>2021-08-12T07:41:38Z</time>
      </trkpt>
      <trkpt lat="47.32063" lon="6.83253">
        <ele>512.7</ele>
        <time>2021-08-12T07:41:39Z</time>
      </trkpt>
      <trkpt lat="47.32063" lon="6.83251">
        <ele>512.8</ele>
        <time>2021-08-12T07:41:40Z</time>
      </trkpt>
      <trkpt lat="47.32062" lon="6.83246">
        <ele>513</ele>
        <time>2021-08-12T07:41:41Z</time>
      </trkpt>
      <trkpt lat="47.32061" lon="6.83242">
        <ele>513.2</ele>
        <time>2021-08-12T07:41:42Z</time>
      </trkpt>
      <trkpt lat="47.3206" lon="6.83237">
        <ele>513.4</ele>
        <time>2021-08-12T07:41:43Z</time>
      </trkpt>
      <trkpt lat="47.32059" lon="6.83235">
        <ele>513.5</ele>
        <time>2021-08-12T07:41:44Z</time>
      </trkpt>
      <trkpt lat="47.3206" lon="6.83234">
        <ele>513.5</ele>
        <time>2021-08-12T07:41:46Z</time>
      </trkpt>
      <trkpt lat="47.3206" lon="6.83233">
        <ele>513.6</ele>
        <time>2021-08-12T07:41:48Z</time>
      </trkpt>
      <trkpt lat="47.3206" lon="6.83231">
        <ele>513.7</ele>
        <time>2021-08-12T07:41:49Z</time>
      </trkpt>
      <trkpt lat="47.3206" lon="6.8323">
        <ele>513.7</ele>
        <time>2021-08-12T07:41:50Z</time>
      </trkpt>
      <trkpt lat="47.32061" lon="6.83228">
        <ele>513.8</ele>
        <time>2021-08-12T07:41:52Z</time>
      </trkpt>
      <trkpt lat="47.32061" lon="6.83226">
        <ele>513.9</ele>
        <time>2021-08-12T07:41:53Z</time>
      </trkpt>
      <trkpt lat="47.32062" lon="6.83213">
        <ele>514.5</ele>
        <time>2021-08-12T07:42:00Z</time>
      </trkpt>
      <trkpt lat="47.32062" lon="6.8321">
        <ele>514.6</ele>
        <time>2021-08-12T07:42:01Z</time>
      </trkpt>
      <trkpt lat="47.32062" lon="6.83206">
        <ele>514.8</ele>
        <time>2021-08-12T07:42:03Z</time>
      </trkpt>
      <trkpt lat="47.32062" lon="6.83204">
        <ele>514.9</ele>
        <time>2021-08-12T07:42:04Z</time>
      </trkpt>
      <trkpt lat="47.32063" lon="6.83201">
        <ele>515</ele>
        <time>2021-08-12T07:42:05Z</time>
      </trkpt>
      <trkpt lat="47.32063" lon="6.83196">
        <ele>515.3</ele>
        <time>2021-08-12T07:42:07Z</time>
      </trkpt>
      <trkpt lat="47.32064" lon="6.83194">
        <ele>515.3</ele>
        <time>2021-08-12T07:42:08Z</time>
      </trkpt>
      <trkpt lat="47.32064" lon="6.83189">
        <ele>515.6</ele>
        <time>2021-08-12T07:42:10Z</time>
      </trkpt>
      <trkpt lat="47.32064" lon="6.83187">
        <ele>515.6</ele>
        <time>2021-08-12T07:42:11Z</time>
      </trkpt>
      <trkpt lat="47.32064" lon="6.83181">
        <ele>515.9</ele>
        <time>2021-08-12T07:42:12Z</time>
      </trkpt>
      <trkpt lat="47.32064" lon="6.83179">
        <ele>516</ele>
        <time>2021-08-12T07:42:13Z</time>
      </trkpt>
      <trkpt lat="47.32062" lon="6.83173">
        <ele>516.3</ele>
        <time>2021-08-12T07:42:15Z</time>
      </trkpt>
      <trkpt lat="47.3206" lon="6.83172">
        <ele>516.4</ele>
        <time>2021-08-12T07:42:16Z</time>
      </trkpt>
      <trkpt lat="47.32059" lon="6.83171">
        <ele>516.5</ele>
        <time>2021-08-12T07:42:17Z</time>
      </trkpt>
      <trkpt lat="47.32057" lon="6.83171">
        <ele>516.6</ele>
        <time>2021-08-12T07:42:19Z</time>
      </trkpt>
      <trkpt lat="47.32055" lon="6.83172">
        <ele>516.7</ele>
        <time>2021-08-12T07:42:20Z</time>
      </trkpt>
      <trkpt lat="47.32053" lon="6.83172">
        <ele>516.9</ele>
        <time>2021-08-12T07:42:22Z</time>
      </trkpt>
      <trkpt lat="47.32052" lon="6.83172">
        <ele>516.9</ele>
        <time>2021-08-12T07:42:23Z</time>
      </trkpt>
      <trkpt lat="47.3205" lon="6.83173">
        <ele>517</ele>
        <time>2021-08-12T07:42:25Z</time>
      </trkpt>
      <trkpt lat="47.32048" lon="6.83175">
        <ele>517.2</ele>
        <time>2021-08-12T07:42:27Z</time>
      </trkpt>
      <trkpt lat="47.32037" lon="6.83155">
        <ele>518.3</ele>
        <time>2021-08-12T07:42:38Z</time>
      </trkpt>
      <trkpt lat="47.32035" lon="6.83151">
        <ele>518.5</ele>
        <time>2021-08-12T07:42:40Z</time>
      </trkpt>
      <trkpt lat="47.32035" lon="6.83148">
        <ele>518.7</ele>
        <time>2021-08-12T07:42:41Z</time>
      </trkpt>
      <trkpt lat="47.32034" lon="6.83147">
        <ele>518.8</ele>
        <time>2021-08-12T07:42:42Z</time>
      </trkpt>
      <trkpt lat="47.32034" lon="6.83145">
        <ele>518.8</ele>
        <time>2021-08-12T07:42:43Z</time>
      </trkpt>
      <trkpt lat="47.32032" lon="6.83141">
        <ele>519</ele>
        <time>2021-08-12T07:42:45Z</time>
      </trkpt>
      <trkpt lat="47.32031" lon="6.83135">
        <ele>519.3</ele>
        <time>2021-08-12T07:42:47Z</time>
      </trkpt>
      <trkpt lat="47.32031" lon="6.83133">
        <ele>519.4</ele>
        <time>2021-08-12T07:42:48Z</time>
      </trkpt>
      <trkpt lat="47.32031" lon="6.83132">
        <ele>519.5</ele>
        <time>2021-08-12T07:42:50Z</time>
      </trkpt>
      <trkpt lat="47.3203" lon="6.8313">
        <ele>519.6</ele>
        <time>2021-08-12T07:42:51Z</time>
      </trkpt>
      <trkpt lat="47.3203" lon="6.83128">
        <ele>519.7</ele>
        <time>2021-08-12T07:42:52Z</time>
      </trkpt>
      <trkpt lat="47.3203" lon="6.83126">
        <ele>519.8</ele>
        <time>2021-08-12T07:42:53Z</time>
      </trkpt>
      <trkpt lat="47.3203" lon="6.83124">
        <ele>519.8</ele>
        <time>2021-08-12T07:42:55Z</time>
      </trkpt>
      <trkpt lat="47.3203" lon="6.83123">
        <ele>519.9</ele>
        <time>2021-08-12T07:42:56Z</time>
      </trkpt>
      <trkpt lat="47.32029" lon="6.83121">
        <ele>520</ele>
        <time>2021-08-12T07:42:57Z</time>
      </trkpt>
      <trkpt lat="47.32029" lon="6.8312">
        <ele>520.1</ele>
        <time>2021-08-12T07:42:59Z</time>
      </trkpt>
      <trkpt lat="47.32028" lon="6.83118">
        <ele>520.1</ele>
        <time>2021-08-12T07:43:00Z</time>
      </trkpt>
      <trkpt lat="47.32029" lon="6.83116">
        <ele>520.2</ele>
        <time>2021-08-12T07:43:01Z</time>
      </trkpt>
      <trkpt lat="47.32031" lon="6.83111">
        <ele>520.5</ele>
        <time>2021-08-12T07:43:03Z</time>
      </trkpt>
      <trkpt lat="47.32031" lon="6.83109">
        <ele>520.6</ele>
        <time>2021-08-12T07:43:04Z</time>
      </trkpt>
      <trkpt lat="47.32032" lon="6.83107">
        <ele>520.7</ele>
        <time>2021-08-12T07:43:05Z</time>
      </trkpt>
      <trkpt lat="47.32034" lon="6.83103">
        <ele>521</ele>
        <time>2021-08-12T07:43:07Z</time>
      </trkpt>
      <trkpt lat="47.32034" lon="6.83101">
        <ele>521</ele>
        <time>2021-08-12T07:43:08Z</time>
      </trkpt>
      <trkpt lat="47.32035" lon="6.831">
        <ele>521.1</ele>
        <time>2021-08-12T07:43:09Z</time>
      </trkpt>
      <trkpt lat="47.32036" lon="6.83095">
        <ele>521.3</ele>
        <time>2021-08-12T07:43:11Z</time>
      </trkpt>
      <trkpt lat="47.32037" lon="6.83093">
        <ele>521.4</ele>
        <time>2021-08-12T07:43:12Z</time>
      </trkpt>
      <trkpt lat="47.32038" lon="6.83091">
        <ele>521.5</ele>
        <time>2021-08-12T07:43:13Z</time>
      </trkpt>
      <trkpt lat="47.32038" lon="6.8309">
        <ele>521.6</ele>
        <time>2021-08-12T07:43:14Z</time>
      </trkpt>
      <trkpt lat="47.32039" lon="6.83087">
        <ele>521.7</ele>
        <time>2021-08-12T07:43:16Z</time>
      </trkpt>
      <trkpt lat="47.32039" lon="6.83085">
        <ele>521.8</ele>
        <time>2021-08-12T07:43:17Z</time>
      </trkpt>
      <trkpt lat="47.32039" lon="6.83083">
        <ele>521.9</ele>
        <time>2021-08-12T07:43:18Z</time>
      </trkpt>
      <trkpt lat="47.32038" lon="6.83081">
        <ele>522</ele>
        <time>2021-08-12T07:43:19Z</time>
      </trkpt>
      <trkpt lat="47.32039" lon="6.83079">
        <ele>522.1</ele>
        <time>2021-08-12T07:43:20Z</time>
      </trkpt>
      <trkpt lat="47.32039" lon="6.83077">
        <ele>522.2</ele>
        <time>2021-08-12T07:43:22Z</time>
      </trkpt>
      <trkpt lat="47.32041" lon="6.83073">
        <ele>522.4</ele>
        <time>2021-08-12T07:43:24Z</time>
      </trkpt>
      <trkpt lat="47.32041" lon="6.83071">
        <ele>522.5</ele>
        <time>2021-08-12T07:43:25Z</time>
      </trkpt>
      <trkpt lat="47.32042" lon="6.83069">
        <ele>522.6</ele>
        <time>2021-08-12T07:43:26Z</time>
      </trkpt>
      <trkpt lat="47.32042" lon="6.83064">
        <ele>522.8</ele>
        <time>2021-08-12T07:43:28Z</time>
      </trkpt>
      <trkpt lat="47.32042" lon="6.83063">
        <ele>522.9</ele>
        <time>2021-08-12T07:43:29Z</time>
      </trkpt>
      <trkpt lat="47.32042" lon="6.83061">
        <ele>523</ele>
        <time>2021-08-12T07:43:30Z</time>
      </trkpt>
      <trkpt lat="47.32042" lon="6.8306">
        <ele>523</ele>
        <time>2021-08-12T07:43:31Z</time>
      </trkpt>
      <trkpt lat="47.32041" lon="6.83056">
        <ele>523.2</ele>
        <time>2021-08-12T07:43:33Z</time>
      </trkpt>
      <trkpt lat="47.3204" lon="6.83054">
        <ele>523.4</ele>
        <time>2021-08-12T07:43:34Z</time>
      </trkpt>
      <trkpt lat="47.32038" lon="6.83049">
        <ele>523.6</ele>
        <time>2021-08-12T07:43:36Z</time>
      </trkpt>
      <trkpt lat="47.32038" lon="6.83046">
        <ele>523.7</ele>
        <time>2021-08-12T07:43:37Z</time>
      </trkpt>
      <trkpt lat="47.32038" lon="6.83044">
        <ele>523.8</ele>
        <time>2021-08-12T07:43:38Z</time>
      </trkpt>
      <trkpt lat="47.3204" lon="6.8304">
        <ele>524.1</ele>
        <time>2021-08-12T07:43:40Z</time>
      </trkpt>
      <trkpt lat="47.32041" lon="6.83034">
        <ele>524.3</ele>
        <time>2021-08-12T07:43:42Z</time>
      </trkpt>
      <trkpt lat="47.32041" lon="6.8303">
        <ele>524.5</ele>
        <time>2021-08-12T07:43:43Z</time>
      </trkpt>
      <trkpt lat="47.32042" lon="6.83027">
        <ele>524.6</ele>
        <time>2021-08-12T07:43:45Z</time>
      </trkpt>
      <trkpt lat="47.32043" lon="6.83025">
        <ele>524.7</ele>
        <time>2021-08-12T07:43:46Z</time>
      </trkpt>
      <trkpt lat="47.32043" lon="6.83023">
        <ele>524.8</ele>
        <time>2021-08-12T07:43:47Z</time>
      </trkpt>
      <trkpt lat="47.32044" lon="6.83021">
        <ele>524.9</ele>
        <time>2021-08-12T07:43:48Z</time>
      </trkpt>
      <trkpt lat="47.32045" lon="6.83016">
        <ele>525.2</ele>
        <time>2021-08-12T07:43:49Z</time>
      </trkpt>
      <trkpt lat="47.32045" lon="6.83014">
        <ele>525.2</ele>
        <time>2021-08-12T07:43:50Z</time>
      </trkpt>
      <trkpt lat="47.32047" lon="6.8301">
        <ele>525.4</ele>
        <time>2021-08-12T07:43:52Z</time>
      </trkpt>
      <trkpt lat="47.32047" lon="6.83008">
        <ele>525.5</ele>
        <time>2021-08-12T07:43:53Z</time>
      </trkpt>
      <trkpt lat="47.32048" lon="6.83006">
        <ele>525.6</ele>
        <time>2021-08-12T07:43:54Z</time>
      </trkpt>
      <trkpt lat="47.32048" lon="6.83004">
        <ele>525.7</ele>
        <time>2021-08-12T07:43:55Z</time>
      </trkpt>
      <trkpt lat="47.32047" lon="6.82999">
        <ele>525.9</ele>
        <time>2021-08-12T07:43:57Z</time>
      </trkpt>
      <trkpt lat="47.32045" lon="6.82996">
        <ele>526.1</ele>
        <time>2021-08-12T07:43:58Z</time>
      </trkpt>
      <trkpt lat="47.32039" lon="6.82994">
        <ele>526.5</ele>
        <time>2021-08-12T07:44:00Z</time>
      </trkpt>
      <trkpt lat="47.32036" lon="6.82993">
        <ele>526.7</ele>
        <time>2021-08-12T07:44:01Z</time>
      </trkpt>
      <trkpt lat="47.32034" lon="6.82992">
        <ele>526.8</ele>
        <time>2021-08-12T07:44:03Z</time>
      </trkpt>
      <trkpt lat="47.32034" lon="6.82992">
        <ele>526.8</ele>
        <time>2021-08-12T07:44:04Z</time>
      </trkpt>
      <trkpt lat="47.32034" lon="6.82991">
        <ele>526.9</ele>
        <time>2021-08-12T07:44:05Z</time>
      </trkpt>
      <trkpt lat="47.32033" lon="6.82989">
        <ele>527</ele>
        <time>2021-08-12T07:44:07Z</time>
      </trkpt>
      <trkpt lat="47.32032" lon="6.82985">
        <ele>527.1</ele>
        <time>2021-08-12T07:44:08Z</time>
      </trkpt>
      <trkpt lat="47.32032" lon="6.82983">
        <ele>527.2</ele>
        <time>2021-08-12T07:44:09Z</time>
      </trkpt>
      <trkpt lat="47.32032" lon="6.82979">
        <ele>527.4</ele>
        <time>2021-08-12T07:44:10Z</time>
      </trkpt>
      <trkpt lat="47.32032" lon="6.82977">
        <ele>527.5</ele>
        <time>2021-08-12T07:44:11Z</time>
      </trkpt>
      <trkpt lat="47.32031" lon="6.82971">
        <ele>527.8</ele>
        <time>2021-08-12T07:44:13Z</time>
      </trkpt>
      <trkpt lat="47.32029" lon="6.82966">
        <ele>528</ele>
        <time>2021-08-12T07:44:14Z</time>
      </trkpt>
      <trkpt lat="47.32027" lon="6.82964">
        <ele>528.2</ele>
        <time>2021-08-12T07:44:15Z</time>
      </trkpt>
      <trkpt lat="47.32024" lon="6.82961">
        <ele>528.4</ele>
        <time>2021-08-12T07:44:16Z</time>
      </trkpt>
      <trkpt lat="47.32022" lon="6.82958">
        <ele>528.6</ele>
        <time>2021-08-12T07:44:18Z</time>
      </trkpt>
      <trkpt lat="47.32021" lon="6.82958">
        <ele>528.7</ele>
        <time>2021-08-12T07:44:19Z</time>
      </trkpt>
      <trkpt lat="47.32019" lon="6.82957">
        <ele>528.8</ele>
        <time>2021-08-12T07:44:20Z</time>
      </trkpt>
      <trkpt lat="47.32017" lon="6.82954">
        <ele>529</ele>
        <time>2021-08-12T07:44:22Z</time>
      </trkpt>
      <trkpt lat="47.32016" lon="6.82953">
        <ele>529</ele>
        <time>2021-08-12T07:44:23Z</time>
      </trkpt>
      <trkpt lat="47.32016" lon="6.8295">
        <ele>529.2</ele>
        <time>2021-08-12T07:44:24Z</time>
      </trkpt>
      <trkpt lat="47.32017" lon="6.82946">
        <ele>529.3</ele>
        <time>2021-08-12T07:44:26Z</time>
      </trkpt>
      <trkpt lat="47.32019" lon="6.82942">
        <ele>529.5</ele>
        <time>2021-08-12T07:44:27Z</time>
      </trkpt>
      <trkpt lat="47.3202" lon="6.82938">
        <ele>529.7</ele>
        <time>2021-08-12T07:44:29Z</time>
      </trkpt>
      <trkpt lat="47.32021" lon="6.82937">
        <ele>529.8</ele>
        <time>2021-08-12T07:44:30Z</time>
      </trkpt>
      <trkpt lat="47.32022" lon="6.82934">
        <ele>529.9</ele>
        <time>2021-08-12T07:44:31Z</time>
      </trkpt>
      <trkpt lat="47.32022" lon="6.82932">
        <ele>530</ele>
        <time>2021-08-12T07:44:32Z</time>
      </trkpt>
      <trkpt lat="47.32023" lon="6.82929">
        <ele>530.2</ele>
        <time>2021-08-12T07:44:34Z</time>
      </trkpt>
      <trkpt lat="47.32023" lon="6.82928">
        <ele>530.2</ele>
        <time>2021-08-12T07:44:35Z</time>
      </trkpt>
      <trkpt lat="47.3202" lon="6.82924">
        <ele>530.4</ele>
        <time>2021-08-12T07:44:36Z</time>
      </trkpt>
      <trkpt lat="47.32018" lon="6.82922">
        <ele>530.6</ele>
        <time>2021-08-12T07:44:37Z</time>
      </trkpt>
      <trkpt lat="47.32015" lon="6.82918">
        <ele>530.9</ele>
        <time>2021-08-12T07:44:39Z</time>
      </trkpt>
      <trkpt lat="47.32014" lon="6.82916">
        <ele>531</ele>
        <time>2021-08-12T07:44:40Z</time>
      </trkpt>
      <trkpt lat="47.3201" lon="6.82914">
        <ele>531.2</ele>
        <time>2021-08-12T07:44:41Z</time>
      </trkpt>
      <trkpt lat="47.32006" lon="6.82913">
        <ele>531.5</ele>
        <time>2021-08-12T07:44:43Z</time>
      </trkpt>
      <trkpt lat="47.32003" lon="6.82912">
        <ele>531.7</ele>
        <time>2021-08-12T07:44:44Z</time>
      </trkpt>
      <trkpt lat="47.31999" lon="6.82909">
        <ele>532</ele>
        <time>2021-08-12T07:44:46Z</time>
      </trkpt>
      <trkpt lat="47.31997" lon="6.82904">
        <ele>532.3</ele>
        <time>2021-08-12T07:44:48Z</time>
      </trkpt>
      <trkpt lat="47.31997" lon="6.82902">
        <ele>532.4</ele>
        <time>2021-08-12T07:44:49Z</time>
      </trkpt>
      <trkpt lat="47.31996" lon="6.829">
        <ele>532.5</ele>
        <time>2021-08-12T07:44:50Z</time>
      </trkpt>
      <trkpt lat="47.31997" lon="6.82895">
        <ele>532.7</ele>
        <time>2021-08-12T07:44:52Z</time>
      </trkpt>
      <trkpt lat="47.31998" lon="6.82894">
        <ele>532.8</ele>
        <time>2021-08-12T07:44:53Z</time>
      </trkpt>
      <trkpt lat="47.31998" lon="6.82892">
        <ele>532.9</ele>
        <time>2021-08-12T07:44:54Z</time>
      </trkpt>
      <trkpt lat="47.32" lon="6.82887">
        <ele>533.1</ele>
        <time>2021-08-12T07:44:56Z</time>
      </trkpt>
      <trkpt lat="47.31998" lon="6.82884">
        <ele>533.3</ele>
        <time>2021-08-12T07:44:57Z</time>
      </trkpt>
      <trkpt lat="47.31998" lon="6.82882">
        <ele>533.4</ele>
        <time>2021-08-12T07:44:58Z</time>
      </trkpt>
      <trkpt lat="47.31998" lon="6.8288">
        <ele>533.5</ele>
        <time>2021-08-12T07:44:59Z</time>
      </trkpt>
      <trkpt lat="47.31996" lon="6.8288">
        <ele>533.6</ele>
        <time>2021-08-12T07:45:01Z</time>
      </trkpt>
      <trkpt lat="47.31993" lon="6.82878">
        <ele>533.8</ele>
        <time>2021-08-12T07:45:03Z</time>
      </trkpt>
      <trkpt lat="47.31989" lon="6.82875">
        <ele>534.1</ele>
        <time>2021-08-12T07:45:04Z</time>
      </trkpt>
      <trkpt lat="47.31984" lon="6.82874">
        <ele>534.5</ele>
        <time>2021-08-12T07:45:05Z</time>
      </trkpt>
      <trkpt lat="47.31979" lon="6.82873">
        <ele>534.8</ele>
        <time>2021-08-12T07:45:06Z</time>
      </trkpt>
      <trkpt lat="47.31975" lon="6.82872">
        <ele>535.1</ele>
        <time>2021-08-12T07:45:07Z</time>
      </trkpt>
      <trkpt lat="47.31971" lon="6.8287">
        <ele>535.4</ele>
        <time>2021-08-12T07:45:09Z</time>
      </trkpt>
      <trkpt lat="47.3197" lon="6.82869">
        <ele>535.5</ele>
        <time>2021-08-12T07:45:10Z</time>
      </trkpt>
      <trkpt lat="47.3197" lon="6.82868">
        <ele>535.5</ele>
        <time>2021-08-12T07:45:11Z</time>
      </trkpt>
      <trkpt lat="47.3197" lon="6.82867">
        <ele>535.6</ele>
        <time>2021-08-12T07:45:13Z</time>
      </trkpt>
      <trkpt lat="47.3195" lon="6.82818">
        <ele>538.5</ele>
        <time>2021-08-12T07:45:45Z</time>
      </trkpt>
      <trkpt lat="47.31949" lon="6.82813">
        <ele>538.7</ele>
        <time>2021-08-12T07:45:46Z</time>
      </trkpt>
      <trkpt lat="47.31949" lon="6.8281">
        <ele>538.9</ele>
        <time>2021-08-12T07:45:47Z</time>
      </trkpt>
      <trkpt lat="47.31948" lon="6.82806">
        <ele>539.1</ele>
        <time>2021-08-12T07:45:49Z</time>
      </trkpt>
      <trkpt lat="47.31947" lon="6.82803">
        <ele>539.2</ele>
        <time>2021-08-12T07:45:50Z</time>
      </trkpt>
      <trkpt lat="47.31946" lon="6.82802">
        <ele>539.3</ele>
        <time>2021-08-12T07:45:51Z</time>
      </trkpt>
      <trkpt lat="47.31944" lon="6.82799">
        <ele>539.5</ele>
        <time>2021-08-12T07:45:53Z</time>
      </trkpt>
      <trkpt lat="47.31942" lon="6.82798">
        <ele>539.7</ele>
        <time>2021-08-12T07:45:55Z</time>
      </trkpt>
      <trkpt lat="47.31941" lon="6.82797">
        <ele>539.7</ele>
        <time>2021-08-12T07:45:56Z</time>
      </trkpt>
      <trkpt lat="47.3194" lon="6.82797">
        <ele>539.8</ele>
        <time>2021-08-12T07:45:57Z</time>
      </trkpt>
      <trkpt lat="47.31939" lon="6.82796">
        <ele>539.9</ele>
        <time>2021-08-12T07:45:59Z</time>
      </trkpt>
      <trkpt lat="47.31939" lon="6.82796">
        <ele>539.9</ele>
        <time>2021-08-12T07:46:00Z</time>
      </trkpt>
      <trkpt lat="47.3194" lon="6.82795">
        <ele>539.9</ele>
        <time>2021-08-12T07:46:01Z</time>
      </trkpt>
      <trkpt lat="47.3194" lon="6.82794">
        <ele>540</ele>
        <time>2021-08-12T07:46:02Z</time>
      </trkpt>
      <trkpt lat="47.3194" lon="6.82793">
        <ele>540</ele>
        <time>2021-08-12T07:46:03Z</time>
      </trkpt>
      <trkpt lat="47.31936" lon="6.82784">
        <ele>540.5</ele>
        <time>2021-08-12T07:46:04Z</time>
      </trkpt>
      <trkpt lat="47.31931" lon="6.82776">
        <ele>541</ele>
        <time>2021-08-12T07:46:06Z</time>
      </trkpt>
      <trkpt lat="47.31926" lon="6.82768">
        <ele>541.5</ele>
        <time>2021-08-12T07:46:08Z</time>
      </trkpt>
      <trkpt lat="47.31921" lon="6.8276">
        <ele>542</ele>
        <time>2021-08-12T07:46:38Z</time>
      </trkpt>
      <trkpt lat="47.31916" lon="6.82752">
        <ele>542.5</ele>
        <time>2021-08-12T07:46:40Z</time>
      </trkpt>
      <trkpt lat="47.31911" lon="6.82744">
        <ele>542.9</ele>
        <time>2021-08-12T07:46:41Z</time>
      </trkpt>
      <trkpt lat="47.31912" lon="6.82739">
        <ele>543.2</ele>
        <time>2021-08-12T07:46:43Z</time>
      </trkpt>
      <trkpt lat="47.31914" lon="6.82736">
        <ele>543.5</ele>
        <time>2021-08-12T07:46:44Z</time>
      </trkpt>
      <trkpt lat="47.31915" lon="6.82732">
        <ele>543.7</ele>
        <time>2021-08-12T07:46:45Z</time>
      </trkpt>
      <trkpt lat="47.31916" lon="6.8273">
        <ele>543.8</ele>
        <time>2021-08-12T07:46:47Z</time>
      </trkpt>
      <trkpt lat="47.31916" lon="6.82728">
        <ele>543.9</ele>
        <time>2021-08-12T07:46:48Z</time>
      </trkpt>
      <trkpt lat="47.31916" lon="6.82727">
        <ele>543.9</ele>
        <time>2021-08-12T07:46:49Z</time>
      </trkpt>
      <trkpt lat="47.31916" lon="6.82726">
        <ele>544</ele>
        <time>2021-08-12T07:46:50Z</time>
      </trkpt>
      <trkpt lat="47.31915" lon="6.82723">
        <ele>544.1</ele>
        <time>2021-08-12T07:46:52Z</time>
      </trkpt>
      <trkpt lat="47.31818" lon="6.82627">
        <ele>552</ele>
        <time>2021-08-12T07:48:15Z</time>
      </trkpt>
      <trkpt lat="47.31816" lon="6.82624">
        <ele>552.2</ele>
        <time>2021-08-12T07:48:16Z</time>
      </trkpt>
      <trkpt lat="47.31815" lon="6.82623">
        <ele>552.3</ele>
        <time>2021-08-12T07:48:17Z</time>
      </trkpt>
      <trkpt lat="47.31813" lon="6.82619">
        <ele>552.5</ele>
        <time>2021-08-12T07:48:18Z</time>
      </trkpt>
      <trkpt lat="47.31814" lon="6.82616">
        <ele>552.6</ele>
        <time>2021-08-12T07:48:20Z</time>
      </trkpt>
      <trkpt lat="47.31815" lon="6.82609">
        <ele>553</ele>
        <time>2021-08-12T07:48:22Z</time>
      </trkpt>
      <trkpt lat="47.31815" lon="6.82609">
        <ele>553</ele>
        <time>2021-08-12T07:48:23Z</time>
      </trkpt>
      <trkpt lat="47.31816" lon="6.82608">
        <ele>553</ele>
        <time>2021-08-12T07:48:24Z</time>
      </trkpt>
      <trkpt lat="47.31816" lon="6.82608">
        <ele>553</ele>
        <time>2021-08-12T07:48:25Z</time>
      </trkpt>
      <trkpt lat="47.31816" lon="6.82608">
        <ele>553</ele>
        <time>2021-08-12T07:48:26Z</time>
      </trkpt>
      <trkpt lat="47.3175" lon="6.82388">
        <ele>564</ele>
        <time>2021-08-12T07:51:11Z</time>
      </trkpt>
      <trkpt lat="47.31747" lon="6.82382">
        <ele>564.3</ele>
        <time>2021-08-12T07:51:13Z</time>
      </trkpt>
      <trkpt lat="47.31744" lon="6.82376">
        <ele>564.6</ele>
        <time>2021-08-12T07:51:14Z</time>
      </trkpt>
      <trkpt lat="47.31743" lon="6.82372">
        <ele>564.8</ele>
        <time>2021-08-12T07:51:16Z</time>
      </trkpt>
      <trkpt lat="47.31742" lon="6.82371">
        <ele>564.8</ele>
        <time>2021-08-12T07:51:17Z</time>
      </trkpt>
      <trkpt lat="47.31742" lon="6.82366">
        <ele>565</ele>
        <time>2021-08-12T07:51:18Z</time>
      </trkpt>
      <trkpt lat="47.31741" lon="6.82365">
        <ele>565.1</ele>
        <time>2021-08-12T07:51:19Z</time>
      </trkpt>
      <trkpt lat="47.3174" lon="6.8236">
        <ele>565.3</ele>
        <time>2021-08-12T07:51:21Z</time>
      </trkpt>
      <trkpt lat="47.3174" lon="6.82356">
        <ele>565.5</ele>
        <time>2021-08-12T07:51:23Z</time>
      </trkpt>
      <trkpt lat="47.3174" lon="6.82355">
        <ele>565.6</ele>
        <time>2021-08-12T07:51:24Z</time>
      </trkpt>
      <trkpt lat="47.3174" lon="6.82354">
        <ele>565.6</ele>
        <time>2021-08-12T07:51:25Z</time>
      </trkpt>
      <trkpt lat="47.31739" lon="6.82352">
        <ele>565.7</ele>
        <time>2021-08-12T07:51:27Z</time>
      </trkpt>
      <trkpt lat="47.31738" lon="6.82352">
        <ele>565.7</ele>
        <time>2021-08-12T07:51:28Z</time>
      </trkpt>
      <trkpt lat="47.31738" lon="6.82351">
        <ele>565.8</ele>
        <time>2021-08-12T07:51:30Z</time>
      </trkpt>
      <trkpt lat="47.31737" lon="6.8235">
        <ele>565.9</ele>
        <time>2021-08-12T07:51:31Z</time>
      </trkpt>
      <trkpt lat="47.31737" lon="6.82349">
        <ele>565.9</ele>
        <time>2021-08-12T07:51:32Z</time>
      </trkpt>
      <trkpt lat="47.31736" lon="6.82349">
        <ele>566</ele>
        <time>2021-08-12T07:51:33Z</time>
      </trkpt>
      <trkpt lat="47.31736" lon="6.82349">
        <ele>566</ele>
        <time>2021-08-12T07:51:35Z</time>
      </trkpt>
      <trkpt lat="47.31728" lon="6.82346">
        <ele>566.5</ele>
        <time>2021-08-12T07:51:41Z</time>
      </trkpt>
      <trkpt lat="47.31727" lon="6.82345">
        <ele>566.6</ele>
        <time>2021-08-12T07:51:42Z</time>
      </trkpt>
      <trkpt lat="47.31724" lon="6.82345">
        <ele>566.9</ele>
        <time>2021-08-12T07:51:44Z</time>
      </trkpt>
      <trkpt lat="47.31721" lon="6.82343">
        <ele>567.1</ele>
        <time>2021-08-12T07:51:45Z</time>
      </trkpt>
      <trkpt lat="47.31719" lon="6.82343">
        <ele>567.2</ele>
        <time>2021-08-12T07:51:47Z</time>
      </trkpt>
      <trkpt lat="47.31717" lon="6.82343">
        <ele>567.3</ele>
        <time>2021-08-12T07:51:49Z</time>
      </trkpt>
      <trkpt lat="47.31717" lon="6.82343">
        <ele>567.4</ele>
        <time>2021-08-12T07:51:50Z</time>
      </trkpt>
      <trkpt lat="47.31716" lon="6.82343">
        <ele>567.5</ele>
        <time>2021-08-12T07:51:52Z</time>
      </trkpt>
      <trkpt lat="47.31716" lon="6.82342">
        <ele>567.5</ele>
        <time>2021-08-12T07:51:53Z</time>
      </trkpt>
      <trkpt lat="47.31716" lon="6.82342">
        <ele>567.5</ele>
        <time>2021-08-12T07:51:54Z</time>
      </trkpt>
      <trkpt lat="47.31715" lon="6.82342">
        <ele>567.6</ele>
        <time>2021-08-12T07:51:55Z</time>
      </trkpt>
      <trkpt lat="47.31713" lon="6.82342">
        <ele>567.7</ele>
        <time>2021-08-12T07:51:57Z</time>
      </trkpt>
      <trkpt lat="47.31712" lon="6.82344">
        <ele>567.8</ele>
        <time>2021-08-12T07:51:58Z</time>
      </trkpt>
      <trkpt lat="47.31711" lon="6.82344">
        <ele>567.9</ele>
        <time>2021-08-12T07:51:59Z</time>
      </trkpt>
      <trkpt lat="47.31711" lon="6.82345">
        <ele>567.9</ele>
        <time>2021-08-12T07:52:00Z</time>
      </trkpt>
      <trkpt lat="47.3171" lon="6.82345">
        <ele>568</ele>
        <time>2021-08-12T07:52:01Z</time>
      </trkpt>
      <trkpt lat="47.3171" lon="6.82346">
        <ele>568</ele>
        <time>2021-08-12T07:52:03Z</time>
      </trkpt>
      <trkpt lat="47.31709" lon="6.82347">
        <ele>568.1</ele>
        <time>2021-08-12T07:52:04Z</time>
      </trkpt>
      <trkpt lat="47.31709" lon="6.82347">
        <ele>568.1</ele>
        <time>2021-08-12T07:52:05Z</time>
      </trkpt>
      <trkpt lat="47.31708" lon="6.82348">
        <ele>568.2</ele>
        <time>2021-08-12T07:52:07Z</time>
      </trkpt>
      <trkpt lat="47.31708" lon="6.82349">
        <ele>568.3</ele>
        <time>2021-08-12T07:52:08Z</time>
      </trkpt>
      <trkpt lat="47.31707" lon="6.8235">
        <ele>568.4</ele>
        <time>2021-08-12T07:52:09Z</time>
      </trkpt>
      <trkpt lat="47.31706" lon="6.8235">
        <ele>568.4</ele>
        <time>2021-08-12T07:52:10Z</time>
      </trkpt>
      <trkpt lat="47.31706" lon="6.82349">
        <ele>568.5</ele>
        <time>2021-08-12T07:52:12Z</time>
      </trkpt>
      <trkpt lat="47.31706" lon="6.82348">
        <ele>568.5</ele>
        <time>2021-08-12T07:52:13Z</time>
      </trkpt>
      <trkpt lat="47.31707" lon="6.82345">
        <ele>568.7</ele>
        <time>2021-08-12T07:52:15Z</time>
      </trkpt>
      <trkpt lat="47.31708" lon="6.82343">
        <ele>568.8</ele>
        <time>2021-08-12T07:52:16Z</time>
      </trkpt>
      <trkpt lat="47.31709" lon="6.82342">
        <ele>568.9</ele>
        <time>2021-08-12T07:52:17Z</time>
      </trkpt>
      <trkpt lat="47.31713" lon="6.82341">
        <ele>569.2</ele>
        <time>2021-08-12T07:52:19Z</time>
      </trkpt>
      <trkpt lat="47.31713" lon="6.8234">
        <ele>569.2</ele>
        <time>2021-08-12T07:52:20Z</time>
      </trkpt>
      <trkpt lat="47.31715" lon="6.82338">
        <ele>569.4</ele>
        <time>2021-08-12T07:52:22Z</time>
      </trkpt>
      <trkpt lat="47.31715" lon="6.82336">
        <ele>569.5</ele>
        <time>2021-08-12T07:52:23Z</time>
      </trkpt>
      <trkpt lat="47.31716" lon="6.82334">
        <ele>569.6</ele>
        <time>2021-08-12T07:52:24Z</time>
      </trkpt>
      <trkpt lat="47.31716" lon="6.82332">
        <ele>569.7</ele>
        <time>2021-08-12T07:52:26Z</time>
      </trkpt>
      <trkpt lat="47.31716" lon="6.8233">
        <ele>569.8</ele>
        <time>2021-08-12T07:52:27Z</time>
      </trkpt>
      <trkpt lat="47.31715" lon="6.8233">
        <ele>569.9</ele>
        <time>2021-08-12T07:52:28Z</time>
      </trkpt>
      <trkpt lat="47.31715" lon="6.82329">
        <ele>569.9</ele>
        <time>2021-08-12T07:52:29Z</time>
      </trkpt>
      <trkpt lat="47.31715" lon="6.82328">
        <ele>569.9</ele>
        <time>2021-08-12T07:52:31Z</time>
      </trkpt>
      <trkpt lat="47.31716" lon="6.82327">
        <ele>570</ele>
        <time>2021-08-12T07:52:32Z</time>
      </trkpt>
      <trkpt lat="47.31716" lon="6.82326">
        <ele>570</ele>
        <time>2021-08-12T07:52:33Z</time>
      </trkpt>
      <trkpt lat="47.31716" lon="6.82326">
        <ele>570</ele>
        <time>2021-08-12T07:52:35Z</time>
      </trkpt>
      <trkpt lat="47.31716" lon="6.82325">
        <ele>570.1</ele>
        <time>2021-08-12T07:52:36Z</time>
      </trkpt>
      <trkpt lat="47.31716" lon="6.82325">
        <ele>570.1</ele>
        <time>2021-08-12T07:52:37Z</time>
      </trkpt>
      <trkpt lat="47.31717" lon="6.82325">
        <ele>570.2</ele>
        <time>2021-08-12T07:52:39Z</time>
      </trkpt>
      <trkpt lat="47.31718" lon="6.82325">
        <ele>570.2</ele>
        <time>2021-08-12T07:52:40Z</time>
      </trkpt>
      <trkpt lat="47.31719" lon="6.82326">
        <ele>570.2</ele>
        <time>2021-08-12T07:52:41Z</time>
      </trkpt>
      <trkpt lat="47.31719" lon="6.82325">
        <ele>570.3</ele>
        <time>2021-08-12T07:52:42Z</time>
      </trkpt>
      <trkpt lat="47.31719" lon="6.82325">
        <ele>570.3</ele>
        <time>2021-08-12T07:52:43Z</time>
      </trkpt>
      <trkpt lat="47.31719" lon="6.82324">
        <ele>570.3</ele>
        <time>2021-08-12T07:52:45Z</time>
      </trkpt>
      <trkpt lat="47.31719" lon="6.82323">
        <ele>570.4</ele>
        <time>2021-08-12T07:52:47Z</time>
      </trkpt>
      <trkpt lat="47.3172" lon="6.82323">
        <ele>570.4</ele>
        <time>2021-08-12T07:52:48Z</time>
      </trkpt>
      <trkpt lat="47.3172" lon="6.82322">
        <ele>570.5</ele>
        <time>2021-08-12T07:52:50Z</time>
      </trkpt>
      <trkpt lat="47.3172" lon="6.8232">
        <ele>570.5</ele>
        <time>2021-08-12T07:52:51Z</time>
      </trkpt>
      <trkpt lat="47.31721" lon="6.82317">
        <ele>570.6</ele>
        <time>2021-08-12T07:52:52Z</time>
      </trkpt>
      <trkpt lat="47.31721" lon="6.82313">
        <ele>570.8</ele>
        <time>2021-08-12T07:52:54Z</time>
      </trkpt>
      <trkpt lat="47.31721" lon="6.82309">
        <ele>571</ele>
        <time>2021-08-12T07:52:56Z</time>
      </trkpt>
      <trkpt lat="47.31721" lon="6.82309">
        <ele>571</ele>
        <time>2021-08-12T07:52:57Z</time>
      </trkpt>
      <trkpt lat="47.31722" lon="6.82308">
        <ele>571.1</ele>
        <time>2021-08-12T07:52:59Z</time>
      </trkpt>
      <trkpt lat="47.31722" lon="6.82308">
        <ele>571.1</ele>
        <time>2021-08-12T07:53:00Z</time>
      </trkpt>
      <trkpt lat="47.31723" lon="6.82307">
        <ele>571.2</ele>
        <time>2021-08-12T07:53:01Z</time>
      </trkpt>
      <trkpt lat="47.31723" lon="6.82307">
        <ele>571.2</ele>
        <time>2021-08-12T07:53:02Z</time>
      </trkpt>
      <trkpt lat="47.31723" lon="6.82303">
        <ele>571.4</ele>
        <time>2021-08-12T07:53:04Z</time>
      </trkpt>
      <trkpt lat="47.31723" lon="6.823">
        <ele>571.5</ele>
        <time>2021-08-12T07:53:05Z</time>
      </trkpt>
      <trkpt lat="47.31724" lon="6.82299">
        <ele>571.5</ele>
        <time>2021-08-12T07:53:07Z</time>
      </trkpt>
      <trkpt lat="47.31724" lon="6.82299">
        <ele>571.6</ele>
        <time>2021-08-12T07:53:09Z</time>
      </trkpt>
      <trkpt lat="47.31724" lon="6.82298">
        <ele>571.6</ele>
        <time>2021-08-12T07:53:10Z</time>
      </trkpt>
      <trkpt lat="47.31724" lon="6.82298">
        <ele>571.6</ele>
        <time>2021-08-12T07:53:12Z</time>
      </trkpt>
      <trkpt lat="47.31724" lon="6.82298">
        <ele>571.6</ele>
        <time>2021-08-12T07:53:13Z</time>
      </trkpt>
      <trkpt lat="47.31724" lon="6.82298">
        <ele>571.6</ele>
        <time>2021-08-12T07:53:14Z</time>
      </trkpt>
      <trkpt lat="47.31724" lon="6.82298">
        <ele>571.6</ele>
        <time>2021-08-12T07:53:16Z</time>
      </trkpt>
      <trkpt lat="47.31724" lon="6.823">
        <ele>571.7</ele>
        <time>2021-08-12T07:53:17Z</time>
      </trkpt>
      <trkpt lat="47.31723" lon="6.82303">
        <ele>571.8</ele>
        <time>2021-08-12T07:53:19Z</time>
      </trkpt>
      <trkpt lat="47.31723" lon="6.82304">
        <ele>571.8</ele>
        <time>2021-08-12T07:53:20Z</time>
      </trkpt>
      <trkpt lat="47.31723" lon="6.82306">
        <ele>571.9</ele>
        <time>2021-08-12T07:53:22Z</time>
      </trkpt>
      <trkpt lat="47.31724" lon="6.82306">
        <ele>572</ele>
        <time>2021-08-12T07:53:24Z</time>
      </trkpt>
      <trkpt lat="47.31724" lon="6.82306">
        <ele>572</ele>
        <time>2021-08-12T07:53:25Z</time>
      </trkpt>
      <trkpt lat="47.31724" lon="6.82305">
        <ele>572</ele>
        <time>2021-08-12T07:53:26Z</time>
      </trkpt>
      <trkpt lat="47.31724" lon="6.82304">
        <ele>572</ele>
        <time>2021-08-12T07:53:27Z</time>
      </trkpt>
      <trkpt lat="47.31724" lon="6.82304">
        <ele>572</ele>
        <time>2021-08-12T07:53:28Z</time>
      </trkpt>
      <trkpt lat="47.31724" lon="6.82304">
        <ele>572.1</ele>
        <time>2021-08-12T07:53:30Z</time>
      </trkpt>
      <trkpt lat="47.31723" lon="6.82304">
        <ele>572.1</ele>
        <time>2021-08-12T07:53:31Z</time>
      </trkpt>
      <trkpt lat="47.31722" lon="6.82304">
        <ele>572.2</ele>
        <time>2021-08-12T07:53:33Z</time>
      </trkpt>
      <trkpt lat="47.31721" lon="6.82305">
        <ele>572.3</ele>
        <time>2021-08-12T07:53:35Z</time>
      </trkpt>
      <trkpt lat="47.3172" lon="6.82305">
        <ele>572.3</ele>
        <time>2021-08-12T07:53:36Z</time>
      </trkpt>
      <trkpt lat="47.3172" lon="6.82308">
        <ele>572.4</ele>
        <time>2021-08-12T07:53:38Z</time>
      </trkpt>
      <trkpt lat="47.31721" lon="6.82309">
        <ele>572.4</ele>
        <time>2021-08-12T07:53:39Z</time>
      </trkpt>
      <trkpt lat="47.31721" lon="6.8231">
        <ele>572.5</ele>
        <time>2021-08-12T07:53:40Z</time>
      </trkpt>
      <trkpt lat="47.31721" lon="6.8231">
        <ele>572.5</ele>
        <time>2021-08-12T07:53:41Z</time>
      </trkpt>
      <trkpt lat="47.31702" lon="6.8234">
        <ele>574.3</ele>
        <time>2021-08-12T07:55:25Z</time>
      </trkpt>
      <trkpt lat="47.317" lon="6.8234">
        <ele>574.5</ele>
        <time>2021-08-12T07:55:27Z</time>
      </trkpt>
      <trkpt lat="47.317" lon="6.8234">
        <ele>574.5</ele>
        <time>2021-08-12T07:55:28Z</time>
      </trkpt>
      <trkpt lat="47.317" lon="6.8234">
        <ele>574.5</ele>
        <time>2021-08-12T07:55:29Z</time>
      </trkpt>
      <trkpt lat="47.31699" lon="6.8234">
        <ele>574.5</ele>
        <time>2021-08-12T07:55:30Z</time>
      </trkpt>
      <trkpt lat="47.31699" lon="6.8234">
        <ele>574.6</ele>
        <time>2021-08-12T07:55:31Z</time>
      </trkpt>
      <trkpt lat="47.31698" lon="6.8234">
        <ele>574.6</ele>
        <time>2021-08-12T07:55:33Z</time>
      </trkpt>
      <trkpt lat="47.31698" lon="6.8234">
        <ele>574.7</ele>
        <time>2021-08-12T07:55:34Z</time>
      </trkpt>
      <trkpt lat="47.31698" lon="6.82341">
        <ele>574.7</ele>
        <time>2021-08-12T07:55:36Z</time>
      </trkpt>
      <trkpt lat="47.31698" lon="6.82342">
        <ele>574.8</ele>
        <time>2021-08-12T07:55:37Z</time>
      </trkpt>
      <trkpt lat="47.31699" lon="6.82346">
        <ele>575</ele>
        <time>2021-08-12T07:55:39Z</time>
      </trkpt>
      <trkpt lat="47.317" lon="6.82349">
        <ele>575.2</ele>
        <time>2021-08-12T07:55:41Z</time>
      </trkpt>
      <trkpt lat="47.317" lon="6.82351">
        <ele>575.3</ele>
        <time>2021-08-12T07:55:42Z</time>
      </trkpt>
      <trkpt lat="47.317" lon="6.82354">
        <ele>575.5</ele>
        <time>2021-08-12T07:55:43Z</time>
      </trkpt>
      <trkpt lat="47.317" lon="6.82357">
        <ele>575.6</ele>
        <time>2021-08-12T07:55:45Z</time>
      </trkpt>
      <trkpt lat="47.31699" lon="6.82359">
        <ele>575.8</ele>
        <time>2021-08-12T07:55:46Z</time>
      </trkpt>
      <trkpt lat="47.31698" lon="6.82362">
        <ele>575.9</ele>
        <time>2021-08-12T07:55:48Z</time>
      </trkpt>
      <trkpt lat="47.31695" lon="6.82366">
        <ele>576.2</ele>
        <time>2021-08-12T07:55:49Z</time>
      </trkpt>
      <trkpt lat="47.31692" lon="6.82372">
        <ele>576.6</ele>
        <time>2021-08-12T07:55:51Z</time>
      </trkpt>
      <trkpt lat="47.31691" lon="6.82375">
        <ele>576.8</ele>
        <time>2021-08-12T07:55:52Z</time>
      </trkpt>
      <trkpt lat="47.3169" lon="6.82377">
        <ele>576.9</ele>
        <time>2021-08-12T07:55:54Z</time>
      </trkpt>
      <trkpt lat="47.31689" lon="6.82377">
        <ele>577</ele>
        <time>2021-08-12T07:55:55Z</time>
      </trkpt>
      <trkpt lat="47.31688" lon="6.82377">
        <ele>577.1</ele>
        <time>2021-08-12T07:55:57Z</time>
      </trkpt>
      <trkpt lat="47.31688" lon="6.82377">
        <ele>577.2</ele>
        <time>2021-08-12T07:55:59Z</time>
      </trkpt>
      <trkpt lat="47.31688" lon="6.82376">
        <ele>577.2</ele>
        <time>2021-08-12T07:56:01Z</time>
      </trkpt>
      <trkpt lat="47.31687" lon="6.82375">
        <ele>577.3</ele>
        <time>2021-08-12T07:56:02Z</time>
      </trkpt>
      <trkpt lat="47.31687" lon="6.82375">
        <ele>577.3</ele>
        <time>2021-08-12T07:56:04Z</time>
      </trkpt>
      <trkpt lat="47.31687" lon="6.82374">
        <ele>577.4</ele>
        <time>2021-08-12T07:56:05Z</time>
      </trkpt>
      <trkpt lat="47.31687" lon="6.82373">
        <ele>577.4</ele>
        <time>2021-08-12T07:56:06Z</time>
      </trkpt>
      <trkpt lat="47.31686" lon="6.82372">
        <ele>577.5</ele>
        <time>2021-08-12T07:56:07Z</time>
      </trkpt>
      <trkpt lat="47.31693" lon="6.82367">
        <ele>578.2</ele>
        <time>2021-08-12T07:56:17Z</time>
      </trkpt>
      <trkpt lat="47.31695" lon="6.82367">
        <ele>578.3</ele>
        <time>2021-08-12T07:56:19Z</time>
      </trkpt>
      <trkpt lat="47.31695" lon="6.82369">
        <ele>578.4</ele>
        <time>2021-08-12T07:56:21Z</time>
      </trkpt>
      <trkpt lat="47.31694" lon="6.82371">
        <ele>578.5</ele>
        <time>2021-08-12T07:56:22Z</time>
      </trkpt>
      <trkpt lat="47.31693" lon="6.82372">
        <ele>578.7</ele>
        <time>2021-08-12T07:56:23Z</time>
      </trkpt>
      <trkpt lat="47.31692" lon="6.82374">
        <ele>578.8</ele>
        <time>2021-08-12T07:56:24Z</time>
      </trkpt>
      <trkpt lat="47.31692" lon="6.82378">
        <ele>579</ele>
        <time>2021-08-12T07:56:26Z</time>
      </trkpt>
      <trkpt lat="47.31692" lon="6.8238">
        <ele>579.1</ele>
        <time>2021-08-12T07:56:27Z</time>
      </trkpt>
      <trkpt lat="47.31691" lon="6.82381">
        <ele>579.2</ele>
        <time>2021-08-12T07:56:28Z</time>
      </trkpt>
      <trkpt lat="47.31691" lon="6.82384">
        <ele>579.3</ele>
        <time>2021-08-12T07:56:29Z</time>
      </trkpt>
      <trkpt lat="47.31691" lon="6.82386">
        <ele>579.4</ele>
        <time>2021-08-12T07:56:30Z</time>
      </trkpt>
      <trkpt lat="47.31691" lon="6.82388">
        <ele>579.5</ele>
        <time>2021-08-12T07:56:31Z</time>
      </trkpt>
      <trkpt lat="47.31692" lon="6.82393">
        <ele>579.8</ele>
        <time>2021-08-12T07:56:33Z</time>
      </trkpt>
      <trkpt lat="47.31692" lon="6.82397">
        <ele>579.9</ele>
        <time>2021-08-12T07:56:34Z</time>
      </trkpt>
      <trkpt lat="47.31692" lon="6.824">
        <ele>580.1</ele>
        <time>2021-08-12T07:56:36Z</time>
      </trkpt>
      <trkpt lat="47.31692" lon="6.82414">
        <ele>580.7</ele>
        <time>2021-08-12T07:56:37Z</time>
      </trkpt>
      <trkpt lat="47.31693" lon="6.82434">
        <ele>581.5</ele>
        <time>2021-08-12T07:56:38Z</time>
      </trkpt>
      <trkpt lat="47.31694" lon="6.82441">
        <ele>581.7</ele>
        <time>2021-08-12T07:56:40Z</time>
      </trkpt>
      <trkpt lat="47.31694" lon="6.82443">
        <ele>581.8</ele>
        <time>2021-08-12T07:56:41Z</time>
      </trkpt>
      <trkpt lat="47.31695" lon="6.82445">
        <ele>581.9</ele>
        <time>2021-08-12T07:56:42Z</time>
      </trkpt>
      <trkpt lat="47.31697" lon="6.82447">
        <ele>582</ele>
        <time>2021-08-12T07:56:43Z</time>
      </trkpt>
      <trkpt lat="47.31698" lon="6.82447">
        <ele>582</ele>
        <time>2021-08-12T07:56:45Z</time>
      </trkpt>
      <trkpt lat="47.31699" lon="6.82448">
        <ele>582.1</ele>
        <time>2021-08-12T07:56:47Z</time>
      </trkpt>
      <trkpt lat="47.31701" lon="6.82449">
        <ele>582.2</ele>
        <time>2021-08-12T07:56:48Z</time>
      </trkpt>
      <trkpt lat="47.31702" lon="6.8245">
        <ele>582.2</ele>
        <time>2021-08-12T07:56:49Z</time>
      </trkpt>
      <trkpt lat="47.31703" lon="6.82451">
        <ele>582.3</ele>
        <time>2021-08-12T07:56:50Z</time>
      </trkpt>
      <trkpt lat="47.31704" lon="6.82454">
        <ele>582.4</ele>
        <time>2021-08-12T07:56:52Z</time>
      </trkpt>
      <trkpt lat="47.31704" lon="6.82455">
        <ele>582.4</ele>
        <time>2021-08-12T07:56:54Z</time>
      </trkpt>
      <trkpt lat="47.31705" lon="6.82456">
        <ele>582.4</ele>
        <time>2021-08-12T07:56:55Z</time>
      </trkpt>
      <trkpt lat="47.31705" lon="6.82458">
        <ele>582.5</ele>
        <time>2021-08-12T07:56:56Z</time>
      </trkpt>
      <trkpt lat="47.31703" lon="6.82462">
        <ele>582.6</ele>
        <time>2021-08-12T07:56:58Z</time>
      </trkpt>
      <trkpt lat="47.31702" lon="6.82466">
        <ele>582.7</ele>
        <time>2021-08-12T07:56:59Z</time>
      </trkpt>
      <trkpt lat="47.31701" lon="6.82467">
        <ele>582.8</ele>
        <time>2021-08-12T07:57:00Z</time>
      </trkpt>
      <trkpt lat="47.317" lon="6.82469">
        <ele>582.8</ele>
        <time>2021-08-12T07:57:02Z</time>
      </trkpt>
      <trkpt lat="47.31699" lon="6.82471">
        <ele>582.9</ele>
        <time>2021-08-12T07:57:03Z</time>
      </trkpt>
      <trkpt lat="47.31698" lon="6.82477">
        <ele>583.1</ele>
        <time>2021-08-12T07:57:05Z</time>
      </trkpt>
      <trkpt lat="47.31698" lon="6.82478">
        <ele>583.1</ele>
        <time>2021-08-12T07:57:06Z</time>
      </trkpt>
      <trkpt lat="47.31698" lon="6.82479">
        <ele>583.1</ele>
        <time>2021-08-12T07:57:07Z</time>
      </trkpt>
      <trkpt lat="47.31699" lon="6.8248">
        <ele>583.2</ele>
        <time>2021-08-12T07:57:08Z</time>
      </trkpt>
      <trkpt lat="47.31699" lon="6.82481">
        <ele>583.2</ele>
        <time>2021-08-12T07:57:09Z</time>
      </trkpt>
      <trkpt lat="47.31699" lon="6.82483">
        <ele>583.3</ele>
        <time>2021-08-12T07:57:11Z</time>
      </trkpt>
      <trkpt lat="47.317" lon="6.82485">
        <ele>583.3</ele>
        <time>2021-08-12T07:57:12Z</time>
      </trkpt>
      <trkpt lat="47.317" lon="6.8249">
        <ele>583.5</ele>
        <time>2021-08-12T07:57:14Z</time>
      </trkpt>
      <trkpt lat="47.31701" lon="6.82494">
        <ele>583.6</ele>
        <time>2021-08-12T07:57:15Z</time>
      </trkpt>
      <trkpt lat="47.31702" lon="6.82498">
        <ele>583.7</ele>
        <time>2021-08-12T07:57:17Z</time>
      </trkpt>
      <trkpt lat="47.31703" lon="6.82499">
        <ele>583.8</ele>
        <time>2021-08-12T07:57:18Z</time>
      </trkpt>
      <trkpt lat="47.31705" lon="6.82501">
        <ele>583.9</ele>
        <time>2021-08-12T07:57:20Z</time>
      </trkpt>
      <trkpt lat="47.31708" lon="6.82504">
        <ele>584</ele>
        <time>2021-08-12T07:57:21Z</time>
      </trkpt>
      <trkpt lat="47.31709" lon="6.82505">
        <ele>584.1</ele>
        <time>2021-08-12T07:57:22Z</time>
      </trkpt>
      <trkpt lat="47.31709" lon="6.82507">
        <ele>584.1</ele>
        <time>2021-08-12T07:57:24Z</time>
      </trkpt>
      <trkpt lat="47.31709" lon="6.82509">
        <ele>584.2</ele>
        <time>2021-08-12T07:57:25Z</time>
      </trkpt>
      <trkpt lat="47.31732" lon="6.82589">
        <ele>587.4</ele>
        <time>2021-08-12T07:58:05Z</time>
      </trkpt>
      <trkpt lat="47.31733" lon="6.82593">
        <ele>587.6</ele>
        <time>2021-08-12T07:58:06Z</time>
      </trkpt>
      <trkpt lat="47.31734" lon="6.82597">
        <ele>587.7</ele>
        <time>2021-08-12T07:58:07Z</time>
      </trkpt>
      <trkpt lat="47.31735" lon="6.82598">
        <ele>587.8</ele>
        <time>2021-08-12T07:58:08Z</time>
      </trkpt>
      <trkpt lat="47.31735" lon="6.826">
        <ele>587.9</ele>
        <time>2021-08-12T07:58:09Z</time>
      </trkpt>
      <trkpt lat="47.31736" lon="6.826">
        <ele>587.9</ele>
        <time>2021-08-12T07:58:10Z</time>
      </trkpt>
      <trkpt lat="47.31738" lon="6.82603">
        <ele>588.1</ele>
        <time>2021-08-12T07:58:13Z</time>
      </trkpt>
      <trkpt lat="47.31739" lon="6.82605">
        <ele>588.2</ele>
        <time>2021-08-12T07:58:14Z</time>
      </trkpt>
      <trkpt lat="47.3174" lon="6.82607">
        <ele>588.3</ele>
        <time>2021-08-12T07:58:15Z</time>
      </trkpt>
      <trkpt lat="47.3174" lon="6.8261">
        <ele>588.4</ele>
        <time>2021-08-12T07:58:17Z</time>
      </trkpt>
      <trkpt lat="47.3174" lon="6.82612">
        <ele>588.5</ele>
        <time>2021-08-12T07:58:18Z</time>
      </trkpt>
      <trkpt lat="47.3174" lon="6.82614">
        <ele>588.5</ele>
        <time>2021-08-12T07:58:19Z</time>
      </trkpt>
      <trkpt lat="47.3174" lon="6.82615">
        <ele>588.6</ele>
        <time>2021-08-12T07:58:20Z</time>
      </trkpt>
      <trkpt lat="47.31768" lon="6.82641">
        <ele>590.5</ele>
        <time>2021-08-12T07:58:46Z</time>
      </trkpt>
      <trkpt lat="47.31769" lon="6.82643">
        <ele>590.6</ele>
        <time>2021-08-12T07:58:47Z</time>
      </trkpt>
      <trkpt lat="47.31771" lon="6.82647">
        <ele>590.8</ele>
        <time>2021-08-12T07:58:49Z</time>
      </trkpt>
      <trkpt lat="47.31771" lon="6.8265">
        <ele>590.9</ele>
        <time>2021-08-12T07:58:51Z</time>
      </trkpt>
      <trkpt lat="47.31771" lon="6.82651">
        <ele>590.9</ele>
        <time>2021-08-12T07:58:52Z</time>
      </trkpt>
      <trkpt lat="47.31772" lon="6.82653">
        <ele>591</ele>
        <time>2021-08-12T07:58:53Z</time>
      </trkpt>
      <trkpt lat="47.31772" lon="6.82656">
        <ele>591.2</ele>
        <time>2021-08-12T07:58:54Z</time>
      </trkpt>
      <trkpt lat="47.31773" lon="6.82658">
        <ele>591.3</ele>
        <time>2021-08-12T07:58:56Z</time>
      </trkpt>
      <trkpt lat="47.31774" lon="6.82659">
        <ele>591.3</ele>
        <time>2021-08-12T07:58:57Z</time>
      </trkpt>
      <trkpt lat="47.31774" lon="6.8266">
        <ele>591.4</ele>
        <time>2021-08-12T07:58:58Z</time>
      </trkpt>
      <trkpt lat="47.31774" lon="6.82661">
        <ele>591.4</ele>
        <time>2021-08-12T07:58:59Z</time>
      </trkpt>
      <trkpt lat="47.31774" lon="6.82662">
        <ele>591.4</ele>
        <time>2021-08-12T07:59:01Z</time>
      </trkpt>
      <trkpt lat="47.31774" lon="6.82664">
        <ele>591.5</ele>
        <time>2021-08-12T07:59:02Z</time>
      </trkpt>
      <trkpt lat="47.31774" lon="6.82665">
        <ele>591.6</ele>
        <time>2021-08-12T07:59:03Z</time>
      </trkpt>
      <trkpt lat="47.31824" lon="6.82787">
        <ele>596.9</ele>
        <time>2021-08-12T08:00:25Z</time>
      </trkpt>
      <trkpt lat="47.31823" lon="6.82795">
        <ele>597.3</ele>
        <time>2021-08-12T08:00:27Z</time>
      </trkpt>
      <trkpt lat="47.31818" lon="6.82808">
        <ele>597.8</ele>
        <time>2021-08-12T08:00:28Z</time>
      </trkpt>
      <trkpt lat="47.31815" lon="6.82816">
        <ele>598.1</ele>
        <time>2021-08-12T08:00:29Z</time>
      </trkpt>
      <trkpt lat="47.31813" lon="6.8282">
        <ele>598.3</ele>
        <time>2021-08-12T08:00:31Z</time>
      </trkpt>
      <trkpt lat="47.31813" lon="6.82822">
        <ele>598.4</ele>
        <time>2021-08-12T08:00:32Z</time>
      </trkpt>
      <trkpt lat="47.31812" lon="6.82824">
        <ele>598.5</ele>
        <time>2021-08-12T08:00:33Z</time>
      </trkpt>
      <trkpt lat="47.31811" lon="6.82825">
        <ele>598.5</ele>
        <time>2021-08-12T08:00:34Z</time>
      </trkpt>
      <trkpt lat="47.31811" lon="6.82826">
        <ele>598.5</ele>
        <time>2021-08-12T08:00:35Z</time>
      </trkpt>
      <trkpt lat="47.31811" lon="6.82826">
        <ele>598.6</ele>
        <time>2021-08-12T08:00:36Z</time>
      </trkpt>
      <trkpt lat="47.31812" lon="6.82827">
        <ele>598.6</ele>
        <time>2021-08-12T08:00:37Z</time>
      </trkpt>
      <trkpt lat="47.31813" lon="6.82827">
        <ele>598.7</ele>
        <time>2021-08-12T08:00:38Z</time>
      </trkpt>
      <trkpt lat="47.31814" lon="6.82828">
        <ele>598.7</ele>
        <time>2021-08-12T08:00:40Z</time>
      </trkpt>
      <trkpt lat="47.31815" lon="6.82831">
        <ele>598.8</ele>
        <time>2021-08-12T08:00:41Z</time>
      </trkpt>
      <trkpt lat="47.31816" lon="6.82833">
        <ele>598.9</ele>
        <time>2021-08-12T08:00:42Z</time>
      </trkpt>
      <trkpt lat="47.31818" lon="6.82838">
        <ele>599.1</ele>
        <time>2021-08-12T08:00:43Z</time>
      </trkpt>
      <trkpt lat="47.31818" lon="6.82841">
        <ele>599.2</ele>
        <time>2021-08-12T08:00:44Z</time>
      </trkpt>
      <trkpt lat="47.31819" lon="6.82844">
        <ele>599.4</ele>
        <time>2021-08-12T08:00:45Z</time>
      </trkpt>
      <trkpt lat="47.31821" lon="6.82847">
        <ele>599.5</ele>
        <time>2021-08-12T08:00:47Z</time>
      </trkpt>
      <trkpt lat="47.31823" lon="6.8285">
        <ele>599.7</ele>
        <time>2021-08-12T08:00:48Z</time>
      </trkpt>
      <trkpt lat="47.31823" lon="6.82851">
        <ele>599.7</ele>
        <time>2021-08-12T08:00:50Z</time>
      </trkpt>
      <trkpt lat="47.31824" lon="6.82852">
        <ele>599.8</ele>
        <time>2021-08-12T08:00:51Z</time>
      </trkpt>
      <trkpt lat="47.31826" lon="6.82853">
        <ele>599.9</ele>
        <time>2021-08-12T08:00:52Z</time>
      </trkpt>
      <trkpt lat="47.31826" lon="6.82852">
        <ele>599.9</ele>
        <time>2021-08-12T08:00:53Z</time>
      </trkpt>
      <trkpt lat="47.31826" lon="6.82851">
        <ele>599.9</ele>
        <time>2021-08-12T08:00:54Z</time>
      </trkpt>
      <trkpt lat="47.31825" lon="6.82851">
        <ele>600</ele>
        <time>2021-08-12T08:00:55Z</time>
      </trkpt>
      <trkpt lat="47.31825" lon="6.82851">
        <ele>600</ele>
        <time>2021-08-12T08:00:56Z</time>
      </trkpt>
      <trkpt lat="47.31826" lon="6.8285">
        <ele>600</ele>
        <time>2021-08-12T08:00:58Z</time>
      </trkpt>
      <trkpt lat="47.31827" lon="6.82849">
        <ele>600.1</ele>
        <time>2021-08-12T08:00:59Z</time>
      </trkpt>
      <trkpt lat="47.31829" lon="6.8285">
        <ele>600.2</ele>
        <time>2021-08-12T08:01:00Z</time>
      </trkpt>
      <trkpt lat="47.3183" lon="6.82851">
        <ele>600.3</ele>
        <time>2021-08-12T08:01:01Z</time>
      </trkpt>
      <trkpt lat="47.31831" lon="6.82851">
        <ele>600.3</ele>
        <time>2021-08-12T08:01:02Z</time>
      </trkpt>
      <trkpt lat="47.31832" lon="6.82853">
        <ele>600.4</ele>
        <time>2021-08-12T08:01:03Z</time>
      </trkpt>
      <trkpt lat="47.31833" lon="6.82854">
        <ele>600.5</ele>
        <time>2021-08-12T08:01:04Z</time>
      </trkpt>
      <trkpt lat="47.31837" lon="6.82861">
        <ele>600.8</ele>
        <time>2021-08-12T08:01:06Z</time>
      </trkpt>
      <trkpt lat="47.31843" lon="6.82872">
        <ele>601.4</ele>
        <time>2021-08-12T08:01:07Z</time>
      </trkpt>
      <trkpt lat="47.31846" lon="6.82875">
        <ele>601.6</ele>
        <time>2021-08-12T08:01:08Z</time>
      </trkpt>
      <trkpt lat="47.31849" lon="6.82872">
        <ele>601.7</ele>
        <time>2021-08-12T08:01:10Z</time>
      </trkpt>
      <trkpt lat="47.31849" lon="6.8287">
        <ele>601.8</ele>
        <time>2021-08-12T08:01:11Z</time>
      </trkpt>
      <trkpt lat="47.31849" lon="6.82868">
        <ele>601.9</ele>
        <time>2021-08-12T08:01:12Z</time>
      </trkpt>
      <trkpt lat="47.31848" lon="6.82864">
        <ele>602</ele>
        <time>2021-08-12T08:01:14Z</time>
      </trkpt>
      <trkpt lat="47.31848" lon="6.82863">
        <ele>602</ele>
        <time>2021-08-12T08:01:15Z</time>
      </trkpt>
      <trkpt lat="47.31847" lon="6.82863">
        <ele>602.1</ele>
        <time>2021-08-12T08:01:16Z</time>
      </trkpt>
      <trkpt lat="47.31846" lon="6.82864">
        <ele>602.1</ele>
        <time>2021-08-12T08:01:18Z</time>
      </trkpt>
      <trkpt lat="47.31846" lon="6.82864">
        <ele>602.1</ele>
        <time>2021-08-12T08:01:19Z</time>
      </trkpt>
      <trkpt lat="47.31845" lon="6.82866">
        <ele>602.2</ele>
        <time>2021-08-12T08:01:21Z</time>
      </trkpt>
      <trkpt lat="47.31844" lon="6.82868">
        <ele>602.3</ele>
        <time>2021-08-12T08:01:22Z</time>
      </trkpt>
      <trkpt lat="47.31843" lon="6.82871">
        <ele>602.4</ele>
        <time>2021-08-12T08:01:24Z</time>
      </trkpt>
      <trkpt lat="47.31842" lon="6.82873">
        <ele>602.5</ele>
        <time>2021-08-12T08:01:25Z</time>
      </trkpt>
      <trkpt lat="47.31838" lon="6.82929">
        <ele>604.4</ele>
        <time>2021-08-12T08:01:50Z</time>
      </trkpt>
      <trkpt lat="47.31837" lon="6.82935">
        <ele>604.7</ele>
        <time>2021-08-12T08:01:51Z</time>
      </trkpt>
      <trkpt lat="47.31836" lon="6.82938">
        <ele>604.8</ele>
        <time>2021-08-12T08:01:52Z</time>
      </trkpt>
      <trkpt lat="47.31834" lon="6.82944">
        <ele>605</ele>
        <time>2021-08-12T08:01:54Z</time>
      </trkpt>
      <trkpt lat="47.31833" lon="6.82948">
        <ele>605.2</ele>
        <time>2021-08-12T08:01:55Z</time>
      </trkpt>
      <trkpt lat="47.31834" lon="6.82954">
        <ele>605.4</ele>
        <time>2021-08-12T08:01:56Z</time>
      </trkpt>
      <trkpt lat="47.31834" lon="6.82964">
        <ele>605.8</ele>
        <time>2021-08-12T08:01:57Z</time>
      </trkpt>
      <trkpt lat="47.31835" lon="6.8297">
        <ele>606.1</ele>
        <time>2021-08-12T08:01:58Z</time>
      </trkpt>
      <trkpt lat="47.31835" lon="6.82973">
        <ele>606.3</ele>
        <time>2021-08-12T08:02:00Z</time>
      </trkpt>
      <trkpt lat="47.31836" lon="6.82975">
        <ele>606.3</ele>
        <time>2021-08-12T08:02:01Z</time>
      </trkpt>
      <trkpt lat="47.31836" lon="6.82976">
        <ele>606.4</ele>
        <time>2021-08-12T08:02:02Z</time>
      </trkpt>
      <trkpt lat="47.31837" lon="6.82975">
        <ele>606.4</ele>
        <time>2021-08-12T08:02:04Z</time>
      </trkpt>
      <trkpt lat="47.31837" lon="6.82975">
        <ele>606.4</ele>
        <time>2021-08-12T08:02:05Z</time>
      </trkpt>
      <trkpt lat="47.31837" lon="6.82975">
        <ele>606.5</ele>
        <time>2021-08-12T08:02:07Z</time>
      </trkpt>
      <trkpt lat="47.31838" lon="6.82974">
        <ele>606.5</ele>
        <time>2021-08-12T08:02:08Z</time>
      </trkpt>
      <trkpt lat="47.31838" lon="6.82974">
        <ele>606.5</ele>
        <time>2021-08-12T08:02:10Z</time>
      </trkpt>
      <trkpt lat="47.31839" lon="6.82974">
        <ele>606.6</ele>
        <time>2021-08-12T08:02:11Z</time>
      </trkpt>
      <trkpt lat="47.31839" lon="6.82974">
        <ele>606.6</ele>
        <time>2021-08-12T08:02:12Z</time>
      </trkpt>
      <trkpt lat="47.3184" lon="6.82975">
        <ele>606.7</ele>
        <time>2021-08-12T08:02:14Z</time>
      </trkpt>
      <trkpt lat="47.31841" lon="6.82977">
        <ele>606.7</ele>
        <time>2021-08-12T08:02:16Z</time>
      </trkpt>
      <trkpt lat="47.31846" lon="6.8303">
        <ele>608.8</ele>
        <time>2021-08-12T08:02:29Z</time>
      </trkpt>
      <trkpt lat="47.31848" lon="6.83042">
        <ele>609.3</ele>
        <time>2021-08-12T08:02:30Z</time>
      </trkpt>
      <trkpt lat="47.31849" lon="6.83053">
        <ele>609.7</ele>
        <time>2021-08-12T08:02:31Z</time>
      </trkpt>
      <trkpt lat="47.31851" lon="6.83067">
        <ele>610.3</ele>
        <time>2021-08-12T08:02:33Z</time>
      </trkpt>
      <trkpt lat="47.31851" lon="6.83064">
        <ele>610.4</ele>
        <time>2021-08-12T08:02:34Z</time>
      </trkpt>
      <trkpt lat="47.31851" lon="6.83064">
        <ele>610.5</ele>
        <time>2021-08-12T08:02:35Z</time>
      </trkpt>
      <trkpt lat="47.31851" lon="6.83064">
        <ele>610.5</ele>
        <time>2021-08-12T08:02:37Z</time>
      </trkpt>
      <trkpt lat="47.31851" lon="6.83064">
        <ele>610.5</ele>
        <time>2021-08-12T08:02:38Z</time>
      </trkpt>
      <trkpt lat="47.31851" lon="6.83063">
        <ele>610.5</ele>
        <time>2021-08-12T08:02:39Z</time>
      </trkpt>
      <trkpt lat="47.31851" lon="6.83063">
        <ele>610.5</ele>
        <time>2021-08-12T08:02:40Z</time>
      </trkpt>
      <trkpt lat="47.31851" lon="6.83063">
        <ele>610.5</ele>
        <time>2021-08-12T08:02:42Z</time>
      </trkpt>
      <trkpt lat="47.31852" lon="6.83064">
        <ele>610.6</ele>
        <time>2021-08-12T08:02:43Z</time>
      </trkpt>
      <trkpt lat="47.31852" lon="6.83064">
        <ele>610.6</ele>
        <time>2021-08-12T08:02:44Z</time>
      </trkpt>
      <trkpt lat="47.31872" lon="6.83257">
        <ele>618.5</ele>
        <time>2021-08-12T08:04:44Z</time>
      </trkpt>
      <trkpt lat="47.31874" lon="6.83262">
        <ele>618.8</ele>
        <time>2021-08-12T08:04:46Z</time>
      </trkpt>
      <trkpt lat="47.31876" lon="6.83265">
        <ele>619</ele>
        <time>2021-08-12T08:04:47Z</time>
      </trkpt>
      <trkpt lat="47.31877" lon="6.83265">
        <ele>619.1</ele>
        <time>2021-08-12T08:04:48Z</time>
      </trkpt>
      <trkpt lat="47.3188" lon="6.83269">
        <ele>619.3</ele>
        <time>2021-08-12T08:04:50Z</time>
      </trkpt>
      <trkpt lat="47.31882" lon="6.8327">
        <ele>619.4</ele>
        <time>2021-08-12T08:04:51Z</time>
      </trkpt>
      <trkpt lat="47.31883" lon="6.8327">
        <ele>619.5</ele>
        <time>2021-08-12T08:04:52Z</time>
      </trkpt>
      <trkpt lat="47.31883" lon="6.8327">
        <ele>619.6</ele>
        <time>2021-08-12T08:04:54Z</time>
      </trkpt>
      <trkpt lat="47.31884" lon="6.8327">
        <ele>619.6</ele>
        <time>2021-08-12T08:04:55Z</time>
      </trkpt>
      <trkpt lat="47.31887" lon="6.8327">
        <ele>619.8</ele>
        <time>2021-08-12T08:04:57Z</time>
      </trkpt>
      <trkpt lat="47.31889" lon="6.83271">
        <ele>619.9</ele>
        <time>2021-08-12T08:04:58Z</time>
      </trkpt>
      <trkpt lat="47.31891" lon="6.83271">
        <ele>620</ele>
        <time>2021-08-12T08:04:59Z</time>
      </trkpt>
      <trkpt lat="47.31891" lon="6.83273">
        <ele>620.1</ele>
        <time>2021-08-12T08:05:00Z</time>
      </trkpt>
      <trkpt lat="47.31893" lon="6.83406">
        <ele>625.9</ele>
        <time>2021-08-12T08:06:03Z</time>
      </trkpt>
      <trkpt lat="47.31893" lon="6.83408">
        <ele>626</ele>
        <time>2021-08-12T08:06:04Z</time>
      </trkpt>
      <trkpt lat="47.31893" lon="6.83409">
        <ele>626</ele>
        <time>2021-08-12T08:06:05Z</time>
      </trkpt>
      <trkpt lat="47.31893" lon="6.83411">
        <ele>626.1</ele>
        <time>2021-08-12T08:06:06Z</time>
      </trkpt>
      <trkpt lat="47.31893" lon="6.83414">
        <ele>626.2</ele>
        <time>2021-08-12T08:06:07Z</time>
      </trkpt>
      <trkpt lat="47.31892" lon="6.83416">
        <ele>626.3</ele>
        <time>2021-08-12T08:06:08Z</time>
      </trkpt>
      <trkpt lat="47.31891" lon="6.8342">
        <ele>626.5</ele>
        <time>2021-08-12T08:06:10Z</time>
      </trkpt>
      <trkpt lat="47.31891" lon="6.83421">
        <ele>626.5</ele>
        <time>2021-08-12T08:06:11Z</time>
      </trkpt>
      <trkpt lat="47.31891" lon="6.83427">
        <ele>626.8</ele>
        <time>2021-08-12T08:06:12Z</time>
      </trkpt>
      <trkpt lat="47.31891" lon="6.83435">
        <ele>627.1</ele>
        <time>2021-08-12T08:06:13Z</time>
      </trkpt>
      <trkpt lat="47.31891" lon="6.8344">
        <ele>627.3</ele>
        <time>2021-08-12T08:06:14Z</time>
      </trkpt>
      <trkpt lat="47.31895" lon="6.83449">
        <ele>627.7</ele>
        <time>2021-08-12T08:06:16Z</time>
      </trkpt>
      <trkpt lat="47.31897" lon="6.83452">
        <ele>627.9</ele>
        <time>2021-08-12T08:06:17Z</time>
      </trkpt>
      <trkpt lat="47.31897" lon="6.83453">
        <ele>628</ele>
        <time>2021-08-12T08:06:18Z</time>
      </trkpt>
      <trkpt lat="47.31894" lon="6.83473">
        <ele>628.8</ele>
        <time>2021-08-12T08:06:19Z</time>
      </trkpt>
      <trkpt lat="47.3189" lon="6.8349">
        <ele>629.5</ele>
        <time>2021-08-12T08:06:20Z</time>
      </trkpt>
      <trkpt lat="47.31887" lon="6.83507">
        <ele>630.3</ele>
        <time>2021-08-12T08:06:22Z</time>
      </trkpt>
      <trkpt lat="47.31883" lon="6.83524">
        <ele>631</ele>
        <time>2021-08-12T08:06:23Z</time>
      </trkpt>
      <trkpt lat="47.31879" lon="6.83542">
        <ele>631.8</ele>
        <time>2021-08-12T08:07:38Z</time>
      </trkpt>
      <trkpt lat="47.31875" lon="6.83559">
        <ele>632.6</ele>
        <time>2021-08-12T08:07:39Z</time>
      </trkpt>
      <trkpt lat="47.31877" lon="6.83564">
        <ele>632.8</ele>
        <time>2021-08-12T08:07:41Z</time>
      </trkpt>
      <trkpt lat="47.31877" lon="6.83565">
        <ele>632.9</ele>
        <time>2021-08-12T08:07:42Z</time>
      </trkpt>
      <trkpt lat="47.31878" lon="6.8357">
        <ele>633.1</ele>
        <time>2021-08-12T08:07:43Z</time>
      </trkpt>
      <trkpt lat="47.31879" lon="6.83574">
        <ele>633.3</ele>
        <time>2021-08-12T08:07:44Z</time>
      </trkpt>
      <trkpt lat="47.31881" lon="6.83579">
        <ele>633.5</ele>
        <time>2021-08-12T08:07:45Z</time>
      </trkpt>
      <trkpt lat="47.31883" lon="6.83584">
        <ele>633.8</ele>
        <time>2021-08-12T08:07:46Z</time>
      </trkpt>
      <trkpt lat="47.31886" lon="6.83587">
        <ele>634</ele>
        <time>2021-08-12T08:07:48Z</time>
      </trkpt>
      <trkpt lat="47.31889" lon="6.83589">
        <ele>634.2</ele>
        <time>2021-08-12T08:07:49Z</time>
      </trkpt>
      <trkpt lat="47.31892" lon="6.83591">
        <ele>634.4</ele>
        <time>2021-08-12T08:07:50Z</time>
      </trkpt>
      <trkpt lat="47.31893" lon="6.83593">
        <ele>634.4</ele>
        <time>2021-08-12T08:07:52Z</time>
      </trkpt>
      <trkpt lat="47.31894" lon="6.83595">
        <ele>634.5</ele>
        <time>2021-08-12T08:07:53Z</time>
      </trkpt>
      <trkpt lat="47.31895" lon="6.83597">
        <ele>634.6</ele>
        <time>2021-08-12T08:07:54Z</time>
      </trkpt>
      <trkpt lat="47.31898" lon="6.8361">
        <ele>635.2</ele>
        <time>2021-08-12T08:07:55Z</time>
      </trkpt>
      <trkpt lat="47.31902" lon="6.8362">
        <ele>635.7</ele>
        <time>2021-08-12T08:07:57Z</time>
      </trkpt>
      <trkpt lat="47.31905" lon="6.8363">
        <ele>636.1</ele>
        <time>2021-08-12T08:08:31Z</time>
      </trkpt>
      <trkpt lat="47.31908" lon="6.8364">
        <ele>636.6</ele>
        <time>2021-08-12T08:08:32Z</time>
      </trkpt>
      <trkpt lat="47.31911" lon="6.8365">
        <ele>637.1</ele>
        <time>2021-08-12T08:08:33Z</time>
      </trkpt>
      <trkpt lat="47.31912" lon="6.83655">
        <ele>637.3</ele>
        <time>2021-08-12T08:08:34Z</time>
      </trkpt>
      <trkpt lat="47.31912" lon="6.83656">
        <ele>637.4</ele>
        <time>2021-08-12T08:08:35Z</time>
      </trkpt>
      <trkpt lat="47.31913" lon="6.8366">
        <ele>637.5</ele>
        <time>2021-08-12T08:08:37Z</time>
      </trkpt>
      <trkpt lat="47.31914" lon="6.83665">
        <ele>637.8</ele>
        <time>2021-08-12T08:08:39Z</time>
      </trkpt>
      <trkpt lat="47.31914" lon="6.83666">
        <ele>637.8</ele>
        <time>2021-08-12T08:08:40Z</time>
      </trkpt>
      <trkpt lat="47.31914" lon="6.83666">
        <ele>637.8</ele>
        <time>2021-08-12T08:08:41Z</time>
      </trkpt>
      <trkpt lat="47.31914" lon="6.83666">
        <ele>637.8</ele>
        <time>2021-08-12T08:08:42Z</time>
      </trkpt>
      <trkpt lat="47.31915" lon="6.83667">
        <ele>637.9</ele>
        <time>2021-08-12T08:08:44Z</time>
      </trkpt>
      <trkpt lat="47.31916" lon="6.83668">
        <ele>637.9</ele>
        <time>2021-08-12T08:08:45Z</time>
      </trkpt>
      <trkpt lat="47.31916" lon="6.8367">
        <ele>638</ele>
        <time>2021-08-12T08:08:47Z</time>
      </trkpt>
      <trkpt lat="47.31917" lon="6.83671">
        <ele>638.1</ele>
        <time>2021-08-12T08:08:48Z</time>
      </trkpt>
      <trkpt lat="47.31919" lon="6.83676">
        <ele>638.3</ele>
        <time>2021-08-12T08:08:50Z</time>
      </trkpt>
      <trkpt lat="47.31898" lon="6.84074">
        <ele>655.5</ele>
        <time>2021-08-12T08:12:46Z</time>
      </trkpt>
      <trkpt lat="47.31894" lon="6.84078">
        <ele>655.7</ele>
        <time>2021-08-12T08:12:48Z</time>
      </trkpt>
      <trkpt lat="47.31894" lon="6.8408">
        <ele>655.8</ele>
        <time>2021-08-12T08:12:49Z</time>
      </trkpt>
      <trkpt lat="47.31893" lon="6.84082">
        <ele>655.9</ele>
        <time>2021-08-12T08:12:50Z</time>
      </trkpt>
      <trkpt lat="47.31891" lon="6.84087">
        <ele>656.1</ele>
        <time>2021-08-12T08:12:51Z</time>
      </trkpt>
      <trkpt lat="47.31889" lon="6.8409">
        <ele>656.3</ele>
        <time>2021-08-12T08:12:52Z</time>
      </trkpt>
      <trkpt lat="47.31886" lon="6.84092">
        <ele>656.5</ele>
        <time>2021-08-12T08:12:54Z</time>
      </trkpt>
      <trkpt lat="47.31884" lon="6.84093">
        <ele>656.6</ele>
        <time>2021-08-12T08:12:55Z</time>
      </trkpt>
      <trkpt lat="47.31881" lon="6.84094">
        <ele>656.8</ele>
        <time>2021-08-12T08:12:56Z</time>
      </trkpt>
      <trkpt lat="47.31877" lon="6.84096">
        <ele>657</ele>
        <time>2021-08-12T08:12:57Z</time>
      </trkpt>
      <trkpt lat="47.31872" lon="6.84099">
        <ele>657.2</ele>
        <time>2021-08-12T08:12:58Z</time>
      </trkpt>
      <trkpt lat="47.31872" lon="6.84101">
        <ele>657.3</ele>
        <time>2021-08-12T08:12:59Z</time>
      </trkpt>
      <trkpt lat="47.31873" lon="6.84109">
        <ele>657.6</ele>
        <time>2021-08-12T08:13:01Z</time>
      </trkpt>
      <trkpt lat="47.31875" lon="6.84114">
        <ele>657.8</ele>
        <time>2021-08-12T08:13:02Z</time>
      </trkpt>
      <trkpt lat="47.31877" lon="6.84117">
        <ele>657.9</ele>
        <time>2021-08-12T08:13:04Z</time>
      </trkpt>
      <trkpt lat="47.31878" lon="6.84118">
        <ele>657.9</ele>
        <time>2021-08-12T08:13:05Z</time>
      </trkpt>
      <trkpt lat="47.31877" lon="6.8412">
        <ele>658</ele>
        <time>2021-08-12T08:13:07Z</time>
      </trkpt>
      <trkpt lat="47.31875" lon="6.84122">
        <ele>658.1</ele>
        <time>2021-08-12T08:13:08Z</time>
      </trkpt>
      <trkpt lat="47.31872" lon="6.84173">
        <ele>659.5</ele>
        <time>2021-08-12T08:13:34Z</time>
      </trkpt>
      <trkpt lat="47.31874" lon="6.84179">
        <ele>659.6</ele>
        <time>2021-08-12T08:13:35Z</time>
      </trkpt>
      <trkpt lat="47.31876" lon="6.84189">
        <ele>659.8</ele>
        <time>2021-08-12T08:13:36Z</time>
      </trkpt>
      <trkpt lat="47.31876" lon="6.84194">
        <ele>659.9</ele>
        <time>2021-08-12T08:13:37Z</time>
      </trkpt>
      <trkpt lat="47.31877" lon="6.84198">
        <ele>660</ele>
        <time>2021-08-12T08:13:38Z</time>
      </trkpt>
      <trkpt lat="47.31878" lon="6.84203">
        <ele>660.1</ele>
        <time>2021-08-12T08:13:40Z</time>
      </trkpt>
      <trkpt lat="47.3188" lon="6.84208">
        <ele>660.2</ele>
        <time>2021-08-12T08:13:41Z</time>
      </trkpt>
      <trkpt lat="47.3188" lon="6.8421">
        <ele>660.3</ele>
        <time>2021-08-12T08:13:42Z</time>
      </trkpt>
      <trkpt lat="47.31881" lon="6.84212">
        <ele>660.3</ele>
        <time>2021-08-12T08:13:43Z</time>
      </trkpt>
      <trkpt lat="47.3188" lon="6.84217">
        <ele>660.4</ele>
        <time>2021-08-12T08:13:45Z</time>
      </trkpt>
      <trkpt lat="47.3188" lon="6.84216">
        <ele>660.3</ele>
        <time>2021-08-12T08:13:46Z</time>
      </trkpt>
      <trkpt lat="47.31879" lon="6.84215">
        <ele>659.2</ele>
        <time>2021-08-12T08:13:47Z</time>
      </trkpt>
      <trkpt lat="47.31877" lon="6.84215">
        <ele>659.1</ele>
        <time>2021-08-12T08:13:49Z</time>
      </trkpt>
      <trkpt lat="47.31876" lon="6.84212">
        <ele>658</ele>
        <time>2021-08-12T08:13:51Z</time>
      </trkpt>
      <trkpt lat="47.31875" lon="6.84211">
        <ele>658.8</ele>
        <time>2021-08-12T08:13:52Z</time>
      </trkpt>
      <trkpt lat="47.31874" lon="6.8421">
        <ele>657.7</ele>
        <time>2021-08-12T08:13:53Z</time>
      </trkpt>
      <trkpt lat="47.31873" lon="6.84209">
        <ele>656.6</ele>
        <time>2021-08-12T08:13:55Z</time>
      </trkpt>
      <trkpt lat="47.31857" lon="6.8419">
        <ele>665.2</ele>
        <time>2021-08-12T08:14:09Z</time>
      </trkpt>
      <trkpt lat="47.31856" lon="6.84189">
        <ele>665.3</ele>
        <time>2021-08-12T08:14:10Z</time>
      </trkpt>
      <trkpt lat="47.31855" lon="6.84189">
        <ele>665.4</ele>
        <time>2021-08-12T08:14:11Z</time>
      </trkpt>
      <trkpt lat="47.31854" lon="6.84189">
        <ele>665.5</ele>
        <time>2021-08-12T08:14:13Z</time>
      </trkpt>
      <trkpt lat="47.31854" lon="6.8419">
        <ele>665.6</ele>
        <time>2021-08-12T08:14:14Z</time>
      </trkpt>
      <trkpt lat="47.31854" lon="6.84191">
        <ele>665.6</ele>
        <time>2021-08-12T08:14:15Z</time>
      </trkpt>
      <trkpt lat="47.31854" lon="6.84189">
        <ele>665.6</ele>
        <time>2021-08-12T08:14:16Z</time>
      </trkpt>
      <trkpt lat="47.31853" lon="6.84188">
        <ele>665.7</ele>
        <time>2021-08-12T08:14:18Z</time>
      </trkpt>
      <trkpt lat="47.31853" lon="6.84186">
        <ele>665.8</ele>
        <time>2021-08-12T08:14:20Z</time>
      </trkpt>
      <trkpt lat="47.31853" lon="6.84185">
        <ele>665.9</ele>
        <time>2021-08-12T08:14:21Z</time>
      </trkpt>
      <trkpt lat="47.31854" lon="6.84183">
        <ele>665.9</ele>
        <time>2021-08-12T08:14:23Z</time>
      </trkpt>
      <trkpt lat="47.31854" lon="6.84182">
        <ele>666</ele>
        <time>2021-08-12T08:14:24Z</time>
      </trkpt>
      <trkpt lat="47.31855" lon="6.84179">
        <ele>666.1</ele>
        <time>2021-08-12T08:14:26Z</time>
      </trkpt>
      <trkpt lat="47.31856" lon="6.84172">
        <ele>666.5</ele>
        <time>2021-08-12T08:14:32Z</time>
      </trkpt>
      <trkpt lat="47.31856" lon="6.84171">
        <ele>666.6</ele>
        <time>2021-08-12T08:14:33Z</time>
      </trkpt>
      <trkpt lat="47.31856" lon="6.84171">
        <ele>666.6</ele>
        <time>2021-08-12T08:14:34Z</time>
      </trkpt>
      <trkpt lat="47.31856" lon="6.84171">
        <ele>666.6</ele>
        <time>2021-08-12T08:14:36Z</time>
      </trkpt>
      <trkpt lat="47.31856" lon="6.84171">
        <ele>666.6</ele>
        <time>2021-08-12T08:14:37Z</time>
      </trkpt>
      <trkpt lat="47.31857" lon="6.8417">
        <ele>666.7</ele>
        <time>2021-08-12T08:14:38Z</time>
      </trkpt>
      <trkpt lat="47.31857" lon="6.8417">
        <ele>666.7</ele>
        <time>2021-08-12T08:14:40Z</time>
      </trkpt>
      <trkpt lat="47.31857" lon="6.84169">
        <ele>666.7</ele>
        <time>2021-08-12T08:14:41Z</time>
      </trkpt>
      <trkpt lat="47.31857" lon="6.84168">
        <ele>666.8</ele>
        <time>2021-08-12T08:14:42Z</time>
      </trkpt>
      <trkpt lat="47.31858" lon="6.84166">
        <ele>666.9</ele>
        <time>2021-08-12T08:14:44Z</time>
      </trkpt>
      <trkpt lat="47.31857" lon="6.84164">
        <ele>667</ele>
        <time>2021-08-12T08:14:45Z</time>
      </trkpt>
      <trkpt lat="47.31857" lon="6.84161">
        <ele>667.2</ele>
        <time>2021-08-12T08:14:46Z</time>
      </trkpt>
      <trkpt lat="47.31857" lon="6.84159">
        <ele>667.3</ele>
        <time>2021-08-12T08:14:47Z</time>
      </trkpt>
      <trkpt lat="47.31856" lon="6.84155">
        <ele>667.6</ele>
        <time>2021-08-12T08:14:49Z</time>
      </trkpt>
      <trkpt lat="47.31856" lon="6.84153">
        <ele>667.6</ele>
        <time>2021-08-12T08:14:50Z</time>
      </trkpt>
      <trkpt lat="47.31856" lon="6.84152">
        <ele>667.7</ele>
        <time>2021-08-12T08:14:51Z</time>
      </trkpt>
      <trkpt lat="47.31855" lon="6.84151">
        <ele>667.8</ele>
        <time>2021-08-12T08:14:52Z</time>
      </trkpt>
      <trkpt lat="47.31855" lon="6.8415">
        <ele>667.9</ele>
        <time>2021-08-12T08:14:54Z</time>
      </trkpt>
      <trkpt lat="47.31855" lon="6.84148">
        <ele>667.9</ele>
        <time>2021-08-12T08:14:55Z</time>
      </trkpt>
      <trkpt lat="47.31854" lon="6.84144">
        <ele>668.2</ele>
        <time>2021-08-12T08:14:56Z</time>
      </trkpt>
      <trkpt lat="47.31853" lon="6.84143">
        <ele>668.3</ele>
        <time>2021-08-12T08:14:57Z</time>
      </trkpt>
      <trkpt lat="47.31853" lon="6.84141">
        <ele>668.4</ele>
        <time>2021-08-12T08:14:58Z</time>
      </trkpt>
      <trkpt lat="47.31852" lon="6.84138">
        <ele>668.6</ele>
        <time>2021-08-12T08:14:59Z</time>
      </trkpt>
      <trkpt lat="47.31851" lon="6.84133">
        <ele>668.9</ele>
        <time>2021-08-12T08:15:01Z</time>
      </trkpt>
      <trkpt lat="47.31851" lon="6.84132">
        <ele>668.9</ele>
        <time>2021-08-12T08:15:02Z</time>
      </trkpt>
      <trkpt lat="47.3185" lon="6.84129">
        <ele>669.1</ele>
        <time>2021-08-12T08:15:03Z</time>
      </trkpt>
      <trkpt lat="47.3185" lon="6.84128">
        <ele>669.2</ele>
        <time>2021-08-12T08:15:04Z</time>
      </trkpt>
      <trkpt lat="47.31849" lon="6.84125">
        <ele>669.4</ele>
        <time>2021-08-12T08:15:06Z</time>
      </trkpt>
      <trkpt lat="47.31849" lon="6.84123">
        <ele>669.5</ele>
        <time>2021-08-12T08:15:07Z</time>
      </trkpt>
      <trkpt lat="47.31847" lon="6.84122">
        <ele>669.6</ele>
        <time>2021-08-12T08:15:08Z</time>
      </trkpt>
      <trkpt lat="47.31846" lon="6.84121">
        <ele>669.7</ele>
        <time>2021-08-12T08:15:09Z</time>
      </trkpt>
      <trkpt lat="47.31845" lon="6.8412">
        <ele>669.8</ele>
        <time>2021-08-12T08:15:11Z</time>
      </trkpt>
      <trkpt lat="47.31845" lon="6.84119">
        <ele>669.9</ele>
        <time>2021-08-12T08:15:12Z</time>
      </trkpt>
      <trkpt lat="47.31845" lon="6.84118">
        <ele>669.9</ele>
        <time>2021-08-12T08:15:13Z</time>
      </trkpt>
      <trkpt lat="47.31844" lon="6.84117">
        <ele>670</ele>
        <time>2021-08-12T08:15:14Z</time>
      </trkpt>
      <trkpt lat="47.31844" lon="6.84118">
        <ele>670.1</ele>
        <time>2021-08-12T08:15:15Z</time>
      </trkpt>
      <trkpt lat="47.31843" lon="6.84119">
        <ele>670.1</ele>
        <time>2021-08-12T08:15:16Z</time>
      </trkpt>
      <trkpt lat="47.31843" lon="6.84119">
        <ele>670.2</ele>
        <time>2021-08-12T08:15:18Z</time>
      </trkpt>
      <trkpt lat="47.31842" lon="6.84119">
        <ele>670.2</ele>
        <time>2021-08-12T08:15:19Z</time>
      </trkpt>
      <trkpt lat="47.31842" lon="6.84118">
        <ele>670.2</ele>
        <time>2021-08-12T08:15:20Z</time>
      </trkpt>
      <trkpt lat="47.31841" lon="6.84117">
        <ele>670.3</ele>
        <time>2021-08-12T08:15:21Z</time>
      </trkpt>
      <trkpt lat="47.31841" lon="6.84117">
        <ele>670.3</ele>
        <time>2021-08-12T08:15:22Z</time>
      </trkpt>
      <trkpt lat="47.31841" lon="6.84115">
        <ele>670.4</ele>
        <time>2021-08-12T08:15:23Z</time>
      </trkpt>
      <trkpt lat="47.31832" lon="6.84053">
        <ele>673.6</ele>
        <time>2021-08-12T08:16:06Z</time>
      </trkpt>
      <trkpt lat="47.31831" lon="6.84052">
        <ele>673.7</ele>
        <time>2021-08-12T08:16:08Z</time>
      </trkpt>
      <trkpt lat="47.3183" lon="6.84051">
        <ele>673.8</ele>
        <time>2021-08-12T08:16:09Z</time>
      </trkpt>
      <trkpt lat="47.31829" lon="6.84051">
        <ele>673.9</ele>
        <time>2021-08-12T08:16:11Z</time>
      </trkpt>
      <trkpt lat="47.31828" lon="6.8405">
        <ele>673.9</ele>
        <time>2021-08-12T08:16:12Z</time>
      </trkpt>
      <trkpt lat="47.31828" lon="6.84051">
        <ele>673.9</ele>
        <time>2021-08-12T08:16:14Z</time>
      </trkpt>
      <trkpt lat="47.31828" lon="6.84051">
        <ele>673.9</ele>
        <time>2021-08-12T08:16:16Z</time>
      </trkpt>
      <trkpt lat="47.31828" lon="6.84051">
        <ele>673.9</ele>
        <time>2021-08-12T08:16:17Z</time>
      </trkpt>
      <trkpt lat="47.31828" lon="6.84051">
        <ele>673.9</ele>
        <time>2021-08-12T08:16:18Z</time>
      </trkpt>
      <trkpt lat="47.31827" lon="6.84051">
        <ele>674</ele>
        <time>2021-08-12T08:16:20Z</time>
      </trkpt>
      <trkpt lat="47.31827" lon="6.8405">
        <ele>674</ele>
        <time>2021-08-12T08:16:21Z</time>
      </trkpt>
      <trkpt lat="47.31822" lon="6.84046">
        <ele>674.4</ele>
        <time>2021-08-12T08:16:23Z</time>
      </trkpt>
      <trkpt lat="47.31821" lon="6.84044">
        <ele>674.5</ele>
        <time>2021-08-12T08:16:24Z</time>
      </trkpt>
      <trkpt lat="47.31819" lon="6.84042">
        <ele>674.7</ele>
        <time>2021-08-12T08:16:25Z</time>
      </trkpt>
      <trkpt lat="47.31817" lon="6.8404">
        <ele>674.9</ele>
        <time>2021-08-12T08:16:27Z</time>
      </trkpt>
      <trkpt lat="47.31816" lon="6.8404">
        <ele>674.9</ele>
        <time>2021-08-12T08:16:28Z</time>
      </trkpt>
      <trkpt lat="47.31815" lon="6.84039">
        <ele>675</ele>
        <time>2021-08-12T08:16:29Z</time>
      </trkpt>
      <trkpt lat="47.31813" lon="6.84038">
        <ele>675.1</ele>
        <time>2021-08-12T08:16:30Z</time>
      </trkpt>
      <trkpt lat="47.31811" lon="6.84033">
        <ele>675.4</ele>
        <time>2021-08-12T08:16:32Z</time>
      </trkpt>
      <trkpt lat="47.3181" lon="6.84031">
        <ele>675.5</ele>
        <time>2021-08-12T08:16:33Z</time>
      </trkpt>
      <trkpt lat="47.3181" lon="6.8403">
        <ele>675.5</ele>
        <time>2021-08-12T08:16:35Z</time>
      </trkpt>
      <trkpt lat="47.31809" lon="6.84028">
        <ele>675.6</ele>
        <time>2021-08-12T08:16:36Z</time>
      </trkpt>
      <trkpt lat="47.31809" lon="6.84027">
        <ele>675.7</ele>
        <time>2021-08-12T08:16:37Z</time>
      </trkpt>
      <trkpt lat="47.31809" lon="6.84025">
        <ele>675.8</ele>
        <time>2021-08-12T08:16:39Z</time>
      </trkpt>
      <trkpt lat="47.31808" lon="6.84024">
        <ele>675.8</ele>
        <time>2021-08-12T08:16:40Z</time>
      </trkpt>
      <trkpt lat="47.31808" lon="6.84022">
        <ele>675.9</ele>
        <time>2021-08-12T08:16:41Z</time>
      </trkpt>
      <trkpt lat="47.31808" lon="6.8402">
        <ele>676</ele>
        <time>2021-08-12T08:16:43Z</time>
      </trkpt>
      <trkpt lat="47.31809" lon="6.84018">
        <ele>676.1</ele>
        <time>2021-08-12T08:16:44Z</time>
      </trkpt>
      <trkpt lat="47.31809" lon="6.84015">
        <ele>676.3</ele>
        <time>2021-08-12T08:16:45Z</time>
      </trkpt>
      <trkpt lat="47.3181" lon="6.8401">
        <ele>676.5</ele>
        <time>2021-08-12T08:16:48Z</time>
      </trkpt>
      <trkpt lat="47.3181" lon="6.84008">
        <ele>676.6</ele>
        <time>2021-08-12T08:16:49Z</time>
      </trkpt>
      <trkpt lat="47.31809" lon="6.84005">
        <ele>676.7</ele>
        <time>2021-08-12T08:16:50Z</time>
      </trkpt>
      <trkpt lat="47.31809" lon="6.84003">
        <ele>676.8</ele>
        <time>2021-08-12T08:16:52Z</time>
      </trkpt>
      <trkpt lat="47.31807" lon="6.84001">
        <ele>676.9</ele>
        <time>2021-08-12T08:16:53Z</time>
      </trkpt>
      <trkpt lat="47.31807" lon="6.84">
        <ele>677</ele>
        <time>2021-08-12T08:16:55Z</time>
      </trkpt>
      <trkpt lat="47.31806" lon="6.83999">
        <ele>677</ele>
        <time>2021-08-12T08:16:56Z</time>
      </trkpt>
      <trkpt lat="47.31805" lon="6.83998">
        <ele>677.1</ele>
        <time>2021-08-12T08:16:57Z</time>
      </trkpt>
      <trkpt lat="47.31804" lon="6.83997">
        <ele>677.2</ele>
        <time>2021-08-12T08:16:59Z</time>
      </trkpt>
      <trkpt lat="47.31803" lon="6.83995">
        <ele>677.2</ele>
        <time>2021-08-12T08:17:00Z</time>
      </trkpt>
      <trkpt lat="47.31802" lon="6.83993">
        <ele>677.4</ele>
        <time>2021-08-12T08:17:02Z</time>
      </trkpt>
      <trkpt lat="47.31802" lon="6.83991">
        <ele>677.5</ele>
        <time>2021-08-12T08:17:03Z</time>
      </trkpt>
      <trkpt lat="47.31801" lon="6.83987">
        <ele>677.6</ele>
        <time>2021-08-12T08:17:05Z</time>
      </trkpt>
      <trkpt lat="47.31799" lon="6.83985">
        <ele>677.8</ele>
        <time>2021-08-12T08:17:06Z</time>
      </trkpt>
      <trkpt lat="47.31798" lon="6.83984">
        <ele>677.9</ele>
        <time>2021-08-12T08:17:07Z</time>
      </trkpt>
      <trkpt lat="47.31796" lon="6.83981">
        <ele>678</ele>
        <time>2021-08-12T08:17:08Z</time>
      </trkpt>
      <trkpt lat="47.31796" lon="6.83976">
        <ele>678.2</ele>
        <time>2021-08-12T08:17:10Z</time>
      </trkpt>
      <trkpt lat="47.31796" lon="6.83975">
        <ele>678.3</ele>
        <time>2021-08-12T08:17:11Z</time>
      </trkpt>
      <trkpt lat="47.31797" lon="6.83967">
        <ele>678.6</ele>
        <time>2021-08-12T08:17:12Z</time>
      </trkpt>
      <trkpt lat="47.31797" lon="6.8396">
        <ele>678.9</ele>
        <time>2021-08-12T08:17:14Z</time>
      </trkpt>
      <trkpt lat="47.31796" lon="6.83958">
        <ele>679</ele>
        <time>2021-08-12T08:17:15Z</time>
      </trkpt>
      <trkpt lat="47.31795" lon="6.83956">
        <ele>679.1</ele>
        <time>2021-08-12T08:17:16Z</time>
      </trkpt>
      <trkpt lat="47.31794" lon="6.83952">
        <ele>679.3</ele>
        <time>2021-08-12T08:17:18Z</time>
      </trkpt>
      <trkpt lat="47.31793" lon="6.8395">
        <ele>679.4</ele>
        <time>2021-08-12T08:17:19Z</time>
      </trkpt>
      <trkpt lat="47.31791" lon="6.83948">
        <ele>679.6</ele>
        <time>2021-08-12T08:17:21Z</time>
      </trkpt>
      <trkpt lat="47.31788" lon="6.83943">
        <ele>679.9</ele>
        <time>2021-08-12T08:17:23Z</time>
      </trkpt>
      <trkpt lat="47.31787" lon="6.83941">
        <ele>680</ele>
        <time>2021-08-12T08:17:24Z</time>
      </trkpt>
      <trkpt lat="47.31786" lon="6.8394">
        <ele>680.1</ele>
        <time>2021-08-12T08:17:25Z</time>
      </trkpt>
      <trkpt lat="47.31783" lon="6.83939">
        <ele>680.3</ele>
        <time>2021-08-12T08:17:26Z</time>
      </trkpt>
      <trkpt lat="47.31782" lon="6.83938">
        <ele>680.4</ele>
        <time>2021-08-12T08:17:28Z</time>
      </trkpt>
      <trkpt lat="47.3178" lon="6.83936">
        <ele>680.5</ele>
        <time>2021-08-12T08:17:29Z</time>
      </trkpt>
      <trkpt lat="47.3178" lon="6.83935">
        <ele>680.5</ele>
        <time>2021-08-12T08:17:31Z</time>
      </trkpt>
      <trkpt lat="47.31779" lon="6.83934">
        <ele>680.6</ele>
        <time>2021-08-12T08:17:32Z</time>
      </trkpt>
      <trkpt lat="47.3178" lon="6.83931">
        <ele>680.7</ele>
        <time>2021-08-12T08:17:33Z</time>
      </trkpt>
      <trkpt lat="47.3178" lon="6.83927">
        <ele>680.9</ele>
        <time>2021-08-12T08:17:34Z</time>
      </trkpt>
      <trkpt lat="47.31781" lon="6.83926">
        <ele>680.9</ele>
        <time>2021-08-12T08:17:36Z</time>
      </trkpt>
      <trkpt lat="47.31781" lon="6.83924">
        <ele>681</ele>
        <time>2021-08-12T08:17:37Z</time>
      </trkpt>
      <trkpt lat="47.31781" lon="6.83923">
        <ele>681.1</ele>
        <time>2021-08-12T08:17:40Z</time>
      </trkpt>
      <trkpt lat="47.31781" lon="6.83921">
        <ele>681.1</ele>
        <time>2021-08-12T08:17:41Z</time>
      </trkpt>
      <trkpt lat="47.31781" lon="6.83919">
        <ele>681.2</ele>
        <time>2021-08-12T08:17:42Z</time>
      </trkpt>
      <trkpt lat="47.31781" lon="6.83918">
        <ele>681.2</ele>
        <time>2021-08-12T08:17:44Z</time>
      </trkpt>
      <trkpt lat="47.31781" lon="6.83916">
        <ele>681.3</ele>
        <time>2021-08-12T08:17:45Z</time>
      </trkpt>
      <trkpt lat="47.3178" lon="6.83915">
        <ele>681.4</ele>
        <time>2021-08-12T08:17:47Z</time>
      </trkpt>
      <trkpt lat="47.31779" lon="6.83914">
        <ele>681.4</ele>
        <time>2021-08-12T08:17:48Z</time>
      </trkpt>
      <trkpt lat="47.31779" lon="6.83912">
        <ele>681.5</ele>
        <time>2021-08-12T08:17:49Z</time>
      </trkpt>
      <trkpt lat="47.31778" lon="6.8391">
        <ele>681.6</ele>
        <time>2021-08-12T08:17:51Z</time>
      </trkpt>
      <trkpt lat="47.31777" lon="6.83908">
        <ele>681.7</ele>
        <time>2021-08-12T08:17:52Z</time>
      </trkpt>
      <trkpt lat="47.31776" lon="6.83906">
        <ele>681.8</ele>
        <time>2021-08-12T08:17:53Z</time>
      </trkpt>
      <trkpt lat="47.31776" lon="6.83904">
        <ele>681.9</ele>
        <time>2021-08-12T08:17:55Z</time>
      </trkpt>
      <trkpt lat="47.31775" lon="6.83898">
        <ele>682.1</ele>
        <time>2021-08-12T08:17:57Z</time>
      </trkpt>
      <trkpt lat="47.31774" lon="6.83897">
        <ele>682.1</ele>
        <time>2021-08-12T08:17:59Z</time>
      </trkpt>
      <trkpt lat="47.31774" lon="6.83896">
        <ele>682.2</ele>
        <time>2021-08-12T08:18:00Z</time>
      </trkpt>
      <trkpt lat="47.31773" lon="6.83894">
        <ele>682.3</ele>
        <time>2021-08-12T08:18:01Z</time>
      </trkpt>
      <trkpt lat="47.31773" lon="6.83893">
        <ele>682.3</ele>
        <time>2021-08-12T08:18:02Z</time>
      </trkpt>
      <trkpt lat="47.31773" lon="6.83892">
        <ele>682.4</ele>
        <time>2021-08-12T08:18:04Z</time>
      </trkpt>
      <trkpt lat="47.31772" lon="6.8389">
        <ele>682.5</ele>
        <time>2021-08-12T08:18:05Z</time>
      </trkpt>
      <trkpt lat="47.31771" lon="6.83889">
        <ele>682.5</ele>
        <time>2021-08-12T08:18:07Z</time>
      </trkpt>
      <trkpt lat="47.31771" lon="6.83887">
        <ele>682.6</ele>
        <time>2021-08-12T08:18:08Z</time>
      </trkpt>
      <trkpt lat="47.3177" lon="6.83886">
        <ele>682.7</ele>
        <time>2021-08-12T08:18:09Z</time>
      </trkpt>
      <trkpt lat="47.3177" lon="6.83885">
        <ele>682.7</ele>
        <time>2021-08-12T08:18:11Z</time>
      </trkpt>
      <trkpt lat="47.3177" lon="6.83884">
        <ele>682.7</ele>
        <time>2021-08-12T08:18:12Z</time>
      </trkpt>
      <trkpt lat="47.31752" lon="6.83801">
        <ele>686.8</ele>
        <time>2021-08-12T08:19:55Z</time>
      </trkpt>
      <trkpt lat="47.31751" lon="6.83797">
        <ele>686.9</ele>
        <time>2021-08-12T08:19:56Z</time>
      </trkpt>
      <trkpt lat="47.3175" lon="6.83793">
        <ele>687.1</ele>
        <time>2021-08-12T08:19:58Z</time>
      </trkpt>
      <trkpt lat="47.3175" lon="6.83792">
        <ele>687.2</ele>
        <time>2021-08-12T08:19:59Z</time>
      </trkpt>
      <trkpt lat="47.3175" lon="6.8379">
        <ele>687.2</ele>
        <time>2021-08-12T08:20:00Z</time>
      </trkpt>
      <trkpt lat="47.3175" lon="6.8379">
        <ele>687.3</ele>
        <time>2021-08-12T08:20:01Z</time>
      </trkpt>
      <trkpt lat="47.3175" lon="6.83787">
        <ele>687.4</ele>
        <time>2021-08-12T08:20:02Z</time>
      </trkpt>
      <trkpt lat="47.31751" lon="6.83785">
        <ele>687.5</ele>
        <time>2021-08-12T08:20:04Z</time>
      </trkpt>
      <trkpt lat="47.3175" lon="6.83783">
        <ele>687.6</ele>
        <time>2021-08-12T08:20:05Z</time>
      </trkpt>
      <trkpt lat="47.3175" lon="6.83781">
        <ele>687.7</ele>
        <time>2021-08-12T08:20:06Z</time>
      </trkpt>
      <trkpt lat="47.31749" lon="6.8378">
        <ele>687.7</ele>
        <time>2021-08-12T08:20:08Z</time>
      </trkpt>
      <trkpt lat="47.31748" lon="6.83779">
        <ele>687.8</ele>
        <time>2021-08-12T08:20:09Z</time>
      </trkpt>
      <trkpt lat="47.31748" lon="6.83778">
        <ele>687.9</ele>
        <time>2021-08-12T08:20:11Z</time>
      </trkpt>
      <trkpt lat="47.31748" lon="6.83777">
        <ele>687.9</ele>
        <time>2021-08-12T08:20:12Z</time>
      </trkpt>
      <trkpt lat="47.31748" lon="6.83775">
        <ele>688</ele>
        <time>2021-08-12T08:20:13Z</time>
      </trkpt>
      <trkpt lat="47.31747" lon="6.83773">
        <ele>688.1</ele>
        <time>2021-08-12T08:20:14Z</time>
      </trkpt>
      <trkpt lat="47.31747" lon="6.83771">
        <ele>688.2</ele>
        <time>2021-08-12T08:20:16Z</time>
      </trkpt>
      <trkpt lat="47.31746" lon="6.83769">
        <ele>688.3</ele>
        <time>2021-08-12T08:20:17Z</time>
      </trkpt>
      <trkpt lat="47.31745" lon="6.83764">
        <ele>688.5</ele>
        <time>2021-08-12T08:20:19Z</time>
      </trkpt>
      <trkpt lat="47.31745" lon="6.8376">
        <ele>688.7</ele>
        <time>2021-08-12T08:20:20Z</time>
      </trkpt>
      <trkpt lat="47.31745" lon="6.83758">
        <ele>688.8</ele>
        <time>2021-08-12T08:20:21Z</time>
      </trkpt>
      <trkpt lat="47.31745" lon="6.83752">
        <ele>689.1</ele>
        <time>2021-08-12T08:20:23Z</time>
      </trkpt>
      <trkpt lat="47.31745" lon="6.8375">
        <ele>689.2</ele>
        <time>2021-08-12T08:20:24Z</time>
      </trkpt>
      <trkpt lat="47.31744" lon="6.83748">
        <ele>689.3</ele>
        <time>2021-08-12T08:20:26Z</time>
      </trkpt>
      <trkpt lat="47.31743" lon="6.83747">
        <ele>689.4</ele>
        <time>2021-08-12T08:20:27Z</time>
      </trkpt>
      <trkpt lat="47.31743" lon="6.83746">
        <ele>689.4</ele>
        <time>2021-08-12T08:20:28Z</time>
      </trkpt>
      <trkpt lat="47.31742" lon="6.83744">
        <ele>689.5</ele>
        <time>2021-08-12T08:20:29Z</time>
      </trkpt>
      <trkpt lat="47.3174" lon="6.83742">
        <ele>689.7</ele>
        <time>2021-08-12T08:20:30Z</time>
      </trkpt>
      <trkpt lat="47.31739" lon="6.83741">
        <ele>689.8</ele>
        <time>2021-08-12T08:20:32Z</time>
      </trkpt>
      <trkpt lat="47.31739" lon="6.8374">
        <ele>689.8</ele>
        <time>2021-08-12T08:20:33Z</time>
      </trkpt>
      <trkpt lat="47.31738" lon="6.8374">
        <ele>689.8</ele>
        <time>2021-08-12T08:20:34Z</time>
      </trkpt>
      <trkpt lat="47.31738" lon="6.83739">
        <ele>689.9</ele>
        <time>2021-08-12T08:20:35Z</time>
      </trkpt>
      <trkpt lat="47.31738" lon="6.83738">
        <ele>689.9</ele>
        <time>2021-08-12T08:20:36Z</time>
      </trkpt>
      <trkpt lat="47.31737" lon="6.83738">
        <ele>689.9</ele>
        <time>2021-08-12T08:20:38Z</time>
      </trkpt>
      <trkpt lat="47.31737" lon="6.83737">
        <ele>690</ele>
        <time>2021-08-12T08:20:39Z</time>
      </trkpt>
      <trkpt lat="47.31737" lon="6.83737">
        <ele>690</ele>
        <time>2021-08-12T08:20:40Z</time>
      </trkpt>
      <trkpt lat="47.31736" lon="6.83736">
        <ele>690.1</ele>
        <time>2021-08-12T08:20:41Z</time>
      </trkpt>
      <trkpt lat="47.31736" lon="6.83735">
        <ele>690.1</ele>
        <time>2021-08-12T08:20:42Z</time>
      </trkpt>
      <trkpt lat="47.31736" lon="6.83734">
        <ele>690.2</ele>
        <time>2021-08-12T08:20:43Z</time>
      </trkpt>
      <trkpt lat="47.31727" lon="6.83696">
        <ele>692</ele>
        <time>2021-08-12T08:21:07Z</time>
      </trkpt>
      <trkpt lat="47.31726" lon="6.83692">
        <ele>692.2</ele>
        <time>2021-08-12T08:21:08Z</time>
      </trkpt>
      <trkpt lat="47.31726" lon="6.83689">
        <ele>692.3</ele>
        <time>2021-08-12T08:21:09Z</time>
      </trkpt>
      <trkpt lat="47.31725" lon="6.83686">
        <ele>692.5</ele>
        <time>2021-08-12T08:21:11Z</time>
      </trkpt>
      <trkpt lat="47.31725" lon="6.83682">
        <ele>692.6</ele>
        <time>2021-08-12T08:21:12Z</time>
      </trkpt>
      <trkpt lat="47.31724" lon="6.83679">
        <ele>692.8</ele>
        <time>2021-08-12T08:21:14Z</time>
      </trkpt>
      <trkpt lat="47.31723" lon="6.83673">
        <ele>693.1</ele>
        <time>2021-08-12T08:21:15Z</time>
      </trkpt>
      <trkpt lat="47.31723" lon="6.83668">
        <ele>693.3</ele>
        <time>2021-08-12T08:21:16Z</time>
      </trkpt>
      <trkpt lat="47.31723" lon="6.83663">
        <ele>693.5</ele>
        <time>2021-08-12T08:21:17Z</time>
      </trkpt>
      <trkpt lat="47.31722" lon="6.83658">
        <ele>693.8</ele>
        <time>2021-08-12T08:21:19Z</time>
      </trkpt>
      <trkpt lat="47.31722" lon="6.83653">
        <ele>694</ele>
        <time>2021-08-12T08:21:21Z</time>
      </trkpt>
      <trkpt lat="47.31722" lon="6.83648">
        <ele>694.2</ele>
        <time>2021-08-12T08:21:22Z</time>
      </trkpt>
      <trkpt lat="47.31721" lon="6.83643">
        <ele>694.5</ele>
        <time>2021-08-12T08:21:23Z</time>
      </trkpt>
      <trkpt lat="47.31721" lon="6.83637">
        <ele>694.7</ele>
        <time>2021-08-12T08:21:25Z</time>
      </trkpt>
      <trkpt lat="47.31721" lon="6.83632">
        <ele>694.9</ele>
        <time>2021-08-12T08:21:45Z</time>
      </trkpt>
      <trkpt lat="47.3172" lon="6.83627">
        <ele>695.1</ele>
        <time>2021-08-12T08:21:46Z</time>
      </trkpt>
      <trkpt lat="47.3172" lon="6.83622">
        <ele>695.3</ele>
        <time>2021-08-12T08:21:47Z</time>
      </trkpt>
      <trkpt lat="47.31716" lon="6.83621">
        <ele>695.6</ele>
        <time>2021-08-12T08:21:48Z</time>
      </trkpt>
      <trkpt lat="47.31715" lon="6.8362">
        <ele>695.6</ele>
        <time>2021-08-12T08:21:49Z</time>
      </trkpt>
      <trkpt lat="47.31713" lon="6.8362">
        <ele>695.8</ele>
        <time>2021-08-12T08:21:51Z</time>
      </trkpt>
      <trkpt lat="47.31711" lon="6.83621">
        <ele>695.9</ele>
        <time>2021-08-12T08:21:52Z</time>
      </trkpt>
      <trkpt lat="47.3171" lon="6.83621">
        <ele>696</ele>
        <time>2021-08-12T08:21:53Z</time>
      </trkpt>
      <trkpt lat="47.31708" lon="6.83621">
        <ele>696.1</ele>
        <time>2021-08-12T08:21:55Z</time>
      </trkpt>
      <trkpt lat="47.31702" lon="6.83617">
        <ele>696.5</ele>
        <time>2021-08-12T08:21:56Z</time>
      </trkpt>
      <trkpt lat="47.31696" lon="6.83613">
        <ele>696.8</ele>
        <time>2021-08-12T08:21:57Z</time>
      </trkpt>
      <trkpt lat="47.3169" lon="6.83609">
        <ele>697.1</ele>
        <time>2021-08-12T08:21:58Z</time>
      </trkpt>
      <trkpt lat="47.31685" lon="6.83605">
        <ele>697.3</ele>
        <time>2021-08-12T08:21:59Z</time>
      </trkpt>
      <trkpt lat="47.31679" lon="6.83601">
        <ele>697.5</ele>
        <time>2021-08-12T08:22:01Z</time>
      </trkpt>
      <trkpt lat="47.31673" lon="6.83598">
        <ele>697.7</ele>
        <time>2021-08-12T08:22:02Z</time>
      </trkpt>
      <trkpt lat="47.31667" lon="6.83594">
        <ele>698</ele>
        <time>2021-08-12T08:22:31Z</time>
      </trkpt>
      <trkpt lat="47.31661" lon="6.8359">
        <ele>698.3</ele>
        <time>2021-08-12T08:22:32Z</time>
      </trkpt>
      <trkpt lat="47.31655" lon="6.83586">
        <ele>698.6</ele>
        <time>2021-08-12T08:22:33Z</time>
      </trkpt>
      <trkpt lat="47.31652" lon="6.83589">
        <ele>698.7</ele>
        <time>2021-08-12T08:22:35Z</time>
      </trkpt>
      <trkpt lat="47.31651" lon="6.8359">
        <ele>698.8</ele>
        <time>2021-08-12T08:22:36Z</time>
      </trkpt>
      <trkpt lat="47.31649" lon="6.83592">
        <ele>698.9</ele>
        <time>2021-08-12T08:22:37Z</time>
      </trkpt>
      <trkpt lat="47.31648" lon="6.83593">
        <ele>699</ele>
        <time>2021-08-12T08:22:39Z</time>
      </trkpt>
      <trkpt lat="47.31646" lon="6.83595">
        <ele>699.1</ele>
        <time>2021-08-12T08:22:40Z</time>
      </trkpt>
      <trkpt lat="47.31645" lon="6.83596">
        <ele>699.2</ele>
        <time>2021-08-12T08:22:41Z</time>
      </trkpt>
      <trkpt lat="47.31645" lon="6.83597">
        <ele>699.2</ele>
        <time>2021-08-12T08:22:43Z</time>
      </trkpt>
      <trkpt lat="47.31643" lon="6.83598">
        <ele>699.3</ele>
        <time>2021-08-12T08:22:44Z</time>
      </trkpt>
      <trkpt lat="47.31642" lon="6.836">
        <ele>699.4</ele>
        <time>2021-08-12T08:22:46Z</time>
      </trkpt>
      <trkpt lat="47.3164" lon="6.83601">
        <ele>699.5</ele>
        <time>2021-08-12T08:22:47Z</time>
      </trkpt>
      <trkpt lat="47.31639" lon="6.83601">
        <ele>699.6</ele>
        <time>2021-08-12T08:22:48Z</time>
      </trkpt>
      <trkpt lat="47.31638" lon="6.83601">
        <ele>699.6</ele>
        <time>2021-08-12T08:22:49Z</time>
      </trkpt>
      <trkpt lat="47.31637" lon="6.836">
        <ele>699.7</ele>
        <time>2021-08-12T08:22:50Z</time>
      </trkpt>
      <trkpt lat="47.31635" lon="6.836">
        <ele>699.7</ele>
        <time>2021-08-12T08:22:51Z</time>
      </trkpt>
      <trkpt lat="47.31634" lon="6.836">
        <ele>699.8</ele>
        <time>2021-08-12T08:22:52Z</time>
      </trkpt>
      <trkpt lat="47.31633" lon="6.836">
        <ele>699.9</ele>
        <time>2021-08-12T08:22:53Z</time>
      </trkpt>
      <trkpt lat="47.31631" lon="6.836">
        <ele>699.9</ele>
        <time>2021-08-12T08:22:55Z</time>
      </trkpt>
      <trkpt lat="47.3163" lon="6.83599">
        <ele>700</ele>
        <time>2021-08-12T08:22:56Z</time>
      </trkpt>
      <trkpt lat="47.31628" lon="6.83598">
        <ele>700.1</ele>
        <time>2021-08-12T08:22:57Z</time>
      </trkpt>
      <trkpt lat="47.31625" lon="6.83596">
        <ele>700.3</ele>
        <time>2021-08-12T08:22:59Z</time>
      </trkpt>
      <trkpt lat="47.31624" lon="6.83596">
        <ele>700.3</ele>
        <time>2021-08-12T08:23:00Z</time>
      </trkpt>
      <trkpt lat="47.31621" lon="6.83595">
        <ele>700.4</ele>
        <time>2021-08-12T08:23:01Z</time>
      </trkpt>
      <trkpt lat="47.3162" lon="6.83595">
        <ele>700.5</ele>
        <time>2021-08-12T08:23:03Z</time>
      </trkpt>
      <trkpt lat="47.31618" lon="6.83594">
        <ele>700.6</ele>
        <time>2021-08-12T08:23:04Z</time>
      </trkpt>
      <trkpt lat="47.31617" lon="6.83594">
        <ele>700.6</ele>
        <time>2021-08-12T08:23:05Z</time>
      </trkpt>
      <trkpt lat="47.31615" lon="6.83593">
        <ele>700.7</ele>
        <time>2021-08-12T08:23:06Z</time>
      </trkpt>
      <trkpt lat="47.31614" lon="6.83593">
        <ele>700.8</ele>
        <time>2021-08-12T08:23:07Z</time>
      </trkpt>
      <trkpt lat="47.3161" lon="6.83592">
        <ele>700.9</ele>
        <time>2021-08-12T08:23:09Z</time>
      </trkpt>
      <trkpt lat="47.31608" lon="6.83592">
        <ele>701</ele>
        <time>2021-08-12T08:23:10Z</time>
      </trkpt>
      <trkpt lat="47.31605" lon="6.83592">
        <ele>701.1</ele>
        <time>2021-08-12T08:23:11Z</time>
      </trkpt>
      <trkpt lat="47.316" lon="6.83592">
        <ele>701.2</ele>
        <time>2021-08-12T08:23:13Z</time>
      </trkpt>
      <trkpt lat="47.31599" lon="6.83592">
        <ele>701.3</ele>
        <time>2021-08-12T08:23:14Z</time>
      </trkpt>
      <trkpt lat="47.31598" lon="6.83592">
        <ele>701.3</ele>
        <time>2021-08-12T08:23:15Z</time>
      </trkpt>
      <trkpt lat="47.31594" lon="6.83591">
        <ele>701.4</ele>
        <time>2021-08-12T08:23:17Z</time>
      </trkpt>
      <trkpt lat="47.31592" lon="6.83591">
        <ele>701.5</ele>
        <time>2021-08-12T08:23:18Z</time>
      </trkpt>
      <trkpt lat="47.31591" lon="6.83591">
        <ele>701.5</ele>
        <time>2021-08-12T08:23:19Z</time>
      </trkpt>
      <trkpt lat="47.31589" lon="6.8359">
        <ele>701.6</ele>
        <time>2021-08-12T08:23:20Z</time>
      </trkpt>
      <trkpt lat="47.31587" lon="6.8359">
        <ele>701.6</ele>
        <time>2021-08-12T08:23:22Z</time>
      </trkpt>
      <trkpt lat="47.31584" lon="6.83592">
        <ele>701.7</ele>
        <time>2021-08-12T08:23:23Z</time>
      </trkpt>
      <trkpt lat="47.31581" lon="6.83592">
        <ele>701.7</ele>
        <time>2021-08-12T08:23:24Z</time>
      </trkpt>
      <trkpt lat="47.3158" lon="6.83592">
        <ele>701.8</ele>
        <time>2021-08-12T08:23:25Z</time>
      </trkpt>
      <trkpt lat="47.31578" lon="6.83592">
        <ele>701.8</ele>
        <time>2021-08-12T08:23:26Z</time>
      </trkpt>
      <trkpt lat="47.31577" lon="6.83593">
        <ele>701.8</ele>
        <time>2021-08-12T08:23:27Z</time>
      </trkpt>
      <trkpt lat="47.31574" lon="6.83593">
        <ele>701.9</ele>
        <time>2021-08-12T08:23:29Z</time>
      </trkpt>
      <trkpt lat="47.31572" lon="6.83594">
        <ele>701.9</ele>
        <time>2021-08-12T08:23:30Z</time>
      </trkpt>
      <trkpt lat="47.3157" lon="6.83593">
        <ele>702</ele>
        <time>2021-08-12T08:23:32Z</time>
      </trkpt>
      <trkpt lat="47.31569" lon="6.83593">
        <ele>702</ele>
        <time>2021-08-12T08:23:33Z</time>
      </trkpt>
      <trkpt lat="47.31565" lon="6.83591">
        <ele>702.1</ele>
        <time>2021-08-12T08:23:34Z</time>
      </trkpt>
      <trkpt lat="47.31563" lon="6.83591">
        <ele>702.1</ele>
        <time>2021-08-12T08:23:35Z</time>
      </trkpt>
      <trkpt lat="47.31561" lon="6.83588">
        <ele>702.2</ele>
        <time>2021-08-12T08:23:37Z</time>
      </trkpt>
      <trkpt lat="47.31557" lon="6.83586">
        <ele>702.3</ele>
        <time>2021-08-12T08:23:38Z</time>
      </trkpt>
      <trkpt lat="47.31555" lon="6.83585">
        <ele>702.4</ele>
        <time>2021-08-12T08:23:40Z</time>
      </trkpt>
      <trkpt lat="47.31554" lon="6.83584">
        <ele>702.4</ele>
        <time>2021-08-12T08:23:41Z</time>
      </trkpt>
      <trkpt lat="47.31553" lon="6.83583">
        <ele>702.5</ele>
        <time>2021-08-12T08:23:42Z</time>
      </trkpt>
      <trkpt lat="47.3155" lon="6.83583">
        <ele>702.5</ele>
        <time>2021-08-12T08:23:44Z</time>
      </trkpt>
      <trkpt lat="47.31547" lon="6.83584">
        <ele>702.6</ele>
        <time>2021-08-12T08:23:45Z</time>
      </trkpt>
      <trkpt lat="47.31545" lon="6.83584">
        <ele>702.7</ele>
        <time>2021-08-12T08:23:46Z</time>
      </trkpt>
      <trkpt lat="47.31541" lon="6.83583">
        <ele>702.8</ele>
        <time>2021-08-12T08:23:47Z</time>
      </trkpt>
      <trkpt lat="47.31538" lon="6.83584">
        <ele>702.9</ele>
        <time>2021-08-12T08:23:48Z</time>
      </trkpt>
      <trkpt lat="47.31535" lon="6.83583">
        <ele>703</ele>
        <time>2021-08-12T08:23:50Z</time>
      </trkpt>
      <trkpt lat="47.3153" lon="6.83583">
        <ele>703.1</ele>
        <time>2021-08-12T08:23:51Z</time>
      </trkpt>
      <trkpt lat="47.31526" lon="6.83582">
        <ele>703.2</ele>
        <time>2021-08-12T08:23:52Z</time>
      </trkpt>
      <trkpt lat="47.31524" lon="6.83582">
        <ele>703.3</ele>
        <time>2021-08-12T08:23:53Z</time>
      </trkpt>
      <trkpt lat="47.3152" lon="6.83582">
        <ele>703.4</ele>
        <time>2021-08-12T08:23:54Z</time>
      </trkpt>
      <trkpt lat="47.31517" lon="6.83581">
        <ele>703.5</ele>
        <time>2021-08-12T08:23:56Z</time>
      </trkpt>
      <trkpt lat="47.31516" lon="6.8358">
        <ele>703.5</ele>
        <time>2021-08-12T08:23:57Z</time>
      </trkpt>
      <trkpt lat="47.31513" lon="6.83579">
        <ele>703.6</ele>
        <time>2021-08-12T08:23:58Z</time>
      </trkpt>
      <trkpt lat="47.31512" lon="6.83579">
        <ele>703.6</ele>
        <time>2021-08-12T08:23:59Z</time>
      </trkpt>
      <trkpt lat="47.31508" lon="6.83578">
        <ele>703.7</ele>
        <time>2021-08-12T08:24:01Z</time>
      </trkpt>
      <trkpt lat="47.31505" lon="6.83576">
        <ele>703.8</ele>
        <time>2021-08-12T08:24:03Z</time>
      </trkpt>
      <trkpt lat="47.31501" lon="6.83575">
        <ele>703.9</ele>
        <time>2021-08-12T08:24:05Z</time>
      </trkpt>
      <trkpt lat="47.31497" lon="6.83574">
        <ele>704</ele>
        <time>2021-08-12T08:24:06Z</time>
      </trkpt>
      <trkpt lat="47.31496" lon="6.83574">
        <ele>704</ele>
        <time>2021-08-12T08:24:07Z</time>
      </trkpt>
      <trkpt lat="47.31492" lon="6.83574">
        <ele>704.1</ele>
        <time>2021-08-12T08:24:08Z</time>
      </trkpt>
      <trkpt lat="47.31491" lon="6.83574">
        <ele>704.2</ele>
        <time>2021-08-12T08:24:09Z</time>
      </trkpt>
      <trkpt lat="47.31487" lon="6.83574">
        <ele>704.3</ele>
        <time>2021-08-12T08:24:11Z</time>
      </trkpt>
      <trkpt lat="47.31485" lon="6.83574">
        <ele>704.3</ele>
        <time>2021-08-12T08:24:12Z</time>
      </trkpt>
      <trkpt lat="47.31483" lon="6.83574">
        <ele>704.4</ele>
        <time>2021-08-12T08:24:14Z</time>
      </trkpt>
      <trkpt lat="47.31481" lon="6.83574">
        <ele>704.4</ele>
        <time>2021-08-12T08:24:15Z</time>
      </trkpt>
      <trkpt lat="47.3148" lon="6.83574">
        <ele>704.4</ele>
        <time>2021-08-12T08:24:16Z</time>
      </trkpt>
      <trkpt lat="47.31478" lon="6.83574">
        <ele>704.5</ele>
        <time>2021-08-12T08:24:17Z</time>
      </trkpt>
      <trkpt lat="47.31477" lon="6.83575">
        <ele>704.5</ele>
        <time>2021-08-12T08:24:18Z</time>
      </trkpt>
      <trkpt lat="47.31476" lon="6.83574">
        <ele>704.6</ele>
        <time>2021-08-12T08:24:19Z</time>
      </trkpt>
      <trkpt lat="47.31474" lon="6.83575">
        <ele>704.6</ele>
        <time>2021-08-12T08:24:20Z</time>
      </trkpt>
      <trkpt lat="47.31472" lon="6.83575">
        <ele>704.6</ele>
        <time>2021-08-12T08:24:22Z</time>
      </trkpt>
      <trkpt lat="47.31471" lon="6.83574">
        <ele>704.7</ele>
        <time>2021-08-12T08:24:23Z</time>
      </trkpt>
      <trkpt lat="47.31467" lon="6.83574">
        <ele>704.8</ele>
        <time>2021-08-12T08:24:24Z</time>
      </trkpt>
      <trkpt lat="47.31466" lon="6.83574">
        <ele>704.8</ele>
        <time>2021-08-12T08:24:25Z</time>
      </trkpt>
      <trkpt lat="47.31463" lon="6.83574">
        <ele>704.9</ele>
        <time>2021-08-12T08:24:26Z</time>
      </trkpt>
      <trkpt lat="47.31462" lon="6.83574">
        <ele>704.9</ele>
        <time>2021-08-12T08:24:27Z</time>
      </trkpt>
      <trkpt lat="47.31459" lon="6.83573">
        <ele>705</ele>
        <time>2021-08-12T08:24:29Z</time>
      </trkpt>
      <trkpt lat="47.31454" lon="6.83573">
        <ele>705.2</ele>
        <time>2021-08-12T08:24:30Z</time>
      </trkpt>
      <trkpt lat="47.31452" lon="6.83573">
        <ele>705.2</ele>
        <time>2021-08-12T08:24:32Z</time>
      </trkpt>
      <trkpt lat="47.31448" lon="6.83572">
        <ele>705.3</ele>
        <time>2021-08-12T08:24:33Z</time>
      </trkpt>
      <trkpt lat="47.31445" lon="6.83571">
        <ele>705.4</ele>
        <time>2021-08-12T08:24:35Z</time>
      </trkpt>
      <trkpt lat="47.31441" lon="6.83571">
        <ele>705.5</ele>
        <time>2021-08-12T08:24:36Z</time>
      </trkpt>
      <trkpt lat="47.31438" lon="6.8357">
        <ele>705.6</ele>
        <time>2021-08-12T08:24:37Z</time>
      </trkpt>
      <trkpt lat="47.31437" lon="6.83569">
        <ele>705.7</ele>
        <time>2021-08-12T08:24:38Z</time>
      </trkpt>
      <trkpt lat="47.31434" lon="6.83568">
        <ele>705.8</ele>
        <time>2021-08-12T08:24:40Z</time>
      </trkpt>
      <trkpt lat="47.31433" lon="6.83568">
        <ele>705.8</ele>
        <time>2021-08-12T08:24:41Z</time>
      </trkpt>
      <trkpt lat="47.3143" lon="6.83567">
        <ele>705.9</ele>
        <time>2021-08-12T08:24:42Z</time>
      </trkpt>
      <trkpt lat="47.31429" lon="6.83566">
        <ele>706</ele>
        <time>2021-08-12T08:24:43Z</time>
      </trkpt>
      <trkpt lat="47.31427" lon="6.83565">
        <ele>706</ele>
        <time>2021-08-12T08:24:45Z</time>
      </trkpt>
      <trkpt lat="47.31425" lon="6.83565">
        <ele>706.1</ele>
        <time>2021-08-12T08:24:46Z</time>
      </trkpt>
      <trkpt lat="47.31423" lon="6.83564">
        <ele>706.2</ele>
        <time>2021-08-12T08:24:48Z</time>
      </trkpt>
      <trkpt lat="47.31421" lon="6.83564">
        <ele>706.2</ele>
        <time>2021-08-12T08:24:49Z</time>
      </trkpt>
      <trkpt lat="47.31419" lon="6.83565">
        <ele>706.3</ele>
        <time>2021-08-12T08:24:50Z</time>
      </trkpt>
      <trkpt lat="47.31417" lon="6.83564">
        <ele>706.4</ele>
        <time>2021-08-12T08:24:52Z</time>
      </trkpt>
      <trkpt lat="47.31416" lon="6.83564">
        <ele>706.4</ele>
        <time>2021-08-12T08:24:53Z</time>
      </trkpt>
      <trkpt lat="47.31416" lon="6.83564">
        <ele>706.5</ele>
        <time>2021-08-12T08:24:54Z</time>
      </trkpt>
      <trkpt lat="47.31413" lon="6.83564">
        <ele>706.5</ele>
        <time>2021-08-12T08:24:55Z</time>
      </trkpt>
      <trkpt lat="47.31411" lon="6.83563">
        <ele>706.6</ele>
        <time>2021-08-12T08:24:57Z</time>
      </trkpt>
      <trkpt lat="47.31409" lon="6.83562">
        <ele>706.7</ele>
        <time>2021-08-12T08:24:58Z</time>
      </trkpt>
      <trkpt lat="47.31406" lon="6.83561">
        <ele>706.8</ele>
        <time>2021-08-12T08:25:00Z</time>
      </trkpt>
      <trkpt lat="47.31404" lon="6.83561">
        <ele>706.9</ele>
        <time>2021-08-12T08:25:01Z</time>
      </trkpt>
      <trkpt lat="47.31403" lon="6.83561">
        <ele>707</ele>
        <time>2021-08-12T08:25:02Z</time>
      </trkpt>
      <trkpt lat="47.31401" lon="6.8356">
        <ele>707.1</ele>
        <time>2021-08-12T08:25:03Z</time>
      </trkpt>
      <trkpt lat="47.31399" lon="6.8356">
        <ele>707.2</ele>
        <time>2021-08-12T08:25:05Z</time>
      </trkpt>
      <trkpt lat="47.31395" lon="6.83559">
        <ele>707.3</ele>
        <time>2021-08-12T08:25:07Z</time>
      </trkpt>
      <trkpt lat="47.31392" lon="6.83558">
        <ele>707.5</ele>
        <time>2021-08-12T08:25:08Z</time>
      </trkpt>
      <trkpt lat="47.31391" lon="6.83558">
        <ele>707.5</ele>
        <time>2021-08-12T08:25:09Z</time>
      </trkpt>
      <trkpt lat="47.31388" lon="6.83556">
        <ele>707.7</ele>
        <time>2021-08-12T08:25:11Z</time>
      </trkpt>
      <trkpt lat="47.31387" lon="6.83555">
        <ele>707.8</ele>
        <time>2021-08-12T08:25:12Z</time>
      </trkpt>
      <trkpt lat="47.31385" lon="6.83554">
        <ele>707.8</ele>
        <time>2021-08-12T08:25:13Z</time>
      </trkpt>
      <trkpt lat="47.31383" lon="6.83553">
        <ele>707.9</ele>
        <time>2021-08-12T08:25:15Z</time>
      </trkpt>
      <trkpt lat="47.31382" lon="6.83554">
        <ele>708</ele>
        <time>2021-08-12T08:25:16Z</time>
      </trkpt>
      <trkpt lat="47.3138" lon="6.83553">
        <ele>708.1</ele>
        <time>2021-08-12T08:25:17Z</time>
      </trkpt>
      <trkpt lat="47.31379" lon="6.83553">
        <ele>708.1</ele>
        <time>2021-08-12T08:25:18Z</time>
      </trkpt>
      <trkpt lat="47.31376" lon="6.83552">
        <ele>708.3</ele>
        <time>2021-08-12T08:25:20Z</time>
      </trkpt>
      <trkpt lat="47.31375" lon="6.83551">
        <ele>708.3</ele>
        <time>2021-08-12T08:25:21Z</time>
      </trkpt>
      <trkpt lat="47.31374" lon="6.83551">
        <ele>708.4</ele>
        <time>2021-08-12T08:25:22Z</time>
      </trkpt>
      <trkpt lat="47.31371" lon="6.8355">
        <ele>708.6</ele>
        <time>2021-08-12T08:25:24Z</time>
      </trkpt>
      <trkpt lat="47.31369" lon="6.8355">
        <ele>708.6</ele>
        <time>2021-08-12T08:25:25Z</time>
      </trkpt>
      <trkpt lat="47.31368" lon="6.8355">
        <ele>708.7</ele>
        <time>2021-08-12T08:25:26Z</time>
      </trkpt>
      <trkpt lat="47.31365" lon="6.83549">
        <ele>708.8</ele>
        <time>2021-08-12T08:25:27Z</time>
      </trkpt>
      <trkpt lat="47.31363" lon="6.83549">
        <ele>708.9</ele>
        <time>2021-08-12T08:25:29Z</time>
      </trkpt>
      <trkpt lat="47.3136" lon="6.83548">
        <ele>709.1</ele>
        <time>2021-08-12T08:25:31Z</time>
      </trkpt>
      <trkpt lat="47.31358" lon="6.83547">
        <ele>709.2</ele>
        <time>2021-08-12T08:25:32Z</time>
      </trkpt>
      <trkpt lat="47.31357" lon="6.83547">
        <ele>709.3</ele>
        <time>2021-08-12T08:25:33Z</time>
      </trkpt>
      <trkpt lat="47.31354" lon="6.83546">
        <ele>709.5</ele>
        <time>2021-08-12T08:25:35Z</time>
      </trkpt>
      <trkpt lat="47.31351" lon="6.83545">
        <ele>709.7</ele>
        <time>2021-08-12T08:25:36Z</time>
      </trkpt>
      <trkpt lat="47.31349" lon="6.83544">
        <ele>709.8</ele>
        <time>2021-08-12T08:25:38Z</time>
      </trkpt>
      <trkpt lat="47.31346" lon="6.83542">
        <ele>710</ele>
        <time>2021-08-12T08:25:40Z</time>
      </trkpt>
      <trkpt lat="47.31344" lon="6.83539">
        <ele>710.2</ele>
        <time>2021-08-12T08:25:42Z</time>
      </trkpt>
      <trkpt lat="47.31341" lon="6.83538">
        <ele>710.4</ele>
        <time>2021-08-12T08:25:44Z</time>
      </trkpt>
      <trkpt lat="47.31339" lon="6.83538">
        <ele>710.5</ele>
        <time>2021-08-12T08:25:45Z</time>
      </trkpt>
      <trkpt lat="47.31337" lon="6.83538">
        <ele>710.6</ele>
        <time>2021-08-12T08:25:46Z</time>
      </trkpt>
      <trkpt lat="47.31336" lon="6.83537">
        <ele>710.7</ele>
        <time>2021-08-12T08:25:47Z</time>
      </trkpt>
      <trkpt lat="47.31335" lon="6.83537">
        <ele>710.8</ele>
        <time>2021-08-12T08:25:49Z</time>
      </trkpt>
      <trkpt lat="47.31333" lon="6.83537">
        <ele>710.9</ele>
        <time>2021-08-12T08:25:51Z</time>
      </trkpt>
      <trkpt lat="47.31332" lon="6.83537">
        <ele>711</ele>
        <time>2021-08-12T08:25:52Z</time>
      </trkpt>
      <trkpt lat="47.3133" lon="6.83537">
        <ele>711.1</ele>
        <time>2021-08-12T08:25:53Z</time>
      </trkpt>
      <trkpt lat="47.31328" lon="6.83537">
        <ele>711.3</ele>
        <time>2021-08-12T08:25:54Z</time>
      </trkpt>
      <trkpt lat="47.31327" lon="6.83537">
        <ele>711.3</ele>
        <time>2021-08-12T08:25:56Z</time>
      </trkpt>
      <trkpt lat="47.31326" lon="6.83537">
        <ele>711.4</ele>
        <time>2021-08-12T08:25:57Z</time>
      </trkpt>
      <trkpt lat="47.31324" lon="6.83537">
        <ele>711.5</ele>
        <time>2021-08-12T08:25:59Z</time>
      </trkpt>
      <trkpt lat="47.31323" lon="6.83537">
        <ele>711.6</ele>
        <time>2021-08-12T08:26:00Z</time>
      </trkpt>
      <trkpt lat="47.31321" lon="6.83536">
        <ele>711.7</ele>
        <time>2021-08-12T08:26:02Z</time>
      </trkpt>
      <trkpt lat="47.31318" lon="6.83537">
        <ele>711.9</ele>
        <time>2021-08-12T08:26:03Z</time>
      </trkpt>
      <trkpt lat="47.31317" lon="6.83537">
        <ele>712</ele>
        <time>2021-08-12T08:26:05Z</time>
      </trkpt>
      <trkpt lat="47.31315" lon="6.83537">
        <ele>712.1</ele>
        <time>2021-08-12T08:26:06Z</time>
      </trkpt>
      <trkpt lat="47.31314" lon="6.83537">
        <ele>712.2</ele>
        <time>2021-08-12T08:26:07Z</time>
      </trkpt>
      <trkpt lat="47.31312" lon="6.83536">
        <ele>712.3</ele>
        <time>2021-08-12T08:26:09Z</time>
      </trkpt>
      <trkpt lat="47.31311" lon="6.83536">
        <ele>712.4</ele>
        <time>2021-08-12T08:26:10Z</time>
      </trkpt>
      <trkpt lat="47.31308" lon="6.83535">
        <ele>712.5</ele>
        <time>2021-08-12T08:26:11Z</time>
      </trkpt>
      <trkpt lat="47.31307" lon="6.83534">
        <ele>712.6</ele>
        <time>2021-08-12T08:26:12Z</time>
      </trkpt>
      <trkpt lat="47.31305" lon="6.83534">
        <ele>712.7</ele>
        <time>2021-08-12T08:26:13Z</time>
      </trkpt>
      <trkpt lat="47.31303" lon="6.83534">
        <ele>712.8</ele>
        <time>2021-08-12T08:26:14Z</time>
      </trkpt>
      <trkpt lat="47.313" lon="6.83532">
        <ele>713</ele>
        <time>2021-08-12T08:26:15Z</time>
      </trkpt>
      <trkpt lat="47.313" lon="6.83532">
        <ele>713.1</ele>
        <time>2021-08-12T08:26:16Z</time>
      </trkpt>
      <trkpt lat="47.31295" lon="6.8353">
        <ele>713.4</ele>
        <time>2021-08-12T08:26:18Z</time>
      </trkpt>
      <trkpt lat="47.31294" lon="6.83529">
        <ele>713.5</ele>
        <time>2021-08-12T08:26:19Z</time>
      </trkpt>
      <trkpt lat="47.31292" lon="6.83529">
        <ele>713.6</ele>
        <time>2021-08-12T08:26:20Z</time>
      </trkpt>
      <trkpt lat="47.31289" lon="6.83528">
        <ele>713.8</ele>
        <time>2021-08-12T08:26:22Z</time>
      </trkpt>
      <trkpt lat="47.31287" lon="6.83528">
        <ele>713.9</ele>
        <time>2021-08-12T08:26:23Z</time>
      </trkpt>
      <trkpt lat="47.31286" lon="6.83528">
        <ele>714</ele>
        <time>2021-08-12T08:26:24Z</time>
      </trkpt>
      <trkpt lat="47.31283" lon="6.83527">
        <ele>714.2</ele>
        <time>2021-08-12T08:26:26Z</time>
      </trkpt>
      <trkpt lat="47.31282" lon="6.83527">
        <ele>714.2</ele>
        <time>2021-08-12T08:26:27Z</time>
      </trkpt>
      <trkpt lat="47.31279" lon="6.83527">
        <ele>714.4</ele>
        <time>2021-08-12T08:26:29Z</time>
      </trkpt>
      <trkpt lat="47.31276" lon="6.83527">
        <ele>714.6</ele>
        <time>2021-08-12T08:26:30Z</time>
      </trkpt>
      <trkpt lat="47.31274" lon="6.83527">
        <ele>714.7</ele>
        <time>2021-08-12T08:26:31Z</time>
      </trkpt>
      <trkpt lat="47.31273" lon="6.83527">
        <ele>714.8</ele>
        <time>2021-08-12T08:26:32Z</time>
      </trkpt>
      <trkpt lat="47.31271" lon="6.83527">
        <ele>714.9</ele>
        <time>2021-08-12T08:26:34Z</time>
      </trkpt>
      <trkpt lat="47.31269" lon="6.83527">
        <ele>715</ele>
        <time>2021-08-12T08:26:35Z</time>
      </trkpt>
      <trkpt lat="47.31268" lon="6.83527">
        <ele>715.1</ele>
        <time>2021-08-12T08:26:37Z</time>
      </trkpt>
      <trkpt lat="47.31266" lon="6.83527">
        <ele>715.2</ele>
        <time>2021-08-12T08:26:38Z</time>
      </trkpt>
      <trkpt lat="47.31264" lon="6.83527">
        <ele>715.3</ele>
        <time>2021-08-12T08:26:40Z</time>
      </trkpt>
      <trkpt lat="47.31263" lon="6.83527">
        <ele>715.4</ele>
        <time>2021-08-12T08:26:41Z</time>
      </trkpt>
      <trkpt lat="47.31261" lon="6.83527">
        <ele>715.6</ele>
        <time>2021-08-12T08:26:43Z</time>
      </trkpt>
      <trkpt lat="47.3126" lon="6.83527">
        <ele>715.6</ele>
        <time>2021-08-12T08:26:44Z</time>
      </trkpt>
      <trkpt lat="47.31256" lon="6.83527">
        <ele>715.9</ele>
        <time>2021-08-12T08:26:45Z</time>
      </trkpt>
      <trkpt lat="47.31253" lon="6.83527">
        <ele>716.1</ele>
        <time>2021-08-12T08:26:46Z</time>
      </trkpt>
      <trkpt lat="47.3125" lon="6.83527">
        <ele>716.3</ele>
        <time>2021-08-12T08:26:47Z</time>
      </trkpt>
      <trkpt lat="47.31246" lon="6.83526">
        <ele>716.6</ele>
        <time>2021-08-12T08:26:49Z</time>
      </trkpt>
      <trkpt lat="47.31243" lon="6.83526">
        <ele>716.8</ele>
        <time>2021-08-12T08:26:50Z</time>
      </trkpt>
      <trkpt lat="47.3124" lon="6.83526">
        <ele>717.1</ele>
        <time>2021-08-12T08:26:51Z</time>
      </trkpt>
      <trkpt lat="47.31236" lon="6.83526">
        <ele>717.3</ele>
        <time>2021-08-12T08:26:53Z</time>
      </trkpt>
      <trkpt lat="47.31233" lon="6.83526">
        <ele>717.5</ele>
        <time>2021-08-12T08:26:55Z</time>
      </trkpt>
      <trkpt lat="47.3123" lon="6.83526">
        <ele>717.8</ele>
        <time>2021-08-12T08:26:56Z</time>
      </trkpt>
      <trkpt lat="47.31226" lon="6.83526">
        <ele>718</ele>
        <time>2021-08-12T08:26:57Z</time>
      </trkpt>
      <trkpt lat="47.31223" lon="6.83526">
        <ele>718.3</ele>
        <time>2021-08-12T08:27:20Z</time>
      </trkpt>
      <trkpt lat="47.3122" lon="6.83526">
        <ele>718.5</ele>
        <time>2021-08-12T08:27:21Z</time>
      </trkpt>
      <trkpt lat="47.31216" lon="6.83526">
        <ele>718.7</ele>
        <time>2021-08-12T08:27:22Z</time>
      </trkpt>
      <trkpt lat="47.31214" lon="6.83528">
        <ele>718.9</ele>
        <time>2021-08-12T08:27:23Z</time>
      </trkpt>
      <trkpt lat="47.31213" lon="6.8353">
        <ele>719</ele>
        <time>2021-08-12T08:27:25Z</time>
      </trkpt>
      <trkpt lat="47.3121" lon="6.83535">
        <ele>719.3</ele>
        <time>2021-08-12T08:27:26Z</time>
      </trkpt>
      <trkpt lat="47.3121" lon="6.83535">
        <ele>719.3</ele>
        <time>2021-08-12T08:27:27Z</time>
      </trkpt>
      <trkpt lat="47.31209" lon="6.83535">
        <ele>719.3</ele>
        <time>2021-08-12T08:27:28Z</time>
      </trkpt>
      <trkpt lat="47.31208" lon="6.83535">
        <ele>719.4</ele>
        <time>2021-08-12T08:27:29Z</time>
      </trkpt>
      <trkpt lat="47.31207" lon="6.83535">
        <ele>719.5</ele>
        <time>2021-08-12T08:27:30Z</time>
      </trkpt>
      <trkpt lat="47.31208" lon="6.83534">
        <ele>719.5</ele>
        <time>2021-08-12T08:27:32Z</time>
      </trkpt>
      <trkpt lat="47.31207" lon="6.83534">
        <ele>719.5</ele>
        <time>2021-08-12T08:27:33Z</time>
      </trkpt>
      <trkpt lat="47.31206" lon="6.83534">
        <ele>719.6</ele>
        <time>2021-08-12T08:27:34Z</time>
      </trkpt>
      <trkpt lat="47.31206" lon="6.83534">
        <ele>719.6</ele>
        <time>2021-08-12T08:27:35Z</time>
      </trkpt>
      <trkpt lat="47.31205" lon="6.83535">
        <ele>719.6</ele>
        <time>2021-08-12T08:27:36Z</time>
      </trkpt>
      <trkpt lat="47.31205" lon="6.83535">
        <ele>719.7</ele>
        <time>2021-08-12T08:27:37Z</time>
      </trkpt>
      <trkpt lat="47.31204" lon="6.83535">
        <ele>719.7</ele>
        <time>2021-08-12T08:27:39Z</time>
      </trkpt>
      <trkpt lat="47.31203" lon="6.83535">
        <ele>719.8</ele>
        <time>2021-08-12T08:27:40Z</time>
      </trkpt>
      <trkpt lat="47.31202" lon="6.83535">
        <ele>719.8</ele>
        <time>2021-08-12T08:27:41Z</time>
      </trkpt>
      <trkpt lat="47.31201" lon="6.83535">
        <ele>719.9</ele>
        <time>2021-08-12T08:27:42Z</time>
      </trkpt>
      <trkpt lat="47.312" lon="6.83534">
        <ele>720</ele>
        <time>2021-08-12T08:27:44Z</time>
      </trkpt>
      <trkpt lat="47.31187" lon="6.83527">
        <ele>720.9</ele>
        <time>2021-08-12T08:27:51Z</time>
      </trkpt>
      <trkpt lat="47.31183" lon="6.83527">
        <ele>721.1</ele>
        <time>2021-08-12T08:27:52Z</time>
      </trkpt>
      <trkpt lat="47.31181" lon="6.83526">
        <ele>721.2</ele>
        <time>2021-08-12T08:27:53Z</time>
      </trkpt>
      <trkpt lat="47.31179" lon="6.83526">
        <ele>721.4</ele>
        <time>2021-08-12T08:27:54Z</time>
      </trkpt>
      <trkpt lat="47.31178" lon="6.83525">
        <ele>721.5</ele>
        <time>2021-08-12T08:27:55Z</time>
      </trkpt>
      <trkpt lat="47.31176" lon="6.83526">
        <ele>721.6</ele>
        <time>2021-08-12T08:27:57Z</time>
      </trkpt>
      <trkpt lat="47.31175" lon="6.83526">
        <ele>721.7</ele>
        <time>2021-08-12T08:27:58Z</time>
      </trkpt>
      <trkpt lat="47.31172" lon="6.83528">
        <ele>721.8</ele>
        <time>2021-08-12T08:28:00Z</time>
      </trkpt>
      <trkpt lat="47.31169" lon="6.8353">
        <ele>722</ele>
        <time>2021-08-12T08:28:02Z</time>
      </trkpt>
      <trkpt lat="47.31166" lon="6.8353">
        <ele>722.2</ele>
        <time>2021-08-12T08:28:03Z</time>
      </trkpt>
      <trkpt lat="47.31165" lon="6.83529">
        <ele>722.3</ele>
        <time>2021-08-12T08:28:04Z</time>
      </trkpt>
      <trkpt lat="47.31161" lon="6.83527">
        <ele>722.5</ele>
        <time>2021-08-12T08:28:05Z</time>
      </trkpt>
      <trkpt lat="47.31156" lon="6.83524">
        <ele>722.8</ele>
        <time>2021-08-12T08:28:07Z</time>
      </trkpt>
      <trkpt lat="47.31155" lon="6.83523">
        <ele>722.9</ele>
        <time>2021-08-12T08:28:08Z</time>
      </trkpt>
      <trkpt lat="47.31153" lon="6.83521">
        <ele>723</ele>
        <time>2021-08-12T08:28:09Z</time>
      </trkpt>
      <trkpt lat="47.31151" lon="6.83519">
        <ele>723.2</ele>
        <time>2021-08-12T08:28:10Z</time>
      </trkpt>
      <trkpt lat="47.31147" lon="6.83515">
        <ele>723.5</ele>
        <time>2021-08-12T08:28:11Z</time>
      </trkpt>
      <trkpt lat="47.31145" lon="6.83513">
        <ele>723.6</ele>
        <time>2021-08-12T08:28:12Z</time>
      </trkpt>
      <trkpt lat="47.31143" lon="6.8351">
        <ele>723.8</ele>
        <time>2021-08-12T08:28:13Z</time>
      </trkpt>
      <trkpt lat="47.31141" lon="6.83507">
        <ele>723.9</ele>
        <time>2021-08-12T08:28:14Z</time>
      </trkpt>
      <trkpt lat="47.31136" lon="6.83505">
        <ele>724.2</ele>
        <time>2021-08-12T08:28:16Z</time>
      </trkpt>
      <trkpt lat="47.31135" lon="6.83506">
        <ele>724.3</ele>
        <time>2021-08-12T08:28:17Z</time>
      </trkpt>
      <trkpt lat="47.31133" lon="6.83506">
        <ele>724.4</ele>
        <time>2021-08-12T08:28:18Z</time>
      </trkpt>
      <trkpt lat="47.31132" lon="6.83508">
        <ele>724.5</ele>
        <time>2021-08-12T08:28:20Z</time>
      </trkpt>
      <trkpt lat="47.3113" lon="6.83508">
        <ele>724.6</ele>
        <time>2021-08-12T08:28:21Z</time>
      </trkpt>
      <trkpt lat="47.31128" lon="6.83507">
        <ele>724.7</ele>
        <time>2021-08-12T08:28:22Z</time>
      </trkpt>
      <trkpt lat="47.31127" lon="6.83507">
        <ele>724.8</ele>
        <time>2021-08-12T08:28:23Z</time>
      </trkpt>
      <trkpt lat="47.31127" lon="6.83506">
        <ele>724.8</ele>
        <time>2021-08-12T08:28:24Z</time>
      </trkpt>
      <trkpt lat="47.31125" lon="6.83506">
        <ele>724.9</ele>
        <time>2021-08-12T08:28:26Z</time>
      </trkpt>
      <trkpt lat="47.31121" lon="6.83504">
        <ele>725.1</ele>
        <time>2021-08-12T08:28:28Z</time>
      </trkpt>
      <trkpt lat="47.31119" lon="6.83504">
        <ele>725.2</ele>
        <time>2021-08-12T08:28:29Z</time>
      </trkpt>
      <trkpt lat="47.31118" lon="6.83503">
        <ele>725.3</ele>
        <time>2021-08-12T08:28:30Z</time>
      </trkpt>
      <trkpt lat="47.31115" lon="6.83504">
        <ele>725.5</ele>
        <time>2021-08-12T08:28:32Z</time>
      </trkpt>
      <trkpt lat="47.31114" lon="6.83504">
        <ele>725.5</ele>
        <time>2021-08-12T08:28:33Z</time>
      </trkpt>
      <trkpt lat="47.31113" lon="6.83504">
        <ele>725.6</ele>
        <time>2021-08-12T08:28:34Z</time>
      </trkpt>
      <trkpt lat="47.31112" lon="6.83505">
        <ele>725.7</ele>
        <time>2021-08-12T08:28:36Z</time>
      </trkpt>
      <trkpt lat="47.3111" lon="6.83506">
        <ele>725.8</ele>
        <time>2021-08-12T08:28:38Z</time>
      </trkpt>
      <trkpt lat="47.31106" lon="6.83504">
        <ele>726</ele>
        <time>2021-08-12T08:28:40Z</time>
      </trkpt>
      <trkpt lat="47.31105" lon="6.83502">
        <ele>726.1</ele>
        <time>2021-08-12T08:28:42Z</time>
      </trkpt>
      <trkpt lat="47.31104" lon="6.83501">
        <ele>726.2</ele>
        <time>2021-08-12T08:28:43Z</time>
      </trkpt>
      <trkpt lat="47.31104" lon="6.83498">
        <ele>726.3</ele>
        <time>2021-08-12T08:28:44Z</time>
      </trkpt>
      <trkpt lat="47.31104" lon="6.83497">
        <ele>726.4</ele>
        <time>2021-08-12T08:28:46Z</time>
      </trkpt>
      <trkpt lat="47.31104" lon="6.83496">
        <ele>726.4</ele>
        <time>2021-08-12T08:28:47Z</time>
      </trkpt>
      <trkpt lat="47.31104" lon="6.83496">
        <ele>726.4</ele>
        <time>2021-08-12T08:28:48Z</time>
      </trkpt>
      <trkpt lat="47.31103" lon="6.83495">
        <ele>726.4</ele>
        <time>2021-08-12T08:28:50Z</time>
      </trkpt>
      <trkpt lat="47.31105" lon="6.83495">
        <ele>726.5</ele>
        <time>2021-08-12T08:28:52Z</time>
      </trkpt>
      <trkpt lat="47.31105" lon="6.83495">
        <ele>726.5</ele>
        <time>2021-08-12T08:28:53Z</time>
      </trkpt>
      <trkpt lat="47.31105" lon="6.83494">
        <ele>726.5</ele>
        <time>2021-08-12T08:28:54Z</time>
      </trkpt>
      <trkpt lat="47.31105" lon="6.83494">
        <ele>726.6</ele>
        <time>2021-08-12T08:28:55Z</time>
      </trkpt>
      <trkpt lat="47.31105" lon="6.83493">
        <ele>726.6</ele>
        <time>2021-08-12T08:28:57Z</time>
      </trkpt>
      <trkpt lat="47.31104" lon="6.83493">
        <ele>726.6</ele>
        <time>2021-08-12T08:28:58Z</time>
      </trkpt>
      <trkpt lat="47.31097" lon="6.83493">
        <ele>727.1</ele>
        <time>2021-08-12T08:29:06Z</time>
      </trkpt>
      <trkpt lat="47.31094" lon="6.83493">
        <ele>727.2</ele>
        <time>2021-08-12T08:29:07Z</time>
      </trkpt>
      <trkpt lat="47.31092" lon="6.83492">
        <ele>727.3</ele>
        <time>2021-08-12T08:29:09Z</time>
      </trkpt>
      <trkpt lat="47.31091" lon="6.83494">
        <ele>727.4</ele>
        <time>2021-08-12T08:29:10Z</time>
      </trkpt>
      <trkpt lat="47.3109" lon="6.83495">
        <ele>727.5</ele>
        <time>2021-08-12T08:29:11Z</time>
      </trkpt>
      <trkpt lat="47.31089" lon="6.83496">
        <ele>727.5</ele>
        <time>2021-08-12T08:29:12Z</time>
      </trkpt>
      <trkpt lat="47.31086" lon="6.83499">
        <ele>727.7</ele>
        <time>2021-08-12T08:29:13Z</time>
      </trkpt>
      <trkpt lat="47.31085" lon="6.83499">
        <ele>727.8</ele>
        <time>2021-08-12T08:29:14Z</time>
      </trkpt>
      <trkpt lat="47.31084" lon="6.83501">
        <ele>727.9</ele>
        <time>2021-08-12T08:29:15Z</time>
      </trkpt>
      <trkpt lat="47.31083" lon="6.83503">
        <ele>728</ele>
        <time>2021-08-12T08:29:17Z</time>
      </trkpt>
      <trkpt lat="47.3108" lon="6.83507">
        <ele>728.1</ele>
        <time>2021-08-12T08:29:18Z</time>
      </trkpt>
      <trkpt lat="47.3108" lon="6.83508">
        <ele>728.2</ele>
        <time>2021-08-12T08:29:19Z</time>
      </trkpt>
      <trkpt lat="47.31078" lon="6.8351">
        <ele>728.3</ele>
        <time>2021-08-12T08:29:21Z</time>
      </trkpt>
      <trkpt lat="47.31077" lon="6.8351">
        <ele>728.4</ele>
        <time>2021-08-12T08:29:22Z</time>
      </trkpt>
      <trkpt lat="47.31074" lon="6.83507">
        <ele>728.6</ele>
        <time>2021-08-12T08:29:23Z</time>
      </trkpt>
      <trkpt lat="47.31072" lon="6.83506">
        <ele>728.8</ele>
        <time>2021-08-12T08:29:24Z</time>
      </trkpt>
      <trkpt lat="47.31069" lon="6.83504">
        <ele>729</ele>
        <time>2021-08-12T08:29:25Z</time>
      </trkpt>
      <trkpt lat="47.31068" lon="6.83503">
        <ele>729</ele>
        <time>2021-08-12T08:29:26Z</time>
      </trkpt>
      <trkpt lat="47.31067" lon="6.83503">
        <ele>729.1</ele>
        <time>2021-08-12T08:29:27Z</time>
      </trkpt>
      <trkpt lat="47.31066" lon="6.83503">
        <ele>729.2</ele>
        <time>2021-08-12T08:29:29Z</time>
      </trkpt>
      <trkpt lat="47.31064" lon="6.83502">
        <ele>729.3</ele>
        <time>2021-08-12T08:29:30Z</time>
      </trkpt>
      <trkpt lat="47.31063" lon="6.83502">
        <ele>729.3</ele>
        <time>2021-08-12T08:29:31Z</time>
      </trkpt>
      <trkpt lat="47.31062" lon="6.83501">
        <ele>729.4</ele>
        <time>2021-08-12T08:29:32Z</time>
      </trkpt>
      <trkpt lat="47.31062" lon="6.835">
        <ele>729.5</ele>
        <time>2021-08-12T08:29:34Z</time>
      </trkpt>
      <trkpt lat="47.31061" lon="6.83498">
        <ele>729.5</ele>
        <time>2021-08-12T08:29:35Z</time>
      </trkpt>
      <trkpt lat="47.31061" lon="6.83497">
        <ele>729.6</ele>
        <time>2021-08-12T08:29:36Z</time>
      </trkpt>
      <trkpt lat="47.3106" lon="6.83496">
        <ele>729.7</ele>
        <time>2021-08-12T08:29:37Z</time>
      </trkpt>
      <trkpt lat="47.31058" lon="6.83493">
        <ele>729.8</ele>
        <time>2021-08-12T08:29:39Z</time>
      </trkpt>
      <trkpt lat="47.31057" lon="6.83493">
        <ele>729.9</ele>
        <time>2021-08-12T08:29:40Z</time>
      </trkpt>
      <trkpt lat="47.31056" lon="6.83492">
        <ele>730</ele>
        <time>2021-08-12T08:29:42Z</time>
      </trkpt>
      <trkpt lat="47.31055" lon="6.83491">
        <ele>730.1</ele>
        <time>2021-08-12T08:29:43Z</time>
      </trkpt>
      <trkpt lat="47.31053" lon="6.83489">
        <ele>730.2</ele>
        <time>2021-08-12T08:29:44Z</time>
      </trkpt>
      <trkpt lat="47.31052" lon="6.83488">
        <ele>730.2</ele>
        <time>2021-08-12T08:29:45Z</time>
      </trkpt>
      <trkpt lat="47.31052" lon="6.83487">
        <ele>730.3</ele>
        <time>2021-08-12T08:29:47Z</time>
      </trkpt>
      <trkpt lat="47.31051" lon="6.83487">
        <ele>730.3</ele>
        <time>2021-08-12T08:29:48Z</time>
      </trkpt>
      <trkpt lat="47.31051" lon="6.83486">
        <ele>730.4</ele>
        <time>2021-08-12T08:29:49Z</time>
      </trkpt>
      <trkpt lat="47.3105" lon="6.83485">
        <ele>730.4</ele>
        <time>2021-08-12T08:29:50Z</time>
      </trkpt>
      <trkpt lat="47.3105" lon="6.83484">
        <ele>730.5</ele>
        <time>2021-08-12T08:29:51Z</time>
      </trkpt>
      <trkpt lat="47.31048" lon="6.83482">
        <ele>730.6</ele>
        <time>2021-08-12T08:29:53Z</time>
      </trkpt>
      <trkpt lat="47.31048" lon="6.83482">
        <ele>730.6</ele>
        <time>2021-08-12T08:29:54Z</time>
      </trkpt>
      <trkpt lat="47.31047" lon="6.83481">
        <ele>730.7</ele>
        <time>2021-08-12T08:29:55Z</time>
      </trkpt>
      <trkpt lat="47.31045" lon="6.8348">
        <ele>730.8</ele>
        <time>2021-08-12T08:29:56Z</time>
      </trkpt>
      <trkpt lat="47.31044" lon="6.83479">
        <ele>730.9</ele>
        <time>2021-08-12T08:29:57Z</time>
      </trkpt>
      <trkpt lat="47.31043" lon="6.83478">
        <ele>731</ele>
        <time>2021-08-12T08:29:59Z</time>
      </trkpt>
      <trkpt lat="47.31041" lon="6.83477">
        <ele>731.1</ele>
        <time>2021-08-12T08:30:00Z</time>
      </trkpt>
      <trkpt lat="47.3104" lon="6.83476">
        <ele>731.2</ele>
        <time>2021-08-12T08:30:01Z</time>
      </trkpt>
      <trkpt lat="47.31039" lon="6.83475">
        <ele>731.3</ele>
        <time>2021-08-12T08:30:02Z</time>
      </trkpt>
      <trkpt lat="47.31036" lon="6.83473">
        <ele>731.4</ele>
        <time>2021-08-12T08:30:03Z</time>
      </trkpt>
      <trkpt lat="47.31035" lon="6.83473">
        <ele>731.5</ele>
        <time>2021-08-12T08:30:05Z</time>
      </trkpt>
      <trkpt lat="47.31034" lon="6.83473">
        <ele>731.6</ele>
        <time>2021-08-12T08:30:06Z</time>
      </trkpt>
      <trkpt lat="47.31032" lon="6.83471">
        <ele>731.7</ele>
        <time>2021-08-12T08:30:08Z</time>
      </trkpt>
      <trkpt lat="47.31029" lon="6.83469">
        <ele>731.9</ele>
        <time>2021-08-12T08:30:09Z</time>
      </trkpt>
      <trkpt lat="47.31028" lon="6.83468">
        <ele>732</ele>
        <time>2021-08-12T08:30:11Z</time>
      </trkpt>
      <trkpt lat="47.31027" lon="6.83467">
        <ele>732.1</ele>
        <time>2021-08-12T08:30:12Z</time>
      </trkpt>
      <trkpt lat="47.31025" lon="6.83466">
        <ele>732.2</ele>
        <time>2021-08-12T08:30:13Z</time>
      </trkpt>
      <trkpt lat="47.31024" lon="6.83465">
        <ele>732.3</ele>
        <time>2021-08-12T08:30:14Z</time>
      </trkpt>
      <trkpt lat="47.31022" lon="6.83464">
        <ele>732.3</ele>
        <time>2021-08-12T08:30:16Z</time>
      </trkpt>
      <trkpt lat="47.31021" lon="6.83463">
        <ele>732.4</ele>
        <time>2021-08-12T08:30:17Z</time>
      </trkpt>
      <trkpt lat="47.3102" lon="6.83462">
        <ele>732.5</ele>
        <time>2021-08-12T08:30:18Z</time>
      </trkpt>
      <trkpt lat="47.31019" lon="6.83461">
        <ele>732.6</ele>
        <time>2021-08-12T08:30:19Z</time>
      </trkpt>
      <trkpt lat="47.31018" lon="6.8346">
        <ele>732.6</ele>
        <time>2021-08-12T08:30:21Z</time>
      </trkpt>
      <trkpt lat="47.31017" lon="6.8346">
        <ele>732.7</ele>
        <time>2021-08-12T08:30:22Z</time>
      </trkpt>
      <trkpt lat="47.31016" lon="6.8346">
        <ele>732.8</ele>
        <time>2021-08-12T08:30:23Z</time>
      </trkpt>
      <trkpt lat="47.31015" lon="6.83461">
        <ele>732.8</ele>
        <time>2021-08-12T08:30:24Z</time>
      </trkpt>
      <trkpt lat="47.31014" lon="6.83462">
        <ele>732.9</ele>
        <time>2021-08-12T08:30:25Z</time>
      </trkpt>
      <trkpt lat="47.31012" lon="6.83465">
        <ele>733</ele>
        <time>2021-08-12T08:30:28Z</time>
      </trkpt>
      <trkpt lat="47.31011" lon="6.83465">
        <ele>733.1</ele>
        <time>2021-08-12T08:30:30Z</time>
      </trkpt>
      <trkpt lat="47.31011" lon="6.83465">
        <ele>733.1</ele>
        <time>2021-08-12T08:30:31Z</time>
      </trkpt>
      <trkpt lat="47.31011" lon="6.83465">
        <ele>733.1</ele>
        <time>2021-08-12T08:30:32Z</time>
      </trkpt>
      <trkpt lat="47.3101" lon="6.83465">
        <ele>733.2</ele>
        <time>2021-08-12T08:30:34Z</time>
      </trkpt>
      <trkpt lat="47.31009" lon="6.83464">
        <ele>733.2</ele>
        <time>2021-08-12T08:30:35Z</time>
      </trkpt>
      <trkpt lat="47.31008" lon="6.83463">
        <ele>733.3</ele>
        <time>2021-08-12T08:30:36Z</time>
      </trkpt>
      <trkpt lat="47.31007" lon="6.83462">
        <ele>733.4</ele>
        <time>2021-08-12T08:30:38Z</time>
      </trkpt>
      <trkpt lat="47.31005" lon="6.8346">
        <ele>733.5</ele>
        <time>2021-08-12T08:30:39Z</time>
      </trkpt>
      <trkpt lat="47.31003" lon="6.83459">
        <ele>733.7</ele>
        <time>2021-08-12T08:30:41Z</time>
      </trkpt>
      <trkpt lat="47.31" lon="6.83457">
        <ele>733.9</ele>
        <time>2021-08-12T08:30:42Z</time>
      </trkpt>
      <trkpt lat="47.30999" lon="6.83457">
        <ele>733.9</ele>
        <time>2021-08-12T08:30:43Z</time>
      </trkpt>
      <trkpt lat="47.30998" lon="6.83455">
        <ele>734.1</ele>
        <time>2021-08-12T08:30:44Z</time>
      </trkpt>
      <trkpt lat="47.30994" lon="6.83455">
        <ele>734.3</ele>
        <time>2021-08-12T08:30:46Z</time>
      </trkpt>
      <trkpt lat="47.30991" lon="6.83455">
        <ele>734.5</ele>
        <time>2021-08-12T08:30:47Z</time>
      </trkpt>
      <trkpt lat="47.30986" lon="6.83454">
        <ele>734.7</ele>
        <time>2021-08-12T08:30:48Z</time>
      </trkpt>
      <trkpt lat="47.30985" lon="6.83454">
        <ele>734.8</ele>
        <time>2021-08-12T08:30:49Z</time>
      </trkpt>
      <trkpt lat="47.30981" lon="6.83455">
        <ele>735</ele>
        <time>2021-08-12T08:30:50Z</time>
      </trkpt>
      <trkpt lat="47.30978" lon="6.83455">
        <ele>735.2</ele>
        <time>2021-08-12T08:30:51Z</time>
      </trkpt>
      <trkpt lat="47.30977" lon="6.83455">
        <ele>735.3</ele>
        <time>2021-08-12T08:30:52Z</time>
      </trkpt>
      <trkpt lat="47.30975" lon="6.83455">
        <ele>735.4</ele>
        <time>2021-08-12T08:30:54Z</time>
      </trkpt>
      <trkpt lat="47.30973" lon="6.83456">
        <ele>735.5</ele>
        <time>2021-08-12T08:30:55Z</time>
      </trkpt>
      <trkpt lat="47.30971" lon="6.83456">
        <ele>735.6</ele>
        <time>2021-08-12T08:30:56Z</time>
      </trkpt>
      <trkpt lat="47.30971" lon="6.83456">
        <ele>735.6</ele>
        <time>2021-08-12T08:30:57Z</time>
      </trkpt>
      <trkpt lat="47.3097" lon="6.83456">
        <ele>735.7</ele>
        <time>2021-08-12T08:30:59Z</time>
      </trkpt>
      <trkpt lat="47.3097" lon="6.83456">
        <ele>735.7</ele>
        <time>2021-08-12T08:31:00Z</time>
      </trkpt>
      <trkpt lat="47.30967" lon="6.83457">
        <ele>735.9</ele>
        <time>2021-08-12T08:31:02Z</time>
      </trkpt>
      <trkpt lat="47.30965" lon="6.83457">
        <ele>736</ele>
        <time>2021-08-12T08:31:03Z</time>
      </trkpt>
      <trkpt lat="47.30964" lon="6.83457">
        <ele>736.1</ele>
        <time>2021-08-12T08:31:05Z</time>
      </trkpt>
      <trkpt lat="47.30962" lon="6.83458">
        <ele>736.2</ele>
        <time>2021-08-12T08:31:06Z</time>
      </trkpt>
      <trkpt lat="47.30961" lon="6.83458">
        <ele>736.2</ele>
        <time>2021-08-12T08:31:07Z</time>
      </trkpt>
      <trkpt lat="47.30958" lon="6.83458">
        <ele>736.4</ele>
        <time>2021-08-12T08:31:09Z</time>
      </trkpt>
      <trkpt lat="47.30955" lon="6.83457">
        <ele>736.6</ele>
        <time>2021-08-12T08:31:11Z</time>
      </trkpt>
      <trkpt lat="47.30952" lon="6.83456">
        <ele>736.7</ele>
        <time>2021-08-12T08:31:12Z</time>
      </trkpt>
      <trkpt lat="47.3095" lon="6.83454">
        <ele>736.9</ele>
        <time>2021-08-12T08:31:13Z</time>
      </trkpt>
      <trkpt lat="47.30948" lon="6.83454">
        <ele>737</ele>
        <time>2021-08-12T08:31:15Z</time>
      </trkpt>
      <trkpt lat="47.30946" lon="6.83452">
        <ele>737.1</ele>
        <time>2021-08-12T08:31:16Z</time>
      </trkpt>
      <trkpt lat="47.30944" lon="6.83451">
        <ele>737.2</ele>
        <time>2021-08-12T08:31:17Z</time>
      </trkpt>
      <trkpt lat="47.30943" lon="6.83451">
        <ele>737.3</ele>
        <time>2021-08-12T08:31:19Z</time>
      </trkpt>
      <trkpt lat="47.30941" lon="6.8345">
        <ele>737.4</ele>
        <time>2021-08-12T08:31:20Z</time>
      </trkpt>
      <trkpt lat="47.3094" lon="6.83449">
        <ele>737.5</ele>
        <time>2021-08-12T08:31:21Z</time>
      </trkpt>
      <trkpt lat="47.30939" lon="6.83449">
        <ele>737.5</ele>
        <time>2021-08-12T08:31:22Z</time>
      </trkpt>
      <trkpt lat="47.30938" lon="6.83449">
        <ele>737.6</ele>
        <time>2021-08-12T08:31:23Z</time>
      </trkpt>
      <trkpt lat="47.30936" lon="6.83449">
        <ele>737.7</ele>
        <time>2021-08-12T08:31:24Z</time>
      </trkpt>
      <trkpt lat="47.30935" lon="6.83449">
        <ele>737.7</ele>
        <time>2021-08-12T08:31:25Z</time>
      </trkpt>
      <trkpt lat="47.30934" lon="6.83449">
        <ele>737.8</ele>
        <time>2021-08-12T08:31:26Z</time>
      </trkpt>
      <trkpt lat="47.30932" lon="6.8345">
        <ele>737.9</ele>
        <time>2021-08-12T08:31:27Z</time>
      </trkpt>
      <trkpt lat="47.30929" lon="6.8345">
        <ele>738.1</ele>
        <time>2021-08-12T08:31:29Z</time>
      </trkpt>
      <trkpt lat="47.30928" lon="6.83449">
        <ele>738.2</ele>
        <time>2021-08-12T08:31:30Z</time>
      </trkpt>
      <trkpt lat="47.30924" lon="6.83448">
        <ele>738.4</ele>
        <time>2021-08-12T08:31:31Z</time>
      </trkpt>
      <trkpt lat="47.3092" lon="6.83447">
        <ele>738.6</ele>
        <time>2021-08-12T08:31:32Z</time>
      </trkpt>
      <trkpt lat="47.30919" lon="6.83446">
        <ele>738.6</ele>
        <time>2021-08-12T08:31:33Z</time>
      </trkpt>
      <trkpt lat="47.30916" lon="6.83446">
        <ele>738.8</ele>
        <time>2021-08-12T08:31:34Z</time>
      </trkpt>
      <trkpt lat="47.30915" lon="6.83445">
        <ele>738.9</ele>
        <time>2021-08-12T08:31:35Z</time>
      </trkpt>
      <trkpt lat="47.30912" lon="6.83445">
        <ele>739</ele>
        <time>2021-08-12T08:31:36Z</time>
      </trkpt>
      <trkpt lat="47.30911" lon="6.83445">
        <ele>739.1</ele>
        <time>2021-08-12T08:31:37Z</time>
      </trkpt>
      <trkpt lat="47.3091" lon="6.83443">
        <ele>739.2</ele>
        <time>2021-08-12T08:31:38Z</time>
      </trkpt>
      <trkpt lat="47.30908" lon="6.83442">
        <ele>739.3</ele>
        <time>2021-08-12T08:31:40Z</time>
      </trkpt>
      <trkpt lat="47.30904" lon="6.8344">
        <ele>739.5</ele>
        <time>2021-08-12T08:31:41Z</time>
      </trkpt>
      <trkpt lat="47.30903" lon="6.8344">
        <ele>739.5</ele>
        <time>2021-08-12T08:31:42Z</time>
      </trkpt>
      <trkpt lat="47.309" lon="6.83438">
        <ele>739.7</ele>
        <time>2021-08-12T08:31:43Z</time>
      </trkpt>
      <trkpt lat="47.30899" lon="6.83438">
        <ele>739.7</ele>
        <time>2021-08-12T08:31:44Z</time>
      </trkpt>
      <trkpt lat="47.30897" lon="6.83437">
        <ele>739.8</ele>
        <time>2021-08-12T08:31:45Z</time>
      </trkpt>
      <trkpt lat="47.30895" lon="6.83437">
        <ele>739.9</ele>
        <time>2021-08-12T08:31:47Z</time>
      </trkpt>
      <trkpt lat="47.30892" lon="6.83437">
        <ele>740.1</ele>
        <time>2021-08-12T08:31:48Z</time>
      </trkpt>
      <trkpt lat="47.30888" lon="6.83437">
        <ele>740.2</ele>
        <time>2021-08-12T08:31:50Z</time>
      </trkpt>
      <trkpt lat="47.30887" lon="6.83437">
        <ele>740.3</ele>
        <time>2021-08-12T08:31:51Z</time>
      </trkpt>
      <trkpt lat="47.30884" lon="6.83436">
        <ele>740.4</ele>
        <time>2021-08-12T08:31:52Z</time>
      </trkpt>
      <trkpt lat="47.30883" lon="6.83436">
        <ele>740.5</ele>
        <time>2021-08-12T08:31:53Z</time>
      </trkpt>
      <trkpt lat="47.3088" lon="6.83433">
        <ele>740.6</ele>
        <time>2021-08-12T08:31:55Z</time>
      </trkpt>
      <trkpt lat="47.30877" lon="6.83432">
        <ele>740.7</ele>
        <time>2021-08-12T08:31:57Z</time>
      </trkpt>
      <trkpt lat="47.30875" lon="6.83431">
        <ele>740.8</ele>
        <time>2021-08-12T08:31:58Z</time>
      </trkpt>
      <trkpt lat="47.30871" lon="6.83429">
        <ele>741</ele>
        <time>2021-08-12T08:31:59Z</time>
      </trkpt>
      <trkpt lat="47.30867" lon="6.83428">
        <ele>741.1</ele>
        <time>2021-08-12T08:32:01Z</time>
      </trkpt>
      <trkpt lat="47.30865" lon="6.83427">
        <ele>741.2</ele>
        <time>2021-08-12T08:32:02Z</time>
      </trkpt>
      <trkpt lat="47.30859" lon="6.83425">
        <ele>741.4</ele>
        <time>2021-08-12T08:32:04Z</time>
      </trkpt>
      <trkpt lat="47.30854" lon="6.83424">
        <ele>741.5</ele>
        <time>2021-08-12T08:32:05Z</time>
      </trkpt>
      <trkpt lat="47.30851" lon="6.83423">
        <ele>741.6</ele>
        <time>2021-08-12T08:32:06Z</time>
      </trkpt>
      <trkpt lat="47.30847" lon="6.83422">
        <ele>741.8</ele>
        <time>2021-08-12T08:32:08Z</time>
      </trkpt>
      <trkpt lat="47.30843" lon="6.83421">
        <ele>741.9</ele>
        <time>2021-08-12T08:32:09Z</time>
      </trkpt>
      <trkpt lat="47.3084" lon="6.8342">
        <ele>742</ele>
        <time>2021-08-12T08:32:10Z</time>
      </trkpt>
      <trkpt lat="47.30838" lon="6.8342">
        <ele>742.1</ele>
        <time>2021-08-12T08:32:11Z</time>
      </trkpt>
      <trkpt lat="47.30834" lon="6.8342">
        <ele>742.2</ele>
        <time>2021-08-12T08:32:12Z</time>
      </trkpt>
      <trkpt lat="47.30833" lon="6.8342">
        <ele>742.3</ele>
        <time>2021-08-12T08:32:13Z</time>
      </trkpt>
      <trkpt lat="47.30829" lon="6.8342">
        <ele>742.4</ele>
        <time>2021-08-12T08:32:14Z</time>
      </trkpt>
      <trkpt lat="47.30828" lon="6.8342">
        <ele>742.4</ele>
        <time>2021-08-12T08:32:15Z</time>
      </trkpt>
      <trkpt lat="47.30825" lon="6.83421">
        <ele>742.5</ele>
        <time>2021-08-12T08:32:17Z</time>
      </trkpt>
      <trkpt lat="47.30824" lon="6.83421">
        <ele>742.6</ele>
        <time>2021-08-12T08:32:18Z</time>
      </trkpt>
      <trkpt lat="47.30821" lon="6.83423">
        <ele>742.7</ele>
        <time>2021-08-12T08:32:20Z</time>
      </trkpt>
      <trkpt lat="47.30821" lon="6.83424">
        <ele>742.7</ele>
        <time>2021-08-12T08:32:21Z</time>
      </trkpt>
      <trkpt lat="47.30819" lon="6.83425">
        <ele>742.8</ele>
        <time>2021-08-12T08:32:22Z</time>
      </trkpt>
      <trkpt lat="47.30817" lon="6.83427">
        <ele>742.9</ele>
        <time>2021-08-12T08:32:23Z</time>
      </trkpt>
      <trkpt lat="47.30814" lon="6.83428">
        <ele>743</ele>
        <time>2021-08-12T08:32:25Z</time>
      </trkpt>
      <trkpt lat="47.3081" lon="6.8343">
        <ele>743.1</ele>
        <time>2021-08-12T08:32:26Z</time>
      </trkpt>
      <trkpt lat="47.30805" lon="6.83431">
        <ele>743.3</ele>
        <time>2021-08-12T08:32:28Z</time>
      </trkpt>
      <trkpt lat="47.30803" lon="6.83432">
        <ele>743.4</ele>
        <time>2021-08-12T08:32:29Z</time>
      </trkpt>
      <trkpt lat="47.30801" lon="6.83433">
        <ele>743.4</ele>
        <time>2021-08-12T08:32:30Z</time>
      </trkpt>
      <trkpt lat="47.30795" lon="6.83433">
        <ele>743.6</ele>
        <time>2021-08-12T08:32:32Z</time>
      </trkpt>
      <trkpt lat="47.30793" lon="6.83432">
        <ele>743.7</ele>
        <time>2021-08-12T08:32:33Z</time>
      </trkpt>
      <trkpt lat="47.30789" lon="6.83432">
        <ele>743.8</ele>
        <time>2021-08-12T08:32:34Z</time>
      </trkpt>
      <trkpt lat="47.30787" lon="6.83432">
        <ele>743.9</ele>
        <time>2021-08-12T08:32:35Z</time>
      </trkpt>
      <trkpt lat="47.30785" lon="6.83432">
        <ele>744</ele>
        <time>2021-08-12T08:32:36Z</time>
      </trkpt>
      <trkpt lat="47.30781" lon="6.83432">
        <ele>744.1</ele>
        <time>2021-08-12T08:32:38Z</time>
      </trkpt>
      <trkpt lat="47.30777" lon="6.83431">
        <ele>744.2</ele>
        <time>2021-08-12T08:32:39Z</time>
      </trkpt>
      <trkpt lat="47.30774" lon="6.83431">
        <ele>744.3</ele>
        <time>2021-08-12T08:32:40Z</time>
      </trkpt>
      <trkpt lat="47.30769" lon="6.83429">
        <ele>744.5</ele>
        <time>2021-08-12T08:32:41Z</time>
      </trkpt>
      <trkpt lat="47.30766" lon="6.83429">
        <ele>744.5</ele>
        <time>2021-08-12T08:32:42Z</time>
      </trkpt>
      <trkpt lat="47.30763" lon="6.83429">
        <ele>744.6</ele>
        <time>2021-08-12T08:32:43Z</time>
      </trkpt>
      <trkpt lat="47.3076" lon="6.83428">
        <ele>744.7</ele>
        <time>2021-08-12T08:32:44Z</time>
      </trkpt>
      <trkpt lat="47.30757" lon="6.83428">
        <ele>744.8</ele>
        <time>2021-08-12T08:32:46Z</time>
      </trkpt>
      <trkpt lat="47.30754" lon="6.83427">
        <ele>744.9</ele>
        <time>2021-08-12T08:32:47Z</time>
      </trkpt>
      <trkpt lat="47.30749" lon="6.83425">
        <ele>745</ele>
        <time>2021-08-12T08:32:49Z</time>
      </trkpt>
      <trkpt lat="47.30745" lon="6.83424">
        <ele>745.1</ele>
        <time>2021-08-12T08:32:50Z</time>
      </trkpt>
      <trkpt lat="47.30745" lon="6.83424">
        <ele>745.2</ele>
        <time>2021-08-12T08:32:51Z</time>
      </trkpt>
      <trkpt lat="47.30743" lon="6.83424">
        <ele>745.2</ele>
        <time>2021-08-12T08:32:52Z</time>
      </trkpt>
      <trkpt lat="47.30742" lon="6.83423">
        <ele>745.2</ele>
        <time>2021-08-12T08:32:53Z</time>
      </trkpt>
      <trkpt lat="47.30739" lon="6.83425">
        <ele>745.3</ele>
        <time>2021-08-12T08:32:54Z</time>
      </trkpt>
      <trkpt lat="47.30738" lon="6.83426">
        <ele>745.3</ele>
        <time>2021-08-12T08:32:55Z</time>
      </trkpt>
      <trkpt lat="47.30734" lon="6.83426">
        <ele>745.4</ele>
        <time>2021-08-12T08:32:57Z</time>
      </trkpt>
      <trkpt lat="47.30733" lon="6.83426">
        <ele>745.4</ele>
        <time>2021-08-12T08:32:58Z</time>
      </trkpt>
      <trkpt lat="47.30728" lon="6.83425">
        <ele>745.6</ele>
        <time>2021-08-12T08:32:59Z</time>
      </trkpt>
      <trkpt lat="47.30725" lon="6.83425">
        <ele>745.6</ele>
        <time>2021-08-12T08:33:01Z</time>
      </trkpt>
      <trkpt lat="47.3072" lon="6.83426">
        <ele>745.7</ele>
        <time>2021-08-12T08:33:02Z</time>
      </trkpt>
      <trkpt lat="47.30717" lon="6.83426">
        <ele>745.8</ele>
        <time>2021-08-12T08:33:03Z</time>
      </trkpt>
      <trkpt lat="47.30714" lon="6.83427">
        <ele>745.9</ele>
        <time>2021-08-12T08:33:04Z</time>
      </trkpt>
      <trkpt lat="47.30711" lon="6.83427">
        <ele>746</ele>
        <time>2021-08-12T08:33:05Z</time>
      </trkpt>
      <trkpt lat="47.30708" lon="6.83427">
        <ele>746</ele>
        <time>2021-08-12T08:33:06Z</time>
      </trkpt>
      <trkpt lat="47.30704" lon="6.83427">
        <ele>746.1</ele>
        <time>2021-08-12T08:33:07Z</time>
      </trkpt>
      <trkpt lat="47.30701" lon="6.83428">
        <ele>746.2</ele>
        <time>2021-08-12T08:33:08Z</time>
      </trkpt>
      <trkpt lat="47.30697" lon="6.83428">
        <ele>746.3</ele>
        <time>2021-08-12T08:33:09Z</time>
      </trkpt>
      <trkpt lat="47.30694" lon="6.83428">
        <ele>746.4</ele>
        <time>2021-08-12T08:33:10Z</time>
      </trkpt>
      <trkpt lat="47.30691" lon="6.83428">
        <ele>746.5</ele>
        <time>2021-08-12T08:33:12Z</time>
      </trkpt>
      <trkpt lat="47.30688" lon="6.83428">
        <ele>746.5</ele>
        <time>2021-08-12T08:33:13Z</time>
      </trkpt>
      <trkpt lat="47.30684" lon="6.83429">
        <ele>746.6</ele>
        <time>2021-08-12T08:33:14Z</time>
      </trkpt>
      <trkpt lat="47.30681" lon="6.83431">
        <ele>746.7</ele>
        <time>2021-08-12T08:33:16Z</time>
      </trkpt>
      <trkpt lat="47.30678" lon="6.83431">
        <ele>746.8</ele>
        <time>2021-08-12T08:33:17Z</time>
      </trkpt>
      <trkpt lat="47.30675" lon="6.83432">
        <ele>746.9</ele>
        <time>2021-08-12T08:33:18Z</time>
      </trkpt>
      <trkpt lat="47.30674" lon="6.83432">
        <ele>746.9</ele>
        <time>2021-08-12T08:33:19Z</time>
      </trkpt>
      <trkpt lat="47.30671" lon="6.83432">
        <ele>747</ele>
        <time>2021-08-12T08:33:20Z</time>
      </trkpt>
      <trkpt lat="47.30669" lon="6.83433">
        <ele>747.1</ele>
        <time>2021-08-12T08:33:22Z</time>
      </trkpt>
      <trkpt lat="47.30666" lon="6.83435">
        <ele>747.2</ele>
        <time>2021-08-12T08:33:23Z</time>
      </trkpt>
      <trkpt lat="47.30665" lon="6.83435">
        <ele>747.2</ele>
        <time>2021-08-12T08:33:24Z</time>
      </trkpt>
      <trkpt lat="47.30663" lon="6.83436">
        <ele>747.3</ele>
        <time>2021-08-12T08:33:25Z</time>
      </trkpt>
      <trkpt lat="47.30661" lon="6.83438">
        <ele>747.3</ele>
        <time>2021-08-12T08:33:27Z</time>
      </trkpt>
      <trkpt lat="47.30658" lon="6.83439">
        <ele>747.5</ele>
        <time>2021-08-12T08:33:28Z</time>
      </trkpt>
      <trkpt lat="47.30657" lon="6.8344">
        <ele>747.5</ele>
        <time>2021-08-12T08:33:29Z</time>
      </trkpt>
      <trkpt lat="47.30654" lon="6.83442">
        <ele>747.6</ele>
        <time>2021-08-12T08:33:30Z</time>
      </trkpt>
      <trkpt lat="47.30651" lon="6.83444">
        <ele>747.7</ele>
        <time>2021-08-12T08:33:31Z</time>
      </trkpt>
      <trkpt lat="47.30648" lon="6.83446">
        <ele>747.8</ele>
        <time>2021-08-12T08:33:32Z</time>
      </trkpt>
      <trkpt lat="47.30645" lon="6.83447">
        <ele>747.8</ele>
        <time>2021-08-12T08:33:34Z</time>
      </trkpt>
      <trkpt lat="47.3064" lon="6.8345">
        <ele>747.9</ele>
        <time>2021-08-12T08:33:36Z</time>
      </trkpt>
      <trkpt lat="47.30636" lon="6.8345">
        <ele>748</ele>
        <time>2021-08-12T08:33:37Z</time>
      </trkpt>
      <trkpt lat="47.30633" lon="6.8345">
        <ele>748.1</ele>
        <time>2021-08-12T08:33:38Z</time>
      </trkpt>
      <trkpt lat="47.30631" lon="6.83451">
        <ele>748.1</ele>
        <time>2021-08-12T08:33:40Z</time>
      </trkpt>
      <trkpt lat="47.30628" lon="6.83452">
        <ele>748.2</ele>
        <time>2021-08-12T08:33:41Z</time>
      </trkpt>
      <trkpt lat="47.30624" lon="6.83452">
        <ele>748.3</ele>
        <time>2021-08-12T08:33:43Z</time>
      </trkpt>
      <trkpt lat="47.30621" lon="6.83453">
        <ele>748.4</ele>
        <time>2021-08-12T08:33:44Z</time>
      </trkpt>
      <trkpt lat="47.30618" lon="6.83454">
        <ele>748.4</ele>
        <time>2021-08-12T08:33:45Z</time>
      </trkpt>
      <trkpt lat="47.30616" lon="6.83455">
        <ele>748.5</ele>
        <time>2021-08-12T08:33:47Z</time>
      </trkpt>
      <trkpt lat="47.30613" lon="6.83457">
        <ele>748.5</ele>
        <time>2021-08-12T08:33:48Z</time>
      </trkpt>
      <trkpt lat="47.30612" lon="6.83458">
        <ele>748.5</ele>
        <time>2021-08-12T08:33:49Z</time>
      </trkpt>
      <trkpt lat="47.30609" lon="6.8346">
        <ele>748.6</ele>
        <time>2021-08-12T08:33:50Z</time>
      </trkpt>
      <trkpt lat="47.30607" lon="6.8346">
        <ele>748.6</ele>
        <time>2021-08-12T08:33:51Z</time>
      </trkpt>
      <trkpt lat="47.30604" lon="6.83463">
        <ele>748.7</ele>
        <time>2021-08-12T08:33:52Z</time>
      </trkpt>
      <trkpt lat="47.30603" lon="6.83463">
        <ele>748.7</ele>
        <time>2021-08-12T08:33:53Z</time>
      </trkpt>
      <trkpt lat="47.306" lon="6.83465">
        <ele>748.8</ele>
        <time>2021-08-12T08:33:54Z</time>
      </trkpt>
      <trkpt lat="47.30597" lon="6.83468">
        <ele>748.9</ele>
        <time>2021-08-12T08:33:56Z</time>
      </trkpt>
      <trkpt lat="47.30596" lon="6.83469">
        <ele>748.9</ele>
        <time>2021-08-12T08:33:57Z</time>
      </trkpt>
      <trkpt lat="47.30592" lon="6.83471">
        <ele>749</ele>
        <time>2021-08-12T08:33:58Z</time>
      </trkpt>
      <trkpt lat="47.30591" lon="6.83472">
        <ele>749</ele>
        <time>2021-08-12T08:33:59Z</time>
      </trkpt>
      <trkpt lat="47.30588" lon="6.83474">
        <ele>749.1</ele>
        <time>2021-08-12T08:34:00Z</time>
      </trkpt>
      <trkpt lat="47.30585" lon="6.83476">
        <ele>749.1</ele>
        <time>2021-08-12T08:34:01Z</time>
      </trkpt>
      <trkpt lat="47.30583" lon="6.83478">
        <ele>749.2</ele>
        <time>2021-08-12T08:34:02Z</time>
      </trkpt>
      <trkpt lat="47.30581" lon="6.8348">
        <ele>749.2</ele>
        <time>2021-08-12T08:34:03Z</time>
      </trkpt>
      <trkpt lat="47.30578" lon="6.83482">
        <ele>749.3</ele>
        <time>2021-08-12T08:34:04Z</time>
      </trkpt>
      <trkpt lat="47.30576" lon="6.83484">
        <ele>749.3</ele>
        <time>2021-08-12T08:34:06Z</time>
      </trkpt>
      <trkpt lat="47.30573" lon="6.83486">
        <ele>749.4</ele>
        <time>2021-08-12T08:34:07Z</time>
      </trkpt>
      <trkpt lat="47.30571" lon="6.83486">
        <ele>749.4</ele>
        <time>2021-08-12T08:34:08Z</time>
      </trkpt>
      <trkpt lat="47.30567" lon="6.8349">
        <ele>749.5</ele>
        <time>2021-08-12T08:34:10Z</time>
      </trkpt>
      <trkpt lat="47.30564" lon="6.83491">
        <ele>749.6</ele>
        <time>2021-08-12T08:34:11Z</time>
      </trkpt>
      <trkpt lat="47.3056" lon="6.83494">
        <ele>749.7</ele>
        <time>2021-08-12T08:34:13Z</time>
      </trkpt>
      <trkpt lat="47.30556" lon="6.83496">
        <ele>749.8</ele>
        <time>2021-08-12T08:34:14Z</time>
      </trkpt>
      <trkpt lat="47.30555" lon="6.83496">
        <ele>749.8</ele>
        <time>2021-08-12T08:34:15Z</time>
      </trkpt>
      <trkpt lat="47.30551" lon="6.83499">
        <ele>750</ele>
        <time>2021-08-12T08:34:16Z</time>
      </trkpt>
      <trkpt lat="47.30548" lon="6.83502">
        <ele>750.1</ele>
        <time>2021-08-12T08:34:17Z</time>
      </trkpt>
      <trkpt lat="47.30547" lon="6.83503">
        <ele>750.1</ele>
        <time>2021-08-12T08:34:18Z</time>
      </trkpt>
      <trkpt lat="47.30544" lon="6.83508">
        <ele>750.2</ele>
        <time>2021-08-12T08:34:20Z</time>
      </trkpt>
      <trkpt lat="47.30543" lon="6.8351">
        <ele>750.3</ele>
        <time>2021-08-12T08:34:21Z</time>
      </trkpt>
      <trkpt lat="47.30542" lon="6.83512">
        <ele>750.3</ele>
        <time>2021-08-12T08:34:22Z</time>
      </trkpt>
      <trkpt lat="47.30539" lon="6.83515">
        <ele>750.4</ele>
        <time>2021-08-12T08:34:23Z</time>
      </trkpt>
      <trkpt lat="47.30538" lon="6.83517">
        <ele>750.5</ele>
        <time>2021-08-12T08:34:24Z</time>
      </trkpt>
      <trkpt lat="47.30536" lon="6.83519">
        <ele>750.6</ele>
        <time>2021-08-12T08:34:26Z</time>
      </trkpt>
      <trkpt lat="47.30533" lon="6.83522">
        <ele>750.7</ele>
        <time>2021-08-12T08:34:27Z</time>
      </trkpt>
      <trkpt lat="47.30532" lon="6.83522">
        <ele>750.7</ele>
        <time>2021-08-12T08:34:28Z</time>
      </trkpt>
      <trkpt lat="47.3053" lon="6.83524">
        <ele>750.8</ele>
        <time>2021-08-12T08:34:30Z</time>
      </trkpt>
      <trkpt lat="47.30527" lon="6.83527">
        <ele>750.9</ele>
        <time>2021-08-12T08:34:32Z</time>
      </trkpt>
      <trkpt lat="47.30525" lon="6.83528">
        <ele>751</ele>
        <time>2021-08-12T08:34:33Z</time>
      </trkpt>
      <trkpt lat="47.30522" lon="6.8353">
        <ele>751.1</ele>
        <time>2021-08-12T08:34:35Z</time>
      </trkpt>
      <trkpt lat="47.3052" lon="6.83531">
        <ele>751.1</ele>
        <time>2021-08-12T08:34:36Z</time>
      </trkpt>
      <trkpt lat="47.30516" lon="6.83532">
        <ele>751.2</ele>
        <time>2021-08-12T08:34:38Z</time>
      </trkpt>
      <trkpt lat="47.30513" lon="6.83534">
        <ele>751.3</ele>
        <time>2021-08-12T08:34:40Z</time>
      </trkpt>
      <trkpt lat="47.3051" lon="6.8353">
        <ele>751.4</ele>
        <time>2021-08-12T08:34:42Z</time>
      </trkpt>
      <trkpt lat="47.30511" lon="6.83529">
        <ele>751.5</ele>
        <time>2021-08-12T08:34:43Z</time>
      </trkpt>
      <trkpt lat="47.3051" lon="6.83527">
        <ele>751.5</ele>
        <time>2021-08-12T08:34:45Z</time>
      </trkpt>
      <trkpt lat="47.30511" lon="6.83528">
        <ele>751.5</ele>
        <time>2021-08-12T08:34:46Z</time>
      </trkpt>
      <trkpt lat="47.30511" lon="6.83528">
        <ele>751.5</ele>
        <time>2021-08-12T08:34:47Z</time>
      </trkpt>
      <trkpt lat="47.30511" lon="6.83529">
        <ele>751.5</ele>
        <time>2021-08-12T08:34:48Z</time>
      </trkpt>
      <trkpt lat="47.3051" lon="6.8353">
        <ele>751.5</ele>
        <time>2021-08-12T08:34:50Z</time>
      </trkpt>
      <trkpt lat="47.30511" lon="6.83533">
        <ele>751.8</ele>
        <time>2021-08-12T08:34:51Z</time>
      </trkpt>
      <trkpt lat="47.30511" lon="6.83536">
        <ele>751.8</ele>
        <time>2021-08-12T08:34:53Z</time>
      </trkpt>
      <trkpt lat="47.30511" lon="6.83538">
        <ele>751.9</ele>
        <time>2021-08-12T08:34:54Z</time>
      </trkpt>
      <trkpt lat="47.30513" lon="6.83539">
        <ele>751.9</ele>
        <time>2021-08-12T08:34:55Z</time>
      </trkpt>
      <trkpt lat="47.30515" lon="6.8354">
        <ele>752</ele>
        <time>2021-08-12T08:34:57Z</time>
      </trkpt>
      <trkpt lat="47.30519" lon="6.83546">
        <ele>752.2</ele>
        <time>2021-08-12T08:34:59Z</time>
      </trkpt>
      <trkpt lat="47.3052" lon="6.83548">
        <ele>752.3</ele>
        <time>2021-08-12T08:35:00Z</time>
      </trkpt>
      <trkpt lat="47.30522" lon="6.8355">
        <ele>752.3</ele>
        <time>2021-08-12T08:35:01Z</time>
      </trkpt>
      <trkpt lat="47.30525" lon="6.83552">
        <ele>752.4</ele>
        <time>2021-08-12T08:35:03Z</time>
      </trkpt>
      <trkpt lat="47.30527" lon="6.83555">
        <ele>752.5</ele>
        <time>2021-08-12T08:35:04Z</time>
      </trkpt>
      <trkpt lat="47.30529" lon="6.83558">
        <ele>752.6</ele>
        <time>2021-08-12T08:35:05Z</time>
      </trkpt>
      <trkpt lat="47.30534" lon="6.83563">
        <ele>752.7</ele>
        <time>2021-08-12T08:35:07Z</time>
      </trkpt>
      <trkpt lat="47.30535" lon="6.83567">
        <ele>752.8</ele>
        <time>2021-08-12T08:35:08Z</time>
      </trkpt>
      <trkpt lat="47.30536" lon="6.83573">
        <ele>753</ele>
        <time>2021-08-12T08:35:10Z</time>
      </trkpt>
      <trkpt lat="47.30537" lon="6.83575">
        <ele>753</ele>
        <time>2021-08-12T08:35:11Z</time>
      </trkpt>
      <trkpt lat="47.30538" lon="6.83577">
        <ele>752.9</ele>
        <time>2021-08-12T08:35:12Z</time>
      </trkpt>
      <trkpt lat="47.30539" lon="6.83582">
        <ele>752.9</ele>
        <time>2021-08-12T08:35:14Z</time>
      </trkpt>
      <trkpt lat="47.3054" lon="6.83584">
        <ele>752.8</ele>
        <time>2021-08-12T08:35:15Z</time>
      </trkpt>
      <trkpt lat="47.30542" lon="6.83584">
        <ele>752.8</ele>
        <time>2021-08-12T08:35:17Z</time>
      </trkpt>
      <trkpt lat="47.3054" lon="6.83581">
        <ele>752.8</ele>
        <time>2021-08-12T08:35:18Z</time>
      </trkpt>
      <trkpt lat="47.30537" lon="6.83579">
        <ele>752.7</ele>
        <time>2021-08-12T08:35:20Z</time>
      </trkpt>
      <trkpt lat="47.30535" lon="6.83577">
        <ele>752.7</ele>
        <time>2021-08-12T08:35:21Z</time>
      </trkpt>
      <trkpt lat="47.30534" lon="6.83575">
        <ele>752.6</ele>
        <time>2021-08-12T08:35:22Z</time>
      </trkpt>
      <trkpt lat="47.30533" lon="6.83571">
        <ele>752.6</ele>
        <time>2021-08-12T08:35:24Z</time>
      </trkpt>
      <trkpt lat="47.3053" lon="6.83565">
        <ele>752.5</ele>
        <time>2021-08-12T08:35:26Z</time>
      </trkpt>
      <trkpt lat="47.30527" lon="6.83559">
        <ele>752.4</ele>
        <time>2021-08-12T08:35:28Z</time>
      </trkpt>
      <trkpt lat="47.30526" lon="6.83553">
        <ele>752.3</ele>
        <time>2021-08-12T08:35:29Z</time>
      </trkpt>
      <trkpt lat="47.30526" lon="6.83552">
        <ele>752.3</ele>
        <time>2021-08-12T08:35:30Z</time>
      </trkpt>
      <trkpt lat="47.30524" lon="6.83546">
        <ele>752.2</ele>
        <time>2021-08-12T08:35:31Z</time>
      </trkpt>
      <trkpt lat="47.30522" lon="6.83543">
        <ele>752.2</ele>
        <time>2021-08-12T08:35:33Z</time>
      </trkpt>
      <trkpt lat="47.30518" lon="6.83542">
        <ele>752.1</ele>
        <time>2021-08-12T08:35:34Z</time>
      </trkpt>
      <trkpt lat="47.30515" lon="6.83541">
        <ele>751.6</ele>
        <time>2021-08-12T08:35:35Z</time>
      </trkpt>
      <trkpt lat="47.30512" lon="6.83541">
        <ele>751.6</ele>
        <time>2021-08-12T08:35:37Z</time>
      </trkpt>
      <trkpt lat="47.3051" lon="6.83547">
        <ele>751.6</ele>
        <time>2021-08-12T08:35:39Z</time>
      </trkpt>
      <trkpt lat="47.30508" lon="6.83555">
        <ele>751.5</ele>
        <time>2021-08-12T08:35:41Z</time>
      </trkpt>
      <trkpt lat="47.30508" lon="6.83562">
        <ele>751.5</ele>
        <time>2021-08-12T08:35:42Z</time>
      </trkpt>
      <trkpt lat="47.30507" lon="6.83569">
        <ele>751.5</ele>
        <time>2021-08-12T08:35:43Z</time>
      </trkpt>
      <trkpt lat="47.30507" lon="6.83577">
        <ele>751.4</ele>
        <time>2021-08-12T08:35:45Z</time>
      </trkpt>
      <trkpt lat="47.30506" lon="6.83588">
        <ele>751.3</ele>
        <time>2021-08-12T08:35:46Z</time>
      </trkpt>
      <trkpt lat="47.30505" lon="6.83598">
        <ele>751.2</ele>
        <time>2021-08-12T08:35:48Z</time>
      </trkpt>
      <trkpt lat="47.30505" lon="6.83604">
        <ele>751.1</ele>
        <time>2021-08-12T08:35:49Z</time>
      </trkpt>
      <trkpt lat="47.30503" lon="6.83613">
        <ele>751</ele>
        <time>2021-08-12T08:35:51Z</time>
      </trkpt>
      <trkpt lat="47.30502" lon="6.83619">
        <ele>750.8</ele>
        <time>2021-08-12T08:35:52Z</time>
      </trkpt>
      <trkpt lat="47.30501" lon="6.83625">
        <ele>750.7</ele>
        <time>2021-08-12T08:35:53Z</time>
      </trkpt>
      <trkpt lat="47.305" lon="6.83631">
        <ele>750.6</ele>
        <time>2021-08-12T08:35:54Z</time>
      </trkpt>
      <trkpt lat="47.30498" lon="6.83636">
        <ele>750.4</ele>
        <time>2021-08-12T08:35:55Z</time>
      </trkpt>
      <trkpt lat="47.30492" lon="6.83646">
        <ele>750</ele>
        <time>2021-08-12T08:35:57Z</time>
      </trkpt>
      <trkpt lat="47.30489" lon="6.83651">
        <ele>749.8</ele>
        <time>2021-08-12T08:35:58Z</time>
      </trkpt>
      <trkpt lat="47.30486" lon="6.83656">
        <ele>749.6</ele>
        <time>2021-08-12T08:35:59Z</time>
      </trkpt>
      <trkpt lat="47.30481" lon="6.83662">
        <ele>749.2</ele>
        <time>2021-08-12T08:36:00Z</time>
      </trkpt>
      <trkpt lat="47.30476" lon="6.8367">
        <ele>748.8</ele>
        <time>2021-08-12T08:36:01Z</time>
      </trkpt>
      <trkpt lat="47.30471" lon="6.83676">
        <ele>748.4</ele>
        <time>2021-08-12T08:36:03Z</time>
      </trkpt>
      <trkpt lat="47.30467" lon="6.83679">
        <ele>748.2</ele>
        <time>2021-08-12T08:36:04Z</time>
      </trkpt>
      <trkpt lat="47.30463" lon="6.83683">
        <ele>747.8</ele>
        <time>2021-08-12T08:36:05Z</time>
      </trkpt>
      <trkpt lat="47.30454" lon="6.8369">
        <ele>747.1</ele>
        <time>2021-08-12T08:36:06Z</time>
      </trkpt>
      <trkpt lat="47.30439" lon="6.83697">
        <ele>745.7</ele>
        <time>2021-08-12T08:36:08Z</time>
      </trkpt>
      <trkpt lat="47.30425" lon="6.83704">
        <ele>744.5</ele>
        <time>2021-08-12T08:36:10Z</time>
      </trkpt>
      <trkpt lat="47.30412" lon="6.8371">
        <ele>743.2</ele>
        <time>2021-08-12T08:36:12Z</time>
      </trkpt>
      <trkpt lat="47.30407" lon="6.83715">
        <ele>742.5</ele>
        <time>2021-08-12T08:36:13Z</time>
      </trkpt>
      <trkpt lat="47.304" lon="6.83729">
        <ele>740.5</ele>
        <time>2021-08-12T08:36:15Z</time>
      </trkpt>
      <trkpt lat="47.30395" lon="6.83746">
        <ele>739.2</ele>
        <time>2021-08-12T08:36:17Z</time>
      </trkpt>
      <trkpt lat="47.30393" lon="6.83754">
        <ele>738.6</ele>
        <time>2021-08-12T08:36:18Z</time>
      </trkpt>
      <trkpt lat="47.30391" lon="6.83759">
        <ele>738.2</ele>
        <time>2021-08-12T08:36:19Z</time>
      </trkpt>
      <trkpt lat="47.30382" lon="6.83771">
        <ele>737.2</ele>
        <time>2021-08-12T08:36:21Z</time>
      </trkpt>
      <trkpt lat="47.30377" lon="6.83777">
        <ele>736.8</ele>
        <time>2021-08-12T08:36:22Z</time>
      </trkpt>
      <trkpt lat="47.3037" lon="6.83783">
        <ele>736.3</ele>
        <time>2021-08-12T08:36:23Z</time>
      </trkpt>
      <trkpt lat="47.30357" lon="6.83791">
        <ele>735.6</ele>
        <time>2021-08-12T08:36:25Z</time>
      </trkpt>
      <trkpt lat="47.30348" lon="6.83794">
        <ele>735.3</ele>
        <time>2021-08-12T08:36:27Z</time>
      </trkpt>
      <trkpt lat="47.30341" lon="6.83797">
        <ele>735.1</ele>
        <time>2021-08-12T08:36:29Z</time>
      </trkpt>
      <trkpt lat="47.30336" lon="6.838">
        <ele>735</ele>
        <time>2021-08-12T08:36:30Z</time>
      </trkpt>
      <trkpt lat="47.30333" lon="6.83807">
        <ele>734.9</ele>
        <time>2021-08-12T08:36:32Z</time>
      </trkpt>
      <trkpt lat="47.30331" lon="6.83814">
        <ele>734.9</ele>
        <time>2021-08-12T08:36:33Z</time>
      </trkpt>
      <trkpt lat="47.30329" lon="6.8382">
        <ele>735</ele>
        <time>2021-08-12T08:36:34Z</time>
      </trkpt>
      <trkpt lat="47.30326" lon="6.83829">
        <ele>735</ele>
        <time>2021-08-12T08:36:36Z</time>
      </trkpt>
      <trkpt lat="47.30324" lon="6.83835">
        <ele>735</ele>
        <time>2021-08-12T08:36:37Z</time>
      </trkpt>
      <trkpt lat="47.30319" lon="6.83843">
        <ele>735.1</ele>
        <time>2021-08-12T08:36:38Z</time>
      </trkpt>
      <trkpt lat="47.30314" lon="6.83855">
        <ele>735.1</ele>
        <time>2021-08-12T08:36:40Z</time>
      </trkpt>
      <trkpt lat="47.30311" lon="6.83863">
        <ele>735.1</ele>
        <time>2021-08-12T08:36:41Z</time>
      </trkpt>
      <trkpt lat="47.30306" lon="6.8387">
        <ele>735.2</ele>
        <time>2021-08-12T08:36:43Z</time>
      </trkpt>
      <trkpt lat="47.30302" lon="6.83877">
        <ele>735.3</ele>
        <time>2021-08-12T08:36:44Z</time>
      </trkpt>
      <trkpt lat="47.303" lon="6.83881">
        <ele>735.4</ele>
        <time>2021-08-12T08:36:45Z</time>
      </trkpt>
      <trkpt lat="47.30297" lon="6.83885">
        <ele>735.5</ele>
        <time>2021-08-12T08:36:46Z</time>
      </trkpt>
      <trkpt lat="47.30294" lon="6.83892">
        <ele>735.7</ele>
        <time>2021-08-12T08:36:48Z</time>
      </trkpt>
      <trkpt lat="47.30292" lon="6.83896">
        <ele>735.8</ele>
        <time>2021-08-12T08:36:49Z</time>
      </trkpt>
      <trkpt lat="47.3029" lon="6.83903">
        <ele>736</ele>
        <time>2021-08-12T08:36:51Z</time>
      </trkpt>
      <trkpt lat="47.30289" lon="6.83905">
        <ele>736.1</ele>
        <time>2021-08-12T08:36:52Z</time>
      </trkpt>
      <trkpt lat="47.30288" lon="6.83908">
        <ele>736.2</ele>
        <time>2021-08-12T08:36:53Z</time>
      </trkpt>
      <trkpt lat="47.30289" lon="6.83913">
        <ele>736.4</ele>
        <time>2021-08-12T08:36:54Z</time>
      </trkpt>
      <trkpt lat="47.30289" lon="6.83915">
        <ele>736.4</ele>
        <time>2021-08-12T08:36:55Z</time>
      </trkpt>
      <trkpt lat="47.30291" lon="6.83919">
        <ele>736.6</ele>
        <time>2021-08-12T08:36:56Z</time>
      </trkpt>
      <trkpt lat="47.30291" lon="6.83924">
        <ele>736.7</ele>
        <time>2021-08-12T08:36:58Z</time>
      </trkpt>
      <trkpt lat="47.30291" lon="6.83927">
        <ele>736.8</ele>
        <time>2021-08-12T08:36:59Z</time>
      </trkpt>
      <trkpt lat="47.30291" lon="6.83932">
        <ele>736.9</ele>
        <time>2021-08-12T08:37:01Z</time>
      </trkpt>
      <trkpt lat="47.30291" lon="6.83937">
        <ele>737.1</ele>
        <time>2021-08-12T08:37:03Z</time>
      </trkpt>
      <trkpt lat="47.30291" lon="6.83939">
        <ele>737.1</ele>
        <time>2021-08-12T08:37:04Z</time>
      </trkpt>
      <trkpt lat="47.3029" lon="6.83941">
        <ele>737.1</ele>
        <time>2021-08-12T08:37:05Z</time>
      </trkpt>
      <trkpt lat="47.3029" lon="6.83942">
        <ele>737.2</ele>
        <time>2021-08-12T08:37:06Z</time>
      </trkpt>
      <trkpt lat="47.30289" lon="6.83944">
        <ele>737.2</ele>
        <time>2021-08-12T08:37:07Z</time>
      </trkpt>
      <trkpt lat="47.3029" lon="6.83949">
        <ele>737.4</ele>
        <time>2021-08-12T08:37:09Z</time>
      </trkpt>
      <trkpt lat="47.3029" lon="6.83952">
        <ele>737.4</ele>
        <time>2021-08-12T08:37:10Z</time>
      </trkpt>
      <trkpt lat="47.30287" lon="6.83961">
        <ele>737.1</ele>
        <time>2021-08-12T08:37:12Z</time>
      </trkpt>
      <trkpt lat="47.3028" lon="6.83981">
        <ele>736.4</ele>
        <time>2021-08-12T08:37:14Z</time>
      </trkpt>
      <trkpt lat="47.30278" lon="6.83989">
        <ele>736.1</ele>
        <time>2021-08-12T08:37:15Z</time>
      </trkpt>
      <trkpt lat="47.30277" lon="6.83997">
        <ele>735.8</ele>
        <time>2021-08-12T08:37:16Z</time>
      </trkpt>
      <trkpt lat="47.30274" lon="6.84013">
        <ele>735.3</ele>
        <time>2021-08-12T08:37:18Z</time>
      </trkpt>
      <trkpt lat="47.30273" lon="6.84021">
        <ele>735</ele>
        <time>2021-08-12T08:37:19Z</time>
      </trkpt>
      <trkpt lat="47.30272" lon="6.84036">
        <ele>734.5</ele>
        <time>2021-08-12T08:37:21Z</time>
      </trkpt>
      <trkpt lat="47.30271" lon="6.84042">
        <ele>734.3</ele>
        <time>2021-08-12T08:37:22Z</time>
      </trkpt>
      <trkpt lat="47.3027" lon="6.84049">
        <ele>734.1</ele>
        <time>2021-08-12T08:37:23Z</time>
      </trkpt>
      <trkpt lat="47.30266" lon="6.84057">
        <ele>733.8</ele>
        <time>2021-08-12T08:37:25Z</time>
      </trkpt>
      <trkpt lat="47.30264" lon="6.84064">
        <ele>733.6</ele>
        <time>2021-08-12T08:37:26Z</time>
      </trkpt>
      <trkpt lat="47.30263" lon="6.84072">
        <ele>733.3</ele>
        <time>2021-08-12T08:37:27Z</time>
      </trkpt>
      <trkpt lat="47.3026" lon="6.84079">
        <ele>733</ele>
        <time>2021-08-12T08:37:28Z</time>
      </trkpt>
      <trkpt lat="47.30256" lon="6.84093">
        <ele>732.3</ele>
        <time>2021-08-12T08:37:30Z</time>
      </trkpt>
      <trkpt lat="47.30252" lon="6.84109">
        <ele>731.7</ele>
        <time>2021-08-12T08:37:32Z</time>
      </trkpt>
      <trkpt lat="47.30248" lon="6.84125">
        <ele>731</ele>
        <time>2021-08-12T08:37:34Z</time>
      </trkpt>
      <trkpt lat="47.30244" lon="6.84141">
        <ele>730.5</ele>
        <time>2021-08-12T08:37:36Z</time>
      </trkpt>
      <trkpt lat="47.30239" lon="6.84158">
        <ele>730</ele>
        <time>2021-08-12T08:37:38Z</time>
      </trkpt>
      <trkpt lat="47.30236" lon="6.84166">
        <ele>729.7</ele>
        <time>2021-08-12T08:37:39Z</time>
      </trkpt>
      <trkpt lat="47.30234" lon="6.84175">
        <ele>729.5</ele>
        <time>2021-08-12T08:37:40Z</time>
      </trkpt>
      <trkpt lat="47.30231" lon="6.84191">
        <ele>729.3</ele>
        <time>2021-08-12T08:37:42Z</time>
      </trkpt>
      <trkpt lat="47.30229" lon="6.842">
        <ele>729.2</ele>
        <time>2021-08-12T08:37:43Z</time>
      </trkpt>
      <trkpt lat="47.30225" lon="6.84217">
        <ele>729</ele>
        <time>2021-08-12T08:37:45Z</time>
      </trkpt>
      <trkpt lat="47.30223" lon="6.84224">
        <ele>729</ele>
        <time>2021-08-12T08:37:46Z</time>
      </trkpt>
      <trkpt lat="47.30218" lon="6.84238">
        <ele>728.9</ele>
        <time>2021-08-12T08:37:48Z</time>
      </trkpt>
      <trkpt lat="47.30211" lon="6.84252">
        <ele>728.8</ele>
        <time>2021-08-12T08:37:50Z</time>
      </trkpt>
      <trkpt lat="47.30209" lon="6.84259">
        <ele>728.8</ele>
        <time>2021-08-12T08:37:51Z</time>
      </trkpt>
      <trkpt lat="47.30207" lon="6.84267">
        <ele>728.8</ele>
        <time>2021-08-12T08:37:52Z</time>
      </trkpt>
      <trkpt lat="47.30203" lon="6.84282">
        <ele>728.9</ele>
        <time>2021-08-12T08:37:54Z</time>
      </trkpt>
      <trkpt lat="47.30201" lon="6.84289">
        <ele>729</ele>
        <time>2021-08-12T08:37:55Z</time>
      </trkpt>
      <trkpt lat="47.30198" lon="6.84301">
        <ele>729.1</ele>
        <time>2021-08-12T08:37:57Z</time>
      </trkpt>
      <trkpt lat="47.30196" lon="6.84308">
        <ele>729.1</ele>
        <time>2021-08-12T08:37:58Z</time>
      </trkpt>
      <trkpt lat="47.30195" lon="6.84313">
        <ele>729.1</ele>
        <time>2021-08-12T08:37:59Z</time>
      </trkpt>
      <trkpt lat="47.30191" lon="6.84325">
        <ele>729.2</ele>
        <time>2021-08-12T08:38:01Z</time>
      </trkpt>
      <trkpt lat="47.30187" lon="6.84338">
        <ele>729.4</ele>
        <time>2021-08-12T08:38:03Z</time>
      </trkpt>
      <trkpt lat="47.30185" lon="6.84343">
        <ele>729.4</ele>
        <time>2021-08-12T08:38:04Z</time>
      </trkpt>
      <trkpt lat="47.30183" lon="6.84352">
        <ele>729.5</ele>
        <time>2021-08-12T08:38:06Z</time>
      </trkpt>
      <trkpt lat="47.30181" lon="6.84361">
        <ele>729.6</ele>
        <time>2021-08-12T08:38:07Z</time>
      </trkpt>
      <trkpt lat="47.30178" lon="6.84368">
        <ele>729.7</ele>
        <time>2021-08-12T08:38:09Z</time>
      </trkpt>
      <trkpt lat="47.30176" lon="6.84373">
        <ele>729.8</ele>
        <time>2021-08-12T08:38:10Z</time>
      </trkpt>
      <trkpt lat="47.30174" lon="6.84382">
        <ele>729.9</ele>
        <time>2021-08-12T08:38:12Z</time>
      </trkpt>
      <trkpt lat="47.30171" lon="6.84388">
        <ele>730</ele>
        <time>2021-08-12T08:38:13Z</time>
      </trkpt>
      <trkpt lat="47.30169" lon="6.84394">
        <ele>730.1</ele>
        <time>2021-08-12T08:38:15Z</time>
      </trkpt>
      <trkpt lat="47.30166" lon="6.84402">
        <ele>730.3</ele>
        <time>2021-08-12T08:38:16Z</time>
      </trkpt>
      <trkpt lat="47.30164" lon="6.84409">
        <ele>730.4</ele>
        <time>2021-08-12T08:38:18Z</time>
      </trkpt>
      <trkpt lat="47.30163" lon="6.84413">
        <ele>730.5</ele>
        <time>2021-08-12T08:38:19Z</time>
      </trkpt>
      <trkpt lat="47.30163" lon="6.84418">
        <ele>730.6</ele>
        <time>2021-08-12T08:38:20Z</time>
      </trkpt>
      <trkpt lat="47.30163" lon="6.84422">
        <ele>730.6</ele>
        <time>2021-08-12T08:38:22Z</time>
      </trkpt>
      <trkpt lat="47.30162" lon="6.84429">
        <ele>730.8</ele>
        <time>2021-08-12T08:38:23Z</time>
      </trkpt>
      <trkpt lat="47.30161" lon="6.84434">
        <ele>730.9</ele>
        <time>2021-08-12T08:38:25Z</time>
      </trkpt>
      <trkpt lat="47.30161" lon="6.84438">
        <ele>731</ele>
        <time>2021-08-12T08:38:26Z</time>
      </trkpt>
      <trkpt lat="47.3016" lon="6.84444">
        <ele>731.1</ele>
        <time>2021-08-12T08:38:27Z</time>
      </trkpt>
      <trkpt lat="47.3016" lon="6.84445">
        <ele>731.1</ele>
        <time>2021-08-12T08:38:28Z</time>
      </trkpt>
      <trkpt lat="47.3016" lon="6.84451">
        <ele>731.2</ele>
        <time>2021-08-12T08:38:29Z</time>
      </trkpt>
      <trkpt lat="47.30159" lon="6.84452">
        <ele>731.3</ele>
        <time>2021-08-12T08:38:30Z</time>
      </trkpt>
      <trkpt lat="47.30159" lon="6.84456">
        <ele>731.3</ele>
        <time>2021-08-12T08:38:32Z</time>
      </trkpt>
      <trkpt lat="47.30158" lon="6.84461">
        <ele>731.4</ele>
        <time>2021-08-12T08:38:33Z</time>
      </trkpt>
      <trkpt lat="47.30158" lon="6.84467">
        <ele>731.6</ele>
        <time>2021-08-12T08:38:35Z</time>
      </trkpt>
      <trkpt lat="47.30155" lon="6.84473">
        <ele>731.7</ele>
        <time>2021-08-12T08:38:36Z</time>
      </trkpt>
      <trkpt lat="47.30154" lon="6.84476">
        <ele>731.8</ele>
        <time>2021-08-12T08:38:37Z</time>
      </trkpt>
      <trkpt lat="47.30152" lon="6.84482">
        <ele>731.9</ele>
        <time>2021-08-12T08:38:39Z</time>
      </trkpt>
      <trkpt lat="47.30151" lon="6.84485">
        <ele>732</ele>
        <time>2021-08-12T08:38:40Z</time>
      </trkpt>
      <trkpt lat="47.3015" lon="6.84492">
        <ele>732.2</ele>
        <time>2021-08-12T08:38:42Z</time>
      </trkpt>
      <trkpt lat="47.30148" lon="6.84497">
        <ele>732.3</ele>
        <time>2021-08-12T08:38:43Z</time>
      </trkpt>
      <trkpt lat="47.30148" lon="6.84498">
        <ele>732.3</ele>
        <time>2021-08-12T08:38:44Z</time>
      </trkpt>
      <trkpt lat="47.30146" lon="6.84503">
        <ele>732.5</ele>
        <time>2021-08-12T08:38:46Z</time>
      </trkpt>
      <trkpt lat="47.30144" lon="6.84508">
        <ele>732.6</ele>
        <time>2021-08-12T08:38:47Z</time>
      </trkpt>
      <trkpt lat="47.30144" lon="6.84509">
        <ele>732.6</ele>
        <time>2021-08-12T08:38:48Z</time>
      </trkpt>
      <trkpt lat="47.30144" lon="6.84513">
        <ele>732.7</ele>
        <time>2021-08-12T08:38:50Z</time>
      </trkpt>
      <trkpt lat="47.30143" lon="6.84518">
        <ele>732.9</ele>
        <time>2021-08-12T08:38:52Z</time>
      </trkpt>
      <trkpt lat="47.30143" lon="6.84523">
        <ele>733</ele>
        <time>2021-08-12T08:38:53Z</time>
      </trkpt>
      <trkpt lat="47.30143" lon="6.84527">
        <ele>733.1</ele>
        <time>2021-08-12T08:38:54Z</time>
      </trkpt>
      <trkpt lat="47.30142" lon="6.84531">
        <ele>733.2</ele>
        <time>2021-08-12T08:38:55Z</time>
      </trkpt>
      <trkpt lat="47.30141" lon="6.84532">
        <ele>733.2</ele>
        <time>2021-08-12T08:38:56Z</time>
      </trkpt>
      <trkpt lat="47.30141" lon="6.84537">
        <ele>733.3</ele>
        <time>2021-08-12T08:38:57Z</time>
      </trkpt>
      <trkpt lat="47.3014" lon="6.84539">
        <ele>733.4</ele>
        <time>2021-08-12T08:38:58Z</time>
      </trkpt>
      <trkpt lat="47.30139" lon="6.84544">
        <ele>733.5</ele>
        <time>2021-08-12T08:39:00Z</time>
      </trkpt>
      <trkpt lat="47.30138" lon="6.84546">
        <ele>733.6</ele>
        <time>2021-08-12T08:39:01Z</time>
      </trkpt>
      <trkpt lat="47.30137" lon="6.84548">
        <ele>733.7</ele>
        <time>2021-08-12T08:39:02Z</time>
      </trkpt>
      <trkpt lat="47.30137" lon="6.84553">
        <ele>733.8</ele>
        <time>2021-08-12T08:39:04Z</time>
      </trkpt>
      <trkpt lat="47.30137" lon="6.84555">
        <ele>733.8</ele>
        <time>2021-08-12T08:39:05Z</time>
      </trkpt>
      <trkpt lat="47.30136" lon="6.84559">
        <ele>733.9</ele>
        <time>2021-08-12T08:39:07Z</time>
      </trkpt>
      <trkpt lat="47.30135" lon="6.84562">
        <ele>734</ele>
        <time>2021-08-12T08:39:08Z</time>
      </trkpt>
      <trkpt lat="47.30134" lon="6.84567">
        <ele>734.1</ele>
        <time>2021-08-12T08:39:10Z</time>
      </trkpt>
      <trkpt lat="47.30134" lon="6.84572">
        <ele>734.2</ele>
        <time>2021-08-12T08:39:11Z</time>
      </trkpt>
      <trkpt lat="47.30134" lon="6.84574">
        <ele>734.3</ele>
        <time>2021-08-12T08:39:12Z</time>
      </trkpt>
      <trkpt lat="47.30134" lon="6.8458">
        <ele>734.4</ele>
        <time>2021-08-12T08:39:16Z</time>
      </trkpt>
      <trkpt lat="47.30133" lon="6.84585">
        <ele>734.5</ele>
        <time>2021-08-12T08:39:18Z</time>
      </trkpt>
      <trkpt lat="47.30133" lon="6.84589">
        <ele>734.6</ele>
        <time>2021-08-12T08:39:20Z</time>
      </trkpt>
      <trkpt lat="47.30133" lon="6.8459">
        <ele>734.7</ele>
        <time>2021-08-12T08:39:21Z</time>
      </trkpt>
      <trkpt lat="47.30133" lon="6.84594">
        <ele>734.7</ele>
        <time>2021-08-12T08:39:22Z</time>
      </trkpt>
      <trkpt lat="47.30132" lon="6.84597">
        <ele>734.8</ele>
        <time>2021-08-12T08:39:23Z</time>
      </trkpt>
      <trkpt lat="47.30131" lon="6.846">
        <ele>734.9</ele>
        <time>2021-08-12T08:39:25Z</time>
      </trkpt>
      <trkpt lat="47.3013" lon="6.84605">
        <ele>735</ele>
        <time>2021-08-12T08:39:26Z</time>
      </trkpt>
      <trkpt lat="47.3013" lon="6.84606">
        <ele>735.1</ele>
        <time>2021-08-12T08:39:27Z</time>
      </trkpt>
      <trkpt lat="47.30129" lon="6.84608">
        <ele>735.1</ele>
        <time>2021-08-12T08:39:28Z</time>
      </trkpt>
      <trkpt lat="47.30128" lon="6.84611">
        <ele>735.2</ele>
        <time>2021-08-12T08:39:29Z</time>
      </trkpt>
      <trkpt lat="47.30127" lon="6.84616">
        <ele>735.3</ele>
        <time>2021-08-12T08:39:31Z</time>
      </trkpt>
      <trkpt lat="47.30126" lon="6.8462">
        <ele>735.5</ele>
        <time>2021-08-12T08:39:32Z</time>
      </trkpt>
      <trkpt lat="47.30125" lon="6.84623">
        <ele>735.5</ele>
        <time>2021-08-12T08:39:33Z</time>
      </trkpt>
      <trkpt lat="47.30124" lon="6.84629">
        <ele>735.7</ele>
        <time>2021-08-12T08:39:35Z</time>
      </trkpt>
      <trkpt lat="47.30123" lon="6.84633">
        <ele>735.8</ele>
        <time>2021-08-12T08:39:36Z</time>
      </trkpt>
      <trkpt lat="47.30123" lon="6.84634">
        <ele>735.9</ele>
        <time>2021-08-12T08:39:37Z</time>
      </trkpt>
      <trkpt lat="47.30121" lon="6.84638">
        <ele>736</ele>
        <time>2021-08-12T08:39:38Z</time>
      </trkpt>
      <trkpt lat="47.3012" lon="6.84641">
        <ele>736.1</ele>
        <time>2021-08-12T08:39:39Z</time>
      </trkpt>
      <trkpt lat="47.30118" lon="6.84644">
        <ele>736.2</ele>
        <time>2021-08-12T08:39:41Z</time>
      </trkpt>
      <trkpt lat="47.30117" lon="6.84646">
        <ele>736.4</ele>
        <time>2021-08-12T08:39:42Z</time>
      </trkpt>
      <trkpt lat="47.30115" lon="6.84648">
        <ele>736.5</ele>
        <time>2021-08-12T08:39:44Z</time>
      </trkpt>
      <trkpt lat="47.30114" lon="6.84652">
        <ele>736.6</ele>
        <time>2021-08-12T08:39:45Z</time>
      </trkpt>
      <trkpt lat="47.30113" lon="6.84653">
        <ele>736.7</ele>
        <time>2021-08-12T08:39:46Z</time>
      </trkpt>
      <trkpt lat="47.30112" lon="6.84656">
        <ele>736.8</ele>
        <time>2021-08-12T08:39:47Z</time>
      </trkpt>
      <trkpt lat="47.30112" lon="6.8466">
        <ele>736.9</ele>
        <time>2021-08-12T08:39:49Z</time>
      </trkpt>
      <trkpt lat="47.30111" lon="6.84664">
        <ele>737.1</ele>
        <time>2021-08-12T08:39:50Z</time>
      </trkpt>
      <trkpt lat="47.30111" lon="6.84666">
        <ele>737.2</ele>
        <time>2021-08-12T08:39:51Z</time>
      </trkpt>
      <trkpt lat="47.3011" lon="6.8467">
        <ele>737.4</ele>
        <time>2021-08-12T08:39:52Z</time>
      </trkpt>
      <trkpt lat="47.3011" lon="6.84671">
        <ele>737.4</ele>
        <time>2021-08-12T08:39:53Z</time>
      </trkpt>
      <trkpt lat="47.30109" lon="6.84675">
        <ele>737.6</ele>
        <time>2021-08-12T08:39:55Z</time>
      </trkpt>
      <trkpt lat="47.30108" lon="6.84678">
        <ele>737.8</ele>
        <time>2021-08-12T08:39:57Z</time>
      </trkpt>
      <trkpt lat="47.30108" lon="6.84681">
        <ele>737.9</ele>
        <time>2021-08-12T08:39:58Z</time>
      </trkpt>
      <trkpt lat="47.30107" lon="6.84682">
        <ele>738</ele>
        <time>2021-08-12T08:39:59Z</time>
      </trkpt>
      <trkpt lat="47.30105" lon="6.84685">
        <ele>738.2</ele>
        <time>2021-08-12T08:40:01Z</time>
      </trkpt>
      <trkpt lat="47.30104" lon="6.84686">
        <ele>738.3</ele>
        <time>2021-08-12T08:40:02Z</time>
      </trkpt>
      <trkpt lat="47.30103" lon="6.84689">
        <ele>738.4</ele>
        <time>2021-08-12T08:40:03Z</time>
      </trkpt>
      <trkpt lat="47.30102" lon="6.8469">
        <ele>738.5</ele>
        <time>2021-08-12T08:40:04Z</time>
      </trkpt>
      <trkpt lat="47.301" lon="6.84693">
        <ele>738.8</ele>
        <time>2021-08-12T08:40:06Z</time>
      </trkpt>
      <trkpt lat="47.301" lon="6.84695">
        <ele>738.9</ele>
        <time>2021-08-12T08:40:07Z</time>
      </trkpt>
      <trkpt lat="47.30099" lon="6.84697">
        <ele>739</ele>
        <time>2021-08-12T08:40:08Z</time>
      </trkpt>
      <trkpt lat="47.30098" lon="6.84698">
        <ele>739.1</ele>
        <time>2021-08-12T08:40:09Z</time>
      </trkpt>
      <trkpt lat="47.30097" lon="6.84702">
        <ele>739.4</ele>
        <time>2021-08-12T08:40:11Z</time>
      </trkpt>
      <trkpt lat="47.30097" lon="6.84703">
        <ele>739.4</ele>
        <time>2021-08-12T08:40:12Z</time>
      </trkpt>
      <trkpt lat="47.30096" lon="6.84702">
        <ele>739.5</ele>
        <time>2021-08-12T08:40:14Z</time>
      </trkpt>
      <trkpt lat="47.30096" lon="6.84702">
        <ele>739.5</ele>
        <time>2021-08-12T08:40:15Z</time>
      </trkpt>
      <trkpt lat="47.30096" lon="6.84703">
        <ele>739.6</ele>
        <time>2021-08-12T08:40:16Z</time>
      </trkpt>
      <trkpt lat="47.30095" lon="6.84704">
        <ele>739.7</ele>
        <time>2021-08-12T08:40:17Z</time>
      </trkpt>
      <trkpt lat="47.30094" lon="6.84705">
        <ele>739.7</ele>
        <time>2021-08-12T08:40:18Z</time>
      </trkpt>
      <trkpt lat="47.30093" lon="6.84709">
        <ele>740</ele>
        <time>2021-08-12T08:40:20Z</time>
      </trkpt>
      <trkpt lat="47.30092" lon="6.8471">
        <ele>740.1</ele>
        <time>2021-08-12T08:40:21Z</time>
      </trkpt>
      <trkpt lat="47.30092" lon="6.8471">
        <ele>740.2</ele>
        <time>2021-08-12T08:40:22Z</time>
      </trkpt>
      <trkpt lat="47.30091" lon="6.84711">
        <ele>740.2</ele>
        <time>2021-08-12T08:40:23Z</time>
      </trkpt>
      <trkpt lat="47.3009" lon="6.84712">
        <ele>740.3</ele>
        <time>2021-08-12T08:40:25Z</time>
      </trkpt>
      <trkpt lat="47.30089" lon="6.84713">
        <ele>740.4</ele>
        <time>2021-08-12T08:40:26Z</time>
      </trkpt>
      <trkpt lat="47.30088" lon="6.84714">
        <ele>740.5</ele>
        <time>2021-08-12T08:40:27Z</time>
      </trkpt>
      <trkpt lat="47.30088" lon="6.84716">
        <ele>740.6</ele>
        <time>2021-08-12T08:40:29Z</time>
      </trkpt>
      <trkpt lat="47.30087" lon="6.84718">
        <ele>740.8</ele>
        <time>2021-08-12T08:40:30Z</time>
      </trkpt>
      <trkpt lat="47.30081" lon="6.84731">
        <ele>741.7</ele>
        <time>2021-08-12T08:40:40Z</time>
      </trkpt>
      <trkpt lat="47.30079" lon="6.84738">
        <ele>742.2</ele>
        <time>2021-08-12T08:40:42Z</time>
      </trkpt>
      <trkpt lat="47.30077" lon="6.84742">
        <ele>742.5</ele>
        <time>2021-08-12T08:40:43Z</time>
      </trkpt>
      <trkpt lat="47.30076" lon="6.84743">
        <ele>742.6</ele>
        <time>2021-08-12T08:40:44Z</time>
      </trkpt>
      <trkpt lat="47.30075" lon="6.84748">
        <ele>742.9</ele>
        <time>2021-08-12T08:40:46Z</time>
      </trkpt>
      <trkpt lat="47.30073" lon="6.84751">
        <ele>743.2</ele>
        <time>2021-08-12T08:40:48Z</time>
      </trkpt>
      <trkpt lat="47.30072" lon="6.84752">
        <ele>743.2</ele>
        <time>2021-08-12T08:40:49Z</time>
      </trkpt>
      <trkpt lat="47.30072" lon="6.84753">
        <ele>743.3</ele>
        <time>2021-08-12T08:40:50Z</time>
      </trkpt>
      <trkpt lat="47.30073" lon="6.84753">
        <ele>743.3</ele>
        <time>2021-08-12T08:40:51Z</time>
      </trkpt>
      <trkpt lat="47.30073" lon="6.84754">
        <ele>743.4</ele>
        <time>2021-08-12T08:40:53Z</time>
      </trkpt>
      <trkpt lat="47.30073" lon="6.84755">
        <ele>743.4</ele>
        <time>2021-08-12T08:40:54Z</time>
      </trkpt>
      <trkpt lat="47.30073" lon="6.84755">
        <ele>743.4</ele>
        <time>2021-08-12T08:40:55Z</time>
      </trkpt>
      <trkpt lat="47.30072" lon="6.84756">
        <ele>743.5</ele>
        <time>2021-08-12T08:40:56Z</time>
      </trkpt>
      <trkpt lat="47.30072" lon="6.84757">
        <ele>743.6</ele>
        <time>2021-08-12T08:40:57Z</time>
      </trkpt>
      <trkpt lat="47.30071" lon="6.84758">
        <ele>743.7</ele>
        <time>2021-08-12T08:40:58Z</time>
      </trkpt>
      <trkpt lat="47.30065" lon="6.84771">
        <ele>744.6</ele>
        <time>2021-08-12T08:41:04Z</time>
      </trkpt>
      <trkpt lat="47.30063" lon="6.84776">
        <ele>745.1</ele>
        <time>2021-08-12T08:41:05Z</time>
      </trkpt>
      <trkpt lat="47.3006" lon="6.84781">
        <ele>745.4</ele>
        <time>2021-08-12T08:41:07Z</time>
      </trkpt>
      <trkpt lat="47.30059" lon="6.84782">
        <ele>745.6</ele>
        <time>2021-08-12T08:41:08Z</time>
      </trkpt>
      <trkpt lat="47.30058" lon="6.84784">
        <ele>745.7</ele>
        <time>2021-08-12T08:41:09Z</time>
      </trkpt>
      <trkpt lat="47.30057" lon="6.84786">
        <ele>745.8</ele>
        <time>2021-08-12T08:41:11Z</time>
      </trkpt>
      <trkpt lat="47.30056" lon="6.84786">
        <ele>745.9</ele>
        <time>2021-08-12T08:41:12Z</time>
      </trkpt>
      <trkpt lat="47.30055" lon="6.84787">
        <ele>746</ele>
        <time>2021-08-12T08:41:13Z</time>
      </trkpt>
      <trkpt lat="47.30052" lon="6.84789">
        <ele>746.2</ele>
        <time>2021-08-12T08:41:15Z</time>
      </trkpt>
      <trkpt lat="47.3005" lon="6.8479">
        <ele>746.3</ele>
        <time>2021-08-12T08:41:16Z</time>
      </trkpt>
      <trkpt lat="47.30048" lon="6.84793">
        <ele>746.6</ele>
        <time>2021-08-12T08:41:18Z</time>
      </trkpt>
      <trkpt lat="47.30046" lon="6.84797">
        <ele>746.8</ele>
        <time>2021-08-12T08:41:19Z</time>
      </trkpt>
      <trkpt lat="47.30045" lon="6.84798">
        <ele>746.9</ele>
        <time>2021-08-12T08:41:20Z</time>
      </trkpt>
      <trkpt lat="47.30043" lon="6.848">
        <ele>747</ele>
        <time>2021-08-12T08:41:21Z</time>
      </trkpt>
      <trkpt lat="47.30041" lon="6.84802">
        <ele>747.1</ele>
        <time>2021-08-12T08:41:23Z</time>
      </trkpt>
      <trkpt lat="47.30038" lon="6.84805">
        <ele>747.3</ele>
        <time>2021-08-12T08:41:24Z</time>
      </trkpt>
      <trkpt lat="47.30038" lon="6.84806">
        <ele>747.4</ele>
        <time>2021-08-12T08:41:25Z</time>
      </trkpt>
      <trkpt lat="47.30035" lon="6.84809">
        <ele>747.5</ele>
        <time>2021-08-12T08:41:27Z</time>
      </trkpt>
      <trkpt lat="47.30034" lon="6.84811">
        <ele>747.6</ele>
        <time>2021-08-12T08:41:28Z</time>
      </trkpt>
      <trkpt lat="47.30033" lon="6.84813">
        <ele>747.7</ele>
        <time>2021-08-12T08:41:29Z</time>
      </trkpt>
      <trkpt lat="47.30032" lon="6.84815">
        <ele>747.8</ele>
        <time>2021-08-12T08:41:30Z</time>
      </trkpt>
      <trkpt lat="47.3003" lon="6.84818">
        <ele>747.9</ele>
        <time>2021-08-12T08:41:31Z</time>
      </trkpt>
      <trkpt lat="47.30028" lon="6.84819">
        <ele>748</ele>
        <time>2021-08-12T08:41:33Z</time>
      </trkpt>
      <trkpt lat="47.30026" lon="6.84823">
        <ele>748.1</ele>
        <time>2021-08-12T08:41:34Z</time>
      </trkpt>
      <trkpt lat="47.30026" lon="6.84825">
        <ele>748.1</ele>
        <time>2021-08-12T08:41:35Z</time>
      </trkpt>
      <trkpt lat="47.30023" lon="6.84828">
        <ele>748.2</ele>
        <time>2021-08-12T08:41:36Z</time>
      </trkpt>
      <trkpt lat="47.30021" lon="6.84831">
        <ele>748.3</ele>
        <time>2021-08-12T08:41:38Z</time>
      </trkpt>
      <trkpt lat="47.30019" lon="6.84832">
        <ele>748.3</ele>
        <time>2021-08-12T08:41:39Z</time>
      </trkpt>
      <trkpt lat="47.30016" lon="6.84835">
        <ele>748.4</ele>
        <time>2021-08-12T08:41:41Z</time>
      </trkpt>
      <trkpt lat="47.30015" lon="6.84837">
        <ele>748.4</ele>
        <time>2021-08-12T08:41:42Z</time>
      </trkpt>
      <trkpt lat="47.30012" lon="6.84841">
        <ele>748.5</ele>
        <time>2021-08-12T08:41:44Z</time>
      </trkpt>
      <trkpt lat="47.30009" lon="6.84841">
        <ele>748.5</ele>
        <time>2021-08-12T08:41:45Z</time>
      </trkpt>
      <trkpt lat="47.30008" lon="6.84841">
        <ele>748.5</ele>
        <time>2021-08-12T08:41:46Z</time>
      </trkpt>
      <trkpt lat="47.30005" lon="6.84841">
        <ele>748.6</ele>
        <time>2021-08-12T08:41:47Z</time>
      </trkpt>
      <trkpt lat="47.30001" lon="6.84843">
        <ele>748.6</ele>
        <time>2021-08-12T08:41:49Z</time>
      </trkpt>
      <trkpt lat="47.3" lon="6.84843">
        <ele>748.7</ele>
        <time>2021-08-12T08:41:50Z</time>
      </trkpt>
      <trkpt lat="47.29998" lon="6.84845">
        <ele>748.7</ele>
        <time>2021-08-12T08:41:51Z</time>
      </trkpt>
      <trkpt lat="47.29999" lon="6.84846">
        <ele>748.7</ele>
        <time>2021-08-12T08:41:53Z</time>
      </trkpt>
      <trkpt lat="47.3" lon="6.84847">
        <ele>748.7</ele>
        <time>2021-08-12T08:41:54Z</time>
      </trkpt>
      <trkpt lat="47.3" lon="6.84847">
        <ele>748.7</ele>
        <time>2021-08-12T08:41:55Z</time>
      </trkpt>
      <trkpt lat="47.29999" lon="6.84848">
        <ele>748.7</ele>
        <time>2021-08-12T08:41:56Z</time>
      </trkpt>
      <trkpt lat="47.29998" lon="6.8485">
        <ele>748.7</ele>
        <time>2021-08-12T08:41:58Z</time>
      </trkpt>
      <trkpt lat="47.29997" lon="6.8485">
        <ele>748.7</ele>
        <time>2021-08-12T08:41:59Z</time>
      </trkpt>
      <trkpt lat="47.29996" lon="6.84851">
        <ele>748.7</ele>
        <time>2021-08-12T08:42:00Z</time>
      </trkpt>
      <trkpt lat="47.29994" lon="6.84852">
        <ele>748.8</ele>
        <time>2021-08-12T08:42:02Z</time>
      </trkpt>
      <trkpt lat="47.29985" lon="6.84855">
        <ele>748.8</ele>
        <time>2021-08-12T08:42:05Z</time>
      </trkpt>
      <trkpt lat="47.29981" lon="6.84856">
        <ele>748.9</ele>
        <time>2021-08-12T08:42:06Z</time>
      </trkpt>
      <trkpt lat="47.29976" lon="6.84857">
        <ele>748.9</ele>
        <time>2021-08-12T08:42:07Z</time>
      </trkpt>
      <trkpt lat="47.29971" lon="6.84857">
        <ele>748.9</ele>
        <time>2021-08-12T08:42:08Z</time>
      </trkpt>
      <trkpt lat="47.29964" lon="6.84856">
        <ele>748.9</ele>
        <time>2021-08-12T08:42:09Z</time>
      </trkpt>
      <trkpt lat="47.29957" lon="6.84856">
        <ele>748.9</ele>
        <time>2021-08-12T08:42:11Z</time>
      </trkpt>
      <trkpt lat="47.2995" lon="6.84856">
        <ele>748.9</ele>
        <time>2021-08-12T08:42:12Z</time>
      </trkpt>
      <trkpt lat="47.29941" lon="6.84852">
        <ele>748.9</ele>
        <time>2021-08-12T08:42:14Z</time>
      </trkpt>
      <trkpt lat="47.29935" lon="6.84849">
        <ele>748.9</ele>
        <time>2021-08-12T08:42:15Z</time>
      </trkpt>
      <trkpt lat="47.2993" lon="6.84844">
        <ele>748.9</ele>
        <time>2021-08-12T08:42:17Z</time>
      </trkpt>
      <trkpt lat="47.29926" lon="6.84841">
        <ele>748.9</ele>
        <time>2021-08-12T08:42:18Z</time>
      </trkpt>
      <trkpt lat="47.29922" lon="6.84838">
        <ele>748.9</ele>
        <time>2021-08-12T08:42:19Z</time>
      </trkpt>
      <trkpt lat="47.29917" lon="6.84835">
        <ele>749</ele>
        <time>2021-08-12T08:42:20Z</time>
      </trkpt>
      <trkpt lat="47.29913" lon="6.84834">
        <ele>749</ele>
        <time>2021-08-12T08:42:21Z</time>
      </trkpt>
      <trkpt lat="47.29908" lon="6.84831">
        <ele>749.1</ele>
        <time>2021-08-12T08:42:23Z</time>
      </trkpt>
      <trkpt lat="47.29903" lon="6.84829">
        <ele>749.2</ele>
        <time>2021-08-12T08:42:25Z</time>
      </trkpt>
      <trkpt lat="47.29899" lon="6.84826">
        <ele>749.3</ele>
        <time>2021-08-12T08:42:26Z</time>
      </trkpt>
      <trkpt lat="47.29895" lon="6.84824">
        <ele>749.4</ele>
        <time>2021-08-12T08:42:27Z</time>
      </trkpt>
      <trkpt lat="47.29892" lon="6.84821">
        <ele>749.5</ele>
        <time>2021-08-12T08:42:29Z</time>
      </trkpt>
      <trkpt lat="47.2989" lon="6.8482">
        <ele>749.6</ele>
        <time>2021-08-12T08:42:30Z</time>
      </trkpt>
      <trkpt lat="47.29889" lon="6.8482">
        <ele>749.6</ele>
        <time>2021-08-12T08:42:31Z</time>
      </trkpt>
      <trkpt lat="47.29891" lon="6.84817">
        <ele>749.7</ele>
        <time>2021-08-12T08:42:32Z</time>
      </trkpt>
      <trkpt lat="47.29892" lon="6.84816">
        <ele>749.8</ele>
        <time>2021-08-12T08:42:34Z</time>
      </trkpt>
      <trkpt lat="47.29892" lon="6.84816">
        <ele>749.8</ele>
        <time>2021-08-12T08:42:36Z</time>
      </trkpt>
      <trkpt lat="47.29892" lon="6.84816">
        <ele>749.8</ele>
        <time>2021-08-12T08:42:38Z</time>
      </trkpt>
      <trkpt lat="47.29892" lon="6.84816">
        <ele>749.8</ele>
        <time>2021-08-12T08:42:39Z</time>
      </trkpt>
      <trkpt lat="47.29892" lon="6.84816">
        <ele>749.8</ele>
        <time>2021-08-12T08:42:41Z</time>
      </trkpt>
      <trkpt lat="47.29842" lon="6.84754">
        <ele>753.8</ele>
        <time>2021-08-12T08:44:16Z</time>
      </trkpt>
      <trkpt lat="47.29839" lon="6.84751">
        <ele>754</ele>
        <time>2021-08-12T08:44:17Z</time>
      </trkpt>
      <trkpt lat="47.29834" lon="6.84747">
        <ele>754.3</ele>
        <time>2021-08-12T08:44:19Z</time>
      </trkpt>
      <trkpt lat="47.29828" lon="6.84742">
        <ele>754.5</ele>
        <time>2021-08-12T08:44:20Z</time>
      </trkpt>
      <trkpt lat="47.29823" lon="6.84739">
        <ele>754.7</ele>
        <time>2021-08-12T08:44:21Z</time>
      </trkpt>
      <trkpt lat="47.29818" lon="6.84735">
        <ele>754.8</ele>
        <time>2021-08-12T08:44:22Z</time>
      </trkpt>
      <trkpt lat="47.29814" lon="6.84731">
        <ele>754.9</ele>
        <time>2021-08-12T08:44:23Z</time>
      </trkpt>
      <trkpt lat="47.2981" lon="6.84728">
        <ele>755</ele>
        <time>2021-08-12T08:44:24Z</time>
      </trkpt>
      <trkpt lat="47.29806" lon="6.84722">
        <ele>755.1</ele>
        <time>2021-08-12T08:44:25Z</time>
      </trkpt>
      <trkpt lat="47.29803" lon="6.84717">
        <ele>755.2</ele>
        <time>2021-08-12T08:44:27Z</time>
      </trkpt>
      <trkpt lat="47.298" lon="6.84712">
        <ele>755.3</ele>
        <time>2021-08-12T08:44:28Z</time>
      </trkpt>
      <trkpt lat="47.29795" lon="6.84707">
        <ele>755.3</ele>
        <time>2021-08-12T08:44:29Z</time>
      </trkpt>
      <trkpt lat="47.29792" lon="6.84703">
        <ele>755.4</ele>
        <time>2021-08-12T08:44:30Z</time>
      </trkpt>
      <trkpt lat="47.29789" lon="6.84701">
        <ele>755.6</ele>
        <time>2021-08-12T08:44:31Z</time>
      </trkpt>
      <trkpt lat="47.29785" lon="6.84695">
        <ele>755.7</ele>
        <time>2021-08-12T08:44:33Z</time>
      </trkpt>
      <trkpt lat="47.29784" lon="6.84693">
        <ele>755.8</ele>
        <time>2021-08-12T08:44:34Z</time>
      </trkpt>
      <trkpt lat="47.29782" lon="6.84689">
        <ele>755.9</ele>
        <time>2021-08-12T08:44:36Z</time>
      </trkpt>
      <trkpt lat="47.29782" lon="6.84689">
        <ele>755.9</ele>
        <time>2021-08-12T08:44:37Z</time>
      </trkpt>
      <trkpt lat="47.29782" lon="6.84689">
        <ele>755.9</ele>
        <time>2021-08-12T08:44:39Z</time>
      </trkpt>
      <trkpt lat="47.29782" lon="6.84689">
        <ele>755.9</ele>
        <time>2021-08-12T08:44:40Z</time>
      </trkpt>
      <trkpt lat="47.2978" lon="6.84689">
        <ele>755.9</ele>
        <time>2021-08-12T08:44:42Z</time>
      </trkpt>
      <trkpt lat="47.29778" lon="6.84688">
        <ele>756</ele>
        <time>2021-08-12T08:44:43Z</time>
      </trkpt>
      <trkpt lat="47.29775" lon="6.84686">
        <ele>756.1</ele>
        <time>2021-08-12T08:44:45Z</time>
      </trkpt>
      <trkpt lat="47.29702" lon="6.84639">
        <ele>761.3</ele>
        <time>2021-08-12T08:45:44Z</time>
      </trkpt>
      <trkpt lat="47.29702" lon="6.84639">
        <ele>761.4</ele>
        <time>2021-08-12T08:45:45Z</time>
      </trkpt>
      <trkpt lat="47.29703" lon="6.84639">
        <ele>761.5</ele>
        <time>2021-08-12T08:45:46Z</time>
      </trkpt>
      <trkpt lat="47.29704" lon="6.84639">
        <ele>761.6</ele>
        <time>2021-08-12T08:45:48Z</time>
      </trkpt>
      <trkpt lat="47.29704" lon="6.84638">
        <ele>761.7</ele>
        <time>2021-08-12T08:45:49Z</time>
      </trkpt>
      <trkpt lat="47.29705" lon="6.84638">
        <ele>761.7</ele>
        <time>2021-08-12T08:45:50Z</time>
      </trkpt>
      <trkpt lat="47.29705" lon="6.84638">
        <ele>761.7</ele>
        <time>2021-08-12T08:45:51Z</time>
      </trkpt>
      <trkpt lat="47.29705" lon="6.84637">
        <ele>761.7</ele>
        <time>2021-08-12T08:45:53Z</time>
      </trkpt>
      <trkpt lat="47.29705" lon="6.84637">
        <ele>761.8</ele>
        <time>2021-08-12T08:45:54Z</time>
      </trkpt>
      <trkpt lat="47.29705" lon="6.84636">
        <ele>761.8</ele>
        <time>2021-08-12T08:45:55Z</time>
      </trkpt>
      <trkpt lat="47.29705" lon="6.84636">
        <ele>761.8</ele>
        <time>2021-08-12T08:45:56Z</time>
      </trkpt>
      <trkpt lat="47.29705" lon="6.84636">
        <ele>761.9</ele>
        <time>2021-08-12T08:45:58Z</time>
      </trkpt>
      <trkpt lat="47.29704" lon="6.84635">
        <ele>761.9</ele>
        <time>2021-08-12T08:45:59Z</time>
      </trkpt>
      <trkpt lat="47.29704" lon="6.84634">
        <ele>762</ele>
        <time>2021-08-12T08:46:01Z</time>
      </trkpt>
      <trkpt lat="47.29703" lon="6.84633">
        <ele>762.1</ele>
        <time>2021-08-12T08:46:02Z</time>
      </trkpt>
      <trkpt lat="47.29702" lon="6.8463">
        <ele>762.4</ele>
        <time>2021-08-12T08:46:03Z</time>
      </trkpt>
      <trkpt lat="47.29702" lon="6.84629">
        <ele>762.5</ele>
        <time>2021-08-12T08:46:05Z</time>
      </trkpt>
      <trkpt lat="47.29701" lon="6.84628">
        <ele>762.6</ele>
        <time>2021-08-12T08:46:06Z</time>
      </trkpt>
      <trkpt lat="47.297" lon="6.84626">
        <ele>762.8</ele>
        <time>2021-08-12T08:46:07Z</time>
      </trkpt>
      <trkpt lat="47.29699" lon="6.84624">
        <ele>762.9</ele>
        <time>2021-08-12T08:46:09Z</time>
      </trkpt>
      <trkpt lat="47.29698" lon="6.84621">
        <ele>763.2</ele>
        <time>2021-08-12T08:46:10Z</time>
      </trkpt>
      <trkpt lat="47.29697" lon="6.84619">
        <ele>763.4</ele>
        <time>2021-08-12T08:46:12Z</time>
      </trkpt>
      <trkpt lat="47.29696" lon="6.84617">
        <ele>763.6</ele>
        <time>2021-08-12T08:46:13Z</time>
      </trkpt>
      <trkpt lat="47.29694" lon="6.84616">
        <ele>763.8</ele>
        <time>2021-08-12T08:46:15Z</time>
      </trkpt>
      <trkpt lat="47.29692" lon="6.84615">
        <ele>764</ele>
        <time>2021-08-12T08:46:16Z</time>
      </trkpt>
      <trkpt lat="47.29691" lon="6.84614">
        <ele>764.1</ele>
        <time>2021-08-12T08:46:17Z</time>
      </trkpt>
      <trkpt lat="47.2969" lon="6.84613">
        <ele>764.3</ele>
        <time>2021-08-12T08:46:19Z</time>
      </trkpt>
      <trkpt lat="47.29689" lon="6.84614">
        <ele>764.4</ele>
        <time>2021-08-12T08:46:20Z</time>
      </trkpt>
      <trkpt lat="47.29688" lon="6.84614">
        <ele>764.5</ele>
        <time>2021-08-12T08:46:21Z</time>
      </trkpt>
      <trkpt lat="47.29687" lon="6.84614">
        <ele>764.6</ele>
        <time>2021-08-12T08:46:22Z</time>
      </trkpt>
      <trkpt lat="47.29686" lon="6.84615">
        <ele>764.7</ele>
        <time>2021-08-12T08:46:24Z</time>
      </trkpt>
      <trkpt lat="47.29684" lon="6.84614">
        <ele>764.8</ele>
        <time>2021-08-12T08:46:25Z</time>
      </trkpt>
      <trkpt lat="47.29682" lon="6.84613">
        <ele>765.1</ele>
        <time>2021-08-12T08:46:27Z</time>
      </trkpt>
      <trkpt lat="47.29679" lon="6.84611">
        <ele>765.4</ele>
        <time>2021-08-12T08:46:28Z</time>
      </trkpt>
      <trkpt lat="47.29677" lon="6.84611">
        <ele>765.6</ele>
        <time>2021-08-12T08:46:29Z</time>
      </trkpt>
      <trkpt lat="47.29673" lon="6.84609">
        <ele>765.9</ele>
        <time>2021-08-12T08:46:31Z</time>
      </trkpt>
      <trkpt lat="47.29673" lon="6.84609">
        <ele>765.9</ele>
        <time>2021-08-12T08:46:32Z</time>
      </trkpt>
      <trkpt lat="47.29671" lon="6.84609">
        <ele>766.1</ele>
        <time>2021-08-12T08:46:34Z</time>
      </trkpt>
      <trkpt lat="47.2967" lon="6.84608">
        <ele>766.2</ele>
        <time>2021-08-12T08:46:35Z</time>
      </trkpt>
      <trkpt lat="47.29669" lon="6.84608">
        <ele>766.3</ele>
        <time>2021-08-12T08:46:36Z</time>
      </trkpt>
      <trkpt lat="47.29667" lon="6.84608">
        <ele>766.4</ele>
        <time>2021-08-12T08:46:38Z</time>
      </trkpt>
      <trkpt lat="47.29665" lon="6.84608">
        <ele>766.6</ele>
        <time>2021-08-12T08:46:39Z</time>
      </trkpt>
      <trkpt lat="47.29632" lon="6.84587">
        <ele>769.3</ele>
        <time>2021-08-12T08:47:16Z</time>
      </trkpt>
      <trkpt lat="47.29629" lon="6.84585">
        <ele>769.6</ele>
        <time>2021-08-12T08:47:18Z</time>
      </trkpt>
      <trkpt lat="47.29627" lon="6.84584">
        <ele>769.8</ele>
        <time>2021-08-12T08:47:19Z</time>
      </trkpt>
      <trkpt lat="47.29626" lon="6.84584">
        <ele>769.8</ele>
        <time>2021-08-12T08:47:20Z</time>
      </trkpt>
      <trkpt lat="47.29625" lon="6.84584">
        <ele>769.9</ele>
        <time>2021-08-12T08:47:22Z</time>
      </trkpt>
      <trkpt lat="47.29624" lon="6.84585">
        <ele>769.9</ele>
        <time>2021-08-12T08:47:23Z</time>
      </trkpt>
      <trkpt lat="47.29624" lon="6.84585">
        <ele>770</ele>
        <time>2021-08-12T08:47:25Z</time>
      </trkpt>
      <trkpt lat="47.29624" lon="6.84585">
        <ele>770</ele>
        <time>2021-08-12T08:47:26Z</time>
      </trkpt>
      <trkpt lat="47.29624" lon="6.84586">
        <ele>770</ele>
        <time>2021-08-12T08:47:28Z</time>
      </trkpt>
      <trkpt lat="47.29623" lon="6.84586">
        <ele>770</ele>
        <time>2021-08-12T08:47:29Z</time>
      </trkpt>
      <trkpt lat="47.29622" lon="6.84586">
        <ele>770.1</ele>
        <time>2021-08-12T08:47:30Z</time>
      </trkpt>
      <trkpt lat="47.29621" lon="6.84585">
        <ele>770.2</ele>
        <time>2021-08-12T08:47:32Z</time>
      </trkpt>
      <trkpt lat="47.2962" lon="6.84583">
        <ele>770.3</ele>
        <time>2021-08-12T08:47:33Z</time>
      </trkpt>
      <trkpt lat="47.29499" lon="6.84599">
        <ele>780.1</ele>
        <time>2021-08-12T08:50:25Z</time>
      </trkpt>
      <trkpt lat="47.29497" lon="6.846">
        <ele>780.2</ele>
        <time>2021-08-12T08:50:26Z</time>
      </trkpt>
      <trkpt lat="47.29495" lon="6.84601">
        <ele>780.4</ele>
        <time>2021-08-12T08:50:27Z</time>
      </trkpt>
      <trkpt lat="47.29493" lon="6.84603">
        <ele>780.7</ele>
        <time>2021-08-12T08:50:28Z</time>
      </trkpt>
      <trkpt lat="47.29489" lon="6.84605">
        <ele>781</ele>
        <time>2021-08-12T08:50:30Z</time>
      </trkpt>
      <trkpt lat="47.29486" lon="6.84606">
        <ele>781.3</ele>
        <time>2021-08-12T08:50:31Z</time>
      </trkpt>
      <trkpt lat="47.29486" lon="6.84606">
        <ele>781.3</ele>
        <time>2021-08-12T08:50:32Z</time>
      </trkpt>
      <trkpt lat="47.29487" lon="6.84606">
        <ele>781.3</ele>
        <time>2021-08-12T08:50:33Z</time>
      </trkpt>
      <trkpt lat="47.29487" lon="6.84606">
        <ele>781.4</ele>
        <time>2021-08-12T08:50:34Z</time>
      </trkpt>
      <trkpt lat="47.29486" lon="6.84607">
        <ele>781.4</ele>
        <time>2021-08-12T08:50:36Z</time>
      </trkpt>
      <trkpt lat="47.29486" lon="6.84608">
        <ele>781.5</ele>
        <time>2021-08-12T08:50:37Z</time>
      </trkpt>
      <trkpt lat="47.29486" lon="6.84608">
        <ele>781.5</ele>
        <time>2021-08-12T08:50:38Z</time>
      </trkpt>
      <trkpt lat="47.29486" lon="6.84608">
        <ele>781.6</ele>
        <time>2021-08-12T08:50:40Z</time>
      </trkpt>
      <trkpt lat="47.29485" lon="6.84609">
        <ele>781.6</ele>
        <time>2021-08-12T08:50:41Z</time>
      </trkpt>
      <trkpt lat="47.29485" lon="6.8461">
        <ele>781.7</ele>
        <time>2021-08-12T08:50:43Z</time>
      </trkpt>
      <trkpt lat="47.29485" lon="6.84611">
        <ele>781.8</ele>
        <time>2021-08-12T08:50:44Z</time>
      </trkpt>
      <trkpt lat="47.29485" lon="6.84612">
        <ele>781.8</ele>
        <time>2021-08-12T08:50:45Z</time>
      </trkpt>
      <trkpt lat="47.29485" lon="6.84614">
        <ele>781.9</ele>
        <time>2021-08-12T08:50:47Z</time>
      </trkpt>
      <trkpt lat="47.29421" lon="6.84627">
        <ele>788.6</ele>
        <time>2021-08-12T08:52:15Z</time>
      </trkpt>
      <trkpt lat="47.2942" lon="6.84628">
        <ele>788.7</ele>
        <time>2021-08-12T08:52:16Z</time>
      </trkpt>
      <trkpt lat="47.2942" lon="6.84629">
        <ele>788.8</ele>
        <time>2021-08-12T08:52:18Z</time>
      </trkpt>
      <trkpt lat="47.2942" lon="6.8463">
        <ele>788.9</ele>
        <time>2021-08-12T08:52:19Z</time>
      </trkpt>
      <trkpt lat="47.2942" lon="6.84631">
        <ele>788.9</ele>
        <time>2021-08-12T08:52:21Z</time>
      </trkpt>
      <trkpt lat="47.29419" lon="6.84632">
        <ele>789</ele>
        <time>2021-08-12T08:52:22Z</time>
      </trkpt>
      <trkpt lat="47.29419" lon="6.84632">
        <ele>789</ele>
        <time>2021-08-12T08:52:23Z</time>
      </trkpt>
      <trkpt lat="47.29418" lon="6.84633">
        <ele>789.2</ele>
        <time>2021-08-12T08:52:25Z</time>
      </trkpt>
      <trkpt lat="47.29417" lon="6.84633">
        <ele>789.3</ele>
        <time>2021-08-12T08:52:26Z</time>
      </trkpt>
      <trkpt lat="47.29415" lon="6.84633">
        <ele>789.4</ele>
        <time>2021-08-12T08:52:28Z</time>
      </trkpt>
      <trkpt lat="47.29415" lon="6.84633">
        <ele>789.5</ele>
        <time>2021-08-12T08:52:29Z</time>
      </trkpt>
      <trkpt lat="47.29414" lon="6.84633">
        <ele>789.5</ele>
        <time>2021-08-12T08:52:30Z</time>
      </trkpt>
      <trkpt lat="47.29412" lon="6.84633">
        <ele>789.8</ele>
        <time>2021-08-12T08:52:32Z</time>
      </trkpt>
      <trkpt lat="47.29408" lon="6.84633">
        <ele>790.2</ele>
        <time>2021-08-12T08:52:34Z</time>
      </trkpt>
      <trkpt lat="47.29406" lon="6.84634">
        <ele>790.5</ele>
        <time>2021-08-12T08:52:35Z</time>
      </trkpt>
      <trkpt lat="47.29405" lon="6.84635">
        <ele>790.7</ele>
        <time>2021-08-12T08:52:37Z</time>
      </trkpt>
      <trkpt lat="47.29401" lon="6.84639">
        <ele>791.2</ele>
        <time>2021-08-12T08:52:38Z</time>
      </trkpt>
      <trkpt lat="47.29399" lon="6.84641">
        <ele>791.5</ele>
        <time>2021-08-12T08:52:39Z</time>
      </trkpt>
      <trkpt lat="47.29397" lon="6.84643">
        <ele>791.9</ele>
        <time>2021-08-12T08:52:41Z</time>
      </trkpt>
      <trkpt lat="47.29396" lon="6.84644">
        <ele>792</ele>
        <time>2021-08-12T08:52:42Z</time>
      </trkpt>
      <trkpt lat="47.29392" lon="6.84645">
        <ele>792.6</ele>
        <time>2021-08-12T08:52:44Z</time>
      </trkpt>
      <trkpt lat="47.29391" lon="6.84645">
        <ele>792.7</ele>
        <time>2021-08-12T08:52:45Z</time>
      </trkpt>
      <trkpt lat="47.29389" lon="6.84645">
        <ele>793</ele>
        <time>2021-08-12T08:52:46Z</time>
      </trkpt>
      <trkpt lat="47.29389" lon="6.84644">
        <ele>793</ele>
        <time>2021-08-12T08:52:48Z</time>
      </trkpt>
      <trkpt lat="47.29388" lon="6.84644">
        <ele>793</ele>
        <time>2021-08-12T08:52:49Z</time>
      </trkpt>
      <trkpt lat="47.29388" lon="6.84644">
        <ele>793.1</ele>
        <time>2021-08-12T08:52:50Z</time>
      </trkpt>
      <trkpt lat="47.29388" lon="6.84644">
        <ele>793.1</ele>
        <time>2021-08-12T08:52:52Z</time>
      </trkpt>
      <trkpt lat="47.29388" lon="6.84644">
        <ele>793.1</ele>
        <time>2021-08-12T08:52:53Z</time>
      </trkpt>
      <trkpt lat="47.29387" lon="6.84644">
        <ele>793.1</ele>
        <time>2021-08-12T08:52:55Z</time>
      </trkpt>
      <trkpt lat="47.29387" lon="6.84644">
        <ele>793.2</ele>
        <time>2021-08-12T08:52:56Z</time>
      </trkpt>
      <trkpt lat="47.29356" lon="6.84712">
        <ele>799.7</ele>
        <time>2021-08-12T08:53:58Z</time>
      </trkpt>
      <trkpt lat="47.29353" lon="6.84717">
        <ele>800.1</ele>
        <time>2021-08-12T08:54:00Z</time>
      </trkpt>
      <trkpt lat="47.29353" lon="6.84718">
        <ele>800.2</ele>
        <time>2021-08-12T08:54:01Z</time>
      </trkpt>
      <trkpt lat="47.29353" lon="6.84719">
        <ele>800.3</ele>
        <time>2021-08-12T08:54:03Z</time>
      </trkpt>
      <trkpt lat="47.29353" lon="6.8472">
        <ele>800.4</ele>
        <time>2021-08-12T08:54:04Z</time>
      </trkpt>
      <trkpt lat="47.29353" lon="6.84721">
        <ele>800.5</ele>
        <time>2021-08-12T08:54:06Z</time>
      </trkpt>
      <trkpt lat="47.29353" lon="6.84722">
        <ele>800.5</ele>
        <time>2021-08-12T08:54:08Z</time>
      </trkpt>
      <trkpt lat="47.29353" lon="6.84722">
        <ele>800.5</ele>
        <time>2021-08-12T08:54:09Z</time>
      </trkpt>
      <trkpt lat="47.29353" lon="6.84722">
        <ele>800.5</ele>
        <time>2021-08-12T08:54:10Z</time>
      </trkpt>
      <trkpt lat="47.29353" lon="6.84723">
        <ele>800.6</ele>
        <time>2021-08-12T08:54:12Z</time>
      </trkpt>
      <trkpt lat="47.29353" lon="6.84722">
        <ele>800.6</ele>
        <time>2021-08-12T08:54:13Z</time>
      </trkpt>
      <trkpt lat="47.29353" lon="6.84722">
        <ele>800.6</ele>
        <time>2021-08-12T08:54:14Z</time>
      </trkpt>
      <trkpt lat="47.29353" lon="6.84722">
        <ele>800.6</ele>
        <time>2021-08-12T08:54:15Z</time>
      </trkpt>
      <trkpt lat="47.29353" lon="6.84722">
        <ele>800.6</ele>
        <time>2021-08-12T08:54:17Z</time>
      </trkpt>
      <trkpt lat="47.29353" lon="6.84722">
        <ele>800.6</ele>
        <time>2021-08-12T08:54:18Z</time>
      </trkpt>
      <trkpt lat="47.29353" lon="6.84722">
        <ele>800.7</ele>
        <time>2021-08-12T08:54:20Z</time>
      </trkpt>
      <trkpt lat="47.29353" lon="6.84722">
        <ele>800.7</ele>
        <time>2021-08-12T08:54:21Z</time>
      </trkpt>
      <trkpt lat="47.29354" lon="6.84722">
        <ele>800.7</ele>
        <time>2021-08-12T08:54:22Z</time>
      </trkpt>
      <trkpt lat="47.29354" lon="6.84722">
        <ele>800.7</ele>
        <time>2021-08-12T08:54:24Z</time>
      </trkpt>
      <trkpt lat="47.29354" lon="6.84722">
        <ele>800.7</ele>
        <time>2021-08-12T08:54:25Z</time>
      </trkpt>
      <trkpt lat="47.29353" lon="6.84722">
        <ele>800.8</ele>
        <time>2021-08-12T08:54:26Z</time>
      </trkpt>
      <trkpt lat="47.29352" lon="6.84721">
        <ele>800.9</ele>
        <time>2021-08-12T08:54:28Z</time>
      </trkpt>
      <trkpt lat="47.29351" lon="6.84719">
        <ele>801.1</ele>
        <time>2021-08-12T08:54:29Z</time>
      </trkpt>
      <trkpt lat="47.2935" lon="6.84719">
        <ele>801.2</ele>
        <time>2021-08-12T08:54:30Z</time>
      </trkpt>
      <trkpt lat="47.29349" lon="6.84718">
        <ele>801.3</ele>
        <time>2021-08-12T08:54:32Z</time>
      </trkpt>
      <trkpt lat="47.29349" lon="6.84718">
        <ele>801.4</ele>
        <time>2021-08-12T08:54:33Z</time>
      </trkpt>
      <trkpt lat="47.29348" lon="6.84717">
        <ele>801.4</ele>
        <time>2021-08-12T08:54:35Z</time>
      </trkpt>
      <trkpt lat="47.29348" lon="6.84717">
        <ele>801.5</ele>
        <time>2021-08-12T08:54:36Z</time>
      </trkpt>
      <trkpt lat="47.29347" lon="6.84717">
        <ele>801.5</ele>
        <time>2021-08-12T08:54:38Z</time>
      </trkpt>
      <trkpt lat="47.29347" lon="6.84716">
        <ele>801.6</ele>
        <time>2021-08-12T08:54:40Z</time>
      </trkpt>
      <trkpt lat="47.29348" lon="6.84716">
        <ele>801.7</ele>
        <time>2021-08-12T08:54:42Z</time>
      </trkpt>
      <trkpt lat="47.29349" lon="6.84716">
        <ele>801.7</ele>
        <time>2021-08-12T08:54:43Z</time>
      </trkpt>
      <trkpt lat="47.2935" lon="6.84716">
        <ele>801.9</ele>
        <time>2021-08-12T08:54:45Z</time>
      </trkpt>
      <trkpt lat="47.29351" lon="6.84716">
        <ele>802</ele>
        <time>2021-08-12T08:54:47Z</time>
      </trkpt>
      <trkpt lat="47.29351" lon="6.84716">
        <ele>802</ele>
        <time>2021-08-12T08:54:48Z</time>
      </trkpt>
      <trkpt lat="47.29351" lon="6.84716">
        <ele>802</ele>
        <time>2021-08-12T08:54:50Z</time>
      </trkpt>
      <trkpt lat="47.29351" lon="6.84716">
        <ele>802</ele>
        <time>2021-08-12T08:54:51Z</time>
      </trkpt>
      <trkpt lat="47.29351" lon="6.84716">
        <ele>802</ele>
        <time>2021-08-12T08:54:53Z</time>
      </trkpt>
      <trkpt lat="47.29351" lon="6.84716">
        <ele>802</ele>
        <time>2021-08-12T08:54:55Z</time>
      </trkpt>
      <trkpt lat="47.29351" lon="6.84716">
        <ele>802</ele>
        <time>2021-08-12T08:54:56Z</time>
      </trkpt>
      <trkpt lat="47.29351" lon="6.84716">
        <ele>802</ele>
        <time>2021-08-12T08:54:58Z</time>
      </trkpt>
      <trkpt lat="47.29351" lon="6.84716">
        <ele>802</ele>
        <time>2021-08-12T08:54:59Z</time>
      </trkpt>
      <trkpt lat="47.29351" lon="6.84716">
        <ele>802</ele>
        <time>2021-08-12T08:55:01Z</time>
      </trkpt>
      <trkpt lat="47.29351" lon="6.84716">
        <ele>802</ele>
        <time>2021-08-12T08:55:03Z</time>
      </trkpt>
      <trkpt lat="47.29351" lon="6.84716">
        <ele>802</ele>
        <time>2021-08-12T08:55:04Z</time>
      </trkpt>
      <trkpt lat="47.29351" lon="6.84716">
        <ele>802</ele>
        <time>2021-08-12T08:55:06Z</time>
      </trkpt>
      <trkpt lat="47.29351" lon="6.84716">
        <ele>802</ele>
        <time>2021-08-12T08:55:07Z</time>
      </trkpt>
      <trkpt lat="47.29351" lon="6.84716">
        <ele>802</ele>
        <time>2021-08-12T08:55:09Z</time>
      </trkpt>
      <trkpt lat="47.29351" lon="6.84716">
        <ele>802</ele>
        <time>2021-08-12T08:55:10Z</time>
      </trkpt>
      <trkpt lat="47.29351" lon="6.84716">
        <ele>802</ele>
        <time>2021-08-12T08:55:12Z</time>
      </trkpt>
      <trkpt lat="47.29351" lon="6.84716">
        <ele>802</ele>
        <time>2021-08-12T08:55:13Z</time>
      </trkpt>
      <trkpt lat="47.29351" lon="6.84716">
        <ele>802</ele>
        <time>2021-08-12T08:55:14Z</time>
      </trkpt>
      <trkpt lat="47.29351" lon="6.84716">
        <ele>802</ele>
        <time>2021-08-12T08:55:15Z</time>
      </trkpt>
      <trkpt lat="47.29351" lon="6.84716">
        <ele>802</ele>
        <time>2021-08-12T08:55:16Z</time>
      </trkpt>
      <trkpt lat="47.29351" lon="6.84716">
        <ele>802</ele>
        <time>2021-08-12T08:55:18Z</time>
      </trkpt>
      <trkpt lat="47.29351" lon="6.84716">
        <ele>802</ele>
        <time>2021-08-12T08:55:20Z</time>
      </trkpt>
      <trkpt lat="47.29351" lon="6.84716">
        <ele>802</ele>
        <time>2021-08-12T08:55:21Z</time>
      </trkpt>
      <trkpt lat="47.29351" lon="6.84716">
        <ele>802</ele>
        <time>2021-08-12T08:55:22Z</time>
      </trkpt>
      <trkpt lat="47.29351" lon="6.84716">
        <ele>802</ele>
        <time>2021-08-12T08:55:24Z</time>
      </trkpt>
      <trkpt lat="47.29351" lon="6.84716">
        <ele>802</ele>
        <time>2021-08-12T08:55:25Z</time>
      </trkpt>
      <trkpt lat="47.29351" lon="6.84715">
        <ele>802.1</ele>
        <time>2021-08-12T08:55:27Z</time>
      </trkpt>
      <trkpt lat="47.2935" lon="6.84714">
        <ele>802.2</ele>
        <time>2021-08-12T08:55:28Z</time>
      </trkpt>
      <trkpt lat="47.29348" lon="6.84711">
        <ele>802.5</ele>
        <time>2021-08-12T08:55:31Z</time>
      </trkpt>
      <trkpt lat="47.29347" lon="6.8471">
        <ele>802.7</ele>
        <time>2021-08-12T08:55:33Z</time>
      </trkpt>
      <trkpt lat="47.29347" lon="6.84709">
        <ele>802.8</ele>
        <time>2021-08-12T08:55:34Z</time>
      </trkpt>
      <trkpt lat="47.29346" lon="6.84708">
        <ele>802.9</ele>
        <time>2021-08-12T08:55:36Z</time>
      </trkpt>
      <trkpt lat="47.29346" lon="6.84707">
        <ele>802.9</ele>
        <time>2021-08-12T08:55:37Z</time>
      </trkpt>
      <trkpt lat="47.29346" lon="6.84707">
        <ele>803</ele>
        <time>2021-08-12T08:55:39Z</time>
      </trkpt>
      <trkpt lat="47.29345" lon="6.84706">
        <ele>803</ele>
        <time>2021-08-12T08:55:41Z</time>
      </trkpt>
      <trkpt lat="47.29345" lon="6.84706">
        <ele>803.1</ele>
        <time>2021-08-12T08:55:42Z</time>
      </trkpt>
      <trkpt lat="47.29345" lon="6.84706">
        <ele>803.1</ele>
        <time>2021-08-12T08:55:44Z</time>
      </trkpt>
      <trkpt lat="47.29345" lon="6.84706">
        <ele>803.1</ele>
        <time>2021-08-12T08:55:46Z</time>
      </trkpt>
      <trkpt lat="47.29345" lon="6.84706">
        <ele>803.1</ele>
        <time>2021-08-12T08:55:47Z</time>
      </trkpt>
      <trkpt lat="47.29345" lon="6.84705">
        <ele>803.1</ele>
        <time>2021-08-12T08:55:48Z</time>
      </trkpt>
      <trkpt lat="47.29345" lon="6.84705">
        <ele>803.2</ele>
        <time>2021-08-12T08:55:49Z</time>
      </trkpt>
      <trkpt lat="47.29345" lon="6.84705">
        <ele>803.2</ele>
        <time>2021-08-12T08:55:50Z</time>
      </trkpt>
      <trkpt lat="47.29345" lon="6.84705">
        <ele>803.2</ele>
        <time>2021-08-12T08:55:52Z</time>
      </trkpt>
      <trkpt lat="47.29345" lon="6.84705">
        <ele>803.2</ele>
        <time>2021-08-12T08:55:53Z</time>
      </trkpt>
      <trkpt lat="47.29345" lon="6.84705">
        <ele>803.2</ele>
        <time>2021-08-12T08:55:55Z</time>
      </trkpt>
      <trkpt lat="47.29345" lon="6.84705">
        <ele>803.2</ele>
        <time>2021-08-12T08:55:56Z</time>
      </trkpt>
      <trkpt lat="47.29345" lon="6.84705">
        <ele>803.2</ele>
        <time>2021-08-12T08:55:58Z</time>
      </trkpt>
      <trkpt lat="47.29345" lon="6.84705">
        <ele>803.2</ele>
        <time>2021-08-12T08:55:59Z</time>
      </trkpt>
      <trkpt lat="47.29345" lon="6.84705">
        <ele>803.2</ele>
        <time>2021-08-12T08:56:01Z</time>
      </trkpt>
      <trkpt lat="47.29345" lon="6.84705">
        <ele>803.2</ele>
        <time>2021-08-12T08:56:02Z</time>
      </trkpt>
      <trkpt lat="47.29345" lon="6.84705">
        <ele>803.2</ele>
        <time>2021-08-12T08:56:04Z</time>
      </trkpt>
      <trkpt lat="47.29345" lon="6.84705">
        <ele>803.2</ele>
        <time>2021-08-12T08:56:06Z</time>
      </trkpt>
      <trkpt lat="47.29345" lon="6.84705">
        <ele>803.2</ele>
        <time>2021-08-12T08:56:08Z</time>
      </trkpt>
      <trkpt lat="47.29345" lon="6.84705">
        <ele>803.2</ele>
        <time>2021-08-12T08:56:09Z</time>
      </trkpt>
      <trkpt lat="47.29345" lon="6.84705">
        <ele>803.3</ele>
        <time>2021-08-12T08:56:11Z</time>
      </trkpt>
      <trkpt lat="47.29345" lon="6.84705">
        <ele>803.3</ele>
        <time>2021-08-12T08:56:12Z</time>
      </trkpt>
      <trkpt lat="47.29344" lon="6.84705">
        <ele>803.4</ele>
        <time>2021-08-12T08:56:14Z</time>
      </trkpt>
      <trkpt lat="47.29342" lon="6.84705">
        <ele>803.6</ele>
        <time>2021-08-12T08:56:15Z</time>
      </trkpt>
      <trkpt lat="47.29341" lon="6.84706">
        <ele>803.8</ele>
        <time>2021-08-12T08:56:17Z</time>
      </trkpt>
      <trkpt lat="47.29339" lon="6.84706">
        <ele>804</ele>
        <time>2021-08-12T08:56:20Z</time>
      </trkpt>
      <trkpt lat="47.29339" lon="6.84706">
        <ele>804.1</ele>
        <time>2021-08-12T08:56:21Z</time>
      </trkpt>
      <trkpt lat="47.29338" lon="6.84706">
        <ele>804.1</ele>
        <time>2021-08-12T08:56:23Z</time>
      </trkpt>
      <trkpt lat="47.29338" lon="6.84706">
        <ele>804.1</ele>
        <time>2021-08-12T08:56:24Z</time>
      </trkpt>
      <trkpt lat="47.29338" lon="6.84707">
        <ele>804.2</ele>
        <time>2021-08-12T08:56:26Z</time>
      </trkpt>
      <trkpt lat="47.29338" lon="6.84707">
        <ele>804.2</ele>
        <time>2021-08-12T08:56:27Z</time>
      </trkpt>
      <trkpt lat="47.29338" lon="6.84707">
        <ele>804.3</ele>
        <time>2021-08-12T08:56:28Z</time>
      </trkpt>
      <trkpt lat="47.29338" lon="6.84706">
        <ele>804.3</ele>
        <time>2021-08-12T08:56:29Z</time>
      </trkpt>
      <trkpt lat="47.29339" lon="6.84706">
        <ele>804.4</ele>
        <time>2021-08-12T08:56:31Z</time>
      </trkpt>
      <trkpt lat="47.2934" lon="6.84706">
        <ele>804.5</ele>
        <time>2021-08-12T08:56:32Z</time>
      </trkpt>
      <trkpt lat="47.2934" lon="6.84706">
        <ele>804.5</ele>
        <time>2021-08-12T08:56:34Z</time>
      </trkpt>
      <trkpt lat="47.2934" lon="6.84706">
        <ele>804.6</ele>
        <time>2021-08-12T08:56:35Z</time>
      </trkpt>
      <trkpt lat="47.29341" lon="6.84706">
        <ele>804.6</ele>
        <time>2021-08-12T08:56:36Z</time>
      </trkpt>
      <trkpt lat="47.29341" lon="6.84706">
        <ele>804.6</ele>
        <time>2021-08-12T08:56:38Z</time>
      </trkpt>
      <trkpt lat="47.2934" lon="6.84706">
        <ele>804.8</ele>
        <time>2021-08-12T08:56:39Z</time>
      </trkpt>
      <trkpt lat="47.29337" lon="6.84706">
        <ele>805.2</ele>
        <time>2021-08-12T08:56:41Z</time>
      </trkpt>
      <trkpt lat="47.29335" lon="6.84707">
        <ele>805.5</ele>
        <time>2021-08-12T08:56:42Z</time>
      </trkpt>
      <trkpt lat="47.29334" lon="6.84707">
        <ele>805.6</ele>
        <time>2021-08-12T08:56:43Z</time>
      </trkpt>
      <trkpt lat="47.29332" lon="6.84707">
        <ele>805.8</ele>
        <time>2021-08-12T08:56:44Z</time>
      </trkpt>
      <trkpt lat="47.29331" lon="6.84706">
        <ele>806</ele>
        <time>2021-08-12T08:56:46Z</time>
      </trkpt>
      <trkpt lat="47.2933" lon="6.84706">
        <ele>806.1</ele>
        <time>2021-08-12T08:56:47Z</time>
      </trkpt>
      <trkpt lat="47.2933" lon="6.84706">
        <ele>806.2</ele>
        <time>2021-08-12T08:56:48Z</time>
      </trkpt>
      <trkpt lat="47.29329" lon="6.84705">
        <ele>806.3</ele>
        <time>2021-08-12T08:56:50Z</time>
      </trkpt>
      <trkpt lat="47.29329" lon="6.84705">
        <ele>806.4</ele>
        <time>2021-08-12T08:56:52Z</time>
      </trkpt>
      <trkpt lat="47.29329" lon="6.84705">
        <ele>806.4</ele>
        <time>2021-08-12T08:56:53Z</time>
      </trkpt>
      <trkpt lat="47.29328" lon="6.84704">
        <ele>806.4</ele>
        <time>2021-08-12T08:56:54Z</time>
      </trkpt>
      <trkpt lat="47.29328" lon="6.84704">
        <ele>806.4</ele>
        <time>2021-08-12T08:56:56Z</time>
      </trkpt>
      <trkpt lat="47.29328" lon="6.84704">
        <ele>806.5</ele>
        <time>2021-08-12T08:56:57Z</time>
      </trkpt>
      <trkpt lat="47.29328" lon="6.84704">
        <ele>806.5</ele>
        <time>2021-08-12T08:56:59Z</time>
      </trkpt>
      <trkpt lat="47.29328" lon="6.84704">
        <ele>806.5</ele>
        <time>2021-08-12T08:57:00Z</time>
      </trkpt>
      <trkpt lat="47.29328" lon="6.84704">
        <ele>806.5</ele>
        <time>2021-08-12T08:57:01Z</time>
      </trkpt>
      <trkpt lat="47.29328" lon="6.84704">
        <ele>806.5</ele>
        <time>2021-08-12T08:57:03Z</time>
      </trkpt>
      <trkpt lat="47.29328" lon="6.84704">
        <ele>806.5</ele>
        <time>2021-08-12T08:57:04Z</time>
      </trkpt>
      <trkpt lat="47.29328" lon="6.84704">
        <ele>806.6</ele>
        <time>2021-08-12T08:57:05Z</time>
      </trkpt>
      <trkpt lat="47.29325" lon="6.84706">
        <ele>806.9</ele>
        <time>2021-08-12T08:57:06Z</time>
      </trkpt>
      <trkpt lat="47.2931" lon="6.84715">
        <ele>809.2</ele>
        <time>2021-08-12T08:57:08Z</time>
      </trkpt>
      <trkpt lat="47.29307" lon="6.84717">
        <ele>809.7</ele>
        <time>2021-08-12T08:57:09Z</time>
      </trkpt>
      <trkpt lat="47.29306" lon="6.84718">
        <ele>809.8</ele>
        <time>2021-08-12T08:57:11Z</time>
      </trkpt>
      <trkpt lat="47.29306" lon="6.84718">
        <ele>809.8</ele>
        <time>2021-08-12T08:57:12Z</time>
      </trkpt>
      <trkpt lat="47.29306" lon="6.84718">
        <ele>809.9</ele>
        <time>2021-08-12T08:57:13Z</time>
      </trkpt>
      <trkpt lat="47.29306" lon="6.84719">
        <ele>809.9</ele>
        <time>2021-08-12T08:57:15Z</time>
      </trkpt>
      <trkpt lat="47.29306" lon="6.84719">
        <ele>809.9</ele>
        <time>2021-08-12T08:57:16Z</time>
      </trkpt>
      <trkpt lat="47.29306" lon="6.84719">
        <ele>809.9</ele>
        <time>2021-08-12T08:57:17Z</time>
      </trkpt>
      <trkpt lat="47.29305" lon="6.84719">
        <ele>809.9</ele>
        <time>2021-08-12T08:57:18Z</time>
      </trkpt>
      <trkpt lat="47.29305" lon="6.84719">
        <ele>810</ele>
        <time>2021-08-12T08:57:20Z</time>
      </trkpt>
      <trkpt lat="47.29305" lon="6.84719">
        <ele>810</ele>
        <time>2021-08-12T08:57:21Z</time>
      </trkpt>
      <trkpt lat="47.29305" lon="6.84719">
        <ele>810</ele>
        <time>2021-08-12T08:57:23Z</time>
      </trkpt>
      <trkpt lat="47.29305" lon="6.84719">
        <ele>810</ele>
        <time>2021-08-12T08:57:24Z</time>
      </trkpt>
      <trkpt lat="47.29305" lon="6.84719">
        <ele>810</ele>
        <time>2021-08-12T08:57:26Z</time>
      </trkpt>
      <trkpt lat="47.29305" lon="6.8472">
        <ele>810</ele>
        <time>2021-08-12T08:57:27Z</time>
      </trkpt>
      <trkpt lat="47.29304" lon="6.8472">
        <ele>810.1</ele>
        <time>2021-08-12T08:57:28Z</time>
      </trkpt>
      <trkpt lat="47.29302" lon="6.84721">
        <ele>810.5</ele>
        <time>2021-08-12T08:57:30Z</time>
      </trkpt>
      <trkpt lat="47.29301" lon="6.84722">
        <ele>810.6</ele>
        <time>2021-08-12T08:57:31Z</time>
      </trkpt>
      <trkpt lat="47.29299" lon="6.84722">
        <ele>810.8</ele>
        <time>2021-08-12T08:57:33Z</time>
      </trkpt>
      <trkpt lat="47.29299" lon="6.84723">
        <ele>810.9</ele>
        <time>2021-08-12T08:57:34Z</time>
      </trkpt>
      <trkpt lat="47.29298" lon="6.84724">
        <ele>811</ele>
        <time>2021-08-12T08:57:35Z</time>
      </trkpt>
      <trkpt lat="47.29298" lon="6.84724">
        <ele>811.1</ele>
        <time>2021-08-12T08:57:36Z</time>
      </trkpt>
      <trkpt lat="47.29297" lon="6.84725">
        <ele>811.2</ele>
        <time>2021-08-12T08:57:38Z</time>
      </trkpt>
      <trkpt lat="47.29296" lon="6.84725">
        <ele>811.3</ele>
        <time>2021-08-12T08:57:40Z</time>
      </trkpt>
      <trkpt lat="47.29296" lon="6.84725">
        <ele>811.3</ele>
        <time>2021-08-12T08:57:42Z</time>
      </trkpt>
      <trkpt lat="47.29296" lon="6.84726">
        <ele>811.4</ele>
        <time>2021-08-12T08:57:44Z</time>
      </trkpt>
      <trkpt lat="47.29295" lon="6.84727">
        <ele>811.6</ele>
        <time>2021-08-12T08:57:45Z</time>
      </trkpt>
      <trkpt lat="47.29293" lon="6.84728">
        <ele>811.7</ele>
        <time>2021-08-12T08:57:46Z</time>
      </trkpt>
      <trkpt lat="47.29293" lon="6.84729">
        <ele>811.9</ele>
        <time>2021-08-12T08:57:47Z</time>
      </trkpt>
      <trkpt lat="47.29291" lon="6.8473">
        <ele>812.1</ele>
        <time>2021-08-12T08:57:49Z</time>
      </trkpt>
      <trkpt lat="47.2929" lon="6.8473">
        <ele>812.2</ele>
        <time>2021-08-12T08:57:50Z</time>
      </trkpt>
      <trkpt lat="47.29289" lon="6.84731">
        <ele>812.4</ele>
        <time>2021-08-12T08:57:52Z</time>
      </trkpt>
      <trkpt lat="47.29288" lon="6.84732">
        <ele>812.5</ele>
        <time>2021-08-12T08:57:53Z</time>
      </trkpt>
      <trkpt lat="47.29288" lon="6.84732">
        <ele>812.6</ele>
        <time>2021-08-12T08:57:54Z</time>
      </trkpt>
      <trkpt lat="47.29287" lon="6.84733">
        <ele>812.7</ele>
        <time>2021-08-12T08:57:56Z</time>
      </trkpt>
      <trkpt lat="47.29286" lon="6.84733">
        <ele>812.8</ele>
        <time>2021-08-12T08:57:57Z</time>
      </trkpt>
      <trkpt lat="47.29285" lon="6.84734">
        <ele>813</ele>
        <time>2021-08-12T08:57:58Z</time>
      </trkpt>
      <trkpt lat="47.29283" lon="6.84735">
        <ele>813.1</ele>
        <time>2021-08-12T08:57:59Z</time>
      </trkpt>
      <trkpt lat="47.29282" lon="6.84735">
        <ele>813.3</ele>
        <time>2021-08-12T08:58:00Z</time>
      </trkpt>
      <trkpt lat="47.29281" lon="6.84736">
        <ele>813.4</ele>
        <time>2021-08-12T08:58:02Z</time>
      </trkpt>
      <trkpt lat="47.2928" lon="6.84736">
        <ele>813.6</ele>
        <time>2021-08-12T08:58:03Z</time>
      </trkpt>
      <trkpt lat="47.29279" lon="6.84737">
        <ele>813.7</ele>
        <time>2021-08-12T08:58:05Z</time>
      </trkpt>
      <trkpt lat="47.29279" lon="6.84737">
        <ele>813.8</ele>
        <time>2021-08-12T08:58:06Z</time>
      </trkpt>
      <trkpt lat="47.29278" lon="6.84739">
        <ele>813.9</ele>
        <time>2021-08-12T08:58:08Z</time>
      </trkpt>
      <trkpt lat="47.29277" lon="6.8474">
        <ele>814.1</ele>
        <time>2021-08-12T08:58:09Z</time>
      </trkpt>
      <trkpt lat="47.29276" lon="6.84742">
        <ele>814.3</ele>
        <time>2021-08-12T08:58:10Z</time>
      </trkpt>
      <trkpt lat="47.29276" lon="6.84743">
        <ele>814.4</ele>
        <time>2021-08-12T08:58:11Z</time>
      </trkpt>
      <trkpt lat="47.29275" lon="6.84745">
        <ele>814.6</ele>
        <time>2021-08-12T08:58:13Z</time>
      </trkpt>
      <trkpt lat="47.29274" lon="6.84748">
        <ele>814.8</ele>
        <time>2021-08-12T08:58:15Z</time>
      </trkpt>
      <trkpt lat="47.29274" lon="6.84749">
        <ele>814.9</ele>
        <time>2021-08-12T08:58:16Z</time>
      </trkpt>
      <trkpt lat="47.29274" lon="6.8475">
        <ele>815</ele>
        <time>2021-08-12T08:58:17Z</time>
      </trkpt>
      <trkpt lat="47.29273" lon="6.84751">
        <ele>815.1</ele>
        <time>2021-08-12T08:58:18Z</time>
      </trkpt>
      <trkpt lat="47.29272" lon="6.84754">
        <ele>815.2</ele>
        <time>2021-08-12T08:58:20Z</time>
      </trkpt>
      <trkpt lat="47.29272" lon="6.84756">
        <ele>815.4</ele>
        <time>2021-08-12T08:58:22Z</time>
      </trkpt>
      <trkpt lat="47.29272" lon="6.84756">
        <ele>815.5</ele>
        <time>2021-08-12T08:58:23Z</time>
      </trkpt>
      <trkpt lat="47.29272" lon="6.84757">
        <ele>815.5</ele>
        <time>2021-08-12T08:58:24Z</time>
      </trkpt>
      <trkpt lat="47.29272" lon="6.84758">
        <ele>815.6</ele>
        <time>2021-08-12T08:58:26Z</time>
      </trkpt>
      <trkpt lat="47.29273" lon="6.84759">
        <ele>815.7</ele>
        <time>2021-08-12T08:58:28Z</time>
      </trkpt>
      <trkpt lat="47.29273" lon="6.8476">
        <ele>815.7</ele>
        <time>2021-08-12T08:58:29Z</time>
      </trkpt>
      <trkpt lat="47.29273" lon="6.8476">
        <ele>815.7</ele>
        <time>2021-08-12T08:58:30Z</time>
      </trkpt>
      <trkpt lat="47.29273" lon="6.84761">
        <ele>815.8</ele>
        <time>2021-08-12T08:58:32Z</time>
      </trkpt>
      <trkpt lat="47.29273" lon="6.84761">
        <ele>815.8</ele>
        <time>2021-08-12T08:58:33Z</time>
      </trkpt>
      <trkpt lat="47.29273" lon="6.84761">
        <ele>815.8</ele>
        <time>2021-08-12T08:58:35Z</time>
      </trkpt>
      <trkpt lat="47.29273" lon="6.84761">
        <ele>815.9</ele>
        <time>2021-08-12T08:58:36Z</time>
      </trkpt>
      <trkpt lat="47.29273" lon="6.84762">
        <ele>815.9</ele>
        <time>2021-08-12T08:58:37Z</time>
      </trkpt>
      <trkpt lat="47.29273" lon="6.84762">
        <ele>815.9</ele>
        <time>2021-08-12T08:58:39Z</time>
      </trkpt>
      <trkpt lat="47.29273" lon="6.84762">
        <ele>815.9</ele>
        <time>2021-08-12T08:58:40Z</time>
      </trkpt>
      <trkpt lat="47.29273" lon="6.84762">
        <ele>815.9</ele>
        <time>2021-08-12T08:58:41Z</time>
      </trkpt>
      <trkpt lat="47.29273" lon="6.84762">
        <ele>815.9</ele>
        <time>2021-08-12T08:58:42Z</time>
      </trkpt>
      <trkpt lat="47.29273" lon="6.84763">
        <ele>816</ele>
        <time>2021-08-12T08:58:44Z</time>
      </trkpt>
      <trkpt lat="47.29272" lon="6.84764">
        <ele>816.1</ele>
        <time>2021-08-12T08:58:45Z</time>
      </trkpt>
      <trkpt lat="47.2927" lon="6.84766">
        <ele>816.3</ele>
        <time>2021-08-12T08:58:47Z</time>
      </trkpt>
      <trkpt lat="47.2927" lon="6.84766">
        <ele>816.4</ele>
        <time>2021-08-12T08:58:48Z</time>
      </trkpt>
      <trkpt lat="47.29269" lon="6.84768">
        <ele>816.6</ele>
        <time>2021-08-12T08:58:50Z</time>
      </trkpt>
      <trkpt lat="47.29269" lon="6.84768">
        <ele>816.6</ele>
        <time>2021-08-12T08:58:51Z</time>
      </trkpt>
      <trkpt lat="47.29268" lon="6.84769">
        <ele>816.7</ele>
        <time>2021-08-12T08:58:53Z</time>
      </trkpt>
      <trkpt lat="47.29268" lon="6.84769">
        <ele>816.7</ele>
        <time>2021-08-12T08:58:54Z</time>
      </trkpt>
      <trkpt lat="47.29268" lon="6.8477">
        <ele>816.8</ele>
        <time>2021-08-12T08:58:56Z</time>
      </trkpt>
      <trkpt lat="47.29268" lon="6.8477">
        <ele>816.8</ele>
        <time>2021-08-12T08:58:57Z</time>
      </trkpt>
      <trkpt lat="47.29267" lon="6.84771">
        <ele>816.8</ele>
        <time>2021-08-12T08:58:59Z</time>
      </trkpt>
      <trkpt lat="47.29267" lon="6.84771">
        <ele>816.9</ele>
        <time>2021-08-12T08:59:00Z</time>
      </trkpt>
      <trkpt lat="47.29267" lon="6.84771">
        <ele>816.9</ele>
        <time>2021-08-12T08:59:01Z</time>
      </trkpt>
      <trkpt lat="47.29266" lon="6.84773">
        <ele>817.1</ele>
        <time>2021-08-12T08:59:03Z</time>
      </trkpt>
      <trkpt lat="47.29265" lon="6.84776">
        <ele>817.3</ele>
        <time>2021-08-12T08:59:04Z</time>
      </trkpt>
      <trkpt lat="47.29265" lon="6.84778">
        <ele>817.4</ele>
        <time>2021-08-12T08:59:05Z</time>
      </trkpt>
      <trkpt lat="47.29264" lon="6.8478">
        <ele>817.7</ele>
        <time>2021-08-12T08:59:07Z</time>
      </trkpt>
      <trkpt lat="47.29263" lon="6.84782">
        <ele>817.8</ele>
        <time>2021-08-12T08:59:08Z</time>
      </trkpt>
      <trkpt lat="47.29263" lon="6.84783">
        <ele>817.9</ele>
        <time>2021-08-12T08:59:09Z</time>
      </trkpt>
      <trkpt lat="47.29262" lon="6.84784">
        <ele>818</ele>
        <time>2021-08-12T08:59:11Z</time>
      </trkpt>
      <trkpt lat="47.29262" lon="6.84785">
        <ele>818.1</ele>
        <time>2021-08-12T08:59:12Z</time>
      </trkpt>
      <trkpt lat="47.29262" lon="6.84786">
        <ele>818.2</ele>
        <time>2021-08-12T08:59:14Z</time>
      </trkpt>
      <trkpt lat="47.29261" lon="6.84789">
        <ele>818.4</ele>
        <time>2021-08-12T08:59:15Z</time>
      </trkpt>
      <trkpt lat="47.2926" lon="6.84792">
        <ele>818.7</ele>
        <time>2021-08-12T08:59:17Z</time>
      </trkpt>
      <trkpt lat="47.29259" lon="6.84794">
        <ele>818.9</ele>
        <time>2021-08-12T08:59:18Z</time>
      </trkpt>
      <trkpt lat="47.29258" lon="6.84796">
        <ele>819.1</ele>
        <time>2021-08-12T08:59:20Z</time>
      </trkpt>
      <trkpt lat="47.29257" lon="6.84797">
        <ele>819.2</ele>
        <time>2021-08-12T08:59:21Z</time>
      </trkpt>
      <trkpt lat="47.29257" lon="6.84797">
        <ele>819.2</ele>
        <time>2021-08-12T08:59:23Z</time>
      </trkpt>
      <trkpt lat="47.29257" lon="6.84798">
        <ele>819.2</ele>
        <time>2021-08-12T08:59:24Z</time>
      </trkpt>
      <trkpt lat="47.29257" lon="6.84798">
        <ele>819.3</ele>
        <time>2021-08-12T08:59:26Z</time>
      </trkpt>
      <trkpt lat="47.29257" lon="6.84798">
        <ele>819.3</ele>
        <time>2021-08-12T08:59:27Z</time>
      </trkpt>
      <trkpt lat="47.29257" lon="6.84798">
        <ele>819.3</ele>
        <time>2021-08-12T08:59:29Z</time>
      </trkpt>
      <trkpt lat="47.29257" lon="6.84798">
        <ele>819.3</ele>
        <time>2021-08-12T08:59:30Z</time>
      </trkpt>
      <trkpt lat="47.29257" lon="6.84799">
        <ele>819.3</ele>
        <time>2021-08-12T08:59:32Z</time>
      </trkpt>
      <trkpt lat="47.29257" lon="6.84799">
        <ele>819.3</ele>
        <time>2021-08-12T08:59:34Z</time>
      </trkpt>
      <trkpt lat="47.29257" lon="6.84799">
        <ele>819.4</ele>
        <time>2021-08-12T08:59:35Z</time>
      </trkpt>
      <trkpt lat="47.29257" lon="6.84799">
        <ele>819.4</ele>
        <time>2021-08-12T08:59:36Z</time>
      </trkpt>
      <trkpt lat="47.29256" lon="6.848">
        <ele>819.5</ele>
        <time>2021-08-12T08:59:38Z</time>
      </trkpt>
      <trkpt lat="47.29255" lon="6.84801">
        <ele>819.6</ele>
        <time>2021-08-12T08:59:39Z</time>
      </trkpt>
      <trkpt lat="47.29252" lon="6.84803">
        <ele>819.9</ele>
        <time>2021-08-12T08:59:41Z</time>
      </trkpt>
      <trkpt lat="47.2925" lon="6.84805">
        <ele>820.2</ele>
        <time>2021-08-12T08:59:43Z</time>
      </trkpt>
      <trkpt lat="47.29249" lon="6.84806">
        <ele>820.4</ele>
        <time>2021-08-12T08:59:44Z</time>
      </trkpt>
      <trkpt lat="47.29248" lon="6.84807">
        <ele>820.6</ele>
        <time>2021-08-12T08:59:45Z</time>
      </trkpt>
      <trkpt lat="47.29247" lon="6.84809">
        <ele>820.8</ele>
        <time>2021-08-12T08:59:47Z</time>
      </trkpt>
      <trkpt lat="47.29246" lon="6.8481">
        <ele>821</ele>
        <time>2021-08-12T08:59:48Z</time>
      </trkpt>
      <trkpt lat="47.29245" lon="6.84811">
        <ele>821.1</ele>
        <time>2021-08-12T08:59:49Z</time>
      </trkpt>
      <trkpt lat="47.29243" lon="6.84812">
        <ele>821.4</ele>
        <time>2021-08-12T08:59:51Z</time>
      </trkpt>
      <trkpt lat="47.29241" lon="6.84814">
        <ele>821.6</ele>
        <time>2021-08-12T08:59:53Z</time>
      </trkpt>
      <trkpt lat="47.29241" lon="6.84814">
        <ele>821.7</ele>
        <time>2021-08-12T08:59:54Z</time>
      </trkpt>
      <trkpt lat="47.29241" lon="6.84815">
        <ele>821.8</ele>
        <time>2021-08-12T08:59:56Z</time>
      </trkpt>
      <trkpt lat="47.2924" lon="6.84815">
        <ele>821.8</ele>
        <time>2021-08-12T08:59:57Z</time>
      </trkpt>
      <trkpt lat="47.2924" lon="6.84816">
        <ele>821.9</ele>
        <time>2021-08-12T08:59:58Z</time>
      </trkpt>
      <trkpt lat="47.2924" lon="6.84817">
        <ele>821.9</ele>
        <time>2021-08-12T08:59:59Z</time>
      </trkpt>
      <trkpt lat="47.29239" lon="6.84817">
        <ele>822</ele>
        <time>2021-08-12T09:00:01Z</time>
      </trkpt>
      <trkpt lat="47.29239" lon="6.84818">
        <ele>822.1</ele>
        <time>2021-08-12T09:00:02Z</time>
      </trkpt>
      <trkpt lat="47.29239" lon="6.84818">
        <ele>822.1</ele>
        <time>2021-08-12T09:00:03Z</time>
      </trkpt>
      <trkpt lat="47.29239" lon="6.84819">
        <ele>822.2</ele>
        <time>2021-08-12T09:00:05Z</time>
      </trkpt>
      <trkpt lat="47.29238" lon="6.84819">
        <ele>822.3</ele>
        <time>2021-08-12T09:00:06Z</time>
      </trkpt>
      <trkpt lat="47.29238" lon="6.8482">
        <ele>822.3</ele>
        <time>2021-08-12T09:00:07Z</time>
      </trkpt>
      <trkpt lat="47.29237" lon="6.84822">
        <ele>822.5</ele>
        <time>2021-08-12T09:00:08Z</time>
      </trkpt>
      <trkpt lat="47.29237" lon="6.84825">
        <ele>822.8</ele>
        <time>2021-08-12T09:00:10Z</time>
      </trkpt>
      <trkpt lat="47.29236" lon="6.84826">
        <ele>822.9</ele>
        <time>2021-08-12T09:00:11Z</time>
      </trkpt>
      <trkpt lat="47.29236" lon="6.84828">
        <ele>823.1</ele>
        <time>2021-08-12T09:00:13Z</time>
      </trkpt>
      <trkpt lat="47.29236" lon="6.84829">
        <ele>823.1</ele>
        <time>2021-08-12T09:00:14Z</time>
      </trkpt>
      <trkpt lat="47.29236" lon="6.84829">
        <ele>823.2</ele>
        <time>2021-08-12T09:00:15Z</time>
      </trkpt>
      <trkpt lat="47.29236" lon="6.8483">
        <ele>823.3</ele>
        <time>2021-08-12T09:00:17Z</time>
      </trkpt>
      <trkpt lat="47.29236" lon="6.84832">
        <ele>823.4</ele>
        <time>2021-08-12T09:00:18Z</time>
      </trkpt>
      <trkpt lat="47.29236" lon="6.84834">
        <ele>823.6</ele>
        <time>2021-08-12T09:00:19Z</time>
      </trkpt>
      <trkpt lat="47.29235" lon="6.84835">
        <ele>823.8</ele>
        <time>2021-08-12T09:00:20Z</time>
      </trkpt>
      <trkpt lat="47.29235" lon="6.84837">
        <ele>823.9</ele>
        <time>2021-08-12T09:00:21Z</time>
      </trkpt>
      <trkpt lat="47.29235" lon="6.84839">
        <ele>824.1</ele>
        <time>2021-08-12T09:00:23Z</time>
      </trkpt>
      <trkpt lat="47.29235" lon="6.8484">
        <ele>824.2</ele>
        <time>2021-08-12T09:00:24Z</time>
      </trkpt>
      <trkpt lat="47.29235" lon="6.84842">
        <ele>824.3</ele>
        <time>2021-08-12T09:00:26Z</time>
      </trkpt>
      <trkpt lat="47.29234" lon="6.84843">
        <ele>824.5</ele>
        <time>2021-08-12T09:00:28Z</time>
      </trkpt>
      <trkpt lat="47.29233" lon="6.84844">
        <ele>824.6</ele>
        <time>2021-08-12T09:00:29Z</time>
      </trkpt>
      <trkpt lat="47.29232" lon="6.84846">
        <ele>824.9</ele>
        <time>2021-08-12T09:00:31Z</time>
      </trkpt>
      <trkpt lat="47.2923" lon="6.84847">
        <ele>825.1</ele>
        <time>2021-08-12T09:00:32Z</time>
      </trkpt>
      <trkpt lat="47.29228" lon="6.84848">
        <ele>825.3</ele>
        <time>2021-08-12T09:00:34Z</time>
      </trkpt>
      <trkpt lat="47.29227" lon="6.84849">
        <ele>825.5</ele>
        <time>2021-08-12T09:00:35Z</time>
      </trkpt>
      <trkpt lat="47.29225" lon="6.84849">
        <ele>825.7</ele>
        <time>2021-08-12T09:00:36Z</time>
      </trkpt>
      <trkpt lat="47.29224" lon="6.8485">
        <ele>825.9</ele>
        <time>2021-08-12T09:00:38Z</time>
      </trkpt>
      <trkpt lat="47.29223" lon="6.8485">
        <ele>826</ele>
        <time>2021-08-12T09:00:39Z</time>
      </trkpt>
      <trkpt lat="47.29222" lon="6.8485">
        <ele>826</ele>
        <time>2021-08-12T09:00:41Z</time>
      </trkpt>
      <trkpt lat="47.29222" lon="6.8485">
        <ele>826.1</ele>
        <time>2021-08-12T09:00:42Z</time>
      </trkpt>
      <trkpt lat="47.29221" lon="6.84851">
        <ele>826.2</ele>
        <time>2021-08-12T09:00:44Z</time>
      </trkpt>
      <trkpt lat="47.29221" lon="6.84851">
        <ele>826.2</ele>
        <time>2021-08-12T09:00:45Z</time>
      </trkpt>
      <trkpt lat="47.29221" lon="6.84851">
        <ele>826.3</ele>
        <time>2021-08-12T09:00:47Z</time>
      </trkpt>
      <trkpt lat="47.29221" lon="6.84851">
        <ele>826.3</ele>
        <time>2021-08-12T09:00:48Z</time>
      </trkpt>
      <trkpt lat="47.29219" lon="6.84852">
        <ele>826.4</ele>
        <time>2021-08-12T09:00:50Z</time>
      </trkpt>
      <trkpt lat="47.29218" lon="6.84854">
        <ele>826.7</ele>
        <time>2021-08-12T09:00:52Z</time>
      </trkpt>
      <trkpt lat="47.29216" lon="6.84855">
        <ele>826.9</ele>
        <time>2021-08-12T09:00:53Z</time>
      </trkpt>
      <trkpt lat="47.29215" lon="6.84856">
        <ele>827.1</ele>
        <time>2021-08-12T09:00:55Z</time>
      </trkpt>
      <trkpt lat="47.29213" lon="6.8486">
        <ele>827.4</ele>
        <time>2021-08-12T09:00:57Z</time>
      </trkpt>
      <trkpt lat="47.29211" lon="6.84864">
        <ele>827.7</ele>
        <time>2021-08-12T09:00:58Z</time>
      </trkpt>
      <trkpt lat="47.29211" lon="6.84865">
        <ele>827.8</ele>
        <time>2021-08-12T09:00:59Z</time>
      </trkpt>
      <trkpt lat="47.29211" lon="6.84867">
        <ele>828</ele>
        <time>2021-08-12T09:01:01Z</time>
      </trkpt>
      <trkpt lat="47.2921" lon="6.84869">
        <ele>828.2</ele>
        <time>2021-08-12T09:01:02Z</time>
      </trkpt>
      <trkpt lat="47.2921" lon="6.84871">
        <ele>828.3</ele>
        <time>2021-08-12T09:01:04Z</time>
      </trkpt>
      <trkpt lat="47.2921" lon="6.84872">
        <ele>828.4</ele>
        <time>2021-08-12T09:01:05Z</time>
      </trkpt>
      <trkpt lat="47.2921" lon="6.84873">
        <ele>828.4</ele>
        <time>2021-08-12T09:01:06Z</time>
      </trkpt>
      <trkpt lat="47.2921" lon="6.84874">
        <ele>828.5</ele>
        <time>2021-08-12T09:01:08Z</time>
      </trkpt>
      <trkpt lat="47.2921" lon="6.84874">
        <ele>828.5</ele>
        <time>2021-08-12T09:01:09Z</time>
      </trkpt>
      <trkpt lat="47.2921" lon="6.84874">
        <ele>828.5</ele>
        <time>2021-08-12T09:01:10Z</time>
      </trkpt>
      <trkpt lat="47.2921" lon="6.84875">
        <ele>828.6</ele>
        <time>2021-08-12T09:01:11Z</time>
      </trkpt>
      <trkpt lat="47.2921" lon="6.84875">
        <ele>828.6</ele>
        <time>2021-08-12T09:01:13Z</time>
      </trkpt>
      <trkpt lat="47.2921" lon="6.84875">
        <ele>828.6</ele>
        <time>2021-08-12T09:01:14Z</time>
      </trkpt>
      <trkpt lat="47.2921" lon="6.84875">
        <ele>828.6</ele>
        <time>2021-08-12T09:01:15Z</time>
      </trkpt>
      <trkpt lat="47.29209" lon="6.84877">
        <ele>828.8</ele>
        <time>2021-08-12T09:01:17Z</time>
      </trkpt>
      <trkpt lat="47.29208" lon="6.84879">
        <ele>829</ele>
        <time>2021-08-12T09:01:18Z</time>
      </trkpt>
      <trkpt lat="47.29206" lon="6.8488">
        <ele>829.2</ele>
        <time>2021-08-12T09:01:20Z</time>
      </trkpt>
      <trkpt lat="47.29204" lon="6.84881">
        <ele>829.3</ele>
        <time>2021-08-12T09:01:21Z</time>
      </trkpt>
      <trkpt lat="47.29204" lon="6.84882">
        <ele>829.4</ele>
        <time>2021-08-12T09:01:22Z</time>
      </trkpt>
      <trkpt lat="47.29202" lon="6.84883">
        <ele>829.6</ele>
        <time>2021-08-12T09:01:24Z</time>
      </trkpt>
      <trkpt lat="47.292" lon="6.84883">
        <ele>829.8</ele>
        <time>2021-08-12T09:01:25Z</time>
      </trkpt>
      <trkpt lat="47.29197" lon="6.84883">
        <ele>830</ele>
        <time>2021-08-12T09:01:27Z</time>
      </trkpt>
      <trkpt lat="47.29195" lon="6.84883">
        <ele>830.2</ele>
        <time>2021-08-12T09:01:28Z</time>
      </trkpt>
      <trkpt lat="47.29193" lon="6.84884">
        <ele>830.4</ele>
        <time>2021-08-12T09:01:30Z</time>
      </trkpt>
      <trkpt lat="47.29191" lon="6.84885">
        <ele>830.6</ele>
        <time>2021-08-12T09:01:32Z</time>
      </trkpt>
      <trkpt lat="47.29189" lon="6.84885">
        <ele>830.7</ele>
        <time>2021-08-12T09:01:33Z</time>
      </trkpt>
      <trkpt lat="47.29186" lon="6.84886">
        <ele>830.9</ele>
        <time>2021-08-12T09:01:35Z</time>
      </trkpt>
      <trkpt lat="47.29185" lon="6.84887">
        <ele>831</ele>
        <time>2021-08-12T09:01:36Z</time>
      </trkpt>
      <trkpt lat="47.29183" lon="6.84889">
        <ele>831.2</ele>
        <time>2021-08-12T09:01:38Z</time>
      </trkpt>
      <trkpt lat="47.29181" lon="6.84891">
        <ele>831.4</ele>
        <time>2021-08-12T09:01:39Z</time>
      </trkpt>
      <trkpt lat="47.2918" lon="6.84892">
        <ele>831.5</ele>
        <time>2021-08-12T09:01:41Z</time>
      </trkpt>
      <trkpt lat="47.29179" lon="6.84893">
        <ele>831.6</ele>
        <time>2021-08-12T09:01:42Z</time>
      </trkpt>
      <trkpt lat="47.29178" lon="6.84894">
        <ele>831.7</ele>
        <time>2021-08-12T09:01:44Z</time>
      </trkpt>
      <trkpt lat="47.29178" lon="6.84895">
        <ele>831.7</ele>
        <time>2021-08-12T09:01:45Z</time>
      </trkpt>
      <trkpt lat="47.29178" lon="6.84895">
        <ele>831.7</ele>
        <time>2021-08-12T09:01:46Z</time>
      </trkpt>
      <trkpt lat="47.29177" lon="6.84896">
        <ele>831.8</ele>
        <time>2021-08-12T09:01:48Z</time>
      </trkpt>
      <trkpt lat="47.29176" lon="6.84896">
        <ele>831.9</ele>
        <time>2021-08-12T09:01:49Z</time>
      </trkpt>
      <trkpt lat="47.29175" lon="6.84897">
        <ele>832</ele>
        <time>2021-08-12T09:01:51Z</time>
      </trkpt>
      <trkpt lat="47.29174" lon="6.84897">
        <ele>832</ele>
        <time>2021-08-12T09:01:52Z</time>
      </trkpt>
      <trkpt lat="47.29173" lon="6.84897">
        <ele>832.1</ele>
        <time>2021-08-12T09:01:53Z</time>
      </trkpt>
      <trkpt lat="47.29172" lon="6.84898">
        <ele>832.2</ele>
        <time>2021-08-12T09:01:54Z</time>
      </trkpt>
      <trkpt lat="47.29172" lon="6.84898">
        <ele>832.2</ele>
        <time>2021-08-12T09:01:56Z</time>
      </trkpt>
      <trkpt lat="47.29171" lon="6.84899">
        <ele>832.3</ele>
        <time>2021-08-12T09:01:57Z</time>
      </trkpt>
      <trkpt lat="47.29171" lon="6.84899">
        <ele>832.3</ele>
        <time>2021-08-12T09:01:58Z</time>
      </trkpt>
      <trkpt lat="47.2917" lon="6.849">
        <ele>832.4</ele>
        <time>2021-08-12T09:01:59Z</time>
      </trkpt>
      <trkpt lat="47.29169" lon="6.849">
        <ele>832.4</ele>
        <time>2021-08-12T09:02:00Z</time>
      </trkpt>
      <trkpt lat="47.29169" lon="6.84901">
        <ele>832.5</ele>
        <time>2021-08-12T09:02:02Z</time>
      </trkpt>
      <trkpt lat="47.29168" lon="6.84901">
        <ele>832.5</ele>
        <time>2021-08-12T09:02:03Z</time>
      </trkpt>
      <trkpt lat="47.29168" lon="6.84901">
        <ele>832.6</ele>
        <time>2021-08-12T09:02:04Z</time>
      </trkpt>
      <trkpt lat="47.29164" lon="6.84903">
        <ele>832.8</ele>
        <time>2021-08-12T09:02:06Z</time>
      </trkpt>
      <trkpt lat="47.29163" lon="6.84904">
        <ele>832.9</ele>
        <time>2021-08-12T09:02:07Z</time>
      </trkpt>
      <trkpt lat="47.29161" lon="6.84905">
        <ele>833.2</ele>
        <time>2021-08-12T09:02:08Z</time>
      </trkpt>
      <trkpt lat="47.2916" lon="6.84906">
        <ele>833.2</ele>
        <time>2021-08-12T09:02:09Z</time>
      </trkpt>
      <trkpt lat="47.29158" lon="6.84907">
        <ele>833.4</ele>
        <time>2021-08-12T09:02:11Z</time>
      </trkpt>
      <trkpt lat="47.29158" lon="6.84908">
        <ele>833.4</ele>
        <time>2021-08-12T09:02:12Z</time>
      </trkpt>
      <trkpt lat="47.29157" lon="6.84908">
        <ele>833.5</ele>
        <time>2021-08-12T09:02:13Z</time>
      </trkpt>
      <trkpt lat="47.29157" lon="6.84909">
        <ele>833.5</ele>
        <time>2021-08-12T09:02:15Z</time>
      </trkpt>
      <trkpt lat="47.29156" lon="6.84909">
        <ele>833.6</ele>
        <time>2021-08-12T09:02:17Z</time>
      </trkpt>
      <trkpt lat="47.29154" lon="6.8491">
        <ele>833.7</ele>
        <time>2021-08-12T09:02:18Z</time>
      </trkpt>
      <trkpt lat="47.29153" lon="6.8491">
        <ele>833.8</ele>
        <time>2021-08-12T09:02:19Z</time>
      </trkpt>
      <trkpt lat="47.29152" lon="6.84911">
        <ele>833.9</ele>
        <time>2021-08-12T09:02:20Z</time>
      </trkpt>
      <trkpt lat="47.2915" lon="6.84911">
        <ele>834</ele>
        <time>2021-08-12T09:02:22Z</time>
      </trkpt>
      <trkpt lat="47.29149" lon="6.84912">
        <ele>834.1</ele>
        <time>2021-08-12T09:02:23Z</time>
      </trkpt>
      <trkpt lat="47.29148" lon="6.84914">
        <ele>834.2</ele>
        <time>2021-08-12T09:02:24Z</time>
      </trkpt>
      <trkpt lat="47.29146" lon="6.84917">
        <ele>834.4</ele>
        <time>2021-08-12T09:02:25Z</time>
      </trkpt>
      <trkpt lat="47.29145" lon="6.84919">
        <ele>834.6</ele>
        <time>2021-08-12T09:02:27Z</time>
      </trkpt>
      <trkpt lat="47.29144" lon="6.8492">
        <ele>834.6</ele>
        <time>2021-08-12T09:02:28Z</time>
      </trkpt>
      <trkpt lat="47.29144" lon="6.84921">
        <ele>834.7</ele>
        <time>2021-08-12T09:02:29Z</time>
      </trkpt>
      <trkpt lat="47.29142" lon="6.84923">
        <ele>834.8</ele>
        <time>2021-08-12T09:02:31Z</time>
      </trkpt>
      <trkpt lat="47.29141" lon="6.84923">
        <ele>834.9</ele>
        <time>2021-08-12T09:02:32Z</time>
      </trkpt>
      <trkpt lat="47.29141" lon="6.84924">
        <ele>835</ele>
        <time>2021-08-12T09:02:33Z</time>
      </trkpt>
      <trkpt lat="47.2914" lon="6.84925">
        <ele>835</ele>
        <time>2021-08-12T09:02:34Z</time>
      </trkpt>
      <trkpt lat="47.2914" lon="6.84925">
        <ele>835.1</ele>
        <time>2021-08-12T09:02:36Z</time>
      </trkpt>
      <trkpt lat="47.29139" lon="6.84926">
        <ele>835.1</ele>
        <time>2021-08-12T09:02:37Z</time>
      </trkpt>
      <trkpt lat="47.29139" lon="6.84926">
        <ele>835.2</ele>
        <time>2021-08-12T09:02:39Z</time>
      </trkpt>
      <trkpt lat="47.29139" lon="6.84926">
        <ele>835.2</ele>
        <time>2021-08-12T09:02:41Z</time>
      </trkpt>
      <trkpt lat="47.29139" lon="6.84926">
        <ele>835.2</ele>
        <time>2021-08-12T09:02:42Z</time>
      </trkpt>
      <trkpt lat="47.29139" lon="6.84926">
        <ele>835.2</ele>
        <time>2021-08-12T09:02:43Z</time>
      </trkpt>
      <trkpt lat="47.29138" lon="6.84927">
        <ele>835.2</ele>
        <time>2021-08-12T09:02:44Z</time>
      </trkpt>
      <trkpt lat="47.29138" lon="6.84927">
        <ele>835.2</ele>
        <time>2021-08-12T09:02:45Z</time>
      </trkpt>
      <trkpt lat="47.29138" lon="6.84929">
        <ele>835.3</ele>
        <time>2021-08-12T09:02:47Z</time>
      </trkpt>
      <trkpt lat="47.29137" lon="6.8493">
        <ele>835.4</ele>
        <time>2021-08-12T09:02:48Z</time>
      </trkpt>
      <trkpt lat="47.29136" lon="6.84932">
        <ele>835.5</ele>
        <time>2021-08-12T09:02:49Z</time>
      </trkpt>
      <trkpt lat="47.29135" lon="6.84933">
        <ele>835.6</ele>
        <time>2021-08-12T09:02:50Z</time>
      </trkpt>
      <trkpt lat="47.29132" lon="6.84934">
        <ele>835.8</ele>
        <time>2021-08-12T09:02:52Z</time>
      </trkpt>
      <trkpt lat="47.29129" lon="6.84936">
        <ele>836</ele>
        <time>2021-08-12T09:02:53Z</time>
      </trkpt>
      <trkpt lat="47.29125" lon="6.8494">
        <ele>836.2</ele>
        <time>2021-08-12T09:02:54Z</time>
      </trkpt>
      <trkpt lat="47.29123" lon="6.84943">
        <ele>836.4</ele>
        <time>2021-08-12T09:02:55Z</time>
      </trkpt>
      <trkpt lat="47.2912" lon="6.84945">
        <ele>836.6</ele>
        <time>2021-08-12T09:02:57Z</time>
      </trkpt>
      <trkpt lat="47.29116" lon="6.84949">
        <ele>836.8</ele>
        <time>2021-08-12T09:02:59Z</time>
      </trkpt>
      <trkpt lat="47.29113" lon="6.84952">
        <ele>837</ele>
        <time>2021-08-12T09:03:00Z</time>
      </trkpt>
      <trkpt lat="47.2911" lon="6.84955">
        <ele>837.3</ele>
        <time>2021-08-12T09:03:01Z</time>
      </trkpt>
      <trkpt lat="47.29107" lon="6.84957">
        <ele>837.5</ele>
        <time>2021-08-12T09:03:02Z</time>
      </trkpt>
      <trkpt lat="47.29105" lon="6.84959">
        <ele>837.7</ele>
        <time>2021-08-12T09:03:03Z</time>
      </trkpt>
      <trkpt lat="47.29104" lon="6.8496">
        <ele>837.7</ele>
        <time>2021-08-12T09:03:04Z</time>
      </trkpt>
      <trkpt lat="47.29104" lon="6.84965">
        <ele>838</ele>
        <time>2021-08-12T09:03:06Z</time>
      </trkpt>
      <trkpt lat="47.29104" lon="6.84967">
        <ele>838.1</ele>
        <time>2021-08-12T09:03:07Z</time>
      </trkpt>
      <trkpt lat="47.29102" lon="6.8497">
        <ele>838.3</ele>
        <time>2021-08-12T09:03:09Z</time>
      </trkpt>
      <trkpt lat="47.29101" lon="6.84972">
        <ele>838.5</ele>
        <time>2021-08-12T09:03:11Z</time>
      </trkpt>
      <trkpt lat="47.29099" lon="6.84973">
        <ele>838.7</ele>
        <time>2021-08-12T09:03:13Z</time>
      </trkpt>
      <trkpt lat="47.2908" lon="6.84988">
        <ele>840.5</ele>
        <time>2021-08-12T09:03:38Z</time>
      </trkpt>
      <trkpt lat="47.29079" lon="6.84988">
        <ele>840.6</ele>
        <time>2021-08-12T09:03:39Z</time>
      </trkpt>
      <trkpt lat="47.29078" lon="6.84988">
        <ele>840.7</ele>
        <time>2021-08-12T09:03:40Z</time>
      </trkpt>
      <trkpt lat="47.29077" lon="6.84987">
        <ele>840.7</ele>
        <time>2021-08-12T09:03:41Z</time>
      </trkpt>
      <trkpt lat="47.29076" lon="6.84987">
        <ele>840.8</ele>
        <time>2021-08-12T09:03:42Z</time>
      </trkpt>
      <trkpt lat="47.29074" lon="6.84986">
        <ele>840.9</ele>
        <time>2021-08-12T09:03:44Z</time>
      </trkpt>
      <trkpt lat="47.29073" lon="6.84985">
        <ele>841</ele>
        <time>2021-08-12T09:03:45Z</time>
      </trkpt>
      <trkpt lat="47.29072" lon="6.84983">
        <ele>841.1</ele>
        <time>2021-08-12T09:03:46Z</time>
      </trkpt>
      <trkpt lat="47.2907" lon="6.84981">
        <ele>841.3</ele>
        <time>2021-08-12T09:03:47Z</time>
      </trkpt>
      <trkpt lat="47.29069" lon="6.8498">
        <ele>841.4</ele>
        <time>2021-08-12T09:03:48Z</time>
      </trkpt>
      <trkpt lat="47.29065" lon="6.84979">
        <ele>841.6</ele>
        <time>2021-08-12T09:03:50Z</time>
      </trkpt>
      <trkpt lat="47.29064" lon="6.84978">
        <ele>841.7</ele>
        <time>2021-08-12T09:03:51Z</time>
      </trkpt>
      <trkpt lat="47.29063" lon="6.84978">
        <ele>841.7</ele>
        <time>2021-08-12T09:03:52Z</time>
      </trkpt>
      <trkpt lat="47.29062" lon="6.84978">
        <ele>841.8</ele>
        <time>2021-08-12T09:03:53Z</time>
      </trkpt>
      <trkpt lat="47.29058" lon="6.84976">
        <ele>842</ele>
        <time>2021-08-12T09:03:55Z</time>
      </trkpt>
      <trkpt lat="47.29056" lon="6.84975">
        <ele>842.1</ele>
        <time>2021-08-12T09:03:56Z</time>
      </trkpt>
      <trkpt lat="47.29055" lon="6.84974">
        <ele>842.1</ele>
        <time>2021-08-12T09:03:57Z</time>
      </trkpt>
      <trkpt lat="47.29052" lon="6.84973">
        <ele>842.3</ele>
        <time>2021-08-12T09:03:59Z</time>
      </trkpt>
      <trkpt lat="47.29051" lon="6.84973">
        <ele>842.3</ele>
        <time>2021-08-12T09:04:00Z</time>
      </trkpt>
      <trkpt lat="47.29048" lon="6.84973">
        <ele>842.5</ele>
        <time>2021-08-12T09:04:01Z</time>
      </trkpt>
      <trkpt lat="47.29047" lon="6.84973">
        <ele>842.5</ele>
        <time>2021-08-12T09:04:02Z</time>
      </trkpt>
      <trkpt lat="47.29044" lon="6.84973">
        <ele>842.7</ele>
        <time>2021-08-12T09:04:04Z</time>
      </trkpt>
      <trkpt lat="47.29041" lon="6.84974">
        <ele>842.8</ele>
        <time>2021-08-12T09:04:05Z</time>
      </trkpt>
      <trkpt lat="47.29036" lon="6.84975">
        <ele>843</ele>
        <time>2021-08-12T09:04:07Z</time>
      </trkpt>
      <trkpt lat="47.29032" lon="6.84976">
        <ele>843.1</ele>
        <time>2021-08-12T09:04:08Z</time>
      </trkpt>
      <trkpt lat="47.29031" lon="6.84977">
        <ele>843.2</ele>
        <time>2021-08-12T09:04:09Z</time>
      </trkpt>
      <trkpt lat="47.29027" lon="6.84978">
        <ele>843.3</ele>
        <time>2021-08-12T09:04:10Z</time>
      </trkpt>
      <trkpt lat="47.29025" lon="6.84978">
        <ele>843.4</ele>
        <time>2021-08-12T09:04:11Z</time>
      </trkpt>
      <trkpt lat="47.29022" lon="6.84977">
        <ele>843.5</ele>
        <time>2021-08-12T09:04:13Z</time>
      </trkpt>
      <trkpt lat="47.2902" lon="6.84977">
        <ele>843.6</ele>
        <time>2021-08-12T09:04:14Z</time>
      </trkpt>
      <trkpt lat="47.29018" lon="6.84977">
        <ele>843.6</ele>
        <time>2021-08-12T09:04:15Z</time>
      </trkpt>
      <trkpt lat="47.29016" lon="6.84977">
        <ele>843.7</ele>
        <time>2021-08-12T09:04:16Z</time>
      </trkpt>
      <trkpt lat="47.29014" lon="6.84977">
        <ele>844.1</ele>
        <time>2021-08-12T09:04:18Z</time>
      </trkpt>
      <trkpt lat="47.29013" lon="6.84977">
        <ele>844.1</ele>
        <time>2021-08-12T09:04:19Z</time>
      </trkpt>
      <trkpt lat="47.2901" lon="6.84979">
        <ele>844.3</ele>
        <time>2021-08-12T09:04:20Z</time>
      </trkpt>
      <trkpt lat="47.29006" lon="6.84983">
        <ele>844.5</ele>
        <time>2021-08-12T09:04:21Z</time>
      </trkpt>
      <trkpt lat="47.29005" lon="6.84984">
        <ele>844.6</ele>
        <time>2021-08-12T09:04:22Z</time>
      </trkpt>
      <trkpt lat="47.28999" lon="6.84988">
        <ele>845</ele>
        <time>2021-08-12T09:04:24Z</time>
      </trkpt>
      <trkpt lat="47.28995" lon="6.84991">
        <ele>845.2</ele>
        <time>2021-08-12T09:04:25Z</time>
      </trkpt>
      <trkpt lat="47.28992" lon="6.84994">
        <ele>845.5</ele>
        <time>2021-08-12T09:04:26Z</time>
      </trkpt>
      <trkpt lat="47.28988" lon="6.85">
        <ele>845.8</ele>
        <time>2021-08-12T09:04:28Z</time>
      </trkpt>
      <trkpt lat="47.28985" lon="6.85003">
        <ele>846</ele>
        <time>2021-08-12T09:04:29Z</time>
      </trkpt>
      <trkpt lat="47.28984" lon="6.85004">
        <ele>846</ele>
        <time>2021-08-12T09:04:30Z</time>
      </trkpt>
      <trkpt lat="47.28981" lon="6.85005">
        <ele>846.2</ele>
        <time>2021-08-12T09:04:31Z</time>
      </trkpt>
      <trkpt lat="47.2898" lon="6.85005">
        <ele>846.3</ele>
        <time>2021-08-12T09:04:32Z</time>
      </trkpt>
      <trkpt lat="47.2898" lon="6.85005">
        <ele>846.3</ele>
        <time>2021-08-12T09:04:33Z</time>
      </trkpt>
      <trkpt lat="47.2898" lon="6.85004">
        <ele>846.4</ele>
        <time>2021-08-12T09:04:35Z</time>
      </trkpt>
      <trkpt lat="47.28978" lon="6.85005">
        <ele>846.5</ele>
        <time>2021-08-12T09:04:36Z</time>
      </trkpt>
      <trkpt lat="47.28977" lon="6.85006">
        <ele>846.6</ele>
        <time>2021-08-12T09:04:37Z</time>
      </trkpt>
      <trkpt lat="47.28975" lon="6.85005">
        <ele>846.7</ele>
        <time>2021-08-12T09:04:39Z</time>
      </trkpt>
      <trkpt lat="47.28973" lon="6.85006">
        <ele>846.8</ele>
        <time>2021-08-12T09:04:40Z</time>
      </trkpt>
      <trkpt lat="47.28973" lon="6.85006">
        <ele>846.8</ele>
        <time>2021-08-12T09:04:41Z</time>
      </trkpt>
      <trkpt lat="47.28973" lon="6.85006">
        <ele>846.9</ele>
        <time>2021-08-12T09:04:42Z</time>
      </trkpt>
      <trkpt lat="47.28972" lon="6.85007">
        <ele>847</ele>
        <time>2021-08-12T09:04:44Z</time>
      </trkpt>
      <trkpt lat="47.28971" lon="6.85008">
        <ele>847</ele>
        <time>2021-08-12T09:04:45Z</time>
      </trkpt>
      <trkpt lat="47.28969" lon="6.85008">
        <ele>847.1</ele>
        <time>2021-08-12T09:04:46Z</time>
      </trkpt>
      <trkpt lat="47.28967" lon="6.85009">
        <ele>847.3</ele>
        <time>2021-08-12T09:04:48Z</time>
      </trkpt>
      <trkpt lat="47.28946" lon="6.85022">
        <ele>848.6</ele>
        <time>2021-08-12T09:04:49Z</time>
      </trkpt>
      <trkpt lat="47.28925" lon="6.85035">
        <ele>848.5</ele>
        <time>2021-08-12T09:05:17Z</time>
      </trkpt>
      <trkpt lat="47.28904" lon="6.85048">
        <ele>847.4</ele>
        <time>2021-08-12T09:05:18Z</time>
      </trkpt>
      <trkpt lat="47.28889" lon="6.85051">
        <ele>846.4</ele>
        <time>2021-08-12T09:05:20Z</time>
      </trkpt>
      <trkpt lat="47.28878" lon="6.85054">
        <ele>845.9</ele>
        <time>2021-08-12T09:05:22Z</time>
      </trkpt>
      <trkpt lat="47.28873" lon="6.85058">
        <ele>845.7</ele>
        <time>2021-08-12T09:05:23Z</time>
      </trkpt>
      <trkpt lat="47.28864" lon="6.85071">
        <ele>845.5</ele>
        <time>2021-08-12T09:05:25Z</time>
      </trkpt>
      <trkpt lat="47.2886" lon="6.85077">
        <ele>845.5</ele>
        <time>2021-08-12T09:05:26Z</time>
      </trkpt>
      <trkpt lat="47.28851" lon="6.85089">
        <ele>845.5</ele>
        <time>2021-08-12T09:05:28Z</time>
      </trkpt>
      <trkpt lat="47.28847" lon="6.85094">
        <ele>845.6</ele>
        <time>2021-08-12T09:05:29Z</time>
      </trkpt>
      <trkpt lat="47.28844" lon="6.85097">
        <ele>845.6</ele>
        <time>2021-08-12T09:05:30Z</time>
      </trkpt>
      <trkpt lat="47.28839" lon="6.85101">
        <ele>845.7</ele>
        <time>2021-08-12T09:05:32Z</time>
      </trkpt>
      <trkpt lat="47.28835" lon="6.85106">
        <ele>845.8</ele>
        <time>2021-08-12T09:05:34Z</time>
      </trkpt>
      <trkpt lat="47.28834" lon="6.8511">
        <ele>845.9</ele>
        <time>2021-08-12T09:05:35Z</time>
      </trkpt>
      <trkpt lat="47.28834" lon="6.85112">
        <ele>845.9</ele>
        <time>2021-08-12T09:05:36Z</time>
      </trkpt>
      <trkpt lat="47.28831" lon="6.85114">
        <ele>846</ele>
        <time>2021-08-12T09:05:38Z</time>
      </trkpt>
      <trkpt lat="47.28828" lon="6.85118">
        <ele>846.1</ele>
        <time>2021-08-12T09:05:39Z</time>
      </trkpt>
      <trkpt lat="47.28825" lon="6.85124">
        <ele>846.3</ele>
        <time>2021-08-12T09:05:40Z</time>
      </trkpt>
      <trkpt lat="47.28822" lon="6.85128">
        <ele>846.5</ele>
        <time>2021-08-12T09:05:41Z</time>
      </trkpt>
      <trkpt lat="47.28818" lon="6.85132">
        <ele>846.6</ele>
        <time>2021-08-12T09:05:42Z</time>
      </trkpt>
      <trkpt lat="47.28814" lon="6.85137">
        <ele>846.8</ele>
        <time>2021-08-12T09:05:44Z</time>
      </trkpt>
      <trkpt lat="47.28811" lon="6.85141">
        <ele>847</ele>
        <time>2021-08-12T09:05:45Z</time>
      </trkpt>
      <trkpt lat="47.28809" lon="6.85145">
        <ele>847.2</ele>
        <time>2021-08-12T09:05:46Z</time>
      </trkpt>
      <trkpt lat="47.28806" lon="6.85149">
        <ele>847.4</ele>
        <time>2021-08-12T09:05:47Z</time>
      </trkpt>
      <trkpt lat="47.28805" lon="6.85152">
        <ele>847.5</ele>
        <time>2021-08-12T09:05:48Z</time>
      </trkpt>
      <trkpt lat="47.28804" lon="6.85157">
        <ele>847.7</ele>
        <time>2021-08-12T09:05:49Z</time>
      </trkpt>
      <trkpt lat="47.28803" lon="6.8516">
        <ele>847.8</ele>
        <time>2021-08-12T09:05:50Z</time>
      </trkpt>
      <trkpt lat="47.28802" lon="6.85162">
        <ele>847.9</ele>
        <time>2021-08-12T09:05:52Z</time>
      </trkpt>
      <trkpt lat="47.28801" lon="6.85167">
        <ele>848.1</ele>
        <time>2021-08-12T09:05:54Z</time>
      </trkpt>
      <trkpt lat="47.28801" lon="6.85171">
        <ele>848.2</ele>
        <time>2021-08-12T09:05:55Z</time>
      </trkpt>
      <trkpt lat="47.288" lon="6.85173">
        <ele>848.4</ele>
        <time>2021-08-12T09:05:57Z</time>
      </trkpt>
      <trkpt lat="47.288" lon="6.85176">
        <ele>848.5</ele>
        <time>2021-08-12T09:05:58Z</time>
      </trkpt>
      <trkpt lat="47.28799" lon="6.85179">
        <ele>848.6</ele>
        <time>2021-08-12T09:05:59Z</time>
      </trkpt>
      <trkpt lat="47.28798" lon="6.85182">
        <ele>848.7</ele>
        <time>2021-08-12T09:06:00Z</time>
      </trkpt>
      <trkpt lat="47.28795" lon="6.85188">
        <ele>849</ele>
        <time>2021-08-12T09:06:02Z</time>
      </trkpt>
      <trkpt lat="47.28792" lon="6.85194">
        <ele>849.4</ele>
        <time>2021-08-12T09:06:04Z</time>
      </trkpt>
      <trkpt lat="47.28792" lon="6.852">
        <ele>849.7</ele>
        <time>2021-08-12T09:06:05Z</time>
      </trkpt>
      <trkpt lat="47.28793" lon="6.85206">
        <ele>850</ele>
        <time>2021-08-12T09:06:07Z</time>
      </trkpt>
      <trkpt lat="47.28793" lon="6.8521">
        <ele>850.2</ele>
        <time>2021-08-12T09:06:08Z</time>
      </trkpt>
      <trkpt lat="47.28793" lon="6.85218">
        <ele>850.7</ele>
        <time>2021-08-12T09:06:10Z</time>
      </trkpt>
      <trkpt lat="47.28793" lon="6.85224">
        <ele>850.6</ele>
        <time>2021-08-12T09:06:11Z</time>
      </trkpt>
      <trkpt lat="47.28793" lon="6.85226">
        <ele>850.6</ele>
        <time>2021-08-12T09:06:12Z</time>
      </trkpt>
      <trkpt lat="47.28793" lon="6.85236">
        <ele>850.6</ele>
        <time>2021-08-12T09:06:14Z</time>
      </trkpt>
      <trkpt lat="47.28794" lon="6.85246">
        <ele>850.5</ele>
        <time>2021-08-12T09:06:16Z</time>
      </trkpt>
      <trkpt lat="47.28793" lon="6.85258">
        <ele>850.3</ele>
        <time>2021-08-12T09:06:18Z</time>
      </trkpt>
      <trkpt lat="47.28791" lon="6.85273">
        <ele>850</ele>
        <time>2021-08-12T09:06:20Z</time>
      </trkpt>
      <trkpt lat="47.28789" lon="6.85285">
        <ele>849.8</ele>
        <time>2021-08-12T09:06:21Z</time>
      </trkpt>
      <trkpt lat="47.28787" lon="6.85297">
        <ele>849.5</ele>
        <time>2021-08-12T09:06:23Z</time>
      </trkpt>
      <trkpt lat="47.28784" lon="6.85309">
        <ele>849.1</ele>
        <time>2021-08-12T09:06:24Z</time>
      </trkpt>
      <trkpt lat="47.28781" lon="6.8533">
        <ele>848.2</ele>
        <time>2021-08-12T09:06:26Z</time>
      </trkpt>
      <trkpt lat="47.28778" lon="6.8535">
        <ele>846.9</ele>
        <time>2021-08-12T09:06:28Z</time>
      </trkpt>
      <trkpt lat="47.28776" lon="6.85359">
        <ele>846.3</ele>
        <time>2021-08-12T09:06:29Z</time>
      </trkpt>
      <trkpt lat="47.28774" lon="6.85367">
        <ele>845.6</ele>
        <time>2021-08-12T09:06:30Z</time>
      </trkpt>
      <trkpt lat="47.28772" lon="6.85375">
        <ele>845</ele>
        <time>2021-08-12T09:06:31Z</time>
      </trkpt>
      <trkpt lat="47.28768" lon="6.85389">
        <ele>843.8</ele>
        <time>2021-08-12T09:06:33Z</time>
      </trkpt>
      <trkpt lat="47.28766" lon="6.85395">
        <ele>843.3</ele>
        <time>2021-08-12T09:06:34Z</time>
      </trkpt>
      <trkpt lat="47.28766" lon="6.85402">
        <ele>842.7</ele>
        <time>2021-08-12T09:06:35Z</time>
      </trkpt>
      <trkpt lat="47.28765" lon="6.8541">
        <ele>842</ele>
        <time>2021-08-12T09:06:36Z</time>
      </trkpt>
      <trkpt lat="47.28766" lon="6.8543">
        <ele>840.4</ele>
        <time>2021-08-12T09:06:38Z</time>
      </trkpt>
      <trkpt lat="47.28767" lon="6.85442">
        <ele>839.5</ele>
        <time>2021-08-12T09:06:39Z</time>
      </trkpt>
      <trkpt lat="47.2877" lon="6.85466">
        <ele>837.6</ele>
        <time>2021-08-12T09:06:41Z</time>
      </trkpt>
      <trkpt lat="47.28774" lon="6.85479">
        <ele>836.6</ele>
        <time>2021-08-12T09:06:42Z</time>
      </trkpt>
      <trkpt lat="47.28777" lon="6.85493">
        <ele>835.6</ele>
        <time>2021-08-12T09:06:43Z</time>
      </trkpt>
      <trkpt lat="47.28779" lon="6.85521">
        <ele>834.2</ele>
        <time>2021-08-12T09:06:45Z</time>
      </trkpt>
      <trkpt lat="47.28781" lon="6.85548">
        <ele>832.9</ele>
        <time>2021-08-12T09:06:47Z</time>
      </trkpt>
      <trkpt lat="47.28782" lon="6.85561">
        <ele>832.3</ele>
        <time>2021-08-12T09:06:48Z</time>
      </trkpt>
      <trkpt lat="47.28787" lon="6.85586">
        <ele>831.2</ele>
        <time>2021-08-12T09:06:50Z</time>
      </trkpt>
      <trkpt lat="47.28787" lon="6.8561">
        <ele>830.2</ele>
        <time>2021-08-12T09:06:52Z</time>
      </trkpt>
      <trkpt lat="47.28787" lon="6.85622">
        <ele>829.7</ele>
        <time>2021-08-12T09:06:53Z</time>
      </trkpt>
      <trkpt lat="47.28787" lon="6.85632">
        <ele>829.2</ele>
        <time>2021-08-12T09:06:54Z</time>
      </trkpt>
      <trkpt lat="47.28786" lon="6.85651">
        <ele>828</ele>
        <time>2021-08-12T09:06:56Z</time>
      </trkpt>
      <trkpt lat="47.28785" lon="6.8566">
        <ele>827.3</ele>
        <time>2021-08-12T09:06:57Z</time>
      </trkpt>
      <trkpt lat="47.28782" lon="6.8567">
        <ele>826.5</ele>
        <time>2021-08-12T09:06:58Z</time>
      </trkpt>
      <trkpt lat="47.28777" lon="6.85679">
        <ele>825.6</ele>
        <time>2021-08-12T09:06:59Z</time>
      </trkpt>
      <trkpt lat="47.28766" lon="6.85691">
        <ele>824.7</ele>
        <time>2021-08-12T09:07:01Z</time>
      </trkpt>
      <trkpt lat="47.28754" lon="6.85685">
        <ele>824.1</ele>
        <time>2021-08-12T09:07:02Z</time>
      </trkpt>
      <trkpt lat="47.28745" lon="6.85672">
        <ele>823.5</ele>
        <time>2021-08-12T09:07:03Z</time>
      </trkpt>
      <trkpt lat="47.28723" lon="6.85651">
        <ele>822.3</ele>
        <time>2021-08-12T09:07:05Z</time>
      </trkpt>
      <trkpt lat="47.28713" lon="6.85644">
        <ele>821.9</ele>
        <time>2021-08-12T09:07:06Z</time>
      </trkpt>
      <trkpt lat="47.28697" lon="6.85638">
        <ele>821.3</ele>
        <time>2021-08-12T09:07:08Z</time>
      </trkpt>
      <trkpt lat="47.28685" lon="6.85628">
        <ele>820.8</ele>
        <time>2021-08-12T09:07:10Z</time>
      </trkpt>
      <trkpt lat="47.28684" lon="6.8561">
        <ele>820.3</ele>
        <time>2021-08-12T09:07:12Z</time>
      </trkpt>
      <trkpt lat="47.28679" lon="6.85608">
        <ele>820.1</ele>
        <time>2021-08-12T09:07:13Z</time>
      </trkpt>
      <trkpt lat="47.28672" lon="6.85606">
        <ele>819.8</ele>
        <time>2021-08-12T09:07:14Z</time>
      </trkpt>
      <trkpt lat="47.28667" lon="6.85604">
        <ele>819.6</ele>
        <time>2021-08-12T09:07:16Z</time>
      </trkpt>
      <trkpt lat="47.28663" lon="6.85602">
        <ele>819.4</ele>
        <time>2021-08-12T09:07:17Z</time>
      </trkpt>
      <trkpt lat="47.28653" lon="6.85602">
        <ele>819</ele>
        <time>2021-08-12T09:07:19Z</time>
      </trkpt>
      <trkpt lat="47.28651" lon="6.85597">
        <ele>818.8</ele>
        <time>2021-08-12T09:07:20Z</time>
      </trkpt>
      <trkpt lat="47.28647" lon="6.85594">
        <ele>818.6</ele>
        <time>2021-08-12T09:07:22Z</time>
      </trkpt>
      <trkpt lat="47.28642" lon="6.85591">
        <ele>818.4</ele>
        <time>2021-08-12T09:07:23Z</time>
      </trkpt>
      <trkpt lat="47.28637" lon="6.85587">
        <ele>818.1</ele>
        <time>2021-08-12T09:07:25Z</time>
      </trkpt>
      <trkpt lat="47.28635" lon="6.85583">
        <ele>817.9</ele>
        <time>2021-08-12T09:07:26Z</time>
      </trkpt>
      <trkpt lat="47.28636" lon="6.85577">
        <ele>817.6</ele>
        <time>2021-08-12T09:07:28Z</time>
      </trkpt>
      <trkpt lat="47.28636" lon="6.85575">
        <ele>817.6</ele>
        <time>2021-08-12T09:07:30Z</time>
      </trkpt>
      <trkpt lat="47.28637" lon="6.85574">
        <ele>817.5</ele>
        <time>2021-08-12T09:07:31Z</time>
      </trkpt>
      <trkpt lat="47.28638" lon="6.85573">
        <ele>817.4</ele>
        <time>2021-08-12T09:07:32Z</time>
      </trkpt>
      <trkpt lat="47.2864" lon="6.85568">
        <ele>817.2</ele>
        <time>2021-08-12T09:07:34Z</time>
      </trkpt>
      <trkpt lat="47.28642" lon="6.85563">
        <ele>816.9</ele>
        <time>2021-08-12T09:07:35Z</time>
      </trkpt>
      <trkpt lat="47.28644" lon="6.85557">
        <ele>816.6</ele>
        <time>2021-08-12T09:07:37Z</time>
      </trkpt>
      <trkpt lat="47.28644" lon="6.85556">
        <ele>816.6</ele>
        <time>2021-08-12T09:07:38Z</time>
      </trkpt>
      <trkpt lat="47.28646" lon="6.85549">
        <ele>816.2</ele>
        <time>2021-08-12T09:07:40Z</time>
      </trkpt>
      <trkpt lat="47.28647" lon="6.85549">
        <ele>816.2</ele>
        <time>2021-08-12T09:07:41Z</time>
      </trkpt>
      <trkpt lat="47.28647" lon="6.85549">
        <ele>816.2</ele>
        <time>2021-08-12T09:07:42Z</time>
      </trkpt>
      <trkpt lat="47.28647" lon="6.85548">
        <ele>816.2</ele>
        <time>2021-08-12T09:07:44Z</time>
      </trkpt>
      <trkpt lat="47.28647" lon="6.85548">
        <ele>816.2</ele>
        <time>2021-08-12T09:07:45Z</time>
      </trkpt>
      <trkpt lat="47.28635" lon="6.85564">
        <ele>815</ele>
        <time>2021-08-12T09:08:03Z</time>
      </trkpt>
      <trkpt lat="47.28633" lon="6.8557">
        <ele>814.6</ele>
        <time>2021-08-12T09:08:05Z</time>
      </trkpt>
      <trkpt lat="47.28633" lon="6.85575">
        <ele>814.3</ele>
        <time>2021-08-12T09:08:06Z</time>
      </trkpt>
      <trkpt lat="47.28633" lon="6.85583">
        <ele>813.9</ele>
        <time>2021-08-12T09:08:08Z</time>
      </trkpt>
      <trkpt lat="47.28632" lon="6.8559">
        <ele>813.5</ele>
        <time>2021-08-12T09:08:09Z</time>
      </trkpt>
      <trkpt lat="47.28632" lon="6.85594">
        <ele>813.3</ele>
        <time>2021-08-12T09:08:10Z</time>
      </trkpt>
      <trkpt lat="47.28631" lon="6.85598">
        <ele>813</ele>
        <time>2021-08-12T09:08:11Z</time>
      </trkpt>
      <trkpt lat="47.28631" lon="6.85599">
        <ele>812.9</ele>
        <time>2021-08-12T09:08:12Z</time>
      </trkpt>
      <trkpt lat="47.2862" lon="6.85604">
        <ele>812.6</ele>
        <time>2021-08-12T09:08:14Z</time>
      </trkpt>
      <trkpt lat="47.28613" lon="6.85607">
        <ele>811.7</ele>
        <time>2021-08-12T09:08:15Z</time>
      </trkpt>
      <trkpt lat="47.28605" lon="6.8561">
        <ele>810.6</ele>
        <time>2021-08-12T09:08:17Z</time>
      </trkpt>
      <trkpt lat="47.28589" lon="6.85617">
        <ele>808.5</ele>
        <time>2021-08-12T09:08:19Z</time>
      </trkpt>
      <trkpt lat="47.28582" lon="6.85623">
        <ele>807.5</ele>
        <time>2021-08-12T09:08:20Z</time>
      </trkpt>
      <trkpt lat="47.28567" lon="6.85637">
        <ele>805.1</ele>
        <time>2021-08-12T09:08:22Z</time>
      </trkpt>
      <trkpt lat="47.2856" lon="6.85645">
        <ele>804.1</ele>
        <time>2021-08-12T09:08:23Z</time>
      </trkpt>
      <trkpt lat="47.28553" lon="6.85652">
        <ele>803.1</ele>
        <time>2021-08-12T09:08:24Z</time>
      </trkpt>
      <trkpt lat="47.28542" lon="6.85668">
        <ele>801.3</ele>
        <time>2021-08-12T09:08:26Z</time>
      </trkpt>
      <trkpt lat="47.28535" lon="6.85686">
        <ele>799.4</ele>
        <time>2021-08-12T09:08:28Z</time>
      </trkpt>
      <trkpt lat="47.28529" lon="6.85693">
        <ele>798.3</ele>
        <time>2021-08-12T09:08:29Z</time>
      </trkpt>
      <trkpt lat="47.28523" lon="6.857">
        <ele>797.2</ele>
        <time>2021-08-12T09:08:30Z</time>
      </trkpt>
      <trkpt lat="47.28507" lon="6.85714">
        <ele>794.9</ele>
        <time>2021-08-12T09:08:32Z</time>
      </trkpt>
      <trkpt lat="47.28492" lon="6.8573">
        <ele>792.6</ele>
        <time>2021-08-12T09:08:34Z</time>
      </trkpt>
      <trkpt lat="47.28477" lon="6.85746">
        <ele>790.4</ele>
        <time>2021-08-12T09:08:36Z</time>
      </trkpt>
      <trkpt lat="47.2846" lon="6.85766">
        <ele>787.9</ele>
        <time>2021-08-12T09:08:38Z</time>
      </trkpt>
      <trkpt lat="47.28451" lon="6.85776">
        <ele>786.7</ele>
        <time>2021-08-12T09:08:39Z</time>
      </trkpt>
      <trkpt lat="47.28438" lon="6.858">
        <ele>784.3</ele>
        <time>2021-08-12T09:08:41Z</time>
      </trkpt>
      <trkpt lat="47.28431" lon="6.85815">
        <ele>783.1</ele>
        <time>2021-08-12T09:08:42Z</time>
      </trkpt>
      <trkpt lat="47.28422" lon="6.85843">
        <ele>781.6</ele>
        <time>2021-08-12T09:08:44Z</time>
      </trkpt>
      <trkpt lat="47.28419" lon="6.85857">
        <ele>780.9</ele>
        <time>2021-08-12T09:08:45Z</time>
      </trkpt>
      <trkpt lat="47.28415" lon="6.85882">
        <ele>780.1</ele>
        <time>2021-08-12T09:08:47Z</time>
      </trkpt>
      <trkpt lat="47.28412" lon="6.85894">
        <ele>779.8</ele>
        <time>2021-08-12T09:08:48Z</time>
      </trkpt>
      <trkpt lat="47.28408" lon="6.85918">
        <ele>779.3</ele>
        <time>2021-08-12T09:08:50Z</time>
      </trkpt>
      <trkpt lat="47.28406" lon="6.85929">
        <ele>779.2</ele>
        <time>2021-08-12T09:08:51Z</time>
      </trkpt>
      <trkpt lat="47.28404" lon="6.8594">
        <ele>779.2</ele>
        <time>2021-08-12T09:08:52Z</time>
      </trkpt>
      <trkpt lat="47.28403" lon="6.85951">
        <ele>779.2</ele>
        <time>2021-08-12T09:08:53Z</time>
      </trkpt>
      <trkpt lat="47.284" lon="6.85972">
        <ele>779.5</ele>
        <time>2021-08-12T09:08:55Z</time>
      </trkpt>
      <trkpt lat="47.28398" lon="6.85989">
        <ele>779.8</ele>
        <time>2021-08-12T09:08:57Z</time>
      </trkpt>
      <trkpt lat="47.28398" lon="6.85997">
        <ele>780</ele>
        <time>2021-08-12T09:08:58Z</time>
      </trkpt>
      <trkpt lat="47.28398" lon="6.86012">
        <ele>780.3</ele>
        <time>2021-08-12T09:09:00Z</time>
      </trkpt>
      <trkpt lat="47.28399" lon="6.86029">
        <ele>780.6</ele>
        <time>2021-08-12T09:09:02Z</time>
      </trkpt>
      <trkpt lat="47.28399" lon="6.86044">
        <ele>780.9</ele>
        <time>2021-08-12T09:09:04Z</time>
      </trkpt>
      <trkpt lat="47.28399" lon="6.86049">
        <ele>781</ele>
        <time>2021-08-12T09:09:05Z</time>
      </trkpt>
      <trkpt lat="47.284" lon="6.86056">
        <ele>781.1</ele>
        <time>2021-08-12T09:09:06Z</time>
      </trkpt>
      <trkpt lat="47.28402" lon="6.86066">
        <ele>781.3</ele>
        <time>2021-08-12T09:09:08Z</time>
      </trkpt>
      <trkpt lat="47.28404" lon="6.86071">
        <ele>781.4</ele>
        <time>2021-08-12T09:09:09Z</time>
      </trkpt>
      <trkpt lat="47.28407" lon="6.86083">
        <ele>781.6</ele>
        <time>2021-08-12T09:09:11Z</time>
      </trkpt>
      <trkpt lat="47.28409" lon="6.86092">
        <ele>781.7</ele>
        <time>2021-08-12T09:09:12Z</time>
      </trkpt>
      <trkpt lat="47.28413" lon="6.861">
        <ele>781.9</ele>
        <time>2021-08-12T09:09:14Z</time>
      </trkpt>
      <trkpt lat="47.28414" lon="6.86104">
        <ele>781.9</ele>
        <time>2021-08-12T09:09:15Z</time>
      </trkpt>
      <trkpt lat="47.28416" lon="6.8611">
        <ele>782</ele>
        <time>2021-08-12T09:09:17Z</time>
      </trkpt>
      <trkpt lat="47.28416" lon="6.86117">
        <ele>782</ele>
        <time>2021-08-12T09:09:18Z</time>
      </trkpt>
      <trkpt lat="47.28416" lon="6.86122">
        <ele>782.1</ele>
        <time>2021-08-12T09:09:19Z</time>
      </trkpt>
      <trkpt lat="47.28416" lon="6.86127">
        <ele>782.1</ele>
        <time>2021-08-12T09:09:20Z</time>
      </trkpt>
      <trkpt lat="47.28416" lon="6.86132">
        <ele>782.1</ele>
        <time>2021-08-12T09:09:22Z</time>
      </trkpt>
      <trkpt lat="47.28415" lon="6.86138">
        <ele>782.1</ele>
        <time>2021-08-12T09:09:23Z</time>
      </trkpt>
      <trkpt lat="47.28415" lon="6.86144">
        <ele>782.2</ele>
        <time>2021-08-12T09:09:24Z</time>
      </trkpt>
      <trkpt lat="47.28414" lon="6.86148">
        <ele>782.2</ele>
        <time>2021-08-12T09:09:25Z</time>
      </trkpt>
      <trkpt lat="47.28412" lon="6.86157">
        <ele>782.2</ele>
        <time>2021-08-12T09:09:27Z</time>
      </trkpt>
      <trkpt lat="47.2841" lon="6.86163">
        <ele>782.2</ele>
        <time>2021-08-12T09:09:28Z</time>
      </trkpt>
      <trkpt lat="47.28408" lon="6.8617">
        <ele>782.2</ele>
        <time>2021-08-12T09:09:29Z</time>
      </trkpt>
      <trkpt lat="47.28407" lon="6.86175">
        <ele>782.2</ele>
        <time>2021-08-12T09:09:31Z</time>
      </trkpt>
      <trkpt lat="47.28406" lon="6.86181">
        <ele>782.2</ele>
        <time>2021-08-12T09:09:32Z</time>
      </trkpt>
      <trkpt lat="47.28404" lon="6.86189">
        <ele>782.2</ele>
        <time>2021-08-12T09:09:33Z</time>
      </trkpt>
      <trkpt lat="47.28402" lon="6.86195">
        <ele>782.2</ele>
        <time>2021-08-12T09:09:34Z</time>
      </trkpt>
      <trkpt lat="47.284" lon="6.86201">
        <ele>782.2</ele>
        <time>2021-08-12T09:09:35Z</time>
      </trkpt>
      <trkpt lat="47.28398" lon="6.86206">
        <ele>782.2</ele>
        <time>2021-08-12T09:09:36Z</time>
      </trkpt>
      <trkpt lat="47.28394" lon="6.86212">
        <ele>782.2</ele>
        <time>2021-08-12T09:09:38Z</time>
      </trkpt>
      <trkpt lat="47.28392" lon="6.86217">
        <ele>782.2</ele>
        <time>2021-08-12T09:09:39Z</time>
      </trkpt>
      <trkpt lat="47.2839" lon="6.86221">
        <ele>782.2</ele>
        <time>2021-08-12T09:09:40Z</time>
      </trkpt>
      <trkpt lat="47.28386" lon="6.86227">
        <ele>782.2</ele>
        <time>2021-08-12T09:09:42Z</time>
      </trkpt>
      <trkpt lat="47.28384" lon="6.86232">
        <ele>782.2</ele>
        <time>2021-08-12T09:09:43Z</time>
      </trkpt>
      <trkpt lat="47.2838" lon="6.86239">
        <ele>782.1</ele>
        <time>2021-08-12T09:09:45Z</time>
      </trkpt>
      <trkpt lat="47.28377" lon="6.86244">
        <ele>782.1</ele>
        <time>2021-08-12T09:09:47Z</time>
      </trkpt>
      <trkpt lat="47.28374" lon="6.86248">
        <ele>782.1</ele>
        <time>2021-08-12T09:09:48Z</time>
      </trkpt>
      <trkpt lat="47.2837" lon="6.86254">
        <ele>782</ele>
        <time>2021-08-12T09:09:50Z</time>
      </trkpt>
      <trkpt lat="47.28366" lon="6.86259">
        <ele>782</ele>
        <time>2021-08-12T09:09:52Z</time>
      </trkpt>
      <trkpt lat="47.28364" lon="6.86264">
        <ele>781.9</ele>
        <time>2021-08-12T09:09:53Z</time>
      </trkpt>
      <trkpt lat="47.28361" lon="6.86267">
        <ele>781.9</ele>
        <time>2021-08-12T09:09:54Z</time>
      </trkpt>
      <trkpt lat="47.28358" lon="6.86273">
        <ele>781.8</ele>
        <time>2021-08-12T09:09:56Z</time>
      </trkpt>
      <trkpt lat="47.28357" lon="6.86277">
        <ele>781.8</ele>
        <time>2021-08-12T09:09:57Z</time>
      </trkpt>
      <trkpt lat="47.28356" lon="6.86282">
        <ele>781.8</ele>
        <time>2021-08-12T09:09:58Z</time>
      </trkpt>
      <trkpt lat="47.28355" lon="6.86284">
        <ele>781.7</ele>
        <time>2021-08-12T09:09:59Z</time>
      </trkpt>
      <trkpt lat="47.28353" lon="6.86288">
        <ele>781.7</ele>
        <time>2021-08-12T09:10:00Z</time>
      </trkpt>
      <trkpt lat="47.28352" lon="6.86289">
        <ele>781.6</ele>
        <time>2021-08-12T09:10:01Z</time>
      </trkpt>
      <trkpt lat="47.28349" lon="6.86297">
        <ele>781.4</ele>
        <time>2021-08-12T09:10:03Z</time>
      </trkpt>
      <trkpt lat="47.28345" lon="6.86304">
        <ele>781.2</ele>
        <time>2021-08-12T09:10:05Z</time>
      </trkpt>
      <trkpt lat="47.28343" lon="6.8631">
        <ele>781</ele>
        <time>2021-08-12T09:10:06Z</time>
      </trkpt>
      <trkpt lat="47.2834" lon="6.86319">
        <ele>780.7</ele>
        <time>2021-08-12T09:10:08Z</time>
      </trkpt>
      <trkpt lat="47.28332" lon="6.86332">
        <ele>780.1</ele>
        <time>2021-08-12T09:10:10Z</time>
      </trkpt>
      <trkpt lat="47.28328" lon="6.86339">
        <ele>779.7</ele>
        <time>2021-08-12T09:10:11Z</time>
      </trkpt>
      <trkpt lat="47.28325" lon="6.86346">
        <ele>779.4</ele>
        <time>2021-08-12T09:10:12Z</time>
      </trkpt>
      <trkpt lat="47.28319" lon="6.8636">
        <ele>778.7</ele>
        <time>2021-08-12T09:10:14Z</time>
      </trkpt>
      <trkpt lat="47.28316" lon="6.86367">
        <ele>778.3</ele>
        <time>2021-08-12T09:10:15Z</time>
      </trkpt>
      <trkpt lat="47.28312" lon="6.86373">
        <ele>778</ele>
        <time>2021-08-12T09:10:16Z</time>
      </trkpt>
      <trkpt lat="47.28306" lon="6.86384">
        <ele>777.3</ele>
        <time>2021-08-12T09:10:18Z</time>
      </trkpt>
      <trkpt lat="47.28303" lon="6.8639">
        <ele>776.9</ele>
        <time>2021-08-12T09:10:19Z</time>
      </trkpt>
      <trkpt lat="47.28297" lon="6.86402">
        <ele>776.1</ele>
        <time>2021-08-12T09:10:21Z</time>
      </trkpt>
      <trkpt lat="47.28293" lon="6.86407">
        <ele>775.7</ele>
        <time>2021-08-12T09:10:22Z</time>
      </trkpt>
      <trkpt lat="47.28291" lon="6.86413">
        <ele>775.4</ele>
        <time>2021-08-12T09:10:23Z</time>
      </trkpt>
      <trkpt lat="47.28289" lon="6.86419">
        <ele>775.1</ele>
        <time>2021-08-12T09:10:24Z</time>
      </trkpt>
      <trkpt lat="47.28286" lon="6.86432">
        <ele>774.4</ele>
        <time>2021-08-12T09:10:26Z</time>
      </trkpt>
      <trkpt lat="47.28284" lon="6.8644">
        <ele>774.1</ele>
        <time>2021-08-12T09:10:27Z</time>
      </trkpt>
      <trkpt lat="47.28281" lon="6.86457">
        <ele>773.5</ele>
        <time>2021-08-12T09:10:29Z</time>
      </trkpt>
      <trkpt lat="47.28275" lon="6.86473">
        <ele>773</ele>
        <time>2021-08-12T09:10:31Z</time>
      </trkpt>
      <trkpt lat="47.28273" lon="6.86481">
        <ele>772.8</ele>
        <time>2021-08-12T09:10:32Z</time>
      </trkpt>
      <trkpt lat="47.28268" lon="6.8649">
        <ele>772.5</ele>
        <time>2021-08-12T09:10:34Z</time>
      </trkpt>
      <trkpt lat="47.28266" lon="6.86496">
        <ele>772.4</ele>
        <time>2021-08-12T09:10:35Z</time>
      </trkpt>
      <trkpt lat="47.28265" lon="6.86502">
        <ele>772.3</ele>
        <time>2021-08-12T09:10:36Z</time>
      </trkpt>
      <trkpt lat="47.28265" lon="6.86513">
        <ele>772.2</ele>
        <time>2021-08-12T09:10:38Z</time>
      </trkpt>
      <trkpt lat="47.28265" lon="6.86523">
        <ele>772.1</ele>
        <time>2021-08-12T09:10:40Z</time>
      </trkpt>
      <trkpt lat="47.28266" lon="6.8652">
        <ele>772.1</ele>
        <time>2021-08-12T09:10:41Z</time>
      </trkpt>
      <trkpt lat="47.28266" lon="6.86521">
        <ele>772</ele>
        <time>2021-08-12T09:10:42Z</time>
      </trkpt>
      <trkpt lat="47.28262" lon="6.86535">
        <ele>771.9</ele>
        <time>2021-08-12T09:10:44Z</time>
      </trkpt>
      <trkpt lat="47.28255" lon="6.86558">
        <ele>771.6</ele>
        <time>2021-08-12T09:10:46Z</time>
      </trkpt>
      <trkpt lat="47.28253" lon="6.86565">
        <ele>771.6</ele>
        <time>2021-08-12T09:10:47Z</time>
      </trkpt>
      <trkpt lat="47.28252" lon="6.86572">
        <ele>771.6</ele>
        <time>2021-08-12T09:10:48Z</time>
      </trkpt>
      <trkpt lat="47.28248" lon="6.86585">
        <ele>771.6</ele>
        <time>2021-08-12T09:10:50Z</time>
      </trkpt>
      <trkpt lat="47.28246" lon="6.86591">
        <ele>771.6</ele>
        <time>2021-08-12T09:10:51Z</time>
      </trkpt>
      <trkpt lat="47.28244" lon="6.86596">
        <ele>771.6</ele>
        <time>2021-08-12T09:10:52Z</time>
      </trkpt>
      <trkpt lat="47.2824" lon="6.86606">
        <ele>771.6</ele>
        <time>2021-08-12T09:10:54Z</time>
      </trkpt>
      <trkpt lat="47.28239" lon="6.86613">
        <ele>771.6</ele>
        <time>2021-08-12T09:10:55Z</time>
      </trkpt>
      <trkpt lat="47.28235" lon="6.86619">
        <ele>771.7</ele>
        <time>2021-08-12T09:10:57Z</time>
      </trkpt>
      <trkpt lat="47.28232" lon="6.86625">
        <ele>771.8</ele>
        <time>2021-08-12T09:10:58Z</time>
      </trkpt>
      <trkpt lat="47.2823" lon="6.8663">
        <ele>771.8</ele>
        <time>2021-08-12T09:10:59Z</time>
      </trkpt>
      <trkpt lat="47.28228" lon="6.86636">
        <ele>771.9</ele>
        <time>2021-08-12T09:11:00Z</time>
      </trkpt>
      <trkpt lat="47.28225" lon="6.86642">
        <ele>772</ele>
        <time>2021-08-12T09:11:01Z</time>
      </trkpt>
      <trkpt lat="47.28223" lon="6.86646">
        <ele>772.1</ele>
        <time>2021-08-12T09:11:02Z</time>
      </trkpt>
      <trkpt lat="47.28221" lon="6.86651">
        <ele>772.2</ele>
        <time>2021-08-12T09:11:04Z</time>
      </trkpt>
      <trkpt lat="47.28218" lon="6.86658">
        <ele>772.3</ele>
        <time>2021-08-12T09:11:05Z</time>
      </trkpt>
      <trkpt lat="47.28217" lon="6.86662">
        <ele>772.3</ele>
        <time>2021-08-12T09:11:06Z</time>
      </trkpt>
      <trkpt lat="47.28217" lon="6.86665">
        <ele>772.4</ele>
        <time>2021-08-12T09:11:08Z</time>
      </trkpt>
      <trkpt lat="47.28216" lon="6.86671">
        <ele>772.5</ele>
        <time>2021-08-12T09:11:09Z</time>
      </trkpt>
      <trkpt lat="47.28216" lon="6.86672">
        <ele>772.5</ele>
        <time>2021-08-12T09:11:10Z</time>
      </trkpt>
      <trkpt lat="47.28214" lon="6.86677">
        <ele>772.6</ele>
        <time>2021-08-12T09:11:11Z</time>
      </trkpt>
      <trkpt lat="47.28214" lon="6.86678">
        <ele>772.7</ele>
        <time>2021-08-12T09:11:12Z</time>
      </trkpt>
      <trkpt lat="47.28213" lon="6.86684">
        <ele>772.8</ele>
        <time>2021-08-12T09:11:14Z</time>
      </trkpt>
      <trkpt lat="47.28213" lon="6.86691">
        <ele>773</ele>
        <time>2021-08-12T09:11:16Z</time>
      </trkpt>
      <trkpt lat="47.28214" lon="6.86695">
        <ele>773.2</ele>
        <time>2021-08-12T09:11:17Z</time>
      </trkpt>
      <trkpt lat="47.28214" lon="6.86696">
        <ele>773.2</ele>
        <time>2021-08-12T09:11:18Z</time>
      </trkpt>
      <trkpt lat="47.28214" lon="6.86699">
        <ele>773.3</ele>
        <time>2021-08-12T09:11:20Z</time>
      </trkpt>
      <trkpt lat="47.28215" lon="6.86701">
        <ele>773.4</ele>
        <time>2021-08-12T09:11:21Z</time>
      </trkpt>
      <trkpt lat="47.28215" lon="6.86705">
        <ele>773.5</ele>
        <time>2021-08-12T09:11:23Z</time>
      </trkpt>
      <trkpt lat="47.28215" lon="6.86706">
        <ele>773.6</ele>
        <time>2021-08-12T09:11:24Z</time>
      </trkpt>
      <trkpt lat="47.28214" lon="6.86711">
        <ele>773.7</ele>
        <time>2021-08-12T09:11:26Z</time>
      </trkpt>
      <trkpt lat="47.28212" lon="6.86715">
        <ele>773.9</ele>
        <time>2021-08-12T09:11:27Z</time>
      </trkpt>
      <trkpt lat="47.28211" lon="6.86718">
        <ele>774</ele>
        <time>2021-08-12T09:11:28Z</time>
      </trkpt>
      <trkpt lat="47.28208" lon="6.86721">
        <ele>774.2</ele>
        <time>2021-08-12T09:11:30Z</time>
      </trkpt>
      <trkpt lat="47.28207" lon="6.86725">
        <ele>774.3</ele>
        <time>2021-08-12T09:11:31Z</time>
      </trkpt>
      <trkpt lat="47.28205" lon="6.86727">
        <ele>774.3</ele>
        <time>2021-08-12T09:11:32Z</time>
      </trkpt>
      <trkpt lat="47.28201" lon="6.86731">
        <ele>774.4</ele>
        <time>2021-08-12T09:11:34Z</time>
      </trkpt>
      <trkpt lat="47.28199" lon="6.86733">
        <ele>774.5</ele>
        <time>2021-08-12T09:11:36Z</time>
      </trkpt>
      <trkpt lat="47.28199" lon="6.86731">
        <ele>774.5</ele>
        <time>2021-08-12T09:11:37Z</time>
      </trkpt>
      <trkpt lat="47.282" lon="6.86731">
        <ele>774.5</ele>
        <time>2021-08-12T09:11:38Z</time>
      </trkpt>
      <trkpt lat="47.28201" lon="6.86731">
        <ele>774.5</ele>
        <time>2021-08-12T09:11:40Z</time>
      </trkpt>
      <trkpt lat="47.28202" lon="6.86732">
        <ele>774.5</ele>
        <time>2021-08-12T09:11:41Z</time>
      </trkpt>
      <trkpt lat="47.28202" lon="6.86734">
        <ele>774.6</ele>
        <time>2021-08-12T09:11:43Z</time>
      </trkpt>
      <trkpt lat="47.28202" lon="6.86736">
        <ele>774.6</ele>
        <time>2021-08-12T09:11:44Z</time>
      </trkpt>
      <trkpt lat="47.28202" lon="6.86741">
        <ele>774.7</ele>
        <time>2021-08-12T09:11:48Z</time>
      </trkpt>
      <trkpt lat="47.28201" lon="6.86746">
        <ele>774.7</ele>
        <time>2021-08-12T09:11:49Z</time>
      </trkpt>
      <trkpt lat="47.28202" lon="6.86759">
        <ele>774.8</ele>
        <time>2021-08-12T09:11:51Z</time>
      </trkpt>
      <trkpt lat="47.28203" lon="6.86766">
        <ele>774.9</ele>
        <time>2021-08-12T09:11:52Z</time>
      </trkpt>
      <trkpt lat="47.28204" lon="6.86772">
        <ele>775</ele>
        <time>2021-08-12T09:11:53Z</time>
      </trkpt>
      <trkpt lat="47.28206" lon="6.86777">
        <ele>775</ele>
        <time>2021-08-12T09:11:54Z</time>
      </trkpt>
      <trkpt lat="47.28207" lon="6.86783">
        <ele>775.1</ele>
        <time>2021-08-12T09:11:56Z</time>
      </trkpt>
      <trkpt lat="47.28208" lon="6.86788">
        <ele>775.1</ele>
        <time>2021-08-12T09:11:57Z</time>
      </trkpt>
      <trkpt lat="47.28209" lon="6.86791">
        <ele>775.1</ele>
        <time>2021-08-12T09:11:58Z</time>
      </trkpt>
      <trkpt lat="47.28211" lon="6.86795">
        <ele>775.2</ele>
        <time>2021-08-12T09:12:00Z</time>
      </trkpt>
      <trkpt lat="47.28215" lon="6.86797">
        <ele>775.2</ele>
        <time>2021-08-12T09:12:02Z</time>
      </trkpt>
      <trkpt lat="47.28218" lon="6.86802">
        <ele>775.3</ele>
        <time>2021-08-12T09:12:04Z</time>
      </trkpt>
      <trkpt lat="47.28217" lon="6.86806">
        <ele>775.3</ele>
        <time>2021-08-12T09:12:06Z</time>
      </trkpt>
      <trkpt lat="47.28216" lon="6.8681">
        <ele>775.3</ele>
        <time>2021-08-12T09:12:08Z</time>
      </trkpt>
      <trkpt lat="47.28215" lon="6.86814">
        <ele>775.3</ele>
        <time>2021-08-12T09:12:09Z</time>
      </trkpt>
      <trkpt lat="47.28215" lon="6.86817">
        <ele>775.5</ele>
        <time>2021-08-12T09:12:11Z</time>
      </trkpt>
      <trkpt lat="47.28214" lon="6.86821">
        <ele>775.5</ele>
        <time>2021-08-12T09:12:12Z</time>
      </trkpt>
      <trkpt lat="47.28213" lon="6.86825">
        <ele>775.5</ele>
        <time>2021-08-12T09:12:14Z</time>
      </trkpt>
      <trkpt lat="47.28212" lon="6.86829">
        <ele>775.5</ele>
        <time>2021-08-12T09:15:24Z</time>
      </trkpt>
      <trkpt lat="47.28211" lon="6.86833">
        <ele>775.6</ele>
        <time>2021-08-12T09:15:31Z</time>
      </trkpt>
      <trkpt lat="47.2821" lon="6.86837">
        <ele>775.7</ele>
        <time>2021-08-12T09:15:37Z</time>
      </trkpt>
      <trkpt lat="47.2821" lon="6.86841">
        <ele>775.7</ele>
        <time>2021-08-12T09:15:43Z</time>
      </trkpt>
      <trkpt lat="47.28209" lon="6.86845">
        <ele>775.7</ele>
        <time>2021-08-12T09:15:43Z</time>
      </trkpt>
      <trkpt lat="47.2821" lon="6.86846">
        <ele>775.8</ele>
        <time>2021-08-12T09:15:49Z</time>
      </trkpt>
      <trkpt lat="47.28214" lon="6.86845">
        <ele>775.8</ele>
        <time>2021-08-12T09:15:56Z</time>
      </trkpt>
      <trkpt lat="47.28218" lon="6.86844">
        <ele>775.9</ele>
        <time>2021-08-12T09:16:02Z</time>
      </trkpt>
      <trkpt lat="47.28221" lon="6.86843">
        <ele>776</ele>
        <time>2021-08-12T09:20:23Z</time>
      </trkpt>
      <trkpt lat="47.28225" lon="6.86842">
        <ele>776</ele>
        <time>2021-08-12T09:20:24Z</time>
      </trkpt>
      <trkpt lat="47.28227" lon="6.86848">
        <ele>776.1</ele>
        <time>2021-08-12T09:20:25Z</time>
      </trkpt>
      <trkpt lat="47.28229" lon="6.86854">
        <ele>776.2</ele>
        <time>2021-08-12T09:20:26Z</time>
      </trkpt>
      <trkpt lat="47.28233" lon="6.86866">
        <ele>776.4</ele>
        <time>2021-08-12T09:20:28Z</time>
      </trkpt>
      <trkpt lat="47.28234" lon="6.8687">
        <ele>776.5</ele>
        <time>2021-08-12T09:20:29Z</time>
      </trkpt>
      <trkpt lat="47.28235" lon="6.86874">
        <ele>776.6</ele>
        <time>2021-08-12T09:20:30Z</time>
      </trkpt>
      <trkpt lat="47.28237" lon="6.86881">
        <ele>776.7</ele>
        <time>2021-08-12T09:20:32Z</time>
      </trkpt>
      <trkpt lat="47.28238" lon="6.86884">
        <ele>776.7</ele>
        <time>2021-08-12T09:20:34Z</time>
      </trkpt>
      <trkpt lat="47.28236" lon="6.86885">
        <ele>776.8</ele>
        <time>2021-08-12T09:20:35Z</time>
      </trkpt>
      <trkpt lat="47.28235" lon="6.86886">
        <ele>776.8</ele>
        <time>2021-08-12T09:20:37Z</time>
      </trkpt>
      <trkpt lat="47.28233" lon="6.86885">
        <ele>776.9</ele>
        <time>2021-08-12T09:20:39Z</time>
      </trkpt>
      <trkpt lat="47.28232" lon="6.86884">
        <ele>776.9</ele>
        <time>2021-08-12T09:20:41Z</time>
      </trkpt>
      <trkpt lat="47.28232" lon="6.86884">
        <ele>776.9</ele>
        <time>2021-08-12T09:20:42Z</time>
      </trkpt>
      <trkpt lat="47.28236" lon="6.8689">
        <ele>777.1</ele>
        <time>2021-08-12T09:21:21Z</time>
      </trkpt>
      <trkpt lat="47.28237" lon="6.86893">
        <ele>777.2</ele>
        <time>2021-08-12T09:21:22Z</time>
      </trkpt>
      <trkpt lat="47.28239" lon="6.86899">
        <ele>777.4</ele>
        <time>2021-08-12T09:21:24Z</time>
      </trkpt>
      <trkpt lat="47.28241" lon="6.86904">
        <ele>777.5</ele>
        <time>2021-08-12T09:21:25Z</time>
      </trkpt>
      <trkpt lat="47.28243" lon="6.86909">
        <ele>777.7</ele>
        <time>2021-08-12T09:21:26Z</time>
      </trkpt>
      <trkpt lat="47.28244" lon="6.86914">
        <ele>777.8</ele>
        <time>2021-08-12T09:21:28Z</time>
      </trkpt>
      <trkpt lat="47.28245" lon="6.86919">
        <ele>777.9</ele>
        <time>2021-08-12T09:21:29Z</time>
      </trkpt>
      <trkpt lat="47.28245" lon="6.8692">
        <ele>778</ele>
        <time>2021-08-12T09:21:30Z</time>
      </trkpt>
      <trkpt lat="47.28246" lon="6.86925">
        <ele>778.1</ele>
        <time>2021-08-12T09:21:31Z</time>
      </trkpt>
      <trkpt lat="47.28247" lon="6.86926">
        <ele>778.2</ele>
        <time>2021-08-12T09:21:32Z</time>
      </trkpt>
      <trkpt lat="47.28248" lon="6.8693">
        <ele>778.3</ele>
        <time>2021-08-12T09:21:33Z</time>
      </trkpt>
      <trkpt lat="47.28248" lon="6.86931">
        <ele>778.3</ele>
        <time>2021-08-12T09:21:34Z</time>
      </trkpt>
      <trkpt lat="47.28252" lon="6.86933">
        <ele>778.5</ele>
        <time>2021-08-12T09:21:35Z</time>
      </trkpt>
      <trkpt lat="47.28253" lon="6.86934">
        <ele>778.5</ele>
        <time>2021-08-12T09:21:36Z</time>
      </trkpt>
      <trkpt lat="47.28255" lon="6.86937">
        <ele>778.7</ele>
        <time>2021-08-12T09:21:38Z</time>
      </trkpt>
      <trkpt lat="47.28257" lon="6.86941">
        <ele>778.8</ele>
        <time>2021-08-12T09:21:39Z</time>
      </trkpt>
      <trkpt lat="47.28259" lon="6.86946">
        <ele>779</ele>
        <time>2021-08-12T09:21:40Z</time>
      </trkpt>
      <trkpt lat="47.2826" lon="6.86947">
        <ele>779</ele>
        <time>2021-08-12T09:21:41Z</time>
      </trkpt>
      <trkpt lat="47.28262" lon="6.86954">
        <ele>779.2</ele>
        <time>2021-08-12T09:21:43Z</time>
      </trkpt>
      <trkpt lat="47.28262" lon="6.86956">
        <ele>779.3</ele>
        <time>2021-08-12T09:21:44Z</time>
      </trkpt>
      <trkpt lat="47.28263" lon="6.86959">
        <ele>779.3</ele>
        <time>2021-08-12T09:21:45Z</time>
      </trkpt>
      <trkpt lat="47.28262" lon="6.86965">
        <ele>779.5</ele>
        <time>2021-08-12T09:21:46Z</time>
      </trkpt>
      <trkpt lat="47.28262" lon="6.86967">
        <ele>779.5</ele>
        <time>2021-08-12T09:21:47Z</time>
      </trkpt>
      <trkpt lat="47.28261" lon="6.86973">
        <ele>779.7</ele>
        <time>2021-08-12T09:21:49Z</time>
      </trkpt>
      <trkpt lat="47.28261" lon="6.86978">
        <ele>779.8</ele>
        <time>2021-08-12T09:21:50Z</time>
      </trkpt>
      <trkpt lat="47.28263" lon="6.86982">
        <ele>779.9</ele>
        <time>2021-08-12T09:21:51Z</time>
      </trkpt>
      <trkpt lat="47.28264" lon="6.86986">
        <ele>780</ele>
        <time>2021-08-12T09:21:53Z</time>
      </trkpt>
      <trkpt lat="47.28266" lon="6.86989">
        <ele>780.1</ele>
        <time>2021-08-12T09:21:54Z</time>
      </trkpt>
      <trkpt lat="47.28266" lon="6.86991">
        <ele>780.2</ele>
        <time>2021-08-12T09:21:55Z</time>
      </trkpt>
      <trkpt lat="47.28266" lon="6.86993">
        <ele>780.2</ele>
        <time>2021-08-12T09:21:56Z</time>
      </trkpt>
      <trkpt lat="47.28263" lon="6.86993">
        <ele>780.3</ele>
        <time>2021-08-12T09:21:58Z</time>
      </trkpt>
      <trkpt lat="47.28262" lon="6.86995">
        <ele>780.4</ele>
        <time>2021-08-12T09:21:59Z</time>
      </trkpt>
      <trkpt lat="47.28261" lon="6.86996">
        <ele>780.4</ele>
        <time>2021-08-12T09:22:00Z</time>
      </trkpt>
      <trkpt lat="47.2826" lon="6.87">
        <ele>780.5</ele>
        <time>2021-08-12T09:22:02Z</time>
      </trkpt>
      <trkpt lat="47.2826" lon="6.87003">
        <ele>780.6</ele>
        <time>2021-08-12T09:22:03Z</time>
      </trkpt>
      <trkpt lat="47.28261" lon="6.87009">
        <ele>780.8</ele>
        <time>2021-08-12T09:22:05Z</time>
      </trkpt>
      <trkpt lat="47.28262" lon="6.87015">
        <ele>780.9</ele>
        <time>2021-08-12T09:22:06Z</time>
      </trkpt>
      <trkpt lat="47.28262" lon="6.87016">
        <ele>780.9</ele>
        <time>2021-08-12T09:22:07Z</time>
      </trkpt>
      <trkpt lat="47.28263" lon="6.8702">
        <ele>781</ele>
        <time>2021-08-12T09:22:08Z</time>
      </trkpt>
      <trkpt lat="47.28262" lon="6.87025">
        <ele>781.2</ele>
        <time>2021-08-12T09:22:10Z</time>
      </trkpt>
      <trkpt lat="47.28258" lon="6.87029">
        <ele>781.3</ele>
        <time>2021-08-12T09:22:12Z</time>
      </trkpt>
      <trkpt lat="47.28257" lon="6.87033">
        <ele>781.4</ele>
        <time>2021-08-12T09:22:13Z</time>
      </trkpt>
      <trkpt lat="47.28256" lon="6.87039">
        <ele>781.6</ele>
        <time>2021-08-12T09:22:15Z</time>
      </trkpt>
      <trkpt lat="47.28255" lon="6.87044">
        <ele>781.7</ele>
        <time>2021-08-12T09:22:16Z</time>
      </trkpt>
      <trkpt lat="47.28253" lon="6.87049">
        <ele>781.8</ele>
        <time>2021-08-12T09:22:17Z</time>
      </trkpt>
      <trkpt lat="47.28252" lon="6.87053">
        <ele>781.8</ele>
        <time>2021-08-12T09:22:18Z</time>
      </trkpt>
      <trkpt lat="47.28251" lon="6.87058">
        <ele>781.9</ele>
        <time>2021-08-12T09:22:19Z</time>
      </trkpt>
      <trkpt lat="47.28251" lon="6.87062">
        <ele>782</ele>
        <time>2021-08-12T09:22:20Z</time>
      </trkpt>
      <trkpt lat="47.28251" lon="6.87067">
        <ele>782.1</ele>
        <time>2021-08-12T09:22:21Z</time>
      </trkpt>
      <trkpt lat="47.2825" lon="6.87071">
        <ele>782.1</ele>
        <time>2021-08-12T09:22:22Z</time>
      </trkpt>
      <trkpt lat="47.2825" lon="6.87078">
        <ele>782.2</ele>
        <time>2021-08-12T09:22:24Z</time>
      </trkpt>
      <trkpt lat="47.28252" lon="6.87084">
        <ele>782.3</ele>
        <time>2021-08-12T09:22:25Z</time>
      </trkpt>
      <trkpt lat="47.28252" lon="6.87086">
        <ele>782.4</ele>
        <time>2021-08-12T09:22:26Z</time>
      </trkpt>
      <trkpt lat="47.28255" lon="6.8709">
        <ele>782.5</ele>
        <time>2021-08-12T09:22:28Z</time>
      </trkpt>
      <trkpt lat="47.28258" lon="6.87094">
        <ele>782.6</ele>
        <time>2021-08-12T09:22:29Z</time>
      </trkpt>
      <trkpt lat="47.28258" lon="6.87096">
        <ele>782.6</ele>
        <time>2021-08-12T09:22:30Z</time>
      </trkpt>
      <trkpt lat="47.28261" lon="6.87098">
        <ele>782.7</ele>
        <time>2021-08-12T09:22:31Z</time>
      </trkpt>
      <trkpt lat="47.28261" lon="6.87099">
        <ele>782.7</ele>
        <time>2021-08-12T09:22:32Z</time>
      </trkpt>
      <trkpt lat="47.28265" lon="6.87099">
        <ele>782.8</ele>
        <time>2021-08-12T09:22:33Z</time>
      </trkpt>
      <trkpt lat="47.28266" lon="6.87099">
        <ele>782.8</ele>
        <time>2021-08-12T09:22:34Z</time>
      </trkpt>
      <trkpt lat="47.28269" lon="6.87102">
        <ele>783.3</ele>
        <time>2021-08-12T09:22:35Z</time>
      </trkpt>
      <trkpt lat="47.2827" lon="6.87103">
        <ele>783.3</ele>
        <time>2021-08-12T09:22:36Z</time>
      </trkpt>
      <trkpt lat="47.28273" lon="6.87107">
        <ele>783.5</ele>
        <time>2021-08-12T09:22:38Z</time>
      </trkpt>
      <trkpt lat="47.28275" lon="6.8711">
        <ele>783.6</ele>
        <time>2021-08-12T09:22:39Z</time>
      </trkpt>
      <trkpt lat="47.28277" lon="6.87113">
        <ele>783.7</ele>
        <time>2021-08-12T09:22:40Z</time>
      </trkpt>
      <trkpt lat="47.2828" lon="6.87117">
        <ele>783.9</ele>
        <time>2021-08-12T09:22:42Z</time>
      </trkpt>
      <trkpt lat="47.28282" lon="6.87121">
        <ele>784</ele>
        <time>2021-08-12T09:22:43Z</time>
      </trkpt>
      <trkpt lat="47.28283" lon="6.87122">
        <ele>784.1</ele>
        <time>2021-08-12T09:22:44Z</time>
      </trkpt>
      <trkpt lat="47.28283" lon="6.87127">
        <ele>784.3</ele>
        <time>2021-08-12T09:22:46Z</time>
      </trkpt>
      <trkpt lat="47.28284" lon="6.87129">
        <ele>784.4</ele>
        <time>2021-08-12T09:22:47Z</time>
      </trkpt>
      <trkpt lat="47.28285" lon="6.87133">
        <ele>784.5</ele>
        <time>2021-08-12T09:22:49Z</time>
      </trkpt>
      <trkpt lat="47.28285" lon="6.87136">
        <ele>784.6</ele>
        <time>2021-08-12T09:22:50Z</time>
      </trkpt>
      <trkpt lat="47.28285" lon="6.87141">
        <ele>784.8</ele>
        <time>2021-08-12T09:22:52Z</time>
      </trkpt>
      <trkpt lat="47.28284" lon="6.87146">
        <ele>785</ele>
        <time>2021-08-12T09:22:53Z</time>
      </trkpt>
      <trkpt lat="47.28283" lon="6.87147">
        <ele>785.1</ele>
        <time>2021-08-12T09:22:54Z</time>
      </trkpt>
      <trkpt lat="47.28283" lon="6.87148">
        <ele>785.1</ele>
        <time>2021-08-12T09:22:56Z</time>
      </trkpt>
      <trkpt lat="47.28283" lon="6.87149">
        <ele>785.2</ele>
        <time>2021-08-12T09:22:57Z</time>
      </trkpt>
      <trkpt lat="47.28284" lon="6.87152">
        <ele>785.3</ele>
        <time>2021-08-12T09:22:58Z</time>
      </trkpt>
      <trkpt lat="47.28285" lon="6.87153">
        <ele>785.4</ele>
        <time>2021-08-12T09:22:59Z</time>
      </trkpt>
      <trkpt lat="47.28286" lon="6.87154">
        <ele>785.5</ele>
        <time>2021-08-12T09:23:00Z</time>
      </trkpt>
      <trkpt lat="47.28289" lon="6.87155">
        <ele>785.7</ele>
        <time>2021-08-12T09:23:01Z</time>
      </trkpt>
      <trkpt lat="47.28293" lon="6.87157">
        <ele>785.9</ele>
        <time>2021-08-12T09:23:03Z</time>
      </trkpt>
      <trkpt lat="47.28298" lon="6.87158">
        <ele>786.2</ele>
        <time>2021-08-12T09:23:04Z</time>
      </trkpt>
      <trkpt lat="47.28305" lon="6.87161">
        <ele>786.6</ele>
        <time>2021-08-12T09:23:06Z</time>
      </trkpt>
      <trkpt lat="47.2831" lon="6.87163">
        <ele>786.8</ele>
        <time>2021-08-12T09:23:08Z</time>
      </trkpt>
      <trkpt lat="47.28315" lon="6.87167">
        <ele>786.9</ele>
        <time>2021-08-12T09:23:10Z</time>
      </trkpt>
      <trkpt lat="47.28318" lon="6.8717">
        <ele>786.9</ele>
        <time>2021-08-12T09:23:11Z</time>
      </trkpt>
      <trkpt lat="47.28321" lon="6.87173">
        <ele>787</ele>
        <time>2021-08-12T09:23:12Z</time>
      </trkpt>
      <trkpt lat="47.28325" lon="6.87176">
        <ele>787</ele>
        <time>2021-08-12T09:23:13Z</time>
      </trkpt>
      <trkpt lat="47.28328" lon="6.8718">
        <ele>787.1</ele>
        <time>2021-08-12T09:23:14Z</time>
      </trkpt>
      <trkpt lat="47.28336" lon="6.87186">
        <ele>787.1</ele>
        <time>2021-08-12T09:23:16Z</time>
      </trkpt>
      <trkpt lat="47.28343" lon="6.87195">
        <ele>787.1</ele>
        <time>2021-08-12T09:23:18Z</time>
      </trkpt>
      <trkpt lat="47.28346" lon="6.87199">
        <ele>787.1</ele>
        <time>2021-08-12T09:23:19Z</time>
      </trkpt>
      <trkpt lat="47.2835" lon="6.87203">
        <ele>787.1</ele>
        <time>2021-08-12T09:23:20Z</time>
      </trkpt>
      <trkpt lat="47.28354" lon="6.8721">
        <ele>787</ele>
        <time>2021-08-12T09:23:22Z</time>
      </trkpt>
      <trkpt lat="47.28357" lon="6.87214">
        <ele>787</ele>
        <time>2021-08-12T09:23:23Z</time>
      </trkpt>
      <trkpt lat="47.2836" lon="6.87218">
        <ele>786.9</ele>
        <time>2021-08-12T09:23:24Z</time>
      </trkpt>
      <trkpt lat="47.28363" lon="6.87221">
        <ele>786.9</ele>
        <time>2021-08-12T09:23:25Z</time>
      </trkpt>
      <trkpt lat="47.28366" lon="6.87222">
        <ele>786.9</ele>
        <time>2021-08-12T09:23:26Z</time>
      </trkpt>
      <trkpt lat="47.28371" lon="6.8722">
        <ele>786.8</ele>
        <time>2021-08-12T09:23:28Z</time>
      </trkpt>
      <trkpt lat="47.28374" lon="6.87219">
        <ele>786.8</ele>
        <time>2021-08-12T09:23:29Z</time>
      </trkpt>
      <trkpt lat="47.28382" lon="6.87221">
        <ele>786.7</ele>
        <time>2021-08-12T09:23:30Z</time>
      </trkpt>
      <trkpt lat="47.28388" lon="6.87225">
        <ele>786.7</ele>
        <time>2021-08-12T09:23:32Z</time>
      </trkpt>
      <trkpt lat="47.28393" lon="6.87244">
        <ele>786.6</ele>
        <time>2021-08-12T09:23:34Z</time>
      </trkpt>
      <trkpt lat="47.28396" lon="6.87255">
        <ele>786.5</ele>
        <time>2021-08-12T09:23:35Z</time>
      </trkpt>
      <trkpt lat="47.28399" lon="6.87265">
        <ele>786.4</ele>
        <time>2021-08-12T09:23:36Z</time>
      </trkpt>
      <trkpt lat="47.28405" lon="6.8728">
        <ele>786</ele>
        <time>2021-08-12T09:23:38Z</time>
      </trkpt>
      <trkpt lat="47.28409" lon="6.87287">
        <ele>785.7</ele>
        <time>2021-08-12T09:23:40Z</time>
      </trkpt>
      <trkpt lat="47.28409" lon="6.87283">
        <ele>785.6</ele>
        <time>2021-08-12T09:23:41Z</time>
      </trkpt>
      <trkpt lat="47.28412" lon="6.87295">
        <ele>785.1</ele>
        <time>2021-08-12T09:23:42Z</time>
      </trkpt>
      <trkpt lat="47.28417" lon="6.87314">
        <ele>784.4</ele>
        <time>2021-08-12T09:23:44Z</time>
      </trkpt>
      <trkpt lat="47.28422" lon="6.8733">
        <ele>783.8</ele>
        <time>2021-08-12T09:23:46Z</time>
      </trkpt>
      <trkpt lat="47.28428" lon="6.87345">
        <ele>783.1</ele>
        <time>2021-08-12T09:23:48Z</time>
      </trkpt>
      <trkpt lat="47.28431" lon="6.87353">
        <ele>782.8</ele>
        <time>2021-08-12T09:23:49Z</time>
      </trkpt>
      <trkpt lat="47.28434" lon="6.8736">
        <ele>782.5</ele>
        <time>2021-08-12T09:23:50Z</time>
      </trkpt>
      <trkpt lat="47.28441" lon="6.87376">
        <ele>781.8</ele>
        <time>2021-08-12T09:23:52Z</time>
      </trkpt>
      <trkpt lat="47.28446" lon="6.87394">
        <ele>780.9</ele>
        <time>2021-08-12T09:23:54Z</time>
      </trkpt>
      <trkpt lat="47.28447" lon="6.87403">
        <ele>780.4</ele>
        <time>2021-08-12T09:23:55Z</time>
      </trkpt>
      <trkpt lat="47.28447" lon="6.87414">
        <ele>779.9</ele>
        <time>2021-08-12T09:23:56Z</time>
      </trkpt>
      <trkpt lat="47.28444" lon="6.87437">
        <ele>778.9</ele>
        <time>2021-08-12T09:23:58Z</time>
      </trkpt>
      <trkpt lat="47.28441" lon="6.8745">
        <ele>778.3</ele>
        <time>2021-08-12T09:23:59Z</time>
      </trkpt>
      <trkpt lat="47.28438" lon="6.87464">
        <ele>777.8</ele>
        <time>2021-08-12T09:24:00Z</time>
      </trkpt>
      <trkpt lat="47.28436" lon="6.8749">
        <ele>776.9</ele>
        <time>2021-08-12T09:24:02Z</time>
      </trkpt>
      <trkpt lat="47.28434" lon="6.87503">
        <ele>776.6</ele>
        <time>2021-08-12T09:24:03Z</time>
      </trkpt>
      <trkpt lat="47.28433" lon="6.87516">
        <ele>776.2</ele>
        <time>2021-08-12T09:24:04Z</time>
      </trkpt>
      <trkpt lat="47.28428" lon="6.87546">
        <ele>775.5</ele>
        <time>2021-08-12T09:24:06Z</time>
      </trkpt>
      <trkpt lat="47.28426" lon="6.87559">
        <ele>775.3</ele>
        <time>2021-08-12T09:24:07Z</time>
      </trkpt>
      <trkpt lat="47.28424" lon="6.87572">
        <ele>775</ele>
        <time>2021-08-12T09:24:08Z</time>
      </trkpt>
      <trkpt lat="47.28418" lon="6.87598">
        <ele>774.4</ele>
        <time>2021-08-12T09:24:10Z</time>
      </trkpt>
      <trkpt lat="47.28415" lon="6.87611">
        <ele>774.1</ele>
        <time>2021-08-12T09:24:11Z</time>
      </trkpt>
      <trkpt lat="47.28413" lon="6.87623">
        <ele>773.8</ele>
        <time>2021-08-12T09:24:12Z</time>
      </trkpt>
      <trkpt lat="47.2841" lon="6.87646">
        <ele>773.3</ele>
        <time>2021-08-12T09:24:14Z</time>
      </trkpt>
      <trkpt lat="47.2841" lon="6.87666">
        <ele>772.7</ele>
        <time>2021-08-12T09:24:16Z</time>
      </trkpt>
      <trkpt lat="47.2841" lon="6.87676">
        <ele>772.4</ele>
        <time>2021-08-12T09:24:17Z</time>
      </trkpt>
      <trkpt lat="47.28408" lon="6.87687">
        <ele>772.1</ele>
        <time>2021-08-12T09:24:18Z</time>
      </trkpt>
      <trkpt lat="47.28407" lon="6.87709">
        <ele>771.4</ele>
        <time>2021-08-12T09:24:20Z</time>
      </trkpt>
      <trkpt lat="47.28409" lon="6.8773">
        <ele>770.5</ele>
        <time>2021-08-12T09:24:22Z</time>
      </trkpt>
      <trkpt lat="47.2841" lon="6.87741">
        <ele>770</ele>
        <time>2021-08-12T09:24:23Z</time>
      </trkpt>
      <trkpt lat="47.28413" lon="6.87762">
        <ele>769.1</ele>
        <time>2021-08-12T09:24:25Z</time>
      </trkpt>
      <trkpt lat="47.28415" lon="6.87773">
        <ele>768.6</ele>
        <time>2021-08-12T09:24:26Z</time>
      </trkpt>
      <trkpt lat="47.28418" lon="6.87795">
        <ele>767.8</ele>
        <time>2021-08-12T09:24:28Z</time>
      </trkpt>
      <trkpt lat="47.28421" lon="6.87803">
        <ele>767.5</ele>
        <time>2021-08-12T09:24:29Z</time>
      </trkpt>
      <trkpt lat="47.28425" lon="6.87812">
        <ele>767.3</ele>
        <time>2021-08-12T09:24:30Z</time>
      </trkpt>
      <trkpt lat="47.28433" lon="6.87834">
        <ele>766.9</ele>
        <time>2021-08-12T09:24:32Z</time>
      </trkpt>
      <trkpt lat="47.2844" lon="6.87846">
        <ele>766.8</ele>
        <time>2021-08-12T09:24:33Z</time>
      </trkpt>
      <trkpt lat="47.28449" lon="6.87867">
        <ele>766.8</ele>
        <time>2021-08-12T09:24:35Z</time>
      </trkpt>
      <trkpt lat="47.28454" lon="6.87879">
        <ele>766.9</ele>
        <time>2021-08-12T09:24:36Z</time>
      </trkpt>
      <trkpt lat="47.28461" lon="6.87902">
        <ele>767.1</ele>
        <time>2021-08-12T09:24:38Z</time>
      </trkpt>
      <trkpt lat="47.28465" lon="6.87927">
        <ele>767.6</ele>
        <time>2021-08-12T09:24:40Z</time>
      </trkpt>
      <trkpt lat="47.28467" lon="6.87938">
        <ele>767.8</ele>
        <time>2021-08-12T09:24:41Z</time>
      </trkpt>
      <trkpt lat="47.28469" lon="6.87962">
        <ele>768.4</ele>
        <time>2021-08-12T09:24:43Z</time>
      </trkpt>
      <trkpt lat="47.2847" lon="6.87973">
        <ele>768.8</ele>
        <time>2021-08-12T09:24:44Z</time>
      </trkpt>
      <trkpt lat="47.28473" lon="6.87988">
        <ele>769.2</ele>
        <time>2021-08-12T09:24:46Z</time>
      </trkpt>
      <trkpt lat="47.28474" lon="6.87994">
        <ele>769.4</ele>
        <time>2021-08-12T09:24:47Z</time>
      </trkpt>
      <trkpt lat="47.28475" lon="6.88001">
        <ele>769.6</ele>
        <time>2021-08-12T09:24:48Z</time>
      </trkpt>
      <trkpt lat="47.28476" lon="6.88005">
        <ele>769.8</ele>
        <time>2021-08-12T09:24:49Z</time>
      </trkpt>
      <trkpt lat="47.28476" lon="6.8801">
        <ele>769.9</ele>
        <time>2021-08-12T09:24:50Z</time>
      </trkpt>
      <trkpt lat="47.28478" lon="6.88021">
        <ele>770.3</ele>
        <time>2021-08-12T09:24:52Z</time>
      </trkpt>
      <trkpt lat="47.28479" lon="6.8803">
        <ele>770.5</ele>
        <time>2021-08-12T09:24:54Z</time>
      </trkpt>
      <trkpt lat="47.2848" lon="6.88035">
        <ele>770.6</ele>
        <time>2021-08-12T09:24:55Z</time>
      </trkpt>
      <trkpt lat="47.2848" lon="6.88039">
        <ele>770.8</ele>
        <time>2021-08-12T09:24:56Z</time>
      </trkpt>
      <trkpt lat="47.2848" lon="6.88049">
        <ele>771</ele>
        <time>2021-08-12T09:24:58Z</time>
      </trkpt>
      <trkpt lat="47.2848" lon="6.88054">
        <ele>771.1</ele>
        <time>2021-08-12T09:24:59Z</time>
      </trkpt>
      <trkpt lat="47.28481" lon="6.8806">
        <ele>771.3</ele>
        <time>2021-08-12T09:25:00Z</time>
      </trkpt>
      <trkpt lat="47.28481" lon="6.88066">
        <ele>771.4</ele>
        <time>2021-08-12T09:25:02Z</time>
      </trkpt>
      <trkpt lat="47.28482" lon="6.88071">
        <ele>771.5</ele>
        <time>2021-08-12T09:25:03Z</time>
      </trkpt>
      <trkpt lat="47.28483" lon="6.88079">
        <ele>771.7</ele>
        <time>2021-08-12T09:25:04Z</time>
      </trkpt>
      <trkpt lat="47.28484" lon="6.88084">
        <ele>771.8</ele>
        <time>2021-08-12T09:25:05Z</time>
      </trkpt>
      <trkpt lat="47.28485" lon="6.88091">
        <ele>772</ele>
        <time>2021-08-12T09:25:06Z</time>
      </trkpt>
      <trkpt lat="47.28486" lon="6.88097">
        <ele>772.1</ele>
        <time>2021-08-12T09:25:08Z</time>
      </trkpt>
      <trkpt lat="47.28486" lon="6.88102">
        <ele>772.2</ele>
        <time>2021-08-12T09:25:09Z</time>
      </trkpt>
      <trkpt lat="47.28487" lon="6.88107">
        <ele>772.3</ele>
        <time>2021-08-12T09:25:10Z</time>
      </trkpt>
      <trkpt lat="47.28488" lon="6.88112">
        <ele>772.4</ele>
        <time>2021-08-12T09:25:11Z</time>
      </trkpt>
      <trkpt lat="47.28489" lon="6.88117">
        <ele>772.5</ele>
        <time>2021-08-12T09:25:12Z</time>
      </trkpt>
      <trkpt lat="47.28489" lon="6.88121">
        <ele>772.6</ele>
        <time>2021-08-12T09:25:13Z</time>
      </trkpt>
      <trkpt lat="47.2849" lon="6.88126">
        <ele>772.7</ele>
        <time>2021-08-12T09:25:14Z</time>
      </trkpt>
      <trkpt lat="47.2849" lon="6.88132">
        <ele>772.8</ele>
        <time>2021-08-12T09:25:16Z</time>
      </trkpt>
      <trkpt lat="47.28491" lon="6.88139">
        <ele>772.9</ele>
        <time>2021-08-12T09:25:17Z</time>
      </trkpt>
      <trkpt lat="47.28492" lon="6.88143">
        <ele>773</ele>
        <time>2021-08-12T09:25:18Z</time>
      </trkpt>
      <trkpt lat="47.28493" lon="6.88152">
        <ele>773.1</ele>
        <time>2021-08-12T09:25:20Z</time>
      </trkpt>
      <trkpt lat="47.28493" lon="6.88156">
        <ele>773.1</ele>
        <time>2021-08-12T09:25:21Z</time>
      </trkpt>
      <trkpt lat="47.28494" lon="6.8816">
        <ele>773.2</ele>
        <time>2021-08-12T09:25:22Z</time>
      </trkpt>
      <trkpt lat="47.28495" lon="6.88166">
        <ele>773.3</ele>
        <time>2021-08-12T09:25:24Z</time>
      </trkpt>
      <trkpt lat="47.28496" lon="6.88171">
        <ele>773.4</ele>
        <time>2021-08-12T09:25:25Z</time>
      </trkpt>
      <trkpt lat="47.28495" lon="6.88176">
        <ele>773.5</ele>
        <time>2021-08-12T09:25:26Z</time>
      </trkpt>
      <trkpt lat="47.28495" lon="6.8818">
        <ele>773.5</ele>
        <time>2021-08-12T09:25:27Z</time>
      </trkpt>
      <trkpt lat="47.28495" lon="6.88188">
        <ele>773.7</ele>
        <time>2021-08-12T09:25:29Z</time>
      </trkpt>
      <trkpt lat="47.28495" lon="6.88194">
        <ele>773.8</ele>
        <time>2021-08-12T09:25:30Z</time>
      </trkpt>
      <trkpt lat="47.28497" lon="6.88198">
        <ele>773.8</ele>
        <time>2021-08-12T09:25:32Z</time>
      </trkpt>
      <trkpt lat="47.28498" lon="6.88202">
        <ele>773.9</ele>
        <time>2021-08-12T09:25:33Z</time>
      </trkpt>
      <trkpt lat="47.285" lon="6.88209">
        <ele>774</ele>
        <time>2021-08-12T09:25:34Z</time>
      </trkpt>
      <trkpt lat="47.28501" lon="6.88211">
        <ele>774.1</ele>
        <time>2021-08-12T09:25:35Z</time>
      </trkpt>
      <trkpt lat="47.28502" lon="6.88216">
        <ele>774.2</ele>
        <time>2021-08-12T09:25:36Z</time>
      </trkpt>
      <trkpt lat="47.28503" lon="6.88218">
        <ele>774.2</ele>
        <time>2021-08-12T09:25:37Z</time>
      </trkpt>
      <trkpt lat="47.28503" lon="6.88221">
        <ele>774.2</ele>
        <time>2021-08-12T09:25:38Z</time>
      </trkpt>
      <trkpt lat="47.28502" lon="6.88227">
        <ele>774.3</ele>
        <time>2021-08-12T09:25:40Z</time>
      </trkpt>
      <trkpt lat="47.28501" lon="6.88231">
        <ele>774.4</ele>
        <time>2021-08-12T09:25:42Z</time>
      </trkpt>
      <trkpt lat="47.28501" lon="6.88236">
        <ele>774.5</ele>
        <time>2021-08-12T09:25:43Z</time>
      </trkpt>
      <trkpt lat="47.285" lon="6.88241">
        <ele>774.6</ele>
        <time>2021-08-12T09:25:44Z</time>
      </trkpt>
      <trkpt lat="47.285" lon="6.88245">
        <ele>774.6</ele>
        <time>2021-08-12T09:25:45Z</time>
      </trkpt>
      <trkpt lat="47.28501" lon="6.8825">
        <ele>774.7</ele>
        <time>2021-08-12T09:25:46Z</time>
      </trkpt>
      <trkpt lat="47.28501" lon="6.88252">
        <ele>774.7</ele>
        <time>2021-08-12T09:25:47Z</time>
      </trkpt>
      <trkpt lat="47.28502" lon="6.88256">
        <ele>774.8</ele>
        <time>2021-08-12T09:25:48Z</time>
      </trkpt>
      <trkpt lat="47.28503" lon="6.88262">
        <ele>774.9</ele>
        <time>2021-08-12T09:25:50Z</time>
      </trkpt>
      <trkpt lat="47.28504" lon="6.88266">
        <ele>774.9</ele>
        <time>2021-08-12T09:25:51Z</time>
      </trkpt>
      <trkpt lat="47.28504" lon="6.8827">
        <ele>775</ele>
        <time>2021-08-12T09:25:52Z</time>
      </trkpt>
      <trkpt lat="47.28505" lon="6.88274">
        <ele>775</ele>
        <time>2021-08-12T09:25:54Z</time>
      </trkpt>
      <trkpt lat="47.28505" lon="6.88278">
        <ele>775.1</ele>
        <time>2021-08-12T09:25:55Z</time>
      </trkpt>
      <trkpt lat="47.28506" lon="6.88284">
        <ele>775.2</ele>
        <time>2021-08-12T09:25:56Z</time>
      </trkpt>
      <trkpt lat="47.28508" lon="6.8829">
        <ele>775.3</ele>
        <time>2021-08-12T09:25:58Z</time>
      </trkpt>
      <trkpt lat="47.28508" lon="6.88296">
        <ele>775.3</ele>
        <time>2021-08-12T09:26:00Z</time>
      </trkpt>
      <trkpt lat="47.28509" lon="6.88301">
        <ele>775.4</ele>
        <time>2021-08-12T09:26:01Z</time>
      </trkpt>
      <trkpt lat="47.28508" lon="6.88305">
        <ele>775.5</ele>
        <time>2021-08-12T09:26:02Z</time>
      </trkpt>
      <trkpt lat="47.28508" lon="6.88311">
        <ele>775.5</ele>
        <time>2021-08-12T09:26:04Z</time>
      </trkpt>
      <trkpt lat="47.28508" lon="6.88316">
        <ele>775.6</ele>
        <time>2021-08-12T09:26:05Z</time>
      </trkpt>
      <trkpt lat="47.28509" lon="6.88321">
        <ele>775.7</ele>
        <time>2021-08-12T09:26:07Z</time>
      </trkpt>
      <trkpt lat="47.2851" lon="6.88327">
        <ele>775.8</ele>
        <time>2021-08-12T09:26:08Z</time>
      </trkpt>
      <trkpt lat="47.2851" lon="6.88335">
        <ele>775.9</ele>
        <time>2021-08-12T09:26:09Z</time>
      </trkpt>
      <trkpt lat="47.28509" lon="6.88343">
        <ele>776</ele>
        <time>2021-08-12T09:26:11Z</time>
      </trkpt>
      <trkpt lat="47.28508" lon="6.88346">
        <ele>776.1</ele>
        <time>2021-08-12T09:26:12Z</time>
      </trkpt>
      <trkpt lat="47.28508" lon="6.8835">
        <ele>776.2</ele>
        <time>2021-08-12T09:26:14Z</time>
      </trkpt>
      <trkpt lat="47.28509" lon="6.88354">
        <ele>776.2</ele>
        <time>2021-08-12T09:26:15Z</time>
      </trkpt>
      <trkpt lat="47.28508" lon="6.88355">
        <ele>776.3</ele>
        <time>2021-08-12T09:26:17Z</time>
      </trkpt>
      <trkpt lat="47.28508" lon="6.88356">
        <ele>776.3</ele>
        <time>2021-08-12T09:26:18Z</time>
      </trkpt>
      <trkpt lat="47.28508" lon="6.88357">
        <ele>776.3</ele>
        <time>2021-08-12T09:26:20Z</time>
      </trkpt>
      <trkpt lat="47.2851" lon="6.8836">
        <ele>776.4</ele>
        <time>2021-08-12T09:26:22Z</time>
      </trkpt>
      <trkpt lat="47.28512" lon="6.88365">
        <ele>776.5</ele>
        <time>2021-08-12T09:26:24Z</time>
      </trkpt>
      <trkpt lat="47.28518" lon="6.88395">
        <ele>777.1</ele>
        <time>2021-08-12T09:26:37Z</time>
      </trkpt>
      <trkpt lat="47.28519" lon="6.884">
        <ele>777.2</ele>
        <time>2021-08-12T09:26:38Z</time>
      </trkpt>
      <trkpt lat="47.2852" lon="6.88404">
        <ele>777.3</ele>
        <time>2021-08-12T09:26:39Z</time>
      </trkpt>
      <trkpt lat="47.28521" lon="6.88405">
        <ele>777.3</ele>
        <time>2021-08-12T09:26:40Z</time>
      </trkpt>
      <trkpt lat="47.28523" lon="6.8841">
        <ele>777.4</ele>
        <time>2021-08-12T09:26:42Z</time>
      </trkpt>
      <trkpt lat="47.28523" lon="6.88415">
        <ele>777.5</ele>
        <time>2021-08-12T09:26:43Z</time>
      </trkpt>
      <trkpt lat="47.28524" lon="6.88418">
        <ele>777.6</ele>
        <time>2021-08-12T09:26:44Z</time>
      </trkpt>
      <trkpt lat="47.28525" lon="6.88423">
        <ele>777.7</ele>
        <time>2021-08-12T09:26:46Z</time>
      </trkpt>
      <trkpt lat="47.28525" lon="6.88427">
        <ele>777.8</ele>
        <time>2021-08-12T09:26:47Z</time>
      </trkpt>
      <trkpt lat="47.28525" lon="6.88429">
        <ele>777.8</ele>
        <time>2021-08-12T09:26:48Z</time>
      </trkpt>
      <trkpt lat="47.28525" lon="6.88431">
        <ele>777.9</ele>
        <time>2021-08-12T09:26:49Z</time>
      </trkpt>
      <trkpt lat="47.28525" lon="6.88432">
        <ele>777.9</ele>
        <time>2021-08-12T09:26:51Z</time>
      </trkpt>
      <trkpt lat="47.28525" lon="6.88433">
        <ele>777.9</ele>
        <time>2021-08-12T09:26:52Z</time>
      </trkpt>
      <trkpt lat="47.28527" lon="6.88435">
        <ele>778</ele>
        <time>2021-08-12T09:26:54Z</time>
      </trkpt>
      <trkpt lat="47.28528" lon="6.88439">
        <ele>778.1</ele>
        <time>2021-08-12T09:26:55Z</time>
      </trkpt>
      <trkpt lat="47.28529" lon="6.88442">
        <ele>778.1</ele>
        <time>2021-08-12T09:26:56Z</time>
      </trkpt>
      <trkpt lat="47.2853" lon="6.88445">
        <ele>778.2</ele>
        <time>2021-08-12T09:26:57Z</time>
      </trkpt>
      <trkpt lat="47.28529" lon="6.88449">
        <ele>778.3</ele>
        <time>2021-08-12T09:26:58Z</time>
      </trkpt>
      <trkpt lat="47.2853" lon="6.88455">
        <ele>778.4</ele>
        <time>2021-08-12T09:27:00Z</time>
      </trkpt>
      <trkpt lat="47.2853" lon="6.88462">
        <ele>778.5</ele>
        <time>2021-08-12T09:27:01Z</time>
      </trkpt>
      <trkpt lat="47.28532" lon="6.8847">
        <ele>778.7</ele>
        <time>2021-08-12T09:27:03Z</time>
      </trkpt>
      <trkpt lat="47.28535" lon="6.88476">
        <ele>778.9</ele>
        <time>2021-08-12T09:27:05Z</time>
      </trkpt>
      <trkpt lat="47.28536" lon="6.88477">
        <ele>778.9</ele>
        <time>2021-08-12T09:27:06Z</time>
      </trkpt>
      <trkpt lat="47.28538" lon="6.88477">
        <ele>779</ele>
        <time>2021-08-12T09:27:07Z</time>
      </trkpt>
      <trkpt lat="47.28539" lon="6.88478">
        <ele>779</ele>
        <time>2021-08-12T09:27:08Z</time>
      </trkpt>
      <trkpt lat="47.28542" lon="6.88478">
        <ele>779.1</ele>
        <time>2021-08-12T09:27:10Z</time>
      </trkpt>
      <trkpt lat="47.28543" lon="6.88484">
        <ele>779.2</ele>
        <time>2021-08-12T09:27:12Z</time>
      </trkpt>
      <trkpt lat="47.28543" lon="6.88487">
        <ele>779.3</ele>
        <time>2021-08-12T09:27:13Z</time>
      </trkpt>
      <trkpt lat="47.28543" lon="6.88489">
        <ele>779.3</ele>
        <time>2021-08-12T09:27:14Z</time>
      </trkpt>
      <trkpt lat="47.28543" lon="6.88492">
        <ele>779.4</ele>
        <time>2021-08-12T09:27:15Z</time>
      </trkpt>
      <trkpt lat="47.28542" lon="6.885">
        <ele>779.5</ele>
        <time>2021-08-12T09:27:18Z</time>
      </trkpt>
      <trkpt lat="47.28542" lon="6.88505">
        <ele>779.6</ele>
        <time>2021-08-12T09:27:19Z</time>
      </trkpt>
      <trkpt lat="47.28541" lon="6.8851">
        <ele>779.7</ele>
        <time>2021-08-12T09:27:20Z</time>
      </trkpt>
      <trkpt lat="47.28538" lon="6.88519">
        <ele>779.9</ele>
        <time>2021-08-12T09:27:22Z</time>
      </trkpt>
      <trkpt lat="47.28536" lon="6.88524">
        <ele>780</ele>
        <time>2021-08-12T09:27:23Z</time>
      </trkpt>
      <trkpt lat="47.28535" lon="6.88529">
        <ele>780.2</ele>
        <time>2021-08-12T09:27:25Z</time>
      </trkpt>
      <trkpt lat="47.28536" lon="6.88534">
        <ele>780.3</ele>
        <time>2021-08-12T09:27:26Z</time>
      </trkpt>
      <trkpt lat="47.28538" lon="6.88538">
        <ele>780.4</ele>
        <time>2021-08-12T09:27:27Z</time>
      </trkpt>
      <trkpt lat="47.2854" lon="6.88543">
        <ele>780.5</ele>
        <time>2021-08-12T09:27:28Z</time>
      </trkpt>
      <trkpt lat="47.28542" lon="6.88545">
        <ele>780.6</ele>
        <time>2021-08-12T09:27:29Z</time>
      </trkpt>
      <trkpt lat="47.28542" lon="6.88545">
        <ele>780.6</ele>
        <time>2021-08-12T09:27:30Z</time>
      </trkpt>
      <trkpt lat="47.28549" lon="6.8855">
        <ele>780.8</ele>
        <time>2021-08-12T09:27:32Z</time>
      </trkpt>
      <trkpt lat="47.28553" lon="6.88553">
        <ele>780.9</ele>
        <time>2021-08-12T09:27:33Z</time>
      </trkpt>
      <trkpt lat="47.28456" lon="6.8906">
        <ele>812.6</ele>
        <time>2021-08-12T09:32:56Z</time>
      </trkpt>
      <trkpt lat="47.28453" lon="6.89063">
        <ele>812.8</ele>
        <time>2021-08-12T09:32:57Z</time>
      </trkpt>
      <trkpt lat="47.28449" lon="6.89063">
        <ele>812.9</ele>
        <time>2021-08-12T09:32:59Z</time>
      </trkpt>
      <trkpt lat="47.28448" lon="6.89063">
        <ele>813</ele>
        <time>2021-08-12T09:33:00Z</time>
      </trkpt>
      <trkpt lat="47.28443" lon="6.89063">
        <ele>813.2</ele>
        <time>2021-08-12T09:33:02Z</time>
      </trkpt>
      <trkpt lat="47.2844" lon="6.8906">
        <ele>813.4</ele>
        <time>2021-08-12T09:33:03Z</time>
      </trkpt>
      <trkpt lat="47.28438" lon="6.89059">
        <ele>813.5</ele>
        <time>2021-08-12T09:33:04Z</time>
      </trkpt>
      <trkpt lat="47.28438" lon="6.89059">
        <ele>813.5</ele>
        <time>2021-08-12T09:33:05Z</time>
      </trkpt>
      <trkpt lat="47.28438" lon="6.8906">
        <ele>813.5</ele>
        <time>2021-08-12T09:33:06Z</time>
      </trkpt>
      <trkpt lat="47.28439" lon="6.8906">
        <ele>813.6</ele>
        <time>2021-08-12T09:33:08Z</time>
      </trkpt>
      <trkpt lat="47.28441" lon="6.89061">
        <ele>813.6</ele>
        <time>2021-08-12T09:33:10Z</time>
      </trkpt>
      <trkpt lat="47.28441" lon="6.89061">
        <ele>813.6</ele>
        <time>2021-08-12T09:33:11Z</time>
      </trkpt>
      <trkpt lat="47.28442" lon="6.89062">
        <ele>813.7</ele>
        <time>2021-08-12T09:33:12Z</time>
      </trkpt>
      <trkpt lat="47.28443" lon="6.89063">
        <ele>813.7</ele>
        <time>2021-08-12T09:33:14Z</time>
      </trkpt>
      <trkpt lat="47.2843" lon="6.89079">
        <ele>815.4</ele>
        <time>2021-08-12T09:33:29Z</time>
      </trkpt>
      <trkpt lat="47.28427" lon="6.89081">
        <ele>815.4</ele>
        <time>2021-08-12T09:33:30Z</time>
      </trkpt>
      <trkpt lat="47.28424" lon="6.8908">
        <ele>815.5</ele>
        <time>2021-08-12T09:33:32Z</time>
      </trkpt>
      <trkpt lat="47.28424" lon="6.8908">
        <ele>815.5</ele>
        <time>2021-08-12T09:33:33Z</time>
      </trkpt>
      <trkpt lat="47.28423" lon="6.89079">
        <ele>815.6</ele>
        <time>2021-08-12T09:33:35Z</time>
      </trkpt>
      <trkpt lat="47.28422" lon="6.89079">
        <ele>815.6</ele>
        <time>2021-08-12T09:33:36Z</time>
      </trkpt>
      <trkpt lat="47.28421" lon="6.89079">
        <ele>815.6</ele>
        <time>2021-08-12T09:33:37Z</time>
      </trkpt>
      <trkpt lat="47.28418" lon="6.89078">
        <ele>815.7</ele>
        <time>2021-08-12T09:33:38Z</time>
      </trkpt>
      <trkpt lat="47.28416" lon="6.89079">
        <ele>815.7</ele>
        <time>2021-08-12T09:33:39Z</time>
      </trkpt>
      <trkpt lat="47.28413" lon="6.89079">
        <ele>815.8</ele>
        <time>2021-08-12T09:33:42Z</time>
      </trkpt>
      <trkpt lat="47.28411" lon="6.89079">
        <ele>815.8</ele>
        <time>2021-08-12T09:33:43Z</time>
      </trkpt>
      <trkpt lat="47.28409" lon="6.89079">
        <ele>815.8</ele>
        <time>2021-08-12T09:33:44Z</time>
      </trkpt>
      <trkpt lat="47.28406" lon="6.8908">
        <ele>815.8</ele>
        <time>2021-08-12T09:33:46Z</time>
      </trkpt>
      <trkpt lat="47.28404" lon="6.8908">
        <ele>815.8</ele>
        <time>2021-08-12T09:33:48Z</time>
      </trkpt>
      <trkpt lat="47.28401" lon="6.8908">
        <ele>815.9</ele>
        <time>2021-08-12T09:34:29Z</time>
      </trkpt>
      <trkpt lat="47.28399" lon="6.8908">
        <ele>815.9</ele>
        <time>2021-08-12T09:34:30Z</time>
      </trkpt>
      <trkpt lat="47.28394" lon="6.89079">
        <ele>815.9</ele>
        <time>2021-08-12T09:34:32Z</time>
      </trkpt>
      <trkpt lat="47.2839" lon="6.89078">
        <ele>815.9</ele>
        <time>2021-08-12T09:34:33Z</time>
      </trkpt>
      <trkpt lat="47.28385" lon="6.89075">
        <ele>815.9</ele>
        <time>2021-08-12T09:34:34Z</time>
      </trkpt>
      <trkpt lat="47.28382" lon="6.89074">
        <ele>815.9</ele>
        <time>2021-08-12T09:34:35Z</time>
      </trkpt>
      <trkpt lat="47.28378" lon="6.89072">
        <ele>815.9</ele>
        <time>2021-08-12T09:34:37Z</time>
      </trkpt>
      <trkpt lat="47.28375" lon="6.89071">
        <ele>815.8</ele>
        <time>2021-08-12T09:34:38Z</time>
      </trkpt>
      <trkpt lat="47.2837" lon="6.8907">
        <ele>815.8</ele>
        <time>2021-08-12T09:34:40Z</time>
      </trkpt>
      <trkpt lat="47.28367" lon="6.8907">
        <ele>815.7</ele>
        <time>2021-08-12T09:34:41Z</time>
      </trkpt>
      <trkpt lat="47.28364" lon="6.8907">
        <ele>815.7</ele>
        <time>2021-08-12T09:34:42Z</time>
      </trkpt>
      <trkpt lat="47.28361" lon="6.89071">
        <ele>815.6</ele>
        <time>2021-08-12T09:34:44Z</time>
      </trkpt>
      <trkpt lat="47.28358" lon="6.89071">
        <ele>815.5</ele>
        <time>2021-08-12T09:34:45Z</time>
      </trkpt>
      <trkpt lat="47.28355" lon="6.8907">
        <ele>815.5</ele>
        <time>2021-08-12T09:34:46Z</time>
      </trkpt>
      <trkpt lat="47.28352" lon="6.89069">
        <ele>815.4</ele>
        <time>2021-08-12T09:34:48Z</time>
      </trkpt>
      <trkpt lat="47.28348" lon="6.8907">
        <ele>815.3</ele>
        <time>2021-08-12T09:34:49Z</time>
      </trkpt>
      <trkpt lat="47.28345" lon="6.8907">
        <ele>815.2</ele>
        <time>2021-08-12T09:34:50Z</time>
      </trkpt>
      <trkpt lat="47.2834" lon="6.8907">
        <ele>815</ele>
        <time>2021-08-12T09:34:52Z</time>
      </trkpt>
      <trkpt lat="47.28336" lon="6.89071">
        <ele>814.8</ele>
        <time>2021-08-12T09:34:53Z</time>
      </trkpt>
      <trkpt lat="47.28332" lon="6.89071">
        <ele>814.6</ele>
        <time>2021-08-12T09:34:54Z</time>
      </trkpt>
      <trkpt lat="47.28327" lon="6.89071">
        <ele>814.3</ele>
        <time>2021-08-12T09:34:55Z</time>
      </trkpt>
      <trkpt lat="47.28323" lon="6.89072">
        <ele>814.1</ele>
        <time>2021-08-12T09:34:56Z</time>
      </trkpt>
      <trkpt lat="47.28316" lon="6.89072">
        <ele>813.8</ele>
        <time>2021-08-12T09:34:58Z</time>
      </trkpt>
      <trkpt lat="47.28312" lon="6.89072">
        <ele>813.6</ele>
        <time>2021-08-12T09:34:59Z</time>
      </trkpt>
      <trkpt lat="47.28309" lon="6.89072">
        <ele>813.4</ele>
        <time>2021-08-12T09:35:00Z</time>
      </trkpt>
      <trkpt lat="47.28306" lon="6.89073">
        <ele>813.2</ele>
        <time>2021-08-12T09:35:01Z</time>
      </trkpt>
      <trkpt lat="47.28301" lon="6.89073">
        <ele>812.8</ele>
        <time>2021-08-12T09:35:03Z</time>
      </trkpt>
      <trkpt lat="47.28297" lon="6.89072">
        <ele>812.5</ele>
        <time>2021-08-12T09:35:04Z</time>
      </trkpt>
      <trkpt lat="47.28293" lon="6.89071">
        <ele>812.3</ele>
        <time>2021-08-12T09:35:05Z</time>
      </trkpt>
      <trkpt lat="47.2829" lon="6.8907">
        <ele>812.1</ele>
        <time>2021-08-12T09:35:06Z</time>
      </trkpt>
      <trkpt lat="47.28287" lon="6.89069">
        <ele>811.8</ele>
        <time>2021-08-12T09:35:07Z</time>
      </trkpt>
      <trkpt lat="47.28284" lon="6.89069">
        <ele>811.6</ele>
        <time>2021-08-12T09:35:08Z</time>
      </trkpt>
      <trkpt lat="47.2828" lon="6.89068">
        <ele>811.2</ele>
        <time>2021-08-12T09:35:10Z</time>
      </trkpt>
      <trkpt lat="47.28277" lon="6.89069">
        <ele>810.9</ele>
        <time>2021-08-12T09:35:11Z</time>
      </trkpt>
      <trkpt lat="47.28273" lon="6.8907">
        <ele>810.5</ele>
        <time>2021-08-12T09:35:12Z</time>
      </trkpt>
      <trkpt lat="47.28268" lon="6.89071">
        <ele>809.9</ele>
        <time>2021-08-12T09:35:14Z</time>
      </trkpt>
      <trkpt lat="47.28264" lon="6.89072">
        <ele>809.4</ele>
        <time>2021-08-12T09:35:15Z</time>
      </trkpt>
      <trkpt lat="47.2826" lon="6.89073">
        <ele>808.9</ele>
        <time>2021-08-12T09:35:16Z</time>
      </trkpt>
      <trkpt lat="47.28254" lon="6.89074">
        <ele>808.2</ele>
        <time>2021-08-12T09:35:18Z</time>
      </trkpt>
      <trkpt lat="47.28249" lon="6.89077">
        <ele>807.6</ele>
        <time>2021-08-12T09:35:19Z</time>
      </trkpt>
      <trkpt lat="47.28245" lon="6.89081">
        <ele>807</ele>
        <time>2021-08-12T09:35:21Z</time>
      </trkpt>
      <trkpt lat="47.28243" lon="6.89085">
        <ele>806.7</ele>
        <time>2021-08-12T09:35:22Z</time>
      </trkpt>
      <trkpt lat="47.28242" lon="6.89089">
        <ele>806.3</ele>
        <time>2021-08-12T09:35:23Z</time>
      </trkpt>
      <trkpt lat="47.28239" lon="6.89095">
        <ele>805.7</ele>
        <time>2021-08-12T09:35:25Z</time>
      </trkpt>
      <trkpt lat="47.28235" lon="6.89098">
        <ele>805.1</ele>
        <time>2021-08-12T09:35:26Z</time>
      </trkpt>
      <trkpt lat="47.2823" lon="6.89102">
        <ele>804.4</ele>
        <time>2021-08-12T09:35:28Z</time>
      </trkpt>
      <trkpt lat="47.28228" lon="6.89105">
        <ele>804</ele>
        <time>2021-08-12T09:35:29Z</time>
      </trkpt>
      <trkpt lat="47.28226" lon="6.89108">
        <ele>803.6</ele>
        <time>2021-08-12T09:35:30Z</time>
      </trkpt>
      <trkpt lat="47.28223" lon="6.8911">
        <ele>803.1</ele>
        <time>2021-08-12T09:35:31Z</time>
      </trkpt>
      <trkpt lat="47.28221" lon="6.8911">
        <ele>803</ele>
        <time>2021-08-12T09:35:32Z</time>
      </trkpt>
      <trkpt lat="47.28218" lon="6.89114">
        <ele>802.4</ele>
        <time>2021-08-12T09:35:34Z</time>
      </trkpt>
      <trkpt lat="47.28217" lon="6.89116">
        <ele>802.1</ele>
        <time>2021-08-12T09:35:35Z</time>
      </trkpt>
      <trkpt lat="47.28216" lon="6.89118">
        <ele>802</ele>
        <time>2021-08-12T09:35:36Z</time>
      </trkpt>
      <trkpt lat="47.28216" lon="6.8912">
        <ele>801.8</ele>
        <time>2021-08-12T09:35:37Z</time>
      </trkpt>
      <trkpt lat="47.28214" lon="6.89122">
        <ele>801.6</ele>
        <time>2021-08-12T09:35:38Z</time>
      </trkpt>
      <trkpt lat="47.28212" lon="6.8913">
        <ele>801</ele>
        <time>2021-08-12T09:35:40Z</time>
      </trkpt>
      <trkpt lat="47.28207" lon="6.89136">
        <ele>800.4</ele>
        <time>2021-08-12T09:35:41Z</time>
      </trkpt>
      <trkpt lat="47.28204" lon="6.89142">
        <ele>800</ele>
        <time>2021-08-12T09:35:42Z</time>
      </trkpt>
      <trkpt lat="47.28199" lon="6.89152">
        <ele>799.6</ele>
        <time>2021-08-12T09:35:44Z</time>
      </trkpt>
      <trkpt lat="47.28197" lon="6.89159">
        <ele>799.5</ele>
        <time>2021-08-12T09:35:46Z</time>
      </trkpt>
      <trkpt lat="47.28197" lon="6.89165">
        <ele>799.4</ele>
        <time>2021-08-12T09:35:47Z</time>
      </trkpt>
      <trkpt lat="47.28198" lon="6.89172">
        <ele>799.3</ele>
        <time>2021-08-12T09:35:49Z</time>
      </trkpt>
      <trkpt lat="47.28196" lon="6.8918">
        <ele>799.2</ele>
        <time>2021-08-12T09:35:50Z</time>
      </trkpt>
      <trkpt lat="47.28195" lon="6.89189">
        <ele>799.1</ele>
        <time>2021-08-12T09:35:52Z</time>
      </trkpt>
      <trkpt lat="47.28196" lon="6.89201">
        <ele>799.1</ele>
        <time>2021-08-12T09:35:53Z</time>
      </trkpt>
      <trkpt lat="47.28196" lon="6.89213">
        <ele>799.1</ele>
        <time>2021-08-12T09:35:55Z</time>
      </trkpt>
      <trkpt lat="47.28197" lon="6.89219">
        <ele>799.1</ele>
        <time>2021-08-12T09:35:56Z</time>
      </trkpt>
      <trkpt lat="47.28197" lon="6.89225">
        <ele>799.1</ele>
        <time>2021-08-12T09:35:57Z</time>
      </trkpt>
      <trkpt lat="47.28196" lon="6.89232">
        <ele>799.2</ele>
        <time>2021-08-12T09:35:58Z</time>
      </trkpt>
      <trkpt lat="47.28194" lon="6.89239">
        <ele>799.2</ele>
        <time>2021-08-12T09:35:59Z</time>
      </trkpt>
      <trkpt lat="47.28193" lon="6.89248">
        <ele>799.3</ele>
        <time>2021-08-12T09:36:01Z</time>
      </trkpt>
      <trkpt lat="47.28194" lon="6.89252">
        <ele>799.3</ele>
        <time>2021-08-12T09:36:02Z</time>
      </trkpt>
      <trkpt lat="47.28194" lon="6.89256">
        <ele>799.4</ele>
        <time>2021-08-12T09:36:04Z</time>
      </trkpt>
      <trkpt lat="47.28193" lon="6.89258">
        <ele>799.4</ele>
        <time>2021-08-12T09:36:05Z</time>
      </trkpt>
      <trkpt lat="47.28191" lon="6.89262">
        <ele>799.4</ele>
        <time>2021-08-12T09:36:07Z</time>
      </trkpt>
      <trkpt lat="47.28188" lon="6.89263">
        <ele>799.5</ele>
        <time>2021-08-12T09:36:08Z</time>
      </trkpt>
      <trkpt lat="47.28186" lon="6.89264">
        <ele>799.5</ele>
        <time>2021-08-12T09:36:09Z</time>
      </trkpt>
      <trkpt lat="47.2818" lon="6.89268">
        <ele>799.6</ele>
        <time>2021-08-12T09:36:11Z</time>
      </trkpt>
      <trkpt lat="47.28177" lon="6.89273">
        <ele>799.7</ele>
        <time>2021-08-12T09:36:12Z</time>
      </trkpt>
      <trkpt lat="47.28176" lon="6.89274">
        <ele>799.7</ele>
        <time>2021-08-12T09:36:13Z</time>
      </trkpt>
      <trkpt lat="47.28174" lon="6.89278">
        <ele>799.8</ele>
        <time>2021-08-12T09:36:14Z</time>
      </trkpt>
      <trkpt lat="47.28168" lon="6.89284">
        <ele>800.3</ele>
        <time>2021-08-12T09:36:16Z</time>
      </trkpt>
      <trkpt lat="47.28164" lon="6.89287">
        <ele>800.6</ele>
        <time>2021-08-12T09:36:17Z</time>
      </trkpt>
      <trkpt lat="47.28162" lon="6.8929">
        <ele>800.9</ele>
        <time>2021-08-12T09:36:18Z</time>
      </trkpt>
      <trkpt lat="47.28159" lon="6.89292">
        <ele>801.3</ele>
        <time>2021-08-12T09:36:19Z</time>
      </trkpt>
      <trkpt lat="47.28157" lon="6.89294">
        <ele>801.6</ele>
        <time>2021-08-12T09:36:20Z</time>
      </trkpt>
      <trkpt lat="47.28154" lon="6.89296">
        <ele>801.9</ele>
        <time>2021-08-12T09:36:22Z</time>
      </trkpt>
      <trkpt lat="47.28154" lon="6.89296">
        <ele>802</ele>
        <time>2021-08-12T09:36:23Z</time>
      </trkpt>
      <trkpt lat="47.28153" lon="6.89299">
        <ele>802.3</ele>
        <time>2021-08-12T09:36:25Z</time>
      </trkpt>
      <trkpt lat="47.28153" lon="6.89301">
        <ele>802.5</ele>
        <time>2021-08-12T09:36:26Z</time>
      </trkpt>
      <trkpt lat="47.28152" lon="6.89302">
        <ele>802.6</ele>
        <time>2021-08-12T09:36:28Z</time>
      </trkpt>
      <trkpt lat="47.28152" lon="6.89302">
        <ele>802.7</ele>
        <time>2021-08-12T09:36:29Z</time>
      </trkpt>
      <trkpt lat="47.28151" lon="6.89303">
        <ele>802.7</ele>
        <time>2021-08-12T09:36:30Z</time>
      </trkpt>
      <trkpt lat="47.28093" lon="6.89206">
        <ele>810.7</ele>
        <time>2021-08-12T09:38:31Z</time>
      </trkpt>
      <trkpt lat="47.28093" lon="6.89201">
        <ele>810.9</ele>
        <time>2021-08-12T09:38:32Z</time>
      </trkpt>
      <trkpt lat="47.28092" lon="6.89196">
        <ele>811.1</ele>
        <time>2021-08-12T09:38:33Z</time>
      </trkpt>
      <trkpt lat="47.28092" lon="6.89193">
        <ele>811.2</ele>
        <time>2021-08-12T09:38:34Z</time>
      </trkpt>
      <trkpt lat="47.28091" lon="6.89189">
        <ele>811.4</ele>
        <time>2021-08-12T09:38:36Z</time>
      </trkpt>
      <trkpt lat="47.2809" lon="6.89185">
        <ele>811.6</ele>
        <time>2021-08-12T09:38:37Z</time>
      </trkpt>
      <trkpt lat="47.28089" lon="6.89184">
        <ele>811.7</ele>
        <time>2021-08-12T09:38:38Z</time>
      </trkpt>
      <trkpt lat="47.28087" lon="6.89181">
        <ele>811.8</ele>
        <time>2021-08-12T09:38:39Z</time>
      </trkpt>
      <trkpt lat="47.28085" lon="6.89177">
        <ele>812</ele>
        <time>2021-08-12T09:38:41Z</time>
      </trkpt>
      <trkpt lat="47.28085" lon="6.89177">
        <ele>812</ele>
        <time>2021-08-12T09:38:42Z</time>
      </trkpt>
      <trkpt lat="47.28084" lon="6.89177">
        <ele>812</ele>
        <time>2021-08-12T09:38:43Z</time>
      </trkpt>
      <trkpt lat="47.28083" lon="6.89175">
        <ele>812.1</ele>
        <time>2021-08-12T09:38:45Z</time>
      </trkpt>
      <trkpt lat="47.28084" lon="6.89172">
        <ele>812.2</ele>
        <time>2021-08-12T09:38:47Z</time>
      </trkpt>
      <trkpt lat="47.28084" lon="6.89171">
        <ele>812.2</ele>
        <time>2021-08-12T09:38:48Z</time>
      </trkpt>
      <trkpt lat="47.28084" lon="6.8917">
        <ele>812.3</ele>
        <time>2021-08-12T09:38:49Z</time>
      </trkpt>
      <trkpt lat="47.28085" lon="6.89168">
        <ele>812.3</ele>
        <time>2021-08-12T09:38:50Z</time>
      </trkpt>
      <trkpt lat="47.28085" lon="6.89165">
        <ele>812.5</ele>
        <time>2021-08-12T09:38:51Z</time>
      </trkpt>
      <trkpt lat="47.28088" lon="6.89159">
        <ele>812.7</ele>
        <time>2021-08-12T09:38:53Z</time>
      </trkpt>
      <trkpt lat="47.28092" lon="6.89155">
        <ele>812.9</ele>
        <time>2021-08-12T09:38:54Z</time>
      </trkpt>
      <trkpt lat="47.28096" lon="6.89149">
        <ele>813.1</ele>
        <time>2021-08-12T09:38:56Z</time>
      </trkpt>
      <trkpt lat="47.28098" lon="6.89145">
        <ele>813.2</ele>
        <time>2021-08-12T09:38:57Z</time>
      </trkpt>
      <trkpt lat="47.28099" lon="6.8914">
        <ele>813.3</ele>
        <time>2021-08-12T09:38:58Z</time>
      </trkpt>
      <trkpt lat="47.281" lon="6.89136">
        <ele>813.4</ele>
        <time>2021-08-12T09:38:59Z</time>
      </trkpt>
      <trkpt lat="47.28101" lon="6.89132">
        <ele>813.5</ele>
        <time>2021-08-12T09:39:00Z</time>
      </trkpt>
      <trkpt lat="47.28102" lon="6.89127">
        <ele>813.6</ele>
        <time>2021-08-12T09:39:01Z</time>
      </trkpt>
      <trkpt lat="47.28103" lon="6.89125">
        <ele>813.6</ele>
        <time>2021-08-12T09:39:02Z</time>
      </trkpt>
      <trkpt lat="47.28102" lon="6.89119">
        <ele>813.7</ele>
        <time>2021-08-12T09:39:04Z</time>
      </trkpt>
      <trkpt lat="47.28101" lon="6.89117">
        <ele>813.7</ele>
        <time>2021-08-12T09:39:05Z</time>
      </trkpt>
      <trkpt lat="47.28101" lon="6.89116">
        <ele>813.7</ele>
        <time>2021-08-12T09:39:06Z</time>
      </trkpt>
      <trkpt lat="47.28098" lon="6.8911">
        <ele>813.8</ele>
        <time>2021-08-12T09:39:08Z</time>
      </trkpt>
      <trkpt lat="47.28096" lon="6.89107">
        <ele>813.8</ele>
        <time>2021-08-12T09:39:09Z</time>
      </trkpt>
      <trkpt lat="47.28095" lon="6.89103">
        <ele>813.8</ele>
        <time>2021-08-12T09:39:10Z</time>
      </trkpt>
      <trkpt lat="47.28094" lon="6.89097">
        <ele>813.8</ele>
        <time>2021-08-12T09:39:11Z</time>
      </trkpt>
      <trkpt lat="47.28093" lon="6.89095">
        <ele>813.8</ele>
        <time>2021-08-12T09:39:12Z</time>
      </trkpt>
      <trkpt lat="47.28093" lon="6.89088">
        <ele>813.7</ele>
        <time>2021-08-12T09:39:14Z</time>
      </trkpt>
      <trkpt lat="47.28093" lon="6.8908">
        <ele>813.6</ele>
        <time>2021-08-12T09:39:15Z</time>
      </trkpt>
      <trkpt lat="47.28092" lon="6.89074">
        <ele>813.4</ele>
        <time>2021-08-12T09:39:16Z</time>
      </trkpt>
      <trkpt lat="47.28092" lon="6.89064">
        <ele>813</ele>
        <time>2021-08-12T09:39:18Z</time>
      </trkpt>
      <trkpt lat="47.28091" lon="6.89058">
        <ele>812.9</ele>
        <time>2021-08-12T09:39:19Z</time>
      </trkpt>
      <trkpt lat="47.28091" lon="6.89053">
        <ele>812.7</ele>
        <time>2021-08-12T09:39:20Z</time>
      </trkpt>
      <trkpt lat="47.28088" lon="6.89043">
        <ele>812.4</ele>
        <time>2021-08-12T09:39:22Z</time>
      </trkpt>
      <trkpt lat="47.28087" lon="6.89038">
        <ele>812.3</ele>
        <time>2021-08-12T09:39:23Z</time>
      </trkpt>
      <trkpt lat="47.28086" lon="6.89036">
        <ele>812.3</ele>
        <time>2021-08-12T09:39:24Z</time>
      </trkpt>
      <trkpt lat="47.28086" lon="6.89022">
        <ele>811.9</ele>
        <time>2021-08-12T09:39:25Z</time>
      </trkpt>
      <trkpt lat="47.28087" lon="6.89009">
        <ele>811.7</ele>
        <time>2021-08-12T09:39:27Z</time>
      </trkpt>
      <trkpt lat="47.28089" lon="6.89001">
        <ele>811.6</ele>
        <time>2021-08-12T09:39:29Z</time>
      </trkpt>
      <trkpt lat="47.28089" lon="6.88998">
        <ele>811.5</ele>
        <time>2021-08-12T09:39:30Z</time>
      </trkpt>
      <trkpt lat="47.2809" lon="6.88994">
        <ele>811.5</ele>
        <time>2021-08-12T09:39:31Z</time>
      </trkpt>
      <trkpt lat="47.28091" lon="6.88987">
        <ele>811.4</ele>
        <time>2021-08-12T09:39:32Z</time>
      </trkpt>
      <trkpt lat="47.2809" lon="6.88981">
        <ele>811.3</ele>
        <time>2021-08-12T09:39:34Z</time>
      </trkpt>
      <trkpt lat="47.2809" lon="6.88976">
        <ele>811.2</ele>
        <time>2021-08-12T09:39:35Z</time>
      </trkpt>
      <trkpt lat="47.2809" lon="6.88975">
        <ele>811.2</ele>
        <time>2021-08-12T09:39:36Z</time>
      </trkpt>
      <trkpt lat="47.28092" lon="6.8896">
        <ele>810.8</ele>
        <time>2021-08-12T09:39:38Z</time>
      </trkpt>
      <trkpt lat="47.28093" lon="6.88947">
        <ele>810.4</ele>
        <time>2021-08-12T09:39:39Z</time>
      </trkpt>
      <trkpt lat="47.28054" lon="6.88394">
        <ele>829.9</ele>
        <time>2021-08-12T09:44:24Z</time>
      </trkpt>
      <trkpt lat="47.28053" lon="6.88391">
        <ele>829.9</ele>
        <time>2021-08-12T09:44:25Z</time>
      </trkpt>
      <trkpt lat="47.28051" lon="6.88386">
        <ele>830</ele>
        <time>2021-08-12T09:44:27Z</time>
      </trkpt>
      <trkpt lat="47.28049" lon="6.88381">
        <ele>830</ele>
        <time>2021-08-12T09:44:28Z</time>
      </trkpt>
      <trkpt lat="47.28046" lon="6.88374">
        <ele>829.9</ele>
        <time>2021-08-12T09:44:30Z</time>
      </trkpt>
      <trkpt lat="47.28043" lon="6.88368">
        <ele>829.8</ele>
        <time>2021-08-12T09:44:31Z</time>
      </trkpt>
      <trkpt lat="47.28041" lon="6.88363">
        <ele>829.6</ele>
        <time>2021-08-12T09:44:32Z</time>
      </trkpt>
      <trkpt lat="47.28037" lon="6.88355">
        <ele>829.4</ele>
        <time>2021-08-12T09:44:33Z</time>
      </trkpt>
      <trkpt lat="47.28033" lon="6.88346">
        <ele>828.9</ele>
        <time>2021-08-12T09:44:35Z</time>
      </trkpt>
      <trkpt lat="47.28029" lon="6.88339">
        <ele>828.5</ele>
        <time>2021-08-12T09:44:36Z</time>
      </trkpt>
      <trkpt lat="47.28025" lon="6.88333">
        <ele>828</ele>
        <time>2021-08-12T09:44:38Z</time>
      </trkpt>
      <trkpt lat="47.28023" lon="6.8833">
        <ele>827.8</ele>
        <time>2021-08-12T09:44:39Z</time>
      </trkpt>
      <trkpt lat="47.28022" lon="6.88328">
        <ele>826.1</ele>
        <time>2021-08-12T09:44:40Z</time>
      </trkpt>
      <trkpt lat="47.28021" lon="6.88328">
        <ele>826.1</ele>
        <time>2021-08-12T09:44:42Z</time>
      </trkpt>
      <trkpt lat="47.2802" lon="6.88329">
        <ele>826.1</ele>
        <time>2021-08-12T09:44:44Z</time>
      </trkpt>
      <trkpt lat="47.2802" lon="6.88329">
        <ele>826.1</ele>
        <time>2021-08-12T09:44:46Z</time>
      </trkpt>
      <trkpt lat="47.2802" lon="6.88329">
        <ele>826.1</ele>
        <time>2021-08-12T09:44:47Z</time>
      </trkpt>
      <trkpt lat="47.2802" lon="6.88329">
        <ele>826.1</ele>
        <time>2021-08-12T09:44:48Z</time>
      </trkpt>
      <trkpt lat="47.28019" lon="6.8833">
        <ele>826.1</ele>
        <time>2021-08-12T09:44:50Z</time>
      </trkpt>
      <trkpt lat="47.27995" lon="6.88386">
        <ele>828</ele>
        <time>2021-08-12T09:45:20Z</time>
      </trkpt>
      <trkpt lat="47.27994" lon="6.88388">
        <ele>828.2</ele>
        <time>2021-08-12T09:45:21Z</time>
      </trkpt>
      <trkpt lat="47.27994" lon="6.88388">
        <ele>828.2</ele>
        <time>2021-08-12T09:45:22Z</time>
      </trkpt>
      <trkpt lat="47.27993" lon="6.88389">
        <ele>828.3</ele>
        <time>2021-08-12T09:45:24Z</time>
      </trkpt>
      <trkpt lat="47.27991" lon="6.88392">
        <ele>828.4</ele>
        <time>2021-08-12T09:45:25Z</time>
      </trkpt>
      <trkpt lat="47.2799" lon="6.88393">
        <ele>828.5</ele>
        <time>2021-08-12T09:45:26Z</time>
      </trkpt>
      <trkpt lat="47.2799" lon="6.88394">
        <ele>828.6</ele>
        <time>2021-08-12T09:45:27Z</time>
      </trkpt>
      <trkpt lat="47.2799" lon="6.88395">
        <ele>828.6</ele>
        <time>2021-08-12T09:45:28Z</time>
      </trkpt>
      <trkpt lat="47.27991" lon="6.88397">
        <ele>828.7</ele>
        <time>2021-08-12T09:45:30Z</time>
      </trkpt>
      <trkpt lat="47.27991" lon="6.88399">
        <ele>828.8</ele>
        <time>2021-08-12T09:45:32Z</time>
      </trkpt>
      <trkpt lat="47.2799" lon="6.88403">
        <ele>829.1</ele>
        <time>2021-08-12T09:45:33Z</time>
      </trkpt>
      <trkpt lat="47.2799" lon="6.88405">
        <ele>829.2</ele>
        <time>2021-08-12T09:45:34Z</time>
      </trkpt>
      <trkpt lat="47.27989" lon="6.8841">
        <ele>829.4</ele>
        <time>2021-08-12T09:45:35Z</time>
      </trkpt>
      <trkpt lat="47.27988" lon="6.88416">
        <ele>829.8</ele>
        <time>2021-08-12T09:45:36Z</time>
      </trkpt>
      <trkpt lat="47.27988" lon="6.88418">
        <ele>829.9</ele>
        <time>2021-08-12T09:45:37Z</time>
      </trkpt>
      <trkpt lat="47.27987" lon="6.88421">
        <ele>830</ele>
        <time>2021-08-12T09:45:38Z</time>
      </trkpt>
      <trkpt lat="47.27987" lon="6.88423">
        <ele>830.2</ele>
        <time>2021-08-12T09:45:40Z</time>
      </trkpt>
      <trkpt lat="47.27986" lon="6.88425">
        <ele>830.3</ele>
        <time>2021-08-12T09:45:42Z</time>
      </trkpt>
      <trkpt lat="47.27986" lon="6.88426">
        <ele>830.4</ele>
        <time>2021-08-12T09:45:43Z</time>
      </trkpt>
      <trkpt lat="47.27985" lon="6.88427">
        <ele>830.4</ele>
        <time>2021-08-12T09:45:44Z</time>
      </trkpt>
      <trkpt lat="47.27984" lon="6.88428">
        <ele>830.5</ele>
        <time>2021-08-12T09:45:45Z</time>
      </trkpt>
      <trkpt lat="47.27984" lon="6.88428">
        <ele>830.5</ele>
        <time>2021-08-12T09:45:46Z</time>
      </trkpt>
      <trkpt lat="47.27983" lon="6.88429">
        <ele>830.6</ele>
        <time>2021-08-12T09:45:47Z</time>
      </trkpt>
      <trkpt lat="47.27958" lon="6.88471">
        <ele>834</ele>
        <time>2021-08-12T09:46:16Z</time>
      </trkpt>
      <trkpt lat="47.27955" lon="6.88477">
        <ele>834.4</ele>
        <time>2021-08-12T09:46:17Z</time>
      </trkpt>
      <trkpt lat="47.27954" lon="6.88481">
        <ele>834.6</ele>
        <time>2021-08-12T09:46:18Z</time>
      </trkpt>
      <trkpt lat="47.27951" lon="6.88488">
        <ele>835</ele>
        <time>2021-08-12T09:46:20Z</time>
      </trkpt>
      <trkpt lat="47.2795" lon="6.8849">
        <ele>835.2</ele>
        <time>2021-08-12T09:46:21Z</time>
      </trkpt>
      <trkpt lat="47.27949" lon="6.88492">
        <ele>835.3</ele>
        <time>2021-08-12T09:46:22Z</time>
      </trkpt>
      <trkpt lat="47.27947" lon="6.88495">
        <ele>835.5</ele>
        <time>2021-08-12T09:46:23Z</time>
      </trkpt>
      <trkpt lat="47.27943" lon="6.88499">
        <ele>835.7</ele>
        <time>2021-08-12T09:46:24Z</time>
      </trkpt>
      <trkpt lat="47.27942" lon="6.88501">
        <ele>835.8</ele>
        <time>2021-08-12T09:46:25Z</time>
      </trkpt>
      <trkpt lat="47.2794" lon="6.88505">
        <ele>836</ele>
        <time>2021-08-12T09:46:27Z</time>
      </trkpt>
      <trkpt lat="47.27939" lon="6.88508">
        <ele>836.1</ele>
        <time>2021-08-12T09:46:28Z</time>
      </trkpt>
      <trkpt lat="47.27937" lon="6.88513">
        <ele>836.3</ele>
        <time>2021-08-12T09:46:30Z</time>
      </trkpt>
      <trkpt lat="47.27935" lon="6.88518">
        <ele>836.4</ele>
        <time>2021-08-12T09:46:31Z</time>
      </trkpt>
      <trkpt lat="47.27934" lon="6.8852">
        <ele>836.5</ele>
        <time>2021-08-12T09:46:32Z</time>
      </trkpt>
      <trkpt lat="47.27933" lon="6.88524">
        <ele>836.6</ele>
        <time>2021-08-12T09:46:33Z</time>
      </trkpt>
      <trkpt lat="47.27931" lon="6.88528">
        <ele>836.7</ele>
        <time>2021-08-12T09:46:34Z</time>
      </trkpt>
      <trkpt lat="47.2793" lon="6.88534">
        <ele>836.9</ele>
        <time>2021-08-12T09:46:35Z</time>
      </trkpt>
      <trkpt lat="47.27929" lon="6.88536">
        <ele>837</ele>
        <time>2021-08-12T09:46:36Z</time>
      </trkpt>
      <trkpt lat="47.27926" lon="6.88542">
        <ele>837.2</ele>
        <time>2021-08-12T09:46:38Z</time>
      </trkpt>
      <trkpt lat="47.27925" lon="6.88543">
        <ele>837.3</ele>
        <time>2021-08-12T09:46:39Z</time>
      </trkpt>
      <trkpt lat="47.27925" lon="6.88545">
        <ele>837.3</ele>
        <time>2021-08-12T09:46:40Z</time>
      </trkpt>
      <trkpt lat="47.27923" lon="6.88549">
        <ele>837.5</ele>
        <time>2021-08-12T09:46:42Z</time>
      </trkpt>
      <trkpt lat="47.27923" lon="6.8855">
        <ele>837.5</ele>
        <time>2021-08-12T09:46:43Z</time>
      </trkpt>
      <trkpt lat="47.27921" lon="6.88553">
        <ele>837.7</ele>
        <time>2021-08-12T09:46:44Z</time>
      </trkpt>
      <trkpt lat="47.27918" lon="6.88562">
        <ele>838.1</ele>
        <time>2021-08-12T09:46:46Z</time>
      </trkpt>
      <trkpt lat="47.27916" lon="6.88568">
        <ele>838.3</ele>
        <time>2021-08-12T09:46:48Z</time>
      </trkpt>
      <trkpt lat="47.27914" lon="6.88574">
        <ele>838.6</ele>
        <time>2021-08-12T09:46:49Z</time>
      </trkpt>
      <trkpt lat="47.27912" lon="6.8858">
        <ele>838.9</ele>
        <time>2021-08-12T09:46:50Z</time>
      </trkpt>
      <trkpt lat="47.2791" lon="6.88587">
        <ele>839.2</ele>
        <time>2021-08-12T09:46:51Z</time>
      </trkpt>
      <trkpt lat="47.27909" lon="6.88593">
        <ele>839.5</ele>
        <time>2021-08-12T09:46:53Z</time>
      </trkpt>
      <trkpt lat="47.27907" lon="6.88599">
        <ele>839.9</ele>
        <time>2021-08-12T09:46:55Z</time>
      </trkpt>
      <trkpt lat="47.27905" lon="6.88605">
        <ele>840.2</ele>
        <time>2021-08-12T09:47:26Z</time>
      </trkpt>
      <trkpt lat="47.27903" lon="6.88611">
        <ele>840.6</ele>
        <time>2021-08-12T09:47:28Z</time>
      </trkpt>
      <trkpt lat="47.27901" lon="6.88618">
        <ele>841</ele>
        <time>2021-08-12T09:47:29Z</time>
      </trkpt>
      <trkpt lat="47.279" lon="6.8862">
        <ele>841.2</ele>
        <time>2021-08-12T09:47:30Z</time>
      </trkpt>
      <trkpt lat="47.279" lon="6.88621">
        <ele>841.3</ele>
        <time>2021-08-12T09:47:31Z</time>
      </trkpt>
      <trkpt lat="47.27898" lon="6.88628">
        <ele>841.6</ele>
        <time>2021-08-12T09:47:33Z</time>
      </trkpt>
      <trkpt lat="47.27897" lon="6.88631">
        <ele>841.8</ele>
        <time>2021-08-12T09:47:34Z</time>
      </trkpt>
      <trkpt lat="47.27896" lon="6.88637">
        <ele>842.2</ele>
        <time>2021-08-12T09:47:36Z</time>
      </trkpt>
      <trkpt lat="47.27894" lon="6.88642">
        <ele>842.5</ele>
        <time>2021-08-12T09:47:37Z</time>
      </trkpt>
      <trkpt lat="47.27893" lon="6.88645">
        <ele>842.7</ele>
        <time>2021-08-12T09:47:39Z</time>
      </trkpt>
      <trkpt lat="47.27892" lon="6.88648">
        <ele>842.9</ele>
        <time>2021-08-12T09:47:40Z</time>
      </trkpt>
      <trkpt lat="47.27891" lon="6.88651">
        <ele>843</ele>
        <time>2021-08-12T09:47:42Z</time>
      </trkpt>
      <trkpt lat="47.2789" lon="6.88653">
        <ele>843.2</ele>
        <time>2021-08-12T09:47:44Z</time>
      </trkpt>
      <trkpt lat="47.2789" lon="6.88653">
        <ele>843.2</ele>
        <time>2021-08-12T09:47:45Z</time>
      </trkpt>
      <trkpt lat="47.2789" lon="6.88654">
        <ele>843.2</ele>
        <time>2021-08-12T09:47:46Z</time>
      </trkpt>
      <trkpt lat="47.27888" lon="6.88655">
        <ele>843.3</ele>
        <time>2021-08-12T09:47:48Z</time>
      </trkpt>
      <trkpt lat="47.27887" lon="6.88656">
        <ele>843.4</ele>
        <time>2021-08-12T09:47:49Z</time>
      </trkpt>
      <trkpt lat="47.27885" lon="6.88659">
        <ele>843.7</ele>
        <time>2021-08-12T09:47:51Z</time>
      </trkpt>
      <trkpt lat="47.27836" lon="6.88806">
        <ele>850.3</ele>
        <time>2021-08-12T09:49:10Z</time>
      </trkpt>
      <trkpt lat="47.27835" lon="6.88815">
        <ele>850.8</ele>
        <time>2021-08-12T09:49:11Z</time>
      </trkpt>
      <trkpt lat="47.27835" lon="6.88818">
        <ele>850.9</ele>
        <time>2021-08-12T09:49:12Z</time>
      </trkpt>
      <trkpt lat="47.27835" lon="6.88824">
        <ele>851.2</ele>
        <time>2021-08-12T09:49:14Z</time>
      </trkpt>
      <trkpt lat="47.27834" lon="6.88828">
        <ele>851.3</ele>
        <time>2021-08-12T09:49:15Z</time>
      </trkpt>
      <trkpt lat="47.27835" lon="6.88834">
        <ele>851.6</ele>
        <time>2021-08-12T09:49:17Z</time>
      </trkpt>
      <trkpt lat="47.27834" lon="6.88839">
        <ele>851.8</ele>
        <time>2021-08-12T09:49:18Z</time>
      </trkpt>
      <trkpt lat="47.27833" lon="6.88839">
        <ele>851.8</ele>
        <time>2021-08-12T09:49:19Z</time>
      </trkpt>
      <trkpt lat="47.27832" lon="6.88839">
        <ele>851.9</ele>
        <time>2021-08-12T09:49:21Z</time>
      </trkpt>
      <trkpt lat="47.27832" lon="6.88839">
        <ele>851.9</ele>
        <time>2021-08-12T09:49:22Z</time>
      </trkpt>
      <trkpt lat="47.27831" lon="6.8884">
        <ele>851.9</ele>
        <time>2021-08-12T09:49:24Z</time>
      </trkpt>
      <trkpt lat="47.27831" lon="6.88841">
        <ele>852</ele>
        <time>2021-08-12T09:49:25Z</time>
      </trkpt>
      <trkpt lat="47.2783" lon="6.88842">
        <ele>852</ele>
        <time>2021-08-12T09:49:26Z</time>
      </trkpt>
      <trkpt lat="47.27829" lon="6.88845">
        <ele>852.1</ele>
        <time>2021-08-12T09:49:28Z</time>
      </trkpt>
      <trkpt lat="47.27813" lon="6.88894">
        <ele>853.6</ele>
        <time>2021-08-12T09:49:50Z</time>
      </trkpt>
      <trkpt lat="47.27811" lon="6.88899">
        <ele>853.7</ele>
        <time>2021-08-12T09:49:52Z</time>
      </trkpt>
      <trkpt lat="47.2781" lon="6.88904">
        <ele>853.8</ele>
        <time>2021-08-12T09:49:53Z</time>
      </trkpt>
      <trkpt lat="47.27808" lon="6.8891">
        <ele>853.9</ele>
        <time>2021-08-12T09:49:54Z</time>
      </trkpt>
      <trkpt lat="47.27807" lon="6.88914">
        <ele>854</ele>
        <time>2021-08-12T09:49:55Z</time>
      </trkpt>
      <trkpt lat="47.27806" lon="6.88917">
        <ele>854.1</ele>
        <time>2021-08-12T09:49:56Z</time>
      </trkpt>
      <trkpt lat="47.27803" lon="6.88922">
        <ele>854.2</ele>
        <time>2021-08-12T09:49:58Z</time>
      </trkpt>
      <trkpt lat="47.27802" lon="6.88924">
        <ele>854.2</ele>
        <time>2021-08-12T09:49:59Z</time>
      </trkpt>
      <trkpt lat="47.278" lon="6.88928">
        <ele>854.3</ele>
        <time>2021-08-12T09:50:01Z</time>
      </trkpt>
      <trkpt lat="47.27799" lon="6.8893">
        <ele>854.3</ele>
        <time>2021-08-12T09:50:02Z</time>
      </trkpt>
      <trkpt lat="47.27794" lon="6.88941">
        <ele>854.5</ele>
        <time>2021-08-12T09:50:05Z</time>
      </trkpt>
      <trkpt lat="47.27792" lon="6.88945">
        <ele>854.5</ele>
        <time>2021-08-12T09:50:06Z</time>
      </trkpt>
      <trkpt lat="47.2779" lon="6.88952">
        <ele>854.5</ele>
        <time>2021-08-12T09:50:07Z</time>
      </trkpt>
      <trkpt lat="47.27787" lon="6.88962">
        <ele>854.6</ele>
        <time>2021-08-12T09:50:08Z</time>
      </trkpt>
      <trkpt lat="47.27785" lon="6.88971">
        <ele>854.6</ele>
        <time>2021-08-12T09:50:10Z</time>
      </trkpt>
      <trkpt lat="47.27783" lon="6.88978">
        <ele>854.5</ele>
        <time>2021-08-12T09:50:11Z</time>
      </trkpt>
      <trkpt lat="47.27782" lon="6.88984">
        <ele>854.5</ele>
        <time>2021-08-12T09:50:12Z</time>
      </trkpt>
      <trkpt lat="47.27778" lon="6.88996">
        <ele>854.4</ele>
        <time>2021-08-12T09:50:14Z</time>
      </trkpt>
      <trkpt lat="47.27773" lon="6.89008">
        <ele>854.3</ele>
        <time>2021-08-12T09:50:16Z</time>
      </trkpt>
      <trkpt lat="47.27769" lon="6.89014">
        <ele>854.1</ele>
        <time>2021-08-12T09:50:17Z</time>
      </trkpt>
      <trkpt lat="47.27766" lon="6.89019">
        <ele>854</ele>
        <time>2021-08-12T09:50:18Z</time>
      </trkpt>
      <trkpt lat="47.2776" lon="6.89029">
        <ele>853.8</ele>
        <time>2021-08-12T09:50:20Z</time>
      </trkpt>
      <trkpt lat="47.27755" lon="6.89035">
        <ele>853.7</ele>
        <time>2021-08-12T09:50:22Z</time>
      </trkpt>
      <trkpt lat="47.27751" lon="6.8904">
        <ele>853.6</ele>
        <time>2021-08-12T09:50:23Z</time>
      </trkpt>
      <trkpt lat="47.27747" lon="6.89048">
        <ele>853.4</ele>
        <time>2021-08-12T09:50:25Z</time>
      </trkpt>
      <trkpt lat="47.27745" lon="6.89054">
        <ele>853.3</ele>
        <time>2021-08-12T09:50:26Z</time>
      </trkpt>
      <trkpt lat="47.27744" lon="6.8906">
        <ele>853.3</ele>
        <time>2021-08-12T09:50:27Z</time>
      </trkpt>
      <trkpt lat="47.27744" lon="6.89066">
        <ele>853.2</ele>
        <time>2021-08-12T09:50:28Z</time>
      </trkpt>
      <trkpt lat="47.27743" lon="6.89072">
        <ele>853.2</ele>
        <time>2021-08-12T09:50:29Z</time>
      </trkpt>
      <trkpt lat="47.27742" lon="6.89077">
        <ele>853.1</ele>
        <time>2021-08-12T09:50:30Z</time>
      </trkpt>
      <trkpt lat="47.27741" lon="6.89084">
        <ele>853.1</ele>
        <time>2021-08-12T09:50:31Z</time>
      </trkpt>
      <trkpt lat="47.27742" lon="6.89091">
        <ele>853.1</ele>
        <time>2021-08-12T09:50:33Z</time>
      </trkpt>
      <trkpt lat="47.27744" lon="6.89099">
        <ele>853.2</ele>
        <time>2021-08-12T09:50:35Z</time>
      </trkpt>
      <trkpt lat="47.27748" lon="6.89107">
        <ele>853.3</ele>
        <time>2021-08-12T09:50:36Z</time>
      </trkpt>
      <trkpt lat="47.27751" lon="6.89116">
        <ele>853.4</ele>
        <time>2021-08-12T09:50:37Z</time>
      </trkpt>
      <trkpt lat="47.27753" lon="6.89123">
        <ele>853.6</ele>
        <time>2021-08-12T09:50:39Z</time>
      </trkpt>
      <trkpt lat="47.27755" lon="6.89127">
        <ele>853.7</ele>
        <time>2021-08-12T09:50:40Z</time>
      </trkpt>
      <trkpt lat="47.27757" lon="6.89131">
        <ele>853.8</ele>
        <time>2021-08-12T09:50:41Z</time>
      </trkpt>
      <trkpt lat="47.27758" lon="6.89134">
        <ele>853.8</ele>
        <time>2021-08-12T09:50:42Z</time>
      </trkpt>
      <trkpt lat="47.27758" lon="6.89138">
        <ele>854</ele>
        <time>2021-08-12T09:50:44Z</time>
      </trkpt>
      <trkpt lat="47.27759" lon="6.89143">
        <ele>854.1</ele>
        <time>2021-08-12T09:50:45Z</time>
      </trkpt>
      <trkpt lat="47.27758" lon="6.89149">
        <ele>854.3</ele>
        <time>2021-08-12T09:50:47Z</time>
      </trkpt>
      <trkpt lat="47.27757" lon="6.89154">
        <ele>854.4</ele>
        <time>2021-08-12T09:50:48Z</time>
      </trkpt>
      <trkpt lat="47.27757" lon="6.8916">
        <ele>854.5</ele>
        <time>2021-08-12T09:50:49Z</time>
      </trkpt>
      <trkpt lat="47.27757" lon="6.89161">
        <ele>854.6</ele>
        <time>2021-08-12T09:50:50Z</time>
      </trkpt>
      <trkpt lat="47.27758" lon="6.89166">
        <ele>854.7</ele>
        <time>2021-08-12T09:50:51Z</time>
      </trkpt>
      <trkpt lat="47.27759" lon="6.8917">
        <ele>854.8</ele>
        <time>2021-08-12T09:50:53Z</time>
      </trkpt>
      <trkpt lat="47.27757" lon="6.89174">
        <ele>855</ele>
        <time>2021-08-12T09:50:54Z</time>
      </trkpt>
      <trkpt lat="47.27756" lon="6.89179">
        <ele>855.1</ele>
        <time>2021-08-12T09:50:55Z</time>
      </trkpt>
      <trkpt lat="47.27755" lon="6.89184">
        <ele>855.3</ele>
        <time>2021-08-12T09:50:56Z</time>
      </trkpt>
      <trkpt lat="47.27753" lon="6.89191">
        <ele>855.5</ele>
        <time>2021-08-12T09:50:57Z</time>
      </trkpt>
      <trkpt lat="47.27752" lon="6.892">
        <ele>855.7</ele>
        <time>2021-08-12T09:50:58Z</time>
      </trkpt>
      <trkpt lat="47.27752" lon="6.89207">
        <ele>855.9</ele>
        <time>2021-08-12T09:51:00Z</time>
      </trkpt>
      <trkpt lat="47.27752" lon="6.8921">
        <ele>855.9</ele>
        <time>2021-08-12T09:51:01Z</time>
      </trkpt>
      <trkpt lat="47.27748" lon="6.89215">
        <ele>856.1</ele>
        <time>2021-08-12T09:51:03Z</time>
      </trkpt>
      <trkpt lat="47.27747" lon="6.8922">
        <ele>856.2</ele>
        <time>2021-08-12T09:51:04Z</time>
      </trkpt>
      <trkpt lat="47.27745" lon="6.89226">
        <ele>856.2</ele>
        <time>2021-08-12T09:51:05Z</time>
      </trkpt>
      <trkpt lat="47.27744" lon="6.89231">
        <ele>856.3</ele>
        <time>2021-08-12T09:51:06Z</time>
      </trkpt>
      <trkpt lat="47.27743" lon="6.89236">
        <ele>856.4</ele>
        <time>2021-08-12T09:51:07Z</time>
      </trkpt>
      <trkpt lat="47.27742" lon="6.89241">
        <ele>856.4</ele>
        <time>2021-08-12T09:51:09Z</time>
      </trkpt>
      <trkpt lat="47.27741" lon="6.89247">
        <ele>856.4</ele>
        <time>2021-08-12T09:51:10Z</time>
      </trkpt>
      <trkpt lat="47.27741" lon="6.89253">
        <ele>856.5</ele>
        <time>2021-08-12T09:51:11Z</time>
      </trkpt>
      <trkpt lat="47.27741" lon="6.89259">
        <ele>856.5</ele>
        <time>2021-08-12T09:51:12Z</time>
      </trkpt>
      <trkpt lat="47.27742" lon="6.89265">
        <ele>856.5</ele>
        <time>2021-08-12T09:51:13Z</time>
      </trkpt>
      <trkpt lat="47.27743" lon="6.89269">
        <ele>856.5</ele>
        <time>2021-08-12T09:51:14Z</time>
      </trkpt>
      <trkpt lat="47.27745" lon="6.89278">
        <ele>856.4</ele>
        <time>2021-08-12T09:51:16Z</time>
      </trkpt>
      <trkpt lat="47.27745" lon="6.89284">
        <ele>856.4</ele>
        <time>2021-08-12T09:51:17Z</time>
      </trkpt>
      <trkpt lat="47.27745" lon="6.89288">
        <ele>856.4</ele>
        <time>2021-08-12T09:51:18Z</time>
      </trkpt>
      <trkpt lat="47.27745" lon="6.89292">
        <ele>856.4</ele>
        <time>2021-08-12T09:51:19Z</time>
      </trkpt>
      <trkpt lat="47.27744" lon="6.89297">
        <ele>856.4</ele>
        <time>2021-08-12T09:51:21Z</time>
      </trkpt>
      <trkpt lat="47.27744" lon="6.893">
        <ele>856.4</ele>
        <time>2021-08-12T09:51:22Z</time>
      </trkpt>
      <trkpt lat="47.27743" lon="6.89305">
        <ele>856.4</ele>
        <time>2021-08-12T09:51:23Z</time>
      </trkpt>
      <trkpt lat="47.27743" lon="6.89309">
        <ele>856.4</ele>
        <time>2021-08-12T09:51:24Z</time>
      </trkpt>
      <trkpt lat="47.27743" lon="6.89314">
        <ele>856.4</ele>
        <time>2021-08-12T09:51:25Z</time>
      </trkpt>
      <trkpt lat="47.27745" lon="6.8932">
        <ele>856.4</ele>
        <time>2021-08-12T09:51:27Z</time>
      </trkpt>
      <trkpt lat="47.27747" lon="6.89322">
        <ele>856.5</ele>
        <time>2021-08-12T09:51:28Z</time>
      </trkpt>
      <trkpt lat="47.27747" lon="6.89324">
        <ele>856.5</ele>
        <time>2021-08-12T09:51:29Z</time>
      </trkpt>
      <trkpt lat="47.27749" lon="6.8933">
        <ele>856.5</ele>
        <time>2021-08-12T09:51:30Z</time>
      </trkpt>
      <trkpt lat="47.27749" lon="6.89335">
        <ele>856.6</ele>
        <time>2021-08-12T09:51:32Z</time>
      </trkpt>
      <trkpt lat="47.27748" lon="6.8934">
        <ele>856.6</ele>
        <time>2021-08-12T09:51:33Z</time>
      </trkpt>
      <trkpt lat="47.27747" lon="6.89344">
        <ele>856.7</ele>
        <time>2021-08-12T09:51:34Z</time>
      </trkpt>
      <trkpt lat="47.27746" lon="6.89349">
        <ele>856.7</ele>
        <time>2021-08-12T09:51:35Z</time>
      </trkpt>
      <trkpt lat="47.27745" lon="6.89355">
        <ele>856.8</ele>
        <time>2021-08-12T09:51:37Z</time>
      </trkpt>
      <trkpt lat="47.27744" lon="6.8936">
        <ele>856.9</ele>
        <time>2021-08-12T09:51:38Z</time>
      </trkpt>
      <trkpt lat="47.27743" lon="6.89363">
        <ele>856.9</ele>
        <time>2021-08-12T09:51:39Z</time>
      </trkpt>
      <trkpt lat="47.2774" lon="6.8937">
        <ele>857</ele>
        <time>2021-08-12T09:51:41Z</time>
      </trkpt>
      <trkpt lat="47.2774" lon="6.89374">
        <ele>857</ele>
        <time>2021-08-12T09:51:42Z</time>
      </trkpt>
      <trkpt lat="47.2774" lon="6.89379">
        <ele>857.1</ele>
        <time>2021-08-12T09:51:44Z</time>
      </trkpt>
      <trkpt lat="47.2774" lon="6.89383">
        <ele>857.1</ele>
        <time>2021-08-12T09:51:45Z</time>
      </trkpt>
      <trkpt lat="47.2774" lon="6.89393">
        <ele>857.3</ele>
        <time>2021-08-12T09:51:47Z</time>
      </trkpt>
      <trkpt lat="47.27739" lon="6.89397">
        <ele>857.3</ele>
        <time>2021-08-12T09:51:48Z</time>
      </trkpt>
      <trkpt lat="47.27739" lon="6.89401">
        <ele>857.4</ele>
        <time>2021-08-12T09:51:49Z</time>
      </trkpt>
      <trkpt lat="47.2774" lon="6.89405">
        <ele>857.5</ele>
        <time>2021-08-12T09:51:51Z</time>
      </trkpt>
      <trkpt lat="47.27739" lon="6.89408">
        <ele>857.5</ele>
        <time>2021-08-12T09:51:52Z</time>
      </trkpt>
      <trkpt lat="47.27739" lon="6.89409">
        <ele>857.6</ele>
        <time>2021-08-12T09:51:53Z</time>
      </trkpt>
      <trkpt lat="47.27738" lon="6.89412">
        <ele>857.6</ele>
        <time>2021-08-12T09:51:54Z</time>
      </trkpt>
      <trkpt lat="47.27738" lon="6.89416">
        <ele>857.7</ele>
        <time>2021-08-12T09:51:56Z</time>
      </trkpt>
      <trkpt lat="47.27737" lon="6.89418">
        <ele>857.8</ele>
        <time>2021-08-12T09:51:57Z</time>
      </trkpt>
      <trkpt lat="47.27737" lon="6.8942">
        <ele>857.8</ele>
        <time>2021-08-12T09:51:58Z</time>
      </trkpt>
      <trkpt lat="47.27737" lon="6.89423">
        <ele>857.9</ele>
        <time>2021-08-12T09:51:59Z</time>
      </trkpt>
      <trkpt lat="47.27737" lon="6.89424">
        <ele>858</ele>
        <time>2021-08-12T09:52:00Z</time>
      </trkpt>
      <trkpt lat="47.27738" lon="6.89426">
        <ele>858</ele>
        <time>2021-08-12T09:52:01Z</time>
      </trkpt>
      <trkpt lat="47.27742" lon="6.89434">
        <ele>858.3</ele>
        <time>2021-08-12T09:52:06Z</time>
      </trkpt>
      <trkpt lat="47.27744" lon="6.8944">
        <ele>858.5</ele>
        <time>2021-08-12T09:52:07Z</time>
      </trkpt>
      <trkpt lat="47.27748" lon="6.89445">
        <ele>858.8</ele>
        <time>2021-08-12T09:52:08Z</time>
      </trkpt>
      <trkpt lat="47.2775" lon="6.89449">
        <ele>858.9</ele>
        <time>2021-08-12T09:52:09Z</time>
      </trkpt>
      <trkpt lat="47.27755" lon="6.89459">
        <ele>859.3</ele>
        <time>2021-08-12T09:52:11Z</time>
      </trkpt>
      <trkpt lat="47.27759" lon="6.89464">
        <ele>859.5</ele>
        <time>2021-08-12T09:52:12Z</time>
      </trkpt>
      <trkpt lat="47.27763" lon="6.89472">
        <ele>859.6</ele>
        <time>2021-08-12T09:52:14Z</time>
      </trkpt>
      <trkpt lat="47.27766" lon="6.89475">
        <ele>859.7</ele>
        <time>2021-08-12T09:52:15Z</time>
      </trkpt>
      <trkpt lat="47.27768" lon="6.89481">
        <ele>859.8</ele>
        <time>2021-08-12T09:52:16Z</time>
      </trkpt>
      <trkpt lat="47.27768" lon="6.89487">
        <ele>859.9</ele>
        <time>2021-08-12T09:52:17Z</time>
      </trkpt>
      <trkpt lat="47.27766" lon="6.89494">
        <ele>860</ele>
        <time>2021-08-12T09:52:18Z</time>
      </trkpt>
      <trkpt lat="47.27766" lon="6.89504">
        <ele>860</ele>
        <time>2021-08-12T09:52:20Z</time>
      </trkpt>
      <trkpt lat="47.27767" lon="6.89514">
        <ele>860</ele>
        <time>2021-08-12T09:52:21Z</time>
      </trkpt>
      <trkpt lat="47.27768" lon="6.89523">
        <ele>859.9</ele>
        <time>2021-08-12T09:52:23Z</time>
      </trkpt>
      <trkpt lat="47.27769" lon="6.8953">
        <ele>859.8</ele>
        <time>2021-08-12T09:52:24Z</time>
      </trkpt>
      <trkpt lat="47.2777" lon="6.89535">
        <ele>859.8</ele>
        <time>2021-08-12T09:52:25Z</time>
      </trkpt>
      <trkpt lat="47.27771" lon="6.8954">
        <ele>859.7</ele>
        <time>2021-08-12T09:52:26Z</time>
      </trkpt>
      <trkpt lat="47.27772" lon="6.89548">
        <ele>859.6</ele>
        <time>2021-08-12T09:52:28Z</time>
      </trkpt>
      <trkpt lat="47.27772" lon="6.89554">
        <ele>859.5</ele>
        <time>2021-08-12T09:52:29Z</time>
      </trkpt>
      <trkpt lat="47.27775" lon="6.89559">
        <ele>859.4</ele>
        <time>2021-08-12T09:52:30Z</time>
      </trkpt>
      <trkpt lat="47.27778" lon="6.89562">
        <ele>859.3</ele>
        <time>2021-08-12T09:52:31Z</time>
      </trkpt>
      <trkpt lat="47.27784" lon="6.89564">
        <ele>859.1</ele>
        <time>2021-08-12T09:52:32Z</time>
      </trkpt>
      <trkpt lat="47.27795" lon="6.89568">
        <ele>857.5</ele>
        <time>2021-08-12T09:52:34Z</time>
      </trkpt>
      <trkpt lat="47.278" lon="6.89574">
        <ele>857.1</ele>
        <time>2021-08-12T09:52:35Z</time>
      </trkpt>
      <trkpt lat="47.27812" lon="6.89583">
        <ele>856.5</ele>
        <time>2021-08-12T09:52:37Z</time>
      </trkpt>
      <trkpt lat="47.27819" lon="6.89587">
        <ele>856.2</ele>
        <time>2021-08-12T09:52:38Z</time>
      </trkpt>
      <trkpt lat="47.27831" lon="6.89595">
        <ele>855.9</ele>
        <time>2021-08-12T09:52:40Z</time>
      </trkpt>
      <trkpt lat="47.27836" lon="6.89599">
        <ele>855.8</ele>
        <time>2021-08-12T09:52:41Z</time>
      </trkpt>
      <trkpt lat="47.27841" lon="6.89603">
        <ele>855.7</ele>
        <time>2021-08-12T09:52:42Z</time>
      </trkpt>
      <trkpt lat="47.27848" lon="6.89608">
        <ele>855.8</ele>
        <time>2021-08-12T09:52:44Z</time>
      </trkpt>
      <trkpt lat="47.27851" lon="6.8961">
        <ele>855.9</ele>
        <time>2021-08-12T09:52:45Z</time>
      </trkpt>
      <trkpt lat="47.27854" lon="6.89615">
        <ele>856</ele>
        <time>2021-08-12T09:52:46Z</time>
      </trkpt>
      <trkpt lat="47.27858" lon="6.89622">
        <ele>856.3</ele>
        <time>2021-08-12T09:52:48Z</time>
      </trkpt>
      <trkpt lat="47.2786" lon="6.89629">
        <ele>856.6</ele>
        <time>2021-08-12T09:52:50Z</time>
      </trkpt>
      <trkpt lat="47.27861" lon="6.89635">
        <ele>856.9</ele>
        <time>2021-08-12T09:52:51Z</time>
      </trkpt>
      <trkpt lat="47.27862" lon="6.89642">
        <ele>857.2</ele>
        <time>2021-08-12T09:52:53Z</time>
      </trkpt>
      <trkpt lat="47.27862" lon="6.89647">
        <ele>857.4</ele>
        <time>2021-08-12T09:52:54Z</time>
      </trkpt>
      <trkpt lat="47.27859" lon="6.89648">
        <ele>857.3</ele>
        <time>2021-08-12T09:52:55Z</time>
      </trkpt>
      <trkpt lat="47.27854" lon="6.89649">
        <ele>857.3</ele>
        <time>2021-08-12T09:52:57Z</time>
      </trkpt>
      <trkpt lat="47.27851" lon="6.8965">
        <ele>857.2</ele>
        <time>2021-08-12T09:52:58Z</time>
      </trkpt>
      <trkpt lat="47.27846" lon="6.89652">
        <ele>857.1</ele>
        <time>2021-08-12T09:52:59Z</time>
      </trkpt>
      <trkpt lat="47.27839" lon="6.89657">
        <ele>856.7</ele>
        <time>2021-08-12T09:53:01Z</time>
      </trkpt>
      <trkpt lat="47.27831" lon="6.89663">
        <ele>856.2</ele>
        <time>2021-08-12T09:53:02Z</time>
      </trkpt>
      <trkpt lat="47.27818" lon="6.89671">
        <ele>855.2</ele>
        <time>2021-08-12T09:53:04Z</time>
      </trkpt>
      <trkpt lat="47.27811" lon="6.89675">
        <ele>854.6</ele>
        <time>2021-08-12T09:53:05Z</time>
      </trkpt>
      <trkpt lat="47.27805" lon="6.89678">
        <ele>854</ele>
        <time>2021-08-12T09:53:06Z</time>
      </trkpt>
      <trkpt lat="47.2779" lon="6.89687">
        <ele>852.7</ele>
        <time>2021-08-12T09:53:08Z</time>
      </trkpt>
      <trkpt lat="47.27775" lon="6.89701">
        <ele>851.3</ele>
        <time>2021-08-12T09:53:10Z</time>
      </trkpt>
      <trkpt lat="47.27768" lon="6.89709">
        <ele>850.5</ele>
        <time>2021-08-12T09:53:11Z</time>
      </trkpt>
      <trkpt lat="47.27761" lon="6.8972">
        <ele>849.8</ele>
        <time>2021-08-12T09:53:12Z</time>
      </trkpt>
      <trkpt lat="47.27746" lon="6.89741">
        <ele>848.7</ele>
        <time>2021-08-12T09:53:14Z</time>
      </trkpt>
      <trkpt lat="47.27733" lon="6.89755">
        <ele>848</ele>
        <time>2021-08-12T09:53:16Z</time>
      </trkpt>
      <trkpt lat="47.27728" lon="6.89761">
        <ele>847.6</ele>
        <time>2021-08-12T09:53:17Z</time>
      </trkpt>
      <trkpt lat="47.27724" lon="6.89767">
        <ele>847.2</ele>
        <time>2021-08-12T09:53:18Z</time>
      </trkpt>
      <trkpt lat="47.2772" lon="6.89779">
        <ele>847.2</ele>
        <time>2021-08-12T09:53:20Z</time>
      </trkpt>
      <trkpt lat="47.27721" lon="6.8979">
        <ele>847.1</ele>
        <time>2021-08-12T09:53:22Z</time>
      </trkpt>
      <trkpt lat="47.27722" lon="6.89804">
        <ele>847.1</ele>
        <time>2021-08-12T09:53:24Z</time>
      </trkpt>
      <trkpt lat="47.27724" lon="6.8982">
        <ele>847.2</ele>
        <time>2021-08-12T09:53:26Z</time>
      </trkpt>
      <trkpt lat="47.27726" lon="6.89836">
        <ele>847.3</ele>
        <time>2021-08-12T09:53:28Z</time>
      </trkpt>
      <trkpt lat="47.27726" lon="6.89852">
        <ele>847.4</ele>
        <time>2021-08-12T09:53:30Z</time>
      </trkpt>
      <trkpt lat="47.27728" lon="6.89869">
        <ele>847.5</ele>
        <time>2021-08-12T09:53:32Z</time>
      </trkpt>
      <trkpt lat="47.27731" lon="6.89883">
        <ele>847.6</ele>
        <time>2021-08-12T09:53:34Z</time>
      </trkpt>
      <trkpt lat="47.27733" lon="6.89891">
        <ele>847.7</ele>
        <time>2021-08-12T09:53:35Z</time>
      </trkpt>
      <trkpt lat="47.27735" lon="6.89898">
        <ele>847.7</ele>
        <time>2021-08-12T09:53:36Z</time>
      </trkpt>
      <trkpt lat="47.27738" lon="6.89908">
        <ele>847.8</ele>
        <time>2021-08-12T09:53:38Z</time>
      </trkpt>
      <trkpt lat="47.27738" lon="6.89914">
        <ele>847.8</ele>
        <time>2021-08-12T09:53:39Z</time>
      </trkpt>
      <trkpt lat="47.27739" lon="6.89924">
        <ele>847.9</ele>
        <time>2021-08-12T09:53:40Z</time>
      </trkpt>
      <trkpt lat="47.2774" lon="6.89942">
        <ele>848.1</ele>
        <time>2021-08-12T09:53:42Z</time>
      </trkpt>
      <trkpt lat="47.27741" lon="6.89953">
        <ele>848.3</ele>
        <time>2021-08-12T09:53:44Z</time>
      </trkpt>
      <trkpt lat="47.27745" lon="6.89959">
        <ele>848.4</ele>
        <time>2021-08-12T09:53:45Z</time>
      </trkpt>
      <trkpt lat="47.27746" lon="6.8997">
        <ele>848.5</ele>
        <time>2021-08-12T09:53:47Z</time>
      </trkpt>
      <trkpt lat="47.27746" lon="6.8998">
        <ele>848.6</ele>
        <time>2021-08-12T09:53:48Z</time>
      </trkpt>
      <trkpt lat="47.27747" lon="6.89986">
        <ele>848.7</ele>
        <time>2021-08-12T09:53:49Z</time>
      </trkpt>
      <trkpt lat="47.2775" lon="6.89995">
        <ele>848.8</ele>
        <time>2021-08-12T09:53:51Z</time>
      </trkpt>
      <trkpt lat="47.27752" lon="6.9">
        <ele>848.9</ele>
        <time>2021-08-12T09:53:52Z</time>
      </trkpt>
      <trkpt lat="47.27756" lon="6.9001">
        <ele>849</ele>
        <time>2021-08-12T09:53:54Z</time>
      </trkpt>
      <trkpt lat="47.2776" lon="6.90021">
        <ele>849.2</ele>
        <time>2021-08-12T09:53:56Z</time>
      </trkpt>
      <trkpt lat="47.27763" lon="6.90028">
        <ele>849.3</ele>
        <time>2021-08-12T09:53:57Z</time>
      </trkpt>
      <trkpt lat="47.27765" lon="6.90036">
        <ele>849.4</ele>
        <time>2021-08-12T09:53:58Z</time>
      </trkpt>
      <trkpt lat="47.27767" lon="6.90045">
        <ele>849.5</ele>
        <time>2021-08-12T09:54:00Z</time>
      </trkpt>
      <trkpt lat="47.2777" lon="6.90053">
        <ele>849.6</ele>
        <time>2021-08-12T09:54:01Z</time>
      </trkpt>
      <trkpt lat="47.27772" lon="6.90059">
        <ele>849.7</ele>
        <time>2021-08-12T09:54:02Z</time>
      </trkpt>
      <trkpt lat="47.27776" lon="6.90067">
        <ele>849.8</ele>
        <time>2021-08-12T09:54:03Z</time>
      </trkpt>
      <trkpt lat="47.27779" lon="6.90075">
        <ele>849.8</ele>
        <time>2021-08-12T09:54:05Z</time>
      </trkpt>
      <trkpt lat="47.2778" lon="6.90082">
        <ele>849.9</ele>
        <time>2021-08-12T09:54:06Z</time>
      </trkpt>
      <trkpt lat="47.27783" lon="6.90093">
        <ele>850</ele>
        <time>2021-08-12T09:54:08Z</time>
      </trkpt>
      <trkpt lat="47.2779" lon="6.90104">
        <ele>850.1</ele>
        <time>2021-08-12T09:54:10Z</time>
      </trkpt>
      <trkpt lat="47.27793" lon="6.90109">
        <ele>850.2</ele>
        <time>2021-08-12T09:54:11Z</time>
      </trkpt>
      <trkpt lat="47.27797" lon="6.90108">
        <ele>850.3</ele>
        <time>2021-08-12T09:54:13Z</time>
      </trkpt>
      <trkpt lat="47.27799" lon="6.9012">
        <ele>850.4</ele>
        <time>2021-08-12T09:54:14Z</time>
      </trkpt>
      <trkpt lat="47.27801" lon="6.9013">
        <ele>850.6</ele>
        <time>2021-08-12T09:54:15Z</time>
      </trkpt>
      <trkpt lat="47.27805" lon="6.90137">
        <ele>850.7</ele>
        <time>2021-08-12T09:54:17Z</time>
      </trkpt>
      <trkpt lat="47.27809" lon="6.90146">
        <ele>850.7</ele>
        <time>2021-08-12T09:54:19Z</time>
      </trkpt>
      <trkpt lat="47.27812" lon="6.90153">
        <ele>850.8</ele>
        <time>2021-08-12T09:54:20Z</time>
      </trkpt>
      <trkpt lat="47.27815" lon="6.90161">
        <ele>850.8</ele>
        <time>2021-08-12T09:54:21Z</time>
      </trkpt>
      <trkpt lat="47.27817" lon="6.90168">
        <ele>850.9</ele>
        <time>2021-08-12T09:54:23Z</time>
      </trkpt>
      <trkpt lat="47.27818" lon="6.90174">
        <ele>850.9</ele>
        <time>2021-08-12T09:54:24Z</time>
      </trkpt>
      <trkpt lat="47.27819" lon="6.90183">
        <ele>850.9</ele>
        <time>2021-08-12T09:54:25Z</time>
      </trkpt>
      <trkpt lat="47.27821" lon="6.90189">
        <ele>850.9</ele>
        <time>2021-08-12T09:54:26Z</time>
      </trkpt>
      <trkpt lat="47.27823" lon="6.90195">
        <ele>850.9</ele>
        <time>2021-08-12T09:54:27Z</time>
      </trkpt>
      <trkpt lat="47.27825" lon="6.90206">
        <ele>850.9</ele>
        <time>2021-08-12T09:54:29Z</time>
      </trkpt>
      <trkpt lat="47.27828" lon="6.90214">
        <ele>850.9</ele>
        <time>2021-08-12T09:54:30Z</time>
      </trkpt>
      <trkpt lat="47.27832" lon="6.90228">
        <ele>850.9</ele>
        <time>2021-08-12T09:54:32Z</time>
      </trkpt>
      <trkpt lat="47.27834" lon="6.90235">
        <ele>850.9</ele>
        <time>2021-08-12T09:54:33Z</time>
      </trkpt>
      <trkpt lat="47.27839" lon="6.90247">
        <ele>850.8</ele>
        <time>2021-08-12T09:54:35Z</time>
      </trkpt>
      <trkpt lat="47.27842" lon="6.90253">
        <ele>850.8</ele>
        <time>2021-08-12T09:54:36Z</time>
      </trkpt>
      <trkpt lat="47.27845" lon="6.90266">
        <ele>850.8</ele>
        <time>2021-08-12T09:54:38Z</time>
      </trkpt>
      <trkpt lat="47.2785" lon="6.90278">
        <ele>850.7</ele>
        <time>2021-08-12T09:54:40Z</time>
      </trkpt>
      <trkpt lat="47.27852" lon="6.90285">
        <ele>850.7</ele>
        <time>2021-08-12T09:54:41Z</time>
      </trkpt>
      <trkpt lat="47.27855" lon="6.90292">
        <ele>850.8</ele>
        <time>2021-08-12T09:54:42Z</time>
      </trkpt>
      <trkpt lat="47.2786" lon="6.90306">
        <ele>850.8</ele>
        <time>2021-08-12T09:54:44Z</time>
      </trkpt>
      <trkpt lat="47.27865" lon="6.90319">
        <ele>850.8</ele>
        <time>2021-08-12T09:54:46Z</time>
      </trkpt>
      <trkpt lat="47.27866" lon="6.90326">
        <ele>850.8</ele>
        <time>2021-08-12T09:54:47Z</time>
      </trkpt>
      <trkpt lat="47.27869" lon="6.90339">
        <ele>850.8</ele>
        <time>2021-08-12T09:54:49Z</time>
      </trkpt>
      <trkpt lat="47.27871" lon="6.90345">
        <ele>850.8</ele>
        <time>2021-08-12T09:54:50Z</time>
      </trkpt>
      <trkpt lat="47.27875" lon="6.90359">
        <ele>850.8</ele>
        <time>2021-08-12T09:54:52Z</time>
      </trkpt>
      <trkpt lat="47.27877" lon="6.90366">
        <ele>850.8</ele>
        <time>2021-08-12T09:54:53Z</time>
      </trkpt>
      <trkpt lat="47.2788" lon="6.90381">
        <ele>850.9</ele>
        <time>2021-08-12T09:54:55Z</time>
      </trkpt>
      <trkpt lat="47.27882" lon="6.90388">
        <ele>850.9</ele>
        <time>2021-08-12T09:54:56Z</time>
      </trkpt>
      <trkpt lat="47.27886" lon="6.90402">
        <ele>851</ele>
        <time>2021-08-12T09:54:58Z</time>
      </trkpt>
      <trkpt lat="47.27888" lon="6.90408">
        <ele>851.1</ele>
        <time>2021-08-12T09:54:59Z</time>
      </trkpt>
      <trkpt lat="47.27893" lon="6.90422">
        <ele>851.2</ele>
        <time>2021-08-12T09:55:01Z</time>
      </trkpt>
      <trkpt lat="47.27895" lon="6.90429">
        <ele>851.2</ele>
        <time>2021-08-12T09:55:02Z</time>
      </trkpt>
      <trkpt lat="47.27898" lon="6.90441">
        <ele>851.3</ele>
        <time>2021-08-12T09:55:04Z</time>
      </trkpt>
      <trkpt lat="47.279" lon="6.90447">
        <ele>851.3</ele>
        <time>2021-08-12T09:55:05Z</time>
      </trkpt>
      <trkpt lat="47.279" lon="6.90453">
        <ele>851.4</ele>
        <time>2021-08-12T09:55:06Z</time>
      </trkpt>
      <trkpt lat="47.27902" lon="6.90466">
        <ele>851.5</ele>
        <time>2021-08-12T09:55:08Z</time>
      </trkpt>
      <trkpt lat="47.27904" lon="6.9048">
        <ele>851.6</ele>
        <time>2021-08-12T09:55:10Z</time>
      </trkpt>
      <trkpt lat="47.27906" lon="6.90487">
        <ele>851.7</ele>
        <time>2021-08-12T09:55:11Z</time>
      </trkpt>
      <trkpt lat="47.27907" lon="6.90494">
        <ele>851.8</ele>
        <time>2021-08-12T09:55:12Z</time>
      </trkpt>
      <trkpt lat="47.27909" lon="6.90508">
        <ele>851.9</ele>
        <time>2021-08-12T09:55:14Z</time>
      </trkpt>
      <trkpt lat="47.27906" lon="6.90521">
        <ele>852.1</ele>
        <time>2021-08-12T09:55:16Z</time>
      </trkpt>
      <trkpt lat="47.27908" lon="6.90527">
        <ele>852.3</ele>
        <time>2021-08-12T09:55:17Z</time>
      </trkpt>
      <trkpt lat="47.27909" lon="6.90533">
        <ele>852.4</ele>
        <time>2021-08-12T09:55:18Z</time>
      </trkpt>
      <trkpt lat="47.27912" lon="6.90542">
        <ele>852.5</ele>
        <time>2021-08-12T09:55:20Z</time>
      </trkpt>
      <trkpt lat="47.27915" lon="6.90553">
        <ele>852.8</ele>
        <time>2021-08-12T09:55:22Z</time>
      </trkpt>
      <trkpt lat="47.27919" lon="6.90561">
        <ele>853</ele>
        <time>2021-08-12T09:55:23Z</time>
      </trkpt>
      <trkpt lat="47.27922" lon="6.90569">
        <ele>853.2</ele>
        <time>2021-08-12T09:55:25Z</time>
      </trkpt>
      <trkpt lat="47.27925" lon="6.90576">
        <ele>853.3</ele>
        <time>2021-08-12T09:55:26Z</time>
      </trkpt>
      <trkpt lat="47.27928" lon="6.90583">
        <ele>853.5</ele>
        <time>2021-08-12T09:55:27Z</time>
      </trkpt>
      <trkpt lat="47.27932" lon="6.90592">
        <ele>853.7</ele>
        <time>2021-08-12T09:55:29Z</time>
      </trkpt>
      <trkpt lat="47.27934" lon="6.90601">
        <ele>853.9</ele>
        <time>2021-08-12T09:55:30Z</time>
      </trkpt>
      <trkpt lat="47.27935" lon="6.9061">
        <ele>854.1</ele>
        <time>2021-08-12T09:55:31Z</time>
      </trkpt>
      <trkpt lat="47.27937" lon="6.90619">
        <ele>854.3</ele>
        <time>2021-08-12T09:55:33Z</time>
      </trkpt>
      <trkpt lat="47.27939" lon="6.90628">
        <ele>854.5</ele>
        <time>2021-08-12T09:55:35Z</time>
      </trkpt>
      <trkpt lat="47.27941" lon="6.90635">
        <ele>854.7</ele>
        <time>2021-08-12T09:55:36Z</time>
      </trkpt>
      <trkpt lat="47.27943" lon="6.90641">
        <ele>854.9</ele>
        <time>2021-08-12T09:55:37Z</time>
      </trkpt>
      <trkpt lat="47.27945" lon="6.90648">
        <ele>855</ele>
        <time>2021-08-12T09:55:39Z</time>
      </trkpt>
      <trkpt lat="47.27946" lon="6.90654">
        <ele>855.2</ele>
        <time>2021-08-12T09:55:40Z</time>
      </trkpt>
      <trkpt lat="47.27948" lon="6.90664">
        <ele>855.4</ele>
        <time>2021-08-12T09:55:42Z</time>
      </trkpt>
      <trkpt lat="47.2795" lon="6.90673">
        <ele>855.6</ele>
        <time>2021-08-12T09:55:43Z</time>
      </trkpt>
      <trkpt lat="47.27952" lon="6.9068">
        <ele>855.8</ele>
        <time>2021-08-12T09:55:45Z</time>
      </trkpt>
      <trkpt lat="47.27953" lon="6.90686">
        <ele>855.9</ele>
        <time>2021-08-12T09:55:46Z</time>
      </trkpt>
      <trkpt lat="47.27954" lon="6.90692">
        <ele>856</ele>
        <time>2021-08-12T09:55:47Z</time>
      </trkpt>
      <trkpt lat="47.27955" lon="6.90704">
        <ele>856.3</ele>
        <time>2021-08-12T09:55:49Z</time>
      </trkpt>
      <trkpt lat="47.27956" lon="6.9071">
        <ele>856.4</ele>
        <time>2021-08-12T09:55:50Z</time>
      </trkpt>
      <trkpt lat="47.27958" lon="6.9072">
        <ele>856.6</ele>
        <time>2021-08-12T09:55:52Z</time>
      </trkpt>
      <trkpt lat="47.27959" lon="6.90726">
        <ele>856.7</ele>
        <time>2021-08-12T09:55:53Z</time>
      </trkpt>
      <trkpt lat="47.27959" lon="6.90731">
        <ele>856.8</ele>
        <time>2021-08-12T09:55:54Z</time>
      </trkpt>
      <trkpt lat="47.2796" lon="6.90738">
        <ele>856.9</ele>
        <time>2021-08-12T09:55:55Z</time>
      </trkpt>
      <trkpt lat="47.27962" lon="6.90746">
        <ele>857</ele>
        <time>2021-08-12T09:55:57Z</time>
      </trkpt>
      <trkpt lat="47.27963" lon="6.90752">
        <ele>857.1</ele>
        <time>2021-08-12T09:55:58Z</time>
      </trkpt>
      <trkpt lat="47.27965" lon="6.90761">
        <ele>857.3</ele>
        <time>2021-08-12T09:56:00Z</time>
      </trkpt>
      <trkpt lat="47.27966" lon="6.90766">
        <ele>857.4</ele>
        <time>2021-08-12T09:56:01Z</time>
      </trkpt>
      <trkpt lat="47.27967" lon="6.90772">
        <ele>857.5</ele>
        <time>2021-08-12T09:56:02Z</time>
      </trkpt>
      <trkpt lat="47.27968" lon="6.90777">
        <ele>857.6</ele>
        <time>2021-08-12T09:56:03Z</time>
      </trkpt>
      <trkpt lat="47.2797" lon="6.90786">
        <ele>857.8</ele>
        <time>2021-08-12T09:56:05Z</time>
      </trkpt>
      <trkpt lat="47.27971" lon="6.90791">
        <ele>857.8</ele>
        <time>2021-08-12T09:56:06Z</time>
      </trkpt>
      <trkpt lat="47.27971" lon="6.90798">
        <ele>858</ele>
        <time>2021-08-12T09:56:07Z</time>
      </trkpt>
      <trkpt lat="47.27972" lon="6.90805">
        <ele>858.1</ele>
        <time>2021-08-12T09:56:09Z</time>
      </trkpt>
      <trkpt lat="47.27973" lon="6.90813">
        <ele>858.2</ele>
        <time>2021-08-12T09:56:10Z</time>
      </trkpt>
      <trkpt lat="47.27973" lon="6.9082">
        <ele>858.3</ele>
        <time>2021-08-12T09:56:11Z</time>
      </trkpt>
      <trkpt lat="47.27975" lon="6.90828">
        <ele>858.4</ele>
        <time>2021-08-12T09:56:13Z</time>
      </trkpt>
      <trkpt lat="47.27975" lon="6.90833">
        <ele>858.5</ele>
        <time>2021-08-12T09:56:14Z</time>
      </trkpt>
      <trkpt lat="47.27976" lon="6.90844">
        <ele>858.7</ele>
        <time>2021-08-12T09:56:16Z</time>
      </trkpt>
      <trkpt lat="47.27977" lon="6.90854">
        <ele>858.8</ele>
        <time>2021-08-12T09:56:18Z</time>
      </trkpt>
      <trkpt lat="47.2798" lon="6.90864">
        <ele>859</ele>
        <time>2021-08-12T09:56:20Z</time>
      </trkpt>
      <trkpt lat="47.27982" lon="6.90874">
        <ele>859.1</ele>
        <time>2021-08-12T09:56:22Z</time>
      </trkpt>
      <trkpt lat="47.27982" lon="6.90881">
        <ele>859.2</ele>
        <time>2021-08-12T09:56:23Z</time>
      </trkpt>
      <trkpt lat="47.27982" lon="6.90887">
        <ele>859.3</ele>
        <time>2021-08-12T09:56:24Z</time>
      </trkpt>
      <trkpt lat="47.27983" lon="6.90892">
        <ele>859.4</ele>
        <time>2021-08-12T09:56:26Z</time>
      </trkpt>
      <trkpt lat="47.27983" lon="6.90898">
        <ele>859.5</ele>
        <time>2021-08-12T09:56:27Z</time>
      </trkpt>
      <trkpt lat="47.27984" lon="6.90903">
        <ele>859.6</ele>
        <time>2021-08-12T09:56:28Z</time>
      </trkpt>
      <trkpt lat="47.27986" lon="6.90911">
        <ele>859.8</ele>
        <time>2021-08-12T09:56:30Z</time>
      </trkpt>
      <trkpt lat="47.27987" lon="6.90919">
        <ele>859.9</ele>
        <time>2021-08-12T09:56:32Z</time>
      </trkpt>
      <trkpt lat="47.27988" lon="6.90928">
        <ele>860.1</ele>
        <time>2021-08-12T09:56:34Z</time>
      </trkpt>
      <trkpt lat="47.27989" lon="6.90936">
        <ele>860.2</ele>
        <time>2021-08-12T09:56:36Z</time>
      </trkpt>
      <trkpt lat="47.27989" lon="6.90945">
        <ele>860.4</ele>
        <time>2021-08-12T09:56:38Z</time>
      </trkpt>
      <trkpt lat="47.2799" lon="6.90949">
        <ele>860.5</ele>
        <time>2021-08-12T09:56:39Z</time>
      </trkpt>
      <trkpt lat="47.27992" lon="6.90954">
        <ele>860.6</ele>
        <time>2021-08-12T09:56:40Z</time>
      </trkpt>
      <trkpt lat="47.27992" lon="6.90956">
        <ele>860.7</ele>
        <time>2021-08-12T09:56:41Z</time>
      </trkpt>
      <trkpt lat="47.27993" lon="6.90962">
        <ele>860.8</ele>
        <time>2021-08-12T09:56:42Z</time>
      </trkpt>
      <trkpt lat="47.27993" lon="6.90964">
        <ele>860.8</ele>
        <time>2021-08-12T09:56:43Z</time>
      </trkpt>
      <trkpt lat="47.27994" lon="6.90968">
        <ele>860.8</ele>
        <time>2021-08-12T09:56:44Z</time>
      </trkpt>
      <trkpt lat="47.27996" lon="6.90976">
        <ele>861</ele>
        <time>2021-08-12T09:56:46Z</time>
      </trkpt>
      <trkpt lat="47.27998" lon="6.90981">
        <ele>861</ele>
        <time>2021-08-12T09:56:47Z</time>
      </trkpt>
      <trkpt lat="47.28001" lon="6.9099">
        <ele>861.2</ele>
        <time>2021-08-12T09:56:49Z</time>
      </trkpt>
      <trkpt lat="47.28001" lon="6.90994">
        <ele>861.3</ele>
        <time>2021-08-12T09:56:50Z</time>
      </trkpt>
      <trkpt lat="47.28002" lon="6.91003">
        <ele>861.4</ele>
        <time>2021-08-12T09:56:52Z</time>
      </trkpt>
      <trkpt lat="47.28004" lon="6.9101">
        <ele>861.5</ele>
        <time>2021-08-12T09:56:54Z</time>
      </trkpt>
      <trkpt lat="47.28005" lon="6.91014">
        <ele>861.6</ele>
        <time>2021-08-12T09:56:55Z</time>
      </trkpt>
      <trkpt lat="47.28006" lon="6.91018">
        <ele>861.7</ele>
        <time>2021-08-12T09:56:56Z</time>
      </trkpt>
      <trkpt lat="47.28007" lon="6.91023">
        <ele>861.8</ele>
        <time>2021-08-12T09:56:57Z</time>
      </trkpt>
      <trkpt lat="47.28009" lon="6.91031">
        <ele>861.9</ele>
        <time>2021-08-12T09:56:59Z</time>
      </trkpt>
      <trkpt lat="47.28011" lon="6.91037">
        <ele>862</ele>
        <time>2021-08-12T09:57:00Z</time>
      </trkpt>
      <trkpt lat="47.28011" lon="6.91041">
        <ele>862.1</ele>
        <time>2021-08-12T09:57:01Z</time>
      </trkpt>
      <trkpt lat="47.28012" lon="6.91045">
        <ele>862.2</ele>
        <time>2021-08-12T09:57:02Z</time>
      </trkpt>
      <trkpt lat="47.28011" lon="6.91049">
        <ele>862.2</ele>
        <time>2021-08-12T09:57:03Z</time>
      </trkpt>
      <trkpt lat="47.28011" lon="6.91054">
        <ele>862.3</ele>
        <time>2021-08-12T09:57:05Z</time>
      </trkpt>
      <trkpt lat="47.28012" lon="6.91058">
        <ele>862.4</ele>
        <time>2021-08-12T09:57:06Z</time>
      </trkpt>
      <trkpt lat="47.28013" lon="6.91062">
        <ele>862.4</ele>
        <time>2021-08-12T09:57:07Z</time>
      </trkpt>
      <trkpt lat="47.28014" lon="6.91065">
        <ele>862.4</ele>
        <time>2021-08-12T09:57:08Z</time>
      </trkpt>
      <trkpt lat="47.28015" lon="6.91071">
        <ele>862.4</ele>
        <time>2021-08-12T09:57:10Z</time>
      </trkpt>
      <trkpt lat="47.28017" lon="6.91074">
        <ele>862.4</ele>
        <time>2021-08-12T09:57:11Z</time>
      </trkpt>
      <trkpt lat="47.28019" lon="6.91079">
        <ele>862.4</ele>
        <time>2021-08-12T09:57:13Z</time>
      </trkpt>
      <trkpt lat="47.28019" lon="6.91081">
        <ele>862.4</ele>
        <time>2021-08-12T09:57:14Z</time>
      </trkpt>
      <trkpt lat="47.2802" lon="6.91087">
        <ele>862.3</ele>
        <time>2021-08-12T09:57:16Z</time>
      </trkpt>
      <trkpt lat="47.28023" lon="6.91095">
        <ele>862.3</ele>
        <time>2021-08-12T09:57:18Z</time>
      </trkpt>
      <trkpt lat="47.28024" lon="6.91102">
        <ele>862.1</ele>
        <time>2021-08-12T09:57:20Z</time>
      </trkpt>
      <trkpt lat="47.28023" lon="6.91108">
        <ele>862</ele>
        <time>2021-08-12T09:57:21Z</time>
      </trkpt>
      <trkpt lat="47.28022" lon="6.91113">
        <ele>861.8</ele>
        <time>2021-08-12T09:57:22Z</time>
      </trkpt>
      <trkpt lat="47.28023" lon="6.91123">
        <ele>861.6</ele>
        <time>2021-08-12T09:57:24Z</time>
      </trkpt>
      <trkpt lat="47.28025" lon="6.91132">
        <ele>861.5</ele>
        <time>2021-08-12T09:57:26Z</time>
      </trkpt>
      <trkpt lat="47.28025" lon="6.91139">
        <ele>861.3</ele>
        <time>2021-08-12T09:57:28Z</time>
      </trkpt>
      <trkpt lat="47.28026" lon="6.91145">
        <ele>861.1</ele>
        <time>2021-08-12T09:57:29Z</time>
      </trkpt>
      <trkpt lat="47.28027" lon="6.9115">
        <ele>860.8</ele>
        <time>2021-08-12T09:57:30Z</time>
      </trkpt>
      <trkpt lat="47.28027" lon="6.91154">
        <ele>860.6</ele>
        <time>2021-08-12T09:57:32Z</time>
      </trkpt>
      <trkpt lat="47.28028" lon="6.91159">
        <ele>860.4</ele>
        <time>2021-08-12T09:57:34Z</time>
      </trkpt>
      <trkpt lat="47.28029" lon="6.91163">
        <ele>860.2</ele>
        <time>2021-08-12T09:57:35Z</time>
      </trkpt>
      <trkpt lat="47.28029" lon="6.91168">
        <ele>860</ele>
        <time>2021-08-12T09:57:36Z</time>
      </trkpt>
      <trkpt lat="47.2803" lon="6.91172">
        <ele>859.7</ele>
        <time>2021-08-12T09:57:37Z</time>
      </trkpt>
      <trkpt lat="47.28031" lon="6.91177">
        <ele>859.5</ele>
        <time>2021-08-12T09:57:39Z</time>
      </trkpt>
      <trkpt lat="47.28031" lon="6.91182">
        <ele>859.3</ele>
        <time>2021-08-12T09:58:44Z</time>
      </trkpt>
      <trkpt lat="47.28032" lon="6.91186">
        <ele>859.1</ele>
        <time>2021-08-12T09:58:45Z</time>
      </trkpt>
      <trkpt lat="47.28029" lon="6.91197">
        <ele>858.5</ele>
        <time>2021-08-12T09:58:46Z</time>
      </trkpt>
      <trkpt lat="47.28026" lon="6.91206">
        <ele>858</ele>
        <time>2021-08-12T09:58:47Z</time>
      </trkpt>
      <trkpt lat="47.28023" lon="6.91225">
        <ele>857.1</ele>
        <time>2021-08-12T09:58:49Z</time>
      </trkpt>
      <trkpt lat="47.28022" lon="6.91235">
        <ele>856.7</ele>
        <time>2021-08-12T09:58:50Z</time>
      </trkpt>
      <trkpt lat="47.2802" lon="6.91251">
        <ele>855.9</ele>
        <time>2021-08-12T09:58:52Z</time>
      </trkpt>
      <trkpt lat="47.28019" lon="6.91266">
        <ele>855.2</ele>
        <time>2021-08-12T09:58:54Z</time>
      </trkpt>
      <trkpt lat="47.2802" lon="6.9128">
        <ele>854.5</ele>
        <time>2021-08-12T09:58:56Z</time>
      </trkpt>
      <trkpt lat="47.2802" lon="6.91288">
        <ele>854.2</ele>
        <time>2021-08-12T09:58:57Z</time>
      </trkpt>
      <trkpt lat="47.28023" lon="6.91303">
        <ele>853.6</ele>
        <time>2021-08-12T09:58:59Z</time>
      </trkpt>
      <trkpt lat="47.28024" lon="6.91311">
        <ele>853.3</ele>
        <time>2021-08-12T09:59:00Z</time>
      </trkpt>
      <trkpt lat="47.28024" lon="6.91329">
        <ele>852.6</ele>
        <time>2021-08-12T09:59:02Z</time>
      </trkpt>
      <trkpt lat="47.28026" lon="6.91348">
        <ele>851.8</ele>
        <time>2021-08-12T09:59:04Z</time>
      </trkpt>
      <trkpt lat="47.28026" lon="6.91356">
        <ele>851.5</ele>
        <time>2021-08-12T09:59:05Z</time>
      </trkpt>
      <trkpt lat="47.28027" lon="6.91364">
        <ele>851.2</ele>
        <time>2021-08-12T09:59:06Z</time>
      </trkpt>
      <trkpt lat="47.28024" lon="6.91379">
        <ele>850.7</ele>
        <time>2021-08-12T09:59:08Z</time>
      </trkpt>
      <trkpt lat="47.28022" lon="6.9139">
        <ele>850.4</ele>
        <time>2021-08-12T09:59:10Z</time>
      </trkpt>
      <trkpt lat="47.2802" lon="6.91394">
        <ele>850.3</ele>
        <time>2021-08-12T09:59:11Z</time>
      </trkpt>
      <trkpt lat="47.28019" lon="6.914">
        <ele>850.1</ele>
        <time>2021-08-12T09:59:12Z</time>
      </trkpt>
      <trkpt lat="47.28019" lon="6.91406">
        <ele>850</ele>
        <time>2021-08-12T09:59:13Z</time>
      </trkpt>
      <trkpt lat="47.2802" lon="6.91414">
        <ele>850</ele>
        <time>2021-08-12T09:59:14Z</time>
      </trkpt>
      <trkpt lat="47.28023" lon="6.91422">
        <ele>849.9</ele>
        <time>2021-08-12T09:59:16Z</time>
      </trkpt>
      <trkpt lat="47.28026" lon="6.91432">
        <ele>849.4</ele>
        <time>2021-08-12T09:59:18Z</time>
      </trkpt>
      <trkpt lat="47.28027" lon="6.91442">
        <ele>849</ele>
        <time>2021-08-12T09:59:19Z</time>
      </trkpt>
      <trkpt lat="47.28028" lon="6.91451">
        <ele>848.6</ele>
        <time>2021-08-12T09:59:20Z</time>
      </trkpt>
      <trkpt lat="47.28029" lon="6.91471">
        <ele>847.7</ele>
        <time>2021-08-12T09:59:22Z</time>
      </trkpt>
      <trkpt lat="47.2803" lon="6.91481">
        <ele>847.3</ele>
        <time>2021-08-12T09:59:23Z</time>
      </trkpt>
      <trkpt lat="47.28033" lon="6.91491">
        <ele>846.8</ele>
        <time>2021-08-12T09:59:24Z</time>
      </trkpt>
      <trkpt lat="47.2804" lon="6.91511">
        <ele>845.6</ele>
        <time>2021-08-12T09:59:26Z</time>
      </trkpt>
      <trkpt lat="47.28043" lon="6.91521">
        <ele>844.9</ele>
        <time>2021-08-12T09:59:27Z</time>
      </trkpt>
      <trkpt lat="47.28046" lon="6.9153">
        <ele>844.4</ele>
        <time>2021-08-12T09:59:28Z</time>
      </trkpt>
      <trkpt lat="47.28049" lon="6.9154">
        <ele>844.4</ele>
        <time>2021-08-12T09:59:29Z</time>
      </trkpt>
      <trkpt lat="47.28048" lon="6.91549">
        <ele>844.3</ele>
        <time>2021-08-12T09:59:30Z</time>
      </trkpt>
      <trkpt lat="47.28046" lon="6.91564">
        <ele>844.2</ele>
        <time>2021-08-12T09:59:32Z</time>
      </trkpt>
      <trkpt lat="47.28046" lon="6.91566">
        <ele>844.2</ele>
        <time>2021-08-12T09:59:34Z</time>
      </trkpt>
      <trkpt lat="47.28046" lon="6.91569">
        <ele>844.2</ele>
        <time>2021-08-12T09:59:35Z</time>
      </trkpt>
      <trkpt lat="47.28046" lon="6.91573">
        <ele>844.2</ele>
        <time>2021-08-12T09:59:36Z</time>
      </trkpt>
      <trkpt lat="47.28037" lon="6.91575">
        <ele>844.1</ele>
        <time>2021-08-12T09:59:38Z</time>
      </trkpt>
      <trkpt lat="47.28035" lon="6.91569">
        <ele>844.1</ele>
        <time>2021-08-12T09:59:39Z</time>
      </trkpt>
      <trkpt lat="47.28035" lon="6.91562">
        <ele>844</ele>
        <time>2021-08-12T09:59:41Z</time>
      </trkpt>
      <trkpt lat="47.28037" lon="6.91559">
        <ele>844.1</ele>
        <time>2021-08-12T09:59:42Z</time>
      </trkpt>
      <trkpt lat="47.28044" lon="6.91553">
        <ele>843.6</ele>
        <time>2021-08-12T09:59:44Z</time>
      </trkpt>
      <trkpt lat="47.28048" lon="6.9155">
        <ele>843.2</ele>
        <time>2021-08-12T09:59:45Z</time>
      </trkpt>
      <trkpt lat="47.28052" lon="6.91544">
        <ele>842.7</ele>
        <time>2021-08-12T09:59:47Z</time>
      </trkpt>
      <trkpt lat="47.28058" lon="6.91539">
        <ele>842.1</ele>
        <time>2021-08-12T09:59:49Z</time>
      </trkpt>
      <trkpt lat="47.28062" lon="6.91539">
        <ele>841.8</ele>
        <time>2021-08-12T09:59:50Z</time>
      </trkpt>
      <trkpt lat="47.28065" lon="6.91538">
        <ele>841.4</ele>
        <time>2021-08-12T09:59:51Z</time>
      </trkpt>
      <trkpt lat="47.28067" lon="6.91536">
        <ele>839.1</ele>
        <time>2021-08-12T09:59:52Z</time>
      </trkpt>
      <trkpt lat="47.2807" lon="6.91533">
        <ele>838.8</ele>
        <time>2021-08-12T09:59:54Z</time>
      </trkpt>
      <trkpt lat="47.2807" lon="6.91536">
        <ele>838.6</ele>
        <time>2021-08-12T09:59:56Z</time>
      </trkpt>
      <trkpt lat="47.2807" lon="6.91538">
        <ele>838.5</ele>
        <time>2021-08-12T09:59:58Z</time>
      </trkpt>
      <trkpt lat="47.2807" lon="6.91538">
        <ele>838.5</ele>
        <time>2021-08-12T09:59:59Z</time>
      </trkpt>
      <trkpt lat="47.2807" lon="6.91538">
        <ele>838.5</ele>
        <time>2021-08-12T10:00:00Z</time>
      </trkpt>
      <trkpt lat="47.2807" lon="6.91538">
        <ele>838.5</ele>
        <time>2021-08-12T10:00:02Z</time>
      </trkpt>
      <trkpt lat="47.2807" lon="6.91538">
        <ele>838.4</ele>
        <time>2021-08-12T10:00:03Z</time>
      </trkpt>
      <trkpt lat="47.28071" lon="6.91538">
        <ele>838.4</ele>
        <time>2021-08-12T10:00:05Z</time>
      </trkpt>
      <trkpt lat="47.28091" lon="6.91577">
        <ele>835.6</ele>
        <time>2021-08-12T10:01:30Z</time>
      </trkpt>
      <trkpt lat="47.28096" lon="6.91584">
        <ele>835.2</ele>
        <time>2021-08-12T10:01:32Z</time>
      </trkpt>
      <trkpt lat="47.28103" lon="6.91593">
        <ele>834.7</ele>
        <time>2021-08-12T10:01:33Z</time>
      </trkpt>
      <trkpt lat="47.28108" lon="6.91599">
        <ele>834.4</ele>
        <time>2021-08-12T10:01:34Z</time>
      </trkpt>
      <trkpt lat="47.28115" lon="6.91611">
        <ele>834.1</ele>
        <time>2021-08-12T10:01:35Z</time>
      </trkpt>
      <trkpt lat="47.28123" lon="6.91616">
        <ele>833.9</ele>
        <time>2021-08-12T10:01:37Z</time>
      </trkpt>
      <trkpt lat="47.28128" lon="6.91619">
        <ele>833.7</ele>
        <time>2021-08-12T10:01:38Z</time>
      </trkpt>
      <trkpt lat="47.28131" lon="6.9162">
        <ele>832.6</ele>
        <time>2021-08-12T10:01:40Z</time>
      </trkpt>
      <trkpt lat="47.28132" lon="6.9162">
        <ele>832.6</ele>
        <time>2021-08-12T10:01:41Z</time>
      </trkpt>
      <trkpt lat="47.28136" lon="6.91618">
        <ele>832.4</ele>
        <time>2021-08-12T10:01:42Z</time>
      </trkpt>
      <trkpt lat="47.28138" lon="6.91618">
        <ele>832.3</ele>
        <time>2021-08-12T10:01:43Z</time>
      </trkpt>
      <trkpt lat="47.28139" lon="6.91618">
        <ele>832.2</ele>
        <time>2021-08-12T10:01:45Z</time>
      </trkpt>
      <trkpt lat="47.28139" lon="6.91618">
        <ele>832.2</ele>
        <time>2021-08-12T10:01:46Z</time>
      </trkpt>
      <trkpt lat="47.28139" lon="6.91617">
        <ele>832.2</ele>
        <time>2021-08-12T10:01:47Z</time>
      </trkpt>
      <trkpt lat="47.28139" lon="6.91617">
        <ele>832.2</ele>
        <time>2021-08-12T10:01:48Z</time>
      </trkpt>
      <trkpt lat="47.28139" lon="6.91615">
        <ele>832.1</ele>
        <time>2021-08-12T10:01:50Z</time>
      </trkpt>
      <trkpt lat="47.28139" lon="6.91612">
        <ele>832</ele>
        <time>2021-08-12T10:01:52Z</time>
      </trkpt>
      <trkpt lat="47.28135" lon="6.91617">
        <ele>831.7</ele>
        <time>2021-08-12T10:01:53Z</time>
      </trkpt>
      <trkpt lat="47.28131" lon="6.91622">
        <ele>831.4</ele>
        <time>2021-08-12T10:02:24Z</time>
      </trkpt>
      <trkpt lat="47.28127" lon="6.91627">
        <ele>831.1</ele>
        <time>2021-08-12T10:02:26Z</time>
      </trkpt>
      <trkpt lat="47.28122" lon="6.91633">
        <ele>830.7</ele>
        <time>2021-08-12T10:02:27Z</time>
      </trkpt>
      <trkpt lat="47.28114" lon="6.91644">
        <ele>830</ele>
        <time>2021-08-12T10:02:29Z</time>
      </trkpt>
      <trkpt lat="47.28109" lon="6.9165">
        <ele>829.6</ele>
        <time>2021-08-12T10:02:30Z</time>
      </trkpt>
      <trkpt lat="47.28099" lon="6.9166">
        <ele>828.7</ele>
        <time>2021-08-12T10:02:32Z</time>
      </trkpt>
      <trkpt lat="47.28093" lon="6.91666">
        <ele>828.3</ele>
        <time>2021-08-12T10:02:33Z</time>
      </trkpt>
      <trkpt lat="47.28087" lon="6.91671">
        <ele>827.8</ele>
        <time>2021-08-12T10:02:34Z</time>
      </trkpt>
      <trkpt lat="47.28078" lon="6.91683">
        <ele>826.8</ele>
        <time>2021-08-12T10:02:36Z</time>
      </trkpt>
      <trkpt lat="47.28075" lon="6.91691">
        <ele>826.4</ele>
        <time>2021-08-12T10:02:38Z</time>
      </trkpt>
      <trkpt lat="47.28073" lon="6.91695">
        <ele>826.1</ele>
        <time>2021-08-12T10:02:40Z</time>
      </trkpt>
      <trkpt lat="47.28075" lon="6.91694">
        <ele>826</ele>
        <time>2021-08-12T10:02:41Z</time>
      </trkpt>
      <trkpt lat="47.28076" lon="6.91694">
        <ele>825.9</ele>
        <time>2021-08-12T10:02:42Z</time>
      </trkpt>
      <trkpt lat="47.28077" lon="6.91694">
        <ele>825.8</ele>
        <time>2021-08-12T10:02:44Z</time>
      </trkpt>
      <trkpt lat="47.28077" lon="6.91695">
        <ele>825.8</ele>
        <time>2021-08-12T10:02:46Z</time>
      </trkpt>
      <trkpt lat="47.28078" lon="6.91694">
        <ele>825.7</ele>
        <time>2021-08-12T10:02:47Z</time>
      </trkpt>
      <trkpt lat="47.28078" lon="6.91693">
        <ele>825.7</ele>
        <time>2021-08-12T10:02:48Z</time>
      </trkpt>
      <trkpt lat="47.28078" lon="6.91693">
        <ele>825.7</ele>
        <time>2021-08-12T10:02:50Z</time>
      </trkpt>
      <trkpt lat="47.28077" lon="6.91693">
        <ele>825.7</ele>
        <time>2021-08-12T10:02:51Z</time>
      </trkpt>
      <trkpt lat="47.28077" lon="6.91693">
        <ele>825.7</ele>
        <time>2021-08-12T10:02:52Z</time>
      </trkpt>
      <trkpt lat="47.28077" lon="6.91693">
        <ele>825.7</ele>
        <time>2021-08-12T10:02:54Z</time>
      </trkpt>
      <trkpt lat="47.28086" lon="6.91692">
        <ele>825</ele>
        <time>2021-08-12T10:03:08Z</time>
      </trkpt>
      <trkpt lat="47.28089" lon="6.91688">
        <ele>824.8</ele>
        <time>2021-08-12T10:03:09Z</time>
      </trkpt>
      <trkpt lat="47.28092" lon="6.91685">
        <ele>824.5</ele>
        <time>2021-08-12T10:03:12Z</time>
      </trkpt>
      <trkpt lat="47.28093" lon="6.91683">
        <ele>824.4</ele>
        <time>2021-08-12T10:03:13Z</time>
      </trkpt>
      <trkpt lat="47.28094" lon="6.91683">
        <ele>824.4</ele>
        <time>2021-08-12T10:03:15Z</time>
      </trkpt>
      <trkpt lat="47.28094" lon="6.91682">
        <ele>824.4</ele>
        <time>2021-08-12T10:03:16Z</time>
      </trkpt>
      <trkpt lat="47.28095" lon="6.91681">
        <ele>824.3</ele>
        <time>2021-08-12T10:03:18Z</time>
      </trkpt>
      <trkpt lat="47.28104" lon="6.91671">
        <ele>823.7</ele>
        <time>2021-08-12T10:03:20Z</time>
      </trkpt>
      <trkpt lat="47.28141" lon="6.9189">
        <ele>815.9</ele>
        <time>2021-08-12T10:04:37Z</time>
      </trkpt>
      <trkpt lat="47.28138" lon="6.91893">
        <ele>816.4</ele>
        <time>2021-08-12T10:04:39Z</time>
      </trkpt>
      <trkpt lat="47.28136" lon="6.91895">
        <ele>816.1</ele>
        <time>2021-08-12T10:04:40Z</time>
      </trkpt>
      <trkpt lat="47.28136" lon="6.91895">
        <ele>815.5</ele>
        <time>2021-08-12T10:04:41Z</time>
      </trkpt>
      <trkpt lat="47.28136" lon="6.91897">
        <ele>815</ele>
        <time>2021-08-12T10:04:43Z</time>
      </trkpt>
      <trkpt lat="47.28136" lon="6.91898">
        <ele>814.4</ele>
        <time>2021-08-12T10:04:44Z</time>
      </trkpt>
      <trkpt lat="47.28136" lon="6.91898">
        <ele>814.1</ele>
        <time>2021-08-12T10:04:45Z</time>
      </trkpt>
      <trkpt lat="47.28136" lon="6.91899">
        <ele>813.5</ele>
        <time>2021-08-12T10:04:46Z</time>
      </trkpt>
      <trkpt lat="47.28138" lon="6.919">
        <ele>813</ele>
        <time>2021-08-12T10:04:48Z</time>
      </trkpt>
      <trkpt lat="47.2814" lon="6.91902">
        <ele>811.2</ele>
        <time>2021-08-12T10:04:49Z</time>
      </trkpt>
      <trkpt lat="47.28229" lon="6.91925">
        <ele>789.6</ele>
        <time>2021-08-12T10:05:21Z</time>
      </trkpt>
      <trkpt lat="47.28233" lon="6.91923">
        <ele>788.8</ele>
        <time>2021-08-12T10:05:22Z</time>
      </trkpt>
      <trkpt lat="47.28237" lon="6.9192">
        <ele>788.2</ele>
        <time>2021-08-12T10:05:23Z</time>
      </trkpt>
      <trkpt lat="47.28241" lon="6.91918">
        <ele>788</ele>
        <time>2021-08-12T10:05:25Z</time>
      </trkpt>
      <trkpt lat="47.28244" lon="6.91915">
        <ele>787.8</ele>
        <time>2021-08-12T10:05:27Z</time>
      </trkpt>
      <trkpt lat="47.28247" lon="6.91913">
        <ele>787.4</ele>
        <time>2021-08-12T10:05:28Z</time>
      </trkpt>
      <trkpt lat="47.28251" lon="6.91913">
        <ele>787.2</ele>
        <time>2021-08-12T10:05:29Z</time>
      </trkpt>
      <trkpt lat="47.28254" lon="6.91911">
        <ele>787.2</ele>
        <time>2021-08-12T10:05:31Z</time>
      </trkpt>
      <trkpt lat="47.28256" lon="6.9191">
        <ele>787</ele>
        <time>2021-08-12T10:05:32Z</time>
      </trkpt>
      <trkpt lat="47.28256" lon="6.91908">
        <ele>786.4</ele>
        <time>2021-08-12T10:05:33Z</time>
      </trkpt>
      <trkpt lat="47.2826" lon="6.91906">
        <ele>786.5</ele>
        <time>2021-08-12T10:05:35Z</time>
      </trkpt>
      <trkpt lat="47.28261" lon="6.91906">
        <ele>786.3</ele>
        <time>2021-08-12T10:05:36Z</time>
      </trkpt>
      <trkpt lat="47.28264" lon="6.91907">
        <ele>786</ele>
        <time>2021-08-12T10:05:37Z</time>
      </trkpt>
      <trkpt lat="47.28269" lon="6.91908">
        <ele>785.7</ele>
        <time>2021-08-12T10:05:39Z</time>
      </trkpt>
      <trkpt lat="47.28273" lon="6.91908">
        <ele>785.4</ele>
        <time>2021-08-12T10:05:40Z</time>
      </trkpt>
      <trkpt lat="47.28278" lon="6.91907">
        <ele>785.1</ele>
        <time>2021-08-12T10:05:41Z</time>
      </trkpt>
      <trkpt lat="47.28287" lon="6.91905">
        <ele>784.6</ele>
        <time>2021-08-12T10:05:43Z</time>
      </trkpt>
      <trkpt lat="47.28291" lon="6.91907">
        <ele>784.4</ele>
        <time>2021-08-12T10:05:44Z</time>
      </trkpt>
      <trkpt lat="47.28301" lon="6.91912">
        <ele>784</ele>
        <time>2021-08-12T10:05:46Z</time>
      </trkpt>
      <trkpt lat="47.28307" lon="6.91918">
        <ele>783.8</ele>
        <time>2021-08-12T10:05:48Z</time>
      </trkpt>
      <trkpt lat="47.28309" lon="6.91924">
        <ele>783.6</ele>
        <time>2021-08-12T10:05:49Z</time>
      </trkpt>
      <trkpt lat="47.28315" lon="6.91926">
        <ele>783.4</ele>
        <time>2021-08-12T10:05:50Z</time>
      </trkpt>
      <trkpt lat="47.28326" lon="6.9193">
        <ele>782.8</ele>
        <time>2021-08-12T10:05:52Z</time>
      </trkpt>
      <trkpt lat="47.28339" lon="6.91935">
        <ele>782.4</ele>
        <time>2021-08-12T10:05:54Z</time>
      </trkpt>
      <trkpt lat="47.28345" lon="6.91938">
        <ele>782.2</ele>
        <time>2021-08-12T10:05:55Z</time>
      </trkpt>
      <trkpt lat="47.28351" lon="6.91942">
        <ele>782</ele>
        <time>2021-08-12T10:05:56Z</time>
      </trkpt>
      <trkpt lat="47.28361" lon="6.9195">
        <ele>781.6</ele>
        <time>2021-08-12T10:05:58Z</time>
      </trkpt>
      <trkpt lat="47.28367" lon="6.91954">
        <ele>781.3</ele>
        <time>2021-08-12T10:05:59Z</time>
      </trkpt>
      <trkpt lat="47.28373" lon="6.91962">
        <ele>781.1</ele>
        <time>2021-08-12T10:06:00Z</time>
      </trkpt>
      <trkpt lat="47.28384" lon="6.91973">
        <ele>780.5</ele>
        <time>2021-08-12T10:06:02Z</time>
      </trkpt>
      <trkpt lat="47.28394" lon="6.91984">
        <ele>780.2</ele>
        <time>2021-08-12T10:06:04Z</time>
      </trkpt>
      <trkpt lat="47.28399" lon="6.91988">
        <ele>780.1</ele>
        <time>2021-08-12T10:06:05Z</time>
      </trkpt>
      <trkpt lat="47.28404" lon="6.91992">
        <ele>779.9</ele>
        <time>2021-08-12T10:06:06Z</time>
      </trkpt>
      <trkpt lat="47.28414" lon="6.91995">
        <ele>779.7</ele>
        <time>2021-08-12T10:06:08Z</time>
      </trkpt>
      <trkpt lat="47.28418" lon="6.91996">
        <ele>779.6</ele>
        <time>2021-08-12T10:06:09Z</time>
      </trkpt>
      <trkpt lat="47.28426" lon="6.92">
        <ele>779.4</ele>
        <time>2021-08-12T10:06:11Z</time>
      </trkpt>
      <trkpt lat="47.2843" lon="6.92003">
        <ele>779.3</ele>
        <time>2021-08-12T10:06:12Z</time>
      </trkpt>
      <trkpt lat="47.28438" lon="6.9201">
        <ele>779.1</ele>
        <time>2021-08-12T10:06:14Z</time>
      </trkpt>
      <trkpt lat="47.28441" lon="6.92013">
        <ele>779.1</ele>
        <time>2021-08-12T10:06:15Z</time>
      </trkpt>
      <trkpt lat="47.28449" lon="6.92022">
        <ele>778.9</ele>
        <time>2021-08-12T10:06:17Z</time>
      </trkpt>
      <trkpt lat="47.28453" lon="6.92028">
        <ele>778.9</ele>
        <time>2021-08-12T10:06:18Z</time>
      </trkpt>
      <trkpt lat="47.28462" lon="6.92037">
        <ele>778.8</ele>
        <time>2021-08-12T10:06:20Z</time>
      </trkpt>
      <trkpt lat="47.28466" lon="6.92041">
        <ele>778.8</ele>
        <time>2021-08-12T10:06:21Z</time>
      </trkpt>
      <trkpt lat="47.28476" lon="6.92047">
        <ele>778.8</ele>
        <time>2021-08-12T10:06:23Z</time>
      </trkpt>
      <trkpt lat="47.28481" lon="6.9205">
        <ele>778.8</ele>
        <time>2021-08-12T10:06:24Z</time>
      </trkpt>
      <trkpt lat="47.28487" lon="6.92054">
        <ele>778.8</ele>
        <time>2021-08-12T10:06:25Z</time>
      </trkpt>
      <trkpt lat="47.28497" lon="6.92063">
        <ele>779</ele>
        <time>2021-08-12T10:06:27Z</time>
      </trkpt>
      <trkpt lat="47.28501" lon="6.92067">
        <ele>779.1</ele>
        <time>2021-08-12T10:06:28Z</time>
      </trkpt>
      <trkpt lat="47.28505" lon="6.92072">
        <ele>779.1</ele>
        <time>2021-08-12T10:06:29Z</time>
      </trkpt>
      <trkpt lat="47.28508" lon="6.92076">
        <ele>779.2</ele>
        <time>2021-08-12T10:06:30Z</time>
      </trkpt>
      <trkpt lat="47.28514" lon="6.92086">
        <ele>779</ele>
        <time>2021-08-12T10:06:32Z</time>
      </trkpt>
      <trkpt lat="47.28517" lon="6.92093">
        <ele>778.7</ele>
        <time>2021-08-12T10:06:34Z</time>
      </trkpt>
      <trkpt lat="47.28521" lon="6.92099">
        <ele>778.4</ele>
        <time>2021-08-12T10:06:36Z</time>
      </trkpt>
      <trkpt lat="47.28524" lon="6.921">
        <ele>778.2</ele>
        <time>2021-08-12T10:06:38Z</time>
      </trkpt>
      <trkpt lat="47.28527" lon="6.92102">
        <ele>778.1</ele>
        <time>2021-08-12T10:06:39Z</time>
      </trkpt>
      <trkpt lat="47.2853" lon="6.92103">
        <ele>777.9</ele>
        <time>2021-08-12T10:06:40Z</time>
      </trkpt>
      <trkpt lat="47.28534" lon="6.92105">
        <ele>777.7</ele>
        <time>2021-08-12T10:06:42Z</time>
      </trkpt>
      <trkpt lat="47.28537" lon="6.92106">
        <ele>777.6</ele>
        <time>2021-08-12T10:06:44Z</time>
      </trkpt>
      <trkpt lat="47.2854" lon="6.92107">
        <ele>777.5</ele>
        <time>2021-08-12T10:06:46Z</time>
      </trkpt>
      <trkpt lat="47.28543" lon="6.92109">
        <ele>777.5</ele>
        <time>2021-08-12T10:07:33Z</time>
      </trkpt>
      <trkpt lat="47.28546" lon="6.9211">
        <ele>777.4</ele>
        <time>2021-08-12T10:07:34Z</time>
      </trkpt>
      <trkpt lat="47.2855" lon="6.92107">
        <ele>777.4</ele>
        <time>2021-08-12T10:07:35Z</time>
      </trkpt>
      <trkpt lat="47.28553" lon="6.92104">
        <ele>777.3</ele>
        <time>2021-08-12T10:07:36Z</time>
      </trkpt>
      <trkpt lat="47.28559" lon="6.92097">
        <ele>777.3</ele>
        <time>2021-08-12T10:07:38Z</time>
      </trkpt>
      <trkpt lat="47.28563" lon="6.92092">
        <ele>777.4</ele>
        <time>2021-08-12T10:07:39Z</time>
      </trkpt>
      <trkpt lat="47.28567" lon="6.92084">
        <ele>777.5</ele>
        <time>2021-08-12T10:07:41Z</time>
      </trkpt>
      <trkpt lat="47.28569" lon="6.92079">
        <ele>777.6</ele>
        <time>2021-08-12T10:07:42Z</time>
      </trkpt>
      <trkpt lat="47.28571" lon="6.92076">
        <ele>777.6</ele>
        <time>2021-08-12T10:07:43Z</time>
      </trkpt>
      <trkpt lat="47.28574" lon="6.92072">
        <ele>777.7</ele>
        <time>2021-08-12T10:07:45Z</time>
      </trkpt>
      <trkpt lat="47.28579" lon="6.92066">
        <ele>777.8</ele>
        <time>2021-08-12T10:07:47Z</time>
      </trkpt>
      <trkpt lat="47.28581" lon="6.92064">
        <ele>777.9</ele>
        <time>2021-08-12T10:07:48Z</time>
      </trkpt>
      <trkpt lat="47.28581" lon="6.92063">
        <ele>777.9</ele>
        <time>2021-08-12T10:07:50Z</time>
      </trkpt>
      <trkpt lat="47.28581" lon="6.92062">
        <ele>777.9</ele>
        <time>2021-08-12T10:07:52Z</time>
      </trkpt>
      <trkpt lat="47.28582" lon="6.92062">
        <ele>777.9</ele>
        <time>2021-08-12T10:07:53Z</time>
      </trkpt>
      <trkpt lat="47.28582" lon="6.92062">
        <ele>777.9</ele>
        <time>2021-08-12T10:07:54Z</time>
      </trkpt>
      <trkpt lat="47.28582" lon="6.92061">
        <ele>777.9</ele>
        <time>2021-08-12T10:07:55Z</time>
      </trkpt>
      <trkpt lat="47.28582" lon="6.92061">
        <ele>777.9</ele>
        <time>2021-08-12T10:07:57Z</time>
      </trkpt>
      <trkpt lat="47.28582" lon="6.92063">
        <ele>778</ele>
        <time>2021-08-12T10:07:59Z</time>
      </trkpt>
      <trkpt lat="47.28588" lon="6.92098">
        <ele>779.8</ele>
        <time>2021-08-12T10:08:08Z</time>
      </trkpt>
      <trkpt lat="47.28589" lon="6.92103">
        <ele>780</ele>
        <time>2021-08-12T10:08:09Z</time>
      </trkpt>
      <trkpt lat="47.28591" lon="6.92108">
        <ele>780.3</ele>
        <time>2021-08-12T10:08:10Z</time>
      </trkpt>
      <trkpt lat="47.28595" lon="6.92113">
        <ele>780.6</ele>
        <time>2021-08-12T10:08:12Z</time>
      </trkpt>
      <trkpt lat="47.28596" lon="6.92114">
        <ele>780.7</ele>
        <time>2021-08-12T10:08:13Z</time>
      </trkpt>
      <trkpt lat="47.28597" lon="6.92116">
        <ele>780.8</ele>
        <time>2021-08-12T10:08:14Z</time>
      </trkpt>
      <trkpt lat="47.28602" lon="6.92118">
        <ele>781.1</ele>
        <time>2021-08-12T10:08:16Z</time>
      </trkpt>
      <trkpt lat="47.28605" lon="6.92119">
        <ele>781.4</ele>
        <time>2021-08-12T10:08:17Z</time>
      </trkpt>
      <trkpt lat="47.28608" lon="6.92123">
        <ele>781.6</ele>
        <time>2021-08-12T10:08:19Z</time>
      </trkpt>
      <trkpt lat="47.28608" lon="6.92124">
        <ele>781.6</ele>
        <time>2021-08-12T10:08:20Z</time>
      </trkpt>
      <trkpt lat="47.28609" lon="6.92128">
        <ele>781.8</ele>
        <time>2021-08-12T10:08:21Z</time>
      </trkpt>
      <trkpt lat="47.28609" lon="6.92129">
        <ele>781.9</ele>
        <time>2021-08-12T10:08:22Z</time>
      </trkpt>
      <trkpt lat="47.2861" lon="6.92131">
        <ele>782</ele>
        <time>2021-08-12T10:08:23Z</time>
      </trkpt>
      <trkpt lat="47.28611" lon="6.92133">
        <ele>782.1</ele>
        <time>2021-08-12T10:08:24Z</time>
      </trkpt>
      <trkpt lat="47.28611" lon="6.92139">
        <ele>782.4</ele>
        <time>2021-08-12T10:08:26Z</time>
      </trkpt>
      <trkpt lat="47.28611" lon="6.92142">
        <ele>782.5</ele>
        <time>2021-08-12T10:08:27Z</time>
      </trkpt>
      <trkpt lat="47.2861" lon="6.92146">
        <ele>782.7</ele>
        <time>2021-08-12T10:08:29Z</time>
      </trkpt>
      <trkpt lat="47.28609" lon="6.92147">
        <ele>782.8</ele>
        <time>2021-08-12T10:08:30Z</time>
      </trkpt>
      <trkpt lat="47.28609" lon="6.92149">
        <ele>782.9</ele>
        <time>2021-08-12T10:08:31Z</time>
      </trkpt>
      <trkpt lat="47.28609" lon="6.92151">
        <ele>783</ele>
        <time>2021-08-12T10:08:32Z</time>
      </trkpt>
      <trkpt lat="47.2861" lon="6.92153">
        <ele>783.1</ele>
        <time>2021-08-12T10:08:34Z</time>
      </trkpt>
      <trkpt lat="47.28611" lon="6.92153">
        <ele>783.2</ele>
        <time>2021-08-12T10:08:35Z</time>
      </trkpt>
      <trkpt lat="47.28611" lon="6.92155">
        <ele>783.2</ele>
        <time>2021-08-12T10:08:36Z</time>
      </trkpt>
      <trkpt lat="47.28611" lon="6.92159">
        <ele>783.4</ele>
        <time>2021-08-12T10:08:37Z</time>
      </trkpt>
      <trkpt lat="47.28611" lon="6.9216">
        <ele>783.5</ele>
        <time>2021-08-12T10:08:38Z</time>
      </trkpt>
      <trkpt lat="47.28613" lon="6.92163">
        <ele>783.7</ele>
        <time>2021-08-12T10:08:40Z</time>
      </trkpt>
      <trkpt lat="47.28613" lon="6.92164">
        <ele>783.7</ele>
        <time>2021-08-12T10:08:41Z</time>
      </trkpt>
      <trkpt lat="47.28614" lon="6.92166">
        <ele>783.8</ele>
        <time>2021-08-12T10:08:42Z</time>
      </trkpt>
      <trkpt lat="47.28615" lon="6.92169">
        <ele>784</ele>
        <time>2021-08-12T10:08:44Z</time>
      </trkpt>
      <trkpt lat="47.28616" lon="6.92172">
        <ele>784.1</ele>
        <time>2021-08-12T10:08:45Z</time>
      </trkpt>
      <trkpt lat="47.28616" lon="6.92175">
        <ele>784.3</ele>
        <time>2021-08-12T10:08:47Z</time>
      </trkpt>
      <trkpt lat="47.28618" lon="6.92179">
        <ele>784.5</ele>
        <time>2021-08-12T10:08:48Z</time>
      </trkpt>
      <trkpt lat="47.28619" lon="6.9218">
        <ele>784.6</ele>
        <time>2021-08-12T10:08:49Z</time>
      </trkpt>
      <trkpt lat="47.28621" lon="6.92185">
        <ele>784.9</ele>
        <time>2021-08-12T10:08:51Z</time>
      </trkpt>
      <trkpt lat="47.28622" lon="6.92187">
        <ele>785</ele>
        <time>2021-08-12T10:08:52Z</time>
      </trkpt>
      <trkpt lat="47.28623" lon="6.92188">
        <ele>785</ele>
        <time>2021-08-12T10:08:54Z</time>
      </trkpt>
      <trkpt lat="47.28623" lon="6.92189">
        <ele>785.1</ele>
        <time>2021-08-12T10:08:55Z</time>
      </trkpt>
      <trkpt lat="47.28624" lon="6.9219">
        <ele>785.2</ele>
        <time>2021-08-12T10:08:56Z</time>
      </trkpt>
      <trkpt lat="47.28627" lon="6.92194">
        <ele>785.4</ele>
        <time>2021-08-12T10:08:58Z</time>
      </trkpt>
      <trkpt lat="47.28629" lon="6.92198">
        <ele>785.6</ele>
        <time>2021-08-12T10:09:00Z</time>
      </trkpt>
      <trkpt lat="47.28631" lon="6.92201">
        <ele>785.8</ele>
        <time>2021-08-12T10:09:02Z</time>
      </trkpt>
      <trkpt lat="47.28632" lon="6.92203">
        <ele>785.9</ele>
        <time>2021-08-12T10:09:03Z</time>
      </trkpt>
      <trkpt lat="47.28633" lon="6.92205">
        <ele>786</ele>
        <time>2021-08-12T10:09:04Z</time>
      </trkpt>
      <trkpt lat="47.28633" lon="6.92208">
        <ele>786.1</ele>
        <time>2021-08-12T10:09:05Z</time>
      </trkpt>
      <trkpt lat="47.28634" lon="6.92211">
        <ele>786.3</ele>
        <time>2021-08-12T10:09:07Z</time>
      </trkpt>
      <trkpt lat="47.28634" lon="6.92214">
        <ele>786.4</ele>
        <time>2021-08-12T10:09:08Z</time>
      </trkpt>
      <trkpt lat="47.28635" lon="6.92215">
        <ele>786.4</ele>
        <time>2021-08-12T10:09:09Z</time>
      </trkpt>
      <trkpt lat="47.28635" lon="6.92216">
        <ele>786.5</ele>
        <time>2021-08-12T10:09:10Z</time>
      </trkpt>
      <trkpt lat="47.28636" lon="6.92218">
        <ele>786.6</ele>
        <time>2021-08-12T10:09:11Z</time>
      </trkpt>
      <trkpt lat="47.28636" lon="6.92219">
        <ele>786.6</ele>
        <time>2021-08-12T10:09:12Z</time>
      </trkpt>
      <trkpt lat="47.28636" lon="6.92218">
        <ele>786.6</ele>
        <time>2021-08-12T10:09:14Z</time>
      </trkpt>
      <trkpt lat="47.28637" lon="6.92219">
        <ele>786.7</ele>
        <time>2021-08-12T10:09:15Z</time>
      </trkpt>
      <trkpt lat="47.28637" lon="6.9222">
        <ele>786.7</ele>
        <time>2021-08-12T10:09:16Z</time>
      </trkpt>
      <trkpt lat="47.28637" lon="6.9222">
        <ele>786.7</ele>
        <time>2021-08-12T10:09:17Z</time>
      </trkpt>
      <trkpt lat="47.28637" lon="6.92221">
        <ele>786.8</ele>
        <time>2021-08-12T10:09:18Z</time>
      </trkpt>
      <trkpt lat="47.28638" lon="6.92224">
        <ele>786.9</ele>
        <time>2021-08-12T10:09:19Z</time>
      </trkpt>
      <trkpt lat="47.2864" lon="6.92229">
        <ele>787.2</ele>
        <time>2021-08-12T10:09:21Z</time>
      </trkpt>
      <trkpt lat="47.28641" lon="6.92233">
        <ele>787.4</ele>
        <time>2021-08-12T10:09:27Z</time>
      </trkpt>
      <trkpt lat="47.28643" lon="6.92238">
        <ele>787.7</ele>
        <time>2021-08-12T10:09:28Z</time>
      </trkpt>
      <trkpt lat="47.28644" lon="6.92242">
        <ele>787.9</ele>
        <time>2021-08-12T10:09:29Z</time>
      </trkpt>
      <trkpt lat="47.28645" lon="6.92245">
        <ele>788.1</ele>
        <time>2021-08-12T10:09:30Z</time>
      </trkpt>
      <trkpt lat="47.28648" lon="6.92251">
        <ele>788.4</ele>
        <time>2021-08-12T10:09:32Z</time>
      </trkpt>
      <trkpt lat="47.2865" lon="6.92256">
        <ele>788.7</ele>
        <time>2021-08-12T10:09:33Z</time>
      </trkpt>
      <trkpt lat="47.28652" lon="6.9226">
        <ele>788.9</ele>
        <time>2021-08-12T10:09:35Z</time>
      </trkpt>
      <trkpt lat="47.28652" lon="6.92261">
        <ele>789</ele>
        <time>2021-08-12T10:09:36Z</time>
      </trkpt>
      <trkpt lat="47.28652" lon="6.92263">
        <ele>789.1</ele>
        <time>2021-08-12T10:09:38Z</time>
      </trkpt>
      <trkpt lat="47.28653" lon="6.92264">
        <ele>789.2</ele>
        <time>2021-08-12T10:09:39Z</time>
      </trkpt>
      <trkpt lat="47.28653" lon="6.92266">
        <ele>789.2</ele>
        <time>2021-08-12T10:09:40Z</time>
      </trkpt>
      <trkpt lat="47.28654" lon="6.92267">
        <ele>789.3</ele>
        <time>2021-08-12T10:09:41Z</time>
      </trkpt>
      <trkpt lat="47.28654" lon="6.92268">
        <ele>789.4</ele>
        <time>2021-08-12T10:09:42Z</time>
      </trkpt>
      <trkpt lat="47.28655" lon="6.9227">
        <ele>789.5</ele>
        <time>2021-08-12T10:09:43Z</time>
      </trkpt>
      <trkpt lat="47.28657" lon="6.92274">
        <ele>789.7</ele>
        <time>2021-08-12T10:09:45Z</time>
      </trkpt>
      <trkpt lat="47.28657" lon="6.92276">
        <ele>789.9</ele>
        <time>2021-08-12T10:09:46Z</time>
      </trkpt>
      <trkpt lat="47.28659" lon="6.92279">
        <ele>790.1</ele>
        <time>2021-08-12T10:09:48Z</time>
      </trkpt>
      <trkpt lat="47.2866" lon="6.9228">
        <ele>790.1</ele>
        <time>2021-08-12T10:09:49Z</time>
      </trkpt>
      <trkpt lat="47.2866" lon="6.9228">
        <ele>790.1</ele>
        <time>2021-08-12T10:09:50Z</time>
      </trkpt>
      <trkpt lat="47.2866" lon="6.92281">
        <ele>790.2</ele>
        <time>2021-08-12T10:09:52Z</time>
      </trkpt>
      <trkpt lat="47.28661" lon="6.92283">
        <ele>790.3</ele>
        <time>2021-08-12T10:09:53Z</time>
      </trkpt>
      <trkpt lat="47.28663" lon="6.92289">
        <ele>790.6</ele>
        <time>2021-08-12T10:09:55Z</time>
      </trkpt>
      <trkpt lat="47.28664" lon="6.92291">
        <ele>790.7</ele>
        <time>2021-08-12T10:09:56Z</time>
      </trkpt>
      <trkpt lat="47.28665" lon="6.92292">
        <ele>790.9</ele>
        <time>2021-08-12T10:09:57Z</time>
      </trkpt>
      <trkpt lat="47.28666" lon="6.92294">
        <ele>791</ele>
        <time>2021-08-12T10:09:58Z</time>
      </trkpt>
      <trkpt lat="47.28667" lon="6.92297">
        <ele>791.1</ele>
        <time>2021-08-12T10:10:00Z</time>
      </trkpt>
      <trkpt lat="47.28667" lon="6.92298">
        <ele>791.2</ele>
        <time>2021-08-12T10:10:01Z</time>
      </trkpt>
      <trkpt lat="47.28668" lon="6.92298">
        <ele>791.2</ele>
        <time>2021-08-12T10:10:03Z</time>
      </trkpt>
      <trkpt lat="47.28668" lon="6.92299">
        <ele>791.3</ele>
        <time>2021-08-12T10:10:04Z</time>
      </trkpt>
      <trkpt lat="47.28668" lon="6.923">
        <ele>791.3</ele>
        <time>2021-08-12T10:10:05Z</time>
      </trkpt>
      <trkpt lat="47.28669" lon="6.92301">
        <ele>791.4</ele>
        <time>2021-08-12T10:10:06Z</time>
      </trkpt>
      <trkpt lat="47.2867" lon="6.92303">
        <ele>791.6</ele>
        <time>2021-08-12T10:10:07Z</time>
      </trkpt>
      <trkpt lat="47.28671" lon="6.92304">
        <ele>791.6</ele>
        <time>2021-08-12T10:10:08Z</time>
      </trkpt>
      <trkpt lat="47.28671" lon="6.92305">
        <ele>791.7</ele>
        <time>2021-08-12T10:10:09Z</time>
      </trkpt>
      <trkpt lat="47.28674" lon="6.92313">
        <ele>792.1</ele>
        <time>2021-08-12T10:10:11Z</time>
      </trkpt>
      <trkpt lat="47.28676" lon="6.92318">
        <ele>792.5</ele>
        <time>2021-08-12T10:10:19Z</time>
      </trkpt>
      <trkpt lat="47.28678" lon="6.92324">
        <ele>792.8</ele>
        <time>2021-08-12T10:10:20Z</time>
      </trkpt>
      <trkpt lat="47.2868" lon="6.92329">
        <ele>793.1</ele>
        <time>2021-08-12T10:10:21Z</time>
      </trkpt>
      <trkpt lat="47.28682" lon="6.92334">
        <ele>793.3</ele>
        <time>2021-08-12T10:10:22Z</time>
      </trkpt>
      <trkpt lat="47.28682" lon="6.92336">
        <ele>793.4</ele>
        <time>2021-08-12T10:10:23Z</time>
      </trkpt>
      <trkpt lat="47.28684" lon="6.92339">
        <ele>793.7</ele>
        <time>2021-08-12T10:10:24Z</time>
      </trkpt>
      <trkpt lat="47.28685" lon="6.92341">
        <ele>793.7</ele>
        <time>2021-08-12T10:10:25Z</time>
      </trkpt>
      <trkpt lat="47.28686" lon="6.92344">
        <ele>793.9</ele>
        <time>2021-08-12T10:10:26Z</time>
      </trkpt>
      <trkpt lat="47.28686" lon="6.92345">
        <ele>794</ele>
        <time>2021-08-12T10:10:27Z</time>
      </trkpt>
      <trkpt lat="47.28688" lon="6.92348">
        <ele>794.2</ele>
        <time>2021-08-12T10:10:28Z</time>
      </trkpt>
      <trkpt lat="47.28689" lon="6.92349">
        <ele>794.3</ele>
        <time>2021-08-12T10:10:29Z</time>
      </trkpt>
      <trkpt lat="47.2869" lon="6.92353">
        <ele>794.5</ele>
        <time>2021-08-12T10:10:31Z</time>
      </trkpt>
      <trkpt lat="47.28691" lon="6.92354">
        <ele>794.6</ele>
        <time>2021-08-12T10:10:32Z</time>
      </trkpt>
      <trkpt lat="47.28692" lon="6.92358">
        <ele>794.8</ele>
        <time>2021-08-12T10:10:34Z</time>
      </trkpt>
      <trkpt lat="47.28693" lon="6.92359">
        <ele>794.9</ele>
        <time>2021-08-12T10:10:35Z</time>
      </trkpt>
      <trkpt lat="47.28694" lon="6.92361">
        <ele>795</ele>
        <time>2021-08-12T10:10:36Z</time>
      </trkpt>
      <trkpt lat="47.28696" lon="6.92364">
        <ele>795.3</ele>
        <time>2021-08-12T10:10:38Z</time>
      </trkpt>
      <trkpt lat="47.28697" lon="6.92367">
        <ele>795.4</ele>
        <time>2021-08-12T10:10:39Z</time>
      </trkpt>
      <trkpt lat="47.28698" lon="6.92368">
        <ele>795.5</ele>
        <time>2021-08-12T10:10:40Z</time>
      </trkpt>
      <trkpt lat="47.28698" lon="6.92369">
        <ele>795.6</ele>
        <time>2021-08-12T10:10:41Z</time>
      </trkpt>
      <trkpt lat="47.287" lon="6.92371">
        <ele>795.7</ele>
        <time>2021-08-12T10:10:42Z</time>
      </trkpt>
      <trkpt lat="47.28701" lon="6.92372">
        <ele>795.9</ele>
        <time>2021-08-12T10:10:43Z</time>
      </trkpt>
      <trkpt lat="47.28703" lon="6.92373">
        <ele>796</ele>
        <time>2021-08-12T10:10:44Z</time>
      </trkpt>
      <trkpt lat="47.28705" lon="6.92376">
        <ele>796.3</ele>
        <time>2021-08-12T10:10:46Z</time>
      </trkpt>
      <trkpt lat="47.28707" lon="6.92376">
        <ele>796.4</ele>
        <time>2021-08-12T10:10:47Z</time>
      </trkpt>
      <trkpt lat="47.28707" lon="6.92376">
        <ele>796.4</ele>
        <time>2021-08-12T10:10:48Z</time>
      </trkpt>
      <trkpt lat="47.28707" lon="6.92376">
        <ele>796.4</ele>
        <time>2021-08-12T10:10:49Z</time>
      </trkpt>
      <trkpt lat="47.28707" lon="6.92377">
        <ele>796.5</ele>
        <time>2021-08-12T10:10:50Z</time>
      </trkpt>
      <trkpt lat="47.28709" lon="6.92379">
        <ele>796.6</ele>
        <time>2021-08-12T10:10:52Z</time>
      </trkpt>
      <trkpt lat="47.2871" lon="6.92382">
        <ele>796.9</ele>
        <time>2021-08-12T10:10:53Z</time>
      </trkpt>
      <trkpt lat="47.28711" lon="6.92383">
        <ele>797</ele>
        <time>2021-08-12T10:10:54Z</time>
      </trkpt>
      <trkpt lat="47.28713" lon="6.92386">
        <ele>797.2</ele>
        <time>2021-08-12T10:10:55Z</time>
      </trkpt>
      <trkpt lat="47.28714" lon="6.92387">
        <ele>797.3</ele>
        <time>2021-08-12T10:10:56Z</time>
      </trkpt>
      <trkpt lat="47.28715" lon="6.9239">
        <ele>797.5</ele>
        <time>2021-08-12T10:10:57Z</time>
      </trkpt>
      <trkpt lat="47.28717" lon="6.92393">
        <ele>797.8</ele>
        <time>2021-08-12T10:10:59Z</time>
      </trkpt>
      <trkpt lat="47.2872" lon="6.92396">
        <ele>798</ele>
        <time>2021-08-12T10:11:00Z</time>
      </trkpt>
      <trkpt lat="47.2872" lon="6.92397">
        <ele>798.1</ele>
        <time>2021-08-12T10:11:01Z</time>
      </trkpt>
      <trkpt lat="47.28723" lon="6.924">
        <ele>798.3</ele>
        <time>2021-08-12T10:11:03Z</time>
      </trkpt>
      <trkpt lat="47.28724" lon="6.92402">
        <ele>798.5</ele>
        <time>2021-08-12T10:11:05Z</time>
      </trkpt>
      <trkpt lat="47.28725" lon="6.92406">
        <ele>798.7</ele>
        <time>2021-08-12T10:11:07Z</time>
      </trkpt>
      <trkpt lat="47.28726" lon="6.92408">
        <ele>798.9</ele>
        <time>2021-08-12T10:11:08Z</time>
      </trkpt>
      <trkpt lat="47.28729" lon="6.9241">
        <ele>799.1</ele>
        <time>2021-08-12T10:11:10Z</time>
      </trkpt>
      <trkpt lat="47.28728" lon="6.92411">
        <ele>799.1</ele>
        <time>2021-08-12T10:11:12Z</time>
      </trkpt>
      <trkpt lat="47.28728" lon="6.92412">
        <ele>799.2</ele>
        <time>2021-08-12T10:11:13Z</time>
      </trkpt>
      <trkpt lat="47.28729" lon="6.92413">
        <ele>799.3</ele>
        <time>2021-08-12T10:11:14Z</time>
      </trkpt>
      <trkpt lat="47.28729" lon="6.92414">
        <ele>799.3</ele>
        <time>2021-08-12T10:11:16Z</time>
      </trkpt>
      <trkpt lat="47.28729" lon="6.92415">
        <ele>799.4</ele>
        <time>2021-08-12T10:11:17Z</time>
      </trkpt>
      <trkpt lat="47.2873" lon="6.92416">
        <ele>799.4</ele>
        <time>2021-08-12T10:11:18Z</time>
      </trkpt>
      <trkpt lat="47.2873" lon="6.92417">
        <ele>799.5</ele>
        <time>2021-08-12T10:11:19Z</time>
      </trkpt>
      <trkpt lat="47.28731" lon="6.92418">
        <ele>799.6</ele>
        <time>2021-08-12T10:11:20Z</time>
      </trkpt>
      <trkpt lat="47.28738" lon="6.92431">
        <ele>800.5</ele>
        <time>2021-08-12T10:11:28Z</time>
      </trkpt>
      <trkpt lat="47.28743" lon="6.92439">
        <ele>801</ele>
        <time>2021-08-12T10:11:30Z</time>
      </trkpt>
      <trkpt lat="47.28744" lon="6.9244">
        <ele>801.1</ele>
        <time>2021-08-12T10:11:31Z</time>
      </trkpt>
      <trkpt lat="47.28744" lon="6.9244">
        <ele>801.1</ele>
        <time>2021-08-12T10:11:33Z</time>
      </trkpt>
      <trkpt lat="47.28744" lon="6.9244">
        <ele>801.2</ele>
        <time>2021-08-12T10:11:34Z</time>
      </trkpt>
      <trkpt lat="47.28745" lon="6.9244">
        <ele>801.2</ele>
        <time>2021-08-12T10:11:35Z</time>
      </trkpt>
      <trkpt lat="47.28746" lon="6.92441">
        <ele>801.3</ele>
        <time>2021-08-12T10:11:36Z</time>
      </trkpt>
      <trkpt lat="47.28746" lon="6.92442">
        <ele>801.4</ele>
        <time>2021-08-12T10:11:37Z</time>
      </trkpt>
      <trkpt lat="47.28747" lon="6.92443">
        <ele>801.4</ele>
        <time>2021-08-12T10:11:38Z</time>
      </trkpt>
      <trkpt lat="47.28748" lon="6.92444">
        <ele>801.5</ele>
        <time>2021-08-12T10:11:39Z</time>
      </trkpt>
      <trkpt lat="47.2875" lon="6.92445">
        <ele>801.6</ele>
        <time>2021-08-12T10:11:40Z</time>
      </trkpt>
      <trkpt lat="47.28758" lon="6.92457">
        <ele>802.5</ele>
        <time>2021-08-12T10:11:48Z</time>
      </trkpt>
      <trkpt lat="47.2876" lon="6.9246">
        <ele>802.8</ele>
        <time>2021-08-12T10:11:49Z</time>
      </trkpt>
      <trkpt lat="47.28765" lon="6.92464">
        <ele>803.2</ele>
        <time>2021-08-12T10:11:51Z</time>
      </trkpt>
      <trkpt lat="47.28768" lon="6.92467">
        <ele>803.5</ele>
        <time>2021-08-12T10:11:52Z</time>
      </trkpt>
      <trkpt lat="47.28768" lon="6.92467">
        <ele>803.6</ele>
        <time>2021-08-12T10:11:53Z</time>
      </trkpt>
      <trkpt lat="47.28771" lon="6.9247">
        <ele>803.8</ele>
        <time>2021-08-12T10:11:55Z</time>
      </trkpt>
      <trkpt lat="47.28772" lon="6.92471">
        <ele>803.9</ele>
        <time>2021-08-12T10:11:56Z</time>
      </trkpt>
      <trkpt lat="47.28774" lon="6.92471">
        <ele>804</ele>
        <time>2021-08-12T10:11:57Z</time>
      </trkpt>
      <trkpt lat="47.28776" lon="6.92472">
        <ele>804.2</ele>
        <time>2021-08-12T10:11:58Z</time>
      </trkpt>
      <trkpt lat="47.28777" lon="6.92473">
        <ele>804.3</ele>
        <time>2021-08-12T10:11:59Z</time>
      </trkpt>
      <trkpt lat="47.28778" lon="6.92475">
        <ele>804.4</ele>
        <time>2021-08-12T10:12:00Z</time>
      </trkpt>
      <trkpt lat="47.28779" lon="6.92478">
        <ele>804.6</ele>
        <time>2021-08-12T10:12:02Z</time>
      </trkpt>
      <trkpt lat="47.2878" lon="6.92479">
        <ele>804.7</ele>
        <time>2021-08-12T10:12:03Z</time>
      </trkpt>
      <trkpt lat="47.28784" lon="6.9248">
        <ele>804.9</ele>
        <time>2021-08-12T10:12:05Z</time>
      </trkpt>
      <trkpt lat="47.28785" lon="6.92479">
        <ele>805.1</ele>
        <time>2021-08-12T10:12:07Z</time>
      </trkpt>
      <trkpt lat="47.28786" lon="6.9248">
        <ele>805.2</ele>
        <time>2021-08-12T10:12:08Z</time>
      </trkpt>
      <trkpt lat="47.2879" lon="6.92483">
        <ele>805.5</ele>
        <time>2021-08-12T10:12:10Z</time>
      </trkpt>
      <trkpt lat="47.28791" lon="6.92484">
        <ele>805.6</ele>
        <time>2021-08-12T10:12:11Z</time>
      </trkpt>
      <trkpt lat="47.28792" lon="6.92485">
        <ele>805.7</ele>
        <time>2021-08-12T10:12:12Z</time>
      </trkpt>
      <trkpt lat="47.28794" lon="6.92486">
        <ele>805.8</ele>
        <time>2021-08-12T10:12:13Z</time>
      </trkpt>
      <trkpt lat="47.28797" lon="6.92489">
        <ele>806.1</ele>
        <time>2021-08-12T10:12:15Z</time>
      </trkpt>
      <trkpt lat="47.28798" lon="6.9249">
        <ele>806.2</ele>
        <time>2021-08-12T10:12:16Z</time>
      </trkpt>
      <trkpt lat="47.28799" lon="6.92491">
        <ele>806.3</ele>
        <time>2021-08-12T10:12:17Z</time>
      </trkpt>
      <trkpt lat="47.288" lon="6.92492">
        <ele>806.4</ele>
        <time>2021-08-12T10:12:18Z</time>
      </trkpt>
      <trkpt lat="47.28803" lon="6.92495">
        <ele>806.6</ele>
        <time>2021-08-12T10:12:20Z</time>
      </trkpt>
      <trkpt lat="47.28806" lon="6.92499">
        <ele>806.9</ele>
        <time>2021-08-12T10:12:22Z</time>
      </trkpt>
      <trkpt lat="47.28809" lon="6.925">
        <ele>807.1</ele>
        <time>2021-08-12T10:12:23Z</time>
      </trkpt>
      <trkpt lat="47.28809" lon="6.925">
        <ele>807.2</ele>
        <time>2021-08-12T10:12:24Z</time>
      </trkpt>
      <trkpt lat="47.28811" lon="6.92502">
        <ele>807.3</ele>
        <time>2021-08-12T10:12:25Z</time>
      </trkpt>
      <trkpt lat="47.28811" lon="6.92502">
        <ele>807.4</ele>
        <time>2021-08-12T10:12:27Z</time>
      </trkpt>
      <trkpt lat="47.28812" lon="6.92503">
        <ele>807.4</ele>
        <time>2021-08-12T10:12:28Z</time>
      </trkpt>
      <trkpt lat="47.28812" lon="6.92504">
        <ele>807.5</ele>
        <time>2021-08-12T10:12:29Z</time>
      </trkpt>
      <trkpt lat="47.28813" lon="6.92506">
        <ele>807.6</ele>
        <time>2021-08-12T10:12:30Z</time>
      </trkpt>
      <trkpt lat="47.28814" lon="6.92508">
        <ele>807.7</ele>
        <time>2021-08-12T10:12:32Z</time>
      </trkpt>
      <trkpt lat="47.28816" lon="6.9251">
        <ele>807.9</ele>
        <time>2021-08-12T10:12:33Z</time>
      </trkpt>
      <trkpt lat="47.28816" lon="6.92512">
        <ele>808</ele>
        <time>2021-08-12T10:12:34Z</time>
      </trkpt>
      <trkpt lat="47.28818" lon="6.92515">
        <ele>808.2</ele>
        <time>2021-08-12T10:12:36Z</time>
      </trkpt>
      <trkpt lat="47.2882" lon="6.92516">
        <ele>808.3</ele>
        <time>2021-08-12T10:12:37Z</time>
      </trkpt>
      <trkpt lat="47.28821" lon="6.92517">
        <ele>808.4</ele>
        <time>2021-08-12T10:12:38Z</time>
      </trkpt>
      <trkpt lat="47.28823" lon="6.92518">
        <ele>808.6</ele>
        <time>2021-08-12T10:12:39Z</time>
      </trkpt>
      <trkpt lat="47.28824" lon="6.92519">
        <ele>808.7</ele>
        <time>2021-08-12T10:12:40Z</time>
      </trkpt>
      <trkpt lat="47.28825" lon="6.92521">
        <ele>808.8</ele>
        <time>2021-08-12T10:12:41Z</time>
      </trkpt>
      <trkpt lat="47.28827" lon="6.92525">
        <ele>809.1</ele>
        <time>2021-08-12T10:12:43Z</time>
      </trkpt>
      <trkpt lat="47.28828" lon="6.92528">
        <ele>809.3</ele>
        <time>2021-08-12T10:12:44Z</time>
      </trkpt>
      <trkpt lat="47.28829" lon="6.92529">
        <ele>809.4</ele>
        <time>2021-08-12T10:12:45Z</time>
      </trkpt>
      <trkpt lat="47.2883" lon="6.92532">
        <ele>809.5</ele>
        <time>2021-08-12T10:12:46Z</time>
      </trkpt>
      <trkpt lat="47.28833" lon="6.92535">
        <ele>809.8</ele>
        <time>2021-08-12T10:12:48Z</time>
      </trkpt>
      <trkpt lat="47.28834" lon="6.92536">
        <ele>809.9</ele>
        <time>2021-08-12T10:12:49Z</time>
      </trkpt>
      <trkpt lat="47.28837" lon="6.92539">
        <ele>810.2</ele>
        <time>2021-08-12T10:12:51Z</time>
      </trkpt>
      <trkpt lat="47.28838" lon="6.92541">
        <ele>810.3</ele>
        <time>2021-08-12T10:12:52Z</time>
      </trkpt>
      <trkpt lat="47.28839" lon="6.92543">
        <ele>810.4</ele>
        <time>2021-08-12T10:12:53Z</time>
      </trkpt>
      <trkpt lat="47.28839" lon="6.92544">
        <ele>810.5</ele>
        <time>2021-08-12T10:12:54Z</time>
      </trkpt>
      <trkpt lat="47.28841" lon="6.92548">
        <ele>810.7</ele>
        <time>2021-08-12T10:12:56Z</time>
      </trkpt>
      <trkpt lat="47.28841" lon="6.92549">
        <ele>810.8</ele>
        <time>2021-08-12T10:12:57Z</time>
      </trkpt>
      <trkpt lat="47.28842" lon="6.92551">
        <ele>810.8</ele>
        <time>2021-08-12T10:12:58Z</time>
      </trkpt>
      <trkpt lat="47.28842" lon="6.92551">
        <ele>810.9</ele>
        <time>2021-08-12T10:13:00Z</time>
      </trkpt>
      <trkpt lat="47.28842" lon="6.92552">
        <ele>810.9</ele>
        <time>2021-08-12T10:13:01Z</time>
      </trkpt>
      <trkpt lat="47.28842" lon="6.92552">
        <ele>810.9</ele>
        <time>2021-08-12T10:13:03Z</time>
      </trkpt>
      <trkpt lat="47.28843" lon="6.92553">
        <ele>811</ele>
        <time>2021-08-12T10:13:04Z</time>
      </trkpt>
      <trkpt lat="47.28843" lon="6.92553">
        <ele>811</ele>
        <time>2021-08-12T10:13:05Z</time>
      </trkpt>
      <trkpt lat="47.28846" lon="6.92559">
        <ele>811.4</ele>
        <time>2021-08-12T10:13:06Z</time>
      </trkpt>
      <trkpt lat="47.28849" lon="6.92563">
        <ele>811.7</ele>
        <time>2021-08-12T10:13:07Z</time>
      </trkpt>
      <trkpt lat="47.28852" lon="6.92568">
        <ele>812</ele>
        <time>2021-08-12T10:13:20Z</time>
      </trkpt>
      <trkpt lat="47.28855" lon="6.92573">
        <ele>812.3</ele>
        <time>2021-08-12T10:13:21Z</time>
      </trkpt>
      <trkpt lat="47.28858" lon="6.92578">
        <ele>812.6</ele>
        <time>2021-08-12T10:13:22Z</time>
      </trkpt>
      <trkpt lat="47.28859" lon="6.92582">
        <ele>812.9</ele>
        <time>2021-08-12T10:13:23Z</time>
      </trkpt>
      <trkpt lat="47.28859" lon="6.92585">
        <ele>813</ele>
        <time>2021-08-12T10:13:24Z</time>
      </trkpt>
      <trkpt lat="47.28861" lon="6.92588">
        <ele>813.2</ele>
        <time>2021-08-12T10:13:25Z</time>
      </trkpt>
      <trkpt lat="47.28862" lon="6.9259">
        <ele>813.3</ele>
        <time>2021-08-12T10:13:27Z</time>
      </trkpt>
      <trkpt lat="47.28863" lon="6.92591">
        <ele>813.5</ele>
        <time>2021-08-12T10:13:28Z</time>
      </trkpt>
      <trkpt lat="47.28865" lon="6.92592">
        <ele>813.6</ele>
        <time>2021-08-12T10:13:29Z</time>
      </trkpt>
      <trkpt lat="47.28866" lon="6.92594">
        <ele>813.8</ele>
        <time>2021-08-12T10:13:31Z</time>
      </trkpt>
      <trkpt lat="47.28868" lon="6.92596">
        <ele>814</ele>
        <time>2021-08-12T10:13:32Z</time>
      </trkpt>
      <trkpt lat="47.28869" lon="6.92597">
        <ele>814.1</ele>
        <time>2021-08-12T10:13:33Z</time>
      </trkpt>
      <trkpt lat="47.28871" lon="6.92598">
        <ele>814.2</ele>
        <time>2021-08-12T10:13:34Z</time>
      </trkpt>
      <trkpt lat="47.28873" lon="6.92599">
        <ele>814.4</ele>
        <time>2021-08-12T10:13:35Z</time>
      </trkpt>
      <trkpt lat="47.28874" lon="6.926">
        <ele>814.5</ele>
        <time>2021-08-12T10:13:37Z</time>
      </trkpt>
      <trkpt lat="47.28878" lon="6.92602">
        <ele>814.8</ele>
        <time>2021-08-12T10:13:39Z</time>
      </trkpt>
      <trkpt lat="47.28881" lon="6.92605">
        <ele>815.1</ele>
        <time>2021-08-12T10:13:41Z</time>
      </trkpt>
      <trkpt lat="47.28883" lon="6.92606">
        <ele>815.2</ele>
        <time>2021-08-12T10:13:42Z</time>
      </trkpt>
      <trkpt lat="47.28884" lon="6.92607">
        <ele>815.3</ele>
        <time>2021-08-12T10:13:43Z</time>
      </trkpt>
      <trkpt lat="47.28885" lon="6.92609">
        <ele>815.4</ele>
        <time>2021-08-12T10:13:44Z</time>
      </trkpt>
      <trkpt lat="47.28886" lon="6.92611">
        <ele>815.6</ele>
        <time>2021-08-12T10:13:45Z</time>
      </trkpt>
      <trkpt lat="47.28887" lon="6.92613">
        <ele>815.7</ele>
        <time>2021-08-12T10:13:46Z</time>
      </trkpt>
      <trkpt lat="47.28888" lon="6.92616">
        <ele>815.9</ele>
        <time>2021-08-12T10:13:48Z</time>
      </trkpt>
      <trkpt lat="47.28891" lon="6.92619">
        <ele>816.1</ele>
        <time>2021-08-12T10:13:50Z</time>
      </trkpt>
      <trkpt lat="47.28892" lon="6.92619">
        <ele>816.2</ele>
        <time>2021-08-12T10:13:51Z</time>
      </trkpt>
      <trkpt lat="47.28894" lon="6.9262">
        <ele>816.3</ele>
        <time>2021-08-12T10:13:53Z</time>
      </trkpt>
      <trkpt lat="47.28897" lon="6.92623">
        <ele>816.6</ele>
        <time>2021-08-12T10:13:55Z</time>
      </trkpt>
      <trkpt lat="47.28899" lon="6.92625">
        <ele>816.8</ele>
        <time>2021-08-12T10:13:57Z</time>
      </trkpt>
      <trkpt lat="47.28899" lon="6.92628">
        <ele>816.8</ele>
        <time>2021-08-12T10:13:58Z</time>
      </trkpt>
      <trkpt lat="47.28899" lon="6.92631">
        <ele>817</ele>
        <time>2021-08-12T10:14:00Z</time>
      </trkpt>
      <trkpt lat="47.289" lon="6.92636">
        <ele>817.3</ele>
        <time>2021-08-12T10:14:02Z</time>
      </trkpt>
      <trkpt lat="47.28901" lon="6.92637">
        <ele>817.4</ele>
        <time>2021-08-12T10:14:03Z</time>
      </trkpt>
      <trkpt lat="47.28901" lon="6.92638">
        <ele>817.5</ele>
        <time>2021-08-12T10:14:04Z</time>
      </trkpt>
      <trkpt lat="47.28903" lon="6.92639">
        <ele>817.6</ele>
        <time>2021-08-12T10:14:05Z</time>
      </trkpt>
      <trkpt lat="47.28904" lon="6.9264">
        <ele>817.7</ele>
        <time>2021-08-12T10:14:07Z</time>
      </trkpt>
      <trkpt lat="47.28906" lon="6.92641">
        <ele>817.9</ele>
        <time>2021-08-12T10:14:08Z</time>
      </trkpt>
      <trkpt lat="47.28907" lon="6.92642">
        <ele>818</ele>
        <time>2021-08-12T10:14:09Z</time>
      </trkpt>
      <trkpt lat="47.28908" lon="6.92642">
        <ele>818.1</ele>
        <time>2021-08-12T10:14:11Z</time>
      </trkpt>
      <trkpt lat="47.28909" lon="6.92643">
        <ele>818.1</ele>
        <time>2021-08-12T10:14:12Z</time>
      </trkpt>
      <trkpt lat="47.2891" lon="6.92644">
        <ele>818.2</ele>
        <time>2021-08-12T10:14:13Z</time>
      </trkpt>
      <trkpt lat="47.28911" lon="6.92644">
        <ele>818.3</ele>
        <time>2021-08-12T10:14:14Z</time>
      </trkpt>
      <trkpt lat="47.28914" lon="6.92647">
        <ele>818.6</ele>
        <time>2021-08-12T10:14:16Z</time>
      </trkpt>
      <trkpt lat="47.28916" lon="6.92647">
        <ele>818.7</ele>
        <time>2021-08-12T10:14:17Z</time>
      </trkpt>
      <trkpt lat="47.28918" lon="6.9265">
        <ele>818.9</ele>
        <time>2021-08-12T10:14:19Z</time>
      </trkpt>
      <trkpt lat="47.28919" lon="6.92651">
        <ele>819</ele>
        <time>2021-08-12T10:14:20Z</time>
      </trkpt>
      <trkpt lat="47.28919" lon="6.92652">
        <ele>819</ele>
        <time>2021-08-12T10:14:22Z</time>
      </trkpt>
      <trkpt lat="47.28921" lon="6.92655">
        <ele>819.2</ele>
        <time>2021-08-12T10:14:24Z</time>
      </trkpt>
      <trkpt lat="47.28922" lon="6.92656">
        <ele>819.3</ele>
        <time>2021-08-12T10:14:25Z</time>
      </trkpt>
      <trkpt lat="47.28924" lon="6.92661">
        <ele>819.5</ele>
        <time>2021-08-12T10:14:27Z</time>
      </trkpt>
      <trkpt lat="47.28927" lon="6.92664">
        <ele>819.7</ele>
        <time>2021-08-12T10:14:28Z</time>
      </trkpt>
      <trkpt lat="47.28927" lon="6.92665">
        <ele>819.8</ele>
        <time>2021-08-12T10:14:29Z</time>
      </trkpt>
      <trkpt lat="47.28928" lon="6.92666">
        <ele>819.9</ele>
        <time>2021-08-12T10:14:30Z</time>
      </trkpt>
      <trkpt lat="47.28929" lon="6.92668">
        <ele>820</ele>
        <time>2021-08-12T10:14:31Z</time>
      </trkpt>
      <trkpt lat="47.28931" lon="6.92671">
        <ele>820.1</ele>
        <time>2021-08-12T10:14:33Z</time>
      </trkpt>
      <trkpt lat="47.28933" lon="6.92674">
        <ele>820.3</ele>
        <time>2021-08-12T10:14:35Z</time>
      </trkpt>
      <trkpt lat="47.28934" lon="6.92678">
        <ele>820.5</ele>
        <time>2021-08-12T10:14:37Z</time>
      </trkpt>
      <trkpt lat="47.28934" lon="6.92679">
        <ele>820.5</ele>
        <time>2021-08-12T10:14:38Z</time>
      </trkpt>
      <trkpt lat="47.28934" lon="6.9268">
        <ele>820.6</ele>
        <time>2021-08-12T10:14:39Z</time>
      </trkpt>
      <trkpt lat="47.28935" lon="6.92682">
        <ele>820.7</ele>
        <time>2021-08-12T10:14:40Z</time>
      </trkpt>
      <trkpt lat="47.28936" lon="6.92684">
        <ele>820.8</ele>
        <time>2021-08-12T10:14:42Z</time>
      </trkpt>
      <trkpt lat="47.28937" lon="6.92685">
        <ele>820.8</ele>
        <time>2021-08-12T10:14:43Z</time>
      </trkpt>
      <trkpt lat="47.28939" lon="6.92688">
        <ele>821</ele>
        <time>2021-08-12T10:14:45Z</time>
      </trkpt>
      <trkpt lat="47.2894" lon="6.92688">
        <ele>821.1</ele>
        <time>2021-08-12T10:14:46Z</time>
      </trkpt>
      <trkpt lat="47.28942" lon="6.92688">
        <ele>821.2</ele>
        <time>2021-08-12T10:14:47Z</time>
      </trkpt>
      <trkpt lat="47.28944" lon="6.92688">
        <ele>821.3</ele>
        <time>2021-08-12T10:14:48Z</time>
      </trkpt>
      <trkpt lat="47.28946" lon="6.92689">
        <ele>821.5</ele>
        <time>2021-08-12T10:14:50Z</time>
      </trkpt>
      <trkpt lat="47.28947" lon="6.9269">
        <ele>821.5</ele>
        <time>2021-08-12T10:14:51Z</time>
      </trkpt>
      <trkpt lat="47.28948" lon="6.92695">
        <ele>821.7</ele>
        <time>2021-08-12T10:14:53Z</time>
      </trkpt>
      <trkpt lat="47.28949" lon="6.92698">
        <ele>821.9</ele>
        <time>2021-08-12T10:14:55Z</time>
      </trkpt>
      <trkpt lat="47.28951" lon="6.92701">
        <ele>822.1</ele>
        <time>2021-08-12T10:14:56Z</time>
      </trkpt>
      <trkpt lat="47.28953" lon="6.92702">
        <ele>822.3</ele>
        <time>2021-08-12T10:14:58Z</time>
      </trkpt>
      <trkpt lat="47.28953" lon="6.92702">
        <ele>822.3</ele>
        <time>2021-08-12T10:14:59Z</time>
      </trkpt>
      <trkpt lat="47.28954" lon="6.92704">
        <ele>822.4</ele>
        <time>2021-08-12T10:15:00Z</time>
      </trkpt>
      <trkpt lat="47.28956" lon="6.92708">
        <ele>822.6</ele>
        <time>2021-08-12T10:15:02Z</time>
      </trkpt>
      <trkpt lat="47.28958" lon="6.92711">
        <ele>822.9</ele>
        <time>2021-08-12T10:15:04Z</time>
      </trkpt>
      <trkpt lat="47.2896" lon="6.92714">
        <ele>823.1</ele>
        <time>2021-08-12T10:15:05Z</time>
      </trkpt>
      <trkpt lat="47.28961" lon="6.92715">
        <ele>823.3</ele>
        <time>2021-08-12T10:15:06Z</time>
      </trkpt>
      <trkpt lat="47.28962" lon="6.92717">
        <ele>823.4</ele>
        <time>2021-08-12T10:15:07Z</time>
      </trkpt>
      <trkpt lat="47.28964" lon="6.9272">
        <ele>823.6</ele>
        <time>2021-08-12T10:15:09Z</time>
      </trkpt>
      <trkpt lat="47.28966" lon="6.92725">
        <ele>823.9</ele>
        <time>2021-08-12T10:15:11Z</time>
      </trkpt>
      <trkpt lat="47.28967" lon="6.92726">
        <ele>824</ele>
        <time>2021-08-12T10:15:12Z</time>
      </trkpt>
      <trkpt lat="47.28968" lon="6.92728">
        <ele>824.1</ele>
        <time>2021-08-12T10:15:13Z</time>
      </trkpt>
      <trkpt lat="47.2897" lon="6.92731">
        <ele>824.4</ele>
        <time>2021-08-12T10:15:15Z</time>
      </trkpt>
      <trkpt lat="47.28971" lon="6.92733">
        <ele>824.5</ele>
        <time>2021-08-12T10:15:17Z</time>
      </trkpt>
      <trkpt lat="47.28971" lon="6.92735">
        <ele>824.6</ele>
        <time>2021-08-12T10:15:19Z</time>
      </trkpt>
      <trkpt lat="47.28972" lon="6.92737">
        <ele>824.7</ele>
        <time>2021-08-12T10:15:20Z</time>
      </trkpt>
      <trkpt lat="47.28972" lon="6.92738">
        <ele>824.8</ele>
        <time>2021-08-12T10:15:21Z</time>
      </trkpt>
      <trkpt lat="47.28971" lon="6.92739">
        <ele>824.9</ele>
        <time>2021-08-12T10:15:22Z</time>
      </trkpt>
      <trkpt lat="47.2897" lon="6.9274">
        <ele>824.9</ele>
        <time>2021-08-12T10:15:23Z</time>
      </trkpt>
      <trkpt lat="47.28973" lon="6.92746">
        <ele>825.3</ele>
        <time>2021-08-12T10:15:25Z</time>
      </trkpt>
      <trkpt lat="47.28974" lon="6.92748">
        <ele>825.5</ele>
        <time>2021-08-12T10:15:27Z</time>
      </trkpt>
      <trkpt lat="47.28976" lon="6.92751">
        <ele>825.6</ele>
        <time>2021-08-12T10:15:28Z</time>
      </trkpt>
      <trkpt lat="47.28977" lon="6.92753">
        <ele>825.8</ele>
        <time>2021-08-12T10:15:29Z</time>
      </trkpt>
      <trkpt lat="47.28979" lon="6.92755">
        <ele>825.9</ele>
        <time>2021-08-12T10:15:31Z</time>
      </trkpt>
      <trkpt lat="47.28982" lon="6.92759">
        <ele>826.2</ele>
        <time>2021-08-12T10:15:33Z</time>
      </trkpt>
      <trkpt lat="47.28983" lon="6.9276">
        <ele>826.3</ele>
        <time>2021-08-12T10:15:34Z</time>
      </trkpt>
      <trkpt lat="47.28985" lon="6.92764">
        <ele>826.5</ele>
        <time>2021-08-12T10:15:36Z</time>
      </trkpt>
      <trkpt lat="47.28986" lon="6.92766">
        <ele>826.6</ele>
        <time>2021-08-12T10:15:37Z</time>
      </trkpt>
      <trkpt lat="47.28987" lon="6.92767">
        <ele>826.7</ele>
        <time>2021-08-12T10:15:38Z</time>
      </trkpt>
      <trkpt lat="47.28987" lon="6.92769">
        <ele>826.8</ele>
        <time>2021-08-12T10:15:39Z</time>
      </trkpt>
      <trkpt lat="47.28988" lon="6.92769">
        <ele>826.9</ele>
        <time>2021-08-12T10:15:40Z</time>
      </trkpt>
      <trkpt lat="47.28988" lon="6.92769">
        <ele>827</ele>
        <time>2021-08-12T10:15:41Z</time>
      </trkpt>
      <trkpt lat="47.28989" lon="6.92769">
        <ele>827.1</ele>
        <time>2021-08-12T10:15:42Z</time>
      </trkpt>
      <trkpt lat="47.28991" lon="6.9277">
        <ele>827.2</ele>
        <time>2021-08-12T10:15:44Z</time>
      </trkpt>
      <trkpt lat="47.28992" lon="6.92771">
        <ele>827.3</ele>
        <time>2021-08-12T10:15:45Z</time>
      </trkpt>
      <trkpt lat="47.28993" lon="6.92772">
        <ele>827.4</ele>
        <time>2021-08-12T10:15:47Z</time>
      </trkpt>
      <trkpt lat="47.28994" lon="6.92773">
        <ele>827.4</ele>
        <time>2021-08-12T10:15:49Z</time>
      </trkpt>
      <trkpt lat="47.28995" lon="6.92775">
        <ele>827.5</ele>
        <time>2021-08-12T10:15:50Z</time>
      </trkpt>
      <trkpt lat="47.28995" lon="6.92776">
        <ele>827.6</ele>
        <time>2021-08-12T10:15:51Z</time>
      </trkpt>
      <trkpt lat="47.28997" lon="6.9278">
        <ele>827.8</ele>
        <time>2021-08-12T10:15:52Z</time>
      </trkpt>
      <trkpt lat="47.28998" lon="6.92781">
        <ele>828</ele>
        <time>2021-08-12T10:15:53Z</time>
      </trkpt>
      <trkpt lat="47.29001" lon="6.92784">
        <ele>828.2</ele>
        <time>2021-08-12T10:15:55Z</time>
      </trkpt>
      <trkpt lat="47.29004" lon="6.92788">
        <ele>828.5</ele>
        <time>2021-08-12T10:15:57Z</time>
      </trkpt>
      <trkpt lat="47.29006" lon="6.92791">
        <ele>828.7</ele>
        <time>2021-08-12T10:15:58Z</time>
      </trkpt>
      <trkpt lat="47.29007" lon="6.92791">
        <ele>828.8</ele>
        <time>2021-08-12T10:15:59Z</time>
      </trkpt>
      <trkpt lat="47.29009" lon="6.92793">
        <ele>828.9</ele>
        <time>2021-08-12T10:16:00Z</time>
      </trkpt>
      <trkpt lat="47.29011" lon="6.92793">
        <ele>829</ele>
        <time>2021-08-12T10:16:01Z</time>
      </trkpt>
      <trkpt lat="47.29012" lon="6.92796">
        <ele>829.2</ele>
        <time>2021-08-12T10:16:03Z</time>
      </trkpt>
      <trkpt lat="47.29015" lon="6.92798">
        <ele>829.4</ele>
        <time>2021-08-12T10:16:05Z</time>
      </trkpt>
      <trkpt lat="47.29016" lon="6.92799">
        <ele>829.5</ele>
        <time>2021-08-12T10:16:06Z</time>
      </trkpt>
      <trkpt lat="47.29017" lon="6.92801">
        <ele>829.7</ele>
        <time>2021-08-12T10:16:08Z</time>
      </trkpt>
      <trkpt lat="47.29017" lon="6.92801">
        <ele>829.7</ele>
        <time>2021-08-12T10:16:09Z</time>
      </trkpt>
      <trkpt lat="47.29018" lon="6.92801">
        <ele>829.8</ele>
        <time>2021-08-12T10:16:10Z</time>
      </trkpt>
      <trkpt lat="47.2902" lon="6.92804">
        <ele>830</ele>
        <time>2021-08-12T10:16:11Z</time>
      </trkpt>
      <trkpt lat="47.29022" lon="6.92806">
        <ele>830.2</ele>
        <time>2021-08-12T10:16:13Z</time>
      </trkpt>
      <trkpt lat="47.29024" lon="6.92807">
        <ele>830.4</ele>
        <time>2021-08-12T10:16:15Z</time>
      </trkpt>
      <trkpt lat="47.29024" lon="6.92808">
        <ele>830.4</ele>
        <time>2021-08-12T10:16:16Z</time>
      </trkpt>
      <trkpt lat="47.29027" lon="6.92812">
        <ele>830.7</ele>
        <time>2021-08-12T10:16:18Z</time>
      </trkpt>
      <trkpt lat="47.2903" lon="6.92814">
        <ele>831</ele>
        <time>2021-08-12T10:16:20Z</time>
      </trkpt>
      <trkpt lat="47.29032" lon="6.92817">
        <ele>831.3</ele>
        <time>2021-08-12T10:16:22Z</time>
      </trkpt>
      <trkpt lat="47.29035" lon="6.9282">
        <ele>831.5</ele>
        <time>2021-08-12T10:16:23Z</time>
      </trkpt>
      <trkpt lat="47.29035" lon="6.92821">
        <ele>831.7</ele>
        <time>2021-08-12T10:16:24Z</time>
      </trkpt>
      <trkpt lat="47.29036" lon="6.92824">
        <ele>831.8</ele>
        <time>2021-08-12T10:16:26Z</time>
      </trkpt>
      <trkpt lat="47.29037" lon="6.92827">
        <ele>832</ele>
        <time>2021-08-12T10:16:27Z</time>
      </trkpt>
      <trkpt lat="47.29038" lon="6.92831">
        <ele>832.3</ele>
        <time>2021-08-12T10:16:29Z</time>
      </trkpt>
      <trkpt lat="47.29038" lon="6.92833">
        <ele>832.4</ele>
        <time>2021-08-12T10:16:30Z</time>
      </trkpt>
      <trkpt lat="47.29039" lon="6.92836">
        <ele>832.6</ele>
        <time>2021-08-12T10:16:32Z</time>
      </trkpt>
      <trkpt lat="47.2904" lon="6.92841">
        <ele>832.8</ele>
        <time>2021-08-12T10:16:34Z</time>
      </trkpt>
      <trkpt lat="47.2904" lon="6.92846">
        <ele>833.1</ele>
        <time>2021-08-12T10:16:36Z</time>
      </trkpt>
      <trkpt lat="47.29041" lon="6.92847">
        <ele>833.2</ele>
        <time>2021-08-12T10:16:38Z</time>
      </trkpt>
      <trkpt lat="47.29041" lon="6.92846">
        <ele>833.2</ele>
        <time>2021-08-12T10:16:39Z</time>
      </trkpt>
      <trkpt lat="47.29041" lon="6.92846">
        <ele>833.2</ele>
        <time>2021-08-12T10:16:41Z</time>
      </trkpt>
      <trkpt lat="47.29041" lon="6.92846">
        <ele>833.2</ele>
        <time>2021-08-12T10:16:42Z</time>
      </trkpt>
      <trkpt lat="47.29041" lon="6.92846">
        <ele>833.3</ele>
        <time>2021-08-12T10:16:43Z</time>
      </trkpt>
      <trkpt lat="47.29041" lon="6.92846">
        <ele>833.3</ele>
        <time>2021-08-12T10:16:44Z</time>
      </trkpt>
      <trkpt lat="47.29041" lon="6.92846">
        <ele>833.3</ele>
        <time>2021-08-12T10:16:46Z</time>
      </trkpt>
      <trkpt lat="47.29052" lon="6.9285">
        <ele>834</ele>
        <time>2021-08-12T10:17:45Z</time>
      </trkpt>
      <trkpt lat="47.29055" lon="6.92853">
        <ele>834.2</ele>
        <time>2021-08-12T10:17:47Z</time>
      </trkpt>
      <trkpt lat="47.29057" lon="6.92855">
        <ele>834.4</ele>
        <time>2021-08-12T10:17:48Z</time>
      </trkpt>
      <trkpt lat="47.29059" lon="6.92857">
        <ele>834.5</ele>
        <time>2021-08-12T10:17:50Z</time>
      </trkpt>
      <trkpt lat="47.29059" lon="6.9286">
        <ele>834.5</ele>
        <time>2021-08-12T10:17:51Z</time>
      </trkpt>
      <trkpt lat="47.29061" lon="6.92864">
        <ele>834.7</ele>
        <time>2021-08-12T10:17:52Z</time>
      </trkpt>
      <trkpt lat="47.29061" lon="6.92865">
        <ele>834.7</ele>
        <time>2021-08-12T10:17:53Z</time>
      </trkpt>
      <trkpt lat="47.29064" lon="6.92865">
        <ele>834.8</ele>
        <time>2021-08-12T10:17:55Z</time>
      </trkpt>
      <trkpt lat="47.29065" lon="6.92865">
        <ele>834.9</ele>
        <time>2021-08-12T10:17:56Z</time>
      </trkpt>
      <trkpt lat="47.29066" lon="6.92866">
        <ele>834.9</ele>
        <time>2021-08-12T10:17:57Z</time>
      </trkpt>
      <trkpt lat="47.29066" lon="6.92866">
        <ele>834.9</ele>
        <time>2021-08-12T10:17:59Z</time>
      </trkpt>
      <trkpt lat="47.29069" lon="6.92866">
        <ele>835</ele>
        <time>2021-08-12T10:18:01Z</time>
      </trkpt>
      <trkpt lat="47.29069" lon="6.92867">
        <ele>835</ele>
        <time>2021-08-12T10:18:03Z</time>
      </trkpt>
      <trkpt lat="47.29069" lon="6.92869">
        <ele>835</ele>
        <time>2021-08-12T10:18:04Z</time>
      </trkpt>
      <trkpt lat="47.29069" lon="6.92871">
        <ele>835.1</ele>
        <time>2021-08-12T10:18:05Z</time>
      </trkpt>
      <trkpt lat="47.2907" lon="6.92873">
        <ele>835.1</ele>
        <time>2021-08-12T10:18:06Z</time>
      </trkpt>
      <trkpt lat="47.29074" lon="6.92878">
        <ele>835.3</ele>
        <time>2021-08-12T10:18:10Z</time>
      </trkpt>
      <trkpt lat="47.29077" lon="6.9288">
        <ele>835.4</ele>
        <time>2021-08-12T10:18:11Z</time>
      </trkpt>
      <trkpt lat="47.29079" lon="6.92882">
        <ele>835.5</ele>
        <time>2021-08-12T10:18:12Z</time>
      </trkpt>
      <trkpt lat="47.29083" lon="6.92884">
        <ele>835.7</ele>
        <time>2021-08-12T10:18:13Z</time>
      </trkpt>
      <trkpt lat="47.29085" lon="6.92886">
        <ele>835.8</ele>
        <time>2021-08-12T10:18:14Z</time>
      </trkpt>
      <trkpt lat="47.29087" lon="6.92888">
        <ele>835.9</ele>
        <time>2021-08-12T10:18:16Z</time>
      </trkpt>
      <trkpt lat="47.29089" lon="6.9289">
        <ele>835.9</ele>
        <time>2021-08-12T10:18:17Z</time>
      </trkpt>
      <trkpt lat="47.2909" lon="6.92891">
        <ele>836</ele>
        <time>2021-08-12T10:18:18Z</time>
      </trkpt>
      <trkpt lat="47.29091" lon="6.92892">
        <ele>836.1</ele>
        <time>2021-08-12T10:18:19Z</time>
      </trkpt>
      <trkpt lat="47.29092" lon="6.92893">
        <ele>836.1</ele>
        <time>2021-08-12T10:18:20Z</time>
      </trkpt>
      <trkpt lat="47.29092" lon="6.92893">
        <ele>836.1</ele>
        <time>2021-08-12T10:18:21Z</time>
      </trkpt>
      <trkpt lat="47.29093" lon="6.92895">
        <ele>836.2</ele>
        <time>2021-08-12T10:18:23Z</time>
      </trkpt>
      <trkpt lat="47.29094" lon="6.92897">
        <ele>836.3</ele>
        <time>2021-08-12T10:18:24Z</time>
      </trkpt>
      <trkpt lat="47.29098" lon="6.929">
        <ele>836.5</ele>
        <time>2021-08-12T10:18:26Z</time>
      </trkpt>
      <trkpt lat="47.29102" lon="6.92901">
        <ele>836.8</ele>
        <time>2021-08-12T10:18:28Z</time>
      </trkpt>
      <trkpt lat="47.29102" lon="6.92902">
        <ele>836.8</ele>
        <time>2021-08-12T10:18:29Z</time>
      </trkpt>
      <trkpt lat="47.29104" lon="6.92902">
        <ele>836.9</ele>
        <time>2021-08-12T10:18:30Z</time>
      </trkpt>
      <trkpt lat="47.29106" lon="6.92903">
        <ele>837.1</ele>
        <time>2021-08-12T10:18:31Z</time>
      </trkpt>
      <trkpt lat="47.29108" lon="6.92904">
        <ele>837.3</ele>
        <time>2021-08-12T10:18:32Z</time>
      </trkpt>
      <trkpt lat="47.29109" lon="6.92905">
        <ele>837.3</ele>
        <time>2021-08-12T10:18:34Z</time>
      </trkpt>
      <trkpt lat="47.2911" lon="6.92905">
        <ele>837.4</ele>
        <time>2021-08-12T10:18:35Z</time>
      </trkpt>
      <trkpt lat="47.29111" lon="6.92906">
        <ele>837.5</ele>
        <time>2021-08-12T10:18:36Z</time>
      </trkpt>
      <trkpt lat="47.29112" lon="6.92906">
        <ele>837.6</ele>
        <time>2021-08-12T10:18:37Z</time>
      </trkpt>
      <trkpt lat="47.29113" lon="6.9291">
        <ele>837.9</ele>
        <time>2021-08-12T10:18:39Z</time>
      </trkpt>
      <trkpt lat="47.29113" lon="6.92913">
        <ele>838.1</ele>
        <time>2021-08-12T10:18:40Z</time>
      </trkpt>
      <trkpt lat="47.29113" lon="6.92916">
        <ele>838.3</ele>
        <time>2021-08-12T10:18:41Z</time>
      </trkpt>
      <trkpt lat="47.29113" lon="6.92921">
        <ele>838.6</ele>
        <time>2021-08-12T10:18:43Z</time>
      </trkpt>
      <trkpt lat="47.29113" lon="6.92925">
        <ele>838.8</ele>
        <time>2021-08-12T10:18:44Z</time>
      </trkpt>
      <trkpt lat="47.29114" lon="6.92929">
        <ele>839.1</ele>
        <time>2021-08-12T10:18:46Z</time>
      </trkpt>
      <trkpt lat="47.29114" lon="6.92931">
        <ele>839.2</ele>
        <time>2021-08-12T10:18:48Z</time>
      </trkpt>
      <trkpt lat="47.29115" lon="6.92932">
        <ele>839.3</ele>
        <time>2021-08-12T10:18:49Z</time>
      </trkpt>
      <trkpt lat="47.29116" lon="6.92932">
        <ele>839.4</ele>
        <time>2021-08-12T10:18:50Z</time>
      </trkpt>
      <trkpt lat="47.29117" lon="6.92931">
        <ele>839.5</ele>
        <time>2021-08-12T10:18:51Z</time>
      </trkpt>
      <trkpt lat="47.29118" lon="6.92932">
        <ele>839.6</ele>
        <time>2021-08-12T10:18:53Z</time>
      </trkpt>
      <trkpt lat="47.29119" lon="6.92933">
        <ele>839.7</ele>
        <time>2021-08-12T10:18:54Z</time>
      </trkpt>
      <trkpt lat="47.2912" lon="6.92932">
        <ele>839.8</ele>
        <time>2021-08-12T10:18:55Z</time>
      </trkpt>
      <trkpt lat="47.2912" lon="6.92932">
        <ele>839.8</ele>
        <time>2021-08-12T10:18:56Z</time>
      </trkpt>
      <trkpt lat="47.2912" lon="6.92932">
        <ele>839.8</ele>
        <time>2021-08-12T10:18:58Z</time>
      </trkpt>
      <trkpt lat="47.29121" lon="6.92932">
        <ele>839.9</ele>
        <time>2021-08-12T10:18:59Z</time>
      </trkpt>
      <trkpt lat="47.29121" lon="6.92933">
        <ele>839.9</ele>
        <time>2021-08-12T10:19:01Z</time>
      </trkpt>
      <trkpt lat="47.29122" lon="6.92933">
        <ele>840</ele>
        <time>2021-08-12T10:19:02Z</time>
      </trkpt>
      <trkpt lat="47.29124" lon="6.92934">
        <ele>840.2</ele>
        <time>2021-08-12T10:19:04Z</time>
      </trkpt>
      <trkpt lat="47.29124" lon="6.92935">
        <ele>840.2</ele>
        <time>2021-08-12T10:19:05Z</time>
      </trkpt>
      <trkpt lat="47.29125" lon="6.92935">
        <ele>840.3</ele>
        <time>2021-08-12T10:19:07Z</time>
      </trkpt>
      <trkpt lat="47.29126" lon="6.92936">
        <ele>840.4</ele>
        <time>2021-08-12T10:19:08Z</time>
      </trkpt>
      <trkpt lat="47.2916" lon="6.92972">
        <ele>844.6</ele>
        <time>2021-08-12T10:20:51Z</time>
      </trkpt>
      <trkpt lat="47.29163" lon="6.92972">
        <ele>844.9</ele>
        <time>2021-08-12T10:20:52Z</time>
      </trkpt>
      <trkpt lat="47.29167" lon="6.92972">
        <ele>845.3</ele>
        <time>2021-08-12T10:20:53Z</time>
      </trkpt>
      <trkpt lat="47.29169" lon="6.92972">
        <ele>845.4</ele>
        <time>2021-08-12T10:20:54Z</time>
      </trkpt>
      <trkpt lat="47.29172" lon="6.92973">
        <ele>845.7</ele>
        <time>2021-08-12T10:20:55Z</time>
      </trkpt>
      <trkpt lat="47.29173" lon="6.92974">
        <ele>845.8</ele>
        <time>2021-08-12T10:20:56Z</time>
      </trkpt>
      <trkpt lat="47.29176" lon="6.92975">
        <ele>846.1</ele>
        <time>2021-08-12T10:20:58Z</time>
      </trkpt>
      <trkpt lat="47.29177" lon="6.92975">
        <ele>846.3</ele>
        <time>2021-08-12T10:20:59Z</time>
      </trkpt>
      <trkpt lat="47.29179" lon="6.92976">
        <ele>846.4</ele>
        <time>2021-08-12T10:21:00Z</time>
      </trkpt>
      <trkpt lat="47.2918" lon="6.92977">
        <ele>846.5</ele>
        <time>2021-08-12T10:21:01Z</time>
      </trkpt>
      <trkpt lat="47.29183" lon="6.92978">
        <ele>846.8</ele>
        <time>2021-08-12T10:21:02Z</time>
      </trkpt>
      <trkpt lat="47.29184" lon="6.92979">
        <ele>846.9</ele>
        <time>2021-08-12T10:21:03Z</time>
      </trkpt>
      <trkpt lat="47.29186" lon="6.92981">
        <ele>847.1</ele>
        <time>2021-08-12T10:21:04Z</time>
      </trkpt>
      <trkpt lat="47.29187" lon="6.92982">
        <ele>847.2</ele>
        <time>2021-08-12T10:21:06Z</time>
      </trkpt>
      <trkpt lat="47.29188" lon="6.92983">
        <ele>847.3</ele>
        <time>2021-08-12T10:21:07Z</time>
      </trkpt>
      <trkpt lat="47.29189" lon="6.92983">
        <ele>847.4</ele>
        <time>2021-08-12T10:21:08Z</time>
      </trkpt>
      <trkpt lat="47.2919" lon="6.92984">
        <ele>847.5</ele>
        <time>2021-08-12T10:21:09Z</time>
      </trkpt>
      <trkpt lat="47.29192" lon="6.92986">
        <ele>847.7</ele>
        <time>2021-08-12T10:21:11Z</time>
      </trkpt>
      <trkpt lat="47.29192" lon="6.92988">
        <ele>847.8</ele>
        <time>2021-08-12T10:21:12Z</time>
      </trkpt>
      <trkpt lat="47.29193" lon="6.92989">
        <ele>847.9</ele>
        <time>2021-08-12T10:21:13Z</time>
      </trkpt>
      <trkpt lat="47.29194" lon="6.9299">
        <ele>847.9</ele>
        <time>2021-08-12T10:21:14Z</time>
      </trkpt>
      <trkpt lat="47.29195" lon="6.92991">
        <ele>848</ele>
        <time>2021-08-12T10:21:15Z</time>
      </trkpt>
      <trkpt lat="47.29196" lon="6.92992">
        <ele>848.1</ele>
        <time>2021-08-12T10:21:16Z</time>
      </trkpt>
      <trkpt lat="47.29196" lon="6.92992">
        <ele>848.1</ele>
        <time>2021-08-12T10:21:18Z</time>
      </trkpt>
      <trkpt lat="47.29196" lon="6.92992">
        <ele>848.2</ele>
        <time>2021-08-12T10:21:19Z</time>
      </trkpt>
      <trkpt lat="47.29197" lon="6.92993">
        <ele>848.2</ele>
        <time>2021-08-12T10:21:21Z</time>
      </trkpt>
      <trkpt lat="47.29197" lon="6.92993">
        <ele>848.2</ele>
        <time>2021-08-12T10:21:22Z</time>
      </trkpt>
      <trkpt lat="47.29197" lon="6.92993">
        <ele>848.3</ele>
        <time>2021-08-12T10:21:24Z</time>
      </trkpt>
      <trkpt lat="47.29198" lon="6.92994">
        <ele>848.3</ele>
        <time>2021-08-12T10:21:25Z</time>
      </trkpt>
      <trkpt lat="47.29198" lon="6.92994">
        <ele>848.3</ele>
        <time>2021-08-12T10:21:26Z</time>
      </trkpt>
      <trkpt lat="47.29201" lon="6.92995">
        <ele>848.6</ele>
        <time>2021-08-12T10:21:27Z</time>
      </trkpt>
      <trkpt lat="47.29202" lon="6.92996">
        <ele>848.7</ele>
        <time>2021-08-12T10:21:28Z</time>
      </trkpt>
      <trkpt lat="47.29205" lon="6.92997">
        <ele>848.9</ele>
        <time>2021-08-12T10:21:29Z</time>
      </trkpt>
      <trkpt lat="47.2921" lon="6.92999">
        <ele>849.3</ele>
        <time>2021-08-12T10:21:30Z</time>
      </trkpt>
      <trkpt lat="47.29214" lon="6.93001">
        <ele>849.5</ele>
        <time>2021-08-12T10:21:31Z</time>
      </trkpt>
      <trkpt lat="47.29217" lon="6.93003">
        <ele>849.8</ele>
        <time>2021-08-12T10:21:33Z</time>
      </trkpt>
      <trkpt lat="47.29221" lon="6.93005">
        <ele>850</ele>
        <time>2021-08-12T10:21:34Z</time>
      </trkpt>
      <trkpt lat="47.29222" lon="6.93006">
        <ele>850</ele>
        <time>2021-08-12T10:21:35Z</time>
      </trkpt>
      <trkpt lat="47.29225" lon="6.93009">
        <ele>850.2</ele>
        <time>2021-08-12T10:21:36Z</time>
      </trkpt>
      <trkpt lat="47.29227" lon="6.9301">
        <ele>850.3</ele>
        <time>2021-08-12T10:21:37Z</time>
      </trkpt>
      <trkpt lat="47.29229" lon="6.93013">
        <ele>850.5</ele>
        <time>2021-08-12T10:21:39Z</time>
      </trkpt>
      <trkpt lat="47.2923" lon="6.93014">
        <ele>850.5</ele>
        <time>2021-08-12T10:21:40Z</time>
      </trkpt>
      <trkpt lat="47.29233" lon="6.93017">
        <ele>850.6</ele>
        <time>2021-08-12T10:21:41Z</time>
      </trkpt>
      <trkpt lat="47.29233" lon="6.93018">
        <ele>850.7</ele>
        <time>2021-08-12T10:21:42Z</time>
      </trkpt>
      <trkpt lat="47.29236" lon="6.9302">
        <ele>850.8</ele>
        <time>2021-08-12T10:21:43Z</time>
      </trkpt>
      <trkpt lat="47.29237" lon="6.93021">
        <ele>850.9</ele>
        <time>2021-08-12T10:21:44Z</time>
      </trkpt>
      <trkpt lat="47.2924" lon="6.93023">
        <ele>851</ele>
        <time>2021-08-12T10:21:45Z</time>
      </trkpt>
      <trkpt lat="47.29241" lon="6.93024">
        <ele>851</ele>
        <time>2021-08-12T10:21:46Z</time>
      </trkpt>
      <trkpt lat="47.29242" lon="6.93026">
        <ele>851.1</ele>
        <time>2021-08-12T10:21:47Z</time>
      </trkpt>
      <trkpt lat="47.29244" lon="6.93028">
        <ele>851.3</ele>
        <time>2021-08-12T10:21:49Z</time>
      </trkpt>
      <trkpt lat="47.29247" lon="6.9303">
        <ele>851.4</ele>
        <time>2021-08-12T10:21:50Z</time>
      </trkpt>
      <trkpt lat="47.29248" lon="6.93031">
        <ele>851.4</ele>
        <time>2021-08-12T10:21:51Z</time>
      </trkpt>
      <trkpt lat="47.29251" lon="6.93033">
        <ele>851.6</ele>
        <time>2021-08-12T10:21:53Z</time>
      </trkpt>
      <trkpt lat="47.29254" lon="6.93036">
        <ele>851.8</ele>
        <time>2021-08-12T10:21:55Z</time>
      </trkpt>
      <trkpt lat="47.29258" lon="6.93039">
        <ele>852</ele>
        <time>2021-08-12T10:21:57Z</time>
      </trkpt>
      <trkpt lat="47.29261" lon="6.93042">
        <ele>852.2</ele>
        <time>2021-08-12T10:21:59Z</time>
      </trkpt>
      <trkpt lat="47.29264" lon="6.93045">
        <ele>852.4</ele>
        <time>2021-08-12T10:22:00Z</time>
      </trkpt>
      <trkpt lat="47.29264" lon="6.93045">
        <ele>852.4</ele>
        <time>2021-08-12T10:22:01Z</time>
      </trkpt>
      <trkpt lat="47.29266" lon="6.93047">
        <ele>852.5</ele>
        <time>2021-08-12T10:22:02Z</time>
      </trkpt>
      <trkpt lat="47.29268" lon="6.93047">
        <ele>852.7</ele>
        <time>2021-08-12T10:22:04Z</time>
      </trkpt>
      <trkpt lat="47.29271" lon="6.93049">
        <ele>852.9</ele>
        <time>2021-08-12T10:22:05Z</time>
      </trkpt>
      <trkpt lat="47.29274" lon="6.93053">
        <ele>853.1</ele>
        <time>2021-08-12T10:22:07Z</time>
      </trkpt>
      <trkpt lat="47.29275" lon="6.93054">
        <ele>853.2</ele>
        <time>2021-08-12T10:22:08Z</time>
      </trkpt>
      <trkpt lat="47.29278" lon="6.93056">
        <ele>853.5</ele>
        <time>2021-08-12T10:22:10Z</time>
      </trkpt>
      <trkpt lat="47.2928" lon="6.93059">
        <ele>853.7</ele>
        <time>2021-08-12T10:22:11Z</time>
      </trkpt>
      <trkpt lat="47.29281" lon="6.93061">
        <ele>853.8</ele>
        <time>2021-08-12T10:22:12Z</time>
      </trkpt>
      <trkpt lat="47.29283" lon="6.93061">
        <ele>853.9</ele>
        <time>2021-08-12T10:22:13Z</time>
      </trkpt>
      <trkpt lat="47.29284" lon="6.93061">
        <ele>854</ele>
        <time>2021-08-12T10:22:15Z</time>
      </trkpt>
      <trkpt lat="47.29286" lon="6.93062">
        <ele>854.2</ele>
        <time>2021-08-12T10:22:16Z</time>
      </trkpt>
      <trkpt lat="47.29289" lon="6.93063">
        <ele>854.4</ele>
        <time>2021-08-12T10:22:18Z</time>
      </trkpt>
      <trkpt lat="47.29292" lon="6.93064">
        <ele>854.6</ele>
        <time>2021-08-12T10:22:19Z</time>
      </trkpt>
      <trkpt lat="47.29293" lon="6.93064">
        <ele>854.7</ele>
        <time>2021-08-12T10:22:20Z</time>
      </trkpt>
      <trkpt lat="47.29296" lon="6.93065">
        <ele>854.9</ele>
        <time>2021-08-12T10:22:21Z</time>
      </trkpt>
      <trkpt lat="47.293" lon="6.93066">
        <ele>855</ele>
        <time>2021-08-12T10:22:23Z</time>
      </trkpt>
      <trkpt lat="47.29303" lon="6.93068">
        <ele>855.2</ele>
        <time>2021-08-12T10:22:24Z</time>
      </trkpt>
      <trkpt lat="47.29305" lon="6.9307">
        <ele>855.3</ele>
        <time>2021-08-12T10:22:25Z</time>
      </trkpt>
      <trkpt lat="47.29307" lon="6.93073">
        <ele>855.4</ele>
        <time>2021-08-12T10:22:26Z</time>
      </trkpt>
      <trkpt lat="47.29311" lon="6.93078">
        <ele>855.5</ele>
        <time>2021-08-12T10:22:28Z</time>
      </trkpt>
      <trkpt lat="47.29315" lon="6.93082">
        <ele>855.6</ele>
        <time>2021-08-12T10:22:29Z</time>
      </trkpt>
      <trkpt lat="47.29317" lon="6.93085">
        <ele>855.7</ele>
        <time>2021-08-12T10:22:30Z</time>
      </trkpt>
      <trkpt lat="47.29323" lon="6.93091">
        <ele>855.7</ele>
        <time>2021-08-12T10:22:32Z</time>
      </trkpt>
      <trkpt lat="47.29327" lon="6.93094">
        <ele>855.7</ele>
        <time>2021-08-12T10:22:33Z</time>
      </trkpt>
      <trkpt lat="47.29333" lon="6.93098">
        <ele>855.7</ele>
        <time>2021-08-12T10:22:34Z</time>
      </trkpt>
      <trkpt lat="47.29338" lon="6.93103">
        <ele>855.6</ele>
        <time>2021-08-12T10:22:36Z</time>
      </trkpt>
      <trkpt lat="47.29343" lon="6.93111">
        <ele>855.5</ele>
        <time>2021-08-12T10:22:38Z</time>
      </trkpt>
      <trkpt lat="47.2935" lon="6.93121">
        <ele>855.3</ele>
        <time>2021-08-12T10:22:40Z</time>
      </trkpt>
      <trkpt lat="47.29354" lon="6.93127">
        <ele>855.2</ele>
        <time>2021-08-12T10:22:41Z</time>
      </trkpt>
      <trkpt lat="47.29358" lon="6.93132">
        <ele>855.1</ele>
        <time>2021-08-12T10:22:42Z</time>
      </trkpt>
      <trkpt lat="47.29366" lon="6.93142">
        <ele>854.9</ele>
        <time>2021-08-12T10:22:44Z</time>
      </trkpt>
      <trkpt lat="47.29375" lon="6.93152">
        <ele>854.7</ele>
        <time>2021-08-12T10:22:46Z</time>
      </trkpt>
      <trkpt lat="47.29379" lon="6.93157">
        <ele>854.7</ele>
        <time>2021-08-12T10:22:47Z</time>
      </trkpt>
      <trkpt lat="47.29383" lon="6.93161">
        <ele>854.8</ele>
        <time>2021-08-12T10:22:48Z</time>
      </trkpt>
      <trkpt lat="47.29391" lon="6.93168">
        <ele>854.9</ele>
        <time>2021-08-12T10:22:50Z</time>
      </trkpt>
      <trkpt lat="47.29394" lon="6.93174">
        <ele>855</ele>
        <time>2021-08-12T10:22:52Z</time>
      </trkpt>
      <trkpt lat="47.29397" lon="6.93176">
        <ele>855.1</ele>
        <time>2021-08-12T10:22:53Z</time>
      </trkpt>
      <trkpt lat="47.29401" lon="6.93179">
        <ele>855.2</ele>
        <time>2021-08-12T10:22:54Z</time>
      </trkpt>
      <trkpt lat="47.29406" lon="6.93181">
        <ele>855.3</ele>
        <time>2021-08-12T10:22:56Z</time>
      </trkpt>
      <trkpt lat="47.29409" lon="6.93183">
        <ele>855.5</ele>
        <time>2021-08-12T10:22:57Z</time>
      </trkpt>
      <trkpt lat="47.29412" lon="6.93184">
        <ele>855.6</ele>
        <time>2021-08-12T10:22:58Z</time>
      </trkpt>
      <trkpt lat="47.29415" lon="6.93185">
        <ele>855.7</ele>
        <time>2021-08-12T10:23:00Z</time>
      </trkpt>
      <trkpt lat="47.29418" lon="6.93186">
        <ele>855.9</ele>
        <time>2021-08-12T10:23:01Z</time>
      </trkpt>
      <trkpt lat="47.2942" lon="6.93188">
        <ele>856</ele>
        <time>2021-08-12T10:23:02Z</time>
      </trkpt>
      <trkpt lat="47.29423" lon="6.93189">
        <ele>856.2</ele>
        <time>2021-08-12T10:23:04Z</time>
      </trkpt>
      <trkpt lat="47.29426" lon="6.9319">
        <ele>856.4</ele>
        <time>2021-08-12T10:23:05Z</time>
      </trkpt>
      <trkpt lat="47.29429" lon="6.93191">
        <ele>856.6</ele>
        <time>2021-08-12T10:23:07Z</time>
      </trkpt>
      <trkpt lat="47.29432" lon="6.93192">
        <ele>856.8</ele>
        <time>2021-08-12T10:23:08Z</time>
      </trkpt>
      <trkpt lat="47.29435" lon="6.93193">
        <ele>857</ele>
        <time>2021-08-12T10:23:09Z</time>
      </trkpt>
      <trkpt lat="47.29438" lon="6.93196">
        <ele>857.2</ele>
        <time>2021-08-12T10:23:11Z</time>
      </trkpt>
      <trkpt lat="47.29439" lon="6.93198">
        <ele>857.4</ele>
        <time>2021-08-12T10:23:12Z</time>
      </trkpt>
      <trkpt lat="47.29442" lon="6.932">
        <ele>857.6</ele>
        <time>2021-08-12T10:23:14Z</time>
      </trkpt>
      <trkpt lat="47.29445" lon="6.93201">
        <ele>857.8</ele>
        <time>2021-08-12T10:23:16Z</time>
      </trkpt>
      <trkpt lat="47.29445" lon="6.93201">
        <ele>857.9</ele>
        <time>2021-08-12T10:23:17Z</time>
      </trkpt>
      <trkpt lat="47.29445" lon="6.93202">
        <ele>857.9</ele>
        <time>2021-08-12T10:23:19Z</time>
      </trkpt>
      <trkpt lat="47.29445" lon="6.93202">
        <ele>857.9</ele>
        <time>2021-08-12T10:23:21Z</time>
      </trkpt>
      <trkpt lat="47.29445" lon="6.93202">
        <ele>857.9</ele>
        <time>2021-08-12T10:23:22Z</time>
      </trkpt>
      <trkpt lat="47.29446" lon="6.93203">
        <ele>858</ele>
        <time>2021-08-12T10:23:23Z</time>
      </trkpt>
      <trkpt lat="47.29447" lon="6.93206">
        <ele>858.1</ele>
        <time>2021-08-12T10:23:24Z</time>
      </trkpt>
      <trkpt lat="47.29448" lon="6.93212">
        <ele>858.4</ele>
        <time>2021-08-12T10:23:26Z</time>
      </trkpt>
      <trkpt lat="47.29448" lon="6.93215">
        <ele>858.4</ele>
        <time>2021-08-12T10:23:27Z</time>
      </trkpt>
      <trkpt lat="47.29447" lon="6.93239">
        <ele>858.5</ele>
        <time>2021-08-12T10:23:29Z</time>
      </trkpt>
      <trkpt lat="47.29448" lon="6.9325">
        <ele>858.3</ele>
        <time>2021-08-12T10:23:30Z</time>
      </trkpt>
      <trkpt lat="47.29452" lon="6.93267">
        <ele>858.3</ele>
        <time>2021-08-12T10:23:32Z</time>
      </trkpt>
      <trkpt lat="47.29456" lon="6.93279">
        <ele>858.5</ele>
        <time>2021-08-12T10:23:34Z</time>
      </trkpt>
      <trkpt lat="47.2946" lon="6.93288">
        <ele>858.7</ele>
        <time>2021-08-12T10:23:36Z</time>
      </trkpt>
      <trkpt lat="47.29462" lon="6.93293">
        <ele>858.9</ele>
        <time>2021-08-12T10:23:37Z</time>
      </trkpt>
      <trkpt lat="47.29464" lon="6.93298">
        <ele>859</ele>
        <time>2021-08-12T10:23:38Z</time>
      </trkpt>
      <trkpt lat="47.29466" lon="6.93303">
        <ele>859.2</ele>
        <time>2021-08-12T10:23:39Z</time>
      </trkpt>
      <trkpt lat="47.29469" lon="6.93308">
        <ele>859.3</ele>
        <time>2021-08-12T10:23:41Z</time>
      </trkpt>
      <trkpt lat="47.2947" lon="6.9331">
        <ele>859.3</ele>
        <time>2021-08-12T10:23:42Z</time>
      </trkpt>
      <trkpt lat="47.29471" lon="6.93312">
        <ele>859.4</ele>
        <time>2021-08-12T10:23:43Z</time>
      </trkpt>
      <trkpt lat="47.29472" lon="6.93316">
        <ele>859.4</ele>
        <time>2021-08-12T10:23:45Z</time>
      </trkpt>
      <trkpt lat="47.29473" lon="6.93317">
        <ele>859.5</ele>
        <time>2021-08-12T10:23:46Z</time>
      </trkpt>
      <trkpt lat="47.29474" lon="6.93322">
        <ele>859.6</ele>
        <time>2021-08-12T10:23:47Z</time>
      </trkpt>
      <trkpt lat="47.29474" lon="6.93324">
        <ele>859.6</ele>
        <time>2021-08-12T10:23:48Z</time>
      </trkpt>
      <trkpt lat="47.29477" lon="6.93328">
        <ele>859.7</ele>
        <time>2021-08-12T10:23:50Z</time>
      </trkpt>
      <trkpt lat="47.2948" lon="6.93332">
        <ele>859.8</ele>
        <time>2021-08-12T10:23:52Z</time>
      </trkpt>
      <trkpt lat="47.29482" lon="6.93335">
        <ele>859.9</ele>
        <time>2021-08-12T10:23:53Z</time>
      </trkpt>
      <trkpt lat="47.29484" lon="6.93337">
        <ele>859.9</ele>
        <time>2021-08-12T10:23:54Z</time>
      </trkpt>
      <trkpt lat="47.29487" lon="6.93342">
        <ele>860.1</ele>
        <time>2021-08-12T10:23:56Z</time>
      </trkpt>
      <trkpt lat="47.29492" lon="6.93343">
        <ele>860.2</ele>
        <time>2021-08-12T10:23:57Z</time>
      </trkpt>
      <trkpt lat="47.29497" lon="6.93345">
        <ele>860.4</ele>
        <time>2021-08-12T10:23:59Z</time>
      </trkpt>
      <trkpt lat="47.295" lon="6.93346">
        <ele>860.5</ele>
        <time>2021-08-12T10:24:00Z</time>
      </trkpt>
      <trkpt lat="47.29504" lon="6.93347">
        <ele>860.7</ele>
        <time>2021-08-12T10:24:01Z</time>
      </trkpt>
      <trkpt lat="47.29508" lon="6.93349">
        <ele>860.9</ele>
        <time>2021-08-12T10:24:02Z</time>
      </trkpt>
      <trkpt lat="47.29511" lon="6.93351">
        <ele>861</ele>
        <time>2021-08-12T10:24:04Z</time>
      </trkpt>
      <trkpt lat="47.29513" lon="6.93353">
        <ele>861.1</ele>
        <time>2021-08-12T10:24:05Z</time>
      </trkpt>
      <trkpt lat="47.29515" lon="6.93356">
        <ele>861.2</ele>
        <time>2021-08-12T10:24:07Z</time>
      </trkpt>
      <trkpt lat="47.29517" lon="6.93358">
        <ele>861.4</ele>
        <time>2021-08-12T10:24:08Z</time>
      </trkpt>
      <trkpt lat="47.29518" lon="6.9336">
        <ele>861.4</ele>
        <time>2021-08-12T10:24:09Z</time>
      </trkpt>
      <trkpt lat="47.29521" lon="6.93364">
        <ele>861.6</ele>
        <time>2021-08-12T10:24:11Z</time>
      </trkpt>
      <trkpt lat="47.29521" lon="6.93366">
        <ele>861.7</ele>
        <time>2021-08-12T10:24:12Z</time>
      </trkpt>
      <trkpt lat="47.29522" lon="6.93367">
        <ele>861.7</ele>
        <time>2021-08-12T10:24:13Z</time>
      </trkpt>
      <trkpt lat="47.29524" lon="6.93371">
        <ele>861.9</ele>
        <time>2021-08-12T10:24:14Z</time>
      </trkpt>
      <trkpt lat="47.29526" lon="6.93375">
        <ele>862</ele>
        <time>2021-08-12T10:24:16Z</time>
      </trkpt>
      <trkpt lat="47.29527" lon="6.93377">
        <ele>862.1</ele>
        <time>2021-08-12T10:24:17Z</time>
      </trkpt>
      <trkpt lat="47.29528" lon="6.93379">
        <ele>862.2</ele>
        <time>2021-08-12T10:24:18Z</time>
      </trkpt>
      <trkpt lat="47.29529" lon="6.93381">
        <ele>862.3</ele>
        <time>2021-08-12T10:24:19Z</time>
      </trkpt>
      <trkpt lat="47.2953" lon="6.93382">
        <ele>862.3</ele>
        <time>2021-08-12T10:24:20Z</time>
      </trkpt>
      <trkpt lat="47.29533" lon="6.93386">
        <ele>862.5</ele>
        <time>2021-08-12T10:24:22Z</time>
      </trkpt>
      <trkpt lat="47.29533" lon="6.93387">
        <ele>862.5</ele>
        <time>2021-08-12T10:24:23Z</time>
      </trkpt>
      <trkpt lat="47.29535" lon="6.93391">
        <ele>862.7</ele>
        <time>2021-08-12T10:24:24Z</time>
      </trkpt>
      <trkpt lat="47.29536" lon="6.93393">
        <ele>862.7</ele>
        <time>2021-08-12T10:24:25Z</time>
      </trkpt>
      <trkpt lat="47.29538" lon="6.93397">
        <ele>862.9</ele>
        <time>2021-08-12T10:24:27Z</time>
      </trkpt>
      <trkpt lat="47.29539" lon="6.93398">
        <ele>862.9</ele>
        <time>2021-08-12T10:24:28Z</time>
      </trkpt>
      <trkpt lat="47.2954" lon="6.93399">
        <ele>863</ele>
        <time>2021-08-12T10:24:29Z</time>
      </trkpt>
      <trkpt lat="47.29541" lon="6.93401">
        <ele>863.1</ele>
        <time>2021-08-12T10:24:30Z</time>
      </trkpt>
      <trkpt lat="47.29543" lon="6.93404">
        <ele>863.2</ele>
        <time>2021-08-12T10:24:31Z</time>
      </trkpt>
      <trkpt lat="47.29544" lon="6.93406">
        <ele>863.3</ele>
        <time>2021-08-12T10:24:32Z</time>
      </trkpt>
      <trkpt lat="47.29546" lon="6.93409">
        <ele>863.4</ele>
        <time>2021-08-12T10:24:34Z</time>
      </trkpt>
      <trkpt lat="47.29548" lon="6.93413">
        <ele>863.5</ele>
        <time>2021-08-12T10:24:36Z</time>
      </trkpt>
      <trkpt lat="47.2955" lon="6.93417">
        <ele>863.6</ele>
        <time>2021-08-12T10:24:37Z</time>
      </trkpt>
      <trkpt lat="47.29552" lon="6.93421">
        <ele>863.8</ele>
        <time>2021-08-12T10:24:39Z</time>
      </trkpt>
      <trkpt lat="47.29554" lon="6.93423">
        <ele>863.9</ele>
        <time>2021-08-12T10:24:40Z</time>
      </trkpt>
      <trkpt lat="47.29558" lon="6.93426">
        <ele>864</ele>
        <time>2021-08-12T10:24:42Z</time>
      </trkpt>
      <trkpt lat="47.29561" lon="6.93428">
        <ele>864.1</ele>
        <time>2021-08-12T10:24:43Z</time>
      </trkpt>
      <trkpt lat="47.29563" lon="6.93432">
        <ele>864.3</ele>
        <time>2021-08-12T10:24:44Z</time>
      </trkpt>
      <trkpt lat="47.29565" lon="6.93433">
        <ele>864.3</ele>
        <time>2021-08-12T10:24:45Z</time>
      </trkpt>
      <trkpt lat="47.29566" lon="6.93437">
        <ele>864.4</ele>
        <time>2021-08-12T10:24:47Z</time>
      </trkpt>
      <trkpt lat="47.29568" lon="6.93439">
        <ele>864.5</ele>
        <time>2021-08-12T10:24:48Z</time>
      </trkpt>
      <trkpt lat="47.29571" lon="6.93443">
        <ele>864.6</ele>
        <time>2021-08-12T10:24:50Z</time>
      </trkpt>
      <trkpt lat="47.29574" lon="6.93449">
        <ele>864.8</ele>
        <time>2021-08-12T10:24:52Z</time>
      </trkpt>
      <trkpt lat="47.29575" lon="6.93451">
        <ele>864.8</ele>
        <time>2021-08-12T10:24:53Z</time>
      </trkpt>
      <trkpt lat="47.29576" lon="6.93452">
        <ele>864.9</ele>
        <time>2021-08-12T10:24:54Z</time>
      </trkpt>
      <trkpt lat="47.29577" lon="6.93454">
        <ele>864.9</ele>
        <time>2021-08-12T10:24:55Z</time>
      </trkpt>
      <trkpt lat="47.29579" lon="6.93457">
        <ele>865</ele>
        <time>2021-08-12T10:24:57Z</time>
      </trkpt>
      <trkpt lat="47.29581" lon="6.93461">
        <ele>865.1</ele>
        <time>2021-08-12T10:24:59Z</time>
      </trkpt>
      <trkpt lat="47.29583" lon="6.93464">
        <ele>865.2</ele>
        <time>2021-08-12T10:25:00Z</time>
      </trkpt>
      <trkpt lat="47.29584" lon="6.93468">
        <ele>865.2</ele>
        <time>2021-08-12T10:25:02Z</time>
      </trkpt>
      <trkpt lat="47.29586" lon="6.93472">
        <ele>865.3</ele>
        <time>2021-08-12T10:25:03Z</time>
      </trkpt>
      <trkpt lat="47.29587" lon="6.93473">
        <ele>865.3</ele>
        <time>2021-08-12T10:25:04Z</time>
      </trkpt>
      <trkpt lat="47.29589" lon="6.93476">
        <ele>865.4</ele>
        <time>2021-08-12T10:25:06Z</time>
      </trkpt>
      <trkpt lat="47.29592" lon="6.93479">
        <ele>865.5</ele>
        <time>2021-08-12T10:25:07Z</time>
      </trkpt>
      <trkpt lat="47.29596" lon="6.9348">
        <ele>865.6</ele>
        <time>2021-08-12T10:25:09Z</time>
      </trkpt>
      <trkpt lat="47.296" lon="6.93482">
        <ele>865.7</ele>
        <time>2021-08-12T10:25:11Z</time>
      </trkpt>
      <trkpt lat="47.29602" lon="6.93484">
        <ele>865.8</ele>
        <time>2021-08-12T10:25:12Z</time>
      </trkpt>
      <trkpt lat="47.29605" lon="6.93486">
        <ele>865.9</ele>
        <time>2021-08-12T10:25:14Z</time>
      </trkpt>
      <trkpt lat="47.29607" lon="6.93488">
        <ele>866</ele>
        <time>2021-08-12T10:25:15Z</time>
      </trkpt>
      <trkpt lat="47.2961" lon="6.9349">
        <ele>866.1</ele>
        <time>2021-08-12T10:25:16Z</time>
      </trkpt>
      <trkpt lat="47.2961" lon="6.93491">
        <ele>866.1</ele>
        <time>2021-08-12T10:25:17Z</time>
      </trkpt>
      <trkpt lat="47.29613" lon="6.93493">
        <ele>866.2</ele>
        <time>2021-08-12T10:25:18Z</time>
      </trkpt>
      <trkpt lat="47.29614" lon="6.93494">
        <ele>866.3</ele>
        <time>2021-08-12T10:25:19Z</time>
      </trkpt>
      <trkpt lat="47.29616" lon="6.93497">
        <ele>866.4</ele>
        <time>2021-08-12T10:25:20Z</time>
      </trkpt>
      <trkpt lat="47.29617" lon="6.93498">
        <ele>866.4</ele>
        <time>2021-08-12T10:25:21Z</time>
      </trkpt>
      <trkpt lat="47.2962" lon="6.935">
        <ele>866.5</ele>
        <time>2021-08-12T10:25:23Z</time>
      </trkpt>
      <trkpt lat="47.29623" lon="6.93503">
        <ele>866.7</ele>
        <time>2021-08-12T10:25:24Z</time>
      </trkpt>
      <trkpt lat="47.29624" lon="6.93504">
        <ele>866.7</ele>
        <time>2021-08-12T10:25:25Z</time>
      </trkpt>
      <trkpt lat="47.29627" lon="6.93507">
        <ele>866.8</ele>
        <time>2021-08-12T10:25:27Z</time>
      </trkpt>
      <trkpt lat="47.29628" lon="6.93508">
        <ele>866.8</ele>
        <time>2021-08-12T10:25:28Z</time>
      </trkpt>
      <trkpt lat="47.29629" lon="6.9351">
        <ele>866.9</ele>
        <time>2021-08-12T10:25:29Z</time>
      </trkpt>
      <trkpt lat="47.29631" lon="6.93512">
        <ele>867</ele>
        <time>2021-08-12T10:25:31Z</time>
      </trkpt>
      <trkpt lat="47.29632" lon="6.93514">
        <ele>867</ele>
        <time>2021-08-12T10:25:32Z</time>
      </trkpt>
      <trkpt lat="47.29635" lon="6.93518">
        <ele>867.2</ele>
        <time>2021-08-12T10:25:34Z</time>
      </trkpt>
      <trkpt lat="47.29637" lon="6.93522">
        <ele>867.3</ele>
        <time>2021-08-12T10:25:35Z</time>
      </trkpt>
      <trkpt lat="47.29638" lon="6.93523">
        <ele>867.3</ele>
        <time>2021-08-12T10:25:36Z</time>
      </trkpt>
      <trkpt lat="47.29639" lon="6.9353">
        <ele>867.5</ele>
        <time>2021-08-12T10:25:38Z</time>
      </trkpt>
      <trkpt lat="47.2964" lon="6.93531">
        <ele>867.5</ele>
        <time>2021-08-12T10:25:39Z</time>
      </trkpt>
      <trkpt lat="47.2964" lon="6.93533">
        <ele>867.6</ele>
        <time>2021-08-12T10:25:40Z</time>
      </trkpt>
      <trkpt lat="47.29641" lon="6.93536">
        <ele>867.6</ele>
        <time>2021-08-12T10:25:41Z</time>
      </trkpt>
      <trkpt lat="47.29643" lon="6.93539">
        <ele>867.7</ele>
        <time>2021-08-12T10:25:43Z</time>
      </trkpt>
      <trkpt lat="47.29644" lon="6.9354">
        <ele>867.8</ele>
        <time>2021-08-12T10:25:44Z</time>
      </trkpt>
      <trkpt lat="47.29646" lon="6.93542">
        <ele>867.9</ele>
        <time>2021-08-12T10:25:46Z</time>
      </trkpt>
      <trkpt lat="47.29647" lon="6.93544">
        <ele>868</ele>
        <time>2021-08-12T10:25:47Z</time>
      </trkpt>
      <trkpt lat="47.29649" lon="6.93546">
        <ele>868.1</ele>
        <time>2021-08-12T10:25:48Z</time>
      </trkpt>
      <trkpt lat="47.2965" lon="6.93547">
        <ele>868.2</ele>
        <time>2021-08-12T10:25:49Z</time>
      </trkpt>
      <trkpt lat="47.29652" lon="6.93551">
        <ele>868.3</ele>
        <time>2021-08-12T10:25:51Z</time>
      </trkpt>
      <trkpt lat="47.29655" lon="6.93553">
        <ele>868.5</ele>
        <time>2021-08-12T10:25:52Z</time>
      </trkpt>
      <trkpt lat="47.29656" lon="6.93554">
        <ele>868.5</ele>
        <time>2021-08-12T10:25:53Z</time>
      </trkpt>
      <trkpt lat="47.29657" lon="6.93555">
        <ele>868.6</ele>
        <time>2021-08-12T10:25:54Z</time>
      </trkpt>
      <trkpt lat="47.2966" lon="6.93558">
        <ele>868.8</ele>
        <time>2021-08-12T10:25:56Z</time>
      </trkpt>
      <trkpt lat="47.29663" lon="6.9356">
        <ele>869</ele>
        <time>2021-08-12T10:25:57Z</time>
      </trkpt>
      <trkpt lat="47.29663" lon="6.93561">
        <ele>869</ele>
        <time>2021-08-12T10:25:58Z</time>
      </trkpt>
      <trkpt lat="47.29665" lon="6.93562">
        <ele>869.1</ele>
        <time>2021-08-12T10:25:59Z</time>
      </trkpt>
      <trkpt lat="47.29666" lon="6.93563">
        <ele>869.2</ele>
        <time>2021-08-12T10:26:00Z</time>
      </trkpt>
      <trkpt lat="47.29668" lon="6.93564">
        <ele>869.3</ele>
        <time>2021-08-12T10:26:01Z</time>
      </trkpt>
      <trkpt lat="47.29669" lon="6.93565">
        <ele>869.4</ele>
        <time>2021-08-12T10:26:03Z</time>
      </trkpt>
      <trkpt lat="47.29669" lon="6.93566">
        <ele>869.5</ele>
        <time>2021-08-12T10:26:04Z</time>
      </trkpt>
      <trkpt lat="47.29671" lon="6.9357">
        <ele>869.7</ele>
        <time>2021-08-12T10:26:06Z</time>
      </trkpt>
      <trkpt lat="47.29672" lon="6.93572">
        <ele>869.8</ele>
        <time>2021-08-12T10:26:07Z</time>
      </trkpt>
      <trkpt lat="47.29672" lon="6.93574">
        <ele>869.9</ele>
        <time>2021-08-12T10:26:08Z</time>
      </trkpt>
      <trkpt lat="47.29673" lon="6.93576">
        <ele>870</ele>
        <time>2021-08-12T10:26:09Z</time>
      </trkpt>
      <trkpt lat="47.29675" lon="6.93579">
        <ele>870.2</ele>
        <time>2021-08-12T10:26:11Z</time>
      </trkpt>
      <trkpt lat="47.29676" lon="6.93581">
        <ele>870.3</ele>
        <time>2021-08-12T10:26:12Z</time>
      </trkpt>
      <trkpt lat="47.29678" lon="6.93584">
        <ele>870.5</ele>
        <time>2021-08-12T10:26:14Z</time>
      </trkpt>
      <trkpt lat="47.29679" lon="6.93585">
        <ele>870.6</ele>
        <time>2021-08-12T10:26:15Z</time>
      </trkpt>
      <trkpt lat="47.29681" lon="6.93588">
        <ele>870.8</ele>
        <time>2021-08-12T10:26:17Z</time>
      </trkpt>
      <trkpt lat="47.29684" lon="6.9359">
        <ele>871.1</ele>
        <time>2021-08-12T10:26:19Z</time>
      </trkpt>
      <trkpt lat="47.29685" lon="6.93592">
        <ele>871.2</ele>
        <time>2021-08-12T10:26:20Z</time>
      </trkpt>
      <trkpt lat="47.29687" lon="6.93593">
        <ele>871.4</ele>
        <time>2021-08-12T10:26:22Z</time>
      </trkpt>
      <trkpt lat="47.29688" lon="6.93594">
        <ele>871.5</ele>
        <time>2021-08-12T10:26:23Z</time>
      </trkpt>
      <trkpt lat="47.2969" lon="6.93596">
        <ele>871.7</ele>
        <time>2021-08-12T10:26:24Z</time>
      </trkpt>
      <trkpt lat="47.29692" lon="6.93599">
        <ele>871.9</ele>
        <time>2021-08-12T10:26:26Z</time>
      </trkpt>
      <trkpt lat="47.29693" lon="6.93599">
        <ele>872</ele>
        <time>2021-08-12T10:26:27Z</time>
      </trkpt>
      <trkpt lat="47.29696" lon="6.93601">
        <ele>872.3</ele>
        <time>2021-08-12T10:26:29Z</time>
      </trkpt>
      <trkpt lat="47.29699" lon="6.93604">
        <ele>872.6</ele>
        <time>2021-08-12T10:26:31Z</time>
      </trkpt>
      <trkpt lat="47.297" lon="6.93605">
        <ele>872.8</ele>
        <time>2021-08-12T10:26:32Z</time>
      </trkpt>
      <trkpt lat="47.29702" lon="6.93607">
        <ele>873</ele>
        <time>2021-08-12T10:26:34Z</time>
      </trkpt>
      <trkpt lat="47.29705" lon="6.9361">
        <ele>873.4</ele>
        <time>2021-08-12T10:26:35Z</time>
      </trkpt>
      <trkpt lat="47.29706" lon="6.93611">
        <ele>873.4</ele>
        <time>2021-08-12T10:26:36Z</time>
      </trkpt>
      <trkpt lat="47.29708" lon="6.93612">
        <ele>873.7</ele>
        <time>2021-08-12T10:26:37Z</time>
      </trkpt>
      <trkpt lat="47.29711" lon="6.93613">
        <ele>874</ele>
        <time>2021-08-12T10:26:39Z</time>
      </trkpt>
      <trkpt lat="47.29713" lon="6.93614">
        <ele>874.2</ele>
        <time>2021-08-12T10:26:40Z</time>
      </trkpt>
      <trkpt lat="47.29716" lon="6.93616">
        <ele>874.5</ele>
        <time>2021-08-12T10:26:42Z</time>
      </trkpt>
      <trkpt lat="47.29718" lon="6.93616">
        <ele>874.7</ele>
        <time>2021-08-12T10:26:44Z</time>
      </trkpt>
      <trkpt lat="47.29721" lon="6.93615">
        <ele>875</ele>
        <time>2021-08-12T10:26:46Z</time>
      </trkpt>
      <trkpt lat="47.29723" lon="6.93615">
        <ele>875.2</ele>
        <time>2021-08-12T10:26:48Z</time>
      </trkpt>
      <trkpt lat="47.29726" lon="6.93614">
        <ele>875.5</ele>
        <time>2021-08-12T10:26:49Z</time>
      </trkpt>
      <trkpt lat="47.29728" lon="6.93614">
        <ele>875.7</ele>
        <time>2021-08-12T10:26:51Z</time>
      </trkpt>
      <trkpt lat="47.29731" lon="6.93613">
        <ele>876</ele>
        <time>2021-08-12T10:27:28Z</time>
      </trkpt>
      <trkpt lat="47.29733" lon="6.93613">
        <ele>876.2</ele>
        <time>2021-08-12T10:27:30Z</time>
      </trkpt>
      <trkpt lat="47.29736" lon="6.93612">
        <ele>876.4</ele>
        <time>2021-08-12T10:27:31Z</time>
      </trkpt>
      <trkpt lat="47.29738" lon="6.93611">
        <ele>876.7</ele>
        <time>2021-08-12T10:27:32Z</time>
      </trkpt>
      <trkpt lat="47.29741" lon="6.93609">
        <ele>877</ele>
        <time>2021-08-12T10:27:34Z</time>
      </trkpt>
      <trkpt lat="47.29742" lon="6.93608">
        <ele>877.1</ele>
        <time>2021-08-12T10:27:35Z</time>
      </trkpt>
      <trkpt lat="47.29743" lon="6.93608">
        <ele>877.2</ele>
        <time>2021-08-12T10:27:37Z</time>
      </trkpt>
      <trkpt lat="47.29744" lon="6.93607">
        <ele>877.3</ele>
        <time>2021-08-12T10:27:38Z</time>
      </trkpt>
      <trkpt lat="47.29745" lon="6.93607">
        <ele>877.4</ele>
        <time>2021-08-12T10:27:39Z</time>
      </trkpt>
      <trkpt lat="47.29745" lon="6.93606">
        <ele>877.4</ele>
        <time>2021-08-12T10:27:41Z</time>
      </trkpt>
      <trkpt lat="47.29746" lon="6.93606">
        <ele>877.4</ele>
        <time>2021-08-12T10:27:42Z</time>
      </trkpt>
      <trkpt lat="47.29746" lon="6.93606">
        <ele>877.5</ele>
        <time>2021-08-12T10:27:43Z</time>
      </trkpt>
      <trkpt lat="47.29746" lon="6.93606">
        <ele>877.5</ele>
        <time>2021-08-12T10:27:44Z</time>
      </trkpt>
      <trkpt lat="47.29746" lon="6.93606">
        <ele>877.5</ele>
        <time>2021-08-12T10:27:46Z</time>
      </trkpt>
      <trkpt lat="47.2983" lon="6.93572">
        <ele>884</ele>
        <time>2021-08-12T10:29:16Z</time>
      </trkpt>
      <trkpt lat="47.29832" lon="6.93573">
        <ele>884.2</ele>
        <time>2021-08-12T10:29:17Z</time>
      </trkpt>
      <trkpt lat="47.29833" lon="6.93574">
        <ele>884.3</ele>
        <time>2021-08-12T10:29:18Z</time>
      </trkpt>
      <trkpt lat="47.29834" lon="6.93574">
        <ele>884.4</ele>
        <time>2021-08-12T10:29:19Z</time>
      </trkpt>
      <trkpt lat="47.29835" lon="6.93575">
        <ele>884.5</ele>
        <time>2021-08-12T10:29:20Z</time>
      </trkpt>
      <trkpt lat="47.29836" lon="6.93575">
        <ele>884.5</ele>
        <time>2021-08-12T10:29:21Z</time>
      </trkpt>
      <trkpt lat="47.29838" lon="6.93575">
        <ele>884.7</ele>
        <time>2021-08-12T10:29:23Z</time>
      </trkpt>
      <trkpt lat="47.29839" lon="6.93575">
        <ele>884.7</ele>
        <time>2021-08-12T10:29:24Z</time>
      </trkpt>
      <trkpt lat="47.2984" lon="6.93575">
        <ele>884.8</ele>
        <time>2021-08-12T10:29:25Z</time>
      </trkpt>
      <trkpt lat="47.29845" lon="6.93575">
        <ele>885.1</ele>
        <time>2021-08-12T10:29:27Z</time>
      </trkpt>
      <trkpt lat="47.29846" lon="6.93575">
        <ele>885.3</ele>
        <time>2021-08-12T10:29:28Z</time>
      </trkpt>
      <trkpt lat="47.29848" lon="6.93575">
        <ele>885.4</ele>
        <time>2021-08-12T10:29:29Z</time>
      </trkpt>
      <trkpt lat="47.29851" lon="6.93575">
        <ele>885.6</ele>
        <time>2021-08-12T10:29:31Z</time>
      </trkpt>
      <trkpt lat="47.29852" lon="6.93576">
        <ele>885.7</ele>
        <time>2021-08-12T10:29:32Z</time>
      </trkpt>
      <trkpt lat="47.29853" lon="6.93576">
        <ele>885.8</ele>
        <time>2021-08-12T10:29:33Z</time>
      </trkpt>
      <trkpt lat="47.29855" lon="6.93577">
        <ele>885.9</ele>
        <time>2021-08-12T10:29:34Z</time>
      </trkpt>
      <trkpt lat="47.29857" lon="6.93578">
        <ele>886</ele>
        <time>2021-08-12T10:29:36Z</time>
      </trkpt>
      <trkpt lat="47.29859" lon="6.93579">
        <ele>886.2</ele>
        <time>2021-08-12T10:29:37Z</time>
      </trkpt>
      <trkpt lat="47.2986" lon="6.93579">
        <ele>886.2</ele>
        <time>2021-08-12T10:29:38Z</time>
      </trkpt>
      <trkpt lat="47.29861" lon="6.93579">
        <ele>886.3</ele>
        <time>2021-08-12T10:29:39Z</time>
      </trkpt>
      <trkpt lat="47.29861" lon="6.93579">
        <ele>886.3</ele>
        <time>2021-08-12T10:29:40Z</time>
      </trkpt>
      <trkpt lat="47.29862" lon="6.93579">
        <ele>886.4</ele>
        <time>2021-08-12T10:29:42Z</time>
      </trkpt>
      <trkpt lat="47.29862" lon="6.93579">
        <ele>886.4</ele>
        <time>2021-08-12T10:29:43Z</time>
      </trkpt>
      <trkpt lat="47.29862" lon="6.9358">
        <ele>886.4</ele>
        <time>2021-08-12T10:29:44Z</time>
      </trkpt>
      <trkpt lat="47.29862" lon="6.9358">
        <ele>886.4</ele>
        <time>2021-08-12T10:29:45Z</time>
      </trkpt>
      <trkpt lat="47.29864" lon="6.9358">
        <ele>886.5</ele>
        <time>2021-08-12T10:29:47Z</time>
      </trkpt>
      <trkpt lat="47.29865" lon="6.9358">
        <ele>886.6</ele>
        <time>2021-08-12T10:29:49Z</time>
      </trkpt>
      <trkpt lat="47.29866" lon="6.9358">
        <ele>886.7</ele>
        <time>2021-08-12T10:29:50Z</time>
      </trkpt>
      <trkpt lat="47.29868" lon="6.9358">
        <ele>886.8</ele>
        <time>2021-08-12T10:29:52Z</time>
      </trkpt>
      <trkpt lat="47.29869" lon="6.9358">
        <ele>886.9</ele>
        <time>2021-08-12T10:29:53Z</time>
      </trkpt>
      <trkpt lat="47.2987" lon="6.93581">
        <ele>886.9</ele>
        <time>2021-08-12T10:29:54Z</time>
      </trkpt>
      <trkpt lat="47.29871" lon="6.93581">
        <ele>887</ele>
        <time>2021-08-12T10:29:55Z</time>
      </trkpt>
      <trkpt lat="47.29873" lon="6.93582">
        <ele>887.1</ele>
        <time>2021-08-12T10:29:56Z</time>
      </trkpt>
      <trkpt lat="47.29876" lon="6.93583">
        <ele>887.3</ele>
        <time>2021-08-12T10:29:58Z</time>
      </trkpt>
      <trkpt lat="47.29878" lon="6.93583">
        <ele>887.5</ele>
        <time>2021-08-12T10:29:59Z</time>
      </trkpt>
      <trkpt lat="47.29879" lon="6.93583">
        <ele>887.6</ele>
        <time>2021-08-12T10:30:00Z</time>
      </trkpt>
      <trkpt lat="47.29882" lon="6.93584">
        <ele>887.8</ele>
        <time>2021-08-12T10:30:02Z</time>
      </trkpt>
      <trkpt lat="47.29884" lon="6.93584">
        <ele>887.9</ele>
        <time>2021-08-12T10:30:03Z</time>
      </trkpt>
      <trkpt lat="47.29886" lon="6.93584">
        <ele>888</ele>
        <time>2021-08-12T10:30:04Z</time>
      </trkpt>
      <trkpt lat="47.29889" lon="6.93586">
        <ele>888.3</ele>
        <time>2021-08-12T10:30:05Z</time>
      </trkpt>
      <trkpt lat="47.29892" lon="6.93588">
        <ele>888.5</ele>
        <time>2021-08-12T10:30:06Z</time>
      </trkpt>
      <trkpt lat="47.29894" lon="6.9359">
        <ele>888.7</ele>
        <time>2021-08-12T10:30:08Z</time>
      </trkpt>
      <trkpt lat="47.29897" lon="6.93593">
        <ele>889</ele>
        <time>2021-08-12T10:30:09Z</time>
      </trkpt>
      <trkpt lat="47.29899" lon="6.93595">
        <ele>889.2</ele>
        <time>2021-08-12T10:30:11Z</time>
      </trkpt>
      <trkpt lat="47.29902" lon="6.93597">
        <ele>889.4</ele>
        <time>2021-08-12T10:30:12Z</time>
      </trkpt>
      <trkpt lat="47.29904" lon="6.93599">
        <ele>889.6</ele>
        <time>2021-08-12T10:30:14Z</time>
      </trkpt>
      <trkpt lat="47.29907" lon="6.93601">
        <ele>889.8</ele>
        <time>2021-08-12T10:30:15Z</time>
      </trkpt>
      <trkpt lat="47.29909" lon="6.93603">
        <ele>890.1</ele>
        <time>2021-08-12T10:30:39Z</time>
      </trkpt>
      <trkpt lat="47.29912" lon="6.93605">
        <ele>890.3</ele>
        <time>2021-08-12T10:30:40Z</time>
      </trkpt>
      <trkpt lat="47.29914" lon="6.93607">
        <ele>890.5</ele>
        <time>2021-08-12T10:30:41Z</time>
      </trkpt>
      <trkpt lat="47.29917" lon="6.93609">
        <ele>890.8</ele>
        <time>2021-08-12T10:30:42Z</time>
      </trkpt>
      <trkpt lat="47.29919" lon="6.9361">
        <ele>890.9</ele>
        <time>2021-08-12T10:30:44Z</time>
      </trkpt>
      <trkpt lat="47.2992" lon="6.9361">
        <ele>891</ele>
        <time>2021-08-12T10:30:45Z</time>
      </trkpt>
      <trkpt lat="47.29921" lon="6.9361">
        <ele>891.1</ele>
        <time>2021-08-12T10:30:46Z</time>
      </trkpt>
      <trkpt lat="47.29922" lon="6.93611">
        <ele>891.2</ele>
        <time>2021-08-12T10:30:47Z</time>
      </trkpt>
      <trkpt lat="47.29924" lon="6.93613">
        <ele>891.3</ele>
        <time>2021-08-12T10:30:49Z</time>
      </trkpt>
      <trkpt lat="47.29925" lon="6.93613">
        <ele>891.4</ele>
        <time>2021-08-12T10:30:50Z</time>
      </trkpt>
      <trkpt lat="47.29927" lon="6.93615">
        <ele>891.6</ele>
        <time>2021-08-12T10:30:51Z</time>
      </trkpt>
      <trkpt lat="47.29928" lon="6.93616">
        <ele>891.7</ele>
        <time>2021-08-12T10:30:53Z</time>
      </trkpt>
      <trkpt lat="47.29929" lon="6.93616">
        <ele>891.7</ele>
        <time>2021-08-12T10:30:54Z</time>
      </trkpt>
      <trkpt lat="47.29929" lon="6.93616">
        <ele>891.8</ele>
        <time>2021-08-12T10:30:56Z</time>
      </trkpt>
      <trkpt lat="47.29929" lon="6.93617">
        <ele>891.8</ele>
        <time>2021-08-12T10:30:57Z</time>
      </trkpt>
      <trkpt lat="47.2993" lon="6.93617">
        <ele>891.8</ele>
        <time>2021-08-12T10:30:58Z</time>
      </trkpt>
      <trkpt lat="47.2993" lon="6.93617">
        <ele>891.8</ele>
        <time>2021-08-12T10:30:59Z</time>
      </trkpt>
      <trkpt lat="47.2993" lon="6.93617">
        <ele>891.9</ele>
        <time>2021-08-12T10:31:00Z</time>
      </trkpt>
      <trkpt lat="47.29931" lon="6.93618">
        <ele>891.9</ele>
        <time>2021-08-12T10:31:01Z</time>
      </trkpt>
      <trkpt lat="47.29973" lon="6.93651">
        <ele>894.5</ele>
        <time>2021-08-12T10:32:30Z</time>
      </trkpt>
      <trkpt lat="47.29977" lon="6.93655">
        <ele>894.5</ele>
        <time>2021-08-12T10:32:32Z</time>
      </trkpt>
      <trkpt lat="47.29981" lon="6.9366">
        <ele>894.4</ele>
        <time>2021-08-12T10:32:33Z</time>
      </trkpt>
      <trkpt lat="47.29985" lon="6.93668">
        <ele>894.2</ele>
        <time>2021-08-12T10:32:35Z</time>
      </trkpt>
      <trkpt lat="47.29987" lon="6.93673">
        <ele>894.2</ele>
        <time>2021-08-12T10:32:36Z</time>
      </trkpt>
      <trkpt lat="47.29988" lon="6.9368">
        <ele>894</ele>
        <time>2021-08-12T10:32:38Z</time>
      </trkpt>
      <trkpt lat="47.2999" lon="6.93684">
        <ele>894</ele>
        <time>2021-08-12T10:32:39Z</time>
      </trkpt>
      <trkpt lat="47.29992" lon="6.93689">
        <ele>893.9</ele>
        <time>2021-08-12T10:32:41Z</time>
      </trkpt>
      <trkpt lat="47.29994" lon="6.93693">
        <ele>893.8</ele>
        <time>2021-08-12T10:32:42Z</time>
      </trkpt>
      <trkpt lat="47.29996" lon="6.93697">
        <ele>893.8</ele>
        <time>2021-08-12T10:32:43Z</time>
      </trkpt>
      <trkpt lat="47.29996" lon="6.93698">
        <ele>893.8</ele>
        <time>2021-08-12T10:32:44Z</time>
      </trkpt>
      <trkpt lat="47.29998" lon="6.93703">
        <ele>893.7</ele>
        <time>2021-08-12T10:32:46Z</time>
      </trkpt>
      <trkpt lat="47.29999" lon="6.93707">
        <ele>893.6</ele>
        <time>2021-08-12T10:32:47Z</time>
      </trkpt>
      <trkpt lat="47.3" lon="6.93712">
        <ele>893.5</ele>
        <time>2021-08-12T10:32:49Z</time>
      </trkpt>
      <trkpt lat="47.30002" lon="6.93716">
        <ele>893.5</ele>
        <time>2021-08-12T10:32:50Z</time>
      </trkpt>
      <trkpt lat="47.30004" lon="6.93723">
        <ele>893.3</ele>
        <time>2021-08-12T10:32:52Z</time>
      </trkpt>
      <trkpt lat="47.30006" lon="6.93728">
        <ele>893.2</ele>
        <time>2021-08-12T10:32:53Z</time>
      </trkpt>
      <trkpt lat="47.30008" lon="6.93732">
        <ele>893.1</ele>
        <time>2021-08-12T10:32:54Z</time>
      </trkpt>
      <trkpt lat="47.3001" lon="6.93738">
        <ele>893</ele>
        <time>2021-08-12T10:32:55Z</time>
      </trkpt>
      <trkpt lat="47.30014" lon="6.93744">
        <ele>892.8</ele>
        <time>2021-08-12T10:32:57Z</time>
      </trkpt>
      <trkpt lat="47.30017" lon="6.93749">
        <ele>892.6</ele>
        <time>2021-08-12T10:32:58Z</time>
      </trkpt>
      <trkpt lat="47.30021" lon="6.93758">
        <ele>892.4</ele>
        <time>2021-08-12T10:33:00Z</time>
      </trkpt>
      <trkpt lat="47.30024" lon="6.93764">
        <ele>892.2</ele>
        <time>2021-08-12T10:33:01Z</time>
      </trkpt>
      <trkpt lat="47.30026" lon="6.93769">
        <ele>892</ele>
        <time>2021-08-12T10:33:02Z</time>
      </trkpt>
      <trkpt lat="47.30031" lon="6.93778">
        <ele>891.7</ele>
        <time>2021-08-12T10:33:04Z</time>
      </trkpt>
      <trkpt lat="47.30035" lon="6.93787">
        <ele>891.5</ele>
        <time>2021-08-12T10:33:05Z</time>
      </trkpt>
      <trkpt lat="47.30038" lon="6.93793">
        <ele>891.3</ele>
        <time>2021-08-12T10:33:06Z</time>
      </trkpt>
      <trkpt lat="47.30044" lon="6.93805">
        <ele>890.9</ele>
        <time>2021-08-12T10:33:08Z</time>
      </trkpt>
      <trkpt lat="47.30051" lon="6.93817">
        <ele>890.5</ele>
        <time>2021-08-12T10:33:10Z</time>
      </trkpt>
      <trkpt lat="47.30057" lon="6.93829">
        <ele>890.1</ele>
        <time>2021-08-12T10:33:12Z</time>
      </trkpt>
      <trkpt lat="47.30063" lon="6.93841">
        <ele>889.7</ele>
        <time>2021-08-12T10:33:14Z</time>
      </trkpt>
      <trkpt lat="47.30068" lon="6.93853">
        <ele>889.3</ele>
        <time>2021-08-12T10:33:16Z</time>
      </trkpt>
      <trkpt lat="47.30075" lon="6.93866">
        <ele>888.8</ele>
        <time>2021-08-12T10:33:18Z</time>
      </trkpt>
      <trkpt lat="47.30081" lon="6.93879">
        <ele>888.3</ele>
        <time>2021-08-12T10:33:20Z</time>
      </trkpt>
      <trkpt lat="47.30087" lon="6.93893">
        <ele>887.8</ele>
        <time>2021-08-12T10:33:22Z</time>
      </trkpt>
      <trkpt lat="47.30089" lon="6.939">
        <ele>887.6</ele>
        <time>2021-08-12T10:33:23Z</time>
      </trkpt>
      <trkpt lat="47.30092" lon="6.93906">
        <ele>887.4</ele>
        <time>2021-08-12T10:33:24Z</time>
      </trkpt>
      <trkpt lat="47.30098" lon="6.93918">
        <ele>887</ele>
        <time>2021-08-12T10:33:26Z</time>
      </trkpt>
      <trkpt lat="47.30104" lon="6.9393">
        <ele>886.6</ele>
        <time>2021-08-12T10:33:28Z</time>
      </trkpt>
      <trkpt lat="47.30107" lon="6.93936">
        <ele>886.4</ele>
        <time>2021-08-12T10:33:29Z</time>
      </trkpt>
      <trkpt lat="47.30109" lon="6.93942">
        <ele>886.3</ele>
        <time>2021-08-12T10:33:30Z</time>
      </trkpt>
      <trkpt lat="47.30112" lon="6.93947">
        <ele>886.1</ele>
        <time>2021-08-12T10:33:31Z</time>
      </trkpt>
      <trkpt lat="47.30116" lon="6.93953">
        <ele>885.9</ele>
        <time>2021-08-12T10:33:32Z</time>
      </trkpt>
      <trkpt lat="47.30123" lon="6.93963">
        <ele>885.5</ele>
        <time>2021-08-12T10:33:34Z</time>
      </trkpt>
      <trkpt lat="47.3013" lon="6.93972">
        <ele>885.2</ele>
        <time>2021-08-12T10:33:36Z</time>
      </trkpt>
      <trkpt lat="47.30139" lon="6.9398">
        <ele>884.8</ele>
        <time>2021-08-12T10:33:38Z</time>
      </trkpt>
      <trkpt lat="47.30147" lon="6.93986">
        <ele>884.5</ele>
        <time>2021-08-12T10:33:40Z</time>
      </trkpt>
      <trkpt lat="47.30154" lon="6.9399">
        <ele>884.2</ele>
        <time>2021-08-12T10:33:42Z</time>
      </trkpt>
      <trkpt lat="47.30162" lon="6.93996">
        <ele>883.8</ele>
        <time>2021-08-12T10:33:44Z</time>
      </trkpt>
      <trkpt lat="47.3017" lon="6.94">
        <ele>883.3</ele>
        <time>2021-08-12T10:33:46Z</time>
      </trkpt>
      <trkpt lat="47.30181" lon="6.94003">
        <ele>882.7</ele>
        <time>2021-08-12T10:33:48Z</time>
      </trkpt>
      <trkpt lat="47.3019" lon="6.94007">
        <ele>882.1</ele>
        <time>2021-08-12T10:33:50Z</time>
      </trkpt>
      <trkpt lat="47.30199" lon="6.9401">
        <ele>881.5</ele>
        <time>2021-08-12T10:33:52Z</time>
      </trkpt>
      <trkpt lat="47.30209" lon="6.94009">
        <ele>880.8</ele>
        <time>2021-08-12T10:33:54Z</time>
      </trkpt>
      <trkpt lat="47.30214" lon="6.94015">
        <ele>880.5</ele>
        <time>2021-08-12T10:33:55Z</time>
      </trkpt>
      <trkpt lat="47.30219" lon="6.94021">
        <ele>880.1</ele>
        <time>2021-08-12T10:33:57Z</time>
      </trkpt>
      <trkpt lat="47.30226" lon="6.94024">
        <ele>879.7</ele>
        <time>2021-08-12T10:33:58Z</time>
      </trkpt>
      <trkpt lat="47.30229" lon="6.94022">
        <ele>879.5</ele>
        <time>2021-08-12T10:33:59Z</time>
      </trkpt>
      <trkpt lat="47.30237" lon="6.94031">
        <ele>879</ele>
        <time>2021-08-12T10:34:01Z</time>
      </trkpt>
      <trkpt lat="47.30241" lon="6.94037">
        <ele>878.6</ele>
        <time>2021-08-12T10:34:02Z</time>
      </trkpt>
      <trkpt lat="47.30248" lon="6.94044">
        <ele>878.2</ele>
        <time>2021-08-12T10:34:04Z</time>
      </trkpt>
      <trkpt lat="47.30253" lon="6.94049">
        <ele>877.9</ele>
        <time>2021-08-12T10:34:05Z</time>
      </trkpt>
      <trkpt lat="47.30259" lon="6.94053">
        <ele>877.5</ele>
        <time>2021-08-12T10:34:07Z</time>
      </trkpt>
      <trkpt lat="47.30264" lon="6.94057">
        <ele>877.3</ele>
        <time>2021-08-12T10:34:08Z</time>
      </trkpt>
      <trkpt lat="47.3027" lon="6.94062">
        <ele>876.9</ele>
        <time>2021-08-12T10:34:09Z</time>
      </trkpt>
      <trkpt lat="47.30275" lon="6.94066">
        <ele>876.7</ele>
        <time>2021-08-12T10:34:11Z</time>
      </trkpt>
      <trkpt lat="47.30282" lon="6.94073">
        <ele>876.3</ele>
        <time>2021-08-12T10:34:12Z</time>
      </trkpt>
      <trkpt lat="47.30288" lon="6.94077">
        <ele>875.9</ele>
        <time>2021-08-12T10:34:14Z</time>
      </trkpt>
      <trkpt lat="47.30294" lon="6.94081">
        <ele>875.5</ele>
        <time>2021-08-12T10:34:15Z</time>
      </trkpt>
      <trkpt lat="47.30298" lon="6.94086">
        <ele>875.2</ele>
        <time>2021-08-12T10:34:16Z</time>
      </trkpt>
      <trkpt lat="47.30302" lon="6.94091">
        <ele>874.9</ele>
        <time>2021-08-12T10:34:17Z</time>
      </trkpt>
      <trkpt lat="47.30306" lon="6.94097">
        <ele>874.5</ele>
        <time>2021-08-12T10:34:19Z</time>
      </trkpt>
      <trkpt lat="47.30312" lon="6.94106">
        <ele>874</ele>
        <time>2021-08-12T10:34:20Z</time>
      </trkpt>
      <trkpt lat="47.30319" lon="6.94117">
        <ele>873.3</ele>
        <time>2021-08-12T10:34:22Z</time>
      </trkpt>
      <trkpt lat="47.30327" lon="6.94129">
        <ele>872.7</ele>
        <time>2021-08-12T10:34:24Z</time>
      </trkpt>
      <trkpt lat="47.30335" lon="6.94141">
        <ele>872.1</ele>
        <time>2021-08-12T10:34:26Z</time>
      </trkpt>
      <trkpt lat="47.30344" lon="6.94153">
        <ele>871.6</ele>
        <time>2021-08-12T10:34:28Z</time>
      </trkpt>
      <trkpt lat="47.30347" lon="6.94159">
        <ele>871.3</ele>
        <time>2021-08-12T10:34:29Z</time>
      </trkpt>
      <trkpt lat="47.30354" lon="6.9417">
        <ele>871.1</ele>
        <time>2021-08-12T10:34:31Z</time>
      </trkpt>
      <trkpt lat="47.30357" lon="6.94174">
        <ele>871.1</ele>
        <time>2021-08-12T10:34:32Z</time>
      </trkpt>
      <trkpt lat="47.30363" lon="6.94184">
        <ele>870.9</ele>
        <time>2021-08-12T10:34:34Z</time>
      </trkpt>
      <trkpt lat="47.30364" lon="6.94189">
        <ele>870.8</ele>
        <time>2021-08-12T10:34:35Z</time>
      </trkpt>
      <trkpt lat="47.30364" lon="6.94195">
        <ele>870.7</ele>
        <time>2021-08-12T10:34:36Z</time>
      </trkpt>
      <trkpt lat="47.30363" lon="6.94199">
        <ele>870.6</ele>
        <time>2021-08-12T10:34:37Z</time>
      </trkpt>
      <trkpt lat="47.30364" lon="6.94201">
        <ele>870.6</ele>
        <time>2021-08-12T10:34:38Z</time>
      </trkpt>
      <trkpt lat="47.30364" lon="6.94203">
        <ele>870.6</ele>
        <time>2021-08-12T10:34:40Z</time>
      </trkpt>
      <trkpt lat="47.30363" lon="6.94206">
        <ele>870.5</ele>
        <time>2021-08-12T10:34:42Z</time>
      </trkpt>
      <trkpt lat="47.30363" lon="6.94207">
        <ele>870.5</ele>
        <time>2021-08-12T10:34:44Z</time>
      </trkpt>
      <trkpt lat="47.30363" lon="6.94207">
        <ele>870.5</ele>
        <time>2021-08-12T10:34:45Z</time>
      </trkpt>
      <trkpt lat="47.30363" lon="6.94208">
        <ele>870.5</ele>
        <time>2021-08-12T10:34:47Z</time>
      </trkpt>
      <trkpt lat="47.30363" lon="6.94208">
        <ele>870.5</ele>
        <time>2021-08-12T10:34:48Z</time>
      </trkpt>
      <trkpt lat="47.30356" lon="6.94221">
        <ele>870.2</ele>
        <time>2021-08-12T10:35:45Z</time>
      </trkpt>
      <trkpt lat="47.30354" lon="6.94229">
        <ele>870.1</ele>
        <time>2021-08-12T10:35:47Z</time>
      </trkpt>
      <trkpt lat="47.30353" lon="6.94232">
        <ele>870.1</ele>
        <time>2021-08-12T10:35:48Z</time>
      </trkpt>
      <trkpt lat="47.30352" lon="6.94238">
        <ele>870</ele>
        <time>2021-08-12T10:35:50Z</time>
      </trkpt>
      <trkpt lat="47.30352" lon="6.94244">
        <ele>870</ele>
        <time>2021-08-12T10:35:51Z</time>
      </trkpt>
      <trkpt lat="47.30351" lon="6.94249">
        <ele>870</ele>
        <time>2021-08-12T10:35:52Z</time>
      </trkpt>
      <trkpt lat="47.30351" lon="6.94256">
        <ele>869.9</ele>
        <time>2021-08-12T10:35:54Z</time>
      </trkpt>
      <trkpt lat="47.30352" lon="6.9426">
        <ele>869.9</ele>
        <time>2021-08-12T10:35:55Z</time>
      </trkpt>
      <trkpt lat="47.30352" lon="6.94264">
        <ele>869.9</ele>
        <time>2021-08-12T10:35:56Z</time>
      </trkpt>
      <trkpt lat="47.30352" lon="6.94268">
        <ele>869.9</ele>
        <time>2021-08-12T10:35:58Z</time>
      </trkpt>
      <trkpt lat="47.30352" lon="6.94272">
        <ele>869.9</ele>
        <time>2021-08-12T10:35:59Z</time>
      </trkpt>
      <trkpt lat="47.30352" lon="6.94279">
        <ele>869.8</ele>
        <time>2021-08-12T10:36:01Z</time>
      </trkpt>
      <trkpt lat="47.30355" lon="6.94284">
        <ele>869.8</ele>
        <time>2021-08-12T10:36:02Z</time>
      </trkpt>
      <trkpt lat="47.30355" lon="6.94288">
        <ele>869.7</ele>
        <time>2021-08-12T10:36:04Z</time>
      </trkpt>
      <trkpt lat="47.30355" lon="6.9429">
        <ele>869.7</ele>
        <time>2021-08-12T10:36:05Z</time>
      </trkpt>
      <trkpt lat="47.30356" lon="6.94291">
        <ele>869.7</ele>
        <time>2021-08-12T10:36:07Z</time>
      </trkpt>
      <trkpt lat="47.30354" lon="6.94289">
        <ele>869.7</ele>
        <time>2021-08-12T10:36:09Z</time>
      </trkpt>
      <trkpt lat="47.30353" lon="6.94289">
        <ele>869.7</ele>
        <time>2021-08-12T10:36:10Z</time>
      </trkpt>
      <trkpt lat="47.30353" lon="6.94289">
        <ele>869.7</ele>
        <time>2021-08-12T10:36:11Z</time>
      </trkpt>
      <trkpt lat="47.30353" lon="6.94289">
        <ele>869.7</ele>
        <time>2021-08-12T10:36:12Z</time>
      </trkpt>
      <trkpt lat="47.30354" lon="6.9429">
        <ele>869.7</ele>
        <time>2021-08-12T10:36:14Z</time>
      </trkpt>
      <trkpt lat="47.30354" lon="6.94292">
        <ele>869.6</ele>
        <time>2021-08-12T10:36:15Z</time>
      </trkpt>
      <trkpt lat="47.30354" lon="6.943">
        <ele>869.6</ele>
        <time>2021-08-12T10:36:18Z</time>
      </trkpt>
      <trkpt lat="47.30353" lon="6.94307">
        <ele>869.5</ele>
        <time>2021-08-12T10:36:19Z</time>
      </trkpt>
      <trkpt lat="47.30353" lon="6.94318">
        <ele>869.4</ele>
        <time>2021-08-12T10:36:21Z</time>
      </trkpt>
      <trkpt lat="47.30353" lon="6.94324">
        <ele>869.3</ele>
        <time>2021-08-12T10:36:22Z</time>
      </trkpt>
      <trkpt lat="47.30354" lon="6.94338">
        <ele>869.3</ele>
        <time>2021-08-12T10:36:24Z</time>
      </trkpt>
      <trkpt lat="47.30353" lon="6.94346">
        <ele>869.2</ele>
        <time>2021-08-12T10:36:25Z</time>
      </trkpt>
      <trkpt lat="47.30352" lon="6.94352">
        <ele>869.2</ele>
        <time>2021-08-12T10:36:26Z</time>
      </trkpt>
      <trkpt lat="47.3035" lon="6.94359">
        <ele>869.1</ele>
        <time>2021-08-12T10:36:27Z</time>
      </trkpt>
      <trkpt lat="47.30346" lon="6.94366">
        <ele>869.1</ele>
        <time>2021-08-12T10:36:29Z</time>
      </trkpt>
      <trkpt lat="47.30345" lon="6.9437">
        <ele>869.1</ele>
        <time>2021-08-12T10:36:31Z</time>
      </trkpt>
      <trkpt lat="47.30345" lon="6.94372">
        <ele>869.1</ele>
        <time>2021-08-12T10:36:32Z</time>
      </trkpt>
      <trkpt lat="47.30344" lon="6.94376">
        <ele>869.1</ele>
        <time>2021-08-12T10:36:34Z</time>
      </trkpt>
      <trkpt lat="47.30344" lon="6.94378">
        <ele>869.1</ele>
        <time>2021-08-12T10:36:35Z</time>
      </trkpt>
      <trkpt lat="47.30341" lon="6.94382">
        <ele>869.1</ele>
        <time>2021-08-12T10:36:36Z</time>
      </trkpt>
      <trkpt lat="47.30339" lon="6.94385">
        <ele>869.2</ele>
        <time>2021-08-12T10:36:38Z</time>
      </trkpt>
      <trkpt lat="47.30336" lon="6.94388">
        <ele>869.2</ele>
        <time>2021-08-12T10:36:39Z</time>
      </trkpt>
      <trkpt lat="47.30334" lon="6.94391">
        <ele>869.2</ele>
        <time>2021-08-12T10:36:40Z</time>
      </trkpt>
      <trkpt lat="47.30332" lon="6.94395">
        <ele>869.2</ele>
        <time>2021-08-12T10:36:41Z</time>
      </trkpt>
      <trkpt lat="47.3033" lon="6.94399">
        <ele>869.2</ele>
        <time>2021-08-12T10:36:42Z</time>
      </trkpt>
      <trkpt lat="47.30328" lon="6.94404">
        <ele>869.2</ele>
        <time>2021-08-12T10:36:43Z</time>
      </trkpt>
      <trkpt lat="47.30327" lon="6.94408">
        <ele>869.2</ele>
        <time>2021-08-12T10:36:45Z</time>
      </trkpt>
      <trkpt lat="47.30324" lon="6.94412">
        <ele>869.2</ele>
        <time>2021-08-12T10:36:46Z</time>
      </trkpt>
      <trkpt lat="47.30321" lon="6.94417">
        <ele>869.1</ele>
        <time>2021-08-12T10:36:47Z</time>
      </trkpt>
      <trkpt lat="47.30319" lon="6.94421">
        <ele>869.1</ele>
        <time>2021-08-12T10:36:48Z</time>
      </trkpt>
      <trkpt lat="47.30314" lon="6.94429">
        <ele>869</ele>
        <time>2021-08-12T10:36:50Z</time>
      </trkpt>
      <trkpt lat="47.3031" lon="6.94437">
        <ele>868.8</ele>
        <time>2021-08-12T10:36:52Z</time>
      </trkpt>
      <trkpt lat="47.30307" lon="6.9444">
        <ele>868.7</ele>
        <time>2021-08-12T10:36:53Z</time>
      </trkpt>
      <trkpt lat="47.30304" lon="6.94442">
        <ele>868.6</ele>
        <time>2021-08-12T10:36:54Z</time>
      </trkpt>
      <trkpt lat="47.30301" lon="6.94448">
        <ele>868.3</ele>
        <time>2021-08-12T10:36:55Z</time>
      </trkpt>
      <trkpt lat="47.30298" lon="6.94454">
        <ele>868</ele>
        <time>2021-08-12T10:36:57Z</time>
      </trkpt>
      <trkpt lat="47.30294" lon="6.94458">
        <ele>867.7</ele>
        <time>2021-08-12T10:36:58Z</time>
      </trkpt>
      <trkpt lat="47.30287" lon="6.94465">
        <ele>867.1</ele>
        <time>2021-08-12T10:36:59Z</time>
      </trkpt>
      <trkpt lat="47.30283" lon="6.9447">
        <ele>866.8</ele>
        <time>2021-08-12T10:37:00Z</time>
      </trkpt>
      <trkpt lat="47.30273" lon="6.94479">
        <ele>866.2</ele>
        <time>2021-08-12T10:37:02Z</time>
      </trkpt>
      <trkpt lat="47.30264" lon="6.94489">
        <ele>865.7</ele>
        <time>2021-08-12T10:37:04Z</time>
      </trkpt>
      <trkpt lat="47.30256" lon="6.94497">
        <ele>865.3</ele>
        <time>2021-08-12T10:37:06Z</time>
      </trkpt>
      <trkpt lat="47.30248" lon="6.94504">
        <ele>864.9</ele>
        <time>2021-08-12T10:37:08Z</time>
      </trkpt>
      <trkpt lat="47.30243" lon="6.94504">
        <ele>864.8</ele>
        <time>2021-08-12T10:37:10Z</time>
      </trkpt>
      <trkpt lat="47.30239" lon="6.94509">
        <ele>864.5</ele>
        <time>2021-08-12T10:37:11Z</time>
      </trkpt>
      <trkpt lat="47.30234" lon="6.94521">
        <ele>864.1</ele>
        <time>2021-08-12T10:37:12Z</time>
      </trkpt>
      <trkpt lat="47.30228" lon="6.94535">
        <ele>863.6</ele>
        <time>2021-08-12T10:37:14Z</time>
      </trkpt>
      <trkpt lat="47.30221" lon="6.94548">
        <ele>863.2</ele>
        <time>2021-08-12T10:37:16Z</time>
      </trkpt>
      <trkpt lat="47.30217" lon="6.94556">
        <ele>862.9</ele>
        <time>2021-08-12T10:37:17Z</time>
      </trkpt>
      <trkpt lat="47.30213" lon="6.94563">
        <ele>862.8</ele>
        <time>2021-08-12T10:37:18Z</time>
      </trkpt>
      <trkpt lat="47.30206" lon="6.94576">
        <ele>862.6</ele>
        <time>2021-08-12T10:37:20Z</time>
      </trkpt>
      <trkpt lat="47.30201" lon="6.94588">
        <ele>862.4</ele>
        <time>2021-08-12T10:37:22Z</time>
      </trkpt>
      <trkpt lat="47.302" lon="6.94593">
        <ele>862.3</ele>
        <time>2021-08-12T10:37:23Z</time>
      </trkpt>
      <trkpt lat="47.30199" lon="6.94597">
        <ele>862.2</ele>
        <time>2021-08-12T10:37:24Z</time>
      </trkpt>
      <trkpt lat="47.302" lon="6.94605">
        <ele>862.1</ele>
        <time>2021-08-12T10:37:26Z</time>
      </trkpt>
      <trkpt lat="47.302" lon="6.94615">
        <ele>861.9</ele>
        <time>2021-08-12T10:37:28Z</time>
      </trkpt>
      <trkpt lat="47.30201" lon="6.94619">
        <ele>861.8</ele>
        <time>2021-08-12T10:37:29Z</time>
      </trkpt>
      <trkpt lat="47.30201" lon="6.94625">
        <ele>861.7</ele>
        <time>2021-08-12T10:37:30Z</time>
      </trkpt>
      <trkpt lat="47.30196" lon="6.94627">
        <ele>861.5</ele>
        <time>2021-08-12T10:37:32Z</time>
      </trkpt>
      <trkpt lat="47.30196" lon="6.94634">
        <ele>861.3</ele>
        <time>2021-08-12T10:37:33Z</time>
      </trkpt>
      <trkpt lat="47.30195" lon="6.94641">
        <ele>861.1</ele>
        <time>2021-08-12T10:37:34Z</time>
      </trkpt>
      <trkpt lat="47.30196" lon="6.94649">
        <ele>860.8</ele>
        <time>2021-08-12T10:37:35Z</time>
      </trkpt>
      <trkpt lat="47.30196" lon="6.94657">
        <ele>860.5</ele>
        <time>2021-08-12T10:37:36Z</time>
      </trkpt>
      <trkpt lat="47.30196" lon="6.94667">
        <ele>860.1</ele>
        <time>2021-08-12T10:37:38Z</time>
      </trkpt>
      <trkpt lat="47.30196" lon="6.94677">
        <ele>859.7</ele>
        <time>2021-08-12T10:37:39Z</time>
      </trkpt>
      <trkpt lat="47.30194" lon="6.94693">
        <ele>859.1</ele>
        <time>2021-08-12T10:37:41Z</time>
      </trkpt>
      <trkpt lat="47.30193" lon="6.94702">
        <ele>858.8</ele>
        <time>2021-08-12T10:37:42Z</time>
      </trkpt>
      <trkpt lat="47.3019" lon="6.94718">
        <ele>858.4</ele>
        <time>2021-08-12T10:37:44Z</time>
      </trkpt>
      <trkpt lat="47.30191" lon="6.94734">
        <ele>858.2</ele>
        <time>2021-08-12T10:37:46Z</time>
      </trkpt>
      <trkpt lat="47.30193" lon="6.94741">
        <ele>858.1</ele>
        <time>2021-08-12T10:37:47Z</time>
      </trkpt>
      <trkpt lat="47.30195" lon="6.94749">
        <ele>858.1</ele>
        <time>2021-08-12T10:37:49Z</time>
      </trkpt>
      <trkpt lat="47.30195" lon="6.94753">
        <ele>858</ele>
        <time>2021-08-12T10:37:50Z</time>
      </trkpt>
      <trkpt lat="47.30199" lon="6.94756">
        <ele>858</ele>
        <time>2021-08-12T10:37:51Z</time>
      </trkpt>
      <trkpt lat="47.30204" lon="6.94759">
        <ele>857.9</ele>
        <time>2021-08-12T10:37:52Z</time>
      </trkpt>
      <trkpt lat="47.30209" lon="6.94763">
        <ele>857.9</ele>
        <time>2021-08-12T10:37:53Z</time>
      </trkpt>
      <trkpt lat="47.30213" lon="6.94766">
        <ele>857.9</ele>
        <time>2021-08-12T10:37:54Z</time>
      </trkpt>
      <trkpt lat="47.30217" lon="6.94766">
        <ele>857.9</ele>
        <time>2021-08-12T10:37:56Z</time>
      </trkpt>
      <trkpt lat="47.3022" lon="6.94766">
        <ele>857.9</ele>
        <time>2021-08-12T10:37:57Z</time>
      </trkpt>
      <trkpt lat="47.30224" lon="6.94767">
        <ele>857.9</ele>
        <time>2021-08-12T10:37:58Z</time>
      </trkpt>
      <trkpt lat="47.30225" lon="6.94768">
        <ele>857.9</ele>
        <time>2021-08-12T10:37:59Z</time>
      </trkpt>
      <trkpt lat="47.30228" lon="6.9477">
        <ele>857.9</ele>
        <time>2021-08-12T10:38:00Z</time>
      </trkpt>
      <trkpt lat="47.30231" lon="6.94774">
        <ele>857.9</ele>
        <time>2021-08-12T10:38:01Z</time>
      </trkpt>
      <trkpt lat="47.30233" lon="6.94778">
        <ele>857.8</ele>
        <time>2021-08-12T10:38:02Z</time>
      </trkpt>
      <trkpt lat="47.30238" lon="6.94785">
        <ele>857.8</ele>
        <time>2021-08-12T10:38:04Z</time>
      </trkpt>
      <trkpt lat="47.3024" lon="6.94789">
        <ele>857.8</ele>
        <time>2021-08-12T10:38:05Z</time>
      </trkpt>
      <trkpt lat="47.30244" lon="6.94798">
        <ele>857.6</ele>
        <time>2021-08-12T10:38:07Z</time>
      </trkpt>
      <trkpt lat="47.30247" lon="6.94804">
        <ele>857.6</ele>
        <time>2021-08-12T10:38:08Z</time>
      </trkpt>
      <trkpt lat="47.30254" lon="6.94818">
        <ele>857.4</ele>
        <time>2021-08-12T10:38:10Z</time>
      </trkpt>
      <trkpt lat="47.30259" lon="6.9483">
        <ele>857.2</ele>
        <time>2021-08-12T10:38:12Z</time>
      </trkpt>
      <trkpt lat="47.30262" lon="6.94833">
        <ele>857.1</ele>
        <time>2021-08-12T10:38:13Z</time>
      </trkpt>
      <trkpt lat="47.30264" lon="6.94838">
        <ele>857</ele>
        <time>2021-08-12T10:38:14Z</time>
      </trkpt>
      <trkpt lat="47.30268" lon="6.94844">
        <ele>856.8</ele>
        <time>2021-08-12T10:38:15Z</time>
      </trkpt>
      <trkpt lat="47.30273" lon="6.94848">
        <ele>856.7</ele>
        <time>2021-08-12T10:38:17Z</time>
      </trkpt>
      <trkpt lat="47.30277" lon="6.94851">
        <ele>856.5</ele>
        <time>2021-08-12T10:38:18Z</time>
      </trkpt>
      <trkpt lat="47.3028" lon="6.94855">
        <ele>856.4</ele>
        <time>2021-08-12T10:38:19Z</time>
      </trkpt>
      <trkpt lat="47.30284" lon="6.94864">
        <ele>856.1</ele>
        <time>2021-08-12T10:38:20Z</time>
      </trkpt>
      <trkpt lat="47.30286" lon="6.9487">
        <ele>856</ele>
        <time>2021-08-12T10:38:21Z</time>
      </trkpt>
      <trkpt lat="47.30286" lon="6.9489">
        <ele>855.5</ele>
        <time>2021-08-12T10:38:23Z</time>
      </trkpt>
      <trkpt lat="47.3029" lon="6.94908">
        <ele>855.1</ele>
        <time>2021-08-12T10:38:25Z</time>
      </trkpt>
      <trkpt lat="47.30292" lon="6.94916">
        <ele>854.8</ele>
        <time>2021-08-12T10:38:26Z</time>
      </trkpt>
      <trkpt lat="47.30296" lon="6.94931">
        <ele>854.4</ele>
        <time>2021-08-12T10:38:28Z</time>
      </trkpt>
      <trkpt lat="47.30298" lon="6.94938">
        <ele>854.3</ele>
        <time>2021-08-12T10:38:29Z</time>
      </trkpt>
      <trkpt lat="47.303" lon="6.94944">
        <ele>854.1</ele>
        <time>2021-08-12T10:38:30Z</time>
      </trkpt>
      <trkpt lat="47.30305" lon="6.9496">
        <ele>853.6</ele>
        <time>2021-08-12T10:38:32Z</time>
      </trkpt>
      <trkpt lat="47.30309" lon="6.94979">
        <ele>853.1</ele>
        <time>2021-08-12T10:38:34Z</time>
      </trkpt>
      <trkpt lat="47.30313" lon="6.94998">
        <ele>852.6</ele>
        <time>2021-08-12T10:38:36Z</time>
      </trkpt>
      <trkpt lat="47.3032" lon="6.95014">
        <ele>852.1</ele>
        <time>2021-08-12T10:38:38Z</time>
      </trkpt>
      <trkpt lat="47.30327" lon="6.9503">
        <ele>851.6</ele>
        <time>2021-08-12T10:38:40Z</time>
      </trkpt>
      <trkpt lat="47.30331" lon="6.95037">
        <ele>851.3</ele>
        <time>2021-08-12T10:38:41Z</time>
      </trkpt>
      <trkpt lat="47.30335" lon="6.95044">
        <ele>851.1</ele>
        <time>2021-08-12T10:38:42Z</time>
      </trkpt>
      <trkpt lat="47.30339" lon="6.95052">
        <ele>850.8</ele>
        <time>2021-08-12T10:38:43Z</time>
      </trkpt>
      <trkpt lat="47.30343" lon="6.9506">
        <ele>850.5</ele>
        <time>2021-08-12T10:38:44Z</time>
      </trkpt>
      <trkpt lat="47.3035" lon="6.95078">
        <ele>849.9</ele>
        <time>2021-08-12T10:38:46Z</time>
      </trkpt>
      <trkpt lat="47.30356" lon="6.95093">
        <ele>849.5</ele>
        <time>2021-08-12T10:38:48Z</time>
      </trkpt>
      <trkpt lat="47.30362" lon="6.95108">
        <ele>849</ele>
        <time>2021-08-12T10:38:50Z</time>
      </trkpt>
      <trkpt lat="47.30368" lon="6.95126">
        <ele>848.4</ele>
        <time>2021-08-12T10:38:52Z</time>
      </trkpt>
      <trkpt lat="47.30371" lon="6.95136">
        <ele>848.1</ele>
        <time>2021-08-12T10:38:53Z</time>
      </trkpt>
      <trkpt lat="47.30374" lon="6.95146">
        <ele>847.8</ele>
        <time>2021-08-12T10:38:54Z</time>
      </trkpt>
      <trkpt lat="47.30379" lon="6.95165">
        <ele>847.3</ele>
        <time>2021-08-12T10:38:56Z</time>
      </trkpt>
      <trkpt lat="47.30384" lon="6.95181">
        <ele>846.9</ele>
        <time>2021-08-12T10:38:58Z</time>
      </trkpt>
      <trkpt lat="47.30387" lon="6.95186">
        <ele>846.8</ele>
        <time>2021-08-12T10:38:59Z</time>
      </trkpt>
      <trkpt lat="47.30391" lon="6.95192">
        <ele>846.6</ele>
        <time>2021-08-12T10:39:01Z</time>
      </trkpt>
      <trkpt lat="47.30398" lon="6.95197">
        <ele>846</ele>
        <time>2021-08-12T10:39:03Z</time>
      </trkpt>
      <trkpt lat="47.30406" lon="6.952">
        <ele>845.8</ele>
        <time>2021-08-12T10:39:05Z</time>
      </trkpt>
      <trkpt lat="47.30415" lon="6.95203">
        <ele>845.4</ele>
        <time>2021-08-12T10:39:07Z</time>
      </trkpt>
      <trkpt lat="47.30419" lon="6.95204">
        <ele>845.3</ele>
        <time>2021-08-12T10:39:08Z</time>
      </trkpt>
      <trkpt lat="47.30421" lon="6.95198">
        <ele>845.2</ele>
        <time>2021-08-12T10:39:09Z</time>
      </trkpt>
      <trkpt lat="47.30428" lon="6.95195">
        <ele>844.9</ele>
        <time>2021-08-12T10:39:11Z</time>
      </trkpt>
      <trkpt lat="47.30433" lon="6.95194">
        <ele>844.8</ele>
        <time>2021-08-12T10:39:12Z</time>
      </trkpt>
      <trkpt lat="47.30438" lon="6.95194">
        <ele>844.8</ele>
        <time>2021-08-12T10:39:13Z</time>
      </trkpt>
      <trkpt lat="47.30444" lon="6.95192">
        <ele>844.8</ele>
        <time>2021-08-12T10:39:14Z</time>
      </trkpt>
      <trkpt lat="47.30449" lon="6.95189">
        <ele>844.8</ele>
        <time>2021-08-12T10:39:16Z</time>
      </trkpt>
      <trkpt lat="47.30453" lon="6.95186">
        <ele>844.8</ele>
        <time>2021-08-12T10:39:17Z</time>
      </trkpt>
      <trkpt lat="47.30458" lon="6.95182">
        <ele>844.9</ele>
        <time>2021-08-12T10:39:18Z</time>
      </trkpt>
      <trkpt lat="47.30461" lon="6.95178">
        <ele>844.9</ele>
        <time>2021-08-12T10:39:19Z</time>
      </trkpt>
      <trkpt lat="47.30465" lon="6.95168">
        <ele>844.9</ele>
        <time>2021-08-12T10:39:21Z</time>
      </trkpt>
      <trkpt lat="47.30467" lon="6.95165">
        <ele>844.8</ele>
        <time>2021-08-12T10:39:22Z</time>
      </trkpt>
      <trkpt lat="47.30468" lon="6.95165">
        <ele>844.8</ele>
        <time>2021-08-12T10:39:23Z</time>
      </trkpt>
      <trkpt lat="47.30468" lon="6.95164">
        <ele>844.8</ele>
        <time>2021-08-12T10:39:24Z</time>
      </trkpt>
      <trkpt lat="47.30467" lon="6.95166">
        <ele>844.8</ele>
        <time>2021-08-12T10:39:25Z</time>
      </trkpt>
      <trkpt lat="47.30467" lon="6.95167">
        <ele>844.8</ele>
        <time>2021-08-12T10:39:26Z</time>
      </trkpt>
      <trkpt lat="47.30466" lon="6.95169">
        <ele>844.8</ele>
        <time>2021-08-12T10:39:28Z</time>
      </trkpt>
      <trkpt lat="47.30466" lon="6.9517">
        <ele>844.8</ele>
        <time>2021-08-12T10:39:29Z</time>
      </trkpt>
      <trkpt lat="47.30464" lon="6.95171">
        <ele>844.8</ele>
        <time>2021-08-12T10:39:31Z</time>
      </trkpt>
      <trkpt lat="47.30456" lon="6.95171">
        <ele>844.8</ele>
        <time>2021-08-12T10:39:33Z</time>
      </trkpt>
      <trkpt lat="47.30434" lon="6.95181">
        <ele>845</ele>
        <time>2021-08-12T10:39:38Z</time>
      </trkpt>
      <trkpt lat="47.30428" lon="6.95183">
        <ele>845.2</ele>
        <time>2021-08-12T10:39:39Z</time>
      </trkpt>
      <trkpt lat="47.30424" lon="6.95183">
        <ele>845.3</ele>
        <time>2021-08-12T10:39:40Z</time>
      </trkpt>
      <trkpt lat="47.3042" lon="6.95184">
        <ele>845.5</ele>
        <time>2021-08-12T10:39:41Z</time>
      </trkpt>
      <trkpt lat="47.30415" lon="6.95184">
        <ele>845.6</ele>
        <time>2021-08-12T10:39:42Z</time>
      </trkpt>
      <trkpt lat="47.30405" lon="6.95183">
        <ele>845.9</ele>
        <time>2021-08-12T10:39:44Z</time>
      </trkpt>
      <trkpt lat="47.30398" lon="6.95185">
        <ele>846</ele>
        <time>2021-08-12T10:39:46Z</time>
      </trkpt>
      <trkpt lat="47.30396" lon="6.9519">
        <ele>846.4</ele>
        <time>2021-08-12T10:39:47Z</time>
      </trkpt>
      <trkpt lat="47.30394" lon="6.952">
        <ele>845.9</ele>
        <time>2021-08-12T10:39:49Z</time>
      </trkpt>
      <trkpt lat="47.30395" lon="6.95205">
        <ele>845.6</ele>
        <time>2021-08-12T10:39:50Z</time>
      </trkpt>
      <trkpt lat="47.30399" lon="6.95217">
        <ele>844.9</ele>
        <time>2021-08-12T10:39:52Z</time>
      </trkpt>
      <trkpt lat="47.30401" lon="6.95222">
        <ele>844.6</ele>
        <time>2021-08-12T10:39:53Z</time>
      </trkpt>
      <trkpt lat="47.30406" lon="6.95234">
        <ele>843.9</ele>
        <time>2021-08-12T10:39:55Z</time>
      </trkpt>
      <trkpt lat="47.30408" lon="6.95241">
        <ele>843.4</ele>
        <time>2021-08-12T10:39:56Z</time>
      </trkpt>
      <trkpt lat="47.30414" lon="6.95256">
        <ele>842.6</ele>
        <time>2021-08-12T10:39:58Z</time>
      </trkpt>
      <trkpt lat="47.30416" lon="6.95262">
        <ele>842.2</ele>
        <time>2021-08-12T10:39:59Z</time>
      </trkpt>
      <trkpt lat="47.30421" lon="6.95272">
        <ele>841.6</ele>
        <time>2021-08-12T10:40:01Z</time>
      </trkpt>
      <trkpt lat="47.30424" lon="6.95276">
        <ele>841.3</ele>
        <time>2021-08-12T10:40:02Z</time>
      </trkpt>
      <trkpt lat="47.30428" lon="6.9528">
        <ele>840.8</ele>
        <time>2021-08-12T10:40:03Z</time>
      </trkpt>
      <trkpt lat="47.30437" lon="6.95289">
        <ele>839.9</ele>
        <time>2021-08-12T10:40:05Z</time>
      </trkpt>
      <trkpt lat="47.30441" lon="6.95292">
        <ele>839.5</ele>
        <time>2021-08-12T10:40:06Z</time>
      </trkpt>
      <trkpt lat="47.3045" lon="6.95299">
        <ele>838.6</ele>
        <time>2021-08-12T10:40:08Z</time>
      </trkpt>
      <trkpt lat="47.30461" lon="6.95307">
        <ele>837.4</ele>
        <time>2021-08-12T10:40:10Z</time>
      </trkpt>
      <trkpt lat="47.30466" lon="6.95311">
        <ele>836.8</ele>
        <time>2021-08-12T10:40:11Z</time>
      </trkpt>
      <trkpt lat="47.3047" lon="6.95315">
        <ele>836.2</ele>
        <time>2021-08-12T10:40:12Z</time>
      </trkpt>
      <trkpt lat="47.30481" lon="6.95323">
        <ele>835</ele>
        <time>2021-08-12T10:40:14Z</time>
      </trkpt>
      <trkpt lat="47.30492" lon="6.9533">
        <ele>833.8</ele>
        <time>2021-08-12T10:40:16Z</time>
      </trkpt>
      <trkpt lat="47.30503" lon="6.95337">
        <ele>832.5</ele>
        <time>2021-08-12T10:40:18Z</time>
      </trkpt>
      <trkpt lat="47.30514" lon="6.95344">
        <ele>831.2</ele>
        <time>2021-08-12T10:40:20Z</time>
      </trkpt>
      <trkpt lat="47.30524" lon="6.95355">
        <ele>829.3</ele>
        <time>2021-08-12T10:40:22Z</time>
      </trkpt>
      <trkpt lat="47.30528" lon="6.95363">
        <ele>828.3</ele>
        <time>2021-08-12T10:40:23Z</time>
      </trkpt>
      <trkpt lat="47.30532" lon="6.95371">
        <ele>827.2</ele>
        <time>2021-08-12T10:40:24Z</time>
      </trkpt>
      <trkpt lat="47.30536" lon="6.95393">
        <ele>825.1</ele>
        <time>2021-08-12T10:40:26Z</time>
      </trkpt>
      <trkpt lat="47.30537" lon="6.95414">
        <ele>823.3</ele>
        <time>2021-08-12T10:40:28Z</time>
      </trkpt>
      <trkpt lat="47.30537" lon="6.95425">
        <ele>822.5</ele>
        <time>2021-08-12T10:40:29Z</time>
      </trkpt>
      <trkpt lat="47.30535" lon="6.95447">
        <ele>821.2</ele>
        <time>2021-08-12T10:40:31Z</time>
      </trkpt>
      <trkpt lat="47.30534" lon="6.95457">
        <ele>820.8</ele>
        <time>2021-08-12T10:40:32Z</time>
      </trkpt>
      <trkpt lat="47.30533" lon="6.95468">
        <ele>820.4</ele>
        <time>2021-08-12T10:40:33Z</time>
      </trkpt>
      <trkpt lat="47.3053" lon="6.95489">
        <ele>819.9</ele>
        <time>2021-08-12T10:40:35Z</time>
      </trkpt>
      <trkpt lat="47.30526" lon="6.9551">
        <ele>819.5</ele>
        <time>2021-08-12T10:40:37Z</time>
      </trkpt>
      <trkpt lat="47.30524" lon="6.95521">
        <ele>819.4</ele>
        <time>2021-08-12T10:40:38Z</time>
      </trkpt>
      <trkpt lat="47.30523" lon="6.95539">
        <ele>819.2</ele>
        <time>2021-08-12T10:40:40Z</time>
      </trkpt>
      <trkpt lat="47.30522" lon="6.95556">
        <ele>819</ele>
        <time>2021-08-12T10:40:42Z</time>
      </trkpt>
      <trkpt lat="47.30521" lon="6.95573">
        <ele>818.7</ele>
        <time>2021-08-12T10:40:44Z</time>
      </trkpt>
      <trkpt lat="47.3052" lon="6.9559">
        <ele>818.4</ele>
        <time>2021-08-12T10:40:46Z</time>
      </trkpt>
      <trkpt lat="47.3052" lon="6.95598">
        <ele>818.2</ele>
        <time>2021-08-12T10:40:47Z</time>
      </trkpt>
      <trkpt lat="47.30522" lon="6.95615">
        <ele>817.9</ele>
        <time>2021-08-12T10:40:49Z</time>
      </trkpt>
      <trkpt lat="47.30525" lon="6.95624">
        <ele>817.8</ele>
        <time>2021-08-12T10:40:50Z</time>
      </trkpt>
      <trkpt lat="47.30529" lon="6.9564">
        <ele>817.8</ele>
        <time>2021-08-12T10:40:52Z</time>
      </trkpt>
      <trkpt lat="47.3053" lon="6.95648">
        <ele>817.8</ele>
        <time>2021-08-12T10:40:53Z</time>
      </trkpt>
      <trkpt lat="47.30532" lon="6.95655">
        <ele>817.8</ele>
        <time>2021-08-12T10:40:54Z</time>
      </trkpt>
      <trkpt lat="47.30533" lon="6.95662">
        <ele>817.8</ele>
        <time>2021-08-12T10:40:55Z</time>
      </trkpt>
      <trkpt lat="47.30535" lon="6.95674">
        <ele>817.8</ele>
        <time>2021-08-12T10:40:57Z</time>
      </trkpt>
      <trkpt lat="47.30537" lon="6.9568">
        <ele>817.9</ele>
        <time>2021-08-12T10:40:58Z</time>
      </trkpt>
      <trkpt lat="47.30539" lon="6.95686">
        <ele>817.9</ele>
        <time>2021-08-12T10:40:59Z</time>
      </trkpt>
      <trkpt lat="47.3054" lon="6.95691">
        <ele>817.9</ele>
        <time>2021-08-12T10:41:00Z</time>
      </trkpt>
      <trkpt lat="47.30542" lon="6.95703">
        <ele>818</ele>
        <time>2021-08-12T10:41:02Z</time>
      </trkpt>
      <trkpt lat="47.30543" lon="6.95708">
        <ele>818</ele>
        <time>2021-08-12T10:41:03Z</time>
      </trkpt>
      <trkpt lat="47.30544" lon="6.95715">
        <ele>818</ele>
        <time>2021-08-12T10:41:04Z</time>
      </trkpt>
      <trkpt lat="47.30546" lon="6.95712">
        <ele>818</ele>
        <time>2021-08-12T10:41:05Z</time>
      </trkpt>
      <trkpt lat="47.30547" lon="6.95733">
        <ele>817.8</ele>
        <time>2021-08-12T10:41:07Z</time>
      </trkpt>
      <trkpt lat="47.30549" lon="6.9574">
        <ele>817.7</ele>
        <time>2021-08-12T10:41:08Z</time>
      </trkpt>
      <trkpt lat="47.30551" lon="6.95755">
        <ele>817.4</ele>
        <time>2021-08-12T10:41:10Z</time>
      </trkpt>
      <trkpt lat="47.30554" lon="6.95769">
        <ele>817.1</ele>
        <time>2021-08-12T10:41:12Z</time>
      </trkpt>
      <trkpt lat="47.30556" lon="6.95776">
        <ele>816.9</ele>
        <time>2021-08-12T10:41:13Z</time>
      </trkpt>
      <trkpt lat="47.30556" lon="6.95787">
        <ele>816.6</ele>
        <time>2021-08-12T10:41:15Z</time>
      </trkpt>
      <trkpt lat="47.30558" lon="6.95793">
        <ele>816.4</ele>
        <time>2021-08-12T10:41:16Z</time>
      </trkpt>
      <trkpt lat="47.3056" lon="6.958">
        <ele>816.1</ele>
        <time>2021-08-12T10:41:17Z</time>
      </trkpt>
      <trkpt lat="47.30564" lon="6.95815">
        <ele>815.3</ele>
        <time>2021-08-12T10:41:19Z</time>
      </trkpt>
      <trkpt lat="47.30566" lon="6.95823">
        <ele>814.8</ele>
        <time>2021-08-12T10:41:20Z</time>
      </trkpt>
      <trkpt lat="47.30566" lon="6.95832">
        <ele>814.3</ele>
        <time>2021-08-12T10:41:21Z</time>
      </trkpt>
      <trkpt lat="47.30565" lon="6.95849">
        <ele>813.3</ele>
        <time>2021-08-12T10:41:23Z</time>
      </trkpt>
      <trkpt lat="47.30565" lon="6.95857">
        <ele>812.8</ele>
        <time>2021-08-12T10:41:24Z</time>
      </trkpt>
      <trkpt lat="47.30567" lon="6.95876">
        <ele>811.6</ele>
        <time>2021-08-12T10:41:26Z</time>
      </trkpt>
      <trkpt lat="47.3057" lon="6.95894">
        <ele>810.2</ele>
        <time>2021-08-12T10:41:28Z</time>
      </trkpt>
      <trkpt lat="47.30573" lon="6.95902">
        <ele>809.5</ele>
        <time>2021-08-12T10:41:29Z</time>
      </trkpt>
      <trkpt lat="47.30576" lon="6.9591">
        <ele>808.7</ele>
        <time>2021-08-12T10:41:30Z</time>
      </trkpt>
      <trkpt lat="47.30586" lon="6.95922">
        <ele>807.1</ele>
        <time>2021-08-12T10:41:32Z</time>
      </trkpt>
      <trkpt lat="47.30592" lon="6.95933">
        <ele>805.7</ele>
        <time>2021-08-12T10:41:34Z</time>
      </trkpt>
      <trkpt lat="47.30594" lon="6.9594">
        <ele>805.1</ele>
        <time>2021-08-12T10:41:35Z</time>
      </trkpt>
      <trkpt lat="47.30596" lon="6.95948">
        <ele>804.3</ele>
        <time>2021-08-12T10:41:36Z</time>
      </trkpt>
      <trkpt lat="47.306" lon="6.95969">
        <ele>802.2</ele>
        <time>2021-08-12T10:41:38Z</time>
      </trkpt>
      <trkpt lat="47.30604" lon="6.95993">
        <ele>800.2</ele>
        <time>2021-08-12T10:41:40Z</time>
      </trkpt>
      <trkpt lat="47.30606" lon="6.96006">
        <ele>799.2</ele>
        <time>2021-08-12T10:41:41Z</time>
      </trkpt>
      <trkpt lat="47.30609" lon="6.96019">
        <ele>798.2</ele>
        <time>2021-08-12T10:41:42Z</time>
      </trkpt>
      <trkpt lat="47.30614" lon="6.96046">
        <ele>796.6</ele>
        <time>2021-08-12T10:41:44Z</time>
      </trkpt>
      <trkpt lat="47.30618" lon="6.96071">
        <ele>795.5</ele>
        <time>2021-08-12T10:41:46Z</time>
      </trkpt>
      <trkpt lat="47.30622" lon="6.96096">
        <ele>794.8</ele>
        <time>2021-08-12T10:41:48Z</time>
      </trkpt>
      <trkpt lat="47.30625" lon="6.96107">
        <ele>794.6</ele>
        <time>2021-08-12T10:41:49Z</time>
      </trkpt>
      <trkpt lat="47.30628" lon="6.96118">
        <ele>794.4</ele>
        <time>2021-08-12T10:41:50Z</time>
      </trkpt>
      <trkpt lat="47.30634" lon="6.96136">
        <ele>794.2</ele>
        <time>2021-08-12T10:41:52Z</time>
      </trkpt>
      <trkpt lat="47.30637" lon="6.96142">
        <ele>794.1</ele>
        <time>2021-08-12T10:41:53Z</time>
      </trkpt>
      <trkpt lat="47.3064" lon="6.96148">
        <ele>794</ele>
        <time>2021-08-12T10:41:54Z</time>
      </trkpt>
      <trkpt lat="47.30643" lon="6.96159">
        <ele>793.7</ele>
        <time>2021-08-12T10:41:56Z</time>
      </trkpt>
      <trkpt lat="47.30643" lon="6.96167">
        <ele>793.5</ele>
        <time>2021-08-12T10:41:58Z</time>
      </trkpt>
      <trkpt lat="47.30642" lon="6.96172">
        <ele>793.5</ele>
        <time>2021-08-12T10:41:59Z</time>
      </trkpt>
      <trkpt lat="47.3064" lon="6.96174">
        <ele>793.4</ele>
        <time>2021-08-12T10:42:00Z</time>
      </trkpt>
      <trkpt lat="47.30634" lon="6.96174">
        <ele>793.4</ele>
        <time>2021-08-12T10:42:02Z</time>
      </trkpt>
      <trkpt lat="47.3063" lon="6.96173">
        <ele>793.4</ele>
        <time>2021-08-12T10:42:03Z</time>
      </trkpt>
      <trkpt lat="47.30625" lon="6.96172">
        <ele>793.5</ele>
        <time>2021-08-12T10:42:05Z</time>
      </trkpt>
      <trkpt lat="47.3062" lon="6.9617">
        <ele>793.6</ele>
        <time>2021-08-12T10:42:06Z</time>
      </trkpt>
      <trkpt lat="47.30615" lon="6.96168">
        <ele>793.8</ele>
        <time>2021-08-12T10:42:08Z</time>
      </trkpt>
      <trkpt lat="47.30609" lon="6.96166">
        <ele>794</ele>
        <time>2021-08-12T10:42:10Z</time>
      </trkpt>
      <trkpt lat="47.30604" lon="6.96165">
        <ele>794.2</ele>
        <time>2021-08-12T10:42:11Z</time>
      </trkpt>
      <trkpt lat="47.30601" lon="6.96165">
        <ele>794.3</ele>
        <time>2021-08-12T10:42:12Z</time>
      </trkpt>
      <trkpt lat="47.30592" lon="6.96163">
        <ele>794.7</ele>
        <time>2021-08-12T10:42:14Z</time>
      </trkpt>
      <trkpt lat="47.30585" lon="6.96161">
        <ele>795</ele>
        <time>2021-08-12T10:42:16Z</time>
      </trkpt>
      <trkpt lat="47.30577" lon="6.9616">
        <ele>795.3</ele>
        <time>2021-08-12T10:42:18Z</time>
      </trkpt>
      <trkpt lat="47.30574" lon="6.96161">
        <ele>795.5</ele>
        <time>2021-08-12T10:42:19Z</time>
      </trkpt>
      <trkpt lat="47.30568" lon="6.96162">
        <ele>795.7</ele>
        <time>2021-08-12T10:42:20Z</time>
      </trkpt>
      <trkpt lat="47.30564" lon="6.96163">
        <ele>796</ele>
        <time>2021-08-12T10:42:22Z</time>
      </trkpt>
      <trkpt lat="47.30561" lon="6.96164">
        <ele>796.1</ele>
        <time>2021-08-12T10:42:23Z</time>
      </trkpt>
      <trkpt lat="47.30557" lon="6.96166">
        <ele>796.3</ele>
        <time>2021-08-12T10:42:24Z</time>
      </trkpt>
      <trkpt lat="47.30554" lon="6.96168">
        <ele>796.4</ele>
        <time>2021-08-12T10:42:26Z</time>
      </trkpt>
      <trkpt lat="47.30551" lon="6.96167">
        <ele>796.5</ele>
        <time>2021-08-12T10:42:27Z</time>
      </trkpt>
      <trkpt lat="47.30549" lon="6.96166">
        <ele>796.6</ele>
        <time>2021-08-12T10:42:28Z</time>
      </trkpt>
      <trkpt lat="47.30548" lon="6.96163">
        <ele>796.7</ele>
        <time>2021-08-12T10:42:30Z</time>
      </trkpt>
      <trkpt lat="47.30548" lon="6.96162">
        <ele>796.7</ele>
        <time>2021-08-12T10:42:31Z</time>
      </trkpt>
      <trkpt lat="47.30549" lon="6.96161">
        <ele>796.8</ele>
        <time>2021-08-12T10:42:32Z</time>
      </trkpt>
      <trkpt lat="47.30549" lon="6.9616">
        <ele>796.8</ele>
        <time>2021-08-12T10:42:34Z</time>
      </trkpt>
      <trkpt lat="47.30546" lon="6.96159">
        <ele>797</ele>
        <time>2021-08-12T10:42:35Z</time>
      </trkpt>
      <trkpt lat="47.30543" lon="6.9616">
        <ele>797.1</ele>
        <time>2021-08-12T10:42:37Z</time>
      </trkpt>
      <trkpt lat="47.30542" lon="6.96161">
        <ele>797.2</ele>
        <time>2021-08-12T10:42:38Z</time>
      </trkpt>
      <trkpt lat="47.30539" lon="6.96164">
        <ele>797.4</ele>
        <time>2021-08-12T10:42:40Z</time>
      </trkpt>
      <trkpt lat="47.30536" lon="6.96167">
        <ele>797.5</ele>
        <time>2021-08-12T10:42:41Z</time>
      </trkpt>
      <trkpt lat="47.30534" lon="6.9617">
        <ele>797.6</ele>
        <time>2021-08-12T10:42:42Z</time>
      </trkpt>
      <trkpt lat="47.30531" lon="6.96172">
        <ele>797.8</ele>
        <time>2021-08-12T10:42:43Z</time>
      </trkpt>
      <trkpt lat="47.30528" lon="6.96174">
        <ele>797.9</ele>
        <time>2021-08-12T10:42:45Z</time>
      </trkpt>
      <trkpt lat="47.30526" lon="6.96174">
        <ele>798</ele>
        <time>2021-08-12T10:42:46Z</time>
      </trkpt>
      <trkpt lat="47.30525" lon="6.96176">
        <ele>798</ele>
        <time>2021-08-12T10:42:47Z</time>
      </trkpt>
      <trkpt lat="47.30522" lon="6.96178">
        <ele>798.2</ele>
        <time>2021-08-12T10:42:49Z</time>
      </trkpt>
      <trkpt lat="47.30521" lon="6.96179">
        <ele>798.2</ele>
        <time>2021-08-12T10:42:50Z</time>
      </trkpt>
      <trkpt lat="47.30519" lon="6.96181">
        <ele>798.3</ele>
        <time>2021-08-12T10:42:51Z</time>
      </trkpt>
      <trkpt lat="47.30513" lon="6.9618">
        <ele>798.5</ele>
        <time>2021-08-12T10:42:53Z</time>
      </trkpt>
      <trkpt lat="47.30511" lon="6.96181">
        <ele>798.6</ele>
        <time>2021-08-12T10:42:54Z</time>
      </trkpt>
      <trkpt lat="47.30506" lon="6.96183">
        <ele>798.8</ele>
        <time>2021-08-12T10:42:56Z</time>
      </trkpt>
      <trkpt lat="47.30502" lon="6.96184">
        <ele>799</ele>
        <time>2021-08-12T10:42:57Z</time>
      </trkpt>
      <trkpt lat="47.30501" lon="6.96184">
        <ele>799</ele>
        <time>2021-08-12T10:42:58Z</time>
      </trkpt>
      <trkpt lat="47.30497" lon="6.96186">
        <ele>799.2</ele>
        <time>2021-08-12T10:43:00Z</time>
      </trkpt>
      <trkpt lat="47.30494" lon="6.96188">
        <ele>799.3</ele>
        <time>2021-08-12T10:43:01Z</time>
      </trkpt>
      <trkpt lat="47.30492" lon="6.9619">
        <ele>799.4</ele>
        <time>2021-08-12T10:43:02Z</time>
      </trkpt>
      <trkpt lat="47.30488" lon="6.96191">
        <ele>799.5</ele>
        <time>2021-08-12T10:43:04Z</time>
      </trkpt>
      <trkpt lat="47.30486" lon="6.96192">
        <ele>799.6</ele>
        <time>2021-08-12T10:43:05Z</time>
      </trkpt>
      <trkpt lat="47.30482" lon="6.96193">
        <ele>799.7</ele>
        <time>2021-08-12T10:43:06Z</time>
      </trkpt>
      <trkpt lat="47.3048" lon="6.96194">
        <ele>799.8</ele>
        <time>2021-08-12T10:43:07Z</time>
      </trkpt>
      <trkpt lat="47.30477" lon="6.96195">
        <ele>799.9</ele>
        <time>2021-08-12T10:43:08Z</time>
      </trkpt>
      <trkpt lat="47.3047" lon="6.96199">
        <ele>800.1</ele>
        <time>2021-08-12T10:43:10Z</time>
      </trkpt>
      <trkpt lat="47.30467" lon="6.96201">
        <ele>800.2</ele>
        <time>2021-08-12T10:43:11Z</time>
      </trkpt>
      <trkpt lat="47.30464" lon="6.96204">
        <ele>800.3</ele>
        <time>2021-08-12T10:43:12Z</time>
      </trkpt>
      <trkpt lat="47.30463" lon="6.96205">
        <ele>800.3</ele>
        <time>2021-08-12T10:43:13Z</time>
      </trkpt>
      <trkpt lat="47.30459" lon="6.96209">
        <ele>800.3</ele>
        <time>2021-08-12T10:43:15Z</time>
      </trkpt>
      <trkpt lat="47.30458" lon="6.96209">
        <ele>800.4</ele>
        <time>2021-08-12T10:43:16Z</time>
      </trkpt>
      <trkpt lat="47.30457" lon="6.96209">
        <ele>800.4</ele>
        <time>2021-08-12T10:43:17Z</time>
      </trkpt>
      <trkpt lat="47.30455" lon="6.9621">
        <ele>800.4</ele>
        <time>2021-08-12T10:43:18Z</time>
      </trkpt>
      <trkpt lat="47.30454" lon="6.96211">
        <ele>800.4</ele>
        <time>2021-08-12T10:43:19Z</time>
      </trkpt>
      <trkpt lat="47.30454" lon="6.96211">
        <ele>800.4</ele>
        <time>2021-08-12T10:43:20Z</time>
      </trkpt>
      <trkpt lat="47.30453" lon="6.96211">
        <ele>800.4</ele>
        <time>2021-08-12T10:43:22Z</time>
      </trkpt>
      <trkpt lat="47.3045" lon="6.96212">
        <ele>800.4</ele>
        <time>2021-08-12T10:43:24Z</time>
      </trkpt>
      <trkpt lat="47.30449" lon="6.96212">
        <ele>800.4</ele>
        <time>2021-08-12T10:43:25Z</time>
      </trkpt>
      <trkpt lat="47.30446" lon="6.96213">
        <ele>800.4</ele>
        <time>2021-08-12T10:43:26Z</time>
      </trkpt>
      <trkpt lat="47.30442" lon="6.96214">
        <ele>800.4</ele>
        <time>2021-08-12T10:43:28Z</time>
      </trkpt>
      <trkpt lat="47.30439" lon="6.96215">
        <ele>800.4</ele>
        <time>2021-08-12T10:43:29Z</time>
      </trkpt>
      <trkpt lat="47.30435" lon="6.96216">
        <ele>800.4</ele>
        <time>2021-08-12T10:43:30Z</time>
      </trkpt>
      <trkpt lat="47.30429" lon="6.96217">
        <ele>800.4</ele>
        <time>2021-08-12T10:43:32Z</time>
      </trkpt>
      <trkpt lat="47.30424" lon="6.96218">
        <ele>800.4</ele>
        <time>2021-08-12T10:43:33Z</time>
      </trkpt>
      <trkpt lat="47.3042" lon="6.9622">
        <ele>800.3</ele>
        <time>2021-08-12T10:43:34Z</time>
      </trkpt>
      <trkpt lat="47.3041" lon="6.96223">
        <ele>800.2</ele>
        <time>2021-08-12T10:43:36Z</time>
      </trkpt>
      <trkpt lat="47.30403" lon="6.96225">
        <ele>800.1</ele>
        <time>2021-08-12T10:43:37Z</time>
      </trkpt>
      <trkpt lat="47.30397" lon="6.96228">
        <ele>799.9</ele>
        <time>2021-08-12T10:43:39Z</time>
      </trkpt>
      <trkpt lat="47.30391" lon="6.9623">
        <ele>799.7</ele>
        <time>2021-08-12T10:43:41Z</time>
      </trkpt>
      <trkpt lat="47.30383" lon="6.96233">
        <ele>799.5</ele>
        <time>2021-08-12T10:43:42Z</time>
      </trkpt>
      <trkpt lat="47.30378" lon="6.96239">
        <ele>799.4</ele>
        <time>2021-08-12T10:43:44Z</time>
      </trkpt>
      <trkpt lat="47.30369" lon="6.96238">
        <ele>799.1</ele>
        <time>2021-08-12T10:43:45Z</time>
      </trkpt>
      <trkpt lat="47.30362" lon="6.96237">
        <ele>798.9</ele>
        <time>2021-08-12T10:43:47Z</time>
      </trkpt>
      <trkpt lat="47.30357" lon="6.96235">
        <ele>798.7</ele>
        <time>2021-08-12T10:43:48Z</time>
      </trkpt>
      <trkpt lat="47.30352" lon="6.96234">
        <ele>798.6</ele>
        <time>2021-08-12T10:43:49Z</time>
      </trkpt>
      <trkpt lat="47.30346" lon="6.96231">
        <ele>798.4</ele>
        <time>2021-08-12T10:43:51Z</time>
      </trkpt>
      <trkpt lat="47.30339" lon="6.96229">
        <ele>798.1</ele>
        <time>2021-08-12T10:43:53Z</time>
      </trkpt>
      <trkpt lat="47.30335" lon="6.9623">
        <ele>797.9</ele>
        <time>2021-08-12T10:43:54Z</time>
      </trkpt>
      <trkpt lat="47.30327" lon="6.96229">
        <ele>797.6</ele>
        <time>2021-08-12T10:43:56Z</time>
      </trkpt>
      <trkpt lat="47.3032" lon="6.96228">
        <ele>797.3</ele>
        <time>2021-08-12T10:43:57Z</time>
      </trkpt>
      <trkpt lat="47.30313" lon="6.96227">
        <ele>797</ele>
        <time>2021-08-12T10:43:58Z</time>
      </trkpt>
      <trkpt lat="47.30305" lon="6.96228">
        <ele>796.7</ele>
        <time>2021-08-12T10:44:00Z</time>
      </trkpt>
      <trkpt lat="47.30301" lon="6.96231">
        <ele>796.6</ele>
        <time>2021-08-12T10:44:01Z</time>
      </trkpt>
      <trkpt lat="47.30294" lon="6.96227">
        <ele>796.3</ele>
        <time>2021-08-12T10:44:02Z</time>
      </trkpt>
      <trkpt lat="47.30283" lon="6.96225">
        <ele>795.9</ele>
        <time>2021-08-12T10:44:04Z</time>
      </trkpt>
      <trkpt lat="47.30272" lon="6.96224">
        <ele>795.6</ele>
        <time>2021-08-12T10:44:06Z</time>
      </trkpt>
      <trkpt lat="47.30268" lon="6.96223">
        <ele>795.4</ele>
        <time>2021-08-12T10:44:07Z</time>
      </trkpt>
      <trkpt lat="47.30264" lon="6.96222">
        <ele>795.3</ele>
        <time>2021-08-12T10:44:08Z</time>
      </trkpt>
      <trkpt lat="47.3026" lon="6.96219">
        <ele>795.2</ele>
        <time>2021-08-12T10:44:10Z</time>
      </trkpt>
      <trkpt lat="47.30255" lon="6.96216">
        <ele>795</ele>
        <time>2021-08-12T10:44:12Z</time>
      </trkpt>
      <trkpt lat="47.30249" lon="6.96213">
        <ele>794.8</ele>
        <time>2021-08-12T10:44:13Z</time>
      </trkpt>
      <trkpt lat="47.30244" lon="6.96211">
        <ele>794.6</ele>
        <time>2021-08-12T10:44:14Z</time>
      </trkpt>
      <trkpt lat="47.30242" lon="6.9621">
        <ele>794.5</ele>
        <time>2021-08-12T10:44:15Z</time>
      </trkpt>
      <trkpt lat="47.30238" lon="6.96209">
        <ele>794.4</ele>
        <time>2021-08-12T10:44:17Z</time>
      </trkpt>
      <trkpt lat="47.30235" lon="6.96207">
        <ele>794.2</ele>
        <time>2021-08-12T10:44:18Z</time>
      </trkpt>
      <trkpt lat="47.3023" lon="6.96205">
        <ele>794</ele>
        <time>2021-08-12T10:44:19Z</time>
      </trkpt>
      <trkpt lat="47.30226" lon="6.96201">
        <ele>793.8</ele>
        <time>2021-08-12T10:44:21Z</time>
      </trkpt>
      <trkpt lat="47.30223" lon="6.96199">
        <ele>793.6</ele>
        <time>2021-08-12T10:44:22Z</time>
      </trkpt>
      <trkpt lat="47.30219" lon="6.962">
        <ele>793.5</ele>
        <time>2021-08-12T10:44:23Z</time>
      </trkpt>
      <trkpt lat="47.30218" lon="6.962">
        <ele>793.4</ele>
        <time>2021-08-12T10:44:24Z</time>
      </trkpt>
      <trkpt lat="47.30216" lon="6.96201">
        <ele>793.3</ele>
        <time>2021-08-12T10:44:26Z</time>
      </trkpt>
      <trkpt lat="47.30215" lon="6.96202">
        <ele>793.2</ele>
        <time>2021-08-12T10:44:27Z</time>
      </trkpt>
      <trkpt lat="47.30213" lon="6.96202">
        <ele>793.2</ele>
        <time>2021-08-12T10:44:28Z</time>
      </trkpt>
      <trkpt lat="47.3021" lon="6.96201">
        <ele>793</ele>
        <time>2021-08-12T10:44:29Z</time>
      </trkpt>
      <trkpt lat="47.30206" lon="6.96203">
        <ele>792.8</ele>
        <time>2021-08-12T10:44:30Z</time>
      </trkpt>
      <trkpt lat="47.30203" lon="6.96205">
        <ele>792.6</ele>
        <time>2021-08-12T10:44:31Z</time>
      </trkpt>
      <trkpt lat="47.30199" lon="6.96206">
        <ele>792.4</ele>
        <time>2021-08-12T10:44:32Z</time>
      </trkpt>
      <trkpt lat="47.30194" lon="6.96207">
        <ele>792.2</ele>
        <time>2021-08-12T10:44:34Z</time>
      </trkpt>
      <trkpt lat="47.3019" lon="6.96208">
        <ele>792</ele>
        <time>2021-08-12T10:44:35Z</time>
      </trkpt>
      <trkpt lat="47.30186" lon="6.96209">
        <ele>791.8</ele>
        <time>2021-08-12T10:44:36Z</time>
      </trkpt>
      <trkpt lat="47.30182" lon="6.96209">
        <ele>791.6</ele>
        <time>2021-08-12T10:44:37Z</time>
      </trkpt>
      <trkpt lat="47.30178" lon="6.96209">
        <ele>791.4</ele>
        <time>2021-08-12T10:44:38Z</time>
      </trkpt>
      <trkpt lat="47.30174" lon="6.96208">
        <ele>791.3</ele>
        <time>2021-08-12T10:44:39Z</time>
      </trkpt>
      <trkpt lat="47.3017" lon="6.96205">
        <ele>791</ele>
        <time>2021-08-12T10:44:41Z</time>
      </trkpt>
      <trkpt lat="47.30166" lon="6.96203">
        <ele>790.8</ele>
        <time>2021-08-12T10:44:42Z</time>
      </trkpt>
      <trkpt lat="47.30161" lon="6.96201">
        <ele>790.6</ele>
        <time>2021-08-12T10:44:43Z</time>
      </trkpt>
      <trkpt lat="47.30156" lon="6.96199">
        <ele>790.3</ele>
        <time>2021-08-12T10:44:44Z</time>
      </trkpt>
      <trkpt lat="47.30153" lon="6.96198">
        <ele>790.1</ele>
        <time>2021-08-12T10:44:45Z</time>
      </trkpt>
      <trkpt lat="47.30149" lon="6.96196">
        <ele>789.8</ele>
        <time>2021-08-12T10:44:47Z</time>
      </trkpt>
      <trkpt lat="47.30146" lon="6.96195">
        <ele>789.7</ele>
        <time>2021-08-12T10:44:48Z</time>
      </trkpt>
      <trkpt lat="47.30144" lon="6.96193">
        <ele>789.5</ele>
        <time>2021-08-12T10:44:49Z</time>
      </trkpt>
      <trkpt lat="47.30141" lon="6.96191">
        <ele>789.4</ele>
        <time>2021-08-12T10:44:51Z</time>
      </trkpt>
      <trkpt lat="47.3014" lon="6.9619">
        <ele>789.3</ele>
        <time>2021-08-12T10:44:52Z</time>
      </trkpt>
      <trkpt lat="47.3014" lon="6.96191">
        <ele>789.2</ele>
        <time>2021-08-12T10:44:53Z</time>
      </trkpt>
      <trkpt lat="47.30141" lon="6.96194">
        <ele>789.1</ele>
        <time>2021-08-12T10:44:54Z</time>
      </trkpt>
      <trkpt lat="47.3014" lon="6.96196">
        <ele>789</ele>
        <time>2021-08-12T10:44:56Z</time>
      </trkpt>
      <trkpt lat="47.30139" lon="6.96198">
        <ele>788.8</ele>
        <time>2021-08-12T10:44:57Z</time>
      </trkpt>
      <trkpt lat="47.30138" lon="6.96199">
        <ele>788.7</ele>
        <time>2021-08-12T10:44:58Z</time>
      </trkpt>
      <trkpt lat="47.30137" lon="6.962">
        <ele>788.7</ele>
        <time>2021-08-12T10:44:59Z</time>
      </trkpt>
      <trkpt lat="47.30135" lon="6.96203">
        <ele>788.4</ele>
        <time>2021-08-12T10:45:00Z</time>
      </trkpt>
      <trkpt lat="47.30133" lon="6.96204">
        <ele>788.2</ele>
        <time>2021-08-12T10:45:02Z</time>
      </trkpt>
      <trkpt lat="47.30107" lon="6.96207">
        <ele>785.3</ele>
        <time>2021-08-12T10:45:09Z</time>
      </trkpt>
      <trkpt lat="47.30098" lon="6.96205">
        <ele>784.3</ele>
        <time>2021-08-12T10:45:10Z</time>
      </trkpt>
      <trkpt lat="47.30091" lon="6.96206">
        <ele>783.3</ele>
        <time>2021-08-12T10:45:12Z</time>
      </trkpt>
      <trkpt lat="47.30085" lon="6.96208">
        <ele>782.6</ele>
        <time>2021-08-12T10:45:13Z</time>
      </trkpt>
      <trkpt lat="47.30081" lon="6.9621">
        <ele>782</ele>
        <time>2021-08-12T10:45:15Z</time>
      </trkpt>
      <trkpt lat="47.30076" lon="6.9621">
        <ele>781.5</ele>
        <time>2021-08-12T10:45:16Z</time>
      </trkpt>
      <trkpt lat="47.30072" lon="6.96212">
        <ele>780.9</ele>
        <time>2021-08-12T10:45:17Z</time>
      </trkpt>
      <trkpt lat="47.30066" lon="6.96213">
        <ele>779.9</ele>
        <time>2021-08-12T10:45:18Z</time>
      </trkpt>
      <trkpt lat="47.30059" lon="6.96213">
        <ele>778.8</ele>
        <time>2021-08-12T10:45:20Z</time>
      </trkpt>
      <trkpt lat="47.30054" lon="6.96211">
        <ele>778.4</ele>
        <time>2021-08-12T10:45:21Z</time>
      </trkpt>
      <trkpt lat="47.30047" lon="6.96207">
        <ele>778</ele>
        <time>2021-08-12T10:45:22Z</time>
      </trkpt>
      <trkpt lat="47.30039" lon="6.96194">
        <ele>777.5</ele>
        <time>2021-08-12T10:45:24Z</time>
      </trkpt>
      <trkpt lat="47.30035" lon="6.96191">
        <ele>777.4</ele>
        <time>2021-08-12T10:45:25Z</time>
      </trkpt>
      <trkpt lat="47.30028" lon="6.96186">
        <ele>777.2</ele>
        <time>2021-08-12T10:45:27Z</time>
      </trkpt>
      <trkpt lat="47.30024" lon="6.96182">
        <ele>777.2</ele>
        <time>2021-08-12T10:45:28Z</time>
      </trkpt>
      <trkpt lat="47.30019" lon="6.96178">
        <ele>777.3</ele>
        <time>2021-08-12T10:45:29Z</time>
      </trkpt>
      <trkpt lat="47.30014" lon="6.96174">
        <ele>777.5</ele>
        <time>2021-08-12T10:45:30Z</time>
      </trkpt>
      <trkpt lat="47.30009" lon="6.96171">
        <ele>777.7</ele>
        <time>2021-08-12T10:45:31Z</time>
      </trkpt>
      <trkpt lat="47.30005" lon="6.96169">
        <ele>778</ele>
        <time>2021-08-12T10:45:32Z</time>
      </trkpt>
      <trkpt lat="47.29999" lon="6.96168">
        <ele>778.5</ele>
        <time>2021-08-12T10:45:34Z</time>
      </trkpt>
      <trkpt lat="47.29995" lon="6.96166">
        <ele>778.9</ele>
        <time>2021-08-12T10:45:35Z</time>
      </trkpt>
      <trkpt lat="47.29992" lon="6.96164">
        <ele>779.2</ele>
        <time>2021-08-12T10:45:36Z</time>
      </trkpt>
      <trkpt lat="47.2999" lon="6.9616">
        <ele>779.6</ele>
        <time>2021-08-12T10:45:37Z</time>
      </trkpt>
      <trkpt lat="47.29987" lon="6.96154">
        <ele>780.1</ele>
        <time>2021-08-12T10:45:39Z</time>
      </trkpt>
      <trkpt lat="47.29987" lon="6.96152">
        <ele>780.3</ele>
        <time>2021-08-12T10:45:40Z</time>
      </trkpt>
      <trkpt lat="47.29986" lon="6.96149">
        <ele>780.5</ele>
        <time>2021-08-12T10:45:41Z</time>
      </trkpt>
      <trkpt lat="47.29983" lon="6.96144">
        <ele>780.9</ele>
        <time>2021-08-12T10:45:43Z</time>
      </trkpt>
      <trkpt lat="47.2998" lon="6.9614">
        <ele>781.3</ele>
        <time>2021-08-12T10:45:44Z</time>
      </trkpt>
      <trkpt lat="47.29979" lon="6.96138">
        <ele>781.5</ele>
        <time>2021-08-12T10:45:45Z</time>
      </trkpt>
      <trkpt lat="47.29978" lon="6.96135">
        <ele>781.8</ele>
        <time>2021-08-12T10:45:47Z</time>
      </trkpt>
      <trkpt lat="47.29977" lon="6.96133">
        <ele>782</ele>
        <time>2021-08-12T10:45:48Z</time>
      </trkpt>
      <trkpt lat="47.29943" lon="6.96034">
        <ele>779.1</ele>
        <time>2021-08-12T10:45:54Z</time>
      </trkpt>
      <trkpt lat="47.29932" lon="6.96009">
        <ele>776.9</ele>
        <time>2021-08-12T10:45:56Z</time>
      </trkpt>
      <trkpt lat="47.29922" lon="6.95995">
        <ele>775.4</ele>
        <time>2021-08-12T10:45:58Z</time>
      </trkpt>
      <trkpt lat="47.29917" lon="6.95989">
        <ele>774.6</ele>
        <time>2021-08-12T10:45:59Z</time>
      </trkpt>
      <trkpt lat="47.29914" lon="6.95983">
        <ele>774</ele>
        <time>2021-08-12T10:46:00Z</time>
      </trkpt>
      <trkpt lat="47.29907" lon="6.95973">
        <ele>773</ele>
        <time>2021-08-12T10:46:02Z</time>
      </trkpt>
      <trkpt lat="47.29901" lon="6.95965">
        <ele>772.1</ele>
        <time>2021-08-12T10:46:04Z</time>
      </trkpt>
      <trkpt lat="47.29898" lon="6.95962">
        <ele>771.8</ele>
        <time>2021-08-12T10:46:05Z</time>
      </trkpt>
      <trkpt lat="47.29897" lon="6.9596">
        <ele>771.6</ele>
        <time>2021-08-12T10:46:06Z</time>
      </trkpt>
      <trkpt lat="47.29897" lon="6.9596">
        <ele>771.6</ele>
        <time>2021-08-12T10:46:07Z</time>
      </trkpt>
      <trkpt lat="47.29897" lon="6.9596">
        <ele>771.6</ele>
        <time>2021-08-12T10:46:08Z</time>
      </trkpt>
      <trkpt lat="47.29895" lon="6.95956">
        <ele>771.2</ele>
        <time>2021-08-12T10:46:16Z</time>
      </trkpt>
      <trkpt lat="47.29796" lon="6.95903">
        <ele>754.9</ele>
        <time>2021-08-12T10:46:22Z</time>
      </trkpt>
      <trkpt lat="47.29785" lon="6.95891">
        <ele>753</ele>
        <time>2021-08-12T10:46:23Z</time>
      </trkpt>
      <trkpt lat="47.29774" lon="6.95878">
        <ele>751.5</ele>
        <time>2021-08-12T10:46:24Z</time>
      </trkpt>
      <trkpt lat="47.29757" lon="6.95856">
        <ele>749.5</ele>
        <time>2021-08-12T10:46:26Z</time>
      </trkpt>
      <trkpt lat="47.29745" lon="6.95832">
        <ele>748.4</ele>
        <time>2021-08-12T10:46:28Z</time>
      </trkpt>
      <trkpt lat="47.29738" lon="6.95823">
        <ele>745.6</ele>
        <time>2021-08-12T10:46:29Z</time>
      </trkpt>
      <trkpt lat="47.29731" lon="6.95813">
        <ele>742.5</ele>
        <time>2021-08-12T10:46:30Z</time>
      </trkpt>
      <trkpt lat="47.29721" lon="6.95794">
        <ele>736.3</ele>
        <time>2021-08-12T10:46:32Z</time>
      </trkpt>
      <trkpt lat="47.29726" lon="6.9578">
        <ele>740.2</ele>
        <time>2021-08-12T10:46:34Z</time>
      </trkpt>
      <trkpt lat="47.29735" lon="6.95767">
        <ele>745.7</ele>
        <time>2021-08-12T10:46:36Z</time>
      </trkpt>
      <trkpt lat="47.29737" lon="6.95762">
        <ele>746.7</ele>
        <time>2021-08-12T10:46:37Z</time>
      </trkpt>
      <trkpt lat="47.29741" lon="6.95759">
        <ele>747.7</ele>
        <time>2021-08-12T10:46:38Z</time>
      </trkpt>
      <trkpt lat="47.29747" lon="6.95749">
        <ele>750.4</ele>
        <time>2021-08-12T10:46:40Z</time>
      </trkpt>
      <trkpt lat="47.29748" lon="6.95744">
        <ele>751.5</ele>
        <time>2021-08-12T10:46:41Z</time>
      </trkpt>
      <trkpt lat="47.29749" lon="6.95739">
        <ele>750.9</ele>
        <time>2021-08-12T10:46:43Z</time>
      </trkpt>
      <trkpt lat="47.29741" lon="6.95636">
        <ele>740.8</ele>
        <time>2021-08-12T10:46:58Z</time>
      </trkpt>
      <trkpt lat="47.2974" lon="6.95624">
        <ele>738.3</ele>
        <time>2021-08-12T10:46:59Z</time>
      </trkpt>
      <trkpt lat="47.2974" lon="6.95615">
        <ele>735.7</ele>
        <time>2021-08-12T10:47:00Z</time>
      </trkpt>
      <trkpt lat="47.2974" lon="6.95608">
        <ele>734.3</ele>
        <time>2021-08-12T10:47:01Z</time>
      </trkpt>
      <trkpt lat="47.29738" lon="6.95601">
        <ele>731.1</ele>
        <time>2021-08-12T10:47:02Z</time>
      </trkpt>
      <trkpt lat="47.29738" lon="6.95596">
        <ele>729.8</ele>
        <time>2021-08-12T10:47:03Z</time>
      </trkpt>
      <trkpt lat="47.29738" lon="6.95593">
        <ele>728.5</ele>
        <time>2021-08-12T10:47:05Z</time>
      </trkpt>
      <trkpt lat="47.29737" lon="6.95594">
        <ele>728.3</ele>
        <time>2021-08-12T10:47:06Z</time>
      </trkpt>
      <trkpt lat="47.29737" lon="6.956">
        <ele>728.1</ele>
        <time>2021-08-12T10:47:08Z</time>
      </trkpt>
      <trkpt lat="47.29737" lon="6.95599">
        <ele>727.3</ele>
        <time>2021-08-12T10:47:09Z</time>
      </trkpt>
      <trkpt lat="47.29737" lon="6.95606">
        <ele>727.1</ele>
        <time>2021-08-12T10:47:11Z</time>
      </trkpt>
      <trkpt lat="47.29738" lon="6.95615">
        <ele>728.2</ele>
        <time>2021-08-12T10:47:12Z</time>
      </trkpt>
      <trkpt lat="47.29738" lon="6.95623">
        <ele>728.1</ele>
        <time>2021-08-12T10:47:13Z</time>
      </trkpt>
      <trkpt lat="47.29738" lon="6.95634">
        <ele>729.1</ele>
        <time>2021-08-12T10:47:15Z</time>
      </trkpt>
      <trkpt lat="47.29738" lon="6.95645">
        <ele>729.4</ele>
        <time>2021-08-12T10:47:16Z</time>
      </trkpt>
      <trkpt lat="47.29738" lon="6.95656">
        <ele>729.9</ele>
        <time>2021-08-12T10:47:18Z</time>
      </trkpt>
      <trkpt lat="47.29737" lon="6.95664">
        <ele>729.7</ele>
        <time>2021-08-12T10:47:19Z</time>
      </trkpt>
      <trkpt lat="47.29735" lon="6.95676">
        <ele>728.2</ele>
        <time>2021-08-12T10:47:20Z</time>
      </trkpt>
      <trkpt lat="47.29732" lon="6.95694">
        <ele>726.7</ele>
        <time>2021-08-12T10:47:22Z</time>
      </trkpt>
      <trkpt lat="47.29729" lon="6.95708">
        <ele>725.4</ele>
        <time>2021-08-12T10:47:24Z</time>
      </trkpt>
      <trkpt lat="47.29725" lon="6.95725">
        <ele>723.7</ele>
        <time>2021-08-12T10:47:26Z</time>
      </trkpt>
      <trkpt lat="47.29721" lon="6.95745">
        <ele>721.8</ele>
        <time>2021-08-12T10:47:28Z</time>
      </trkpt>
      <trkpt lat="47.29719" lon="6.95767">
        <ele>719.9</ele>
        <time>2021-08-12T10:47:30Z</time>
      </trkpt>
      <trkpt lat="47.29718" lon="6.95787">
        <ele>718.2</ele>
        <time>2021-08-12T10:47:32Z</time>
      </trkpt>
      <trkpt lat="47.29713" lon="6.95806">
        <ele>716.6</ele>
        <time>2021-08-12T10:47:34Z</time>
      </trkpt>
      <trkpt lat="47.29708" lon="6.95828">
        <ele>714.6</ele>
        <time>2021-08-12T10:47:36Z</time>
      </trkpt>
      <trkpt lat="47.29706" lon="6.95839">
        <ele>713.8</ele>
        <time>2021-08-12T10:47:37Z</time>
      </trkpt>
      <trkpt lat="47.29705" lon="6.9585">
        <ele>713</ele>
        <time>2021-08-12T10:47:38Z</time>
      </trkpt>
      <trkpt lat="47.29701" lon="6.95873">
        <ele>711.3</ele>
        <time>2021-08-12T10:47:40Z</time>
      </trkpt>
      <trkpt lat="47.29699" lon="6.95894">
        <ele>708.9</ele>
        <time>2021-08-12T10:47:42Z</time>
      </trkpt>
      <trkpt lat="47.29702" lon="6.95912">
        <ele>707.7</ele>
        <time>2021-08-12T10:47:44Z</time>
      </trkpt>
      <trkpt lat="47.29703" lon="6.95925">
        <ele>707.3</ele>
        <time>2021-08-12T10:47:46Z</time>
      </trkpt>
      <trkpt lat="47.29705" lon="6.95939">
        <ele>707</ele>
        <time>2021-08-12T10:47:48Z</time>
      </trkpt>
      <trkpt lat="47.29707" lon="6.95948">
        <ele>706.7</ele>
        <time>2021-08-12T10:47:49Z</time>
      </trkpt>
      <trkpt lat="47.2971" lon="6.95958">
        <ele>706.5</ele>
        <time>2021-08-12T10:47:50Z</time>
      </trkpt>
      <trkpt lat="47.29717" lon="6.95977">
        <ele>706.1</ele>
        <time>2021-08-12T10:47:52Z</time>
      </trkpt>
      <trkpt lat="47.29726" lon="6.95999">
        <ele>705.5</ele>
        <time>2021-08-12T10:47:54Z</time>
      </trkpt>
      <trkpt lat="47.29734" lon="6.96021">
        <ele>704.9</ele>
        <time>2021-08-12T10:47:56Z</time>
      </trkpt>
      <trkpt lat="47.29739" lon="6.96045">
        <ele>704.3</ele>
        <time>2021-08-12T10:47:58Z</time>
      </trkpt>
      <trkpt lat="47.29741" lon="6.96055">
        <ele>704</ele>
        <time>2021-08-12T10:47:59Z</time>
      </trkpt>
      <trkpt lat="47.29743" lon="6.96065">
        <ele>703.8</ele>
        <time>2021-08-12T10:48:00Z</time>
      </trkpt>
      <trkpt lat="47.29747" lon="6.96085">
        <ele>703.3</ele>
        <time>2021-08-12T10:48:02Z</time>
      </trkpt>
      <trkpt lat="47.29749" lon="6.96099">
        <ele>703</ele>
        <time>2021-08-12T10:48:04Z</time>
      </trkpt>
      <trkpt lat="47.2975" lon="6.96104">
        <ele>703</ele>
        <time>2021-08-12T10:48:05Z</time>
      </trkpt>
      <trkpt lat="47.29751" lon="6.96109">
        <ele>702.9</ele>
        <time>2021-08-12T10:48:06Z</time>
      </trkpt>
      <trkpt lat="47.29758" lon="6.96121">
        <ele>702.6</ele>
        <time>2021-08-12T10:48:08Z</time>
      </trkpt>
      <trkpt lat="47.29766" lon="6.96131">
        <ele>702.4</ele>
        <time>2021-08-12T10:48:10Z</time>
      </trkpt>
      <trkpt lat="47.29767" lon="6.96142">
        <ele>702.2</ele>
        <time>2021-08-12T10:48:12Z</time>
      </trkpt>
      <trkpt lat="47.29767" lon="6.96154">
        <ele>702</ele>
        <time>2021-08-12T10:48:13Z</time>
      </trkpt>
      <trkpt lat="47.29767" lon="6.96163">
        <ele>701.8</ele>
        <time>2021-08-12T10:48:14Z</time>
      </trkpt>
      <trkpt lat="47.29768" lon="6.9618">
        <ele>701.6</ele>
        <time>2021-08-12T10:48:16Z</time>
      </trkpt>
      <trkpt lat="47.29768" lon="6.96189">
        <ele>701.4</ele>
        <time>2021-08-12T10:48:17Z</time>
      </trkpt>
      <trkpt lat="47.29769" lon="6.96199">
        <ele>701.2</ele>
        <time>2021-08-12T10:48:18Z</time>
      </trkpt>
      <trkpt lat="47.29769" lon="6.96207">
        <ele>701.1</ele>
        <time>2021-08-12T10:48:19Z</time>
      </trkpt>
      <trkpt lat="47.2977" lon="6.96214">
        <ele>701</ele>
        <time>2021-08-12T10:48:20Z</time>
      </trkpt>
      <trkpt lat="47.29771" lon="6.9623">
        <ele>700.7</ele>
        <time>2021-08-12T10:48:22Z</time>
      </trkpt>
      <trkpt lat="47.29776" lon="6.96243">
        <ele>700.5</ele>
        <time>2021-08-12T10:48:24Z</time>
      </trkpt>
      <trkpt lat="47.2978" lon="6.96249">
        <ele>700.3</ele>
        <time>2021-08-12T10:48:25Z</time>
      </trkpt>
      <trkpt lat="47.29783" lon="6.96255">
        <ele>700.2</ele>
        <time>2021-08-12T10:48:26Z</time>
      </trkpt>
      <trkpt lat="47.29788" lon="6.96263">
        <ele>700</ele>
        <time>2021-08-12T10:48:28Z</time>
      </trkpt>
      <trkpt lat="47.29788" lon="6.96262">
        <ele>700</ele>
        <time>2021-08-12T10:48:29Z</time>
      </trkpt>
      <trkpt lat="47.29788" lon="6.96251">
        <ele>699.8</ele>
        <time>2021-08-12T10:48:31Z</time>
      </trkpt>
      <trkpt lat="47.2979" lon="6.96247">
        <ele>699.7</ele>
        <time>2021-08-12T10:48:32Z</time>
      </trkpt>
      <trkpt lat="47.29788" lon="6.96236">
        <ele>699.4</ele>
        <time>2021-08-12T10:48:34Z</time>
      </trkpt>
      <trkpt lat="47.29783" lon="6.96221">
        <ele>699.1</ele>
        <time>2021-08-12T10:48:36Z</time>
      </trkpt>
      <trkpt lat="47.29779" lon="6.96208">
        <ele>698.9</ele>
        <time>2021-08-12T10:48:38Z</time>
      </trkpt>
      <trkpt lat="47.29696" lon="6.9605">
        <ele>678.1</ele>
        <time>2021-08-12T10:48:57Z</time>
      </trkpt>
      <trkpt lat="47.2969" lon="6.96048">
        <ele>677</ele>
        <time>2021-08-12T10:48:58Z</time>
      </trkpt>
      <trkpt lat="47.2968" lon="6.96045">
        <ele>675.1</ele>
        <time>2021-08-12T10:49:00Z</time>
      </trkpt>
      <trkpt lat="47.29676" lon="6.96043">
        <ele>674.2</ele>
        <time>2021-08-12T10:49:01Z</time>
      </trkpt>
      <trkpt lat="47.29672" lon="6.96041">
        <ele>673.3</ele>
        <time>2021-08-12T10:49:02Z</time>
      </trkpt>
      <trkpt lat="47.29665" lon="6.96037">
        <ele>671.6</ele>
        <time>2021-08-12T10:49:04Z</time>
      </trkpt>
      <trkpt lat="47.29662" lon="6.96035">
        <ele>670.9</ele>
        <time>2021-08-12T10:49:05Z</time>
      </trkpt>
      <trkpt lat="47.29658" lon="6.96029">
        <ele>669.5</ele>
        <time>2021-08-12T10:49:07Z</time>
      </trkpt>
      <trkpt lat="47.29657" lon="6.96026">
        <ele>669</ele>
        <time>2021-08-12T10:49:08Z</time>
      </trkpt>
      <trkpt lat="47.29657" lon="6.9602">
        <ele>668.1</ele>
        <time>2021-08-12T10:49:10Z</time>
      </trkpt>
      <trkpt lat="47.29657" lon="6.96016">
        <ele>667.4</ele>
        <time>2021-08-12T10:49:11Z</time>
      </trkpt>
      <trkpt lat="47.29657" lon="6.96014">
        <ele>667.1</ele>
        <time>2021-08-12T10:49:12Z</time>
      </trkpt>
      <trkpt lat="47.29654" lon="6.96009">
        <ele>666</ele>
        <time>2021-08-12T10:49:14Z</time>
      </trkpt>
      <trkpt lat="47.2965" lon="6.96004">
        <ele>664.8</ele>
        <time>2021-08-12T10:49:16Z</time>
      </trkpt>
      <trkpt lat="47.29647" lon="6.96001">
        <ele>663.9</ele>
        <time>2021-08-12T10:49:17Z</time>
      </trkpt>
      <trkpt lat="47.29644" lon="6.95998">
        <ele>663.1</ele>
        <time>2021-08-12T10:49:19Z</time>
      </trkpt>
      <trkpt lat="47.29642" lon="6.95996">
        <ele>662.5</ele>
        <time>2021-08-12T10:49:21Z</time>
      </trkpt>
      <trkpt lat="47.2964" lon="6.95998">
        <ele>662.1</ele>
        <time>2021-08-12T10:49:23Z</time>
      </trkpt>
      <trkpt lat="47.29638" lon="6.95999">
        <ele>661.6</ele>
        <time>2021-08-12T10:49:24Z</time>
      </trkpt>
      <trkpt lat="47.29636" lon="6.96">
        <ele>661.2</ele>
        <time>2021-08-12T10:49:25Z</time>
      </trkpt>
      <trkpt lat="47.29634" lon="6.96002">
        <ele>660.7</ele>
        <time>2021-08-12T10:49:26Z</time>
      </trkpt>
      <trkpt lat="47.2963" lon="6.96008">
        <ele>659.4</ele>
        <time>2021-08-12T10:49:28Z</time>
      </trkpt>
      <trkpt lat="47.29621" lon="6.95997">
        <ele>657</ele>
        <time>2021-08-12T10:49:30Z</time>
      </trkpt>
      <trkpt lat="47.29618" lon="6.9598">
        <ele>654.9</ele>
        <time>2021-08-12T10:50:40Z</time>
      </trkpt>
      <trkpt lat="47.29616" lon="6.95962">
        <ele>653.5</ele>
        <time>2021-08-12T10:50:41Z</time>
      </trkpt>
      <trkpt lat="47.2961" lon="6.95953">
        <ele>652.8</ele>
        <time>2021-08-12T10:50:42Z</time>
      </trkpt>
      <trkpt lat="47.29604" lon="6.95945">
        <ele>652.1</ele>
        <time>2021-08-12T10:50:44Z</time>
      </trkpt>
      <trkpt lat="47.29596" lon="6.95936">
        <ele>651.1</ele>
        <time>2021-08-12T10:50:45Z</time>
      </trkpt>
      <trkpt lat="47.2959" lon="6.95931">
        <ele>650.4</ele>
        <time>2021-08-12T10:50:46Z</time>
      </trkpt>
      <trkpt lat="47.29586" lon="6.95924">
        <ele>649.6</ele>
        <time>2021-08-12T10:50:48Z</time>
      </trkpt>
      <trkpt lat="47.29581" lon="6.95919">
        <ele>648.8</ele>
        <time>2021-08-12T10:50:49Z</time>
      </trkpt>
      <trkpt lat="47.29577" lon="6.95914">
        <ele>648.2</ele>
        <time>2021-08-12T10:50:50Z</time>
      </trkpt>
      <trkpt lat="47.29575" lon="6.95909">
        <ele>647.6</ele>
        <time>2021-08-12T10:50:52Z</time>
      </trkpt>
      <trkpt lat="47.29573" lon="6.95904">
        <ele>647.1</ele>
        <time>2021-08-12T10:50:53Z</time>
      </trkpt>
      <trkpt lat="47.29572" lon="6.959">
        <ele>646.7</ele>
        <time>2021-08-12T10:50:54Z</time>
      </trkpt>
      <trkpt lat="47.29571" lon="6.95893">
        <ele>646.1</ele>
        <time>2021-08-12T10:50:55Z</time>
      </trkpt>
      <trkpt lat="47.29569" lon="6.95888">
        <ele>645.6</ele>
        <time>2021-08-12T10:50:57Z</time>
      </trkpt>
      <trkpt lat="47.29566" lon="6.95882">
        <ele>645</ele>
        <time>2021-08-12T10:50:58Z</time>
      </trkpt>
      <trkpt lat="47.29565" lon="6.95879">
        <ele>644.7</ele>
        <time>2021-08-12T10:50:59Z</time>
      </trkpt>
      <trkpt lat="47.29562" lon="6.95874">
        <ele>644.2</ele>
        <time>2021-08-12T10:51:00Z</time>
      </trkpt>
      <trkpt lat="47.2956" lon="6.95862">
        <ele>643.1</ele>
        <time>2021-08-12T10:51:02Z</time>
      </trkpt>
      <trkpt lat="47.29556" lon="6.95853">
        <ele>642</ele>
        <time>2021-08-12T10:51:03Z</time>
      </trkpt>
      <trkpt lat="47.29552" lon="6.95849">
        <ele>641.4</ele>
        <time>2021-08-12T10:51:04Z</time>
      </trkpt>
      <trkpt lat="47.2955" lon="6.95843">
        <ele>640.6</ele>
        <time>2021-08-12T10:51:06Z</time>
      </trkpt>
      <trkpt lat="47.29547" lon="6.95836">
        <ele>639.8</ele>
        <time>2021-08-12T10:51:07Z</time>
      </trkpt>
      <trkpt lat="47.29545" lon="6.95829">
        <ele>639</ele>
        <time>2021-08-12T10:51:08Z</time>
      </trkpt>
      <trkpt lat="47.29541" lon="6.95816">
        <ele>637.4</ele>
        <time>2021-08-12T10:51:10Z</time>
      </trkpt>
      <trkpt lat="47.29539" lon="6.95812">
        <ele>636.8</ele>
        <time>2021-08-12T10:51:11Z</time>
      </trkpt>
      <trkpt lat="47.29537" lon="6.95799">
        <ele>635.5</ele>
        <time>2021-08-12T10:51:13Z</time>
      </trkpt>
      <trkpt lat="47.29535" lon="6.95785">
        <ele>634</ele>
        <time>2021-08-12T10:51:15Z</time>
      </trkpt>
      <trkpt lat="47.29532" lon="6.95771">
        <ele>632.7</ele>
        <time>2021-08-12T10:51:17Z</time>
      </trkpt>
      <trkpt lat="47.29531" lon="6.95765">
        <ele>632</ele>
        <time>2021-08-12T10:51:18Z</time>
      </trkpt>
      <trkpt lat="47.29525" lon="6.95752">
        <ele>630.7</ele>
        <time>2021-08-12T10:51:20Z</time>
      </trkpt>
      <trkpt lat="47.29521" lon="6.95735">
        <ele>629.1</ele>
        <time>2021-08-12T10:51:22Z</time>
      </trkpt>
      <trkpt lat="47.29519" lon="6.95717">
        <ele>627.6</ele>
        <time>2021-08-12T10:51:24Z</time>
      </trkpt>
      <trkpt lat="47.29516" lon="6.95699">
        <ele>626.4</ele>
        <time>2021-08-12T10:51:26Z</time>
      </trkpt>
      <trkpt lat="47.29513" lon="6.95684">
        <ele>625.2</ele>
        <time>2021-08-12T10:51:28Z</time>
      </trkpt>
      <trkpt lat="47.29511" lon="6.9567">
        <ele>624.1</ele>
        <time>2021-08-12T10:51:30Z</time>
      </trkpt>
      <trkpt lat="47.2951" lon="6.95657">
        <ele>623.1</ele>
        <time>2021-08-12T10:51:32Z</time>
      </trkpt>
      <trkpt lat="47.2951" lon="6.95652">
        <ele>622.5</ele>
        <time>2021-08-12T10:51:33Z</time>
      </trkpt>
      <trkpt lat="47.29508" lon="6.95638">
        <ele>621.2</ele>
        <time>2021-08-12T10:51:35Z</time>
      </trkpt>
      <trkpt lat="47.29507" lon="6.95632">
        <ele>620.6</ele>
        <time>2021-08-12T10:51:36Z</time>
      </trkpt>
      <trkpt lat="47.29505" lon="6.95618">
        <ele>619.1</ele>
        <time>2021-08-12T10:51:38Z</time>
      </trkpt>
      <trkpt lat="47.29504" lon="6.95609">
        <ele>618.1</ele>
        <time>2021-08-12T10:51:39Z</time>
      </trkpt>
      <trkpt lat="47.29505" lon="6.95598">
        <ele>617</ele>
        <time>2021-08-12T10:51:40Z</time>
      </trkpt>
      <trkpt lat="47.29508" lon="6.95578">
        <ele>615.4</ele>
        <time>2021-08-12T10:51:42Z</time>
      </trkpt>
      <trkpt lat="47.2951" lon="6.95557">
        <ele>613.9</ele>
        <time>2021-08-12T10:51:44Z</time>
      </trkpt>
      <trkpt lat="47.29514" lon="6.95536">
        <ele>612.6</ele>
        <time>2021-08-12T10:51:46Z</time>
      </trkpt>
      <trkpt lat="47.29519" lon="6.95515">
        <ele>611.6</ele>
        <time>2021-08-12T10:51:48Z</time>
      </trkpt>
      <trkpt lat="47.29524" lon="6.95495">
        <ele>610.8</ele>
        <time>2021-08-12T10:51:50Z</time>
      </trkpt>
      <trkpt lat="47.2953" lon="6.95481">
        <ele>610.2</ele>
        <time>2021-08-12T10:51:52Z</time>
      </trkpt>
      <trkpt lat="47.29535" lon="6.95474">
        <ele>609.7</ele>
        <time>2021-08-12T10:51:54Z</time>
      </trkpt>
      <trkpt lat="47.29536" lon="6.95471">
        <ele>609.6</ele>
        <time>2021-08-12T10:51:55Z</time>
      </trkpt>
      <trkpt lat="47.29537" lon="6.9547">
        <ele>609.5</ele>
        <time>2021-08-12T10:51:56Z</time>
      </trkpt>
      <trkpt lat="47.29538" lon="6.95471">
        <ele>609.4</ele>
        <time>2021-08-12T10:51:58Z</time>
      </trkpt>
      <trkpt lat="47.29539" lon="6.95471">
        <ele>609.3</ele>
        <time>2021-08-12T10:51:59Z</time>
      </trkpt>
      <trkpt lat="47.29539" lon="6.95471">
        <ele>609.3</ele>
        <time>2021-08-12T10:52:00Z</time>
      </trkpt>
      <trkpt lat="47.29539" lon="6.9547">
        <ele>609.3</ele>
        <time>2021-08-12T10:52:02Z</time>
      </trkpt>
      <trkpt lat="47.29539" lon="6.95469">
        <ele>609.2</ele>
        <time>2021-08-12T10:52:03Z</time>
      </trkpt>
      <trkpt lat="47.29539" lon="6.95469">
        <ele>609.2</ele>
        <time>2021-08-12T10:52:04Z</time>
      </trkpt>
      <trkpt lat="47.29539" lon="6.95468">
        <ele>609.2</ele>
        <time>2021-08-12T10:52:05Z</time>
      </trkpt>
      <trkpt lat="47.29548" lon="6.95455">
        <ele>608.3</ele>
        <time>2021-08-12T10:52:07Z</time>
      </trkpt>
      <trkpt lat="47.29556" lon="6.95443">
        <ele>607.5</ele>
        <time>2021-08-12T10:52:08Z</time>
      </trkpt>
      <trkpt lat="47.29564" lon="6.9543">
        <ele>606.8</ele>
        <time>2021-08-12T10:53:11Z</time>
      </trkpt>
      <trkpt lat="47.29572" lon="6.95417">
        <ele>606</ele>
        <time>2021-08-12T10:53:12Z</time>
      </trkpt>
      <trkpt lat="47.2958" lon="6.95408">
        <ele>605</ele>
        <time>2021-08-12T10:53:14Z</time>
      </trkpt>
      <trkpt lat="47.29581" lon="6.95395">
        <ele>604.1</ele>
        <time>2021-08-12T10:53:16Z</time>
      </trkpt>
      <trkpt lat="47.2958" lon="6.95388">
        <ele>603.6</ele>
        <time>2021-08-12T10:53:17Z</time>
      </trkpt>
      <trkpt lat="47.29579" lon="6.95369">
        <ele>602.2</ele>
        <time>2021-08-12T10:53:19Z</time>
      </trkpt>
      <trkpt lat="47.29577" lon="6.9536">
        <ele>601.5</ele>
        <time>2021-08-12T10:53:20Z</time>
      </trkpt>
      <trkpt lat="47.29572" lon="6.95344">
        <ele>600</ele>
        <time>2021-08-12T10:53:22Z</time>
      </trkpt>
      <trkpt lat="47.2957" lon="6.95333">
        <ele>599</ele>
        <time>2021-08-12T10:53:23Z</time>
      </trkpt>
      <trkpt lat="47.29565" lon="6.95321">
        <ele>597.7</ele>
        <time>2021-08-12T10:53:24Z</time>
      </trkpt>
      <trkpt lat="47.29555" lon="6.953">
        <ele>595.5</ele>
        <time>2021-08-12T10:53:26Z</time>
      </trkpt>
      <trkpt lat="47.29549" lon="6.95285">
        <ele>593.8</ele>
        <time>2021-08-12T10:53:27Z</time>
      </trkpt>
      <trkpt lat="47.29538" lon="6.9527">
        <ele>591.3</ele>
        <time>2021-08-12T10:53:29Z</time>
      </trkpt>
      <trkpt lat="47.29532" lon="6.95262">
        <ele>590.2</ele>
        <time>2021-08-12T10:53:30Z</time>
      </trkpt>
      <trkpt lat="47.29525" lon="6.95254">
        <ele>588.9</ele>
        <time>2021-08-12T10:53:31Z</time>
      </trkpt>
      <trkpt lat="47.29515" lon="6.9524">
        <ele>586.9</ele>
        <time>2021-08-12T10:53:33Z</time>
      </trkpt>
      <trkpt lat="47.29507" lon="6.95224">
        <ele>585</ele>
        <time>2021-08-12T10:53:35Z</time>
      </trkpt>
      <trkpt lat="47.29501" lon="6.95211">
        <ele>583.6</ele>
        <time>2021-08-12T10:53:37Z</time>
      </trkpt>
      <trkpt lat="47.29503" lon="6.94936">
        <ele>575.6</ele>
        <time>2021-08-12T10:54:27Z</time>
      </trkpt>
      <trkpt lat="47.29498" lon="6.94932">
        <ele>575.5</ele>
        <time>2021-08-12T10:54:28Z</time>
      </trkpt>
      <trkpt lat="47.29493" lon="6.94927">
        <ele>575.4</ele>
        <time>2021-08-12T10:54:29Z</time>
      </trkpt>
      <trkpt lat="47.29487" lon="6.94919">
        <ele>575.2</ele>
        <time>2021-08-12T10:54:30Z</time>
      </trkpt>
      <trkpt lat="47.29482" lon="6.94911">
        <ele>575</ele>
        <time>2021-08-12T10:54:32Z</time>
      </trkpt>
      <trkpt lat="47.29477" lon="6.94906">
        <ele>574.7</ele>
        <time>2021-08-12T10:54:33Z</time>
      </trkpt>
      <trkpt lat="47.29473" lon="6.94901">
        <ele>574.4</ele>
        <time>2021-08-12T10:54:34Z</time>
      </trkpt>
      <trkpt lat="47.29469" lon="6.94898">
        <ele>574.2</ele>
        <time>2021-08-12T10:54:35Z</time>
      </trkpt>
      <trkpt lat="47.29461" lon="6.94891">
        <ele>573.4</ele>
        <time>2021-08-12T10:54:36Z</time>
      </trkpt>
      <trkpt lat="47.29457" lon="6.94886">
        <ele>572.8</ele>
        <time>2021-08-12T10:54:37Z</time>
      </trkpt>
      <trkpt lat="47.29453" lon="6.94879">
        <ele>573.8</ele>
        <time>2021-08-12T10:54:38Z</time>
      </trkpt>
      <trkpt lat="47.29449" lon="6.94871">
        <ele>575.7</ele>
        <time>2021-08-12T10:54:40Z</time>
      </trkpt>
      <trkpt lat="47.29446" lon="6.94854">
        <ele>578.9</ele>
        <time>2021-08-12T10:54:41Z</time>
      </trkpt>
      <trkpt lat="47.29444" lon="6.94847">
        <ele>580.1</ele>
        <time>2021-08-12T10:54:42Z</time>
      </trkpt>
      <trkpt lat="47.29445" lon="6.94837">
        <ele>581.8</ele>
        <time>2021-08-12T10:54:44Z</time>
      </trkpt>
      <trkpt lat="47.29444" lon="6.94827">
        <ele>583.4</ele>
        <time>2021-08-12T10:54:46Z</time>
      </trkpt>
      <trkpt lat="47.29445" lon="6.94823">
        <ele>584.1</ele>
        <time>2021-08-12T10:54:47Z</time>
      </trkpt>
      <trkpt lat="47.29446" lon="6.94819">
        <ele>584.8</ele>
        <time>2021-08-12T10:54:48Z</time>
      </trkpt>
      <trkpt lat="47.29448" lon="6.94815">
        <ele>585.6</ele>
        <time>2021-08-12T10:54:49Z</time>
      </trkpt>
      <trkpt lat="47.29448" lon="6.94812">
        <ele>586.1</ele>
        <time>2021-08-12T10:54:50Z</time>
      </trkpt>
      <trkpt lat="47.29447" lon="6.94809">
        <ele>586.8</ele>
        <time>2021-08-12T10:54:52Z</time>
      </trkpt>
      <trkpt lat="47.29447" lon="6.94804">
        <ele>587.6</ele>
        <time>2021-08-12T10:54:53Z</time>
      </trkpt>
      <trkpt lat="47.29447" lon="6.94803">
        <ele>587.8</ele>
        <time>2021-08-12T10:54:54Z</time>
      </trkpt>
      <trkpt lat="47.29447" lon="6.94798">
        <ele>588.7</ele>
        <time>2021-08-12T10:54:56Z</time>
      </trkpt>
      <trkpt lat="47.29447" lon="6.94796">
        <ele>589</ele>
        <time>2021-08-12T10:54:57Z</time>
      </trkpt>
      <trkpt lat="47.29448" lon="6.94795">
        <ele>589.2</ele>
        <time>2021-08-12T10:54:58Z</time>
      </trkpt>
      <trkpt lat="47.29448" lon="6.94793">
        <ele>589.5</ele>
        <time>2021-08-12T10:54:59Z</time>
      </trkpt>
      <trkpt lat="47.29448" lon="6.94793">
        <ele>589.7</ele>
        <time>2021-08-12T10:55:01Z</time>
      </trkpt>
      <trkpt lat="47.29447" lon="6.94789">
        <ele>590.4</ele>
        <time>2021-08-12T10:55:03Z</time>
      </trkpt>
      <trkpt lat="47.29446" lon="6.94785">
        <ele>591.1</ele>
        <time>2021-08-12T10:55:04Z</time>
      </trkpt>
      <trkpt lat="47.29447" lon="6.94778">
        <ele>592.4</ele>
        <time>2021-08-12T10:55:05Z</time>
      </trkpt>
      <trkpt lat="47.2945" lon="6.94775">
        <ele>593.2</ele>
        <time>2021-08-12T10:55:07Z</time>
      </trkpt>
      <trkpt lat="47.29451" lon="6.94773">
        <ele>593.7</ele>
        <time>2021-08-12T10:55:08Z</time>
      </trkpt>
      <trkpt lat="47.29451" lon="6.94769">
        <ele>594.4</ele>
        <time>2021-08-12T10:55:10Z</time>
      </trkpt>
      <trkpt lat="47.29452" lon="6.94767">
        <ele>594.4</ele>
        <time>2021-08-12T10:55:11Z</time>
      </trkpt>
      <trkpt lat="47.29453" lon="6.94766">
        <ele>594.2</ele>
        <time>2021-08-12T10:55:13Z</time>
      </trkpt>
      <trkpt lat="47.29453" lon="6.94767">
        <ele>593.9</ele>
        <time>2021-08-12T10:55:14Z</time>
      </trkpt>
      <trkpt lat="47.29454" lon="6.94768">
        <ele>593.6</ele>
        <time>2021-08-12T10:55:16Z</time>
      </trkpt>
      <trkpt lat="47.29454" lon="6.9477">
        <ele>593.4</ele>
        <time>2021-08-12T10:55:17Z</time>
      </trkpt>
      <trkpt lat="47.29454" lon="6.94772">
        <ele>592.9</ele>
        <time>2021-08-12T10:55:18Z</time>
      </trkpt>
      <trkpt lat="47.29458" lon="6.94823">
        <ele>583.5</ele>
        <time>2021-08-12T10:55:22Z</time>
      </trkpt>
      <trkpt lat="47.29459" lon="6.94848">
        <ele>579.1</ele>
        <time>2021-08-12T10:55:24Z</time>
      </trkpt>
      <trkpt lat="47.29458" lon="6.94859">
        <ele>577.1</ele>
        <time>2021-08-12T10:55:25Z</time>
      </trkpt>
      <trkpt lat="47.29458" lon="6.94878">
        <ele>573.3</ele>
        <time>2021-08-12T10:55:27Z</time>
      </trkpt>
      <trkpt lat="47.2946" lon="6.94887">
        <ele>571.4</ele>
        <time>2021-08-12T10:55:28Z</time>
      </trkpt>
      <trkpt lat="47.29468" lon="6.94902">
        <ele>569.9</ele>
        <time>2021-08-12T10:55:30Z</time>
      </trkpt>
      <trkpt lat="47.29477" lon="6.94917">
        <ele>568.5</ele>
        <time>2021-08-12T10:55:32Z</time>
      </trkpt>
      <trkpt lat="47.29482" lon="6.94927">
        <ele>567.8</ele>
        <time>2021-08-12T10:55:33Z</time>
      </trkpt>
      <trkpt lat="47.29487" lon="6.94938">
        <ele>567.1</ele>
        <time>2021-08-12T10:55:34Z</time>
      </trkpt>
      <trkpt lat="47.2949" lon="6.94945">
        <ele>566.7</ele>
        <time>2021-08-12T10:55:35Z</time>
      </trkpt>
      <trkpt lat="47.29492" lon="6.94948">
        <ele>566.4</ele>
        <time>2021-08-12T10:55:36Z</time>
      </trkpt>
      <trkpt lat="47.29499" lon="6.9496">
        <ele>565.5</ele>
        <time>2021-08-12T10:55:38Z</time>
      </trkpt>
      <trkpt lat="47.29505" lon="6.94973">
        <ele>564.5</ele>
        <time>2021-08-12T10:55:40Z</time>
      </trkpt>
      <trkpt lat="47.29502" lon="6.94983">
        <ele>563.4</ele>
        <time>2021-08-12T10:55:41Z</time>
      </trkpt>
      <trkpt lat="47.295" lon="6.94989">
        <ele>562.8</ele>
        <time>2021-08-12T10:55:43Z</time>
      </trkpt>
      <trkpt lat="47.29498" lon="6.95">
        <ele>561.6</ele>
        <time>2021-08-12T10:55:44Z</time>
      </trkpt>
      <trkpt lat="47.29489" lon="6.95018">
        <ele>559.2</ele>
        <time>2021-08-12T10:55:45Z</time>
      </trkpt>
      <trkpt lat="47.29482" lon="6.9503">
        <ele>557.8</ele>
        <time>2021-08-12T10:55:47Z</time>
      </trkpt>
      <trkpt lat="47.29473" lon="6.95044">
        <ele>556.2</ele>
        <time>2021-08-12T10:55:48Z</time>
      </trkpt>
      <trkpt lat="47.2946" lon="6.95061">
        <ele>554.5</ele>
        <time>2021-08-12T10:55:50Z</time>
      </trkpt>
      <trkpt lat="47.29454" lon="6.95067">
        <ele>554</ele>
        <time>2021-08-12T10:55:51Z</time>
      </trkpt>
      <trkpt lat="47.29445" lon="6.95074">
        <ele>553.1</ele>
        <time>2021-08-12T10:55:53Z</time>
      </trkpt>
      <trkpt lat="47.29438" lon="6.95079">
        <ele>552.7</ele>
        <time>2021-08-12T10:55:54Z</time>
      </trkpt>
      <trkpt lat="47.29432" lon="6.95085">
        <ele>552.2</ele>
        <time>2021-08-12T10:55:55Z</time>
      </trkpt>
      <trkpt lat="47.29425" lon="6.95092">
        <ele>551.6</ele>
        <time>2021-08-12T10:55:56Z</time>
      </trkpt>
      <trkpt lat="47.29415" lon="6.95107">
        <ele>550.2</ele>
        <time>2021-08-12T10:55:58Z</time>
      </trkpt>
      <trkpt lat="47.2941" lon="6.95114">
        <ele>549.5</ele>
        <time>2021-08-12T10:55:59Z</time>
      </trkpt>
      <trkpt lat="47.29406" lon="6.95119">
        <ele>548.8</ele>
        <time>2021-08-12T10:56:00Z</time>
      </trkpt>
      <trkpt lat="47.29401" lon="6.95127">
        <ele>547.9</ele>
        <time>2021-08-12T10:56:02Z</time>
      </trkpt>
      <trkpt lat="47.29397" lon="6.95136">
        <ele>547</ele>
        <time>2021-08-12T10:56:04Z</time>
      </trkpt>
      <trkpt lat="47.29396" lon="6.95142">
        <ele>546.5</ele>
        <time>2021-08-12T10:56:05Z</time>
      </trkpt>
      <trkpt lat="47.29395" lon="6.95149">
        <ele>545.9</ele>
        <time>2021-08-12T10:56:06Z</time>
      </trkpt>
      <trkpt lat="47.29392" lon="6.95169">
        <ele>544.3</ele>
        <time>2021-08-12T10:56:08Z</time>
      </trkpt>
      <trkpt lat="47.29391" lon="6.95186">
        <ele>542.9</ele>
        <time>2021-08-12T10:56:10Z</time>
      </trkpt>
      <trkpt lat="47.29391" lon="6.95195">
        <ele>542.3</ele>
        <time>2021-08-12T10:56:11Z</time>
      </trkpt>
      <trkpt lat="47.29393" lon="6.95208">
        <ele>541.2</ele>
        <time>2021-08-12T10:56:13Z</time>
      </trkpt>
      <trkpt lat="47.29393" lon="6.9521">
        <ele>541</ele>
        <time>2021-08-12T10:56:14Z</time>
      </trkpt>
      <trkpt lat="47.29393" lon="6.95217">
        <ele>540.4</ele>
        <time>2021-08-12T10:56:16Z</time>
      </trkpt>
      <trkpt lat="47.29392" lon="6.95224">
        <ele>539.9</ele>
        <time>2021-08-12T10:56:17Z</time>
      </trkpt>
      <trkpt lat="47.2939" lon="6.95228">
        <ele>539.4</ele>
        <time>2021-08-12T10:56:18Z</time>
      </trkpt>
      <trkpt lat="47.29387" lon="6.95225">
        <ele>538.9</ele>
        <time>2021-08-12T10:56:20Z</time>
      </trkpt>
      <trkpt lat="47.29385" lon="6.95224">
        <ele>538.7</ele>
        <time>2021-08-12T10:56:21Z</time>
      </trkpt>
      <trkpt lat="47.29383" lon="6.95222">
        <ele>538.4</ele>
        <time>2021-08-12T10:56:23Z</time>
      </trkpt>
      <trkpt lat="47.29382" lon="6.95222">
        <ele>538.2</ele>
        <time>2021-08-12T10:56:24Z</time>
      </trkpt>
      <trkpt lat="47.2938" lon="6.95221">
        <ele>537.9</ele>
        <time>2021-08-12T10:56:25Z</time>
      </trkpt>
      <trkpt lat="47.29379" lon="6.9522">
        <ele>537.8</ele>
        <time>2021-08-12T10:56:26Z</time>
      </trkpt>
      <trkpt lat="47.29375" lon="6.9521">
        <ele>536.6</ele>
        <time>2021-08-12T10:56:27Z</time>
      </trkpt>
      <trkpt lat="47.29346" lon="6.95168">
        <ele>527</ele>
        <time>2021-08-12T10:56:29Z</time>
      </trkpt>
      <trkpt lat="47.29327" lon="6.95148">
        <ele>521</ele>
        <time>2021-08-12T10:56:32Z</time>
      </trkpt>
      <trkpt lat="47.29324" lon="6.95141">
        <ele>520.1</ele>
        <time>2021-08-12T10:56:33Z</time>
      </trkpt>
      <trkpt lat="47.2932" lon="6.95122">
        <ele>519.1</ele>
        <time>2021-08-12T10:56:35Z</time>
      </trkpt>
      <trkpt lat="47.29319" lon="6.95112">
        <ele>519.6</ele>
        <time>2021-08-12T10:56:36Z</time>
      </trkpt>
      <trkpt lat="47.29319" lon="6.95096">
        <ele>520.1</ele>
        <time>2021-08-12T10:56:38Z</time>
      </trkpt>
      <trkpt lat="47.29319" lon="6.95083">
        <ele>520.7</ele>
        <time>2021-08-12T10:56:40Z</time>
      </trkpt>
      <trkpt lat="47.29317" lon="6.95085">
        <ele>519.4</ele>
        <time>2021-08-12T10:56:41Z</time>
      </trkpt>
      <trkpt lat="47.29317" lon="6.95088">
        <ele>518.7</ele>
        <time>2021-08-12T10:56:43Z</time>
      </trkpt>
      <trkpt lat="47.29317" lon="6.9509">
        <ele>518.3</ele>
        <time>2021-08-12T10:56:44Z</time>
      </trkpt>
      <trkpt lat="47.29315" lon="6.95094">
        <ele>517.6</ele>
        <time>2021-08-12T10:56:46Z</time>
      </trkpt>
      <trkpt lat="47.29315" lon="6.95095">
        <ele>517.3</ele>
        <time>2021-08-12T10:56:47Z</time>
      </trkpt>
      <trkpt lat="47.29308" lon="6.95104">
        <ele>513.4</ele>
        <time>2021-08-12T10:56:48Z</time>
      </trkpt>
      <trkpt lat="47.29303" lon="6.95113">
        <ele>511.3</ele>
        <time>2021-08-12T10:56:49Z</time>
      </trkpt>
      <trkpt lat="47.293" lon="6.95117">
        <ele>509.3</ele>
        <time>2021-08-12T10:56:51Z</time>
      </trkpt>
      <trkpt lat="47.29276" lon="6.95106">
        <ele>501.8</ele>
        <time>2021-08-12T10:58:49Z</time>
      </trkpt>
      <trkpt lat="47.29275" lon="6.95101">
        <ele>501.8</ele>
        <time>2021-08-12T10:58:50Z</time>
      </trkpt>
      <trkpt lat="47.29273" lon="6.95092">
        <ele>501.8</ele>
        <time>2021-08-12T10:58:52Z</time>
      </trkpt>
      <trkpt lat="47.29272" lon="6.95081">
        <ele>501.8</ele>
        <time>2021-08-12T10:58:53Z</time>
      </trkpt>
      <trkpt lat="47.29272" lon="6.95076">
        <ele>501.8</ele>
        <time>2021-08-12T10:58:55Z</time>
      </trkpt>
      <trkpt lat="47.29271" lon="6.95071">
        <ele>501.9</ele>
        <time>2021-08-12T10:58:56Z</time>
      </trkpt>
      <trkpt lat="47.29269" lon="6.95062">
        <ele>501.9</ele>
        <time>2021-08-12T10:58:58Z</time>
      </trkpt>
      <trkpt lat="47.29268" lon="6.95056">
        <ele>501.8</ele>
        <time>2021-08-12T10:58:59Z</time>
      </trkpt>
      <trkpt lat="47.29267" lon="6.9505">
        <ele>501.7</ele>
        <time>2021-08-12T10:59:00Z</time>
      </trkpt>
      <trkpt lat="47.29266" lon="6.95044">
        <ele>501.5</ele>
        <time>2021-08-12T10:59:02Z</time>
      </trkpt>
      <trkpt lat="47.29264" lon="6.95037">
        <ele>501.2</ele>
        <time>2021-08-12T10:59:03Z</time>
      </trkpt>
      <trkpt lat="47.29259" lon="6.95023">
        <ele>500.7</ele>
        <time>2021-08-12T10:59:05Z</time>
      </trkpt>
      <trkpt lat="47.29255" lon="6.95009">
        <ele>500.1</ele>
        <time>2021-08-12T10:59:07Z</time>
      </trkpt>
      <trkpt lat="47.29252" lon="6.95001">
        <ele>499.9</ele>
        <time>2021-08-12T10:59:08Z</time>
      </trkpt>
      <trkpt lat="47.29248" lon="6.94984">
        <ele>499.6</ele>
        <time>2021-08-12T10:59:10Z</time>
      </trkpt>
      <trkpt lat="47.29243" lon="6.94968">
        <ele>499.5</ele>
        <time>2021-08-12T10:59:12Z</time>
      </trkpt>
      <trkpt lat="47.29239" lon="6.94952">
        <ele>499.8</ele>
        <time>2021-08-12T10:59:14Z</time>
      </trkpt>
      <trkpt lat="47.29237" lon="6.9494">
        <ele>500.2</ele>
        <time>2021-08-12T10:59:16Z</time>
      </trkpt>
      <trkpt lat="47.29235" lon="6.94934">
        <ele>500.4</ele>
        <time>2021-08-12T10:59:17Z</time>
      </trkpt>
      <trkpt lat="47.29235" lon="6.9493">
        <ele>500.5</ele>
        <time>2021-08-12T10:59:18Z</time>
      </trkpt>
      <trkpt lat="47.29234" lon="6.94922">
        <ele>500.8</ele>
        <time>2021-08-12T10:59:20Z</time>
      </trkpt>
      <trkpt lat="47.29234" lon="6.94919">
        <ele>500.9</ele>
        <time>2021-08-12T10:59:21Z</time>
      </trkpt>
      <trkpt lat="47.29231" lon="6.94917">
        <ele>501.1</ele>
        <time>2021-08-12T10:59:23Z</time>
      </trkpt>
      <trkpt lat="47.2923" lon="6.94913">
        <ele>501</ele>
        <time>2021-08-12T10:59:24Z</time>
      </trkpt>
      <trkpt lat="47.2923" lon="6.94907">
        <ele>500.9</ele>
        <time>2021-08-12T10:59:25Z</time>
      </trkpt>
      <trkpt lat="47.29229" lon="6.94902">
        <ele>500.8</ele>
        <time>2021-08-12T10:59:26Z</time>
      </trkpt>
      <trkpt lat="47.29227" lon="6.94894">
        <ele>500.5</ele>
        <time>2021-08-12T10:59:28Z</time>
      </trkpt>
      <trkpt lat="47.29225" lon="6.94885">
        <ele>500.1</ele>
        <time>2021-08-12T10:59:29Z</time>
      </trkpt>
      <trkpt lat="47.29219" lon="6.94868">
        <ele>499.1</ele>
        <time>2021-08-12T10:59:31Z</time>
      </trkpt>
      <trkpt lat="47.29212" lon="6.9485">
        <ele>498.2</ele>
        <time>2021-08-12T10:59:33Z</time>
      </trkpt>
      <trkpt lat="47.29206" lon="6.94836">
        <ele>497.7</ele>
        <time>2021-08-12T10:59:35Z</time>
      </trkpt>
      <trkpt lat="47.29199" lon="6.94819">
        <ele>497.4</ele>
        <time>2021-08-12T10:59:37Z</time>
      </trkpt>
      <trkpt lat="47.29192" lon="6.94805">
        <ele>497.4</ele>
        <time>2021-08-12T10:59:39Z</time>
      </trkpt>
      <trkpt lat="47.29189" lon="6.94797">
        <ele>497.5</ele>
        <time>2021-08-12T10:59:40Z</time>
      </trkpt>
      <trkpt lat="47.29186" lon="6.94789">
        <ele>497.5</ele>
        <time>2021-08-12T10:59:41Z</time>
      </trkpt>
      <trkpt lat="47.29184" lon="6.94782">
        <ele>497.5</ele>
        <time>2021-08-12T10:59:42Z</time>
      </trkpt>
      <trkpt lat="47.29179" lon="6.94765">
        <ele>497.3</ele>
        <time>2021-08-12T10:59:44Z</time>
      </trkpt>
      <trkpt lat="47.29172" lon="6.94748">
        <ele>497</ele>
        <time>2021-08-12T10:59:46Z</time>
      </trkpt>
      <trkpt lat="47.29165" lon="6.94735">
        <ele>496.8</ele>
        <time>2021-08-12T10:59:48Z</time>
      </trkpt>
      <trkpt lat="47.29156" lon="6.94723">
        <ele>496.8</ele>
        <time>2021-08-12T10:59:50Z</time>
      </trkpt>
      <trkpt lat="47.29149" lon="6.94712">
        <ele>496.9</ele>
        <time>2021-08-12T10:59:52Z</time>
      </trkpt>
      <trkpt lat="47.29145" lon="6.94696">
        <ele>497.1</ele>
        <time>2021-08-12T10:59:54Z</time>
      </trkpt>
      <trkpt lat="47.29142" lon="6.94681">
        <ele>497.3</ele>
        <time>2021-08-12T10:59:56Z</time>
      </trkpt>
      <trkpt lat="47.29138" lon="6.94663">
        <ele>497.6</ele>
        <time>2021-08-12T10:59:58Z</time>
      </trkpt>
      <trkpt lat="47.29136" lon="6.94656">
        <ele>497.7</ele>
        <time>2021-08-12T10:59:59Z</time>
      </trkpt>
      <trkpt lat="47.29135" lon="6.94648">
        <ele>497.8</ele>
        <time>2021-08-12T11:00:00Z</time>
      </trkpt>
      <trkpt lat="47.29132" lon="6.94641">
        <ele>498</ele>
        <time>2021-08-12T11:00:01Z</time>
      </trkpt>
      <trkpt lat="47.29131" lon="6.94637">
        <ele>498.1</ele>
        <time>2021-08-12T11:00:02Z</time>
      </trkpt>
      <trkpt lat="47.29128" lon="6.94628">
        <ele>498.3</ele>
        <time>2021-08-12T11:00:04Z</time>
      </trkpt>
      <trkpt lat="47.29126" lon="6.94624">
        <ele>498.4</ele>
        <time>2021-08-12T11:00:05Z</time>
      </trkpt>
      <trkpt lat="47.29124" lon="6.94621">
        <ele>498.6</ele>
        <time>2021-08-12T11:00:06Z</time>
      </trkpt>
      <trkpt lat="47.29122" lon="6.94618">
        <ele>498.7</ele>
        <time>2021-08-12T11:00:07Z</time>
      </trkpt>
      <trkpt lat="47.2912" lon="6.94612">
        <ele>498.9</ele>
        <time>2021-08-12T11:00:09Z</time>
      </trkpt>
      <trkpt lat="47.29119" lon="6.94609">
        <ele>499</ele>
        <time>2021-08-12T11:00:10Z</time>
      </trkpt>
      <trkpt lat="47.29118" lon="6.94603">
        <ele>499.3</ele>
        <time>2021-08-12T11:00:11Z</time>
      </trkpt>
      <trkpt lat="47.29118" lon="6.94601">
        <ele>499.3</ele>
        <time>2021-08-12T11:00:12Z</time>
      </trkpt>
      <trkpt lat="47.29116" lon="6.94595">
        <ele>499.6</ele>
        <time>2021-08-12T11:00:13Z</time>
      </trkpt>
      <trkpt lat="47.29115" lon="6.94592">
        <ele>499.8</ele>
        <time>2021-08-12T11:00:14Z</time>
      </trkpt>
      <trkpt lat="47.29113" lon="6.94588">
        <ele>500</ele>
        <time>2021-08-12T11:00:16Z</time>
      </trkpt>
      <trkpt lat="47.29111" lon="6.94584">
        <ele>500.2</ele>
        <time>2021-08-12T11:00:17Z</time>
      </trkpt>
      <trkpt lat="47.29109" lon="6.9458">
        <ele>500.4</ele>
        <time>2021-08-12T11:00:18Z</time>
      </trkpt>
      <trkpt lat="47.29108" lon="6.94576">
        <ele>500.6</ele>
        <time>2021-08-12T11:00:19Z</time>
      </trkpt>
      <trkpt lat="47.29105" lon="6.94573">
        <ele>500.9</ele>
        <time>2021-08-12T11:00:20Z</time>
      </trkpt>
      <trkpt lat="47.29103" lon="6.94569">
        <ele>501.1</ele>
        <time>2021-08-12T11:00:21Z</time>
      </trkpt>
      <trkpt lat="47.29102" lon="6.94568">
        <ele>501.2</ele>
        <time>2021-08-12T11:00:22Z</time>
      </trkpt>
      <trkpt lat="47.29101" lon="6.94564">
        <ele>501.4</ele>
        <time>2021-08-12T11:00:23Z</time>
      </trkpt>
      <trkpt lat="47.29099" lon="6.9456">
        <ele>501.6</ele>
        <time>2021-08-12T11:00:24Z</time>
      </trkpt>
      <trkpt lat="47.29097" lon="6.94554">
        <ele>501.9</ele>
        <time>2021-08-12T11:00:26Z</time>
      </trkpt>
      <trkpt lat="47.29096" lon="6.94552">
        <ele>502</ele>
        <time>2021-08-12T11:00:27Z</time>
      </trkpt>
      <trkpt lat="47.29095" lon="6.94551">
        <ele>502.1</ele>
        <time>2021-08-12T11:00:28Z</time>
      </trkpt>
      <trkpt lat="47.29092" lon="6.94547">
        <ele>502.3</ele>
        <time>2021-08-12T11:00:29Z</time>
      </trkpt>
      <trkpt lat="47.29091" lon="6.94546">
        <ele>502.4</ele>
        <time>2021-08-12T11:00:30Z</time>
      </trkpt>
      <trkpt lat="47.29089" lon="6.94544">
        <ele>502.5</ele>
        <time>2021-08-12T11:00:32Z</time>
      </trkpt>
      <trkpt lat="47.29086" lon="6.9454">
        <ele>502.7</ele>
        <time>2021-08-12T11:00:34Z</time>
      </trkpt>
      <trkpt lat="47.29082" lon="6.94539">
        <ele>502.8</ele>
        <time>2021-08-12T11:00:36Z</time>
      </trkpt>
      <trkpt lat="47.2908" lon="6.94539">
        <ele>502.8</ele>
        <time>2021-08-12T11:00:38Z</time>
      </trkpt>
      <trkpt lat="47.29075" lon="6.94535">
        <ele>502.9</ele>
        <time>2021-08-12T11:00:40Z</time>
      </trkpt>
      <trkpt lat="47.29067" lon="6.94532">
        <ele>502.9</ele>
        <time>2021-08-12T11:00:42Z</time>
      </trkpt>
      <trkpt lat="47.29055" lon="6.9453">
        <ele>502.5</ele>
        <time>2021-08-12T11:00:43Z</time>
      </trkpt>
      <trkpt lat="47.29049" lon="6.94529">
        <ele>502.2</ele>
        <time>2021-08-12T11:00:44Z</time>
      </trkpt>
      <trkpt lat="47.29037" lon="6.94524">
        <ele>501.4</ele>
        <time>2021-08-12T11:00:46Z</time>
      </trkpt>
      <trkpt lat="47.29032" lon="6.9452">
        <ele>501.1</ele>
        <time>2021-08-12T11:00:47Z</time>
      </trkpt>
      <trkpt lat="47.29027" lon="6.94515">
        <ele>500.7</ele>
        <time>2021-08-12T11:00:48Z</time>
      </trkpt>
      <trkpt lat="47.29015" lon="6.94504">
        <ele>499.9</ele>
        <time>2021-08-12T11:00:50Z</time>
      </trkpt>
      <trkpt lat="47.29003" lon="6.94494">
        <ele>499.2</ele>
        <time>2021-08-12T11:00:52Z</time>
      </trkpt>
      <trkpt lat="47.2899" lon="6.94485">
        <ele>498.5</ele>
        <time>2021-08-12T11:00:54Z</time>
      </trkpt>
      <trkpt lat="47.28979" lon="6.94472">
        <ele>498</ele>
        <time>2021-08-12T11:00:56Z</time>
      </trkpt>
      <trkpt lat="47.28969" lon="6.94457">
        <ele>497.8</ele>
        <time>2021-08-12T11:00:58Z</time>
      </trkpt>
      <trkpt lat="47.28965" lon="6.94448">
        <ele>497.8</ele>
        <time>2021-08-12T11:00:59Z</time>
      </trkpt>
      <trkpt lat="47.28962" lon="6.94436">
        <ele>497.9</ele>
        <time>2021-08-12T11:01:00Z</time>
      </trkpt>
      <trkpt lat="47.28955" lon="6.94418">
        <ele>497.9</ele>
        <time>2021-08-12T11:01:02Z</time>
      </trkpt>
      <trkpt lat="47.28947" lon="6.94404">
        <ele>498</ele>
        <time>2021-08-12T11:01:04Z</time>
      </trkpt>
      <trkpt lat="47.28944" lon="6.94398">
        <ele>498.1</ele>
        <time>2021-08-12T11:01:05Z</time>
      </trkpt>
      <trkpt lat="47.28936" lon="6.94379">
        <ele>498.3</ele>
        <time>2021-08-12T11:01:07Z</time>
      </trkpt>
      <trkpt lat="47.28932" lon="6.9437">
        <ele>498.5</ele>
        <time>2021-08-12T11:01:08Z</time>
      </trkpt>
      <trkpt lat="47.28927" lon="6.94362">
        <ele>498.7</ele>
        <time>2021-08-12T11:01:09Z</time>
      </trkpt>
      <trkpt lat="47.28919" lon="6.9435">
        <ele>498.9</ele>
        <time>2021-08-12T11:01:11Z</time>
      </trkpt>
      <trkpt lat="47.28915" lon="6.94345">
        <ele>499</ele>
        <time>2021-08-12T11:01:12Z</time>
      </trkpt>
      <trkpt lat="47.28908" lon="6.94335">
        <ele>499.2</ele>
        <time>2021-08-12T11:01:14Z</time>
      </trkpt>
      <trkpt lat="47.289" lon="6.94326">
        <ele>499.5</ele>
        <time>2021-08-12T11:01:16Z</time>
      </trkpt>
      <trkpt lat="47.28892" lon="6.94318">
        <ele>499.7</ele>
        <time>2021-08-12T11:01:18Z</time>
      </trkpt>
      <trkpt lat="47.2889" lon="6.9431">
        <ele>499.8</ele>
        <time>2021-08-12T11:01:20Z</time>
      </trkpt>
      <trkpt lat="47.28887" lon="6.94305">
        <ele>499.9</ele>
        <time>2021-08-12T11:01:21Z</time>
      </trkpt>
      <trkpt lat="47.28878" lon="6.94298">
        <ele>499.9</ele>
        <time>2021-08-12T11:01:23Z</time>
      </trkpt>
      <trkpt lat="47.28873" lon="6.94293">
        <ele>499.9</ele>
        <time>2021-08-12T11:01:24Z</time>
      </trkpt>
      <trkpt lat="47.28869" lon="6.94287">
        <ele>499.8</ele>
        <time>2021-08-12T11:01:25Z</time>
      </trkpt>
      <trkpt lat="47.28865" lon="6.94281">
        <ele>499.6</ele>
        <time>2021-08-12T11:01:26Z</time>
      </trkpt>
      <trkpt lat="47.28861" lon="6.94274">
        <ele>499.5</ele>
        <time>2021-08-12T11:01:27Z</time>
      </trkpt>
      <trkpt lat="47.28852" lon="6.94262">
        <ele>499.1</ele>
        <time>2021-08-12T11:01:29Z</time>
      </trkpt>
      <trkpt lat="47.28848" lon="6.94256">
        <ele>499</ele>
        <time>2021-08-12T11:01:30Z</time>
      </trkpt>
      <trkpt lat="47.2884" lon="6.94243">
        <ele>498.9</ele>
        <time>2021-08-12T11:01:32Z</time>
      </trkpt>
      <trkpt lat="47.28834" lon="6.94232">
        <ele>498.8</ele>
        <time>2021-08-12T11:01:34Z</time>
      </trkpt>
      <trkpt lat="47.28829" lon="6.94224">
        <ele>498.9</ele>
        <time>2021-08-12T11:01:36Z</time>
      </trkpt>
      <trkpt lat="47.28827" lon="6.94219">
        <ele>498.9</ele>
        <time>2021-08-12T11:01:37Z</time>
      </trkpt>
      <trkpt lat="47.28824" lon="6.94214">
        <ele>499</ele>
        <time>2021-08-12T11:01:38Z</time>
      </trkpt>
      <trkpt lat="47.28818" lon="6.94207">
        <ele>499.1</ele>
        <time>2021-08-12T11:01:40Z</time>
      </trkpt>
      <trkpt lat="47.28821" lon="6.94202">
        <ele>499.2</ele>
        <time>2021-08-12T11:01:41Z</time>
      </trkpt>
      <trkpt lat="47.28818" lon="6.94197">
        <ele>499.3</ele>
        <time>2021-08-12T11:01:42Z</time>
      </trkpt>
      <trkpt lat="47.28814" lon="6.94188">
        <ele>499.6</ele>
        <time>2021-08-12T11:01:44Z</time>
      </trkpt>
      <trkpt lat="47.28808" lon="6.94182">
        <ele>499.8</ele>
        <time>2021-08-12T11:01:45Z</time>
      </trkpt>
      <trkpt lat="47.28804" lon="6.94177">
        <ele>500</ele>
        <time>2021-08-12T11:01:47Z</time>
      </trkpt>
      <trkpt lat="47.28799" lon="6.94175">
        <ele>500.2</ele>
        <time>2021-08-12T11:01:48Z</time>
      </trkpt>
      <trkpt lat="47.28795" lon="6.94171">
        <ele>500.5</ele>
        <time>2021-08-12T11:01:50Z</time>
      </trkpt>
      <trkpt lat="47.28793" lon="6.9417">
        <ele>500.5</ele>
        <time>2021-08-12T11:01:51Z</time>
      </trkpt>
      <trkpt lat="47.28792" lon="6.94169">
        <ele>500.6</ele>
        <time>2021-08-12T11:01:52Z</time>
      </trkpt>
      <trkpt lat="47.28789" lon="6.94165">
        <ele>500.8</ele>
        <time>2021-08-12T11:01:53Z</time>
      </trkpt>
      <trkpt lat="47.28788" lon="6.94164">
        <ele>500.9</ele>
        <time>2021-08-12T11:01:54Z</time>
      </trkpt>
      <trkpt lat="47.28785" lon="6.9416">
        <ele>501.1</ele>
        <time>2021-08-12T11:01:55Z</time>
      </trkpt>
      <trkpt lat="47.28784" lon="6.94156">
        <ele>501.3</ele>
        <time>2021-08-12T11:01:57Z</time>
      </trkpt>
      <trkpt lat="47.28784" lon="6.94154">
        <ele>501.4</ele>
        <time>2021-08-12T11:01:58Z</time>
      </trkpt>
      <trkpt lat="47.28783" lon="6.94151">
        <ele>501.5</ele>
        <time>2021-08-12T11:01:59Z</time>
      </trkpt>
      <trkpt lat="47.28782" lon="6.94146">
        <ele>501.7</ele>
        <time>2021-08-12T11:02:01Z</time>
      </trkpt>
      <trkpt lat="47.28782" lon="6.94143">
        <ele>501.9</ele>
        <time>2021-08-12T11:02:02Z</time>
      </trkpt>
      <trkpt lat="47.28779" lon="6.94135">
        <ele>502.2</ele>
        <time>2021-08-12T11:02:04Z</time>
      </trkpt>
      <trkpt lat="47.28778" lon="6.94131">
        <ele>502.4</ele>
        <time>2021-08-12T11:02:05Z</time>
      </trkpt>
      <trkpt lat="47.28777" lon="6.9413">
        <ele>502.4</ele>
        <time>2021-08-12T11:02:06Z</time>
      </trkpt>
      <trkpt lat="47.28775" lon="6.94127">
        <ele>502.6</ele>
        <time>2021-08-12T11:02:08Z</time>
      </trkpt>
      <trkpt lat="47.28775" lon="6.94126">
        <ele>502.6</ele>
        <time>2021-08-12T11:02:09Z</time>
      </trkpt>
      <trkpt lat="47.28771" lon="6.94122">
        <ele>502.9</ele>
        <time>2021-08-12T11:02:10Z</time>
      </trkpt>
      <trkpt lat="47.28769" lon="6.9412">
        <ele>503.1</ele>
        <time>2021-08-12T11:02:11Z</time>
      </trkpt>
      <trkpt lat="47.28768" lon="6.94119">
        <ele>503.2</ele>
        <time>2021-08-12T11:02:12Z</time>
      </trkpt>
      <trkpt lat="47.28765" lon="6.94116">
        <ele>503.3</ele>
        <time>2021-08-12T11:02:14Z</time>
      </trkpt>
      <trkpt lat="47.28765" lon="6.94116">
        <ele>503.4</ele>
        <time>2021-08-12T11:02:15Z</time>
      </trkpt>
      <trkpt lat="47.28763" lon="6.94113">
        <ele>503.5</ele>
        <time>2021-08-12T11:02:16Z</time>
      </trkpt>
      <trkpt lat="47.28762" lon="6.94112">
        <ele>503.6</ele>
        <time>2021-08-12T11:02:17Z</time>
      </trkpt>
      <trkpt lat="47.2876" lon="6.9411">
        <ele>503.7</ele>
        <time>2021-08-12T11:02:18Z</time>
      </trkpt>
      <trkpt lat="47.2876" lon="6.9411">
        <ele>503.7</ele>
        <time>2021-08-12T11:02:19Z</time>
      </trkpt>
      <trkpt lat="47.28759" lon="6.94109">
        <ele>503.8</ele>
        <time>2021-08-12T11:02:20Z</time>
      </trkpt>
      <trkpt lat="47.28758" lon="6.94108">
        <ele>503.8</ele>
        <time>2021-08-12T11:02:21Z</time>
      </trkpt>
      <trkpt lat="47.28757" lon="6.94103">
        <ele>504.1</ele>
        <time>2021-08-12T11:02:22Z</time>
      </trkpt>
      <trkpt lat="47.28757" lon="6.94101">
        <ele>504.1</ele>
        <time>2021-08-12T11:02:23Z</time>
      </trkpt>
      <trkpt lat="47.28755" lon="6.94096">
        <ele>504.3</ele>
        <time>2021-08-12T11:02:25Z</time>
      </trkpt>
      <trkpt lat="47.28755" lon="6.94094">
        <ele>504.4</ele>
        <time>2021-08-12T11:02:26Z</time>
      </trkpt>
      <trkpt lat="47.28753" lon="6.94088">
        <ele>504.6</ele>
        <time>2021-08-12T11:02:27Z</time>
      </trkpt>
      <trkpt lat="47.2875" lon="6.94082">
        <ele>504.8</ele>
        <time>2021-08-12T11:02:29Z</time>
      </trkpt>
      <trkpt lat="47.28747" lon="6.94074">
        <ele>504.9</ele>
        <time>2021-08-12T11:02:30Z</time>
      </trkpt>
      <trkpt lat="47.28744" lon="6.94067">
        <ele>505.1</ele>
        <time>2021-08-12T11:02:32Z</time>
      </trkpt>
      <trkpt lat="47.2874" lon="6.94059">
        <ele>505.2</ele>
        <time>2021-08-12T11:02:33Z</time>
      </trkpt>
      <trkpt lat="47.28735" lon="6.94052">
        <ele>505.3</ele>
        <time>2021-08-12T11:02:35Z</time>
      </trkpt>
      <trkpt lat="47.28729" lon="6.94044">
        <ele>505.3</ele>
        <time>2021-08-12T11:02:37Z</time>
      </trkpt>
      <trkpt lat="47.28725" lon="6.9404">
        <ele>505.4</ele>
        <time>2021-08-12T11:02:38Z</time>
      </trkpt>
      <trkpt lat="47.28719" lon="6.94035">
        <ele>505.3</ele>
        <time>2021-08-12T11:02:39Z</time>
      </trkpt>
      <trkpt lat="47.28715" lon="6.9403">
        <ele>505.3</ele>
        <time>2021-08-12T11:02:41Z</time>
      </trkpt>
      <trkpt lat="47.28712" lon="6.94027">
        <ele>505.3</ele>
        <time>2021-08-12T11:02:42Z</time>
      </trkpt>
      <trkpt lat="47.28706" lon="6.94021">
        <ele>505.3</ele>
        <time>2021-08-12T11:02:44Z</time>
      </trkpt>
      <trkpt lat="47.28699" lon="6.94015">
        <ele>505.3</ele>
        <time>2021-08-12T11:02:45Z</time>
      </trkpt>
      <trkpt lat="47.28694" lon="6.9401">
        <ele>505.2</ele>
        <time>2021-08-12T11:02:47Z</time>
      </trkpt>
      <trkpt lat="47.28689" lon="6.94007">
        <ele>505.2</ele>
        <time>2021-08-12T11:02:48Z</time>
      </trkpt>
      <trkpt lat="47.28685" lon="6.94004">
        <ele>505.2</ele>
        <time>2021-08-12T11:02:49Z</time>
      </trkpt>
      <trkpt lat="47.28681" lon="6.94002">
        <ele>505.2</ele>
        <time>2021-08-12T11:02:50Z</time>
      </trkpt>
      <trkpt lat="47.28674" lon="6.93996">
        <ele>505.1</ele>
        <time>2021-08-12T11:02:52Z</time>
      </trkpt>
      <trkpt lat="47.28664" lon="6.93992">
        <ele>505.1</ele>
        <time>2021-08-12T11:02:54Z</time>
      </trkpt>
      <trkpt lat="47.28654" lon="6.93989">
        <ele>505.2</ele>
        <time>2021-08-12T11:02:55Z</time>
      </trkpt>
      <trkpt lat="47.28648" lon="6.93987">
        <ele>505.2</ele>
        <time>2021-08-12T11:02:56Z</time>
      </trkpt>
      <trkpt lat="47.28645" lon="6.93985">
        <ele>505.2</ele>
        <time>2021-08-12T11:02:57Z</time>
      </trkpt>
      <trkpt lat="47.28637" lon="6.93981">
        <ele>505.3</ele>
        <time>2021-08-12T11:02:59Z</time>
      </trkpt>
      <trkpt lat="47.28628" lon="6.93977">
        <ele>505.4</ele>
        <time>2021-08-12T11:03:00Z</time>
      </trkpt>
      <trkpt lat="47.28622" lon="6.93975">
        <ele>505.5</ele>
        <time>2021-08-12T11:03:02Z</time>
      </trkpt>
      <trkpt lat="47.28614" lon="6.93971">
        <ele>505.6</ele>
        <time>2021-08-12T11:03:04Z</time>
      </trkpt>
      <trkpt lat="47.28608" lon="6.93969">
        <ele>505.7</ele>
        <time>2021-08-12T11:03:05Z</time>
      </trkpt>
      <trkpt lat="47.28602" lon="6.93968">
        <ele>505.8</ele>
        <time>2021-08-12T11:03:07Z</time>
      </trkpt>
      <trkpt lat="47.28599" lon="6.93968">
        <ele>505.9</ele>
        <time>2021-08-12T11:03:08Z</time>
      </trkpt>
      <trkpt lat="47.28596" lon="6.93966">
        <ele>505.9</ele>
        <time>2021-08-12T11:03:09Z</time>
      </trkpt>
      <trkpt lat="47.28592" lon="6.93966">
        <ele>505.9</ele>
        <time>2021-08-12T11:03:10Z</time>
      </trkpt>
      <trkpt lat="47.28589" lon="6.93964">
        <ele>506</ele>
        <time>2021-08-12T11:03:11Z</time>
      </trkpt>
      <trkpt lat="47.28582" lon="6.93962">
        <ele>506.1</ele>
        <time>2021-08-12T11:03:13Z</time>
      </trkpt>
      <trkpt lat="47.28579" lon="6.93959">
        <ele>506.2</ele>
        <time>2021-08-12T11:03:14Z</time>
      </trkpt>
      <trkpt lat="47.28573" lon="6.93956">
        <ele>506.3</ele>
        <time>2021-08-12T11:03:15Z</time>
      </trkpt>
      <trkpt lat="47.28566" lon="6.93954">
        <ele>506.4</ele>
        <time>2021-08-12T11:03:17Z</time>
      </trkpt>
      <trkpt lat="47.28561" lon="6.93955">
        <ele>506.5</ele>
        <time>2021-08-12T11:03:18Z</time>
      </trkpt>
      <trkpt lat="47.28554" lon="6.93955">
        <ele>506.6</ele>
        <time>2021-08-12T11:03:19Z</time>
      </trkpt>
      <trkpt lat="47.28549" lon="6.93954">
        <ele>506.6</ele>
        <time>2021-08-12T11:03:20Z</time>
      </trkpt>
      <trkpt lat="47.28545" lon="6.93953">
        <ele>506.6</ele>
        <time>2021-08-12T11:03:22Z</time>
      </trkpt>
      <trkpt lat="47.28537" lon="6.93954">
        <ele>506.5</ele>
        <time>2021-08-12T11:03:24Z</time>
      </trkpt>
      <trkpt lat="47.28531" lon="6.93955">
        <ele>506.5</ele>
        <time>2021-08-12T11:03:25Z</time>
      </trkpt>
      <trkpt lat="47.28526" lon="6.93956">
        <ele>506.5</ele>
        <time>2021-08-12T11:03:27Z</time>
      </trkpt>
      <trkpt lat="47.28522" lon="6.93957">
        <ele>506.4</ele>
        <time>2021-08-12T11:03:28Z</time>
      </trkpt>
      <trkpt lat="47.28519" lon="6.93958">
        <ele>506.4</ele>
        <time>2021-08-12T11:03:29Z</time>
      </trkpt>
      <trkpt lat="47.28514" lon="6.9396">
        <ele>506.4</ele>
        <time>2021-08-12T11:03:31Z</time>
      </trkpt>
      <trkpt lat="47.2851" lon="6.93962">
        <ele>506.3</ele>
        <time>2021-08-12T11:03:32Z</time>
      </trkpt>
      <trkpt lat="47.28502" lon="6.93966">
        <ele>506.3</ele>
        <time>2021-08-12T11:03:34Z</time>
      </trkpt>
      <trkpt lat="47.28493" lon="6.93969">
        <ele>506.2</ele>
        <time>2021-08-12T11:03:35Z</time>
      </trkpt>
      <trkpt lat="47.28486" lon="6.93971">
        <ele>506.1</ele>
        <time>2021-08-12T11:03:36Z</time>
      </trkpt>
      <trkpt lat="47.2848" lon="6.93973">
        <ele>506.1</ele>
        <time>2021-08-12T11:03:37Z</time>
      </trkpt>
      <trkpt lat="47.28473" lon="6.93978">
        <ele>505.9</ele>
        <time>2021-08-12T11:03:38Z</time>
      </trkpt>
      <trkpt lat="47.28469" lon="6.93984">
        <ele>505.8</ele>
        <time>2021-08-12T11:03:40Z</time>
      </trkpt>
      <trkpt lat="47.28465" lon="6.93987">
        <ele>505.7</ele>
        <time>2021-08-12T11:03:41Z</time>
      </trkpt>
      <trkpt lat="47.28459" lon="6.93993">
        <ele>505.6</ele>
        <time>2021-08-12T11:03:42Z</time>
      </trkpt>
      <trkpt lat="47.28449" lon="6.94002">
        <ele>505.3</ele>
        <time>2021-08-12T11:03:44Z</time>
      </trkpt>
      <trkpt lat="47.28438" lon="6.9401">
        <ele>505.2</ele>
        <time>2021-08-12T11:03:46Z</time>
      </trkpt>
      <trkpt lat="47.28427" lon="6.94021">
        <ele>505.1</ele>
        <time>2021-08-12T11:03:48Z</time>
      </trkpt>
      <trkpt lat="47.28419" lon="6.9403">
        <ele>505.1</ele>
        <time>2021-08-12T11:03:50Z</time>
      </trkpt>
      <trkpt lat="47.28412" lon="6.94035">
        <ele>505</ele>
        <time>2021-08-12T11:03:51Z</time>
      </trkpt>
      <trkpt lat="47.28408" lon="6.9404">
        <ele>504.9</ele>
        <time>2021-08-12T11:03:53Z</time>
      </trkpt>
      <trkpt lat="47.28402" lon="6.94046">
        <ele>504.8</ele>
        <time>2021-08-12T11:03:54Z</time>
      </trkpt>
      <trkpt lat="47.2839" lon="6.94059">
        <ele>504.6</ele>
        <time>2021-08-12T11:03:56Z</time>
      </trkpt>
      <trkpt lat="47.28376" lon="6.94074">
        <ele>504.5</ele>
        <time>2021-08-12T11:03:58Z</time>
      </trkpt>
      <trkpt lat="47.2837" lon="6.9408">
        <ele>504.5</ele>
        <time>2021-08-12T11:03:59Z</time>
      </trkpt>
      <trkpt lat="47.28365" lon="6.94085">
        <ele>504.5</ele>
        <time>2021-08-12T11:04:00Z</time>
      </trkpt>
      <trkpt lat="47.28356" lon="6.94094">
        <ele>504.4</ele>
        <time>2021-08-12T11:04:02Z</time>
      </trkpt>
      <trkpt lat="47.28348" lon="6.94101">
        <ele>504.5</ele>
        <time>2021-08-12T11:04:03Z</time>
      </trkpt>
      <trkpt lat="47.28343" lon="6.94104">
        <ele>504.5</ele>
        <time>2021-08-12T11:04:05Z</time>
      </trkpt>
      <trkpt lat="47.28336" lon="6.9411">
        <ele>504.5</ele>
        <time>2021-08-12T11:04:06Z</time>
      </trkpt>
      <trkpt lat="47.2833" lon="6.94116">
        <ele>504.4</ele>
        <time>2021-08-12T11:04:07Z</time>
      </trkpt>
      <trkpt lat="47.28325" lon="6.9412">
        <ele>504.4</ele>
        <time>2021-08-12T11:04:08Z</time>
      </trkpt>
      <trkpt lat="47.28314" lon="6.94129">
        <ele>504.3</ele>
        <time>2021-08-12T11:04:10Z</time>
      </trkpt>
      <trkpt lat="47.28308" lon="6.94133">
        <ele>504.2</ele>
        <time>2021-08-12T11:04:11Z</time>
      </trkpt>
      <trkpt lat="47.28303" lon="6.94136">
        <ele>504.2</ele>
        <time>2021-08-12T11:04:12Z</time>
      </trkpt>
      <trkpt lat="47.28293" lon="6.94139">
        <ele>504.2</ele>
        <time>2021-08-12T11:04:14Z</time>
      </trkpt>
      <trkpt lat="47.28284" lon="6.94146">
        <ele>504.1</ele>
        <time>2021-08-12T11:04:16Z</time>
      </trkpt>
      <trkpt lat="47.28275" lon="6.94151">
        <ele>504</ele>
        <time>2021-08-12T11:04:18Z</time>
      </trkpt>
      <trkpt lat="47.28269" lon="6.94157">
        <ele>503.9</ele>
        <time>2021-08-12T11:04:20Z</time>
      </trkpt>
      <trkpt lat="47.28263" lon="6.94165">
        <ele>503.8</ele>
        <time>2021-08-12T11:04:22Z</time>
      </trkpt>
      <trkpt lat="47.28259" lon="6.9417">
        <ele>503.6</ele>
        <time>2021-08-12T11:04:23Z</time>
      </trkpt>
      <trkpt lat="47.28254" lon="6.94175">
        <ele>503.4</ele>
        <time>2021-08-12T11:04:24Z</time>
      </trkpt>
      <trkpt lat="47.28246" lon="6.94184">
        <ele>503.1</ele>
        <time>2021-08-12T11:04:26Z</time>
      </trkpt>
      <trkpt lat="47.28243" lon="6.94192">
        <ele>503</ele>
        <time>2021-08-12T11:04:27Z</time>
      </trkpt>
      <trkpt lat="47.28244" lon="6.94199">
        <ele>502.9</ele>
        <time>2021-08-12T11:04:29Z</time>
      </trkpt>
      <trkpt lat="47.28233" lon="6.94213">
        <ele>502.6</ele>
        <time>2021-08-12T11:04:31Z</time>
      </trkpt>
      <trkpt lat="47.28229" lon="6.9422">
        <ele>502.5</ele>
        <time>2021-08-12T11:04:32Z</time>
      </trkpt>
      <trkpt lat="47.28223" lon="6.94227">
        <ele>502.4</ele>
        <time>2021-08-12T11:04:34Z</time>
      </trkpt>
      <trkpt lat="47.2822" lon="6.94235">
        <ele>502.3</ele>
        <time>2021-08-12T11:04:35Z</time>
      </trkpt>
      <trkpt lat="47.2821" lon="6.94249">
        <ele>502.1</ele>
        <time>2021-08-12T11:04:37Z</time>
      </trkpt>
      <trkpt lat="47.28205" lon="6.94255">
        <ele>502</ele>
        <time>2021-08-12T11:04:38Z</time>
      </trkpt>
      <trkpt lat="47.28194" lon="6.94263">
        <ele>501.8</ele>
        <time>2021-08-12T11:04:40Z</time>
      </trkpt>
      <trkpt lat="47.2819" lon="6.94268">
        <ele>501.8</ele>
        <time>2021-08-12T11:04:41Z</time>
      </trkpt>
      <trkpt lat="47.28186" lon="6.94273">
        <ele>501.7</ele>
        <time>2021-08-12T11:04:42Z</time>
      </trkpt>
      <trkpt lat="47.28179" lon="6.94283">
        <ele>501.6</ele>
        <time>2021-08-12T11:04:44Z</time>
      </trkpt>
      <trkpt lat="47.2818" lon="6.9429">
        <ele>501.6</ele>
        <time>2021-08-12T11:04:45Z</time>
      </trkpt>
      <trkpt lat="47.28179" lon="6.94297">
        <ele>501.5</ele>
        <time>2021-08-12T11:04:46Z</time>
      </trkpt>
      <trkpt lat="47.28175" lon="6.94305">
        <ele>501.5</ele>
        <time>2021-08-12T11:04:47Z</time>
      </trkpt>
      <trkpt lat="47.28171" lon="6.94313">
        <ele>501.4</ele>
        <time>2021-08-12T11:04:49Z</time>
      </trkpt>
      <trkpt lat="47.28167" lon="6.94319">
        <ele>501.3</ele>
        <time>2021-08-12T11:04:50Z</time>
      </trkpt>
      <trkpt lat="47.28162" lon="6.94331">
        <ele>501.1</ele>
        <time>2021-08-12T11:04:52Z</time>
      </trkpt>
      <trkpt lat="47.28157" lon="6.94336">
        <ele>501.1</ele>
        <time>2021-08-12T11:04:53Z</time>
      </trkpt>
      <trkpt lat="47.28152" lon="6.94346">
        <ele>501.1</ele>
        <time>2021-08-12T11:04:55Z</time>
      </trkpt>
      <trkpt lat="47.28148" lon="6.94349">
        <ele>501.2</ele>
        <time>2021-08-12T11:04:56Z</time>
      </trkpt>
      <trkpt lat="47.28144" lon="6.94352">
        <ele>501.2</ele>
        <time>2021-08-12T11:04:57Z</time>
      </trkpt>
      <trkpt lat="47.2814" lon="6.94356">
        <ele>501.2</ele>
        <time>2021-08-12T11:04:58Z</time>
      </trkpt>
      <trkpt lat="47.28132" lon="6.94368">
        <ele>501.2</ele>
        <time>2021-08-12T11:05:00Z</time>
      </trkpt>
      <trkpt lat="47.28127" lon="6.94373">
        <ele>501.3</ele>
        <time>2021-08-12T11:05:01Z</time>
      </trkpt>
      <trkpt lat="47.28124" lon="6.94378">
        <ele>501.3</ele>
        <time>2021-08-12T11:05:02Z</time>
      </trkpt>
      <trkpt lat="47.28121" lon="6.94382">
        <ele>501.4</ele>
        <time>2021-08-12T11:05:03Z</time>
      </trkpt>
      <trkpt lat="47.28118" lon="6.94386">
        <ele>501.4</ele>
        <time>2021-08-12T11:05:04Z</time>
      </trkpt>
      <trkpt lat="47.28115" lon="6.94393">
        <ele>501.5</ele>
        <time>2021-08-12T11:05:06Z</time>
      </trkpt>
      <trkpt lat="47.28113" lon="6.94398">
        <ele>501.5</ele>
        <time>2021-08-12T11:05:07Z</time>
      </trkpt>
      <trkpt lat="47.2811" lon="6.94404">
        <ele>501.6</ele>
        <time>2021-08-12T11:05:08Z</time>
      </trkpt>
      <trkpt lat="47.28107" lon="6.94411">
        <ele>501.7</ele>
        <time>2021-08-12T11:05:09Z</time>
      </trkpt>
      <trkpt lat="47.28102" lon="6.94417">
        <ele>501.8</ele>
        <time>2021-08-12T11:05:11Z</time>
      </trkpt>
      <trkpt lat="47.28099" lon="6.9442">
        <ele>501.9</ele>
        <time>2021-08-12T11:05:12Z</time>
      </trkpt>
      <trkpt lat="47.28095" lon="6.94425">
        <ele>502</ele>
        <time>2021-08-12T11:05:13Z</time>
      </trkpt>
      <trkpt lat="47.28091" lon="6.9443">
        <ele>502.1</ele>
        <time>2021-08-12T11:05:15Z</time>
      </trkpt>
      <trkpt lat="47.28088" lon="6.94435">
        <ele>502.2</ele>
        <time>2021-08-12T11:05:16Z</time>
      </trkpt>
      <trkpt lat="47.28085" lon="6.94437">
        <ele>502.3</ele>
        <time>2021-08-12T11:05:17Z</time>
      </trkpt>
      <trkpt lat="47.28082" lon="6.9444">
        <ele>502.4</ele>
        <time>2021-08-12T11:05:18Z</time>
      </trkpt>
      <trkpt lat="47.2808" lon="6.94443">
        <ele>502.5</ele>
        <time>2021-08-12T11:05:19Z</time>
      </trkpt>
      <trkpt lat="47.28078" lon="6.94448">
        <ele>502.6</ele>
        <time>2021-08-12T11:05:20Z</time>
      </trkpt>
      <trkpt lat="47.28077" lon="6.94449">
        <ele>502.7</ele>
        <time>2021-08-12T11:05:21Z</time>
      </trkpt>
      <trkpt lat="47.28075" lon="6.94452">
        <ele>502.8</ele>
        <time>2021-08-12T11:05:23Z</time>
      </trkpt>
      <trkpt lat="47.28074" lon="6.94452">
        <ele>502.8</ele>
        <time>2021-08-12T11:05:24Z</time>
      </trkpt>
      <trkpt lat="47.28068" lon="6.94454">
        <ele>503</ele>
        <time>2021-08-12T11:05:26Z</time>
      </trkpt>
      <trkpt lat="47.28063" lon="6.94456">
        <ele>503.2</ele>
        <time>2021-08-12T11:05:28Z</time>
      </trkpt>
      <trkpt lat="47.28059" lon="6.94455">
        <ele>503.3</ele>
        <time>2021-08-12T11:05:30Z</time>
      </trkpt>
      <trkpt lat="47.28054" lon="6.94453">
        <ele>503.5</ele>
        <time>2021-08-12T11:05:32Z</time>
      </trkpt>
      <trkpt lat="47.28051" lon="6.94452">
        <ele>503.6</ele>
        <time>2021-08-12T11:05:33Z</time>
      </trkpt>
      <trkpt lat="47.28048" lon="6.94452">
        <ele>503.7</ele>
        <time>2021-08-12T11:05:34Z</time>
      </trkpt>
      <trkpt lat="47.28045" lon="6.94452">
        <ele>503.8</ele>
        <time>2021-08-12T11:05:35Z</time>
      </trkpt>
      <trkpt lat="47.28041" lon="6.94455">
        <ele>504</ele>
        <time>2021-08-12T11:05:36Z</time>
      </trkpt>
      <trkpt lat="47.2804" lon="6.94456">
        <ele>504</ele>
        <time>2021-08-12T11:05:37Z</time>
      </trkpt>
      <trkpt lat="47.28036" lon="6.94457">
        <ele>504.2</ele>
        <time>2021-08-12T11:05:38Z</time>
      </trkpt>
      <trkpt lat="47.28034" lon="6.94457">
        <ele>504.2</ele>
        <time>2021-08-12T11:05:39Z</time>
      </trkpt>
      <trkpt lat="47.28031" lon="6.94458">
        <ele>504.4</ele>
        <time>2021-08-12T11:05:40Z</time>
      </trkpt>
      <trkpt lat="47.28027" lon="6.94458">
        <ele>504.5</ele>
        <time>2021-08-12T11:05:41Z</time>
      </trkpt>
      <trkpt lat="47.28024" lon="6.94457">
        <ele>504.6</ele>
        <time>2021-08-12T11:05:42Z</time>
      </trkpt>
      <trkpt lat="47.2802" lon="6.94455">
        <ele>504.7</ele>
        <time>2021-08-12T11:05:44Z</time>
      </trkpt>
      <trkpt lat="47.28017" lon="6.94453">
        <ele>504.8</ele>
        <time>2021-08-12T11:05:45Z</time>
      </trkpt>
      <trkpt lat="47.28013" lon="6.94451">
        <ele>504.9</ele>
        <time>2021-08-12T11:05:46Z</time>
      </trkpt>
      <trkpt lat="47.2801" lon="6.94449">
        <ele>504.9</ele>
        <time>2021-08-12T11:05:48Z</time>
      </trkpt>
      <trkpt lat="47.28006" lon="6.94444">
        <ele>505</ele>
        <time>2021-08-12T11:05:49Z</time>
      </trkpt>
      <trkpt lat="47.28003" lon="6.9444">
        <ele>505</ele>
        <time>2021-08-12T11:05:51Z</time>
      </trkpt>
      <trkpt lat="47.28" lon="6.94437">
        <ele>505</ele>
        <time>2021-08-12T11:05:52Z</time>
      </trkpt>
      <trkpt lat="47.27995" lon="6.94432">
        <ele>505</ele>
        <time>2021-08-12T11:05:53Z</time>
      </trkpt>
      <trkpt lat="47.2799" lon="6.94426">
        <ele>505</ele>
        <time>2021-08-12T11:05:55Z</time>
      </trkpt>
      <trkpt lat="47.27985" lon="6.9442">
        <ele>504.9</ele>
        <time>2021-08-12T11:05:57Z</time>
      </trkpt>
      <trkpt lat="47.27982" lon="6.94417">
        <ele>504.9</ele>
        <time>2021-08-12T11:05:58Z</time>
      </trkpt>
      <trkpt lat="47.27978" lon="6.94414">
        <ele>504.8</ele>
        <time>2021-08-12T11:05:59Z</time>
      </trkpt>
      <trkpt lat="47.2797" lon="6.94411">
        <ele>504.8</ele>
        <time>2021-08-12T11:06:01Z</time>
      </trkpt>
      <trkpt lat="47.27961" lon="6.94414">
        <ele>504.7</ele>
        <time>2021-08-12T11:06:03Z</time>
      </trkpt>
      <trkpt lat="47.27955" lon="6.94414">
        <ele>504.6</ele>
        <time>2021-08-12T11:06:04Z</time>
      </trkpt>
      <trkpt lat="47.27947" lon="6.94415">
        <ele>504.6</ele>
        <time>2021-08-12T11:06:05Z</time>
      </trkpt>
      <trkpt lat="47.27944" lon="6.94413">
        <ele>504.6</ele>
        <time>2021-08-12T11:06:06Z</time>
      </trkpt>
      <trkpt lat="47.27943" lon="6.94413">
        <ele>504.6</ele>
        <time>2021-08-12T11:06:07Z</time>
      </trkpt>
      <trkpt lat="47.2794" lon="6.94413">
        <ele>504.6</ele>
        <time>2021-08-12T11:06:08Z</time>
      </trkpt>
      <trkpt lat="47.27937" lon="6.94413">
        <ele>504.6</ele>
        <time>2021-08-12T11:06:09Z</time>
      </trkpt>
      <trkpt lat="47.2793" lon="6.94414">
        <ele>504.6</ele>
        <time>2021-08-12T11:06:10Z</time>
      </trkpt>
      <trkpt lat="47.27924" lon="6.94415">
        <ele>504.6</ele>
        <time>2021-08-12T11:06:12Z</time>
      </trkpt>
      <trkpt lat="47.2792" lon="6.94415">
        <ele>504.7</ele>
        <time>2021-08-12T11:06:13Z</time>
      </trkpt>
      <trkpt lat="47.27917" lon="6.94416">
        <ele>504.7</ele>
        <time>2021-08-12T11:06:14Z</time>
      </trkpt>
      <trkpt lat="47.27915" lon="6.94416">
        <ele>504.7</ele>
        <time>2021-08-12T11:06:15Z</time>
      </trkpt>
      <trkpt lat="47.27911" lon="6.94419">
        <ele>504.7</ele>
        <time>2021-08-12T11:06:17Z</time>
      </trkpt>
      <trkpt lat="47.27901" lon="6.94424">
        <ele>504.7</ele>
        <time>2021-08-12T11:06:19Z</time>
      </trkpt>
      <trkpt lat="47.27894" lon="6.94428">
        <ele>504.8</ele>
        <time>2021-08-12T11:06:20Z</time>
      </trkpt>
      <trkpt lat="47.27887" lon="6.94432">
        <ele>504.9</ele>
        <time>2021-08-12T11:06:22Z</time>
      </trkpt>
      <trkpt lat="47.27875" lon="6.94434">
        <ele>505</ele>
        <time>2021-08-12T11:06:24Z</time>
      </trkpt>
      <trkpt lat="47.27866" lon="6.94436">
        <ele>505.1</ele>
        <time>2021-08-12T11:06:25Z</time>
      </trkpt>
      <trkpt lat="47.27861" lon="6.94437">
        <ele>505.2</ele>
        <time>2021-08-12T11:06:26Z</time>
      </trkpt>
      <trkpt lat="47.27855" lon="6.94438">
        <ele>505.3</ele>
        <time>2021-08-12T11:06:28Z</time>
      </trkpt>
      <trkpt lat="47.27849" lon="6.9444">
        <ele>505.3</ele>
        <time>2021-08-12T11:06:29Z</time>
      </trkpt>
      <trkpt lat="47.27843" lon="6.94443">
        <ele>505.5</ele>
        <time>2021-08-12T11:06:31Z</time>
      </trkpt>
      <trkpt lat="47.27839" lon="6.94445">
        <ele>505.5</ele>
        <time>2021-08-12T11:06:32Z</time>
      </trkpt>
      <trkpt lat="47.27833" lon="6.94451">
        <ele>505.7</ele>
        <time>2021-08-12T11:06:34Z</time>
      </trkpt>
      <trkpt lat="47.27828" lon="6.94456">
        <ele>505.8</ele>
        <time>2021-08-12T11:06:35Z</time>
      </trkpt>
      <trkpt lat="47.27823" lon="6.94459">
        <ele>505.9</ele>
        <time>2021-08-12T11:06:37Z</time>
      </trkpt>
      <trkpt lat="47.27819" lon="6.94461">
        <ele>506</ele>
        <time>2021-08-12T11:06:38Z</time>
      </trkpt>
      <trkpt lat="47.27813" lon="6.94466">
        <ele>506.1</ele>
        <time>2021-08-12T11:06:39Z</time>
      </trkpt>
      <trkpt lat="47.27806" lon="6.94471">
        <ele>506.3</ele>
        <time>2021-08-12T11:06:41Z</time>
      </trkpt>
      <trkpt lat="47.27802" lon="6.94473">
        <ele>506.4</ele>
        <time>2021-08-12T11:06:42Z</time>
      </trkpt>
      <trkpt lat="47.27797" lon="6.94476">
        <ele>506.5</ele>
        <time>2021-08-12T11:06:43Z</time>
      </trkpt>
      <trkpt lat="47.27791" lon="6.94482">
        <ele>506.6</ele>
        <time>2021-08-12T11:06:44Z</time>
      </trkpt>
      <trkpt lat="47.27788" lon="6.94485">
        <ele>506.6</ele>
        <time>2021-08-12T11:06:45Z</time>
      </trkpt>
      <trkpt lat="47.2778" lon="6.94494">
        <ele>506.5</ele>
        <time>2021-08-12T11:06:47Z</time>
      </trkpt>
      <trkpt lat="47.27775" lon="6.94496">
        <ele>506.4</ele>
        <time>2021-08-12T11:06:48Z</time>
      </trkpt>
      <trkpt lat="47.27764" lon="6.94502">
        <ele>506.2</ele>
        <time>2021-08-12T11:06:50Z</time>
      </trkpt>
      <trkpt lat="47.27749" lon="6.94516">
        <ele>505.8</ele>
        <time>2021-08-12T11:06:52Z</time>
      </trkpt>
      <trkpt lat="47.27737" lon="6.94529">
        <ele>505.4</ele>
        <time>2021-08-12T11:06:54Z</time>
      </trkpt>
      <trkpt lat="47.27726" lon="6.94536">
        <ele>505.2</ele>
        <time>2021-08-12T11:06:56Z</time>
      </trkpt>
      <trkpt lat="47.27715" lon="6.94545">
        <ele>505</ele>
        <time>2021-08-12T11:06:58Z</time>
      </trkpt>
      <trkpt lat="47.27709" lon="6.94549">
        <ele>504.9</ele>
        <time>2021-08-12T11:06:59Z</time>
      </trkpt>
      <trkpt lat="47.27697" lon="6.94556">
        <ele>504.9</ele>
        <time>2021-08-12T11:07:01Z</time>
      </trkpt>
      <trkpt lat="47.27691" lon="6.94558">
        <ele>505</ele>
        <time>2021-08-12T11:07:02Z</time>
      </trkpt>
      <trkpt lat="47.2768" lon="6.94563">
        <ele>505</ele>
        <time>2021-08-12T11:07:04Z</time>
      </trkpt>
      <trkpt lat="47.27675" lon="6.94564">
        <ele>504.9</ele>
        <time>2021-08-12T11:07:05Z</time>
      </trkpt>
      <trkpt lat="47.27672" lon="6.94567">
        <ele>504.9</ele>
        <time>2021-08-12T11:07:06Z</time>
      </trkpt>
      <trkpt lat="47.27664" lon="6.94574">
        <ele>504.8</ele>
        <time>2021-08-12T11:07:08Z</time>
      </trkpt>
      <trkpt lat="47.27651" lon="6.94582">
        <ele>504.6</ele>
        <time>2021-08-12T11:07:10Z</time>
      </trkpt>
      <trkpt lat="47.27645" lon="6.94586">
        <ele>504.4</ele>
        <time>2021-08-12T11:07:11Z</time>
      </trkpt>
      <trkpt lat="47.27639" lon="6.94589">
        <ele>504.3</ele>
        <time>2021-08-12T11:07:12Z</time>
      </trkpt>
      <trkpt lat="47.27634" lon="6.94593">
        <ele>504.1</ele>
        <time>2021-08-12T11:07:13Z</time>
      </trkpt>
      <trkpt lat="47.27629" lon="6.94597">
        <ele>504</ele>
        <time>2021-08-12T11:07:14Z</time>
      </trkpt>
      <trkpt lat="47.27619" lon="6.94603">
        <ele>503.8</ele>
        <time>2021-08-12T11:07:16Z</time>
      </trkpt>
      <trkpt lat="47.27614" lon="6.94605">
        <ele>503.8</ele>
        <time>2021-08-12T11:07:17Z</time>
      </trkpt>
      <trkpt lat="47.27608" lon="6.94607">
        <ele>503.7</ele>
        <time>2021-08-12T11:07:18Z</time>
      </trkpt>
      <trkpt lat="47.27595" lon="6.94611">
        <ele>503.5</ele>
        <time>2021-08-12T11:07:20Z</time>
      </trkpt>
      <trkpt lat="47.27582" lon="6.94617">
        <ele>503.5</ele>
        <time>2021-08-12T11:07:22Z</time>
      </trkpt>
      <trkpt lat="47.27576" lon="6.9462">
        <ele>503.5</ele>
        <time>2021-08-12T11:07:23Z</time>
      </trkpt>
      <trkpt lat="47.27571" lon="6.94622">
        <ele>503.4</ele>
        <time>2021-08-12T11:07:24Z</time>
      </trkpt>
      <trkpt lat="47.27562" lon="6.94631">
        <ele>503.4</ele>
        <time>2021-08-12T11:07:26Z</time>
      </trkpt>
      <trkpt lat="47.27554" lon="6.94644">
        <ele>503.4</ele>
        <time>2021-08-12T11:07:28Z</time>
      </trkpt>
      <trkpt lat="47.27545" lon="6.94652">
        <ele>503.5</ele>
        <time>2021-08-12T11:07:30Z</time>
      </trkpt>
      <trkpt lat="47.27535" lon="6.94656">
        <ele>503.6</ele>
        <time>2021-08-12T11:07:32Z</time>
      </trkpt>
      <trkpt lat="47.27526" lon="6.94664">
        <ele>503.7</ele>
        <time>2021-08-12T11:07:34Z</time>
      </trkpt>
      <trkpt lat="47.2752" lon="6.94669">
        <ele>503.7</ele>
        <time>2021-08-12T11:07:36Z</time>
      </trkpt>
      <trkpt lat="47.27516" lon="6.94678">
        <ele>503.8</ele>
        <time>2021-08-12T11:07:37Z</time>
      </trkpt>
      <trkpt lat="47.2751" lon="6.9469">
        <ele>503.9</ele>
        <time>2021-08-12T11:07:39Z</time>
      </trkpt>
      <trkpt lat="47.27508" lon="6.94696">
        <ele>504</ele>
        <time>2021-08-12T11:07:40Z</time>
      </trkpt>
      <trkpt lat="47.27504" lon="6.947">
        <ele>504</ele>
        <time>2021-08-12T11:07:41Z</time>
      </trkpt>
      <trkpt lat="47.27499" lon="6.94703">
        <ele>504.1</ele>
        <time>2021-08-12T11:07:42Z</time>
      </trkpt>
      <trkpt lat="47.27491" lon="6.94709">
        <ele>504.2</ele>
        <time>2021-08-12T11:07:44Z</time>
      </trkpt>
      <trkpt lat="47.27486" lon="6.94711">
        <ele>504.3</ele>
        <time>2021-08-12T11:07:46Z</time>
      </trkpt>
      <trkpt lat="47.27481" lon="6.94713">
        <ele>504.3</ele>
        <time>2021-08-12T11:07:47Z</time>
      </trkpt>
      <trkpt lat="47.27476" lon="6.94716">
        <ele>504.3</ele>
        <time>2021-08-12T11:07:48Z</time>
      </trkpt>
      <trkpt lat="47.27472" lon="6.9472">
        <ele>504.3</ele>
        <time>2021-08-12T11:07:49Z</time>
      </trkpt>
      <trkpt lat="47.27469" lon="6.94724">
        <ele>504.3</ele>
        <time>2021-08-12T11:07:50Z</time>
      </trkpt>
      <trkpt lat="47.27465" lon="6.94729">
        <ele>504.2</ele>
        <time>2021-08-12T11:07:51Z</time>
      </trkpt>
      <trkpt lat="47.27458" lon="6.94733">
        <ele>504.1</ele>
        <time>2021-08-12T11:07:53Z</time>
      </trkpt>
      <trkpt lat="47.2745" lon="6.94743">
        <ele>504</ele>
        <time>2021-08-12T11:07:55Z</time>
      </trkpt>
      <trkpt lat="47.27448" lon="6.9475">
        <ele>504</ele>
        <time>2021-08-12T11:07:56Z</time>
      </trkpt>
      <trkpt lat="47.27439" lon="6.94758">
        <ele>503.9</ele>
        <time>2021-08-12T11:07:58Z</time>
      </trkpt>
      <trkpt lat="47.27434" lon="6.94761">
        <ele>503.9</ele>
        <time>2021-08-12T11:07:59Z</time>
      </trkpt>
      <trkpt lat="47.27426" lon="6.94767">
        <ele>503.9</ele>
        <time>2021-08-12T11:08:01Z</time>
      </trkpt>
      <trkpt lat="47.27417" lon="6.94769">
        <ele>503.8</ele>
        <time>2021-08-12T11:08:03Z</time>
      </trkpt>
      <trkpt lat="47.27411" lon="6.94771">
        <ele>503.8</ele>
        <time>2021-08-12T11:08:04Z</time>
      </trkpt>
      <trkpt lat="47.27399" lon="6.94775">
        <ele>503.6</ele>
        <time>2021-08-12T11:08:06Z</time>
      </trkpt>
      <trkpt lat="47.27392" lon="6.94777">
        <ele>503.5</ele>
        <time>2021-08-12T11:08:07Z</time>
      </trkpt>
      <trkpt lat="47.27381" lon="6.94781">
        <ele>503.3</ele>
        <time>2021-08-12T11:08:09Z</time>
      </trkpt>
      <trkpt lat="47.27376" lon="6.94785">
        <ele>503.1</ele>
        <time>2021-08-12T11:08:10Z</time>
      </trkpt>
      <trkpt lat="47.27371" lon="6.94789">
        <ele>503</ele>
        <time>2021-08-12T11:08:11Z</time>
      </trkpt>
      <trkpt lat="47.27365" lon="6.94792">
        <ele>502.8</ele>
        <time>2021-08-12T11:08:12Z</time>
      </trkpt>
      <trkpt lat="47.27355" lon="6.94798">
        <ele>502.6</ele>
        <time>2021-08-12T11:08:14Z</time>
      </trkpt>
      <trkpt lat="47.27345" lon="6.94804">
        <ele>502.5</ele>
        <time>2021-08-12T11:08:16Z</time>
      </trkpt>
      <trkpt lat="47.27334" lon="6.94809">
        <ele>502.5</ele>
        <time>2021-08-12T11:08:18Z</time>
      </trkpt>
      <trkpt lat="47.27329" lon="6.94811">
        <ele>502.5</ele>
        <time>2021-08-12T11:08:19Z</time>
      </trkpt>
      <trkpt lat="47.27325" lon="6.94813">
        <ele>502.6</ele>
        <time>2021-08-12T11:08:20Z</time>
      </trkpt>
      <trkpt lat="47.27317" lon="6.94818">
        <ele>502.7</ele>
        <time>2021-08-12T11:08:22Z</time>
      </trkpt>
      <trkpt lat="47.27312" lon="6.94821">
        <ele>502.8</ele>
        <time>2021-08-12T11:08:24Z</time>
      </trkpt>
      <trkpt lat="47.27308" lon="6.94824">
        <ele>503</ele>
        <time>2021-08-12T11:08:26Z</time>
      </trkpt>
      <trkpt lat="47.27305" lon="6.94828">
        <ele>503.1</ele>
        <time>2021-08-12T11:08:28Z</time>
      </trkpt>
      <trkpt lat="47.27301" lon="6.9483">
        <ele>503.2</ele>
        <time>2021-08-12T11:08:29Z</time>
      </trkpt>
      <trkpt lat="47.273" lon="6.94834">
        <ele>503.4</ele>
        <time>2021-08-12T11:08:30Z</time>
      </trkpt>
      <trkpt lat="47.27296" lon="6.94834">
        <ele>503.5</ele>
        <time>2021-08-12T11:08:32Z</time>
      </trkpt>
      <trkpt lat="47.27295" lon="6.94834">
        <ele>503.6</ele>
        <time>2021-08-12T11:08:33Z</time>
      </trkpt>
      <trkpt lat="47.27294" lon="6.94836">
        <ele>503.6</ele>
        <time>2021-08-12T11:08:34Z</time>
      </trkpt>
      <trkpt lat="47.27292" lon="6.94836">
        <ele>503.7</ele>
        <time>2021-08-12T11:08:36Z</time>
      </trkpt>
      <trkpt lat="47.27289" lon="6.94837">
        <ele>503.8</ele>
        <time>2021-08-12T11:08:37Z</time>
      </trkpt>
      <trkpt lat="47.27286" lon="6.94839">
        <ele>504</ele>
        <time>2021-08-12T11:08:38Z</time>
      </trkpt>
      <trkpt lat="47.27284" lon="6.9484">
        <ele>504</ele>
        <time>2021-08-12T11:08:39Z</time>
      </trkpt>
      <trkpt lat="47.27282" lon="6.94841">
        <ele>504.1</ele>
        <time>2021-08-12T11:08:40Z</time>
      </trkpt>
      <trkpt lat="47.27278" lon="6.94842">
        <ele>504.3</ele>
        <time>2021-08-12T11:08:42Z</time>
      </trkpt>
      <trkpt lat="47.27275" lon="6.94844">
        <ele>504.4</ele>
        <time>2021-08-12T11:08:43Z</time>
      </trkpt>
      <trkpt lat="47.27269" lon="6.94846">
        <ele>504.5</ele>
        <time>2021-08-12T11:08:44Z</time>
      </trkpt>
      <trkpt lat="47.27265" lon="6.94847">
        <ele>504.6</ele>
        <time>2021-08-12T11:08:46Z</time>
      </trkpt>
      <trkpt lat="47.27263" lon="6.94848">
        <ele>504.6</ele>
        <time>2021-08-12T11:08:47Z</time>
      </trkpt>
      <trkpt lat="47.27257" lon="6.9485">
        <ele>504.7</ele>
        <time>2021-08-12T11:08:48Z</time>
      </trkpt>
      <trkpt lat="47.27253" lon="6.94852">
        <ele>504.7</ele>
        <time>2021-08-12T11:08:50Z</time>
      </trkpt>
      <trkpt lat="47.27246" lon="6.94856">
        <ele>504.7</ele>
        <time>2021-08-12T11:08:52Z</time>
      </trkpt>
      <trkpt lat="47.27242" lon="6.94856">
        <ele>504.7</ele>
        <time>2021-08-12T11:08:53Z</time>
      </trkpt>
      <trkpt lat="47.27237" lon="6.94856">
        <ele>504.8</ele>
        <time>2021-08-12T11:08:55Z</time>
      </trkpt>
      <trkpt lat="47.27234" lon="6.94856">
        <ele>504.8</ele>
        <time>2021-08-12T11:08:56Z</time>
      </trkpt>
      <trkpt lat="47.27232" lon="6.94857">
        <ele>504.9</ele>
        <time>2021-08-12T11:08:57Z</time>
      </trkpt>
      <trkpt lat="47.27231" lon="6.94858">
        <ele>504.9</ele>
        <time>2021-08-12T11:08:58Z</time>
      </trkpt>
      <trkpt lat="47.2723" lon="6.94857">
        <ele>504.9</ele>
        <time>2021-08-12T11:08:59Z</time>
      </trkpt>
      <trkpt lat="47.2723" lon="6.94859">
        <ele>504.9</ele>
        <time>2021-08-12T11:09:00Z</time>
      </trkpt>
      <trkpt lat="47.2723" lon="6.9486">
        <ele>504.9</ele>
        <time>2021-08-12T11:09:01Z</time>
      </trkpt>
      <trkpt lat="47.27229" lon="6.9486">
        <ele>504.9</ele>
        <time>2021-08-12T11:09:02Z</time>
      </trkpt>
      <trkpt lat="47.27229" lon="6.94861">
        <ele>504.9</ele>
        <time>2021-08-12T11:09:03Z</time>
      </trkpt>
      <trkpt lat="47.27228" lon="6.94861">
        <ele>505</ele>
        <time>2021-08-12T11:09:05Z</time>
      </trkpt>
      <trkpt lat="47.27225" lon="6.94863">
        <ele>505</ele>
        <time>2021-08-12T11:09:06Z</time>
      </trkpt>
      <trkpt lat="47.27223" lon="6.94863">
        <ele>505.1</ele>
        <time>2021-08-12T11:09:07Z</time>
      </trkpt>
      <trkpt lat="47.2722" lon="6.94867">
        <ele>505.2</ele>
        <time>2021-08-12T11:09:08Z</time>
      </trkpt>
      <trkpt lat="47.27219" lon="6.94868">
        <ele>505.2</ele>
        <time>2021-08-12T11:09:09Z</time>
      </trkpt>
      <trkpt lat="47.27216" lon="6.94872">
        <ele>505.3</ele>
        <time>2021-08-12T11:09:11Z</time>
      </trkpt>
      <trkpt lat="47.27215" lon="6.94874">
        <ele>505.4</ele>
        <time>2021-08-12T11:09:12Z</time>
      </trkpt>
      <trkpt lat="47.27212" lon="6.94876">
        <ele>505.5</ele>
        <time>2021-08-12T11:09:13Z</time>
      </trkpt>
      <trkpt lat="47.27209" lon="6.94879">
        <ele>505.7</ele>
        <time>2021-08-12T11:09:14Z</time>
      </trkpt>
      <trkpt lat="47.27208" lon="6.9488">
        <ele>505.8</ele>
        <time>2021-08-12T11:09:15Z</time>
      </trkpt>
      <trkpt lat="47.27205" lon="6.94883">
        <ele>506</ele>
        <time>2021-08-12T11:09:16Z</time>
      </trkpt>
      <trkpt lat="47.27204" lon="6.94884">
        <ele>506</ele>
        <time>2021-08-12T11:09:17Z</time>
      </trkpt>
      <trkpt lat="47.27202" lon="6.94886">
        <ele>506.1</ele>
        <time>2021-08-12T11:09:18Z</time>
      </trkpt>
      <trkpt lat="47.27199" lon="6.9489">
        <ele>506.4</ele>
        <time>2021-08-12T11:09:20Z</time>
      </trkpt>
      <trkpt lat="47.27196" lon="6.94894">
        <ele>506.5</ele>
        <time>2021-08-12T11:09:21Z</time>
      </trkpt>
      <trkpt lat="47.27196" lon="6.94895">
        <ele>506.6</ele>
        <time>2021-08-12T11:09:22Z</time>
      </trkpt>
      <trkpt lat="47.27196" lon="6.94895">
        <ele>506.6</ele>
        <time>2021-08-12T11:09:23Z</time>
      </trkpt>
      <trkpt lat="47.27196" lon="6.94896">
        <ele>506.6</ele>
        <time>2021-08-12T11:09:24Z</time>
      </trkpt>
      <trkpt lat="47.27195" lon="6.94896">
        <ele>506.6</ele>
        <time>2021-08-12T11:09:26Z</time>
      </trkpt>
      <trkpt lat="47.27195" lon="6.94896">
        <ele>506.6</ele>
        <time>2021-08-12T11:09:27Z</time>
      </trkpt>
      <trkpt lat="47.27195" lon="6.94897">
        <ele>506.6</ele>
        <time>2021-08-12T11:09:29Z</time>
      </trkpt>
      <trkpt lat="47.27195" lon="6.94897">
        <ele>506.6</ele>
        <time>2021-08-12T11:09:30Z</time>
      </trkpt>
      <trkpt lat="47.27195" lon="6.94897">
        <ele>506.7</ele>
        <time>2021-08-12T11:09:31Z</time>
      </trkpt>
      <trkpt lat="47.27181" lon="6.94917">
        <ele>507.5</ele>
        <time>2021-08-12T11:09:44Z</time>
      </trkpt>
      <trkpt lat="47.27178" lon="6.94921">
        <ele>507.7</ele>
        <time>2021-08-12T11:09:46Z</time>
      </trkpt>
      <trkpt lat="47.27174" lon="6.94925">
        <ele>507.9</ele>
        <time>2021-08-12T11:09:47Z</time>
      </trkpt>
      <trkpt lat="47.27172" lon="6.94928">
        <ele>508.1</ele>
        <time>2021-08-12T11:09:49Z</time>
      </trkpt>
      <trkpt lat="47.27169" lon="6.94929">
        <ele>508.2</ele>
        <time>2021-08-12T11:09:50Z</time>
      </trkpt>
      <trkpt lat="47.27168" lon="6.94931">
        <ele>508.4</ele>
        <time>2021-08-12T11:09:52Z</time>
      </trkpt>
      <trkpt lat="47.27167" lon="6.94931">
        <ele>508.4</ele>
        <time>2021-08-12T11:09:53Z</time>
      </trkpt>
      <trkpt lat="47.27167" lon="6.94932">
        <ele>508.4</ele>
        <time>2021-08-12T11:09:54Z</time>
      </trkpt>
      <trkpt lat="47.27166" lon="6.94933">
        <ele>508.5</ele>
        <time>2021-08-12T11:09:56Z</time>
      </trkpt>
      <trkpt lat="47.27166" lon="6.94933">
        <ele>508.5</ele>
        <time>2021-08-12T11:09:57Z</time>
      </trkpt>
      <trkpt lat="47.27166" lon="6.94933">
        <ele>508.5</ele>
        <time>2021-08-12T11:09:58Z</time>
      </trkpt>
      <trkpt lat="47.27166" lon="6.94933">
        <ele>508.5</ele>
        <time>2021-08-12T11:09:59Z</time>
      </trkpt>
      <trkpt lat="47.27166" lon="6.94934">
        <ele>508.5</ele>
        <time>2021-08-12T11:10:01Z</time>
      </trkpt>
      <trkpt lat="47.27165" lon="6.94935">
        <ele>508.6</ele>
        <time>2021-08-12T11:10:02Z</time>
      </trkpt>
      <trkpt lat="47.27163" lon="6.9494">
        <ele>508.9</ele>
        <time>2021-08-12T11:10:04Z</time>
      </trkpt>
      <trkpt lat="47.27151" lon="6.94951">
        <ele>509.9</ele>
        <time>2021-08-12T11:10:10Z</time>
      </trkpt>
      <trkpt lat="47.27148" lon="6.94953">
        <ele>510.1</ele>
        <time>2021-08-12T11:10:11Z</time>
      </trkpt>
      <trkpt lat="47.27145" lon="6.94955">
        <ele>510.3</ele>
        <time>2021-08-12T11:10:12Z</time>
      </trkpt>
      <trkpt lat="47.27144" lon="6.94957">
        <ele>510.4</ele>
        <time>2021-08-12T11:10:13Z</time>
      </trkpt>
      <trkpt lat="47.27141" lon="6.94959">
        <ele>510.5</ele>
        <time>2021-08-12T11:10:15Z</time>
      </trkpt>
      <trkpt lat="47.27138" lon="6.9496">
        <ele>510.6</ele>
        <time>2021-08-12T11:10:16Z</time>
      </trkpt>
      <trkpt lat="47.27138" lon="6.9496">
        <ele>510.6</ele>
        <time>2021-08-12T11:10:17Z</time>
      </trkpt>
      <trkpt lat="47.27135" lon="6.94961">
        <ele>510.7</ele>
        <time>2021-08-12T11:10:18Z</time>
      </trkpt>
      <trkpt lat="47.27134" lon="6.94962">
        <ele>510.8</ele>
        <time>2021-08-12T11:10:20Z</time>
      </trkpt>
      <trkpt lat="47.27133" lon="6.94963">
        <ele>510.8</ele>
        <time>2021-08-12T11:10:21Z</time>
      </trkpt>
      <trkpt lat="47.27132" lon="6.94963">
        <ele>510.8</ele>
        <time>2021-08-12T11:10:22Z</time>
      </trkpt>
      <trkpt lat="47.27131" lon="6.94963">
        <ele>510.8</ele>
        <time>2021-08-12T11:10:24Z</time>
      </trkpt>
      <trkpt lat="47.27131" lon="6.94963">
        <ele>510.8</ele>
        <time>2021-08-12T11:10:25Z</time>
      </trkpt>
      <trkpt lat="47.2713" lon="6.94963">
        <ele>510.9</ele>
        <time>2021-08-12T11:10:26Z</time>
      </trkpt>
      <trkpt lat="47.27129" lon="6.94964">
        <ele>510.9</ele>
        <time>2021-08-12T11:10:27Z</time>
      </trkpt>
      <trkpt lat="47.27129" lon="6.94964">
        <ele>510.9</ele>
        <time>2021-08-12T11:10:29Z</time>
      </trkpt>
      <trkpt lat="47.27128" lon="6.94964">
        <ele>510.9</ele>
        <time>2021-08-12T11:10:30Z</time>
      </trkpt>
      <trkpt lat="47.27127" lon="6.94964">
        <ele>510.9</ele>
        <time>2021-08-12T11:10:31Z</time>
      </trkpt>
      <trkpt lat="47.27125" lon="6.94964">
        <ele>510.9</ele>
        <time>2021-08-12T11:10:33Z</time>
      </trkpt>
      <trkpt lat="47.27115" lon="6.94967">
        <ele>511</ele>
        <time>2021-08-12T11:10:37Z</time>
      </trkpt>
      <trkpt lat="47.27111" lon="6.94968">
        <ele>511</ele>
        <time>2021-08-12T11:10:38Z</time>
      </trkpt>
      <trkpt lat="47.27102" lon="6.9497">
        <ele>511</ele>
        <time>2021-08-12T11:10:40Z</time>
      </trkpt>
      <trkpt lat="47.27095" lon="6.94973">
        <ele>510.9</ele>
        <time>2021-08-12T11:10:42Z</time>
      </trkpt>
      <trkpt lat="47.27089" lon="6.94976">
        <ele>510.8</ele>
        <time>2021-08-12T11:10:43Z</time>
      </trkpt>
      <trkpt lat="47.27079" lon="6.94979">
        <ele>510.5</ele>
        <time>2021-08-12T11:10:45Z</time>
      </trkpt>
      <trkpt lat="47.27074" lon="6.94981">
        <ele>510.2</ele>
        <time>2021-08-12T11:10:46Z</time>
      </trkpt>
      <trkpt lat="47.27061" lon="6.94988">
        <ele>509.6</ele>
        <time>2021-08-12T11:10:48Z</time>
      </trkpt>
      <trkpt lat="47.27054" lon="6.94991">
        <ele>509.3</ele>
        <time>2021-08-12T11:10:49Z</time>
      </trkpt>
      <trkpt lat="47.27047" lon="6.94995">
        <ele>509.2</ele>
        <time>2021-08-12T11:10:50Z</time>
      </trkpt>
      <trkpt lat="47.27035" lon="6.95004">
        <ele>509</ele>
        <time>2021-08-12T11:10:52Z</time>
      </trkpt>
      <trkpt lat="47.27025" lon="6.95012">
        <ele>509.2</ele>
        <time>2021-08-12T11:10:54Z</time>
      </trkpt>
      <trkpt lat="47.27017" lon="6.9502">
        <ele>509.4</ele>
        <time>2021-08-12T11:10:56Z</time>
      </trkpt>
      <trkpt lat="47.27013" lon="6.95023">
        <ele>509.5</ele>
        <time>2021-08-12T11:10:57Z</time>
      </trkpt>
      <trkpt lat="47.27011" lon="6.95028">
        <ele>509.6</ele>
        <time>2021-08-12T11:10:58Z</time>
      </trkpt>
      <trkpt lat="47.27005" lon="6.95036">
        <ele>509.9</ele>
        <time>2021-08-12T11:11:00Z</time>
      </trkpt>
      <trkpt lat="47.27" lon="6.95043">
        <ele>510.2</ele>
        <time>2021-08-12T11:11:02Z</time>
      </trkpt>
      <trkpt lat="47.26995" lon="6.95047">
        <ele>510.4</ele>
        <time>2021-08-12T11:11:04Z</time>
      </trkpt>
      <trkpt lat="47.26994" lon="6.95051">
        <ele>510.5</ele>
        <time>2021-08-12T11:11:05Z</time>
      </trkpt>
      <trkpt lat="47.26994" lon="6.95052">
        <ele>510.6</ele>
        <time>2021-08-12T11:11:07Z</time>
      </trkpt>
      <trkpt lat="47.26994" lon="6.95054">
        <ele>510.6</ele>
        <time>2021-08-12T11:11:09Z</time>
      </trkpt>
      <trkpt lat="47.26994" lon="6.95056">
        <ele>510.7</ele>
        <time>2021-08-12T11:11:11Z</time>
      </trkpt>
      <trkpt lat="47.26994" lon="6.95058">
        <ele>510.7</ele>
        <time>2021-08-12T11:11:12Z</time>
      </trkpt>
      <trkpt lat="47.26992" lon="6.95063">
        <ele>510.9</ele>
        <time>2021-08-12T11:11:14Z</time>
      </trkpt>
      <trkpt lat="47.2699" lon="6.95067">
        <ele>511.1</ele>
        <time>2021-08-12T11:11:15Z</time>
      </trkpt>
      <trkpt lat="47.26987" lon="6.95071">
        <ele>511.3</ele>
        <time>2021-08-12T11:11:17Z</time>
      </trkpt>
      <trkpt lat="47.26985" lon="6.95073">
        <ele>511.5</ele>
        <time>2021-08-12T11:11:18Z</time>
      </trkpt>
      <trkpt lat="47.26983" lon="6.95076">
        <ele>510.7</ele>
        <time>2021-08-12T11:11:20Z</time>
      </trkpt>
      <trkpt lat="47.26982" lon="6.95077">
        <ele>510.7</ele>
        <time>2021-08-12T11:11:21Z</time>
      </trkpt>
      <trkpt lat="47.26981" lon="6.95077">
        <ele>510.3</ele>
        <time>2021-08-12T11:11:23Z</time>
      </trkpt>
      <trkpt lat="47.26983" lon="6.95078">
        <ele>509.7</ele>
        <time>2021-08-12T11:11:24Z</time>
      </trkpt>
      <trkpt lat="47.26983" lon="6.95078">
        <ele>509.3</ele>
        <time>2021-08-12T11:11:25Z</time>
      </trkpt>
      <trkpt lat="47.26983" lon="6.95078">
        <ele>508.6</ele>
        <time>2021-08-12T11:11:26Z</time>
      </trkpt>
      <trkpt lat="47.26983" lon="6.95078">
        <ele>508.6</ele>
        <time>2021-08-12T11:11:27Z</time>
      </trkpt>
      <trkpt lat="47.26983" lon="6.95078">
        <ele>508.2</ele>
        <time>2021-08-12T11:11:29Z</time>
      </trkpt>
      <trkpt lat="47.26983" lon="6.95078">
        <ele>507.9</ele>
        <time>2021-08-12T11:11:30Z</time>
      </trkpt>
      <trkpt lat="47.26983" lon="6.95078">
        <ele>507.5</ele>
        <time>2021-08-12T11:11:32Z</time>
      </trkpt>
      <trkpt lat="47.27015" lon="6.95107">
        <ele>502.5</ele>
        <time>2021-08-12T11:35:04Z</time>
      </trkpt>
      <trkpt lat="47.27017" lon="6.95111">
        <ele>502</ele>
        <time>2021-08-12T11:35:05Z</time>
      </trkpt>
      <trkpt lat="47.27019" lon="6.95116">
        <ele>501.5</ele>
        <time>2021-08-12T11:35:06Z</time>
      </trkpt>
      <trkpt lat="47.27022" lon="6.95121">
        <ele>501.1</ele>
        <time>2021-08-12T11:35:07Z</time>
      </trkpt>
      <trkpt lat="47.27025" lon="6.95127">
        <ele>500.9</ele>
        <time>2021-08-12T11:35:08Z</time>
      </trkpt>
      <trkpt lat="47.2703" lon="6.95136">
        <ele>500.8</ele>
        <time>2021-08-12T11:35:10Z</time>
      </trkpt>
      <trkpt lat="47.27031" lon="6.9514">
        <ele>500.5</ele>
        <time>2021-08-12T11:35:11Z</time>
      </trkpt>
      <trkpt lat="47.27031" lon="6.95141">
        <ele>500.2</ele>
        <time>2021-08-12T11:35:12Z</time>
      </trkpt>
      <trkpt lat="47.27031" lon="6.95145">
        <ele>499.9</ele>
        <time>2021-08-12T11:35:13Z</time>
      </trkpt>
      <trkpt lat="47.27032" lon="6.95147">
        <ele>499.6</ele>
        <time>2021-08-12T11:35:14Z</time>
      </trkpt>
      <trkpt lat="47.27033" lon="6.95149">
        <ele>499.3</ele>
        <time>2021-08-12T11:35:15Z</time>
      </trkpt>
      <trkpt lat="47.27033" lon="6.95154">
        <ele>499</ele>
        <time>2021-08-12T11:35:17Z</time>
      </trkpt>
      <trkpt lat="47.27031" lon="6.95155">
        <ele>498.6</ele>
        <time>2021-08-12T11:35:18Z</time>
      </trkpt>
      <trkpt lat="47.27024" lon="6.95153">
        <ele>498.2</ele>
        <time>2021-08-12T11:35:20Z</time>
      </trkpt>
      <trkpt lat="47.2702" lon="6.95152">
        <ele>497.9</ele>
        <time>2021-08-12T11:35:21Z</time>
      </trkpt>
      <trkpt lat="47.27019" lon="6.95152">
        <ele>497.5</ele>
        <time>2021-08-12T11:35:23Z</time>
      </trkpt>
      <trkpt lat="47.27017" lon="6.95151">
        <ele>497.1</ele>
        <time>2021-08-12T11:35:24Z</time>
      </trkpt>
      <trkpt lat="47.27015" lon="6.95148">
        <ele>496.8</ele>
        <time>2021-08-12T11:35:26Z</time>
      </trkpt>
      <trkpt lat="47.27014" lon="6.95147">
        <ele>496.4</ele>
        <time>2021-08-12T11:35:27Z</time>
      </trkpt>
      <trkpt lat="47.27" lon="6.95087">
        <ele>498.1</ele>
        <time>2021-08-12T11:36:53Z</time>
      </trkpt>
      <trkpt lat="47.27001" lon="6.95086">
        <ele>498.1</ele>
        <time>2021-08-12T11:36:54Z</time>
      </trkpt>
      <trkpt lat="47.27002" lon="6.95086">
        <ele>498.1</ele>
        <time>2021-08-12T11:36:56Z</time>
      </trkpt>
      <trkpt lat="47.27002" lon="6.95085">
        <ele>498.2</ele>
        <time>2021-08-12T11:36:57Z</time>
      </trkpt>
      <trkpt lat="47.27003" lon="6.95083">
        <ele>498.2</ele>
        <time>2021-08-12T11:36:58Z</time>
      </trkpt>
      <trkpt lat="47.27004" lon="6.95082">
        <ele>498.2</ele>
        <time>2021-08-12T11:37:00Z</time>
      </trkpt>
      <trkpt lat="47.27004" lon="6.95081">
        <ele>498.3</ele>
        <time>2021-08-12T11:37:01Z</time>
      </trkpt>
      <trkpt lat="47.27005" lon="6.95081">
        <ele>498.3</ele>
        <time>2021-08-12T11:37:02Z</time>
      </trkpt>
      <trkpt lat="47.27005" lon="6.9508">
        <ele>498.3</ele>
        <time>2021-08-12T11:37:03Z</time>
      </trkpt>
      <trkpt lat="47.27008" lon="6.95077">
        <ele>498.4</ele>
        <time>2021-08-12T11:37:05Z</time>
      </trkpt>
      <trkpt lat="47.27008" lon="6.95076">
        <ele>498.4</ele>
        <time>2021-08-12T11:37:06Z</time>
      </trkpt>
      <trkpt lat="47.2701" lon="6.95074">
        <ele>498.5</ele>
        <time>2021-08-12T11:37:07Z</time>
      </trkpt>
      <trkpt lat="47.27011" lon="6.95073">
        <ele>498.5</ele>
        <time>2021-08-12T11:37:09Z</time>
      </trkpt>
      <trkpt lat="47.27011" lon="6.95072">
        <ele>498.5</ele>
        <time>2021-08-12T11:37:10Z</time>
      </trkpt>
      <trkpt lat="47.27012" lon="6.95071">
        <ele>498.5</ele>
        <time>2021-08-12T11:37:11Z</time>
      </trkpt>
      <trkpt lat="47.27012" lon="6.9507">
        <ele>498.5</ele>
        <time>2021-08-12T11:37:12Z</time>
      </trkpt>
      <trkpt lat="47.27012" lon="6.9507">
        <ele>498.5</ele>
        <time>2021-08-12T11:37:14Z</time>
      </trkpt>
      <trkpt lat="47.27012" lon="6.95069">
        <ele>498.6</ele>
        <time>2021-08-12T11:37:16Z</time>
      </trkpt>
      <trkpt lat="47.27012" lon="6.95069">
        <ele>498.6</ele>
        <time>2021-08-12T11:37:17Z</time>
      </trkpt>
      <trkpt lat="47.27013" lon="6.95068">
        <ele>498.6</ele>
        <time>2021-08-12T11:37:19Z</time>
      </trkpt>
      <trkpt lat="47.27013" lon="6.95067">
        <ele>498.6</ele>
        <time>2021-08-12T11:37:20Z</time>
      </trkpt>
      <trkpt lat="47.27014" lon="6.95065">
        <ele>498.6</ele>
        <time>2021-08-12T11:37:22Z</time>
      </trkpt>
      <trkpt lat="47.27015" lon="6.95063">
        <ele>503.2</ele>
        <time>2021-08-12T11:37:23Z</time>
      </trkpt>
      <trkpt lat="47.27016" lon="6.95061">
        <ele>503.7</ele>
        <time>2021-08-12T11:37:25Z</time>
      </trkpt>
      <trkpt lat="47.27016" lon="6.9506">
        <ele>503.9</ele>
        <time>2021-08-12T11:37:26Z</time>
      </trkpt>
      <trkpt lat="47.27016" lon="6.9506">
        <ele>504.1</ele>
        <time>2021-08-12T11:37:28Z</time>
      </trkpt>
      <trkpt lat="47.27016" lon="6.95059">
        <ele>504.3</ele>
        <time>2021-08-12T11:37:30Z</time>
      </trkpt>
      <trkpt lat="47.27017" lon="6.95058">
        <ele>504.5</ele>
        <time>2021-08-12T11:37:31Z</time>
      </trkpt>
      <trkpt lat="47.27017" lon="6.95058">
        <ele>504.6</ele>
        <time>2021-08-12T11:37:32Z</time>
      </trkpt>
      <trkpt lat="47.27017" lon="6.95058">
        <ele>504.6</ele>
        <time>2021-08-12T11:37:34Z</time>
      </trkpt>
      <trkpt lat="47.27017" lon="6.95058">
        <ele>504.7</ele>
        <time>2021-08-12T11:37:35Z</time>
      </trkpt>
      <trkpt lat="47.27016" lon="6.95058">
        <ele>504.8</ele>
        <time>2021-08-12T11:37:37Z</time>
      </trkpt>
      <trkpt lat="47.27016" lon="6.95058">
        <ele>504.8</ele>
        <time>2021-08-12T11:37:38Z</time>
      </trkpt>
      <trkpt lat="47.27014" lon="6.95057">
        <ele>505.8</ele>
        <time>2021-08-12T11:37:39Z</time>
      </trkpt>
      <trkpt lat="47.27012" lon="6.95056">
        <ele>506.5</ele>
        <time>2021-08-12T11:37:41Z</time>
      </trkpt>
      <trkpt lat="47.27011" lon="6.95055">
        <ele>507</ele>
        <time>2021-08-12T11:37:42Z</time>
      </trkpt>
      <trkpt lat="47.2701" lon="6.95055">
        <ele>507.5</ele>
        <time>2021-08-12T11:37:43Z</time>
      </trkpt>
      <trkpt lat="47.2701" lon="6.95054">
        <ele>507.6</ele>
        <time>2021-08-12T11:37:44Z</time>
      </trkpt>
      <trkpt lat="47.27009" lon="6.95054">
        <ele>507.7</ele>
        <time>2021-08-12T11:37:46Z</time>
      </trkpt>
      <trkpt lat="47.27009" lon="6.95054">
        <ele>507.7</ele>
        <time>2021-08-12T11:37:47Z</time>
      </trkpt>
      <trkpt lat="47.27009" lon="6.95054">
        <ele>508</ele>
        <time>2021-08-12T11:37:48Z</time>
      </trkpt>
      <trkpt lat="47.27008" lon="6.95054">
        <ele>508.1</ele>
        <time>2021-08-12T11:37:50Z</time>
      </trkpt>
      <trkpt lat="47.27008" lon="6.95054">
        <ele>508.3</ele>
        <time>2021-08-12T11:37:52Z</time>
      </trkpt>
      <trkpt lat="47.27007" lon="6.95054">
        <ele>508.5</ele>
        <time>2021-08-12T11:37:53Z</time>
      </trkpt>
      <trkpt lat="47.27007" lon="6.95054">
        <ele>508.6</ele>
        <time>2021-08-12T11:37:54Z</time>
      </trkpt>
      <trkpt lat="47.27007" lon="6.95053">
        <ele>508.7</ele>
        <time>2021-08-12T11:37:55Z</time>
      </trkpt>
      <trkpt lat="47.27007" lon="6.95053">
        <ele>508.8</ele>
        <time>2021-08-12T11:37:57Z</time>
      </trkpt>
      <trkpt lat="47.27007" lon="6.95052">
        <ele>509</ele>
        <time>2021-08-12T11:37:58Z</time>
      </trkpt>
      <trkpt lat="47.27007" lon="6.95051">
        <ele>509.2</ele>
        <time>2021-08-12T11:38:00Z</time>
      </trkpt>
      <trkpt lat="47.27007" lon="6.95051">
        <ele>509.3</ele>
        <time>2021-08-12T11:38:01Z</time>
      </trkpt>
      <trkpt lat="47.27007" lon="6.9505">
        <ele>509.4</ele>
        <time>2021-08-12T11:38:02Z</time>
      </trkpt>
      <trkpt lat="47.27007" lon="6.9505">
        <ele>509.5</ele>
        <time>2021-08-12T11:38:04Z</time>
      </trkpt>
      <trkpt lat="47.27007" lon="6.9505">
        <ele>509.6</ele>
        <time>2021-08-12T11:38:05Z</time>
      </trkpt>
      <trkpt lat="47.27007" lon="6.9505">
        <ele>509.6</ele>
        <time>2021-08-12T11:38:07Z</time>
      </trkpt>
      <trkpt lat="47.27007" lon="6.9505">
        <ele>509.6</ele>
        <time>2021-08-12T11:38:08Z</time>
      </trkpt>
      <trkpt lat="47.27007" lon="6.9505">
        <ele>509.6</ele>
        <time>2021-08-12T11:38:09Z</time>
      </trkpt>
      <trkpt lat="47.27006" lon="6.9505">
        <ele>510</ele>
        <time>2021-08-12T11:38:10Z</time>
      </trkpt>
      <trkpt lat="47.27004" lon="6.95052">
        <ele>510.2</ele>
        <time>2021-08-12T11:38:11Z</time>
      </trkpt>
      <trkpt lat="47.27001" lon="6.95054">
        <ele>510.3</ele>
        <time>2021-08-12T11:38:13Z</time>
      </trkpt>
      <trkpt lat="47.27" lon="6.95054">
        <ele>510.3</ele>
        <time>2021-08-12T11:38:14Z</time>
      </trkpt>
      <trkpt lat="47.26997" lon="6.95056">
        <ele>510.5</ele>
        <time>2021-08-12T11:38:15Z</time>
      </trkpt>
      <trkpt lat="47.26996" lon="6.95056">
        <ele>510.5</ele>
        <time>2021-08-12T11:38:16Z</time>
      </trkpt>
      <trkpt lat="47.26994" lon="6.95058">
        <ele>510.7</ele>
        <time>2021-08-12T11:38:17Z</time>
      </trkpt>
      <trkpt lat="47.26989" lon="6.9506">
        <ele>510.9</ele>
        <time>2021-08-12T11:38:18Z</time>
      </trkpt>
      <trkpt lat="47.26988" lon="6.9506">
        <ele>511</ele>
        <time>2021-08-12T11:38:19Z</time>
      </trkpt>
      <trkpt lat="47.26981" lon="6.95062">
        <ele>511.5</ele>
        <time>2021-08-12T11:38:20Z</time>
      </trkpt>
      <trkpt lat="47.26978" lon="6.95064">
        <ele>511.9</ele>
        <time>2021-08-12T11:38:22Z</time>
      </trkpt>
      <trkpt lat="47.26975" lon="6.95067">
        <ele>512.2</ele>
        <time>2021-08-12T11:38:23Z</time>
      </trkpt>
      <trkpt lat="47.26973" lon="6.95068">
        <ele>512.4</ele>
        <time>2021-08-12T11:38:24Z</time>
      </trkpt>
      <trkpt lat="47.26972" lon="6.95069">
        <ele>512.5</ele>
        <time>2021-08-12T11:38:25Z</time>
      </trkpt>
      <trkpt lat="47.26971" lon="6.95069">
        <ele>512.6</ele>
        <time>2021-08-12T11:38:27Z</time>
      </trkpt>
      <trkpt lat="47.26971" lon="6.95069">
        <ele>512.7</ele>
        <time>2021-08-12T11:38:28Z</time>
      </trkpt>
      <trkpt lat="47.26966" lon="6.9507">
        <ele>513.1</ele>
        <time>2021-08-12T11:38:30Z</time>
      </trkpt>
      <trkpt lat="47.26965" lon="6.9507">
        <ele>513.2</ele>
        <time>2021-08-12T11:38:31Z</time>
      </trkpt>
      <trkpt lat="47.26964" lon="6.9507">
        <ele>513.4</ele>
        <time>2021-08-12T11:38:32Z</time>
      </trkpt>
      <trkpt lat="47.26962" lon="6.95071">
        <ele>513.5</ele>
        <time>2021-08-12T11:38:33Z</time>
      </trkpt>
      <trkpt lat="47.26959" lon="6.95073">
        <ele>513.9</ele>
        <time>2021-08-12T11:38:35Z</time>
      </trkpt>
      <trkpt lat="47.26957" lon="6.95071">
        <ele>514.2</ele>
        <time>2021-08-12T11:38:36Z</time>
      </trkpt>
      <trkpt lat="47.26956" lon="6.9507">
        <ele>514.3</ele>
        <time>2021-08-12T11:38:37Z</time>
      </trkpt>
      <trkpt lat="47.26954" lon="6.95068">
        <ele>514.5</ele>
        <time>2021-08-12T11:38:39Z</time>
      </trkpt>
      <trkpt lat="47.26954" lon="6.95066">
        <ele>514.6</ele>
        <time>2021-08-12T11:38:40Z</time>
      </trkpt>
      <trkpt lat="47.26953" lon="6.95065">
        <ele>514.7</ele>
        <time>2021-08-12T11:38:42Z</time>
      </trkpt>
      <trkpt lat="47.26952" lon="6.95064">
        <ele>514.8</ele>
        <time>2021-08-12T11:38:43Z</time>
      </trkpt>
      <trkpt lat="47.26951" lon="6.95064">
        <ele>514.9</ele>
        <time>2021-08-12T11:38:44Z</time>
      </trkpt>
      <trkpt lat="47.2695" lon="6.95064">
        <ele>515</ele>
        <time>2021-08-12T11:38:45Z</time>
      </trkpt>
      <trkpt lat="47.26948" lon="6.95063">
        <ele>515.2</ele>
        <time>2021-08-12T11:38:47Z</time>
      </trkpt>
      <trkpt lat="47.26946" lon="6.95062">
        <ele>515.4</ele>
        <time>2021-08-12T11:38:48Z</time>
      </trkpt>
      <trkpt lat="47.26944" lon="6.95062">
        <ele>515.5</ele>
        <time>2021-08-12T11:38:49Z</time>
      </trkpt>
      <trkpt lat="47.26943" lon="6.95061">
        <ele>515.6</ele>
        <time>2021-08-12T11:38:51Z</time>
      </trkpt>
      <trkpt lat="47.26942" lon="6.9506">
        <ele>515.7</ele>
        <time>2021-08-12T11:38:52Z</time>
      </trkpt>
      <trkpt lat="47.26941" lon="6.95059">
        <ele>515.8</ele>
        <time>2021-08-12T11:38:53Z</time>
      </trkpt>
      <trkpt lat="47.2694" lon="6.95059">
        <ele>515.9</ele>
        <time>2021-08-12T11:38:54Z</time>
      </trkpt>
      <trkpt lat="47.26938" lon="6.95059">
        <ele>516</ele>
        <time>2021-08-12T11:38:56Z</time>
      </trkpt>
      <trkpt lat="47.26937" lon="6.95059">
        <ele>516.1</ele>
        <time>2021-08-12T11:38:58Z</time>
      </trkpt>
      <trkpt lat="47.26923" lon="6.95062">
        <ele>517</ele>
        <time>2021-08-12T11:39:04Z</time>
      </trkpt>
      <trkpt lat="47.26918" lon="6.95063">
        <ele>517.2</ele>
        <time>2021-08-12T11:39:06Z</time>
      </trkpt>
      <trkpt lat="47.26915" lon="6.95062">
        <ele>517.4</ele>
        <time>2021-08-12T11:39:07Z</time>
      </trkpt>
      <trkpt lat="47.26912" lon="6.95062">
        <ele>517.6</ele>
        <time>2021-08-12T11:39:08Z</time>
      </trkpt>
      <trkpt lat="47.26908" lon="6.95061">
        <ele>517.8</ele>
        <time>2021-08-12T11:39:10Z</time>
      </trkpt>
      <trkpt lat="47.26904" lon="6.9506">
        <ele>518</ele>
        <time>2021-08-12T11:39:11Z</time>
      </trkpt>
      <trkpt lat="47.26901" lon="6.95059">
        <ele>518.1</ele>
        <time>2021-08-12T11:39:12Z</time>
      </trkpt>
      <trkpt lat="47.26895" lon="6.95058">
        <ele>518.4</ele>
        <time>2021-08-12T11:39:13Z</time>
      </trkpt>
      <trkpt lat="47.26888" lon="6.95056">
        <ele>518.7</ele>
        <time>2021-08-12T11:39:14Z</time>
      </trkpt>
      <trkpt lat="47.26884" lon="6.95056">
        <ele>518.8</ele>
        <time>2021-08-12T11:39:15Z</time>
      </trkpt>
      <trkpt lat="47.26874" lon="6.95057">
        <ele>519.1</ele>
        <time>2021-08-12T11:39:16Z</time>
      </trkpt>
      <trkpt lat="47.26858" lon="6.95057">
        <ele>519.1</ele>
        <time>2021-08-12T11:39:17Z</time>
      </trkpt>
      <trkpt lat="47.26852" lon="6.95057">
        <ele>519.1</ele>
        <time>2021-08-12T11:39:18Z</time>
      </trkpt>
      <trkpt lat="47.26848" lon="6.95055">
        <ele>519</ele>
        <time>2021-08-12T11:39:20Z</time>
      </trkpt>
      <trkpt lat="47.26847" lon="6.95054">
        <ele>519</ele>
        <time>2021-08-12T11:39:21Z</time>
      </trkpt>
      <trkpt lat="47.26847" lon="6.95053">
        <ele>519</ele>
        <time>2021-08-12T11:39:22Z</time>
      </trkpt>
      <trkpt lat="47.26846" lon="6.95052">
        <ele>519</ele>
        <time>2021-08-12T11:39:23Z</time>
      </trkpt>
      <trkpt lat="47.26844" lon="6.9505">
        <ele>519</ele>
        <time>2021-08-12T11:39:24Z</time>
      </trkpt>
      <trkpt lat="47.26824" lon="6.95029">
        <ele>519.1</ele>
        <time>2021-08-12T11:39:38Z</time>
      </trkpt>
      <trkpt lat="47.26818" lon="6.95023">
        <ele>519.2</ele>
        <time>2021-08-12T11:39:40Z</time>
      </trkpt>
      <trkpt lat="47.26816" lon="6.95019">
        <ele>519.2</ele>
        <time>2021-08-12T11:39:41Z</time>
      </trkpt>
      <trkpt lat="47.26814" lon="6.95015">
        <ele>519.1</ele>
        <time>2021-08-12T11:39:42Z</time>
      </trkpt>
      <trkpt lat="47.26811" lon="6.9501">
        <ele>518.8</ele>
        <time>2021-08-12T11:39:44Z</time>
      </trkpt>
      <trkpt lat="47.26809" lon="6.95005">
        <ele>518.6</ele>
        <time>2021-08-12T11:39:45Z</time>
      </trkpt>
      <trkpt lat="47.26805" lon="6.95002">
        <ele>518.3</ele>
        <time>2021-08-12T11:39:47Z</time>
      </trkpt>
      <trkpt lat="47.26802" lon="6.95001">
        <ele>518.1</ele>
        <time>2021-08-12T11:39:48Z</time>
      </trkpt>
      <trkpt lat="47.26798" lon="6.95">
        <ele>517.8</ele>
        <time>2021-08-12T11:39:49Z</time>
      </trkpt>
      <trkpt lat="47.26795" lon="6.95">
        <ele>517.6</ele>
        <time>2021-08-12T11:39:50Z</time>
      </trkpt>
      <trkpt lat="47.26789" lon="6.94999">
        <ele>517.1</ele>
        <time>2021-08-12T11:39:52Z</time>
      </trkpt>
      <trkpt lat="47.26786" lon="6.94998">
        <ele>516.9</ele>
        <time>2021-08-12T11:39:53Z</time>
      </trkpt>
      <trkpt lat="47.26782" lon="6.94997">
        <ele>516.5</ele>
        <time>2021-08-12T11:39:54Z</time>
      </trkpt>
      <trkpt lat="47.26776" lon="6.94996">
        <ele>516.1</ele>
        <time>2021-08-12T11:39:55Z</time>
      </trkpt>
      <trkpt lat="47.2677" lon="6.94995">
        <ele>515.5</ele>
        <time>2021-08-12T11:39:56Z</time>
      </trkpt>
      <trkpt lat="47.26755" lon="6.94994">
        <ele>513.9</ele>
        <time>2021-08-12T11:39:58Z</time>
      </trkpt>
      <trkpt lat="47.26748" lon="6.94994">
        <ele>513</ele>
        <time>2021-08-12T11:39:59Z</time>
      </trkpt>
      <trkpt lat="47.26742" lon="6.94993">
        <ele>512.2</ele>
        <time>2021-08-12T11:40:00Z</time>
      </trkpt>
      <trkpt lat="47.26738" lon="6.94991">
        <ele>511.5</ele>
        <time>2021-08-12T11:40:01Z</time>
      </trkpt>
      <trkpt lat="47.26732" lon="6.94988">
        <ele>510.7</ele>
        <time>2021-08-12T11:40:02Z</time>
      </trkpt>
      <trkpt lat="47.26718" lon="6.9498">
        <ele>508.7</ele>
        <time>2021-08-12T11:40:04Z</time>
      </trkpt>
      <trkpt lat="47.26704" lon="6.94969">
        <ele>506.4</ele>
        <time>2021-08-12T11:40:06Z</time>
      </trkpt>
      <trkpt lat="47.26691" lon="6.94958">
        <ele>504.5</ele>
        <time>2021-08-12T11:40:08Z</time>
      </trkpt>
      <trkpt lat="47.26685" lon="6.94954">
        <ele>503.7</ele>
        <time>2021-08-12T11:40:09Z</time>
      </trkpt>
      <trkpt lat="47.26671" lon="6.94954">
        <ele>502.4</ele>
        <time>2021-08-12T11:40:11Z</time>
      </trkpt>
      <trkpt lat="47.26655" lon="6.94955">
        <ele>501.1</ele>
        <time>2021-08-12T11:40:13Z</time>
      </trkpt>
      <trkpt lat="47.26646" lon="6.94955">
        <ele>500.6</ele>
        <time>2021-08-12T11:40:14Z</time>
      </trkpt>
      <trkpt lat="47.26626" lon="6.94951">
        <ele>499.8</ele>
        <time>2021-08-12T11:40:16Z</time>
      </trkpt>
      <trkpt lat="47.26607" lon="6.94946">
        <ele>499.7</ele>
        <time>2021-08-12T11:40:18Z</time>
      </trkpt>
      <trkpt lat="47.26598" lon="6.94945">
        <ele>499.7</ele>
        <time>2021-08-12T11:40:19Z</time>
      </trkpt>
      <trkpt lat="47.2659" lon="6.94945">
        <ele>499.7</ele>
        <time>2021-08-12T11:40:20Z</time>
      </trkpt>
      <trkpt lat="47.26578" lon="6.94942">
        <ele>499.5</ele>
        <time>2021-08-12T11:40:22Z</time>
      </trkpt>
      <trkpt lat="47.26572" lon="6.94941">
        <ele>499.4</ele>
        <time>2021-08-12T11:40:23Z</time>
      </trkpt>
      <trkpt lat="47.26566" lon="6.94941">
        <ele>499.3</ele>
        <time>2021-08-12T11:40:24Z</time>
      </trkpt>
      <trkpt lat="47.26553" lon="6.94941">
        <ele>499.1</ele>
        <time>2021-08-12T11:40:26Z</time>
      </trkpt>
      <trkpt lat="47.26538" lon="6.94943">
        <ele>499.1</ele>
        <time>2021-08-12T11:40:28Z</time>
      </trkpt>
      <trkpt lat="47.26531" lon="6.94944">
        <ele>499.2</ele>
        <time>2021-08-12T11:40:29Z</time>
      </trkpt>
      <trkpt lat="47.26524" lon="6.94946">
        <ele>499.2</ele>
        <time>2021-08-12T11:40:30Z</time>
      </trkpt>
      <trkpt lat="47.26517" lon="6.9495">
        <ele>499.3</ele>
        <time>2021-08-12T11:40:31Z</time>
      </trkpt>
      <trkpt lat="47.26511" lon="6.94952">
        <ele>499.3</ele>
        <time>2021-08-12T11:40:32Z</time>
      </trkpt>
      <trkpt lat="47.26505" lon="6.94955">
        <ele>499.4</ele>
        <time>2021-08-12T11:40:34Z</time>
      </trkpt>
      <trkpt lat="47.26499" lon="6.94958">
        <ele>499.4</ele>
        <time>2021-08-12T11:40:36Z</time>
      </trkpt>
      <trkpt lat="47.26495" lon="6.9496">
        <ele>499.4</ele>
        <time>2021-08-12T11:40:37Z</time>
      </trkpt>
      <trkpt lat="47.26492" lon="6.94962">
        <ele>499.4</ele>
        <time>2021-08-12T11:40:38Z</time>
      </trkpt>
      <trkpt lat="47.26482" lon="6.94968">
        <ele>499.5</ele>
        <time>2021-08-12T11:40:40Z</time>
      </trkpt>
      <trkpt lat="47.26471" lon="6.94975">
        <ele>499.6</ele>
        <time>2021-08-12T11:40:42Z</time>
      </trkpt>
      <trkpt lat="47.26467" lon="6.94977">
        <ele>499.7</ele>
        <time>2021-08-12T11:40:43Z</time>
      </trkpt>
      <trkpt lat="47.26465" lon="6.94976">
        <ele>499.7</ele>
        <time>2021-08-12T11:40:44Z</time>
      </trkpt>
      <trkpt lat="47.26461" lon="6.94975">
        <ele>499.7</ele>
        <time>2021-08-12T11:40:46Z</time>
      </trkpt>
      <trkpt lat="47.26451" lon="6.94979">
        <ele>499.8</ele>
        <time>2021-08-12T11:40:47Z</time>
      </trkpt>
      <trkpt lat="47.26447" lon="6.9498">
        <ele>499.8</ele>
        <time>2021-08-12T11:40:49Z</time>
      </trkpt>
      <trkpt lat="47.26443" lon="6.94979">
        <ele>499.8</ele>
        <time>2021-08-12T11:40:50Z</time>
      </trkpt>
      <trkpt lat="47.26438" lon="6.94977">
        <ele>499.9</ele>
        <time>2021-08-12T11:40:51Z</time>
      </trkpt>
      <trkpt lat="47.26424" lon="6.94979">
        <ele>500.1</ele>
        <time>2021-08-12T11:40:53Z</time>
      </trkpt>
      <trkpt lat="47.26414" lon="6.94982">
        <ele>500.2</ele>
        <time>2021-08-12T11:40:54Z</time>
      </trkpt>
      <trkpt lat="47.26337" lon="6.9499">
        <ele>504.1</ele>
        <time>2021-08-12T11:41:07Z</time>
      </trkpt>
      <trkpt lat="47.26333" lon="6.9499">
        <ele>504.3</ele>
        <time>2021-08-12T11:41:08Z</time>
      </trkpt>
      <trkpt lat="47.26329" lon="6.94989">
        <ele>504.6</ele>
        <time>2021-08-12T11:41:10Z</time>
      </trkpt>
      <trkpt lat="47.26325" lon="6.9499">
        <ele>504.8</ele>
        <time>2021-08-12T11:41:12Z</time>
      </trkpt>
      <trkpt lat="47.2632" lon="6.9499">
        <ele>505</ele>
        <time>2021-08-12T11:41:14Z</time>
      </trkpt>
      <trkpt lat="47.26318" lon="6.94988">
        <ele>505.1</ele>
        <time>2021-08-12T11:41:16Z</time>
      </trkpt>
      <trkpt lat="47.26315" lon="6.94987">
        <ele>505.2</ele>
        <time>2021-08-12T11:41:18Z</time>
      </trkpt>
      <trkpt lat="47.26312" lon="6.94986">
        <ele>505.3</ele>
        <time>2021-08-12T11:41:19Z</time>
      </trkpt>
      <trkpt lat="47.2631" lon="6.94986">
        <ele>505.4</ele>
        <time>2021-08-12T11:41:20Z</time>
      </trkpt>
      <trkpt lat="47.26307" lon="6.94985">
        <ele>505.5</ele>
        <time>2021-08-12T11:41:22Z</time>
      </trkpt>
      <trkpt lat="47.26304" lon="6.94984">
        <ele>505.6</ele>
        <time>2021-08-12T11:41:23Z</time>
      </trkpt>
      <trkpt lat="47.26302" lon="6.94983">
        <ele>505.7</ele>
        <time>2021-08-12T11:41:24Z</time>
      </trkpt>
      <trkpt lat="47.26299" lon="6.94982">
        <ele>505.8</ele>
        <time>2021-08-12T11:41:39Z</time>
      </trkpt>
      <trkpt lat="47.26296" lon="6.94981">
        <ele>505.8</ele>
        <time>2021-08-12T11:41:40Z</time>
      </trkpt>
      <trkpt lat="47.26291" lon="6.94982">
        <ele>505.9</ele>
        <time>2021-08-12T11:41:42Z</time>
      </trkpt>
      <trkpt lat="47.26285" lon="6.94981">
        <ele>506</ele>
        <time>2021-08-12T11:41:43Z</time>
      </trkpt>
      <trkpt lat="47.26282" lon="6.94979">
        <ele>506</ele>
        <time>2021-08-12T11:41:45Z</time>
      </trkpt>
      <trkpt lat="47.2628" lon="6.94979">
        <ele>506</ele>
        <time>2021-08-12T11:41:46Z</time>
      </trkpt>
      <trkpt lat="47.26279" lon="6.9498">
        <ele>506</ele>
        <time>2021-08-12T11:41:47Z</time>
      </trkpt>
      <trkpt lat="47.26276" lon="6.9498">
        <ele>506</ele>
        <time>2021-08-12T11:41:49Z</time>
      </trkpt>
      <trkpt lat="47.26274" lon="6.94979">
        <ele>506</ele>
        <time>2021-08-12T11:41:50Z</time>
      </trkpt>
      <trkpt lat="47.26272" lon="6.94979">
        <ele>506</ele>
        <time>2021-08-12T11:41:51Z</time>
      </trkpt>
      <trkpt lat="47.26269" lon="6.9498">
        <ele>506</ele>
        <time>2021-08-12T11:41:53Z</time>
      </trkpt>
      <trkpt lat="47.26264" lon="6.9498">
        <ele>506</ele>
        <time>2021-08-12T11:41:54Z</time>
      </trkpt>
      <trkpt lat="47.26261" lon="6.9498">
        <ele>506</ele>
        <time>2021-08-12T11:41:55Z</time>
      </trkpt>
      <trkpt lat="47.26258" lon="6.94979">
        <ele>506</ele>
        <time>2021-08-12T11:41:56Z</time>
      </trkpt>
      <trkpt lat="47.26252" lon="6.94978">
        <ele>506.1</ele>
        <time>2021-08-12T11:41:58Z</time>
      </trkpt>
      <trkpt lat="47.26248" lon="6.94976">
        <ele>506.1</ele>
        <time>2021-08-12T11:41:59Z</time>
      </trkpt>
      <trkpt lat="47.26243" lon="6.94974">
        <ele>506.1</ele>
        <time>2021-08-12T11:42:00Z</time>
      </trkpt>
      <trkpt lat="47.26237" lon="6.94974">
        <ele>506.1</ele>
        <time>2021-08-12T11:42:02Z</time>
      </trkpt>
      <trkpt lat="47.26232" lon="6.94974">
        <ele>506.2</ele>
        <time>2021-08-12T11:42:03Z</time>
      </trkpt>
      <trkpt lat="47.26228" lon="6.94973">
        <ele>506.2</ele>
        <time>2021-08-12T11:42:04Z</time>
      </trkpt>
      <trkpt lat="47.26226" lon="6.94973">
        <ele>506.2</ele>
        <time>2021-08-12T11:42:05Z</time>
      </trkpt>
      <trkpt lat="47.26221" lon="6.94972">
        <ele>506.3</ele>
        <time>2021-08-12T11:42:07Z</time>
      </trkpt>
      <trkpt lat="47.26217" lon="6.94973">
        <ele>506.3</ele>
        <time>2021-08-12T11:42:08Z</time>
      </trkpt>
      <trkpt lat="47.26212" lon="6.94975">
        <ele>506.3</ele>
        <time>2021-08-12T11:42:10Z</time>
      </trkpt>
      <trkpt lat="47.26206" lon="6.94978">
        <ele>506.3</ele>
        <time>2021-08-12T11:42:12Z</time>
      </trkpt>
      <trkpt lat="47.26201" lon="6.94981">
        <ele>506.3</ele>
        <time>2021-08-12T11:42:13Z</time>
      </trkpt>
      <trkpt lat="47.26196" lon="6.94983">
        <ele>506.3</ele>
        <time>2021-08-12T11:42:14Z</time>
      </trkpt>
      <trkpt lat="47.2619" lon="6.94985">
        <ele>506.3</ele>
        <time>2021-08-12T11:42:16Z</time>
      </trkpt>
      <trkpt lat="47.2618" lon="6.94992">
        <ele>506.2</ele>
        <time>2021-08-12T11:42:17Z</time>
      </trkpt>
      <trkpt lat="47.26175" lon="6.94997">
        <ele>506.2</ele>
        <time>2021-08-12T11:42:19Z</time>
      </trkpt>
      <trkpt lat="47.26171" lon="6.94997">
        <ele>506.1</ele>
        <time>2021-08-12T11:42:20Z</time>
      </trkpt>
      <trkpt lat="47.26165" lon="6.94998">
        <ele>506.1</ele>
        <time>2021-08-12T11:42:22Z</time>
      </trkpt>
      <trkpt lat="47.26162" lon="6.95">
        <ele>506</ele>
        <time>2021-08-12T11:42:23Z</time>
      </trkpt>
      <trkpt lat="47.2616" lon="6.95">
        <ele>506</ele>
        <time>2021-08-12T11:42:24Z</time>
      </trkpt>
      <trkpt lat="47.26157" lon="6.95001">
        <ele>506</ele>
        <time>2021-08-12T11:42:25Z</time>
      </trkpt>
      <trkpt lat="47.26153" lon="6.95002">
        <ele>505.9</ele>
        <time>2021-08-12T11:42:26Z</time>
      </trkpt>
      <trkpt lat="47.26151" lon="6.95005">
        <ele>505.9</ele>
        <time>2021-08-12T11:42:27Z</time>
      </trkpt>
      <trkpt lat="47.26147" lon="6.9501">
        <ele>505.8</ele>
        <time>2021-08-12T11:42:28Z</time>
      </trkpt>
      <trkpt lat="47.26145" lon="6.95018">
        <ele>505.8</ele>
        <time>2021-08-12T11:42:30Z</time>
      </trkpt>
      <trkpt lat="47.26144" lon="6.95026">
        <ele>503.9</ele>
        <time>2021-08-12T11:42:31Z</time>
      </trkpt>
      <trkpt lat="47.26143" lon="6.95033">
        <ele>503.5</ele>
        <time>2021-08-12T11:42:33Z</time>
      </trkpt>
      <trkpt lat="47.26142" lon="6.9504">
        <ele>503.1</ele>
        <time>2021-08-12T11:42:34Z</time>
      </trkpt>
      <trkpt lat="47.26139" lon="6.95048">
        <ele>502.6</ele>
        <time>2021-08-12T11:42:35Z</time>
      </trkpt>
      <trkpt lat="47.26139" lon="6.95055">
        <ele>502.3</ele>
        <time>2021-08-12T11:42:36Z</time>
      </trkpt>
      <trkpt lat="47.2614" lon="6.9507">
        <ele>501.8</ele>
        <time>2021-08-12T11:42:38Z</time>
      </trkpt>
      <trkpt lat="47.26142" lon="6.95086">
        <ele>501.6</ele>
        <time>2021-08-12T11:42:40Z</time>
      </trkpt>
      <trkpt lat="47.26143" lon="6.95094">
        <ele>501.5</ele>
        <time>2021-08-12T11:42:41Z</time>
      </trkpt>
      <trkpt lat="47.26143" lon="6.95102">
        <ele>501.4</ele>
        <time>2021-08-12T11:42:42Z</time>
      </trkpt>
      <trkpt lat="47.26142" lon="6.95116">
        <ele>501.2</ele>
        <time>2021-08-12T11:42:44Z</time>
      </trkpt>
      <trkpt lat="47.26142" lon="6.95131">
        <ele>501.1</ele>
        <time>2021-08-12T11:42:46Z</time>
      </trkpt>
      <trkpt lat="47.26139" lon="6.95145">
        <ele>501</ele>
        <time>2021-08-12T11:42:48Z</time>
      </trkpt>
      <trkpt lat="47.26135" lon="6.95157">
        <ele>501.2</ele>
        <time>2021-08-12T11:42:50Z</time>
      </trkpt>
      <trkpt lat="47.26132" lon="6.95169">
        <ele>501.7</ele>
        <time>2021-08-12T11:42:52Z</time>
      </trkpt>
      <trkpt lat="47.2613" lon="6.95174">
        <ele>501.9</ele>
        <time>2021-08-12T11:42:53Z</time>
      </trkpt>
      <trkpt lat="47.26128" lon="6.95179">
        <ele>502.1</ele>
        <time>2021-08-12T11:42:54Z</time>
      </trkpt>
      <trkpt lat="47.26121" lon="6.95183">
        <ele>502.1</ele>
        <time>2021-08-12T11:42:56Z</time>
      </trkpt>
      <trkpt lat="47.26117" lon="6.95185">
        <ele>501.6</ele>
        <time>2021-08-12T11:42:58Z</time>
      </trkpt>
      <trkpt lat="47.26117" lon="6.95186">
        <ele>501.6</ele>
        <time>2021-08-12T11:42:59Z</time>
      </trkpt>
      <trkpt lat="47.26116" lon="6.95187">
        <ele>501.6</ele>
        <time>2021-08-12T11:43:00Z</time>
      </trkpt>
      <trkpt lat="47.26115" lon="6.95189">
        <ele>501.6</ele>
        <time>2021-08-12T11:43:02Z</time>
      </trkpt>
      <trkpt lat="47.26114" lon="6.9519">
        <ele>501.6</ele>
        <time>2021-08-12T11:43:03Z</time>
      </trkpt>
      <trkpt lat="47.26111" lon="6.95192">
        <ele>501.7</ele>
        <time>2021-08-12T11:43:04Z</time>
      </trkpt>
      <trkpt lat="47.26107" lon="6.95192">
        <ele>501.7</ele>
        <time>2021-08-12T11:43:05Z</time>
      </trkpt>
      <trkpt lat="47.26103" lon="6.9519">
        <ele>501.8</ele>
        <time>2021-08-12T11:43:06Z</time>
      </trkpt>
      <trkpt lat="47.26101" lon="6.95188">
        <ele>501.8</ele>
        <time>2021-08-12T11:43:07Z</time>
      </trkpt>
      <trkpt lat="47.26095" lon="6.95186">
        <ele>501.9</ele>
        <time>2021-08-12T11:43:08Z</time>
      </trkpt>
      <trkpt lat="47.26086" lon="6.95183">
        <ele>502.1</ele>
        <time>2021-08-12T11:43:10Z</time>
      </trkpt>
      <trkpt lat="47.26083" lon="6.95178">
        <ele>502.2</ele>
        <time>2021-08-12T11:43:11Z</time>
      </trkpt>
      <trkpt lat="47.26074" lon="6.95174">
        <ele>502.4</ele>
        <time>2021-08-12T11:43:13Z</time>
      </trkpt>
      <trkpt lat="47.26069" lon="6.95172">
        <ele>502.6</ele>
        <time>2021-08-12T11:43:14Z</time>
      </trkpt>
      <trkpt lat="47.26064" lon="6.95169">
        <ele>502.8</ele>
        <time>2021-08-12T11:43:15Z</time>
      </trkpt>
      <trkpt lat="47.2606" lon="6.95167">
        <ele>502.9</ele>
        <time>2021-08-12T11:43:17Z</time>
      </trkpt>
      <trkpt lat="47.26058" lon="6.95164">
        <ele>503</ele>
        <time>2021-08-12T11:43:18Z</time>
      </trkpt>
      <trkpt lat="47.26056" lon="6.9516">
        <ele>503.2</ele>
        <time>2021-08-12T11:43:20Z</time>
      </trkpt>
      <trkpt lat="47.26053" lon="6.95158">
        <ele>503.3</ele>
        <time>2021-08-12T11:43:21Z</time>
      </trkpt>
      <trkpt lat="47.26049" lon="6.95155">
        <ele>503.5</ele>
        <time>2021-08-12T11:43:23Z</time>
      </trkpt>
      <trkpt lat="47.26047" lon="6.95154">
        <ele>503.7</ele>
        <time>2021-08-12T11:43:24Z</time>
      </trkpt>
      <trkpt lat="47.26042" lon="6.9515">
        <ele>503.9</ele>
        <time>2021-08-12T11:43:26Z</time>
      </trkpt>
      <trkpt lat="47.2604" lon="6.95146">
        <ele>504.1</ele>
        <time>2021-08-12T11:43:27Z</time>
      </trkpt>
      <trkpt lat="47.26038" lon="6.95144">
        <ele>504.3</ele>
        <time>2021-08-12T11:43:28Z</time>
      </trkpt>
      <trkpt lat="47.26032" lon="6.95144">
        <ele>504.6</ele>
        <time>2021-08-12T11:43:30Z</time>
      </trkpt>
      <trkpt lat="47.26027" lon="6.95144">
        <ele>504.9</ele>
        <time>2021-08-12T11:43:32Z</time>
      </trkpt>
      <trkpt lat="47.26021" lon="6.95144">
        <ele>505.3</ele>
        <time>2021-08-12T11:43:33Z</time>
      </trkpt>
      <trkpt lat="47.26016" lon="6.95143">
        <ele>505.6</ele>
        <time>2021-08-12T11:43:35Z</time>
      </trkpt>
      <trkpt lat="47.26012" lon="6.95139">
        <ele>505.9</ele>
        <time>2021-08-12T11:43:36Z</time>
      </trkpt>
      <trkpt lat="47.26008" lon="6.95136">
        <ele>506.2</ele>
        <time>2021-08-12T11:43:38Z</time>
      </trkpt>
      <trkpt lat="47.26006" lon="6.95136">
        <ele>506.3</ele>
        <time>2021-08-12T11:43:39Z</time>
      </trkpt>
      <trkpt lat="47.26006" lon="6.95136">
        <ele>506.4</ele>
        <time>2021-08-12T11:43:40Z</time>
      </trkpt>
      <trkpt lat="47.26003" lon="6.95136">
        <ele>506.5</ele>
        <time>2021-08-12T11:43:42Z</time>
      </trkpt>
      <trkpt lat="47.26002" lon="6.95136">
        <ele>506.6</ele>
        <time>2021-08-12T11:43:43Z</time>
      </trkpt>
      <trkpt lat="47.26001" lon="6.95135">
        <ele>506.6</ele>
        <time>2021-08-12T11:43:44Z</time>
      </trkpt>
      <trkpt lat="47.25997" lon="6.95131">
        <ele>507</ele>
        <time>2021-08-12T11:43:46Z</time>
      </trkpt>
      <trkpt lat="47.25995" lon="6.95129">
        <ele>507.2</ele>
        <time>2021-08-12T11:43:47Z</time>
      </trkpt>
      <trkpt lat="47.25991" lon="6.95126">
        <ele>507.5</ele>
        <time>2021-08-12T11:43:49Z</time>
      </trkpt>
      <trkpt lat="47.25989" lon="6.95124">
        <ele>507.7</ele>
        <time>2021-08-12T11:43:50Z</time>
      </trkpt>
      <trkpt lat="47.25986" lon="6.95122">
        <ele>507.9</ele>
        <time>2021-08-12T11:43:51Z</time>
      </trkpt>
      <trkpt lat="47.25984" lon="6.95121">
        <ele>508</ele>
        <time>2021-08-12T11:43:52Z</time>
      </trkpt>
      <trkpt lat="47.25982" lon="6.95119">
        <ele>508.2</ele>
        <time>2021-08-12T11:43:53Z</time>
      </trkpt>
      <trkpt lat="47.25981" lon="6.95118">
        <ele>508.3</ele>
        <time>2021-08-12T11:43:54Z</time>
      </trkpt>
      <trkpt lat="47.25981" lon="6.95118">
        <ele>508.3</ele>
        <time>2021-08-12T11:43:55Z</time>
      </trkpt>
      <trkpt lat="47.2598" lon="6.95119">
        <ele>508.4</ele>
        <time>2021-08-12T11:43:56Z</time>
      </trkpt>
      <trkpt lat="47.25979" lon="6.9512">
        <ele>508.5</ele>
        <time>2021-08-12T11:43:58Z</time>
      </trkpt>
      <trkpt lat="47.25979" lon="6.95121">
        <ele>508.5</ele>
        <time>2021-08-12T11:43:59Z</time>
      </trkpt>
      <trkpt lat="47.25976" lon="6.95123">
        <ele>508.7</ele>
        <time>2021-08-12T11:44:00Z</time>
      </trkpt>
      <trkpt lat="47.25975" lon="6.95122">
        <ele>508.8</ele>
        <time>2021-08-12T11:44:02Z</time>
      </trkpt>
      <trkpt lat="47.25973" lon="6.95122">
        <ele>509</ele>
        <time>2021-08-12T11:44:04Z</time>
      </trkpt>
      <trkpt lat="47.25972" lon="6.95122">
        <ele>509.1</ele>
        <time>2021-08-12T11:44:05Z</time>
      </trkpt>
      <trkpt lat="47.25969" lon="6.95121">
        <ele>509.3</ele>
        <time>2021-08-12T11:44:06Z</time>
      </trkpt>
      <trkpt lat="47.25968" lon="6.95121">
        <ele>509.4</ele>
        <time>2021-08-12T11:44:07Z</time>
      </trkpt>
      <trkpt lat="47.25966" lon="6.95121">
        <ele>509.5</ele>
        <time>2021-08-12T11:44:08Z</time>
      </trkpt>
      <trkpt lat="47.25961" lon="6.95118">
        <ele>509.9</ele>
        <time>2021-08-12T11:44:10Z</time>
      </trkpt>
      <trkpt lat="47.25957" lon="6.95114">
        <ele>510.2</ele>
        <time>2021-08-12T11:44:12Z</time>
      </trkpt>
      <trkpt lat="47.25955" lon="6.95111">
        <ele>510.5</ele>
        <time>2021-08-12T11:44:13Z</time>
      </trkpt>
      <trkpt lat="47.25954" lon="6.95111">
        <ele>510.5</ele>
        <time>2021-08-12T11:44:14Z</time>
      </trkpt>
      <trkpt lat="47.25952" lon="6.95112">
        <ele>510.7</ele>
        <time>2021-08-12T11:44:16Z</time>
      </trkpt>
      <trkpt lat="47.25951" lon="6.95112">
        <ele>510.8</ele>
        <time>2021-08-12T11:44:17Z</time>
      </trkpt>
      <trkpt lat="47.25951" lon="6.95112">
        <ele>510.8</ele>
        <time>2021-08-12T11:44:18Z</time>
      </trkpt>
      <trkpt lat="47.25948" lon="6.95112">
        <ele>511</ele>
        <time>2021-08-12T11:44:19Z</time>
      </trkpt>
      <trkpt lat="47.25944" lon="6.9511">
        <ele>511.3</ele>
        <time>2021-08-12T11:44:21Z</time>
      </trkpt>
      <trkpt lat="47.25942" lon="6.95109">
        <ele>511.5</ele>
        <time>2021-08-12T11:44:22Z</time>
      </trkpt>
      <trkpt lat="47.25937" lon="6.95108">
        <ele>511.8</ele>
        <time>2021-08-12T11:44:24Z</time>
      </trkpt>
      <trkpt lat="47.25934" lon="6.95108">
        <ele>512</ele>
        <time>2021-08-12T11:44:25Z</time>
      </trkpt>
      <trkpt lat="47.25931" lon="6.95107">
        <ele>512.2</ele>
        <time>2021-08-12T11:44:26Z</time>
      </trkpt>
      <trkpt lat="47.25929" lon="6.95105">
        <ele>512.4</ele>
        <time>2021-08-12T11:44:27Z</time>
      </trkpt>
      <trkpt lat="47.25926" lon="6.95102">
        <ele>512.7</ele>
        <time>2021-08-12T11:44:28Z</time>
      </trkpt>
      <trkpt lat="47.25924" lon="6.95099">
        <ele>512.9</ele>
        <time>2021-08-12T11:44:29Z</time>
      </trkpt>
      <trkpt lat="47.25924" lon="6.95098">
        <ele>512.9</ele>
        <time>2021-08-12T11:44:30Z</time>
      </trkpt>
      <trkpt lat="47.25925" lon="6.951">
        <ele>513</ele>
        <time>2021-08-12T11:44:31Z</time>
      </trkpt>
      <trkpt lat="47.25925" lon="6.951">
        <ele>513</ele>
        <time>2021-08-12T11:44:32Z</time>
      </trkpt>
      <trkpt lat="47.25925" lon="6.951">
        <ele>513</ele>
        <time>2021-08-12T11:44:34Z</time>
      </trkpt>
      <trkpt lat="47.25924" lon="6.951">
        <ele>513.1</ele>
        <time>2021-08-12T11:44:36Z</time>
      </trkpt>
      <trkpt lat="47.25924" lon="6.951">
        <ele>513.1</ele>
        <time>2021-08-12T11:44:37Z</time>
      </trkpt>
      <trkpt lat="47.25923" lon="6.951">
        <ele>513.1</ele>
        <time>2021-08-12T11:44:38Z</time>
      </trkpt>
      <trkpt lat="47.25923" lon="6.951">
        <ele>513.2</ele>
        <time>2021-08-12T11:44:39Z</time>
      </trkpt>
      <trkpt lat="47.25875" lon="6.95095">
        <ele>516.8</ele>
        <time>2021-08-12T11:45:11Z</time>
      </trkpt>
      <trkpt lat="47.25871" lon="6.95095">
        <ele>517.1</ele>
        <time>2021-08-12T11:45:12Z</time>
      </trkpt>
      <trkpt lat="47.25867" lon="6.95095">
        <ele>517.4</ele>
        <time>2021-08-12T11:45:13Z</time>
      </trkpt>
      <trkpt lat="47.25863" lon="6.95095">
        <ele>517.7</ele>
        <time>2021-08-12T11:45:14Z</time>
      </trkpt>
      <trkpt lat="47.2586" lon="6.95096">
        <ele>518</ele>
        <time>2021-08-12T11:45:16Z</time>
      </trkpt>
      <trkpt lat="47.25854" lon="6.95096">
        <ele>518.4</ele>
        <time>2021-08-12T11:45:18Z</time>
      </trkpt>
      <trkpt lat="47.25851" lon="6.95097">
        <ele>518.6</ele>
        <time>2021-08-12T11:45:20Z</time>
      </trkpt>
      <trkpt lat="47.2585" lon="6.95099">
        <ele>518.8</ele>
        <time>2021-08-12T11:45:21Z</time>
      </trkpt>
      <trkpt lat="47.2585" lon="6.95099">
        <ele>518.8</ele>
        <time>2021-08-12T11:45:22Z</time>
      </trkpt>
      <trkpt lat="47.25851" lon="6.95099">
        <ele>518.8</ele>
        <time>2021-08-12T11:45:23Z</time>
      </trkpt>
      <trkpt lat="47.25851" lon="6.95099">
        <ele>518.8</ele>
        <time>2021-08-12T11:45:25Z</time>
      </trkpt>
      <trkpt lat="47.2585" lon="6.95099">
        <ele>518.8</ele>
        <time>2021-08-12T11:45:27Z</time>
      </trkpt>
      <trkpt lat="47.2585" lon="6.95099">
        <ele>518.8</ele>
        <time>2021-08-12T11:45:28Z</time>
      </trkpt>
      <trkpt lat="47.25849" lon="6.95099">
        <ele>518.9</ele>
        <time>2021-08-12T11:45:29Z</time>
      </trkpt>
      <trkpt lat="47.25848" lon="6.95099">
        <ele>518.9</ele>
        <time>2021-08-12T11:45:30Z</time>
      </trkpt>
      <trkpt lat="47.25705" lon="6.95047">
        <ele>530.5</ele>
        <time>2021-08-12T11:47:07Z</time>
      </trkpt>
      <trkpt lat="47.25698" lon="6.95046">
        <ele>530.6</ele>
        <time>2021-08-12T11:47:09Z</time>
      </trkpt>
      <trkpt lat="47.25694" lon="6.95046">
        <ele>530.6</ele>
        <time>2021-08-12T11:47:10Z</time>
      </trkpt>
      <trkpt lat="47.2569" lon="6.95046">
        <ele>530.7</ele>
        <time>2021-08-12T11:47:11Z</time>
      </trkpt>
      <trkpt lat="47.25686" lon="6.95046">
        <ele>530.7</ele>
        <time>2021-08-12T11:47:13Z</time>
      </trkpt>
      <trkpt lat="47.25685" lon="6.95046">
        <ele>530.7</ele>
        <time>2021-08-12T11:47:14Z</time>
      </trkpt>
      <trkpt lat="47.25679" lon="6.95046">
        <ele>530.8</ele>
        <time>2021-08-12T11:47:16Z</time>
      </trkpt>
      <trkpt lat="47.25675" lon="6.95046">
        <ele>530.8</ele>
        <time>2021-08-12T11:47:17Z</time>
      </trkpt>
      <trkpt lat="47.25669" lon="6.95047">
        <ele>530.9</ele>
        <time>2021-08-12T11:47:19Z</time>
      </trkpt>
      <trkpt lat="47.25666" lon="6.95048">
        <ele>531</ele>
        <time>2021-08-12T11:47:20Z</time>
      </trkpt>
      <trkpt lat="47.25661" lon="6.95046">
        <ele>531</ele>
        <time>2021-08-12T11:47:22Z</time>
      </trkpt>
      <trkpt lat="47.25656" lon="6.95044">
        <ele>531.1</ele>
        <time>2021-08-12T11:47:23Z</time>
      </trkpt>
      <trkpt lat="47.25653" lon="6.95042">
        <ele>531.2</ele>
        <time>2021-08-12T11:47:25Z</time>
      </trkpt>
      <trkpt lat="47.25647" lon="6.95039">
        <ele>531.2</ele>
        <time>2021-08-12T11:47:27Z</time>
      </trkpt>
      <trkpt lat="47.25645" lon="6.95035">
        <ele>531.3</ele>
        <time>2021-08-12T11:47:28Z</time>
      </trkpt>
      <trkpt lat="47.25644" lon="6.95033">
        <ele>531.3</ele>
        <time>2021-08-12T11:47:29Z</time>
      </trkpt>
      <trkpt lat="47.2564" lon="6.9503">
        <ele>531.4</ele>
        <time>2021-08-12T11:47:31Z</time>
      </trkpt>
      <trkpt lat="47.25637" lon="6.9503">
        <ele>531.4</ele>
        <time>2021-08-12T11:47:32Z</time>
      </trkpt>
      <trkpt lat="47.25631" lon="6.95031">
        <ele>531.5</ele>
        <time>2021-08-12T11:47:34Z</time>
      </trkpt>
      <trkpt lat="47.25627" lon="6.9503">
        <ele>531.5</ele>
        <time>2021-08-12T11:47:35Z</time>
      </trkpt>
      <trkpt lat="47.25623" lon="6.95028">
        <ele>531.6</ele>
        <time>2021-08-12T11:47:37Z</time>
      </trkpt>
      <trkpt lat="47.2562" lon="6.95027">
        <ele>531.7</ele>
        <time>2021-08-12T11:47:38Z</time>
      </trkpt>
      <trkpt lat="47.25616" lon="6.95024">
        <ele>531.8</ele>
        <time>2021-08-12T11:47:39Z</time>
      </trkpt>
      <trkpt lat="47.25612" lon="6.95022">
        <ele>531.9</ele>
        <time>2021-08-12T11:47:40Z</time>
      </trkpt>
      <trkpt lat="47.25608" lon="6.9502">
        <ele>532</ele>
        <time>2021-08-12T11:47:42Z</time>
      </trkpt>
      <trkpt lat="47.25604" lon="6.95017">
        <ele>532.1</ele>
        <time>2021-08-12T11:47:43Z</time>
      </trkpt>
      <trkpt lat="47.25598" lon="6.95015">
        <ele>532.3</ele>
        <time>2021-08-12T11:47:45Z</time>
      </trkpt>
      <trkpt lat="47.25595" lon="6.95013">
        <ele>532.5</ele>
        <time>2021-08-12T11:47:46Z</time>
      </trkpt>
      <trkpt lat="47.25592" lon="6.9501">
        <ele>532.6</ele>
        <time>2021-08-12T11:47:47Z</time>
      </trkpt>
      <trkpt lat="47.25591" lon="6.95007">
        <ele>532.7</ele>
        <time>2021-08-12T11:47:48Z</time>
      </trkpt>
      <trkpt lat="47.25588" lon="6.95004">
        <ele>532.9</ele>
        <time>2021-08-12T11:47:50Z</time>
      </trkpt>
      <trkpt lat="47.25584" lon="6.95001">
        <ele>533.1</ele>
        <time>2021-08-12T11:47:52Z</time>
      </trkpt>
      <trkpt lat="47.25583" lon="6.94999">
        <ele>533.2</ele>
        <time>2021-08-12T11:47:53Z</time>
      </trkpt>
      <trkpt lat="47.25582" lon="6.94998">
        <ele>533.3</ele>
        <time>2021-08-12T11:47:55Z</time>
      </trkpt>
      <trkpt lat="47.2558" lon="6.94998">
        <ele>533.3</ele>
        <time>2021-08-12T11:47:56Z</time>
      </trkpt>
      <trkpt lat="47.25576" lon="6.94996">
        <ele>533.6</ele>
        <time>2021-08-12T11:47:58Z</time>
      </trkpt>
      <trkpt lat="47.25575" lon="6.94995">
        <ele>533.7</ele>
        <time>2021-08-12T11:47:59Z</time>
      </trkpt>
      <trkpt lat="47.25572" lon="6.94994">
        <ele>533.8</ele>
        <time>2021-08-12T11:48:00Z</time>
      </trkpt>
      <trkpt lat="47.25569" lon="6.94993">
        <ele>534</ele>
        <time>2021-08-12T11:48:01Z</time>
      </trkpt>
      <trkpt lat="47.25565" lon="6.94992">
        <ele>534.2</ele>
        <time>2021-08-12T11:48:02Z</time>
      </trkpt>
      <trkpt lat="47.25561" lon="6.94991">
        <ele>534.4</ele>
        <time>2021-08-12T11:48:03Z</time>
      </trkpt>
      <trkpt lat="47.2556" lon="6.94991">
        <ele>534.5</ele>
        <time>2021-08-12T11:48:04Z</time>
      </trkpt>
      <trkpt lat="47.25557" lon="6.94988">
        <ele>534.7</ele>
        <time>2021-08-12T11:48:06Z</time>
      </trkpt>
      <trkpt lat="47.25556" lon="6.94986">
        <ele>534.8</ele>
        <time>2021-08-12T11:48:07Z</time>
      </trkpt>
      <trkpt lat="47.25555" lon="6.94984">
        <ele>534.9</ele>
        <time>2021-08-12T11:48:08Z</time>
      </trkpt>
      <trkpt lat="47.25554" lon="6.94983">
        <ele>534.9</ele>
        <time>2021-08-12T11:48:10Z</time>
      </trkpt>
      <trkpt lat="47.25552" lon="6.94982">
        <ele>535.1</ele>
        <time>2021-08-12T11:48:11Z</time>
      </trkpt>
      <trkpt lat="47.25551" lon="6.9498">
        <ele>535.1</ele>
        <time>2021-08-12T11:48:12Z</time>
      </trkpt>
      <trkpt lat="47.2555" lon="6.94979">
        <ele>535.2</ele>
        <time>2021-08-12T11:48:14Z</time>
      </trkpt>
      <trkpt lat="47.25539" lon="6.94977">
        <ele>535.8</ele>
        <time>2021-08-12T11:48:20Z</time>
      </trkpt>
      <trkpt lat="47.25536" lon="6.94976">
        <ele>535.9</ele>
        <time>2021-08-12T11:48:21Z</time>
      </trkpt>
      <trkpt lat="47.25535" lon="6.94974">
        <ele>536</ele>
        <time>2021-08-12T11:48:22Z</time>
      </trkpt>
      <trkpt lat="47.25533" lon="6.94973">
        <ele>536.1</ele>
        <time>2021-08-12T11:48:23Z</time>
      </trkpt>
      <trkpt lat="47.2553" lon="6.94971">
        <ele>536.3</ele>
        <time>2021-08-12T11:48:25Z</time>
      </trkpt>
      <trkpt lat="47.25526" lon="6.94967">
        <ele>536.6</ele>
        <time>2021-08-12T11:48:26Z</time>
      </trkpt>
      <trkpt lat="47.25522" lon="6.94964">
        <ele>536.8</ele>
        <time>2021-08-12T11:48:27Z</time>
      </trkpt>
      <trkpt lat="47.25518" lon="6.94961">
        <ele>537.1</ele>
        <time>2021-08-12T11:48:29Z</time>
      </trkpt>
      <trkpt lat="47.25512" lon="6.94959">
        <ele>537.4</ele>
        <time>2021-08-12T11:48:30Z</time>
      </trkpt>
      <trkpt lat="47.25509" lon="6.94957">
        <ele>537.5</ele>
        <time>2021-08-12T11:48:32Z</time>
      </trkpt>
      <trkpt lat="47.25502" lon="6.94952">
        <ele>537.8</ele>
        <time>2021-08-12T11:48:34Z</time>
      </trkpt>
      <trkpt lat="47.25499" lon="6.9495">
        <ele>538</ele>
        <time>2021-08-12T11:48:35Z</time>
      </trkpt>
      <trkpt lat="47.25494" lon="6.94947">
        <ele>538.2</ele>
        <time>2021-08-12T11:48:36Z</time>
      </trkpt>
      <trkpt lat="47.25491" lon="6.94949">
        <ele>538.3</ele>
        <time>2021-08-12T11:48:38Z</time>
      </trkpt>
      <trkpt lat="47.25489" lon="6.94949">
        <ele>538.3</ele>
        <time>2021-08-12T11:48:39Z</time>
      </trkpt>
      <trkpt lat="47.25487" lon="6.94948">
        <ele>538.4</ele>
        <time>2021-08-12T11:48:41Z</time>
      </trkpt>
      <trkpt lat="47.25482" lon="6.94944">
        <ele>538.5</ele>
        <time>2021-08-12T11:48:42Z</time>
      </trkpt>
      <trkpt lat="47.25479" lon="6.94942">
        <ele>538.6</ele>
        <time>2021-08-12T11:48:43Z</time>
      </trkpt>
      <trkpt lat="47.25476" lon="6.94939">
        <ele>538.6</ele>
        <time>2021-08-12T11:48:44Z</time>
      </trkpt>
      <trkpt lat="47.25472" lon="6.94937">
        <ele>538.6</ele>
        <time>2021-08-12T11:48:46Z</time>
      </trkpt>
      <trkpt lat="47.25467" lon="6.94933">
        <ele>538.7</ele>
        <time>2021-08-12T11:48:47Z</time>
      </trkpt>
      <trkpt lat="47.25465" lon="6.9493">
        <ele>538.7</ele>
        <time>2021-08-12T11:48:48Z</time>
      </trkpt>
      <trkpt lat="47.25461" lon="6.94926">
        <ele>538.7</ele>
        <time>2021-08-12T11:48:50Z</time>
      </trkpt>
      <trkpt lat="47.25458" lon="6.94921">
        <ele>538.7</ele>
        <time>2021-08-12T11:48:51Z</time>
      </trkpt>
      <trkpt lat="47.25454" lon="6.94915">
        <ele>538.7</ele>
        <time>2021-08-12T11:48:52Z</time>
      </trkpt>
      <trkpt lat="47.25451" lon="6.94909">
        <ele>538.7</ele>
        <time>2021-08-12T11:48:53Z</time>
      </trkpt>
      <trkpt lat="47.25447" lon="6.94899">
        <ele>538.7</ele>
        <time>2021-08-12T11:48:55Z</time>
      </trkpt>
      <trkpt lat="47.25444" lon="6.94894">
        <ele>538.7</ele>
        <time>2021-08-12T11:48:56Z</time>
      </trkpt>
      <trkpt lat="47.2544" lon="6.94885">
        <ele>538.7</ele>
        <time>2021-08-12T11:48:58Z</time>
      </trkpt>
      <trkpt lat="47.25436" lon="6.9488">
        <ele>538.6</ele>
        <time>2021-08-12T11:48:59Z</time>
      </trkpt>
      <trkpt lat="47.2543" lon="6.94872">
        <ele>538.6</ele>
        <time>2021-08-12T11:49:01Z</time>
      </trkpt>
      <trkpt lat="47.25427" lon="6.94868">
        <ele>538.5</ele>
        <time>2021-08-12T11:49:02Z</time>
      </trkpt>
      <trkpt lat="47.25423" lon="6.94864">
        <ele>538.4</ele>
        <time>2021-08-12T11:49:03Z</time>
      </trkpt>
      <trkpt lat="47.25419" lon="6.94863">
        <ele>538.3</ele>
        <time>2021-08-12T11:49:04Z</time>
      </trkpt>
      <trkpt lat="47.25416" lon="6.94862">
        <ele>538.2</ele>
        <time>2021-08-12T11:49:06Z</time>
      </trkpt>
      <trkpt lat="47.25413" lon="6.94859">
        <ele>538.1</ele>
        <time>2021-08-12T11:49:07Z</time>
      </trkpt>
      <trkpt lat="47.25409" lon="6.94855">
        <ele>537.9</ele>
        <time>2021-08-12T11:49:09Z</time>
      </trkpt>
      <trkpt lat="47.25407" lon="6.94853">
        <ele>537.8</ele>
        <time>2021-08-12T11:49:10Z</time>
      </trkpt>
      <trkpt lat="47.254" lon="6.94848">
        <ele>537.6</ele>
        <time>2021-08-12T11:49:12Z</time>
      </trkpt>
      <trkpt lat="47.25393" lon="6.94843">
        <ele>537.3</ele>
        <time>2021-08-12T11:49:13Z</time>
      </trkpt>
      <trkpt lat="47.25388" lon="6.9484">
        <ele>537.2</ele>
        <time>2021-08-12T11:49:14Z</time>
      </trkpt>
      <trkpt lat="47.25377" lon="6.94837">
        <ele>536.8</ele>
        <time>2021-08-12T11:49:16Z</time>
      </trkpt>
      <trkpt lat="47.25372" lon="6.94835">
        <ele>536.7</ele>
        <time>2021-08-12T11:49:17Z</time>
      </trkpt>
      <trkpt lat="47.25367" lon="6.94834">
        <ele>536.6</ele>
        <time>2021-08-12T11:49:18Z</time>
      </trkpt>
      <trkpt lat="47.25362" lon="6.94834">
        <ele>536.6</ele>
        <time>2021-08-12T11:49:19Z</time>
      </trkpt>
      <trkpt lat="47.25351" lon="6.94832">
        <ele>536.5</ele>
        <time>2021-08-12T11:49:21Z</time>
      </trkpt>
      <trkpt lat="47.25341" lon="6.94829">
        <ele>536.5</ele>
        <time>2021-08-12T11:49:23Z</time>
      </trkpt>
      <trkpt lat="47.25336" lon="6.94827">
        <ele>536.5</ele>
        <time>2021-08-12T11:49:24Z</time>
      </trkpt>
      <trkpt lat="47.25327" lon="6.94824">
        <ele>536.3</ele>
        <time>2021-08-12T11:49:26Z</time>
      </trkpt>
      <trkpt lat="47.25317" lon="6.94824">
        <ele>536</ele>
        <time>2021-08-12T11:49:28Z</time>
      </trkpt>
      <trkpt lat="47.25309" lon="6.94825">
        <ele>535.6</ele>
        <time>2021-08-12T11:49:30Z</time>
      </trkpt>
      <trkpt lat="47.25299" lon="6.94831">
        <ele>535.1</ele>
        <time>2021-08-12T11:49:32Z</time>
      </trkpt>
      <trkpt lat="47.2529" lon="6.94839">
        <ele>534.6</ele>
        <time>2021-08-12T11:49:34Z</time>
      </trkpt>
      <trkpt lat="47.25286" lon="6.94842">
        <ele>534.3</ele>
        <time>2021-08-12T11:49:35Z</time>
      </trkpt>
      <trkpt lat="47.25282" lon="6.94843">
        <ele>534.2</ele>
        <time>2021-08-12T11:49:36Z</time>
      </trkpt>
      <trkpt lat="47.25278" lon="6.94844">
        <ele>534</ele>
        <time>2021-08-12T11:49:37Z</time>
      </trkpt>
      <trkpt lat="47.25275" lon="6.94846">
        <ele>533.8</ele>
        <time>2021-08-12T11:49:38Z</time>
      </trkpt>
      <trkpt lat="47.25267" lon="6.94842">
        <ele>533.4</ele>
        <time>2021-08-12T11:49:40Z</time>
      </trkpt>
      <trkpt lat="47.25256" lon="6.94834">
        <ele>532.8</ele>
        <time>2021-08-12T11:49:42Z</time>
      </trkpt>
      <trkpt lat="47.25244" lon="6.94827">
        <ele>531.9</ele>
        <time>2021-08-12T11:49:44Z</time>
      </trkpt>
      <trkpt lat="47.25233" lon="6.94824">
        <ele>530.8</ele>
        <time>2021-08-12T11:49:46Z</time>
      </trkpt>
      <trkpt lat="47.25229" lon="6.94822">
        <ele>530.2</ele>
        <time>2021-08-12T11:49:47Z</time>
      </trkpt>
      <trkpt lat="47.25224" lon="6.94822">
        <ele>529.7</ele>
        <time>2021-08-12T11:49:48Z</time>
      </trkpt>
      <trkpt lat="47.2522" lon="6.94823">
        <ele>529.2</ele>
        <time>2021-08-12T11:49:50Z</time>
      </trkpt>
      <trkpt lat="47.25215" lon="6.94821">
        <ele>528.6</ele>
        <time>2021-08-12T11:49:51Z</time>
      </trkpt>
      <trkpt lat="47.25212" lon="6.9482">
        <ele>528.3</ele>
        <time>2021-08-12T11:49:53Z</time>
      </trkpt>
      <trkpt lat="47.2521" lon="6.94818">
        <ele>528.1</ele>
        <time>2021-08-12T11:49:56Z</time>
      </trkpt>
      <trkpt lat="47.25208" lon="6.94816">
        <ele>527.8</ele>
        <time>2021-08-12T11:49:58Z</time>
      </trkpt>
      <trkpt lat="47.25205" lon="6.94814">
        <ele>527.5</ele>
        <time>2021-08-12T11:49:59Z</time>
      </trkpt>
      <trkpt lat="47.25203" lon="6.94813">
        <ele>527.2</ele>
        <time>2021-08-12T11:50:02Z</time>
      </trkpt>
      <trkpt lat="47.25201" lon="6.94811">
        <ele>526.9</ele>
        <time>2021-08-12T11:50:03Z</time>
      </trkpt>
      <trkpt lat="47.25199" lon="6.94809">
        <ele>526.6</ele>
        <time>2021-08-12T11:50:30Z</time>
      </trkpt>
      <trkpt lat="47.25196" lon="6.94807">
        <ele>526.3</ele>
        <time>2021-08-12T11:50:32Z</time>
      </trkpt>
      <trkpt lat="47.25177" lon="6.94796">
        <ele>523.8</ele>
        <time>2021-08-12T11:50:34Z</time>
      </trkpt>
      <trkpt lat="47.25172" lon="6.94793">
        <ele>523.2</ele>
        <time>2021-08-12T11:50:35Z</time>
      </trkpt>
      <trkpt lat="47.25168" lon="6.94792">
        <ele>522.7</ele>
        <time>2021-08-12T11:50:36Z</time>
      </trkpt>
      <trkpt lat="47.25156" lon="6.94793">
        <ele>521.3</ele>
        <time>2021-08-12T11:50:38Z</time>
      </trkpt>
      <trkpt lat="47.25144" lon="6.9479">
        <ele>520</ele>
        <time>2021-08-12T11:50:40Z</time>
      </trkpt>
      <trkpt lat="47.25132" lon="6.94781">
        <ele>518.9</ele>
        <time>2021-08-12T11:50:41Z</time>
      </trkpt>
      <trkpt lat="47.25129" lon="6.94779">
        <ele>518.5</ele>
        <time>2021-08-12T11:50:42Z</time>
      </trkpt>
      <trkpt lat="47.25116" lon="6.94774">
        <ele>517.6</ele>
        <time>2021-08-12T11:50:44Z</time>
      </trkpt>
      <trkpt lat="47.25099" lon="6.94766">
        <ele>516.2</ele>
        <time>2021-08-12T11:50:46Z</time>
      </trkpt>
      <trkpt lat="47.25088" lon="6.94762">
        <ele>515.1</ele>
        <time>2021-08-12T11:50:48Z</time>
      </trkpt>
      <trkpt lat="47.25089" lon="6.94762">
        <ele>515.1</ele>
        <time>2021-08-12T11:50:50Z</time>
      </trkpt>
      <trkpt lat="47.2509" lon="6.94762">
        <ele>515</ele>
        <time>2021-08-12T11:50:51Z</time>
      </trkpt>
      <trkpt lat="47.25089" lon="6.94762">
        <ele>515</ele>
        <time>2021-08-12T11:50:52Z</time>
      </trkpt>
      <trkpt lat="47.25089" lon="6.94762">
        <ele>515</ele>
        <time>2021-08-12T11:50:53Z</time>
      </trkpt>
      <trkpt lat="47.25089" lon="6.94762">
        <ele>514.9</ele>
        <time>2021-08-12T11:50:55Z</time>
      </trkpt>
      <trkpt lat="47.25087" lon="6.94762">
        <ele>514.8</ele>
        <time>2021-08-12T11:50:57Z</time>
      </trkpt>
      <trkpt lat="47.25086" lon="6.94763">
        <ele>514.7</ele>
        <time>2021-08-12T11:50:58Z</time>
      </trkpt>
      <trkpt lat="47.24968" lon="6.94811">
        <ele>509.8</ele>
        <time>2021-08-12T11:51:19Z</time>
      </trkpt>
      <trkpt lat="47.24963" lon="6.94816">
        <ele>509.9</ele>
        <time>2021-08-12T11:51:20Z</time>
      </trkpt>
      <trkpt lat="47.24958" lon="6.94823">
        <ele>510</ele>
        <time>2021-08-12T11:51:22Z</time>
      </trkpt>
      <trkpt lat="47.24953" lon="6.9483">
        <ele>510.3</ele>
        <time>2021-08-12T11:51:23Z</time>
      </trkpt>
      <trkpt lat="47.2495" lon="6.94836">
        <ele>510.5</ele>
        <time>2021-08-12T11:51:24Z</time>
      </trkpt>
      <trkpt lat="47.24949" lon="6.94842">
        <ele>510.6</ele>
        <time>2021-08-12T11:51:25Z</time>
      </trkpt>
      <trkpt lat="47.24949" lon="6.94849">
        <ele>510.8</ele>
        <time>2021-08-12T11:51:27Z</time>
      </trkpt>
      <trkpt lat="47.24949" lon="6.94854">
        <ele>510.9</ele>
        <time>2021-08-12T11:51:28Z</time>
      </trkpt>
      <trkpt lat="47.24949" lon="6.94859">
        <ele>510.9</ele>
        <time>2021-08-12T11:51:30Z</time>
      </trkpt>
      <trkpt lat="47.24947" lon="6.94862">
        <ele>510.9</ele>
        <time>2021-08-12T11:51:31Z</time>
      </trkpt>
      <trkpt lat="47.24946" lon="6.94863">
        <ele>510.9</ele>
        <time>2021-08-12T11:51:32Z</time>
      </trkpt>
      <trkpt lat="47.24943" lon="6.94865">
        <ele>510.9</ele>
        <time>2021-08-12T11:51:33Z</time>
      </trkpt>
      <trkpt lat="47.24938" lon="6.94869">
        <ele>510.9</ele>
        <time>2021-08-12T11:51:35Z</time>
      </trkpt>
      <trkpt lat="47.24934" lon="6.94872">
        <ele>510.8</ele>
        <time>2021-08-12T11:51:36Z</time>
      </trkpt>
      <trkpt lat="47.24929" lon="6.94877">
        <ele>510.7</ele>
        <time>2021-08-12T11:51:37Z</time>
      </trkpt>
      <trkpt lat="47.24924" lon="6.94884">
        <ele>510.6</ele>
        <time>2021-08-12T11:51:38Z</time>
      </trkpt>
      <trkpt lat="47.2492" lon="6.9489">
        <ele>510.6</ele>
        <time>2021-08-12T11:51:39Z</time>
      </trkpt>
      <trkpt lat="47.24915" lon="6.94896">
        <ele>510.6</ele>
        <time>2021-08-12T11:51:40Z</time>
      </trkpt>
      <trkpt lat="47.24912" lon="6.94901">
        <ele>510.6</ele>
        <time>2021-08-12T11:51:41Z</time>
      </trkpt>
      <trkpt lat="47.2491" lon="6.94906">
        <ele>510.6</ele>
        <time>2021-08-12T11:51:42Z</time>
      </trkpt>
      <trkpt lat="47.24909" lon="6.94911">
        <ele>510.6</ele>
        <time>2021-08-12T11:51:44Z</time>
      </trkpt>
      <trkpt lat="47.24909" lon="6.94916">
        <ele>510.7</ele>
        <time>2021-08-12T11:51:45Z</time>
      </trkpt>
      <trkpt lat="47.24908" lon="6.94922">
        <ele>510.7</ele>
        <time>2021-08-12T11:51:46Z</time>
      </trkpt>
      <trkpt lat="47.24907" lon="6.94927">
        <ele>510.7</ele>
        <time>2021-08-12T11:51:47Z</time>
      </trkpt>
      <trkpt lat="47.24905" lon="6.94938">
        <ele>510.9</ele>
        <time>2021-08-12T11:51:49Z</time>
      </trkpt>
      <trkpt lat="47.24903" lon="6.94945">
        <ele>511</ele>
        <time>2021-08-12T11:51:50Z</time>
      </trkpt>
      <trkpt lat="47.24901" lon="6.94952">
        <ele>511.3</ele>
        <time>2021-08-12T11:51:51Z</time>
      </trkpt>
      <trkpt lat="47.249" lon="6.94959">
        <ele>511.5</ele>
        <time>2021-08-12T11:51:52Z</time>
      </trkpt>
      <trkpt lat="47.24898" lon="6.94963">
        <ele>511.8</ele>
        <time>2021-08-12T11:51:53Z</time>
      </trkpt>
      <trkpt lat="47.24897" lon="6.94967">
        <ele>512</ele>
        <time>2021-08-12T11:51:55Z</time>
      </trkpt>
      <trkpt lat="47.24896" lon="6.94968">
        <ele>512.1</ele>
        <time>2021-08-12T11:51:56Z</time>
      </trkpt>
      <trkpt lat="47.24895" lon="6.94969">
        <ele>512.2</ele>
        <time>2021-08-12T11:51:57Z</time>
      </trkpt>
      <trkpt lat="47.24894" lon="6.94972">
        <ele>512.4</ele>
        <time>2021-08-12T11:51:58Z</time>
      </trkpt>
      <trkpt lat="47.24892" lon="6.94979">
        <ele>513</ele>
        <time>2021-08-12T11:52:00Z</time>
      </trkpt>
      <trkpt lat="47.24892" lon="6.94982">
        <ele>513.2</ele>
        <time>2021-08-12T11:52:02Z</time>
      </trkpt>
      <trkpt lat="47.24892" lon="6.94985">
        <ele>513.5</ele>
        <time>2021-08-12T11:52:04Z</time>
      </trkpt>
      <trkpt lat="47.2489" lon="6.9499">
        <ele>513.9</ele>
        <time>2021-08-12T11:52:05Z</time>
      </trkpt>
      <trkpt lat="47.2489" lon="6.94992">
        <ele>514.1</ele>
        <time>2021-08-12T11:52:06Z</time>
      </trkpt>
      <trkpt lat="47.2489" lon="6.94997">
        <ele>514.5</ele>
        <time>2021-08-12T11:52:08Z</time>
      </trkpt>
      <trkpt lat="47.24891" lon="6.94999">
        <ele>514.6</ele>
        <time>2021-08-12T11:52:09Z</time>
      </trkpt>
      <trkpt lat="47.24891" lon="6.95006">
        <ele>515.2</ele>
        <time>2021-08-12T11:52:11Z</time>
      </trkpt>
      <trkpt lat="47.2489" lon="6.95009">
        <ele>515.4</ele>
        <time>2021-08-12T11:52:12Z</time>
      </trkpt>
      <trkpt lat="47.2489" lon="6.95011">
        <ele>515.6</ele>
        <time>2021-08-12T11:52:13Z</time>
      </trkpt>
      <trkpt lat="47.24888" lon="6.95017">
        <ele>515.9</ele>
        <time>2021-08-12T11:52:15Z</time>
      </trkpt>
      <trkpt lat="47.24888" lon="6.95019">
        <ele>516</ele>
        <time>2021-08-12T11:52:16Z</time>
      </trkpt>
      <trkpt lat="47.24888" lon="6.95021">
        <ele>516.1</ele>
        <time>2021-08-12T11:52:17Z</time>
      </trkpt>
      <trkpt lat="47.24886" lon="6.95028">
        <ele>516.5</ele>
        <time>2021-08-12T11:52:19Z</time>
      </trkpt>
      <trkpt lat="47.24884" lon="6.95032">
        <ele>516.6</ele>
        <time>2021-08-12T11:52:21Z</time>
      </trkpt>
      <trkpt lat="47.24881" lon="6.95034">
        <ele>516.8</ele>
        <time>2021-08-12T11:52:22Z</time>
      </trkpt>
      <trkpt lat="47.24879" lon="6.95038">
        <ele>517</ele>
        <time>2021-08-12T11:52:24Z</time>
      </trkpt>
      <trkpt lat="47.24878" lon="6.95039">
        <ele>517</ele>
        <time>2021-08-12T11:52:25Z</time>
      </trkpt>
      <trkpt lat="47.24876" lon="6.95043">
        <ele>517.3</ele>
        <time>2021-08-12T11:52:27Z</time>
      </trkpt>
      <trkpt lat="47.24873" lon="6.95046">
        <ele>517.4</ele>
        <time>2021-08-12T11:52:28Z</time>
      </trkpt>
      <trkpt lat="47.24869" lon="6.95048">
        <ele>517.4</ele>
        <time>2021-08-12T11:52:29Z</time>
      </trkpt>
      <trkpt lat="47.24866" lon="6.95053">
        <ele>517.4</ele>
        <time>2021-08-12T11:52:31Z</time>
      </trkpt>
      <trkpt lat="47.24864" lon="6.95058">
        <ele>517.4</ele>
        <time>2021-08-12T11:52:32Z</time>
      </trkpt>
      <trkpt lat="47.24864" lon="6.95065">
        <ele>517.4</ele>
        <time>2021-08-12T11:52:33Z</time>
      </trkpt>
      <trkpt lat="47.24863" lon="6.95069">
        <ele>517.3</ele>
        <time>2021-08-12T11:52:35Z</time>
      </trkpt>
      <trkpt lat="47.24861" lon="6.95073">
        <ele>517.3</ele>
        <time>2021-08-12T11:52:36Z</time>
      </trkpt>
      <trkpt lat="47.24858" lon="6.9508">
        <ele>517.2</ele>
        <time>2021-08-12T11:52:38Z</time>
      </trkpt>
      <trkpt lat="47.24855" lon="6.95086">
        <ele>517.2</ele>
        <time>2021-08-12T11:52:40Z</time>
      </trkpt>
      <trkpt lat="47.24852" lon="6.95089">
        <ele>517.2</ele>
        <time>2021-08-12T11:52:41Z</time>
      </trkpt>
      <trkpt lat="47.2485" lon="6.95092">
        <ele>517.3</ele>
        <time>2021-08-12T11:52:42Z</time>
      </trkpt>
      <trkpt lat="47.24844" lon="6.95096">
        <ele>517.4</ele>
        <time>2021-08-12T11:52:43Z</time>
      </trkpt>
      <trkpt lat="47.24839" lon="6.951">
        <ele>517.5</ele>
        <time>2021-08-12T11:52:45Z</time>
      </trkpt>
      <trkpt lat="47.24832" lon="6.95105">
        <ele>517.8</ele>
        <time>2021-08-12T11:52:47Z</time>
      </trkpt>
      <trkpt lat="47.24829" lon="6.95108">
        <ele>518</ele>
        <time>2021-08-12T11:52:48Z</time>
      </trkpt>
      <trkpt lat="47.24825" lon="6.95115">
        <ele>518.3</ele>
        <time>2021-08-12T11:52:49Z</time>
      </trkpt>
      <trkpt lat="47.24821" lon="6.95121">
        <ele>518.5</ele>
        <time>2021-08-12T11:52:51Z</time>
      </trkpt>
      <trkpt lat="47.24816" lon="6.95129">
        <ele>518.9</ele>
        <time>2021-08-12T11:52:52Z</time>
      </trkpt>
      <trkpt lat="47.24814" lon="6.95134">
        <ele>519.2</ele>
        <time>2021-08-12T11:52:54Z</time>
      </trkpt>
      <trkpt lat="47.24812" lon="6.95143">
        <ele>519.6</ele>
        <time>2021-08-12T11:52:56Z</time>
      </trkpt>
      <trkpt lat="47.24811" lon="6.95148">
        <ele>519.8</ele>
        <time>2021-08-12T11:52:57Z</time>
      </trkpt>
      <trkpt lat="47.24808" lon="6.9515">
        <ele>520.1</ele>
        <time>2021-08-12T11:52:59Z</time>
      </trkpt>
      <trkpt lat="47.24807" lon="6.95151">
        <ele>520.2</ele>
        <time>2021-08-12T11:53:00Z</time>
      </trkpt>
      <trkpt lat="47.24804" lon="6.95152">
        <ele>520.3</ele>
        <time>2021-08-12T11:53:01Z</time>
      </trkpt>
      <trkpt lat="47.24804" lon="6.95153">
        <ele>520.4</ele>
        <time>2021-08-12T11:53:02Z</time>
      </trkpt>
      <trkpt lat="47.24803" lon="6.95154">
        <ele>520.5</ele>
        <time>2021-08-12T11:53:03Z</time>
      </trkpt>
      <trkpt lat="47.24802" lon="6.95154">
        <ele>520.5</ele>
        <time>2021-08-12T11:53:05Z</time>
      </trkpt>
      <trkpt lat="47.24802" lon="6.95153">
        <ele>520.6</ele>
        <time>2021-08-12T11:53:07Z</time>
      </trkpt>
      <trkpt lat="47.24801" lon="6.95151">
        <ele>520.7</ele>
        <time>2021-08-12T11:53:08Z</time>
      </trkpt>
      <trkpt lat="47.24801" lon="6.95149">
        <ele>520.8</ele>
        <time>2021-08-12T11:53:10Z</time>
      </trkpt>
      <trkpt lat="47.24801" lon="6.95148">
        <ele>520.9</ele>
        <time>2021-08-12T11:53:11Z</time>
      </trkpt>
      <trkpt lat="47.248" lon="6.95145">
        <ele>521</ele>
        <time>2021-08-12T11:53:13Z</time>
      </trkpt>
      <trkpt lat="47.24795" lon="6.95153">
        <ele>521.6</ele>
        <time>2021-08-12T11:53:21Z</time>
      </trkpt>
      <trkpt lat="47.24792" lon="6.95158">
        <ele>522</ele>
        <time>2021-08-12T11:53:23Z</time>
      </trkpt>
      <trkpt lat="47.2479" lon="6.95162">
        <ele>522.2</ele>
        <time>2021-08-12T11:53:24Z</time>
      </trkpt>
      <trkpt lat="47.24792" lon="6.95167">
        <ele>522.6</ele>
        <time>2021-08-12T11:53:26Z</time>
      </trkpt>
      <trkpt lat="47.24792" lon="6.95169">
        <ele>522.7</ele>
        <time>2021-08-12T11:53:27Z</time>
      </trkpt>
      <trkpt lat="47.24793" lon="6.95171">
        <ele>522.9</ele>
        <time>2021-08-12T11:53:28Z</time>
      </trkpt>
      <trkpt lat="47.24794" lon="6.95175">
        <ele>523.1</ele>
        <time>2021-08-12T11:53:30Z</time>
      </trkpt>
      <trkpt lat="47.24794" lon="6.95176">
        <ele>523.2</ele>
        <time>2021-08-12T11:53:31Z</time>
      </trkpt>
      <trkpt lat="47.24794" lon="6.95178">
        <ele>523.3</ele>
        <time>2021-08-12T11:53:32Z</time>
      </trkpt>
      <trkpt lat="47.24795" lon="6.95181">
        <ele>523.5</ele>
        <time>2021-08-12T11:53:34Z</time>
      </trkpt>
      <trkpt lat="47.24795" lon="6.95182">
        <ele>523.5</ele>
        <time>2021-08-12T11:53:35Z</time>
      </trkpt>
      <trkpt lat="47.24794" lon="6.95184">
        <ele>523.7</ele>
        <time>2021-08-12T11:53:36Z</time>
      </trkpt>
      <trkpt lat="47.24793" lon="6.95186">
        <ele>523.9</ele>
        <time>2021-08-12T11:53:38Z</time>
      </trkpt>
      <trkpt lat="47.24789" lon="6.95207">
        <ele>525</ele>
        <time>2021-08-12T11:53:45Z</time>
      </trkpt>
      <trkpt lat="47.24788" lon="6.95215">
        <ele>525.4</ele>
        <time>2021-08-12T11:53:46Z</time>
      </trkpt>
      <trkpt lat="47.24788" lon="6.95222">
        <ele>525.7</ele>
        <time>2021-08-12T11:53:48Z</time>
      </trkpt>
      <trkpt lat="47.24789" lon="6.95229">
        <ele>525.9</ele>
        <time>2021-08-12T11:53:49Z</time>
      </trkpt>
      <trkpt lat="47.24789" lon="6.95231">
        <ele>526</ele>
        <time>2021-08-12T11:53:50Z</time>
      </trkpt>
      <trkpt lat="47.24788" lon="6.95239">
        <ele>526.3</ele>
        <time>2021-08-12T11:53:52Z</time>
      </trkpt>
      <trkpt lat="47.24788" lon="6.95242">
        <ele>526.4</ele>
        <time>2021-08-12T11:53:53Z</time>
      </trkpt>
      <trkpt lat="47.24788" lon="6.95244">
        <ele>526.5</ele>
        <time>2021-08-12T11:53:54Z</time>
      </trkpt>
      <trkpt lat="47.24788" lon="6.95248">
        <ele>526.6</ele>
        <time>2021-08-12T11:53:56Z</time>
      </trkpt>
      <trkpt lat="47.24786" lon="6.95248">
        <ele>526.6</ele>
        <time>2021-08-12T11:53:58Z</time>
      </trkpt>
      <trkpt lat="47.24786" lon="6.95249">
        <ele>526.7</ele>
        <time>2021-08-12T11:53:59Z</time>
      </trkpt>
      <trkpt lat="47.24785" lon="6.95251">
        <ele>526.7</ele>
        <time>2021-08-12T11:54:00Z</time>
      </trkpt>
      <trkpt lat="47.24784" lon="6.95252">
        <ele>526.8</ele>
        <time>2021-08-12T11:54:02Z</time>
      </trkpt>
      <trkpt lat="47.24783" lon="6.95253">
        <ele>526.8</ele>
        <time>2021-08-12T11:54:03Z</time>
      </trkpt>
      <trkpt lat="47.24778" lon="6.95257">
        <ele>527</ele>
        <time>2021-08-12T11:54:04Z</time>
      </trkpt>
      <trkpt lat="47.24774" lon="6.95259">
        <ele>527</ele>
        <time>2021-08-12T11:54:05Z</time>
      </trkpt>
      <trkpt lat="47.2477" lon="6.95262">
        <ele>527.1</ele>
        <time>2021-08-12T11:54:07Z</time>
      </trkpt>
      <trkpt lat="47.24766" lon="6.95264">
        <ele>527.1</ele>
        <time>2021-08-12T11:54:17Z</time>
      </trkpt>
      <trkpt lat="47.24762" lon="6.95266">
        <ele>527.1</ele>
        <time>2021-08-12T11:54:18Z</time>
      </trkpt>
      <trkpt lat="47.24753" lon="6.95268">
        <ele>526.8</ele>
        <time>2021-08-12T11:54:19Z</time>
      </trkpt>
      <trkpt lat="47.24744" lon="6.9527">
        <ele>526.4</ele>
        <time>2021-08-12T11:54:21Z</time>
      </trkpt>
      <trkpt lat="47.24736" lon="6.95272">
        <ele>526.1</ele>
        <time>2021-08-12T11:54:22Z</time>
      </trkpt>
      <trkpt lat="47.2473" lon="6.95274">
        <ele>525.9</ele>
        <time>2021-08-12T11:54:23Z</time>
      </trkpt>
      <trkpt lat="47.24723" lon="6.95276">
        <ele>525.6</ele>
        <time>2021-08-12T11:54:25Z</time>
      </trkpt>
      <trkpt lat="47.24719" lon="6.9528">
        <ele>525.5</ele>
        <time>2021-08-12T11:54:26Z</time>
      </trkpt>
      <trkpt lat="47.24715" lon="6.95285">
        <ele>525.3</ele>
        <time>2021-08-12T11:54:27Z</time>
      </trkpt>
      <trkpt lat="47.24711" lon="6.95291">
        <ele>525.2</ele>
        <time>2021-08-12T11:54:28Z</time>
      </trkpt>
      <trkpt lat="47.24706" lon="6.95296">
        <ele>525.1</ele>
        <time>2021-08-12T11:54:29Z</time>
      </trkpt>
      <trkpt lat="47.24702" lon="6.953">
        <ele>525</ele>
        <time>2021-08-12T11:54:30Z</time>
      </trkpt>
      <trkpt lat="47.24696" lon="6.95305">
        <ele>524.9</ele>
        <time>2021-08-12T11:54:31Z</time>
      </trkpt>
      <trkpt lat="47.24691" lon="6.9531">
        <ele>524.9</ele>
        <time>2021-08-12T11:54:33Z</time>
      </trkpt>
      <trkpt lat="47.24685" lon="6.95315">
        <ele>524.8</ele>
        <time>2021-08-12T11:54:34Z</time>
      </trkpt>
      <trkpt lat="47.2468" lon="6.95318">
        <ele>524.8</ele>
        <time>2021-08-12T11:54:35Z</time>
      </trkpt>
      <trkpt lat="47.24676" lon="6.95322">
        <ele>524.8</ele>
        <time>2021-08-12T11:54:37Z</time>
      </trkpt>
      <trkpt lat="47.24675" lon="6.95329">
        <ele>524.8</ele>
        <time>2021-08-12T11:54:38Z</time>
      </trkpt>
      <trkpt lat="47.24673" lon="6.95335">
        <ele>524.8</ele>
        <time>2021-08-12T11:54:40Z</time>
      </trkpt>
      <trkpt lat="47.2467" lon="6.9534">
        <ele>524.8</ele>
        <time>2021-08-12T11:54:41Z</time>
      </trkpt>
      <trkpt lat="47.24668" lon="6.95342">
        <ele>524.8</ele>
        <time>2021-08-12T11:54:42Z</time>
      </trkpt>
      <trkpt lat="47.24662" lon="6.95348">
        <ele>524.8</ele>
        <time>2021-08-12T11:54:44Z</time>
      </trkpt>
      <trkpt lat="47.24659" lon="6.95351">
        <ele>524.8</ele>
        <time>2021-08-12T11:54:45Z</time>
      </trkpt>
      <trkpt lat="47.24655" lon="6.95355">
        <ele>524.9</ele>
        <time>2021-08-12T11:54:47Z</time>
      </trkpt>
      <trkpt lat="47.24652" lon="6.95357">
        <ele>524.9</ele>
        <time>2021-08-12T11:54:48Z</time>
      </trkpt>
      <trkpt lat="47.2465" lon="6.95359">
        <ele>524.9</ele>
        <time>2021-08-12T11:54:50Z</time>
      </trkpt>
      <trkpt lat="47.24648" lon="6.9536">
        <ele>524.9</ele>
        <time>2021-08-12T11:54:51Z</time>
      </trkpt>
      <trkpt lat="47.24444" lon="6.95516">
        <ele>525.4</ele>
        <time>2021-08-12T11:55:49Z</time>
      </trkpt>
      <trkpt lat="47.24439" lon="6.95519">
        <ele>525</ele>
        <time>2021-08-12T11:55:51Z</time>
      </trkpt>
      <trkpt lat="47.24434" lon="6.95523">
        <ele>524.8</ele>
        <time>2021-08-12T11:55:52Z</time>
      </trkpt>
      <trkpt lat="47.24429" lon="6.95527">
        <ele>524.6</ele>
        <time>2021-08-12T11:55:53Z</time>
      </trkpt>
      <trkpt lat="47.24422" lon="6.95533">
        <ele>524.6</ele>
        <time>2021-08-12T11:55:54Z</time>
      </trkpt>
      <trkpt lat="47.24415" lon="6.95539">
        <ele>524.7</ele>
        <time>2021-08-12T11:55:56Z</time>
      </trkpt>
      <trkpt lat="47.24397" lon="6.95554">
        <ele>525.2</ele>
        <time>2021-08-12T11:55:57Z</time>
      </trkpt>
      <trkpt lat="47.24392" lon="6.95557">
        <ele>525.3</ele>
        <time>2021-08-12T11:55:58Z</time>
      </trkpt>
      <trkpt lat="47.24383" lon="6.95561">
        <ele>525.3</ele>
        <time>2021-08-12T11:55:59Z</time>
      </trkpt>
      <trkpt lat="47.24372" lon="6.95563">
        <ele>524.5</ele>
        <time>2021-08-12T11:56:00Z</time>
      </trkpt>
      <trkpt lat="47.24356" lon="6.95564">
        <ele>523.8</ele>
        <time>2021-08-12T11:56:02Z</time>
      </trkpt>
      <trkpt lat="47.2434" lon="6.95561">
        <ele>522.6</ele>
        <time>2021-08-12T11:56:04Z</time>
      </trkpt>
      <trkpt lat="47.24325" lon="6.95556">
        <ele>523.1</ele>
        <time>2021-08-12T11:56:06Z</time>
      </trkpt>
      <trkpt lat="47.24312" lon="6.95552">
        <ele>523.5</ele>
        <time>2021-08-12T11:56:08Z</time>
      </trkpt>
      <trkpt lat="47.24301" lon="6.95544">
        <ele>523.5</ele>
        <time>2021-08-12T11:56:10Z</time>
      </trkpt>
      <trkpt lat="47.24297" lon="6.95541">
        <ele>523.4</ele>
        <time>2021-08-12T11:56:11Z</time>
      </trkpt>
      <trkpt lat="47.24293" lon="6.95535">
        <ele>523.5</ele>
        <time>2021-08-12T11:56:13Z</time>
      </trkpt>
      <trkpt lat="47.24289" lon="6.95531">
        <ele>523.6</ele>
        <time>2021-08-12T11:56:14Z</time>
      </trkpt>
      <trkpt lat="47.24281" lon="6.95521">
        <ele>524.2</ele>
        <time>2021-08-12T11:56:16Z</time>
      </trkpt>
      <trkpt lat="47.24277" lon="6.95516">
        <ele>524.6</ele>
        <time>2021-08-12T11:56:17Z</time>
      </trkpt>
      <trkpt lat="47.24277" lon="6.95515">
        <ele>524.5</ele>
        <time>2021-08-12T11:56:19Z</time>
      </trkpt>
      <trkpt lat="47.24276" lon="6.95514">
        <ele>524.6</ele>
        <time>2021-08-12T11:56:20Z</time>
      </trkpt>
      <trkpt lat="47.24267" lon="6.95505">
        <ele>525.3</ele>
        <time>2021-08-12T11:56:22Z</time>
      </trkpt>
      <trkpt lat="47.24287" lon="6.95488">
        <ele>525.1</ele>
        <time>2021-08-12T11:57:54Z</time>
      </trkpt>
      <trkpt lat="47.24285" lon="6.95488">
        <ele>525</ele>
        <time>2021-08-12T11:57:56Z</time>
      </trkpt>
      <trkpt lat="47.24283" lon="6.95485">
        <ele>525.1</ele>
        <time>2021-08-12T11:57:58Z</time>
      </trkpt>
      <trkpt lat="47.24282" lon="6.95484">
        <ele>525.1</ele>
        <time>2021-08-12T11:57:59Z</time>
      </trkpt>
      <trkpt lat="47.2428" lon="6.95481">
        <ele>525.2</ele>
        <time>2021-08-12T11:58:01Z</time>
      </trkpt>
      <trkpt lat="47.24279" lon="6.9548">
        <ele>525.2</ele>
        <time>2021-08-12T11:58:02Z</time>
      </trkpt>
      <trkpt lat="47.24278" lon="6.95477">
        <ele>525.3</ele>
        <time>2021-08-12T11:58:04Z</time>
      </trkpt>
      <trkpt lat="47.24276" lon="6.95473">
        <ele>525.5</ele>
        <time>2021-08-12T11:58:06Z</time>
      </trkpt>
      <trkpt lat="47.24276" lon="6.95467">
        <ele>525.7</ele>
        <time>2021-08-12T11:58:07Z</time>
      </trkpt>
      <trkpt lat="47.24275" lon="6.95466">
        <ele>525.6</ele>
        <time>2021-08-12T11:58:09Z</time>
      </trkpt>
      <trkpt lat="47.24275" lon="6.95465">
        <ele>525.7</ele>
        <time>2021-08-12T11:58:10Z</time>
      </trkpt>
      <trkpt lat="47.24275" lon="6.95463">
        <ele>525.6</ele>
        <time>2021-08-12T11:58:11Z</time>
      </trkpt>
      <trkpt lat="47.24276" lon="6.95459">
        <ele>525.8</ele>
        <time>2021-08-12T11:58:13Z</time>
      </trkpt>
      <trkpt lat="47.24276" lon="6.95457">
        <ele>525.7</ele>
        <time>2021-08-12T11:58:14Z</time>
      </trkpt>
      <trkpt lat="47.24276" lon="6.95454">
        <ele>525.8</ele>
        <time>2021-08-12T11:58:16Z</time>
      </trkpt>
      <trkpt lat="47.24276" lon="6.95451">
        <ele>526</ele>
        <time>2021-08-12T11:58:17Z</time>
      </trkpt>
      <trkpt lat="47.24277" lon="6.95436">
        <ele>527</ele>
        <time>2021-08-12T11:58:18Z</time>
      </trkpt>
      <trkpt lat="47.24278" lon="6.95425">
        <ele>528</ele>
        <time>2021-08-12T11:58:20Z</time>
      </trkpt>
      <trkpt lat="47.24277" lon="6.95421">
        <ele>528.2</ele>
        <time>2021-08-12T11:58:21Z</time>
      </trkpt>
      <trkpt lat="47.24277" lon="6.95419">
        <ele>528.1</ele>
        <time>2021-08-12T11:58:23Z</time>
      </trkpt>
      <trkpt lat="47.24276" lon="6.95413">
        <ele>528</ele>
        <time>2021-08-12T11:58:24Z</time>
      </trkpt>
      <trkpt lat="47.24275" lon="6.95406">
        <ele>528.2</ele>
        <time>2021-08-12T11:58:26Z</time>
      </trkpt>
      <trkpt lat="47.24275" lon="6.95402">
        <ele>528.4</ele>
        <time>2021-08-12T11:58:27Z</time>
      </trkpt>
      <trkpt lat="47.24275" lon="6.95397">
        <ele>528.7</ele>
        <time>2021-08-12T11:58:28Z</time>
      </trkpt>
      <trkpt lat="47.24274" lon="6.95392">
        <ele>528.9</ele>
        <time>2021-08-12T11:58:30Z</time>
      </trkpt>
      <trkpt lat="47.24274" lon="6.95387">
        <ele>529.6</ele>
        <time>2021-08-12T11:58:31Z</time>
      </trkpt>
      <trkpt lat="47.24274" lon="6.95381">
        <ele>528.8</ele>
        <time>2021-08-12T11:58:33Z</time>
      </trkpt>
      <trkpt lat="47.24273" lon="6.95377">
        <ele>528.9</ele>
        <time>2021-08-12T11:58:34Z</time>
      </trkpt>
      <trkpt lat="47.24273" lon="6.95376">
        <ele>528.8</ele>
        <time>2021-08-12T11:58:36Z</time>
      </trkpt>
      <trkpt lat="47.24272" lon="6.95373">
        <ele>529</ele>
        <time>2021-08-12T11:58:37Z</time>
      </trkpt>
      <trkpt lat="47.24271" lon="6.95371">
        <ele>528.9</ele>
        <time>2021-08-12T11:58:39Z</time>
      </trkpt>
      <trkpt lat="47.24271" lon="6.9537">
        <ele>528.9</ele>
        <time>2021-08-12T11:58:40Z</time>
      </trkpt>
      <trkpt lat="47.24271" lon="6.95369">
        <ele>528.8</ele>
        <time>2021-08-12T11:58:41Z</time>
      </trkpt>
      <trkpt lat="47.24271" lon="6.95367">
        <ele>528.7</ele>
        <time>2021-08-12T11:58:43Z</time>
      </trkpt>
      <trkpt lat="47.24271" lon="6.95367">
        <ele>528.6</ele>
        <time>2021-08-12T11:58:44Z</time>
      </trkpt>
      <trkpt lat="47.24236" lon="6.95363">
        <ele>520</ele>
        <time>2021-08-12T11:59:10Z</time>
      </trkpt>
      <trkpt lat="47.24236" lon="6.95362">
        <ele>519.9</ele>
        <time>2021-08-12T11:59:11Z</time>
      </trkpt>
      <trkpt lat="47.24235" lon="6.95361">
        <ele>519.6</ele>
        <time>2021-08-12T11:59:13Z</time>
      </trkpt>
      <trkpt lat="47.24227" lon="6.95354">
        <ele>519</ele>
        <time>2021-08-12T11:59:15Z</time>
      </trkpt>
      <trkpt lat="47.2422" lon="6.95346">
        <ele>518.5</ele>
        <time>2021-08-12T11:59:16Z</time>
      </trkpt>
      <trkpt lat="47.24218" lon="6.95343">
        <ele>518.3</ele>
        <time>2021-08-12T11:59:17Z</time>
      </trkpt>
      <trkpt lat="47.24216" lon="6.95336">
        <ele>518.3</ele>
        <time>2021-08-12T11:59:18Z</time>
      </trkpt>
      <trkpt lat="47.24215" lon="6.95332">
        <ele>518.3</ele>
        <time>2021-08-12T11:59:19Z</time>
      </trkpt>
      <trkpt lat="47.24214" lon="6.95325">
        <ele>518.3</ele>
        <time>2021-08-12T11:59:21Z</time>
      </trkpt>
      <trkpt lat="47.24213" lon="6.95318">
        <ele>518.4</ele>
        <time>2021-08-12T11:59:22Z</time>
      </trkpt>
      <trkpt lat="47.24212" lon="6.95311">
        <ele>518.4</ele>
        <time>2021-08-12T11:59:23Z</time>
      </trkpt>
      <trkpt lat="47.24212" lon="6.95305">
        <ele>518.4</ele>
        <time>2021-08-12T11:59:24Z</time>
      </trkpt>
      <trkpt lat="47.24215" lon="6.95297">
        <ele>518.5</ele>
        <time>2021-08-12T11:59:25Z</time>
      </trkpt>
      <trkpt lat="47.24219" lon="6.95287">
        <ele>518.6</ele>
        <time>2021-08-12T11:59:27Z</time>
      </trkpt>
      <trkpt lat="47.24222" lon="6.9528">
        <ele>518.6</ele>
        <time>2021-08-12T11:59:28Z</time>
      </trkpt>
      <trkpt lat="47.24223" lon="6.95275">
        <ele>518.6</ele>
        <time>2021-08-12T11:59:29Z</time>
      </trkpt>
      <trkpt lat="47.24224" lon="6.95272">
        <ele>518.6</ele>
        <time>2021-08-12T11:59:30Z</time>
      </trkpt>
      <trkpt lat="47.24225" lon="6.95263">
        <ele>518.7</ele>
        <time>2021-08-12T11:59:32Z</time>
      </trkpt>
      <trkpt lat="47.24226" lon="6.95257">
        <ele>518.7</ele>
        <time>2021-08-12T11:59:33Z</time>
      </trkpt>
      <trkpt lat="47.24227" lon="6.95243">
        <ele>518.7</ele>
        <time>2021-08-12T11:59:35Z</time>
      </trkpt>
      <trkpt lat="47.24228" lon="6.9523">
        <ele>518.7</ele>
        <time>2021-08-12T11:59:37Z</time>
      </trkpt>
      <trkpt lat="47.24229" lon="6.95223">
        <ele>518.7</ele>
        <time>2021-08-12T11:59:38Z</time>
      </trkpt>
      <trkpt lat="47.2423" lon="6.95216">
        <ele>518.7</ele>
        <time>2021-08-12T11:59:39Z</time>
      </trkpt>
      <trkpt lat="47.2423" lon="6.95206">
        <ele>518.7</ele>
        <time>2021-08-12T11:59:40Z</time>
      </trkpt>
      <trkpt lat="47.24232" lon="6.952">
        <ele>518.7</ele>
        <time>2021-08-12T11:59:42Z</time>
      </trkpt>
      <trkpt lat="47.24233" lon="6.95196">
        <ele>518.7</ele>
        <time>2021-08-12T11:59:43Z</time>
      </trkpt>
      <trkpt lat="47.24234" lon="6.9519">
        <ele>518.7</ele>
        <time>2021-08-12T11:59:44Z</time>
      </trkpt>
      <trkpt lat="47.24235" lon="6.95186">
        <ele>518.7</ele>
        <time>2021-08-12T11:59:45Z</time>
      </trkpt>
      <trkpt lat="47.24237" lon="6.95178">
        <ele>518.7</ele>
        <time>2021-08-12T11:59:46Z</time>
      </trkpt>
      <trkpt lat="47.24237" lon="6.95173">
        <ele>518.7</ele>
        <time>2021-08-12T11:59:47Z</time>
      </trkpt>
      <trkpt lat="47.24237" lon="6.95171">
        <ele>518.7</ele>
        <time>2021-08-12T11:59:48Z</time>
      </trkpt>
      <trkpt lat="47.24236" lon="6.95166">
        <ele>518.6</ele>
        <time>2021-08-12T11:59:49Z</time>
      </trkpt>
      <trkpt lat="47.24236" lon="6.95164">
        <ele>518.6</ele>
        <time>2021-08-12T11:59:50Z</time>
      </trkpt>
      <trkpt lat="47.24126" lon="6.95081">
        <ele>518.7</ele>
        <time>2021-08-12T12:00:30Z</time>
      </trkpt>
      <trkpt lat="47.24121" lon="6.95077">
        <ele>518.7</ele>
        <time>2021-08-12T12:00:31Z</time>
      </trkpt>
      <trkpt lat="47.24116" lon="6.95071">
        <ele>518.7</ele>
        <time>2021-08-12T12:00:33Z</time>
      </trkpt>
      <trkpt lat="47.2411" lon="6.9506">
        <ele>518.7</ele>
        <time>2021-08-12T12:00:34Z</time>
      </trkpt>
      <trkpt lat="47.24107" lon="6.95052">
        <ele>518.7</ele>
        <time>2021-08-12T12:00:36Z</time>
      </trkpt>
      <trkpt lat="47.24103" lon="6.95047">
        <ele>518.8</ele>
        <time>2021-08-12T12:00:37Z</time>
      </trkpt>
      <trkpt lat="47.24098" lon="6.95043">
        <ele>518.8</ele>
        <time>2021-08-12T12:00:38Z</time>
      </trkpt>
      <trkpt lat="47.24092" lon="6.95041">
        <ele>518.8</ele>
        <time>2021-08-12T12:00:40Z</time>
      </trkpt>
      <trkpt lat="47.24087" lon="6.95039">
        <ele>518.8</ele>
        <time>2021-08-12T12:00:41Z</time>
      </trkpt>
      <trkpt lat="47.24083" lon="6.95036">
        <ele>518.8</ele>
        <time>2021-08-12T12:00:42Z</time>
      </trkpt>
      <trkpt lat="47.2408" lon="6.95034">
        <ele>518.8</ele>
        <time>2021-08-12T12:00:43Z</time>
      </trkpt>
      <trkpt lat="47.24077" lon="6.95031">
        <ele>518.9</ele>
        <time>2021-08-12T12:00:44Z</time>
      </trkpt>
      <trkpt lat="47.24075" lon="6.9503">
        <ele>518.9</ele>
        <time>2021-08-12T12:00:45Z</time>
      </trkpt>
      <trkpt lat="47.24069" lon="6.95022">
        <ele>519</ele>
        <time>2021-08-12T12:00:47Z</time>
      </trkpt>
      <trkpt lat="47.24062" lon="6.95017">
        <ele>519.1</ele>
        <time>2021-08-12T12:00:48Z</time>
      </trkpt>
      <trkpt lat="47.24058" lon="6.95013">
        <ele>519.2</ele>
        <time>2021-08-12T12:00:50Z</time>
      </trkpt>
      <trkpt lat="47.24055" lon="6.95011">
        <ele>519.3</ele>
        <time>2021-08-12T12:00:51Z</time>
      </trkpt>
      <trkpt lat="47.2405" lon="6.95009">
        <ele>519.4</ele>
        <time>2021-08-12T12:00:52Z</time>
      </trkpt>
      <trkpt lat="47.24048" lon="6.95009">
        <ele>519.4</ele>
        <time>2021-08-12T12:00:53Z</time>
      </trkpt>
      <trkpt lat="47.24045" lon="6.95008">
        <ele>519.5</ele>
        <time>2021-08-12T12:00:55Z</time>
      </trkpt>
      <trkpt lat="47.24041" lon="6.95007">
        <ele>519.5</ele>
        <time>2021-08-12T12:00:56Z</time>
      </trkpt>
      <trkpt lat="47.24036" lon="6.95002">
        <ele>519.6</ele>
        <time>2021-08-12T12:00:57Z</time>
      </trkpt>
      <trkpt lat="47.24032" lon="6.94995">
        <ele>519.7</ele>
        <time>2021-08-12T12:00:59Z</time>
      </trkpt>
      <trkpt lat="47.24031" lon="6.94988">
        <ele>519.7</ele>
        <time>2021-08-12T12:01:00Z</time>
      </trkpt>
      <trkpt lat="47.24031" lon="6.94981">
        <ele>519.8</ele>
        <time>2021-08-12T12:01:01Z</time>
      </trkpt>
      <trkpt lat="47.24031" lon="6.94974">
        <ele>519.8</ele>
        <time>2021-08-12T12:01:02Z</time>
      </trkpt>
      <trkpt lat="47.24032" lon="6.94962">
        <ele>519.9</ele>
        <time>2021-08-12T12:01:03Z</time>
      </trkpt>
      <trkpt lat="47.24033" lon="6.94955">
        <ele>519.9</ele>
        <time>2021-08-12T12:01:04Z</time>
      </trkpt>
      <trkpt lat="47.24033" lon="6.94951">
        <ele>520</ele>
        <time>2021-08-12T12:01:05Z</time>
      </trkpt>
      <trkpt lat="47.24032" lon="6.9495">
        <ele>520</ele>
        <time>2021-08-12T12:01:07Z</time>
      </trkpt>
      <trkpt lat="47.24032" lon="6.94948">
        <ele>520</ele>
        <time>2021-08-12T12:01:08Z</time>
      </trkpt>
      <trkpt lat="47.2403" lon="6.94944">
        <ele>520</ele>
        <time>2021-08-12T12:01:10Z</time>
      </trkpt>
      <trkpt lat="47.24029" lon="6.94942">
        <ele>520</ele>
        <time>2021-08-12T12:01:11Z</time>
      </trkpt>
      <trkpt lat="47.24026" lon="6.94936">
        <ele>520.1</ele>
        <time>2021-08-12T12:01:13Z</time>
      </trkpt>
      <trkpt lat="47.24025" lon="6.94934">
        <ele>520.1</ele>
        <time>2021-08-12T12:01:14Z</time>
      </trkpt>
      <trkpt lat="47.23998" lon="6.94898">
        <ele>520.5</ele>
        <time>2021-08-12T12:01:22Z</time>
      </trkpt>
      <trkpt lat="47.23992" lon="6.94889">
        <ele>520.6</ele>
        <time>2021-08-12T12:01:23Z</time>
      </trkpt>
      <trkpt lat="47.23983" lon="6.9488">
        <ele>520.8</ele>
        <time>2021-08-12T12:01:26Z</time>
      </trkpt>
      <trkpt lat="47.23976" lon="6.94876">
        <ele>520.9</ele>
        <time>2021-08-12T12:01:27Z</time>
      </trkpt>
      <trkpt lat="47.2397" lon="6.9487">
        <ele>520.9</ele>
        <time>2021-08-12T12:01:29Z</time>
      </trkpt>
      <trkpt lat="47.23965" lon="6.94865">
        <ele>521</ele>
        <time>2021-08-12T12:01:30Z</time>
      </trkpt>
      <trkpt lat="47.2396" lon="6.94859">
        <ele>521.1</ele>
        <time>2021-08-12T12:01:31Z</time>
      </trkpt>
      <trkpt lat="47.23956" lon="6.94852">
        <ele>521.1</ele>
        <time>2021-08-12T12:01:33Z</time>
      </trkpt>
      <trkpt lat="47.23953" lon="6.94849">
        <ele>521.2</ele>
        <time>2021-08-12T12:01:34Z</time>
      </trkpt>
      <trkpt lat="47.2395" lon="6.94845">
        <ele>521.2</ele>
        <time>2021-08-12T12:01:36Z</time>
      </trkpt>
      <trkpt lat="47.23948" lon="6.94841">
        <ele>521.3</ele>
        <time>2021-08-12T12:01:37Z</time>
      </trkpt>
      <trkpt lat="47.23946" lon="6.94836">
        <ele>521.4</ele>
        <time>2021-08-12T12:01:38Z</time>
      </trkpt>
      <trkpt lat="47.23945" lon="6.94835">
        <ele>521.4</ele>
        <time>2021-08-12T12:01:39Z</time>
      </trkpt>
      <trkpt lat="47.23943" lon="6.9483">
        <ele>521.5</ele>
        <time>2021-08-12T12:01:41Z</time>
      </trkpt>
      <trkpt lat="47.23941" lon="6.94827">
        <ele>521.6</ele>
        <time>2021-08-12T12:01:42Z</time>
      </trkpt>
      <trkpt lat="47.2394" lon="6.94823">
        <ele>521.6</ele>
        <time>2021-08-12T12:01:44Z</time>
      </trkpt>
      <trkpt lat="47.23856" lon="6.94756">
        <ele>532.5</ele>
        <time>2021-08-12T12:03:51Z</time>
      </trkpt>
      <trkpt lat="47.23854" lon="6.94756">
        <ele>532.9</ele>
        <time>2021-08-12T12:03:53Z</time>
      </trkpt>
      <trkpt lat="47.23853" lon="6.94756">
        <ele>533</ele>
        <time>2021-08-12T12:03:54Z</time>
      </trkpt>
      <trkpt lat="47.23853" lon="6.94754">
        <ele>533.2</ele>
        <time>2021-08-12T12:03:55Z</time>
      </trkpt>
      <trkpt lat="47.23853" lon="6.94754">
        <ele>533.2</ele>
        <time>2021-08-12T12:03:56Z</time>
      </trkpt>
      <trkpt lat="47.23853" lon="6.94753">
        <ele>533.3</ele>
        <time>2021-08-12T12:03:58Z</time>
      </trkpt>
      <trkpt lat="47.23853" lon="6.94752">
        <ele>533.4</ele>
        <time>2021-08-12T12:03:59Z</time>
      </trkpt>
      <trkpt lat="47.23853" lon="6.94752">
        <ele>533.5</ele>
        <time>2021-08-12T12:04:00Z</time>
      </trkpt>
      <trkpt lat="47.23853" lon="6.94751">
        <ele>533.5</ele>
        <time>2021-08-12T12:04:02Z</time>
      </trkpt>
      <trkpt lat="47.23853" lon="6.94751">
        <ele>533.5</ele>
        <time>2021-08-12T12:04:03Z</time>
      </trkpt>
      <trkpt lat="47.23853" lon="6.94632">
        <ele>543.5</ele>
        <time>2021-08-12T12:06:21Z</time>
      </trkpt>
      <trkpt lat="47.23852" lon="6.94626">
        <ele>543.7</ele>
        <time>2021-08-12T12:06:23Z</time>
      </trkpt>
      <trkpt lat="47.23851" lon="6.94624">
        <ele>543.7</ele>
        <time>2021-08-12T12:06:25Z</time>
      </trkpt>
      <trkpt lat="47.2385" lon="6.94622">
        <ele>543.8</ele>
        <time>2021-08-12T12:06:26Z</time>
      </trkpt>
      <trkpt lat="47.2385" lon="6.94615">
        <ele>543.9</ele>
        <time>2021-08-12T12:06:27Z</time>
      </trkpt>
      <trkpt lat="47.23849" lon="6.94612">
        <ele>544</ele>
        <time>2021-08-12T12:06:28Z</time>
      </trkpt>
      <trkpt lat="47.23847" lon="6.94608">
        <ele>544.1</ele>
        <time>2021-08-12T12:06:29Z</time>
      </trkpt>
      <trkpt lat="47.23845" lon="6.94604">
        <ele>544.2</ele>
        <time>2021-08-12T12:06:31Z</time>
      </trkpt>
      <trkpt lat="47.23845" lon="6.94604">
        <ele>544.2</ele>
        <time>2021-08-12T12:06:32Z</time>
      </trkpt>
      <trkpt lat="47.23843" lon="6.94599">
        <ele>544.2</ele>
        <time>2021-08-12T12:06:33Z</time>
      </trkpt>
      <trkpt lat="47.23843" lon="6.94597">
        <ele>544.3</ele>
        <time>2021-08-12T12:06:34Z</time>
      </trkpt>
      <trkpt lat="47.23843" lon="6.94594">
        <ele>544.3</ele>
        <time>2021-08-12T12:06:35Z</time>
      </trkpt>
      <trkpt lat="47.23843" lon="6.94592">
        <ele>544.4</ele>
        <time>2021-08-12T12:06:36Z</time>
      </trkpt>
      <trkpt lat="47.23844" lon="6.9459">
        <ele>544.4</ele>
        <time>2021-08-12T12:06:38Z</time>
      </trkpt>
      <trkpt lat="47.23846" lon="6.94586">
        <ele>544.5</ele>
        <time>2021-08-12T12:06:40Z</time>
      </trkpt>
      <trkpt lat="47.23781" lon="6.94397">
        <ele>544.5</ele>
        <time>2021-08-12T12:07:44Z</time>
      </trkpt>
      <trkpt lat="47.23775" lon="6.94397">
        <ele>544.3</ele>
        <time>2021-08-12T12:07:45Z</time>
      </trkpt>
      <trkpt lat="47.2377" lon="6.94397">
        <ele>544</ele>
        <time>2021-08-12T12:07:46Z</time>
      </trkpt>
      <trkpt lat="47.23757" lon="6.94393">
        <ele>543.3</ele>
        <time>2021-08-12T12:07:48Z</time>
      </trkpt>
      <trkpt lat="47.23753" lon="6.9439">
        <ele>543</ele>
        <time>2021-08-12T12:07:49Z</time>
      </trkpt>
      <trkpt lat="47.23749" lon="6.94385">
        <ele>542.7</ele>
        <time>2021-08-12T12:07:50Z</time>
      </trkpt>
      <trkpt lat="47.23742" lon="6.94379">
        <ele>542.2</ele>
        <time>2021-08-12T12:07:52Z</time>
      </trkpt>
      <trkpt lat="47.23736" lon="6.94375">
        <ele>541.8</ele>
        <time>2021-08-12T12:07:53Z</time>
      </trkpt>
      <trkpt lat="47.23726" lon="6.94368">
        <ele>541</ele>
        <time>2021-08-12T12:07:54Z</time>
      </trkpt>
      <trkpt lat="47.23716" lon="6.94367">
        <ele>540.2</ele>
        <time>2021-08-12T12:07:56Z</time>
      </trkpt>
      <trkpt lat="47.2371" lon="6.94364">
        <ele>539.7</ele>
        <time>2021-08-12T12:07:57Z</time>
      </trkpt>
      <trkpt lat="47.23706" lon="6.94362">
        <ele>539.3</ele>
        <time>2021-08-12T12:07:58Z</time>
      </trkpt>
      <trkpt lat="47.23698" lon="6.94361">
        <ele>538.6</ele>
        <time>2021-08-12T12:07:59Z</time>
      </trkpt>
      <trkpt lat="47.23692" lon="6.9436">
        <ele>538.2</ele>
        <time>2021-08-12T12:08:01Z</time>
      </trkpt>
      <trkpt lat="47.23684" lon="6.94358">
        <ele>537.5</ele>
        <time>2021-08-12T12:08:02Z</time>
      </trkpt>
      <trkpt lat="47.23669" lon="6.94356">
        <ele>536.1</ele>
        <time>2021-08-12T12:08:04Z</time>
      </trkpt>
      <trkpt lat="47.23662" lon="6.94352">
        <ele>535.3</ele>
        <time>2021-08-12T12:08:06Z</time>
      </trkpt>
      <trkpt lat="47.23655" lon="6.94348">
        <ele>534.6</ele>
        <time>2021-08-12T12:08:07Z</time>
      </trkpt>
      <trkpt lat="47.23652" lon="6.94346">
        <ele>534.2</ele>
        <time>2021-08-12T12:08:08Z</time>
      </trkpt>
      <trkpt lat="47.23649" lon="6.94345">
        <ele>533.9</ele>
        <time>2021-08-12T12:08:10Z</time>
      </trkpt>
      <trkpt lat="47.23648" lon="6.94344">
        <ele>533.8</ele>
        <time>2021-08-12T12:08:11Z</time>
      </trkpt>
      <trkpt lat="47.23629" lon="6.94323">
        <ele>531.2</ele>
        <time>2021-08-12T12:08:12Z</time>
      </trkpt>
      <trkpt lat="47.23103" lon="6.94011">
        <ele>522.1</ele>
        <time>2021-08-12T12:10:53Z</time>
      </trkpt>
      <trkpt lat="47.23101" lon="6.94004">
        <ele>522</ele>
        <time>2021-08-12T12:10:55Z</time>
      </trkpt>
      <trkpt lat="47.23099" lon="6.94">
        <ele>521.9</ele>
        <time>2021-08-12T12:10:56Z</time>
      </trkpt>
      <trkpt lat="47.23096" lon="6.93992">
        <ele>521.7</ele>
        <time>2021-08-12T12:10:58Z</time>
      </trkpt>
      <trkpt lat="47.23094" lon="6.93983">
        <ele>521.6</ele>
        <time>2021-08-12T12:10:59Z</time>
      </trkpt>
      <trkpt lat="47.23094" lon="6.93977">
        <ele>521.5</ele>
        <time>2021-08-12T12:11:00Z</time>
      </trkpt>
      <trkpt lat="47.23093" lon="6.93966">
        <ele>521.3</ele>
        <time>2021-08-12T12:11:02Z</time>
      </trkpt>
      <trkpt lat="47.23092" lon="6.93955">
        <ele>521.2</ele>
        <time>2021-08-12T12:11:03Z</time>
      </trkpt>
      <trkpt lat="47.23091" lon="6.9394">
        <ele>521</ele>
        <time>2021-08-12T12:11:05Z</time>
      </trkpt>
      <trkpt lat="47.2309" lon="6.93933">
        <ele>520.9</ele>
        <time>2021-08-12T12:11:06Z</time>
      </trkpt>
      <trkpt lat="47.2309" lon="6.93919">
        <ele>520.7</ele>
        <time>2021-08-12T12:11:08Z</time>
      </trkpt>
      <trkpt lat="47.23088" lon="6.93903">
        <ele>520.6</ele>
        <time>2021-08-12T12:11:10Z</time>
      </trkpt>
      <trkpt lat="47.23086" lon="6.93896">
        <ele>520.6</ele>
        <time>2021-08-12T12:11:11Z</time>
      </trkpt>
      <trkpt lat="47.23086" lon="6.93886">
        <ele>520.6</ele>
        <time>2021-08-12T12:11:12Z</time>
      </trkpt>
      <trkpt lat="47.23084" lon="6.93879">
        <ele>520.6</ele>
        <time>2021-08-12T12:11:13Z</time>
      </trkpt>
      <trkpt lat="47.23083" lon="6.93873">
        <ele>520.6</ele>
        <time>2021-08-12T12:11:14Z</time>
      </trkpt>
      <trkpt lat="47.23079" lon="6.93866">
        <ele>520.6</ele>
        <time>2021-08-12T12:11:16Z</time>
      </trkpt>
      <trkpt lat="47.23076" lon="6.9386">
        <ele>520.6</ele>
        <time>2021-08-12T12:11:17Z</time>
      </trkpt>
      <trkpt lat="47.23073" lon="6.9385">
        <ele>520.7</ele>
        <time>2021-08-12T12:11:18Z</time>
      </trkpt>
      <trkpt lat="47.23073" lon="6.93842">
        <ele>520.7</ele>
        <time>2021-08-12T12:11:19Z</time>
      </trkpt>
      <trkpt lat="47.23074" lon="6.93835">
        <ele>520.7</ele>
        <time>2021-08-12T12:11:20Z</time>
      </trkpt>
      <trkpt lat="47.23074" lon="6.93826">
        <ele>520.8</ele>
        <time>2021-08-12T12:11:22Z</time>
      </trkpt>
      <trkpt lat="47.23074" lon="6.93819">
        <ele>520.8</ele>
        <time>2021-08-12T12:11:23Z</time>
      </trkpt>
      <trkpt lat="47.23075" lon="6.93813">
        <ele>520.8</ele>
        <time>2021-08-12T12:11:24Z</time>
      </trkpt>
      <trkpt lat="47.23075" lon="6.93806">
        <ele>520.8</ele>
        <time>2021-08-12T12:11:25Z</time>
      </trkpt>
      <trkpt lat="47.23075" lon="6.938">
        <ele>520.8</ele>
        <time>2021-08-12T12:11:26Z</time>
      </trkpt>
      <trkpt lat="47.23075" lon="6.93792">
        <ele>520.8</ele>
        <time>2021-08-12T12:11:27Z</time>
      </trkpt>
      <trkpt lat="47.23074" lon="6.93783">
        <ele>520.8</ele>
        <time>2021-08-12T12:11:29Z</time>
      </trkpt>
      <trkpt lat="47.23073" lon="6.93775">
        <ele>520.8</ele>
        <time>2021-08-12T12:11:30Z</time>
      </trkpt>
      <trkpt lat="47.23073" lon="6.93768">
        <ele>520.8</ele>
        <time>2021-08-12T12:11:31Z</time>
      </trkpt>
      <trkpt lat="47.23073" lon="6.93761">
        <ele>520.8</ele>
        <time>2021-08-12T12:11:32Z</time>
      </trkpt>
      <trkpt lat="47.23074" lon="6.93751">
        <ele>520.8</ele>
        <time>2021-08-12T12:11:33Z</time>
      </trkpt>
      <trkpt lat="47.23078" lon="6.93734">
        <ele>520.7</ele>
        <time>2021-08-12T12:11:36Z</time>
      </trkpt>
      <trkpt lat="47.23078" lon="6.93724">
        <ele>520.7</ele>
        <time>2021-08-12T12:11:37Z</time>
      </trkpt>
      <trkpt lat="47.23079" lon="6.93715">
        <ele>520.7</ele>
        <time>2021-08-12T12:11:39Z</time>
      </trkpt>
      <trkpt lat="47.23076" lon="6.93696">
        <ele>520.7</ele>
        <time>2021-08-12T12:11:41Z</time>
      </trkpt>
      <trkpt lat="47.23076" lon="6.93681">
        <ele>520.7</ele>
        <time>2021-08-12T12:11:43Z</time>
      </trkpt>
      <trkpt lat="47.23076" lon="6.93673">
        <ele>520.7</ele>
        <time>2021-08-12T12:11:44Z</time>
      </trkpt>
      <trkpt lat="47.23077" lon="6.93667">
        <ele>520.7</ele>
        <time>2021-08-12T12:11:45Z</time>
      </trkpt>
      <trkpt lat="47.23072" lon="6.93658">
        <ele>520.8</ele>
        <time>2021-08-12T12:11:46Z</time>
      </trkpt>
      <trkpt lat="47.23075" lon="6.9365">
        <ele>520.9</ele>
        <time>2021-08-12T12:11:48Z</time>
      </trkpt>
      <trkpt lat="47.23075" lon="6.93644">
        <ele>520.9</ele>
        <time>2021-08-12T12:11:50Z</time>
      </trkpt>
      <trkpt lat="47.23076" lon="6.93633">
        <ele>521</ele>
        <time>2021-08-12T12:11:51Z</time>
      </trkpt>
      <trkpt lat="47.23076" lon="6.93621">
        <ele>521.1</ele>
        <time>2021-08-12T12:11:53Z</time>
      </trkpt>
      <trkpt lat="47.23077" lon="6.93611">
        <ele>521.2</ele>
        <time>2021-08-12T12:11:54Z</time>
      </trkpt>
      <trkpt lat="47.23078" lon="6.93599">
        <ele>521.3</ele>
        <time>2021-08-12T12:11:56Z</time>
      </trkpt>
      <trkpt lat="47.23079" lon="6.93589">
        <ele>521.4</ele>
        <time>2021-08-12T12:11:57Z</time>
      </trkpt>
      <trkpt lat="47.23084" lon="6.93574">
        <ele>521.5</ele>
        <time>2021-08-12T12:11:59Z</time>
      </trkpt>
      <trkpt lat="47.23089" lon="6.93558">
        <ele>521.6</ele>
        <time>2021-08-12T12:12:01Z</time>
      </trkpt>
      <trkpt lat="47.23091" lon="6.93552">
        <ele>521.7</ele>
        <time>2021-08-12T12:12:02Z</time>
      </trkpt>
      <trkpt lat="47.2309" lon="6.93545">
        <ele>521.7</ele>
        <time>2021-08-12T12:12:03Z</time>
      </trkpt>
      <trkpt lat="47.2309" lon="6.93539">
        <ele>521.8</ele>
        <time>2021-08-12T12:12:04Z</time>
      </trkpt>
      <trkpt lat="47.23093" lon="6.93525">
        <ele>521.9</ele>
        <time>2021-08-12T12:12:06Z</time>
      </trkpt>
      <trkpt lat="47.23093" lon="6.9352">
        <ele>522</ele>
        <time>2021-08-12T12:12:07Z</time>
      </trkpt>
      <trkpt lat="47.23095" lon="6.93518">
        <ele>522</ele>
        <time>2021-08-12T12:12:08Z</time>
      </trkpt>
      <trkpt lat="47.23094" lon="6.93509">
        <ele>522.2</ele>
        <time>2021-08-12T12:12:10Z</time>
      </trkpt>
      <trkpt lat="47.23089" lon="6.93504">
        <ele>522.5</ele>
        <time>2021-08-12T12:12:12Z</time>
      </trkpt>
      <trkpt lat="47.23088" lon="6.93501">
        <ele>522.5</ele>
        <time>2021-08-12T12:12:13Z</time>
      </trkpt>
      <trkpt lat="47.23089" lon="6.93495">
        <ele>522.7</ele>
        <time>2021-08-12T12:12:15Z</time>
      </trkpt>
      <trkpt lat="47.23091" lon="6.93491">
        <ele>522.9</ele>
        <time>2021-08-12T12:12:16Z</time>
      </trkpt>
      <trkpt lat="47.23092" lon="6.93485">
        <ele>523.1</ele>
        <time>2021-08-12T12:12:18Z</time>
      </trkpt>
      <trkpt lat="47.23092" lon="6.93465">
        <ele>523.9</ele>
        <time>2021-08-12T12:12:24Z</time>
      </trkpt>
      <trkpt lat="47.23091" lon="6.93457">
        <ele>524.3</ele>
        <time>2021-08-12T12:12:26Z</time>
      </trkpt>
      <trkpt lat="47.23089" lon="6.9345">
        <ele>524.6</ele>
        <time>2021-08-12T12:12:27Z</time>
      </trkpt>
      <trkpt lat="47.23089" lon="6.93444">
        <ele>524.9</ele>
        <time>2021-08-12T12:12:28Z</time>
      </trkpt>
      <trkpt lat="47.23089" lon="6.93438">
        <ele>525.2</ele>
        <time>2021-08-12T12:12:30Z</time>
      </trkpt>
      <trkpt lat="47.23088" lon="6.93432">
        <ele>525.4</ele>
        <time>2021-08-12T12:12:31Z</time>
      </trkpt>
      <trkpt lat="47.23087" lon="6.93428">
        <ele>525.6</ele>
        <time>2021-08-12T12:12:32Z</time>
      </trkpt>
      <trkpt lat="47.23087" lon="6.93425">
        <ele>525.8</ele>
        <time>2021-08-12T12:12:34Z</time>
      </trkpt>
      <trkpt lat="47.23088" lon="6.93421">
        <ele>526</ele>
        <time>2021-08-12T12:12:35Z</time>
      </trkpt>
      <trkpt lat="47.23089" lon="6.93418">
        <ele>526.1</ele>
        <time>2021-08-12T12:12:36Z</time>
      </trkpt>
      <trkpt lat="47.23089" lon="6.93416">
        <ele>526.2</ele>
        <time>2021-08-12T12:12:37Z</time>
      </trkpt>
      <trkpt lat="47.2309" lon="6.93415">
        <ele>526.3</ele>
        <time>2021-08-12T12:12:38Z</time>
      </trkpt>
      <trkpt lat="47.2309" lon="6.93413">
        <ele>526.4</ele>
        <time>2021-08-12T12:12:39Z</time>
      </trkpt>
      <trkpt lat="47.2309" lon="6.93412">
        <ele>526.4</ele>
        <time>2021-08-12T12:12:40Z</time>
      </trkpt>
      <trkpt lat="47.23091" lon="6.93409">
        <ele>526.6</ele>
        <time>2021-08-12T12:12:43Z</time>
      </trkpt>
      <trkpt lat="47.23086" lon="6.93345">
        <ele>528.2</ele>
        <time>2021-08-12T12:13:09Z</time>
      </trkpt>
      <trkpt lat="47.23086" lon="6.93338">
        <ele>528.3</ele>
        <time>2021-08-12T12:13:10Z</time>
      </trkpt>
      <trkpt lat="47.23085" lon="6.93333">
        <ele>528.3</ele>
        <time>2021-08-12T12:13:11Z</time>
      </trkpt>
      <trkpt lat="47.23085" lon="6.93331">
        <ele>528.3</ele>
        <time>2021-08-12T12:13:12Z</time>
      </trkpt>
      <trkpt lat="47.23081" lon="6.93318">
        <ele>528.2</ele>
        <time>2021-08-12T12:13:13Z</time>
      </trkpt>
      <trkpt lat="47.23081" lon="6.93312">
        <ele>528.1</ele>
        <time>2021-08-12T12:13:14Z</time>
      </trkpt>
      <trkpt lat="47.2308" lon="6.93304">
        <ele>528</ele>
        <time>2021-08-12T12:13:16Z</time>
      </trkpt>
      <trkpt lat="47.2308" lon="6.93302">
        <ele>528</ele>
        <time>2021-08-12T12:13:17Z</time>
      </trkpt>
      <trkpt lat="47.2308" lon="6.93299">
        <ele>527.9</ele>
        <time>2021-08-12T12:13:18Z</time>
      </trkpt>
      <trkpt lat="47.23079" lon="6.93297">
        <ele>527.9</ele>
        <time>2021-08-12T12:13:19Z</time>
      </trkpt>
      <trkpt lat="47.23073" lon="6.93284">
        <ele>527.6</ele>
        <time>2021-08-12T12:13:21Z</time>
      </trkpt>
      <trkpt lat="47.23067" lon="6.93271">
        <ele>527.3</ele>
        <time>2021-08-12T12:13:22Z</time>
      </trkpt>
      <trkpt lat="47.23064" lon="6.93263">
        <ele>527.1</ele>
        <time>2021-08-12T12:13:24Z</time>
      </trkpt>
      <trkpt lat="47.22856" lon="6.92933">
        <ele>538.8</ele>
        <time>2021-08-12T12:15:38Z</time>
      </trkpt>
      <trkpt lat="47.22854" lon="6.9293">
        <ele>539.2</ele>
        <time>2021-08-12T12:15:39Z</time>
      </trkpt>
      <trkpt lat="47.22851" lon="6.92927">
        <ele>539.7</ele>
        <time>2021-08-12T12:15:40Z</time>
      </trkpt>
      <trkpt lat="47.22851" lon="6.92926">
        <ele>539.8</ele>
        <time>2021-08-12T12:15:41Z</time>
      </trkpt>
      <trkpt lat="47.22849" lon="6.92924">
        <ele>540.1</ele>
        <time>2021-08-12T12:15:43Z</time>
      </trkpt>
      <trkpt lat="47.22848" lon="6.92922">
        <ele>540.3</ele>
        <time>2021-08-12T12:15:44Z</time>
      </trkpt>
      <trkpt lat="47.22847" lon="6.92921">
        <ele>540.5</ele>
        <time>2021-08-12T12:15:45Z</time>
      </trkpt>
      <trkpt lat="47.22846" lon="6.92919">
        <ele>540.7</ele>
        <time>2021-08-12T12:15:46Z</time>
      </trkpt>
      <trkpt lat="47.22845" lon="6.92918">
        <ele>540.9</ele>
        <time>2021-08-12T12:15:48Z</time>
      </trkpt>
      <trkpt lat="47.22844" lon="6.92918">
        <ele>541</ele>
        <time>2021-08-12T12:15:49Z</time>
      </trkpt>
      <trkpt lat="47.22843" lon="6.92918">
        <ele>541.1</ele>
        <time>2021-08-12T12:15:50Z</time>
      </trkpt>
      <trkpt lat="47.22843" lon="6.92917">
        <ele>541.2</ele>
        <time>2021-08-12T12:15:51Z</time>
      </trkpt>
      <trkpt lat="47.22842" lon="6.92916">
        <ele>541.3</ele>
        <time>2021-08-12T12:15:52Z</time>
      </trkpt>
      <trkpt lat="47.22842" lon="6.92915">
        <ele>541.4</ele>
        <time>2021-08-12T12:15:54Z</time>
      </trkpt>
      <trkpt lat="47.22842" lon="6.92915">
        <ele>541.5</ele>
        <time>2021-08-12T12:15:55Z</time>
      </trkpt>
      <trkpt lat="47.22842" lon="6.92914">
        <ele>541.5</ele>
        <time>2021-08-12T12:15:57Z</time>
      </trkpt>
      <trkpt lat="47.22842" lon="6.92914">
        <ele>541.5</ele>
        <time>2021-08-12T12:15:58Z</time>
      </trkpt>
      <trkpt lat="47.22842" lon="6.92914">
        <ele>541.6</ele>
        <time>2021-08-12T12:15:59Z</time>
      </trkpt>
      <trkpt lat="47.22841" lon="6.92914">
        <ele>541.6</ele>
        <time>2021-08-12T12:16:00Z</time>
      </trkpt>
      <trkpt lat="47.22841" lon="6.92914">
        <ele>541.6</ele>
        <time>2021-08-12T12:16:01Z</time>
      </trkpt>
      <trkpt lat="47.22841" lon="6.92914">
        <ele>541.6</ele>
        <time>2021-08-12T12:16:02Z</time>
      </trkpt>
      <trkpt lat="47.22809" lon="6.92867">
        <ele>547.6</ele>
        <time>2021-08-12T12:16:58Z</time>
      </trkpt>
      <trkpt lat="47.22807" lon="6.92865">
        <ele>547.9</ele>
        <time>2021-08-12T12:16:59Z</time>
      </trkpt>
      <trkpt lat="47.22804" lon="6.92861">
        <ele>548.4</ele>
        <time>2021-08-12T12:17:01Z</time>
      </trkpt>
      <trkpt lat="47.22801" lon="6.92859">
        <ele>548.8</ele>
        <time>2021-08-12T12:17:02Z</time>
      </trkpt>
      <trkpt lat="47.228" lon="6.92858">
        <ele>548.9</ele>
        <time>2021-08-12T12:17:03Z</time>
      </trkpt>
      <trkpt lat="47.22798" lon="6.92858">
        <ele>549.1</ele>
        <time>2021-08-12T12:17:04Z</time>
      </trkpt>
      <trkpt lat="47.22796" lon="6.92857">
        <ele>549.4</ele>
        <time>2021-08-12T12:17:06Z</time>
      </trkpt>
      <trkpt lat="47.22795" lon="6.92858">
        <ele>549.5</ele>
        <time>2021-08-12T12:17:07Z</time>
      </trkpt>
      <trkpt lat="47.22794" lon="6.92858">
        <ele>549.5</ele>
        <time>2021-08-12T12:17:08Z</time>
      </trkpt>
      <trkpt lat="47.22794" lon="6.92858">
        <ele>549.6</ele>
        <time>2021-08-12T12:17:09Z</time>
      </trkpt>
      <trkpt lat="47.22794" lon="6.92858">
        <ele>549.6</ele>
        <time>2021-08-12T12:17:11Z</time>
      </trkpt>
      <trkpt lat="47.22794" lon="6.92858">
        <ele>549.6</ele>
        <time>2021-08-12T12:17:13Z</time>
      </trkpt>
      <trkpt lat="47.22793" lon="6.92858">
        <ele>549.6</ele>
        <time>2021-08-12T12:17:14Z</time>
      </trkpt>
      <trkpt lat="47.22793" lon="6.92858">
        <ele>549.6</ele>
        <time>2021-08-12T12:17:15Z</time>
      </trkpt>
      <trkpt lat="47.22793" lon="6.92858">
        <ele>549.6</ele>
        <time>2021-08-12T12:17:16Z</time>
      </trkpt>
      <trkpt lat="47.22793" lon="6.92858">
        <ele>549.6</ele>
        <time>2021-08-12T12:17:17Z</time>
      </trkpt>
      <trkpt lat="47.22793" lon="6.92858">
        <ele>549.7</ele>
        <time>2021-08-12T12:17:19Z</time>
      </trkpt>
      <trkpt lat="47.22778" lon="6.92853">
        <ele>551.4</ele>
        <time>2021-08-12T12:17:27Z</time>
      </trkpt>
      <trkpt lat="47.22776" lon="6.92851">
        <ele>551.7</ele>
        <time>2021-08-12T12:17:29Z</time>
      </trkpt>
      <trkpt lat="47.22773" lon="6.92848">
        <ele>552</ele>
        <time>2021-08-12T12:17:31Z</time>
      </trkpt>
      <trkpt lat="47.22772" lon="6.92847">
        <ele>552.2</ele>
        <time>2021-08-12T12:17:32Z</time>
      </trkpt>
      <trkpt lat="47.22771" lon="6.92846">
        <ele>552.4</ele>
        <time>2021-08-12T12:17:33Z</time>
      </trkpt>
      <trkpt lat="47.2277" lon="6.92845">
        <ele>552.5</ele>
        <time>2021-08-12T12:17:34Z</time>
      </trkpt>
      <trkpt lat="47.22769" lon="6.92844">
        <ele>552.5</ele>
        <time>2021-08-12T12:17:35Z</time>
      </trkpt>
      <trkpt lat="47.22768" lon="6.92843">
        <ele>552.6</ele>
        <time>2021-08-12T12:17:37Z</time>
      </trkpt>
      <trkpt lat="47.22767" lon="6.92842">
        <ele>552.8</ele>
        <time>2021-08-12T12:17:38Z</time>
      </trkpt>
      <trkpt lat="47.22765" lon="6.92841">
        <ele>553</ele>
        <time>2021-08-12T12:17:39Z</time>
      </trkpt>
      <trkpt lat="47.22764" lon="6.9284">
        <ele>553.2</ele>
        <time>2021-08-12T12:17:41Z</time>
      </trkpt>
      <trkpt lat="47.22763" lon="6.92838">
        <ele>553.4</ele>
        <time>2021-08-12T12:17:42Z</time>
      </trkpt>
      <trkpt lat="47.22761" lon="6.92836">
        <ele>553.6</ele>
        <time>2021-08-12T12:17:43Z</time>
      </trkpt>
      <trkpt lat="47.2276" lon="6.92835">
        <ele>553.7</ele>
        <time>2021-08-12T12:17:44Z</time>
      </trkpt>
      <trkpt lat="47.22759" lon="6.92834">
        <ele>553.8</ele>
        <time>2021-08-12T12:17:45Z</time>
      </trkpt>
      <trkpt lat="47.22759" lon="6.92833">
        <ele>553.9</ele>
        <time>2021-08-12T12:17:47Z</time>
      </trkpt>
      <trkpt lat="47.22759" lon="6.92834">
        <ele>553.9</ele>
        <time>2021-08-12T12:17:48Z</time>
      </trkpt>
      <trkpt lat="47.22759" lon="6.92834">
        <ele>554</ele>
        <time>2021-08-12T12:17:50Z</time>
      </trkpt>
      <trkpt lat="47.22757" lon="6.92834">
        <ele>554.1</ele>
        <time>2021-08-12T12:17:51Z</time>
      </trkpt>
      <trkpt lat="47.22754" lon="6.92835">
        <ele>554.4</ele>
        <time>2021-08-12T12:17:52Z</time>
      </trkpt>
      <trkpt lat="47.22753" lon="6.92835">
        <ele>554.6</ele>
        <time>2021-08-12T12:17:53Z</time>
      </trkpt>
      <trkpt lat="47.22751" lon="6.92835">
        <ele>554.8</ele>
        <time>2021-08-12T12:17:55Z</time>
      </trkpt>
      <trkpt lat="47.22749" lon="6.92835">
        <ele>555</ele>
        <time>2021-08-12T12:17:56Z</time>
      </trkpt>
      <trkpt lat="47.22748" lon="6.92835">
        <ele>555.2</ele>
        <time>2021-08-12T12:17:57Z</time>
      </trkpt>
      <trkpt lat="47.22746" lon="6.92835">
        <ele>555.4</ele>
        <time>2021-08-12T12:17:58Z</time>
      </trkpt>
      <trkpt lat="47.22744" lon="6.92835">
        <ele>555.6</ele>
        <time>2021-08-12T12:18:00Z</time>
      </trkpt>
      <trkpt lat="47.22743" lon="6.92836">
        <ele>555.7</ele>
        <time>2021-08-12T12:18:01Z</time>
      </trkpt>
      <trkpt lat="47.22741" lon="6.92836">
        <ele>555.9</ele>
        <time>2021-08-12T12:18:02Z</time>
      </trkpt>
      <trkpt lat="47.22739" lon="6.92836">
        <ele>556.1</ele>
        <time>2021-08-12T12:18:04Z</time>
      </trkpt>
      <trkpt lat="47.22738" lon="6.92836">
        <ele>556.3</ele>
        <time>2021-08-12T12:18:05Z</time>
      </trkpt>
      <trkpt lat="47.22736" lon="6.92836">
        <ele>556.5</ele>
        <time>2021-08-12T12:18:39Z</time>
      </trkpt>
      <trkpt lat="47.22735" lon="6.92836">
        <ele>556.7</ele>
        <time>2021-08-12T12:18:40Z</time>
      </trkpt>
      <trkpt lat="47.22733" lon="6.92836">
        <ele>556.9</ele>
        <time>2021-08-12T12:18:41Z</time>
      </trkpt>
      <trkpt lat="47.22732" lon="6.92835">
        <ele>557.3</ele>
        <time>2021-08-12T12:18:43Z</time>
      </trkpt>
      <trkpt lat="47.22732" lon="6.92834">
        <ele>557.4</ele>
        <time>2021-08-12T12:18:44Z</time>
      </trkpt>
      <trkpt lat="47.22731" lon="6.92833">
        <ele>557.4</ele>
        <time>2021-08-12T12:18:45Z</time>
      </trkpt>
      <trkpt lat="47.22731" lon="6.92832">
        <ele>557.5</ele>
        <time>2021-08-12T12:18:46Z</time>
      </trkpt>
      <trkpt lat="47.22731" lon="6.92832">
        <ele>557.5</ele>
        <time>2021-08-12T12:18:48Z</time>
      </trkpt>
      <trkpt lat="47.2273" lon="6.92831">
        <ele>557.6</ele>
        <time>2021-08-12T12:18:49Z</time>
      </trkpt>
      <trkpt lat="47.2273" lon="6.92831">
        <ele>557.6</ele>
        <time>2021-08-12T12:18:50Z</time>
      </trkpt>
      <trkpt lat="47.22714" lon="6.92823">
        <ele>559.3</ele>
        <time>2021-08-12T12:19:03Z</time>
      </trkpt>
      <trkpt lat="47.22713" lon="6.92822">
        <ele>559.5</ele>
        <time>2021-08-12T12:19:04Z</time>
      </trkpt>
      <trkpt lat="47.22712" lon="6.9282">
        <ele>559.6</ele>
        <time>2021-08-12T12:19:05Z</time>
      </trkpt>
      <trkpt lat="47.22709" lon="6.92816">
        <ele>560</ele>
        <time>2021-08-12T12:19:06Z</time>
      </trkpt>
      <trkpt lat="47.22709" lon="6.92815">
        <ele>560.1</ele>
        <time>2021-08-12T12:19:07Z</time>
      </trkpt>
      <trkpt lat="47.22707" lon="6.92812">
        <ele>560.3</ele>
        <time>2021-08-12T12:19:08Z</time>
      </trkpt>
      <trkpt lat="47.22706" lon="6.9281">
        <ele>560.5</ele>
        <time>2021-08-12T12:19:10Z</time>
      </trkpt>
      <trkpt lat="47.22705" lon="6.92806">
        <ele>560.8</ele>
        <time>2021-08-12T12:19:11Z</time>
      </trkpt>
      <trkpt lat="47.22704" lon="6.92805">
        <ele>560.9</ele>
        <time>2021-08-12T12:19:12Z</time>
      </trkpt>
      <trkpt lat="47.22703" lon="6.92803">
        <ele>561</ele>
        <time>2021-08-12T12:19:13Z</time>
      </trkpt>
      <trkpt lat="47.22702" lon="6.92801">
        <ele>561.2</ele>
        <time>2021-08-12T12:19:15Z</time>
      </trkpt>
      <trkpt lat="47.22701" lon="6.928">
        <ele>561.4</ele>
        <time>2021-08-12T12:19:16Z</time>
      </trkpt>
      <trkpt lat="47.227" lon="6.92798">
        <ele>561.6</ele>
        <time>2021-08-12T12:19:17Z</time>
      </trkpt>
      <trkpt lat="47.22698" lon="6.92795">
        <ele>561.8</ele>
        <time>2021-08-12T12:19:18Z</time>
      </trkpt>
      <trkpt lat="47.22697" lon="6.92793">
        <ele>562</ele>
        <time>2021-08-12T12:19:20Z</time>
      </trkpt>
      <trkpt lat="47.22696" lon="6.92792">
        <ele>562.1</ele>
        <time>2021-08-12T12:19:21Z</time>
      </trkpt>
      <trkpt lat="47.22695" lon="6.9279">
        <ele>562.3</ele>
        <time>2021-08-12T12:19:22Z</time>
      </trkpt>
      <trkpt lat="47.22693" lon="6.92789">
        <ele>562.4</ele>
        <time>2021-08-12T12:19:24Z</time>
      </trkpt>
      <trkpt lat="47.22693" lon="6.92787">
        <ele>562.6</ele>
        <time>2021-08-12T12:19:26Z</time>
      </trkpt>
      <trkpt lat="47.22692" lon="6.92788">
        <ele>562.6</ele>
        <time>2021-08-12T12:19:27Z</time>
      </trkpt>
      <trkpt lat="47.22692" lon="6.92788">
        <ele>562.7</ele>
        <time>2021-08-12T12:19:28Z</time>
      </trkpt>
      <trkpt lat="47.22692" lon="6.92789">
        <ele>562.7</ele>
        <time>2021-08-12T12:19:29Z</time>
      </trkpt>
      <trkpt lat="47.22691" lon="6.9279">
        <ele>562.8</ele>
        <time>2021-08-12T12:19:30Z</time>
      </trkpt>
      <trkpt lat="47.22691" lon="6.9279">
        <ele>562.8</ele>
        <time>2021-08-12T12:19:31Z</time>
      </trkpt>
      <trkpt lat="47.22691" lon="6.92791">
        <ele>562.9</ele>
        <time>2021-08-12T12:19:32Z</time>
      </trkpt>
      <trkpt lat="47.22691" lon="6.92791">
        <ele>562.9</ele>
        <time>2021-08-12T12:19:33Z</time>
      </trkpt>
      <trkpt lat="47.22691" lon="6.92792">
        <ele>563</ele>
        <time>2021-08-12T12:19:34Z</time>
      </trkpt>
      <trkpt lat="47.22691" lon="6.92792">
        <ele>563</ele>
        <time>2021-08-12T12:19:35Z</time>
      </trkpt>
      <trkpt lat="47.22691" lon="6.92793">
        <ele>563</ele>
        <time>2021-08-12T12:19:36Z</time>
      </trkpt>
      <trkpt lat="47.22691" lon="6.92793">
        <ele>563</ele>
        <time>2021-08-12T12:19:38Z</time>
      </trkpt>
      <trkpt lat="47.22691" lon="6.92793">
        <ele>563.1</ele>
        <time>2021-08-12T12:19:39Z</time>
      </trkpt>
      <trkpt lat="47.22691" lon="6.92794">
        <ele>563.1</ele>
        <time>2021-08-12T12:19:40Z</time>
      </trkpt>
      <trkpt lat="47.22691" lon="6.92794">
        <ele>563.1</ele>
        <time>2021-08-12T12:19:41Z</time>
      </trkpt>
      <trkpt lat="47.22685" lon="6.92788">
        <ele>563.8</ele>
        <time>2021-08-12T12:19:51Z</time>
      </trkpt>
      <trkpt lat="47.22682" lon="6.92787">
        <ele>564.1</ele>
        <time>2021-08-12T12:19:52Z</time>
      </trkpt>
      <trkpt lat="47.22679" lon="6.92784">
        <ele>564.4</ele>
        <time>2021-08-12T12:19:53Z</time>
      </trkpt>
      <trkpt lat="47.22678" lon="6.92783">
        <ele>564.5</ele>
        <time>2021-08-12T12:19:54Z</time>
      </trkpt>
      <trkpt lat="47.22676" lon="6.9278">
        <ele>564.8</ele>
        <time>2021-08-12T12:19:55Z</time>
      </trkpt>
      <trkpt lat="47.22674" lon="6.92779">
        <ele>564.9</ele>
        <time>2021-08-12T12:19:57Z</time>
      </trkpt>
      <trkpt lat="47.22672" lon="6.92775">
        <ele>565.3</ele>
        <time>2021-08-12T12:19:58Z</time>
      </trkpt>
      <trkpt lat="47.22671" lon="6.92774">
        <ele>565.4</ele>
        <time>2021-08-12T12:19:59Z</time>
      </trkpt>
      <trkpt lat="47.22669" lon="6.92773">
        <ele>565.5</ele>
        <time>2021-08-12T12:20:01Z</time>
      </trkpt>
      <trkpt lat="47.22668" lon="6.92772">
        <ele>565.6</ele>
        <time>2021-08-12T12:20:02Z</time>
      </trkpt>
      <trkpt lat="47.22667" lon="6.92771">
        <ele>565.8</ele>
        <time>2021-08-12T12:20:03Z</time>
      </trkpt>
      <trkpt lat="47.22665" lon="6.9277">
        <ele>566</ele>
        <time>2021-08-12T12:20:05Z</time>
      </trkpt>
      <trkpt lat="47.22663" lon="6.92769">
        <ele>566.1</ele>
        <time>2021-08-12T12:20:06Z</time>
      </trkpt>
      <trkpt lat="47.22661" lon="6.9277">
        <ele>566.3</ele>
        <time>2021-08-12T12:20:07Z</time>
      </trkpt>
      <trkpt lat="47.2266" lon="6.9277">
        <ele>566.4</ele>
        <time>2021-08-12T12:20:08Z</time>
      </trkpt>
      <trkpt lat="47.22658" lon="6.92771">
        <ele>566.6</ele>
        <time>2021-08-12T12:20:09Z</time>
      </trkpt>
      <trkpt lat="47.22656" lon="6.92772">
        <ele>566.7</ele>
        <time>2021-08-12T12:20:10Z</time>
      </trkpt>
      <trkpt lat="47.22655" lon="6.92772">
        <ele>566.8</ele>
        <time>2021-08-12T12:20:11Z</time>
      </trkpt>
      <trkpt lat="47.22655" lon="6.92773">
        <ele>566.9</ele>
        <time>2021-08-12T12:20:13Z</time>
      </trkpt>
      <trkpt lat="47.22654" lon="6.92773">
        <ele>567</ele>
        <time>2021-08-12T12:20:14Z</time>
      </trkpt>
      <trkpt lat="47.22654" lon="6.92774">
        <ele>567</ele>
        <time>2021-08-12T12:20:15Z</time>
      </trkpt>
      <trkpt lat="47.22653" lon="6.92774">
        <ele>567</ele>
        <time>2021-08-12T12:20:16Z</time>
      </trkpt>
      <trkpt lat="47.22652" lon="6.92774">
        <ele>567.1</ele>
        <time>2021-08-12T12:20:17Z</time>
      </trkpt>
      <trkpt lat="47.22651" lon="6.92774">
        <ele>567.2</ele>
        <time>2021-08-12T12:20:19Z</time>
      </trkpt>
      <trkpt lat="47.22651" lon="6.92773">
        <ele>567.2</ele>
        <time>2021-08-12T12:20:20Z</time>
      </trkpt>
      <trkpt lat="47.2265" lon="6.92773">
        <ele>567.3</ele>
        <time>2021-08-12T12:20:21Z</time>
      </trkpt>
      <trkpt lat="47.2265" lon="6.92773">
        <ele>567.3</ele>
        <time>2021-08-12T12:20:22Z</time>
      </trkpt>
      <trkpt lat="47.22649" lon="6.92773">
        <ele>567.4</ele>
        <time>2021-08-12T12:20:23Z</time>
      </trkpt>
      <trkpt lat="47.22649" lon="6.92772">
        <ele>567.4</ele>
        <time>2021-08-12T12:20:25Z</time>
      </trkpt>
      <trkpt lat="47.22648" lon="6.92772">
        <ele>567.5</ele>
        <time>2021-08-12T12:20:26Z</time>
      </trkpt>
      <trkpt lat="47.22646" lon="6.92771">
        <ele>567.7</ele>
        <time>2021-08-12T12:20:27Z</time>
      </trkpt>
      <trkpt lat="47.22645" lon="6.92771">
        <ele>567.8</ele>
        <time>2021-08-12T12:20:28Z</time>
      </trkpt>
      <trkpt lat="47.22643" lon="6.9277">
        <ele>567.9</ele>
        <time>2021-08-12T12:20:30Z</time>
      </trkpt>
      <trkpt lat="47.22643" lon="6.92769">
        <ele>568</ele>
        <time>2021-08-12T12:20:31Z</time>
      </trkpt>
      <trkpt lat="47.22642" lon="6.92769">
        <ele>568.1</ele>
        <time>2021-08-12T12:20:33Z</time>
      </trkpt>
      <trkpt lat="47.22642" lon="6.92768">
        <ele>568.1</ele>
        <time>2021-08-12T12:20:34Z</time>
      </trkpt>
      <trkpt lat="47.22641" lon="6.92768">
        <ele>568.1</ele>
        <time>2021-08-12T12:20:35Z</time>
      </trkpt>
      <trkpt lat="47.22641" lon="6.92768">
        <ele>568.1</ele>
        <time>2021-08-12T12:20:36Z</time>
      </trkpt>
      <trkpt lat="47.22641" lon="6.92768">
        <ele>568.2</ele>
        <time>2021-08-12T12:20:37Z</time>
      </trkpt>
      <trkpt lat="47.22641" lon="6.92767">
        <ele>568.2</ele>
        <time>2021-08-12T12:20:38Z</time>
      </trkpt>
      <trkpt lat="47.2264" lon="6.92767">
        <ele>568.3</ele>
        <time>2021-08-12T12:20:39Z</time>
      </trkpt>
      <trkpt lat="47.22638" lon="6.92767">
        <ele>568.4</ele>
        <time>2021-08-12T12:20:41Z</time>
      </trkpt>
      <trkpt lat="47.22622" lon="6.92767">
        <ele>569.6</ele>
        <time>2021-08-12T12:20:53Z</time>
      </trkpt>
      <trkpt lat="47.22617" lon="6.92767">
        <ele>569.8</ele>
        <time>2021-08-12T12:20:55Z</time>
      </trkpt>
      <trkpt lat="47.22613" lon="6.92766">
        <ele>570</ele>
        <time>2021-08-12T12:20:56Z</time>
      </trkpt>
      <trkpt lat="47.22606" lon="6.92766">
        <ele>570.3</ele>
        <time>2021-08-12T12:20:57Z</time>
      </trkpt>
      <trkpt lat="47.226" lon="6.92765">
        <ele>570.5</ele>
        <time>2021-08-12T12:20:58Z</time>
      </trkpt>
      <trkpt lat="47.22596" lon="6.92764">
        <ele>570.6</ele>
        <time>2021-08-12T12:20:59Z</time>
      </trkpt>
      <trkpt lat="47.22591" lon="6.92763">
        <ele>570.6</ele>
        <time>2021-08-12T12:21:00Z</time>
      </trkpt>
      <trkpt lat="47.22587" lon="6.92763">
        <ele>570.6</ele>
        <time>2021-08-12T12:21:02Z</time>
      </trkpt>
      <trkpt lat="47.22581" lon="6.92761">
        <ele>570.6</ele>
        <time>2021-08-12T12:21:03Z</time>
      </trkpt>
      <trkpt lat="47.22577" lon="6.92759">
        <ele>570.5</ele>
        <time>2021-08-12T12:21:04Z</time>
      </trkpt>
      <trkpt lat="47.22574" lon="6.92758">
        <ele>570.4</ele>
        <time>2021-08-12T12:21:06Z</time>
      </trkpt>
      <trkpt lat="47.22569" lon="6.92757">
        <ele>570.2</ele>
        <time>2021-08-12T12:21:08Z</time>
      </trkpt>
      <trkpt lat="47.22563" lon="6.92754">
        <ele>570</ele>
        <time>2021-08-12T12:21:09Z</time>
      </trkpt>
      <trkpt lat="47.22558" lon="6.92753">
        <ele>569.8</ele>
        <time>2021-08-12T12:21:10Z</time>
      </trkpt>
      <trkpt lat="47.22548" lon="6.92745">
        <ele>569.3</ele>
        <time>2021-08-12T12:21:12Z</time>
      </trkpt>
      <trkpt lat="47.22544" lon="6.9274">
        <ele>569.1</ele>
        <time>2021-08-12T12:21:13Z</time>
      </trkpt>
      <trkpt lat="47.22539" lon="6.92735">
        <ele>568.8</ele>
        <time>2021-08-12T12:21:14Z</time>
      </trkpt>
      <trkpt lat="47.2253" lon="6.92724">
        <ele>568.3</ele>
        <time>2021-08-12T12:21:16Z</time>
      </trkpt>
      <trkpt lat="47.22518" lon="6.92711">
        <ele>567.7</ele>
        <time>2021-08-12T12:21:18Z</time>
      </trkpt>
      <trkpt lat="47.22511" lon="6.92705">
        <ele>567.4</ele>
        <time>2021-08-12T12:21:19Z</time>
      </trkpt>
      <trkpt lat="47.22499" lon="6.92697">
        <ele>566.8</ele>
        <time>2021-08-12T12:21:21Z</time>
      </trkpt>
      <trkpt lat="47.22486" lon="6.92693">
        <ele>566.1</ele>
        <time>2021-08-12T12:21:23Z</time>
      </trkpt>
      <trkpt lat="47.2248" lon="6.92691">
        <ele>565.7</ele>
        <time>2021-08-12T12:21:24Z</time>
      </trkpt>
      <trkpt lat="47.22466" lon="6.92684">
        <ele>564.7</ele>
        <time>2021-08-12T12:21:26Z</time>
      </trkpt>
      <trkpt lat="47.22455" lon="6.92675">
        <ele>563.6</ele>
        <time>2021-08-12T12:21:28Z</time>
      </trkpt>
      <trkpt lat="47.22444" lon="6.92666">
        <ele>562.5</ele>
        <time>2021-08-12T12:21:30Z</time>
      </trkpt>
      <trkpt lat="47.22432" lon="6.92654">
        <ele>561.3</ele>
        <time>2021-08-12T12:21:32Z</time>
      </trkpt>
      <trkpt lat="47.22422" lon="6.92644">
        <ele>560.3</ele>
        <time>2021-08-12T12:21:34Z</time>
      </trkpt>
      <trkpt lat="47.22418" lon="6.9264">
        <ele>559.9</ele>
        <time>2021-08-12T12:21:35Z</time>
      </trkpt>
      <trkpt lat="47.22415" lon="6.92635">
        <ele>559.6</ele>
        <time>2021-08-12T12:21:36Z</time>
      </trkpt>
      <trkpt lat="47.2241" lon="6.92626">
        <ele>559</ele>
        <time>2021-08-12T12:21:38Z</time>
      </trkpt>
      <trkpt lat="47.22408" lon="6.92624">
        <ele>558.8</ele>
        <time>2021-08-12T12:21:39Z</time>
      </trkpt>
      <trkpt lat="47.22404" lon="6.9262">
        <ele>558.4</ele>
        <time>2021-08-12T12:21:40Z</time>
      </trkpt>
      <trkpt lat="47.22397" lon="6.92615">
        <ele>557.9</ele>
        <time>2021-08-12T12:21:42Z</time>
      </trkpt>
      <trkpt lat="47.22394" lon="6.92611">
        <ele>557.6</ele>
        <time>2021-08-12T12:21:43Z</time>
      </trkpt>
      <trkpt lat="47.2239" lon="6.92606">
        <ele>557.2</ele>
        <time>2021-08-12T12:21:45Z</time>
      </trkpt>
      <trkpt lat="47.2239" lon="6.92598">
        <ele>556.8</ele>
        <time>2021-08-12T12:21:47Z</time>
      </trkpt>
      <trkpt lat="47.22392" lon="6.92595">
        <ele>556.7</ele>
        <time>2021-08-12T12:21:48Z</time>
      </trkpt>
      <trkpt lat="47.22395" lon="6.9259">
        <ele>556.6</ele>
        <time>2021-08-12T12:21:49Z</time>
      </trkpt>
      <trkpt lat="47.22399" lon="6.92586">
        <ele>556.4</ele>
        <time>2021-08-12T12:21:50Z</time>
      </trkpt>
      <trkpt lat="47.22401" lon="6.92578">
        <ele>556.3</ele>
        <time>2021-08-12T12:21:52Z</time>
      </trkpt>
      <trkpt lat="47.22402" lon="6.92576">
        <ele>556.2</ele>
        <time>2021-08-12T12:21:53Z</time>
      </trkpt>
      <trkpt lat="47.22401" lon="6.92576">
        <ele>556.2</ele>
        <time>2021-08-12T12:21:54Z</time>
      </trkpt>
      <trkpt lat="47.22399" lon="6.92581">
        <ele>556.1</ele>
        <time>2021-08-12T12:21:56Z</time>
      </trkpt>
      <trkpt lat="47.22397" lon="6.92583">
        <ele>556</ele>
        <time>2021-08-12T12:21:57Z</time>
      </trkpt>
      <trkpt lat="47.22396" lon="6.92585">
        <ele>556</ele>
        <time>2021-08-12T12:21:59Z</time>
      </trkpt>
      <trkpt lat="47.22399" lon="6.92583">
        <ele>555.9</ele>
        <time>2021-08-12T12:22:00Z</time>
      </trkpt>
      <trkpt lat="47.22403" lon="6.9258">
        <ele>555.8</ele>
        <time>2021-08-12T12:22:02Z</time>
      </trkpt>
      <trkpt lat="47.22406" lon="6.92577">
        <ele>555.7</ele>
        <time>2021-08-12T12:22:03Z</time>
      </trkpt>
      <trkpt lat="47.2241" lon="6.92574">
        <ele>555.5</ele>
        <time>2021-08-12T12:22:05Z</time>
      </trkpt>
      <trkpt lat="47.22413" lon="6.9257">
        <ele>555.4</ele>
        <time>2021-08-12T12:22:06Z</time>
      </trkpt>
      <trkpt lat="47.22417" lon="6.92567">
        <ele>555.4</ele>
        <time>2021-08-12T12:22:08Z</time>
      </trkpt>
      <trkpt lat="47.22421" lon="6.92564">
        <ele>555.3</ele>
        <time>2021-08-12T12:26:58Z</time>
      </trkpt>
      <trkpt lat="47.22424" lon="6.92561">
        <ele>555.3</ele>
        <time>2021-08-12T12:26:59Z</time>
      </trkpt>
      <trkpt lat="47.22429" lon="6.92538">
        <ele>555.1</ele>
        <time>2021-08-12T12:27:01Z</time>
      </trkpt>
      <trkpt lat="47.22431" lon="6.92519">
        <ele>554.9</ele>
        <time>2021-08-12T12:27:03Z</time>
      </trkpt>
      <trkpt lat="47.22432" lon="6.92502">
        <ele>554.9</ele>
        <time>2021-08-12T12:27:05Z</time>
      </trkpt>
      <trkpt lat="47.22432" lon="6.92495">
        <ele>555</ele>
        <time>2021-08-12T12:27:06Z</time>
      </trkpt>
      <trkpt lat="47.22431" lon="6.92488">
        <ele>555.1</ele>
        <time>2021-08-12T12:27:07Z</time>
      </trkpt>
      <trkpt lat="47.22431" lon="6.92483">
        <ele>555.2</ele>
        <time>2021-08-12T12:27:08Z</time>
      </trkpt>
      <trkpt lat="47.22433" lon="6.92476">
        <ele>555.3</ele>
        <time>2021-08-12T12:27:10Z</time>
      </trkpt>
      <trkpt lat="47.22435" lon="6.9247">
        <ele>555.5</ele>
        <time>2021-08-12T12:27:11Z</time>
      </trkpt>
      <trkpt lat="47.22437" lon="6.92464">
        <ele>555.7</ele>
        <time>2021-08-12T12:27:12Z</time>
      </trkpt>
      <trkpt lat="47.22437" lon="6.92463">
        <ele>555.7</ele>
        <time>2021-08-12T12:27:13Z</time>
      </trkpt>
      <trkpt lat="47.22438" lon="6.92457">
        <ele>555.9</ele>
        <time>2021-08-12T12:27:14Z</time>
      </trkpt>
      <trkpt lat="47.22438" lon="6.9245">
        <ele>556.1</ele>
        <time>2021-08-12T12:27:16Z</time>
      </trkpt>
      <trkpt lat="47.22438" lon="6.92448">
        <ele>556.2</ele>
        <time>2021-08-12T12:27:17Z</time>
      </trkpt>
      <trkpt lat="47.22438" lon="6.92446">
        <ele>556.3</ele>
        <time>2021-08-12T12:27:18Z</time>
      </trkpt>
      <trkpt lat="47.22437" lon="6.92443">
        <ele>556.3</ele>
        <time>2021-08-12T12:27:19Z</time>
      </trkpt>
      <trkpt lat="47.22437" lon="6.92437">
        <ele>556.5</ele>
        <time>2021-08-12T12:27:21Z</time>
      </trkpt>
      <trkpt lat="47.22437" lon="6.92431">
        <ele>556.8</ele>
        <time>2021-08-12T12:27:22Z</time>
      </trkpt>
      <trkpt lat="47.22438" lon="6.92425">
        <ele>557</ele>
        <time>2021-08-12T12:27:24Z</time>
      </trkpt>
      <trkpt lat="47.22439" lon="6.92421">
        <ele>557.1</ele>
        <time>2021-08-12T12:27:25Z</time>
      </trkpt>
      <trkpt lat="47.2244" lon="6.92417">
        <ele>557.3</ele>
        <time>2021-08-12T12:27:27Z</time>
      </trkpt>
      <trkpt lat="47.2244" lon="6.92417">
        <ele>557.3</ele>
        <time>2021-08-12T12:27:28Z</time>
      </trkpt>
      <trkpt lat="47.2244" lon="6.92417">
        <ele>557.3</ele>
        <time>2021-08-12T12:27:29Z</time>
      </trkpt>
      <trkpt lat="47.2244" lon="6.92417">
        <ele>557.3</ele>
        <time>2021-08-12T12:27:30Z</time>
      </trkpt>
      <trkpt lat="47.22441" lon="6.92415">
        <ele>557.4</ele>
        <time>2021-08-12T12:27:32Z</time>
      </trkpt>
      <trkpt lat="47.22441" lon="6.92414">
        <ele>557.5</ele>
        <time>2021-08-12T12:27:33Z</time>
      </trkpt>
      <trkpt lat="47.22442" lon="6.92409">
        <ele>557.7</ele>
        <time>2021-08-12T12:27:34Z</time>
      </trkpt>
      <trkpt lat="47.22442" lon="6.92408">
        <ele>557.7</ele>
        <time>2021-08-12T12:27:35Z</time>
      </trkpt>
      <trkpt lat="47.22444" lon="6.92404">
        <ele>557.9</ele>
        <time>2021-08-12T12:27:36Z</time>
      </trkpt>
      <trkpt lat="47.22443" lon="6.92399">
        <ele>558.1</ele>
        <time>2021-08-12T12:27:38Z</time>
      </trkpt>
      <trkpt lat="47.22443" lon="6.92397">
        <ele>558.2</ele>
        <time>2021-08-12T12:27:39Z</time>
      </trkpt>
      <trkpt lat="47.22443" lon="6.92391">
        <ele>558.5</ele>
        <time>2021-08-12T12:27:40Z</time>
      </trkpt>
      <trkpt lat="47.22443" lon="6.92388">
        <ele>558.6</ele>
        <time>2021-08-12T12:27:41Z</time>
      </trkpt>
      <trkpt lat="47.22442" lon="6.92385">
        <ele>558.8</ele>
        <time>2021-08-12T12:27:42Z</time>
      </trkpt>
      <trkpt lat="47.22441" lon="6.92382">
        <ele>558.9</ele>
        <time>2021-08-12T12:27:44Z</time>
      </trkpt>
      <trkpt lat="47.22439" lon="6.92379">
        <ele>559.1</ele>
        <time>2021-08-12T12:27:45Z</time>
      </trkpt>
      <trkpt lat="47.22438" lon="6.92378">
        <ele>559.2</ele>
        <time>2021-08-12T12:27:46Z</time>
      </trkpt>
      <trkpt lat="47.22435" lon="6.92376">
        <ele>559.4</ele>
        <time>2021-08-12T12:27:47Z</time>
      </trkpt>
      <trkpt lat="47.22434" lon="6.92375">
        <ele>559.5</ele>
        <time>2021-08-12T12:27:48Z</time>
      </trkpt>
      <trkpt lat="47.22432" lon="6.92373">
        <ele>559.7</ele>
        <time>2021-08-12T12:27:49Z</time>
      </trkpt>
      <trkpt lat="47.22431" lon="6.92372">
        <ele>559.8</ele>
        <time>2021-08-12T12:27:50Z</time>
      </trkpt>
      <trkpt lat="47.22429" lon="6.92369">
        <ele>560</ele>
        <time>2021-08-12T12:27:52Z</time>
      </trkpt>
      <trkpt lat="47.22428" lon="6.92368">
        <ele>560</ele>
        <time>2021-08-12T12:27:53Z</time>
      </trkpt>
      <trkpt lat="47.22427" lon="6.92364">
        <ele>560.2</ele>
        <time>2021-08-12T12:27:54Z</time>
      </trkpt>
      <trkpt lat="47.22426" lon="6.92363">
        <ele>560.3</ele>
        <time>2021-08-12T12:27:55Z</time>
      </trkpt>
      <trkpt lat="47.22423" lon="6.92359">
        <ele>560.6</ele>
        <time>2021-08-12T12:27:56Z</time>
      </trkpt>
      <trkpt lat="47.22422" lon="6.92358">
        <ele>560.6</ele>
        <time>2021-08-12T12:27:57Z</time>
      </trkpt>
      <trkpt lat="47.22421" lon="6.92357">
        <ele>560.8</ele>
        <time>2021-08-12T12:27:58Z</time>
      </trkpt>
      <trkpt lat="47.22418" lon="6.92357">
        <ele>560.9</ele>
        <time>2021-08-12T12:28:00Z</time>
      </trkpt>
      <trkpt lat="47.22416" lon="6.92356">
        <ele>561</ele>
        <time>2021-08-12T12:28:01Z</time>
      </trkpt>
      <trkpt lat="47.22415" lon="6.92354">
        <ele>561.2</ele>
        <time>2021-08-12T12:28:02Z</time>
      </trkpt>
      <trkpt lat="47.22414" lon="6.92352">
        <ele>561.3</ele>
        <time>2021-08-12T12:28:03Z</time>
      </trkpt>
      <trkpt lat="47.22413" lon="6.92351">
        <ele>561.4</ele>
        <time>2021-08-12T12:28:04Z</time>
      </trkpt>
      <trkpt lat="47.2241" lon="6.92348">
        <ele>561.5</ele>
        <time>2021-08-12T12:28:06Z</time>
      </trkpt>
      <trkpt lat="47.2241" lon="6.92348">
        <ele>561.6</ele>
        <time>2021-08-12T12:28:07Z</time>
      </trkpt>
      <trkpt lat="47.22409" lon="6.92347">
        <ele>561.7</ele>
        <time>2021-08-12T12:28:08Z</time>
      </trkpt>
      <trkpt lat="47.22407" lon="6.92344">
        <ele>561.8</ele>
        <time>2021-08-12T12:28:09Z</time>
      </trkpt>
      <trkpt lat="47.22407" lon="6.92342">
        <ele>561.9</ele>
        <time>2021-08-12T12:28:11Z</time>
      </trkpt>
      <trkpt lat="47.22406" lon="6.9234">
        <ele>562</ele>
        <time>2021-08-12T12:28:12Z</time>
      </trkpt>
      <trkpt lat="47.22404" lon="6.92339">
        <ele>562.1</ele>
        <time>2021-08-12T12:28:13Z</time>
      </trkpt>
      <trkpt lat="47.22403" lon="6.92336">
        <ele>562.2</ele>
        <time>2021-08-12T12:28:15Z</time>
      </trkpt>
      <trkpt lat="47.22402" lon="6.92332">
        <ele>562.4</ele>
        <time>2021-08-12T12:28:16Z</time>
      </trkpt>
      <trkpt lat="47.22401" lon="6.92329">
        <ele>562.5</ele>
        <time>2021-08-12T12:28:17Z</time>
      </trkpt>
      <trkpt lat="47.22401" lon="6.92326">
        <ele>562.7</ele>
        <time>2021-08-12T12:28:19Z</time>
      </trkpt>
      <trkpt lat="47.224" lon="6.92321">
        <ele>562.9</ele>
        <time>2021-08-12T12:28:20Z</time>
      </trkpt>
      <trkpt lat="47.22399" lon="6.92319">
        <ele>562.9</ele>
        <time>2021-08-12T12:28:21Z</time>
      </trkpt>
      <trkpt lat="47.22397" lon="6.92315">
        <ele>563.2</ele>
        <time>2021-08-12T12:28:22Z</time>
      </trkpt>
      <trkpt lat="47.22397" lon="6.92313">
        <ele>563.2</ele>
        <time>2021-08-12T12:28:23Z</time>
      </trkpt>
      <trkpt lat="47.22395" lon="6.92309">
        <ele>563.4</ele>
        <time>2021-08-12T12:28:24Z</time>
      </trkpt>
      <trkpt lat="47.22394" lon="6.92307">
        <ele>563.5</ele>
        <time>2021-08-12T12:28:25Z</time>
      </trkpt>
      <trkpt lat="47.22391" lon="6.92306">
        <ele>563.7</ele>
        <time>2021-08-12T12:28:27Z</time>
      </trkpt>
      <trkpt lat="47.22389" lon="6.92305">
        <ele>563.9</ele>
        <time>2021-08-12T12:28:28Z</time>
      </trkpt>
      <trkpt lat="47.22388" lon="6.92304">
        <ele>563.9</ele>
        <time>2021-08-12T12:28:29Z</time>
      </trkpt>
      <trkpt lat="47.22387" lon="6.92302">
        <ele>564</ele>
        <time>2021-08-12T12:28:30Z</time>
      </trkpt>
      <trkpt lat="47.22387" lon="6.923">
        <ele>564.1</ele>
        <time>2021-08-12T12:28:31Z</time>
      </trkpt>
      <trkpt lat="47.22387" lon="6.92295">
        <ele>564.3</ele>
        <time>2021-08-12T12:28:32Z</time>
      </trkpt>
      <trkpt lat="47.22387" lon="6.92291">
        <ele>564.4</ele>
        <time>2021-08-12T12:28:34Z</time>
      </trkpt>
      <trkpt lat="47.22387" lon="6.92288">
        <ele>564.6</ele>
        <time>2021-08-12T12:28:35Z</time>
      </trkpt>
      <trkpt lat="47.22385" lon="6.92285">
        <ele>564.7</ele>
        <time>2021-08-12T12:28:37Z</time>
      </trkpt>
      <trkpt lat="47.22382" lon="6.92283">
        <ele>564.9</ele>
        <time>2021-08-12T12:28:38Z</time>
      </trkpt>
      <trkpt lat="47.22379" lon="6.92281">
        <ele>565.2</ele>
        <time>2021-08-12T12:28:39Z</time>
      </trkpt>
      <trkpt lat="47.22377" lon="6.92281">
        <ele>565.2</ele>
        <time>2021-08-12T12:28:40Z</time>
      </trkpt>
      <trkpt lat="47.22376" lon="6.9228">
        <ele>565.3</ele>
        <time>2021-08-12T12:28:41Z</time>
      </trkpt>
      <trkpt lat="47.22375" lon="6.92279">
        <ele>565.4</ele>
        <time>2021-08-12T12:28:43Z</time>
      </trkpt>
      <trkpt lat="47.22374" lon="6.92277">
        <ele>565.5</ele>
        <time>2021-08-12T12:28:44Z</time>
      </trkpt>
      <trkpt lat="47.22373" lon="6.92275">
        <ele>565.6</ele>
        <time>2021-08-12T12:28:45Z</time>
      </trkpt>
      <trkpt lat="47.22369" lon="6.92272">
        <ele>565.9</ele>
        <time>2021-08-12T12:28:46Z</time>
      </trkpt>
      <trkpt lat="47.22366" lon="6.92271">
        <ele>566.2</ele>
        <time>2021-08-12T12:28:47Z</time>
      </trkpt>
      <trkpt lat="47.22362" lon="6.92271">
        <ele>566.4</ele>
        <time>2021-08-12T12:28:49Z</time>
      </trkpt>
      <trkpt lat="47.22359" lon="6.9227">
        <ele>566.6</ele>
        <time>2021-08-12T12:28:50Z</time>
      </trkpt>
      <trkpt lat="47.22355" lon="6.92269">
        <ele>566.9</ele>
        <time>2021-08-12T12:28:52Z</time>
      </trkpt>
      <trkpt lat="47.22352" lon="6.92269">
        <ele>566.9</ele>
        <time>2021-08-12T12:28:53Z</time>
      </trkpt>
      <trkpt lat="47.22348" lon="6.92268">
        <ele>566.8</ele>
        <time>2021-08-12T12:28:55Z</time>
      </trkpt>
      <trkpt lat="47.22345" lon="6.92268">
        <ele>566.6</ele>
        <time>2021-08-12T12:28:56Z</time>
      </trkpt>
      <trkpt lat="47.22341" lon="6.92267">
        <ele>566.5</ele>
        <time>2021-08-12T12:29:15Z</time>
      </trkpt>
      <trkpt lat="47.22337" lon="6.92266">
        <ele>566.3</ele>
        <time>2021-08-12T12:29:17Z</time>
      </trkpt>
      <trkpt lat="47.22329" lon="6.9226">
        <ele>565.7</ele>
        <time>2021-08-12T12:29:18Z</time>
      </trkpt>
      <trkpt lat="47.22315" lon="6.92248">
        <ele>564.8</ele>
        <time>2021-08-12T12:29:20Z</time>
      </trkpt>
      <trkpt lat="47.22309" lon="6.92242">
        <ele>564.4</ele>
        <time>2021-08-12T12:29:21Z</time>
      </trkpt>
      <trkpt lat="47.22298" lon="6.9223">
        <ele>563.5</ele>
        <time>2021-08-12T12:29:23Z</time>
      </trkpt>
      <trkpt lat="47.22287" lon="6.92217">
        <ele>562.7</ele>
        <time>2021-08-12T12:29:25Z</time>
      </trkpt>
      <trkpt lat="47.22277" lon="6.92204">
        <ele>561.8</ele>
        <time>2021-08-12T12:29:27Z</time>
      </trkpt>
      <trkpt lat="47.22264" lon="6.92193">
        <ele>560.6</ele>
        <time>2021-08-12T12:29:29Z</time>
      </trkpt>
      <trkpt lat="47.22252" lon="6.92178">
        <ele>559.3</ele>
        <time>2021-08-12T12:29:31Z</time>
      </trkpt>
      <trkpt lat="47.22241" lon="6.92162">
        <ele>558</ele>
        <time>2021-08-12T12:29:33Z</time>
      </trkpt>
      <trkpt lat="47.22235" lon="6.92153">
        <ele>557.4</ele>
        <time>2021-08-12T12:29:34Z</time>
      </trkpt>
      <trkpt lat="47.2223" lon="6.92143">
        <ele>556.8</ele>
        <time>2021-08-12T12:29:35Z</time>
      </trkpt>
      <trkpt lat="47.22221" lon="6.92121">
        <ele>555.5</ele>
        <time>2021-08-12T12:29:37Z</time>
      </trkpt>
      <trkpt lat="47.22211" lon="6.92096">
        <ele>554.1</ele>
        <time>2021-08-12T12:29:39Z</time>
      </trkpt>
      <trkpt lat="47.22207" lon="6.92083">
        <ele>553.6</ele>
        <time>2021-08-12T12:29:40Z</time>
      </trkpt>
      <trkpt lat="47.22198" lon="6.92059">
        <ele>552.7</ele>
        <time>2021-08-12T12:29:42Z</time>
      </trkpt>
      <trkpt lat="47.22193" lon="6.92048">
        <ele>552.5</ele>
        <time>2021-08-12T12:29:43Z</time>
      </trkpt>
      <trkpt lat="47.2219" lon="6.92037">
        <ele>552.3</ele>
        <time>2021-08-12T12:29:44Z</time>
      </trkpt>
      <trkpt lat="47.22184" lon="6.92017">
        <ele>552.3</ele>
        <time>2021-08-12T12:29:46Z</time>
      </trkpt>
      <trkpt lat="47.22179" lon="6.92002">
        <ele>552.5</ele>
        <time>2021-08-12T12:29:48Z</time>
      </trkpt>
      <trkpt lat="47.22177" lon="6.91995">
        <ele>552.6</ele>
        <time>2021-08-12T12:29:49Z</time>
      </trkpt>
      <trkpt lat="47.22173" lon="6.91984">
        <ele>552.8</ele>
        <time>2021-08-12T12:29:51Z</time>
      </trkpt>
      <trkpt lat="47.22172" lon="6.91979">
        <ele>552.9</ele>
        <time>2021-08-12T12:29:52Z</time>
      </trkpt>
      <trkpt lat="47.22171" lon="6.91974">
        <ele>553</ele>
        <time>2021-08-12T12:29:53Z</time>
      </trkpt>
      <trkpt lat="47.22169" lon="6.91962">
        <ele>553.2</ele>
        <time>2021-08-12T12:29:55Z</time>
      </trkpt>
      <trkpt lat="47.22165" lon="6.91952">
        <ele>553.3</ele>
        <time>2021-08-12T12:29:57Z</time>
      </trkpt>
      <trkpt lat="47.22162" lon="6.91946">
        <ele>553.3</ele>
        <time>2021-08-12T12:29:58Z</time>
      </trkpt>
      <trkpt lat="47.22158" lon="6.91948">
        <ele>553.4</ele>
        <time>2021-08-12T12:29:59Z</time>
      </trkpt>
      <trkpt lat="47.22155" lon="6.9194">
        <ele>553.4</ele>
        <time>2021-08-12T12:30:01Z</time>
      </trkpt>
      <trkpt lat="47.2215" lon="6.9193">
        <ele>553.4</ele>
        <time>2021-08-12T12:30:02Z</time>
      </trkpt>
      <trkpt lat="47.22144" lon="6.91917">
        <ele>553.4</ele>
        <time>2021-08-12T12:30:04Z</time>
      </trkpt>
      <trkpt lat="47.22142" lon="6.91914">
        <ele>553.4</ele>
        <time>2021-08-12T12:30:05Z</time>
      </trkpt>
      <trkpt lat="47.22135" lon="6.91905">
        <ele>553.4</ele>
        <time>2021-08-12T12:30:07Z</time>
      </trkpt>
      <trkpt lat="47.22133" lon="6.91899">
        <ele>553.4</ele>
        <time>2021-08-12T12:30:08Z</time>
      </trkpt>
      <trkpt lat="47.22128" lon="6.91889">
        <ele>553.4</ele>
        <time>2021-08-12T12:30:10Z</time>
      </trkpt>
      <trkpt lat="47.22126" lon="6.91883">
        <ele>553.4</ele>
        <time>2021-08-12T12:30:11Z</time>
      </trkpt>
      <trkpt lat="47.22123" lon="6.91876">
        <ele>553.3</ele>
        <time>2021-08-12T12:30:12Z</time>
      </trkpt>
      <trkpt lat="47.22121" lon="6.91869">
        <ele>553.3</ele>
        <time>2021-08-12T12:30:13Z</time>
      </trkpt>
      <trkpt lat="47.2212" lon="6.91862">
        <ele>553.3</ele>
        <time>2021-08-12T12:30:15Z</time>
      </trkpt>
      <trkpt lat="47.22119" lon="6.91855">
        <ele>553.3</ele>
        <time>2021-08-12T12:30:16Z</time>
      </trkpt>
      <trkpt lat="47.22118" lon="6.91849">
        <ele>553.3</ele>
        <time>2021-08-12T12:30:17Z</time>
      </trkpt>
      <trkpt lat="47.22115" lon="6.91839">
        <ele>553.2</ele>
        <time>2021-08-12T12:30:18Z</time>
      </trkpt>
      <trkpt lat="47.22112" lon="6.91832">
        <ele>553.1</ele>
        <time>2021-08-12T12:30:19Z</time>
      </trkpt>
      <trkpt lat="47.22109" lon="6.91824">
        <ele>553</ele>
        <time>2021-08-12T12:30:20Z</time>
      </trkpt>
      <trkpt lat="47.22104" lon="6.9181">
        <ele>552.9</ele>
        <time>2021-08-12T12:30:22Z</time>
      </trkpt>
      <trkpt lat="47.22103" lon="6.91802">
        <ele>552.8</ele>
        <time>2021-08-12T12:30:23Z</time>
      </trkpt>
      <trkpt lat="47.22101" lon="6.91796">
        <ele>552.7</ele>
        <time>2021-08-12T12:30:24Z</time>
      </trkpt>
      <trkpt lat="47.22098" lon="6.91789">
        <ele>552.7</ele>
        <time>2021-08-12T12:30:25Z</time>
      </trkpt>
      <trkpt lat="47.22096" lon="6.91782">
        <ele>552.7</ele>
        <time>2021-08-12T12:30:26Z</time>
      </trkpt>
      <trkpt lat="47.22092" lon="6.91767">
        <ele>552.6</ele>
        <time>2021-08-12T12:30:28Z</time>
      </trkpt>
      <trkpt lat="47.2209" lon="6.9176">
        <ele>552.6</ele>
        <time>2021-08-12T12:30:29Z</time>
      </trkpt>
      <trkpt lat="47.22087" lon="6.91746">
        <ele>552.6</ele>
        <time>2021-08-12T12:30:31Z</time>
      </trkpt>
      <trkpt lat="47.22085" lon="6.91734">
        <ele>552.6</ele>
        <time>2021-08-12T12:30:33Z</time>
      </trkpt>
      <trkpt lat="47.22085" lon="6.91729">
        <ele>552.7</ele>
        <time>2021-08-12T12:30:34Z</time>
      </trkpt>
      <trkpt lat="47.22085" lon="6.91724">
        <ele>552.8</ele>
        <time>2021-08-12T12:30:35Z</time>
      </trkpt>
      <trkpt lat="47.22087" lon="6.91714">
        <ele>552.9</ele>
        <time>2021-08-12T12:30:37Z</time>
      </trkpt>
      <trkpt lat="47.22083" lon="6.91709">
        <ele>553</ele>
        <time>2021-08-12T12:30:39Z</time>
      </trkpt>
      <trkpt lat="47.22084" lon="6.91698">
        <ele>553.2</ele>
        <time>2021-08-12T12:30:40Z</time>
      </trkpt>
      <trkpt lat="47.22086" lon="6.91689">
        <ele>553.4</ele>
        <time>2021-08-12T12:30:42Z</time>
      </trkpt>
      <trkpt lat="47.22086" lon="6.91683">
        <ele>553.5</ele>
        <time>2021-08-12T12:30:43Z</time>
      </trkpt>
      <trkpt lat="47.22085" lon="6.91677">
        <ele>553.5</ele>
        <time>2021-08-12T12:30:44Z</time>
      </trkpt>
      <trkpt lat="47.22084" lon="6.91672">
        <ele>553.6</ele>
        <time>2021-08-12T12:30:45Z</time>
      </trkpt>
      <trkpt lat="47.22083" lon="6.91668">
        <ele>553.6</ele>
        <time>2021-08-12T12:30:46Z</time>
      </trkpt>
      <trkpt lat="47.2208" lon="6.91661">
        <ele>553.6</ele>
        <time>2021-08-12T12:30:47Z</time>
      </trkpt>
      <trkpt lat="47.22071" lon="6.91651">
        <ele>553.5</ele>
        <time>2021-08-12T12:30:49Z</time>
      </trkpt>
      <trkpt lat="47.22068" lon="6.91646">
        <ele>553.5</ele>
        <time>2021-08-12T12:30:50Z</time>
      </trkpt>
      <trkpt lat="47.2206" lon="6.91639">
        <ele>553.4</ele>
        <time>2021-08-12T12:30:52Z</time>
      </trkpt>
      <trkpt lat="47.22057" lon="6.91635">
        <ele>553.4</ele>
        <time>2021-08-12T12:30:53Z</time>
      </trkpt>
      <trkpt lat="47.22052" lon="6.91628">
        <ele>553.4</ele>
        <time>2021-08-12T12:30:55Z</time>
      </trkpt>
      <trkpt lat="47.22048" lon="6.91624">
        <ele>553.4</ele>
        <time>2021-08-12T12:30:56Z</time>
      </trkpt>
      <trkpt lat="47.22045" lon="6.91617">
        <ele>553.4</ele>
        <time>2021-08-12T12:30:57Z</time>
      </trkpt>
      <trkpt lat="47.2204" lon="6.91608">
        <ele>553.3</ele>
        <time>2021-08-12T12:30:58Z</time>
      </trkpt>
      <trkpt lat="47.22036" lon="6.91597">
        <ele>553.3</ele>
        <time>2021-08-12T12:31:00Z</time>
      </trkpt>
      <trkpt lat="47.22034" lon="6.91592">
        <ele>553.2</ele>
        <time>2021-08-12T12:31:01Z</time>
      </trkpt>
      <trkpt lat="47.2203" lon="6.91584">
        <ele>553.2</ele>
        <time>2021-08-12T12:31:02Z</time>
      </trkpt>
      <trkpt lat="47.22028" lon="6.91578">
        <ele>553.3</ele>
        <time>2021-08-12T12:31:03Z</time>
      </trkpt>
      <trkpt lat="47.22026" lon="6.91571">
        <ele>553.3</ele>
        <time>2021-08-12T12:31:05Z</time>
      </trkpt>
      <trkpt lat="47.22025" lon="6.91562">
        <ele>553.3</ele>
        <time>2021-08-12T12:31:06Z</time>
      </trkpt>
      <trkpt lat="47.22026" lon="6.91557">
        <ele>553.3</ele>
        <time>2021-08-12T12:31:07Z</time>
      </trkpt>
      <trkpt lat="47.22024" lon="6.9155">
        <ele>553.3</ele>
        <time>2021-08-12T12:31:08Z</time>
      </trkpt>
      <trkpt lat="47.22024" lon="6.91544">
        <ele>553.3</ele>
        <time>2021-08-12T12:31:09Z</time>
      </trkpt>
      <trkpt lat="47.22024" lon="6.91536">
        <ele>553.3</ele>
        <time>2021-08-12T12:31:10Z</time>
      </trkpt>
      <trkpt lat="47.22026" lon="6.91522">
        <ele>553.4</ele>
        <time>2021-08-12T12:31:12Z</time>
      </trkpt>
      <trkpt lat="47.22026" lon="6.91511">
        <ele>553.5</ele>
        <time>2021-08-12T12:31:14Z</time>
      </trkpt>
      <trkpt lat="47.22024" lon="6.91505">
        <ele>553.5</ele>
        <time>2021-08-12T12:31:15Z</time>
      </trkpt>
      <trkpt lat="47.22024" lon="6.91494">
        <ele>553.7</ele>
        <time>2021-08-12T12:31:17Z</time>
      </trkpt>
      <trkpt lat="47.22024" lon="6.91489">
        <ele>553.7</ele>
        <time>2021-08-12T12:31:18Z</time>
      </trkpt>
      <trkpt lat="47.22024" lon="6.91483">
        <ele>553.9</ele>
        <time>2021-08-12T12:31:19Z</time>
      </trkpt>
      <trkpt lat="47.22024" lon="6.91477">
        <ele>554</ele>
        <time>2021-08-12T12:31:20Z</time>
      </trkpt>
      <trkpt lat="47.22023" lon="6.91476">
        <ele>554</ele>
        <time>2021-08-12T12:31:21Z</time>
      </trkpt>
      <trkpt lat="47.22021" lon="6.91474">
        <ele>554.1</ele>
        <time>2021-08-12T12:31:22Z</time>
      </trkpt>
      <trkpt lat="47.22021" lon="6.91468">
        <ele>554.3</ele>
        <time>2021-08-12T12:31:24Z</time>
      </trkpt>
      <trkpt lat="47.2202" lon="6.9146">
        <ele>554.6</ele>
        <time>2021-08-12T12:31:25Z</time>
      </trkpt>
      <trkpt lat="47.22019" lon="6.91454">
        <ele>554.8</ele>
        <time>2021-08-12T12:31:27Z</time>
      </trkpt>
      <trkpt lat="47.22018" lon="6.91452">
        <ele>554.9</ele>
        <time>2021-08-12T12:31:28Z</time>
      </trkpt>
      <trkpt lat="47.22016" lon="6.91448">
        <ele>555.1</ele>
        <time>2021-08-12T12:31:29Z</time>
      </trkpt>
      <trkpt lat="47.22013" lon="6.9144">
        <ele>555.4</ele>
        <time>2021-08-12T12:31:31Z</time>
      </trkpt>
      <trkpt lat="47.22012" lon="6.91435">
        <ele>555.5</ele>
        <time>2021-08-12T12:31:32Z</time>
      </trkpt>
      <trkpt lat="47.22011" lon="6.91428">
        <ele>555.6</ele>
        <time>2021-08-12T12:31:33Z</time>
      </trkpt>
      <trkpt lat="47.22009" lon="6.91423">
        <ele>555.7</ele>
        <time>2021-08-12T12:31:34Z</time>
      </trkpt>
      <trkpt lat="47.22008" lon="6.91418">
        <ele>555.8</ele>
        <time>2021-08-12T12:31:35Z</time>
      </trkpt>
      <trkpt lat="47.22006" lon="6.9141">
        <ele>555.9</ele>
        <time>2021-08-12T12:31:37Z</time>
      </trkpt>
      <trkpt lat="47.22002" lon="6.91401">
        <ele>556</ele>
        <time>2021-08-12T12:31:38Z</time>
      </trkpt>
      <trkpt lat="47.21999" lon="6.91393">
        <ele>556.1</ele>
        <time>2021-08-12T12:31:40Z</time>
      </trkpt>
      <trkpt lat="47.21996" lon="6.91388">
        <ele>556.2</ele>
        <time>2021-08-12T12:31:41Z</time>
      </trkpt>
      <trkpt lat="47.21993" lon="6.91384">
        <ele>556.2</ele>
        <time>2021-08-12T12:31:42Z</time>
      </trkpt>
      <trkpt lat="47.21989" lon="6.91379">
        <ele>556.2</ele>
        <time>2021-08-12T12:31:44Z</time>
      </trkpt>
      <trkpt lat="47.21985" lon="6.91371">
        <ele>556.2</ele>
        <time>2021-08-12T12:31:46Z</time>
      </trkpt>
      <trkpt lat="47.21981" lon="6.91365">
        <ele>556.3</ele>
        <time>2021-08-12T12:31:47Z</time>
      </trkpt>
      <trkpt lat="47.21977" lon="6.91357">
        <ele>556.3</ele>
        <time>2021-08-12T12:31:49Z</time>
      </trkpt>
      <trkpt lat="47.21976" lon="6.91351">
        <ele>556.3</ele>
        <time>2021-08-12T12:31:51Z</time>
      </trkpt>
      <trkpt lat="47.21975" lon="6.91341">
        <ele>556.4</ele>
        <time>2021-08-12T12:31:52Z</time>
      </trkpt>
      <trkpt lat="47.21975" lon="6.91335">
        <ele>556.4</ele>
        <time>2021-08-12T12:31:53Z</time>
      </trkpt>
      <trkpt lat="47.21974" lon="6.91326">
        <ele>556.4</ele>
        <time>2021-08-12T12:31:55Z</time>
      </trkpt>
      <trkpt lat="47.21972" lon="6.91319">
        <ele>556.3</ele>
        <time>2021-08-12T12:31:56Z</time>
      </trkpt>
      <trkpt lat="47.21971" lon="6.91311">
        <ele>556.3</ele>
        <time>2021-08-12T12:31:58Z</time>
      </trkpt>
      <trkpt lat="47.2197" lon="6.91304">
        <ele>556.2</ele>
        <time>2021-08-12T12:31:59Z</time>
      </trkpt>
      <trkpt lat="47.21968" lon="6.91298">
        <ele>556.2</ele>
        <time>2021-08-12T12:32:00Z</time>
      </trkpt>
      <trkpt lat="47.21965" lon="6.91291">
        <ele>556.1</ele>
        <time>2021-08-12T12:32:01Z</time>
      </trkpt>
      <trkpt lat="47.21962" lon="6.91289">
        <ele>556</ele>
        <time>2021-08-12T12:32:02Z</time>
      </trkpt>
      <trkpt lat="47.21959" lon="6.91281">
        <ele>555.9</ele>
        <time>2021-08-12T12:32:03Z</time>
      </trkpt>
      <trkpt lat="47.21956" lon="6.91273">
        <ele>555.9</ele>
        <time>2021-08-12T12:32:05Z</time>
      </trkpt>
      <trkpt lat="47.21954" lon="6.91267">
        <ele>555.8</ele>
        <time>2021-08-12T12:32:06Z</time>
      </trkpt>
      <trkpt lat="47.2195" lon="6.91258">
        <ele>555.8</ele>
        <time>2021-08-12T12:32:07Z</time>
      </trkpt>
      <trkpt lat="47.21948" lon="6.91251">
        <ele>555.9</ele>
        <time>2021-08-12T12:32:08Z</time>
      </trkpt>
      <trkpt lat="47.21945" lon="6.91244">
        <ele>555.9</ele>
        <time>2021-08-12T12:32:10Z</time>
      </trkpt>
      <trkpt lat="47.21943" lon="6.91236">
        <ele>556</ele>
        <time>2021-08-12T12:32:11Z</time>
      </trkpt>
      <trkpt lat="47.2194" lon="6.9123">
        <ele>555.9</ele>
        <time>2021-08-12T12:32:12Z</time>
      </trkpt>
      <trkpt lat="47.21935" lon="6.91219">
        <ele>555.8</ele>
        <time>2021-08-12T12:32:14Z</time>
      </trkpt>
      <trkpt lat="47.2193" lon="6.9121">
        <ele>555.6</ele>
        <time>2021-08-12T12:32:15Z</time>
      </trkpt>
      <trkpt lat="47.21924" lon="6.91196">
        <ele>555.3</ele>
        <time>2021-08-12T12:32:17Z</time>
      </trkpt>
      <trkpt lat="47.21917" lon="6.91183">
        <ele>554.9</ele>
        <time>2021-08-12T12:32:19Z</time>
      </trkpt>
      <trkpt lat="47.21907" lon="6.91173">
        <ele>554.6</ele>
        <time>2021-08-12T12:32:21Z</time>
      </trkpt>
      <trkpt lat="47.21899" lon="6.91163">
        <ele>554.5</ele>
        <time>2021-08-12T12:32:23Z</time>
      </trkpt>
      <trkpt lat="47.21893" lon="6.91152">
        <ele>554.5</ele>
        <time>2021-08-12T12:32:25Z</time>
      </trkpt>
      <trkpt lat="47.21891" lon="6.91146">
        <ele>554.5</ele>
        <time>2021-08-12T12:32:26Z</time>
      </trkpt>
      <trkpt lat="47.21887" lon="6.91141">
        <ele>554.5</ele>
        <time>2021-08-12T12:32:28Z</time>
      </trkpt>
      <trkpt lat="47.21884" lon="6.9114">
        <ele>554.6</ele>
        <time>2021-08-12T12:32:29Z</time>
      </trkpt>
      <trkpt lat="47.21886" lon="6.91138">
        <ele>554.6</ele>
        <time>2021-08-12T12:32:31Z</time>
      </trkpt>
      <trkpt lat="47.21887" lon="6.91137">
        <ele>554.6</ele>
        <time>2021-08-12T12:32:32Z</time>
      </trkpt>
      <trkpt lat="47.21899" lon="6.91116">
        <ele>554.7</ele>
        <time>2021-08-12T12:32:34Z</time>
      </trkpt>
      <trkpt lat="47.21895" lon="6.91116">
        <ele>554.7</ele>
        <time>2021-08-12T12:32:36Z</time>
      </trkpt>
      <trkpt lat="47.21897" lon="6.91108">
        <ele>554.7</ele>
        <time>2021-08-12T12:32:37Z</time>
      </trkpt>
      <trkpt lat="47.21898" lon="6.91102">
        <ele>554.6</ele>
        <time>2021-08-12T12:32:38Z</time>
      </trkpt>
      <trkpt lat="47.21903" lon="6.91086">
        <ele>554.5</ele>
        <time>2021-08-12T12:32:40Z</time>
      </trkpt>
      <trkpt lat="47.21908" lon="6.9107">
        <ele>554.4</ele>
        <time>2021-08-12T12:32:41Z</time>
      </trkpt>
      <trkpt lat="47.2191" lon="6.91044">
        <ele>554.2</ele>
        <time>2021-08-12T12:32:43Z</time>
      </trkpt>
      <trkpt lat="47.21909" lon="6.91036">
        <ele>554.2</ele>
        <time>2021-08-12T12:32:44Z</time>
      </trkpt>
      <trkpt lat="47.21906" lon="6.91025">
        <ele>554.2</ele>
        <time>2021-08-12T12:32:46Z</time>
      </trkpt>
      <trkpt lat="47.21905" lon="6.9102">
        <ele>554.3</ele>
        <time>2021-08-12T12:32:47Z</time>
      </trkpt>
      <trkpt lat="47.21904" lon="6.9101">
        <ele>554.3</ele>
        <time>2021-08-12T12:32:49Z</time>
      </trkpt>
      <trkpt lat="47.21902" lon="6.91002">
        <ele>554.4</ele>
        <time>2021-08-12T12:32:50Z</time>
      </trkpt>
      <trkpt lat="47.21901" lon="6.90992">
        <ele>554.6</ele>
        <time>2021-08-12T12:32:51Z</time>
      </trkpt>
      <trkpt lat="47.21902" lon="6.90986">
        <ele>554.7</ele>
        <time>2021-08-12T12:32:52Z</time>
      </trkpt>
      <trkpt lat="47.21901" lon="6.90981">
        <ele>554.8</ele>
        <time>2021-08-12T12:32:53Z</time>
      </trkpt>
      <trkpt lat="47.21897" lon="6.90975">
        <ele>554.9</ele>
        <time>2021-08-12T12:32:55Z</time>
      </trkpt>
      <trkpt lat="47.21895" lon="6.90973">
        <ele>554.9</ele>
        <time>2021-08-12T12:32:56Z</time>
      </trkpt>
      <trkpt lat="47.21891" lon="6.90971">
        <ele>555</ele>
        <time>2021-08-12T12:32:57Z</time>
      </trkpt>
      <trkpt lat="47.21889" lon="6.9097">
        <ele>555.1</ele>
        <time>2021-08-12T12:32:58Z</time>
      </trkpt>
      <trkpt lat="47.21884" lon="6.90964">
        <ele>555.2</ele>
        <time>2021-08-12T12:33:00Z</time>
      </trkpt>
      <trkpt lat="47.21882" lon="6.9096">
        <ele>555.3</ele>
        <time>2021-08-12T12:33:01Z</time>
      </trkpt>
      <trkpt lat="47.21878" lon="6.90954">
        <ele>555.4</ele>
        <time>2021-08-12T12:33:02Z</time>
      </trkpt>
      <trkpt lat="47.21874" lon="6.9095">
        <ele>555.5</ele>
        <time>2021-08-12T12:33:04Z</time>
      </trkpt>
      <trkpt lat="47.21871" lon="6.90944">
        <ele>555.7</ele>
        <time>2021-08-12T12:33:05Z</time>
      </trkpt>
      <trkpt lat="47.21868" lon="6.90939">
        <ele>555.8</ele>
        <time>2021-08-12T12:33:06Z</time>
      </trkpt>
      <trkpt lat="47.21865" lon="6.90934">
        <ele>556</ele>
        <time>2021-08-12T12:33:08Z</time>
      </trkpt>
      <trkpt lat="47.21864" lon="6.90927">
        <ele>556.1</ele>
        <time>2021-08-12T12:33:09Z</time>
      </trkpt>
      <trkpt lat="47.21864" lon="6.90922">
        <ele>556.2</ele>
        <time>2021-08-12T12:33:10Z</time>
      </trkpt>
      <trkpt lat="47.21862" lon="6.90918">
        <ele>556.3</ele>
        <time>2021-08-12T12:33:11Z</time>
      </trkpt>
      <trkpt lat="47.21863" lon="6.90911">
        <ele>556.4</ele>
        <time>2021-08-12T12:33:13Z</time>
      </trkpt>
      <trkpt lat="47.21864" lon="6.90904">
        <ele>556.5</ele>
        <time>2021-08-12T12:33:14Z</time>
      </trkpt>
      <trkpt lat="47.21865" lon="6.90895">
        <ele>556.6</ele>
        <time>2021-08-12T12:33:16Z</time>
      </trkpt>
      <trkpt lat="47.21865" lon="6.90889">
        <ele>556.7</ele>
        <time>2021-08-12T12:33:17Z</time>
      </trkpt>
      <trkpt lat="47.21863" lon="6.90886">
        <ele>556.7</ele>
        <time>2021-08-12T12:33:18Z</time>
      </trkpt>
      <trkpt lat="47.2186" lon="6.90882">
        <ele>556.7</ele>
        <time>2021-08-12T12:33:20Z</time>
      </trkpt>
      <trkpt lat="47.21858" lon="6.90878">
        <ele>556.8</ele>
        <time>2021-08-12T12:33:21Z</time>
      </trkpt>
      <trkpt lat="47.21855" lon="6.90873">
        <ele>556.8</ele>
        <time>2021-08-12T12:33:22Z</time>
      </trkpt>
      <trkpt lat="47.21853" lon="6.90867">
        <ele>556.8</ele>
        <time>2021-08-12T12:33:24Z</time>
      </trkpt>
      <trkpt lat="47.21852" lon="6.90863">
        <ele>556.9</ele>
        <time>2021-08-12T12:33:25Z</time>
      </trkpt>
      <trkpt lat="47.21847" lon="6.90858">
        <ele>556.9</ele>
        <time>2021-08-12T12:33:27Z</time>
      </trkpt>
      <trkpt lat="47.21843" lon="6.90856">
        <ele>556.9</ele>
        <time>2021-08-12T12:33:28Z</time>
      </trkpt>
      <trkpt lat="47.21836" lon="6.90852">
        <ele>556.9</ele>
        <time>2021-08-12T12:33:29Z</time>
      </trkpt>
      <trkpt lat="47.21832" lon="6.90847">
        <ele>556.8</ele>
        <time>2021-08-12T12:33:30Z</time>
      </trkpt>
      <trkpt lat="47.21826" lon="6.90839">
        <ele>556.8</ele>
        <time>2021-08-12T12:33:32Z</time>
      </trkpt>
      <trkpt lat="47.2182" lon="6.90832">
        <ele>556.7</ele>
        <time>2021-08-12T12:33:33Z</time>
      </trkpt>
      <trkpt lat="47.21816" lon="6.90827">
        <ele>556.7</ele>
        <time>2021-08-12T12:33:34Z</time>
      </trkpt>
      <trkpt lat="47.21813" lon="6.90822">
        <ele>556.6</ele>
        <time>2021-08-12T12:33:36Z</time>
      </trkpt>
      <trkpt lat="47.2181" lon="6.90816">
        <ele>556.6</ele>
        <time>2021-08-12T12:33:37Z</time>
      </trkpt>
      <trkpt lat="47.21806" lon="6.90809">
        <ele>556.5</ele>
        <time>2021-08-12T12:33:38Z</time>
      </trkpt>
      <trkpt lat="47.21802" lon="6.90803">
        <ele>556.4</ele>
        <time>2021-08-12T12:33:39Z</time>
      </trkpt>
      <trkpt lat="47.21799" lon="6.90797">
        <ele>556.4</ele>
        <time>2021-08-12T12:33:41Z</time>
      </trkpt>
      <trkpt lat="47.21794" lon="6.9079">
        <ele>556.3</ele>
        <time>2021-08-12T12:33:43Z</time>
      </trkpt>
      <trkpt lat="47.21789" lon="6.90786">
        <ele>556.2</ele>
        <time>2021-08-12T12:33:44Z</time>
      </trkpt>
      <trkpt lat="47.21783" lon="6.90779">
        <ele>556.1</ele>
        <time>2021-08-12T12:33:46Z</time>
      </trkpt>
      <trkpt lat="47.2178" lon="6.90775">
        <ele>556</ele>
        <time>2021-08-12T12:33:47Z</time>
      </trkpt>
      <trkpt lat="47.21774" lon="6.90771">
        <ele>556</ele>
        <time>2021-08-12T12:33:48Z</time>
      </trkpt>
      <trkpt lat="47.21769" lon="6.90768">
        <ele>555.9</ele>
        <time>2021-08-12T12:33:49Z</time>
      </trkpt>
      <trkpt lat="47.21765" lon="6.90767">
        <ele>556</ele>
        <time>2021-08-12T12:33:50Z</time>
      </trkpt>
      <trkpt lat="47.21761" lon="6.90768">
        <ele>556</ele>
        <time>2021-08-12T12:33:52Z</time>
      </trkpt>
      <trkpt lat="47.21759" lon="6.90768">
        <ele>556.1</ele>
        <time>2021-08-12T12:33:53Z</time>
      </trkpt>
      <trkpt lat="47.21758" lon="6.90768">
        <ele>556.1</ele>
        <time>2021-08-12T12:33:54Z</time>
      </trkpt>
      <trkpt lat="47.21757" lon="6.90768">
        <ele>556.1</ele>
        <time>2021-08-12T12:33:55Z</time>
      </trkpt>
      <trkpt lat="47.21755" lon="6.90765">
        <ele>556.2</ele>
        <time>2021-08-12T12:33:57Z</time>
      </trkpt>
      <trkpt lat="47.21752" lon="6.90762">
        <ele>556.3</ele>
        <time>2021-08-12T12:33:59Z</time>
      </trkpt>
      <trkpt lat="47.21749" lon="6.9076">
        <ele>556.4</ele>
        <time>2021-08-12T12:34:00Z</time>
      </trkpt>
      <trkpt lat="47.21747" lon="6.90757">
        <ele>556.5</ele>
        <time>2021-08-12T12:34:02Z</time>
      </trkpt>
      <trkpt lat="47.21744" lon="6.90754">
        <ele>556.6</ele>
        <time>2021-08-12T12:34:54Z</time>
      </trkpt>
      <trkpt lat="47.21742" lon="6.90751">
        <ele>556.7</ele>
        <time>2021-08-12T12:34:55Z</time>
      </trkpt>
      <trkpt lat="47.21739" lon="6.90746">
        <ele>556.7</ele>
        <time>2021-08-12T12:34:56Z</time>
      </trkpt>
      <trkpt lat="47.21735" lon="6.90743">
        <ele>556.8</ele>
        <time>2021-08-12T12:34:58Z</time>
      </trkpt>
      <trkpt lat="47.21732" lon="6.9074">
        <ele>556.8</ele>
        <time>2021-08-12T12:34:59Z</time>
      </trkpt>
      <trkpt lat="47.21729" lon="6.90737">
        <ele>556.8</ele>
        <time>2021-08-12T12:35:00Z</time>
      </trkpt>
      <trkpt lat="47.21724" lon="6.90732">
        <ele>556.8</ele>
        <time>2021-08-12T12:35:01Z</time>
      </trkpt>
      <trkpt lat="47.21721" lon="6.90728">
        <ele>556.8</ele>
        <time>2021-08-12T12:35:03Z</time>
      </trkpt>
      <trkpt lat="47.21717" lon="6.90722">
        <ele>556.8</ele>
        <time>2021-08-12T12:35:04Z</time>
      </trkpt>
      <trkpt lat="47.21714" lon="6.90718">
        <ele>556.7</ele>
        <time>2021-08-12T12:35:06Z</time>
      </trkpt>
      <trkpt lat="47.21709" lon="6.90717">
        <ele>556.6</ele>
        <time>2021-08-12T12:35:07Z</time>
      </trkpt>
      <trkpt lat="47.21707" lon="6.90714">
        <ele>556.5</ele>
        <time>2021-08-12T12:35:09Z</time>
      </trkpt>
      <trkpt lat="47.21705" lon="6.9071">
        <ele>556.4</ele>
        <time>2021-08-12T12:35:10Z</time>
      </trkpt>
      <trkpt lat="47.21703" lon="6.90704">
        <ele>556.3</ele>
        <time>2021-08-12T12:35:11Z</time>
      </trkpt>
      <trkpt lat="47.21701" lon="6.90698">
        <ele>556.1</ele>
        <time>2021-08-12T12:35:12Z</time>
      </trkpt>
      <trkpt lat="47.21699" lon="6.90691">
        <ele>555.9</ele>
        <time>2021-08-12T12:35:14Z</time>
      </trkpt>
      <trkpt lat="47.21696" lon="6.90686">
        <ele>555.6</ele>
        <time>2021-08-12T12:35:15Z</time>
      </trkpt>
      <trkpt lat="47.2169" lon="6.90678">
        <ele>555.3</ele>
        <time>2021-08-12T12:35:16Z</time>
      </trkpt>
      <trkpt lat="47.21683" lon="6.90672">
        <ele>555</ele>
        <time>2021-08-12T12:35:18Z</time>
      </trkpt>
      <trkpt lat="47.21683" lon="6.90667">
        <ele>554.9</ele>
        <time>2021-08-12T12:35:19Z</time>
      </trkpt>
      <trkpt lat="47.21678" lon="6.90664">
        <ele>554.9</ele>
        <time>2021-08-12T12:35:20Z</time>
      </trkpt>
      <trkpt lat="47.2167" lon="6.9066">
        <ele>554.9</ele>
        <time>2021-08-12T12:35:21Z</time>
      </trkpt>
      <trkpt lat="47.21664" lon="6.90656">
        <ele>555</ele>
        <time>2021-08-12T12:35:22Z</time>
      </trkpt>
      <trkpt lat="47.21659" lon="6.90654">
        <ele>555.2</ele>
        <time>2021-08-12T12:35:24Z</time>
      </trkpt>
      <trkpt lat="47.21654" lon="6.90654">
        <ele>555.4</ele>
        <time>2021-08-12T12:35:25Z</time>
      </trkpt>
      <trkpt lat="47.21649" lon="6.90653">
        <ele>555.5</ele>
        <time>2021-08-12T12:35:27Z</time>
      </trkpt>
      <trkpt lat="47.21647" lon="6.9065">
        <ele>555.6</ele>
        <time>2021-08-12T12:35:28Z</time>
      </trkpt>
      <trkpt lat="47.21643" lon="6.90646">
        <ele>555.8</ele>
        <time>2021-08-12T12:35:30Z</time>
      </trkpt>
      <trkpt lat="47.2164" lon="6.90643">
        <ele>555.9</ele>
        <time>2021-08-12T12:35:31Z</time>
      </trkpt>
      <trkpt lat="47.21637" lon="6.9064">
        <ele>556</ele>
        <time>2021-08-12T12:35:32Z</time>
      </trkpt>
      <trkpt lat="47.21634" lon="6.90638">
        <ele>556.1</ele>
        <time>2021-08-12T12:35:33Z</time>
      </trkpt>
      <trkpt lat="47.21632" lon="6.90635">
        <ele>556.2</ele>
        <time>2021-08-12T12:35:34Z</time>
      </trkpt>
      <trkpt lat="47.21629" lon="6.90633">
        <ele>556.3</ele>
        <time>2021-08-12T12:35:35Z</time>
      </trkpt>
      <trkpt lat="47.21626" lon="6.9063">
        <ele>556.4</ele>
        <time>2021-08-12T12:35:37Z</time>
      </trkpt>
      <trkpt lat="47.21625" lon="6.90629">
        <ele>556.4</ele>
        <time>2021-08-12T12:35:38Z</time>
      </trkpt>
      <trkpt lat="47.21622" lon="6.9063">
        <ele>556.5</ele>
        <time>2021-08-12T12:35:40Z</time>
      </trkpt>
      <trkpt lat="47.21621" lon="6.90632">
        <ele>556.5</ele>
        <time>2021-08-12T12:35:41Z</time>
      </trkpt>
      <trkpt lat="47.21617" lon="6.9063">
        <ele>556.6</ele>
        <time>2021-08-12T12:35:42Z</time>
      </trkpt>
      <trkpt lat="47.21615" lon="6.90627">
        <ele>556.6</ele>
        <time>2021-08-12T12:35:44Z</time>
      </trkpt>
      <trkpt lat="47.21614" lon="6.90623">
        <ele>556.7</ele>
        <time>2021-08-12T12:35:45Z</time>
      </trkpt>
      <trkpt lat="47.21612" lon="6.90618">
        <ele>556.8</ele>
        <time>2021-08-12T12:35:46Z</time>
      </trkpt>
      <trkpt lat="47.2161" lon="6.90615">
        <ele>556.8</ele>
        <time>2021-08-12T12:35:47Z</time>
      </trkpt>
      <trkpt lat="47.21607" lon="6.90611">
        <ele>556.9</ele>
        <time>2021-08-12T12:35:48Z</time>
      </trkpt>
      <trkpt lat="47.21603" lon="6.90608">
        <ele>557</ele>
        <time>2021-08-12T12:35:50Z</time>
      </trkpt>
      <trkpt lat="47.216" lon="6.90606">
        <ele>557</ele>
        <time>2021-08-12T12:35:51Z</time>
      </trkpt>
      <trkpt lat="47.21596" lon="6.90603">
        <ele>557</ele>
        <time>2021-08-12T12:35:52Z</time>
      </trkpt>
      <trkpt lat="47.21593" lon="6.90601">
        <ele>557</ele>
        <time>2021-08-12T12:35:53Z</time>
      </trkpt>
      <trkpt lat="47.2159" lon="6.90598">
        <ele>557</ele>
        <time>2021-08-12T12:35:55Z</time>
      </trkpt>
      <trkpt lat="47.21586" lon="6.90594">
        <ele>557</ele>
        <time>2021-08-12T12:35:57Z</time>
      </trkpt>
      <trkpt lat="47.21584" lon="6.90591">
        <ele>557</ele>
        <time>2021-08-12T12:35:58Z</time>
      </trkpt>
      <trkpt lat="47.2158" lon="6.90586">
        <ele>556.9</ele>
        <time>2021-08-12T12:35:59Z</time>
      </trkpt>
      <trkpt lat="47.21576" lon="6.90583">
        <ele>556.9</ele>
        <time>2021-08-12T12:36:01Z</time>
      </trkpt>
      <trkpt lat="47.21573" lon="6.90579">
        <ele>556.9</ele>
        <time>2021-08-12T12:36:02Z</time>
      </trkpt>
      <trkpt lat="47.2157" lon="6.90573">
        <ele>556.9</ele>
        <time>2021-08-12T12:36:04Z</time>
      </trkpt>
      <trkpt lat="47.21569" lon="6.90571">
        <ele>556.9</ele>
        <time>2021-08-12T12:36:05Z</time>
      </trkpt>
      <trkpt lat="47.21568" lon="6.9057">
        <ele>556.9</ele>
        <time>2021-08-12T12:36:06Z</time>
      </trkpt>
      <trkpt lat="47.21565" lon="6.90567">
        <ele>557</ele>
        <time>2021-08-12T12:36:07Z</time>
      </trkpt>
      <trkpt lat="47.2156" lon="6.90563">
        <ele>557</ele>
        <time>2021-08-12T12:36:09Z</time>
      </trkpt>
      <trkpt lat="47.21555" lon="6.90563">
        <ele>557.1</ele>
        <time>2021-08-12T12:36:10Z</time>
      </trkpt>
      <trkpt lat="47.21552" lon="6.90564">
        <ele>557.1</ele>
        <time>2021-08-12T12:36:11Z</time>
      </trkpt>
      <trkpt lat="47.21548" lon="6.90565">
        <ele>557.1</ele>
        <time>2021-08-12T12:36:12Z</time>
      </trkpt>
      <trkpt lat="47.21544" lon="6.90566">
        <ele>557.2</ele>
        <time>2021-08-12T12:36:14Z</time>
      </trkpt>
      <trkpt lat="47.21539" lon="6.90566">
        <ele>557.3</ele>
        <time>2021-08-12T12:36:15Z</time>
      </trkpt>
      <trkpt lat="47.21535" lon="6.90566">
        <ele>557.4</ele>
        <time>2021-08-12T12:36:16Z</time>
      </trkpt>
      <trkpt lat="47.21532" lon="6.90566">
        <ele>557.5</ele>
        <time>2021-08-12T12:36:18Z</time>
      </trkpt>
      <trkpt lat="47.2153" lon="6.90565">
        <ele>557.6</ele>
        <time>2021-08-12T12:36:19Z</time>
      </trkpt>
      <trkpt lat="47.21527" lon="6.90562">
        <ele>557.6</ele>
        <time>2021-08-12T12:36:20Z</time>
      </trkpt>
      <trkpt lat="47.21524" lon="6.9056">
        <ele>557.7</ele>
        <time>2021-08-12T12:36:21Z</time>
      </trkpt>
      <trkpt lat="47.21521" lon="6.90557">
        <ele>557.8</ele>
        <time>2021-08-12T12:36:22Z</time>
      </trkpt>
      <trkpt lat="47.21518" lon="6.90553">
        <ele>557.9</ele>
        <time>2021-08-12T12:36:24Z</time>
      </trkpt>
      <trkpt lat="47.21515" lon="6.9055">
        <ele>558</ele>
        <time>2021-08-12T12:36:25Z</time>
      </trkpt>
      <trkpt lat="47.21512" lon="6.90547">
        <ele>558.1</ele>
        <time>2021-08-12T12:36:26Z</time>
      </trkpt>
      <trkpt lat="47.21509" lon="6.90547">
        <ele>558.2</ele>
        <time>2021-08-12T12:36:27Z</time>
      </trkpt>
      <trkpt lat="47.21502" lon="6.90546">
        <ele>558.5</ele>
        <time>2021-08-12T12:36:29Z</time>
      </trkpt>
      <trkpt lat="47.21498" lon="6.90545">
        <ele>558.6</ele>
        <time>2021-08-12T12:36:31Z</time>
      </trkpt>
      <trkpt lat="47.21495" lon="6.90543">
        <ele>558.7</ele>
        <time>2021-08-12T12:36:32Z</time>
      </trkpt>
      <trkpt lat="47.21493" lon="6.90541">
        <ele>558.8</ele>
        <time>2021-08-12T12:36:33Z</time>
      </trkpt>
      <trkpt lat="47.21489" lon="6.90537">
        <ele>559</ele>
        <time>2021-08-12T12:36:34Z</time>
      </trkpt>
      <trkpt lat="47.21488" lon="6.90535">
        <ele>559</ele>
        <time>2021-08-12T12:36:35Z</time>
      </trkpt>
      <trkpt lat="47.21486" lon="6.90531">
        <ele>559.2</ele>
        <time>2021-08-12T12:36:36Z</time>
      </trkpt>
      <trkpt lat="47.21484" lon="6.90526">
        <ele>559.3</ele>
        <time>2021-08-12T12:36:37Z</time>
      </trkpt>
      <trkpt lat="47.21483" lon="6.90521">
        <ele>559.4</ele>
        <time>2021-08-12T12:36:39Z</time>
      </trkpt>
      <trkpt lat="47.21482" lon="6.90517">
        <ele>559.5</ele>
        <time>2021-08-12T12:36:40Z</time>
      </trkpt>
      <trkpt lat="47.2148" lon="6.90512">
        <ele>559.6</ele>
        <time>2021-08-12T12:36:41Z</time>
      </trkpt>
      <trkpt lat="47.2148" lon="6.9051">
        <ele>559.6</ele>
        <time>2021-08-12T12:36:42Z</time>
      </trkpt>
      <trkpt lat="47.21479" lon="6.90508">
        <ele>559.7</ele>
        <time>2021-08-12T12:36:43Z</time>
      </trkpt>
      <trkpt lat="47.21476" lon="6.90503">
        <ele>559.8</ele>
        <time>2021-08-12T12:36:44Z</time>
      </trkpt>
      <trkpt lat="47.21474" lon="6.90498">
        <ele>559.8</ele>
        <time>2021-08-12T12:36:46Z</time>
      </trkpt>
      <trkpt lat="47.21473" lon="6.90494">
        <ele>559.9</ele>
        <time>2021-08-12T12:36:47Z</time>
      </trkpt>
      <trkpt lat="47.21471" lon="6.9049">
        <ele>559.9</ele>
        <time>2021-08-12T12:36:48Z</time>
      </trkpt>
      <trkpt lat="47.21469" lon="6.90487">
        <ele>559.9</ele>
        <time>2021-08-12T12:36:49Z</time>
      </trkpt>
      <trkpt lat="47.21467" lon="6.90484">
        <ele>559.9</ele>
        <time>2021-08-12T12:36:50Z</time>
      </trkpt>
      <trkpt lat="47.21465" lon="6.90479">
        <ele>559.9</ele>
        <time>2021-08-12T12:36:52Z</time>
      </trkpt>
      <trkpt lat="47.21463" lon="6.90474">
        <ele>560</ele>
        <time>2021-08-12T12:36:53Z</time>
      </trkpt>
      <trkpt lat="47.21461" lon="6.90472">
        <ele>560</ele>
        <time>2021-08-12T12:36:54Z</time>
      </trkpt>
      <trkpt lat="47.21457" lon="6.90469">
        <ele>560</ele>
        <time>2021-08-12T12:36:55Z</time>
      </trkpt>
      <trkpt lat="47.21454" lon="6.90467">
        <ele>560</ele>
        <time>2021-08-12T12:36:57Z</time>
      </trkpt>
      <trkpt lat="47.21449" lon="6.90464">
        <ele>560</ele>
        <time>2021-08-12T12:36:59Z</time>
      </trkpt>
      <trkpt lat="47.21448" lon="6.90463">
        <ele>560.1</ele>
        <time>2021-08-12T12:37:00Z</time>
      </trkpt>
      <trkpt lat="47.21444" lon="6.90462">
        <ele>560.2</ele>
        <time>2021-08-12T12:37:02Z</time>
      </trkpt>
      <trkpt lat="47.2144" lon="6.90466">
        <ele>560.5</ele>
        <time>2021-08-12T12:37:03Z</time>
      </trkpt>
      <trkpt lat="47.21439" lon="6.90466">
        <ele>560.5</ele>
        <time>2021-08-12T12:37:05Z</time>
      </trkpt>
      <trkpt lat="47.21439" lon="6.90466">
        <ele>560.5</ele>
        <time>2021-08-12T12:37:06Z</time>
      </trkpt>
      <trkpt lat="47.21439" lon="6.90465">
        <ele>560.6</ele>
        <time>2021-08-12T12:37:07Z</time>
      </trkpt>
      <trkpt lat="47.21439" lon="6.90465">
        <ele>560.6</ele>
        <time>2021-08-12T12:37:09Z</time>
      </trkpt>
      <trkpt lat="47.21439" lon="6.90464">
        <ele>560.6</ele>
        <time>2021-08-12T12:37:10Z</time>
      </trkpt>
      <trkpt lat="47.21426" lon="6.9045">
        <ele>561.7</ele>
        <time>2021-08-12T12:37:54Z</time>
      </trkpt>
      <trkpt lat="47.21424" lon="6.9045">
        <ele>561.9</ele>
        <time>2021-08-12T12:37:55Z</time>
      </trkpt>
      <trkpt lat="47.21424" lon="6.90449">
        <ele>561.9</ele>
        <time>2021-08-12T12:37:57Z</time>
      </trkpt>
      <trkpt lat="47.21423" lon="6.90448">
        <ele>562</ele>
        <time>2021-08-12T12:37:58Z</time>
      </trkpt>
      <trkpt lat="47.21423" lon="6.90445">
        <ele>562.2</ele>
        <time>2021-08-12T12:37:59Z</time>
      </trkpt>
      <trkpt lat="47.21424" lon="6.90442">
        <ele>562.4</ele>
        <time>2021-08-12T12:38:01Z</time>
      </trkpt>
      <trkpt lat="47.21424" lon="6.9044">
        <ele>562.6</ele>
        <time>2021-08-12T12:38:02Z</time>
      </trkpt>
      <trkpt lat="47.21425" lon="6.90435">
        <ele>562.9</ele>
        <time>2021-08-12T12:38:04Z</time>
      </trkpt>
      <trkpt lat="47.21424" lon="6.90434">
        <ele>563</ele>
        <time>2021-08-12T12:38:06Z</time>
      </trkpt>
      <trkpt lat="47.21423" lon="6.90434">
        <ele>563.1</ele>
        <time>2021-08-12T12:38:07Z</time>
      </trkpt>
      <trkpt lat="47.21423" lon="6.90434">
        <ele>563.2</ele>
        <time>2021-08-12T12:38:08Z</time>
      </trkpt>
      <trkpt lat="47.21422" lon="6.90433">
        <ele>563.3</ele>
        <time>2021-08-12T12:38:09Z</time>
      </trkpt>
      <trkpt lat="47.21421" lon="6.90427">
        <ele>563.7</ele>
        <time>2021-08-12T12:38:10Z</time>
      </trkpt>
      <trkpt lat="47.2142" lon="6.90423">
        <ele>564.1</ele>
        <time>2021-08-12T12:38:12Z</time>
      </trkpt>
      <trkpt lat="47.21418" lon="6.90419">
        <ele>564.4</ele>
        <time>2021-08-12T12:38:14Z</time>
      </trkpt>
      <trkpt lat="47.21417" lon="6.90416">
        <ele>564.7</ele>
        <time>2021-08-12T12:38:15Z</time>
      </trkpt>
      <trkpt lat="47.21416" lon="6.90412">
        <ele>565.1</ele>
        <time>2021-08-12T12:38:17Z</time>
      </trkpt>
      <trkpt lat="47.21415" lon="6.90408">
        <ele>565.4</ele>
        <time>2021-08-12T12:38:18Z</time>
      </trkpt>
      <trkpt lat="47.21414" lon="6.90404">
        <ele>565.8</ele>
        <time>2021-08-12T12:38:20Z</time>
      </trkpt>
      <trkpt lat="47.21412" lon="6.904">
        <ele>566.1</ele>
        <time>2021-08-12T12:38:21Z</time>
      </trkpt>
      <trkpt lat="47.21411" lon="6.90396">
        <ele>566.5</ele>
        <time>2021-08-12T12:38:23Z</time>
      </trkpt>
      <trkpt lat="47.2141" lon="6.90392">
        <ele>566.8</ele>
        <time>2021-08-12T12:38:24Z</time>
      </trkpt>
      <trkpt lat="47.21409" lon="6.90388">
        <ele>567.1</ele>
        <time>2021-08-12T12:39:14Z</time>
      </trkpt>
      <trkpt lat="47.21408" lon="6.90384">
        <ele>567.4</ele>
        <time>2021-08-12T12:39:15Z</time>
      </trkpt>
      <trkpt lat="47.21406" lon="6.9038">
        <ele>567.6</ele>
        <time>2021-08-12T12:39:17Z</time>
      </trkpt>
      <trkpt lat="47.21405" lon="6.90376">
        <ele>567.9</ele>
        <time>2021-08-12T12:39:18Z</time>
      </trkpt>
      <trkpt lat="47.21404" lon="6.90372">
        <ele>568.1</ele>
        <time>2021-08-12T12:39:20Z</time>
      </trkpt>
      <trkpt lat="47.21403" lon="6.90368">
        <ele>568.3</ele>
        <time>2021-08-12T12:39:21Z</time>
      </trkpt>
      <trkpt lat="47.21402" lon="6.90364">
        <ele>568.6</ele>
        <time>2021-08-12T12:39:23Z</time>
      </trkpt>
      <trkpt lat="47.21401" lon="6.9036">
        <ele>568.8</ele>
        <time>2021-08-12T12:39:24Z</time>
      </trkpt>
      <trkpt lat="47.21397" lon="6.90361">
        <ele>569</ele>
        <time>2021-08-12T12:39:26Z</time>
      </trkpt>
      <trkpt lat="47.21396" lon="6.90361">
        <ele>569.1</ele>
        <time>2021-08-12T12:39:27Z</time>
      </trkpt>
      <trkpt lat="47.21394" lon="6.90361">
        <ele>569.2</ele>
        <time>2021-08-12T12:39:28Z</time>
      </trkpt>
      <trkpt lat="47.21393" lon="6.90361">
        <ele>569.3</ele>
        <time>2021-08-12T12:39:30Z</time>
      </trkpt>
      <trkpt lat="47.21392" lon="6.9036">
        <ele>569.3</ele>
        <time>2021-08-12T12:39:31Z</time>
      </trkpt>
      <trkpt lat="47.21391" lon="6.90358">
        <ele>569.5</ele>
        <time>2021-08-12T12:39:33Z</time>
      </trkpt>
      <trkpt lat="47.21391" lon="6.90357">
        <ele>569.5</ele>
        <time>2021-08-12T12:39:34Z</time>
      </trkpt>
      <trkpt lat="47.2139" lon="6.90356">
        <ele>569.6</ele>
        <time>2021-08-12T12:39:37Z</time>
      </trkpt>
      <trkpt lat="47.2139" lon="6.90355">
        <ele>569.7</ele>
        <time>2021-08-12T12:39:38Z</time>
      </trkpt>
      <trkpt lat="47.2139" lon="6.90354">
        <ele>569.7</ele>
        <time>2021-08-12T12:39:39Z</time>
      </trkpt>
      <trkpt lat="47.2139" lon="6.90353">
        <ele>569.8</ele>
        <time>2021-08-12T12:39:40Z</time>
      </trkpt>
      <trkpt lat="47.2139" lon="6.90351">
        <ele>569.9</ele>
        <time>2021-08-12T12:39:42Z</time>
      </trkpt>
      <trkpt lat="47.21391" lon="6.90349">
        <ele>570</ele>
        <time>2021-08-12T12:39:43Z</time>
      </trkpt>
      <trkpt lat="47.21392" lon="6.90341">
        <ele>570.5</ele>
        <time>2021-08-12T12:39:45Z</time>
      </trkpt>
      <trkpt lat="47.21394" lon="6.90337">
        <ele>570.8</ele>
        <time>2021-08-12T12:39:46Z</time>
      </trkpt>
      <trkpt lat="47.21396" lon="6.90335">
        <ele>571</ele>
        <time>2021-08-12T12:39:47Z</time>
      </trkpt>
      <trkpt lat="47.214" lon="6.90328">
        <ele>571.6</ele>
        <time>2021-08-12T12:39:49Z</time>
      </trkpt>
      <trkpt lat="47.21401" lon="6.90327">
        <ele>571.7</ele>
        <time>2021-08-12T12:39:50Z</time>
      </trkpt>
      <trkpt lat="47.21401" lon="6.90327">
        <ele>571.7</ele>
        <time>2021-08-12T12:39:52Z</time>
      </trkpt>
      <trkpt lat="47.21401" lon="6.90327">
        <ele>571.8</ele>
        <time>2021-08-12T12:39:53Z</time>
      </trkpt>
      <trkpt lat="47.21401" lon="6.90326">
        <ele>571.8</ele>
        <time>2021-08-12T12:39:55Z</time>
      </trkpt>
      <trkpt lat="47.21401" lon="6.90326">
        <ele>571.8</ele>
        <time>2021-08-12T12:39:56Z</time>
      </trkpt>
      <trkpt lat="47.21402" lon="6.90225">
        <ele>579.1</ele>
        <time>2021-08-12T12:42:08Z</time>
      </trkpt>
      <trkpt lat="47.214" lon="6.90223">
        <ele>579.4</ele>
        <time>2021-08-12T12:42:10Z</time>
      </trkpt>
      <trkpt lat="47.21399" lon="6.90223">
        <ele>579.5</ele>
        <time>2021-08-12T12:42:11Z</time>
      </trkpt>
      <trkpt lat="47.21397" lon="6.90225">
        <ele>579.7</ele>
        <time>2021-08-12T12:42:13Z</time>
      </trkpt>
      <trkpt lat="47.21396" lon="6.90226">
        <ele>579.9</ele>
        <time>2021-08-12T12:42:15Z</time>
      </trkpt>
      <trkpt lat="47.21395" lon="6.90227">
        <ele>580</ele>
        <time>2021-08-12T12:42:16Z</time>
      </trkpt>
      <trkpt lat="47.21395" lon="6.90227">
        <ele>580</ele>
        <time>2021-08-12T12:42:17Z</time>
      </trkpt>
      <trkpt lat="47.21394" lon="6.90228">
        <ele>580.1</ele>
        <time>2021-08-12T12:42:18Z</time>
      </trkpt>
      <trkpt lat="47.21393" lon="6.90231">
        <ele>580.4</ele>
        <time>2021-08-12T12:42:20Z</time>
      </trkpt>
      <trkpt lat="47.2139" lon="6.90233">
        <ele>580.8</ele>
        <time>2021-08-12T12:42:22Z</time>
      </trkpt>
      <trkpt lat="47.21387" lon="6.90233">
        <ele>581.1</ele>
        <time>2021-08-12T12:42:24Z</time>
      </trkpt>
      <trkpt lat="47.21385" lon="6.90234">
        <ele>581.4</ele>
        <time>2021-08-12T12:42:25Z</time>
      </trkpt>
      <trkpt lat="47.21382" lon="6.90234">
        <ele>581.7</ele>
        <time>2021-08-12T12:42:26Z</time>
      </trkpt>
      <trkpt lat="47.21368" lon="6.90239">
        <ele>583.6</ele>
        <time>2021-08-12T12:42:28Z</time>
      </trkpt>
      <trkpt lat="47.21365" lon="6.9024">
        <ele>584</ele>
        <time>2021-08-12T12:42:29Z</time>
      </trkpt>
      <trkpt lat="47.21363" lon="6.90242">
        <ele>584.2</ele>
        <time>2021-08-12T12:42:31Z</time>
      </trkpt>
      <trkpt lat="47.21363" lon="6.90242">
        <ele>584.3</ele>
        <time>2021-08-12T12:42:32Z</time>
      </trkpt>
      <trkpt lat="47.2136" lon="6.90247">
        <ele>584.8</ele>
        <time>2021-08-12T12:42:34Z</time>
      </trkpt>
      <trkpt lat="47.2136" lon="6.90248">
        <ele>584.9</ele>
        <time>2021-08-12T12:42:35Z</time>
      </trkpt>
      <trkpt lat="47.21361" lon="6.90248">
        <ele>585</ele>
        <time>2021-08-12T12:42:37Z</time>
      </trkpt>
      <trkpt lat="47.21361" lon="6.90248">
        <ele>585.1</ele>
        <time>2021-08-12T12:42:38Z</time>
      </trkpt>
      <trkpt lat="47.21361" lon="6.90248">
        <ele>585.1</ele>
        <time>2021-08-12T12:42:40Z</time>
      </trkpt>
      <trkpt lat="47.21364" lon="6.90248">
        <ele>585.4</ele>
        <time>2021-08-12T12:42:41Z</time>
      </trkpt>
      <trkpt lat="47.21367" lon="6.90249">
        <ele>585.8</ele>
        <time>2021-08-12T12:42:43Z</time>
      </trkpt>
      <trkpt lat="47.2137" lon="6.9025">
        <ele>586.3</ele>
        <time>2021-08-12T12:42:45Z</time>
      </trkpt>
      <trkpt lat="47.21371" lon="6.9025">
        <ele>586.4</ele>
        <time>2021-08-12T12:42:46Z</time>
      </trkpt>
      <trkpt lat="47.21371" lon="6.90252">
        <ele>586.5</ele>
        <time>2021-08-12T12:42:48Z</time>
      </trkpt>
      <trkpt lat="47.21371" lon="6.90252">
        <ele>586.6</ele>
        <time>2021-08-12T12:42:49Z</time>
      </trkpt>
      <trkpt lat="47.21371" lon="6.90252">
        <ele>586.6</ele>
        <time>2021-08-12T12:42:50Z</time>
      </trkpt>
      <trkpt lat="47.2137" lon="6.90253">
        <ele>586.8</ele>
        <time>2021-08-12T12:42:52Z</time>
      </trkpt>
      <trkpt lat="47.21371" lon="6.90255">
        <ele>586.9</ele>
        <time>2021-08-12T12:42:53Z</time>
      </trkpt>
      <trkpt lat="47.21371" lon="6.90254">
        <ele>587.1</ele>
        <time>2021-08-12T12:42:55Z</time>
      </trkpt>
      <trkpt lat="47.21372" lon="6.90252">
        <ele>587.3</ele>
        <time>2021-08-12T12:42:56Z</time>
      </trkpt>
      <trkpt lat="47.21373" lon="6.90249">
        <ele>587.5</ele>
        <time>2021-08-12T12:42:58Z</time>
      </trkpt>
      <trkpt lat="47.21373" lon="6.90248">
        <ele>587.6</ele>
        <time>2021-08-12T12:42:59Z</time>
      </trkpt>
      <trkpt lat="47.21373" lon="6.90248">
        <ele>587.6</ele>
        <time>2021-08-12T12:43:01Z</time>
      </trkpt>
      <trkpt lat="47.21373" lon="6.90248">
        <ele>587.6</ele>
        <time>2021-08-12T12:43:02Z</time>
      </trkpt>
      <trkpt lat="47.21373" lon="6.90248">
        <ele>587.6</ele>
        <time>2021-08-12T12:43:03Z</time>
      </trkpt>
      <trkpt lat="47.21373" lon="6.90248">
        <ele>587.6</ele>
        <time>2021-08-12T12:43:05Z</time>
      </trkpt>
      <trkpt lat="47.21373" lon="6.90248">
        <ele>587.7</ele>
        <time>2021-08-12T12:43:07Z</time>
      </trkpt>
      <trkpt lat="47.21374" lon="6.90245">
        <ele>588</ele>
        <time>2021-08-12T12:43:08Z</time>
      </trkpt>
      <trkpt lat="47.21376" lon="6.90241">
        <ele>588.4</ele>
        <time>2021-08-12T12:43:09Z</time>
      </trkpt>
      <trkpt lat="47.21378" lon="6.90235">
        <ele>588.8</ele>
        <time>2021-08-12T12:43:11Z</time>
      </trkpt>
      <trkpt lat="47.2138" lon="6.90228">
        <ele>589.4</ele>
        <time>2021-08-12T12:43:12Z</time>
      </trkpt>
      <trkpt lat="47.21382" lon="6.90222">
        <ele>589.9</ele>
        <time>2021-08-12T12:43:13Z</time>
      </trkpt>
      <trkpt lat="47.21385" lon="6.90216">
        <ele>590.4</ele>
        <time>2021-08-12T12:43:15Z</time>
      </trkpt>
      <trkpt lat="47.21386" lon="6.9021">
        <ele>590.9</ele>
        <time>2021-08-12T12:43:16Z</time>
      </trkpt>
      <trkpt lat="47.21386" lon="6.90208">
        <ele>591</ele>
        <time>2021-08-12T12:43:17Z</time>
      </trkpt>
      <trkpt lat="47.21386" lon="6.90206">
        <ele>591.1</ele>
        <time>2021-08-12T12:43:19Z</time>
      </trkpt>
      <trkpt lat="47.21386" lon="6.90205">
        <ele>591.2</ele>
        <time>2021-08-12T12:43:20Z</time>
      </trkpt>
      <trkpt lat="47.21386" lon="6.90204">
        <ele>591.2</ele>
        <time>2021-08-12T12:43:22Z</time>
      </trkpt>
      <trkpt lat="47.21386" lon="6.90204">
        <ele>591.3</ele>
        <time>2021-08-12T12:43:23Z</time>
      </trkpt>
      <trkpt lat="47.21386" lon="6.90203">
        <ele>591.3</ele>
        <time>2021-08-12T12:43:24Z</time>
      </trkpt>
      <trkpt lat="47.21386" lon="6.90203">
        <ele>591.3</ele>
        <time>2021-08-12T12:43:26Z</time>
      </trkpt>
      <trkpt lat="47.21386" lon="6.90203">
        <ele>591.3</ele>
        <time>2021-08-12T12:43:27Z</time>
      </trkpt>
      <trkpt lat="47.21386" lon="6.90203">
        <ele>591.3</ele>
        <time>2021-08-12T12:43:29Z</time>
      </trkpt>
      <trkpt lat="47.21386" lon="6.90203">
        <ele>591.4</ele>
        <time>2021-08-12T12:43:31Z</time>
      </trkpt>
      <trkpt lat="47.21386" lon="6.90203">
        <ele>591.4</ele>
        <time>2021-08-12T12:43:32Z</time>
      </trkpt>
      <trkpt lat="47.21386" lon="6.90202">
        <ele>591.4</ele>
        <time>2021-08-12T12:43:34Z</time>
      </trkpt>
      <trkpt lat="47.21385" lon="6.90198">
        <ele>591.7</ele>
        <time>2021-08-12T12:43:36Z</time>
      </trkpt>
      <trkpt lat="47.21385" lon="6.90197">
        <ele>591.8</ele>
        <time>2021-08-12T12:43:37Z</time>
      </trkpt>
      <trkpt lat="47.21384" lon="6.90195">
        <ele>591.9</ele>
        <time>2021-08-12T12:43:38Z</time>
      </trkpt>
      <trkpt lat="47.21384" lon="6.90193">
        <ele>592</ele>
        <time>2021-08-12T12:43:40Z</time>
      </trkpt>
      <trkpt lat="47.21384" lon="6.90191">
        <ele>592.2</ele>
        <time>2021-08-12T12:43:41Z</time>
      </trkpt>
      <trkpt lat="47.21384" lon="6.9019">
        <ele>592.3</ele>
        <time>2021-08-12T12:43:43Z</time>
      </trkpt>
      <trkpt lat="47.21383" lon="6.9019">
        <ele>592.3</ele>
        <time>2021-08-12T12:43:44Z</time>
      </trkpt>
      <trkpt lat="47.21382" lon="6.90189">
        <ele>592.5</ele>
        <time>2021-08-12T12:43:46Z</time>
      </trkpt>
      <trkpt lat="47.2138" lon="6.90189">
        <ele>592.7</ele>
        <time>2021-08-12T12:43:48Z</time>
      </trkpt>
      <trkpt lat="47.21379" lon="6.9019">
        <ele>592.8</ele>
        <time>2021-08-12T12:43:50Z</time>
      </trkpt>
      <trkpt lat="47.21378" lon="6.9019">
        <ele>592.8</ele>
        <time>2021-08-12T12:43:51Z</time>
      </trkpt>
      <trkpt lat="47.21378" lon="6.9019">
        <ele>592.9</ele>
        <time>2021-08-12T12:43:52Z</time>
      </trkpt>
      <trkpt lat="47.21377" lon="6.90191">
        <ele>593</ele>
        <time>2021-08-12T12:43:54Z</time>
      </trkpt>
      <trkpt lat="47.21377" lon="6.90191">
        <ele>593</ele>
        <time>2021-08-12T12:43:55Z</time>
      </trkpt>
      <trkpt lat="47.21377" lon="6.90191">
        <ele>593</ele>
        <time>2021-08-12T12:43:56Z</time>
      </trkpt>
      <trkpt lat="47.21376" lon="6.90191">
        <ele>593.1</ele>
        <time>2021-08-12T12:43:58Z</time>
      </trkpt>
      <trkpt lat="47.21376" lon="6.90191">
        <ele>593.1</ele>
        <time>2021-08-12T12:44:00Z</time>
      </trkpt>
      <trkpt lat="47.21376" lon="6.90191">
        <ele>593.1</ele>
        <time>2021-08-12T12:44:01Z</time>
      </trkpt>
      <trkpt lat="47.21375" lon="6.90192">
        <ele>593.1</ele>
        <time>2021-08-12T12:44:02Z</time>
      </trkpt>
      <trkpt lat="47.21375" lon="6.90192">
        <ele>593.2</ele>
        <time>2021-08-12T12:44:04Z</time>
      </trkpt>
      <trkpt lat="47.21374" lon="6.90191">
        <ele>593.3</ele>
        <time>2021-08-12T12:44:05Z</time>
      </trkpt>
      <trkpt lat="47.21373" lon="6.90188">
        <ele>593.3</ele>
        <time>2021-08-12T12:44:06Z</time>
      </trkpt>
      <trkpt lat="47.21366" lon="6.90166">
        <ele>592.5</ele>
        <time>2021-08-12T12:44:08Z</time>
      </trkpt>
      <trkpt lat="47.21355" lon="6.90146">
        <ele>591.7</ele>
        <time>2021-08-12T12:44:10Z</time>
      </trkpt>
      <trkpt lat="47.21352" lon="6.90142">
        <ele>591.6</ele>
        <time>2021-08-12T12:44:11Z</time>
      </trkpt>
      <trkpt lat="47.2135" lon="6.90139">
        <ele>591.5</ele>
        <time>2021-08-12T12:44:12Z</time>
      </trkpt>
      <trkpt lat="47.21346" lon="6.90129">
        <ele>591.3</ele>
        <time>2021-08-12T12:44:14Z</time>
      </trkpt>
      <trkpt lat="47.21339" lon="6.9012">
        <ele>591.2</ele>
        <time>2021-08-12T12:44:16Z</time>
      </trkpt>
      <trkpt lat="47.21332" lon="6.90114">
        <ele>591.2</ele>
        <time>2021-08-12T12:44:17Z</time>
      </trkpt>
      <trkpt lat="47.21327" lon="6.9011">
        <ele>591.2</ele>
        <time>2021-08-12T12:44:19Z</time>
      </trkpt>
      <trkpt lat="47.21324" lon="6.90106">
        <ele>591.1</ele>
        <time>2021-08-12T12:44:20Z</time>
      </trkpt>
      <trkpt lat="47.2132" lon="6.90101">
        <ele>591</ele>
        <time>2021-08-12T12:44:21Z</time>
      </trkpt>
      <trkpt lat="47.21317" lon="6.90097">
        <ele>590.9</ele>
        <time>2021-08-12T12:44:22Z</time>
      </trkpt>
      <trkpt lat="47.21313" lon="6.90094">
        <ele>590.7</ele>
        <time>2021-08-12T12:44:23Z</time>
      </trkpt>
      <trkpt lat="47.21307" lon="6.90089">
        <ele>590.4</ele>
        <time>2021-08-12T12:44:25Z</time>
      </trkpt>
      <trkpt lat="47.21302" lon="6.9008">
        <ele>589.9</ele>
        <time>2021-08-12T12:44:26Z</time>
      </trkpt>
      <trkpt lat="47.21296" lon="6.90068">
        <ele>589.1</ele>
        <time>2021-08-12T12:44:28Z</time>
      </trkpt>
      <trkpt lat="47.21291" lon="6.90062">
        <ele>588.6</ele>
        <time>2021-08-12T12:44:29Z</time>
      </trkpt>
      <trkpt lat="47.2128" lon="6.90051">
        <ele>587.3</ele>
        <time>2021-08-12T12:44:31Z</time>
      </trkpt>
      <trkpt lat="47.21274" lon="6.90047">
        <ele>586.7</ele>
        <time>2021-08-12T12:44:32Z</time>
      </trkpt>
      <trkpt lat="47.21268" lon="6.90044">
        <ele>586.1</ele>
        <time>2021-08-12T12:44:33Z</time>
      </trkpt>
      <trkpt lat="47.21257" lon="6.90035">
        <ele>585.1</ele>
        <time>2021-08-12T12:44:35Z</time>
      </trkpt>
      <trkpt lat="47.21246" lon="6.90027">
        <ele>584.2</ele>
        <time>2021-08-12T12:44:37Z</time>
      </trkpt>
      <trkpt lat="47.21241" lon="6.90025">
        <ele>584</ele>
        <time>2021-08-12T12:44:38Z</time>
      </trkpt>
      <trkpt lat="47.21234" lon="6.90025">
        <ele>583.9</ele>
        <time>2021-08-12T12:44:40Z</time>
      </trkpt>
      <trkpt lat="47.21235" lon="6.90024">
        <ele>583.9</ele>
        <time>2021-08-12T12:44:41Z</time>
      </trkpt>
      <trkpt lat="47.21235" lon="6.90023">
        <ele>584</ele>
        <time>2021-08-12T12:44:42Z</time>
      </trkpt>
      <trkpt lat="47.21234" lon="6.90023">
        <ele>584</ele>
        <time>2021-08-12T12:44:44Z</time>
      </trkpt>
      <trkpt lat="47.21234" lon="6.90024">
        <ele>584</ele>
        <time>2021-08-12T12:44:45Z</time>
      </trkpt>
      <trkpt lat="47.21234" lon="6.90023">
        <ele>584</ele>
        <time>2021-08-12T12:44:47Z</time>
      </trkpt>
      <trkpt lat="47.21234" lon="6.90022">
        <ele>584.1</ele>
        <time>2021-08-12T12:44:48Z</time>
      </trkpt>
      <trkpt lat="47.21236" lon="6.90016">
        <ele>584.4</ele>
        <time>2021-08-12T12:44:50Z</time>
      </trkpt>
      <trkpt lat="47.21244" lon="6.89928">
        <ele>590.1</ele>
        <time>2021-08-12T12:45:47Z</time>
      </trkpt>
      <trkpt lat="47.21243" lon="6.89924">
        <ele>590.2</ele>
        <time>2021-08-12T12:45:48Z</time>
      </trkpt>
      <trkpt lat="47.21241" lon="6.89918">
        <ele>590.3</ele>
        <time>2021-08-12T12:45:50Z</time>
      </trkpt>
      <trkpt lat="47.2124" lon="6.89912">
        <ele>590.4</ele>
        <time>2021-08-12T12:45:51Z</time>
      </trkpt>
      <trkpt lat="47.2124" lon="6.89909">
        <ele>590.5</ele>
        <time>2021-08-12T12:45:52Z</time>
      </trkpt>
      <trkpt lat="47.2124" lon="6.89906">
        <ele>590.6</ele>
        <time>2021-08-12T12:45:54Z</time>
      </trkpt>
      <trkpt lat="47.2124" lon="6.89901">
        <ele>590.8</ele>
        <time>2021-08-12T12:45:55Z</time>
      </trkpt>
      <trkpt lat="47.2124" lon="6.899">
        <ele>590.8</ele>
        <time>2021-08-12T12:45:56Z</time>
      </trkpt>
      <trkpt lat="47.21241" lon="6.89897">
        <ele>590.9</ele>
        <time>2021-08-12T12:45:57Z</time>
      </trkpt>
      <trkpt lat="47.21241" lon="6.89895">
        <ele>591</ele>
        <time>2021-08-12T12:45:59Z</time>
      </trkpt>
      <trkpt lat="47.21238" lon="6.89892">
        <ele>591.3</ele>
        <time>2021-08-12T12:46:00Z</time>
      </trkpt>
      <trkpt lat="47.21237" lon="6.8989">
        <ele>591.4</ele>
        <time>2021-08-12T12:46:02Z</time>
      </trkpt>
      <trkpt lat="47.21236" lon="6.89889">
        <ele>591.5</ele>
        <time>2021-08-12T12:46:03Z</time>
      </trkpt>
      <trkpt lat="47.21235" lon="6.89889">
        <ele>591.6</ele>
        <time>2021-08-12T12:46:05Z</time>
      </trkpt>
      <trkpt lat="47.21234" lon="6.8989">
        <ele>591.6</ele>
        <time>2021-08-12T12:46:06Z</time>
      </trkpt>
      <trkpt lat="47.21234" lon="6.89889">
        <ele>591.6</ele>
        <time>2021-08-12T12:46:08Z</time>
      </trkpt>
      <trkpt lat="47.21234" lon="6.89889">
        <ele>591.7</ele>
        <time>2021-08-12T12:46:10Z</time>
      </trkpt>
      <trkpt lat="47.21234" lon="6.89888">
        <ele>591.7</ele>
        <time>2021-08-12T12:46:11Z</time>
      </trkpt>
      <trkpt lat="47.21234" lon="6.89888">
        <ele>591.7</ele>
        <time>2021-08-12T12:46:13Z</time>
      </trkpt>
      <trkpt lat="47.21233" lon="6.89888">
        <ele>591.7</ele>
        <time>2021-08-12T12:46:14Z</time>
      </trkpt>
      <trkpt lat="47.21202" lon="6.89845">
        <ele>596.2</ele>
        <time>2021-08-12T12:47:03Z</time>
      </trkpt>
      <trkpt lat="47.21201" lon="6.89842">
        <ele>596.4</ele>
        <time>2021-08-12T12:47:05Z</time>
      </trkpt>
      <trkpt lat="47.21201" lon="6.8984">
        <ele>596.5</ele>
        <time>2021-08-12T12:47:06Z</time>
      </trkpt>
      <trkpt lat="47.212" lon="6.89837">
        <ele>596.6</ele>
        <time>2021-08-12T12:47:07Z</time>
      </trkpt>
      <trkpt lat="47.212" lon="6.89835">
        <ele>596.7</ele>
        <time>2021-08-12T12:47:09Z</time>
      </trkpt>
      <trkpt lat="47.212" lon="6.89833">
        <ele>596.7</ele>
        <time>2021-08-12T12:47:10Z</time>
      </trkpt>
      <trkpt lat="47.212" lon="6.89832">
        <ele>596.8</ele>
        <time>2021-08-12T12:47:11Z</time>
      </trkpt>
      <trkpt lat="47.21199" lon="6.8983">
        <ele>596.8</ele>
        <time>2021-08-12T12:47:12Z</time>
      </trkpt>
      <trkpt lat="47.21197" lon="6.89827">
        <ele>596.9</ele>
        <time>2021-08-12T12:47:14Z</time>
      </trkpt>
      <trkpt lat="47.21196" lon="6.89825">
        <ele>597</ele>
        <time>2021-08-12T12:47:15Z</time>
      </trkpt>
      <trkpt lat="47.21195" lon="6.89822">
        <ele>597.1</ele>
        <time>2021-08-12T12:47:17Z</time>
      </trkpt>
      <trkpt lat="47.21194" lon="6.89821">
        <ele>597.1</ele>
        <time>2021-08-12T12:47:18Z</time>
      </trkpt>
      <trkpt lat="47.21194" lon="6.8982">
        <ele>597.1</ele>
        <time>2021-08-12T12:47:19Z</time>
      </trkpt>
      <trkpt lat="47.21194" lon="6.8982">
        <ele>597.1</ele>
        <time>2021-08-12T12:47:21Z</time>
      </trkpt>
      <trkpt lat="47.21193" lon="6.89819">
        <ele>597.1</ele>
        <time>2021-08-12T12:47:22Z</time>
      </trkpt>
      <trkpt lat="47.21193" lon="6.89819">
        <ele>597.2</ele>
        <time>2021-08-12T12:47:23Z</time>
      </trkpt>
      <trkpt lat="47.21192" lon="6.89818">
        <ele>597.2</ele>
        <time>2021-08-12T12:47:25Z</time>
      </trkpt>
      <trkpt lat="47.21191" lon="6.89818">
        <ele>597.2</ele>
        <time>2021-08-12T12:47:26Z</time>
      </trkpt>
      <trkpt lat="47.21189" lon="6.89818">
        <ele>597.3</ele>
        <time>2021-08-12T12:47:28Z</time>
      </trkpt>
      <trkpt lat="47.21166" lon="6.89798">
        <ele>598.2</ele>
        <time>2021-08-12T12:47:29Z</time>
      </trkpt>
      <trkpt lat="47.21144" lon="6.89779">
        <ele>599.4</ele>
        <time>2021-08-12T12:48:37Z</time>
      </trkpt>
      <trkpt lat="47.21123" lon="6.89759">
        <ele>600.1</ele>
        <time>2021-08-12T12:48:38Z</time>
      </trkpt>
      <trkpt lat="47.21119" lon="6.89754">
        <ele>600.1</ele>
        <time>2021-08-12T12:48:40Z</time>
      </trkpt>
      <trkpt lat="47.21115" lon="6.89751">
        <ele>600.2</ele>
        <time>2021-08-12T12:48:41Z</time>
      </trkpt>
      <trkpt lat="47.21114" lon="6.89747">
        <ele>600.2</ele>
        <time>2021-08-12T12:48:43Z</time>
      </trkpt>
      <trkpt lat="47.21111" lon="6.8974">
        <ele>600.3</ele>
        <time>2021-08-12T12:48:44Z</time>
      </trkpt>
      <trkpt lat="47.21108" lon="6.89734">
        <ele>600.3</ele>
        <time>2021-08-12T12:48:46Z</time>
      </trkpt>
      <trkpt lat="47.21105" lon="6.89732">
        <ele>600.3</ele>
        <time>2021-08-12T12:48:47Z</time>
      </trkpt>
      <trkpt lat="47.21103" lon="6.89729">
        <ele>600.3</ele>
        <time>2021-08-12T12:48:48Z</time>
      </trkpt>
      <trkpt lat="47.21099" lon="6.89723">
        <ele>600.3</ele>
        <time>2021-08-12T12:48:50Z</time>
      </trkpt>
      <trkpt lat="47.21095" lon="6.89719">
        <ele>600.3</ele>
        <time>2021-08-12T12:48:52Z</time>
      </trkpt>
      <trkpt lat="47.21091" lon="6.89716">
        <ele>600.3</ele>
        <time>2021-08-12T12:48:53Z</time>
      </trkpt>
      <trkpt lat="47.2109" lon="6.89714">
        <ele>600.3</ele>
        <time>2021-08-12T12:48:54Z</time>
      </trkpt>
      <trkpt lat="47.21089" lon="6.89709">
        <ele>600.3</ele>
        <time>2021-08-12T12:48:56Z</time>
      </trkpt>
      <trkpt lat="47.21087" lon="6.89704">
        <ele>600.3</ele>
        <time>2021-08-12T12:48:57Z</time>
      </trkpt>
      <trkpt lat="47.21084" lon="6.89701">
        <ele>600.3</ele>
        <time>2021-08-12T12:48:59Z</time>
      </trkpt>
      <trkpt lat="47.21081" lon="6.89695">
        <ele>600.2</ele>
        <time>2021-08-12T12:49:00Z</time>
      </trkpt>
      <trkpt lat="47.21081" lon="6.89688">
        <ele>600.2</ele>
        <time>2021-08-12T12:49:02Z</time>
      </trkpt>
      <trkpt lat="47.21081" lon="6.89681">
        <ele>600.1</ele>
        <time>2021-08-12T12:49:03Z</time>
      </trkpt>
      <trkpt lat="47.21079" lon="6.89671">
        <ele>600</ele>
        <time>2021-08-12T12:49:05Z</time>
      </trkpt>
      <trkpt lat="47.21076" lon="6.89666">
        <ele>599.9</ele>
        <time>2021-08-12T12:49:06Z</time>
      </trkpt>
      <trkpt lat="47.21072" lon="6.89658">
        <ele>599.8</ele>
        <time>2021-08-12T12:49:08Z</time>
      </trkpt>
      <trkpt lat="47.21067" lon="6.89651">
        <ele>599.7</ele>
        <time>2021-08-12T12:49:10Z</time>
      </trkpt>
      <trkpt lat="47.21063" lon="6.89645">
        <ele>599.6</ele>
        <time>2021-08-12T12:49:11Z</time>
      </trkpt>
      <trkpt lat="47.21061" lon="6.89639">
        <ele>599.6</ele>
        <time>2021-08-12T12:49:13Z</time>
      </trkpt>
      <trkpt lat="47.21058" lon="6.8963">
        <ele>599.5</ele>
        <time>2021-08-12T12:49:15Z</time>
      </trkpt>
      <trkpt lat="47.21056" lon="6.8962">
        <ele>599.4</ele>
        <time>2021-08-12T12:49:16Z</time>
      </trkpt>
      <trkpt lat="47.21052" lon="6.89605">
        <ele>599.8</ele>
        <time>2021-08-12T12:49:18Z</time>
      </trkpt>
      <trkpt lat="47.21049" lon="6.89594">
        <ele>600.4</ele>
        <time>2021-08-12T12:49:19Z</time>
      </trkpt>
      <trkpt lat="47.21047" lon="6.89587">
        <ele>600.8</ele>
        <time>2021-08-12T12:49:21Z</time>
      </trkpt>
      <trkpt lat="47.21046" lon="6.89582">
        <ele>601.1</ele>
        <time>2021-08-12T12:49:22Z</time>
      </trkpt>
      <trkpt lat="47.21045" lon="6.89578">
        <ele>601.3</ele>
        <time>2021-08-12T12:49:23Z</time>
      </trkpt>
      <trkpt lat="47.21044" lon="6.89572">
        <ele>601.7</ele>
        <time>2021-08-12T12:49:25Z</time>
      </trkpt>
      <trkpt lat="47.21043" lon="6.89569">
        <ele>601.9</ele>
        <time>2021-08-12T12:49:26Z</time>
      </trkpt>
      <trkpt lat="47.21041" lon="6.89566">
        <ele>602.2</ele>
        <time>2021-08-12T12:49:28Z</time>
      </trkpt>
      <trkpt lat="47.21041" lon="6.89567">
        <ele>602.2</ele>
        <time>2021-08-12T12:49:29Z</time>
      </trkpt>
      <trkpt lat="47.21041" lon="6.89565">
        <ele>602.3</ele>
        <time>2021-08-12T12:49:30Z</time>
      </trkpt>
      <trkpt lat="47.21042" lon="6.89563">
        <ele>602.5</ele>
        <time>2021-08-12T12:49:32Z</time>
      </trkpt>
      <trkpt lat="47.21042" lon="6.89562">
        <ele>602.5</ele>
        <time>2021-08-12T12:49:33Z</time>
      </trkpt>
      <trkpt lat="47.21042" lon="6.89562">
        <ele>602.5</ele>
        <time>2021-08-12T12:49:34Z</time>
      </trkpt>
      <trkpt lat="47.21042" lon="6.89562">
        <ele>602.6</ele>
        <time>2021-08-12T12:49:36Z</time>
      </trkpt>
      <trkpt lat="47.20997" lon="6.89471">
        <ele>609.7</ele>
        <time>2021-08-12T12:50:51Z</time>
      </trkpt>
      <trkpt lat="47.20996" lon="6.89468">
        <ele>609.8</ele>
        <time>2021-08-12T12:50:52Z</time>
      </trkpt>
      <trkpt lat="47.20996" lon="6.89467">
        <ele>609.8</ele>
        <time>2021-08-12T12:50:53Z</time>
      </trkpt>
      <trkpt lat="47.20995" lon="6.89464">
        <ele>609.9</ele>
        <time>2021-08-12T12:50:55Z</time>
      </trkpt>
      <trkpt lat="47.20993" lon="6.89462">
        <ele>610</ele>
        <time>2021-08-12T12:50:57Z</time>
      </trkpt>
      <trkpt lat="47.20991" lon="6.89461">
        <ele>610</ele>
        <time>2021-08-12T12:50:59Z</time>
      </trkpt>
      <trkpt lat="47.2099" lon="6.8946">
        <ele>610.1</ele>
        <time>2021-08-12T12:51:00Z</time>
      </trkpt>
      <trkpt lat="47.20987" lon="6.89458">
        <ele>610.2</ele>
        <time>2021-08-12T12:51:01Z</time>
      </trkpt>
      <trkpt lat="47.20985" lon="6.89456">
        <ele>610.3</ele>
        <time>2021-08-12T12:51:03Z</time>
      </trkpt>
      <trkpt lat="47.20976" lon="6.89428">
        <ele>610.5</ele>
        <time>2021-08-12T12:51:11Z</time>
      </trkpt>
      <trkpt lat="47.20975" lon="6.89422">
        <ele>610.4</ele>
        <time>2021-08-12T12:51:12Z</time>
      </trkpt>
      <trkpt lat="47.20973" lon="6.89413">
        <ele>610.4</ele>
        <time>2021-08-12T12:51:13Z</time>
      </trkpt>
      <trkpt lat="47.20971" lon="6.89405">
        <ele>610.3</ele>
        <time>2021-08-12T12:51:14Z</time>
      </trkpt>
      <trkpt lat="47.20968" lon="6.89398">
        <ele>610.3</ele>
        <time>2021-08-12T12:51:15Z</time>
      </trkpt>
      <trkpt lat="47.20965" lon="6.89391">
        <ele>610.2</ele>
        <time>2021-08-12T12:51:16Z</time>
      </trkpt>
      <trkpt lat="47.20963" lon="6.89385">
        <ele>610.1</ele>
        <time>2021-08-12T12:51:18Z</time>
      </trkpt>
      <trkpt lat="47.2096" lon="6.89381">
        <ele>610</ele>
        <time>2021-08-12T12:51:19Z</time>
      </trkpt>
      <trkpt lat="47.20954" lon="6.8938">
        <ele>609.8</ele>
        <time>2021-08-12T12:51:20Z</time>
      </trkpt>
      <trkpt lat="47.20951" lon="6.89379">
        <ele>609.7</ele>
        <time>2021-08-12T12:51:21Z</time>
      </trkpt>
      <trkpt lat="47.20948" lon="6.89374">
        <ele>609.6</ele>
        <time>2021-08-12T12:51:22Z</time>
      </trkpt>
      <trkpt lat="47.20947" lon="6.89371">
        <ele>609.5</ele>
        <time>2021-08-12T12:51:24Z</time>
      </trkpt>
      <trkpt lat="47.20946" lon="6.89367">
        <ele>609.5</ele>
        <time>2021-08-12T12:51:25Z</time>
      </trkpt>
      <trkpt lat="47.20945" lon="6.89363">
        <ele>609.4</ele>
        <time>2021-08-12T12:51:26Z</time>
      </trkpt>
      <trkpt lat="47.20946" lon="6.89357">
        <ele>609.4</ele>
        <time>2021-08-12T12:51:27Z</time>
      </trkpt>
      <trkpt lat="47.20947" lon="6.89349">
        <ele>609.4</ele>
        <time>2021-08-12T12:51:29Z</time>
      </trkpt>
      <trkpt lat="47.20948" lon="6.89341">
        <ele>609.4</ele>
        <time>2021-08-12T12:51:30Z</time>
      </trkpt>
      <trkpt lat="47.2095" lon="6.89335">
        <ele>609.5</ele>
        <time>2021-08-12T12:51:31Z</time>
      </trkpt>
      <trkpt lat="47.20951" lon="6.89329">
        <ele>609.6</ele>
        <time>2021-08-12T12:51:32Z</time>
      </trkpt>
      <trkpt lat="47.20952" lon="6.89321">
        <ele>609.8</ele>
        <time>2021-08-12T12:51:33Z</time>
      </trkpt>
      <trkpt lat="47.2095" lon="6.89316">
        <ele>610</ele>
        <time>2021-08-12T12:51:35Z</time>
      </trkpt>
      <trkpt lat="47.20948" lon="6.89308">
        <ele>610.3</ele>
        <time>2021-08-12T12:51:36Z</time>
      </trkpt>
      <trkpt lat="47.20945" lon="6.89304">
        <ele>610.5</ele>
        <time>2021-08-12T12:51:38Z</time>
      </trkpt>
      <trkpt lat="47.20943" lon="6.89301">
        <ele>610.6</ele>
        <time>2021-08-12T12:51:39Z</time>
      </trkpt>
      <trkpt lat="47.20942" lon="6.89297">
        <ele>610.7</ele>
        <time>2021-08-12T12:51:40Z</time>
      </trkpt>
      <trkpt lat="47.20942" lon="6.89295">
        <ele>610.8</ele>
        <time>2021-08-12T12:51:41Z</time>
      </trkpt>
      <trkpt lat="47.20942" lon="6.8929">
        <ele>611</ele>
        <time>2021-08-12T12:51:43Z</time>
      </trkpt>
      <trkpt lat="47.20942" lon="6.89288">
        <ele>611</ele>
        <time>2021-08-12T12:51:44Z</time>
      </trkpt>
      <trkpt lat="47.20942" lon="6.89287">
        <ele>611.1</ele>
        <time>2021-08-12T12:51:45Z</time>
      </trkpt>
      <trkpt lat="47.20938" lon="6.89279">
        <ele>611.4</ele>
        <time>2021-08-12T12:51:47Z</time>
      </trkpt>
      <trkpt lat="47.20936" lon="6.89276">
        <ele>611.6</ele>
        <time>2021-08-12T12:51:49Z</time>
      </trkpt>
      <trkpt lat="47.20934" lon="6.89274">
        <ele>611.7</ele>
        <time>2021-08-12T12:51:50Z</time>
      </trkpt>
      <trkpt lat="47.20932" lon="6.89272">
        <ele>611.9</ele>
        <time>2021-08-12T12:51:52Z</time>
      </trkpt>
      <trkpt lat="47.20931" lon="6.8927">
        <ele>612</ele>
        <time>2021-08-12T12:51:53Z</time>
      </trkpt>
      <trkpt lat="47.20912" lon="6.89195">
        <ele>618.1</ele>
        <time>2021-08-12T12:53:16Z</time>
      </trkpt>
      <trkpt lat="47.20912" lon="6.89189">
        <ele>618.7</ele>
        <time>2021-08-12T12:53:18Z</time>
      </trkpt>
      <trkpt lat="47.20912" lon="6.89184">
        <ele>619.3</ele>
        <time>2021-08-12T12:53:19Z</time>
      </trkpt>
      <trkpt lat="47.20912" lon="6.89181">
        <ele>619.6</ele>
        <time>2021-08-12T12:53:20Z</time>
      </trkpt>
      <trkpt lat="47.20912" lon="6.8918">
        <ele>619.7</ele>
        <time>2021-08-12T12:53:21Z</time>
      </trkpt>
      <trkpt lat="47.20912" lon="6.89179">
        <ele>619.8</ele>
        <time>2021-08-12T12:53:22Z</time>
      </trkpt>
      <trkpt lat="47.20912" lon="6.89179">
        <ele>619.9</ele>
        <time>2021-08-12T12:53:24Z</time>
      </trkpt>
      <trkpt lat="47.20912" lon="6.89179">
        <ele>619.9</ele>
        <time>2021-08-12T12:53:25Z</time>
      </trkpt>
      <trkpt lat="47.20912" lon="6.89178">
        <ele>619.9</ele>
        <time>2021-08-12T12:53:26Z</time>
      </trkpt>
      <trkpt lat="47.20911" lon="6.89178">
        <ele>620</ele>
        <time>2021-08-12T12:53:27Z</time>
      </trkpt>
      <trkpt lat="47.20911" lon="6.89178">
        <ele>620</ele>
        <time>2021-08-12T12:53:29Z</time>
      </trkpt>
      <trkpt lat="47.2091" lon="6.89177">
        <ele>620.2</ele>
        <time>2021-08-12T12:53:30Z</time>
      </trkpt>
      <trkpt lat="47.20909" lon="6.89176">
        <ele>620.4</ele>
        <time>2021-08-12T12:53:32Z</time>
      </trkpt>
      <trkpt lat="47.20907" lon="6.89176">
        <ele>620.8</ele>
        <time>2021-08-12T12:53:34Z</time>
      </trkpt>
      <trkpt lat="47.20906" lon="6.89176">
        <ele>620.9</ele>
        <time>2021-08-12T12:53:35Z</time>
      </trkpt>
      <trkpt lat="47.20905" lon="6.89176">
        <ele>621</ele>
        <time>2021-08-12T12:53:36Z</time>
      </trkpt>
      <trkpt lat="47.20904" lon="6.89175">
        <ele>621.3</ele>
        <time>2021-08-12T12:53:38Z</time>
      </trkpt>
      <trkpt lat="47.20903" lon="6.89175">
        <ele>621.4</ele>
        <time>2021-08-12T12:53:40Z</time>
      </trkpt>
      <trkpt lat="47.20902" lon="6.89175">
        <ele>621.5</ele>
        <time>2021-08-12T12:53:41Z</time>
      </trkpt>
      <trkpt lat="47.20901" lon="6.89174">
        <ele>621.7</ele>
        <time>2021-08-12T12:53:43Z</time>
      </trkpt>
      <trkpt lat="47.209" lon="6.89174">
        <ele>621.8</ele>
        <time>2021-08-12T12:53:44Z</time>
      </trkpt>
      <trkpt lat="47.20899" lon="6.89173">
        <ele>622</ele>
        <time>2021-08-12T12:53:46Z</time>
      </trkpt>
      <trkpt lat="47.20898" lon="6.89174">
        <ele>622.2</ele>
        <time>2021-08-12T12:53:48Z</time>
      </trkpt>
      <trkpt lat="47.20897" lon="6.89174">
        <ele>622.4</ele>
        <time>2021-08-12T12:53:49Z</time>
      </trkpt>
      <trkpt lat="47.20896" lon="6.89174">
        <ele>622.5</ele>
        <time>2021-08-12T12:53:51Z</time>
      </trkpt>
      <trkpt lat="47.20896" lon="6.89174">
        <ele>622.6</ele>
        <time>2021-08-12T12:53:52Z</time>
      </trkpt>
      <trkpt lat="47.20895" lon="6.89171">
        <ele>623</ele>
        <time>2021-08-12T12:53:54Z</time>
      </trkpt>
      <trkpt lat="47.20894" lon="6.89167">
        <ele>623.6</ele>
        <time>2021-08-12T12:53:55Z</time>
      </trkpt>
      <trkpt lat="47.20893" lon="6.89165">
        <ele>623.8</ele>
        <time>2021-08-12T12:53:57Z</time>
      </trkpt>
      <trkpt lat="47.20892" lon="6.89164">
        <ele>623.9</ele>
        <time>2021-08-12T12:53:58Z</time>
      </trkpt>
      <trkpt lat="47.20892" lon="6.89164">
        <ele>624</ele>
        <time>2021-08-12T12:53:59Z</time>
      </trkpt>
      <trkpt lat="47.20892" lon="6.89164">
        <ele>624.1</ele>
        <time>2021-08-12T12:54:00Z</time>
      </trkpt>
      <trkpt lat="47.20892" lon="6.89163">
        <ele>624.2</ele>
        <time>2021-08-12T12:54:02Z</time>
      </trkpt>
      <trkpt lat="47.20892" lon="6.89163">
        <ele>624.2</ele>
        <time>2021-08-12T12:54:03Z</time>
      </trkpt>
      <trkpt lat="47.20892" lon="6.89161">
        <ele>624.5</ele>
        <time>2021-08-12T12:54:04Z</time>
      </trkpt>
      <trkpt lat="47.20893" lon="6.89159">
        <ele>624.8</ele>
        <time>2021-08-12T12:54:05Z</time>
      </trkpt>
      <trkpt lat="47.20894" lon="6.89157">
        <ele>625.2</ele>
        <time>2021-08-12T12:54:07Z</time>
      </trkpt>
      <trkpt lat="47.20896" lon="6.89153">
        <ele>625.8</ele>
        <time>2021-08-12T12:54:09Z</time>
      </trkpt>
      <trkpt lat="47.20896" lon="6.89152">
        <ele>626.1</ele>
        <time>2021-08-12T12:54:10Z</time>
      </trkpt>
      <trkpt lat="47.20896" lon="6.8915">
        <ele>626.2</ele>
        <time>2021-08-12T12:54:12Z</time>
      </trkpt>
      <trkpt lat="47.20896" lon="6.89148">
        <ele>626.5</ele>
        <time>2021-08-12T12:54:13Z</time>
      </trkpt>
      <trkpt lat="47.20895" lon="6.89146">
        <ele>626.9</ele>
        <time>2021-08-12T12:54:15Z</time>
      </trkpt>
      <trkpt lat="47.20894" lon="6.89145">
        <ele>627.2</ele>
        <time>2021-08-12T12:54:16Z</time>
      </trkpt>
      <trkpt lat="47.20894" lon="6.89144">
        <ele>627.4</ele>
        <time>2021-08-12T12:54:18Z</time>
      </trkpt>
      <trkpt lat="47.20892" lon="6.89143">
        <ele>627.7</ele>
        <time>2021-08-12T12:54:19Z</time>
      </trkpt>
      <trkpt lat="47.20892" lon="6.89142">
        <ele>627.9</ele>
        <time>2021-08-12T12:54:21Z</time>
      </trkpt>
      <trkpt lat="47.20891" lon="6.89142">
        <ele>628</ele>
        <time>2021-08-12T12:54:22Z</time>
      </trkpt>
      <trkpt lat="47.20891" lon="6.89142">
        <ele>628.1</ele>
        <time>2021-08-12T12:54:24Z</time>
      </trkpt>
      <trkpt lat="47.2089" lon="6.89142">
        <ele>628.1</ele>
        <time>2021-08-12T12:54:25Z</time>
      </trkpt>
      <trkpt lat="47.2089" lon="6.89141">
        <ele>628.2</ele>
        <time>2021-08-12T12:54:26Z</time>
      </trkpt>
      <trkpt lat="47.2089" lon="6.89141">
        <ele>628.2</ele>
        <time>2021-08-12T12:54:27Z</time>
      </trkpt>
      <trkpt lat="47.2089" lon="6.89141">
        <ele>628.2</ele>
        <time>2021-08-12T12:54:29Z</time>
      </trkpt>
      <trkpt lat="47.2089" lon="6.89141">
        <ele>628.3</ele>
        <time>2021-08-12T12:54:30Z</time>
      </trkpt>
      <trkpt lat="47.2089" lon="6.89141">
        <ele>628.3</ele>
        <time>2021-08-12T12:54:32Z</time>
      </trkpt>
      <trkpt lat="47.20889" lon="6.89141">
        <ele>628.4</ele>
        <time>2021-08-12T12:54:33Z</time>
      </trkpt>
      <trkpt lat="47.20888" lon="6.89142">
        <ele>628.7</ele>
        <time>2021-08-12T12:54:35Z</time>
      </trkpt>
      <trkpt lat="47.20887" lon="6.89142">
        <ele>628.9</ele>
        <time>2021-08-12T12:54:36Z</time>
      </trkpt>
      <trkpt lat="47.20885" lon="6.89142">
        <ele>629.2</ele>
        <time>2021-08-12T12:54:38Z</time>
      </trkpt>
      <trkpt lat="47.20884" lon="6.89142">
        <ele>629.5</ele>
        <time>2021-08-12T12:54:39Z</time>
      </trkpt>
      <trkpt lat="47.20883" lon="6.89141">
        <ele>629.7</ele>
        <time>2021-08-12T12:54:41Z</time>
      </trkpt>
      <trkpt lat="47.20882" lon="6.8914">
        <ele>630</ele>
        <time>2021-08-12T12:54:42Z</time>
      </trkpt>
      <trkpt lat="47.2088" lon="6.89137">
        <ele>630.4</ele>
        <time>2021-08-12T12:54:44Z</time>
      </trkpt>
      <trkpt lat="47.20879" lon="6.89136">
        <ele>630.6</ele>
        <time>2021-08-12T12:54:45Z</time>
      </trkpt>
      <trkpt lat="47.20878" lon="6.89135">
        <ele>630.9</ele>
        <time>2021-08-12T12:54:47Z</time>
      </trkpt>
      <trkpt lat="47.20877" lon="6.89134">
        <ele>631.1</ele>
        <time>2021-08-12T12:54:49Z</time>
      </trkpt>
      <trkpt lat="47.20876" lon="6.89133">
        <ele>631.2</ele>
        <time>2021-08-12T12:54:50Z</time>
      </trkpt>
      <trkpt lat="47.20875" lon="6.89133">
        <ele>631.3</ele>
        <time>2021-08-12T12:54:51Z</time>
      </trkpt>
      <trkpt lat="47.20875" lon="6.89132">
        <ele>631.4</ele>
        <time>2021-08-12T12:54:52Z</time>
      </trkpt>
      <trkpt lat="47.20874" lon="6.89132">
        <ele>631.5</ele>
        <time>2021-08-12T12:54:54Z</time>
      </trkpt>
      <trkpt lat="47.20874" lon="6.89132">
        <ele>633.2</ele>
        <time>2021-08-12T12:54:55Z</time>
      </trkpt>
      <trkpt lat="47.20874" lon="6.89131">
        <ele>633.3</ele>
        <time>2021-08-12T12:54:57Z</time>
      </trkpt>
      <trkpt lat="47.20873" lon="6.8913">
        <ele>633.5</ele>
        <time>2021-08-12T12:54:58Z</time>
      </trkpt>
      <trkpt lat="47.20871" lon="6.89128">
        <ele>633.8</ele>
        <time>2021-08-12T12:55:00Z</time>
      </trkpt>
      <trkpt lat="47.20869" lon="6.89127">
        <ele>634.3</ele>
        <time>2021-08-12T12:55:01Z</time>
      </trkpt>
      <trkpt lat="47.20867" lon="6.89127">
        <ele>634.7</ele>
        <time>2021-08-12T12:55:03Z</time>
      </trkpt>
      <trkpt lat="47.20864" lon="6.89127">
        <ele>635.3</ele>
        <time>2021-08-12T12:55:04Z</time>
      </trkpt>
      <trkpt lat="47.20861" lon="6.89127">
        <ele>635.9</ele>
        <time>2021-08-12T12:55:05Z</time>
      </trkpt>
      <trkpt lat="47.20858" lon="6.89127">
        <ele>636.5</ele>
        <time>2021-08-12T12:55:07Z</time>
      </trkpt>
      <trkpt lat="47.20857" lon="6.89127">
        <ele>636.6</ele>
        <time>2021-08-12T12:55:08Z</time>
      </trkpt>
      <trkpt lat="47.20855" lon="6.89128">
        <ele>637</ele>
        <time>2021-08-12T12:55:09Z</time>
      </trkpt>
      <trkpt lat="47.20854" lon="6.89128">
        <ele>637.2</ele>
        <time>2021-08-12T12:55:11Z</time>
      </trkpt>
      <trkpt lat="47.20854" lon="6.89128">
        <ele>637.3</ele>
        <time>2021-08-12T12:55:12Z</time>
      </trkpt>
      <trkpt lat="47.20853" lon="6.89129">
        <ele>637.5</ele>
        <time>2021-08-12T12:55:13Z</time>
      </trkpt>
      <trkpt lat="47.20852" lon="6.89129">
        <ele>637.6</ele>
        <time>2021-08-12T12:55:15Z</time>
      </trkpt>
      <trkpt lat="47.20852" lon="6.8913">
        <ele>637.7</ele>
        <time>2021-08-12T12:55:17Z</time>
      </trkpt>
      <trkpt lat="47.20852" lon="6.8913">
        <ele>637.8</ele>
        <time>2021-08-12T12:55:18Z</time>
      </trkpt>
      <trkpt lat="47.20851" lon="6.8913">
        <ele>637.8</ele>
        <time>2021-08-12T12:55:20Z</time>
      </trkpt>
      <trkpt lat="47.20851" lon="6.8913">
        <ele>637.9</ele>
        <time>2021-08-12T12:55:21Z</time>
      </trkpt>
      <trkpt lat="47.20851" lon="6.89128">
        <ele>638.1</ele>
        <time>2021-08-12T12:55:23Z</time>
      </trkpt>
      <trkpt lat="47.20851" lon="6.89125">
        <ele>638.5</ele>
        <time>2021-08-12T12:55:24Z</time>
      </trkpt>
      <trkpt lat="47.2085" lon="6.89123">
        <ele>638.8</ele>
        <time>2021-08-12T12:55:26Z</time>
      </trkpt>
      <trkpt lat="47.2085" lon="6.89121">
        <ele>639.1</ele>
        <time>2021-08-12T12:55:27Z</time>
      </trkpt>
      <trkpt lat="47.20849" lon="6.89119">
        <ele>639.3</ele>
        <time>2021-08-12T12:55:29Z</time>
      </trkpt>
      <trkpt lat="47.20849" lon="6.89118">
        <ele>639.4</ele>
        <time>2021-08-12T12:55:30Z</time>
      </trkpt>
      <trkpt lat="47.20849" lon="6.89118">
        <ele>639.5</ele>
        <time>2021-08-12T12:55:31Z</time>
      </trkpt>
      <trkpt lat="47.20849" lon="6.89117">
        <ele>639.5</ele>
        <time>2021-08-12T12:55:32Z</time>
      </trkpt>
      <trkpt lat="47.20848" lon="6.89116">
        <ele>639.7</ele>
        <time>2021-08-12T12:55:33Z</time>
      </trkpt>
      <trkpt lat="47.20848" lon="6.89115">
        <ele>639.9</ele>
        <time>2021-08-12T12:55:34Z</time>
      </trkpt>
      <trkpt lat="47.20846" lon="6.89113">
        <ele>640.2</ele>
        <time>2021-08-12T12:55:36Z</time>
      </trkpt>
      <trkpt lat="47.20846" lon="6.89112">
        <ele>640.4</ele>
        <time>2021-08-12T12:55:37Z</time>
      </trkpt>
      <trkpt lat="47.20844" lon="6.8911">
        <ele>640.7</ele>
        <time>2021-08-12T12:55:38Z</time>
      </trkpt>
      <trkpt lat="47.20841" lon="6.89108">
        <ele>641.1</ele>
        <time>2021-08-12T12:55:40Z</time>
      </trkpt>
      <trkpt lat="47.20839" lon="6.89105">
        <ele>641.7</ele>
        <time>2021-08-12T12:55:41Z</time>
      </trkpt>
      <trkpt lat="47.20837" lon="6.89104">
        <ele>642</ele>
        <time>2021-08-12T12:55:42Z</time>
      </trkpt>
      <trkpt lat="47.20836" lon="6.89103">
        <ele>642.2</ele>
        <time>2021-08-12T12:55:44Z</time>
      </trkpt>
      <trkpt lat="47.20836" lon="6.89102">
        <ele>642.3</ele>
        <time>2021-08-12T12:55:45Z</time>
      </trkpt>
      <trkpt lat="47.20836" lon="6.89098">
        <ele>642.8</ele>
        <time>2021-08-12T12:55:47Z</time>
      </trkpt>
      <trkpt lat="47.20837" lon="6.89096">
        <ele>643</ele>
        <time>2021-08-12T12:55:48Z</time>
      </trkpt>
      <trkpt lat="47.20837" lon="6.89094">
        <ele>643.3</ele>
        <time>2021-08-12T12:55:49Z</time>
      </trkpt>
      <trkpt lat="47.20837" lon="6.89091">
        <ele>643.6</ele>
        <time>2021-08-12T12:55:51Z</time>
      </trkpt>
      <trkpt lat="47.20778" lon="6.88853">
        <ele>669.9</ele>
        <time>2021-08-12T13:00:07Z</time>
      </trkpt>
      <trkpt lat="47.20775" lon="6.88848">
        <ele>670.3</ele>
        <time>2021-08-12T13:00:08Z</time>
      </trkpt>
      <trkpt lat="47.20773" lon="6.88843">
        <ele>670.6</ele>
        <time>2021-08-12T13:00:09Z</time>
      </trkpt>
      <trkpt lat="47.2077" lon="6.8884">
        <ele>670.7</ele>
        <time>2021-08-12T13:00:10Z</time>
      </trkpt>
      <trkpt lat="47.20767" lon="6.88836">
        <ele>671</ele>
        <time>2021-08-12T13:00:11Z</time>
      </trkpt>
      <trkpt lat="47.20763" lon="6.88833">
        <ele>671.2</ele>
        <time>2021-08-12T13:00:13Z</time>
      </trkpt>
      <trkpt lat="47.20761" lon="6.88832">
        <ele>671.3</ele>
        <time>2021-08-12T13:00:14Z</time>
      </trkpt>
      <trkpt lat="47.2076" lon="6.8883">
        <ele>671.4</ele>
        <time>2021-08-12T13:00:15Z</time>
      </trkpt>
      <trkpt lat="47.20757" lon="6.88828">
        <ele>671.6</ele>
        <time>2021-08-12T13:00:16Z</time>
      </trkpt>
      <trkpt lat="47.20755" lon="6.88828">
        <ele>671.7</ele>
        <time>2021-08-12T13:00:17Z</time>
      </trkpt>
      <trkpt lat="47.20753" lon="6.88826">
        <ele>671.9</ele>
        <time>2021-08-12T13:00:18Z</time>
      </trkpt>
      <trkpt lat="47.2075" lon="6.88825">
        <ele>672</ele>
        <time>2021-08-12T13:00:20Z</time>
      </trkpt>
      <trkpt lat="47.2075" lon="6.88824">
        <ele>672</ele>
        <time>2021-08-12T13:00:21Z</time>
      </trkpt>
      <trkpt lat="47.20748" lon="6.88819">
        <ele>672.3</ele>
        <time>2021-08-12T13:00:22Z</time>
      </trkpt>
      <trkpt lat="47.20748" lon="6.88817">
        <ele>672.4</ele>
        <time>2021-08-12T13:00:23Z</time>
      </trkpt>
      <trkpt lat="47.20747" lon="6.88816">
        <ele>672.5</ele>
        <time>2021-08-12T13:00:24Z</time>
      </trkpt>
      <trkpt lat="47.20745" lon="6.88814">
        <ele>672.6</ele>
        <time>2021-08-12T13:00:25Z</time>
      </trkpt>
      <trkpt lat="47.20743" lon="6.88813">
        <ele>672.8</ele>
        <time>2021-08-12T13:00:26Z</time>
      </trkpt>
      <trkpt lat="47.20743" lon="6.88812">
        <ele>672.9</ele>
        <time>2021-08-12T13:00:27Z</time>
      </trkpt>
      <trkpt lat="47.20742" lon="6.88808">
        <ele>673.1</ele>
        <time>2021-08-12T13:00:28Z</time>
      </trkpt>
      <trkpt lat="47.20741" lon="6.88805">
        <ele>673.3</ele>
        <time>2021-08-12T13:00:29Z</time>
      </trkpt>
      <trkpt lat="47.20741" lon="6.88804">
        <ele>673.4</ele>
        <time>2021-08-12T13:00:30Z</time>
      </trkpt>
      <trkpt lat="47.20739" lon="6.888">
        <ele>673.6</ele>
        <time>2021-08-12T13:00:32Z</time>
      </trkpt>
      <trkpt lat="47.20739" lon="6.88798">
        <ele>673.7</ele>
        <time>2021-08-12T13:00:33Z</time>
      </trkpt>
      <trkpt lat="47.20738" lon="6.88796">
        <ele>673.9</ele>
        <time>2021-08-12T13:00:34Z</time>
      </trkpt>
      <trkpt lat="47.20734" lon="6.8879">
        <ele>674.4</ele>
        <time>2021-08-12T13:00:36Z</time>
      </trkpt>
      <trkpt lat="47.20734" lon="6.88788">
        <ele>674.5</ele>
        <time>2021-08-12T13:00:37Z</time>
      </trkpt>
      <trkpt lat="47.20733" lon="6.88786">
        <ele>674.7</ele>
        <time>2021-08-12T13:00:38Z</time>
      </trkpt>
      <trkpt lat="47.20732" lon="6.88781">
        <ele>674.9</ele>
        <time>2021-08-12T13:00:39Z</time>
      </trkpt>
      <trkpt lat="47.20731" lon="6.88769">
        <ele>675.6</ele>
        <time>2021-08-12T13:00:40Z</time>
      </trkpt>
      <trkpt lat="47.2073" lon="6.88763">
        <ele>675.9</ele>
        <time>2021-08-12T13:00:41Z</time>
      </trkpt>
      <trkpt lat="47.20729" lon="6.88759">
        <ele>676.2</ele>
        <time>2021-08-12T13:00:42Z</time>
      </trkpt>
      <trkpt lat="47.20728" lon="6.88756">
        <ele>676.4</ele>
        <time>2021-08-12T13:00:43Z</time>
      </trkpt>
      <trkpt lat="47.20727" lon="6.88755">
        <ele>676.5</ele>
        <time>2021-08-12T13:00:45Z</time>
      </trkpt>
      <trkpt lat="47.20725" lon="6.88753">
        <ele>676.7</ele>
        <time>2021-08-12T13:00:46Z</time>
      </trkpt>
      <trkpt lat="47.20723" lon="6.88753">
        <ele>676.8</ele>
        <time>2021-08-12T13:00:47Z</time>
      </trkpt>
      <trkpt lat="47.20721" lon="6.88752">
        <ele>676.9</ele>
        <time>2021-08-12T13:00:48Z</time>
      </trkpt>
      <trkpt lat="47.20721" lon="6.88751">
        <ele>677</ele>
        <time>2021-08-12T13:00:49Z</time>
      </trkpt>
      <trkpt lat="47.20721" lon="6.88748">
        <ele>677.2</ele>
        <time>2021-08-12T13:00:51Z</time>
      </trkpt>
      <trkpt lat="47.2072" lon="6.88744">
        <ele>677.4</ele>
        <time>2021-08-12T13:00:52Z</time>
      </trkpt>
      <trkpt lat="47.2072" lon="6.8874">
        <ele>677.6</ele>
        <time>2021-08-12T13:00:53Z</time>
      </trkpt>
      <trkpt lat="47.2072" lon="6.88732">
        <ele>678</ele>
        <time>2021-08-12T13:00:54Z</time>
      </trkpt>
      <trkpt lat="47.2072" lon="6.88728">
        <ele>678.3</ele>
        <time>2021-08-12T13:00:56Z</time>
      </trkpt>
      <trkpt lat="47.2072" lon="6.88724">
        <ele>678.5</ele>
        <time>2021-08-12T13:00:57Z</time>
      </trkpt>
      <trkpt lat="47.2072" lon="6.88719">
        <ele>678.8</ele>
        <time>2021-08-12T13:00:58Z</time>
      </trkpt>
      <trkpt lat="47.2072" lon="6.88717">
        <ele>678.9</ele>
        <time>2021-08-12T13:00:59Z</time>
      </trkpt>
      <trkpt lat="47.2072" lon="6.88716">
        <ele>679</ele>
        <time>2021-08-12T13:01:00Z</time>
      </trkpt>
      <trkpt lat="47.20719" lon="6.88714">
        <ele>679.1</ele>
        <time>2021-08-12T13:01:02Z</time>
      </trkpt>
      <trkpt lat="47.20719" lon="6.88714">
        <ele>679.1</ele>
        <time>2021-08-12T13:01:03Z</time>
      </trkpt>
      <trkpt lat="47.20718" lon="6.88713">
        <ele>679.2</ele>
        <time>2021-08-12T13:01:04Z</time>
      </trkpt>
      <trkpt lat="47.20718" lon="6.88713">
        <ele>679.2</ele>
        <time>2021-08-12T13:01:05Z</time>
      </trkpt>
      <trkpt lat="47.20718" lon="6.8871">
        <ele>679.4</ele>
        <time>2021-08-12T13:01:06Z</time>
      </trkpt>
      <trkpt lat="47.20717" lon="6.88705">
        <ele>679.7</ele>
        <time>2021-08-12T13:01:08Z</time>
      </trkpt>
      <trkpt lat="47.20717" lon="6.88704">
        <ele>679.7</ele>
        <time>2021-08-12T13:01:09Z</time>
      </trkpt>
      <trkpt lat="47.20716" lon="6.887">
        <ele>680</ele>
        <time>2021-08-12T13:01:10Z</time>
      </trkpt>
      <trkpt lat="47.20714" lon="6.88695">
        <ele>680.2</ele>
        <time>2021-08-12T13:01:12Z</time>
      </trkpt>
      <trkpt lat="47.20713" lon="6.88692">
        <ele>680.4</ele>
        <time>2021-08-12T13:01:13Z</time>
      </trkpt>
      <trkpt lat="47.20712" lon="6.88687">
        <ele>680.7</ele>
        <time>2021-08-12T13:01:15Z</time>
      </trkpt>
      <trkpt lat="47.20712" lon="6.88681">
        <ele>681</ele>
        <time>2021-08-12T13:01:16Z</time>
      </trkpt>
      <trkpt lat="47.20709" lon="6.88672">
        <ele>681.5</ele>
        <time>2021-08-12T13:01:18Z</time>
      </trkpt>
      <trkpt lat="47.20707" lon="6.88667">
        <ele>685.9</ele>
        <time>2021-08-12T13:01:19Z</time>
      </trkpt>
      <trkpt lat="47.20707" lon="6.88662">
        <ele>690.9</ele>
        <time>2021-08-12T13:01:20Z</time>
      </trkpt>
      <trkpt lat="47.20706" lon="6.88655">
        <ele>694.3</ele>
        <time>2021-08-12T13:01:22Z</time>
      </trkpt>
      <trkpt lat="47.20705" lon="6.8865">
        <ele>699.3</ele>
        <time>2021-08-12T13:01:23Z</time>
      </trkpt>
      <trkpt lat="47.20706" lon="6.88646">
        <ele>704.3</ele>
        <time>2021-08-12T13:01:24Z</time>
      </trkpt>
      <trkpt lat="47.20705" lon="6.88643">
        <ele>709.3</ele>
        <time>2021-08-12T13:01:25Z</time>
      </trkpt>
      <trkpt lat="47.20704" lon="6.8864">
        <ele>714.4</ele>
        <time>2021-08-12T13:01:27Z</time>
      </trkpt>
      <trkpt lat="47.20703" lon="6.88638">
        <ele>714.2</ele>
        <time>2021-08-12T13:01:28Z</time>
      </trkpt>
      <trkpt lat="47.20701" lon="6.88638">
        <ele>714.1</ele>
        <time>2021-08-12T13:01:29Z</time>
      </trkpt>
      <trkpt lat="47.20699" lon="6.88638">
        <ele>713.7</ele>
        <time>2021-08-12T13:01:30Z</time>
      </trkpt>
      <trkpt lat="47.20697" lon="6.88637">
        <ele>713.5</ele>
        <time>2021-08-12T13:01:32Z</time>
      </trkpt>
      <trkpt lat="47.20696" lon="6.88637">
        <ele>713.3</ele>
        <time>2021-08-12T13:01:33Z</time>
      </trkpt>
      <trkpt lat="47.20693" lon="6.88635">
        <ele>713</ele>
        <time>2021-08-12T13:01:35Z</time>
      </trkpt>
      <trkpt lat="47.2069" lon="6.88634">
        <ele>712.7</ele>
        <time>2021-08-12T13:01:36Z</time>
      </trkpt>
      <trkpt lat="47.20688" lon="6.88634">
        <ele>712.4</ele>
        <time>2021-08-12T13:01:37Z</time>
      </trkpt>
      <trkpt lat="47.20687" lon="6.88634">
        <ele>712.2</ele>
        <time>2021-08-12T13:01:38Z</time>
      </trkpt>
      <trkpt lat="47.2066" lon="6.88579">
        <ele>707.4</ele>
        <time>2021-08-12T13:02:28Z</time>
      </trkpt>
      <trkpt lat="47.2066" lon="6.88572">
        <ele>707</ele>
        <time>2021-08-12T13:02:30Z</time>
      </trkpt>
      <trkpt lat="47.20658" lon="6.88566">
        <ele>706.7</ele>
        <time>2021-08-12T13:02:31Z</time>
      </trkpt>
      <trkpt lat="47.20656" lon="6.88558">
        <ele>706.2</ele>
        <time>2021-08-12T13:02:33Z</time>
      </trkpt>
      <trkpt lat="47.20654" lon="6.88551">
        <ele>705.9</ele>
        <time>2021-08-12T13:02:34Z</time>
      </trkpt>
      <trkpt lat="47.20653" lon="6.88548">
        <ele>705.7</ele>
        <time>2021-08-12T13:02:35Z</time>
      </trkpt>
      <trkpt lat="47.2065" lon="6.88543">
        <ele>705.5</ele>
        <time>2021-08-12T13:02:37Z</time>
      </trkpt>
      <trkpt lat="47.20647" lon="6.88537">
        <ele>705.1</ele>
        <time>2021-08-12T13:02:38Z</time>
      </trkpt>
      <trkpt lat="47.20642" lon="6.88534">
        <ele>704.8</ele>
        <time>2021-08-12T13:02:40Z</time>
      </trkpt>
      <trkpt lat="47.2064" lon="6.88531">
        <ele>704.7</ele>
        <time>2021-08-12T13:02:42Z</time>
      </trkpt>
      <trkpt lat="47.20639" lon="6.88529">
        <ele>704.6</ele>
        <time>2021-08-12T13:02:43Z</time>
      </trkpt>
      <trkpt lat="47.20639" lon="6.88526">
        <ele>704.5</ele>
        <time>2021-08-12T13:02:45Z</time>
      </trkpt>
      <trkpt lat="47.20638" lon="6.88525">
        <ele>704.5</ele>
        <time>2021-08-12T13:02:46Z</time>
      </trkpt>
      <trkpt lat="47.20638" lon="6.88524">
        <ele>704.4</ele>
        <time>2021-08-12T13:02:48Z</time>
      </trkpt>
      <trkpt lat="47.20638" lon="6.88557">
        <ele>705.5</ele>
        <time>2021-08-12T13:04:16Z</time>
      </trkpt>
      <trkpt lat="47.2064" lon="6.88559">
        <ele>705.6</ele>
        <time>2021-08-12T13:04:18Z</time>
      </trkpt>
      <trkpt lat="47.20641" lon="6.88559">
        <ele>705.6</ele>
        <time>2021-08-12T13:04:19Z</time>
      </trkpt>
      <trkpt lat="47.20643" lon="6.88559">
        <ele>705.7</ele>
        <time>2021-08-12T13:04:21Z</time>
      </trkpt>
      <trkpt lat="47.20643" lon="6.88559">
        <ele>705.8</ele>
        <time>2021-08-12T13:04:23Z</time>
      </trkpt>
      <trkpt lat="47.20644" lon="6.8856">
        <ele>705.8</ele>
        <time>2021-08-12T13:04:24Z</time>
      </trkpt>
      <trkpt lat="47.20647" lon="6.8856">
        <ele>706</ele>
        <time>2021-08-12T13:04:25Z</time>
      </trkpt>
      <trkpt lat="47.20649" lon="6.88562">
        <ele>706.1</ele>
        <time>2021-08-12T13:04:27Z</time>
      </trkpt>
      <trkpt lat="47.20652" lon="6.88564">
        <ele>706.3</ele>
        <time>2021-08-12T13:04:28Z</time>
      </trkpt>
      <trkpt lat="47.20654" lon="6.88567">
        <ele>706.5</ele>
        <time>2021-08-12T13:04:30Z</time>
      </trkpt>
      <trkpt lat="47.20655" lon="6.88568">
        <ele>706.6</ele>
        <time>2021-08-12T13:04:31Z</time>
      </trkpt>
      <trkpt lat="47.20656" lon="6.8857">
        <ele>706.7</ele>
        <time>2021-08-12T13:04:33Z</time>
      </trkpt>
      <trkpt lat="47.20656" lon="6.88572">
        <ele>706.8</ele>
        <time>2021-08-12T13:04:34Z</time>
      </trkpt>
      <trkpt lat="47.20656" lon="6.88573">
        <ele>706.8</ele>
        <time>2021-08-12T13:04:35Z</time>
      </trkpt>
      <trkpt lat="47.20656" lon="6.88576">
        <ele>706.9</ele>
        <time>2021-08-12T13:04:36Z</time>
      </trkpt>
      <trkpt lat="47.20656" lon="6.88577">
        <ele>707</ele>
        <time>2021-08-12T13:04:38Z</time>
      </trkpt>
      <trkpt lat="47.20656" lon="6.88579">
        <ele>707.1</ele>
        <time>2021-08-12T13:04:39Z</time>
      </trkpt>
      <trkpt lat="47.20656" lon="6.8858">
        <ele>707.1</ele>
        <time>2021-08-12T13:04:41Z</time>
      </trkpt>
      <trkpt lat="47.20657" lon="6.88581">
        <ele>707.2</ele>
        <time>2021-08-12T13:04:42Z</time>
      </trkpt>
      <trkpt lat="47.20657" lon="6.88582">
        <ele>707.2</ele>
        <time>2021-08-12T13:04:43Z</time>
      </trkpt>
      <trkpt lat="47.20657" lon="6.88583">
        <ele>707.3</ele>
        <time>2021-08-12T13:04:45Z</time>
      </trkpt>
      <trkpt lat="47.20657" lon="6.88584">
        <ele>707.3</ele>
        <time>2021-08-12T13:04:46Z</time>
      </trkpt>
      <trkpt lat="47.20657" lon="6.88584">
        <ele>707.4</ele>
        <time>2021-08-12T13:04:48Z</time>
      </trkpt>
      <trkpt lat="47.20657" lon="6.88585">
        <ele>707.4</ele>
        <time>2021-08-12T13:04:50Z</time>
      </trkpt>
      <trkpt lat="47.20657" lon="6.88585">
        <ele>707.4</ele>
        <time>2021-08-12T13:04:51Z</time>
      </trkpt>
      <trkpt lat="47.20657" lon="6.88586">
        <ele>707.4</ele>
        <time>2021-08-12T13:04:52Z</time>
      </trkpt>
      <trkpt lat="47.20658" lon="6.88586">
        <ele>707.5</ele>
        <time>2021-08-12T13:04:54Z</time>
      </trkpt>
      <trkpt lat="47.2066" lon="6.88588">
        <ele>707.6</ele>
        <time>2021-08-12T13:04:55Z</time>
      </trkpt>
      <trkpt lat="47.20662" lon="6.88588">
        <ele>707.8</ele>
        <time>2021-08-12T13:04:57Z</time>
      </trkpt>
      <trkpt lat="47.20663" lon="6.88589">
        <ele>707.9</ele>
        <time>2021-08-12T13:04:58Z</time>
      </trkpt>
      <trkpt lat="47.20664" lon="6.88589">
        <ele>708</ele>
        <time>2021-08-12T13:05:00Z</time>
      </trkpt>
      <trkpt lat="47.20666" lon="6.88589">
        <ele>708.1</ele>
        <time>2021-08-12T13:05:01Z</time>
      </trkpt>
      <trkpt lat="47.20667" lon="6.88589">
        <ele>708.2</ele>
        <time>2021-08-12T13:05:03Z</time>
      </trkpt>
      <trkpt lat="47.20668" lon="6.88589">
        <ele>708.3</ele>
        <time>2021-08-12T13:05:04Z</time>
      </trkpt>
      <trkpt lat="47.20669" lon="6.88589">
        <ele>708.3</ele>
        <time>2021-08-12T13:05:06Z</time>
      </trkpt>
      <trkpt lat="47.2067" lon="6.88589">
        <ele>708.4</ele>
        <time>2021-08-12T13:05:08Z</time>
      </trkpt>
      <trkpt lat="47.20671" lon="6.88589">
        <ele>708.5</ele>
        <time>2021-08-12T13:05:10Z</time>
      </trkpt>
      <trkpt lat="47.20671" lon="6.88589">
        <ele>708.5</ele>
        <time>2021-08-12T13:05:11Z</time>
      </trkpt>
      <trkpt lat="47.20672" lon="6.88589">
        <ele>708.6</ele>
        <time>2021-08-12T13:05:12Z</time>
      </trkpt>
      <trkpt lat="47.20672" lon="6.88589">
        <ele>708.6</ele>
        <time>2021-08-12T13:05:14Z</time>
      </trkpt>
      <trkpt lat="47.20673" lon="6.88591">
        <ele>708.8</ele>
        <time>2021-08-12T13:05:16Z</time>
      </trkpt>
      <trkpt lat="47.20674" lon="6.88594">
        <ele>709</ele>
        <time>2021-08-12T13:05:17Z</time>
      </trkpt>
      <trkpt lat="47.20674" lon="6.88596">
        <ele>709.1</ele>
        <time>2021-08-12T13:05:19Z</time>
      </trkpt>
      <trkpt lat="47.20675" lon="6.88598">
        <ele>709.2</ele>
        <time>2021-08-12T13:05:20Z</time>
      </trkpt>
      <trkpt lat="47.20676" lon="6.886">
        <ele>709.4</ele>
        <time>2021-08-12T13:05:22Z</time>
      </trkpt>
      <trkpt lat="47.20676" lon="6.88602">
        <ele>709.5</ele>
        <time>2021-08-12T13:05:23Z</time>
      </trkpt>
      <trkpt lat="47.20677" lon="6.88603">
        <ele>709.5</ele>
        <time>2021-08-12T13:05:25Z</time>
      </trkpt>
      <trkpt lat="47.20677" lon="6.88604">
        <ele>709.6</ele>
        <time>2021-08-12T13:05:26Z</time>
      </trkpt>
      <trkpt lat="47.20677" lon="6.88605">
        <ele>709.6</ele>
        <time>2021-08-12T13:05:28Z</time>
      </trkpt>
      <trkpt lat="47.20677" lon="6.88605">
        <ele>709.7</ele>
        <time>2021-08-12T13:05:30Z</time>
      </trkpt>
      <trkpt lat="47.20676" lon="6.88605">
        <ele>709.7</ele>
        <time>2021-08-12T13:05:33Z</time>
      </trkpt>
      <trkpt lat="47.20676" lon="6.88605">
        <ele>709.7</ele>
        <time>2021-08-12T13:05:35Z</time>
      </trkpt>
      <trkpt lat="47.20676" lon="6.88605">
        <ele>709.7</ele>
        <time>2021-08-12T13:05:36Z</time>
      </trkpt>
      <trkpt lat="47.20676" lon="6.88606">
        <ele>709.7</ele>
        <time>2021-08-12T13:05:38Z</time>
      </trkpt>
      <trkpt lat="47.20678" lon="6.88605">
        <ele>709.9</ele>
        <time>2021-08-12T13:05:40Z</time>
      </trkpt>
      <trkpt lat="47.2068" lon="6.88603">
        <ele>710</ele>
        <time>2021-08-12T13:05:41Z</time>
      </trkpt>
      <trkpt lat="47.20682" lon="6.88603">
        <ele>710.2</ele>
        <time>2021-08-12T13:05:43Z</time>
      </trkpt>
      <trkpt lat="47.20683" lon="6.88603">
        <ele>710.3</ele>
        <time>2021-08-12T13:05:44Z</time>
      </trkpt>
      <trkpt lat="47.20684" lon="6.88603">
        <ele>710.4</ele>
        <time>2021-08-12T13:05:46Z</time>
      </trkpt>
      <trkpt lat="47.20685" lon="6.88603">
        <ele>710.5</ele>
        <time>2021-08-12T13:05:47Z</time>
      </trkpt>
      <trkpt lat="47.20686" lon="6.88603">
        <ele>710.5</ele>
        <time>2021-08-12T13:05:49Z</time>
      </trkpt>
      <trkpt lat="47.20686" lon="6.88602">
        <ele>710.6</ele>
        <time>2021-08-12T13:05:50Z</time>
      </trkpt>
      <trkpt lat="47.2069" lon="6.88602">
        <ele>710.9</ele>
        <time>2021-08-12T13:05:52Z</time>
      </trkpt>
      <trkpt lat="47.20691" lon="6.88602">
        <ele>711</ele>
        <time>2021-08-12T13:05:53Z</time>
      </trkpt>
      <trkpt lat="47.20692" lon="6.88602">
        <ele>711.2</ele>
        <time>2021-08-12T13:05:55Z</time>
      </trkpt>
      <trkpt lat="47.20693" lon="6.88602">
        <ele>711.2</ele>
        <time>2021-08-12T13:05:56Z</time>
      </trkpt>
      <trkpt lat="47.20693" lon="6.88602">
        <ele>711.3</ele>
        <time>2021-08-12T13:05:58Z</time>
      </trkpt>
      <trkpt lat="47.20693" lon="6.88603">
        <ele>711.3</ele>
        <time>2021-08-12T13:05:59Z</time>
      </trkpt>
      <trkpt lat="47.20694" lon="6.88603">
        <ele>711.3</ele>
        <time>2021-08-12T13:06:01Z</time>
      </trkpt>
      <trkpt lat="47.20694" lon="6.88604">
        <ele>711.4</ele>
        <time>2021-08-12T13:06:02Z</time>
      </trkpt>
      <trkpt lat="47.20694" lon="6.88604">
        <ele>711.4</ele>
        <time>2021-08-12T13:06:03Z</time>
      </trkpt>
      <trkpt lat="47.20694" lon="6.88604">
        <ele>711.4</ele>
        <time>2021-08-12T13:06:04Z</time>
      </trkpt>
      <trkpt lat="47.20695" lon="6.88605">
        <ele>711.5</ele>
        <time>2021-08-12T13:06:05Z</time>
      </trkpt>
      <trkpt lat="47.20695" lon="6.88605">
        <ele>711.5</ele>
        <time>2021-08-12T13:06:07Z</time>
      </trkpt>
      <trkpt lat="47.20695" lon="6.88606">
        <ele>711.6</ele>
        <time>2021-08-12T13:06:09Z</time>
      </trkpt>
      <trkpt lat="47.20696" lon="6.88606">
        <ele>711.6</ele>
        <time>2021-08-12T13:06:10Z</time>
      </trkpt>
      <trkpt lat="47.20696" lon="6.88606">
        <ele>711.6</ele>
        <time>2021-08-12T13:06:11Z</time>
      </trkpt>
      <trkpt lat="47.20696" lon="6.88607">
        <ele>711.7</ele>
        <time>2021-08-12T13:06:13Z</time>
      </trkpt>
      <trkpt lat="47.20697" lon="6.88607">
        <ele>711.7</ele>
        <time>2021-08-12T13:06:15Z</time>
      </trkpt>
      <trkpt lat="47.20697" lon="6.88608">
        <ele>711.8</ele>
        <time>2021-08-12T13:06:16Z</time>
      </trkpt>
      <trkpt lat="47.20697" lon="6.88609">
        <ele>711.8</ele>
        <time>2021-08-12T13:06:17Z</time>
      </trkpt>
      <trkpt lat="47.20698" lon="6.88613">
        <ele>712.1</ele>
        <time>2021-08-12T13:06:19Z</time>
      </trkpt>
      <trkpt lat="47.20699" lon="6.88614">
        <ele>712.2</ele>
        <time>2021-08-12T13:06:20Z</time>
      </trkpt>
      <trkpt lat="47.20699" lon="6.88618">
        <ele>712.5</ele>
        <time>2021-08-12T13:06:21Z</time>
      </trkpt>
      <trkpt lat="47.207" lon="6.88621">
        <ele>712.7</ele>
        <time>2021-08-12T13:06:23Z</time>
      </trkpt>
      <trkpt lat="47.207" lon="6.88622">
        <ele>712.8</ele>
        <time>2021-08-12T13:06:24Z</time>
      </trkpt>
      <trkpt lat="47.207" lon="6.88624">
        <ele>712.9</ele>
        <time>2021-08-12T13:06:25Z</time>
      </trkpt>
      <trkpt lat="47.20701" lon="6.88626">
        <ele>713</ele>
        <time>2021-08-12T13:06:26Z</time>
      </trkpt>
      <trkpt lat="47.20702" lon="6.8863">
        <ele>713.3</ele>
        <time>2021-08-12T13:06:28Z</time>
      </trkpt>
      <trkpt lat="47.207" lon="6.88634">
        <ele>713.7</ele>
        <time>2021-08-12T13:06:29Z</time>
      </trkpt>
      <trkpt lat="47.207" lon="6.88636">
        <ele>713.8</ele>
        <time>2021-08-12T13:06:31Z</time>
      </trkpt>
      <trkpt lat="47.207" lon="6.88638">
        <ele>714</ele>
        <time>2021-08-12T13:06:32Z</time>
      </trkpt>
      <trkpt lat="47.207" lon="6.8864">
        <ele>714.1</ele>
        <time>2021-08-12T13:06:34Z</time>
      </trkpt>
      <trkpt lat="47.207" lon="6.88643">
        <ele>714.3</ele>
        <time>2021-08-12T13:06:36Z</time>
      </trkpt>
      <trkpt lat="47.21107" lon="6.88806">
        <ele>789.5</ele>
        <time>2021-08-12T13:22:05Z</time>
      </trkpt>
      <trkpt lat="47.2111" lon="6.88809">
        <ele>789.7</ele>
        <time>2021-08-12T13:22:06Z</time>
      </trkpt>
      <trkpt lat="47.21112" lon="6.88812">
        <ele>789.8</ele>
        <time>2021-08-12T13:22:07Z</time>
      </trkpt>
      <trkpt lat="47.21112" lon="6.88817">
        <ele>790</ele>
        <time>2021-08-12T13:22:09Z</time>
      </trkpt>
      <trkpt lat="47.21111" lon="6.88818">
        <ele>790</ele>
        <time>2021-08-12T13:22:10Z</time>
      </trkpt>
      <trkpt lat="47.21112" lon="6.88825">
        <ele>790.3</ele>
        <time>2021-08-12T13:22:12Z</time>
      </trkpt>
      <trkpt lat="47.21112" lon="6.88831">
        <ele>790.5</ele>
        <time>2021-08-12T13:22:13Z</time>
      </trkpt>
      <trkpt lat="47.21112" lon="6.88837">
        <ele>790.7</ele>
        <time>2021-08-12T13:22:14Z</time>
      </trkpt>
      <trkpt lat="47.21113" lon="6.88848">
        <ele>791.1</ele>
        <time>2021-08-12T13:22:16Z</time>
      </trkpt>
      <trkpt lat="47.21113" lon="6.88851">
        <ele>791.3</ele>
        <time>2021-08-12T13:22:17Z</time>
      </trkpt>
      <trkpt lat="47.21113" lon="6.88851">
        <ele>791.3</ele>
        <time>2021-08-12T13:22:19Z</time>
      </trkpt>
      <trkpt lat="47.21113" lon="6.88852">
        <ele>791.3</ele>
        <time>2021-08-12T13:22:20Z</time>
      </trkpt>
      <trkpt lat="47.21114" lon="6.88853">
        <ele>791.4</ele>
        <time>2021-08-12T13:22:22Z</time>
      </trkpt>
      <trkpt lat="47.21114" lon="6.88853">
        <ele>791.4</ele>
        <time>2021-08-12T13:22:23Z</time>
      </trkpt>
      <trkpt lat="47.21115" lon="6.88859">
        <ele>791.7</ele>
        <time>2021-08-12T13:22:24Z</time>
      </trkpt>
      <trkpt lat="47.21115" lon="6.88861">
        <ele>791.8</ele>
        <time>2021-08-12T13:22:26Z</time>
      </trkpt>
      <trkpt lat="47.21116" lon="6.88862">
        <ele>791.8</ele>
        <time>2021-08-12T13:22:27Z</time>
      </trkpt>
      <trkpt lat="47.21116" lon="6.88863">
        <ele>791.9</ele>
        <time>2021-08-12T13:22:28Z</time>
      </trkpt>
      <trkpt lat="47.21117" lon="6.88865">
        <ele>792</ele>
        <time>2021-08-12T13:22:30Z</time>
      </trkpt>
      <trkpt lat="47.21118" lon="6.88866">
        <ele>792.1</ele>
        <time>2021-08-12T13:22:31Z</time>
      </trkpt>
      <trkpt lat="47.21118" lon="6.88866">
        <ele>792.1</ele>
        <time>2021-08-12T13:22:32Z</time>
      </trkpt>
      <trkpt lat="47.21118" lon="6.88867">
        <ele>792.1</ele>
        <time>2021-08-12T13:22:33Z</time>
      </trkpt>
      <trkpt lat="47.21119" lon="6.88867">
        <ele>792.1</ele>
        <time>2021-08-12T13:22:35Z</time>
      </trkpt>
      <trkpt lat="47.2112" lon="6.88867">
        <ele>792.3</ele>
        <time>2021-08-12T13:22:36Z</time>
      </trkpt>
      <trkpt lat="47.21122" lon="6.88866">
        <ele>792.4</ele>
        <time>2021-08-12T13:22:38Z</time>
      </trkpt>
      <trkpt lat="47.21123" lon="6.88866">
        <ele>792.5</ele>
        <time>2021-08-12T13:22:39Z</time>
      </trkpt>
      <trkpt lat="47.21124" lon="6.88865">
        <ele>792.5</ele>
        <time>2021-08-12T13:22:40Z</time>
      </trkpt>
      <trkpt lat="47.21123" lon="6.88864">
        <ele>792.6</ele>
        <time>2021-08-12T13:22:41Z</time>
      </trkpt>
      <trkpt lat="47.21123" lon="6.88864">
        <ele>792.6</ele>
        <time>2021-08-12T13:22:42Z</time>
      </trkpt>
      <trkpt lat="47.21123" lon="6.88863">
        <ele>792.7</ele>
        <time>2021-08-12T13:22:43Z</time>
      </trkpt>
      <trkpt lat="47.21122" lon="6.88862">
        <ele>792.7</ele>
        <time>2021-08-12T13:22:45Z</time>
      </trkpt>
      <trkpt lat="47.21122" lon="6.88862">
        <ele>792.7</ele>
        <time>2021-08-12T13:22:46Z</time>
      </trkpt>
      <trkpt lat="47.21122" lon="6.88861">
        <ele>792.8</ele>
        <time>2021-08-12T13:22:47Z</time>
      </trkpt>
      <trkpt lat="47.21121" lon="6.8886">
        <ele>792.9</ele>
        <time>2021-08-12T13:22:49Z</time>
      </trkpt>
      <trkpt lat="47.2112" lon="6.88859">
        <ele>793</ele>
        <time>2021-08-12T13:22:50Z</time>
      </trkpt>
      <trkpt lat="47.21119" lon="6.88858">
        <ele>793</ele>
        <time>2021-08-12T13:22:51Z</time>
      </trkpt>
      <trkpt lat="47.21119" lon="6.88857">
        <ele>793.1</ele>
        <time>2021-08-12T13:22:53Z</time>
      </trkpt>
      <trkpt lat="47.21119" lon="6.88856">
        <ele>793.1</ele>
        <time>2021-08-12T13:22:54Z</time>
      </trkpt>
      <trkpt lat="47.21118" lon="6.88854">
        <ele>793.2</ele>
        <time>2021-08-12T13:22:55Z</time>
      </trkpt>
      <trkpt lat="47.21118" lon="6.88852">
        <ele>793.3</ele>
        <time>2021-08-12T13:22:56Z</time>
      </trkpt>
      <trkpt lat="47.21118" lon="6.88851">
        <ele>793.4</ele>
        <time>2021-08-12T13:22:58Z</time>
      </trkpt>
      <trkpt lat="47.21119" lon="6.88849">
        <ele>793.5</ele>
        <time>2021-08-12T13:22:59Z</time>
      </trkpt>
      <trkpt lat="47.21119" lon="6.88847">
        <ele>793.6</ele>
        <time>2021-08-12T13:23:00Z</time>
      </trkpt>
      <trkpt lat="47.2112" lon="6.88846">
        <ele>793.7</ele>
        <time>2021-08-12T13:23:02Z</time>
      </trkpt>
      <trkpt lat="47.2112" lon="6.88845">
        <ele>793.8</ele>
        <time>2021-08-12T13:23:03Z</time>
      </trkpt>
      <trkpt lat="47.21121" lon="6.88844">
        <ele>793.8</ele>
        <time>2021-08-12T13:23:05Z</time>
      </trkpt>
      <trkpt lat="47.21121" lon="6.88843">
        <ele>793.9</ele>
        <time>2021-08-12T13:23:06Z</time>
      </trkpt>
      <trkpt lat="47.21121" lon="6.88842">
        <ele>793.9</ele>
        <time>2021-08-12T13:23:08Z</time>
      </trkpt>
      <trkpt lat="47.21121" lon="6.88841">
        <ele>794</ele>
        <time>2021-08-12T13:23:09Z</time>
      </trkpt>
      <trkpt lat="47.21121" lon="6.8884">
        <ele>794</ele>
        <time>2021-08-12T13:23:10Z</time>
      </trkpt>
      <trkpt lat="47.21122" lon="6.88839">
        <ele>794.1</ele>
        <time>2021-08-12T13:23:12Z</time>
      </trkpt>
      <trkpt lat="47.21122" lon="6.88837">
        <ele>794.2</ele>
        <time>2021-08-12T13:23:14Z</time>
      </trkpt>
      <trkpt lat="47.21122" lon="6.88837">
        <ele>794.2</ele>
        <time>2021-08-12T13:23:15Z</time>
      </trkpt>
      <trkpt lat="47.21122" lon="6.88836">
        <ele>794.2</ele>
        <time>2021-08-12T13:23:16Z</time>
      </trkpt>
      <trkpt lat="47.21122" lon="6.88834">
        <ele>794.3</ele>
        <time>2021-08-12T13:23:18Z</time>
      </trkpt>
      <trkpt lat="47.21122" lon="6.88833">
        <ele>794.4</ele>
        <time>2021-08-12T13:23:19Z</time>
      </trkpt>
      <trkpt lat="47.21122" lon="6.88832">
        <ele>794.4</ele>
        <time>2021-08-12T13:23:20Z</time>
      </trkpt>
      <trkpt lat="47.21121" lon="6.8883">
        <ele>794.5</ele>
        <time>2021-08-12T13:23:22Z</time>
      </trkpt>
      <trkpt lat="47.21121" lon="6.88829">
        <ele>794.6</ele>
        <time>2021-08-12T13:23:24Z</time>
      </trkpt>
      <trkpt lat="47.21121" lon="6.88829">
        <ele>794.6</ele>
        <time>2021-08-12T13:23:25Z</time>
      </trkpt>
      <trkpt lat="47.21121" lon="6.88828">
        <ele>794.6</ele>
        <time>2021-08-12T13:23:26Z</time>
      </trkpt>
      <trkpt lat="47.21121" lon="6.88827">
        <ele>794.7</ele>
        <time>2021-08-12T13:23:27Z</time>
      </trkpt>
      <trkpt lat="47.21121" lon="6.88827">
        <ele>794.7</ele>
        <time>2021-08-12T13:23:28Z</time>
      </trkpt>
      <trkpt lat="47.21121" lon="6.88825">
        <ele>794.8</ele>
        <time>2021-08-12T13:23:30Z</time>
      </trkpt>
      <trkpt lat="47.2112" lon="6.88821">
        <ele>795</ele>
        <time>2021-08-12T13:23:32Z</time>
      </trkpt>
      <trkpt lat="47.2112" lon="6.88816">
        <ele>795.2</ele>
        <time>2021-08-12T13:23:33Z</time>
      </trkpt>
      <trkpt lat="47.21119" lon="6.88814">
        <ele>795.3</ele>
        <time>2021-08-12T13:23:34Z</time>
      </trkpt>
      <trkpt lat="47.21118" lon="6.8881">
        <ele>795.5</ele>
        <time>2021-08-12T13:23:36Z</time>
      </trkpt>
      <trkpt lat="47.21117" lon="6.88808">
        <ele>795.6</ele>
        <time>2021-08-12T13:23:37Z</time>
      </trkpt>
      <trkpt lat="47.21114" lon="6.88796">
        <ele>796.2</ele>
        <time>2021-08-12T13:23:38Z</time>
      </trkpt>
      <trkpt lat="47.21111" lon="6.88787">
        <ele>796.6</ele>
        <time>2021-08-12T13:23:40Z</time>
      </trkpt>
      <trkpt lat="47.21108" lon="6.88778">
        <ele>797</ele>
        <time>2021-08-12T13:23:41Z</time>
      </trkpt>
      <trkpt lat="47.21106" lon="6.88769">
        <ele>797.4</ele>
        <time>2021-08-12T13:23:43Z</time>
      </trkpt>
      <trkpt lat="47.21103" lon="6.8876">
        <ele>797.9</ele>
        <time>2021-08-12T13:23:44Z</time>
      </trkpt>
      <trkpt lat="47.211" lon="6.88751">
        <ele>798.3</ele>
        <time>2021-08-12T13:23:45Z</time>
      </trkpt>
      <trkpt lat="47.21098" lon="6.88742">
        <ele>798.8</ele>
        <time>2021-08-12T13:23:46Z</time>
      </trkpt>
      <trkpt lat="47.21095" lon="6.88733">
        <ele>799.3</ele>
        <time>2021-08-12T13:23:47Z</time>
      </trkpt>
      <trkpt lat="47.21092" lon="6.88723">
        <ele>799.9</ele>
        <time>2021-08-12T13:24:50Z</time>
      </trkpt>
      <trkpt lat="47.21089" lon="6.88714">
        <ele>800.4</ele>
        <time>2021-08-12T13:24:52Z</time>
      </trkpt>
      <trkpt lat="47.21087" lon="6.88705">
        <ele>801</ele>
        <time>2021-08-12T13:24:53Z</time>
      </trkpt>
      <trkpt lat="47.21086" lon="6.88703">
        <ele>801.1</ele>
        <time>2021-08-12T13:24:55Z</time>
      </trkpt>
      <trkpt lat="47.21085" lon="6.88701">
        <ele>801.2</ele>
        <time>2021-08-12T13:24:56Z</time>
      </trkpt>
      <trkpt lat="47.21083" lon="6.887">
        <ele>801.4</ele>
        <time>2021-08-12T13:24:58Z</time>
      </trkpt>
      <trkpt lat="47.21082" lon="6.88699">
        <ele>801.4</ele>
        <time>2021-08-12T13:24:59Z</time>
      </trkpt>
      <trkpt lat="47.21082" lon="6.88699">
        <ele>801.5</ele>
        <time>2021-08-12T13:25:00Z</time>
      </trkpt>
      <trkpt lat="47.21081" lon="6.88698">
        <ele>801.5</ele>
        <time>2021-08-12T13:25:01Z</time>
      </trkpt>
      <trkpt lat="47.21081" lon="6.88698">
        <ele>801.6</ele>
        <time>2021-08-12T13:25:03Z</time>
      </trkpt>
      <trkpt lat="47.21081" lon="6.88698">
        <ele>801.6</ele>
        <time>2021-08-12T13:25:04Z</time>
      </trkpt>
      <trkpt lat="47.21081" lon="6.88697">
        <ele>801.6</ele>
        <time>2021-08-12T13:25:05Z</time>
      </trkpt>
      <trkpt lat="47.2108" lon="6.88697">
        <ele>801.7</ele>
        <time>2021-08-12T13:25:08Z</time>
      </trkpt>
      <trkpt lat="47.21043" lon="6.88636">
        <ele>804.5</ele>
        <time>2021-08-12T13:25:58Z</time>
      </trkpt>
      <trkpt lat="47.21042" lon="6.88634">
        <ele>804.5</ele>
        <time>2021-08-12T13:25:59Z</time>
      </trkpt>
      <trkpt lat="47.21041" lon="6.88634">
        <ele>804.6</ele>
        <time>2021-08-12T13:26:00Z</time>
      </trkpt>
      <trkpt lat="47.2104" lon="6.88633">
        <ele>804.6</ele>
        <time>2021-08-12T13:26:02Z</time>
      </trkpt>
      <trkpt lat="47.21039" lon="6.88631">
        <ele>804.6</ele>
        <time>2021-08-12T13:26:04Z</time>
      </trkpt>
      <trkpt lat="47.21039" lon="6.88631">
        <ele>804.7</ele>
        <time>2021-08-12T13:26:05Z</time>
      </trkpt>
      <trkpt lat="47.21038" lon="6.8863">
        <ele>804.7</ele>
        <time>2021-08-12T13:26:07Z</time>
      </trkpt>
      <trkpt lat="47.21037" lon="6.88629">
        <ele>804.7</ele>
        <time>2021-08-12T13:26:08Z</time>
      </trkpt>
      <trkpt lat="47.21036" lon="6.88627">
        <ele>804.8</ele>
        <time>2021-08-12T13:26:09Z</time>
      </trkpt>
      <trkpt lat="47.21036" lon="6.88625">
        <ele>804.8</ele>
        <time>2021-08-12T13:26:11Z</time>
      </trkpt>
      <trkpt lat="47.21035" lon="6.88625">
        <ele>804.8</ele>
        <time>2021-08-12T13:26:12Z</time>
      </trkpt>
      <trkpt lat="47.21035" lon="6.88623">
        <ele>804.9</ele>
        <time>2021-08-12T13:26:14Z</time>
      </trkpt>
      <trkpt lat="47.21034" lon="6.88623">
        <ele>804.9</ele>
        <time>2021-08-12T13:26:15Z</time>
      </trkpt>
      <trkpt lat="47.21034" lon="6.88622">
        <ele>804.9</ele>
        <time>2021-08-12T13:26:16Z</time>
      </trkpt>
      <trkpt lat="47.21034" lon="6.88622">
        <ele>804.9</ele>
        <time>2021-08-12T13:26:18Z</time>
      </trkpt>
      <trkpt lat="47.21033" lon="6.88621">
        <ele>804.9</ele>
        <time>2021-08-12T13:26:19Z</time>
      </trkpt>
      <trkpt lat="47.21033" lon="6.88621">
        <ele>804.9</ele>
        <time>2021-08-12T13:26:21Z</time>
      </trkpt>
      <trkpt lat="47.21033" lon="6.8862">
        <ele>804.9</ele>
        <time>2021-08-12T13:26:23Z</time>
      </trkpt>
      <trkpt lat="47.21032" lon="6.88618">
        <ele>805</ele>
        <time>2021-08-12T13:26:24Z</time>
      </trkpt>
      <trkpt lat="47.21031" lon="6.88613">
        <ele>805.1</ele>
        <time>2021-08-12T13:26:26Z</time>
      </trkpt>
      <trkpt lat="47.21029" lon="6.8861">
        <ele>805.2</ele>
        <time>2021-08-12T13:26:27Z</time>
      </trkpt>
      <trkpt lat="47.21028" lon="6.88606">
        <ele>805.3</ele>
        <time>2021-08-12T13:26:29Z</time>
      </trkpt>
      <trkpt lat="47.21026" lon="6.88602">
        <ele>805.4</ele>
        <time>2021-08-12T13:26:30Z</time>
      </trkpt>
      <trkpt lat="47.21021" lon="6.88597">
        <ele>805.5</ele>
        <time>2021-08-12T13:26:31Z</time>
      </trkpt>
      <trkpt lat="47.21018" lon="6.88592">
        <ele>805.7</ele>
        <time>2021-08-12T13:26:33Z</time>
      </trkpt>
      <trkpt lat="47.21015" lon="6.88588">
        <ele>805.8</ele>
        <time>2021-08-12T13:26:34Z</time>
      </trkpt>
      <trkpt lat="47.21012" lon="6.88584">
        <ele>805.9</ele>
        <time>2021-08-12T13:26:35Z</time>
      </trkpt>
      <trkpt lat="47.21008" lon="6.8858">
        <ele>806.1</ele>
        <time>2021-08-12T13:26:37Z</time>
      </trkpt>
      <trkpt lat="47.21007" lon="6.88578">
        <ele>806.2</ele>
        <time>2021-08-12T13:26:38Z</time>
      </trkpt>
      <trkpt lat="47.21006" lon="6.88577">
        <ele>806.2</ele>
        <time>2021-08-12T13:26:39Z</time>
      </trkpt>
      <trkpt lat="47.21004" lon="6.88572">
        <ele>806.3</ele>
        <time>2021-08-12T13:26:40Z</time>
      </trkpt>
      <trkpt lat="47.21003" lon="6.88571">
        <ele>806.4</ele>
        <time>2021-08-12T13:26:41Z</time>
      </trkpt>
      <trkpt lat="47.21" lon="6.88566">
        <ele>806.6</ele>
        <time>2021-08-12T13:26:43Z</time>
      </trkpt>
      <trkpt lat="47.20998" lon="6.88563">
        <ele>806.7</ele>
        <time>2021-08-12T13:26:44Z</time>
      </trkpt>
      <trkpt lat="47.20996" lon="6.88557">
        <ele>806.9</ele>
        <time>2021-08-12T13:26:46Z</time>
      </trkpt>
      <trkpt lat="47.20996" lon="6.88552">
        <ele>807.1</ele>
        <time>2021-08-12T13:26:47Z</time>
      </trkpt>
      <trkpt lat="47.20995" lon="6.8855">
        <ele>807.2</ele>
        <time>2021-08-12T13:26:48Z</time>
      </trkpt>
      <trkpt lat="47.20996" lon="6.88543">
        <ele>807.4</ele>
        <time>2021-08-12T13:26:49Z</time>
      </trkpt>
      <trkpt lat="47.20997" lon="6.88539">
        <ele>807.6</ele>
        <time>2021-08-12T13:26:51Z</time>
      </trkpt>
      <trkpt lat="47.20997" lon="6.88538">
        <ele>807.7</ele>
        <time>2021-08-12T13:26:52Z</time>
      </trkpt>
      <trkpt lat="47.20997" lon="6.88535">
        <ele>807.8</ele>
        <time>2021-08-12T13:26:53Z</time>
      </trkpt>
      <trkpt lat="47.20998" lon="6.88533">
        <ele>807.9</ele>
        <time>2021-08-12T13:26:54Z</time>
      </trkpt>
      <trkpt lat="47.20997" lon="6.88531">
        <ele>808</ele>
        <time>2021-08-12T13:26:55Z</time>
      </trkpt>
      <trkpt lat="47.20997" lon="6.88528">
        <ele>808.2</ele>
        <time>2021-08-12T13:26:56Z</time>
      </trkpt>
      <trkpt lat="47.20998" lon="6.88523">
        <ele>808.5</ele>
        <time>2021-08-12T13:26:58Z</time>
      </trkpt>
      <trkpt lat="47.20998" lon="6.88518">
        <ele>808.8</ele>
        <time>2021-08-12T13:26:59Z</time>
      </trkpt>
      <trkpt lat="47.20998" lon="6.88515">
        <ele>809</ele>
        <time>2021-08-12T13:27:00Z</time>
      </trkpt>
      <trkpt lat="47.20997" lon="6.8851">
        <ele>809.3</ele>
        <time>2021-08-12T13:27:02Z</time>
      </trkpt>
      <trkpt lat="47.20996" lon="6.88509">
        <ele>809.4</ele>
        <time>2021-08-12T13:27:03Z</time>
      </trkpt>
      <trkpt lat="47.20995" lon="6.88504">
        <ele>809.8</ele>
        <time>2021-08-12T13:27:04Z</time>
      </trkpt>
      <trkpt lat="47.20994" lon="6.88503">
        <ele>809.9</ele>
        <time>2021-08-12T13:27:06Z</time>
      </trkpt>
      <trkpt lat="47.20994" lon="6.88502">
        <ele>810</ele>
        <time>2021-08-12T13:27:07Z</time>
      </trkpt>
      <trkpt lat="47.20993" lon="6.88501">
        <ele>810</ele>
        <time>2021-08-12T13:27:08Z</time>
      </trkpt>
      <trkpt lat="47.20993" lon="6.885">
        <ele>810.1</ele>
        <time>2021-08-12T13:27:09Z</time>
      </trkpt>
      <trkpt lat="47.20993" lon="6.88498">
        <ele>810.3</ele>
        <time>2021-08-12T13:27:11Z</time>
      </trkpt>
      <trkpt lat="47.20992" lon="6.88499">
        <ele>810.4</ele>
        <time>2021-08-12T13:27:12Z</time>
      </trkpt>
      <trkpt lat="47.20992" lon="6.88499">
        <ele>810.4</ele>
        <time>2021-08-12T13:27:13Z</time>
      </trkpt>
      <trkpt lat="47.20992" lon="6.88497">
        <ele>810.5</ele>
        <time>2021-08-12T13:27:14Z</time>
      </trkpt>
      <trkpt lat="47.20992" lon="6.88495">
        <ele>810.7</ele>
        <time>2021-08-12T13:27:16Z</time>
      </trkpt>
      <trkpt lat="47.20991" lon="6.88495">
        <ele>810.7</ele>
        <time>2021-08-12T13:27:18Z</time>
      </trkpt>
      <trkpt lat="47.20991" lon="6.88495">
        <ele>810.8</ele>
        <time>2021-08-12T13:27:19Z</time>
      </trkpt>
      <trkpt lat="47.20991" lon="6.88495">
        <ele>810.8</ele>
        <time>2021-08-12T13:27:21Z</time>
      </trkpt>
      <trkpt lat="47.2099" lon="6.88496">
        <ele>810.8</ele>
        <time>2021-08-12T13:27:22Z</time>
      </trkpt>
      <trkpt lat="47.2099" lon="6.88495">
        <ele>810.8</ele>
        <time>2021-08-12T13:27:24Z</time>
      </trkpt>
      <trkpt lat="47.2098" lon="6.88464">
        <ele>812.5</ele>
        <time>2021-08-12T13:27:50Z</time>
      </trkpt>
      <trkpt lat="47.20979" lon="6.8846">
        <ele>812.7</ele>
        <time>2021-08-12T13:27:51Z</time>
      </trkpt>
      <trkpt lat="47.20978" lon="6.88455">
        <ele>812.9</ele>
        <time>2021-08-12T13:27:53Z</time>
      </trkpt>
      <trkpt lat="47.20977" lon="6.88453">
        <ele>813</ele>
        <time>2021-08-12T13:27:54Z</time>
      </trkpt>
      <trkpt lat="47.20976" lon="6.88451">
        <ele>813</ele>
        <time>2021-08-12T13:27:56Z</time>
      </trkpt>
      <trkpt lat="47.20975" lon="6.88449">
        <ele>813.1</ele>
        <time>2021-08-12T13:27:57Z</time>
      </trkpt>
      <trkpt lat="47.20975" lon="6.88448">
        <ele>813.2</ele>
        <time>2021-08-12T13:27:58Z</time>
      </trkpt>
      <trkpt lat="47.20975" lon="6.88446">
        <ele>813.2</ele>
        <time>2021-08-12T13:27:59Z</time>
      </trkpt>
      <trkpt lat="47.20974" lon="6.88444">
        <ele>813.3</ele>
        <time>2021-08-12T13:28:01Z</time>
      </trkpt>
      <trkpt lat="47.20974" lon="6.88442">
        <ele>813.3</ele>
        <time>2021-08-12T13:28:02Z</time>
      </trkpt>
      <trkpt lat="47.20973" lon="6.8844">
        <ele>813.4</ele>
        <time>2021-08-12T13:28:03Z</time>
      </trkpt>
      <trkpt lat="47.20973" lon="6.88439">
        <ele>813.4</ele>
        <time>2021-08-12T13:28:05Z</time>
      </trkpt>
      <trkpt lat="47.20972" lon="6.88438">
        <ele>813.5</ele>
        <time>2021-08-12T13:28:06Z</time>
      </trkpt>
      <trkpt lat="47.20972" lon="6.88438">
        <ele>813.5</ele>
        <time>2021-08-12T13:28:07Z</time>
      </trkpt>
      <trkpt lat="47.20972" lon="6.88438">
        <ele>813.5</ele>
        <time>2021-08-12T13:28:08Z</time>
      </trkpt>
      <trkpt lat="47.20972" lon="6.88437">
        <ele>813.5</ele>
        <time>2021-08-12T13:28:09Z</time>
      </trkpt>
      <trkpt lat="47.20972" lon="6.88435">
        <ele>813.6</ele>
        <time>2021-08-12T13:28:11Z</time>
      </trkpt>
      <trkpt lat="47.20971" lon="6.88433">
        <ele>813.6</ele>
        <time>2021-08-12T13:28:12Z</time>
      </trkpt>
      <trkpt lat="47.20971" lon="6.88431">
        <ele>813.7</ele>
        <time>2021-08-12T13:28:13Z</time>
      </trkpt>
      <trkpt lat="47.2097" lon="6.88429">
        <ele>813.7</ele>
        <time>2021-08-12T13:28:15Z</time>
      </trkpt>
      <trkpt lat="47.2097" lon="6.88428">
        <ele>813.8</ele>
        <time>2021-08-12T13:28:16Z</time>
      </trkpt>
      <trkpt lat="47.2097" lon="6.88419">
        <ele>814</ele>
        <time>2021-08-12T13:28:20Z</time>
      </trkpt>
      <trkpt lat="47.2097" lon="6.88414">
        <ele>814.1</ele>
        <time>2021-08-12T13:28:22Z</time>
      </trkpt>
      <trkpt lat="47.20969" lon="6.88413">
        <ele>814.1</ele>
        <time>2021-08-12T13:28:23Z</time>
      </trkpt>
      <trkpt lat="47.20969" lon="6.88408">
        <ele>814.2</ele>
        <time>2021-08-12T13:28:24Z</time>
      </trkpt>
      <trkpt lat="47.20969" lon="6.88407">
        <ele>814.3</ele>
        <time>2021-08-12T13:28:25Z</time>
      </trkpt>
      <trkpt lat="47.20969" lon="6.88405">
        <ele>814.3</ele>
        <time>2021-08-12T13:28:26Z</time>
      </trkpt>
      <trkpt lat="47.20969" lon="6.88402">
        <ele>814.4</ele>
        <time>2021-08-12T13:28:28Z</time>
      </trkpt>
      <trkpt lat="47.20969" lon="6.884">
        <ele>814.4</ele>
        <time>2021-08-12T13:28:29Z</time>
      </trkpt>
      <trkpt lat="47.20968" lon="6.88398">
        <ele>814.5</ele>
        <time>2021-08-12T13:28:30Z</time>
      </trkpt>
      <trkpt lat="47.20968" lon="6.88396">
        <ele>814.5</ele>
        <time>2021-08-12T13:28:31Z</time>
      </trkpt>
      <trkpt lat="47.20967" lon="6.88394">
        <ele>814.6</ele>
        <time>2021-08-12T13:28:33Z</time>
      </trkpt>
      <trkpt lat="47.20966" lon="6.88393">
        <ele>814.6</ele>
        <time>2021-08-12T13:28:34Z</time>
      </trkpt>
      <trkpt lat="47.20965" lon="6.88393">
        <ele>814.7</ele>
        <time>2021-08-12T13:28:35Z</time>
      </trkpt>
      <trkpt lat="47.20965" lon="6.88393">
        <ele>814.7</ele>
        <time>2021-08-12T13:28:36Z</time>
      </trkpt>
      <trkpt lat="47.20965" lon="6.88392">
        <ele>814.7</ele>
        <time>2021-08-12T13:28:37Z</time>
      </trkpt>
      <trkpt lat="47.20964" lon="6.88392">
        <ele>814.7</ele>
        <time>2021-08-12T13:28:39Z</time>
      </trkpt>
      <trkpt lat="47.20964" lon="6.88392">
        <ele>814.7</ele>
        <time>2021-08-12T13:28:40Z</time>
      </trkpt>
      <trkpt lat="47.20964" lon="6.88392">
        <ele>814.7</ele>
        <time>2021-08-12T13:28:41Z</time>
      </trkpt>
      <trkpt lat="47.20964" lon="6.88393">
        <ele>814.7</ele>
        <time>2021-08-12T13:28:42Z</time>
      </trkpt>
      <trkpt lat="47.20964" lon="6.88393">
        <ele>814.7</ele>
        <time>2021-08-12T13:28:43Z</time>
      </trkpt>
      <trkpt lat="47.20964" lon="6.88393">
        <ele>814.7</ele>
        <time>2021-08-12T13:28:45Z</time>
      </trkpt>
      <trkpt lat="47.20964" lon="6.88393">
        <ele>814.7</ele>
        <time>2021-08-12T13:28:46Z</time>
      </trkpt>
      <trkpt lat="47.20965" lon="6.88392">
        <ele>814.8</ele>
        <time>2021-08-12T13:28:47Z</time>
      </trkpt>
      <trkpt lat="47.20965" lon="6.8839">
        <ele>814.8</ele>
        <time>2021-08-12T13:28:48Z</time>
      </trkpt>
      <trkpt lat="47.20975" lon="6.88353">
        <ele>816.3</ele>
        <time>2021-08-12T13:28:50Z</time>
      </trkpt>
      <trkpt lat="47.20984" lon="6.88319">
        <ele>820.2</ele>
        <time>2021-08-12T13:30:20Z</time>
      </trkpt>
      <trkpt lat="47.20993" lon="6.88285">
        <ele>821.5</ele>
        <time>2021-08-12T13:30:21Z</time>
      </trkpt>
      <trkpt lat="47.20995" lon="6.88276">
        <ele>821.5</ele>
        <time>2021-08-12T13:30:22Z</time>
      </trkpt>
      <trkpt lat="47.20998" lon="6.88266">
        <ele>821.5</ele>
        <time>2021-08-12T13:30:24Z</time>
      </trkpt>
      <trkpt lat="47.21" lon="6.88262">
        <ele>822.3</ele>
        <time>2021-08-12T13:30:25Z</time>
      </trkpt>
      <trkpt lat="47.21001" lon="6.88258">
        <ele>822.7</ele>
        <time>2021-08-12T13:30:26Z</time>
      </trkpt>
      <trkpt lat="47.21001" lon="6.88253">
        <ele>823</ele>
        <time>2021-08-12T13:30:28Z</time>
      </trkpt>
      <trkpt lat="47.21001" lon="6.88252">
        <ele>823.2</ele>
        <time>2021-08-12T13:30:29Z</time>
      </trkpt>
      <trkpt lat="47.21003" lon="6.88248">
        <ele>823.6</ele>
        <time>2021-08-12T13:30:30Z</time>
      </trkpt>
      <trkpt lat="47.21003" lon="6.88246">
        <ele>823.7</ele>
        <time>2021-08-12T13:30:31Z</time>
      </trkpt>
      <trkpt lat="47.21004" lon="6.88244">
        <ele>823.9</ele>
        <time>2021-08-12T13:30:32Z</time>
      </trkpt>
      <trkpt lat="47.21004" lon="6.88243">
        <ele>824</ele>
        <time>2021-08-12T13:30:33Z</time>
      </trkpt>
      <trkpt lat="47.21004" lon="6.8824">
        <ele>824.2</ele>
        <time>2021-08-12T13:30:35Z</time>
      </trkpt>
      <trkpt lat="47.21005" lon="6.88233">
        <ele>824.8</ele>
        <time>2021-08-12T13:30:37Z</time>
      </trkpt>
      <trkpt lat="47.21006" lon="6.8823">
        <ele>825.1</ele>
        <time>2021-08-12T13:30:38Z</time>
      </trkpt>
      <trkpt lat="47.21007" lon="6.88225">
        <ele>825.6</ele>
        <time>2021-08-12T13:30:40Z</time>
      </trkpt>
      <trkpt lat="47.21009" lon="6.8822">
        <ele>826</ele>
        <time>2021-08-12T13:30:41Z</time>
      </trkpt>
      <trkpt lat="47.21009" lon="6.88219">
        <ele>826.1</ele>
        <time>2021-08-12T13:30:42Z</time>
      </trkpt>
      <trkpt lat="47.21012" lon="6.88215">
        <ele>826.6</ele>
        <time>2021-08-12T13:30:43Z</time>
      </trkpt>
      <trkpt lat="47.21014" lon="6.88211">
        <ele>827.1</ele>
        <time>2021-08-12T13:30:45Z</time>
      </trkpt>
      <trkpt lat="47.21015" lon="6.8821">
        <ele>827.4</ele>
        <time>2021-08-12T13:30:46Z</time>
      </trkpt>
      <trkpt lat="47.21018" lon="6.88208">
        <ele>827.8</ele>
        <time>2021-08-12T13:30:47Z</time>
      </trkpt>
      <trkpt lat="47.21019" lon="6.88206">
        <ele>828.1</ele>
        <time>2021-08-12T13:30:49Z</time>
      </trkpt>
      <trkpt lat="47.2102" lon="6.88205">
        <ele>828.5</ele>
        <time>2021-08-12T13:30:51Z</time>
      </trkpt>
      <trkpt lat="47.21019" lon="6.88204">
        <ele>828.7</ele>
        <time>2021-08-12T13:30:52Z</time>
      </trkpt>
      <trkpt lat="47.21019" lon="6.88203">
        <ele>828.8</ele>
        <time>2021-08-12T13:30:53Z</time>
      </trkpt>
      <trkpt lat="47.21019" lon="6.88203">
        <ele>828.8</ele>
        <time>2021-08-12T13:30:54Z</time>
      </trkpt>
      <trkpt lat="47.21019" lon="6.88203">
        <ele>828.8</ele>
        <time>2021-08-12T13:30:55Z</time>
      </trkpt>
      <trkpt lat="47.21019" lon="6.88203">
        <ele>828.8</ele>
        <time>2021-08-12T13:30:57Z</time>
      </trkpt>
      <trkpt lat="47.21019" lon="6.88203">
        <ele>828.8</ele>
        <time>2021-08-12T13:30:58Z</time>
      </trkpt>
      <trkpt lat="47.21019" lon="6.88202">
        <ele>828.9</ele>
        <time>2021-08-12T13:30:59Z</time>
      </trkpt>
      <trkpt lat="47.20983" lon="6.88137">
        <ele>839</ele>
        <time>2021-08-12T13:33:25Z</time>
      </trkpt>
      <trkpt lat="47.20981" lon="6.88137">
        <ele>839.3</ele>
        <time>2021-08-12T13:33:27Z</time>
      </trkpt>
      <trkpt lat="47.2098" lon="6.88137">
        <ele>839.6</ele>
        <time>2021-08-12T13:33:28Z</time>
      </trkpt>
      <trkpt lat="47.20978" lon="6.88137">
        <ele>839.8</ele>
        <time>2021-08-12T13:33:29Z</time>
      </trkpt>
      <trkpt lat="47.20977" lon="6.88137">
        <ele>840</ele>
        <time>2021-08-12T13:33:31Z</time>
      </trkpt>
      <trkpt lat="47.20977" lon="6.88138">
        <ele>840.1</ele>
        <time>2021-08-12T13:33:32Z</time>
      </trkpt>
      <trkpt lat="47.20975" lon="6.88138">
        <ele>840.2</ele>
        <time>2021-08-12T13:33:33Z</time>
      </trkpt>
      <trkpt lat="47.20975" lon="6.88138">
        <ele>840.3</ele>
        <time>2021-08-12T13:33:34Z</time>
      </trkpt>
      <trkpt lat="47.20974" lon="6.88138">
        <ele>840.4</ele>
        <time>2021-08-12T13:33:36Z</time>
      </trkpt>
      <trkpt lat="47.20974" lon="6.88138">
        <ele>840.5</ele>
        <time>2021-08-12T13:33:37Z</time>
      </trkpt>
      <trkpt lat="47.20974" lon="6.88138">
        <ele>840.5</ele>
        <time>2021-08-12T13:33:38Z</time>
      </trkpt>
      <trkpt lat="47.20973" lon="6.88138">
        <ele>840.6</ele>
        <time>2021-08-12T13:33:40Z</time>
      </trkpt>
      <trkpt lat="47.20973" lon="6.88138">
        <ele>840.7</ele>
        <time>2021-08-12T13:33:41Z</time>
      </trkpt>
      <trkpt lat="47.20972" lon="6.88138">
        <ele>840.8</ele>
        <time>2021-08-12T13:33:42Z</time>
      </trkpt>
      <trkpt lat="47.20969" lon="6.88137">
        <ele>841.3</ele>
        <time>2021-08-12T13:33:44Z</time>
      </trkpt>
      <trkpt lat="47.20967" lon="6.88137">
        <ele>841.6</ele>
        <time>2021-08-12T13:33:45Z</time>
      </trkpt>
      <trkpt lat="47.20966" lon="6.88136">
        <ele>841.8</ele>
        <time>2021-08-12T13:33:47Z</time>
      </trkpt>
      <trkpt lat="47.20965" lon="6.88135">
        <ele>841.9</ele>
        <time>2021-08-12T13:33:48Z</time>
      </trkpt>
      <trkpt lat="47.20963" lon="6.88135">
        <ele>842.3</ele>
        <time>2021-08-12T13:33:49Z</time>
      </trkpt>
      <trkpt lat="47.20961" lon="6.88134">
        <ele>842.5</ele>
        <time>2021-08-12T13:33:51Z</time>
      </trkpt>
      <trkpt lat="47.2096" lon="6.88134">
        <ele>842.7</ele>
        <time>2021-08-12T13:33:52Z</time>
      </trkpt>
      <trkpt lat="47.20957" lon="6.88134">
        <ele>843.2</ele>
        <time>2021-08-12T13:33:53Z</time>
      </trkpt>
      <trkpt lat="47.20956" lon="6.88133">
        <ele>843.3</ele>
        <time>2021-08-12T13:33:54Z</time>
      </trkpt>
      <trkpt lat="47.20954" lon="6.88133">
        <ele>843.6</ele>
        <time>2021-08-12T13:33:56Z</time>
      </trkpt>
      <trkpt lat="47.20953" lon="6.88133">
        <ele>843.8</ele>
        <time>2021-08-12T13:33:57Z</time>
      </trkpt>
      <trkpt lat="47.20952" lon="6.88133">
        <ele>843.9</ele>
        <time>2021-08-12T13:33:58Z</time>
      </trkpt>
      <trkpt lat="47.2095" lon="6.88133">
        <ele>844.1</ele>
        <time>2021-08-12T13:34:00Z</time>
      </trkpt>
      <trkpt lat="47.2095" lon="6.88133">
        <ele>844.2</ele>
        <time>2021-08-12T13:34:01Z</time>
      </trkpt>
      <trkpt lat="47.20948" lon="6.88132">
        <ele>844.5</ele>
        <time>2021-08-12T13:34:03Z</time>
      </trkpt>
      <trkpt lat="47.20946" lon="6.88131">
        <ele>844.7</ele>
        <time>2021-08-12T13:34:04Z</time>
      </trkpt>
      <trkpt lat="47.20945" lon="6.8813">
        <ele>844.9</ele>
        <time>2021-08-12T13:34:05Z</time>
      </trkpt>
      <trkpt lat="47.20945" lon="6.8813">
        <ele>845</ele>
        <time>2021-08-12T13:34:07Z</time>
      </trkpt>
      <trkpt lat="47.20944" lon="6.88129">
        <ele>845.1</ele>
        <time>2021-08-12T13:34:09Z</time>
      </trkpt>
      <trkpt lat="47.20944" lon="6.88128">
        <ele>845.2</ele>
        <time>2021-08-12T13:34:10Z</time>
      </trkpt>
      <trkpt lat="47.20944" lon="6.88128">
        <ele>845.2</ele>
        <time>2021-08-12T13:34:12Z</time>
      </trkpt>
      <trkpt lat="47.20943" lon="6.88128">
        <ele>845.2</ele>
        <time>2021-08-12T13:34:13Z</time>
      </trkpt>
      <trkpt lat="47.20943" lon="6.88128">
        <ele>845.3</ele>
        <time>2021-08-12T13:34:15Z</time>
      </trkpt>
      <trkpt lat="47.20943" lon="6.88128">
        <ele>845.3</ele>
        <time>2021-08-12T13:34:16Z</time>
      </trkpt>
      <trkpt lat="47.20943" lon="6.88127">
        <ele>845.4</ele>
        <time>2021-08-12T13:34:17Z</time>
      </trkpt>
      <trkpt lat="47.20942" lon="6.88126">
        <ele>845.5</ele>
        <time>2021-08-12T13:34:19Z</time>
      </trkpt>
      <trkpt lat="47.2094" lon="6.88125">
        <ele>845.8</ele>
        <time>2021-08-12T13:34:21Z</time>
      </trkpt>
      <trkpt lat="47.20938" lon="6.88124">
        <ele>846</ele>
        <time>2021-08-12T13:34:23Z</time>
      </trkpt>
      <trkpt lat="47.20937" lon="6.88124">
        <ele>846.2</ele>
        <time>2021-08-12T13:34:24Z</time>
      </trkpt>
      <trkpt lat="47.20936" lon="6.88123">
        <ele>846.4</ele>
        <time>2021-08-12T13:34:26Z</time>
      </trkpt>
      <trkpt lat="47.20935" lon="6.88122">
        <ele>846.5</ele>
        <time>2021-08-12T13:34:27Z</time>
      </trkpt>
      <trkpt lat="47.20935" lon="6.88122">
        <ele>846.6</ele>
        <time>2021-08-12T13:34:29Z</time>
      </trkpt>
      <trkpt lat="47.20935" lon="6.88121">
        <ele>846.6</ele>
        <time>2021-08-12T13:34:30Z</time>
      </trkpt>
      <trkpt lat="47.20934" lon="6.88121">
        <ele>846.7</ele>
        <time>2021-08-12T13:34:31Z</time>
      </trkpt>
      <trkpt lat="47.20934" lon="6.88121">
        <ele>846.8</ele>
        <time>2021-08-12T13:34:33Z</time>
      </trkpt>
      <trkpt lat="47.20934" lon="6.8812">
        <ele>846.8</ele>
        <time>2021-08-12T13:34:35Z</time>
      </trkpt>
      <trkpt lat="47.20934" lon="6.8812">
        <ele>846.8</ele>
        <time>2021-08-12T13:34:36Z</time>
      </trkpt>
      <trkpt lat="47.20934" lon="6.8812">
        <ele>846.9</ele>
        <time>2021-08-12T13:34:38Z</time>
      </trkpt>
      <trkpt lat="47.20933" lon="6.88119">
        <ele>847</ele>
        <time>2021-08-12T13:34:39Z</time>
      </trkpt>
      <trkpt lat="47.20932" lon="6.88115">
        <ele>847.4</ele>
        <time>2021-08-12T13:34:41Z</time>
      </trkpt>
      <trkpt lat="47.20932" lon="6.88114">
        <ele>847.6</ele>
        <time>2021-08-12T13:34:42Z</time>
      </trkpt>
      <trkpt lat="47.20931" lon="6.88112">
        <ele>847.8</ele>
        <time>2021-08-12T13:34:44Z</time>
      </trkpt>
      <trkpt lat="47.20931" lon="6.8811">
        <ele>848.1</ele>
        <time>2021-08-12T13:34:46Z</time>
      </trkpt>
      <trkpt lat="47.20931" lon="6.88108">
        <ele>848.3</ele>
        <time>2021-08-12T13:34:47Z</time>
      </trkpt>
      <trkpt lat="47.2093" lon="6.88106">
        <ele>848.5</ele>
        <time>2021-08-12T13:34:49Z</time>
      </trkpt>
      <trkpt lat="47.2093" lon="6.88106">
        <ele>848.5</ele>
        <time>2021-08-12T13:34:50Z</time>
      </trkpt>
      <trkpt lat="47.2093" lon="6.88105">
        <ele>848.7</ele>
        <time>2021-08-12T13:34:52Z</time>
      </trkpt>
      <trkpt lat="47.2093" lon="6.88104">
        <ele>848.7</ele>
        <time>2021-08-12T13:34:53Z</time>
      </trkpt>
      <trkpt lat="47.2093" lon="6.88104">
        <ele>848.7</ele>
        <time>2021-08-12T13:34:54Z</time>
      </trkpt>
      <trkpt lat="47.2093" lon="6.88104">
        <ele>848.8</ele>
        <time>2021-08-12T13:34:55Z</time>
      </trkpt>
      <trkpt lat="47.20929" lon="6.88102">
        <ele>849</ele>
        <time>2021-08-12T13:34:57Z</time>
      </trkpt>
      <trkpt lat="47.20929" lon="6.88101">
        <ele>849.2</ele>
        <time>2021-08-12T13:34:58Z</time>
      </trkpt>
      <trkpt lat="47.20928" lon="6.88099">
        <ele>849.4</ele>
        <time>2021-08-12T13:34:59Z</time>
      </trkpt>
      <trkpt lat="47.20927" lon="6.88097">
        <ele>849.8</ele>
        <time>2021-08-12T13:35:00Z</time>
      </trkpt>
      <trkpt lat="47.20926" lon="6.88094">
        <ele>850.2</ele>
        <time>2021-08-12T13:35:01Z</time>
      </trkpt>
      <trkpt lat="47.20925" lon="6.88093">
        <ele>850.4</ele>
        <time>2021-08-12T13:35:02Z</time>
      </trkpt>
      <trkpt lat="47.20925" lon="6.88092">
        <ele>850.6</ele>
        <time>2021-08-12T13:35:04Z</time>
      </trkpt>
      <trkpt lat="47.20924" lon="6.88091">
        <ele>850.7</ele>
        <time>2021-08-12T13:35:05Z</time>
      </trkpt>
      <trkpt lat="47.20923" lon="6.88089">
        <ele>851</ele>
        <time>2021-08-12T13:35:07Z</time>
      </trkpt>
      <trkpt lat="47.20921" lon="6.88086">
        <ele>851.5</ele>
        <time>2021-08-12T13:35:08Z</time>
      </trkpt>
      <trkpt lat="47.2092" lon="6.88084">
        <ele>851.9</ele>
        <time>2021-08-12T13:35:10Z</time>
      </trkpt>
      <trkpt lat="47.20919" lon="6.88082">
        <ele>852.2</ele>
        <time>2021-08-12T13:35:11Z</time>
      </trkpt>
      <trkpt lat="47.20917" lon="6.88081">
        <ele>852.6</ele>
        <time>2021-08-12T13:35:12Z</time>
      </trkpt>
      <trkpt lat="47.20915" lon="6.88078">
        <ele>853.1</ele>
        <time>2021-08-12T13:35:14Z</time>
      </trkpt>
      <trkpt lat="47.20914" lon="6.88078">
        <ele>853.3</ele>
        <time>2021-08-12T13:35:15Z</time>
      </trkpt>
      <trkpt lat="47.20913" lon="6.88076">
        <ele>853.6</ele>
        <time>2021-08-12T13:35:17Z</time>
      </trkpt>
      <trkpt lat="47.20913" lon="6.88075">
        <ele>853.8</ele>
        <time>2021-08-12T13:35:18Z</time>
      </trkpt>
      <trkpt lat="47.20912" lon="6.88075">
        <ele>853.9</ele>
        <time>2021-08-12T13:35:20Z</time>
      </trkpt>
      <trkpt lat="47.20912" lon="6.88074">
        <ele>854</ele>
        <time>2021-08-12T13:35:22Z</time>
      </trkpt>
      <trkpt lat="47.20912" lon="6.88074">
        <ele>854.1</ele>
        <time>2021-08-12T13:35:23Z</time>
      </trkpt>
      <trkpt lat="47.20911" lon="6.88073">
        <ele>854.1</ele>
        <time>2021-08-12T13:35:25Z</time>
      </trkpt>
      <trkpt lat="47.20911" lon="6.88073">
        <ele>854.1</ele>
        <time>2021-08-12T13:35:26Z</time>
      </trkpt>
      <trkpt lat="47.20911" lon="6.88073">
        <ele>854.2</ele>
        <time>2021-08-12T13:35:28Z</time>
      </trkpt>
      <trkpt lat="47.20911" lon="6.88073">
        <ele>854.2</ele>
        <time>2021-08-12T13:35:29Z</time>
      </trkpt>
      <trkpt lat="47.20911" lon="6.88071">
        <ele>854.5</ele>
        <time>2021-08-12T13:35:31Z</time>
      </trkpt>
      <trkpt lat="47.20911" lon="6.88069">
        <ele>854.8</ele>
        <time>2021-08-12T13:35:32Z</time>
      </trkpt>
      <trkpt lat="47.2091" lon="6.88067">
        <ele>855.1</ele>
        <time>2021-08-12T13:35:33Z</time>
      </trkpt>
      <trkpt lat="47.2091" lon="6.88064">
        <ele>855.4</ele>
        <time>2021-08-12T13:35:34Z</time>
      </trkpt>
      <trkpt lat="47.20909" lon="6.88063">
        <ele>855.6</ele>
        <time>2021-08-12T13:35:36Z</time>
      </trkpt>
      <trkpt lat="47.20909" lon="6.88062">
        <ele>855.7</ele>
        <time>2021-08-12T13:35:37Z</time>
      </trkpt>
      <trkpt lat="47.20909" lon="6.88061">
        <ele>855.9</ele>
        <time>2021-08-12T13:35:39Z</time>
      </trkpt>
      <trkpt lat="47.20908" lon="6.8806">
        <ele>856.1</ele>
        <time>2021-08-12T13:35:41Z</time>
      </trkpt>
      <trkpt lat="47.20908" lon="6.88058">
        <ele>856.2</ele>
        <time>2021-08-12T13:35:43Z</time>
      </trkpt>
      <trkpt lat="47.20907" lon="6.88057">
        <ele>856.4</ele>
        <time>2021-08-12T13:35:44Z</time>
      </trkpt>
      <trkpt lat="47.20907" lon="6.88056">
        <ele>856.6</ele>
        <time>2021-08-12T13:35:46Z</time>
      </trkpt>
      <trkpt lat="47.20907" lon="6.88055">
        <ele>856.7</ele>
        <time>2021-08-12T13:35:47Z</time>
      </trkpt>
      <trkpt lat="47.20906" lon="6.88054">
        <ele>856.9</ele>
        <time>2021-08-12T13:35:48Z</time>
      </trkpt>
      <trkpt lat="47.20906" lon="6.88052">
        <ele>857.1</ele>
        <time>2021-08-12T13:35:49Z</time>
      </trkpt>
      <trkpt lat="47.20906" lon="6.8805">
        <ele>857.3</ele>
        <time>2021-08-12T13:35:51Z</time>
      </trkpt>
      <trkpt lat="47.20905" lon="6.88048">
        <ele>857.6</ele>
        <time>2021-08-12T13:35:52Z</time>
      </trkpt>
      <trkpt lat="47.20905" lon="6.88047">
        <ele>857.8</ele>
        <time>2021-08-12T13:35:54Z</time>
      </trkpt>
      <trkpt lat="47.20905" lon="6.88046">
        <ele>857.9</ele>
        <time>2021-08-12T13:35:55Z</time>
      </trkpt>
      <trkpt lat="47.20905" lon="6.88045">
        <ele>858</ele>
        <time>2021-08-12T13:35:56Z</time>
      </trkpt>
      <trkpt lat="47.20905" lon="6.88044">
        <ele>858.1</ele>
        <time>2021-08-12T13:35:58Z</time>
      </trkpt>
      <trkpt lat="47.20905" lon="6.88044">
        <ele>858.2</ele>
        <time>2021-08-12T13:35:59Z</time>
      </trkpt>
      <trkpt lat="47.20904" lon="6.88044">
        <ele>858.2</ele>
        <time>2021-08-12T13:36:00Z</time>
      </trkpt>
      <trkpt lat="47.20904" lon="6.88043">
        <ele>858.3</ele>
        <time>2021-08-12T13:36:02Z</time>
      </trkpt>
      <trkpt lat="47.20904" lon="6.88043">
        <ele>858.3</ele>
        <time>2021-08-12T13:36:03Z</time>
      </trkpt>
      <trkpt lat="47.20904" lon="6.88042">
        <ele>858.5</ele>
        <time>2021-08-12T13:36:04Z</time>
      </trkpt>
      <trkpt lat="47.20905" lon="6.88038">
        <ele>859</ele>
        <time>2021-08-12T13:36:06Z</time>
      </trkpt>
      <trkpt lat="47.20905" lon="6.88035">
        <ele>859.3</ele>
        <time>2021-08-12T13:36:07Z</time>
      </trkpt>
      <trkpt lat="47.20905" lon="6.88034">
        <ele>859.6</ele>
        <time>2021-08-12T13:36:09Z</time>
      </trkpt>
      <trkpt lat="47.20904" lon="6.88032">
        <ele>859.8</ele>
        <time>2021-08-12T13:36:11Z</time>
      </trkpt>
      <trkpt lat="47.20903" lon="6.8803">
        <ele>860</ele>
        <time>2021-08-12T13:36:12Z</time>
      </trkpt>
      <trkpt lat="47.20903" lon="6.8803">
        <ele>860.2</ele>
        <time>2021-08-12T13:36:13Z</time>
      </trkpt>
      <trkpt lat="47.20902" lon="6.88028">
        <ele>860.4</ele>
        <time>2021-08-12T13:36:14Z</time>
      </trkpt>
      <trkpt lat="47.20901" lon="6.88028">
        <ele>860.6</ele>
        <time>2021-08-12T13:36:16Z</time>
      </trkpt>
      <trkpt lat="47.20901" lon="6.88027">
        <ele>860.8</ele>
        <time>2021-08-12T13:36:17Z</time>
      </trkpt>
      <trkpt lat="47.209" lon="6.88026">
        <ele>860.9</ele>
        <time>2021-08-12T13:36:19Z</time>
      </trkpt>
      <trkpt lat="47.209" lon="6.88026">
        <ele>861</ele>
        <time>2021-08-12T13:36:21Z</time>
      </trkpt>
      <trkpt lat="47.209" lon="6.88025">
        <ele>861.1</ele>
        <time>2021-08-12T13:36:22Z</time>
      </trkpt>
      <trkpt lat="47.20899" lon="6.88025">
        <ele>861.1</ele>
        <time>2021-08-12T13:36:25Z</time>
      </trkpt>
      <trkpt lat="47.20899" lon="6.88025">
        <ele>861.2</ele>
        <time>2021-08-12T13:36:26Z</time>
      </trkpt>
      <trkpt lat="47.20899" lon="6.88025">
        <ele>861.2</ele>
        <time>2021-08-12T13:36:28Z</time>
      </trkpt>
      <trkpt lat="47.20899" lon="6.88025">
        <ele>861.2</ele>
        <time>2021-08-12T13:36:29Z</time>
      </trkpt>
      <trkpt lat="47.20899" lon="6.88025">
        <ele>861.2</ele>
        <time>2021-08-12T13:36:31Z</time>
      </trkpt>
      <trkpt lat="47.20898" lon="6.88024">
        <ele>861.3</ele>
        <time>2021-08-12T13:36:33Z</time>
      </trkpt>
      <trkpt lat="47.20897" lon="6.88023">
        <ele>861.6</ele>
        <time>2021-08-12T13:36:34Z</time>
      </trkpt>
      <trkpt lat="47.20896" lon="6.88021">
        <ele>862</ele>
        <time>2021-08-12T13:36:35Z</time>
      </trkpt>
      <trkpt lat="47.20895" lon="6.8802">
        <ele>862.3</ele>
        <time>2021-08-12T13:36:36Z</time>
      </trkpt>
      <trkpt lat="47.20894" lon="6.88019">
        <ele>862.5</ele>
        <time>2021-08-12T13:36:38Z</time>
      </trkpt>
      <trkpt lat="47.20893" lon="6.88018">
        <ele>862.7</ele>
        <time>2021-08-12T13:36:40Z</time>
      </trkpt>
      <trkpt lat="47.20892" lon="6.88018">
        <ele>862.9</ele>
        <time>2021-08-12T13:36:41Z</time>
      </trkpt>
      <trkpt lat="47.20891" lon="6.88017">
        <ele>863</ele>
        <time>2021-08-12T13:36:43Z</time>
      </trkpt>
      <trkpt lat="47.20891" lon="6.88017">
        <ele>863.1</ele>
        <time>2021-08-12T13:36:45Z</time>
      </trkpt>
      <trkpt lat="47.20891" lon="6.88016">
        <ele>863.2</ele>
        <time>2021-08-12T13:36:46Z</time>
      </trkpt>
      <trkpt lat="47.20891" lon="6.88016">
        <ele>863.3</ele>
        <time>2021-08-12T13:36:48Z</time>
      </trkpt>
      <trkpt lat="47.2089" lon="6.88016">
        <ele>863.3</ele>
        <time>2021-08-12T13:36:49Z</time>
      </trkpt>
      <trkpt lat="47.20889" lon="6.88015">
        <ele>863.6</ele>
        <time>2021-08-12T13:36:50Z</time>
      </trkpt>
      <trkpt lat="47.20887" lon="6.88013">
        <ele>864</ele>
        <time>2021-08-12T13:36:52Z</time>
      </trkpt>
      <trkpt lat="47.20885" lon="6.8801">
        <ele>864.6</ele>
        <time>2021-08-12T13:36:54Z</time>
      </trkpt>
      <trkpt lat="47.20884" lon="6.88007">
        <ele>865</ele>
        <time>2021-08-12T13:36:55Z</time>
      </trkpt>
      <trkpt lat="47.20882" lon="6.88005">
        <ele>865.4</ele>
        <time>2021-08-12T13:36:57Z</time>
      </trkpt>
      <trkpt lat="47.20879" lon="6.88002">
        <ele>866.1</ele>
        <time>2021-08-12T13:36:58Z</time>
      </trkpt>
      <trkpt lat="47.20876" lon="6.88">
        <ele>866.6</ele>
        <time>2021-08-12T13:37:00Z</time>
      </trkpt>
      <trkpt lat="47.20875" lon="6.88">
        <ele>866.8</ele>
        <time>2021-08-12T13:37:01Z</time>
      </trkpt>
      <trkpt lat="47.20874" lon="6.88">
        <ele>866.9</ele>
        <time>2021-08-12T13:37:02Z</time>
      </trkpt>
      <trkpt lat="47.20874" lon="6.88">
        <ele>866.9</ele>
        <time>2021-08-12T13:37:04Z</time>
      </trkpt>
      <trkpt lat="47.20874" lon="6.88">
        <ele>866.9</ele>
        <time>2021-08-12T13:37:05Z</time>
      </trkpt>
      <trkpt lat="47.20874" lon="6.88">
        <ele>867</ele>
        <time>2021-08-12T13:37:08Z</time>
      </trkpt>
      <trkpt lat="47.20874" lon="6.87999">
        <ele>867.1</ele>
        <time>2021-08-12T13:37:09Z</time>
      </trkpt>
      <trkpt lat="47.20876" lon="6.87996">
        <ele>867.5</ele>
        <time>2021-08-12T13:37:11Z</time>
      </trkpt>
      <trkpt lat="47.2095" lon="6.87845">
        <ele>888.1</ele>
        <time>2021-08-12T13:44:20Z</time>
      </trkpt>
      <trkpt lat="47.20951" lon="6.87838">
        <ele>888.8</ele>
        <time>2021-08-12T13:44:22Z</time>
      </trkpt>
      <trkpt lat="47.20953" lon="6.87831">
        <ele>889.6</ele>
        <time>2021-08-12T13:44:23Z</time>
      </trkpt>
      <trkpt lat="47.20955" lon="6.87825">
        <ele>890.3</ele>
        <time>2021-08-12T13:44:24Z</time>
      </trkpt>
      <trkpt lat="47.20955" lon="6.87817">
        <ele>891.1</ele>
        <time>2021-08-12T13:44:26Z</time>
      </trkpt>
      <trkpt lat="47.20956" lon="6.87813">
        <ele>891.5</ele>
        <time>2021-08-12T13:44:27Z</time>
      </trkpt>
      <trkpt lat="47.20958" lon="6.87807">
        <ele>892.1</ele>
        <time>2021-08-12T13:44:29Z</time>
      </trkpt>
      <trkpt lat="47.20958" lon="6.87806">
        <ele>892.1</ele>
        <time>2021-08-12T13:44:30Z</time>
      </trkpt>
      <trkpt lat="47.20958" lon="6.87804">
        <ele>892.3</ele>
        <time>2021-08-12T13:44:31Z</time>
      </trkpt>
      <trkpt lat="47.20958" lon="6.87802">
        <ele>892.5</ele>
        <time>2021-08-12T13:44:32Z</time>
      </trkpt>
      <trkpt lat="47.20958" lon="6.878">
        <ele>892.6</ele>
        <time>2021-08-12T13:44:33Z</time>
      </trkpt>
      <trkpt lat="47.20959" lon="6.87797">
        <ele>892.8</ele>
        <time>2021-08-12T13:44:34Z</time>
      </trkpt>
      <trkpt lat="47.2096" lon="6.87794">
        <ele>893.1</ele>
        <time>2021-08-12T13:44:36Z</time>
      </trkpt>
      <trkpt lat="47.20964" lon="6.87787">
        <ele>893.7</ele>
        <time>2021-08-12T13:44:38Z</time>
      </trkpt>
      <trkpt lat="47.20965" lon="6.87785">
        <ele>894</ele>
        <time>2021-08-12T13:44:39Z</time>
      </trkpt>
      <trkpt lat="47.20966" lon="6.87782">
        <ele>894.1</ele>
        <time>2021-08-12T13:44:40Z</time>
      </trkpt>
      <trkpt lat="47.20966" lon="6.87781">
        <ele>894.2</ele>
        <time>2021-08-12T13:44:41Z</time>
      </trkpt>
      <trkpt lat="47.20967" lon="6.87778">
        <ele>894.4</ele>
        <time>2021-08-12T13:44:42Z</time>
      </trkpt>
      <trkpt lat="47.20968" lon="6.87777">
        <ele>894.5</ele>
        <time>2021-08-12T13:44:44Z</time>
      </trkpt>
      <trkpt lat="47.20968" lon="6.87777">
        <ele>894.5</ele>
        <time>2021-08-12T13:44:45Z</time>
      </trkpt>
      <trkpt lat="47.20969" lon="6.87777">
        <ele>894.6</ele>
        <time>2021-08-12T13:44:46Z</time>
      </trkpt>
      <trkpt lat="47.2097" lon="6.87777">
        <ele>894.7</ele>
        <time>2021-08-12T13:44:48Z</time>
      </trkpt>
      <trkpt lat="47.20973" lon="6.87778">
        <ele>895</ele>
        <time>2021-08-12T13:44:49Z</time>
      </trkpt>
      <trkpt lat="47.20974" lon="6.87778">
        <ele>895.1</ele>
        <time>2021-08-12T13:44:50Z</time>
      </trkpt>
      <trkpt lat="47.20976" lon="6.87779">
        <ele>895.2</ele>
        <time>2021-08-12T13:44:51Z</time>
      </trkpt>
      <trkpt lat="47.20977" lon="6.87781">
        <ele>895.3</ele>
        <time>2021-08-12T13:44:53Z</time>
      </trkpt>
      <trkpt lat="47.20978" lon="6.87782">
        <ele>895.4</ele>
        <time>2021-08-12T13:44:55Z</time>
      </trkpt>
      <trkpt lat="47.20978" lon="6.87783">
        <ele>895.4</ele>
        <time>2021-08-12T13:44:56Z</time>
      </trkpt>
      <trkpt lat="47.20979" lon="6.87784">
        <ele>895.4</ele>
        <time>2021-08-12T13:44:57Z</time>
      </trkpt>
      <trkpt lat="47.20983" lon="6.87788">
        <ele>895.7</ele>
        <time>2021-08-12T13:44:59Z</time>
      </trkpt>
      <trkpt lat="47.20985" lon="6.87791">
        <ele>895.8</ele>
        <time>2021-08-12T13:45:00Z</time>
      </trkpt>
      <trkpt lat="47.20986" lon="6.87793">
        <ele>895.9</ele>
        <time>2021-08-12T13:45:01Z</time>
      </trkpt>
      <trkpt lat="47.20987" lon="6.87796">
        <ele>896</ele>
        <time>2021-08-12T13:45:03Z</time>
      </trkpt>
      <trkpt lat="47.20987" lon="6.87798">
        <ele>896</ele>
        <time>2021-08-12T13:45:04Z</time>
      </trkpt>
      <trkpt lat="47.20987" lon="6.87801">
        <ele>896.1</ele>
        <time>2021-08-12T13:45:05Z</time>
      </trkpt>
      <trkpt lat="47.20988" lon="6.87802">
        <ele>896.1</ele>
        <time>2021-08-12T13:45:06Z</time>
      </trkpt>
      <trkpt lat="47.20989" lon="6.87803">
        <ele>896.1</ele>
        <time>2021-08-12T13:45:08Z</time>
      </trkpt>
      <trkpt lat="47.2099" lon="6.87804">
        <ele>896.1</ele>
        <time>2021-08-12T13:45:09Z</time>
      </trkpt>
      <trkpt lat="47.20991" lon="6.87806">
        <ele>896.2</ele>
        <time>2021-08-12T13:45:10Z</time>
      </trkpt>
      <trkpt lat="47.20993" lon="6.87809">
        <ele>896.2</ele>
        <time>2021-08-12T13:45:12Z</time>
      </trkpt>
      <trkpt lat="47.20996" lon="6.87811">
        <ele>896.3</ele>
        <time>2021-08-12T13:45:14Z</time>
      </trkpt>
      <trkpt lat="47.20997" lon="6.87812">
        <ele>896.3</ele>
        <time>2021-08-12T13:45:15Z</time>
      </trkpt>
      <trkpt lat="47.21" lon="6.87821">
        <ele>896.3</ele>
        <time>2021-08-12T13:45:17Z</time>
      </trkpt>
      <trkpt lat="47.21001" lon="6.87824">
        <ele>896.3</ele>
        <time>2021-08-12T13:45:18Z</time>
      </trkpt>
      <trkpt lat="47.21003" lon="6.87828">
        <ele>896.4</ele>
        <time>2021-08-12T13:45:20Z</time>
      </trkpt>
      <trkpt lat="47.21006" lon="6.87831">
        <ele>896.5</ele>
        <time>2021-08-12T13:45:22Z</time>
      </trkpt>
      <trkpt lat="47.21011" lon="6.87832">
        <ele>896.8</ele>
        <time>2021-08-12T13:45:24Z</time>
      </trkpt>
      <trkpt lat="47.21014" lon="6.87832">
        <ele>896.9</ele>
        <time>2021-08-12T13:45:25Z</time>
      </trkpt>
      <trkpt lat="47.21018" lon="6.87833">
        <ele>897.2</ele>
        <time>2021-08-12T13:45:27Z</time>
      </trkpt>
      <trkpt lat="47.21022" lon="6.87834">
        <ele>897.4</ele>
        <time>2021-08-12T13:45:29Z</time>
      </trkpt>
      <trkpt lat="47.21026" lon="6.87834">
        <ele>897.6</ele>
        <time>2021-08-12T13:45:30Z</time>
      </trkpt>
      <trkpt lat="47.21028" lon="6.87833">
        <ele>897.7</ele>
        <time>2021-08-12T13:45:31Z</time>
      </trkpt>
      <trkpt lat="47.21031" lon="6.87833">
        <ele>897.9</ele>
        <time>2021-08-12T13:45:33Z</time>
      </trkpt>
      <trkpt lat="47.21033" lon="6.87833">
        <ele>898</ele>
        <time>2021-08-12T13:45:34Z</time>
      </trkpt>
      <trkpt lat="47.21035" lon="6.87833">
        <ele>898.1</ele>
        <time>2021-08-12T13:45:36Z</time>
      </trkpt>
      <trkpt lat="47.21035" lon="6.87834">
        <ele>898.2</ele>
        <time>2021-08-12T13:45:37Z</time>
      </trkpt>
      <trkpt lat="47.21035" lon="6.87835">
        <ele>898.2</ele>
        <time>2021-08-12T13:45:38Z</time>
      </trkpt>
      <trkpt lat="47.21037" lon="6.87837">
        <ele>898.3</ele>
        <time>2021-08-12T13:45:40Z</time>
      </trkpt>
      <trkpt lat="47.21039" lon="6.87837">
        <ele>898.4</ele>
        <time>2021-08-12T13:45:41Z</time>
      </trkpt>
      <trkpt lat="47.21041" lon="6.87836">
        <ele>898.5</ele>
        <time>2021-08-12T13:45:42Z</time>
      </trkpt>
      <trkpt lat="47.21043" lon="6.87836">
        <ele>898.6</ele>
        <time>2021-08-12T13:45:43Z</time>
      </trkpt>
      <trkpt lat="47.21044" lon="6.87835">
        <ele>898.7</ele>
        <time>2021-08-12T13:45:44Z</time>
      </trkpt>
      <trkpt lat="47.21045" lon="6.87835">
        <ele>898.7</ele>
        <time>2021-08-12T13:45:45Z</time>
      </trkpt>
      <trkpt lat="47.21045" lon="6.87833">
        <ele>898.8</ele>
        <time>2021-08-12T13:45:47Z</time>
      </trkpt>
      <trkpt lat="47.21045" lon="6.87832">
        <ele>898.8</ele>
        <time>2021-08-12T13:45:48Z</time>
      </trkpt>
      <trkpt lat="47.21045" lon="6.87831">
        <ele>898.8</ele>
        <time>2021-08-12T13:45:49Z</time>
      </trkpt>
      <trkpt lat="47.21047" lon="6.87831">
        <ele>898.9</ele>
        <time>2021-08-12T13:45:50Z</time>
      </trkpt>
      <trkpt lat="47.21048" lon="6.8783">
        <ele>899</ele>
        <time>2021-08-12T13:45:52Z</time>
      </trkpt>
      <trkpt lat="47.2105" lon="6.8783">
        <ele>899.1</ele>
        <time>2021-08-12T13:45:53Z</time>
      </trkpt>
      <trkpt lat="47.21052" lon="6.8783">
        <ele>899.2</ele>
        <time>2021-08-12T13:45:54Z</time>
      </trkpt>
      <trkpt lat="47.21054" lon="6.87829">
        <ele>899.3</ele>
        <time>2021-08-12T13:45:56Z</time>
      </trkpt>
      <trkpt lat="47.21058" lon="6.87828">
        <ele>899.5</ele>
        <time>2021-08-12T13:45:57Z</time>
      </trkpt>
      <trkpt lat="47.21059" lon="6.87828">
        <ele>899.6</ele>
        <time>2021-08-12T13:45:58Z</time>
      </trkpt>
      <trkpt lat="47.21061" lon="6.87827">
        <ele>899.7</ele>
        <time>2021-08-12T13:45:59Z</time>
      </trkpt>
      <trkpt lat="47.21064" lon="6.87827">
        <ele>899.9</ele>
        <time>2021-08-12T13:46:01Z</time>
      </trkpt>
      <trkpt lat="47.21067" lon="6.87826">
        <ele>900</ele>
        <time>2021-08-12T13:46:02Z</time>
      </trkpt>
      <trkpt lat="47.2107" lon="6.87826">
        <ele>900.2</ele>
        <time>2021-08-12T13:46:04Z</time>
      </trkpt>
      <trkpt lat="47.21071" lon="6.87827">
        <ele>900.3</ele>
        <time>2021-08-12T13:46:05Z</time>
      </trkpt>
      <trkpt lat="47.21074" lon="6.87829">
        <ele>900.5</ele>
        <time>2021-08-12T13:46:07Z</time>
      </trkpt>
      <trkpt lat="47.21078" lon="6.87822">
        <ele>900.8</ele>
        <time>2021-08-12T13:46:08Z</time>
      </trkpt>
      <trkpt lat="47.2108" lon="6.87817">
        <ele>901</ele>
        <time>2021-08-12T13:46:09Z</time>
      </trkpt>
      <trkpt lat="47.21085" lon="6.87808">
        <ele>901.1</ele>
        <time>2021-08-12T13:46:10Z</time>
      </trkpt>
      <trkpt lat="47.21091" lon="6.87803">
        <ele>901.2</ele>
        <time>2021-08-12T13:46:11Z</time>
      </trkpt>
      <trkpt lat="47.21093" lon="6.87801">
        <ele>901.2</ele>
        <time>2021-08-12T13:46:12Z</time>
      </trkpt>
      <trkpt lat="47.21097" lon="6.87799">
        <ele>901.3</ele>
        <time>2021-08-12T13:46:13Z</time>
      </trkpt>
      <trkpt lat="47.21102" lon="6.87794">
        <ele>901.4</ele>
        <time>2021-08-12T13:46:15Z</time>
      </trkpt>
      <trkpt lat="47.21107" lon="6.87791">
        <ele>901.4</ele>
        <time>2021-08-12T13:46:16Z</time>
      </trkpt>
      <trkpt lat="47.21111" lon="6.87789">
        <ele>901.5</ele>
        <time>2021-08-12T13:46:17Z</time>
      </trkpt>
      <trkpt lat="47.21114" lon="6.87786">
        <ele>901.6</ele>
        <time>2021-08-12T13:46:18Z</time>
      </trkpt>
      <trkpt lat="47.21117" lon="6.87784">
        <ele>901.7</ele>
        <time>2021-08-12T13:46:19Z</time>
      </trkpt>
      <trkpt lat="47.21121" lon="6.87784">
        <ele>901.7</ele>
        <time>2021-08-12T13:46:20Z</time>
      </trkpt>
      <trkpt lat="47.21122" lon="6.87785">
        <ele>901.7</ele>
        <time>2021-08-12T13:46:21Z</time>
      </trkpt>
      <trkpt lat="47.21125" lon="6.87787">
        <ele>901.8</ele>
        <time>2021-08-12T13:46:23Z</time>
      </trkpt>
      <trkpt lat="47.21128" lon="6.8779">
        <ele>901.9</ele>
        <time>2021-08-12T13:46:25Z</time>
      </trkpt>
      <trkpt lat="47.21131" lon="6.87792">
        <ele>902</ele>
        <time>2021-08-12T13:46:27Z</time>
      </trkpt>
      <trkpt lat="47.21134" lon="6.87794">
        <ele>902</ele>
        <time>2021-08-12T13:46:28Z</time>
      </trkpt>
      <trkpt lat="47.21138" lon="6.87799">
        <ele>902.2</ele>
        <time>2021-08-12T13:46:30Z</time>
      </trkpt>
      <trkpt lat="47.21139" lon="6.878">
        <ele>902.3</ele>
        <time>2021-08-12T13:46:31Z</time>
      </trkpt>
      <trkpt lat="47.21139" lon="6.878">
        <ele>902.3</ele>
        <time>2021-08-12T13:46:32Z</time>
      </trkpt>
      <trkpt lat="47.2114" lon="6.87799">
        <ele>902.3</ele>
        <time>2021-08-12T13:46:34Z</time>
      </trkpt>
      <trkpt lat="47.2114" lon="6.87799">
        <ele>902.3</ele>
        <time>2021-08-12T13:46:35Z</time>
      </trkpt>
      <trkpt lat="47.2114" lon="6.87798">
        <ele>902.4</ele>
        <time>2021-08-12T13:46:36Z</time>
      </trkpt>
      <trkpt lat="47.21141" lon="6.87796">
        <ele>902.4</ele>
        <time>2021-08-12T13:46:38Z</time>
      </trkpt>
      <trkpt lat="47.21143" lon="6.87795">
        <ele>902.5</ele>
        <time>2021-08-12T13:46:39Z</time>
      </trkpt>
      <trkpt lat="47.21144" lon="6.87795">
        <ele>902.6</ele>
        <time>2021-08-12T13:46:41Z</time>
      </trkpt>
      <trkpt lat="47.21193" lon="6.8772">
        <ele>905.9</ele>
        <time>2021-08-12T13:47:12Z</time>
      </trkpt>
      <trkpt lat="47.21194" lon="6.87715">
        <ele>906</ele>
        <time>2021-08-12T13:47:14Z</time>
      </trkpt>
      <trkpt lat="47.21196" lon="6.87709">
        <ele>906.2</ele>
        <time>2021-08-12T13:47:16Z</time>
      </trkpt>
      <trkpt lat="47.21197" lon="6.87706">
        <ele>906.3</ele>
        <time>2021-08-12T13:47:17Z</time>
      </trkpt>
      <trkpt lat="47.21194" lon="6.87706">
        <ele>906.4</ele>
        <time>2021-08-12T13:47:18Z</time>
      </trkpt>
      <trkpt lat="47.21193" lon="6.87705">
        <ele>906.4</ele>
        <time>2021-08-12T13:47:20Z</time>
      </trkpt>
      <trkpt lat="47.21193" lon="6.87703">
        <ele>906.5</ele>
        <time>2021-08-12T13:47:21Z</time>
      </trkpt>
      <trkpt lat="47.21193" lon="6.877">
        <ele>906.6</ele>
        <time>2021-08-12T13:47:23Z</time>
      </trkpt>
      <trkpt lat="47.21194" lon="6.87696">
        <ele>906.7</ele>
        <time>2021-08-12T13:47:24Z</time>
      </trkpt>
      <trkpt lat="47.21195" lon="6.87687">
        <ele>906.8</ele>
        <time>2021-08-12T13:47:25Z</time>
      </trkpt>
      <trkpt lat="47.21196" lon="6.87679">
        <ele>906.9</ele>
        <time>2021-08-12T13:47:26Z</time>
      </trkpt>
      <trkpt lat="47.21196" lon="6.87669">
        <ele>907</ele>
        <time>2021-08-12T13:47:28Z</time>
      </trkpt>
      <trkpt lat="47.21196" lon="6.87656">
        <ele>906.9</ele>
        <time>2021-08-12T13:47:30Z</time>
      </trkpt>
      <trkpt lat="47.21194" lon="6.8765">
        <ele>906.9</ele>
        <time>2021-08-12T13:47:31Z</time>
      </trkpt>
      <trkpt lat="47.21193" lon="6.87646">
        <ele>906.9</ele>
        <time>2021-08-12T13:47:33Z</time>
      </trkpt>
      <trkpt lat="47.21194" lon="6.87642">
        <ele>906.9</ele>
        <time>2021-08-12T13:47:34Z</time>
      </trkpt>
      <trkpt lat="47.21195" lon="6.87639">
        <ele>907</ele>
        <time>2021-08-12T13:47:36Z</time>
      </trkpt>
      <trkpt lat="47.21198" lon="6.87635">
        <ele>907</ele>
        <time>2021-08-12T13:47:37Z</time>
      </trkpt>
      <trkpt lat="47.21202" lon="6.87634">
        <ele>907.1</ele>
        <time>2021-08-12T13:47:39Z</time>
      </trkpt>
      <trkpt lat="47.21204" lon="6.87635">
        <ele>907.2</ele>
        <time>2021-08-12T13:47:41Z</time>
      </trkpt>
      <trkpt lat="47.21206" lon="6.87635">
        <ele>907.3</ele>
        <time>2021-08-12T13:47:42Z</time>
      </trkpt>
      <trkpt lat="47.21208" lon="6.87635">
        <ele>907.3</ele>
        <time>2021-08-12T13:47:43Z</time>
      </trkpt>
      <trkpt lat="47.21211" lon="6.87633">
        <ele>907.5</ele>
        <time>2021-08-12T13:47:45Z</time>
      </trkpt>
      <trkpt lat="47.21216" lon="6.87632">
        <ele>907.7</ele>
        <time>2021-08-12T13:47:46Z</time>
      </trkpt>
      <trkpt lat="47.2122" lon="6.87632">
        <ele>907.9</ele>
        <time>2021-08-12T13:47:47Z</time>
      </trkpt>
      <trkpt lat="47.21222" lon="6.87631">
        <ele>908</ele>
        <time>2021-08-12T13:47:49Z</time>
      </trkpt>
      <trkpt lat="47.21223" lon="6.87631">
        <ele>908.1</ele>
        <time>2021-08-12T13:47:50Z</time>
      </trkpt>
      <trkpt lat="47.21228" lon="6.87634">
        <ele>908.2</ele>
        <time>2021-08-12T13:47:52Z</time>
      </trkpt>
      <trkpt lat="47.2123" lon="6.87637">
        <ele>908.5</ele>
        <time>2021-08-12T13:47:53Z</time>
      </trkpt>
      <trkpt lat="47.21233" lon="6.87639">
        <ele>908.5</ele>
        <time>2021-08-12T13:47:54Z</time>
      </trkpt>
      <trkpt lat="47.21237" lon="6.8764">
        <ele>908.5</ele>
        <time>2021-08-12T13:47:55Z</time>
      </trkpt>
      <trkpt lat="47.21245" lon="6.87642">
        <ele>908.4</ele>
        <time>2021-08-12T13:47:57Z</time>
      </trkpt>
      <trkpt lat="47.21249" lon="6.87641">
        <ele>908.4</ele>
        <time>2021-08-12T13:47:58Z</time>
      </trkpt>
      <trkpt lat="47.21256" lon="6.87642">
        <ele>908.3</ele>
        <time>2021-08-12T13:48:00Z</time>
      </trkpt>
      <trkpt lat="47.21261" lon="6.87644">
        <ele>908.1</ele>
        <time>2021-08-12T13:48:01Z</time>
      </trkpt>
      <trkpt lat="47.21267" lon="6.87646">
        <ele>907.9</ele>
        <time>2021-08-12T13:48:02Z</time>
      </trkpt>
      <trkpt lat="47.21273" lon="6.87648">
        <ele>907.7</ele>
        <time>2021-08-12T13:48:04Z</time>
      </trkpt>
      <trkpt lat="47.2128" lon="6.87649">
        <ele>907.3</ele>
        <time>2021-08-12T13:48:05Z</time>
      </trkpt>
      <trkpt lat="47.21285" lon="6.87651">
        <ele>907</ele>
        <time>2021-08-12T13:48:07Z</time>
      </trkpt>
      <trkpt lat="47.21292" lon="6.87652">
        <ele>906.6</ele>
        <time>2021-08-12T13:48:08Z</time>
      </trkpt>
      <trkpt lat="47.21298" lon="6.87652">
        <ele>906.4</ele>
        <time>2021-08-12T13:48:10Z</time>
      </trkpt>
      <trkpt lat="47.21305" lon="6.8765">
        <ele>906</ele>
        <time>2021-08-12T13:48:12Z</time>
      </trkpt>
      <trkpt lat="47.21312" lon="6.87643">
        <ele>905.8</ele>
        <time>2021-08-12T13:48:13Z</time>
      </trkpt>
      <trkpt lat="47.21316" lon="6.87638">
        <ele>905.6</ele>
        <time>2021-08-12T13:48:15Z</time>
      </trkpt>
      <trkpt lat="47.21324" lon="6.87632">
        <ele>905.5</ele>
        <time>2021-08-12T13:48:16Z</time>
      </trkpt>
      <trkpt lat="47.21336" lon="6.87627">
        <ele>905.4</ele>
        <time>2021-08-12T13:48:18Z</time>
      </trkpt>
      <trkpt lat="47.21348" lon="6.87627">
        <ele>905.3</ele>
        <time>2021-08-12T13:48:20Z</time>
      </trkpt>
      <trkpt lat="47.2136" lon="6.87628">
        <ele>905.3</ele>
        <time>2021-08-12T13:48:22Z</time>
      </trkpt>
      <trkpt lat="47.21365" lon="6.87631">
        <ele>905.2</ele>
        <time>2021-08-12T13:48:23Z</time>
      </trkpt>
      <trkpt lat="47.21375" lon="6.87639">
        <ele>905.1</ele>
        <time>2021-08-12T13:48:25Z</time>
      </trkpt>
      <trkpt lat="47.21386" lon="6.87647">
        <ele>905</ele>
        <time>2021-08-12T13:48:27Z</time>
      </trkpt>
      <trkpt lat="47.21397" lon="6.87656">
        <ele>905.1</ele>
        <time>2021-08-12T13:48:29Z</time>
      </trkpt>
      <trkpt lat="47.21403" lon="6.8766">
        <ele>905.2</ele>
        <time>2021-08-12T13:48:30Z</time>
      </trkpt>
      <trkpt lat="47.21414" lon="6.87666">
        <ele>905.6</ele>
        <time>2021-08-12T13:48:32Z</time>
      </trkpt>
      <trkpt lat="47.21419" lon="6.87668">
        <ele>905.9</ele>
        <time>2021-08-12T13:48:33Z</time>
      </trkpt>
      <trkpt lat="47.2143" lon="6.8767">
        <ele>906.7</ele>
        <time>2021-08-12T13:48:35Z</time>
      </trkpt>
      <trkpt lat="47.21435" lon="6.87671">
        <ele>907.1</ele>
        <time>2021-08-12T13:48:36Z</time>
      </trkpt>
      <trkpt lat="47.21442" lon="6.87673">
        <ele>907.7</ele>
        <time>2021-08-12T13:48:38Z</time>
      </trkpt>
      <trkpt lat="47.21448" lon="6.87674">
        <ele>908.1</ele>
        <time>2021-08-12T13:48:40Z</time>
      </trkpt>
      <trkpt lat="47.2145" lon="6.87675">
        <ele>908.3</ele>
        <time>2021-08-12T13:48:41Z</time>
      </trkpt>
      <trkpt lat="47.21455" lon="6.87678">
        <ele>908.6</ele>
        <time>2021-08-12T13:48:43Z</time>
      </trkpt>
      <trkpt lat="47.21456" lon="6.87679">
        <ele>908.7</ele>
        <time>2021-08-12T13:48:44Z</time>
      </trkpt>
      <trkpt lat="47.2146" lon="6.87675">
        <ele>908.8</ele>
        <time>2021-08-12T13:48:46Z</time>
      </trkpt>
      <trkpt lat="47.21463" lon="6.87673">
        <ele>908.8</ele>
        <time>2021-08-12T13:48:47Z</time>
      </trkpt>
      <trkpt lat="47.21464" lon="6.87671">
        <ele>908.8</ele>
        <time>2021-08-12T13:48:48Z</time>
      </trkpt>
      <trkpt lat="47.21468" lon="6.87665">
        <ele>908.7</ele>
        <time>2021-08-12T13:48:50Z</time>
      </trkpt>
      <trkpt lat="47.21469" lon="6.87661">
        <ele>908.7</ele>
        <time>2021-08-12T13:48:51Z</time>
      </trkpt>
      <trkpt lat="47.2147" lon="6.87659">
        <ele>908.6</ele>
        <time>2021-08-12T13:48:52Z</time>
      </trkpt>
      <trkpt lat="47.21474" lon="6.87651">
        <ele>908.5</ele>
        <time>2021-08-12T13:48:54Z</time>
      </trkpt>
      <trkpt lat="47.21476" lon="6.87646">
        <ele>908.4</ele>
        <time>2021-08-12T13:48:55Z</time>
      </trkpt>
      <trkpt lat="47.21478" lon="6.87642">
        <ele>908.2</ele>
        <time>2021-08-12T13:48:56Z</time>
      </trkpt>
      <trkpt lat="47.2148" lon="6.87637">
        <ele>908.1</ele>
        <time>2021-08-12T13:48:57Z</time>
      </trkpt>
      <trkpt lat="47.21482" lon="6.87632">
        <ele>908</ele>
        <time>2021-08-12T13:48:58Z</time>
      </trkpt>
      <trkpt lat="47.21484" lon="6.87625">
        <ele>907.8</ele>
        <time>2021-08-12T13:49:00Z</time>
      </trkpt>
      <trkpt lat="47.21487" lon="6.87617">
        <ele>907.6</ele>
        <time>2021-08-12T13:49:02Z</time>
      </trkpt>
      <trkpt lat="47.21492" lon="6.87606">
        <ele>907.1</ele>
        <time>2021-08-12T13:49:04Z</time>
      </trkpt>
      <trkpt lat="47.21499" lon="6.87595">
        <ele>906.5</ele>
        <time>2021-08-12T13:49:06Z</time>
      </trkpt>
      <trkpt lat="47.21503" lon="6.8759">
        <ele>906.1</ele>
        <time>2021-08-12T13:49:07Z</time>
      </trkpt>
      <trkpt lat="47.21507" lon="6.87584">
        <ele>905.7</ele>
        <time>2021-08-12T13:49:08Z</time>
      </trkpt>
      <trkpt lat="47.21513" lon="6.87571">
        <ele>904.8</ele>
        <time>2021-08-12T13:49:10Z</time>
      </trkpt>
      <trkpt lat="47.21516" lon="6.87564">
        <ele>904.4</ele>
        <time>2021-08-12T13:49:11Z</time>
      </trkpt>
      <trkpt lat="47.21519" lon="6.87547">
        <ele>903.9</ele>
        <time>2021-08-12T13:49:13Z</time>
      </trkpt>
      <trkpt lat="47.21519" lon="6.87537">
        <ele>903.6</ele>
        <time>2021-08-12T13:49:14Z</time>
      </trkpt>
      <trkpt lat="47.21518" lon="6.87526">
        <ele>903.3</ele>
        <time>2021-08-12T13:49:15Z</time>
      </trkpt>
      <trkpt lat="47.21518" lon="6.87516">
        <ele>902.9</ele>
        <time>2021-08-12T13:49:16Z</time>
      </trkpt>
      <trkpt lat="47.21515" lon="6.87495">
        <ele>902.3</ele>
        <time>2021-08-12T13:49:18Z</time>
      </trkpt>
      <trkpt lat="47.21513" lon="6.87474">
        <ele>901.7</ele>
        <time>2021-08-12T13:49:20Z</time>
      </trkpt>
      <trkpt lat="47.21513" lon="6.87452">
        <ele>901.1</ele>
        <time>2021-08-12T13:49:22Z</time>
      </trkpt>
      <trkpt lat="47.21517" lon="6.8743">
        <ele>900.4</ele>
        <time>2021-08-12T13:49:24Z</time>
      </trkpt>
      <trkpt lat="47.21522" lon="6.87409">
        <ele>899.7</ele>
        <time>2021-08-12T13:49:26Z</time>
      </trkpt>
      <trkpt lat="47.21527" lon="6.87391">
        <ele>899.2</ele>
        <time>2021-08-12T13:49:28Z</time>
      </trkpt>
      <trkpt lat="47.2153" lon="6.87382">
        <ele>898.9</ele>
        <time>2021-08-12T13:49:29Z</time>
      </trkpt>
      <trkpt lat="47.21534" lon="6.87375">
        <ele>898.6</ele>
        <time>2021-08-12T13:49:30Z</time>
      </trkpt>
      <trkpt lat="47.21549" lon="6.87364">
        <ele>897.9</ele>
        <time>2021-08-12T13:49:32Z</time>
      </trkpt>
      <trkpt lat="47.21564" lon="6.87355">
        <ele>897.3</ele>
        <time>2021-08-12T13:49:34Z</time>
      </trkpt>
      <trkpt lat="47.21571" lon="6.87352">
        <ele>897</ele>
        <time>2021-08-12T13:49:35Z</time>
      </trkpt>
      <trkpt lat="47.21579" lon="6.87347">
        <ele>896.6</ele>
        <time>2021-08-12T13:49:36Z</time>
      </trkpt>
      <trkpt lat="47.21593" lon="6.87337">
        <ele>895.9</ele>
        <time>2021-08-12T13:49:38Z</time>
      </trkpt>
      <trkpt lat="47.21609" lon="6.87326">
        <ele>895.3</ele>
        <time>2021-08-12T13:49:40Z</time>
      </trkpt>
      <trkpt lat="47.21616" lon="6.87321">
        <ele>895.1</ele>
        <time>2021-08-12T13:49:41Z</time>
      </trkpt>
      <trkpt lat="47.21628" lon="6.87312">
        <ele>894.6</ele>
        <time>2021-08-12T13:49:43Z</time>
      </trkpt>
      <trkpt lat="47.21634" lon="6.87308">
        <ele>894.4</ele>
        <time>2021-08-12T13:49:44Z</time>
      </trkpt>
      <trkpt lat="47.2164" lon="6.87305">
        <ele>894.1</ele>
        <time>2021-08-12T13:49:45Z</time>
      </trkpt>
      <trkpt lat="47.21653" lon="6.87298">
        <ele>893.4</ele>
        <time>2021-08-12T13:49:47Z</time>
      </trkpt>
      <trkpt lat="47.21659" lon="6.87294">
        <ele>893</ele>
        <time>2021-08-12T13:49:48Z</time>
      </trkpt>
      <trkpt lat="47.21666" lon="6.8729">
        <ele>892.6</ele>
        <time>2021-08-12T13:49:49Z</time>
      </trkpt>
      <trkpt lat="47.21672" lon="6.87286">
        <ele>892.1</ele>
        <time>2021-08-12T13:49:50Z</time>
      </trkpt>
      <trkpt lat="47.21678" lon="6.87283">
        <ele>891.6</ele>
        <time>2021-08-12T13:49:51Z</time>
      </trkpt>
      <trkpt lat="47.21693" lon="6.87276">
        <ele>890.4</ele>
        <time>2021-08-12T13:49:53Z</time>
      </trkpt>
      <trkpt lat="47.217" lon="6.87272">
        <ele>889.8</ele>
        <time>2021-08-12T13:49:54Z</time>
      </trkpt>
      <trkpt lat="47.21717" lon="6.87262">
        <ele>889</ele>
        <time>2021-08-12T13:49:56Z</time>
      </trkpt>
      <trkpt lat="47.21725" lon="6.87256">
        <ele>888.7</ele>
        <time>2021-08-12T13:49:57Z</time>
      </trkpt>
      <trkpt lat="47.21742" lon="6.87248">
        <ele>888.3</ele>
        <time>2021-08-12T13:49:59Z</time>
      </trkpt>
      <trkpt lat="47.2175" lon="6.87244">
        <ele>888.1</ele>
        <time>2021-08-12T13:50:00Z</time>
      </trkpt>
      <trkpt lat="47.21765" lon="6.87235">
        <ele>887.8</ele>
        <time>2021-08-12T13:50:02Z</time>
      </trkpt>
      <trkpt lat="47.21772" lon="6.87232">
        <ele>887.6</ele>
        <time>2021-08-12T13:50:03Z</time>
      </trkpt>
      <trkpt lat="47.21779" lon="6.87228">
        <ele>887.5</ele>
        <time>2021-08-12T13:50:04Z</time>
      </trkpt>
      <trkpt lat="47.21786" lon="6.87224">
        <ele>887.3</ele>
        <time>2021-08-12T13:50:05Z</time>
      </trkpt>
      <trkpt lat="47.21799" lon="6.87216">
        <ele>887</ele>
        <time>2021-08-12T13:50:07Z</time>
      </trkpt>
      <trkpt lat="47.21812" lon="6.87205">
        <ele>886.5</ele>
        <time>2021-08-12T13:50:09Z</time>
      </trkpt>
      <trkpt lat="47.21822" lon="6.87194">
        <ele>886.1</ele>
        <time>2021-08-12T13:50:11Z</time>
      </trkpt>
      <trkpt lat="47.21828" lon="6.87189">
        <ele>885.9</ele>
        <time>2021-08-12T13:50:12Z</time>
      </trkpt>
      <trkpt lat="47.2184" lon="6.87181">
        <ele>885.4</ele>
        <time>2021-08-12T13:50:14Z</time>
      </trkpt>
      <trkpt lat="47.21846" lon="6.87177">
        <ele>885</ele>
        <time>2021-08-12T13:50:15Z</time>
      </trkpt>
      <trkpt lat="47.21852" lon="6.87173">
        <ele>884.7</ele>
        <time>2021-08-12T13:50:16Z</time>
      </trkpt>
      <trkpt lat="47.21859" lon="6.87169">
        <ele>884.4</ele>
        <time>2021-08-12T13:50:17Z</time>
      </trkpt>
      <trkpt lat="47.21864" lon="6.87165">
        <ele>884</ele>
        <time>2021-08-12T13:50:18Z</time>
      </trkpt>
      <trkpt lat="47.21875" lon="6.87154">
        <ele>883.2</ele>
        <time>2021-08-12T13:50:20Z</time>
      </trkpt>
      <trkpt lat="47.2188" lon="6.87148">
        <ele>882.7</ele>
        <time>2021-08-12T13:50:21Z</time>
      </trkpt>
      <trkpt lat="47.21885" lon="6.87141">
        <ele>882.2</ele>
        <time>2021-08-12T13:50:22Z</time>
      </trkpt>
      <trkpt lat="47.2189" lon="6.87133">
        <ele>881.7</ele>
        <time>2021-08-12T13:50:23Z</time>
      </trkpt>
      <trkpt lat="47.21893" lon="6.87124">
        <ele>881.1</ele>
        <time>2021-08-12T13:50:24Z</time>
      </trkpt>
      <trkpt lat="47.219" lon="6.87103">
        <ele>879.5</ele>
        <time>2021-08-12T13:50:26Z</time>
      </trkpt>
      <trkpt lat="47.2191" lon="6.87083">
        <ele>877.6</ele>
        <time>2021-08-12T13:50:28Z</time>
      </trkpt>
      <trkpt lat="47.21917" lon="6.87074">
        <ele>876.8</ele>
        <time>2021-08-12T13:50:29Z</time>
      </trkpt>
      <trkpt lat="47.21923" lon="6.87064">
        <ele>876.1</ele>
        <time>2021-08-12T13:50:30Z</time>
      </trkpt>
      <trkpt lat="47.21932" lon="6.87044">
        <ele>875.4</ele>
        <time>2021-08-12T13:50:32Z</time>
      </trkpt>
      <trkpt lat="47.21943" lon="6.87025">
        <ele>875</ele>
        <time>2021-08-12T13:50:34Z</time>
      </trkpt>
      <trkpt lat="47.21954" lon="6.87009">
        <ele>874.6</ele>
        <time>2021-08-12T13:50:36Z</time>
      </trkpt>
      <trkpt lat="47.21959" lon="6.87001">
        <ele>874.3</ele>
        <time>2021-08-12T13:50:37Z</time>
      </trkpt>
      <trkpt lat="47.21964" lon="6.86995">
        <ele>874</ele>
        <time>2021-08-12T13:50:38Z</time>
      </trkpt>
      <trkpt lat="47.21968" lon="6.86989">
        <ele>873.8</ele>
        <time>2021-08-12T13:50:39Z</time>
      </trkpt>
      <trkpt lat="47.21972" lon="6.86984">
        <ele>873.5</ele>
        <time>2021-08-12T13:50:40Z</time>
      </trkpt>
      <trkpt lat="47.21977" lon="6.86981">
        <ele>873.3</ele>
        <time>2021-08-12T13:50:41Z</time>
      </trkpt>
      <trkpt lat="47.21981" lon="6.86977">
        <ele>873</ele>
        <time>2021-08-12T13:50:43Z</time>
      </trkpt>
      <trkpt lat="47.21983" lon="6.86976">
        <ele>872.9</ele>
        <time>2021-08-12T13:50:44Z</time>
      </trkpt>
      <trkpt lat="47.21988" lon="6.86976">
        <ele>872.6</ele>
        <time>2021-08-12T13:50:46Z</time>
      </trkpt>
      <trkpt lat="47.21991" lon="6.86978">
        <ele>872.4</ele>
        <time>2021-08-12T13:50:48Z</time>
      </trkpt>
      <trkpt lat="47.21991" lon="6.86978">
        <ele>872.4</ele>
        <time>2021-08-12T13:50:49Z</time>
      </trkpt>
      <trkpt lat="47.21991" lon="6.86978">
        <ele>872.3</ele>
        <time>2021-08-12T13:50:51Z</time>
      </trkpt>
      <trkpt lat="47.21991" lon="6.86979">
        <ele>872.3</ele>
        <time>2021-08-12T13:50:53Z</time>
      </trkpt>
      <trkpt lat="47.21992" lon="6.86979">
        <ele>872.3</ele>
        <time>2021-08-12T13:50:54Z</time>
      </trkpt>
      <trkpt lat="47.21992" lon="6.86979">
        <ele>872.3</ele>
        <time>2021-08-12T13:50:55Z</time>
      </trkpt>
      <trkpt lat="47.21992" lon="6.86979">
        <ele>872.3</ele>
        <time>2021-08-12T13:50:56Z</time>
      </trkpt>
      <trkpt lat="47.21992" lon="6.86979">
        <ele>872.3</ele>
        <time>2021-08-12T13:50:57Z</time>
      </trkpt>
      <trkpt lat="47.21992" lon="6.86979">
        <ele>872.2</ele>
        <time>2021-08-12T13:50:59Z</time>
      </trkpt>
      <trkpt lat="47.21994" lon="6.86968">
        <ele>871.6</ele>
        <time>2021-08-12T13:52:31Z</time>
      </trkpt>
      <trkpt lat="47.21996" lon="6.86967">
        <ele>871.4</ele>
        <time>2021-08-12T13:52:32Z</time>
      </trkpt>
      <trkpt lat="47.22002" lon="6.86962">
        <ele>870.7</ele>
        <time>2021-08-12T13:52:34Z</time>
      </trkpt>
      <trkpt lat="47.2201" lon="6.86954">
        <ele>869.7</ele>
        <time>2021-08-12T13:52:35Z</time>
      </trkpt>
      <trkpt lat="47.22014" lon="6.86948">
        <ele>869.1</ele>
        <time>2021-08-12T13:52:36Z</time>
      </trkpt>
      <trkpt lat="47.22023" lon="6.86934">
        <ele>867.7</ele>
        <time>2021-08-12T13:52:38Z</time>
      </trkpt>
      <trkpt lat="47.22035" lon="6.86917">
        <ele>865.9</ele>
        <time>2021-08-12T13:52:40Z</time>
      </trkpt>
      <trkpt lat="47.22041" lon="6.86907">
        <ele>864.9</ele>
        <time>2021-08-12T13:52:41Z</time>
      </trkpt>
      <trkpt lat="47.22056" lon="6.8689">
        <ele>862.7</ele>
        <time>2021-08-12T13:52:43Z</time>
      </trkpt>
      <trkpt lat="47.22064" lon="6.86883">
        <ele>861.5</ele>
        <time>2021-08-12T13:52:44Z</time>
      </trkpt>
      <trkpt lat="47.22082" lon="6.8687">
        <ele>859.2</ele>
        <time>2021-08-12T13:52:46Z</time>
      </trkpt>
      <trkpt lat="47.221" lon="6.86854">
        <ele>857.6</ele>
        <time>2021-08-12T13:52:48Z</time>
      </trkpt>
      <trkpt lat="47.22108" lon="6.86843">
        <ele>856.9</ele>
        <time>2021-08-12T13:52:49Z</time>
      </trkpt>
      <trkpt lat="47.22125" lon="6.86823">
        <ele>855.7</ele>
        <time>2021-08-12T13:52:51Z</time>
      </trkpt>
      <trkpt lat="47.22134" lon="6.86813">
        <ele>855.1</ele>
        <time>2021-08-12T13:52:52Z</time>
      </trkpt>
      <trkpt lat="47.22143" lon="6.86804">
        <ele>854.5</ele>
        <time>2021-08-12T13:52:53Z</time>
      </trkpt>
      <trkpt lat="47.22153" lon="6.86798">
        <ele>854</ele>
        <time>2021-08-12T13:52:54Z</time>
      </trkpt>
      <trkpt lat="47.22173" lon="6.86787">
        <ele>852.9</ele>
        <time>2021-08-12T13:52:56Z</time>
      </trkpt>
      <trkpt lat="47.22193" lon="6.86778">
        <ele>852.1</ele>
        <time>2021-08-12T13:52:58Z</time>
      </trkpt>
      <trkpt lat="47.22203" lon="6.86775">
        <ele>851.8</ele>
        <time>2021-08-12T13:52:59Z</time>
      </trkpt>
      <trkpt lat="47.22213" lon="6.86772">
        <ele>851.6</ele>
        <time>2021-08-12T13:53:00Z</time>
      </trkpt>
      <trkpt lat="47.22222" lon="6.86768">
        <ele>851.4</ele>
        <time>2021-08-12T13:53:01Z</time>
      </trkpt>
      <trkpt lat="47.22231" lon="6.86764">
        <ele>851.2</ele>
        <time>2021-08-12T13:53:02Z</time>
      </trkpt>
      <trkpt lat="47.22247" lon="6.86757">
        <ele>850.9</ele>
        <time>2021-08-12T13:53:04Z</time>
      </trkpt>
      <trkpt lat="47.22256" lon="6.86753">
        <ele>850.7</ele>
        <time>2021-08-12T13:53:05Z</time>
      </trkpt>
      <trkpt lat="47.22271" lon="6.86746">
        <ele>850.4</ele>
        <time>2021-08-12T13:53:07Z</time>
      </trkpt>
      <trkpt lat="47.22279" lon="6.86743">
        <ele>850.3</ele>
        <time>2021-08-12T13:53:08Z</time>
      </trkpt>
      <trkpt lat="47.22286" lon="6.8674">
        <ele>850.2</ele>
        <time>2021-08-12T13:53:09Z</time>
      </trkpt>
      <trkpt lat="47.223" lon="6.86734">
        <ele>850</ele>
        <time>2021-08-12T13:53:11Z</time>
      </trkpt>
      <trkpt lat="47.22306" lon="6.8673">
        <ele>849.9</ele>
        <time>2021-08-12T13:53:12Z</time>
      </trkpt>
      <trkpt lat="47.22318" lon="6.86722">
        <ele>849.7</ele>
        <time>2021-08-12T13:53:14Z</time>
      </trkpt>
      <trkpt lat="47.22324" lon="6.86718">
        <ele>849.7</ele>
        <time>2021-08-12T13:53:15Z</time>
      </trkpt>
      <trkpt lat="47.2233" lon="6.86714">
        <ele>849.7</ele>
        <time>2021-08-12T13:53:16Z</time>
      </trkpt>
      <trkpt lat="47.2234" lon="6.86706">
        <ele>849.7</ele>
        <time>2021-08-12T13:53:18Z</time>
      </trkpt>
      <trkpt lat="47.22345" lon="6.86702">
        <ele>849.7</ele>
        <time>2021-08-12T13:53:19Z</time>
      </trkpt>
      <trkpt lat="47.2235" lon="6.86698">
        <ele>849.7</ele>
        <time>2021-08-12T13:53:20Z</time>
      </trkpt>
      <trkpt lat="47.22361" lon="6.86689">
        <ele>849.7</ele>
        <time>2021-08-12T13:53:22Z</time>
      </trkpt>
      <trkpt lat="47.22367" lon="6.86683">
        <ele>849.7</ele>
        <time>2021-08-12T13:53:23Z</time>
      </trkpt>
      <trkpt lat="47.22378" lon="6.8667">
        <ele>849.9</ele>
        <time>2021-08-12T13:53:25Z</time>
      </trkpt>
      <trkpt lat="47.22382" lon="6.86664">
        <ele>849.9</ele>
        <time>2021-08-12T13:53:26Z</time>
      </trkpt>
      <trkpt lat="47.22392" lon="6.86653">
        <ele>850.1</ele>
        <time>2021-08-12T13:53:28Z</time>
      </trkpt>
      <trkpt lat="47.22401" lon="6.86643">
        <ele>850.1</ele>
        <time>2021-08-12T13:53:30Z</time>
      </trkpt>
      <trkpt lat="47.22409" lon="6.86632">
        <ele>850</ele>
        <time>2021-08-12T13:53:32Z</time>
      </trkpt>
      <trkpt lat="47.22415" lon="6.86621">
        <ele>849.6</ele>
        <time>2021-08-12T13:53:34Z</time>
      </trkpt>
      <trkpt lat="47.22419" lon="6.86615">
        <ele>849.4</ele>
        <time>2021-08-12T13:53:35Z</time>
      </trkpt>
      <trkpt lat="47.22428" lon="6.86601">
        <ele>848.7</ele>
        <time>2021-08-12T13:53:37Z</time>
      </trkpt>
      <trkpt lat="47.22432" lon="6.86597">
        <ele>848.5</ele>
        <time>2021-08-12T13:53:38Z</time>
      </trkpt>
      <trkpt lat="47.22442" lon="6.86592">
        <ele>847.9</ele>
        <time>2021-08-12T13:53:40Z</time>
      </trkpt>
      <trkpt lat="47.22448" lon="6.86591">
        <ele>847.6</ele>
        <time>2021-08-12T13:53:41Z</time>
      </trkpt>
      <trkpt lat="47.22453" lon="6.86589">
        <ele>847.3</ele>
        <time>2021-08-12T13:53:42Z</time>
      </trkpt>
      <trkpt lat="47.22465" lon="6.86586">
        <ele>846.6</ele>
        <time>2021-08-12T13:53:44Z</time>
      </trkpt>
      <trkpt lat="47.22478" lon="6.86584">
        <ele>845.8</ele>
        <time>2021-08-12T13:53:46Z</time>
      </trkpt>
      <trkpt lat="47.22485" lon="6.86582">
        <ele>845.4</ele>
        <time>2021-08-12T13:53:47Z</time>
      </trkpt>
      <trkpt lat="47.22499" lon="6.86579">
        <ele>844.4</ele>
        <time>2021-08-12T13:53:49Z</time>
      </trkpt>
      <trkpt lat="47.22512" lon="6.86577">
        <ele>843.3</ele>
        <time>2021-08-12T13:53:51Z</time>
      </trkpt>
      <trkpt lat="47.22518" lon="6.86575">
        <ele>842.8</ele>
        <time>2021-08-12T13:53:52Z</time>
      </trkpt>
      <trkpt lat="47.22525" lon="6.8657">
        <ele>842</ele>
        <time>2021-08-12T13:53:54Z</time>
      </trkpt>
      <trkpt lat="47.22527" lon="6.86565">
        <ele>842</ele>
        <time>2021-08-12T13:53:55Z</time>
      </trkpt>
      <trkpt lat="47.22528" lon="6.8656">
        <ele>841.8</ele>
        <time>2021-08-12T13:53:56Z</time>
      </trkpt>
      <trkpt lat="47.22529" lon="6.86548">
        <ele>841.3</ele>
        <time>2021-08-12T13:53:58Z</time>
      </trkpt>
      <trkpt lat="47.22527" lon="6.86534">
        <ele>840.9</ele>
        <time>2021-08-12T13:54:00Z</time>
      </trkpt>
      <trkpt lat="47.22525" lon="6.86527">
        <ele>840.6</ele>
        <time>2021-08-12T13:54:01Z</time>
      </trkpt>
      <trkpt lat="47.22523" lon="6.86518">
        <ele>840.4</ele>
        <time>2021-08-12T13:54:02Z</time>
      </trkpt>
      <trkpt lat="47.22518" lon="6.865">
        <ele>840.1</ele>
        <time>2021-08-12T13:54:04Z</time>
      </trkpt>
      <trkpt lat="47.22515" lon="6.86491">
        <ele>840</ele>
        <time>2021-08-12T13:54:05Z</time>
      </trkpt>
      <trkpt lat="47.22507" lon="6.86475">
        <ele>840</ele>
        <time>2021-08-12T13:54:07Z</time>
      </trkpt>
      <trkpt lat="47.22502" lon="6.86468">
        <ele>840</ele>
        <time>2021-08-12T13:54:08Z</time>
      </trkpt>
      <trkpt lat="47.22494" lon="6.86455">
        <ele>840.1</ele>
        <time>2021-08-12T13:54:10Z</time>
      </trkpt>
      <trkpt lat="47.22486" lon="6.86441">
        <ele>840.2</ele>
        <time>2021-08-12T13:54:12Z</time>
      </trkpt>
      <trkpt lat="47.22478" lon="6.86427">
        <ele>840.3</ele>
        <time>2021-08-12T13:54:14Z</time>
      </trkpt>
      <trkpt lat="47.22469" lon="6.86413">
        <ele>840.3</ele>
        <time>2021-08-12T13:54:16Z</time>
      </trkpt>
      <trkpt lat="47.22465" lon="6.86406">
        <ele>840.4</ele>
        <time>2021-08-12T13:54:17Z</time>
      </trkpt>
      <trkpt lat="47.22461" lon="6.864">
        <ele>840.4</ele>
        <time>2021-08-12T13:54:18Z</time>
      </trkpt>
      <trkpt lat="47.22454" lon="6.86389">
        <ele>840.5</ele>
        <time>2021-08-12T13:54:20Z</time>
      </trkpt>
      <trkpt lat="47.22446" lon="6.86377">
        <ele>840.6</ele>
        <time>2021-08-12T13:54:22Z</time>
      </trkpt>
      <trkpt lat="47.22442" lon="6.86372">
        <ele>840.7</ele>
        <time>2021-08-12T13:54:23Z</time>
      </trkpt>
      <trkpt lat="47.22438" lon="6.86367">
        <ele>840.7</ele>
        <time>2021-08-12T13:54:24Z</time>
      </trkpt>
      <trkpt lat="47.22429" lon="6.86355">
        <ele>840.9</ele>
        <time>2021-08-12T13:54:26Z</time>
      </trkpt>
      <trkpt lat="47.2242" lon="6.86344">
        <ele>840.9</ele>
        <time>2021-08-12T13:54:28Z</time>
      </trkpt>
      <trkpt lat="47.22411" lon="6.86337">
        <ele>841</ele>
        <time>2021-08-12T13:54:30Z</time>
      </trkpt>
      <trkpt lat="47.22401" lon="6.86332">
        <ele>841.1</ele>
        <time>2021-08-12T13:54:32Z</time>
      </trkpt>
      <trkpt lat="47.22392" lon="6.86328">
        <ele>841.2</ele>
        <time>2021-08-12T13:54:34Z</time>
      </trkpt>
      <trkpt lat="47.22387" lon="6.86325">
        <ele>841.2</ele>
        <time>2021-08-12T13:54:35Z</time>
      </trkpt>
      <trkpt lat="47.22382" lon="6.86324">
        <ele>841.3</ele>
        <time>2021-08-12T13:54:36Z</time>
      </trkpt>
      <trkpt lat="47.22373" lon="6.86319">
        <ele>841.5</ele>
        <time>2021-08-12T13:54:38Z</time>
      </trkpt>
      <trkpt lat="47.22368" lon="6.86315">
        <ele>841.6</ele>
        <time>2021-08-12T13:54:39Z</time>
      </trkpt>
      <trkpt lat="47.22359" lon="6.86308">
        <ele>841.7</ele>
        <time>2021-08-12T13:54:41Z</time>
      </trkpt>
      <trkpt lat="47.22351" lon="6.86302">
        <ele>841.8</ele>
        <time>2021-08-12T13:54:43Z</time>
      </trkpt>
      <trkpt lat="47.22348" lon="6.86299">
        <ele>841.8</ele>
        <time>2021-08-12T13:54:44Z</time>
      </trkpt>
      <trkpt lat="47.22344" lon="6.86293">
        <ele>841.8</ele>
        <time>2021-08-12T13:54:46Z</time>
      </trkpt>
      <trkpt lat="47.22338" lon="6.86286">
        <ele>841.9</ele>
        <time>2021-08-12T13:54:48Z</time>
      </trkpt>
      <trkpt lat="47.22332" lon="6.86277">
        <ele>841.9</ele>
        <time>2021-08-12T13:54:50Z</time>
      </trkpt>
      <trkpt lat="47.22327" lon="6.86262">
        <ele>841.9</ele>
        <time>2021-08-12T13:54:51Z</time>
      </trkpt>
      <trkpt lat="47.2232" lon="6.86261">
        <ele>841.9</ele>
        <time>2021-08-12T13:54:52Z</time>
      </trkpt>
      <trkpt lat="47.22314" lon="6.8626">
        <ele>841.9</ele>
        <time>2021-08-12T13:54:54Z</time>
      </trkpt>
      <trkpt lat="47.22305" lon="6.86254">
        <ele>841.9</ele>
        <time>2021-08-12T13:54:56Z</time>
      </trkpt>
      <trkpt lat="47.22296" lon="6.86246">
        <ele>841.8</ele>
        <time>2021-08-12T13:54:58Z</time>
      </trkpt>
      <trkpt lat="47.22291" lon="6.86242">
        <ele>841.8</ele>
        <time>2021-08-12T13:54:59Z</time>
      </trkpt>
      <trkpt lat="47.22287" lon="6.86239">
        <ele>841.8</ele>
        <time>2021-08-12T13:55:00Z</time>
      </trkpt>
      <trkpt lat="47.22277" lon="6.86232">
        <ele>841.7</ele>
        <time>2021-08-12T13:55:02Z</time>
      </trkpt>
      <trkpt lat="47.22267" lon="6.86223">
        <ele>841.7</ele>
        <time>2021-08-12T13:55:04Z</time>
      </trkpt>
      <trkpt lat="47.22262" lon="6.86218">
        <ele>841.6</ele>
        <time>2021-08-12T13:55:05Z</time>
      </trkpt>
      <trkpt lat="47.22257" lon="6.86214">
        <ele>841.6</ele>
        <time>2021-08-12T13:55:06Z</time>
      </trkpt>
      <trkpt lat="47.22248" lon="6.86206">
        <ele>841.5</ele>
        <time>2021-08-12T13:55:08Z</time>
      </trkpt>
      <trkpt lat="47.22242" lon="6.86203">
        <ele>841.5</ele>
        <time>2021-08-12T13:55:09Z</time>
      </trkpt>
      <trkpt lat="47.22232" lon="6.86194">
        <ele>841.4</ele>
        <time>2021-08-12T13:55:11Z</time>
      </trkpt>
      <trkpt lat="47.22227" lon="6.86189">
        <ele>841.4</ele>
        <time>2021-08-12T13:55:12Z</time>
      </trkpt>
      <trkpt lat="47.22216" lon="6.8618">
        <ele>841.4</ele>
        <time>2021-08-12T13:55:14Z</time>
      </trkpt>
      <trkpt lat="47.22205" lon="6.86171">
        <ele>841.4</ele>
        <time>2021-08-12T13:55:16Z</time>
      </trkpt>
      <trkpt lat="47.22199" lon="6.86167">
        <ele>841.4</ele>
        <time>2021-08-12T13:55:17Z</time>
      </trkpt>
      <trkpt lat="47.22194" lon="6.86163">
        <ele>841.4</ele>
        <time>2021-08-12T13:55:18Z</time>
      </trkpt>
      <trkpt lat="47.22183" lon="6.86156">
        <ele>841.4</ele>
        <time>2021-08-12T13:55:20Z</time>
      </trkpt>
      <trkpt lat="47.22173" lon="6.86146">
        <ele>841.5</ele>
        <time>2021-08-12T13:55:22Z</time>
      </trkpt>
      <trkpt lat="47.22168" lon="6.86142">
        <ele>841.5</ele>
        <time>2021-08-12T13:55:23Z</time>
      </trkpt>
      <trkpt lat="47.22159" lon="6.86132">
        <ele>841.7</ele>
        <time>2021-08-12T13:55:25Z</time>
      </trkpt>
      <trkpt lat="47.22155" lon="6.86128">
        <ele>841.8</ele>
        <time>2021-08-12T13:55:26Z</time>
      </trkpt>
      <trkpt lat="47.22145" lon="6.86121">
        <ele>842</ele>
        <time>2021-08-12T13:55:28Z</time>
      </trkpt>
      <trkpt lat="47.22141" lon="6.86117">
        <ele>842.1</ele>
        <time>2021-08-12T13:55:29Z</time>
      </trkpt>
      <trkpt lat="47.22133" lon="6.86108">
        <ele>842.3</ele>
        <time>2021-08-12T13:55:31Z</time>
      </trkpt>
      <trkpt lat="47.22129" lon="6.86104">
        <ele>842.4</ele>
        <time>2021-08-12T13:55:32Z</time>
      </trkpt>
      <trkpt lat="47.22121" lon="6.86096">
        <ele>842.6</ele>
        <time>2021-08-12T13:55:34Z</time>
      </trkpt>
      <trkpt lat="47.22117" lon="6.86093">
        <ele>842.7</ele>
        <time>2021-08-12T13:55:35Z</time>
      </trkpt>
      <trkpt lat="47.22113" lon="6.8609">
        <ele>842.8</ele>
        <time>2021-08-12T13:55:36Z</time>
      </trkpt>
      <trkpt lat="47.22106" lon="6.86085">
        <ele>843</ele>
        <time>2021-08-12T13:55:38Z</time>
      </trkpt>
      <trkpt lat="47.221" lon="6.8608">
        <ele>843.2</ele>
        <time>2021-08-12T13:55:40Z</time>
      </trkpt>
      <trkpt lat="47.22096" lon="6.86078">
        <ele>843.3</ele>
        <time>2021-08-12T13:55:41Z</time>
      </trkpt>
      <trkpt lat="47.22085" lon="6.86074">
        <ele>843.6</ele>
        <time>2021-08-12T13:55:43Z</time>
      </trkpt>
      <trkpt lat="47.22082" lon="6.86079">
        <ele>843.8</ele>
        <time>2021-08-12T13:55:45Z</time>
      </trkpt>
      <trkpt lat="47.2208" lon="6.86075">
        <ele>843.9</ele>
        <time>2021-08-12T13:55:46Z</time>
      </trkpt>
      <trkpt lat="47.22076" lon="6.8607">
        <ele>844</ele>
        <time>2021-08-12T13:55:47Z</time>
      </trkpt>
      <trkpt lat="47.22072" lon="6.86065">
        <ele>844.2</ele>
        <time>2021-08-12T13:55:48Z</time>
      </trkpt>
      <trkpt lat="47.22069" lon="6.86059">
        <ele>844.3</ele>
        <time>2021-08-12T13:55:50Z</time>
      </trkpt>
      <trkpt lat="47.22065" lon="6.86054">
        <ele>844.5</ele>
        <time>2021-08-12T13:55:52Z</time>
      </trkpt>
      <trkpt lat="47.22062" lon="6.86051">
        <ele>844.6</ele>
        <time>2021-08-12T13:55:53Z</time>
      </trkpt>
      <trkpt lat="47.22056" lon="6.86047">
        <ele>844.8</ele>
        <time>2021-08-12T13:55:55Z</time>
      </trkpt>
      <trkpt lat="47.22054" lon="6.86045">
        <ele>844.9</ele>
        <time>2021-08-12T13:55:56Z</time>
      </trkpt>
      <trkpt lat="47.22049" lon="6.86043">
        <ele>845</ele>
        <time>2021-08-12T13:55:57Z</time>
      </trkpt>
      <trkpt lat="47.22044" lon="6.86042">
        <ele>845.1</ele>
        <time>2021-08-12T13:55:59Z</time>
      </trkpt>
      <trkpt lat="47.22038" lon="6.86039">
        <ele>845.3</ele>
        <time>2021-08-12T13:56:01Z</time>
      </trkpt>
      <trkpt lat="47.22035" lon="6.86038">
        <ele>845.4</ele>
        <time>2021-08-12T13:56:02Z</time>
      </trkpt>
      <trkpt lat="47.22032" lon="6.86036">
        <ele>845.5</ele>
        <time>2021-08-12T13:56:03Z</time>
      </trkpt>
      <trkpt lat="47.22028" lon="6.86035">
        <ele>845.6</ele>
        <time>2021-08-12T13:56:04Z</time>
      </trkpt>
      <trkpt lat="47.22023" lon="6.86033">
        <ele>845.7</ele>
        <time>2021-08-12T13:56:06Z</time>
      </trkpt>
      <trkpt lat="47.2202" lon="6.86032">
        <ele>845.8</ele>
        <time>2021-08-12T13:56:07Z</time>
      </trkpt>
      <trkpt lat="47.22016" lon="6.86032">
        <ele>845.9</ele>
        <time>2021-08-12T13:56:08Z</time>
      </trkpt>
      <trkpt lat="47.22012" lon="6.86031">
        <ele>846.1</ele>
        <time>2021-08-12T13:56:09Z</time>
      </trkpt>
      <trkpt lat="47.22009" lon="6.8603">
        <ele>846.2</ele>
        <time>2021-08-12T13:56:10Z</time>
      </trkpt>
      <trkpt lat="47.22005" lon="6.86031">
        <ele>846.2</ele>
        <time>2021-08-12T13:56:12Z</time>
      </trkpt>
      <trkpt lat="47.22002" lon="6.86031">
        <ele>846.3</ele>
        <time>2021-08-12T13:56:13Z</time>
      </trkpt>
      <trkpt lat="47.21998" lon="6.8603">
        <ele>846.4</ele>
        <time>2021-08-12T13:56:14Z</time>
      </trkpt>
      <trkpt lat="47.21995" lon="6.86029">
        <ele>846.5</ele>
        <time>2021-08-12T13:56:15Z</time>
      </trkpt>
      <trkpt lat="47.21993" lon="6.8603">
        <ele>846.5</ele>
        <time>2021-08-12T13:56:16Z</time>
      </trkpt>
      <trkpt lat="47.21989" lon="6.86031">
        <ele>846.6</ele>
        <time>2021-08-12T13:56:18Z</time>
      </trkpt>
      <trkpt lat="47.21984" lon="6.86031">
        <ele>846.8</ele>
        <time>2021-08-12T13:56:19Z</time>
      </trkpt>
      <trkpt lat="47.2198" lon="6.86032">
        <ele>846.9</ele>
        <time>2021-08-12T13:56:21Z</time>
      </trkpt>
      <trkpt lat="47.21975" lon="6.86031">
        <ele>847</ele>
        <time>2021-08-12T13:56:22Z</time>
      </trkpt>
      <trkpt lat="47.2197" lon="6.86033">
        <ele>847.1</ele>
        <time>2021-08-12T13:56:24Z</time>
      </trkpt>
      <trkpt lat="47.21968" lon="6.86034">
        <ele>847.2</ele>
        <time>2021-08-12T13:56:25Z</time>
      </trkpt>
      <trkpt lat="47.21967" lon="6.86034">
        <ele>847.2</ele>
        <time>2021-08-12T13:56:26Z</time>
      </trkpt>
      <trkpt lat="47.21961" lon="6.86035">
        <ele>847.3</ele>
        <time>2021-08-12T13:56:28Z</time>
      </trkpt>
      <trkpt lat="47.21958" lon="6.86036">
        <ele>847.4</ele>
        <time>2021-08-12T13:56:29Z</time>
      </trkpt>
      <trkpt lat="47.21956" lon="6.86037">
        <ele>847.5</ele>
        <time>2021-08-12T13:56:30Z</time>
      </trkpt>
      <trkpt lat="47.21955" lon="6.86037">
        <ele>847.5</ele>
        <time>2021-08-12T13:56:31Z</time>
      </trkpt>
      <trkpt lat="47.21954" lon="6.86042">
        <ele>847.6</ele>
        <time>2021-08-12T13:56:33Z</time>
      </trkpt>
      <trkpt lat="47.21954" lon="6.86043">
        <ele>847.6</ele>
        <time>2021-08-12T13:56:34Z</time>
      </trkpt>
      <trkpt lat="47.2195" lon="6.86046">
        <ele>847.7</ele>
        <time>2021-08-12T13:56:36Z</time>
      </trkpt>
      <trkpt lat="47.21949" lon="6.86047">
        <ele>847.8</ele>
        <time>2021-08-12T13:56:37Z</time>
      </trkpt>
      <trkpt lat="47.21944" lon="6.86048">
        <ele>847.9</ele>
        <time>2021-08-12T13:56:39Z</time>
      </trkpt>
      <trkpt lat="47.2194" lon="6.86049">
        <ele>848</ele>
        <time>2021-08-12T13:56:40Z</time>
      </trkpt>
      <trkpt lat="47.21936" lon="6.86049">
        <ele>848.1</ele>
        <time>2021-08-12T13:56:41Z</time>
      </trkpt>
      <trkpt lat="47.2193" lon="6.86048">
        <ele>848.3</ele>
        <time>2021-08-12T13:56:42Z</time>
      </trkpt>
      <trkpt lat="47.21925" lon="6.86048">
        <ele>848.4</ele>
        <time>2021-08-12T13:56:44Z</time>
      </trkpt>
      <trkpt lat="47.21921" lon="6.86048">
        <ele>848.5</ele>
        <time>2021-08-12T13:56:45Z</time>
      </trkpt>
      <trkpt lat="47.21915" lon="6.86049">
        <ele>848.6</ele>
        <time>2021-08-12T13:56:46Z</time>
      </trkpt>
      <trkpt lat="47.21905" lon="6.86046">
        <ele>848.8</ele>
        <time>2021-08-12T13:56:48Z</time>
      </trkpt>
      <trkpt lat="47.21897" lon="6.86048">
        <ele>848.9</ele>
        <time>2021-08-12T13:56:50Z</time>
      </trkpt>
      <trkpt lat="47.21892" lon="6.86051">
        <ele>849</ele>
        <time>2021-08-12T13:56:52Z</time>
      </trkpt>
      <trkpt lat="47.21886" lon="6.86049">
        <ele>849.1</ele>
        <time>2021-08-12T13:56:53Z</time>
      </trkpt>
      <trkpt lat="47.21882" lon="6.86048">
        <ele>849.2</ele>
        <time>2021-08-12T13:56:54Z</time>
      </trkpt>
      <trkpt lat="47.21876" lon="6.86045">
        <ele>849.3</ele>
        <time>2021-08-12T13:56:55Z</time>
      </trkpt>
      <trkpt lat="47.21869" lon="6.86042">
        <ele>849.5</ele>
        <time>2021-08-12T13:56:57Z</time>
      </trkpt>
      <trkpt lat="47.21865" lon="6.8604">
        <ele>849.6</ele>
        <time>2021-08-12T13:56:58Z</time>
      </trkpt>
      <trkpt lat="47.2186" lon="6.86037">
        <ele>849.7</ele>
        <time>2021-08-12T13:56:59Z</time>
      </trkpt>
      <trkpt lat="47.21855" lon="6.86033">
        <ele>849.9</ele>
        <time>2021-08-12T13:57:01Z</time>
      </trkpt>
      <trkpt lat="47.21848" lon="6.86028">
        <ele>850.1</ele>
        <time>2021-08-12T13:57:03Z</time>
      </trkpt>
      <trkpt lat="47.21844" lon="6.86026">
        <ele>850.2</ele>
        <time>2021-08-12T13:57:04Z</time>
      </trkpt>
      <trkpt lat="47.21837" lon="6.86023">
        <ele>850.4</ele>
        <time>2021-08-12T13:57:06Z</time>
      </trkpt>
      <trkpt lat="47.21829" lon="6.86021">
        <ele>850.6</ele>
        <time>2021-08-12T13:57:07Z</time>
      </trkpt>
      <trkpt lat="47.21824" lon="6.86019">
        <ele>850.7</ele>
        <time>2021-08-12T13:57:08Z</time>
      </trkpt>
      <trkpt lat="47.21819" lon="6.86012">
        <ele>850.9</ele>
        <time>2021-08-12T13:57:09Z</time>
      </trkpt>
      <trkpt lat="47.21812" lon="6.8601">
        <ele>851.1</ele>
        <time>2021-08-12T13:57:11Z</time>
      </trkpt>
      <trkpt lat="47.21807" lon="6.86007">
        <ele>851.3</ele>
        <time>2021-08-12T13:57:12Z</time>
      </trkpt>
      <trkpt lat="47.21801" lon="6.86002">
        <ele>851.4</ele>
        <time>2021-08-12T13:57:14Z</time>
      </trkpt>
      <trkpt lat="47.21794" lon="6.85995">
        <ele>851.6</ele>
        <time>2021-08-12T13:57:16Z</time>
      </trkpt>
      <trkpt lat="47.21788" lon="6.85989">
        <ele>851.8</ele>
        <time>2021-08-12T13:57:18Z</time>
      </trkpt>
      <trkpt lat="47.21784" lon="6.85983">
        <ele>852</ele>
        <time>2021-08-12T13:57:20Z</time>
      </trkpt>
      <trkpt lat="47.21781" lon="6.8598">
        <ele>852.1</ele>
        <time>2021-08-12T13:57:21Z</time>
      </trkpt>
      <trkpt lat="47.21776" lon="6.85976">
        <ele>852.2</ele>
        <time>2021-08-12T13:57:22Z</time>
      </trkpt>
      <trkpt lat="47.21773" lon="6.85971">
        <ele>852.3</ele>
        <time>2021-08-12T13:57:23Z</time>
      </trkpt>
      <trkpt lat="47.21768" lon="6.85966">
        <ele>852.4</ele>
        <time>2021-08-12T13:57:25Z</time>
      </trkpt>
      <trkpt lat="47.21765" lon="6.85962">
        <ele>852.5</ele>
        <time>2021-08-12T13:57:26Z</time>
      </trkpt>
      <trkpt lat="47.21762" lon="6.85955">
        <ele>852.7</ele>
        <time>2021-08-12T13:57:27Z</time>
      </trkpt>
      <trkpt lat="47.21759" lon="6.85945">
        <ele>852.8</ele>
        <time>2021-08-12T13:57:29Z</time>
      </trkpt>
      <trkpt lat="47.21757" lon="6.8594">
        <ele>852.9</ele>
        <time>2021-08-12T13:57:30Z</time>
      </trkpt>
      <trkpt lat="47.21755" lon="6.85933">
        <ele>853.1</ele>
        <time>2021-08-12T13:57:31Z</time>
      </trkpt>
      <trkpt lat="47.21752" lon="6.85927">
        <ele>853.2</ele>
        <time>2021-08-12T13:57:32Z</time>
      </trkpt>
      <trkpt lat="47.21749" lon="6.85918">
        <ele>853.4</ele>
        <time>2021-08-12T13:57:34Z</time>
      </trkpt>
      <trkpt lat="47.21747" lon="6.85912">
        <ele>853.5</ele>
        <time>2021-08-12T13:57:35Z</time>
      </trkpt>
      <trkpt lat="47.21743" lon="6.85902">
        <ele>853.8</ele>
        <time>2021-08-12T13:57:37Z</time>
      </trkpt>
      <trkpt lat="47.21741" lon="6.85897">
        <ele>854</ele>
        <time>2021-08-12T13:57:38Z</time>
      </trkpt>
      <trkpt lat="47.21737" lon="6.85887">
        <ele>854.1</ele>
        <time>2021-08-12T13:57:40Z</time>
      </trkpt>
      <trkpt lat="47.21733" lon="6.85883">
        <ele>854.1</ele>
        <time>2021-08-12T13:57:41Z</time>
      </trkpt>
      <trkpt lat="47.2173" lon="6.85881">
        <ele>854.2</ele>
        <time>2021-08-12T13:57:42Z</time>
      </trkpt>
      <trkpt lat="47.21726" lon="6.85876">
        <ele>854.3</ele>
        <time>2021-08-12T13:57:43Z</time>
      </trkpt>
      <trkpt lat="47.21723" lon="6.85872">
        <ele>854.3</ele>
        <time>2021-08-12T13:57:45Z</time>
      </trkpt>
      <trkpt lat="47.2172" lon="6.85868">
        <ele>854.4</ele>
        <time>2021-08-12T13:57:46Z</time>
      </trkpt>
      <trkpt lat="47.21717" lon="6.85862">
        <ele>854.4</ele>
        <time>2021-08-12T13:57:47Z</time>
      </trkpt>
      <trkpt lat="47.21714" lon="6.85855">
        <ele>854.5</ele>
        <time>2021-08-12T13:57:48Z</time>
      </trkpt>
      <trkpt lat="47.21711" lon="6.85851">
        <ele>854.6</ele>
        <time>2021-08-12T13:57:49Z</time>
      </trkpt>
      <trkpt lat="47.21705" lon="6.85844">
        <ele>854.7</ele>
        <time>2021-08-12T13:57:51Z</time>
      </trkpt>
      <trkpt lat="47.21701" lon="6.85841">
        <ele>854.7</ele>
        <time>2021-08-12T13:57:52Z</time>
      </trkpt>
      <trkpt lat="47.21697" lon="6.8584">
        <ele>854.8</ele>
        <time>2021-08-12T13:57:53Z</time>
      </trkpt>
      <trkpt lat="47.21693" lon="6.85839">
        <ele>854.8</ele>
        <time>2021-08-12T13:57:54Z</time>
      </trkpt>
      <trkpt lat="47.21687" lon="6.85838">
        <ele>854.9</ele>
        <time>2021-08-12T13:57:56Z</time>
      </trkpt>
      <trkpt lat="47.21684" lon="6.85838">
        <ele>854.9</ele>
        <time>2021-08-12T13:57:57Z</time>
      </trkpt>
      <trkpt lat="47.21679" lon="6.85838">
        <ele>854.9</ele>
        <time>2021-08-12T13:57:58Z</time>
      </trkpt>
      <trkpt lat="47.21675" lon="6.85839">
        <ele>854.9</ele>
        <time>2021-08-12T13:57:59Z</time>
      </trkpt>
      <trkpt lat="47.2167" lon="6.8584">
        <ele>854.9</ele>
        <time>2021-08-12T13:58:00Z</time>
      </trkpt>
      <trkpt lat="47.21666" lon="6.8584">
        <ele>854.9</ele>
        <time>2021-08-12T13:58:01Z</time>
      </trkpt>
      <trkpt lat="47.21662" lon="6.85839">
        <ele>854.9</ele>
        <time>2021-08-12T13:58:02Z</time>
      </trkpt>
      <trkpt lat="47.21656" lon="6.85838">
        <ele>854.8</ele>
        <time>2021-08-12T13:58:04Z</time>
      </trkpt>
      <trkpt lat="47.21651" lon="6.85838">
        <ele>854.8</ele>
        <time>2021-08-12T13:58:05Z</time>
      </trkpt>
      <trkpt lat="47.21646" lon="6.85837">
        <ele>854.8</ele>
        <time>2021-08-12T13:58:06Z</time>
      </trkpt>
      <trkpt lat="47.21638" lon="6.85836">
        <ele>854.8</ele>
        <time>2021-08-12T13:58:07Z</time>
      </trkpt>
      <trkpt lat="47.21633" lon="6.85834">
        <ele>854.9</ele>
        <time>2021-08-12T13:58:08Z</time>
      </trkpt>
      <trkpt lat="47.21626" lon="6.85832">
        <ele>854.9</ele>
        <time>2021-08-12T13:58:10Z</time>
      </trkpt>
      <trkpt lat="47.21623" lon="6.85829">
        <ele>854.9</ele>
        <time>2021-08-12T13:58:11Z</time>
      </trkpt>
      <trkpt lat="47.21621" lon="6.85827">
        <ele>854.9</ele>
        <time>2021-08-12T13:58:12Z</time>
      </trkpt>
      <trkpt lat="47.21617" lon="6.85823">
        <ele>854.9</ele>
        <time>2021-08-12T13:58:13Z</time>
      </trkpt>
      <trkpt lat="47.21612" lon="6.85818">
        <ele>855</ele>
        <time>2021-08-12T13:58:15Z</time>
      </trkpt>
      <trkpt lat="47.21607" lon="6.85813">
        <ele>855</ele>
        <time>2021-08-12T13:58:16Z</time>
      </trkpt>
      <trkpt lat="47.21603" lon="6.85808">
        <ele>855</ele>
        <time>2021-08-12T13:58:17Z</time>
      </trkpt>
      <trkpt lat="47.21599" lon="6.85803">
        <ele>854.9</ele>
        <time>2021-08-12T13:58:18Z</time>
      </trkpt>
      <trkpt lat="47.21596" lon="6.85798">
        <ele>854.9</ele>
        <time>2021-08-12T13:58:19Z</time>
      </trkpt>
      <trkpt lat="47.21591" lon="6.85792">
        <ele>854.8</ele>
        <time>2021-08-12T13:58:20Z</time>
      </trkpt>
      <trkpt lat="47.21586" lon="6.85786">
        <ele>854.8</ele>
        <time>2021-08-12T13:58:22Z</time>
      </trkpt>
      <trkpt lat="47.2158" lon="6.85779">
        <ele>854.7</ele>
        <time>2021-08-12T13:58:24Z</time>
      </trkpt>
      <trkpt lat="47.21577" lon="6.85775">
        <ele>854.6</ele>
        <time>2021-08-12T13:58:25Z</time>
      </trkpt>
      <trkpt lat="47.21569" lon="6.85766">
        <ele>854.4</ele>
        <time>2021-08-12T13:58:27Z</time>
      </trkpt>
      <trkpt lat="47.21565" lon="6.85763">
        <ele>854.3</ele>
        <time>2021-08-12T13:58:28Z</time>
      </trkpt>
      <trkpt lat="47.2156" lon="6.85759">
        <ele>854.2</ele>
        <time>2021-08-12T13:58:29Z</time>
      </trkpt>
      <trkpt lat="47.21556" lon="6.85756">
        <ele>854.1</ele>
        <time>2021-08-12T13:58:30Z</time>
      </trkpt>
      <trkpt lat="47.21551" lon="6.85752">
        <ele>854</ele>
        <time>2021-08-12T13:58:31Z</time>
      </trkpt>
      <trkpt lat="47.21546" lon="6.85748">
        <ele>854</ele>
        <time>2021-08-12T13:58:32Z</time>
      </trkpt>
      <trkpt lat="47.21537" lon="6.85739">
        <ele>853.8</ele>
        <time>2021-08-12T13:58:34Z</time>
      </trkpt>
      <trkpt lat="47.21527" lon="6.85728">
        <ele>853.7</ele>
        <time>2021-08-12T13:58:36Z</time>
      </trkpt>
      <trkpt lat="47.21517" lon="6.85717">
        <ele>853.6</ele>
        <time>2021-08-12T13:58:38Z</time>
      </trkpt>
      <trkpt lat="47.21512" lon="6.85712">
        <ele>853.6</ele>
        <time>2021-08-12T13:58:39Z</time>
      </trkpt>
      <trkpt lat="47.21502" lon="6.857">
        <ele>853.6</ele>
        <time>2021-08-12T13:58:41Z</time>
      </trkpt>
      <trkpt lat="47.21497" lon="6.85694">
        <ele>853.7</ele>
        <time>2021-08-12T13:58:42Z</time>
      </trkpt>
      <trkpt lat="47.21492" lon="6.85688">
        <ele>853.7</ele>
        <time>2021-08-12T13:58:43Z</time>
      </trkpt>
      <trkpt lat="47.21483" lon="6.85674">
        <ele>853.7</ele>
        <time>2021-08-12T13:58:45Z</time>
      </trkpt>
      <trkpt lat="47.21473" lon="6.85662">
        <ele>853.8</ele>
        <time>2021-08-12T13:58:47Z</time>
      </trkpt>
      <trkpt lat="47.21467" lon="6.85657">
        <ele>853.9</ele>
        <time>2021-08-12T13:58:48Z</time>
      </trkpt>
      <trkpt lat="47.21456" lon="6.85647">
        <ele>854.1</ele>
        <time>2021-08-12T13:58:50Z</time>
      </trkpt>
      <trkpt lat="47.21444" lon="6.85638">
        <ele>854.3</ele>
        <time>2021-08-12T13:58:52Z</time>
      </trkpt>
      <trkpt lat="47.2144" lon="6.85634">
        <ele>854.4</ele>
        <time>2021-08-12T13:58:53Z</time>
      </trkpt>
      <trkpt lat="47.21435" lon="6.85629">
        <ele>854.4</ele>
        <time>2021-08-12T13:58:54Z</time>
      </trkpt>
      <trkpt lat="47.21425" lon="6.8562">
        <ele>854.6</ele>
        <time>2021-08-12T13:58:56Z</time>
      </trkpt>
      <trkpt lat="47.21414" lon="6.85613">
        <ele>854.8</ele>
        <time>2021-08-12T13:58:58Z</time>
      </trkpt>
      <trkpt lat="47.21409" lon="6.8561">
        <ele>854.9</ele>
        <time>2021-08-12T13:58:59Z</time>
      </trkpt>
      <trkpt lat="47.21399" lon="6.85605">
        <ele>855.1</ele>
        <time>2021-08-12T13:59:01Z</time>
      </trkpt>
      <trkpt lat="47.21394" lon="6.85601">
        <ele>855.1</ele>
        <time>2021-08-12T13:59:02Z</time>
      </trkpt>
      <trkpt lat="47.21385" lon="6.85594">
        <ele>855.3</ele>
        <time>2021-08-12T13:59:04Z</time>
      </trkpt>
      <trkpt lat="47.21381" lon="6.85591">
        <ele>855.4</ele>
        <time>2021-08-12T13:59:05Z</time>
      </trkpt>
      <trkpt lat="47.21376" lon="6.85588">
        <ele>855.4</ele>
        <time>2021-08-12T13:59:06Z</time>
      </trkpt>
      <trkpt lat="47.21372" lon="6.85585">
        <ele>855.5</ele>
        <time>2021-08-12T13:59:07Z</time>
      </trkpt>
      <trkpt lat="47.21368" lon="6.85582">
        <ele>855.5</ele>
        <time>2021-08-12T13:59:08Z</time>
      </trkpt>
      <trkpt lat="47.2136" lon="6.85573">
        <ele>855.7</ele>
        <time>2021-08-12T13:59:10Z</time>
      </trkpt>
      <trkpt lat="47.21355" lon="6.8557">
        <ele>855.8</ele>
        <time>2021-08-12T13:59:11Z</time>
      </trkpt>
      <trkpt lat="47.2135" lon="6.85567">
        <ele>855.8</ele>
        <time>2021-08-12T13:59:12Z</time>
      </trkpt>
      <trkpt lat="47.21343" lon="6.85562">
        <ele>856</ele>
        <time>2021-08-12T13:59:14Z</time>
      </trkpt>
      <trkpt lat="47.2134" lon="6.85559">
        <ele>856</ele>
        <time>2021-08-12T13:59:15Z</time>
      </trkpt>
      <trkpt lat="47.21329" lon="6.85545">
        <ele>856.2</ele>
        <time>2021-08-12T13:59:17Z</time>
      </trkpt>
      <trkpt lat="47.21324" lon="6.8554">
        <ele>856.3</ele>
        <time>2021-08-12T13:59:18Z</time>
      </trkpt>
      <trkpt lat="47.21315" lon="6.85532">
        <ele>856.5</ele>
        <time>2021-08-12T13:59:20Z</time>
      </trkpt>
      <trkpt lat="47.21312" lon="6.85526">
        <ele>856.5</ele>
        <time>2021-08-12T13:59:21Z</time>
      </trkpt>
      <trkpt lat="47.21308" lon="6.85521">
        <ele>856.6</ele>
        <time>2021-08-12T13:59:23Z</time>
      </trkpt>
      <trkpt lat="47.21305" lon="6.85519">
        <ele>856.6</ele>
        <time>2021-08-12T13:59:24Z</time>
      </trkpt>
      <trkpt lat="47.21299" lon="6.85515">
        <ele>856.7</ele>
        <time>2021-08-12T13:59:26Z</time>
      </trkpt>
      <trkpt lat="47.21295" lon="6.85513">
        <ele>856.7</ele>
        <time>2021-08-12T13:59:27Z</time>
      </trkpt>
      <trkpt lat="47.21292" lon="6.85512">
        <ele>856.7</ele>
        <time>2021-08-12T13:59:28Z</time>
      </trkpt>
      <trkpt lat="47.21289" lon="6.85511">
        <ele>856.8</ele>
        <time>2021-08-12T13:59:29Z</time>
      </trkpt>
      <trkpt lat="47.21284" lon="6.8551">
        <ele>856.8</ele>
        <time>2021-08-12T13:59:30Z</time>
      </trkpt>
      <trkpt lat="47.21279" lon="6.85508">
        <ele>856.9</ele>
        <time>2021-08-12T13:59:32Z</time>
      </trkpt>
      <trkpt lat="47.21275" lon="6.85507">
        <ele>856.9</ele>
        <time>2021-08-12T13:59:33Z</time>
      </trkpt>
      <trkpt lat="47.21271" lon="6.85504">
        <ele>857</ele>
        <time>2021-08-12T13:59:35Z</time>
      </trkpt>
      <trkpt lat="47.21268" lon="6.85502">
        <ele>857</ele>
        <time>2021-08-12T13:59:36Z</time>
      </trkpt>
      <trkpt lat="47.21265" lon="6.855">
        <ele>857.1</ele>
        <time>2021-08-12T13:59:37Z</time>
      </trkpt>
      <trkpt lat="47.21262" lon="6.85498">
        <ele>857.1</ele>
        <time>2021-08-12T13:59:38Z</time>
      </trkpt>
      <trkpt lat="47.21258" lon="6.85494">
        <ele>857.2</ele>
        <time>2021-08-12T13:59:39Z</time>
      </trkpt>
      <trkpt lat="47.21254" lon="6.85491">
        <ele>857.3</ele>
        <time>2021-08-12T13:59:40Z</time>
      </trkpt>
      <trkpt lat="47.21249" lon="6.85487">
        <ele>857.3</ele>
        <time>2021-08-12T13:59:42Z</time>
      </trkpt>
      <trkpt lat="47.21246" lon="6.85484">
        <ele>857.4</ele>
        <time>2021-08-12T13:59:43Z</time>
      </trkpt>
      <trkpt lat="47.21242" lon="6.85483">
        <ele>857.5</ele>
        <time>2021-08-12T13:59:44Z</time>
      </trkpt>
      <trkpt lat="47.21237" lon="6.85481">
        <ele>857.6</ele>
        <time>2021-08-12T13:59:45Z</time>
      </trkpt>
      <trkpt lat="47.21234" lon="6.85479">
        <ele>857.6</ele>
        <time>2021-08-12T13:59:46Z</time>
      </trkpt>
      <trkpt lat="47.21229" lon="6.85476">
        <ele>857.7</ele>
        <time>2021-08-12T13:59:48Z</time>
      </trkpt>
      <trkpt lat="47.21224" lon="6.85473">
        <ele>857.8</ele>
        <time>2021-08-12T13:59:49Z</time>
      </trkpt>
      <trkpt lat="47.21221" lon="6.85471">
        <ele>857.9</ele>
        <time>2021-08-12T13:59:50Z</time>
      </trkpt>
      <trkpt lat="47.21218" lon="6.85467">
        <ele>857.9</ele>
        <time>2021-08-12T13:59:51Z</time>
      </trkpt>
      <trkpt lat="47.21213" lon="6.85463">
        <ele>858</ele>
        <time>2021-08-12T13:59:53Z</time>
      </trkpt>
      <trkpt lat="47.2121" lon="6.8546">
        <ele>858.1</ele>
        <time>2021-08-12T13:59:54Z</time>
      </trkpt>
      <trkpt lat="47.21207" lon="6.85456">
        <ele>858.1</ele>
        <time>2021-08-12T13:59:55Z</time>
      </trkpt>
      <trkpt lat="47.21203" lon="6.85453">
        <ele>858.1</ele>
        <time>2021-08-12T13:59:57Z</time>
      </trkpt>
      <trkpt lat="47.21198" lon="6.85445">
        <ele>858.1</ele>
        <time>2021-08-12T13:59:59Z</time>
      </trkpt>
      <trkpt lat="47.21195" lon="6.85441">
        <ele>858.1</ele>
        <time>2021-08-12T14:00:00Z</time>
      </trkpt>
      <trkpt lat="47.21191" lon="6.85437">
        <ele>858.1</ele>
        <time>2021-08-12T14:00:01Z</time>
      </trkpt>
      <trkpt lat="47.21183" lon="6.85434">
        <ele>857.9</ele>
        <time>2021-08-12T14:00:03Z</time>
      </trkpt>
      <trkpt lat="47.21179" lon="6.8543">
        <ele>857.9</ele>
        <time>2021-08-12T14:00:04Z</time>
      </trkpt>
      <trkpt lat="47.21174" lon="6.85424">
        <ele>857.8</ele>
        <time>2021-08-12T14:00:05Z</time>
      </trkpt>
      <trkpt lat="47.2117" lon="6.85421">
        <ele>857.7</ele>
        <time>2021-08-12T14:00:06Z</time>
      </trkpt>
      <trkpt lat="47.21165" lon="6.85417">
        <ele>857.6</ele>
        <time>2021-08-12T14:00:07Z</time>
      </trkpt>
      <trkpt lat="47.21157" lon="6.85408">
        <ele>857.4</ele>
        <time>2021-08-12T14:00:09Z</time>
      </trkpt>
      <trkpt lat="47.21149" lon="6.85397">
        <ele>857.2</ele>
        <time>2021-08-12T14:00:11Z</time>
      </trkpt>
      <trkpt lat="47.21144" lon="6.85391">
        <ele>857.1</ele>
        <time>2021-08-12T14:00:12Z</time>
      </trkpt>
      <trkpt lat="47.2114" lon="6.85385">
        <ele>857.1</ele>
        <time>2021-08-12T14:00:13Z</time>
      </trkpt>
      <trkpt lat="47.21133" lon="6.85373">
        <ele>857.1</ele>
        <time>2021-08-12T14:00:15Z</time>
      </trkpt>
      <trkpt lat="47.2113" lon="6.85367">
        <ele>857.1</ele>
        <time>2021-08-12T14:00:16Z</time>
      </trkpt>
      <trkpt lat="47.21123" lon="6.85356">
        <ele>857.2</ele>
        <time>2021-08-12T14:00:18Z</time>
      </trkpt>
      <trkpt lat="47.2112" lon="6.8535">
        <ele>857.3</ele>
        <time>2021-08-12T14:00:19Z</time>
      </trkpt>
      <trkpt lat="47.21116" lon="6.85338">
        <ele>857.4</ele>
        <time>2021-08-12T14:00:21Z</time>
      </trkpt>
      <trkpt lat="47.21114" lon="6.85333">
        <ele>857.5</ele>
        <time>2021-08-12T14:00:22Z</time>
      </trkpt>
      <trkpt lat="47.21111" lon="6.85322">
        <ele>857.7</ele>
        <time>2021-08-12T14:00:24Z</time>
      </trkpt>
      <trkpt lat="47.21109" lon="6.85311">
        <ele>857.8</ele>
        <time>2021-08-12T14:00:26Z</time>
      </trkpt>
      <trkpt lat="47.21111" lon="6.853">
        <ele>858</ele>
        <time>2021-08-12T14:00:28Z</time>
      </trkpt>
      <trkpt lat="47.21111" lon="6.85296">
        <ele>858</ele>
        <time>2021-08-12T14:00:29Z</time>
      </trkpt>
      <trkpt lat="47.2111" lon="6.85294">
        <ele>858</ele>
        <time>2021-08-12T14:00:30Z</time>
      </trkpt>
      <trkpt lat="47.21103" lon="6.85286">
        <ele>858.1</ele>
        <time>2021-08-12T14:00:32Z</time>
      </trkpt>
      <trkpt lat="47.21099" lon="6.85281">
        <ele>858.1</ele>
        <time>2021-08-12T14:00:33Z</time>
      </trkpt>
      <trkpt lat="47.21095" lon="6.85275">
        <ele>858.1</ele>
        <time>2021-08-12T14:00:34Z</time>
      </trkpt>
      <trkpt lat="47.21092" lon="6.85271">
        <ele>858</ele>
        <time>2021-08-12T14:00:35Z</time>
      </trkpt>
      <trkpt lat="47.21088" lon="6.85265">
        <ele>858</ele>
        <time>2021-08-12T14:00:37Z</time>
      </trkpt>
      <trkpt lat="47.21085" lon="6.85259">
        <ele>857.9</ele>
        <time>2021-08-12T14:00:38Z</time>
      </trkpt>
      <trkpt lat="47.21081" lon="6.85252">
        <ele>857.8</ele>
        <time>2021-08-12T14:00:40Z</time>
      </trkpt>
      <trkpt lat="47.21075" lon="6.85241">
        <ele>857.7</ele>
        <time>2021-08-12T14:00:41Z</time>
      </trkpt>
      <trkpt lat="47.21071" lon="6.85232">
        <ele>857.5</ele>
        <time>2021-08-12T14:00:43Z</time>
      </trkpt>
      <trkpt lat="47.21066" lon="6.85225">
        <ele>857.4</ele>
        <time>2021-08-12T14:00:44Z</time>
      </trkpt>
      <trkpt lat="47.21062" lon="6.85219">
        <ele>857.4</ele>
        <time>2021-08-12T14:00:45Z</time>
      </trkpt>
      <trkpt lat="47.21059" lon="6.85213">
        <ele>857.3</ele>
        <time>2021-08-12T14:00:46Z</time>
      </trkpt>
      <trkpt lat="47.21052" lon="6.85198">
        <ele>857.2</ele>
        <time>2021-08-12T14:00:48Z</time>
      </trkpt>
      <trkpt lat="47.21049" lon="6.8519">
        <ele>857.1</ele>
        <time>2021-08-12T14:00:49Z</time>
      </trkpt>
      <trkpt lat="47.21045" lon="6.85183">
        <ele>857.1</ele>
        <time>2021-08-12T14:00:50Z</time>
      </trkpt>
      <trkpt lat="47.21039" lon="6.8517">
        <ele>857.1</ele>
        <time>2021-08-12T14:00:52Z</time>
      </trkpt>
      <trkpt lat="47.21033" lon="6.85158">
        <ele>857.1</ele>
        <time>2021-08-12T14:00:54Z</time>
      </trkpt>
      <trkpt lat="47.21026" lon="6.85148">
        <ele>857.1</ele>
        <time>2021-08-12T14:00:56Z</time>
      </trkpt>
      <trkpt lat="47.21019" lon="6.85142">
        <ele>857.1</ele>
        <time>2021-08-12T14:00:58Z</time>
      </trkpt>
      <trkpt lat="47.21015" lon="6.85138">
        <ele>857.1</ele>
        <time>2021-08-12T14:00:59Z</time>
      </trkpt>
      <trkpt lat="47.21012" lon="6.85134">
        <ele>857.2</ele>
        <time>2021-08-12T14:01:00Z</time>
      </trkpt>
      <trkpt lat="47.2101" lon="6.85131">
        <ele>857.2</ele>
        <time>2021-08-12T14:01:01Z</time>
      </trkpt>
      <trkpt lat="47.21006" lon="6.85124">
        <ele>857.2</ele>
        <time>2021-08-12T14:01:02Z</time>
      </trkpt>
      <trkpt lat="47.20998" lon="6.8511">
        <ele>857.3</ele>
        <time>2021-08-12T14:01:04Z</time>
      </trkpt>
      <trkpt lat="47.20995" lon="6.85104">
        <ele>857.4</ele>
        <time>2021-08-12T14:01:05Z</time>
      </trkpt>
      <trkpt lat="47.20991" lon="6.85099">
        <ele>857.4</ele>
        <time>2021-08-12T14:01:06Z</time>
      </trkpt>
      <trkpt lat="47.20983" lon="6.8509">
        <ele>857.5</ele>
        <time>2021-08-12T14:01:08Z</time>
      </trkpt>
      <trkpt lat="47.20975" lon="6.8508">
        <ele>857.6</ele>
        <time>2021-08-12T14:01:10Z</time>
      </trkpt>
      <trkpt lat="47.20971" lon="6.85074">
        <ele>857.7</ele>
        <time>2021-08-12T14:01:11Z</time>
      </trkpt>
      <trkpt lat="47.20968" lon="6.85068">
        <ele>857.8</ele>
        <time>2021-08-12T14:01:12Z</time>
      </trkpt>
      <trkpt lat="47.20964" lon="6.85061">
        <ele>857.9</ele>
        <time>2021-08-12T14:01:13Z</time>
      </trkpt>
      <trkpt lat="47.20956" lon="6.8505">
        <ele>858.1</ele>
        <time>2021-08-12T14:01:15Z</time>
      </trkpt>
      <trkpt lat="47.20948" lon="6.8504">
        <ele>858.4</ele>
        <time>2021-08-12T14:01:17Z</time>
      </trkpt>
      <trkpt lat="47.20945" lon="6.85036">
        <ele>858.6</ele>
        <time>2021-08-12T14:01:18Z</time>
      </trkpt>
      <trkpt lat="47.20938" lon="6.85028">
        <ele>858.8</ele>
        <time>2021-08-12T14:01:20Z</time>
      </trkpt>
      <trkpt lat="47.20933" lon="6.85021">
        <ele>859.1</ele>
        <time>2021-08-12T14:01:22Z</time>
      </trkpt>
      <trkpt lat="47.20931" lon="6.85017">
        <ele>859.1</ele>
        <time>2021-08-12T14:01:23Z</time>
      </trkpt>
      <trkpt lat="47.20924" lon="6.85007">
        <ele>859.4</ele>
        <time>2021-08-12T14:01:25Z</time>
      </trkpt>
      <trkpt lat="47.20921" lon="6.85004">
        <ele>859.4</ele>
        <time>2021-08-12T14:01:26Z</time>
      </trkpt>
      <trkpt lat="47.20917" lon="6.85001">
        <ele>859.5</ele>
        <time>2021-08-12T14:01:27Z</time>
      </trkpt>
      <trkpt lat="47.20916" lon="6.84999">
        <ele>859.5</ele>
        <time>2021-08-12T14:01:28Z</time>
      </trkpt>
      <trkpt lat="47.20911" lon="6.84991">
        <ele>859.6</ele>
        <time>2021-08-12T14:01:30Z</time>
      </trkpt>
      <trkpt lat="47.20907" lon="6.84986">
        <ele>859.7</ele>
        <time>2021-08-12T14:01:31Z</time>
      </trkpt>
      <trkpt lat="47.20903" lon="6.84981">
        <ele>859.7</ele>
        <time>2021-08-12T14:01:32Z</time>
      </trkpt>
      <trkpt lat="47.20898" lon="6.84974">
        <ele>859.8</ele>
        <time>2021-08-12T14:01:34Z</time>
      </trkpt>
      <trkpt lat="47.20895" lon="6.84967">
        <ele>859.9</ele>
        <time>2021-08-12T14:01:35Z</time>
      </trkpt>
      <trkpt lat="47.20892" lon="6.84961">
        <ele>859.9</ele>
        <time>2021-08-12T14:01:37Z</time>
      </trkpt>
      <trkpt lat="47.20886" lon="6.84952">
        <ele>860.1</ele>
        <time>2021-08-12T14:01:39Z</time>
      </trkpt>
      <trkpt lat="47.20883" lon="6.84948">
        <ele>860.1</ele>
        <time>2021-08-12T14:01:40Z</time>
      </trkpt>
      <trkpt lat="47.20879" lon="6.84944">
        <ele>860.2</ele>
        <time>2021-08-12T14:01:41Z</time>
      </trkpt>
      <trkpt lat="47.20874" lon="6.84941">
        <ele>860.2</ele>
        <time>2021-08-12T14:01:42Z</time>
      </trkpt>
      <trkpt lat="47.20869" lon="6.84937">
        <ele>860.3</ele>
        <time>2021-08-12T14:01:44Z</time>
      </trkpt>
      <trkpt lat="47.20866" lon="6.8493">
        <ele>860.3</ele>
        <time>2021-08-12T14:01:46Z</time>
      </trkpt>
      <trkpt lat="47.20863" lon="6.84924">
        <ele>860.3</ele>
        <time>2021-08-12T14:01:47Z</time>
      </trkpt>
      <trkpt lat="47.20857" lon="6.84911">
        <ele>860.3</ele>
        <time>2021-08-12T14:01:49Z</time>
      </trkpt>
      <trkpt lat="47.20855" lon="6.84908">
        <ele>860.3</ele>
        <time>2021-08-12T14:01:50Z</time>
      </trkpt>
      <trkpt lat="47.20852" lon="6.84907">
        <ele>860.3</ele>
        <time>2021-08-12T14:01:51Z</time>
      </trkpt>
      <trkpt lat="47.20849" lon="6.84901">
        <ele>860.3</ele>
        <time>2021-08-12T14:01:52Z</time>
      </trkpt>
      <trkpt lat="47.20845" lon="6.84892">
        <ele>860.4</ele>
        <time>2021-08-12T14:01:53Z</time>
      </trkpt>
      <trkpt lat="47.2084" lon="6.84884">
        <ele>860.4</ele>
        <time>2021-08-12T14:01:55Z</time>
      </trkpt>
      <trkpt lat="47.20838" lon="6.8488">
        <ele>860.5</ele>
        <time>2021-08-12T14:01:56Z</time>
      </trkpt>
      <trkpt lat="47.20834" lon="6.84877">
        <ele>860.5</ele>
        <time>2021-08-12T14:01:57Z</time>
      </trkpt>
      <trkpt lat="47.20826" lon="6.84871">
        <ele>860.6</ele>
        <time>2021-08-12T14:01:59Z</time>
      </trkpt>
      <trkpt lat="47.20819" lon="6.84864">
        <ele>860.7</ele>
        <time>2021-08-12T14:02:01Z</time>
      </trkpt>
      <trkpt lat="47.20815" lon="6.84861">
        <ele>860.7</ele>
        <time>2021-08-12T14:02:02Z</time>
      </trkpt>
      <trkpt lat="47.20812" lon="6.84858">
        <ele>860.7</ele>
        <time>2021-08-12T14:02:03Z</time>
      </trkpt>
      <trkpt lat="47.20809" lon="6.84853">
        <ele>860.6</ele>
        <time>2021-08-12T14:02:04Z</time>
      </trkpt>
      <trkpt lat="47.20806" lon="6.8485">
        <ele>860.6</ele>
        <time>2021-08-12T14:02:05Z</time>
      </trkpt>
      <trkpt lat="47.20802" lon="6.84846">
        <ele>860.5</ele>
        <time>2021-08-12T14:02:07Z</time>
      </trkpt>
      <trkpt lat="47.20798" lon="6.84841">
        <ele>860.4</ele>
        <time>2021-08-12T14:02:08Z</time>
      </trkpt>
      <trkpt lat="47.20792" lon="6.84836">
        <ele>860.3</ele>
        <time>2021-08-12T14:02:10Z</time>
      </trkpt>
      <trkpt lat="47.20789" lon="6.84831">
        <ele>860.2</ele>
        <time>2021-08-12T14:02:11Z</time>
      </trkpt>
      <trkpt lat="47.20785" lon="6.84826">
        <ele>860.1</ele>
        <time>2021-08-12T14:02:12Z</time>
      </trkpt>
      <trkpt lat="47.20779" lon="6.84819">
        <ele>859.9</ele>
        <time>2021-08-12T14:02:14Z</time>
      </trkpt>
      <trkpt lat="47.20775" lon="6.84815">
        <ele>859.8</ele>
        <time>2021-08-12T14:02:15Z</time>
      </trkpt>
      <trkpt lat="47.20771" lon="6.84811">
        <ele>859.8</ele>
        <time>2021-08-12T14:02:16Z</time>
      </trkpt>
      <trkpt lat="47.20768" lon="6.84808">
        <ele>859.7</ele>
        <time>2021-08-12T14:02:17Z</time>
      </trkpt>
      <trkpt lat="47.20765" lon="6.84805">
        <ele>859.7</ele>
        <time>2021-08-12T14:02:18Z</time>
      </trkpt>
      <trkpt lat="47.2076" lon="6.84799">
        <ele>859.6</ele>
        <time>2021-08-12T14:02:20Z</time>
      </trkpt>
      <trkpt lat="47.20751" lon="6.8479">
        <ele>859.4</ele>
        <time>2021-08-12T14:02:22Z</time>
      </trkpt>
      <trkpt lat="47.20743" lon="6.84782">
        <ele>859.3</ele>
        <time>2021-08-12T14:02:24Z</time>
      </trkpt>
      <trkpt lat="47.2074" lon="6.84777">
        <ele>859.2</ele>
        <time>2021-08-12T14:02:25Z</time>
      </trkpt>
      <trkpt lat="47.20735" lon="6.84772">
        <ele>859.2</ele>
        <time>2021-08-12T14:02:26Z</time>
      </trkpt>
      <trkpt lat="47.20726" lon="6.84761">
        <ele>859</ele>
        <time>2021-08-12T14:02:28Z</time>
      </trkpt>
      <trkpt lat="47.20721" lon="6.84756">
        <ele>859</ele>
        <time>2021-08-12T14:02:29Z</time>
      </trkpt>
      <trkpt lat="47.20716" lon="6.8475">
        <ele>858.9</ele>
        <time>2021-08-12T14:02:30Z</time>
      </trkpt>
      <trkpt lat="47.20708" lon="6.84736">
        <ele>858.8</ele>
        <time>2021-08-12T14:02:32Z</time>
      </trkpt>
      <trkpt lat="47.20701" lon="6.84723">
        <ele>858.7</ele>
        <time>2021-08-12T14:02:34Z</time>
      </trkpt>
      <trkpt lat="47.20698" lon="6.84717">
        <ele>858.7</ele>
        <time>2021-08-12T14:02:35Z</time>
      </trkpt>
      <trkpt lat="47.20695" lon="6.84711">
        <ele>858.7</ele>
        <time>2021-08-12T14:02:36Z</time>
      </trkpt>
      <trkpt lat="47.20693" lon="6.84706">
        <ele>858.7</ele>
        <time>2021-08-12T14:02:37Z</time>
      </trkpt>
      <trkpt lat="47.20686" lon="6.84694">
        <ele>858.6</ele>
        <time>2021-08-12T14:02:39Z</time>
      </trkpt>
      <trkpt lat="47.20678" lon="6.84683">
        <ele>858.6</ele>
        <time>2021-08-12T14:02:41Z</time>
      </trkpt>
      <trkpt lat="47.20675" lon="6.84678">
        <ele>858.6</ele>
        <time>2021-08-12T14:02:42Z</time>
      </trkpt>
      <trkpt lat="47.20668" lon="6.84666">
        <ele>858.6</ele>
        <time>2021-08-12T14:02:44Z</time>
      </trkpt>
      <trkpt lat="47.20665" lon="6.8466">
        <ele>858.6</ele>
        <time>2021-08-12T14:02:45Z</time>
      </trkpt>
      <trkpt lat="47.20657" lon="6.84649">
        <ele>858.5</ele>
        <time>2021-08-12T14:02:47Z</time>
      </trkpt>
      <trkpt lat="47.20653" lon="6.84643">
        <ele>858.5</ele>
        <time>2021-08-12T14:02:48Z</time>
      </trkpt>
      <trkpt lat="47.20646" lon="6.84633">
        <ele>858.5</ele>
        <time>2021-08-12T14:02:50Z</time>
      </trkpt>
      <trkpt lat="47.20643" lon="6.84626">
        <ele>858.4</ele>
        <time>2021-08-12T14:02:51Z</time>
      </trkpt>
      <trkpt lat="47.20636" lon="6.84615">
        <ele>858.3</ele>
        <time>2021-08-12T14:02:53Z</time>
      </trkpt>
      <trkpt lat="47.20629" lon="6.84608">
        <ele>858.1</ele>
        <time>2021-08-12T14:02:55Z</time>
      </trkpt>
      <trkpt lat="47.20626" lon="6.84603">
        <ele>858</ele>
        <time>2021-08-12T14:02:56Z</time>
      </trkpt>
      <trkpt lat="47.20618" lon="6.84594">
        <ele>857.8</ele>
        <time>2021-08-12T14:02:58Z</time>
      </trkpt>
      <trkpt lat="47.20614" lon="6.8459">
        <ele>857.8</ele>
        <time>2021-08-12T14:02:59Z</time>
      </trkpt>
      <trkpt lat="47.20607" lon="6.84579">
        <ele>857.6</ele>
        <time>2021-08-12T14:03:01Z</time>
      </trkpt>
      <trkpt lat="47.20599" lon="6.84569">
        <ele>857.5</ele>
        <time>2021-08-12T14:03:03Z</time>
      </trkpt>
      <trkpt lat="47.20595" lon="6.84563">
        <ele>857.5</ele>
        <time>2021-08-12T14:03:04Z</time>
      </trkpt>
      <trkpt lat="47.20591" lon="6.84557">
        <ele>857.5</ele>
        <time>2021-08-12T14:03:05Z</time>
      </trkpt>
      <trkpt lat="47.20583" lon="6.84547">
        <ele>857.5</ele>
        <time>2021-08-12T14:03:07Z</time>
      </trkpt>
      <trkpt lat="47.20579" lon="6.84542">
        <ele>857.5</ele>
        <time>2021-08-12T14:03:08Z</time>
      </trkpt>
      <trkpt lat="47.20571" lon="6.84533">
        <ele>857.5</ele>
        <time>2021-08-12T14:03:10Z</time>
      </trkpt>
      <trkpt lat="47.20568" lon="6.84529">
        <ele>857.5</ele>
        <time>2021-08-12T14:03:11Z</time>
      </trkpt>
      <trkpt lat="47.20564" lon="6.84525">
        <ele>857.5</ele>
        <time>2021-08-12T14:03:12Z</time>
      </trkpt>
      <trkpt lat="47.20558" lon="6.84519">
        <ele>857.4</ele>
        <time>2021-08-12T14:03:14Z</time>
      </trkpt>
      <trkpt lat="47.20554" lon="6.84515">
        <ele>857.4</ele>
        <time>2021-08-12T14:03:15Z</time>
      </trkpt>
      <trkpt lat="47.20548" lon="6.84507">
        <ele>857.3</ele>
        <time>2021-08-12T14:03:17Z</time>
      </trkpt>
      <trkpt lat="47.2054" lon="6.84501">
        <ele>857.1</ele>
        <time>2021-08-12T14:03:19Z</time>
      </trkpt>
      <trkpt lat="47.20533" lon="6.84494">
        <ele>856.9</ele>
        <time>2021-08-12T14:03:21Z</time>
      </trkpt>
      <trkpt lat="47.20525" lon="6.84484">
        <ele>856.6</ele>
        <time>2021-08-12T14:03:23Z</time>
      </trkpt>
      <trkpt lat="47.20516" lon="6.84474">
        <ele>856.3</ele>
        <time>2021-08-12T14:03:25Z</time>
      </trkpt>
      <trkpt lat="47.20507" lon="6.84463">
        <ele>855.8</ele>
        <time>2021-08-12T14:03:27Z</time>
      </trkpt>
      <trkpt lat="47.20502" lon="6.84457">
        <ele>855.6</ele>
        <time>2021-08-12T14:03:28Z</time>
      </trkpt>
      <trkpt lat="47.20492" lon="6.84444">
        <ele>855.3</ele>
        <time>2021-08-12T14:03:30Z</time>
      </trkpt>
      <trkpt lat="47.20487" lon="6.84438">
        <ele>855.2</ele>
        <time>2021-08-12T14:03:31Z</time>
      </trkpt>
      <trkpt lat="47.20482" lon="6.84433">
        <ele>855.2</ele>
        <time>2021-08-12T14:03:32Z</time>
      </trkpt>
      <trkpt lat="47.20473" lon="6.84421">
        <ele>855.1</ele>
        <time>2021-08-12T14:03:34Z</time>
      </trkpt>
      <trkpt lat="47.20468" lon="6.84415">
        <ele>855.1</ele>
        <time>2021-08-12T14:03:35Z</time>
      </trkpt>
      <trkpt lat="47.20461" lon="6.84405">
        <ele>855</ele>
        <time>2021-08-12T14:03:37Z</time>
      </trkpt>
      <trkpt lat="47.20458" lon="6.84399">
        <ele>855</ele>
        <time>2021-08-12T14:03:38Z</time>
      </trkpt>
      <trkpt lat="47.20451" lon="6.84389">
        <ele>855</ele>
        <time>2021-08-12T14:03:40Z</time>
      </trkpt>
      <trkpt lat="47.20445" lon="6.84383">
        <ele>855</ele>
        <time>2021-08-12T14:03:42Z</time>
      </trkpt>
      <trkpt lat="47.20441" lon="6.84378">
        <ele>855</ele>
        <time>2021-08-12T14:03:43Z</time>
      </trkpt>
      <trkpt lat="47.20433" lon="6.84368">
        <ele>855.1</ele>
        <time>2021-08-12T14:03:45Z</time>
      </trkpt>
      <trkpt lat="47.20429" lon="6.84364">
        <ele>855.1</ele>
        <time>2021-08-12T14:03:46Z</time>
      </trkpt>
      <trkpt lat="47.20425" lon="6.8436">
        <ele>855.1</ele>
        <time>2021-08-12T14:03:47Z</time>
      </trkpt>
      <trkpt lat="47.20418" lon="6.84352">
        <ele>855.2</ele>
        <time>2021-08-12T14:03:49Z</time>
      </trkpt>
      <trkpt lat="47.20415" lon="6.84348">
        <ele>855.3</ele>
        <time>2021-08-12T14:03:50Z</time>
      </trkpt>
      <trkpt lat="47.20408" lon="6.8434">
        <ele>855.4</ele>
        <time>2021-08-12T14:03:52Z</time>
      </trkpt>
      <trkpt lat="47.20403" lon="6.84334">
        <ele>855.5</ele>
        <time>2021-08-12T14:03:53Z</time>
      </trkpt>
      <trkpt lat="47.20399" lon="6.8433">
        <ele>855.5</ele>
        <time>2021-08-12T14:03:55Z</time>
      </trkpt>
      <trkpt lat="47.20395" lon="6.84326">
        <ele>855.6</ele>
        <time>2021-08-12T14:03:56Z</time>
      </trkpt>
      <trkpt lat="47.20391" lon="6.8432">
        <ele>855.7</ele>
        <time>2021-08-12T14:03:57Z</time>
      </trkpt>
      <trkpt lat="47.20388" lon="6.84313">
        <ele>855.9</ele>
        <time>2021-08-12T14:03:59Z</time>
      </trkpt>
      <trkpt lat="47.20384" lon="6.84309">
        <ele>856</ele>
        <time>2021-08-12T14:04:00Z</time>
      </trkpt>
      <trkpt lat="47.2038" lon="6.84307">
        <ele>856.1</ele>
        <time>2021-08-12T14:04:01Z</time>
      </trkpt>
      <trkpt lat="47.20375" lon="6.843">
        <ele>856.3</ele>
        <time>2021-08-12T14:04:03Z</time>
      </trkpt>
      <trkpt lat="47.20371" lon="6.84294">
        <ele>856.5</ele>
        <time>2021-08-12T14:04:05Z</time>
      </trkpt>
      <trkpt lat="47.20368" lon="6.84292">
        <ele>856.6</ele>
        <time>2021-08-12T14:04:06Z</time>
      </trkpt>
      <trkpt lat="47.20363" lon="6.84288">
        <ele>856.7</ele>
        <time>2021-08-12T14:04:08Z</time>
      </trkpt>
      <trkpt lat="47.2036" lon="6.84285">
        <ele>856.9</ele>
        <time>2021-08-12T14:04:09Z</time>
      </trkpt>
      <trkpt lat="47.20359" lon="6.84283">
        <ele>856.9</ele>
        <time>2021-08-12T14:04:10Z</time>
      </trkpt>
      <trkpt lat="47.20356" lon="6.8428">
        <ele>857.1</ele>
        <time>2021-08-12T14:04:12Z</time>
      </trkpt>
      <trkpt lat="47.20355" lon="6.84279">
        <ele>857.1</ele>
        <time>2021-08-12T14:04:13Z</time>
      </trkpt>
      <trkpt lat="47.20351" lon="6.84276">
        <ele>857.4</ele>
        <time>2021-08-12T14:04:15Z</time>
      </trkpt>
      <trkpt lat="47.20349" lon="6.84275">
        <ele>857.4</ele>
        <time>2021-08-12T14:04:16Z</time>
      </trkpt>
      <trkpt lat="47.20347" lon="6.84275">
        <ele>857.5</ele>
        <time>2021-08-12T14:04:17Z</time>
      </trkpt>
      <trkpt lat="47.20344" lon="6.84272">
        <ele>857.7</ele>
        <time>2021-08-12T14:04:19Z</time>
      </trkpt>
      <trkpt lat="47.20341" lon="6.84271">
        <ele>857.9</ele>
        <time>2021-08-12T14:04:20Z</time>
      </trkpt>
      <trkpt lat="47.20339" lon="6.84268">
        <ele>858.1</ele>
        <time>2021-08-12T14:04:21Z</time>
      </trkpt>
      <trkpt lat="47.20335" lon="6.84265">
        <ele>858.3</ele>
        <time>2021-08-12T14:04:23Z</time>
      </trkpt>
      <trkpt lat="47.20331" lon="6.84264">
        <ele>858.5</ele>
        <time>2021-08-12T14:04:24Z</time>
      </trkpt>
      <trkpt lat="47.20327" lon="6.84265">
        <ele>858.8</ele>
        <time>2021-08-12T14:04:26Z</time>
      </trkpt>
      <trkpt lat="47.20324" lon="6.84265">
        <ele>859</ele>
        <time>2021-08-12T14:04:27Z</time>
      </trkpt>
      <trkpt lat="47.20322" lon="6.84264">
        <ele>859.1</ele>
        <time>2021-08-12T14:04:28Z</time>
      </trkpt>
      <trkpt lat="47.20321" lon="6.84262">
        <ele>859.2</ele>
        <time>2021-08-12T14:04:29Z</time>
      </trkpt>
      <trkpt lat="47.20321" lon="6.8426">
        <ele>859.3</ele>
        <time>2021-08-12T14:04:30Z</time>
      </trkpt>
      <trkpt lat="47.20323" lon="6.8425">
        <ele>859.8</ele>
        <time>2021-08-12T14:04:32Z</time>
      </trkpt>
      <trkpt lat="47.20323" lon="6.84248">
        <ele>859.9</ele>
        <time>2021-08-12T14:04:33Z</time>
      </trkpt>
      <trkpt lat="47.20323" lon="6.84247">
        <ele>859.9</ele>
        <time>2021-08-12T14:04:35Z</time>
      </trkpt>
      <trkpt lat="47.20323" lon="6.84246">
        <ele>860</ele>
        <time>2021-08-12T14:04:37Z</time>
      </trkpt>
      <trkpt lat="47.20323" lon="6.84245">
        <ele>860</ele>
        <time>2021-08-12T14:04:38Z</time>
      </trkpt>
      <trkpt lat="47.20298" lon="6.8423">
        <ele>862.3</ele>
        <time>2021-08-12T14:04:53Z</time>
      </trkpt>
      <trkpt lat="47.20295" lon="6.84222">
        <ele>863</ele>
        <time>2021-08-12T14:04:55Z</time>
      </trkpt>
      <trkpt lat="47.20297" lon="6.84216">
        <ele>863.3</ele>
        <time>2021-08-12T14:04:56Z</time>
      </trkpt>
      <trkpt lat="47.20297" lon="6.84213">
        <ele>863.6</ele>
        <time>2021-08-12T14:04:57Z</time>
      </trkpt>
      <trkpt lat="47.20294" lon="6.84209">
        <ele>864</ele>
        <time>2021-08-12T14:04:59Z</time>
      </trkpt>
      <trkpt lat="47.20291" lon="6.84206">
        <ele>864.3</ele>
        <time>2021-08-12T14:05:00Z</time>
      </trkpt>
      <trkpt lat="47.2029" lon="6.84204">
        <ele>864.5</ele>
        <time>2021-08-12T14:05:01Z</time>
      </trkpt>
      <trkpt lat="47.20289" lon="6.84202">
        <ele>864.6</ele>
        <time>2021-08-12T14:05:02Z</time>
      </trkpt>
      <trkpt lat="47.20288" lon="6.84201">
        <ele>864.7</ele>
        <time>2021-08-12T14:05:04Z</time>
      </trkpt>
      <trkpt lat="47.20287" lon="6.84199">
        <ele>864.8</ele>
        <time>2021-08-12T14:05:06Z</time>
      </trkpt>
      <trkpt lat="47.20223" lon="6.84151">
        <ele>867.2</ele>
        <time>2021-08-12T14:05:34Z</time>
      </trkpt>
      <trkpt lat="47.20218" lon="6.84147">
        <ele>867.2</ele>
        <time>2021-08-12T14:05:35Z</time>
      </trkpt>
      <trkpt lat="47.20213" lon="6.84144">
        <ele>867.2</ele>
        <time>2021-08-12T14:05:36Z</time>
      </trkpt>
      <trkpt lat="47.20207" lon="6.84141">
        <ele>867.1</ele>
        <time>2021-08-12T14:05:37Z</time>
      </trkpt>
      <trkpt lat="47.20199" lon="6.84137">
        <ele>867.1</ele>
        <time>2021-08-12T14:05:39Z</time>
      </trkpt>
      <trkpt lat="47.20194" lon="6.8413">
        <ele>867</ele>
        <time>2021-08-12T14:05:40Z</time>
      </trkpt>
      <trkpt lat="47.2019" lon="6.84123">
        <ele>867</ele>
        <time>2021-08-12T14:05:41Z</time>
      </trkpt>
      <trkpt lat="47.20186" lon="6.84115">
        <ele>866.9</ele>
        <time>2021-08-12T14:05:43Z</time>
      </trkpt>
      <trkpt lat="47.20179" lon="6.84101">
        <ele>866.9</ele>
        <time>2021-08-12T14:05:45Z</time>
      </trkpt>
      <trkpt lat="47.20172" lon="6.8409">
        <ele>866.9</ele>
        <time>2021-08-12T14:05:47Z</time>
      </trkpt>
      <trkpt lat="47.20168" lon="6.84084">
        <ele>866.9</ele>
        <time>2021-08-12T14:05:48Z</time>
      </trkpt>
      <trkpt lat="47.20159" lon="6.84072">
        <ele>866.6</ele>
        <time>2021-08-12T14:05:50Z</time>
      </trkpt>
      <trkpt lat="47.20155" lon="6.84067">
        <ele>866.4</ele>
        <time>2021-08-12T14:05:51Z</time>
      </trkpt>
      <trkpt lat="47.20151" lon="6.84061">
        <ele>866.2</ele>
        <time>2021-08-12T14:05:52Z</time>
      </trkpt>
      <trkpt lat="47.20144" lon="6.8405">
        <ele>865.8</ele>
        <time>2021-08-12T14:05:54Z</time>
      </trkpt>
      <trkpt lat="47.20141" lon="6.84044">
        <ele>865.6</ele>
        <time>2021-08-12T14:05:55Z</time>
      </trkpt>
      <trkpt lat="47.20138" lon="6.84032">
        <ele>865.1</ele>
        <time>2021-08-12T14:05:57Z</time>
      </trkpt>
      <trkpt lat="47.2014" lon="6.84017">
        <ele>864.5</ele>
        <time>2021-08-12T14:05:59Z</time>
      </trkpt>
      <trkpt lat="47.20143" lon="6.8401">
        <ele>864.1</ele>
        <time>2021-08-12T14:06:00Z</time>
      </trkpt>
      <trkpt lat="47.20151" lon="6.83995">
        <ele>863.2</ele>
        <time>2021-08-12T14:06:02Z</time>
      </trkpt>
      <trkpt lat="47.20161" lon="6.83981">
        <ele>862.3</ele>
        <time>2021-08-12T14:06:04Z</time>
      </trkpt>
      <trkpt lat="47.20165" lon="6.83974">
        <ele>861.9</ele>
        <time>2021-08-12T14:06:05Z</time>
      </trkpt>
      <trkpt lat="47.20172" lon="6.83963">
        <ele>861.1</ele>
        <time>2021-08-12T14:06:07Z</time>
      </trkpt>
      <trkpt lat="47.20176" lon="6.83957">
        <ele>860.8</ele>
        <time>2021-08-12T14:06:08Z</time>
      </trkpt>
      <trkpt lat="47.20181" lon="6.83951">
        <ele>859.5</ele>
        <time>2021-08-12T14:06:10Z</time>
      </trkpt>
      <trkpt lat="47.20182" lon="6.83947">
        <ele>859.5</ele>
        <time>2021-08-12T14:06:12Z</time>
      </trkpt>
      <trkpt lat="47.20181" lon="6.83946">
        <ele>859.5</ele>
        <time>2021-08-12T14:06:14Z</time>
      </trkpt>
      <trkpt lat="47.20179" lon="6.83944">
        <ele>859.5</ele>
        <time>2021-08-12T14:06:15Z</time>
      </trkpt>
      <trkpt lat="47.20178" lon="6.83943">
        <ele>859.5</ele>
        <time>2021-08-12T14:06:16Z</time>
      </trkpt>
      <trkpt lat="47.20177" lon="6.83942">
        <ele>859.5</ele>
        <time>2021-08-12T14:06:18Z</time>
      </trkpt>
      <trkpt lat="47.20176" lon="6.83941">
        <ele>859.5</ele>
        <time>2021-08-12T14:06:20Z</time>
      </trkpt>
      <trkpt lat="47.20174" lon="6.8394">
        <ele>859.5</ele>
        <time>2021-08-12T14:06:21Z</time>
      </trkpt>
      <trkpt lat="47.20173" lon="6.83939">
        <ele>860</ele>
        <time>2021-08-12T14:06:23Z</time>
      </trkpt>
      <trkpt lat="47.20172" lon="6.83938">
        <ele>860.1</ele>
        <time>2021-08-12T14:06:42Z</time>
      </trkpt>
      <trkpt lat="47.20171" lon="6.83937">
        <ele>860.1</ele>
        <time>2021-08-12T14:06:43Z</time>
      </trkpt>
      <trkpt lat="47.20163" lon="6.83937">
        <ele>860.5</ele>
        <time>2021-08-12T14:06:45Z</time>
      </trkpt>
      <trkpt lat="47.20157" lon="6.83938">
        <ele>860.8</ele>
        <time>2021-08-12T14:06:47Z</time>
      </trkpt>
      <trkpt lat="47.20155" lon="6.8394">
        <ele>861</ele>
        <time>2021-08-12T14:06:48Z</time>
      </trkpt>
      <trkpt lat="47.20152" lon="6.83943">
        <ele>861.1</ele>
        <time>2021-08-12T14:06:49Z</time>
      </trkpt>
      <trkpt lat="47.2015" lon="6.83946">
        <ele>861.3</ele>
        <time>2021-08-12T14:06:50Z</time>
      </trkpt>
      <trkpt lat="47.20148" lon="6.83948">
        <ele>861.4</ele>
        <time>2021-08-12T14:06:51Z</time>
      </trkpt>
      <trkpt lat="47.20146" lon="6.8395">
        <ele>861.6</ele>
        <time>2021-08-12T14:06:53Z</time>
      </trkpt>
      <trkpt lat="47.20142" lon="6.83953">
        <ele>861.8</ele>
        <time>2021-08-12T14:06:54Z</time>
      </trkpt>
      <trkpt lat="47.2014" lon="6.83954">
        <ele>862</ele>
        <time>2021-08-12T14:06:55Z</time>
      </trkpt>
      <trkpt lat="47.20135" lon="6.83957">
        <ele>862.3</ele>
        <time>2021-08-12T14:06:57Z</time>
      </trkpt>
      <trkpt lat="47.20131" lon="6.83959">
        <ele>862.5</ele>
        <time>2021-08-12T14:06:59Z</time>
      </trkpt>
      <trkpt lat="47.20129" lon="6.83961">
        <ele>862.7</ele>
        <time>2021-08-12T14:07:00Z</time>
      </trkpt>
      <trkpt lat="47.20128" lon="6.83962">
        <ele>862.8</ele>
        <time>2021-08-12T14:07:01Z</time>
      </trkpt>
      <trkpt lat="47.20125" lon="6.83966">
        <ele>863</ele>
        <time>2021-08-12T14:07:02Z</time>
      </trkpt>
      <trkpt lat="47.20124" lon="6.83967">
        <ele>863</ele>
        <time>2021-08-12T14:07:03Z</time>
      </trkpt>
      <trkpt lat="47.20122" lon="6.83971">
        <ele>863.2</ele>
        <time>2021-08-12T14:07:05Z</time>
      </trkpt>
      <trkpt lat="47.20122" lon="6.83972">
        <ele>863.2</ele>
        <time>2021-08-12T14:07:06Z</time>
      </trkpt>
      <trkpt lat="47.20119" lon="6.83975">
        <ele>863.4</ele>
        <time>2021-08-12T14:07:07Z</time>
      </trkpt>
      <trkpt lat="47.20118" lon="6.83976">
        <ele>863.5</ele>
        <time>2021-08-12T14:07:08Z</time>
      </trkpt>
      <trkpt lat="47.20116" lon="6.83978">
        <ele>863.6</ele>
        <time>2021-08-12T14:07:09Z</time>
      </trkpt>
      <trkpt lat="47.20115" lon="6.83978">
        <ele>863.7</ele>
        <time>2021-08-12T14:07:10Z</time>
      </trkpt>
      <trkpt lat="47.20111" lon="6.83982">
        <ele>863.9</ele>
        <time>2021-08-12T14:07:12Z</time>
      </trkpt>
      <trkpt lat="47.20109" lon="6.83984">
        <ele>864.1</ele>
        <time>2021-08-12T14:07:13Z</time>
      </trkpt>
      <trkpt lat="47.20105" lon="6.83987">
        <ele>864.3</ele>
        <time>2021-08-12T14:07:14Z</time>
      </trkpt>
      <trkpt lat="47.20103" lon="6.83989">
        <ele>864.4</ele>
        <time>2021-08-12T14:07:15Z</time>
      </trkpt>
      <trkpt lat="47.20101" lon="6.83991">
        <ele>864.5</ele>
        <time>2021-08-12T14:07:16Z</time>
      </trkpt>
      <trkpt lat="47.20099" lon="6.83994">
        <ele>864.7</ele>
        <time>2021-08-12T14:07:17Z</time>
      </trkpt>
      <trkpt lat="47.20095" lon="6.83997">
        <ele>864.9</ele>
        <time>2021-08-12T14:07:19Z</time>
      </trkpt>
      <trkpt lat="47.20092" lon="6.83998">
        <ele>865</ele>
        <time>2021-08-12T14:07:20Z</time>
      </trkpt>
      <trkpt lat="47.20088" lon="6.83999">
        <ele>865.2</ele>
        <time>2021-08-12T14:07:21Z</time>
      </trkpt>
      <trkpt lat="47.20084" lon="6.84">
        <ele>865.4</ele>
        <time>2021-08-12T14:07:22Z</time>
      </trkpt>
      <trkpt lat="47.20082" lon="6.83999">
        <ele>865.5</ele>
        <time>2021-08-12T14:07:23Z</time>
      </trkpt>
      <trkpt lat="47.20078" lon="6.84">
        <ele>865.7</ele>
        <time>2021-08-12T14:07:25Z</time>
      </trkpt>
      <trkpt lat="47.20076" lon="6.84">
        <ele>865.7</ele>
        <time>2021-08-12T14:07:26Z</time>
      </trkpt>
      <trkpt lat="47.20073" lon="6.84">
        <ele>865.9</ele>
        <time>2021-08-12T14:07:27Z</time>
      </trkpt>
      <trkpt lat="47.2007" lon="6.84001">
        <ele>866</ele>
        <time>2021-08-12T14:07:28Z</time>
      </trkpt>
      <trkpt lat="47.20067" lon="6.84004">
        <ele>866.4</ele>
        <time>2021-08-12T14:07:29Z</time>
      </trkpt>
      <trkpt lat="47.20065" lon="6.84007">
        <ele>866.5</ele>
        <time>2021-08-12T14:07:30Z</time>
      </trkpt>
      <trkpt lat="47.20061" lon="6.8401">
        <ele>866.6</ele>
        <time>2021-08-12T14:07:32Z</time>
      </trkpt>
      <trkpt lat="47.20059" lon="6.84012">
        <ele>866.7</ele>
        <time>2021-08-12T14:07:33Z</time>
      </trkpt>
      <trkpt lat="47.20056" lon="6.84013">
        <ele>866.8</ele>
        <time>2021-08-12T14:07:34Z</time>
      </trkpt>
      <trkpt lat="47.20053" lon="6.84014">
        <ele>866.9</ele>
        <time>2021-08-12T14:07:35Z</time>
      </trkpt>
      <trkpt lat="47.2005" lon="6.84015">
        <ele>867</ele>
        <time>2021-08-12T14:07:36Z</time>
      </trkpt>
      <trkpt lat="47.20049" lon="6.84015">
        <ele>867.1</ele>
        <time>2021-08-12T14:07:37Z</time>
      </trkpt>
      <trkpt lat="47.20049" lon="6.84014">
        <ele>867.1</ele>
        <time>2021-08-12T14:07:39Z</time>
      </trkpt>
      <trkpt lat="47.20049" lon="6.84013">
        <ele>867.1</ele>
        <time>2021-08-12T14:07:40Z</time>
      </trkpt>
      <trkpt lat="47.20046" lon="6.84011">
        <ele>867.2</ele>
        <time>2021-08-12T14:07:42Z</time>
      </trkpt>
      <trkpt lat="47.20044" lon="6.84008">
        <ele>867.4</ele>
        <time>2021-08-12T14:07:43Z</time>
      </trkpt>
      <trkpt lat="47.20042" lon="6.84003">
        <ele>867.5</ele>
        <time>2021-08-12T14:07:44Z</time>
      </trkpt>
      <trkpt lat="47.2004" lon="6.83998">
        <ele>867.6</ele>
        <time>2021-08-12T14:07:46Z</time>
      </trkpt>
      <trkpt lat="47.20039" lon="6.83994">
        <ele>867.7</ele>
        <time>2021-08-12T14:07:47Z</time>
      </trkpt>
      <trkpt lat="47.20039" lon="6.83993">
        <ele>867.7</ele>
        <time>2021-08-12T14:07:48Z</time>
      </trkpt>
      <trkpt lat="47.2004" lon="6.83996">
        <ele>867.8</ele>
        <time>2021-08-12T14:07:50Z</time>
      </trkpt>
      <trkpt lat="47.2004" lon="6.84">
        <ele>867.9</ele>
        <time>2021-08-12T14:07:52Z</time>
      </trkpt>
      <trkpt lat="47.20039" lon="6.84004">
        <ele>868</ele>
        <time>2021-08-12T14:07:53Z</time>
      </trkpt>
      <trkpt lat="47.20038" lon="6.84009">
        <ele>868.1</ele>
        <time>2021-08-12T14:07:55Z</time>
      </trkpt>
      <trkpt lat="47.20038" lon="6.84013">
        <ele>868.2</ele>
        <time>2021-08-12T14:07:57Z</time>
      </trkpt>
      <trkpt lat="47.20037" lon="6.84017">
        <ele>868.3</ele>
        <time>2021-08-12T14:08:38Z</time>
      </trkpt>
      <trkpt lat="47.20036" lon="6.84022">
        <ele>868.4</ele>
        <time>2021-08-12T14:08:39Z</time>
      </trkpt>
      <trkpt lat="47.20032" lon="6.84023">
        <ele>868.5</ele>
        <time>2021-08-12T14:08:40Z</time>
      </trkpt>
      <trkpt lat="47.20024" lon="6.84023">
        <ele>868.7</ele>
        <time>2021-08-12T14:08:42Z</time>
      </trkpt>
      <trkpt lat="47.2002" lon="6.84024">
        <ele>868.8</ele>
        <time>2021-08-12T14:08:43Z</time>
      </trkpt>
      <trkpt lat="47.20015" lon="6.84026">
        <ele>868.9</ele>
        <time>2021-08-12T14:08:44Z</time>
      </trkpt>
      <trkpt lat="47.2001" lon="6.84026">
        <ele>868.9</ele>
        <time>2021-08-12T14:08:46Z</time>
      </trkpt>
      <trkpt lat="47.20008" lon="6.84026">
        <ele>868.9</ele>
        <time>2021-08-12T14:08:47Z</time>
      </trkpt>
      <trkpt lat="47.20006" lon="6.84026">
        <ele>868.9</ele>
        <time>2021-08-12T14:08:48Z</time>
      </trkpt>
      <trkpt lat="47.2" lon="6.84025">
        <ele>868.9</ele>
        <time>2021-08-12T14:08:50Z</time>
      </trkpt>
      <trkpt lat="47.19995" lon="6.84023">
        <ele>868.9</ele>
        <time>2021-08-12T14:08:51Z</time>
      </trkpt>
      <trkpt lat="47.19988" lon="6.84018">
        <ele>868.8</ele>
        <time>2021-08-12T14:08:53Z</time>
      </trkpt>
      <trkpt lat="47.19983" lon="6.84013">
        <ele>868.8</ele>
        <time>2021-08-12T14:08:54Z</time>
      </trkpt>
      <trkpt lat="47.19976" lon="6.84009">
        <ele>868.6</ele>
        <time>2021-08-12T14:08:55Z</time>
      </trkpt>
      <trkpt lat="47.19967" lon="6.84004">
        <ele>868.5</ele>
        <time>2021-08-12T14:08:57Z</time>
      </trkpt>
      <trkpt lat="47.19963" lon="6.84002">
        <ele>868.5</ele>
        <time>2021-08-12T14:08:58Z</time>
      </trkpt>
      <trkpt lat="47.19958" lon="6.83998">
        <ele>868.4</ele>
        <time>2021-08-12T14:08:59Z</time>
      </trkpt>
      <trkpt lat="47.19953" lon="6.83995">
        <ele>868.4</ele>
        <time>2021-08-12T14:09:00Z</time>
      </trkpt>
      <trkpt lat="47.19944" lon="6.83988">
        <ele>868.4</ele>
        <time>2021-08-12T14:09:02Z</time>
      </trkpt>
      <trkpt lat="47.19938" lon="6.83979">
        <ele>868.4</ele>
        <time>2021-08-12T14:09:04Z</time>
      </trkpt>
      <trkpt lat="47.19935" lon="6.83974">
        <ele>868.5</ele>
        <time>2021-08-12T14:09:05Z</time>
      </trkpt>
      <trkpt lat="47.19931" lon="6.83968">
        <ele>868.6</ele>
        <time>2021-08-12T14:09:06Z</time>
      </trkpt>
      <trkpt lat="47.19924" lon="6.83957">
        <ele>868.9</ele>
        <time>2021-08-12T14:09:08Z</time>
      </trkpt>
      <trkpt lat="47.19921" lon="6.83954">
        <ele>869.1</ele>
        <time>2021-08-12T14:09:09Z</time>
      </trkpt>
      <trkpt lat="47.19919" lon="6.8395">
        <ele>869.3</ele>
        <time>2021-08-12T14:09:10Z</time>
      </trkpt>
      <trkpt lat="47.19916" lon="6.83942">
        <ele>869.6</ele>
        <time>2021-08-12T14:09:12Z</time>
      </trkpt>
      <trkpt lat="47.19914" lon="6.83934">
        <ele>870</ele>
        <time>2021-08-12T14:09:14Z</time>
      </trkpt>
      <trkpt lat="47.19912" lon="6.83929">
        <ele>870.2</ele>
        <time>2021-08-12T14:09:15Z</time>
      </trkpt>
      <trkpt lat="47.1991" lon="6.83924">
        <ele>870.5</ele>
        <time>2021-08-12T14:09:16Z</time>
      </trkpt>
      <trkpt lat="47.19908" lon="6.83921">
        <ele>870.8</ele>
        <time>2021-08-12T14:09:17Z</time>
      </trkpt>
      <trkpt lat="47.19906" lon="6.83916">
        <ele>871</ele>
        <time>2021-08-12T14:09:18Z</time>
      </trkpt>
      <trkpt lat="47.19904" lon="6.8391">
        <ele>871.4</ele>
        <time>2021-08-12T14:09:20Z</time>
      </trkpt>
      <trkpt lat="47.19903" lon="6.83905">
        <ele>871.6</ele>
        <time>2021-08-12T14:09:21Z</time>
      </trkpt>
      <trkpt lat="47.19902" lon="6.83902">
        <ele>871.8</ele>
        <time>2021-08-12T14:09:22Z</time>
      </trkpt>
      <trkpt lat="47.199" lon="6.83898">
        <ele>872</ele>
        <time>2021-08-12T14:09:23Z</time>
      </trkpt>
      <trkpt lat="47.19897" lon="6.83894">
        <ele>872.3</ele>
        <time>2021-08-12T14:09:24Z</time>
      </trkpt>
      <trkpt lat="47.19895" lon="6.83891">
        <ele>872.5</ele>
        <time>2021-08-12T14:09:25Z</time>
      </trkpt>
      <trkpt lat="47.19892" lon="6.83888">
        <ele>872.6</ele>
        <time>2021-08-12T14:09:26Z</time>
      </trkpt>
      <trkpt lat="47.1989" lon="6.83885">
        <ele>872.8</ele>
        <time>2021-08-12T14:09:27Z</time>
      </trkpt>
      <trkpt lat="47.19888" lon="6.83882">
        <ele>872.9</ele>
        <time>2021-08-12T14:09:28Z</time>
      </trkpt>
      <trkpt lat="47.19887" lon="6.83879">
        <ele>873</ele>
        <time>2021-08-12T14:09:29Z</time>
      </trkpt>
      <trkpt lat="47.19885" lon="6.83875">
        <ele>873.2</ele>
        <time>2021-08-12T14:09:31Z</time>
      </trkpt>
      <trkpt lat="47.19883" lon="6.83871">
        <ele>873.3</ele>
        <time>2021-08-12T14:09:32Z</time>
      </trkpt>
      <trkpt lat="47.19882" lon="6.83869">
        <ele>873.3</ele>
        <time>2021-08-12T14:09:33Z</time>
      </trkpt>
      <trkpt lat="47.19879" lon="6.83866">
        <ele>873.5</ele>
        <time>2021-08-12T14:09:34Z</time>
      </trkpt>
      <trkpt lat="47.19878" lon="6.83864">
        <ele>873.5</ele>
        <time>2021-08-12T14:09:35Z</time>
      </trkpt>
      <trkpt lat="47.19875" lon="6.83861">
        <ele>873.6</ele>
        <time>2021-08-12T14:09:36Z</time>
      </trkpt>
      <trkpt lat="47.19872" lon="6.83858">
        <ele>873.8</ele>
        <time>2021-08-12T14:09:38Z</time>
      </trkpt>
      <trkpt lat="47.19869" lon="6.83853">
        <ele>873.9</ele>
        <time>2021-08-12T14:09:39Z</time>
      </trkpt>
      <trkpt lat="47.19866" lon="6.83848">
        <ele>874</ele>
        <time>2021-08-12T14:09:41Z</time>
      </trkpt>
      <trkpt lat="47.19864" lon="6.83845">
        <ele>874</ele>
        <time>2021-08-12T14:09:42Z</time>
      </trkpt>
      <trkpt lat="47.19862" lon="6.83841">
        <ele>874.1</ele>
        <time>2021-08-12T14:09:43Z</time>
      </trkpt>
      <trkpt lat="47.19859" lon="6.83837">
        <ele>874.2</ele>
        <time>2021-08-12T14:09:45Z</time>
      </trkpt>
      <trkpt lat="47.19858" lon="6.83835">
        <ele>874.2</ele>
        <time>2021-08-12T14:09:46Z</time>
      </trkpt>
      <trkpt lat="47.19856" lon="6.83831">
        <ele>874.3</ele>
        <time>2021-08-12T14:09:47Z</time>
      </trkpt>
      <trkpt lat="47.19854" lon="6.83826">
        <ele>874.4</ele>
        <time>2021-08-12T14:09:49Z</time>
      </trkpt>
      <trkpt lat="47.19853" lon="6.83823">
        <ele>874.5</ele>
        <time>2021-08-12T14:09:50Z</time>
      </trkpt>
      <trkpt lat="47.19852" lon="6.83821">
        <ele>874.5</ele>
        <time>2021-08-12T14:09:51Z</time>
      </trkpt>
      <trkpt lat="47.1985" lon="6.83818">
        <ele>874.6</ele>
        <time>2021-08-12T14:09:53Z</time>
      </trkpt>
      <trkpt lat="47.19847" lon="6.83815">
        <ele>874.7</ele>
        <time>2021-08-12T14:09:54Z</time>
      </trkpt>
      <trkpt lat="47.19845" lon="6.8381">
        <ele>874.8</ele>
        <time>2021-08-12T14:09:55Z</time>
      </trkpt>
      <trkpt lat="47.19844" lon="6.83808">
        <ele>874.8</ele>
        <time>2021-08-12T14:09:56Z</time>
      </trkpt>
      <trkpt lat="47.19842" lon="6.83804">
        <ele>874.9</ele>
        <time>2021-08-12T14:09:58Z</time>
      </trkpt>
      <trkpt lat="47.1984" lon="6.83801">
        <ele>874.9</ele>
        <time>2021-08-12T14:09:59Z</time>
      </trkpt>
      <trkpt lat="47.19836" lon="6.83796">
        <ele>875</ele>
        <time>2021-08-12T14:10:01Z</time>
      </trkpt>
      <trkpt lat="47.19833" lon="6.83793">
        <ele>875.1</ele>
        <time>2021-08-12T14:10:02Z</time>
      </trkpt>
      <trkpt lat="47.19828" lon="6.83788">
        <ele>875.2</ele>
        <time>2021-08-12T14:10:04Z</time>
      </trkpt>
      <trkpt lat="47.19826" lon="6.83785">
        <ele>875.3</ele>
        <time>2021-08-12T14:10:05Z</time>
      </trkpt>
      <trkpt lat="47.19822" lon="6.83779">
        <ele>875.3</ele>
        <time>2021-08-12T14:10:07Z</time>
      </trkpt>
      <trkpt lat="47.19818" lon="6.8377">
        <ele>875.4</ele>
        <time>2021-08-12T14:10:09Z</time>
      </trkpt>
      <trkpt lat="47.19813" lon="6.83765">
        <ele>875.5</ele>
        <time>2021-08-12T14:10:11Z</time>
      </trkpt>
      <trkpt lat="47.19809" lon="6.83762">
        <ele>875.5</ele>
        <time>2021-08-12T14:10:12Z</time>
      </trkpt>
      <trkpt lat="47.19801" lon="6.83754">
        <ele>875.5</ele>
        <time>2021-08-12T14:10:14Z</time>
      </trkpt>
      <trkpt lat="47.19796" lon="6.83751">
        <ele>875.6</ele>
        <time>2021-08-12T14:10:15Z</time>
      </trkpt>
      <trkpt lat="47.19789" lon="6.83746">
        <ele>875.6</ele>
        <time>2021-08-12T14:10:17Z</time>
      </trkpt>
      <trkpt lat="47.19785" lon="6.83742">
        <ele>875.6</ele>
        <time>2021-08-12T14:10:18Z</time>
      </trkpt>
      <trkpt lat="47.1978" lon="6.83738">
        <ele>875.6</ele>
        <time>2021-08-12T14:10:19Z</time>
      </trkpt>
      <trkpt lat="47.19775" lon="6.83735">
        <ele>875.6</ele>
        <time>2021-08-12T14:10:20Z</time>
      </trkpt>
      <trkpt lat="47.1977" lon="6.83732">
        <ele>875.6</ele>
        <time>2021-08-12T14:10:21Z</time>
      </trkpt>
      <trkpt lat="47.19761" lon="6.83726">
        <ele>875.6</ele>
        <time>2021-08-12T14:10:23Z</time>
      </trkpt>
      <trkpt lat="47.19757" lon="6.83722">
        <ele>875.5</ele>
        <time>2021-08-12T14:10:24Z</time>
      </trkpt>
      <trkpt lat="47.19751" lon="6.83719">
        <ele>875.5</ele>
        <time>2021-08-12T14:10:26Z</time>
      </trkpt>
      <trkpt lat="47.19744" lon="6.83718">
        <ele>875.4</ele>
        <time>2021-08-12T14:10:27Z</time>
      </trkpt>
      <trkpt lat="47.19739" lon="6.83716">
        <ele>875.3</ele>
        <time>2021-08-12T14:10:28Z</time>
      </trkpt>
      <trkpt lat="47.19734" lon="6.83715">
        <ele>875.3</ele>
        <time>2021-08-12T14:10:29Z</time>
      </trkpt>
      <trkpt lat="47.19728" lon="6.83713">
        <ele>875.2</ele>
        <time>2021-08-12T14:10:31Z</time>
      </trkpt>
      <trkpt lat="47.19722" lon="6.83709">
        <ele>875.1</ele>
        <time>2021-08-12T14:10:32Z</time>
      </trkpt>
      <trkpt lat="47.19713" lon="6.83703">
        <ele>875</ele>
        <time>2021-08-12T14:10:34Z</time>
      </trkpt>
      <trkpt lat="47.19701" lon="6.83695">
        <ele>874.8</ele>
        <time>2021-08-12T14:10:36Z</time>
      </trkpt>
      <trkpt lat="47.19687" lon="6.83691">
        <ele>874.6</ele>
        <time>2021-08-12T14:10:38Z</time>
      </trkpt>
      <trkpt lat="47.19672" lon="6.83691">
        <ele>874.2</ele>
        <time>2021-08-12T14:10:40Z</time>
      </trkpt>
      <trkpt lat="47.1966" lon="6.83686">
        <ele>874</ele>
        <time>2021-08-12T14:10:42Z</time>
      </trkpt>
      <trkpt lat="47.19648" lon="6.83682">
        <ele>873.7</ele>
        <time>2021-08-12T14:10:44Z</time>
      </trkpt>
      <trkpt lat="47.19642" lon="6.8368">
        <ele>873.5</ele>
        <time>2021-08-12T14:10:45Z</time>
      </trkpt>
      <trkpt lat="47.19631" lon="6.83673">
        <ele>873.1</ele>
        <time>2021-08-12T14:10:47Z</time>
      </trkpt>
      <trkpt lat="47.1962" lon="6.83665">
        <ele>872.8</ele>
        <time>2021-08-12T14:10:49Z</time>
      </trkpt>
      <trkpt lat="47.19614" lon="6.83661">
        <ele>872.6</ele>
        <time>2021-08-12T14:10:50Z</time>
      </trkpt>
      <trkpt lat="47.19603" lon="6.83657">
        <ele>872.3</ele>
        <time>2021-08-12T14:10:52Z</time>
      </trkpt>
      <trkpt lat="47.1959" lon="6.83654">
        <ele>871.9</ele>
        <time>2021-08-12T14:10:54Z</time>
      </trkpt>
      <trkpt lat="47.19584" lon="6.83651">
        <ele>871.8</ele>
        <time>2021-08-12T14:10:55Z</time>
      </trkpt>
      <trkpt lat="47.19577" lon="6.83646">
        <ele>871.6</ele>
        <time>2021-08-12T14:10:56Z</time>
      </trkpt>
      <trkpt lat="47.19564" lon="6.83637">
        <ele>871.4</ele>
        <time>2021-08-12T14:10:58Z</time>
      </trkpt>
      <trkpt lat="47.19558" lon="6.83632">
        <ele>871.3</ele>
        <time>2021-08-12T14:10:59Z</time>
      </trkpt>
      <trkpt lat="47.19552" lon="6.83628">
        <ele>871.3</ele>
        <time>2021-08-12T14:11:00Z</time>
      </trkpt>
      <trkpt lat="47.1954" lon="6.83619">
        <ele>871.2</ele>
        <time>2021-08-12T14:11:02Z</time>
      </trkpt>
      <trkpt lat="47.1953" lon="6.83614">
        <ele>871.1</ele>
        <time>2021-08-12T14:11:04Z</time>
      </trkpt>
      <trkpt lat="47.19518" lon="6.83607">
        <ele>871.1</ele>
        <time>2021-08-12T14:11:06Z</time>
      </trkpt>
      <trkpt lat="47.19513" lon="6.83603">
        <ele>871.1</ele>
        <time>2021-08-12T14:11:07Z</time>
      </trkpt>
      <trkpt lat="47.19501" lon="6.83597">
        <ele>871</ele>
        <time>2021-08-12T14:11:09Z</time>
      </trkpt>
      <trkpt lat="47.19488" lon="6.83591">
        <ele>871</ele>
        <time>2021-08-12T14:11:11Z</time>
      </trkpt>
      <trkpt lat="47.19476" lon="6.83585">
        <ele>870.9</ele>
        <time>2021-08-12T14:11:13Z</time>
      </trkpt>
      <trkpt lat="47.1947" lon="6.83582">
        <ele>870.9</ele>
        <time>2021-08-12T14:11:14Z</time>
      </trkpt>
      <trkpt lat="47.19464" lon="6.83579">
        <ele>870.9</ele>
        <time>2021-08-12T14:11:15Z</time>
      </trkpt>
      <trkpt lat="47.19459" lon="6.83576">
        <ele>870.9</ele>
        <time>2021-08-12T14:11:16Z</time>
      </trkpt>
      <trkpt lat="47.19449" lon="6.83569">
        <ele>870.9</ele>
        <time>2021-08-12T14:11:18Z</time>
      </trkpt>
      <trkpt lat="47.1944" lon="6.8356">
        <ele>870.8</ele>
        <time>2021-08-12T14:11:20Z</time>
      </trkpt>
      <trkpt lat="47.19436" lon="6.83557">
        <ele>870.8</ele>
        <time>2021-08-12T14:11:21Z</time>
      </trkpt>
      <trkpt lat="47.19427" lon="6.83548">
        <ele>870.8</ele>
        <time>2021-08-12T14:11:23Z</time>
      </trkpt>
      <trkpt lat="47.19417" lon="6.83538">
        <ele>870.8</ele>
        <time>2021-08-12T14:11:25Z</time>
      </trkpt>
      <trkpt lat="47.19412" lon="6.83533">
        <ele>870.8</ele>
        <time>2021-08-12T14:11:26Z</time>
      </trkpt>
      <trkpt lat="47.19404" lon="6.83525">
        <ele>870.8</ele>
        <time>2021-08-12T14:11:28Z</time>
      </trkpt>
      <trkpt lat="47.19399" lon="6.83521">
        <ele>870.7</ele>
        <time>2021-08-12T14:11:29Z</time>
      </trkpt>
      <trkpt lat="47.1939" lon="6.83514">
        <ele>870.7</ele>
        <time>2021-08-12T14:11:31Z</time>
      </trkpt>
      <trkpt lat="47.19384" lon="6.8351">
        <ele>870.6</ele>
        <time>2021-08-12T14:11:33Z</time>
      </trkpt>
      <trkpt lat="47.19382" lon="6.83507">
        <ele>870.6</ele>
        <time>2021-08-12T14:11:34Z</time>
      </trkpt>
      <trkpt lat="47.19379" lon="6.83504">
        <ele>870.6</ele>
        <time>2021-08-12T14:11:35Z</time>
      </trkpt>
      <trkpt lat="47.19374" lon="6.835">
        <ele>870.5</ele>
        <time>2021-08-12T14:11:36Z</time>
      </trkpt>
      <trkpt lat="47.19362" lon="6.83489">
        <ele>870.5</ele>
        <time>2021-08-12T14:11:38Z</time>
      </trkpt>
      <trkpt lat="47.19351" lon="6.83477">
        <ele>870.5</ele>
        <time>2021-08-12T14:11:40Z</time>
      </trkpt>
      <trkpt lat="47.19347" lon="6.8347">
        <ele>870.5</ele>
        <time>2021-08-12T14:11:41Z</time>
      </trkpt>
      <trkpt lat="47.19342" lon="6.83462">
        <ele>870.5</ele>
        <time>2021-08-12T14:11:42Z</time>
      </trkpt>
      <trkpt lat="47.19334" lon="6.8345">
        <ele>870.4</ele>
        <time>2021-08-12T14:11:44Z</time>
      </trkpt>
      <trkpt lat="47.1933" lon="6.83444">
        <ele>870.3</ele>
        <time>2021-08-12T14:11:45Z</time>
      </trkpt>
      <trkpt lat="47.19323" lon="6.8343">
        <ele>870</ele>
        <time>2021-08-12T14:11:47Z</time>
      </trkpt>
      <trkpt lat="47.1932" lon="6.83422">
        <ele>869.8</ele>
        <time>2021-08-12T14:11:48Z</time>
      </trkpt>
      <trkpt lat="47.19313" lon="6.83407">
        <ele>869.5</ele>
        <time>2021-08-12T14:11:50Z</time>
      </trkpt>
      <trkpt lat="47.1931" lon="6.834">
        <ele>869.4</ele>
        <time>2021-08-12T14:11:51Z</time>
      </trkpt>
      <trkpt lat="47.19304" lon="6.83384">
        <ele>869.1</ele>
        <time>2021-08-12T14:11:53Z</time>
      </trkpt>
      <trkpt lat="47.19301" lon="6.83376">
        <ele>868.9</ele>
        <time>2021-08-12T14:11:54Z</time>
      </trkpt>
      <trkpt lat="47.19297" lon="6.83361">
        <ele>868.6</ele>
        <time>2021-08-12T14:11:56Z</time>
      </trkpt>
      <trkpt lat="47.1929" lon="6.83345">
        <ele>868.2</ele>
        <time>2021-08-12T14:11:58Z</time>
      </trkpt>
      <trkpt lat="47.19286" lon="6.83337">
        <ele>868.1</ele>
        <time>2021-08-12T14:11:59Z</time>
      </trkpt>
      <trkpt lat="47.19282" lon="6.83329">
        <ele>867.9</ele>
        <time>2021-08-12T14:12:00Z</time>
      </trkpt>
      <trkpt lat="47.19278" lon="6.83313">
        <ele>867.6</ele>
        <time>2021-08-12T14:12:02Z</time>
      </trkpt>
      <trkpt lat="47.19274" lon="6.83296">
        <ele>867.3</ele>
        <time>2021-08-12T14:12:04Z</time>
      </trkpt>
      <trkpt lat="47.19271" lon="6.8328">
        <ele>867.2</ele>
        <time>2021-08-12T14:12:06Z</time>
      </trkpt>
      <trkpt lat="47.19268" lon="6.83265">
        <ele>867</ele>
        <time>2021-08-12T14:12:08Z</time>
      </trkpt>
      <trkpt lat="47.19267" lon="6.83257">
        <ele>867</ele>
        <time>2021-08-12T14:12:09Z</time>
      </trkpt>
      <trkpt lat="47.19265" lon="6.8325">
        <ele>866.9</ele>
        <time>2021-08-12T14:12:10Z</time>
      </trkpt>
      <trkpt lat="47.19259" lon="6.83237">
        <ele>866.7</ele>
        <time>2021-08-12T14:12:12Z</time>
      </trkpt>
      <trkpt lat="47.19256" lon="6.8323">
        <ele>866.6</ele>
        <time>2021-08-12T14:12:13Z</time>
      </trkpt>
      <trkpt lat="47.19251" lon="6.83218">
        <ele>866.6</ele>
        <time>2021-08-12T14:12:15Z</time>
      </trkpt>
      <trkpt lat="47.19249" lon="6.83214">
        <ele>866.6</ele>
        <time>2021-08-12T14:12:16Z</time>
      </trkpt>
      <trkpt lat="47.19245" lon="6.83204">
        <ele>866.5</ele>
        <time>2021-08-12T14:12:18Z</time>
      </trkpt>
      <trkpt lat="47.19243" lon="6.832">
        <ele>866.5</ele>
        <time>2021-08-12T14:12:19Z</time>
      </trkpt>
      <trkpt lat="47.1924" lon="6.83193">
        <ele>866.5</ele>
        <time>2021-08-12T14:12:20Z</time>
      </trkpt>
      <trkpt lat="47.19238" lon="6.83181">
        <ele>866.4</ele>
        <time>2021-08-12T14:12:22Z</time>
      </trkpt>
      <trkpt lat="47.19236" lon="6.83178">
        <ele>866.4</ele>
        <time>2021-08-12T14:12:23Z</time>
      </trkpt>
      <trkpt lat="47.19235" lon="6.83176">
        <ele>866.4</ele>
        <time>2021-08-12T14:12:24Z</time>
      </trkpt>
      <trkpt lat="47.19234" lon="6.83166">
        <ele>866.3</ele>
        <time>2021-08-12T14:12:25Z</time>
      </trkpt>
      <trkpt lat="47.19233" lon="6.83156">
        <ele>866.3</ele>
        <time>2021-08-12T14:12:27Z</time>
      </trkpt>
      <trkpt lat="47.19232" lon="6.83149">
        <ele>866.2</ele>
        <time>2021-08-12T14:12:28Z</time>
      </trkpt>
      <trkpt lat="47.19231" lon="6.83138">
        <ele>866.2</ele>
        <time>2021-08-12T14:12:30Z</time>
      </trkpt>
      <trkpt lat="47.19229" lon="6.83132">
        <ele>866.2</ele>
        <time>2021-08-12T14:12:31Z</time>
      </trkpt>
      <trkpt lat="47.19227" lon="6.83123">
        <ele>866.2</ele>
        <time>2021-08-12T14:12:33Z</time>
      </trkpt>
      <trkpt lat="47.19225" lon="6.83114">
        <ele>866.1</ele>
        <time>2021-08-12T14:12:35Z</time>
      </trkpt>
      <trkpt lat="47.19224" lon="6.83105">
        <ele>866.1</ele>
        <time>2021-08-12T14:12:36Z</time>
      </trkpt>
      <trkpt lat="47.19222" lon="6.83098">
        <ele>866.1</ele>
        <time>2021-08-12T14:12:37Z</time>
      </trkpt>
      <trkpt lat="47.1922" lon="6.83084">
        <ele>866</ele>
        <time>2021-08-12T14:12:39Z</time>
      </trkpt>
      <trkpt lat="47.19218" lon="6.83071">
        <ele>866</ele>
        <time>2021-08-12T14:12:41Z</time>
      </trkpt>
      <trkpt lat="47.19217" lon="6.83065">
        <ele>866</ele>
        <time>2021-08-12T14:12:42Z</time>
      </trkpt>
      <trkpt lat="47.19217" lon="6.83059">
        <ele>865.9</ele>
        <time>2021-08-12T14:12:43Z</time>
      </trkpt>
      <trkpt lat="47.19216" lon="6.83052">
        <ele>865.9</ele>
        <time>2021-08-12T14:12:44Z</time>
      </trkpt>
      <trkpt lat="47.19214" lon="6.83043">
        <ele>865.9</ele>
        <time>2021-08-12T14:12:46Z</time>
      </trkpt>
      <trkpt lat="47.19213" lon="6.83036">
        <ele>866</ele>
        <time>2021-08-12T14:12:47Z</time>
      </trkpt>
      <trkpt lat="47.19211" lon="6.83027">
        <ele>866.1</ele>
        <time>2021-08-12T14:12:48Z</time>
      </trkpt>
      <trkpt lat="47.1921" lon="6.8302">
        <ele>866.2</ele>
        <time>2021-08-12T14:12:50Z</time>
      </trkpt>
      <trkpt lat="47.19208" lon="6.83007">
        <ele>866.4</ele>
        <time>2021-08-12T14:12:52Z</time>
      </trkpt>
      <trkpt lat="47.19207" lon="6.82993">
        <ele>866.7</ele>
        <time>2021-08-12T14:12:54Z</time>
      </trkpt>
      <trkpt lat="47.19206" lon="6.82979">
        <ele>867</ele>
        <time>2021-08-12T14:12:56Z</time>
      </trkpt>
      <trkpt lat="47.19205" lon="6.82973">
        <ele>867.2</ele>
        <time>2021-08-12T14:12:57Z</time>
      </trkpt>
      <trkpt lat="47.19204" lon="6.82967">
        <ele>867.3</ele>
        <time>2021-08-12T14:12:58Z</time>
      </trkpt>
      <trkpt lat="47.19204" lon="6.82961">
        <ele>867.4</ele>
        <time>2021-08-12T14:13:00Z</time>
      </trkpt>
      <trkpt lat="47.19204" lon="6.82956">
        <ele>867.6</ele>
        <time>2021-08-12T14:13:01Z</time>
      </trkpt>
      <trkpt lat="47.19204" lon="6.82952">
        <ele>867.7</ele>
        <time>2021-08-12T14:13:02Z</time>
      </trkpt>
      <trkpt lat="47.19204" lon="6.82944">
        <ele>867.8</ele>
        <time>2021-08-12T14:13:03Z</time>
      </trkpt>
      <trkpt lat="47.19204" lon="6.82939">
        <ele>867.9</ele>
        <time>2021-08-12T14:13:05Z</time>
      </trkpt>
      <trkpt lat="47.19205" lon="6.82935">
        <ele>868</ele>
        <time>2021-08-12T14:13:06Z</time>
      </trkpt>
      <trkpt lat="47.19205" lon="6.8293">
        <ele>868.1</ele>
        <time>2021-08-12T14:13:07Z</time>
      </trkpt>
      <trkpt lat="47.19205" lon="6.82926">
        <ele>868.2</ele>
        <time>2021-08-12T14:13:08Z</time>
      </trkpt>
      <trkpt lat="47.19205" lon="6.82921">
        <ele>868.4</ele>
        <time>2021-08-12T14:13:09Z</time>
      </trkpt>
      <trkpt lat="47.19204" lon="6.82919">
        <ele>868.4</ele>
        <time>2021-08-12T14:13:10Z</time>
      </trkpt>
      <trkpt lat="47.19203" lon="6.82913">
        <ele>868.6</ele>
        <time>2021-08-12T14:13:12Z</time>
      </trkpt>
      <trkpt lat="47.19201" lon="6.82907">
        <ele>868.8</ele>
        <time>2021-08-12T14:13:14Z</time>
      </trkpt>
      <trkpt lat="47.192" lon="6.82904">
        <ele>868.9</ele>
        <time>2021-08-12T14:13:15Z</time>
      </trkpt>
      <trkpt lat="47.19197" lon="6.829">
        <ele>869</ele>
        <time>2021-08-12T14:13:17Z</time>
      </trkpt>
      <trkpt lat="47.19196" lon="6.82896">
        <ele>869.2</ele>
        <time>2021-08-12T14:13:18Z</time>
      </trkpt>
      <trkpt lat="47.19196" lon="6.82894">
        <ele>869.2</ele>
        <time>2021-08-12T14:13:19Z</time>
      </trkpt>
      <trkpt lat="47.19195" lon="6.82892">
        <ele>869.3</ele>
        <time>2021-08-12T14:13:20Z</time>
      </trkpt>
      <trkpt lat="47.19193" lon="6.82889">
        <ele>869.4</ele>
        <time>2021-08-12T14:13:22Z</time>
      </trkpt>
      <trkpt lat="47.1919" lon="6.82885">
        <ele>869.6</ele>
        <time>2021-08-12T14:13:24Z</time>
      </trkpt>
      <trkpt lat="47.19189" lon="6.82881">
        <ele>869.8</ele>
        <time>2021-08-12T14:13:26Z</time>
      </trkpt>
      <trkpt lat="47.19187" lon="6.82877">
        <ele>869.9</ele>
        <time>2021-08-12T14:13:27Z</time>
      </trkpt>
      <trkpt lat="47.19185" lon="6.82873">
        <ele>870.1</ele>
        <time>2021-08-12T14:13:28Z</time>
      </trkpt>
      <trkpt lat="47.19183" lon="6.82869">
        <ele>870.3</ele>
        <time>2021-08-12T14:13:30Z</time>
      </trkpt>
      <trkpt lat="47.19182" lon="6.82868">
        <ele>870.3</ele>
        <time>2021-08-12T14:13:31Z</time>
      </trkpt>
      <trkpt lat="47.19181" lon="6.82864">
        <ele>870.5</ele>
        <time>2021-08-12T14:13:33Z</time>
      </trkpt>
      <trkpt lat="47.19179" lon="6.82861">
        <ele>870.6</ele>
        <time>2021-08-12T14:13:34Z</time>
      </trkpt>
      <trkpt lat="47.19178" lon="6.82857">
        <ele>870.8</ele>
        <time>2021-08-12T14:13:35Z</time>
      </trkpt>
      <trkpt lat="47.19177" lon="6.82856">
        <ele>870.8</ele>
        <time>2021-08-12T14:13:36Z</time>
      </trkpt>
      <trkpt lat="47.19175" lon="6.82851">
        <ele>871</ele>
        <time>2021-08-12T14:13:37Z</time>
      </trkpt>
      <trkpt lat="47.19174" lon="6.82849">
        <ele>871.1</ele>
        <time>2021-08-12T14:13:38Z</time>
      </trkpt>
      <trkpt lat="47.19173" lon="6.82847">
        <ele>871.2</ele>
        <time>2021-08-12T14:13:39Z</time>
      </trkpt>
      <trkpt lat="47.1917" lon="6.82843">
        <ele>871.3</ele>
        <time>2021-08-12T14:13:41Z</time>
      </trkpt>
      <trkpt lat="47.19169" lon="6.82839">
        <ele>871.5</ele>
        <time>2021-08-12T14:13:43Z</time>
      </trkpt>
      <trkpt lat="47.19165" lon="6.82836">
        <ele>871.7</ele>
        <time>2021-08-12T14:13:44Z</time>
      </trkpt>
      <trkpt lat="47.19162" lon="6.82833">
        <ele>871.8</ele>
        <time>2021-08-12T14:13:46Z</time>
      </trkpt>
      <trkpt lat="47.19159" lon="6.82829">
        <ele>872</ele>
        <time>2021-08-12T14:13:47Z</time>
      </trkpt>
      <trkpt lat="47.19158" lon="6.82829">
        <ele>872</ele>
        <time>2021-08-12T14:13:48Z</time>
      </trkpt>
      <trkpt lat="47.19157" lon="6.82826">
        <ele>872.2</ele>
        <time>2021-08-12T14:13:49Z</time>
      </trkpt>
      <trkpt lat="47.19154" lon="6.82823">
        <ele>872.3</ele>
        <time>2021-08-12T14:13:51Z</time>
      </trkpt>
      <trkpt lat="47.19151" lon="6.82819">
        <ele>872.5</ele>
        <time>2021-08-12T14:13:53Z</time>
      </trkpt>
      <trkpt lat="47.19149" lon="6.82814">
        <ele>872.7</ele>
        <time>2021-08-12T14:13:55Z</time>
      </trkpt>
      <trkpt lat="47.19148" lon="6.8281">
        <ele>872.8</ele>
        <time>2021-08-12T14:13:56Z</time>
      </trkpt>
      <trkpt lat="47.19144" lon="6.82807">
        <ele>873</ele>
        <time>2021-08-12T14:13:58Z</time>
      </trkpt>
      <trkpt lat="47.19141" lon="6.82802">
        <ele>873.3</ele>
        <time>2021-08-12T14:14:00Z</time>
      </trkpt>
      <trkpt lat="47.1914" lon="6.828">
        <ele>873.3</ele>
        <time>2021-08-12T14:14:01Z</time>
      </trkpt>
      <trkpt lat="47.19139" lon="6.82798">
        <ele>873.4</ele>
        <time>2021-08-12T14:14:02Z</time>
      </trkpt>
      <trkpt lat="47.19136" lon="6.82795">
        <ele>873.6</ele>
        <time>2021-08-12T14:14:03Z</time>
      </trkpt>
      <trkpt lat="47.19133" lon="6.82792">
        <ele>873.8</ele>
        <time>2021-08-12T14:14:04Z</time>
      </trkpt>
      <trkpt lat="47.19131" lon="6.82788">
        <ele>873.9</ele>
        <time>2021-08-12T14:14:06Z</time>
      </trkpt>
      <trkpt lat="47.19128" lon="6.82788">
        <ele>874.1</ele>
        <time>2021-08-12T14:14:07Z</time>
      </trkpt>
      <trkpt lat="47.19125" lon="6.82785">
        <ele>874.2</ele>
        <time>2021-08-12T14:14:08Z</time>
      </trkpt>
      <trkpt lat="47.19124" lon="6.82784">
        <ele>874.3</ele>
        <time>2021-08-12T14:14:09Z</time>
      </trkpt>
      <trkpt lat="47.19121" lon="6.82781">
        <ele>874.5</ele>
        <time>2021-08-12T14:14:11Z</time>
      </trkpt>
      <trkpt lat="47.19121" lon="6.82779">
        <ele>874.6</ele>
        <time>2021-08-12T14:14:12Z</time>
      </trkpt>
      <trkpt lat="47.1912" lon="6.82776">
        <ele>874.7</ele>
        <time>2021-08-12T14:14:13Z</time>
      </trkpt>
      <trkpt lat="47.19119" lon="6.82771">
        <ele>874.9</ele>
        <time>2021-08-12T14:14:15Z</time>
      </trkpt>
      <trkpt lat="47.19117" lon="6.82767">
        <ele>875.1</ele>
        <time>2021-08-12T14:14:16Z</time>
      </trkpt>
      <trkpt lat="47.19116" lon="6.82765">
        <ele>875.2</ele>
        <time>2021-08-12T14:14:17Z</time>
      </trkpt>
      <trkpt lat="47.19113" lon="6.82762">
        <ele>875.4</ele>
        <time>2021-08-12T14:14:19Z</time>
      </trkpt>
      <trkpt lat="47.19112" lon="6.82761">
        <ele>875.5</ele>
        <time>2021-08-12T14:14:20Z</time>
      </trkpt>
      <trkpt lat="47.19109" lon="6.82757">
        <ele>875.7</ele>
        <time>2021-08-12T14:14:21Z</time>
      </trkpt>
      <trkpt lat="47.19108" lon="6.82756">
        <ele>875.8</ele>
        <time>2021-08-12T14:14:22Z</time>
      </trkpt>
      <trkpt lat="47.19105" lon="6.82754">
        <ele>876</ele>
        <time>2021-08-12T14:14:24Z</time>
      </trkpt>
      <trkpt lat="47.191" lon="6.8275">
        <ele>876.3</ele>
        <time>2021-08-12T14:14:26Z</time>
      </trkpt>
      <trkpt lat="47.19096" lon="6.82746">
        <ele>876.6</ele>
        <time>2021-08-12T14:14:28Z</time>
      </trkpt>
      <trkpt lat="47.19092" lon="6.82741">
        <ele>876.9</ele>
        <time>2021-08-12T14:14:30Z</time>
      </trkpt>
      <trkpt lat="47.19091" lon="6.8274">
        <ele>876.9</ele>
        <time>2021-08-12T14:14:31Z</time>
      </trkpt>
      <trkpt lat="47.1909" lon="6.82739">
        <ele>877</ele>
        <time>2021-08-12T14:14:32Z</time>
      </trkpt>
      <trkpt lat="47.19087" lon="6.82736">
        <ele>877.2</ele>
        <time>2021-08-12T14:14:34Z</time>
      </trkpt>
      <trkpt lat="47.19084" lon="6.82734">
        <ele>877.4</ele>
        <time>2021-08-12T14:14:35Z</time>
      </trkpt>
      <trkpt lat="47.19081" lon="6.82731">
        <ele>877.6</ele>
        <time>2021-08-12T14:14:37Z</time>
      </trkpt>
      <trkpt lat="47.19079" lon="6.82727">
        <ele>877.8</ele>
        <time>2021-08-12T14:14:39Z</time>
      </trkpt>
      <trkpt lat="47.19076" lon="6.82722">
        <ele>878</ele>
        <time>2021-08-12T14:14:40Z</time>
      </trkpt>
      <trkpt lat="47.19075" lon="6.82721">
        <ele>878.1</ele>
        <time>2021-08-12T14:14:41Z</time>
      </trkpt>
      <trkpt lat="47.19073" lon="6.82718">
        <ele>878.2</ele>
        <time>2021-08-12T14:14:42Z</time>
      </trkpt>
      <trkpt lat="47.19069" lon="6.82712">
        <ele>878.5</ele>
        <time>2021-08-12T14:14:44Z</time>
      </trkpt>
      <trkpt lat="47.19068" lon="6.8271">
        <ele>878.6</ele>
        <time>2021-08-12T14:14:45Z</time>
      </trkpt>
      <trkpt lat="47.19067" lon="6.82707">
        <ele>878.7</ele>
        <time>2021-08-12T14:14:47Z</time>
      </trkpt>
      <trkpt lat="47.19066" lon="6.82703">
        <ele>878.8</ele>
        <time>2021-08-12T14:14:48Z</time>
      </trkpt>
      <trkpt lat="47.19065" lon="6.82702">
        <ele>878.8</ele>
        <time>2021-08-12T14:14:49Z</time>
      </trkpt>
      <trkpt lat="47.19063" lon="6.82699">
        <ele>878.9</ele>
        <time>2021-08-12T14:14:50Z</time>
      </trkpt>
      <trkpt lat="47.19061" lon="6.82695">
        <ele>879</ele>
        <time>2021-08-12T14:14:51Z</time>
      </trkpt>
      <trkpt lat="47.19059" lon="6.82692">
        <ele>879.1</ele>
        <time>2021-08-12T14:14:52Z</time>
      </trkpt>
      <trkpt lat="47.19058" lon="6.82688">
        <ele>879.1</ele>
        <time>2021-08-12T14:14:53Z</time>
      </trkpt>
      <trkpt lat="47.19058" lon="6.82687">
        <ele>879.2</ele>
        <time>2021-08-12T14:14:54Z</time>
      </trkpt>
      <trkpt lat="47.19057" lon="6.82682">
        <ele>879.2</ele>
        <time>2021-08-12T14:14:56Z</time>
      </trkpt>
      <trkpt lat="47.19056" lon="6.82677">
        <ele>879.3</ele>
        <time>2021-08-12T14:14:57Z</time>
      </trkpt>
      <trkpt lat="47.19053" lon="6.82671">
        <ele>879.4</ele>
        <time>2021-08-12T14:14:59Z</time>
      </trkpt>
      <trkpt lat="47.1905" lon="6.82664">
        <ele>879.4</ele>
        <time>2021-08-12T14:15:01Z</time>
      </trkpt>
      <trkpt lat="47.19044" lon="6.82658">
        <ele>879.5</ele>
        <time>2021-08-12T14:15:03Z</time>
      </trkpt>
      <trkpt lat="47.1904" lon="6.82653">
        <ele>879.5</ele>
        <time>2021-08-12T14:15:04Z</time>
      </trkpt>
      <trkpt lat="47.19035" lon="6.82646">
        <ele>879.6</ele>
        <time>2021-08-12T14:15:06Z</time>
      </trkpt>
      <trkpt lat="47.19033" lon="6.82641">
        <ele>879.6</ele>
        <time>2021-08-12T14:15:07Z</time>
      </trkpt>
      <trkpt lat="47.19032" lon="6.82636">
        <ele>879.6</ele>
        <time>2021-08-12T14:15:08Z</time>
      </trkpt>
      <trkpt lat="47.19031" lon="6.82631">
        <ele>879.5</ele>
        <time>2021-08-12T14:15:09Z</time>
      </trkpt>
      <trkpt lat="47.19029" lon="6.82624">
        <ele>879.5</ele>
        <time>2021-08-12T14:15:10Z</time>
      </trkpt>
      <trkpt lat="47.19026" lon="6.82618">
        <ele>879.5</ele>
        <time>2021-08-12T14:15:12Z</time>
      </trkpt>
      <trkpt lat="47.19024" lon="6.82607">
        <ele>879.4</ele>
        <time>2021-08-12T14:15:14Z</time>
      </trkpt>
      <trkpt lat="47.19018" lon="6.82596">
        <ele>879.3</ele>
        <time>2021-08-12T14:15:16Z</time>
      </trkpt>
      <trkpt lat="47.19016" lon="6.8259">
        <ele>879.2</ele>
        <time>2021-08-12T14:15:17Z</time>
      </trkpt>
      <trkpt lat="47.19013" lon="6.8258">
        <ele>879.1</ele>
        <time>2021-08-12T14:15:19Z</time>
      </trkpt>
      <trkpt lat="47.19011" lon="6.82574">
        <ele>879</ele>
        <time>2021-08-12T14:15:20Z</time>
      </trkpt>
      <trkpt lat="47.19007" lon="6.82565">
        <ele>878.9</ele>
        <time>2021-08-12T14:15:22Z</time>
      </trkpt>
      <trkpt lat="47.19005" lon="6.82559">
        <ele>878.8</ele>
        <time>2021-08-12T14:15:23Z</time>
      </trkpt>
      <trkpt lat="47.19003" lon="6.82553">
        <ele>878.8</ele>
        <time>2021-08-12T14:15:24Z</time>
      </trkpt>
      <trkpt lat="47.19002" lon="6.82549">
        <ele>878.7</ele>
        <time>2021-08-12T14:15:25Z</time>
      </trkpt>
      <trkpt lat="47.19001" lon="6.82544">
        <ele>878.7</ele>
        <time>2021-08-12T14:15:26Z</time>
      </trkpt>
      <trkpt lat="47.18998" lon="6.82535">
        <ele>878.6</ele>
        <time>2021-08-12T14:15:28Z</time>
      </trkpt>
      <trkpt lat="47.18996" lon="6.82529">
        <ele>878.5</ele>
        <time>2021-08-12T14:15:29Z</time>
      </trkpt>
      <trkpt lat="47.18993" lon="6.82518">
        <ele>878.4</ele>
        <time>2021-08-12T14:15:31Z</time>
      </trkpt>
      <trkpt lat="47.18991" lon="6.82512">
        <ele>878.4</ele>
        <time>2021-08-12T14:15:32Z</time>
      </trkpt>
      <trkpt lat="47.18986" lon="6.82503">
        <ele>878.2</ele>
        <time>2021-08-12T14:15:34Z</time>
      </trkpt>
      <trkpt lat="47.18983" lon="6.82499">
        <ele>878.1</ele>
        <time>2021-08-12T14:15:35Z</time>
      </trkpt>
      <trkpt lat="47.18978" lon="6.82494">
        <ele>878</ele>
        <time>2021-08-12T14:15:36Z</time>
      </trkpt>
      <trkpt lat="47.18972" lon="6.82482">
        <ele>877.7</ele>
        <time>2021-08-12T14:15:38Z</time>
      </trkpt>
      <trkpt lat="47.18968" lon="6.82475">
        <ele>877.6</ele>
        <time>2021-08-12T14:15:39Z</time>
      </trkpt>
      <trkpt lat="47.18961" lon="6.82461">
        <ele>877.3</ele>
        <time>2021-08-12T14:15:41Z</time>
      </trkpt>
      <trkpt lat="47.18958" lon="6.82454">
        <ele>877.2</ele>
        <time>2021-08-12T14:15:42Z</time>
      </trkpt>
      <trkpt lat="47.18952" lon="6.82442">
        <ele>877</ele>
        <time>2021-08-12T14:15:44Z</time>
      </trkpt>
      <trkpt lat="47.18949" lon="6.82436">
        <ele>876.9</ele>
        <time>2021-08-12T14:15:45Z</time>
      </trkpt>
      <trkpt lat="47.18943" lon="6.82428">
        <ele>876.9</ele>
        <time>2021-08-12T14:15:47Z</time>
      </trkpt>
      <trkpt lat="47.18944" lon="6.82422">
        <ele>876.8</ele>
        <time>2021-08-12T14:15:48Z</time>
      </trkpt>
      <trkpt lat="47.18943" lon="6.82415">
        <ele>876.7</ele>
        <time>2021-08-12T14:15:49Z</time>
      </trkpt>
      <trkpt lat="47.18936" lon="6.82403">
        <ele>876.5</ele>
        <time>2021-08-12T14:15:51Z</time>
      </trkpt>
      <trkpt lat="47.18932" lon="6.82398">
        <ele>876.4</ele>
        <time>2021-08-12T14:15:52Z</time>
      </trkpt>
      <trkpt lat="47.18928" lon="6.82393">
        <ele>876.3</ele>
        <time>2021-08-12T14:15:53Z</time>
      </trkpt>
      <trkpt lat="47.18924" lon="6.82388">
        <ele>876.2</ele>
        <time>2021-08-12T14:15:54Z</time>
      </trkpt>
      <trkpt lat="47.18917" lon="6.8238">
        <ele>876.1</ele>
        <time>2021-08-12T14:15:56Z</time>
      </trkpt>
      <trkpt lat="47.18912" lon="6.82374">
        <ele>876</ele>
        <time>2021-08-12T14:15:58Z</time>
      </trkpt>
      <trkpt lat="47.18908" lon="6.8237">
        <ele>875.9</ele>
        <time>2021-08-12T14:15:59Z</time>
      </trkpt>
      <trkpt lat="47.18902" lon="6.82366">
        <ele>875.8</ele>
        <time>2021-08-12T14:16:00Z</time>
      </trkpt>
      <trkpt lat="47.18889" lon="6.82357">
        <ele>875.5</ele>
        <time>2021-08-12T14:16:02Z</time>
      </trkpt>
      <trkpt lat="47.18876" lon="6.82348">
        <ele>875.4</ele>
        <time>2021-08-12T14:16:04Z</time>
      </trkpt>
      <trkpt lat="47.1887" lon="6.82344">
        <ele>875.3</ele>
        <time>2021-08-12T14:16:05Z</time>
      </trkpt>
      <trkpt lat="47.18863" lon="6.82339">
        <ele>875.1</ele>
        <time>2021-08-12T14:16:06Z</time>
      </trkpt>
      <trkpt lat="47.18851" lon="6.82326">
        <ele>874.9</ele>
        <time>2021-08-12T14:16:08Z</time>
      </trkpt>
      <trkpt lat="47.18845" lon="6.82321">
        <ele>874.8</ele>
        <time>2021-08-12T14:16:09Z</time>
      </trkpt>
      <trkpt lat="47.18834" lon="6.82309">
        <ele>874.7</ele>
        <time>2021-08-12T14:16:11Z</time>
      </trkpt>
      <trkpt lat="47.18828" lon="6.82303">
        <ele>874.7</ele>
        <time>2021-08-12T14:16:12Z</time>
      </trkpt>
      <trkpt lat="47.18818" lon="6.82293">
        <ele>874.8</ele>
        <time>2021-08-12T14:16:14Z</time>
      </trkpt>
      <trkpt lat="47.1881" lon="6.82282">
        <ele>874.9</ele>
        <time>2021-08-12T14:16:16Z</time>
      </trkpt>
      <trkpt lat="47.18805" lon="6.82277">
        <ele>875</ele>
        <time>2021-08-12T14:16:17Z</time>
      </trkpt>
      <trkpt lat="47.18797" lon="6.82266">
        <ele>875.2</ele>
        <time>2021-08-12T14:16:19Z</time>
      </trkpt>
      <trkpt lat="47.18793" lon="6.82261">
        <ele>875.3</ele>
        <time>2021-08-12T14:16:20Z</time>
      </trkpt>
      <trkpt lat="47.18784" lon="6.82251">
        <ele>875.6</ele>
        <time>2021-08-12T14:16:22Z</time>
      </trkpt>
      <trkpt lat="47.1878" lon="6.82246">
        <ele>875.8</ele>
        <time>2021-08-12T14:16:23Z</time>
      </trkpt>
      <trkpt lat="47.18776" lon="6.82242">
        <ele>876</ele>
        <time>2021-08-12T14:16:24Z</time>
      </trkpt>
      <trkpt lat="47.18772" lon="6.82234">
        <ele>876.2</ele>
        <time>2021-08-12T14:16:26Z</time>
      </trkpt>
      <trkpt lat="47.18767" lon="6.82228">
        <ele>876.5</ele>
        <time>2021-08-12T14:16:28Z</time>
      </trkpt>
      <trkpt lat="47.18764" lon="6.82224">
        <ele>876.6</ele>
        <time>2021-08-12T14:16:29Z</time>
      </trkpt>
      <trkpt lat="47.1876" lon="6.8222">
        <ele>876.8</ele>
        <time>2021-08-12T14:16:30Z</time>
      </trkpt>
      <trkpt lat="47.18758" lon="6.82219">
        <ele>876.9</ele>
        <time>2021-08-12T14:16:31Z</time>
      </trkpt>
      <trkpt lat="47.18759" lon="6.82216">
        <ele>877</ele>
        <time>2021-08-12T14:16:33Z</time>
      </trkpt>
      <trkpt lat="47.18755" lon="6.8221">
        <ele>877.3</ele>
        <time>2021-08-12T14:16:35Z</time>
      </trkpt>
      <trkpt lat="47.18748" lon="6.82204">
        <ele>877.7</ele>
        <time>2021-08-12T14:16:36Z</time>
      </trkpt>
      <trkpt lat="47.18742" lon="6.82199">
        <ele>878</ele>
        <time>2021-08-12T14:16:38Z</time>
      </trkpt>
      <trkpt lat="47.18736" lon="6.82196">
        <ele>878.3</ele>
        <time>2021-08-12T14:16:39Z</time>
      </trkpt>
      <trkpt lat="47.18728" lon="6.82191">
        <ele>878.7</ele>
        <time>2021-08-12T14:16:41Z</time>
      </trkpt>
      <trkpt lat="47.18723" lon="6.82187">
        <ele>878.9</ele>
        <time>2021-08-12T14:16:43Z</time>
      </trkpt>
      <trkpt lat="47.1872" lon="6.82184">
        <ele>879.1</ele>
        <time>2021-08-12T14:16:44Z</time>
      </trkpt>
      <trkpt lat="47.18716" lon="6.82182">
        <ele>879.3</ele>
        <time>2021-08-12T14:16:45Z</time>
      </trkpt>
      <trkpt lat="47.18715" lon="6.82181">
        <ele>879.3</ele>
        <time>2021-08-12T14:16:46Z</time>
      </trkpt>
      <trkpt lat="47.1871" lon="6.82177">
        <ele>879.5</ele>
        <time>2021-08-12T14:16:48Z</time>
      </trkpt>
      <trkpt lat="47.18706" lon="6.82174">
        <ele>879.7</ele>
        <time>2021-08-12T14:16:50Z</time>
      </trkpt>
      <trkpt lat="47.18704" lon="6.82173">
        <ele>879.8</ele>
        <time>2021-08-12T14:16:51Z</time>
      </trkpt>
      <trkpt lat="47.187" lon="6.8217">
        <ele>880</ele>
        <time>2021-08-12T14:16:53Z</time>
      </trkpt>
      <trkpt lat="47.18696" lon="6.82166">
        <ele>880.1</ele>
        <time>2021-08-12T14:16:55Z</time>
      </trkpt>
      <trkpt lat="47.18693" lon="6.82162">
        <ele>880.3</ele>
        <time>2021-08-12T14:16:56Z</time>
      </trkpt>
      <trkpt lat="47.18692" lon="6.82161">
        <ele>880.3</ele>
        <time>2021-08-12T14:16:57Z</time>
      </trkpt>
      <trkpt lat="47.18689" lon="6.8216">
        <ele>880.4</ele>
        <time>2021-08-12T14:16:58Z</time>
      </trkpt>
      <trkpt lat="47.18685" lon="6.82159">
        <ele>880.5</ele>
        <time>2021-08-12T14:16:59Z</time>
      </trkpt>
      <trkpt lat="47.18684" lon="6.82159">
        <ele>880.6</ele>
        <time>2021-08-12T14:17:00Z</time>
      </trkpt>
      <trkpt lat="47.18679" lon="6.82156">
        <ele>880.7</ele>
        <time>2021-08-12T14:17:02Z</time>
      </trkpt>
      <trkpt lat="47.18675" lon="6.82155">
        <ele>880.9</ele>
        <time>2021-08-12T14:17:04Z</time>
      </trkpt>
      <trkpt lat="47.18669" lon="6.82154">
        <ele>881.1</ele>
        <time>2021-08-12T14:17:06Z</time>
      </trkpt>
      <trkpt lat="47.18664" lon="6.82154">
        <ele>881.2</ele>
        <time>2021-08-12T14:17:08Z</time>
      </trkpt>
      <trkpt lat="47.18661" lon="6.82153">
        <ele>881.3</ele>
        <time>2021-08-12T14:17:09Z</time>
      </trkpt>
      <trkpt lat="47.18657" lon="6.82152">
        <ele>881.4</ele>
        <time>2021-08-12T14:17:10Z</time>
      </trkpt>
      <trkpt lat="47.18656" lon="6.82152">
        <ele>881.5</ele>
        <time>2021-08-12T14:17:11Z</time>
      </trkpt>
      <trkpt lat="47.18653" lon="6.82153">
        <ele>881.5</ele>
        <time>2021-08-12T14:17:12Z</time>
      </trkpt>
      <trkpt lat="47.18652" lon="6.82153">
        <ele>881.6</ele>
        <time>2021-08-12T14:17:13Z</time>
      </trkpt>
      <trkpt lat="47.18648" lon="6.82154">
        <ele>881.6</ele>
        <time>2021-08-12T14:17:15Z</time>
      </trkpt>
      <trkpt lat="47.18643" lon="6.82155">
        <ele>881.7</ele>
        <time>2021-08-12T14:17:16Z</time>
      </trkpt>
      <trkpt lat="47.18642" lon="6.82155">
        <ele>881.8</ele>
        <time>2021-08-12T14:17:17Z</time>
      </trkpt>
      <trkpt lat="47.18639" lon="6.82156">
        <ele>881.8</ele>
        <time>2021-08-12T14:17:18Z</time>
      </trkpt>
      <trkpt lat="47.18636" lon="6.82157">
        <ele>881.8</ele>
        <time>2021-08-12T14:17:20Z</time>
      </trkpt>
      <trkpt lat="47.18633" lon="6.82157">
        <ele>881.9</ele>
        <time>2021-08-12T14:17:21Z</time>
      </trkpt>
      <trkpt lat="47.18629" lon="6.82157">
        <ele>881.9</ele>
        <time>2021-08-12T14:17:22Z</time>
      </trkpt>
      <trkpt lat="47.18628" lon="6.82157">
        <ele>882</ele>
        <time>2021-08-12T14:17:23Z</time>
      </trkpt>
      <trkpt lat="47.18624" lon="6.82157">
        <ele>882</ele>
        <time>2021-08-12T14:17:24Z</time>
      </trkpt>
      <trkpt lat="47.18619" lon="6.82157">
        <ele>882.1</ele>
        <time>2021-08-12T14:17:26Z</time>
      </trkpt>
      <trkpt lat="47.18616" lon="6.82156">
        <ele>882.1</ele>
        <time>2021-08-12T14:17:27Z</time>
      </trkpt>
      <trkpt lat="47.18612" lon="6.82157">
        <ele>882.2</ele>
        <time>2021-08-12T14:17:28Z</time>
      </trkpt>
      <trkpt lat="47.18606" lon="6.82157">
        <ele>882.3</ele>
        <time>2021-08-12T14:17:30Z</time>
      </trkpt>
      <trkpt lat="47.18601" lon="6.82157">
        <ele>882.3</ele>
        <time>2021-08-12T14:17:31Z</time>
      </trkpt>
      <trkpt lat="47.18598" lon="6.82157">
        <ele>882.4</ele>
        <time>2021-08-12T14:17:32Z</time>
      </trkpt>
      <trkpt lat="47.18593" lon="6.82157">
        <ele>882.5</ele>
        <time>2021-08-12T14:17:34Z</time>
      </trkpt>
      <trkpt lat="47.18589" lon="6.82157">
        <ele>882.5</ele>
        <time>2021-08-12T14:17:35Z</time>
      </trkpt>
      <trkpt lat="47.18585" lon="6.82158">
        <ele>882.6</ele>
        <time>2021-08-12T14:17:36Z</time>
      </trkpt>
      <trkpt lat="47.1858" lon="6.82157">
        <ele>882.6</ele>
        <time>2021-08-12T14:17:38Z</time>
      </trkpt>
      <trkpt lat="47.18576" lon="6.82156">
        <ele>882.7</ele>
        <time>2021-08-12T14:17:39Z</time>
      </trkpt>
      <trkpt lat="47.18571" lon="6.82155">
        <ele>882.8</ele>
        <time>2021-08-12T14:17:40Z</time>
      </trkpt>
      <trkpt lat="47.18566" lon="6.82156">
        <ele>882.8</ele>
        <time>2021-08-12T14:17:41Z</time>
      </trkpt>
      <trkpt lat="47.18562" lon="6.82156">
        <ele>882.9</ele>
        <time>2021-08-12T14:17:42Z</time>
      </trkpt>
      <trkpt lat="47.18555" lon="6.82157">
        <ele>882.9</ele>
        <time>2021-08-12T14:17:44Z</time>
      </trkpt>
      <trkpt lat="47.1855" lon="6.82157">
        <ele>883</ele>
        <time>2021-08-12T14:17:45Z</time>
      </trkpt>
      <trkpt lat="47.18545" lon="6.82157">
        <ele>883</ele>
        <time>2021-08-12T14:17:46Z</time>
      </trkpt>
      <trkpt lat="47.18541" lon="6.82157">
        <ele>883.1</ele>
        <time>2021-08-12T14:17:47Z</time>
      </trkpt>
      <trkpt lat="47.18536" lon="6.82157">
        <ele>883.1</ele>
        <time>2021-08-12T14:17:48Z</time>
      </trkpt>
      <trkpt lat="47.1853" lon="6.82157">
        <ele>883.2</ele>
        <time>2021-08-12T14:17:50Z</time>
      </trkpt>
      <trkpt lat="47.18524" lon="6.82156">
        <ele>883.3</ele>
        <time>2021-08-12T14:17:52Z</time>
      </trkpt>
      <trkpt lat="47.18516" lon="6.82156">
        <ele>883.4</ele>
        <time>2021-08-12T14:17:54Z</time>
      </trkpt>
      <trkpt lat="47.18511" lon="6.82156">
        <ele>883.5</ele>
        <time>2021-08-12T14:17:55Z</time>
      </trkpt>
      <trkpt lat="47.18506" lon="6.82156">
        <ele>883.5</ele>
        <time>2021-08-12T14:17:56Z</time>
      </trkpt>
      <trkpt lat="47.18499" lon="6.82156">
        <ele>883.6</ele>
        <time>2021-08-12T14:17:58Z</time>
      </trkpt>
      <trkpt lat="47.18494" lon="6.82157">
        <ele>883.7</ele>
        <time>2021-08-12T14:17:59Z</time>
      </trkpt>
      <trkpt lat="47.1849" lon="6.82157">
        <ele>883.7</ele>
        <time>2021-08-12T14:18:00Z</time>
      </trkpt>
      <trkpt lat="47.18486" lon="6.82157">
        <ele>883.8</ele>
        <time>2021-08-12T14:18:01Z</time>
      </trkpt>
      <trkpt lat="47.18483" lon="6.82155">
        <ele>883.7</ele>
        <time>2021-08-12T14:18:02Z</time>
      </trkpt>
      <trkpt lat="47.1848" lon="6.82154">
        <ele>883.7</ele>
        <time>2021-08-12T14:18:03Z</time>
      </trkpt>
      <trkpt lat="47.18477" lon="6.82154">
        <ele>883.7</ele>
        <time>2021-08-12T14:18:04Z</time>
      </trkpt>
      <trkpt lat="47.18472" lon="6.82154">
        <ele>883.6</ele>
        <time>2021-08-12T14:18:06Z</time>
      </trkpt>
      <trkpt lat="47.18471" lon="6.82157">
        <ele>883.5</ele>
        <time>2021-08-12T14:18:07Z</time>
      </trkpt>
      <trkpt lat="47.18471" lon="6.82159">
        <ele>883.5</ele>
        <time>2021-08-12T14:18:08Z</time>
      </trkpt>
      <trkpt lat="47.18471" lon="6.82163">
        <ele>883.4</ele>
        <time>2021-08-12T14:18:10Z</time>
      </trkpt>
      <trkpt lat="47.18473" lon="6.82163">
        <ele>883.4</ele>
        <time>2021-08-12T14:18:12Z</time>
      </trkpt>
      <trkpt lat="47.18475" lon="6.82163">
        <ele>883.3</ele>
        <time>2021-08-12T14:18:13Z</time>
      </trkpt>
      <trkpt lat="47.18475" lon="6.82163">
        <ele>883.3</ele>
        <time>2021-08-12T14:18:14Z</time>
      </trkpt>
      <trkpt lat="47.18476" lon="6.82162">
        <ele>883.3</ele>
        <time>2021-08-12T14:18:15Z</time>
      </trkpt>
      <trkpt lat="47.18476" lon="6.82161">
        <ele>883.3</ele>
        <time>2021-08-12T14:18:17Z</time>
      </trkpt>
      <trkpt lat="47.18476" lon="6.82161">
        <ele>883.2</ele>
        <time>2021-08-12T14:18:18Z</time>
      </trkpt>
      <trkpt lat="47.18477" lon="6.82159">
        <ele>883.2</ele>
        <time>2021-08-12T14:18:20Z</time>
      </trkpt>
      <trkpt lat="47.18477" lon="6.82159">
        <ele>883.2</ele>
        <time>2021-08-12T14:18:22Z</time>
      </trkpt>
      <trkpt lat="47.18477" lon="6.82158">
        <ele>883.2</ele>
        <time>2021-08-12T14:18:23Z</time>
      </trkpt>
      <trkpt lat="47.18477" lon="6.82157">
        <ele>883.2</ele>
        <time>2021-08-12T14:18:24Z</time>
      </trkpt>
      <trkpt lat="47.18476" lon="6.82157">
        <ele>883.1</ele>
        <time>2021-08-12T14:18:26Z</time>
      </trkpt>
      <trkpt lat="47.1847" lon="6.82149">
        <ele>882.9</ele>
        <time>2021-08-12T14:18:31Z</time>
      </trkpt>
      <trkpt lat="47.18465" lon="6.82141">
        <ele>882.7</ele>
        <time>2021-08-12T14:18:33Z</time>
      </trkpt>
      <trkpt lat="47.18454" lon="6.82126">
        <ele>882.2</ele>
        <time>2021-08-12T14:18:35Z</time>
      </trkpt>
      <trkpt lat="47.18449" lon="6.82121">
        <ele>882.1</ele>
        <time>2021-08-12T14:18:36Z</time>
      </trkpt>
      <trkpt lat="47.1844" lon="6.82114">
        <ele>881.9</ele>
        <time>2021-08-12T14:18:38Z</time>
      </trkpt>
      <trkpt lat="47.18436" lon="6.82111">
        <ele>881.8</ele>
        <time>2021-08-12T14:18:39Z</time>
      </trkpt>
      <trkpt lat="47.18432" lon="6.82105">
        <ele>881.7</ele>
        <time>2021-08-12T14:18:41Z</time>
      </trkpt>
      <trkpt lat="47.18428" lon="6.82102">
        <ele>881.6</ele>
        <time>2021-08-12T14:18:42Z</time>
      </trkpt>
      <trkpt lat="47.18426" lon="6.821">
        <ele>881.5</ele>
        <time>2021-08-12T14:18:43Z</time>
      </trkpt>
      <trkpt lat="47.18422" lon="6.82099">
        <ele>881.4</ele>
        <time>2021-08-12T14:18:44Z</time>
      </trkpt>
      <trkpt lat="47.18415" lon="6.82097">
        <ele>881.2</ele>
        <time>2021-08-12T14:18:46Z</time>
      </trkpt>
      <trkpt lat="47.18412" lon="6.82095">
        <ele>881.2</ele>
        <time>2021-08-12T14:18:47Z</time>
      </trkpt>
      <trkpt lat="47.18408" lon="6.82094">
        <ele>881.1</ele>
        <time>2021-08-12T14:18:48Z</time>
      </trkpt>
      <trkpt lat="47.184" lon="6.82091">
        <ele>880.9</ele>
        <time>2021-08-12T14:18:50Z</time>
      </trkpt>
      <trkpt lat="47.1839" lon="6.82089">
        <ele>880.8</ele>
        <time>2021-08-12T14:18:52Z</time>
      </trkpt>
      <trkpt lat="47.18387" lon="6.82087">
        <ele>880.6</ele>
        <time>2021-08-12T14:18:53Z</time>
      </trkpt>
      <trkpt lat="47.18382" lon="6.82086">
        <ele>880.5</ele>
        <time>2021-08-12T14:18:54Z</time>
      </trkpt>
      <trkpt lat="47.18372" lon="6.82096">
        <ele>880.1</ele>
        <time>2021-08-12T14:18:56Z</time>
      </trkpt>
      <trkpt lat="47.18363" lon="6.82106">
        <ele>879.7</ele>
        <time>2021-08-12T14:18:58Z</time>
      </trkpt>
      <trkpt lat="47.18359" lon="6.82112">
        <ele>879.6</ele>
        <time>2021-08-12T14:18:59Z</time>
      </trkpt>
      <trkpt lat="47.1835" lon="6.82122">
        <ele>879.1</ele>
        <time>2021-08-12T14:19:01Z</time>
      </trkpt>
      <trkpt lat="47.18344" lon="6.82129">
        <ele>878.8</ele>
        <time>2021-08-12T14:19:02Z</time>
      </trkpt>
      <trkpt lat="47.18339" lon="6.82135">
        <ele>878.5</ele>
        <time>2021-08-12T14:19:03Z</time>
      </trkpt>
      <trkpt lat="47.18328" lon="6.82149">
        <ele>877.9</ele>
        <time>2021-08-12T14:19:05Z</time>
      </trkpt>
      <trkpt lat="47.18323" lon="6.82156">
        <ele>877.7</ele>
        <time>2021-08-12T14:19:06Z</time>
      </trkpt>
      <trkpt lat="47.18318" lon="6.82163">
        <ele>877.6</ele>
        <time>2021-08-12T14:19:07Z</time>
      </trkpt>
      <trkpt lat="47.18309" lon="6.82178">
        <ele>877.5</ele>
        <time>2021-08-12T14:19:09Z</time>
      </trkpt>
      <trkpt lat="47.183" lon="6.82194">
        <ele>877.6</ele>
        <time>2021-08-12T14:19:11Z</time>
      </trkpt>
      <trkpt lat="47.18296" lon="6.82201">
        <ele>877.8</ele>
        <time>2021-08-12T14:19:12Z</time>
      </trkpt>
      <trkpt lat="47.18285" lon="6.82213">
        <ele>878.1</ele>
        <time>2021-08-12T14:19:14Z</time>
      </trkpt>
      <trkpt lat="47.1828" lon="6.82219">
        <ele>878.3</ele>
        <time>2021-08-12T14:19:15Z</time>
      </trkpt>
      <trkpt lat="47.18271" lon="6.82231">
        <ele>878.8</ele>
        <time>2021-08-12T14:19:17Z</time>
      </trkpt>
      <trkpt lat="47.18264" lon="6.82241">
        <ele>879.4</ele>
        <time>2021-08-12T14:19:19Z</time>
      </trkpt>
      <trkpt lat="47.1826" lon="6.82245">
        <ele>879.7</ele>
        <time>2021-08-12T14:19:20Z</time>
      </trkpt>
      <trkpt lat="47.18253" lon="6.82249">
        <ele>880.2</ele>
        <time>2021-08-12T14:19:22Z</time>
      </trkpt>
      <trkpt lat="47.18249" lon="6.8225">
        <ele>880.5</ele>
        <time>2021-08-12T14:19:23Z</time>
      </trkpt>
      <trkpt lat="47.18244" lon="6.82252">
        <ele>880.8</ele>
        <time>2021-08-12T14:19:24Z</time>
      </trkpt>
      <trkpt lat="47.18236" lon="6.82255">
        <ele>881.4</ele>
        <time>2021-08-12T14:19:26Z</time>
      </trkpt>
      <trkpt lat="47.18232" lon="6.82256">
        <ele>881.6</ele>
        <time>2021-08-12T14:19:27Z</time>
      </trkpt>
      <trkpt lat="47.1823" lon="6.8226">
        <ele>881.9</ele>
        <time>2021-08-12T14:19:29Z</time>
      </trkpt>
      <trkpt lat="47.18229" lon="6.82265">
        <ele>882.1</ele>
        <time>2021-08-12T14:19:30Z</time>
      </trkpt>
      <trkpt lat="47.18224" lon="6.82267">
        <ele>882.4</ele>
        <time>2021-08-12T14:19:31Z</time>
      </trkpt>
      <trkpt lat="47.1822" lon="6.82268">
        <ele>882.6</ele>
        <time>2021-08-12T14:19:32Z</time>
      </trkpt>
      <trkpt lat="47.18216" lon="6.82271">
        <ele>882.9</ele>
        <time>2021-08-12T14:19:34Z</time>
      </trkpt>
      <trkpt lat="47.18213" lon="6.82272">
        <ele>883.1</ele>
        <time>2021-08-12T14:19:35Z</time>
      </trkpt>
      <trkpt lat="47.1821" lon="6.82273">
        <ele>883.3</ele>
        <time>2021-08-12T14:19:36Z</time>
      </trkpt>
      <trkpt lat="47.18209" lon="6.82273">
        <ele>883.4</ele>
        <time>2021-08-12T14:19:37Z</time>
      </trkpt>
      <trkpt lat="47.18206" lon="6.82274">
        <ele>883.6</ele>
        <time>2021-08-12T14:19:38Z</time>
      </trkpt>
      <trkpt lat="47.18203" lon="6.82278">
        <ele>883.8</ele>
        <time>2021-08-12T14:19:40Z</time>
      </trkpt>
      <trkpt lat="47.18202" lon="6.82279">
        <ele>883.9</ele>
        <time>2021-08-12T14:19:41Z</time>
      </trkpt>
      <trkpt lat="47.18199" lon="6.82281">
        <ele>884</ele>
        <time>2021-08-12T14:19:42Z</time>
      </trkpt>
      <trkpt lat="47.18196" lon="6.82283">
        <ele>884.1</ele>
        <time>2021-08-12T14:19:43Z</time>
      </trkpt>
      <trkpt lat="47.18192" lon="6.82287">
        <ele>884.1</ele>
        <time>2021-08-12T14:19:45Z</time>
      </trkpt>
      <trkpt lat="47.18187" lon="6.82289">
        <ele>884.2</ele>
        <time>2021-08-12T14:19:46Z</time>
      </trkpt>
      <trkpt lat="47.18184" lon="6.8229">
        <ele>884.2</ele>
        <time>2021-08-12T14:19:48Z</time>
      </trkpt>
      <trkpt lat="47.18181" lon="6.82291">
        <ele>884.2</ele>
        <time>2021-08-12T14:19:49Z</time>
      </trkpt>
      <trkpt lat="47.18175" lon="6.82291">
        <ele>884.2</ele>
        <time>2021-08-12T14:19:50Z</time>
      </trkpt>
      <trkpt lat="47.1817" lon="6.82294">
        <ele>884.1</ele>
        <time>2021-08-12T14:19:51Z</time>
      </trkpt>
      <trkpt lat="47.18161" lon="6.82297">
        <ele>884</ele>
        <time>2021-08-12T14:19:53Z</time>
      </trkpt>
      <trkpt lat="47.18156" lon="6.82299">
        <ele>883.9</ele>
        <time>2021-08-12T14:19:54Z</time>
      </trkpt>
      <trkpt lat="47.18149" lon="6.82304">
        <ele>883.9</ele>
        <time>2021-08-12T14:19:56Z</time>
      </trkpt>
      <trkpt lat="47.18147" lon="6.82306">
        <ele>883.9</ele>
        <time>2021-08-12T14:19:57Z</time>
      </trkpt>
      <trkpt lat="47.18139" lon="6.82304">
        <ele>883.9</ele>
        <time>2021-08-12T14:19:59Z</time>
      </trkpt>
      <trkpt lat="47.1813" lon="6.82299">
        <ele>884.1</ele>
        <time>2021-08-12T14:20:00Z</time>
      </trkpt>
      <trkpt lat="47.18123" lon="6.82297">
        <ele>884.3</ele>
        <time>2021-08-12T14:20:02Z</time>
      </trkpt>
      <trkpt lat="47.18119" lon="6.82296">
        <ele>884.4</ele>
        <time>2021-08-12T14:20:03Z</time>
      </trkpt>
      <trkpt lat="47.18115" lon="6.82295">
        <ele>884.5</ele>
        <time>2021-08-12T14:20:04Z</time>
      </trkpt>
      <trkpt lat="47.18112" lon="6.82294">
        <ele>884.6</ele>
        <time>2021-08-12T14:20:05Z</time>
      </trkpt>
      <trkpt lat="47.18111" lon="6.82296">
        <ele>884.7</ele>
        <time>2021-08-12T14:20:06Z</time>
      </trkpt>
      <trkpt lat="47.18111" lon="6.82298">
        <ele>884.7</ele>
        <time>2021-08-12T14:20:08Z</time>
      </trkpt>
      <trkpt lat="47.18111" lon="6.82299">
        <ele>884.8</ele>
        <time>2021-08-12T14:20:10Z</time>
      </trkpt>
      <trkpt lat="47.18111" lon="6.823">
        <ele>884.8</ele>
        <time>2021-08-12T14:20:11Z</time>
      </trkpt>
      <trkpt lat="47.18111" lon="6.823">
        <ele>884.8</ele>
        <time>2021-08-12T14:20:13Z</time>
      </trkpt>
      <trkpt lat="47.18111" lon="6.82301">
        <ele>884.8</ele>
        <time>2021-08-12T14:20:14Z</time>
      </trkpt>
      <trkpt lat="47.18111" lon="6.82301">
        <ele>884.8</ele>
        <time>2021-08-12T14:20:15Z</time>
      </trkpt>
      <trkpt lat="47.18101" lon="6.82326">
        <ele>885.8</ele>
        <time>2021-08-12T14:21:07Z</time>
      </trkpt>
      <trkpt lat="47.18098" lon="6.82327">
        <ele>886</ele>
        <time>2021-08-12T14:21:09Z</time>
      </trkpt>
      <trkpt lat="47.18096" lon="6.82328">
        <ele>886.1</ele>
        <time>2021-08-12T14:21:10Z</time>
      </trkpt>
      <trkpt lat="47.18094" lon="6.82328">
        <ele>886.3</ele>
        <time>2021-08-12T14:21:11Z</time>
      </trkpt>
      <trkpt lat="47.18093" lon="6.82328">
        <ele>886.4</ele>
        <time>2021-08-12T14:21:13Z</time>
      </trkpt>
      <trkpt lat="47.18091" lon="6.82327">
        <ele>886.6</ele>
        <time>2021-08-12T14:21:15Z</time>
      </trkpt>
      <trkpt lat="47.18089" lon="6.82326">
        <ele>886.7</ele>
        <time>2021-08-12T14:21:16Z</time>
      </trkpt>
      <trkpt lat="47.18088" lon="6.82326">
        <ele>886.9</ele>
        <time>2021-08-12T14:21:17Z</time>
      </trkpt>
      <trkpt lat="47.18086" lon="6.82326">
        <ele>887</ele>
        <time>2021-08-12T14:21:19Z</time>
      </trkpt>
      <trkpt lat="47.1807" lon="6.82334">
        <ele>889.1</ele>
        <time>2021-08-12T14:21:39Z</time>
      </trkpt>
      <trkpt lat="47.18068" lon="6.82335">
        <ele>889.4</ele>
        <time>2021-08-12T14:21:40Z</time>
      </trkpt>
      <trkpt lat="47.18063" lon="6.82336">
        <ele>890.1</ele>
        <time>2021-08-12T14:21:42Z</time>
      </trkpt>
      <trkpt lat="47.18061" lon="6.82336">
        <ele>890.4</ele>
        <time>2021-08-12T14:21:43Z</time>
      </trkpt>
      <trkpt lat="47.18059" lon="6.82335">
        <ele>890.8</ele>
        <time>2021-08-12T14:21:45Z</time>
      </trkpt>
      <trkpt lat="47.18057" lon="6.82335">
        <ele>891.1</ele>
        <time>2021-08-12T14:21:46Z</time>
      </trkpt>
      <trkpt lat="47.18056" lon="6.82335">
        <ele>891.3</ele>
        <time>2021-08-12T14:21:47Z</time>
      </trkpt>
      <trkpt lat="47.18049" lon="6.82337">
        <ele>892.5</ele>
        <time>2021-08-12T14:21:48Z</time>
      </trkpt>
      <trkpt lat="47.18043" lon="6.82339">
        <ele>893.6</ele>
        <time>2021-08-12T14:21:49Z</time>
      </trkpt>
      <trkpt lat="47.18036" lon="6.82341">
        <ele>894.7</ele>
        <time>2021-08-12T14:21:51Z</time>
      </trkpt>
      <trkpt lat="47.1803" lon="6.82343">
        <ele>895.7</ele>
        <time>2021-08-12T14:21:52Z</time>
      </trkpt>
      <trkpt lat="47.18024" lon="6.82345">
        <ele>896.6</ele>
        <time>2021-08-12T14:21:54Z</time>
      </trkpt>
      <trkpt lat="47.18018" lon="6.82347">
        <ele>897.4</ele>
        <time>2021-08-12T14:21:55Z</time>
      </trkpt>
      <trkpt lat="47.18011" lon="6.82349">
        <ele>898.3</ele>
        <time>2021-08-12T14:21:56Z</time>
      </trkpt>
      <trkpt lat="47.18005" lon="6.82351">
        <ele>899.1</ele>
        <time>2021-08-12T14:21:57Z</time>
      </trkpt>
      <trkpt lat="47.17999" lon="6.82353">
        <ele>900</ele>
        <time>2021-08-12T14:23:52Z</time>
      </trkpt>
      <trkpt lat="47.17992" lon="6.82355">
        <ele>901</ele>
        <time>2021-08-12T14:23:53Z</time>
      </trkpt>
      <trkpt lat="47.17986" lon="6.82357">
        <ele>901.9</ele>
        <time>2021-08-12T14:23:54Z</time>
      </trkpt>
      <trkpt lat="47.17983" lon="6.82358">
        <ele>902.3</ele>
        <time>2021-08-12T14:23:56Z</time>
      </trkpt>
      <trkpt lat="47.17981" lon="6.8236">
        <ele>902.7</ele>
        <time>2021-08-12T14:23:57Z</time>
      </trkpt>
      <trkpt lat="47.17977" lon="6.82362">
        <ele>903.2</ele>
        <time>2021-08-12T14:23:59Z</time>
      </trkpt>
      <trkpt lat="47.17976" lon="6.82363">
        <ele>903.3</ele>
        <time>2021-08-12T14:24:00Z</time>
      </trkpt>
      <trkpt lat="47.17975" lon="6.82364">
        <ele>903.5</ele>
        <time>2021-08-12T14:24:01Z</time>
      </trkpt>
      <trkpt lat="47.17972" lon="6.82365">
        <ele>903.8</ele>
        <time>2021-08-12T14:24:03Z</time>
      </trkpt>
      <trkpt lat="47.17872" lon="6.82388">
        <ele>916</ele>
        <time>2021-08-12T14:26:06Z</time>
      </trkpt>
      <trkpt lat="47.17868" lon="6.82387">
        <ele>916.3</ele>
        <time>2021-08-12T14:26:07Z</time>
      </trkpt>
      <trkpt lat="47.17862" lon="6.82385">
        <ele>916.6</ele>
        <time>2021-08-12T14:26:08Z</time>
      </trkpt>
      <trkpt lat="47.17854" lon="6.82384">
        <ele>916.9</ele>
        <time>2021-08-12T14:26:10Z</time>
      </trkpt>
      <trkpt lat="47.17851" lon="6.82384">
        <ele>917.1</ele>
        <time>2021-08-12T14:26:11Z</time>
      </trkpt>
      <trkpt lat="47.17846" lon="6.82383">
        <ele>917.3</ele>
        <time>2021-08-12T14:26:13Z</time>
      </trkpt>
      <trkpt lat="47.1784" lon="6.82383">
        <ele>917.6</ele>
        <time>2021-08-12T14:26:14Z</time>
      </trkpt>
      <trkpt lat="47.17836" lon="6.82384">
        <ele>917.8</ele>
        <time>2021-08-12T14:26:15Z</time>
      </trkpt>
      <trkpt lat="47.17835" lon="6.82384">
        <ele>917.8</ele>
        <time>2021-08-12T14:26:16Z</time>
      </trkpt>
      <trkpt lat="47.17834" lon="6.82386">
        <ele>917.9</ele>
        <time>2021-08-12T14:26:17Z</time>
      </trkpt>
      <trkpt lat="47.17831" lon="6.8239">
        <ele>918.1</ele>
        <time>2021-08-12T14:26:19Z</time>
      </trkpt>
      <trkpt lat="47.1783" lon="6.82391">
        <ele>918.2</ele>
        <time>2021-08-12T14:26:20Z</time>
      </trkpt>
      <trkpt lat="47.17829" lon="6.82392">
        <ele>918.3</ele>
        <time>2021-08-12T14:26:21Z</time>
      </trkpt>
      <trkpt lat="47.17827" lon="6.82392">
        <ele>918.4</ele>
        <time>2021-08-12T14:26:22Z</time>
      </trkpt>
      <trkpt lat="47.17821" lon="6.82391">
        <ele>918.7</ele>
        <time>2021-08-12T14:26:24Z</time>
      </trkpt>
      <trkpt lat="47.17817" lon="6.82389">
        <ele>918.9</ele>
        <time>2021-08-12T14:26:25Z</time>
      </trkpt>
      <trkpt lat="47.17813" lon="6.82389">
        <ele>919.1</ele>
        <time>2021-08-12T14:26:27Z</time>
      </trkpt>
      <trkpt lat="47.17809" lon="6.82389">
        <ele>919.3</ele>
        <time>2021-08-12T14:26:28Z</time>
      </trkpt>
      <trkpt lat="47.17805" lon="6.82388">
        <ele>919.6</ele>
        <time>2021-08-12T14:26:30Z</time>
      </trkpt>
      <trkpt lat="47.17802" lon="6.82387">
        <ele>919.7</ele>
        <time>2021-08-12T14:26:31Z</time>
      </trkpt>
      <trkpt lat="47.17799" lon="6.82387">
        <ele>919.9</ele>
        <time>2021-08-12T14:26:32Z</time>
      </trkpt>
      <trkpt lat="47.17793" lon="6.82386">
        <ele>920.2</ele>
        <time>2021-08-12T14:26:34Z</time>
      </trkpt>
      <trkpt lat="47.17788" lon="6.82387">
        <ele>920.4</ele>
        <time>2021-08-12T14:26:36Z</time>
      </trkpt>
      <trkpt lat="47.17783" lon="6.82389">
        <ele>920.7</ele>
        <time>2021-08-12T14:26:38Z</time>
      </trkpt>
      <trkpt lat="47.17779" lon="6.8239">
        <ele>920.8</ele>
        <time>2021-08-12T14:26:40Z</time>
      </trkpt>
      <trkpt lat="47.17778" lon="6.82391">
        <ele>920.9</ele>
        <time>2021-08-12T14:26:41Z</time>
      </trkpt>
      <trkpt lat="47.17776" lon="6.82391">
        <ele>921</ele>
        <time>2021-08-12T14:26:42Z</time>
      </trkpt>
      <trkpt lat="47.17773" lon="6.8239">
        <ele>921.1</ele>
        <time>2021-08-12T14:26:44Z</time>
      </trkpt>
      <trkpt lat="47.17772" lon="6.82391">
        <ele>921.2</ele>
        <time>2021-08-12T14:26:45Z</time>
      </trkpt>
      <trkpt lat="47.17768" lon="6.8239">
        <ele>921.4</ele>
        <time>2021-08-12T14:26:47Z</time>
      </trkpt>
      <trkpt lat="47.17764" lon="6.8239">
        <ele>921.6</ele>
        <time>2021-08-12T14:26:49Z</time>
      </trkpt>
      <trkpt lat="47.1776" lon="6.82389">
        <ele>921.8</ele>
        <time>2021-08-12T14:26:50Z</time>
      </trkpt>
      <trkpt lat="47.17759" lon="6.82388">
        <ele>921.9</ele>
        <time>2021-08-12T14:26:51Z</time>
      </trkpt>
      <trkpt lat="47.17752" lon="6.82381">
        <ele>922.3</ele>
        <time>2021-08-12T14:26:53Z</time>
      </trkpt>
      <trkpt lat="47.17748" lon="6.82378">
        <ele>922.6</ele>
        <time>2021-08-12T14:26:55Z</time>
      </trkpt>
      <trkpt lat="47.17746" lon="6.82377">
        <ele>922.7</ele>
        <time>2021-08-12T14:26:56Z</time>
      </trkpt>
      <trkpt lat="47.17743" lon="6.82375">
        <ele>922.9</ele>
        <time>2021-08-12T14:26:58Z</time>
      </trkpt>
      <trkpt lat="47.17739" lon="6.82374">
        <ele>923.1</ele>
        <time>2021-08-12T14:26:59Z</time>
      </trkpt>
      <trkpt lat="47.17735" lon="6.82371">
        <ele>923.3</ele>
        <time>2021-08-12T14:27:01Z</time>
      </trkpt>
      <trkpt lat="47.17734" lon="6.8237">
        <ele>923.4</ele>
        <time>2021-08-12T14:27:02Z</time>
      </trkpt>
      <trkpt lat="47.17733" lon="6.82369">
        <ele>923.5</ele>
        <time>2021-08-12T14:27:03Z</time>
      </trkpt>
      <trkpt lat="47.1773" lon="6.82366">
        <ele>923.7</ele>
        <time>2021-08-12T14:27:04Z</time>
      </trkpt>
      <trkpt lat="47.17729" lon="6.82365">
        <ele>923.7</ele>
        <time>2021-08-12T14:27:05Z</time>
      </trkpt>
      <trkpt lat="47.17726" lon="6.82363">
        <ele>923.9</ele>
        <time>2021-08-12T14:27:06Z</time>
      </trkpt>
      <trkpt lat="47.17725" lon="6.82362">
        <ele>924</ele>
        <time>2021-08-12T14:27:07Z</time>
      </trkpt>
      <trkpt lat="47.17721" lon="6.82361">
        <ele>924.2</ele>
        <time>2021-08-12T14:27:09Z</time>
      </trkpt>
      <trkpt lat="47.17718" lon="6.8236">
        <ele>924.4</ele>
        <time>2021-08-12T14:27:10Z</time>
      </trkpt>
      <trkpt lat="47.17715" lon="6.82359">
        <ele>924.6</ele>
        <time>2021-08-12T14:27:11Z</time>
      </trkpt>
      <trkpt lat="47.17714" lon="6.82358">
        <ele>924.6</ele>
        <time>2021-08-12T14:27:12Z</time>
      </trkpt>
      <trkpt lat="47.17713" lon="6.82359">
        <ele>924.7</ele>
        <time>2021-08-12T14:27:13Z</time>
      </trkpt>
      <trkpt lat="47.17711" lon="6.8236">
        <ele>924.8</ele>
        <time>2021-08-12T14:27:15Z</time>
      </trkpt>
      <trkpt lat="47.1771" lon="6.82363">
        <ele>925</ele>
        <time>2021-08-12T14:27:16Z</time>
      </trkpt>
      <trkpt lat="47.17707" lon="6.82364">
        <ele>925.1</ele>
        <time>2021-08-12T14:27:18Z</time>
      </trkpt>
      <trkpt lat="47.17703" lon="6.82364">
        <ele>925.3</ele>
        <time>2021-08-12T14:27:20Z</time>
      </trkpt>
      <trkpt lat="47.17699" lon="6.82363">
        <ele>925.6</ele>
        <time>2021-08-12T14:27:22Z</time>
      </trkpt>
      <trkpt lat="47.17696" lon="6.82363">
        <ele>925.7</ele>
        <time>2021-08-12T14:27:24Z</time>
      </trkpt>
      <trkpt lat="47.17693" lon="6.82362">
        <ele>925.9</ele>
        <time>2021-08-12T14:27:25Z</time>
      </trkpt>
      <trkpt lat="47.17691" lon="6.82362">
        <ele>926</ele>
        <time>2021-08-12T14:27:27Z</time>
      </trkpt>
      <trkpt lat="47.1769" lon="6.82361">
        <ele>926.1</ele>
        <time>2021-08-12T14:27:28Z</time>
      </trkpt>
      <trkpt lat="47.17687" lon="6.82361">
        <ele>926.2</ele>
        <time>2021-08-12T14:27:30Z</time>
      </trkpt>
      <trkpt lat="47.17627" lon="6.82323">
        <ele>929.8</ele>
        <time>2021-08-12T14:27:59Z</time>
      </trkpt>
      <trkpt lat="47.17625" lon="6.82321">
        <ele>929.9</ele>
        <time>2021-08-12T14:28:00Z</time>
      </trkpt>
      <trkpt lat="47.17624" lon="6.82321">
        <ele>930</ele>
        <time>2021-08-12T14:28:01Z</time>
      </trkpt>
      <trkpt lat="47.17623" lon="6.82321">
        <ele>930</ele>
        <time>2021-08-12T14:28:02Z</time>
      </trkpt>
      <trkpt lat="47.17623" lon="6.82321">
        <ele>930.1</ele>
        <time>2021-08-12T14:28:03Z</time>
      </trkpt>
      <trkpt lat="47.17623" lon="6.82321">
        <ele>930.1</ele>
        <time>2021-08-12T14:28:04Z</time>
      </trkpt>
      <trkpt lat="47.17622" lon="6.82322">
        <ele>930.1</ele>
        <time>2021-08-12T14:28:05Z</time>
      </trkpt>
      <trkpt lat="47.17622" lon="6.82322">
        <ele>930.1</ele>
        <time>2021-08-12T14:28:06Z</time>
      </trkpt>
      <trkpt lat="47.17621" lon="6.82323">
        <ele>930.2</ele>
        <time>2021-08-12T14:28:08Z</time>
      </trkpt>
      <trkpt lat="47.17619" lon="6.82323">
        <ele>930.3</ele>
        <time>2021-08-12T14:28:09Z</time>
      </trkpt>
      <trkpt lat="47.17618" lon="6.82323">
        <ele>930.3</ele>
        <time>2021-08-12T14:28:10Z</time>
      </trkpt>
      <trkpt lat="47.17616" lon="6.82322">
        <ele>930.4</ele>
        <time>2021-08-12T14:28:11Z</time>
      </trkpt>
      <trkpt lat="47.17613" lon="6.82322">
        <ele>930.6</ele>
        <time>2021-08-12T14:28:13Z</time>
      </trkpt>
      <trkpt lat="47.17612" lon="6.82321">
        <ele>930.6</ele>
        <time>2021-08-12T14:28:14Z</time>
      </trkpt>
      <trkpt lat="47.1761" lon="6.82321">
        <ele>930.7</ele>
        <time>2021-08-12T14:28:15Z</time>
      </trkpt>
      <trkpt lat="47.17605" lon="6.82319">
        <ele>931</ele>
        <time>2021-08-12T14:28:16Z</time>
      </trkpt>
      <trkpt lat="47.17601" lon="6.82317">
        <ele>931.2</ele>
        <time>2021-08-12T14:28:17Z</time>
      </trkpt>
      <trkpt lat="47.176" lon="6.82317">
        <ele>931.3</ele>
        <time>2021-08-12T14:28:18Z</time>
      </trkpt>
      <trkpt lat="47.17594" lon="6.82312">
        <ele>931.6</ele>
        <time>2021-08-12T14:28:20Z</time>
      </trkpt>
      <trkpt lat="47.1759" lon="6.82308">
        <ele>931.9</ele>
        <time>2021-08-12T14:28:22Z</time>
      </trkpt>
      <trkpt lat="47.17586" lon="6.82306">
        <ele>932.1</ele>
        <time>2021-08-12T14:28:23Z</time>
      </trkpt>
      <trkpt lat="47.17582" lon="6.82304">
        <ele>932.3</ele>
        <time>2021-08-12T14:28:25Z</time>
      </trkpt>
      <trkpt lat="47.17581" lon="6.82303">
        <ele>932.3</ele>
        <time>2021-08-12T14:28:26Z</time>
      </trkpt>
      <trkpt lat="47.17578" lon="6.82301">
        <ele>932.5</ele>
        <time>2021-08-12T14:28:27Z</time>
      </trkpt>
      <trkpt lat="47.17575" lon="6.82299">
        <ele>932.6</ele>
        <time>2021-08-12T14:28:28Z</time>
      </trkpt>
      <trkpt lat="47.17574" lon="6.82298">
        <ele>932.7</ele>
        <time>2021-08-12T14:28:29Z</time>
      </trkpt>
      <trkpt lat="47.17572" lon="6.82296">
        <ele>932.8</ele>
        <time>2021-08-12T14:28:30Z</time>
      </trkpt>
      <trkpt lat="47.17568" lon="6.82292">
        <ele>933.1</ele>
        <time>2021-08-12T14:28:32Z</time>
      </trkpt>
      <trkpt lat="47.17565" lon="6.8229">
        <ele>933.3</ele>
        <time>2021-08-12T14:28:34Z</time>
      </trkpt>
      <trkpt lat="47.17563" lon="6.8229">
        <ele>933.3</ele>
        <time>2021-08-12T14:28:35Z</time>
      </trkpt>
      <trkpt lat="47.1756" lon="6.82287">
        <ele>933.5</ele>
        <time>2021-08-12T14:28:37Z</time>
      </trkpt>
      <trkpt lat="47.17557" lon="6.82284">
        <ele>933.7</ele>
        <time>2021-08-12T14:28:39Z</time>
      </trkpt>
      <trkpt lat="47.17555" lon="6.82284">
        <ele>933.8</ele>
        <time>2021-08-12T14:28:40Z</time>
      </trkpt>
      <trkpt lat="47.17554" lon="6.82283">
        <ele>933.9</ele>
        <time>2021-08-12T14:28:41Z</time>
      </trkpt>
      <trkpt lat="47.17553" lon="6.82283">
        <ele>933.9</ele>
        <time>2021-08-12T14:28:42Z</time>
      </trkpt>
      <trkpt lat="47.1755" lon="6.82281">
        <ele>934.1</ele>
        <time>2021-08-12T14:28:43Z</time>
      </trkpt>
      <trkpt lat="47.17547" lon="6.82279">
        <ele>934.3</ele>
        <time>2021-08-12T14:28:44Z</time>
      </trkpt>
      <trkpt lat="47.17545" lon="6.82277">
        <ele>934.4</ele>
        <time>2021-08-12T14:28:45Z</time>
      </trkpt>
      <trkpt lat="47.17542" lon="6.82275">
        <ele>934.5</ele>
        <time>2021-08-12T14:28:47Z</time>
      </trkpt>
      <trkpt lat="47.17541" lon="6.82274">
        <ele>934.6</ele>
        <time>2021-08-12T14:28:48Z</time>
      </trkpt>
      <trkpt lat="47.17538" lon="6.82272">
        <ele>934.8</ele>
        <time>2021-08-12T14:28:49Z</time>
      </trkpt>
      <trkpt lat="47.17535" lon="6.8227">
        <ele>935</ele>
        <time>2021-08-12T14:28:50Z</time>
      </trkpt>
      <trkpt lat="47.17533" lon="6.82268">
        <ele>935.1</ele>
        <time>2021-08-12T14:28:51Z</time>
      </trkpt>
      <trkpt lat="47.17527" lon="6.82264">
        <ele>935.4</ele>
        <time>2021-08-12T14:28:53Z</time>
      </trkpt>
      <trkpt lat="47.17525" lon="6.82263">
        <ele>935.6</ele>
        <time>2021-08-12T14:28:54Z</time>
      </trkpt>
      <trkpt lat="47.1752" lon="6.8226">
        <ele>935.9</ele>
        <time>2021-08-12T14:28:56Z</time>
      </trkpt>
      <trkpt lat="47.17517" lon="6.82258">
        <ele>936</ele>
        <time>2021-08-12T14:28:57Z</time>
      </trkpt>
      <trkpt lat="47.17511" lon="6.82259">
        <ele>936.3</ele>
        <time>2021-08-12T14:28:59Z</time>
      </trkpt>
      <trkpt lat="47.17509" lon="6.82258">
        <ele>936.4</ele>
        <time>2021-08-12T14:29:00Z</time>
      </trkpt>
      <trkpt lat="47.17505" lon="6.82257">
        <ele>936.6</ele>
        <time>2021-08-12T14:29:02Z</time>
      </trkpt>
      <trkpt lat="47.17501" lon="6.82255">
        <ele>936.8</ele>
        <time>2021-08-12T14:29:03Z</time>
      </trkpt>
      <trkpt lat="47.17497" lon="6.82254">
        <ele>937</ele>
        <time>2021-08-12T14:29:05Z</time>
      </trkpt>
      <trkpt lat="47.17496" lon="6.82253">
        <ele>937.1</ele>
        <time>2021-08-12T14:29:06Z</time>
      </trkpt>
      <trkpt lat="47.17495" lon="6.82252">
        <ele>937.2</ele>
        <time>2021-08-12T14:29:07Z</time>
      </trkpt>
      <trkpt lat="47.17494" lon="6.82251">
        <ele>937.2</ele>
        <time>2021-08-12T14:29:08Z</time>
      </trkpt>
      <trkpt lat="47.17494" lon="6.82249">
        <ele>937.3</ele>
        <time>2021-08-12T14:29:09Z</time>
      </trkpt>
      <trkpt lat="47.17496" lon="6.82245">
        <ele>937.5</ele>
        <time>2021-08-12T14:29:11Z</time>
      </trkpt>
      <trkpt lat="47.17498" lon="6.82241">
        <ele>937.7</ele>
        <time>2021-08-12T14:29:12Z</time>
      </trkpt>
      <trkpt lat="47.17499" lon="6.8224">
        <ele>937.7</ele>
        <time>2021-08-12T14:29:13Z</time>
      </trkpt>
      <trkpt lat="47.175" lon="6.82236">
        <ele>937.9</ele>
        <time>2021-08-12T14:29:14Z</time>
      </trkpt>
      <trkpt lat="47.175" lon="6.82235">
        <ele>938</ele>
        <time>2021-08-12T14:29:15Z</time>
      </trkpt>
      <trkpt lat="47.175" lon="6.82232">
        <ele>938</ele>
        <time>2021-08-12T14:29:16Z</time>
      </trkpt>
      <trkpt lat="47.175" lon="6.8223">
        <ele>938.1</ele>
        <time>2021-08-12T14:29:17Z</time>
      </trkpt>
      <trkpt lat="47.175" lon="6.82229">
        <ele>938.2</ele>
        <time>2021-08-12T14:29:18Z</time>
      </trkpt>
      <trkpt lat="47.17499" lon="6.82227">
        <ele>938.2</ele>
        <time>2021-08-12T14:29:19Z</time>
      </trkpt>
      <trkpt lat="47.17498" lon="6.82225">
        <ele>938.3</ele>
        <time>2021-08-12T14:29:20Z</time>
      </trkpt>
      <trkpt lat="47.17496" lon="6.82222">
        <ele>938.5</ele>
        <time>2021-08-12T14:29:21Z</time>
      </trkpt>
      <trkpt lat="47.17495" lon="6.82219">
        <ele>938.6</ele>
        <time>2021-08-12T14:29:23Z</time>
      </trkpt>
      <trkpt lat="47.17494" lon="6.82215">
        <ele>938.7</ele>
        <time>2021-08-12T14:29:25Z</time>
      </trkpt>
      <trkpt lat="47.1749" lon="6.82209">
        <ele>939</ele>
        <time>2021-08-12T14:29:28Z</time>
      </trkpt>
      <trkpt lat="47.17486" lon="6.82205">
        <ele>939.3</ele>
        <time>2021-08-12T14:29:30Z</time>
      </trkpt>
      <trkpt lat="47.17478" lon="6.82208">
        <ele>939.7</ele>
        <time>2021-08-12T14:29:31Z</time>
      </trkpt>
      <trkpt lat="47.17471" lon="6.82211">
        <ele>940</ele>
        <time>2021-08-12T14:29:33Z</time>
      </trkpt>
      <trkpt lat="47.17464" lon="6.82213">
        <ele>940.4</ele>
        <time>2021-08-12T14:29:35Z</time>
      </trkpt>
      <trkpt lat="47.17461" lon="6.82213">
        <ele>940.6</ele>
        <time>2021-08-12T14:29:36Z</time>
      </trkpt>
      <trkpt lat="47.17456" lon="6.82209">
        <ele>940.9</ele>
        <time>2021-08-12T14:29:38Z</time>
      </trkpt>
      <trkpt lat="47.17453" lon="6.82203">
        <ele>941.1</ele>
        <time>2021-08-12T14:29:40Z</time>
      </trkpt>
      <trkpt lat="47.17451" lon="6.82199">
        <ele>941.3</ele>
        <time>2021-08-12T14:29:41Z</time>
      </trkpt>
      <trkpt lat="47.17449" lon="6.82195">
        <ele>941.5</ele>
        <time>2021-08-12T14:29:42Z</time>
      </trkpt>
      <trkpt lat="47.17446" lon="6.82191">
        <ele>941.7</ele>
        <time>2021-08-12T14:29:43Z</time>
      </trkpt>
      <trkpt lat="47.17444" lon="6.82188">
        <ele>941.9</ele>
        <time>2021-08-12T14:29:44Z</time>
      </trkpt>
      <trkpt lat="47.1744" lon="6.82184">
        <ele>942.1</ele>
        <time>2021-08-12T14:29:46Z</time>
      </trkpt>
      <trkpt lat="47.17437" lon="6.82183">
        <ele>942.3</ele>
        <time>2021-08-12T14:29:47Z</time>
      </trkpt>
      <trkpt lat="47.17433" lon="6.82179">
        <ele>942.6</ele>
        <time>2021-08-12T14:29:49Z</time>
      </trkpt>
      <trkpt lat="47.1743" lon="6.82176">
        <ele>942.8</ele>
        <time>2021-08-12T14:29:50Z</time>
      </trkpt>
      <trkpt lat="47.17429" lon="6.82176">
        <ele>942.8</ele>
        <time>2021-08-12T14:29:51Z</time>
      </trkpt>
      <trkpt lat="47.17426" lon="6.82175">
        <ele>943</ele>
        <time>2021-08-12T14:29:53Z</time>
      </trkpt>
      <trkpt lat="47.17425" lon="6.82176">
        <ele>943.1</ele>
        <time>2021-08-12T14:29:54Z</time>
      </trkpt>
      <trkpt lat="47.17423" lon="6.82174">
        <ele>943.3</ele>
        <time>2021-08-12T14:29:55Z</time>
      </trkpt>
      <trkpt lat="47.1742" lon="6.82172">
        <ele>943.4</ele>
        <time>2021-08-12T14:29:56Z</time>
      </trkpt>
      <trkpt lat="47.17417" lon="6.8217">
        <ele>943.7</ele>
        <time>2021-08-12T14:29:57Z</time>
      </trkpt>
      <trkpt lat="47.17415" lon="6.82168">
        <ele>943.8</ele>
        <time>2021-08-12T14:29:59Z</time>
      </trkpt>
      <trkpt lat="47.17414" lon="6.82166">
        <ele>943.9</ele>
        <time>2021-08-12T14:30:00Z</time>
      </trkpt>
      <trkpt lat="47.17411" lon="6.82163">
        <ele>944.1</ele>
        <time>2021-08-12T14:30:02Z</time>
      </trkpt>
      <trkpt lat="47.17408" lon="6.82163">
        <ele>944.3</ele>
        <time>2021-08-12T14:30:03Z</time>
      </trkpt>
      <trkpt lat="47.17405" lon="6.82165">
        <ele>944.5</ele>
        <time>2021-08-12T14:30:04Z</time>
      </trkpt>
      <trkpt lat="47.17402" lon="6.82164">
        <ele>944.7</ele>
        <time>2021-08-12T14:30:06Z</time>
      </trkpt>
      <trkpt lat="47.17399" lon="6.82162">
        <ele>944.8</ele>
        <time>2021-08-12T14:30:07Z</time>
      </trkpt>
      <trkpt lat="47.17397" lon="6.82158">
        <ele>945</ele>
        <time>2021-08-12T14:30:08Z</time>
      </trkpt>
      <trkpt lat="47.17396" lon="6.82157">
        <ele>945.1</ele>
        <time>2021-08-12T14:30:09Z</time>
      </trkpt>
      <trkpt lat="47.17392" lon="6.82155">
        <ele>945.3</ele>
        <time>2021-08-12T14:30:11Z</time>
      </trkpt>
      <trkpt lat="47.17389" lon="6.82154">
        <ele>945.5</ele>
        <time>2021-08-12T14:30:12Z</time>
      </trkpt>
      <trkpt lat="47.17386" lon="6.82151">
        <ele>945.7</ele>
        <time>2021-08-12T14:30:14Z</time>
      </trkpt>
      <trkpt lat="47.17384" lon="6.8215">
        <ele>945.7</ele>
        <time>2021-08-12T14:30:15Z</time>
      </trkpt>
      <trkpt lat="47.17384" lon="6.82148">
        <ele>945.8</ele>
        <time>2021-08-12T14:30:16Z</time>
      </trkpt>
      <trkpt lat="47.17383" lon="6.82146">
        <ele>945.9</ele>
        <time>2021-08-12T14:30:17Z</time>
      </trkpt>
      <trkpt lat="47.17382" lon="6.82144">
        <ele>946</ele>
        <time>2021-08-12T14:30:18Z</time>
      </trkpt>
      <trkpt lat="47.1738" lon="6.82142">
        <ele>946.1</ele>
        <time>2021-08-12T14:30:19Z</time>
      </trkpt>
      <trkpt lat="47.17379" lon="6.82141">
        <ele>946.2</ele>
        <time>2021-08-12T14:30:20Z</time>
      </trkpt>
      <trkpt lat="47.17375" lon="6.82139">
        <ele>946.4</ele>
        <time>2021-08-12T14:30:21Z</time>
      </trkpt>
      <trkpt lat="47.17373" lon="6.82138">
        <ele>946.5</ele>
        <time>2021-08-12T14:30:22Z</time>
      </trkpt>
      <trkpt lat="47.17369" lon="6.82134">
        <ele>946.8</ele>
        <time>2021-08-12T14:30:24Z</time>
      </trkpt>
      <trkpt lat="47.17368" lon="6.8213">
        <ele>946.9</ele>
        <time>2021-08-12T14:30:25Z</time>
      </trkpt>
      <trkpt lat="47.17366" lon="6.82124">
        <ele>947.1</ele>
        <time>2021-08-12T14:30:26Z</time>
      </trkpt>
      <trkpt lat="47.17364" lon="6.82118">
        <ele>947.4</ele>
        <time>2021-08-12T14:30:28Z</time>
      </trkpt>
      <trkpt lat="47.17363" lon="6.82115">
        <ele>947.5</ele>
        <time>2021-08-12T14:30:29Z</time>
      </trkpt>
      <trkpt lat="47.17362" lon="6.82114">
        <ele>947.6</ele>
        <time>2021-08-12T14:30:30Z</time>
      </trkpt>
      <trkpt lat="47.17361" lon="6.82113">
        <ele>947.6</ele>
        <time>2021-08-12T14:30:31Z</time>
      </trkpt>
      <trkpt lat="47.17357" lon="6.82111">
        <ele>947.8</ele>
        <time>2021-08-12T14:30:33Z</time>
      </trkpt>
      <trkpt lat="47.17354" lon="6.82109">
        <ele>948</ele>
        <time>2021-08-12T14:30:35Z</time>
      </trkpt>
      <trkpt lat="47.17351" lon="6.82108">
        <ele>948.2</ele>
        <time>2021-08-12T14:30:36Z</time>
      </trkpt>
      <trkpt lat="47.17347" lon="6.82103">
        <ele>948.4</ele>
        <time>2021-08-12T14:30:38Z</time>
      </trkpt>
      <trkpt lat="47.17344" lon="6.821">
        <ele>948.6</ele>
        <time>2021-08-12T14:30:39Z</time>
      </trkpt>
      <trkpt lat="47.17342" lon="6.82096">
        <ele>948.8</ele>
        <time>2021-08-12T14:30:41Z</time>
      </trkpt>
      <trkpt lat="47.17341" lon="6.82093">
        <ele>949</ele>
        <time>2021-08-12T14:30:42Z</time>
      </trkpt>
      <trkpt lat="47.17341" lon="6.82087">
        <ele>949.2</ele>
        <time>2021-08-12T14:30:44Z</time>
      </trkpt>
      <trkpt lat="47.17341" lon="6.8208">
        <ele>949.5</ele>
        <time>2021-08-12T14:30:45Z</time>
      </trkpt>
      <trkpt lat="47.17341" lon="6.82075">
        <ele>949.7</ele>
        <time>2021-08-12T14:30:47Z</time>
      </trkpt>
      <trkpt lat="47.17341" lon="6.82073">
        <ele>949.7</ele>
        <time>2021-08-12T14:30:48Z</time>
      </trkpt>
      <trkpt lat="47.1734" lon="6.82072">
        <ele>949.8</ele>
        <time>2021-08-12T14:30:49Z</time>
      </trkpt>
      <trkpt lat="47.17339" lon="6.82068">
        <ele>950</ele>
        <time>2021-08-12T14:30:51Z</time>
      </trkpt>
      <trkpt lat="47.17339" lon="6.82068">
        <ele>950</ele>
        <time>2021-08-12T14:30:52Z</time>
      </trkpt>
      <trkpt lat="47.17339" lon="6.82068">
        <ele>950</ele>
        <time>2021-08-12T14:30:53Z</time>
      </trkpt>
      <trkpt lat="47.17339" lon="6.82067">
        <ele>950.1</ele>
        <time>2021-08-12T14:30:54Z</time>
      </trkpt>
      <trkpt lat="47.17337" lon="6.82062">
        <ele>950.3</ele>
        <time>2021-08-12T14:30:56Z</time>
      </trkpt>
      <trkpt lat="47.17334" lon="6.82058">
        <ele>950.5</ele>
        <time>2021-08-12T14:30:58Z</time>
      </trkpt>
      <trkpt lat="47.17331" lon="6.82055">
        <ele>950.7</ele>
        <time>2021-08-12T14:31:00Z</time>
      </trkpt>
      <trkpt lat="47.17328" lon="6.82053">
        <ele>950.9</ele>
        <time>2021-08-12T14:31:01Z</time>
      </trkpt>
      <trkpt lat="47.17326" lon="6.82052">
        <ele>951</ele>
        <time>2021-08-12T14:31:02Z</time>
      </trkpt>
      <trkpt lat="47.17319" lon="6.82051">
        <ele>951.4</ele>
        <time>2021-08-12T14:31:04Z</time>
      </trkpt>
      <trkpt lat="47.17313" lon="6.82049">
        <ele>951.7</ele>
        <time>2021-08-12T14:31:06Z</time>
      </trkpt>
      <trkpt lat="47.1731" lon="6.82045">
        <ele>951.9</ele>
        <time>2021-08-12T14:31:08Z</time>
      </trkpt>
      <trkpt lat="47.17308" lon="6.82042">
        <ele>952.1</ele>
        <time>2021-08-12T14:31:09Z</time>
      </trkpt>
      <trkpt lat="47.17307" lon="6.82039">
        <ele>952.2</ele>
        <time>2021-08-12T14:31:10Z</time>
      </trkpt>
      <trkpt lat="47.17306" lon="6.82036">
        <ele>952.3</ele>
        <time>2021-08-12T14:31:12Z</time>
      </trkpt>
      <trkpt lat="47.17303" lon="6.82034">
        <ele>952.5</ele>
        <time>2021-08-12T14:31:13Z</time>
      </trkpt>
      <trkpt lat="47.17302" lon="6.82033">
        <ele>952.5</ele>
        <time>2021-08-12T14:31:14Z</time>
      </trkpt>
      <trkpt lat="47.17301" lon="6.82032">
        <ele>952.6</ele>
        <time>2021-08-12T14:31:15Z</time>
      </trkpt>
      <trkpt lat="47.17299" lon="6.82032">
        <ele>952.7</ele>
        <time>2021-08-12T14:31:17Z</time>
      </trkpt>
      <trkpt lat="47.17297" lon="6.82033">
        <ele>952.8</ele>
        <time>2021-08-12T14:31:18Z</time>
      </trkpt>
      <trkpt lat="47.17297" lon="6.82035">
        <ele>952.8</ele>
        <time>2021-08-12T14:31:19Z</time>
      </trkpt>
      <trkpt lat="47.17294" lon="6.82036">
        <ele>953</ele>
        <time>2021-08-12T14:31:21Z</time>
      </trkpt>
      <trkpt lat="47.17293" lon="6.82036">
        <ele>953</ele>
        <time>2021-08-12T14:31:22Z</time>
      </trkpt>
      <trkpt lat="47.17291" lon="6.82036">
        <ele>953.1</ele>
        <time>2021-08-12T14:31:23Z</time>
      </trkpt>
      <trkpt lat="47.1729" lon="6.82034">
        <ele>953.2</ele>
        <time>2021-08-12T14:31:24Z</time>
      </trkpt>
      <trkpt lat="47.17288" lon="6.82032">
        <ele>953.3</ele>
        <time>2021-08-12T14:31:25Z</time>
      </trkpt>
      <trkpt lat="47.17285" lon="6.82028">
        <ele>953.4</ele>
        <time>2021-08-12T14:31:27Z</time>
      </trkpt>
      <trkpt lat="47.1728" lon="6.82028">
        <ele>953.6</ele>
        <time>2021-08-12T14:31:29Z</time>
      </trkpt>
      <trkpt lat="47.17275" lon="6.8203">
        <ele>953.8</ele>
        <time>2021-08-12T14:31:31Z</time>
      </trkpt>
      <trkpt lat="47.17272" lon="6.82032">
        <ele>953.9</ele>
        <time>2021-08-12T14:31:32Z</time>
      </trkpt>
      <trkpt lat="47.17272" lon="6.82033">
        <ele>954</ele>
        <time>2021-08-12T14:31:33Z</time>
      </trkpt>
      <trkpt lat="47.1727" lon="6.82034">
        <ele>954.1</ele>
        <time>2021-08-12T14:31:34Z</time>
      </trkpt>
      <trkpt lat="47.17266" lon="6.82035">
        <ele>954.2</ele>
        <time>2021-08-12T14:31:36Z</time>
      </trkpt>
      <trkpt lat="47.17263" lon="6.82035">
        <ele>954.3</ele>
        <time>2021-08-12T14:31:37Z</time>
      </trkpt>
      <trkpt lat="47.17262" lon="6.82036">
        <ele>954.3</ele>
        <time>2021-08-12T14:31:38Z</time>
      </trkpt>
      <trkpt lat="47.1726" lon="6.82037">
        <ele>954.4</ele>
        <time>2021-08-12T14:31:39Z</time>
      </trkpt>
      <trkpt lat="47.17257" lon="6.82039">
        <ele>954.6</ele>
        <time>2021-08-12T14:31:41Z</time>
      </trkpt>
      <trkpt lat="47.17253" lon="6.8204">
        <ele>954.7</ele>
        <time>2021-08-12T14:31:43Z</time>
      </trkpt>
      <trkpt lat="47.17249" lon="6.82043">
        <ele>954.9</ele>
        <time>2021-08-12T14:31:45Z</time>
      </trkpt>
      <trkpt lat="47.17245" lon="6.82046">
        <ele>955</ele>
        <time>2021-08-12T14:31:47Z</time>
      </trkpt>
      <trkpt lat="47.17242" lon="6.82048">
        <ele>955.2</ele>
        <time>2021-08-12T14:31:48Z</time>
      </trkpt>
      <trkpt lat="47.1724" lon="6.82048">
        <ele>955.2</ele>
        <time>2021-08-12T14:31:49Z</time>
      </trkpt>
      <trkpt lat="47.17238" lon="6.82051">
        <ele>955.3</ele>
        <time>2021-08-12T14:31:51Z</time>
      </trkpt>
      <trkpt lat="47.17235" lon="6.82055">
        <ele>955.5</ele>
        <time>2021-08-12T14:31:53Z</time>
      </trkpt>
      <trkpt lat="47.17231" lon="6.82058">
        <ele>955.6</ele>
        <time>2021-08-12T14:31:54Z</time>
      </trkpt>
      <trkpt lat="47.17226" lon="6.8206">
        <ele>955.8</ele>
        <time>2021-08-12T14:31:55Z</time>
      </trkpt>
      <trkpt lat="47.17222" lon="6.82062">
        <ele>956</ele>
        <time>2021-08-12T14:31:57Z</time>
      </trkpt>
      <trkpt lat="47.1722" lon="6.82065">
        <ele>956.1</ele>
        <time>2021-08-12T14:31:58Z</time>
      </trkpt>
      <trkpt lat="47.17213" lon="6.82069">
        <ele>956.4</ele>
        <time>2021-08-12T14:32:00Z</time>
      </trkpt>
      <trkpt lat="47.17208" lon="6.82072">
        <ele>956.6</ele>
        <time>2021-08-12T14:32:02Z</time>
      </trkpt>
      <trkpt lat="47.17205" lon="6.82076">
        <ele>956.8</ele>
        <time>2021-08-12T14:32:03Z</time>
      </trkpt>
      <trkpt lat="47.17204" lon="6.82077">
        <ele>956.8</ele>
        <time>2021-08-12T14:32:04Z</time>
      </trkpt>
      <trkpt lat="47.172" lon="6.8208">
        <ele>957</ele>
        <time>2021-08-12T14:32:06Z</time>
      </trkpt>
      <trkpt lat="47.17198" lon="6.82081">
        <ele>957.1</ele>
        <time>2021-08-12T14:32:07Z</time>
      </trkpt>
      <trkpt lat="47.17195" lon="6.82082">
        <ele>957.3</ele>
        <time>2021-08-12T14:32:09Z</time>
      </trkpt>
      <trkpt lat="47.17193" lon="6.82084">
        <ele>957.3</ele>
        <time>2021-08-12T14:32:10Z</time>
      </trkpt>
      <trkpt lat="47.17192" lon="6.82085">
        <ele>957.4</ele>
        <time>2021-08-12T14:32:11Z</time>
      </trkpt>
      <trkpt lat="47.17188" lon="6.82088">
        <ele>957.6</ele>
        <time>2021-08-12T14:32:13Z</time>
      </trkpt>
      <trkpt lat="47.17186" lon="6.8209">
        <ele>957.7</ele>
        <time>2021-08-12T14:32:14Z</time>
      </trkpt>
      <trkpt lat="47.17185" lon="6.8209">
        <ele>957.8</ele>
        <time>2021-08-12T14:32:15Z</time>
      </trkpt>
      <trkpt lat="47.17182" lon="6.82094">
        <ele>957.9</ele>
        <time>2021-08-12T14:32:17Z</time>
      </trkpt>
      <trkpt lat="47.17178" lon="6.82098">
        <ele>958.2</ele>
        <time>2021-08-12T14:32:19Z</time>
      </trkpt>
      <trkpt lat="47.17175" lon="6.82102">
        <ele>958.3</ele>
        <time>2021-08-12T14:32:20Z</time>
      </trkpt>
      <trkpt lat="47.17174" lon="6.82103">
        <ele>958.4</ele>
        <time>2021-08-12T14:32:21Z</time>
      </trkpt>
      <trkpt lat="47.1717" lon="6.82107">
        <ele>958.6</ele>
        <time>2021-08-12T14:32:23Z</time>
      </trkpt>
      <trkpt lat="47.17167" lon="6.82109">
        <ele>958.8</ele>
        <time>2021-08-12T14:32:25Z</time>
      </trkpt>
      <trkpt lat="47.17163" lon="6.82112">
        <ele>959</ele>
        <time>2021-08-12T14:32:27Z</time>
      </trkpt>
      <trkpt lat="47.1716" lon="6.82114">
        <ele>959.2</ele>
        <time>2021-08-12T14:32:28Z</time>
      </trkpt>
      <trkpt lat="47.17156" lon="6.82119">
        <ele>959.4</ele>
        <time>2021-08-12T14:32:30Z</time>
      </trkpt>
      <trkpt lat="47.17155" lon="6.8212">
        <ele>959.4</ele>
        <time>2021-08-12T14:32:31Z</time>
      </trkpt>
      <trkpt lat="47.17154" lon="6.82121">
        <ele>959.5</ele>
        <time>2021-08-12T14:32:32Z</time>
      </trkpt>
      <trkpt lat="47.17151" lon="6.82123">
        <ele>959.7</ele>
        <time>2021-08-12T14:32:33Z</time>
      </trkpt>
      <trkpt lat="47.17149" lon="6.82125">
        <ele>959.8</ele>
        <time>2021-08-12T14:32:34Z</time>
      </trkpt>
      <trkpt lat="47.17146" lon="6.82129">
        <ele>960</ele>
        <time>2021-08-12T14:32:36Z</time>
      </trkpt>
      <trkpt lat="47.17141" lon="6.82131">
        <ele>960.2</ele>
        <time>2021-08-12T14:32:38Z</time>
      </trkpt>
      <trkpt lat="47.17137" lon="6.82134">
        <ele>960.4</ele>
        <time>2021-08-12T14:32:40Z</time>
      </trkpt>
      <trkpt lat="47.17132" lon="6.82134">
        <ele>960.6</ele>
        <time>2021-08-12T14:32:42Z</time>
      </trkpt>
      <trkpt lat="47.17129" lon="6.82135">
        <ele>960.8</ele>
        <time>2021-08-12T14:32:43Z</time>
      </trkpt>
      <trkpt lat="47.17126" lon="6.82138">
        <ele>961</ele>
        <time>2021-08-12T14:32:44Z</time>
      </trkpt>
      <trkpt lat="47.17125" lon="6.82138">
        <ele>961</ele>
        <time>2021-08-12T14:32:45Z</time>
      </trkpt>
      <trkpt lat="47.17122" lon="6.8214">
        <ele>961.2</ele>
        <time>2021-08-12T14:32:46Z</time>
      </trkpt>
      <trkpt lat="47.17119" lon="6.82143">
        <ele>961.4</ele>
        <time>2021-08-12T14:32:48Z</time>
      </trkpt>
      <trkpt lat="47.17116" lon="6.82146">
        <ele>961.6</ele>
        <time>2021-08-12T14:32:49Z</time>
      </trkpt>
      <trkpt lat="47.17113" lon="6.82149">
        <ele>961.8</ele>
        <time>2021-08-12T14:32:51Z</time>
      </trkpt>
      <trkpt lat="47.1711" lon="6.82151">
        <ele>961.9</ele>
        <time>2021-08-12T14:32:52Z</time>
      </trkpt>
      <trkpt lat="47.17109" lon="6.82152">
        <ele>962</ele>
        <time>2021-08-12T14:32:53Z</time>
      </trkpt>
      <trkpt lat="47.17104" lon="6.82153">
        <ele>962.2</ele>
        <time>2021-08-12T14:32:55Z</time>
      </trkpt>
      <trkpt lat="47.17102" lon="6.82154">
        <ele>962.3</ele>
        <time>2021-08-12T14:32:56Z</time>
      </trkpt>
      <trkpt lat="47.17097" lon="6.82154">
        <ele>962.6</ele>
        <time>2021-08-12T14:32:58Z</time>
      </trkpt>
      <trkpt lat="47.17093" lon="6.82155">
        <ele>962.7</ele>
        <time>2021-08-12T14:32:59Z</time>
      </trkpt>
      <trkpt lat="47.17091" lon="6.82157">
        <ele>962.8</ele>
        <time>2021-08-12T14:33:00Z</time>
      </trkpt>
      <trkpt lat="47.17089" lon="6.82164">
        <ele>963.1</ele>
        <time>2021-08-12T14:33:02Z</time>
      </trkpt>
      <trkpt lat="47.17086" lon="6.82172">
        <ele>963.4</ele>
        <time>2021-08-12T14:33:04Z</time>
      </trkpt>
      <trkpt lat="47.17082" lon="6.82177">
        <ele>963.6</ele>
        <time>2021-08-12T14:33:06Z</time>
      </trkpt>
      <trkpt lat="47.17079" lon="6.82181">
        <ele>963.8</ele>
        <time>2021-08-12T14:33:08Z</time>
      </trkpt>
      <trkpt lat="47.17078" lon="6.82187">
        <ele>963.8</ele>
        <time>2021-08-12T14:33:10Z</time>
      </trkpt>
      <trkpt lat="47.17077" lon="6.82188">
        <ele>963.9</ele>
        <time>2021-08-12T14:33:11Z</time>
      </trkpt>
      <trkpt lat="47.17073" lon="6.8219">
        <ele>964</ele>
        <time>2021-08-12T14:33:13Z</time>
      </trkpt>
      <trkpt lat="47.1707" lon="6.82191">
        <ele>964</ele>
        <time>2021-08-12T14:33:14Z</time>
      </trkpt>
      <trkpt lat="47.17068" lon="6.82191">
        <ele>964.1</ele>
        <time>2021-08-12T14:33:15Z</time>
      </trkpt>
      <trkpt lat="47.17064" lon="6.82191">
        <ele>964.1</ele>
        <time>2021-08-12T14:33:17Z</time>
      </trkpt>
      <trkpt lat="47.17061" lon="6.8219">
        <ele>964.1</ele>
        <time>2021-08-12T14:33:18Z</time>
      </trkpt>
      <trkpt lat="47.17059" lon="6.82191">
        <ele>964.2</ele>
        <time>2021-08-12T14:33:19Z</time>
      </trkpt>
      <trkpt lat="47.17057" lon="6.82193">
        <ele>964.2</ele>
        <time>2021-08-12T14:33:21Z</time>
      </trkpt>
      <trkpt lat="47.17055" lon="6.82195">
        <ele>964.2</ele>
        <time>2021-08-12T14:33:22Z</time>
      </trkpt>
      <trkpt lat="47.17051" lon="6.82195">
        <ele>964.2</ele>
        <time>2021-08-12T14:33:24Z</time>
      </trkpt>
      <trkpt lat="47.17048" lon="6.82195">
        <ele>964.2</ele>
        <time>2021-08-12T14:33:25Z</time>
      </trkpt>
      <trkpt lat="47.17043" lon="6.82193">
        <ele>964.2</ele>
        <time>2021-08-12T14:33:27Z</time>
      </trkpt>
      <trkpt lat="47.17039" lon="6.82193">
        <ele>964.2</ele>
        <time>2021-08-12T14:33:28Z</time>
      </trkpt>
      <trkpt lat="47.17036" lon="6.82193">
        <ele>964.2</ele>
        <time>2021-08-12T14:33:30Z</time>
      </trkpt>
      <trkpt lat="47.1703" lon="6.82197">
        <ele>964.2</ele>
        <time>2021-08-12T14:33:32Z</time>
      </trkpt>
      <trkpt lat="47.17028" lon="6.822">
        <ele>964.2</ele>
        <time>2021-08-12T14:33:33Z</time>
      </trkpt>
      <trkpt lat="47.17023" lon="6.82202">
        <ele>964.2</ele>
        <time>2021-08-12T14:33:35Z</time>
      </trkpt>
      <trkpt lat="47.17018" lon="6.82202">
        <ele>964.1</ele>
        <time>2021-08-12T14:33:37Z</time>
      </trkpt>
      <trkpt lat="47.17012" lon="6.82205">
        <ele>964.1</ele>
        <time>2021-08-12T14:33:39Z</time>
      </trkpt>
      <trkpt lat="47.17008" lon="6.82207">
        <ele>964</ele>
        <time>2021-08-12T14:33:40Z</time>
      </trkpt>
      <trkpt lat="47.17003" lon="6.82209">
        <ele>964</ele>
        <time>2021-08-12T14:33:42Z</time>
      </trkpt>
      <trkpt lat="47.16999" lon="6.8221">
        <ele>963.9</ele>
        <time>2021-08-12T14:33:43Z</time>
      </trkpt>
      <trkpt lat="47.16996" lon="6.82211">
        <ele>963.9</ele>
        <time>2021-08-12T14:33:44Z</time>
      </trkpt>
      <trkpt lat="47.16993" lon="6.82211">
        <ele>963.8</ele>
        <time>2021-08-12T14:33:45Z</time>
      </trkpt>
      <trkpt lat="47.1699" lon="6.82211">
        <ele>963.8</ele>
        <time>2021-08-12T14:33:46Z</time>
      </trkpt>
      <trkpt lat="47.16982" lon="6.82215">
        <ele>963.6</ele>
        <time>2021-08-12T14:33:48Z</time>
      </trkpt>
      <trkpt lat="47.16977" lon="6.82218">
        <ele>963.5</ele>
        <time>2021-08-12T14:33:49Z</time>
      </trkpt>
      <trkpt lat="47.16967" lon="6.82225">
        <ele>963.1</ele>
        <time>2021-08-12T14:33:51Z</time>
      </trkpt>
      <trkpt lat="47.16957" lon="6.82235">
        <ele>962.2</ele>
        <time>2021-08-12T14:33:53Z</time>
      </trkpt>
      <trkpt lat="47.16952" lon="6.82241">
        <ele>961.8</ele>
        <time>2021-08-12T14:33:54Z</time>
      </trkpt>
      <trkpt lat="47.16945" lon="6.82257">
        <ele>960.9</ele>
        <time>2021-08-12T14:33:56Z</time>
      </trkpt>
      <trkpt lat="47.16939" lon="6.82278">
        <ele>959.7</ele>
        <time>2021-08-12T14:33:58Z</time>
      </trkpt>
      <trkpt lat="47.16935" lon="6.82305">
        <ele>958.4</ele>
        <time>2021-08-12T14:34:00Z</time>
      </trkpt>
      <trkpt lat="47.16934" lon="6.82318">
        <ele>957.9</ele>
        <time>2021-08-12T14:34:01Z</time>
      </trkpt>
      <trkpt lat="47.16933" lon="6.82344">
        <ele>957</ele>
        <time>2021-08-12T14:34:03Z</time>
      </trkpt>
      <trkpt lat="47.16932" lon="6.82357">
        <ele>956.6</ele>
        <time>2021-08-12T14:34:04Z</time>
      </trkpt>
      <trkpt lat="47.16932" lon="6.82371">
        <ele>956.3</ele>
        <time>2021-08-12T14:34:05Z</time>
      </trkpt>
      <trkpt lat="47.16931" lon="6.82385">
        <ele>956</ele>
        <time>2021-08-12T14:34:06Z</time>
      </trkpt>
      <trkpt lat="47.16926" lon="6.82413">
        <ele>955.7</ele>
        <time>2021-08-12T14:34:08Z</time>
      </trkpt>
      <trkpt lat="47.16923" lon="6.82425">
        <ele>955.6</ele>
        <time>2021-08-12T14:34:09Z</time>
      </trkpt>
      <trkpt lat="47.16919" lon="6.82437">
        <ele>955.6</ele>
        <time>2021-08-12T14:34:10Z</time>
      </trkpt>
      <trkpt lat="47.16912" lon="6.82456">
        <ele>955.7</ele>
        <time>2021-08-12T14:34:12Z</time>
      </trkpt>
      <trkpt lat="47.16904" lon="6.82474">
        <ele>955.9</ele>
        <time>2021-08-12T14:34:14Z</time>
      </trkpt>
      <trkpt lat="47.169" lon="6.82483">
        <ele>955.9</ele>
        <time>2021-08-12T14:34:15Z</time>
      </trkpt>
      <trkpt lat="47.16891" lon="6.82495">
        <ele>955.7</ele>
        <time>2021-08-12T14:34:17Z</time>
      </trkpt>
      <trkpt lat="47.16885" lon="6.82507">
        <ele>955.5</ele>
        <time>2021-08-12T14:34:19Z</time>
      </trkpt>
      <trkpt lat="47.16882" lon="6.82513">
        <ele>955.4</ele>
        <time>2021-08-12T14:34:20Z</time>
      </trkpt>
      <trkpt lat="47.16876" lon="6.82525">
        <ele>955.1</ele>
        <time>2021-08-12T14:34:22Z</time>
      </trkpt>
      <trkpt lat="47.16868" lon="6.82537">
        <ele>954.7</ele>
        <time>2021-08-12T14:34:24Z</time>
      </trkpt>
      <trkpt lat="47.16865" lon="6.8254">
        <ele>954.5</ele>
        <time>2021-08-12T14:34:25Z</time>
      </trkpt>
      <trkpt lat="47.16859" lon="6.82548">
        <ele>954.2</ele>
        <time>2021-08-12T14:34:27Z</time>
      </trkpt>
      <trkpt lat="47.16853" lon="6.82554">
        <ele>954.2</ele>
        <time>2021-08-12T14:34:29Z</time>
      </trkpt>
      <trkpt lat="47.16849" lon="6.82552">
        <ele>954.1</ele>
        <time>2021-08-12T14:34:30Z</time>
      </trkpt>
      <trkpt lat="47.16849" lon="6.82551">
        <ele>954.1</ele>
        <time>2021-08-12T14:34:32Z</time>
      </trkpt>
      <trkpt lat="47.16848" lon="6.82549">
        <ele>954.1</ele>
        <time>2021-08-12T14:34:33Z</time>
      </trkpt>
      <trkpt lat="47.16846" lon="6.82551">
        <ele>954.1</ele>
        <time>2021-08-12T14:34:35Z</time>
      </trkpt>
      <trkpt lat="47.16847" lon="6.82552">
        <ele>954.1</ele>
        <time>2021-08-12T14:34:36Z</time>
      </trkpt>
      <trkpt lat="47.16848" lon="6.82552">
        <ele>954.1</ele>
        <time>2021-08-12T14:34:37Z</time>
      </trkpt>
      <trkpt lat="47.16849" lon="6.82552">
        <ele>954.1</ele>
        <time>2021-08-12T14:34:38Z</time>
      </trkpt>
      <trkpt lat="47.1685" lon="6.82553">
        <ele>954.1</ele>
        <time>2021-08-12T14:34:40Z</time>
      </trkpt>
      <trkpt lat="47.16851" lon="6.82553">
        <ele>954.1</ele>
        <time>2021-08-12T14:34:41Z</time>
      </trkpt>
      <trkpt lat="47.16852" lon="6.82554">
        <ele>954</ele>
        <time>2021-08-12T14:34:42Z</time>
      </trkpt>
      <trkpt lat="47.16853" lon="6.82554">
        <ele>954</ele>
        <time>2021-08-12T14:34:44Z</time>
      </trkpt>
      <trkpt lat="47.16854" lon="6.82554">
        <ele>954</ele>
        <time>2021-08-12T14:34:46Z</time>
      </trkpt>
      <trkpt lat="47.16855" lon="6.82555">
        <ele>954</ele>
        <time>2021-08-12T14:34:47Z</time>
      </trkpt>
      <trkpt lat="47.16856" lon="6.82555">
        <ele>954</ele>
        <time>2021-08-12T14:36:04Z</time>
      </trkpt>
      <trkpt lat="47.16857" lon="6.82556">
        <ele>954</ele>
        <time>2021-08-12T14:36:05Z</time>
      </trkpt>
      <trkpt lat="47.1685" lon="6.82569">
        <ele>953.6</ele>
        <time>2021-08-12T14:36:07Z</time>
      </trkpt>
      <trkpt lat="47.1684" lon="6.82597">
        <ele>951.4</ele>
        <time>2021-08-12T14:36:08Z</time>
      </trkpt>
      <trkpt lat="47.16837" lon="6.82604">
        <ele>950.8</ele>
        <time>2021-08-12T14:36:09Z</time>
      </trkpt>
      <trkpt lat="47.16831" lon="6.82613">
        <ele>949.9</ele>
        <time>2021-08-12T14:36:11Z</time>
      </trkpt>
      <trkpt lat="47.16826" lon="6.82626">
        <ele>948.6</ele>
        <time>2021-08-12T14:36:12Z</time>
      </trkpt>
      <trkpt lat="47.16822" lon="6.82635">
        <ele>947.8</ele>
        <time>2021-08-12T14:36:13Z</time>
      </trkpt>
      <trkpt lat="47.16819" lon="6.8264">
        <ele>947.2</ele>
        <time>2021-08-12T14:36:15Z</time>
      </trkpt>
      <trkpt lat="47.16815" lon="6.82642">
        <ele>946.8</ele>
        <time>2021-08-12T14:36:16Z</time>
      </trkpt>
      <trkpt lat="47.1681" lon="6.82642">
        <ele>946.3</ele>
        <time>2021-08-12T14:36:18Z</time>
      </trkpt>
      <trkpt lat="47.16809" lon="6.82642">
        <ele>946.1</ele>
        <time>2021-08-12T14:36:19Z</time>
      </trkpt>
      <trkpt lat="47.16808" lon="6.82642">
        <ele>946</ele>
        <time>2021-08-12T14:36:20Z</time>
      </trkpt>
      <trkpt lat="47.16806" lon="6.8264">
        <ele>945.8</ele>
        <time>2021-08-12T14:36:21Z</time>
      </trkpt>
      <trkpt lat="47.16804" lon="6.82634">
        <ele>945.2</ele>
        <time>2021-08-12T14:36:23Z</time>
      </trkpt>
      <trkpt lat="47.16803" lon="6.8263">
        <ele>944.4</ele>
        <time>2021-08-12T14:36:24Z</time>
      </trkpt>
      <trkpt lat="47.16801" lon="6.82626">
        <ele>944.3</ele>
        <time>2021-08-12T14:36:25Z</time>
      </trkpt>
      <trkpt lat="47.16799" lon="6.82622">
        <ele>944.2</ele>
        <time>2021-08-12T14:36:26Z</time>
      </trkpt>
      <trkpt lat="47.16794" lon="6.82613">
        <ele>944</ele>
        <time>2021-08-12T14:36:28Z</time>
      </trkpt>
      <trkpt lat="47.1679" lon="6.82606">
        <ele>943.8</ele>
        <time>2021-08-12T14:36:29Z</time>
      </trkpt>
      <trkpt lat="47.16786" lon="6.82602">
        <ele>943.6</ele>
        <time>2021-08-12T14:36:30Z</time>
      </trkpt>
      <trkpt lat="47.16777" lon="6.82593">
        <ele>942.9</ele>
        <time>2021-08-12T14:36:32Z</time>
      </trkpt>
      <trkpt lat="47.16767" lon="6.82585">
        <ele>942.1</ele>
        <time>2021-08-12T14:36:34Z</time>
      </trkpt>
      <trkpt lat="47.16761" lon="6.82582">
        <ele>941.7</ele>
        <time>2021-08-12T14:36:35Z</time>
      </trkpt>
      <trkpt lat="47.16749" lon="6.82584">
        <ele>940.7</ele>
        <time>2021-08-12T14:36:37Z</time>
      </trkpt>
      <trkpt lat="47.16735" lon="6.82592">
        <ele>939.5</ele>
        <time>2021-08-12T14:36:39Z</time>
      </trkpt>
      <trkpt lat="47.16721" lon="6.82603">
        <ele>938.5</ele>
        <time>2021-08-12T14:36:41Z</time>
      </trkpt>
      <trkpt lat="47.16715" lon="6.82612">
        <ele>938</ele>
        <time>2021-08-12T14:36:42Z</time>
      </trkpt>
      <trkpt lat="47.16709" lon="6.82632">
        <ele>937.2</ele>
        <time>2021-08-12T14:36:44Z</time>
      </trkpt>
      <trkpt lat="47.16711" lon="6.82657">
        <ele>936.4</ele>
        <time>2021-08-12T14:36:46Z</time>
      </trkpt>
      <trkpt lat="47.16713" lon="6.8267">
        <ele>936</ele>
        <time>2021-08-12T14:36:47Z</time>
      </trkpt>
      <trkpt lat="47.16718" lon="6.82681">
        <ele>935.7</ele>
        <time>2021-08-12T14:36:48Z</time>
      </trkpt>
      <trkpt lat="47.16734" lon="6.827">
        <ele>934.8</ele>
        <time>2021-08-12T14:36:50Z</time>
      </trkpt>
      <trkpt lat="47.16742" lon="6.82708">
        <ele>934.3</ele>
        <time>2021-08-12T14:36:51Z</time>
      </trkpt>
      <trkpt lat="47.16749" lon="6.82715">
        <ele>933.9</ele>
        <time>2021-08-12T14:36:52Z</time>
      </trkpt>
      <trkpt lat="47.16764" lon="6.82729">
        <ele>933.2</ele>
        <time>2021-08-12T14:36:54Z</time>
      </trkpt>
      <trkpt lat="47.16771" lon="6.82736">
        <ele>932.8</ele>
        <time>2021-08-12T14:36:55Z</time>
      </trkpt>
      <trkpt lat="47.16778" lon="6.82743">
        <ele>932.4</ele>
        <time>2021-08-12T14:36:56Z</time>
      </trkpt>
      <trkpt lat="47.16791" lon="6.82758">
        <ele>931.7</ele>
        <time>2021-08-12T14:36:58Z</time>
      </trkpt>
      <trkpt lat="47.16797" lon="6.82766">
        <ele>931.3</ele>
        <time>2021-08-12T14:36:59Z</time>
      </trkpt>
      <trkpt lat="47.16808" lon="6.82781">
        <ele>930.5</ele>
        <time>2021-08-12T14:37:01Z</time>
      </trkpt>
      <trkpt lat="47.16812" lon="6.8279">
        <ele>930.1</ele>
        <time>2021-08-12T14:37:02Z</time>
      </trkpt>
      <trkpt lat="47.16821" lon="6.82808">
        <ele>929.1</ele>
        <time>2021-08-12T14:37:04Z</time>
      </trkpt>
      <trkpt lat="47.16822" lon="6.82832">
        <ele>928</ele>
        <time>2021-08-12T14:37:06Z</time>
      </trkpt>
      <trkpt lat="47.16812" lon="6.82853">
        <ele>926.9</ele>
        <time>2021-08-12T14:37:08Z</time>
      </trkpt>
      <trkpt lat="47.16801" lon="6.82867">
        <ele>926</ele>
        <time>2021-08-12T14:37:10Z</time>
      </trkpt>
      <trkpt lat="47.16792" lon="6.82872">
        <ele>925.5</ele>
        <time>2021-08-12T14:37:12Z</time>
      </trkpt>
      <trkpt lat="47.1679" lon="6.82869">
        <ele>925.3</ele>
        <time>2021-08-12T14:37:13Z</time>
      </trkpt>
      <trkpt lat="47.16777" lon="6.82858">
        <ele>924.5</ele>
        <time>2021-08-12T14:37:15Z</time>
      </trkpt>
      <trkpt lat="47.16765" lon="6.82843">
        <ele>923.8</ele>
        <time>2021-08-12T14:37:16Z</time>
      </trkpt>
      <trkpt lat="47.16749" lon="6.82822">
        <ele>922.8</ele>
        <time>2021-08-12T14:37:17Z</time>
      </trkpt>
      <trkpt lat="47.16722" lon="6.82793">
        <ele>921.2</ele>
        <time>2021-08-12T14:37:19Z</time>
      </trkpt>
      <trkpt lat="47.16712" lon="6.82783">
        <ele>920.6</ele>
        <time>2021-08-12T14:37:20Z</time>
      </trkpt>
      <trkpt lat="47.16695" lon="6.82767">
        <ele>919.5</ele>
        <time>2021-08-12T14:37:22Z</time>
      </trkpt>
      <trkpt lat="47.16682" lon="6.82751">
        <ele>918.7</ele>
        <time>2021-08-12T14:37:24Z</time>
      </trkpt>
      <trkpt lat="47.16668" lon="6.82739">
        <ele>917.8</ele>
        <time>2021-08-12T14:37:26Z</time>
      </trkpt>
      <trkpt lat="47.16644" lon="6.82747">
        <ele>917</ele>
        <time>2021-08-12T14:37:28Z</time>
      </trkpt>
      <trkpt lat="47.16633" lon="6.82751">
        <ele>916.8</ele>
        <time>2021-08-12T14:37:29Z</time>
      </trkpt>
      <trkpt lat="47.16625" lon="6.82754">
        <ele>916.6</ele>
        <time>2021-08-12T14:37:30Z</time>
      </trkpt>
      <trkpt lat="47.16616" lon="6.82771">
        <ele>916.5</ele>
        <time>2021-08-12T14:37:32Z</time>
      </trkpt>
      <trkpt lat="47.16618" lon="6.82785">
        <ele>916.4</ele>
        <time>2021-08-12T14:37:34Z</time>
      </trkpt>
      <trkpt lat="47.16619" lon="6.82793">
        <ele>916.4</ele>
        <time>2021-08-12T14:37:35Z</time>
      </trkpt>
      <trkpt lat="47.16621" lon="6.82804">
        <ele>916.4</ele>
        <time>2021-08-12T14:37:36Z</time>
      </trkpt>
      <trkpt lat="47.16633" lon="6.82823">
        <ele>916.5</ele>
        <time>2021-08-12T14:37:38Z</time>
      </trkpt>
      <trkpt lat="47.16642" lon="6.82836">
        <ele>916.6</ele>
        <time>2021-08-12T14:37:39Z</time>
      </trkpt>
      <trkpt lat="47.16652" lon="6.82855">
        <ele>916.5</ele>
        <time>2021-08-12T14:37:41Z</time>
      </trkpt>
      <trkpt lat="47.16654" lon="6.82859">
        <ele>916.4</ele>
        <time>2021-08-12T14:37:42Z</time>
      </trkpt>
      <trkpt lat="47.16655" lon="6.82861">
        <ele>916.4</ele>
        <time>2021-08-12T14:37:43Z</time>
      </trkpt>
      <trkpt lat="47.16655" lon="6.8286">
        <ele>916.5</ele>
        <time>2021-08-12T14:37:44Z</time>
      </trkpt>
      <trkpt lat="47.16655" lon="6.82859">
        <ele>916.5</ele>
        <time>2021-08-12T14:37:46Z</time>
      </trkpt>
      <trkpt lat="47.16655" lon="6.82858">
        <ele>916.5</ele>
        <time>2021-08-12T14:37:47Z</time>
      </trkpt>
      <trkpt lat="47.16655" lon="6.82858">
        <ele>916.5</ele>
        <time>2021-08-12T14:37:48Z</time>
      </trkpt>
      <trkpt lat="47.16655" lon="6.82858">
        <ele>916.5</ele>
        <time>2021-08-12T14:37:49Z</time>
      </trkpt>
      <trkpt lat="47.16655" lon="6.82859">
        <ele>916.5</ele>
        <time>2021-08-12T14:37:51Z</time>
      </trkpt>
      <trkpt lat="47.16656" lon="6.82859">
        <ele>916.5</ele>
        <time>2021-08-12T14:37:53Z</time>
      </trkpt>
      <trkpt lat="47.16652" lon="6.82847">
        <ele>916.5</ele>
        <time>2021-08-12T14:38:25Z</time>
      </trkpt>
      <trkpt lat="47.16648" lon="6.82837">
        <ele>916.6</ele>
        <time>2021-08-12T14:38:27Z</time>
      </trkpt>
      <trkpt lat="47.16646" lon="6.82832">
        <ele>916.6</ele>
        <time>2021-08-12T14:38:28Z</time>
      </trkpt>
      <trkpt lat="47.16644" lon="6.82826">
        <ele>916.5</ele>
        <time>2021-08-12T14:38:29Z</time>
      </trkpt>
      <trkpt lat="47.16639" lon="6.82813">
        <ele>916.5</ele>
        <time>2021-08-12T14:38:31Z</time>
      </trkpt>
      <trkpt lat="47.16637" lon="6.82809">
        <ele>916.4</ele>
        <time>2021-08-12T14:38:32Z</time>
      </trkpt>
      <trkpt lat="47.16632" lon="6.828">
        <ele>916.4</ele>
        <time>2021-08-12T14:38:34Z</time>
      </trkpt>
      <trkpt lat="47.1663" lon="6.82797">
        <ele>916.4</ele>
        <time>2021-08-12T14:38:35Z</time>
      </trkpt>
      <trkpt lat="47.16628" lon="6.82794">
        <ele>916.4</ele>
        <time>2021-08-12T14:38:36Z</time>
      </trkpt>
      <trkpt lat="47.16626" lon="6.8279">
        <ele>916.1</ele>
        <time>2021-08-12T14:38:38Z</time>
      </trkpt>
      <trkpt lat="47.16623" lon="6.82788">
        <ele>915.8</ele>
        <time>2021-08-12T14:38:39Z</time>
      </trkpt>
      <trkpt lat="47.1662" lon="6.82784">
        <ele>915.5</ele>
        <time>2021-08-12T14:38:40Z</time>
      </trkpt>
      <trkpt lat="47.16613" lon="6.82779">
        <ele>914.8</ele>
        <time>2021-08-12T14:38:42Z</time>
      </trkpt>
      <trkpt lat="47.16607" lon="6.82781">
        <ele>914.1</ele>
        <time>2021-08-12T14:38:43Z</time>
      </trkpt>
      <trkpt lat="47.16596" lon="6.82786">
        <ele>913.2</ele>
        <time>2021-08-12T14:38:45Z</time>
      </trkpt>
      <trkpt lat="47.1659" lon="6.82789">
        <ele>912.7</ele>
        <time>2021-08-12T14:38:46Z</time>
      </trkpt>
      <trkpt lat="47.16584" lon="6.82793">
        <ele>912.2</ele>
        <time>2021-08-12T14:38:47Z</time>
      </trkpt>
      <trkpt lat="47.16577" lon="6.82796">
        <ele>911.6</ele>
        <time>2021-08-12T14:38:48Z</time>
      </trkpt>
      <trkpt lat="47.16564" lon="6.82805">
        <ele>910.4</ele>
        <time>2021-08-12T14:38:50Z</time>
      </trkpt>
      <trkpt lat="47.16556" lon="6.8281">
        <ele>909.7</ele>
        <time>2021-08-12T14:38:51Z</time>
      </trkpt>
      <trkpt lat="47.1654" lon="6.8282">
        <ele>908.3</ele>
        <time>2021-08-12T14:38:53Z</time>
      </trkpt>
      <trkpt lat="47.16532" lon="6.82825">
        <ele>907.8</ele>
        <time>2021-08-12T14:38:54Z</time>
      </trkpt>
      <trkpt lat="47.16524" lon="6.82831">
        <ele>907.2</ele>
        <time>2021-08-12T14:38:55Z</time>
      </trkpt>
      <trkpt lat="47.16506" lon="6.82843">
        <ele>906.1</ele>
        <time>2021-08-12T14:38:57Z</time>
      </trkpt>
      <trkpt lat="47.16498" lon="6.82848">
        <ele>905.6</ele>
        <time>2021-08-12T14:38:58Z</time>
      </trkpt>
      <trkpt lat="47.16489" lon="6.82853">
        <ele>905.2</ele>
        <time>2021-08-12T14:38:59Z</time>
      </trkpt>
      <trkpt lat="47.1648" lon="6.82858">
        <ele>904.8</ele>
        <time>2021-08-12T14:39:00Z</time>
      </trkpt>
      <trkpt lat="47.16461" lon="6.82865">
        <ele>904.1</ele>
        <time>2021-08-12T14:39:02Z</time>
      </trkpt>
      <trkpt lat="47.16443" lon="6.82868">
        <ele>903.7</ele>
        <time>2021-08-12T14:39:04Z</time>
      </trkpt>
      <trkpt lat="47.16427" lon="6.82865">
        <ele>903.5</ele>
        <time>2021-08-12T14:39:06Z</time>
      </trkpt>
      <trkpt lat="47.16412" lon="6.82854">
        <ele>903.3</ele>
        <time>2021-08-12T14:39:08Z</time>
      </trkpt>
      <trkpt lat="47.16397" lon="6.82843">
        <ele>903.1</ele>
        <time>2021-08-12T14:39:10Z</time>
      </trkpt>
      <trkpt lat="47.16391" lon="6.82839">
        <ele>903.1</ele>
        <time>2021-08-12T14:39:11Z</time>
      </trkpt>
      <trkpt lat="47.16384" lon="6.82835">
        <ele>903</ele>
        <time>2021-08-12T14:39:12Z</time>
      </trkpt>
      <trkpt lat="47.16378" lon="6.82833">
        <ele>903</ele>
        <time>2021-08-12T14:39:13Z</time>
      </trkpt>
      <trkpt lat="47.16365" lon="6.82833">
        <ele>902.9</ele>
        <time>2021-08-12T14:39:15Z</time>
      </trkpt>
      <trkpt lat="47.1636" lon="6.82834">
        <ele>902.9</ele>
        <time>2021-08-12T14:39:16Z</time>
      </trkpt>
      <trkpt lat="47.16354" lon="6.82837">
        <ele>902.9</ele>
        <time>2021-08-12T14:39:17Z</time>
      </trkpt>
      <trkpt lat="47.16349" lon="6.82839">
        <ele>902.9</ele>
        <time>2021-08-12T14:39:18Z</time>
      </trkpt>
      <trkpt lat="47.16339" lon="6.82847">
        <ele>902.9</ele>
        <time>2021-08-12T14:39:20Z</time>
      </trkpt>
      <trkpt lat="47.16335" lon="6.82851">
        <ele>903</ele>
        <time>2021-08-12T14:39:21Z</time>
      </trkpt>
      <trkpt lat="47.16326" lon="6.82861">
        <ele>903.1</ele>
        <time>2021-08-12T14:39:23Z</time>
      </trkpt>
      <trkpt lat="47.16323" lon="6.82866">
        <ele>903.2</ele>
        <time>2021-08-12T14:39:24Z</time>
      </trkpt>
      <trkpt lat="47.16316" lon="6.82875">
        <ele>903.4</ele>
        <time>2021-08-12T14:39:26Z</time>
      </trkpt>
      <trkpt lat="47.1631" lon="6.82881">
        <ele>903.6</ele>
        <time>2021-08-12T14:39:28Z</time>
      </trkpt>
      <trkpt lat="47.16303" lon="6.82888">
        <ele>903.9</ele>
        <time>2021-08-12T14:39:30Z</time>
      </trkpt>
      <trkpt lat="47.16299" lon="6.82892">
        <ele>904.1</ele>
        <time>2021-08-12T14:39:32Z</time>
      </trkpt>
      <trkpt lat="47.16296" lon="6.82894">
        <ele>904.3</ele>
        <time>2021-08-12T14:39:33Z</time>
      </trkpt>
      <trkpt lat="47.16293" lon="6.82897">
        <ele>904.4</ele>
        <time>2021-08-12T14:39:34Z</time>
      </trkpt>
      <trkpt lat="47.16292" lon="6.829">
        <ele>904.5</ele>
        <time>2021-08-12T14:39:35Z</time>
      </trkpt>
      <trkpt lat="47.16287" lon="6.82905">
        <ele>904.8</ele>
        <time>2021-08-12T14:39:37Z</time>
      </trkpt>
      <trkpt lat="47.16284" lon="6.82906">
        <ele>905</ele>
        <time>2021-08-12T14:39:38Z</time>
      </trkpt>
      <trkpt lat="47.1628" lon="6.82908">
        <ele>905.3</ele>
        <time>2021-08-12T14:39:39Z</time>
      </trkpt>
      <trkpt lat="47.16277" lon="6.82911">
        <ele>905.5</ele>
        <time>2021-08-12T14:39:41Z</time>
      </trkpt>
      <trkpt lat="47.16276" lon="6.82913">
        <ele>905.6</ele>
        <time>2021-08-12T14:39:42Z</time>
      </trkpt>
      <trkpt lat="47.16272" lon="6.82917">
        <ele>906</ele>
        <time>2021-08-12T14:39:44Z</time>
      </trkpt>
      <trkpt lat="47.16268" lon="6.8292">
        <ele>906.3</ele>
        <time>2021-08-12T14:39:46Z</time>
      </trkpt>
      <trkpt lat="47.16265" lon="6.82923">
        <ele>906.6</ele>
        <time>2021-08-12T14:39:47Z</time>
      </trkpt>
      <trkpt lat="47.16263" lon="6.82927">
        <ele>906.8</ele>
        <time>2021-08-12T14:39:48Z</time>
      </trkpt>
      <trkpt lat="47.16262" lon="6.8293">
        <ele>907.1</ele>
        <time>2021-08-12T14:39:50Z</time>
      </trkpt>
      <trkpt lat="47.1626" lon="6.82933">
        <ele>907.3</ele>
        <time>2021-08-12T14:39:51Z</time>
      </trkpt>
      <trkpt lat="47.16258" lon="6.82935">
        <ele>907.5</ele>
        <time>2021-08-12T14:39:52Z</time>
      </trkpt>
      <trkpt lat="47.16256" lon="6.82937">
        <ele>907.8</ele>
        <time>2021-08-12T14:39:54Z</time>
      </trkpt>
      <trkpt lat="47.16253" lon="6.82941">
        <ele>908.2</ele>
        <time>2021-08-12T14:39:55Z</time>
      </trkpt>
      <trkpt lat="47.16252" lon="6.82943">
        <ele>908.4</ele>
        <time>2021-08-12T14:39:57Z</time>
      </trkpt>
      <trkpt lat="47.1625" lon="6.82945">
        <ele>908.6</ele>
        <time>2021-08-12T14:39:59Z</time>
      </trkpt>
      <trkpt lat="47.16249" lon="6.82947">
        <ele>908.8</ele>
        <time>2021-08-12T14:40:00Z</time>
      </trkpt>
      <trkpt lat="47.16247" lon="6.82952">
        <ele>909.2</ele>
        <time>2021-08-12T14:40:02Z</time>
      </trkpt>
      <trkpt lat="47.16246" lon="6.82957">
        <ele>909.6</ele>
        <time>2021-08-12T14:40:04Z</time>
      </trkpt>
      <trkpt lat="47.16246" lon="6.82958">
        <ele>909.7</ele>
        <time>2021-08-12T14:40:05Z</time>
      </trkpt>
      <trkpt lat="47.16244" lon="6.8296">
        <ele>909.8</ele>
        <time>2021-08-12T14:40:06Z</time>
      </trkpt>
      <trkpt lat="47.16244" lon="6.8296">
        <ele>909.9</ele>
        <time>2021-08-12T14:40:07Z</time>
      </trkpt>
      <trkpt lat="47.16244" lon="6.8296">
        <ele>909.9</ele>
        <time>2021-08-12T14:40:08Z</time>
      </trkpt>
      <trkpt lat="47.16242" lon="6.82962">
        <ele>910.1</ele>
        <time>2021-08-12T14:40:10Z</time>
      </trkpt>
      <trkpt lat="47.16241" lon="6.82964">
        <ele>910.3</ele>
        <time>2021-08-12T14:40:11Z</time>
      </trkpt>
      <trkpt lat="47.1624" lon="6.82965">
        <ele>910.5</ele>
        <time>2021-08-12T14:40:12Z</time>
      </trkpt>
      <trkpt lat="47.16238" lon="6.82967">
        <ele>910.6</ele>
        <time>2021-08-12T14:40:13Z</time>
      </trkpt>
      <trkpt lat="47.16237" lon="6.82968">
        <ele>910.7</ele>
        <time>2021-08-12T14:40:14Z</time>
      </trkpt>
      <trkpt lat="47.16236" lon="6.82969">
        <ele>910.8</ele>
        <time>2021-08-12T14:40:16Z</time>
      </trkpt>
      <trkpt lat="47.16236" lon="6.8297">
        <ele>910.9</ele>
        <time>2021-08-12T14:40:17Z</time>
      </trkpt>
      <trkpt lat="47.16235" lon="6.82971">
        <ele>911.1</ele>
        <time>2021-08-12T14:40:19Z</time>
      </trkpt>
      <trkpt lat="47.16234" lon="6.82973">
        <ele>911.2</ele>
        <time>2021-08-12T14:40:20Z</time>
      </trkpt>
      <trkpt lat="47.16232" lon="6.82976">
        <ele>911.4</ele>
        <time>2021-08-12T14:40:22Z</time>
      </trkpt>
      <trkpt lat="47.16232" lon="6.82977">
        <ele>911.5</ele>
        <time>2021-08-12T14:40:23Z</time>
      </trkpt>
      <trkpt lat="47.1623" lon="6.82981">
        <ele>911.9</ele>
        <time>2021-08-12T14:40:25Z</time>
      </trkpt>
      <trkpt lat="47.16227" lon="6.82985">
        <ele>912.3</ele>
        <time>2021-08-12T14:40:26Z</time>
      </trkpt>
      <trkpt lat="47.16226" lon="6.82987">
        <ele>912.4</ele>
        <time>2021-08-12T14:40:27Z</time>
      </trkpt>
      <trkpt lat="47.16224" lon="6.82989">
        <ele>912.6</ele>
        <time>2021-08-12T14:40:28Z</time>
      </trkpt>
      <trkpt lat="47.16222" lon="6.8299">
        <ele>912.8</ele>
        <time>2021-08-12T14:40:30Z</time>
      </trkpt>
      <trkpt lat="47.1622" lon="6.82994">
        <ele>913.1</ele>
        <time>2021-08-12T14:40:31Z</time>
      </trkpt>
      <trkpt lat="47.16219" lon="6.82995">
        <ele>913.2</ele>
        <time>2021-08-12T14:40:32Z</time>
      </trkpt>
      <trkpt lat="47.16218" lon="6.82997">
        <ele>913.3</ele>
        <time>2021-08-12T14:40:33Z</time>
      </trkpt>
      <trkpt lat="47.16218" lon="6.82998">
        <ele>913.4</ele>
        <time>2021-08-12T14:40:34Z</time>
      </trkpt>
      <trkpt lat="47.16217" lon="6.82999">
        <ele>913.5</ele>
        <time>2021-08-12T14:40:35Z</time>
      </trkpt>
      <trkpt lat="47.16216" lon="6.83">
        <ele>913.6</ele>
        <time>2021-08-12T14:40:36Z</time>
      </trkpt>
      <trkpt lat="47.16215" lon="6.83001">
        <ele>913.7</ele>
        <time>2021-08-12T14:40:37Z</time>
      </trkpt>
      <trkpt lat="47.16214" lon="6.83001">
        <ele>913.8</ele>
        <time>2021-08-12T14:40:38Z</time>
      </trkpt>
      <trkpt lat="47.16212" lon="6.83003">
        <ele>914</ele>
        <time>2021-08-12T14:40:39Z</time>
      </trkpt>
      <trkpt lat="47.1621" lon="6.83006">
        <ele>914.2</ele>
        <time>2021-08-12T14:40:41Z</time>
      </trkpt>
      <trkpt lat="47.16208" lon="6.83009">
        <ele>914.5</ele>
        <time>2021-08-12T14:40:42Z</time>
      </trkpt>
      <trkpt lat="47.16208" lon="6.83011">
        <ele>914.6</ele>
        <time>2021-08-12T14:40:43Z</time>
      </trkpt>
      <trkpt lat="47.16207" lon="6.83012">
        <ele>914.7</ele>
        <time>2021-08-12T14:40:44Z</time>
      </trkpt>
      <trkpt lat="47.16206" lon="6.83012">
        <ele>914.8</ele>
        <time>2021-08-12T14:40:45Z</time>
      </trkpt>
      <trkpt lat="47.16205" lon="6.83014">
        <ele>914.9</ele>
        <time>2021-08-12T14:40:46Z</time>
      </trkpt>
      <trkpt lat="47.16203" lon="6.83016">
        <ele>915.1</ele>
        <time>2021-08-12T14:40:47Z</time>
      </trkpt>
      <trkpt lat="47.16202" lon="6.83017">
        <ele>915.2</ele>
        <time>2021-08-12T14:40:48Z</time>
      </trkpt>
      <trkpt lat="47.16201" lon="6.83019">
        <ele>915.4</ele>
        <time>2021-08-12T14:40:49Z</time>
      </trkpt>
      <trkpt lat="47.162" lon="6.8302">
        <ele>915.5</ele>
        <time>2021-08-12T14:40:51Z</time>
      </trkpt>
      <trkpt lat="47.16199" lon="6.8302">
        <ele>915.5</ele>
        <time>2021-08-12T14:40:52Z</time>
      </trkpt>
      <trkpt lat="47.16199" lon="6.83021">
        <ele>915.6</ele>
        <time>2021-08-12T14:40:53Z</time>
      </trkpt>
      <trkpt lat="47.16198" lon="6.83022">
        <ele>915.6</ele>
        <time>2021-08-12T14:40:54Z</time>
      </trkpt>
      <trkpt lat="47.16198" lon="6.83023">
        <ele>915.7</ele>
        <time>2021-08-12T14:40:55Z</time>
      </trkpt>
      <trkpt lat="47.16196" lon="6.83024">
        <ele>915.9</ele>
        <time>2021-08-12T14:40:57Z</time>
      </trkpt>
      <trkpt lat="47.16194" lon="6.83027">
        <ele>916.1</ele>
        <time>2021-08-12T14:40:59Z</time>
      </trkpt>
      <trkpt lat="47.16192" lon="6.83028">
        <ele>916.2</ele>
        <time>2021-08-12T14:41:00Z</time>
      </trkpt>
      <trkpt lat="47.16191" lon="6.83029">
        <ele>916.3</ele>
        <time>2021-08-12T14:41:01Z</time>
      </trkpt>
      <trkpt lat="47.1619" lon="6.8303">
        <ele>916.4</ele>
        <time>2021-08-12T14:41:02Z</time>
      </trkpt>
      <trkpt lat="47.16188" lon="6.83031">
        <ele>916.6</ele>
        <time>2021-08-12T14:41:04Z</time>
      </trkpt>
      <trkpt lat="47.16185" lon="6.83033">
        <ele>916.8</ele>
        <time>2021-08-12T14:41:05Z</time>
      </trkpt>
      <trkpt lat="47.16184" lon="6.83033">
        <ele>916.9</ele>
        <time>2021-08-12T14:41:06Z</time>
      </trkpt>
      <trkpt lat="47.16181" lon="6.83035">
        <ele>917.2</ele>
        <time>2021-08-12T14:41:07Z</time>
      </trkpt>
      <trkpt lat="47.1618" lon="6.83036">
        <ele>917.2</ele>
        <time>2021-08-12T14:41:08Z</time>
      </trkpt>
      <trkpt lat="47.16176" lon="6.83038">
        <ele>917.5</ele>
        <time>2021-08-12T14:41:10Z</time>
      </trkpt>
      <trkpt lat="47.16172" lon="6.8304">
        <ele>917.8</ele>
        <time>2021-08-12T14:41:12Z</time>
      </trkpt>
      <trkpt lat="47.1617" lon="6.83043">
        <ele>917.9</ele>
        <time>2021-08-12T14:41:13Z</time>
      </trkpt>
      <trkpt lat="47.16169" lon="6.83043">
        <ele>918</ele>
        <time>2021-08-12T14:41:14Z</time>
      </trkpt>
      <trkpt lat="47.16167" lon="6.83045">
        <ele>918.1</ele>
        <time>2021-08-12T14:41:15Z</time>
      </trkpt>
      <trkpt lat="47.16166" lon="6.83046">
        <ele>918.2</ele>
        <time>2021-08-12T14:41:16Z</time>
      </trkpt>
      <trkpt lat="47.16165" lon="6.83047">
        <ele>918.2</ele>
        <time>2021-08-12T14:41:17Z</time>
      </trkpt>
      <trkpt lat="47.16164" lon="6.83048">
        <ele>918.3</ele>
        <time>2021-08-12T14:41:18Z</time>
      </trkpt>
      <trkpt lat="47.16161" lon="6.83049">
        <ele>918.4</ele>
        <time>2021-08-12T14:41:20Z</time>
      </trkpt>
      <trkpt lat="47.16161" lon="6.83049">
        <ele>918.4</ele>
        <time>2021-08-12T14:41:21Z</time>
      </trkpt>
      <trkpt lat="47.16161" lon="6.83051">
        <ele>918.4</ele>
        <time>2021-08-12T14:41:22Z</time>
      </trkpt>
      <trkpt lat="47.16161" lon="6.83051">
        <ele>918.4</ele>
        <time>2021-08-12T14:41:24Z</time>
      </trkpt>
      <trkpt lat="47.1616" lon="6.83052">
        <ele>918.5</ele>
        <time>2021-08-12T14:41:26Z</time>
      </trkpt>
      <trkpt lat="47.1616" lon="6.83053">
        <ele>918.5</ele>
        <time>2021-08-12T14:41:27Z</time>
      </trkpt>
      <trkpt lat="47.16159" lon="6.83054">
        <ele>918.5</ele>
        <time>2021-08-12T14:41:28Z</time>
      </trkpt>
      <trkpt lat="47.1615" lon="6.83067">
        <ele>918.5</ele>
        <time>2021-08-12T14:41:36Z</time>
      </trkpt>
      <trkpt lat="47.16145" lon="6.83072">
        <ele>918.4</ele>
        <time>2021-08-12T14:41:37Z</time>
      </trkpt>
      <trkpt lat="47.16139" lon="6.83076">
        <ele>918.2</ele>
        <time>2021-08-12T14:41:38Z</time>
      </trkpt>
      <trkpt lat="47.16134" lon="6.83081">
        <ele>917.9</ele>
        <time>2021-08-12T14:41:40Z</time>
      </trkpt>
      <trkpt lat="47.16127" lon="6.83083">
        <ele>917.5</ele>
        <time>2021-08-12T14:41:41Z</time>
      </trkpt>
      <trkpt lat="47.16124" lon="6.83084">
        <ele>917.2</ele>
        <time>2021-08-12T14:41:42Z</time>
      </trkpt>
      <trkpt lat="47.16119" lon="6.83086">
        <ele>916.8</ele>
        <time>2021-08-12T14:41:43Z</time>
      </trkpt>
      <trkpt lat="47.16107" lon="6.831">
        <ele>915.3</ele>
        <time>2021-08-12T14:41:45Z</time>
      </trkpt>
      <trkpt lat="47.16094" lon="6.83108">
        <ele>913.9</ele>
        <time>2021-08-12T14:41:47Z</time>
      </trkpt>
      <trkpt lat="47.16079" lon="6.83111">
        <ele>912.5</ele>
        <time>2021-08-12T14:41:49Z</time>
      </trkpt>
      <trkpt lat="47.1607" lon="6.83111">
        <ele>912</ele>
        <time>2021-08-12T14:41:50Z</time>
      </trkpt>
      <trkpt lat="47.16053" lon="6.8311">
        <ele>911.3</ele>
        <time>2021-08-12T14:41:52Z</time>
      </trkpt>
      <trkpt lat="47.16044" lon="6.83111">
        <ele>911.2</ele>
        <time>2021-08-12T14:41:53Z</time>
      </trkpt>
      <trkpt lat="47.16027" lon="6.83111">
        <ele>911.4</ele>
        <time>2021-08-12T14:41:55Z</time>
      </trkpt>
      <trkpt lat="47.1602" lon="6.83111">
        <ele>911.6</ele>
        <time>2021-08-12T14:41:56Z</time>
      </trkpt>
      <trkpt lat="47.16006" lon="6.83111">
        <ele>912.2</ele>
        <time>2021-08-12T14:41:58Z</time>
      </trkpt>
      <trkpt lat="47.16" lon="6.83111">
        <ele>912.5</ele>
        <time>2021-08-12T14:41:59Z</time>
      </trkpt>
      <trkpt lat="47.15991" lon="6.83111">
        <ele>912.9</ele>
        <time>2021-08-12T14:42:01Z</time>
      </trkpt>
      <trkpt lat="47.15986" lon="6.83112">
        <ele>913.1</ele>
        <time>2021-08-12T14:42:02Z</time>
      </trkpt>
      <trkpt lat="47.15979" lon="6.83113">
        <ele>913.2</ele>
        <time>2021-08-12T14:42:04Z</time>
      </trkpt>
      <trkpt lat="47.15972" lon="6.83117">
        <ele>913.2</ele>
        <time>2021-08-12T14:42:06Z</time>
      </trkpt>
      <trkpt lat="47.15966" lon="6.83121">
        <ele>913.2</ele>
        <time>2021-08-12T14:42:07Z</time>
      </trkpt>
      <trkpt lat="47.15963" lon="6.8312">
        <ele>913.2</ele>
        <time>2021-08-12T14:42:08Z</time>
      </trkpt>
      <trkpt lat="47.15954" lon="6.8312">
        <ele>912.8</ele>
        <time>2021-08-12T14:42:10Z</time>
      </trkpt>
      <trkpt lat="47.15948" lon="6.8312">
        <ele>912.6</ele>
        <time>2021-08-12T14:42:11Z</time>
      </trkpt>
      <trkpt lat="47.15942" lon="6.8312">
        <ele>912.2</ele>
        <time>2021-08-12T14:42:12Z</time>
      </trkpt>
      <trkpt lat="47.15928" lon="6.83122">
        <ele>911.3</ele>
        <time>2021-08-12T14:42:14Z</time>
      </trkpt>
      <trkpt lat="47.15909" lon="6.83118">
        <ele>910.2</ele>
        <time>2021-08-12T14:42:16Z</time>
      </trkpt>
      <trkpt lat="47.15897" lon="6.83114">
        <ele>909.5</ele>
        <time>2021-08-12T14:42:17Z</time>
      </trkpt>
      <trkpt lat="47.15884" lon="6.83111">
        <ele>909</ele>
        <time>2021-08-12T14:42:18Z</time>
      </trkpt>
      <trkpt lat="47.15873" lon="6.83109">
        <ele>908.7</ele>
        <time>2021-08-12T14:42:19Z</time>
      </trkpt>
      <trkpt lat="47.15864" lon="6.83106">
        <ele>908.6</ele>
        <time>2021-08-12T14:42:20Z</time>
      </trkpt>
      <trkpt lat="47.15847" lon="6.831">
        <ele>908.6</ele>
        <time>2021-08-12T14:42:22Z</time>
      </trkpt>
      <trkpt lat="47.15831" lon="6.83091">
        <ele>908.8</ele>
        <time>2021-08-12T14:42:24Z</time>
      </trkpt>
      <trkpt lat="47.15816" lon="6.83084">
        <ele>909.4</ele>
        <time>2021-08-12T14:42:26Z</time>
      </trkpt>
      <trkpt lat="47.15801" lon="6.83079">
        <ele>910.3</ele>
        <time>2021-08-12T14:42:28Z</time>
      </trkpt>
      <trkpt lat="47.15794" lon="6.83075">
        <ele>910.8</ele>
        <time>2021-08-12T14:42:29Z</time>
      </trkpt>
      <trkpt lat="47.15786" lon="6.8307">
        <ele>911.3</ele>
        <time>2021-08-12T14:42:30Z</time>
      </trkpt>
      <trkpt lat="47.15775" lon="6.8306">
        <ele>912.2</ele>
        <time>2021-08-12T14:42:32Z</time>
      </trkpt>
      <trkpt lat="47.15768" lon="6.83047">
        <ele>913</ele>
        <time>2021-08-12T14:42:34Z</time>
      </trkpt>
      <trkpt lat="47.15766" lon="6.83043">
        <ele>913.3</ele>
        <time>2021-08-12T14:42:35Z</time>
      </trkpt>
      <trkpt lat="47.15763" lon="6.83039">
        <ele>913.6</ele>
        <time>2021-08-12T14:42:36Z</time>
      </trkpt>
      <trkpt lat="47.15761" lon="6.83035">
        <ele>913.8</ele>
        <time>2021-08-12T14:42:37Z</time>
      </trkpt>
      <trkpt lat="47.1576" lon="6.83031">
        <ele>914</ele>
        <time>2021-08-12T14:42:38Z</time>
      </trkpt>
      <trkpt lat="47.15758" lon="6.83024">
        <ele>914.5</ele>
        <time>2021-08-12T14:42:40Z</time>
      </trkpt>
      <trkpt lat="47.15756" lon="6.8302">
        <ele>914.6</ele>
        <time>2021-08-12T14:42:41Z</time>
      </trkpt>
      <trkpt lat="47.15755" lon="6.83014">
        <ele>914.9</ele>
        <time>2021-08-12T14:42:43Z</time>
      </trkpt>
      <trkpt lat="47.15754" lon="6.83011">
        <ele>915</ele>
        <time>2021-08-12T14:42:44Z</time>
      </trkpt>
      <trkpt lat="47.15754" lon="6.83009">
        <ele>915.2</ele>
        <time>2021-08-12T14:42:45Z</time>
      </trkpt>
      <trkpt lat="47.15754" lon="6.83005">
        <ele>915.3</ele>
        <time>2021-08-12T14:42:46Z</time>
      </trkpt>
      <trkpt lat="47.15754" lon="6.83002">
        <ele>915.4</ele>
        <time>2021-08-12T14:42:48Z</time>
      </trkpt>
      <trkpt lat="47.15753" lon="6.82999">
        <ele>915.6</ele>
        <time>2021-08-12T14:42:49Z</time>
      </trkpt>
      <trkpt lat="47.15751" lon="6.82998">
        <ele>915.7</ele>
        <time>2021-08-12T14:42:50Z</time>
      </trkpt>
      <trkpt lat="47.15749" lon="6.82996">
        <ele>915.8</ele>
        <time>2021-08-12T14:42:51Z</time>
      </trkpt>
      <trkpt lat="47.15744" lon="6.82992">
        <ele>916.2</ele>
        <time>2021-08-12T14:42:52Z</time>
      </trkpt>
      <trkpt lat="47.15741" lon="6.82989">
        <ele>916.5</ele>
        <time>2021-08-12T14:42:53Z</time>
      </trkpt>
      <trkpt lat="47.15738" lon="6.82985">
        <ele>916.7</ele>
        <time>2021-08-12T14:42:55Z</time>
      </trkpt>
      <trkpt lat="47.15736" lon="6.82982">
        <ele>916.9</ele>
        <time>2021-08-12T14:42:56Z</time>
      </trkpt>
      <trkpt lat="47.15735" lon="6.82978">
        <ele>917.1</ele>
        <time>2021-08-12T14:42:57Z</time>
      </trkpt>
      <trkpt lat="47.15735" lon="6.82976">
        <ele>917.2</ele>
        <time>2021-08-12T14:42:58Z</time>
      </trkpt>
      <trkpt lat="47.15735" lon="6.82972">
        <ele>917.4</ele>
        <time>2021-08-12T14:42:59Z</time>
      </trkpt>
      <trkpt lat="47.15734" lon="6.82971">
        <ele>917.4</ele>
        <time>2021-08-12T14:43:00Z</time>
      </trkpt>
      <trkpt lat="47.15733" lon="6.82966">
        <ele>917.6</ele>
        <time>2021-08-12T14:43:02Z</time>
      </trkpt>
      <trkpt lat="47.15734" lon="6.82963">
        <ele>917.8</ele>
        <time>2021-08-12T14:43:03Z</time>
      </trkpt>
      <trkpt lat="47.15735" lon="6.82957">
        <ele>918</ele>
        <time>2021-08-12T14:43:05Z</time>
      </trkpt>
      <trkpt lat="47.15737" lon="6.82951">
        <ele>918.3</ele>
        <time>2021-08-12T14:43:07Z</time>
      </trkpt>
      <trkpt lat="47.15738" lon="6.82949">
        <ele>918.4</ele>
        <time>2021-08-12T14:43:08Z</time>
      </trkpt>
      <trkpt lat="47.15739" lon="6.82947">
        <ele>918.4</ele>
        <time>2021-08-12T14:43:09Z</time>
      </trkpt>
      <trkpt lat="47.15739" lon="6.82945">
        <ele>918.5</ele>
        <time>2021-08-12T14:43:10Z</time>
      </trkpt>
      <trkpt lat="47.15739" lon="6.82942">
        <ele>918.7</ele>
        <time>2021-08-12T14:43:12Z</time>
      </trkpt>
      <trkpt lat="47.15738" lon="6.82938">
        <ele>918.8</ele>
        <time>2021-08-12T14:43:13Z</time>
      </trkpt>
      <trkpt lat="47.15738" lon="6.82937">
        <ele>918.9</ele>
        <time>2021-08-12T14:43:14Z</time>
      </trkpt>
      <trkpt lat="47.15736" lon="6.82936">
        <ele>919</ele>
        <time>2021-08-12T14:43:15Z</time>
      </trkpt>
      <trkpt lat="47.15735" lon="6.82934">
        <ele>919.1</ele>
        <time>2021-08-12T14:43:16Z</time>
      </trkpt>
      <trkpt lat="47.15734" lon="6.82932">
        <ele>919.1</ele>
        <time>2021-08-12T14:43:17Z</time>
      </trkpt>
      <trkpt lat="47.15733" lon="6.8293">
        <ele>919.2</ele>
        <time>2021-08-12T14:43:18Z</time>
      </trkpt>
      <trkpt lat="47.15732" lon="6.82929">
        <ele>919.3</ele>
        <time>2021-08-12T14:43:20Z</time>
      </trkpt>
      <trkpt lat="47.15732" lon="6.82928">
        <ele>919.3</ele>
        <time>2021-08-12T14:43:21Z</time>
      </trkpt>
      <trkpt lat="47.15732" lon="6.82929">
        <ele>919.4</ele>
        <time>2021-08-12T14:43:22Z</time>
      </trkpt>
      <trkpt lat="47.15732" lon="6.82928">
        <ele>919.4</ele>
        <time>2021-08-12T14:43:23Z</time>
      </trkpt>
      <trkpt lat="47.1573" lon="6.82926">
        <ele>919.6</ele>
        <time>2021-08-12T14:43:24Z</time>
      </trkpt>
      <trkpt lat="47.15728" lon="6.82924">
        <ele>919.7</ele>
        <time>2021-08-12T14:43:26Z</time>
      </trkpt>
      <trkpt lat="47.15725" lon="6.82921">
        <ele>919.9</ele>
        <time>2021-08-12T14:43:27Z</time>
      </trkpt>
      <trkpt lat="47.15724" lon="6.8292">
        <ele>919.9</ele>
        <time>2021-08-12T14:43:28Z</time>
      </trkpt>
      <trkpt lat="47.15722" lon="6.82919">
        <ele>920.1</ele>
        <time>2021-08-12T14:43:29Z</time>
      </trkpt>
      <trkpt lat="47.15717" lon="6.82916">
        <ele>920.3</ele>
        <time>2021-08-12T14:43:31Z</time>
      </trkpt>
      <trkpt lat="47.15712" lon="6.82911">
        <ele>920.6</ele>
        <time>2021-08-12T14:43:33Z</time>
      </trkpt>
      <trkpt lat="47.1571" lon="6.82908">
        <ele>920.8</ele>
        <time>2021-08-12T14:43:34Z</time>
      </trkpt>
      <trkpt lat="47.15709" lon="6.82906">
        <ele>920.9</ele>
        <time>2021-08-12T14:43:35Z</time>
      </trkpt>
      <trkpt lat="47.15709" lon="6.82903">
        <ele>921</ele>
        <time>2021-08-12T14:43:36Z</time>
      </trkpt>
      <trkpt lat="47.15706" lon="6.829">
        <ele>921.1</ele>
        <time>2021-08-12T14:43:38Z</time>
      </trkpt>
      <trkpt lat="47.15705" lon="6.829">
        <ele>921.2</ele>
        <time>2021-08-12T14:43:39Z</time>
      </trkpt>
      <trkpt lat="47.15703" lon="6.829">
        <ele>921.2</ele>
        <time>2021-08-12T14:43:40Z</time>
      </trkpt>
      <trkpt lat="47.15699" lon="6.829">
        <ele>921.4</ele>
        <time>2021-08-12T14:43:41Z</time>
      </trkpt>
      <trkpt lat="47.15698" lon="6.829">
        <ele>921.4</ele>
        <time>2021-08-12T14:43:42Z</time>
      </trkpt>
      <trkpt lat="47.15696" lon="6.82899">
        <ele>921.5</ele>
        <time>2021-08-12T14:43:43Z</time>
      </trkpt>
      <trkpt lat="47.15693" lon="6.82898">
        <ele>921.7</ele>
        <time>2021-08-12T14:43:45Z</time>
      </trkpt>
      <trkpt lat="47.15692" lon="6.82896">
        <ele>921.7</ele>
        <time>2021-08-12T14:43:46Z</time>
      </trkpt>
      <trkpt lat="47.1569" lon="6.82895">
        <ele>921.8</ele>
        <time>2021-08-12T14:43:47Z</time>
      </trkpt>
      <trkpt lat="47.15689" lon="6.82894">
        <ele>921.9</ele>
        <time>2021-08-12T14:43:48Z</time>
      </trkpt>
      <trkpt lat="47.15686" lon="6.82893">
        <ele>922</ele>
        <time>2021-08-12T14:43:50Z</time>
      </trkpt>
      <trkpt lat="47.15683" lon="6.82893">
        <ele>922.2</ele>
        <time>2021-08-12T14:43:52Z</time>
      </trkpt>
      <trkpt lat="47.1568" lon="6.82891">
        <ele>922.3</ele>
        <time>2021-08-12T14:43:54Z</time>
      </trkpt>
      <trkpt lat="47.15676" lon="6.82888">
        <ele>922.6</ele>
        <time>2021-08-12T14:43:56Z</time>
      </trkpt>
      <trkpt lat="47.15673" lon="6.82885">
        <ele>922.8</ele>
        <time>2021-08-12T14:43:58Z</time>
      </trkpt>
      <trkpt lat="47.15672" lon="6.82884">
        <ele>922.9</ele>
        <time>2021-08-12T14:43:59Z</time>
      </trkpt>
      <trkpt lat="47.15671" lon="6.82883">
        <ele>923</ele>
        <time>2021-08-12T14:44:00Z</time>
      </trkpt>
      <trkpt lat="47.15668" lon="6.82881">
        <ele>923.2</ele>
        <time>2021-08-12T14:44:02Z</time>
      </trkpt>
      <trkpt lat="47.15665" lon="6.82881">
        <ele>923.3</ele>
        <time>2021-08-12T14:44:03Z</time>
      </trkpt>
      <trkpt lat="47.15662" lon="6.82881">
        <ele>923.6</ele>
        <time>2021-08-12T14:44:05Z</time>
      </trkpt>
      <trkpt lat="47.15659" lon="6.82879">
        <ele>923.8</ele>
        <time>2021-08-12T14:44:06Z</time>
      </trkpt>
      <trkpt lat="47.15655" lon="6.82879">
        <ele>924.1</ele>
        <time>2021-08-12T14:44:08Z</time>
      </trkpt>
      <trkpt lat="47.15654" lon="6.82879">
        <ele>924.2</ele>
        <time>2021-08-12T14:44:09Z</time>
      </trkpt>
      <trkpt lat="47.15654" lon="6.8288">
        <ele>924.2</ele>
        <time>2021-08-12T14:44:10Z</time>
      </trkpt>
      <trkpt lat="47.15653" lon="6.8288">
        <ele>924.3</ele>
        <time>2021-08-12T14:44:11Z</time>
      </trkpt>
      <trkpt lat="47.1565" lon="6.82878">
        <ele>924.5</ele>
        <time>2021-08-12T14:44:13Z</time>
      </trkpt>
      <trkpt lat="47.15646" lon="6.82876">
        <ele>924.9</ele>
        <time>2021-08-12T14:44:15Z</time>
      </trkpt>
      <trkpt lat="47.15644" lon="6.82875">
        <ele>925</ele>
        <time>2021-08-12T14:44:16Z</time>
      </trkpt>
      <trkpt lat="47.15643" lon="6.82875">
        <ele>925.1</ele>
        <time>2021-08-12T14:44:17Z</time>
      </trkpt>
      <trkpt lat="47.15641" lon="6.82874">
        <ele>925.3</ele>
        <time>2021-08-12T14:44:18Z</time>
      </trkpt>
      <trkpt lat="47.15636" lon="6.82875">
        <ele>925.6</ele>
        <time>2021-08-12T14:44:20Z</time>
      </trkpt>
      <trkpt lat="47.15632" lon="6.82874">
        <ele>925.9</ele>
        <time>2021-08-12T14:44:22Z</time>
      </trkpt>
      <trkpt lat="47.15627" lon="6.82874">
        <ele>926.3</ele>
        <time>2021-08-12T14:44:24Z</time>
      </trkpt>
      <trkpt lat="47.15622" lon="6.82872">
        <ele>926.6</ele>
        <time>2021-08-12T14:44:26Z</time>
      </trkpt>
      <trkpt lat="47.15621" lon="6.8287">
        <ele>926.7</ele>
        <time>2021-08-12T14:44:27Z</time>
      </trkpt>
      <trkpt lat="47.15618" lon="6.82869">
        <ele>926.9</ele>
        <time>2021-08-12T14:44:29Z</time>
      </trkpt>
      <trkpt lat="47.15615" lon="6.8287">
        <ele>927.1</ele>
        <time>2021-08-12T14:44:30Z</time>
      </trkpt>
      <trkpt lat="47.15611" lon="6.82869">
        <ele>927.2</ele>
        <time>2021-08-12T14:44:32Z</time>
      </trkpt>
      <trkpt lat="47.1561" lon="6.82868">
        <ele>927.3</ele>
        <time>2021-08-12T14:44:33Z</time>
      </trkpt>
      <trkpt lat="47.15607" lon="6.82867">
        <ele>927.4</ele>
        <time>2021-08-12T14:44:35Z</time>
      </trkpt>
      <trkpt lat="47.15606" lon="6.82867">
        <ele>927.5</ele>
        <time>2021-08-12T14:44:36Z</time>
      </trkpt>
      <trkpt lat="47.15602" lon="6.82864">
        <ele>927.6</ele>
        <time>2021-08-12T14:44:38Z</time>
      </trkpt>
      <trkpt lat="47.15598" lon="6.82862">
        <ele>927.7</ele>
        <time>2021-08-12T14:44:39Z</time>
      </trkpt>
      <trkpt lat="47.15597" lon="6.82862">
        <ele>927.8</ele>
        <time>2021-08-12T14:44:40Z</time>
      </trkpt>
      <trkpt lat="47.15593" lon="6.8286">
        <ele>927.9</ele>
        <time>2021-08-12T14:44:41Z</time>
      </trkpt>
      <trkpt lat="47.15592" lon="6.82859">
        <ele>927.9</ele>
        <time>2021-08-12T14:44:42Z</time>
      </trkpt>
      <trkpt lat="47.15588" lon="6.82859">
        <ele>928</ele>
        <time>2021-08-12T14:44:43Z</time>
      </trkpt>
      <trkpt lat="47.15587" lon="6.82859">
        <ele>928</ele>
        <time>2021-08-12T14:44:44Z</time>
      </trkpt>
      <trkpt lat="47.15584" lon="6.82858">
        <ele>928.1</ele>
        <time>2021-08-12T14:44:45Z</time>
      </trkpt>
      <trkpt lat="47.15579" lon="6.82856">
        <ele>928.2</ele>
        <time>2021-08-12T14:44:47Z</time>
      </trkpt>
      <trkpt lat="47.15577" lon="6.82855">
        <ele>928.3</ele>
        <time>2021-08-12T14:44:48Z</time>
      </trkpt>
      <trkpt lat="47.15575" lon="6.82855">
        <ele>928.3</ele>
        <time>2021-08-12T14:44:49Z</time>
      </trkpt>
      <trkpt lat="47.15572" lon="6.82853">
        <ele>928.4</ele>
        <time>2021-08-12T14:44:50Z</time>
      </trkpt>
      <trkpt lat="47.15568" lon="6.82852">
        <ele>928.4</ele>
        <time>2021-08-12T14:44:52Z</time>
      </trkpt>
      <trkpt lat="47.15567" lon="6.82851">
        <ele>928.5</ele>
        <time>2021-08-12T14:44:53Z</time>
      </trkpt>
      <trkpt lat="47.15566" lon="6.8285">
        <ele>928.5</ele>
        <time>2021-08-12T14:44:54Z</time>
      </trkpt>
      <trkpt lat="47.15563" lon="6.82848">
        <ele>928.5</ele>
        <time>2021-08-12T14:44:55Z</time>
      </trkpt>
      <trkpt lat="47.15559" lon="6.82847">
        <ele>928.6</ele>
        <time>2021-08-12T14:44:56Z</time>
      </trkpt>
      <trkpt lat="47.15558" lon="6.82847">
        <ele>928.6</ele>
        <time>2021-08-12T14:44:57Z</time>
      </trkpt>
      <trkpt lat="47.15555" lon="6.82845">
        <ele>928.6</ele>
        <time>2021-08-12T14:44:59Z</time>
      </trkpt>
      <trkpt lat="47.15552" lon="6.82844">
        <ele>928.6</ele>
        <time>2021-08-12T14:45:00Z</time>
      </trkpt>
      <trkpt lat="47.15549" lon="6.82842">
        <ele>928.6</ele>
        <time>2021-08-12T14:45:01Z</time>
      </trkpt>
      <trkpt lat="47.15546" lon="6.8284">
        <ele>928.7</ele>
        <time>2021-08-12T14:45:02Z</time>
      </trkpt>
      <trkpt lat="47.15542" lon="6.82838">
        <ele>928.7</ele>
        <time>2021-08-12T14:45:03Z</time>
      </trkpt>
      <trkpt lat="47.15539" lon="6.82837">
        <ele>928.6</ele>
        <time>2021-08-12T14:45:04Z</time>
      </trkpt>
      <trkpt lat="47.15536" lon="6.82836">
        <ele>928.6</ele>
        <time>2021-08-12T14:45:05Z</time>
      </trkpt>
      <trkpt lat="47.15533" lon="6.82835">
        <ele>928.6</ele>
        <time>2021-08-12T14:45:07Z</time>
      </trkpt>
      <trkpt lat="47.15529" lon="6.82833">
        <ele>928.6</ele>
        <time>2021-08-12T14:45:08Z</time>
      </trkpt>
      <trkpt lat="47.15525" lon="6.82831">
        <ele>928.5</ele>
        <time>2021-08-12T14:45:09Z</time>
      </trkpt>
      <trkpt lat="47.15522" lon="6.82829">
        <ele>928.5</ele>
        <time>2021-08-12T14:45:10Z</time>
      </trkpt>
      <trkpt lat="47.15518" lon="6.82828">
        <ele>928.4</ele>
        <time>2021-08-12T14:45:11Z</time>
      </trkpt>
      <trkpt lat="47.1551" lon="6.82824">
        <ele>928.3</ele>
        <time>2021-08-12T14:45:13Z</time>
      </trkpt>
      <trkpt lat="47.15507" lon="6.82822">
        <ele>928.2</ele>
        <time>2021-08-12T14:45:14Z</time>
      </trkpt>
      <trkpt lat="47.15502" lon="6.82818">
        <ele>928.1</ele>
        <time>2021-08-12T14:45:15Z</time>
      </trkpt>
      <trkpt lat="47.15497" lon="6.82814">
        <ele>928</ele>
        <time>2021-08-12T14:45:17Z</time>
      </trkpt>
      <trkpt lat="47.15494" lon="6.82812">
        <ele>928</ele>
        <time>2021-08-12T14:45:18Z</time>
      </trkpt>
      <trkpt lat="47.1549" lon="6.82809">
        <ele>927.9</ele>
        <time>2021-08-12T14:45:19Z</time>
      </trkpt>
      <trkpt lat="47.15487" lon="6.82806">
        <ele>927.8</ele>
        <time>2021-08-12T14:45:20Z</time>
      </trkpt>
      <trkpt lat="47.15482" lon="6.82801">
        <ele>927.7</ele>
        <time>2021-08-12T14:45:21Z</time>
      </trkpt>
      <trkpt lat="47.15479" lon="6.82797">
        <ele>927.7</ele>
        <time>2021-08-12T14:45:23Z</time>
      </trkpt>
      <trkpt lat="47.15473" lon="6.8279">
        <ele>927.6</ele>
        <time>2021-08-12T14:45:25Z</time>
      </trkpt>
      <trkpt lat="47.15471" lon="6.82786">
        <ele>927.6</ele>
        <time>2021-08-12T14:45:26Z</time>
      </trkpt>
      <trkpt lat="47.15466" lon="6.82778">
        <ele>927.6</ele>
        <time>2021-08-12T14:45:28Z</time>
      </trkpt>
      <trkpt lat="47.1546" lon="6.82769">
        <ele>927.6</ele>
        <time>2021-08-12T14:45:30Z</time>
      </trkpt>
      <trkpt lat="47.15457" lon="6.82765">
        <ele>927.6</ele>
        <time>2021-08-12T14:45:31Z</time>
      </trkpt>
      <trkpt lat="47.15454" lon="6.8276">
        <ele>927.6</ele>
        <time>2021-08-12T14:45:32Z</time>
      </trkpt>
      <trkpt lat="47.15448" lon="6.82752">
        <ele>927.7</ele>
        <time>2021-08-12T14:45:34Z</time>
      </trkpt>
      <trkpt lat="47.15446" lon="6.82749">
        <ele>927.7</ele>
        <time>2021-08-12T14:45:35Z</time>
      </trkpt>
      <trkpt lat="47.15442" lon="6.82744">
        <ele>927.8</ele>
        <time>2021-08-12T14:45:36Z</time>
      </trkpt>
      <trkpt lat="47.15438" lon="6.82739">
        <ele>927.9</ele>
        <time>2021-08-12T14:45:38Z</time>
      </trkpt>
      <trkpt lat="47.15434" lon="6.8273">
        <ele>928</ele>
        <time>2021-08-12T14:45:40Z</time>
      </trkpt>
      <trkpt lat="47.15432" lon="6.82727">
        <ele>928</ele>
        <time>2021-08-12T14:45:41Z</time>
      </trkpt>
      <trkpt lat="47.1543" lon="6.82723">
        <ele>928.1</ele>
        <time>2021-08-12T14:45:42Z</time>
      </trkpt>
      <trkpt lat="47.15427" lon="6.82718">
        <ele>928.2</ele>
        <time>2021-08-12T14:45:43Z</time>
      </trkpt>
      <trkpt lat="47.15424" lon="6.82714">
        <ele>928.2</ele>
        <time>2021-08-12T14:45:44Z</time>
      </trkpt>
      <trkpt lat="47.15421" lon="6.82711">
        <ele>928.3</ele>
        <time>2021-08-12T14:45:45Z</time>
      </trkpt>
      <trkpt lat="47.15418" lon="6.82708">
        <ele>928.4</ele>
        <time>2021-08-12T14:45:47Z</time>
      </trkpt>
      <trkpt lat="47.15416" lon="6.82704">
        <ele>928.4</ele>
        <time>2021-08-12T14:45:48Z</time>
      </trkpt>
      <trkpt lat="47.15413" lon="6.82698">
        <ele>928.5</ele>
        <time>2021-08-12T14:45:50Z</time>
      </trkpt>
      <trkpt lat="47.15412" lon="6.82694">
        <ele>928.5</ele>
        <time>2021-08-12T14:45:51Z</time>
      </trkpt>
      <trkpt lat="47.1541" lon="6.8269">
        <ele>928.6</ele>
        <time>2021-08-12T14:45:52Z</time>
      </trkpt>
      <trkpt lat="47.15408" lon="6.82686">
        <ele>928.7</ele>
        <time>2021-08-12T14:45:53Z</time>
      </trkpt>
      <trkpt lat="47.15406" lon="6.82681">
        <ele>928.8</ele>
        <time>2021-08-12T14:45:55Z</time>
      </trkpt>
      <trkpt lat="47.15406" lon="6.82677">
        <ele>928.8</ele>
        <time>2021-08-12T14:45:56Z</time>
      </trkpt>
      <trkpt lat="47.15406" lon="6.8267">
        <ele>929</ele>
        <time>2021-08-12T14:45:58Z</time>
      </trkpt>
      <trkpt lat="47.15405" lon="6.82664">
        <ele>929.1</ele>
        <time>2021-08-12T14:45:59Z</time>
      </trkpt>
      <trkpt lat="47.15404" lon="6.82663">
        <ele>929.1</ele>
        <time>2021-08-12T14:46:00Z</time>
      </trkpt>
      <trkpt lat="47.15402" lon="6.82655">
        <ele>929.3</ele>
        <time>2021-08-12T14:46:02Z</time>
      </trkpt>
      <trkpt lat="47.15399" lon="6.82648">
        <ele>929.4</ele>
        <time>2021-08-12T14:46:04Z</time>
      </trkpt>
      <trkpt lat="47.15396" lon="6.82641">
        <ele>929.6</ele>
        <time>2021-08-12T14:46:06Z</time>
      </trkpt>
      <trkpt lat="47.15394" lon="6.82632">
        <ele>929.8</ele>
        <time>2021-08-12T14:46:08Z</time>
      </trkpt>
      <trkpt lat="47.15393" lon="6.82628">
        <ele>929.8</ele>
        <time>2021-08-12T14:46:09Z</time>
      </trkpt>
      <trkpt lat="47.15393" lon="6.82624">
        <ele>929.9</ele>
        <time>2021-08-12T14:46:10Z</time>
      </trkpt>
      <trkpt lat="47.15392" lon="6.82619">
        <ele>930</ele>
        <time>2021-08-12T14:46:11Z</time>
      </trkpt>
      <trkpt lat="47.1539" lon="6.82614">
        <ele>930.1</ele>
        <time>2021-08-12T14:46:12Z</time>
      </trkpt>
      <trkpt lat="47.15389" lon="6.82606">
        <ele>930.2</ele>
        <time>2021-08-12T14:46:14Z</time>
      </trkpt>
      <trkpt lat="47.15389" lon="6.82602">
        <ele>930.3</ele>
        <time>2021-08-12T14:46:15Z</time>
      </trkpt>
      <trkpt lat="47.15386" lon="6.82595">
        <ele>930.4</ele>
        <time>2021-08-12T14:46:16Z</time>
      </trkpt>
      <trkpt lat="47.15384" lon="6.82589">
        <ele>930.5</ele>
        <time>2021-08-12T14:46:18Z</time>
      </trkpt>
      <trkpt lat="47.15383" lon="6.82585">
        <ele>930.6</ele>
        <time>2021-08-12T14:46:19Z</time>
      </trkpt>
      <trkpt lat="47.15382" lon="6.82581">
        <ele>930.7</ele>
        <time>2021-08-12T14:46:20Z</time>
      </trkpt>
      <trkpt lat="47.1538" lon="6.82574">
        <ele>930.8</ele>
        <time>2021-08-12T14:46:22Z</time>
      </trkpt>
      <trkpt lat="47.1538" lon="6.8257">
        <ele>930.8</ele>
        <time>2021-08-12T14:46:23Z</time>
      </trkpt>
      <trkpt lat="47.15378" lon="6.82562">
        <ele>931</ele>
        <time>2021-08-12T14:46:25Z</time>
      </trkpt>
      <trkpt lat="47.15377" lon="6.82557">
        <ele>931</ele>
        <time>2021-08-12T14:46:26Z</time>
      </trkpt>
      <trkpt lat="47.15376" lon="6.82552">
        <ele>931.1</ele>
        <time>2021-08-12T14:46:27Z</time>
      </trkpt>
      <trkpt lat="47.15375" lon="6.82545">
        <ele>931.3</ele>
        <time>2021-08-12T14:46:29Z</time>
      </trkpt>
      <trkpt lat="47.15373" lon="6.82537">
        <ele>931.6</ele>
        <time>2021-08-12T14:46:31Z</time>
      </trkpt>
      <trkpt lat="47.15372" lon="6.82531">
        <ele>931.8</ele>
        <time>2021-08-12T14:46:33Z</time>
      </trkpt>
      <trkpt lat="47.15372" lon="6.82528">
        <ele>931.8</ele>
        <time>2021-08-12T14:46:34Z</time>
      </trkpt>
      <trkpt lat="47.15372" lon="6.82524">
        <ele>932</ele>
        <time>2021-08-12T14:46:36Z</time>
      </trkpt>
      <trkpt lat="47.15372" lon="6.82522">
        <ele>932</ele>
        <time>2021-08-12T14:46:37Z</time>
      </trkpt>
      <trkpt lat="47.15372" lon="6.82517">
        <ele>932.2</ele>
        <time>2021-08-12T14:46:39Z</time>
      </trkpt>
      <trkpt lat="47.15372" lon="6.82515">
        <ele>932.3</ele>
        <time>2021-08-12T14:46:40Z</time>
      </trkpt>
      <trkpt lat="47.15371" lon="6.82512">
        <ele>932.4</ele>
        <time>2021-08-12T14:46:41Z</time>
      </trkpt>
      <trkpt lat="47.15369" lon="6.82507">
        <ele>932.6</ele>
        <time>2021-08-12T14:46:43Z</time>
      </trkpt>
      <trkpt lat="47.15365" lon="6.82502">
        <ele>932.8</ele>
        <time>2021-08-12T14:46:44Z</time>
      </trkpt>
      <trkpt lat="47.15363" lon="6.82497">
        <ele>933</ele>
        <time>2021-08-12T14:46:45Z</time>
      </trkpt>
      <trkpt lat="47.15365" lon="6.82489">
        <ele>933.3</ele>
        <time>2021-08-12T14:46:47Z</time>
      </trkpt>
      <trkpt lat="47.15366" lon="6.82484">
        <ele>933.5</ele>
        <time>2021-08-12T14:46:48Z</time>
      </trkpt>
      <trkpt lat="47.15369" lon="6.82475">
        <ele>933.8</ele>
        <time>2021-08-12T14:46:50Z</time>
      </trkpt>
      <trkpt lat="47.1537" lon="6.82472">
        <ele>933.9</ele>
        <time>2021-08-12T14:46:51Z</time>
      </trkpt>
      <trkpt lat="47.15372" lon="6.82468">
        <ele>934.1</ele>
        <time>2021-08-12T14:46:52Z</time>
      </trkpt>
      <trkpt lat="47.15376" lon="6.82463">
        <ele>934.3</ele>
        <time>2021-08-12T14:46:54Z</time>
      </trkpt>
      <trkpt lat="47.15379" lon="6.82455">
        <ele>934.6</ele>
        <time>2021-08-12T14:46:56Z</time>
      </trkpt>
      <trkpt lat="47.15382" lon="6.82445">
        <ele>934.9</ele>
        <time>2021-08-12T14:46:58Z</time>
      </trkpt>
      <trkpt lat="47.15383" lon="6.82435">
        <ele>935.2</ele>
        <time>2021-08-12T14:47:00Z</time>
      </trkpt>
      <trkpt lat="47.15381" lon="6.82428">
        <ele>935.4</ele>
        <time>2021-08-12T14:47:02Z</time>
      </trkpt>
      <trkpt lat="47.1538" lon="6.82421">
        <ele>935.5</ele>
        <time>2021-08-12T14:47:03Z</time>
      </trkpt>
      <trkpt lat="47.15378" lon="6.82413">
        <ele>935.6</ele>
        <time>2021-08-12T14:47:05Z</time>
      </trkpt>
      <trkpt lat="47.15377" lon="6.82407">
        <ele>935.7</ele>
        <time>2021-08-12T14:47:06Z</time>
      </trkpt>
      <trkpt lat="47.15374" lon="6.824">
        <ele>935.8</ele>
        <time>2021-08-12T14:47:08Z</time>
      </trkpt>
      <trkpt lat="47.15371" lon="6.82395">
        <ele>935.9</ele>
        <time>2021-08-12T14:47:10Z</time>
      </trkpt>
      <trkpt lat="47.15368" lon="6.82389">
        <ele>935.9</ele>
        <time>2021-08-12T14:47:11Z</time>
      </trkpt>
      <trkpt lat="47.15366" lon="6.82384">
        <ele>936</ele>
        <time>2021-08-12T14:47:13Z</time>
      </trkpt>
      <trkpt lat="47.15364" lon="6.82379">
        <ele>936</ele>
        <time>2021-08-12T14:47:14Z</time>
      </trkpt>
      <trkpt lat="47.15363" lon="6.82374">
        <ele>936</ele>
        <time>2021-08-12T14:47:15Z</time>
      </trkpt>
      <trkpt lat="47.15363" lon="6.82369">
        <ele>936.1</ele>
        <time>2021-08-12T14:47:17Z</time>
      </trkpt>
      <trkpt lat="47.15363" lon="6.82365">
        <ele>936.1</ele>
        <time>2021-08-12T14:47:18Z</time>
      </trkpt>
      <trkpt lat="47.15363" lon="6.82361">
        <ele>936.1</ele>
        <time>2021-08-12T14:47:20Z</time>
      </trkpt>
      <trkpt lat="47.15363" lon="6.82358">
        <ele>936.1</ele>
        <time>2021-08-12T14:47:21Z</time>
      </trkpt>
      <trkpt lat="47.15361" lon="6.82354">
        <ele>936.2</ele>
        <time>2021-08-12T14:47:23Z</time>
      </trkpt>
      <trkpt lat="47.1536" lon="6.8235">
        <ele>936.3</ele>
        <time>2021-08-12T14:47:25Z</time>
      </trkpt>
      <trkpt lat="47.15359" lon="6.82347">
        <ele>936.3</ele>
        <time>2021-08-12T14:47:27Z</time>
      </trkpt>
      <trkpt lat="47.15358" lon="6.82343">
        <ele>936.4</ele>
        <time>2021-08-12T14:47:28Z</time>
      </trkpt>
      <trkpt lat="47.15357" lon="6.82339">
        <ele>936.4</ele>
        <time>2021-08-12T14:48:57Z</time>
      </trkpt>
      <trkpt lat="47.15356" lon="6.82336">
        <ele>936.5</ele>
        <time>2021-08-12T14:48:58Z</time>
      </trkpt>
      <trkpt lat="47.15348" lon="6.82323">
        <ele>936.6</ele>
        <time>2021-08-12T14:49:00Z</time>
      </trkpt>
      <trkpt lat="47.15339" lon="6.82308">
        <ele>936.6</ele>
        <time>2021-08-12T14:49:02Z</time>
      </trkpt>
      <trkpt lat="47.15333" lon="6.82298">
        <ele>936.6</ele>
        <time>2021-08-12T14:49:03Z</time>
      </trkpt>
      <trkpt lat="47.15329" lon="6.82291">
        <ele>936.5</ele>
        <time>2021-08-12T14:49:04Z</time>
      </trkpt>
      <trkpt lat="47.15324" lon="6.82286">
        <ele>936.5</ele>
        <time>2021-08-12T14:49:05Z</time>
      </trkpt>
      <trkpt lat="47.1532" lon="6.82282">
        <ele>936.4</ele>
        <time>2021-08-12T14:49:06Z</time>
      </trkpt>
      <trkpt lat="47.15311" lon="6.82274">
        <ele>936.3</ele>
        <time>2021-08-12T14:49:08Z</time>
      </trkpt>
      <trkpt lat="47.15303" lon="6.82265">
        <ele>936.1</ele>
        <time>2021-08-12T14:49:10Z</time>
      </trkpt>
      <trkpt lat="47.15293" lon="6.8226">
        <ele>935.9</ele>
        <time>2021-08-12T14:49:12Z</time>
      </trkpt>
      <trkpt lat="47.15284" lon="6.82258">
        <ele>935.8</ele>
        <time>2021-08-12T14:49:14Z</time>
      </trkpt>
      <trkpt lat="47.15273" lon="6.82255">
        <ele>935.7</ele>
        <time>2021-08-12T14:49:16Z</time>
      </trkpt>
      <trkpt lat="47.15268" lon="6.82254">
        <ele>935.6</ele>
        <time>2021-08-12T14:49:17Z</time>
      </trkpt>
      <trkpt lat="47.15263" lon="6.82254">
        <ele>935.6</ele>
        <time>2021-08-12T14:49:18Z</time>
      </trkpt>
      <trkpt lat="47.15252" lon="6.82254">
        <ele>935.5</ele>
        <time>2021-08-12T14:49:20Z</time>
      </trkpt>
      <trkpt lat="47.15241" lon="6.82252">
        <ele>935.4</ele>
        <time>2021-08-12T14:49:22Z</time>
      </trkpt>
      <trkpt lat="47.15229" lon="6.82251">
        <ele>935.3</ele>
        <time>2021-08-12T14:49:24Z</time>
      </trkpt>
      <trkpt lat="47.15219" lon="6.82253">
        <ele>935.2</ele>
        <time>2021-08-12T14:49:26Z</time>
      </trkpt>
      <trkpt lat="47.15208" lon="6.82256">
        <ele>934.9</ele>
        <time>2021-08-12T14:49:28Z</time>
      </trkpt>
      <trkpt lat="47.15203" lon="6.82257">
        <ele>934.6</ele>
        <time>2021-08-12T14:49:29Z</time>
      </trkpt>
      <trkpt lat="47.15198" lon="6.82258">
        <ele>934.4</ele>
        <time>2021-08-12T14:49:30Z</time>
      </trkpt>
      <trkpt lat="47.15189" lon="6.82261">
        <ele>934</ele>
        <time>2021-08-12T14:49:32Z</time>
      </trkpt>
      <trkpt lat="47.15182" lon="6.82264">
        <ele>933.6</ele>
        <time>2021-08-12T14:49:34Z</time>
      </trkpt>
      <trkpt lat="47.15178" lon="6.82265">
        <ele>933.4</ele>
        <time>2021-08-12T14:49:35Z</time>
      </trkpt>
      <trkpt lat="47.15172" lon="6.82266">
        <ele>933.1</ele>
        <time>2021-08-12T14:49:36Z</time>
      </trkpt>
      <trkpt lat="47.15161" lon="6.82268">
        <ele>932.5</ele>
        <time>2021-08-12T14:49:38Z</time>
      </trkpt>
      <trkpt lat="47.15156" lon="6.82268">
        <ele>932.2</ele>
        <time>2021-08-12T14:49:39Z</time>
      </trkpt>
      <trkpt lat="47.1515" lon="6.82267">
        <ele>931.9</ele>
        <time>2021-08-12T14:49:40Z</time>
      </trkpt>
      <trkpt lat="47.15144" lon="6.82264">
        <ele>931.6</ele>
        <time>2021-08-12T14:49:41Z</time>
      </trkpt>
      <trkpt lat="47.15139" lon="6.82261">
        <ele>931.3</ele>
        <time>2021-08-12T14:49:42Z</time>
      </trkpt>
      <trkpt lat="47.15126" lon="6.82251">
        <ele>930.4</ele>
        <time>2021-08-12T14:49:44Z</time>
      </trkpt>
      <trkpt lat="47.15113" lon="6.82238">
        <ele>929.5</ele>
        <time>2021-08-12T14:49:46Z</time>
      </trkpt>
      <trkpt lat="47.15106" lon="6.82231">
        <ele>929.1</ele>
        <time>2021-08-12T14:49:47Z</time>
      </trkpt>
      <trkpt lat="47.15101" lon="6.82224">
        <ele>928.9</ele>
        <time>2021-08-12T14:49:48Z</time>
      </trkpt>
      <trkpt lat="47.15089" lon="6.82211">
        <ele>928.4</ele>
        <time>2021-08-12T14:49:50Z</time>
      </trkpt>
      <trkpt lat="47.15083" lon="6.82204">
        <ele>928.3</ele>
        <time>2021-08-12T14:49:51Z</time>
      </trkpt>
      <trkpt lat="47.15077" lon="6.82198">
        <ele>928.1</ele>
        <time>2021-08-12T14:49:52Z</time>
      </trkpt>
      <trkpt lat="47.15071" lon="6.82192">
        <ele>927.9</ele>
        <time>2021-08-12T14:49:53Z</time>
      </trkpt>
      <trkpt lat="47.15064" lon="6.82187">
        <ele>927.7</ele>
        <time>2021-08-12T14:49:54Z</time>
      </trkpt>
      <trkpt lat="47.1505" lon="6.82175">
        <ele>927.2</ele>
        <time>2021-08-12T14:49:56Z</time>
      </trkpt>
      <trkpt lat="47.15032" lon="6.82163">
        <ele>926.9</ele>
        <time>2021-08-12T14:49:58Z</time>
      </trkpt>
      <trkpt lat="47.15025" lon="6.82157">
        <ele>926.8</ele>
        <time>2021-08-12T14:49:59Z</time>
      </trkpt>
      <trkpt lat="47.1502" lon="6.8215">
        <ele>926.8</ele>
        <time>2021-08-12T14:50:00Z</time>
      </trkpt>
      <trkpt lat="47.15006" lon="6.82135">
        <ele>926.8</ele>
        <time>2021-08-12T14:50:02Z</time>
      </trkpt>
      <trkpt lat="47.14991" lon="6.82121">
        <ele>927.1</ele>
        <time>2021-08-12T14:50:04Z</time>
      </trkpt>
      <trkpt lat="47.14983" lon="6.82115">
        <ele>927.2</ele>
        <time>2021-08-12T14:50:05Z</time>
      </trkpt>
      <trkpt lat="47.14975" lon="6.82112">
        <ele>927.4</ele>
        <time>2021-08-12T14:50:06Z</time>
      </trkpt>
      <trkpt lat="47.14961" lon="6.82108">
        <ele>927.7</ele>
        <time>2021-08-12T14:50:08Z</time>
      </trkpt>
      <trkpt lat="47.14951" lon="6.82105">
        <ele>927.9</ele>
        <time>2021-08-12T14:50:10Z</time>
      </trkpt>
      <trkpt lat="47.14949" lon="6.82105">
        <ele>928</ele>
        <time>2021-08-12T14:50:11Z</time>
      </trkpt>
      <trkpt lat="47.14948" lon="6.82105">
        <ele>928</ele>
        <time>2021-08-12T14:50:13Z</time>
      </trkpt>
      <trkpt lat="47.14947" lon="6.82104">
        <ele>928</ele>
        <time>2021-08-12T14:50:14Z</time>
      </trkpt>
      <trkpt lat="47.1494" lon="6.82098">
        <ele>928.3</ele>
        <time>2021-08-12T14:50:16Z</time>
      </trkpt>
      <trkpt lat="47.14932" lon="6.82093">
        <ele>928.5</ele>
        <time>2021-08-12T14:50:18Z</time>
      </trkpt>
      <trkpt lat="47.14929" lon="6.82091">
        <ele>928.6</ele>
        <time>2021-08-12T14:50:19Z</time>
      </trkpt>
      <trkpt lat="47.14927" lon="6.82089">
        <ele>928.7</ele>
        <time>2021-08-12T14:50:20Z</time>
      </trkpt>
      <trkpt lat="47.14923" lon="6.82085">
        <ele>928.9</ele>
        <time>2021-08-12T14:50:21Z</time>
      </trkpt>
      <trkpt lat="47.14919" lon="6.82081">
        <ele>929.1</ele>
        <time>2021-08-12T14:50:22Z</time>
      </trkpt>
      <trkpt lat="47.14915" lon="6.82077">
        <ele>929.2</ele>
        <time>2021-08-12T14:50:24Z</time>
      </trkpt>
      <trkpt lat="47.14913" lon="6.82074">
        <ele>929.3</ele>
        <time>2021-08-12T14:50:25Z</time>
      </trkpt>
      <trkpt lat="47.14912" lon="6.8207">
        <ele>929.4</ele>
        <time>2021-08-12T14:50:26Z</time>
      </trkpt>
      <trkpt lat="47.14913" lon="6.82064">
        <ele>929.6</ele>
        <time>2021-08-12T14:50:28Z</time>
      </trkpt>
      <trkpt lat="47.14912" lon="6.8206">
        <ele>929.7</ele>
        <time>2021-08-12T14:50:30Z</time>
      </trkpt>
      <trkpt lat="47.14912" lon="6.82059">
        <ele>929.7</ele>
        <time>2021-08-12T14:50:31Z</time>
      </trkpt>
      <trkpt lat="47.14911" lon="6.82057">
        <ele>929.8</ele>
        <time>2021-08-12T14:50:33Z</time>
      </trkpt>
      <trkpt lat="47.1491" lon="6.82055">
        <ele>929.8</ele>
        <time>2021-08-12T14:50:34Z</time>
      </trkpt>
      <trkpt lat="47.14908" lon="6.82053">
        <ele>929.9</ele>
        <time>2021-08-12T14:50:35Z</time>
      </trkpt>
      <trkpt lat="47.14904" lon="6.8205">
        <ele>930</ele>
        <time>2021-08-12T14:50:37Z</time>
      </trkpt>
      <trkpt lat="47.14898" lon="6.82049">
        <ele>930.2</ele>
        <time>2021-08-12T14:50:39Z</time>
      </trkpt>
      <trkpt lat="47.14894" lon="6.82048">
        <ele>930.4</ele>
        <time>2021-08-12T14:50:40Z</time>
      </trkpt>
      <trkpt lat="47.14891" lon="6.82047">
        <ele>930.5</ele>
        <time>2021-08-12T14:50:41Z</time>
      </trkpt>
      <trkpt lat="47.14888" lon="6.82044">
        <ele>930.6</ele>
        <time>2021-08-12T14:50:42Z</time>
      </trkpt>
      <trkpt lat="47.14885" lon="6.82041">
        <ele>930.7</ele>
        <time>2021-08-12T14:50:43Z</time>
      </trkpt>
      <trkpt lat="47.14883" lon="6.82036">
        <ele>930.9</ele>
        <time>2021-08-12T14:50:45Z</time>
      </trkpt>
      <trkpt lat="47.14882" lon="6.82031">
        <ele>931</ele>
        <time>2021-08-12T14:50:46Z</time>
      </trkpt>
      <trkpt lat="47.14879" lon="6.82027">
        <ele>931.1</ele>
        <time>2021-08-12T14:50:47Z</time>
      </trkpt>
      <trkpt lat="47.14876" lon="6.82024">
        <ele>931.3</ele>
        <time>2021-08-12T14:50:48Z</time>
      </trkpt>
      <trkpt lat="47.14872" lon="6.82021">
        <ele>931.4</ele>
        <time>2021-08-12T14:50:50Z</time>
      </trkpt>
      <trkpt lat="47.1487" lon="6.82019">
        <ele>931.5</ele>
        <time>2021-08-12T14:50:52Z</time>
      </trkpt>
      <trkpt lat="47.14869" lon="6.82016">
        <ele>931.6</ele>
        <time>2021-08-12T14:50:53Z</time>
      </trkpt>
      <trkpt lat="47.14868" lon="6.82015">
        <ele>931.6</ele>
        <time>2021-08-12T14:50:54Z</time>
      </trkpt>
      <trkpt lat="47.14866" lon="6.82011">
        <ele>931.8</ele>
        <time>2021-08-12T14:50:56Z</time>
      </trkpt>
      <trkpt lat="47.14864" lon="6.82007">
        <ele>931.9</ele>
        <time>2021-08-12T14:50:57Z</time>
      </trkpt>
      <trkpt lat="47.14863" lon="6.82004">
        <ele>932</ele>
        <time>2021-08-12T14:50:58Z</time>
      </trkpt>
      <trkpt lat="47.14861" lon="6.82001">
        <ele>932.2</ele>
        <time>2021-08-12T14:51:00Z</time>
      </trkpt>
      <trkpt lat="47.14859" lon="6.81998">
        <ele>932.3</ele>
        <time>2021-08-12T14:51:01Z</time>
      </trkpt>
      <trkpt lat="47.14857" lon="6.81995">
        <ele>932.4</ele>
        <time>2021-08-12T14:51:02Z</time>
      </trkpt>
      <trkpt lat="47.14856" lon="6.81992">
        <ele>932.5</ele>
        <time>2021-08-12T14:51:11Z</time>
      </trkpt>
      <trkpt lat="47.14854" lon="6.81989">
        <ele>932.7</ele>
        <time>2021-08-12T14:51:12Z</time>
      </trkpt>
      <trkpt lat="47.14852" lon="6.81986">
        <ele>932.8</ele>
        <time>2021-08-12T14:51:13Z</time>
      </trkpt>
      <trkpt lat="47.14851" lon="6.81979">
        <ele>933</ele>
        <time>2021-08-12T14:51:15Z</time>
      </trkpt>
      <trkpt lat="47.14849" lon="6.81973">
        <ele>933.2</ele>
        <time>2021-08-12T14:51:16Z</time>
      </trkpt>
      <trkpt lat="47.14847" lon="6.81969">
        <ele>933.3</ele>
        <time>2021-08-12T14:51:17Z</time>
      </trkpt>
      <trkpt lat="47.14844" lon="6.81964">
        <ele>933.6</ele>
        <time>2021-08-12T14:51:18Z</time>
      </trkpt>
      <trkpt lat="47.14842" lon="6.81959">
        <ele>933.9</ele>
        <time>2021-08-12T14:51:19Z</time>
      </trkpt>
      <trkpt lat="47.14841" lon="6.81959">
        <ele>933.9</ele>
        <time>2021-08-12T14:51:20Z</time>
      </trkpt>
      <trkpt lat="47.14841" lon="6.81958">
        <ele>933.9</ele>
        <time>2021-08-12T14:51:21Z</time>
      </trkpt>
      <trkpt lat="47.1484" lon="6.81956">
        <ele>934</ele>
        <time>2021-08-12T14:51:22Z</time>
      </trkpt>
      <trkpt lat="47.14837" lon="6.81952">
        <ele>934.3</ele>
        <time>2021-08-12T14:51:24Z</time>
      </trkpt>
      <trkpt lat="47.14836" lon="6.8195">
        <ele>934.4</ele>
        <time>2021-08-12T14:51:25Z</time>
      </trkpt>
      <trkpt lat="47.14835" lon="6.81947">
        <ele>934.6</ele>
        <time>2021-08-12T14:51:26Z</time>
      </trkpt>
      <trkpt lat="47.14833" lon="6.81946">
        <ele>934.8</ele>
        <time>2021-08-12T14:51:28Z</time>
      </trkpt>
      <trkpt lat="47.14829" lon="6.81944">
        <ele>935</ele>
        <time>2021-08-12T14:51:29Z</time>
      </trkpt>
      <trkpt lat="47.14827" lon="6.81943">
        <ele>935.2</ele>
        <time>2021-08-12T14:51:30Z</time>
      </trkpt>
      <trkpt lat="47.14827" lon="6.81942">
        <ele>935.3</ele>
        <time>2021-08-12T14:51:32Z</time>
      </trkpt>
      <trkpt lat="47.14826" lon="6.81941">
        <ele>935.3</ele>
        <time>2021-08-12T14:51:33Z</time>
      </trkpt>
      <trkpt lat="47.14826" lon="6.81941">
        <ele>935.4</ele>
        <time>2021-08-12T14:51:34Z</time>
      </trkpt>
      <trkpt lat="47.14825" lon="6.8194">
        <ele>935.5</ele>
        <time>2021-08-12T14:51:36Z</time>
      </trkpt>
      <trkpt lat="47.14825" lon="6.81939">
        <ele>935.5</ele>
        <time>2021-08-12T14:51:37Z</time>
      </trkpt>
      <trkpt lat="47.14824" lon="6.81937">
        <ele>935.7</ele>
        <time>2021-08-12T14:51:39Z</time>
      </trkpt>
      <trkpt lat="47.14791" lon="6.8193">
        <ele>938.9</ele>
        <time>2021-08-12T14:51:47Z</time>
      </trkpt>
      <trkpt lat="47.14787" lon="6.81928">
        <ele>939.1</ele>
        <time>2021-08-12T14:51:48Z</time>
      </trkpt>
      <trkpt lat="47.14784" lon="6.81929">
        <ele>939.4</ele>
        <time>2021-08-12T14:51:49Z</time>
      </trkpt>
      <trkpt lat="47.1478" lon="6.81928">
        <ele>939.8</ele>
        <time>2021-08-12T14:51:50Z</time>
      </trkpt>
      <trkpt lat="47.14778" lon="6.81925">
        <ele>940</ele>
        <time>2021-08-12T14:51:52Z</time>
      </trkpt>
      <trkpt lat="47.14777" lon="6.81924">
        <ele>940.1</ele>
        <time>2021-08-12T14:51:53Z</time>
      </trkpt>
      <trkpt lat="47.14776" lon="6.8192">
        <ele>940.3</ele>
        <time>2021-08-12T14:51:54Z</time>
      </trkpt>
      <trkpt lat="47.14775" lon="6.81918">
        <ele>940.4</ele>
        <time>2021-08-12T14:51:56Z</time>
      </trkpt>
      <trkpt lat="47.14774" lon="6.81916">
        <ele>940.5</ele>
        <time>2021-08-12T14:51:57Z</time>
      </trkpt>
      <trkpt lat="47.14773" lon="6.81915">
        <ele>940.7</ele>
        <time>2021-08-12T14:51:58Z</time>
      </trkpt>
      <trkpt lat="47.14772" lon="6.8191">
        <ele>940.9</ele>
        <time>2021-08-12T14:51:59Z</time>
      </trkpt>
      <trkpt lat="47.14772" lon="6.81908">
        <ele>941</ele>
        <time>2021-08-12T14:52:00Z</time>
      </trkpt>
      <trkpt lat="47.14775" lon="6.819">
        <ele>941.5</ele>
        <time>2021-08-12T14:52:02Z</time>
      </trkpt>
      <trkpt lat="47.14776" lon="6.81895">
        <ele>941.8</ele>
        <time>2021-08-12T14:52:03Z</time>
      </trkpt>
      <trkpt lat="47.14778" lon="6.81886">
        <ele>942.3</ele>
        <time>2021-08-12T14:52:04Z</time>
      </trkpt>
      <trkpt lat="47.14779" lon="6.81882">
        <ele>942.5</ele>
        <time>2021-08-12T14:52:06Z</time>
      </trkpt>
      <trkpt lat="47.14779" lon="6.81878">
        <ele>942.7</ele>
        <time>2021-08-12T14:52:07Z</time>
      </trkpt>
      <trkpt lat="47.1478" lon="6.81875">
        <ele>942.9</ele>
        <time>2021-08-12T14:52:09Z</time>
      </trkpt>
      <trkpt lat="47.1478" lon="6.81874">
        <ele>942.9</ele>
        <time>2021-08-12T14:52:10Z</time>
      </trkpt>
      <trkpt lat="47.14779" lon="6.81872">
        <ele>943</ele>
        <time>2021-08-12T14:52:11Z</time>
      </trkpt>
      <trkpt lat="47.14779" lon="6.81871">
        <ele>943.1</ele>
        <time>2021-08-12T14:52:12Z</time>
      </trkpt>
      <trkpt lat="47.14778" lon="6.8187">
        <ele>943.1</ele>
        <time>2021-08-12T14:52:13Z</time>
      </trkpt>
      <trkpt lat="47.14778" lon="6.81869">
        <ele>943.2</ele>
        <time>2021-08-12T14:52:15Z</time>
      </trkpt>
      <trkpt lat="47.14777" lon="6.81868">
        <ele>943.2</ele>
        <time>2021-08-12T14:52:16Z</time>
      </trkpt>
      <trkpt lat="47.14777" lon="6.81864">
        <ele>943.4</ele>
        <time>2021-08-12T14:52:17Z</time>
      </trkpt>
      <trkpt lat="47.14776" lon="6.81854">
        <ele>944</ele>
        <time>2021-08-12T14:52:19Z</time>
      </trkpt>
      <trkpt lat="47.14776" lon="6.81847">
        <ele>944.2</ele>
        <time>2021-08-12T14:52:21Z</time>
      </trkpt>
      <trkpt lat="47.14775" lon="6.81838">
        <ele>944.7</ele>
        <time>2021-08-12T14:52:23Z</time>
      </trkpt>
      <trkpt lat="47.14774" lon="6.81833">
        <ele>944.9</ele>
        <time>2021-08-12T14:52:24Z</time>
      </trkpt>
      <trkpt lat="47.14774" lon="6.81832">
        <ele>944.9</ele>
        <time>2021-08-12T14:52:25Z</time>
      </trkpt>
      <trkpt lat="47.14774" lon="6.81826">
        <ele>945.2</ele>
        <time>2021-08-12T14:52:26Z</time>
      </trkpt>
      <trkpt lat="47.14774" lon="6.81824">
        <ele>945.3</ele>
        <time>2021-08-12T14:52:27Z</time>
      </trkpt>
      <trkpt lat="47.14774" lon="6.81819">
        <ele>945.5</ele>
        <time>2021-08-12T14:52:28Z</time>
      </trkpt>
      <trkpt lat="47.14774" lon="6.81817">
        <ele>945.6</ele>
        <time>2021-08-12T14:52:29Z</time>
      </trkpt>
      <trkpt lat="47.14774" lon="6.8181">
        <ele>945.9</ele>
        <time>2021-08-12T14:52:31Z</time>
      </trkpt>
      <trkpt lat="47.14773" lon="6.81807">
        <ele>946</ele>
        <time>2021-08-12T14:52:32Z</time>
      </trkpt>
      <trkpt lat="47.14773" lon="6.81804">
        <ele>946.1</ele>
        <time>2021-08-12T14:52:33Z</time>
      </trkpt>
      <trkpt lat="47.14772" lon="6.81802">
        <ele>946.2</ele>
        <time>2021-08-12T14:52:34Z</time>
      </trkpt>
      <trkpt lat="47.14772" lon="6.818">
        <ele>946.3</ele>
        <time>2021-08-12T14:52:36Z</time>
      </trkpt>
      <trkpt lat="47.14773" lon="6.81798">
        <ele>946.4</ele>
        <time>2021-08-12T14:52:37Z</time>
      </trkpt>
      <trkpt lat="47.14772" lon="6.81796">
        <ele>946.5</ele>
        <time>2021-08-12T14:52:38Z</time>
      </trkpt>
      <trkpt lat="47.14772" lon="6.81791">
        <ele>946.7</ele>
        <time>2021-08-12T14:52:40Z</time>
      </trkpt>
      <trkpt lat="47.14772" lon="6.81786">
        <ele>946.9</ele>
        <time>2021-08-12T14:52:41Z</time>
      </trkpt>
      <trkpt lat="47.14772" lon="6.8178">
        <ele>947.2</ele>
        <time>2021-08-12T14:52:42Z</time>
      </trkpt>
      <trkpt lat="47.14772" lon="6.81775">
        <ele>947.4</ele>
        <time>2021-08-12T14:52:43Z</time>
      </trkpt>
      <trkpt lat="47.14772" lon="6.81774">
        <ele>947.5</ele>
        <time>2021-08-12T14:52:44Z</time>
      </trkpt>
      <trkpt lat="47.14772" lon="6.8177">
        <ele>947.7</ele>
        <time>2021-08-12T14:52:45Z</time>
      </trkpt>
      <trkpt lat="47.14771" lon="6.81764">
        <ele>947.9</ele>
        <time>2021-08-12T14:52:47Z</time>
      </trkpt>
      <trkpt lat="47.1477" lon="6.8176">
        <ele>948.1</ele>
        <time>2021-08-12T14:52:48Z</time>
      </trkpt>
      <trkpt lat="47.1477" lon="6.81759">
        <ele>948.1</ele>
        <time>2021-08-12T14:52:49Z</time>
      </trkpt>
      <trkpt lat="47.14769" lon="6.81756">
        <ele>948.3</ele>
        <time>2021-08-12T14:52:51Z</time>
      </trkpt>
      <trkpt lat="47.14767" lon="6.81753">
        <ele>948.5</ele>
        <time>2021-08-12T14:52:53Z</time>
      </trkpt>
      <trkpt lat="47.14765" lon="6.81749">
        <ele>948.6</ele>
        <time>2021-08-12T14:52:54Z</time>
      </trkpt>
      <trkpt lat="47.14764" lon="6.81747">
        <ele>948.7</ele>
        <time>2021-08-12T14:52:55Z</time>
      </trkpt>
      <trkpt lat="47.14763" lon="6.81745">
        <ele>948.8</ele>
        <time>2021-08-12T14:52:56Z</time>
      </trkpt>
      <trkpt lat="47.14762" lon="6.81743">
        <ele>948.9</ele>
        <time>2021-08-12T14:52:57Z</time>
      </trkpt>
      <trkpt lat="47.14761" lon="6.81741">
        <ele>949</ele>
        <time>2021-08-12T14:52:58Z</time>
      </trkpt>
      <trkpt lat="47.1476" lon="6.81739">
        <ele>949.1</ele>
        <time>2021-08-12T14:52:59Z</time>
      </trkpt>
      <trkpt lat="47.14758" lon="6.81735">
        <ele>949.3</ele>
        <time>2021-08-12T14:53:01Z</time>
      </trkpt>
      <trkpt lat="47.14757" lon="6.81733">
        <ele>949.4</ele>
        <time>2021-08-12T14:53:02Z</time>
      </trkpt>
      <trkpt lat="47.14754" lon="6.8173">
        <ele>949.6</ele>
        <time>2021-08-12T14:53:04Z</time>
      </trkpt>
      <trkpt lat="47.14753" lon="6.81726">
        <ele>949.7</ele>
        <time>2021-08-12T14:53:05Z</time>
      </trkpt>
      <trkpt lat="47.14752" lon="6.81725">
        <ele>949.8</ele>
        <time>2021-08-12T14:53:06Z</time>
      </trkpt>
      <trkpt lat="47.14751" lon="6.81721">
        <ele>949.9</ele>
        <time>2021-08-12T14:53:07Z</time>
      </trkpt>
      <trkpt lat="47.14748" lon="6.81713">
        <ele>950.1</ele>
        <time>2021-08-12T14:53:09Z</time>
      </trkpt>
      <trkpt lat="47.14746" lon="6.81706">
        <ele>950.3</ele>
        <time>2021-08-12T14:53:11Z</time>
      </trkpt>
      <trkpt lat="47.14745" lon="6.81699">
        <ele>950.5</ele>
        <time>2021-08-12T14:53:13Z</time>
      </trkpt>
      <trkpt lat="47.14744" lon="6.81695">
        <ele>950.6</ele>
        <time>2021-08-12T14:53:14Z</time>
      </trkpt>
      <trkpt lat="47.14743" lon="6.81688">
        <ele>950.8</ele>
        <time>2021-08-12T14:53:16Z</time>
      </trkpt>
      <trkpt lat="47.14742" lon="6.81683">
        <ele>950.9</ele>
        <time>2021-08-12T14:53:17Z</time>
      </trkpt>
      <trkpt lat="47.14741" lon="6.81678">
        <ele>951</ele>
        <time>2021-08-12T14:53:19Z</time>
      </trkpt>
      <trkpt lat="47.1474" lon="6.81674">
        <ele>951.1</ele>
        <time>2021-08-12T14:53:20Z</time>
      </trkpt>
      <trkpt lat="47.14738" lon="6.81665">
        <ele>951.3</ele>
        <time>2021-08-12T14:53:22Z</time>
      </trkpt>
      <trkpt lat="47.14736" lon="6.81659">
        <ele>951.3</ele>
        <time>2021-08-12T14:53:24Z</time>
      </trkpt>
      <trkpt lat="47.14734" lon="6.81654">
        <ele>951.4</ele>
        <time>2021-08-12T14:53:25Z</time>
      </trkpt>
      <trkpt lat="47.14733" lon="6.8165">
        <ele>951.5</ele>
        <time>2021-08-12T14:53:26Z</time>
      </trkpt>
      <trkpt lat="47.14731" lon="6.81643">
        <ele>951.5</ele>
        <time>2021-08-12T14:53:27Z</time>
      </trkpt>
      <trkpt lat="47.14729" lon="6.81636">
        <ele>951.6</ele>
        <time>2021-08-12T14:53:29Z</time>
      </trkpt>
      <trkpt lat="47.14727" lon="6.8163">
        <ele>951.6</ele>
        <time>2021-08-12T14:53:30Z</time>
      </trkpt>
      <trkpt lat="47.14726" lon="6.81624">
        <ele>951.6</ele>
        <time>2021-08-12T14:53:31Z</time>
      </trkpt>
      <trkpt lat="47.14725" lon="6.81619">
        <ele>951.7</ele>
        <time>2021-08-12T14:53:32Z</time>
      </trkpt>
      <trkpt lat="47.14724" lon="6.81611">
        <ele>951.7</ele>
        <time>2021-08-12T14:53:33Z</time>
      </trkpt>
      <trkpt lat="47.14725" lon="6.81605">
        <ele>951.7</ele>
        <time>2021-08-12T14:53:34Z</time>
      </trkpt>
      <trkpt lat="47.14723" lon="6.81598">
        <ele>951.7</ele>
        <time>2021-08-12T14:53:36Z</time>
      </trkpt>
      <trkpt lat="47.14723" lon="6.81594">
        <ele>951.7</ele>
        <time>2021-08-12T14:53:37Z</time>
      </trkpt>
      <trkpt lat="47.14723" lon="6.8159">
        <ele>951.6</ele>
        <time>2021-08-12T14:53:38Z</time>
      </trkpt>
      <trkpt lat="47.14723" lon="6.81583">
        <ele>951.6</ele>
        <time>2021-08-12T14:53:39Z</time>
      </trkpt>
      <trkpt lat="47.14724" lon="6.81574">
        <ele>951.5</ele>
        <time>2021-08-12T14:53:41Z</time>
      </trkpt>
      <trkpt lat="47.14725" lon="6.81568">
        <ele>951.4</ele>
        <time>2021-08-12T14:53:42Z</time>
      </trkpt>
      <trkpt lat="47.14726" lon="6.81561">
        <ele>951.3</ele>
        <time>2021-08-12T14:53:43Z</time>
      </trkpt>
      <trkpt lat="47.14727" lon="6.81554">
        <ele>951.2</ele>
        <time>2021-08-12T14:53:44Z</time>
      </trkpt>
      <trkpt lat="47.1473" lon="6.81542">
        <ele>950.9</ele>
        <time>2021-08-12T14:53:46Z</time>
      </trkpt>
      <trkpt lat="47.14732" lon="6.81536">
        <ele>950.7</ele>
        <time>2021-08-12T14:53:47Z</time>
      </trkpt>
      <trkpt lat="47.14734" lon="6.8153">
        <ele>950.6</ele>
        <time>2021-08-12T14:53:48Z</time>
      </trkpt>
      <trkpt lat="47.14737" lon="6.81522">
        <ele>950.3</ele>
        <time>2021-08-12T14:53:49Z</time>
      </trkpt>
      <trkpt lat="47.14739" lon="6.81514">
        <ele>950.1</ele>
        <time>2021-08-12T14:53:51Z</time>
      </trkpt>
      <trkpt lat="47.14741" lon="6.81509">
        <ele>949.9</ele>
        <time>2021-08-12T14:53:52Z</time>
      </trkpt>
      <trkpt lat="47.14743" lon="6.81503">
        <ele>949.7</ele>
        <time>2021-08-12T14:53:53Z</time>
      </trkpt>
      <trkpt lat="47.14744" lon="6.81494">
        <ele>949.4</ele>
        <time>2021-08-12T14:53:54Z</time>
      </trkpt>
      <trkpt lat="47.14749" lon="6.81478">
        <ele>948.8</ele>
        <time>2021-08-12T14:53:56Z</time>
      </trkpt>
      <trkpt lat="47.14752" lon="6.81462">
        <ele>948.2</ele>
        <time>2021-08-12T14:53:58Z</time>
      </trkpt>
      <trkpt lat="47.14755" lon="6.81452">
        <ele>947.8</ele>
        <time>2021-08-12T14:53:59Z</time>
      </trkpt>
      <trkpt lat="47.14759" lon="6.81431">
        <ele>946.9</ele>
        <time>2021-08-12T14:54:01Z</time>
      </trkpt>
      <trkpt lat="47.1476" lon="6.81421">
        <ele>946.5</ele>
        <time>2021-08-12T14:54:02Z</time>
      </trkpt>
      <trkpt lat="47.14764" lon="6.81399">
        <ele>945.7</ele>
        <time>2021-08-12T14:54:04Z</time>
      </trkpt>
      <trkpt lat="47.14766" lon="6.81388">
        <ele>945.2</ele>
        <time>2021-08-12T14:54:05Z</time>
      </trkpt>
      <trkpt lat="47.14768" lon="6.81365">
        <ele>944.3</ele>
        <time>2021-08-12T14:54:07Z</time>
      </trkpt>
      <trkpt lat="47.14768" lon="6.81352">
        <ele>943.9</ele>
        <time>2021-08-12T14:54:08Z</time>
      </trkpt>
      <trkpt lat="47.14767" lon="6.81328">
        <ele>943.5</ele>
        <time>2021-08-12T14:54:10Z</time>
      </trkpt>
      <trkpt lat="47.14766" lon="6.81318">
        <ele>943.4</ele>
        <time>2021-08-12T14:54:11Z</time>
      </trkpt>
      <trkpt lat="47.14764" lon="6.81308">
        <ele>943.2</ele>
        <time>2021-08-12T14:54:12Z</time>
      </trkpt>
      <trkpt lat="47.14759" lon="6.81288">
        <ele>943</ele>
        <time>2021-08-12T14:54:14Z</time>
      </trkpt>
      <trkpt lat="47.14755" lon="6.81277">
        <ele>942.9</ele>
        <time>2021-08-12T14:54:15Z</time>
      </trkpt>
      <trkpt lat="47.14745" lon="6.81259">
        <ele>942.7</ele>
        <time>2021-08-12T14:54:17Z</time>
      </trkpt>
      <trkpt lat="47.14741" lon="6.81251">
        <ele>942.7</ele>
        <time>2021-08-12T14:54:18Z</time>
      </trkpt>
      <trkpt lat="47.14732" lon="6.81233">
        <ele>942.7</ele>
        <time>2021-08-12T14:54:20Z</time>
      </trkpt>
      <trkpt lat="47.14724" lon="6.81216">
        <ele>943</ele>
        <time>2021-08-12T14:54:22Z</time>
      </trkpt>
      <trkpt lat="47.1472" lon="6.81208">
        <ele>943.3</ele>
        <time>2021-08-12T14:54:23Z</time>
      </trkpt>
      <trkpt lat="47.14716" lon="6.812">
        <ele>943.5</ele>
        <time>2021-08-12T14:54:24Z</time>
      </trkpt>
      <trkpt lat="47.1471" lon="6.81185">
        <ele>944.1</ele>
        <time>2021-08-12T14:54:26Z</time>
      </trkpt>
      <trkpt lat="47.14705" lon="6.81173">
        <ele>944.6</ele>
        <time>2021-08-12T14:54:28Z</time>
      </trkpt>
      <trkpt lat="47.14703" lon="6.81168">
        <ele>944.7</ele>
        <time>2021-08-12T14:54:29Z</time>
      </trkpt>
      <trkpt lat="47.147" lon="6.81159">
        <ele>945.1</ele>
        <time>2021-08-12T14:54:31Z</time>
      </trkpt>
      <trkpt lat="47.14698" lon="6.81153">
        <ele>945.4</ele>
        <time>2021-08-12T14:54:32Z</time>
      </trkpt>
      <trkpt lat="47.14697" lon="6.81144">
        <ele>945.8</ele>
        <time>2021-08-12T14:54:34Z</time>
      </trkpt>
      <trkpt lat="47.14696" lon="6.81138">
        <ele>946.1</ele>
        <time>2021-08-12T14:54:35Z</time>
      </trkpt>
      <trkpt lat="47.14697" lon="6.81134">
        <ele>946.2</ele>
        <time>2021-08-12T14:54:36Z</time>
      </trkpt>
      <trkpt lat="47.14697" lon="6.81132">
        <ele>946.3</ele>
        <time>2021-08-12T14:54:37Z</time>
      </trkpt>
      <trkpt lat="47.14696" lon="6.81126">
        <ele>946.6</ele>
        <time>2021-08-12T14:54:39Z</time>
      </trkpt>
      <trkpt lat="47.14695" lon="6.8112">
        <ele>947</ele>
        <time>2021-08-12T14:54:40Z</time>
      </trkpt>
      <trkpt lat="47.14695" lon="6.81114">
        <ele>947.3</ele>
        <time>2021-08-12T14:54:41Z</time>
      </trkpt>
      <trkpt lat="47.14693" lon="6.81108">
        <ele>947.7</ele>
        <time>2021-08-12T14:54:43Z</time>
      </trkpt>
      <trkpt lat="47.14692" lon="6.81104">
        <ele>948</ele>
        <time>2021-08-12T14:54:44Z</time>
      </trkpt>
      <trkpt lat="47.1469" lon="6.811">
        <ele>948.2</ele>
        <time>2021-08-12T14:54:45Z</time>
      </trkpt>
      <trkpt lat="47.14689" lon="6.81095">
        <ele>948.5</ele>
        <time>2021-08-12T14:54:47Z</time>
      </trkpt>
      <trkpt lat="47.14687" lon="6.81091">
        <ele>948.8</ele>
        <time>2021-08-12T14:54:48Z</time>
      </trkpt>
      <trkpt lat="47.14687" lon="6.81089">
        <ele>948.9</ele>
        <time>2021-08-12T14:54:49Z</time>
      </trkpt>
      <trkpt lat="47.14686" lon="6.81086">
        <ele>949.1</ele>
        <time>2021-08-12T14:54:51Z</time>
      </trkpt>
      <trkpt lat="47.14685" lon="6.81083">
        <ele>949.3</ele>
        <time>2021-08-12T14:54:53Z</time>
      </trkpt>
      <trkpt lat="47.14684" lon="6.81082">
        <ele>949.4</ele>
        <time>2021-08-12T14:54:54Z</time>
      </trkpt>
      <trkpt lat="47.14684" lon="6.81081">
        <ele>949.4</ele>
        <time>2021-08-12T14:54:55Z</time>
      </trkpt>
      <trkpt lat="47.14684" lon="6.81079">
        <ele>949.5</ele>
        <time>2021-08-12T14:54:56Z</time>
      </trkpt>
      <trkpt lat="47.14682" lon="6.81075">
        <ele>949.8</ele>
        <time>2021-08-12T14:54:57Z</time>
      </trkpt>
      <trkpt lat="47.1468" lon="6.81071">
        <ele>950</ele>
        <time>2021-08-12T14:54:59Z</time>
      </trkpt>
      <trkpt lat="47.14679" lon="6.8107">
        <ele>950.2</ele>
        <time>2021-08-12T14:55:00Z</time>
      </trkpt>
      <trkpt lat="47.14676" lon="6.81068">
        <ele>950.4</ele>
        <time>2021-08-12T14:55:01Z</time>
      </trkpt>
      <trkpt lat="47.14675" lon="6.81064">
        <ele>950.7</ele>
        <time>2021-08-12T14:55:02Z</time>
      </trkpt>
      <trkpt lat="47.14674" lon="6.81063">
        <ele>950.7</ele>
        <time>2021-08-12T14:55:03Z</time>
      </trkpt>
      <trkpt lat="47.14674" lon="6.81058">
        <ele>951</ele>
        <time>2021-08-12T14:55:04Z</time>
      </trkpt>
      <trkpt lat="47.14674" lon="6.81057">
        <ele>951</ele>
        <time>2021-08-12T14:55:05Z</time>
      </trkpt>
      <trkpt lat="47.14674" lon="6.81053">
        <ele>951.2</ele>
        <time>2021-08-12T14:55:06Z</time>
      </trkpt>
      <trkpt lat="47.14674" lon="6.81052">
        <ele>951.3</ele>
        <time>2021-08-12T14:55:07Z</time>
      </trkpt>
      <trkpt lat="47.14672" lon="6.81048">
        <ele>951.5</ele>
        <time>2021-08-12T14:55:08Z</time>
      </trkpt>
      <trkpt lat="47.14671" lon="6.81047">
        <ele>951.6</ele>
        <time>2021-08-12T14:55:09Z</time>
      </trkpt>
      <trkpt lat="47.1467" lon="6.81044">
        <ele>951.8</ele>
        <time>2021-08-12T14:55:10Z</time>
      </trkpt>
      <trkpt lat="47.14669" lon="6.81041">
        <ele>951.9</ele>
        <time>2021-08-12T14:55:12Z</time>
      </trkpt>
      <trkpt lat="47.14667" lon="6.81038">
        <ele>952.1</ele>
        <time>2021-08-12T14:55:13Z</time>
      </trkpt>
      <trkpt lat="47.14665" lon="6.81034">
        <ele>952.4</ele>
        <time>2021-08-12T14:55:14Z</time>
      </trkpt>
      <trkpt lat="47.14662" lon="6.81032">
        <ele>952.6</ele>
        <time>2021-08-12T14:55:15Z</time>
      </trkpt>
      <trkpt lat="47.14658" lon="6.81028">
        <ele>952.9</ele>
        <time>2021-08-12T14:55:16Z</time>
      </trkpt>
      <trkpt lat="47.14657" lon="6.81026">
        <ele>953</ele>
        <time>2021-08-12T14:55:17Z</time>
      </trkpt>
      <trkpt lat="47.14656" lon="6.81023">
        <ele>953.2</ele>
        <time>2021-08-12T14:55:18Z</time>
      </trkpt>
      <trkpt lat="47.14655" lon="6.81017">
        <ele>953.4</ele>
        <time>2021-08-12T14:55:19Z</time>
      </trkpt>
      <trkpt lat="47.14655" lon="6.81015">
        <ele>953.5</ele>
        <time>2021-08-12T14:55:20Z</time>
      </trkpt>
      <trkpt lat="47.14654" lon="6.81012">
        <ele>953.7</ele>
        <time>2021-08-12T14:55:22Z</time>
      </trkpt>
      <trkpt lat="47.14653" lon="6.81008">
        <ele>953.9</ele>
        <time>2021-08-12T14:55:24Z</time>
      </trkpt>
      <trkpt lat="47.14652" lon="6.81004">
        <ele>954.1</ele>
        <time>2021-08-12T14:55:26Z</time>
      </trkpt>
      <trkpt lat="47.14651" lon="6.81002">
        <ele>954.2</ele>
        <time>2021-08-12T14:55:27Z</time>
      </trkpt>
      <trkpt lat="47.14649" lon="6.80999">
        <ele>954.3</ele>
        <time>2021-08-12T14:55:29Z</time>
      </trkpt>
      <trkpt lat="47.14647" lon="6.80999">
        <ele>954.4</ele>
        <time>2021-08-12T14:55:30Z</time>
      </trkpt>
      <trkpt lat="47.14647" lon="6.80999">
        <ele>954.5</ele>
        <time>2021-08-12T14:55:31Z</time>
      </trkpt>
      <trkpt lat="47.14647" lon="6.80999">
        <ele>954.5</ele>
        <time>2021-08-12T14:55:32Z</time>
      </trkpt>
      <trkpt lat="47.14646" lon="6.80999">
        <ele>954.6</ele>
        <time>2021-08-12T14:55:33Z</time>
      </trkpt>
      <trkpt lat="47.14644" lon="6.80997">
        <ele>954.7</ele>
        <time>2021-08-12T14:55:35Z</time>
      </trkpt>
      <trkpt lat="47.14643" lon="6.80992">
        <ele>954.9</ele>
        <time>2021-08-12T14:55:37Z</time>
      </trkpt>
      <trkpt lat="47.14644" lon="6.8099">
        <ele>955</ele>
        <time>2021-08-12T14:55:38Z</time>
      </trkpt>
      <trkpt lat="47.14643" lon="6.80991">
        <ele>955</ele>
        <time>2021-08-12T14:55:39Z</time>
      </trkpt>
      <trkpt lat="47.14643" lon="6.8099">
        <ele>955.1</ele>
        <time>2021-08-12T14:55:41Z</time>
      </trkpt>
      <trkpt lat="47.14642" lon="6.8099">
        <ele>955.1</ele>
        <time>2021-08-12T14:55:42Z</time>
      </trkpt>
      <trkpt lat="47.14641" lon="6.80989">
        <ele>955.2</ele>
        <time>2021-08-12T14:55:43Z</time>
      </trkpt>
      <trkpt lat="47.14639" lon="6.80988">
        <ele>955.3</ele>
        <time>2021-08-12T14:55:45Z</time>
      </trkpt>
      <trkpt lat="47.14638" lon="6.80985">
        <ele>955.5</ele>
        <time>2021-08-12T14:55:47Z</time>
      </trkpt>
      <trkpt lat="47.14636" lon="6.80982">
        <ele>955.7</ele>
        <time>2021-08-12T14:55:49Z</time>
      </trkpt>
      <trkpt lat="47.14634" lon="6.80975">
        <ele>956.1</ele>
        <time>2021-08-12T14:55:51Z</time>
      </trkpt>
      <trkpt lat="47.14633" lon="6.80968">
        <ele>956.5</ele>
        <time>2021-08-12T14:55:53Z</time>
      </trkpt>
      <trkpt lat="47.1463" lon="6.80959">
        <ele>956.9</ele>
        <time>2021-08-12T14:55:55Z</time>
      </trkpt>
      <trkpt lat="47.14629" lon="6.80957">
        <ele>957.1</ele>
        <time>2021-08-12T14:55:56Z</time>
      </trkpt>
      <trkpt lat="47.14628" lon="6.80953">
        <ele>957.3</ele>
        <time>2021-08-12T14:55:58Z</time>
      </trkpt>
      <trkpt lat="47.14627" lon="6.8095">
        <ele>957.4</ele>
        <time>2021-08-12T14:55:59Z</time>
      </trkpt>
      <trkpt lat="47.14627" lon="6.80948">
        <ele>957.5</ele>
        <time>2021-08-12T14:56:00Z</time>
      </trkpt>
      <trkpt lat="47.14628" lon="6.80943">
        <ele>957.7</ele>
        <time>2021-08-12T14:56:02Z</time>
      </trkpt>
      <trkpt lat="47.14627" lon="6.80937">
        <ele>958</ele>
        <time>2021-08-12T14:56:03Z</time>
      </trkpt>
      <trkpt lat="47.14627" lon="6.80935">
        <ele>958.1</ele>
        <time>2021-08-12T14:56:04Z</time>
      </trkpt>
      <trkpt lat="47.14625" lon="6.80932">
        <ele>958.3</ele>
        <time>2021-08-12T14:56:06Z</time>
      </trkpt>
      <trkpt lat="47.14623" lon="6.80929">
        <ele>958.4</ele>
        <time>2021-08-12T14:56:07Z</time>
      </trkpt>
      <trkpt lat="47.14621" lon="6.80924">
        <ele>958.6</ele>
        <time>2021-08-12T14:56:09Z</time>
      </trkpt>
      <trkpt lat="47.14619" lon="6.80921">
        <ele>958.7</ele>
        <time>2021-08-12T14:56:10Z</time>
      </trkpt>
      <trkpt lat="47.14617" lon="6.80918">
        <ele>958.9</ele>
        <time>2021-08-12T14:56:11Z</time>
      </trkpt>
      <trkpt lat="47.14614" lon="6.80914">
        <ele>959.1</ele>
        <time>2021-08-12T14:56:13Z</time>
      </trkpt>
      <trkpt lat="47.14611" lon="6.80912">
        <ele>959.2</ele>
        <time>2021-08-12T14:56:14Z</time>
      </trkpt>
      <trkpt lat="47.14608" lon="6.8091">
        <ele>959.4</ele>
        <time>2021-08-12T14:56:15Z</time>
      </trkpt>
      <trkpt lat="47.14605" lon="6.80907">
        <ele>959.5</ele>
        <time>2021-08-12T14:56:17Z</time>
      </trkpt>
      <trkpt lat="47.14602" lon="6.80905">
        <ele>959.6</ele>
        <time>2021-08-12T14:56:18Z</time>
      </trkpt>
      <trkpt lat="47.14598" lon="6.80901">
        <ele>959.8</ele>
        <time>2021-08-12T14:56:20Z</time>
      </trkpt>
      <trkpt lat="47.14596" lon="6.80896">
        <ele>959.9</ele>
        <time>2021-08-12T14:56:21Z</time>
      </trkpt>
      <trkpt lat="47.14594" lon="6.80894">
        <ele>960</ele>
        <time>2021-08-12T14:56:22Z</time>
      </trkpt>
      <trkpt lat="47.14593" lon="6.8089">
        <ele>960</ele>
        <time>2021-08-12T14:56:24Z</time>
      </trkpt>
      <trkpt lat="47.1459" lon="6.80885">
        <ele>960.2</ele>
        <time>2021-08-12T14:56:26Z</time>
      </trkpt>
      <trkpt lat="47.14587" lon="6.80881">
        <ele>960.3</ele>
        <time>2021-08-12T14:56:27Z</time>
      </trkpt>
      <trkpt lat="47.14585" lon="6.80879">
        <ele>960.3</ele>
        <time>2021-08-12T14:56:28Z</time>
      </trkpt>
      <trkpt lat="47.14582" lon="6.80875">
        <ele>960.4</ele>
        <time>2021-08-12T14:56:30Z</time>
      </trkpt>
      <trkpt lat="47.1458" lon="6.80871">
        <ele>960.5</ele>
        <time>2021-08-12T14:56:31Z</time>
      </trkpt>
      <trkpt lat="47.14579" lon="6.80867">
        <ele>960.6</ele>
        <time>2021-08-12T14:56:32Z</time>
      </trkpt>
      <trkpt lat="47.14578" lon="6.80865">
        <ele>960.6</ele>
        <time>2021-08-12T14:56:33Z</time>
      </trkpt>
      <trkpt lat="47.14576" lon="6.80861">
        <ele>960.7</ele>
        <time>2021-08-12T14:56:34Z</time>
      </trkpt>
      <trkpt lat="47.14575" lon="6.80859">
        <ele>960.8</ele>
        <time>2021-08-12T14:56:35Z</time>
      </trkpt>
      <trkpt lat="47.14574" lon="6.80854">
        <ele>960.9</ele>
        <time>2021-08-12T14:56:36Z</time>
      </trkpt>
      <trkpt lat="47.14573" lon="6.80852">
        <ele>961</ele>
        <time>2021-08-12T14:56:37Z</time>
      </trkpt>
      <trkpt lat="47.14572" lon="6.80849">
        <ele>961</ele>
        <time>2021-08-12T14:56:39Z</time>
      </trkpt>
      <trkpt lat="47.1457" lon="6.80842">
        <ele>961.2</ele>
        <time>2021-08-12T14:56:41Z</time>
      </trkpt>
      <trkpt lat="47.14569" lon="6.80839">
        <ele>961.3</ele>
        <time>2021-08-12T14:56:42Z</time>
      </trkpt>
      <trkpt lat="47.14568" lon="6.80837">
        <ele>961.3</ele>
        <time>2021-08-12T14:56:43Z</time>
      </trkpt>
      <trkpt lat="47.14567" lon="6.80832">
        <ele>961.5</ele>
        <time>2021-08-12T14:56:45Z</time>
      </trkpt>
      <trkpt lat="47.14565" lon="6.80826">
        <ele>961.6</ele>
        <time>2021-08-12T14:56:46Z</time>
      </trkpt>
      <trkpt lat="47.14564" lon="6.80824">
        <ele>961.7</ele>
        <time>2021-08-12T14:56:47Z</time>
      </trkpt>
      <trkpt lat="47.14562" lon="6.8082">
        <ele>961.8</ele>
        <time>2021-08-12T14:56:49Z</time>
      </trkpt>
      <trkpt lat="47.1456" lon="6.80817">
        <ele>961.9</ele>
        <time>2021-08-12T14:56:50Z</time>
      </trkpt>
      <trkpt lat="47.14557" lon="6.80813">
        <ele>962</ele>
        <time>2021-08-12T14:56:52Z</time>
      </trkpt>
      <trkpt lat="47.14554" lon="6.8081">
        <ele>962.1</ele>
        <time>2021-08-12T14:56:53Z</time>
      </trkpt>
      <trkpt lat="47.14552" lon="6.80807">
        <ele>962.2</ele>
        <time>2021-08-12T14:56:54Z</time>
      </trkpt>
      <trkpt lat="47.1455" lon="6.80804">
        <ele>962.3</ele>
        <time>2021-08-12T14:56:55Z</time>
      </trkpt>
      <trkpt lat="47.14548" lon="6.80801">
        <ele>962.4</ele>
        <time>2021-08-12T14:56:56Z</time>
      </trkpt>
      <trkpt lat="47.14546" lon="6.80796">
        <ele>962.5</ele>
        <time>2021-08-12T14:56:58Z</time>
      </trkpt>
      <trkpt lat="47.14544" lon="6.80792">
        <ele>962.6</ele>
        <time>2021-08-12T14:56:59Z</time>
      </trkpt>
      <trkpt lat="47.14543" lon="6.80791">
        <ele>962.6</ele>
        <time>2021-08-12T14:57:00Z</time>
      </trkpt>
      <trkpt lat="47.14541" lon="6.80787">
        <ele>962.7</ele>
        <time>2021-08-12T14:57:01Z</time>
      </trkpt>
      <trkpt lat="47.14538" lon="6.80782">
        <ele>962.8</ele>
        <time>2021-08-12T14:57:03Z</time>
      </trkpt>
      <trkpt lat="47.14536" lon="6.80777">
        <ele>962.8</ele>
        <time>2021-08-12T14:57:04Z</time>
      </trkpt>
      <trkpt lat="47.14532" lon="6.80769">
        <ele>962.9</ele>
        <time>2021-08-12T14:57:06Z</time>
      </trkpt>
      <trkpt lat="47.1453" lon="6.80766">
        <ele>963</ele>
        <time>2021-08-12T14:57:07Z</time>
      </trkpt>
      <trkpt lat="47.14529" lon="6.80762">
        <ele>963</ele>
        <time>2021-08-12T14:57:08Z</time>
      </trkpt>
      <trkpt lat="47.14525" lon="6.80755">
        <ele>963.1</ele>
        <time>2021-08-12T14:57:10Z</time>
      </trkpt>
      <trkpt lat="47.14523" lon="6.8075">
        <ele>963.2</ele>
        <time>2021-08-12T14:57:12Z</time>
      </trkpt>
      <trkpt lat="47.14522" lon="6.80747">
        <ele>963.2</ele>
        <time>2021-08-12T14:57:13Z</time>
      </trkpt>
      <trkpt lat="47.14519" lon="6.80742">
        <ele>963.2</ele>
        <time>2021-08-12T14:57:15Z</time>
      </trkpt>
      <trkpt lat="47.14517" lon="6.80738">
        <ele>963.3</ele>
        <time>2021-08-12T14:57:16Z</time>
      </trkpt>
      <trkpt lat="47.14515" lon="6.80731">
        <ele>963.3</ele>
        <time>2021-08-12T14:57:17Z</time>
      </trkpt>
      <trkpt lat="47.14512" lon="6.80727">
        <ele>963.3</ele>
        <time>2021-08-12T14:57:19Z</time>
      </trkpt>
      <trkpt lat="47.14511" lon="6.80723">
        <ele>963.3</ele>
        <time>2021-08-12T14:57:20Z</time>
      </trkpt>
      <trkpt lat="47.14509" lon="6.80715">
        <ele>963.3</ele>
        <time>2021-08-12T14:57:22Z</time>
      </trkpt>
      <trkpt lat="47.14508" lon="6.80712">
        <ele>963.3</ele>
        <time>2021-08-12T14:57:23Z</time>
      </trkpt>
      <trkpt lat="47.14507" lon="6.80703">
        <ele>963.3</ele>
        <time>2021-08-12T14:57:25Z</time>
      </trkpt>
      <trkpt lat="47.14507" lon="6.807">
        <ele>963.3</ele>
        <time>2021-08-12T14:57:26Z</time>
      </trkpt>
      <trkpt lat="47.14506" lon="6.80692">
        <ele>963.4</ele>
        <time>2021-08-12T14:57:28Z</time>
      </trkpt>
      <trkpt lat="47.14505" lon="6.80689">
        <ele>963.4</ele>
        <time>2021-08-12T14:57:29Z</time>
      </trkpt>
      <trkpt lat="47.14504" lon="6.80684">
        <ele>963.5</ele>
        <time>2021-08-12T14:57:30Z</time>
      </trkpt>
      <trkpt lat="47.14504" lon="6.80682">
        <ele>963.5</ele>
        <time>2021-08-12T14:57:31Z</time>
      </trkpt>
      <trkpt lat="47.14504" lon="6.80679">
        <ele>963.5</ele>
        <time>2021-08-12T14:57:32Z</time>
      </trkpt>
      <trkpt lat="47.14504" lon="6.80676">
        <ele>963.5</ele>
        <time>2021-08-12T14:57:34Z</time>
      </trkpt>
      <trkpt lat="47.14505" lon="6.8067">
        <ele>963.6</ele>
        <time>2021-08-12T14:57:35Z</time>
      </trkpt>
      <trkpt lat="47.14505" lon="6.80667">
        <ele>963.6</ele>
        <time>2021-08-12T14:57:36Z</time>
      </trkpt>
      <trkpt lat="47.14505" lon="6.80662">
        <ele>963.7</ele>
        <time>2021-08-12T14:57:37Z</time>
      </trkpt>
      <trkpt lat="47.14504" lon="6.80656">
        <ele>963.7</ele>
        <time>2021-08-12T14:57:39Z</time>
      </trkpt>
      <trkpt lat="47.14505" lon="6.8065">
        <ele>963.8</ele>
        <time>2021-08-12T14:57:40Z</time>
      </trkpt>
      <trkpt lat="47.14505" lon="6.80645">
        <ele>963.9</ele>
        <time>2021-08-12T14:57:41Z</time>
      </trkpt>
      <trkpt lat="47.14505" lon="6.80638">
        <ele>964</ele>
        <time>2021-08-12T14:57:42Z</time>
      </trkpt>
      <trkpt lat="47.14505" lon="6.80635">
        <ele>964</ele>
        <time>2021-08-12T14:57:43Z</time>
      </trkpt>
      <trkpt lat="47.14506" lon="6.8063">
        <ele>964.1</ele>
        <time>2021-08-12T14:57:45Z</time>
      </trkpt>
      <trkpt lat="47.14506" lon="6.80625">
        <ele>964.2</ele>
        <time>2021-08-12T14:57:46Z</time>
      </trkpt>
      <trkpt lat="47.14506" lon="6.80617">
        <ele>964.4</ele>
        <time>2021-08-12T14:57:48Z</time>
      </trkpt>
      <trkpt lat="47.14506" lon="6.80611">
        <ele>964.5</ele>
        <time>2021-08-12T14:57:49Z</time>
      </trkpt>
      <trkpt lat="47.14504" lon="6.80606">
        <ele>964.7</ele>
        <time>2021-08-12T14:57:51Z</time>
      </trkpt>
      <trkpt lat="47.14504" lon="6.80602">
        <ele>964.8</ele>
        <time>2021-08-12T14:57:52Z</time>
      </trkpt>
      <trkpt lat="47.14504" lon="6.80594">
        <ele>965</ele>
        <time>2021-08-12T14:57:54Z</time>
      </trkpt>
      <trkpt lat="47.14504" lon="6.8059">
        <ele>965.2</ele>
        <time>2021-08-12T14:57:55Z</time>
      </trkpt>
      <trkpt lat="47.14504" lon="6.80585">
        <ele>965.4</ele>
        <time>2021-08-12T14:57:56Z</time>
      </trkpt>
      <trkpt lat="47.14504" lon="6.80583">
        <ele>965.4</ele>
        <time>2021-08-12T14:57:57Z</time>
      </trkpt>
      <trkpt lat="47.14503" lon="6.80578">
        <ele>965.6</ele>
        <time>2021-08-12T14:57:58Z</time>
      </trkpt>
      <trkpt lat="47.14503" lon="6.80577">
        <ele>965.6</ele>
        <time>2021-08-12T14:57:59Z</time>
      </trkpt>
      <trkpt lat="47.14502" lon="6.80572">
        <ele>965.8</ele>
        <time>2021-08-12T14:58:00Z</time>
      </trkpt>
      <trkpt lat="47.14502" lon="6.80571">
        <ele>965.8</ele>
        <time>2021-08-12T14:58:01Z</time>
      </trkpt>
      <trkpt lat="47.14502" lon="6.80567">
        <ele>966</ele>
        <time>2021-08-12T14:58:02Z</time>
      </trkpt>
      <trkpt lat="47.14502" lon="6.80565">
        <ele>966</ele>
        <time>2021-08-12T14:58:03Z</time>
      </trkpt>
      <trkpt lat="47.14501" lon="6.80562">
        <ele>966.1</ele>
        <time>2021-08-12T14:58:04Z</time>
      </trkpt>
      <trkpt lat="47.145" lon="6.80559">
        <ele>966.2</ele>
        <time>2021-08-12T14:58:06Z</time>
      </trkpt>
      <trkpt lat="47.14498" lon="6.80554">
        <ele>966.4</ele>
        <time>2021-08-12T14:58:07Z</time>
      </trkpt>
      <trkpt lat="47.14497" lon="6.80553">
        <ele>966.5</ele>
        <time>2021-08-12T14:58:08Z</time>
      </trkpt>
      <trkpt lat="47.14495" lon="6.8055">
        <ele>966.6</ele>
        <time>2021-08-12T14:58:09Z</time>
      </trkpt>
      <trkpt lat="47.14491" lon="6.80544">
        <ele>966.9</ele>
        <time>2021-08-12T14:58:11Z</time>
      </trkpt>
      <trkpt lat="47.14489" lon="6.80541">
        <ele>967</ele>
        <time>2021-08-12T14:58:12Z</time>
      </trkpt>
      <trkpt lat="47.14487" lon="6.80538">
        <ele>967.2</ele>
        <time>2021-08-12T14:58:13Z</time>
      </trkpt>
      <trkpt lat="47.14484" lon="6.80532">
        <ele>967.4</ele>
        <time>2021-08-12T14:58:14Z</time>
      </trkpt>
      <trkpt lat="47.14483" lon="6.8053">
        <ele>967.5</ele>
        <time>2021-08-12T14:58:15Z</time>
      </trkpt>
      <trkpt lat="47.14481" lon="6.80525">
        <ele>967.6</ele>
        <time>2021-08-12T14:58:17Z</time>
      </trkpt>
      <trkpt lat="47.1448" lon="6.80524">
        <ele>967.7</ele>
        <time>2021-08-12T14:58:18Z</time>
      </trkpt>
      <trkpt lat="47.14478" lon="6.80521">
        <ele>967.8</ele>
        <time>2021-08-12T14:58:19Z</time>
      </trkpt>
      <trkpt lat="47.14477" lon="6.80518">
        <ele>967.9</ele>
        <time>2021-08-12T14:58:20Z</time>
      </trkpt>
      <trkpt lat="47.14475" lon="6.80511">
        <ele>968.2</ele>
        <time>2021-08-12T14:58:22Z</time>
      </trkpt>
      <trkpt lat="47.14473" lon="6.80507">
        <ele>968.4</ele>
        <time>2021-08-12T14:58:23Z</time>
      </trkpt>
      <trkpt lat="47.14473" lon="6.80505">
        <ele>968.4</ele>
        <time>2021-08-12T14:58:24Z</time>
      </trkpt>
      <trkpt lat="47.14471" lon="6.80502">
        <ele>968.6</ele>
        <time>2021-08-12T14:58:25Z</time>
      </trkpt>
      <trkpt lat="47.14468" lon="6.80499">
        <ele>968.8</ele>
        <time>2021-08-12T14:58:26Z</time>
      </trkpt>
      <trkpt lat="47.14467" lon="6.80498">
        <ele>968.8</ele>
        <time>2021-08-12T14:58:27Z</time>
      </trkpt>
      <trkpt lat="47.14466" lon="6.80494">
        <ele>969</ele>
        <time>2021-08-12T14:58:29Z</time>
      </trkpt>
      <trkpt lat="47.14465" lon="6.8049">
        <ele>969.2</ele>
        <time>2021-08-12T14:58:30Z</time>
      </trkpt>
      <trkpt lat="47.14463" lon="6.80486">
        <ele>969.4</ele>
        <time>2021-08-12T14:58:31Z</time>
      </trkpt>
      <trkpt lat="47.14463" lon="6.80484">
        <ele>969.4</ele>
        <time>2021-08-12T14:58:32Z</time>
      </trkpt>
      <trkpt lat="47.14462" lon="6.80478">
        <ele>969.7</ele>
        <time>2021-08-12T14:58:34Z</time>
      </trkpt>
      <trkpt lat="47.14461" lon="6.80476">
        <ele>969.8</ele>
        <time>2021-08-12T14:58:35Z</time>
      </trkpt>
      <trkpt lat="47.14461" lon="6.80474">
        <ele>969.9</ele>
        <time>2021-08-12T14:58:36Z</time>
      </trkpt>
      <trkpt lat="47.14461" lon="6.80469">
        <ele>970.1</ele>
        <time>2021-08-12T14:58:37Z</time>
      </trkpt>
      <trkpt lat="47.14462" lon="6.80468">
        <ele>970.1</ele>
        <time>2021-08-12T14:58:38Z</time>
      </trkpt>
      <trkpt lat="47.14462" lon="6.80462">
        <ele>970.4</ele>
        <time>2021-08-12T14:58:39Z</time>
      </trkpt>
      <trkpt lat="47.14462" lon="6.80461">
        <ele>970.4</ele>
        <time>2021-08-12T14:58:40Z</time>
      </trkpt>
      <trkpt lat="47.14461" lon="6.80457">
        <ele>970.6</ele>
        <time>2021-08-12T14:58:41Z</time>
      </trkpt>
      <trkpt lat="47.14461" lon="6.80455">
        <ele>970.7</ele>
        <time>2021-08-12T14:58:42Z</time>
      </trkpt>
      <trkpt lat="47.14461" lon="6.80451">
        <ele>970.9</ele>
        <time>2021-08-12T14:58:43Z</time>
      </trkpt>
      <trkpt lat="47.14461" lon="6.80449">
        <ele>970.9</ele>
        <time>2021-08-12T14:58:44Z</time>
      </trkpt>
      <trkpt lat="47.14461" lon="6.80446">
        <ele>971.1</ele>
        <time>2021-08-12T14:58:46Z</time>
      </trkpt>
      <trkpt lat="47.14461" lon="6.80444">
        <ele>971.1</ele>
        <time>2021-08-12T14:58:47Z</time>
      </trkpt>
      <trkpt lat="47.14461" lon="6.80442">
        <ele>971.3</ele>
        <time>2021-08-12T14:58:48Z</time>
      </trkpt>
      <trkpt lat="47.14461" lon="6.80439">
        <ele>971.4</ele>
        <time>2021-08-12T14:58:49Z</time>
      </trkpt>
      <trkpt lat="47.1446" lon="6.80437">
        <ele>971.5</ele>
        <time>2021-08-12T14:58:50Z</time>
      </trkpt>
      <trkpt lat="47.14458" lon="6.80433">
        <ele>971.7</ele>
        <time>2021-08-12T14:58:52Z</time>
      </trkpt>
      <trkpt lat="47.14457" lon="6.80431">
        <ele>971.8</ele>
        <time>2021-08-12T14:58:53Z</time>
      </trkpt>
      <trkpt lat="47.14456" lon="6.8043">
        <ele>971.9</ele>
        <time>2021-08-12T14:58:54Z</time>
      </trkpt>
      <trkpt lat="47.14454" lon="6.80425">
        <ele>972.2</ele>
        <time>2021-08-12T14:58:56Z</time>
      </trkpt>
      <trkpt lat="47.14453" lon="6.80424">
        <ele>972.3</ele>
        <time>2021-08-12T14:58:57Z</time>
      </trkpt>
      <trkpt lat="47.14453" lon="6.80422">
        <ele>972.5</ele>
        <time>2021-08-12T14:58:58Z</time>
      </trkpt>
      <trkpt lat="47.14452" lon="6.80419">
        <ele>972.6</ele>
        <time>2021-08-12T14:59:00Z</time>
      </trkpt>
      <trkpt lat="47.14451" lon="6.80419">
        <ele>972.7</ele>
        <time>2021-08-12T14:59:01Z</time>
      </trkpt>
      <trkpt lat="47.14451" lon="6.80419">
        <ele>972.7</ele>
        <time>2021-08-12T14:59:02Z</time>
      </trkpt>
      <trkpt lat="47.14449" lon="6.80415">
        <ele>972.9</ele>
        <time>2021-08-12T14:59:03Z</time>
      </trkpt>
      <trkpt lat="47.14449" lon="6.80413">
        <ele>973.1</ele>
        <time>2021-08-12T14:59:05Z</time>
      </trkpt>
      <trkpt lat="47.14447" lon="6.80413">
        <ele>973.2</ele>
        <time>2021-08-12T14:59:06Z</time>
      </trkpt>
      <trkpt lat="47.14447" lon="6.80412">
        <ele>973.3</ele>
        <time>2021-08-12T14:59:08Z</time>
      </trkpt>
      <trkpt lat="47.14446" lon="6.80412">
        <ele>973.3</ele>
        <time>2021-08-12T14:59:09Z</time>
      </trkpt>
      <trkpt lat="47.14445" lon="6.80411">
        <ele>973.5</ele>
        <time>2021-08-12T14:59:11Z</time>
      </trkpt>
      <trkpt lat="47.14442" lon="6.80405">
        <ele>973.9</ele>
        <time>2021-08-12T14:59:13Z</time>
      </trkpt>
      <trkpt lat="47.14441" lon="6.80401">
        <ele>974.2</ele>
        <time>2021-08-12T14:59:14Z</time>
      </trkpt>
      <trkpt lat="47.14441" lon="6.80396">
        <ele>974.5</ele>
        <time>2021-08-12T14:59:16Z</time>
      </trkpt>
      <trkpt lat="47.14441" lon="6.80395">
        <ele>974.5</ele>
        <time>2021-08-12T14:59:17Z</time>
      </trkpt>
      <trkpt lat="47.14443" lon="6.80391">
        <ele>974.8</ele>
        <time>2021-08-12T14:59:18Z</time>
      </trkpt>
      <trkpt lat="47.14445" lon="6.8039">
        <ele>975</ele>
        <time>2021-08-12T14:59:19Z</time>
      </trkpt>
      <trkpt lat="47.14445" lon="6.80389">
        <ele>975</ele>
        <time>2021-08-12T14:59:21Z</time>
      </trkpt>
      <trkpt lat="47.14444" lon="6.80389">
        <ele>975</ele>
        <time>2021-08-12T14:59:22Z</time>
      </trkpt>
      <trkpt lat="47.14444" lon="6.80389">
        <ele>975.1</ele>
        <time>2021-08-12T14:59:24Z</time>
      </trkpt>
      <trkpt lat="47.14444" lon="6.80389">
        <ele>975.1</ele>
        <time>2021-08-12T14:59:25Z</time>
      </trkpt>
      <trkpt lat="47.14443" lon="6.80388">
        <ele>975.2</ele>
        <time>2021-08-12T14:59:27Z</time>
      </trkpt>
      <trkpt lat="47.14443" lon="6.80387">
        <ele>975.3</ele>
        <time>2021-08-12T14:59:28Z</time>
      </trkpt>
      <trkpt lat="47.14434" lon="6.80376">
        <ele>976.3</ele>
        <time>2021-08-12T14:59:34Z</time>
      </trkpt>
      <trkpt lat="47.14431" lon="6.80373">
        <ele>976.6</ele>
        <time>2021-08-12T14:59:35Z</time>
      </trkpt>
      <trkpt lat="47.1443" lon="6.80372">
        <ele>976.7</ele>
        <time>2021-08-12T14:59:36Z</time>
      </trkpt>
      <trkpt lat="47.14426" lon="6.8037">
        <ele>977.1</ele>
        <time>2021-08-12T14:59:38Z</time>
      </trkpt>
      <trkpt lat="47.14425" lon="6.80368">
        <ele>977.2</ele>
        <time>2021-08-12T14:59:39Z</time>
      </trkpt>
      <trkpt lat="47.14425" lon="6.80367">
        <ele>977.3</ele>
        <time>2021-08-12T14:59:40Z</time>
      </trkpt>
      <trkpt lat="47.14424" lon="6.80366">
        <ele>977.4</ele>
        <time>2021-08-12T14:59:41Z</time>
      </trkpt>
      <trkpt lat="47.14423" lon="6.80362">
        <ele>977.6</ele>
        <time>2021-08-12T14:59:43Z</time>
      </trkpt>
      <trkpt lat="47.14422" lon="6.80358">
        <ele>977.8</ele>
        <time>2021-08-12T14:59:44Z</time>
      </trkpt>
      <trkpt lat="47.14421" lon="6.80355">
        <ele>978</ele>
        <time>2021-08-12T14:59:45Z</time>
      </trkpt>
      <trkpt lat="47.1442" lon="6.80349">
        <ele>978.2</ele>
        <time>2021-08-12T14:59:47Z</time>
      </trkpt>
      <trkpt lat="47.14417" lon="6.80346">
        <ele>978.4</ele>
        <time>2021-08-12T14:59:48Z</time>
      </trkpt>
      <trkpt lat="47.1441" lon="6.80343">
        <ele>978.8</ele>
        <time>2021-08-12T14:59:50Z</time>
      </trkpt>
      <trkpt lat="47.14406" lon="6.80338">
        <ele>979.1</ele>
        <time>2021-08-12T14:59:51Z</time>
      </trkpt>
      <trkpt lat="47.14403" lon="6.80335">
        <ele>979.2</ele>
        <time>2021-08-12T14:59:52Z</time>
      </trkpt>
      <trkpt lat="47.14399" lon="6.80333">
        <ele>979.4</ele>
        <time>2021-08-12T14:59:54Z</time>
      </trkpt>
      <trkpt lat="47.14399" lon="6.80326">
        <ele>979.5</ele>
        <time>2021-08-12T14:59:56Z</time>
      </trkpt>
      <trkpt lat="47.14399" lon="6.80321">
        <ele>979.6</ele>
        <time>2021-08-12T14:59:57Z</time>
      </trkpt>
      <trkpt lat="47.14398" lon="6.80319">
        <ele>979.7</ele>
        <time>2021-08-12T14:59:59Z</time>
      </trkpt>
      <trkpt lat="47.14398" lon="6.80318">
        <ele>979.7</ele>
        <time>2021-08-12T15:00:00Z</time>
      </trkpt>
      <trkpt lat="47.14395" lon="6.80316">
        <ele>979.8</ele>
        <time>2021-08-12T15:00:02Z</time>
      </trkpt>
      <trkpt lat="47.14392" lon="6.80312">
        <ele>979.9</ele>
        <time>2021-08-12T15:00:04Z</time>
      </trkpt>
      <trkpt lat="47.14391" lon="6.80307">
        <ele>980</ele>
        <time>2021-08-12T15:00:06Z</time>
      </trkpt>
      <trkpt lat="47.14389" lon="6.80301">
        <ele>980.1</ele>
        <time>2021-08-12T15:00:07Z</time>
      </trkpt>
      <trkpt lat="47.14387" lon="6.80295">
        <ele>980.2</ele>
        <time>2021-08-12T15:00:09Z</time>
      </trkpt>
      <trkpt lat="47.14389" lon="6.80291">
        <ele>980.2</ele>
        <time>2021-08-12T15:00:10Z</time>
      </trkpt>
      <trkpt lat="47.14389" lon="6.80288">
        <ele>980.2</ele>
        <time>2021-08-12T15:00:12Z</time>
      </trkpt>
      <trkpt lat="47.14384" lon="6.80287">
        <ele>980.3</ele>
        <time>2021-08-12T15:00:14Z</time>
      </trkpt>
      <trkpt lat="47.1438" lon="6.80285">
        <ele>980.4</ele>
        <time>2021-08-12T15:00:16Z</time>
      </trkpt>
      <trkpt lat="47.14376" lon="6.80283">
        <ele>980.5</ele>
        <time>2021-08-12T15:00:17Z</time>
      </trkpt>
      <trkpt lat="47.14372" lon="6.80278">
        <ele>980.6</ele>
        <time>2021-08-12T15:00:18Z</time>
      </trkpt>
      <trkpt lat="47.14367" lon="6.80268">
        <ele>980.7</ele>
        <time>2021-08-12T15:00:19Z</time>
      </trkpt>
      <trkpt lat="47.14364" lon="6.80259">
        <ele>980.9</ele>
        <time>2021-08-12T15:00:21Z</time>
      </trkpt>
      <trkpt lat="47.14361" lon="6.8025">
        <ele>981</ele>
        <time>2021-08-12T15:00:22Z</time>
      </trkpt>
      <trkpt lat="47.14359" lon="6.80243">
        <ele>981.2</ele>
        <time>2021-08-12T15:00:23Z</time>
      </trkpt>
      <trkpt lat="47.14358" lon="6.80236">
        <ele>981.3</ele>
        <time>2021-08-12T15:00:24Z</time>
      </trkpt>
      <trkpt lat="47.14356" lon="6.80229">
        <ele>981.3</ele>
        <time>2021-08-12T15:00:25Z</time>
      </trkpt>
      <trkpt lat="47.14355" lon="6.80221">
        <ele>981.4</ele>
        <time>2021-08-12T15:00:27Z</time>
      </trkpt>
      <trkpt lat="47.14356" lon="6.80214">
        <ele>981.5</ele>
        <time>2021-08-12T15:00:28Z</time>
      </trkpt>
      <trkpt lat="47.14358" lon="6.80207">
        <ele>981.5</ele>
        <time>2021-08-12T15:00:29Z</time>
      </trkpt>
      <trkpt lat="47.1436" lon="6.80203">
        <ele>981.6</ele>
        <time>2021-08-12T15:00:30Z</time>
      </trkpt>
      <trkpt lat="47.14359" lon="6.80195">
        <ele>981.6</ele>
        <time>2021-08-12T15:00:31Z</time>
      </trkpt>
      <trkpt lat="47.14359" lon="6.80189">
        <ele>981.7</ele>
        <time>2021-08-12T15:00:32Z</time>
      </trkpt>
      <trkpt lat="47.14357" lon="6.80181">
        <ele>981.8</ele>
        <time>2021-08-12T15:00:33Z</time>
      </trkpt>
      <trkpt lat="47.14356" lon="6.80175">
        <ele>981.8</ele>
        <time>2021-08-12T15:00:34Z</time>
      </trkpt>
      <trkpt lat="47.14355" lon="6.8017">
        <ele>981.9</ele>
        <time>2021-08-12T15:00:35Z</time>
      </trkpt>
      <trkpt lat="47.14354" lon="6.80164">
        <ele>982</ele>
        <time>2021-08-12T15:00:37Z</time>
      </trkpt>
      <trkpt lat="47.14353" lon="6.80158">
        <ele>982.1</ele>
        <time>2021-08-12T15:00:38Z</time>
      </trkpt>
      <trkpt lat="47.14349" lon="6.80149">
        <ele>982.3</ele>
        <time>2021-08-12T15:00:40Z</time>
      </trkpt>
      <trkpt lat="47.14347" lon="6.80147">
        <ele>982.3</ele>
        <time>2021-08-12T15:00:41Z</time>
      </trkpt>
      <trkpt lat="47.14345" lon="6.80151">
        <ele>982.4</ele>
        <time>2021-08-12T15:00:42Z</time>
      </trkpt>
      <trkpt lat="47.14342" lon="6.8015">
        <ele>982.5</ele>
        <time>2021-08-12T15:00:44Z</time>
      </trkpt>
      <trkpt lat="47.14339" lon="6.80149">
        <ele>982.6</ele>
        <time>2021-08-12T15:00:45Z</time>
      </trkpt>
      <trkpt lat="47.14337" lon="6.80148">
        <ele>982.7</ele>
        <time>2021-08-12T15:00:47Z</time>
      </trkpt>
      <trkpt lat="47.14335" lon="6.80148">
        <ele>982.7</ele>
        <time>2021-08-12T15:00:48Z</time>
      </trkpt>
      <trkpt lat="47.14335" lon="6.80146">
        <ele>982.7</ele>
        <time>2021-08-12T15:00:49Z</time>
      </trkpt>
      <trkpt lat="47.14334" lon="6.80143">
        <ele>982.8</ele>
        <time>2021-08-12T15:00:50Z</time>
      </trkpt>
      <trkpt lat="47.14333" lon="6.80141">
        <ele>982.8</ele>
        <time>2021-08-12T15:00:51Z</time>
      </trkpt>
      <trkpt lat="47.14331" lon="6.80136">
        <ele>982.9</ele>
        <time>2021-08-12T15:00:53Z</time>
      </trkpt>
      <trkpt lat="47.14332" lon="6.80132">
        <ele>983</ele>
        <time>2021-08-12T15:00:54Z</time>
      </trkpt>
      <trkpt lat="47.14334" lon="6.80128">
        <ele>983.1</ele>
        <time>2021-08-12T15:00:55Z</time>
      </trkpt>
      <trkpt lat="47.14334" lon="6.80124">
        <ele>983.2</ele>
        <time>2021-08-12T15:00:56Z</time>
      </trkpt>
      <trkpt lat="47.14333" lon="6.8012">
        <ele>983.3</ele>
        <time>2021-08-12T15:00:58Z</time>
      </trkpt>
      <trkpt lat="47.14332" lon="6.80118">
        <ele>983.3</ele>
        <time>2021-08-12T15:00:59Z</time>
      </trkpt>
      <trkpt lat="47.14331" lon="6.80114">
        <ele>983.4</ele>
        <time>2021-08-12T15:01:00Z</time>
      </trkpt>
      <trkpt lat="47.14331" lon="6.80113">
        <ele>983.4</ele>
        <time>2021-08-12T15:01:01Z</time>
      </trkpt>
      <trkpt lat="47.14328" lon="6.80108">
        <ele>983.5</ele>
        <time>2021-08-12T15:01:02Z</time>
      </trkpt>
      <trkpt lat="47.14327" lon="6.80106">
        <ele>983.5</ele>
        <time>2021-08-12T15:01:03Z</time>
      </trkpt>
      <trkpt lat="47.14325" lon="6.80102">
        <ele>983.6</ele>
        <time>2021-08-12T15:01:04Z</time>
      </trkpt>
      <trkpt lat="47.14324" lon="6.801">
        <ele>983.7</ele>
        <time>2021-08-12T15:01:05Z</time>
      </trkpt>
      <trkpt lat="47.14323" lon="6.80096">
        <ele>983.7</ele>
        <time>2021-08-12T15:01:06Z</time>
      </trkpt>
      <trkpt lat="47.14323" lon="6.80092">
        <ele>983.8</ele>
        <time>2021-08-12T15:01:07Z</time>
      </trkpt>
      <trkpt lat="47.14322" lon="6.80088">
        <ele>983.9</ele>
        <time>2021-08-12T15:01:08Z</time>
      </trkpt>
      <trkpt lat="47.14321" lon="6.80083">
        <ele>984</ele>
        <time>2021-08-12T15:01:09Z</time>
      </trkpt>
      <trkpt lat="47.14321" lon="6.80079">
        <ele>984</ele>
        <time>2021-08-12T15:01:10Z</time>
      </trkpt>
      <trkpt lat="47.14321" lon="6.80074">
        <ele>984.1</ele>
        <time>2021-08-12T15:01:11Z</time>
      </trkpt>
      <trkpt lat="47.14321" lon="6.8007">
        <ele>984.2</ele>
        <time>2021-08-12T15:01:13Z</time>
      </trkpt>
      <trkpt lat="47.14321" lon="6.80065">
        <ele>984.3</ele>
        <time>2021-08-12T15:01:14Z</time>
      </trkpt>
      <trkpt lat="47.14322" lon="6.80058">
        <ele>984.5</ele>
        <time>2021-08-12T15:01:15Z</time>
      </trkpt>
      <trkpt lat="47.14321" lon="6.80051">
        <ele>984.6</ele>
        <time>2021-08-12T15:01:16Z</time>
      </trkpt>
      <trkpt lat="47.1432" lon="6.80047">
        <ele>984.7</ele>
        <time>2021-08-12T15:01:17Z</time>
      </trkpt>
      <trkpt lat="47.14319" lon="6.80043">
        <ele>984.8</ele>
        <time>2021-08-12T15:01:18Z</time>
      </trkpt>
      <trkpt lat="47.14319" lon="6.80036">
        <ele>985</ele>
        <time>2021-08-12T15:01:20Z</time>
      </trkpt>
      <trkpt lat="47.14319" lon="6.80034">
        <ele>985</ele>
        <time>2021-08-12T15:01:21Z</time>
      </trkpt>
      <trkpt lat="47.14319" lon="6.80032">
        <ele>985.1</ele>
        <time>2021-08-12T15:01:22Z</time>
      </trkpt>
      <trkpt lat="47.14319" lon="6.80027">
        <ele>985.2</ele>
        <time>2021-08-12T15:01:23Z</time>
      </trkpt>
      <trkpt lat="47.14319" lon="6.80025">
        <ele>985.3</ele>
        <time>2021-08-12T15:01:24Z</time>
      </trkpt>
      <trkpt lat="47.14318" lon="6.80024">
        <ele>985.3</ele>
        <time>2021-08-12T15:01:25Z</time>
      </trkpt>
      <trkpt lat="47.14317" lon="6.80023">
        <ele>985.4</ele>
        <time>2021-08-12T15:01:26Z</time>
      </trkpt>
      <trkpt lat="47.14314" lon="6.80025">
        <ele>985.5</ele>
        <time>2021-08-12T15:01:28Z</time>
      </trkpt>
      <trkpt lat="47.14313" lon="6.80025">
        <ele>985.5</ele>
        <time>2021-08-12T15:01:29Z</time>
      </trkpt>
      <trkpt lat="47.14311" lon="6.80021">
        <ele>985.6</ele>
        <time>2021-08-12T15:01:30Z</time>
      </trkpt>
      <trkpt lat="47.14309" lon="6.80015">
        <ele>985.7</ele>
        <time>2021-08-12T15:01:31Z</time>
      </trkpt>
      <trkpt lat="47.14307" lon="6.80012">
        <ele>985.8</ele>
        <time>2021-08-12T15:01:32Z</time>
      </trkpt>
      <trkpt lat="47.14305" lon="6.80007">
        <ele>985.9</ele>
        <time>2021-08-12T15:01:34Z</time>
      </trkpt>
      <trkpt lat="47.14304" lon="6.80002">
        <ele>986</ele>
        <time>2021-08-12T15:01:35Z</time>
      </trkpt>
      <trkpt lat="47.14303" lon="6.79993">
        <ele>986.1</ele>
        <time>2021-08-12T15:01:36Z</time>
      </trkpt>
      <trkpt lat="47.14301" lon="6.79989">
        <ele>986.1</ele>
        <time>2021-08-12T15:01:37Z</time>
      </trkpt>
      <trkpt lat="47.143" lon="6.79985">
        <ele>986.2</ele>
        <time>2021-08-12T15:01:38Z</time>
      </trkpt>
      <trkpt lat="47.14297" lon="6.7998">
        <ele>986.3</ele>
        <time>2021-08-12T15:01:40Z</time>
      </trkpt>
      <trkpt lat="47.14296" lon="6.79978">
        <ele>986.3</ele>
        <time>2021-08-12T15:01:41Z</time>
      </trkpt>
      <trkpt lat="47.14295" lon="6.79977">
        <ele>986.4</ele>
        <time>2021-08-12T15:01:42Z</time>
      </trkpt>
      <trkpt lat="47.14293" lon="6.79975">
        <ele>986.4</ele>
        <time>2021-08-12T15:01:43Z</time>
      </trkpt>
      <trkpt lat="47.1429" lon="6.79973">
        <ele>986.5</ele>
        <time>2021-08-12T15:01:45Z</time>
      </trkpt>
      <trkpt lat="47.14288" lon="6.79971">
        <ele>986.5</ele>
        <time>2021-08-12T15:01:46Z</time>
      </trkpt>
      <trkpt lat="47.14287" lon="6.79971">
        <ele>986.5</ele>
        <time>2021-08-12T15:01:47Z</time>
      </trkpt>
      <trkpt lat="47.14285" lon="6.7997">
        <ele>986.6</ele>
        <time>2021-08-12T15:01:48Z</time>
      </trkpt>
      <trkpt lat="47.14283" lon="6.79972">
        <ele>986.6</ele>
        <time>2021-08-12T15:01:50Z</time>
      </trkpt>
      <trkpt lat="47.14283" lon="6.79973">
        <ele>986.6</ele>
        <time>2021-08-12T15:01:52Z</time>
      </trkpt>
      <trkpt lat="47.14283" lon="6.79972">
        <ele>986.7</ele>
        <time>2021-08-12T15:01:53Z</time>
      </trkpt>
      <trkpt lat="47.14283" lon="6.79971">
        <ele>986.7</ele>
        <time>2021-08-12T15:01:54Z</time>
      </trkpt>
      <trkpt lat="47.14283" lon="6.7997">
        <ele>986.7</ele>
        <time>2021-08-12T15:01:56Z</time>
      </trkpt>
      <trkpt lat="47.14283" lon="6.7997">
        <ele>986.7</ele>
        <time>2021-08-12T15:01:57Z</time>
      </trkpt>
      <trkpt lat="47.14283" lon="6.79969">
        <ele>986.7</ele>
        <time>2021-08-12T15:01:59Z</time>
      </trkpt>
      <trkpt lat="47.14283" lon="6.79969">
        <ele>986.7</ele>
        <time>2021-08-12T15:02:00Z</time>
      </trkpt>
      <trkpt lat="47.14283" lon="6.79969">
        <ele>986.7</ele>
        <time>2021-08-12T15:02:02Z</time>
      </trkpt>
      <trkpt lat="47.14283" lon="6.79969">
        <ele>986.7</ele>
        <time>2021-08-12T15:02:03Z</time>
      </trkpt>
      <trkpt lat="47.14303" lon="6.79938">
        <ele>987.1</ele>
        <time>2021-08-12T15:02:27Z</time>
      </trkpt>
      <trkpt lat="47.14306" lon="6.79932">
        <ele>987.1</ele>
        <time>2021-08-12T15:02:28Z</time>
      </trkpt>
      <trkpt lat="47.14308" lon="6.79929">
        <ele>987.1</ele>
        <time>2021-08-12T15:02:29Z</time>
      </trkpt>
      <trkpt lat="47.14309" lon="6.7993">
        <ele>987.2</ele>
        <time>2021-08-12T15:02:31Z</time>
      </trkpt>
      <trkpt lat="47.14305" lon="6.79935">
        <ele>987.2</ele>
        <time>2021-08-12T15:02:33Z</time>
      </trkpt>
      <trkpt lat="47.14298" lon="6.79935">
        <ele>987.2</ele>
        <time>2021-08-12T15:02:34Z</time>
      </trkpt>
      <trkpt lat="47.14291" lon="6.79935">
        <ele>987.3</ele>
        <time>2021-08-12T15:02:35Z</time>
      </trkpt>
      <trkpt lat="47.14284" lon="6.79934">
        <ele>987.3</ele>
        <time>2021-08-12T15:02:37Z</time>
      </trkpt>
      <trkpt lat="47.14276" lon="6.79934">
        <ele>987.3</ele>
        <time>2021-08-12T15:02:39Z</time>
      </trkpt>
      <trkpt lat="47.14269" lon="6.79933">
        <ele>987.4</ele>
        <time>2021-08-12T15:04:12Z</time>
      </trkpt>
      <trkpt lat="47.14262" lon="6.79933">
        <ele>987.4</ele>
        <time>2021-08-12T15:04:13Z</time>
      </trkpt>
      <trkpt lat="47.14258" lon="6.79928">
        <ele>987.5</ele>
        <time>2021-08-12T15:04:14Z</time>
      </trkpt>
      <trkpt lat="47.14245" lon="6.7991">
        <ele>987.9</ele>
        <time>2021-08-12T15:04:16Z</time>
      </trkpt>
      <trkpt lat="47.14236" lon="6.799">
        <ele>988.2</ele>
        <time>2021-08-12T15:04:18Z</time>
      </trkpt>
      <trkpt lat="47.14229" lon="6.7989">
        <ele>988.5</ele>
        <time>2021-08-12T15:04:20Z</time>
      </trkpt>
      <trkpt lat="47.14225" lon="6.79883">
        <ele>988.7</ele>
        <time>2021-08-12T15:04:21Z</time>
      </trkpt>
      <trkpt lat="47.14228" lon="6.79883">
        <ele>988.9</ele>
        <time>2021-08-12T15:04:23Z</time>
      </trkpt>
      <trkpt lat="47.14224" lon="6.79878">
        <ele>989.1</ele>
        <time>2021-08-12T15:04:24Z</time>
      </trkpt>
      <trkpt lat="47.14222" lon="6.79871">
        <ele>989.3</ele>
        <time>2021-08-12T15:04:26Z</time>
      </trkpt>
      <trkpt lat="47.14218" lon="6.79857">
        <ele>989.7</ele>
        <time>2021-08-12T15:04:28Z</time>
      </trkpt>
      <trkpt lat="47.14215" lon="6.79848">
        <ele>990</ele>
        <time>2021-08-12T15:04:30Z</time>
      </trkpt>
      <trkpt lat="47.14213" lon="6.79841">
        <ele>990.3</ele>
        <time>2021-08-12T15:04:31Z</time>
      </trkpt>
      <trkpt lat="47.1421" lon="6.79836">
        <ele>990.5</ele>
        <time>2021-08-12T15:04:32Z</time>
      </trkpt>
      <trkpt lat="47.14207" lon="6.79831">
        <ele>990.7</ele>
        <time>2021-08-12T15:04:34Z</time>
      </trkpt>
      <trkpt lat="47.14203" lon="6.79828">
        <ele>990.9</ele>
        <time>2021-08-12T15:04:35Z</time>
      </trkpt>
      <trkpt lat="47.14198" lon="6.79823">
        <ele>991.2</ele>
        <time>2021-08-12T15:04:37Z</time>
      </trkpt>
      <trkpt lat="47.14194" lon="6.79818">
        <ele>991.4</ele>
        <time>2021-08-12T15:04:38Z</time>
      </trkpt>
      <trkpt lat="47.14191" lon="6.79813">
        <ele>991.5</ele>
        <time>2021-08-12T15:04:40Z</time>
      </trkpt>
      <trkpt lat="47.14188" lon="6.79809">
        <ele>991.6</ele>
        <time>2021-08-12T15:04:42Z</time>
      </trkpt>
      <trkpt lat="47.14188" lon="6.79806">
        <ele>991.7</ele>
        <time>2021-08-12T15:04:43Z</time>
      </trkpt>
      <trkpt lat="47.14187" lon="6.79804">
        <ele>991.7</ele>
        <time>2021-08-12T15:04:45Z</time>
      </trkpt>
      <trkpt lat="47.14186" lon="6.79801">
        <ele>991.8</ele>
        <time>2021-08-12T15:04:46Z</time>
      </trkpt>
      <trkpt lat="47.14186" lon="6.79798">
        <ele>991.8</ele>
        <time>2021-08-12T15:04:47Z</time>
      </trkpt>
      <trkpt lat="47.14182" lon="6.79792">
        <ele>991.9</ele>
        <time>2021-08-12T15:04:48Z</time>
      </trkpt>
      <trkpt lat="47.14179" lon="6.79786">
        <ele>991.9</ele>
        <time>2021-08-12T15:04:50Z</time>
      </trkpt>
      <trkpt lat="47.14175" lon="6.79779">
        <ele>991.9</ele>
        <time>2021-08-12T15:04:51Z</time>
      </trkpt>
      <trkpt lat="47.14159" lon="6.79762">
        <ele>991.6</ele>
        <time>2021-08-12T15:04:53Z</time>
      </trkpt>
      <trkpt lat="47.14156" lon="6.79755">
        <ele>991.6</ele>
        <time>2021-08-12T15:04:54Z</time>
      </trkpt>
      <trkpt lat="47.14153" lon="6.79739">
        <ele>991.3</ele>
        <time>2021-08-12T15:04:56Z</time>
      </trkpt>
      <trkpt lat="47.14156" lon="6.79722">
        <ele>991.1</ele>
        <time>2021-08-12T15:04:58Z</time>
      </trkpt>
      <trkpt lat="47.14165" lon="6.79712">
        <ele>990.9</ele>
        <time>2021-08-12T15:04:59Z</time>
      </trkpt>
      <trkpt lat="47.14169" lon="6.79702">
        <ele>990.7</ele>
        <time>2021-08-12T15:05:00Z</time>
      </trkpt>
      <trkpt lat="47.14169" lon="6.79684">
        <ele>990.6</ele>
        <time>2021-08-12T15:05:02Z</time>
      </trkpt>
      <trkpt lat="47.14166" lon="6.79669">
        <ele>990.5</ele>
        <time>2021-08-12T15:05:04Z</time>
      </trkpt>
      <trkpt lat="47.14161" lon="6.79656">
        <ele>990.3</ele>
        <time>2021-08-12T15:05:06Z</time>
      </trkpt>
      <trkpt lat="47.14158" lon="6.7965">
        <ele>990.3</ele>
        <time>2021-08-12T15:05:07Z</time>
      </trkpt>
      <trkpt lat="47.14155" lon="6.79645">
        <ele>990.2</ele>
        <time>2021-08-12T15:05:08Z</time>
      </trkpt>
      <trkpt lat="47.14148" lon="6.79635">
        <ele>990.1</ele>
        <time>2021-08-12T15:05:10Z</time>
      </trkpt>
      <trkpt lat="47.14144" lon="6.79629">
        <ele>990</ele>
        <time>2021-08-12T15:05:11Z</time>
      </trkpt>
      <trkpt lat="47.14141" lon="6.79624">
        <ele>990</ele>
        <time>2021-08-12T15:05:12Z</time>
      </trkpt>
      <trkpt lat="47.14137" lon="6.79617">
        <ele>989.9</ele>
        <time>2021-08-12T15:05:13Z</time>
      </trkpt>
      <trkpt lat="47.14136" lon="6.79614">
        <ele>989.9</ele>
        <time>2021-08-12T15:05:14Z</time>
      </trkpt>
      <trkpt lat="47.14134" lon="6.79607">
        <ele>989.8</ele>
        <time>2021-08-12T15:05:16Z</time>
      </trkpt>
      <trkpt lat="47.14131" lon="6.79603">
        <ele>989.7</ele>
        <time>2021-08-12T15:05:17Z</time>
      </trkpt>
      <trkpt lat="47.14125" lon="6.79599">
        <ele>989.6</ele>
        <time>2021-08-12T15:05:18Z</time>
      </trkpt>
      <trkpt lat="47.14121" lon="6.79594">
        <ele>989.6</ele>
        <time>2021-08-12T15:05:20Z</time>
      </trkpt>
      <trkpt lat="47.14117" lon="6.79589">
        <ele>989.5</ele>
        <time>2021-08-12T15:05:21Z</time>
      </trkpt>
      <trkpt lat="47.14113" lon="6.79583">
        <ele>989.4</ele>
        <time>2021-08-12T15:05:22Z</time>
      </trkpt>
      <trkpt lat="47.14106" lon="6.79577">
        <ele>989.3</ele>
        <time>2021-08-12T15:05:24Z</time>
      </trkpt>
      <trkpt lat="47.141" lon="6.7957">
        <ele>989.3</ele>
        <time>2021-08-12T15:05:26Z</time>
      </trkpt>
      <trkpt lat="47.14098" lon="6.79566">
        <ele>989.2</ele>
        <time>2021-08-12T15:05:27Z</time>
      </trkpt>
      <trkpt lat="47.14095" lon="6.79561">
        <ele>989.2</ele>
        <time>2021-08-12T15:05:28Z</time>
      </trkpt>
      <trkpt lat="47.14087" lon="6.79546">
        <ele>988.9</ele>
        <time>2021-08-12T15:05:30Z</time>
      </trkpt>
      <trkpt lat="47.1408" lon="6.79532">
        <ele>988.6</ele>
        <time>2021-08-12T15:05:32Z</time>
      </trkpt>
      <trkpt lat="47.14076" lon="6.79519">
        <ele>988.3</ele>
        <time>2021-08-12T15:05:34Z</time>
      </trkpt>
      <trkpt lat="47.14072" lon="6.79512">
        <ele>988.1</ele>
        <time>2021-08-12T15:05:35Z</time>
      </trkpt>
      <trkpt lat="47.14063" lon="6.79496">
        <ele>987.6</ele>
        <time>2021-08-12T15:05:37Z</time>
      </trkpt>
      <trkpt lat="47.14059" lon="6.79489">
        <ele>987.4</ele>
        <time>2021-08-12T15:05:38Z</time>
      </trkpt>
      <trkpt lat="47.14053" lon="6.79476">
        <ele>987.3</ele>
        <time>2021-08-12T15:05:40Z</time>
      </trkpt>
      <trkpt lat="47.14046" lon="6.79462">
        <ele>987.3</ele>
        <time>2021-08-12T15:05:42Z</time>
      </trkpt>
      <trkpt lat="47.14037" lon="6.79446">
        <ele>987.2</ele>
        <time>2021-08-12T15:05:44Z</time>
      </trkpt>
      <trkpt lat="47.14033" lon="6.7944">
        <ele>987.3</ele>
        <time>2021-08-12T15:05:45Z</time>
      </trkpt>
      <trkpt lat="47.14024" lon="6.79425">
        <ele>987.4</ele>
        <time>2021-08-12T15:05:47Z</time>
      </trkpt>
      <trkpt lat="47.14019" lon="6.79419">
        <ele>987.5</ele>
        <time>2021-08-12T15:05:48Z</time>
      </trkpt>
      <trkpt lat="47.14009" lon="6.79414">
        <ele>987.7</ele>
        <time>2021-08-12T15:05:50Z</time>
      </trkpt>
      <trkpt lat="47.14005" lon="6.79413">
        <ele>987.9</ele>
        <time>2021-08-12T15:05:51Z</time>
      </trkpt>
      <trkpt lat="47.13996" lon="6.79406">
        <ele>988.3</ele>
        <time>2021-08-12T15:05:53Z</time>
      </trkpt>
      <trkpt lat="47.13994" lon="6.79403">
        <ele>988.5</ele>
        <time>2021-08-12T15:05:54Z</time>
      </trkpt>
      <trkpt lat="47.13992" lon="6.79401">
        <ele>988.6</ele>
        <time>2021-08-12T15:05:55Z</time>
      </trkpt>
      <trkpt lat="47.1399" lon="6.794">
        <ele>988.7</ele>
        <time>2021-08-12T15:05:56Z</time>
      </trkpt>
      <trkpt lat="47.13986" lon="6.79396">
        <ele>989</ele>
        <time>2021-08-12T15:05:58Z</time>
      </trkpt>
      <trkpt lat="47.13984" lon="6.79402">
        <ele>989.2</ele>
        <time>2021-08-12T15:06:00Z</time>
      </trkpt>
      <trkpt lat="47.13981" lon="6.79396">
        <ele>989.5</ele>
        <time>2021-08-12T15:06:01Z</time>
      </trkpt>
      <trkpt lat="47.13979" lon="6.7939">
        <ele>989.7</ele>
        <time>2021-08-12T15:06:02Z</time>
      </trkpt>
      <trkpt lat="47.13976" lon="6.79382">
        <ele>989.9</ele>
        <time>2021-08-12T15:06:03Z</time>
      </trkpt>
      <trkpt lat="47.13974" lon="6.79376">
        <ele>990.1</ele>
        <time>2021-08-12T15:06:04Z</time>
      </trkpt>
      <trkpt lat="47.13971" lon="6.79371">
        <ele>990.3</ele>
        <time>2021-08-12T15:06:05Z</time>
      </trkpt>
      <trkpt lat="47.13968" lon="6.79363">
        <ele>990.5</ele>
        <time>2021-08-12T15:06:07Z</time>
      </trkpt>
      <trkpt lat="47.13966" lon="6.79358">
        <ele>990.7</ele>
        <time>2021-08-12T15:06:08Z</time>
      </trkpt>
      <trkpt lat="47.13964" lon="6.79352">
        <ele>990.9</ele>
        <time>2021-08-12T15:06:09Z</time>
      </trkpt>
      <trkpt lat="47.13963" lon="6.79348">
        <ele>991</ele>
        <time>2021-08-12T15:06:10Z</time>
      </trkpt>
      <trkpt lat="47.13962" lon="6.79346">
        <ele>991.1</ele>
        <time>2021-08-12T15:06:11Z</time>
      </trkpt>
      <trkpt lat="47.13961" lon="6.79342">
        <ele>991.1</ele>
        <time>2021-08-12T15:06:13Z</time>
      </trkpt>
      <trkpt lat="47.13958" lon="6.79337">
        <ele>991.3</ele>
        <time>2021-08-12T15:06:14Z</time>
      </trkpt>
      <trkpt lat="47.13956" lon="6.79334">
        <ele>991.4</ele>
        <time>2021-08-12T15:06:15Z</time>
      </trkpt>
      <trkpt lat="47.13951" lon="6.79327">
        <ele>991.6</ele>
        <time>2021-08-12T15:06:17Z</time>
      </trkpt>
      <trkpt lat="47.13947" lon="6.79321">
        <ele>991.8</ele>
        <time>2021-08-12T15:06:18Z</time>
      </trkpt>
      <trkpt lat="47.13945" lon="6.79316">
        <ele>991.9</ele>
        <time>2021-08-12T15:06:19Z</time>
      </trkpt>
      <trkpt lat="47.13944" lon="6.79312">
        <ele>992</ele>
        <time>2021-08-12T15:06:20Z</time>
      </trkpt>
      <trkpt lat="47.13942" lon="6.79308">
        <ele>992.1</ele>
        <time>2021-08-12T15:06:21Z</time>
      </trkpt>
      <trkpt lat="47.13941" lon="6.79301">
        <ele>992.3</ele>
        <time>2021-08-12T15:06:23Z</time>
      </trkpt>
      <trkpt lat="47.13939" lon="6.79297">
        <ele>992.4</ele>
        <time>2021-08-12T15:06:24Z</time>
      </trkpt>
      <trkpt lat="47.13936" lon="6.7929">
        <ele>992.7</ele>
        <time>2021-08-12T15:06:26Z</time>
      </trkpt>
      <trkpt lat="47.13933" lon="6.79285">
        <ele>992.9</ele>
        <time>2021-08-12T15:06:27Z</time>
      </trkpt>
      <trkpt lat="47.13932" lon="6.79283">
        <ele>992.9</ele>
        <time>2021-08-12T15:06:28Z</time>
      </trkpt>
      <trkpt lat="47.1393" lon="6.79279">
        <ele>993</ele>
        <time>2021-08-12T15:06:30Z</time>
      </trkpt>
      <trkpt lat="47.13927" lon="6.79274">
        <ele>993.2</ele>
        <time>2021-08-12T15:06:32Z</time>
      </trkpt>
      <trkpt lat="47.13924" lon="6.7927">
        <ele>993.3</ele>
        <time>2021-08-12T15:06:33Z</time>
      </trkpt>
      <trkpt lat="47.13921" lon="6.79267">
        <ele>993.4</ele>
        <time>2021-08-12T15:06:35Z</time>
      </trkpt>
      <trkpt lat="47.1392" lon="6.79267">
        <ele>993.4</ele>
        <time>2021-08-12T15:06:36Z</time>
      </trkpt>
      <trkpt lat="47.13919" lon="6.79265">
        <ele>993.4</ele>
        <time>2021-08-12T15:06:37Z</time>
      </trkpt>
      <trkpt lat="47.1392" lon="6.79267">
        <ele>993.5</ele>
        <time>2021-08-12T15:06:39Z</time>
      </trkpt>
      <trkpt lat="47.1392" lon="6.79264">
        <ele>993.5</ele>
        <time>2021-08-12T15:06:41Z</time>
      </trkpt>
      <trkpt lat="47.1392" lon="6.79263">
        <ele>993.5</ele>
        <time>2021-08-12T15:06:42Z</time>
      </trkpt>
      <trkpt lat="47.13917" lon="6.79258">
        <ele>993.6</ele>
        <time>2021-08-12T15:06:44Z</time>
      </trkpt>
      <trkpt lat="47.13914" lon="6.79252">
        <ele>993.7</ele>
        <time>2021-08-12T15:06:46Z</time>
      </trkpt>
      <trkpt lat="47.13911" lon="6.79249">
        <ele>993.7</ele>
        <time>2021-08-12T15:06:47Z</time>
      </trkpt>
      <trkpt lat="47.13904" lon="6.79241">
        <ele>993.8</ele>
        <time>2021-08-12T15:06:49Z</time>
      </trkpt>
      <trkpt lat="47.139" lon="6.79237">
        <ele>993.8</ele>
        <time>2021-08-12T15:06:50Z</time>
      </trkpt>
      <trkpt lat="47.13893" lon="6.79228">
        <ele>993.8</ele>
        <time>2021-08-12T15:06:52Z</time>
      </trkpt>
      <trkpt lat="47.13889" lon="6.79224">
        <ele>993.7</ele>
        <time>2021-08-12T15:06:53Z</time>
      </trkpt>
      <trkpt lat="47.13886" lon="6.79219">
        <ele>993.7</ele>
        <time>2021-08-12T15:06:54Z</time>
      </trkpt>
      <trkpt lat="47.13881" lon="6.7921">
        <ele>993.6</ele>
        <time>2021-08-12T15:06:56Z</time>
      </trkpt>
      <trkpt lat="47.13879" lon="6.79202">
        <ele>993.6</ele>
        <time>2021-08-12T15:06:57Z</time>
      </trkpt>
      <trkpt lat="47.13877" lon="6.79197">
        <ele>993.5</ele>
        <time>2021-08-12T15:06:58Z</time>
      </trkpt>
      <trkpt lat="47.13874" lon="6.79191">
        <ele>993.5</ele>
        <time>2021-08-12T15:06:59Z</time>
      </trkpt>
      <trkpt lat="47.13872" lon="6.79182">
        <ele>993.4</ele>
        <time>2021-08-12T15:07:01Z</time>
      </trkpt>
      <trkpt lat="47.13869" lon="6.79176">
        <ele>993.4</ele>
        <time>2021-08-12T15:07:02Z</time>
      </trkpt>
      <trkpt lat="47.13859" lon="6.79163">
        <ele>993.3</ele>
        <time>2021-08-12T15:07:04Z</time>
      </trkpt>
      <trkpt lat="47.13854" lon="6.79156">
        <ele>993.3</ele>
        <time>2021-08-12T15:07:05Z</time>
      </trkpt>
      <trkpt lat="47.1385" lon="6.79149">
        <ele>993.3</ele>
        <time>2021-08-12T15:07:06Z</time>
      </trkpt>
      <trkpt lat="47.1384" lon="6.79135">
        <ele>993.2</ele>
        <time>2021-08-12T15:07:08Z</time>
      </trkpt>
      <trkpt lat="47.13831" lon="6.79122">
        <ele>993.2</ele>
        <time>2021-08-12T15:07:10Z</time>
      </trkpt>
      <trkpt lat="47.13826" lon="6.79116">
        <ele>993.3</ele>
        <time>2021-08-12T15:07:11Z</time>
      </trkpt>
      <trkpt lat="47.13821" lon="6.7911">
        <ele>993.3</ele>
        <time>2021-08-12T15:07:12Z</time>
      </trkpt>
      <trkpt lat="47.13813" lon="6.79099">
        <ele>993.4</ele>
        <time>2021-08-12T15:07:14Z</time>
      </trkpt>
      <trkpt lat="47.13806" lon="6.79084">
        <ele>993.5</ele>
        <time>2021-08-12T15:07:16Z</time>
      </trkpt>
      <trkpt lat="47.13802" lon="6.79077">
        <ele>993.6</ele>
        <time>2021-08-12T15:07:17Z</time>
      </trkpt>
      <trkpt lat="47.13799" lon="6.7907">
        <ele>993.6</ele>
        <time>2021-08-12T15:07:18Z</time>
      </trkpt>
      <trkpt lat="47.13794" lon="6.79058">
        <ele>993.7</ele>
        <time>2021-08-12T15:07:20Z</time>
      </trkpt>
      <trkpt lat="47.13789" lon="6.79044">
        <ele>993.8</ele>
        <time>2021-08-12T15:07:22Z</time>
      </trkpt>
      <trkpt lat="47.13787" lon="6.79037">
        <ele>993.9</ele>
        <time>2021-08-12T15:07:23Z</time>
      </trkpt>
      <trkpt lat="47.13785" lon="6.7903">
        <ele>994</ele>
        <time>2021-08-12T15:07:24Z</time>
      </trkpt>
      <trkpt lat="47.13781" lon="6.79016">
        <ele>994.2</ele>
        <time>2021-08-12T15:07:26Z</time>
      </trkpt>
      <trkpt lat="47.13778" lon="6.79004">
        <ele>994.3</ele>
        <time>2021-08-12T15:07:28Z</time>
      </trkpt>
      <trkpt lat="47.13777" lon="6.79">
        <ele>994.3</ele>
        <time>2021-08-12T15:07:29Z</time>
      </trkpt>
      <trkpt lat="47.13775" lon="6.78996">
        <ele>994.3</ele>
        <time>2021-08-12T15:07:30Z</time>
      </trkpt>
      <trkpt lat="47.13771" lon="6.78988">
        <ele>994.4</ele>
        <time>2021-08-12T15:07:32Z</time>
      </trkpt>
      <trkpt lat="47.13766" lon="6.78982">
        <ele>994.5</ele>
        <time>2021-08-12T15:07:34Z</time>
      </trkpt>
      <trkpt lat="47.13765" lon="6.78981">
        <ele>994.6</ele>
        <time>2021-08-12T15:07:35Z</time>
      </trkpt>
      <trkpt lat="47.13764" lon="6.78981">
        <ele>994.6</ele>
        <time>2021-08-12T15:07:36Z</time>
      </trkpt>
      <trkpt lat="47.1376" lon="6.78976">
        <ele>994.8</ele>
        <time>2021-08-12T15:07:38Z</time>
      </trkpt>
      <trkpt lat="47.13757" lon="6.78973">
        <ele>994.9</ele>
        <time>2021-08-12T15:07:39Z</time>
      </trkpt>
      <trkpt lat="47.13753" lon="6.78966">
        <ele>995.1</ele>
        <time>2021-08-12T15:07:40Z</time>
      </trkpt>
      <trkpt lat="47.13751" lon="6.78959">
        <ele>995.2</ele>
        <time>2021-08-12T15:07:42Z</time>
      </trkpt>
      <trkpt lat="47.1375" lon="6.78953">
        <ele>995.3</ele>
        <time>2021-08-12T15:07:43Z</time>
      </trkpt>
      <trkpt lat="47.13749" lon="6.78948">
        <ele>995.3</ele>
        <time>2021-08-12T15:07:44Z</time>
      </trkpt>
      <trkpt lat="47.13748" lon="6.78942">
        <ele>995.4</ele>
        <time>2021-08-12T15:07:45Z</time>
      </trkpt>
      <trkpt lat="47.13747" lon="6.78939">
        <ele>995.4</ele>
        <time>2021-08-12T15:07:46Z</time>
      </trkpt>
      <trkpt lat="47.13746" lon="6.78934">
        <ele>995.4</ele>
        <time>2021-08-12T15:07:48Z</time>
      </trkpt>
      <trkpt lat="47.13744" lon="6.7893">
        <ele>995.5</ele>
        <time>2021-08-12T15:07:49Z</time>
      </trkpt>
      <trkpt lat="47.13742" lon="6.78925">
        <ele>995.5</ele>
        <time>2021-08-12T15:07:50Z</time>
      </trkpt>
      <trkpt lat="47.13738" lon="6.78915">
        <ele>995.6</ele>
        <time>2021-08-12T15:07:52Z</time>
      </trkpt>
      <trkpt lat="47.13735" lon="6.7891">
        <ele>995.6</ele>
        <time>2021-08-12T15:07:53Z</time>
      </trkpt>
      <trkpt lat="47.13732" lon="6.78905">
        <ele>995.7</ele>
        <time>2021-08-12T15:07:54Z</time>
      </trkpt>
      <trkpt lat="47.13728" lon="6.78895">
        <ele>995.7</ele>
        <time>2021-08-12T15:07:56Z</time>
      </trkpt>
      <trkpt lat="47.13723" lon="6.78885">
        <ele>995.9</ele>
        <time>2021-08-12T15:07:58Z</time>
      </trkpt>
      <trkpt lat="47.13721" lon="6.78879">
        <ele>995.9</ele>
        <time>2021-08-12T15:07:59Z</time>
      </trkpt>
      <trkpt lat="47.13719" lon="6.78872">
        <ele>996</ele>
        <time>2021-08-12T15:08:00Z</time>
      </trkpt>
      <trkpt lat="47.13718" lon="6.78866">
        <ele>996</ele>
        <time>2021-08-12T15:08:01Z</time>
      </trkpt>
      <trkpt lat="47.13716" lon="6.7886">
        <ele>996.1</ele>
        <time>2021-08-12T15:08:02Z</time>
      </trkpt>
      <trkpt lat="47.13713" lon="6.78852">
        <ele>996.2</ele>
        <time>2021-08-12T15:08:04Z</time>
      </trkpt>
      <trkpt lat="47.1371" lon="6.78852">
        <ele>996.2</ele>
        <time>2021-08-12T15:08:05Z</time>
      </trkpt>
      <trkpt lat="47.1371" lon="6.78854">
        <ele>996.3</ele>
        <time>2021-08-12T15:08:06Z</time>
      </trkpt>
      <trkpt lat="47.13709" lon="6.78854">
        <ele>996.3</ele>
        <time>2021-08-12T15:08:07Z</time>
      </trkpt>
      <trkpt lat="47.13707" lon="6.78851">
        <ele>996.3</ele>
        <time>2021-08-12T15:08:08Z</time>
      </trkpt>
      <trkpt lat="47.13703" lon="6.78845">
        <ele>996.4</ele>
        <time>2021-08-12T15:08:10Z</time>
      </trkpt>
      <trkpt lat="47.13699" lon="6.7884">
        <ele>996.5</ele>
        <time>2021-08-12T15:08:12Z</time>
      </trkpt>
      <trkpt lat="47.13696" lon="6.78836">
        <ele>996.6</ele>
        <time>2021-08-12T15:08:13Z</time>
      </trkpt>
      <trkpt lat="47.13693" lon="6.78832">
        <ele>996.8</ele>
        <time>2021-08-12T15:08:14Z</time>
      </trkpt>
      <trkpt lat="47.13689" lon="6.78826">
        <ele>996.9</ele>
        <time>2021-08-12T15:08:16Z</time>
      </trkpt>
      <trkpt lat="47.13688" lon="6.78821">
        <ele>997.1</ele>
        <time>2021-08-12T15:08:18Z</time>
      </trkpt>
      <trkpt lat="47.13686" lon="6.78819">
        <ele>997.2</ele>
        <time>2021-08-12T15:08:19Z</time>
      </trkpt>
      <trkpt lat="47.13683" lon="6.78812">
        <ele>997.4</ele>
        <time>2021-08-12T15:08:20Z</time>
      </trkpt>
      <trkpt lat="47.13683" lon="6.78809">
        <ele>997.6</ele>
        <time>2021-08-12T15:08:21Z</time>
      </trkpt>
      <trkpt lat="47.13682" lon="6.78805">
        <ele>997.7</ele>
        <time>2021-08-12T15:08:23Z</time>
      </trkpt>
      <trkpt lat="47.13681" lon="6.78801">
        <ele>997.9</ele>
        <time>2021-08-12T15:08:24Z</time>
      </trkpt>
      <trkpt lat="47.1368" lon="6.78796">
        <ele>998</ele>
        <time>2021-08-12T15:08:25Z</time>
      </trkpt>
      <trkpt lat="47.13679" lon="6.78792">
        <ele>998.2</ele>
        <time>2021-08-12T15:08:26Z</time>
      </trkpt>
      <trkpt lat="47.13679" lon="6.7879">
        <ele>998.3</ele>
        <time>2021-08-12T15:08:27Z</time>
      </trkpt>
      <trkpt lat="47.13676" lon="6.78784">
        <ele>998.6</ele>
        <time>2021-08-12T15:08:29Z</time>
      </trkpt>
      <trkpt lat="47.13674" lon="6.78782">
        <ele>998.8</ele>
        <time>2021-08-12T15:08:30Z</time>
      </trkpt>
      <trkpt lat="47.13671" lon="6.78776">
        <ele>999.1</ele>
        <time>2021-08-12T15:08:32Z</time>
      </trkpt>
      <trkpt lat="47.13669" lon="6.78772">
        <ele>999.3</ele>
        <time>2021-08-12T15:08:34Z</time>
      </trkpt>
      <trkpt lat="47.13666" lon="6.78769">
        <ele>999.5</ele>
        <time>2021-08-12T15:08:35Z</time>
      </trkpt>
      <trkpt lat="47.13666" lon="6.78767">
        <ele>999.6</ele>
        <time>2021-08-12T15:08:36Z</time>
      </trkpt>
      <trkpt lat="47.13664" lon="6.78761">
        <ele>999.9</ele>
        <time>2021-08-12T15:08:38Z</time>
      </trkpt>
      <trkpt lat="47.13663" lon="6.78757">
        <ele>1000.1</ele>
        <time>2021-08-12T15:08:39Z</time>
      </trkpt>
      <trkpt lat="47.13662" lon="6.78756">
        <ele>1000.2</ele>
        <time>2021-08-12T15:08:40Z</time>
      </trkpt>
      <trkpt lat="47.13661" lon="6.78752">
        <ele>1000.4</ele>
        <time>2021-08-12T15:08:42Z</time>
      </trkpt>
      <trkpt lat="47.1366" lon="6.7875">
        <ele>1000.5</ele>
        <time>2021-08-12T15:08:43Z</time>
      </trkpt>
      <trkpt lat="47.13659" lon="6.78748">
        <ele>1000.6</ele>
        <time>2021-08-12T15:08:44Z</time>
      </trkpt>
      <trkpt lat="47.13656" lon="6.78748">
        <ele>1000.8</ele>
        <time>2021-08-12T15:08:46Z</time>
      </trkpt>
      <trkpt lat="47.13655" lon="6.78748">
        <ele>1000.9</ele>
        <time>2021-08-12T15:08:47Z</time>
      </trkpt>
      <trkpt lat="47.13655" lon="6.78747">
        <ele>1001</ele>
        <time>2021-08-12T15:08:48Z</time>
      </trkpt>
      <trkpt lat="47.13652" lon="6.78745">
        <ele>1001.2</ele>
        <time>2021-08-12T15:08:49Z</time>
      </trkpt>
      <trkpt lat="47.13651" lon="6.78744">
        <ele>1001.3</ele>
        <time>2021-08-12T15:08:50Z</time>
      </trkpt>
      <trkpt lat="47.13648" lon="6.7874">
        <ele>1001.6</ele>
        <time>2021-08-12T15:08:52Z</time>
      </trkpt>
      <trkpt lat="47.13646" lon="6.78735">
        <ele>1002</ele>
        <time>2021-08-12T15:08:54Z</time>
      </trkpt>
      <trkpt lat="47.13645" lon="6.78729">
        <ele>1002.3</ele>
        <time>2021-08-12T15:08:56Z</time>
      </trkpt>
      <trkpt lat="47.13645" lon="6.78727">
        <ele>1002.4</ele>
        <time>2021-08-12T15:08:57Z</time>
      </trkpt>
      <trkpt lat="47.13644" lon="6.78725">
        <ele>1002.5</ele>
        <time>2021-08-12T15:08:58Z</time>
      </trkpt>
      <trkpt lat="47.13644" lon="6.78722">
        <ele>1002.7</ele>
        <time>2021-08-12T15:09:00Z</time>
      </trkpt>
      <trkpt lat="47.13644" lon="6.78716">
        <ele>1003.1</ele>
        <time>2021-08-12T15:09:02Z</time>
      </trkpt>
      <trkpt lat="47.13641" lon="6.78712">
        <ele>1003.4</ele>
        <time>2021-08-12T15:09:04Z</time>
      </trkpt>
      <trkpt lat="47.13638" lon="6.7871">
        <ele>1003.7</ele>
        <time>2021-08-12T15:09:05Z</time>
      </trkpt>
      <trkpt lat="47.13634" lon="6.78706">
        <ele>1004.1</ele>
        <time>2021-08-12T15:09:07Z</time>
      </trkpt>
      <trkpt lat="47.13631" lon="6.78704">
        <ele>1004.4</ele>
        <time>2021-08-12T15:09:09Z</time>
      </trkpt>
      <trkpt lat="47.13627" lon="6.78701">
        <ele>1004.9</ele>
        <time>2021-08-12T15:09:10Z</time>
      </trkpt>
      <trkpt lat="47.13622" lon="6.78698">
        <ele>1005.3</ele>
        <time>2021-08-12T15:09:12Z</time>
      </trkpt>
      <trkpt lat="47.13618" lon="6.78695">
        <ele>1005.7</ele>
        <time>2021-08-12T15:09:13Z</time>
      </trkpt>
      <trkpt lat="47.13616" lon="6.78692">
        <ele>1006</ele>
        <time>2021-08-12T15:09:14Z</time>
      </trkpt>
      <trkpt lat="47.13616" lon="6.7869">
        <ele>1006.1</ele>
        <time>2021-08-12T15:09:15Z</time>
      </trkpt>
      <trkpt lat="47.13614" lon="6.78684">
        <ele>1006.6</ele>
        <time>2021-08-12T15:09:17Z</time>
      </trkpt>
      <trkpt lat="47.13612" lon="6.78682">
        <ele>1006.7</ele>
        <time>2021-08-12T15:09:18Z</time>
      </trkpt>
      <trkpt lat="47.13611" lon="6.7868">
        <ele>1006.9</ele>
        <time>2021-08-12T15:09:19Z</time>
      </trkpt>
      <trkpt lat="47.13608" lon="6.78678">
        <ele>1007.2</ele>
        <time>2021-08-12T15:09:21Z</time>
      </trkpt>
      <trkpt lat="47.13606" lon="6.78677">
        <ele>1007.4</ele>
        <time>2021-08-12T15:09:22Z</time>
      </trkpt>
      <trkpt lat="47.13605" lon="6.78676">
        <ele>1007.5</ele>
        <time>2021-08-12T15:09:23Z</time>
      </trkpt>
      <trkpt lat="47.13605" lon="6.78675">
        <ele>1007.6</ele>
        <time>2021-08-12T15:09:24Z</time>
      </trkpt>
      <trkpt lat="47.13605" lon="6.78674">
        <ele>1007.6</ele>
        <time>2021-08-12T15:09:25Z</time>
      </trkpt>
      <trkpt lat="47.13605" lon="6.78673">
        <ele>1007.7</ele>
        <time>2021-08-12T15:09:26Z</time>
      </trkpt>
      <trkpt lat="47.13604" lon="6.78672">
        <ele>1007.8</ele>
        <time>2021-08-12T15:09:28Z</time>
      </trkpt>
      <trkpt lat="47.13604" lon="6.78671">
        <ele>1007.8</ele>
        <time>2021-08-12T15:09:29Z</time>
      </trkpt>
      <trkpt lat="47.13604" lon="6.7867">
        <ele>1007.9</ele>
        <time>2021-08-12T15:09:30Z</time>
      </trkpt>
      <trkpt lat="47.13604" lon="6.78669">
        <ele>1008</ele>
        <time>2021-08-12T15:09:31Z</time>
      </trkpt>
      <trkpt lat="47.13603" lon="6.78668">
        <ele>1008</ele>
        <time>2021-08-12T15:09:33Z</time>
      </trkpt>
      <trkpt lat="47.13603" lon="6.78667">
        <ele>1008.1</ele>
        <time>2021-08-12T15:09:35Z</time>
      </trkpt>
      <trkpt lat="47.13603" lon="6.78666">
        <ele>1008.1</ele>
        <time>2021-08-12T15:09:36Z</time>
      </trkpt>
      <trkpt lat="47.13606" lon="6.7866">
        <ele>1008.6</ele>
        <time>2021-08-12T15:09:38Z</time>
      </trkpt>
      <trkpt lat="47.13609" lon="6.78657">
        <ele>1008.9</ele>
        <time>2021-08-12T15:09:39Z</time>
      </trkpt>
      <trkpt lat="47.13614" lon="6.78655">
        <ele>1009.3</ele>
        <time>2021-08-12T15:09:41Z</time>
      </trkpt>
      <trkpt lat="47.13616" lon="6.78652">
        <ele>1009.6</ele>
        <time>2021-08-12T15:09:42Z</time>
      </trkpt>
      <trkpt lat="47.13615" lon="6.78652">
        <ele>1009.6</ele>
        <time>2021-08-12T15:09:44Z</time>
      </trkpt>
      <trkpt lat="47.13614" lon="6.78652">
        <ele>1009.7</ele>
        <time>2021-08-12T15:09:45Z</time>
      </trkpt>
      <trkpt lat="47.13613" lon="6.78651">
        <ele>1009.8</ele>
        <time>2021-08-12T15:09:47Z</time>
      </trkpt>
      <trkpt lat="47.13612" lon="6.78651">
        <ele>1009.9</ele>
        <time>2021-08-12T15:09:48Z</time>
      </trkpt>
      <trkpt lat="47.13612" lon="6.78648">
        <ele>1010.1</ele>
        <time>2021-08-12T15:09:49Z</time>
      </trkpt>
      <trkpt lat="47.13611" lon="6.78645">
        <ele>1010.2</ele>
        <time>2021-08-12T15:09:51Z</time>
      </trkpt>
      <trkpt lat="47.13611" lon="6.78643">
        <ele>1010.3</ele>
        <time>2021-08-12T15:09:52Z</time>
      </trkpt>
      <trkpt lat="47.13609" lon="6.78641">
        <ele>1010.5</ele>
        <time>2021-08-12T15:09:54Z</time>
      </trkpt>
      <trkpt lat="47.13604" lon="6.78637">
        <ele>1011</ele>
        <time>2021-08-12T15:09:56Z</time>
      </trkpt>
      <trkpt lat="47.13598" lon="6.78629">
        <ele>1011.6</ele>
        <time>2021-08-12T15:09:57Z</time>
      </trkpt>
      <trkpt lat="47.13594" lon="6.78623">
        <ele>1011.9</ele>
        <time>2021-08-12T15:09:59Z</time>
      </trkpt>
      <trkpt lat="47.13592" lon="6.7862">
        <ele>1012.1</ele>
        <time>2021-08-12T15:10:00Z</time>
      </trkpt>
      <trkpt lat="47.13591" lon="6.78615">
        <ele>1012.3</ele>
        <time>2021-08-12T15:10:01Z</time>
      </trkpt>
      <trkpt lat="47.13589" lon="6.7861">
        <ele>1012.5</ele>
        <time>2021-08-12T15:10:03Z</time>
      </trkpt>
      <trkpt lat="47.13588" lon="6.78605">
        <ele>1012.7</ele>
        <time>2021-08-12T15:10:04Z</time>
      </trkpt>
      <trkpt lat="47.13588" lon="6.78601">
        <ele>1012.9</ele>
        <time>2021-08-12T15:10:05Z</time>
      </trkpt>
      <trkpt lat="47.13587" lon="6.78595">
        <ele>1013</ele>
        <time>2021-08-12T15:10:07Z</time>
      </trkpt>
      <trkpt lat="47.13585" lon="6.78592">
        <ele>1013.2</ele>
        <time>2021-08-12T15:10:08Z</time>
      </trkpt>
      <trkpt lat="47.13585" lon="6.78591">
        <ele>1013.2</ele>
        <time>2021-08-12T15:10:09Z</time>
      </trkpt>
      <trkpt lat="47.13583" lon="6.78587">
        <ele>1013.3</ele>
        <time>2021-08-12T15:10:10Z</time>
      </trkpt>
      <trkpt lat="47.13582" lon="6.78586">
        <ele>1013.4</ele>
        <time>2021-08-12T15:10:11Z</time>
      </trkpt>
      <trkpt lat="47.13579" lon="6.78579">
        <ele>1013.5</ele>
        <time>2021-08-12T15:10:12Z</time>
      </trkpt>
      <trkpt lat="47.13578" lon="6.78576">
        <ele>1013.6</ele>
        <time>2021-08-12T15:10:13Z</time>
      </trkpt>
      <trkpt lat="47.13577" lon="6.78572">
        <ele>1013.7</ele>
        <time>2021-08-12T15:10:15Z</time>
      </trkpt>
      <trkpt lat="47.13575" lon="6.78567">
        <ele>1013.8</ele>
        <time>2021-08-12T15:10:16Z</time>
      </trkpt>
      <trkpt lat="47.13574" lon="6.78564">
        <ele>1013.8</ele>
        <time>2021-08-12T15:10:17Z</time>
      </trkpt>
      <trkpt lat="47.13573" lon="6.78561">
        <ele>1013.8</ele>
        <time>2021-08-12T15:10:19Z</time>
      </trkpt>
      <trkpt lat="47.13572" lon="6.78556">
        <ele>1013.9</ele>
        <time>2021-08-12T15:10:20Z</time>
      </trkpt>
      <trkpt lat="47.13571" lon="6.78554">
        <ele>1013.9</ele>
        <time>2021-08-12T15:10:21Z</time>
      </trkpt>
      <trkpt lat="47.13572" lon="6.7855">
        <ele>1013.9</ele>
        <time>2021-08-12T15:10:23Z</time>
      </trkpt>
      <trkpt lat="47.13573" lon="6.78548">
        <ele>1013.9</ele>
        <time>2021-08-12T15:10:24Z</time>
      </trkpt>
      <trkpt lat="47.13573" lon="6.78546">
        <ele>1013.9</ele>
        <time>2021-08-12T15:10:25Z</time>
      </trkpt>
      <trkpt lat="47.13572" lon="6.7854">
        <ele>1014</ele>
        <time>2021-08-12T15:10:27Z</time>
      </trkpt>
      <trkpt lat="47.13571" lon="6.78537">
        <ele>1013.9</ele>
        <time>2021-08-12T15:10:28Z</time>
      </trkpt>
      <trkpt lat="47.1357" lon="6.78535">
        <ele>1013.9</ele>
        <time>2021-08-12T15:10:29Z</time>
      </trkpt>
      <trkpt lat="47.13569" lon="6.78531">
        <ele>1013.9</ele>
        <time>2021-08-12T15:10:30Z</time>
      </trkpt>
      <trkpt lat="47.13565" lon="6.78525">
        <ele>1013.9</ele>
        <time>2021-08-12T15:10:32Z</time>
      </trkpt>
      <trkpt lat="47.13561" lon="6.78517">
        <ele>1013.9</ele>
        <time>2021-08-12T15:10:34Z</time>
      </trkpt>
      <trkpt lat="47.13559" lon="6.78513">
        <ele>1013.9</ele>
        <time>2021-08-12T15:10:35Z</time>
      </trkpt>
      <trkpt lat="47.13555" lon="6.78504">
        <ele>1013.8</ele>
        <time>2021-08-12T15:10:37Z</time>
      </trkpt>
      <trkpt lat="47.13553" lon="6.785">
        <ele>1013.8</ele>
        <time>2021-08-12T15:10:38Z</time>
      </trkpt>
      <trkpt lat="47.13551" lon="6.78496">
        <ele>1013.8</ele>
        <time>2021-08-12T15:10:39Z</time>
      </trkpt>
      <trkpt lat="47.13548" lon="6.78489">
        <ele>1013.8</ele>
        <time>2021-08-12T15:10:41Z</time>
      </trkpt>
      <trkpt lat="47.13547" lon="6.78485">
        <ele>1013.7</ele>
        <time>2021-08-12T15:10:42Z</time>
      </trkpt>
      <trkpt lat="47.13544" lon="6.78476">
        <ele>1013.7</ele>
        <time>2021-08-12T15:10:44Z</time>
      </trkpt>
      <trkpt lat="47.13541" lon="6.7847">
        <ele>1013.7</ele>
        <time>2021-08-12T15:10:46Z</time>
      </trkpt>
      <trkpt lat="47.13537" lon="6.78467">
        <ele>1013.6</ele>
        <time>2021-08-12T15:10:47Z</time>
      </trkpt>
      <trkpt lat="47.13534" lon="6.78464">
        <ele>1013.6</ele>
        <time>2021-08-12T15:10:48Z</time>
      </trkpt>
      <trkpt lat="47.1353" lon="6.78461">
        <ele>1013.6</ele>
        <time>2021-08-12T15:10:49Z</time>
      </trkpt>
      <trkpt lat="47.13527" lon="6.78458">
        <ele>1013.6</ele>
        <time>2021-08-12T15:10:50Z</time>
      </trkpt>
      <trkpt lat="47.13519" lon="6.78452">
        <ele>1013.6</ele>
        <time>2021-08-12T15:10:52Z</time>
      </trkpt>
      <trkpt lat="47.13512" lon="6.78446">
        <ele>1013.5</ele>
        <time>2021-08-12T15:10:54Z</time>
      </trkpt>
      <trkpt lat="47.13508" lon="6.78442">
        <ele>1013.5</ele>
        <time>2021-08-12T15:10:55Z</time>
      </trkpt>
      <trkpt lat="47.13505" lon="6.78437">
        <ele>1013.5</ele>
        <time>2021-08-12T15:10:56Z</time>
      </trkpt>
      <trkpt lat="47.13504" lon="6.78431">
        <ele>1013.5</ele>
        <time>2021-08-12T15:10:57Z</time>
      </trkpt>
      <trkpt lat="47.135" lon="6.78421">
        <ele>1013.4</ele>
        <time>2021-08-12T15:10:58Z</time>
      </trkpt>
      <trkpt lat="47.13497" lon="6.78415">
        <ele>1013.3</ele>
        <time>2021-08-12T15:11:00Z</time>
      </trkpt>
      <trkpt lat="47.13495" lon="6.78408">
        <ele>1013.2</ele>
        <time>2021-08-12T15:11:01Z</time>
      </trkpt>
      <trkpt lat="47.13493" lon="6.78402">
        <ele>1013.1</ele>
        <time>2021-08-12T15:11:02Z</time>
      </trkpt>
      <trkpt lat="47.13491" lon="6.78397">
        <ele>1013.1</ele>
        <time>2021-08-12T15:11:03Z</time>
      </trkpt>
      <trkpt lat="47.13489" lon="6.78392">
        <ele>1013</ele>
        <time>2021-08-12T15:11:04Z</time>
      </trkpt>
      <trkpt lat="47.13487" lon="6.78387">
        <ele>1012.9</ele>
        <time>2021-08-12T15:11:05Z</time>
      </trkpt>
      <trkpt lat="47.13483" lon="6.78379">
        <ele>1012.7</ele>
        <time>2021-08-12T15:11:07Z</time>
      </trkpt>
      <trkpt lat="47.1348" lon="6.78375">
        <ele>1012.6</ele>
        <time>2021-08-12T15:11:08Z</time>
      </trkpt>
      <trkpt lat="47.13475" lon="6.78376">
        <ele>1012.5</ele>
        <time>2021-08-12T15:11:09Z</time>
      </trkpt>
      <trkpt lat="47.1347" lon="6.78364">
        <ele>1012.2</ele>
        <time>2021-08-12T15:11:11Z</time>
      </trkpt>
      <trkpt lat="47.13467" lon="6.78356">
        <ele>1012</ele>
        <time>2021-08-12T15:11:12Z</time>
      </trkpt>
      <trkpt lat="47.13461" lon="6.78342">
        <ele>1011.7</ele>
        <time>2021-08-12T15:11:14Z</time>
      </trkpt>
      <trkpt lat="47.13455" lon="6.78331">
        <ele>1011.4</ele>
        <time>2021-08-12T15:11:16Z</time>
      </trkpt>
      <trkpt lat="47.13449" lon="6.78317">
        <ele>1011</ele>
        <time>2021-08-12T15:11:18Z</time>
      </trkpt>
      <trkpt lat="47.13441" lon="6.78305">
        <ele>1010.6</ele>
        <time>2021-08-12T15:11:20Z</time>
      </trkpt>
      <trkpt lat="47.13434" lon="6.78293">
        <ele>1010.3</ele>
        <time>2021-08-12T15:11:22Z</time>
      </trkpt>
      <trkpt lat="47.13431" lon="6.78287">
        <ele>1010.2</ele>
        <time>2021-08-12T15:11:23Z</time>
      </trkpt>
      <trkpt lat="47.13426" lon="6.78274">
        <ele>1009.9</ele>
        <time>2021-08-12T15:11:25Z</time>
      </trkpt>
      <trkpt lat="47.13426" lon="6.78267">
        <ele>1009.8</ele>
        <time>2021-08-12T15:11:26Z</time>
      </trkpt>
      <trkpt lat="47.13425" lon="6.78253">
        <ele>1009.5</ele>
        <time>2021-08-12T15:11:28Z</time>
      </trkpt>
      <trkpt lat="47.13423" lon="6.78246">
        <ele>1009.4</ele>
        <time>2021-08-12T15:11:29Z</time>
      </trkpt>
      <trkpt lat="47.13417" lon="6.78236">
        <ele>1009.1</ele>
        <time>2021-08-12T15:11:31Z</time>
      </trkpt>
      <trkpt lat="47.13413" lon="6.78233">
        <ele>1009</ele>
        <time>2021-08-12T15:11:32Z</time>
      </trkpt>
      <trkpt lat="47.13409" lon="6.7823">
        <ele>1008.8</ele>
        <time>2021-08-12T15:11:33Z</time>
      </trkpt>
      <trkpt lat="47.13405" lon="6.78228">
        <ele>1008.8</ele>
        <time>2021-08-12T15:11:34Z</time>
      </trkpt>
      <trkpt lat="47.13398" lon="6.7822">
        <ele>1008.5</ele>
        <time>2021-08-12T15:11:36Z</time>
      </trkpt>
      <trkpt lat="47.13392" lon="6.7821">
        <ele>1008.2</ele>
        <time>2021-08-12T15:11:38Z</time>
      </trkpt>
      <trkpt lat="47.13389" lon="6.78205">
        <ele>1008.1</ele>
        <time>2021-08-12T15:11:39Z</time>
      </trkpt>
      <trkpt lat="47.13383" lon="6.78197">
        <ele>1007.9</ele>
        <time>2021-08-12T15:11:41Z</time>
      </trkpt>
      <trkpt lat="47.13379" lon="6.78186">
        <ele>1007.6</ele>
        <time>2021-08-12T15:11:43Z</time>
      </trkpt>
      <trkpt lat="47.13376" lon="6.7818">
        <ele>1007.4</ele>
        <time>2021-08-12T15:11:44Z</time>
      </trkpt>
      <trkpt lat="47.1337" lon="6.78167">
        <ele>1007.1</ele>
        <time>2021-08-12T15:11:46Z</time>
      </trkpt>
      <trkpt lat="47.13367" lon="6.78161">
        <ele>1006.9</ele>
        <time>2021-08-12T15:11:47Z</time>
      </trkpt>
      <trkpt lat="47.13359" lon="6.78149">
        <ele>1006.4</ele>
        <time>2021-08-12T15:11:49Z</time>
      </trkpt>
      <trkpt lat="47.13355" lon="6.78143">
        <ele>1006.2</ele>
        <time>2021-08-12T15:11:50Z</time>
      </trkpt>
      <trkpt lat="47.13347" lon="6.7813">
        <ele>1005.6</ele>
        <time>2021-08-12T15:11:52Z</time>
      </trkpt>
      <trkpt lat="47.13337" lon="6.78114">
        <ele>1004.9</ele>
        <time>2021-08-12T15:11:54Z</time>
      </trkpt>
      <trkpt lat="47.13327" lon="6.78098">
        <ele>1004.2</ele>
        <time>2021-08-12T15:11:56Z</time>
      </trkpt>
      <trkpt lat="47.13322" lon="6.7809">
        <ele>1003.8</ele>
        <time>2021-08-12T15:11:57Z</time>
      </trkpt>
      <trkpt lat="47.13311" lon="6.78074">
        <ele>1003</ele>
        <time>2021-08-12T15:11:59Z</time>
      </trkpt>
      <trkpt lat="47.13305" lon="6.78068">
        <ele>1002.5</ele>
        <time>2021-08-12T15:12:00Z</time>
      </trkpt>
      <trkpt lat="47.13295" lon="6.78056">
        <ele>1001.8</ele>
        <time>2021-08-12T15:12:02Z</time>
      </trkpt>
      <trkpt lat="47.13291" lon="6.78046">
        <ele>1001.4</ele>
        <time>2021-08-12T15:12:04Z</time>
      </trkpt>
      <trkpt lat="47.13292" lon="6.78037">
        <ele>1001</ele>
        <time>2021-08-12T15:12:06Z</time>
      </trkpt>
      <trkpt lat="47.13295" lon="6.78028">
        <ele>1000.6</ele>
        <time>2021-08-12T15:12:08Z</time>
      </trkpt>
      <trkpt lat="47.13298" lon="6.78018">
        <ele>1000.2</ele>
        <time>2021-08-12T15:12:10Z</time>
      </trkpt>
      <trkpt lat="47.13297" lon="6.78014">
        <ele>1000.1</ele>
        <time>2021-08-12T15:12:11Z</time>
      </trkpt>
      <trkpt lat="47.13297" lon="6.78014">
        <ele>1000.1</ele>
        <time>2021-08-12T15:12:12Z</time>
      </trkpt>
      <trkpt lat="47.13298" lon="6.78014">
        <ele>1000</ele>
        <time>2021-08-12T15:12:13Z</time>
      </trkpt>
      <trkpt lat="47.13298" lon="6.78014">
        <ele>1000</ele>
        <time>2021-08-12T15:12:14Z</time>
      </trkpt>
      <trkpt lat="47.13298" lon="6.78013">
        <ele>1000</ele>
        <time>2021-08-12T15:12:15Z</time>
      </trkpt>
      <trkpt lat="47.13298" lon="6.78013">
        <ele>1000</ele>
        <time>2021-08-12T15:12:17Z</time>
      </trkpt>
      <trkpt lat="47.13298" lon="6.78012">
        <ele>1000</ele>
        <time>2021-08-12T15:12:18Z</time>
      </trkpt>
      <trkpt lat="47.13298" lon="6.78012">
        <ele>999.9</ele>
        <time>2021-08-12T15:12:20Z</time>
      </trkpt>
      <trkpt lat="47.13297" lon="6.78011">
        <ele>999.9</ele>
        <time>2021-08-12T15:12:21Z</time>
      </trkpt>
      <trkpt lat="47.13296" lon="6.78011">
        <ele>999.9</ele>
        <time>2021-08-12T15:12:23Z</time>
      </trkpt>
      <trkpt lat="47.13295" lon="6.78024">
        <ele>999.3</ele>
        <time>2021-08-12T15:13:19Z</time>
      </trkpt>
      <trkpt lat="47.133" lon="6.78024">
        <ele>999</ele>
        <time>2021-08-12T15:13:21Z</time>
      </trkpt>
      <trkpt lat="47.13302" lon="6.78023">
        <ele>998.9</ele>
        <time>2021-08-12T15:13:22Z</time>
      </trkpt>
      <trkpt lat="47.13307" lon="6.7802">
        <ele>998.6</ele>
        <time>2021-08-12T15:13:24Z</time>
      </trkpt>
      <trkpt lat="47.1331" lon="6.78019">
        <ele>998.4</ele>
        <time>2021-08-12T15:13:25Z</time>
      </trkpt>
      <trkpt lat="47.13312" lon="6.78018">
        <ele>998.2</ele>
        <time>2021-08-12T15:13:27Z</time>
      </trkpt>
      <trkpt lat="47.13313" lon="6.78017">
        <ele>998.1</ele>
        <time>2021-08-12T15:13:29Z</time>
      </trkpt>
      <trkpt lat="47.13316" lon="6.78016">
        <ele>998</ele>
        <time>2021-08-12T15:13:31Z</time>
      </trkpt>
      <trkpt lat="47.13278" lon="6.78007">
        <ele>995.3</ele>
        <time>2021-08-12T15:14:20Z</time>
      </trkpt>
      <trkpt lat="47.13267" lon="6.77992">
        <ele>994.2</ele>
        <time>2021-08-12T15:14:22Z</time>
      </trkpt>
      <trkpt lat="47.13262" lon="6.77986">
        <ele>993.7</ele>
        <time>2021-08-12T15:14:23Z</time>
      </trkpt>
      <trkpt lat="47.13253" lon="6.77977">
        <ele>992.9</ele>
        <time>2021-08-12T15:14:25Z</time>
      </trkpt>
      <trkpt lat="47.13243" lon="6.77969">
        <ele>992.1</ele>
        <time>2021-08-12T15:14:27Z</time>
      </trkpt>
      <trkpt lat="47.1323" lon="6.77955">
        <ele>991</ele>
        <time>2021-08-12T15:14:29Z</time>
      </trkpt>
      <trkpt lat="47.13222" lon="6.77948">
        <ele>990.3</ele>
        <time>2021-08-12T15:14:30Z</time>
      </trkpt>
      <trkpt lat="47.13214" lon="6.77941">
        <ele>989.6</ele>
        <time>2021-08-12T15:14:31Z</time>
      </trkpt>
      <trkpt lat="47.13197" lon="6.77928">
        <ele>988.1</ele>
        <time>2021-08-12T15:14:33Z</time>
      </trkpt>
      <trkpt lat="47.13187" lon="6.7792">
        <ele>987.3</ele>
        <time>2021-08-12T15:14:34Z</time>
      </trkpt>
      <trkpt lat="47.13177" lon="6.77912">
        <ele>986.4</ele>
        <time>2021-08-12T15:14:35Z</time>
      </trkpt>
      <trkpt lat="47.13157" lon="6.77895">
        <ele>984.7</ele>
        <time>2021-08-12T15:14:37Z</time>
      </trkpt>
      <trkpt lat="47.13136" lon="6.77879">
        <ele>983.3</ele>
        <time>2021-08-12T15:14:39Z</time>
      </trkpt>
      <trkpt lat="47.13117" lon="6.77864">
        <ele>982.1</ele>
        <time>2021-08-12T15:14:41Z</time>
      </trkpt>
      <trkpt lat="47.13098" lon="6.77849">
        <ele>981</ele>
        <time>2021-08-12T15:14:43Z</time>
      </trkpt>
      <trkpt lat="47.13081" lon="6.77832">
        <ele>980</ele>
        <time>2021-08-12T15:14:45Z</time>
      </trkpt>
      <trkpt lat="47.13073" lon="6.77823">
        <ele>979.5</ele>
        <time>2021-08-12T15:14:46Z</time>
      </trkpt>
      <trkpt lat="47.13065" lon="6.77813">
        <ele>979</ele>
        <time>2021-08-12T15:14:47Z</time>
      </trkpt>
      <trkpt lat="47.13051" lon="6.77791">
        <ele>978</ele>
        <time>2021-08-12T15:14:49Z</time>
      </trkpt>
      <trkpt lat="47.13045" lon="6.77779">
        <ele>977.6</ele>
        <time>2021-08-12T15:14:50Z</time>
      </trkpt>
      <trkpt lat="47.13032" lon="6.77758">
        <ele>976.8</ele>
        <time>2021-08-12T15:14:52Z</time>
      </trkpt>
      <trkpt lat="47.13026" lon="6.77745">
        <ele>976.5</ele>
        <time>2021-08-12T15:14:53Z</time>
      </trkpt>
      <trkpt lat="47.13009" lon="6.77729">
        <ele>975.8</ele>
        <time>2021-08-12T15:14:55Z</time>
      </trkpt>
      <trkpt lat="47.12992" lon="6.77714">
        <ele>975.2</ele>
        <time>2021-08-12T15:14:57Z</time>
      </trkpt>
      <trkpt lat="47.12979" lon="6.77693">
        <ele>974.5</ele>
        <time>2021-08-12T15:14:59Z</time>
      </trkpt>
      <trkpt lat="47.12968" lon="6.77671">
        <ele>974</ele>
        <time>2021-08-12T15:15:01Z</time>
      </trkpt>
      <trkpt lat="47.12959" lon="6.77649">
        <ele>973.7</ele>
        <time>2021-08-12T15:15:03Z</time>
      </trkpt>
      <trkpt lat="47.12954" lon="6.77639">
        <ele>973.6</ele>
        <time>2021-08-12T15:15:04Z</time>
      </trkpt>
      <trkpt lat="47.12949" lon="6.7763">
        <ele>973.6</ele>
        <time>2021-08-12T15:15:05Z</time>
      </trkpt>
      <trkpt lat="47.12941" lon="6.77614">
        <ele>973.6</ele>
        <time>2021-08-12T15:15:07Z</time>
      </trkpt>
      <trkpt lat="47.12931" lon="6.77599">
        <ele>973.7</ele>
        <time>2021-08-12T15:15:09Z</time>
      </trkpt>
      <trkpt lat="47.12925" lon="6.77583">
        <ele>973.9</ele>
        <time>2021-08-12T15:15:11Z</time>
      </trkpt>
      <trkpt lat="47.12923" lon="6.77567">
        <ele>974.1</ele>
        <time>2021-08-12T15:15:13Z</time>
      </trkpt>
      <trkpt lat="47.12924" lon="6.77548">
        <ele>974.3</ele>
        <time>2021-08-12T15:15:15Z</time>
      </trkpt>
      <trkpt lat="47.12917" lon="6.77538">
        <ele>974.5</ele>
        <time>2021-08-12T15:15:17Z</time>
      </trkpt>
      <trkpt lat="47.12916" lon="6.77533">
        <ele>974.6</ele>
        <time>2021-08-12T15:15:18Z</time>
      </trkpt>
      <trkpt lat="47.12915" lon="6.77531">
        <ele>974.6</ele>
        <time>2021-08-12T15:15:19Z</time>
      </trkpt>
      <trkpt lat="47.12915" lon="6.77525">
        <ele>974.7</ele>
        <time>2021-08-12T15:15:20Z</time>
      </trkpt>
      <trkpt lat="47.12916" lon="6.77513">
        <ele>974.8</ele>
        <time>2021-08-12T15:15:22Z</time>
      </trkpt>
      <trkpt lat="47.12916" lon="6.77501">
        <ele>975</ele>
        <time>2021-08-12T15:15:24Z</time>
      </trkpt>
      <trkpt lat="47.12916" lon="6.77499">
        <ele>975.1</ele>
        <time>2021-08-12T15:15:26Z</time>
      </trkpt>
      <trkpt lat="47.12917" lon="6.77497">
        <ele>975.1</ele>
        <time>2021-08-12T15:15:27Z</time>
      </trkpt>
      <trkpt lat="47.12928" lon="6.77461">
        <ele>976</ele>
        <time>2021-08-12T15:15:31Z</time>
      </trkpt>
      <trkpt lat="47.1293" lon="6.77449">
        <ele>976.2</ele>
        <time>2021-08-12T15:15:33Z</time>
      </trkpt>
      <trkpt lat="47.12931" lon="6.77443">
        <ele>976.3</ele>
        <time>2021-08-12T15:15:34Z</time>
      </trkpt>
      <trkpt lat="47.12934" lon="6.77433">
        <ele>976.8</ele>
        <time>2021-08-12T15:15:36Z</time>
      </trkpt>
      <trkpt lat="47.12935" lon="6.77427">
        <ele>977.1</ele>
        <time>2021-08-12T15:15:37Z</time>
      </trkpt>
      <trkpt lat="47.12936" lon="6.77423">
        <ele>977.2</ele>
        <time>2021-08-12T15:15:38Z</time>
      </trkpt>
      <trkpt lat="47.12938" lon="6.77418">
        <ele>977.5</ele>
        <time>2021-08-12T15:15:40Z</time>
      </trkpt>
      <trkpt lat="47.12935" lon="6.77412">
        <ele>977.9</ele>
        <time>2021-08-12T15:15:42Z</time>
      </trkpt>
      <trkpt lat="47.12934" lon="6.7741">
        <ele>978.1</ele>
        <time>2021-08-12T15:15:43Z</time>
      </trkpt>
      <trkpt lat="47.12935" lon="6.77407">
        <ele>978.2</ele>
        <time>2021-08-12T15:15:44Z</time>
      </trkpt>
      <trkpt lat="47.12937" lon="6.77403">
        <ele>978.5</ele>
        <time>2021-08-12T15:15:45Z</time>
      </trkpt>
      <trkpt lat="47.12937" lon="6.77401">
        <ele>978.6</ele>
        <time>2021-08-12T15:15:46Z</time>
      </trkpt>
      <trkpt lat="47.12938" lon="6.77399">
        <ele>978.7</ele>
        <time>2021-08-12T15:15:47Z</time>
      </trkpt>
      <trkpt lat="47.12939" lon="6.77396">
        <ele>978.9</ele>
        <time>2021-08-12T15:15:49Z</time>
      </trkpt>
      <trkpt lat="47.12939" lon="6.77394">
        <ele>979.1</ele>
        <time>2021-08-12T15:15:50Z</time>
      </trkpt>
      <trkpt lat="47.12939" lon="6.77394">
        <ele>979.1</ele>
        <time>2021-08-12T15:15:51Z</time>
      </trkpt>
      <trkpt lat="47.12939" lon="6.77392">
        <ele>979.2</ele>
        <time>2021-08-12T15:15:52Z</time>
      </trkpt>
      <trkpt lat="47.12939" lon="6.77389">
        <ele>979.3</ele>
        <time>2021-08-12T15:15:53Z</time>
      </trkpt>
      <trkpt lat="47.1294" lon="6.77388">
        <ele>979.4</ele>
        <time>2021-08-12T15:15:54Z</time>
      </trkpt>
      <trkpt lat="47.1294" lon="6.77385">
        <ele>979.6</ele>
        <time>2021-08-12T15:15:55Z</time>
      </trkpt>
      <trkpt lat="47.12942" lon="6.7738">
        <ele>980</ele>
        <time>2021-08-12T15:15:57Z</time>
      </trkpt>
      <trkpt lat="47.12945" lon="6.77376">
        <ele>980.3</ele>
        <time>2021-08-12T15:15:58Z</time>
      </trkpt>
      <trkpt lat="47.12946" lon="6.77374">
        <ele>980.4</ele>
        <time>2021-08-12T15:15:59Z</time>
      </trkpt>
      <trkpt lat="47.12948" lon="6.7737">
        <ele>980.6</ele>
        <time>2021-08-12T15:16:01Z</time>
      </trkpt>
      <trkpt lat="47.12949" lon="6.77368">
        <ele>980.7</ele>
        <time>2021-08-12T15:16:02Z</time>
      </trkpt>
      <trkpt lat="47.12949" lon="6.77366">
        <ele>980.8</ele>
        <time>2021-08-12T15:16:03Z</time>
      </trkpt>
      <trkpt lat="47.1295" lon="6.77362">
        <ele>981</ele>
        <time>2021-08-12T15:16:05Z</time>
      </trkpt>
      <trkpt lat="47.12949" lon="6.7736">
        <ele>981.1</ele>
        <time>2021-08-12T15:16:06Z</time>
      </trkpt>
      <trkpt lat="47.12948" lon="6.77358">
        <ele>981.3</ele>
        <time>2021-08-12T15:16:07Z</time>
      </trkpt>
      <trkpt lat="47.12948" lon="6.77354">
        <ele>981.5</ele>
        <time>2021-08-12T15:16:09Z</time>
      </trkpt>
      <trkpt lat="47.1295" lon="6.77351">
        <ele>981.6</ele>
        <time>2021-08-12T15:16:11Z</time>
      </trkpt>
      <trkpt lat="47.1295" lon="6.77349">
        <ele>981.7</ele>
        <time>2021-08-12T15:16:12Z</time>
      </trkpt>
      <trkpt lat="47.12951" lon="6.77346">
        <ele>981.8</ele>
        <time>2021-08-12T15:16:13Z</time>
      </trkpt>
      <trkpt lat="47.12952" lon="6.77345">
        <ele>981.9</ele>
        <time>2021-08-12T15:16:14Z</time>
      </trkpt>
      <trkpt lat="47.12954" lon="6.77343">
        <ele>982.1</ele>
        <time>2021-08-12T15:16:16Z</time>
      </trkpt>
      <trkpt lat="47.12955" lon="6.77338">
        <ele>982.3</ele>
        <time>2021-08-12T15:16:17Z</time>
      </trkpt>
      <trkpt lat="47.12956" lon="6.77336">
        <ele>982.4</ele>
        <time>2021-08-12T15:16:18Z</time>
      </trkpt>
      <trkpt lat="47.12956" lon="6.7733">
        <ele>982.6</ele>
        <time>2021-08-12T15:16:20Z</time>
      </trkpt>
      <trkpt lat="47.12956" lon="6.77326">
        <ele>982.7</ele>
        <time>2021-08-12T15:16:21Z</time>
      </trkpt>
      <trkpt lat="47.12956" lon="6.7732">
        <ele>982.9</ele>
        <time>2021-08-12T15:16:23Z</time>
      </trkpt>
      <trkpt lat="47.12957" lon="6.77315">
        <ele>983</ele>
        <time>2021-08-12T15:16:25Z</time>
      </trkpt>
      <trkpt lat="47.12957" lon="6.77311">
        <ele>983.1</ele>
        <time>2021-08-12T15:16:27Z</time>
      </trkpt>
      <trkpt lat="47.12957" lon="6.77307">
        <ele>983.2</ele>
        <time>2021-08-12T15:16:29Z</time>
      </trkpt>
      <trkpt lat="47.12956" lon="6.77303">
        <ele>983.3</ele>
        <time>2021-08-12T15:16:31Z</time>
      </trkpt>
      <trkpt lat="47.12956" lon="6.77299">
        <ele>983.5</ele>
        <time>2021-08-12T15:16:33Z</time>
      </trkpt>
      <trkpt lat="47.12956" lon="6.77297">
        <ele>983.5</ele>
        <time>2021-08-12T15:16:34Z</time>
      </trkpt>
      <trkpt lat="47.12956" lon="6.77291">
        <ele>983.7</ele>
        <time>2021-08-12T15:16:36Z</time>
      </trkpt>
      <trkpt lat="47.12956" lon="6.77289">
        <ele>983.7</ele>
        <time>2021-08-12T15:16:37Z</time>
      </trkpt>
      <trkpt lat="47.12956" lon="6.77284">
        <ele>983.9</ele>
        <time>2021-08-12T15:16:39Z</time>
      </trkpt>
      <trkpt lat="47.12958" lon="6.7728">
        <ele>984</ele>
        <time>2021-08-12T15:16:40Z</time>
      </trkpt>
      <trkpt lat="47.12959" lon="6.77278">
        <ele>984</ele>
        <time>2021-08-12T15:16:41Z</time>
      </trkpt>
      <trkpt lat="47.1296" lon="6.77276">
        <ele>984.1</ele>
        <time>2021-08-12T15:16:42Z</time>
      </trkpt>
      <trkpt lat="47.12963" lon="6.77271">
        <ele>984.3</ele>
        <time>2021-08-12T15:16:44Z</time>
      </trkpt>
      <trkpt lat="47.12963" lon="6.77266">
        <ele>984.4</ele>
        <time>2021-08-12T15:16:46Z</time>
      </trkpt>
      <trkpt lat="47.12964" lon="6.77263">
        <ele>984.5</ele>
        <time>2021-08-12T15:16:47Z</time>
      </trkpt>
      <trkpt lat="47.12964" lon="6.77258">
        <ele>984.7</ele>
        <time>2021-08-12T15:16:49Z</time>
      </trkpt>
      <trkpt lat="47.12964" lon="6.77257">
        <ele>984.7</ele>
        <time>2021-08-12T15:16:50Z</time>
      </trkpt>
      <trkpt lat="47.12963" lon="6.77255">
        <ele>984.8</ele>
        <time>2021-08-12T15:16:52Z</time>
      </trkpt>
      <trkpt lat="47.12962" lon="6.77255">
        <ele>984.8</ele>
        <time>2021-08-12T15:16:53Z</time>
      </trkpt>
      <trkpt lat="47.1296" lon="6.77254">
        <ele>984.9</ele>
        <time>2021-08-12T15:16:55Z</time>
      </trkpt>
      <trkpt lat="47.12959" lon="6.77253">
        <ele>985</ele>
        <time>2021-08-12T15:16:57Z</time>
      </trkpt>
      <trkpt lat="47.12959" lon="6.77252">
        <ele>985</ele>
        <time>2021-08-12T15:16:58Z</time>
      </trkpt>
      <trkpt lat="47.12957" lon="6.77248">
        <ele>985.2</ele>
        <time>2021-08-12T15:17:00Z</time>
      </trkpt>
      <trkpt lat="47.12956" lon="6.77245">
        <ele>985.3</ele>
        <time>2021-08-12T15:17:01Z</time>
      </trkpt>
      <trkpt lat="47.12955" lon="6.77239">
        <ele>985.5</ele>
        <time>2021-08-12T15:17:03Z</time>
      </trkpt>
      <trkpt lat="47.12954" lon="6.7723">
        <ele>985.8</ele>
        <time>2021-08-12T15:17:06Z</time>
      </trkpt>
      <trkpt lat="47.12954" lon="6.77227">
        <ele>985.9</ele>
        <time>2021-08-12T15:17:07Z</time>
      </trkpt>
      <trkpt lat="47.12954" lon="6.7722">
        <ele>986.1</ele>
        <time>2021-08-12T15:17:09Z</time>
      </trkpt>
      <trkpt lat="47.12954" lon="6.77215">
        <ele>986.2</ele>
        <time>2021-08-12T15:17:10Z</time>
      </trkpt>
      <trkpt lat="47.12954" lon="6.77211">
        <ele>986.3</ele>
        <time>2021-08-12T15:17:11Z</time>
      </trkpt>
      <trkpt lat="47.12954" lon="6.77207">
        <ele>986.5</ele>
        <time>2021-08-12T15:17:12Z</time>
      </trkpt>
      <trkpt lat="47.12954" lon="6.77205">
        <ele>986.5</ele>
        <time>2021-08-12T15:17:13Z</time>
      </trkpt>
      <trkpt lat="47.12956" lon="6.77199">
        <ele>986.7</ele>
        <time>2021-08-12T15:17:15Z</time>
      </trkpt>
      <trkpt lat="47.12955" lon="6.77192">
        <ele>986.9</ele>
        <time>2021-08-12T15:17:17Z</time>
      </trkpt>
      <trkpt lat="47.12953" lon="6.77183">
        <ele>987.2</ele>
        <time>2021-08-12T15:17:19Z</time>
      </trkpt>
      <trkpt lat="47.12953" lon="6.77175">
        <ele>987.4</ele>
        <time>2021-08-12T15:17:21Z</time>
      </trkpt>
      <trkpt lat="47.12953" lon="6.77169">
        <ele>987.7</ele>
        <time>2021-08-12T15:17:23Z</time>
      </trkpt>
      <trkpt lat="47.12953" lon="6.77162">
        <ele>987.9</ele>
        <time>2021-08-12T15:17:25Z</time>
      </trkpt>
      <trkpt lat="47.12953" lon="6.77156">
        <ele>988.1</ele>
        <time>2021-08-12T15:17:26Z</time>
      </trkpt>
      <trkpt lat="47.12952" lon="6.77155">
        <ele>988.1</ele>
        <time>2021-08-12T15:17:27Z</time>
      </trkpt>
      <trkpt lat="47.1295" lon="6.77151">
        <ele>988.3</ele>
        <time>2021-08-12T15:17:28Z</time>
      </trkpt>
      <trkpt lat="47.12949" lon="6.7715">
        <ele>988.4</ele>
        <time>2021-08-12T15:17:29Z</time>
      </trkpt>
      <trkpt lat="47.12945" lon="6.77143">
        <ele>988.8</ele>
        <time>2021-08-12T15:17:31Z</time>
      </trkpt>
      <trkpt lat="47.12944" lon="6.7714">
        <ele>989</ele>
        <time>2021-08-12T15:17:32Z</time>
      </trkpt>
      <trkpt lat="47.12941" lon="6.77134">
        <ele>989.3</ele>
        <time>2021-08-12T15:17:34Z</time>
      </trkpt>
      <trkpt lat="47.1294" lon="6.77131">
        <ele>989.4</ele>
        <time>2021-08-12T15:17:35Z</time>
      </trkpt>
      <trkpt lat="47.12941" lon="6.77123">
        <ele>989.8</ele>
        <time>2021-08-12T15:17:37Z</time>
      </trkpt>
      <trkpt lat="47.1294" lon="6.7712">
        <ele>989.9</ele>
        <time>2021-08-12T15:17:38Z</time>
      </trkpt>
      <trkpt lat="47.12938" lon="6.77112">
        <ele>990.3</ele>
        <time>2021-08-12T15:17:40Z</time>
      </trkpt>
      <trkpt lat="47.12938" lon="6.77108">
        <ele>990.5</ele>
        <time>2021-08-12T15:17:41Z</time>
      </trkpt>
      <trkpt lat="47.12937" lon="6.77099">
        <ele>990.8</ele>
        <time>2021-08-12T15:17:43Z</time>
      </trkpt>
      <trkpt lat="47.12937" lon="6.77091">
        <ele>991.1</ele>
        <time>2021-08-12T15:17:45Z</time>
      </trkpt>
      <trkpt lat="47.12936" lon="6.77085">
        <ele>991.4</ele>
        <time>2021-08-12T15:17:46Z</time>
      </trkpt>
      <trkpt lat="47.12936" lon="6.77084">
        <ele>991.4</ele>
        <time>2021-08-12T15:17:47Z</time>
      </trkpt>
      <trkpt lat="47.12936" lon="6.77075">
        <ele>991.8</ele>
        <time>2021-08-12T15:17:49Z</time>
      </trkpt>
      <trkpt lat="47.12934" lon="6.77068">
        <ele>992.1</ele>
        <time>2021-08-12T15:17:51Z</time>
      </trkpt>
      <trkpt lat="47.12934" lon="6.77065">
        <ele>992.3</ele>
        <time>2021-08-12T15:17:52Z</time>
      </trkpt>
      <trkpt lat="47.12933" lon="6.77062">
        <ele>992.4</ele>
        <time>2021-08-12T15:17:53Z</time>
      </trkpt>
      <trkpt lat="47.12932" lon="6.77056">
        <ele>992.7</ele>
        <time>2021-08-12T15:17:55Z</time>
      </trkpt>
      <trkpt lat="47.12932" lon="6.77047">
        <ele>993</ele>
        <time>2021-08-12T15:17:57Z</time>
      </trkpt>
      <trkpt lat="47.12932" lon="6.77043">
        <ele>993.2</ele>
        <time>2021-08-12T15:17:58Z</time>
      </trkpt>
      <trkpt lat="47.12932" lon="6.7704">
        <ele>993.3</ele>
        <time>2021-08-12T15:17:59Z</time>
      </trkpt>
      <trkpt lat="47.12929" lon="6.77037">
        <ele>993.5</ele>
        <time>2021-08-12T15:18:01Z</time>
      </trkpt>
      <trkpt lat="47.12926" lon="6.77034">
        <ele>993.7</ele>
        <time>2021-08-12T15:18:03Z</time>
      </trkpt>
      <trkpt lat="47.12925" lon="6.77033">
        <ele>993.7</ele>
        <time>2021-08-12T15:18:04Z</time>
      </trkpt>
      <trkpt lat="47.12925" lon="6.77031">
        <ele>993.8</ele>
        <time>2021-08-12T15:18:05Z</time>
      </trkpt>
      <trkpt lat="47.12924" lon="6.7703">
        <ele>993.8</ele>
        <time>2021-08-12T15:18:06Z</time>
      </trkpt>
      <trkpt lat="47.12924" lon="6.77031">
        <ele>993.9</ele>
        <time>2021-08-12T15:18:07Z</time>
      </trkpt>
      <trkpt lat="47.12924" lon="6.7703">
        <ele>993.9</ele>
        <time>2021-08-12T15:18:08Z</time>
      </trkpt>
      <trkpt lat="47.12924" lon="6.77025">
        <ele>994.1</ele>
        <time>2021-08-12T15:18:10Z</time>
      </trkpt>
      <trkpt lat="47.12923" lon="6.77019">
        <ele>994.3</ele>
        <time>2021-08-12T15:18:12Z</time>
      </trkpt>
      <trkpt lat="47.12923" lon="6.77016">
        <ele>994.4</ele>
        <time>2021-08-12T15:18:13Z</time>
      </trkpt>
      <trkpt lat="47.12921" lon="6.77011">
        <ele>994.5</ele>
        <time>2021-08-12T15:18:15Z</time>
      </trkpt>
      <trkpt lat="47.12919" lon="6.77007">
        <ele>994.6</ele>
        <time>2021-08-12T15:18:16Z</time>
      </trkpt>
      <trkpt lat="47.12918" lon="6.77004">
        <ele>994.7</ele>
        <time>2021-08-12T15:18:17Z</time>
      </trkpt>
      <trkpt lat="47.12916" lon="6.76999">
        <ele>994.9</ele>
        <time>2021-08-12T15:18:19Z</time>
      </trkpt>
      <trkpt lat="47.12914" lon="6.76994">
        <ele>995</ele>
        <time>2021-08-12T15:18:21Z</time>
      </trkpt>
      <trkpt lat="47.12914" lon="6.76992">
        <ele>995</ele>
        <time>2021-08-12T15:18:22Z</time>
      </trkpt>
      <trkpt lat="47.12913" lon="6.76987">
        <ele>995.1</ele>
        <time>2021-08-12T15:18:23Z</time>
      </trkpt>
      <trkpt lat="47.12912" lon="6.76986">
        <ele>995.2</ele>
        <time>2021-08-12T15:18:24Z</time>
      </trkpt>
      <trkpt lat="47.12911" lon="6.76983">
        <ele>995.2</ele>
        <time>2021-08-12T15:18:25Z</time>
      </trkpt>
      <trkpt lat="47.12909" lon="6.76979">
        <ele>995.3</ele>
        <time>2021-08-12T15:18:27Z</time>
      </trkpt>
      <trkpt lat="47.12909" lon="6.76978">
        <ele>995.3</ele>
        <time>2021-08-12T15:18:28Z</time>
      </trkpt>
      <trkpt lat="47.12908" lon="6.76972">
        <ele>995.4</ele>
        <time>2021-08-12T15:18:30Z</time>
      </trkpt>
      <trkpt lat="47.12908" lon="6.76969">
        <ele>995.5</ele>
        <time>2021-08-12T15:18:31Z</time>
      </trkpt>
      <trkpt lat="47.12908" lon="6.76962">
        <ele>995.7</ele>
        <time>2021-08-12T15:18:33Z</time>
      </trkpt>
      <trkpt lat="47.12907" lon="6.76955">
        <ele>995.8</ele>
        <time>2021-08-12T15:18:34Z</time>
      </trkpt>
      <trkpt lat="47.12907" lon="6.76951">
        <ele>995.9</ele>
        <time>2021-08-12T15:18:35Z</time>
      </trkpt>
      <trkpt lat="47.12906" lon="6.76945">
        <ele>996.1</ele>
        <time>2021-08-12T15:18:37Z</time>
      </trkpt>
      <trkpt lat="47.12906" lon="6.76939">
        <ele>996.2</ele>
        <time>2021-08-12T15:18:38Z</time>
      </trkpt>
      <trkpt lat="47.12906" lon="6.76934">
        <ele>996.3</ele>
        <time>2021-08-12T15:18:40Z</time>
      </trkpt>
      <trkpt lat="47.12905" lon="6.76928">
        <ele>996.5</ele>
        <time>2021-08-12T15:18:41Z</time>
      </trkpt>
      <trkpt lat="47.12905" lon="6.76922">
        <ele>996.8</ele>
        <time>2021-08-12T15:18:43Z</time>
      </trkpt>
      <trkpt lat="47.12905" lon="6.76915">
        <ele>997</ele>
        <time>2021-08-12T15:18:45Z</time>
      </trkpt>
      <trkpt lat="47.12904" lon="6.76912">
        <ele>997.1</ele>
        <time>2021-08-12T15:18:46Z</time>
      </trkpt>
      <trkpt lat="47.12903" lon="6.76906">
        <ele>997.4</ele>
        <time>2021-08-12T15:18:48Z</time>
      </trkpt>
      <trkpt lat="47.12901" lon="6.76901">
        <ele>997.6</ele>
        <time>2021-08-12T15:18:50Z</time>
      </trkpt>
      <trkpt lat="47.12901" lon="6.76897">
        <ele>997.8</ele>
        <time>2021-08-12T15:18:52Z</time>
      </trkpt>
      <trkpt lat="47.12901" lon="6.76895">
        <ele>997.9</ele>
        <time>2021-08-12T15:18:53Z</time>
      </trkpt>
      <trkpt lat="47.12901" lon="6.76891">
        <ele>998.1</ele>
        <time>2021-08-12T15:18:55Z</time>
      </trkpt>
      <trkpt lat="47.12901" lon="6.76889">
        <ele>998.1</ele>
        <time>2021-08-12T15:18:57Z</time>
      </trkpt>
      <trkpt lat="47.129" lon="6.76884">
        <ele>998.4</ele>
        <time>2021-08-12T15:18:59Z</time>
      </trkpt>
      <trkpt lat="47.12899" lon="6.76883">
        <ele>998.4</ele>
        <time>2021-08-12T15:19:00Z</time>
      </trkpt>
      <trkpt lat="47.12898" lon="6.76879">
        <ele>998.6</ele>
        <time>2021-08-12T15:19:02Z</time>
      </trkpt>
      <trkpt lat="47.12898" lon="6.76878">
        <ele>998.7</ele>
        <time>2021-08-12T15:19:03Z</time>
      </trkpt>
      <trkpt lat="47.12897" lon="6.76873">
        <ele>998.9</ele>
        <time>2021-08-12T15:19:04Z</time>
      </trkpt>
      <trkpt lat="47.12897" lon="6.76871">
        <ele>999</ele>
        <time>2021-08-12T15:19:05Z</time>
      </trkpt>
      <trkpt lat="47.12897" lon="6.76864">
        <ele>999.3</ele>
        <time>2021-08-12T15:19:07Z</time>
      </trkpt>
      <trkpt lat="47.12896" lon="6.76857">
        <ele>999.7</ele>
        <time>2021-08-12T15:19:09Z</time>
      </trkpt>
      <trkpt lat="47.12896" lon="6.76855">
        <ele>999.8</ele>
        <time>2021-08-12T15:19:10Z</time>
      </trkpt>
      <trkpt lat="47.12895" lon="6.76853">
        <ele>999.9</ele>
        <time>2021-08-12T15:19:11Z</time>
      </trkpt>
      <trkpt lat="47.12894" lon="6.76851">
        <ele>1000</ele>
        <time>2021-08-12T15:19:12Z</time>
      </trkpt>
      <trkpt lat="47.12893" lon="6.76848">
        <ele>1000.1</ele>
        <time>2021-08-12T15:19:13Z</time>
      </trkpt>
      <trkpt lat="47.12891" lon="6.76845">
        <ele>1000.3</ele>
        <time>2021-08-12T15:19:14Z</time>
      </trkpt>
      <trkpt lat="47.1289" lon="6.76844">
        <ele>1000.3</ele>
        <time>2021-08-12T15:19:15Z</time>
      </trkpt>
      <trkpt lat="47.12889" lon="6.7684">
        <ele>1000.5</ele>
        <time>2021-08-12T15:19:16Z</time>
      </trkpt>
      <trkpt lat="47.12889" lon="6.76839">
        <ele>1000.6</ele>
        <time>2021-08-12T15:19:17Z</time>
      </trkpt>
      <trkpt lat="47.12889" lon="6.76834">
        <ele>1000.7</ele>
        <time>2021-08-12T15:19:18Z</time>
      </trkpt>
      <trkpt lat="47.12888" lon="6.76833">
        <ele>1000.8</ele>
        <time>2021-08-12T15:19:19Z</time>
      </trkpt>
      <trkpt lat="47.12887" lon="6.76827">
        <ele>1000.9</ele>
        <time>2021-08-12T15:19:21Z</time>
      </trkpt>
      <trkpt lat="47.12887" lon="6.76826">
        <ele>1001</ele>
        <time>2021-08-12T15:19:22Z</time>
      </trkpt>
      <trkpt lat="47.12886" lon="6.76824">
        <ele>1001</ele>
        <time>2021-08-12T15:19:23Z</time>
      </trkpt>
      <trkpt lat="47.12885" lon="6.7682">
        <ele>1001.1</ele>
        <time>2021-08-12T15:19:25Z</time>
      </trkpt>
      <trkpt lat="47.12884" lon="6.76816">
        <ele>1001.2</ele>
        <time>2021-08-12T15:19:26Z</time>
      </trkpt>
      <trkpt lat="47.12883" lon="6.76813">
        <ele>1001.2</ele>
        <time>2021-08-12T15:19:27Z</time>
      </trkpt>
      <trkpt lat="47.12881" lon="6.76807">
        <ele>1001.3</ele>
        <time>2021-08-12T15:19:29Z</time>
      </trkpt>
      <trkpt lat="47.12878" lon="6.76798">
        <ele>1001.3</ele>
        <time>2021-08-12T15:19:30Z</time>
      </trkpt>
      <trkpt lat="47.12875" lon="6.76788">
        <ele>1001.4</ele>
        <time>2021-08-12T15:19:32Z</time>
      </trkpt>
      <trkpt lat="47.12871" lon="6.76777">
        <ele>1001.4</ele>
        <time>2021-08-12T15:19:33Z</time>
      </trkpt>
      <trkpt lat="47.12867" lon="6.76764">
        <ele>1001.6</ele>
        <time>2021-08-12T15:19:35Z</time>
      </trkpt>
      <trkpt lat="47.12865" lon="6.76753">
        <ele>1001.8</ele>
        <time>2021-08-12T15:19:37Z</time>
      </trkpt>
      <trkpt lat="47.12864" lon="6.76748">
        <ele>1001.8</ele>
        <time>2021-08-12T15:19:38Z</time>
      </trkpt>
      <trkpt lat="47.12864" lon="6.76743">
        <ele>1001.9</ele>
        <time>2021-08-12T15:19:39Z</time>
      </trkpt>
      <trkpt lat="47.12864" lon="6.76738">
        <ele>1001.9</ele>
        <time>2021-08-12T15:19:41Z</time>
      </trkpt>
      <trkpt lat="47.12866" lon="6.7673">
        <ele>1002</ele>
        <time>2021-08-12T15:19:42Z</time>
      </trkpt>
      <trkpt lat="47.12869" lon="6.76727">
        <ele>1002</ele>
        <time>2021-08-12T15:19:43Z</time>
      </trkpt>
      <trkpt lat="47.12872" lon="6.76725">
        <ele>1002</ele>
        <time>2021-08-12T15:19:45Z</time>
      </trkpt>
      <trkpt lat="47.12873" lon="6.76719">
        <ele>1002</ele>
        <time>2021-08-12T15:19:46Z</time>
      </trkpt>
      <trkpt lat="47.12874" lon="6.76711">
        <ele>1001.9</ele>
        <time>2021-08-12T15:19:48Z</time>
      </trkpt>
      <trkpt lat="47.12874" lon="6.76704">
        <ele>1001.8</ele>
        <time>2021-08-12T15:19:49Z</time>
      </trkpt>
      <trkpt lat="47.12872" lon="6.76695">
        <ele>1001.7</ele>
        <time>2021-08-12T15:19:50Z</time>
      </trkpt>
      <trkpt lat="47.12869" lon="6.76688">
        <ele>1001.6</ele>
        <time>2021-08-12T15:19:52Z</time>
      </trkpt>
      <trkpt lat="47.12866" lon="6.76678">
        <ele>1001.5</ele>
        <time>2021-08-12T15:19:53Z</time>
      </trkpt>
      <trkpt lat="47.12863" lon="6.76665">
        <ele>1001.4</ele>
        <time>2021-08-12T15:19:55Z</time>
      </trkpt>
      <trkpt lat="47.12861" lon="6.76655">
        <ele>1001.3</ele>
        <time>2021-08-12T15:19:57Z</time>
      </trkpt>
      <trkpt lat="47.12858" lon="6.76644">
        <ele>1001.2</ele>
        <time>2021-08-12T15:19:59Z</time>
      </trkpt>
      <trkpt lat="47.12856" lon="6.76638">
        <ele>1001.2</ele>
        <time>2021-08-12T15:20:01Z</time>
      </trkpt>
      <trkpt lat="47.12851" lon="6.76627">
        <ele>1001.1</ele>
        <time>2021-08-12T15:20:02Z</time>
      </trkpt>
      <trkpt lat="47.12845" lon="6.76612">
        <ele>1000.9</ele>
        <time>2021-08-12T15:20:04Z</time>
      </trkpt>
      <trkpt lat="47.12843" lon="6.76606">
        <ele>1000.8</ele>
        <time>2021-08-12T15:20:05Z</time>
      </trkpt>
      <trkpt lat="47.12839" lon="6.76596">
        <ele>1000.7</ele>
        <time>2021-08-12T15:20:07Z</time>
      </trkpt>
      <trkpt lat="47.12836" lon="6.76586">
        <ele>1000.6</ele>
        <time>2021-08-12T15:20:08Z</time>
      </trkpt>
      <trkpt lat="47.12837" lon="6.76578">
        <ele>1000.6</ele>
        <time>2021-08-12T15:20:09Z</time>
      </trkpt>
      <trkpt lat="47.12837" lon="6.76571">
        <ele>1000.5</ele>
        <time>2021-08-12T15:20:10Z</time>
      </trkpt>
      <trkpt lat="47.12834" lon="6.76555">
        <ele>1000.4</ele>
        <time>2021-08-12T15:20:12Z</time>
      </trkpt>
      <trkpt lat="47.12832" lon="6.76548">
        <ele>1000.3</ele>
        <time>2021-08-12T15:20:13Z</time>
      </trkpt>
      <trkpt lat="47.12828" lon="6.76533">
        <ele>1000.3</ele>
        <time>2021-08-12T15:20:15Z</time>
      </trkpt>
      <trkpt lat="47.12826" lon="6.76526">
        <ele>1000.3</ele>
        <time>2021-08-12T15:20:16Z</time>
      </trkpt>
      <trkpt lat="47.12824" lon="6.76519">
        <ele>1000.3</ele>
        <time>2021-08-12T15:20:17Z</time>
      </trkpt>
      <trkpt lat="47.12822" lon="6.76513">
        <ele>1000.2</ele>
        <time>2021-08-12T15:20:18Z</time>
      </trkpt>
      <trkpt lat="47.12819" lon="6.76508">
        <ele>1000.2</ele>
        <time>2021-08-12T15:20:19Z</time>
      </trkpt>
      <trkpt lat="47.12814" lon="6.76498">
        <ele>1000.1</ele>
        <time>2021-08-12T15:20:21Z</time>
      </trkpt>
      <trkpt lat="47.12809" lon="6.76485">
        <ele>1000</ele>
        <time>2021-08-12T15:20:23Z</time>
      </trkpt>
      <trkpt lat="47.12806" lon="6.76477">
        <ele>999.9</ele>
        <time>2021-08-12T15:20:24Z</time>
      </trkpt>
      <trkpt lat="47.12803" lon="6.76471">
        <ele>999.9</ele>
        <time>2021-08-12T15:20:25Z</time>
      </trkpt>
      <trkpt lat="47.12796" lon="6.76458">
        <ele>999.8</ele>
        <time>2021-08-12T15:20:27Z</time>
      </trkpt>
      <trkpt lat="47.12788" lon="6.76445">
        <ele>999.6</ele>
        <time>2021-08-12T15:20:29Z</time>
      </trkpt>
      <trkpt lat="47.12781" lon="6.76433">
        <ele>999.4</ele>
        <time>2021-08-12T15:20:31Z</time>
      </trkpt>
      <trkpt lat="47.12777" lon="6.76427">
        <ele>999.4</ele>
        <time>2021-08-12T15:20:32Z</time>
      </trkpt>
      <trkpt lat="47.12768" lon="6.76414">
        <ele>999.1</ele>
        <time>2021-08-12T15:20:34Z</time>
      </trkpt>
      <trkpt lat="47.12757" lon="6.76399">
        <ele>998.9</ele>
        <time>2021-08-12T15:20:36Z</time>
      </trkpt>
      <trkpt lat="47.12752" lon="6.76391">
        <ele>998.8</ele>
        <time>2021-08-12T15:20:37Z</time>
      </trkpt>
      <trkpt lat="47.12744" lon="6.76375">
        <ele>998.6</ele>
        <time>2021-08-12T15:20:39Z</time>
      </trkpt>
      <trkpt lat="47.1274" lon="6.76367">
        <ele>998.5</ele>
        <time>2021-08-12T15:20:40Z</time>
      </trkpt>
      <trkpt lat="47.12736" lon="6.76359">
        <ele>998.3</ele>
        <time>2021-08-12T15:20:41Z</time>
      </trkpt>
      <trkpt lat="47.12728" lon="6.76344">
        <ele>998</ele>
        <time>2021-08-12T15:20:43Z</time>
      </trkpt>
      <trkpt lat="47.12719" lon="6.76329">
        <ele>997.7</ele>
        <time>2021-08-12T15:20:45Z</time>
      </trkpt>
      <trkpt lat="47.1271" lon="6.76314">
        <ele>997.5</ele>
        <time>2021-08-12T15:20:47Z</time>
      </trkpt>
      <trkpt lat="47.12699" lon="6.763">
        <ele>997.1</ele>
        <time>2021-08-12T15:20:49Z</time>
      </trkpt>
      <trkpt lat="47.12684" lon="6.76289">
        <ele>996.8</ele>
        <time>2021-08-12T15:20:51Z</time>
      </trkpt>
      <trkpt lat="47.12677" lon="6.76283">
        <ele>996.8</ele>
        <time>2021-08-12T15:20:52Z</time>
      </trkpt>
      <trkpt lat="47.12665" lon="6.76271">
        <ele>996.7</ele>
        <time>2021-08-12T15:20:54Z</time>
      </trkpt>
      <trkpt lat="47.1266" lon="6.76265">
        <ele>996.8</ele>
        <time>2021-08-12T15:20:55Z</time>
      </trkpt>
      <trkpt lat="47.1265" lon="6.76253">
        <ele>996.9</ele>
        <time>2021-08-12T15:20:57Z</time>
      </trkpt>
      <trkpt lat="47.12643" lon="6.7624">
        <ele>996.8</ele>
        <time>2021-08-12T15:20:59Z</time>
      </trkpt>
      <trkpt lat="47.12635" lon="6.76229">
        <ele>996.7</ele>
        <time>2021-08-12T15:21:01Z</time>
      </trkpt>
      <trkpt lat="47.12626" lon="6.76218">
        <ele>996.6</ele>
        <time>2021-08-12T15:21:03Z</time>
      </trkpt>
      <trkpt lat="47.1262" lon="6.76212">
        <ele>996.5</ele>
        <time>2021-08-12T15:21:04Z</time>
      </trkpt>
      <trkpt lat="47.12615" lon="6.76207">
        <ele>996.4</ele>
        <time>2021-08-12T15:21:05Z</time>
      </trkpt>
      <trkpt lat="47.12606" lon="6.76195">
        <ele>996.2</ele>
        <time>2021-08-12T15:21:07Z</time>
      </trkpt>
      <trkpt lat="47.12597" lon="6.76185">
        <ele>996</ele>
        <time>2021-08-12T15:21:09Z</time>
      </trkpt>
      <trkpt lat="47.12593" lon="6.76179">
        <ele>995.8</ele>
        <time>2021-08-12T15:21:10Z</time>
      </trkpt>
      <trkpt lat="47.12588" lon="6.76173">
        <ele>995.7</ele>
        <time>2021-08-12T15:21:11Z</time>
      </trkpt>
      <trkpt lat="47.12579" lon="6.76162">
        <ele>995.3</ele>
        <time>2021-08-12T15:21:13Z</time>
      </trkpt>
      <trkpt lat="47.12569" lon="6.76151">
        <ele>995</ele>
        <time>2021-08-12T15:21:15Z</time>
      </trkpt>
      <trkpt lat="47.12559" lon="6.76141">
        <ele>994.6</ele>
        <time>2021-08-12T15:21:17Z</time>
      </trkpt>
      <trkpt lat="47.12554" lon="6.76136">
        <ele>994.5</ele>
        <time>2021-08-12T15:21:18Z</time>
      </trkpt>
      <trkpt lat="47.12549" lon="6.7613">
        <ele>994.3</ele>
        <time>2021-08-12T15:21:19Z</time>
      </trkpt>
      <trkpt lat="47.12539" lon="6.76118">
        <ele>993.9</ele>
        <time>2021-08-12T15:21:21Z</time>
      </trkpt>
      <trkpt lat="47.12534" lon="6.76112">
        <ele>993.7</ele>
        <time>2021-08-12T15:21:22Z</time>
      </trkpt>
      <trkpt lat="47.12524" lon="6.76101">
        <ele>993.4</ele>
        <time>2021-08-12T15:21:24Z</time>
      </trkpt>
      <trkpt lat="47.1252" lon="6.76095">
        <ele>993.2</ele>
        <time>2021-08-12T15:21:25Z</time>
      </trkpt>
      <trkpt lat="47.1251" lon="6.76083">
        <ele>992.8</ele>
        <time>2021-08-12T15:21:27Z</time>
      </trkpt>
      <trkpt lat="47.12506" lon="6.76076">
        <ele>992.6</ele>
        <time>2021-08-12T15:21:28Z</time>
      </trkpt>
      <trkpt lat="47.12501" lon="6.76069">
        <ele>992.4</ele>
        <time>2021-08-12T15:21:29Z</time>
      </trkpt>
      <trkpt lat="47.12493" lon="6.76057">
        <ele>991.9</ele>
        <time>2021-08-12T15:21:31Z</time>
      </trkpt>
      <trkpt lat="47.12486" lon="6.76042">
        <ele>991.3</ele>
        <time>2021-08-12T15:21:33Z</time>
      </trkpt>
      <trkpt lat="47.12482" lon="6.76034">
        <ele>991</ele>
        <time>2021-08-12T15:21:34Z</time>
      </trkpt>
      <trkpt lat="47.12477" lon="6.76027">
        <ele>990.8</ele>
        <time>2021-08-12T15:21:35Z</time>
      </trkpt>
      <trkpt lat="47.12471" lon="6.7601">
        <ele>990.7</ele>
        <time>2021-08-12T15:21:37Z</time>
      </trkpt>
      <trkpt lat="47.12467" lon="6.76">
        <ele>990.8</ele>
        <time>2021-08-12T15:21:38Z</time>
      </trkpt>
      <trkpt lat="47.12459" lon="6.75979">
        <ele>991.6</ele>
        <time>2021-08-12T15:21:40Z</time>
      </trkpt>
      <trkpt lat="47.12452" lon="6.75964">
        <ele>992.2</ele>
        <time>2021-08-12T15:21:42Z</time>
      </trkpt>
      <trkpt lat="47.1245" lon="6.75954">
        <ele>992.6</ele>
        <time>2021-08-12T15:21:44Z</time>
      </trkpt>
      <trkpt lat="47.12447" lon="6.75958">
        <ele>992.8</ele>
        <time>2021-08-12T15:21:46Z</time>
      </trkpt>
      <trkpt lat="47.12446" lon="6.7596">
        <ele>992.9</ele>
        <time>2021-08-12T15:21:47Z</time>
      </trkpt>
      <trkpt lat="47.12442" lon="6.75964">
        <ele>993.1</ele>
        <time>2021-08-12T15:21:49Z</time>
      </trkpt>
      <trkpt lat="47.1244" lon="6.75964">
        <ele>993.2</ele>
        <time>2021-08-12T15:21:50Z</time>
      </trkpt>
      <trkpt lat="47.12438" lon="6.75966">
        <ele>993.4</ele>
        <time>2021-08-12T15:21:52Z</time>
      </trkpt>
      <trkpt lat="47.12437" lon="6.75966">
        <ele>993.4</ele>
        <time>2021-08-12T15:21:54Z</time>
      </trkpt>
      <trkpt lat="47.12434" lon="6.75966">
        <ele>993.6</ele>
        <time>2021-08-12T15:21:56Z</time>
      </trkpt>
      <trkpt lat="47.12429" lon="6.75959">
        <ele>994.1</ele>
        <time>2021-08-12T15:21:59Z</time>
      </trkpt>
      <trkpt lat="47.12427" lon="6.75957">
        <ele>994.3</ele>
        <time>2021-08-12T15:22:00Z</time>
      </trkpt>
      <trkpt lat="47.12421" lon="6.75954">
        <ele>994.8</ele>
        <time>2021-08-12T15:22:02Z</time>
      </trkpt>
      <trkpt lat="47.12418" lon="6.75951">
        <ele>995.1</ele>
        <time>2021-08-12T15:22:03Z</time>
      </trkpt>
      <trkpt lat="47.12418" lon="6.75949">
        <ele>995.2</ele>
        <time>2021-08-12T15:22:04Z</time>
      </trkpt>
      <trkpt lat="47.12417" lon="6.75947">
        <ele>995.3</ele>
        <time>2021-08-12T15:22:05Z</time>
      </trkpt>
      <trkpt lat="47.12413" lon="6.75946">
        <ele>995.6</ele>
        <time>2021-08-12T15:22:06Z</time>
      </trkpt>
      <trkpt lat="47.12413" lon="6.75945">
        <ele>995.7</ele>
        <time>2021-08-12T15:22:07Z</time>
      </trkpt>
      <trkpt lat="47.12412" lon="6.75945">
        <ele>995.8</ele>
        <time>2021-08-12T15:22:08Z</time>
      </trkpt>
      <trkpt lat="47.12409" lon="6.7595">
        <ele>996.2</ele>
        <time>2021-08-12T15:22:10Z</time>
      </trkpt>
      <trkpt lat="47.12407" lon="6.75951">
        <ele>996.4</ele>
        <time>2021-08-12T15:22:11Z</time>
      </trkpt>
      <trkpt lat="47.12406" lon="6.75949">
        <ele>996.5</ele>
        <time>2021-08-12T15:22:13Z</time>
      </trkpt>
      <trkpt lat="47.12406" lon="6.75948">
        <ele>996.6</ele>
        <time>2021-08-12T15:22:14Z</time>
      </trkpt>
      <trkpt lat="47.12405" lon="6.75946">
        <ele>996.7</ele>
        <time>2021-08-12T15:22:15Z</time>
      </trkpt>
      <trkpt lat="47.12404" lon="6.75942">
        <ele>996.9</ele>
        <time>2021-08-12T15:22:16Z</time>
      </trkpt>
      <trkpt lat="47.12404" lon="6.75941">
        <ele>997</ele>
        <time>2021-08-12T15:22:17Z</time>
      </trkpt>
      <trkpt lat="47.12405" lon="6.75937">
        <ele>997.2</ele>
        <time>2021-08-12T15:22:19Z</time>
      </trkpt>
      <trkpt lat="47.12405" lon="6.75935">
        <ele>997.4</ele>
        <time>2021-08-12T15:22:20Z</time>
      </trkpt>
      <trkpt lat="47.12405" lon="6.75934">
        <ele>997.4</ele>
        <time>2021-08-12T15:22:21Z</time>
      </trkpt>
      <trkpt lat="47.12405" lon="6.75933">
        <ele>997.5</ele>
        <time>2021-08-12T15:22:23Z</time>
      </trkpt>
      <trkpt lat="47.12405" lon="6.75933">
        <ele>997.5</ele>
        <time>2021-08-12T15:22:24Z</time>
      </trkpt>
      <trkpt lat="47.12405" lon="6.75933">
        <ele>997.5</ele>
        <time>2021-08-12T15:22:25Z</time>
      </trkpt>
      <trkpt lat="47.12405" lon="6.75932">
        <ele>997.5</ele>
        <time>2021-08-12T15:22:26Z</time>
      </trkpt>
      <trkpt lat="47.12404" lon="6.75931">
        <ele>997.6</ele>
        <time>2021-08-12T15:22:28Z</time>
      </trkpt>
      <trkpt lat="47.12403" lon="6.75929">
        <ele>997.8</ele>
        <time>2021-08-12T15:22:29Z</time>
      </trkpt>
      <trkpt lat="47.12388" lon="6.75907">
        <ele>999.1</ele>
        <time>2021-08-12T15:22:40Z</time>
      </trkpt>
      <trkpt lat="47.12383" lon="6.75901">
        <ele>999.4</ele>
        <time>2021-08-12T15:22:42Z</time>
      </trkpt>
      <trkpt lat="47.12378" lon="6.7589">
        <ele>999.8</ele>
        <time>2021-08-12T15:22:44Z</time>
      </trkpt>
      <trkpt lat="47.12375" lon="6.75883">
        <ele>1000</ele>
        <time>2021-08-12T15:22:46Z</time>
      </trkpt>
      <trkpt lat="47.12375" lon="6.75877">
        <ele>1000.1</ele>
        <time>2021-08-12T15:22:48Z</time>
      </trkpt>
      <trkpt lat="47.12377" lon="6.75871">
        <ele>1000.2</ele>
        <time>2021-08-12T15:22:50Z</time>
      </trkpt>
      <trkpt lat="47.12378" lon="6.75866">
        <ele>1000.3</ele>
        <time>2021-08-12T15:22:51Z</time>
      </trkpt>
      <trkpt lat="47.12377" lon="6.75862">
        <ele>1000.4</ele>
        <time>2021-08-12T15:22:52Z</time>
      </trkpt>
      <trkpt lat="47.12377" lon="6.7586">
        <ele>1000.4</ele>
        <time>2021-08-12T15:22:53Z</time>
      </trkpt>
      <trkpt lat="47.12371" lon="6.75849">
        <ele>1000.5</ele>
        <time>2021-08-12T15:22:55Z</time>
      </trkpt>
      <trkpt lat="47.12369" lon="6.75846">
        <ele>1000.6</ele>
        <time>2021-08-12T15:22:56Z</time>
      </trkpt>
      <trkpt lat="47.12366" lon="6.75842">
        <ele>1000.6</ele>
        <time>2021-08-12T15:22:58Z</time>
      </trkpt>
      <trkpt lat="47.12365" lon="6.7584">
        <ele>1000.6</ele>
        <time>2021-08-12T15:22:59Z</time>
      </trkpt>
      <trkpt lat="47.12366" lon="6.75838">
        <ele>1000.6</ele>
        <time>2021-08-12T15:23:00Z</time>
      </trkpt>
      <trkpt lat="47.12364" lon="6.75833">
        <ele>1000.7</ele>
        <time>2021-08-12T15:23:02Z</time>
      </trkpt>
      <trkpt lat="47.12363" lon="6.7583">
        <ele>1000.7</ele>
        <time>2021-08-12T15:23:03Z</time>
      </trkpt>
      <trkpt lat="47.12362" lon="6.75829">
        <ele>1000.7</ele>
        <time>2021-08-12T15:23:04Z</time>
      </trkpt>
      <trkpt lat="47.12361" lon="6.75828">
        <ele>1000.7</ele>
        <time>2021-08-12T15:23:05Z</time>
      </trkpt>
      <trkpt lat="47.12361" lon="6.75828">
        <ele>1000.7</ele>
        <time>2021-08-12T15:23:07Z</time>
      </trkpt>
      <trkpt lat="47.12359" lon="6.75827">
        <ele>1000.7</ele>
        <time>2021-08-12T15:23:09Z</time>
      </trkpt>
      <trkpt lat="47.12357" lon="6.75824">
        <ele>1000.7</ele>
        <time>2021-08-12T15:23:11Z</time>
      </trkpt>
      <trkpt lat="47.12353" lon="6.75816">
        <ele>1000.6</ele>
        <time>2021-08-12T15:23:13Z</time>
      </trkpt>
      <trkpt lat="47.1235" lon="6.75809">
        <ele>1000.6</ele>
        <time>2021-08-12T15:23:14Z</time>
      </trkpt>
      <trkpt lat="47.1235" lon="6.75807">
        <ele>1000.6</ele>
        <time>2021-08-12T15:23:15Z</time>
      </trkpt>
      <trkpt lat="47.12348" lon="6.75801">
        <ele>1000.5</ele>
        <time>2021-08-12T15:23:17Z</time>
      </trkpt>
      <trkpt lat="47.12346" lon="6.75796">
        <ele>1000.5</ele>
        <time>2021-08-12T15:23:18Z</time>
      </trkpt>
      <trkpt lat="47.12345" lon="6.75794">
        <ele>1000.5</ele>
        <time>2021-08-12T15:23:19Z</time>
      </trkpt>
      <trkpt lat="47.1234" lon="6.75785">
        <ele>1000.5</ele>
        <time>2021-08-12T15:23:21Z</time>
      </trkpt>
      <trkpt lat="47.12338" lon="6.75782">
        <ele>1000.4</ele>
        <time>2021-08-12T15:23:22Z</time>
      </trkpt>
      <trkpt lat="47.12336" lon="6.75778">
        <ele>1000.4</ele>
        <time>2021-08-12T15:23:23Z</time>
      </trkpt>
      <trkpt lat="47.12332" lon="6.7577">
        <ele>1000.3</ele>
        <time>2021-08-12T15:23:25Z</time>
      </trkpt>
      <trkpt lat="47.12329" lon="6.75766">
        <ele>1000.2</ele>
        <time>2021-08-12T15:23:26Z</time>
      </trkpt>
      <trkpt lat="47.12325" lon="6.75762">
        <ele>1000.2</ele>
        <time>2021-08-12T15:23:27Z</time>
      </trkpt>
      <trkpt lat="47.12319" lon="6.75753">
        <ele>1000.1</ele>
        <time>2021-08-12T15:23:29Z</time>
      </trkpt>
      <trkpt lat="47.12314" lon="6.75743">
        <ele>1000</ele>
        <time>2021-08-12T15:23:31Z</time>
      </trkpt>
      <trkpt lat="47.12312" lon="6.75732">
        <ele>999.9</ele>
        <time>2021-08-12T15:23:33Z</time>
      </trkpt>
      <trkpt lat="47.12311" lon="6.75727">
        <ele>999.9</ele>
        <time>2021-08-12T15:23:34Z</time>
      </trkpt>
      <trkpt lat="47.12308" lon="6.75718">
        <ele>999.8</ele>
        <time>2021-08-12T15:23:36Z</time>
      </trkpt>
      <trkpt lat="47.12304" lon="6.75708">
        <ele>999.7</ele>
        <time>2021-08-12T15:23:38Z</time>
      </trkpt>
      <trkpt lat="47.123" lon="6.75698">
        <ele>999.5</ele>
        <time>2021-08-12T15:23:40Z</time>
      </trkpt>
      <trkpt lat="47.12298" lon="6.75671">
        <ele>999.2</ele>
        <time>2021-08-12T15:23:46Z</time>
      </trkpt>
      <trkpt lat="47.12299" lon="6.75667">
        <ele>999.1</ele>
        <time>2021-08-12T15:23:47Z</time>
      </trkpt>
      <trkpt lat="47.12296" lon="6.75658">
        <ele>999</ele>
        <time>2021-08-12T15:23:49Z</time>
      </trkpt>
      <trkpt lat="47.12292" lon="6.7565">
        <ele>998.8</ele>
        <time>2021-08-12T15:23:51Z</time>
      </trkpt>
      <trkpt lat="47.12288" lon="6.75641">
        <ele>998.6</ele>
        <time>2021-08-12T15:23:53Z</time>
      </trkpt>
      <trkpt lat="47.12284" lon="6.75632">
        <ele>998.2</ele>
        <time>2021-08-12T15:23:54Z</time>
      </trkpt>
      <trkpt lat="47.1228" lon="6.75624">
        <ele>997.9</ele>
        <time>2021-08-12T15:23:56Z</time>
      </trkpt>
      <trkpt lat="47.12274" lon="6.7561">
        <ele>997.2</ele>
        <time>2021-08-12T15:23:57Z</time>
      </trkpt>
      <trkpt lat="47.12258" lon="6.75571">
        <ele>995.6</ele>
        <time>2021-08-12T15:24:03Z</time>
      </trkpt>
      <trkpt lat="47.12257" lon="6.75566">
        <ele>995.6</ele>
        <time>2021-08-12T15:24:04Z</time>
      </trkpt>
      <trkpt lat="47.12254" lon="6.75557">
        <ele>995.5</ele>
        <time>2021-08-12T15:24:06Z</time>
      </trkpt>
      <trkpt lat="47.12253" lon="6.75553">
        <ele>995.5</ele>
        <time>2021-08-12T15:24:07Z</time>
      </trkpt>
      <trkpt lat="47.12252" lon="6.7555">
        <ele>995.5</ele>
        <time>2021-08-12T15:24:12Z</time>
      </trkpt>
      <trkpt lat="47.12252" lon="6.7555">
        <ele>995.5</ele>
        <time>2021-08-12T15:24:14Z</time>
      </trkpt>
      <trkpt lat="47.12252" lon="6.75549">
        <ele>995.5</ele>
        <time>2021-08-12T15:24:16Z</time>
      </trkpt>
      <trkpt lat="47.12252" lon="6.75548">
        <ele>995.5</ele>
        <time>2021-08-12T15:24:17Z</time>
      </trkpt>
      <trkpt lat="47.12045" lon="6.75091">
        <ele>995.9</ele>
        <time>2021-08-12T15:25:40Z</time>
      </trkpt>
      <trkpt lat="47.12029" lon="6.75082">
        <ele>993.9</ele>
        <time>2021-08-12T15:25:41Z</time>
      </trkpt>
      <trkpt lat="47.1202" lon="6.75076">
        <ele>993.1</ele>
        <time>2021-08-12T15:25:42Z</time>
      </trkpt>
      <trkpt lat="47.12014" lon="6.75069">
        <ele>992.5</ele>
        <time>2021-08-12T15:25:43Z</time>
      </trkpt>
      <trkpt lat="47.12004" lon="6.75055">
        <ele>991.7</ele>
        <time>2021-08-12T15:25:45Z</time>
      </trkpt>
      <trkpt lat="47.11994" lon="6.75041">
        <ele>991.2</ele>
        <time>2021-08-12T15:25:47Z</time>
      </trkpt>
      <trkpt lat="47.11991" lon="6.75033">
        <ele>991</ele>
        <time>2021-08-12T15:25:48Z</time>
      </trkpt>
      <trkpt lat="47.11988" lon="6.75025">
        <ele>990.8</ele>
        <time>2021-08-12T15:25:49Z</time>
      </trkpt>
      <trkpt lat="47.11983" lon="6.7501">
        <ele>990.3</ele>
        <time>2021-08-12T15:25:51Z</time>
      </trkpt>
      <trkpt lat="47.11982" lon="6.74991">
        <ele>989.5</ele>
        <time>2021-08-12T15:25:53Z</time>
      </trkpt>
      <trkpt lat="47.11981" lon="6.74981">
        <ele>989</ele>
        <time>2021-08-12T15:25:54Z</time>
      </trkpt>
      <trkpt lat="47.11981" lon="6.7497">
        <ele>988.4</ele>
        <time>2021-08-12T15:25:55Z</time>
      </trkpt>
      <trkpt lat="47.11978" lon="6.74958">
        <ele>987.8</ele>
        <time>2021-08-12T15:25:56Z</time>
      </trkpt>
      <trkpt lat="47.11972" lon="6.74935">
        <ele>986.5</ele>
        <time>2021-08-12T15:25:58Z</time>
      </trkpt>
      <trkpt lat="47.11968" lon="6.74925">
        <ele>985.8</ele>
        <time>2021-08-12T15:25:59Z</time>
      </trkpt>
      <trkpt lat="47.11959" lon="6.74905">
        <ele>984.8</ele>
        <time>2021-08-12T15:26:01Z</time>
      </trkpt>
      <trkpt lat="47.11951" lon="6.74884">
        <ele>983.9</ele>
        <time>2021-08-12T15:26:03Z</time>
      </trkpt>
      <trkpt lat="47.11944" lon="6.74862">
        <ele>983.2</ele>
        <time>2021-08-12T15:26:05Z</time>
      </trkpt>
      <trkpt lat="47.11937" lon="6.74842">
        <ele>982.5</ele>
        <time>2021-08-12T15:26:07Z</time>
      </trkpt>
      <trkpt lat="47.11931" lon="6.74824">
        <ele>981.8</ele>
        <time>2021-08-12T15:26:09Z</time>
      </trkpt>
      <trkpt lat="47.11925" lon="6.74805">
        <ele>981.1</ele>
        <time>2021-08-12T15:26:11Z</time>
      </trkpt>
      <trkpt lat="47.1192" lon="6.74782">
        <ele>980.5</ele>
        <time>2021-08-12T15:26:13Z</time>
      </trkpt>
      <trkpt lat="47.11911" lon="6.74761">
        <ele>980.1</ele>
        <time>2021-08-12T15:26:15Z</time>
      </trkpt>
      <trkpt lat="47.11907" lon="6.7475">
        <ele>979.6</ele>
        <time>2021-08-12T15:26:16Z</time>
      </trkpt>
      <trkpt lat="47.11903" lon="6.74741">
        <ele>979</ele>
        <time>2021-08-12T15:26:17Z</time>
      </trkpt>
      <trkpt lat="47.11893" lon="6.74725">
        <ele>977.4</ele>
        <time>2021-08-12T15:26:19Z</time>
      </trkpt>
      <trkpt lat="47.11883" lon="6.74709">
        <ele>975.4</ele>
        <time>2021-08-12T15:26:21Z</time>
      </trkpt>
      <trkpt lat="47.11878" lon="6.74702">
        <ele>974.4</ele>
        <time>2021-08-12T15:26:22Z</time>
      </trkpt>
      <trkpt lat="47.11866" lon="6.74689">
        <ele>972.7</ele>
        <time>2021-08-12T15:26:24Z</time>
      </trkpt>
      <trkpt lat="47.1186" lon="6.74683">
        <ele>971.9</ele>
        <time>2021-08-12T15:26:25Z</time>
      </trkpt>
      <trkpt lat="47.11855" lon="6.7468">
        <ele>971.2</ele>
        <time>2021-08-12T15:26:27Z</time>
      </trkpt>
      <trkpt lat="47.11855" lon="6.7468">
        <ele>971.2</ele>
        <time>2021-08-12T15:26:28Z</time>
      </trkpt>
      <trkpt lat="47.11855" lon="6.7468">
        <ele>971.2</ele>
        <time>2021-08-12T15:26:29Z</time>
      </trkpt>
      <trkpt lat="47.11854" lon="6.74679">
        <ele>971.1</ele>
        <time>2021-08-12T15:26:31Z</time>
      </trkpt>
      <trkpt lat="47.11853" lon="6.74677">
        <ele>970.7</ele>
        <time>2021-08-12T15:26:35Z</time>
      </trkpt>
      <trkpt lat="47.11515" lon="6.74522">
        <ele>919.8</ele>
        <time>2021-08-12T15:27:52Z</time>
      </trkpt>
      <trkpt lat="47.1151" lon="6.74521">
        <ele>919.1</ele>
        <time>2021-08-12T15:27:53Z</time>
      </trkpt>
      <trkpt lat="47.115" lon="6.74522">
        <ele>917.8</ele>
        <time>2021-08-12T15:27:55Z</time>
      </trkpt>
      <trkpt lat="47.11493" lon="6.74522">
        <ele>917</ele>
        <time>2021-08-12T15:27:56Z</time>
      </trkpt>
      <trkpt lat="47.11488" lon="6.74522">
        <ele>916.3</ele>
        <time>2021-08-12T15:27:57Z</time>
      </trkpt>
      <trkpt lat="47.11482" lon="6.74523">
        <ele>915.6</ele>
        <time>2021-08-12T15:27:58Z</time>
      </trkpt>
      <trkpt lat="47.1148" lon="6.74523">
        <ele>915.4</ele>
        <time>2021-08-12T15:28:01Z</time>
      </trkpt>
      <trkpt lat="47.11478" lon="6.74523">
        <ele>915.2</ele>
        <time>2021-08-12T15:28:02Z</time>
      </trkpt>
      <trkpt lat="47.11475" lon="6.74524">
        <ele>914.7</ele>
        <time>2021-08-12T15:28:04Z</time>
      </trkpt>
      <trkpt lat="47.11462" lon="6.74523">
        <ele>913.2</ele>
        <time>2021-08-12T15:28:05Z</time>
      </trkpt>
      <trkpt lat="47.11453" lon="6.74522">
        <ele>911.9</ele>
        <time>2021-08-12T15:28:06Z</time>
      </trkpt>
      <trkpt lat="47.1144" lon="6.7452">
        <ele>910.4</ele>
        <time>2021-08-12T15:28:08Z</time>
      </trkpt>
      <trkpt lat="47.10473" lon="6.73414">
        <ele>847.3</ele>
        <time>2021-08-12T15:35:06Z</time>
      </trkpt>
      <trkpt lat="47.10469" lon="6.73411">
        <ele>847.7</ele>
        <time>2021-08-12T15:35:07Z</time>
      </trkpt>
      <trkpt lat="47.10467" lon="6.73409">
        <ele>847.9</ele>
        <time>2021-08-12T15:35:08Z</time>
      </trkpt>
      <trkpt lat="47.10465" lon="6.73409">
        <ele>848</ele>
        <time>2021-08-12T15:35:10Z</time>
      </trkpt>
      <trkpt lat="47.10465" lon="6.73406">
        <ele>848.2</ele>
        <time>2021-08-12T15:35:11Z</time>
      </trkpt>
      <trkpt lat="47.10465" lon="6.73404">
        <ele>848.3</ele>
        <time>2021-08-12T15:35:13Z</time>
      </trkpt>
      <trkpt lat="47.10465" lon="6.73403">
        <ele>848.4</ele>
        <time>2021-08-12T15:35:14Z</time>
      </trkpt>
      <trkpt lat="47.10465" lon="6.73401">
        <ele>848.5</ele>
        <time>2021-08-12T15:35:15Z</time>
      </trkpt>
      <trkpt lat="47.10465" lon="6.734">
        <ele>848.6</ele>
        <time>2021-08-12T15:35:17Z</time>
      </trkpt>
      <trkpt lat="47.10405" lon="6.73382">
        <ele>854.2</ele>
        <time>2021-08-12T15:36:17Z</time>
      </trkpt>
      <trkpt lat="47.10403" lon="6.73381">
        <ele>854.4</ele>
        <time>2021-08-12T15:36:18Z</time>
      </trkpt>
      <trkpt lat="47.10401" lon="6.73379">
        <ele>854.6</ele>
        <time>2021-08-12T15:36:20Z</time>
      </trkpt>
      <trkpt lat="47.104" lon="6.73377">
        <ele>854.7</ele>
        <time>2021-08-12T15:36:21Z</time>
      </trkpt>
      <trkpt lat="47.104" lon="6.73376">
        <ele>854.8</ele>
        <time>2021-08-12T15:36:23Z</time>
      </trkpt>
      <trkpt lat="47.104" lon="6.73374">
        <ele>854.8</ele>
        <time>2021-08-12T15:36:24Z</time>
      </trkpt>
      <trkpt lat="47.104" lon="6.73373">
        <ele>854.8</ele>
        <time>2021-08-12T15:36:25Z</time>
      </trkpt>
      <trkpt lat="47.10399" lon="6.73373">
        <ele>854.9</ele>
        <time>2021-08-12T15:36:26Z</time>
      </trkpt>
      <trkpt lat="47.10399" lon="6.73372">
        <ele>854.9</ele>
        <time>2021-08-12T15:36:28Z</time>
      </trkpt>
      <trkpt lat="47.10398" lon="6.73371">
        <ele>854.9</ele>
        <time>2021-08-12T15:36:29Z</time>
      </trkpt>
      <trkpt lat="47.10397" lon="6.7337">
        <ele>854.9</ele>
        <time>2021-08-12T15:36:30Z</time>
      </trkpt>
      <trkpt lat="47.10397" lon="6.7337">
        <ele>854.9</ele>
        <time>2021-08-12T15:36:32Z</time>
      </trkpt>
      <trkpt lat="47.10397" lon="6.7337">
        <ele>855</ele>
        <time>2021-08-12T15:36:33Z</time>
      </trkpt>
      <trkpt lat="47.10396" lon="6.7337">
        <ele>855</ele>
        <time>2021-08-12T15:36:34Z</time>
      </trkpt>
      <trkpt lat="47.10394" lon="6.73369">
        <ele>855</ele>
        <time>2021-08-12T15:36:36Z</time>
      </trkpt>
      <trkpt lat="47.10392" lon="6.73367">
        <ele>855.1</ele>
        <time>2021-08-12T15:36:37Z</time>
      </trkpt>
      <trkpt lat="47.10391" lon="6.73366">
        <ele>855.2</ele>
        <time>2021-08-12T15:36:38Z</time>
      </trkpt>
      <trkpt lat="47.10389" lon="6.73362">
        <ele>855.3</ele>
        <time>2021-08-12T15:36:40Z</time>
      </trkpt>
      <trkpt lat="47.10385" lon="6.73361">
        <ele>855.6</ele>
        <time>2021-08-12T15:36:41Z</time>
      </trkpt>
      <trkpt lat="47.10384" lon="6.73361">
        <ele>855.7</ele>
        <time>2021-08-12T15:36:42Z</time>
      </trkpt>
      <trkpt lat="47.10381" lon="6.7336">
        <ele>856</ele>
        <time>2021-08-12T15:36:43Z</time>
      </trkpt>
      <trkpt lat="47.1038" lon="6.7336">
        <ele>856.1</ele>
        <time>2021-08-12T15:36:45Z</time>
      </trkpt>
      <trkpt lat="47.10379" lon="6.73359">
        <ele>856.1</ele>
        <time>2021-08-12T15:36:46Z</time>
      </trkpt>
      <trkpt lat="47.10378" lon="6.73359">
        <ele>856.2</ele>
        <time>2021-08-12T15:36:47Z</time>
      </trkpt>
      <trkpt lat="47.10378" lon="6.73359">
        <ele>856.2</ele>
        <time>2021-08-12T15:36:48Z</time>
      </trkpt>
      <trkpt lat="47.10378" lon="6.73359">
        <ele>856.2</ele>
        <time>2021-08-12T15:36:49Z</time>
      </trkpt>
      <trkpt lat="47.10377" lon="6.73359">
        <ele>856.2</ele>
        <time>2021-08-12T15:36:50Z</time>
      </trkpt>
      <trkpt lat="47.10377" lon="6.73359">
        <ele>856.3</ele>
        <time>2021-08-12T15:36:52Z</time>
      </trkpt>
      <trkpt lat="47.10376" lon="6.73359">
        <ele>856.3</ele>
        <time>2021-08-12T15:36:53Z</time>
      </trkpt>
      <trkpt lat="47.10375" lon="6.73358">
        <ele>856.4</ele>
        <time>2021-08-12T15:36:54Z</time>
      </trkpt>
      <trkpt lat="47.10371" lon="6.73355">
        <ele>856.8</ele>
        <time>2021-08-12T15:36:55Z</time>
      </trkpt>
      <trkpt lat="47.10368" lon="6.73353">
        <ele>857.1</ele>
        <time>2021-08-12T15:37:05Z</time>
      </trkpt>
      <trkpt lat="47.10365" lon="6.73351">
        <ele>857.4</ele>
        <time>2021-08-12T15:37:07Z</time>
      </trkpt>
      <trkpt lat="47.10361" lon="6.73348">
        <ele>857.7</ele>
        <time>2021-08-12T15:37:08Z</time>
      </trkpt>
      <trkpt lat="47.10358" lon="6.73346">
        <ele>858</ele>
        <time>2021-08-12T15:37:09Z</time>
      </trkpt>
      <trkpt lat="47.10358" lon="6.73345">
        <ele>858.1</ele>
        <time>2021-08-12T15:37:11Z</time>
      </trkpt>
      <trkpt lat="47.10357" lon="6.73345">
        <ele>858.1</ele>
        <time>2021-08-12T15:37:12Z</time>
      </trkpt>
      <trkpt lat="47.10357" lon="6.73344">
        <ele>858.2</ele>
        <time>2021-08-12T15:37:13Z</time>
      </trkpt>
      <trkpt lat="47.10357" lon="6.73344">
        <ele>858.2</ele>
        <time>2021-08-12T15:37:14Z</time>
      </trkpt>
      <trkpt lat="47.10357" lon="6.73344">
        <ele>858.2</ele>
        <time>2021-08-12T15:37:15Z</time>
      </trkpt>
      <trkpt lat="47.10357" lon="6.73344">
        <ele>858.2</ele>
        <time>2021-08-12T15:37:17Z</time>
      </trkpt>
      <trkpt lat="47.10357" lon="6.73343">
        <ele>858.2</ele>
        <time>2021-08-12T15:37:18Z</time>
      </trkpt>
      <trkpt lat="47.10356" lon="6.73343">
        <ele>858.2</ele>
        <time>2021-08-12T15:37:20Z</time>
      </trkpt>
      <trkpt lat="47.10355" lon="6.73343">
        <ele>858.4</ele>
        <time>2021-08-12T15:37:21Z</time>
      </trkpt>
      <trkpt lat="47.10353" lon="6.73344">
        <ele>858.6</ele>
        <time>2021-08-12T15:37:22Z</time>
      </trkpt>
      <trkpt lat="47.1035" lon="6.73344">
        <ele>858.8</ele>
        <time>2021-08-12T15:37:24Z</time>
      </trkpt>
      <trkpt lat="47.10325" lon="6.73348">
        <ele>860.5</ele>
        <time>2021-08-12T15:37:42Z</time>
      </trkpt>
      <trkpt lat="47.10321" lon="6.73347">
        <ele>860.7</ele>
        <time>2021-08-12T15:37:43Z</time>
      </trkpt>
      <trkpt lat="47.10319" lon="6.73346">
        <ele>860.8</ele>
        <time>2021-08-12T15:37:44Z</time>
      </trkpt>
      <trkpt lat="47.10315" lon="6.73344">
        <ele>861</ele>
        <time>2021-08-12T15:37:45Z</time>
      </trkpt>
      <trkpt lat="47.10313" lon="6.73339">
        <ele>861.2</ele>
        <time>2021-08-12T15:37:47Z</time>
      </trkpt>
      <trkpt lat="47.10314" lon="6.73333">
        <ele>861.3</ele>
        <time>2021-08-12T15:37:48Z</time>
      </trkpt>
      <trkpt lat="47.10314" lon="6.73328">
        <ele>861.5</ele>
        <time>2021-08-12T15:37:49Z</time>
      </trkpt>
      <trkpt lat="47.10314" lon="6.73327">
        <ele>861.5</ele>
        <time>2021-08-12T15:37:50Z</time>
      </trkpt>
      <trkpt lat="47.10313" lon="6.73325">
        <ele>861.6</ele>
        <time>2021-08-12T15:37:51Z</time>
      </trkpt>
      <trkpt lat="47.10312" lon="6.73323">
        <ele>861.7</ele>
        <time>2021-08-12T15:37:52Z</time>
      </trkpt>
      <trkpt lat="47.1031" lon="6.73319">
        <ele>861.8</ele>
        <time>2021-08-12T15:37:54Z</time>
      </trkpt>
      <trkpt lat="47.1031" lon="6.73317">
        <ele>861.9</ele>
        <time>2021-08-12T15:37:55Z</time>
      </trkpt>
      <trkpt lat="47.10309" lon="6.73312">
        <ele>862</ele>
        <time>2021-08-12T15:37:56Z</time>
      </trkpt>
      <trkpt lat="47.10308" lon="6.73311">
        <ele>862</ele>
        <time>2021-08-12T15:37:57Z</time>
      </trkpt>
      <trkpt lat="47.10308" lon="6.73309">
        <ele>862.1</ele>
        <time>2021-08-12T15:37:58Z</time>
      </trkpt>
      <trkpt lat="47.10306" lon="6.73307">
        <ele>862.2</ele>
        <time>2021-08-12T15:37:59Z</time>
      </trkpt>
      <trkpt lat="47.10301" lon="6.73305">
        <ele>862.4</ele>
        <time>2021-08-12T15:38:01Z</time>
      </trkpt>
      <trkpt lat="47.10294" lon="6.73301">
        <ele>862.7</ele>
        <time>2021-08-12T15:38:03Z</time>
      </trkpt>
      <trkpt lat="47.10289" lon="6.73299">
        <ele>863</ele>
        <time>2021-08-12T15:38:05Z</time>
      </trkpt>
      <trkpt lat="47.10286" lon="6.73298">
        <ele>863.1</ele>
        <time>2021-08-12T15:38:06Z</time>
      </trkpt>
      <trkpt lat="47.10283" lon="6.73298">
        <ele>863.2</ele>
        <time>2021-08-12T15:38:07Z</time>
      </trkpt>
      <trkpt lat="47.10279" lon="6.73297">
        <ele>863.4</ele>
        <time>2021-08-12T15:38:08Z</time>
      </trkpt>
      <trkpt lat="47.10275" lon="6.73296">
        <ele>863.6</ele>
        <time>2021-08-12T15:38:09Z</time>
      </trkpt>
      <trkpt lat="47.10272" lon="6.73295">
        <ele>863.7</ele>
        <time>2021-08-12T15:38:11Z</time>
      </trkpt>
      <trkpt lat="47.10267" lon="6.73294">
        <ele>863.9</ele>
        <time>2021-08-12T15:38:13Z</time>
      </trkpt>
      <trkpt lat="47.10264" lon="6.73294">
        <ele>864</ele>
        <time>2021-08-12T15:38:14Z</time>
      </trkpt>
      <trkpt lat="47.10259" lon="6.73294">
        <ele>864.1</ele>
        <time>2021-08-12T15:38:15Z</time>
      </trkpt>
      <trkpt lat="47.10255" lon="6.73294">
        <ele>864.1</ele>
        <time>2021-08-12T15:38:16Z</time>
      </trkpt>
      <trkpt lat="47.10251" lon="6.73294">
        <ele>864.1</ele>
        <time>2021-08-12T15:38:18Z</time>
      </trkpt>
      <trkpt lat="47.10246" lon="6.73291">
        <ele>864.2</ele>
        <time>2021-08-12T15:38:20Z</time>
      </trkpt>
      <trkpt lat="47.10241" lon="6.73287">
        <ele>864.2</ele>
        <time>2021-08-12T15:38:21Z</time>
      </trkpt>
      <trkpt lat="47.10238" lon="6.73284">
        <ele>864.2</ele>
        <time>2021-08-12T15:38:22Z</time>
      </trkpt>
      <trkpt lat="47.10233" lon="6.73279">
        <ele>864.2</ele>
        <time>2021-08-12T15:38:24Z</time>
      </trkpt>
      <trkpt lat="47.1023" lon="6.73276">
        <ele>864.2</ele>
        <time>2021-08-12T15:38:25Z</time>
      </trkpt>
      <trkpt lat="47.10227" lon="6.73268">
        <ele>864.4</ele>
        <time>2021-08-12T15:38:27Z</time>
      </trkpt>
      <trkpt lat="47.10226" lon="6.7326">
        <ele>864.5</ele>
        <time>2021-08-12T15:38:28Z</time>
      </trkpt>
      <trkpt lat="47.10224" lon="6.73254">
        <ele>864.6</ele>
        <time>2021-08-12T15:38:30Z</time>
      </trkpt>
      <trkpt lat="47.10226" lon="6.73252">
        <ele>864.7</ele>
        <time>2021-08-12T15:38:31Z</time>
      </trkpt>
      <trkpt lat="47.10225" lon="6.73251">
        <ele>864.7</ele>
        <time>2021-08-12T15:38:32Z</time>
      </trkpt>
      <trkpt lat="47.10222" lon="6.73245">
        <ele>865</ele>
        <time>2021-08-12T15:38:34Z</time>
      </trkpt>
      <trkpt lat="47.10218" lon="6.73241">
        <ele>865.2</ele>
        <time>2021-08-12T15:38:36Z</time>
      </trkpt>
      <trkpt lat="47.10209" lon="6.7324">
        <ele>865.6</ele>
        <time>2021-08-12T15:38:37Z</time>
      </trkpt>
      <trkpt lat="47.10205" lon="6.73238">
        <ele>865.8</ele>
        <time>2021-08-12T15:38:39Z</time>
      </trkpt>
      <trkpt lat="47.10202" lon="6.73237">
        <ele>866</ele>
        <time>2021-08-12T15:38:40Z</time>
      </trkpt>
      <trkpt lat="47.10199" lon="6.73233">
        <ele>866.2</ele>
        <time>2021-08-12T15:38:42Z</time>
      </trkpt>
      <trkpt lat="47.10198" lon="6.73232">
        <ele>866.2</ele>
        <time>2021-08-12T15:38:43Z</time>
      </trkpt>
      <trkpt lat="47.10197" lon="6.73231">
        <ele>866.2</ele>
        <time>2021-08-12T15:38:44Z</time>
      </trkpt>
      <trkpt lat="47.10193" lon="6.73225">
        <ele>866.4</ele>
        <time>2021-08-12T15:38:46Z</time>
      </trkpt>
      <trkpt lat="47.10189" lon="6.73219">
        <ele>866.5</ele>
        <time>2021-08-12T15:38:48Z</time>
      </trkpt>
      <trkpt lat="47.10186" lon="6.73215">
        <ele>866.7</ele>
        <time>2021-08-12T15:38:49Z</time>
      </trkpt>
      <trkpt lat="47.10185" lon="6.73214">
        <ele>866.7</ele>
        <time>2021-08-12T15:38:50Z</time>
      </trkpt>
      <trkpt lat="47.10184" lon="6.73211">
        <ele>866.8</ele>
        <time>2021-08-12T15:38:51Z</time>
      </trkpt>
      <trkpt lat="47.10181" lon="6.73207">
        <ele>867</ele>
        <time>2021-08-12T15:38:53Z</time>
      </trkpt>
      <trkpt lat="47.10177" lon="6.73204">
        <ele>867.1</ele>
        <time>2021-08-12T15:38:55Z</time>
      </trkpt>
      <trkpt lat="47.10175" lon="6.732">
        <ele>867.2</ele>
        <time>2021-08-12T15:38:56Z</time>
      </trkpt>
      <trkpt lat="47.10174" lon="6.73197">
        <ele>867.3</ele>
        <time>2021-08-12T15:38:57Z</time>
      </trkpt>
      <trkpt lat="47.10171" lon="6.73193">
        <ele>867.4</ele>
        <time>2021-08-12T15:38:58Z</time>
      </trkpt>
      <trkpt lat="47.10168" lon="6.73188">
        <ele>867.6</ele>
        <time>2021-08-12T15:39:00Z</time>
      </trkpt>
      <trkpt lat="47.10165" lon="6.73183">
        <ele>867.7</ele>
        <time>2021-08-12T15:39:02Z</time>
      </trkpt>
      <trkpt lat="47.10162" lon="6.73177">
        <ele>867.9</ele>
        <time>2021-08-12T15:39:03Z</time>
      </trkpt>
      <trkpt lat="47.10159" lon="6.73171">
        <ele>868.1</ele>
        <time>2021-08-12T15:39:05Z</time>
      </trkpt>
      <trkpt lat="47.10158" lon="6.73169">
        <ele>868.1</ele>
        <time>2021-08-12T15:39:06Z</time>
      </trkpt>
      <trkpt lat="47.10157" lon="6.73167">
        <ele>868.2</ele>
        <time>2021-08-12T15:39:07Z</time>
      </trkpt>
      <trkpt lat="47.10155" lon="6.73163">
        <ele>868.3</ele>
        <time>2021-08-12T15:39:08Z</time>
      </trkpt>
      <trkpt lat="47.10153" lon="6.73157">
        <ele>868.5</ele>
        <time>2021-08-12T15:39:10Z</time>
      </trkpt>
      <trkpt lat="47.10153" lon="6.73155">
        <ele>868.6</ele>
        <time>2021-08-12T15:39:11Z</time>
      </trkpt>
      <trkpt lat="47.10153" lon="6.73153">
        <ele>868.6</ele>
        <time>2021-08-12T15:39:12Z</time>
      </trkpt>
      <trkpt lat="47.10154" lon="6.73146">
        <ele>868.9</ele>
        <time>2021-08-12T15:39:14Z</time>
      </trkpt>
      <trkpt lat="47.10154" lon="6.73139">
        <ele>869.1</ele>
        <time>2021-08-12T15:39:16Z</time>
      </trkpt>
      <trkpt lat="47.10154" lon="6.73134">
        <ele>869.2</ele>
        <time>2021-08-12T15:39:17Z</time>
      </trkpt>
      <trkpt lat="47.10153" lon="6.73133">
        <ele>869.3</ele>
        <time>2021-08-12T15:39:18Z</time>
      </trkpt>
      <trkpt lat="47.10151" lon="6.73127">
        <ele>869.5</ele>
        <time>2021-08-12T15:39:20Z</time>
      </trkpt>
      <trkpt lat="47.10149" lon="6.7312">
        <ele>869.7</ele>
        <time>2021-08-12T15:39:22Z</time>
      </trkpt>
      <trkpt lat="47.10147" lon="6.73116">
        <ele>869.8</ele>
        <time>2021-08-12T15:39:23Z</time>
      </trkpt>
      <trkpt lat="47.10146" lon="6.73111">
        <ele>869.9</ele>
        <time>2021-08-12T15:39:24Z</time>
      </trkpt>
      <trkpt lat="47.10144" lon="6.73108">
        <ele>870</ele>
        <time>2021-08-12T15:39:26Z</time>
      </trkpt>
      <trkpt lat="47.10143" lon="6.73101">
        <ele>870.2</ele>
        <time>2021-08-12T15:39:28Z</time>
      </trkpt>
      <trkpt lat="47.10142" lon="6.73097">
        <ele>870.3</ele>
        <time>2021-08-12T15:39:29Z</time>
      </trkpt>
      <trkpt lat="47.10142" lon="6.73092">
        <ele>870.4</ele>
        <time>2021-08-12T15:39:30Z</time>
      </trkpt>
      <trkpt lat="47.1014" lon="6.73085">
        <ele>870.5</ele>
        <time>2021-08-12T15:39:32Z</time>
      </trkpt>
      <trkpt lat="47.10138" lon="6.73082">
        <ele>870.6</ele>
        <time>2021-08-12T15:39:33Z</time>
      </trkpt>
      <trkpt lat="47.10134" lon="6.73076">
        <ele>870.7</ele>
        <time>2021-08-12T15:39:35Z</time>
      </trkpt>
      <trkpt lat="47.10132" lon="6.73073">
        <ele>870.7</ele>
        <time>2021-08-12T15:39:36Z</time>
      </trkpt>
      <trkpt lat="47.10127" lon="6.73069">
        <ele>870.8</ele>
        <time>2021-08-12T15:39:38Z</time>
      </trkpt>
      <trkpt lat="47.10123" lon="6.73066">
        <ele>870.9</ele>
        <time>2021-08-12T15:39:39Z</time>
      </trkpt>
      <trkpt lat="47.10119" lon="6.73061">
        <ele>870.9</ele>
        <time>2021-08-12T15:39:41Z</time>
      </trkpt>
      <trkpt lat="47.10117" lon="6.73057">
        <ele>871</ele>
        <time>2021-08-12T15:39:42Z</time>
      </trkpt>
      <trkpt lat="47.10114" lon="6.7305">
        <ele>871</ele>
        <time>2021-08-12T15:39:43Z</time>
      </trkpt>
      <trkpt lat="47.10112" lon="6.73044">
        <ele>871</ele>
        <time>2021-08-12T15:39:45Z</time>
      </trkpt>
      <trkpt lat="47.10111" lon="6.73039">
        <ele>871</ele>
        <time>2021-08-12T15:39:46Z</time>
      </trkpt>
      <trkpt lat="47.10109" lon="6.73035">
        <ele>871</ele>
        <time>2021-08-12T15:39:47Z</time>
      </trkpt>
      <trkpt lat="47.10108" lon="6.73029">
        <ele>871</ele>
        <time>2021-08-12T15:39:48Z</time>
      </trkpt>
      <trkpt lat="47.10106" lon="6.73018">
        <ele>870.9</ele>
        <time>2021-08-12T15:39:50Z</time>
      </trkpt>
      <trkpt lat="47.10103" lon="6.73006">
        <ele>870.6</ele>
        <time>2021-08-12T15:39:52Z</time>
      </trkpt>
      <trkpt lat="47.10102" lon="6.72999">
        <ele>870.5</ele>
        <time>2021-08-12T15:39:53Z</time>
      </trkpt>
      <trkpt lat="47.101" lon="6.72993">
        <ele>870.4</ele>
        <time>2021-08-12T15:39:54Z</time>
      </trkpt>
      <trkpt lat="47.10098" lon="6.72984">
        <ele>870.3</ele>
        <time>2021-08-12T15:39:55Z</time>
      </trkpt>
      <trkpt lat="47.10096" lon="6.72977">
        <ele>870.1</ele>
        <time>2021-08-12T15:39:56Z</time>
      </trkpt>
      <trkpt lat="47.10094" lon="6.7297">
        <ele>870</ele>
        <time>2021-08-12T15:39:57Z</time>
      </trkpt>
      <trkpt lat="47.10087" lon="6.72956">
        <ele>869.8</ele>
        <time>2021-08-12T15:39:59Z</time>
      </trkpt>
      <trkpt lat="47.10081" lon="6.72941">
        <ele>869.6</ele>
        <time>2021-08-12T15:40:01Z</time>
      </trkpt>
      <trkpt lat="47.1008" lon="6.72933">
        <ele>869.6</ele>
        <time>2021-08-12T15:40:02Z</time>
      </trkpt>
      <trkpt lat="47.10078" lon="6.72915">
        <ele>869.4</ele>
        <time>2021-08-12T15:40:04Z</time>
      </trkpt>
      <trkpt lat="47.10074" lon="6.72898">
        <ele>869.3</ele>
        <time>2021-08-12T15:40:06Z</time>
      </trkpt>
      <trkpt lat="47.10072" lon="6.72892">
        <ele>869.3</ele>
        <time>2021-08-12T15:40:07Z</time>
      </trkpt>
      <trkpt lat="47.1007" lon="6.72885">
        <ele>869.2</ele>
        <time>2021-08-12T15:40:08Z</time>
      </trkpt>
      <trkpt lat="47.10069" lon="6.72874">
        <ele>869.2</ele>
        <time>2021-08-12T15:40:10Z</time>
      </trkpt>
      <trkpt lat="47.10069" lon="6.72867">
        <ele>869.1</ele>
        <time>2021-08-12T15:40:11Z</time>
      </trkpt>
      <trkpt lat="47.10068" lon="6.72854">
        <ele>869</ele>
        <time>2021-08-12T15:40:13Z</time>
      </trkpt>
      <trkpt lat="47.10069" lon="6.7285">
        <ele>869</ele>
        <time>2021-08-12T15:40:14Z</time>
      </trkpt>
      <trkpt lat="47.10073" lon="6.72839">
        <ele>868.9</ele>
        <time>2021-08-12T15:40:16Z</time>
      </trkpt>
      <trkpt lat="47.10075" lon="6.72832">
        <ele>868.7</ele>
        <time>2021-08-12T15:40:17Z</time>
      </trkpt>
      <trkpt lat="47.10076" lon="6.72826">
        <ele>868.6</ele>
        <time>2021-08-12T15:40:18Z</time>
      </trkpt>
      <trkpt lat="47.10078" lon="6.72813">
        <ele>868.3</ele>
        <time>2021-08-12T15:40:20Z</time>
      </trkpt>
      <trkpt lat="47.10079" lon="6.72796">
        <ele>867.9</ele>
        <time>2021-08-12T15:40:22Z</time>
      </trkpt>
      <trkpt lat="47.1008" lon="6.72786">
        <ele>867.7</ele>
        <time>2021-08-12T15:40:23Z</time>
      </trkpt>
      <trkpt lat="47.1008" lon="6.72776">
        <ele>867.4</ele>
        <time>2021-08-12T15:40:24Z</time>
      </trkpt>
      <trkpt lat="47.10075" lon="6.72755">
        <ele>867.1</ele>
        <time>2021-08-12T15:40:26Z</time>
      </trkpt>
      <trkpt lat="47.1007" lon="6.72734">
        <ele>866.9</ele>
        <time>2021-08-12T15:40:28Z</time>
      </trkpt>
      <trkpt lat="47.10066" lon="6.72714">
        <ele>866.8</ele>
        <time>2021-08-12T15:40:30Z</time>
      </trkpt>
      <trkpt lat="47.10064" lon="6.72695">
        <ele>866.9</ele>
        <time>2021-08-12T15:40:32Z</time>
      </trkpt>
      <trkpt lat="47.10062" lon="6.72686">
        <ele>867</ele>
        <time>2021-08-12T15:40:33Z</time>
      </trkpt>
      <trkpt lat="47.1006" lon="6.72679">
        <ele>867.2</ele>
        <time>2021-08-12T15:40:34Z</time>
      </trkpt>
      <trkpt lat="47.10053" lon="6.72666">
        <ele>867.6</ele>
        <time>2021-08-12T15:40:36Z</time>
      </trkpt>
      <trkpt lat="47.1005" lon="6.72655">
        <ele>868</ele>
        <time>2021-08-12T15:40:38Z</time>
      </trkpt>
      <trkpt lat="47.10047" lon="6.72649">
        <ele>868.3</ele>
        <time>2021-08-12T15:40:40Z</time>
      </trkpt>
      <trkpt lat="47.10047" lon="6.72648">
        <ele>868.4</ele>
        <time>2021-08-12T15:40:41Z</time>
      </trkpt>
      <trkpt lat="47.10045" lon="6.72648">
        <ele>868.5</ele>
        <time>2021-08-12T15:40:42Z</time>
      </trkpt>
      <trkpt lat="47.10041" lon="6.72648">
        <ele>868.8</ele>
        <time>2021-08-12T15:40:44Z</time>
      </trkpt>
      <trkpt lat="47.10038" lon="6.72647">
        <ele>869</ele>
        <time>2021-08-12T15:40:46Z</time>
      </trkpt>
      <trkpt lat="47.10037" lon="6.72647">
        <ele>869</ele>
        <time>2021-08-12T15:40:47Z</time>
      </trkpt>
      <trkpt lat="47.10034" lon="6.72646">
        <ele>869.3</ele>
        <time>2021-08-12T15:40:49Z</time>
      </trkpt>
      <trkpt lat="47.10015" lon="6.72613">
        <ele>871.7</ele>
        <time>2021-08-12T15:41:28Z</time>
      </trkpt>
      <trkpt lat="47.10013" lon="6.72611">
        <ele>872</ele>
        <time>2021-08-12T15:41:30Z</time>
      </trkpt>
      <trkpt lat="47.10008" lon="6.72607">
        <ele>872.5</ele>
        <time>2021-08-12T15:41:32Z</time>
      </trkpt>
      <trkpt lat="47.1" lon="6.72602">
        <ele>873.3</ele>
        <time>2021-08-12T15:41:33Z</time>
      </trkpt>
      <trkpt lat="47.09997" lon="6.72599">
        <ele>873.6</ele>
        <time>2021-08-12T15:41:34Z</time>
      </trkpt>
      <trkpt lat="47.09995" lon="6.72597">
        <ele>873.9</ele>
        <time>2021-08-12T15:41:36Z</time>
      </trkpt>
      <trkpt lat="47.09992" lon="6.72595">
        <ele>874.2</ele>
        <time>2021-08-12T15:41:37Z</time>
      </trkpt>
      <trkpt lat="47.09987" lon="6.72586">
        <ele>874.9</ele>
        <time>2021-08-12T15:41:39Z</time>
      </trkpt>
      <trkpt lat="47.09985" lon="6.72583">
        <ele>875.2</ele>
        <time>2021-08-12T15:41:40Z</time>
      </trkpt>
      <trkpt lat="47.09982" lon="6.72579">
        <ele>875.6</ele>
        <time>2021-08-12T15:41:42Z</time>
      </trkpt>
      <trkpt lat="47.09981" lon="6.72573">
        <ele>875.9</ele>
        <time>2021-08-12T15:41:43Z</time>
      </trkpt>
      <trkpt lat="47.09979" lon="6.72568">
        <ele>876.3</ele>
        <time>2021-08-12T15:41:45Z</time>
      </trkpt>
      <trkpt lat="47.09978" lon="6.72566">
        <ele>876.5</ele>
        <time>2021-08-12T15:41:46Z</time>
      </trkpt>
      <trkpt lat="47.09978" lon="6.72564">
        <ele>876.6</ele>
        <time>2021-08-12T15:41:47Z</time>
      </trkpt>
      <trkpt lat="47.09976" lon="6.72561">
        <ele>876.8</ele>
        <time>2021-08-12T15:41:49Z</time>
      </trkpt>
      <trkpt lat="47.09975" lon="6.7256">
        <ele>876.9</ele>
        <time>2021-08-12T15:41:50Z</time>
      </trkpt>
      <trkpt lat="47.09971" lon="6.72558">
        <ele>877.2</ele>
        <time>2021-08-12T15:41:51Z</time>
      </trkpt>
      <trkpt lat="47.09969" lon="6.72556">
        <ele>877.4</ele>
        <time>2021-08-12T15:41:53Z</time>
      </trkpt>
      <trkpt lat="47.09969" lon="6.72555">
        <ele>877.4</ele>
        <time>2021-08-12T15:41:54Z</time>
      </trkpt>
      <trkpt lat="47.09971" lon="6.72553">
        <ele>877.6</ele>
        <time>2021-08-12T15:41:55Z</time>
      </trkpt>
      <trkpt lat="47.09973" lon="6.72552">
        <ele>877.8</ele>
        <time>2021-08-12T15:41:57Z</time>
      </trkpt>
      <trkpt lat="47.09972" lon="6.7255">
        <ele>877.9</ele>
        <time>2021-08-12T15:41:58Z</time>
      </trkpt>
      <trkpt lat="47.09969" lon="6.72546">
        <ele>878.2</ele>
        <time>2021-08-12T15:42:00Z</time>
      </trkpt>
      <trkpt lat="47.09966" lon="6.72544">
        <ele>878.4</ele>
        <time>2021-08-12T15:42:01Z</time>
      </trkpt>
      <trkpt lat="47.09965" lon="6.72543">
        <ele>878.5</ele>
        <time>2021-08-12T15:42:02Z</time>
      </trkpt>
      <trkpt lat="47.09962" lon="6.72537">
        <ele>878.8</ele>
        <time>2021-08-12T15:42:04Z</time>
      </trkpt>
      <trkpt lat="47.09957" lon="6.72532">
        <ele>879.2</ele>
        <time>2021-08-12T15:42:06Z</time>
      </trkpt>
      <trkpt lat="47.09955" lon="6.7253">
        <ele>879.4</ele>
        <time>2021-08-12T15:42:07Z</time>
      </trkpt>
      <trkpt lat="47.09951" lon="6.72526">
        <ele>879.6</ele>
        <time>2021-08-12T15:42:08Z</time>
      </trkpt>
      <trkpt lat="47.0995" lon="6.72526">
        <ele>879.7</ele>
        <time>2021-08-12T15:42:09Z</time>
      </trkpt>
      <trkpt lat="47.09946" lon="6.72523">
        <ele>880</ele>
        <time>2021-08-12T15:42:11Z</time>
      </trkpt>
      <trkpt lat="47.09944" lon="6.72522">
        <ele>880</ele>
        <time>2021-08-12T15:42:12Z</time>
      </trkpt>
      <trkpt lat="47.09941" lon="6.7252">
        <ele>880.2</ele>
        <time>2021-08-12T15:42:14Z</time>
      </trkpt>
      <trkpt lat="47.09937" lon="6.72516">
        <ele>880.4</ele>
        <time>2021-08-12T15:42:15Z</time>
      </trkpt>
      <trkpt lat="47.09935" lon="6.72513">
        <ele>880.6</ele>
        <time>2021-08-12T15:42:17Z</time>
      </trkpt>
      <trkpt lat="47.09934" lon="6.72511">
        <ele>880.6</ele>
        <time>2021-08-12T15:42:18Z</time>
      </trkpt>
      <trkpt lat="47.09932" lon="6.72509">
        <ele>880.8</ele>
        <time>2021-08-12T15:42:20Z</time>
      </trkpt>
      <trkpt lat="47.09931" lon="6.72508">
        <ele>880.8</ele>
        <time>2021-08-12T15:42:21Z</time>
      </trkpt>
      <trkpt lat="47.09928" lon="6.72506">
        <ele>880.9</ele>
        <time>2021-08-12T15:42:23Z</time>
      </trkpt>
      <trkpt lat="47.09926" lon="6.72504">
        <ele>881</ele>
        <time>2021-08-12T15:42:24Z</time>
      </trkpt>
      <trkpt lat="47.09923" lon="6.72503">
        <ele>881.1</ele>
        <time>2021-08-12T15:42:26Z</time>
      </trkpt>
      <trkpt lat="47.09919" lon="6.72501">
        <ele>881.2</ele>
        <time>2021-08-12T15:42:27Z</time>
      </trkpt>
      <trkpt lat="47.09917" lon="6.725">
        <ele>881.3</ele>
        <time>2021-08-12T15:42:29Z</time>
      </trkpt>
      <trkpt lat="47.09913" lon="6.72498">
        <ele>881.4</ele>
        <time>2021-08-12T15:42:31Z</time>
      </trkpt>
      <trkpt lat="47.09912" lon="6.72496">
        <ele>881.4</ele>
        <time>2021-08-12T15:42:32Z</time>
      </trkpt>
      <trkpt lat="47.0991" lon="6.72491">
        <ele>881.5</ele>
        <time>2021-08-12T15:42:34Z</time>
      </trkpt>
      <trkpt lat="47.0991" lon="6.72491">
        <ele>881.5</ele>
        <time>2021-08-12T15:42:35Z</time>
      </trkpt>
      <trkpt lat="47.0991" lon="6.72489">
        <ele>881.5</ele>
        <time>2021-08-12T15:42:36Z</time>
      </trkpt>
      <trkpt lat="47.09908" lon="6.72484">
        <ele>881.6</ele>
        <time>2021-08-12T15:42:38Z</time>
      </trkpt>
      <trkpt lat="47.09906" lon="6.72479">
        <ele>881.7</ele>
        <time>2021-08-12T15:42:40Z</time>
      </trkpt>
      <trkpt lat="47.09904" lon="6.72475">
        <ele>881.8</ele>
        <time>2021-08-12T15:42:41Z</time>
      </trkpt>
      <trkpt lat="47.09902" lon="6.72472">
        <ele>881.8</ele>
        <time>2021-08-12T15:42:42Z</time>
      </trkpt>
      <trkpt lat="47.09897" lon="6.72466">
        <ele>881.9</ele>
        <time>2021-08-12T15:42:44Z</time>
      </trkpt>
      <trkpt lat="47.09895" lon="6.72463">
        <ele>881.9</ele>
        <time>2021-08-12T15:42:45Z</time>
      </trkpt>
      <trkpt lat="47.09893" lon="6.72461">
        <ele>882</ele>
        <time>2021-08-12T15:42:46Z</time>
      </trkpt>
      <trkpt lat="47.09889" lon="6.72455">
        <ele>882</ele>
        <time>2021-08-12T15:42:48Z</time>
      </trkpt>
      <trkpt lat="47.09886" lon="6.72453">
        <ele>882</ele>
        <time>2021-08-12T15:42:49Z</time>
      </trkpt>
      <trkpt lat="47.09882" lon="6.7245">
        <ele>882</ele>
        <time>2021-08-12T15:42:50Z</time>
      </trkpt>
      <trkpt lat="47.09881" lon="6.7245">
        <ele>882</ele>
        <time>2021-08-12T15:42:51Z</time>
      </trkpt>
      <trkpt lat="47.09877" lon="6.72448">
        <ele>882</ele>
        <time>2021-08-12T15:42:53Z</time>
      </trkpt>
      <trkpt lat="47.09876" lon="6.72446">
        <ele>882</ele>
        <time>2021-08-12T15:42:54Z</time>
      </trkpt>
      <trkpt lat="47.09873" lon="6.72444">
        <ele>882</ele>
        <time>2021-08-12T15:42:56Z</time>
      </trkpt>
      <trkpt lat="47.09871" lon="6.72443">
        <ele>882</ele>
        <time>2021-08-12T15:42:57Z</time>
      </trkpt>
      <trkpt lat="47.09866" lon="6.72439">
        <ele>882</ele>
        <time>2021-08-12T15:42:59Z</time>
      </trkpt>
      <trkpt lat="47.09864" lon="6.72435">
        <ele>882</ele>
        <time>2021-08-12T15:43:00Z</time>
      </trkpt>
      <trkpt lat="47.09862" lon="6.72434">
        <ele>881.9</ele>
        <time>2021-08-12T15:43:01Z</time>
      </trkpt>
      <trkpt lat="47.09859" lon="6.72429">
        <ele>881.9</ele>
        <time>2021-08-12T15:43:03Z</time>
      </trkpt>
      <trkpt lat="47.09855" lon="6.72424">
        <ele>881.9</ele>
        <time>2021-08-12T15:43:05Z</time>
      </trkpt>
      <trkpt lat="47.0985" lon="6.72418">
        <ele>881.9</ele>
        <time>2021-08-12T15:43:07Z</time>
      </trkpt>
      <trkpt lat="47.09849" lon="6.72417">
        <ele>881.9</ele>
        <time>2021-08-12T15:43:08Z</time>
      </trkpt>
      <trkpt lat="47.09842" lon="6.72406">
        <ele>881.8</ele>
        <time>2021-08-12T15:43:10Z</time>
      </trkpt>
      <trkpt lat="47.09837" lon="6.72401">
        <ele>881.8</ele>
        <time>2021-08-12T15:43:11Z</time>
      </trkpt>
      <trkpt lat="47.09833" lon="6.72396">
        <ele>881.9</ele>
        <time>2021-08-12T15:43:12Z</time>
      </trkpt>
      <trkpt lat="47.09825" lon="6.72391">
        <ele>881.9</ele>
        <time>2021-08-12T15:43:14Z</time>
      </trkpt>
      <trkpt lat="47.09821" lon="6.72386">
        <ele>881.9</ele>
        <time>2021-08-12T15:43:15Z</time>
      </trkpt>
      <trkpt lat="47.09813" lon="6.72376">
        <ele>882</ele>
        <time>2021-08-12T15:43:17Z</time>
      </trkpt>
      <trkpt lat="47.09807" lon="6.72369">
        <ele>882.1</ele>
        <time>2021-08-12T15:43:19Z</time>
      </trkpt>
      <trkpt lat="47.098" lon="6.72359">
        <ele>882.3</ele>
        <time>2021-08-12T15:43:21Z</time>
      </trkpt>
      <trkpt lat="47.09793" lon="6.72351">
        <ele>882.6</ele>
        <time>2021-08-12T15:43:23Z</time>
      </trkpt>
      <trkpt lat="47.09787" lon="6.72344">
        <ele>882.8</ele>
        <time>2021-08-12T15:43:25Z</time>
      </trkpt>
      <trkpt lat="47.09784" lon="6.72341">
        <ele>883</ele>
        <time>2021-08-12T15:43:26Z</time>
      </trkpt>
      <trkpt lat="47.09777" lon="6.72335">
        <ele>883.3</ele>
        <time>2021-08-12T15:43:28Z</time>
      </trkpt>
      <trkpt lat="47.09772" lon="6.72331">
        <ele>883.5</ele>
        <time>2021-08-12T15:43:29Z</time>
      </trkpt>
      <trkpt lat="47.0977" lon="6.72327">
        <ele>883.7</ele>
        <time>2021-08-12T15:43:31Z</time>
      </trkpt>
      <trkpt lat="47.09768" lon="6.72324">
        <ele>883.8</ele>
        <time>2021-08-12T15:43:32Z</time>
      </trkpt>
      <trkpt lat="47.09765" lon="6.72317">
        <ele>884.1</ele>
        <time>2021-08-12T15:43:33Z</time>
      </trkpt>
      <trkpt lat="47.09763" lon="6.72315">
        <ele>884.2</ele>
        <time>2021-08-12T15:43:35Z</time>
      </trkpt>
      <trkpt lat="47.09759" lon="6.72311">
        <ele>884.5</ele>
        <time>2021-08-12T15:43:37Z</time>
      </trkpt>
      <trkpt lat="47.09755" lon="6.7231">
        <ele>884.7</ele>
        <time>2021-08-12T15:43:38Z</time>
      </trkpt>
      <trkpt lat="47.09754" lon="6.72309">
        <ele>884.8</ele>
        <time>2021-08-12T15:43:39Z</time>
      </trkpt>
      <trkpt lat="47.09753" lon="6.72308">
        <ele>884.9</ele>
        <time>2021-08-12T15:43:40Z</time>
      </trkpt>
      <trkpt lat="47.09752" lon="6.72307">
        <ele>885</ele>
        <time>2021-08-12T15:43:41Z</time>
      </trkpt>
      <trkpt lat="47.0975" lon="6.72305">
        <ele>885.2</ele>
        <time>2021-08-12T15:43:43Z</time>
      </trkpt>
      <trkpt lat="47.09707" lon="6.72287">
        <ele>887.7</ele>
        <time>2021-08-12T15:44:05Z</time>
      </trkpt>
      <trkpt lat="47.09705" lon="6.72286">
        <ele>887.8</ele>
        <time>2021-08-12T15:44:06Z</time>
      </trkpt>
      <trkpt lat="47.09701" lon="6.72282">
        <ele>888</ele>
        <time>2021-08-12T15:44:08Z</time>
      </trkpt>
      <trkpt lat="47.09697" lon="6.72278">
        <ele>888.3</ele>
        <time>2021-08-12T15:44:09Z</time>
      </trkpt>
      <trkpt lat="47.09695" lon="6.72276">
        <ele>888.4</ele>
        <time>2021-08-12T15:44:10Z</time>
      </trkpt>
      <trkpt lat="47.0969" lon="6.72272">
        <ele>888.6</ele>
        <time>2021-08-12T15:44:11Z</time>
      </trkpt>
      <trkpt lat="47.09688" lon="6.7227">
        <ele>888.7</ele>
        <time>2021-08-12T15:44:12Z</time>
      </trkpt>
      <trkpt lat="47.09686" lon="6.72267">
        <ele>888.8</ele>
        <time>2021-08-12T15:44:14Z</time>
      </trkpt>
      <trkpt lat="47.09687" lon="6.72262">
        <ele>889</ele>
        <time>2021-08-12T15:44:15Z</time>
      </trkpt>
      <trkpt lat="47.09688" lon="6.72261">
        <ele>889</ele>
        <time>2021-08-12T15:44:16Z</time>
      </trkpt>
      <trkpt lat="47.09689" lon="6.72258">
        <ele>889.1</ele>
        <time>2021-08-12T15:44:18Z</time>
      </trkpt>
      <trkpt lat="47.09693" lon="6.72238">
        <ele>889.6</ele>
        <time>2021-08-12T15:44:25Z</time>
      </trkpt>
      <trkpt lat="47.09689" lon="6.72234">
        <ele>889.7</ele>
        <time>2021-08-12T15:44:26Z</time>
      </trkpt>
      <trkpt lat="47.09688" lon="6.72232">
        <ele>889.7</ele>
        <time>2021-08-12T15:44:27Z</time>
      </trkpt>
      <trkpt lat="47.09684" lon="6.72229">
        <ele>889.9</ele>
        <time>2021-08-12T15:44:29Z</time>
      </trkpt>
      <trkpt lat="47.0968" lon="6.72229">
        <ele>890</ele>
        <time>2021-08-12T15:44:30Z</time>
      </trkpt>
      <trkpt lat="47.09667" lon="6.72233">
        <ele>890.4</ele>
        <time>2021-08-12T15:44:31Z</time>
      </trkpt>
      <trkpt lat="47.09662" lon="6.72235">
        <ele>890.6</ele>
        <time>2021-08-12T15:44:32Z</time>
      </trkpt>
      <trkpt lat="47.09661" lon="6.72235">
        <ele>890.6</ele>
        <time>2021-08-12T15:44:34Z</time>
      </trkpt>
      <trkpt lat="47.09661" lon="6.72235">
        <ele>890.6</ele>
        <time>2021-08-12T15:44:35Z</time>
      </trkpt>
      <trkpt lat="47.09662" lon="6.72234">
        <ele>890.7</ele>
        <time>2021-08-12T15:44:36Z</time>
      </trkpt>
      <trkpt lat="47.09663" lon="6.72233">
        <ele>890.7</ele>
        <time>2021-08-12T15:44:37Z</time>
      </trkpt>
      <trkpt lat="47.09664" lon="6.72232">
        <ele>890.8</ele>
        <time>2021-08-12T15:44:38Z</time>
      </trkpt>
      <trkpt lat="47.09659" lon="6.72229">
        <ele>890.9</ele>
        <time>2021-08-12T15:44:39Z</time>
      </trkpt>
      <trkpt lat="47.09654" lon="6.72228">
        <ele>891.1</ele>
        <time>2021-08-12T15:45:13Z</time>
      </trkpt>
      <trkpt lat="47.09649" lon="6.72227">
        <ele>891.2</ele>
        <time>2021-08-12T15:45:14Z</time>
      </trkpt>
      <trkpt lat="47.09647" lon="6.72224">
        <ele>891.3</ele>
        <time>2021-08-12T15:45:15Z</time>
      </trkpt>
      <trkpt lat="47.09645" lon="6.72222">
        <ele>891.4</ele>
        <time>2021-08-12T15:45:17Z</time>
      </trkpt>
      <trkpt lat="47.09643" lon="6.72219">
        <ele>891.5</ele>
        <time>2021-08-12T15:45:19Z</time>
      </trkpt>
      <trkpt lat="47.09642" lon="6.72219">
        <ele>891.5</ele>
        <time>2021-08-12T15:45:20Z</time>
      </trkpt>
      <trkpt lat="47.09643" lon="6.72218">
        <ele>891.6</ele>
        <time>2021-08-12T15:45:21Z</time>
      </trkpt>
      <trkpt lat="47.09643" lon="6.72217">
        <ele>891.6</ele>
        <time>2021-08-12T15:45:22Z</time>
      </trkpt>
      <trkpt lat="47.09643" lon="6.72217">
        <ele>891.6</ele>
        <time>2021-08-12T15:45:24Z</time>
      </trkpt>
      <trkpt lat="47.09643" lon="6.72216">
        <ele>891.6</ele>
        <time>2021-08-12T15:45:25Z</time>
      </trkpt>
      <trkpt lat="47.09642" lon="6.72215">
        <ele>891.6</ele>
        <time>2021-08-12T15:45:27Z</time>
      </trkpt>
      <trkpt lat="47.09642" lon="6.72215">
        <ele>891.6</ele>
        <time>2021-08-12T15:45:28Z</time>
      </trkpt>
      <trkpt lat="47.09642" lon="6.72215">
        <ele>891.6</ele>
        <time>2021-08-12T15:45:29Z</time>
      </trkpt>
      <trkpt lat="47.09618" lon="6.72165">
        <ele>893</ele>
        <time>2021-08-12T15:45:44Z</time>
      </trkpt>
      <trkpt lat="47.09616" lon="6.72161">
        <ele>893.1</ele>
        <time>2021-08-12T15:45:45Z</time>
      </trkpt>
      <trkpt lat="47.09613" lon="6.72157">
        <ele>893.2</ele>
        <time>2021-08-12T15:45:46Z</time>
      </trkpt>
      <trkpt lat="47.09611" lon="6.72156">
        <ele>893.3</ele>
        <time>2021-08-12T15:45:48Z</time>
      </trkpt>
      <trkpt lat="47.0961" lon="6.72155">
        <ele>893.4</ele>
        <time>2021-08-12T15:45:49Z</time>
      </trkpt>
      <trkpt lat="47.09609" lon="6.72154">
        <ele>893.4</ele>
        <time>2021-08-12T15:45:50Z</time>
      </trkpt>
      <trkpt lat="47.09607" lon="6.72153">
        <ele>893.5</ele>
        <time>2021-08-12T15:45:51Z</time>
      </trkpt>
      <trkpt lat="47.09605" lon="6.72151">
        <ele>893.6</ele>
        <time>2021-08-12T15:45:53Z</time>
      </trkpt>
      <trkpt lat="47.09604" lon="6.72149">
        <ele>893.7</ele>
        <time>2021-08-12T15:45:54Z</time>
      </trkpt>
      <trkpt lat="47.09602" lon="6.72146">
        <ele>893.8</ele>
        <time>2021-08-12T15:45:56Z</time>
      </trkpt>
      <trkpt lat="47.09598" lon="6.72144">
        <ele>894</ele>
        <time>2021-08-12T15:45:58Z</time>
      </trkpt>
      <trkpt lat="47.09597" lon="6.72143">
        <ele>894</ele>
        <time>2021-08-12T15:45:59Z</time>
      </trkpt>
      <trkpt lat="47.09595" lon="6.72142">
        <ele>894.1</ele>
        <time>2021-08-12T15:46:00Z</time>
      </trkpt>
      <trkpt lat="47.09595" lon="6.72141">
        <ele>894.1</ele>
        <time>2021-08-12T15:46:02Z</time>
      </trkpt>
      <trkpt lat="47.09595" lon="6.72141">
        <ele>894.1</ele>
        <time>2021-08-12T15:46:03Z</time>
      </trkpt>
      <trkpt lat="47.09594" lon="6.7214">
        <ele>894.2</ele>
        <time>2021-08-12T15:46:04Z</time>
      </trkpt>
      <trkpt lat="47.09592" lon="6.72137">
        <ele>894.3</ele>
        <time>2021-08-12T15:46:06Z</time>
      </trkpt>
      <trkpt lat="47.09591" lon="6.72136">
        <ele>894.3</ele>
        <time>2021-08-12T15:46:07Z</time>
      </trkpt>
      <trkpt lat="47.0959" lon="6.72134">
        <ele>894.4</ele>
        <time>2021-08-12T15:46:08Z</time>
      </trkpt>
      <trkpt lat="47.09589" lon="6.72132">
        <ele>894.5</ele>
        <time>2021-08-12T15:46:10Z</time>
      </trkpt>
      <trkpt lat="47.09588" lon="6.72131">
        <ele>894.5</ele>
        <time>2021-08-12T15:46:11Z</time>
      </trkpt>
      <trkpt lat="47.09585" lon="6.72129">
        <ele>894.6</ele>
        <time>2021-08-12T15:46:13Z</time>
      </trkpt>
      <trkpt lat="47.09585" lon="6.72129">
        <ele>894.7</ele>
        <time>2021-08-12T15:46:14Z</time>
      </trkpt>
      <trkpt lat="47.09584" lon="6.72128">
        <ele>894.7</ele>
        <time>2021-08-12T15:46:16Z</time>
      </trkpt>
      <trkpt lat="47.09583" lon="6.72127">
        <ele>894.8</ele>
        <time>2021-08-12T15:46:17Z</time>
      </trkpt>
      <trkpt lat="47.09582" lon="6.72125">
        <ele>894.8</ele>
        <time>2021-08-12T15:46:19Z</time>
      </trkpt>
      <trkpt lat="47.09581" lon="6.72123">
        <ele>894.9</ele>
        <time>2021-08-12T15:46:20Z</time>
      </trkpt>
      <trkpt lat="47.0958" lon="6.72122">
        <ele>894.9</ele>
        <time>2021-08-12T15:46:21Z</time>
      </trkpt>
      <trkpt lat="47.0958" lon="6.72121">
        <ele>895</ele>
        <time>2021-08-12T15:46:22Z</time>
      </trkpt>
      <trkpt lat="47.09578" lon="6.72118">
        <ele>895.1</ele>
        <time>2021-08-12T15:46:24Z</time>
      </trkpt>
      <trkpt lat="47.09577" lon="6.72117">
        <ele>895.1</ele>
        <time>2021-08-12T15:46:25Z</time>
      </trkpt>
      <trkpt lat="47.09576" lon="6.72116">
        <ele>895.2</ele>
        <time>2021-08-12T15:46:26Z</time>
      </trkpt>
      <trkpt lat="47.09576" lon="6.72116">
        <ele>895.2</ele>
        <time>2021-08-12T15:46:28Z</time>
      </trkpt>
      <trkpt lat="47.09575" lon="6.72114">
        <ele>895.2</ele>
        <time>2021-08-12T15:46:29Z</time>
      </trkpt>
      <trkpt lat="47.09575" lon="6.72114">
        <ele>895.2</ele>
        <time>2021-08-12T15:46:30Z</time>
      </trkpt>
      <trkpt lat="47.09574" lon="6.72113">
        <ele>895.3</ele>
        <time>2021-08-12T15:46:32Z</time>
      </trkpt>
      <trkpt lat="47.09573" lon="6.72112">
        <ele>895.3</ele>
        <time>2021-08-12T15:46:33Z</time>
      </trkpt>
      <trkpt lat="47.09573" lon="6.7211">
        <ele>895.4</ele>
        <time>2021-08-12T15:46:35Z</time>
      </trkpt>
      <trkpt lat="47.09568" lon="6.72103">
        <ele>895.7</ele>
        <time>2021-08-12T15:46:36Z</time>
      </trkpt>
      <trkpt lat="47.09563" lon="6.72097">
        <ele>895.9</ele>
        <time>2021-08-12T15:46:37Z</time>
      </trkpt>
      <trkpt lat="47.09558" lon="6.72091">
        <ele>896.2</ele>
        <time>2021-08-12T15:46:39Z</time>
      </trkpt>
      <trkpt lat="47.09553" lon="6.72085">
        <ele>896.5</ele>
        <time>2021-08-12T15:47:06Z</time>
      </trkpt>
      <trkpt lat="47.09549" lon="6.72079">
        <ele>896.7</ele>
        <time>2021-08-12T15:47:07Z</time>
      </trkpt>
      <trkpt lat="47.09544" lon="6.72073">
        <ele>897</ele>
        <time>2021-08-12T15:47:08Z</time>
      </trkpt>
      <trkpt lat="47.09541" lon="6.7207">
        <ele>897.1</ele>
        <time>2021-08-12T15:47:09Z</time>
      </trkpt>
      <trkpt lat="47.09539" lon="6.72068">
        <ele>897.3</ele>
        <time>2021-08-12T15:47:10Z</time>
      </trkpt>
      <trkpt lat="47.09536" lon="6.72066">
        <ele>897.4</ele>
        <time>2021-08-12T15:47:12Z</time>
      </trkpt>
      <trkpt lat="47.09534" lon="6.72064">
        <ele>897.6</ele>
        <time>2021-08-12T15:47:13Z</time>
      </trkpt>
      <trkpt lat="47.09531" lon="6.72063">
        <ele>897.7</ele>
        <time>2021-08-12T15:47:14Z</time>
      </trkpt>
      <trkpt lat="47.09528" lon="6.7206">
        <ele>897.9</ele>
        <time>2021-08-12T15:47:15Z</time>
      </trkpt>
      <trkpt lat="47.09526" lon="6.72059">
        <ele>898</ele>
        <time>2021-08-12T15:47:16Z</time>
      </trkpt>
      <trkpt lat="47.09524" lon="6.72056">
        <ele>898.1</ele>
        <time>2021-08-12T15:47:17Z</time>
      </trkpt>
      <trkpt lat="47.09523" lon="6.72055">
        <ele>898.2</ele>
        <time>2021-08-12T15:47:18Z</time>
      </trkpt>
      <trkpt lat="47.09522" lon="6.72053">
        <ele>898.3</ele>
        <time>2021-08-12T15:47:20Z</time>
      </trkpt>
      <trkpt lat="47.09521" lon="6.72051">
        <ele>898.3</ele>
        <time>2021-08-12T15:47:21Z</time>
      </trkpt>
      <trkpt lat="47.0952" lon="6.72049">
        <ele>898.4</ele>
        <time>2021-08-12T15:47:22Z</time>
      </trkpt>
      <trkpt lat="47.09521" lon="6.72046">
        <ele>898.5</ele>
        <time>2021-08-12T15:47:23Z</time>
      </trkpt>
      <trkpt lat="47.09521" lon="6.72043">
        <ele>898.6</ele>
        <time>2021-08-12T15:47:24Z</time>
      </trkpt>
      <trkpt lat="47.09521" lon="6.72042">
        <ele>898.7</ele>
        <time>2021-08-12T15:47:25Z</time>
      </trkpt>
      <trkpt lat="47.09521" lon="6.72041">
        <ele>898.7</ele>
        <time>2021-08-12T15:47:26Z</time>
      </trkpt>
      <trkpt lat="47.0952" lon="6.72039">
        <ele>898.8</ele>
        <time>2021-08-12T15:47:28Z</time>
      </trkpt>
      <trkpt lat="47.09519" lon="6.72038">
        <ele>898.8</ele>
        <time>2021-08-12T15:47:29Z</time>
      </trkpt>
      <trkpt lat="47.09518" lon="6.72038">
        <ele>898.9</ele>
        <time>2021-08-12T15:47:30Z</time>
      </trkpt>
      <trkpt lat="47.09517" lon="6.72037">
        <ele>898.9</ele>
        <time>2021-08-12T15:47:31Z</time>
      </trkpt>
      <trkpt lat="47.09516" lon="6.72036">
        <ele>899</ele>
        <time>2021-08-12T15:47:32Z</time>
      </trkpt>
      <trkpt lat="47.09515" lon="6.72035">
        <ele>899.1</ele>
        <time>2021-08-12T15:47:33Z</time>
      </trkpt>
      <trkpt lat="47.09514" lon="6.72033">
        <ele>899.2</ele>
        <time>2021-08-12T15:47:34Z</time>
      </trkpt>
      <trkpt lat="47.09513" lon="6.7203">
        <ele>899.3</ele>
        <time>2021-08-12T15:47:36Z</time>
      </trkpt>
      <trkpt lat="47.09512" lon="6.72029">
        <ele>899.3</ele>
        <time>2021-08-12T15:47:37Z</time>
      </trkpt>
      <trkpt lat="47.09511" lon="6.72028">
        <ele>899.4</ele>
        <time>2021-08-12T15:47:38Z</time>
      </trkpt>
      <trkpt lat="47.09511" lon="6.72027">
        <ele>899.5</ele>
        <time>2021-08-12T15:47:39Z</time>
      </trkpt>
      <trkpt lat="47.0951" lon="6.72026">
        <ele>899.5</ele>
        <time>2021-08-12T15:47:40Z</time>
      </trkpt>
      <trkpt lat="47.0951" lon="6.72026">
        <ele>899.5</ele>
        <time>2021-08-12T15:47:41Z</time>
      </trkpt>
      <trkpt lat="47.0951" lon="6.72025">
        <ele>899.5</ele>
        <time>2021-08-12T15:47:42Z</time>
      </trkpt>
      <trkpt lat="47.09509" lon="6.72025">
        <ele>899.6</ele>
        <time>2021-08-12T15:47:44Z</time>
      </trkpt>
      <trkpt lat="47.09509" lon="6.72024">
        <ele>899.6</ele>
        <time>2021-08-12T15:47:45Z</time>
      </trkpt>
      <trkpt lat="47.09509" lon="6.72023">
        <ele>899.7</ele>
        <time>2021-08-12T15:47:46Z</time>
      </trkpt>
      <trkpt lat="47.09508" lon="6.72021">
        <ele>899.7</ele>
        <time>2021-08-12T15:47:48Z</time>
      </trkpt>
      <trkpt lat="47.09507" lon="6.72019">
        <ele>899.8</ele>
        <time>2021-08-12T15:47:49Z</time>
      </trkpt>
      <trkpt lat="47.09506" lon="6.72016">
        <ele>900</ele>
        <time>2021-08-12T15:47:50Z</time>
      </trkpt>
      <trkpt lat="47.09505" lon="6.72012">
        <ele>900.2</ele>
        <time>2021-08-12T15:47:52Z</time>
      </trkpt>
      <trkpt lat="47.09505" lon="6.72009">
        <ele>900.2</ele>
        <time>2021-08-12T15:47:53Z</time>
      </trkpt>
      <trkpt lat="47.09505" lon="6.72009">
        <ele>900.3</ele>
        <time>2021-08-12T15:47:55Z</time>
      </trkpt>
      <trkpt lat="47.09504" lon="6.72007">
        <ele>900.4</ele>
        <time>2021-08-12T15:47:56Z</time>
      </trkpt>
      <trkpt lat="47.095" lon="6.71997">
        <ele>900.8</ele>
        <time>2021-08-12T15:47:58Z</time>
      </trkpt>
      <trkpt lat="47.09496" lon="6.71989">
        <ele>901.2</ele>
        <time>2021-08-12T15:47:59Z</time>
      </trkpt>
      <trkpt lat="47.09493" lon="6.71985">
        <ele>901.5</ele>
        <time>2021-08-12T15:48:01Z</time>
      </trkpt>
      <trkpt lat="47.0949" lon="6.71983">
        <ele>901.7</ele>
        <time>2021-08-12T15:48:02Z</time>
      </trkpt>
      <trkpt lat="47.09489" lon="6.71982">
        <ele>901.8</ele>
        <time>2021-08-12T15:48:04Z</time>
      </trkpt>
      <trkpt lat="47.09488" lon="6.7198">
        <ele>901.9</ele>
        <time>2021-08-12T15:48:05Z</time>
      </trkpt>
      <trkpt lat="47.09487" lon="6.71979">
        <ele>901.9</ele>
        <time>2021-08-12T15:48:06Z</time>
      </trkpt>
      <trkpt lat="47.09486" lon="6.71978">
        <ele>902</ele>
        <time>2021-08-12T15:48:08Z</time>
      </trkpt>
      <trkpt lat="47.09485" lon="6.71978">
        <ele>902.1</ele>
        <time>2021-08-12T15:48:09Z</time>
      </trkpt>
      <trkpt lat="47.09481" lon="6.71974">
        <ele>902.4</ele>
        <time>2021-08-12T15:48:10Z</time>
      </trkpt>
      <trkpt lat="47.09473" lon="6.71967">
        <ele>902.9</ele>
        <time>2021-08-12T15:48:12Z</time>
      </trkpt>
      <trkpt lat="47.0947" lon="6.71963">
        <ele>903.2</ele>
        <time>2021-08-12T15:48:13Z</time>
      </trkpt>
      <trkpt lat="47.09467" lon="6.71959">
        <ele>903.5</ele>
        <time>2021-08-12T15:48:14Z</time>
      </trkpt>
      <trkpt lat="47.09464" lon="6.71957">
        <ele>903.7</ele>
        <time>2021-08-12T15:48:16Z</time>
      </trkpt>
      <trkpt lat="47.0946" lon="6.71954">
        <ele>904</ele>
        <time>2021-08-12T15:48:17Z</time>
      </trkpt>
      <trkpt lat="47.09457" lon="6.71953">
        <ele>904.2</ele>
        <time>2021-08-12T15:48:18Z</time>
      </trkpt>
      <trkpt lat="47.09455" lon="6.71952">
        <ele>904.3</ele>
        <time>2021-08-12T15:48:19Z</time>
      </trkpt>
      <trkpt lat="47.09452" lon="6.71953">
        <ele>904.5</ele>
        <time>2021-08-12T15:48:21Z</time>
      </trkpt>
      <trkpt lat="47.09452" lon="6.71955">
        <ele>904.6</ele>
        <time>2021-08-12T15:48:22Z</time>
      </trkpt>
      <trkpt lat="47.09451" lon="6.71956">
        <ele>904.6</ele>
        <time>2021-08-12T15:48:23Z</time>
      </trkpt>
      <trkpt lat="47.09451" lon="6.71956">
        <ele>904.6</ele>
        <time>2021-08-12T15:48:24Z</time>
      </trkpt>
      <trkpt lat="47.0945" lon="6.71955">
        <ele>904.7</ele>
        <time>2021-08-12T15:48:25Z</time>
      </trkpt>
      <trkpt lat="47.0945" lon="6.71954">
        <ele>904.7</ele>
        <time>2021-08-12T15:48:26Z</time>
      </trkpt>
      <trkpt lat="47.09449" lon="6.71953">
        <ele>904.8</ele>
        <time>2021-08-12T15:48:28Z</time>
      </trkpt>
      <trkpt lat="47.09448" lon="6.71951">
        <ele>904.9</ele>
        <time>2021-08-12T15:48:30Z</time>
      </trkpt>
      <trkpt lat="47.09447" lon="6.7195">
        <ele>905</ele>
        <time>2021-08-12T15:48:32Z</time>
      </trkpt>
      <trkpt lat="47.09436" lon="6.71938">
        <ele>906</ele>
        <time>2021-08-12T15:48:41Z</time>
      </trkpt>
      <trkpt lat="47.09433" lon="6.71934">
        <ele>906.3</ele>
        <time>2021-08-12T15:48:43Z</time>
      </trkpt>
      <trkpt lat="47.09432" lon="6.71931">
        <ele>906.4</ele>
        <time>2021-08-12T15:48:44Z</time>
      </trkpt>
      <trkpt lat="47.0943" lon="6.71929">
        <ele>906.6</ele>
        <time>2021-08-12T15:48:46Z</time>
      </trkpt>
      <trkpt lat="47.09428" lon="6.71923">
        <ele>907</ele>
        <time>2021-08-12T15:48:48Z</time>
      </trkpt>
      <trkpt lat="47.09425" lon="6.7192">
        <ele>907.3</ele>
        <time>2021-08-12T15:48:49Z</time>
      </trkpt>
      <trkpt lat="47.09422" lon="6.71918">
        <ele>907.5</ele>
        <time>2021-08-12T15:48:50Z</time>
      </trkpt>
      <trkpt lat="47.09419" lon="6.71915">
        <ele>907.8</ele>
        <time>2021-08-12T15:48:51Z</time>
      </trkpt>
      <trkpt lat="47.09419" lon="6.71915">
        <ele>907.8</ele>
        <time>2021-08-12T15:48:52Z</time>
      </trkpt>
      <trkpt lat="47.09417" lon="6.7191">
        <ele>908.1</ele>
        <time>2021-08-12T15:48:53Z</time>
      </trkpt>
      <trkpt lat="47.09416" lon="6.71909">
        <ele>908.2</ele>
        <time>2021-08-12T15:48:54Z</time>
      </trkpt>
      <trkpt lat="47.09415" lon="6.71908">
        <ele>908.3</ele>
        <time>2021-08-12T15:48:56Z</time>
      </trkpt>
      <trkpt lat="47.09415" lon="6.71908">
        <ele>908.3</ele>
        <time>2021-08-12T15:48:58Z</time>
      </trkpt>
      <trkpt lat="47.09414" lon="6.71908">
        <ele>908.4</ele>
        <time>2021-08-12T15:48:59Z</time>
      </trkpt>
      <trkpt lat="47.09413" lon="6.71908">
        <ele>908.5</ele>
        <time>2021-08-12T15:49:01Z</time>
      </trkpt>
      <trkpt lat="47.09413" lon="6.71908">
        <ele>908.5</ele>
        <time>2021-08-12T15:49:02Z</time>
      </trkpt>
      <trkpt lat="47.0941" lon="6.71906">
        <ele>908.7</ele>
        <time>2021-08-12T15:49:03Z</time>
      </trkpt>
      <trkpt lat="47.09409" lon="6.71905">
        <ele>908.8</ele>
        <time>2021-08-12T15:49:04Z</time>
      </trkpt>
      <trkpt lat="47.09407" lon="6.71905">
        <ele>909</ele>
        <time>2021-08-12T15:49:06Z</time>
      </trkpt>
      <trkpt lat="47.09406" lon="6.71905">
        <ele>909.1</ele>
        <time>2021-08-12T15:49:07Z</time>
      </trkpt>
      <trkpt lat="47.09405" lon="6.71906">
        <ele>909.2</ele>
        <time>2021-08-12T15:49:08Z</time>
      </trkpt>
      <trkpt lat="47.09404" lon="6.71906">
        <ele>909.2</ele>
        <time>2021-08-12T15:49:09Z</time>
      </trkpt>
      <trkpt lat="47.094" lon="6.71906">
        <ele>909.6</ele>
        <time>2021-08-12T15:49:11Z</time>
      </trkpt>
      <trkpt lat="47.09397" lon="6.71906">
        <ele>909.8</ele>
        <time>2021-08-12T15:49:12Z</time>
      </trkpt>
      <trkpt lat="47.09395" lon="6.71906">
        <ele>909.9</ele>
        <time>2021-08-12T15:49:13Z</time>
      </trkpt>
      <trkpt lat="47.09393" lon="6.71905">
        <ele>910.1</ele>
        <time>2021-08-12T15:49:14Z</time>
      </trkpt>
      <trkpt lat="47.09392" lon="6.71903">
        <ele>910.2</ele>
        <time>2021-08-12T15:49:15Z</time>
      </trkpt>
      <trkpt lat="47.09391" lon="6.719">
        <ele>910.3</ele>
        <time>2021-08-12T15:49:17Z</time>
      </trkpt>
      <trkpt lat="47.0939" lon="6.71899">
        <ele>910.4</ele>
        <time>2021-08-12T15:49:18Z</time>
      </trkpt>
      <trkpt lat="47.09391" lon="6.71895">
        <ele>910.7</ele>
        <time>2021-08-12T15:49:20Z</time>
      </trkpt>
      <trkpt lat="47.09391" lon="6.71894">
        <ele>910.7</ele>
        <time>2021-08-12T15:49:21Z</time>
      </trkpt>
      <trkpt lat="47.0939" lon="6.71893">
        <ele>910.8</ele>
        <time>2021-08-12T15:49:23Z</time>
      </trkpt>
      <trkpt lat="47.0939" lon="6.71892">
        <ele>910.8</ele>
        <time>2021-08-12T15:49:25Z</time>
      </trkpt>
      <trkpt lat="47.0939" lon="6.71892">
        <ele>910.9</ele>
        <time>2021-08-12T15:49:26Z</time>
      </trkpt>
      <trkpt lat="47.09389" lon="6.7189">
        <ele>911</ele>
        <time>2021-08-12T15:49:27Z</time>
      </trkpt>
      <trkpt lat="47.09388" lon="6.71888">
        <ele>911.1</ele>
        <time>2021-08-12T15:49:28Z</time>
      </trkpt>
      <trkpt lat="47.09378" lon="6.71874">
        <ele>912.1</ele>
        <time>2021-08-12T15:49:37Z</time>
      </trkpt>
      <trkpt lat="47.09375" lon="6.7187">
        <ele>912.4</ele>
        <time>2021-08-12T15:49:38Z</time>
      </trkpt>
      <trkpt lat="47.09369" lon="6.71864">
        <ele>913</ele>
        <time>2021-08-12T15:49:41Z</time>
      </trkpt>
      <trkpt lat="47.09367" lon="6.71861">
        <ele>913.3</ele>
        <time>2021-08-12T15:49:42Z</time>
      </trkpt>
      <trkpt lat="47.09365" lon="6.71855">
        <ele>913.6</ele>
        <time>2021-08-12T15:49:44Z</time>
      </trkpt>
      <trkpt lat="47.09365" lon="6.71852">
        <ele>913.8</ele>
        <time>2021-08-12T15:49:46Z</time>
      </trkpt>
      <trkpt lat="47.09366" lon="6.7185">
        <ele>914</ele>
        <time>2021-08-12T15:49:48Z</time>
      </trkpt>
      <trkpt lat="47.09368" lon="6.71849">
        <ele>914.1</ele>
        <time>2021-08-12T15:49:49Z</time>
      </trkpt>
      <trkpt lat="47.09369" lon="6.71848">
        <ele>914.2</ele>
        <time>2021-08-12T15:49:50Z</time>
      </trkpt>
      <trkpt lat="47.09368" lon="6.71845">
        <ele>914.4</ele>
        <time>2021-08-12T15:49:52Z</time>
      </trkpt>
      <trkpt lat="47.09367" lon="6.71842">
        <ele>914.6</ele>
        <time>2021-08-12T15:49:53Z</time>
      </trkpt>
      <trkpt lat="47.09366" lon="6.71841">
        <ele>914.7</ele>
        <time>2021-08-12T15:49:54Z</time>
      </trkpt>
      <trkpt lat="47.09363" lon="6.71838">
        <ele>915</ele>
        <time>2021-08-12T15:49:56Z</time>
      </trkpt>
      <trkpt lat="47.09361" lon="6.71833">
        <ele>915.4</ele>
        <time>2021-08-12T15:49:58Z</time>
      </trkpt>
      <trkpt lat="47.09358" lon="6.71829">
        <ele>915.7</ele>
        <time>2021-08-12T15:49:59Z</time>
      </trkpt>
      <trkpt lat="47.09356" lon="6.71825">
        <ele>916</ele>
        <time>2021-08-12T15:50:01Z</time>
      </trkpt>
      <trkpt lat="47.09355" lon="6.71824">
        <ele>916.1</ele>
        <time>2021-08-12T15:50:02Z</time>
      </trkpt>
      <trkpt lat="47.09353" lon="6.71819">
        <ele>916.4</ele>
        <time>2021-08-12T15:50:04Z</time>
      </trkpt>
      <trkpt lat="47.09352" lon="6.71817">
        <ele>916.5</ele>
        <time>2021-08-12T15:50:05Z</time>
      </trkpt>
      <trkpt lat="47.0935" lon="6.71811">
        <ele>916.9</ele>
        <time>2021-08-12T15:50:07Z</time>
      </trkpt>
      <trkpt lat="47.09349" lon="6.7181">
        <ele>917</ele>
        <time>2021-08-12T15:50:08Z</time>
      </trkpt>
      <trkpt lat="47.09348" lon="6.71809">
        <ele>917</ele>
        <time>2021-08-12T15:50:09Z</time>
      </trkpt>
      <trkpt lat="47.09347" lon="6.71806">
        <ele>917.2</ele>
        <time>2021-08-12T15:50:11Z</time>
      </trkpt>
      <trkpt lat="47.09347" lon="6.71805">
        <ele>917.3</ele>
        <time>2021-08-12T15:50:12Z</time>
      </trkpt>
      <trkpt lat="47.09348" lon="6.71803">
        <ele>917.4</ele>
        <time>2021-08-12T15:50:13Z</time>
      </trkpt>
      <trkpt lat="47.09347" lon="6.718">
        <ele>917.5</ele>
        <time>2021-08-12T15:50:15Z</time>
      </trkpt>
      <trkpt lat="47.09346" lon="6.71794">
        <ele>917.8</ele>
        <time>2021-08-12T15:50:16Z</time>
      </trkpt>
      <trkpt lat="47.09347" lon="6.71788">
        <ele>918.1</ele>
        <time>2021-08-12T15:50:18Z</time>
      </trkpt>
      <trkpt lat="47.09348" lon="6.71786">
        <ele>918.2</ele>
        <time>2021-08-12T15:50:19Z</time>
      </trkpt>
      <trkpt lat="47.09348" lon="6.71783">
        <ele>918.3</ele>
        <time>2021-08-12T15:50:21Z</time>
      </trkpt>
      <trkpt lat="47.09348" lon="6.71782">
        <ele>918.4</ele>
        <time>2021-08-12T15:50:22Z</time>
      </trkpt>
      <trkpt lat="47.09347" lon="6.71777">
        <ele>918.6</ele>
        <time>2021-08-12T15:50:23Z</time>
      </trkpt>
      <trkpt lat="47.09344" lon="6.71773">
        <ele>918.8</ele>
        <time>2021-08-12T15:50:25Z</time>
      </trkpt>
      <trkpt lat="47.09344" lon="6.71772">
        <ele>918.9</ele>
        <time>2021-08-12T15:50:26Z</time>
      </trkpt>
      <trkpt lat="47.09342" lon="6.71769">
        <ele>919</ele>
        <time>2021-08-12T15:50:27Z</time>
      </trkpt>
      <trkpt lat="47.09339" lon="6.71765">
        <ele>919.2</ele>
        <time>2021-08-12T15:50:28Z</time>
      </trkpt>
      <trkpt lat="47.09338" lon="6.71763">
        <ele>919.3</ele>
        <time>2021-08-12T15:50:29Z</time>
      </trkpt>
      <trkpt lat="47.09335" lon="6.71759">
        <ele>919.5</ele>
        <time>2021-08-12T15:50:30Z</time>
      </trkpt>
      <trkpt lat="47.09334" lon="6.71758">
        <ele>919.6</ele>
        <time>2021-08-12T15:50:31Z</time>
      </trkpt>
      <trkpt lat="47.09332" lon="6.71754">
        <ele>919.8</ele>
        <time>2021-08-12T15:50:33Z</time>
      </trkpt>
      <trkpt lat="47.0933" lon="6.71749">
        <ele>919.9</ele>
        <time>2021-08-12T15:50:34Z</time>
      </trkpt>
      <trkpt lat="47.09328" lon="6.71745">
        <ele>920.1</ele>
        <time>2021-08-12T15:50:36Z</time>
      </trkpt>
      <trkpt lat="47.09326" lon="6.71743">
        <ele>920.2</ele>
        <time>2021-08-12T15:50:37Z</time>
      </trkpt>
      <trkpt lat="47.09324" lon="6.71738">
        <ele>920.3</ele>
        <time>2021-08-12T15:50:39Z</time>
      </trkpt>
      <trkpt lat="47.0932" lon="6.71732">
        <ele>920.5</ele>
        <time>2021-08-12T15:50:40Z</time>
      </trkpt>
      <trkpt lat="47.09317" lon="6.71726">
        <ele>920.7</ele>
        <time>2021-08-12T15:50:42Z</time>
      </trkpt>
      <trkpt lat="47.09317" lon="6.71722">
        <ele>920.8</ele>
        <time>2021-08-12T15:50:44Z</time>
      </trkpt>
      <trkpt lat="47.09316" lon="6.71721">
        <ele>920.8</ele>
        <time>2021-08-12T15:50:46Z</time>
      </trkpt>
      <trkpt lat="47.09315" lon="6.71719">
        <ele>920.9</ele>
        <time>2021-08-12T15:50:47Z</time>
      </trkpt>
      <trkpt lat="47.09314" lon="6.71715">
        <ele>921</ele>
        <time>2021-08-12T15:50:49Z</time>
      </trkpt>
      <trkpt lat="47.09313" lon="6.7171">
        <ele>921.1</ele>
        <time>2021-08-12T15:50:50Z</time>
      </trkpt>
      <trkpt lat="47.09312" lon="6.71709">
        <ele>921.2</ele>
        <time>2021-08-12T15:50:51Z</time>
      </trkpt>
      <trkpt lat="47.09312" lon="6.71704">
        <ele>921.3</ele>
        <time>2021-08-12T15:50:53Z</time>
      </trkpt>
      <trkpt lat="47.09313" lon="6.71697">
        <ele>921.5</ele>
        <time>2021-08-12T15:50:55Z</time>
      </trkpt>
      <trkpt lat="47.09313" lon="6.71692">
        <ele>921.6</ele>
        <time>2021-08-12T15:50:56Z</time>
      </trkpt>
      <trkpt lat="47.09313" lon="6.71684">
        <ele>921.9</ele>
        <time>2021-08-12T15:50:58Z</time>
      </trkpt>
      <trkpt lat="47.09314" lon="6.7168">
        <ele>922</ele>
        <time>2021-08-12T15:51:00Z</time>
      </trkpt>
      <trkpt lat="47.09314" lon="6.71677">
        <ele>922.1</ele>
        <time>2021-08-12T15:51:02Z</time>
      </trkpt>
      <trkpt lat="47.09312" lon="6.71675">
        <ele>922.2</ele>
        <time>2021-08-12T15:51:03Z</time>
      </trkpt>
      <trkpt lat="47.09309" lon="6.71672">
        <ele>922.4</ele>
        <time>2021-08-12T15:51:05Z</time>
      </trkpt>
      <trkpt lat="47.09308" lon="6.71669">
        <ele>922.6</ele>
        <time>2021-08-12T15:51:06Z</time>
      </trkpt>
      <trkpt lat="47.09307" lon="6.71664">
        <ele>922.8</ele>
        <time>2021-08-12T15:51:08Z</time>
      </trkpt>
      <trkpt lat="47.09306" lon="6.7166">
        <ele>923</ele>
        <time>2021-08-12T15:51:09Z</time>
      </trkpt>
      <trkpt lat="47.09304" lon="6.71655">
        <ele>923.2</ele>
        <time>2021-08-12T15:51:11Z</time>
      </trkpt>
      <trkpt lat="47.09303" lon="6.7165">
        <ele>923.4</ele>
        <time>2021-08-12T15:51:12Z</time>
      </trkpt>
      <trkpt lat="47.09303" lon="6.71645">
        <ele>923.6</ele>
        <time>2021-08-12T15:51:14Z</time>
      </trkpt>
      <trkpt lat="47.09303" lon="6.71643">
        <ele>923.7</ele>
        <time>2021-08-12T15:51:15Z</time>
      </trkpt>
      <trkpt lat="47.09303" lon="6.71638">
        <ele>923.9</ele>
        <time>2021-08-12T15:51:17Z</time>
      </trkpt>
      <trkpt lat="47.09303" lon="6.71636">
        <ele>924</ele>
        <time>2021-08-12T15:51:18Z</time>
      </trkpt>
      <trkpt lat="47.09302" lon="6.71632">
        <ele>924.2</ele>
        <time>2021-08-12T15:51:20Z</time>
      </trkpt>
      <trkpt lat="47.09301" lon="6.71628">
        <ele>924.4</ele>
        <time>2021-08-12T15:51:22Z</time>
      </trkpt>
      <trkpt lat="47.09301" lon="6.71625">
        <ele>924.5</ele>
        <time>2021-08-12T15:51:23Z</time>
      </trkpt>
      <trkpt lat="47.093" lon="6.71619">
        <ele>924.8</ele>
        <time>2021-08-12T15:51:25Z</time>
      </trkpt>
      <trkpt lat="47.09299" lon="6.71611">
        <ele>925.1</ele>
        <time>2021-08-12T15:51:26Z</time>
      </trkpt>
      <trkpt lat="47.09298" lon="6.71604">
        <ele>925.4</ele>
        <time>2021-08-12T15:51:28Z</time>
      </trkpt>
      <trkpt lat="47.09297" lon="6.71598">
        <ele>925.7</ele>
        <time>2021-08-12T15:51:30Z</time>
      </trkpt>
      <trkpt lat="47.09296" lon="6.71592">
        <ele>926</ele>
        <time>2021-08-12T15:51:32Z</time>
      </trkpt>
      <trkpt lat="47.09295" lon="6.7159">
        <ele>926.1</ele>
        <time>2021-08-12T15:51:33Z</time>
      </trkpt>
      <trkpt lat="47.09295" lon="6.71588">
        <ele>926.2</ele>
        <time>2021-08-12T15:51:34Z</time>
      </trkpt>
      <trkpt lat="47.09294" lon="6.71586">
        <ele>926.3</ele>
        <time>2021-08-12T15:51:35Z</time>
      </trkpt>
      <trkpt lat="47.09293" lon="6.71584">
        <ele>926.4</ele>
        <time>2021-08-12T15:51:36Z</time>
      </trkpt>
      <trkpt lat="47.09292" lon="6.71582">
        <ele>926.5</ele>
        <time>2021-08-12T15:51:38Z</time>
      </trkpt>
      <trkpt lat="47.09292" lon="6.71579">
        <ele>926.6</ele>
        <time>2021-08-12T15:51:39Z</time>
      </trkpt>
      <trkpt lat="47.09291" lon="6.71577">
        <ele>926.7</ele>
        <time>2021-08-12T15:51:40Z</time>
      </trkpt>
      <trkpt lat="47.0929" lon="6.71573">
        <ele>926.8</ele>
        <time>2021-08-12T15:51:42Z</time>
      </trkpt>
      <trkpt lat="47.09288" lon="6.71569">
        <ele>927</ele>
        <time>2021-08-12T15:51:43Z</time>
      </trkpt>
      <trkpt lat="47.09284" lon="6.71565">
        <ele>927.3</ele>
        <time>2021-08-12T15:51:45Z</time>
      </trkpt>
      <trkpt lat="47.09281" lon="6.71561">
        <ele>927.4</ele>
        <time>2021-08-12T15:51:47Z</time>
      </trkpt>
      <trkpt lat="47.09278" lon="6.71557">
        <ele>927.6</ele>
        <time>2021-08-12T15:51:48Z</time>
      </trkpt>
      <trkpt lat="47.09276" lon="6.71553">
        <ele>927.8</ele>
        <time>2021-08-12T15:51:50Z</time>
      </trkpt>
      <trkpt lat="47.09274" lon="6.71549">
        <ele>928</ele>
        <time>2021-08-12T15:51:51Z</time>
      </trkpt>
      <trkpt lat="47.09273" lon="6.71543">
        <ele>928.2</ele>
        <time>2021-08-12T15:51:53Z</time>
      </trkpt>
      <trkpt lat="47.09273" lon="6.71541">
        <ele>928.2</ele>
        <time>2021-08-12T15:51:54Z</time>
      </trkpt>
      <trkpt lat="47.09271" lon="6.71537">
        <ele>928.4</ele>
        <time>2021-08-12T15:51:56Z</time>
      </trkpt>
      <trkpt lat="47.09269" lon="6.71532">
        <ele>928.5</ele>
        <time>2021-08-12T15:51:57Z</time>
      </trkpt>
      <trkpt lat="47.09268" lon="6.71526">
        <ele>928.7</ele>
        <time>2021-08-12T15:51:59Z</time>
      </trkpt>
      <trkpt lat="47.09267" lon="6.71522">
        <ele>928.9</ele>
        <time>2021-08-12T15:52:00Z</time>
      </trkpt>
      <trkpt lat="47.09266" lon="6.71518">
        <ele>929</ele>
        <time>2021-08-12T15:52:01Z</time>
      </trkpt>
      <trkpt lat="47.09266" lon="6.71515">
        <ele>929.1</ele>
        <time>2021-08-12T15:52:02Z</time>
      </trkpt>
      <trkpt lat="47.09265" lon="6.7151">
        <ele>929.3</ele>
        <time>2021-08-12T15:52:04Z</time>
      </trkpt>
      <trkpt lat="47.09263" lon="6.71506">
        <ele>929.4</ele>
        <time>2021-08-12T15:52:05Z</time>
      </trkpt>
      <trkpt lat="47.09263" lon="6.71502">
        <ele>929.6</ele>
        <time>2021-08-12T15:52:07Z</time>
      </trkpt>
      <trkpt lat="47.09264" lon="6.71502">
        <ele>929.6</ele>
        <time>2021-08-12T15:52:08Z</time>
      </trkpt>
      <trkpt lat="47.09265" lon="6.71499">
        <ele>929.7</ele>
        <time>2021-08-12T15:52:10Z</time>
      </trkpt>
      <trkpt lat="47.09265" lon="6.71495">
        <ele>929.9</ele>
        <time>2021-08-12T15:52:12Z</time>
      </trkpt>
      <trkpt lat="47.09266" lon="6.71494">
        <ele>929.9</ele>
        <time>2021-08-12T15:52:13Z</time>
      </trkpt>
      <trkpt lat="47.09268" lon="6.71492">
        <ele>930.1</ele>
        <time>2021-08-12T15:52:15Z</time>
      </trkpt>
      <trkpt lat="47.09268" lon="6.7149">
        <ele>930.1</ele>
        <time>2021-08-12T15:52:16Z</time>
      </trkpt>
      <trkpt lat="47.09269" lon="6.71487">
        <ele>930.2</ele>
        <time>2021-08-12T15:52:17Z</time>
      </trkpt>
      <trkpt lat="47.09269" lon="6.71481">
        <ele>930.5</ele>
        <time>2021-08-12T15:52:19Z</time>
      </trkpt>
      <trkpt lat="47.09269" lon="6.71476">
        <ele>930.7</ele>
        <time>2021-08-12T15:52:21Z</time>
      </trkpt>
      <trkpt lat="47.0927" lon="6.71472">
        <ele>930.9</ele>
        <time>2021-08-12T15:52:22Z</time>
      </trkpt>
      <trkpt lat="47.09271" lon="6.71468">
        <ele>931.1</ele>
        <time>2021-08-12T15:52:23Z</time>
      </trkpt>
      <trkpt lat="47.09272" lon="6.71461">
        <ele>931.3</ele>
        <time>2021-08-12T15:52:25Z</time>
      </trkpt>
      <trkpt lat="47.09273" lon="6.71459">
        <ele>931.4</ele>
        <time>2021-08-12T15:52:26Z</time>
      </trkpt>
      <trkpt lat="47.09273" lon="6.71456">
        <ele>931.5</ele>
        <time>2021-08-12T15:52:27Z</time>
      </trkpt>
      <trkpt lat="47.09275" lon="6.71452">
        <ele>931.7</ele>
        <time>2021-08-12T15:52:29Z</time>
      </trkpt>
      <trkpt lat="47.09278" lon="6.71446">
        <ele>932</ele>
        <time>2021-08-12T15:52:31Z</time>
      </trkpt>
      <trkpt lat="47.09279" lon="6.71441">
        <ele>932.2</ele>
        <time>2021-08-12T15:52:32Z</time>
      </trkpt>
      <trkpt lat="47.09283" lon="6.7144">
        <ele>932.4</ele>
        <time>2021-08-12T15:52:34Z</time>
      </trkpt>
      <trkpt lat="47.09286" lon="6.71436">
        <ele>932.5</ele>
        <time>2021-08-12T15:52:36Z</time>
      </trkpt>
      <trkpt lat="47.09287" lon="6.71431">
        <ele>932.7</ele>
        <time>2021-08-12T15:52:37Z</time>
      </trkpt>
      <trkpt lat="47.09288" lon="6.71429">
        <ele>932.8</ele>
        <time>2021-08-12T15:52:38Z</time>
      </trkpt>
      <trkpt lat="47.09288" lon="6.71423">
        <ele>933</ele>
        <time>2021-08-12T15:52:39Z</time>
      </trkpt>
      <trkpt lat="47.09288" lon="6.71418">
        <ele>933.1</ele>
        <time>2021-08-12T15:52:41Z</time>
      </trkpt>
      <trkpt lat="47.0929" lon="6.71415">
        <ele>933.3</ele>
        <time>2021-08-12T15:52:42Z</time>
      </trkpt>
      <trkpt lat="47.09293" lon="6.71409">
        <ele>933.5</ele>
        <time>2021-08-12T15:52:43Z</time>
      </trkpt>
      <trkpt lat="47.09295" lon="6.71404">
        <ele>933.6</ele>
        <time>2021-08-12T15:52:44Z</time>
      </trkpt>
      <trkpt lat="47.09297" lon="6.71393">
        <ele>933.9</ele>
        <time>2021-08-12T15:52:46Z</time>
      </trkpt>
      <trkpt lat="47.093" lon="6.71381">
        <ele>934</ele>
        <time>2021-08-12T15:52:48Z</time>
      </trkpt>
      <trkpt lat="47.09303" lon="6.71371">
        <ele>933.9</ele>
        <time>2021-08-12T15:52:50Z</time>
      </trkpt>
      <trkpt lat="47.09303" lon="6.71367">
        <ele>933.9</ele>
        <time>2021-08-12T15:52:51Z</time>
      </trkpt>
      <trkpt lat="47.09301" lon="6.71362">
        <ele>933.8</ele>
        <time>2021-08-12T15:52:52Z</time>
      </trkpt>
      <trkpt lat="47.093" lon="6.7136">
        <ele>933.8</ele>
        <time>2021-08-12T15:52:53Z</time>
      </trkpt>
      <trkpt lat="47.09298" lon="6.71353">
        <ele>933.7</ele>
        <time>2021-08-12T15:52:55Z</time>
      </trkpt>
      <trkpt lat="47.09297" lon="6.7135">
        <ele>933.6</ele>
        <time>2021-08-12T15:52:56Z</time>
      </trkpt>
      <trkpt lat="47.09296" lon="6.71346">
        <ele>933.6</ele>
        <time>2021-08-12T15:52:57Z</time>
      </trkpt>
      <trkpt lat="47.09294" lon="6.7134">
        <ele>933.5</ele>
        <time>2021-08-12T15:52:59Z</time>
      </trkpt>
      <trkpt lat="47.09294" lon="6.71338">
        <ele>933.5</ele>
        <time>2021-08-12T15:53:01Z</time>
      </trkpt>
      <trkpt lat="47.09287" lon="6.71291">
        <ele>932.8</ele>
        <time>2021-08-12T15:53:06Z</time>
      </trkpt>
      <trkpt lat="47.09286" lon="6.71263">
        <ele>932.6</ele>
        <time>2021-08-12T15:53:08Z</time>
      </trkpt>
      <trkpt lat="47.09288" lon="6.71247">
        <ele>932.6</ele>
        <time>2021-08-12T15:53:10Z</time>
      </trkpt>
      <trkpt lat="47.09287" lon="6.71236">
        <ele>932.6</ele>
        <time>2021-08-12T15:53:11Z</time>
      </trkpt>
      <trkpt lat="47.09288" lon="6.71227">
        <ele>932.6</ele>
        <time>2021-08-12T15:53:13Z</time>
      </trkpt>
      <trkpt lat="47.09288" lon="6.71219">
        <ele>932.6</ele>
        <time>2021-08-12T15:53:14Z</time>
      </trkpt>
      <trkpt lat="47.09287" lon="6.71213">
        <ele>932.6</ele>
        <time>2021-08-12T15:53:15Z</time>
      </trkpt>
      <trkpt lat="47.09287" lon="6.71206">
        <ele>932.7</ele>
        <time>2021-08-12T15:53:17Z</time>
      </trkpt>
      <trkpt lat="47.09287" lon="6.71201">
        <ele>932.8</ele>
        <time>2021-08-12T15:53:18Z</time>
      </trkpt>
      <trkpt lat="47.09286" lon="6.71194">
        <ele>932.8</ele>
        <time>2021-08-12T15:53:20Z</time>
      </trkpt>
      <trkpt lat="47.09284" lon="6.71188">
        <ele>933</ele>
        <time>2021-08-12T15:53:22Z</time>
      </trkpt>
      <trkpt lat="47.09281" lon="6.71179">
        <ele>933.2</ele>
        <time>2021-08-12T15:53:24Z</time>
      </trkpt>
      <trkpt lat="47.0928" lon="6.71173">
        <ele>933.4</ele>
        <time>2021-08-12T15:53:25Z</time>
      </trkpt>
      <trkpt lat="47.0928" lon="6.71171">
        <ele>933.4</ele>
        <time>2021-08-12T15:53:26Z</time>
      </trkpt>
      <trkpt lat="47.09281" lon="6.71162">
        <ele>933.7</ele>
        <time>2021-08-12T15:53:28Z</time>
      </trkpt>
      <trkpt lat="47.09284" lon="6.71153">
        <ele>934.2</ele>
        <time>2021-08-12T15:53:30Z</time>
      </trkpt>
      <trkpt lat="47.09286" lon="6.71144">
        <ele>934.7</ele>
        <time>2021-08-12T15:53:32Z</time>
      </trkpt>
      <trkpt lat="47.09284" lon="6.71135">
        <ele>935.1</ele>
        <time>2021-08-12T15:53:33Z</time>
      </trkpt>
      <trkpt lat="47.09278" lon="6.71129">
        <ele>935.6</ele>
        <time>2021-08-12T15:53:35Z</time>
      </trkpt>
      <trkpt lat="47.09275" lon="6.71126">
        <ele>935.8</ele>
        <time>2021-08-12T15:53:37Z</time>
      </trkpt>
      <trkpt lat="47.09269" lon="6.71117">
        <ele>936.2</ele>
        <time>2021-08-12T15:53:38Z</time>
      </trkpt>
      <trkpt lat="47.09267" lon="6.71111">
        <ele>936.4</ele>
        <time>2021-08-12T15:53:40Z</time>
      </trkpt>
      <trkpt lat="47.09264" lon="6.71105">
        <ele>936.5</ele>
        <time>2021-08-12T15:53:41Z</time>
      </trkpt>
      <trkpt lat="47.09263" lon="6.71101">
        <ele>936.6</ele>
        <time>2021-08-12T15:53:42Z</time>
      </trkpt>
      <trkpt lat="47.09262" lon="6.71096">
        <ele>936.7</ele>
        <time>2021-08-12T15:53:44Z</time>
      </trkpt>
      <trkpt lat="47.0926" lon="6.71093">
        <ele>936.7</ele>
        <time>2021-08-12T15:53:45Z</time>
      </trkpt>
      <trkpt lat="47.09259" lon="6.71089">
        <ele>936.8</ele>
        <time>2021-08-12T15:53:46Z</time>
      </trkpt>
      <trkpt lat="47.09258" lon="6.71085">
        <ele>936.8</ele>
        <time>2021-08-12T15:53:47Z</time>
      </trkpt>
      <trkpt lat="47.09257" lon="6.71081">
        <ele>936.9</ele>
        <time>2021-08-12T15:53:49Z</time>
      </trkpt>
      <trkpt lat="47.09263" lon="6.71075">
        <ele>936.9</ele>
        <time>2021-08-12T15:53:50Z</time>
      </trkpt>
      <trkpt lat="47.09269" lon="6.71069">
        <ele>937</ele>
        <time>2021-08-12T15:53:51Z</time>
      </trkpt>
      <trkpt lat="47.09275" lon="6.71062">
        <ele>936.9</ele>
        <time>2021-08-12T15:53:52Z</time>
      </trkpt>
      <trkpt lat="47.09279" lon="6.71057">
        <ele>936.9</ele>
        <time>2021-08-12T15:53:54Z</time>
      </trkpt>
      <trkpt lat="47.0928" lon="6.71054">
        <ele>936.9</ele>
        <time>2021-08-12T15:53:56Z</time>
      </trkpt>
      <trkpt lat="47.09281" lon="6.71052">
        <ele>936.8</ele>
        <time>2021-08-12T15:53:57Z</time>
      </trkpt>
      <trkpt lat="47.09269" lon="6.70939">
        <ele>933.9</ele>
        <time>2021-08-12T15:54:09Z</time>
      </trkpt>
      <trkpt lat="47.09263" lon="6.70909">
        <ele>932.8</ele>
        <time>2021-08-12T15:54:11Z</time>
      </trkpt>
      <trkpt lat="47.09262" lon="6.70905">
        <ele>932.7</ele>
        <time>2021-08-12T15:54:12Z</time>
      </trkpt>
      <trkpt lat="47.09262" lon="6.70904">
        <ele>932.6</ele>
        <time>2021-08-12T15:54:13Z</time>
      </trkpt>
      <trkpt lat="47.09261" lon="6.70902">
        <ele>932.5</ele>
        <time>2021-08-12T15:54:14Z</time>
      </trkpt>
      <trkpt lat="47.0926" lon="6.70899">
        <ele>932.5</ele>
        <time>2021-08-12T15:54:16Z</time>
      </trkpt>
      <trkpt lat="47.0926" lon="6.70897">
        <ele>932.4</ele>
        <time>2021-08-12T15:54:17Z</time>
      </trkpt>
      <trkpt lat="47.09248" lon="6.70862">
        <ele>931.6</ele>
        <time>2021-08-12T15:54:19Z</time>
      </trkpt>
      <trkpt lat="47.09246" lon="6.70854">
        <ele>931.5</ele>
        <time>2021-08-12T15:54:20Z</time>
      </trkpt>
      <trkpt lat="47.09248" lon="6.70856">
        <ele>931.5</ele>
        <time>2021-08-12T15:54:21Z</time>
      </trkpt>
      <trkpt lat="47.09247" lon="6.70854">
        <ele>931.5</ele>
        <time>2021-08-12T15:54:23Z</time>
      </trkpt>
      <trkpt lat="47.09239" lon="6.70837">
        <ele>931.4</ele>
        <time>2021-08-12T15:54:25Z</time>
      </trkpt>
      <trkpt lat="47.09238" lon="6.70834">
        <ele>931.4</ele>
        <time>2021-08-12T15:54:26Z</time>
      </trkpt>
      <trkpt lat="47.09237" lon="6.70832">
        <ele>931.4</ele>
        <time>2021-08-12T15:54:28Z</time>
      </trkpt>
      <trkpt lat="47.09237" lon="6.70832">
        <ele>931.4</ele>
        <time>2021-08-12T15:54:29Z</time>
      </trkpt>
      <trkpt lat="47.09237" lon="6.70829">
        <ele>931.4</ele>
        <time>2021-08-12T15:54:30Z</time>
      </trkpt>
      <trkpt lat="47.09091" lon="6.70553">
        <ele>931</ele>
        <time>2021-08-12T15:54:59Z</time>
      </trkpt>
      <trkpt lat="47.09083" lon="6.70534">
        <ele>931.2</ele>
        <time>2021-08-12T15:55:00Z</time>
      </trkpt>
      <trkpt lat="47.09068" lon="6.70504">
        <ele>930.7</ele>
        <time>2021-08-12T15:55:02Z</time>
      </trkpt>
      <trkpt lat="47.0906" lon="6.70478">
        <ele>929.9</ele>
        <time>2021-08-12T15:55:04Z</time>
      </trkpt>
      <trkpt lat="47.09053" lon="6.70454">
        <ele>929.3</ele>
        <time>2021-08-12T15:55:06Z</time>
      </trkpt>
      <trkpt lat="47.09047" lon="6.7043">
        <ele>929</ele>
        <time>2021-08-12T15:55:08Z</time>
      </trkpt>
      <trkpt lat="47.09043" lon="6.70409">
        <ele>928.9</ele>
        <time>2021-08-12T15:55:10Z</time>
      </trkpt>
      <trkpt lat="47.0904" lon="6.704">
        <ele>928.9</ele>
        <time>2021-08-12T15:55:11Z</time>
      </trkpt>
      <trkpt lat="47.09033" lon="6.70381">
        <ele>928.8</ele>
        <time>2021-08-12T15:55:13Z</time>
      </trkpt>
      <trkpt lat="47.09026" lon="6.70364">
        <ele>928.7</ele>
        <time>2021-08-12T15:55:15Z</time>
      </trkpt>
      <trkpt lat="47.09022" lon="6.70357">
        <ele>928.6</ele>
        <time>2021-08-12T15:55:16Z</time>
      </trkpt>
      <trkpt lat="47.09016" lon="6.70349">
        <ele>928.5</ele>
        <time>2021-08-12T15:55:17Z</time>
      </trkpt>
      <trkpt lat="47.09011" lon="6.70341">
        <ele>928.4</ele>
        <time>2021-08-12T15:55:18Z</time>
      </trkpt>
      <trkpt lat="47.09006" lon="6.70332">
        <ele>928.3</ele>
        <time>2021-08-12T15:55:19Z</time>
      </trkpt>
      <trkpt lat="47.09002" lon="6.70323">
        <ele>928.2</ele>
        <time>2021-08-12T15:55:20Z</time>
      </trkpt>
      <trkpt lat="47.08995" lon="6.70308">
        <ele>928.2</ele>
        <time>2021-08-12T15:55:22Z</time>
      </trkpt>
      <trkpt lat="47.08987" lon="6.70294">
        <ele>928.3</ele>
        <time>2021-08-12T15:55:24Z</time>
      </trkpt>
      <trkpt lat="47.08977" lon="6.70278">
        <ele>928.6</ele>
        <time>2021-08-12T15:55:26Z</time>
      </trkpt>
      <trkpt lat="47.08968" lon="6.70265">
        <ele>928.9</ele>
        <time>2021-08-12T15:55:28Z</time>
      </trkpt>
      <trkpt lat="47.08964" lon="6.70258">
        <ele>929</ele>
        <time>2021-08-12T15:55:29Z</time>
      </trkpt>
      <trkpt lat="47.08962" lon="6.70251">
        <ele>929.1</ele>
        <time>2021-08-12T15:55:30Z</time>
      </trkpt>
      <trkpt lat="47.08958" lon="6.70238">
        <ele>929.4</ele>
        <time>2021-08-12T15:55:32Z</time>
      </trkpt>
      <trkpt lat="47.08956" lon="6.70226">
        <ele>929.6</ele>
        <time>2021-08-12T15:55:34Z</time>
      </trkpt>
      <trkpt lat="47.08955" lon="6.70219">
        <ele>929.7</ele>
        <time>2021-08-12T15:55:35Z</time>
      </trkpt>
      <trkpt lat="47.08948" lon="6.70202">
        <ele>930</ele>
        <time>2021-08-12T15:55:37Z</time>
      </trkpt>
      <trkpt lat="47.08945" lon="6.70195">
        <ele>930.2</ele>
        <time>2021-08-12T15:55:38Z</time>
      </trkpt>
      <trkpt lat="47.0894" lon="6.70181">
        <ele>930.5</ele>
        <time>2021-08-12T15:55:40Z</time>
      </trkpt>
      <trkpt lat="47.08935" lon="6.70168">
        <ele>930.7</ele>
        <time>2021-08-12T15:55:42Z</time>
      </trkpt>
      <trkpt lat="47.08933" lon="6.70162">
        <ele>930.8</ele>
        <time>2021-08-12T15:55:43Z</time>
      </trkpt>
      <trkpt lat="47.08932" lon="6.70156">
        <ele>930.9</ele>
        <time>2021-08-12T15:55:44Z</time>
      </trkpt>
      <trkpt lat="47.08932" lon="6.70146">
        <ele>931</ele>
        <time>2021-08-12T15:55:46Z</time>
      </trkpt>
      <trkpt lat="47.08935" lon="6.70145">
        <ele>931</ele>
        <time>2021-08-12T15:55:47Z</time>
      </trkpt>
      <trkpt lat="47.08935" lon="6.70135">
        <ele>931.1</ele>
        <time>2021-08-12T15:55:49Z</time>
      </trkpt>
      <trkpt lat="47.08933" lon="6.70128">
        <ele>931.1</ele>
        <time>2021-08-12T15:55:50Z</time>
      </trkpt>
      <trkpt lat="47.08931" lon="6.70118">
        <ele>931.1</ele>
        <time>2021-08-12T15:55:51Z</time>
      </trkpt>
      <trkpt lat="47.0893" lon="6.70105">
        <ele>931.2</ele>
        <time>2021-08-12T15:55:53Z</time>
      </trkpt>
      <trkpt lat="47.0893" lon="6.70098">
        <ele>931.3</ele>
        <time>2021-08-12T15:55:54Z</time>
      </trkpt>
      <trkpt lat="47.08929" lon="6.7009">
        <ele>931.3</ele>
        <time>2021-08-12T15:55:55Z</time>
      </trkpt>
      <trkpt lat="47.08927" lon="6.70084">
        <ele>931.4</ele>
        <time>2021-08-12T15:55:56Z</time>
      </trkpt>
      <trkpt lat="47.08923" lon="6.7007">
        <ele>931.6</ele>
        <time>2021-08-12T15:55:58Z</time>
      </trkpt>
      <trkpt lat="47.0892" lon="6.70061">
        <ele>931.6</ele>
        <time>2021-08-12T15:56:00Z</time>
      </trkpt>
      <trkpt lat="47.08915" lon="6.70057">
        <ele>931.7</ele>
        <time>2021-08-12T15:56:01Z</time>
      </trkpt>
      <trkpt lat="47.08913" lon="6.70051">
        <ele>931.7</ele>
        <time>2021-08-12T15:56:02Z</time>
      </trkpt>
      <trkpt lat="47.08907" lon="6.70043">
        <ele>931.7</ele>
        <time>2021-08-12T15:56:04Z</time>
      </trkpt>
      <trkpt lat="47.08904" lon="6.70036">
        <ele>931.6</ele>
        <time>2021-08-12T15:56:05Z</time>
      </trkpt>
      <trkpt lat="47.08897" lon="6.70025">
        <ele>931.4</ele>
        <time>2021-08-12T15:56:07Z</time>
      </trkpt>
      <trkpt lat="47.08893" lon="6.7002">
        <ele>931.3</ele>
        <time>2021-08-12T15:56:08Z</time>
      </trkpt>
      <trkpt lat="47.08883" lon="6.7001">
        <ele>930.9</ele>
        <time>2021-08-12T15:56:10Z</time>
      </trkpt>
      <trkpt lat="47.08874" lon="6.70004">
        <ele>930.5</ele>
        <time>2021-08-12T15:56:12Z</time>
      </trkpt>
      <trkpt lat="47.08862" lon="6.69996">
        <ele>930</ele>
        <time>2021-08-12T15:56:14Z</time>
      </trkpt>
      <trkpt lat="47.08848" lon="6.69986">
        <ele>929.3</ele>
        <time>2021-08-12T15:56:16Z</time>
      </trkpt>
      <trkpt lat="47.08837" lon="6.69975">
        <ele>928.9</ele>
        <time>2021-08-12T15:56:18Z</time>
      </trkpt>
      <trkpt lat="47.08827" lon="6.69962">
        <ele>928.5</ele>
        <time>2021-08-12T15:56:20Z</time>
      </trkpt>
      <trkpt lat="47.08821" lon="6.69948">
        <ele>928</ele>
        <time>2021-08-12T15:56:22Z</time>
      </trkpt>
      <trkpt lat="47.08817" lon="6.69934">
        <ele>927.4</ele>
        <time>2021-08-12T15:56:24Z</time>
      </trkpt>
      <trkpt lat="47.0881" lon="6.69919">
        <ele>926.7</ele>
        <time>2021-08-12T15:56:26Z</time>
      </trkpt>
      <trkpt lat="47.08799" lon="6.69902">
        <ele>925.7</ele>
        <time>2021-08-12T15:56:28Z</time>
      </trkpt>
      <trkpt lat="47.08794" lon="6.69894">
        <ele>925.3</ele>
        <time>2021-08-12T15:56:29Z</time>
      </trkpt>
      <trkpt lat="47.0878" lon="6.69878">
        <ele>924.4</ele>
        <time>2021-08-12T15:56:31Z</time>
      </trkpt>
      <trkpt lat="47.08771" lon="6.69869">
        <ele>924</ele>
        <time>2021-08-12T15:56:32Z</time>
      </trkpt>
      <trkpt lat="47.08743" lon="6.69855">
        <ele>922.5</ele>
        <time>2021-08-12T15:56:34Z</time>
      </trkpt>
      <trkpt lat="47.08733" lon="6.69848">
        <ele>921.9</ele>
        <time>2021-08-12T15:56:35Z</time>
      </trkpt>
      <trkpt lat="47.08724" lon="6.69841">
        <ele>921.3</ele>
        <time>2021-08-12T15:56:36Z</time>
      </trkpt>
      <trkpt lat="47.08709" lon="6.69829">
        <ele>920.2</ele>
        <time>2021-08-12T15:56:38Z</time>
      </trkpt>
      <trkpt lat="47.08697" lon="6.6982">
        <ele>919.5</ele>
        <time>2021-08-12T15:56:40Z</time>
      </trkpt>
      <trkpt lat="47.08684" lon="6.69813">
        <ele>918.6</ele>
        <time>2021-08-12T15:56:42Z</time>
      </trkpt>
      <trkpt lat="47.08669" lon="6.69807">
        <ele>918</ele>
        <time>2021-08-12T15:56:44Z</time>
      </trkpt>
      <trkpt lat="47.08654" lon="6.69804">
        <ele>917.6</ele>
        <time>2021-08-12T15:56:46Z</time>
      </trkpt>
      <trkpt lat="47.08646" lon="6.69802">
        <ele>917.4</ele>
        <time>2021-08-12T15:56:47Z</time>
      </trkpt>
      <trkpt lat="47.0863" lon="6.69798">
        <ele>917.2</ele>
        <time>2021-08-12T15:56:49Z</time>
      </trkpt>
      <trkpt lat="47.08622" lon="6.69794">
        <ele>917.1</ele>
        <time>2021-08-12T15:56:50Z</time>
      </trkpt>
      <trkpt lat="47.08602" lon="6.69784">
        <ele>916.8</ele>
        <time>2021-08-12T15:56:52Z</time>
      </trkpt>
      <trkpt lat="47.08591" lon="6.69778">
        <ele>916.8</ele>
        <time>2021-08-12T15:56:53Z</time>
      </trkpt>
      <trkpt lat="47.08573" lon="6.69766">
        <ele>917.2</ele>
        <time>2021-08-12T15:56:55Z</time>
      </trkpt>
      <trkpt lat="47.08566" lon="6.6976">
        <ele>917.3</ele>
        <time>2021-08-12T15:56:56Z</time>
      </trkpt>
      <trkpt lat="47.08556" lon="6.69745">
        <ele>917.3</ele>
        <time>2021-08-12T15:56:58Z</time>
      </trkpt>
      <trkpt lat="47.08551" lon="6.69738">
        <ele>917.3</ele>
        <time>2021-08-12T15:56:59Z</time>
      </trkpt>
      <trkpt lat="47.08549" lon="6.69728">
        <ele>917.2</ele>
        <time>2021-08-12T15:57:00Z</time>
      </trkpt>
      <trkpt lat="47.08545" lon="6.69721">
        <ele>917.2</ele>
        <time>2021-08-12T15:57:01Z</time>
      </trkpt>
      <trkpt lat="47.0854" lon="6.69715">
        <ele>917.1</ele>
        <time>2021-08-12T15:57:02Z</time>
      </trkpt>
      <trkpt lat="47.08526" lon="6.69704">
        <ele>916.5</ele>
        <time>2021-08-12T15:57:04Z</time>
      </trkpt>
      <trkpt lat="47.08512" lon="6.69692">
        <ele>915.9</ele>
        <time>2021-08-12T15:57:06Z</time>
      </trkpt>
      <trkpt lat="47.085" lon="6.69677">
        <ele>915.4</ele>
        <time>2021-08-12T15:57:08Z</time>
      </trkpt>
      <trkpt lat="47.08488" lon="6.69659">
        <ele>914.8</ele>
        <time>2021-08-12T15:57:10Z</time>
      </trkpt>
      <trkpt lat="47.08482" lon="6.6965">
        <ele>914.7</ele>
        <time>2021-08-12T15:57:11Z</time>
      </trkpt>
      <trkpt lat="47.08476" lon="6.69642">
        <ele>914.6</ele>
        <time>2021-08-12T15:57:12Z</time>
      </trkpt>
      <trkpt lat="47.08464" lon="6.69627">
        <ele>914.4</ele>
        <time>2021-08-12T15:57:14Z</time>
      </trkpt>
      <trkpt lat="47.08452" lon="6.69613">
        <ele>914.3</ele>
        <time>2021-08-12T15:57:16Z</time>
      </trkpt>
      <trkpt lat="47.08445" lon="6.69608">
        <ele>914.2</ele>
        <time>2021-08-12T15:57:17Z</time>
      </trkpt>
      <trkpt lat="47.08434" lon="6.69596">
        <ele>914</ele>
        <time>2021-08-12T15:57:19Z</time>
      </trkpt>
      <trkpt lat="47.08429" lon="6.6959">
        <ele>913.9</ele>
        <time>2021-08-12T15:57:20Z</time>
      </trkpt>
      <trkpt lat="47.0842" lon="6.69576">
        <ele>913.8</ele>
        <time>2021-08-12T15:57:22Z</time>
      </trkpt>
      <trkpt lat="47.08416" lon="6.6957">
        <ele>913.8</ele>
        <time>2021-08-12T15:57:23Z</time>
      </trkpt>
      <trkpt lat="47.08411" lon="6.69565">
        <ele>913.7</ele>
        <time>2021-08-12T15:57:24Z</time>
      </trkpt>
      <trkpt lat="47.08403" lon="6.69555">
        <ele>913.6</ele>
        <time>2021-08-12T15:57:26Z</time>
      </trkpt>
      <trkpt lat="47.08392" lon="6.69553">
        <ele>913.6</ele>
        <time>2021-08-12T15:57:28Z</time>
      </trkpt>
      <trkpt lat="47.08386" lon="6.69556">
        <ele>913.5</ele>
        <time>2021-08-12T15:57:29Z</time>
      </trkpt>
      <trkpt lat="47.08382" lon="6.69558">
        <ele>913.5</ele>
        <time>2021-08-12T15:57:30Z</time>
      </trkpt>
      <trkpt lat="47.08377" lon="6.6956">
        <ele>913.8</ele>
        <time>2021-08-12T15:57:32Z</time>
      </trkpt>
      <trkpt lat="47.08381" lon="6.69566">
        <ele>914.1</ele>
        <time>2021-08-12T15:57:34Z</time>
      </trkpt>
      <trkpt lat="47.08385" lon="6.69574">
        <ele>914.4</ele>
        <time>2021-08-12T15:57:35Z</time>
      </trkpt>
      <trkpt lat="47.08388" lon="6.69577">
        <ele>915</ele>
        <time>2021-08-12T15:57:36Z</time>
      </trkpt>
      <trkpt lat="47.08391" lon="6.69581">
        <ele>915.5</ele>
        <time>2021-08-12T15:57:38Z</time>
      </trkpt>
      <trkpt lat="47.08394" lon="6.69585">
        <ele>916</ele>
        <time>2021-08-12T15:57:39Z</time>
      </trkpt>
      <trkpt lat="47.084" lon="6.69594">
        <ele>916.6</ele>
        <time>2021-08-12T15:57:41Z</time>
      </trkpt>
      <trkpt lat="47.08403" lon="6.69599">
        <ele>917.1</ele>
        <time>2021-08-12T15:57:43Z</time>
      </trkpt>
      <trkpt lat="47.08353" lon="6.69729">
        <ele>910.5</ele>
        <time>2021-08-12T15:58:26Z</time>
      </trkpt>
      <trkpt lat="47.08347" lon="6.69741">
        <ele>910.1</ele>
        <time>2021-08-12T15:58:27Z</time>
      </trkpt>
      <trkpt lat="47.08338" lon="6.69758">
        <ele>909.7</ele>
        <time>2021-08-12T15:58:29Z</time>
      </trkpt>
      <trkpt lat="47.08321" lon="6.69772">
        <ele>909.4</ele>
        <time>2021-08-12T15:58:31Z</time>
      </trkpt>
      <trkpt lat="47.08309" lon="6.69781">
        <ele>909.5</ele>
        <time>2021-08-12T15:58:32Z</time>
      </trkpt>
      <trkpt lat="47.08291" lon="6.69796">
        <ele>909.8</ele>
        <time>2021-08-12T15:58:34Z</time>
      </trkpt>
      <trkpt lat="47.08283" lon="6.69802">
        <ele>910</ele>
        <time>2021-08-12T15:58:35Z</time>
      </trkpt>
      <trkpt lat="47.08274" lon="6.69805">
        <ele>910.2</ele>
        <time>2021-08-12T15:58:36Z</time>
      </trkpt>
      <trkpt lat="47.08265" lon="6.69807">
        <ele>910.5</ele>
        <time>2021-08-12T15:58:37Z</time>
      </trkpt>
      <trkpt lat="47.0826" lon="6.69809">
        <ele>910.6</ele>
        <time>2021-08-12T15:58:38Z</time>
      </trkpt>
      <trkpt lat="47.08257" lon="6.69808">
        <ele>910.8</ele>
        <time>2021-08-12T15:58:39Z</time>
      </trkpt>
      <trkpt lat="47.08251" lon="6.69809">
        <ele>911</ele>
        <time>2021-08-12T15:58:41Z</time>
      </trkpt>
      <trkpt lat="47.08248" lon="6.6981">
        <ele>911.1</ele>
        <time>2021-08-12T15:58:42Z</time>
      </trkpt>
      <trkpt lat="47.08246" lon="6.69811">
        <ele>911.2</ele>
        <time>2021-08-12T15:58:43Z</time>
      </trkpt>
      <trkpt lat="47.08244" lon="6.69811">
        <ele>911.3</ele>
        <time>2021-08-12T15:58:46Z</time>
      </trkpt>
      <trkpt lat="47.08244" lon="6.69811">
        <ele>911.3</ele>
        <time>2021-08-12T15:58:47Z</time>
      </trkpt>
      <trkpt lat="47.08124" lon="6.69788">
        <ele>920</ele>
        <time>2021-08-12T16:00:21Z</time>
      </trkpt>
      <trkpt lat="47.08123" lon="6.69784">
        <ele>920.2</ele>
        <time>2021-08-12T16:00:22Z</time>
      </trkpt>
      <trkpt lat="47.0812" lon="6.69775">
        <ele>920.7</ele>
        <time>2021-08-12T16:00:24Z</time>
      </trkpt>
      <trkpt lat="47.08112" lon="6.69767">
        <ele>921.5</ele>
        <time>2021-08-12T16:00:26Z</time>
      </trkpt>
      <trkpt lat="47.08106" lon="6.69765">
        <ele>922</ele>
        <time>2021-08-12T16:00:27Z</time>
      </trkpt>
      <trkpt lat="47.08103" lon="6.69764">
        <ele>922.2</ele>
        <time>2021-08-12T16:00:29Z</time>
      </trkpt>
      <trkpt lat="47.08102" lon="6.69765">
        <ele>922.4</ele>
        <time>2021-08-12T16:00:30Z</time>
      </trkpt>
      <trkpt lat="47.08101" lon="6.69765">
        <ele>922.4</ele>
        <time>2021-08-12T16:00:32Z</time>
      </trkpt>
      <trkpt lat="47.08101" lon="6.69765">
        <ele>922.5</ele>
        <time>2021-08-12T16:00:33Z</time>
      </trkpt>
      <trkpt lat="47.08101" lon="6.69765">
        <ele>922.5</ele>
        <time>2021-08-12T16:00:34Z</time>
      </trkpt>
      <trkpt lat="47.08091" lon="6.69758">
        <ele>923.4</ele>
        <time>2021-08-12T16:00:36Z</time>
      </trkpt>
      <trkpt lat="47.08082" lon="6.69753">
        <ele>924.2</ele>
        <time>2021-08-12T16:00:37Z</time>
      </trkpt>
      <trkpt lat="47.08074" lon="6.69747">
        <ele>925</ele>
        <time>2021-08-12T16:00:38Z</time>
      </trkpt>
      <trkpt lat="47.08065" lon="6.69741">
        <ele>925.5</ele>
        <time>2021-08-12T16:00:39Z</time>
      </trkpt>
      <trkpt lat="47.08056" lon="6.69735">
        <ele>926</ele>
        <time>2021-08-12T16:01:22Z</time>
      </trkpt>
      <trkpt lat="47.08047" lon="6.69729">
        <ele>926.4</ele>
        <time>2021-08-12T16:01:23Z</time>
      </trkpt>
      <trkpt lat="47.08043" lon="6.69727">
        <ele>926.5</ele>
        <time>2021-08-12T16:01:24Z</time>
      </trkpt>
      <trkpt lat="47.08039" lon="6.69727">
        <ele>926.5</ele>
        <time>2021-08-12T16:01:25Z</time>
      </trkpt>
      <trkpt lat="47.08035" lon="6.69732">
        <ele>926.6</ele>
        <time>2021-08-12T16:01:27Z</time>
      </trkpt>
      <trkpt lat="47.08032" lon="6.69735">
        <ele>926.7</ele>
        <time>2021-08-12T16:01:28Z</time>
      </trkpt>
      <trkpt lat="47.08029" lon="6.69737">
        <ele>926.8</ele>
        <time>2021-08-12T16:01:30Z</time>
      </trkpt>
      <trkpt lat="47.08028" lon="6.69738">
        <ele>926.8</ele>
        <time>2021-08-12T16:01:31Z</time>
      </trkpt>
      <trkpt lat="47.08024" lon="6.69739">
        <ele>926.8</ele>
        <time>2021-08-12T16:01:32Z</time>
      </trkpt>
      <trkpt lat="47.08019" lon="6.6974">
        <ele>926.9</ele>
        <time>2021-08-12T16:01:34Z</time>
      </trkpt>
      <trkpt lat="47.08015" lon="6.69742">
        <ele>926.9</ele>
        <time>2021-08-12T16:01:35Z</time>
      </trkpt>
      <trkpt lat="47.08007" lon="6.69745">
        <ele>926.9</ele>
        <time>2021-08-12T16:01:37Z</time>
      </trkpt>
      <trkpt lat="47.08002" lon="6.69746">
        <ele>926.9</ele>
        <time>2021-08-12T16:01:38Z</time>
      </trkpt>
      <trkpt lat="47.08" lon="6.69747">
        <ele>926.9</ele>
        <time>2021-08-12T16:01:40Z</time>
      </trkpt>
      <trkpt lat="47.07999" lon="6.69747">
        <ele>926.9</ele>
        <time>2021-08-12T16:01:41Z</time>
      </trkpt>
      <trkpt lat="47.07998" lon="6.69747">
        <ele>926.9</ele>
        <time>2021-08-12T16:01:42Z</time>
      </trkpt>
      <trkpt lat="47.07996" lon="6.69748">
        <ele>926.9</ele>
        <time>2021-08-12T16:01:43Z</time>
      </trkpt>
      <trkpt lat="47.07994" lon="6.6975">
        <ele>926.8</ele>
        <time>2021-08-12T16:01:45Z</time>
      </trkpt>
      <trkpt lat="47.0799" lon="6.69752">
        <ele>926.7</ele>
        <time>2021-08-12T16:01:46Z</time>
      </trkpt>
      <trkpt lat="47.07984" lon="6.69758">
        <ele>926.6</ele>
        <time>2021-08-12T16:01:47Z</time>
      </trkpt>
      <trkpt lat="47.0798" lon="6.69773">
        <ele>926.3</ele>
        <time>2021-08-12T16:01:49Z</time>
      </trkpt>
      <trkpt lat="47.07979" lon="6.69786">
        <ele>925.9</ele>
        <time>2021-08-12T16:01:50Z</time>
      </trkpt>
      <trkpt lat="47.07978" lon="6.69792">
        <ele>925.7</ele>
        <time>2021-08-12T16:01:52Z</time>
      </trkpt>
      <trkpt lat="47.07973" lon="6.69799">
        <ele>925.4</ele>
        <time>2021-08-12T16:01:53Z</time>
      </trkpt>
      <trkpt lat="47.07968" lon="6.69806">
        <ele>925</ele>
        <time>2021-08-12T16:01:54Z</time>
      </trkpt>
      <trkpt lat="47.07963" lon="6.6981">
        <ele>924.7</ele>
        <time>2021-08-12T16:01:55Z</time>
      </trkpt>
      <trkpt lat="47.07961" lon="6.6981">
        <ele>924.6</ele>
        <time>2021-08-12T16:01:57Z</time>
      </trkpt>
      <trkpt lat="47.07962" lon="6.6981">
        <ele>924.6</ele>
        <time>2021-08-12T16:01:58Z</time>
      </trkpt>
      <trkpt lat="47.07963" lon="6.6981">
        <ele>924.5</ele>
        <time>2021-08-12T16:02:00Z</time>
      </trkpt>
      <trkpt lat="47.07964" lon="6.69809">
        <ele>924.4</ele>
        <time>2021-08-12T16:02:02Z</time>
      </trkpt>
      <trkpt lat="47.07964" lon="6.69809">
        <ele>924.4</ele>
        <time>2021-08-12T16:02:04Z</time>
      </trkpt>
      <trkpt lat="47.07965" lon="6.6981">
        <ele>924.4</ele>
        <time>2021-08-12T16:02:06Z</time>
      </trkpt>
      <trkpt lat="47.07965" lon="6.6981">
        <ele>924.4</ele>
        <time>2021-08-12T16:02:07Z</time>
      </trkpt>
      <trkpt lat="47.07724" lon="6.69626">
        <ele>909.5</ele>
        <time>2021-08-12T16:03:30Z</time>
      </trkpt>
      <trkpt lat="47.07722" lon="6.69619">
        <ele>909.2</ele>
        <time>2021-08-12T16:03:32Z</time>
      </trkpt>
      <trkpt lat="47.07716" lon="6.69614">
        <ele>908.8</ele>
        <time>2021-08-12T16:03:33Z</time>
      </trkpt>
      <trkpt lat="47.07711" lon="6.6961">
        <ele>908.5</ele>
        <time>2021-08-12T16:03:35Z</time>
      </trkpt>
      <trkpt lat="47.07706" lon="6.69606">
        <ele>908.2</ele>
        <time>2021-08-12T16:03:36Z</time>
      </trkpt>
      <trkpt lat="47.07702" lon="6.69603">
        <ele>908</ele>
        <time>2021-08-12T16:03:38Z</time>
      </trkpt>
      <trkpt lat="47.077" lon="6.69599">
        <ele>907.8</ele>
        <time>2021-08-12T16:03:39Z</time>
      </trkpt>
      <trkpt lat="47.07698" lon="6.69594">
        <ele>907.6</ele>
        <time>2021-08-12T16:03:40Z</time>
      </trkpt>
      <trkpt lat="47.07698" lon="6.69588">
        <ele>907.4</ele>
        <time>2021-08-12T16:03:42Z</time>
      </trkpt>
      <trkpt lat="47.07698" lon="6.69582">
        <ele>907.2</ele>
        <time>2021-08-12T16:03:43Z</time>
      </trkpt>
      <trkpt lat="47.07698" lon="6.69575">
        <ele>907</ele>
        <time>2021-08-12T16:03:45Z</time>
      </trkpt>
      <trkpt lat="47.077" lon="6.69574">
        <ele>906.9</ele>
        <time>2021-08-12T16:03:46Z</time>
      </trkpt>
      <trkpt lat="47.077" lon="6.69575">
        <ele>906.9</ele>
        <time>2021-08-12T16:03:47Z</time>
      </trkpt>
      <trkpt lat="47.077" lon="6.69576">
        <ele>906.8</ele>
        <time>2021-08-12T16:03:49Z</time>
      </trkpt>
      <trkpt lat="47.077" lon="6.69577">
        <ele>906.8</ele>
        <time>2021-08-12T16:03:51Z</time>
      </trkpt>
      <trkpt lat="47.077" lon="6.69578">
        <ele>906.8</ele>
        <time>2021-08-12T16:03:52Z</time>
      </trkpt>
      <trkpt lat="47.077" lon="6.6958">
        <ele>906.7</ele>
        <time>2021-08-12T16:03:53Z</time>
      </trkpt>
      <trkpt lat="47.07702" lon="6.6959">
        <ele>906.4</ele>
        <time>2021-08-12T16:03:54Z</time>
      </trkpt>
      <trkpt lat="47.07704" lon="6.69593">
        <ele>906.2</ele>
        <time>2021-08-12T16:03:56Z</time>
      </trkpt>
      <trkpt lat="47.07705" lon="6.69587">
        <ele>906.1</ele>
        <time>2021-08-12T16:04:02Z</time>
      </trkpt>
      <trkpt lat="47.07706" lon="6.69581">
        <ele>905.9</ele>
        <time>2021-08-12T16:04:03Z</time>
      </trkpt>
      <trkpt lat="47.07707" lon="6.69577">
        <ele>905.8</ele>
        <time>2021-08-12T16:04:04Z</time>
      </trkpt>
      <trkpt lat="47.07706" lon="6.69571">
        <ele>905.3</ele>
        <time>2021-08-12T16:04:06Z</time>
      </trkpt>
      <trkpt lat="47.07705" lon="6.69566">
        <ele>905</ele>
        <time>2021-08-12T16:04:07Z</time>
      </trkpt>
      <trkpt lat="47.07704" lon="6.69564">
        <ele>904.9</ele>
        <time>2021-08-12T16:04:09Z</time>
      </trkpt>
      <trkpt lat="47.07703" lon="6.69561">
        <ele>904.8</ele>
        <time>2021-08-12T16:04:10Z</time>
      </trkpt>
      <trkpt lat="47.07701" lon="6.69559">
        <ele>904.6</ele>
        <time>2021-08-12T16:04:11Z</time>
      </trkpt>
      <trkpt lat="47.07698" lon="6.69557">
        <ele>904.3</ele>
        <time>2021-08-12T16:04:13Z</time>
      </trkpt>
      <trkpt lat="47.0769" lon="6.69551">
        <ele>903.7</ele>
        <time>2021-08-12T16:04:14Z</time>
      </trkpt>
      <trkpt lat="47.07681" lon="6.69543">
        <ele>902.8</ele>
        <time>2021-08-12T16:04:16Z</time>
      </trkpt>
      <trkpt lat="47.07678" lon="6.69542">
        <ele>902.5</ele>
        <time>2021-08-12T16:04:17Z</time>
      </trkpt>
      <trkpt lat="47.07674" lon="6.69542">
        <ele>902.1</ele>
        <time>2021-08-12T16:04:18Z</time>
      </trkpt>
      <trkpt lat="47.07664" lon="6.69531">
        <ele>901.1</ele>
        <time>2021-08-12T16:04:20Z</time>
      </trkpt>
      <trkpt lat="47.07663" lon="6.69525">
        <ele>900.7</ele>
        <time>2021-08-12T16:04:21Z</time>
      </trkpt>
      <trkpt lat="47.07659" lon="6.69518">
        <ele>900.3</ele>
        <time>2021-08-12T16:04:23Z</time>
      </trkpt>
      <trkpt lat="47.07659" lon="6.69511">
        <ele>899.9</ele>
        <time>2021-08-12T16:04:24Z</time>
      </trkpt>
      <trkpt lat="47.07658" lon="6.69498">
        <ele>899.2</ele>
        <time>2021-08-12T16:04:25Z</time>
      </trkpt>
      <trkpt lat="47.07646" lon="6.6949">
        <ele>898.3</ele>
        <time>2021-08-12T16:04:27Z</time>
      </trkpt>
      <trkpt lat="47.07642" lon="6.69486">
        <ele>898</ele>
        <time>2021-08-12T16:04:28Z</time>
      </trkpt>
      <trkpt lat="47.07637" lon="6.69482">
        <ele>897.6</ele>
        <time>2021-08-12T16:04:29Z</time>
      </trkpt>
      <trkpt lat="47.07627" lon="6.69477">
        <ele>897</ele>
        <time>2021-08-12T16:04:31Z</time>
      </trkpt>
      <trkpt lat="47.07621" lon="6.69475">
        <ele>896.6</ele>
        <time>2021-08-12T16:04:32Z</time>
      </trkpt>
      <trkpt lat="47.07617" lon="6.69473">
        <ele>896.3</ele>
        <time>2021-08-12T16:04:33Z</time>
      </trkpt>
      <trkpt lat="47.07614" lon="6.69471">
        <ele>896</ele>
        <time>2021-08-12T16:04:34Z</time>
      </trkpt>
      <trkpt lat="47.07611" lon="6.69472">
        <ele>895.9</ele>
        <time>2021-08-12T16:04:36Z</time>
      </trkpt>
      <trkpt lat="47.07609" lon="6.69472">
        <ele>895.7</ele>
        <time>2021-08-12T16:04:37Z</time>
      </trkpt>
      <trkpt lat="47.07602" lon="6.69466">
        <ele>895.1</ele>
        <time>2021-08-12T16:04:39Z</time>
      </trkpt>
      <trkpt lat="47.07596" lon="6.6946">
        <ele>894.4</ele>
        <time>2021-08-12T16:04:40Z</time>
      </trkpt>
      <trkpt lat="47.0759" lon="6.69454">
        <ele>893.6</ele>
        <time>2021-08-12T16:04:42Z</time>
      </trkpt>
      <trkpt lat="47.07584" lon="6.69448">
        <ele>892.8</ele>
        <time>2021-08-12T16:04:43Z</time>
      </trkpt>
      <trkpt lat="47.07578" lon="6.69442">
        <ele>892</ele>
        <time>2021-08-12T16:05:53Z</time>
      </trkpt>
      <trkpt lat="47.07572" lon="6.69435">
        <ele>891.1</ele>
        <time>2021-08-12T16:05:54Z</time>
      </trkpt>
      <trkpt lat="47.07558" lon="6.69422">
        <ele>889.4</ele>
        <time>2021-08-12T16:05:56Z</time>
      </trkpt>
      <trkpt lat="47.07551" lon="6.69414">
        <ele>888.7</ele>
        <time>2021-08-12T16:05:57Z</time>
      </trkpt>
      <trkpt lat="47.07535" lon="6.69398">
        <ele>887.3</ele>
        <time>2021-08-12T16:05:59Z</time>
      </trkpt>
      <trkpt lat="47.07517" lon="6.69384">
        <ele>885.4</ele>
        <time>2021-08-12T16:06:01Z</time>
      </trkpt>
      <trkpt lat="47.07508" lon="6.69376">
        <ele>884.4</ele>
        <time>2021-08-12T16:06:02Z</time>
      </trkpt>
      <trkpt lat="47.07487" lon="6.6936">
        <ele>881.9</ele>
        <time>2021-08-12T16:06:04Z</time>
      </trkpt>
      <trkpt lat="47.07464" lon="6.69341">
        <ele>879.1</ele>
        <time>2021-08-12T16:06:06Z</time>
      </trkpt>
      <trkpt lat="47.07452" lon="6.69333">
        <ele>877.8</ele>
        <time>2021-08-12T16:06:07Z</time>
      </trkpt>
      <trkpt lat="47.0744" lon="6.69326">
        <ele>876.4</ele>
        <time>2021-08-12T16:06:08Z</time>
      </trkpt>
      <trkpt lat="47.07417" lon="6.69308">
        <ele>873.9</ele>
        <time>2021-08-12T16:06:10Z</time>
      </trkpt>
      <trkpt lat="47.07406" lon="6.69297">
        <ele>872.8</ele>
        <time>2021-08-12T16:06:11Z</time>
      </trkpt>
      <trkpt lat="47.07382" lon="6.69278">
        <ele>870.1</ele>
        <time>2021-08-12T16:06:13Z</time>
      </trkpt>
      <trkpt lat="47.07369" lon="6.69268">
        <ele>868.7</ele>
        <time>2021-08-12T16:06:14Z</time>
      </trkpt>
      <trkpt lat="47.07356" lon="6.69258">
        <ele>867.3</ele>
        <time>2021-08-12T16:06:15Z</time>
      </trkpt>
      <trkpt lat="47.07332" lon="6.69235">
        <ele>864.3</ele>
        <time>2021-08-12T16:06:17Z</time>
      </trkpt>
      <trkpt lat="47.0732" lon="6.69224">
        <ele>862.9</ele>
        <time>2021-08-12T16:06:18Z</time>
      </trkpt>
      <trkpt lat="47.073" lon="6.6921">
        <ele>860.6</ele>
        <time>2021-08-12T16:06:20Z</time>
      </trkpt>
      <trkpt lat="47.07279" lon="6.69198">
        <ele>858.3</ele>
        <time>2021-08-12T16:06:22Z</time>
      </trkpt>
      <trkpt lat="47.07272" lon="6.69196">
        <ele>857.5</ele>
        <time>2021-08-12T16:06:23Z</time>
      </trkpt>
      <trkpt lat="47.07257" lon="6.69182">
        <ele>855.5</ele>
        <time>2021-08-12T16:06:25Z</time>
      </trkpt>
      <trkpt lat="47.07246" lon="6.69167">
        <ele>853.9</ele>
        <time>2021-08-12T16:06:26Z</time>
      </trkpt>
      <trkpt lat="47.07225" lon="6.69136">
        <ele>850.4</ele>
        <time>2021-08-12T16:06:28Z</time>
      </trkpt>
      <trkpt lat="47.07203" lon="6.69112">
        <ele>847.4</ele>
        <time>2021-08-12T16:06:30Z</time>
      </trkpt>
      <trkpt lat="47.07182" lon="6.69092">
        <ele>845.1</ele>
        <time>2021-08-12T16:06:32Z</time>
      </trkpt>
      <trkpt lat="47.07166" lon="6.69081">
        <ele>843.4</ele>
        <time>2021-08-12T16:06:34Z</time>
      </trkpt>
      <trkpt lat="47.07157" lon="6.69073">
        <ele>842.3</ele>
        <time>2021-08-12T16:06:35Z</time>
      </trkpt>
      <trkpt lat="47.07148" lon="6.69063">
        <ele>841.3</ele>
        <time>2021-08-12T16:06:36Z</time>
      </trkpt>
      <trkpt lat="47.07139" lon="6.69051">
        <ele>840.2</ele>
        <time>2021-08-12T16:06:37Z</time>
      </trkpt>
      <trkpt lat="47.07121" lon="6.69028">
        <ele>838.4</ele>
        <time>2021-08-12T16:06:39Z</time>
      </trkpt>
      <trkpt lat="47.07113" lon="6.69018">
        <ele>837.6</ele>
        <time>2021-08-12T16:06:40Z</time>
      </trkpt>
      <trkpt lat="47.07105" lon="6.69011">
        <ele>836.8</ele>
        <time>2021-08-12T16:06:41Z</time>
      </trkpt>
      <trkpt lat="47.07099" lon="6.69003">
        <ele>835.9</ele>
        <time>2021-08-12T16:06:42Z</time>
      </trkpt>
      <trkpt lat="47.07087" lon="6.6899">
        <ele>834.3</ele>
        <time>2021-08-12T16:06:44Z</time>
      </trkpt>
      <trkpt lat="47.07081" lon="6.68983">
        <ele>833.4</ele>
        <time>2021-08-12T16:06:45Z</time>
      </trkpt>
      <trkpt lat="47.07066" lon="6.68972">
        <ele>831.4</ele>
        <time>2021-08-12T16:06:47Z</time>
      </trkpt>
      <trkpt lat="47.07057" lon="6.68966">
        <ele>830.4</ele>
        <time>2021-08-12T16:06:48Z</time>
      </trkpt>
      <trkpt lat="47.07041" lon="6.68952">
        <ele>828.3</ele>
        <time>2021-08-12T16:06:50Z</time>
      </trkpt>
      <trkpt lat="47.07034" lon="6.68943">
        <ele>827.3</ele>
        <time>2021-08-12T16:06:51Z</time>
      </trkpt>
      <trkpt lat="47.07018" lon="6.68925">
        <ele>825.2</ele>
        <time>2021-08-12T16:06:53Z</time>
      </trkpt>
      <trkpt lat="47.07008" lon="6.68917">
        <ele>823.9</ele>
        <time>2021-08-12T16:06:54Z</time>
      </trkpt>
      <trkpt lat="47.06988" lon="6.68905">
        <ele>821.2</ele>
        <time>2021-08-12T16:06:56Z</time>
      </trkpt>
      <trkpt lat="47.06968" lon="6.68891">
        <ele>818.7</ele>
        <time>2021-08-12T16:06:58Z</time>
      </trkpt>
      <trkpt lat="47.06952" lon="6.68873">
        <ele>816.4</ele>
        <time>2021-08-12T16:07:00Z</time>
      </trkpt>
      <trkpt lat="47.06944" lon="6.68864">
        <ele>815.4</ele>
        <time>2021-08-12T16:07:01Z</time>
      </trkpt>
      <trkpt lat="47.06936" lon="6.68855">
        <ele>814.3</ele>
        <time>2021-08-12T16:07:02Z</time>
      </trkpt>
      <trkpt lat="47.06927" lon="6.68846">
        <ele>813.2</ele>
        <time>2021-08-12T16:07:03Z</time>
      </trkpt>
      <trkpt lat="47.06909" lon="6.68831">
        <ele>810.6</ele>
        <time>2021-08-12T16:07:05Z</time>
      </trkpt>
      <trkpt lat="47.06888" lon="6.68818">
        <ele>807.6</ele>
        <time>2021-08-12T16:07:07Z</time>
      </trkpt>
      <trkpt lat="47.06877" lon="6.68812">
        <ele>806.2</ele>
        <time>2021-08-12T16:07:08Z</time>
      </trkpt>
      <trkpt lat="47.06859" lon="6.68797">
        <ele>803.6</ele>
        <time>2021-08-12T16:07:10Z</time>
      </trkpt>
      <trkpt lat="47.06844" lon="6.68778">
        <ele>801.3</ele>
        <time>2021-08-12T16:07:12Z</time>
      </trkpt>
      <trkpt lat="47.0683" lon="6.68759">
        <ele>799.1</ele>
        <time>2021-08-12T16:07:14Z</time>
      </trkpt>
      <trkpt lat="47.06823" lon="6.6875">
        <ele>798</ele>
        <time>2021-08-12T16:07:15Z</time>
      </trkpt>
      <trkpt lat="47.06811" lon="6.68733">
        <ele>796</ele>
        <time>2021-08-12T16:07:17Z</time>
      </trkpt>
      <trkpt lat="47.06805" lon="6.68726">
        <ele>795.2</ele>
        <time>2021-08-12T16:07:18Z</time>
      </trkpt>
      <trkpt lat="47.06795" lon="6.68716">
        <ele>793.4</ele>
        <time>2021-08-12T16:07:20Z</time>
      </trkpt>
      <trkpt lat="47.0679" lon="6.68712">
        <ele>792.6</ele>
        <time>2021-08-12T16:07:21Z</time>
      </trkpt>
      <trkpt lat="47.06782" lon="6.68705">
        <ele>791.2</ele>
        <time>2021-08-12T16:07:23Z</time>
      </trkpt>
      <trkpt lat="47.06772" lon="6.68703">
        <ele>789.7</ele>
        <time>2021-08-12T16:07:25Z</time>
      </trkpt>
      <trkpt lat="47.06766" lon="6.68703">
        <ele>789.2</ele>
        <time>2021-08-12T16:07:26Z</time>
      </trkpt>
      <trkpt lat="47.06754" lon="6.68701">
        <ele>786.4</ele>
        <time>2021-08-12T16:07:28Z</time>
      </trkpt>
      <trkpt lat="47.06747" lon="6.68696">
        <ele>785.3</ele>
        <time>2021-08-12T16:07:29Z</time>
      </trkpt>
      <trkpt lat="47.0674" lon="6.68693">
        <ele>784.1</ele>
        <time>2021-08-12T16:07:30Z</time>
      </trkpt>
      <trkpt lat="47.06723" lon="6.68691">
        <ele>781.5</ele>
        <time>2021-08-12T16:07:32Z</time>
      </trkpt>
      <trkpt lat="47.06708" lon="6.68689">
        <ele>777.3</ele>
        <time>2021-08-12T16:07:34Z</time>
      </trkpt>
      <trkpt lat="47.06699" lon="6.6868">
        <ele>775.7</ele>
        <time>2021-08-12T16:07:36Z</time>
      </trkpt>
      <trkpt lat="47.06701" lon="6.68663">
        <ele>773.9</ele>
        <time>2021-08-12T16:07:38Z</time>
      </trkpt>
      <trkpt lat="47.067" lon="6.68642">
        <ele>772</ele>
        <time>2021-08-12T16:07:40Z</time>
      </trkpt>
      <trkpt lat="47.06698" lon="6.6863">
        <ele>771.2</ele>
        <time>2021-08-12T16:07:41Z</time>
      </trkpt>
      <trkpt lat="47.06697" lon="6.68618">
        <ele>770.4</ele>
        <time>2021-08-12T16:07:42Z</time>
      </trkpt>
      <trkpt lat="47.06697" lon="6.68595">
        <ele>769</ele>
        <time>2021-08-12T16:07:44Z</time>
      </trkpt>
      <trkpt lat="47.06697" lon="6.68585">
        <ele>768.3</ele>
        <time>2021-08-12T16:07:45Z</time>
      </trkpt>
      <trkpt lat="47.06695" lon="6.68566">
        <ele>767.3</ele>
        <time>2021-08-12T16:07:47Z</time>
      </trkpt>
      <trkpt lat="47.06692" lon="6.68551">
        <ele>766.6</ele>
        <time>2021-08-12T16:07:49Z</time>
      </trkpt>
      <trkpt lat="47.06686" lon="6.6855">
        <ele>766.2</ele>
        <time>2021-08-12T16:07:51Z</time>
      </trkpt>
      <trkpt lat="47.06675" lon="6.68547">
        <ele>765.4</ele>
        <time>2021-08-12T16:07:53Z</time>
      </trkpt>
      <trkpt lat="47.06658" lon="6.6855">
        <ele>764.2</ele>
        <time>2021-08-12T16:07:55Z</time>
      </trkpt>
      <trkpt lat="47.0665" lon="6.68551">
        <ele>763.5</ele>
        <time>2021-08-12T16:07:56Z</time>
      </trkpt>
      <trkpt lat="47.06647" lon="6.68551">
        <ele>763.2</ele>
        <time>2021-08-12T16:07:57Z</time>
      </trkpt>
      <trkpt lat="47.06645" lon="6.6855">
        <ele>763.1</ele>
        <time>2021-08-12T16:07:58Z</time>
      </trkpt>
      <trkpt lat="47.06604" lon="6.68529">
        <ele>759.7</ele>
        <time>2021-08-12T16:08:00Z</time>
      </trkpt>
      <trkpt lat="47.06592" lon="6.68518">
        <ele>759</ele>
        <time>2021-08-12T16:08:02Z</time>
      </trkpt>
      <trkpt lat="47.06574" lon="6.68492">
        <ele>758.5</ele>
        <time>2021-08-12T16:08:04Z</time>
      </trkpt>
      <trkpt lat="47.0656" lon="6.6847">
        <ele>758.5</ele>
        <time>2021-08-12T16:08:06Z</time>
      </trkpt>
      <trkpt lat="47.06547" lon="6.68452">
        <ele>758.4</ele>
        <time>2021-08-12T16:08:08Z</time>
      </trkpt>
      <trkpt lat="47.06541" lon="6.68446">
        <ele>758.3</ele>
        <time>2021-08-12T16:08:09Z</time>
      </trkpt>
      <trkpt lat="47.0653" lon="6.68434">
        <ele>758.3</ele>
        <time>2021-08-12T16:08:11Z</time>
      </trkpt>
      <trkpt lat="47.06525" lon="6.68428">
        <ele>758.3</ele>
        <time>2021-08-12T16:08:12Z</time>
      </trkpt>
      <trkpt lat="47.06519" lon="6.68411">
        <ele>758.3</ele>
        <time>2021-08-12T16:08:14Z</time>
      </trkpt>
      <trkpt lat="47.06517" lon="6.68403">
        <ele>758.3</ele>
        <time>2021-08-12T16:08:15Z</time>
      </trkpt>
      <trkpt lat="47.06511" lon="6.68387">
        <ele>758.3</ele>
        <time>2021-08-12T16:08:17Z</time>
      </trkpt>
      <trkpt lat="47.06508" lon="6.6838">
        <ele>758.3</ele>
        <time>2021-08-12T16:08:18Z</time>
      </trkpt>
      <trkpt lat="47.06506" lon="6.68372">
        <ele>758.3</ele>
        <time>2021-08-12T16:08:19Z</time>
      </trkpt>
      <trkpt lat="47.06504" lon="6.68364">
        <ele>758.3</ele>
        <time>2021-08-12T16:08:20Z</time>
      </trkpt>
      <trkpt lat="47.06502" lon="6.68346">
        <ele>758.3</ele>
        <time>2021-08-12T16:08:22Z</time>
      </trkpt>
      <trkpt lat="47.06501" lon="6.68336">
        <ele>758.3</ele>
        <time>2021-08-12T16:08:23Z</time>
      </trkpt>
      <trkpt lat="47.06499" lon="6.68327">
        <ele>758.3</ele>
        <time>2021-08-12T16:08:24Z</time>
      </trkpt>
      <trkpt lat="47.06495" lon="6.6831">
        <ele>758.3</ele>
        <time>2021-08-12T16:08:26Z</time>
      </trkpt>
      <trkpt lat="47.06492" lon="6.68294">
        <ele>758.3</ele>
        <time>2021-08-12T16:08:28Z</time>
      </trkpt>
      <trkpt lat="47.0649" lon="6.68286">
        <ele>758.3</ele>
        <time>2021-08-12T16:08:29Z</time>
      </trkpt>
      <trkpt lat="47.06488" lon="6.68278">
        <ele>758.3</ele>
        <time>2021-08-12T16:08:30Z</time>
      </trkpt>
      <trkpt lat="47.06486" lon="6.68269">
        <ele>758.3</ele>
        <time>2021-08-12T16:08:31Z</time>
      </trkpt>
      <trkpt lat="47.06485" lon="6.68262">
        <ele>758.3</ele>
        <time>2021-08-12T16:08:32Z</time>
      </trkpt>
      <trkpt lat="47.06483" lon="6.68247">
        <ele>758.3</ele>
        <time>2021-08-12T16:08:34Z</time>
      </trkpt>
      <trkpt lat="47.06483" lon="6.6824">
        <ele>758.4</ele>
        <time>2021-08-12T16:08:35Z</time>
      </trkpt>
      <trkpt lat="47.06482" lon="6.68233">
        <ele>758.4</ele>
        <time>2021-08-12T16:08:36Z</time>
      </trkpt>
      <trkpt lat="47.06479" lon="6.68219">
        <ele>758.4</ele>
        <time>2021-08-12T16:08:38Z</time>
      </trkpt>
      <trkpt lat="47.06477" lon="6.68206">
        <ele>758.4</ele>
        <time>2021-08-12T16:08:40Z</time>
      </trkpt>
      <trkpt lat="47.06475" lon="6.682">
        <ele>758.3</ele>
        <time>2021-08-12T16:08:41Z</time>
      </trkpt>
      <trkpt lat="47.06475" lon="6.68195">
        <ele>758.3</ele>
        <time>2021-08-12T16:08:42Z</time>
      </trkpt>
      <trkpt lat="47.06475" lon="6.68182">
        <ele>758.3</ele>
        <time>2021-08-12T16:08:44Z</time>
      </trkpt>
      <trkpt lat="47.06474" lon="6.68166">
        <ele>758.2</ele>
        <time>2021-08-12T16:08:46Z</time>
      </trkpt>
      <trkpt lat="47.06475" lon="6.6815">
        <ele>758.2</ele>
        <time>2021-08-12T16:08:48Z</time>
      </trkpt>
      <trkpt lat="47.06476" lon="6.68142">
        <ele>758.2</ele>
        <time>2021-08-12T16:08:49Z</time>
      </trkpt>
      <trkpt lat="47.06477" lon="6.68126">
        <ele>758.2</ele>
        <time>2021-08-12T16:08:51Z</time>
      </trkpt>
      <trkpt lat="47.06477" lon="6.68118">
        <ele>758.2</ele>
        <time>2021-08-12T16:08:52Z</time>
      </trkpt>
      <trkpt lat="47.06476" lon="6.6811">
        <ele>758.2</ele>
        <time>2021-08-12T16:08:53Z</time>
      </trkpt>
      <trkpt lat="47.06475" lon="6.68102">
        <ele>758.3</ele>
        <time>2021-08-12T16:08:54Z</time>
      </trkpt>
      <trkpt lat="47.06475" lon="6.68086">
        <ele>758.4</ele>
        <time>2021-08-12T16:08:56Z</time>
      </trkpt>
      <trkpt lat="47.06475" lon="6.6807">
        <ele>758.5</ele>
        <time>2021-08-12T16:08:58Z</time>
      </trkpt>
      <trkpt lat="47.06476" lon="6.68053">
        <ele>758.6</ele>
        <time>2021-08-12T16:09:00Z</time>
      </trkpt>
      <trkpt lat="47.06476" lon="6.68047">
        <ele>758.6</ele>
        <time>2021-08-12T16:09:01Z</time>
      </trkpt>
      <trkpt lat="47.06477" lon="6.68041">
        <ele>758.7</ele>
        <time>2021-08-12T16:09:02Z</time>
      </trkpt>
      <trkpt lat="47.06479" lon="6.68031">
        <ele>758.7</ele>
        <time>2021-08-12T16:09:04Z</time>
      </trkpt>
      <trkpt lat="47.0648" lon="6.68027">
        <ele>758.8</ele>
        <time>2021-08-12T16:09:05Z</time>
      </trkpt>
      <trkpt lat="47.06482" lon="6.68022">
        <ele>758.8</ele>
        <time>2021-08-12T16:09:06Z</time>
      </trkpt>
      <trkpt lat="47.06484" lon="6.6802">
        <ele>758.8</ele>
        <time>2021-08-12T16:09:07Z</time>
      </trkpt>
      <trkpt lat="47.06488" lon="6.68013">
        <ele>758.8</ele>
        <time>2021-08-12T16:09:09Z</time>
      </trkpt>
      <trkpt lat="47.06494" lon="6.68002">
        <ele>758.9</ele>
        <time>2021-08-12T16:09:11Z</time>
      </trkpt>
      <trkpt lat="47.06497" lon="6.68002">
        <ele>758.9</ele>
        <time>2021-08-12T16:09:12Z</time>
      </trkpt>
      <trkpt lat="47.06498" lon="6.68004">
        <ele>758.9</ele>
        <time>2021-08-12T16:09:13Z</time>
      </trkpt>
      <trkpt lat="47.06502" lon="6.67995">
        <ele>758.9</ele>
        <time>2021-08-12T16:09:14Z</time>
      </trkpt>
      <trkpt lat="47.06504" lon="6.67978">
        <ele>758.8</ele>
        <time>2021-08-12T16:09:16Z</time>
      </trkpt>
      <trkpt lat="47.06504" lon="6.67965">
        <ele>758.8</ele>
        <time>2021-08-12T16:09:18Z</time>
      </trkpt>
      <trkpt lat="47.06508" lon="6.67957">
        <ele>758.8</ele>
        <time>2021-08-12T16:09:19Z</time>
      </trkpt>
      <trkpt lat="47.06511" lon="6.67949">
        <ele>758.7</ele>
        <time>2021-08-12T16:09:20Z</time>
      </trkpt>
      <trkpt lat="47.06513" lon="6.67943">
        <ele>758.7</ele>
        <time>2021-08-12T16:09:21Z</time>
      </trkpt>
      <trkpt lat="47.06517" lon="6.67933">
        <ele>758.6</ele>
        <time>2021-08-12T16:09:22Z</time>
      </trkpt>
      <trkpt lat="47.0652" lon="6.67924">
        <ele>758.6</ele>
        <time>2021-08-12T16:09:24Z</time>
      </trkpt>
      <trkpt lat="47.06522" lon="6.67916">
        <ele>758.5</ele>
        <time>2021-08-12T16:09:25Z</time>
      </trkpt>
      <trkpt lat="47.06527" lon="6.67901">
        <ele>758.5</ele>
        <time>2021-08-12T16:09:27Z</time>
      </trkpt>
      <trkpt lat="47.06529" lon="6.67893">
        <ele>758.4</ele>
        <time>2021-08-12T16:09:28Z</time>
      </trkpt>
      <trkpt lat="47.06531" lon="6.67886">
        <ele>758.4</ele>
        <time>2021-08-12T16:09:29Z</time>
      </trkpt>
      <trkpt lat="47.06533" lon="6.67879">
        <ele>758.3</ele>
        <time>2021-08-12T16:09:30Z</time>
      </trkpt>
      <trkpt lat="47.06536" lon="6.67872">
        <ele>758.3</ele>
        <time>2021-08-12T16:09:31Z</time>
      </trkpt>
      <trkpt lat="47.06538" lon="6.67865">
        <ele>758.2</ele>
        <time>2021-08-12T16:09:32Z</time>
      </trkpt>
      <trkpt lat="47.06541" lon="6.67856">
        <ele>758.2</ele>
        <time>2021-08-12T16:09:33Z</time>
      </trkpt>
      <trkpt lat="47.06543" lon="6.67849">
        <ele>758.2</ele>
        <time>2021-08-12T16:09:35Z</time>
      </trkpt>
      <trkpt lat="47.06544" lon="6.67844">
        <ele>758.2</ele>
        <time>2021-08-12T16:09:36Z</time>
      </trkpt>
      <trkpt lat="47.0655" lon="6.67838">
        <ele>758.2</ele>
        <time>2021-08-12T16:09:37Z</time>
      </trkpt>
      <trkpt lat="47.06555" lon="6.67829">
        <ele>758.2</ele>
        <time>2021-08-12T16:09:39Z</time>
      </trkpt>
      <trkpt lat="47.06558" lon="6.67823">
        <ele>758.2</ele>
        <time>2021-08-12T16:09:40Z</time>
      </trkpt>
      <trkpt lat="47.06562" lon="6.67819">
        <ele>758.2</ele>
        <time>2021-08-12T16:09:41Z</time>
      </trkpt>
      <trkpt lat="47.06565" lon="6.67813">
        <ele>758.1</ele>
        <time>2021-08-12T16:09:42Z</time>
      </trkpt>
      <trkpt lat="47.06568" lon="6.67805">
        <ele>758.1</ele>
        <time>2021-08-12T16:09:44Z</time>
      </trkpt>
      <trkpt lat="47.0657" lon="6.67799">
        <ele>758.1</ele>
        <time>2021-08-12T16:09:45Z</time>
      </trkpt>
      <trkpt lat="47.06571" lon="6.67793">
        <ele>758.1</ele>
        <time>2021-08-12T16:09:46Z</time>
      </trkpt>
      <trkpt lat="47.06571" lon="6.67783">
        <ele>758.1</ele>
        <time>2021-08-12T16:09:47Z</time>
      </trkpt>
      <trkpt lat="47.06571" lon="6.67776">
        <ele>758.1</ele>
        <time>2021-08-12T16:09:48Z</time>
      </trkpt>
      <trkpt lat="47.06573" lon="6.67769">
        <ele>758.1</ele>
        <time>2021-08-12T16:09:49Z</time>
      </trkpt>
      <trkpt lat="47.06574" lon="6.67761">
        <ele>758.1</ele>
        <time>2021-08-12T16:09:51Z</time>
      </trkpt>
      <trkpt lat="47.06574" lon="6.67748">
        <ele>758.1</ele>
        <time>2021-08-12T16:09:53Z</time>
      </trkpt>
      <trkpt lat="47.06576" lon="6.67729">
        <ele>758.1</ele>
        <time>2021-08-12T16:09:55Z</time>
      </trkpt>
      <trkpt lat="47.06576" lon="6.67719">
        <ele>758.1</ele>
        <time>2021-08-12T16:09:56Z</time>
      </trkpt>
      <trkpt lat="47.06576" lon="6.67712">
        <ele>758.1</ele>
        <time>2021-08-12T16:09:57Z</time>
      </trkpt>
      <trkpt lat="47.06575" lon="6.677">
        <ele>758.1</ele>
        <time>2021-08-12T16:09:58Z</time>
      </trkpt>
      <trkpt lat="47.06573" lon="6.6769">
        <ele>758.1</ele>
        <time>2021-08-12T16:10:00Z</time>
      </trkpt>
      <trkpt lat="47.06574" lon="6.67685">
        <ele>758.1</ele>
        <time>2021-08-12T16:10:01Z</time>
      </trkpt>
      <trkpt lat="47.06573" lon="6.67676">
        <ele>758.1</ele>
        <time>2021-08-12T16:10:03Z</time>
      </trkpt>
      <trkpt lat="47.06567" lon="6.67669">
        <ele>758.2</ele>
        <time>2021-08-12T16:10:04Z</time>
      </trkpt>
      <trkpt lat="47.06564" lon="6.67661">
        <ele>758.2</ele>
        <time>2021-08-12T16:10:05Z</time>
      </trkpt>
      <trkpt lat="47.06562" lon="6.67654">
        <ele>758.2</ele>
        <time>2021-08-12T16:10:06Z</time>
      </trkpt>
      <trkpt lat="47.06562" lon="6.6765">
        <ele>758.2</ele>
        <time>2021-08-12T16:10:07Z</time>
      </trkpt>
      <trkpt lat="47.06561" lon="6.67651">
        <ele>758.2</ele>
        <time>2021-08-12T16:10:08Z</time>
      </trkpt>
      <trkpt lat="47.06561" lon="6.67637">
        <ele>758.2</ele>
        <time>2021-08-12T16:10:10Z</time>
      </trkpt>
      <trkpt lat="47.0656" lon="6.67631">
        <ele>758.2</ele>
        <time>2021-08-12T16:10:11Z</time>
      </trkpt>
      <trkpt lat="47.06558" lon="6.67623">
        <ele>758.2</ele>
        <time>2021-08-12T16:10:12Z</time>
      </trkpt>
      <trkpt lat="47.06557" lon="6.67617">
        <ele>758.2</ele>
        <time>2021-08-12T16:10:13Z</time>
      </trkpt>
      <trkpt lat="47.06552" lon="6.67601">
        <ele>758.1</ele>
        <time>2021-08-12T16:10:15Z</time>
      </trkpt>
      <trkpt lat="47.06548" lon="6.67594">
        <ele>758.1</ele>
        <time>2021-08-12T16:10:16Z</time>
      </trkpt>
      <trkpt lat="47.06545" lon="6.67588">
        <ele>758.1</ele>
        <time>2021-08-12T16:10:17Z</time>
      </trkpt>
      <trkpt lat="47.06538" lon="6.67575">
        <ele>758.1</ele>
        <time>2021-08-12T16:10:19Z</time>
      </trkpt>
      <trkpt lat="47.06532" lon="6.67561">
        <ele>758.1</ele>
        <time>2021-08-12T16:10:21Z</time>
      </trkpt>
      <trkpt lat="47.06528" lon="6.67555">
        <ele>758.1</ele>
        <time>2021-08-12T16:10:22Z</time>
      </trkpt>
      <trkpt lat="47.06524" lon="6.6755">
        <ele>758.2</ele>
        <time>2021-08-12T16:10:23Z</time>
      </trkpt>
      <trkpt lat="47.06521" lon="6.67545">
        <ele>758.2</ele>
        <time>2021-08-12T16:10:24Z</time>
      </trkpt>
      <trkpt lat="47.06517" lon="6.67534">
        <ele>758.3</ele>
        <time>2021-08-12T16:10:26Z</time>
      </trkpt>
      <trkpt lat="47.06515" lon="6.67529">
        <ele>758.3</ele>
        <time>2021-08-12T16:10:27Z</time>
      </trkpt>
      <trkpt lat="47.0651" lon="6.6752">
        <ele>758.3</ele>
        <time>2021-08-12T16:10:29Z</time>
      </trkpt>
      <trkpt lat="47.06505" lon="6.67511">
        <ele>758.4</ele>
        <time>2021-08-12T16:10:31Z</time>
      </trkpt>
      <trkpt lat="47.06503" lon="6.67507">
        <ele>758.4</ele>
        <time>2021-08-12T16:10:32Z</time>
      </trkpt>
      <trkpt lat="47.06501" lon="6.67503">
        <ele>758.4</ele>
        <time>2021-08-12T16:10:33Z</time>
      </trkpt>
      <trkpt lat="47.06498" lon="6.67499">
        <ele>758.4</ele>
        <time>2021-08-12T16:10:34Z</time>
      </trkpt>
      <trkpt lat="47.06495" lon="6.67494">
        <ele>758.4</ele>
        <time>2021-08-12T16:10:35Z</time>
      </trkpt>
      <trkpt lat="47.0649" lon="6.67485">
        <ele>758.4</ele>
        <time>2021-08-12T16:10:37Z</time>
      </trkpt>
      <trkpt lat="47.06488" lon="6.6748">
        <ele>758.5</ele>
        <time>2021-08-12T16:10:38Z</time>
      </trkpt>
      <trkpt lat="47.06483" lon="6.67475">
        <ele>758.5</ele>
        <time>2021-08-12T16:10:39Z</time>
      </trkpt>
      <trkpt lat="47.0648" lon="6.67472">
        <ele>758.5</ele>
        <time>2021-08-12T16:10:40Z</time>
      </trkpt>
      <trkpt lat="47.06478" lon="6.67467">
        <ele>758.5</ele>
        <time>2021-08-12T16:10:41Z</time>
      </trkpt>
      <trkpt lat="47.06475" lon="6.67463">
        <ele>758.5</ele>
        <time>2021-08-12T16:10:43Z</time>
      </trkpt>
      <trkpt lat="47.06473" lon="6.67459">
        <ele>758.4</ele>
        <time>2021-08-12T16:10:44Z</time>
      </trkpt>
      <trkpt lat="47.06469" lon="6.67456">
        <ele>758.4</ele>
        <time>2021-08-12T16:10:45Z</time>
      </trkpt>
      <trkpt lat="47.06464" lon="6.67451">
        <ele>758.4</ele>
        <time>2021-08-12T16:10:46Z</time>
      </trkpt>
      <trkpt lat="47.06459" lon="6.67445">
        <ele>758.4</ele>
        <time>2021-08-12T16:10:48Z</time>
      </trkpt>
      <trkpt lat="47.06449" lon="6.67438">
        <ele>758.3</ele>
        <time>2021-08-12T16:10:50Z</time>
      </trkpt>
      <trkpt lat="47.06445" lon="6.67434">
        <ele>758.3</ele>
        <time>2021-08-12T16:10:51Z</time>
      </trkpt>
      <trkpt lat="47.06441" lon="6.67431">
        <ele>758.3</ele>
        <time>2021-08-12T16:10:52Z</time>
      </trkpt>
      <trkpt lat="47.06433" lon="6.67422">
        <ele>758.2</ele>
        <time>2021-08-12T16:10:54Z</time>
      </trkpt>
      <trkpt lat="47.06423" lon="6.67416">
        <ele>758.2</ele>
        <time>2021-08-12T16:10:56Z</time>
      </trkpt>
      <trkpt lat="47.06416" lon="6.67409">
        <ele>758.1</ele>
        <time>2021-08-12T16:10:58Z</time>
      </trkpt>
      <trkpt lat="47.06413" lon="6.67405">
        <ele>758.1</ele>
        <time>2021-08-12T16:10:59Z</time>
      </trkpt>
      <trkpt lat="47.0641" lon="6.67402">
        <ele>758.1</ele>
        <time>2021-08-12T16:11:00Z</time>
      </trkpt>
      <trkpt lat="47.06407" lon="6.67397">
        <ele>758.1</ele>
        <time>2021-08-12T16:11:01Z</time>
      </trkpt>
      <trkpt lat="47.064" lon="6.6739">
        <ele>758</ele>
        <time>2021-08-12T16:11:02Z</time>
      </trkpt>
      <trkpt lat="47.06396" lon="6.67386">
        <ele>758</ele>
        <time>2021-08-12T16:11:04Z</time>
      </trkpt>
      <trkpt lat="47.06392" lon="6.67382">
        <ele>758</ele>
        <time>2021-08-12T16:11:05Z</time>
      </trkpt>
      <trkpt lat="47.06385" lon="6.67378">
        <ele>758.1</ele>
        <time>2021-08-12T16:11:06Z</time>
      </trkpt>
      <trkpt lat="47.06376" lon="6.67368">
        <ele>758.1</ele>
        <time>2021-08-12T16:11:08Z</time>
      </trkpt>
      <trkpt lat="47.0637" lon="6.67355">
        <ele>758.1</ele>
        <time>2021-08-12T16:11:10Z</time>
      </trkpt>
      <trkpt lat="47.06367" lon="6.6735">
        <ele>758.1</ele>
        <time>2021-08-12T16:11:11Z</time>
      </trkpt>
      <trkpt lat="47.06365" lon="6.67346">
        <ele>758.1</ele>
        <time>2021-08-12T16:11:12Z</time>
      </trkpt>
      <trkpt lat="47.0636" lon="6.67334">
        <ele>758.1</ele>
        <time>2021-08-12T16:11:14Z</time>
      </trkpt>
      <trkpt lat="47.06353" lon="6.67321">
        <ele>758</ele>
        <time>2021-08-12T16:11:16Z</time>
      </trkpt>
      <trkpt lat="47.0635" lon="6.67316">
        <ele>758</ele>
        <time>2021-08-12T16:11:17Z</time>
      </trkpt>
      <trkpt lat="47.06347" lon="6.67312">
        <ele>758</ele>
        <time>2021-08-12T16:11:18Z</time>
      </trkpt>
      <trkpt lat="47.06342" lon="6.67305">
        <ele>758</ele>
        <time>2021-08-12T16:11:19Z</time>
      </trkpt>
      <trkpt lat="47.06338" lon="6.67302">
        <ele>758</ele>
        <time>2021-08-12T16:11:20Z</time>
      </trkpt>
      <trkpt lat="47.06334" lon="6.67299">
        <ele>758.1</ele>
        <time>2021-08-12T16:11:22Z</time>
      </trkpt>
      <trkpt lat="47.06331" lon="6.67296">
        <ele>758.1</ele>
        <time>2021-08-12T16:11:23Z</time>
      </trkpt>
      <trkpt lat="47.06328" lon="6.67294">
        <ele>758.1</ele>
        <time>2021-08-12T16:11:24Z</time>
      </trkpt>
      <trkpt lat="47.06324" lon="6.67292">
        <ele>758.1</ele>
        <time>2021-08-12T16:11:25Z</time>
      </trkpt>
      <trkpt lat="47.0632" lon="6.67289">
        <ele>758.1</ele>
        <time>2021-08-12T16:11:26Z</time>
      </trkpt>
      <trkpt lat="47.06311" lon="6.67282">
        <ele>758.1</ele>
        <time>2021-08-12T16:11:28Z</time>
      </trkpt>
      <trkpt lat="47.06307" lon="6.67277">
        <ele>758.1</ele>
        <time>2021-08-12T16:11:29Z</time>
      </trkpt>
      <trkpt lat="47.06299" lon="6.67268">
        <ele>758.1</ele>
        <time>2021-08-12T16:11:31Z</time>
      </trkpt>
      <trkpt lat="47.06295" lon="6.67265">
        <ele>758.1</ele>
        <time>2021-08-12T16:11:32Z</time>
      </trkpt>
      <trkpt lat="47.0629" lon="6.67258">
        <ele>758</ele>
        <time>2021-08-12T16:11:34Z</time>
      </trkpt>
      <trkpt lat="47.06286" lon="6.6725">
        <ele>758</ele>
        <time>2021-08-12T16:11:35Z</time>
      </trkpt>
      <trkpt lat="47.06278" lon="6.67241">
        <ele>758</ele>
        <time>2021-08-12T16:11:37Z</time>
      </trkpt>
      <trkpt lat="47.06274" lon="6.67237">
        <ele>758</ele>
        <time>2021-08-12T16:11:38Z</time>
      </trkpt>
      <trkpt lat="47.06269" lon="6.67234">
        <ele>757.9</ele>
        <time>2021-08-12T16:11:39Z</time>
      </trkpt>
      <trkpt lat="47.06262" lon="6.67229">
        <ele>757.9</ele>
        <time>2021-08-12T16:11:40Z</time>
      </trkpt>
      <trkpt lat="47.06254" lon="6.67226">
        <ele>757.9</ele>
        <time>2021-08-12T16:11:42Z</time>
      </trkpt>
      <trkpt lat="47.06244" lon="6.67218">
        <ele>757.9</ele>
        <time>2021-08-12T16:11:44Z</time>
      </trkpt>
      <trkpt lat="47.06241" lon="6.6722">
        <ele>757.9</ele>
        <time>2021-08-12T16:11:45Z</time>
      </trkpt>
      <trkpt lat="47.06235" lon="6.67216">
        <ele>757.9</ele>
        <time>2021-08-12T16:11:46Z</time>
      </trkpt>
      <trkpt lat="47.06229" lon="6.6721">
        <ele>757.9</ele>
        <time>2021-08-12T16:11:48Z</time>
      </trkpt>
      <trkpt lat="47.06224" lon="6.67206">
        <ele>758</ele>
        <time>2021-08-12T16:11:49Z</time>
      </trkpt>
      <trkpt lat="47.06218" lon="6.67201">
        <ele>758.1</ele>
        <time>2021-08-12T16:11:50Z</time>
      </trkpt>
      <trkpt lat="47.06213" lon="6.67198">
        <ele>758.1</ele>
        <time>2021-08-12T16:11:51Z</time>
      </trkpt>
      <trkpt lat="47.06205" lon="6.67187">
        <ele>758.3</ele>
        <time>2021-08-12T16:11:53Z</time>
      </trkpt>
      <trkpt lat="47.06199" lon="6.67182">
        <ele>758.4</ele>
        <time>2021-08-12T16:11:54Z</time>
      </trkpt>
      <trkpt lat="47.06195" lon="6.67178">
        <ele>758.4</ele>
        <time>2021-08-12T16:11:55Z</time>
      </trkpt>
      <trkpt lat="47.0619" lon="6.67176">
        <ele>758.5</ele>
        <time>2021-08-12T16:11:56Z</time>
      </trkpt>
      <trkpt lat="47.06178" lon="6.67169">
        <ele>758.6</ele>
        <time>2021-08-12T16:11:58Z</time>
      </trkpt>
      <trkpt lat="47.06166" lon="6.67159">
        <ele>758.7</ele>
        <time>2021-08-12T16:12:00Z</time>
      </trkpt>
      <trkpt lat="47.06161" lon="6.67154">
        <ele>758.7</ele>
        <time>2021-08-12T16:12:01Z</time>
      </trkpt>
      <trkpt lat="47.06157" lon="6.6715">
        <ele>758.7</ele>
        <time>2021-08-12T16:12:02Z</time>
      </trkpt>
      <trkpt lat="47.06152" lon="6.67137">
        <ele>758.7</ele>
        <time>2021-08-12T16:12:04Z</time>
      </trkpt>
      <trkpt lat="47.06149" lon="6.67132">
        <ele>758.7</ele>
        <time>2021-08-12T16:12:05Z</time>
      </trkpt>
      <trkpt lat="47.06145" lon="6.67129">
        <ele>758.7</ele>
        <time>2021-08-12T16:12:06Z</time>
      </trkpt>
      <trkpt lat="47.06139" lon="6.67129">
        <ele>758.7</ele>
        <time>2021-08-12T16:12:07Z</time>
      </trkpt>
      <trkpt lat="47.06134" lon="6.67125">
        <ele>758.7</ele>
        <time>2021-08-12T16:12:09Z</time>
      </trkpt>
      <trkpt lat="47.0613" lon="6.67124">
        <ele>758.7</ele>
        <time>2021-08-12T16:12:10Z</time>
      </trkpt>
      <trkpt lat="47.06123" lon="6.6712">
        <ele>758.8</ele>
        <time>2021-08-12T16:12:12Z</time>
      </trkpt>
      <trkpt lat="47.06115" lon="6.67118">
        <ele>758.8</ele>
        <time>2021-08-12T16:12:14Z</time>
      </trkpt>
      <trkpt lat="47.06108" lon="6.67118">
        <ele>758.8</ele>
        <time>2021-08-12T16:12:15Z</time>
      </trkpt>
      <trkpt lat="47.06103" lon="6.67119">
        <ele>758.9</ele>
        <time>2021-08-12T16:12:16Z</time>
      </trkpt>
      <trkpt lat="47.06097" lon="6.67121">
        <ele>758.9</ele>
        <time>2021-08-12T16:12:18Z</time>
      </trkpt>
      <trkpt lat="47.06091" lon="6.67121">
        <ele>759</ele>
        <time>2021-08-12T16:12:19Z</time>
      </trkpt>
      <trkpt lat="47.06083" lon="6.67122">
        <ele>759</ele>
        <time>2021-08-12T16:12:21Z</time>
      </trkpt>
      <trkpt lat="47.0608" lon="6.67123">
        <ele>759</ele>
        <time>2021-08-12T16:12:22Z</time>
      </trkpt>
      <trkpt lat="47.06072" lon="6.67124">
        <ele>759.1</ele>
        <time>2021-08-12T16:12:24Z</time>
      </trkpt>
      <trkpt lat="47.06064" lon="6.67123">
        <ele>759.1</ele>
        <time>2021-08-12T16:12:25Z</time>
      </trkpt>
      <trkpt lat="47.06056" lon="6.67127">
        <ele>759.2</ele>
        <time>2021-08-12T16:12:27Z</time>
      </trkpt>
      <trkpt lat="47.06048" lon="6.67129">
        <ele>759.2</ele>
        <time>2021-08-12T16:12:28Z</time>
      </trkpt>
      <trkpt lat="47.06045" lon="6.67129">
        <ele>759.2</ele>
        <time>2021-08-12T16:12:29Z</time>
      </trkpt>
      <trkpt lat="47.06043" lon="6.6713">
        <ele>759.2</ele>
        <time>2021-08-12T16:12:31Z</time>
      </trkpt>
      <trkpt lat="47.06034" lon="6.67132">
        <ele>759.3</ele>
        <time>2021-08-12T16:12:33Z</time>
      </trkpt>
      <trkpt lat="47.0603" lon="6.67132">
        <ele>759.3</ele>
        <time>2021-08-12T16:12:34Z</time>
      </trkpt>
      <trkpt lat="47.06026" lon="6.67131">
        <ele>759.3</ele>
        <time>2021-08-12T16:12:35Z</time>
      </trkpt>
      <trkpt lat="47.06023" lon="6.67129">
        <ele>759.3</ele>
        <time>2021-08-12T16:12:36Z</time>
      </trkpt>
      <trkpt lat="47.06016" lon="6.67127">
        <ele>759.3</ele>
        <time>2021-08-12T16:12:38Z</time>
      </trkpt>
      <trkpt lat="47.06013" lon="6.67127">
        <ele>759.3</ele>
        <time>2021-08-12T16:12:39Z</time>
      </trkpt>
      <trkpt lat="47.06013" lon="6.67127">
        <ele>759.3</ele>
        <time>2021-08-12T16:12:41Z</time>
      </trkpt>
      <trkpt lat="47.06009" lon="6.67124">
        <ele>759.4</ele>
        <time>2021-08-12T16:12:43Z</time>
      </trkpt>
      <trkpt lat="47.06005" lon="6.67119">
        <ele>759.4</ele>
        <time>2021-08-12T16:12:44Z</time>
      </trkpt>
      <trkpt lat="47.06004" lon="6.67115">
        <ele>759.4</ele>
        <time>2021-08-12T16:12:45Z</time>
      </trkpt>
      <trkpt lat="47.06003" lon="6.67109">
        <ele>759.4</ele>
        <time>2021-08-12T16:12:47Z</time>
      </trkpt>
      <trkpt lat="47.06001" lon="6.67105">
        <ele>759.4</ele>
        <time>2021-08-12T16:12:48Z</time>
      </trkpt>
      <trkpt lat="47.05999" lon="6.67103">
        <ele>759.4</ele>
        <time>2021-08-12T16:12:50Z</time>
      </trkpt>
      <trkpt lat="47.05979" lon="6.6707">
        <ele>759.5</ele>
        <time>2021-08-12T16:13:01Z</time>
      </trkpt>
      <trkpt lat="47.05973" lon="6.67061">
        <ele>759.6</ele>
        <time>2021-08-12T16:13:03Z</time>
      </trkpt>
      <trkpt lat="47.05967" lon="6.67053">
        <ele>759.7</ele>
        <time>2021-08-12T16:13:04Z</time>
      </trkpt>
      <trkpt lat="47.05961" lon="6.67043">
        <ele>759.8</ele>
        <time>2021-08-12T16:13:05Z</time>
      </trkpt>
      <trkpt lat="47.05954" lon="6.67033">
        <ele>760</ele>
        <time>2021-08-12T16:13:07Z</time>
      </trkpt>
      <trkpt lat="47.05948" lon="6.67029">
        <ele>760.1</ele>
        <time>2021-08-12T16:13:08Z</time>
      </trkpt>
      <trkpt lat="47.05943" lon="6.67025">
        <ele>760.4</ele>
        <time>2021-08-12T16:13:10Z</time>
      </trkpt>
      <trkpt lat="47.05933" lon="6.67024">
        <ele>760.4</ele>
        <time>2021-08-12T16:13:11Z</time>
      </trkpt>
      <trkpt lat="47.05926" lon="6.67022">
        <ele>760.4</ele>
        <time>2021-08-12T16:13:13Z</time>
      </trkpt>
      <trkpt lat="47.05918" lon="6.67019">
        <ele>760.2</ele>
        <time>2021-08-12T16:13:15Z</time>
      </trkpt>
      <trkpt lat="47.05908" lon="6.67016">
        <ele>760</ele>
        <time>2021-08-12T16:13:16Z</time>
      </trkpt>
      <trkpt lat="47.05896" lon="6.67017">
        <ele>759.7</ele>
        <time>2021-08-12T16:13:19Z</time>
      </trkpt>
      <trkpt lat="47.05885" lon="6.67022">
        <ele>759.4</ele>
        <time>2021-08-12T16:13:21Z</time>
      </trkpt>
      <trkpt lat="47.05871" lon="6.67029">
        <ele>759.1</ele>
        <time>2021-08-12T16:13:22Z</time>
      </trkpt>
      <trkpt lat="47.05867" lon="6.67029">
        <ele>759</ele>
        <time>2021-08-12T16:13:23Z</time>
      </trkpt>
      <trkpt lat="47.05863" lon="6.6703">
        <ele>759</ele>
        <time>2021-08-12T16:13:25Z</time>
      </trkpt>
      <trkpt lat="47.05861" lon="6.67031">
        <ele>759</ele>
        <time>2021-08-12T16:13:26Z</time>
      </trkpt>
      <trkpt lat="47.05854" lon="6.67035">
        <ele>758.9</ele>
        <time>2021-08-12T16:13:28Z</time>
      </trkpt>
      <trkpt lat="47.05851" lon="6.67036">
        <ele>758.8</ele>
        <time>2021-08-12T16:13:29Z</time>
      </trkpt>
      <trkpt lat="47.05851" lon="6.67034">
        <ele>758.8</ele>
        <time>2021-08-12T16:13:30Z</time>
      </trkpt>
      <trkpt lat="47.05848" lon="6.6703">
        <ele>758.8</ele>
        <time>2021-08-12T16:13:32Z</time>
      </trkpt>
      <trkpt lat="47.05848" lon="6.67028">
        <ele>758.8</ele>
        <time>2021-08-12T16:13:34Z</time>
      </trkpt>
      <trkpt lat="47.05849" lon="6.67027">
        <ele>758.8</ele>
        <time>2021-08-12T16:13:35Z</time>
      </trkpt>
      <trkpt lat="47.05849" lon="6.67025">
        <ele>758.8</ele>
        <time>2021-08-12T16:13:37Z</time>
      </trkpt>
      <trkpt lat="47.05849" lon="6.67022">
        <ele>758.7</ele>
        <time>2021-08-12T16:13:39Z</time>
      </trkpt>
      <trkpt lat="47.05849" lon="6.6702">
        <ele>758.7</ele>
        <time>2021-08-12T16:14:47Z</time>
      </trkpt>
      <trkpt lat="47.05849" lon="6.67018">
        <ele>758.7</ele>
        <time>2021-08-12T16:14:53Z</time>
      </trkpt>
      <trkpt lat="47.05849" lon="6.67017">
        <ele>758.7</ele>
        <time>2021-08-12T16:15:00Z</time>
      </trkpt>
      <trkpt lat="47.05849" lon="6.67015">
        <ele>758.7</ele>
        <time>2021-08-12T16:15:06Z</time>
      </trkpt>
      <trkpt lat="47.0585" lon="6.67013">
        <ele>758.7</ele>
        <time>2021-08-12T16:15:12Z</time>
      </trkpt>
      <trkpt lat="47.0585" lon="6.67011">
        <ele>758.7</ele>
        <time>2021-08-12T16:15:12Z</time>
      </trkpt>
      <trkpt lat="47.05851" lon="6.67014">
        <ele>758.7</ele>
        <time>2021-08-12T16:15:19Z</time>
      </trkpt>
      <trkpt lat="47.05852" lon="6.67014">
        <ele>758.6</ele>
        <time>2021-08-12T16:15:25Z</time>
      </trkpt>
      <trkpt lat="47.05853" lon="6.67014">
        <ele>758.6</ele>
        <time>2021-08-12T16:15:31Z</time>
      </trkpt>
      <trkpt lat="47.05853" lon="6.67014">
        <ele>758.6</ele>
        <time>2021-08-12T16:15:38Z</time>
      </trkpt>
      <trkpt lat="47.05854" lon="6.67014">
        <ele>758.6</ele>
        <time>2021-08-12T16:15:38Z</time>
      </trkpt>
      <trkpt lat="47.05855" lon="6.67015">
        <ele>758.6</ele>
        <time>2021-08-12T16:15:44Z</time>
      </trkpt>
      <trkpt lat="47.05856" lon="6.67013">
        <ele>758.6</ele>
        <time>2021-08-12T16:15:45Z</time>
      </trkpt>
      <trkpt lat="47.05857" lon="6.67012">
        <ele>758.6</ele>
        <time>2021-08-12T16:15:46Z</time>
      </trkpt>
      <trkpt lat="47.05858" lon="6.67011">
        <ele>758.6</ele>
        <time>2021-08-12T16:15:51Z</time>
      </trkpt>
      <trkpt lat="47.05856" lon="6.67012">
        <ele>758.6</ele>
        <time>2021-08-12T16:15:57Z</time>
      </trkpt>
      <trkpt lat="47.05855" lon="6.67012">
        <ele>758.6</ele>
        <time>2021-08-12T16:16:01Z</time>
      </trkpt>
      <trkpt lat="47.0585" lon="6.6701">
        <ele>758.5</ele>
        <time>2021-08-12T16:16:27Z</time>
      </trkpt>
      <trkpt lat="47.05835" lon="6.67009">
        <ele>758.3</ele>
        <time>2021-08-12T16:16:29Z</time>
      </trkpt>
      <trkpt lat="47.05821" lon="6.67006">
        <ele>758.2</ele>
        <time>2021-08-12T16:16:31Z</time>
      </trkpt>
      <trkpt lat="47.05815" lon="6.67005">
        <ele>758.1</ele>
        <time>2021-08-12T16:16:32Z</time>
      </trkpt>
      <trkpt lat="47.05809" lon="6.67004">
        <ele>758.1</ele>
        <time>2021-08-12T16:16:33Z</time>
      </trkpt>
      <trkpt lat="47.05801" lon="6.67004">
        <ele>758</ele>
        <time>2021-08-12T16:16:35Z</time>
      </trkpt>
      <trkpt lat="47.05797" lon="6.67004">
        <ele>758</ele>
        <time>2021-08-12T16:16:36Z</time>
      </trkpt>
      <trkpt lat="47.05788" lon="6.67005">
        <ele>758</ele>
        <time>2021-08-12T16:16:38Z</time>
      </trkpt>
      <trkpt lat="47.05783" lon="6.67006">
        <ele>758</ele>
        <time>2021-08-12T16:16:39Z</time>
      </trkpt>
      <trkpt lat="47.05778" lon="6.67006">
        <ele>757.9</ele>
        <time>2021-08-12T16:16:40Z</time>
      </trkpt>
      <trkpt lat="47.05774" lon="6.67006">
        <ele>757.9</ele>
        <time>2021-08-12T16:16:41Z</time>
      </trkpt>
      <trkpt lat="47.05768" lon="6.67003">
        <ele>757.9</ele>
        <time>2021-08-12T16:16:42Z</time>
      </trkpt>
      <trkpt lat="47.05764" lon="6.67002">
        <ele>757.9</ele>
        <time>2021-08-12T16:16:43Z</time>
      </trkpt>
      <trkpt lat="47.05761" lon="6.67001">
        <ele>757.9</ele>
        <time>2021-08-12T16:16:44Z</time>
      </trkpt>
      <trkpt lat="47.05758" lon="6.67">
        <ele>757.9</ele>
        <time>2021-08-12T16:16:45Z</time>
      </trkpt>
      <trkpt lat="47.05752" lon="6.66999">
        <ele>758</ele>
        <time>2021-08-12T16:16:47Z</time>
      </trkpt>
      <trkpt lat="47.05748" lon="6.66998">
        <ele>758</ele>
        <time>2021-08-12T16:16:48Z</time>
      </trkpt>
      <trkpt lat="47.05743" lon="6.66997">
        <ele>758</ele>
        <time>2021-08-12T16:16:49Z</time>
      </trkpt>
      <trkpt lat="47.05736" lon="6.66999">
        <ele>758</ele>
        <time>2021-08-12T16:16:51Z</time>
      </trkpt>
      <trkpt lat="47.05732" lon="6.67">
        <ele>758.1</ele>
        <time>2021-08-12T16:16:52Z</time>
      </trkpt>
      <trkpt lat="47.05724" lon="6.67005">
        <ele>758.1</ele>
        <time>2021-08-12T16:16:54Z</time>
      </trkpt>
      <trkpt lat="47.05717" lon="6.67009">
        <ele>758.1</ele>
        <time>2021-08-12T16:16:55Z</time>
      </trkpt>
      <trkpt lat="47.05711" lon="6.67014">
        <ele>758.1</ele>
        <time>2021-08-12T16:16:56Z</time>
      </trkpt>
      <trkpt lat="47.05702" lon="6.67025">
        <ele>758.1</ele>
        <time>2021-08-12T16:16:58Z</time>
      </trkpt>
      <trkpt lat="47.05697" lon="6.67029">
        <ele>758.1</ele>
        <time>2021-08-12T16:16:59Z</time>
      </trkpt>
      <trkpt lat="47.05688" lon="6.67033">
        <ele>758.2</ele>
        <time>2021-08-12T16:17:01Z</time>
      </trkpt>
      <trkpt lat="47.05682" lon="6.67036">
        <ele>758.2</ele>
        <time>2021-08-12T16:17:03Z</time>
      </trkpt>
      <trkpt lat="47.05679" lon="6.67037">
        <ele>758.2</ele>
        <time>2021-08-12T16:17:04Z</time>
      </trkpt>
      <trkpt lat="47.05674" lon="6.67039">
        <ele>758.2</ele>
        <time>2021-08-12T16:17:06Z</time>
      </trkpt>
      <trkpt lat="47.05668" lon="6.6704">
        <ele>758.2</ele>
        <time>2021-08-12T16:17:07Z</time>
      </trkpt>
      <trkpt lat="47.0566" lon="6.67041">
        <ele>758.3</ele>
        <time>2021-08-12T16:17:08Z</time>
      </trkpt>
      <trkpt lat="47.05647" lon="6.6704">
        <ele>758.2</ele>
        <time>2021-08-12T16:17:10Z</time>
      </trkpt>
      <trkpt lat="47.05636" lon="6.67032">
        <ele>758.2</ele>
        <time>2021-08-12T16:17:12Z</time>
      </trkpt>
      <trkpt lat="47.0563" lon="6.67029">
        <ele>758.2</ele>
        <time>2021-08-12T16:17:13Z</time>
      </trkpt>
      <trkpt lat="47.05621" lon="6.67023">
        <ele>758.1</ele>
        <time>2021-08-12T16:17:15Z</time>
      </trkpt>
      <trkpt lat="47.05617" lon="6.67018">
        <ele>758.2</ele>
        <time>2021-08-12T16:17:16Z</time>
      </trkpt>
      <trkpt lat="47.05613" lon="6.67011">
        <ele>758.2</ele>
        <time>2021-08-12T16:17:18Z</time>
      </trkpt>
      <trkpt lat="47.05612" lon="6.67004">
        <ele>758.2</ele>
        <time>2021-08-12T16:17:20Z</time>
      </trkpt>
      <trkpt lat="47.05612" lon="6.66998">
        <ele>758.2</ele>
        <time>2021-08-12T16:17:21Z</time>
      </trkpt>
      <trkpt lat="47.05612" lon="6.66995">
        <ele>758.2</ele>
        <time>2021-08-12T16:17:23Z</time>
      </trkpt>
      <trkpt lat="47.05611" lon="6.66991">
        <ele>758.2</ele>
        <time>2021-08-12T16:17:25Z</time>
      </trkpt>
      <trkpt lat="47.0561" lon="6.66989">
        <ele>758.2</ele>
        <time>2021-08-12T16:17:26Z</time>
      </trkpt>
      <trkpt lat="47.05609" lon="6.66982">
        <ele>758.2</ele>
        <time>2021-08-12T16:17:28Z</time>
      </trkpt>
      <trkpt lat="47.05608" lon="6.66979">
        <ele>758.2</ele>
        <time>2021-08-12T16:17:29Z</time>
      </trkpt>
      <trkpt lat="47.05606" lon="6.66975">
        <ele>758.2</ele>
        <time>2021-08-12T16:17:30Z</time>
      </trkpt>
      <trkpt lat="47.05604" lon="6.66969">
        <ele>758.2</ele>
        <time>2021-08-12T16:17:31Z</time>
      </trkpt>
      <trkpt lat="47.05601" lon="6.66961">
        <ele>758.2</ele>
        <time>2021-08-12T16:17:33Z</time>
      </trkpt>
      <trkpt lat="47.05599" lon="6.66956">
        <ele>758.2</ele>
        <time>2021-08-12T16:17:34Z</time>
      </trkpt>
      <trkpt lat="47.05597" lon="6.6695">
        <ele>758.2</ele>
        <time>2021-08-12T16:17:35Z</time>
      </trkpt>
      <trkpt lat="47.05595" lon="6.66945">
        <ele>758.2</ele>
        <time>2021-08-12T16:17:36Z</time>
      </trkpt>
      <trkpt lat="47.05592" lon="6.6694">
        <ele>758.2</ele>
        <time>2021-08-12T16:17:37Z</time>
      </trkpt>
      <trkpt lat="47.0559" lon="6.66934">
        <ele>758.2</ele>
        <time>2021-08-12T16:17:39Z</time>
      </trkpt>
      <trkpt lat="47.05587" lon="6.6693">
        <ele>758.2</ele>
        <time>2021-08-12T16:17:40Z</time>
      </trkpt>
      <trkpt lat="47.05584" lon="6.66926">
        <ele>758.2</ele>
        <time>2021-08-12T16:17:41Z</time>
      </trkpt>
      <trkpt lat="47.05581" lon="6.66921">
        <ele>758.2</ele>
        <time>2021-08-12T16:17:42Z</time>
      </trkpt>
      <trkpt lat="47.05578" lon="6.66917">
        <ele>758.2</ele>
        <time>2021-08-12T16:17:43Z</time>
      </trkpt>
      <trkpt lat="47.05576" lon="6.6691">
        <ele>758.2</ele>
        <time>2021-08-12T16:17:44Z</time>
      </trkpt>
      <trkpt lat="47.05575" lon="6.66904">
        <ele>758.2</ele>
        <time>2021-08-12T16:17:46Z</time>
      </trkpt>
      <trkpt lat="47.0557" lon="6.66896">
        <ele>758.2</ele>
        <time>2021-08-12T16:17:48Z</time>
      </trkpt>
      <trkpt lat="47.05566" lon="6.66889">
        <ele>758.2</ele>
        <time>2021-08-12T16:17:50Z</time>
      </trkpt>
      <trkpt lat="47.05563" lon="6.66885">
        <ele>758.2</ele>
        <time>2021-08-12T16:17:51Z</time>
      </trkpt>
      <trkpt lat="47.05559" lon="6.6688">
        <ele>758.2</ele>
        <time>2021-08-12T16:17:52Z</time>
      </trkpt>
      <trkpt lat="47.05556" lon="6.66875">
        <ele>758.2</ele>
        <time>2021-08-12T16:17:53Z</time>
      </trkpt>
      <trkpt lat="47.0555" lon="6.66867">
        <ele>758.1</ele>
        <time>2021-08-12T16:17:55Z</time>
      </trkpt>
      <trkpt lat="47.05541" lon="6.6686">
        <ele>758.1</ele>
        <time>2021-08-12T16:17:57Z</time>
      </trkpt>
      <trkpt lat="47.05533" lon="6.6685">
        <ele>758.1</ele>
        <time>2021-08-12T16:17:59Z</time>
      </trkpt>
      <trkpt lat="47.05529" lon="6.66844">
        <ele>758.1</ele>
        <time>2021-08-12T16:18:00Z</time>
      </trkpt>
      <trkpt lat="47.05521" lon="6.66835">
        <ele>758</ele>
        <time>2021-08-12T16:18:02Z</time>
      </trkpt>
      <trkpt lat="47.05512" lon="6.66826">
        <ele>758</ele>
        <time>2021-08-12T16:18:04Z</time>
      </trkpt>
      <trkpt lat="47.05508" lon="6.66823">
        <ele>758</ele>
        <time>2021-08-12T16:18:05Z</time>
      </trkpt>
      <trkpt lat="47.05503" lon="6.6682">
        <ele>757.9</ele>
        <time>2021-08-12T16:18:06Z</time>
      </trkpt>
      <trkpt lat="47.05494" lon="6.66814">
        <ele>757.9</ele>
        <time>2021-08-12T16:18:08Z</time>
      </trkpt>
      <trkpt lat="47.05486" lon="6.66807">
        <ele>757.9</ele>
        <time>2021-08-12T16:18:10Z</time>
      </trkpt>
      <trkpt lat="47.05482" lon="6.66804">
        <ele>757.9</ele>
        <time>2021-08-12T16:18:11Z</time>
      </trkpt>
      <trkpt lat="47.05478" lon="6.668">
        <ele>757.9</ele>
        <time>2021-08-12T16:18:12Z</time>
      </trkpt>
      <trkpt lat="47.05474" lon="6.66797">
        <ele>757.8</ele>
        <time>2021-08-12T16:18:13Z</time>
      </trkpt>
      <trkpt lat="47.05469" lon="6.66795">
        <ele>757.8</ele>
        <time>2021-08-12T16:18:14Z</time>
      </trkpt>
      <trkpt lat="47.0546" lon="6.66791">
        <ele>757.8</ele>
        <time>2021-08-12T16:18:16Z</time>
      </trkpt>
      <trkpt lat="47.05456" lon="6.66788">
        <ele>757.9</ele>
        <time>2021-08-12T16:18:17Z</time>
      </trkpt>
      <trkpt lat="47.05449" lon="6.6678">
        <ele>757.9</ele>
        <time>2021-08-12T16:18:19Z</time>
      </trkpt>
      <trkpt lat="47.05445" lon="6.66775">
        <ele>757.9</ele>
        <time>2021-08-12T16:18:20Z</time>
      </trkpt>
      <trkpt lat="47.05441" lon="6.66771">
        <ele>757.9</ele>
        <time>2021-08-12T16:18:21Z</time>
      </trkpt>
      <trkpt lat="47.05438" lon="6.66766">
        <ele>757.9</ele>
        <time>2021-08-12T16:18:22Z</time>
      </trkpt>
      <trkpt lat="47.05432" lon="6.66757">
        <ele>757.9</ele>
        <time>2021-08-12T16:18:24Z</time>
      </trkpt>
      <trkpt lat="47.05426" lon="6.66744">
        <ele>758</ele>
        <time>2021-08-12T16:18:26Z</time>
      </trkpt>
      <trkpt lat="47.0542" lon="6.66733">
        <ele>758.1</ele>
        <time>2021-08-12T16:18:28Z</time>
      </trkpt>
      <trkpt lat="47.05412" lon="6.66726">
        <ele>758.2</ele>
        <time>2021-08-12T16:18:30Z</time>
      </trkpt>
      <trkpt lat="47.05405" lon="6.66724">
        <ele>758.3</ele>
        <time>2021-08-12T16:18:32Z</time>
      </trkpt>
      <trkpt lat="47.054" lon="6.66725">
        <ele>758.4</ele>
        <time>2021-08-12T16:18:33Z</time>
      </trkpt>
      <trkpt lat="47.05393" lon="6.66727">
        <ele>758.6</ele>
        <time>2021-08-12T16:18:35Z</time>
      </trkpt>
      <trkpt lat="47.05389" lon="6.66727">
        <ele>758.7</ele>
        <time>2021-08-12T16:18:36Z</time>
      </trkpt>
      <trkpt lat="47.05386" lon="6.66725">
        <ele>758.8</ele>
        <time>2021-08-12T16:18:37Z</time>
      </trkpt>
      <trkpt lat="47.05384" lon="6.66723">
        <ele>758.8</ele>
        <time>2021-08-12T16:18:38Z</time>
      </trkpt>
      <trkpt lat="47.05381" lon="6.66717">
        <ele>758.9</ele>
        <time>2021-08-12T16:18:40Z</time>
      </trkpt>
      <trkpt lat="47.05378" lon="6.66713">
        <ele>759</ele>
        <time>2021-08-12T16:18:41Z</time>
      </trkpt>
      <trkpt lat="47.05374" lon="6.66705">
        <ele>759.2</ele>
        <time>2021-08-12T16:18:43Z</time>
      </trkpt>
      <trkpt lat="47.05369" lon="6.66695">
        <ele>759.3</ele>
        <time>2021-08-12T16:18:44Z</time>
      </trkpt>
      <trkpt lat="47.05365" lon="6.66689">
        <ele>759.4</ele>
        <time>2021-08-12T16:18:46Z</time>
      </trkpt>
      <trkpt lat="47.0536" lon="6.66683">
        <ele>759.6</ele>
        <time>2021-08-12T16:18:47Z</time>
      </trkpt>
      <trkpt lat="47.05355" lon="6.66677">
        <ele>759.8</ele>
        <time>2021-08-12T16:18:49Z</time>
      </trkpt>
      <trkpt lat="47.05345" lon="6.66667">
        <ele>760.2</ele>
        <time>2021-08-12T16:18:51Z</time>
      </trkpt>
      <trkpt lat="47.05342" lon="6.66663">
        <ele>760.3</ele>
        <time>2021-08-12T16:18:52Z</time>
      </trkpt>
      <trkpt lat="47.05338" lon="6.66654">
        <ele>760.6</ele>
        <time>2021-08-12T16:18:54Z</time>
      </trkpt>
      <trkpt lat="47.05331" lon="6.66647">
        <ele>760.9</ele>
        <time>2021-08-12T16:18:56Z</time>
      </trkpt>
      <trkpt lat="47.05324" lon="6.66639">
        <ele>761.1</ele>
        <time>2021-08-12T16:18:57Z</time>
      </trkpt>
      <trkpt lat="47.0532" lon="6.66636">
        <ele>761.2</ele>
        <time>2021-08-12T16:18:58Z</time>
      </trkpt>
      <trkpt lat="47.05316" lon="6.66626">
        <ele>761.4</ele>
        <time>2021-08-12T16:19:00Z</time>
      </trkpt>
      <trkpt lat="47.05315" lon="6.66621">
        <ele>761.4</ele>
        <time>2021-08-12T16:19:01Z</time>
      </trkpt>
      <trkpt lat="47.05311" lon="6.66613">
        <ele>761.4</ele>
        <time>2021-08-12T16:19:03Z</time>
      </trkpt>
      <trkpt lat="47.05307" lon="6.66609">
        <ele>761.4</ele>
        <time>2021-08-12T16:19:05Z</time>
      </trkpt>
      <trkpt lat="47.05304" lon="6.66606">
        <ele>761.4</ele>
        <time>2021-08-12T16:19:06Z</time>
      </trkpt>
      <trkpt lat="47.05301" lon="6.66601">
        <ele>761.3</ele>
        <time>2021-08-12T16:19:07Z</time>
      </trkpt>
      <trkpt lat="47.05298" lon="6.66589">
        <ele>761.1</ele>
        <time>2021-08-12T16:19:09Z</time>
      </trkpt>
      <trkpt lat="47.05296" lon="6.66581">
        <ele>761</ele>
        <time>2021-08-12T16:19:10Z</time>
      </trkpt>
      <trkpt lat="47.05295" lon="6.66574">
        <ele>760.9</ele>
        <time>2021-08-12T16:19:11Z</time>
      </trkpt>
      <trkpt lat="47.05291" lon="6.66559">
        <ele>760.6</ele>
        <time>2021-08-12T16:19:13Z</time>
      </trkpt>
      <trkpt lat="47.05289" lon="6.66551">
        <ele>760.5</ele>
        <time>2021-08-12T16:19:14Z</time>
      </trkpt>
      <trkpt lat="47.05287" lon="6.66542">
        <ele>760.3</ele>
        <time>2021-08-12T16:19:15Z</time>
      </trkpt>
      <trkpt lat="47.05283" lon="6.66523">
        <ele>759.9</ele>
        <time>2021-08-12T16:19:17Z</time>
      </trkpt>
      <trkpt lat="47.0528" lon="6.66513">
        <ele>759.7</ele>
        <time>2021-08-12T16:19:18Z</time>
      </trkpt>
      <trkpt lat="47.05275" lon="6.66493">
        <ele>759.3</ele>
        <time>2021-08-12T16:19:20Z</time>
      </trkpt>
      <trkpt lat="47.05272" lon="6.66483">
        <ele>759.1</ele>
        <time>2021-08-12T16:19:21Z</time>
      </trkpt>
      <trkpt lat="47.05265" lon="6.66462">
        <ele>759</ele>
        <time>2021-08-12T16:19:23Z</time>
      </trkpt>
      <trkpt lat="47.05259" lon="6.6644">
        <ele>758.9</ele>
        <time>2021-08-12T16:19:25Z</time>
      </trkpt>
      <trkpt lat="47.05257" lon="6.66429">
        <ele>759</ele>
        <time>2021-08-12T16:19:26Z</time>
      </trkpt>
      <trkpt lat="47.05253" lon="6.66408">
        <ele>759.1</ele>
        <time>2021-08-12T16:19:28Z</time>
      </trkpt>
      <trkpt lat="47.05252" lon="6.66397">
        <ele>759.2</ele>
        <time>2021-08-12T16:19:29Z</time>
      </trkpt>
      <trkpt lat="47.0525" lon="6.66386">
        <ele>759.2</ele>
        <time>2021-08-12T16:19:30Z</time>
      </trkpt>
      <trkpt lat="47.05249" lon="6.66365">
        <ele>759.4</ele>
        <time>2021-08-12T16:19:32Z</time>
      </trkpt>
      <trkpt lat="47.05248" lon="6.66347">
        <ele>759.5</ele>
        <time>2021-08-12T16:19:34Z</time>
      </trkpt>
      <trkpt lat="47.05247" lon="6.66338">
        <ele>759.5</ele>
        <time>2021-08-12T16:19:35Z</time>
      </trkpt>
      <trkpt lat="47.05247" lon="6.66329">
        <ele>759.6</ele>
        <time>2021-08-12T16:19:36Z</time>
      </trkpt>
      <trkpt lat="47.05248" lon="6.66312">
        <ele>759.6</ele>
        <time>2021-08-12T16:19:38Z</time>
      </trkpt>
      <trkpt lat="47.05248" lon="6.66303">
        <ele>759.6</ele>
        <time>2021-08-12T16:19:39Z</time>
      </trkpt>
      <trkpt lat="47.05249" lon="6.66295">
        <ele>759.6</ele>
        <time>2021-08-12T16:19:40Z</time>
      </trkpt>
      <trkpt lat="47.05252" lon="6.66279">
        <ele>759.6</ele>
        <time>2021-08-12T16:19:42Z</time>
      </trkpt>
      <trkpt lat="47.05254" lon="6.66271">
        <ele>759.6</ele>
        <time>2021-08-12T16:19:43Z</time>
      </trkpt>
      <trkpt lat="47.05256" lon="6.66262">
        <ele>759.6</ele>
        <time>2021-08-12T16:19:44Z</time>
      </trkpt>
      <trkpt lat="47.05261" lon="6.66245">
        <ele>759.7</ele>
        <time>2021-08-12T16:19:46Z</time>
      </trkpt>
      <trkpt lat="47.05264" lon="6.66236">
        <ele>759.7</ele>
        <time>2021-08-12T16:19:47Z</time>
      </trkpt>
      <trkpt lat="47.05267" lon="6.66228">
        <ele>759.7</ele>
        <time>2021-08-12T16:19:48Z</time>
      </trkpt>
      <trkpt lat="47.05274" lon="6.66212">
        <ele>759.8</ele>
        <time>2021-08-12T16:19:50Z</time>
      </trkpt>
      <trkpt lat="47.05281" lon="6.662">
        <ele>759.8</ele>
        <time>2021-08-12T16:19:52Z</time>
      </trkpt>
      <trkpt lat="47.05288" lon="6.66189">
        <ele>759.8</ele>
        <time>2021-08-12T16:19:54Z</time>
      </trkpt>
      <trkpt lat="47.05296" lon="6.6618">
        <ele>759.8</ele>
        <time>2021-08-12T16:19:56Z</time>
      </trkpt>
      <trkpt lat="47.05306" lon="6.66171">
        <ele>759.8</ele>
        <time>2021-08-12T16:19:58Z</time>
      </trkpt>
      <trkpt lat="47.05311" lon="6.66165">
        <ele>759.8</ele>
        <time>2021-08-12T16:19:59Z</time>
      </trkpt>
      <trkpt lat="47.05315" lon="6.66159">
        <ele>759.8</ele>
        <time>2021-08-12T16:20:00Z</time>
      </trkpt>
      <trkpt lat="47.0532" lon="6.66153">
        <ele>759.8</ele>
        <time>2021-08-12T16:20:01Z</time>
      </trkpt>
      <trkpt lat="47.05325" lon="6.66146">
        <ele>759.8</ele>
        <time>2021-08-12T16:20:02Z</time>
      </trkpt>
      <trkpt lat="47.05335" lon="6.66133">
        <ele>759.7</ele>
        <time>2021-08-12T16:20:04Z</time>
      </trkpt>
      <trkpt lat="47.0534" lon="6.66127">
        <ele>759.7</ele>
        <time>2021-08-12T16:20:05Z</time>
      </trkpt>
      <trkpt lat="47.05346" lon="6.66122">
        <ele>759.6</ele>
        <time>2021-08-12T16:20:06Z</time>
      </trkpt>
      <trkpt lat="47.05357" lon="6.66109">
        <ele>759.5</ele>
        <time>2021-08-12T16:20:08Z</time>
      </trkpt>
      <trkpt lat="47.05366" lon="6.66096">
        <ele>759.4</ele>
        <time>2021-08-12T16:20:10Z</time>
      </trkpt>
      <trkpt lat="47.05375" lon="6.66082">
        <ele>759.3</ele>
        <time>2021-08-12T16:20:12Z</time>
      </trkpt>
      <trkpt lat="47.05379" lon="6.66075">
        <ele>759.2</ele>
        <time>2021-08-12T16:20:13Z</time>
      </trkpt>
      <trkpt lat="47.05384" lon="6.66068">
        <ele>759.2</ele>
        <time>2021-08-12T16:20:14Z</time>
      </trkpt>
      <trkpt lat="47.05394" lon="6.66055">
        <ele>759.1</ele>
        <time>2021-08-12T16:20:16Z</time>
      </trkpt>
      <trkpt lat="47.05399" lon="6.66048">
        <ele>759</ele>
        <time>2021-08-12T16:20:17Z</time>
      </trkpt>
      <trkpt lat="47.05409" lon="6.66038">
        <ele>758.9</ele>
        <time>2021-08-12T16:20:19Z</time>
      </trkpt>
      <trkpt lat="47.05414" lon="6.66033">
        <ele>758.9</ele>
        <time>2021-08-12T16:20:20Z</time>
      </trkpt>
      <trkpt lat="47.05418" lon="6.66027">
        <ele>758.9</ele>
        <time>2021-08-12T16:20:21Z</time>
      </trkpt>
      <trkpt lat="47.05423" lon="6.66025">
        <ele>758.8</ele>
        <time>2021-08-12T16:20:22Z</time>
      </trkpt>
      <trkpt lat="47.05435" lon="6.66029">
        <ele>758.8</ele>
        <time>2021-08-12T16:20:24Z</time>
      </trkpt>
      <trkpt lat="47.05446" lon="6.66036">
        <ele>758.7</ele>
        <time>2021-08-12T16:20:26Z</time>
      </trkpt>
      <trkpt lat="47.05459" lon="6.66034">
        <ele>758.6</ele>
        <time>2021-08-12T16:20:28Z</time>
      </trkpt>
      <trkpt lat="47.05463" lon="6.66012">
        <ele>758.6</ele>
        <time>2021-08-12T16:20:30Z</time>
      </trkpt>
      <trkpt lat="47.05466" lon="6.65988">
        <ele>758.6</ele>
        <time>2021-08-12T16:20:32Z</time>
      </trkpt>
      <trkpt lat="47.05468" lon="6.65965">
        <ele>758.7</ele>
        <time>2021-08-12T16:20:34Z</time>
      </trkpt>
      <trkpt lat="47.05469" lon="6.65953">
        <ele>758.8</ele>
        <time>2021-08-12T16:20:35Z</time>
      </trkpt>
      <trkpt lat="47.05469" lon="6.65935">
        <ele>758.8</ele>
        <time>2021-08-12T16:20:37Z</time>
      </trkpt>
      <trkpt lat="47.05471" lon="6.65926">
        <ele>758.8</ele>
        <time>2021-08-12T16:20:38Z</time>
      </trkpt>
      <trkpt lat="47.05475" lon="6.65907">
        <ele>758.8</ele>
        <time>2021-08-12T16:20:40Z</time>
      </trkpt>
      <trkpt lat="47.05478" lon="6.6589">
        <ele>758.7</ele>
        <time>2021-08-12T16:20:42Z</time>
      </trkpt>
      <trkpt lat="47.05481" lon="6.65874">
        <ele>758.7</ele>
        <time>2021-08-12T16:20:44Z</time>
      </trkpt>
      <trkpt lat="47.05482" lon="6.65855">
        <ele>758.7</ele>
        <time>2021-08-12T16:20:46Z</time>
      </trkpt>
      <trkpt lat="47.05482" lon="6.65833">
        <ele>758.7</ele>
        <time>2021-08-12T16:20:48Z</time>
      </trkpt>
      <trkpt lat="47.05481" lon="6.65812">
        <ele>758.7</ele>
        <time>2021-08-12T16:20:50Z</time>
      </trkpt>
      <trkpt lat="47.0548" lon="6.65803">
        <ele>758.8</ele>
        <time>2021-08-12T16:20:51Z</time>
      </trkpt>
      <trkpt lat="47.05479" lon="6.65785">
        <ele>758.9</ele>
        <time>2021-08-12T16:20:53Z</time>
      </trkpt>
      <trkpt lat="47.05478" lon="6.65776">
        <ele>758.9</ele>
        <time>2021-08-12T16:20:54Z</time>
      </trkpt>
      <trkpt lat="47.05476" lon="6.65759">
        <ele>759</ele>
        <time>2021-08-12T16:20:56Z</time>
      </trkpt>
      <trkpt lat="47.05474" lon="6.65752">
        <ele>759</ele>
        <time>2021-08-12T16:20:57Z</time>
      </trkpt>
      <trkpt lat="47.05468" lon="6.65737">
        <ele>759.1</ele>
        <time>2021-08-12T16:20:59Z</time>
      </trkpt>
      <trkpt lat="47.05465" lon="6.65729">
        <ele>759.1</ele>
        <time>2021-08-12T16:21:00Z</time>
      </trkpt>
      <trkpt lat="47.05461" lon="6.65714">
        <ele>759.1</ele>
        <time>2021-08-12T16:21:02Z</time>
      </trkpt>
      <trkpt lat="47.05456" lon="6.657">
        <ele>759.1</ele>
        <time>2021-08-12T16:21:04Z</time>
      </trkpt>
      <trkpt lat="47.05451" lon="6.65686">
        <ele>759.1</ele>
        <time>2021-08-12T16:21:06Z</time>
      </trkpt>
      <trkpt lat="47.05448" lon="6.65672">
        <ele>759.1</ele>
        <time>2021-08-12T16:21:08Z</time>
      </trkpt>
      <trkpt lat="47.05446" lon="6.65665">
        <ele>759</ele>
        <time>2021-08-12T16:21:09Z</time>
      </trkpt>
      <trkpt lat="47.05444" lon="6.65658">
        <ele>759</ele>
        <time>2021-08-12T16:21:10Z</time>
      </trkpt>
      <trkpt lat="47.05442" lon="6.6565">
        <ele>758.9</ele>
        <time>2021-08-12T16:21:11Z</time>
      </trkpt>
      <trkpt lat="47.0544" lon="6.65643">
        <ele>758.9</ele>
        <time>2021-08-12T16:21:12Z</time>
      </trkpt>
      <trkpt lat="47.05438" lon="6.65636">
        <ele>758.9</ele>
        <time>2021-08-12T16:21:13Z</time>
      </trkpt>
      <trkpt lat="47.05435" lon="6.65622">
        <ele>758.9</ele>
        <time>2021-08-12T16:21:15Z</time>
      </trkpt>
      <trkpt lat="47.05433" lon="6.65614">
        <ele>758.9</ele>
        <time>2021-08-12T16:21:16Z</time>
      </trkpt>
      <trkpt lat="47.05431" lon="6.65608">
        <ele>758.9</ele>
        <time>2021-08-12T16:21:17Z</time>
      </trkpt>
      <trkpt lat="47.05426" lon="6.65596">
        <ele>758.9</ele>
        <time>2021-08-12T16:21:19Z</time>
      </trkpt>
      <trkpt lat="47.05422" lon="6.65581">
        <ele>759</ele>
        <time>2021-08-12T16:21:21Z</time>
      </trkpt>
      <trkpt lat="47.05421" lon="6.65574">
        <ele>759</ele>
        <time>2021-08-12T16:21:22Z</time>
      </trkpt>
      <trkpt lat="47.05416" lon="6.65561">
        <ele>759.1</ele>
        <time>2021-08-12T16:21:24Z</time>
      </trkpt>
      <trkpt lat="47.05409" lon="6.6555">
        <ele>759.2</ele>
        <time>2021-08-12T16:21:26Z</time>
      </trkpt>
      <trkpt lat="47.05402" lon="6.65537">
        <ele>759.2</ele>
        <time>2021-08-12T16:21:28Z</time>
      </trkpt>
      <trkpt lat="47.05398" lon="6.65522">
        <ele>759.3</ele>
        <time>2021-08-12T16:21:30Z</time>
      </trkpt>
      <trkpt lat="47.05394" lon="6.65507">
        <ele>759.4</ele>
        <time>2021-08-12T16:21:32Z</time>
      </trkpt>
      <trkpt lat="47.05392" lon="6.65488">
        <ele>759.5</ele>
        <time>2021-08-12T16:21:34Z</time>
      </trkpt>
      <trkpt lat="47.05391" lon="6.65479">
        <ele>759.6</ele>
        <time>2021-08-12T16:21:35Z</time>
      </trkpt>
      <trkpt lat="47.0539" lon="6.65461">
        <ele>759.7</ele>
        <time>2021-08-12T16:21:37Z</time>
      </trkpt>
      <trkpt lat="47.05389" lon="6.65452">
        <ele>759.8</ele>
        <time>2021-08-12T16:21:38Z</time>
      </trkpt>
      <trkpt lat="47.05386" lon="6.65435">
        <ele>759.9</ele>
        <time>2021-08-12T16:21:40Z</time>
      </trkpt>
      <trkpt lat="47.05382" lon="6.6542">
        <ele>760</ele>
        <time>2021-08-12T16:21:42Z</time>
      </trkpt>
      <trkpt lat="47.05379" lon="6.65414">
        <ele>760</ele>
        <time>2021-08-12T16:21:43Z</time>
      </trkpt>
      <trkpt lat="47.05378" lon="6.65397">
        <ele>760.1</ele>
        <time>2021-08-12T16:21:45Z</time>
      </trkpt>
      <trkpt lat="47.05375" lon="6.65379">
        <ele>760.1</ele>
        <time>2021-08-12T16:21:47Z</time>
      </trkpt>
      <trkpt lat="47.05374" lon="6.6537">
        <ele>760.1</ele>
        <time>2021-08-12T16:21:48Z</time>
      </trkpt>
      <trkpt lat="47.05369" lon="6.65354">
        <ele>760.1</ele>
        <time>2021-08-12T16:21:50Z</time>
      </trkpt>
      <trkpt lat="47.05366" lon="6.65346">
        <ele>760.2</ele>
        <time>2021-08-12T16:21:51Z</time>
      </trkpt>
      <trkpt lat="47.05364" lon="6.65337">
        <ele>760.2</ele>
        <time>2021-08-12T16:21:52Z</time>
      </trkpt>
      <trkpt lat="47.05361" lon="6.6532">
        <ele>760.2</ele>
        <time>2021-08-12T16:21:54Z</time>
      </trkpt>
      <trkpt lat="47.05357" lon="6.65303">
        <ele>760.3</ele>
        <time>2021-08-12T16:21:56Z</time>
      </trkpt>
      <trkpt lat="47.0535" lon="6.65288">
        <ele>760.3</ele>
        <time>2021-08-12T16:21:58Z</time>
      </trkpt>
      <trkpt lat="47.05347" lon="6.6528">
        <ele>760.3</ele>
        <time>2021-08-12T16:21:59Z</time>
      </trkpt>
      <trkpt lat="47.05343" lon="6.65273">
        <ele>760.3</ele>
        <time>2021-08-12T16:22:00Z</time>
      </trkpt>
      <trkpt lat="47.05338" lon="6.65258">
        <ele>760.3</ele>
        <time>2021-08-12T16:22:02Z</time>
      </trkpt>
      <trkpt lat="47.0533" lon="6.65247">
        <ele>760.3</ele>
        <time>2021-08-12T16:22:04Z</time>
      </trkpt>
      <trkpt lat="47.05326" lon="6.65242">
        <ele>760.3</ele>
        <time>2021-08-12T16:22:05Z</time>
      </trkpt>
      <trkpt lat="47.05323" lon="6.65235">
        <ele>760.3</ele>
        <time>2021-08-12T16:22:06Z</time>
      </trkpt>
      <trkpt lat="47.05316" lon="6.65221">
        <ele>760.2</ele>
        <time>2021-08-12T16:22:08Z</time>
      </trkpt>
      <trkpt lat="47.05311" lon="6.65206">
        <ele>760.1</ele>
        <time>2021-08-12T16:22:10Z</time>
      </trkpt>
      <trkpt lat="47.05306" lon="6.6519">
        <ele>760.1</ele>
        <time>2021-08-12T16:22:12Z</time>
      </trkpt>
      <trkpt lat="47.05304" lon="6.65182">
        <ele>760</ele>
        <time>2021-08-12T16:22:13Z</time>
      </trkpt>
      <trkpt lat="47.05299" lon="6.65166">
        <ele>760</ele>
        <time>2021-08-12T16:22:15Z</time>
      </trkpt>
      <trkpt lat="47.05296" lon="6.65158">
        <ele>759.9</ele>
        <time>2021-08-12T16:22:16Z</time>
      </trkpt>
      <trkpt lat="47.0529" lon="6.65143">
        <ele>759.9</ele>
        <time>2021-08-12T16:22:18Z</time>
      </trkpt>
      <trkpt lat="47.05283" lon="6.65127">
        <ele>759.8</ele>
        <time>2021-08-12T16:22:20Z</time>
      </trkpt>
      <trkpt lat="47.05275" lon="6.65115">
        <ele>759.7</ele>
        <time>2021-08-12T16:22:22Z</time>
      </trkpt>
      <trkpt lat="47.05268" lon="6.65103">
        <ele>759.7</ele>
        <time>2021-08-12T16:22:24Z</time>
      </trkpt>
      <trkpt lat="47.05266" lon="6.65094">
        <ele>759.6</ele>
        <time>2021-08-12T16:22:25Z</time>
      </trkpt>
      <trkpt lat="47.05261" lon="6.65088">
        <ele>759.6</ele>
        <time>2021-08-12T16:22:26Z</time>
      </trkpt>
      <trkpt lat="47.05251" lon="6.65075">
        <ele>759.5</ele>
        <time>2021-08-12T16:22:28Z</time>
      </trkpt>
      <trkpt lat="47.05246" lon="6.65069">
        <ele>759.4</ele>
        <time>2021-08-12T16:22:29Z</time>
      </trkpt>
      <trkpt lat="47.05243" lon="6.65062">
        <ele>759.4</ele>
        <time>2021-08-12T16:22:30Z</time>
      </trkpt>
      <trkpt lat="47.05238" lon="6.65047">
        <ele>759.3</ele>
        <time>2021-08-12T16:22:32Z</time>
      </trkpt>
      <trkpt lat="47.05233" lon="6.65031">
        <ele>759.2</ele>
        <time>2021-08-12T16:22:34Z</time>
      </trkpt>
      <trkpt lat="47.05225" lon="6.65016">
        <ele>759.1</ele>
        <time>2021-08-12T16:22:36Z</time>
      </trkpt>
      <trkpt lat="47.05222" lon="6.65009">
        <ele>759</ele>
        <time>2021-08-12T16:22:37Z</time>
      </trkpt>
      <trkpt lat="47.05218" lon="6.64993">
        <ele>758.9</ele>
        <time>2021-08-12T16:22:39Z</time>
      </trkpt>
      <trkpt lat="47.05211" lon="6.64977">
        <ele>758.9</ele>
        <time>2021-08-12T16:22:41Z</time>
      </trkpt>
      <trkpt lat="47.05203" lon="6.64965">
        <ele>758.8</ele>
        <time>2021-08-12T16:22:43Z</time>
      </trkpt>
      <trkpt lat="47.05199" lon="6.64958">
        <ele>758.7</ele>
        <time>2021-08-12T16:22:44Z</time>
      </trkpt>
      <trkpt lat="47.05192" lon="6.64944">
        <ele>758.6</ele>
        <time>2021-08-12T16:22:46Z</time>
      </trkpt>
      <trkpt lat="47.0519" lon="6.64935">
        <ele>758.6</ele>
        <time>2021-08-12T16:22:47Z</time>
      </trkpt>
      <trkpt lat="47.05189" lon="6.64916">
        <ele>758.5</ele>
        <time>2021-08-12T16:22:49Z</time>
      </trkpt>
      <trkpt lat="47.05185" lon="6.64899">
        <ele>758.5</ele>
        <time>2021-08-12T16:22:51Z</time>
      </trkpt>
      <trkpt lat="47.05182" lon="6.64891">
        <ele>758.5</ele>
        <time>2021-08-12T16:22:52Z</time>
      </trkpt>
      <trkpt lat="47.05176" lon="6.64876">
        <ele>758.4</ele>
        <time>2021-08-12T16:22:54Z</time>
      </trkpt>
      <trkpt lat="47.05173" lon="6.64867">
        <ele>758.4</ele>
        <time>2021-08-12T16:22:55Z</time>
      </trkpt>
      <trkpt lat="47.05165" lon="6.64851">
        <ele>758.4</ele>
        <time>2021-08-12T16:22:57Z</time>
      </trkpt>
      <trkpt lat="47.05158" lon="6.64833">
        <ele>758.4</ele>
        <time>2021-08-12T16:22:59Z</time>
      </trkpt>
      <trkpt lat="47.05154" lon="6.64825">
        <ele>758.5</ele>
        <time>2021-08-12T16:23:00Z</time>
      </trkpt>
      <trkpt lat="47.05151" lon="6.64817">
        <ele>758.5</ele>
        <time>2021-08-12T16:23:01Z</time>
      </trkpt>
      <trkpt lat="47.05147" lon="6.64809">
        <ele>758.5</ele>
        <time>2021-08-12T16:23:02Z</time>
      </trkpt>
      <trkpt lat="47.05142" lon="6.64793">
        <ele>758.6</ele>
        <time>2021-08-12T16:23:04Z</time>
      </trkpt>
      <trkpt lat="47.05139" lon="6.64785">
        <ele>758.7</ele>
        <time>2021-08-12T16:23:05Z</time>
      </trkpt>
      <trkpt lat="47.05136" lon="6.64776">
        <ele>758.8</ele>
        <time>2021-08-12T16:23:06Z</time>
      </trkpt>
      <trkpt lat="47.05133" lon="6.64756">
        <ele>759</ele>
        <time>2021-08-12T16:23:08Z</time>
      </trkpt>
      <trkpt lat="47.05131" lon="6.64747">
        <ele>759.1</ele>
        <time>2021-08-12T16:23:09Z</time>
      </trkpt>
      <trkpt lat="47.05128" lon="6.64729">
        <ele>759.2</ele>
        <time>2021-08-12T16:23:11Z</time>
      </trkpt>
      <trkpt lat="47.05124" lon="6.64711">
        <ele>759.4</ele>
        <time>2021-08-12T16:23:13Z</time>
      </trkpt>
      <trkpt lat="47.05122" lon="6.64703">
        <ele>759.5</ele>
        <time>2021-08-12T16:23:14Z</time>
      </trkpt>
      <trkpt lat="47.05119" lon="6.64695">
        <ele>759.5</ele>
        <time>2021-08-12T16:23:15Z</time>
      </trkpt>
      <trkpt lat="47.05113" lon="6.6468">
        <ele>759.6</ele>
        <time>2021-08-12T16:23:17Z</time>
      </trkpt>
      <trkpt lat="47.05107" lon="6.64667">
        <ele>759.6</ele>
        <time>2021-08-12T16:23:19Z</time>
      </trkpt>
      <trkpt lat="47.05094" lon="6.64662">
        <ele>759.7</ele>
        <time>2021-08-12T16:23:21Z</time>
      </trkpt>
      <trkpt lat="47.0509" lon="6.64657">
        <ele>759.8</ele>
        <time>2021-08-12T16:23:22Z</time>
      </trkpt>
      <trkpt lat="47.05082" lon="6.64643">
        <ele>759.8</ele>
        <time>2021-08-12T16:23:24Z</time>
      </trkpt>
      <trkpt lat="47.05074" lon="6.6463">
        <ele>759.8</ele>
        <time>2021-08-12T16:23:26Z</time>
      </trkpt>
      <trkpt lat="47.05068" lon="6.64616">
        <ele>759.8</ele>
        <time>2021-08-12T16:23:28Z</time>
      </trkpt>
      <trkpt lat="47.05064" lon="6.64601">
        <ele>759.7</ele>
        <time>2021-08-12T16:23:30Z</time>
      </trkpt>
      <trkpt lat="47.05061" lon="6.64594">
        <ele>759.7</ele>
        <time>2021-08-12T16:23:31Z</time>
      </trkpt>
      <trkpt lat="47.05059" lon="6.64585">
        <ele>759.6</ele>
        <time>2021-08-12T16:23:32Z</time>
      </trkpt>
      <trkpt lat="47.05052" lon="6.6457">
        <ele>759.6</ele>
        <time>2021-08-12T16:23:34Z</time>
      </trkpt>
      <trkpt lat="47.05046" lon="6.64555">
        <ele>759.5</ele>
        <time>2021-08-12T16:23:36Z</time>
      </trkpt>
      <trkpt lat="47.05041" lon="6.64541">
        <ele>759.5</ele>
        <time>2021-08-12T16:23:38Z</time>
      </trkpt>
      <trkpt lat="47.05039" lon="6.64534">
        <ele>759.5</ele>
        <time>2021-08-12T16:23:39Z</time>
      </trkpt>
      <trkpt lat="47.05037" lon="6.64521">
        <ele>759.4</ele>
        <time>2021-08-12T16:23:41Z</time>
      </trkpt>
      <trkpt lat="47.05036" lon="6.64515">
        <ele>759.4</ele>
        <time>2021-08-12T16:23:42Z</time>
      </trkpt>
      <trkpt lat="47.05035" lon="6.645">
        <ele>759.3</ele>
        <time>2021-08-12T16:23:44Z</time>
      </trkpt>
      <trkpt lat="47.05035" lon="6.64492">
        <ele>759.2</ele>
        <time>2021-08-12T16:23:45Z</time>
      </trkpt>
      <trkpt lat="47.05034" lon="6.64482">
        <ele>759.2</ele>
        <time>2021-08-12T16:23:46Z</time>
      </trkpt>
      <trkpt lat="47.05033" lon="6.64474">
        <ele>759.2</ele>
        <time>2021-08-12T16:23:47Z</time>
      </trkpt>
      <trkpt lat="47.05025" lon="6.64461">
        <ele>759.1</ele>
        <time>2021-08-12T16:23:49Z</time>
      </trkpt>
      <trkpt lat="47.05021" lon="6.64455">
        <ele>759.1</ele>
        <time>2021-08-12T16:23:50Z</time>
      </trkpt>
      <trkpt lat="47.05011" lon="6.64443">
        <ele>759.1</ele>
        <time>2021-08-12T16:23:52Z</time>
      </trkpt>
      <trkpt lat="47.05003" lon="6.64433">
        <ele>759</ele>
        <time>2021-08-12T16:23:54Z</time>
      </trkpt>
      <trkpt lat="47.04993" lon="6.64427">
        <ele>759</ele>
        <time>2021-08-12T16:23:56Z</time>
      </trkpt>
      <trkpt lat="47.04984" lon="6.64419">
        <ele>758.9</ele>
        <time>2021-08-12T16:23:58Z</time>
      </trkpt>
      <trkpt lat="47.0498" lon="6.64414">
        <ele>758.8</ele>
        <time>2021-08-12T16:23:59Z</time>
      </trkpt>
      <trkpt lat="47.04974" lon="6.64402">
        <ele>758.7</ele>
        <time>2021-08-12T16:24:01Z</time>
      </trkpt>
      <trkpt lat="47.0497" lon="6.64395">
        <ele>758.6</ele>
        <time>2021-08-12T16:24:02Z</time>
      </trkpt>
      <trkpt lat="47.04967" lon="6.64388">
        <ele>758.5</ele>
        <time>2021-08-12T16:24:03Z</time>
      </trkpt>
      <trkpt lat="47.0496" lon="6.64372">
        <ele>758.3</ele>
        <time>2021-08-12T16:24:05Z</time>
      </trkpt>
      <trkpt lat="47.04957" lon="6.64353">
        <ele>758.1</ele>
        <time>2021-08-12T16:24:07Z</time>
      </trkpt>
      <trkpt lat="47.04955" lon="6.64343">
        <ele>758</ele>
        <time>2021-08-12T16:24:08Z</time>
      </trkpt>
      <trkpt lat="47.04949" lon="6.64323">
        <ele>757.9</ele>
        <time>2021-08-12T16:24:10Z</time>
      </trkpt>
      <trkpt lat="47.04945" lon="6.64315">
        <ele>757.8</ele>
        <time>2021-08-12T16:24:11Z</time>
      </trkpt>
      <trkpt lat="47.04941" lon="6.64306">
        <ele>757.8</ele>
        <time>2021-08-12T16:24:12Z</time>
      </trkpt>
      <trkpt lat="47.04932" lon="6.64289">
        <ele>757.7</ele>
        <time>2021-08-12T16:24:14Z</time>
      </trkpt>
      <trkpt lat="47.04927" lon="6.64281">
        <ele>757.7</ele>
        <time>2021-08-12T16:24:15Z</time>
      </trkpt>
      <trkpt lat="47.04919" lon="6.64264">
        <ele>757.6</ele>
        <time>2021-08-12T16:24:17Z</time>
      </trkpt>
      <trkpt lat="47.04916" lon="6.64256">
        <ele>757.6</ele>
        <time>2021-08-12T16:24:18Z</time>
      </trkpt>
      <trkpt lat="47.04912" lon="6.64248">
        <ele>757.6</ele>
        <time>2021-08-12T16:24:19Z</time>
      </trkpt>
      <trkpt lat="47.04905" lon="6.64231">
        <ele>757.6</ele>
        <time>2021-08-12T16:24:21Z</time>
      </trkpt>
      <trkpt lat="47.04901" lon="6.64224">
        <ele>757.6</ele>
        <time>2021-08-12T16:24:22Z</time>
      </trkpt>
      <trkpt lat="47.04897" lon="6.64216">
        <ele>757.6</ele>
        <time>2021-08-12T16:24:23Z</time>
      </trkpt>
      <trkpt lat="47.04888" lon="6.64205">
        <ele>757.6</ele>
        <time>2021-08-12T16:24:25Z</time>
      </trkpt>
      <trkpt lat="47.04883" lon="6.64201">
        <ele>757.6</ele>
        <time>2021-08-12T16:24:26Z</time>
      </trkpt>
      <trkpt lat="47.04876" lon="6.64187">
        <ele>757.7</ele>
        <time>2021-08-12T16:24:28Z</time>
      </trkpt>
      <trkpt lat="47.04873" lon="6.64178">
        <ele>757.7</ele>
        <time>2021-08-12T16:24:29Z</time>
      </trkpt>
      <trkpt lat="47.0487" lon="6.64171">
        <ele>757.7</ele>
        <time>2021-08-12T16:24:30Z</time>
      </trkpt>
      <trkpt lat="47.04865" lon="6.64155">
        <ele>757.8</ele>
        <time>2021-08-12T16:24:32Z</time>
      </trkpt>
      <trkpt lat="47.04858" lon="6.64138">
        <ele>757.9</ele>
        <time>2021-08-12T16:24:34Z</time>
      </trkpt>
      <trkpt lat="47.04856" lon="6.64131">
        <ele>757.9</ele>
        <time>2021-08-12T16:24:35Z</time>
      </trkpt>
      <trkpt lat="47.04851" lon="6.64114">
        <ele>757.8</ele>
        <time>2021-08-12T16:24:37Z</time>
      </trkpt>
      <trkpt lat="47.04845" lon="6.64101">
        <ele>757.8</ele>
        <time>2021-08-12T16:24:39Z</time>
      </trkpt>
      <trkpt lat="47.04834" lon="6.64091">
        <ele>757.9</ele>
        <time>2021-08-12T16:24:41Z</time>
      </trkpt>
      <trkpt lat="47.04828" lon="6.64086">
        <ele>757.9</ele>
        <time>2021-08-12T16:24:42Z</time>
      </trkpt>
      <trkpt lat="47.04815" lon="6.64078">
        <ele>757.9</ele>
        <time>2021-08-12T16:24:44Z</time>
      </trkpt>
      <trkpt lat="47.04809" lon="6.64073">
        <ele>757.9</ele>
        <time>2021-08-12T16:24:45Z</time>
      </trkpt>
      <trkpt lat="47.048" lon="6.64062">
        <ele>757.9</ele>
        <time>2021-08-12T16:24:47Z</time>
      </trkpt>
      <trkpt lat="47.04794" lon="6.64048">
        <ele>758</ele>
        <time>2021-08-12T16:24:49Z</time>
      </trkpt>
      <trkpt lat="47.04788" lon="6.64034">
        <ele>758</ele>
        <time>2021-08-12T16:24:51Z</time>
      </trkpt>
      <trkpt lat="47.04785" lon="6.64027">
        <ele>758</ele>
        <time>2021-08-12T16:24:52Z</time>
      </trkpt>
      <trkpt lat="47.04781" lon="6.6402">
        <ele>758</ele>
        <time>2021-08-12T16:24:53Z</time>
      </trkpt>
      <trkpt lat="47.04778" lon="6.64013">
        <ele>758</ele>
        <time>2021-08-12T16:24:54Z</time>
      </trkpt>
      <trkpt lat="47.04772" lon="6.63998">
        <ele>758</ele>
        <time>2021-08-12T16:24:56Z</time>
      </trkpt>
      <trkpt lat="47.04768" lon="6.63982">
        <ele>757.9</ele>
        <time>2021-08-12T16:24:58Z</time>
      </trkpt>
      <trkpt lat="47.04767" lon="6.63973">
        <ele>757.9</ele>
        <time>2021-08-12T16:24:59Z</time>
      </trkpt>
      <trkpt lat="47.04765" lon="6.63964">
        <ele>757.9</ele>
        <time>2021-08-12T16:25:00Z</time>
      </trkpt>
      <trkpt lat="47.04762" lon="6.63955">
        <ele>757.9</ele>
        <time>2021-08-12T16:25:01Z</time>
      </trkpt>
      <trkpt lat="47.04757" lon="6.63939">
        <ele>757.8</ele>
        <time>2021-08-12T16:25:03Z</time>
      </trkpt>
      <trkpt lat="47.04755" lon="6.63931">
        <ele>757.8</ele>
        <time>2021-08-12T16:25:04Z</time>
      </trkpt>
      <trkpt lat="47.04752" lon="6.63915">
        <ele>757.8</ele>
        <time>2021-08-12T16:25:06Z</time>
      </trkpt>
      <trkpt lat="47.04747" lon="6.63899">
        <ele>757.8</ele>
        <time>2021-08-12T16:25:08Z</time>
      </trkpt>
      <trkpt lat="47.04743" lon="6.63885">
        <ele>757.8</ele>
        <time>2021-08-12T16:25:10Z</time>
      </trkpt>
      <trkpt lat="47.04741" lon="6.63878">
        <ele>757.8</ele>
        <time>2021-08-12T16:25:11Z</time>
      </trkpt>
      <trkpt lat="47.04739" lon="6.63872">
        <ele>757.8</ele>
        <time>2021-08-12T16:25:12Z</time>
      </trkpt>
      <trkpt lat="47.04736" lon="6.63857">
        <ele>757.8</ele>
        <time>2021-08-12T16:25:14Z</time>
      </trkpt>
      <trkpt lat="47.04735" lon="6.63848">
        <ele>757.8</ele>
        <time>2021-08-12T16:25:15Z</time>
      </trkpt>
      <trkpt lat="47.0473" lon="6.63831">
        <ele>757.8</ele>
        <time>2021-08-12T16:25:17Z</time>
      </trkpt>
      <trkpt lat="47.04728" lon="6.63822">
        <ele>757.8</ele>
        <time>2021-08-12T16:25:18Z</time>
      </trkpt>
      <trkpt lat="47.04724" lon="6.63805">
        <ele>757.8</ele>
        <time>2021-08-12T16:25:20Z</time>
      </trkpt>
      <trkpt lat="47.0472" lon="6.63789">
        <ele>757.8</ele>
        <time>2021-08-12T16:25:22Z</time>
      </trkpt>
      <trkpt lat="47.04714" lon="6.63775">
        <ele>757.8</ele>
        <time>2021-08-12T16:25:24Z</time>
      </trkpt>
      <trkpt lat="47.04709" lon="6.63758">
        <ele>757.9</ele>
        <time>2021-08-12T16:25:26Z</time>
      </trkpt>
      <trkpt lat="47.04707" lon="6.63751">
        <ele>757.9</ele>
        <time>2021-08-12T16:25:27Z</time>
      </trkpt>
      <trkpt lat="47.04703" lon="6.63735">
        <ele>757.9</ele>
        <time>2021-08-12T16:25:29Z</time>
      </trkpt>
      <trkpt lat="47.04695" lon="6.63724">
        <ele>757.8</ele>
        <time>2021-08-12T16:25:31Z</time>
      </trkpt>
      <trkpt lat="47.04691" lon="6.63718">
        <ele>757.8</ele>
        <time>2021-08-12T16:25:32Z</time>
      </trkpt>
      <trkpt lat="47.04684" lon="6.63705">
        <ele>757.8</ele>
        <time>2021-08-12T16:25:34Z</time>
      </trkpt>
      <trkpt lat="47.0468" lon="6.63699">
        <ele>757.8</ele>
        <time>2021-08-12T16:25:35Z</time>
      </trkpt>
      <trkpt lat="47.04675" lon="6.63685">
        <ele>757.8</ele>
        <time>2021-08-12T16:25:37Z</time>
      </trkpt>
      <trkpt lat="47.04671" lon="6.63666">
        <ele>757.8</ele>
        <time>2021-08-12T16:25:39Z</time>
      </trkpt>
      <trkpt lat="47.04671" lon="6.63656">
        <ele>757.8</ele>
        <time>2021-08-12T16:25:40Z</time>
      </trkpt>
      <trkpt lat="47.04671" lon="6.63646">
        <ele>757.8</ele>
        <time>2021-08-12T16:25:41Z</time>
      </trkpt>
      <trkpt lat="47.0467" lon="6.63637">
        <ele>757.8</ele>
        <time>2021-08-12T16:25:42Z</time>
      </trkpt>
      <trkpt lat="47.04668" lon="6.63619">
        <ele>757.9</ele>
        <time>2021-08-12T16:25:44Z</time>
      </trkpt>
      <trkpt lat="47.04665" lon="6.63604">
        <ele>757.9</ele>
        <time>2021-08-12T16:25:46Z</time>
      </trkpt>
      <trkpt lat="47.04662" lon="6.63597">
        <ele>757.9</ele>
        <time>2021-08-12T16:25:47Z</time>
      </trkpt>
      <trkpt lat="47.04657" lon="6.63584">
        <ele>757.9</ele>
        <time>2021-08-12T16:25:49Z</time>
      </trkpt>
      <trkpt lat="47.04653" lon="6.63571">
        <ele>757.9</ele>
        <time>2021-08-12T16:25:51Z</time>
      </trkpt>
      <trkpt lat="47.04649" lon="6.63556">
        <ele>757.9</ele>
        <time>2021-08-12T16:25:53Z</time>
      </trkpt>
      <trkpt lat="47.04647" lon="6.63549">
        <ele>757.9</ele>
        <time>2021-08-12T16:25:54Z</time>
      </trkpt>
      <trkpt lat="47.04641" lon="6.63535">
        <ele>757.9</ele>
        <time>2021-08-12T16:25:56Z</time>
      </trkpt>
      <trkpt lat="47.04632" lon="6.63525">
        <ele>757.9</ele>
        <time>2021-08-12T16:25:58Z</time>
      </trkpt>
      <trkpt lat="47.04627" lon="6.6352">
        <ele>757.9</ele>
        <time>2021-08-12T16:25:59Z</time>
      </trkpt>
      <trkpt lat="47.04619" lon="6.6351">
        <ele>757.9</ele>
        <time>2021-08-12T16:26:01Z</time>
      </trkpt>
      <trkpt lat="47.04615" lon="6.63505">
        <ele>757.9</ele>
        <time>2021-08-12T16:26:02Z</time>
      </trkpt>
      <trkpt lat="47.04607" lon="6.63494">
        <ele>757.9</ele>
        <time>2021-08-12T16:26:04Z</time>
      </trkpt>
      <trkpt lat="47.046" lon="6.63479">
        <ele>757.9</ele>
        <time>2021-08-12T16:26:06Z</time>
      </trkpt>
      <trkpt lat="47.04595" lon="6.63461">
        <ele>757.9</ele>
        <time>2021-08-12T16:26:08Z</time>
      </trkpt>
      <trkpt lat="47.04591" lon="6.63443">
        <ele>757.9</ele>
        <time>2021-08-12T16:26:10Z</time>
      </trkpt>
      <trkpt lat="47.04589" lon="6.63434">
        <ele>757.9</ele>
        <time>2021-08-12T16:26:11Z</time>
      </trkpt>
      <trkpt lat="47.04588" lon="6.63425">
        <ele>757.9</ele>
        <time>2021-08-12T16:26:12Z</time>
      </trkpt>
      <trkpt lat="47.04585" lon="6.63409">
        <ele>757.9</ele>
        <time>2021-08-12T16:26:14Z</time>
      </trkpt>
      <trkpt lat="47.04585" lon="6.63401">
        <ele>758</ele>
        <time>2021-08-12T16:26:15Z</time>
      </trkpt>
      <trkpt lat="47.04585" lon="6.63393">
        <ele>758</ele>
        <time>2021-08-12T16:26:16Z</time>
      </trkpt>
      <trkpt lat="47.04585" lon="6.63386">
        <ele>758</ele>
        <time>2021-08-12T16:26:17Z</time>
      </trkpt>
      <trkpt lat="47.04587" lon="6.63368">
        <ele>758</ele>
        <time>2021-08-12T16:26:19Z</time>
      </trkpt>
      <trkpt lat="47.04589" lon="6.63351">
        <ele>758</ele>
        <time>2021-08-12T16:26:21Z</time>
      </trkpt>
      <trkpt lat="47.04592" lon="6.63343">
        <ele>758</ele>
        <time>2021-08-12T16:26:22Z</time>
      </trkpt>
      <trkpt lat="47.04593" lon="6.63335">
        <ele>758.1</ele>
        <time>2021-08-12T16:26:23Z</time>
      </trkpt>
      <trkpt lat="47.04594" lon="6.63327">
        <ele>758</ele>
        <time>2021-08-12T16:26:24Z</time>
      </trkpt>
      <trkpt lat="47.04597" lon="6.63313">
        <ele>758</ele>
        <time>2021-08-12T16:26:26Z</time>
      </trkpt>
      <trkpt lat="47.04601" lon="6.63298">
        <ele>758</ele>
        <time>2021-08-12T16:26:28Z</time>
      </trkpt>
      <trkpt lat="47.04604" lon="6.63283">
        <ele>757.9</ele>
        <time>2021-08-12T16:26:30Z</time>
      </trkpt>
      <trkpt lat="47.04606" lon="6.63275">
        <ele>757.9</ele>
        <time>2021-08-12T16:26:31Z</time>
      </trkpt>
      <trkpt lat="47.0461" lon="6.63261">
        <ele>757.9</ele>
        <time>2021-08-12T16:26:33Z</time>
      </trkpt>
      <trkpt lat="47.04613" lon="6.63253">
        <ele>757.9</ele>
        <time>2021-08-12T16:26:34Z</time>
      </trkpt>
      <trkpt lat="47.04616" lon="6.63237">
        <ele>758</ele>
        <time>2021-08-12T16:26:36Z</time>
      </trkpt>
      <trkpt lat="47.04616" lon="6.6323">
        <ele>758</ele>
        <time>2021-08-12T16:26:37Z</time>
      </trkpt>
      <trkpt lat="47.04617" lon="6.63223">
        <ele>758</ele>
        <time>2021-08-12T16:26:38Z</time>
      </trkpt>
      <trkpt lat="47.0462" lon="6.63208">
        <ele>758.1</ele>
        <time>2021-08-12T16:26:40Z</time>
      </trkpt>
      <trkpt lat="47.04621" lon="6.63199">
        <ele>758.1</ele>
        <time>2021-08-12T16:26:41Z</time>
      </trkpt>
      <trkpt lat="47.04624" lon="6.63181">
        <ele>758.1</ele>
        <time>2021-08-12T16:26:43Z</time>
      </trkpt>
      <trkpt lat="47.04626" lon="6.63172">
        <ele>758.1</ele>
        <time>2021-08-12T16:26:44Z</time>
      </trkpt>
      <trkpt lat="47.04629" lon="6.63164">
        <ele>758.1</ele>
        <time>2021-08-12T16:26:45Z</time>
      </trkpt>
      <trkpt lat="47.04632" lon="6.63147">
        <ele>758.1</ele>
        <time>2021-08-12T16:26:47Z</time>
      </trkpt>
      <trkpt lat="47.04633" lon="6.6313">
        <ele>758.1</ele>
        <time>2021-08-12T16:26:49Z</time>
      </trkpt>
      <trkpt lat="47.04636" lon="6.63112">
        <ele>758.1</ele>
        <time>2021-08-12T16:26:51Z</time>
      </trkpt>
      <trkpt lat="47.04638" lon="6.63102">
        <ele>758</ele>
        <time>2021-08-12T16:26:52Z</time>
      </trkpt>
      <trkpt lat="47.04641" lon="6.63093">
        <ele>758</ele>
        <time>2021-08-12T16:26:53Z</time>
      </trkpt>
      <trkpt lat="47.04647" lon="6.63076">
        <ele>758</ele>
        <time>2021-08-12T16:26:55Z</time>
      </trkpt>
      <trkpt lat="47.04649" lon="6.63069">
        <ele>758</ele>
        <time>2021-08-12T16:26:56Z</time>
      </trkpt>
      <trkpt lat="47.04654" lon="6.63055">
        <ele>758.1</ele>
        <time>2021-08-12T16:26:58Z</time>
      </trkpt>
      <trkpt lat="47.04657" lon="6.63049">
        <ele>758.1</ele>
        <time>2021-08-12T16:26:59Z</time>
      </trkpt>
      <trkpt lat="47.04662" lon="6.63035">
        <ele>758.1</ele>
        <time>2021-08-12T16:27:01Z</time>
      </trkpt>
      <trkpt lat="47.04664" lon="6.63028">
        <ele>758.2</ele>
        <time>2021-08-12T16:27:02Z</time>
      </trkpt>
      <trkpt lat="47.04669" lon="6.63014">
        <ele>758.3</ele>
        <time>2021-08-12T16:27:04Z</time>
      </trkpt>
      <trkpt lat="47.04672" lon="6.63003">
        <ele>758.3</ele>
        <time>2021-08-12T16:27:06Z</time>
      </trkpt>
      <trkpt lat="47.04674" lon="6.62996">
        <ele>758.3</ele>
        <time>2021-08-12T16:27:07Z</time>
      </trkpt>
      <trkpt lat="47.04682" lon="6.62981">
        <ele>758.4</ele>
        <time>2021-08-12T16:27:09Z</time>
      </trkpt>
      <trkpt lat="47.04691" lon="6.6297">
        <ele>758.5</ele>
        <time>2021-08-12T16:27:11Z</time>
      </trkpt>
      <trkpt lat="47.04694" lon="6.62965">
        <ele>758.5</ele>
        <time>2021-08-12T16:27:12Z</time>
      </trkpt>
      <trkpt lat="47.047" lon="6.62958">
        <ele>758.5</ele>
        <time>2021-08-12T16:27:14Z</time>
      </trkpt>
      <trkpt lat="47.04703" lon="6.62952">
        <ele>758.5</ele>
        <time>2021-08-12T16:27:15Z</time>
      </trkpt>
      <trkpt lat="47.04707" lon="6.62947">
        <ele>758.5</ele>
        <time>2021-08-12T16:27:16Z</time>
      </trkpt>
      <trkpt lat="47.04715" lon="6.6294">
        <ele>758.6</ele>
        <time>2021-08-12T16:27:18Z</time>
      </trkpt>
      <trkpt lat="47.04727" lon="6.6294">
        <ele>758.6</ele>
        <time>2021-08-12T16:27:20Z</time>
      </trkpt>
      <trkpt lat="47.04733" lon="6.62938">
        <ele>758.6</ele>
        <time>2021-08-12T16:27:21Z</time>
      </trkpt>
      <trkpt lat="47.04743" lon="6.62934">
        <ele>758.6</ele>
        <time>2021-08-12T16:27:23Z</time>
      </trkpt>
      <trkpt lat="47.04745" lon="6.62928">
        <ele>758.6</ele>
        <time>2021-08-12T16:27:24Z</time>
      </trkpt>
      <trkpt lat="47.04753" lon="6.62919">
        <ele>758.6</ele>
        <time>2021-08-12T16:27:26Z</time>
      </trkpt>
      <trkpt lat="47.0476" lon="6.62911">
        <ele>758.6</ele>
        <time>2021-08-12T16:27:28Z</time>
      </trkpt>
      <trkpt lat="47.04763" lon="6.62906">
        <ele>758.6</ele>
        <time>2021-08-12T16:27:29Z</time>
      </trkpt>
      <trkpt lat="47.04766" lon="6.629">
        <ele>758.6</ele>
        <time>2021-08-12T16:27:30Z</time>
      </trkpt>
      <trkpt lat="47.04774" lon="6.62888">
        <ele>758.5</ele>
        <time>2021-08-12T16:27:32Z</time>
      </trkpt>
      <trkpt lat="47.04778" lon="6.62868">
        <ele>758.5</ele>
        <time>2021-08-12T16:27:34Z</time>
      </trkpt>
      <trkpt lat="47.0478" lon="6.62847">
        <ele>758.5</ele>
        <time>2021-08-12T16:27:36Z</time>
      </trkpt>
      <trkpt lat="47.04787" lon="6.62835">
        <ele>758.5</ele>
        <time>2021-08-12T16:27:38Z</time>
      </trkpt>
      <trkpt lat="47.04791" lon="6.62831">
        <ele>758.5</ele>
        <time>2021-08-12T16:27:39Z</time>
      </trkpt>
      <trkpt lat="47.04797" lon="6.62829">
        <ele>758.5</ele>
        <time>2021-08-12T16:27:40Z</time>
      </trkpt>
      <trkpt lat="47.04809" lon="6.62826">
        <ele>758.5</ele>
        <time>2021-08-12T16:27:42Z</time>
      </trkpt>
      <trkpt lat="47.04819" lon="6.62819">
        <ele>758.5</ele>
        <time>2021-08-12T16:27:44Z</time>
      </trkpt>
      <trkpt lat="47.04828" lon="6.62811">
        <ele>758.5</ele>
        <time>2021-08-12T16:27:46Z</time>
      </trkpt>
      <trkpt lat="47.04831" lon="6.62803">
        <ele>758.4</ele>
        <time>2021-08-12T16:27:47Z</time>
      </trkpt>
      <trkpt lat="47.04834" lon="6.62794">
        <ele>758.4</ele>
        <time>2021-08-12T16:27:48Z</time>
      </trkpt>
      <trkpt lat="47.04837" lon="6.62786">
        <ele>758.4</ele>
        <time>2021-08-12T16:27:49Z</time>
      </trkpt>
      <trkpt lat="47.04844" lon="6.62774">
        <ele>758.4</ele>
        <time>2021-08-12T16:27:51Z</time>
      </trkpt>
      <trkpt lat="47.04848" lon="6.62768">
        <ele>758.3</ele>
        <time>2021-08-12T16:27:52Z</time>
      </trkpt>
      <trkpt lat="47.04855" lon="6.62756">
        <ele>758.3</ele>
        <time>2021-08-12T16:27:54Z</time>
      </trkpt>
      <trkpt lat="47.04858" lon="6.6275">
        <ele>758.3</ele>
        <time>2021-08-12T16:27:55Z</time>
      </trkpt>
      <trkpt lat="47.04861" lon="6.62743">
        <ele>758.4</ele>
        <time>2021-08-12T16:27:56Z</time>
      </trkpt>
      <trkpt lat="47.04867" lon="6.62728">
        <ele>758.4</ele>
        <time>2021-08-12T16:27:58Z</time>
      </trkpt>
      <trkpt lat="47.0487" lon="6.6272">
        <ele>758.4</ele>
        <time>2021-08-12T16:27:59Z</time>
      </trkpt>
      <trkpt lat="47.04874" lon="6.62704">
        <ele>758.4</ele>
        <time>2021-08-12T16:28:01Z</time>
      </trkpt>
      <trkpt lat="47.04876" lon="6.62697">
        <ele>758.4</ele>
        <time>2021-08-12T16:28:02Z</time>
      </trkpt>
      <trkpt lat="47.04881" lon="6.62686">
        <ele>758.4</ele>
        <time>2021-08-12T16:28:04Z</time>
      </trkpt>
      <trkpt lat="47.04883" lon="6.62679">
        <ele>758.4</ele>
        <time>2021-08-12T16:28:05Z</time>
      </trkpt>
      <trkpt lat="47.04886" lon="6.62673">
        <ele>758.3</ele>
        <time>2021-08-12T16:28:06Z</time>
      </trkpt>
      <trkpt lat="47.04898" lon="6.62656">
        <ele>758.3</ele>
        <time>2021-08-12T16:28:08Z</time>
      </trkpt>
      <trkpt lat="47.04901" lon="6.62646">
        <ele>758.3</ele>
        <time>2021-08-12T16:28:09Z</time>
      </trkpt>
      <trkpt lat="47.04905" lon="6.62635">
        <ele>758.2</ele>
        <time>2021-08-12T16:28:10Z</time>
      </trkpt>
      <trkpt lat="47.04912" lon="6.6262">
        <ele>758.2</ele>
        <time>2021-08-12T16:28:12Z</time>
      </trkpt>
      <trkpt lat="47.04917" lon="6.62614">
        <ele>758.2</ele>
        <time>2021-08-12T16:28:13Z</time>
      </trkpt>
      <trkpt lat="47.0492" lon="6.62612">
        <ele>758.1</ele>
        <time>2021-08-12T16:28:15Z</time>
      </trkpt>
      <trkpt lat="47.04923" lon="6.62611">
        <ele>758.1</ele>
        <time>2021-08-12T16:28:16Z</time>
      </trkpt>
      <trkpt lat="47.04926" lon="6.6261">
        <ele>758.1</ele>
        <time>2021-08-12T16:28:17Z</time>
      </trkpt>
      <trkpt lat="47.0493" lon="6.62607">
        <ele>758.1</ele>
        <time>2021-08-12T16:28:18Z</time>
      </trkpt>
      <trkpt lat="47.04937" lon="6.62604">
        <ele>758</ele>
        <time>2021-08-12T16:28:19Z</time>
      </trkpt>
      <trkpt lat="47.04951" lon="6.62599">
        <ele>757.9</ele>
        <time>2021-08-12T16:28:21Z</time>
      </trkpt>
      <trkpt lat="47.04961" lon="6.62595">
        <ele>757.8</ele>
        <time>2021-08-12T16:28:22Z</time>
      </trkpt>
      <trkpt lat="47.04969" lon="6.62592">
        <ele>757.8</ele>
        <time>2021-08-12T16:28:23Z</time>
      </trkpt>
      <trkpt lat="47.04976" lon="6.62588">
        <ele>757.8</ele>
        <time>2021-08-12T16:28:24Z</time>
      </trkpt>
      <trkpt lat="47.0499" lon="6.62582">
        <ele>757.8</ele>
        <time>2021-08-12T16:28:26Z</time>
      </trkpt>
      <trkpt lat="47.05002" lon="6.6258">
        <ele>757.7</ele>
        <time>2021-08-12T16:28:28Z</time>
      </trkpt>
      <trkpt lat="47.05014" lon="6.62577">
        <ele>757.7</ele>
        <time>2021-08-12T16:28:30Z</time>
      </trkpt>
      <trkpt lat="47.05023" lon="6.62566">
        <ele>757.7</ele>
        <time>2021-08-12T16:28:32Z</time>
      </trkpt>
      <trkpt lat="47.05028" lon="6.62548">
        <ele>757.6</ele>
        <time>2021-08-12T16:28:34Z</time>
      </trkpt>
      <trkpt lat="47.05034" lon="6.62529">
        <ele>757.6</ele>
        <time>2021-08-12T16:28:36Z</time>
      </trkpt>
      <trkpt lat="47.05037" lon="6.62519">
        <ele>757.6</ele>
        <time>2021-08-12T16:28:37Z</time>
      </trkpt>
      <trkpt lat="47.05039" lon="6.62508">
        <ele>757.6</ele>
        <time>2021-08-12T16:28:38Z</time>
      </trkpt>
      <trkpt lat="47.05043" lon="6.62489">
        <ele>757.6</ele>
        <time>2021-08-12T16:28:40Z</time>
      </trkpt>
      <trkpt lat="47.05044" lon="6.62477">
        <ele>757.6</ele>
        <time>2021-08-12T16:28:41Z</time>
      </trkpt>
      <trkpt lat="47.05045" lon="6.62457">
        <ele>757.6</ele>
        <time>2021-08-12T16:28:43Z</time>
      </trkpt>
      <trkpt lat="47.05045" lon="6.62447">
        <ele>757.6</ele>
        <time>2021-08-12T16:28:44Z</time>
      </trkpt>
      <trkpt lat="47.05043" lon="6.6243">
        <ele>757.6</ele>
        <time>2021-08-12T16:28:46Z</time>
      </trkpt>
      <trkpt lat="47.05041" lon="6.62411">
        <ele>757.7</ele>
        <time>2021-08-12T16:28:48Z</time>
      </trkpt>
      <trkpt lat="47.05041" lon="6.62392">
        <ele>757.7</ele>
        <time>2021-08-12T16:28:50Z</time>
      </trkpt>
      <trkpt lat="47.0504" lon="6.62383">
        <ele>757.7</ele>
        <time>2021-08-12T16:28:51Z</time>
      </trkpt>
      <trkpt lat="47.05039" lon="6.62375">
        <ele>757.7</ele>
        <time>2021-08-12T16:28:52Z</time>
      </trkpt>
      <trkpt lat="47.05037" lon="6.62355">
        <ele>757.8</ele>
        <time>2021-08-12T16:28:54Z</time>
      </trkpt>
      <trkpt lat="47.05037" lon="6.62337">
        <ele>757.9</ele>
        <time>2021-08-12T16:28:56Z</time>
      </trkpt>
      <trkpt lat="47.05037" lon="6.6232">
        <ele>757.9</ele>
        <time>2021-08-12T16:28:58Z</time>
      </trkpt>
      <trkpt lat="47.05036" lon="6.62303">
        <ele>758</ele>
        <time>2021-08-12T16:29:00Z</time>
      </trkpt>
      <trkpt lat="47.05036" lon="6.62294">
        <ele>758.1</ele>
        <time>2021-08-12T16:29:01Z</time>
      </trkpt>
      <trkpt lat="47.05037" lon="6.62285">
        <ele>758.1</ele>
        <time>2021-08-12T16:29:02Z</time>
      </trkpt>
      <trkpt lat="47.05038" lon="6.62266">
        <ele>758.3</ele>
        <time>2021-08-12T16:29:04Z</time>
      </trkpt>
      <trkpt lat="47.0504" lon="6.62247">
        <ele>758.5</ele>
        <time>2021-08-12T16:29:06Z</time>
      </trkpt>
      <trkpt lat="47.0504" lon="6.62237">
        <ele>758.6</ele>
        <time>2021-08-12T16:29:07Z</time>
      </trkpt>
      <trkpt lat="47.05039" lon="6.62219">
        <ele>758.7</ele>
        <time>2021-08-12T16:29:09Z</time>
      </trkpt>
      <trkpt lat="47.05041" lon="6.62204">
        <ele>758.8</ele>
        <time>2021-08-12T16:29:11Z</time>
      </trkpt>
      <trkpt lat="47.05041" lon="6.62196">
        <ele>758.8</ele>
        <time>2021-08-12T16:29:12Z</time>
      </trkpt>
      <trkpt lat="47.05042" lon="6.62188">
        <ele>758.8</ele>
        <time>2021-08-12T16:29:13Z</time>
      </trkpt>
      <trkpt lat="47.05045" lon="6.62172">
        <ele>758.8</ele>
        <time>2021-08-12T16:29:15Z</time>
      </trkpt>
      <trkpt lat="47.05047" lon="6.62164">
        <ele>758.8</ele>
        <time>2021-08-12T16:29:16Z</time>
      </trkpt>
      <trkpt lat="47.05049" lon="6.62157">
        <ele>758.8</ele>
        <time>2021-08-12T16:29:17Z</time>
      </trkpt>
      <trkpt lat="47.05052" lon="6.62143">
        <ele>758.7</ele>
        <time>2021-08-12T16:29:19Z</time>
      </trkpt>
      <trkpt lat="47.05057" lon="6.62129">
        <ele>758.7</ele>
        <time>2021-08-12T16:29:21Z</time>
      </trkpt>
      <trkpt lat="47.0506" lon="6.62115">
        <ele>758.6</ele>
        <time>2021-08-12T16:29:23Z</time>
      </trkpt>
      <trkpt lat="47.05066" lon="6.62101">
        <ele>758.6</ele>
        <time>2021-08-12T16:29:25Z</time>
      </trkpt>
      <trkpt lat="47.05069" lon="6.62094">
        <ele>758.7</ele>
        <time>2021-08-12T16:29:26Z</time>
      </trkpt>
      <trkpt lat="47.05075" lon="6.62081">
        <ele>758.7</ele>
        <time>2021-08-12T16:29:28Z</time>
      </trkpt>
      <trkpt lat="47.05078" lon="6.62075">
        <ele>758.7</ele>
        <time>2021-08-12T16:29:29Z</time>
      </trkpt>
      <trkpt lat="47.05081" lon="6.62069">
        <ele>758.7</ele>
        <time>2021-08-12T16:29:30Z</time>
      </trkpt>
      <trkpt lat="47.05086" lon="6.62058">
        <ele>758.7</ele>
        <time>2021-08-12T16:29:32Z</time>
      </trkpt>
      <trkpt lat="47.05091" lon="6.62047">
        <ele>758.7</ele>
        <time>2021-08-12T16:29:34Z</time>
      </trkpt>
      <trkpt lat="47.05098" lon="6.62031">
        <ele>758.7</ele>
        <time>2021-08-12T16:29:36Z</time>
      </trkpt>
      <trkpt lat="47.05106" lon="6.62018">
        <ele>758.6</ele>
        <time>2021-08-12T16:29:38Z</time>
      </trkpt>
      <trkpt lat="47.0511" lon="6.62011">
        <ele>758.6</ele>
        <time>2021-08-12T16:29:39Z</time>
      </trkpt>
      <trkpt lat="47.0512" lon="6.61999">
        <ele>758.6</ele>
        <time>2021-08-12T16:29:41Z</time>
      </trkpt>
      <trkpt lat="47.05126" lon="6.61994">
        <ele>758.5</ele>
        <time>2021-08-12T16:29:42Z</time>
      </trkpt>
      <trkpt lat="47.05131" lon="6.61988">
        <ele>758.5</ele>
        <time>2021-08-12T16:29:43Z</time>
      </trkpt>
      <trkpt lat="47.05136" lon="6.61981">
        <ele>758.5</ele>
        <time>2021-08-12T16:29:44Z</time>
      </trkpt>
      <trkpt lat="47.05145" lon="6.61968">
        <ele>758.6</ele>
        <time>2021-08-12T16:29:46Z</time>
      </trkpt>
      <trkpt lat="47.05149" lon="6.61961">
        <ele>758.6</ele>
        <time>2021-08-12T16:29:47Z</time>
      </trkpt>
      <trkpt lat="47.05153" lon="6.61955">
        <ele>758.6</ele>
        <time>2021-08-12T16:29:48Z</time>
      </trkpt>
      <trkpt lat="47.05157" lon="6.61949">
        <ele>758.6</ele>
        <time>2021-08-12T16:29:49Z</time>
      </trkpt>
      <trkpt lat="47.05165" lon="6.61937">
        <ele>758.5</ele>
        <time>2021-08-12T16:29:51Z</time>
      </trkpt>
      <trkpt lat="47.05168" lon="6.61932">
        <ele>758.5</ele>
        <time>2021-08-12T16:29:52Z</time>
      </trkpt>
      <trkpt lat="47.05175" lon="6.61925">
        <ele>758.5</ele>
        <time>2021-08-12T16:29:54Z</time>
      </trkpt>
      <trkpt lat="47.05178" lon="6.61922">
        <ele>758.5</ele>
        <time>2021-08-12T16:29:55Z</time>
      </trkpt>
      <trkpt lat="47.05186" lon="6.61914">
        <ele>758.5</ele>
        <time>2021-08-12T16:29:57Z</time>
      </trkpt>
      <trkpt lat="47.05195" lon="6.61906">
        <ele>758.6</ele>
        <time>2021-08-12T16:29:59Z</time>
      </trkpt>
      <trkpt lat="47.05203" lon="6.61899">
        <ele>758.5</ele>
        <time>2021-08-12T16:30:01Z</time>
      </trkpt>
      <trkpt lat="47.05207" lon="6.61895">
        <ele>758.5</ele>
        <time>2021-08-12T16:30:02Z</time>
      </trkpt>
      <trkpt lat="47.05215" lon="6.61886">
        <ele>758.5</ele>
        <time>2021-08-12T16:30:04Z</time>
      </trkpt>
      <trkpt lat="47.05223" lon="6.61875">
        <ele>758.5</ele>
        <time>2021-08-12T16:30:06Z</time>
      </trkpt>
      <trkpt lat="47.05226" lon="6.61869">
        <ele>758.4</ele>
        <time>2021-08-12T16:30:07Z</time>
      </trkpt>
      <trkpt lat="47.05229" lon="6.61862">
        <ele>758.4</ele>
        <time>2021-08-12T16:30:08Z</time>
      </trkpt>
      <trkpt lat="47.05237" lon="6.61849">
        <ele>758.4</ele>
        <time>2021-08-12T16:30:10Z</time>
      </trkpt>
      <trkpt lat="47.05241" lon="6.61843">
        <ele>758.4</ele>
        <time>2021-08-12T16:30:11Z</time>
      </trkpt>
      <trkpt lat="47.05244" lon="6.61838">
        <ele>758.4</ele>
        <time>2021-08-12T16:30:12Z</time>
      </trkpt>
      <trkpt lat="47.05248" lon="6.61831">
        <ele>758.4</ele>
        <time>2021-08-12T16:30:13Z</time>
      </trkpt>
      <trkpt lat="47.05258" lon="6.61814">
        <ele>758.4</ele>
        <time>2021-08-12T16:30:15Z</time>
      </trkpt>
      <trkpt lat="47.05263" lon="6.61806">
        <ele>758.4</ele>
        <time>2021-08-12T16:30:16Z</time>
      </trkpt>
      <trkpt lat="47.05271" lon="6.61791">
        <ele>758.4</ele>
        <time>2021-08-12T16:30:18Z</time>
      </trkpt>
      <trkpt lat="47.05275" lon="6.61784">
        <ele>758.4</ele>
        <time>2021-08-12T16:30:19Z</time>
      </trkpt>
      <trkpt lat="47.05281" lon="6.6177">
        <ele>758.4</ele>
        <time>2021-08-12T16:30:20Z</time>
      </trkpt>
      <trkpt lat="47.05285" lon="6.61763">
        <ele>758.3</ele>
        <time>2021-08-12T16:30:21Z</time>
      </trkpt>
      <trkpt lat="47.05288" lon="6.61757">
        <ele>758.3</ele>
        <time>2021-08-12T16:30:22Z</time>
      </trkpt>
      <trkpt lat="47.05292" lon="6.61743">
        <ele>758.3</ele>
        <time>2021-08-12T16:30:24Z</time>
      </trkpt>
      <trkpt lat="47.05294" lon="6.61736">
        <ele>758.3</ele>
        <time>2021-08-12T16:30:25Z</time>
      </trkpt>
      <trkpt lat="47.05297" lon="6.61731">
        <ele>758.3</ele>
        <time>2021-08-12T16:30:26Z</time>
      </trkpt>
      <trkpt lat="47.05304" lon="6.61719">
        <ele>758.3</ele>
        <time>2021-08-12T16:30:28Z</time>
      </trkpt>
      <trkpt lat="47.05309" lon="6.61706">
        <ele>758.3</ele>
        <time>2021-08-12T16:30:30Z</time>
      </trkpt>
      <trkpt lat="47.05314" lon="6.61693">
        <ele>758.3</ele>
        <time>2021-08-12T16:30:32Z</time>
      </trkpt>
      <trkpt lat="47.05316" lon="6.61686">
        <ele>758.3</ele>
        <time>2021-08-12T16:30:33Z</time>
      </trkpt>
      <trkpt lat="47.05317" lon="6.61679">
        <ele>758.3</ele>
        <time>2021-08-12T16:30:34Z</time>
      </trkpt>
      <trkpt lat="47.05319" lon="6.61671">
        <ele>758.4</ele>
        <time>2021-08-12T16:30:35Z</time>
      </trkpt>
      <trkpt lat="47.05323" lon="6.61655">
        <ele>758.2</ele>
        <time>2021-08-12T16:30:37Z</time>
      </trkpt>
      <trkpt lat="47.05325" lon="6.61648">
        <ele>758.1</ele>
        <time>2021-08-12T16:30:38Z</time>
      </trkpt>
      <trkpt lat="47.05328" lon="6.61631">
        <ele>758.1</ele>
        <time>2021-08-12T16:30:40Z</time>
      </trkpt>
      <trkpt lat="47.0533" lon="6.61624">
        <ele>758.1</ele>
        <time>2021-08-12T16:30:41Z</time>
      </trkpt>
      <trkpt lat="47.05332" lon="6.61616">
        <ele>758.1</ele>
        <time>2021-08-12T16:30:42Z</time>
      </trkpt>
      <trkpt lat="47.05334" lon="6.61603">
        <ele>758.1</ele>
        <time>2021-08-12T16:30:44Z</time>
      </trkpt>
      <trkpt lat="47.05334" lon="6.61591">
        <ele>758.1</ele>
        <time>2021-08-12T16:30:46Z</time>
      </trkpt>
      <trkpt lat="47.05334" lon="6.61584">
        <ele>758.1</ele>
        <time>2021-08-12T16:30:47Z</time>
      </trkpt>
      <trkpt lat="47.05335" lon="6.61569">
        <ele>758.1</ele>
        <time>2021-08-12T16:30:49Z</time>
      </trkpt>
      <trkpt lat="47.05334" lon="6.61563">
        <ele>758.2</ele>
        <time>2021-08-12T16:30:50Z</time>
      </trkpt>
      <trkpt lat="47.05333" lon="6.61546">
        <ele>758.2</ele>
        <time>2021-08-12T16:30:52Z</time>
      </trkpt>
      <trkpt lat="47.0533" lon="6.6153">
        <ele>758.2</ele>
        <time>2021-08-12T16:30:54Z</time>
      </trkpt>
      <trkpt lat="47.05332" lon="6.61519">
        <ele>758.2</ele>
        <time>2021-08-12T16:30:56Z</time>
      </trkpt>
      <trkpt lat="47.05333" lon="6.61518">
        <ele>758.2</ele>
        <time>2021-08-12T16:30:57Z</time>
      </trkpt>
      <trkpt lat="47.05334" lon="6.61509">
        <ele>758.3</ele>
        <time>2021-08-12T16:30:59Z</time>
      </trkpt>
      <trkpt lat="47.0533" lon="6.61491">
        <ele>758.3</ele>
        <time>2021-08-12T16:31:00Z</time>
      </trkpt>
      <trkpt lat="47.0533" lon="6.61484">
        <ele>758.3</ele>
        <time>2021-08-12T16:31:01Z</time>
      </trkpt>
      <trkpt lat="47.05332" lon="6.61476">
        <ele>758.3</ele>
        <time>2021-08-12T16:31:02Z</time>
      </trkpt>
      <trkpt lat="47.05334" lon="6.61463">
        <ele>758.3</ele>
        <time>2021-08-12T16:31:04Z</time>
      </trkpt>
      <trkpt lat="47.05335" lon="6.61449">
        <ele>758.3</ele>
        <time>2021-08-12T16:31:06Z</time>
      </trkpt>
      <trkpt lat="47.05335" lon="6.61433">
        <ele>758.3</ele>
        <time>2021-08-12T16:31:08Z</time>
      </trkpt>
      <trkpt lat="47.05335" lon="6.61419">
        <ele>758.4</ele>
        <time>2021-08-12T16:31:10Z</time>
      </trkpt>
      <trkpt lat="47.05335" lon="6.6141">
        <ele>758.4</ele>
        <time>2021-08-12T16:31:12Z</time>
      </trkpt>
      <trkpt lat="47.05335" lon="6.61399">
        <ele>758.5</ele>
        <time>2021-08-12T16:31:14Z</time>
      </trkpt>
      <trkpt lat="47.05335" lon="6.61395">
        <ele>758.5</ele>
        <time>2021-08-12T16:31:15Z</time>
      </trkpt>
      <trkpt lat="47.05336" lon="6.61388">
        <ele>758.6</ele>
        <time>2021-08-12T16:31:17Z</time>
      </trkpt>
      <trkpt lat="47.05336" lon="6.61375">
        <ele>758.7</ele>
        <time>2021-08-12T16:31:18Z</time>
      </trkpt>
      <trkpt lat="47.05337" lon="6.61362">
        <ele>758.8</ele>
        <time>2021-08-12T16:31:20Z</time>
      </trkpt>
      <trkpt lat="47.0534" lon="6.61352">
        <ele>758.9</ele>
        <time>2021-08-12T16:31:22Z</time>
      </trkpt>
      <trkpt lat="47.0534" lon="6.61344">
        <ele>759</ele>
        <time>2021-08-12T16:31:23Z</time>
      </trkpt>
      <trkpt lat="47.05342" lon="6.61337">
        <ele>759.1</ele>
        <time>2021-08-12T16:31:24Z</time>
      </trkpt>
      <trkpt lat="47.05342" lon="6.61321">
        <ele>759.4</ele>
        <time>2021-08-12T16:31:26Z</time>
      </trkpt>
      <trkpt lat="47.05344" lon="6.61307">
        <ele>759.7</ele>
        <time>2021-08-12T16:31:28Z</time>
      </trkpt>
      <trkpt lat="47.05347" lon="6.61299">
        <ele>759.8</ele>
        <time>2021-08-12T16:31:30Z</time>
      </trkpt>
      <trkpt lat="47.05348" lon="6.61293">
        <ele>760</ele>
        <time>2021-08-12T16:31:32Z</time>
      </trkpt>
      <trkpt lat="47.05349" lon="6.61289">
        <ele>760</ele>
        <time>2021-08-12T16:31:33Z</time>
      </trkpt>
      <trkpt lat="47.05351" lon="6.61286">
        <ele>760.1</ele>
        <time>2021-08-12T16:31:34Z</time>
      </trkpt>
      <trkpt lat="47.05353" lon="6.6128">
        <ele>760.2</ele>
        <time>2021-08-12T16:31:35Z</time>
      </trkpt>
      <trkpt lat="47.05354" lon="6.61276">
        <ele>760.3</ele>
        <time>2021-08-12T16:31:36Z</time>
      </trkpt>
      <trkpt lat="47.05355" lon="6.61271">
        <ele>760.4</ele>
        <time>2021-08-12T16:31:38Z</time>
      </trkpt>
      <trkpt lat="47.05356" lon="6.61266">
        <ele>760.5</ele>
        <time>2021-08-12T16:31:39Z</time>
      </trkpt>
      <trkpt lat="47.05357" lon="6.61262">
        <ele>760.6</ele>
        <time>2021-08-12T16:31:40Z</time>
      </trkpt>
      <trkpt lat="47.05359" lon="6.61252">
        <ele>760.8</ele>
        <time>2021-08-12T16:31:42Z</time>
      </trkpt>
      <trkpt lat="47.05361" lon="6.61247">
        <ele>760.9</ele>
        <time>2021-08-12T16:31:43Z</time>
      </trkpt>
      <trkpt lat="47.05364" lon="6.6124">
        <ele>761</ele>
        <time>2021-08-12T16:31:45Z</time>
      </trkpt>
      <trkpt lat="47.05365" lon="6.61234">
        <ele>761.1</ele>
        <time>2021-08-12T16:31:46Z</time>
      </trkpt>
      <trkpt lat="47.05367" lon="6.61229">
        <ele>761.2</ele>
        <time>2021-08-12T16:31:47Z</time>
      </trkpt>
      <trkpt lat="47.05367" lon="6.61225">
        <ele>761.3</ele>
        <time>2021-08-12T16:31:48Z</time>
      </trkpt>
      <trkpt lat="47.05368" lon="6.61217">
        <ele>761.4</ele>
        <time>2021-08-12T16:31:50Z</time>
      </trkpt>
      <trkpt lat="47.0537" lon="6.61212">
        <ele>761.5</ele>
        <time>2021-08-12T16:31:51Z</time>
      </trkpt>
      <trkpt lat="47.05371" lon="6.61208">
        <ele>761.5</ele>
        <time>2021-08-12T16:31:52Z</time>
      </trkpt>
      <trkpt lat="47.05373" lon="6.61203">
        <ele>761</ele>
        <time>2021-08-12T16:31:54Z</time>
      </trkpt>
      <trkpt lat="47.05375" lon="6.61199">
        <ele>761.1</ele>
        <time>2021-08-12T16:31:55Z</time>
      </trkpt>
      <trkpt lat="47.05377" lon="6.61193">
        <ele>761.2</ele>
        <time>2021-08-12T16:31:56Z</time>
      </trkpt>
      <trkpt lat="47.05378" lon="6.61189">
        <ele>761.2</ele>
        <time>2021-08-12T16:31:57Z</time>
      </trkpt>
      <trkpt lat="47.05379" lon="6.61184">
        <ele>761.3</ele>
        <time>2021-08-12T16:31:58Z</time>
      </trkpt>
      <trkpt lat="47.0538" lon="6.61179">
        <ele>761.4</ele>
        <time>2021-08-12T16:31:59Z</time>
      </trkpt>
      <trkpt lat="47.05382" lon="6.61172">
        <ele>761.5</ele>
        <time>2021-08-12T16:32:01Z</time>
      </trkpt>
      <trkpt lat="47.05383" lon="6.61167">
        <ele>761.5</ele>
        <time>2021-08-12T16:32:02Z</time>
      </trkpt>
      <trkpt lat="47.05385" lon="6.61163">
        <ele>761.6</ele>
        <time>2021-08-12T16:32:03Z</time>
      </trkpt>
      <trkpt lat="47.05387" lon="6.6116">
        <ele>761.6</ele>
        <time>2021-08-12T16:32:04Z</time>
      </trkpt>
      <trkpt lat="47.05389" lon="6.61156">
        <ele>761.7</ele>
        <time>2021-08-12T16:32:05Z</time>
      </trkpt>
      <trkpt lat="47.05393" lon="6.61151">
        <ele>761.8</ele>
        <time>2021-08-12T16:32:07Z</time>
      </trkpt>
      <trkpt lat="47.05397" lon="6.61146">
        <ele>761.9</ele>
        <time>2021-08-12T16:32:09Z</time>
      </trkpt>
      <trkpt lat="47.05399" lon="6.61143">
        <ele>761.9</ele>
        <time>2021-08-12T16:32:11Z</time>
      </trkpt>
      <trkpt lat="47.05401" lon="6.61138">
        <ele>761.9</ele>
        <time>2021-08-12T16:32:13Z</time>
      </trkpt>
      <trkpt lat="47.05401" lon="6.61133">
        <ele>761.8</ele>
        <time>2021-08-12T16:32:14Z</time>
      </trkpt>
      <trkpt lat="47.05401" lon="6.61127">
        <ele>761.8</ele>
        <time>2021-08-12T16:32:15Z</time>
      </trkpt>
      <trkpt lat="47.05402" lon="6.61121">
        <ele>761.7</ele>
        <time>2021-08-12T16:32:16Z</time>
      </trkpt>
      <trkpt lat="47.05402" lon="6.61116">
        <ele>761.7</ele>
        <time>2021-08-12T16:32:17Z</time>
      </trkpt>
      <trkpt lat="47.05403" lon="6.61108">
        <ele>761.6</ele>
        <time>2021-08-12T16:32:19Z</time>
      </trkpt>
      <trkpt lat="47.05404" lon="6.61102">
        <ele>761.5</ele>
        <time>2021-08-12T16:32:20Z</time>
      </trkpt>
      <trkpt lat="47.0541" lon="6.61093">
        <ele>761.3</ele>
        <time>2021-08-12T16:32:21Z</time>
      </trkpt>
      <trkpt lat="47.05413" lon="6.61087">
        <ele>761.2</ele>
        <time>2021-08-12T16:32:22Z</time>
      </trkpt>
      <trkpt lat="47.05415" lon="6.61078">
        <ele>761</ele>
        <time>2021-08-12T16:32:23Z</time>
      </trkpt>
      <trkpt lat="47.05421" lon="6.61061">
        <ele>760.7</ele>
        <time>2021-08-12T16:32:25Z</time>
      </trkpt>
      <trkpt lat="47.05432" lon="6.61041">
        <ele>760.5</ele>
        <time>2021-08-12T16:32:27Z</time>
      </trkpt>
      <trkpt lat="47.05437" lon="6.61032">
        <ele>760.3</ele>
        <time>2021-08-12T16:32:28Z</time>
      </trkpt>
      <trkpt lat="47.05445" lon="6.61024">
        <ele>760.2</ele>
        <time>2021-08-12T16:32:29Z</time>
      </trkpt>
      <trkpt lat="47.05451" lon="6.61018">
        <ele>760</ele>
        <time>2021-08-12T16:32:30Z</time>
      </trkpt>
      <trkpt lat="47.05457" lon="6.61011">
        <ele>759.7</ele>
        <time>2021-08-12T16:32:31Z</time>
      </trkpt>
      <trkpt lat="47.05469" lon="6.60995">
        <ele>759.3</ele>
        <time>2021-08-12T16:32:33Z</time>
      </trkpt>
      <trkpt lat="47.05474" lon="6.6099">
        <ele>759.1</ele>
        <time>2021-08-12T16:32:34Z</time>
      </trkpt>
      <trkpt lat="47.05478" lon="6.60984">
        <ele>759</ele>
        <time>2021-08-12T16:32:35Z</time>
      </trkpt>
      <trkpt lat="47.05486" lon="6.60969">
        <ele>758.8</ele>
        <time>2021-08-12T16:32:37Z</time>
      </trkpt>
      <trkpt lat="47.05486" lon="6.60961">
        <ele>758.8</ele>
        <time>2021-08-12T16:32:38Z</time>
      </trkpt>
      <trkpt lat="47.05484" lon="6.60945">
        <ele>758.7</ele>
        <time>2021-08-12T16:32:40Z</time>
      </trkpt>
      <trkpt lat="47.05485" lon="6.60936">
        <ele>758.7</ele>
        <time>2021-08-12T16:32:41Z</time>
      </trkpt>
      <trkpt lat="47.05485" lon="6.60921">
        <ele>758.4</ele>
        <time>2021-08-12T16:32:43Z</time>
      </trkpt>
      <trkpt lat="47.05486" lon="6.60904">
        <ele>758.3</ele>
        <time>2021-08-12T16:32:45Z</time>
      </trkpt>
      <trkpt lat="47.05487" lon="6.60897">
        <ele>758.2</ele>
        <time>2021-08-12T16:32:46Z</time>
      </trkpt>
      <trkpt lat="47.05491" lon="6.6089">
        <ele>758.2</ele>
        <time>2021-08-12T16:32:47Z</time>
      </trkpt>
      <trkpt lat="47.05498" lon="6.60876">
        <ele>758.2</ele>
        <time>2021-08-12T16:32:49Z</time>
      </trkpt>
      <trkpt lat="47.05499" lon="6.6087">
        <ele>758.2</ele>
        <time>2021-08-12T16:32:50Z</time>
      </trkpt>
      <trkpt lat="47.05498" lon="6.60865">
        <ele>758.1</ele>
        <time>2021-08-12T16:32:51Z</time>
      </trkpt>
      <trkpt lat="47.05495" lon="6.60861">
        <ele>758.1</ele>
        <time>2021-08-12T16:32:52Z</time>
      </trkpt>
      <trkpt lat="47.05489" lon="6.6086">
        <ele>758.1</ele>
        <time>2021-08-12T16:32:54Z</time>
      </trkpt>
      <trkpt lat="47.05483" lon="6.60857">
        <ele>758</ele>
        <time>2021-08-12T16:32:55Z</time>
      </trkpt>
      <trkpt lat="47.05477" lon="6.60853">
        <ele>758</ele>
        <time>2021-08-12T16:32:57Z</time>
      </trkpt>
      <trkpt lat="47.05474" lon="6.60849">
        <ele>758</ele>
        <time>2021-08-12T16:32:58Z</time>
      </trkpt>
      <trkpt lat="47.05469" lon="6.60842">
        <ele>757.9</ele>
        <time>2021-08-12T16:32:59Z</time>
      </trkpt>
      <trkpt lat="47.05458" lon="6.60827">
        <ele>757.8</ele>
        <time>2021-08-12T16:33:01Z</time>
      </trkpt>
      <trkpt lat="47.05449" lon="6.60814">
        <ele>757.8</ele>
        <time>2021-08-12T16:33:03Z</time>
      </trkpt>
      <trkpt lat="47.05442" lon="6.608">
        <ele>757.8</ele>
        <time>2021-08-12T16:33:05Z</time>
      </trkpt>
      <trkpt lat="47.05438" lon="6.60786">
        <ele>757.8</ele>
        <time>2021-08-12T16:33:07Z</time>
      </trkpt>
      <trkpt lat="47.05435" lon="6.60777">
        <ele>757.8</ele>
        <time>2021-08-12T16:33:08Z</time>
      </trkpt>
      <trkpt lat="47.05434" lon="6.60767">
        <ele>757.8</ele>
        <time>2021-08-12T16:33:09Z</time>
      </trkpt>
      <trkpt lat="47.05433" lon="6.60751">
        <ele>757.8</ele>
        <time>2021-08-12T16:33:11Z</time>
      </trkpt>
      <trkpt lat="47.05433" lon="6.60737">
        <ele>757.8</ele>
        <time>2021-08-12T16:33:13Z</time>
      </trkpt>
      <trkpt lat="47.05433" lon="6.6073">
        <ele>757.9</ele>
        <time>2021-08-12T16:33:14Z</time>
      </trkpt>
      <trkpt lat="47.05434" lon="6.60723">
        <ele>757.9</ele>
        <time>2021-08-12T16:33:15Z</time>
      </trkpt>
      <trkpt lat="47.05434" lon="6.60711">
        <ele>757.9</ele>
        <time>2021-08-12T16:33:17Z</time>
      </trkpt>
      <trkpt lat="47.05436" lon="6.60698">
        <ele>758</ele>
        <time>2021-08-12T16:33:19Z</time>
      </trkpt>
      <trkpt lat="47.05437" lon="6.60689">
        <ele>758.1</ele>
        <time>2021-08-12T16:33:20Z</time>
      </trkpt>
      <trkpt lat="47.05438" lon="6.60681">
        <ele>758.1</ele>
        <time>2021-08-12T16:33:21Z</time>
      </trkpt>
      <trkpt lat="47.05438" lon="6.60673">
        <ele>758.2</ele>
        <time>2021-08-12T16:33:22Z</time>
      </trkpt>
      <trkpt lat="47.05439" lon="6.60665">
        <ele>758.2</ele>
        <time>2021-08-12T16:33:23Z</time>
      </trkpt>
      <trkpt lat="47.0544" lon="6.60656">
        <ele>758.2</ele>
        <time>2021-08-12T16:33:24Z</time>
      </trkpt>
      <trkpt lat="47.05441" lon="6.60648">
        <ele>758.3</ele>
        <time>2021-08-12T16:33:25Z</time>
      </trkpt>
      <trkpt lat="47.05442" lon="6.6064">
        <ele>758.3</ele>
        <time>2021-08-12T16:33:26Z</time>
      </trkpt>
      <trkpt lat="47.05445" lon="6.60624">
        <ele>758.3</ele>
        <time>2021-08-12T16:33:28Z</time>
      </trkpt>
      <trkpt lat="47.05446" lon="6.60616">
        <ele>758.3</ele>
        <time>2021-08-12T16:33:29Z</time>
      </trkpt>
      <trkpt lat="47.05445" lon="6.60602">
        <ele>758.4</ele>
        <time>2021-08-12T16:33:31Z</time>
      </trkpt>
      <trkpt lat="47.05446" lon="6.60587">
        <ele>758.4</ele>
        <time>2021-08-12T16:33:33Z</time>
      </trkpt>
      <trkpt lat="47.05447" lon="6.60581">
        <ele>758.4</ele>
        <time>2021-08-12T16:33:34Z</time>
      </trkpt>
      <trkpt lat="47.05449" lon="6.60574">
        <ele>758.5</ele>
        <time>2021-08-12T16:33:35Z</time>
      </trkpt>
      <trkpt lat="47.05451" lon="6.60559">
        <ele>758.5</ele>
        <time>2021-08-12T16:33:37Z</time>
      </trkpt>
      <trkpt lat="47.05453" lon="6.60546">
        <ele>758.5</ele>
        <time>2021-08-12T16:33:39Z</time>
      </trkpt>
      <trkpt lat="47.05454" lon="6.60532">
        <ele>758.5</ele>
        <time>2021-08-12T16:33:41Z</time>
      </trkpt>
      <trkpt lat="47.05454" lon="6.60527">
        <ele>758.5</ele>
        <time>2021-08-12T16:33:42Z</time>
      </trkpt>
      <trkpt lat="47.05453" lon="6.60521">
        <ele>758.5</ele>
        <time>2021-08-12T16:33:44Z</time>
      </trkpt>
      <trkpt lat="47.05454" lon="6.60516">
        <ele>758.5</ele>
        <time>2021-08-12T16:33:45Z</time>
      </trkpt>
      <trkpt lat="47.05457" lon="6.60501">
        <ele>758.6</ele>
        <time>2021-08-12T16:33:47Z</time>
      </trkpt>
      <trkpt lat="47.05459" lon="6.60494">
        <ele>758.9</ele>
        <time>2021-08-12T16:33:49Z</time>
      </trkpt>
      <trkpt lat="47.05462" lon="6.6049">
        <ele>759</ele>
        <time>2021-08-12T16:33:50Z</time>
      </trkpt>
      <trkpt lat="47.05466" lon="6.60486">
        <ele>759</ele>
        <time>2021-08-12T16:33:52Z</time>
      </trkpt>
      <trkpt lat="47.05468" lon="6.60485">
        <ele>759.1</ele>
        <time>2021-08-12T16:33:53Z</time>
      </trkpt>
      <trkpt lat="47.0547" lon="6.60485">
        <ele>759.1</ele>
        <time>2021-08-12T16:33:54Z</time>
      </trkpt>
      <trkpt lat="47.05472" lon="6.60476">
        <ele>759.3</ele>
        <time>2021-08-12T16:33:55Z</time>
      </trkpt>
      <trkpt lat="47.05475" lon="6.60465">
        <ele>759.3</ele>
        <time>2021-08-12T16:33:57Z</time>
      </trkpt>
      <trkpt lat="47.05478" lon="6.60454">
        <ele>759.2</ele>
        <time>2021-08-12T16:33:59Z</time>
      </trkpt>
      <trkpt lat="47.05481" lon="6.60443">
        <ele>759.1</ele>
        <time>2021-08-12T16:34:00Z</time>
      </trkpt>
      <trkpt lat="47.05484" lon="6.60431">
        <ele>759</ele>
        <time>2021-08-12T16:34:02Z</time>
      </trkpt>
      <trkpt lat="47.05487" lon="6.6042">
        <ele>758.9</ele>
        <time>2021-08-12T16:34:03Z</time>
      </trkpt>
      <trkpt lat="47.0549" lon="6.60409">
        <ele>758.9</ele>
        <time>2021-08-12T16:34:04Z</time>
      </trkpt>
      <trkpt lat="47.05494" lon="6.60398">
        <ele>758.8</ele>
        <time>2021-08-12T16:34:50Z</time>
      </trkpt>
      <trkpt lat="47.05497" lon="6.60386">
        <ele>758.8</ele>
        <time>2021-08-12T16:34:51Z</time>
      </trkpt>
      <trkpt lat="47.05495" lon="6.6037">
        <ele>758.7</ele>
        <time>2021-08-12T16:34:52Z</time>
      </trkpt>
      <trkpt lat="47.05492" lon="6.60357">
        <ele>758.6</ele>
        <time>2021-08-12T16:34:53Z</time>
      </trkpt>
      <trkpt lat="47.0549" lon="6.60346">
        <ele>758.5</ele>
        <time>2021-08-12T16:34:54Z</time>
      </trkpt>
      <trkpt lat="47.05487" lon="6.60336">
        <ele>758.5</ele>
        <time>2021-08-12T16:34:55Z</time>
      </trkpt>
      <trkpt lat="47.05483" lon="6.60318">
        <ele>758.4</ele>
        <time>2021-08-12T16:34:57Z</time>
      </trkpt>
      <trkpt lat="47.0548" lon="6.60309">
        <ele>758.4</ele>
        <time>2021-08-12T16:34:58Z</time>
      </trkpt>
      <trkpt lat="47.05473" lon="6.60292">
        <ele>758.3</ele>
        <time>2021-08-12T16:35:00Z</time>
      </trkpt>
      <trkpt lat="47.05469" lon="6.60285">
        <ele>758.3</ele>
        <time>2021-08-12T16:35:01Z</time>
      </trkpt>
      <trkpt lat="47.05463" lon="6.6027">
        <ele>758.3</ele>
        <time>2021-08-12T16:35:03Z</time>
      </trkpt>
      <trkpt lat="47.05457" lon="6.60255">
        <ele>758.3</ele>
        <time>2021-08-12T16:35:05Z</time>
      </trkpt>
      <trkpt lat="47.05455" lon="6.60247">
        <ele>758.3</ele>
        <time>2021-08-12T16:35:06Z</time>
      </trkpt>
      <trkpt lat="47.05452" lon="6.60233">
        <ele>758.3</ele>
        <time>2021-08-12T16:35:08Z</time>
      </trkpt>
      <trkpt lat="47.05447" lon="6.60218">
        <ele>758.3</ele>
        <time>2021-08-12T16:35:10Z</time>
      </trkpt>
      <trkpt lat="47.05444" lon="6.60211">
        <ele>758.3</ele>
        <time>2021-08-12T16:35:11Z</time>
      </trkpt>
      <trkpt lat="47.05439" lon="6.60199">
        <ele>758.3</ele>
        <time>2021-08-12T16:35:13Z</time>
      </trkpt>
      <trkpt lat="47.05433" lon="6.60188">
        <ele>758.3</ele>
        <time>2021-08-12T16:35:15Z</time>
      </trkpt>
      <trkpt lat="47.05431" lon="6.60182">
        <ele>758.3</ele>
        <time>2021-08-12T16:35:16Z</time>
      </trkpt>
      <trkpt lat="47.05431" lon="6.60167">
        <ele>758.3</ele>
        <time>2021-08-12T16:35:18Z</time>
      </trkpt>
      <trkpt lat="47.05431" lon="6.60161">
        <ele>758.4</ele>
        <time>2021-08-12T16:35:19Z</time>
      </trkpt>
      <trkpt lat="47.05433" lon="6.6015">
        <ele>758.4</ele>
        <time>2021-08-12T16:35:21Z</time>
      </trkpt>
      <trkpt lat="47.05434" lon="6.60145">
        <ele>758.5</ele>
        <time>2021-08-12T16:35:22Z</time>
      </trkpt>
      <trkpt lat="47.05435" lon="6.60139">
        <ele>758.6</ele>
        <time>2021-08-12T16:35:23Z</time>
      </trkpt>
      <trkpt lat="47.05431" lon="6.60129">
        <ele>758.6</ele>
        <time>2021-08-12T16:35:25Z</time>
      </trkpt>
      <trkpt lat="47.05431" lon="6.60125">
        <ele>758.7</ele>
        <time>2021-08-12T16:35:26Z</time>
      </trkpt>
      <trkpt lat="47.05426" lon="6.6012">
        <ele>758.7</ele>
        <time>2021-08-12T16:35:28Z</time>
      </trkpt>
      <trkpt lat="47.05423" lon="6.60116">
        <ele>758.7</ele>
        <time>2021-08-12T16:35:29Z</time>
      </trkpt>
      <trkpt lat="47.0542" lon="6.60112">
        <ele>758.7</ele>
        <time>2021-08-12T16:35:30Z</time>
      </trkpt>
      <trkpt lat="47.05413" lon="6.60101">
        <ele>758.7</ele>
        <time>2021-08-12T16:35:32Z</time>
      </trkpt>
      <trkpt lat="47.05408" lon="6.60092">
        <ele>758.7</ele>
        <time>2021-08-12T16:35:34Z</time>
      </trkpt>
      <trkpt lat="47.05406" lon="6.60086">
        <ele>758.7</ele>
        <time>2021-08-12T16:35:35Z</time>
      </trkpt>
      <trkpt lat="47.05403" lon="6.60078">
        <ele>758.8</ele>
        <time>2021-08-12T16:35:36Z</time>
      </trkpt>
      <trkpt lat="47.054" lon="6.60065">
        <ele>758.8</ele>
        <time>2021-08-12T16:35:38Z</time>
      </trkpt>
      <trkpt lat="47.05398" lon="6.60057">
        <ele>758.8</ele>
        <time>2021-08-12T16:35:40Z</time>
      </trkpt>
      <trkpt lat="47.054" lon="6.60048">
        <ele>758.9</ele>
        <time>2021-08-12T16:35:42Z</time>
      </trkpt>
      <trkpt lat="47.054" lon="6.60033">
        <ele>758.9</ele>
        <time>2021-08-12T16:35:44Z</time>
      </trkpt>
      <trkpt lat="47.054" lon="6.60027">
        <ele>758.8</ele>
        <time>2021-08-12T16:35:45Z</time>
      </trkpt>
      <trkpt lat="47.054" lon="6.6002">
        <ele>758.8</ele>
        <time>2021-08-12T16:35:46Z</time>
      </trkpt>
      <trkpt lat="47.05401" lon="6.60011">
        <ele>758.7</ele>
        <time>2021-08-12T16:35:48Z</time>
      </trkpt>
      <trkpt lat="47.05403" lon="6.60005">
        <ele>758.7</ele>
        <time>2021-08-12T16:35:49Z</time>
      </trkpt>
      <trkpt lat="47.05403" lon="6.59999">
        <ele>758.6</ele>
        <time>2021-08-12T16:35:50Z</time>
      </trkpt>
      <trkpt lat="47.05403" lon="6.59996">
        <ele>758.6</ele>
        <time>2021-08-12T16:35:51Z</time>
      </trkpt>
      <trkpt lat="47.05403" lon="6.5999">
        <ele>758.6</ele>
        <time>2021-08-12T16:35:53Z</time>
      </trkpt>
      <trkpt lat="47.05401" lon="6.59982">
        <ele>758.6</ele>
        <time>2021-08-12T16:35:54Z</time>
      </trkpt>
      <trkpt lat="47.05397" lon="6.5998">
        <ele>758.6</ele>
        <time>2021-08-12T16:35:55Z</time>
      </trkpt>
      <trkpt lat="47.05392" lon="6.59978">
        <ele>758.5</ele>
        <time>2021-08-12T16:35:56Z</time>
      </trkpt>
      <trkpt lat="47.05383" lon="6.59975">
        <ele>758.4</ele>
        <time>2021-08-12T16:35:58Z</time>
      </trkpt>
      <trkpt lat="47.05378" lon="6.59973">
        <ele>758.3</ele>
        <time>2021-08-12T16:35:59Z</time>
      </trkpt>
      <trkpt lat="47.05371" lon="6.59968">
        <ele>758.3</ele>
        <time>2021-08-12T16:36:01Z</time>
      </trkpt>
      <trkpt lat="47.05365" lon="6.59966">
        <ele>758.3</ele>
        <time>2021-08-12T16:36:02Z</time>
      </trkpt>
      <trkpt lat="47.05361" lon="6.59964">
        <ele>758.2</ele>
        <time>2021-08-12T16:36:04Z</time>
      </trkpt>
      <trkpt lat="47.05355" lon="6.59959">
        <ele>758.2</ele>
        <time>2021-08-12T16:36:05Z</time>
      </trkpt>
      <trkpt lat="47.0535" lon="6.59956">
        <ele>758.1</ele>
        <time>2021-08-12T16:36:07Z</time>
      </trkpt>
      <trkpt lat="47.05346" lon="6.59954">
        <ele>758</ele>
        <time>2021-08-12T16:36:08Z</time>
      </trkpt>
      <trkpt lat="47.05342" lon="6.59953">
        <ele>758</ele>
        <time>2021-08-12T16:36:09Z</time>
      </trkpt>
      <trkpt lat="47.05338" lon="6.59948">
        <ele>757.9</ele>
        <time>2021-08-12T16:36:11Z</time>
      </trkpt>
      <trkpt lat="47.05333" lon="6.59944">
        <ele>757.9</ele>
        <time>2021-08-12T16:36:12Z</time>
      </trkpt>
      <trkpt lat="47.05328" lon="6.5994">
        <ele>757.8</ele>
        <time>2021-08-12T16:36:14Z</time>
      </trkpt>
      <trkpt lat="47.05323" lon="6.59937">
        <ele>757.7</ele>
        <time>2021-08-12T16:36:15Z</time>
      </trkpt>
      <trkpt lat="47.05319" lon="6.59936">
        <ele>757.7</ele>
        <time>2021-08-12T16:36:16Z</time>
      </trkpt>
      <trkpt lat="47.05314" lon="6.59935">
        <ele>757.6</ele>
        <time>2021-08-12T16:36:17Z</time>
      </trkpt>
      <trkpt lat="47.05311" lon="6.59933">
        <ele>757.6</ele>
        <time>2021-08-12T16:36:18Z</time>
      </trkpt>
      <trkpt lat="47.05308" lon="6.59928">
        <ele>757.5</ele>
        <time>2021-08-12T16:36:20Z</time>
      </trkpt>
      <trkpt lat="47.05306" lon="6.59921">
        <ele>756.7</ele>
        <time>2021-08-12T16:36:22Z</time>
      </trkpt>
      <trkpt lat="47.05307" lon="6.59917">
        <ele>755.9</ele>
        <time>2021-08-12T16:36:23Z</time>
      </trkpt>
      <trkpt lat="47.05307" lon="6.59912">
        <ele>755.1</ele>
        <time>2021-08-12T16:36:24Z</time>
      </trkpt>
      <trkpt lat="47.05308" lon="6.59906">
        <ele>753.9</ele>
        <time>2021-08-12T16:36:26Z</time>
      </trkpt>
      <trkpt lat="47.0531" lon="6.59901">
        <ele>753.5</ele>
        <time>2021-08-12T16:36:27Z</time>
      </trkpt>
      <trkpt lat="47.05312" lon="6.59897">
        <ele>753.5</ele>
        <time>2021-08-12T16:36:28Z</time>
      </trkpt>
      <trkpt lat="47.05314" lon="6.59895">
        <ele>753.5</ele>
        <time>2021-08-12T16:36:29Z</time>
      </trkpt>
      <trkpt lat="47.05316" lon="6.59893">
        <ele>753.5</ele>
        <time>2021-08-12T16:36:31Z</time>
      </trkpt>
      <trkpt lat="47.05318" lon="6.59894">
        <ele>753.5</ele>
        <time>2021-08-12T16:36:33Z</time>
      </trkpt>
      <trkpt lat="47.05318" lon="6.59894">
        <ele>753.5</ele>
        <time>2021-08-12T16:36:34Z</time>
      </trkpt>
      <trkpt lat="47.05318" lon="6.59894">
        <ele>753.5</ele>
        <time>2021-08-12T16:36:35Z</time>
      </trkpt>
      <trkpt lat="47.05318" lon="6.59894">
        <ele>753.5</ele>
        <time>2021-08-12T16:36:37Z</time>
      </trkpt>
      <trkpt lat="47.05318" lon="6.59894">
        <ele>753.5</ele>
        <time>2021-08-12T16:36:38Z</time>
      </trkpt>
      <trkpt lat="47.05318" lon="6.59893">
        <ele>753.5</ele>
        <time>2021-08-12T16:36:40Z</time>
      </trkpt>
      <trkpt lat="47.05318" lon="6.59892">
        <ele>753.5</ele>
        <time>2021-08-12T16:36:42Z</time>
      </trkpt>
      <trkpt lat="47.05318" lon="6.59892">
        <ele>753.5</ele>
        <time>2021-08-12T16:36:44Z</time>
      </trkpt>
      <trkpt lat="47.05447" lon="6.59897">
        <ele>774.4</ele>
        <time>2021-08-13T07:26:25Z</time>
      </trkpt>
      <trkpt lat="47.05447" lon="6.59897">
        <ele>774.4</ele>
        <time>2021-08-13T07:26:25Z</time>
      </trkpt>
      <trkpt lat="47.05298" lon="6.59789">
        <ele>753.1</ele>
        <time>2021-08-13T07:26:27Z</time>
      </trkpt>
      <trkpt lat="47.05294" lon="6.59787">
        <ele>752.7</ele>
        <time>2021-08-13T07:26:29Z</time>
      </trkpt>
      <trkpt lat="47.0529" lon="6.59786">
        <ele>752.2</ele>
        <time>2021-08-13T07:26:30Z</time>
      </trkpt>
      <trkpt lat="47.05291" lon="6.59789">
        <ele>752.4</ele>
        <time>2021-08-13T07:26:31Z</time>
      </trkpt>
      <trkpt lat="47.05293" lon="6.59802">
        <ele>752.6</ele>
        <time>2021-08-13T07:26:33Z</time>
      </trkpt>
      <trkpt lat="47.05293" lon="6.59807">
        <ele>752.3</ele>
        <time>2021-08-13T07:26:34Z</time>
      </trkpt>
      <trkpt lat="47.05293" lon="6.59812">
        <ele>752.3</ele>
        <time>2021-08-13T07:26:35Z</time>
      </trkpt>
      <trkpt lat="47.05293" lon="6.59818">
        <ele>752.3</ele>
        <time>2021-08-13T07:26:37Z</time>
      </trkpt>
      <trkpt lat="47.05293" lon="6.59817">
        <ele>752.3</ele>
        <time>2021-08-13T07:26:39Z</time>
      </trkpt>
      <trkpt lat="47.05293" lon="6.59818">
        <ele>752.3</ele>
        <time>2021-08-13T07:26:40Z</time>
      </trkpt>
      <trkpt lat="47.05294" lon="6.5982">
        <ele>752.5</ele>
        <time>2021-08-13T07:26:41Z</time>
      </trkpt>
      <trkpt lat="47.05296" lon="6.59825">
        <ele>752.5</ele>
        <time>2021-08-13T07:26:43Z</time>
      </trkpt>
      <trkpt lat="47.05297" lon="6.59828">
        <ele>752.7</ele>
        <time>2021-08-13T07:26:44Z</time>
      </trkpt>
      <trkpt lat="47.05297" lon="6.59831">
        <ele>752.7</ele>
        <time>2021-08-13T07:26:46Z</time>
      </trkpt>
      <trkpt lat="47.05298" lon="6.59832">
        <ele>752.7</ele>
        <time>2021-08-13T07:26:47Z</time>
      </trkpt>
      <trkpt lat="47.05303" lon="6.59828">
        <ele>753.5</ele>
        <time>2021-08-13T07:30:47Z</time>
      </trkpt>
      <trkpt lat="47.05304" lon="6.59826">
        <ele>753.5</ele>
        <time>2021-08-13T07:30:48Z</time>
      </trkpt>
      <trkpt lat="47.05304" lon="6.59826">
        <ele>753.5</ele>
        <time>2021-08-13T07:30:51Z</time>
      </trkpt>
      <trkpt lat="47.05303" lon="6.59829">
        <ele>753.4</ele>
        <time>2021-08-13T07:30:52Z</time>
      </trkpt>
      <trkpt lat="47.05303" lon="6.59831">
        <ele>753.4</ele>
        <time>2021-08-13T07:30:53Z</time>
      </trkpt>
      <trkpt lat="47.05304" lon="6.59833">
        <ele>753.4</ele>
        <time>2021-08-13T07:30:55Z</time>
      </trkpt>
      <trkpt lat="47.05305" lon="6.59835">
        <ele>753.4</ele>
        <time>2021-08-13T07:30:57Z</time>
      </trkpt>
      <trkpt lat="47.05304" lon="6.59836">
        <ele>753.4</ele>
        <time>2021-08-13T07:30:58Z</time>
      </trkpt>
      <trkpt lat="47.05286" lon="6.59852">
        <ele>752.2</ele>
        <time>2021-08-13T07:32:00Z</time>
      </trkpt>
      <trkpt lat="47.05286" lon="6.59852">
        <ele>752.2</ele>
        <time>2021-08-13T07:32:01Z</time>
      </trkpt>
      <trkpt lat="47.05286" lon="6.59852">
        <ele>752.2</ele>
        <time>2021-08-13T07:32:03Z</time>
      </trkpt>
      <trkpt lat="47.05287" lon="6.59852">
        <ele>752.2</ele>
        <time>2021-08-13T07:32:04Z</time>
      </trkpt>
      <trkpt lat="47.05287" lon="6.59853">
        <ele>752.2</ele>
        <time>2021-08-13T07:32:06Z</time>
      </trkpt>
      <trkpt lat="47.05287" lon="6.59853">
        <ele>752.2</ele>
        <time>2021-08-13T07:32:07Z</time>
      </trkpt>
      <trkpt lat="47.05288" lon="6.59853">
        <ele>752.3</ele>
        <time>2021-08-13T07:32:08Z</time>
      </trkpt>
      <trkpt lat="47.05295" lon="6.59854">
        <ele>752.5</ele>
        <time>2021-08-13T07:32:10Z</time>
      </trkpt>
      <trkpt lat="47.05296" lon="6.59853">
        <ele>752.5</ele>
        <time>2021-08-13T07:32:12Z</time>
      </trkpt>
      <trkpt lat="47.05292" lon="6.59853">
        <ele>752.4</ele>
        <time>2021-08-13T07:32:13Z</time>
      </trkpt>
      <trkpt lat="47.05294" lon="6.59854">
        <ele>752.5</ele>
        <time>2021-08-13T07:32:15Z</time>
      </trkpt>
      <trkpt lat="47.05298" lon="6.59855">
        <ele>752.7</ele>
        <time>2021-08-13T07:32:16Z</time>
      </trkpt>
      <trkpt lat="47.05301" lon="6.59856">
        <ele>752.9</ele>
        <time>2021-08-13T07:32:17Z</time>
      </trkpt>
      <trkpt lat="47.05306" lon="6.59858">
        <ele>753.5</ele>
        <time>2021-08-13T07:32:19Z</time>
      </trkpt>
      <trkpt lat="47.05307" lon="6.59858">
        <ele>753.5</ele>
        <time>2021-08-13T07:32:20Z</time>
      </trkpt>
      <trkpt lat="47.05307" lon="6.59859">
        <ele>753.5</ele>
        <time>2021-08-13T07:32:22Z</time>
      </trkpt>
      <trkpt lat="47.05307" lon="6.59859">
        <ele>753.5</ele>
        <time>2021-08-13T07:32:23Z</time>
      </trkpt>
      <trkpt lat="47.05307" lon="6.59859">
        <ele>753.5</ele>
        <time>2021-08-13T07:32:25Z</time>
      </trkpt>
      <trkpt lat="47.05306" lon="6.5986">
        <ele>753.5</ele>
        <time>2021-08-13T07:32:27Z</time>
      </trkpt>
      <trkpt lat="47.05306" lon="6.59861">
        <ele>753.5</ele>
        <time>2021-08-13T07:32:29Z</time>
      </trkpt>
      <trkpt lat="47.05305" lon="6.59862">
        <ele>753.5</ele>
        <time>2021-08-13T07:32:31Z</time>
      </trkpt>
      <trkpt lat="47.05305" lon="6.59863">
        <ele>753.5</ele>
        <time>2021-08-13T07:32:32Z</time>
      </trkpt>
      <trkpt lat="47.05305" lon="6.59865">
        <ele>753.5</ele>
        <time>2021-08-13T07:32:34Z</time>
      </trkpt>
      <trkpt lat="47.05304" lon="6.59866">
        <ele>753.5</ele>
        <time>2021-08-13T07:32:35Z</time>
      </trkpt>
      <trkpt lat="47.05304" lon="6.59867">
        <ele>753.5</ele>
        <time>2021-08-13T07:32:36Z</time>
      </trkpt>
      <trkpt lat="47.05304" lon="6.59869">
        <ele>753.5</ele>
        <time>2021-08-13T07:32:38Z</time>
      </trkpt>
      <trkpt lat="47.05303" lon="6.5987">
        <ele>753.5</ele>
        <time>2021-08-13T07:32:40Z</time>
      </trkpt>
      <trkpt lat="47.05303" lon="6.5987">
        <ele>753.5</ele>
        <time>2021-08-13T07:32:42Z</time>
      </trkpt>
      <trkpt lat="47.05302" lon="6.59871">
        <ele>753.5</ele>
        <time>2021-08-13T07:32:43Z</time>
      </trkpt>
      <trkpt lat="47.05302" lon="6.59871">
        <ele>753.5</ele>
        <time>2021-08-13T07:32:44Z</time>
      </trkpt>
      <trkpt lat="47.05302" lon="6.5987">
        <ele>753.5</ele>
        <time>2021-08-13T07:32:46Z</time>
      </trkpt>
      <trkpt lat="47.05302" lon="6.59869">
        <ele>753.5</ele>
        <time>2021-08-13T07:32:47Z</time>
      </trkpt>
      <trkpt lat="47.05301" lon="6.59869">
        <ele>753.5</ele>
        <time>2021-08-13T07:32:49Z</time>
      </trkpt>
      <trkpt lat="47.05301" lon="6.59868">
        <ele>753.5</ele>
        <time>2021-08-13T07:32:51Z</time>
      </trkpt>
      <trkpt lat="47.05301" lon="6.59867">
        <ele>753.5</ele>
        <time>2021-08-13T07:32:52Z</time>
      </trkpt>
      <trkpt lat="47.053" lon="6.59867">
        <ele>753.5</ele>
        <time>2021-08-13T07:32:53Z</time>
      </trkpt>
      <trkpt lat="47.05299" lon="6.59866">
        <ele>753.5</ele>
        <time>2021-08-13T07:32:55Z</time>
      </trkpt>
      <trkpt lat="47.05299" lon="6.59865">
        <ele>753.5</ele>
        <time>2021-08-13T07:32:57Z</time>
      </trkpt>
      <trkpt lat="47.05299" lon="6.59863">
        <ele>753.5</ele>
        <time>2021-08-13T07:32:58Z</time>
      </trkpt>
      <trkpt lat="47.05299" lon="6.59863">
        <ele>753.5</ele>
        <time>2021-08-13T07:33:00Z</time>
      </trkpt>
      <trkpt lat="47.05299" lon="6.59863">
        <ele>753.5</ele>
        <time>2021-08-13T07:33:01Z</time>
      </trkpt>
      <trkpt lat="47.05299" lon="6.59863">
        <ele>753.5</ele>
        <time>2021-08-13T07:33:03Z</time>
      </trkpt>
      <trkpt lat="47.05299" lon="6.59863">
        <ele>753.5</ele>
        <time>2021-08-13T07:33:04Z</time>
      </trkpt>
      <trkpt lat="47.05299" lon="6.59862">
        <ele>753.5</ele>
        <time>2021-08-13T07:33:06Z</time>
      </trkpt>
      <trkpt lat="47.05299" lon="6.59862">
        <ele>753.5</ele>
        <time>2021-08-13T07:33:08Z</time>
      </trkpt>
      <trkpt lat="47.05298" lon="6.59862">
        <ele>753.5</ele>
        <time>2021-08-13T07:33:09Z</time>
      </trkpt>
      <trkpt lat="47.05298" lon="6.59862">
        <ele>753.5</ele>
        <time>2021-08-13T07:33:10Z</time>
      </trkpt>
      <trkpt lat="47.05297" lon="6.59862">
        <ele>753.5</ele>
        <time>2021-08-13T07:33:12Z</time>
      </trkpt>
      <trkpt lat="47.05297" lon="6.59862">
        <ele>753.5</ele>
        <time>2021-08-13T07:33:13Z</time>
      </trkpt>
      <trkpt lat="47.05296" lon="6.59864">
        <ele>753.5</ele>
        <time>2021-08-13T07:33:15Z</time>
      </trkpt>
      <trkpt lat="47.05295" lon="6.59865">
        <ele>753.5</ele>
        <time>2021-08-13T07:33:16Z</time>
      </trkpt>
      <trkpt lat="47.05295" lon="6.59866">
        <ele>753.5</ele>
        <time>2021-08-13T07:33:17Z</time>
      </trkpt>
      <trkpt lat="47.05294" lon="6.59867">
        <ele>753.5</ele>
        <time>2021-08-13T07:33:19Z</time>
      </trkpt>
      <trkpt lat="47.05292" lon="6.5987">
        <ele>753.5</ele>
        <time>2021-08-13T07:33:20Z</time>
      </trkpt>
      <trkpt lat="47.05289" lon="6.59873">
        <ele>753.5</ele>
        <time>2021-08-13T07:33:22Z</time>
      </trkpt>
      <trkpt lat="47.05288" lon="6.59873">
        <ele>753.5</ele>
        <time>2021-08-13T07:33:23Z</time>
      </trkpt>
      <trkpt lat="47.05288" lon="6.59873">
        <ele>753.5</ele>
        <time>2021-08-13T07:33:25Z</time>
      </trkpt>
      <trkpt lat="47.05288" lon="6.59873">
        <ele>753.5</ele>
        <time>2021-08-13T07:33:26Z</time>
      </trkpt>
      <trkpt lat="47.05289" lon="6.59873">
        <ele>753.5</ele>
        <time>2021-08-13T07:33:28Z</time>
      </trkpt>
      <trkpt lat="47.0529" lon="6.59873">
        <ele>753.5</ele>
        <time>2021-08-13T07:33:29Z</time>
      </trkpt>
      <trkpt lat="47.0529" lon="6.59873">
        <ele>753.5</ele>
        <time>2021-08-13T07:33:30Z</time>
      </trkpt>
      <trkpt lat="47.05291" lon="6.59873">
        <ele>753.5</ele>
        <time>2021-08-13T07:33:31Z</time>
      </trkpt>
      <trkpt lat="47.05291" lon="6.59873">
        <ele>753.5</ele>
        <time>2021-08-13T07:33:32Z</time>
      </trkpt>
      <trkpt lat="47.05292" lon="6.59873">
        <ele>753.5</ele>
        <time>2021-08-13T07:33:34Z</time>
      </trkpt>
      <trkpt lat="47.05292" lon="6.59873">
        <ele>753.5</ele>
        <time>2021-08-13T07:33:35Z</time>
      </trkpt>
      <trkpt lat="47.05293" lon="6.59873">
        <ele>753.5</ele>
        <time>2021-08-13T07:33:37Z</time>
      </trkpt>
      <trkpt lat="47.05293" lon="6.59873">
        <ele>753.5</ele>
        <time>2021-08-13T07:33:38Z</time>
      </trkpt>
      <trkpt lat="47.05293" lon="6.59873">
        <ele>753.5</ele>
        <time>2021-08-13T07:33:40Z</time>
      </trkpt>
      <trkpt lat="47.05294" lon="6.59874">
        <ele>753.5</ele>
        <time>2021-08-13T07:33:41Z</time>
      </trkpt>
      <trkpt lat="47.05295" lon="6.59874">
        <ele>753.5</ele>
        <time>2021-08-13T07:33:43Z</time>
      </trkpt>
      <trkpt lat="47.05295" lon="6.59874">
        <ele>753.5</ele>
        <time>2021-08-13T07:33:45Z</time>
      </trkpt>
      <trkpt lat="47.05296" lon="6.59874">
        <ele>753.5</ele>
        <time>2021-08-13T07:33:47Z</time>
      </trkpt>
      <trkpt lat="47.05296" lon="6.59874">
        <ele>753.5</ele>
        <time>2021-08-13T07:33:48Z</time>
      </trkpt>
      <trkpt lat="47.05297" lon="6.59874">
        <ele>753.5</ele>
        <time>2021-08-13T07:33:50Z</time>
      </trkpt>
      <trkpt lat="47.05297" lon="6.59874">
        <ele>753.5</ele>
        <time>2021-08-13T07:33:52Z</time>
      </trkpt>
      <trkpt lat="47.05297" lon="6.59874">
        <ele>753.5</ele>
        <time>2021-08-13T07:33:54Z</time>
      </trkpt>
      <trkpt lat="47.05301" lon="6.59875">
        <ele>753.5</ele>
        <time>2021-08-13T07:33:56Z</time>
      </trkpt>
      <trkpt lat="47.05303" lon="6.59876">
        <ele>753.5</ele>
        <time>2021-08-13T07:33:57Z</time>
      </trkpt>
      <trkpt lat="47.05306" lon="6.59878">
        <ele>753.5</ele>
        <time>2021-08-13T07:33:59Z</time>
      </trkpt>
      <trkpt lat="47.05307" lon="6.59878">
        <ele>753.5</ele>
        <time>2021-08-13T07:34:00Z</time>
      </trkpt>
      <trkpt lat="47.05308" lon="6.59878">
        <ele>753.5</ele>
        <time>2021-08-13T07:34:01Z</time>
      </trkpt>
      <trkpt lat="47.05308" lon="6.59878">
        <ele>753.5</ele>
        <time>2021-08-13T07:34:02Z</time>
      </trkpt>
      <trkpt lat="47.05308" lon="6.59877">
        <ele>753.5</ele>
        <time>2021-08-13T07:34:03Z</time>
      </trkpt>
      <trkpt lat="47.05307" lon="6.59875">
        <ele>753.5</ele>
        <time>2021-08-13T07:34:05Z</time>
      </trkpt>
      <trkpt lat="47.05306" lon="6.59872">
        <ele>753.5</ele>
        <time>2021-08-13T07:34:07Z</time>
      </trkpt>
      <trkpt lat="47.05306" lon="6.59869">
        <ele>753.5</ele>
        <time>2021-08-13T07:34:09Z</time>
      </trkpt>
      <trkpt lat="47.05306" lon="6.59869">
        <ele>753.5</ele>
        <time>2021-08-13T07:34:10Z</time>
      </trkpt>
      <trkpt lat="47.05305" lon="6.59867">
        <ele>753.5</ele>
        <time>2021-08-13T07:34:12Z</time>
      </trkpt>
      <trkpt lat="47.05304" lon="6.59866">
        <ele>753.5</ele>
        <time>2021-08-13T07:34:13Z</time>
      </trkpt>
      <trkpt lat="47.05304" lon="6.59865">
        <ele>753.5</ele>
        <time>2021-08-13T07:34:15Z</time>
      </trkpt>
      <trkpt lat="47.05303" lon="6.59864">
        <ele>753.5</ele>
        <time>2021-08-13T07:34:17Z</time>
      </trkpt>
      <trkpt lat="47.05303" lon="6.59865">
        <ele>753.5</ele>
        <time>2021-08-13T07:34:19Z</time>
      </trkpt>
      <trkpt lat="47.05303" lon="6.59865">
        <ele>753.5</ele>
        <time>2021-08-13T07:34:21Z</time>
      </trkpt>
      <trkpt lat="47.05304" lon="6.59866">
        <ele>753.5</ele>
        <time>2021-08-13T07:34:22Z</time>
      </trkpt>
      <trkpt lat="47.05304" lon="6.59866">
        <ele>753.5</ele>
        <time>2021-08-13T07:34:23Z</time>
      </trkpt>
      <trkpt lat="47.05304" lon="6.59866">
        <ele>753.5</ele>
        <time>2021-08-13T07:34:25Z</time>
      </trkpt>
      <trkpt lat="47.05304" lon="6.59866">
        <ele>753.5</ele>
        <time>2021-08-13T07:34:26Z</time>
      </trkpt>
      <trkpt lat="47.05304" lon="6.59866">
        <ele>753.5</ele>
        <time>2021-08-13T07:34:27Z</time>
      </trkpt>
      <trkpt lat="47.05304" lon="6.59866">
        <ele>753.5</ele>
        <time>2021-08-13T07:34:29Z</time>
      </trkpt>
      <trkpt lat="47.05304" lon="6.59866">
        <ele>753.5</ele>
        <time>2021-08-13T07:34:30Z</time>
      </trkpt>
      <trkpt lat="47.05304" lon="6.59866">
        <ele>753.5</ele>
        <time>2021-08-13T07:34:32Z</time>
      </trkpt>
      <trkpt lat="47.05304" lon="6.59866">
        <ele>753.5</ele>
        <time>2021-08-13T07:34:33Z</time>
      </trkpt>
      <trkpt lat="47.05304" lon="6.59865">
        <ele>753.5</ele>
        <time>2021-08-13T07:34:34Z</time>
      </trkpt>
      <trkpt lat="47.05304" lon="6.59865">
        <ele>753.5</ele>
        <time>2021-08-13T07:34:35Z</time>
      </trkpt>
      <trkpt lat="47.05303" lon="6.59864">
        <ele>753.5</ele>
        <time>2021-08-13T07:34:36Z</time>
      </trkpt>
      <trkpt lat="47.05303" lon="6.59864">
        <ele>753.5</ele>
        <time>2021-08-13T07:34:38Z</time>
      </trkpt>
      <trkpt lat="47.05303" lon="6.59863">
        <ele>753.5</ele>
        <time>2021-08-13T07:34:40Z</time>
      </trkpt>
      <trkpt lat="47.05302" lon="6.59863">
        <ele>753.5</ele>
        <time>2021-08-13T07:34:41Z</time>
      </trkpt>
      <trkpt lat="47.05302" lon="6.59863">
        <ele>753.5</ele>
        <time>2021-08-13T07:34:42Z</time>
      </trkpt>
      <trkpt lat="47.05301" lon="6.59863">
        <ele>753.5</ele>
        <time>2021-08-13T07:34:44Z</time>
      </trkpt>
      <trkpt lat="47.05301" lon="6.59863">
        <ele>753.5</ele>
        <time>2021-08-13T07:34:45Z</time>
      </trkpt>
      <trkpt lat="47.05301" lon="6.59864">
        <ele>753.5</ele>
        <time>2021-08-13T07:34:47Z</time>
      </trkpt>
      <trkpt lat="47.053" lon="6.59863">
        <ele>753.5</ele>
        <time>2021-08-13T07:34:48Z</time>
      </trkpt>
      <trkpt lat="47.05299" lon="6.59862">
        <ele>753.5</ele>
        <time>2021-08-13T07:34:50Z</time>
      </trkpt>
      <trkpt lat="47.05299" lon="6.5986">
        <ele>753.5</ele>
        <time>2021-08-13T07:34:52Z</time>
      </trkpt>
      <trkpt lat="47.05299" lon="6.59861">
        <ele>753.5</ele>
        <time>2021-08-13T07:34:54Z</time>
      </trkpt>
      <trkpt lat="47.053" lon="6.59862">
        <ele>753.5</ele>
        <time>2021-08-13T07:34:55Z</time>
      </trkpt>
      <trkpt lat="47.053" lon="6.59865">
        <ele>753.5</ele>
        <time>2021-08-13T07:34:57Z</time>
      </trkpt>
      <trkpt lat="47.05299" lon="6.59865">
        <ele>753.5</ele>
        <time>2021-08-13T07:34:58Z</time>
      </trkpt>
      <trkpt lat="47.05299" lon="6.59865">
        <ele>753.5</ele>
        <time>2021-08-13T07:35:00Z</time>
      </trkpt>
      <trkpt lat="47.05299" lon="6.59865">
        <ele>753.5</ele>
        <time>2021-08-13T07:35:01Z</time>
      </trkpt>
      <trkpt lat="47.05298" lon="6.59866">
        <ele>753.5</ele>
        <time>2021-08-13T07:35:03Z</time>
      </trkpt>
      <trkpt lat="47.05299" lon="6.59867">
        <ele>753.5</ele>
        <time>2021-08-13T07:35:04Z</time>
      </trkpt>
      <trkpt lat="47.05299" lon="6.59867">
        <ele>753.5</ele>
        <time>2021-08-13T07:35:05Z</time>
      </trkpt>
      <trkpt lat="47.05299" lon="6.59868">
        <ele>753.5</ele>
        <time>2021-08-13T07:35:06Z</time>
      </trkpt>
      <trkpt lat="47.05298" lon="6.59868">
        <ele>753.5</ele>
        <time>2021-08-13T07:35:08Z</time>
      </trkpt>
      <trkpt lat="47.05299" lon="6.59868">
        <ele>753.5</ele>
        <time>2021-08-13T07:35:10Z</time>
      </trkpt>
      <trkpt lat="47.05299" lon="6.59867">
        <ele>753.5</ele>
        <time>2021-08-13T07:35:11Z</time>
      </trkpt>
      <trkpt lat="47.05301" lon="6.5987">
        <ele>753.5</ele>
        <time>2021-08-13T07:35:12Z</time>
      </trkpt>
      <trkpt lat="47.05301" lon="6.59871">
        <ele>753.5</ele>
        <time>2021-08-13T07:35:13Z</time>
      </trkpt>
      <trkpt lat="47.05303" lon="6.59872">
        <ele>753.5</ele>
        <time>2021-08-13T07:35:15Z</time>
      </trkpt>
      <trkpt lat="47.05302" lon="6.59868">
        <ele>753.4</ele>
        <time>2021-08-13T07:35:17Z</time>
      </trkpt>
      <trkpt lat="47.05302" lon="6.59867">
        <ele>753.4</ele>
        <time>2021-08-13T07:35:18Z</time>
      </trkpt>
      <trkpt lat="47.05302" lon="6.59867">
        <ele>753.4</ele>
        <time>2021-08-13T07:35:20Z</time>
      </trkpt>
      <trkpt lat="47.05302" lon="6.59868">
        <ele>753.4</ele>
        <time>2021-08-13T07:35:21Z</time>
      </trkpt>
      <trkpt lat="47.05303" lon="6.59868">
        <ele>753.4</ele>
        <time>2021-08-13T07:35:23Z</time>
      </trkpt>
      <trkpt lat="47.05303" lon="6.59868">
        <ele>753.4</ele>
        <time>2021-08-13T07:35:24Z</time>
      </trkpt>
      <trkpt lat="47.05303" lon="6.59868">
        <ele>753.4</ele>
        <time>2021-08-13T07:35:25Z</time>
      </trkpt>
      <trkpt lat="47.05303" lon="6.59868">
        <ele>753.4</ele>
        <time>2021-08-13T07:35:26Z</time>
      </trkpt>
      <trkpt lat="47.05304" lon="6.59868">
        <ele>753.4</ele>
        <time>2021-08-13T07:35:28Z</time>
      </trkpt>
      <trkpt lat="47.05305" lon="6.59867">
        <ele>753.4</ele>
        <time>2021-08-13T07:35:30Z</time>
      </trkpt>
      <trkpt lat="47.05305" lon="6.59866">
        <ele>753.4</ele>
        <time>2021-08-13T07:35:32Z</time>
      </trkpt>
      <trkpt lat="47.05305" lon="6.59865">
        <ele>753.4</ele>
        <time>2021-08-13T07:35:33Z</time>
      </trkpt>
      <trkpt lat="47.05305" lon="6.59864">
        <ele>753.4</ele>
        <time>2021-08-13T07:35:34Z</time>
      </trkpt>
      <trkpt lat="47.05305" lon="6.59863">
        <ele>753.4</ele>
        <time>2021-08-13T07:35:36Z</time>
      </trkpt>
      <trkpt lat="47.05305" lon="6.59864">
        <ele>753.4</ele>
        <time>2021-08-13T07:35:37Z</time>
      </trkpt>
      <trkpt lat="47.05305" lon="6.59865">
        <ele>753.4</ele>
        <time>2021-08-13T07:35:39Z</time>
      </trkpt>
      <trkpt lat="47.05306" lon="6.59866">
        <ele>753.4</ele>
        <time>2021-08-13T07:35:40Z</time>
      </trkpt>
      <trkpt lat="47.05306" lon="6.59868">
        <ele>753.4</ele>
        <time>2021-08-13T07:35:42Z</time>
      </trkpt>
      <trkpt lat="47.05305" lon="6.59868">
        <ele>753.4</ele>
        <time>2021-08-13T07:35:43Z</time>
      </trkpt>
      <trkpt lat="47.05304" lon="6.59868">
        <ele>753.4</ele>
        <time>2021-08-13T07:35:44Z</time>
      </trkpt>
      <trkpt lat="47.05304" lon="6.59867">
        <ele>753.4</ele>
        <time>2021-08-13T07:35:45Z</time>
      </trkpt>
      <trkpt lat="47.05303" lon="6.59867">
        <ele>753.4</ele>
        <time>2021-08-13T07:35:47Z</time>
      </trkpt>
      <trkpt lat="47.05303" lon="6.59867">
        <ele>753.4</ele>
        <time>2021-08-13T07:35:48Z</time>
      </trkpt>
      <trkpt lat="47.05302" lon="6.59866">
        <ele>753.4</ele>
        <time>2021-08-13T07:35:50Z</time>
      </trkpt>
      <trkpt lat="47.05301" lon="6.59866">
        <ele>753.4</ele>
        <time>2021-08-13T07:35:51Z</time>
      </trkpt>
      <trkpt lat="47.053" lon="6.59866">
        <ele>753.4</ele>
        <time>2021-08-13T07:35:53Z</time>
      </trkpt>
      <trkpt lat="47.05301" lon="6.59867">
        <ele>753.4</ele>
        <time>2021-08-13T07:35:55Z</time>
      </trkpt>
      <trkpt lat="47.05303" lon="6.59868">
        <ele>753.4</ele>
        <time>2021-08-13T07:35:56Z</time>
      </trkpt>
      <trkpt lat="47.05305" lon="6.59868">
        <ele>753.4</ele>
        <time>2021-08-13T07:35:58Z</time>
      </trkpt>
      <trkpt lat="47.05311" lon="6.59874">
        <ele>753.4</ele>
        <time>2021-08-13T07:35:59Z</time>
      </trkpt>
      <trkpt lat="47.05319" lon="6.59881">
        <ele>753.4</ele>
        <time>2021-08-13T07:36:01Z</time>
      </trkpt>
      <trkpt lat="47.05322" lon="6.59883">
        <ele>753.4</ele>
        <time>2021-08-13T07:36:02Z</time>
      </trkpt>
      <trkpt lat="47.05326" lon="6.59886">
        <ele>753.4</ele>
        <time>2021-08-13T07:36:04Z</time>
      </trkpt>
      <trkpt lat="47.05327" lon="6.59888">
        <ele>753.4</ele>
        <time>2021-08-13T07:36:06Z</time>
      </trkpt>
      <trkpt lat="47.05326" lon="6.59887">
        <ele>753.4</ele>
        <time>2021-08-13T07:36:07Z</time>
      </trkpt>
      <trkpt lat="47.05325" lon="6.59887">
        <ele>753.4</ele>
        <time>2021-08-13T07:36:08Z</time>
      </trkpt>
      <trkpt lat="47.05323" lon="6.59886">
        <ele>753.4</ele>
        <time>2021-08-13T07:36:09Z</time>
      </trkpt>
      <trkpt lat="47.05321" lon="6.59886">
        <ele>753.4</ele>
        <time>2021-08-13T07:36:11Z</time>
      </trkpt>
      <trkpt lat="47.05319" lon="6.59883">
        <ele>753.4</ele>
        <time>2021-08-13T07:36:12Z</time>
      </trkpt>
      <trkpt lat="47.05315" lon="6.5988">
        <ele>753.4</ele>
        <time>2021-08-13T07:36:14Z</time>
      </trkpt>
      <trkpt lat="47.05311" lon="6.59878">
        <ele>753.4</ele>
        <time>2021-08-13T07:36:16Z</time>
      </trkpt>
      <trkpt lat="47.05308" lon="6.59876">
        <ele>753.4</ele>
        <time>2021-08-13T07:36:17Z</time>
      </trkpt>
      <trkpt lat="47.05304" lon="6.59874">
        <ele>753.4</ele>
        <time>2021-08-13T07:36:19Z</time>
      </trkpt>
      <trkpt lat="47.05299" lon="6.5987">
        <ele>753.4</ele>
        <time>2021-08-13T07:36:20Z</time>
      </trkpt>
      <trkpt lat="47.05294" lon="6.59866">
        <ele>753.4</ele>
        <time>2021-08-13T07:36:22Z</time>
      </trkpt>
      <trkpt lat="47.05289" lon="6.59862">
        <ele>753.4</ele>
        <time>2021-08-13T07:36:23Z</time>
      </trkpt>
      <trkpt lat="47.05289" lon="6.59864">
        <ele>753.4</ele>
        <time>2021-08-13T07:36:25Z</time>
      </trkpt>
      <trkpt lat="47.05289" lon="6.59866">
        <ele>753.4</ele>
        <time>2021-08-13T07:36:27Z</time>
      </trkpt>
      <trkpt lat="47.05288" lon="6.59866">
        <ele>753.4</ele>
        <time>2021-08-13T07:36:28Z</time>
      </trkpt>
      <trkpt lat="47.05289" lon="6.59865">
        <ele>753.4</ele>
        <time>2021-08-13T07:36:30Z</time>
      </trkpt>
      <trkpt lat="47.05289" lon="6.59865">
        <ele>753.4</ele>
        <time>2021-08-13T07:36:31Z</time>
      </trkpt>
      <trkpt lat="47.05289" lon="6.59866">
        <ele>753.4</ele>
        <time>2021-08-13T07:36:32Z</time>
      </trkpt>
      <trkpt lat="47.05289" lon="6.59867">
        <ele>753.4</ele>
        <time>2021-08-13T07:36:33Z</time>
      </trkpt>
      <trkpt lat="47.05289" lon="6.59868">
        <ele>753.4</ele>
        <time>2021-08-13T07:36:34Z</time>
      </trkpt>
      <trkpt lat="47.05289" lon="6.59869">
        <ele>753.4</ele>
        <time>2021-08-13T07:36:35Z</time>
      </trkpt>
      <trkpt lat="47.05289" lon="6.59869">
        <ele>753.4</ele>
        <time>2021-08-13T07:36:36Z</time>
      </trkpt>
      <trkpt lat="47.05289" lon="6.59871">
        <ele>753.4</ele>
        <time>2021-08-13T07:36:38Z</time>
      </trkpt>
      <trkpt lat="47.0529" lon="6.59873">
        <ele>753.4</ele>
        <time>2021-08-13T07:36:40Z</time>
      </trkpt>
      <trkpt lat="47.0529" lon="6.59874">
        <ele>753.4</ele>
        <time>2021-08-13T07:36:41Z</time>
      </trkpt>
      <trkpt lat="47.0529" lon="6.59875">
        <ele>753.4</ele>
        <time>2021-08-13T07:36:42Z</time>
      </trkpt>
      <trkpt lat="47.0529" lon="6.59877">
        <ele>753.4</ele>
        <time>2021-08-13T07:36:44Z</time>
      </trkpt>
      <trkpt lat="47.05291" lon="6.59879">
        <ele>753.4</ele>
        <time>2021-08-13T07:36:46Z</time>
      </trkpt>
      <trkpt lat="47.05292" lon="6.5988">
        <ele>753.4</ele>
        <time>2021-08-13T07:36:48Z</time>
      </trkpt>
      <trkpt lat="47.05293" lon="6.5988">
        <ele>753.4</ele>
        <time>2021-08-13T07:36:50Z</time>
      </trkpt>
      <trkpt lat="47.05296" lon="6.59878">
        <ele>753.4</ele>
        <time>2021-08-13T07:36:52Z</time>
      </trkpt>
      <trkpt lat="47.05298" lon="6.59874">
        <ele>753.4</ele>
        <time>2021-08-13T07:36:54Z</time>
      </trkpt>
      <trkpt lat="47.05297" lon="6.59874">
        <ele>753.4</ele>
        <time>2021-08-13T07:36:55Z</time>
      </trkpt>
      <trkpt lat="47.05297" lon="6.59874">
        <ele>753.4</ele>
        <time>2021-08-13T07:36:56Z</time>
      </trkpt>
      <trkpt lat="47.05296" lon="6.59875">
        <ele>753.4</ele>
        <time>2021-08-13T07:36:58Z</time>
      </trkpt>
      <trkpt lat="47.05296" lon="6.59875">
        <ele>753.4</ele>
        <time>2021-08-13T07:36:59Z</time>
      </trkpt>
      <trkpt lat="47.05296" lon="6.59876">
        <ele>753.4</ele>
        <time>2021-08-13T07:37:00Z</time>
      </trkpt>
      <trkpt lat="47.05296" lon="6.59878">
        <ele>753.4</ele>
        <time>2021-08-13T07:37:01Z</time>
      </trkpt>
      <trkpt lat="47.05296" lon="6.5988">
        <ele>753.4</ele>
        <time>2021-08-13T07:37:02Z</time>
      </trkpt>
      <trkpt lat="47.05296" lon="6.59881">
        <ele>753.4</ele>
        <time>2021-08-13T07:37:04Z</time>
      </trkpt>
      <trkpt lat="47.05296" lon="6.5988">
        <ele>753.4</ele>
        <time>2021-08-13T07:37:05Z</time>
      </trkpt>
      <trkpt lat="47.05296" lon="6.59881">
        <ele>753.4</ele>
        <time>2021-08-13T07:37:06Z</time>
      </trkpt>
      <trkpt lat="47.05297" lon="6.59882">
        <ele>753.4</ele>
        <time>2021-08-13T07:37:08Z</time>
      </trkpt>
      <trkpt lat="47.05297" lon="6.59882">
        <ele>753.4</ele>
        <time>2021-08-13T07:37:09Z</time>
      </trkpt>
      <trkpt lat="47.05296" lon="6.59882">
        <ele>753.4</ele>
        <time>2021-08-13T07:37:11Z</time>
      </trkpt>
      <trkpt lat="47.05296" lon="6.59882">
        <ele>753.4</ele>
        <time>2021-08-13T07:37:12Z</time>
      </trkpt>
      <trkpt lat="47.05296" lon="6.59882">
        <ele>753.4</ele>
        <time>2021-08-13T07:37:14Z</time>
      </trkpt>
      <trkpt lat="47.05296" lon="6.59882">
        <ele>753.4</ele>
        <time>2021-08-13T07:37:15Z</time>
      </trkpt>
      <trkpt lat="47.05296" lon="6.59881">
        <ele>753.4</ele>
        <time>2021-08-13T07:37:17Z</time>
      </trkpt>
      <trkpt lat="47.05296" lon="6.5988">
        <ele>753.4</ele>
        <time>2021-08-13T07:37:18Z</time>
      </trkpt>
      <trkpt lat="47.05296" lon="6.59879">
        <ele>753.4</ele>
        <time>2021-08-13T07:37:19Z</time>
      </trkpt>
      <trkpt lat="47.05296" lon="6.59879">
        <ele>753.4</ele>
        <time>2021-08-13T07:37:20Z</time>
      </trkpt>
      <trkpt lat="47.05296" lon="6.59878">
        <ele>753.4</ele>
        <time>2021-08-13T07:37:21Z</time>
      </trkpt>
      <trkpt lat="47.05296" lon="6.59877">
        <ele>753.4</ele>
        <time>2021-08-13T07:37:23Z</time>
      </trkpt>
      <trkpt lat="47.05296" lon="6.59877">
        <ele>753.4</ele>
        <time>2021-08-13T07:37:24Z</time>
      </trkpt>
      <trkpt lat="47.05295" lon="6.59876">
        <ele>753.4</ele>
        <time>2021-08-13T07:37:26Z</time>
      </trkpt>
      <trkpt lat="47.05295" lon="6.59875">
        <ele>753.4</ele>
        <time>2021-08-13T07:37:27Z</time>
      </trkpt>
      <trkpt lat="47.05295" lon="6.59875">
        <ele>753.4</ele>
        <time>2021-08-13T07:37:29Z</time>
      </trkpt>
      <trkpt lat="47.05295" lon="6.59875">
        <ele>753.4</ele>
        <time>2021-08-13T07:37:30Z</time>
      </trkpt>
      <trkpt lat="47.05295" lon="6.59875">
        <ele>753.4</ele>
        <time>2021-08-13T07:37:31Z</time>
      </trkpt>
      <trkpt lat="47.05295" lon="6.59874">
        <ele>753.4</ele>
        <time>2021-08-13T07:37:32Z</time>
      </trkpt>
      <trkpt lat="47.05295" lon="6.59874">
        <ele>753.4</ele>
        <time>2021-08-13T07:37:34Z</time>
      </trkpt>
      <trkpt lat="47.05295" lon="6.59874">
        <ele>753.4</ele>
        <time>2021-08-13T07:37:36Z</time>
      </trkpt>
      <trkpt lat="47.05295" lon="6.59873">
        <ele>753.4</ele>
        <time>2021-08-13T07:37:38Z</time>
      </trkpt>
      <trkpt lat="47.05295" lon="6.59873">
        <ele>753.4</ele>
        <time>2021-08-13T07:37:39Z</time>
      </trkpt>
      <trkpt lat="47.05296" lon="6.59873">
        <ele>753.4</ele>
        <time>2021-08-13T07:37:40Z</time>
      </trkpt>
      <trkpt lat="47.05297" lon="6.59873">
        <ele>753.4</ele>
        <time>2021-08-13T07:37:42Z</time>
      </trkpt>
      <trkpt lat="47.05297" lon="6.59872">
        <ele>753.4</ele>
        <time>2021-08-13T07:37:43Z</time>
      </trkpt>
      <trkpt lat="47.05298" lon="6.59872">
        <ele>753.4</ele>
        <time>2021-08-13T07:37:45Z</time>
      </trkpt>
      <trkpt lat="47.05299" lon="6.59872">
        <ele>753.4</ele>
        <time>2021-08-13T07:37:46Z</time>
      </trkpt>
      <trkpt lat="47.05299" lon="6.59871">
        <ele>753.4</ele>
        <time>2021-08-13T07:37:47Z</time>
      </trkpt>
      <trkpt lat="47.053" lon="6.59871">
        <ele>753.4</ele>
        <time>2021-08-13T07:37:48Z</time>
      </trkpt>
      <trkpt lat="47.053" lon="6.5987">
        <ele>753.4</ele>
        <time>2021-08-13T07:37:49Z</time>
      </trkpt>
      <trkpt lat="47.05301" lon="6.5987">
        <ele>753.4</ele>
        <time>2021-08-13T07:37:50Z</time>
      </trkpt>
      <trkpt lat="47.05302" lon="6.5987">
        <ele>753.4</ele>
        <time>2021-08-13T07:37:51Z</time>
      </trkpt>
      <trkpt lat="47.05303" lon="6.59869">
        <ele>753.4</ele>
        <time>2021-08-13T07:37:53Z</time>
      </trkpt>
      <trkpt lat="47.05304" lon="6.59869">
        <ele>753.4</ele>
        <time>2021-08-13T07:37:55Z</time>
      </trkpt>
      <trkpt lat="47.05305" lon="6.59869">
        <ele>753.4</ele>
        <time>2021-08-13T07:37:56Z</time>
      </trkpt>
      <trkpt lat="47.05306" lon="6.59869">
        <ele>753.4</ele>
        <time>2021-08-13T07:37:57Z</time>
      </trkpt>
      <trkpt lat="47.05306" lon="6.59869">
        <ele>753.4</ele>
        <time>2021-08-13T07:37:58Z</time>
      </trkpt>
      <trkpt lat="47.05307" lon="6.59869">
        <ele>753.4</ele>
        <time>2021-08-13T07:38:00Z</time>
      </trkpt>
      <trkpt lat="47.05308" lon="6.59869">
        <ele>753.4</ele>
        <time>2021-08-13T07:38:01Z</time>
      </trkpt>
      <trkpt lat="47.05308" lon="6.59869">
        <ele>753.4</ele>
        <time>2021-08-13T07:38:02Z</time>
      </trkpt>
      <trkpt lat="47.05309" lon="6.59869">
        <ele>753.4</ele>
        <time>2021-08-13T07:38:03Z</time>
      </trkpt>
      <trkpt lat="47.0531" lon="6.59869">
        <ele>753.4</ele>
        <time>2021-08-13T07:38:04Z</time>
      </trkpt>
      <trkpt lat="47.0531" lon="6.59869">
        <ele>753.4</ele>
        <time>2021-08-13T07:38:05Z</time>
      </trkpt>
      <trkpt lat="47.05311" lon="6.59869">
        <ele>753.4</ele>
        <time>2021-08-13T07:38:06Z</time>
      </trkpt>
      <trkpt lat="47.05312" lon="6.59869">
        <ele>753.4</ele>
        <time>2021-08-13T07:38:08Z</time>
      </trkpt>
      <trkpt lat="47.05312" lon="6.5987">
        <ele>753.4</ele>
        <time>2021-08-13T07:38:10Z</time>
      </trkpt>
      <trkpt lat="47.05312" lon="6.5987">
        <ele>753.4</ele>
        <time>2021-08-13T07:38:11Z</time>
      </trkpt>
      <trkpt lat="47.05311" lon="6.59869">
        <ele>753.4</ele>
        <time>2021-08-13T07:38:12Z</time>
      </trkpt>
      <trkpt lat="47.05311" lon="6.59869">
        <ele>753.4</ele>
        <time>2021-08-13T07:38:14Z</time>
      </trkpt>
      <trkpt lat="47.05311" lon="6.5987">
        <ele>753.4</ele>
        <time>2021-08-13T07:38:15Z</time>
      </trkpt>
      <trkpt lat="47.05311" lon="6.5987">
        <ele>753.4</ele>
        <time>2021-08-13T07:38:16Z</time>
      </trkpt>
      <trkpt lat="47.0531" lon="6.5987">
        <ele>753.4</ele>
        <time>2021-08-13T07:38:18Z</time>
      </trkpt>
      <trkpt lat="47.0531" lon="6.59871">
        <ele>753.4</ele>
        <time>2021-08-13T07:38:20Z</time>
      </trkpt>
      <trkpt lat="47.05309" lon="6.59871">
        <ele>753.4</ele>
        <time>2021-08-13T07:38:21Z</time>
      </trkpt>
      <trkpt lat="47.05308" lon="6.59872">
        <ele>753.4</ele>
        <time>2021-08-13T07:38:23Z</time>
      </trkpt>
      <trkpt lat="47.05308" lon="6.59873">
        <ele>753.4</ele>
        <time>2021-08-13T07:38:24Z</time>
      </trkpt>
      <trkpt lat="47.05307" lon="6.59874">
        <ele>753.4</ele>
        <time>2021-08-13T07:38:26Z</time>
      </trkpt>
      <trkpt lat="47.05306" lon="6.59874">
        <ele>753.4</ele>
        <time>2021-08-13T07:38:27Z</time>
      </trkpt>
      <trkpt lat="47.05306" lon="6.59874">
        <ele>753.4</ele>
        <time>2021-08-13T07:38:28Z</time>
      </trkpt>
      <trkpt lat="47.05306" lon="6.59874">
        <ele>753.4</ele>
        <time>2021-08-13T07:38:30Z</time>
      </trkpt>
      <trkpt lat="47.05306" lon="6.59874">
        <ele>753.4</ele>
        <time>2021-08-13T07:38:31Z</time>
      </trkpt>
      <trkpt lat="47.05306" lon="6.59875">
        <ele>753.4</ele>
        <time>2021-08-13T07:38:32Z</time>
      </trkpt>
      <trkpt lat="47.05305" lon="6.59875">
        <ele>753.4</ele>
        <time>2021-08-13T07:38:33Z</time>
      </trkpt>
      <trkpt lat="47.05305" lon="6.59876">
        <ele>753.4</ele>
        <time>2021-08-13T07:38:34Z</time>
      </trkpt>
      <trkpt lat="47.05305" lon="6.59877">
        <ele>753.4</ele>
        <time>2021-08-13T07:38:36Z</time>
      </trkpt>
      <trkpt lat="47.05304" lon="6.59878">
        <ele>753.4</ele>
        <time>2021-08-13T07:38:38Z</time>
      </trkpt>
      <trkpt lat="47.05304" lon="6.59879">
        <ele>753.4</ele>
        <time>2021-08-13T07:38:39Z</time>
      </trkpt>
      <trkpt lat="47.05303" lon="6.59879">
        <ele>753.4</ele>
        <time>2021-08-13T07:38:40Z</time>
      </trkpt>
      <trkpt lat="47.05303" lon="6.59879">
        <ele>753.4</ele>
        <time>2021-08-13T07:38:42Z</time>
      </trkpt>
      <trkpt lat="47.05302" lon="6.59879">
        <ele>753.4</ele>
        <time>2021-08-13T07:38:44Z</time>
      </trkpt>
      <trkpt lat="47.05302" lon="6.59878">
        <ele>753.4</ele>
        <time>2021-08-13T07:38:46Z</time>
      </trkpt>
      <trkpt lat="47.05302" lon="6.59878">
        <ele>753.4</ele>
        <time>2021-08-13T07:38:47Z</time>
      </trkpt>
      <trkpt lat="47.05302" lon="6.59878">
        <ele>753.4</ele>
        <time>2021-08-13T07:38:48Z</time>
      </trkpt>
      <trkpt lat="47.05302" lon="6.59878">
        <ele>753.4</ele>
        <time>2021-08-13T07:38:50Z</time>
      </trkpt>
      <trkpt lat="47.05302" lon="6.59877">
        <ele>753.4</ele>
        <time>2021-08-13T07:38:52Z</time>
      </trkpt>
      <trkpt lat="47.05302" lon="6.59877">
        <ele>753.4</ele>
        <time>2021-08-13T07:38:54Z</time>
      </trkpt>
      <trkpt lat="47.05303" lon="6.59876">
        <ele>753.4</ele>
        <time>2021-08-13T07:38:56Z</time>
      </trkpt>
      <trkpt lat="47.05303" lon="6.59876">
        <ele>753.4</ele>
        <time>2021-08-13T07:38:57Z</time>
      </trkpt>
      <trkpt lat="47.05305" lon="6.59874">
        <ele>753.4</ele>
        <time>2021-08-13T07:38:59Z</time>
      </trkpt>
      <trkpt lat="47.05307" lon="6.59872">
        <ele>753.4</ele>
        <time>2021-08-13T07:39:00Z</time>
      </trkpt>
      <trkpt lat="47.05308" lon="6.59871">
        <ele>753.4</ele>
        <time>2021-08-13T07:39:02Z</time>
      </trkpt>
      <trkpt lat="47.05309" lon="6.59871">
        <ele>753.4</ele>
        <time>2021-08-13T07:39:04Z</time>
      </trkpt>
      <trkpt lat="47.05308" lon="6.59873">
        <ele>753.4</ele>
        <time>2021-08-13T07:39:05Z</time>
      </trkpt>
      <trkpt lat="47.05306" lon="6.59874">
        <ele>753.4</ele>
        <time>2021-08-13T07:39:06Z</time>
      </trkpt>
      <trkpt lat="47.05304" lon="6.59874">
        <ele>753.4</ele>
        <time>2021-08-13T07:39:08Z</time>
      </trkpt>
      <trkpt lat="47.05303" lon="6.59875">
        <ele>753.4</ele>
        <time>2021-08-13T07:39:10Z</time>
      </trkpt>
      <trkpt lat="47.05302" lon="6.59874">
        <ele>753.4</ele>
        <time>2021-08-13T07:39:11Z</time>
      </trkpt>
      <trkpt lat="47.05303" lon="6.59874">
        <ele>753.4</ele>
        <time>2021-08-13T07:39:12Z</time>
      </trkpt>
      <trkpt lat="47.05303" lon="6.59874">
        <ele>753.4</ele>
        <time>2021-08-13T07:39:14Z</time>
      </trkpt>
      <trkpt lat="47.05302" lon="6.59874">
        <ele>753.4</ele>
        <time>2021-08-13T07:39:15Z</time>
      </trkpt>
      <trkpt lat="47.05302" lon="6.59873">
        <ele>753.4</ele>
        <time>2021-08-13T07:39:17Z</time>
      </trkpt>
      <trkpt lat="47.05302" lon="6.59874">
        <ele>753.4</ele>
        <time>2021-08-13T07:39:18Z</time>
      </trkpt>
      <trkpt lat="47.05303" lon="6.59873">
        <ele>753.4</ele>
        <time>2021-08-13T07:39:19Z</time>
      </trkpt>
      <trkpt lat="47.05304" lon="6.59872">
        <ele>753.4</ele>
        <time>2021-08-13T07:39:21Z</time>
      </trkpt>
      <trkpt lat="47.05304" lon="6.59871">
        <ele>753.4</ele>
        <time>2021-08-13T07:39:23Z</time>
      </trkpt>
      <trkpt lat="47.05304" lon="6.5987">
        <ele>753.4</ele>
        <time>2021-08-13T07:39:24Z</time>
      </trkpt>
      <trkpt lat="47.05304" lon="6.5987">
        <ele>753.4</ele>
        <time>2021-08-13T07:39:25Z</time>
      </trkpt>
      <trkpt lat="47.05303" lon="6.5987">
        <ele>753.4</ele>
        <time>2021-08-13T07:39:26Z</time>
      </trkpt>
      <trkpt lat="47.05303" lon="6.5987">
        <ele>753.4</ele>
        <time>2021-08-13T07:39:27Z</time>
      </trkpt>
      <trkpt lat="47.05304" lon="6.59869">
        <ele>753.4</ele>
        <time>2021-08-13T07:39:28Z</time>
      </trkpt>
      <trkpt lat="47.05304" lon="6.59869">
        <ele>753.4</ele>
        <time>2021-08-13T07:39:30Z</time>
      </trkpt>
      <trkpt lat="47.05305" lon="6.59868">
        <ele>753.4</ele>
        <time>2021-08-13T07:39:31Z</time>
      </trkpt>
      <trkpt lat="47.05306" lon="6.59867">
        <ele>753.4</ele>
        <time>2021-08-13T07:39:32Z</time>
      </trkpt>
      <trkpt lat="47.05307" lon="6.59866">
        <ele>753.4</ele>
        <time>2021-08-13T07:39:33Z</time>
      </trkpt>
      <trkpt lat="47.05308" lon="6.59865">
        <ele>753.4</ele>
        <time>2021-08-13T07:39:34Z</time>
      </trkpt>
      <trkpt lat="47.05309" lon="6.59863">
        <ele>753.4</ele>
        <time>2021-08-13T07:39:36Z</time>
      </trkpt>
      <trkpt lat="47.05309" lon="6.59864">
        <ele>753.4</ele>
        <time>2021-08-13T07:39:37Z</time>
      </trkpt>
      <trkpt lat="47.0531" lon="6.59863">
        <ele>753.4</ele>
        <time>2021-08-13T07:39:39Z</time>
      </trkpt>
      <trkpt lat="47.05309" lon="6.59864">
        <ele>753.4</ele>
        <time>2021-08-13T07:39:40Z</time>
      </trkpt>
      <trkpt lat="47.05308" lon="6.59865">
        <ele>753.4</ele>
        <time>2021-08-13T07:39:41Z</time>
      </trkpt>
      <trkpt lat="47.05308" lon="6.59864">
        <ele>753.4</ele>
        <time>2021-08-13T07:39:43Z</time>
      </trkpt>
      <trkpt lat="47.05308" lon="6.59863">
        <ele>753.4</ele>
        <time>2021-08-13T07:39:44Z</time>
      </trkpt>
      <trkpt lat="47.05307" lon="6.59863">
        <ele>753.4</ele>
        <time>2021-08-13T07:39:45Z</time>
      </trkpt>
      <trkpt lat="47.05307" lon="6.59863">
        <ele>753.4</ele>
        <time>2021-08-13T07:39:47Z</time>
      </trkpt>
      <trkpt lat="47.05306" lon="6.59862">
        <ele>753.3</ele>
        <time>2021-08-13T07:39:49Z</time>
      </trkpt>
      <trkpt lat="47.05306" lon="6.59863">
        <ele>753.3</ele>
        <time>2021-08-13T07:39:50Z</time>
      </trkpt>
      <trkpt lat="47.05306" lon="6.59863">
        <ele>753.3</ele>
        <time>2021-08-13T07:39:51Z</time>
      </trkpt>
      <trkpt lat="47.05306" lon="6.59863">
        <ele>753.3</ele>
        <time>2021-08-13T07:39:52Z</time>
      </trkpt>
      <trkpt lat="47.05305" lon="6.59863">
        <ele>753.3</ele>
        <time>2021-08-13T07:39:54Z</time>
      </trkpt>
      <trkpt lat="47.05305" lon="6.59864">
        <ele>753.3</ele>
        <time>2021-08-13T07:39:55Z</time>
      </trkpt>
      <trkpt lat="47.05305" lon="6.59864">
        <ele>753.3</ele>
        <time>2021-08-13T07:39:56Z</time>
      </trkpt>
      <trkpt lat="47.05305" lon="6.59864">
        <ele>753.3</ele>
        <time>2021-08-13T07:39:58Z</time>
      </trkpt>
      <trkpt lat="47.05305" lon="6.59864">
        <ele>753.3</ele>
        <time>2021-08-13T07:39:59Z</time>
      </trkpt>
      <trkpt lat="47.05305" lon="6.59864">
        <ele>753.3</ele>
        <time>2021-08-13T07:40:00Z</time>
      </trkpt>
      <trkpt lat="47.05305" lon="6.59863">
        <ele>753.3</ele>
        <time>2021-08-13T07:40:02Z</time>
      </trkpt>
      <trkpt lat="47.05305" lon="6.59862">
        <ele>753.3</ele>
        <time>2021-08-13T07:40:03Z</time>
      </trkpt>
      <trkpt lat="47.05305" lon="6.59862">
        <ele>753.3</ele>
        <time>2021-08-13T07:40:04Z</time>
      </trkpt>
      <trkpt lat="47.05304" lon="6.5986">
        <ele>753.3</ele>
        <time>2021-08-13T07:40:05Z</time>
      </trkpt>
      <trkpt lat="47.05304" lon="6.59858">
        <ele>753.3</ele>
        <time>2021-08-13T07:40:06Z</time>
      </trkpt>
      <trkpt lat="47.05303" lon="6.59859">
        <ele>753.3</ele>
        <time>2021-08-13T07:40:08Z</time>
      </trkpt>
      <trkpt lat="47.05302" lon="6.5986">
        <ele>753.3</ele>
        <time>2021-08-13T07:40:09Z</time>
      </trkpt>
      <trkpt lat="47.05302" lon="6.59859">
        <ele>753.3</ele>
        <time>2021-08-13T07:40:10Z</time>
      </trkpt>
      <trkpt lat="47.05303" lon="6.59858">
        <ele>753.3</ele>
        <time>2021-08-13T07:40:12Z</time>
      </trkpt>
      <trkpt lat="47.05302" lon="6.59857">
        <ele>753.3</ele>
        <time>2021-08-13T07:40:13Z</time>
      </trkpt>
      <trkpt lat="47.05302" lon="6.59855">
        <ele>753.3</ele>
        <time>2021-08-13T07:40:15Z</time>
      </trkpt>
      <trkpt lat="47.05302" lon="6.59855">
        <ele>753.3</ele>
        <time>2021-08-13T07:40:16Z</time>
      </trkpt>
      <trkpt lat="47.05302" lon="6.59854">
        <ele>753.3</ele>
        <time>2021-08-13T07:40:17Z</time>
      </trkpt>
      <trkpt lat="47.05303" lon="6.59856">
        <ele>753.3</ele>
        <time>2021-08-13T07:40:19Z</time>
      </trkpt>
      <trkpt lat="47.05304" lon="6.59858">
        <ele>753.3</ele>
        <time>2021-08-13T07:40:20Z</time>
      </trkpt>
      <trkpt lat="47.05304" lon="6.59858">
        <ele>753.3</ele>
        <time>2021-08-13T07:40:22Z</time>
      </trkpt>
      <trkpt lat="47.05304" lon="6.59858">
        <ele>753.3</ele>
        <time>2021-08-13T07:40:23Z</time>
      </trkpt>
      <trkpt lat="47.05304" lon="6.59858">
        <ele>753.3</ele>
        <time>2021-08-13T07:40:24Z</time>
      </trkpt>
      <trkpt lat="47.05304" lon="6.59858">
        <ele>753.3</ele>
        <time>2021-08-13T07:40:26Z</time>
      </trkpt>
      <trkpt lat="47.05304" lon="6.59858">
        <ele>753.3</ele>
        <time>2021-08-13T07:40:28Z</time>
      </trkpt>
      <trkpt lat="47.05304" lon="6.59859">
        <ele>753.3</ele>
        <time>2021-08-13T07:40:29Z</time>
      </trkpt>
      <trkpt lat="47.05305" lon="6.59859">
        <ele>753.3</ele>
        <time>2021-08-13T07:40:30Z</time>
      </trkpt>
      <trkpt lat="47.05305" lon="6.59859">
        <ele>753.3</ele>
        <time>2021-08-13T07:40:32Z</time>
      </trkpt>
      <trkpt lat="47.05306" lon="6.59859">
        <ele>753.3</ele>
        <time>2021-08-13T07:40:34Z</time>
      </trkpt>
      <trkpt lat="47.05307" lon="6.59858">
        <ele>753.3</ele>
        <time>2021-08-13T07:40:36Z</time>
      </trkpt>
      <trkpt lat="47.05308" lon="6.59857">
        <ele>753.3</ele>
        <time>2021-08-13T07:40:38Z</time>
      </trkpt>
      <trkpt lat="47.05307" lon="6.59857">
        <ele>753.3</ele>
        <time>2021-08-13T07:40:40Z</time>
      </trkpt>
      <trkpt lat="47.05306" lon="6.59857">
        <ele>753.3</ele>
        <time>2021-08-13T07:40:41Z</time>
      </trkpt>
      <trkpt lat="47.05305" lon="6.59857">
        <ele>753.3</ele>
        <time>2021-08-13T07:40:42Z</time>
      </trkpt>
      <trkpt lat="47.05303" lon="6.59858">
        <ele>753.3</ele>
        <time>2021-08-13T07:40:44Z</time>
      </trkpt>
      <trkpt lat="47.05301" lon="6.59859">
        <ele>753.3</ele>
        <time>2021-08-13T07:40:46Z</time>
      </trkpt>
      <trkpt lat="47.053" lon="6.5986">
        <ele>753.3</ele>
        <time>2021-08-13T07:40:47Z</time>
      </trkpt>
      <trkpt lat="47.05299" lon="6.5986">
        <ele>753.3</ele>
        <time>2021-08-13T07:40:48Z</time>
      </trkpt>
      <trkpt lat="47.05296" lon="6.59861">
        <ele>753.3</ele>
        <time>2021-08-13T07:40:50Z</time>
      </trkpt>
      <trkpt lat="47.05295" lon="6.59862">
        <ele>753.3</ele>
        <time>2021-08-13T07:40:51Z</time>
      </trkpt>
      <trkpt lat="47.05294" lon="6.59862">
        <ele>753.3</ele>
        <time>2021-08-13T07:40:53Z</time>
      </trkpt>
      <trkpt lat="47.05295" lon="6.59862">
        <ele>753.3</ele>
        <time>2021-08-13T07:40:54Z</time>
      </trkpt>
      <trkpt lat="47.05296" lon="6.59863">
        <ele>753.3</ele>
        <time>2021-08-13T07:40:55Z</time>
      </trkpt>
      <trkpt lat="47.05297" lon="6.59863">
        <ele>753.3</ele>
        <time>2021-08-13T07:40:57Z</time>
      </trkpt>
      <trkpt lat="47.05296" lon="6.59865">
        <ele>753.3</ele>
        <time>2021-08-13T07:40:59Z</time>
      </trkpt>
      <trkpt lat="47.05296" lon="6.59865">
        <ele>753.3</ele>
        <time>2021-08-13T07:41:00Z</time>
      </trkpt>
      <trkpt lat="47.05295" lon="6.59867">
        <ele>753.3</ele>
        <time>2021-08-13T07:41:03Z</time>
      </trkpt>
      <trkpt lat="47.05295" lon="6.59867">
        <ele>753.3</ele>
        <time>2021-08-13T07:41:04Z</time>
      </trkpt>
      <trkpt lat="47.05296" lon="6.59867">
        <ele>753.3</ele>
        <time>2021-08-13T07:41:06Z</time>
      </trkpt>
      <trkpt lat="47.05296" lon="6.59867">
        <ele>753.3</ele>
        <time>2021-08-13T07:41:08Z</time>
      </trkpt>
      <trkpt lat="47.05296" lon="6.59867">
        <ele>753.3</ele>
        <time>2021-08-13T07:41:09Z</time>
      </trkpt>
      <trkpt lat="47.05296" lon="6.59867">
        <ele>753.3</ele>
        <time>2021-08-13T07:41:11Z</time>
      </trkpt>
      <trkpt lat="47.05296" lon="6.59867">
        <ele>753.3</ele>
        <time>2021-08-13T07:41:12Z</time>
      </trkpt>
      <trkpt lat="47.05296" lon="6.59867">
        <ele>753.3</ele>
        <time>2021-08-13T07:41:14Z</time>
      </trkpt>
      <trkpt lat="47.05297" lon="6.5987">
        <ele>753.3</ele>
        <time>2021-08-13T07:41:15Z</time>
      </trkpt>
      <trkpt lat="47.05297" lon="6.5987">
        <ele>753.3</ele>
        <time>2021-08-13T07:41:16Z</time>
      </trkpt>
      <trkpt lat="47.05298" lon="6.5987">
        <ele>753.3</ele>
        <time>2021-08-13T07:41:18Z</time>
      </trkpt>
      <trkpt lat="47.05297" lon="6.5987">
        <ele>753.3</ele>
        <time>2021-08-13T07:41:19Z</time>
      </trkpt>
      <trkpt lat="47.05298" lon="6.59869">
        <ele>753.3</ele>
        <time>2021-08-13T07:41:21Z</time>
      </trkpt>
      <trkpt lat="47.05299" lon="6.59869">
        <ele>753.3</ele>
        <time>2021-08-13T07:41:23Z</time>
      </trkpt>
      <trkpt lat="47.05299" lon="6.5987">
        <ele>753.3</ele>
        <time>2021-08-13T07:41:25Z</time>
      </trkpt>
      <trkpt lat="47.05299" lon="6.5987">
        <ele>753.3</ele>
        <time>2021-08-13T07:41:26Z</time>
      </trkpt>
      <trkpt lat="47.05299" lon="6.5987">
        <ele>753.3</ele>
        <time>2021-08-13T07:41:28Z</time>
      </trkpt>
      <trkpt lat="47.05299" lon="6.5987">
        <ele>753.3</ele>
        <time>2021-08-13T07:41:29Z</time>
      </trkpt>
      <trkpt lat="47.05299" lon="6.5987">
        <ele>753.3</ele>
        <time>2021-08-13T07:41:31Z</time>
      </trkpt>
      <trkpt lat="47.05298" lon="6.5987">
        <ele>753.3</ele>
        <time>2021-08-13T07:41:34Z</time>
      </trkpt>
      <trkpt lat="47.05298" lon="6.5987">
        <ele>753.3</ele>
        <time>2021-08-13T07:41:35Z</time>
      </trkpt>
      <trkpt lat="47.05298" lon="6.5987">
        <ele>753.3</ele>
        <time>2021-08-13T07:41:36Z</time>
      </trkpt>
      <trkpt lat="47.05298" lon="6.5987">
        <ele>753.3</ele>
        <time>2021-08-13T07:41:38Z</time>
      </trkpt>
      <trkpt lat="47.05297" lon="6.5987">
        <ele>753.3</ele>
        <time>2021-08-13T07:41:40Z</time>
      </trkpt>
      <trkpt lat="47.05297" lon="6.5987">
        <ele>753.3</ele>
        <time>2021-08-13T07:41:41Z</time>
      </trkpt>
      <trkpt lat="47.05297" lon="6.59869">
        <ele>753.3</ele>
        <time>2021-08-13T07:41:42Z</time>
      </trkpt>
      <trkpt lat="47.05296" lon="6.59868">
        <ele>753.3</ele>
        <time>2021-08-13T07:41:44Z</time>
      </trkpt>
      <trkpt lat="47.05296" lon="6.59867">
        <ele>753.3</ele>
        <time>2021-08-13T07:41:46Z</time>
      </trkpt>
      <trkpt lat="47.05296" lon="6.59867">
        <ele>753.3</ele>
        <time>2021-08-13T07:41:48Z</time>
      </trkpt>
      <trkpt lat="47.05296" lon="6.59866">
        <ele>753.3</ele>
        <time>2021-08-13T07:41:50Z</time>
      </trkpt>
      <trkpt lat="47.05296" lon="6.59866">
        <ele>753.3</ele>
        <time>2021-08-13T07:41:51Z</time>
      </trkpt>
      <trkpt lat="47.05296" lon="6.59865">
        <ele>753.3</ele>
        <time>2021-08-13T07:41:52Z</time>
      </trkpt>
      <trkpt lat="47.05296" lon="6.59865">
        <ele>753.3</ele>
        <time>2021-08-13T07:41:54Z</time>
      </trkpt>
      <trkpt lat="47.05296" lon="6.59865">
        <ele>753.3</ele>
        <time>2021-08-13T07:41:56Z</time>
      </trkpt>
      <trkpt lat="47.05296" lon="6.59865">
        <ele>753.3</ele>
        <time>2021-08-13T07:41:58Z</time>
      </trkpt>
      <trkpt lat="47.05296" lon="6.59864">
        <ele>753.3</ele>
        <time>2021-08-13T07:41:59Z</time>
      </trkpt>
      <trkpt lat="47.05296" lon="6.59864">
        <ele>753.3</ele>
        <time>2021-08-13T07:42:00Z</time>
      </trkpt>
      <trkpt lat="47.05295" lon="6.59864">
        <ele>753.3</ele>
        <time>2021-08-13T07:42:02Z</time>
      </trkpt>
      <trkpt lat="47.05294" lon="6.59863">
        <ele>753.3</ele>
        <time>2021-08-13T07:42:03Z</time>
      </trkpt>
      <trkpt lat="47.05294" lon="6.59863">
        <ele>753.3</ele>
        <time>2021-08-13T07:42:04Z</time>
      </trkpt>
      <trkpt lat="47.05293" lon="6.59863">
        <ele>753.3</ele>
        <time>2021-08-13T07:42:05Z</time>
      </trkpt>
      <trkpt lat="47.05293" lon="6.59862">
        <ele>753.3</ele>
        <time>2021-08-13T07:42:06Z</time>
      </trkpt>
      <trkpt lat="47.05293" lon="6.59862">
        <ele>753.3</ele>
        <time>2021-08-13T07:42:08Z</time>
      </trkpt>
      <trkpt lat="47.05293" lon="6.59862">
        <ele>753.3</ele>
        <time>2021-08-13T07:42:09Z</time>
      </trkpt>
      <trkpt lat="47.05292" lon="6.59862">
        <ele>753.3</ele>
        <time>2021-08-13T07:42:11Z</time>
      </trkpt>
      <trkpt lat="47.05292" lon="6.59861">
        <ele>753.3</ele>
        <time>2021-08-13T07:42:12Z</time>
      </trkpt>
      <trkpt lat="47.05292" lon="6.59861">
        <ele>753.3</ele>
        <time>2021-08-13T07:42:13Z</time>
      </trkpt>
      <trkpt lat="47.05292" lon="6.59861">
        <ele>753.3</ele>
        <time>2021-08-13T07:42:14Z</time>
      </trkpt>
      <trkpt lat="47.05292" lon="6.59861">
        <ele>753.3</ele>
        <time>2021-08-13T07:42:15Z</time>
      </trkpt>
      <trkpt lat="47.05292" lon="6.59861">
        <ele>753.3</ele>
        <time>2021-08-13T07:42:16Z</time>
      </trkpt>
      <trkpt lat="47.05292" lon="6.59861">
        <ele>753.3</ele>
        <time>2021-08-13T07:42:17Z</time>
      </trkpt>
      <trkpt lat="47.05292" lon="6.59861">
        <ele>753.3</ele>
        <time>2021-08-13T07:42:18Z</time>
      </trkpt>
      <trkpt lat="47.05292" lon="6.59861">
        <ele>753.3</ele>
        <time>2021-08-13T07:42:20Z</time>
      </trkpt>
      <trkpt lat="47.05292" lon="6.59861">
        <ele>753.3</ele>
        <time>2021-08-13T07:42:21Z</time>
      </trkpt>
      <trkpt lat="47.05293" lon="6.59861">
        <ele>753.3</ele>
        <time>2021-08-13T07:42:23Z</time>
      </trkpt>
      <trkpt lat="47.05293" lon="6.59861">
        <ele>753.3</ele>
        <time>2021-08-13T07:42:25Z</time>
      </trkpt>
      <trkpt lat="47.05293" lon="6.59862">
        <ele>753.3</ele>
        <time>2021-08-13T07:42:27Z</time>
      </trkpt>
      <trkpt lat="47.05293" lon="6.59862">
        <ele>753.3</ele>
        <time>2021-08-13T07:42:28Z</time>
      </trkpt>
      <trkpt lat="47.05293" lon="6.59863">
        <ele>753.3</ele>
        <time>2021-08-13T07:42:30Z</time>
      </trkpt>
      <trkpt lat="47.05293" lon="6.59863">
        <ele>753.3</ele>
        <time>2021-08-13T07:42:32Z</time>
      </trkpt>
      <trkpt lat="47.05294" lon="6.59863">
        <ele>753.3</ele>
        <time>2021-08-13T07:42:34Z</time>
      </trkpt>
      <trkpt lat="47.05294" lon="6.59864">
        <ele>753.3</ele>
        <time>2021-08-13T07:42:35Z</time>
      </trkpt>
      <trkpt lat="47.05294" lon="6.59865">
        <ele>753.3</ele>
        <time>2021-08-13T07:42:36Z</time>
      </trkpt>
      <trkpt lat="47.05294" lon="6.59866">
        <ele>753.3</ele>
        <time>2021-08-13T07:42:38Z</time>
      </trkpt>
      <trkpt lat="47.05294" lon="6.59867">
        <ele>753.3</ele>
        <time>2021-08-13T07:42:40Z</time>
      </trkpt>
      <trkpt lat="47.05293" lon="6.59868">
        <ele>753.3</ele>
        <time>2021-08-13T07:42:41Z</time>
      </trkpt>
      <trkpt lat="47.05293" lon="6.59868">
        <ele>753.3</ele>
        <time>2021-08-13T07:42:42Z</time>
      </trkpt>
      <trkpt lat="47.05293" lon="6.59869">
        <ele>753.3</ele>
        <time>2021-08-13T07:42:44Z</time>
      </trkpt>
      <trkpt lat="47.05293" lon="6.59869">
        <ele>753.3</ele>
        <time>2021-08-13T07:42:46Z</time>
      </trkpt>
      <trkpt lat="47.05293" lon="6.59869">
        <ele>753.3</ele>
        <time>2021-08-13T07:42:48Z</time>
      </trkpt>
      <trkpt lat="47.05294" lon="6.59869">
        <ele>753.3</ele>
        <time>2021-08-13T07:42:50Z</time>
      </trkpt>
      <trkpt lat="47.05295" lon="6.59868">
        <ele>753.3</ele>
        <time>2021-08-13T07:42:52Z</time>
      </trkpt>
      <trkpt lat="47.05295" lon="6.59868">
        <ele>753.3</ele>
        <time>2021-08-13T07:42:53Z</time>
      </trkpt>
      <trkpt lat="47.05296" lon="6.59868">
        <ele>753.3</ele>
        <time>2021-08-13T07:42:55Z</time>
      </trkpt>
      <trkpt lat="47.05297" lon="6.59867">
        <ele>753.3</ele>
        <time>2021-08-13T07:42:57Z</time>
      </trkpt>
      <trkpt lat="47.05297" lon="6.59866">
        <ele>753.3</ele>
        <time>2021-08-13T07:42:59Z</time>
      </trkpt>
      <trkpt lat="47.05297" lon="6.59867">
        <ele>753.3</ele>
        <time>2021-08-13T07:43:00Z</time>
      </trkpt>
      <trkpt lat="47.05296" lon="6.59868">
        <ele>753.3</ele>
        <time>2021-08-13T07:43:02Z</time>
      </trkpt>
      <trkpt lat="47.05297" lon="6.59869">
        <ele>753.3</ele>
        <time>2021-08-13T07:43:04Z</time>
      </trkpt>
      <trkpt lat="47.05297" lon="6.59869">
        <ele>753.3</ele>
        <time>2021-08-13T07:43:06Z</time>
      </trkpt>
      <trkpt lat="47.05298" lon="6.5987">
        <ele>753.3</ele>
        <time>2021-08-13T07:43:08Z</time>
      </trkpt>
      <trkpt lat="47.05297" lon="6.59872">
        <ele>753.3</ele>
        <time>2021-08-13T07:43:10Z</time>
      </trkpt>
      <trkpt lat="47.05297" lon="6.59872">
        <ele>753.3</ele>
        <time>2021-08-13T07:43:12Z</time>
      </trkpt>
      <trkpt lat="47.05297" lon="6.59872">
        <ele>753.3</ele>
        <time>2021-08-13T07:43:13Z</time>
      </trkpt>
      <trkpt lat="47.05297" lon="6.59872">
        <ele>753.3</ele>
        <time>2021-08-13T07:43:14Z</time>
      </trkpt>
      <trkpt lat="47.05298" lon="6.59872">
        <ele>753.3</ele>
        <time>2021-08-13T07:43:16Z</time>
      </trkpt>
      <trkpt lat="47.05298" lon="6.59872">
        <ele>753.3</ele>
        <time>2021-08-13T07:43:17Z</time>
      </trkpt>
      <trkpt lat="47.05298" lon="6.59872">
        <ele>753.3</ele>
        <time>2021-08-13T07:43:18Z</time>
      </trkpt>
      <trkpt lat="47.05298" lon="6.59872">
        <ele>753.3</ele>
        <time>2021-08-13T07:43:20Z</time>
      </trkpt>
      <trkpt lat="47.05303" lon="6.59875">
        <ele>753.3</ele>
        <time>2021-08-13T08:00:42Z</time>
      </trkpt>
      <trkpt lat="47.05303" lon="6.59875">
        <ele>753.3</ele>
        <time>2021-08-13T08:00:43Z</time>
      </trkpt>
      <trkpt lat="47.05301" lon="6.59873">
        <ele>753.3</ele>
        <time>2021-08-13T08:00:44Z</time>
      </trkpt>
      <trkpt lat="47.05298" lon="6.5987">
        <ele>753.3</ele>
        <time>2021-08-13T08:00:46Z</time>
      </trkpt>
      <trkpt lat="47.05295" lon="6.59869">
        <ele>753.3</ele>
        <time>2021-08-13T08:00:47Z</time>
      </trkpt>
      <trkpt lat="47.05291" lon="6.59868">
        <ele>753.3</ele>
        <time>2021-08-13T08:00:48Z</time>
      </trkpt>
      <trkpt lat="47.05288" lon="6.59865">
        <ele>753.3</ele>
        <time>2021-08-13T08:00:49Z</time>
      </trkpt>
      <trkpt lat="47.05281" lon="6.59861">
        <ele>753.3</ele>
        <time>2021-08-13T08:00:51Z</time>
      </trkpt>
      <trkpt lat="47.05279" lon="6.5986">
        <ele>753.3</ele>
        <time>2021-08-13T08:00:52Z</time>
      </trkpt>
      <trkpt lat="47.05275" lon="6.59856">
        <ele>753.3</ele>
        <time>2021-08-13T08:00:54Z</time>
      </trkpt>
      <trkpt lat="47.05272" lon="6.59854">
        <ele>753.3</ele>
        <time>2021-08-13T08:00:55Z</time>
      </trkpt>
      <trkpt lat="47.05269" lon="6.59853">
        <ele>753.3</ele>
        <time>2021-08-13T08:00:56Z</time>
      </trkpt>
      <trkpt lat="47.05268" lon="6.59854">
        <ele>753.3</ele>
        <time>2021-08-13T08:00:57Z</time>
      </trkpt>
      <trkpt lat="47.05268" lon="6.59858">
        <ele>753.3</ele>
        <time>2021-08-13T08:00:58Z</time>
      </trkpt>
      <trkpt lat="47.0527" lon="6.5986">
        <ele>753.3</ele>
        <time>2021-08-13T08:01:00Z</time>
      </trkpt>
      <trkpt lat="47.05271" lon="6.5986">
        <ele>753.3</ele>
        <time>2021-08-13T08:01:01Z</time>
      </trkpt>
      <trkpt lat="47.05272" lon="6.59861">
        <ele>753.3</ele>
        <time>2021-08-13T08:01:02Z</time>
      </trkpt>
      <trkpt lat="47.05273" lon="6.59861">
        <ele>753.3</ele>
        <time>2021-08-13T08:01:03Z</time>
      </trkpt>
      <trkpt lat="47.05274" lon="6.59862">
        <ele>753.3</ele>
        <time>2021-08-13T08:01:04Z</time>
      </trkpt>
      <trkpt lat="47.05277" lon="6.59864">
        <ele>753.3</ele>
        <time>2021-08-13T08:01:06Z</time>
      </trkpt>
      <trkpt lat="47.0528" lon="6.59866">
        <ele>753.3</ele>
        <time>2021-08-13T08:01:07Z</time>
      </trkpt>
      <trkpt lat="47.05281" lon="6.59867">
        <ele>753.3</ele>
        <time>2021-08-13T08:01:08Z</time>
      </trkpt>
      <trkpt lat="47.05285" lon="6.59867">
        <ele>753.3</ele>
        <time>2021-08-13T08:01:09Z</time>
      </trkpt>
      <trkpt lat="47.05286" lon="6.59867">
        <ele>753.4</ele>
        <time>2021-08-13T08:01:10Z</time>
      </trkpt>
      <trkpt lat="47.05289" lon="6.59868">
        <ele>753.4</ele>
        <time>2021-08-13T08:01:12Z</time>
      </trkpt>
      <trkpt lat="47.05292" lon="6.59871">
        <ele>753.4</ele>
        <time>2021-08-13T08:01:13Z</time>
      </trkpt>
      <trkpt lat="47.05294" lon="6.59874">
        <ele>753.4</ele>
        <time>2021-08-13T08:01:14Z</time>
      </trkpt>
      <trkpt lat="47.05297" lon="6.59877">
        <ele>753.5</ele>
        <time>2021-08-13T08:01:16Z</time>
      </trkpt>
      <trkpt lat="47.05298" lon="6.5988">
        <ele>753.5</ele>
        <time>2021-08-13T08:01:17Z</time>
      </trkpt>
      <trkpt lat="47.05298" lon="6.5988">
        <ele>753.5</ele>
        <time>2021-08-13T08:01:18Z</time>
      </trkpt>
      <trkpt lat="47.05299" lon="6.5988">
        <ele>753.5</ele>
        <time>2021-08-13T08:01:19Z</time>
      </trkpt>
      <trkpt lat="47.05301" lon="6.59881">
        <ele>753.5</ele>
        <time>2021-08-13T08:01:20Z</time>
      </trkpt>
      <trkpt lat="47.05301" lon="6.59881">
        <ele>753.5</ele>
        <time>2021-08-13T08:01:21Z</time>
      </trkpt>
      <trkpt lat="47.05301" lon="6.59882">
        <ele>753.5</ele>
        <time>2021-08-13T08:01:23Z</time>
      </trkpt>
      <trkpt lat="47.05302" lon="6.59883">
        <ele>753.5</ele>
        <time>2021-08-13T08:01:25Z</time>
      </trkpt>
      <trkpt lat="47.05303" lon="6.59884">
        <ele>753.5</ele>
        <time>2021-08-13T08:01:26Z</time>
      </trkpt>
      <trkpt lat="47.05303" lon="6.59888">
        <ele>753.5</ele>
        <time>2021-08-13T08:01:28Z</time>
      </trkpt>
      <trkpt lat="47.053" lon="6.59894">
        <ele>753.5</ele>
        <time>2021-08-13T08:01:31Z</time>
      </trkpt>
      <trkpt lat="47.05298" lon="6.59896">
        <ele>753.5</ele>
        <time>2021-08-13T08:01:32Z</time>
      </trkpt>
      <trkpt lat="47.05295" lon="6.59897">
        <ele>753.5</ele>
        <time>2021-08-13T08:01:34Z</time>
      </trkpt>
      <trkpt lat="47.05293" lon="6.59898">
        <ele>753.5</ele>
        <time>2021-08-13T08:01:35Z</time>
      </trkpt>
      <trkpt lat="47.05292" lon="6.59898">
        <ele>753.5</ele>
        <time>2021-08-13T08:01:36Z</time>
      </trkpt>
      <trkpt lat="47.05291" lon="6.59898">
        <ele>757.3</ele>
        <time>2021-08-13T08:01:37Z</time>
      </trkpt>
      <trkpt lat="47.0528" lon="6.59898">
        <ele>756.4</ele>
        <time>2021-08-13T08:01:38Z</time>
      </trkpt>
      <trkpt lat="47.05255" lon="6.59893">
        <ele>755.7</ele>
        <time>2021-08-13T08:01:40Z</time>
      </trkpt>
      <trkpt lat="47.05246" lon="6.59889">
        <ele>755.6</ele>
        <time>2021-08-13T08:01:41Z</time>
      </trkpt>
      <trkpt lat="47.0524" lon="6.59886">
        <ele>755.5</ele>
        <time>2021-08-13T08:01:42Z</time>
      </trkpt>
      <trkpt lat="47.05231" lon="6.59879">
        <ele>755.4</ele>
        <time>2021-08-13T08:01:44Z</time>
      </trkpt>
      <trkpt lat="47.05228" lon="6.59877">
        <ele>755.4</ele>
        <time>2021-08-13T08:01:46Z</time>
      </trkpt>
      <trkpt lat="47.05228" lon="6.59877">
        <ele>755.4</ele>
        <time>2021-08-13T08:01:48Z</time>
      </trkpt>
      <trkpt lat="47.05225" lon="6.59875">
        <ele>755.3</ele>
        <time>2021-08-13T08:01:49Z</time>
      </trkpt>
      <trkpt lat="47.05222" lon="6.59875">
        <ele>755.3</ele>
        <time>2021-08-13T08:01:50Z</time>
      </trkpt>
      <trkpt lat="47.05218" lon="6.59876">
        <ele>755.3</ele>
        <time>2021-08-13T08:01:51Z</time>
      </trkpt>
      <trkpt lat="47.05217" lon="6.59877">
        <ele>755.3</ele>
        <time>2021-08-13T08:01:52Z</time>
      </trkpt>
      <trkpt lat="47.05213" lon="6.59876">
        <ele>755.3</ele>
        <time>2021-08-13T08:01:54Z</time>
      </trkpt>
      <trkpt lat="47.05212" lon="6.59876">
        <ele>755.3</ele>
        <time>2021-08-13T08:01:55Z</time>
      </trkpt>
      <trkpt lat="47.05211" lon="6.59876">
        <ele>755.3</ele>
        <time>2021-08-13T08:01:56Z</time>
      </trkpt>
      <trkpt lat="47.05209" lon="6.59875">
        <ele>755.3</ele>
        <time>2021-08-13T08:01:57Z</time>
      </trkpt>
      <trkpt lat="47.05206" lon="6.59874">
        <ele>755.3</ele>
        <time>2021-08-13T08:01:59Z</time>
      </trkpt>
      <trkpt lat="47.05203" lon="6.59873">
        <ele>755.3</ele>
        <time>2021-08-13T08:02:00Z</time>
      </trkpt>
      <trkpt lat="47.05198" lon="6.59872">
        <ele>755.3</ele>
        <time>2021-08-13T08:02:02Z</time>
      </trkpt>
      <trkpt lat="47.05192" lon="6.59872">
        <ele>755.3</ele>
        <time>2021-08-13T08:02:03Z</time>
      </trkpt>
      <trkpt lat="47.05186" lon="6.5987">
        <ele>755.3</ele>
        <time>2021-08-13T08:02:04Z</time>
      </trkpt>
      <trkpt lat="47.05179" lon="6.59867">
        <ele>755.3</ele>
        <time>2021-08-13T08:02:06Z</time>
      </trkpt>
      <trkpt lat="47.05174" lon="6.59866">
        <ele>755.3</ele>
        <time>2021-08-13T08:02:07Z</time>
      </trkpt>
      <trkpt lat="47.05167" lon="6.59864">
        <ele>755.3</ele>
        <time>2021-08-13T08:02:09Z</time>
      </trkpt>
      <trkpt lat="47.05159" lon="6.59862">
        <ele>755.3</ele>
        <time>2021-08-13T08:02:11Z</time>
      </trkpt>
      <trkpt lat="47.05154" lon="6.59861">
        <ele>755.3</ele>
        <time>2021-08-13T08:02:12Z</time>
      </trkpt>
      <trkpt lat="47.05149" lon="6.59861">
        <ele>755.2</ele>
        <time>2021-08-13T08:02:14Z</time>
      </trkpt>
      <trkpt lat="47.05143" lon="6.59861">
        <ele>755.2</ele>
        <time>2021-08-13T08:02:15Z</time>
      </trkpt>
      <trkpt lat="47.05135" lon="6.59861">
        <ele>755.2</ele>
        <time>2021-08-13T08:02:17Z</time>
      </trkpt>
      <trkpt lat="47.05129" lon="6.59858">
        <ele>755.2</ele>
        <time>2021-08-13T08:02:18Z</time>
      </trkpt>
      <trkpt lat="47.05123" lon="6.59853">
        <ele>755.2</ele>
        <time>2021-08-13T08:02:20Z</time>
      </trkpt>
      <trkpt lat="47.05119" lon="6.5985">
        <ele>755.2</ele>
        <time>2021-08-13T08:02:21Z</time>
      </trkpt>
      <trkpt lat="47.05113" lon="6.59846">
        <ele>755.2</ele>
        <time>2021-08-13T08:02:22Z</time>
      </trkpt>
      <trkpt lat="47.05108" lon="6.59842">
        <ele>755.2</ele>
        <time>2021-08-13T08:02:24Z</time>
      </trkpt>
      <trkpt lat="47.05103" lon="6.59839">
        <ele>755.2</ele>
        <time>2021-08-13T08:02:25Z</time>
      </trkpt>
      <trkpt lat="47.051" lon="6.59837">
        <ele>755.2</ele>
        <time>2021-08-13T08:02:26Z</time>
      </trkpt>
      <trkpt lat="47.05095" lon="6.59834">
        <ele>755.2</ele>
        <time>2021-08-13T08:02:28Z</time>
      </trkpt>
      <trkpt lat="47.05092" lon="6.59831">
        <ele>755.2</ele>
        <time>2021-08-13T08:02:30Z</time>
      </trkpt>
      <trkpt lat="47.0509" lon="6.5983">
        <ele>755.2</ele>
        <time>2021-08-13T08:02:31Z</time>
      </trkpt>
      <trkpt lat="47.05087" lon="6.59827">
        <ele>755.2</ele>
        <time>2021-08-13T08:02:33Z</time>
      </trkpt>
      <trkpt lat="47.05082" lon="6.59826">
        <ele>755.2</ele>
        <time>2021-08-13T08:02:35Z</time>
      </trkpt>
      <trkpt lat="47.05081" lon="6.59825">
        <ele>755.2</ele>
        <time>2021-08-13T08:02:37Z</time>
      </trkpt>
      <trkpt lat="47.0508" lon="6.59825">
        <ele>755.2</ele>
        <time>2021-08-13T08:02:38Z</time>
      </trkpt>
      <trkpt lat="47.05077" lon="6.59823">
        <ele>755.2</ele>
        <time>2021-08-13T08:02:39Z</time>
      </trkpt>
      <trkpt lat="47.05076" lon="6.59822">
        <ele>755.2</ele>
        <time>2021-08-13T08:02:40Z</time>
      </trkpt>
      <trkpt lat="47.05075" lon="6.5982">
        <ele>755.2</ele>
        <time>2021-08-13T08:02:41Z</time>
      </trkpt>
      <trkpt lat="47.0507" lon="6.59819">
        <ele>755.2</ele>
        <time>2021-08-13T08:02:43Z</time>
      </trkpt>
      <trkpt lat="47.05068" lon="6.59819">
        <ele>755.2</ele>
        <time>2021-08-13T08:02:44Z</time>
      </trkpt>
      <trkpt lat="47.05065" lon="6.59818">
        <ele>755.2</ele>
        <time>2021-08-13T08:02:46Z</time>
      </trkpt>
      <trkpt lat="47.05062" lon="6.59816">
        <ele>755.2</ele>
        <time>2021-08-13T08:02:47Z</time>
      </trkpt>
      <trkpt lat="47.05061" lon="6.59814">
        <ele>755.2</ele>
        <time>2021-08-13T08:02:48Z</time>
      </trkpt>
      <trkpt lat="47.0506" lon="6.59812">
        <ele>755.3</ele>
        <time>2021-08-13T08:02:49Z</time>
      </trkpt>
      <trkpt lat="47.05057" lon="6.59809">
        <ele>755.3</ele>
        <time>2021-08-13T08:02:51Z</time>
      </trkpt>
      <trkpt lat="47.05055" lon="6.59806">
        <ele>755.3</ele>
        <time>2021-08-13T08:02:52Z</time>
      </trkpt>
      <trkpt lat="47.05053" lon="6.59803">
        <ele>755.3</ele>
        <time>2021-08-13T08:02:53Z</time>
      </trkpt>
      <trkpt lat="47.05049" lon="6.598">
        <ele>755.3</ele>
        <time>2021-08-13T08:02:55Z</time>
      </trkpt>
      <trkpt lat="47.05047" lon="6.59798">
        <ele>755.3</ele>
        <time>2021-08-13T08:02:56Z</time>
      </trkpt>
      <trkpt lat="47.05044" lon="6.59796">
        <ele>755.3</ele>
        <time>2021-08-13T08:02:57Z</time>
      </trkpt>
      <trkpt lat="47.05041" lon="6.59794">
        <ele>755.3</ele>
        <time>2021-08-13T08:02:59Z</time>
      </trkpt>
      <trkpt lat="47.05038" lon="6.59791">
        <ele>755.3</ele>
        <time>2021-08-13T08:03:00Z</time>
      </trkpt>
      <trkpt lat="47.05036" lon="6.59788">
        <ele>755.3</ele>
        <time>2021-08-13T08:03:01Z</time>
      </trkpt>
      <trkpt lat="47.05036" lon="6.59784">
        <ele>755.3</ele>
        <time>2021-08-13T08:03:03Z</time>
      </trkpt>
      <trkpt lat="47.05035" lon="6.5978">
        <ele>755.3</ele>
        <time>2021-08-13T08:03:04Z</time>
      </trkpt>
      <trkpt lat="47.05032" lon="6.59776">
        <ele>755.3</ele>
        <time>2021-08-13T08:03:06Z</time>
      </trkpt>
      <trkpt lat="47.0503" lon="6.59775">
        <ele>755.3</ele>
        <time>2021-08-13T08:03:07Z</time>
      </trkpt>
      <trkpt lat="47.05027" lon="6.59772">
        <ele>755.3</ele>
        <time>2021-08-13T08:03:08Z</time>
      </trkpt>
      <trkpt lat="47.05024" lon="6.59771">
        <ele>755.3</ele>
        <time>2021-08-13T08:03:09Z</time>
      </trkpt>
      <trkpt lat="47.05019" lon="6.59767">
        <ele>755.3</ele>
        <time>2021-08-13T08:03:11Z</time>
      </trkpt>
      <trkpt lat="47.05015" lon="6.59762">
        <ele>755.3</ele>
        <time>2021-08-13T08:03:12Z</time>
      </trkpt>
      <trkpt lat="47.05012" lon="6.59756">
        <ele>755.3</ele>
        <time>2021-08-13T08:03:14Z</time>
      </trkpt>
      <trkpt lat="47.05009" lon="6.59751">
        <ele>755.3</ele>
        <time>2021-08-13T08:03:15Z</time>
      </trkpt>
      <trkpt lat="47.05007" lon="6.59746">
        <ele>755.3</ele>
        <time>2021-08-13T08:03:16Z</time>
      </trkpt>
      <trkpt lat="47.05005" lon="6.59742">
        <ele>755.3</ele>
        <time>2021-08-13T08:03:18Z</time>
      </trkpt>
      <trkpt lat="47.05003" lon="6.59738">
        <ele>755.3</ele>
        <time>2021-08-13T08:03:19Z</time>
      </trkpt>
      <trkpt lat="47.05001" lon="6.59733">
        <ele>755.3</ele>
        <time>2021-08-13T08:03:21Z</time>
      </trkpt>
      <trkpt lat="47.04997" lon="6.59727">
        <ele>755.3</ele>
        <time>2021-08-13T08:03:22Z</time>
      </trkpt>
      <trkpt lat="47.04994" lon="6.59723">
        <ele>755.2</ele>
        <time>2021-08-13T08:03:23Z</time>
      </trkpt>
      <trkpt lat="47.04991" lon="6.59718">
        <ele>755.2</ele>
        <time>2021-08-13T08:03:25Z</time>
      </trkpt>
      <trkpt lat="47.04988" lon="6.59712">
        <ele>755.2</ele>
        <time>2021-08-13T08:03:26Z</time>
      </trkpt>
      <trkpt lat="47.04985" lon="6.59706">
        <ele>755.2</ele>
        <time>2021-08-13T08:03:27Z</time>
      </trkpt>
      <trkpt lat="47.04983" lon="6.59701">
        <ele>755.2</ele>
        <time>2021-08-13T08:03:28Z</time>
      </trkpt>
      <trkpt lat="47.04981" lon="6.59696">
        <ele>755.2</ele>
        <time>2021-08-13T08:03:29Z</time>
      </trkpt>
      <trkpt lat="47.0498" lon="6.59691">
        <ele>755.2</ele>
        <time>2021-08-13T08:03:30Z</time>
      </trkpt>
      <trkpt lat="47.04978" lon="6.59687">
        <ele>755.2</ele>
        <time>2021-08-13T08:03:31Z</time>
      </trkpt>
      <trkpt lat="47.04976" lon="6.59682">
        <ele>755.2</ele>
        <time>2021-08-13T08:03:32Z</time>
      </trkpt>
      <trkpt lat="47.04974" lon="6.59675">
        <ele>755.3</ele>
        <time>2021-08-13T08:03:33Z</time>
      </trkpt>
      <trkpt lat="47.04973" lon="6.59669">
        <ele>755.3</ele>
        <time>2021-08-13T08:03:34Z</time>
      </trkpt>
      <trkpt lat="47.04972" lon="6.59664">
        <ele>755.3</ele>
        <time>2021-08-13T08:03:35Z</time>
      </trkpt>
      <trkpt lat="47.04971" lon="6.59659">
        <ele>755.3</ele>
        <time>2021-08-13T08:03:36Z</time>
      </trkpt>
      <trkpt lat="47.0497" lon="6.59653">
        <ele>755.3</ele>
        <time>2021-08-13T08:03:37Z</time>
      </trkpt>
      <trkpt lat="47.04969" lon="6.59648">
        <ele>755.3</ele>
        <time>2021-08-13T08:03:38Z</time>
      </trkpt>
      <trkpt lat="47.04968" lon="6.59643">
        <ele>755.3</ele>
        <time>2021-08-13T08:03:39Z</time>
      </trkpt>
      <trkpt lat="47.04967" lon="6.59638">
        <ele>755.3</ele>
        <time>2021-08-13T08:03:40Z</time>
      </trkpt>
      <trkpt lat="47.04968" lon="6.59633">
        <ele>755.3</ele>
        <time>2021-08-13T08:03:41Z</time>
      </trkpt>
      <trkpt lat="47.04969" lon="6.59624">
        <ele>755.3</ele>
        <time>2021-08-13T08:03:43Z</time>
      </trkpt>
      <trkpt lat="47.04969" lon="6.5962">
        <ele>755.3</ele>
        <time>2021-08-13T08:03:44Z</time>
      </trkpt>
      <trkpt lat="47.04968" lon="6.59609">
        <ele>755.2</ele>
        <time>2021-08-13T08:03:46Z</time>
      </trkpt>
      <trkpt lat="47.04968" lon="6.59603">
        <ele>755.2</ele>
        <time>2021-08-13T08:03:47Z</time>
      </trkpt>
      <trkpt lat="47.04968" lon="6.5959">
        <ele>755.2</ele>
        <time>2021-08-13T08:03:49Z</time>
      </trkpt>
      <trkpt lat="47.04968" lon="6.59584">
        <ele>755.2</ele>
        <time>2021-08-13T08:03:50Z</time>
      </trkpt>
      <trkpt lat="47.04966" lon="6.59573">
        <ele>755.2</ele>
        <time>2021-08-13T08:03:52Z</time>
      </trkpt>
      <trkpt lat="47.04965" lon="6.59566">
        <ele>755.2</ele>
        <time>2021-08-13T08:03:53Z</time>
      </trkpt>
      <trkpt lat="47.04964" lon="6.59561">
        <ele>755.2</ele>
        <time>2021-08-13T08:03:54Z</time>
      </trkpt>
      <trkpt lat="47.04961" lon="6.59553">
        <ele>755.2</ele>
        <time>2021-08-13T08:03:56Z</time>
      </trkpt>
      <trkpt lat="47.04959" lon="6.59548">
        <ele>755.1</ele>
        <time>2021-08-13T08:03:57Z</time>
      </trkpt>
      <trkpt lat="47.04955" lon="6.59543">
        <ele>755.1</ele>
        <time>2021-08-13T08:03:58Z</time>
      </trkpt>
      <trkpt lat="47.04952" lon="6.59536">
        <ele>755.1</ele>
        <time>2021-08-13T08:04:00Z</time>
      </trkpt>
      <trkpt lat="47.04948" lon="6.5953">
        <ele>755.1</ele>
        <time>2021-08-13T08:04:01Z</time>
      </trkpt>
      <trkpt lat="47.04943" lon="6.59524">
        <ele>755.1</ele>
        <time>2021-08-13T08:04:03Z</time>
      </trkpt>
      <trkpt lat="47.0494" lon="6.59521">
        <ele>755.1</ele>
        <time>2021-08-13T08:04:04Z</time>
      </trkpt>
      <trkpt lat="47.04936" lon="6.59516">
        <ele>755.2</ele>
        <time>2021-08-13T08:04:05Z</time>
      </trkpt>
      <trkpt lat="47.0493" lon="6.5951">
        <ele>755.2</ele>
        <time>2021-08-13T08:04:07Z</time>
      </trkpt>
      <trkpt lat="47.04924" lon="6.59509">
        <ele>755.2</ele>
        <time>2021-08-13T08:04:08Z</time>
      </trkpt>
      <trkpt lat="47.04921" lon="6.59502">
        <ele>755.2</ele>
        <time>2021-08-13T08:04:10Z</time>
      </trkpt>
      <trkpt lat="47.04917" lon="6.59497">
        <ele>755.2</ele>
        <time>2021-08-13T08:04:11Z</time>
      </trkpt>
      <trkpt lat="47.04911" lon="6.59491">
        <ele>755.2</ele>
        <time>2021-08-13T08:04:12Z</time>
      </trkpt>
      <trkpt lat="47.04908" lon="6.59488">
        <ele>755.2</ele>
        <time>2021-08-13T08:04:13Z</time>
      </trkpt>
      <trkpt lat="47.04904" lon="6.59484">
        <ele>755.2</ele>
        <time>2021-08-13T08:04:15Z</time>
      </trkpt>
      <trkpt lat="47.04898" lon="6.59478">
        <ele>755.2</ele>
        <time>2021-08-13T08:04:16Z</time>
      </trkpt>
      <trkpt lat="47.04895" lon="6.59475">
        <ele>755.2</ele>
        <time>2021-08-13T08:04:17Z</time>
      </trkpt>
      <trkpt lat="47.04892" lon="6.5947">
        <ele>755.2</ele>
        <time>2021-08-13T08:04:19Z</time>
      </trkpt>
      <trkpt lat="47.0489" lon="6.59467">
        <ele>755.2</ele>
        <time>2021-08-13T08:04:20Z</time>
      </trkpt>
      <trkpt lat="47.04887" lon="6.59464">
        <ele>755.2</ele>
        <time>2021-08-13T08:04:21Z</time>
      </trkpt>
      <trkpt lat="47.04884" lon="6.59462">
        <ele>755.2</ele>
        <time>2021-08-13T08:04:22Z</time>
      </trkpt>
      <trkpt lat="47.04881" lon="6.59459">
        <ele>755.2</ele>
        <time>2021-08-13T08:04:23Z</time>
      </trkpt>
      <trkpt lat="47.04877" lon="6.59456">
        <ele>755.2</ele>
        <time>2021-08-13T08:04:24Z</time>
      </trkpt>
      <trkpt lat="47.04874" lon="6.59454">
        <ele>755.2</ele>
        <time>2021-08-13T08:04:25Z</time>
      </trkpt>
      <trkpt lat="47.04866" lon="6.59449">
        <ele>755.2</ele>
        <time>2021-08-13T08:04:27Z</time>
      </trkpt>
      <trkpt lat="47.04862" lon="6.59447">
        <ele>755.2</ele>
        <time>2021-08-13T08:04:29Z</time>
      </trkpt>
      <trkpt lat="47.04858" lon="6.59442">
        <ele>755.2</ele>
        <time>2021-08-13T08:04:30Z</time>
      </trkpt>
      <trkpt lat="47.04853" lon="6.59439">
        <ele>755.3</ele>
        <time>2021-08-13T08:04:31Z</time>
      </trkpt>
      <trkpt lat="47.04849" lon="6.59437">
        <ele>755.3</ele>
        <time>2021-08-13T08:04:32Z</time>
      </trkpt>
      <trkpt lat="47.04844" lon="6.59434">
        <ele>755.3</ele>
        <time>2021-08-13T08:04:33Z</time>
      </trkpt>
      <trkpt lat="47.0484" lon="6.59432">
        <ele>755.3</ele>
        <time>2021-08-13T08:04:34Z</time>
      </trkpt>
      <trkpt lat="47.04834" lon="6.59431">
        <ele>755.3</ele>
        <time>2021-08-13T08:04:36Z</time>
      </trkpt>
      <trkpt lat="47.0483" lon="6.5943">
        <ele>755.3</ele>
        <time>2021-08-13T08:04:37Z</time>
      </trkpt>
      <trkpt lat="47.04825" lon="6.59427">
        <ele>755.2</ele>
        <time>2021-08-13T08:04:38Z</time>
      </trkpt>
      <trkpt lat="47.04819" lon="6.59422">
        <ele>755.2</ele>
        <time>2021-08-13T08:04:40Z</time>
      </trkpt>
      <trkpt lat="47.04815" lon="6.59418">
        <ele>755.2</ele>
        <time>2021-08-13T08:04:41Z</time>
      </trkpt>
      <trkpt lat="47.04811" lon="6.59414">
        <ele>755.2</ele>
        <time>2021-08-13T08:04:42Z</time>
      </trkpt>
      <trkpt lat="47.04807" lon="6.59411">
        <ele>755.2</ele>
        <time>2021-08-13T08:04:43Z</time>
      </trkpt>
      <trkpt lat="47.04803" lon="6.59407">
        <ele>755.2</ele>
        <time>2021-08-13T08:04:44Z</time>
      </trkpt>
      <trkpt lat="47.048" lon="6.59403">
        <ele>755.2</ele>
        <time>2021-08-13T08:04:46Z</time>
      </trkpt>
      <trkpt lat="47.04796" lon="6.594">
        <ele>755.2</ele>
        <time>2021-08-13T08:04:47Z</time>
      </trkpt>
      <trkpt lat="47.04792" lon="6.59397">
        <ele>755.2</ele>
        <time>2021-08-13T08:04:48Z</time>
      </trkpt>
      <trkpt lat="47.04789" lon="6.59394">
        <ele>755.2</ele>
        <time>2021-08-13T08:04:49Z</time>
      </trkpt>
      <trkpt lat="47.04785" lon="6.59389">
        <ele>755.2</ele>
        <time>2021-08-13T08:04:50Z</time>
      </trkpt>
      <trkpt lat="47.04782" lon="6.59385">
        <ele>755.2</ele>
        <time>2021-08-13T08:04:51Z</time>
      </trkpt>
      <trkpt lat="47.04779" lon="6.59381">
        <ele>755.2</ele>
        <time>2021-08-13T08:04:52Z</time>
      </trkpt>
      <trkpt lat="47.04776" lon="6.59376">
        <ele>755.1</ele>
        <time>2021-08-13T08:04:53Z</time>
      </trkpt>
      <trkpt lat="47.04773" lon="6.59372">
        <ele>755.1</ele>
        <time>2021-08-13T08:04:54Z</time>
      </trkpt>
      <trkpt lat="47.0477" lon="6.59366">
        <ele>755.1</ele>
        <time>2021-08-13T08:04:56Z</time>
      </trkpt>
      <trkpt lat="47.04767" lon="6.59361">
        <ele>755.1</ele>
        <time>2021-08-13T08:04:57Z</time>
      </trkpt>
      <trkpt lat="47.04764" lon="6.59355">
        <ele>755.1</ele>
        <time>2021-08-13T08:04:58Z</time>
      </trkpt>
      <trkpt lat="47.04762" lon="6.59349">
        <ele>755.1</ele>
        <time>2021-08-13T08:04:59Z</time>
      </trkpt>
      <trkpt lat="47.0476" lon="6.59343">
        <ele>755.1</ele>
        <time>2021-08-13T08:05:00Z</time>
      </trkpt>
      <trkpt lat="47.04758" lon="6.59337">
        <ele>755.1</ele>
        <time>2021-08-13T08:05:01Z</time>
      </trkpt>
      <trkpt lat="47.04755" lon="6.59332">
        <ele>755.1</ele>
        <time>2021-08-13T08:05:02Z</time>
      </trkpt>
      <trkpt lat="47.04753" lon="6.59326">
        <ele>755.1</ele>
        <time>2021-08-13T08:05:03Z</time>
      </trkpt>
      <trkpt lat="47.04751" lon="6.59319">
        <ele>755.1</ele>
        <time>2021-08-13T08:05:05Z</time>
      </trkpt>
      <trkpt lat="47.0475" lon="6.59313">
        <ele>755.1</ele>
        <time>2021-08-13T08:05:06Z</time>
      </trkpt>
      <trkpt lat="47.04748" lon="6.59308">
        <ele>755.1</ele>
        <time>2021-08-13T08:05:07Z</time>
      </trkpt>
      <trkpt lat="47.04746" lon="6.59302">
        <ele>755.1</ele>
        <time>2021-08-13T08:05:08Z</time>
      </trkpt>
      <trkpt lat="47.04745" lon="6.59298">
        <ele>755.1</ele>
        <time>2021-08-13T08:05:09Z</time>
      </trkpt>
      <trkpt lat="47.04743" lon="6.59293">
        <ele>755.1</ele>
        <time>2021-08-13T08:05:10Z</time>
      </trkpt>
      <trkpt lat="47.0474" lon="6.59288">
        <ele>755.1</ele>
        <time>2021-08-13T08:05:11Z</time>
      </trkpt>
      <trkpt lat="47.04737" lon="6.59284">
        <ele>755.1</ele>
        <time>2021-08-13T08:05:12Z</time>
      </trkpt>
      <trkpt lat="47.04732" lon="6.59279">
        <ele>755.1</ele>
        <time>2021-08-13T08:05:14Z</time>
      </trkpt>
      <trkpt lat="47.04728" lon="6.59278">
        <ele>755.1</ele>
        <time>2021-08-13T08:05:15Z</time>
      </trkpt>
      <trkpt lat="47.04723" lon="6.5928">
        <ele>755.1</ele>
        <time>2021-08-13T08:05:17Z</time>
      </trkpt>
      <trkpt lat="47.04719" lon="6.59283">
        <ele>755.1</ele>
        <time>2021-08-13T08:05:18Z</time>
      </trkpt>
      <trkpt lat="47.04715" lon="6.59288">
        <ele>755</ele>
        <time>2021-08-13T08:05:19Z</time>
      </trkpt>
      <trkpt lat="47.04712" lon="6.59293">
        <ele>755</ele>
        <time>2021-08-13T08:05:20Z</time>
      </trkpt>
      <trkpt lat="47.04708" lon="6.593">
        <ele>754.9</ele>
        <time>2021-08-13T08:05:21Z</time>
      </trkpt>
      <trkpt lat="47.04706" lon="6.59307">
        <ele>754.9</ele>
        <time>2021-08-13T08:05:22Z</time>
      </trkpt>
      <trkpt lat="47.04702" lon="6.59313">
        <ele>754.9</ele>
        <time>2021-08-13T08:05:23Z</time>
      </trkpt>
      <trkpt lat="47.04699" lon="6.59319">
        <ele>754.9</ele>
        <time>2021-08-13T08:05:24Z</time>
      </trkpt>
      <trkpt lat="47.04695" lon="6.59326">
        <ele>754.9</ele>
        <time>2021-08-13T08:05:26Z</time>
      </trkpt>
      <trkpt lat="47.04692" lon="6.59332">
        <ele>754.9</ele>
        <time>2021-08-13T08:05:27Z</time>
      </trkpt>
      <trkpt lat="47.04688" lon="6.59338">
        <ele>754.8</ele>
        <time>2021-08-13T08:05:28Z</time>
      </trkpt>
      <trkpt lat="47.04683" lon="6.59346">
        <ele>754.8</ele>
        <time>2021-08-13T08:05:29Z</time>
      </trkpt>
      <trkpt lat="47.0468" lon="6.59351">
        <ele>754.8</ele>
        <time>2021-08-13T08:05:30Z</time>
      </trkpt>
      <trkpt lat="47.04675" lon="6.59362">
        <ele>754.7</ele>
        <time>2021-08-13T08:05:32Z</time>
      </trkpt>
      <trkpt lat="47.04673" lon="6.59368">
        <ele>754.7</ele>
        <time>2021-08-13T08:05:33Z</time>
      </trkpt>
      <trkpt lat="47.0467" lon="6.59373">
        <ele>754.7</ele>
        <time>2021-08-13T08:05:34Z</time>
      </trkpt>
      <trkpt lat="47.04665" lon="6.59382">
        <ele>754.7</ele>
        <time>2021-08-13T08:05:36Z</time>
      </trkpt>
      <trkpt lat="47.04662" lon="6.59387">
        <ele>754.7</ele>
        <time>2021-08-13T08:05:37Z</time>
      </trkpt>
      <trkpt lat="47.0466" lon="6.5939">
        <ele>754.7</ele>
        <time>2021-08-13T08:05:38Z</time>
      </trkpt>
      <trkpt lat="47.04656" lon="6.59396">
        <ele>754.7</ele>
        <time>2021-08-13T08:05:40Z</time>
      </trkpt>
      <trkpt lat="47.04653" lon="6.594">
        <ele>754.7</ele>
        <time>2021-08-13T08:05:41Z</time>
      </trkpt>
      <trkpt lat="47.04651" lon="6.59404">
        <ele>754.6</ele>
        <time>2021-08-13T08:05:42Z</time>
      </trkpt>
      <trkpt lat="47.04647" lon="6.59408">
        <ele>754.6</ele>
        <time>2021-08-13T08:05:43Z</time>
      </trkpt>
      <trkpt lat="47.04643" lon="6.5941">
        <ele>754.6</ele>
        <time>2021-08-13T08:05:45Z</time>
      </trkpt>
      <trkpt lat="47.04637" lon="6.59411">
        <ele>754.6</ele>
        <time>2021-08-13T08:05:46Z</time>
      </trkpt>
      <trkpt lat="47.04634" lon="6.59413">
        <ele>754.6</ele>
        <time>2021-08-13T08:05:47Z</time>
      </trkpt>
      <trkpt lat="47.04634" lon="6.59417">
        <ele>754.6</ele>
        <time>2021-08-13T08:05:48Z</time>
      </trkpt>
      <trkpt lat="47.04633" lon="6.59421">
        <ele>754.6</ele>
        <time>2021-08-13T08:05:50Z</time>
      </trkpt>
      <trkpt lat="47.04631" lon="6.59424">
        <ele>754.6</ele>
        <time>2021-08-13T08:05:51Z</time>
      </trkpt>
      <trkpt lat="47.04629" lon="6.59424">
        <ele>754.6</ele>
        <time>2021-08-13T08:05:52Z</time>
      </trkpt>
      <trkpt lat="47.04628" lon="6.59423">
        <ele>754.6</ele>
        <time>2021-08-13T08:05:53Z</time>
      </trkpt>
      <trkpt lat="47.04622" lon="6.59421">
        <ele>754.6</ele>
        <time>2021-08-13T08:05:55Z</time>
      </trkpt>
      <trkpt lat="47.04617" lon="6.59417">
        <ele>754.6</ele>
        <time>2021-08-13T08:05:56Z</time>
      </trkpt>
      <trkpt lat="47.04612" lon="6.59412">
        <ele>754.6</ele>
        <time>2021-08-13T08:05:57Z</time>
      </trkpt>
      <trkpt lat="47.04606" lon="6.59405">
        <ele>754.6</ele>
        <time>2021-08-13T08:05:58Z</time>
      </trkpt>
      <trkpt lat="47.04601" lon="6.594">
        <ele>754.7</ele>
        <time>2021-08-13T08:05:59Z</time>
      </trkpt>
      <trkpt lat="47.04595" lon="6.59393">
        <ele>754.7</ele>
        <time>2021-08-13T08:06:01Z</time>
      </trkpt>
      <trkpt lat="47.04591" lon="6.59389">
        <ele>754.7</ele>
        <time>2021-08-13T08:06:02Z</time>
      </trkpt>
      <trkpt lat="47.04588" lon="6.59386">
        <ele>754.7</ele>
        <time>2021-08-13T08:06:03Z</time>
      </trkpt>
      <trkpt lat="47.04584" lon="6.59381">
        <ele>754.7</ele>
        <time>2021-08-13T08:06:04Z</time>
      </trkpt>
      <trkpt lat="47.04579" lon="6.59377">
        <ele>754.7</ele>
        <time>2021-08-13T08:06:05Z</time>
      </trkpt>
      <trkpt lat="47.04576" lon="6.59373">
        <ele>754.7</ele>
        <time>2021-08-13T08:06:06Z</time>
      </trkpt>
      <trkpt lat="47.04574" lon="6.5937">
        <ele>754.8</ele>
        <time>2021-08-13T08:06:07Z</time>
      </trkpt>
      <trkpt lat="47.0457" lon="6.59365">
        <ele>754.8</ele>
        <time>2021-08-13T08:06:09Z</time>
      </trkpt>
      <trkpt lat="47.04566" lon="6.59361">
        <ele>754.8</ele>
        <time>2021-08-13T08:06:10Z</time>
      </trkpt>
      <trkpt lat="47.04561" lon="6.59358">
        <ele>754.9</ele>
        <time>2021-08-13T08:06:11Z</time>
      </trkpt>
      <trkpt lat="47.04556" lon="6.59356">
        <ele>754.9</ele>
        <time>2021-08-13T08:06:12Z</time>
      </trkpt>
      <trkpt lat="47.04551" lon="6.59354">
        <ele>754.9</ele>
        <time>2021-08-13T08:06:13Z</time>
      </trkpt>
      <trkpt lat="47.04547" lon="6.59352">
        <ele>754.9</ele>
        <time>2021-08-13T08:06:14Z</time>
      </trkpt>
      <trkpt lat="47.04541" lon="6.59349">
        <ele>754.9</ele>
        <time>2021-08-13T08:06:16Z</time>
      </trkpt>
      <trkpt lat="47.04537" lon="6.59347">
        <ele>754.9</ele>
        <time>2021-08-13T08:06:17Z</time>
      </trkpt>
      <trkpt lat="47.04531" lon="6.59343">
        <ele>754.9</ele>
        <time>2021-08-13T08:06:18Z</time>
      </trkpt>
      <trkpt lat="47.04527" lon="6.59341">
        <ele>754.9</ele>
        <time>2021-08-13T08:06:19Z</time>
      </trkpt>
      <trkpt lat="47.04522" lon="6.59339">
        <ele>754.9</ele>
        <time>2021-08-13T08:06:20Z</time>
      </trkpt>
      <trkpt lat="47.04517" lon="6.59339">
        <ele>754.9</ele>
        <time>2021-08-13T08:06:21Z</time>
      </trkpt>
      <trkpt lat="47.04507" lon="6.59341">
        <ele>754.9</ele>
        <time>2021-08-13T08:06:23Z</time>
      </trkpt>
      <trkpt lat="47.04503" lon="6.59344">
        <ele>754.9</ele>
        <time>2021-08-13T08:06:24Z</time>
      </trkpt>
      <trkpt lat="47.04489" lon="6.59353">
        <ele>754.9</ele>
        <time>2021-08-13T08:06:26Z</time>
      </trkpt>
      <trkpt lat="47.04482" lon="6.59357">
        <ele>754.9</ele>
        <time>2021-08-13T08:06:28Z</time>
      </trkpt>
      <trkpt lat="47.04477" lon="6.59359">
        <ele>754.9</ele>
        <time>2021-08-13T08:06:29Z</time>
      </trkpt>
      <trkpt lat="47.04474" lon="6.59361">
        <ele>754.9</ele>
        <time>2021-08-13T08:06:30Z</time>
      </trkpt>
      <trkpt lat="47.04472" lon="6.59363">
        <ele>754.9</ele>
        <time>2021-08-13T08:06:32Z</time>
      </trkpt>
      <trkpt lat="47.04469" lon="6.59367">
        <ele>754.9</ele>
        <time>2021-08-13T08:06:33Z</time>
      </trkpt>
      <trkpt lat="47.04466" lon="6.5937">
        <ele>754.9</ele>
        <time>2021-08-13T08:06:34Z</time>
      </trkpt>
      <trkpt lat="47.04462" lon="6.59372">
        <ele>754.9</ele>
        <time>2021-08-13T08:06:35Z</time>
      </trkpt>
      <trkpt lat="47.04458" lon="6.59374">
        <ele>754.9</ele>
        <time>2021-08-13T08:06:36Z</time>
      </trkpt>
      <trkpt lat="47.04454" lon="6.59376">
        <ele>754.9</ele>
        <time>2021-08-13T08:06:37Z</time>
      </trkpt>
      <trkpt lat="47.0445" lon="6.59378">
        <ele>754.9</ele>
        <time>2021-08-13T08:06:38Z</time>
      </trkpt>
      <trkpt lat="47.04445" lon="6.59379">
        <ele>754.9</ele>
        <time>2021-08-13T08:06:39Z</time>
      </trkpt>
      <trkpt lat="47.04441" lon="6.5938">
        <ele>754.8</ele>
        <time>2021-08-13T08:06:40Z</time>
      </trkpt>
      <trkpt lat="47.04432" lon="6.59379">
        <ele>754.8</ele>
        <time>2021-08-13T08:06:43Z</time>
      </trkpt>
      <trkpt lat="47.04428" lon="6.59376">
        <ele>754.8</ele>
        <time>2021-08-13T08:06:44Z</time>
      </trkpt>
      <trkpt lat="47.04419" lon="6.59373">
        <ele>754.7</ele>
        <time>2021-08-13T08:06:45Z</time>
      </trkpt>
      <trkpt lat="47.04415" lon="6.59373">
        <ele>754.7</ele>
        <time>2021-08-13T08:06:46Z</time>
      </trkpt>
      <trkpt lat="47.04407" lon="6.59373">
        <ele>754.7</ele>
        <time>2021-08-13T08:06:48Z</time>
      </trkpt>
      <trkpt lat="47.04404" lon="6.59374">
        <ele>754.7</ele>
        <time>2021-08-13T08:06:49Z</time>
      </trkpt>
      <trkpt lat="47.04401" lon="6.59374">
        <ele>754.7</ele>
        <time>2021-08-13T08:06:50Z</time>
      </trkpt>
      <trkpt lat="47.04399" lon="6.59375">
        <ele>754.7</ele>
        <time>2021-08-13T08:06:52Z</time>
      </trkpt>
      <trkpt lat="47.04396" lon="6.59376">
        <ele>754.7</ele>
        <time>2021-08-13T08:06:53Z</time>
      </trkpt>
      <trkpt lat="47.04394" lon="6.59377">
        <ele>754.7</ele>
        <time>2021-08-13T08:06:54Z</time>
      </trkpt>
      <trkpt lat="47.04391" lon="6.59376">
        <ele>754.7</ele>
        <time>2021-08-13T08:06:55Z</time>
      </trkpt>
      <trkpt lat="47.04387" lon="6.59374">
        <ele>754.8</ele>
        <time>2021-08-13T08:06:56Z</time>
      </trkpt>
      <trkpt lat="47.04381" lon="6.59372">
        <ele>754.8</ele>
        <time>2021-08-13T08:06:58Z</time>
      </trkpt>
      <trkpt lat="47.04378" lon="6.59371">
        <ele>754.8</ele>
        <time>2021-08-13T08:06:59Z</time>
      </trkpt>
      <trkpt lat="47.04374" lon="6.59371">
        <ele>754.8</ele>
        <time>2021-08-13T08:07:00Z</time>
      </trkpt>
      <trkpt lat="47.0437" lon="6.59369">
        <ele>754.8</ele>
        <time>2021-08-13T08:07:02Z</time>
      </trkpt>
      <trkpt lat="47.04364" lon="6.59367">
        <ele>754.8</ele>
        <time>2021-08-13T08:07:03Z</time>
      </trkpt>
      <trkpt lat="47.04359" lon="6.59364">
        <ele>754.8</ele>
        <time>2021-08-13T08:07:04Z</time>
      </trkpt>
      <trkpt lat="47.04353" lon="6.59361">
        <ele>754.8</ele>
        <time>2021-08-13T08:07:05Z</time>
      </trkpt>
      <trkpt lat="47.04347" lon="6.59357">
        <ele>754.8</ele>
        <time>2021-08-13T08:07:07Z</time>
      </trkpt>
      <trkpt lat="47.04341" lon="6.59355">
        <ele>754.8</ele>
        <time>2021-08-13T08:07:08Z</time>
      </trkpt>
      <trkpt lat="47.04335" lon="6.59351">
        <ele>754.8</ele>
        <time>2021-08-13T08:07:10Z</time>
      </trkpt>
      <trkpt lat="47.04332" lon="6.59346">
        <ele>754.8</ele>
        <time>2021-08-13T08:07:11Z</time>
      </trkpt>
      <trkpt lat="47.04328" lon="6.59342">
        <ele>754.8</ele>
        <time>2021-08-13T08:07:12Z</time>
      </trkpt>
      <trkpt lat="47.04323" lon="6.59338">
        <ele>754.8</ele>
        <time>2021-08-13T08:07:14Z</time>
      </trkpt>
      <trkpt lat="47.04318" lon="6.59335">
        <ele>754.8</ele>
        <time>2021-08-13T08:07:15Z</time>
      </trkpt>
      <trkpt lat="47.04314" lon="6.59333">
        <ele>754.8</ele>
        <time>2021-08-13T08:07:17Z</time>
      </trkpt>
      <trkpt lat="47.04309" lon="6.59331">
        <ele>754.8</ele>
        <time>2021-08-13T08:07:18Z</time>
      </trkpt>
      <trkpt lat="47.04303" lon="6.59328">
        <ele>754.8</ele>
        <time>2021-08-13T08:07:20Z</time>
      </trkpt>
      <trkpt lat="47.04298" lon="6.59325">
        <ele>754.7</ele>
        <time>2021-08-13T08:07:21Z</time>
      </trkpt>
      <trkpt lat="47.04292" lon="6.59323">
        <ele>754.7</ele>
        <time>2021-08-13T08:07:23Z</time>
      </trkpt>
      <trkpt lat="47.04287" lon="6.59319">
        <ele>754.7</ele>
        <time>2021-08-13T08:07:24Z</time>
      </trkpt>
      <trkpt lat="47.04285" lon="6.59316">
        <ele>754.7</ele>
        <time>2021-08-13T08:07:25Z</time>
      </trkpt>
      <trkpt lat="47.04282" lon="6.5931">
        <ele>754.7</ele>
        <time>2021-08-13T08:07:27Z</time>
      </trkpt>
      <trkpt lat="47.04279" lon="6.59306">
        <ele>754.7</ele>
        <time>2021-08-13T08:07:28Z</time>
      </trkpt>
      <trkpt lat="47.04276" lon="6.59301">
        <ele>754.7</ele>
        <time>2021-08-13T08:07:29Z</time>
      </trkpt>
      <trkpt lat="47.04274" lon="6.59296">
        <ele>754.7</ele>
        <time>2021-08-13T08:07:30Z</time>
      </trkpt>
      <trkpt lat="47.04271" lon="6.5929">
        <ele>754.7</ele>
        <time>2021-08-13T08:07:31Z</time>
      </trkpt>
      <trkpt lat="47.04267" lon="6.59283">
        <ele>754.7</ele>
        <time>2021-08-13T08:07:32Z</time>
      </trkpt>
      <trkpt lat="47.04259" lon="6.59272">
        <ele>754.7</ele>
        <time>2021-08-13T08:07:34Z</time>
      </trkpt>
      <trkpt lat="47.04255" lon="6.59265">
        <ele>754.7</ele>
        <time>2021-08-13T08:07:35Z</time>
      </trkpt>
      <trkpt lat="47.04249" lon="6.59254">
        <ele>754.7</ele>
        <time>2021-08-13T08:07:37Z</time>
      </trkpt>
      <trkpt lat="47.04248" lon="6.59251">
        <ele>754.7</ele>
        <time>2021-08-13T08:07:38Z</time>
      </trkpt>
      <trkpt lat="47.04246" lon="6.59243">
        <ele>754.7</ele>
        <time>2021-08-13T08:07:40Z</time>
      </trkpt>
      <trkpt lat="47.04241" lon="6.59235">
        <ele>754.7</ele>
        <time>2021-08-13T08:07:42Z</time>
      </trkpt>
      <trkpt lat="47.04234" lon="6.59228">
        <ele>754.7</ele>
        <time>2021-08-13T08:07:44Z</time>
      </trkpt>
      <trkpt lat="47.04228" lon="6.59221">
        <ele>754.7</ele>
        <time>2021-08-13T08:07:46Z</time>
      </trkpt>
      <trkpt lat="47.04221" lon="6.59215">
        <ele>754.7</ele>
        <time>2021-08-13T08:07:48Z</time>
      </trkpt>
      <trkpt lat="47.04219" lon="6.59212">
        <ele>754.6</ele>
        <time>2021-08-13T08:07:49Z</time>
      </trkpt>
      <trkpt lat="47.04216" lon="6.59209">
        <ele>754.6</ele>
        <time>2021-08-13T08:07:50Z</time>
      </trkpt>
      <trkpt lat="47.04212" lon="6.59206">
        <ele>754.6</ele>
        <time>2021-08-13T08:07:51Z</time>
      </trkpt>
      <trkpt lat="47.04209" lon="6.59202">
        <ele>754.6</ele>
        <time>2021-08-13T08:07:52Z</time>
      </trkpt>
      <trkpt lat="47.04202" lon="6.59196">
        <ele>754.6</ele>
        <time>2021-08-13T08:07:54Z</time>
      </trkpt>
      <trkpt lat="47.04196" lon="6.59193">
        <ele>754.5</ele>
        <time>2021-08-13T08:07:56Z</time>
      </trkpt>
      <trkpt lat="47.04189" lon="6.59192">
        <ele>754.5</ele>
        <time>2021-08-13T08:07:58Z</time>
      </trkpt>
      <trkpt lat="47.04182" lon="6.59193">
        <ele>754.5</ele>
        <time>2021-08-13T08:08:00Z</time>
      </trkpt>
      <trkpt lat="47.04174" lon="6.59195">
        <ele>754.5</ele>
        <time>2021-08-13T08:08:02Z</time>
      </trkpt>
      <trkpt lat="47.0417" lon="6.59197">
        <ele>754.5</ele>
        <time>2021-08-13T08:08:03Z</time>
      </trkpt>
      <trkpt lat="47.04168" lon="6.59198">
        <ele>754.5</ele>
        <time>2021-08-13T08:08:04Z</time>
      </trkpt>
      <trkpt lat="47.04162" lon="6.59198">
        <ele>754.5</ele>
        <time>2021-08-13T08:08:06Z</time>
      </trkpt>
      <trkpt lat="47.04158" lon="6.59197">
        <ele>754.5</ele>
        <time>2021-08-13T08:08:08Z</time>
      </trkpt>
      <trkpt lat="47.04148" lon="6.59196">
        <ele>754.5</ele>
        <time>2021-08-13T08:08:09Z</time>
      </trkpt>
      <trkpt lat="47.04144" lon="6.59195">
        <ele>754.5</ele>
        <time>2021-08-13T08:08:10Z</time>
      </trkpt>
      <trkpt lat="47.04139" lon="6.59194">
        <ele>754.5</ele>
        <time>2021-08-13T08:08:12Z</time>
      </trkpt>
      <trkpt lat="47.04135" lon="6.59195">
        <ele>754.5</ele>
        <time>2021-08-13T08:08:13Z</time>
      </trkpt>
      <trkpt lat="47.04131" lon="6.59198">
        <ele>754.5</ele>
        <time>2021-08-13T08:08:14Z</time>
      </trkpt>
      <trkpt lat="47.04127" lon="6.592">
        <ele>754.5</ele>
        <time>2021-08-13T08:08:15Z</time>
      </trkpt>
      <trkpt lat="47.04122" lon="6.59204">
        <ele>754.5</ele>
        <time>2021-08-13T08:08:16Z</time>
      </trkpt>
      <trkpt lat="47.04118" lon="6.59208">
        <ele>754.5</ele>
        <time>2021-08-13T08:08:17Z</time>
      </trkpt>
      <trkpt lat="47.04112" lon="6.59213">
        <ele>754.5</ele>
        <time>2021-08-13T08:08:19Z</time>
      </trkpt>
      <trkpt lat="47.04108" lon="6.59218">
        <ele>754.4</ele>
        <time>2021-08-13T08:08:20Z</time>
      </trkpt>
      <trkpt lat="47.04104" lon="6.59222">
        <ele>754.4</ele>
        <time>2021-08-13T08:08:21Z</time>
      </trkpt>
      <trkpt lat="47.041" lon="6.59226">
        <ele>754.4</ele>
        <time>2021-08-13T08:08:22Z</time>
      </trkpt>
      <trkpt lat="47.04097" lon="6.5923">
        <ele>754.4</ele>
        <time>2021-08-13T08:08:24Z</time>
      </trkpt>
      <trkpt lat="47.04094" lon="6.59234">
        <ele>754.4</ele>
        <time>2021-08-13T08:08:25Z</time>
      </trkpt>
      <trkpt lat="47.04091" lon="6.5924">
        <ele>754.4</ele>
        <time>2021-08-13T08:08:26Z</time>
      </trkpt>
      <trkpt lat="47.04087" lon="6.59246">
        <ele>754.4</ele>
        <time>2021-08-13T08:08:27Z</time>
      </trkpt>
      <trkpt lat="47.04083" lon="6.59251">
        <ele>754.4</ele>
        <time>2021-08-13T08:08:28Z</time>
      </trkpt>
      <trkpt lat="47.04077" lon="6.59254">
        <ele>754.4</ele>
        <time>2021-08-13T08:08:29Z</time>
      </trkpt>
      <trkpt lat="47.04074" lon="6.59253">
        <ele>754.4</ele>
        <time>2021-08-13T08:08:31Z</time>
      </trkpt>
      <trkpt lat="47.0407" lon="6.59255">
        <ele>754.4</ele>
        <time>2021-08-13T08:08:32Z</time>
      </trkpt>
      <trkpt lat="47.04065" lon="6.59259">
        <ele>754.4</ele>
        <time>2021-08-13T08:08:33Z</time>
      </trkpt>
      <trkpt lat="47.0406" lon="6.59264">
        <ele>754.4</ele>
        <time>2021-08-13T08:08:34Z</time>
      </trkpt>
      <trkpt lat="47.04057" lon="6.59271">
        <ele>754.5</ele>
        <time>2021-08-13T08:08:35Z</time>
      </trkpt>
      <trkpt lat="47.04055" lon="6.59277">
        <ele>754.5</ele>
        <time>2021-08-13T08:08:36Z</time>
      </trkpt>
      <trkpt lat="47.04053" lon="6.59284">
        <ele>754.5</ele>
        <time>2021-08-13T08:08:38Z</time>
      </trkpt>
      <trkpt lat="47.04052" lon="6.59289">
        <ele>754.5</ele>
        <time>2021-08-13T08:08:39Z</time>
      </trkpt>
      <trkpt lat="47.04051" lon="6.59295">
        <ele>754.5</ele>
        <time>2021-08-13T08:08:40Z</time>
      </trkpt>
      <trkpt lat="47.0405" lon="6.59301">
        <ele>754.5</ele>
        <time>2021-08-13T08:08:41Z</time>
      </trkpt>
      <trkpt lat="47.04049" lon="6.59306">
        <ele>754.5</ele>
        <time>2021-08-13T08:08:42Z</time>
      </trkpt>
      <trkpt lat="47.0405" lon="6.59312">
        <ele>754.5</ele>
        <time>2021-08-13T08:08:43Z</time>
      </trkpt>
      <trkpt lat="47.04051" lon="6.59319">
        <ele>754.5</ele>
        <time>2021-08-13T08:08:45Z</time>
      </trkpt>
      <trkpt lat="47.04051" lon="6.59324">
        <ele>754.6</ele>
        <time>2021-08-13T08:08:46Z</time>
      </trkpt>
      <trkpt lat="47.04051" lon="6.5933">
        <ele>754.6</ele>
        <time>2021-08-13T08:08:47Z</time>
      </trkpt>
      <trkpt lat="47.04051" lon="6.59331">
        <ele>754.6</ele>
        <time>2021-08-13T08:08:48Z</time>
      </trkpt>
      <trkpt lat="47.0405" lon="6.59337">
        <ele>754.6</ele>
        <time>2021-08-13T08:08:50Z</time>
      </trkpt>
      <trkpt lat="47.04049" lon="6.59341">
        <ele>754.7</ele>
        <time>2021-08-13T08:08:51Z</time>
      </trkpt>
      <trkpt lat="47.04047" lon="6.59347">
        <ele>754.8</ele>
        <time>2021-08-13T08:08:52Z</time>
      </trkpt>
      <trkpt lat="47.04045" lon="6.59353">
        <ele>754.8</ele>
        <time>2021-08-13T08:08:54Z</time>
      </trkpt>
      <trkpt lat="47.04043" lon="6.59355">
        <ele>754.8</ele>
        <time>2021-08-13T08:08:55Z</time>
      </trkpt>
      <trkpt lat="47.04043" lon="6.59355">
        <ele>754.8</ele>
        <time>2021-08-13T08:08:56Z</time>
      </trkpt>
      <trkpt lat="47.04044" lon="6.59353">
        <ele>754.8</ele>
        <time>2021-08-13T08:08:57Z</time>
      </trkpt>
      <trkpt lat="47.04044" lon="6.59353">
        <ele>754.7</ele>
        <time>2021-08-13T08:08:59Z</time>
      </trkpt>
      <trkpt lat="47.04044" lon="6.59352">
        <ele>754.7</ele>
        <time>2021-08-13T08:09:00Z</time>
      </trkpt>
      <trkpt lat="47.04044" lon="6.59352">
        <ele>754.7</ele>
        <time>2021-08-13T08:09:01Z</time>
      </trkpt>
      <trkpt lat="47.04044" lon="6.59352">
        <ele>754.7</ele>
        <time>2021-08-13T08:09:03Z</time>
      </trkpt>
      <trkpt lat="47.04044" lon="6.59351">
        <ele>754.6</ele>
        <time>2021-08-13T08:09:05Z</time>
      </trkpt>
      <trkpt lat="47.04048" lon="6.5936">
        <ele>754.7</ele>
        <time>2021-08-13T08:09:16Z</time>
      </trkpt>
      <trkpt lat="47.04049" lon="6.59365">
        <ele>754.9</ele>
        <time>2021-08-13T08:09:17Z</time>
      </trkpt>
      <trkpt lat="47.0405" lon="6.59375">
        <ele>755.1</ele>
        <time>2021-08-13T08:09:19Z</time>
      </trkpt>
      <trkpt lat="47.04051" lon="6.5938">
        <ele>755.2</ele>
        <time>2021-08-13T08:09:20Z</time>
      </trkpt>
      <trkpt lat="47.04051" lon="6.59385">
        <ele>755.3</ele>
        <time>2021-08-13T08:09:21Z</time>
      </trkpt>
      <trkpt lat="47.04052" lon="6.59391">
        <ele>755.6</ele>
        <time>2021-08-13T08:09:22Z</time>
      </trkpt>
      <trkpt lat="47.04052" lon="6.594">
        <ele>755.8</ele>
        <time>2021-08-13T08:09:24Z</time>
      </trkpt>
      <trkpt lat="47.04051" lon="6.59405">
        <ele>755.9</ele>
        <time>2021-08-13T08:09:25Z</time>
      </trkpt>
      <trkpt lat="47.04051" lon="6.59412">
        <ele>756.2</ele>
        <time>2021-08-13T08:09:27Z</time>
      </trkpt>
      <trkpt lat="47.0405" lon="6.59418">
        <ele>756.4</ele>
        <time>2021-08-13T08:09:28Z</time>
      </trkpt>
      <trkpt lat="47.0405" lon="6.59424">
        <ele>756.5</ele>
        <time>2021-08-13T08:09:30Z</time>
      </trkpt>
      <trkpt lat="47.0405" lon="6.59429">
        <ele>756.7</ele>
        <time>2021-08-13T08:09:31Z</time>
      </trkpt>
      <trkpt lat="47.04051" lon="6.59436">
        <ele>756.9</ele>
        <time>2021-08-13T08:09:33Z</time>
      </trkpt>
      <trkpt lat="47.04051" lon="6.59439">
        <ele>757</ele>
        <time>2021-08-13T08:09:34Z</time>
      </trkpt>
      <trkpt lat="47.04051" lon="6.59446">
        <ele>757.3</ele>
        <time>2021-08-13T08:09:36Z</time>
      </trkpt>
      <trkpt lat="47.04051" lon="6.5945">
        <ele>757.3</ele>
        <time>2021-08-13T08:09:37Z</time>
      </trkpt>
      <trkpt lat="47.0405" lon="6.59455">
        <ele>757.6</ele>
        <time>2021-08-13T08:09:39Z</time>
      </trkpt>
      <trkpt lat="47.0405" lon="6.59457">
        <ele>757.6</ele>
        <time>2021-08-13T08:09:40Z</time>
      </trkpt>
      <trkpt lat="47.0405" lon="6.59459">
        <ele>757.6</ele>
        <time>2021-08-13T08:09:41Z</time>
      </trkpt>
      <trkpt lat="47.0405" lon="6.59461">
        <ele>757.7</ele>
        <time>2021-08-13T08:09:43Z</time>
      </trkpt>
      <trkpt lat="47.04049" lon="6.59466">
        <ele>757.8</ele>
        <time>2021-08-13T08:09:44Z</time>
      </trkpt>
      <trkpt lat="47.04049" lon="6.59471">
        <ele>758</ele>
        <time>2021-08-13T08:09:45Z</time>
      </trkpt>
      <trkpt lat="47.04049" lon="6.59472">
        <ele>758.1</ele>
        <time>2021-08-13T08:09:46Z</time>
      </trkpt>
      <trkpt lat="47.04049" lon="6.59475">
        <ele>758.1</ele>
        <time>2021-08-13T08:09:47Z</time>
      </trkpt>
      <trkpt lat="47.0405" lon="6.59481">
        <ele>758.4</ele>
        <time>2021-08-13T08:09:49Z</time>
      </trkpt>
      <trkpt lat="47.04052" lon="6.59485">
        <ele>758.6</ele>
        <time>2021-08-13T08:09:50Z</time>
      </trkpt>
      <trkpt lat="47.04053" lon="6.59489">
        <ele>758.8</ele>
        <time>2021-08-13T08:09:51Z</time>
      </trkpt>
      <trkpt lat="47.04054" lon="6.59494">
        <ele>759.1</ele>
        <time>2021-08-13T08:09:52Z</time>
      </trkpt>
      <trkpt lat="47.04055" lon="6.59501">
        <ele>759.3</ele>
        <time>2021-08-13T08:09:54Z</time>
      </trkpt>
      <trkpt lat="47.04057" lon="6.59506">
        <ele>759.8</ele>
        <time>2021-08-13T08:09:55Z</time>
      </trkpt>
      <trkpt lat="47.04058" lon="6.59513">
        <ele>760</ele>
        <time>2021-08-13T08:09:57Z</time>
      </trkpt>
      <trkpt lat="47.04058" lon="6.59518">
        <ele>760.2</ele>
        <time>2021-08-13T08:09:58Z</time>
      </trkpt>
      <trkpt lat="47.04059" lon="6.59521">
        <ele>760.4</ele>
        <time>2021-08-13T08:09:59Z</time>
      </trkpt>
      <trkpt lat="47.0406" lon="6.59527">
        <ele>760.5</ele>
        <time>2021-08-13T08:10:01Z</time>
      </trkpt>
      <trkpt lat="47.04061" lon="6.59532">
        <ele>760.7</ele>
        <time>2021-08-13T08:10:02Z</time>
      </trkpt>
      <trkpt lat="47.04061" lon="6.59534">
        <ele>760.7</ele>
        <time>2021-08-13T08:10:03Z</time>
      </trkpt>
      <trkpt lat="47.04061" lon="6.5954">
        <ele>760.7</ele>
        <time>2021-08-13T08:10:04Z</time>
      </trkpt>
      <trkpt lat="47.04061" lon="6.59546">
        <ele>760.7</ele>
        <time>2021-08-13T08:10:06Z</time>
      </trkpt>
      <trkpt lat="47.04062" lon="6.59548">
        <ele>760.7</ele>
        <time>2021-08-13T08:10:07Z</time>
      </trkpt>
      <trkpt lat="47.04062" lon="6.59549">
        <ele>760.5</ele>
        <time>2021-08-13T08:10:08Z</time>
      </trkpt>
      <trkpt lat="47.04063" lon="6.59552">
        <ele>760.5</ele>
        <time>2021-08-13T08:10:10Z</time>
      </trkpt>
      <trkpt lat="47.04061" lon="6.59555">
        <ele>760.7</ele>
        <time>2021-08-13T08:10:11Z</time>
      </trkpt>
      <trkpt lat="47.0406" lon="6.59558">
        <ele>760.7</ele>
        <time>2021-08-13T08:10:13Z</time>
      </trkpt>
      <trkpt lat="47.04059" lon="6.59562">
        <ele>760.6</ele>
        <time>2021-08-13T08:10:14Z</time>
      </trkpt>
      <trkpt lat="47.04059" lon="6.59563">
        <ele>760.9</ele>
        <time>2021-08-13T08:10:15Z</time>
      </trkpt>
      <trkpt lat="47.04059" lon="6.59567">
        <ele>761</ele>
        <time>2021-08-13T08:10:16Z</time>
      </trkpt>
      <trkpt lat="47.04059" lon="6.59573">
        <ele>760.8</ele>
        <time>2021-08-13T08:10:18Z</time>
      </trkpt>
      <trkpt lat="47.04057" lon="6.59578">
        <ele>761.2</ele>
        <time>2021-08-13T08:10:20Z</time>
      </trkpt>
      <trkpt lat="47.04055" lon="6.59579">
        <ele>761.4</ele>
        <time>2021-08-13T08:10:21Z</time>
      </trkpt>
      <trkpt lat="47.04054" lon="6.59583">
        <ele>761.5</ele>
        <time>2021-08-13T08:10:23Z</time>
      </trkpt>
      <trkpt lat="47.04054" lon="6.59587">
        <ele>761.6</ele>
        <time>2021-08-13T08:10:24Z</time>
      </trkpt>
      <trkpt lat="47.04053" lon="6.5959">
        <ele>762</ele>
        <time>2021-08-13T08:10:25Z</time>
      </trkpt>
      <trkpt lat="47.04051" lon="6.59594">
        <ele>762.1</ele>
        <time>2021-08-13T08:10:27Z</time>
      </trkpt>
      <trkpt lat="47.04049" lon="6.59597">
        <ele>762.3</ele>
        <time>2021-08-13T08:10:28Z</time>
      </trkpt>
      <trkpt lat="47.04047" lon="6.596">
        <ele>762.5</ele>
        <time>2021-08-13T08:10:29Z</time>
      </trkpt>
      <trkpt lat="47.04047" lon="6.59601">
        <ele>762.5</ele>
        <time>2021-08-13T08:10:30Z</time>
      </trkpt>
      <trkpt lat="47.04046" lon="6.59606">
        <ele>762.5</ele>
        <time>2021-08-13T08:10:32Z</time>
      </trkpt>
      <trkpt lat="47.04045" lon="6.59607">
        <ele>762.5</ele>
        <time>2021-08-13T08:10:33Z</time>
      </trkpt>
      <trkpt lat="47.04045" lon="6.5961">
        <ele>762.4</ele>
        <time>2021-08-13T08:10:34Z</time>
      </trkpt>
      <trkpt lat="47.04044" lon="6.59613">
        <ele>762.6</ele>
        <time>2021-08-13T08:10:36Z</time>
      </trkpt>
      <trkpt lat="47.04042" lon="6.59616">
        <ele>762.6</ele>
        <time>2021-08-13T08:10:37Z</time>
      </trkpt>
      <trkpt lat="47.0404" lon="6.59619">
        <ele>762.7</ele>
        <time>2021-08-13T08:10:38Z</time>
      </trkpt>
      <trkpt lat="47.04037" lon="6.59623">
        <ele>762.9</ele>
        <time>2021-08-13T08:10:40Z</time>
      </trkpt>
      <trkpt lat="47.04036" lon="6.59626">
        <ele>762.9</ele>
        <time>2021-08-13T08:10:41Z</time>
      </trkpt>
      <trkpt lat="47.04034" lon="6.59631">
        <ele>763.1</ele>
        <time>2021-08-13T08:10:43Z</time>
      </trkpt>
      <trkpt lat="47.04031" lon="6.59636">
        <ele>763.4</ele>
        <time>2021-08-13T08:10:44Z</time>
      </trkpt>
      <trkpt lat="47.0403" lon="6.5964">
        <ele>763.4</ele>
        <time>2021-08-13T08:10:45Z</time>
      </trkpt>
      <trkpt lat="47.0403" lon="6.59641">
        <ele>763.8</ele>
        <time>2021-08-13T08:10:46Z</time>
      </trkpt>
      <trkpt lat="47.04027" lon="6.59646">
        <ele>764.3</ele>
        <time>2021-08-13T08:10:48Z</time>
      </trkpt>
      <trkpt lat="47.04025" lon="6.59651">
        <ele>764.3</ele>
        <time>2021-08-13T08:10:49Z</time>
      </trkpt>
      <trkpt lat="47.04023" lon="6.59659">
        <ele>765</ele>
        <time>2021-08-13T08:10:51Z</time>
      </trkpt>
      <trkpt lat="47.04023" lon="6.59664">
        <ele>765</ele>
        <time>2021-08-13T08:10:52Z</time>
      </trkpt>
      <trkpt lat="47.04022" lon="6.59669">
        <ele>765.2</ele>
        <time>2021-08-13T08:10:53Z</time>
      </trkpt>
      <trkpt lat="47.0402" lon="6.59674">
        <ele>765.7</ele>
        <time>2021-08-13T08:10:54Z</time>
      </trkpt>
      <trkpt lat="47.04018" lon="6.59678">
        <ele>766.4</ele>
        <time>2021-08-13T08:10:55Z</time>
      </trkpt>
      <trkpt lat="47.04016" lon="6.59683">
        <ele>766.6</ele>
        <time>2021-08-13T08:10:56Z</time>
      </trkpt>
      <trkpt lat="47.04015" lon="6.59684">
        <ele>767</ele>
        <time>2021-08-13T08:10:57Z</time>
      </trkpt>
      <trkpt lat="47.04014" lon="6.59689">
        <ele>767.1</ele>
        <time>2021-08-13T08:10:59Z</time>
      </trkpt>
      <trkpt lat="47.04014" lon="6.59694">
        <ele>767.2</ele>
        <time>2021-08-13T08:11:00Z</time>
      </trkpt>
      <trkpt lat="47.04013" lon="6.59699">
        <ele>767.3</ele>
        <time>2021-08-13T08:11:01Z</time>
      </trkpt>
      <trkpt lat="47.04013" lon="6.59703">
        <ele>767.4</ele>
        <time>2021-08-13T08:11:02Z</time>
      </trkpt>
      <trkpt lat="47.04011" lon="6.59706">
        <ele>768.1</ele>
        <time>2021-08-13T08:11:04Z</time>
      </trkpt>
      <trkpt lat="47.0401" lon="6.59708">
        <ele>768.3</ele>
        <time>2021-08-13T08:11:05Z</time>
      </trkpt>
      <trkpt lat="47.0401" lon="6.59711">
        <ele>768.2</ele>
        <time>2021-08-13T08:11:06Z</time>
      </trkpt>
      <trkpt lat="47.04009" lon="6.59713">
        <ele>769</ele>
        <time>2021-08-13T08:11:07Z</time>
      </trkpt>
      <trkpt lat="47.04009" lon="6.59719">
        <ele>769.2</ele>
        <time>2021-08-13T08:11:09Z</time>
      </trkpt>
      <trkpt lat="47.04007" lon="6.59723">
        <ele>769.4</ele>
        <time>2021-08-13T08:11:10Z</time>
      </trkpt>
      <trkpt lat="47.04007" lon="6.59727">
        <ele>769.6</ele>
        <time>2021-08-13T08:11:11Z</time>
      </trkpt>
      <trkpt lat="47.04008" lon="6.59734">
        <ele>770</ele>
        <time>2021-08-13T08:11:13Z</time>
      </trkpt>
      <trkpt lat="47.04007" lon="6.59737">
        <ele>770</ele>
        <time>2021-08-13T08:11:14Z</time>
      </trkpt>
      <trkpt lat="47.04007" lon="6.59739">
        <ele>770.2</ele>
        <time>2021-08-13T08:11:15Z</time>
      </trkpt>
      <trkpt lat="47.04007" lon="6.59743">
        <ele>770.3</ele>
        <time>2021-08-13T08:11:16Z</time>
      </trkpt>
      <trkpt lat="47.04007" lon="6.59745">
        <ele>770.3</ele>
        <time>2021-08-13T08:11:17Z</time>
      </trkpt>
      <trkpt lat="47.04007" lon="6.59746">
        <ele>770.5</ele>
        <time>2021-08-13T08:11:18Z</time>
      </trkpt>
      <trkpt lat="47.04008" lon="6.59749">
        <ele>770.4</ele>
        <time>2021-08-13T08:11:20Z</time>
      </trkpt>
      <trkpt lat="47.04009" lon="6.59751">
        <ele>770.5</ele>
        <time>2021-08-13T08:11:21Z</time>
      </trkpt>
      <trkpt lat="47.04009" lon="6.59753">
        <ele>770.5</ele>
        <time>2021-08-13T08:11:22Z</time>
      </trkpt>
      <trkpt lat="47.0401" lon="6.59757">
        <ele>770.1</ele>
        <time>2021-08-13T08:11:24Z</time>
      </trkpt>
      <trkpt lat="47.04011" lon="6.59758">
        <ele>770.1</ele>
        <time>2021-08-13T08:11:25Z</time>
      </trkpt>
      <trkpt lat="47.04012" lon="6.59763">
        <ele>770.2</ele>
        <time>2021-08-13T08:11:26Z</time>
      </trkpt>
      <trkpt lat="47.04012" lon="6.59764">
        <ele>770.3</ele>
        <time>2021-08-13T08:11:27Z</time>
      </trkpt>
      <trkpt lat="47.04012" lon="6.59768">
        <ele>769.9</ele>
        <time>2021-08-13T08:11:28Z</time>
      </trkpt>
      <trkpt lat="47.04012" lon="6.59769">
        <ele>770.4</ele>
        <time>2021-08-13T08:11:29Z</time>
      </trkpt>
      <trkpt lat="47.04012" lon="6.5977">
        <ele>770.3</ele>
        <time>2021-08-13T08:11:30Z</time>
      </trkpt>
      <trkpt lat="47.04012" lon="6.59775">
        <ele>770.5</ele>
        <time>2021-08-13T08:11:32Z</time>
      </trkpt>
      <trkpt lat="47.04012" lon="6.59776">
        <ele>770</ele>
        <time>2021-08-13T08:11:33Z</time>
      </trkpt>
      <trkpt lat="47.04013" lon="6.59779">
        <ele>770.2</ele>
        <time>2021-08-13T08:11:35Z</time>
      </trkpt>
      <trkpt lat="47.04013" lon="6.5978">
        <ele>770.2</ele>
        <time>2021-08-13T08:11:36Z</time>
      </trkpt>
      <trkpt lat="47.04013" lon="6.5978">
        <ele>770.2</ele>
        <time>2021-08-13T08:11:38Z</time>
      </trkpt>
      <trkpt lat="47.04013" lon="6.59781">
        <ele>770.4</ele>
        <time>2021-08-13T08:11:39Z</time>
      </trkpt>
      <trkpt lat="47.04013" lon="6.59783">
        <ele>770.4</ele>
        <time>2021-08-13T08:11:41Z</time>
      </trkpt>
      <trkpt lat="47.04014" lon="6.59785">
        <ele>770.4</ele>
        <time>2021-08-13T08:11:42Z</time>
      </trkpt>
      <trkpt lat="47.04014" lon="6.59785">
        <ele>770.6</ele>
        <time>2021-08-13T08:11:43Z</time>
      </trkpt>
      <trkpt lat="47.04014" lon="6.59786">
        <ele>770.6</ele>
        <time>2021-08-13T08:11:44Z</time>
      </trkpt>
      <trkpt lat="47.04014" lon="6.59786">
        <ele>770.6</ele>
        <time>2021-08-13T08:11:45Z</time>
      </trkpt>
      <trkpt lat="47.04014" lon="6.59787">
        <ele>770.5</ele>
        <time>2021-08-13T08:11:47Z</time>
      </trkpt>
      <trkpt lat="47.04014" lon="6.59787">
        <ele>770.5</ele>
        <time>2021-08-13T08:11:48Z</time>
      </trkpt>
      <trkpt lat="47.04014" lon="6.59787">
        <ele>770.5</ele>
        <time>2021-08-13T08:11:49Z</time>
      </trkpt>
      <trkpt lat="47.04014" lon="6.59788">
        <ele>770.4</ele>
        <time>2021-08-13T08:11:50Z</time>
      </trkpt>
      <trkpt lat="47.04014" lon="6.59788">
        <ele>770.4</ele>
        <time>2021-08-13T08:11:51Z</time>
      </trkpt>
      <trkpt lat="47.04014" lon="6.5979">
        <ele>770.7</ele>
        <time>2021-08-13T08:11:52Z</time>
      </trkpt>
      <trkpt lat="47.04008" lon="6.59821">
        <ele>773</ele>
        <time>2021-08-13T08:12:09Z</time>
      </trkpt>
      <trkpt lat="47.04006" lon="6.59824">
        <ele>773.5</ele>
        <time>2021-08-13T08:12:10Z</time>
      </trkpt>
      <trkpt lat="47.04003" lon="6.59827">
        <ele>773.7</ele>
        <time>2021-08-13T08:12:11Z</time>
      </trkpt>
      <trkpt lat="47.04002" lon="6.59828">
        <ele>773.7</ele>
        <time>2021-08-13T08:12:12Z</time>
      </trkpt>
      <trkpt lat="47.03999" lon="6.59832">
        <ele>774.1</ele>
        <time>2021-08-13T08:12:14Z</time>
      </trkpt>
      <trkpt lat="47.03996" lon="6.59836">
        <ele>774.4</ele>
        <time>2021-08-13T08:12:16Z</time>
      </trkpt>
      <trkpt lat="47.03993" lon="6.59839">
        <ele>774.7</ele>
        <time>2021-08-13T08:12:18Z</time>
      </trkpt>
      <trkpt lat="47.03992" lon="6.5984">
        <ele>774.7</ele>
        <time>2021-08-13T08:12:19Z</time>
      </trkpt>
      <trkpt lat="47.03991" lon="6.59841">
        <ele>774.9</ele>
        <time>2021-08-13T08:12:20Z</time>
      </trkpt>
      <trkpt lat="47.03991" lon="6.59841">
        <ele>774.9</ele>
        <time>2021-08-13T08:12:21Z</time>
      </trkpt>
      <trkpt lat="47.03989" lon="6.59844">
        <ele>774.9</ele>
        <time>2021-08-13T08:12:23Z</time>
      </trkpt>
      <trkpt lat="47.03988" lon="6.59845">
        <ele>775.1</ele>
        <time>2021-08-13T08:12:24Z</time>
      </trkpt>
      <trkpt lat="47.03985" lon="6.59847">
        <ele>775.1</ele>
        <time>2021-08-13T08:12:26Z</time>
      </trkpt>
      <trkpt lat="47.03984" lon="6.59847">
        <ele>775.1</ele>
        <time>2021-08-13T08:12:27Z</time>
      </trkpt>
      <trkpt lat="47.03982" lon="6.59848">
        <ele>775.1</ele>
        <time>2021-08-13T08:12:28Z</time>
      </trkpt>
      <trkpt lat="47.03981" lon="6.59849">
        <ele>775.1</ele>
        <time>2021-08-13T08:12:30Z</time>
      </trkpt>
      <trkpt lat="47.03979" lon="6.5985">
        <ele>775.4</ele>
        <time>2021-08-13T08:12:31Z</time>
      </trkpt>
      <trkpt lat="47.03979" lon="6.59851">
        <ele>775.3</ele>
        <time>2021-08-13T08:12:32Z</time>
      </trkpt>
      <trkpt lat="47.03979" lon="6.59853">
        <ele>775.3</ele>
        <time>2021-08-13T08:12:34Z</time>
      </trkpt>
      <trkpt lat="47.03979" lon="6.59855">
        <ele>775.5</ele>
        <time>2021-08-13T08:12:35Z</time>
      </trkpt>
      <trkpt lat="47.03979" lon="6.59857">
        <ele>775.5</ele>
        <time>2021-08-13T08:12:36Z</time>
      </trkpt>
      <trkpt lat="47.03979" lon="6.59858">
        <ele>775.7</ele>
        <time>2021-08-13T08:12:37Z</time>
      </trkpt>
      <trkpt lat="47.0398" lon="6.59859">
        <ele>775.6</ele>
        <time>2021-08-13T08:12:38Z</time>
      </trkpt>
      <trkpt lat="47.0398" lon="6.59859">
        <ele>775.6</ele>
        <time>2021-08-13T08:12:39Z</time>
      </trkpt>
      <trkpt lat="47.0398" lon="6.5986">
        <ele>775.5</ele>
        <time>2021-08-13T08:12:40Z</time>
      </trkpt>
      <trkpt lat="47.0398" lon="6.5986">
        <ele>775.5</ele>
        <time>2021-08-13T08:12:41Z</time>
      </trkpt>
      <trkpt lat="47.0398" lon="6.59861">
        <ele>775.4</ele>
        <time>2021-08-13T08:12:42Z</time>
      </trkpt>
      <trkpt lat="47.0398" lon="6.59861">
        <ele>775.5</ele>
        <time>2021-08-13T08:12:44Z</time>
      </trkpt>
      <trkpt lat="47.03979" lon="6.59862">
        <ele>775.5</ele>
        <time>2021-08-13T08:12:45Z</time>
      </trkpt>
      <trkpt lat="47.03979" lon="6.59863">
        <ele>775.7</ele>
        <time>2021-08-13T08:12:46Z</time>
      </trkpt>
      <trkpt lat="47.03958" lon="6.59886">
        <ele>777.7</ele>
        <time>2021-08-13T08:13:08Z</time>
      </trkpt>
      <trkpt lat="47.03957" lon="6.59888">
        <ele>777.6</ele>
        <time>2021-08-13T08:13:09Z</time>
      </trkpt>
      <trkpt lat="47.03957" lon="6.59889">
        <ele>777.7</ele>
        <time>2021-08-13T08:13:10Z</time>
      </trkpt>
      <trkpt lat="47.03957" lon="6.59894">
        <ele>777.8</ele>
        <time>2021-08-13T08:13:12Z</time>
      </trkpt>
      <trkpt lat="47.03957" lon="6.59899">
        <ele>778.1</ele>
        <time>2021-08-13T08:13:13Z</time>
      </trkpt>
      <trkpt lat="47.03957" lon="6.59904">
        <ele>778</ele>
        <time>2021-08-13T08:13:14Z</time>
      </trkpt>
      <trkpt lat="47.03957" lon="6.59906">
        <ele>778.1</ele>
        <time>2021-08-13T08:13:15Z</time>
      </trkpt>
      <trkpt lat="47.03957" lon="6.5991">
        <ele>778.2</ele>
        <time>2021-08-13T08:13:16Z</time>
      </trkpt>
      <trkpt lat="47.03957" lon="6.59913">
        <ele>778.3</ele>
        <time>2021-08-13T08:13:17Z</time>
      </trkpt>
      <trkpt lat="47.03956" lon="6.59914">
        <ele>778.4</ele>
        <time>2021-08-13T08:13:18Z</time>
      </trkpt>
      <trkpt lat="47.03956" lon="6.59915">
        <ele>778.4</ele>
        <time>2021-08-13T08:13:19Z</time>
      </trkpt>
      <trkpt lat="47.03952" lon="6.59918">
        <ele>778.5</ele>
        <time>2021-08-13T08:13:21Z</time>
      </trkpt>
      <trkpt lat="47.03951" lon="6.59918">
        <ele>778.9</ele>
        <time>2021-08-13T08:13:22Z</time>
      </trkpt>
      <trkpt lat="47.03949" lon="6.59919">
        <ele>778.8</ele>
        <time>2021-08-13T08:13:23Z</time>
      </trkpt>
      <trkpt lat="47.03948" lon="6.59919">
        <ele>779</ele>
        <time>2021-08-13T08:13:24Z</time>
      </trkpt>
      <trkpt lat="47.03936" lon="6.59924">
        <ele>780</ele>
        <time>2021-08-13T08:13:31Z</time>
      </trkpt>
      <trkpt lat="47.03932" lon="6.59923">
        <ele>780.2</ele>
        <time>2021-08-13T08:13:33Z</time>
      </trkpt>
      <trkpt lat="47.03928" lon="6.5992">
        <ele>780.2</ele>
        <time>2021-08-13T08:13:34Z</time>
      </trkpt>
      <trkpt lat="47.03926" lon="6.59918">
        <ele>780.3</ele>
        <time>2021-08-13T08:13:35Z</time>
      </trkpt>
      <trkpt lat="47.03923" lon="6.59915">
        <ele>780.3</ele>
        <time>2021-08-13T08:13:36Z</time>
      </trkpt>
      <trkpt lat="47.03922" lon="6.59914">
        <ele>780.3</ele>
        <time>2021-08-13T08:13:37Z</time>
      </trkpt>
      <trkpt lat="47.0392" lon="6.59908">
        <ele>780.1</ele>
        <time>2021-08-13T08:13:39Z</time>
      </trkpt>
      <trkpt lat="47.0392" lon="6.59908">
        <ele>780</ele>
        <time>2021-08-13T08:13:41Z</time>
      </trkpt>
      <trkpt lat="47.03921" lon="6.5991">
        <ele>780.2</ele>
        <time>2021-08-13T08:13:43Z</time>
      </trkpt>
      <trkpt lat="47.03921" lon="6.59912">
        <ele>780.1</ele>
        <time>2021-08-13T08:13:44Z</time>
      </trkpt>
      <trkpt lat="47.03921" lon="6.59912">
        <ele>780.1</ele>
        <time>2021-08-13T08:13:45Z</time>
      </trkpt>
      <trkpt lat="47.0389" lon="6.59946">
        <ele>782.2</ele>
        <time>2021-08-13T08:14:38Z</time>
      </trkpt>
      <trkpt lat="47.03886" lon="6.59947">
        <ele>782.7</ele>
        <time>2021-08-13T08:14:39Z</time>
      </trkpt>
      <trkpt lat="47.03882" lon="6.59954">
        <ele>783.7</ele>
        <time>2021-08-13T08:14:40Z</time>
      </trkpt>
      <trkpt lat="47.03878" lon="6.5996">
        <ele>784.5</ele>
        <time>2021-08-13T08:14:42Z</time>
      </trkpt>
      <trkpt lat="47.03872" lon="6.59969">
        <ele>785.7</ele>
        <time>2021-08-13T08:14:44Z</time>
      </trkpt>
      <trkpt lat="47.03869" lon="6.59973">
        <ele>786.2</ele>
        <time>2021-08-13T08:14:45Z</time>
      </trkpt>
      <trkpt lat="47.03866" lon="6.59976">
        <ele>786.6</ele>
        <time>2021-08-13T08:14:47Z</time>
      </trkpt>
      <trkpt lat="47.03861" lon="6.59978">
        <ele>787.2</ele>
        <time>2021-08-13T08:14:48Z</time>
      </trkpt>
      <trkpt lat="47.03859" lon="6.59978">
        <ele>787.5</ele>
        <time>2021-08-13T08:14:49Z</time>
      </trkpt>
      <trkpt lat="47.03858" lon="6.59978">
        <ele>787.6</ele>
        <time>2021-08-13T08:14:50Z</time>
      </trkpt>
      <trkpt lat="47.03858" lon="6.59978">
        <ele>787.6</ele>
        <time>2021-08-13T08:14:51Z</time>
      </trkpt>
      <trkpt lat="47.03857" lon="6.59978">
        <ele>787.7</ele>
        <time>2021-08-13T08:14:52Z</time>
      </trkpt>
      <trkpt lat="47.03856" lon="6.59978">
        <ele>787.8</ele>
        <time>2021-08-13T08:14:53Z</time>
      </trkpt>
      <trkpt lat="47.03855" lon="6.59978">
        <ele>787.9</ele>
        <time>2021-08-13T08:14:54Z</time>
      </trkpt>
      <trkpt lat="47.03852" lon="6.59978">
        <ele>788.3</ele>
        <time>2021-08-13T08:14:56Z</time>
      </trkpt>
      <trkpt lat="47.03851" lon="6.59979">
        <ele>788.4</ele>
        <time>2021-08-13T08:14:57Z</time>
      </trkpt>
      <trkpt lat="47.03847" lon="6.5998">
        <ele>788.6</ele>
        <time>2021-08-13T08:14:59Z</time>
      </trkpt>
      <trkpt lat="47.03844" lon="6.59981">
        <ele>788.7</ele>
        <time>2021-08-13T08:15:00Z</time>
      </trkpt>
      <trkpt lat="47.03839" lon="6.59982">
        <ele>788.9</ele>
        <time>2021-08-13T08:15:01Z</time>
      </trkpt>
      <trkpt lat="47.03836" lon="6.59983">
        <ele>789</ele>
        <time>2021-08-13T08:15:02Z</time>
      </trkpt>
      <trkpt lat="47.03832" lon="6.59985">
        <ele>789.1</ele>
        <time>2021-08-13T08:15:03Z</time>
      </trkpt>
      <trkpt lat="47.03829" lon="6.59985">
        <ele>789.2</ele>
        <time>2021-08-13T08:15:04Z</time>
      </trkpt>
      <trkpt lat="47.03825" lon="6.59986">
        <ele>789.3</ele>
        <time>2021-08-13T08:15:05Z</time>
      </trkpt>
      <trkpt lat="47.03822" lon="6.59987">
        <ele>789.4</ele>
        <time>2021-08-13T08:15:06Z</time>
      </trkpt>
      <trkpt lat="47.03819" lon="6.59988">
        <ele>789.5</ele>
        <time>2021-08-13T08:15:07Z</time>
      </trkpt>
      <trkpt lat="47.03817" lon="6.59989">
        <ele>789.6</ele>
        <time>2021-08-13T08:15:08Z</time>
      </trkpt>
      <trkpt lat="47.03813" lon="6.59991">
        <ele>789.7</ele>
        <time>2021-08-13T08:15:10Z</time>
      </trkpt>
      <trkpt lat="47.03812" lon="6.59991">
        <ele>789.7</ele>
        <time>2021-08-13T08:15:11Z</time>
      </trkpt>
      <trkpt lat="47.03808" lon="6.59992">
        <ele>789.9</ele>
        <time>2021-08-13T08:15:12Z</time>
      </trkpt>
      <trkpt lat="47.03807" lon="6.59992">
        <ele>789.9</ele>
        <time>2021-08-13T08:15:13Z</time>
      </trkpt>
      <trkpt lat="47.03803" lon="6.59991">
        <ele>790</ele>
        <time>2021-08-13T08:15:14Z</time>
      </trkpt>
      <trkpt lat="47.03802" lon="6.5999">
        <ele>790.1</ele>
        <time>2021-08-13T08:15:15Z</time>
      </trkpt>
      <trkpt lat="47.038" lon="6.59989">
        <ele>790.1</ele>
        <time>2021-08-13T08:15:16Z</time>
      </trkpt>
      <trkpt lat="47.03798" lon="6.59989">
        <ele>790.2</ele>
        <time>2021-08-13T08:15:18Z</time>
      </trkpt>
      <trkpt lat="47.03795" lon="6.5999">
        <ele>790.3</ele>
        <time>2021-08-13T08:15:19Z</time>
      </trkpt>
      <trkpt lat="47.03793" lon="6.59992">
        <ele>790.4</ele>
        <time>2021-08-13T08:15:20Z</time>
      </trkpt>
      <trkpt lat="47.03792" lon="6.59993">
        <ele>790.5</ele>
        <time>2021-08-13T08:15:22Z</time>
      </trkpt>
      <trkpt lat="47.0379" lon="6.59994">
        <ele>790.5</ele>
        <time>2021-08-13T08:15:23Z</time>
      </trkpt>
      <trkpt lat="47.03789" lon="6.59995">
        <ele>790.5</ele>
        <time>2021-08-13T08:15:24Z</time>
      </trkpt>
      <trkpt lat="47.03787" lon="6.59997">
        <ele>790.6</ele>
        <time>2021-08-13T08:15:25Z</time>
      </trkpt>
      <trkpt lat="47.03786" lon="6.59997">
        <ele>790.7</ele>
        <time>2021-08-13T08:15:26Z</time>
      </trkpt>
      <trkpt lat="47.03784" lon="6.59999">
        <ele>790.8</ele>
        <time>2021-08-13T08:15:27Z</time>
      </trkpt>
      <trkpt lat="47.03782" lon="6.6">
        <ele>790.8</ele>
        <time>2021-08-13T08:15:29Z</time>
      </trkpt>
      <trkpt lat="47.03781" lon="6.60002">
        <ele>790.9</ele>
        <time>2021-08-13T08:15:30Z</time>
      </trkpt>
      <trkpt lat="47.0378" lon="6.60003">
        <ele>790.9</ele>
        <time>2021-08-13T08:15:31Z</time>
      </trkpt>
      <trkpt lat="47.03777" lon="6.60006">
        <ele>791</ele>
        <time>2021-08-13T08:15:32Z</time>
      </trkpt>
      <trkpt lat="47.03776" lon="6.60006">
        <ele>791.1</ele>
        <time>2021-08-13T08:15:33Z</time>
      </trkpt>
      <trkpt lat="47.03773" lon="6.60009">
        <ele>791.2</ele>
        <time>2021-08-13T08:15:34Z</time>
      </trkpt>
      <trkpt lat="47.03772" lon="6.6001">
        <ele>791.2</ele>
        <time>2021-08-13T08:15:35Z</time>
      </trkpt>
      <trkpt lat="47.0377" lon="6.60013">
        <ele>791.3</ele>
        <time>2021-08-13T08:15:37Z</time>
      </trkpt>
      <trkpt lat="47.03769" lon="6.60013">
        <ele>791.4</ele>
        <time>2021-08-13T08:15:38Z</time>
      </trkpt>
      <trkpt lat="47.03767" lon="6.60015">
        <ele>791.5</ele>
        <time>2021-08-13T08:15:39Z</time>
      </trkpt>
      <trkpt lat="47.03763" lon="6.60019">
        <ele>791.6</ele>
        <time>2021-08-13T08:15:41Z</time>
      </trkpt>
      <trkpt lat="47.03759" lon="6.6002">
        <ele>791.7</ele>
        <time>2021-08-13T08:15:42Z</time>
      </trkpt>
      <trkpt lat="47.03756" lon="6.60022">
        <ele>791.8</ele>
        <time>2021-08-13T08:15:43Z</time>
      </trkpt>
      <trkpt lat="47.03753" lon="6.60024">
        <ele>791.9</ele>
        <time>2021-08-13T08:15:44Z</time>
      </trkpt>
      <trkpt lat="47.0375" lon="6.60026">
        <ele>791.9</ele>
        <time>2021-08-13T08:15:45Z</time>
      </trkpt>
      <trkpt lat="47.03749" lon="6.60027">
        <ele>792</ele>
        <time>2021-08-13T08:15:46Z</time>
      </trkpt>
      <trkpt lat="47.03747" lon="6.6003">
        <ele>792</ele>
        <time>2021-08-13T08:15:47Z</time>
      </trkpt>
      <trkpt lat="47.03744" lon="6.60034">
        <ele>792.1</ele>
        <time>2021-08-13T08:15:49Z</time>
      </trkpt>
      <trkpt lat="47.0374" lon="6.60037">
        <ele>792.2</ele>
        <time>2021-08-13T08:15:51Z</time>
      </trkpt>
      <trkpt lat="47.03737" lon="6.6004">
        <ele>792.3</ele>
        <time>2021-08-13T08:15:52Z</time>
      </trkpt>
      <trkpt lat="47.03736" lon="6.6004">
        <ele>792.3</ele>
        <time>2021-08-13T08:15:53Z</time>
      </trkpt>
      <trkpt lat="47.03731" lon="6.60043">
        <ele>792.4</ele>
        <time>2021-08-13T08:15:54Z</time>
      </trkpt>
      <trkpt lat="47.03728" lon="6.60045">
        <ele>792.5</ele>
        <time>2021-08-13T08:15:56Z</time>
      </trkpt>
      <trkpt lat="47.03725" lon="6.60047">
        <ele>792.6</ele>
        <time>2021-08-13T08:15:57Z</time>
      </trkpt>
      <trkpt lat="47.03722" lon="6.6005">
        <ele>792.7</ele>
        <time>2021-08-13T08:15:58Z</time>
      </trkpt>
      <trkpt lat="47.03721" lon="6.60052">
        <ele>792.7</ele>
        <time>2021-08-13T08:15:59Z</time>
      </trkpt>
      <trkpt lat="47.03719" lon="6.60054">
        <ele>792.8</ele>
        <time>2021-08-13T08:16:00Z</time>
      </trkpt>
      <trkpt lat="47.03717" lon="6.60057">
        <ele>792.9</ele>
        <time>2021-08-13T08:16:01Z</time>
      </trkpt>
      <trkpt lat="47.03715" lon="6.6006">
        <ele>792.9</ele>
        <time>2021-08-13T08:16:03Z</time>
      </trkpt>
      <trkpt lat="47.03711" lon="6.60066">
        <ele>793.1</ele>
        <time>2021-08-13T08:16:05Z</time>
      </trkpt>
      <trkpt lat="47.03709" lon="6.60067">
        <ele>793.1</ele>
        <time>2021-08-13T08:16:06Z</time>
      </trkpt>
      <trkpt lat="47.03706" lon="6.60068">
        <ele>793.2</ele>
        <time>2021-08-13T08:16:08Z</time>
      </trkpt>
      <trkpt lat="47.03702" lon="6.6007">
        <ele>793.3</ele>
        <time>2021-08-13T08:16:09Z</time>
      </trkpt>
      <trkpt lat="47.03701" lon="6.60071">
        <ele>793.3</ele>
        <time>2021-08-13T08:16:10Z</time>
      </trkpt>
      <trkpt lat="47.03699" lon="6.60075">
        <ele>793.4</ele>
        <time>2021-08-13T08:16:11Z</time>
      </trkpt>
      <trkpt lat="47.03697" lon="6.6008">
        <ele>793.5</ele>
        <time>2021-08-13T08:16:13Z</time>
      </trkpt>
      <trkpt lat="47.03695" lon="6.60082">
        <ele>793.6</ele>
        <time>2021-08-13T08:16:14Z</time>
      </trkpt>
      <trkpt lat="47.03694" lon="6.60084">
        <ele>793.6</ele>
        <time>2021-08-13T08:16:15Z</time>
      </trkpt>
      <trkpt lat="47.03692" lon="6.60086">
        <ele>793.7</ele>
        <time>2021-08-13T08:16:16Z</time>
      </trkpt>
      <trkpt lat="47.03689" lon="6.60087">
        <ele>793.8</ele>
        <time>2021-08-13T08:16:18Z</time>
      </trkpt>
      <trkpt lat="47.03685" lon="6.6009">
        <ele>793.9</ele>
        <time>2021-08-13T08:16:20Z</time>
      </trkpt>
      <trkpt lat="47.03683" lon="6.60092">
        <ele>794</ele>
        <time>2021-08-13T08:16:21Z</time>
      </trkpt>
      <trkpt lat="47.03679" lon="6.60095">
        <ele>794.1</ele>
        <time>2021-08-13T08:16:23Z</time>
      </trkpt>
      <trkpt lat="47.03675" lon="6.60097">
        <ele>794.2</ele>
        <time>2021-08-13T08:16:24Z</time>
      </trkpt>
      <trkpt lat="47.03672" lon="6.601">
        <ele>794.3</ele>
        <time>2021-08-13T08:16:25Z</time>
      </trkpt>
      <trkpt lat="47.03671" lon="6.60101">
        <ele>794.3</ele>
        <time>2021-08-13T08:16:26Z</time>
      </trkpt>
      <trkpt lat="47.03668" lon="6.60105">
        <ele>794.4</ele>
        <time>2021-08-13T08:16:28Z</time>
      </trkpt>
      <trkpt lat="47.03667" lon="6.60106">
        <ele>794.4</ele>
        <time>2021-08-13T08:16:29Z</time>
      </trkpt>
      <trkpt lat="47.03664" lon="6.60108">
        <ele>794.5</ele>
        <time>2021-08-13T08:16:30Z</time>
      </trkpt>
      <trkpt lat="47.03663" lon="6.6011">
        <ele>794.6</ele>
        <time>2021-08-13T08:16:31Z</time>
      </trkpt>
      <trkpt lat="47.03662" lon="6.60112">
        <ele>794.6</ele>
        <time>2021-08-13T08:16:32Z</time>
      </trkpt>
      <trkpt lat="47.03659" lon="6.60114">
        <ele>794.7</ele>
        <time>2021-08-13T08:16:34Z</time>
      </trkpt>
      <trkpt lat="47.03656" lon="6.60116">
        <ele>794.8</ele>
        <time>2021-08-13T08:16:35Z</time>
      </trkpt>
      <trkpt lat="47.03654" lon="6.60117">
        <ele>794.9</ele>
        <time>2021-08-13T08:16:36Z</time>
      </trkpt>
      <trkpt lat="47.03652" lon="6.60121">
        <ele>795</ele>
        <time>2021-08-13T08:16:37Z</time>
      </trkpt>
      <trkpt lat="47.03649" lon="6.60124">
        <ele>795.1</ele>
        <time>2021-08-13T08:16:39Z</time>
      </trkpt>
      <trkpt lat="47.03648" lon="6.60126">
        <ele>795.2</ele>
        <time>2021-08-13T08:16:40Z</time>
      </trkpt>
      <trkpt lat="47.03642" lon="6.6013">
        <ele>795.4</ele>
        <time>2021-08-13T08:16:42Z</time>
      </trkpt>
      <trkpt lat="47.03639" lon="6.60132">
        <ele>795.5</ele>
        <time>2021-08-13T08:16:43Z</time>
      </trkpt>
      <trkpt lat="47.03633" lon="6.60134">
        <ele>795.7</ele>
        <time>2021-08-13T08:16:45Z</time>
      </trkpt>
      <trkpt lat="47.0363" lon="6.60136">
        <ele>795.8</ele>
        <time>2021-08-13T08:16:46Z</time>
      </trkpt>
      <trkpt lat="47.03626" lon="6.60138">
        <ele>795.9</ele>
        <time>2021-08-13T08:16:48Z</time>
      </trkpt>
      <trkpt lat="47.03623" lon="6.60139">
        <ele>796.1</ele>
        <time>2021-08-13T08:16:49Z</time>
      </trkpt>
      <trkpt lat="47.03619" lon="6.60142">
        <ele>796.2</ele>
        <time>2021-08-13T08:16:50Z</time>
      </trkpt>
      <trkpt lat="47.03616" lon="6.60144">
        <ele>796.3</ele>
        <time>2021-08-13T08:16:51Z</time>
      </trkpt>
      <trkpt lat="47.03613" lon="6.60147">
        <ele>796.5</ele>
        <time>2021-08-13T08:16:52Z</time>
      </trkpt>
      <trkpt lat="47.03611" lon="6.60148">
        <ele>796.5</ele>
        <time>2021-08-13T08:16:53Z</time>
      </trkpt>
      <trkpt lat="47.03609" lon="6.60149">
        <ele>796.7</ele>
        <time>2021-08-13T08:16:54Z</time>
      </trkpt>
      <trkpt lat="47.03605" lon="6.60152">
        <ele>796.9</ele>
        <time>2021-08-13T08:16:56Z</time>
      </trkpt>
      <trkpt lat="47.03604" lon="6.60153">
        <ele>796.9</ele>
        <time>2021-08-13T08:16:57Z</time>
      </trkpt>
      <trkpt lat="47.03602" lon="6.60153">
        <ele>797</ele>
        <time>2021-08-13T08:16:58Z</time>
      </trkpt>
      <trkpt lat="47.036" lon="6.60155">
        <ele>797.1</ele>
        <time>2021-08-13T08:16:59Z</time>
      </trkpt>
      <trkpt lat="47.03599" lon="6.60156">
        <ele>797.2</ele>
        <time>2021-08-13T08:17:00Z</time>
      </trkpt>
      <trkpt lat="47.03598" lon="6.60158">
        <ele>797.3</ele>
        <time>2021-08-13T08:17:02Z</time>
      </trkpt>
      <trkpt lat="47.03597" lon="6.60159">
        <ele>797.3</ele>
        <time>2021-08-13T08:17:03Z</time>
      </trkpt>
      <trkpt lat="47.03593" lon="6.6016">
        <ele>797.5</ele>
        <time>2021-08-13T08:17:05Z</time>
      </trkpt>
      <trkpt lat="47.03593" lon="6.6016">
        <ele>797.5</ele>
        <time>2021-08-13T08:17:06Z</time>
      </trkpt>
      <trkpt lat="47.03592" lon="6.60161">
        <ele>797.5</ele>
        <time>2021-08-13T08:17:07Z</time>
      </trkpt>
      <trkpt lat="47.03592" lon="6.60161">
        <ele>797.6</ele>
        <time>2021-08-13T08:17:08Z</time>
      </trkpt>
      <trkpt lat="47.03591" lon="6.60162">
        <ele>797.6</ele>
        <time>2021-08-13T08:17:09Z</time>
      </trkpt>
      <trkpt lat="47.03591" lon="6.60162">
        <ele>797.6</ele>
        <time>2021-08-13T08:17:10Z</time>
      </trkpt>
      <trkpt lat="47.03591" lon="6.60162">
        <ele>797.6</ele>
        <time>2021-08-13T08:17:11Z</time>
      </trkpt>
      <trkpt lat="47.03589" lon="6.60166">
        <ele>797.8</ele>
        <time>2021-08-13T08:17:12Z</time>
      </trkpt>
      <trkpt lat="47.03589" lon="6.60167">
        <ele>797.8</ele>
        <time>2021-08-13T08:17:13Z</time>
      </trkpt>
      <trkpt lat="47.03588" lon="6.60171">
        <ele>797.9</ele>
        <time>2021-08-13T08:17:14Z</time>
      </trkpt>
      <trkpt lat="47.03588" lon="6.60172">
        <ele>798</ele>
        <time>2021-08-13T08:17:15Z</time>
      </trkpt>
      <trkpt lat="47.03587" lon="6.60177">
        <ele>798.1</ele>
        <time>2021-08-13T08:17:17Z</time>
      </trkpt>
      <trkpt lat="47.03585" lon="6.60181">
        <ele>798.3</ele>
        <time>2021-08-13T08:17:19Z</time>
      </trkpt>
      <trkpt lat="47.03582" lon="6.60184">
        <ele>798.5</ele>
        <time>2021-08-13T08:17:20Z</time>
      </trkpt>
      <trkpt lat="47.0358" lon="6.60184">
        <ele>798.6</ele>
        <time>2021-08-13T08:17:21Z</time>
      </trkpt>
      <trkpt lat="47.03578" lon="6.60185">
        <ele>798.7</ele>
        <time>2021-08-13T08:17:23Z</time>
      </trkpt>
      <trkpt lat="47.03576" lon="6.60187">
        <ele>798.9</ele>
        <time>2021-08-13T08:17:24Z</time>
      </trkpt>
      <trkpt lat="47.03575" lon="6.60189">
        <ele>798.9</ele>
        <time>2021-08-13T08:17:26Z</time>
      </trkpt>
      <trkpt lat="47.03574" lon="6.6019">
        <ele>799</ele>
        <time>2021-08-13T08:17:27Z</time>
      </trkpt>
      <trkpt lat="47.03572" lon="6.60192">
        <ele>799.1</ele>
        <time>2021-08-13T08:17:28Z</time>
      </trkpt>
      <trkpt lat="47.03571" lon="6.60193">
        <ele>799.2</ele>
        <time>2021-08-13T08:17:29Z</time>
      </trkpt>
      <trkpt lat="47.03569" lon="6.60195">
        <ele>799.4</ele>
        <time>2021-08-13T08:17:31Z</time>
      </trkpt>
      <trkpt lat="47.03569" lon="6.60195">
        <ele>799.4</ele>
        <time>2021-08-13T08:17:32Z</time>
      </trkpt>
      <trkpt lat="47.03568" lon="6.60196">
        <ele>799.5</ele>
        <time>2021-08-13T08:17:33Z</time>
      </trkpt>
      <trkpt lat="47.03566" lon="6.60197">
        <ele>799.6</ele>
        <time>2021-08-13T08:17:34Z</time>
      </trkpt>
      <trkpt lat="47.03564" lon="6.60198">
        <ele>799.8</ele>
        <time>2021-08-13T08:17:35Z</time>
      </trkpt>
      <trkpt lat="47.03563" lon="6.60199">
        <ele>799.8</ele>
        <time>2021-08-13T08:17:36Z</time>
      </trkpt>
      <trkpt lat="47.03562" lon="6.60198">
        <ele>799.9</ele>
        <time>2021-08-13T08:17:37Z</time>
      </trkpt>
      <trkpt lat="47.03561" lon="6.60198">
        <ele>799.9</ele>
        <time>2021-08-13T08:17:39Z</time>
      </trkpt>
      <trkpt lat="47.0356" lon="6.60199">
        <ele>800</ele>
        <time>2021-08-13T08:17:40Z</time>
      </trkpt>
      <trkpt lat="47.03559" lon="6.602">
        <ele>800.1</ele>
        <time>2021-08-13T08:17:42Z</time>
      </trkpt>
      <trkpt lat="47.03557" lon="6.60202">
        <ele>800.2</ele>
        <time>2021-08-13T08:17:43Z</time>
      </trkpt>
      <trkpt lat="47.03557" lon="6.60203">
        <ele>800.3</ele>
        <time>2021-08-13T08:17:44Z</time>
      </trkpt>
      <trkpt lat="47.03556" lon="6.60203">
        <ele>800.4</ele>
        <time>2021-08-13T08:17:45Z</time>
      </trkpt>
      <trkpt lat="47.03552" lon="6.60208">
        <ele>800.7</ele>
        <time>2021-08-13T08:17:47Z</time>
      </trkpt>
      <trkpt lat="47.0355" lon="6.6021">
        <ele>800.9</ele>
        <time>2021-08-13T08:17:48Z</time>
      </trkpt>
      <trkpt lat="47.0355" lon="6.60211">
        <ele>801</ele>
        <time>2021-08-13T08:17:49Z</time>
      </trkpt>
      <trkpt lat="47.03548" lon="6.60214">
        <ele>801.2</ele>
        <time>2021-08-13T08:17:51Z</time>
      </trkpt>
      <trkpt lat="47.03547" lon="6.60215">
        <ele>801.2</ele>
        <time>2021-08-13T08:17:52Z</time>
      </trkpt>
      <trkpt lat="47.03546" lon="6.6022">
        <ele>801.5</ele>
        <time>2021-08-13T08:17:53Z</time>
      </trkpt>
      <trkpt lat="47.03546" lon="6.60221">
        <ele>801.6</ele>
        <time>2021-08-13T08:17:54Z</time>
      </trkpt>
      <trkpt lat="47.03544" lon="6.60225">
        <ele>801.8</ele>
        <time>2021-08-13T08:17:55Z</time>
      </trkpt>
      <trkpt lat="47.03543" lon="6.60226">
        <ele>801.9</ele>
        <time>2021-08-13T08:17:56Z</time>
      </trkpt>
      <trkpt lat="47.03542" lon="6.60227">
        <ele>802.1</ele>
        <time>2021-08-13T08:17:57Z</time>
      </trkpt>
      <trkpt lat="47.0354" lon="6.60228">
        <ele>802.2</ele>
        <time>2021-08-13T08:17:58Z</time>
      </trkpt>
      <trkpt lat="47.03539" lon="6.6023">
        <ele>802.3</ele>
        <time>2021-08-13T08:17:59Z</time>
      </trkpt>
      <trkpt lat="47.03538" lon="6.60231">
        <ele>802.4</ele>
        <time>2021-08-13T08:18:00Z</time>
      </trkpt>
      <trkpt lat="47.03536" lon="6.60231">
        <ele>802.6</ele>
        <time>2021-08-13T08:18:02Z</time>
      </trkpt>
      <trkpt lat="47.03533" lon="6.60232">
        <ele>802.8</ele>
        <time>2021-08-13T08:18:03Z</time>
      </trkpt>
      <trkpt lat="47.0353" lon="6.60233">
        <ele>803.1</ele>
        <time>2021-08-13T08:18:04Z</time>
      </trkpt>
      <trkpt lat="47.03529" lon="6.60234">
        <ele>803.2</ele>
        <time>2021-08-13T08:18:06Z</time>
      </trkpt>
      <trkpt lat="47.03527" lon="6.60234">
        <ele>803.4</ele>
        <time>2021-08-13T08:18:07Z</time>
      </trkpt>
      <trkpt lat="47.03526" lon="6.60235">
        <ele>803.5</ele>
        <time>2021-08-13T08:18:08Z</time>
      </trkpt>
      <trkpt lat="47.03522" lon="6.60236">
        <ele>803.8</ele>
        <time>2021-08-13T08:18:09Z</time>
      </trkpt>
      <trkpt lat="47.03521" lon="6.60237">
        <ele>803.9</ele>
        <time>2021-08-13T08:18:10Z</time>
      </trkpt>
      <trkpt lat="47.03518" lon="6.60238">
        <ele>804.2</ele>
        <time>2021-08-13T08:18:11Z</time>
      </trkpt>
      <trkpt lat="47.03515" lon="6.6024">
        <ele>804.5</ele>
        <time>2021-08-13T08:18:12Z</time>
      </trkpt>
      <trkpt lat="47.03514" lon="6.6024">
        <ele>804.6</ele>
        <time>2021-08-13T08:18:13Z</time>
      </trkpt>
      <trkpt lat="47.03514" lon="6.6024">
        <ele>804.6</ele>
        <time>2021-08-13T08:18:14Z</time>
      </trkpt>
      <trkpt lat="47.03513" lon="6.6024">
        <ele>804.7</ele>
        <time>2021-08-13T08:18:16Z</time>
      </trkpt>
      <trkpt lat="47.03512" lon="6.60241">
        <ele>804.7</ele>
        <time>2021-08-13T08:18:17Z</time>
      </trkpt>
      <trkpt lat="47.03512" lon="6.60241">
        <ele>804.8</ele>
        <time>2021-08-13T08:18:18Z</time>
      </trkpt>
      <trkpt lat="47.03511" lon="6.60241">
        <ele>804.8</ele>
        <time>2021-08-13T08:18:19Z</time>
      </trkpt>
      <trkpt lat="47.03508" lon="6.60246">
        <ele>805.2</ele>
        <time>2021-08-13T08:18:20Z</time>
      </trkpt>
      <trkpt lat="47.03506" lon="6.60249">
        <ele>805.5</ele>
        <time>2021-08-13T08:18:21Z</time>
      </trkpt>
      <trkpt lat="47.03504" lon="6.60253">
        <ele>805.8</ele>
        <time>2021-08-13T08:18:22Z</time>
      </trkpt>
      <trkpt lat="47.03502" lon="6.60257">
        <ele>806.2</ele>
        <time>2021-08-13T08:18:37Z</time>
      </trkpt>
      <trkpt lat="47.035" lon="6.60261">
        <ele>806.5</ele>
        <time>2021-08-13T08:18:38Z</time>
      </trkpt>
      <trkpt lat="47.03497" lon="6.60264">
        <ele>806.8</ele>
        <time>2021-08-13T08:18:39Z</time>
      </trkpt>
      <trkpt lat="47.03494" lon="6.60266">
        <ele>807.1</ele>
        <time>2021-08-13T08:18:40Z</time>
      </trkpt>
      <trkpt lat="47.03492" lon="6.60267">
        <ele>807.3</ele>
        <time>2021-08-13T08:18:41Z</time>
      </trkpt>
      <trkpt lat="47.03489" lon="6.60268">
        <ele>807.6</ele>
        <time>2021-08-13T08:18:42Z</time>
      </trkpt>
      <trkpt lat="47.03487" lon="6.60268">
        <ele>807.8</ele>
        <time>2021-08-13T08:18:44Z</time>
      </trkpt>
      <trkpt lat="47.03486" lon="6.60269">
        <ele>807.9</ele>
        <time>2021-08-13T08:18:46Z</time>
      </trkpt>
      <trkpt lat="47.03485" lon="6.6027">
        <ele>807.9</ele>
        <time>2021-08-13T08:18:47Z</time>
      </trkpt>
      <trkpt lat="47.03483" lon="6.6027">
        <ele>808</ele>
        <time>2021-08-13T08:18:48Z</time>
      </trkpt>
      <trkpt lat="47.03482" lon="6.60271">
        <ele>808.1</ele>
        <time>2021-08-13T08:18:50Z</time>
      </trkpt>
      <trkpt lat="47.03489" lon="6.6027">
        <ele>808.6</ele>
        <time>2021-08-13T08:24:45Z</time>
      </trkpt>
      <trkpt lat="47.03485" lon="6.60273">
        <ele>808.8</ele>
        <time>2021-08-13T08:24:47Z</time>
      </trkpt>
      <trkpt lat="47.03482" lon="6.60275">
        <ele>809.1</ele>
        <time>2021-08-13T08:24:48Z</time>
      </trkpt>
      <trkpt lat="47.03481" lon="6.60276">
        <ele>809.2</ele>
        <time>2021-08-13T08:24:49Z</time>
      </trkpt>
      <trkpt lat="47.03479" lon="6.6028">
        <ele>809.4</ele>
        <time>2021-08-13T08:24:50Z</time>
      </trkpt>
      <trkpt lat="47.03478" lon="6.60281">
        <ele>809.5</ele>
        <time>2021-08-13T08:24:51Z</time>
      </trkpt>
      <trkpt lat="47.03477" lon="6.60281">
        <ele>809.6</ele>
        <time>2021-08-13T08:24:52Z</time>
      </trkpt>
      <trkpt lat="47.03475" lon="6.60281">
        <ele>809.8</ele>
        <time>2021-08-13T08:24:53Z</time>
      </trkpt>
      <trkpt lat="47.03474" lon="6.60281">
        <ele>809.9</ele>
        <time>2021-08-13T08:24:54Z</time>
      </trkpt>
      <trkpt lat="47.03473" lon="6.6028">
        <ele>810</ele>
        <time>2021-08-13T08:24:56Z</time>
      </trkpt>
      <trkpt lat="47.03472" lon="6.6028">
        <ele>810</ele>
        <time>2021-08-13T08:24:57Z</time>
      </trkpt>
      <trkpt lat="47.03471" lon="6.60281">
        <ele>810.1</ele>
        <time>2021-08-13T08:24:58Z</time>
      </trkpt>
      <trkpt lat="47.0347" lon="6.60282">
        <ele>810.2</ele>
        <time>2021-08-13T08:24:59Z</time>
      </trkpt>
      <trkpt lat="47.03469" lon="6.60283">
        <ele>810.4</ele>
        <time>2021-08-13T08:25:00Z</time>
      </trkpt>
      <trkpt lat="47.03468" lon="6.60285">
        <ele>810.5</ele>
        <time>2021-08-13T08:25:01Z</time>
      </trkpt>
      <trkpt lat="47.03467" lon="6.60286">
        <ele>810.6</ele>
        <time>2021-08-13T08:25:02Z</time>
      </trkpt>
      <trkpt lat="47.03467" lon="6.60285">
        <ele>810.6</ele>
        <time>2021-08-13T08:25:03Z</time>
      </trkpt>
      <trkpt lat="47.03467" lon="6.60283">
        <ele>810.7</ele>
        <time>2021-08-13T08:25:04Z</time>
      </trkpt>
      <trkpt lat="47.03466" lon="6.60282">
        <ele>810.8</ele>
        <time>2021-08-13T08:25:05Z</time>
      </trkpt>
      <trkpt lat="47.03465" lon="6.60282">
        <ele>810.9</ele>
        <time>2021-08-13T08:25:07Z</time>
      </trkpt>
      <trkpt lat="47.03464" lon="6.60281">
        <ele>811</ele>
        <time>2021-08-13T08:25:08Z</time>
      </trkpt>
      <trkpt lat="47.03463" lon="6.6028">
        <ele>811.2</ele>
        <time>2021-08-13T08:25:09Z</time>
      </trkpt>
      <trkpt lat="47.03463" lon="6.60278">
        <ele>811.3</ele>
        <time>2021-08-13T08:25:10Z</time>
      </trkpt>
      <trkpt lat="47.03462" lon="6.60277">
        <ele>811.3</ele>
        <time>2021-08-13T08:25:12Z</time>
      </trkpt>
      <trkpt lat="47.03462" lon="6.60276">
        <ele>811.4</ele>
        <time>2021-08-13T08:25:13Z</time>
      </trkpt>
      <trkpt lat="47.03462" lon="6.60275">
        <ele>811.4</ele>
        <time>2021-08-13T08:25:14Z</time>
      </trkpt>
      <trkpt lat="47.03462" lon="6.60275">
        <ele>811.4</ele>
        <time>2021-08-13T08:25:15Z</time>
      </trkpt>
      <trkpt lat="47.03461" lon="6.60275">
        <ele>811.5</ele>
        <time>2021-08-13T08:25:17Z</time>
      </trkpt>
      <trkpt lat="47.0346" lon="6.60276">
        <ele>811.6</ele>
        <time>2021-08-13T08:25:18Z</time>
      </trkpt>
      <trkpt lat="47.03451" lon="6.60282">
        <ele>812.5</ele>
        <time>2021-08-13T08:25:22Z</time>
      </trkpt>
      <trkpt lat="47.03443" lon="6.60287">
        <ele>813.2</ele>
        <time>2021-08-13T08:25:23Z</time>
      </trkpt>
      <trkpt lat="47.0344" lon="6.60289">
        <ele>813.5</ele>
        <time>2021-08-13T08:25:24Z</time>
      </trkpt>
      <trkpt lat="47.03436" lon="6.60294">
        <ele>814</ele>
        <time>2021-08-13T08:25:25Z</time>
      </trkpt>
      <trkpt lat="47.03433" lon="6.60297">
        <ele>814.3</ele>
        <time>2021-08-13T08:25:26Z</time>
      </trkpt>
      <trkpt lat="47.03431" lon="6.603">
        <ele>814.6</ele>
        <time>2021-08-13T08:25:28Z</time>
      </trkpt>
      <trkpt lat="47.03431" lon="6.603">
        <ele>814.6</ele>
        <time>2021-08-13T08:25:29Z</time>
      </trkpt>
      <trkpt lat="47.0343" lon="6.60301">
        <ele>814.7</ele>
        <time>2021-08-13T08:25:30Z</time>
      </trkpt>
      <trkpt lat="47.03429" lon="6.60303">
        <ele>814.9</ele>
        <time>2021-08-13T08:25:32Z</time>
      </trkpt>
      <trkpt lat="47.03428" lon="6.60305">
        <ele>815</ele>
        <time>2021-08-13T08:25:33Z</time>
      </trkpt>
      <trkpt lat="47.03427" lon="6.60304">
        <ele>815.1</ele>
        <time>2021-08-13T08:25:34Z</time>
      </trkpt>
      <trkpt lat="47.03426" lon="6.60303">
        <ele>815.2</ele>
        <time>2021-08-13T08:25:36Z</time>
      </trkpt>
      <trkpt lat="47.03426" lon="6.60302">
        <ele>815.3</ele>
        <time>2021-08-13T08:25:37Z</time>
      </trkpt>
      <trkpt lat="47.03425" lon="6.60302">
        <ele>815.3</ele>
        <time>2021-08-13T08:25:38Z</time>
      </trkpt>
      <trkpt lat="47.03424" lon="6.60302">
        <ele>815.4</ele>
        <time>2021-08-13T08:25:39Z</time>
      </trkpt>
      <trkpt lat="47.03424" lon="6.60302">
        <ele>815.5</ele>
        <time>2021-08-13T08:25:40Z</time>
      </trkpt>
      <trkpt lat="47.03423" lon="6.60303">
        <ele>815.6</ele>
        <time>2021-08-13T08:25:42Z</time>
      </trkpt>
      <trkpt lat="47.03422" lon="6.60303">
        <ele>815.6</ele>
        <time>2021-08-13T08:25:43Z</time>
      </trkpt>
      <trkpt lat="47.03422" lon="6.60303">
        <ele>815.7</ele>
        <time>2021-08-13T08:25:44Z</time>
      </trkpt>
      <trkpt lat="47.03421" lon="6.60303">
        <ele>815.7</ele>
        <time>2021-08-13T08:25:45Z</time>
      </trkpt>
      <trkpt lat="47.03416" lon="6.60309">
        <ele>816.4</ele>
        <time>2021-08-13T08:25:47Z</time>
      </trkpt>
      <trkpt lat="47.03411" lon="6.60315">
        <ele>816.9</ele>
        <time>2021-08-13T08:25:48Z</time>
      </trkpt>
      <trkpt lat="47.03406" lon="6.60321">
        <ele>817.5</ele>
        <time>2021-08-13T08:25:49Z</time>
      </trkpt>
      <trkpt lat="47.03401" lon="6.60326">
        <ele>818.1</ele>
        <time>2021-08-13T08:25:51Z</time>
      </trkpt>
      <trkpt lat="47.03397" lon="6.60332">
        <ele>818.7</ele>
        <time>2021-08-13T08:26:25Z</time>
      </trkpt>
      <trkpt lat="47.03392" lon="6.60337">
        <ele>819.3</ele>
        <time>2021-08-13T08:26:26Z</time>
      </trkpt>
      <trkpt lat="47.0339" lon="6.6034">
        <ele>819.6</ele>
        <time>2021-08-13T08:26:28Z</time>
      </trkpt>
      <trkpt lat="47.03388" lon="6.60341">
        <ele>819.7</ele>
        <time>2021-08-13T08:26:29Z</time>
      </trkpt>
      <trkpt lat="47.03387" lon="6.60342">
        <ele>819.9</ele>
        <time>2021-08-13T08:26:30Z</time>
      </trkpt>
      <trkpt lat="47.03384" lon="6.60342">
        <ele>820.2</ele>
        <time>2021-08-13T08:26:31Z</time>
      </trkpt>
      <trkpt lat="47.03384" lon="6.60342">
        <ele>820.2</ele>
        <time>2021-08-13T08:26:32Z</time>
      </trkpt>
      <trkpt lat="47.03383" lon="6.60342">
        <ele>820.3</ele>
        <time>2021-08-13T08:26:33Z</time>
      </trkpt>
      <trkpt lat="47.03383" lon="6.60343">
        <ele>820.3</ele>
        <time>2021-08-13T08:26:35Z</time>
      </trkpt>
      <trkpt lat="47.03383" lon="6.60343">
        <ele>820.3</ele>
        <time>2021-08-13T08:26:36Z</time>
      </trkpt>
      <trkpt lat="47.03382" lon="6.60343">
        <ele>820.4</ele>
        <time>2021-08-13T08:26:37Z</time>
      </trkpt>
      <trkpt lat="47.03382" lon="6.60343">
        <ele>820.4</ele>
        <time>2021-08-13T08:26:38Z</time>
      </trkpt>
      <trkpt lat="47.03382" lon="6.60343">
        <ele>820.5</ele>
        <time>2021-08-13T08:26:39Z</time>
      </trkpt>
      <trkpt lat="47.03381" lon="6.60344">
        <ele>820.6</ele>
        <time>2021-08-13T08:26:41Z</time>
      </trkpt>
      <trkpt lat="47.0338" lon="6.60345">
        <ele>820.7</ele>
        <time>2021-08-13T08:26:42Z</time>
      </trkpt>
      <trkpt lat="47.03374" lon="6.60353">
        <ele>821.9</ele>
        <time>2021-08-13T08:26:48Z</time>
      </trkpt>
      <trkpt lat="47.03372" lon="6.60357">
        <ele>822.4</ele>
        <time>2021-08-13T08:26:50Z</time>
      </trkpt>
      <trkpt lat="47.03371" lon="6.60359">
        <ele>822.7</ele>
        <time>2021-08-13T08:26:51Z</time>
      </trkpt>
      <trkpt lat="47.0337" lon="6.60359">
        <ele>822.8</ele>
        <time>2021-08-13T08:26:52Z</time>
      </trkpt>
      <trkpt lat="47.03369" lon="6.6036">
        <ele>823.1</ele>
        <time>2021-08-13T08:26:54Z</time>
      </trkpt>
      <trkpt lat="47.03368" lon="6.60361">
        <ele>823.3</ele>
        <time>2021-08-13T08:26:55Z</time>
      </trkpt>
      <trkpt lat="47.03367" lon="6.60361">
        <ele>823.4</ele>
        <time>2021-08-13T08:26:57Z</time>
      </trkpt>
      <trkpt lat="47.03366" lon="6.60362">
        <ele>823.6</ele>
        <time>2021-08-13T08:26:59Z</time>
      </trkpt>
      <trkpt lat="47.03365" lon="6.60363">
        <ele>823.7</ele>
        <time>2021-08-13T08:27:00Z</time>
      </trkpt>
      <trkpt lat="47.03364" lon="6.60364">
        <ele>823.9</ele>
        <time>2021-08-13T08:27:01Z</time>
      </trkpt>
      <trkpt lat="47.03362" lon="6.60366">
        <ele>824.4</ele>
        <time>2021-08-13T08:27:03Z</time>
      </trkpt>
      <trkpt lat="47.0336" lon="6.60367">
        <ele>824.7</ele>
        <time>2021-08-13T08:27:04Z</time>
      </trkpt>
      <trkpt lat="47.03356" lon="6.60369">
        <ele>825.3</ele>
        <time>2021-08-13T08:27:06Z</time>
      </trkpt>
      <trkpt lat="47.03355" lon="6.6037">
        <ele>825.6</ele>
        <time>2021-08-13T08:27:07Z</time>
      </trkpt>
      <trkpt lat="47.03352" lon="6.60371">
        <ele>825.9</ele>
        <time>2021-08-13T08:27:09Z</time>
      </trkpt>
      <trkpt lat="47.03351" lon="6.60372">
        <ele>826.1</ele>
        <time>2021-08-13T08:27:10Z</time>
      </trkpt>
      <trkpt lat="47.0335" lon="6.60372">
        <ele>826.2</ele>
        <time>2021-08-13T08:27:11Z</time>
      </trkpt>
      <trkpt lat="47.0335" lon="6.60373">
        <ele>826.3</ele>
        <time>2021-08-13T08:27:13Z</time>
      </trkpt>
      <trkpt lat="47.03349" lon="6.60373">
        <ele>826.4</ele>
        <time>2021-08-13T08:27:14Z</time>
      </trkpt>
      <trkpt lat="47.03347" lon="6.60375">
        <ele>826.7</ele>
        <time>2021-08-13T08:27:16Z</time>
      </trkpt>
      <trkpt lat="47.03345" lon="6.60377">
        <ele>826.9</ele>
        <time>2021-08-13T08:27:17Z</time>
      </trkpt>
      <trkpt lat="47.03344" lon="6.60378">
        <ele>827.1</ele>
        <time>2021-08-13T08:27:18Z</time>
      </trkpt>
      <trkpt lat="47.03345" lon="6.60379">
        <ele>827.2</ele>
        <time>2021-08-13T08:27:19Z</time>
      </trkpt>
      <trkpt lat="47.03344" lon="6.60382">
        <ele>827.4</ele>
        <time>2021-08-13T08:27:20Z</time>
      </trkpt>
      <trkpt lat="47.03342" lon="6.60383">
        <ele>827.6</ele>
        <time>2021-08-13T08:27:22Z</time>
      </trkpt>
      <trkpt lat="47.0334" lon="6.60384">
        <ele>828</ele>
        <time>2021-08-13T08:27:23Z</time>
      </trkpt>
      <trkpt lat="47.03339" lon="6.60385">
        <ele>828.1</ele>
        <time>2021-08-13T08:27:24Z</time>
      </trkpt>
      <trkpt lat="47.03337" lon="6.60384">
        <ele>828.3</ele>
        <time>2021-08-13T08:27:25Z</time>
      </trkpt>
      <trkpt lat="47.03335" lon="6.60383">
        <ele>828.5</ele>
        <time>2021-08-13T08:27:27Z</time>
      </trkpt>
      <trkpt lat="47.03334" lon="6.60382">
        <ele>828.7</ele>
        <time>2021-08-13T08:27:28Z</time>
      </trkpt>
      <trkpt lat="47.03334" lon="6.60381">
        <ele>828.8</ele>
        <time>2021-08-13T08:27:29Z</time>
      </trkpt>
      <trkpt lat="47.03331" lon="6.60381">
        <ele>829.2</ele>
        <time>2021-08-13T08:27:31Z</time>
      </trkpt>
      <trkpt lat="47.03329" lon="6.60381">
        <ele>829.4</ele>
        <time>2021-08-13T08:27:32Z</time>
      </trkpt>
      <trkpt lat="47.03327" lon="6.6038">
        <ele>829.6</ele>
        <time>2021-08-13T08:27:33Z</time>
      </trkpt>
      <trkpt lat="47.03325" lon="6.60381">
        <ele>829.9</ele>
        <time>2021-08-13T08:27:35Z</time>
      </trkpt>
      <trkpt lat="47.03324" lon="6.60381">
        <ele>830</ele>
        <time>2021-08-13T08:27:36Z</time>
      </trkpt>
      <trkpt lat="47.03324" lon="6.60379">
        <ele>830.2</ele>
        <time>2021-08-13T08:27:37Z</time>
      </trkpt>
      <trkpt lat="47.03322" lon="6.60376">
        <ele>830.5</ele>
        <time>2021-08-13T08:27:39Z</time>
      </trkpt>
      <trkpt lat="47.03321" lon="6.60375">
        <ele>830.6</ele>
        <time>2021-08-13T08:27:40Z</time>
      </trkpt>
      <trkpt lat="47.03321" lon="6.60375">
        <ele>830.7</ele>
        <time>2021-08-13T08:27:41Z</time>
      </trkpt>
      <trkpt lat="47.03319" lon="6.60373">
        <ele>831</ele>
        <time>2021-08-13T08:27:43Z</time>
      </trkpt>
      <trkpt lat="47.03319" lon="6.60371">
        <ele>831.1</ele>
        <time>2021-08-13T08:27:44Z</time>
      </trkpt>
      <trkpt lat="47.03317" lon="6.60369">
        <ele>831.3</ele>
        <time>2021-08-13T08:27:45Z</time>
      </trkpt>
      <trkpt lat="47.03315" lon="6.60365">
        <ele>831.7</ele>
        <time>2021-08-13T08:27:46Z</time>
      </trkpt>
      <trkpt lat="47.03315" lon="6.60363">
        <ele>831.9</ele>
        <time>2021-08-13T08:27:47Z</time>
      </trkpt>
      <trkpt lat="47.03313" lon="6.60363">
        <ele>832.1</ele>
        <time>2021-08-13T08:27:48Z</time>
      </trkpt>
      <trkpt lat="47.03311" lon="6.60362">
        <ele>832.3</ele>
        <time>2021-08-13T08:27:50Z</time>
      </trkpt>
      <trkpt lat="47.0331" lon="6.60361">
        <ele>832.4</ele>
        <time>2021-08-13T08:27:51Z</time>
      </trkpt>
      <trkpt lat="47.03309" lon="6.6036">
        <ele>832.5</ele>
        <time>2021-08-13T08:27:52Z</time>
      </trkpt>
      <trkpt lat="47.03309" lon="6.6036">
        <ele>832.5</ele>
        <time>2021-08-13T08:27:53Z</time>
      </trkpt>
      <trkpt lat="47.03309" lon="6.60359">
        <ele>832.6</ele>
        <time>2021-08-13T08:27:54Z</time>
      </trkpt>
      <trkpt lat="47.03309" lon="6.60359">
        <ele>832.6</ele>
        <time>2021-08-13T08:27:56Z</time>
      </trkpt>
      <trkpt lat="47.03307" lon="6.60356">
        <ele>832.9</ele>
        <time>2021-08-13T08:27:57Z</time>
      </trkpt>
      <trkpt lat="47.03306" lon="6.60355">
        <ele>833</ele>
        <time>2021-08-13T08:27:59Z</time>
      </trkpt>
      <trkpt lat="47.03306" lon="6.60355">
        <ele>833</ele>
        <time>2021-08-13T08:28:00Z</time>
      </trkpt>
      <trkpt lat="47.03305" lon="6.60354">
        <ele>833.1</ele>
        <time>2021-08-13T08:28:01Z</time>
      </trkpt>
      <trkpt lat="47.03304" lon="6.60353">
        <ele>833.3</ele>
        <time>2021-08-13T08:28:03Z</time>
      </trkpt>
      <trkpt lat="47.03304" lon="6.60351">
        <ele>833.4</ele>
        <time>2021-08-13T08:28:05Z</time>
      </trkpt>
      <trkpt lat="47.03303" lon="6.6035">
        <ele>833.5</ele>
        <time>2021-08-13T08:28:06Z</time>
      </trkpt>
      <trkpt lat="47.03302" lon="6.60348">
        <ele>833.6</ele>
        <time>2021-08-13T08:28:08Z</time>
      </trkpt>
      <trkpt lat="47.03299" lon="6.60319">
        <ele>835.4</ele>
        <time>2021-08-13T08:28:27Z</time>
      </trkpt>
      <trkpt lat="47.03301" lon="6.60314">
        <ele>835.7</ele>
        <time>2021-08-13T08:28:28Z</time>
      </trkpt>
      <trkpt lat="47.03301" lon="6.60313">
        <ele>835.7</ele>
        <time>2021-08-13T08:28:30Z</time>
      </trkpt>
      <trkpt lat="47.033" lon="6.60312">
        <ele>835.8</ele>
        <time>2021-08-13T08:28:31Z</time>
      </trkpt>
      <trkpt lat="47.033" lon="6.60312">
        <ele>835.9</ele>
        <time>2021-08-13T08:28:32Z</time>
      </trkpt>
      <trkpt lat="47.03299" lon="6.60311">
        <ele>835.9</ele>
        <time>2021-08-13T08:28:33Z</time>
      </trkpt>
      <trkpt lat="47.03299" lon="6.6031">
        <ele>836</ele>
        <time>2021-08-13T08:28:34Z</time>
      </trkpt>
      <trkpt lat="47.03299" lon="6.60309">
        <ele>836</ele>
        <time>2021-08-13T08:28:35Z</time>
      </trkpt>
      <trkpt lat="47.03299" lon="6.60309">
        <ele>836</ele>
        <time>2021-08-13T08:28:36Z</time>
      </trkpt>
      <trkpt lat="47.03298" lon="6.60308">
        <ele>836.1</ele>
        <time>2021-08-13T08:28:38Z</time>
      </trkpt>
      <trkpt lat="47.03286" lon="6.60278">
        <ele>838.1</ele>
        <time>2021-08-13T08:28:58Z</time>
      </trkpt>
      <trkpt lat="47.03285" lon="6.60275">
        <ele>838.3</ele>
        <time>2021-08-13T08:29:00Z</time>
      </trkpt>
      <trkpt lat="47.03284" lon="6.60273">
        <ele>838.4</ele>
        <time>2021-08-13T08:29:01Z</time>
      </trkpt>
      <trkpt lat="47.03283" lon="6.60272">
        <ele>838.6</ele>
        <time>2021-08-13T08:29:02Z</time>
      </trkpt>
      <trkpt lat="47.03282" lon="6.6027">
        <ele>838.8</ele>
        <time>2021-08-13T08:29:03Z</time>
      </trkpt>
      <trkpt lat="47.0328" lon="6.60266">
        <ele>839</ele>
        <time>2021-08-13T08:29:04Z</time>
      </trkpt>
      <trkpt lat="47.0328" lon="6.60265">
        <ele>839.2</ele>
        <time>2021-08-13T08:29:06Z</time>
      </trkpt>
      <trkpt lat="47.0328" lon="6.60263">
        <ele>839.3</ele>
        <time>2021-08-13T08:29:07Z</time>
      </trkpt>
      <trkpt lat="47.03279" lon="6.60262">
        <ele>839.4</ele>
        <time>2021-08-13T08:29:08Z</time>
      </trkpt>
      <trkpt lat="47.03279" lon="6.6026">
        <ele>839.5</ele>
        <time>2021-08-13T08:29:09Z</time>
      </trkpt>
      <trkpt lat="47.03278" lon="6.60258">
        <ele>839.7</ele>
        <time>2021-08-13T08:29:10Z</time>
      </trkpt>
      <trkpt lat="47.03278" lon="6.60253">
        <ele>840</ele>
        <time>2021-08-13T08:29:12Z</time>
      </trkpt>
      <trkpt lat="47.03278" lon="6.60252">
        <ele>840.1</ele>
        <time>2021-08-13T08:29:13Z</time>
      </trkpt>
      <trkpt lat="47.03278" lon="6.60252">
        <ele>840.1</ele>
        <time>2021-08-13T08:29:15Z</time>
      </trkpt>
      <trkpt lat="47.03278" lon="6.60251">
        <ele>840.2</ele>
        <time>2021-08-13T08:29:16Z</time>
      </trkpt>
      <trkpt lat="47.03278" lon="6.6025">
        <ele>840.2</ele>
        <time>2021-08-13T08:29:17Z</time>
      </trkpt>
      <trkpt lat="47.03277" lon="6.60248">
        <ele>840.4</ele>
        <time>2021-08-13T08:29:18Z</time>
      </trkpt>
      <trkpt lat="47.03277" lon="6.60246">
        <ele>840.6</ele>
        <time>2021-08-13T08:29:19Z</time>
      </trkpt>
      <trkpt lat="47.03276" lon="6.60243">
        <ele>840.8</ele>
        <time>2021-08-13T08:29:20Z</time>
      </trkpt>
      <trkpt lat="47.03272" lon="6.60241">
        <ele>841.2</ele>
        <time>2021-08-13T08:29:22Z</time>
      </trkpt>
      <trkpt lat="47.03271" lon="6.6024">
        <ele>841.3</ele>
        <time>2021-08-13T08:29:23Z</time>
      </trkpt>
      <trkpt lat="47.03269" lon="6.6024">
        <ele>841.5</ele>
        <time>2021-08-13T08:29:24Z</time>
      </trkpt>
      <trkpt lat="47.03267" lon="6.6024">
        <ele>841.7</ele>
        <time>2021-08-13T08:29:26Z</time>
      </trkpt>
      <trkpt lat="47.03266" lon="6.6024">
        <ele>841.8</ele>
        <time>2021-08-13T08:29:27Z</time>
      </trkpt>
      <trkpt lat="47.03266" lon="6.60239">
        <ele>841.8</ele>
        <time>2021-08-13T08:29:28Z</time>
      </trkpt>
      <trkpt lat="47.03264" lon="6.60239">
        <ele>842</ele>
        <time>2021-08-13T08:29:30Z</time>
      </trkpt>
      <trkpt lat="47.03263" lon="6.60237">
        <ele>842.2</ele>
        <time>2021-08-13T08:29:31Z</time>
      </trkpt>
      <trkpt lat="47.03261" lon="6.60237">
        <ele>842.3</ele>
        <time>2021-08-13T08:29:32Z</time>
      </trkpt>
      <trkpt lat="47.0326" lon="6.60237">
        <ele>842.5</ele>
        <time>2021-08-13T08:29:33Z</time>
      </trkpt>
      <trkpt lat="47.03259" lon="6.60237">
        <ele>842.6</ele>
        <time>2021-08-13T08:29:35Z</time>
      </trkpt>
      <trkpt lat="47.03258" lon="6.60238">
        <ele>842.7</ele>
        <time>2021-08-13T08:29:37Z</time>
      </trkpt>
      <trkpt lat="47.03257" lon="6.60238">
        <ele>842.8</ele>
        <time>2021-08-13T08:29:38Z</time>
      </trkpt>
      <trkpt lat="47.03256" lon="6.60238">
        <ele>842.9</ele>
        <time>2021-08-13T08:29:40Z</time>
      </trkpt>
      <trkpt lat="47.03255" lon="6.60239">
        <ele>843</ele>
        <time>2021-08-13T08:29:41Z</time>
      </trkpt>
      <trkpt lat="47.03254" lon="6.60239">
        <ele>843.1</ele>
        <time>2021-08-13T08:29:42Z</time>
      </trkpt>
      <trkpt lat="47.03253" lon="6.60239">
        <ele>843.2</ele>
        <time>2021-08-13T08:29:52Z</time>
      </trkpt>
      <trkpt lat="47.03253" lon="6.6024">
        <ele>843.3</ele>
        <time>2021-08-13T08:29:53Z</time>
      </trkpt>
      <trkpt lat="47.03252" lon="6.6024">
        <ele>844</ele>
        <time>2021-08-13T08:29:54Z</time>
      </trkpt>
      <trkpt lat="47.03248" lon="6.60242">
        <ele>844.6</ele>
        <time>2021-08-13T08:29:55Z</time>
      </trkpt>
      <trkpt lat="47.03243" lon="6.60243">
        <ele>845.4</ele>
        <time>2021-08-13T08:29:57Z</time>
      </trkpt>
      <trkpt lat="47.03238" lon="6.60243">
        <ele>847.1</ele>
        <time>2021-08-13T08:29:58Z</time>
      </trkpt>
      <trkpt lat="47.03235" lon="6.60242">
        <ele>847.8</ele>
        <time>2021-08-13T08:29:59Z</time>
      </trkpt>
      <trkpt lat="47.0323" lon="6.60243">
        <ele>849.1</ele>
        <time>2021-08-13T08:30:01Z</time>
      </trkpt>
      <trkpt lat="47.03227" lon="6.60246">
        <ele>850.2</ele>
        <time>2021-08-13T08:30:02Z</time>
      </trkpt>
      <trkpt lat="47.03225" lon="6.60248">
        <ele>851</ele>
        <time>2021-08-13T08:30:03Z</time>
      </trkpt>
      <trkpt lat="47.03222" lon="6.60251">
        <ele>852.2</ele>
        <time>2021-08-13T08:30:05Z</time>
      </trkpt>
      <trkpt lat="47.03221" lon="6.60255">
        <ele>852.6</ele>
        <time>2021-08-13T08:30:06Z</time>
      </trkpt>
      <trkpt lat="47.0322" lon="6.60256">
        <ele>852.6</ele>
        <time>2021-08-13T08:30:07Z</time>
      </trkpt>
      <trkpt lat="47.03219" lon="6.60259">
        <ele>853.8</ele>
        <time>2021-08-13T08:30:08Z</time>
      </trkpt>
      <trkpt lat="47.03218" lon="6.60262">
        <ele>854.2</ele>
        <time>2021-08-13T08:30:10Z</time>
      </trkpt>
      <trkpt lat="47.03218" lon="6.60267">
        <ele>854.6</ele>
        <time>2021-08-13T08:30:11Z</time>
      </trkpt>
      <trkpt lat="47.03218" lon="6.60268">
        <ele>854.6</ele>
        <time>2021-08-13T08:30:12Z</time>
      </trkpt>
      <trkpt lat="47.03217" lon="6.6027">
        <ele>854.6</ele>
        <time>2021-08-13T08:30:13Z</time>
      </trkpt>
      <trkpt lat="47.03216" lon="6.60272">
        <ele>855.7</ele>
        <time>2021-08-13T08:30:14Z</time>
      </trkpt>
      <trkpt lat="47.03216" lon="6.60273">
        <ele>855.8</ele>
        <time>2021-08-13T08:30:16Z</time>
      </trkpt>
      <trkpt lat="47.03216" lon="6.60273">
        <ele>855.8</ele>
        <time>2021-08-13T08:30:17Z</time>
      </trkpt>
      <trkpt lat="47.03216" lon="6.60273">
        <ele>855.8</ele>
        <time>2021-08-13T08:30:18Z</time>
      </trkpt>
      <trkpt lat="47.03215" lon="6.60273">
        <ele>855.8</ele>
        <time>2021-08-13T08:30:19Z</time>
      </trkpt>
      <trkpt lat="47.03215" lon="6.60273">
        <ele>855.9</ele>
        <time>2021-08-13T08:30:20Z</time>
      </trkpt>
      <trkpt lat="47.03215" lon="6.60273">
        <ele>855.9</ele>
        <time>2021-08-13T08:30:22Z</time>
      </trkpt>
      <trkpt lat="47.03215" lon="6.60273">
        <ele>855.9</ele>
        <time>2021-08-13T08:30:23Z</time>
      </trkpt>
      <trkpt lat="47.03214" lon="6.60274">
        <ele>855.9</ele>
        <time>2021-08-13T08:30:24Z</time>
      </trkpt>
      <trkpt lat="47.03206" lon="6.60263">
        <ele>857.1</ele>
        <time>2021-08-13T08:30:46Z</time>
      </trkpt>
      <trkpt lat="47.03205" lon="6.6026">
        <ele>857.4</ele>
        <time>2021-08-13T08:30:47Z</time>
      </trkpt>
      <trkpt lat="47.03205" lon="6.60259">
        <ele>857.4</ele>
        <time>2021-08-13T08:30:48Z</time>
      </trkpt>
      <trkpt lat="47.03205" lon="6.60258">
        <ele>857.5</ele>
        <time>2021-08-13T08:30:50Z</time>
      </trkpt>
      <trkpt lat="47.03205" lon="6.60258">
        <ele>857.5</ele>
        <time>2021-08-13T08:30:51Z</time>
      </trkpt>
      <trkpt lat="47.03205" lon="6.60257">
        <ele>857.1</ele>
        <time>2021-08-13T08:30:53Z</time>
      </trkpt>
      <trkpt lat="47.03204" lon="6.60254">
        <ele>857.1</ele>
        <time>2021-08-13T08:30:55Z</time>
      </trkpt>
      <trkpt lat="47.03204" lon="6.60252">
        <ele>856.7</ele>
        <time>2021-08-13T08:30:56Z</time>
      </trkpt>
      <trkpt lat="47.03204" lon="6.60251">
        <ele>856.8</ele>
        <time>2021-08-13T08:30:57Z</time>
      </trkpt>
      <trkpt lat="47.03112" lon="6.6024">
        <ele>876.1</ele>
        <time>2021-08-13T08:34:16Z</time>
      </trkpt>
      <trkpt lat="47.0311" lon="6.60238">
        <ele>876.6</ele>
        <time>2021-08-13T08:34:17Z</time>
      </trkpt>
      <trkpt lat="47.03109" lon="6.60237">
        <ele>877.2</ele>
        <time>2021-08-13T08:34:19Z</time>
      </trkpt>
      <trkpt lat="47.03107" lon="6.60236">
        <ele>877.3</ele>
        <time>2021-08-13T08:34:20Z</time>
      </trkpt>
      <trkpt lat="47.03106" lon="6.60235">
        <ele>877.2</ele>
        <time>2021-08-13T08:34:22Z</time>
      </trkpt>
      <trkpt lat="47.03106" lon="6.60235">
        <ele>877.8</ele>
        <time>2021-08-13T08:34:23Z</time>
      </trkpt>
      <trkpt lat="47.03105" lon="6.60234">
        <ele>877.8</ele>
        <time>2021-08-13T08:34:24Z</time>
      </trkpt>
      <trkpt lat="47.03103" lon="6.60233">
        <ele>877.8</ele>
        <time>2021-08-13T08:34:26Z</time>
      </trkpt>
      <trkpt lat="47.03102" lon="6.60233">
        <ele>878.4</ele>
        <time>2021-08-13T08:34:27Z</time>
      </trkpt>
      <trkpt lat="47.03098" lon="6.60232">
        <ele>878.9</ele>
        <time>2021-08-13T08:34:30Z</time>
      </trkpt>
      <trkpt lat="47.03095" lon="6.60232">
        <ele>879.5</ele>
        <time>2021-08-13T08:34:31Z</time>
      </trkpt>
      <trkpt lat="47.03094" lon="6.60232">
        <ele>879.5</ele>
        <time>2021-08-13T08:34:32Z</time>
      </trkpt>
      <trkpt lat="47.03094" lon="6.60232">
        <ele>880</ele>
        <time>2021-08-13T08:34:34Z</time>
      </trkpt>
      <trkpt lat="47.03094" lon="6.60232">
        <ele>880.1</ele>
        <time>2021-08-13T08:34:35Z</time>
      </trkpt>
      <trkpt lat="47.03093" lon="6.60233">
        <ele>880.1</ele>
        <time>2021-08-13T08:34:37Z</time>
      </trkpt>
      <trkpt lat="47.03093" lon="6.60233">
        <ele>880.1</ele>
        <time>2021-08-13T08:34:38Z</time>
      </trkpt>
      <trkpt lat="47.03093" lon="6.60233">
        <ele>880.1</ele>
        <time>2021-08-13T08:34:39Z</time>
      </trkpt>
      <trkpt lat="47.03093" lon="6.60233">
        <ele>880.2</ele>
        <time>2021-08-13T08:34:41Z</time>
      </trkpt>
      <trkpt lat="47.03093" lon="6.60233">
        <ele>880.2</ele>
        <time>2021-08-13T08:34:42Z</time>
      </trkpt>
      <trkpt lat="47.03091" lon="6.60279">
        <ele>884.5</ele>
        <time>2021-08-13T08:36:08Z</time>
      </trkpt>
      <trkpt lat="47.03096" lon="6.6028">
        <ele>884.5</ele>
        <time>2021-08-13T08:36:10Z</time>
      </trkpt>
      <trkpt lat="47.03102" lon="6.60279">
        <ele>884.5</ele>
        <time>2021-08-13T08:36:12Z</time>
      </trkpt>
      <trkpt lat="47.03104" lon="6.60279">
        <ele>884.5</ele>
        <time>2021-08-13T08:36:13Z</time>
      </trkpt>
      <trkpt lat="47.03105" lon="6.60279">
        <ele>884.5</ele>
        <time>2021-08-13T08:36:15Z</time>
      </trkpt>
      <trkpt lat="47.03106" lon="6.60279">
        <ele>884.5</ele>
        <time>2021-08-13T08:36:16Z</time>
      </trkpt>
      <trkpt lat="47.03106" lon="6.6028">
        <ele>884.5</ele>
        <time>2021-08-13T08:36:18Z</time>
      </trkpt>
      <trkpt lat="47.03108" lon="6.60281">
        <ele>884.5</ele>
        <time>2021-08-13T08:36:19Z</time>
      </trkpt>
      <trkpt lat="47.03111" lon="6.60282">
        <ele>884.5</ele>
        <time>2021-08-13T08:36:21Z</time>
      </trkpt>
      <trkpt lat="47.03113" lon="6.60285">
        <ele>884.5</ele>
        <time>2021-08-13T08:36:22Z</time>
      </trkpt>
      <trkpt lat="47.03117" lon="6.6029">
        <ele>884.5</ele>
        <time>2021-08-13T08:36:24Z</time>
      </trkpt>
      <trkpt lat="47.03119" lon="6.60296">
        <ele>884.5</ele>
        <time>2021-08-13T08:36:25Z</time>
      </trkpt>
      <trkpt lat="47.03122" lon="6.60304">
        <ele>884.6</ele>
        <time>2021-08-13T08:36:27Z</time>
      </trkpt>
      <trkpt lat="47.03123" lon="6.6031">
        <ele>884.6</ele>
        <time>2021-08-13T08:36:28Z</time>
      </trkpt>
      <trkpt lat="47.03125" lon="6.60317">
        <ele>884.6</ele>
        <time>2021-08-13T08:36:29Z</time>
      </trkpt>
      <trkpt lat="47.03126" lon="6.60323">
        <ele>884.6</ele>
        <time>2021-08-13T08:36:30Z</time>
      </trkpt>
      <trkpt lat="47.0313" lon="6.60331">
        <ele>884.6</ele>
        <time>2021-08-13T08:36:32Z</time>
      </trkpt>
      <trkpt lat="47.03134" lon="6.60337">
        <ele>884.6</ele>
        <time>2021-08-13T08:36:33Z</time>
      </trkpt>
      <trkpt lat="47.03136" lon="6.60341">
        <ele>884.6</ele>
        <time>2021-08-13T08:36:34Z</time>
      </trkpt>
      <trkpt lat="47.03138" lon="6.60345">
        <ele>884.6</ele>
        <time>2021-08-13T08:36:35Z</time>
      </trkpt>
      <trkpt lat="47.03139" lon="6.60347">
        <ele>884.6</ele>
        <time>2021-08-13T08:36:36Z</time>
      </trkpt>
      <trkpt lat="47.03144" lon="6.6035">
        <ele>884.6</ele>
        <time>2021-08-13T08:36:38Z</time>
      </trkpt>
      <trkpt lat="47.03146" lon="6.60351">
        <ele>884.6</ele>
        <time>2021-08-13T08:36:39Z</time>
      </trkpt>
      <trkpt lat="47.03149" lon="6.60355">
        <ele>884.6</ele>
        <time>2021-08-13T08:36:41Z</time>
      </trkpt>
      <trkpt lat="47.03151" lon="6.60357">
        <ele>884.6</ele>
        <time>2021-08-13T08:36:42Z</time>
      </trkpt>
      <trkpt lat="47.03153" lon="6.60363">
        <ele>884.6</ele>
        <time>2021-08-13T08:36:44Z</time>
      </trkpt>
      <trkpt lat="47.03154" lon="6.60368">
        <ele>884.6</ele>
        <time>2021-08-13T08:36:45Z</time>
      </trkpt>
      <trkpt lat="47.03153" lon="6.6037">
        <ele>884.6</ele>
        <time>2021-08-13T08:36:46Z</time>
      </trkpt>
      <trkpt lat="47.03153" lon="6.60376">
        <ele>884.6</ele>
        <time>2021-08-13T08:36:47Z</time>
      </trkpt>
      <trkpt lat="47.03153" lon="6.60378">
        <ele>884.6</ele>
        <time>2021-08-13T08:36:48Z</time>
      </trkpt>
      <trkpt lat="47.03152" lon="6.6038">
        <ele>884.6</ele>
        <time>2021-08-13T08:36:50Z</time>
      </trkpt>
      <trkpt lat="47.03151" lon="6.60382">
        <ele>884.6</ele>
        <time>2021-08-13T08:36:51Z</time>
      </trkpt>
      <trkpt lat="47.03151" lon="6.60387">
        <ele>884.6</ele>
        <time>2021-08-13T08:36:53Z</time>
      </trkpt>
      <trkpt lat="47.03151" lon="6.60389">
        <ele>884.6</ele>
        <time>2021-08-13T08:36:54Z</time>
      </trkpt>
      <trkpt lat="47.03151" lon="6.60392">
        <ele>884.6</ele>
        <time>2021-08-13T08:36:55Z</time>
      </trkpt>
      <trkpt lat="47.03151" lon="6.60396">
        <ele>884.6</ele>
        <time>2021-08-13T08:36:57Z</time>
      </trkpt>
      <trkpt lat="47.03151" lon="6.60399">
        <ele>884.6</ele>
        <time>2021-08-13T08:36:58Z</time>
      </trkpt>
      <trkpt lat="47.03151" lon="6.60427">
        <ele>884.6</ele>
        <time>2021-08-13T08:37:06Z</time>
      </trkpt>
      <trkpt lat="47.03152" lon="6.60434">
        <ele>884.6</ele>
        <time>2021-08-13T08:37:07Z</time>
      </trkpt>
      <trkpt lat="47.03151" lon="6.60439">
        <ele>884.6</ele>
        <time>2021-08-13T08:37:08Z</time>
      </trkpt>
      <trkpt lat="47.03151" lon="6.60445">
        <ele>884.6</ele>
        <time>2021-08-13T08:37:10Z</time>
      </trkpt>
      <trkpt lat="47.03149" lon="6.60452">
        <ele>884.6</ele>
        <time>2021-08-13T08:37:11Z</time>
      </trkpt>
      <trkpt lat="47.03149" lon="6.60454">
        <ele>884.6</ele>
        <time>2021-08-13T08:37:13Z</time>
      </trkpt>
      <trkpt lat="47.03148" lon="6.60456">
        <ele>884.6</ele>
        <time>2021-08-13T08:37:15Z</time>
      </trkpt>
      <trkpt lat="47.03148" lon="6.60458">
        <ele>884.6</ele>
        <time>2021-08-13T08:37:16Z</time>
      </trkpt>
      <trkpt lat="47.03147" lon="6.60462">
        <ele>884.6</ele>
        <time>2021-08-13T08:37:18Z</time>
      </trkpt>
      <trkpt lat="47.03144" lon="6.60493">
        <ele>884.6</ele>
        <time>2021-08-13T08:37:27Z</time>
      </trkpt>
      <trkpt lat="47.03144" lon="6.60501">
        <ele>884.6</ele>
        <time>2021-08-13T08:37:28Z</time>
      </trkpt>
      <trkpt lat="47.03147" lon="6.60513">
        <ele>884.6</ele>
        <time>2021-08-13T08:37:30Z</time>
      </trkpt>
      <trkpt lat="47.03148" lon="6.60522">
        <ele>884.6</ele>
        <time>2021-08-13T08:37:32Z</time>
      </trkpt>
      <trkpt lat="47.03149" lon="6.60526">
        <ele>884.7</ele>
        <time>2021-08-13T08:37:33Z</time>
      </trkpt>
      <trkpt lat="47.03151" lon="6.6053">
        <ele>884.7</ele>
        <time>2021-08-13T08:37:34Z</time>
      </trkpt>
      <trkpt lat="47.03152" lon="6.60533">
        <ele>884.7</ele>
        <time>2021-08-13T08:37:35Z</time>
      </trkpt>
      <trkpt lat="47.03152" lon="6.60535">
        <ele>884.7</ele>
        <time>2021-08-13T08:37:37Z</time>
      </trkpt>
      <trkpt lat="47.03152" lon="6.60538">
        <ele>884.7</ele>
        <time>2021-08-13T08:37:38Z</time>
      </trkpt>
      <trkpt lat="47.03152" lon="6.60538">
        <ele>884.7</ele>
        <time>2021-08-13T08:37:39Z</time>
      </trkpt>
      <trkpt lat="47.03155" lon="6.60541">
        <ele>884.7</ele>
        <time>2021-08-13T08:37:41Z</time>
      </trkpt>
      <trkpt lat="47.0316" lon="6.60547">
        <ele>884.7</ele>
        <time>2021-08-13T08:37:42Z</time>
      </trkpt>
      <trkpt lat="47.03167" lon="6.6055">
        <ele>884.7</ele>
        <time>2021-08-13T08:37:44Z</time>
      </trkpt>
      <trkpt lat="47.03172" lon="6.60552">
        <ele>884.8</ele>
        <time>2021-08-13T08:37:46Z</time>
      </trkpt>
      <trkpt lat="47.03175" lon="6.60553">
        <ele>884.8</ele>
        <time>2021-08-13T08:37:47Z</time>
      </trkpt>
      <trkpt lat="47.03177" lon="6.60555">
        <ele>884.8</ele>
        <time>2021-08-13T08:37:48Z</time>
      </trkpt>
      <trkpt lat="47.03178" lon="6.60555">
        <ele>883.6</ele>
        <time>2021-08-13T08:37:50Z</time>
      </trkpt>
      <trkpt lat="47.03178" lon="6.60557">
        <ele>882.4</ele>
        <time>2021-08-13T08:37:51Z</time>
      </trkpt>
      <trkpt lat="47.03179" lon="6.6056">
        <ele>881.4</ele>
        <time>2021-08-13T08:37:53Z</time>
      </trkpt>
      <trkpt lat="47.0318" lon="6.60562">
        <ele>881.1</ele>
        <time>2021-08-13T08:37:54Z</time>
      </trkpt>
      <trkpt lat="47.03181" lon="6.60564">
        <ele>880</ele>
        <time>2021-08-13T08:37:55Z</time>
      </trkpt>
      <trkpt lat="47.03175" lon="6.60576">
        <ele>883</ele>
        <time>2021-08-13T08:37:57Z</time>
      </trkpt>
      <trkpt lat="47.03168" lon="6.60584">
        <ele>885.6</ele>
        <time>2021-08-13T08:37:58Z</time>
      </trkpt>
      <trkpt lat="47.03161" lon="6.60592">
        <ele>889.8</ele>
        <time>2021-08-13T08:39:21Z</time>
      </trkpt>
      <trkpt lat="47.03154" lon="6.606">
        <ele>891.7</ele>
        <time>2021-08-13T08:39:22Z</time>
      </trkpt>
      <trkpt lat="47.03151" lon="6.60599">
        <ele>892</ele>
        <time>2021-08-13T08:39:23Z</time>
      </trkpt>
      <trkpt lat="47.03148" lon="6.60597">
        <ele>892.3</ele>
        <time>2021-08-13T08:39:25Z</time>
      </trkpt>
      <trkpt lat="47.03146" lon="6.60597">
        <ele>892.4</ele>
        <time>2021-08-13T08:39:26Z</time>
      </trkpt>
      <trkpt lat="47.03145" lon="6.60597">
        <ele>892.5</ele>
        <time>2021-08-13T08:39:27Z</time>
      </trkpt>
      <trkpt lat="47.03143" lon="6.60596">
        <ele>892.7</ele>
        <time>2021-08-13T08:39:29Z</time>
      </trkpt>
      <trkpt lat="47.03143" lon="6.60595">
        <ele>892.7</ele>
        <time>2021-08-13T08:39:30Z</time>
      </trkpt>
      <trkpt lat="47.03142" lon="6.60595">
        <ele>892.8</ele>
        <time>2021-08-13T08:39:32Z</time>
      </trkpt>
      <trkpt lat="47.03142" lon="6.60595">
        <ele>892.8</ele>
        <time>2021-08-13T08:39:33Z</time>
      </trkpt>
      <trkpt lat="47.03042" lon="6.60393">
        <ele>907.1</ele>
        <time>2021-08-13T08:42:31Z</time>
      </trkpt>
      <trkpt lat="47.03038" lon="6.60393">
        <ele>907.4</ele>
        <time>2021-08-13T08:42:32Z</time>
      </trkpt>
      <trkpt lat="47.03033" lon="6.60391">
        <ele>907.9</ele>
        <time>2021-08-13T08:42:33Z</time>
      </trkpt>
      <trkpt lat="47.03032" lon="6.6039">
        <ele>908</ele>
        <time>2021-08-13T08:42:35Z</time>
      </trkpt>
      <trkpt lat="47.03032" lon="6.60389">
        <ele>908.1</ele>
        <time>2021-08-13T08:42:36Z</time>
      </trkpt>
      <trkpt lat="47.03031" lon="6.60388">
        <ele>908.2</ele>
        <time>2021-08-13T08:42:37Z</time>
      </trkpt>
      <trkpt lat="47.03031" lon="6.60387">
        <ele>908.2</ele>
        <time>2021-08-13T08:42:38Z</time>
      </trkpt>
      <trkpt lat="47.0303" lon="6.60386">
        <ele>908.3</ele>
        <time>2021-08-13T08:42:40Z</time>
      </trkpt>
      <trkpt lat="47.0303" lon="6.60386">
        <ele>908.3</ele>
        <time>2021-08-13T08:42:41Z</time>
      </trkpt>
      <trkpt lat="47.03029" lon="6.60386">
        <ele>908.4</ele>
        <time>2021-08-13T08:42:43Z</time>
      </trkpt>
      <trkpt lat="47.03049" lon="6.60369">
        <ele>910.3</ele>
        <time>2021-08-13T08:43:14Z</time>
      </trkpt>
      <trkpt lat="47.03045" lon="6.60367">
        <ele>910.6</ele>
        <time>2021-08-13T08:43:16Z</time>
      </trkpt>
      <trkpt lat="47.03043" lon="6.60367">
        <ele>910.8</ele>
        <time>2021-08-13T08:43:17Z</time>
      </trkpt>
      <trkpt lat="47.03042" lon="6.60367">
        <ele>910.9</ele>
        <time>2021-08-13T08:43:19Z</time>
      </trkpt>
      <trkpt lat="47.03041" lon="6.60368">
        <ele>911</ele>
        <time>2021-08-13T08:43:20Z</time>
      </trkpt>
      <trkpt lat="47.03041" lon="6.60369">
        <ele>911</ele>
        <time>2021-08-13T08:43:21Z</time>
      </trkpt>
      <trkpt lat="47.03041" lon="6.6037">
        <ele>911.1</ele>
        <time>2021-08-13T08:43:23Z</time>
      </trkpt>
      <trkpt lat="47.03042" lon="6.60371">
        <ele>911.1</ele>
        <time>2021-08-13T08:43:24Z</time>
      </trkpt>
      <trkpt lat="47.03043" lon="6.60371">
        <ele>911.3</ele>
        <time>2021-08-13T08:43:26Z</time>
      </trkpt>
      <trkpt lat="47.03044" lon="6.60371">
        <ele>911.3</ele>
        <time>2021-08-13T08:43:27Z</time>
      </trkpt>
      <trkpt lat="47.03044" lon="6.60371">
        <ele>911.3</ele>
        <time>2021-08-13T08:43:28Z</time>
      </trkpt>
      <trkpt lat="47.03045" lon="6.60369">
        <ele>911.5</ele>
        <time>2021-08-13T08:43:29Z</time>
      </trkpt>
      <trkpt lat="47.03047" lon="6.60368">
        <ele>911.6</ele>
        <time>2021-08-13T08:43:31Z</time>
      </trkpt>
      <trkpt lat="47.03048" lon="6.60367">
        <ele>911.7</ele>
        <time>2021-08-13T08:43:32Z</time>
      </trkpt>
      <trkpt lat="47.03048" lon="6.60367">
        <ele>911.7</ele>
        <time>2021-08-13T08:43:33Z</time>
      </trkpt>
      <trkpt lat="47.0305" lon="6.60366">
        <ele>911.9</ele>
        <time>2021-08-13T08:43:36Z</time>
      </trkpt>
      <trkpt lat="47.03051" lon="6.60366">
        <ele>912</ele>
        <time>2021-08-13T08:43:37Z</time>
      </trkpt>
      <trkpt lat="47.03051" lon="6.60365">
        <ele>912</ele>
        <time>2021-08-13T08:43:38Z</time>
      </trkpt>
      <trkpt lat="47.03051" lon="6.60363">
        <ele>912.1</ele>
        <time>2021-08-13T08:43:40Z</time>
      </trkpt>
      <trkpt lat="47.03051" lon="6.60358">
        <ele>912.4</ele>
        <time>2021-08-13T08:43:42Z</time>
      </trkpt>
      <trkpt lat="47.0305" lon="6.60353">
        <ele>912.7</ele>
        <time>2021-08-13T08:43:43Z</time>
      </trkpt>
      <trkpt lat="47.03049" lon="6.60351">
        <ele>912.8</ele>
        <time>2021-08-13T08:43:44Z</time>
      </trkpt>
      <trkpt lat="47.03048" lon="6.60348">
        <ele>913</ele>
        <time>2021-08-13T08:43:45Z</time>
      </trkpt>
      <trkpt lat="47.03043" lon="6.60338">
        <ele>913.7</ele>
        <time>2021-08-13T08:43:47Z</time>
      </trkpt>
      <trkpt lat="47.03037" lon="6.60326">
        <ele>914.5</ele>
        <time>2021-08-13T08:43:48Z</time>
      </trkpt>
      <trkpt lat="47.0303" lon="6.60316">
        <ele>915.4</ele>
        <time>2021-08-13T08:43:49Z</time>
      </trkpt>
      <trkpt lat="47.03027" lon="6.60311">
        <ele>915.8</ele>
        <time>2021-08-13T08:43:51Z</time>
      </trkpt>
      <trkpt lat="47.03023" lon="6.60308">
        <ele>916.2</ele>
        <time>2021-08-13T08:43:52Z</time>
      </trkpt>
      <trkpt lat="47.0302" lon="6.60305">
        <ele>916.5</ele>
        <time>2021-08-13T08:43:53Z</time>
      </trkpt>
      <trkpt lat="47.03011" lon="6.60299">
        <ele>917.4</ele>
        <time>2021-08-13T08:43:55Z</time>
      </trkpt>
      <trkpt lat="47.03008" lon="6.60296">
        <ele>917.7</ele>
        <time>2021-08-13T08:43:56Z</time>
      </trkpt>
      <trkpt lat="47.03005" lon="6.60294">
        <ele>918</ele>
        <time>2021-08-13T08:43:57Z</time>
      </trkpt>
      <trkpt lat="47.02999" lon="6.60291">
        <ele>918.5</ele>
        <time>2021-08-13T08:43:59Z</time>
      </trkpt>
      <trkpt lat="47.02995" lon="6.60289">
        <ele>918.9</ele>
        <time>2021-08-13T08:44:00Z</time>
      </trkpt>
      <trkpt lat="47.02993" lon="6.60287">
        <ele>919.1</ele>
        <time>2021-08-13T08:44:01Z</time>
      </trkpt>
      <trkpt lat="47.0299" lon="6.60284">
        <ele>919.4</ele>
        <time>2021-08-13T08:44:03Z</time>
      </trkpt>
      <trkpt lat="47.02986" lon="6.60283">
        <ele>919.7</ele>
        <time>2021-08-13T08:44:04Z</time>
      </trkpt>
      <trkpt lat="47.02982" lon="6.60281">
        <ele>920</ele>
        <time>2021-08-13T08:44:05Z</time>
      </trkpt>
      <trkpt lat="47.02976" lon="6.60279">
        <ele>920.5</ele>
        <time>2021-08-13T08:44:06Z</time>
      </trkpt>
      <trkpt lat="47.02967" lon="6.60276">
        <ele>921.3</ele>
        <time>2021-08-13T08:44:08Z</time>
      </trkpt>
      <trkpt lat="47.02959" lon="6.60274">
        <ele>921.9</ele>
        <time>2021-08-13T08:44:10Z</time>
      </trkpt>
      <trkpt lat="47.02955" lon="6.60273">
        <ele>922.3</ele>
        <time>2021-08-13T08:44:11Z</time>
      </trkpt>
      <trkpt lat="47.02949" lon="6.60272">
        <ele>922.7</ele>
        <time>2021-08-13T08:44:13Z</time>
      </trkpt>
      <trkpt lat="47.02946" lon="6.60272">
        <ele>923</ele>
        <time>2021-08-13T08:44:14Z</time>
      </trkpt>
      <trkpt lat="47.02943" lon="6.60272">
        <ele>923.2</ele>
        <time>2021-08-13T08:44:15Z</time>
      </trkpt>
      <trkpt lat="47.02939" lon="6.60271">
        <ele>923.5</ele>
        <time>2021-08-13T08:44:17Z</time>
      </trkpt>
      <trkpt lat="47.02936" lon="6.6027">
        <ele>923.8</ele>
        <time>2021-08-13T08:44:19Z</time>
      </trkpt>
      <trkpt lat="47.02933" lon="6.60267">
        <ele>924</ele>
        <time>2021-08-13T08:44:20Z</time>
      </trkpt>
      <trkpt lat="47.0293" lon="6.60265">
        <ele>924.3</ele>
        <time>2021-08-13T08:44:21Z</time>
      </trkpt>
      <trkpt lat="47.0293" lon="6.60264">
        <ele>924.4</ele>
        <time>2021-08-13T08:44:22Z</time>
      </trkpt>
      <trkpt lat="47.0293" lon="6.60262">
        <ele>924.4</ele>
        <time>2021-08-13T08:44:23Z</time>
      </trkpt>
      <trkpt lat="47.0293" lon="6.60257">
        <ele>924.8</ele>
        <time>2021-08-13T08:44:25Z</time>
      </trkpt>
      <trkpt lat="47.02929" lon="6.60256">
        <ele>924.8</ele>
        <time>2021-08-13T08:44:26Z</time>
      </trkpt>
      <trkpt lat="47.02928" lon="6.60255">
        <ele>924.9</ele>
        <time>2021-08-13T08:44:27Z</time>
      </trkpt>
      <trkpt lat="47.02928" lon="6.60254">
        <ele>925</ele>
        <time>2021-08-13T08:44:28Z</time>
      </trkpt>
      <trkpt lat="47.02929" lon="6.60252">
        <ele>925.1</ele>
        <time>2021-08-13T08:44:30Z</time>
      </trkpt>
      <trkpt lat="47.02929" lon="6.60251">
        <ele>925.2</ele>
        <time>2021-08-13T08:44:31Z</time>
      </trkpt>
      <trkpt lat="47.02929" lon="6.6025">
        <ele>925.3</ele>
        <time>2021-08-13T08:44:33Z</time>
      </trkpt>
      <trkpt lat="47.02929" lon="6.6025">
        <ele>925.3</ele>
        <time>2021-08-13T08:44:34Z</time>
      </trkpt>
      <trkpt lat="47.02929" lon="6.60249">
        <ele>925.3</ele>
        <time>2021-08-13T08:44:36Z</time>
      </trkpt>
      <trkpt lat="47.02929" lon="6.60249">
        <ele>925.3</ele>
        <time>2021-08-13T08:44:37Z</time>
      </trkpt>
      <trkpt lat="47.02929" lon="6.60249">
        <ele>925.3</ele>
        <time>2021-08-13T08:44:38Z</time>
      </trkpt>
      <trkpt lat="47.0291" lon="6.60226">
        <ele>927.4</ele>
        <time>2021-08-13T08:45:27Z</time>
      </trkpt>
      <trkpt lat="47.02904" lon="6.60224">
        <ele>927.8</ele>
        <time>2021-08-13T08:45:29Z</time>
      </trkpt>
      <trkpt lat="47.02901" lon="6.60223">
        <ele>928.1</ele>
        <time>2021-08-13T08:45:30Z</time>
      </trkpt>
      <trkpt lat="47.02898" lon="6.60223">
        <ele>928.3</ele>
        <time>2021-08-13T08:45:31Z</time>
      </trkpt>
      <trkpt lat="47.02897" lon="6.60225">
        <ele>928.4</ele>
        <time>2021-08-13T08:45:33Z</time>
      </trkpt>
      <trkpt lat="47.02898" lon="6.60226">
        <ele>928.5</ele>
        <time>2021-08-13T08:45:34Z</time>
      </trkpt>
      <trkpt lat="47.02898" lon="6.60226">
        <ele>928.5</ele>
        <time>2021-08-13T08:45:35Z</time>
      </trkpt>
      <trkpt lat="47.02898" lon="6.60226">
        <ele>928.5</ele>
        <time>2021-08-13T08:45:36Z</time>
      </trkpt>
      <trkpt lat="47.02897" lon="6.60225">
        <ele>928.6</ele>
        <time>2021-08-13T08:45:38Z</time>
      </trkpt>
      <trkpt lat="47.02897" lon="6.60224">
        <ele>928.6</ele>
        <time>2021-08-13T08:45:39Z</time>
      </trkpt>
      <trkpt lat="47.02897" lon="6.60223">
        <ele>928.7</ele>
        <time>2021-08-13T08:45:40Z</time>
      </trkpt>
      <trkpt lat="47.02897" lon="6.60222">
        <ele>928.8</ele>
        <time>2021-08-13T08:45:42Z</time>
      </trkpt>
      <trkpt lat="47.02846" lon="6.60115">
        <ele>936.1</ele>
        <time>2021-08-13T08:47:07Z</time>
      </trkpt>
      <trkpt lat="47.02845" lon="6.60111">
        <ele>936.3</ele>
        <time>2021-08-13T08:47:08Z</time>
      </trkpt>
      <trkpt lat="47.02844" lon="6.6011">
        <ele>936.4</ele>
        <time>2021-08-13T08:47:09Z</time>
      </trkpt>
      <trkpt lat="47.02843" lon="6.6011">
        <ele>936.5</ele>
        <time>2021-08-13T08:47:11Z</time>
      </trkpt>
      <trkpt lat="47.02842" lon="6.60109">
        <ele>936.6</ele>
        <time>2021-08-13T08:47:12Z</time>
      </trkpt>
      <trkpt lat="47.02842" lon="6.60108">
        <ele>936.6</ele>
        <time>2021-08-13T08:47:13Z</time>
      </trkpt>
      <trkpt lat="47.02842" lon="6.60107">
        <ele>936.7</ele>
        <time>2021-08-13T08:47:15Z</time>
      </trkpt>
      <trkpt lat="47.02842" lon="6.60106">
        <ele>936.7</ele>
        <time>2021-08-13T08:47:16Z</time>
      </trkpt>
      <trkpt lat="47.02841" lon="6.60106">
        <ele>936.7</ele>
        <time>2021-08-13T08:47:18Z</time>
      </trkpt>
      <trkpt lat="47.02841" lon="6.60106">
        <ele>936.8</ele>
        <time>2021-08-13T08:47:19Z</time>
      </trkpt>
      <trkpt lat="47.0284" lon="6.60105">
        <ele>936.9</ele>
        <time>2021-08-13T08:47:20Z</time>
      </trkpt>
      <trkpt lat="47.0284" lon="6.60104">
        <ele>936.9</ele>
        <time>2021-08-13T08:47:22Z</time>
      </trkpt>
      <trkpt lat="47.02832" lon="6.60087">
        <ele>938.1</ele>
        <time>2021-08-13T08:47:33Z</time>
      </trkpt>
      <trkpt lat="47.0283" lon="6.60085">
        <ele>938.3</ele>
        <time>2021-08-13T08:47:34Z</time>
      </trkpt>
      <trkpt lat="47.0283" lon="6.60084">
        <ele>938.3</ele>
        <time>2021-08-13T08:47:36Z</time>
      </trkpt>
      <trkpt lat="47.02829" lon="6.60084">
        <ele>938.4</ele>
        <time>2021-08-13T08:47:37Z</time>
      </trkpt>
      <trkpt lat="47.02829" lon="6.60083">
        <ele>938.4</ele>
        <time>2021-08-13T08:47:38Z</time>
      </trkpt>
      <trkpt lat="47.02828" lon="6.60083">
        <ele>938.5</ele>
        <time>2021-08-13T08:47:41Z</time>
      </trkpt>
      <trkpt lat="47.02828" lon="6.60082">
        <ele>938.5</ele>
        <time>2021-08-13T08:47:42Z</time>
      </trkpt>
      <trkpt lat="47.02829" lon="6.6008">
        <ele>938.7</ele>
        <time>2021-08-13T08:47:43Z</time>
      </trkpt>
      <trkpt lat="47.0283" lon="6.60078">
        <ele>938.8</ele>
        <time>2021-08-13T08:47:45Z</time>
      </trkpt>
      <trkpt lat="47.02802" lon="6.60076">
        <ele>941.1</ele>
        <time>2021-08-13T08:48:22Z</time>
      </trkpt>
      <trkpt lat="47.02799" lon="6.60074">
        <ele>941.3</ele>
        <time>2021-08-13T08:48:23Z</time>
      </trkpt>
      <trkpt lat="47.02796" lon="6.60071">
        <ele>941.7</ele>
        <time>2021-08-13T08:48:25Z</time>
      </trkpt>
      <trkpt lat="47.02796" lon="6.60069">
        <ele>941.8</ele>
        <time>2021-08-13T08:48:26Z</time>
      </trkpt>
      <trkpt lat="47.02794" lon="6.60065">
        <ele>942</ele>
        <time>2021-08-13T08:48:27Z</time>
      </trkpt>
      <trkpt lat="47.02794" lon="6.60064">
        <ele>942.1</ele>
        <time>2021-08-13T08:48:28Z</time>
      </trkpt>
      <trkpt lat="47.02792" lon="6.60061">
        <ele>942.3</ele>
        <time>2021-08-13T08:48:30Z</time>
      </trkpt>
      <trkpt lat="47.0279" lon="6.60057">
        <ele>942.6</ele>
        <time>2021-08-13T08:48:31Z</time>
      </trkpt>
      <trkpt lat="47.02789" lon="6.60054">
        <ele>942.8</ele>
        <time>2021-08-13T08:48:32Z</time>
      </trkpt>
      <trkpt lat="47.02785" lon="6.6005">
        <ele>943.2</ele>
        <time>2021-08-13T08:48:34Z</time>
      </trkpt>
      <trkpt lat="47.02781" lon="6.60047">
        <ele>943.5</ele>
        <time>2021-08-13T08:48:35Z</time>
      </trkpt>
      <trkpt lat="47.0278" lon="6.60043">
        <ele>943.8</ele>
        <time>2021-08-13T08:48:36Z</time>
      </trkpt>
      <trkpt lat="47.0278" lon="6.60042">
        <ele>943.9</ele>
        <time>2021-08-13T08:48:37Z</time>
      </trkpt>
      <trkpt lat="47.02779" lon="6.60038">
        <ele>944.1</ele>
        <time>2021-08-13T08:48:39Z</time>
      </trkpt>
      <trkpt lat="47.02779" lon="6.60038">
        <ele>944.1</ele>
        <time>2021-08-13T08:48:40Z</time>
      </trkpt>
      <trkpt lat="47.02779" lon="6.60038">
        <ele>944.1</ele>
        <time>2021-08-13T08:48:41Z</time>
      </trkpt>
      <trkpt lat="47.02779" lon="6.60038">
        <ele>944.1</ele>
        <time>2021-08-13T08:48:42Z</time>
      </trkpt>
      <trkpt lat="47.02779" lon="6.60038">
        <ele>944.2</ele>
        <time>2021-08-13T08:48:43Z</time>
      </trkpt>
      <trkpt lat="47.02779" lon="6.60038">
        <ele>944.2</ele>
        <time>2021-08-13T08:48:44Z</time>
      </trkpt>
      <trkpt lat="47.02779" lon="6.60038">
        <ele>944.2</ele>
        <time>2021-08-13T08:48:46Z</time>
      </trkpt>
      <trkpt lat="47.02779" lon="6.60037">
        <ele>944.2</ele>
        <time>2021-08-13T08:48:48Z</time>
      </trkpt>
      <trkpt lat="47.02779" lon="6.60036">
        <ele>944.3</ele>
        <time>2021-08-13T08:48:49Z</time>
      </trkpt>
      <trkpt lat="47.02769" lon="6.60013">
        <ele>947.5</ele>
        <time>2021-08-13T08:49:06Z</time>
      </trkpt>
      <trkpt lat="47.02767" lon="6.6001">
        <ele>947.8</ele>
        <time>2021-08-13T08:49:07Z</time>
      </trkpt>
      <trkpt lat="47.02766" lon="6.60008">
        <ele>948</ele>
        <time>2021-08-13T08:49:08Z</time>
      </trkpt>
      <trkpt lat="47.02763" lon="6.6">
        <ele>948.5</ele>
        <time>2021-08-13T08:49:10Z</time>
      </trkpt>
      <trkpt lat="47.02761" lon="6.59996">
        <ele>949</ele>
        <time>2021-08-13T08:49:12Z</time>
      </trkpt>
      <trkpt lat="47.02758" lon="6.59993">
        <ele>949.3</ele>
        <time>2021-08-13T08:49:13Z</time>
      </trkpt>
      <trkpt lat="47.02758" lon="6.59992">
        <ele>949.4</ele>
        <time>2021-08-13T08:49:14Z</time>
      </trkpt>
      <trkpt lat="47.02757" lon="6.59991">
        <ele>949.4</ele>
        <time>2021-08-13T08:49:15Z</time>
      </trkpt>
      <trkpt lat="47.02757" lon="6.59991">
        <ele>949.4</ele>
        <time>2021-08-13T08:49:16Z</time>
      </trkpt>
      <trkpt lat="47.02757" lon="6.59991">
        <ele>949.5</ele>
        <time>2021-08-13T08:49:18Z</time>
      </trkpt>
      <trkpt lat="47.02757" lon="6.59991">
        <ele>949.5</ele>
        <time>2021-08-13T08:49:19Z</time>
      </trkpt>
      <trkpt lat="47.02757" lon="6.59991">
        <ele>949.5</ele>
        <time>2021-08-13T08:49:21Z</time>
      </trkpt>
      <trkpt lat="47.02758" lon="6.59991">
        <ele>949.5</ele>
        <time>2021-08-13T08:49:22Z</time>
      </trkpt>
      <trkpt lat="47.02757" lon="6.59991">
        <ele>949.5</ele>
        <time>2021-08-13T08:49:24Z</time>
      </trkpt>
      <trkpt lat="47.02728" lon="6.59974">
        <ele>952.4</ele>
        <time>2021-08-13T08:50:12Z</time>
      </trkpt>
      <trkpt lat="47.02725" lon="6.59971">
        <ele>952.7</ele>
        <time>2021-08-13T08:50:14Z</time>
      </trkpt>
      <trkpt lat="47.02723" lon="6.59967">
        <ele>952.9</ele>
        <time>2021-08-13T08:50:15Z</time>
      </trkpt>
      <trkpt lat="47.0272" lon="6.59962">
        <ele>953.3</ele>
        <time>2021-08-13T08:50:17Z</time>
      </trkpt>
      <trkpt lat="47.0272" lon="6.5996">
        <ele>953.5</ele>
        <time>2021-08-13T08:50:18Z</time>
      </trkpt>
      <trkpt lat="47.02719" lon="6.59959">
        <ele>953.6</ele>
        <time>2021-08-13T08:50:19Z</time>
      </trkpt>
      <trkpt lat="47.02717" lon="6.59956">
        <ele>953.8</ele>
        <time>2021-08-13T08:50:21Z</time>
      </trkpt>
      <trkpt lat="47.02715" lon="6.59953">
        <ele>954.1</ele>
        <time>2021-08-13T08:50:22Z</time>
      </trkpt>
      <trkpt lat="47.02715" lon="6.59952">
        <ele>954.1</ele>
        <time>2021-08-13T08:50:23Z</time>
      </trkpt>
      <trkpt lat="47.02714" lon="6.59951">
        <ele>954.2</ele>
        <time>2021-08-13T08:50:25Z</time>
      </trkpt>
      <trkpt lat="47.02714" lon="6.5995">
        <ele>954.3</ele>
        <time>2021-08-13T08:50:26Z</time>
      </trkpt>
      <trkpt lat="47.02714" lon="6.59949">
        <ele>954.3</ele>
        <time>2021-08-13T08:50:27Z</time>
      </trkpt>
      <trkpt lat="47.02714" lon="6.59949">
        <ele>954.3</ele>
        <time>2021-08-13T08:50:28Z</time>
      </trkpt>
      <trkpt lat="47.0271" lon="6.59944">
        <ele>954.7</ele>
        <time>2021-08-13T08:50:30Z</time>
      </trkpt>
      <trkpt lat="47.02706" lon="6.5994">
        <ele>955.1</ele>
        <time>2021-08-13T08:50:31Z</time>
      </trkpt>
      <trkpt lat="47.02702" lon="6.59936">
        <ele>955.5</ele>
        <time>2021-08-13T08:50:32Z</time>
      </trkpt>
      <trkpt lat="47.02699" lon="6.59931">
        <ele>955.6</ele>
        <time>2021-08-13T08:50:34Z</time>
      </trkpt>
      <trkpt lat="47.02695" lon="6.59927">
        <ele>955.7</ele>
        <time>2021-08-13T08:50:35Z</time>
      </trkpt>
      <trkpt lat="47.02691" lon="6.59922">
        <ele>955.7</ele>
        <time>2021-08-13T08:51:12Z</time>
      </trkpt>
      <trkpt lat="47.02687" lon="6.59918">
        <ele>955.7</ele>
        <time>2021-08-13T08:51:13Z</time>
      </trkpt>
      <trkpt lat="47.02683" lon="6.59911">
        <ele>955.6</ele>
        <time>2021-08-13T08:51:14Z</time>
      </trkpt>
      <trkpt lat="47.02676" lon="6.599">
        <ele>955.3</ele>
        <time>2021-08-13T08:51:16Z</time>
      </trkpt>
      <trkpt lat="47.0267" lon="6.59893">
        <ele>955.1</ele>
        <time>2021-08-13T08:51:18Z</time>
      </trkpt>
      <trkpt lat="47.02665" lon="6.59889">
        <ele>955</ele>
        <time>2021-08-13T08:51:19Z</time>
      </trkpt>
      <trkpt lat="47.02663" lon="6.59887">
        <ele>955</ele>
        <time>2021-08-13T08:51:20Z</time>
      </trkpt>
      <trkpt lat="47.0266" lon="6.59886">
        <ele>954.9</ele>
        <time>2021-08-13T08:51:21Z</time>
      </trkpt>
      <trkpt lat="47.02656" lon="6.59886">
        <ele>954.8</ele>
        <time>2021-08-13T08:51:22Z</time>
      </trkpt>
      <trkpt lat="47.02652" lon="6.59885">
        <ele>954.8</ele>
        <time>2021-08-13T08:51:23Z</time>
      </trkpt>
      <trkpt lat="47.02648" lon="6.59884">
        <ele>954.8</ele>
        <time>2021-08-13T08:51:24Z</time>
      </trkpt>
      <trkpt lat="47.02644" lon="6.59883">
        <ele>954.8</ele>
        <time>2021-08-13T08:51:25Z</time>
      </trkpt>
      <trkpt lat="47.0264" lon="6.5988">
        <ele>954.8</ele>
        <time>2021-08-13T08:51:27Z</time>
      </trkpt>
      <trkpt lat="47.02637" lon="6.59877">
        <ele>954.8</ele>
        <time>2021-08-13T08:51:28Z</time>
      </trkpt>
      <trkpt lat="47.02634" lon="6.59872">
        <ele>954.8</ele>
        <time>2021-08-13T08:51:29Z</time>
      </trkpt>
      <trkpt lat="47.0263" lon="6.59868">
        <ele>954.9</ele>
        <time>2021-08-13T08:51:30Z</time>
      </trkpt>
      <trkpt lat="47.02628" lon="6.59866">
        <ele>954.9</ele>
        <time>2021-08-13T08:51:31Z</time>
      </trkpt>
      <trkpt lat="47.02624" lon="6.59863">
        <ele>955</ele>
        <time>2021-08-13T08:51:33Z</time>
      </trkpt>
      <trkpt lat="47.02622" lon="6.59859">
        <ele>955.1</ele>
        <time>2021-08-13T08:51:34Z</time>
      </trkpt>
      <trkpt lat="47.0262" lon="6.59856">
        <ele>955.1</ele>
        <time>2021-08-13T08:51:35Z</time>
      </trkpt>
      <trkpt lat="47.02617" lon="6.59853">
        <ele>955.1</ele>
        <time>2021-08-13T08:51:37Z</time>
      </trkpt>
      <trkpt lat="47.02614" lon="6.59851">
        <ele>955.1</ele>
        <time>2021-08-13T08:51:38Z</time>
      </trkpt>
      <trkpt lat="47.02611" lon="6.59849">
        <ele>955</ele>
        <time>2021-08-13T08:51:40Z</time>
      </trkpt>
      <trkpt lat="47.02609" lon="6.59849">
        <ele>955</ele>
        <time>2021-08-13T08:51:41Z</time>
      </trkpt>
      <trkpt lat="47.02608" lon="6.59846">
        <ele>954.9</ele>
        <time>2021-08-13T08:51:43Z</time>
      </trkpt>
      <trkpt lat="47.02607" lon="6.59844">
        <ele>954.9</ele>
        <time>2021-08-13T08:51:44Z</time>
      </trkpt>
      <trkpt lat="47.02606" lon="6.59842">
        <ele>954.8</ele>
        <time>2021-08-13T08:51:45Z</time>
      </trkpt>
      <trkpt lat="47.02605" lon="6.5984">
        <ele>954.8</ele>
        <time>2021-08-13T08:51:46Z</time>
      </trkpt>
      <trkpt lat="47.02605" lon="6.59836">
        <ele>954.7</ele>
        <time>2021-08-13T08:51:48Z</time>
      </trkpt>
      <trkpt lat="47.02605" lon="6.5983">
        <ele>954.5</ele>
        <time>2021-08-13T08:51:49Z</time>
      </trkpt>
      <trkpt lat="47.02604" lon="6.59828">
        <ele>954.4</ele>
        <time>2021-08-13T08:51:50Z</time>
      </trkpt>
      <trkpt lat="47.02603" lon="6.59822">
        <ele>954.2</ele>
        <time>2021-08-13T08:51:51Z</time>
      </trkpt>
      <trkpt lat="47.02601" lon="6.59814">
        <ele>954</ele>
        <time>2021-08-13T08:51:52Z</time>
      </trkpt>
      <trkpt lat="47.02599" lon="6.59807">
        <ele>953.8</ele>
        <time>2021-08-13T08:51:54Z</time>
      </trkpt>
      <trkpt lat="47.02597" lon="6.59801">
        <ele>953.6</ele>
        <time>2021-08-13T08:51:55Z</time>
      </trkpt>
      <trkpt lat="47.02594" lon="6.59793">
        <ele>953.4</ele>
        <time>2021-08-13T08:51:57Z</time>
      </trkpt>
      <trkpt lat="47.02592" lon="6.59785">
        <ele>953.2</ele>
        <time>2021-08-13T08:51:59Z</time>
      </trkpt>
      <trkpt lat="47.02591" lon="6.59777">
        <ele>953.1</ele>
        <time>2021-08-13T08:52:01Z</time>
      </trkpt>
      <trkpt lat="47.0259" lon="6.59772">
        <ele>953.1</ele>
        <time>2021-08-13T08:52:02Z</time>
      </trkpt>
      <trkpt lat="47.0259" lon="6.59765">
        <ele>953</ele>
        <time>2021-08-13T08:52:04Z</time>
      </trkpt>
      <trkpt lat="47.02589" lon="6.59759">
        <ele>952.9</ele>
        <time>2021-08-13T08:52:05Z</time>
      </trkpt>
      <trkpt lat="47.02589" lon="6.59758">
        <ele>952.9</ele>
        <time>2021-08-13T08:52:06Z</time>
      </trkpt>
      <trkpt lat="47.02587" lon="6.59754">
        <ele>952.9</ele>
        <time>2021-08-13T08:52:07Z</time>
      </trkpt>
      <trkpt lat="47.02585" lon="6.59751">
        <ele>952.8</ele>
        <time>2021-08-13T08:52:09Z</time>
      </trkpt>
      <trkpt lat="47.02583" lon="6.59748">
        <ele>952.8</ele>
        <time>2021-08-13T08:52:10Z</time>
      </trkpt>
      <trkpt lat="47.0258" lon="6.59746">
        <ele>952.8</ele>
        <time>2021-08-13T08:52:11Z</time>
      </trkpt>
      <trkpt lat="47.02579" lon="6.59745">
        <ele>952.7</ele>
        <time>2021-08-13T08:52:12Z</time>
      </trkpt>
      <trkpt lat="47.02577" lon="6.59743">
        <ele>952.7</ele>
        <time>2021-08-13T08:52:14Z</time>
      </trkpt>
      <trkpt lat="47.02576" lon="6.59741">
        <ele>952.7</ele>
        <time>2021-08-13T08:52:15Z</time>
      </trkpt>
      <trkpt lat="47.02574" lon="6.59739">
        <ele>952.7</ele>
        <time>2021-08-13T08:52:17Z</time>
      </trkpt>
      <trkpt lat="47.02573" lon="6.59737">
        <ele>952.6</ele>
        <time>2021-08-13T08:52:18Z</time>
      </trkpt>
      <trkpt lat="47.02573" lon="6.59735">
        <ele>952.6</ele>
        <time>2021-08-13T08:52:19Z</time>
      </trkpt>
      <trkpt lat="47.02572" lon="6.59735">
        <ele>952.6</ele>
        <time>2021-08-13T08:52:20Z</time>
      </trkpt>
      <trkpt lat="47.0257" lon="6.59733">
        <ele>952.6</ele>
        <time>2021-08-13T08:52:21Z</time>
      </trkpt>
      <trkpt lat="47.02568" lon="6.59729">
        <ele>952.5</ele>
        <time>2021-08-13T08:52:23Z</time>
      </trkpt>
      <trkpt lat="47.02567" lon="6.59726">
        <ele>952.5</ele>
        <time>2021-08-13T08:52:24Z</time>
      </trkpt>
      <trkpt lat="47.02563" lon="6.5972">
        <ele>952.4</ele>
        <time>2021-08-13T08:52:26Z</time>
      </trkpt>
      <trkpt lat="47.0256" lon="6.59715">
        <ele>952.3</ele>
        <time>2021-08-13T08:52:27Z</time>
      </trkpt>
      <trkpt lat="47.02558" lon="6.59712">
        <ele>952.2</ele>
        <time>2021-08-13T08:52:28Z</time>
      </trkpt>
      <trkpt lat="47.02554" lon="6.59708">
        <ele>952.1</ele>
        <time>2021-08-13T08:52:30Z</time>
      </trkpt>
      <trkpt lat="47.02551" lon="6.59704">
        <ele>952.1</ele>
        <time>2021-08-13T08:52:31Z</time>
      </trkpt>
      <trkpt lat="47.02546" lon="6.59699">
        <ele>952</ele>
        <time>2021-08-13T08:52:33Z</time>
      </trkpt>
      <trkpt lat="47.02543" lon="6.59697">
        <ele>951.9</ele>
        <time>2021-08-13T08:52:34Z</time>
      </trkpt>
      <trkpt lat="47.02541" lon="6.59694">
        <ele>951.9</ele>
        <time>2021-08-13T08:52:35Z</time>
      </trkpt>
      <trkpt lat="47.02539" lon="6.5969">
        <ele>951.9</ele>
        <time>2021-08-13T08:52:36Z</time>
      </trkpt>
      <trkpt lat="47.02537" lon="6.59689">
        <ele>951.8</ele>
        <time>2021-08-13T08:52:38Z</time>
      </trkpt>
      <trkpt lat="47.02534" lon="6.59688">
        <ele>951.8</ele>
        <time>2021-08-13T08:52:39Z</time>
      </trkpt>
      <trkpt lat="47.0253" lon="6.59686">
        <ele>951.7</ele>
        <time>2021-08-13T08:52:40Z</time>
      </trkpt>
      <trkpt lat="47.02525" lon="6.59684">
        <ele>951.6</ele>
        <time>2021-08-13T08:52:41Z</time>
      </trkpt>
      <trkpt lat="47.0252" lon="6.59682">
        <ele>951.6</ele>
        <time>2021-08-13T08:52:42Z</time>
      </trkpt>
      <trkpt lat="47.02517" lon="6.5968">
        <ele>951.5</ele>
        <time>2021-08-13T08:52:43Z</time>
      </trkpt>
      <trkpt lat="47.02514" lon="6.5968">
        <ele>951.4</ele>
        <time>2021-08-13T08:52:45Z</time>
      </trkpt>
      <trkpt lat="47.02514" lon="6.59681">
        <ele>951.4</ele>
        <time>2021-08-13T08:52:46Z</time>
      </trkpt>
      <trkpt lat="47.02513" lon="6.59683">
        <ele>951.4</ele>
        <time>2021-08-13T08:52:47Z</time>
      </trkpt>
      <trkpt lat="47.0251" lon="6.59682">
        <ele>951.3</ele>
        <time>2021-08-13T08:52:49Z</time>
      </trkpt>
      <trkpt lat="47.02504" lon="6.59681">
        <ele>951.2</ele>
        <time>2021-08-13T08:52:50Z</time>
      </trkpt>
      <trkpt lat="47.02487" lon="6.59684">
        <ele>950.8</ele>
        <time>2021-08-13T08:52:52Z</time>
      </trkpt>
      <trkpt lat="47.0248" lon="6.59683">
        <ele>950.7</ele>
        <time>2021-08-13T08:52:53Z</time>
      </trkpt>
      <trkpt lat="47.02474" lon="6.5968">
        <ele>950.6</ele>
        <time>2021-08-13T08:52:54Z</time>
      </trkpt>
      <trkpt lat="47.02466" lon="6.59677">
        <ele>950.5</ele>
        <time>2021-08-13T08:52:56Z</time>
      </trkpt>
      <trkpt lat="47.02458" lon="6.59675">
        <ele>950.6</ele>
        <time>2021-08-13T08:52:57Z</time>
      </trkpt>
      <trkpt lat="47.02453" lon="6.59673">
        <ele>950.7</ele>
        <time>2021-08-13T08:52:58Z</time>
      </trkpt>
      <trkpt lat="47.02449" lon="6.59672">
        <ele>950.9</ele>
        <time>2021-08-13T08:52:59Z</time>
      </trkpt>
      <trkpt lat="47.02447" lon="6.59671">
        <ele>951</ele>
        <time>2021-08-13T08:53:01Z</time>
      </trkpt>
      <trkpt lat="47.02446" lon="6.5967">
        <ele>951</ele>
        <time>2021-08-13T08:53:02Z</time>
      </trkpt>
      <trkpt lat="47.02446" lon="6.59673">
        <ele>951.1</ele>
        <time>2021-08-13T08:53:04Z</time>
      </trkpt>
      <trkpt lat="47.02446" lon="6.59674">
        <ele>951.2</ele>
        <time>2021-08-13T08:53:06Z</time>
      </trkpt>
      <trkpt lat="47.02447" lon="6.59674">
        <ele>951.2</ele>
        <time>2021-08-13T08:53:07Z</time>
      </trkpt>
      <trkpt lat="47.02448" lon="6.59674">
        <ele>951.3</ele>
        <time>2021-08-13T08:53:08Z</time>
      </trkpt>
      <trkpt lat="47.0245" lon="6.59675">
        <ele>951.4</ele>
        <time>2021-08-13T08:53:09Z</time>
      </trkpt>
      <trkpt lat="47.02451" lon="6.59675">
        <ele>951.5</ele>
        <time>2021-08-13T08:53:11Z</time>
      </trkpt>
      <trkpt lat="47.02388" lon="6.59604">
        <ele>953.6</ele>
        <time>2021-08-13T08:54:05Z</time>
      </trkpt>
      <trkpt lat="47.02385" lon="6.596">
        <ele>953.5</ele>
        <time>2021-08-13T08:54:07Z</time>
      </trkpt>
      <trkpt lat="47.02383" lon="6.59597">
        <ele>953.4</ele>
        <time>2021-08-13T08:54:08Z</time>
      </trkpt>
      <trkpt lat="47.02379" lon="6.59592">
        <ele>953.3</ele>
        <time>2021-08-13T08:54:10Z</time>
      </trkpt>
      <trkpt lat="47.02378" lon="6.5959">
        <ele>953.3</ele>
        <time>2021-08-13T08:54:11Z</time>
      </trkpt>
      <trkpt lat="47.02378" lon="6.5959">
        <ele>953.2</ele>
        <time>2021-08-13T08:54:12Z</time>
      </trkpt>
      <trkpt lat="47.02377" lon="6.59587">
        <ele>953.2</ele>
        <time>2021-08-13T08:54:14Z</time>
      </trkpt>
      <trkpt lat="47.02376" lon="6.59586">
        <ele>953.2</ele>
        <time>2021-08-13T08:54:15Z</time>
      </trkpt>
      <trkpt lat="47.02375" lon="6.59585">
        <ele>953.1</ele>
        <time>2021-08-13T08:54:16Z</time>
      </trkpt>
      <trkpt lat="47.02374" lon="6.59584">
        <ele>953.1</ele>
        <time>2021-08-13T08:54:17Z</time>
      </trkpt>
      <trkpt lat="47.0237" lon="6.59581">
        <ele>953</ele>
        <time>2021-08-13T08:54:18Z</time>
      </trkpt>
      <trkpt lat="47.02364" lon="6.59578">
        <ele>952.9</ele>
        <time>2021-08-13T08:54:19Z</time>
      </trkpt>
      <trkpt lat="47.02359" lon="6.59575">
        <ele>952.7</ele>
        <time>2021-08-13T08:54:20Z</time>
      </trkpt>
      <trkpt lat="47.02346" lon="6.5957">
        <ele>952.4</ele>
        <time>2021-08-13T08:54:22Z</time>
      </trkpt>
      <trkpt lat="47.02333" lon="6.59564">
        <ele>952.2</ele>
        <time>2021-08-13T08:54:24Z</time>
      </trkpt>
      <trkpt lat="47.02329" lon="6.59564">
        <ele>952.2</ele>
        <time>2021-08-13T08:54:25Z</time>
      </trkpt>
      <trkpt lat="47.02326" lon="6.59564">
        <ele>952.2</ele>
        <time>2021-08-13T08:54:26Z</time>
      </trkpt>
      <trkpt lat="47.02325" lon="6.59565">
        <ele>952.2</ele>
        <time>2021-08-13T08:54:27Z</time>
      </trkpt>
      <trkpt lat="47.02321" lon="6.59566">
        <ele>952.2</ele>
        <time>2021-08-13T08:54:28Z</time>
      </trkpt>
      <trkpt lat="47.02318" lon="6.59568">
        <ele>952.3</ele>
        <time>2021-08-13T08:54:30Z</time>
      </trkpt>
      <trkpt lat="47.02316" lon="6.5957">
        <ele>952.3</ele>
        <time>2021-08-13T08:54:31Z</time>
      </trkpt>
      <trkpt lat="47.02315" lon="6.5957">
        <ele>952.3</ele>
        <time>2021-08-13T08:54:33Z</time>
      </trkpt>
      <trkpt lat="47.02313" lon="6.59569">
        <ele>952.3</ele>
        <time>2021-08-13T08:54:34Z</time>
      </trkpt>
      <trkpt lat="47.02313" lon="6.59569">
        <ele>952.3</ele>
        <time>2021-08-13T08:54:35Z</time>
      </trkpt>
      <trkpt lat="47.02313" lon="6.59569">
        <ele>952.3</ele>
        <time>2021-08-13T08:54:37Z</time>
      </trkpt>
      <trkpt lat="47.02313" lon="6.59569">
        <ele>952.3</ele>
        <time>2021-08-13T08:54:38Z</time>
      </trkpt>
      <trkpt lat="47.02312" lon="6.59569">
        <ele>952.3</ele>
        <time>2021-08-13T08:54:39Z</time>
      </trkpt>
      <trkpt lat="47.02309" lon="6.59566">
        <ele>952.4</ele>
        <time>2021-08-13T08:54:41Z</time>
      </trkpt>
      <trkpt lat="47.0228" lon="6.59556">
        <ele>952.4</ele>
        <time>2021-08-13T08:55:02Z</time>
      </trkpt>
      <trkpt lat="47.02275" lon="6.59557">
        <ele>952.2</ele>
        <time>2021-08-13T08:55:04Z</time>
      </trkpt>
      <trkpt lat="47.02267" lon="6.59559">
        <ele>951.7</ele>
        <time>2021-08-13T08:55:05Z</time>
      </trkpt>
      <trkpt lat="47.02259" lon="6.59561">
        <ele>951.2</ele>
        <time>2021-08-13T08:55:06Z</time>
      </trkpt>
      <trkpt lat="47.0225" lon="6.59563">
        <ele>950.6</ele>
        <time>2021-08-13T08:55:08Z</time>
      </trkpt>
      <trkpt lat="47.02244" lon="6.59564">
        <ele>950.2</ele>
        <time>2021-08-13T08:55:09Z</time>
      </trkpt>
      <trkpt lat="47.0224" lon="6.59564">
        <ele>950</ele>
        <time>2021-08-13T08:55:10Z</time>
      </trkpt>
      <trkpt lat="47.02234" lon="6.59565">
        <ele>949.7</ele>
        <time>2021-08-13T08:55:11Z</time>
      </trkpt>
      <trkpt lat="47.02228" lon="6.59566">
        <ele>949.4</ele>
        <time>2021-08-13T08:55:13Z</time>
      </trkpt>
      <trkpt lat="47.02221" lon="6.59567">
        <ele>949.1</ele>
        <time>2021-08-13T08:55:14Z</time>
      </trkpt>
      <trkpt lat="47.02216" lon="6.59569">
        <ele>948.9</ele>
        <time>2021-08-13T08:55:16Z</time>
      </trkpt>
      <trkpt lat="47.02213" lon="6.59569">
        <ele>948.8</ele>
        <time>2021-08-13T08:55:17Z</time>
      </trkpt>
      <trkpt lat="47.0221" lon="6.59569">
        <ele>948.6</ele>
        <time>2021-08-13T08:55:18Z</time>
      </trkpt>
      <trkpt lat="47.02206" lon="6.59568">
        <ele>948.4</ele>
        <time>2021-08-13T08:55:20Z</time>
      </trkpt>
      <trkpt lat="47.02203" lon="6.59566">
        <ele>948</ele>
        <time>2021-08-13T08:55:21Z</time>
      </trkpt>
      <trkpt lat="47.02199" lon="6.59564">
        <ele>947.7</ele>
        <time>2021-08-13T08:55:22Z</time>
      </trkpt>
      <trkpt lat="47.02196" lon="6.59563">
        <ele>947.4</ele>
        <time>2021-08-13T08:55:24Z</time>
      </trkpt>
      <trkpt lat="47.02195" lon="6.59563">
        <ele>947.3</ele>
        <time>2021-08-13T08:55:25Z</time>
      </trkpt>
      <trkpt lat="47.02194" lon="6.59562">
        <ele>947.1</ele>
        <time>2021-08-13T08:55:26Z</time>
      </trkpt>
      <trkpt lat="47.02191" lon="6.59559">
        <ele>946.6</ele>
        <time>2021-08-13T08:55:28Z</time>
      </trkpt>
      <trkpt lat="47.02188" lon="6.59558">
        <ele>946.2</ele>
        <time>2021-08-13T08:55:30Z</time>
      </trkpt>
      <trkpt lat="47.02187" lon="6.59556">
        <ele>945.9</ele>
        <time>2021-08-13T08:55:32Z</time>
      </trkpt>
      <trkpt lat="47.02187" lon="6.59554">
        <ele>945.8</ele>
        <time>2021-08-13T08:55:34Z</time>
      </trkpt>
      <trkpt lat="47.02186" lon="6.59553">
        <ele>945.7</ele>
        <time>2021-08-13T08:55:36Z</time>
      </trkpt>
      <trkpt lat="47.02186" lon="6.59552">
        <ele>945.5</ele>
        <time>2021-08-13T08:55:38Z</time>
      </trkpt>
      <trkpt lat="47.02186" lon="6.59552">
        <ele>945.5</ele>
        <time>2021-08-13T08:55:39Z</time>
      </trkpt>
      <trkpt lat="47.02185" lon="6.59551">
        <ele>945.4</ele>
        <time>2021-08-13T08:55:41Z</time>
      </trkpt>
      <trkpt lat="47.02166" lon="6.59554">
        <ele>942.1</ele>
        <time>2021-08-13T08:56:02Z</time>
      </trkpt>
      <trkpt lat="47.02162" lon="6.59553">
        <ele>941.4</ele>
        <time>2021-08-13T08:56:03Z</time>
      </trkpt>
      <trkpt lat="47.02159" lon="6.59549">
        <ele>940.7</ele>
        <time>2021-08-13T08:56:04Z</time>
      </trkpt>
      <trkpt lat="47.02158" lon="6.59548">
        <ele>940.5</ele>
        <time>2021-08-13T08:56:05Z</time>
      </trkpt>
      <trkpt lat="47.02154" lon="6.59543">
        <ele>939.3</ele>
        <time>2021-08-13T08:56:07Z</time>
      </trkpt>
      <trkpt lat="47.02151" lon="6.59536">
        <ele>938.2</ele>
        <time>2021-08-13T08:56:09Z</time>
      </trkpt>
      <trkpt lat="47.02149" lon="6.59531">
        <ele>937.6</ele>
        <time>2021-08-13T08:56:10Z</time>
      </trkpt>
      <trkpt lat="47.02147" lon="6.5953">
        <ele>937.1</ele>
        <time>2021-08-13T08:56:12Z</time>
      </trkpt>
      <trkpt lat="47.02146" lon="6.59531">
        <ele>936.9</ele>
        <time>2021-08-13T08:56:13Z</time>
      </trkpt>
      <trkpt lat="47.02144" lon="6.59532">
        <ele>936.6</ele>
        <time>2021-08-13T08:56:15Z</time>
      </trkpt>
      <trkpt lat="47.02143" lon="6.59533">
        <ele>936.4</ele>
        <time>2021-08-13T08:56:16Z</time>
      </trkpt>
      <trkpt lat="47.02142" lon="6.59534">
        <ele>936.1</ele>
        <time>2021-08-13T08:56:17Z</time>
      </trkpt>
      <trkpt lat="47.0214" lon="6.59535">
        <ele>935.9</ele>
        <time>2021-08-13T08:56:18Z</time>
      </trkpt>
      <trkpt lat="47.02139" lon="6.59536">
        <ele>935.7</ele>
        <time>2021-08-13T08:56:20Z</time>
      </trkpt>
      <trkpt lat="47.02138" lon="6.59537">
        <ele>935.5</ele>
        <time>2021-08-13T08:56:27Z</time>
      </trkpt>
      <trkpt lat="47.02136" lon="6.59538">
        <ele>935.3</ele>
        <time>2021-08-13T08:56:28Z</time>
      </trkpt>
      <trkpt lat="47.02132" lon="6.59546">
        <ele>934.4</ele>
        <time>2021-08-13T08:56:30Z</time>
      </trkpt>
      <trkpt lat="47.02128" lon="6.59556">
        <ele>933.6</ele>
        <time>2021-08-13T08:56:31Z</time>
      </trkpt>
      <trkpt lat="47.02125" lon="6.59563">
        <ele>933</ele>
        <time>2021-08-13T08:56:33Z</time>
      </trkpt>
      <trkpt lat="47.02123" lon="6.59568">
        <ele>932.5</ele>
        <time>2021-08-13T08:56:34Z</time>
      </trkpt>
      <trkpt lat="47.02121" lon="6.59573">
        <ele>932.2</ele>
        <time>2021-08-13T08:56:35Z</time>
      </trkpt>
      <trkpt lat="47.02118" lon="6.59581">
        <ele>931.5</ele>
        <time>2021-08-13T08:56:37Z</time>
      </trkpt>
      <trkpt lat="47.02115" lon="6.59587">
        <ele>930.9</ele>
        <time>2021-08-13T08:56:39Z</time>
      </trkpt>
      <trkpt lat="47.02114" lon="6.59595">
        <ele>930.4</ele>
        <time>2021-08-13T08:56:40Z</time>
      </trkpt>
      <trkpt lat="47.02113" lon="6.59599">
        <ele>930</ele>
        <time>2021-08-13T08:56:41Z</time>
      </trkpt>
      <trkpt lat="47.02112" lon="6.59606">
        <ele>929.5</ele>
        <time>2021-08-13T08:56:43Z</time>
      </trkpt>
      <trkpt lat="47.02111" lon="6.59612">
        <ele>929.1</ele>
        <time>2021-08-13T08:56:44Z</time>
      </trkpt>
      <trkpt lat="47.0211" lon="6.59616">
        <ele>928.8</ele>
        <time>2021-08-13T08:56:45Z</time>
      </trkpt>
      <trkpt lat="47.0211" lon="6.5962">
        <ele>928.5</ele>
        <time>2021-08-13T08:56:46Z</time>
      </trkpt>
      <trkpt lat="47.02109" lon="6.59627">
        <ele>928</ele>
        <time>2021-08-13T08:56:48Z</time>
      </trkpt>
      <trkpt lat="47.02108" lon="6.59632">
        <ele>927.6</ele>
        <time>2021-08-13T08:56:49Z</time>
      </trkpt>
      <trkpt lat="47.02106" lon="6.59639">
        <ele>927</ele>
        <time>2021-08-13T08:56:50Z</time>
      </trkpt>
      <trkpt lat="47.02103" lon="6.59647">
        <ele>926.2</ele>
        <time>2021-08-13T08:56:52Z</time>
      </trkpt>
      <trkpt lat="47.02102" lon="6.59653">
        <ele>925.6</ele>
        <time>2021-08-13T08:56:53Z</time>
      </trkpt>
      <trkpt lat="47.021" lon="6.59662">
        <ele>924.7</ele>
        <time>2021-08-13T08:56:55Z</time>
      </trkpt>
      <trkpt lat="47.02098" lon="6.59669">
        <ele>924</ele>
        <time>2021-08-13T08:56:56Z</time>
      </trkpt>
      <trkpt lat="47.02096" lon="6.59679">
        <ele>923</ele>
        <time>2021-08-13T08:56:58Z</time>
      </trkpt>
      <trkpt lat="47.02095" lon="6.59686">
        <ele>922.4</ele>
        <time>2021-08-13T08:56:59Z</time>
      </trkpt>
      <trkpt lat="47.02094" lon="6.59692">
        <ele>921.8</ele>
        <time>2021-08-13T08:57:00Z</time>
      </trkpt>
      <trkpt lat="47.02092" lon="6.59703">
        <ele>920.8</ele>
        <time>2021-08-13T08:57:02Z</time>
      </trkpt>
      <trkpt lat="47.02089" lon="6.59712">
        <ele>919.8</ele>
        <time>2021-08-13T08:57:03Z</time>
      </trkpt>
      <trkpt lat="47.02088" lon="6.59719">
        <ele>919.2</ele>
        <time>2021-08-13T08:57:04Z</time>
      </trkpt>
      <trkpt lat="47.02088" lon="6.59725">
        <ele>918.7</ele>
        <time>2021-08-13T08:57:05Z</time>
      </trkpt>
      <trkpt lat="47.02089" lon="6.59734">
        <ele>917.9</ele>
        <time>2021-08-13T08:57:07Z</time>
      </trkpt>
      <trkpt lat="47.0209" lon="6.5974">
        <ele>917.4</ele>
        <time>2021-08-13T08:57:08Z</time>
      </trkpt>
      <trkpt lat="47.02094" lon="6.59746">
        <ele>916.8</ele>
        <time>2021-08-13T08:57:09Z</time>
      </trkpt>
      <trkpt lat="47.02101" lon="6.59757">
        <ele>915.4</ele>
        <time>2021-08-13T08:57:11Z</time>
      </trkpt>
      <trkpt lat="47.02103" lon="6.59763">
        <ele>915</ele>
        <time>2021-08-13T08:57:12Z</time>
      </trkpt>
      <trkpt lat="47.02107" lon="6.59778">
        <ele>914</ele>
        <time>2021-08-13T08:57:14Z</time>
      </trkpt>
      <trkpt lat="47.02108" lon="6.59797">
        <ele>913</ele>
        <time>2021-08-13T08:57:16Z</time>
      </trkpt>
      <trkpt lat="47.02109" lon="6.59816">
        <ele>912.2</ele>
        <time>2021-08-13T08:57:18Z</time>
      </trkpt>
      <trkpt lat="47.02109" lon="6.59824">
        <ele>912</ele>
        <time>2021-08-13T08:57:19Z</time>
      </trkpt>
      <trkpt lat="47.02107" lon="6.5984">
        <ele>911.5</ele>
        <time>2021-08-13T08:57:21Z</time>
      </trkpt>
      <trkpt lat="47.02107" lon="6.59847">
        <ele>911.3</ele>
        <time>2021-08-13T08:57:22Z</time>
      </trkpt>
      <trkpt lat="47.02106" lon="6.59851">
        <ele>911.2</ele>
        <time>2021-08-13T08:57:23Z</time>
      </trkpt>
      <trkpt lat="47.02104" lon="6.59859">
        <ele>910.9</ele>
        <time>2021-08-13T08:57:24Z</time>
      </trkpt>
      <trkpt lat="47.02101" lon="6.59864">
        <ele>910.6</ele>
        <time>2021-08-13T08:57:26Z</time>
      </trkpt>
      <trkpt lat="47.02099" lon="6.59867">
        <ele>910.3</ele>
        <time>2021-08-13T08:57:27Z</time>
      </trkpt>
      <trkpt lat="47.02094" lon="6.59871">
        <ele>909.8</ele>
        <time>2021-08-13T08:57:28Z</time>
      </trkpt>
      <trkpt lat="47.0209" lon="6.59873">
        <ele>908.8</ele>
        <time>2021-08-13T08:57:30Z</time>
      </trkpt>
      <trkpt lat="47.02085" lon="6.59875">
        <ele>908.2</ele>
        <time>2021-08-13T08:57:31Z</time>
      </trkpt>
      <trkpt lat="47.0208" lon="6.59873">
        <ele>907.6</ele>
        <time>2021-08-13T08:57:32Z</time>
      </trkpt>
      <trkpt lat="47.02075" lon="6.59871">
        <ele>907</ele>
        <time>2021-08-13T08:57:34Z</time>
      </trkpt>
      <trkpt lat="47.02072" lon="6.59869">
        <ele>906.6</ele>
        <time>2021-08-13T08:57:35Z</time>
      </trkpt>
      <trkpt lat="47.02069" lon="6.59866">
        <ele>906.2</ele>
        <time>2021-08-13T08:57:36Z</time>
      </trkpt>
      <trkpt lat="47.02066" lon="6.59862">
        <ele>905.7</ele>
        <time>2021-08-13T08:57:37Z</time>
      </trkpt>
      <trkpt lat="47.02064" lon="6.59857">
        <ele>905.2</ele>
        <time>2021-08-13T08:57:38Z</time>
      </trkpt>
      <trkpt lat="47.02063" lon="6.5985">
        <ele>904.7</ele>
        <time>2021-08-13T08:57:40Z</time>
      </trkpt>
      <trkpt lat="47.02063" lon="6.59843">
        <ele>904.2</ele>
        <time>2021-08-13T08:57:41Z</time>
      </trkpt>
      <trkpt lat="47.02063" lon="6.59836">
        <ele>903.6</ele>
        <time>2021-08-13T08:57:42Z</time>
      </trkpt>
      <trkpt lat="47.02063" lon="6.59827">
        <ele>903</ele>
        <time>2021-08-13T08:57:44Z</time>
      </trkpt>
      <trkpt lat="47.02063" lon="6.59819">
        <ele>902.5</ele>
        <time>2021-08-13T08:57:45Z</time>
      </trkpt>
      <trkpt lat="47.02064" lon="6.59812">
        <ele>902.1</ele>
        <time>2021-08-13T08:57:46Z</time>
      </trkpt>
      <trkpt lat="47.02064" lon="6.59803">
        <ele>901.5</ele>
        <time>2021-08-13T08:57:48Z</time>
      </trkpt>
      <trkpt lat="47.02066" lon="6.59786">
        <ele>900.4</ele>
        <time>2021-08-13T08:57:49Z</time>
      </trkpt>
      <trkpt lat="47.02065" lon="6.5977">
        <ele>899.3</ele>
        <time>2021-08-13T08:57:51Z</time>
      </trkpt>
      <trkpt lat="47.02064" lon="6.59762">
        <ele>898.8</ele>
        <time>2021-08-13T08:57:52Z</time>
      </trkpt>
      <trkpt lat="47.02062" lon="6.59749">
        <ele>898</ele>
        <time>2021-08-13T08:57:54Z</time>
      </trkpt>
      <trkpt lat="47.0206" lon="6.59745">
        <ele>897.7</ele>
        <time>2021-08-13T08:57:55Z</time>
      </trkpt>
      <trkpt lat="47.02058" lon="6.59738">
        <ele>897.2</ele>
        <time>2021-08-13T08:57:57Z</time>
      </trkpt>
      <trkpt lat="47.02058" lon="6.59736">
        <ele>897.1</ele>
        <time>2021-08-13T08:57:58Z</time>
      </trkpt>
      <trkpt lat="47.02057" lon="6.59733">
        <ele>896.9</ele>
        <time>2021-08-13T08:57:59Z</time>
      </trkpt>
      <trkpt lat="47.02053" lon="6.59728">
        <ele>896.3</ele>
        <time>2021-08-13T08:58:01Z</time>
      </trkpt>
      <trkpt lat="47.02047" lon="6.59721">
        <ele>895.6</ele>
        <time>2021-08-13T08:58:03Z</time>
      </trkpt>
      <trkpt lat="47.02041" lon="6.59718">
        <ele>894.9</ele>
        <time>2021-08-13T08:58:04Z</time>
      </trkpt>
      <trkpt lat="47.02036" lon="6.59714">
        <ele>894.2</ele>
        <time>2021-08-13T08:58:05Z</time>
      </trkpt>
      <trkpt lat="47.02031" lon="6.5971">
        <ele>893.5</ele>
        <time>2021-08-13T08:58:06Z</time>
      </trkpt>
      <trkpt lat="47.02024" lon="6.59701">
        <ele>892.4</ele>
        <time>2021-08-13T08:58:08Z</time>
      </trkpt>
      <trkpt lat="47.02021" lon="6.59695">
        <ele>891.8</ele>
        <time>2021-08-13T08:58:09Z</time>
      </trkpt>
      <trkpt lat="47.02015" lon="6.59685">
        <ele>890.8</ele>
        <time>2021-08-13T08:58:11Z</time>
      </trkpt>
      <trkpt lat="47.02008" lon="6.59678">
        <ele>889.8</ele>
        <time>2021-08-13T08:58:13Z</time>
      </trkpt>
      <trkpt lat="47.02001" lon="6.59672">
        <ele>888.9</ele>
        <time>2021-08-13T08:58:15Z</time>
      </trkpt>
      <trkpt lat="47.01997" lon="6.59667">
        <ele>888.4</ele>
        <time>2021-08-13T08:58:16Z</time>
      </trkpt>
      <trkpt lat="47.01996" lon="6.59662">
        <ele>888</ele>
        <time>2021-08-13T08:58:17Z</time>
      </trkpt>
      <trkpt lat="47.01991" lon="6.59645">
        <ele>886.2</ele>
        <time>2021-08-13T08:58:19Z</time>
      </trkpt>
      <trkpt lat="47.01986" lon="6.59628">
        <ele>884.6</ele>
        <time>2021-08-13T08:58:21Z</time>
      </trkpt>
      <trkpt lat="47.01984" lon="6.5962">
        <ele>883.9</ele>
        <time>2021-08-13T08:58:22Z</time>
      </trkpt>
      <trkpt lat="47.01982" lon="6.59611">
        <ele>883.2</ele>
        <time>2021-08-13T08:58:23Z</time>
      </trkpt>
      <trkpt lat="47.01979" lon="6.59594">
        <ele>881.7</ele>
        <time>2021-08-13T08:58:25Z</time>
      </trkpt>
      <trkpt lat="47.01978" lon="6.59584">
        <ele>880.9</ele>
        <time>2021-08-13T08:58:26Z</time>
      </trkpt>
      <trkpt lat="47.01977" lon="6.59574">
        <ele>880</ele>
        <time>2021-08-13T08:58:27Z</time>
      </trkpt>
      <trkpt lat="47.01976" lon="6.59554">
        <ele>878.2</ele>
        <time>2021-08-13T08:58:29Z</time>
      </trkpt>
      <trkpt lat="47.01976" lon="6.59546">
        <ele>877.3</ele>
        <time>2021-08-13T08:58:30Z</time>
      </trkpt>
      <trkpt lat="47.01975" lon="6.59538">
        <ele>876.5</ele>
        <time>2021-08-13T08:58:31Z</time>
      </trkpt>
      <trkpt lat="47.01973" lon="6.59523">
        <ele>875</ele>
        <time>2021-08-13T08:58:33Z</time>
      </trkpt>
      <trkpt lat="47.01972" lon="6.59515">
        <ele>874.2</ele>
        <time>2021-08-13T08:58:34Z</time>
      </trkpt>
      <trkpt lat="47.01971" lon="6.59507">
        <ele>873.4</ele>
        <time>2021-08-13T08:58:35Z</time>
      </trkpt>
      <trkpt lat="47.0197" lon="6.59498">
        <ele>872.6</ele>
        <time>2021-08-13T08:58:36Z</time>
      </trkpt>
      <trkpt lat="47.01969" lon="6.59491">
        <ele>872</ele>
        <time>2021-08-13T08:58:37Z</time>
      </trkpt>
      <trkpt lat="47.01968" lon="6.59481">
        <ele>871</ele>
        <time>2021-08-13T08:58:39Z</time>
      </trkpt>
      <trkpt lat="47.01966" lon="6.59472">
        <ele>870.1</ele>
        <time>2021-08-13T08:58:41Z</time>
      </trkpt>
      <trkpt lat="47.01962" lon="6.59454">
        <ele>868.5</ele>
        <time>2021-08-13T08:58:43Z</time>
      </trkpt>
      <trkpt lat="47.0196" lon="6.59443">
        <ele>867.6</ele>
        <time>2021-08-13T08:58:44Z</time>
      </trkpt>
      <trkpt lat="47.01959" lon="6.59433">
        <ele>866.8</ele>
        <time>2021-08-13T08:58:45Z</time>
      </trkpt>
      <trkpt lat="47.0196" lon="6.59423">
        <ele>866</ele>
        <time>2021-08-13T08:58:46Z</time>
      </trkpt>
      <trkpt lat="47.0196" lon="6.59401">
        <ele>864.3</ele>
        <time>2021-08-13T08:58:48Z</time>
      </trkpt>
      <trkpt lat="47.01959" lon="6.59392">
        <ele>863.5</ele>
        <time>2021-08-13T08:58:49Z</time>
      </trkpt>
      <trkpt lat="47.01958" lon="6.59373">
        <ele>862</ele>
        <time>2021-08-13T08:58:51Z</time>
      </trkpt>
      <trkpt lat="47.01958" lon="6.5936">
        <ele>860.7</ele>
        <time>2021-08-13T08:58:53Z</time>
      </trkpt>
      <trkpt lat="47.01957" lon="6.59346">
        <ele>859.4</ele>
        <time>2021-08-13T08:58:55Z</time>
      </trkpt>
      <trkpt lat="47.01958" lon="6.59339">
        <ele>858.7</ele>
        <time>2021-08-13T08:58:56Z</time>
      </trkpt>
      <trkpt lat="47.01958" lon="6.59333">
        <ele>858.1</ele>
        <time>2021-08-13T08:58:57Z</time>
      </trkpt>
      <trkpt lat="47.0196" lon="6.59318">
        <ele>856.8</ele>
        <time>2021-08-13T08:58:59Z</time>
      </trkpt>
      <trkpt lat="47.01961" lon="6.59304">
        <ele>855.6</ele>
        <time>2021-08-13T08:59:01Z</time>
      </trkpt>
      <trkpt lat="47.01961" lon="6.59298">
        <ele>855.1</ele>
        <time>2021-08-13T08:59:02Z</time>
      </trkpt>
      <trkpt lat="47.01959" lon="6.59289">
        <ele>854.2</ele>
        <time>2021-08-13T08:59:04Z</time>
      </trkpt>
      <trkpt lat="47.01958" lon="6.59276">
        <ele>853.1</ele>
        <time>2021-08-13T08:59:06Z</time>
      </trkpt>
      <trkpt lat="47.01957" lon="6.59261">
        <ele>851.9</ele>
        <time>2021-08-13T08:59:08Z</time>
      </trkpt>
      <trkpt lat="47.01955" lon="6.59252">
        <ele>851.2</ele>
        <time>2021-08-13T08:59:09Z</time>
      </trkpt>
      <trkpt lat="47.01953" lon="6.59232">
        <ele>850</ele>
        <time>2021-08-13T08:59:11Z</time>
      </trkpt>
      <trkpt lat="47.0195" lon="6.59215">
        <ele>849</ele>
        <time>2021-08-13T08:59:13Z</time>
      </trkpt>
      <trkpt lat="47.01946" lon="6.59196">
        <ele>848.1</ele>
        <time>2021-08-13T08:59:15Z</time>
      </trkpt>
      <trkpt lat="47.01943" lon="6.59189">
        <ele>847.8</ele>
        <time>2021-08-13T08:59:16Z</time>
      </trkpt>
      <trkpt lat="47.01939" lon="6.5918">
        <ele>847.2</ele>
        <time>2021-08-13T08:59:18Z</time>
      </trkpt>
      <trkpt lat="47.01938" lon="6.59166">
        <ele>846.3</ele>
        <time>2021-08-13T08:59:20Z</time>
      </trkpt>
      <trkpt lat="47.01938" lon="6.5916">
        <ele>845.9</ele>
        <time>2021-08-13T08:59:21Z</time>
      </trkpt>
      <trkpt lat="47.01938" lon="6.59151">
        <ele>845.2</ele>
        <time>2021-08-13T08:59:23Z</time>
      </trkpt>
      <trkpt lat="47.01939" lon="6.59143">
        <ele>844.6</ele>
        <time>2021-08-13T08:59:24Z</time>
      </trkpt>
      <trkpt lat="47.01939" lon="6.59137">
        <ele>844.1</ele>
        <time>2021-08-13T08:59:25Z</time>
      </trkpt>
      <trkpt lat="47.01939" lon="6.5913">
        <ele>843.5</ele>
        <time>2021-08-13T08:59:26Z</time>
      </trkpt>
      <trkpt lat="47.0194" lon="6.59123">
        <ele>842.8</ele>
        <time>2021-08-13T08:59:27Z</time>
      </trkpt>
      <trkpt lat="47.0194" lon="6.59114">
        <ele>842</ele>
        <time>2021-08-13T08:59:29Z</time>
      </trkpt>
      <trkpt lat="47.0194" lon="6.59109">
        <ele>837.9</ele>
        <time>2021-08-13T08:59:30Z</time>
      </trkpt>
      <trkpt lat="47.0194" lon="6.59108">
        <ele>837.9</ele>
        <time>2021-08-13T08:59:31Z</time>
      </trkpt>
      <trkpt lat="47.01941" lon="6.59104">
        <ele>837.9</ele>
        <time>2021-08-13T08:59:33Z</time>
      </trkpt>
      <trkpt lat="47.01942" lon="6.59103">
        <ele>837.9</ele>
        <time>2021-08-13T08:59:35Z</time>
      </trkpt>
      <trkpt lat="47.01942" lon="6.59107">
        <ele>837.9</ele>
        <time>2021-08-13T08:59:36Z</time>
      </trkpt>
      <trkpt lat="47.01941" lon="6.59108">
        <ele>837.9</ele>
        <time>2021-08-13T08:59:37Z</time>
      </trkpt>
      <trkpt lat="47.01937" lon="6.59115">
        <ele>837.9</ele>
        <time>2021-08-13T08:59:39Z</time>
      </trkpt>
      <trkpt lat="47.01936" lon="6.59116">
        <ele>837.9</ele>
        <time>2021-08-13T08:59:40Z</time>
      </trkpt>
      <trkpt lat="47.01932" lon="6.59117">
        <ele>828.1</ele>
        <time>2021-08-13T08:59:42Z</time>
      </trkpt>
      <trkpt lat="47.01927" lon="6.59119">
        <ele>827.7</ele>
        <time>2021-08-13T08:59:44Z</time>
      </trkpt>
      <trkpt lat="47.01922" lon="6.59122">
        <ele>827.2</ele>
        <time>2021-08-13T08:59:46Z</time>
      </trkpt>
      <trkpt lat="47.0192" lon="6.59124">
        <ele>827.1</ele>
        <time>2021-08-13T08:59:47Z</time>
      </trkpt>
      <trkpt lat="47.01917" lon="6.59128">
        <ele>826.7</ele>
        <time>2021-08-13T08:59:49Z</time>
      </trkpt>
      <trkpt lat="47.01915" lon="6.5913">
        <ele>826.6</ele>
        <time>2021-08-13T08:59:50Z</time>
      </trkpt>
      <trkpt lat="47.01914" lon="6.59134">
        <ele>826.4</ele>
        <time>2021-08-13T08:59:52Z</time>
      </trkpt>
      <trkpt lat="47.01913" lon="6.59138">
        <ele>826.2</ele>
        <time>2021-08-13T08:59:53Z</time>
      </trkpt>
      <trkpt lat="47.0191" lon="6.59142">
        <ele>825.8</ele>
        <time>2021-08-13T08:59:55Z</time>
      </trkpt>
      <trkpt lat="47.01908" lon="6.59147">
        <ele>825.6</ele>
        <time>2021-08-13T08:59:57Z</time>
      </trkpt>
      <trkpt lat="47.01908" lon="6.5915">
        <ele>825.4</ele>
        <time>2021-08-13T08:59:58Z</time>
      </trkpt>
      <trkpt lat="47.01908" lon="6.59155">
        <ele>825.1</ele>
        <time>2021-08-13T09:00:00Z</time>
      </trkpt>
      <trkpt lat="47.01907" lon="6.59158">
        <ele>824.9</ele>
        <time>2021-08-13T09:00:01Z</time>
      </trkpt>
      <trkpt lat="47.01905" lon="6.59163">
        <ele>824.6</ele>
        <time>2021-08-13T09:00:03Z</time>
      </trkpt>
      <trkpt lat="47.01905" lon="6.59164">
        <ele>824.5</ele>
        <time>2021-08-13T09:00:04Z</time>
      </trkpt>
      <trkpt lat="47.01905" lon="6.59167">
        <ele>824.4</ele>
        <time>2021-08-13T09:00:05Z</time>
      </trkpt>
      <trkpt lat="47.01905" lon="6.5917">
        <ele>824.2</ele>
        <time>2021-08-13T09:00:06Z</time>
      </trkpt>
      <trkpt lat="47.01902" lon="6.59176">
        <ele>823.8</ele>
        <time>2021-08-13T09:00:08Z</time>
      </trkpt>
      <trkpt lat="47.019" lon="6.5918">
        <ele>823.5</ele>
        <time>2021-08-13T09:00:09Z</time>
      </trkpt>
      <trkpt lat="47.01897" lon="6.59186">
        <ele>823.1</ele>
        <time>2021-08-13T09:00:10Z</time>
      </trkpt>
      <trkpt lat="47.01894" lon="6.59196">
        <ele>822.5</ele>
        <time>2021-08-13T09:00:12Z</time>
      </trkpt>
      <trkpt lat="47.01893" lon="6.59201">
        <ele>822.3</ele>
        <time>2021-08-13T09:00:13Z</time>
      </trkpt>
      <trkpt lat="47.01891" lon="6.59205">
        <ele>822</ele>
        <time>2021-08-13T09:00:14Z</time>
      </trkpt>
      <trkpt lat="47.0189" lon="6.59207">
        <ele>821.8</ele>
        <time>2021-08-13T09:00:15Z</time>
      </trkpt>
      <trkpt lat="47.01889" lon="6.59212">
        <ele>821.6</ele>
        <time>2021-08-13T09:00:16Z</time>
      </trkpt>
      <trkpt lat="47.01888" lon="6.59216">
        <ele>821.4</ele>
        <time>2021-08-13T09:00:17Z</time>
      </trkpt>
      <trkpt lat="47.01886" lon="6.59224">
        <ele>820.9</ele>
        <time>2021-08-13T09:00:19Z</time>
      </trkpt>
      <trkpt lat="47.01881" lon="6.59234">
        <ele>820.2</ele>
        <time>2021-08-13T09:00:21Z</time>
      </trkpt>
      <trkpt lat="47.01877" lon="6.59242">
        <ele>819.8</ele>
        <time>2021-08-13T09:00:23Z</time>
      </trkpt>
      <trkpt lat="47.01876" lon="6.59246">
        <ele>819.5</ele>
        <time>2021-08-13T09:00:24Z</time>
      </trkpt>
      <trkpt lat="47.01875" lon="6.59251">
        <ele>819.3</ele>
        <time>2021-08-13T09:00:25Z</time>
      </trkpt>
      <trkpt lat="47.01874" lon="6.59259">
        <ele>818.9</ele>
        <time>2021-08-13T09:00:27Z</time>
      </trkpt>
      <trkpt lat="47.01872" lon="6.59267">
        <ele>818.5</ele>
        <time>2021-08-13T09:00:29Z</time>
      </trkpt>
      <trkpt lat="47.0187" lon="6.59271">
        <ele>818.3</ele>
        <time>2021-08-13T09:00:30Z</time>
      </trkpt>
      <trkpt lat="47.01869" lon="6.59275">
        <ele>818.1</ele>
        <time>2021-08-13T09:00:31Z</time>
      </trkpt>
      <trkpt lat="47.01867" lon="6.59281">
        <ele>817.8</ele>
        <time>2021-08-13T09:00:33Z</time>
      </trkpt>
      <trkpt lat="47.01864" lon="6.59288">
        <ele>817.5</ele>
        <time>2021-08-13T09:00:35Z</time>
      </trkpt>
      <trkpt lat="47.01862" lon="6.59292">
        <ele>817.3</ele>
        <time>2021-08-13T09:00:36Z</time>
      </trkpt>
      <trkpt lat="47.01857" lon="6.59301">
        <ele>816.7</ele>
        <time>2021-08-13T09:00:38Z</time>
      </trkpt>
      <trkpt lat="47.01855" lon="6.59306">
        <ele>816.5</ele>
        <time>2021-08-13T09:00:39Z</time>
      </trkpt>
      <trkpt lat="47.01849" lon="6.59316">
        <ele>816.3</ele>
        <time>2021-08-13T09:00:41Z</time>
      </trkpt>
      <trkpt lat="47.01843" lon="6.59329">
        <ele>816</ele>
        <time>2021-08-13T09:00:43Z</time>
      </trkpt>
      <trkpt lat="47.01838" lon="6.59336">
        <ele>815.9</ele>
        <time>2021-08-13T09:00:44Z</time>
      </trkpt>
      <trkpt lat="47.01833" lon="6.59342">
        <ele>815.8</ele>
        <time>2021-08-13T09:00:45Z</time>
      </trkpt>
      <trkpt lat="47.01823" lon="6.59349">
        <ele>815.8</ele>
        <time>2021-08-13T09:00:47Z</time>
      </trkpt>
      <trkpt lat="47.01818" lon="6.5935">
        <ele>815.9</ele>
        <time>2021-08-13T09:00:48Z</time>
      </trkpt>
      <trkpt lat="47.01815" lon="6.5935">
        <ele>815.9</ele>
        <time>2021-08-13T09:00:49Z</time>
      </trkpt>
      <trkpt lat="47.01811" lon="6.59344">
        <ele>816.6</ele>
        <time>2021-08-13T09:00:51Z</time>
      </trkpt>
      <trkpt lat="47.01811" lon="6.5934">
        <ele>817.1</ele>
        <time>2021-08-13T09:00:52Z</time>
      </trkpt>
      <trkpt lat="47.01811" lon="6.59338">
        <ele>817.2</ele>
        <time>2021-08-13T09:00:53Z</time>
      </trkpt>
      <trkpt lat="47.0181" lon="6.59334">
        <ele>817.3</ele>
        <time>2021-08-13T09:00:55Z</time>
      </trkpt>
      <trkpt lat="47.01809" lon="6.59332">
        <ele>817.4</ele>
        <time>2021-08-13T09:00:56Z</time>
      </trkpt>
      <trkpt lat="47.01807" lon="6.59328">
        <ele>817.5</ele>
        <time>2021-08-13T09:00:58Z</time>
      </trkpt>
      <trkpt lat="47.01806" lon="6.59321">
        <ele>817.8</ele>
        <time>2021-08-13T09:01:00Z</time>
      </trkpt>
      <trkpt lat="47.01806" lon="6.59319">
        <ele>817.8</ele>
        <time>2021-08-13T09:01:01Z</time>
      </trkpt>
      <trkpt lat="47.01806" lon="6.59314">
        <ele>818</ele>
        <time>2021-08-13T09:01:03Z</time>
      </trkpt>
      <trkpt lat="47.01806" lon="6.59312">
        <ele>818.1</ele>
        <time>2021-08-13T09:01:04Z</time>
      </trkpt>
      <trkpt lat="47.01807" lon="6.5931">
        <ele>818.1</ele>
        <time>2021-08-13T09:01:05Z</time>
      </trkpt>
      <trkpt lat="47.01807" lon="6.59306">
        <ele>818.3</ele>
        <time>2021-08-13T09:01:07Z</time>
      </trkpt>
      <trkpt lat="47.01806" lon="6.59304">
        <ele>818.4</ele>
        <time>2021-08-13T09:01:08Z</time>
      </trkpt>
      <trkpt lat="47.01805" lon="6.59303">
        <ele>818.5</ele>
        <time>2021-08-13T09:01:09Z</time>
      </trkpt>
      <trkpt lat="47.01804" lon="6.59299">
        <ele>818.6</ele>
        <time>2021-08-13T09:01:11Z</time>
      </trkpt>
      <trkpt lat="47.01803" lon="6.59295">
        <ele>818.8</ele>
        <time>2021-08-13T09:01:13Z</time>
      </trkpt>
      <trkpt lat="47.01804" lon="6.59294">
        <ele>818.8</ele>
        <time>2021-08-13T09:01:14Z</time>
      </trkpt>
      <trkpt lat="47.01805" lon="6.59292">
        <ele>818.9</ele>
        <time>2021-08-13T09:01:16Z</time>
      </trkpt>
      <trkpt lat="47.01804" lon="6.59288">
        <ele>819.1</ele>
        <time>2021-08-13T09:01:18Z</time>
      </trkpt>
      <trkpt lat="47.01803" lon="6.59286">
        <ele>819.2</ele>
        <time>2021-08-13T09:01:19Z</time>
      </trkpt>
      <trkpt lat="47.01802" lon="6.59282">
        <ele>819.4</ele>
        <time>2021-08-13T09:01:21Z</time>
      </trkpt>
      <trkpt lat="47.01801" lon="6.59277">
        <ele>819.5</ele>
        <time>2021-08-13T09:01:22Z</time>
      </trkpt>
      <trkpt lat="47.018" lon="6.59276">
        <ele>819.6</ele>
        <time>2021-08-13T09:01:23Z</time>
      </trkpt>
      <trkpt lat="47.01799" lon="6.59275">
        <ele>819.7</ele>
        <time>2021-08-13T09:01:25Z</time>
      </trkpt>
      <trkpt lat="47.01799" lon="6.59273">
        <ele>819.8</ele>
        <time>2021-08-13T09:01:26Z</time>
      </trkpt>
      <trkpt lat="47.01798" lon="6.59272">
        <ele>819.8</ele>
        <time>2021-08-13T09:01:27Z</time>
      </trkpt>
      <trkpt lat="47.01797" lon="6.59271">
        <ele>819.9</ele>
        <time>2021-08-13T09:01:28Z</time>
      </trkpt>
      <trkpt lat="47.01796" lon="6.59268">
        <ele>820</ele>
        <time>2021-08-13T09:01:29Z</time>
      </trkpt>
      <trkpt lat="47.01795" lon="6.59265">
        <ele>820.2</ele>
        <time>2021-08-13T09:01:31Z</time>
      </trkpt>
      <trkpt lat="47.01794" lon="6.59262">
        <ele>820.3</ele>
        <time>2021-08-13T09:01:32Z</time>
      </trkpt>
      <trkpt lat="47.01794" lon="6.5926">
        <ele>820.4</ele>
        <time>2021-08-13T09:01:34Z</time>
      </trkpt>
      <trkpt lat="47.01793" lon="6.59259">
        <ele>820.5</ele>
        <time>2021-08-13T09:01:35Z</time>
      </trkpt>
      <trkpt lat="47.01791" lon="6.59256">
        <ele>820.6</ele>
        <time>2021-08-13T09:01:36Z</time>
      </trkpt>
      <trkpt lat="47.01789" lon="6.59253">
        <ele>820.8</ele>
        <time>2021-08-13T09:01:37Z</time>
      </trkpt>
      <trkpt lat="47.01788" lon="6.59252">
        <ele>820.9</ele>
        <time>2021-08-13T09:01:38Z</time>
      </trkpt>
      <trkpt lat="47.01785" lon="6.59249">
        <ele>821.1</ele>
        <time>2021-08-13T09:01:40Z</time>
      </trkpt>
      <trkpt lat="47.01785" lon="6.59247">
        <ele>821.2</ele>
        <time>2021-08-13T09:01:41Z</time>
      </trkpt>
      <trkpt lat="47.01783" lon="6.59245">
        <ele>821.3</ele>
        <time>2021-08-13T09:01:43Z</time>
      </trkpt>
      <trkpt lat="47.01782" lon="6.59242">
        <ele>821.4</ele>
        <time>2021-08-13T09:01:44Z</time>
      </trkpt>
      <trkpt lat="47.01781" lon="6.5924">
        <ele>821.5</ele>
        <time>2021-08-13T09:01:46Z</time>
      </trkpt>
      <trkpt lat="47.01779" lon="6.59239">
        <ele>821.6</ele>
        <time>2021-08-13T09:01:47Z</time>
      </trkpt>
      <trkpt lat="47.01778" lon="6.59237">
        <ele>821.7</ele>
        <time>2021-08-13T09:01:48Z</time>
      </trkpt>
      <trkpt lat="47.01778" lon="6.59233">
        <ele>821.8</ele>
        <time>2021-08-13T09:01:50Z</time>
      </trkpt>
      <trkpt lat="47.01777" lon="6.59232">
        <ele>821.9</ele>
        <time>2021-08-13T09:01:51Z</time>
      </trkpt>
      <trkpt lat="47.01776" lon="6.5923">
        <ele>822</ele>
        <time>2021-08-13T09:01:53Z</time>
      </trkpt>
      <trkpt lat="47.01775" lon="6.59229">
        <ele>822</ele>
        <time>2021-08-13T09:01:54Z</time>
      </trkpt>
      <trkpt lat="47.01774" lon="6.59228">
        <ele>822.1</ele>
        <time>2021-08-13T09:01:55Z</time>
      </trkpt>
      <trkpt lat="47.01773" lon="6.59226">
        <ele>822.1</ele>
        <time>2021-08-13T09:01:56Z</time>
      </trkpt>
      <trkpt lat="47.01771" lon="6.59224">
        <ele>822.3</ele>
        <time>2021-08-13T09:01:58Z</time>
      </trkpt>
      <trkpt lat="47.0177" lon="6.59223">
        <ele>822.4</ele>
        <time>2021-08-13T09:01:59Z</time>
      </trkpt>
      <trkpt lat="47.01769" lon="6.59221">
        <ele>822.4</ele>
        <time>2021-08-13T09:02:00Z</time>
      </trkpt>
      <trkpt lat="47.01767" lon="6.59219">
        <ele>822.5</ele>
        <time>2021-08-13T09:02:01Z</time>
      </trkpt>
      <trkpt lat="47.01767" lon="6.59218">
        <ele>822.6</ele>
        <time>2021-08-13T09:02:03Z</time>
      </trkpt>
      <trkpt lat="47.01766" lon="6.59217">
        <ele>822.6</ele>
        <time>2021-08-13T09:02:04Z</time>
      </trkpt>
      <trkpt lat="47.01765" lon="6.59216">
        <ele>822.7</ele>
        <time>2021-08-13T09:02:05Z</time>
      </trkpt>
      <trkpt lat="47.01764" lon="6.59215">
        <ele>822.8</ele>
        <time>2021-08-13T09:02:06Z</time>
      </trkpt>
      <trkpt lat="47.01763" lon="6.59213">
        <ele>822.8</ele>
        <time>2021-08-13T09:02:08Z</time>
      </trkpt>
      <trkpt lat="47.01761" lon="6.59212">
        <ele>822.9</ele>
        <time>2021-08-13T09:02:09Z</time>
      </trkpt>
      <trkpt lat="47.01759" lon="6.59211">
        <ele>823</ele>
        <time>2021-08-13T09:02:10Z</time>
      </trkpt>
      <trkpt lat="47.01755" lon="6.59209">
        <ele>823.2</ele>
        <time>2021-08-13T09:02:12Z</time>
      </trkpt>
      <trkpt lat="47.01752" lon="6.59207">
        <ele>823.4</ele>
        <time>2021-08-13T09:02:13Z</time>
      </trkpt>
      <trkpt lat="47.0175" lon="6.59205">
        <ele>823.5</ele>
        <time>2021-08-13T09:02:14Z</time>
      </trkpt>
      <trkpt lat="47.0175" lon="6.59205">
        <ele>823.5</ele>
        <time>2021-08-13T09:02:16Z</time>
      </trkpt>
      <trkpt lat="47.0175" lon="6.59204">
        <ele>823.5</ele>
        <time>2021-08-13T09:02:17Z</time>
      </trkpt>
      <trkpt lat="47.01749" lon="6.59203">
        <ele>823.6</ele>
        <time>2021-08-13T09:02:18Z</time>
      </trkpt>
      <trkpt lat="47.01748" lon="6.59202">
        <ele>823.6</ele>
        <time>2021-08-13T09:02:20Z</time>
      </trkpt>
      <trkpt lat="47.01747" lon="6.59202">
        <ele>823.7</ele>
        <time>2021-08-13T09:02:21Z</time>
      </trkpt>
      <trkpt lat="47.01746" lon="6.59201">
        <ele>823.7</ele>
        <time>2021-08-13T09:02:22Z</time>
      </trkpt>
      <trkpt lat="47.01744" lon="6.59199">
        <ele>823.8</ele>
        <time>2021-08-13T09:02:24Z</time>
      </trkpt>
      <trkpt lat="47.01742" lon="6.59197">
        <ele>824</ele>
        <time>2021-08-13T09:02:27Z</time>
      </trkpt>
      <trkpt lat="47.0174" lon="6.59194">
        <ele>824.1</ele>
        <time>2021-08-13T09:02:28Z</time>
      </trkpt>
      <trkpt lat="47.01737" lon="6.59191">
        <ele>824.2</ele>
        <time>2021-08-13T09:02:30Z</time>
      </trkpt>
      <trkpt lat="47.01734" lon="6.59187">
        <ele>824.4</ele>
        <time>2021-08-13T09:02:31Z</time>
      </trkpt>
      <trkpt lat="47.01734" lon="6.59186">
        <ele>824.4</ele>
        <time>2021-08-13T09:02:32Z</time>
      </trkpt>
      <trkpt lat="47.01731" lon="6.59182">
        <ele>824.6</ele>
        <time>2021-08-13T09:02:33Z</time>
      </trkpt>
      <trkpt lat="47.01731" lon="6.59181">
        <ele>824.6</ele>
        <time>2021-08-13T09:02:34Z</time>
      </trkpt>
      <trkpt lat="47.0173" lon="6.59179">
        <ele>824.7</ele>
        <time>2021-08-13T09:02:36Z</time>
      </trkpt>
      <trkpt lat="47.01728" lon="6.59179">
        <ele>824.8</ele>
        <time>2021-08-13T09:02:37Z</time>
      </trkpt>
      <trkpt lat="47.01727" lon="6.59177">
        <ele>824.9</ele>
        <time>2021-08-13T09:02:38Z</time>
      </trkpt>
      <trkpt lat="47.01726" lon="6.59176">
        <ele>824.9</ele>
        <time>2021-08-13T09:02:40Z</time>
      </trkpt>
      <trkpt lat="47.01726" lon="6.59176">
        <ele>824.9</ele>
        <time>2021-08-13T09:02:41Z</time>
      </trkpt>
      <trkpt lat="47.01725" lon="6.59175">
        <ele>825</ele>
        <time>2021-08-13T09:02:42Z</time>
      </trkpt>
      <trkpt lat="47.01723" lon="6.59172">
        <ele>825.1</ele>
        <time>2021-08-13T09:02:44Z</time>
      </trkpt>
      <trkpt lat="47.0172" lon="6.59169">
        <ele>825.3</ele>
        <time>2021-08-13T09:02:45Z</time>
      </trkpt>
      <trkpt lat="47.01719" lon="6.59168">
        <ele>825.3</ele>
        <time>2021-08-13T09:02:46Z</time>
      </trkpt>
      <trkpt lat="47.01716" lon="6.59166">
        <ele>825.4</ele>
        <time>2021-08-13T09:02:48Z</time>
      </trkpt>
      <trkpt lat="47.01715" lon="6.59165">
        <ele>825.5</ele>
        <time>2021-08-13T09:02:49Z</time>
      </trkpt>
      <trkpt lat="47.01714" lon="6.59163">
        <ele>825.6</ele>
        <time>2021-08-13T09:02:50Z</time>
      </trkpt>
      <trkpt lat="47.01712" lon="6.59161">
        <ele>825.7</ele>
        <time>2021-08-13T09:02:52Z</time>
      </trkpt>
      <trkpt lat="47.01712" lon="6.5916">
        <ele>825.7</ele>
        <time>2021-08-13T09:02:53Z</time>
      </trkpt>
      <trkpt lat="47.01711" lon="6.59159">
        <ele>825.8</ele>
        <time>2021-08-13T09:02:54Z</time>
      </trkpt>
      <trkpt lat="47.0171" lon="6.59157">
        <ele>825.8</ele>
        <time>2021-08-13T09:02:55Z</time>
      </trkpt>
      <trkpt lat="47.01709" lon="6.59154">
        <ele>826</ele>
        <time>2021-08-13T09:02:57Z</time>
      </trkpt>
      <trkpt lat="47.01707" lon="6.5915">
        <ele>826.1</ele>
        <time>2021-08-13T09:02:58Z</time>
      </trkpt>
      <trkpt lat="47.01707" lon="6.59149">
        <ele>826.1</ele>
        <time>2021-08-13T09:02:59Z</time>
      </trkpt>
      <trkpt lat="47.01706" lon="6.59145">
        <ele>826.3</ele>
        <time>2021-08-13T09:03:00Z</time>
      </trkpt>
      <trkpt lat="47.01706" lon="6.59143">
        <ele>826.3</ele>
        <time>2021-08-13T09:03:01Z</time>
      </trkpt>
      <trkpt lat="47.01704" lon="6.59136">
        <ele>826.6</ele>
        <time>2021-08-13T09:03:03Z</time>
      </trkpt>
      <trkpt lat="47.01704" lon="6.59134">
        <ele>826.7</ele>
        <time>2021-08-13T09:03:05Z</time>
      </trkpt>
      <trkpt lat="47.01703" lon="6.59131">
        <ele>826.8</ele>
        <time>2021-08-13T09:03:06Z</time>
      </trkpt>
      <trkpt lat="47.01701" lon="6.59128">
        <ele>826.9</ele>
        <time>2021-08-13T09:03:08Z</time>
      </trkpt>
      <trkpt lat="47.017" lon="6.59126">
        <ele>827</ele>
        <time>2021-08-13T09:03:09Z</time>
      </trkpt>
      <trkpt lat="47.01698" lon="6.59124">
        <ele>827.2</ele>
        <time>2021-08-13T09:03:11Z</time>
      </trkpt>
      <trkpt lat="47.01699" lon="6.59124">
        <ele>827.2</ele>
        <time>2021-08-13T09:03:12Z</time>
      </trkpt>
      <trkpt lat="47.01697" lon="6.59123">
        <ele>827.3</ele>
        <time>2021-08-13T09:03:14Z</time>
      </trkpt>
      <trkpt lat="47.01696" lon="6.59122">
        <ele>827.3</ele>
        <time>2021-08-13T09:03:15Z</time>
      </trkpt>
      <trkpt lat="47.01696" lon="6.59123">
        <ele>827.4</ele>
        <time>2021-08-13T09:03:16Z</time>
      </trkpt>
      <trkpt lat="47.01695" lon="6.59124">
        <ele>827.4</ele>
        <time>2021-08-13T09:03:18Z</time>
      </trkpt>
      <trkpt lat="47.01694" lon="6.59124">
        <ele>827.5</ele>
        <time>2021-08-13T09:03:19Z</time>
      </trkpt>
      <trkpt lat="47.01692" lon="6.59122">
        <ele>827.6</ele>
        <time>2021-08-13T09:03:20Z</time>
      </trkpt>
      <trkpt lat="47.01689" lon="6.59122">
        <ele>827.8</ele>
        <time>2021-08-13T09:03:21Z</time>
      </trkpt>
      <trkpt lat="47.01685" lon="6.59123">
        <ele>828.1</ele>
        <time>2021-08-13T09:03:23Z</time>
      </trkpt>
      <trkpt lat="47.01684" lon="6.59122">
        <ele>828.2</ele>
        <time>2021-08-13T09:03:24Z</time>
      </trkpt>
      <trkpt lat="47.01682" lon="6.59122">
        <ele>828.3</ele>
        <time>2021-08-13T09:03:26Z</time>
      </trkpt>
      <trkpt lat="47.01682" lon="6.59121">
        <ele>828.4</ele>
        <time>2021-08-13T09:03:27Z</time>
      </trkpt>
      <trkpt lat="47.01682" lon="6.5912">
        <ele>828.4</ele>
        <time>2021-08-13T09:03:29Z</time>
      </trkpt>
      <trkpt lat="47.01681" lon="6.5912">
        <ele>828.5</ele>
        <time>2021-08-13T09:03:30Z</time>
      </trkpt>
      <trkpt lat="47.01681" lon="6.59119">
        <ele>828.5</ele>
        <time>2021-08-13T09:03:31Z</time>
      </trkpt>
      <trkpt lat="47.0168" lon="6.59119">
        <ele>828.5</ele>
        <time>2021-08-13T09:03:33Z</time>
      </trkpt>
      <trkpt lat="47.0168" lon="6.59119">
        <ele>828.5</ele>
        <time>2021-08-13T09:03:34Z</time>
      </trkpt>
      <trkpt lat="47.0164" lon="6.59127">
        <ele>832.4</ele>
        <time>2021-08-13T09:04:26Z</time>
      </trkpt>
      <trkpt lat="47.01638" lon="6.59126">
        <ele>832.6</ele>
        <time>2021-08-13T09:04:27Z</time>
      </trkpt>
      <trkpt lat="47.01637" lon="6.59126">
        <ele>832.7</ele>
        <time>2021-08-13T09:04:29Z</time>
      </trkpt>
      <trkpt lat="47.01636" lon="6.59126">
        <ele>832.9</ele>
        <time>2021-08-13T09:04:30Z</time>
      </trkpt>
      <trkpt lat="47.01634" lon="6.59125">
        <ele>833</ele>
        <time>2021-08-13T09:04:31Z</time>
      </trkpt>
      <trkpt lat="47.01631" lon="6.59124">
        <ele>833.3</ele>
        <time>2021-08-13T09:04:33Z</time>
      </trkpt>
      <trkpt lat="47.01631" lon="6.59123">
        <ele>833.4</ele>
        <time>2021-08-13T09:04:34Z</time>
      </trkpt>
      <trkpt lat="47.0163" lon="6.59123">
        <ele>833.5</ele>
        <time>2021-08-13T09:04:35Z</time>
      </trkpt>
      <trkpt lat="47.0163" lon="6.59122">
        <ele>833.5</ele>
        <time>2021-08-13T09:04:37Z</time>
      </trkpt>
      <trkpt lat="47.0163" lon="6.59122">
        <ele>833.6</ele>
        <time>2021-08-13T09:04:38Z</time>
      </trkpt>
      <trkpt lat="47.0163" lon="6.59121">
        <ele>833.6</ele>
        <time>2021-08-13T09:04:39Z</time>
      </trkpt>
      <trkpt lat="47.01631" lon="6.59121">
        <ele>833.7</ele>
        <time>2021-08-13T09:04:41Z</time>
      </trkpt>
      <trkpt lat="47.01632" lon="6.5912">
        <ele>833.8</ele>
        <time>2021-08-13T09:04:42Z</time>
      </trkpt>
      <trkpt lat="47.01632" lon="6.5912">
        <ele>833.9</ele>
        <time>2021-08-13T09:04:44Z</time>
      </trkpt>
      <trkpt lat="47.01633" lon="6.59119">
        <ele>833.9</ele>
        <time>2021-08-13T09:04:45Z</time>
      </trkpt>
      <trkpt lat="47.01633" lon="6.59118">
        <ele>834.1</ele>
        <time>2021-08-13T09:04:46Z</time>
      </trkpt>
      <trkpt lat="47.01632" lon="6.59114">
        <ele>834.3</ele>
        <time>2021-08-13T09:04:48Z</time>
      </trkpt>
      <trkpt lat="47.01629" lon="6.59109">
        <ele>834.8</ele>
        <time>2021-08-13T09:04:49Z</time>
      </trkpt>
      <trkpt lat="47.01628" lon="6.59107">
        <ele>835</ele>
        <time>2021-08-13T09:04:50Z</time>
      </trkpt>
      <trkpt lat="47.01625" lon="6.59105">
        <ele>835.3</ele>
        <time>2021-08-13T09:04:51Z</time>
      </trkpt>
      <trkpt lat="47.01623" lon="6.59103">
        <ele>835.5</ele>
        <time>2021-08-13T09:04:52Z</time>
      </trkpt>
      <trkpt lat="47.01622" lon="6.59099">
        <ele>835.8</ele>
        <time>2021-08-13T09:04:54Z</time>
      </trkpt>
      <trkpt lat="47.01621" lon="6.59097">
        <ele>836</ele>
        <time>2021-08-13T09:04:55Z</time>
      </trkpt>
      <trkpt lat="47.01619" lon="6.59094">
        <ele>836.3</ele>
        <time>2021-08-13T09:04:57Z</time>
      </trkpt>
      <trkpt lat="47.01617" lon="6.59092">
        <ele>836.6</ele>
        <time>2021-08-13T09:04:58Z</time>
      </trkpt>
      <trkpt lat="47.01615" lon="6.59091">
        <ele>836.7</ele>
        <time>2021-08-13T09:04:59Z</time>
      </trkpt>
      <trkpt lat="47.01612" lon="6.5909">
        <ele>837</ele>
        <time>2021-08-13T09:05:01Z</time>
      </trkpt>
      <trkpt lat="47.01611" lon="6.5909">
        <ele>837.2</ele>
        <time>2021-08-13T09:05:02Z</time>
      </trkpt>
      <trkpt lat="47.01607" lon="6.5909">
        <ele>837.5</ele>
        <time>2021-08-13T09:05:04Z</time>
      </trkpt>
      <trkpt lat="47.01604" lon="6.5909">
        <ele>837.8</ele>
        <time>2021-08-13T09:05:05Z</time>
      </trkpt>
      <trkpt lat="47.01604" lon="6.5909">
        <ele>837.9</ele>
        <time>2021-08-13T09:05:06Z</time>
      </trkpt>
      <trkpt lat="47.01603" lon="6.5909">
        <ele>838</ele>
        <time>2021-08-13T09:05:07Z</time>
      </trkpt>
      <trkpt lat="47.01602" lon="6.5909">
        <ele>838.1</ele>
        <time>2021-08-13T09:05:08Z</time>
      </trkpt>
      <trkpt lat="47.01601" lon="6.5909">
        <ele>838.2</ele>
        <time>2021-08-13T09:05:10Z</time>
      </trkpt>
      <trkpt lat="47.016" lon="6.5909">
        <ele>838.3</ele>
        <time>2021-08-13T09:05:11Z</time>
      </trkpt>
      <trkpt lat="47.016" lon="6.5909">
        <ele>838.3</ele>
        <time>2021-08-13T09:05:13Z</time>
      </trkpt>
      <trkpt lat="47.01599" lon="6.5909">
        <ele>838.4</ele>
        <time>2021-08-13T09:05:14Z</time>
      </trkpt>
      <trkpt lat="47.01599" lon="6.5909">
        <ele>838.4</ele>
        <time>2021-08-13T09:05:16Z</time>
      </trkpt>
      <trkpt lat="47.01599" lon="6.59089">
        <ele>838.4</ele>
        <time>2021-08-13T09:05:17Z</time>
      </trkpt>
      <trkpt lat="47.01598" lon="6.59089">
        <ele>838.5</ele>
        <time>2021-08-13T09:05:18Z</time>
      </trkpt>
      <trkpt lat="47.01598" lon="6.59089">
        <ele>838.5</ele>
        <time>2021-08-13T09:05:20Z</time>
      </trkpt>
      <trkpt lat="47.01598" lon="6.59089">
        <ele>838.5</ele>
        <time>2021-08-13T09:05:21Z</time>
      </trkpt>
      <trkpt lat="47.01597" lon="6.59089">
        <ele>838.6</ele>
        <time>2021-08-13T09:05:22Z</time>
      </trkpt>
      <trkpt lat="47.01596" lon="6.59089">
        <ele>838.7</ele>
        <time>2021-08-13T09:05:23Z</time>
      </trkpt>
      <trkpt lat="47.01594" lon="6.59087">
        <ele>838.9</ele>
        <time>2021-08-13T09:05:25Z</time>
      </trkpt>
      <trkpt lat="47.01593" lon="6.59086">
        <ele>839.1</ele>
        <time>2021-08-13T09:05:26Z</time>
      </trkpt>
      <trkpt lat="47.01592" lon="6.59086">
        <ele>839.2</ele>
        <time>2021-08-13T09:05:27Z</time>
      </trkpt>
      <trkpt lat="47.01591" lon="6.59085">
        <ele>839.3</ele>
        <time>2021-08-13T09:05:29Z</time>
      </trkpt>
      <trkpt lat="47.01591" lon="6.59085">
        <ele>839.3</ele>
        <time>2021-08-13T09:05:30Z</time>
      </trkpt>
      <trkpt lat="47.0159" lon="6.59084">
        <ele>839.4</ele>
        <time>2021-08-13T09:05:31Z</time>
      </trkpt>
      <trkpt lat="47.0159" lon="6.59084">
        <ele>839.4</ele>
        <time>2021-08-13T09:05:32Z</time>
      </trkpt>
      <trkpt lat="47.01589" lon="6.59084">
        <ele>839.5</ele>
        <time>2021-08-13T09:05:34Z</time>
      </trkpt>
      <trkpt lat="47.01589" lon="6.59084">
        <ele>839.5</ele>
        <time>2021-08-13T09:05:35Z</time>
      </trkpt>
      <trkpt lat="47.01589" lon="6.59083">
        <ele>839.5</ele>
        <time>2021-08-13T09:05:36Z</time>
      </trkpt>
      <trkpt lat="47.01588" lon="6.59083">
        <ele>839.6</ele>
        <time>2021-08-13T09:05:38Z</time>
      </trkpt>
      <trkpt lat="47.01588" lon="6.59085">
        <ele>839.7</ele>
        <time>2021-08-13T09:05:39Z</time>
      </trkpt>
      <trkpt lat="47.01587" lon="6.59087">
        <ele>839.9</ele>
        <time>2021-08-13T09:05:41Z</time>
      </trkpt>
      <trkpt lat="47.01587" lon="6.5909">
        <ele>840</ele>
        <time>2021-08-13T09:05:42Z</time>
      </trkpt>
      <trkpt lat="47.01587" lon="6.59092">
        <ele>840.2</ele>
        <time>2021-08-13T09:05:44Z</time>
      </trkpt>
      <trkpt lat="47.01586" lon="6.59094">
        <ele>840.3</ele>
        <time>2021-08-13T09:05:45Z</time>
      </trkpt>
      <trkpt lat="47.01585" lon="6.59095">
        <ele>840.5</ele>
        <time>2021-08-13T09:05:47Z</time>
      </trkpt>
      <trkpt lat="47.01584" lon="6.59095">
        <ele>840.5</ele>
        <time>2021-08-13T09:05:48Z</time>
      </trkpt>
      <trkpt lat="47.01583" lon="6.59095">
        <ele>840.6</ele>
        <time>2021-08-13T09:05:50Z</time>
      </trkpt>
      <trkpt lat="47.01583" lon="6.59095">
        <ele>840.7</ele>
        <time>2021-08-13T09:05:51Z</time>
      </trkpt>
      <trkpt lat="47.01582" lon="6.59095">
        <ele>840.8</ele>
        <time>2021-08-13T09:05:53Z</time>
      </trkpt>
      <trkpt lat="47.01581" lon="6.59095">
        <ele>840.8</ele>
        <time>2021-08-13T09:05:54Z</time>
      </trkpt>
      <trkpt lat="47.0158" lon="6.59094">
        <ele>841</ele>
        <time>2021-08-13T09:05:56Z</time>
      </trkpt>
      <trkpt lat="47.01579" lon="6.59094">
        <ele>841.1</ele>
        <time>2021-08-13T09:05:58Z</time>
      </trkpt>
      <trkpt lat="47.01579" lon="6.59094">
        <ele>841.1</ele>
        <time>2021-08-13T09:05:59Z</time>
      </trkpt>
      <trkpt lat="47.01578" lon="6.59093">
        <ele>841.2</ele>
        <time>2021-08-13T09:06:01Z</time>
      </trkpt>
      <trkpt lat="47.01577" lon="6.59093">
        <ele>841.3</ele>
        <time>2021-08-13T09:06:02Z</time>
      </trkpt>
      <trkpt lat="47.01576" lon="6.59092">
        <ele>841.4</ele>
        <time>2021-08-13T09:06:04Z</time>
      </trkpt>
      <trkpt lat="47.01575" lon="6.59092">
        <ele>841.5</ele>
        <time>2021-08-13T09:06:05Z</time>
      </trkpt>
      <trkpt lat="47.01574" lon="6.59092">
        <ele>841.6</ele>
        <time>2021-08-13T09:06:06Z</time>
      </trkpt>
      <trkpt lat="47.01574" lon="6.59092">
        <ele>841.7</ele>
        <time>2021-08-13T09:06:08Z</time>
      </trkpt>
      <trkpt lat="47.01573" lon="6.59093">
        <ele>841.7</ele>
        <time>2021-08-13T09:06:09Z</time>
      </trkpt>
      <trkpt lat="47.01572" lon="6.59093">
        <ele>841.8</ele>
        <time>2021-08-13T09:06:10Z</time>
      </trkpt>
      <trkpt lat="47.01571" lon="6.59093">
        <ele>841.9</ele>
        <time>2021-08-13T09:06:11Z</time>
      </trkpt>
      <trkpt lat="47.0157" lon="6.59095">
        <ele>842.1</ele>
        <time>2021-08-13T09:06:13Z</time>
      </trkpt>
      <trkpt lat="47.01569" lon="6.59096">
        <ele>842.2</ele>
        <time>2021-08-13T09:06:14Z</time>
      </trkpt>
      <trkpt lat="47.01567" lon="6.59097">
        <ele>842.5</ele>
        <time>2021-08-13T09:06:15Z</time>
      </trkpt>
      <trkpt lat="47.01565" lon="6.59097">
        <ele>842.6</ele>
        <time>2021-08-13T09:06:17Z</time>
      </trkpt>
      <trkpt lat="47.01564" lon="6.59097">
        <ele>842.7</ele>
        <time>2021-08-13T09:06:19Z</time>
      </trkpt>
      <trkpt lat="47.01563" lon="6.59096">
        <ele>842.9</ele>
        <time>2021-08-13T09:06:20Z</time>
      </trkpt>
      <trkpt lat="47.01562" lon="6.59096">
        <ele>843</ele>
        <time>2021-08-13T09:06:21Z</time>
      </trkpt>
      <trkpt lat="47.01561" lon="6.59095">
        <ele>843</ele>
        <time>2021-08-13T09:06:22Z</time>
      </trkpt>
      <trkpt lat="47.0156" lon="6.59095">
        <ele>843.1</ele>
        <time>2021-08-13T09:06:24Z</time>
      </trkpt>
      <trkpt lat="47.0156" lon="6.59095">
        <ele>843.1</ele>
        <time>2021-08-13T09:06:25Z</time>
      </trkpt>
      <trkpt lat="47.0156" lon="6.59094">
        <ele>843.2</ele>
        <time>2021-08-13T09:06:27Z</time>
      </trkpt>
      <trkpt lat="47.0156" lon="6.59094">
        <ele>843.2</ele>
        <time>2021-08-13T09:06:28Z</time>
      </trkpt>
      <trkpt lat="47.0156" lon="6.59094">
        <ele>843.2</ele>
        <time>2021-08-13T09:06:30Z</time>
      </trkpt>
      <trkpt lat="47.01559" lon="6.59094">
        <ele>843.2</ele>
        <time>2021-08-13T09:06:31Z</time>
      </trkpt>
      <trkpt lat="47.01559" lon="6.59094">
        <ele>843.3</ele>
        <time>2021-08-13T09:06:33Z</time>
      </trkpt>
      <trkpt lat="47.01559" lon="6.59094">
        <ele>843.3</ele>
        <time>2021-08-13T09:06:34Z</time>
      </trkpt>
      <trkpt lat="47.01559" lon="6.59094">
        <ele>843.3</ele>
        <time>2021-08-13T09:06:35Z</time>
      </trkpt>
      <trkpt lat="47.01559" lon="6.59094">
        <ele>843.3</ele>
        <time>2021-08-13T09:06:36Z</time>
      </trkpt>
      <trkpt lat="47.01559" lon="6.59094">
        <ele>843.3</ele>
        <time>2021-08-13T09:06:37Z</time>
      </trkpt>
      <trkpt lat="47.01559" lon="6.59094">
        <ele>843.3</ele>
        <time>2021-08-13T09:06:39Z</time>
      </trkpt>
      <trkpt lat="47.01559" lon="6.59094">
        <ele>843.3</ele>
        <time>2021-08-13T09:06:41Z</time>
      </trkpt>
      <trkpt lat="47.01558" lon="6.59094">
        <ele>843.4</ele>
        <time>2021-08-13T09:06:42Z</time>
      </trkpt>
      <trkpt lat="47.01557" lon="6.59095">
        <ele>843.5</ele>
        <time>2021-08-13T09:06:44Z</time>
      </trkpt>
      <trkpt lat="47.01555" lon="6.59097">
        <ele>843.7</ele>
        <time>2021-08-13T09:06:46Z</time>
      </trkpt>
      <trkpt lat="47.01553" lon="6.59098">
        <ele>843.9</ele>
        <time>2021-08-13T09:06:47Z</time>
      </trkpt>
      <trkpt lat="47.01552" lon="6.59099">
        <ele>844</ele>
        <time>2021-08-13T09:06:49Z</time>
      </trkpt>
      <trkpt lat="47.01551" lon="6.591">
        <ele>844.2</ele>
        <time>2021-08-13T09:06:51Z</time>
      </trkpt>
      <trkpt lat="47.0155" lon="6.59101">
        <ele>844.3</ele>
        <time>2021-08-13T09:06:52Z</time>
      </trkpt>
      <trkpt lat="47.01549" lon="6.59102">
        <ele>844.4</ele>
        <time>2021-08-13T09:06:53Z</time>
      </trkpt>
      <trkpt lat="47.01548" lon="6.59103">
        <ele>844.6</ele>
        <time>2021-08-13T09:06:55Z</time>
      </trkpt>
      <trkpt lat="47.01547" lon="6.59104">
        <ele>844.7</ele>
        <time>2021-08-13T09:06:57Z</time>
      </trkpt>
      <trkpt lat="47.01546" lon="6.59104">
        <ele>844.7</ele>
        <time>2021-08-13T09:06:58Z</time>
      </trkpt>
      <trkpt lat="47.01546" lon="6.59104">
        <ele>844.8</ele>
        <time>2021-08-13T09:07:00Z</time>
      </trkpt>
      <trkpt lat="47.01546" lon="6.59104">
        <ele>844.8</ele>
        <time>2021-08-13T09:07:01Z</time>
      </trkpt>
      <trkpt lat="47.01545" lon="6.59104">
        <ele>844.9</ele>
        <time>2021-08-13T09:07:03Z</time>
      </trkpt>
      <trkpt lat="47.01545" lon="6.59104">
        <ele>844.9</ele>
        <time>2021-08-13T09:07:04Z</time>
      </trkpt>
      <trkpt lat="47.01544" lon="6.59104">
        <ele>845</ele>
        <time>2021-08-13T09:07:05Z</time>
      </trkpt>
      <trkpt lat="47.01542" lon="6.59102">
        <ele>845.2</ele>
        <time>2021-08-13T09:07:07Z</time>
      </trkpt>
      <trkpt lat="47.01541" lon="6.59101">
        <ele>845.4</ele>
        <time>2021-08-13T09:07:08Z</time>
      </trkpt>
      <trkpt lat="47.01538" lon="6.591">
        <ele>845.7</ele>
        <time>2021-08-13T09:07:10Z</time>
      </trkpt>
      <trkpt lat="47.01537" lon="6.59099">
        <ele>845.8</ele>
        <time>2021-08-13T09:07:12Z</time>
      </trkpt>
      <trkpt lat="47.01535" lon="6.59098">
        <ele>846</ele>
        <time>2021-08-13T09:07:14Z</time>
      </trkpt>
      <trkpt lat="47.01534" lon="6.59098">
        <ele>846.1</ele>
        <time>2021-08-13T09:07:15Z</time>
      </trkpt>
      <trkpt lat="47.0153" lon="6.59097">
        <ele>846.5</ele>
        <time>2021-08-13T09:07:17Z</time>
      </trkpt>
      <trkpt lat="47.01527" lon="6.59096">
        <ele>846.9</ele>
        <time>2021-08-13T09:07:18Z</time>
      </trkpt>
      <trkpt lat="47.01526" lon="6.59095">
        <ele>846.9</ele>
        <time>2021-08-13T09:07:19Z</time>
      </trkpt>
      <trkpt lat="47.01524" lon="6.59094">
        <ele>847.2</ele>
        <time>2021-08-13T09:07:21Z</time>
      </trkpt>
      <trkpt lat="47.01523" lon="6.59094">
        <ele>847.3</ele>
        <time>2021-08-13T09:07:22Z</time>
      </trkpt>
      <trkpt lat="47.01521" lon="6.59093">
        <ele>847.4</ele>
        <time>2021-08-13T09:07:24Z</time>
      </trkpt>
      <trkpt lat="47.01521" lon="6.59093">
        <ele>847.5</ele>
        <time>2021-08-13T09:07:25Z</time>
      </trkpt>
      <trkpt lat="47.0152" lon="6.59093">
        <ele>847.6</ele>
        <time>2021-08-13T09:07:27Z</time>
      </trkpt>
      <trkpt lat="47.0152" lon="6.59093">
        <ele>847.6</ele>
        <time>2021-08-13T09:07:28Z</time>
      </trkpt>
      <trkpt lat="47.01519" lon="6.59093">
        <ele>847.6</ele>
        <time>2021-08-13T09:07:30Z</time>
      </trkpt>
      <trkpt lat="47.01519" lon="6.59093">
        <ele>847.7</ele>
        <time>2021-08-13T09:07:31Z</time>
      </trkpt>
      <trkpt lat="47.01517" lon="6.59095">
        <ele>847.9</ele>
        <time>2021-08-13T09:07:32Z</time>
      </trkpt>
      <trkpt lat="47.01516" lon="6.59096">
        <ele>848.1</ele>
        <time>2021-08-13T09:07:33Z</time>
      </trkpt>
      <trkpt lat="47.01514" lon="6.59098">
        <ele>848.3</ele>
        <time>2021-08-13T09:07:35Z</time>
      </trkpt>
      <trkpt lat="47.01513" lon="6.591">
        <ele>848.5</ele>
        <time>2021-08-13T09:07:36Z</time>
      </trkpt>
      <trkpt lat="47.01513" lon="6.591">
        <ele>848.5</ele>
        <time>2021-08-13T09:07:37Z</time>
      </trkpt>
      <trkpt lat="47.01512" lon="6.59102">
        <ele>848.7</ele>
        <time>2021-08-13T09:07:39Z</time>
      </trkpt>
      <trkpt lat="47.01512" lon="6.59103">
        <ele>848.7</ele>
        <time>2021-08-13T09:07:40Z</time>
      </trkpt>
      <trkpt lat="47.01511" lon="6.59104">
        <ele>848.8</ele>
        <time>2021-08-13T09:07:42Z</time>
      </trkpt>
      <trkpt lat="47.0151" lon="6.59105">
        <ele>849</ele>
        <time>2021-08-13T09:07:43Z</time>
      </trkpt>
      <trkpt lat="47.01509" lon="6.59106">
        <ele>849.1</ele>
        <time>2021-08-13T09:07:45Z</time>
      </trkpt>
      <trkpt lat="47.01508" lon="6.59107">
        <ele>849.2</ele>
        <time>2021-08-13T09:07:46Z</time>
      </trkpt>
      <trkpt lat="47.01506" lon="6.59108">
        <ele>849.4</ele>
        <time>2021-08-13T09:07:47Z</time>
      </trkpt>
      <trkpt lat="47.01505" lon="6.5911">
        <ele>849.6</ele>
        <time>2021-08-13T09:07:49Z</time>
      </trkpt>
      <trkpt lat="47.01505" lon="6.5911">
        <ele>849.6</ele>
        <time>2021-08-13T09:07:50Z</time>
      </trkpt>
      <trkpt lat="47.01504" lon="6.5911">
        <ele>849.7</ele>
        <time>2021-08-13T09:07:51Z</time>
      </trkpt>
      <trkpt lat="47.01504" lon="6.59111">
        <ele>849.7</ele>
        <time>2021-08-13T09:07:52Z</time>
      </trkpt>
      <trkpt lat="47.01503" lon="6.59111">
        <ele>849.8</ele>
        <time>2021-08-13T09:07:54Z</time>
      </trkpt>
      <trkpt lat="47.01503" lon="6.59111">
        <ele>849.8</ele>
        <time>2021-08-13T09:07:55Z</time>
      </trkpt>
      <trkpt lat="47.01503" lon="6.59112">
        <ele>849.8</ele>
        <time>2021-08-13T09:07:57Z</time>
      </trkpt>
      <trkpt lat="47.01502" lon="6.59112">
        <ele>849.9</ele>
        <time>2021-08-13T09:07:58Z</time>
      </trkpt>
      <trkpt lat="47.01501" lon="6.59112">
        <ele>850</ele>
        <time>2021-08-13T09:07:59Z</time>
      </trkpt>
      <trkpt lat="47.01499" lon="6.59113">
        <ele>850.2</ele>
        <time>2021-08-13T09:08:01Z</time>
      </trkpt>
      <trkpt lat="47.01498" lon="6.59113">
        <ele>850.3</ele>
        <time>2021-08-13T09:08:03Z</time>
      </trkpt>
      <trkpt lat="47.01497" lon="6.59113">
        <ele>850.4</ele>
        <time>2021-08-13T09:08:04Z</time>
      </trkpt>
      <trkpt lat="47.01495" lon="6.59113">
        <ele>850.6</ele>
        <time>2021-08-13T09:08:06Z</time>
      </trkpt>
      <trkpt lat="47.01494" lon="6.59112">
        <ele>850.7</ele>
        <time>2021-08-13T09:08:07Z</time>
      </trkpt>
      <trkpt lat="47.01492" lon="6.59111">
        <ele>850.8</ele>
        <time>2021-08-13T09:08:09Z</time>
      </trkpt>
      <trkpt lat="47.01491" lon="6.5911">
        <ele>851</ele>
        <time>2021-08-13T09:08:10Z</time>
      </trkpt>
      <trkpt lat="47.01489" lon="6.59109">
        <ele>851.2</ele>
        <time>2021-08-13T09:08:11Z</time>
      </trkpt>
      <trkpt lat="47.01487" lon="6.59108">
        <ele>851.4</ele>
        <time>2021-08-13T09:08:13Z</time>
      </trkpt>
      <trkpt lat="47.01486" lon="6.59107">
        <ele>851.5</ele>
        <time>2021-08-13T09:08:14Z</time>
      </trkpt>
      <trkpt lat="47.01486" lon="6.59107">
        <ele>851.6</ele>
        <time>2021-08-13T09:08:15Z</time>
      </trkpt>
      <trkpt lat="47.01484" lon="6.59106">
        <ele>851.7</ele>
        <time>2021-08-13T09:08:17Z</time>
      </trkpt>
      <trkpt lat="47.01483" lon="6.59106">
        <ele>851.9</ele>
        <time>2021-08-13T09:08:19Z</time>
      </trkpt>
      <trkpt lat="47.01482" lon="6.59105">
        <ele>852</ele>
        <time>2021-08-13T09:08:20Z</time>
      </trkpt>
      <trkpt lat="47.01481" lon="6.59105">
        <ele>852</ele>
        <time>2021-08-13T09:08:21Z</time>
      </trkpt>
      <trkpt lat="47.0148" lon="6.59105">
        <ele>852.1</ele>
        <time>2021-08-13T09:08:22Z</time>
      </trkpt>
      <trkpt lat="47.0148" lon="6.59104">
        <ele>852.2</ele>
        <time>2021-08-13T09:08:24Z</time>
      </trkpt>
      <trkpt lat="47.01479" lon="6.59104">
        <ele>852.3</ele>
        <time>2021-08-13T09:08:26Z</time>
      </trkpt>
      <trkpt lat="47.01478" lon="6.59103">
        <ele>852.3</ele>
        <time>2021-08-13T09:08:28Z</time>
      </trkpt>
      <trkpt lat="47.01478" lon="6.59103">
        <ele>852.4</ele>
        <time>2021-08-13T09:08:30Z</time>
      </trkpt>
      <trkpt lat="47.01477" lon="6.59102">
        <ele>852.5</ele>
        <time>2021-08-13T09:08:32Z</time>
      </trkpt>
      <trkpt lat="47.01476" lon="6.59102">
        <ele>852.5</ele>
        <time>2021-08-13T09:08:33Z</time>
      </trkpt>
      <trkpt lat="47.01475" lon="6.591">
        <ele>852.7</ele>
        <time>2021-08-13T09:08:35Z</time>
      </trkpt>
      <trkpt lat="47.01474" lon="6.59099">
        <ele>852.8</ele>
        <time>2021-08-13T09:08:36Z</time>
      </trkpt>
      <trkpt lat="47.01473" lon="6.59098">
        <ele>852.8</ele>
        <time>2021-08-13T09:08:38Z</time>
      </trkpt>
      <trkpt lat="47.01473" lon="6.59098">
        <ele>852.9</ele>
        <time>2021-08-13T09:08:39Z</time>
      </trkpt>
      <trkpt lat="47.01472" lon="6.59098">
        <ele>852.9</ele>
        <time>2021-08-13T09:08:40Z</time>
      </trkpt>
      <trkpt lat="47.01472" lon="6.59098">
        <ele>852.9</ele>
        <time>2021-08-13T09:08:41Z</time>
      </trkpt>
      <trkpt lat="47.01472" lon="6.59097">
        <ele>853</ele>
        <time>2021-08-13T09:08:43Z</time>
      </trkpt>
      <trkpt lat="47.01472" lon="6.59097">
        <ele>853</ele>
        <time>2021-08-13T09:08:44Z</time>
      </trkpt>
      <trkpt lat="47.01471" lon="6.59096">
        <ele>853.1</ele>
        <time>2021-08-13T09:08:45Z</time>
      </trkpt>
      <trkpt lat="47.0147" lon="6.59094">
        <ele>853.2</ele>
        <time>2021-08-13T09:08:47Z</time>
      </trkpt>
      <trkpt lat="47.01469" lon="6.59092">
        <ele>853.3</ele>
        <time>2021-08-13T09:08:48Z</time>
      </trkpt>
      <trkpt lat="47.01466" lon="6.5909">
        <ele>853.5</ele>
        <time>2021-08-13T09:08:50Z</time>
      </trkpt>
      <trkpt lat="47.01464" lon="6.59089">
        <ele>853.7</ele>
        <time>2021-08-13T09:08:51Z</time>
      </trkpt>
      <trkpt lat="47.01464" lon="6.59089">
        <ele>853.7</ele>
        <time>2021-08-13T09:08:53Z</time>
      </trkpt>
      <trkpt lat="47.01463" lon="6.59089">
        <ele>853.8</ele>
        <time>2021-08-13T09:08:54Z</time>
      </trkpt>
      <trkpt lat="47.01462" lon="6.59088">
        <ele>853.8</ele>
        <time>2021-08-13T09:08:56Z</time>
      </trkpt>
      <trkpt lat="47.01461" lon="6.59088">
        <ele>853.8</ele>
        <time>2021-08-13T09:08:58Z</time>
      </trkpt>
      <trkpt lat="47.01461" lon="6.59088">
        <ele>853.9</ele>
        <time>2021-08-13T09:08:59Z</time>
      </trkpt>
      <trkpt lat="47.0146" lon="6.59087">
        <ele>853.9</ele>
        <time>2021-08-13T09:09:00Z</time>
      </trkpt>
      <trkpt lat="47.01456" lon="6.59084">
        <ele>854.2</ele>
        <time>2021-08-13T09:09:02Z</time>
      </trkpt>
      <trkpt lat="47.01455" lon="6.59083">
        <ele>854.3</ele>
        <time>2021-08-13T09:09:03Z</time>
      </trkpt>
      <trkpt lat="47.01453" lon="6.59081">
        <ele>854.4</ele>
        <time>2021-08-13T09:09:04Z</time>
      </trkpt>
      <trkpt lat="47.01451" lon="6.59081">
        <ele>854.5</ele>
        <time>2021-08-13T09:09:05Z</time>
      </trkpt>
      <trkpt lat="47.0145" lon="6.5908">
        <ele>854.5</ele>
        <time>2021-08-13T09:09:06Z</time>
      </trkpt>
      <trkpt lat="47.01447" lon="6.5908">
        <ele>854.7</ele>
        <time>2021-08-13T09:09:08Z</time>
      </trkpt>
      <trkpt lat="47.01446" lon="6.5908">
        <ele>854.7</ele>
        <time>2021-08-13T09:09:09Z</time>
      </trkpt>
      <trkpt lat="47.01445" lon="6.5908">
        <ele>854.8</ele>
        <time>2021-08-13T09:09:10Z</time>
      </trkpt>
      <trkpt lat="47.01444" lon="6.5908">
        <ele>854.9</ele>
        <time>2021-08-13T09:09:11Z</time>
      </trkpt>
      <trkpt lat="47.01443" lon="6.59081">
        <ele>854.9</ele>
        <time>2021-08-13T09:09:12Z</time>
      </trkpt>
      <trkpt lat="47.01442" lon="6.59081">
        <ele>855</ele>
        <time>2021-08-13T09:09:14Z</time>
      </trkpt>
      <trkpt lat="47.01441" lon="6.59081">
        <ele>855</ele>
        <time>2021-08-13T09:09:15Z</time>
      </trkpt>
      <trkpt lat="47.0144" lon="6.59081">
        <ele>855.1</ele>
        <time>2021-08-13T09:09:17Z</time>
      </trkpt>
      <trkpt lat="47.01439" lon="6.59081">
        <ele>855.1</ele>
        <time>2021-08-13T09:09:18Z</time>
      </trkpt>
      <trkpt lat="47.01433" lon="6.59079">
        <ele>855.5</ele>
        <time>2021-08-13T09:09:19Z</time>
      </trkpt>
      <trkpt lat="47.01428" lon="6.59076">
        <ele>855.9</ele>
        <time>2021-08-13T09:09:20Z</time>
      </trkpt>
      <trkpt lat="47.01423" lon="6.59074">
        <ele>856.2</ele>
        <time>2021-08-13T09:09:22Z</time>
      </trkpt>
      <trkpt lat="47.0142" lon="6.59072">
        <ele>856.4</ele>
        <time>2021-08-13T09:09:23Z</time>
      </trkpt>
      <trkpt lat="47.01415" lon="6.59071">
        <ele>856.8</ele>
        <time>2021-08-13T09:09:25Z</time>
      </trkpt>
      <trkpt lat="47.01412" lon="6.5907">
        <ele>857</ele>
        <time>2021-08-13T09:09:26Z</time>
      </trkpt>
      <trkpt lat="47.01409" lon="6.5907">
        <ele>857.2</ele>
        <time>2021-08-13T09:09:28Z</time>
      </trkpt>
      <trkpt lat="47.01407" lon="6.5907">
        <ele>857.3</ele>
        <time>2021-08-13T09:09:29Z</time>
      </trkpt>
      <trkpt lat="47.01407" lon="6.5907">
        <ele>857.3</ele>
        <time>2021-08-13T09:09:30Z</time>
      </trkpt>
      <trkpt lat="47.01407" lon="6.5907">
        <ele>857.3</ele>
        <time>2021-08-13T09:09:32Z</time>
      </trkpt>
      <trkpt lat="47.01406" lon="6.5907">
        <ele>857.3</ele>
        <time>2021-08-13T09:09:33Z</time>
      </trkpt>
      <trkpt lat="47.01406" lon="6.59069">
        <ele>857.4</ele>
        <time>2021-08-13T09:09:34Z</time>
      </trkpt>
      <trkpt lat="47.01406" lon="6.59068">
        <ele>857.4</ele>
        <time>2021-08-13T09:09:36Z</time>
      </trkpt>
      <trkpt lat="47.01385" lon="6.5906">
        <ele>858.7</ele>
        <time>2021-08-13T09:10:01Z</time>
      </trkpt>
      <trkpt lat="47.01382" lon="6.59059">
        <ele>858.9</ele>
        <time>2021-08-13T09:10:02Z</time>
      </trkpt>
      <trkpt lat="47.01378" lon="6.59059">
        <ele>859</ele>
        <time>2021-08-13T09:10:03Z</time>
      </trkpt>
      <trkpt lat="47.01374" lon="6.59058">
        <ele>859.3</ele>
        <time>2021-08-13T09:10:04Z</time>
      </trkpt>
      <trkpt lat="47.01369" lon="6.59059">
        <ele>859.5</ele>
        <time>2021-08-13T09:10:05Z</time>
      </trkpt>
      <trkpt lat="47.01366" lon="6.5906">
        <ele>859.6</ele>
        <time>2021-08-13T09:10:06Z</time>
      </trkpt>
      <trkpt lat="47.01361" lon="6.59062">
        <ele>859.8</ele>
        <time>2021-08-13T09:10:08Z</time>
      </trkpt>
      <trkpt lat="47.01358" lon="6.59063">
        <ele>859.9</ele>
        <time>2021-08-13T09:10:09Z</time>
      </trkpt>
      <trkpt lat="47.01354" lon="6.59062">
        <ele>860</ele>
        <time>2021-08-13T09:10:10Z</time>
      </trkpt>
      <trkpt lat="47.0135" lon="6.59061">
        <ele>860</ele>
        <time>2021-08-13T09:10:11Z</time>
      </trkpt>
      <trkpt lat="47.01347" lon="6.59061">
        <ele>860.1</ele>
        <time>2021-08-13T09:10:12Z</time>
      </trkpt>
      <trkpt lat="47.01344" lon="6.59062">
        <ele>860.1</ele>
        <time>2021-08-13T09:10:13Z</time>
      </trkpt>
      <trkpt lat="47.01339" lon="6.59063">
        <ele>860.2</ele>
        <time>2021-08-13T09:10:15Z</time>
      </trkpt>
      <trkpt lat="47.01335" lon="6.59063">
        <ele>860.3</ele>
        <time>2021-08-13T09:10:17Z</time>
      </trkpt>
      <trkpt lat="47.01334" lon="6.59063">
        <ele>860.3</ele>
        <time>2021-08-13T09:10:18Z</time>
      </trkpt>
      <trkpt lat="47.01331" lon="6.59064">
        <ele>860.3</ele>
        <time>2021-08-13T09:10:19Z</time>
      </trkpt>
      <trkpt lat="47.01329" lon="6.59064">
        <ele>860.3</ele>
        <time>2021-08-13T09:10:20Z</time>
      </trkpt>
      <trkpt lat="47.01324" lon="6.59062">
        <ele>860.4</ele>
        <time>2021-08-13T09:10:22Z</time>
      </trkpt>
      <trkpt lat="47.01323" lon="6.59061">
        <ele>860.4</ele>
        <time>2021-08-13T09:10:23Z</time>
      </trkpt>
      <trkpt lat="47.01321" lon="6.59061">
        <ele>860.4</ele>
        <time>2021-08-13T09:10:24Z</time>
      </trkpt>
      <trkpt lat="47.01319" lon="6.5906">
        <ele>860.5</ele>
        <time>2021-08-13T09:10:25Z</time>
      </trkpt>
      <trkpt lat="47.01318" lon="6.59059">
        <ele>860.5</ele>
        <time>2021-08-13T09:10:26Z</time>
      </trkpt>
      <trkpt lat="47.01314" lon="6.59057">
        <ele>860.6</ele>
        <time>2021-08-13T09:10:27Z</time>
      </trkpt>
      <trkpt lat="47.01313" lon="6.59056">
        <ele>860.6</ele>
        <time>2021-08-13T09:10:28Z</time>
      </trkpt>
      <trkpt lat="47.01311" lon="6.59052">
        <ele>860.7</ele>
        <time>2021-08-13T09:10:30Z</time>
      </trkpt>
      <trkpt lat="47.0131" lon="6.5905">
        <ele>860.7</ele>
        <time>2021-08-13T09:10:31Z</time>
      </trkpt>
      <trkpt lat="47.01309" lon="6.59048">
        <ele>860.8</ele>
        <time>2021-08-13T09:10:32Z</time>
      </trkpt>
      <trkpt lat="47.01309" lon="6.59046">
        <ele>860.8</ele>
        <time>2021-08-13T09:10:34Z</time>
      </trkpt>
      <trkpt lat="47.0131" lon="6.59045">
        <ele>860.9</ele>
        <time>2021-08-13T09:10:35Z</time>
      </trkpt>
      <trkpt lat="47.01309" lon="6.59044">
        <ele>860.9</ele>
        <time>2021-08-13T09:10:36Z</time>
      </trkpt>
      <trkpt lat="47.01309" lon="6.59043">
        <ele>860.9</ele>
        <time>2021-08-13T09:10:37Z</time>
      </trkpt>
      <trkpt lat="47.01308" lon="6.59042">
        <ele>861</ele>
        <time>2021-08-13T09:10:39Z</time>
      </trkpt>
      <trkpt lat="47.01309" lon="6.59042">
        <ele>861</ele>
        <time>2021-08-13T09:10:40Z</time>
      </trkpt>
      <trkpt lat="47.01309" lon="6.59043">
        <ele>861</ele>
        <time>2021-08-13T09:10:41Z</time>
      </trkpt>
      <trkpt lat="47.01309" lon="6.59043">
        <ele>861</ele>
        <time>2021-08-13T09:10:43Z</time>
      </trkpt>
      <trkpt lat="47.01309" lon="6.59043">
        <ele>861</ele>
        <time>2021-08-13T09:10:44Z</time>
      </trkpt>
      <trkpt lat="47.01308" lon="6.59043">
        <ele>861</ele>
        <time>2021-08-13T09:10:46Z</time>
      </trkpt>
      <trkpt lat="47.01308" lon="6.59043">
        <ele>861</ele>
        <time>2021-08-13T09:10:47Z</time>
      </trkpt>
      <trkpt lat="47.01308" lon="6.59043">
        <ele>861</ele>
        <time>2021-08-13T09:10:49Z</time>
      </trkpt>
      <trkpt lat="47.01231" lon="6.59002">
        <ele>868.2</ele>
        <time>2021-08-13T09:12:08Z</time>
      </trkpt>
      <trkpt lat="47.01227" lon="6.59003">
        <ele>868.5</ele>
        <time>2021-08-13T09:12:09Z</time>
      </trkpt>
      <trkpt lat="47.01224" lon="6.59003">
        <ele>868.8</ele>
        <time>2021-08-13T09:12:10Z</time>
      </trkpt>
      <trkpt lat="47.01223" lon="6.59003">
        <ele>868.9</ele>
        <time>2021-08-13T09:12:11Z</time>
      </trkpt>
      <trkpt lat="47.01219" lon="6.59003">
        <ele>869.2</ele>
        <time>2021-08-13T09:12:13Z</time>
      </trkpt>
      <trkpt lat="47.01218" lon="6.59003">
        <ele>869.3</ele>
        <time>2021-08-13T09:12:14Z</time>
      </trkpt>
      <trkpt lat="47.01217" lon="6.59003">
        <ele>869.4</ele>
        <time>2021-08-13T09:12:15Z</time>
      </trkpt>
      <trkpt lat="47.01215" lon="6.59002">
        <ele>869.6</ele>
        <time>2021-08-13T09:12:16Z</time>
      </trkpt>
      <trkpt lat="47.01213" lon="6.58999">
        <ele>869.8</ele>
        <time>2021-08-13T09:12:18Z</time>
      </trkpt>
      <trkpt lat="47.0121" lon="6.58997">
        <ele>870.1</ele>
        <time>2021-08-13T09:12:20Z</time>
      </trkpt>
      <trkpt lat="47.01209" lon="6.58996">
        <ele>870.3</ele>
        <time>2021-08-13T09:12:21Z</time>
      </trkpt>
      <trkpt lat="47.01208" lon="6.58996">
        <ele>870.4</ele>
        <time>2021-08-13T09:12:22Z</time>
      </trkpt>
      <trkpt lat="47.01206" lon="6.58996">
        <ele>870.6</ele>
        <time>2021-08-13T09:12:24Z</time>
      </trkpt>
      <trkpt lat="47.01204" lon="6.58996">
        <ele>870.7</ele>
        <time>2021-08-13T09:12:25Z</time>
      </trkpt>
      <trkpt lat="47.01203" lon="6.58997">
        <ele>870.8</ele>
        <time>2021-08-13T09:12:26Z</time>
      </trkpt>
      <trkpt lat="47.01202" lon="6.58997">
        <ele>870.9</ele>
        <time>2021-08-13T09:12:28Z</time>
      </trkpt>
      <trkpt lat="47.01201" lon="6.58997">
        <ele>871</ele>
        <time>2021-08-13T09:12:29Z</time>
      </trkpt>
      <trkpt lat="47.01201" lon="6.58997">
        <ele>871</ele>
        <time>2021-08-13T09:12:30Z</time>
      </trkpt>
      <trkpt lat="47.01199" lon="6.58998">
        <ele>871.2</ele>
        <time>2021-08-13T09:12:32Z</time>
      </trkpt>
      <trkpt lat="47.01201" lon="6.58998">
        <ele>871.3</ele>
        <time>2021-08-13T09:12:34Z</time>
      </trkpt>
      <trkpt lat="47.01201" lon="6.58998">
        <ele>871.3</ele>
        <time>2021-08-13T09:12:35Z</time>
      </trkpt>
      <trkpt lat="47.01201" lon="6.58998">
        <ele>871.3</ele>
        <time>2021-08-13T09:12:36Z</time>
      </trkpt>
      <trkpt lat="47.01201" lon="6.58998">
        <ele>871.4</ele>
        <time>2021-08-13T09:12:38Z</time>
      </trkpt>
      <trkpt lat="47.01201" lon="6.58998">
        <ele>871.4</ele>
        <time>2021-08-13T09:12:39Z</time>
      </trkpt>
      <trkpt lat="47.01202" lon="6.58998">
        <ele>871.4</ele>
        <time>2021-08-13T09:12:41Z</time>
      </trkpt>
      <trkpt lat="47.01202" lon="6.58998">
        <ele>871.4</ele>
        <time>2021-08-13T09:12:42Z</time>
      </trkpt>
      <trkpt lat="47.01202" lon="6.58998">
        <ele>871.4</ele>
        <time>2021-08-13T09:12:43Z</time>
      </trkpt>
      <trkpt lat="47.01202" lon="6.58998">
        <ele>871.4</ele>
        <time>2021-08-13T09:12:44Z</time>
      </trkpt>
      <trkpt lat="47.012" lon="6.58998">
        <ele>871.6</ele>
        <time>2021-08-13T09:12:46Z</time>
      </trkpt>
      <trkpt lat="47.01167" lon="6.58913">
        <ele>876.7</ele>
        <time>2021-08-13T09:14:03Z</time>
      </trkpt>
      <trkpt lat="47.01167" lon="6.58905">
        <ele>877</ele>
        <time>2021-08-13T09:14:05Z</time>
      </trkpt>
      <trkpt lat="47.01166" lon="6.58899">
        <ele>877.2</ele>
        <time>2021-08-13T09:14:06Z</time>
      </trkpt>
      <trkpt lat="47.01166" lon="6.58897">
        <ele>877.3</ele>
        <time>2021-08-13T09:14:07Z</time>
      </trkpt>
      <trkpt lat="47.01164" lon="6.58891">
        <ele>877.5</ele>
        <time>2021-08-13T09:14:09Z</time>
      </trkpt>
      <trkpt lat="47.01163" lon="6.5889">
        <ele>877.6</ele>
        <time>2021-08-13T09:14:11Z</time>
      </trkpt>
      <trkpt lat="47.01162" lon="6.58889">
        <ele>877.7</ele>
        <time>2021-08-13T09:14:12Z</time>
      </trkpt>
      <trkpt lat="47.01161" lon="6.58888">
        <ele>877.8</ele>
        <time>2021-08-13T09:14:13Z</time>
      </trkpt>
      <trkpt lat="47.0116" lon="6.58886">
        <ele>877.8</ele>
        <time>2021-08-13T09:14:14Z</time>
      </trkpt>
      <trkpt lat="47.01159" lon="6.58885">
        <ele>877.9</ele>
        <time>2021-08-13T09:14:16Z</time>
      </trkpt>
      <trkpt lat="47.01157" lon="6.58883">
        <ele>878.1</ele>
        <time>2021-08-13T09:14:17Z</time>
      </trkpt>
      <trkpt lat="47.01156" lon="6.58882">
        <ele>878.1</ele>
        <time>2021-08-13T09:14:18Z</time>
      </trkpt>
      <trkpt lat="47.01156" lon="6.58881">
        <ele>878.2</ele>
        <time>2021-08-13T09:14:19Z</time>
      </trkpt>
      <trkpt lat="47.01155" lon="6.5888">
        <ele>878.2</ele>
        <time>2021-08-13T09:14:20Z</time>
      </trkpt>
      <trkpt lat="47.01154" lon="6.58879">
        <ele>878.3</ele>
        <time>2021-08-13T09:14:22Z</time>
      </trkpt>
      <trkpt lat="47.01131" lon="6.58851">
        <ele>880.1</ele>
        <time>2021-08-13T09:14:43Z</time>
      </trkpt>
      <trkpt lat="47.01129" lon="6.58848">
        <ele>880.2</ele>
        <time>2021-08-13T09:14:44Z</time>
      </trkpt>
      <trkpt lat="47.01128" lon="6.58846">
        <ele>880.3</ele>
        <time>2021-08-13T09:14:45Z</time>
      </trkpt>
      <trkpt lat="47.01127" lon="6.58844">
        <ele>880.4</ele>
        <time>2021-08-13T09:14:47Z</time>
      </trkpt>
      <trkpt lat="47.01127" lon="6.58842">
        <ele>880.5</ele>
        <time>2021-08-13T09:14:48Z</time>
      </trkpt>
      <trkpt lat="47.01126" lon="6.58841">
        <ele>880.5</ele>
        <time>2021-08-13T09:14:49Z</time>
      </trkpt>
      <trkpt lat="47.01125" lon="6.5884">
        <ele>880.6</ele>
        <time>2021-08-13T09:14:50Z</time>
      </trkpt>
      <trkpt lat="47.01125" lon="6.58839">
        <ele>880.7</ele>
        <time>2021-08-13T09:14:51Z</time>
      </trkpt>
      <trkpt lat="47.01123" lon="6.58838">
        <ele>880.8</ele>
        <time>2021-08-13T09:14:53Z</time>
      </trkpt>
      <trkpt lat="47.01121" lon="6.58837">
        <ele>880.9</ele>
        <time>2021-08-13T09:14:54Z</time>
      </trkpt>
      <trkpt lat="47.01115" lon="6.58833">
        <ele>881.3</ele>
        <time>2021-08-13T09:14:57Z</time>
      </trkpt>
      <trkpt lat="47.01111" lon="6.58831">
        <ele>881.6</ele>
        <time>2021-08-13T09:14:58Z</time>
      </trkpt>
      <trkpt lat="47.01109" lon="6.58831">
        <ele>881.7</ele>
        <time>2021-08-13T09:14:59Z</time>
      </trkpt>
      <trkpt lat="47.01106" lon="6.58829">
        <ele>881.9</ele>
        <time>2021-08-13T09:15:00Z</time>
      </trkpt>
      <trkpt lat="47.01102" lon="6.58824">
        <ele>882.3</ele>
        <time>2021-08-13T09:15:02Z</time>
      </trkpt>
      <trkpt lat="47.01099" lon="6.58823">
        <ele>882.5</ele>
        <time>2021-08-13T09:15:03Z</time>
      </trkpt>
      <trkpt lat="47.01097" lon="6.58822">
        <ele>882.6</ele>
        <time>2021-08-13T09:15:04Z</time>
      </trkpt>
      <trkpt lat="47.01094" lon="6.5882">
        <ele>882.8</ele>
        <time>2021-08-13T09:15:05Z</time>
      </trkpt>
      <trkpt lat="47.0109" lon="6.58819">
        <ele>883.1</ele>
        <time>2021-08-13T09:15:07Z</time>
      </trkpt>
      <trkpt lat="47.01088" lon="6.58819">
        <ele>883.1</ele>
        <time>2021-08-13T09:15:08Z</time>
      </trkpt>
      <trkpt lat="47.01087" lon="6.58819">
        <ele>883.2</ele>
        <time>2021-08-13T09:15:09Z</time>
      </trkpt>
      <trkpt lat="47.01086" lon="6.58819">
        <ele>883.3</ele>
        <time>2021-08-13T09:15:10Z</time>
      </trkpt>
      <trkpt lat="47.01085" lon="6.58819">
        <ele>883.3</ele>
        <time>2021-08-13T09:15:11Z</time>
      </trkpt>
      <trkpt lat="47.01084" lon="6.58818">
        <ele>883.4</ele>
        <time>2021-08-13T09:15:12Z</time>
      </trkpt>
      <trkpt lat="47.01083" lon="6.58817">
        <ele>883.5</ele>
        <time>2021-08-13T09:15:14Z</time>
      </trkpt>
      <trkpt lat="47.01082" lon="6.58816">
        <ele>883.5</ele>
        <time>2021-08-13T09:15:15Z</time>
      </trkpt>
      <trkpt lat="47.01076" lon="6.58813">
        <ele>883.9</ele>
        <time>2021-08-13T09:15:19Z</time>
      </trkpt>
      <trkpt lat="47.01073" lon="6.58811">
        <ele>884.1</ele>
        <time>2021-08-13T09:15:20Z</time>
      </trkpt>
      <trkpt lat="47.01069" lon="6.58808">
        <ele>884.3</ele>
        <time>2021-08-13T09:15:21Z</time>
      </trkpt>
      <trkpt lat="47.01067" lon="6.58805">
        <ele>884.5</ele>
        <time>2021-08-13T09:15:22Z</time>
      </trkpt>
      <trkpt lat="47.01064" lon="6.58803">
        <ele>884.6</ele>
        <time>2021-08-13T09:15:23Z</time>
      </trkpt>
      <trkpt lat="47.01061" lon="6.588">
        <ele>884.8</ele>
        <time>2021-08-13T09:15:25Z</time>
      </trkpt>
      <trkpt lat="47.01058" lon="6.58797">
        <ele>884.9</ele>
        <time>2021-08-13T09:15:26Z</time>
      </trkpt>
      <trkpt lat="47.01055" lon="6.58793">
        <ele>885.1</ele>
        <time>2021-08-13T09:15:28Z</time>
      </trkpt>
      <trkpt lat="47.01055" lon="6.58791">
        <ele>885.2</ele>
        <time>2021-08-13T09:15:29Z</time>
      </trkpt>
      <trkpt lat="47.01054" lon="6.5879">
        <ele>885.3</ele>
        <time>2021-08-13T09:15:30Z</time>
      </trkpt>
      <trkpt lat="47.01054" lon="6.58788">
        <ele>885.3</ele>
        <time>2021-08-13T09:15:31Z</time>
      </trkpt>
      <trkpt lat="47.01054" lon="6.58786">
        <ele>885.4</ele>
        <time>2021-08-13T09:15:33Z</time>
      </trkpt>
      <trkpt lat="47.01054" lon="6.58785">
        <ele>885.5</ele>
        <time>2021-08-13T09:15:34Z</time>
      </trkpt>
      <trkpt lat="47.01054" lon="6.58783">
        <ele>885.5</ele>
        <time>2021-08-13T09:15:35Z</time>
      </trkpt>
      <trkpt lat="47.01053" lon="6.58781">
        <ele>885.6</ele>
        <time>2021-08-13T09:15:36Z</time>
      </trkpt>
      <trkpt lat="47.01053" lon="6.5878">
        <ele>885.7</ele>
        <time>2021-08-13T09:15:37Z</time>
      </trkpt>
      <trkpt lat="47.01051" lon="6.58776">
        <ele>885.9</ele>
        <time>2021-08-13T09:15:39Z</time>
      </trkpt>
      <trkpt lat="47.01047" lon="6.58771">
        <ele>886.3</ele>
        <time>2021-08-13T09:15:41Z</time>
      </trkpt>
      <trkpt lat="47.01045" lon="6.5877">
        <ele>886.4</ele>
        <time>2021-08-13T09:15:42Z</time>
      </trkpt>
      <trkpt lat="47.01043" lon="6.58769">
        <ele>886.6</ele>
        <time>2021-08-13T09:15:44Z</time>
      </trkpt>
      <trkpt lat="47.01042" lon="6.58768">
        <ele>886.7</ele>
        <time>2021-08-13T09:15:45Z</time>
      </trkpt>
      <trkpt lat="47.01041" lon="6.58768">
        <ele>886.8</ele>
        <time>2021-08-13T09:15:46Z</time>
      </trkpt>
      <trkpt lat="47.01037" lon="6.58765">
        <ele>887.1</ele>
        <time>2021-08-13T09:15:48Z</time>
      </trkpt>
      <trkpt lat="47.01036" lon="6.58763">
        <ele>887.3</ele>
        <time>2021-08-13T09:15:49Z</time>
      </trkpt>
      <trkpt lat="47.01035" lon="6.58762">
        <ele>887.4</ele>
        <time>2021-08-13T09:15:51Z</time>
      </trkpt>
      <trkpt lat="47.01034" lon="6.58762">
        <ele>887.4</ele>
        <time>2021-08-13T09:15:52Z</time>
      </trkpt>
      <trkpt lat="47.01031" lon="6.58757">
        <ele>887.8</ele>
        <time>2021-08-13T09:15:53Z</time>
      </trkpt>
      <trkpt lat="47.0103" lon="6.58756">
        <ele>887.9</ele>
        <time>2021-08-13T09:15:55Z</time>
      </trkpt>
      <trkpt lat="47.01028" lon="6.58755">
        <ele>888</ele>
        <time>2021-08-13T09:15:56Z</time>
      </trkpt>
      <trkpt lat="47.01026" lon="6.58752">
        <ele>888.2</ele>
        <time>2021-08-13T09:15:57Z</time>
      </trkpt>
      <trkpt lat="47.01025" lon="6.5875">
        <ele>888.3</ele>
        <time>2021-08-13T09:15:59Z</time>
      </trkpt>
      <trkpt lat="47.01024" lon="6.58748">
        <ele>888.3</ele>
        <time>2021-08-13T09:16:00Z</time>
      </trkpt>
      <trkpt lat="47.01024" lon="6.58746">
        <ele>888.4</ele>
        <time>2021-08-13T09:16:01Z</time>
      </trkpt>
      <trkpt lat="47.01023" lon="6.58744">
        <ele>888.5</ele>
        <time>2021-08-13T09:16:02Z</time>
      </trkpt>
      <trkpt lat="47.01023" lon="6.58742">
        <ele>888.6</ele>
        <time>2021-08-13T09:16:03Z</time>
      </trkpt>
      <trkpt lat="47.01023" lon="6.5874">
        <ele>888.7</ele>
        <time>2021-08-13T09:16:05Z</time>
      </trkpt>
      <trkpt lat="47.01023" lon="6.58739">
        <ele>888.7</ele>
        <time>2021-08-13T09:16:06Z</time>
      </trkpt>
      <trkpt lat="47.01022" lon="6.58738">
        <ele>888.8</ele>
        <time>2021-08-13T09:16:07Z</time>
      </trkpt>
      <trkpt lat="47.01022" lon="6.58737">
        <ele>888.8</ele>
        <time>2021-08-13T09:16:08Z</time>
      </trkpt>
      <trkpt lat="47.01023" lon="6.58736">
        <ele>888.8</ele>
        <time>2021-08-13T09:16:10Z</time>
      </trkpt>
      <trkpt lat="47.01018" lon="6.58683">
        <ele>890.8</ele>
        <time>2021-08-13T09:16:36Z</time>
      </trkpt>
      <trkpt lat="47.01015" lon="6.5868">
        <ele>891.1</ele>
        <time>2021-08-13T09:16:38Z</time>
      </trkpt>
      <trkpt lat="47.01015" lon="6.5868">
        <ele>891.1</ele>
        <time>2021-08-13T09:16:39Z</time>
      </trkpt>
      <trkpt lat="47.01014" lon="6.58678">
        <ele>891.2</ele>
        <time>2021-08-13T09:16:40Z</time>
      </trkpt>
      <trkpt lat="47.01014" lon="6.58675">
        <ele>891.3</ele>
        <time>2021-08-13T09:16:42Z</time>
      </trkpt>
      <trkpt lat="47.01013" lon="6.58675">
        <ele>891.3</ele>
        <time>2021-08-13T09:16:43Z</time>
      </trkpt>
      <trkpt lat="47.01013" lon="6.58674">
        <ele>891.3</ele>
        <time>2021-08-13T09:16:45Z</time>
      </trkpt>
      <trkpt lat="47.01012" lon="6.58674">
        <ele>891.4</ele>
        <time>2021-08-13T09:16:46Z</time>
      </trkpt>
      <trkpt lat="47.0101" lon="6.58674">
        <ele>891.5</ele>
        <time>2021-08-13T09:16:47Z</time>
      </trkpt>
      <trkpt lat="47.01007" lon="6.58672">
        <ele>891.7</ele>
        <time>2021-08-13T09:16:48Z</time>
      </trkpt>
      <trkpt lat="47.01004" lon="6.58671">
        <ele>892</ele>
        <time>2021-08-13T09:16:49Z</time>
      </trkpt>
      <trkpt lat="47.01" lon="6.58671">
        <ele>892.2</ele>
        <time>2021-08-13T09:16:50Z</time>
      </trkpt>
      <trkpt lat="47.00997" lon="6.58671">
        <ele>892.4</ele>
        <time>2021-08-13T09:16:51Z</time>
      </trkpt>
      <trkpt lat="47.00991" lon="6.5867">
        <ele>892.8</ele>
        <time>2021-08-13T09:16:53Z</time>
      </trkpt>
      <trkpt lat="47.00986" lon="6.58669">
        <ele>893.2</ele>
        <time>2021-08-13T09:16:54Z</time>
      </trkpt>
      <trkpt lat="47.00982" lon="6.58668">
        <ele>893.4</ele>
        <time>2021-08-13T09:16:55Z</time>
      </trkpt>
      <trkpt lat="47.00979" lon="6.58667">
        <ele>893.6</ele>
        <time>2021-08-13T09:16:56Z</time>
      </trkpt>
      <trkpt lat="47.00977" lon="6.58666">
        <ele>893.7</ele>
        <time>2021-08-13T09:16:57Z</time>
      </trkpt>
      <trkpt lat="47.00975" lon="6.58664">
        <ele>893.9</ele>
        <time>2021-08-13T09:16:58Z</time>
      </trkpt>
      <trkpt lat="47.00971" lon="6.58659">
        <ele>894.2</ele>
        <time>2021-08-13T09:17:00Z</time>
      </trkpt>
      <trkpt lat="47.00968" lon="6.58656">
        <ele>894.4</ele>
        <time>2021-08-13T09:17:01Z</time>
      </trkpt>
      <trkpt lat="47.00966" lon="6.58655">
        <ele>894.5</ele>
        <time>2021-08-13T09:17:02Z</time>
      </trkpt>
      <trkpt lat="47.00962" lon="6.58651">
        <ele>894.8</ele>
        <time>2021-08-13T09:17:04Z</time>
      </trkpt>
      <trkpt lat="47.00961" lon="6.5865">
        <ele>894.8</ele>
        <time>2021-08-13T09:17:05Z</time>
      </trkpt>
      <trkpt lat="47.0096" lon="6.58649">
        <ele>894.9</ele>
        <time>2021-08-13T09:17:06Z</time>
      </trkpt>
      <trkpt lat="47.00957" lon="6.58648">
        <ele>895.1</ele>
        <time>2021-08-13T09:17:08Z</time>
      </trkpt>
      <trkpt lat="47.00952" lon="6.58648">
        <ele>895.3</ele>
        <time>2021-08-13T09:17:09Z</time>
      </trkpt>
      <trkpt lat="47.00947" lon="6.58649">
        <ele>895.4</ele>
        <time>2021-08-13T09:17:10Z</time>
      </trkpt>
      <trkpt lat="47.00943" lon="6.5865">
        <ele>895.5</ele>
        <time>2021-08-13T09:17:12Z</time>
      </trkpt>
      <trkpt lat="47.00938" lon="6.5865">
        <ele>895.7</ele>
        <time>2021-08-13T09:17:13Z</time>
      </trkpt>
      <trkpt lat="47.00932" lon="6.5865">
        <ele>895.7</ele>
        <time>2021-08-13T09:17:14Z</time>
      </trkpt>
      <trkpt lat="47.00926" lon="6.5865">
        <ele>895.8</ele>
        <time>2021-08-13T09:17:16Z</time>
      </trkpt>
      <trkpt lat="47.00921" lon="6.58651">
        <ele>895.9</ele>
        <time>2021-08-13T09:17:18Z</time>
      </trkpt>
      <trkpt lat="47.00918" lon="6.58652">
        <ele>896</ele>
        <time>2021-08-13T09:17:19Z</time>
      </trkpt>
      <trkpt lat="47.00917" lon="6.58652">
        <ele>896</ele>
        <time>2021-08-13T09:17:20Z</time>
      </trkpt>
      <trkpt lat="47.00915" lon="6.58651">
        <ele>896.1</ele>
        <time>2021-08-13T09:17:22Z</time>
      </trkpt>
      <trkpt lat="47.00914" lon="6.5865">
        <ele>896.1</ele>
        <time>2021-08-13T09:17:23Z</time>
      </trkpt>
      <trkpt lat="47.00912" lon="6.58649">
        <ele>896.2</ele>
        <time>2021-08-13T09:17:24Z</time>
      </trkpt>
      <trkpt lat="47.00912" lon="6.58648">
        <ele>896.2</ele>
        <time>2021-08-13T09:17:25Z</time>
      </trkpt>
      <trkpt lat="47.00911" lon="6.58648">
        <ele>896.2</ele>
        <time>2021-08-13T09:17:26Z</time>
      </trkpt>
      <trkpt lat="47.00911" lon="6.58648">
        <ele>896.2</ele>
        <time>2021-08-13T09:17:28Z</time>
      </trkpt>
      <trkpt lat="47.0091" lon="6.58647">
        <ele>896.2</ele>
        <time>2021-08-13T09:17:29Z</time>
      </trkpt>
      <trkpt lat="47.00907" lon="6.58648">
        <ele>896.3</ele>
        <time>2021-08-13T09:17:30Z</time>
      </trkpt>
      <trkpt lat="47.00904" lon="6.58648">
        <ele>896.4</ele>
        <time>2021-08-13T09:17:32Z</time>
      </trkpt>
      <trkpt lat="47.00901" lon="6.58648">
        <ele>896.5</ele>
        <time>2021-08-13T09:17:33Z</time>
      </trkpt>
      <trkpt lat="47.009" lon="6.58648">
        <ele>896.6</ele>
        <time>2021-08-13T09:17:34Z</time>
      </trkpt>
      <trkpt lat="47.00896" lon="6.58649">
        <ele>896.7</ele>
        <time>2021-08-13T09:17:36Z</time>
      </trkpt>
      <trkpt lat="47.00892" lon="6.58648">
        <ele>896.8</ele>
        <time>2021-08-13T09:17:38Z</time>
      </trkpt>
      <trkpt lat="47.0089" lon="6.58648">
        <ele>896.9</ele>
        <time>2021-08-13T09:17:39Z</time>
      </trkpt>
      <trkpt lat="47.00887" lon="6.58647">
        <ele>897</ele>
        <time>2021-08-13T09:17:41Z</time>
      </trkpt>
      <trkpt lat="47.00884" lon="6.58647">
        <ele>897.2</ele>
        <time>2021-08-13T09:17:42Z</time>
      </trkpt>
      <trkpt lat="47.00883" lon="6.58647">
        <ele>897.2</ele>
        <time>2021-08-13T09:17:43Z</time>
      </trkpt>
      <trkpt lat="47.00881" lon="6.58645">
        <ele>897.3</ele>
        <time>2021-08-13T09:17:45Z</time>
      </trkpt>
      <trkpt lat="47.0088" lon="6.58645">
        <ele>897.3</ele>
        <time>2021-08-13T09:17:46Z</time>
      </trkpt>
      <trkpt lat="47.0088" lon="6.58645">
        <ele>897.3</ele>
        <time>2021-08-13T09:17:47Z</time>
      </trkpt>
      <trkpt lat="47.00879" lon="6.58645">
        <ele>897.4</ele>
        <time>2021-08-13T09:17:49Z</time>
      </trkpt>
      <trkpt lat="47.00879" lon="6.58645">
        <ele>897.4</ele>
        <time>2021-08-13T09:17:50Z</time>
      </trkpt>
      <trkpt lat="47.00879" lon="6.58645">
        <ele>897.4</ele>
        <time>2021-08-13T09:17:51Z</time>
      </trkpt>
      <trkpt lat="47.00879" lon="6.58645">
        <ele>897.4</ele>
        <time>2021-08-13T09:17:53Z</time>
      </trkpt>
      <trkpt lat="47.00774" lon="6.5863">
        <ele>902.2</ele>
        <time>2021-08-13T09:19:46Z</time>
      </trkpt>
      <trkpt lat="47.00771" lon="6.58627">
        <ele>902.2</ele>
        <time>2021-08-13T09:19:47Z</time>
      </trkpt>
      <trkpt lat="47.00769" lon="6.58622">
        <ele>902.1</ele>
        <time>2021-08-13T09:19:48Z</time>
      </trkpt>
      <trkpt lat="47.00766" lon="6.58618">
        <ele>902.1</ele>
        <time>2021-08-13T09:19:50Z</time>
      </trkpt>
      <trkpt lat="47.00764" lon="6.58612">
        <ele>902</ele>
        <time>2021-08-13T09:19:51Z</time>
      </trkpt>
      <trkpt lat="47.00763" lon="6.58609">
        <ele>901.9</ele>
        <time>2021-08-13T09:19:52Z</time>
      </trkpt>
      <trkpt lat="47.00762" lon="6.58602">
        <ele>901.8</ele>
        <time>2021-08-13T09:19:54Z</time>
      </trkpt>
      <trkpt lat="47.00758" lon="6.58593">
        <ele>901.5</ele>
        <time>2021-08-13T09:19:56Z</time>
      </trkpt>
      <trkpt lat="47.00751" lon="6.58585">
        <ele>901.2</ele>
        <time>2021-08-13T09:19:58Z</time>
      </trkpt>
      <trkpt lat="47.00748" lon="6.58583">
        <ele>901.1</ele>
        <time>2021-08-13T09:19:59Z</time>
      </trkpt>
      <trkpt lat="47.00744" lon="6.5858">
        <ele>901</ele>
        <time>2021-08-13T09:20:01Z</time>
      </trkpt>
      <trkpt lat="47.00741" lon="6.58578">
        <ele>900.9</ele>
        <time>2021-08-13T09:20:02Z</time>
      </trkpt>
      <trkpt lat="47.0074" lon="6.58577">
        <ele>900.8</ele>
        <time>2021-08-13T09:20:03Z</time>
      </trkpt>
      <trkpt lat="47.00723" lon="6.58562">
        <ele>900.2</ele>
        <time>2021-08-13T09:20:04Z</time>
      </trkpt>
      <trkpt lat="47.00716" lon="6.58556">
        <ele>899.9</ele>
        <time>2021-08-13T09:20:06Z</time>
      </trkpt>
      <trkpt lat="47.0069" lon="6.58535">
        <ele>899.2</ele>
        <time>2021-08-13T09:20:10Z</time>
      </trkpt>
      <trkpt lat="47.00681" lon="6.58527">
        <ele>899.2</ele>
        <time>2021-08-13T09:20:11Z</time>
      </trkpt>
      <trkpt lat="47.00681" lon="6.58526">
        <ele>899.2</ele>
        <time>2021-08-13T09:20:12Z</time>
      </trkpt>
      <trkpt lat="47.0068" lon="6.58523">
        <ele>899.3</ele>
        <time>2021-08-13T09:20:14Z</time>
      </trkpt>
      <trkpt lat="47.00679" lon="6.58518">
        <ele>899.4</ele>
        <time>2021-08-13T09:20:15Z</time>
      </trkpt>
      <trkpt lat="47.00678" lon="6.58514">
        <ele>900</ele>
        <time>2021-08-13T09:20:16Z</time>
      </trkpt>
      <trkpt lat="47.00678" lon="6.5851">
        <ele>900.2</ele>
        <time>2021-08-13T09:20:17Z</time>
      </trkpt>
      <trkpt lat="47.00678" lon="6.58507">
        <ele>900.3</ele>
        <time>2021-08-13T09:20:18Z</time>
      </trkpt>
      <trkpt lat="47.00678" lon="6.58504">
        <ele>900.5</ele>
        <time>2021-08-13T09:20:20Z</time>
      </trkpt>
      <trkpt lat="47.00682" lon="6.58514">
        <ele>901</ele>
        <time>2021-08-13T09:20:21Z</time>
      </trkpt>
      <trkpt lat="47.00687" lon="6.58525">
        <ele>901.6</ele>
        <time>2021-08-13T09:20:42Z</time>
      </trkpt>
      <trkpt lat="47.00691" lon="6.58536">
        <ele>902.1</ele>
        <time>2021-08-13T09:20:43Z</time>
      </trkpt>
      <trkpt lat="47.00693" lon="6.58541">
        <ele>902.3</ele>
        <time>2021-08-13T09:20:45Z</time>
      </trkpt>
      <trkpt lat="47.00694" lon="6.58542">
        <ele>902.4</ele>
        <time>2021-08-13T09:20:46Z</time>
      </trkpt>
      <trkpt lat="47.00695" lon="6.58543">
        <ele>902.5</ele>
        <time>2021-08-13T09:20:47Z</time>
      </trkpt>
      <trkpt lat="47.00696" lon="6.58544">
        <ele>902.5</ele>
        <time>2021-08-13T09:20:48Z</time>
      </trkpt>
      <trkpt lat="47.00696" lon="6.58544">
        <ele>902.5</ele>
        <time>2021-08-13T09:20:50Z</time>
      </trkpt>
      <trkpt lat="47.00697" lon="6.58545">
        <ele>902.5</ele>
        <time>2021-08-13T09:20:51Z</time>
      </trkpt>
      <trkpt lat="47.00697" lon="6.58545">
        <ele>902.6</ele>
        <time>2021-08-13T09:20:52Z</time>
      </trkpt>
      <trkpt lat="47.00697" lon="6.58546">
        <ele>902.6</ele>
        <time>2021-08-13T09:20:54Z</time>
      </trkpt>
      <trkpt lat="47.00697" lon="6.58546">
        <ele>902.6</ele>
        <time>2021-08-13T09:20:55Z</time>
      </trkpt>
      <trkpt lat="47.00698" lon="6.58546">
        <ele>902.6</ele>
        <time>2021-08-13T09:20:57Z</time>
      </trkpt>
      <trkpt lat="47.00723" lon="6.58541">
        <ele>903.2</ele>
        <time>2021-08-13T09:21:09Z</time>
      </trkpt>
      <trkpt lat="47.00727" lon="6.58541">
        <ele>903.3</ele>
        <time>2021-08-13T09:21:10Z</time>
      </trkpt>
      <trkpt lat="47.00735" lon="6.58544">
        <ele>903.3</ele>
        <time>2021-08-13T09:21:12Z</time>
      </trkpt>
      <trkpt lat="47.0074" lon="6.58545">
        <ele>903.4</ele>
        <time>2021-08-13T09:21:13Z</time>
      </trkpt>
      <trkpt lat="47.00747" lon="6.58547">
        <ele>903.6</ele>
        <time>2021-08-13T09:21:15Z</time>
      </trkpt>
      <trkpt lat="47.00751" lon="6.58548">
        <ele>903.7</ele>
        <time>2021-08-13T09:21:16Z</time>
      </trkpt>
      <trkpt lat="47.00756" lon="6.5855">
        <ele>903.9</ele>
        <time>2021-08-13T09:21:18Z</time>
      </trkpt>
      <trkpt lat="47.00759" lon="6.58553">
        <ele>904</ele>
        <time>2021-08-13T09:21:19Z</time>
      </trkpt>
      <trkpt lat="47.0076" lon="6.58554">
        <ele>904</ele>
        <time>2021-08-13T09:21:20Z</time>
      </trkpt>
      <trkpt lat="47.00763" lon="6.58556">
        <ele>904.2</ele>
        <time>2021-08-13T09:21:21Z</time>
      </trkpt>
      <trkpt lat="47.00764" lon="6.58556">
        <ele>904.2</ele>
        <time>2021-08-13T09:21:22Z</time>
      </trkpt>
      <trkpt lat="47.00766" lon="6.58556">
        <ele>904.3</ele>
        <time>2021-08-13T09:21:23Z</time>
      </trkpt>
      <trkpt lat="47.0077" lon="6.58556">
        <ele>904.4</ele>
        <time>2021-08-13T09:21:25Z</time>
      </trkpt>
      <trkpt lat="47.00771" lon="6.58557">
        <ele>904.5</ele>
        <time>2021-08-13T09:21:26Z</time>
      </trkpt>
      <trkpt lat="47.00775" lon="6.58558">
        <ele>904.6</ele>
        <time>2021-08-13T09:21:28Z</time>
      </trkpt>
      <trkpt lat="47.00778" lon="6.58556">
        <ele>904.7</ele>
        <time>2021-08-13T09:21:29Z</time>
      </trkpt>
      <trkpt lat="47.00779" lon="6.58556">
        <ele>904.8</ele>
        <time>2021-08-13T09:21:30Z</time>
      </trkpt>
      <trkpt lat="47.00784" lon="6.58554">
        <ele>905</ele>
        <time>2021-08-13T09:21:32Z</time>
      </trkpt>
      <trkpt lat="47.00787" lon="6.58554">
        <ele>905.1</ele>
        <time>2021-08-13T09:21:33Z</time>
      </trkpt>
      <trkpt lat="47.00789" lon="6.58554">
        <ele>905.3</ele>
        <time>2021-08-13T09:21:34Z</time>
      </trkpt>
      <trkpt lat="47.0079" lon="6.58555">
        <ele>905.3</ele>
        <time>2021-08-13T09:21:35Z</time>
      </trkpt>
      <trkpt lat="47.00792" lon="6.58556">
        <ele>905.4</ele>
        <time>2021-08-13T09:21:36Z</time>
      </trkpt>
      <trkpt lat="47.00796" lon="6.58556">
        <ele>905.6</ele>
        <time>2021-08-13T09:21:38Z</time>
      </trkpt>
      <trkpt lat="47.00798" lon="6.58556">
        <ele>905.7</ele>
        <time>2021-08-13T09:21:39Z</time>
      </trkpt>
      <trkpt lat="47.00801" lon="6.58558">
        <ele>905.9</ele>
        <time>2021-08-13T09:21:41Z</time>
      </trkpt>
      <trkpt lat="47.00802" lon="6.58558">
        <ele>906</ele>
        <time>2021-08-13T09:21:42Z</time>
      </trkpt>
      <trkpt lat="47.00803" lon="6.58558">
        <ele>906</ele>
        <time>2021-08-13T09:21:43Z</time>
      </trkpt>
      <trkpt lat="47.00803" lon="6.58558">
        <ele>906</ele>
        <time>2021-08-13T09:21:44Z</time>
      </trkpt>
      <trkpt lat="47.00804" lon="6.58558">
        <ele>906.1</ele>
        <time>2021-08-13T09:21:46Z</time>
      </trkpt>
      <trkpt lat="47.00805" lon="6.58559">
        <ele>906.1</ele>
        <time>2021-08-13T09:21:47Z</time>
      </trkpt>
      <trkpt lat="47.00807" lon="6.58559">
        <ele>906.2</ele>
        <time>2021-08-13T09:21:48Z</time>
      </trkpt>
      <trkpt lat="47.00811" lon="6.58557">
        <ele>906.5</ele>
        <time>2021-08-13T09:21:50Z</time>
      </trkpt>
      <trkpt lat="47.00814" lon="6.58556">
        <ele>906.6</ele>
        <time>2021-08-13T09:21:51Z</time>
      </trkpt>
      <trkpt lat="47.00817" lon="6.58555">
        <ele>906.8</ele>
        <time>2021-08-13T09:21:52Z</time>
      </trkpt>
      <trkpt lat="47.0082" lon="6.58554">
        <ele>906.9</ele>
        <time>2021-08-13T09:21:53Z</time>
      </trkpt>
      <trkpt lat="47.00824" lon="6.58554">
        <ele>907</ele>
        <time>2021-08-13T09:21:55Z</time>
      </trkpt>
      <trkpt lat="47.00824" lon="6.58555">
        <ele>907.1</ele>
        <time>2021-08-13T09:21:56Z</time>
      </trkpt>
      <trkpt lat="47.00824" lon="6.58557">
        <ele>907.1</ele>
        <time>2021-08-13T09:21:57Z</time>
      </trkpt>
      <trkpt lat="47.00824" lon="6.58558">
        <ele>907.1</ele>
        <time>2021-08-13T09:21:59Z</time>
      </trkpt>
      <trkpt lat="47.00824" lon="6.58558">
        <ele>907.1</ele>
        <time>2021-08-13T09:22:00Z</time>
      </trkpt>
      <trkpt lat="47.00825" lon="6.58558">
        <ele>907.2</ele>
        <time>2021-08-13T09:22:02Z</time>
      </trkpt>
      <trkpt lat="47.00828" lon="6.58557">
        <ele>907.2</ele>
        <time>2021-08-13T09:22:03Z</time>
      </trkpt>
      <trkpt lat="47.00838" lon="6.58555">
        <ele>907.5</ele>
        <time>2021-08-13T09:22:07Z</time>
      </trkpt>
      <trkpt lat="47.00841" lon="6.58553">
        <ele>907.6</ele>
        <time>2021-08-13T09:22:09Z</time>
      </trkpt>
      <trkpt lat="47.00844" lon="6.58551">
        <ele>907.7</ele>
        <time>2021-08-13T09:22:10Z</time>
      </trkpt>
      <trkpt lat="47.00845" lon="6.58551">
        <ele>907.7</ele>
        <time>2021-08-13T09:22:11Z</time>
      </trkpt>
      <trkpt lat="47.00851" lon="6.5855">
        <ele>907.9</ele>
        <time>2021-08-13T09:22:13Z</time>
      </trkpt>
      <trkpt lat="47.00853" lon="6.58547">
        <ele>908</ele>
        <time>2021-08-13T09:22:15Z</time>
      </trkpt>
      <trkpt lat="47.00853" lon="6.58546">
        <ele>908</ele>
        <time>2021-08-13T09:22:16Z</time>
      </trkpt>
      <trkpt lat="47.00854" lon="6.58547">
        <ele>908</ele>
        <time>2021-08-13T09:22:17Z</time>
      </trkpt>
      <trkpt lat="47.00856" lon="6.58547">
        <ele>908.1</ele>
        <time>2021-08-13T09:22:18Z</time>
      </trkpt>
      <trkpt lat="47.00858" lon="6.58546">
        <ele>908.2</ele>
        <time>2021-08-13T09:22:19Z</time>
      </trkpt>
      <trkpt lat="47.00858" lon="6.58547">
        <ele>908.2</ele>
        <time>2021-08-13T09:22:20Z</time>
      </trkpt>
      <trkpt lat="47.00859" lon="6.58547">
        <ele>908.3</ele>
        <time>2021-08-13T09:22:22Z</time>
      </trkpt>
      <trkpt lat="47.00859" lon="6.58547">
        <ele>908.3</ele>
        <time>2021-08-13T09:22:23Z</time>
      </trkpt>
      <trkpt lat="47.00859" lon="6.58547">
        <ele>908.3</ele>
        <time>2021-08-13T09:22:24Z</time>
      </trkpt>
      <trkpt lat="47.0086" lon="6.58546">
        <ele>908.3</ele>
        <time>2021-08-13T09:22:25Z</time>
      </trkpt>
      <trkpt lat="47.00861" lon="6.58546">
        <ele>908.4</ele>
        <time>2021-08-13T09:22:27Z</time>
      </trkpt>
      <trkpt lat="47.00862" lon="6.58545">
        <ele>908.4</ele>
        <time>2021-08-13T09:22:28Z</time>
      </trkpt>
      <trkpt lat="47.00863" lon="6.58544">
        <ele>908.5</ele>
        <time>2021-08-13T09:22:29Z</time>
      </trkpt>
      <trkpt lat="47.00879" lon="6.5853">
        <ele>909.5</ele>
        <time>2021-08-13T09:22:42Z</time>
      </trkpt>
      <trkpt lat="47.00882" lon="6.58526">
        <ele>909.7</ele>
        <time>2021-08-13T09:22:44Z</time>
      </trkpt>
      <trkpt lat="47.00885" lon="6.58522">
        <ele>909.9</ele>
        <time>2021-08-13T09:22:45Z</time>
      </trkpt>
      <trkpt lat="47.00887" lon="6.58518">
        <ele>910</ele>
        <time>2021-08-13T09:22:46Z</time>
      </trkpt>
      <trkpt lat="47.00889" lon="6.58516">
        <ele>910.1</ele>
        <time>2021-08-13T09:22:47Z</time>
      </trkpt>
      <trkpt lat="47.00896" lon="6.58513">
        <ele>910.4</ele>
        <time>2021-08-13T09:22:49Z</time>
      </trkpt>
      <trkpt lat="47.00897" lon="6.58509">
        <ele>910.5</ele>
        <time>2021-08-13T09:22:51Z</time>
      </trkpt>
      <trkpt lat="47.00898" lon="6.58507">
        <ele>910.6</ele>
        <time>2021-08-13T09:22:52Z</time>
      </trkpt>
      <trkpt lat="47.00899" lon="6.58503">
        <ele>910.7</ele>
        <time>2021-08-13T09:22:53Z</time>
      </trkpt>
      <trkpt lat="47.00899" lon="6.585">
        <ele>910.7</ele>
        <time>2021-08-13T09:22:54Z</time>
      </trkpt>
      <trkpt lat="47.009" lon="6.58499">
        <ele>910.8</ele>
        <time>2021-08-13T09:22:55Z</time>
      </trkpt>
      <trkpt lat="47.00902" lon="6.58497">
        <ele>910.9</ele>
        <time>2021-08-13T09:22:56Z</time>
      </trkpt>
      <trkpt lat="47.00903" lon="6.58497">
        <ele>910.9</ele>
        <time>2021-08-13T09:22:57Z</time>
      </trkpt>
      <trkpt lat="47.00904" lon="6.58497">
        <ele>911</ele>
        <time>2021-08-13T09:22:59Z</time>
      </trkpt>
      <trkpt lat="47.00906" lon="6.58497">
        <ele>911</ele>
        <time>2021-08-13T09:23:01Z</time>
      </trkpt>
      <trkpt lat="47.00906" lon="6.58497">
        <ele>911</ele>
        <time>2021-08-13T09:23:02Z</time>
      </trkpt>
      <trkpt lat="47.00918" lon="6.58487">
        <ele>911.8</ele>
        <time>2021-08-13T09:23:04Z</time>
      </trkpt>
      <trkpt lat="47.00928" lon="6.58477">
        <ele>912.7</ele>
        <time>2021-08-13T09:23:05Z</time>
      </trkpt>
      <trkpt lat="47.00938" lon="6.58467">
        <ele>913.7</ele>
        <time>2021-08-13T09:23:06Z</time>
      </trkpt>
      <trkpt lat="47.00948" lon="6.58457">
        <ele>914.8</ele>
        <time>2021-08-13T09:24:23Z</time>
      </trkpt>
      <trkpt lat="47.00959" lon="6.58447">
        <ele>915.8</ele>
        <time>2021-08-13T09:24:24Z</time>
      </trkpt>
      <trkpt lat="47.00969" lon="6.58437">
        <ele>916.7</ele>
        <time>2021-08-13T09:24:25Z</time>
      </trkpt>
      <trkpt lat="47.0097" lon="6.58435">
        <ele>916.8</ele>
        <time>2021-08-13T09:24:27Z</time>
      </trkpt>
      <trkpt lat="47.0097" lon="6.58433">
        <ele>916.9</ele>
        <time>2021-08-13T09:24:28Z</time>
      </trkpt>
      <trkpt lat="47.00971" lon="6.58431">
        <ele>917</ele>
        <time>2021-08-13T09:24:29Z</time>
      </trkpt>
      <trkpt lat="47.00971" lon="6.58429">
        <ele>917.1</ele>
        <time>2021-08-13T09:24:30Z</time>
      </trkpt>
      <trkpt lat="47.00971" lon="6.58425">
        <ele>917.3</ele>
        <time>2021-08-13T09:24:32Z</time>
      </trkpt>
      <trkpt lat="47.00971" lon="6.58423">
        <ele>917.4</ele>
        <time>2021-08-13T09:24:33Z</time>
      </trkpt>
      <trkpt lat="47.00971" lon="6.58421">
        <ele>917.5</ele>
        <time>2021-08-13T09:24:34Z</time>
      </trkpt>
      <trkpt lat="47.00971" lon="6.58418">
        <ele>917.6</ele>
        <time>2021-08-13T09:24:36Z</time>
      </trkpt>
      <trkpt lat="47.00971" lon="6.58417">
        <ele>917.7</ele>
        <time>2021-08-13T09:24:37Z</time>
      </trkpt>
      <trkpt lat="47.00971" lon="6.58414">
        <ele>917.8</ele>
        <time>2021-08-13T09:24:39Z</time>
      </trkpt>
      <trkpt lat="47.00971" lon="6.58412">
        <ele>917.9</ele>
        <time>2021-08-13T09:24:40Z</time>
      </trkpt>
      <trkpt lat="47.00972" lon="6.58411">
        <ele>918</ele>
        <time>2021-08-13T09:24:41Z</time>
      </trkpt>
      <trkpt lat="47.00972" lon="6.58409">
        <ele>918</ele>
        <time>2021-08-13T09:24:42Z</time>
      </trkpt>
      <trkpt lat="47.00973" lon="6.58407">
        <ele>918.1</ele>
        <time>2021-08-13T09:24:44Z</time>
      </trkpt>
      <trkpt lat="47.00973" lon="6.58405">
        <ele>918.2</ele>
        <time>2021-08-13T09:24:45Z</time>
      </trkpt>
      <trkpt lat="47.00973" lon="6.58404">
        <ele>918.3</ele>
        <time>2021-08-13T09:24:46Z</time>
      </trkpt>
      <trkpt lat="47.00973" lon="6.58403">
        <ele>918.3</ele>
        <time>2021-08-13T09:24:48Z</time>
      </trkpt>
      <trkpt lat="47.00973" lon="6.58402">
        <ele>918.4</ele>
        <time>2021-08-13T09:24:49Z</time>
      </trkpt>
      <trkpt lat="47.00973" lon="6.58401">
        <ele>918.4</ele>
        <time>2021-08-13T09:24:50Z</time>
      </trkpt>
      <trkpt lat="47.00973" lon="6.58401">
        <ele>918.4</ele>
        <time>2021-08-13T09:24:51Z</time>
      </trkpt>
      <trkpt lat="47.00973" lon="6.58398">
        <ele>918.5</ele>
        <time>2021-08-13T09:24:53Z</time>
      </trkpt>
      <trkpt lat="47.00973" lon="6.58396">
        <ele>918.6</ele>
        <time>2021-08-13T09:24:54Z</time>
      </trkpt>
      <trkpt lat="47.00973" lon="6.58395">
        <ele>918.6</ele>
        <time>2021-08-13T09:24:55Z</time>
      </trkpt>
      <trkpt lat="47.00973" lon="6.58394">
        <ele>918.7</ele>
        <time>2021-08-13T09:24:56Z</time>
      </trkpt>
      <trkpt lat="47.00973" lon="6.58392">
        <ele>918.8</ele>
        <time>2021-08-13T09:24:57Z</time>
      </trkpt>
      <trkpt lat="47.00973" lon="6.58388">
        <ele>918.9</ele>
        <time>2021-08-13T09:24:59Z</time>
      </trkpt>
      <trkpt lat="47.00973" lon="6.58386">
        <ele>919</ele>
        <time>2021-08-13T09:25:00Z</time>
      </trkpt>
      <trkpt lat="47.00973" lon="6.58383">
        <ele>919.1</ele>
        <time>2021-08-13T09:25:01Z</time>
      </trkpt>
      <trkpt lat="47.00973" lon="6.58381">
        <ele>919.2</ele>
        <time>2021-08-13T09:25:02Z</time>
      </trkpt>
      <trkpt lat="47.00973" lon="6.5838">
        <ele>919.2</ele>
        <time>2021-08-13T09:25:03Z</time>
      </trkpt>
      <trkpt lat="47.00974" lon="6.58378">
        <ele>919.3</ele>
        <time>2021-08-13T09:25:05Z</time>
      </trkpt>
      <trkpt lat="47.00975" lon="6.58375">
        <ele>919.4</ele>
        <time>2021-08-13T09:25:06Z</time>
      </trkpt>
      <trkpt lat="47.00977" lon="6.58371">
        <ele>919.6</ele>
        <time>2021-08-13T09:25:08Z</time>
      </trkpt>
      <trkpt lat="47.00977" lon="6.58369">
        <ele>919.7</ele>
        <time>2021-08-13T09:25:09Z</time>
      </trkpt>
      <trkpt lat="47.00977" lon="6.58367">
        <ele>919.7</ele>
        <time>2021-08-13T09:25:10Z</time>
      </trkpt>
      <trkpt lat="47.00977" lon="6.58365">
        <ele>919.8</ele>
        <time>2021-08-13T09:25:12Z</time>
      </trkpt>
      <trkpt lat="47.00977" lon="6.58364">
        <ele>919.9</ele>
        <time>2021-08-13T09:25:13Z</time>
      </trkpt>
      <trkpt lat="47.00977" lon="6.58364">
        <ele>919.9</ele>
        <time>2021-08-13T09:25:15Z</time>
      </trkpt>
      <trkpt lat="47.00977" lon="6.58364">
        <ele>919.9</ele>
        <time>2021-08-13T09:25:16Z</time>
      </trkpt>
      <trkpt lat="47.00977" lon="6.58364">
        <ele>919.9</ele>
        <time>2021-08-13T09:25:18Z</time>
      </trkpt>
      <trkpt lat="47.00977" lon="6.58364">
        <ele>919.9</ele>
        <time>2021-08-13T09:25:19Z</time>
      </trkpt>
      <trkpt lat="47.00977" lon="6.58364">
        <ele>919.9</ele>
        <time>2021-08-13T09:25:20Z</time>
      </trkpt>
      <trkpt lat="47.00977" lon="6.58364">
        <ele>919.9</ele>
        <time>2021-08-13T09:25:21Z</time>
      </trkpt>
      <trkpt lat="47.00977" lon="6.58364">
        <ele>919.9</ele>
        <time>2021-08-13T09:25:22Z</time>
      </trkpt>
      <trkpt lat="47.00977" lon="6.58364">
        <ele>920</ele>
        <time>2021-08-13T09:25:23Z</time>
      </trkpt>
      <trkpt lat="47.00977" lon="6.58363">
        <ele>920</ele>
        <time>2021-08-13T09:25:24Z</time>
      </trkpt>
      <trkpt lat="47.00977" lon="6.58361">
        <ele>920</ele>
        <time>2021-08-13T09:25:25Z</time>
      </trkpt>
      <trkpt lat="47.00976" lon="6.58357">
        <ele>920.2</ele>
        <time>2021-08-13T09:25:27Z</time>
      </trkpt>
      <trkpt lat="47.00976" lon="6.58355">
        <ele>920.3</ele>
        <time>2021-08-13T09:25:28Z</time>
      </trkpt>
      <trkpt lat="47.00976" lon="6.58353">
        <ele>920.4</ele>
        <time>2021-08-13T09:25:29Z</time>
      </trkpt>
      <trkpt lat="47.00976" lon="6.58353">
        <ele>920.4</ele>
        <time>2021-08-13T09:25:29Z</time>
      </trkpt>
      <trkpt lat="47.00975" lon="6.5835">
        <ele>920.5</ele>
        <time>2021-08-13T09:25:30Z</time>
      </trkpt>
      <trkpt lat="47.00973" lon="6.58346">
        <ele>920.7</ele>
        <time>2021-08-13T09:25:32Z</time>
      </trkpt>
      <trkpt lat="47.00972" lon="6.58342">
        <ele>920.9</ele>
        <time>2021-08-13T09:25:33Z</time>
      </trkpt>
      <trkpt lat="47.0097" lon="6.58338">
        <ele>921.1</ele>
        <time>2021-08-13T09:25:34Z</time>
      </trkpt>
      <trkpt lat="47.00968" lon="6.58333">
        <ele>921.4</ele>
        <time>2021-08-13T09:25:35Z</time>
      </trkpt>
      <trkpt lat="47.00968" lon="6.58332">
        <ele>921.4</ele>
        <time>2021-08-13T09:25:36Z</time>
      </trkpt>
      <trkpt lat="47.00967" lon="6.5833">
        <ele>921.5</ele>
        <time>2021-08-13T09:25:37Z</time>
      </trkpt>
      <trkpt lat="47.00966" lon="6.58328">
        <ele>921.7</ele>
        <time>2021-08-13T09:25:38Z</time>
      </trkpt>
      <trkpt lat="47.00965" lon="6.58323">
        <ele>921.9</ele>
        <time>2021-08-13T09:25:39Z</time>
      </trkpt>
      <trkpt lat="47.00963" lon="6.5832">
        <ele>922.1</ele>
        <time>2021-08-13T09:25:41Z</time>
      </trkpt>
      <trkpt lat="47.00962" lon="6.58319">
        <ele>922.2</ele>
        <time>2021-08-13T09:25:42Z</time>
      </trkpt>
      <trkpt lat="47.00961" lon="6.58317">
        <ele>922.3</ele>
        <time>2021-08-13T09:25:43Z</time>
      </trkpt>
      <trkpt lat="47.00961" lon="6.58315">
        <ele>922.4</ele>
        <time>2021-08-13T09:25:44Z</time>
      </trkpt>
      <trkpt lat="47.0096" lon="6.58313">
        <ele>922.5</ele>
        <time>2021-08-13T09:25:45Z</time>
      </trkpt>
      <trkpt lat="47.0096" lon="6.5831">
        <ele>922.6</ele>
        <time>2021-08-13T09:25:47Z</time>
      </trkpt>
      <trkpt lat="47.0096" lon="6.58308">
        <ele>922.7</ele>
        <time>2021-08-13T09:25:48Z</time>
      </trkpt>
      <trkpt lat="47.00959" lon="6.58306">
        <ele>922.8</ele>
        <time>2021-08-13T09:25:49Z</time>
      </trkpt>
      <trkpt lat="47.00959" lon="6.58303">
        <ele>922.9</ele>
        <time>2021-08-13T09:25:50Z</time>
      </trkpt>
      <trkpt lat="47.00959" lon="6.58301">
        <ele>923</ele>
        <time>2021-08-13T09:25:51Z</time>
      </trkpt>
      <trkpt lat="47.00959" lon="6.58297">
        <ele>923.2</ele>
        <time>2021-08-13T09:25:52Z</time>
      </trkpt>
      <trkpt lat="47.00959" lon="6.58295">
        <ele>923.2</ele>
        <time>2021-08-13T09:25:53Z</time>
      </trkpt>
      <trkpt lat="47.00958" lon="6.58293">
        <ele>923.4</ele>
        <time>2021-08-13T09:25:55Z</time>
      </trkpt>
      <trkpt lat="47.00958" lon="6.58291">
        <ele>923.5</ele>
        <time>2021-08-13T09:25:56Z</time>
      </trkpt>
      <trkpt lat="47.00957" lon="6.58289">
        <ele>923.6</ele>
        <time>2021-08-13T09:25:57Z</time>
      </trkpt>
      <trkpt lat="47.00957" lon="6.58286">
        <ele>923.6</ele>
        <time>2021-08-13T09:25:58Z</time>
      </trkpt>
      <trkpt lat="47.00957" lon="6.58284">
        <ele>923.7</ele>
        <time>2021-08-13T09:25:59Z</time>
      </trkpt>
      <trkpt lat="47.00956" lon="6.58282">
        <ele>923.8</ele>
        <time>2021-08-13T09:26:00Z</time>
      </trkpt>
      <trkpt lat="47.00955" lon="6.58281">
        <ele>923.9</ele>
        <time>2021-08-13T09:26:02Z</time>
      </trkpt>
      <trkpt lat="47.00955" lon="6.5828">
        <ele>923.9</ele>
        <time>2021-08-13T09:26:03Z</time>
      </trkpt>
      <trkpt lat="47.00955" lon="6.5828">
        <ele>923.9</ele>
        <time>2021-08-13T09:26:04Z</time>
      </trkpt>
      <trkpt lat="47.00954" lon="6.58276">
        <ele>924.1</ele>
        <time>2021-08-13T09:26:06Z</time>
      </trkpt>
      <trkpt lat="47.00952" lon="6.58271">
        <ele>924.3</ele>
        <time>2021-08-13T09:26:08Z</time>
      </trkpt>
      <trkpt lat="47.00952" lon="6.58267">
        <ele>924.4</ele>
        <time>2021-08-13T09:26:10Z</time>
      </trkpt>
      <trkpt lat="47.00952" lon="6.58265">
        <ele>924.4</ele>
        <time>2021-08-13T09:26:11Z</time>
      </trkpt>
      <trkpt lat="47.00951" lon="6.5826">
        <ele>924.5</ele>
        <time>2021-08-13T09:26:12Z</time>
      </trkpt>
      <trkpt lat="47.00951" lon="6.58259">
        <ele>924.6</ele>
        <time>2021-08-13T09:26:13Z</time>
      </trkpt>
      <trkpt lat="47.00949" lon="6.58256">
        <ele>924.7</ele>
        <time>2021-08-13T09:26:15Z</time>
      </trkpt>
      <trkpt lat="47.00948" lon="6.58255">
        <ele>924.7</ele>
        <time>2021-08-13T09:26:16Z</time>
      </trkpt>
      <trkpt lat="47.00946" lon="6.5825">
        <ele>924.8</ele>
        <time>2021-08-13T09:26:18Z</time>
      </trkpt>
      <trkpt lat="47.00945" lon="6.58248">
        <ele>924.9</ele>
        <time>2021-08-13T09:26:19Z</time>
      </trkpt>
      <trkpt lat="47.00944" lon="6.58246">
        <ele>924.9</ele>
        <time>2021-08-13T09:26:20Z</time>
      </trkpt>
      <trkpt lat="47.00943" lon="6.58242">
        <ele>925</ele>
        <time>2021-08-13T09:26:21Z</time>
      </trkpt>
      <trkpt lat="47.00942" lon="6.58241">
        <ele>925.1</ele>
        <time>2021-08-13T09:26:22Z</time>
      </trkpt>
      <trkpt lat="47.00941" lon="6.58239">
        <ele>925.1</ele>
        <time>2021-08-13T09:26:23Z</time>
      </trkpt>
      <trkpt lat="47.0094" lon="6.58237">
        <ele>925.2</ele>
        <time>2021-08-13T09:26:24Z</time>
      </trkpt>
      <trkpt lat="47.00938" lon="6.58235">
        <ele>925.2</ele>
        <time>2021-08-13T09:26:26Z</time>
      </trkpt>
      <trkpt lat="47.00936" lon="6.58232">
        <ele>925.3</ele>
        <time>2021-08-13T09:26:28Z</time>
      </trkpt>
      <trkpt lat="47.00934" lon="6.58227">
        <ele>925.4</ele>
        <time>2021-08-13T09:26:29Z</time>
      </trkpt>
      <trkpt lat="47.00933" lon="6.58225">
        <ele>925.5</ele>
        <time>2021-08-13T09:26:30Z</time>
      </trkpt>
      <trkpt lat="47.00931" lon="6.58221">
        <ele>925.5</ele>
        <time>2021-08-13T09:26:32Z</time>
      </trkpt>
      <trkpt lat="47.00929" lon="6.58216">
        <ele>925.6</ele>
        <time>2021-08-13T09:26:34Z</time>
      </trkpt>
      <trkpt lat="47.00928" lon="6.58213">
        <ele>925.7</ele>
        <time>2021-08-13T09:26:35Z</time>
      </trkpt>
      <trkpt lat="47.00927" lon="6.58211">
        <ele>925.7</ele>
        <time>2021-08-13T09:26:36Z</time>
      </trkpt>
      <trkpt lat="47.00925" lon="6.58209">
        <ele>925.8</ele>
        <time>2021-08-13T09:26:37Z</time>
      </trkpt>
      <trkpt lat="47.00924" lon="6.58208">
        <ele>925.8</ele>
        <time>2021-08-13T09:26:38Z</time>
      </trkpt>
      <trkpt lat="47.00923" lon="6.58203">
        <ele>926</ele>
        <time>2021-08-13T09:26:40Z</time>
      </trkpt>
      <trkpt lat="47.00922" lon="6.58201">
        <ele>926</ele>
        <time>2021-08-13T09:26:41Z</time>
      </trkpt>
      <trkpt lat="47.00921" lon="6.58198">
        <ele>926.1</ele>
        <time>2021-08-13T09:26:43Z</time>
      </trkpt>
      <trkpt lat="47.0092" lon="6.58196">
        <ele>926.2</ele>
        <time>2021-08-13T09:26:44Z</time>
      </trkpt>
      <trkpt lat="47.0092" lon="6.58193">
        <ele>926.2</ele>
        <time>2021-08-13T09:26:45Z</time>
      </trkpt>
      <trkpt lat="47.00919" lon="6.58191">
        <ele>926.3</ele>
        <time>2021-08-13T09:26:46Z</time>
      </trkpt>
      <trkpt lat="47.00919" lon="6.58189">
        <ele>926.3</ele>
        <time>2021-08-13T09:26:47Z</time>
      </trkpt>
      <trkpt lat="47.00917" lon="6.58184">
        <ele>926.5</ele>
        <time>2021-08-13T09:26:49Z</time>
      </trkpt>
      <trkpt lat="47.00916" lon="6.58182">
        <ele>926.5</ele>
        <time>2021-08-13T09:26:50Z</time>
      </trkpt>
      <trkpt lat="47.00915" lon="6.58181">
        <ele>926.6</ele>
        <time>2021-08-13T09:26:51Z</time>
      </trkpt>
      <trkpt lat="47.00913" lon="6.58177">
        <ele>926.7</ele>
        <time>2021-08-13T09:26:52Z</time>
      </trkpt>
      <trkpt lat="47.00911" lon="6.58173">
        <ele>926.8</ele>
        <time>2021-08-13T09:26:54Z</time>
      </trkpt>
      <trkpt lat="47.0091" lon="6.58172">
        <ele>926.9</ele>
        <time>2021-08-13T09:26:55Z</time>
      </trkpt>
      <trkpt lat="47.00908" lon="6.58169">
        <ele>927</ele>
        <time>2021-08-13T09:26:56Z</time>
      </trkpt>
      <trkpt lat="47.00908" lon="6.58168">
        <ele>927</ele>
        <time>2021-08-13T09:26:57Z</time>
      </trkpt>
      <trkpt lat="47.00906" lon="6.58164">
        <ele>927.1</ele>
        <time>2021-08-13T09:26:58Z</time>
      </trkpt>
      <trkpt lat="47.00906" lon="6.58162">
        <ele>927.2</ele>
        <time>2021-08-13T09:26:59Z</time>
      </trkpt>
      <trkpt lat="47.00905" lon="6.5816">
        <ele>927.2</ele>
        <time>2021-08-13T09:27:00Z</time>
      </trkpt>
      <trkpt lat="47.00904" lon="6.58157">
        <ele>927.3</ele>
        <time>2021-08-13T09:27:02Z</time>
      </trkpt>
      <trkpt lat="47.00902" lon="6.58154">
        <ele>927.4</ele>
        <time>2021-08-13T09:27:03Z</time>
      </trkpt>
      <trkpt lat="47.00901" lon="6.58151">
        <ele>927.5</ele>
        <time>2021-08-13T09:27:05Z</time>
      </trkpt>
      <trkpt lat="47.009" lon="6.58147">
        <ele>927.6</ele>
        <time>2021-08-13T09:27:06Z</time>
      </trkpt>
      <trkpt lat="47.009" lon="6.58145">
        <ele>927.6</ele>
        <time>2021-08-13T09:27:07Z</time>
      </trkpt>
      <trkpt lat="47.009" lon="6.58141">
        <ele>927.7</ele>
        <time>2021-08-13T09:27:09Z</time>
      </trkpt>
      <trkpt lat="47.00899" lon="6.58135">
        <ele>927.8</ele>
        <time>2021-08-13T09:27:11Z</time>
      </trkpt>
      <trkpt lat="47.009" lon="6.5813">
        <ele>927.9</ele>
        <time>2021-08-13T09:27:12Z</time>
      </trkpt>
      <trkpt lat="47.00901" lon="6.58126">
        <ele>928</ele>
        <time>2021-08-13T09:27:13Z</time>
      </trkpt>
      <trkpt lat="47.00902" lon="6.58125">
        <ele>928</ele>
        <time>2021-08-13T09:27:14Z</time>
      </trkpt>
      <trkpt lat="47.00902" lon="6.58122">
        <ele>928.1</ele>
        <time>2021-08-13T09:27:15Z</time>
      </trkpt>
      <trkpt lat="47.00902" lon="6.58119">
        <ele>928.2</ele>
        <time>2021-08-13T09:27:17Z</time>
      </trkpt>
      <trkpt lat="47.00901" lon="6.58117">
        <ele>928.2</ele>
        <time>2021-08-13T09:27:18Z</time>
      </trkpt>
      <trkpt lat="47.00901" lon="6.58114">
        <ele>928.3</ele>
        <time>2021-08-13T09:27:19Z</time>
      </trkpt>
      <trkpt lat="47.009" lon="6.58109">
        <ele>928.4</ele>
        <time>2021-08-13T09:27:21Z</time>
      </trkpt>
      <trkpt lat="47.00899" lon="6.58105">
        <ele>928.5</ele>
        <time>2021-08-13T09:27:23Z</time>
      </trkpt>
      <trkpt lat="47.00899" lon="6.58104">
        <ele>928.6</ele>
        <time>2021-08-13T09:27:24Z</time>
      </trkpt>
      <trkpt lat="47.00898" lon="6.58102">
        <ele>928.7</ele>
        <time>2021-08-13T09:27:25Z</time>
      </trkpt>
      <trkpt lat="47.00898" lon="6.58101">
        <ele>928.7</ele>
        <time>2021-08-13T09:27:26Z</time>
      </trkpt>
      <trkpt lat="47.00897" lon="6.58099">
        <ele>928.8</ele>
        <time>2021-08-13T09:27:27Z</time>
      </trkpt>
      <trkpt lat="47.00898" lon="6.58094">
        <ele>928.9</ele>
        <time>2021-08-13T09:27:29Z</time>
      </trkpt>
      <trkpt lat="47.00899" lon="6.58089">
        <ele>929.2</ele>
        <time>2021-08-13T09:27:31Z</time>
      </trkpt>
      <trkpt lat="47.00901" lon="6.58085">
        <ele>929.3</ele>
        <time>2021-08-13T09:27:32Z</time>
      </trkpt>
      <trkpt lat="47.00902" lon="6.5808">
        <ele>929.5</ele>
        <time>2021-08-13T09:27:33Z</time>
      </trkpt>
      <trkpt lat="47.00904" lon="6.58075">
        <ele>929.7</ele>
        <time>2021-08-13T09:27:34Z</time>
      </trkpt>
      <trkpt lat="47.00905" lon="6.5807">
        <ele>929.8</ele>
        <time>2021-08-13T09:27:36Z</time>
      </trkpt>
      <trkpt lat="47.00906" lon="6.58066">
        <ele>929.9</ele>
        <time>2021-08-13T09:27:37Z</time>
      </trkpt>
      <trkpt lat="47.00906" lon="6.58062">
        <ele>930</ele>
        <time>2021-08-13T09:27:38Z</time>
      </trkpt>
      <trkpt lat="47.00906" lon="6.5806">
        <ele>930.1</ele>
        <time>2021-08-13T09:27:39Z</time>
      </trkpt>
      <trkpt lat="47.00907" lon="6.58055">
        <ele>930.2</ele>
        <time>2021-08-13T09:27:40Z</time>
      </trkpt>
      <trkpt lat="47.00907" lon="6.58054">
        <ele>930.2</ele>
        <time>2021-08-13T09:27:41Z</time>
      </trkpt>
      <trkpt lat="47.00908" lon="6.5805">
        <ele>930.3</ele>
        <time>2021-08-13T09:27:43Z</time>
      </trkpt>
      <trkpt lat="47.0091" lon="6.58047">
        <ele>930.3</ele>
        <time>2021-08-13T09:27:44Z</time>
      </trkpt>
      <trkpt lat="47.00911" lon="6.58044">
        <ele>930.3</ele>
        <time>2021-08-13T09:27:45Z</time>
      </trkpt>
      <trkpt lat="47.00912" lon="6.58041">
        <ele>930.3</ele>
        <time>2021-08-13T09:27:47Z</time>
      </trkpt>
      <trkpt lat="47.00914" lon="6.58037">
        <ele>930.3</ele>
        <time>2021-08-13T09:27:48Z</time>
      </trkpt>
      <trkpt lat="47.00915" lon="6.58035">
        <ele>930.3</ele>
        <time>2021-08-13T09:27:49Z</time>
      </trkpt>
      <trkpt lat="47.00915" lon="6.58032">
        <ele>930.2</ele>
        <time>2021-08-13T09:27:50Z</time>
      </trkpt>
      <trkpt lat="47.00916" lon="6.58027">
        <ele>930.2</ele>
        <time>2021-08-13T09:27:52Z</time>
      </trkpt>
      <trkpt lat="47.00918" lon="6.58019">
        <ele>930</ele>
        <time>2021-08-13T09:27:53Z</time>
      </trkpt>
      <trkpt lat="47.00918" lon="6.58013">
        <ele>929.8</ele>
        <time>2021-08-13T09:27:54Z</time>
      </trkpt>
      <trkpt lat="47.00923" lon="6.57997">
        <ele>929.3</ele>
        <time>2021-08-13T09:27:56Z</time>
      </trkpt>
      <trkpt lat="47.00925" lon="6.57989">
        <ele>929</ele>
        <time>2021-08-13T09:27:57Z</time>
      </trkpt>
      <trkpt lat="47.00931" lon="6.57973">
        <ele>928.4</ele>
        <time>2021-08-13T09:27:59Z</time>
      </trkpt>
      <trkpt lat="47.00933" lon="6.57965">
        <ele>928.1</ele>
        <time>2021-08-13T09:28:00Z</time>
      </trkpt>
      <trkpt lat="47.00936" lon="6.57948">
        <ele>927.5</ele>
        <time>2021-08-13T09:28:02Z</time>
      </trkpt>
      <trkpt lat="47.00938" lon="6.57928">
        <ele>926.8</ele>
        <time>2021-08-13T09:28:04Z</time>
      </trkpt>
      <trkpt lat="47.0094" lon="6.57909">
        <ele>926.1</ele>
        <time>2021-08-13T09:28:06Z</time>
      </trkpt>
      <trkpt lat="47.0094" lon="6.57899">
        <ele>925.8</ele>
        <time>2021-08-13T09:28:07Z</time>
      </trkpt>
      <trkpt lat="47.0094" lon="6.57878">
        <ele>925</ele>
        <time>2021-08-13T09:28:09Z</time>
      </trkpt>
      <trkpt lat="47.00939" lon="6.57856">
        <ele>924</ele>
        <time>2021-08-13T09:28:11Z</time>
      </trkpt>
      <trkpt lat="47.00938" lon="6.57835">
        <ele>923</ele>
        <time>2021-08-13T09:28:13Z</time>
      </trkpt>
      <trkpt lat="47.00937" lon="6.57824">
        <ele>922.5</ele>
        <time>2021-08-13T09:28:14Z</time>
      </trkpt>
      <trkpt lat="47.00935" lon="6.578">
        <ele>921.4</ele>
        <time>2021-08-13T09:28:16Z</time>
      </trkpt>
      <trkpt lat="47.00936" lon="6.57788">
        <ele>920.9</ele>
        <time>2021-08-13T09:28:17Z</time>
      </trkpt>
      <trkpt lat="47.0094" lon="6.57766">
        <ele>920.3</ele>
        <time>2021-08-13T09:28:19Z</time>
      </trkpt>
      <trkpt lat="47.00943" lon="6.57756">
        <ele>920.2</ele>
        <time>2021-08-13T09:28:20Z</time>
      </trkpt>
      <trkpt lat="47.00948" lon="6.57746">
        <ele>920.1</ele>
        <time>2021-08-13T09:28:21Z</time>
      </trkpt>
      <trkpt lat="47.00957" lon="6.57727">
        <ele>920.3</ele>
        <time>2021-08-13T09:28:23Z</time>
      </trkpt>
      <trkpt lat="47.00969" lon="6.57715">
        <ele>920.8</ele>
        <time>2021-08-13T09:28:25Z</time>
      </trkpt>
      <trkpt lat="47.00976" lon="6.57713">
        <ele>921.1</ele>
        <time>2021-08-13T09:28:26Z</time>
      </trkpt>
      <trkpt lat="47.00991" lon="6.5771">
        <ele>922</ele>
        <time>2021-08-13T09:28:28Z</time>
      </trkpt>
      <trkpt lat="47.00998" lon="6.57711">
        <ele>922.5</ele>
        <time>2021-08-13T09:28:29Z</time>
      </trkpt>
      <trkpt lat="47.01008" lon="6.57721">
        <ele>923.2</ele>
        <time>2021-08-13T09:28:31Z</time>
      </trkpt>
      <trkpt lat="47.01011" lon="6.57726">
        <ele>923.5</ele>
        <time>2021-08-13T09:28:32Z</time>
      </trkpt>
      <trkpt lat="47.01021" lon="6.57737">
        <ele>924.2</ele>
        <time>2021-08-13T09:28:34Z</time>
      </trkpt>
      <trkpt lat="47.01024" lon="6.5774">
        <ele>924.4</ele>
        <time>2021-08-13T09:28:35Z</time>
      </trkpt>
      <trkpt lat="47.01033" lon="6.57748">
        <ele>925</ele>
        <time>2021-08-13T09:28:37Z</time>
      </trkpt>
      <trkpt lat="47.0104" lon="6.57752">
        <ele>925.4</ele>
        <time>2021-08-13T09:28:39Z</time>
      </trkpt>
      <trkpt lat="47.01045" lon="6.57755">
        <ele>925.7</ele>
        <time>2021-08-13T09:28:40Z</time>
      </trkpt>
      <trkpt lat="47.01049" lon="6.57761">
        <ele>926</ele>
        <time>2021-08-13T09:28:41Z</time>
      </trkpt>
      <trkpt lat="47.01054" lon="6.57764">
        <ele>926.3</ele>
        <time>2021-08-13T09:28:43Z</time>
      </trkpt>
      <trkpt lat="47.01057" lon="6.57766">
        <ele>926.5</ele>
        <time>2021-08-13T09:28:44Z</time>
      </trkpt>
      <trkpt lat="47.01063" lon="6.57769">
        <ele>926.8</ele>
        <time>2021-08-13T09:28:46Z</time>
      </trkpt>
      <trkpt lat="47.01068" lon="6.57774">
        <ele>927.2</ele>
        <time>2021-08-13T09:28:47Z</time>
      </trkpt>
      <trkpt lat="47.01071" lon="6.57777">
        <ele>927.4</ele>
        <time>2021-08-13T09:28:49Z</time>
      </trkpt>
      <trkpt lat="47.01074" lon="6.57781">
        <ele>927.6</ele>
        <time>2021-08-13T09:28:50Z</time>
      </trkpt>
      <trkpt lat="47.01076" lon="6.57783">
        <ele>927.8</ele>
        <time>2021-08-13T09:28:51Z</time>
      </trkpt>
      <trkpt lat="47.01079" lon="6.57788">
        <ele>928.1</ele>
        <time>2021-08-13T09:28:53Z</time>
      </trkpt>
      <trkpt lat="47.0108" lon="6.57792">
        <ele>928.2</ele>
        <time>2021-08-13T09:28:54Z</time>
      </trkpt>
      <trkpt lat="47.01083" lon="6.57796">
        <ele>928.5</ele>
        <time>2021-08-13T09:28:55Z</time>
      </trkpt>
      <trkpt lat="47.01085" lon="6.578">
        <ele>928.7</ele>
        <time>2021-08-13T09:28:57Z</time>
      </trkpt>
      <trkpt lat="47.01087" lon="6.57804">
        <ele>928.8</ele>
        <time>2021-08-13T09:28:58Z</time>
      </trkpt>
      <trkpt lat="47.01089" lon="6.57807">
        <ele>929.1</ele>
        <time>2021-08-13T09:29:00Z</time>
      </trkpt>
      <trkpt lat="47.01092" lon="6.5781">
        <ele>929.2</ele>
        <time>2021-08-13T09:29:01Z</time>
      </trkpt>
      <trkpt lat="47.01095" lon="6.57811">
        <ele>929.4</ele>
        <time>2021-08-13T09:29:03Z</time>
      </trkpt>
      <trkpt lat="47.01096" lon="6.57812">
        <ele>929.5</ele>
        <time>2021-08-13T09:29:04Z</time>
      </trkpt>
      <trkpt lat="47.01099" lon="6.57812">
        <ele>929.7</ele>
        <time>2021-08-13T09:29:06Z</time>
      </trkpt>
      <trkpt lat="47.01102" lon="6.57812">
        <ele>929.9</ele>
        <time>2021-08-13T09:29:07Z</time>
      </trkpt>
      <trkpt lat="47.01107" lon="6.57811">
        <ele>930.2</ele>
        <time>2021-08-13T09:29:09Z</time>
      </trkpt>
      <trkpt lat="47.0111" lon="6.57811">
        <ele>930.4</ele>
        <time>2021-08-13T09:29:10Z</time>
      </trkpt>
      <trkpt lat="47.01111" lon="6.57811">
        <ele>930.4</ele>
        <time>2021-08-13T09:29:11Z</time>
      </trkpt>
      <trkpt lat="47.01113" lon="6.57811">
        <ele>930.6</ele>
        <time>2021-08-13T09:29:12Z</time>
      </trkpt>
      <trkpt lat="47.01117" lon="6.57812">
        <ele>930.9</ele>
        <time>2021-08-13T09:29:14Z</time>
      </trkpt>
      <trkpt lat="47.01121" lon="6.57815">
        <ele>931.3</ele>
        <time>2021-08-13T09:29:16Z</time>
      </trkpt>
      <trkpt lat="47.01124" lon="6.57816">
        <ele>931.5</ele>
        <time>2021-08-13T09:29:17Z</time>
      </trkpt>
      <trkpt lat="47.01129" lon="6.57816">
        <ele>933</ele>
        <time>2021-08-13T09:29:19Z</time>
      </trkpt>
      <trkpt lat="47.01132" lon="6.57816">
        <ele>933</ele>
        <time>2021-08-13T09:29:20Z</time>
      </trkpt>
      <trkpt lat="47.01135" lon="6.57813">
        <ele>933</ele>
        <time>2021-08-13T09:29:22Z</time>
      </trkpt>
      <trkpt lat="47.01136" lon="6.57812">
        <ele>933.6</ele>
        <time>2021-08-13T09:29:23Z</time>
      </trkpt>
      <trkpt lat="47.01137" lon="6.5781">
        <ele>933.7</ele>
        <time>2021-08-13T09:29:24Z</time>
      </trkpt>
      <trkpt lat="47.01136" lon="6.57806">
        <ele>933.8</ele>
        <time>2021-08-13T09:29:26Z</time>
      </trkpt>
      <trkpt lat="47.01134" lon="6.57801">
        <ele>934</ele>
        <time>2021-08-13T09:29:28Z</time>
      </trkpt>
      <trkpt lat="47.01132" lon="6.57798">
        <ele>934.1</ele>
        <time>2021-08-13T09:29:29Z</time>
      </trkpt>
      <trkpt lat="47.01129" lon="6.57796">
        <ele>934.2</ele>
        <time>2021-08-13T09:29:31Z</time>
      </trkpt>
      <trkpt lat="47.01129" lon="6.57795">
        <ele>934.2</ele>
        <time>2021-08-13T09:29:32Z</time>
      </trkpt>
      <trkpt lat="47.01126" lon="6.57791">
        <ele>934.4</ele>
        <time>2021-08-13T09:29:33Z</time>
      </trkpt>
      <trkpt lat="47.01123" lon="6.57789">
        <ele>934.5</ele>
        <time>2021-08-13T09:29:35Z</time>
      </trkpt>
      <trkpt lat="47.01122" lon="6.57789">
        <ele>934.5</ele>
        <time>2021-08-13T09:29:36Z</time>
      </trkpt>
      <trkpt lat="47.01119" lon="6.57789">
        <ele>934.6</ele>
        <time>2021-08-13T09:29:37Z</time>
      </trkpt>
      <trkpt lat="47.01115" lon="6.57786">
        <ele>934.8</ele>
        <time>2021-08-13T09:29:39Z</time>
      </trkpt>
      <trkpt lat="47.01113" lon="6.57784">
        <ele>934.9</ele>
        <time>2021-08-13T09:29:40Z</time>
      </trkpt>
      <trkpt lat="47.01112" lon="6.57783">
        <ele>934.9</ele>
        <time>2021-08-13T09:29:41Z</time>
      </trkpt>
      <trkpt lat="47.01109" lon="6.57781">
        <ele>935</ele>
        <time>2021-08-13T09:29:43Z</time>
      </trkpt>
      <trkpt lat="47.01108" lon="6.5778">
        <ele>935.1</ele>
        <time>2021-08-13T09:29:44Z</time>
      </trkpt>
      <trkpt lat="47.01106" lon="6.57777">
        <ele>935.2</ele>
        <time>2021-08-13T09:29:45Z</time>
      </trkpt>
      <trkpt lat="47.01104" lon="6.57775">
        <ele>935.2</ele>
        <time>2021-08-13T09:29:46Z</time>
      </trkpt>
      <trkpt lat="47.01103" lon="6.57773">
        <ele>935.3</ele>
        <time>2021-08-13T09:29:47Z</time>
      </trkpt>
      <trkpt lat="47.01101" lon="6.57769">
        <ele>935.4</ele>
        <time>2021-08-13T09:29:49Z</time>
      </trkpt>
      <trkpt lat="47.01099" lon="6.57766">
        <ele>935.4</ele>
        <time>2021-08-13T09:29:50Z</time>
      </trkpt>
      <trkpt lat="47.01098" lon="6.57765">
        <ele>935.5</ele>
        <time>2021-08-13T09:29:51Z</time>
      </trkpt>
      <trkpt lat="47.01096" lon="6.57761">
        <ele>935.6</ele>
        <time>2021-08-13T09:29:52Z</time>
      </trkpt>
      <trkpt lat="47.01093" lon="6.57757">
        <ele>935.7</ele>
        <time>2021-08-13T09:29:54Z</time>
      </trkpt>
      <trkpt lat="47.0109" lon="6.57753">
        <ele>935.7</ele>
        <time>2021-08-13T09:29:55Z</time>
      </trkpt>
      <trkpt lat="47.01089" lon="6.57749">
        <ele>935.8</ele>
        <time>2021-08-13T09:29:56Z</time>
      </trkpt>
      <trkpt lat="47.01088" lon="6.57747">
        <ele>935.9</ele>
        <time>2021-08-13T09:29:57Z</time>
      </trkpt>
      <trkpt lat="47.01086" lon="6.57745">
        <ele>935.9</ele>
        <time>2021-08-13T09:29:58Z</time>
      </trkpt>
      <trkpt lat="47.01082" lon="6.57743">
        <ele>936</ele>
        <time>2021-08-13T09:30:00Z</time>
      </trkpt>
      <trkpt lat="47.01081" lon="6.57742">
        <ele>936.1</ele>
        <time>2021-08-13T09:30:01Z</time>
      </trkpt>
      <trkpt lat="47.01079" lon="6.57739">
        <ele>936.1</ele>
        <time>2021-08-13T09:30:02Z</time>
      </trkpt>
      <trkpt lat="47.01078" lon="6.57738">
        <ele>936.2</ele>
        <time>2021-08-13T09:30:03Z</time>
      </trkpt>
      <trkpt lat="47.01077" lon="6.57735">
        <ele>936.2</ele>
        <time>2021-08-13T09:30:04Z</time>
      </trkpt>
      <trkpt lat="47.01075" lon="6.57728">
        <ele>936.4</ele>
        <time>2021-08-13T09:30:06Z</time>
      </trkpt>
      <trkpt lat="47.01074" lon="6.57724">
        <ele>936.4</ele>
        <time>2021-08-13T09:30:07Z</time>
      </trkpt>
      <trkpt lat="47.01071" lon="6.5772">
        <ele>936.5</ele>
        <time>2021-08-13T09:30:08Z</time>
      </trkpt>
      <trkpt lat="47.01069" lon="6.57713">
        <ele>936.6</ele>
        <time>2021-08-13T09:30:10Z</time>
      </trkpt>
      <trkpt lat="47.01067" lon="6.57711">
        <ele>936.7</ele>
        <time>2021-08-13T09:30:11Z</time>
      </trkpt>
      <trkpt lat="47.01065" lon="6.57709">
        <ele>936.7</ele>
        <time>2021-08-13T09:30:12Z</time>
      </trkpt>
      <trkpt lat="47.01063" lon="6.57705">
        <ele>936.8</ele>
        <time>2021-08-13T09:30:14Z</time>
      </trkpt>
      <trkpt lat="47.01061" lon="6.57702">
        <ele>936.9</ele>
        <time>2021-08-13T09:30:15Z</time>
      </trkpt>
      <trkpt lat="47.01057" lon="6.57697">
        <ele>936.9</ele>
        <time>2021-08-13T09:30:17Z</time>
      </trkpt>
      <trkpt lat="47.01055" lon="6.57693">
        <ele>937</ele>
        <time>2021-08-13T09:30:18Z</time>
      </trkpt>
      <trkpt lat="47.01051" lon="6.5769">
        <ele>937</ele>
        <time>2021-08-13T09:30:20Z</time>
      </trkpt>
      <trkpt lat="47.01047" lon="6.57684">
        <ele>937.1</ele>
        <time>2021-08-13T09:30:22Z</time>
      </trkpt>
      <trkpt lat="47.01044" lon="6.57679">
        <ele>937.1</ele>
        <time>2021-08-13T09:30:23Z</time>
      </trkpt>
      <trkpt lat="47.01042" lon="6.57675">
        <ele>937.2</ele>
        <time>2021-08-13T09:30:24Z</time>
      </trkpt>
      <trkpt lat="47.01039" lon="6.5767">
        <ele>937.2</ele>
        <time>2021-08-13T09:30:26Z</time>
      </trkpt>
      <trkpt lat="47.01035" lon="6.57664">
        <ele>937.3</ele>
        <time>2021-08-13T09:30:27Z</time>
      </trkpt>
      <trkpt lat="47.01032" lon="6.57659">
        <ele>937.3</ele>
        <time>2021-08-13T09:30:29Z</time>
      </trkpt>
      <trkpt lat="47.01031" lon="6.57657">
        <ele>937.3</ele>
        <time>2021-08-13T09:30:30Z</time>
      </trkpt>
      <trkpt lat="47.01031" lon="6.57656">
        <ele>937.4</ele>
        <time>2021-08-13T09:30:31Z</time>
      </trkpt>
      <trkpt lat="47.01029" lon="6.57653">
        <ele>937.4</ele>
        <time>2021-08-13T09:30:32Z</time>
      </trkpt>
      <trkpt lat="47.01027" lon="6.57648">
        <ele>937.4</ele>
        <time>2021-08-13T09:30:34Z</time>
      </trkpt>
      <trkpt lat="47.01025" lon="6.57643">
        <ele>937.5</ele>
        <time>2021-08-13T09:30:36Z</time>
      </trkpt>
      <trkpt lat="47.01022" lon="6.57639">
        <ele>937.6</ele>
        <time>2021-08-13T09:30:38Z</time>
      </trkpt>
      <trkpt lat="47.0102" lon="6.57636">
        <ele>937.7</ele>
        <time>2021-08-13T09:30:40Z</time>
      </trkpt>
      <trkpt lat="47.01019" lon="6.57633">
        <ele>937.8</ele>
        <time>2021-08-13T09:30:41Z</time>
      </trkpt>
      <trkpt lat="47.01019" lon="6.57628">
        <ele>937.9</ele>
        <time>2021-08-13T09:30:43Z</time>
      </trkpt>
      <trkpt lat="47.01017" lon="6.57621">
        <ele>938.1</ele>
        <time>2021-08-13T09:30:45Z</time>
      </trkpt>
      <trkpt lat="47.01017" lon="6.57618">
        <ele>938.2</ele>
        <time>2021-08-13T09:30:46Z</time>
      </trkpt>
      <trkpt lat="47.01017" lon="6.57615">
        <ele>938.3</ele>
        <time>2021-08-13T09:30:47Z</time>
      </trkpt>
      <trkpt lat="47.01019" lon="6.57606">
        <ele>938.7</ele>
        <time>2021-08-13T09:30:49Z</time>
      </trkpt>
      <trkpt lat="47.0102" lon="6.57601">
        <ele>939</ele>
        <time>2021-08-13T09:30:50Z</time>
      </trkpt>
      <trkpt lat="47.01022" lon="6.57594">
        <ele>939.4</ele>
        <time>2021-08-13T09:30:51Z</time>
      </trkpt>
      <trkpt lat="47.01023" lon="6.5759">
        <ele>939.6</ele>
        <time>2021-08-13T09:30:52Z</time>
      </trkpt>
      <trkpt lat="47.01024" lon="6.57586">
        <ele>939.9</ele>
        <time>2021-08-13T09:30:53Z</time>
      </trkpt>
      <trkpt lat="47.01025" lon="6.57584">
        <ele>940.1</ele>
        <time>2021-08-13T09:30:54Z</time>
      </trkpt>
      <trkpt lat="47.01026" lon="6.57582">
        <ele>940.2</ele>
        <time>2021-08-13T09:30:55Z</time>
      </trkpt>
      <trkpt lat="47.01026" lon="6.5758">
        <ele>940.3</ele>
        <time>2021-08-13T09:30:56Z</time>
      </trkpt>
      <trkpt lat="47.01026" lon="6.57578">
        <ele>940.5</ele>
        <time>2021-08-13T09:30:57Z</time>
      </trkpt>
      <trkpt lat="47.01025" lon="6.57576">
        <ele>940.6</ele>
        <time>2021-08-13T09:30:58Z</time>
      </trkpt>
      <trkpt lat="47.01024" lon="6.57575">
        <ele>940.7</ele>
        <time>2021-08-13T09:31:00Z</time>
      </trkpt>
      <trkpt lat="47.01022" lon="6.57574">
        <ele>940.9</ele>
        <time>2021-08-13T09:31:01Z</time>
      </trkpt>
      <trkpt lat="47.01021" lon="6.57575">
        <ele>941</ele>
        <time>2021-08-13T09:31:02Z</time>
      </trkpt>
      <trkpt lat="47.01018" lon="6.57575">
        <ele>941.2</ele>
        <time>2021-08-13T09:31:03Z</time>
      </trkpt>
      <trkpt lat="47.01017" lon="6.57574">
        <ele>941.3</ele>
        <time>2021-08-13T09:31:05Z</time>
      </trkpt>
      <trkpt lat="47.01017" lon="6.57575">
        <ele>941.4</ele>
        <time>2021-08-13T09:31:06Z</time>
      </trkpt>
      <trkpt lat="47.01016" lon="6.57577">
        <ele>941.5</ele>
        <time>2021-08-13T09:31:07Z</time>
      </trkpt>
      <trkpt lat="47.01015" lon="6.57578">
        <ele>941.6</ele>
        <time>2021-08-13T09:31:08Z</time>
      </trkpt>
      <trkpt lat="47.01015" lon="6.57579">
        <ele>941.7</ele>
        <time>2021-08-13T09:31:09Z</time>
      </trkpt>
      <trkpt lat="47.01015" lon="6.57579">
        <ele>941.7</ele>
        <time>2021-08-13T09:31:10Z</time>
      </trkpt>
      <trkpt lat="47.01015" lon="6.57579">
        <ele>941.7</ele>
        <time>2021-08-13T09:31:11Z</time>
      </trkpt>
      <trkpt lat="47.01015" lon="6.57579">
        <ele>941.7</ele>
        <time>2021-08-13T09:31:13Z</time>
      </trkpt>
      <trkpt lat="47.01001" lon="6.57551">
        <ele>943.5</ele>
        <time>2021-08-13T09:31:35Z</time>
      </trkpt>
      <trkpt lat="47.00998" lon="6.57545">
        <ele>943.7</ele>
        <time>2021-08-13T09:31:37Z</time>
      </trkpt>
      <trkpt lat="47.00994" lon="6.57538">
        <ele>944</ele>
        <time>2021-08-13T09:31:39Z</time>
      </trkpt>
      <trkpt lat="47.00991" lon="6.57536">
        <ele>944.1</ele>
        <time>2021-08-13T09:31:40Z</time>
      </trkpt>
      <trkpt lat="47.00989" lon="6.57534">
        <ele>944.2</ele>
        <time>2021-08-13T09:31:41Z</time>
      </trkpt>
      <trkpt lat="47.00984" lon="6.5753">
        <ele>944.4</ele>
        <time>2021-08-13T09:31:43Z</time>
      </trkpt>
      <trkpt lat="47.0098" lon="6.57524">
        <ele>944.5</ele>
        <time>2021-08-13T09:31:44Z</time>
      </trkpt>
      <trkpt lat="47.00974" lon="6.57514">
        <ele>944.6</ele>
        <time>2021-08-13T09:31:46Z</time>
      </trkpt>
      <trkpt lat="47.00969" lon="6.57503">
        <ele>944.7</ele>
        <time>2021-08-13T09:31:48Z</time>
      </trkpt>
      <trkpt lat="47.00963" lon="6.57491">
        <ele>944.9</ele>
        <time>2021-08-13T09:31:49Z</time>
      </trkpt>
      <trkpt lat="47.00957" lon="6.57483">
        <ele>945</ele>
        <time>2021-08-13T09:31:51Z</time>
      </trkpt>
      <trkpt lat="47.00952" lon="6.57475">
        <ele>945.1</ele>
        <time>2021-08-13T09:31:53Z</time>
      </trkpt>
      <trkpt lat="47.00949" lon="6.5747">
        <ele>945.2</ele>
        <time>2021-08-13T09:31:54Z</time>
      </trkpt>
      <trkpt lat="47.00946" lon="6.57468">
        <ele>945.2</ele>
        <time>2021-08-13T09:31:55Z</time>
      </trkpt>
      <trkpt lat="47.00941" lon="6.57465">
        <ele>945.3</ele>
        <time>2021-08-13T09:31:57Z</time>
      </trkpt>
      <trkpt lat="47.00935" lon="6.57461">
        <ele>945.4</ele>
        <time>2021-08-13T09:31:58Z</time>
      </trkpt>
      <trkpt lat="47.00928" lon="6.57457">
        <ele>945.4</ele>
        <time>2021-08-13T09:32:00Z</time>
      </trkpt>
      <trkpt lat="47.00922" lon="6.57453">
        <ele>945.5</ele>
        <time>2021-08-13T09:32:01Z</time>
      </trkpt>
      <trkpt lat="47.00916" lon="6.5745">
        <ele>945.6</ele>
        <time>2021-08-13T09:32:03Z</time>
      </trkpt>
      <trkpt lat="47.00912" lon="6.57448">
        <ele>945.6</ele>
        <time>2021-08-13T09:32:04Z</time>
      </trkpt>
      <trkpt lat="47.00913" lon="6.57448">
        <ele>945.6</ele>
        <time>2021-08-13T09:32:06Z</time>
      </trkpt>
      <trkpt lat="47.00913" lon="6.57447">
        <ele>945.6</ele>
        <time>2021-08-13T09:32:07Z</time>
      </trkpt>
      <trkpt lat="47.00912" lon="6.57446">
        <ele>945.6</ele>
        <time>2021-08-13T09:32:08Z</time>
      </trkpt>
      <trkpt lat="47.0091" lon="6.57444">
        <ele>945.7</ele>
        <time>2021-08-13T09:32:09Z</time>
      </trkpt>
      <trkpt lat="47.00908" lon="6.57439">
        <ele>945.7</ele>
        <time>2021-08-13T09:32:11Z</time>
      </trkpt>
      <trkpt lat="47.00907" lon="6.57436">
        <ele>945.7</ele>
        <time>2021-08-13T09:32:12Z</time>
      </trkpt>
      <trkpt lat="47.00906" lon="6.57429">
        <ele>945.8</ele>
        <time>2021-08-13T09:32:14Z</time>
      </trkpt>
      <trkpt lat="47.00905" lon="6.57421">
        <ele>945.9</ele>
        <time>2021-08-13T09:32:15Z</time>
      </trkpt>
      <trkpt lat="47.00904" lon="6.57417">
        <ele>945.9</ele>
        <time>2021-08-13T09:32:16Z</time>
      </trkpt>
      <trkpt lat="47.00902" lon="6.57413">
        <ele>946</ele>
        <time>2021-08-13T09:32:18Z</time>
      </trkpt>
      <trkpt lat="47.009" lon="6.5741">
        <ele>946</ele>
        <time>2021-08-13T09:32:19Z</time>
      </trkpt>
      <trkpt lat="47.00898" lon="6.57407">
        <ele>946.1</ele>
        <time>2021-08-13T09:32:20Z</time>
      </trkpt>
      <trkpt lat="47.00897" lon="6.57402">
        <ele>946.2</ele>
        <time>2021-08-13T09:32:22Z</time>
      </trkpt>
      <trkpt lat="47.00896" lon="6.574">
        <ele>946.2</ele>
        <time>2021-08-13T09:32:23Z</time>
      </trkpt>
      <trkpt lat="47.00897" lon="6.57393">
        <ele>946.3</ele>
        <time>2021-08-13T09:32:25Z</time>
      </trkpt>
      <trkpt lat="47.00897" lon="6.57388">
        <ele>946.4</ele>
        <time>2021-08-13T09:32:26Z</time>
      </trkpt>
      <trkpt lat="47.00898" lon="6.57382">
        <ele>946.4</ele>
        <time>2021-08-13T09:32:27Z</time>
      </trkpt>
      <trkpt lat="47.00899" lon="6.57376">
        <ele>946.5</ele>
        <time>2021-08-13T09:32:29Z</time>
      </trkpt>
      <trkpt lat="47.00899" lon="6.57374">
        <ele>946.6</ele>
        <time>2021-08-13T09:32:30Z</time>
      </trkpt>
      <trkpt lat="47.00899" lon="6.57371">
        <ele>946.6</ele>
        <time>2021-08-13T09:32:31Z</time>
      </trkpt>
      <trkpt lat="47.00899" lon="6.57366">
        <ele>946.7</ele>
        <time>2021-08-13T09:32:32Z</time>
      </trkpt>
      <trkpt lat="47.00899" lon="6.57364">
        <ele>946.7</ele>
        <time>2021-08-13T09:32:33Z</time>
      </trkpt>
      <trkpt lat="47.00896" lon="6.5736">
        <ele>946.8</ele>
        <time>2021-08-13T09:32:35Z</time>
      </trkpt>
      <trkpt lat="47.00895" lon="6.57358">
        <ele>946.9</ele>
        <time>2021-08-13T09:32:36Z</time>
      </trkpt>
      <trkpt lat="47.00894" lon="6.57352">
        <ele>947</ele>
        <time>2021-08-13T09:32:37Z</time>
      </trkpt>
      <trkpt lat="47.00894" lon="6.5735">
        <ele>947</ele>
        <time>2021-08-13T09:32:38Z</time>
      </trkpt>
      <trkpt lat="47.00893" lon="6.57345">
        <ele>947.1</ele>
        <time>2021-08-13T09:32:39Z</time>
      </trkpt>
      <trkpt lat="47.00892" lon="6.57343">
        <ele>947.2</ele>
        <time>2021-08-13T09:32:40Z</time>
      </trkpt>
      <trkpt lat="47.00892" lon="6.57337">
        <ele>947.3</ele>
        <time>2021-08-13T09:32:42Z</time>
      </trkpt>
      <trkpt lat="47.00893" lon="6.5733">
        <ele>947.6</ele>
        <time>2021-08-13T09:32:44Z</time>
      </trkpt>
      <trkpt lat="47.00894" lon="6.57325">
        <ele>947.7</ele>
        <time>2021-08-13T09:32:45Z</time>
      </trkpt>
      <trkpt lat="47.00895" lon="6.57321">
        <ele>947.9</ele>
        <time>2021-08-13T09:32:46Z</time>
      </trkpt>
      <trkpt lat="47.00896" lon="6.57315">
        <ele>948.1</ele>
        <time>2021-08-13T09:32:47Z</time>
      </trkpt>
      <trkpt lat="47.00896" lon="6.57312">
        <ele>948.2</ele>
        <time>2021-08-13T09:32:48Z</time>
      </trkpt>
      <trkpt lat="47.00895" lon="6.57308">
        <ele>948.3</ele>
        <time>2021-08-13T09:32:50Z</time>
      </trkpt>
      <trkpt lat="47.00894" lon="6.57302">
        <ele>948.5</ele>
        <time>2021-08-13T09:32:51Z</time>
      </trkpt>
      <trkpt lat="47.00892" lon="6.57297">
        <ele>948.8</ele>
        <time>2021-08-13T09:32:53Z</time>
      </trkpt>
      <trkpt lat="47.0089" lon="6.57293">
        <ele>949</ele>
        <time>2021-08-13T09:32:54Z</time>
      </trkpt>
      <trkpt lat="47.00884" lon="6.57287">
        <ele>949.4</ele>
        <time>2021-08-13T09:32:55Z</time>
      </trkpt>
      <trkpt lat="47.00881" lon="6.57283">
        <ele>949.7</ele>
        <time>2021-08-13T09:32:56Z</time>
      </trkpt>
      <trkpt lat="47.00878" lon="6.57279">
        <ele>949.9</ele>
        <time>2021-08-13T09:32:58Z</time>
      </trkpt>
      <trkpt lat="47.00874" lon="6.57277">
        <ele>950.2</ele>
        <time>2021-08-13T09:32:59Z</time>
      </trkpt>
      <trkpt lat="47.0087" lon="6.57272">
        <ele>950.5</ele>
        <time>2021-08-13T09:33:00Z</time>
      </trkpt>
      <trkpt lat="47.00868" lon="6.57268">
        <ele>950.8</ele>
        <time>2021-08-13T09:33:01Z</time>
      </trkpt>
      <trkpt lat="47.00864" lon="6.57264">
        <ele>951.1</ele>
        <time>2021-08-13T09:33:02Z</time>
      </trkpt>
      <trkpt lat="47.0086" lon="6.5726">
        <ele>951.4</ele>
        <time>2021-08-13T09:33:03Z</time>
      </trkpt>
      <trkpt lat="47.00856" lon="6.57256">
        <ele>951.6</ele>
        <time>2021-08-13T09:33:04Z</time>
      </trkpt>
      <trkpt lat="47.00853" lon="6.5725">
        <ele>951.7</ele>
        <time>2021-08-13T09:33:06Z</time>
      </trkpt>
      <trkpt lat="47.0085" lon="6.57245">
        <ele>951.9</ele>
        <time>2021-08-13T09:33:07Z</time>
      </trkpt>
      <trkpt lat="47.00848" lon="6.57241">
        <ele>952</ele>
        <time>2021-08-13T09:33:08Z</time>
      </trkpt>
      <trkpt lat="47.00845" lon="6.57237">
        <ele>952.1</ele>
        <time>2021-08-13T09:33:09Z</time>
      </trkpt>
      <trkpt lat="47.00842" lon="6.57232">
        <ele>952.2</ele>
        <time>2021-08-13T09:33:11Z</time>
      </trkpt>
      <trkpt lat="47.00839" lon="6.5723">
        <ele>952.3</ele>
        <time>2021-08-13T09:33:12Z</time>
      </trkpt>
      <trkpt lat="47.00836" lon="6.57228">
        <ele>952.3</ele>
        <time>2021-08-13T09:33:13Z</time>
      </trkpt>
      <trkpt lat="47.00834" lon="6.57226">
        <ele>952.4</ele>
        <time>2021-08-13T09:33:14Z</time>
      </trkpt>
      <trkpt lat="47.00831" lon="6.57222">
        <ele>952.4</ele>
        <time>2021-08-13T09:33:16Z</time>
      </trkpt>
      <trkpt lat="47.0083" lon="6.57221">
        <ele>952.5</ele>
        <time>2021-08-13T09:33:17Z</time>
      </trkpt>
      <trkpt lat="47.00829" lon="6.57221">
        <ele>952.5</ele>
        <time>2021-08-13T09:33:18Z</time>
      </trkpt>
      <trkpt lat="47.00828" lon="6.57221">
        <ele>952.5</ele>
        <time>2021-08-13T09:33:20Z</time>
      </trkpt>
      <trkpt lat="47.00827" lon="6.5722">
        <ele>952.5</ele>
        <time>2021-08-13T09:33:21Z</time>
      </trkpt>
      <trkpt lat="47.00826" lon="6.57219">
        <ele>952.5</ele>
        <time>2021-08-13T09:33:22Z</time>
      </trkpt>
      <trkpt lat="47.00825" lon="6.57218">
        <ele>952.5</ele>
        <time>2021-08-13T09:33:23Z</time>
      </trkpt>
      <trkpt lat="47.00823" lon="6.57218">
        <ele>952.5</ele>
        <time>2021-08-13T09:33:24Z</time>
      </trkpt>
      <trkpt lat="47.00823" lon="6.5722">
        <ele>952.6</ele>
        <time>2021-08-13T09:33:26Z</time>
      </trkpt>
      <trkpt lat="47.00824" lon="6.57222">
        <ele>952.6</ele>
        <time>2021-08-13T09:33:27Z</time>
      </trkpt>
      <trkpt lat="47.00823" lon="6.57224">
        <ele>952.6</ele>
        <time>2021-08-13T09:33:29Z</time>
      </trkpt>
      <trkpt lat="47.00822" lon="6.57224">
        <ele>952.6</ele>
        <time>2021-08-13T09:33:30Z</time>
      </trkpt>
      <trkpt lat="47.0082" lon="6.57224">
        <ele>952.6</ele>
        <time>2021-08-13T09:33:32Z</time>
      </trkpt>
      <trkpt lat="47.00819" lon="6.57224">
        <ele>952.6</ele>
        <time>2021-08-13T09:33:34Z</time>
      </trkpt>
      <trkpt lat="47.00817" lon="6.57224">
        <ele>952.6</ele>
        <time>2021-08-13T09:34:20Z</time>
      </trkpt>
      <trkpt lat="47.00816" lon="6.57224">
        <ele>952.6</ele>
        <time>2021-08-13T09:34:21Z</time>
      </trkpt>
      <trkpt lat="47.00812" lon="6.5722">
        <ele>952.6</ele>
        <time>2021-08-13T09:34:22Z</time>
      </trkpt>
      <trkpt lat="47.00805" lon="6.57214">
        <ele>952.7</ele>
        <time>2021-08-13T09:34:23Z</time>
      </trkpt>
      <trkpt lat="47.00796" lon="6.57208">
        <ele>952.7</ele>
        <time>2021-08-13T09:34:25Z</time>
      </trkpt>
      <trkpt lat="47.00789" lon="6.57203">
        <ele>952.8</ele>
        <time>2021-08-13T09:34:26Z</time>
      </trkpt>
      <trkpt lat="47.00786" lon="6.572">
        <ele>952.8</ele>
        <time>2021-08-13T09:34:28Z</time>
      </trkpt>
      <trkpt lat="47.00783" lon="6.57197">
        <ele>952.8</ele>
        <time>2021-08-13T09:34:29Z</time>
      </trkpt>
      <trkpt lat="47.00779" lon="6.57194">
        <ele>952.8</ele>
        <time>2021-08-13T09:34:30Z</time>
      </trkpt>
      <trkpt lat="47.00776" lon="6.57191">
        <ele>952.8</ele>
        <time>2021-08-13T09:34:31Z</time>
      </trkpt>
      <trkpt lat="47.00772" lon="6.57189">
        <ele>952.8</ele>
        <time>2021-08-13T09:34:32Z</time>
      </trkpt>
      <trkpt lat="47.00768" lon="6.57185">
        <ele>952.8</ele>
        <time>2021-08-13T09:34:33Z</time>
      </trkpt>
      <trkpt lat="47.00764" lon="6.57181">
        <ele>952.8</ele>
        <time>2021-08-13T09:34:34Z</time>
      </trkpt>
      <trkpt lat="47.00761" lon="6.57177">
        <ele>952.8</ele>
        <time>2021-08-13T09:34:35Z</time>
      </trkpt>
      <trkpt lat="47.00758" lon="6.57173">
        <ele>952.8</ele>
        <time>2021-08-13T09:34:36Z</time>
      </trkpt>
      <trkpt lat="47.00753" lon="6.57167">
        <ele>952.9</ele>
        <time>2021-08-13T09:34:38Z</time>
      </trkpt>
      <trkpt lat="47.00748" lon="6.57162">
        <ele>952.9</ele>
        <time>2021-08-13T09:34:40Z</time>
      </trkpt>
      <trkpt lat="47.00741" lon="6.57156">
        <ele>952.9</ele>
        <time>2021-08-13T09:34:42Z</time>
      </trkpt>
      <trkpt lat="47.00735" lon="6.57151">
        <ele>953</ele>
        <time>2021-08-13T09:34:44Z</time>
      </trkpt>
      <trkpt lat="47.00732" lon="6.57148">
        <ele>953</ele>
        <time>2021-08-13T09:34:45Z</time>
      </trkpt>
      <trkpt lat="47.00728" lon="6.57144">
        <ele>953.1</ele>
        <time>2021-08-13T09:34:46Z</time>
      </trkpt>
      <trkpt lat="47.00726" lon="6.57141">
        <ele>953.2</ele>
        <time>2021-08-13T09:34:47Z</time>
      </trkpt>
      <trkpt lat="47.00722" lon="6.57135">
        <ele>953.3</ele>
        <time>2021-08-13T09:34:48Z</time>
      </trkpt>
      <trkpt lat="47.0072" lon="6.57131">
        <ele>953.3</ele>
        <time>2021-08-13T09:34:50Z</time>
      </trkpt>
      <trkpt lat="47.00715" lon="6.57126">
        <ele>953.4</ele>
        <time>2021-08-13T09:34:52Z</time>
      </trkpt>
      <trkpt lat="47.0071" lon="6.57121">
        <ele>953.6</ele>
        <time>2021-08-13T09:34:53Z</time>
      </trkpt>
      <trkpt lat="47.00708" lon="6.57119">
        <ele>953.6</ele>
        <time>2021-08-13T09:34:55Z</time>
      </trkpt>
      <trkpt lat="47.00705" lon="6.57116">
        <ele>953.7</ele>
        <time>2021-08-13T09:34:56Z</time>
      </trkpt>
      <trkpt lat="47.00702" lon="6.57115">
        <ele>953.8</ele>
        <time>2021-08-13T09:34:58Z</time>
      </trkpt>
      <trkpt lat="47.00699" lon="6.57113">
        <ele>953.9</ele>
        <time>2021-08-13T09:34:59Z</time>
      </trkpt>
      <trkpt lat="47.00694" lon="6.5711">
        <ele>954</ele>
        <time>2021-08-13T09:35:01Z</time>
      </trkpt>
      <trkpt lat="47.00693" lon="6.57105">
        <ele>954.1</ele>
        <time>2021-08-13T09:35:02Z</time>
      </trkpt>
      <trkpt lat="47.00692" lon="6.57103">
        <ele>954.1</ele>
        <time>2021-08-13T09:35:03Z</time>
      </trkpt>
      <trkpt lat="47.00689" lon="6.57097">
        <ele>954.2</ele>
        <time>2021-08-13T09:35:05Z</time>
      </trkpt>
      <trkpt lat="47.00686" lon="6.57092">
        <ele>954.4</ele>
        <time>2021-08-13T09:35:06Z</time>
      </trkpt>
      <trkpt lat="47.00683" lon="6.57089">
        <ele>954.5</ele>
        <time>2021-08-13T09:35:07Z</time>
      </trkpt>
      <trkpt lat="47.00681" lon="6.57085">
        <ele>954.6</ele>
        <time>2021-08-13T09:35:08Z</time>
      </trkpt>
      <trkpt lat="47.00679" lon="6.57081">
        <ele>954.7</ele>
        <time>2021-08-13T09:35:09Z</time>
      </trkpt>
      <trkpt lat="47.00677" lon="6.57078">
        <ele>954.8</ele>
        <time>2021-08-13T09:35:10Z</time>
      </trkpt>
      <trkpt lat="47.00674" lon="6.57074">
        <ele>954.9</ele>
        <time>2021-08-13T09:35:11Z</time>
      </trkpt>
      <trkpt lat="47.00673" lon="6.57073">
        <ele>955</ele>
        <time>2021-08-13T09:35:12Z</time>
      </trkpt>
      <trkpt lat="47.0067" lon="6.5707">
        <ele>955.1</ele>
        <time>2021-08-13T09:35:13Z</time>
      </trkpt>
      <trkpt lat="47.00669" lon="6.57069">
        <ele>955.1</ele>
        <time>2021-08-13T09:35:14Z</time>
      </trkpt>
      <trkpt lat="47.00666" lon="6.57066">
        <ele>955.2</ele>
        <time>2021-08-13T09:35:15Z</time>
      </trkpt>
      <trkpt lat="47.00663" lon="6.57063">
        <ele>955.3</ele>
        <time>2021-08-13T09:35:16Z</time>
      </trkpt>
      <trkpt lat="47.00662" lon="6.57062">
        <ele>955.4</ele>
        <time>2021-08-13T09:35:17Z</time>
      </trkpt>
      <trkpt lat="47.0066" lon="6.57059">
        <ele>955.5</ele>
        <time>2021-08-13T09:35:19Z</time>
      </trkpt>
      <trkpt lat="47.00658" lon="6.57055">
        <ele>955.6</ele>
        <time>2021-08-13T09:35:20Z</time>
      </trkpt>
      <trkpt lat="47.00655" lon="6.57052">
        <ele>955.7</ele>
        <time>2021-08-13T09:35:21Z</time>
      </trkpt>
      <trkpt lat="47.00653" lon="6.57048">
        <ele>955.8</ele>
        <time>2021-08-13T09:35:22Z</time>
      </trkpt>
      <trkpt lat="47.00651" lon="6.57044">
        <ele>956</ele>
        <time>2021-08-13T09:35:23Z</time>
      </trkpt>
      <trkpt lat="47.0065" lon="6.5704">
        <ele>956.1</ele>
        <time>2021-08-13T09:35:24Z</time>
      </trkpt>
      <trkpt lat="47.00647" lon="6.57036">
        <ele>956.2</ele>
        <time>2021-08-13T09:35:25Z</time>
      </trkpt>
      <trkpt lat="47.00645" lon="6.57034">
        <ele>956.3</ele>
        <time>2021-08-13T09:35:26Z</time>
      </trkpt>
      <trkpt lat="47.00642" lon="6.57031">
        <ele>956.4</ele>
        <time>2021-08-13T09:35:28Z</time>
      </trkpt>
      <trkpt lat="47.00641" lon="6.57031">
        <ele>956.4</ele>
        <time>2021-08-13T09:35:29Z</time>
      </trkpt>
      <trkpt lat="47.00639" lon="6.57028">
        <ele>956.5</ele>
        <time>2021-08-13T09:35:30Z</time>
      </trkpt>
      <trkpt lat="47.00638" lon="6.57027">
        <ele>956.6</ele>
        <time>2021-08-13T09:35:31Z</time>
      </trkpt>
      <trkpt lat="47.00634" lon="6.57023">
        <ele>956.7</ele>
        <time>2021-08-13T09:35:33Z</time>
      </trkpt>
      <trkpt lat="47.0063" lon="6.5702">
        <ele>956.8</ele>
        <time>2021-08-13T09:35:34Z</time>
      </trkpt>
      <trkpt lat="47.00626" lon="6.57016">
        <ele>956.9</ele>
        <time>2021-08-13T09:35:35Z</time>
      </trkpt>
      <trkpt lat="47.00624" lon="6.57011">
        <ele>957</ele>
        <time>2021-08-13T09:35:37Z</time>
      </trkpt>
      <trkpt lat="47.0062" lon="6.57006">
        <ele>957.1</ele>
        <time>2021-08-13T09:35:38Z</time>
      </trkpt>
      <trkpt lat="47.00617" lon="6.57001">
        <ele>957.2</ele>
        <time>2021-08-13T09:35:39Z</time>
      </trkpt>
      <trkpt lat="47.00614" lon="6.56997">
        <ele>957.3</ele>
        <time>2021-08-13T09:35:40Z</time>
      </trkpt>
      <trkpt lat="47.00611" lon="6.56992">
        <ele>957.4</ele>
        <time>2021-08-13T09:35:41Z</time>
      </trkpt>
      <trkpt lat="47.00608" lon="6.56988">
        <ele>957.4</ele>
        <time>2021-08-13T09:35:42Z</time>
      </trkpt>
      <trkpt lat="47.00606" lon="6.56985">
        <ele>957.4</ele>
        <time>2021-08-13T09:35:44Z</time>
      </trkpt>
      <trkpt lat="47.00604" lon="6.56982">
        <ele>957.5</ele>
        <time>2021-08-13T09:35:45Z</time>
      </trkpt>
      <trkpt lat="47.00601" lon="6.5698">
        <ele>957.5</ele>
        <time>2021-08-13T09:35:46Z</time>
      </trkpt>
      <trkpt lat="47.00598" lon="6.56978">
        <ele>957.5</ele>
        <time>2021-08-13T09:35:47Z</time>
      </trkpt>
      <trkpt lat="47.00594" lon="6.56976">
        <ele>957.5</ele>
        <time>2021-08-13T09:35:48Z</time>
      </trkpt>
      <trkpt lat="47.00592" lon="6.56974">
        <ele>957.5</ele>
        <time>2021-08-13T09:35:49Z</time>
      </trkpt>
      <trkpt lat="47.00588" lon="6.56972">
        <ele>957.5</ele>
        <time>2021-08-13T09:35:51Z</time>
      </trkpt>
      <trkpt lat="47.00584" lon="6.5697">
        <ele>957.5</ele>
        <time>2021-08-13T09:35:52Z</time>
      </trkpt>
      <trkpt lat="47.00582" lon="6.56968">
        <ele>957.5</ele>
        <time>2021-08-13T09:35:53Z</time>
      </trkpt>
      <trkpt lat="47.00579" lon="6.56965">
        <ele>957.4</ele>
        <time>2021-08-13T09:35:54Z</time>
      </trkpt>
      <trkpt lat="47.00578" lon="6.56964">
        <ele>957.4</ele>
        <time>2021-08-13T09:35:55Z</time>
      </trkpt>
      <trkpt lat="47.00577" lon="6.56962">
        <ele>957.4</ele>
        <time>2021-08-13T09:35:56Z</time>
      </trkpt>
      <trkpt lat="47.00572" lon="6.56958">
        <ele>957.4</ele>
        <time>2021-08-13T09:35:58Z</time>
      </trkpt>
      <trkpt lat="47.00568" lon="6.56955">
        <ele>957.3</ele>
        <time>2021-08-13T09:35:59Z</time>
      </trkpt>
      <trkpt lat="47.00564" lon="6.56951">
        <ele>957.3</ele>
        <time>2021-08-13T09:36:00Z</time>
      </trkpt>
      <trkpt lat="47.00556" lon="6.56944">
        <ele>957.3</ele>
        <time>2021-08-13T09:36:02Z</time>
      </trkpt>
      <trkpt lat="47.00549" lon="6.56937">
        <ele>957.4</ele>
        <time>2021-08-13T09:36:04Z</time>
      </trkpt>
      <trkpt lat="47.00545" lon="6.56936">
        <ele>957.4</ele>
        <time>2021-08-13T09:36:05Z</time>
      </trkpt>
      <trkpt lat="47.00541" lon="6.56934">
        <ele>957.4</ele>
        <time>2021-08-13T09:36:06Z</time>
      </trkpt>
      <trkpt lat="47.00535" lon="6.56931">
        <ele>957.5</ele>
        <time>2021-08-13T09:36:07Z</time>
      </trkpt>
      <trkpt lat="47.00531" lon="6.56927">
        <ele>957.6</ele>
        <time>2021-08-13T09:36:09Z</time>
      </trkpt>
      <trkpt lat="47.00528" lon="6.56925">
        <ele>957.7</ele>
        <time>2021-08-13T09:36:10Z</time>
      </trkpt>
      <trkpt lat="47.00524" lon="6.56923">
        <ele>957.8</ele>
        <time>2021-08-13T09:36:11Z</time>
      </trkpt>
      <trkpt lat="47.00519" lon="6.56919">
        <ele>958</ele>
        <time>2021-08-13T09:36:13Z</time>
      </trkpt>
      <trkpt lat="47.00516" lon="6.56916">
        <ele>958.1</ele>
        <time>2021-08-13T09:36:14Z</time>
      </trkpt>
      <trkpt lat="47.00511" lon="6.56914">
        <ele>958.3</ele>
        <time>2021-08-13T09:36:15Z</time>
      </trkpt>
      <trkpt lat="47.00506" lon="6.56912">
        <ele>958.6</ele>
        <time>2021-08-13T09:36:17Z</time>
      </trkpt>
      <trkpt lat="47.00502" lon="6.56911">
        <ele>958.8</ele>
        <time>2021-08-13T09:36:18Z</time>
      </trkpt>
      <trkpt lat="47.00495" lon="6.56909">
        <ele>959.2</ele>
        <time>2021-08-13T09:36:19Z</time>
      </trkpt>
      <trkpt lat="47.00488" lon="6.5691">
        <ele>959.7</ele>
        <time>2021-08-13T09:36:21Z</time>
      </trkpt>
      <trkpt lat="47.00483" lon="6.56911">
        <ele>960.1</ele>
        <time>2021-08-13T09:36:22Z</time>
      </trkpt>
      <trkpt lat="47.00476" lon="6.56913">
        <ele>960.6</ele>
        <time>2021-08-13T09:36:24Z</time>
      </trkpt>
      <trkpt lat="47.00472" lon="6.56913">
        <ele>960.9</ele>
        <time>2021-08-13T09:36:25Z</time>
      </trkpt>
      <trkpt lat="47.00469" lon="6.56913">
        <ele>961.2</ele>
        <time>2021-08-13T09:36:26Z</time>
      </trkpt>
      <trkpt lat="47.00466" lon="6.56914">
        <ele>961.3</ele>
        <time>2021-08-13T09:36:28Z</time>
      </trkpt>
      <trkpt lat="47.00463" lon="6.56914">
        <ele>961.5</ele>
        <time>2021-08-13T09:36:29Z</time>
      </trkpt>
      <trkpt lat="47.00461" lon="6.56914">
        <ele>961.7</ele>
        <time>2021-08-13T09:36:30Z</time>
      </trkpt>
      <trkpt lat="47.00458" lon="6.56915">
        <ele>961.9</ele>
        <time>2021-08-13T09:36:32Z</time>
      </trkpt>
      <trkpt lat="47.00456" lon="6.56916">
        <ele>962</ele>
        <time>2021-08-13T09:36:33Z</time>
      </trkpt>
      <trkpt lat="47.00455" lon="6.56916">
        <ele>962.1</ele>
        <time>2021-08-13T09:36:34Z</time>
      </trkpt>
      <trkpt lat="47.00454" lon="6.56915">
        <ele>962.1</ele>
        <time>2021-08-13T09:36:35Z</time>
      </trkpt>
      <trkpt lat="47.00453" lon="6.56914">
        <ele>962.2</ele>
        <time>2021-08-13T09:36:36Z</time>
      </trkpt>
      <trkpt lat="47.00452" lon="6.56912">
        <ele>962.3</ele>
        <time>2021-08-13T09:36:38Z</time>
      </trkpt>
      <trkpt lat="47.00452" lon="6.5691">
        <ele>962.3</ele>
        <time>2021-08-13T09:36:39Z</time>
      </trkpt>
      <trkpt lat="47.00452" lon="6.56909">
        <ele>962.4</ele>
        <time>2021-08-13T09:36:41Z</time>
      </trkpt>
      <trkpt lat="47.00452" lon="6.56907">
        <ele>962.4</ele>
        <time>2021-08-13T09:36:42Z</time>
      </trkpt>
      <trkpt lat="47.0045" lon="6.56904">
        <ele>962.5</ele>
        <time>2021-08-13T09:36:43Z</time>
      </trkpt>
      <trkpt lat="47.00449" lon="6.569">
        <ele>962.6</ele>
        <time>2021-08-13T09:36:44Z</time>
      </trkpt>
      <trkpt lat="47.00447" lon="6.56896">
        <ele>962.8</ele>
        <time>2021-08-13T09:36:46Z</time>
      </trkpt>
      <trkpt lat="47.00446" lon="6.56894">
        <ele>962.8</ele>
        <time>2021-08-13T09:36:47Z</time>
      </trkpt>
      <trkpt lat="47.00445" lon="6.56892">
        <ele>962.9</ele>
        <time>2021-08-13T09:36:48Z</time>
      </trkpt>
      <trkpt lat="47.00443" lon="6.56891">
        <ele>962.9</ele>
        <time>2021-08-13T09:36:49Z</time>
      </trkpt>
      <trkpt lat="47.00442" lon="6.56889">
        <ele>962.9</ele>
        <time>2021-08-13T09:36:50Z</time>
      </trkpt>
      <trkpt lat="47.00442" lon="6.56888">
        <ele>963</ele>
        <time>2021-08-13T09:36:52Z</time>
      </trkpt>
      <trkpt lat="47.00441" lon="6.56887">
        <ele>963</ele>
        <time>2021-08-13T09:36:53Z</time>
      </trkpt>
      <trkpt lat="47.0044" lon="6.56887">
        <ele>963</ele>
        <time>2021-08-13T09:36:54Z</time>
      </trkpt>
      <trkpt lat="47.00436" lon="6.56885">
        <ele>963.1</ele>
        <time>2021-08-13T09:36:56Z</time>
      </trkpt>
      <trkpt lat="47.00432" lon="6.56883">
        <ele>963.2</ele>
        <time>2021-08-13T09:36:57Z</time>
      </trkpt>
      <trkpt lat="47.00431" lon="6.56883">
        <ele>963.2</ele>
        <time>2021-08-13T09:36:58Z</time>
      </trkpt>
      <trkpt lat="47.00429" lon="6.56882">
        <ele>963.3</ele>
        <time>2021-08-13T09:36:59Z</time>
      </trkpt>
      <trkpt lat="47.00425" lon="6.5688">
        <ele>963.4</ele>
        <time>2021-08-13T09:37:01Z</time>
      </trkpt>
      <trkpt lat="47.00421" lon="6.5688">
        <ele>963.4</ele>
        <time>2021-08-13T09:37:02Z</time>
      </trkpt>
      <trkpt lat="47.00417" lon="6.5688">
        <ele>963.5</ele>
        <time>2021-08-13T09:37:03Z</time>
      </trkpt>
      <trkpt lat="47.00413" lon="6.56879">
        <ele>963.6</ele>
        <time>2021-08-13T09:37:05Z</time>
      </trkpt>
      <trkpt lat="47.00411" lon="6.56877">
        <ele>963.6</ele>
        <time>2021-08-13T09:37:06Z</time>
      </trkpt>
      <trkpt lat="47.00408" lon="6.56876">
        <ele>963.7</ele>
        <time>2021-08-13T09:37:07Z</time>
      </trkpt>
      <trkpt lat="47.00404" lon="6.56875">
        <ele>963.7</ele>
        <time>2021-08-13T09:37:08Z</time>
      </trkpt>
      <trkpt lat="47.00403" lon="6.56875">
        <ele>963.7</ele>
        <time>2021-08-13T09:37:09Z</time>
      </trkpt>
      <trkpt lat="47.00399" lon="6.56874">
        <ele>963.8</ele>
        <time>2021-08-13T09:37:11Z</time>
      </trkpt>
      <trkpt lat="47.00395" lon="6.56873">
        <ele>963.9</ele>
        <time>2021-08-13T09:37:13Z</time>
      </trkpt>
      <trkpt lat="47.00391" lon="6.56873">
        <ele>964</ele>
        <time>2021-08-13T09:37:14Z</time>
      </trkpt>
      <trkpt lat="47.00388" lon="6.56872">
        <ele>964.1</ele>
        <time>2021-08-13T09:37:15Z</time>
      </trkpt>
      <trkpt lat="47.00381" lon="6.56869">
        <ele>964.3</ele>
        <time>2021-08-13T09:37:17Z</time>
      </trkpt>
      <trkpt lat="47.00378" lon="6.56867">
        <ele>964.4</ele>
        <time>2021-08-13T09:37:18Z</time>
      </trkpt>
      <trkpt lat="47.00373" lon="6.56866">
        <ele>964.6</ele>
        <time>2021-08-13T09:37:20Z</time>
      </trkpt>
      <trkpt lat="47.00367" lon="6.56864">
        <ele>964.9</ele>
        <time>2021-08-13T09:37:22Z</time>
      </trkpt>
      <trkpt lat="47.00364" lon="6.56862">
        <ele>965</ele>
        <time>2021-08-13T09:37:23Z</time>
      </trkpt>
      <trkpt lat="47.00363" lon="6.56861">
        <ele>965.1</ele>
        <time>2021-08-13T09:37:24Z</time>
      </trkpt>
      <trkpt lat="47.0036" lon="6.56858">
        <ele>965.2</ele>
        <time>2021-08-13T09:37:25Z</time>
      </trkpt>
      <trkpt lat="47.00358" lon="6.56858">
        <ele>965.3</ele>
        <time>2021-08-13T09:37:26Z</time>
      </trkpt>
      <trkpt lat="47.00355" lon="6.56854">
        <ele>965.5</ele>
        <time>2021-08-13T09:37:28Z</time>
      </trkpt>
      <trkpt lat="47.00354" lon="6.56851">
        <ele>965.6</ele>
        <time>2021-08-13T09:37:29Z</time>
      </trkpt>
      <trkpt lat="47.00353" lon="6.56846">
        <ele>965.7</ele>
        <time>2021-08-13T09:37:30Z</time>
      </trkpt>
      <trkpt lat="47.0035" lon="6.56843">
        <ele>965.8</ele>
        <time>2021-08-13T09:37:32Z</time>
      </trkpt>
      <trkpt lat="47.00347" lon="6.5684">
        <ele>965.9</ele>
        <time>2021-08-13T09:37:33Z</time>
      </trkpt>
      <trkpt lat="47.00344" lon="6.56837">
        <ele>966</ele>
        <time>2021-08-13T09:37:34Z</time>
      </trkpt>
      <trkpt lat="47.00341" lon="6.56835">
        <ele>966.1</ele>
        <time>2021-08-13T09:37:35Z</time>
      </trkpt>
      <trkpt lat="47.00336" lon="6.56832">
        <ele>966.2</ele>
        <time>2021-08-13T09:37:36Z</time>
      </trkpt>
      <trkpt lat="47.00332" lon="6.5683">
        <ele>966.4</ele>
        <time>2021-08-13T09:37:37Z</time>
      </trkpt>
      <trkpt lat="47.00328" lon="6.56828">
        <ele>966.5</ele>
        <time>2021-08-13T09:37:39Z</time>
      </trkpt>
      <trkpt lat="47.00325" lon="6.56827">
        <ele>966.6</ele>
        <time>2021-08-13T09:37:40Z</time>
      </trkpt>
      <trkpt lat="47.00322" lon="6.56825">
        <ele>966.7</ele>
        <time>2021-08-13T09:37:41Z</time>
      </trkpt>
      <trkpt lat="47.00321" lon="6.56825">
        <ele>966.7</ele>
        <time>2021-08-13T09:37:42Z</time>
      </trkpt>
      <trkpt lat="47.0032" lon="6.56824">
        <ele>966.7</ele>
        <time>2021-08-13T09:37:43Z</time>
      </trkpt>
      <trkpt lat="47.00317" lon="6.56823">
        <ele>966.8</ele>
        <time>2021-08-13T09:37:45Z</time>
      </trkpt>
      <trkpt lat="47.00315" lon="6.56822">
        <ele>966.9</ele>
        <time>2021-08-13T09:37:46Z</time>
      </trkpt>
      <trkpt lat="47.00315" lon="6.56821">
        <ele>966.9</ele>
        <time>2021-08-13T09:37:47Z</time>
      </trkpt>
      <trkpt lat="47.00313" lon="6.56817">
        <ele>967</ele>
        <time>2021-08-13T09:37:48Z</time>
      </trkpt>
      <trkpt lat="47.00312" lon="6.56815">
        <ele>967.1</ele>
        <time>2021-08-13T09:37:50Z</time>
      </trkpt>
      <trkpt lat="47.00312" lon="6.56814">
        <ele>967.1</ele>
        <time>2021-08-13T09:37:51Z</time>
      </trkpt>
      <trkpt lat="47.00311" lon="6.56812">
        <ele>967.2</ele>
        <time>2021-08-13T09:37:52Z</time>
      </trkpt>
      <trkpt lat="47.00309" lon="6.56808">
        <ele>967.3</ele>
        <time>2021-08-13T09:37:53Z</time>
      </trkpt>
      <trkpt lat="47.00307" lon="6.56805">
        <ele>967.4</ele>
        <time>2021-08-13T09:37:54Z</time>
      </trkpt>
      <trkpt lat="47.00305" lon="6.568">
        <ele>967.5</ele>
        <time>2021-08-13T09:37:55Z</time>
      </trkpt>
      <trkpt lat="47.00305" lon="6.56799">
        <ele>967.5</ele>
        <time>2021-08-13T09:37:56Z</time>
      </trkpt>
      <trkpt lat="47.00304" lon="6.56796">
        <ele>967.6</ele>
        <time>2021-08-13T09:37:58Z</time>
      </trkpt>
      <trkpt lat="47.00301" lon="6.56793">
        <ele>967.6</ele>
        <time>2021-08-13T09:38:00Z</time>
      </trkpt>
      <trkpt lat="47.00299" lon="6.5679">
        <ele>967.7</ele>
        <time>2021-08-13T09:38:01Z</time>
      </trkpt>
      <trkpt lat="47.00298" lon="6.56788">
        <ele>967.8</ele>
        <time>2021-08-13T09:38:02Z</time>
      </trkpt>
      <trkpt lat="47.00295" lon="6.56785">
        <ele>967.9</ele>
        <time>2021-08-13T09:38:04Z</time>
      </trkpt>
      <trkpt lat="47.00293" lon="6.56782">
        <ele>967.9</ele>
        <time>2021-08-13T09:38:05Z</time>
      </trkpt>
      <trkpt lat="47.00291" lon="6.56778">
        <ele>968</ele>
        <time>2021-08-13T09:38:06Z</time>
      </trkpt>
      <trkpt lat="47.0029" lon="6.56778">
        <ele>968.1</ele>
        <time>2021-08-13T09:38:07Z</time>
      </trkpt>
      <trkpt lat="47.00287" lon="6.56774">
        <ele>968.1</ele>
        <time>2021-08-13T09:38:08Z</time>
      </trkpt>
      <trkpt lat="47.00286" lon="6.56773">
        <ele>968.2</ele>
        <time>2021-08-13T09:38:09Z</time>
      </trkpt>
      <trkpt lat="47.00283" lon="6.56768">
        <ele>968.3</ele>
        <time>2021-08-13T09:38:10Z</time>
      </trkpt>
      <trkpt lat="47.00279" lon="6.56763">
        <ele>968.4</ele>
        <time>2021-08-13T09:38:11Z</time>
      </trkpt>
      <trkpt lat="47.00276" lon="6.56757">
        <ele>968.5</ele>
        <time>2021-08-13T09:38:13Z</time>
      </trkpt>
      <trkpt lat="47.00273" lon="6.56751">
        <ele>968.5</ele>
        <time>2021-08-13T09:38:14Z</time>
      </trkpt>
      <trkpt lat="47.00271" lon="6.56746">
        <ele>968.6</ele>
        <time>2021-08-13T09:38:16Z</time>
      </trkpt>
      <trkpt lat="47.00269" lon="6.56741">
        <ele>968.6</ele>
        <time>2021-08-13T09:38:17Z</time>
      </trkpt>
      <trkpt lat="47.00268" lon="6.56738">
        <ele>968.6</ele>
        <time>2021-08-13T09:38:18Z</time>
      </trkpt>
      <trkpt lat="47.00264" lon="6.56732">
        <ele>968.7</ele>
        <time>2021-08-13T09:38:20Z</time>
      </trkpt>
      <trkpt lat="47.00261" lon="6.56724">
        <ele>968.7</ele>
        <time>2021-08-13T09:38:22Z</time>
      </trkpt>
      <trkpt lat="47.0026" lon="6.5672">
        <ele>968.7</ele>
        <time>2021-08-13T09:38:23Z</time>
      </trkpt>
      <trkpt lat="47.00258" lon="6.56716">
        <ele>968.8</ele>
        <time>2021-08-13T09:38:24Z</time>
      </trkpt>
      <trkpt lat="47.00255" lon="6.56711">
        <ele>968.8</ele>
        <time>2021-08-13T09:38:25Z</time>
      </trkpt>
      <trkpt lat="47.00254" lon="6.5671">
        <ele>968.8</ele>
        <time>2021-08-13T09:38:26Z</time>
      </trkpt>
      <trkpt lat="47.00251" lon="6.56704">
        <ele>968.8</ele>
        <time>2021-08-13T09:38:28Z</time>
      </trkpt>
      <trkpt lat="47.00249" lon="6.56701">
        <ele>968.9</ele>
        <time>2021-08-13T09:38:29Z</time>
      </trkpt>
      <trkpt lat="47.00246" lon="6.56696">
        <ele>968.9</ele>
        <time>2021-08-13T09:38:30Z</time>
      </trkpt>
      <trkpt lat="47.00242" lon="6.56689">
        <ele>969</ele>
        <time>2021-08-13T09:38:32Z</time>
      </trkpt>
      <trkpt lat="47.0024" lon="6.56682">
        <ele>969.1</ele>
        <time>2021-08-13T09:38:34Z</time>
      </trkpt>
      <trkpt lat="47.00235" lon="6.56676">
        <ele>969.2</ele>
        <time>2021-08-13T09:38:36Z</time>
      </trkpt>
      <trkpt lat="47.00233" lon="6.56674">
        <ele>969.3</ele>
        <time>2021-08-13T09:38:37Z</time>
      </trkpt>
      <trkpt lat="47.00229" lon="6.56671">
        <ele>969.3</ele>
        <time>2021-08-13T09:38:38Z</time>
      </trkpt>
      <trkpt lat="47.00227" lon="6.56669">
        <ele>969.4</ele>
        <time>2021-08-13T09:38:39Z</time>
      </trkpt>
      <trkpt lat="47.00224" lon="6.56668">
        <ele>969.5</ele>
        <time>2021-08-13T09:38:41Z</time>
      </trkpt>
      <trkpt lat="47.00221" lon="6.56667">
        <ele>969.5</ele>
        <time>2021-08-13T09:38:42Z</time>
      </trkpt>
      <trkpt lat="47.0022" lon="6.56666">
        <ele>969.6</ele>
        <time>2021-08-13T09:38:43Z</time>
      </trkpt>
      <trkpt lat="47.00218" lon="6.56663">
        <ele>969.7</ele>
        <time>2021-08-13T09:38:44Z</time>
      </trkpt>
      <trkpt lat="47.00217" lon="6.56662">
        <ele>969.7</ele>
        <time>2021-08-13T09:38:45Z</time>
      </trkpt>
      <trkpt lat="47.00214" lon="6.5666">
        <ele>969.8</ele>
        <time>2021-08-13T09:38:46Z</time>
      </trkpt>
      <trkpt lat="47.00212" lon="6.56658">
        <ele>969.9</ele>
        <time>2021-08-13T09:38:47Z</time>
      </trkpt>
      <trkpt lat="47.0021" lon="6.56654">
        <ele>970</ele>
        <time>2021-08-13T09:38:49Z</time>
      </trkpt>
      <trkpt lat="47.00208" lon="6.56649">
        <ele>970.2</ele>
        <time>2021-08-13T09:38:51Z</time>
      </trkpt>
      <trkpt lat="47.00208" lon="6.56647">
        <ele>970.2</ele>
        <time>2021-08-13T09:38:52Z</time>
      </trkpt>
      <trkpt lat="47.00207" lon="6.56645">
        <ele>970.3</ele>
        <time>2021-08-13T09:38:53Z</time>
      </trkpt>
      <trkpt lat="47.00206" lon="6.56642">
        <ele>970.4</ele>
        <time>2021-08-13T09:38:55Z</time>
      </trkpt>
      <trkpt lat="47.00205" lon="6.56641">
        <ele>970.4</ele>
        <time>2021-08-13T09:38:56Z</time>
      </trkpt>
      <trkpt lat="47.00203" lon="6.56638">
        <ele>970.6</ele>
        <time>2021-08-13T09:38:58Z</time>
      </trkpt>
      <trkpt lat="47.00202" lon="6.56636">
        <ele>970.6</ele>
        <time>2021-08-13T09:38:59Z</time>
      </trkpt>
      <trkpt lat="47.00201" lon="6.56633">
        <ele>970.7</ele>
        <time>2021-08-13T09:39:00Z</time>
      </trkpt>
      <trkpt lat="47.00201" lon="6.56632">
        <ele>970.8</ele>
        <time>2021-08-13T09:39:01Z</time>
      </trkpt>
      <trkpt lat="47.002" lon="6.5663">
        <ele>970.8</ele>
        <time>2021-08-13T09:39:02Z</time>
      </trkpt>
      <trkpt lat="47.00199" lon="6.56626">
        <ele>970.9</ele>
        <time>2021-08-13T09:39:03Z</time>
      </trkpt>
      <trkpt lat="47.00199" lon="6.56625">
        <ele>971</ele>
        <time>2021-08-13T09:39:04Z</time>
      </trkpt>
      <trkpt lat="47.00198" lon="6.56624">
        <ele>971</ele>
        <time>2021-08-13T09:39:05Z</time>
      </trkpt>
      <trkpt lat="47.00198" lon="6.56624">
        <ele>971</ele>
        <time>2021-08-13T09:39:07Z</time>
      </trkpt>
      <trkpt lat="47.00195" lon="6.56623">
        <ele>971.1</ele>
        <time>2021-08-13T09:39:09Z</time>
      </trkpt>
      <trkpt lat="47.00192" lon="6.56622">
        <ele>971.3</ele>
        <time>2021-08-13T09:39:10Z</time>
      </trkpt>
      <trkpt lat="47.00191" lon="6.56621">
        <ele>971.3</ele>
        <time>2021-08-13T09:39:11Z</time>
      </trkpt>
      <trkpt lat="47.00188" lon="6.5662">
        <ele>971.5</ele>
        <time>2021-08-13T09:39:12Z</time>
      </trkpt>
      <trkpt lat="47.00187" lon="6.56619">
        <ele>971.5</ele>
        <time>2021-08-13T09:39:13Z</time>
      </trkpt>
      <trkpt lat="47.00186" lon="6.56617">
        <ele>971.6</ele>
        <time>2021-08-13T09:39:14Z</time>
      </trkpt>
      <trkpt lat="47.00186" lon="6.56615">
        <ele>971.7</ele>
        <time>2021-08-13T09:39:15Z</time>
      </trkpt>
      <trkpt lat="47.00189" lon="6.56611">
        <ele>971.8</ele>
        <time>2021-08-13T09:39:17Z</time>
      </trkpt>
      <trkpt lat="47.00189" lon="6.56605">
        <ele>972</ele>
        <time>2021-08-13T09:39:19Z</time>
      </trkpt>
      <trkpt lat="47.00189" lon="6.56604">
        <ele>972</ele>
        <time>2021-08-13T09:39:20Z</time>
      </trkpt>
      <trkpt lat="47.00189" lon="6.56603">
        <ele>972.1</ele>
        <time>2021-08-13T09:39:22Z</time>
      </trkpt>
      <trkpt lat="47.0019" lon="6.56603">
        <ele>972.1</ele>
        <time>2021-08-13T09:39:23Z</time>
      </trkpt>
      <trkpt lat="47.0019" lon="6.56602">
        <ele>972.1</ele>
        <time>2021-08-13T09:39:24Z</time>
      </trkpt>
      <trkpt lat="47.0019" lon="6.56602">
        <ele>972.1</ele>
        <time>2021-08-13T09:39:26Z</time>
      </trkpt>
      <trkpt lat="47.0019" lon="6.56602">
        <ele>972.1</ele>
        <time>2021-08-13T09:39:27Z</time>
      </trkpt>
      <trkpt lat="47.0019" lon="6.56602">
        <ele>972.1</ele>
        <time>2021-08-13T09:39:28Z</time>
      </trkpt>
      <trkpt lat="47.0019" lon="6.56602">
        <ele>972.1</ele>
        <time>2021-08-13T09:39:30Z</time>
      </trkpt>
      <trkpt lat="47.00172" lon="6.56588">
        <ele>973.2</ele>
        <time>2021-08-13T09:39:52Z</time>
      </trkpt>
      <trkpt lat="47.00172" lon="6.56585">
        <ele>973.3</ele>
        <time>2021-08-13T09:39:53Z</time>
      </trkpt>
      <trkpt lat="47.00171" lon="6.56584">
        <ele>973.4</ele>
        <time>2021-08-13T09:39:55Z</time>
      </trkpt>
      <trkpt lat="47.0017" lon="6.56583">
        <ele>973.4</ele>
        <time>2021-08-13T09:39:56Z</time>
      </trkpt>
      <trkpt lat="47.00169" lon="6.56582">
        <ele>973.5</ele>
        <time>2021-08-13T09:39:58Z</time>
      </trkpt>
      <trkpt lat="47.00169" lon="6.5658">
        <ele>973.6</ele>
        <time>2021-08-13T09:39:59Z</time>
      </trkpt>
      <trkpt lat="47.00168" lon="6.56579">
        <ele>973.6</ele>
        <time>2021-08-13T09:40:00Z</time>
      </trkpt>
      <trkpt lat="47.00168" lon="6.56578">
        <ele>973.7</ele>
        <time>2021-08-13T09:40:02Z</time>
      </trkpt>
      <trkpt lat="47.00167" lon="6.56577">
        <ele>973.8</ele>
        <time>2021-08-13T09:40:03Z</time>
      </trkpt>
      <trkpt lat="47.00167" lon="6.56576">
        <ele>973.8</ele>
        <time>2021-08-13T09:40:04Z</time>
      </trkpt>
      <trkpt lat="47.00167" lon="6.56575">
        <ele>973.9</ele>
        <time>2021-08-13T09:40:05Z</time>
      </trkpt>
      <trkpt lat="47.00167" lon="6.56575">
        <ele>973.9</ele>
        <time>2021-08-13T09:40:07Z</time>
      </trkpt>
      <trkpt lat="47.00167" lon="6.56574">
        <ele>973.9</ele>
        <time>2021-08-13T09:40:08Z</time>
      </trkpt>
      <trkpt lat="47.00166" lon="6.56573">
        <ele>974</ele>
        <time>2021-08-13T09:40:09Z</time>
      </trkpt>
      <trkpt lat="47.00166" lon="6.56568">
        <ele>974.3</ele>
        <time>2021-08-13T09:40:11Z</time>
      </trkpt>
      <trkpt lat="47.00165" lon="6.56566">
        <ele>974.4</ele>
        <time>2021-08-13T09:40:12Z</time>
      </trkpt>
      <trkpt lat="47.00163" lon="6.56561">
        <ele>974.7</ele>
        <time>2021-08-13T09:40:14Z</time>
      </trkpt>
      <trkpt lat="47.00161" lon="6.56557">
        <ele>975</ele>
        <time>2021-08-13T09:40:16Z</time>
      </trkpt>
      <trkpt lat="47.00158" lon="6.56553">
        <ele>975.4</ele>
        <time>2021-08-13T09:40:17Z</time>
      </trkpt>
      <trkpt lat="47.00157" lon="6.56552">
        <ele>975.5</ele>
        <time>2021-08-13T09:40:18Z</time>
      </trkpt>
      <trkpt lat="47.00155" lon="6.5655">
        <ele>975.7</ele>
        <time>2021-08-13T09:40:19Z</time>
      </trkpt>
      <trkpt lat="47.00151" lon="6.56547">
        <ele>976.1</ele>
        <time>2021-08-13T09:40:21Z</time>
      </trkpt>
      <trkpt lat="47.00149" lon="6.56546">
        <ele>976.2</ele>
        <time>2021-08-13T09:40:22Z</time>
      </trkpt>
      <trkpt lat="47.00148" lon="6.56546">
        <ele>976.3</ele>
        <time>2021-08-13T09:40:23Z</time>
      </trkpt>
      <trkpt lat="47.00145" lon="6.56543">
        <ele>976.5</ele>
        <time>2021-08-13T09:40:25Z</time>
      </trkpt>
      <trkpt lat="47.00144" lon="6.56542">
        <ele>976.6</ele>
        <time>2021-08-13T09:40:26Z</time>
      </trkpt>
      <trkpt lat="47.00142" lon="6.56541">
        <ele>976.8</ele>
        <time>2021-08-13T09:40:27Z</time>
      </trkpt>
      <trkpt lat="47.0014" lon="6.56539">
        <ele>976.9</ele>
        <time>2021-08-13T09:40:29Z</time>
      </trkpt>
      <trkpt lat="47.00139" lon="6.56538">
        <ele>977</ele>
        <time>2021-08-13T09:40:30Z</time>
      </trkpt>
      <trkpt lat="47.00137" lon="6.56537">
        <ele>977.1</ele>
        <time>2021-08-13T09:40:31Z</time>
      </trkpt>
      <trkpt lat="47.00134" lon="6.56536">
        <ele>977.2</ele>
        <time>2021-08-13T09:40:32Z</time>
      </trkpt>
      <trkpt lat="47.00132" lon="6.56534">
        <ele>977.4</ele>
        <time>2021-08-13T09:40:34Z</time>
      </trkpt>
      <trkpt lat="47.00131" lon="6.56533">
        <ele>977.4</ele>
        <time>2021-08-13T09:40:35Z</time>
      </trkpt>
      <trkpt lat="47.00129" lon="6.56531">
        <ele>977.5</ele>
        <time>2021-08-13T09:40:36Z</time>
      </trkpt>
      <trkpt lat="47.00128" lon="6.5653">
        <ele>977.6</ele>
        <time>2021-08-13T09:40:38Z</time>
      </trkpt>
      <trkpt lat="47.00124" lon="6.56529">
        <ele>977.8</ele>
        <time>2021-08-13T09:40:39Z</time>
      </trkpt>
      <trkpt lat="47.00122" lon="6.56529">
        <ele>977.9</ele>
        <time>2021-08-13T09:40:40Z</time>
      </trkpt>
      <trkpt lat="47.00119" lon="6.56528">
        <ele>978.1</ele>
        <time>2021-08-13T09:40:42Z</time>
      </trkpt>
      <trkpt lat="47.00118" lon="6.56528">
        <ele>978.1</ele>
        <time>2021-08-13T09:40:43Z</time>
      </trkpt>
      <trkpt lat="47.00116" lon="6.56527">
        <ele>978.3</ele>
        <time>2021-08-13T09:40:44Z</time>
      </trkpt>
      <trkpt lat="47.00113" lon="6.56525">
        <ele>978.5</ele>
        <time>2021-08-13T09:40:46Z</time>
      </trkpt>
      <trkpt lat="47.00112" lon="6.56525">
        <ele>978.6</ele>
        <time>2021-08-13T09:40:47Z</time>
      </trkpt>
      <trkpt lat="47.00109" lon="6.56524">
        <ele>978.8</ele>
        <time>2021-08-13T09:40:48Z</time>
      </trkpt>
      <trkpt lat="47.00103" lon="6.56522">
        <ele>979.4</ele>
        <time>2021-08-13T09:40:50Z</time>
      </trkpt>
      <trkpt lat="47.00096" lon="6.5652">
        <ele>980.3</ele>
        <time>2021-08-13T09:40:51Z</time>
      </trkpt>
      <trkpt lat="47.0009" lon="6.5652">
        <ele>981.1</ele>
        <time>2021-08-13T09:40:53Z</time>
      </trkpt>
      <trkpt lat="47.00086" lon="6.56518">
        <ele>981.7</ele>
        <time>2021-08-13T09:40:54Z</time>
      </trkpt>
      <trkpt lat="47.00085" lon="6.56517">
        <ele>981.9</ele>
        <time>2021-08-13T09:40:55Z</time>
      </trkpt>
      <trkpt lat="47.00084" lon="6.56517">
        <ele>982.1</ele>
        <time>2021-08-13T09:40:57Z</time>
      </trkpt>
      <trkpt lat="47.00083" lon="6.56517">
        <ele>982.2</ele>
        <time>2021-08-13T09:40:59Z</time>
      </trkpt>
      <trkpt lat="47.00083" lon="6.56518">
        <ele>982.2</ele>
        <time>2021-08-13T09:41:00Z</time>
      </trkpt>
      <trkpt lat="47.00083" lon="6.56518">
        <ele>982.3</ele>
        <time>2021-08-13T09:41:01Z</time>
      </trkpt>
      <trkpt lat="47.00083" lon="6.56518">
        <ele>982.3</ele>
        <time>2021-08-13T09:41:03Z</time>
      </trkpt>
      <trkpt lat="47.00083" lon="6.56517">
        <ele>982.4</ele>
        <time>2021-08-13T09:41:04Z</time>
      </trkpt>
      <trkpt lat="47.00083" lon="6.56517">
        <ele>982.5</ele>
        <time>2021-08-13T09:41:06Z</time>
      </trkpt>
      <trkpt lat="47.00083" lon="6.56515">
        <ele>982.6</ele>
        <time>2021-08-13T09:41:07Z</time>
      </trkpt>
      <trkpt lat="47.00083" lon="6.56514">
        <ele>982.8</ele>
        <time>2021-08-13T09:41:08Z</time>
      </trkpt>
      <trkpt lat="47.00083" lon="6.56513">
        <ele>982.9</ele>
        <time>2021-08-13T09:41:10Z</time>
      </trkpt>
      <trkpt lat="47.00084" lon="6.56512">
        <ele>983</ele>
        <time>2021-08-13T09:41:11Z</time>
      </trkpt>
      <trkpt lat="47.00101" lon="6.56493">
        <ele>986.5</ele>
        <time>2021-08-13T09:42:12Z</time>
      </trkpt>
      <trkpt lat="47.00097" lon="6.56489">
        <ele>987.3</ele>
        <time>2021-08-13T09:42:14Z</time>
      </trkpt>
      <trkpt lat="47.00093" lon="6.56486">
        <ele>987.8</ele>
        <time>2021-08-13T09:42:15Z</time>
      </trkpt>
      <trkpt lat="47.00086" lon="6.5648">
        <ele>988.9</ele>
        <time>2021-08-13T09:42:17Z</time>
      </trkpt>
      <trkpt lat="47.00084" lon="6.56479">
        <ele>989.1</ele>
        <time>2021-08-13T09:42:18Z</time>
      </trkpt>
      <trkpt lat="47.00081" lon="6.56477">
        <ele>989.5</ele>
        <time>2021-08-13T09:42:20Z</time>
      </trkpt>
      <trkpt lat="47.00077" lon="6.56477">
        <ele>989.9</ele>
        <time>2021-08-13T09:42:21Z</time>
      </trkpt>
      <trkpt lat="47.00076" lon="6.56477">
        <ele>990.1</ele>
        <time>2021-08-13T09:42:22Z</time>
      </trkpt>
      <trkpt lat="47.00075" lon="6.56478">
        <ele>990.3</ele>
        <time>2021-08-13T09:42:24Z</time>
      </trkpt>
      <trkpt lat="47.00074" lon="6.5648">
        <ele>990.4</ele>
        <time>2021-08-13T09:42:25Z</time>
      </trkpt>
      <trkpt lat="47.00074" lon="6.56481">
        <ele>990.5</ele>
        <time>2021-08-13T09:42:27Z</time>
      </trkpt>
      <trkpt lat="47.00073" lon="6.56481">
        <ele>990.5</ele>
        <time>2021-08-13T09:42:28Z</time>
      </trkpt>
      <trkpt lat="47.00073" lon="6.56481">
        <ele>990.6</ele>
        <time>2021-08-13T09:42:30Z</time>
      </trkpt>
      <trkpt lat="47.00072" lon="6.56481">
        <ele>990.7</ele>
        <time>2021-08-13T09:42:31Z</time>
      </trkpt>
      <trkpt lat="47.00035" lon="6.56463">
        <ele>995.3</ele>
        <time>2021-08-13T09:43:26Z</time>
      </trkpt>
      <trkpt lat="47.00033" lon="6.56461">
        <ele>995.5</ele>
        <time>2021-08-13T09:43:27Z</time>
      </trkpt>
      <trkpt lat="47.00032" lon="6.56461">
        <ele>995.6</ele>
        <time>2021-08-13T09:43:29Z</time>
      </trkpt>
      <trkpt lat="47.0003" lon="6.5646">
        <ele>995.8</ele>
        <time>2021-08-13T09:43:31Z</time>
      </trkpt>
      <trkpt lat="47.0003" lon="6.56459">
        <ele>995.9</ele>
        <time>2021-08-13T09:43:32Z</time>
      </trkpt>
      <trkpt lat="47.00029" lon="6.56458">
        <ele>996</ele>
        <time>2021-08-13T09:43:34Z</time>
      </trkpt>
      <trkpt lat="47.00029" lon="6.56458">
        <ele>996</ele>
        <time>2021-08-13T09:43:35Z</time>
      </trkpt>
      <trkpt lat="47.00028" lon="6.56457">
        <ele>996.1</ele>
        <time>2021-08-13T09:43:37Z</time>
      </trkpt>
      <trkpt lat="47.00028" lon="6.56457">
        <ele>996.1</ele>
        <time>2021-08-13T09:43:38Z</time>
      </trkpt>
      <trkpt lat="47.00028" lon="6.56457">
        <ele>996.1</ele>
        <time>2021-08-13T09:43:39Z</time>
      </trkpt>
      <trkpt lat="47.0002" lon="6.56464">
        <ele>996.9</ele>
        <time>2021-08-13T09:43:48Z</time>
      </trkpt>
      <trkpt lat="47.00016" lon="6.56466">
        <ele>997.2</ele>
        <time>2021-08-13T09:43:50Z</time>
      </trkpt>
      <trkpt lat="47.00013" lon="6.5647">
        <ele>997.5</ele>
        <time>2021-08-13T09:43:52Z</time>
      </trkpt>
      <trkpt lat="47.00012" lon="6.56474">
        <ele>997.7</ele>
        <time>2021-08-13T09:43:53Z</time>
      </trkpt>
      <trkpt lat="47.00012" lon="6.56475">
        <ele>997.8</ele>
        <time>2021-08-13T09:43:54Z</time>
      </trkpt>
      <trkpt lat="47.0001" lon="6.56482">
        <ele>998.2</ele>
        <time>2021-08-13T09:43:56Z</time>
      </trkpt>
      <trkpt lat="47.0001" lon="6.56485">
        <ele>998.3</ele>
        <time>2021-08-13T09:43:57Z</time>
      </trkpt>
      <trkpt lat="47.00009" lon="6.56487">
        <ele>998.5</ele>
        <time>2021-08-13T09:43:58Z</time>
      </trkpt>
      <trkpt lat="47.00008" lon="6.56493">
        <ele>998.8</ele>
        <time>2021-08-13T09:44:00Z</time>
      </trkpt>
      <trkpt lat="47.00008" lon="6.56498">
        <ele>999.1</ele>
        <time>2021-08-13T09:44:01Z</time>
      </trkpt>
      <trkpt lat="47.00008" lon="6.56504">
        <ele>999.5</ele>
        <time>2021-08-13T09:44:02Z</time>
      </trkpt>
      <trkpt lat="47.00007" lon="6.56506">
        <ele>999.6</ele>
        <time>2021-08-13T09:44:03Z</time>
      </trkpt>
      <trkpt lat="47.00006" lon="6.5651">
        <ele>999.8</ele>
        <time>2021-08-13T09:44:05Z</time>
      </trkpt>
      <trkpt lat="47.00006" lon="6.56511">
        <ele>999.9</ele>
        <time>2021-08-13T09:44:06Z</time>
      </trkpt>
      <trkpt lat="47.00006" lon="6.56516">
        <ele>1000</ele>
        <time>2021-08-13T09:44:08Z</time>
      </trkpt>
      <trkpt lat="47.00006" lon="6.56517">
        <ele>1000</ele>
        <time>2021-08-13T09:44:09Z</time>
      </trkpt>
      <trkpt lat="47.00005" lon="6.56519">
        <ele>1000.1</ele>
        <time>2021-08-13T09:44:10Z</time>
      </trkpt>
      <trkpt lat="47.00004" lon="6.5652">
        <ele>1000.1</ele>
        <time>2021-08-13T09:44:11Z</time>
      </trkpt>
      <trkpt lat="47.00001" lon="6.56523">
        <ele>1000.2</ele>
        <time>2021-08-13T09:44:12Z</time>
      </trkpt>
      <trkpt lat="47" lon="6.56524">
        <ele>1000.2</ele>
        <time>2021-08-13T09:44:14Z</time>
      </trkpt>
      <trkpt lat="46.99999" lon="6.56526">
        <ele>1000.3</ele>
        <time>2021-08-13T09:44:15Z</time>
      </trkpt>
      <trkpt lat="46.99997" lon="6.56527">
        <ele>1000.3</ele>
        <time>2021-08-13T09:44:16Z</time>
      </trkpt>
      <trkpt lat="46.99995" lon="6.5653">
        <ele>1000.4</ele>
        <time>2021-08-13T09:44:17Z</time>
      </trkpt>
      <trkpt lat="46.99994" lon="6.56531">
        <ele>1000.4</ele>
        <time>2021-08-13T09:44:18Z</time>
      </trkpt>
      <trkpt lat="46.99992" lon="6.56534">
        <ele>1000.5</ele>
        <time>2021-08-13T09:44:19Z</time>
      </trkpt>
      <trkpt lat="46.99989" lon="6.56538">
        <ele>1000.5</ele>
        <time>2021-08-13T09:44:20Z</time>
      </trkpt>
      <trkpt lat="46.99989" lon="6.5654">
        <ele>1000.5</ele>
        <time>2021-08-13T09:44:21Z</time>
      </trkpt>
      <trkpt lat="46.99987" lon="6.56542">
        <ele>1000.5</ele>
        <time>2021-08-13T09:44:22Z</time>
      </trkpt>
      <trkpt lat="46.99984" lon="6.56545">
        <ele>1000.5</ele>
        <time>2021-08-13T09:44:24Z</time>
      </trkpt>
      <trkpt lat="46.99981" lon="6.5655">
        <ele>1000.5</ele>
        <time>2021-08-13T09:44:26Z</time>
      </trkpt>
      <trkpt lat="46.99978" lon="6.56553">
        <ele>1000.5</ele>
        <time>2021-08-13T09:44:27Z</time>
      </trkpt>
      <trkpt lat="46.99974" lon="6.56558">
        <ele>1000.4</ele>
        <time>2021-08-13T09:44:29Z</time>
      </trkpt>
      <trkpt lat="46.9997" lon="6.56561">
        <ele>1000.2</ele>
        <time>2021-08-13T09:44:30Z</time>
      </trkpt>
      <trkpt lat="46.99969" lon="6.56562">
        <ele>1000.2</ele>
        <time>2021-08-13T09:44:31Z</time>
      </trkpt>
      <trkpt lat="46.99966" lon="6.56563">
        <ele>1000.1</ele>
        <time>2021-08-13T09:44:32Z</time>
      </trkpt>
      <trkpt lat="46.99961" lon="6.56566">
        <ele>999.8</ele>
        <time>2021-08-13T09:44:34Z</time>
      </trkpt>
      <trkpt lat="46.99957" lon="6.56569">
        <ele>999.6</ele>
        <time>2021-08-13T09:44:35Z</time>
      </trkpt>
      <trkpt lat="46.99954" lon="6.56573">
        <ele>999.5</ele>
        <time>2021-08-13T09:44:36Z</time>
      </trkpt>
      <trkpt lat="46.99949" lon="6.56579">
        <ele>999.2</ele>
        <time>2021-08-13T09:44:37Z</time>
      </trkpt>
      <trkpt lat="46.99942" lon="6.56591">
        <ele>998.6</ele>
        <time>2021-08-13T09:44:39Z</time>
      </trkpt>
      <trkpt lat="46.99934" lon="6.56602">
        <ele>998.2</ele>
        <time>2021-08-13T09:44:41Z</time>
      </trkpt>
      <trkpt lat="46.99931" lon="6.56608">
        <ele>997.9</ele>
        <time>2021-08-13T09:44:42Z</time>
      </trkpt>
      <trkpt lat="46.99925" lon="6.56623">
        <ele>997.1</ele>
        <time>2021-08-13T09:44:44Z</time>
      </trkpt>
      <trkpt lat="46.99923" lon="6.56639">
        <ele>996.2</ele>
        <time>2021-08-13T09:44:46Z</time>
      </trkpt>
      <trkpt lat="46.99922" lon="6.56648">
        <ele>995.5</ele>
        <time>2021-08-13T09:44:47Z</time>
      </trkpt>
      <trkpt lat="46.99921" lon="6.56658">
        <ele>994.8</ele>
        <time>2021-08-13T09:44:48Z</time>
      </trkpt>
      <trkpt lat="46.99919" lon="6.56668">
        <ele>994.1</ele>
        <time>2021-08-13T09:44:49Z</time>
      </trkpt>
      <trkpt lat="46.99913" lon="6.56689">
        <ele>992.5</ele>
        <time>2021-08-13T09:44:51Z</time>
      </trkpt>
      <trkpt lat="46.99904" lon="6.5671">
        <ele>990.9</ele>
        <time>2021-08-13T09:44:53Z</time>
      </trkpt>
      <trkpt lat="46.99896" lon="6.56733">
        <ele>989</ele>
        <time>2021-08-13T09:44:55Z</time>
      </trkpt>
      <trkpt lat="46.99893" lon="6.56746">
        <ele>988.1</ele>
        <time>2021-08-13T09:44:56Z</time>
      </trkpt>
      <trkpt lat="46.99887" lon="6.56771">
        <ele>986.5</ele>
        <time>2021-08-13T09:44:58Z</time>
      </trkpt>
      <trkpt lat="46.99884" lon="6.56784">
        <ele>985.8</ele>
        <time>2021-08-13T09:44:59Z</time>
      </trkpt>
      <trkpt lat="46.99878" lon="6.56806">
        <ele>985.1</ele>
        <time>2021-08-13T09:45:01Z</time>
      </trkpt>
      <trkpt lat="46.99875" lon="6.56818">
        <ele>985.1</ele>
        <time>2021-08-13T09:45:02Z</time>
      </trkpt>
      <trkpt lat="46.99875" lon="6.56826">
        <ele>985.3</ele>
        <time>2021-08-13T09:45:04Z</time>
      </trkpt>
      <trkpt lat="46.99875" lon="6.56825">
        <ele>985.4</ele>
        <time>2021-08-13T09:45:09Z</time>
      </trkpt>
      <trkpt lat="46.99875" lon="6.56824">
        <ele>985.4</ele>
        <time>2021-08-13T09:45:10Z</time>
      </trkpt>
      <trkpt lat="46.99875" lon="6.56824">
        <ele>985.4</ele>
        <time>2021-08-13T09:45:11Z</time>
      </trkpt>
      <trkpt lat="46.99875" lon="6.56824">
        <ele>985.4</ele>
        <time>2021-08-13T09:45:13Z</time>
      </trkpt>
      <trkpt lat="46.99782" lon="6.56635">
        <ele>987.9</ele>
        <time>2021-08-13T09:45:55Z</time>
      </trkpt>
      <trkpt lat="46.99762" lon="6.56634">
        <ele>988.1</ele>
        <time>2021-08-13T09:45:57Z</time>
      </trkpt>
      <trkpt lat="46.99757" lon="6.56634">
        <ele>988.2</ele>
        <time>2021-08-13T09:45:58Z</time>
      </trkpt>
      <trkpt lat="46.99748" lon="6.56631">
        <ele>988.4</ele>
        <time>2021-08-13T09:45:59Z</time>
      </trkpt>
      <trkpt lat="46.99745" lon="6.5663">
        <ele>988.5</ele>
        <time>2021-08-13T09:46:00Z</time>
      </trkpt>
      <trkpt lat="46.99737" lon="6.56629">
        <ele>988.5</ele>
        <time>2021-08-13T09:46:02Z</time>
      </trkpt>
      <trkpt lat="46.99732" lon="6.56628">
        <ele>988.3</ele>
        <time>2021-08-13T09:46:03Z</time>
      </trkpt>
      <trkpt lat="46.99729" lon="6.56628">
        <ele>988.2</ele>
        <time>2021-08-13T09:46:05Z</time>
      </trkpt>
      <trkpt lat="46.99725" lon="6.56628">
        <ele>988.1</ele>
        <time>2021-08-13T09:46:07Z</time>
      </trkpt>
      <trkpt lat="46.99722" lon="6.56626">
        <ele>987.9</ele>
        <time>2021-08-13T09:46:08Z</time>
      </trkpt>
      <trkpt lat="46.99718" lon="6.56619">
        <ele>987.5</ele>
        <time>2021-08-13T09:46:09Z</time>
      </trkpt>
      <trkpt lat="46.99715" lon="6.56613">
        <ele>987.2</ele>
        <time>2021-08-13T09:46:10Z</time>
      </trkpt>
      <trkpt lat="46.9971" lon="6.56599">
        <ele>986.5</ele>
        <time>2021-08-13T09:46:12Z</time>
      </trkpt>
      <trkpt lat="46.99703" lon="6.56584">
        <ele>985.7</ele>
        <time>2021-08-13T09:46:14Z</time>
      </trkpt>
      <trkpt lat="46.99694" lon="6.56573">
        <ele>984.9</ele>
        <time>2021-08-13T09:46:16Z</time>
      </trkpt>
      <trkpt lat="46.99688" lon="6.56568">
        <ele>984.4</ele>
        <time>2021-08-13T09:46:17Z</time>
      </trkpt>
      <trkpt lat="46.99683" lon="6.56564">
        <ele>983.9</ele>
        <time>2021-08-13T09:46:18Z</time>
      </trkpt>
      <trkpt lat="46.99673" lon="6.56557">
        <ele>983</ele>
        <time>2021-08-13T09:46:20Z</time>
      </trkpt>
      <trkpt lat="46.99665" lon="6.56546">
        <ele>982.2</ele>
        <time>2021-08-13T09:46:22Z</time>
      </trkpt>
      <trkpt lat="46.99661" lon="6.56541">
        <ele>981.8</ele>
        <time>2021-08-13T09:46:23Z</time>
      </trkpt>
      <trkpt lat="46.99652" lon="6.56532">
        <ele>981.5</ele>
        <time>2021-08-13T09:46:25Z</time>
      </trkpt>
      <trkpt lat="46.99646" lon="6.56529">
        <ele>981.5</ele>
        <time>2021-08-13T09:46:26Z</time>
      </trkpt>
      <trkpt lat="46.99635" lon="6.56522">
        <ele>981.4</ele>
        <time>2021-08-13T09:46:28Z</time>
      </trkpt>
      <trkpt lat="46.99623" lon="6.56514">
        <ele>981.3</ele>
        <time>2021-08-13T09:46:30Z</time>
      </trkpt>
      <trkpt lat="46.99611" lon="6.56506">
        <ele>981.2</ele>
        <time>2021-08-13T09:46:32Z</time>
      </trkpt>
      <trkpt lat="46.996" lon="6.56496">
        <ele>981.5</ele>
        <time>2021-08-13T09:46:34Z</time>
      </trkpt>
      <trkpt lat="46.99594" lon="6.56491">
        <ele>981.7</ele>
        <time>2021-08-13T09:46:35Z</time>
      </trkpt>
      <trkpt lat="46.99589" lon="6.56487">
        <ele>982</ele>
        <time>2021-08-13T09:46:36Z</time>
      </trkpt>
      <trkpt lat="46.99578" lon="6.56481">
        <ele>982.8</ele>
        <time>2021-08-13T09:46:38Z</time>
      </trkpt>
      <trkpt lat="46.99574" lon="6.56479">
        <ele>983.1</ele>
        <time>2021-08-13T09:46:39Z</time>
      </trkpt>
      <trkpt lat="46.99571" lon="6.56476">
        <ele>983.4</ele>
        <time>2021-08-13T09:46:40Z</time>
      </trkpt>
      <trkpt lat="46.99565" lon="6.56472">
        <ele>983.9</ele>
        <time>2021-08-13T09:46:42Z</time>
      </trkpt>
      <trkpt lat="46.99562" lon="6.56471">
        <ele>984.2</ele>
        <time>2021-08-13T09:46:43Z</time>
      </trkpt>
      <trkpt lat="46.99558" lon="6.5647">
        <ele>984.6</ele>
        <time>2021-08-13T09:46:44Z</time>
      </trkpt>
      <trkpt lat="46.99556" lon="6.56468">
        <ele>984.7</ele>
        <time>2021-08-13T09:46:46Z</time>
      </trkpt>
      <trkpt lat="46.99555" lon="6.56469">
        <ele>984.8</ele>
        <time>2021-08-13T09:46:47Z</time>
      </trkpt>
      <trkpt lat="46.99552" lon="6.56468">
        <ele>985</ele>
        <time>2021-08-13T09:46:48Z</time>
      </trkpt>
      <trkpt lat="46.99549" lon="6.56468">
        <ele>985.2</ele>
        <time>2021-08-13T09:46:49Z</time>
      </trkpt>
      <trkpt lat="46.99546" lon="6.56466">
        <ele>985.5</ele>
        <time>2021-08-13T09:46:51Z</time>
      </trkpt>
      <trkpt lat="46.99546" lon="6.56465">
        <ele>985.5</ele>
        <time>2021-08-13T09:46:52Z</time>
      </trkpt>
      <trkpt lat="46.99543" lon="6.56461">
        <ele>985.8</ele>
        <time>2021-08-13T09:46:54Z</time>
      </trkpt>
      <trkpt lat="46.99538" lon="6.56434">
        <ele>987</ele>
        <time>2021-08-13T09:47:05Z</time>
      </trkpt>
      <trkpt lat="46.99536" lon="6.56429">
        <ele>987.3</ele>
        <time>2021-08-13T09:47:06Z</time>
      </trkpt>
      <trkpt lat="46.99532" lon="6.56427">
        <ele>987.5</ele>
        <time>2021-08-13T09:47:07Z</time>
      </trkpt>
      <trkpt lat="46.99529" lon="6.56425">
        <ele>987.8</ele>
        <time>2021-08-13T09:47:08Z</time>
      </trkpt>
      <trkpt lat="46.99524" lon="6.56422">
        <ele>988.1</ele>
        <time>2021-08-13T09:47:09Z</time>
      </trkpt>
      <trkpt lat="46.99521" lon="6.5642">
        <ele>988.3</ele>
        <time>2021-08-13T09:47:10Z</time>
      </trkpt>
      <trkpt lat="46.99519" lon="6.56419">
        <ele>988.5</ele>
        <time>2021-08-13T09:47:11Z</time>
      </trkpt>
      <trkpt lat="46.99515" lon="6.56419">
        <ele>988.7</ele>
        <time>2021-08-13T09:47:13Z</time>
      </trkpt>
      <trkpt lat="46.99511" lon="6.5642">
        <ele>988.9</ele>
        <time>2021-08-13T09:47:14Z</time>
      </trkpt>
      <trkpt lat="46.9951" lon="6.5642">
        <ele>989</ele>
        <time>2021-08-13T09:47:15Z</time>
      </trkpt>
      <trkpt lat="46.99506" lon="6.56419">
        <ele>989.3</ele>
        <time>2021-08-13T09:47:16Z</time>
      </trkpt>
      <trkpt lat="46.99502" lon="6.56419">
        <ele>989.5</ele>
        <time>2021-08-13T09:47:18Z</time>
      </trkpt>
      <trkpt lat="46.995" lon="6.56419">
        <ele>989.6</ele>
        <time>2021-08-13T09:47:19Z</time>
      </trkpt>
      <trkpt lat="46.99499" lon="6.56419">
        <ele>989.7</ele>
        <time>2021-08-13T09:47:20Z</time>
      </trkpt>
      <trkpt lat="46.99493" lon="6.5642">
        <ele>990.1</ele>
        <time>2021-08-13T09:47:22Z</time>
      </trkpt>
      <trkpt lat="46.99489" lon="6.5642">
        <ele>990.3</ele>
        <time>2021-08-13T09:47:24Z</time>
      </trkpt>
      <trkpt lat="46.99485" lon="6.56418">
        <ele>990.4</ele>
        <time>2021-08-13T09:47:25Z</time>
      </trkpt>
      <trkpt lat="46.99483" lon="6.56417">
        <ele>990.5</ele>
        <time>2021-08-13T09:47:26Z</time>
      </trkpt>
      <trkpt lat="46.9948" lon="6.56415">
        <ele>990.6</ele>
        <time>2021-08-13T09:47:28Z</time>
      </trkpt>
      <trkpt lat="46.99476" lon="6.56414">
        <ele>990.7</ele>
        <time>2021-08-13T09:47:30Z</time>
      </trkpt>
      <trkpt lat="46.99473" lon="6.56415">
        <ele>990.7</ele>
        <time>2021-08-13T09:47:31Z</time>
      </trkpt>
      <trkpt lat="46.9947" lon="6.56415">
        <ele>990.8</ele>
        <time>2021-08-13T09:47:32Z</time>
      </trkpt>
      <trkpt lat="46.99465" lon="6.56417">
        <ele>990.8</ele>
        <time>2021-08-13T09:47:34Z</time>
      </trkpt>
      <trkpt lat="46.99462" lon="6.56418">
        <ele>990.9</ele>
        <time>2021-08-13T09:47:35Z</time>
      </trkpt>
      <trkpt lat="46.99456" lon="6.56419">
        <ele>990.9</ele>
        <time>2021-08-13T09:47:37Z</time>
      </trkpt>
      <trkpt lat="46.99451" lon="6.56418">
        <ele>991</ele>
        <time>2021-08-13T09:47:38Z</time>
      </trkpt>
      <trkpt lat="46.99445" lon="6.56417">
        <ele>991</ele>
        <time>2021-08-13T09:47:39Z</time>
      </trkpt>
      <trkpt lat="46.9944" lon="6.56416">
        <ele>991.1</ele>
        <time>2021-08-13T09:47:40Z</time>
      </trkpt>
      <trkpt lat="46.99436" lon="6.56413">
        <ele>991.2</ele>
        <time>2021-08-13T09:47:42Z</time>
      </trkpt>
      <trkpt lat="46.99429" lon="6.56412">
        <ele>991.3</ele>
        <time>2021-08-13T09:47:43Z</time>
      </trkpt>
      <trkpt lat="46.99425" lon="6.56413">
        <ele>991.4</ele>
        <time>2021-08-13T09:47:44Z</time>
      </trkpt>
      <trkpt lat="46.99424" lon="6.56413">
        <ele>991.4</ele>
        <time>2021-08-13T09:47:45Z</time>
      </trkpt>
      <trkpt lat="46.99421" lon="6.56413">
        <ele>991.4</ele>
        <time>2021-08-13T09:47:47Z</time>
      </trkpt>
      <trkpt lat="46.99418" lon="6.56413">
        <ele>991.4</ele>
        <time>2021-08-13T09:47:48Z</time>
      </trkpt>
      <trkpt lat="46.99413" lon="6.56415">
        <ele>991.3</ele>
        <time>2021-08-13T09:47:49Z</time>
      </trkpt>
      <trkpt lat="46.99409" lon="6.56416">
        <ele>991.2</ele>
        <time>2021-08-13T09:47:51Z</time>
      </trkpt>
      <trkpt lat="46.99408" lon="6.56416">
        <ele>991.1</ele>
        <time>2021-08-13T09:47:52Z</time>
      </trkpt>
      <trkpt lat="46.99401" lon="6.56417">
        <ele>990.8</ele>
        <time>2021-08-13T09:47:54Z</time>
      </trkpt>
      <trkpt lat="46.99394" lon="6.56417">
        <ele>990.4</ele>
        <time>2021-08-13T09:47:56Z</time>
      </trkpt>
      <trkpt lat="46.99383" lon="6.56417">
        <ele>989.9</ele>
        <time>2021-08-13T09:47:58Z</time>
      </trkpt>
      <trkpt lat="46.99372" lon="6.56415">
        <ele>989.6</ele>
        <time>2021-08-13T09:48:00Z</time>
      </trkpt>
      <trkpt lat="46.99362" lon="6.56413">
        <ele>989.5</ele>
        <time>2021-08-13T09:48:02Z</time>
      </trkpt>
      <trkpt lat="46.99355" lon="6.56413">
        <ele>989.5</ele>
        <time>2021-08-13T09:48:04Z</time>
      </trkpt>
      <trkpt lat="46.9935" lon="6.56411">
        <ele>989.5</ele>
        <time>2021-08-13T09:48:05Z</time>
      </trkpt>
      <trkpt lat="46.99342" lon="6.56402">
        <ele>989.6</ele>
        <time>2021-08-13T09:48:07Z</time>
      </trkpt>
      <trkpt lat="46.99339" lon="6.56396">
        <ele>989.7</ele>
        <time>2021-08-13T09:48:08Z</time>
      </trkpt>
      <trkpt lat="46.99334" lon="6.56383">
        <ele>989.7</ele>
        <time>2021-08-13T09:48:10Z</time>
      </trkpt>
      <trkpt lat="46.99331" lon="6.56367">
        <ele>989.8</ele>
        <time>2021-08-13T09:48:12Z</time>
      </trkpt>
      <trkpt lat="46.99329" lon="6.5636">
        <ele>989.9</ele>
        <time>2021-08-13T09:48:13Z</time>
      </trkpt>
      <trkpt lat="46.99329" lon="6.56354">
        <ele>990</ele>
        <time>2021-08-13T09:48:14Z</time>
      </trkpt>
      <trkpt lat="46.99328" lon="6.5635">
        <ele>990.1</ele>
        <time>2021-08-13T09:48:15Z</time>
      </trkpt>
      <trkpt lat="46.99328" lon="6.56346">
        <ele>990.2</ele>
        <time>2021-08-13T09:48:17Z</time>
      </trkpt>
      <trkpt lat="46.99328" lon="6.5634">
        <ele>990.4</ele>
        <time>2021-08-13T09:48:18Z</time>
      </trkpt>
      <trkpt lat="46.99328" lon="6.56337">
        <ele>990.5</ele>
        <time>2021-08-13T09:48:19Z</time>
      </trkpt>
      <trkpt lat="46.99328" lon="6.56333">
        <ele>990.6</ele>
        <time>2021-08-13T09:48:21Z</time>
      </trkpt>
      <trkpt lat="46.99327" lon="6.56328">
        <ele>990.7</ele>
        <time>2021-08-13T09:48:23Z</time>
      </trkpt>
      <trkpt lat="46.99323" lon="6.56318">
        <ele>991</ele>
        <time>2021-08-13T09:48:25Z</time>
      </trkpt>
      <trkpt lat="46.9932" lon="6.56312">
        <ele>991.2</ele>
        <time>2021-08-13T09:48:26Z</time>
      </trkpt>
      <trkpt lat="46.99316" lon="6.56306">
        <ele>991.4</ele>
        <time>2021-08-13T09:48:27Z</time>
      </trkpt>
      <trkpt lat="46.99312" lon="6.56301">
        <ele>991.5</ele>
        <time>2021-08-13T09:48:28Z</time>
      </trkpt>
      <trkpt lat="46.99309" lon="6.56295">
        <ele>991.7</ele>
        <time>2021-08-13T09:48:29Z</time>
      </trkpt>
      <trkpt lat="46.99304" lon="6.56289">
        <ele>991.9</ele>
        <time>2021-08-13T09:48:30Z</time>
      </trkpt>
      <trkpt lat="46.993" lon="6.56286">
        <ele>992</ele>
        <time>2021-08-13T09:48:31Z</time>
      </trkpt>
      <trkpt lat="46.99298" lon="6.56283">
        <ele>992.1</ele>
        <time>2021-08-13T09:48:33Z</time>
      </trkpt>
      <trkpt lat="46.99295" lon="6.56279">
        <ele>992.2</ele>
        <time>2021-08-13T09:48:34Z</time>
      </trkpt>
      <trkpt lat="46.99293" lon="6.56275">
        <ele>992.4</ele>
        <time>2021-08-13T09:48:35Z</time>
      </trkpt>
      <trkpt lat="46.9929" lon="6.5627">
        <ele>992.5</ele>
        <time>2021-08-13T09:48:37Z</time>
      </trkpt>
      <trkpt lat="46.99287" lon="6.56266">
        <ele>992.7</ele>
        <time>2021-08-13T09:48:38Z</time>
      </trkpt>
      <trkpt lat="46.99283" lon="6.56263">
        <ele>992.8</ele>
        <time>2021-08-13T09:48:39Z</time>
      </trkpt>
      <trkpt lat="46.99279" lon="6.5626">
        <ele>993</ele>
        <time>2021-08-13T09:48:41Z</time>
      </trkpt>
      <trkpt lat="46.99275" lon="6.56258">
        <ele>993.1</ele>
        <time>2021-08-13T09:48:42Z</time>
      </trkpt>
      <trkpt lat="46.99271" lon="6.56257">
        <ele>993.2</ele>
        <time>2021-08-13T09:48:43Z</time>
      </trkpt>
      <trkpt lat="46.99267" lon="6.56255">
        <ele>993.3</ele>
        <time>2021-08-13T09:48:45Z</time>
      </trkpt>
      <trkpt lat="46.99265" lon="6.56254">
        <ele>993.4</ele>
        <time>2021-08-13T09:48:46Z</time>
      </trkpt>
      <trkpt lat="46.99264" lon="6.56254">
        <ele>993.4</ele>
        <time>2021-08-13T09:48:47Z</time>
      </trkpt>
      <trkpt lat="46.9926" lon="6.56252">
        <ele>993.5</ele>
        <time>2021-08-13T09:48:49Z</time>
      </trkpt>
      <trkpt lat="46.99257" lon="6.56251">
        <ele>993.6</ele>
        <time>2021-08-13T09:48:51Z</time>
      </trkpt>
      <trkpt lat="46.99254" lon="6.5625">
        <ele>993.7</ele>
        <time>2021-08-13T09:48:53Z</time>
      </trkpt>
      <trkpt lat="46.9925" lon="6.56249">
        <ele>993.8</ele>
        <time>2021-08-13T09:48:55Z</time>
      </trkpt>
      <trkpt lat="46.99249" lon="6.56249">
        <ele>993.9</ele>
        <time>2021-08-13T09:48:56Z</time>
      </trkpt>
      <trkpt lat="46.99246" lon="6.56249">
        <ele>994</ele>
        <time>2021-08-13T09:48:58Z</time>
      </trkpt>
      <trkpt lat="46.99244" lon="6.56248">
        <ele>994</ele>
        <time>2021-08-13T09:48:59Z</time>
      </trkpt>
      <trkpt lat="46.99243" lon="6.56247">
        <ele>994.1</ele>
        <time>2021-08-13T09:49:00Z</time>
      </trkpt>
      <trkpt lat="46.9924" lon="6.56246">
        <ele>994.1</ele>
        <time>2021-08-13T09:49:02Z</time>
      </trkpt>
      <trkpt lat="46.99238" lon="6.56245">
        <ele>994.2</ele>
        <time>2021-08-13T09:49:04Z</time>
      </trkpt>
      <trkpt lat="46.99237" lon="6.56244">
        <ele>994.2</ele>
        <time>2021-08-13T09:49:05Z</time>
      </trkpt>
      <trkpt lat="46.99235" lon="6.56242">
        <ele>994.3</ele>
        <time>2021-08-13T09:49:06Z</time>
      </trkpt>
      <trkpt lat="46.99232" lon="6.56239">
        <ele>994.4</ele>
        <time>2021-08-13T09:49:08Z</time>
      </trkpt>
      <trkpt lat="46.99231" lon="6.56237">
        <ele>994.5</ele>
        <time>2021-08-13T09:49:09Z</time>
      </trkpt>
      <trkpt lat="46.99228" lon="6.56236">
        <ele>994.5</ele>
        <time>2021-08-13T09:49:11Z</time>
      </trkpt>
      <trkpt lat="46.99224" lon="6.56233">
        <ele>994.6</ele>
        <time>2021-08-13T09:49:13Z</time>
      </trkpt>
      <trkpt lat="46.99223" lon="6.56233">
        <ele>994.6</ele>
        <time>2021-08-13T09:49:14Z</time>
      </trkpt>
      <trkpt lat="46.99222" lon="6.56232">
        <ele>994.7</ele>
        <time>2021-08-13T09:49:15Z</time>
      </trkpt>
      <trkpt lat="46.99219" lon="6.5623">
        <ele>994.7</ele>
        <time>2021-08-13T09:49:17Z</time>
      </trkpt>
      <trkpt lat="46.99218" lon="6.5623">
        <ele>994.8</ele>
        <time>2021-08-13T09:49:18Z</time>
      </trkpt>
      <trkpt lat="46.99215" lon="6.56231">
        <ele>994.8</ele>
        <time>2021-08-13T09:49:20Z</time>
      </trkpt>
      <trkpt lat="46.99211" lon="6.56231">
        <ele>994.9</ele>
        <time>2021-08-13T09:49:22Z</time>
      </trkpt>
      <trkpt lat="46.99209" lon="6.56231">
        <ele>994.9</ele>
        <time>2021-08-13T09:49:23Z</time>
      </trkpt>
      <trkpt lat="46.99205" lon="6.5623">
        <ele>994.9</ele>
        <time>2021-08-13T09:49:25Z</time>
      </trkpt>
      <trkpt lat="46.99203" lon="6.5623">
        <ele>994.9</ele>
        <time>2021-08-13T09:49:26Z</time>
      </trkpt>
      <trkpt lat="46.99202" lon="6.5623">
        <ele>994.9</ele>
        <time>2021-08-13T09:49:27Z</time>
      </trkpt>
      <trkpt lat="46.99198" lon="6.56229">
        <ele>994.9</ele>
        <time>2021-08-13T09:49:29Z</time>
      </trkpt>
      <trkpt lat="46.99195" lon="6.56229">
        <ele>994.9</ele>
        <time>2021-08-13T09:49:30Z</time>
      </trkpt>
      <trkpt lat="46.9919" lon="6.56229">
        <ele>994.9</ele>
        <time>2021-08-13T09:49:32Z</time>
      </trkpt>
      <trkpt lat="46.99186" lon="6.56228">
        <ele>994.8</ele>
        <time>2021-08-13T09:49:34Z</time>
      </trkpt>
      <trkpt lat="46.99182" lon="6.56226">
        <ele>994.8</ele>
        <time>2021-08-13T09:49:36Z</time>
      </trkpt>
      <trkpt lat="46.99178" lon="6.56226">
        <ele>994.7</ele>
        <time>2021-08-13T09:49:37Z</time>
      </trkpt>
      <trkpt lat="46.99174" lon="6.56226">
        <ele>994.6</ele>
        <time>2021-08-13T09:49:38Z</time>
      </trkpt>
      <trkpt lat="46.99169" lon="6.56226">
        <ele>994.5</ele>
        <time>2021-08-13T09:49:39Z</time>
      </trkpt>
      <trkpt lat="46.99165" lon="6.56228">
        <ele>994.4</ele>
        <time>2021-08-13T09:49:41Z</time>
      </trkpt>
      <trkpt lat="46.99158" lon="6.56229">
        <ele>994.2</ele>
        <time>2021-08-13T09:49:43Z</time>
      </trkpt>
      <trkpt lat="46.99154" lon="6.5623">
        <ele>994.1</ele>
        <time>2021-08-13T09:49:44Z</time>
      </trkpt>
      <trkpt lat="46.99148" lon="6.5623">
        <ele>994</ele>
        <time>2021-08-13T09:49:45Z</time>
      </trkpt>
      <trkpt lat="46.99143" lon="6.56229">
        <ele>993.9</ele>
        <time>2021-08-13T09:49:47Z</time>
      </trkpt>
      <trkpt lat="46.99138" lon="6.56228">
        <ele>993.8</ele>
        <time>2021-08-13T09:49:48Z</time>
      </trkpt>
      <trkpt lat="46.99132" lon="6.56225">
        <ele>993.7</ele>
        <time>2021-08-13T09:49:49Z</time>
      </trkpt>
      <trkpt lat="46.99126" lon="6.56221">
        <ele>993.6</ele>
        <time>2021-08-13T09:49:50Z</time>
      </trkpt>
      <trkpt lat="46.99115" lon="6.5621">
        <ele>993</ele>
        <time>2021-08-13T09:49:52Z</time>
      </trkpt>
      <trkpt lat="46.99107" lon="6.56194">
        <ele>992.3</ele>
        <time>2021-08-13T09:49:54Z</time>
      </trkpt>
      <trkpt lat="46.99102" lon="6.56178">
        <ele>992</ele>
        <time>2021-08-13T09:49:56Z</time>
      </trkpt>
      <trkpt lat="46.99103" lon="6.5616">
        <ele>992.2</ele>
        <time>2021-08-13T09:49:58Z</time>
      </trkpt>
      <trkpt lat="46.99104" lon="6.56152">
        <ele>992.5</ele>
        <time>2021-08-13T09:49:59Z</time>
      </trkpt>
      <trkpt lat="46.99107" lon="6.56144">
        <ele>992.8</ele>
        <time>2021-08-13T09:50:00Z</time>
      </trkpt>
      <trkpt lat="46.99112" lon="6.56129">
        <ele>993.3</ele>
        <time>2021-08-13T09:50:02Z</time>
      </trkpt>
      <trkpt lat="46.99114" lon="6.56115">
        <ele>993.6</ele>
        <time>2021-08-13T09:50:04Z</time>
      </trkpt>
      <trkpt lat="46.99115" lon="6.56105">
        <ele>993.8</ele>
        <time>2021-08-13T09:50:06Z</time>
      </trkpt>
      <trkpt lat="46.99117" lon="6.5609">
        <ele>993.9</ele>
        <time>2021-08-13T09:50:08Z</time>
      </trkpt>
      <trkpt lat="46.99124" lon="6.56075">
        <ele>993.8</ele>
        <time>2021-08-13T09:50:10Z</time>
      </trkpt>
      <trkpt lat="46.99128" lon="6.56068">
        <ele>993.7</ele>
        <time>2021-08-13T09:50:11Z</time>
      </trkpt>
      <trkpt lat="46.99134" lon="6.5606">
        <ele>993.7</ele>
        <time>2021-08-13T09:50:13Z</time>
      </trkpt>
      <trkpt lat="46.99137" lon="6.56052">
        <ele>993.7</ele>
        <time>2021-08-13T09:50:14Z</time>
      </trkpt>
      <trkpt lat="46.99141" lon="6.56044">
        <ele>993.8</ele>
        <time>2021-08-13T09:50:15Z</time>
      </trkpt>
      <trkpt lat="46.99144" lon="6.56038">
        <ele>993.9</ele>
        <time>2021-08-13T09:50:16Z</time>
      </trkpt>
      <trkpt lat="46.99147" lon="6.56032">
        <ele>994.1</ele>
        <time>2021-08-13T09:50:17Z</time>
      </trkpt>
      <trkpt lat="46.99151" lon="6.56026">
        <ele>994.4</ele>
        <time>2021-08-13T09:50:19Z</time>
      </trkpt>
      <trkpt lat="46.99156" lon="6.5602">
        <ele>994.8</ele>
        <time>2021-08-13T09:50:20Z</time>
      </trkpt>
      <trkpt lat="46.99158" lon="6.56016">
        <ele>995.1</ele>
        <time>2021-08-13T09:50:22Z</time>
      </trkpt>
      <trkpt lat="46.9916" lon="6.56012">
        <ele>995.4</ele>
        <time>2021-08-13T09:50:23Z</time>
      </trkpt>
      <trkpt lat="46.99161" lon="6.56008">
        <ele>995.6</ele>
        <time>2021-08-13T09:50:25Z</time>
      </trkpt>
      <trkpt lat="46.99162" lon="6.56006">
        <ele>995.8</ele>
        <time>2021-08-13T09:50:26Z</time>
      </trkpt>
      <trkpt lat="46.99165" lon="6.56002">
        <ele>996.1</ele>
        <time>2021-08-13T09:50:28Z</time>
      </trkpt>
      <trkpt lat="46.99165" lon="6.55996">
        <ele>997</ele>
        <time>2021-08-13T09:50:30Z</time>
      </trkpt>
      <trkpt lat="46.99164" lon="6.55994">
        <ele>997.1</ele>
        <time>2021-08-13T09:50:31Z</time>
      </trkpt>
      <trkpt lat="46.99164" lon="6.55992">
        <ele>997.3</ele>
        <time>2021-08-13T09:50:32Z</time>
      </trkpt>
      <trkpt lat="46.99164" lon="6.55988">
        <ele>997.7</ele>
        <time>2021-08-13T09:50:34Z</time>
      </trkpt>
      <trkpt lat="46.99165" lon="6.55987">
        <ele>997.8</ele>
        <time>2021-08-13T09:50:35Z</time>
      </trkpt>
      <trkpt lat="46.99166" lon="6.55988">
        <ele>997.9</ele>
        <time>2021-08-13T09:50:36Z</time>
      </trkpt>
      <trkpt lat="46.99166" lon="6.55988">
        <ele>998</ele>
        <time>2021-08-13T09:50:38Z</time>
      </trkpt>
      <trkpt lat="46.99166" lon="6.55988">
        <ele>998</ele>
        <time>2021-08-13T09:50:39Z</time>
      </trkpt>
      <trkpt lat="46.99166" lon="6.55988">
        <ele>998</ele>
        <time>2021-08-13T09:50:41Z</time>
      </trkpt>
      <trkpt lat="46.99166" lon="6.55988">
        <ele>998</ele>
        <time>2021-08-13T09:50:43Z</time>
      </trkpt>
      <trkpt lat="46.99166" lon="6.55988">
        <ele>998</ele>
        <time>2021-08-13T09:50:44Z</time>
      </trkpt>
      <trkpt lat="46.99059" lon="6.55956">
        <ele>1017.3</ele>
        <time>2021-08-13T09:53:41Z</time>
      </trkpt>
      <trkpt lat="46.99056" lon="6.55954">
        <ele>1017.6</ele>
        <time>2021-08-13T09:53:43Z</time>
      </trkpt>
      <trkpt lat="46.99054" lon="6.55952">
        <ele>1017.9</ele>
        <time>2021-08-13T09:53:44Z</time>
      </trkpt>
      <trkpt lat="46.99053" lon="6.55952">
        <ele>1018.1</ele>
        <time>2021-08-13T09:53:46Z</time>
      </trkpt>
      <trkpt lat="46.99052" lon="6.55952">
        <ele>1018.1</ele>
        <time>2021-08-13T09:53:47Z</time>
      </trkpt>
      <trkpt lat="46.99052" lon="6.55952">
        <ele>1018.2</ele>
        <time>2021-08-13T09:53:49Z</time>
      </trkpt>
      <trkpt lat="46.99051" lon="6.55952">
        <ele>1018.2</ele>
        <time>2021-08-13T09:53:50Z</time>
      </trkpt>
      <trkpt lat="46.9905" lon="6.55951">
        <ele>1018.3</ele>
        <time>2021-08-13T09:53:51Z</time>
      </trkpt>
      <trkpt lat="46.99049" lon="6.55951">
        <ele>1018.4</ele>
        <time>2021-08-13T09:53:53Z</time>
      </trkpt>
      <trkpt lat="46.99048" lon="6.5595">
        <ele>1018.6</ele>
        <time>2021-08-13T09:53:54Z</time>
      </trkpt>
      <trkpt lat="46.98985" lon="6.5598">
        <ele>1027.3</ele>
        <time>2021-08-13T09:56:09Z</time>
      </trkpt>
      <trkpt lat="46.98983" lon="6.55981">
        <ele>1027.5</ele>
        <time>2021-08-13T09:56:10Z</time>
      </trkpt>
      <trkpt lat="46.98982" lon="6.55982">
        <ele>1027.7</ele>
        <time>2021-08-13T09:56:11Z</time>
      </trkpt>
      <trkpt lat="46.98982" lon="6.55982">
        <ele>1027.8</ele>
        <time>2021-08-13T09:56:13Z</time>
      </trkpt>
      <trkpt lat="46.98981" lon="6.55982">
        <ele>1027.9</ele>
        <time>2021-08-13T09:56:14Z</time>
      </trkpt>
      <trkpt lat="46.98981" lon="6.55982">
        <ele>1027.9</ele>
        <time>2021-08-13T09:56:16Z</time>
      </trkpt>
      <trkpt lat="46.98981" lon="6.55982">
        <ele>1027.9</ele>
        <time>2021-08-13T09:56:17Z</time>
      </trkpt>
      <trkpt lat="46.9898" lon="6.55983">
        <ele>1028</ele>
        <time>2021-08-13T09:56:18Z</time>
      </trkpt>
      <trkpt lat="46.9898" lon="6.55983">
        <ele>1028</ele>
        <time>2021-08-13T09:56:20Z</time>
      </trkpt>
      <trkpt lat="46.9898" lon="6.55983">
        <ele>1028</ele>
        <time>2021-08-13T09:56:21Z</time>
      </trkpt>
      <trkpt lat="46.98979" lon="6.55983">
        <ele>1028.1</ele>
        <time>2021-08-13T09:56:23Z</time>
      </trkpt>
      <trkpt lat="46.98978" lon="6.55984">
        <ele>1028.3</ele>
        <time>2021-08-13T09:56:24Z</time>
      </trkpt>
      <trkpt lat="46.98977" lon="6.55984">
        <ele>1028.4</ele>
        <time>2021-08-13T09:56:25Z</time>
      </trkpt>
      <trkpt lat="46.98974" lon="6.55985">
        <ele>1028.7</ele>
        <time>2021-08-13T09:56:27Z</time>
      </trkpt>
      <trkpt lat="46.98971" lon="6.55986">
        <ele>1029.1</ele>
        <time>2021-08-13T09:56:28Z</time>
      </trkpt>
      <trkpt lat="46.98969" lon="6.55986">
        <ele>1029.3</ele>
        <time>2021-08-13T09:56:30Z</time>
      </trkpt>
      <trkpt lat="46.98969" lon="6.55986">
        <ele>1029.4</ele>
        <time>2021-08-13T09:56:31Z</time>
      </trkpt>
      <trkpt lat="46.98968" lon="6.55985">
        <ele>1029.5</ele>
        <time>2021-08-13T09:56:33Z</time>
      </trkpt>
      <trkpt lat="46.98967" lon="6.55985">
        <ele>1029.5</ele>
        <time>2021-08-13T09:56:34Z</time>
      </trkpt>
      <trkpt lat="46.98967" lon="6.55985">
        <ele>1029.5</ele>
        <time>2021-08-13T09:56:35Z</time>
      </trkpt>
      <trkpt lat="46.98967" lon="6.55985">
        <ele>1029.5</ele>
        <time>2021-08-13T09:56:37Z</time>
      </trkpt>
      <trkpt lat="46.98966" lon="6.55985">
        <ele>1029.6</ele>
        <time>2021-08-13T09:56:39Z</time>
      </trkpt>
      <trkpt lat="46.98966" lon="6.55985">
        <ele>1029.6</ele>
        <time>2021-08-13T09:56:40Z</time>
      </trkpt>
      <trkpt lat="46.98966" lon="6.55985">
        <ele>1029.6</ele>
        <time>2021-08-13T09:56:41Z</time>
      </trkpt>
      <trkpt lat="46.98966" lon="6.55985">
        <ele>1029.6</ele>
        <time>2021-08-13T09:56:43Z</time>
      </trkpt>
      <trkpt lat="46.98966" lon="6.55985">
        <ele>1029.6</ele>
        <time>2021-08-13T09:56:45Z</time>
      </trkpt>
      <trkpt lat="46.98966" lon="6.55985">
        <ele>1029.6</ele>
        <time>2021-08-13T09:56:47Z</time>
      </trkpt>
      <trkpt lat="46.98966" lon="6.55985">
        <ele>1029.6</ele>
        <time>2021-08-13T09:56:48Z</time>
      </trkpt>
      <trkpt lat="46.98966" lon="6.55985">
        <ele>1029.6</ele>
        <time>2021-08-13T09:56:49Z</time>
      </trkpt>
      <trkpt lat="46.98966" lon="6.55985">
        <ele>1029.6</ele>
        <time>2021-08-13T09:56:52Z</time>
      </trkpt>
      <trkpt lat="46.98966" lon="6.55986">
        <ele>1029.7</ele>
        <time>2021-08-13T09:56:54Z</time>
      </trkpt>
      <trkpt lat="46.98967" lon="6.55986">
        <ele>1029.7</ele>
        <time>2021-08-13T09:56:56Z</time>
      </trkpt>
      <trkpt lat="46.98967" lon="6.55986">
        <ele>1029.7</ele>
        <time>2021-08-13T09:56:57Z</time>
      </trkpt>
      <trkpt lat="46.98967" lon="6.55986">
        <ele>1029.7</ele>
        <time>2021-08-13T09:56:59Z</time>
      </trkpt>
      <trkpt lat="46.98967" lon="6.55986">
        <ele>1029.7</ele>
        <time>2021-08-13T09:57:01Z</time>
      </trkpt>
      <trkpt lat="46.98967" lon="6.55986">
        <ele>1029.7</ele>
        <time>2021-08-13T09:57:03Z</time>
      </trkpt>
      <trkpt lat="46.98967" lon="6.55986">
        <ele>1029.7</ele>
        <time>2021-08-13T09:57:04Z</time>
      </trkpt>
      <trkpt lat="46.98967" lon="6.55986">
        <ele>1029.7</ele>
        <time>2021-08-13T09:57:05Z</time>
      </trkpt>
      <trkpt lat="46.98967" lon="6.55986">
        <ele>1029.7</ele>
        <time>2021-08-13T09:57:06Z</time>
      </trkpt>
      <trkpt lat="46.98967" lon="6.55986">
        <ele>1029.7</ele>
        <time>2021-08-13T09:57:07Z</time>
      </trkpt>
      <trkpt lat="46.98967" lon="6.55986">
        <ele>1029.7</ele>
        <time>2021-08-13T09:57:09Z</time>
      </trkpt>
      <trkpt lat="46.98967" lon="6.55986">
        <ele>1029.7</ele>
        <time>2021-08-13T09:57:11Z</time>
      </trkpt>
      <trkpt lat="46.98967" lon="6.55986">
        <ele>1029.7</ele>
        <time>2021-08-13T09:57:13Z</time>
      </trkpt>
      <trkpt lat="46.98967" lon="6.55986">
        <ele>1029.7</ele>
        <time>2021-08-13T09:57:14Z</time>
      </trkpt>
      <trkpt lat="46.98963" lon="6.55989">
        <ele>1030.1</ele>
        <time>2021-08-13T09:57:16Z</time>
      </trkpt>
      <trkpt lat="46.9896" lon="6.55991">
        <ele>1030.4</ele>
        <time>2021-08-13T09:57:17Z</time>
      </trkpt>
      <trkpt lat="46.9896" lon="6.55991">
        <ele>1030.4</ele>
        <time>2021-08-13T09:57:18Z</time>
      </trkpt>
      <trkpt lat="46.98958" lon="6.55992">
        <ele>1030.6</ele>
        <time>2021-08-13T09:57:20Z</time>
      </trkpt>
      <trkpt lat="46.98958" lon="6.55993">
        <ele>1030.6</ele>
        <time>2021-08-13T09:57:22Z</time>
      </trkpt>
      <trkpt lat="46.98958" lon="6.55993">
        <ele>1030.6</ele>
        <time>2021-08-13T09:57:24Z</time>
      </trkpt>
      <trkpt lat="46.98958" lon="6.55993">
        <ele>1030.6</ele>
        <time>2021-08-13T09:57:26Z</time>
      </trkpt>
      <trkpt lat="46.98958" lon="6.55993">
        <ele>1030.6</ele>
        <time>2021-08-13T09:57:28Z</time>
      </trkpt>
      <trkpt lat="46.98958" lon="6.55993">
        <ele>1030.6</ele>
        <time>2021-08-13T09:57:30Z</time>
      </trkpt>
      <trkpt lat="46.98958" lon="6.55993">
        <ele>1030.6</ele>
        <time>2021-08-13T09:57:32Z</time>
      </trkpt>
      <trkpt lat="46.98958" lon="6.55993">
        <ele>1030.6</ele>
        <time>2021-08-13T09:57:34Z</time>
      </trkpt>
      <trkpt lat="46.98958" lon="6.55993">
        <ele>1030.6</ele>
        <time>2021-08-13T09:57:36Z</time>
      </trkpt>
      <trkpt lat="46.98958" lon="6.55993">
        <ele>1030.6</ele>
        <time>2021-08-13T09:57:37Z</time>
      </trkpt>
      <trkpt lat="46.98956" lon="6.55993">
        <ele>1030.8</ele>
        <time>2021-08-13T09:57:39Z</time>
      </trkpt>
      <trkpt lat="46.98954" lon="6.55993">
        <ele>1031</ele>
        <time>2021-08-13T09:57:40Z</time>
      </trkpt>
      <trkpt lat="46.98952" lon="6.55994">
        <ele>1031.1</ele>
        <time>2021-08-13T09:57:42Z</time>
      </trkpt>
      <trkpt lat="46.98952" lon="6.55994">
        <ele>1031.2</ele>
        <time>2021-08-13T09:57:43Z</time>
      </trkpt>
      <trkpt lat="46.98951" lon="6.55994">
        <ele>1031.3</ele>
        <time>2021-08-13T09:57:44Z</time>
      </trkpt>
      <trkpt lat="46.9895" lon="6.55995">
        <ele>1031.3</ele>
        <time>2021-08-13T09:57:45Z</time>
      </trkpt>
      <trkpt lat="46.9895" lon="6.55995">
        <ele>1031.4</ele>
        <time>2021-08-13T09:57:47Z</time>
      </trkpt>
      <trkpt lat="46.9895" lon="6.55996">
        <ele>1031.4</ele>
        <time>2021-08-13T09:57:48Z</time>
      </trkpt>
      <trkpt lat="46.9895" lon="6.55996">
        <ele>1031.5</ele>
        <time>2021-08-13T09:57:49Z</time>
      </trkpt>
      <trkpt lat="46.9895" lon="6.55996">
        <ele>1031.5</ele>
        <time>2021-08-13T09:57:51Z</time>
      </trkpt>
      <trkpt lat="46.9895" lon="6.55997">
        <ele>1031.5</ele>
        <time>2021-08-13T09:57:52Z</time>
      </trkpt>
      <trkpt lat="46.98949" lon="6.55998">
        <ele>1031.6</ele>
        <time>2021-08-13T09:57:53Z</time>
      </trkpt>
      <trkpt lat="46.98948" lon="6.56">
        <ele>1031.8</ele>
        <time>2021-08-13T09:57:54Z</time>
      </trkpt>
      <trkpt lat="46.98947" lon="6.56001">
        <ele>1031.9</ele>
        <time>2021-08-13T09:57:56Z</time>
      </trkpt>
      <trkpt lat="46.98946" lon="6.56003">
        <ele>1032.1</ele>
        <time>2021-08-13T09:57:57Z</time>
      </trkpt>
      <trkpt lat="46.98945" lon="6.56004">
        <ele>1032.2</ele>
        <time>2021-08-13T09:57:58Z</time>
      </trkpt>
      <trkpt lat="46.98944" lon="6.56005">
        <ele>1032.3</ele>
        <time>2021-08-13T09:58:00Z</time>
      </trkpt>
      <trkpt lat="46.98944" lon="6.56006">
        <ele>1032.3</ele>
        <time>2021-08-13T09:58:01Z</time>
      </trkpt>
      <trkpt lat="46.98943" lon="6.56006">
        <ele>1032.4</ele>
        <time>2021-08-13T09:58:02Z</time>
      </trkpt>
      <trkpt lat="46.98943" lon="6.56007">
        <ele>1032.5</ele>
        <time>2021-08-13T09:58:04Z</time>
      </trkpt>
      <trkpt lat="46.98942" lon="6.56008">
        <ele>1032.5</ele>
        <time>2021-08-13T09:58:05Z</time>
      </trkpt>
      <trkpt lat="46.98942" lon="6.56009">
        <ele>1032.6</ele>
        <time>2021-08-13T09:58:06Z</time>
      </trkpt>
      <trkpt lat="46.98941" lon="6.56009">
        <ele>1032.6</ele>
        <time>2021-08-13T09:58:08Z</time>
      </trkpt>
      <trkpt lat="46.98941" lon="6.5601">
        <ele>1032.7</ele>
        <time>2021-08-13T09:58:09Z</time>
      </trkpt>
      <trkpt lat="46.98941" lon="6.5601">
        <ele>1032.8</ele>
        <time>2021-08-13T09:58:10Z</time>
      </trkpt>
      <trkpt lat="46.9894" lon="6.56011">
        <ele>1032.8</ele>
        <time>2021-08-13T09:58:12Z</time>
      </trkpt>
      <trkpt lat="46.9894" lon="6.56012">
        <ele>1032.9</ele>
        <time>2021-08-13T09:58:13Z</time>
      </trkpt>
      <trkpt lat="46.98938" lon="6.56014">
        <ele>1033.1</ele>
        <time>2021-08-13T09:58:14Z</time>
      </trkpt>
      <trkpt lat="46.98937" lon="6.56016">
        <ele>1033.3</ele>
        <time>2021-08-13T09:58:16Z</time>
      </trkpt>
      <trkpt lat="46.98936" lon="6.56017">
        <ele>1033.4</ele>
        <time>2021-08-13T09:58:17Z</time>
      </trkpt>
      <trkpt lat="46.98935" lon="6.56018">
        <ele>1033.5</ele>
        <time>2021-08-13T09:58:19Z</time>
      </trkpt>
      <trkpt lat="46.98935" lon="6.56018">
        <ele>1033.5</ele>
        <time>2021-08-13T09:58:20Z</time>
      </trkpt>
      <trkpt lat="46.98934" lon="6.5602">
        <ele>1033.6</ele>
        <time>2021-08-13T09:58:21Z</time>
      </trkpt>
      <trkpt lat="46.98934" lon="6.5602">
        <ele>1033.7</ele>
        <time>2021-08-13T09:58:23Z</time>
      </trkpt>
      <trkpt lat="46.98933" lon="6.56021">
        <ele>1033.8</ele>
        <time>2021-08-13T09:58:24Z</time>
      </trkpt>
      <trkpt lat="46.98933" lon="6.56021">
        <ele>1033.8</ele>
        <time>2021-08-13T09:58:26Z</time>
      </trkpt>
      <trkpt lat="46.98932" lon="6.56022">
        <ele>1033.9</ele>
        <time>2021-08-13T09:58:27Z</time>
      </trkpt>
      <trkpt lat="46.9893" lon="6.56026">
        <ele>1034.2</ele>
        <time>2021-08-13T09:58:29Z</time>
      </trkpt>
      <trkpt lat="46.98929" lon="6.56027">
        <ele>1034.4</ele>
        <time>2021-08-13T09:58:30Z</time>
      </trkpt>
      <trkpt lat="46.98928" lon="6.56029">
        <ele>1034.6</ele>
        <time>2021-08-13T09:58:32Z</time>
      </trkpt>
      <trkpt lat="46.98927" lon="6.56031">
        <ele>1034.7</ele>
        <time>2021-08-13T09:58:33Z</time>
      </trkpt>
      <trkpt lat="46.98925" lon="6.56033">
        <ele>1034.9</ele>
        <time>2021-08-13T09:58:34Z</time>
      </trkpt>
      <trkpt lat="46.98922" lon="6.56035">
        <ele>1035.3</ele>
        <time>2021-08-13T09:58:36Z</time>
      </trkpt>
      <trkpt lat="46.9892" lon="6.56037">
        <ele>1035.5</ele>
        <time>2021-08-13T09:58:37Z</time>
      </trkpt>
      <trkpt lat="46.98919" lon="6.56038">
        <ele>1035.7</ele>
        <time>2021-08-13T09:58:39Z</time>
      </trkpt>
      <trkpt lat="46.98918" lon="6.56039">
        <ele>1035.8</ele>
        <time>2021-08-13T09:58:40Z</time>
      </trkpt>
      <trkpt lat="46.98918" lon="6.5604">
        <ele>1035.8</ele>
        <time>2021-08-13T09:58:41Z</time>
      </trkpt>
      <trkpt lat="46.98917" lon="6.5604">
        <ele>1035.9</ele>
        <time>2021-08-13T09:58:42Z</time>
      </trkpt>
      <trkpt lat="46.98917" lon="6.5604">
        <ele>1035.9</ele>
        <time>2021-08-13T09:58:44Z</time>
      </trkpt>
      <trkpt lat="46.98917" lon="6.5604">
        <ele>1036</ele>
        <time>2021-08-13T09:58:45Z</time>
      </trkpt>
      <trkpt lat="46.98917" lon="6.5604">
        <ele>1036</ele>
        <time>2021-08-13T09:58:46Z</time>
      </trkpt>
      <trkpt lat="46.98917" lon="6.56041">
        <ele>1036</ele>
        <time>2021-08-13T09:58:48Z</time>
      </trkpt>
      <trkpt lat="46.98917" lon="6.5604">
        <ele>1036</ele>
        <time>2021-08-13T09:58:49Z</time>
      </trkpt>
      <trkpt lat="46.98917" lon="6.5604">
        <ele>1036</ele>
        <time>2021-08-13T09:58:50Z</time>
      </trkpt>
      <trkpt lat="46.98917" lon="6.5604">
        <ele>1036</ele>
        <time>2021-08-13T09:58:52Z</time>
      </trkpt>
      <trkpt lat="46.98917" lon="6.56041">
        <ele>1036.1</ele>
        <time>2021-08-13T09:58:55Z</time>
      </trkpt>
      <trkpt lat="46.98917" lon="6.56043">
        <ele>1036.2</ele>
        <time>2021-08-13T09:58:56Z</time>
      </trkpt>
      <trkpt lat="46.98917" lon="6.56046">
        <ele>1036.4</ele>
        <time>2021-08-13T09:58:58Z</time>
      </trkpt>
      <trkpt lat="46.98918" lon="6.5605">
        <ele>1036.8</ele>
        <time>2021-08-13T09:59:01Z</time>
      </trkpt>
      <trkpt lat="46.98918" lon="6.56051">
        <ele>1036.8</ele>
        <time>2021-08-13T09:59:02Z</time>
      </trkpt>
      <trkpt lat="46.98919" lon="6.56053">
        <ele>1037.1</ele>
        <time>2021-08-13T09:59:04Z</time>
      </trkpt>
      <trkpt lat="46.9892" lon="6.56055">
        <ele>1037.2</ele>
        <time>2021-08-13T09:59:06Z</time>
      </trkpt>
      <trkpt lat="46.9892" lon="6.56055">
        <ele>1037.3</ele>
        <time>2021-08-13T09:59:07Z</time>
      </trkpt>
      <trkpt lat="46.9892" lon="6.56055">
        <ele>1037.3</ele>
        <time>2021-08-13T09:59:08Z</time>
      </trkpt>
      <trkpt lat="46.9892" lon="6.56055">
        <ele>1037.3</ele>
        <time>2021-08-13T09:59:09Z</time>
      </trkpt>
      <trkpt lat="46.9892" lon="6.56055">
        <ele>1037.3</ele>
        <time>2021-08-13T09:59:10Z</time>
      </trkpt>
      <trkpt lat="46.9892" lon="6.56055">
        <ele>1037.4</ele>
        <time>2021-08-13T09:59:11Z</time>
      </trkpt>
      <trkpt lat="46.98919" lon="6.56056">
        <ele>1037.4</ele>
        <time>2021-08-13T09:59:13Z</time>
      </trkpt>
      <trkpt lat="46.98919" lon="6.56056">
        <ele>1037.5</ele>
        <time>2021-08-13T09:59:14Z</time>
      </trkpt>
      <trkpt lat="46.98919" lon="6.56057">
        <ele>1037.6</ele>
        <time>2021-08-13T09:59:15Z</time>
      </trkpt>
      <trkpt lat="46.98918" lon="6.56059">
        <ele>1037.7</ele>
        <time>2021-08-13T09:59:16Z</time>
      </trkpt>
      <trkpt lat="46.98918" lon="6.5606">
        <ele>1037.9</ele>
        <time>2021-08-13T09:59:18Z</time>
      </trkpt>
      <trkpt lat="46.98918" lon="6.56062">
        <ele>1038</ele>
        <time>2021-08-13T09:59:20Z</time>
      </trkpt>
      <trkpt lat="46.98918" lon="6.56063">
        <ele>1038.1</ele>
        <time>2021-08-13T09:59:21Z</time>
      </trkpt>
      <trkpt lat="46.98918" lon="6.56064">
        <ele>1038.1</ele>
        <time>2021-08-13T09:59:22Z</time>
      </trkpt>
      <trkpt lat="46.98917" lon="6.56064">
        <ele>1038.2</ele>
        <time>2021-08-13T09:59:23Z</time>
      </trkpt>
      <trkpt lat="46.98917" lon="6.56065">
        <ele>1038.2</ele>
        <time>2021-08-13T09:59:25Z</time>
      </trkpt>
      <trkpt lat="46.98917" lon="6.56065">
        <ele>1038.2</ele>
        <time>2021-08-13T09:59:26Z</time>
      </trkpt>
      <trkpt lat="46.98917" lon="6.56065">
        <ele>1038.3</ele>
        <time>2021-08-13T09:59:28Z</time>
      </trkpt>
      <trkpt lat="46.98917" lon="6.56065">
        <ele>1038.3</ele>
        <time>2021-08-13T09:59:29Z</time>
      </trkpt>
      <trkpt lat="46.98917" lon="6.56066">
        <ele>1038.3</ele>
        <time>2021-08-13T09:59:30Z</time>
      </trkpt>
      <trkpt lat="46.98917" lon="6.56066">
        <ele>1038.3</ele>
        <time>2021-08-13T09:59:31Z</time>
      </trkpt>
      <trkpt lat="46.98915" lon="6.56066">
        <ele>1038.5</ele>
        <time>2021-08-13T09:59:33Z</time>
      </trkpt>
      <trkpt lat="46.98912" lon="6.56069">
        <ele>1039</ele>
        <time>2021-08-13T09:59:35Z</time>
      </trkpt>
      <trkpt lat="46.98909" lon="6.56069">
        <ele>1039.2</ele>
        <time>2021-08-13T09:59:36Z</time>
      </trkpt>
      <trkpt lat="46.98904" lon="6.5607">
        <ele>1039.8</ele>
        <time>2021-08-13T09:59:38Z</time>
      </trkpt>
      <trkpt lat="46.98898" lon="6.56073">
        <ele>1040.4</ele>
        <time>2021-08-13T09:59:40Z</time>
      </trkpt>
      <trkpt lat="46.98895" lon="6.56074">
        <ele>1040.8</ele>
        <time>2021-08-13T09:59:41Z</time>
      </trkpt>
      <trkpt lat="46.98894" lon="6.56074">
        <ele>1040.9</ele>
        <time>2021-08-13T09:59:42Z</time>
      </trkpt>
      <trkpt lat="46.9889" lon="6.56074">
        <ele>1041.2</ele>
        <time>2021-08-13T09:59:43Z</time>
      </trkpt>
      <trkpt lat="46.98887" lon="6.56076">
        <ele>1041.5</ele>
        <time>2021-08-13T09:59:44Z</time>
      </trkpt>
      <trkpt lat="46.98886" lon="6.56076">
        <ele>1041.6</ele>
        <time>2021-08-13T09:59:45Z</time>
      </trkpt>
      <trkpt lat="46.98884" lon="6.5608">
        <ele>1041.9</ele>
        <time>2021-08-13T09:59:47Z</time>
      </trkpt>
      <trkpt lat="46.98884" lon="6.56081">
        <ele>1041.9</ele>
        <time>2021-08-13T09:59:48Z</time>
      </trkpt>
      <trkpt lat="46.98884" lon="6.56082">
        <ele>1042</ele>
        <time>2021-08-13T09:59:49Z</time>
      </trkpt>
      <trkpt lat="46.98885" lon="6.56083">
        <ele>1042.1</ele>
        <time>2021-08-13T09:59:50Z</time>
      </trkpt>
      <trkpt lat="46.98885" lon="6.56084">
        <ele>1042.2</ele>
        <time>2021-08-13T09:59:52Z</time>
      </trkpt>
      <trkpt lat="46.98885" lon="6.56085">
        <ele>1042.3</ele>
        <time>2021-08-13T09:59:53Z</time>
      </trkpt>
      <trkpt lat="46.98885" lon="6.56088">
        <ele>1042.4</ele>
        <time>2021-08-13T09:59:54Z</time>
      </trkpt>
      <trkpt lat="46.98885" lon="6.56096">
        <ele>1042.9</ele>
        <time>2021-08-13T09:59:56Z</time>
      </trkpt>
      <trkpt lat="46.98885" lon="6.561">
        <ele>1043.2</ele>
        <time>2021-08-13T09:59:58Z</time>
      </trkpt>
      <trkpt lat="46.98884" lon="6.56102">
        <ele>1043.3</ele>
        <time>2021-08-13T09:59:59Z</time>
      </trkpt>
      <trkpt lat="46.98884" lon="6.56105">
        <ele>1043.4</ele>
        <time>2021-08-13T10:00:00Z</time>
      </trkpt>
      <trkpt lat="46.98883" lon="6.56107">
        <ele>1043.6</ele>
        <time>2021-08-13T10:00:01Z</time>
      </trkpt>
      <trkpt lat="46.98883" lon="6.56108">
        <ele>1043.7</ele>
        <time>2021-08-13T10:00:02Z</time>
      </trkpt>
      <trkpt lat="46.98882" lon="6.56108">
        <ele>1043.7</ele>
        <time>2021-08-13T10:00:03Z</time>
      </trkpt>
      <trkpt lat="46.9888" lon="6.5611">
        <ele>1043.9</ele>
        <time>2021-08-13T10:00:04Z</time>
      </trkpt>
      <trkpt lat="46.98876" lon="6.56113">
        <ele>1044.3</ele>
        <time>2021-08-13T10:00:06Z</time>
      </trkpt>
      <trkpt lat="46.98873" lon="6.56116">
        <ele>1044.6</ele>
        <time>2021-08-13T10:00:07Z</time>
      </trkpt>
      <trkpt lat="46.98869" lon="6.5612">
        <ele>1045</ele>
        <time>2021-08-13T10:00:09Z</time>
      </trkpt>
      <trkpt lat="46.98868" lon="6.56121">
        <ele>1045.2</ele>
        <time>2021-08-13T10:00:10Z</time>
      </trkpt>
      <trkpt lat="46.98866" lon="6.56122">
        <ele>1045.3</ele>
        <time>2021-08-13T10:00:11Z</time>
      </trkpt>
      <trkpt lat="46.98864" lon="6.56126">
        <ele>1045.6</ele>
        <time>2021-08-13T10:00:13Z</time>
      </trkpt>
      <trkpt lat="46.98862" lon="6.56129">
        <ele>1045.8</ele>
        <time>2021-08-13T10:00:14Z</time>
      </trkpt>
      <trkpt lat="46.9886" lon="6.56132">
        <ele>1046</ele>
        <time>2021-08-13T10:00:15Z</time>
      </trkpt>
      <trkpt lat="46.98859" lon="6.56133">
        <ele>1046.1</ele>
        <time>2021-08-13T10:00:17Z</time>
      </trkpt>
      <trkpt lat="46.98859" lon="6.56133">
        <ele>1046.1</ele>
        <time>2021-08-13T10:00:18Z</time>
      </trkpt>
      <trkpt lat="46.98858" lon="6.56134">
        <ele>1046.2</ele>
        <time>2021-08-13T10:00:19Z</time>
      </trkpt>
      <trkpt lat="46.98856" lon="6.56136">
        <ele>1046.4</ele>
        <time>2021-08-13T10:00:20Z</time>
      </trkpt>
      <trkpt lat="46.98853" lon="6.56139">
        <ele>1046.7</ele>
        <time>2021-08-13T10:00:22Z</time>
      </trkpt>
      <trkpt lat="46.98852" lon="6.56142">
        <ele>1046.8</ele>
        <time>2021-08-13T10:00:23Z</time>
      </trkpt>
      <trkpt lat="46.98849" lon="6.56149">
        <ele>1047.3</ele>
        <time>2021-08-13T10:00:25Z</time>
      </trkpt>
      <trkpt lat="46.98847" lon="6.56154">
        <ele>1047.6</ele>
        <time>2021-08-13T10:00:26Z</time>
      </trkpt>
      <trkpt lat="46.98846" lon="6.56156">
        <ele>1047.7</ele>
        <time>2021-08-13T10:00:27Z</time>
      </trkpt>
      <trkpt lat="46.98845" lon="6.5616">
        <ele>1048</ele>
        <time>2021-08-13T10:00:28Z</time>
      </trkpt>
      <trkpt lat="46.98845" lon="6.56161">
        <ele>1048</ele>
        <time>2021-08-13T10:00:29Z</time>
      </trkpt>
      <trkpt lat="46.98844" lon="6.56164">
        <ele>1048.2</ele>
        <time>2021-08-13T10:00:30Z</time>
      </trkpt>
      <trkpt lat="46.98844" lon="6.56166">
        <ele>1048.3</ele>
        <time>2021-08-13T10:00:31Z</time>
      </trkpt>
      <trkpt lat="46.98843" lon="6.56167">
        <ele>1048.4</ele>
        <time>2021-08-13T10:00:33Z</time>
      </trkpt>
      <trkpt lat="46.98843" lon="6.56167">
        <ele>1048.4</ele>
        <time>2021-08-13T10:00:34Z</time>
      </trkpt>
      <trkpt lat="46.98843" lon="6.56167">
        <ele>1048.4</ele>
        <time>2021-08-13T10:00:35Z</time>
      </trkpt>
      <trkpt lat="46.98843" lon="6.56168">
        <ele>1048.4</ele>
        <time>2021-08-13T10:00:36Z</time>
      </trkpt>
      <trkpt lat="46.98843" lon="6.56168">
        <ele>1048.4</ele>
        <time>2021-08-13T10:00:37Z</time>
      </trkpt>
      <trkpt lat="46.98842" lon="6.56168">
        <ele>1048.4</ele>
        <time>2021-08-13T10:00:38Z</time>
      </trkpt>
      <trkpt lat="46.98842" lon="6.56169">
        <ele>1048.5</ele>
        <time>2021-08-13T10:00:39Z</time>
      </trkpt>
      <trkpt lat="46.98841" lon="6.56171">
        <ele>1048.6</ele>
        <time>2021-08-13T10:00:40Z</time>
      </trkpt>
      <trkpt lat="46.9884" lon="6.56173">
        <ele>1048.7</ele>
        <time>2021-08-13T10:00:42Z</time>
      </trkpt>
      <trkpt lat="46.98839" lon="6.56183">
        <ele>1049.1</ele>
        <time>2021-08-13T10:00:48Z</time>
      </trkpt>
      <trkpt lat="46.9884" lon="6.56186">
        <ele>1049.2</ele>
        <time>2021-08-13T10:00:50Z</time>
      </trkpt>
      <trkpt lat="46.98841" lon="6.5619">
        <ele>1049.3</ele>
        <time>2021-08-13T10:00:51Z</time>
      </trkpt>
      <trkpt lat="46.98842" lon="6.56194">
        <ele>1049.5</ele>
        <time>2021-08-13T10:00:53Z</time>
      </trkpt>
      <trkpt lat="46.98842" lon="6.56196">
        <ele>1049.5</ele>
        <time>2021-08-13T10:00:54Z</time>
      </trkpt>
      <trkpt lat="46.98841" lon="6.56199">
        <ele>1049.6</ele>
        <time>2021-08-13T10:00:55Z</time>
      </trkpt>
      <trkpt lat="46.9884" lon="6.56202">
        <ele>1049.7</ele>
        <time>2021-08-13T10:00:57Z</time>
      </trkpt>
      <trkpt lat="46.98837" lon="6.56204">
        <ele>1049.8</ele>
        <time>2021-08-13T10:00:58Z</time>
      </trkpt>
      <trkpt lat="46.98836" lon="6.56205">
        <ele>1049.8</ele>
        <time>2021-08-13T10:00:59Z</time>
      </trkpt>
      <trkpt lat="46.98835" lon="6.56205">
        <ele>1049.9</ele>
        <time>2021-08-13T10:01:00Z</time>
      </trkpt>
      <trkpt lat="46.98832" lon="6.56207">
        <ele>1049.9</ele>
        <time>2021-08-13T10:01:02Z</time>
      </trkpt>
      <trkpt lat="46.98829" lon="6.56209">
        <ele>1050</ele>
        <time>2021-08-13T10:01:04Z</time>
      </trkpt>
      <trkpt lat="46.98824" lon="6.56214">
        <ele>1050.2</ele>
        <time>2021-08-13T10:01:06Z</time>
      </trkpt>
      <trkpt lat="46.98818" lon="6.56217">
        <ele>1050.3</ele>
        <time>2021-08-13T10:01:08Z</time>
      </trkpt>
      <trkpt lat="46.98815" lon="6.56219">
        <ele>1050.3</ele>
        <time>2021-08-13T10:01:09Z</time>
      </trkpt>
      <trkpt lat="46.98811" lon="6.56221">
        <ele>1050.4</ele>
        <time>2021-08-13T10:01:10Z</time>
      </trkpt>
      <trkpt lat="46.98807" lon="6.56224">
        <ele>1050.4</ele>
        <time>2021-08-13T10:01:11Z</time>
      </trkpt>
      <trkpt lat="46.98806" lon="6.56225">
        <ele>1050.5</ele>
        <time>2021-08-13T10:01:12Z</time>
      </trkpt>
      <trkpt lat="46.98803" lon="6.56228">
        <ele>1050.5</ele>
        <time>2021-08-13T10:01:14Z</time>
      </trkpt>
      <trkpt lat="46.98802" lon="6.56228">
        <ele>1050.5</ele>
        <time>2021-08-13T10:01:15Z</time>
      </trkpt>
      <trkpt lat="46.98799" lon="6.5623">
        <ele>1050.6</ele>
        <time>2021-08-13T10:01:16Z</time>
      </trkpt>
      <trkpt lat="46.98798" lon="6.56232">
        <ele>1050.6</ele>
        <time>2021-08-13T10:01:17Z</time>
      </trkpt>
      <trkpt lat="46.98793" lon="6.56236">
        <ele>1050.6</ele>
        <time>2021-08-13T10:01:19Z</time>
      </trkpt>
      <trkpt lat="46.9879" lon="6.56238">
        <ele>1050.6</ele>
        <time>2021-08-13T10:01:20Z</time>
      </trkpt>
      <trkpt lat="46.98787" lon="6.5624">
        <ele>1050.6</ele>
        <time>2021-08-13T10:01:21Z</time>
      </trkpt>
      <trkpt lat="46.98781" lon="6.56245">
        <ele>1050.6</ele>
        <time>2021-08-13T10:01:23Z</time>
      </trkpt>
      <trkpt lat="46.98778" lon="6.56249">
        <ele>1050.6</ele>
        <time>2021-08-13T10:01:24Z</time>
      </trkpt>
      <trkpt lat="46.98773" lon="6.56256">
        <ele>1050.5</ele>
        <time>2021-08-13T10:01:26Z</time>
      </trkpt>
      <trkpt lat="46.98769" lon="6.5626">
        <ele>1050.5</ele>
        <time>2021-08-13T10:01:27Z</time>
      </trkpt>
      <trkpt lat="46.98765" lon="6.56265">
        <ele>1050.5</ele>
        <time>2021-08-13T10:01:28Z</time>
      </trkpt>
      <trkpt lat="46.98759" lon="6.5627">
        <ele>1050.4</ele>
        <time>2021-08-13T10:01:30Z</time>
      </trkpt>
      <trkpt lat="46.98752" lon="6.56275">
        <ele>1050.5</ele>
        <time>2021-08-13T10:01:31Z</time>
      </trkpt>
      <trkpt lat="46.98747" lon="6.5628">
        <ele>1050.5</ele>
        <time>2021-08-13T10:01:33Z</time>
      </trkpt>
      <trkpt lat="46.98744" lon="6.56284">
        <ele>1050.6</ele>
        <time>2021-08-13T10:01:34Z</time>
      </trkpt>
      <trkpt lat="46.98736" lon="6.56289">
        <ele>1050.7</ele>
        <time>2021-08-13T10:01:36Z</time>
      </trkpt>
      <trkpt lat="46.98732" lon="6.56291">
        <ele>1050.9</ele>
        <time>2021-08-13T10:01:37Z</time>
      </trkpt>
      <trkpt lat="46.98728" lon="6.56293">
        <ele>1051</ele>
        <time>2021-08-13T10:01:38Z</time>
      </trkpt>
      <trkpt lat="46.98724" lon="6.56296">
        <ele>1051.2</ele>
        <time>2021-08-13T10:01:40Z</time>
      </trkpt>
      <trkpt lat="46.98719" lon="6.56298">
        <ele>1051.4</ele>
        <time>2021-08-13T10:01:41Z</time>
      </trkpt>
      <trkpt lat="46.98717" lon="6.563">
        <ele>1051.6</ele>
        <time>2021-08-13T10:01:42Z</time>
      </trkpt>
      <trkpt lat="46.98714" lon="6.56303">
        <ele>1051.7</ele>
        <time>2021-08-13T10:01:43Z</time>
      </trkpt>
      <trkpt lat="46.98711" lon="6.56307">
        <ele>1051.9</ele>
        <time>2021-08-13T10:01:45Z</time>
      </trkpt>
      <trkpt lat="46.98709" lon="6.5631">
        <ele>1052.1</ele>
        <time>2021-08-13T10:01:46Z</time>
      </trkpt>
      <trkpt lat="46.98705" lon="6.56314">
        <ele>1052.4</ele>
        <time>2021-08-13T10:01:48Z</time>
      </trkpt>
      <trkpt lat="46.98702" lon="6.56315">
        <ele>1052.6</ele>
        <time>2021-08-13T10:01:50Z</time>
      </trkpt>
      <trkpt lat="46.98699" lon="6.5632">
        <ele>1052.8</ele>
        <time>2021-08-13T10:01:52Z</time>
      </trkpt>
      <trkpt lat="46.98696" lon="6.56328">
        <ele>1053.2</ele>
        <time>2021-08-13T10:01:53Z</time>
      </trkpt>
      <trkpt lat="46.98694" lon="6.56333">
        <ele>1053.4</ele>
        <time>2021-08-13T10:01:55Z</time>
      </trkpt>
      <trkpt lat="46.98692" lon="6.56338">
        <ele>1053.7</ele>
        <time>2021-08-13T10:01:56Z</time>
      </trkpt>
      <trkpt lat="46.98692" lon="6.56341">
        <ele>1053.8</ele>
        <time>2021-08-13T10:01:57Z</time>
      </trkpt>
      <trkpt lat="46.98691" lon="6.56345">
        <ele>1053.9</ele>
        <time>2021-08-13T10:01:58Z</time>
      </trkpt>
      <trkpt lat="46.9869" lon="6.56348">
        <ele>1054.1</ele>
        <time>2021-08-13T10:02:00Z</time>
      </trkpt>
      <trkpt lat="46.98688" lon="6.56352">
        <ele>1054.3</ele>
        <time>2021-08-13T10:02:02Z</time>
      </trkpt>
      <trkpt lat="46.98688" lon="6.56354">
        <ele>1054.4</ele>
        <time>2021-08-13T10:02:03Z</time>
      </trkpt>
      <trkpt lat="46.98687" lon="6.56359">
        <ele>1054.6</ele>
        <time>2021-08-13T10:02:05Z</time>
      </trkpt>
      <trkpt lat="46.98685" lon="6.56361">
        <ele>1054.7</ele>
        <time>2021-08-13T10:02:06Z</time>
      </trkpt>
      <trkpt lat="46.98683" lon="6.56364">
        <ele>1054.9</ele>
        <time>2021-08-13T10:02:08Z</time>
      </trkpt>
      <trkpt lat="46.98683" lon="6.56367">
        <ele>1055.1</ele>
        <time>2021-08-13T10:02:09Z</time>
      </trkpt>
      <trkpt lat="46.98684" lon="6.56372">
        <ele>1055.3</ele>
        <time>2021-08-13T10:02:11Z</time>
      </trkpt>
      <trkpt lat="46.98683" lon="6.56375">
        <ele>1055.4</ele>
        <time>2021-08-13T10:02:12Z</time>
      </trkpt>
      <trkpt lat="46.98682" lon="6.56377">
        <ele>1055.5</ele>
        <time>2021-08-13T10:02:14Z</time>
      </trkpt>
      <trkpt lat="46.98681" lon="6.56378">
        <ele>1055.6</ele>
        <time>2021-08-13T10:02:15Z</time>
      </trkpt>
      <trkpt lat="46.9868" lon="6.5638">
        <ele>1055.7</ele>
        <time>2021-08-13T10:02:16Z</time>
      </trkpt>
      <trkpt lat="46.98679" lon="6.56381">
        <ele>1055.8</ele>
        <time>2021-08-13T10:02:17Z</time>
      </trkpt>
      <trkpt lat="46.98678" lon="6.56383">
        <ele>1055.9</ele>
        <time>2021-08-13T10:02:19Z</time>
      </trkpt>
      <trkpt lat="46.98677" lon="6.56385">
        <ele>1056</ele>
        <time>2021-08-13T10:02:20Z</time>
      </trkpt>
      <trkpt lat="46.98676" lon="6.56386">
        <ele>1056.1</ele>
        <time>2021-08-13T10:02:21Z</time>
      </trkpt>
      <trkpt lat="46.98674" lon="6.56392">
        <ele>1056.3</ele>
        <time>2021-08-13T10:02:23Z</time>
      </trkpt>
      <trkpt lat="46.98669" lon="6.56395">
        <ele>1056.5</ele>
        <time>2021-08-13T10:02:24Z</time>
      </trkpt>
      <trkpt lat="46.98666" lon="6.56397">
        <ele>1056.7</ele>
        <time>2021-08-13T10:02:25Z</time>
      </trkpt>
      <trkpt lat="46.98662" lon="6.56399">
        <ele>1056.9</ele>
        <time>2021-08-13T10:02:26Z</time>
      </trkpt>
      <trkpt lat="46.98657" lon="6.56401">
        <ele>1057.1</ele>
        <time>2021-08-13T10:02:27Z</time>
      </trkpt>
      <trkpt lat="46.98651" lon="6.56403">
        <ele>1057.3</ele>
        <time>2021-08-13T10:02:29Z</time>
      </trkpt>
      <trkpt lat="46.98648" lon="6.56404">
        <ele>1057.4</ele>
        <time>2021-08-13T10:02:30Z</time>
      </trkpt>
      <trkpt lat="46.98645" lon="6.56407">
        <ele>1057.5</ele>
        <time>2021-08-13T10:02:31Z</time>
      </trkpt>
      <trkpt lat="46.98642" lon="6.56412">
        <ele>1057.6</ele>
        <time>2021-08-13T10:02:33Z</time>
      </trkpt>
      <trkpt lat="46.9864" lon="6.56414">
        <ele>1057.6</ele>
        <time>2021-08-13T10:02:34Z</time>
      </trkpt>
      <trkpt lat="46.98639" lon="6.56416">
        <ele>1057.6</ele>
        <time>2021-08-13T10:02:35Z</time>
      </trkpt>
      <trkpt lat="46.98637" lon="6.56419">
        <ele>1057.7</ele>
        <time>2021-08-13T10:02:36Z</time>
      </trkpt>
      <trkpt lat="46.98634" lon="6.56421">
        <ele>1057.7</ele>
        <time>2021-08-13T10:02:38Z</time>
      </trkpt>
      <trkpt lat="46.98633" lon="6.56422">
        <ele>1057.7</ele>
        <time>2021-08-13T10:02:39Z</time>
      </trkpt>
      <trkpt lat="46.98631" lon="6.56425">
        <ele>1057.7</ele>
        <time>2021-08-13T10:02:40Z</time>
      </trkpt>
      <trkpt lat="46.9863" lon="6.5643">
        <ele>1057.8</ele>
        <time>2021-08-13T10:02:42Z</time>
      </trkpt>
      <trkpt lat="46.98628" lon="6.56434">
        <ele>1057.9</ele>
        <time>2021-08-13T10:02:43Z</time>
      </trkpt>
      <trkpt lat="46.98627" lon="6.56441">
        <ele>1057.9</ele>
        <time>2021-08-13T10:02:44Z</time>
      </trkpt>
      <trkpt lat="46.98625" lon="6.56446">
        <ele>1058</ele>
        <time>2021-08-13T10:02:46Z</time>
      </trkpt>
      <trkpt lat="46.98624" lon="6.5645">
        <ele>1058.1</ele>
        <time>2021-08-13T10:02:47Z</time>
      </trkpt>
      <trkpt lat="46.98624" lon="6.56454">
        <ele>1058.1</ele>
        <time>2021-08-13T10:02:48Z</time>
      </trkpt>
      <trkpt lat="46.98624" lon="6.5646">
        <ele>1058.2</ele>
        <time>2021-08-13T10:02:50Z</time>
      </trkpt>
      <trkpt lat="46.98623" lon="6.56466">
        <ele>1058.2</ele>
        <time>2021-08-13T10:02:51Z</time>
      </trkpt>
      <trkpt lat="46.98623" lon="6.56468">
        <ele>1058.2</ele>
        <time>2021-08-13T10:02:52Z</time>
      </trkpt>
      <trkpt lat="46.98622" lon="6.56473">
        <ele>1058.3</ele>
        <time>2021-08-13T10:02:53Z</time>
      </trkpt>
      <trkpt lat="46.98622" lon="6.56481">
        <ele>1058.3</ele>
        <time>2021-08-13T10:02:55Z</time>
      </trkpt>
      <trkpt lat="46.98622" lon="6.56486">
        <ele>1058.3</ele>
        <time>2021-08-13T10:02:56Z</time>
      </trkpt>
      <trkpt lat="46.9862" lon="6.56498">
        <ele>1058.2</ele>
        <time>2021-08-13T10:02:58Z</time>
      </trkpt>
      <trkpt lat="46.98619" lon="6.56503">
        <ele>1058.2</ele>
        <time>2021-08-13T10:02:59Z</time>
      </trkpt>
      <trkpt lat="46.98617" lon="6.56514">
        <ele>1058.1</ele>
        <time>2021-08-13T10:03:01Z</time>
      </trkpt>
      <trkpt lat="46.98616" lon="6.56518">
        <ele>1058.1</ele>
        <time>2021-08-13T10:03:02Z</time>
      </trkpt>
      <trkpt lat="46.98614" lon="6.56528">
        <ele>1058</ele>
        <time>2021-08-13T10:03:03Z</time>
      </trkpt>
      <trkpt lat="46.98613" lon="6.56536">
        <ele>1057.9</ele>
        <time>2021-08-13T10:03:05Z</time>
      </trkpt>
      <trkpt lat="46.98612" lon="6.56552">
        <ele>1057.7</ele>
        <time>2021-08-13T10:03:07Z</time>
      </trkpt>
      <trkpt lat="46.98608" lon="6.56565">
        <ele>1057.5</ele>
        <time>2021-08-13T10:03:09Z</time>
      </trkpt>
      <trkpt lat="46.98606" lon="6.56571">
        <ele>1057.5</ele>
        <time>2021-08-13T10:03:10Z</time>
      </trkpt>
      <trkpt lat="46.98603" lon="6.56577">
        <ele>1057.4</ele>
        <time>2021-08-13T10:03:11Z</time>
      </trkpt>
      <trkpt lat="46.98597" lon="6.5659">
        <ele>1057.3</ele>
        <time>2021-08-13T10:03:13Z</time>
      </trkpt>
      <trkpt lat="46.98594" lon="6.56595">
        <ele>1057.3</ele>
        <time>2021-08-13T10:03:14Z</time>
      </trkpt>
      <trkpt lat="46.98591" lon="6.56601">
        <ele>1057.2</ele>
        <time>2021-08-13T10:03:15Z</time>
      </trkpt>
      <trkpt lat="46.98585" lon="6.56602">
        <ele>1057.2</ele>
        <time>2021-08-13T10:03:16Z</time>
      </trkpt>
      <trkpt lat="46.98573" lon="6.56607">
        <ele>1057.1</ele>
        <time>2021-08-13T10:03:18Z</time>
      </trkpt>
      <trkpt lat="46.9856" lon="6.56611">
        <ele>1057.2</ele>
        <time>2021-08-13T10:03:20Z</time>
      </trkpt>
      <trkpt lat="46.98547" lon="6.56613">
        <ele>1057.4</ele>
        <time>2021-08-13T10:03:22Z</time>
      </trkpt>
      <trkpt lat="46.9854" lon="6.56614">
        <ele>1057.6</ele>
        <time>2021-08-13T10:03:23Z</time>
      </trkpt>
      <trkpt lat="46.98533" lon="6.56615">
        <ele>1057.8</ele>
        <time>2021-08-13T10:03:24Z</time>
      </trkpt>
      <trkpt lat="46.98527" lon="6.56615">
        <ele>1058.1</ele>
        <time>2021-08-13T10:03:25Z</time>
      </trkpt>
      <trkpt lat="46.98522" lon="6.56615">
        <ele>1058.3</ele>
        <time>2021-08-13T10:03:26Z</time>
      </trkpt>
      <trkpt lat="46.98516" lon="6.56613">
        <ele>1058.7</ele>
        <time>2021-08-13T10:03:28Z</time>
      </trkpt>
      <trkpt lat="46.98512" lon="6.56613">
        <ele>1059</ele>
        <time>2021-08-13T10:03:29Z</time>
      </trkpt>
      <trkpt lat="46.9851" lon="6.56612">
        <ele>1059.1</ele>
        <time>2021-08-13T10:03:30Z</time>
      </trkpt>
      <trkpt lat="46.98507" lon="6.56612">
        <ele>1059.3</ele>
        <time>2021-08-13T10:03:31Z</time>
      </trkpt>
      <trkpt lat="46.98502" lon="6.56613">
        <ele>1059.7</ele>
        <time>2021-08-13T10:03:33Z</time>
      </trkpt>
      <trkpt lat="46.98499" lon="6.56615">
        <ele>1060</ele>
        <time>2021-08-13T10:03:34Z</time>
      </trkpt>
      <trkpt lat="46.98496" lon="6.5662">
        <ele>1060.4</ele>
        <time>2021-08-13T10:03:36Z</time>
      </trkpt>
      <trkpt lat="46.98494" lon="6.56624">
        <ele>1060.7</ele>
        <time>2021-08-13T10:03:37Z</time>
      </trkpt>
      <trkpt lat="46.98493" lon="6.56628">
        <ele>1061</ele>
        <time>2021-08-13T10:03:38Z</time>
      </trkpt>
      <trkpt lat="46.98492" lon="6.56629">
        <ele>1061.1</ele>
        <time>2021-08-13T10:03:39Z</time>
      </trkpt>
      <trkpt lat="46.98492" lon="6.56631">
        <ele>1061.2</ele>
        <time>2021-08-13T10:03:40Z</time>
      </trkpt>
      <trkpt lat="46.98491" lon="6.56633">
        <ele>1061.4</ele>
        <time>2021-08-13T10:03:42Z</time>
      </trkpt>
      <trkpt lat="46.9849" lon="6.56635">
        <ele>1061.5</ele>
        <time>2021-08-13T10:03:43Z</time>
      </trkpt>
      <trkpt lat="46.98491" lon="6.56636">
        <ele>1061.6</ele>
        <time>2021-08-13T10:03:45Z</time>
      </trkpt>
      <trkpt lat="46.98491" lon="6.56637">
        <ele>1061.7</ele>
        <time>2021-08-13T10:03:46Z</time>
      </trkpt>
      <trkpt lat="46.98492" lon="6.56637">
        <ele>1061.8</ele>
        <time>2021-08-13T10:03:47Z</time>
      </trkpt>
      <trkpt lat="46.9849" lon="6.5664">
        <ele>1062</ele>
        <time>2021-08-13T10:03:49Z</time>
      </trkpt>
      <trkpt lat="46.98489" lon="6.56642">
        <ele>1062.2</ele>
        <time>2021-08-13T10:03:55Z</time>
      </trkpt>
      <trkpt lat="46.98487" lon="6.56643">
        <ele>1062.4</ele>
        <time>2021-08-13T10:03:56Z</time>
      </trkpt>
      <trkpt lat="46.98485" lon="6.56645">
        <ele>1062.7</ele>
        <time>2021-08-13T10:03:57Z</time>
      </trkpt>
      <trkpt lat="46.98485" lon="6.56646">
        <ele>1062.7</ele>
        <time>2021-08-13T10:03:58Z</time>
      </trkpt>
      <trkpt lat="46.98485" lon="6.56646">
        <ele>1062.8</ele>
        <time>2021-08-13T10:04:00Z</time>
      </trkpt>
      <trkpt lat="46.98485" lon="6.56647">
        <ele>1062.8</ele>
        <time>2021-08-13T10:04:01Z</time>
      </trkpt>
      <trkpt lat="46.98485" lon="6.56647">
        <ele>1062.8</ele>
        <time>2021-08-13T10:04:02Z</time>
      </trkpt>
      <trkpt lat="46.98485" lon="6.56647">
        <ele>1062.8</ele>
        <time>2021-08-13T10:04:04Z</time>
      </trkpt>
      <trkpt lat="46.98485" lon="6.56647">
        <ele>1062.8</ele>
        <time>2021-08-13T10:04:05Z</time>
      </trkpt>
      <trkpt lat="46.98485" lon="6.56647">
        <ele>1062.8</ele>
        <time>2021-08-13T10:04:06Z</time>
      </trkpt>
      <trkpt lat="46.98485" lon="6.56647">
        <ele>1062.8</ele>
        <time>2021-08-13T10:04:08Z</time>
      </trkpt>
      <trkpt lat="46.98476" lon="6.56655">
        <ele>1063.9</ele>
        <time>2021-08-13T10:04:16Z</time>
      </trkpt>
      <trkpt lat="46.98473" lon="6.56657">
        <ele>1064.2</ele>
        <time>2021-08-13T10:04:17Z</time>
      </trkpt>
      <trkpt lat="46.9847" lon="6.56657">
        <ele>1064.4</ele>
        <time>2021-08-13T10:04:18Z</time>
      </trkpt>
      <trkpt lat="46.98466" lon="6.56656">
        <ele>1064.8</ele>
        <time>2021-08-13T10:04:19Z</time>
      </trkpt>
      <trkpt lat="46.98465" lon="6.56656">
        <ele>1064.8</ele>
        <time>2021-08-13T10:04:20Z</time>
      </trkpt>
      <trkpt lat="46.98462" lon="6.56653">
        <ele>1065</ele>
        <time>2021-08-13T10:04:22Z</time>
      </trkpt>
      <trkpt lat="46.98461" lon="6.56652">
        <ele>1065</ele>
        <time>2021-08-13T10:04:23Z</time>
      </trkpt>
      <trkpt lat="46.9846" lon="6.56651">
        <ele>1065</ele>
        <time>2021-08-13T10:04:24Z</time>
      </trkpt>
      <trkpt lat="46.98458" lon="6.56651">
        <ele>1065.1</ele>
        <time>2021-08-13T10:04:26Z</time>
      </trkpt>
      <trkpt lat="46.98457" lon="6.56651">
        <ele>1065.1</ele>
        <time>2021-08-13T10:04:27Z</time>
      </trkpt>
      <trkpt lat="46.98456" lon="6.56652">
        <ele>1065.1</ele>
        <time>2021-08-13T10:04:28Z</time>
      </trkpt>
      <trkpt lat="46.98456" lon="6.56652">
        <ele>1065.1</ele>
        <time>2021-08-13T10:04:30Z</time>
      </trkpt>
      <trkpt lat="46.98456" lon="6.56652">
        <ele>1065.1</ele>
        <time>2021-08-13T10:04:31Z</time>
      </trkpt>
      <trkpt lat="46.98456" lon="6.56653">
        <ele>1065.2</ele>
        <time>2021-08-13T10:04:32Z</time>
      </trkpt>
      <trkpt lat="46.98456" lon="6.56652">
        <ele>1065.2</ele>
        <time>2021-08-13T10:04:34Z</time>
      </trkpt>
      <trkpt lat="46.98456" lon="6.56652">
        <ele>1065.2</ele>
        <time>2021-08-13T10:04:35Z</time>
      </trkpt>
      <trkpt lat="46.98456" lon="6.56652">
        <ele>1065.2</ele>
        <time>2021-08-13T10:04:36Z</time>
      </trkpt>
      <trkpt lat="46.98456" lon="6.56652">
        <ele>1065.2</ele>
        <time>2021-08-13T10:04:38Z</time>
      </trkpt>
      <trkpt lat="46.98448" lon="6.5666">
        <ele>1065.6</ele>
        <time>2021-08-13T10:05:00Z</time>
      </trkpt>
      <trkpt lat="46.98443" lon="6.56663">
        <ele>1065.8</ele>
        <time>2021-08-13T10:05:02Z</time>
      </trkpt>
      <trkpt lat="46.98437" lon="6.56665">
        <ele>1066</ele>
        <time>2021-08-13T10:05:04Z</time>
      </trkpt>
      <trkpt lat="46.98434" lon="6.56666">
        <ele>1066</ele>
        <time>2021-08-13T10:05:05Z</time>
      </trkpt>
      <trkpt lat="46.98432" lon="6.56667">
        <ele>1066.1</ele>
        <time>2021-08-13T10:05:06Z</time>
      </trkpt>
      <trkpt lat="46.98427" lon="6.56668">
        <ele>1066.1</ele>
        <time>2021-08-13T10:05:07Z</time>
      </trkpt>
      <trkpt lat="46.98425" lon="6.56668">
        <ele>1066.1</ele>
        <time>2021-08-13T10:05:08Z</time>
      </trkpt>
      <trkpt lat="46.9842" lon="6.5667">
        <ele>1066.1</ele>
        <time>2021-08-13T10:05:10Z</time>
      </trkpt>
      <trkpt lat="46.98417" lon="6.56671">
        <ele>1066.2</ele>
        <time>2021-08-13T10:05:11Z</time>
      </trkpt>
      <trkpt lat="46.98413" lon="6.56671">
        <ele>1066.2</ele>
        <time>2021-08-13T10:05:12Z</time>
      </trkpt>
      <trkpt lat="46.98407" lon="6.5667">
        <ele>1066.3</ele>
        <time>2021-08-13T10:05:14Z</time>
      </trkpt>
      <trkpt lat="46.98404" lon="6.5667">
        <ele>1066.3</ele>
        <time>2021-08-13T10:05:15Z</time>
      </trkpt>
      <trkpt lat="46.984" lon="6.5667">
        <ele>1066.3</ele>
        <time>2021-08-13T10:05:16Z</time>
      </trkpt>
      <trkpt lat="46.98395" lon="6.56673">
        <ele>1066.4</ele>
        <time>2021-08-13T10:05:18Z</time>
      </trkpt>
      <trkpt lat="46.98394" lon="6.56673">
        <ele>1066.4</ele>
        <time>2021-08-13T10:05:19Z</time>
      </trkpt>
      <trkpt lat="46.98393" lon="6.56673">
        <ele>1066.4</ele>
        <time>2021-08-13T10:05:20Z</time>
      </trkpt>
      <trkpt lat="46.98389" lon="6.56675">
        <ele>1066.4</ele>
        <time>2021-08-13T10:05:22Z</time>
      </trkpt>
      <trkpt lat="46.98386" lon="6.56676">
        <ele>1066.4</ele>
        <time>2021-08-13T10:05:23Z</time>
      </trkpt>
      <trkpt lat="46.98383" lon="6.56677">
        <ele>1066.3</ele>
        <time>2021-08-13T10:05:25Z</time>
      </trkpt>
      <trkpt lat="46.98381" lon="6.56678">
        <ele>1066.3</ele>
        <time>2021-08-13T10:05:26Z</time>
      </trkpt>
      <trkpt lat="46.98377" lon="6.56678">
        <ele>1066.2</ele>
        <time>2021-08-13T10:05:28Z</time>
      </trkpt>
      <trkpt lat="46.98373" lon="6.56678">
        <ele>1066.2</ele>
        <time>2021-08-13T10:05:29Z</time>
      </trkpt>
      <trkpt lat="46.98372" lon="6.56678">
        <ele>1066.2</ele>
        <time>2021-08-13T10:05:30Z</time>
      </trkpt>
      <trkpt lat="46.98365" lon="6.56679">
        <ele>1066</ele>
        <time>2021-08-13T10:05:32Z</time>
      </trkpt>
      <trkpt lat="46.98358" lon="6.56678">
        <ele>1065.8</ele>
        <time>2021-08-13T10:05:34Z</time>
      </trkpt>
      <trkpt lat="46.98354" lon="6.56676">
        <ele>1065.7</ele>
        <time>2021-08-13T10:05:35Z</time>
      </trkpt>
      <trkpt lat="46.98351" lon="6.56672">
        <ele>1065.6</ele>
        <time>2021-08-13T10:05:36Z</time>
      </trkpt>
      <trkpt lat="46.98348" lon="6.56662">
        <ele>1064.9</ele>
        <time>2021-08-13T10:05:38Z</time>
      </trkpt>
      <trkpt lat="46.98347" lon="6.56657">
        <ele>1064.6</ele>
        <time>2021-08-13T10:05:39Z</time>
      </trkpt>
      <trkpt lat="46.98346" lon="6.56647">
        <ele>1064.1</ele>
        <time>2021-08-13T10:05:41Z</time>
      </trkpt>
      <trkpt lat="46.98346" lon="6.56642">
        <ele>1063.8</ele>
        <time>2021-08-13T10:05:42Z</time>
      </trkpt>
      <trkpt lat="46.98345" lon="6.56632">
        <ele>1063.3</ele>
        <time>2021-08-13T10:05:44Z</time>
      </trkpt>
      <trkpt lat="46.98343" lon="6.56619">
        <ele>1062.5</ele>
        <time>2021-08-13T10:05:46Z</time>
      </trkpt>
      <trkpt lat="46.9834" lon="6.56612">
        <ele>1062.1</ele>
        <time>2021-08-13T10:05:47Z</time>
      </trkpt>
      <trkpt lat="46.98333" lon="6.56598">
        <ele>1061.2</ele>
        <time>2021-08-13T10:05:49Z</time>
      </trkpt>
      <trkpt lat="46.98327" lon="6.5658">
        <ele>1060.1</ele>
        <time>2021-08-13T10:05:51Z</time>
      </trkpt>
      <trkpt lat="46.98325" lon="6.5657">
        <ele>1059.6</ele>
        <time>2021-08-13T10:05:52Z</time>
      </trkpt>
      <trkpt lat="46.98323" lon="6.5656">
        <ele>1059</ele>
        <time>2021-08-13T10:05:53Z</time>
      </trkpt>
      <trkpt lat="46.98318" lon="6.56539">
        <ele>1057.9</ele>
        <time>2021-08-13T10:05:55Z</time>
      </trkpt>
      <trkpt lat="46.98313" lon="6.56516">
        <ele>1056.6</ele>
        <time>2021-08-13T10:05:57Z</time>
      </trkpt>
      <trkpt lat="46.9831" lon="6.56504">
        <ele>1055.9</ele>
        <time>2021-08-13T10:05:58Z</time>
      </trkpt>
      <trkpt lat="46.98306" lon="6.56483">
        <ele>1054.8</ele>
        <time>2021-08-13T10:06:00Z</time>
      </trkpt>
      <trkpt lat="46.983" lon="6.56466">
        <ele>1053.8</ele>
        <time>2021-08-13T10:06:02Z</time>
      </trkpt>
      <trkpt lat="46.98296" lon="6.56455">
        <ele>1053.1</ele>
        <time>2021-08-13T10:06:04Z</time>
      </trkpt>
      <trkpt lat="46.98292" lon="6.5645">
        <ele>1052.7</ele>
        <time>2021-08-13T10:06:05Z</time>
      </trkpt>
      <trkpt lat="46.9829" lon="6.56447">
        <ele>1052.5</ele>
        <time>2021-08-13T10:06:06Z</time>
      </trkpt>
      <trkpt lat="46.98289" lon="6.56446">
        <ele>1052.4</ele>
        <time>2021-08-13T10:06:07Z</time>
      </trkpt>
      <trkpt lat="46.98284" lon="6.56442">
        <ele>1052</ele>
        <time>2021-08-13T10:06:09Z</time>
      </trkpt>
      <trkpt lat="46.98284" lon="6.56442">
        <ele>1052</ele>
        <time>2021-08-13T10:06:10Z</time>
      </trkpt>
      <trkpt lat="46.98281" lon="6.56438">
        <ele>1052.2</ele>
        <time>2021-08-13T10:06:12Z</time>
      </trkpt>
      <trkpt lat="46.98277" lon="6.56432">
        <ele>1052.5</ele>
        <time>2021-08-13T10:06:13Z</time>
      </trkpt>
      <trkpt lat="46.98272" lon="6.56424">
        <ele>1053</ele>
        <time>2021-08-13T10:06:14Z</time>
      </trkpt>
      <trkpt lat="46.98269" lon="6.56417">
        <ele>1053.5</ele>
        <time>2021-08-13T10:06:16Z</time>
      </trkpt>
      <trkpt lat="46.98265" lon="6.56407">
        <ele>1053.8</ele>
        <time>2021-08-13T10:06:17Z</time>
      </trkpt>
      <trkpt lat="46.98261" lon="6.56397">
        <ele>1053.3</ele>
        <time>2021-08-13T10:06:19Z</time>
      </trkpt>
      <trkpt lat="46.98259" lon="6.5639">
        <ele>1052.9</ele>
        <time>2021-08-13T10:06:20Z</time>
      </trkpt>
      <trkpt lat="46.98257" lon="6.56385">
        <ele>1052.6</ele>
        <time>2021-08-13T10:06:22Z</time>
      </trkpt>
      <trkpt lat="46.98256" lon="6.56383">
        <ele>1052.5</ele>
        <time>2021-08-13T10:06:23Z</time>
      </trkpt>
      <trkpt lat="46.98253" lon="6.56379">
        <ele>1052.3</ele>
        <time>2021-08-13T10:06:24Z</time>
      </trkpt>
      <trkpt lat="46.98249" lon="6.56377">
        <ele>1052</ele>
        <time>2021-08-13T10:06:25Z</time>
      </trkpt>
      <trkpt lat="46.98246" lon="6.56373">
        <ele>1051.7</ele>
        <time>2021-08-13T10:06:27Z</time>
      </trkpt>
      <trkpt lat="46.98245" lon="6.56371">
        <ele>1051.7</ele>
        <time>2021-08-13T10:06:28Z</time>
      </trkpt>
      <trkpt lat="46.98244" lon="6.56369">
        <ele>1051.6</ele>
        <time>2021-08-13T10:06:29Z</time>
      </trkpt>
      <trkpt lat="46.98241" lon="6.56363">
        <ele>1051.3</ele>
        <time>2021-08-13T10:06:30Z</time>
      </trkpt>
      <trkpt lat="46.9824" lon="6.5636">
        <ele>1051.2</ele>
        <time>2021-08-13T10:06:31Z</time>
      </trkpt>
      <trkpt lat="46.98237" lon="6.56353">
        <ele>1050.9</ele>
        <time>2021-08-13T10:06:32Z</time>
      </trkpt>
      <trkpt lat="46.98231" lon="6.56341">
        <ele>1050.4</ele>
        <time>2021-08-13T10:06:34Z</time>
      </trkpt>
      <trkpt lat="46.98224" lon="6.56323">
        <ele>1049.6</ele>
        <time>2021-08-13T10:06:35Z</time>
      </trkpt>
      <trkpt lat="46.9822" lon="6.56315">
        <ele>1049.1</ele>
        <time>2021-08-13T10:06:36Z</time>
      </trkpt>
      <trkpt lat="46.98215" lon="6.56296">
        <ele>1048</ele>
        <time>2021-08-13T10:06:38Z</time>
      </trkpt>
      <trkpt lat="46.98213" lon="6.56286">
        <ele>1047.4</ele>
        <time>2021-08-13T10:06:39Z</time>
      </trkpt>
      <trkpt lat="46.98208" lon="6.56267">
        <ele>1046.3</ele>
        <time>2021-08-13T10:06:41Z</time>
      </trkpt>
      <trkpt lat="46.98206" lon="6.56258">
        <ele>1045.8</ele>
        <time>2021-08-13T10:06:42Z</time>
      </trkpt>
      <trkpt lat="46.98199" lon="6.56241">
        <ele>1044.8</ele>
        <time>2021-08-13T10:06:44Z</time>
      </trkpt>
      <trkpt lat="46.98194" lon="6.56222">
        <ele>1043.9</ele>
        <time>2021-08-13T10:06:46Z</time>
      </trkpt>
      <trkpt lat="46.98193" lon="6.56214">
        <ele>1043.5</ele>
        <time>2021-08-13T10:06:47Z</time>
      </trkpt>
      <trkpt lat="46.98189" lon="6.56195">
        <ele>1042.7</ele>
        <time>2021-08-13T10:06:49Z</time>
      </trkpt>
      <trkpt lat="46.98188" lon="6.56185">
        <ele>1042.3</ele>
        <time>2021-08-13T10:06:50Z</time>
      </trkpt>
      <trkpt lat="46.98186" lon="6.56176">
        <ele>1041.8</ele>
        <time>2021-08-13T10:06:51Z</time>
      </trkpt>
      <trkpt lat="46.98182" lon="6.56157">
        <ele>1040.8</ele>
        <time>2021-08-13T10:06:53Z</time>
      </trkpt>
      <trkpt lat="46.98175" lon="6.56138">
        <ele>1039.7</ele>
        <time>2021-08-13T10:06:55Z</time>
      </trkpt>
      <trkpt lat="46.98172" lon="6.56133">
        <ele>1039.3</ele>
        <time>2021-08-13T10:06:56Z</time>
      </trkpt>
      <trkpt lat="46.9817" lon="6.56131">
        <ele>1039.2</ele>
        <time>2021-08-13T10:06:57Z</time>
      </trkpt>
      <trkpt lat="46.98163" lon="6.5612">
        <ele>1038.4</ele>
        <time>2021-08-13T10:06:59Z</time>
      </trkpt>
      <trkpt lat="46.98159" lon="6.5611">
        <ele>1037.8</ele>
        <time>2021-08-13T10:07:01Z</time>
      </trkpt>
      <trkpt lat="46.98158" lon="6.56109">
        <ele>1037.8</ele>
        <time>2021-08-13T10:07:02Z</time>
      </trkpt>
      <trkpt lat="46.98158" lon="6.56107">
        <ele>1037.6</ele>
        <time>2021-08-13T10:07:04Z</time>
      </trkpt>
      <trkpt lat="46.98152" lon="6.56097">
        <ele>1036.9</ele>
        <time>2021-08-13T10:07:05Z</time>
      </trkpt>
      <trkpt lat="46.98071" lon="6.55844">
        <ele>1024.4</ele>
        <time>2021-08-13T10:12:30Z</time>
      </trkpt>
      <trkpt lat="46.98067" lon="6.55841">
        <ele>1024.7</ele>
        <time>2021-08-13T10:12:32Z</time>
      </trkpt>
      <trkpt lat="46.98064" lon="6.55838">
        <ele>1024.9</ele>
        <time>2021-08-13T10:12:34Z</time>
      </trkpt>
      <trkpt lat="46.98064" lon="6.55837">
        <ele>1025</ele>
        <time>2021-08-13T10:12:35Z</time>
      </trkpt>
      <trkpt lat="46.98063" lon="6.55836">
        <ele>1025</ele>
        <time>2021-08-13T10:12:37Z</time>
      </trkpt>
      <trkpt lat="46.98063" lon="6.55835">
        <ele>1025</ele>
        <time>2021-08-13T10:12:38Z</time>
      </trkpt>
      <trkpt lat="46.98063" lon="6.55834">
        <ele>1025.1</ele>
        <time>2021-08-13T10:12:39Z</time>
      </trkpt>
      <trkpt lat="46.98063" lon="6.55833">
        <ele>1025.1</ele>
        <time>2021-08-13T10:12:40Z</time>
      </trkpt>
      <trkpt lat="46.98062" lon="6.55832">
        <ele>1025.2</ele>
        <time>2021-08-13T10:12:41Z</time>
      </trkpt>
      <trkpt lat="46.98062" lon="6.55831">
        <ele>1025.2</ele>
        <time>2021-08-13T10:12:42Z</time>
      </trkpt>
      <trkpt lat="46.98062" lon="6.55829">
        <ele>1025.3</ele>
        <time>2021-08-13T10:12:43Z</time>
      </trkpt>
      <trkpt lat="46.98063" lon="6.55828">
        <ele>1025.4</ele>
        <time>2021-08-13T10:12:44Z</time>
      </trkpt>
      <trkpt lat="46.98063" lon="6.55826">
        <ele>1025.4</ele>
        <time>2021-08-13T10:12:46Z</time>
      </trkpt>
      <trkpt lat="46.98063" lon="6.55825">
        <ele>1025.5</ele>
        <time>2021-08-13T10:12:47Z</time>
      </trkpt>
      <trkpt lat="46.98063" lon="6.55823">
        <ele>1025.6</ele>
        <time>2021-08-13T10:12:48Z</time>
      </trkpt>
      <trkpt lat="46.98062" lon="6.55822">
        <ele>1025.6</ele>
        <time>2021-08-13T10:12:50Z</time>
      </trkpt>
      <trkpt lat="46.98062" lon="6.55821">
        <ele>1025.7</ele>
        <time>2021-08-13T10:12:51Z</time>
      </trkpt>
      <trkpt lat="46.98062" lon="6.5582">
        <ele>1025.7</ele>
        <time>2021-08-13T10:12:52Z</time>
      </trkpt>
      <trkpt lat="46.98062" lon="6.55818">
        <ele>1025.8</ele>
        <time>2021-08-13T10:12:53Z</time>
      </trkpt>
      <trkpt lat="46.98062" lon="6.55815">
        <ele>1025.9</ele>
        <time>2021-08-13T10:12:55Z</time>
      </trkpt>
      <trkpt lat="46.98062" lon="6.55812">
        <ele>1026</ele>
        <time>2021-08-13T10:12:56Z</time>
      </trkpt>
      <trkpt lat="46.98062" lon="6.5581">
        <ele>1026.2</ele>
        <time>2021-08-13T10:12:58Z</time>
      </trkpt>
      <trkpt lat="46.98062" lon="6.55808">
        <ele>1026.2</ele>
        <time>2021-08-13T10:12:59Z</time>
      </trkpt>
      <trkpt lat="46.98062" lon="6.55805">
        <ele>1026.4</ele>
        <time>2021-08-13T10:13:00Z</time>
      </trkpt>
      <trkpt lat="46.98062" lon="6.55802">
        <ele>1026.6</ele>
        <time>2021-08-13T10:13:02Z</time>
      </trkpt>
      <trkpt lat="46.98062" lon="6.55798">
        <ele>1026.8</ele>
        <time>2021-08-13T10:13:03Z</time>
      </trkpt>
      <trkpt lat="46.98062" lon="6.55796">
        <ele>1026.9</ele>
        <time>2021-08-13T10:13:04Z</time>
      </trkpt>
      <trkpt lat="46.98062" lon="6.55791">
        <ele>1027.2</ele>
        <time>2021-08-13T10:13:05Z</time>
      </trkpt>
      <trkpt lat="46.98062" lon="6.55787">
        <ele>1027.4</ele>
        <time>2021-08-13T10:13:07Z</time>
      </trkpt>
      <trkpt lat="46.98063" lon="6.55782">
        <ele>1027.7</ele>
        <time>2021-08-13T10:13:08Z</time>
      </trkpt>
      <trkpt lat="46.98066" lon="6.55774">
        <ele>1028.3</ele>
        <time>2021-08-13T10:13:10Z</time>
      </trkpt>
      <trkpt lat="46.9807" lon="6.55767">
        <ele>1028.8</ele>
        <time>2021-08-13T10:13:11Z</time>
      </trkpt>
      <trkpt lat="46.98072" lon="6.55762">
        <ele>1029.2</ele>
        <time>2021-08-13T10:13:13Z</time>
      </trkpt>
      <trkpt lat="46.98075" lon="6.55756">
        <ele>1029.5</ele>
        <time>2021-08-13T10:13:14Z</time>
      </trkpt>
      <trkpt lat="46.98077" lon="6.5575">
        <ele>1029.8</ele>
        <time>2021-08-13T10:13:15Z</time>
      </trkpt>
      <trkpt lat="46.98078" lon="6.55744">
        <ele>1030</ele>
        <time>2021-08-13T10:13:16Z</time>
      </trkpt>
      <trkpt lat="46.98079" lon="6.55739">
        <ele>1030.2</ele>
        <time>2021-08-13T10:13:18Z</time>
      </trkpt>
      <trkpt lat="46.9808" lon="6.55734">
        <ele>1030.3</ele>
        <time>2021-08-13T10:13:19Z</time>
      </trkpt>
      <trkpt lat="46.9808" lon="6.55729">
        <ele>1030.4</ele>
        <time>2021-08-13T10:13:20Z</time>
      </trkpt>
      <trkpt lat="46.9808" lon="6.55725">
        <ele>1030.5</ele>
        <time>2021-08-13T10:13:21Z</time>
      </trkpt>
      <trkpt lat="46.9808" lon="6.55721">
        <ele>1030.5</ele>
        <time>2021-08-13T10:13:23Z</time>
      </trkpt>
      <trkpt lat="46.98078" lon="6.55717">
        <ele>1030.6</ele>
        <time>2021-08-13T10:13:24Z</time>
      </trkpt>
      <trkpt lat="46.98076" lon="6.55712">
        <ele>1030.6</ele>
        <time>2021-08-13T10:13:25Z</time>
      </trkpt>
      <trkpt lat="46.98073" lon="6.55704">
        <ele>1030.6</ele>
        <time>2021-08-13T10:13:26Z</time>
      </trkpt>
      <trkpt lat="46.9807" lon="6.55698">
        <ele>1030.4</ele>
        <time>2021-08-13T10:13:28Z</time>
      </trkpt>
      <trkpt lat="46.98068" lon="6.55693">
        <ele>1030.3</ele>
        <time>2021-08-13T10:13:29Z</time>
      </trkpt>
      <trkpt lat="46.98064" lon="6.55685">
        <ele>1030.1</ele>
        <time>2021-08-13T10:13:31Z</time>
      </trkpt>
      <trkpt lat="46.9806" lon="6.55677">
        <ele>1029.9</ele>
        <time>2021-08-13T10:13:33Z</time>
      </trkpt>
      <trkpt lat="46.98058" lon="6.5567">
        <ele>1029.8</ele>
        <time>2021-08-13T10:13:34Z</time>
      </trkpt>
      <trkpt lat="46.98055" lon="6.55664">
        <ele>1029.7</ele>
        <time>2021-08-13T10:13:36Z</time>
      </trkpt>
      <trkpt lat="46.98052" lon="6.55661">
        <ele>1029.6</ele>
        <time>2021-08-13T10:13:37Z</time>
      </trkpt>
      <trkpt lat="46.98048" lon="6.55659">
        <ele>1029.5</ele>
        <time>2021-08-13T10:13:38Z</time>
      </trkpt>
      <trkpt lat="46.98043" lon="6.55657">
        <ele>1029.4</ele>
        <time>2021-08-13T10:13:40Z</time>
      </trkpt>
      <trkpt lat="46.98039" lon="6.55654">
        <ele>1029.3</ele>
        <time>2021-08-13T10:13:41Z</time>
      </trkpt>
      <trkpt lat="46.98037" lon="6.55652">
        <ele>1029.3</ele>
        <time>2021-08-13T10:13:42Z</time>
      </trkpt>
      <trkpt lat="46.98037" lon="6.55649">
        <ele>1029.2</ele>
        <time>2021-08-13T10:13:43Z</time>
      </trkpt>
      <trkpt lat="46.98039" lon="6.55646">
        <ele>1029.2</ele>
        <time>2021-08-13T10:13:45Z</time>
      </trkpt>
      <trkpt lat="46.98041" lon="6.55644">
        <ele>1029.2</ele>
        <time>2021-08-13T10:13:46Z</time>
      </trkpt>
      <trkpt lat="46.98042" lon="6.55642">
        <ele>1029.2</ele>
        <time>2021-08-13T10:13:48Z</time>
      </trkpt>
      <trkpt lat="46.98042" lon="6.5564">
        <ele>1029.2</ele>
        <time>2021-08-13T10:13:49Z</time>
      </trkpt>
      <trkpt lat="46.98042" lon="6.55639">
        <ele>1029.1</ele>
        <time>2021-08-13T10:13:50Z</time>
      </trkpt>
      <trkpt lat="46.98043" lon="6.55637">
        <ele>1029.1</ele>
        <time>2021-08-13T10:13:51Z</time>
      </trkpt>
      <trkpt lat="46.98043" lon="6.55636">
        <ele>1029.1</ele>
        <time>2021-08-13T10:13:52Z</time>
      </trkpt>
      <trkpt lat="46.98053" lon="6.55615">
        <ele>1029.1</ele>
        <time>2021-08-13T10:13:59Z</time>
      </trkpt>
      <trkpt lat="46.98059" lon="6.55606">
        <ele>1029.3</ele>
        <time>2021-08-13T10:14:01Z</time>
      </trkpt>
      <trkpt lat="46.98064" lon="6.55602">
        <ele>1029.5</ele>
        <time>2021-08-13T10:14:02Z</time>
      </trkpt>
      <trkpt lat="46.98069" lon="6.55597">
        <ele>1029.7</ele>
        <time>2021-08-13T10:14:04Z</time>
      </trkpt>
      <trkpt lat="46.98071" lon="6.55594">
        <ele>1029.8</ele>
        <time>2021-08-13T10:14:05Z</time>
      </trkpt>
      <trkpt lat="46.98072" lon="6.55593">
        <ele>1029.9</ele>
        <time>2021-08-13T10:14:06Z</time>
      </trkpt>
      <trkpt lat="46.98069" lon="6.55593">
        <ele>1030</ele>
        <time>2021-08-13T10:14:08Z</time>
      </trkpt>
      <trkpt lat="46.98065" lon="6.55595">
        <ele>1030.2</ele>
        <time>2021-08-13T10:14:09Z</time>
      </trkpt>
      <trkpt lat="46.98062" lon="6.55597">
        <ele>1030.3</ele>
        <time>2021-08-13T10:14:11Z</time>
      </trkpt>
      <trkpt lat="46.98062" lon="6.55597">
        <ele>1030.4</ele>
        <time>2021-08-13T10:14:12Z</time>
      </trkpt>
      <trkpt lat="46.98062" lon="6.55598">
        <ele>1030.4</ele>
        <time>2021-08-13T10:14:14Z</time>
      </trkpt>
      <trkpt lat="46.98061" lon="6.55598">
        <ele>1030.4</ele>
        <time>2021-08-13T10:14:15Z</time>
      </trkpt>
      <trkpt lat="46.97981" lon="6.55519">
        <ele>1040.1</ele>
        <time>2021-08-13T10:16:44Z</time>
      </trkpt>
      <trkpt lat="46.97976" lon="6.55521">
        <ele>1040.8</ele>
        <time>2021-08-13T10:16:46Z</time>
      </trkpt>
      <trkpt lat="46.9797" lon="6.55523">
        <ele>1041.6</ele>
        <time>2021-08-13T10:16:48Z</time>
      </trkpt>
      <trkpt lat="46.97966" lon="6.55526">
        <ele>1042.3</ele>
        <time>2021-08-13T10:16:49Z</time>
      </trkpt>
      <trkpt lat="46.97965" lon="6.55526">
        <ele>1042.4</ele>
        <time>2021-08-13T10:16:50Z</time>
      </trkpt>
      <trkpt lat="46.97965" lon="6.55526">
        <ele>1042.4</ele>
        <time>2021-08-13T10:16:52Z</time>
      </trkpt>
      <trkpt lat="46.97965" lon="6.55525">
        <ele>1042.6</ele>
        <time>2021-08-13T10:16:53Z</time>
      </trkpt>
      <trkpt lat="46.97966" lon="6.55523">
        <ele>1042.8</ele>
        <time>2021-08-13T10:16:55Z</time>
      </trkpt>
      <trkpt lat="46.97967" lon="6.55522">
        <ele>1043</ele>
        <time>2021-08-13T10:16:56Z</time>
      </trkpt>
      <trkpt lat="46.97968" lon="6.55521">
        <ele>1043.2</ele>
        <time>2021-08-13T10:16:57Z</time>
      </trkpt>
      <trkpt lat="46.97968" lon="6.5552">
        <ele>1043.3</ele>
        <time>2021-08-13T10:16:59Z</time>
      </trkpt>
      <trkpt lat="46.97953" lon="6.55351">
        <ele>1057.1</ele>
        <time>2021-08-13T10:19:17Z</time>
      </trkpt>
      <trkpt lat="46.9795" lon="6.55348">
        <ele>1057.3</ele>
        <time>2021-08-13T10:19:18Z</time>
      </trkpt>
      <trkpt lat="46.97949" lon="6.55348">
        <ele>1057.4</ele>
        <time>2021-08-13T10:19:19Z</time>
      </trkpt>
      <trkpt lat="46.97947" lon="6.55349">
        <ele>1057.6</ele>
        <time>2021-08-13T10:19:20Z</time>
      </trkpt>
      <trkpt lat="46.97946" lon="6.55349">
        <ele>1057.7</ele>
        <time>2021-08-13T10:19:21Z</time>
      </trkpt>
      <trkpt lat="46.97941" lon="6.55348">
        <ele>1058.1</ele>
        <time>2021-08-13T10:19:23Z</time>
      </trkpt>
      <trkpt lat="46.9794" lon="6.55347">
        <ele>1058.3</ele>
        <time>2021-08-13T10:19:24Z</time>
      </trkpt>
      <trkpt lat="46.97936" lon="6.55344">
        <ele>1058.7</ele>
        <time>2021-08-13T10:19:26Z</time>
      </trkpt>
      <trkpt lat="46.97933" lon="6.55343">
        <ele>1059</ele>
        <time>2021-08-13T10:19:27Z</time>
      </trkpt>
      <trkpt lat="46.97931" lon="6.55342">
        <ele>1059.2</ele>
        <time>2021-08-13T10:19:29Z</time>
      </trkpt>
      <trkpt lat="46.9793" lon="6.55342">
        <ele>1059.3</ele>
        <time>2021-08-13T10:19:30Z</time>
      </trkpt>
      <trkpt lat="46.9793" lon="6.55342">
        <ele>1059.3</ele>
        <time>2021-08-13T10:19:32Z</time>
      </trkpt>
      <trkpt lat="46.9793" lon="6.55342">
        <ele>1059.3</ele>
        <time>2021-08-13T10:19:33Z</time>
      </trkpt>
      <trkpt lat="46.9793" lon="6.55342">
        <ele>1059.4</ele>
        <time>2021-08-13T10:19:35Z</time>
      </trkpt>
      <trkpt lat="46.9793" lon="6.55341">
        <ele>1059.4</ele>
        <time>2021-08-13T10:19:36Z</time>
      </trkpt>
      <trkpt lat="46.97931" lon="6.5534">
        <ele>1059.5</ele>
        <time>2021-08-13T10:19:38Z</time>
      </trkpt>
      <trkpt lat="46.97941" lon="6.5529">
        <ele>1063.1</ele>
        <time>2021-08-13T10:20:29Z</time>
      </trkpt>
      <trkpt lat="46.97942" lon="6.55287">
        <ele>1063.3</ele>
        <time>2021-08-13T10:20:31Z</time>
      </trkpt>
      <trkpt lat="46.97942" lon="6.55287">
        <ele>1063.3</ele>
        <time>2021-08-13T10:20:32Z</time>
      </trkpt>
      <trkpt lat="46.97942" lon="6.55287">
        <ele>1063.3</ele>
        <time>2021-08-13T10:20:33Z</time>
      </trkpt>
      <trkpt lat="46.97942" lon="6.55286">
        <ele>1063.4</ele>
        <time>2021-08-13T10:20:34Z</time>
      </trkpt>
      <trkpt lat="46.97943" lon="6.55285">
        <ele>1063.4</ele>
        <time>2021-08-13T10:20:36Z</time>
      </trkpt>
      <trkpt lat="46.97943" lon="6.55284">
        <ele>1063.5</ele>
        <time>2021-08-13T10:20:37Z</time>
      </trkpt>
      <trkpt lat="46.97943" lon="6.55283">
        <ele>1063.6</ele>
        <time>2021-08-13T10:20:38Z</time>
      </trkpt>
      <trkpt lat="46.97942" lon="6.55282">
        <ele>1063.7</ele>
        <time>2021-08-13T10:20:40Z</time>
      </trkpt>
      <trkpt lat="46.97942" lon="6.55281">
        <ele>1063.7</ele>
        <time>2021-08-13T10:20:41Z</time>
      </trkpt>
      <trkpt lat="46.97942" lon="6.5528">
        <ele>1063.8</ele>
        <time>2021-08-13T10:20:43Z</time>
      </trkpt>
      <trkpt lat="46.97942" lon="6.55279">
        <ele>1063.8</ele>
        <time>2021-08-13T10:20:44Z</time>
      </trkpt>
      <trkpt lat="46.97942" lon="6.55279">
        <ele>1063.9</ele>
        <time>2021-08-13T10:20:46Z</time>
      </trkpt>
      <trkpt lat="46.97942" lon="6.55278">
        <ele>1063.9</ele>
        <time>2021-08-13T10:20:48Z</time>
      </trkpt>
      <trkpt lat="46.97942" lon="6.55278">
        <ele>1063.9</ele>
        <time>2021-08-13T10:20:49Z</time>
      </trkpt>
      <trkpt lat="46.97942" lon="6.55278">
        <ele>1063.9</ele>
        <time>2021-08-13T10:20:50Z</time>
      </trkpt>
      <trkpt lat="46.97942" lon="6.55278">
        <ele>1063.9</ele>
        <time>2021-08-13T10:20:52Z</time>
      </trkpt>
      <trkpt lat="46.97942" lon="6.55278">
        <ele>1063.9</ele>
        <time>2021-08-13T10:20:53Z</time>
      </trkpt>
      <trkpt lat="46.97941" lon="6.55277">
        <ele>1064</ele>
        <time>2021-08-13T10:20:55Z</time>
      </trkpt>
      <trkpt lat="46.9794" lon="6.55277">
        <ele>1064.2</ele>
        <time>2021-08-13T10:20:56Z</time>
      </trkpt>
      <trkpt lat="46.97938" lon="6.55276">
        <ele>1064.3</ele>
        <time>2021-08-13T10:20:58Z</time>
      </trkpt>
      <trkpt lat="46.97938" lon="6.55275">
        <ele>1064.4</ele>
        <time>2021-08-13T10:20:59Z</time>
      </trkpt>
      <trkpt lat="46.97937" lon="6.55274">
        <ele>1064.5</ele>
        <time>2021-08-13T10:21:00Z</time>
      </trkpt>
      <trkpt lat="46.97937" lon="6.55273">
        <ele>1064.6</ele>
        <time>2021-08-13T10:21:01Z</time>
      </trkpt>
      <trkpt lat="46.97935" lon="6.55269">
        <ele>1064.8</ele>
        <time>2021-08-13T10:21:02Z</time>
      </trkpt>
      <trkpt lat="46.97935" lon="6.55268">
        <ele>1064.9</ele>
        <time>2021-08-13T10:21:04Z</time>
      </trkpt>
      <trkpt lat="46.97934" lon="6.55267">
        <ele>1065</ele>
        <time>2021-08-13T10:21:05Z</time>
      </trkpt>
      <trkpt lat="46.97933" lon="6.55264">
        <ele>1065.2</ele>
        <time>2021-08-13T10:21:06Z</time>
      </trkpt>
      <trkpt lat="46.97932" lon="6.5526">
        <ele>1065.4</ele>
        <time>2021-08-13T10:21:08Z</time>
      </trkpt>
      <trkpt lat="46.97931" lon="6.55259">
        <ele>1065.6</ele>
        <time>2021-08-13T10:21:09Z</time>
      </trkpt>
      <trkpt lat="46.9793" lon="6.55257">
        <ele>1065.7</ele>
        <time>2021-08-13T10:21:10Z</time>
      </trkpt>
      <trkpt lat="46.97928" lon="6.55254">
        <ele>1066</ele>
        <time>2021-08-13T10:21:11Z</time>
      </trkpt>
      <trkpt lat="46.97926" lon="6.55251">
        <ele>1066.2</ele>
        <time>2021-08-13T10:21:14Z</time>
      </trkpt>
      <trkpt lat="46.97925" lon="6.55249">
        <ele>1066.3</ele>
        <time>2021-08-13T10:21:15Z</time>
      </trkpt>
      <trkpt lat="46.97924" lon="6.55247">
        <ele>1066.4</ele>
        <time>2021-08-13T10:21:16Z</time>
      </trkpt>
      <trkpt lat="46.97924" lon="6.55246">
        <ele>1066.5</ele>
        <time>2021-08-13T10:21:17Z</time>
      </trkpt>
      <trkpt lat="46.97923" lon="6.55241">
        <ele>1066.7</ele>
        <time>2021-08-13T10:21:18Z</time>
      </trkpt>
      <trkpt lat="46.97922" lon="6.5524">
        <ele>1066.8</ele>
        <time>2021-08-13T10:21:19Z</time>
      </trkpt>
      <trkpt lat="46.97921" lon="6.55236">
        <ele>1066.9</ele>
        <time>2021-08-13T10:21:20Z</time>
      </trkpt>
      <trkpt lat="46.97921" lon="6.55234">
        <ele>1067</ele>
        <time>2021-08-13T10:21:22Z</time>
      </trkpt>
      <trkpt lat="46.97921" lon="6.55233">
        <ele>1067.1</ele>
        <time>2021-08-13T10:21:23Z</time>
      </trkpt>
      <trkpt lat="46.9792" lon="6.55232">
        <ele>1067.1</ele>
        <time>2021-08-13T10:21:24Z</time>
      </trkpt>
      <trkpt lat="46.97919" lon="6.5523">
        <ele>1067.2</ele>
        <time>2021-08-13T10:21:25Z</time>
      </trkpt>
      <trkpt lat="46.97918" lon="6.55227">
        <ele>1067.3</ele>
        <time>2021-08-13T10:21:27Z</time>
      </trkpt>
      <trkpt lat="46.97917" lon="6.55223">
        <ele>1067.4</ele>
        <time>2021-08-13T10:21:28Z</time>
      </trkpt>
      <trkpt lat="46.97916" lon="6.55222">
        <ele>1067.4</ele>
        <time>2021-08-13T10:21:29Z</time>
      </trkpt>
      <trkpt lat="46.97913" lon="6.55216">
        <ele>1067.6</ele>
        <time>2021-08-13T10:21:31Z</time>
      </trkpt>
      <trkpt lat="46.97912" lon="6.55214">
        <ele>1067.6</ele>
        <time>2021-08-13T10:21:32Z</time>
      </trkpt>
      <trkpt lat="46.9791" lon="6.55209">
        <ele>1067.7</ele>
        <time>2021-08-13T10:21:34Z</time>
      </trkpt>
      <trkpt lat="46.97907" lon="6.55207">
        <ele>1067.7</ele>
        <time>2021-08-13T10:21:35Z</time>
      </trkpt>
      <trkpt lat="46.97905" lon="6.55204">
        <ele>1067.7</ele>
        <time>2021-08-13T10:21:37Z</time>
      </trkpt>
      <trkpt lat="46.97904" lon="6.55203">
        <ele>1067.7</ele>
        <time>2021-08-13T10:21:38Z</time>
      </trkpt>
      <trkpt lat="46.979" lon="6.55201">
        <ele>1067.7</ele>
        <time>2021-08-13T10:21:40Z</time>
      </trkpt>
      <trkpt lat="46.97896" lon="6.552">
        <ele>1067.7</ele>
        <time>2021-08-13T10:21:41Z</time>
      </trkpt>
      <trkpt lat="46.97893" lon="6.55196">
        <ele>1067.6</ele>
        <time>2021-08-13T10:21:42Z</time>
      </trkpt>
      <trkpt lat="46.97891" lon="6.5519">
        <ele>1067.6</ele>
        <time>2021-08-13T10:21:44Z</time>
      </trkpt>
      <trkpt lat="46.9789" lon="6.55186">
        <ele>1067.6</ele>
        <time>2021-08-13T10:21:45Z</time>
      </trkpt>
      <trkpt lat="46.97887" lon="6.55179">
        <ele>1067.6</ele>
        <time>2021-08-13T10:21:47Z</time>
      </trkpt>
      <trkpt lat="46.97886" lon="6.55174">
        <ele>1067.6</ele>
        <time>2021-08-13T10:21:48Z</time>
      </trkpt>
      <trkpt lat="46.97884" lon="6.55168">
        <ele>1067.6</ele>
        <time>2021-08-13T10:21:50Z</time>
      </trkpt>
      <trkpt lat="46.97885" lon="6.55162">
        <ele>1067.6</ele>
        <time>2021-08-13T10:21:51Z</time>
      </trkpt>
      <trkpt lat="46.97885" lon="6.55155">
        <ele>1067.6</ele>
        <time>2021-08-13T10:21:53Z</time>
      </trkpt>
      <trkpt lat="46.97886" lon="6.5515">
        <ele>1067.6</ele>
        <time>2021-08-13T10:21:54Z</time>
      </trkpt>
      <trkpt lat="46.97889" lon="6.5514">
        <ele>1067.6</ele>
        <time>2021-08-13T10:21:56Z</time>
      </trkpt>
      <trkpt lat="46.97891" lon="6.55135">
        <ele>1067.7</ele>
        <time>2021-08-13T10:21:57Z</time>
      </trkpt>
      <trkpt lat="46.97891" lon="6.55131">
        <ele>1067.7</ele>
        <time>2021-08-13T10:21:58Z</time>
      </trkpt>
      <trkpt lat="46.97891" lon="6.55126">
        <ele>1067.7</ele>
        <time>2021-08-13T10:21:59Z</time>
      </trkpt>
      <trkpt lat="46.97891" lon="6.55119">
        <ele>1067.8</ele>
        <time>2021-08-13T10:22:01Z</time>
      </trkpt>
      <trkpt lat="46.9789" lon="6.55117">
        <ele>1067.8</ele>
        <time>2021-08-13T10:22:02Z</time>
      </trkpt>
      <trkpt lat="46.97889" lon="6.55114">
        <ele>1067.8</ele>
        <time>2021-08-13T10:22:03Z</time>
      </trkpt>
      <trkpt lat="46.97888" lon="6.55113">
        <ele>1067.8</ele>
        <time>2021-08-13T10:22:04Z</time>
      </trkpt>
      <trkpt lat="46.97886" lon="6.55113">
        <ele>1067.8</ele>
        <time>2021-08-13T10:22:06Z</time>
      </trkpt>
      <trkpt lat="46.97885" lon="6.55113">
        <ele>1067.8</ele>
        <time>2021-08-13T10:22:07Z</time>
      </trkpt>
      <trkpt lat="46.97884" lon="6.55111">
        <ele>1067.8</ele>
        <time>2021-08-13T10:22:09Z</time>
      </trkpt>
      <trkpt lat="46.97884" lon="6.55109">
        <ele>1067.8</ele>
        <time>2021-08-13T10:22:10Z</time>
      </trkpt>
      <trkpt lat="46.97882" lon="6.55108">
        <ele>1067.8</ele>
        <time>2021-08-13T10:22:12Z</time>
      </trkpt>
      <trkpt lat="46.97881" lon="6.55109">
        <ele>1067.8</ele>
        <time>2021-08-13T10:22:13Z</time>
      </trkpt>
      <trkpt lat="46.97877" lon="6.55103">
        <ele>1067.9</ele>
        <time>2021-08-13T10:22:14Z</time>
      </trkpt>
      <trkpt lat="46.97874" lon="6.55097">
        <ele>1067.9</ele>
        <time>2021-08-13T10:22:16Z</time>
      </trkpt>
      <trkpt lat="46.97872" lon="6.5509">
        <ele>1067.9</ele>
        <time>2021-08-13T10:22:17Z</time>
      </trkpt>
      <trkpt lat="46.9787" lon="6.55083">
        <ele>1067.9</ele>
        <time>2021-08-13T10:22:19Z</time>
      </trkpt>
      <trkpt lat="46.97867" lon="6.55077">
        <ele>1068</ele>
        <time>2021-08-13T10:22:51Z</time>
      </trkpt>
      <trkpt lat="46.97865" lon="6.5507">
        <ele>1068</ele>
        <time>2021-08-13T10:22:52Z</time>
      </trkpt>
      <trkpt lat="46.97862" lon="6.55064">
        <ele>1068</ele>
        <time>2021-08-13T10:22:54Z</time>
      </trkpt>
      <trkpt lat="46.97861" lon="6.55061">
        <ele>1068</ele>
        <time>2021-08-13T10:22:55Z</time>
      </trkpt>
      <trkpt lat="46.9786" lon="6.5506">
        <ele>1068</ele>
        <time>2021-08-13T10:22:56Z</time>
      </trkpt>
      <trkpt lat="46.97859" lon="6.55059">
        <ele>1068.1</ele>
        <time>2021-08-13T10:22:58Z</time>
      </trkpt>
      <trkpt lat="46.97858" lon="6.55057">
        <ele>1068.1</ele>
        <time>2021-08-13T10:22:59Z</time>
      </trkpt>
      <trkpt lat="46.97858" lon="6.55057">
        <ele>1068.1</ele>
        <time>2021-08-13T10:23:00Z</time>
      </trkpt>
      <trkpt lat="46.97858" lon="6.55055">
        <ele>1068.1</ele>
        <time>2021-08-13T10:23:01Z</time>
      </trkpt>
      <trkpt lat="46.97857" lon="6.55055">
        <ele>1068.1</ele>
        <time>2021-08-13T10:23:02Z</time>
      </trkpt>
      <trkpt lat="46.97857" lon="6.55051">
        <ele>1068.1</ele>
        <time>2021-08-13T10:23:04Z</time>
      </trkpt>
      <trkpt lat="46.97848" lon="6.55018">
        <ele>1068.6</ele>
        <time>2021-08-13T10:23:18Z</time>
      </trkpt>
      <trkpt lat="46.97846" lon="6.55013">
        <ele>1068.8</ele>
        <time>2021-08-13T10:23:19Z</time>
      </trkpt>
      <trkpt lat="46.97845" lon="6.55008">
        <ele>1068.9</ele>
        <time>2021-08-13T10:23:20Z</time>
      </trkpt>
      <trkpt lat="46.97843" lon="6.55002">
        <ele>1069</ele>
        <time>2021-08-13T10:23:22Z</time>
      </trkpt>
      <trkpt lat="46.97843" lon="6.55">
        <ele>1069</ele>
        <time>2021-08-13T10:23:23Z</time>
      </trkpt>
      <trkpt lat="46.97843" lon="6.54998">
        <ele>1069</ele>
        <time>2021-08-13T10:23:24Z</time>
      </trkpt>
      <trkpt lat="46.97839" lon="6.54992">
        <ele>1069.1</ele>
        <time>2021-08-13T10:23:26Z</time>
      </trkpt>
      <trkpt lat="46.97838" lon="6.54989">
        <ele>1069.1</ele>
        <time>2021-08-13T10:23:27Z</time>
      </trkpt>
      <trkpt lat="46.97837" lon="6.54986">
        <ele>1069.2</ele>
        <time>2021-08-13T10:23:29Z</time>
      </trkpt>
      <trkpt lat="46.97837" lon="6.54983">
        <ele>1069.2</ele>
        <time>2021-08-13T10:23:30Z</time>
      </trkpt>
      <trkpt lat="46.97836" lon="6.54979">
        <ele>1069.2</ele>
        <time>2021-08-13T10:23:32Z</time>
      </trkpt>
      <trkpt lat="46.97835" lon="6.54975">
        <ele>1069.2</ele>
        <time>2021-08-13T10:23:33Z</time>
      </trkpt>
      <trkpt lat="46.97832" lon="6.54973">
        <ele>1069.2</ele>
        <time>2021-08-13T10:23:34Z</time>
      </trkpt>
      <trkpt lat="46.97827" lon="6.54969">
        <ele>1069.1</ele>
        <time>2021-08-13T10:23:35Z</time>
      </trkpt>
      <trkpt lat="46.97823" lon="6.54966">
        <ele>1069</ele>
        <time>2021-08-13T10:23:36Z</time>
      </trkpt>
      <trkpt lat="46.97819" lon="6.54962">
        <ele>1069</ele>
        <time>2021-08-13T10:23:37Z</time>
      </trkpt>
      <trkpt lat="46.97815" lon="6.54958">
        <ele>1068.9</ele>
        <time>2021-08-13T10:23:38Z</time>
      </trkpt>
      <trkpt lat="46.9781" lon="6.54954">
        <ele>1068.9</ele>
        <time>2021-08-13T10:23:39Z</time>
      </trkpt>
      <trkpt lat="46.97806" lon="6.54948">
        <ele>1068.8</ele>
        <time>2021-08-13T10:23:41Z</time>
      </trkpt>
      <trkpt lat="46.97802" lon="6.5494">
        <ele>1068.9</ele>
        <time>2021-08-13T10:23:43Z</time>
      </trkpt>
      <trkpt lat="46.97801" lon="6.54935">
        <ele>1068.9</ele>
        <time>2021-08-13T10:23:44Z</time>
      </trkpt>
      <trkpt lat="46.97799" lon="6.54929">
        <ele>1068.9</ele>
        <time>2021-08-13T10:23:45Z</time>
      </trkpt>
      <trkpt lat="46.97798" lon="6.54924">
        <ele>1069</ele>
        <time>2021-08-13T10:23:46Z</time>
      </trkpt>
      <trkpt lat="46.97799" lon="6.54919">
        <ele>1069</ele>
        <time>2021-08-13T10:23:47Z</time>
      </trkpt>
      <trkpt lat="46.97799" lon="6.54915">
        <ele>1069</ele>
        <time>2021-08-13T10:23:48Z</time>
      </trkpt>
      <trkpt lat="46.97799" lon="6.54911">
        <ele>1069</ele>
        <time>2021-08-13T10:23:50Z</time>
      </trkpt>
      <trkpt lat="46.97799" lon="6.54905">
        <ele>1069.1</ele>
        <time>2021-08-13T10:23:51Z</time>
      </trkpt>
      <trkpt lat="46.97799" lon="6.54901">
        <ele>1069.1</ele>
        <time>2021-08-13T10:23:52Z</time>
      </trkpt>
      <trkpt lat="46.97798" lon="6.54898">
        <ele>1069.2</ele>
        <time>2021-08-13T10:23:54Z</time>
      </trkpt>
      <trkpt lat="46.97798" lon="6.54894">
        <ele>1069.2</ele>
        <time>2021-08-13T10:23:55Z</time>
      </trkpt>
      <trkpt lat="46.97798" lon="6.54893">
        <ele>1069.2</ele>
        <time>2021-08-13T10:23:56Z</time>
      </trkpt>
      <trkpt lat="46.97795" lon="6.54852">
        <ele>1069.5</ele>
        <time>2021-08-13T10:24:02Z</time>
      </trkpt>
      <trkpt lat="46.97794" lon="6.54844">
        <ele>1069.6</ele>
        <time>2021-08-13T10:24:04Z</time>
      </trkpt>
      <trkpt lat="46.97795" lon="6.54839">
        <ele>1069.6</ele>
        <time>2021-08-13T10:24:05Z</time>
      </trkpt>
      <trkpt lat="46.97796" lon="6.54835">
        <ele>1069.6</ele>
        <time>2021-08-13T10:24:06Z</time>
      </trkpt>
      <trkpt lat="46.97797" lon="6.54829">
        <ele>1069.7</ele>
        <time>2021-08-13T10:24:07Z</time>
      </trkpt>
      <trkpt lat="46.97797" lon="6.54822">
        <ele>1069.7</ele>
        <time>2021-08-13T10:24:08Z</time>
      </trkpt>
      <trkpt lat="46.97797" lon="6.54817">
        <ele>1069.7</ele>
        <time>2021-08-13T10:24:09Z</time>
      </trkpt>
      <trkpt lat="46.97797" lon="6.54816">
        <ele>1069.7</ele>
        <time>2021-08-13T10:24:10Z</time>
      </trkpt>
      <trkpt lat="46.97797" lon="6.54811">
        <ele>1069.7</ele>
        <time>2021-08-13T10:24:12Z</time>
      </trkpt>
      <trkpt lat="46.97797" lon="6.5481">
        <ele>1069.7</ele>
        <time>2021-08-13T10:24:13Z</time>
      </trkpt>
      <trkpt lat="46.97797" lon="6.54807">
        <ele>1069.7</ele>
        <time>2021-08-13T10:24:14Z</time>
      </trkpt>
      <trkpt lat="46.97796" lon="6.54697">
        <ele>1068</ele>
        <time>2021-08-13T10:24:35Z</time>
      </trkpt>
      <trkpt lat="46.97802" lon="6.54677">
        <ele>1068.3</ele>
        <time>2021-08-13T10:24:37Z</time>
      </trkpt>
      <trkpt lat="46.97804" lon="6.54665">
        <ele>1068.6</ele>
        <time>2021-08-13T10:24:38Z</time>
      </trkpt>
      <trkpt lat="46.97804" lon="6.54657">
        <ele>1068.7</ele>
        <time>2021-08-13T10:24:40Z</time>
      </trkpt>
      <trkpt lat="46.97804" lon="6.5465">
        <ele>1068.9</ele>
        <time>2021-08-13T10:24:41Z</time>
      </trkpt>
      <trkpt lat="46.97803" lon="6.54646">
        <ele>1069</ele>
        <time>2021-08-13T10:24:42Z</time>
      </trkpt>
      <trkpt lat="46.97803" lon="6.5464">
        <ele>1069.1</ele>
        <time>2021-08-13T10:24:43Z</time>
      </trkpt>
      <trkpt lat="46.97803" lon="6.54638">
        <ele>1069.1</ele>
        <time>2021-08-13T10:24:44Z</time>
      </trkpt>
      <trkpt lat="46.97804" lon="6.5463">
        <ele>1069.2</ele>
        <time>2021-08-13T10:24:45Z</time>
      </trkpt>
      <trkpt lat="46.97805" lon="6.54621">
        <ele>1069.3</ele>
        <time>2021-08-13T10:24:47Z</time>
      </trkpt>
      <trkpt lat="46.97804" lon="6.54616">
        <ele>1069.4</ele>
        <time>2021-08-13T10:24:48Z</time>
      </trkpt>
      <trkpt lat="46.97804" lon="6.54606">
        <ele>1069.4</ele>
        <time>2021-08-13T10:24:50Z</time>
      </trkpt>
      <trkpt lat="46.97802" lon="6.54599">
        <ele>1069.3</ele>
        <time>2021-08-13T10:24:52Z</time>
      </trkpt>
      <trkpt lat="46.97799" lon="6.54595">
        <ele>1069.2</ele>
        <time>2021-08-13T10:24:54Z</time>
      </trkpt>
      <trkpt lat="46.97797" lon="6.54594">
        <ele>1069.2</ele>
        <time>2021-08-13T10:24:55Z</time>
      </trkpt>
      <trkpt lat="46.97797" lon="6.54593">
        <ele>1069.2</ele>
        <time>2021-08-13T10:24:56Z</time>
      </trkpt>
      <trkpt lat="46.97797" lon="6.54593">
        <ele>1069.2</ele>
        <time>2021-08-13T10:24:58Z</time>
      </trkpt>
      <trkpt lat="46.97797" lon="6.54593">
        <ele>1069.2</ele>
        <time>2021-08-13T10:24:59Z</time>
      </trkpt>
      <trkpt lat="46.97797" lon="6.54592">
        <ele>1069.2</ele>
        <time>2021-08-13T10:25:01Z</time>
      </trkpt>
      <trkpt lat="46.97797" lon="6.54591">
        <ele>1069.1</ele>
        <time>2021-08-13T10:25:02Z</time>
      </trkpt>
      <trkpt lat="46.97796" lon="6.5459">
        <ele>1069.1</ele>
        <time>2021-08-13T10:25:04Z</time>
      </trkpt>
      <trkpt lat="46.97795" lon="6.54587">
        <ele>1069</ele>
        <time>2021-08-13T10:25:06Z</time>
      </trkpt>
      <trkpt lat="46.97793" lon="6.54578">
        <ele>1068.8</ele>
        <time>2021-08-13T10:25:10Z</time>
      </trkpt>
      <trkpt lat="46.97792" lon="6.54571">
        <ele>1068.6</ele>
        <time>2021-08-13T10:25:12Z</time>
      </trkpt>
      <trkpt lat="46.97792" lon="6.54565">
        <ele>1068.4</ele>
        <time>2021-08-13T10:25:13Z</time>
      </trkpt>
      <trkpt lat="46.97792" lon="6.54563">
        <ele>1068.3</ele>
        <time>2021-08-13T10:25:14Z</time>
      </trkpt>
      <trkpt lat="46.97791" lon="6.54563">
        <ele>1068.3</ele>
        <time>2021-08-13T10:25:15Z</time>
      </trkpt>
      <trkpt lat="46.97791" lon="6.54562">
        <ele>1068.3</ele>
        <time>2021-08-13T10:25:17Z</time>
      </trkpt>
      <trkpt lat="46.97791" lon="6.54562">
        <ele>1068.3</ele>
        <time>2021-08-13T10:25:18Z</time>
      </trkpt>
      <trkpt lat="46.97791" lon="6.54562">
        <ele>1068.3</ele>
        <time>2021-08-13T10:25:20Z</time>
      </trkpt>
      <trkpt lat="46.97791" lon="6.54562">
        <ele>1068.3</ele>
        <time>2021-08-13T10:25:21Z</time>
      </trkpt>
      <trkpt lat="46.97791" lon="6.54562">
        <ele>1068.3</ele>
        <time>2021-08-13T10:25:22Z</time>
      </trkpt>
      <trkpt lat="46.97791" lon="6.54562">
        <ele>1068.3</ele>
        <time>2021-08-13T10:25:23Z</time>
      </trkpt>
      <trkpt lat="46.97791" lon="6.54562">
        <ele>1068.3</ele>
        <time>2021-08-13T10:25:24Z</time>
      </trkpt>
      <trkpt lat="46.97791" lon="6.54562">
        <ele>1068.3</ele>
        <time>2021-08-13T10:25:26Z</time>
      </trkpt>
      <trkpt lat="46.97791" lon="6.54562">
        <ele>1068.3</ele>
        <time>2021-08-13T10:25:27Z</time>
      </trkpt>
      <trkpt lat="46.97791" lon="6.54561">
        <ele>1068.3</ele>
        <time>2021-08-13T10:25:29Z</time>
      </trkpt>
      <trkpt lat="46.97791" lon="6.54561">
        <ele>1068.3</ele>
        <time>2021-08-13T10:25:31Z</time>
      </trkpt>
      <trkpt lat="46.97791" lon="6.54561">
        <ele>1068.3</ele>
        <time>2021-08-13T10:25:32Z</time>
      </trkpt>
      <trkpt lat="46.97791" lon="6.54561">
        <ele>1068.3</ele>
        <time>2021-08-13T10:25:34Z</time>
      </trkpt>
      <trkpt lat="46.97791" lon="6.54561">
        <ele>1068.3</ele>
        <time>2021-08-13T10:25:36Z</time>
      </trkpt>
      <trkpt lat="46.97791" lon="6.54561">
        <ele>1068.3</ele>
        <time>2021-08-13T10:25:37Z</time>
      </trkpt>
      <trkpt lat="46.97791" lon="6.54561">
        <ele>1068.3</ele>
        <time>2021-08-13T10:25:39Z</time>
      </trkpt>
      <trkpt lat="46.97791" lon="6.54561">
        <ele>1068.2</ele>
        <time>2021-08-13T10:25:40Z</time>
      </trkpt>
      <trkpt lat="46.97791" lon="6.54561">
        <ele>1068.2</ele>
        <time>2021-08-13T10:25:42Z</time>
      </trkpt>
      <trkpt lat="46.97791" lon="6.5456">
        <ele>1068.2</ele>
        <time>2021-08-13T10:25:43Z</time>
      </trkpt>
      <trkpt lat="46.97791" lon="6.5456">
        <ele>1068.2</ele>
        <time>2021-08-13T10:25:44Z</time>
      </trkpt>
      <trkpt lat="46.97791" lon="6.5456">
        <ele>1068.2</ele>
        <time>2021-08-13T10:25:46Z</time>
      </trkpt>
      <trkpt lat="46.97791" lon="6.5456">
        <ele>1068.2</ele>
        <time>2021-08-13T10:25:47Z</time>
      </trkpt>
      <trkpt lat="46.97791" lon="6.5456">
        <ele>1068.2</ele>
        <time>2021-08-13T10:25:49Z</time>
      </trkpt>
      <trkpt lat="46.97791" lon="6.5456">
        <ele>1068.2</ele>
        <time>2021-08-13T10:25:50Z</time>
      </trkpt>
      <trkpt lat="46.97791" lon="6.5456">
        <ele>1068.2</ele>
        <time>2021-08-13T10:25:52Z</time>
      </trkpt>
      <trkpt lat="46.97791" lon="6.5456">
        <ele>1068.2</ele>
        <time>2021-08-13T10:25:54Z</time>
      </trkpt>
      <trkpt lat="46.97791" lon="6.5456">
        <ele>1068.2</ele>
        <time>2021-08-13T10:25:55Z</time>
      </trkpt>
      <trkpt lat="46.97791" lon="6.54559">
        <ele>1068.2</ele>
        <time>2021-08-13T10:25:57Z</time>
      </trkpt>
      <trkpt lat="46.97791" lon="6.54559">
        <ele>1068.2</ele>
        <time>2021-08-13T10:25:59Z</time>
      </trkpt>
      <trkpt lat="46.97791" lon="6.54559">
        <ele>1068.2</ele>
        <time>2021-08-13T10:26:01Z</time>
      </trkpt>
      <trkpt lat="46.97791" lon="6.54559">
        <ele>1068.2</ele>
        <time>2021-08-13T10:26:02Z</time>
      </trkpt>
      <trkpt lat="46.97791" lon="6.54559">
        <ele>1068.2</ele>
        <time>2021-08-13T10:26:03Z</time>
      </trkpt>
      <trkpt lat="46.97791" lon="6.54559">
        <ele>1068.2</ele>
        <time>2021-08-13T10:26:04Z</time>
      </trkpt>
      <trkpt lat="46.9779" lon="6.54559">
        <ele>1068.2</ele>
        <time>2021-08-13T10:26:06Z</time>
      </trkpt>
      <trkpt lat="46.9779" lon="6.54559">
        <ele>1068.2</ele>
        <time>2021-08-13T10:26:08Z</time>
      </trkpt>
      <trkpt lat="46.9779" lon="6.54559">
        <ele>1068.2</ele>
        <time>2021-08-13T10:26:10Z</time>
      </trkpt>
      <trkpt lat="46.9779" lon="6.54558">
        <ele>1068.2</ele>
        <time>2021-08-13T10:26:12Z</time>
      </trkpt>
      <trkpt lat="46.9779" lon="6.54558">
        <ele>1068.2</ele>
        <time>2021-08-13T10:26:15Z</time>
      </trkpt>
      <trkpt lat="46.9779" lon="6.54558">
        <ele>1068.2</ele>
        <time>2021-08-13T10:26:16Z</time>
      </trkpt>
      <trkpt lat="46.9779" lon="6.54558">
        <ele>1068.1</ele>
        <time>2021-08-13T10:26:17Z</time>
      </trkpt>
      <trkpt lat="46.9779" lon="6.54558">
        <ele>1068.1</ele>
        <time>2021-08-13T10:26:18Z</time>
      </trkpt>
      <trkpt lat="46.9779" lon="6.54558">
        <ele>1068.1</ele>
        <time>2021-08-13T10:26:20Z</time>
      </trkpt>
      <trkpt lat="46.9779" lon="6.54558">
        <ele>1068.1</ele>
        <time>2021-08-13T10:26:21Z</time>
      </trkpt>
      <trkpt lat="46.9779" lon="6.54558">
        <ele>1068.1</ele>
        <time>2021-08-13T10:26:22Z</time>
      </trkpt>
      <trkpt lat="46.9779" lon="6.54558">
        <ele>1068.1</ele>
        <time>2021-08-13T10:26:24Z</time>
      </trkpt>
      <trkpt lat="46.9779" lon="6.54557">
        <ele>1068.1</ele>
        <time>2021-08-13T10:26:26Z</time>
      </trkpt>
      <trkpt lat="46.9779" lon="6.54557">
        <ele>1068.1</ele>
        <time>2021-08-13T10:26:27Z</time>
      </trkpt>
      <trkpt lat="46.9779" lon="6.54557">
        <ele>1068.1</ele>
        <time>2021-08-13T10:26:28Z</time>
      </trkpt>
      <trkpt lat="46.9779" lon="6.54557">
        <ele>1068.1</ele>
        <time>2021-08-13T10:26:30Z</time>
      </trkpt>
      <trkpt lat="46.9779" lon="6.54557">
        <ele>1068.1</ele>
        <time>2021-08-13T10:26:31Z</time>
      </trkpt>
      <trkpt lat="46.9779" lon="6.54557">
        <ele>1068.1</ele>
        <time>2021-08-13T10:26:32Z</time>
      </trkpt>
      <trkpt lat="46.9779" lon="6.54557">
        <ele>1068.1</ele>
        <time>2021-08-13T10:26:34Z</time>
      </trkpt>
      <trkpt lat="46.9779" lon="6.54557">
        <ele>1068.1</ele>
        <time>2021-08-13T10:26:35Z</time>
      </trkpt>
      <trkpt lat="46.9779" lon="6.54557">
        <ele>1068.1</ele>
        <time>2021-08-13T10:26:36Z</time>
      </trkpt>
      <trkpt lat="46.9779" lon="6.54556">
        <ele>1068.1</ele>
        <time>2021-08-13T10:26:37Z</time>
      </trkpt>
      <trkpt lat="46.97788" lon="6.5455">
        <ele>1067.9</ele>
        <time>2021-08-13T10:26:39Z</time>
      </trkpt>
      <trkpt lat="46.97784" lon="6.54543">
        <ele>1067.6</ele>
        <time>2021-08-13T10:26:41Z</time>
      </trkpt>
      <trkpt lat="46.97779" lon="6.54535">
        <ele>1067.3</ele>
        <time>2021-08-13T10:26:42Z</time>
      </trkpt>
      <trkpt lat="46.97773" lon="6.54525">
        <ele>1067</ele>
        <time>2021-08-13T10:26:44Z</time>
      </trkpt>
      <trkpt lat="46.97771" lon="6.54518">
        <ele>1066.9</ele>
        <time>2021-08-13T10:26:45Z</time>
      </trkpt>
      <trkpt lat="46.97769" lon="6.54512">
        <ele>1066.8</ele>
        <time>2021-08-13T10:26:46Z</time>
      </trkpt>
      <trkpt lat="46.97766" lon="6.54506">
        <ele>1066.8</ele>
        <time>2021-08-13T10:26:47Z</time>
      </trkpt>
      <trkpt lat="46.97764" lon="6.545">
        <ele>1066.8</ele>
        <time>2021-08-13T10:26:48Z</time>
      </trkpt>
      <trkpt lat="46.97759" lon="6.5449">
        <ele>1066.8</ele>
        <time>2021-08-13T10:26:50Z</time>
      </trkpt>
      <trkpt lat="46.97757" lon="6.54481">
        <ele>1066.9</ele>
        <time>2021-08-13T10:26:52Z</time>
      </trkpt>
      <trkpt lat="46.97755" lon="6.54476">
        <ele>1066.9</ele>
        <time>2021-08-13T10:26:53Z</time>
      </trkpt>
      <trkpt lat="46.97754" lon="6.54473">
        <ele>1066.9</ele>
        <time>2021-08-13T10:26:54Z</time>
      </trkpt>
      <trkpt lat="46.97753" lon="6.54468">
        <ele>1066.9</ele>
        <time>2021-08-13T10:26:56Z</time>
      </trkpt>
      <trkpt lat="46.97751" lon="6.54462">
        <ele>1067</ele>
        <time>2021-08-13T10:26:58Z</time>
      </trkpt>
      <trkpt lat="46.97749" lon="6.54459">
        <ele>1067</ele>
        <time>2021-08-13T10:26:59Z</time>
      </trkpt>
      <trkpt lat="46.97748" lon="6.54453">
        <ele>1067</ele>
        <time>2021-08-13T10:27:01Z</time>
      </trkpt>
      <trkpt lat="46.97747" lon="6.54448">
        <ele>1067</ele>
        <time>2021-08-13T10:27:02Z</time>
      </trkpt>
      <trkpt lat="46.97745" lon="6.54442">
        <ele>1067.1</ele>
        <time>2021-08-13T10:27:04Z</time>
      </trkpt>
      <trkpt lat="46.97743" lon="6.54441">
        <ele>1067.1</ele>
        <time>2021-08-13T10:27:05Z</time>
      </trkpt>
      <trkpt lat="46.97741" lon="6.54438">
        <ele>1067.1</ele>
        <time>2021-08-13T10:27:07Z</time>
      </trkpt>
      <trkpt lat="46.9774" lon="6.54435">
        <ele>1067.1</ele>
        <time>2021-08-13T10:27:08Z</time>
      </trkpt>
      <trkpt lat="46.97739" lon="6.54433">
        <ele>1067.1</ele>
        <time>2021-08-13T10:27:09Z</time>
      </trkpt>
      <trkpt lat="46.97738" lon="6.54429">
        <ele>1067.1</ele>
        <time>2021-08-13T10:27:10Z</time>
      </trkpt>
      <trkpt lat="46.97737" lon="6.54428">
        <ele>1067.2</ele>
        <time>2021-08-13T10:27:11Z</time>
      </trkpt>
      <trkpt lat="46.97736" lon="6.54424">
        <ele>1067.2</ele>
        <time>2021-08-13T10:27:13Z</time>
      </trkpt>
      <trkpt lat="46.97734" lon="6.54421">
        <ele>1067.2</ele>
        <time>2021-08-13T10:27:14Z</time>
      </trkpt>
      <trkpt lat="46.97703" lon="6.54308">
        <ele>1068.4</ele>
        <time>2021-08-13T10:27:53Z</time>
      </trkpt>
      <trkpt lat="46.97704" lon="6.54303">
        <ele>1068.5</ele>
        <time>2021-08-13T10:27:55Z</time>
      </trkpt>
      <trkpt lat="46.97705" lon="6.54299">
        <ele>1068.5</ele>
        <time>2021-08-13T10:27:56Z</time>
      </trkpt>
      <trkpt lat="46.97705" lon="6.54293">
        <ele>1068.6</ele>
        <time>2021-08-13T10:27:57Z</time>
      </trkpt>
      <trkpt lat="46.97704" lon="6.54291">
        <ele>1068.6</ele>
        <time>2021-08-13T10:27:58Z</time>
      </trkpt>
      <trkpt lat="46.97703" lon="6.54287">
        <ele>1068.7</ele>
        <time>2021-08-13T10:28:00Z</time>
      </trkpt>
      <trkpt lat="46.97702" lon="6.54284">
        <ele>1068.7</ele>
        <time>2021-08-13T10:28:01Z</time>
      </trkpt>
      <trkpt lat="46.97701" lon="6.54283">
        <ele>1068.7</ele>
        <time>2021-08-13T10:28:02Z</time>
      </trkpt>
      <trkpt lat="46.97698" lon="6.54279">
        <ele>1068.8</ele>
        <time>2021-08-13T10:28:03Z</time>
      </trkpt>
      <trkpt lat="46.97696" lon="6.54275">
        <ele>1068.8</ele>
        <time>2021-08-13T10:28:04Z</time>
      </trkpt>
      <trkpt lat="46.97696" lon="6.54273">
        <ele>1068.8</ele>
        <time>2021-08-13T10:28:06Z</time>
      </trkpt>
      <trkpt lat="46.97695" lon="6.54271">
        <ele>1068.9</ele>
        <time>2021-08-13T10:28:07Z</time>
      </trkpt>
      <trkpt lat="46.97694" lon="6.54269">
        <ele>1068.9</ele>
        <time>2021-08-13T10:28:08Z</time>
      </trkpt>
      <trkpt lat="46.97692" lon="6.54267">
        <ele>1068.9</ele>
        <time>2021-08-13T10:28:10Z</time>
      </trkpt>
      <trkpt lat="46.97679" lon="6.54212">
        <ele>1068.6</ele>
        <time>2021-08-13T10:28:25Z</time>
      </trkpt>
      <trkpt lat="46.97678" lon="6.54208">
        <ele>1068.6</ele>
        <time>2021-08-13T10:28:26Z</time>
      </trkpt>
      <trkpt lat="46.97677" lon="6.542">
        <ele>1068.6</ele>
        <time>2021-08-13T10:28:28Z</time>
      </trkpt>
      <trkpt lat="46.97675" lon="6.54196">
        <ele>1068.5</ele>
        <time>2021-08-13T10:28:29Z</time>
      </trkpt>
      <trkpt lat="46.97673" lon="6.54187">
        <ele>1068.5</ele>
        <time>2021-08-13T10:28:31Z</time>
      </trkpt>
      <trkpt lat="46.97672" lon="6.54183">
        <ele>1068.4</ele>
        <time>2021-08-13T10:28:32Z</time>
      </trkpt>
      <trkpt lat="46.9767" lon="6.54178">
        <ele>1068.4</ele>
        <time>2021-08-13T10:28:33Z</time>
      </trkpt>
      <trkpt lat="46.97668" lon="6.54174">
        <ele>1068.3</ele>
        <time>2021-08-13T10:28:34Z</time>
      </trkpt>
      <trkpt lat="46.97667" lon="6.5417">
        <ele>1068.3</ele>
        <time>2021-08-13T10:28:35Z</time>
      </trkpt>
      <trkpt lat="46.97666" lon="6.54169">
        <ele>1068.3</ele>
        <time>2021-08-13T10:28:36Z</time>
      </trkpt>
      <trkpt lat="46.97666" lon="6.54163">
        <ele>1068.2</ele>
        <time>2021-08-13T10:28:38Z</time>
      </trkpt>
      <trkpt lat="46.97666" lon="6.54162">
        <ele>1068.2</ele>
        <time>2021-08-13T10:28:39Z</time>
      </trkpt>
      <trkpt lat="46.97666" lon="6.54154">
        <ele>1068.1</ele>
        <time>2021-08-13T10:28:41Z</time>
      </trkpt>
      <trkpt lat="46.97651" lon="6.54058">
        <ele>1066.1</ele>
        <time>2021-08-13T10:29:04Z</time>
      </trkpt>
      <trkpt lat="46.97638" lon="6.54038">
        <ele>1065.4</ele>
        <time>2021-08-13T10:29:05Z</time>
      </trkpt>
      <trkpt lat="46.97634" lon="6.5403">
        <ele>1065.2</ele>
        <time>2021-08-13T10:29:06Z</time>
      </trkpt>
      <trkpt lat="46.97632" lon="6.54025">
        <ele>1065</ele>
        <time>2021-08-13T10:29:08Z</time>
      </trkpt>
      <trkpt lat="46.9763" lon="6.54021">
        <ele>1064.9</ele>
        <time>2021-08-13T10:29:09Z</time>
      </trkpt>
      <trkpt lat="46.97625" lon="6.54009">
        <ele>1064.5</ele>
        <time>2021-08-13T10:29:10Z</time>
      </trkpt>
      <trkpt lat="46.97622" lon="6.53999">
        <ele>1064.3</ele>
        <time>2021-08-13T10:29:12Z</time>
      </trkpt>
      <trkpt lat="46.97619" lon="6.5399">
        <ele>1064.1</ele>
        <time>2021-08-13T10:29:13Z</time>
      </trkpt>
      <trkpt lat="46.97618" lon="6.53985">
        <ele>1064</ele>
        <time>2021-08-13T10:29:14Z</time>
      </trkpt>
      <trkpt lat="46.97613" lon="6.53976">
        <ele>1063.9</ele>
        <time>2021-08-13T10:29:15Z</time>
      </trkpt>
      <trkpt lat="46.97611" lon="6.5397">
        <ele>1063.8</ele>
        <time>2021-08-13T10:29:17Z</time>
      </trkpt>
      <trkpt lat="46.97606" lon="6.53949">
        <ele>1063.6</ele>
        <time>2021-08-13T10:29:19Z</time>
      </trkpt>
      <trkpt lat="46.97606" lon="6.53945">
        <ele>1063.6</ele>
        <time>2021-08-13T10:29:20Z</time>
      </trkpt>
      <trkpt lat="46.97603" lon="6.53936">
        <ele>1063.6</ele>
        <time>2021-08-13T10:29:21Z</time>
      </trkpt>
      <trkpt lat="46.976" lon="6.53927">
        <ele>1063.5</ele>
        <time>2021-08-13T10:29:22Z</time>
      </trkpt>
      <trkpt lat="46.97595" lon="6.53916">
        <ele>1063.5</ele>
        <time>2021-08-13T10:29:24Z</time>
      </trkpt>
      <trkpt lat="46.9759" lon="6.53906">
        <ele>1063.4</ele>
        <time>2021-08-13T10:29:25Z</time>
      </trkpt>
      <trkpt lat="46.97588" lon="6.53898">
        <ele>1063.2</ele>
        <time>2021-08-13T10:29:27Z</time>
      </trkpt>
      <trkpt lat="46.97586" lon="6.53891">
        <ele>1063.1</ele>
        <time>2021-08-13T10:29:28Z</time>
      </trkpt>
      <trkpt lat="46.97584" lon="6.53885">
        <ele>1063</ele>
        <time>2021-08-13T10:29:29Z</time>
      </trkpt>
      <trkpt lat="46.97583" lon="6.53879">
        <ele>1062.9</ele>
        <time>2021-08-13T10:29:31Z</time>
      </trkpt>
      <trkpt lat="46.97583" lon="6.5387">
        <ele>1062.8</ele>
        <time>2021-08-13T10:29:33Z</time>
      </trkpt>
      <trkpt lat="46.97583" lon="6.53863">
        <ele>1062.7</ele>
        <time>2021-08-13T10:29:34Z</time>
      </trkpt>
      <trkpt lat="46.97582" lon="6.53858">
        <ele>1062.6</ele>
        <time>2021-08-13T10:29:35Z</time>
      </trkpt>
      <trkpt lat="46.97582" lon="6.53854">
        <ele>1062.5</ele>
        <time>2021-08-13T10:29:36Z</time>
      </trkpt>
      <trkpt lat="46.97582" lon="6.53849">
        <ele>1062.4</ele>
        <time>2021-08-13T10:29:38Z</time>
      </trkpt>
      <trkpt lat="46.97582" lon="6.53847">
        <ele>1062.4</ele>
        <time>2021-08-13T10:29:39Z</time>
      </trkpt>
      <trkpt lat="46.97582" lon="6.53845">
        <ele>1062.4</ele>
        <time>2021-08-13T10:29:41Z</time>
      </trkpt>
      <trkpt lat="46.97582" lon="6.53847">
        <ele>1062.3</ele>
        <time>2021-08-13T10:29:42Z</time>
      </trkpt>
      <trkpt lat="46.97582" lon="6.53848">
        <ele>1062.3</ele>
        <time>2021-08-13T10:29:43Z</time>
      </trkpt>
      <trkpt lat="46.97582" lon="6.53848">
        <ele>1062.3</ele>
        <time>2021-08-13T10:29:44Z</time>
      </trkpt>
      <trkpt lat="46.97582" lon="6.53848">
        <ele>1062.3</ele>
        <time>2021-08-13T10:29:46Z</time>
      </trkpt>
      <trkpt lat="46.97582" lon="6.53848">
        <ele>1062.3</ele>
        <time>2021-08-13T10:29:47Z</time>
      </trkpt>
      <trkpt lat="46.97582" lon="6.53848">
        <ele>1062.3</ele>
        <time>2021-08-13T10:29:49Z</time>
      </trkpt>
      <trkpt lat="46.97582" lon="6.53848">
        <ele>1062.3</ele>
        <time>2021-08-13T10:29:50Z</time>
      </trkpt>
      <trkpt lat="46.97582" lon="6.53848">
        <ele>1062.3</ele>
        <time>2021-08-13T10:29:51Z</time>
      </trkpt>
      <trkpt lat="46.97568" lon="6.5389">
        <ele>1064</ele>
        <time>2021-08-13T10:30:44Z</time>
      </trkpt>
      <trkpt lat="46.97564" lon="6.5389">
        <ele>1064.4</ele>
        <time>2021-08-13T10:30:45Z</time>
      </trkpt>
      <trkpt lat="46.97559" lon="6.53892">
        <ele>1065</ele>
        <time>2021-08-13T10:30:46Z</time>
      </trkpt>
      <trkpt lat="46.97555" lon="6.53894">
        <ele>1065.4</ele>
        <time>2021-08-13T10:30:47Z</time>
      </trkpt>
      <trkpt lat="46.97552" lon="6.53894">
        <ele>1065.9</ele>
        <time>2021-08-13T10:30:49Z</time>
      </trkpt>
      <trkpt lat="46.97547" lon="6.53894">
        <ele>1066.6</ele>
        <time>2021-08-13T10:30:51Z</time>
      </trkpt>
      <trkpt lat="46.97545" lon="6.53894">
        <ele>1066.9</ele>
        <time>2021-08-13T10:30:52Z</time>
      </trkpt>
      <trkpt lat="46.97543" lon="6.53894">
        <ele>1067.1</ele>
        <time>2021-08-13T10:30:53Z</time>
      </trkpt>
      <trkpt lat="46.97542" lon="6.53894">
        <ele>1067.4</ele>
        <time>2021-08-13T10:30:54Z</time>
      </trkpt>
      <trkpt lat="46.97538" lon="6.53894">
        <ele>1068</ele>
        <time>2021-08-13T10:30:56Z</time>
      </trkpt>
      <trkpt lat="46.97537" lon="6.53894">
        <ele>1068.2</ele>
        <time>2021-08-13T10:30:58Z</time>
      </trkpt>
      <trkpt lat="46.97537" lon="6.53894">
        <ele>1068.2</ele>
        <time>2021-08-13T10:30:59Z</time>
      </trkpt>
      <trkpt lat="46.97537" lon="6.53894">
        <ele>1068.2</ele>
        <time>2021-08-13T10:31:00Z</time>
      </trkpt>
      <trkpt lat="46.97537" lon="6.53894">
        <ele>1068.3</ele>
        <time>2021-08-13T10:31:02Z</time>
      </trkpt>
      <trkpt lat="46.97538" lon="6.53893">
        <ele>1068.4</ele>
        <time>2021-08-13T10:31:03Z</time>
      </trkpt>
      <trkpt lat="46.97538" lon="6.53892">
        <ele>1068.5</ele>
        <time>2021-08-13T10:31:04Z</time>
      </trkpt>
      <trkpt lat="46.97538" lon="6.53891">
        <ele>1068.7</ele>
        <time>2021-08-13T10:31:06Z</time>
      </trkpt>
      <trkpt lat="46.97526" lon="6.53891">
        <ele>1070.4</ele>
        <time>2021-08-13T10:32:53Z</time>
      </trkpt>
      <trkpt lat="46.97537" lon="6.53894">
        <ele>1068.5</ele>
        <time>2021-08-13T10:32:55Z</time>
      </trkpt>
      <trkpt lat="46.97543" lon="6.53893">
        <ele>1067.4</ele>
        <time>2021-08-13T10:32:56Z</time>
      </trkpt>
      <trkpt lat="46.9755" lon="6.53893">
        <ele>1066.3</ele>
        <time>2021-08-13T10:32:57Z</time>
      </trkpt>
      <trkpt lat="46.97558" lon="6.53891">
        <ele>1065.1</ele>
        <time>2021-08-13T10:32:59Z</time>
      </trkpt>
      <trkpt lat="46.97562" lon="6.5389">
        <ele>1064.6</ele>
        <time>2021-08-13T10:33:00Z</time>
      </trkpt>
      <trkpt lat="46.97567" lon="6.53888">
        <ele>1064.1</ele>
        <time>2021-08-13T10:33:01Z</time>
      </trkpt>
      <trkpt lat="46.97569" lon="6.53886">
        <ele>1063.7</ele>
        <time>2021-08-13T10:33:02Z</time>
      </trkpt>
      <trkpt lat="46.97572" lon="6.53884">
        <ele>1063.4</ele>
        <time>2021-08-13T10:33:04Z</time>
      </trkpt>
      <trkpt lat="46.97576" lon="6.53882">
        <ele>1063.1</ele>
        <time>2021-08-13T10:33:05Z</time>
      </trkpt>
      <trkpt lat="46.97578" lon="6.53879">
        <ele>1062.8</ele>
        <time>2021-08-13T10:33:07Z</time>
      </trkpt>
      <trkpt lat="46.97578" lon="6.53877">
        <ele>1062.7</ele>
        <time>2021-08-13T10:33:08Z</time>
      </trkpt>
      <trkpt lat="46.97578" lon="6.53874">
        <ele>1062.3</ele>
        <time>2021-08-13T10:33:09Z</time>
      </trkpt>
      <trkpt lat="46.97579" lon="6.53869">
        <ele>1062.2</ele>
        <time>2021-08-13T10:33:11Z</time>
      </trkpt>
      <trkpt lat="46.97578" lon="6.53861">
        <ele>1062.1</ele>
        <time>2021-08-13T10:33:13Z</time>
      </trkpt>
      <trkpt lat="46.97578" lon="6.53859">
        <ele>1062</ele>
        <time>2021-08-13T10:33:14Z</time>
      </trkpt>
      <trkpt lat="46.97578" lon="6.53856">
        <ele>1062</ele>
        <time>2021-08-13T10:33:15Z</time>
      </trkpt>
      <trkpt lat="46.97578" lon="6.53848">
        <ele>1061.8</ele>
        <time>2021-08-13T10:33:17Z</time>
      </trkpt>
      <trkpt lat="46.97577" lon="6.53843">
        <ele>1061.7</ele>
        <time>2021-08-13T10:33:18Z</time>
      </trkpt>
      <trkpt lat="46.97577" lon="6.53836">
        <ele>1061.6</ele>
        <time>2021-08-13T10:33:20Z</time>
      </trkpt>
      <trkpt lat="46.97577" lon="6.53828">
        <ele>1061.4</ele>
        <time>2021-08-13T10:33:21Z</time>
      </trkpt>
      <trkpt lat="46.97576" lon="6.53822">
        <ele>1061.3</ele>
        <time>2021-08-13T10:33:22Z</time>
      </trkpt>
      <trkpt lat="46.97575" lon="6.53816">
        <ele>1061.1</ele>
        <time>2021-08-13T10:33:23Z</time>
      </trkpt>
      <trkpt lat="46.97575" lon="6.53809">
        <ele>1061</ele>
        <time>2021-08-13T10:33:25Z</time>
      </trkpt>
      <trkpt lat="46.97575" lon="6.53801">
        <ele>1060.8</ele>
        <time>2021-08-13T10:33:26Z</time>
      </trkpt>
      <trkpt lat="46.97574" lon="6.53795">
        <ele>1060.7</ele>
        <time>2021-08-13T10:33:27Z</time>
      </trkpt>
      <trkpt lat="46.97573" lon="6.5379">
        <ele>1060.5</ele>
        <time>2021-08-13T10:33:28Z</time>
      </trkpt>
      <trkpt lat="46.9757" lon="6.53783">
        <ele>1060.4</ele>
        <time>2021-08-13T10:33:29Z</time>
      </trkpt>
      <trkpt lat="46.97569" lon="6.53778">
        <ele>1060.2</ele>
        <time>2021-08-13T10:33:30Z</time>
      </trkpt>
      <trkpt lat="46.97566" lon="6.53776">
        <ele>1060.1</ele>
        <time>2021-08-13T10:33:32Z</time>
      </trkpt>
      <trkpt lat="46.97565" lon="6.53774">
        <ele>1060</ele>
        <time>2021-08-13T10:33:33Z</time>
      </trkpt>
      <trkpt lat="46.97564" lon="6.53771">
        <ele>1060</ele>
        <time>2021-08-13T10:33:34Z</time>
      </trkpt>
      <trkpt lat="46.97564" lon="6.53769">
        <ele>1059.9</ele>
        <time>2021-08-13T10:33:35Z</time>
      </trkpt>
      <trkpt lat="46.97565" lon="6.53766">
        <ele>1059.8</ele>
        <time>2021-08-13T10:33:36Z</time>
      </trkpt>
      <trkpt lat="46.97565" lon="6.53762">
        <ele>1059.7</ele>
        <time>2021-08-13T10:33:38Z</time>
      </trkpt>
      <trkpt lat="46.97564" lon="6.53759">
        <ele>1059.6</ele>
        <time>2021-08-13T10:33:39Z</time>
      </trkpt>
      <trkpt lat="46.97562" lon="6.53752">
        <ele>1059.4</ele>
        <time>2021-08-13T10:33:41Z</time>
      </trkpt>
      <trkpt lat="46.97561" lon="6.53747">
        <ele>1059.2</ele>
        <time>2021-08-13T10:33:42Z</time>
      </trkpt>
      <trkpt lat="46.9756" lon="6.53745">
        <ele>1059.2</ele>
        <time>2021-08-13T10:33:43Z</time>
      </trkpt>
      <trkpt lat="46.97559" lon="6.53741">
        <ele>1059</ele>
        <time>2021-08-13T10:33:45Z</time>
      </trkpt>
      <trkpt lat="46.97558" lon="6.53737">
        <ele>1058.9</ele>
        <time>2021-08-13T10:33:46Z</time>
      </trkpt>
      <trkpt lat="46.97559" lon="6.53734">
        <ele>1058.8</ele>
        <time>2021-08-13T10:33:47Z</time>
      </trkpt>
      <trkpt lat="46.97561" lon="6.53729">
        <ele>1058.6</ele>
        <time>2021-08-13T10:33:49Z</time>
      </trkpt>
      <trkpt lat="46.97563" lon="6.53723">
        <ele>1058.5</ele>
        <time>2021-08-13T10:33:50Z</time>
      </trkpt>
      <trkpt lat="46.97564" lon="6.53715">
        <ele>1058.1</ele>
        <time>2021-08-13T10:33:52Z</time>
      </trkpt>
      <trkpt lat="46.97565" lon="6.53709">
        <ele>1057.8</ele>
        <time>2021-08-13T10:33:53Z</time>
      </trkpt>
      <trkpt lat="46.97567" lon="6.53702">
        <ele>1057.5</ele>
        <time>2021-08-13T10:33:54Z</time>
      </trkpt>
      <trkpt lat="46.97568" lon="6.53694">
        <ele>1057</ele>
        <time>2021-08-13T10:33:55Z</time>
      </trkpt>
      <trkpt lat="46.97566" lon="6.53684">
        <ele>1056.3</ele>
        <time>2021-08-13T10:33:57Z</time>
      </trkpt>
      <trkpt lat="46.97564" lon="6.53678">
        <ele>1056.2</ele>
        <time>2021-08-13T10:33:58Z</time>
      </trkpt>
      <trkpt lat="46.97564" lon="6.53671">
        <ele>1056</ele>
        <time>2021-08-13T10:34:00Z</time>
      </trkpt>
      <trkpt lat="46.97562" lon="6.53667">
        <ele>1055.9</ele>
        <time>2021-08-13T10:34:01Z</time>
      </trkpt>
      <trkpt lat="46.97558" lon="6.53654">
        <ele>1055.7</ele>
        <time>2021-08-13T10:34:02Z</time>
      </trkpt>
      <trkpt lat="46.97554" lon="6.53638">
        <ele>1055.6</ele>
        <time>2021-08-13T10:34:04Z</time>
      </trkpt>
      <trkpt lat="46.97553" lon="6.53632">
        <ele>1055.7</ele>
        <time>2021-08-13T10:34:05Z</time>
      </trkpt>
      <trkpt lat="46.97549" lon="6.53622">
        <ele>1055.8</ele>
        <time>2021-08-13T10:34:07Z</time>
      </trkpt>
      <trkpt lat="46.97548" lon="6.53618">
        <ele>1055.7</ele>
        <time>2021-08-13T10:34:08Z</time>
      </trkpt>
      <trkpt lat="46.97544" lon="6.53612">
        <ele>1055.7</ele>
        <time>2021-08-13T10:34:10Z</time>
      </trkpt>
      <trkpt lat="46.9755" lon="6.53617">
        <ele>1055.6</ele>
        <time>2021-08-13T10:34:11Z</time>
      </trkpt>
      <trkpt lat="46.97554" lon="6.53621">
        <ele>1055.6</ele>
        <time>2021-08-13T10:34:12Z</time>
      </trkpt>
      <trkpt lat="46.97556" lon="6.53628">
        <ele>1055.6</ele>
        <time>2021-08-13T10:34:13Z</time>
      </trkpt>
      <trkpt lat="46.9756" lon="6.53635">
        <ele>1055.7</ele>
        <time>2021-08-13T10:34:15Z</time>
      </trkpt>
      <trkpt lat="46.97562" lon="6.53638">
        <ele>1055.7</ele>
        <time>2021-08-13T10:34:16Z</time>
      </trkpt>
      <trkpt lat="46.97566" lon="6.53642">
        <ele>1055.7</ele>
        <time>2021-08-13T10:34:17Z</time>
      </trkpt>
      <trkpt lat="46.9757" lon="6.53647">
        <ele>1055.8</ele>
        <time>2021-08-13T10:34:18Z</time>
      </trkpt>
      <trkpt lat="46.97573" lon="6.5365">
        <ele>1055.8</ele>
        <time>2021-08-13T10:34:19Z</time>
      </trkpt>
      <trkpt lat="46.97575" lon="6.53652">
        <ele>1055.9</ele>
        <time>2021-08-13T10:34:20Z</time>
      </trkpt>
      <trkpt lat="46.97579" lon="6.53655">
        <ele>1056</ele>
        <time>2021-08-13T10:34:21Z</time>
      </trkpt>
      <trkpt lat="46.97583" lon="6.53656">
        <ele>1055.8</ele>
        <time>2021-08-13T10:34:23Z</time>
      </trkpt>
      <trkpt lat="46.97586" lon="6.53657">
        <ele>1055.6</ele>
        <time>2021-08-13T10:34:24Z</time>
      </trkpt>
      <trkpt lat="46.97591" lon="6.53656">
        <ele>1055.4</ele>
        <time>2021-08-13T10:34:25Z</time>
      </trkpt>
      <trkpt lat="46.97594" lon="6.53655">
        <ele>1055.2</ele>
        <time>2021-08-13T10:34:27Z</time>
      </trkpt>
      <trkpt lat="46.976" lon="6.53656">
        <ele>1054.9</ele>
        <time>2021-08-13T10:34:28Z</time>
      </trkpt>
      <trkpt lat="46.97606" lon="6.53652">
        <ele>1054.5</ele>
        <time>2021-08-13T10:34:30Z</time>
      </trkpt>
      <trkpt lat="46.97611" lon="6.53648">
        <ele>1054.2</ele>
        <time>2021-08-13T10:34:31Z</time>
      </trkpt>
      <trkpt lat="46.97616" lon="6.53645">
        <ele>1053.9</ele>
        <time>2021-08-13T10:34:32Z</time>
      </trkpt>
      <trkpt lat="46.97626" lon="6.53638">
        <ele>1053.4</ele>
        <time>2021-08-13T10:34:34Z</time>
      </trkpt>
      <trkpt lat="46.97636" lon="6.5363">
        <ele>1053</ele>
        <time>2021-08-13T10:34:36Z</time>
      </trkpt>
      <trkpt lat="46.97646" lon="6.53622">
        <ele>1052.7</ele>
        <time>2021-08-13T10:34:38Z</time>
      </trkpt>
      <trkpt lat="46.97655" lon="6.53612">
        <ele>1052.4</ele>
        <time>2021-08-13T10:34:40Z</time>
      </trkpt>
      <trkpt lat="46.97664" lon="6.53603">
        <ele>1052</ele>
        <time>2021-08-13T10:34:42Z</time>
      </trkpt>
      <trkpt lat="46.97673" lon="6.53595">
        <ele>1051.6</ele>
        <time>2021-08-13T10:34:44Z</time>
      </trkpt>
      <trkpt lat="46.97681" lon="6.53586">
        <ele>1051.2</ele>
        <time>2021-08-13T10:34:46Z</time>
      </trkpt>
      <trkpt lat="46.9769" lon="6.53576">
        <ele>1050.8</ele>
        <time>2021-08-13T10:34:48Z</time>
      </trkpt>
      <trkpt lat="46.97694" lon="6.53571">
        <ele>1050.6</ele>
        <time>2021-08-13T10:34:49Z</time>
      </trkpt>
      <trkpt lat="46.97697" lon="6.53568">
        <ele>1050.4</ele>
        <time>2021-08-13T10:34:50Z</time>
      </trkpt>
      <trkpt lat="46.97702" lon="6.53563">
        <ele>1050.2</ele>
        <time>2021-08-13T10:34:52Z</time>
      </trkpt>
      <trkpt lat="46.97704" lon="6.5356">
        <ele>1050.1</ele>
        <time>2021-08-13T10:34:53Z</time>
      </trkpt>
      <trkpt lat="46.97706" lon="6.53558">
        <ele>1050</ele>
        <time>2021-08-13T10:34:54Z</time>
      </trkpt>
      <trkpt lat="46.97708" lon="6.53556">
        <ele>1049.9</ele>
        <time>2021-08-13T10:34:56Z</time>
      </trkpt>
      <trkpt lat="46.97708" lon="6.53556">
        <ele>1049.9</ele>
        <time>2021-08-13T10:34:57Z</time>
      </trkpt>
      <trkpt lat="46.97708" lon="6.53557">
        <ele>1049.9</ele>
        <time>2021-08-13T10:34:59Z</time>
      </trkpt>
      <trkpt lat="46.97707" lon="6.53556">
        <ele>1049.9</ele>
        <time>2021-08-13T10:35:01Z</time>
      </trkpt>
      <trkpt lat="46.97707" lon="6.53556">
        <ele>1049.9</ele>
        <time>2021-08-13T10:35:02Z</time>
      </trkpt>
      <trkpt lat="46.97707" lon="6.53556">
        <ele>1049.9</ele>
        <time>2021-08-13T10:35:04Z</time>
      </trkpt>
      <trkpt lat="46.97717" lon="6.53538">
        <ele>1049.2</ele>
        <time>2021-08-13T10:35:15Z</time>
      </trkpt>
      <trkpt lat="46.97723" lon="6.5353">
        <ele>1048.9</ele>
        <time>2021-08-13T10:35:17Z</time>
      </trkpt>
      <trkpt lat="46.97731" lon="6.53522">
        <ele>1048.3</ele>
        <time>2021-08-13T10:35:19Z</time>
      </trkpt>
      <trkpt lat="46.97735" lon="6.53518">
        <ele>1048</ele>
        <time>2021-08-13T10:35:20Z</time>
      </trkpt>
      <trkpt lat="46.9774" lon="6.53515">
        <ele>1047.6</ele>
        <time>2021-08-13T10:35:21Z</time>
      </trkpt>
      <trkpt lat="46.97748" lon="6.5351">
        <ele>1047</ele>
        <time>2021-08-13T10:35:22Z</time>
      </trkpt>
      <trkpt lat="46.97752" lon="6.53506">
        <ele>1046.5</ele>
        <time>2021-08-13T10:35:24Z</time>
      </trkpt>
      <trkpt lat="46.97758" lon="6.53502">
        <ele>1046</ele>
        <time>2021-08-13T10:35:25Z</time>
      </trkpt>
      <trkpt lat="46.97769" lon="6.53494">
        <ele>1045</ele>
        <time>2021-08-13T10:35:27Z</time>
      </trkpt>
      <trkpt lat="46.97776" lon="6.5349">
        <ele>1044.4</ele>
        <time>2021-08-13T10:35:28Z</time>
      </trkpt>
      <trkpt lat="46.97791" lon="6.53485">
        <ele>1043.3</ele>
        <time>2021-08-13T10:35:30Z</time>
      </trkpt>
      <trkpt lat="46.97809" lon="6.53479">
        <ele>1042.3</ele>
        <time>2021-08-13T10:35:32Z</time>
      </trkpt>
      <trkpt lat="46.97823" lon="6.53474">
        <ele>1041.6</ele>
        <time>2021-08-13T10:35:34Z</time>
      </trkpt>
      <trkpt lat="46.97834" lon="6.53471">
        <ele>1041.2</ele>
        <time>2021-08-13T10:35:36Z</time>
      </trkpt>
      <trkpt lat="46.97845" lon="6.53466">
        <ele>1040.8</ele>
        <time>2021-08-13T10:35:38Z</time>
      </trkpt>
      <trkpt lat="46.97854" lon="6.53461">
        <ele>1040.5</ele>
        <time>2021-08-13T10:35:40Z</time>
      </trkpt>
      <trkpt lat="46.97856" lon="6.53459">
        <ele>1040.4</ele>
        <time>2021-08-13T10:35:41Z</time>
      </trkpt>
      <trkpt lat="46.97858" lon="6.53458">
        <ele>1040.4</ele>
        <time>2021-08-13T10:35:42Z</time>
      </trkpt>
      <trkpt lat="46.97858" lon="6.53458">
        <ele>1040.4</ele>
        <time>2021-08-13T10:35:43Z</time>
      </trkpt>
      <trkpt lat="46.97858" lon="6.53458">
        <ele>1040.4</ele>
        <time>2021-08-13T10:35:44Z</time>
      </trkpt>
      <trkpt lat="46.97858" lon="6.53458">
        <ele>1040.4</ele>
        <time>2021-08-13T10:35:46Z</time>
      </trkpt>
      <trkpt lat="46.97858" lon="6.53458">
        <ele>1040.4</ele>
        <time>2021-08-13T10:35:48Z</time>
      </trkpt>
      <trkpt lat="46.97858" lon="6.53458">
        <ele>1040.4</ele>
        <time>2021-08-13T10:35:50Z</time>
      </trkpt>
      <trkpt lat="46.97858" lon="6.53458">
        <ele>1040.4</ele>
        <time>2021-08-13T10:35:51Z</time>
      </trkpt>
      <trkpt lat="46.97862" lon="6.53458">
        <ele>1040.2</ele>
        <time>2021-08-13T10:35:53Z</time>
      </trkpt>
      <trkpt lat="46.9786" lon="6.5344">
        <ele>1039.7</ele>
        <time>2021-08-13T10:36:11Z</time>
      </trkpt>
      <trkpt lat="46.97857" lon="6.53436">
        <ele>1039.7</ele>
        <time>2021-08-13T10:36:12Z</time>
      </trkpt>
      <trkpt lat="46.97854" lon="6.53432">
        <ele>1039.8</ele>
        <time>2021-08-13T10:36:13Z</time>
      </trkpt>
      <trkpt lat="46.97852" lon="6.53429">
        <ele>1039.8</ele>
        <time>2021-08-13T10:36:15Z</time>
      </trkpt>
      <trkpt lat="46.97851" lon="6.53428">
        <ele>1039.9</ele>
        <time>2021-08-13T10:36:16Z</time>
      </trkpt>
      <trkpt lat="46.9785" lon="6.53426">
        <ele>1039.9</ele>
        <time>2021-08-13T10:36:17Z</time>
      </trkpt>
      <trkpt lat="46.97849" lon="6.53425">
        <ele>1039.9</ele>
        <time>2021-08-13T10:36:18Z</time>
      </trkpt>
      <trkpt lat="46.97848" lon="6.53423">
        <ele>1040</ele>
        <time>2021-08-13T10:36:19Z</time>
      </trkpt>
      <trkpt lat="46.97847" lon="6.53421">
        <ele>1040</ele>
        <time>2021-08-13T10:36:20Z</time>
      </trkpt>
      <trkpt lat="46.97846" lon="6.53421">
        <ele>1040</ele>
        <time>2021-08-13T10:36:22Z</time>
      </trkpt>
      <trkpt lat="46.97845" lon="6.5342">
        <ele>1040.1</ele>
        <time>2021-08-13T10:36:23Z</time>
      </trkpt>
      <trkpt lat="46.97843" lon="6.53416">
        <ele>1040.2</ele>
        <time>2021-08-13T10:36:24Z</time>
      </trkpt>
      <trkpt lat="46.97842" lon="6.53414">
        <ele>1040.3</ele>
        <time>2021-08-13T10:36:25Z</time>
      </trkpt>
      <trkpt lat="46.97839" lon="6.53412">
        <ele>1040.3</ele>
        <time>2021-08-13T10:36:26Z</time>
      </trkpt>
      <trkpt lat="46.97839" lon="6.53411">
        <ele>1040.4</ele>
        <time>2021-08-13T10:36:27Z</time>
      </trkpt>
      <trkpt lat="46.97837" lon="6.5341">
        <ele>1040.4</ele>
        <time>2021-08-13T10:36:29Z</time>
      </trkpt>
      <trkpt lat="46.97837" lon="6.5341">
        <ele>1040.4</ele>
        <time>2021-08-13T10:36:30Z</time>
      </trkpt>
      <trkpt lat="46.97838" lon="6.5341">
        <ele>1040.4</ele>
        <time>2021-08-13T10:36:32Z</time>
      </trkpt>
      <trkpt lat="46.97837" lon="6.5341">
        <ele>1040.4</ele>
        <time>2021-08-13T10:36:34Z</time>
      </trkpt>
      <trkpt lat="46.97837" lon="6.5341">
        <ele>1040.4</ele>
        <time>2021-08-13T10:36:35Z</time>
      </trkpt>
      <trkpt lat="46.97838" lon="6.53411">
        <ele>1040.4</ele>
        <time>2021-08-13T10:36:36Z</time>
      </trkpt>
      <trkpt lat="46.97839" lon="6.53412">
        <ele>1040.3</ele>
        <time>2021-08-13T10:36:38Z</time>
      </trkpt>
      <trkpt lat="46.97842" lon="6.53415">
        <ele>1040.2</ele>
        <time>2021-08-13T10:36:40Z</time>
      </trkpt>
      <trkpt lat="46.97847" lon="6.53422">
        <ele>1040</ele>
        <time>2021-08-13T10:36:42Z</time>
      </trkpt>
      <trkpt lat="46.97849" lon="6.53426">
        <ele>1039.9</ele>
        <time>2021-08-13T10:36:44Z</time>
      </trkpt>
      <trkpt lat="46.97851" lon="6.5343">
        <ele>1039.8</ele>
        <time>2021-08-13T10:36:45Z</time>
      </trkpt>
      <trkpt lat="46.97853" lon="6.53433">
        <ele>1039.8</ele>
        <time>2021-08-13T10:36:46Z</time>
      </trkpt>
      <trkpt lat="46.97856" lon="6.53439">
        <ele>1039.7</ele>
        <time>2021-08-13T10:36:47Z</time>
      </trkpt>
      <trkpt lat="46.97859" lon="6.53443">
        <ele>1039.7</ele>
        <time>2021-08-13T10:36:49Z</time>
      </trkpt>
      <trkpt lat="46.97861" lon="6.53449">
        <ele>1039.6</ele>
        <time>2021-08-13T10:36:50Z</time>
      </trkpt>
      <trkpt lat="46.97863" lon="6.53453">
        <ele>1039.6</ele>
        <time>2021-08-13T10:36:52Z</time>
      </trkpt>
      <trkpt lat="46.97864" lon="6.53456">
        <ele>1039.7</ele>
        <time>2021-08-13T10:36:53Z</time>
      </trkpt>
      <trkpt lat="46.97863" lon="6.5346">
        <ele>1039.7</ele>
        <time>2021-08-13T10:36:55Z</time>
      </trkpt>
      <trkpt lat="46.97863" lon="6.53461">
        <ele>1039.7</ele>
        <time>2021-08-13T10:36:56Z</time>
      </trkpt>
      <trkpt lat="46.97864" lon="6.53461">
        <ele>1039.8</ele>
        <time>2021-08-13T10:36:57Z</time>
      </trkpt>
      <trkpt lat="46.97865" lon="6.53462">
        <ele>1039.8</ele>
        <time>2021-08-13T10:36:58Z</time>
      </trkpt>
      <trkpt lat="46.97866" lon="6.53462">
        <ele>1039.8</ele>
        <time>2021-08-13T10:37:00Z</time>
      </trkpt>
      <trkpt lat="46.97867" lon="6.53463">
        <ele>1039.8</ele>
        <time>2021-08-13T10:37:01Z</time>
      </trkpt>
      <trkpt lat="46.97868" lon="6.53463">
        <ele>1039.9</ele>
        <time>2021-08-13T10:37:02Z</time>
      </trkpt>
      <trkpt lat="46.97871" lon="6.53465">
        <ele>1039.9</ele>
        <time>2021-08-13T10:37:03Z</time>
      </trkpt>
      <trkpt lat="46.97874" lon="6.53467">
        <ele>1039.9</ele>
        <time>2021-08-13T10:37:05Z</time>
      </trkpt>
      <trkpt lat="46.97874" lon="6.53467">
        <ele>1039.9</ele>
        <time>2021-08-13T10:37:06Z</time>
      </trkpt>
      <trkpt lat="46.97874" lon="6.53467">
        <ele>1039.9</ele>
        <time>2021-08-13T10:37:08Z</time>
      </trkpt>
      <trkpt lat="46.97872" lon="6.53466">
        <ele>1039.9</ele>
        <time>2021-08-13T10:37:09Z</time>
      </trkpt>
      <trkpt lat="46.97871" lon="6.53464">
        <ele>1039.8</ele>
        <time>2021-08-13T10:37:11Z</time>
      </trkpt>
      <trkpt lat="46.97869" lon="6.53463">
        <ele>1039.8</ele>
        <time>2021-08-13T10:37:12Z</time>
      </trkpt>
      <trkpt lat="46.97868" lon="6.53462">
        <ele>1039.7</ele>
        <time>2021-08-13T10:37:14Z</time>
      </trkpt>
      <trkpt lat="46.97866" lon="6.5346">
        <ele>1039.7</ele>
        <time>2021-08-13T10:37:16Z</time>
      </trkpt>
      <trkpt lat="46.97864" lon="6.53459">
        <ele>1039.7</ele>
        <time>2021-08-13T10:38:29Z</time>
      </trkpt>
      <trkpt lat="46.97863" lon="6.53457">
        <ele>1039.7</ele>
        <time>2021-08-13T10:38:30Z</time>
      </trkpt>
      <trkpt lat="46.9786" lon="6.53455">
        <ele>1039.6</ele>
        <time>2021-08-13T10:38:31Z</time>
      </trkpt>
      <trkpt lat="46.97858" lon="6.53453">
        <ele>1039.6</ele>
        <time>2021-08-13T10:38:33Z</time>
      </trkpt>
      <trkpt lat="46.97855" lon="6.5345">
        <ele>1039.7</ele>
        <time>2021-08-13T10:38:34Z</time>
      </trkpt>
      <trkpt lat="46.97853" lon="6.53447">
        <ele>1039.7</ele>
        <time>2021-08-13T10:38:35Z</time>
      </trkpt>
      <trkpt lat="46.97852" lon="6.53444">
        <ele>1039.7</ele>
        <time>2021-08-13T10:38:36Z</time>
      </trkpt>
      <trkpt lat="46.9785" lon="6.53441">
        <ele>1039.8</ele>
        <time>2021-08-13T10:38:38Z</time>
      </trkpt>
      <trkpt lat="46.97847" lon="6.53438">
        <ele>1039.9</ele>
        <time>2021-08-13T10:38:39Z</time>
      </trkpt>
      <trkpt lat="46.97847" lon="6.53437">
        <ele>1039.9</ele>
        <time>2021-08-13T10:38:40Z</time>
      </trkpt>
      <trkpt lat="46.97845" lon="6.53435">
        <ele>1039.9</ele>
        <time>2021-08-13T10:38:41Z</time>
      </trkpt>
      <trkpt lat="46.97844" lon="6.53433">
        <ele>1040</ele>
        <time>2021-08-13T10:38:42Z</time>
      </trkpt>
      <trkpt lat="46.97842" lon="6.5343">
        <ele>1040</ele>
        <time>2021-08-13T10:38:44Z</time>
      </trkpt>
      <trkpt lat="46.97842" lon="6.53429">
        <ele>1040.1</ele>
        <time>2021-08-13T10:38:45Z</time>
      </trkpt>
      <trkpt lat="46.97841" lon="6.53427">
        <ele>1040.1</ele>
        <time>2021-08-13T10:38:46Z</time>
      </trkpt>
      <trkpt lat="46.9784" lon="6.53425">
        <ele>1040.2</ele>
        <time>2021-08-13T10:38:47Z</time>
      </trkpt>
      <trkpt lat="46.97839" lon="6.53423">
        <ele>1040.2</ele>
        <time>2021-08-13T10:38:48Z</time>
      </trkpt>
      <trkpt lat="46.97837" lon="6.53422">
        <ele>1040.2</ele>
        <time>2021-08-13T10:38:49Z</time>
      </trkpt>
      <trkpt lat="46.97836" lon="6.53421">
        <ele>1040.3</ele>
        <time>2021-08-13T10:38:50Z</time>
      </trkpt>
      <trkpt lat="46.97834" lon="6.53418">
        <ele>1040.4</ele>
        <time>2021-08-13T10:38:52Z</time>
      </trkpt>
      <trkpt lat="46.97833" lon="6.53415">
        <ele>1040.4</ele>
        <time>2021-08-13T10:38:53Z</time>
      </trkpt>
      <trkpt lat="46.97831" lon="6.5341">
        <ele>1040.5</ele>
        <time>2021-08-13T10:38:55Z</time>
      </trkpt>
      <trkpt lat="46.9783" lon="6.53408">
        <ele>1040.6</ele>
        <time>2021-08-13T10:38:56Z</time>
      </trkpt>
      <trkpt lat="46.97827" lon="6.53405">
        <ele>1040.7</ele>
        <time>2021-08-13T10:38:58Z</time>
      </trkpt>
      <trkpt lat="46.97826" lon="6.53403">
        <ele>1040.7</ele>
        <time>2021-08-13T10:38:59Z</time>
      </trkpt>
      <trkpt lat="46.97825" lon="6.53401">
        <ele>1040.8</ele>
        <time>2021-08-13T10:39:00Z</time>
      </trkpt>
      <trkpt lat="46.97823" lon="6.53399">
        <ele>1040.8</ele>
        <time>2021-08-13T10:39:01Z</time>
      </trkpt>
      <trkpt lat="46.97823" lon="6.53397">
        <ele>1040.8</ele>
        <time>2021-08-13T10:39:02Z</time>
      </trkpt>
      <trkpt lat="46.9782" lon="6.53393">
        <ele>1040.9</ele>
        <time>2021-08-13T10:39:04Z</time>
      </trkpt>
      <trkpt lat="46.97819" lon="6.53391">
        <ele>1041</ele>
        <time>2021-08-13T10:39:05Z</time>
      </trkpt>
      <trkpt lat="46.97818" lon="6.53389">
        <ele>1041</ele>
        <time>2021-08-13T10:39:06Z</time>
      </trkpt>
      <trkpt lat="46.97816" lon="6.53385">
        <ele>1041.1</ele>
        <time>2021-08-13T10:39:08Z</time>
      </trkpt>
      <trkpt lat="46.97815" lon="6.53382">
        <ele>1041.2</ele>
        <time>2021-08-13T10:39:09Z</time>
      </trkpt>
      <trkpt lat="46.97813" lon="6.53376">
        <ele>1041.3</ele>
        <time>2021-08-13T10:39:11Z</time>
      </trkpt>
      <trkpt lat="46.97812" lon="6.53373">
        <ele>1041.4</ele>
        <time>2021-08-13T10:39:12Z</time>
      </trkpt>
      <trkpt lat="46.9781" lon="6.53367">
        <ele>1041.5</ele>
        <time>2021-08-13T10:39:14Z</time>
      </trkpt>
      <trkpt lat="46.9781" lon="6.5336">
        <ele>1041.8</ele>
        <time>2021-08-13T10:39:16Z</time>
      </trkpt>
      <trkpt lat="46.97809" lon="6.53358">
        <ele>1041.8</ele>
        <time>2021-08-13T10:39:17Z</time>
      </trkpt>
      <trkpt lat="46.97809" lon="6.53356">
        <ele>1041.9</ele>
        <time>2021-08-13T10:39:18Z</time>
      </trkpt>
      <trkpt lat="46.97809" lon="6.53352">
        <ele>1042.1</ele>
        <time>2021-08-13T10:39:19Z</time>
      </trkpt>
      <trkpt lat="46.97811" lon="6.53348">
        <ele>1042.3</ele>
        <time>2021-08-13T10:39:21Z</time>
      </trkpt>
      <trkpt lat="46.97812" lon="6.53347">
        <ele>1042.4</ele>
        <time>2021-08-13T10:39:22Z</time>
      </trkpt>
      <trkpt lat="46.97813" lon="6.53344">
        <ele>1042.5</ele>
        <time>2021-08-13T10:39:23Z</time>
      </trkpt>
      <trkpt lat="46.97813" lon="6.53342">
        <ele>1042.6</ele>
        <time>2021-08-13T10:39:24Z</time>
      </trkpt>
      <trkpt lat="46.97813" lon="6.53341">
        <ele>1042.7</ele>
        <time>2021-08-13T10:39:26Z</time>
      </trkpt>
      <trkpt lat="46.97813" lon="6.53341">
        <ele>1042.7</ele>
        <time>2021-08-13T10:39:27Z</time>
      </trkpt>
      <trkpt lat="46.97813" lon="6.53341">
        <ele>1042.7</ele>
        <time>2021-08-13T10:39:28Z</time>
      </trkpt>
      <trkpt lat="46.97813" lon="6.53341">
        <ele>1042.8</ele>
        <time>2021-08-13T10:39:30Z</time>
      </trkpt>
      <trkpt lat="46.97812" lon="6.53341">
        <ele>1042.8</ele>
        <time>2021-08-13T10:39:31Z</time>
      </trkpt>
      <trkpt lat="46.97812" lon="6.53341">
        <ele>1042.8</ele>
        <time>2021-08-13T10:39:33Z</time>
      </trkpt>
      <trkpt lat="46.97812" lon="6.53341">
        <ele>1042.8</ele>
        <time>2021-08-13T10:39:34Z</time>
      </trkpt>
      <trkpt lat="46.97816" lon="6.53314">
        <ele>1044.5</ele>
        <time>2021-08-13T10:39:54Z</time>
      </trkpt>
      <trkpt lat="46.97817" lon="6.5331">
        <ele>1044.7</ele>
        <time>2021-08-13T10:39:55Z</time>
      </trkpt>
      <trkpt lat="46.97818" lon="6.53306">
        <ele>1044.9</ele>
        <time>2021-08-13T10:39:57Z</time>
      </trkpt>
      <trkpt lat="46.97819" lon="6.53304">
        <ele>1045.1</ele>
        <time>2021-08-13T10:39:59Z</time>
      </trkpt>
      <trkpt lat="46.97819" lon="6.53304">
        <ele>1045.2</ele>
        <time>2021-08-13T10:40:00Z</time>
      </trkpt>
      <trkpt lat="46.9782" lon="6.53304">
        <ele>1045.2</ele>
        <time>2021-08-13T10:40:01Z</time>
      </trkpt>
      <trkpt lat="46.97821" lon="6.53304">
        <ele>1045.3</ele>
        <time>2021-08-13T10:40:03Z</time>
      </trkpt>
      <trkpt lat="46.97821" lon="6.53304">
        <ele>1045.3</ele>
        <time>2021-08-13T10:40:04Z</time>
      </trkpt>
      <trkpt lat="46.97821" lon="6.53302">
        <ele>1045.4</ele>
        <time>2021-08-13T10:40:05Z</time>
      </trkpt>
      <trkpt lat="46.97821" lon="6.53301">
        <ele>1045.5</ele>
        <time>2021-08-13T10:40:07Z</time>
      </trkpt>
      <trkpt lat="46.97821" lon="6.53299">
        <ele>1045.6</ele>
        <time>2021-08-13T10:40:08Z</time>
      </trkpt>
      <trkpt lat="46.97821" lon="6.53295">
        <ele>1045.8</ele>
        <time>2021-08-13T10:40:10Z</time>
      </trkpt>
      <trkpt lat="46.97821" lon="6.53278">
        <ele>1046.4</ele>
        <time>2021-08-13T10:40:19Z</time>
      </trkpt>
      <trkpt lat="46.97822" lon="6.53278">
        <ele>1046.5</ele>
        <time>2021-08-13T10:40:20Z</time>
      </trkpt>
      <trkpt lat="46.97823" lon="6.53276">
        <ele>1046.5</ele>
        <time>2021-08-13T10:40:21Z</time>
      </trkpt>
      <trkpt lat="46.97824" lon="6.53274">
        <ele>1046.6</ele>
        <time>2021-08-13T10:40:23Z</time>
      </trkpt>
      <trkpt lat="46.97826" lon="6.53273">
        <ele>1046.6</ele>
        <time>2021-08-13T10:40:24Z</time>
      </trkpt>
      <trkpt lat="46.97826" lon="6.53272">
        <ele>1046.6</ele>
        <time>2021-08-13T10:40:25Z</time>
      </trkpt>
      <trkpt lat="46.97827" lon="6.53273">
        <ele>1046.6</ele>
        <time>2021-08-13T10:40:27Z</time>
      </trkpt>
      <trkpt lat="46.97827" lon="6.53272">
        <ele>1046.6</ele>
        <time>2021-08-13T10:40:28Z</time>
      </trkpt>
      <trkpt lat="46.97828" lon="6.53272">
        <ele>1046.6</ele>
        <time>2021-08-13T10:40:29Z</time>
      </trkpt>
      <trkpt lat="46.97828" lon="6.53272">
        <ele>1046.7</ele>
        <time>2021-08-13T10:40:30Z</time>
      </trkpt>
      <trkpt lat="46.97828" lon="6.53272">
        <ele>1046.7</ele>
        <time>2021-08-13T10:40:32Z</time>
      </trkpt>
      <trkpt lat="46.97828" lon="6.53272">
        <ele>1046.7</ele>
        <time>2021-08-13T10:40:33Z</time>
      </trkpt>
      <trkpt lat="46.97828" lon="6.53271">
        <ele>1046.7</ele>
        <time>2021-08-13T10:40:35Z</time>
      </trkpt>
      <trkpt lat="46.97828" lon="6.53261">
        <ele>1046.7</ele>
        <time>2021-08-13T10:40:39Z</time>
      </trkpt>
      <trkpt lat="46.97827" lon="6.53251">
        <ele>1046.6</ele>
        <time>2021-08-13T10:40:41Z</time>
      </trkpt>
      <trkpt lat="46.97819" lon="6.53225">
        <ele>1046.4</ele>
        <time>2021-08-13T10:40:43Z</time>
      </trkpt>
      <trkpt lat="46.97814" lon="6.53216">
        <ele>1046.4</ele>
        <time>2021-08-13T10:40:44Z</time>
      </trkpt>
      <trkpt lat="46.9781" lon="6.53205">
        <ele>1046.4</ele>
        <time>2021-08-13T10:40:45Z</time>
      </trkpt>
      <trkpt lat="46.97806" lon="6.53195">
        <ele>1046.6</ele>
        <time>2021-08-13T10:40:47Z</time>
      </trkpt>
      <trkpt lat="46.97802" lon="6.53178">
        <ele>1046.9</ele>
        <time>2021-08-13T10:40:49Z</time>
      </trkpt>
      <trkpt lat="46.978" lon="6.53175">
        <ele>1046.9</ele>
        <time>2021-08-13T10:40:50Z</time>
      </trkpt>
      <trkpt lat="46.97799" lon="6.53167">
        <ele>1047.1</ele>
        <time>2021-08-13T10:40:52Z</time>
      </trkpt>
      <trkpt lat="46.97798" lon="6.53163">
        <ele>1047.2</ele>
        <time>2021-08-13T10:40:53Z</time>
      </trkpt>
      <trkpt lat="46.97797" lon="6.53159">
        <ele>1047.3</ele>
        <time>2021-08-13T10:40:54Z</time>
      </trkpt>
      <trkpt lat="46.97795" lon="6.53153">
        <ele>1047.4</ele>
        <time>2021-08-13T10:40:55Z</time>
      </trkpt>
      <trkpt lat="46.97795" lon="6.53149">
        <ele>1047.5</ele>
        <time>2021-08-13T10:40:56Z</time>
      </trkpt>
      <trkpt lat="46.97794" lon="6.53144">
        <ele>1047.6</ele>
        <time>2021-08-13T10:40:58Z</time>
      </trkpt>
      <trkpt lat="46.97793" lon="6.5314">
        <ele>1047.8</ele>
        <time>2021-08-13T10:40:59Z</time>
      </trkpt>
      <trkpt lat="46.97793" lon="6.53132">
        <ele>1047.9</ele>
        <time>2021-08-13T10:41:01Z</time>
      </trkpt>
      <trkpt lat="46.97792" lon="6.5313">
        <ele>1048</ele>
        <time>2021-08-13T10:41:02Z</time>
      </trkpt>
      <trkpt lat="46.9779" lon="6.53123">
        <ele>1048.2</ele>
        <time>2021-08-13T10:41:04Z</time>
      </trkpt>
      <trkpt lat="46.97789" lon="6.53118">
        <ele>1048.4</ele>
        <time>2021-08-13T10:41:05Z</time>
      </trkpt>
      <trkpt lat="46.97789" lon="6.53117">
        <ele>1048.4</ele>
        <time>2021-08-13T10:41:06Z</time>
      </trkpt>
      <trkpt lat="46.97787" lon="6.53113">
        <ele>1048.6</ele>
        <time>2021-08-13T10:41:07Z</time>
      </trkpt>
      <trkpt lat="46.97787" lon="6.53108">
        <ele>1048.8</ele>
        <time>2021-08-13T10:41:09Z</time>
      </trkpt>
      <trkpt lat="46.97786" lon="6.53102">
        <ele>1049</ele>
        <time>2021-08-13T10:41:11Z</time>
      </trkpt>
      <trkpt lat="46.97785" lon="6.53099">
        <ele>1049.1</ele>
        <time>2021-08-13T10:41:12Z</time>
      </trkpt>
      <trkpt lat="46.97784" lon="6.53094">
        <ele>1049.4</ele>
        <time>2021-08-13T10:41:14Z</time>
      </trkpt>
      <trkpt lat="46.97784" lon="6.53092">
        <ele>1049.5</ele>
        <time>2021-08-13T10:41:15Z</time>
      </trkpt>
      <trkpt lat="46.97784" lon="6.53089">
        <ele>1049.6</ele>
        <time>2021-08-13T10:41:16Z</time>
      </trkpt>
      <trkpt lat="46.97783" lon="6.53087">
        <ele>1049.7</ele>
        <time>2021-08-13T10:41:17Z</time>
      </trkpt>
      <trkpt lat="46.97783" lon="6.53084">
        <ele>1049.8</ele>
        <time>2021-08-13T10:41:18Z</time>
      </trkpt>
      <trkpt lat="46.97781" lon="6.53081">
        <ele>1050</ele>
        <time>2021-08-13T10:41:19Z</time>
      </trkpt>
      <trkpt lat="46.97781" lon="6.53078">
        <ele>1050.1</ele>
        <time>2021-08-13T10:41:21Z</time>
      </trkpt>
      <trkpt lat="46.97781" lon="6.53074">
        <ele>1050.3</ele>
        <time>2021-08-13T10:41:22Z</time>
      </trkpt>
      <trkpt lat="46.97781" lon="6.53072">
        <ele>1050.4</ele>
        <time>2021-08-13T10:41:23Z</time>
      </trkpt>
      <trkpt lat="46.9778" lon="6.53066">
        <ele>1050.6</ele>
        <time>2021-08-13T10:41:25Z</time>
      </trkpt>
      <trkpt lat="46.9778" lon="6.53064">
        <ele>1050.6</ele>
        <time>2021-08-13T10:41:26Z</time>
      </trkpt>
      <trkpt lat="46.97779" lon="6.53062">
        <ele>1050.7</ele>
        <time>2021-08-13T10:41:27Z</time>
      </trkpt>
      <trkpt lat="46.97778" lon="6.53057">
        <ele>1050.8</ele>
        <time>2021-08-13T10:41:29Z</time>
      </trkpt>
      <trkpt lat="46.97777" lon="6.53052">
        <ele>1050.9</ele>
        <time>2021-08-13T10:41:30Z</time>
      </trkpt>
      <trkpt lat="46.97776" lon="6.5305">
        <ele>1050.9</ele>
        <time>2021-08-13T10:41:31Z</time>
      </trkpt>
      <trkpt lat="46.97775" lon="6.53043">
        <ele>1051</ele>
        <time>2021-08-13T10:41:32Z</time>
      </trkpt>
      <trkpt lat="46.97775" lon="6.5304">
        <ele>1051</ele>
        <time>2021-08-13T10:41:33Z</time>
      </trkpt>
      <trkpt lat="46.97774" lon="6.53036">
        <ele>1050.9</ele>
        <time>2021-08-13T10:41:35Z</time>
      </trkpt>
      <trkpt lat="46.97773" lon="6.53032">
        <ele>1050.9</ele>
        <time>2021-08-13T10:41:36Z</time>
      </trkpt>
      <trkpt lat="46.97772" lon="6.53027">
        <ele>1050.8</ele>
        <time>2021-08-13T10:41:37Z</time>
      </trkpt>
      <trkpt lat="46.97771" lon="6.53022">
        <ele>1050.8</ele>
        <time>2021-08-13T10:41:38Z</time>
      </trkpt>
      <trkpt lat="46.9777" lon="6.53015">
        <ele>1050.6</ele>
        <time>2021-08-13T10:41:39Z</time>
      </trkpt>
      <trkpt lat="46.97767" lon="6.53008">
        <ele>1050.4</ele>
        <time>2021-08-13T10:41:41Z</time>
      </trkpt>
      <trkpt lat="46.97766" lon="6.53003">
        <ele>1050.3</ele>
        <time>2021-08-13T10:41:42Z</time>
      </trkpt>
      <trkpt lat="46.97764" lon="6.52994">
        <ele>1050</ele>
        <time>2021-08-13T10:41:44Z</time>
      </trkpt>
      <trkpt lat="46.97762" lon="6.52989">
        <ele>1049.9</ele>
        <time>2021-08-13T10:41:45Z</time>
      </trkpt>
      <trkpt lat="46.9776" lon="6.52982">
        <ele>1049.7</ele>
        <time>2021-08-13T10:41:46Z</time>
      </trkpt>
      <trkpt lat="46.97758" lon="6.52976">
        <ele>1049.4</ele>
        <time>2021-08-13T10:41:47Z</time>
      </trkpt>
      <trkpt lat="46.97753" lon="6.52967">
        <ele>1049</ele>
        <time>2021-08-13T10:41:49Z</time>
      </trkpt>
      <trkpt lat="46.9775" lon="6.52961">
        <ele>1048.7</ele>
        <time>2021-08-13T10:41:50Z</time>
      </trkpt>
      <trkpt lat="46.97744" lon="6.52948">
        <ele>1048.1</ele>
        <time>2021-08-13T10:41:52Z</time>
      </trkpt>
      <trkpt lat="46.97741" lon="6.52941">
        <ele>1047.7</ele>
        <time>2021-08-13T10:41:53Z</time>
      </trkpt>
      <trkpt lat="46.97738" lon="6.52934">
        <ele>1047.3</ele>
        <time>2021-08-13T10:41:54Z</time>
      </trkpt>
      <trkpt lat="46.97735" lon="6.52928">
        <ele>1046.9</ele>
        <time>2021-08-13T10:41:55Z</time>
      </trkpt>
      <trkpt lat="46.97731" lon="6.52921">
        <ele>1046.4</ele>
        <time>2021-08-13T10:41:56Z</time>
      </trkpt>
      <trkpt lat="46.97724" lon="6.52905">
        <ele>1045.2</ele>
        <time>2021-08-13T10:41:58Z</time>
      </trkpt>
      <trkpt lat="46.9772" lon="6.52896">
        <ele>1044.5</ele>
        <time>2021-08-13T10:41:59Z</time>
      </trkpt>
      <trkpt lat="46.97711" lon="6.52874">
        <ele>1042.8</ele>
        <time>2021-08-13T10:42:01Z</time>
      </trkpt>
      <trkpt lat="46.97703" lon="6.52849">
        <ele>1041</ele>
        <time>2021-08-13T10:42:03Z</time>
      </trkpt>
      <trkpt lat="46.97697" lon="6.52823">
        <ele>1038.9</ele>
        <time>2021-08-13T10:42:05Z</time>
      </trkpt>
      <trkpt lat="46.97694" lon="6.52809">
        <ele>1037.8</ele>
        <time>2021-08-13T10:42:06Z</time>
      </trkpt>
      <trkpt lat="46.97688" lon="6.52785">
        <ele>1035.7</ele>
        <time>2021-08-13T10:42:08Z</time>
      </trkpt>
      <trkpt lat="46.97683" lon="6.52766">
        <ele>1033.9</ele>
        <time>2021-08-13T10:42:10Z</time>
      </trkpt>
      <trkpt lat="46.97681" lon="6.52758">
        <ele>1033</ele>
        <time>2021-08-13T10:42:11Z</time>
      </trkpt>
      <trkpt lat="46.97676" lon="6.52742">
        <ele>1031.4</ele>
        <time>2021-08-13T10:42:13Z</time>
      </trkpt>
      <trkpt lat="46.97675" lon="6.52733">
        <ele>1030.5</ele>
        <time>2021-08-13T10:42:14Z</time>
      </trkpt>
      <trkpt lat="46.97673" lon="6.52715">
        <ele>1029.1</ele>
        <time>2021-08-13T10:42:16Z</time>
      </trkpt>
      <trkpt lat="46.97673" lon="6.52706">
        <ele>1028.7</ele>
        <time>2021-08-13T10:42:17Z</time>
      </trkpt>
      <trkpt lat="46.97673" lon="6.52696">
        <ele>1028.4</ele>
        <time>2021-08-13T10:42:18Z</time>
      </trkpt>
      <trkpt lat="46.97675" lon="6.52676">
        <ele>1028.3</ele>
        <time>2021-08-13T10:42:20Z</time>
      </trkpt>
      <trkpt lat="46.9768" lon="6.52657">
        <ele>1028.3</ele>
        <time>2021-08-13T10:42:22Z</time>
      </trkpt>
      <trkpt lat="46.97683" lon="6.52649">
        <ele>1028</ele>
        <time>2021-08-13T10:42:23Z</time>
      </trkpt>
      <trkpt lat="46.97686" lon="6.52641">
        <ele>1027.6</ele>
        <time>2021-08-13T10:42:25Z</time>
      </trkpt>
      <trkpt lat="46.97686" lon="6.52641">
        <ele>1027.6</ele>
        <time>2021-08-13T10:42:26Z</time>
      </trkpt>
      <trkpt lat="46.97689" lon="6.52634">
        <ele>1027</ele>
        <time>2021-08-13T10:42:28Z</time>
      </trkpt>
      <trkpt lat="46.97691" lon="6.5263">
        <ele>1026.6</ele>
        <time>2021-08-13T10:42:29Z</time>
      </trkpt>
      <trkpt lat="46.97697" lon="6.52615">
        <ele>1025.3</ele>
        <time>2021-08-13T10:42:31Z</time>
      </trkpt>
      <trkpt lat="46.97698" lon="6.52613">
        <ele>1025.2</ele>
        <time>2021-08-13T10:42:32Z</time>
      </trkpt>
      <trkpt lat="46.97699" lon="6.5261">
        <ele>1024.9</ele>
        <time>2021-08-13T10:42:33Z</time>
      </trkpt>
      <trkpt lat="46.97771" lon="6.52134">
        <ele>1013.1</ele>
        <time>2021-08-13T10:43:29Z</time>
      </trkpt>
      <trkpt lat="46.97774" lon="6.5213">
        <ele>1013.1</ele>
        <time>2021-08-13T10:43:30Z</time>
      </trkpt>
      <trkpt lat="46.97776" lon="6.52123">
        <ele>1013</ele>
        <time>2021-08-13T10:43:31Z</time>
      </trkpt>
      <trkpt lat="46.97779" lon="6.52111">
        <ele>1012.8</ele>
        <time>2021-08-13T10:43:33Z</time>
      </trkpt>
      <trkpt lat="46.97781" lon="6.52103">
        <ele>1012.7</ele>
        <time>2021-08-13T10:43:34Z</time>
      </trkpt>
      <trkpt lat="46.97783" lon="6.52096">
        <ele>1012.6</ele>
        <time>2021-08-13T10:43:35Z</time>
      </trkpt>
      <trkpt lat="46.97784" lon="6.52085">
        <ele>1012.4</ele>
        <time>2021-08-13T10:43:36Z</time>
      </trkpt>
      <trkpt lat="46.97786" lon="6.52078">
        <ele>1012.3</ele>
        <time>2021-08-13T10:43:37Z</time>
      </trkpt>
      <trkpt lat="46.9779" lon="6.52071">
        <ele>1012.1</ele>
        <time>2021-08-13T10:43:39Z</time>
      </trkpt>
      <trkpt lat="46.97798" lon="6.5206">
        <ele>1011.5</ele>
        <time>2021-08-13T10:43:40Z</time>
      </trkpt>
      <trkpt lat="46.97795" lon="6.52055">
        <ele>1011.1</ele>
        <time>2021-08-13T10:43:42Z</time>
      </trkpt>
      <trkpt lat="46.97799" lon="6.52046">
        <ele>1010.5</ele>
        <time>2021-08-13T10:43:43Z</time>
      </trkpt>
      <trkpt lat="46.97803" lon="6.52039">
        <ele>1009.8</ele>
        <time>2021-08-13T10:43:44Z</time>
      </trkpt>
      <trkpt lat="46.97806" lon="6.52032">
        <ele>1009.2</ele>
        <time>2021-08-13T10:43:45Z</time>
      </trkpt>
      <trkpt lat="46.97809" lon="6.52026">
        <ele>1008.5</ele>
        <time>2021-08-13T10:43:47Z</time>
      </trkpt>
      <trkpt lat="46.97812" lon="6.52021">
        <ele>1008</ele>
        <time>2021-08-13T10:43:48Z</time>
      </trkpt>
      <trkpt lat="46.97817" lon="6.52014">
        <ele>1007.2</ele>
        <time>2021-08-13T10:43:49Z</time>
      </trkpt>
      <trkpt lat="46.97819" lon="6.52009">
        <ele>1006.6</ele>
        <time>2021-08-13T10:43:50Z</time>
      </trkpt>
      <trkpt lat="46.97821" lon="6.52005">
        <ele>1006.3</ele>
        <time>2021-08-13T10:43:51Z</time>
      </trkpt>
      <trkpt lat="46.97823" lon="6.52">
        <ele>1005.7</ele>
        <time>2021-08-13T10:43:53Z</time>
      </trkpt>
      <trkpt lat="46.97824" lon="6.51999">
        <ele>1005.5</ele>
        <time>2021-08-13T10:43:54Z</time>
      </trkpt>
      <trkpt lat="46.97826" lon="6.51996">
        <ele>1005.1</ele>
        <time>2021-08-13T10:43:55Z</time>
      </trkpt>
      <trkpt lat="46.97826" lon="6.51991">
        <ele>1004.5</ele>
        <time>2021-08-13T10:43:57Z</time>
      </trkpt>
      <trkpt lat="46.97823" lon="6.51989">
        <ele>1004</ele>
        <time>2021-08-13T10:43:59Z</time>
      </trkpt>
      <trkpt lat="46.97821" lon="6.51987">
        <ele>1003.5</ele>
        <time>2021-08-13T10:44:00Z</time>
      </trkpt>
      <trkpt lat="46.97818" lon="6.51983">
        <ele>1002.8</ele>
        <time>2021-08-13T10:44:02Z</time>
      </trkpt>
      <trkpt lat="46.97816" lon="6.51978">
        <ele>1002.2</ele>
        <time>2021-08-13T10:44:03Z</time>
      </trkpt>
      <trkpt lat="46.9781" lon="6.5197">
        <ele>1001.2</ele>
        <time>2021-08-13T10:44:04Z</time>
      </trkpt>
      <trkpt lat="46.97806" lon="6.51964">
        <ele>1000.5</ele>
        <time>2021-08-13T10:44:05Z</time>
      </trkpt>
      <trkpt lat="46.97802" lon="6.51956">
        <ele>999.6</ele>
        <time>2021-08-13T10:44:07Z</time>
      </trkpt>
      <trkpt lat="46.97797" lon="6.51945">
        <ele>998.3</ele>
        <time>2021-08-13T10:44:08Z</time>
      </trkpt>
      <trkpt lat="46.97794" lon="6.51935">
        <ele>997.1</ele>
        <time>2021-08-13T10:44:10Z</time>
      </trkpt>
      <trkpt lat="46.97792" lon="6.51928">
        <ele>996.2</ele>
        <time>2021-08-13T10:44:11Z</time>
      </trkpt>
      <trkpt lat="46.97792" lon="6.51921">
        <ele>995.4</ele>
        <time>2021-08-13T10:44:12Z</time>
      </trkpt>
      <trkpt lat="46.97792" lon="6.51916">
        <ele>995</ele>
        <time>2021-08-13T10:44:13Z</time>
      </trkpt>
      <trkpt lat="46.97793" lon="6.51913">
        <ele>994.8</ele>
        <time>2021-08-13T10:44:14Z</time>
      </trkpt>
      <trkpt lat="46.97792" lon="6.51913">
        <ele>994.7</ele>
        <time>2021-08-13T10:44:16Z</time>
      </trkpt>
      <trkpt lat="46.97791" lon="6.51913">
        <ele>994.7</ele>
        <time>2021-08-13T10:44:17Z</time>
      </trkpt>
      <trkpt lat="46.9779" lon="6.51913">
        <ele>994.6</ele>
        <time>2021-08-13T10:44:18Z</time>
      </trkpt>
      <trkpt lat="46.9779" lon="6.51913">
        <ele>994.5</ele>
        <time>2021-08-13T10:44:20Z</time>
      </trkpt>
      <trkpt lat="46.97789" lon="6.51913">
        <ele>994.5</ele>
        <time>2021-08-13T10:44:21Z</time>
      </trkpt>
      <trkpt lat="46.97783" lon="6.51916">
        <ele>994.1</ele>
        <time>2021-08-13T10:44:23Z</time>
      </trkpt>
      <trkpt lat="46.97779" lon="6.51919">
        <ele>994</ele>
        <time>2021-08-13T10:44:24Z</time>
      </trkpt>
      <trkpt lat="46.97774" lon="6.51922">
        <ele>994</ele>
        <time>2021-08-13T10:44:26Z</time>
      </trkpt>
      <trkpt lat="46.97768" lon="6.51926">
        <ele>994.1</ele>
        <time>2021-08-13T10:44:27Z</time>
      </trkpt>
      <trkpt lat="46.97763" lon="6.5193">
        <ele>994.2</ele>
        <time>2021-08-13T10:44:28Z</time>
      </trkpt>
      <trkpt lat="46.9776" lon="6.51932">
        <ele>993.6</ele>
        <time>2021-08-13T10:44:29Z</time>
      </trkpt>
      <trkpt lat="46.97757" lon="6.51933">
        <ele>993.2</ele>
        <time>2021-08-13T10:44:30Z</time>
      </trkpt>
      <trkpt lat="46.97756" lon="6.51933">
        <ele>993</ele>
        <time>2021-08-13T10:44:32Z</time>
      </trkpt>
      <trkpt lat="46.97759" lon="6.51934">
        <ele>992.5</ele>
        <time>2021-08-13T10:44:33Z</time>
      </trkpt>
      <trkpt lat="46.97761" lon="6.51933">
        <ele>992.3</ele>
        <time>2021-08-13T10:44:34Z</time>
      </trkpt>
      <trkpt lat="46.97761" lon="6.51932">
        <ele>992.1</ele>
        <time>2021-08-13T10:44:36Z</time>
      </trkpt>
      <trkpt lat="46.97761" lon="6.51931">
        <ele>992</ele>
        <time>2021-08-13T10:44:38Z</time>
      </trkpt>
      <trkpt lat="46.97761" lon="6.5193">
        <ele>991.9</ele>
        <time>2021-08-13T10:44:39Z</time>
      </trkpt>
      <trkpt lat="46.97762" lon="6.51929">
        <ele>991.8</ele>
        <time>2021-08-13T10:44:40Z</time>
      </trkpt>
      <trkpt lat="46.97761" lon="6.51924">
        <ele>991.2</ele>
        <time>2021-08-13T10:44:42Z</time>
      </trkpt>
      <trkpt lat="46.97761" lon="6.51923">
        <ele>991.1</ele>
        <time>2021-08-13T10:44:43Z</time>
      </trkpt>
      <trkpt lat="46.9776" lon="6.51918">
        <ele>990.5</ele>
        <time>2021-08-13T10:44:44Z</time>
      </trkpt>
      <trkpt lat="46.97761" lon="6.51908">
        <ele>989.4</ele>
        <time>2021-08-13T10:44:46Z</time>
      </trkpt>
      <trkpt lat="46.97763" lon="6.51897">
        <ele>988.1</ele>
        <time>2021-08-13T10:44:47Z</time>
      </trkpt>
      <trkpt lat="46.97766" lon="6.51886">
        <ele>986.8</ele>
        <time>2021-08-13T10:44:48Z</time>
      </trkpt>
      <trkpt lat="46.9777" lon="6.51873">
        <ele>985.2</ele>
        <time>2021-08-13T10:44:50Z</time>
      </trkpt>
      <trkpt lat="46.97774" lon="6.51863">
        <ele>983.8</ele>
        <time>2021-08-13T10:44:51Z</time>
      </trkpt>
      <trkpt lat="46.97777" lon="6.51852">
        <ele>982.2</ele>
        <time>2021-08-13T10:44:53Z</time>
      </trkpt>
      <trkpt lat="46.97778" lon="6.51843">
        <ele>981</ele>
        <time>2021-08-13T10:44:54Z</time>
      </trkpt>
      <trkpt lat="46.97779" lon="6.51837">
        <ele>980.2</ele>
        <time>2021-08-13T10:44:55Z</time>
      </trkpt>
      <trkpt lat="46.97779" lon="6.5183">
        <ele>979.2</ele>
        <time>2021-08-13T10:44:56Z</time>
      </trkpt>
      <trkpt lat="46.97781" lon="6.5182">
        <ele>977.9</ele>
        <time>2021-08-13T10:44:58Z</time>
      </trkpt>
      <trkpt lat="46.97783" lon="6.51814">
        <ele>977</ele>
        <time>2021-08-13T10:44:59Z</time>
      </trkpt>
      <trkpt lat="46.97785" lon="6.51804">
        <ele>975.7</ele>
        <time>2021-08-13T10:45:00Z</time>
      </trkpt>
      <trkpt lat="46.97788" lon="6.51788">
        <ele>973.7</ele>
        <time>2021-08-13T10:45:01Z</time>
      </trkpt>
      <trkpt lat="46.9779" lon="6.5178">
        <ele>972.6</ele>
        <time>2021-08-13T10:45:02Z</time>
      </trkpt>
      <trkpt lat="46.97795" lon="6.5177">
        <ele>971.2</ele>
        <time>2021-08-13T10:45:04Z</time>
      </trkpt>
      <trkpt lat="46.97798" lon="6.51764">
        <ele>970.4</ele>
        <time>2021-08-13T10:45:06Z</time>
      </trkpt>
      <trkpt lat="46.978" lon="6.51758">
        <ele>969.6</ele>
        <time>2021-08-13T10:45:07Z</time>
      </trkpt>
      <trkpt lat="46.97802" lon="6.51753">
        <ele>969</ele>
        <time>2021-08-13T10:45:08Z</time>
      </trkpt>
      <trkpt lat="46.97803" lon="6.51748">
        <ele>968.5</ele>
        <time>2021-08-13T10:45:09Z</time>
      </trkpt>
      <trkpt lat="46.97803" lon="6.51743">
        <ele>968</ele>
        <time>2021-08-13T10:45:10Z</time>
      </trkpt>
      <trkpt lat="46.97803" lon="6.51739">
        <ele>967.6</ele>
        <time>2021-08-13T10:45:12Z</time>
      </trkpt>
      <trkpt lat="46.97803" lon="6.51734">
        <ele>967</ele>
        <time>2021-08-13T10:45:13Z</time>
      </trkpt>
      <trkpt lat="46.97804" lon="6.51727">
        <ele>966.3</ele>
        <time>2021-08-13T10:45:15Z</time>
      </trkpt>
      <trkpt lat="46.97806" lon="6.51719">
        <ele>965.4</ele>
        <time>2021-08-13T10:45:16Z</time>
      </trkpt>
      <trkpt lat="46.97808" lon="6.51713">
        <ele>964.8</ele>
        <time>2021-08-13T10:45:17Z</time>
      </trkpt>
      <trkpt lat="46.97811" lon="6.51705">
        <ele>963.8</ele>
        <time>2021-08-13T10:45:18Z</time>
      </trkpt>
      <trkpt lat="46.97814" lon="6.51698">
        <ele>963</ele>
        <time>2021-08-13T10:45:19Z</time>
      </trkpt>
      <trkpt lat="46.97819" lon="6.51692">
        <ele>962.2</ele>
        <time>2021-08-13T10:45:20Z</time>
      </trkpt>
      <trkpt lat="46.97827" lon="6.51678">
        <ele>960.4</ele>
        <time>2021-08-13T10:45:22Z</time>
      </trkpt>
      <trkpt lat="46.97831" lon="6.51671">
        <ele>959.6</ele>
        <time>2021-08-13T10:45:23Z</time>
      </trkpt>
      <trkpt lat="46.97835" lon="6.5166">
        <ele>958.3</ele>
        <time>2021-08-13T10:45:25Z</time>
      </trkpt>
      <trkpt lat="46.97835" lon="6.51654">
        <ele>957.8</ele>
        <time>2021-08-13T10:45:26Z</time>
      </trkpt>
      <trkpt lat="46.97836" lon="6.51648">
        <ele>957.1</ele>
        <time>2021-08-13T10:45:28Z</time>
      </trkpt>
      <trkpt lat="46.97837" lon="6.51642">
        <ele>956.5</ele>
        <time>2021-08-13T10:45:29Z</time>
      </trkpt>
      <trkpt lat="46.97838" lon="6.51636">
        <ele>955.8</ele>
        <time>2021-08-13T10:45:30Z</time>
      </trkpt>
      <trkpt lat="46.97839" lon="6.51632">
        <ele>955.4</ele>
        <time>2021-08-13T10:45:31Z</time>
      </trkpt>
      <trkpt lat="46.9784" lon="6.51627">
        <ele>954.8</ele>
        <time>2021-08-13T10:45:33Z</time>
      </trkpt>
      <trkpt lat="46.9784" lon="6.51625">
        <ele>954.6</ele>
        <time>2021-08-13T10:45:34Z</time>
      </trkpt>
      <trkpt lat="46.97841" lon="6.51615">
        <ele>953.4</ele>
        <time>2021-08-13T10:45:36Z</time>
      </trkpt>
      <trkpt lat="46.97842" lon="6.51609">
        <ele>952.7</ele>
        <time>2021-08-13T10:45:37Z</time>
      </trkpt>
      <trkpt lat="46.97842" lon="6.51608">
        <ele>952.5</ele>
        <time>2021-08-13T10:45:38Z</time>
      </trkpt>
      <trkpt lat="46.97843" lon="6.51604">
        <ele>952.1</ele>
        <time>2021-08-13T10:45:39Z</time>
      </trkpt>
      <trkpt lat="46.97843" lon="6.51601">
        <ele>951.6</ele>
        <time>2021-08-13T10:45:41Z</time>
      </trkpt>
      <trkpt lat="46.97843" lon="6.51599">
        <ele>951.4</ele>
        <time>2021-08-13T10:45:42Z</time>
      </trkpt>
      <trkpt lat="46.97844" lon="6.51597">
        <ele>951.1</ele>
        <time>2021-08-13T10:45:43Z</time>
      </trkpt>
      <trkpt lat="46.97848" lon="6.51594">
        <ele>950.4</ele>
        <time>2021-08-13T10:45:46Z</time>
      </trkpt>
      <trkpt lat="46.97852" lon="6.51595">
        <ele>949.7</ele>
        <time>2021-08-13T10:45:47Z</time>
      </trkpt>
      <trkpt lat="46.97856" lon="6.51593">
        <ele>949.1</ele>
        <time>2021-08-13T10:45:48Z</time>
      </trkpt>
      <trkpt lat="46.9786" lon="6.5159">
        <ele>948.4</ele>
        <time>2021-08-13T10:45:49Z</time>
      </trkpt>
      <trkpt lat="46.97871" lon="6.51586">
        <ele>947.1</ele>
        <time>2021-08-13T10:45:51Z</time>
      </trkpt>
      <trkpt lat="46.97879" lon="6.51583">
        <ele>946.2</ele>
        <time>2021-08-13T10:45:52Z</time>
      </trkpt>
      <trkpt lat="46.97893" lon="6.51577">
        <ele>944.7</ele>
        <time>2021-08-13T10:45:54Z</time>
      </trkpt>
      <trkpt lat="46.97914" lon="6.51571">
        <ele>943</ele>
        <time>2021-08-13T10:45:55Z</time>
      </trkpt>
      <trkpt lat="46.97928" lon="6.51565">
        <ele>942.5</ele>
        <time>2021-08-13T10:45:57Z</time>
      </trkpt>
      <trkpt lat="46.97935" lon="6.51562">
        <ele>942.5</ele>
        <time>2021-08-13T10:45:58Z</time>
      </trkpt>
      <trkpt lat="46.9794" lon="6.51561">
        <ele>942.5</ele>
        <time>2021-08-13T10:45:59Z</time>
      </trkpt>
      <trkpt lat="46.9795" lon="6.51558">
        <ele>942.7</ele>
        <time>2021-08-13T10:46:01Z</time>
      </trkpt>
      <trkpt lat="46.97954" lon="6.51558">
        <ele>942.8</ele>
        <time>2021-08-13T10:46:03Z</time>
      </trkpt>
      <trkpt lat="46.97956" lon="6.51557">
        <ele>942.8</ele>
        <time>2021-08-13T10:46:04Z</time>
      </trkpt>
      <trkpt lat="46.97964" lon="6.51546">
        <ele>942.6</ele>
        <time>2021-08-13T10:46:05Z</time>
      </trkpt>
      <trkpt lat="46.97964" lon="6.51526">
        <ele>941.9</ele>
        <time>2021-08-13T10:46:07Z</time>
      </trkpt>
      <trkpt lat="46.97967" lon="6.51521">
        <ele>941.6</ele>
        <time>2021-08-13T10:46:08Z</time>
      </trkpt>
      <trkpt lat="46.97976" lon="6.5152">
        <ele>940.7</ele>
        <time>2021-08-13T10:46:10Z</time>
      </trkpt>
      <trkpt lat="46.97986" lon="6.51525">
        <ele>939.8</ele>
        <time>2021-08-13T10:46:12Z</time>
      </trkpt>
      <trkpt lat="46.97995" lon="6.51533">
        <ele>938.9</ele>
        <time>2021-08-13T10:46:14Z</time>
      </trkpt>
      <trkpt lat="46.98002" lon="6.51538">
        <ele>938.3</ele>
        <time>2021-08-13T10:46:16Z</time>
      </trkpt>
      <trkpt lat="46.98006" lon="6.51538">
        <ele>938</ele>
        <time>2021-08-13T10:46:17Z</time>
      </trkpt>
      <trkpt lat="46.9801" lon="6.51541">
        <ele>937</ele>
        <time>2021-08-13T10:46:19Z</time>
      </trkpt>
      <trkpt lat="46.98014" lon="6.51544">
        <ele>936.7</ele>
        <time>2021-08-13T10:46:20Z</time>
      </trkpt>
      <trkpt lat="46.98018" lon="6.51546">
        <ele>936.5</ele>
        <time>2021-08-13T10:46:21Z</time>
      </trkpt>
      <trkpt lat="46.98021" lon="6.51551">
        <ele>936.3</ele>
        <time>2021-08-13T10:46:22Z</time>
      </trkpt>
      <trkpt lat="46.98024" lon="6.51556">
        <ele>936</ele>
        <time>2021-08-13T10:46:24Z</time>
      </trkpt>
      <trkpt lat="46.98027" lon="6.51562">
        <ele>935.7</ele>
        <time>2021-08-13T10:46:26Z</time>
      </trkpt>
      <trkpt lat="46.98031" lon="6.51564">
        <ele>935.5</ele>
        <time>2021-08-13T10:46:28Z</time>
      </trkpt>
      <trkpt lat="46.98037" lon="6.51568">
        <ele>935.2</ele>
        <time>2021-08-13T10:46:29Z</time>
      </trkpt>
      <trkpt lat="46.98048" lon="6.51573">
        <ele>934.7</ele>
        <time>2021-08-13T10:46:31Z</time>
      </trkpt>
      <trkpt lat="46.98053" lon="6.51575">
        <ele>934.4</ele>
        <time>2021-08-13T10:46:32Z</time>
      </trkpt>
      <trkpt lat="46.98064" lon="6.5158">
        <ele>933.8</ele>
        <time>2021-08-13T10:46:34Z</time>
      </trkpt>
      <trkpt lat="46.98071" lon="6.51584">
        <ele>933.5</ele>
        <time>2021-08-13T10:46:35Z</time>
      </trkpt>
      <trkpt lat="46.98077" lon="6.51587">
        <ele>933.2</ele>
        <time>2021-08-13T10:46:36Z</time>
      </trkpt>
      <trkpt lat="46.9809" lon="6.51596">
        <ele>932.5</ele>
        <time>2021-08-13T10:46:38Z</time>
      </trkpt>
      <trkpt lat="46.98101" lon="6.51608">
        <ele>931.8</ele>
        <time>2021-08-13T10:46:40Z</time>
      </trkpt>
      <trkpt lat="46.98106" lon="6.51614">
        <ele>931.4</ele>
        <time>2021-08-13T10:46:41Z</time>
      </trkpt>
      <trkpt lat="46.98112" lon="6.51621">
        <ele>931</ele>
        <time>2021-08-13T10:46:42Z</time>
      </trkpt>
      <trkpt lat="46.98124" lon="6.51634">
        <ele>930</ele>
        <time>2021-08-13T10:46:44Z</time>
      </trkpt>
      <trkpt lat="46.98137" lon="6.51649">
        <ele>929</ele>
        <time>2021-08-13T10:46:46Z</time>
      </trkpt>
      <trkpt lat="46.98143" lon="6.51656">
        <ele>928.6</ele>
        <time>2021-08-13T10:46:47Z</time>
      </trkpt>
      <trkpt lat="46.98149" lon="6.51663">
        <ele>928.2</ele>
        <time>2021-08-13T10:46:48Z</time>
      </trkpt>
      <trkpt lat="46.98163" lon="6.51676">
        <ele>927.5</ele>
        <time>2021-08-13T10:46:50Z</time>
      </trkpt>
      <trkpt lat="46.98176" lon="6.5169">
        <ele>926.8</ele>
        <time>2021-08-13T10:46:52Z</time>
      </trkpt>
      <trkpt lat="46.98183" lon="6.51698">
        <ele>926.5</ele>
        <time>2021-08-13T10:46:53Z</time>
      </trkpt>
      <trkpt lat="46.98189" lon="6.51706">
        <ele>926.2</ele>
        <time>2021-08-13T10:46:54Z</time>
      </trkpt>
      <trkpt lat="46.982" lon="6.51716">
        <ele>925.7</ele>
        <time>2021-08-13T10:46:56Z</time>
      </trkpt>
      <trkpt lat="46.98205" lon="6.5172">
        <ele>925.5</ele>
        <time>2021-08-13T10:46:57Z</time>
      </trkpt>
      <trkpt lat="46.98209" lon="6.51724">
        <ele>925.3</ele>
        <time>2021-08-13T10:46:58Z</time>
      </trkpt>
      <trkpt lat="46.98215" lon="6.5173">
        <ele>925.1</ele>
        <time>2021-08-13T10:47:00Z</time>
      </trkpt>
      <trkpt lat="46.98217" lon="6.51732">
        <ele>925</ele>
        <time>2021-08-13T10:47:01Z</time>
      </trkpt>
      <trkpt lat="46.98219" lon="6.51737">
        <ele>924.8</ele>
        <time>2021-08-13T10:47:03Z</time>
      </trkpt>
      <trkpt lat="46.98222" lon="6.5174">
        <ele>924.7</ele>
        <time>2021-08-13T10:47:05Z</time>
      </trkpt>
      <trkpt lat="46.98223" lon="6.5174">
        <ele>924.7</ele>
        <time>2021-08-13T10:47:06Z</time>
      </trkpt>
      <trkpt lat="46.98225" lon="6.51741">
        <ele>924.6</ele>
        <time>2021-08-13T10:47:08Z</time>
      </trkpt>
      <trkpt lat="46.98225" lon="6.51739">
        <ele>926.1</ele>
        <time>2021-08-13T10:47:10Z</time>
      </trkpt>
      <trkpt lat="46.98225" lon="6.51739">
        <ele>926.1</ele>
        <time>2021-08-13T10:47:12Z</time>
      </trkpt>
      <trkpt lat="46.98225" lon="6.51739">
        <ele>926.1</ele>
        <time>2021-08-13T10:47:14Z</time>
      </trkpt>
      <trkpt lat="46.98225" lon="6.51739">
        <ele>926.1</ele>
        <time>2021-08-13T10:47:15Z</time>
      </trkpt>
      <trkpt lat="46.98225" lon="6.51739">
        <ele>926.1</ele>
        <time>2021-08-13T10:47:16Z</time>
      </trkpt>
      <trkpt lat="46.98209" lon="6.5175">
        <ele>927.3</ele>
        <time>2021-08-13T10:48:04Z</time>
      </trkpt>
      <trkpt lat="46.98208" lon="6.5175">
        <ele>927.4</ele>
        <time>2021-08-13T10:48:05Z</time>
      </trkpt>
      <trkpt lat="46.98205" lon="6.5175">
        <ele>927.6</ele>
        <time>2021-08-13T10:48:07Z</time>
      </trkpt>
      <trkpt lat="46.98202" lon="6.5175">
        <ele>927.9</ele>
        <time>2021-08-13T10:48:08Z</time>
      </trkpt>
      <trkpt lat="46.98201" lon="6.51748">
        <ele>928</ele>
        <time>2021-08-13T10:48:09Z</time>
      </trkpt>
      <trkpt lat="46.98201" lon="6.51746">
        <ele>928.2</ele>
        <time>2021-08-13T10:48:10Z</time>
      </trkpt>
      <trkpt lat="46.982" lon="6.51744">
        <ele>928.3</ele>
        <time>2021-08-13T10:48:12Z</time>
      </trkpt>
      <trkpt lat="46.982" lon="6.51742">
        <ele>928.4</ele>
        <time>2021-08-13T10:48:13Z</time>
      </trkpt>
      <trkpt lat="46.982" lon="6.51741">
        <ele>928.5</ele>
        <time>2021-08-13T10:48:14Z</time>
      </trkpt>
      <trkpt lat="46.982" lon="6.5174">
        <ele>928.6</ele>
        <time>2021-08-13T10:48:15Z</time>
      </trkpt>
      <trkpt lat="46.98201" lon="6.51738">
        <ele>928.7</ele>
        <time>2021-08-13T10:48:17Z</time>
      </trkpt>
      <trkpt lat="46.98201" lon="6.51738">
        <ele>928.7</ele>
        <time>2021-08-13T10:48:18Z</time>
      </trkpt>
      <trkpt lat="46.98211" lon="6.51724">
        <ele>930.2</ele>
        <time>2021-08-13T10:48:33Z</time>
      </trkpt>
      <trkpt lat="46.98213" lon="6.5172">
        <ele>930.6</ele>
        <time>2021-08-13T10:48:34Z</time>
      </trkpt>
      <trkpt lat="46.98216" lon="6.51715">
        <ele>931</ele>
        <time>2021-08-13T10:48:35Z</time>
      </trkpt>
      <trkpt lat="46.98218" lon="6.51712">
        <ele>931.4</ele>
        <time>2021-08-13T10:48:36Z</time>
      </trkpt>
      <trkpt lat="46.9822" lon="6.51707">
        <ele>931.9</ele>
        <time>2021-08-13T10:48:38Z</time>
      </trkpt>
      <trkpt lat="46.98221" lon="6.51705">
        <ele>932.1</ele>
        <time>2021-08-13T10:48:39Z</time>
      </trkpt>
      <trkpt lat="46.98222" lon="6.51703">
        <ele>932.3</ele>
        <time>2021-08-13T10:48:40Z</time>
      </trkpt>
      <trkpt lat="46.98222" lon="6.51702">
        <ele>932.3</ele>
        <time>2021-08-13T10:48:41Z</time>
      </trkpt>
      <trkpt lat="46.98222" lon="6.51702">
        <ele>932.4</ele>
        <time>2021-08-13T10:48:43Z</time>
      </trkpt>
      <trkpt lat="46.98222" lon="6.51701">
        <ele>932.4</ele>
        <time>2021-08-13T10:48:44Z</time>
      </trkpt>
      <trkpt lat="46.98222" lon="6.51702">
        <ele>932.4</ele>
        <time>2021-08-13T10:48:46Z</time>
      </trkpt>
      <trkpt lat="46.98222" lon="6.51702">
        <ele>932.4</ele>
        <time>2021-08-13T10:48:47Z</time>
      </trkpt>
      <trkpt lat="46.98222" lon="6.51702">
        <ele>932.4</ele>
        <time>2021-08-13T10:48:48Z</time>
      </trkpt>
      <trkpt lat="46.98222" lon="6.51702">
        <ele>932.4</ele>
        <time>2021-08-13T10:48:50Z</time>
      </trkpt>
      <trkpt lat="46.98222" lon="6.51702">
        <ele>932.4</ele>
        <time>2021-08-13T10:48:51Z</time>
      </trkpt>
      <trkpt lat="46.98222" lon="6.51702">
        <ele>932.4</ele>
        <time>2021-08-13T10:48:53Z</time>
      </trkpt>
      <trkpt lat="46.98222" lon="6.51702">
        <ele>932.4</ele>
        <time>2021-08-13T10:48:54Z</time>
      </trkpt>
      <trkpt lat="46.98314" lon="6.51689">
        <ele>940.6</ele>
        <time>2021-08-13T11:20:48Z</time>
      </trkpt>
      <trkpt lat="46.98317" lon="6.51686">
        <ele>940.8</ele>
        <time>2021-08-13T11:20:50Z</time>
      </trkpt>
      <trkpt lat="46.9832" lon="6.51682">
        <ele>941.1</ele>
        <time>2021-08-13T11:20:51Z</time>
      </trkpt>
      <trkpt lat="46.98321" lon="6.5168">
        <ele>941.2</ele>
        <time>2021-08-13T11:20:52Z</time>
      </trkpt>
      <trkpt lat="46.98322" lon="6.51679">
        <ele>941.3</ele>
        <time>2021-08-13T11:20:54Z</time>
      </trkpt>
      <trkpt lat="46.98322" lon="6.51676">
        <ele>941.4</ele>
        <time>2021-08-13T11:20:56Z</time>
      </trkpt>
      <trkpt lat="46.98322" lon="6.51674">
        <ele>941.5</ele>
        <time>2021-08-13T11:20:58Z</time>
      </trkpt>
      <trkpt lat="46.98322" lon="6.51673">
        <ele>941.6</ele>
        <time>2021-08-13T11:20:59Z</time>
      </trkpt>
      <trkpt lat="46.98322" lon="6.5167">
        <ele>941.7</ele>
        <time>2021-08-13T11:21:01Z</time>
      </trkpt>
      <trkpt lat="46.98322" lon="6.51668">
        <ele>941.8</ele>
        <time>2021-08-13T11:21:02Z</time>
      </trkpt>
      <trkpt lat="46.98322" lon="6.51666">
        <ele>941.9</ele>
        <time>2021-08-13T11:21:03Z</time>
      </trkpt>
      <trkpt lat="46.98322" lon="6.51665">
        <ele>941.9</ele>
        <time>2021-08-13T11:21:05Z</time>
      </trkpt>
      <trkpt lat="46.98322" lon="6.51664">
        <ele>942</ele>
        <time>2021-08-13T11:21:06Z</time>
      </trkpt>
      <trkpt lat="46.98322" lon="6.51663">
        <ele>942.1</ele>
        <time>2021-08-13T11:21:08Z</time>
      </trkpt>
      <trkpt lat="46.9859" lon="6.51855">
        <ele>995.4</ele>
        <time>2021-08-13T11:33:14Z</time>
      </trkpt>
      <trkpt lat="46.98591" lon="6.5186">
        <ele>995.9</ele>
        <time>2021-08-13T11:33:16Z</time>
      </trkpt>
      <trkpt lat="46.98592" lon="6.51861">
        <ele>996</ele>
        <time>2021-08-13T11:33:17Z</time>
      </trkpt>
      <trkpt lat="46.98592" lon="6.51863">
        <ele>996.1</ele>
        <time>2021-08-13T11:33:18Z</time>
      </trkpt>
      <trkpt lat="46.98593" lon="6.51864">
        <ele>996.2</ele>
        <time>2021-08-13T11:33:19Z</time>
      </trkpt>
      <trkpt lat="46.98594" lon="6.51867">
        <ele>996.4</ele>
        <time>2021-08-13T11:33:20Z</time>
      </trkpt>
      <trkpt lat="46.98595" lon="6.5187">
        <ele>996.8</ele>
        <time>2021-08-13T11:33:22Z</time>
      </trkpt>
      <trkpt lat="46.98596" lon="6.51872">
        <ele>996.9</ele>
        <time>2021-08-13T11:33:23Z</time>
      </trkpt>
      <trkpt lat="46.98596" lon="6.51873">
        <ele>997</ele>
        <time>2021-08-13T11:33:24Z</time>
      </trkpt>
      <trkpt lat="46.98596" lon="6.51875">
        <ele>997.2</ele>
        <time>2021-08-13T11:33:25Z</time>
      </trkpt>
      <trkpt lat="46.98596" lon="6.51877">
        <ele>997.3</ele>
        <time>2021-08-13T11:33:26Z</time>
      </trkpt>
      <trkpt lat="46.98597" lon="6.5188">
        <ele>997.5</ele>
        <time>2021-08-13T11:33:27Z</time>
      </trkpt>
      <trkpt lat="46.98598" lon="6.51883">
        <ele>997.7</ele>
        <time>2021-08-13T11:33:29Z</time>
      </trkpt>
      <trkpt lat="46.98598" lon="6.51884">
        <ele>997.8</ele>
        <time>2021-08-13T11:33:30Z</time>
      </trkpt>
      <trkpt lat="46.98598" lon="6.51885">
        <ele>997.9</ele>
        <time>2021-08-13T11:33:31Z</time>
      </trkpt>
      <trkpt lat="46.98599" lon="6.51887">
        <ele>998</ele>
        <time>2021-08-13T11:33:33Z</time>
      </trkpt>
      <trkpt lat="46.986" lon="6.51889">
        <ele>998.1</ele>
        <time>2021-08-13T11:33:34Z</time>
      </trkpt>
      <trkpt lat="46.986" lon="6.51889">
        <ele>998.1</ele>
        <time>2021-08-13T11:33:35Z</time>
      </trkpt>
      <trkpt lat="46.98601" lon="6.51889">
        <ele>998.2</ele>
        <time>2021-08-13T11:33:36Z</time>
      </trkpt>
      <trkpt lat="46.98601" lon="6.51889">
        <ele>998.2</ele>
        <time>2021-08-13T11:33:38Z</time>
      </trkpt>
      <trkpt lat="46.98601" lon="6.51889">
        <ele>998.2</ele>
        <time>2021-08-13T11:33:40Z</time>
      </trkpt>
      <trkpt lat="46.98602" lon="6.51889">
        <ele>998.3</ele>
        <time>2021-08-13T11:33:41Z</time>
      </trkpt>
      <trkpt lat="46.98603" lon="6.5189">
        <ele>998.4</ele>
        <time>2021-08-13T11:33:43Z</time>
      </trkpt>
      <trkpt lat="46.98604" lon="6.51893">
        <ele>998.5</ele>
        <time>2021-08-13T11:33:44Z</time>
      </trkpt>
      <trkpt lat="46.98605" lon="6.51895">
        <ele>998.6</ele>
        <time>2021-08-13T11:33:45Z</time>
      </trkpt>
      <trkpt lat="46.98607" lon="6.51902">
        <ele>999</ele>
        <time>2021-08-13T11:33:47Z</time>
      </trkpt>
      <trkpt lat="46.98608" lon="6.51907">
        <ele>999.1</ele>
        <time>2021-08-13T11:33:48Z</time>
      </trkpt>
      <trkpt lat="46.98611" lon="6.51915">
        <ele>999.4</ele>
        <time>2021-08-13T11:33:49Z</time>
      </trkpt>
      <trkpt lat="46.98616" lon="6.51924">
        <ele>999.4</ele>
        <time>2021-08-13T11:33:51Z</time>
      </trkpt>
      <trkpt lat="46.98622" lon="6.51935">
        <ele>999.3</ele>
        <time>2021-08-13T11:33:52Z</time>
      </trkpt>
      <trkpt lat="46.98628" lon="6.51946">
        <ele>999.2</ele>
        <time>2021-08-13T11:33:54Z</time>
      </trkpt>
      <trkpt lat="46.98631" lon="6.51955">
        <ele>999.1</ele>
        <time>2021-08-13T11:33:55Z</time>
      </trkpt>
      <trkpt lat="46.98634" lon="6.51965">
        <ele>999.1</ele>
        <time>2021-08-13T11:33:56Z</time>
      </trkpt>
      <trkpt lat="46.98638" lon="6.51979">
        <ele>999</ele>
        <time>2021-08-13T11:33:58Z</time>
      </trkpt>
      <trkpt lat="46.98641" lon="6.51985">
        <ele>999</ele>
        <time>2021-08-13T11:33:59Z</time>
      </trkpt>
      <trkpt lat="46.98644" lon="6.51993">
        <ele>999.1</ele>
        <time>2021-08-13T11:34:00Z</time>
      </trkpt>
      <trkpt lat="46.98647" lon="6.51998">
        <ele>999.2</ele>
        <time>2021-08-13T11:34:01Z</time>
      </trkpt>
      <trkpt lat="46.98651" lon="6.52005">
        <ele>999.4</ele>
        <time>2021-08-13T11:34:03Z</time>
      </trkpt>
      <trkpt lat="46.98653" lon="6.5201">
        <ele>999.6</ele>
        <time>2021-08-13T11:34:04Z</time>
      </trkpt>
      <trkpt lat="46.98655" lon="6.52015">
        <ele>999.7</ele>
        <time>2021-08-13T11:34:05Z</time>
      </trkpt>
      <trkpt lat="46.98658" lon="6.52019">
        <ele>999.9</ele>
        <time>2021-08-13T11:34:06Z</time>
      </trkpt>
      <trkpt lat="46.9866" lon="6.52022">
        <ele>1000</ele>
        <time>2021-08-13T11:34:07Z</time>
      </trkpt>
      <trkpt lat="46.98662" lon="6.52027">
        <ele>1000.2</ele>
        <time>2021-08-13T11:34:09Z</time>
      </trkpt>
      <trkpt lat="46.98662" lon="6.52028">
        <ele>1000.3</ele>
        <time>2021-08-13T11:34:10Z</time>
      </trkpt>
      <trkpt lat="46.98664" lon="6.52033">
        <ele>1000.5</ele>
        <time>2021-08-13T11:34:11Z</time>
      </trkpt>
      <trkpt lat="46.98666" lon="6.52036">
        <ele>1000.6</ele>
        <time>2021-08-13T11:34:12Z</time>
      </trkpt>
      <trkpt lat="46.98667" lon="6.5204">
        <ele>1000.8</ele>
        <time>2021-08-13T11:34:14Z</time>
      </trkpt>
      <trkpt lat="46.98668" lon="6.52046">
        <ele>1001</ele>
        <time>2021-08-13T11:34:15Z</time>
      </trkpt>
      <trkpt lat="46.9867" lon="6.52051">
        <ele>1001.2</ele>
        <time>2021-08-13T11:34:16Z</time>
      </trkpt>
      <trkpt lat="46.98672" lon="6.52055">
        <ele>1001.3</ele>
        <time>2021-08-13T11:34:18Z</time>
      </trkpt>
      <trkpt lat="46.98673" lon="6.5206">
        <ele>1001.4</ele>
        <time>2021-08-13T11:34:19Z</time>
      </trkpt>
      <trkpt lat="46.98676" lon="6.52063">
        <ele>1001.4</ele>
        <time>2021-08-13T11:34:20Z</time>
      </trkpt>
      <trkpt lat="46.98678" lon="6.52066">
        <ele>1001.4</ele>
        <time>2021-08-13T11:34:21Z</time>
      </trkpt>
      <trkpt lat="46.9868" lon="6.52071">
        <ele>1001.4</ele>
        <time>2021-08-13T11:34:23Z</time>
      </trkpt>
      <trkpt lat="46.98684" lon="6.52078">
        <ele>1001.4</ele>
        <time>2021-08-13T11:34:24Z</time>
      </trkpt>
      <trkpt lat="46.98687" lon="6.52084">
        <ele>1001.3</ele>
        <time>2021-08-13T11:34:25Z</time>
      </trkpt>
      <trkpt lat="46.9869" lon="6.5209">
        <ele>1001.2</ele>
        <time>2021-08-13T11:34:27Z</time>
      </trkpt>
      <trkpt lat="46.98694" lon="6.52093">
        <ele>1001.2</ele>
        <time>2021-08-13T11:34:28Z</time>
      </trkpt>
      <trkpt lat="46.98697" lon="6.52097">
        <ele>1001.1</ele>
        <time>2021-08-13T11:34:29Z</time>
      </trkpt>
      <trkpt lat="46.987" lon="6.52101">
        <ele>1001.1</ele>
        <time>2021-08-13T11:34:31Z</time>
      </trkpt>
      <trkpt lat="46.98702" lon="6.52103">
        <ele>1001.1</ele>
        <time>2021-08-13T11:34:32Z</time>
      </trkpt>
      <trkpt lat="46.98703" lon="6.52105">
        <ele>1001.1</ele>
        <time>2021-08-13T11:34:34Z</time>
      </trkpt>
      <trkpt lat="46.98704" lon="6.52106">
        <ele>1001.2</ele>
        <time>2021-08-13T11:34:35Z</time>
      </trkpt>
      <trkpt lat="46.98706" lon="6.52106">
        <ele>1001.2</ele>
        <time>2021-08-13T11:34:36Z</time>
      </trkpt>
      <trkpt lat="46.98709" lon="6.52109">
        <ele>1001.2</ele>
        <time>2021-08-13T11:34:38Z</time>
      </trkpt>
      <trkpt lat="46.98712" lon="6.52112">
        <ele>1001.3</ele>
        <time>2021-08-13T11:34:40Z</time>
      </trkpt>
      <trkpt lat="46.98713" lon="6.52109">
        <ele>1001.4</ele>
        <time>2021-08-13T11:34:41Z</time>
      </trkpt>
      <trkpt lat="46.98714" lon="6.52107">
        <ele>1001.4</ele>
        <time>2021-08-13T11:34:42Z</time>
      </trkpt>
      <trkpt lat="46.98714" lon="6.52106">
        <ele>1001.4</ele>
        <time>2021-08-13T11:34:44Z</time>
      </trkpt>
      <trkpt lat="46.98714" lon="6.52106">
        <ele>1001.4</ele>
        <time>2021-08-13T11:34:45Z</time>
      </trkpt>
      <trkpt lat="46.98714" lon="6.52107">
        <ele>1001.5</ele>
        <time>2021-08-13T11:34:47Z</time>
      </trkpt>
      <trkpt lat="46.98714" lon="6.52107">
        <ele>1001.5</ele>
        <time>2021-08-13T11:34:48Z</time>
      </trkpt>
      <trkpt lat="46.98714" lon="6.52107">
        <ele>1001.5</ele>
        <time>2021-08-13T11:34:49Z</time>
      </trkpt>
      <trkpt lat="46.98714" lon="6.52107">
        <ele>1001.5</ele>
        <time>2021-08-13T11:34:50Z</time>
      </trkpt>
      <trkpt lat="46.98772" lon="6.52218">
        <ele>1009.4</ele>
        <time>2021-08-13T11:36:42Z</time>
      </trkpt>
      <trkpt lat="46.98774" lon="6.52224">
        <ele>1009.7</ele>
        <time>2021-08-13T11:36:43Z</time>
      </trkpt>
      <trkpt lat="46.98775" lon="6.52228">
        <ele>1009.8</ele>
        <time>2021-08-13T11:36:45Z</time>
      </trkpt>
      <trkpt lat="46.98779" lon="6.52236">
        <ele>1010.1</ele>
        <time>2021-08-13T11:36:47Z</time>
      </trkpt>
      <trkpt lat="46.98781" lon="6.52241">
        <ele>1010.2</ele>
        <time>2021-08-13T11:36:48Z</time>
      </trkpt>
      <trkpt lat="46.98783" lon="6.52245">
        <ele>1010.3</ele>
        <time>2021-08-13T11:36:49Z</time>
      </trkpt>
      <trkpt lat="46.98785" lon="6.52248">
        <ele>1010.4</ele>
        <time>2021-08-13T11:36:50Z</time>
      </trkpt>
      <trkpt lat="46.98789" lon="6.52255">
        <ele>1010.5</ele>
        <time>2021-08-13T11:36:52Z</time>
      </trkpt>
      <trkpt lat="46.9879" lon="6.52258">
        <ele>1010.5</ele>
        <time>2021-08-13T11:36:53Z</time>
      </trkpt>
      <trkpt lat="46.98791" lon="6.52262">
        <ele>1010.6</ele>
        <time>2021-08-13T11:36:54Z</time>
      </trkpt>
      <trkpt lat="46.98793" lon="6.52269">
        <ele>1010.6</ele>
        <time>2021-08-13T11:36:55Z</time>
      </trkpt>
      <trkpt lat="46.98795" lon="6.52273">
        <ele>1010.7</ele>
        <time>2021-08-13T11:36:57Z</time>
      </trkpt>
      <trkpt lat="46.98797" lon="6.52279">
        <ele>1010.7</ele>
        <time>2021-08-13T11:36:58Z</time>
      </trkpt>
      <trkpt lat="46.988" lon="6.52282">
        <ele>1010.8</ele>
        <time>2021-08-13T11:37:00Z</time>
      </trkpt>
      <trkpt lat="46.98803" lon="6.52287">
        <ele>1010.8</ele>
        <time>2021-08-13T11:37:01Z</time>
      </trkpt>
      <trkpt lat="46.98806" lon="6.52291">
        <ele>1010.9</ele>
        <time>2021-08-13T11:37:03Z</time>
      </trkpt>
      <trkpt lat="46.9881" lon="6.52294">
        <ele>1011</ele>
        <time>2021-08-13T11:37:05Z</time>
      </trkpt>
      <trkpt lat="46.98812" lon="6.52297">
        <ele>1011.1</ele>
        <time>2021-08-13T11:37:06Z</time>
      </trkpt>
      <trkpt lat="46.98813" lon="6.52298">
        <ele>1011.2</ele>
        <time>2021-08-13T11:37:07Z</time>
      </trkpt>
      <trkpt lat="46.98813" lon="6.523">
        <ele>1011.2</ele>
        <time>2021-08-13T11:37:08Z</time>
      </trkpt>
      <trkpt lat="46.98814" lon="6.52303">
        <ele>1011.3</ele>
        <time>2021-08-13T11:37:10Z</time>
      </trkpt>
      <trkpt lat="46.98816" lon="6.52304">
        <ele>1011.4</ele>
        <time>2021-08-13T11:37:11Z</time>
      </trkpt>
      <trkpt lat="46.98817" lon="6.52305">
        <ele>1011.5</ele>
        <time>2021-08-13T11:37:12Z</time>
      </trkpt>
      <trkpt lat="46.98818" lon="6.52305">
        <ele>1011.5</ele>
        <time>2021-08-13T11:37:14Z</time>
      </trkpt>
      <trkpt lat="46.98818" lon="6.52306">
        <ele>1011.5</ele>
        <time>2021-08-13T11:37:15Z</time>
      </trkpt>
      <trkpt lat="46.98818" lon="6.52306">
        <ele>1011.5</ele>
        <time>2021-08-13T11:37:17Z</time>
      </trkpt>
      <trkpt lat="46.98818" lon="6.52307">
        <ele>1011.6</ele>
        <time>2021-08-13T11:37:18Z</time>
      </trkpt>
      <trkpt lat="46.9882" lon="6.52307">
        <ele>1011.7</ele>
        <time>2021-08-13T11:37:19Z</time>
      </trkpt>
      <trkpt lat="46.98821" lon="6.52308">
        <ele>1011.8</ele>
        <time>2021-08-13T11:37:20Z</time>
      </trkpt>
      <trkpt lat="46.98823" lon="6.5231">
        <ele>1011.9</ele>
        <time>2021-08-13T11:37:22Z</time>
      </trkpt>
      <trkpt lat="46.9884" lon="6.52333">
        <ele>1014.2</ele>
        <time>2021-08-13T11:37:36Z</time>
      </trkpt>
      <trkpt lat="46.98842" lon="6.52337">
        <ele>1014.6</ele>
        <time>2021-08-13T11:37:37Z</time>
      </trkpt>
      <trkpt lat="46.98843" lon="6.52339">
        <ele>1014.7</ele>
        <time>2021-08-13T11:37:38Z</time>
      </trkpt>
      <trkpt lat="46.98843" lon="6.52342">
        <ele>1014.8</ele>
        <time>2021-08-13T11:37:40Z</time>
      </trkpt>
      <trkpt lat="46.98845" lon="6.52346">
        <ele>1015.1</ele>
        <time>2021-08-13T11:37:41Z</time>
      </trkpt>
      <trkpt lat="46.98847" lon="6.52351">
        <ele>1015.4</ele>
        <time>2021-08-13T11:37:42Z</time>
      </trkpt>
      <trkpt lat="46.98849" lon="6.52353">
        <ele>1015.6</ele>
        <time>2021-08-13T11:37:43Z</time>
      </trkpt>
      <trkpt lat="46.9885" lon="6.52358">
        <ele>1015.8</ele>
        <time>2021-08-13T11:37:45Z</time>
      </trkpt>
      <trkpt lat="46.98853" lon="6.52362">
        <ele>1016</ele>
        <time>2021-08-13T11:37:46Z</time>
      </trkpt>
      <trkpt lat="46.98856" lon="6.52366">
        <ele>1016.2</ele>
        <time>2021-08-13T11:37:48Z</time>
      </trkpt>
      <trkpt lat="46.98857" lon="6.52367">
        <ele>1016.3</ele>
        <time>2021-08-13T11:37:49Z</time>
      </trkpt>
      <trkpt lat="46.9886" lon="6.5237">
        <ele>1016.4</ele>
        <time>2021-08-13T11:37:51Z</time>
      </trkpt>
      <trkpt lat="46.98862" lon="6.52371">
        <ele>1016.5</ele>
        <time>2021-08-13T11:37:52Z</time>
      </trkpt>
      <trkpt lat="46.98866" lon="6.52374">
        <ele>1016.8</ele>
        <time>2021-08-13T11:37:53Z</time>
      </trkpt>
      <trkpt lat="46.98869" lon="6.52375">
        <ele>1016.9</ele>
        <time>2021-08-13T11:37:54Z</time>
      </trkpt>
      <trkpt lat="46.98872" lon="6.52377">
        <ele>1017</ele>
        <time>2021-08-13T11:37:55Z</time>
      </trkpt>
      <trkpt lat="46.98875" lon="6.52381">
        <ele>1017.2</ele>
        <time>2021-08-13T11:37:57Z</time>
      </trkpt>
      <trkpt lat="46.98877" lon="6.52383">
        <ele>1017.3</ele>
        <time>2021-08-13T11:37:58Z</time>
      </trkpt>
      <trkpt lat="46.98878" lon="6.52386">
        <ele>1017.4</ele>
        <time>2021-08-13T11:38:00Z</time>
      </trkpt>
      <trkpt lat="46.98879" lon="6.52388">
        <ele>1017.4</ele>
        <time>2021-08-13T11:38:01Z</time>
      </trkpt>
      <trkpt lat="46.98881" lon="6.52393">
        <ele>1017.5</ele>
        <time>2021-08-13T11:38:03Z</time>
      </trkpt>
      <trkpt lat="46.98884" lon="6.52397">
        <ele>1017.6</ele>
        <time>2021-08-13T11:38:05Z</time>
      </trkpt>
      <trkpt lat="46.98885" lon="6.52399">
        <ele>1017.7</ele>
        <time>2021-08-13T11:38:06Z</time>
      </trkpt>
      <trkpt lat="46.98888" lon="6.52402">
        <ele>1017.8</ele>
        <time>2021-08-13T11:38:08Z</time>
      </trkpt>
      <trkpt lat="46.98889" lon="6.52405">
        <ele>1017.8</ele>
        <time>2021-08-13T11:38:09Z</time>
      </trkpt>
      <trkpt lat="46.98889" lon="6.52406">
        <ele>1017.8</ele>
        <time>2021-08-13T11:38:11Z</time>
      </trkpt>
      <trkpt lat="46.9889" lon="6.52406">
        <ele>1017.8</ele>
        <time>2021-08-13T11:38:12Z</time>
      </trkpt>
      <trkpt lat="46.98891" lon="6.5241">
        <ele>1017.9</ele>
        <time>2021-08-13T11:38:13Z</time>
      </trkpt>
      <trkpt lat="46.98894" lon="6.52415">
        <ele>1017.9</ele>
        <time>2021-08-13T11:38:14Z</time>
      </trkpt>
      <trkpt lat="46.98896" lon="6.52418">
        <ele>1017.9</ele>
        <time>2021-08-13T11:38:15Z</time>
      </trkpt>
      <trkpt lat="46.98897" lon="6.52423">
        <ele>1018</ele>
        <time>2021-08-13T11:38:16Z</time>
      </trkpt>
      <trkpt lat="46.98898" lon="6.52427">
        <ele>1018</ele>
        <time>2021-08-13T11:38:17Z</time>
      </trkpt>
      <trkpt lat="46.989" lon="6.5243">
        <ele>1018</ele>
        <time>2021-08-13T11:38:18Z</time>
      </trkpt>
      <trkpt lat="46.98902" lon="6.52434">
        <ele>1018</ele>
        <time>2021-08-13T11:38:20Z</time>
      </trkpt>
      <trkpt lat="46.98904" lon="6.52437">
        <ele>1018</ele>
        <time>2021-08-13T11:38:21Z</time>
      </trkpt>
      <trkpt lat="46.98906" lon="6.52443">
        <ele>1018</ele>
        <time>2021-08-13T11:38:22Z</time>
      </trkpt>
      <trkpt lat="46.98908" lon="6.52445">
        <ele>1018</ele>
        <time>2021-08-13T11:38:23Z</time>
      </trkpt>
      <trkpt lat="46.9891" lon="6.52449">
        <ele>1017.9</ele>
        <time>2021-08-13T11:38:24Z</time>
      </trkpt>
      <trkpt lat="46.98912" lon="6.52453">
        <ele>1017.9</ele>
        <time>2021-08-13T11:38:25Z</time>
      </trkpt>
      <trkpt lat="46.98915" lon="6.52457">
        <ele>1017.9</ele>
        <time>2021-08-13T11:38:27Z</time>
      </trkpt>
      <trkpt lat="46.98918" lon="6.52462">
        <ele>1017.8</ele>
        <time>2021-08-13T11:38:28Z</time>
      </trkpt>
      <trkpt lat="46.98921" lon="6.52467">
        <ele>1017.8</ele>
        <time>2021-08-13T11:38:29Z</time>
      </trkpt>
      <trkpt lat="46.98923" lon="6.52472">
        <ele>1017.7</ele>
        <time>2021-08-13T11:38:30Z</time>
      </trkpt>
      <trkpt lat="46.98925" lon="6.52481">
        <ele>1017.4</ele>
        <time>2021-08-13T11:38:32Z</time>
      </trkpt>
      <trkpt lat="46.98928" lon="6.52487">
        <ele>1017.3</ele>
        <time>2021-08-13T11:38:33Z</time>
      </trkpt>
      <trkpt lat="46.98929" lon="6.5249">
        <ele>1017.2</ele>
        <time>2021-08-13T11:38:34Z</time>
      </trkpt>
      <trkpt lat="46.9893" lon="6.52492">
        <ele>1017.1</ele>
        <time>2021-08-13T11:38:36Z</time>
      </trkpt>
      <trkpt lat="46.98935" lon="6.52496">
        <ele>1016.9</ele>
        <time>2021-08-13T11:38:37Z</time>
      </trkpt>
      <trkpt lat="46.98937" lon="6.52501">
        <ele>1016.8</ele>
        <time>2021-08-13T11:38:39Z</time>
      </trkpt>
      <trkpt lat="46.9894" lon="6.52507">
        <ele>1016.8</ele>
        <time>2021-08-13T11:38:41Z</time>
      </trkpt>
      <trkpt lat="46.98941" lon="6.52511">
        <ele>1016.7</ele>
        <time>2021-08-13T11:38:42Z</time>
      </trkpt>
      <trkpt lat="46.98943" lon="6.52516">
        <ele>1016.7</ele>
        <time>2021-08-13T11:38:43Z</time>
      </trkpt>
      <trkpt lat="46.98945" lon="6.5252">
        <ele>1016.8</ele>
        <time>2021-08-13T11:38:44Z</time>
      </trkpt>
      <trkpt lat="46.98948" lon="6.52524">
        <ele>1016.8</ele>
        <time>2021-08-13T11:38:45Z</time>
      </trkpt>
      <trkpt lat="46.9895" lon="6.52529">
        <ele>1016.8</ele>
        <time>2021-08-13T11:38:46Z</time>
      </trkpt>
      <trkpt lat="46.98951" lon="6.52533">
        <ele>1016.8</ele>
        <time>2021-08-13T11:38:48Z</time>
      </trkpt>
      <trkpt lat="46.98952" lon="6.52537">
        <ele>1016.8</ele>
        <time>2021-08-13T11:38:49Z</time>
      </trkpt>
      <trkpt lat="46.98953" lon="6.52541">
        <ele>1016.9</ele>
        <time>2021-08-13T11:38:50Z</time>
      </trkpt>
      <trkpt lat="46.98955" lon="6.52545">
        <ele>1016.8</ele>
        <time>2021-08-13T11:38:52Z</time>
      </trkpt>
      <trkpt lat="46.98959" lon="6.52551">
        <ele>1016.8</ele>
        <time>2021-08-13T11:38:54Z</time>
      </trkpt>
      <trkpt lat="46.98961" lon="6.52555">
        <ele>1016.8</ele>
        <time>2021-08-13T11:38:55Z</time>
      </trkpt>
      <trkpt lat="46.98962" lon="6.52556">
        <ele>1016.8</ele>
        <time>2021-08-13T11:38:56Z</time>
      </trkpt>
      <trkpt lat="46.98965" lon="6.52563">
        <ele>1016.7</ele>
        <time>2021-08-13T11:38:57Z</time>
      </trkpt>
      <trkpt lat="46.98966" lon="6.52565">
        <ele>1016.6</ele>
        <time>2021-08-13T11:38:58Z</time>
      </trkpt>
      <trkpt lat="46.98967" lon="6.52566">
        <ele>1016.6</ele>
        <time>2021-08-13T11:38:59Z</time>
      </trkpt>
      <trkpt lat="46.9897" lon="6.52569">
        <ele>1016.5</ele>
        <time>2021-08-13T11:39:01Z</time>
      </trkpt>
      <trkpt lat="46.9897" lon="6.5257">
        <ele>1016.5</ele>
        <time>2021-08-13T11:39:02Z</time>
      </trkpt>
      <trkpt lat="46.98971" lon="6.5257">
        <ele>1016.5</ele>
        <time>2021-08-13T11:39:03Z</time>
      </trkpt>
      <trkpt lat="46.98971" lon="6.5257">
        <ele>1016.5</ele>
        <time>2021-08-13T11:39:04Z</time>
      </trkpt>
      <trkpt lat="46.98971" lon="6.52571">
        <ele>1016.5</ele>
        <time>2021-08-13T11:39:05Z</time>
      </trkpt>
      <trkpt lat="46.98972" lon="6.52572">
        <ele>1016.5</ele>
        <time>2021-08-13T11:39:07Z</time>
      </trkpt>
      <trkpt lat="46.99101" lon="6.52669">
        <ele>1029.8</ele>
        <time>2021-08-13T11:41:05Z</time>
      </trkpt>
      <trkpt lat="46.99104" lon="6.52666">
        <ele>1030.3</ele>
        <time>2021-08-13T11:41:06Z</time>
      </trkpt>
      <trkpt lat="46.99106" lon="6.52663">
        <ele>1030.6</ele>
        <time>2021-08-13T11:41:08Z</time>
      </trkpt>
      <trkpt lat="46.9911" lon="6.52656">
        <ele>1031.4</ele>
        <time>2021-08-13T11:41:10Z</time>
      </trkpt>
      <trkpt lat="46.99111" lon="6.52655">
        <ele>1031.5</ele>
        <time>2021-08-13T11:41:11Z</time>
      </trkpt>
      <trkpt lat="46.99111" lon="6.52656">
        <ele>1031.6</ele>
        <time>2021-08-13T11:41:12Z</time>
      </trkpt>
      <trkpt lat="46.99111" lon="6.52658">
        <ele>1031.7</ele>
        <time>2021-08-13T11:41:14Z</time>
      </trkpt>
      <trkpt lat="46.99111" lon="6.52659">
        <ele>1031.8</ele>
        <time>2021-08-13T11:41:15Z</time>
      </trkpt>
      <trkpt lat="46.99111" lon="6.5266">
        <ele>1031.9</ele>
        <time>2021-08-13T11:41:16Z</time>
      </trkpt>
      <trkpt lat="46.99111" lon="6.52662">
        <ele>1032</ele>
        <time>2021-08-13T11:41:18Z</time>
      </trkpt>
      <trkpt lat="46.99111" lon="6.52663">
        <ele>1032.1</ele>
        <time>2021-08-13T11:41:19Z</time>
      </trkpt>
      <trkpt lat="46.99111" lon="6.52664">
        <ele>1032.2</ele>
        <time>2021-08-13T11:41:20Z</time>
      </trkpt>
      <trkpt lat="46.99111" lon="6.52666">
        <ele>1032.3</ele>
        <time>2021-08-13T11:41:21Z</time>
      </trkpt>
      <trkpt lat="46.99112" lon="6.52671">
        <ele>1032.6</ele>
        <time>2021-08-13T11:41:23Z</time>
      </trkpt>
      <trkpt lat="46.99112" lon="6.52672">
        <ele>1032.8</ele>
        <time>2021-08-13T11:41:24Z</time>
      </trkpt>
      <trkpt lat="46.99112" lon="6.52677">
        <ele>1033.1</ele>
        <time>2021-08-13T11:41:25Z</time>
      </trkpt>
      <trkpt lat="46.99113" lon="6.52679">
        <ele>1033.2</ele>
        <time>2021-08-13T11:41:26Z</time>
      </trkpt>
      <trkpt lat="46.99114" lon="6.52683">
        <ele>1033.6</ele>
        <time>2021-08-13T11:41:27Z</time>
      </trkpt>
      <trkpt lat="46.99115" lon="6.52687">
        <ele>1033.6</ele>
        <time>2021-08-13T11:41:28Z</time>
      </trkpt>
      <trkpt lat="46.99116" lon="6.52688">
        <ele>1033.5</ele>
        <time>2021-08-13T11:41:29Z</time>
      </trkpt>
      <trkpt lat="46.99119" lon="6.52691">
        <ele>1033.2</ele>
        <time>2021-08-13T11:41:31Z</time>
      </trkpt>
      <trkpt lat="46.9912" lon="6.52692">
        <ele>1033.1</ele>
        <time>2021-08-13T11:41:32Z</time>
      </trkpt>
      <trkpt lat="46.99121" lon="6.52696">
        <ele>1032.9</ele>
        <time>2021-08-13T11:41:33Z</time>
      </trkpt>
      <trkpt lat="46.99122" lon="6.52698">
        <ele>1032.8</ele>
        <time>2021-08-13T11:41:34Z</time>
      </trkpt>
      <trkpt lat="46.99122" lon="6.52699">
        <ele>1032.7</ele>
        <time>2021-08-13T11:41:36Z</time>
      </trkpt>
      <trkpt lat="46.99121" lon="6.527">
        <ele>1032.7</ele>
        <time>2021-08-13T11:41:37Z</time>
      </trkpt>
      <trkpt lat="46.99121" lon="6.527">
        <ele>1032.7</ele>
        <time>2021-08-13T11:41:38Z</time>
      </trkpt>
      <trkpt lat="46.99121" lon="6.527">
        <ele>1032.7</ele>
        <time>2021-08-13T11:41:40Z</time>
      </trkpt>
      <trkpt lat="46.99121" lon="6.527">
        <ele>1032.7</ele>
        <time>2021-08-13T11:41:41Z</time>
      </trkpt>
      <trkpt lat="46.99121" lon="6.527">
        <ele>1032.6</ele>
        <time>2021-08-13T11:41:43Z</time>
      </trkpt>
      <trkpt lat="46.9912" lon="6.52701">
        <ele>1032.6</ele>
        <time>2021-08-13T11:41:44Z</time>
      </trkpt>
      <trkpt lat="46.99119" lon="6.52701">
        <ele>1032.5</ele>
        <time>2021-08-13T11:41:45Z</time>
      </trkpt>
      <trkpt lat="46.99119" lon="6.52702">
        <ele>1032.5</ele>
        <time>2021-08-13T11:41:47Z</time>
      </trkpt>
      <trkpt lat="46.99137" lon="6.52721">
        <ele>1030.9</ele>
        <time>2021-08-13T11:42:18Z</time>
      </trkpt>
      <trkpt lat="46.99141" lon="6.52722">
        <ele>1030.6</ele>
        <time>2021-08-13T11:42:19Z</time>
      </trkpt>
      <trkpt lat="46.99144" lon="6.52723">
        <ele>1030.3</ele>
        <time>2021-08-13T11:42:21Z</time>
      </trkpt>
      <trkpt lat="46.99148" lon="6.52723">
        <ele>1030</ele>
        <time>2021-08-13T11:42:22Z</time>
      </trkpt>
      <trkpt lat="46.99151" lon="6.52723">
        <ele>1029.7</ele>
        <time>2021-08-13T11:42:23Z</time>
      </trkpt>
      <trkpt lat="46.99154" lon="6.52721">
        <ele>1029.3</ele>
        <time>2021-08-13T11:42:25Z</time>
      </trkpt>
      <trkpt lat="46.99155" lon="6.52721">
        <ele>1029.2</ele>
        <time>2021-08-13T11:42:26Z</time>
      </trkpt>
      <trkpt lat="46.99156" lon="6.52721">
        <ele>1029.2</ele>
        <time>2021-08-13T11:42:28Z</time>
      </trkpt>
      <trkpt lat="46.99156" lon="6.5272">
        <ele>1029.1</ele>
        <time>2021-08-13T11:42:29Z</time>
      </trkpt>
      <trkpt lat="46.99157" lon="6.5272">
        <ele>1029</ele>
        <time>2021-08-13T11:42:30Z</time>
      </trkpt>
      <trkpt lat="46.99157" lon="6.5272">
        <ele>1029</ele>
        <time>2021-08-13T11:42:32Z</time>
      </trkpt>
      <trkpt lat="46.99158" lon="6.52719">
        <ele>1028.7</ele>
        <time>2021-08-13T11:42:33Z</time>
      </trkpt>
      <trkpt lat="46.99159" lon="6.52718">
        <ele>1028.8</ele>
        <time>2021-08-13T11:42:34Z</time>
      </trkpt>
      <trkpt lat="46.9916" lon="6.52715">
        <ele>1028.9</ele>
        <time>2021-08-13T11:42:36Z</time>
      </trkpt>
      <trkpt lat="46.99161" lon="6.52713">
        <ele>1029</ele>
        <time>2021-08-13T11:42:38Z</time>
      </trkpt>
      <trkpt lat="46.99162" lon="6.52711">
        <ele>1029.2</ele>
        <time>2021-08-13T11:42:39Z</time>
      </trkpt>
      <trkpt lat="46.99166" lon="6.52701">
        <ele>1029.8</ele>
        <time>2021-08-13T11:42:43Z</time>
      </trkpt>
      <trkpt lat="46.99167" lon="6.52696">
        <ele>1030.1</ele>
        <time>2021-08-13T11:42:44Z</time>
      </trkpt>
      <trkpt lat="46.99167" lon="6.52692">
        <ele>1030.3</ele>
        <time>2021-08-13T11:42:45Z</time>
      </trkpt>
      <trkpt lat="46.99166" lon="6.52687">
        <ele>1030.5</ele>
        <time>2021-08-13T11:42:47Z</time>
      </trkpt>
      <trkpt lat="46.99166" lon="6.52686">
        <ele>1030.6</ele>
        <time>2021-08-13T11:42:49Z</time>
      </trkpt>
      <trkpt lat="46.99166" lon="6.52687">
        <ele>1030.6</ele>
        <time>2021-08-13T11:42:50Z</time>
      </trkpt>
      <trkpt lat="46.99165" lon="6.52686">
        <ele>1030.7</ele>
        <time>2021-08-13T11:42:51Z</time>
      </trkpt>
      <trkpt lat="46.99165" lon="6.52686">
        <ele>1030.7</ele>
        <time>2021-08-13T11:42:53Z</time>
      </trkpt>
      <trkpt lat="46.99165" lon="6.52686">
        <ele>1030.7</ele>
        <time>2021-08-13T11:42:55Z</time>
      </trkpt>
      <trkpt lat="46.99165" lon="6.52685">
        <ele>1030.7</ele>
        <time>2021-08-13T11:42:56Z</time>
      </trkpt>
      <trkpt lat="46.99165" lon="6.52685">
        <ele>1030.8</ele>
        <time>2021-08-13T11:42:57Z</time>
      </trkpt>
      <trkpt lat="46.99164" lon="6.52684">
        <ele>1030.8</ele>
        <time>2021-08-13T11:42:59Z</time>
      </trkpt>
      <trkpt lat="46.99164" lon="6.52684">
        <ele>1030.8</ele>
        <time>2021-08-13T11:43:00Z</time>
      </trkpt>
      <trkpt lat="46.99163" lon="6.52683">
        <ele>1030.9</ele>
        <time>2021-08-13T11:43:01Z</time>
      </trkpt>
      <trkpt lat="46.99171" lon="6.52655">
        <ele>1032.4</ele>
        <time>2021-08-13T11:43:37Z</time>
      </trkpt>
      <trkpt lat="46.99172" lon="6.52653">
        <ele>1032.6</ele>
        <time>2021-08-13T11:43:38Z</time>
      </trkpt>
      <trkpt lat="46.99172" lon="6.52652">
        <ele>1032.6</ele>
        <time>2021-08-13T11:43:39Z</time>
      </trkpt>
      <trkpt lat="46.99172" lon="6.52651">
        <ele>1032.6</ele>
        <time>2021-08-13T11:43:41Z</time>
      </trkpt>
      <trkpt lat="46.9917" lon="6.5264">
        <ele>1033.1</ele>
        <time>2021-08-13T11:43:43Z</time>
      </trkpt>
      <trkpt lat="46.99168" lon="6.52634">
        <ele>1033.4</ele>
        <time>2021-08-13T11:43:44Z</time>
      </trkpt>
      <trkpt lat="46.99167" lon="6.5263">
        <ele>1033.6</ele>
        <time>2021-08-13T11:43:45Z</time>
      </trkpt>
      <trkpt lat="46.99166" lon="6.52624">
        <ele>1033.7</ele>
        <time>2021-08-13T11:43:46Z</time>
      </trkpt>
      <trkpt lat="46.99166" lon="6.52618">
        <ele>1033.9</ele>
        <time>2021-08-13T11:43:48Z</time>
      </trkpt>
      <trkpt lat="46.99166" lon="6.52608">
        <ele>1034.2</ele>
        <time>2021-08-13T11:43:50Z</time>
      </trkpt>
      <trkpt lat="46.99166" lon="6.52599">
        <ele>1034.5</ele>
        <time>2021-08-13T11:43:51Z</time>
      </trkpt>
      <trkpt lat="46.99167" lon="6.52593">
        <ele>1034.7</ele>
        <time>2021-08-13T11:43:53Z</time>
      </trkpt>
      <trkpt lat="46.99166" lon="6.52591">
        <ele>1034.7</ele>
        <time>2021-08-13T11:43:54Z</time>
      </trkpt>
      <trkpt lat="46.99166" lon="6.5259">
        <ele>1034.7</ele>
        <time>2021-08-13T11:43:55Z</time>
      </trkpt>
      <trkpt lat="46.99166" lon="6.5259">
        <ele>1034.7</ele>
        <time>2021-08-13T11:43:57Z</time>
      </trkpt>
      <trkpt lat="46.99167" lon="6.5259">
        <ele>1034.7</ele>
        <time>2021-08-13T11:43:58Z</time>
      </trkpt>
      <trkpt lat="46.99166" lon="6.5259">
        <ele>1034.8</ele>
        <time>2021-08-13T11:44:00Z</time>
      </trkpt>
      <trkpt lat="46.99165" lon="6.52589">
        <ele>1034.8</ele>
        <time>2021-08-13T11:44:01Z</time>
      </trkpt>
      <trkpt lat="46.99164" lon="6.52589">
        <ele>1034.9</ele>
        <time>2021-08-13T11:44:02Z</time>
      </trkpt>
      <trkpt lat="46.99162" lon="6.52588">
        <ele>1034.9</ele>
        <time>2021-08-13T11:44:04Z</time>
      </trkpt>
      <trkpt lat="46.99159" lon="6.52569">
        <ele>1035.1</ele>
        <time>2021-08-13T11:44:16Z</time>
      </trkpt>
      <trkpt lat="46.99159" lon="6.52565">
        <ele>1035.2</ele>
        <time>2021-08-13T11:44:17Z</time>
      </trkpt>
      <trkpt lat="46.9916" lon="6.52558">
        <ele>1035.2</ele>
        <time>2021-08-13T11:44:18Z</time>
      </trkpt>
      <trkpt lat="46.99159" lon="6.52556">
        <ele>1035.2</ele>
        <time>2021-08-13T11:44:19Z</time>
      </trkpt>
      <trkpt lat="46.99159" lon="6.52549">
        <ele>1035.3</ele>
        <time>2021-08-13T11:44:20Z</time>
      </trkpt>
      <trkpt lat="46.99159" lon="6.52544">
        <ele>1035.3</ele>
        <time>2021-08-13T11:44:21Z</time>
      </trkpt>
      <trkpt lat="46.99158" lon="6.5254">
        <ele>1035.3</ele>
        <time>2021-08-13T11:44:23Z</time>
      </trkpt>
      <trkpt lat="46.99156" lon="6.52534">
        <ele>1035.4</ele>
        <time>2021-08-13T11:44:25Z</time>
      </trkpt>
      <trkpt lat="46.99154" lon="6.5253">
        <ele>1035.4</ele>
        <time>2021-08-13T11:44:26Z</time>
      </trkpt>
      <trkpt lat="46.99153" lon="6.52528">
        <ele>1035.4</ele>
        <time>2021-08-13T11:44:27Z</time>
      </trkpt>
      <trkpt lat="46.9915" lon="6.52522">
        <ele>1035.4</ele>
        <time>2021-08-13T11:44:28Z</time>
      </trkpt>
      <trkpt lat="46.99147" lon="6.52517">
        <ele>1035.4</ele>
        <time>2021-08-13T11:44:30Z</time>
      </trkpt>
      <trkpt lat="46.99145" lon="6.52513">
        <ele>1035.4</ele>
        <time>2021-08-13T11:44:31Z</time>
      </trkpt>
      <trkpt lat="46.99143" lon="6.5251">
        <ele>1035.4</ele>
        <time>2021-08-13T11:44:32Z</time>
      </trkpt>
      <trkpt lat="46.99141" lon="6.52504">
        <ele>1035.4</ele>
        <time>2021-08-13T11:44:33Z</time>
      </trkpt>
      <trkpt lat="46.9914" lon="6.525">
        <ele>1035.3</ele>
        <time>2021-08-13T11:44:34Z</time>
      </trkpt>
      <trkpt lat="46.99138" lon="6.52495">
        <ele>1035.3</ele>
        <time>2021-08-13T11:44:36Z</time>
      </trkpt>
      <trkpt lat="46.99137" lon="6.52488">
        <ele>1035.2</ele>
        <time>2021-08-13T11:44:37Z</time>
      </trkpt>
      <trkpt lat="46.99136" lon="6.52484">
        <ele>1035.2</ele>
        <time>2021-08-13T11:44:38Z</time>
      </trkpt>
      <trkpt lat="46.99134" lon="6.5248">
        <ele>1035.1</ele>
        <time>2021-08-13T11:44:39Z</time>
      </trkpt>
      <trkpt lat="46.99133" lon="6.52476">
        <ele>1035.1</ele>
        <time>2021-08-13T11:44:40Z</time>
      </trkpt>
      <trkpt lat="46.99131" lon="6.5247">
        <ele>1035</ele>
        <time>2021-08-13T11:44:42Z</time>
      </trkpt>
      <trkpt lat="46.99128" lon="6.52463">
        <ele>1034.9</ele>
        <time>2021-08-13T11:44:43Z</time>
      </trkpt>
      <trkpt lat="46.99126" lon="6.52457">
        <ele>1034.9</ele>
        <time>2021-08-13T11:44:45Z</time>
      </trkpt>
      <trkpt lat="46.99124" lon="6.5245">
        <ele>1034.9</ele>
        <time>2021-08-13T11:44:46Z</time>
      </trkpt>
      <trkpt lat="46.99123" lon="6.52445">
        <ele>1034.9</ele>
        <time>2021-08-13T11:44:47Z</time>
      </trkpt>
      <trkpt lat="46.99121" lon="6.52442">
        <ele>1034.9</ele>
        <time>2021-08-13T11:44:49Z</time>
      </trkpt>
      <trkpt lat="46.99119" lon="6.52435">
        <ele>1034.9</ele>
        <time>2021-08-13T11:44:50Z</time>
      </trkpt>
      <trkpt lat="46.99118" lon="6.5243">
        <ele>1035</ele>
        <time>2021-08-13T11:44:51Z</time>
      </trkpt>
      <trkpt lat="46.99116" lon="6.52424">
        <ele>1035</ele>
        <time>2021-08-13T11:44:53Z</time>
      </trkpt>
      <trkpt lat="46.99115" lon="6.5242">
        <ele>1035.1</ele>
        <time>2021-08-13T11:44:54Z</time>
      </trkpt>
      <trkpt lat="46.99113" lon="6.52416">
        <ele>1035.1</ele>
        <time>2021-08-13T11:44:55Z</time>
      </trkpt>
      <trkpt lat="46.99112" lon="6.52414">
        <ele>1035.1</ele>
        <time>2021-08-13T11:44:56Z</time>
      </trkpt>
      <trkpt lat="46.99111" lon="6.52409">
        <ele>1035.2</ele>
        <time>2021-08-13T11:44:58Z</time>
      </trkpt>
      <trkpt lat="46.9911" lon="6.52404">
        <ele>1035.2</ele>
        <time>2021-08-13T11:45:00Z</time>
      </trkpt>
      <trkpt lat="46.9911" lon="6.524">
        <ele>1035.3</ele>
        <time>2021-08-13T11:45:01Z</time>
      </trkpt>
      <trkpt lat="46.99109" lon="6.52393">
        <ele>1035.4</ele>
        <time>2021-08-13T11:45:03Z</time>
      </trkpt>
      <trkpt lat="46.99108" lon="6.5239">
        <ele>1035.4</ele>
        <time>2021-08-13T11:45:04Z</time>
      </trkpt>
      <trkpt lat="46.99107" lon="6.52384">
        <ele>1035.5</ele>
        <time>2021-08-13T11:45:06Z</time>
      </trkpt>
      <trkpt lat="46.99105" lon="6.52378">
        <ele>1035.6</ele>
        <time>2021-08-13T11:45:07Z</time>
      </trkpt>
      <trkpt lat="46.99105" lon="6.52375">
        <ele>1035.6</ele>
        <time>2021-08-13T11:45:08Z</time>
      </trkpt>
      <trkpt lat="46.99104" lon="6.52369">
        <ele>1035.6</ele>
        <time>2021-08-13T11:45:10Z</time>
      </trkpt>
      <trkpt lat="46.99102" lon="6.52362">
        <ele>1035.7</ele>
        <time>2021-08-13T11:45:11Z</time>
      </trkpt>
      <trkpt lat="46.99101" lon="6.52355">
        <ele>1035.7</ele>
        <time>2021-08-13T11:45:13Z</time>
      </trkpt>
      <trkpt lat="46.99099" lon="6.52351">
        <ele>1035.8</ele>
        <time>2021-08-13T11:45:14Z</time>
      </trkpt>
      <trkpt lat="46.99098" lon="6.52347">
        <ele>1035.8</ele>
        <time>2021-08-13T11:45:15Z</time>
      </trkpt>
      <trkpt lat="46.99096" lon="6.52341">
        <ele>1035.8</ele>
        <time>2021-08-13T11:45:16Z</time>
      </trkpt>
      <trkpt lat="46.99094" lon="6.52336">
        <ele>1035.9</ele>
        <time>2021-08-13T11:45:17Z</time>
      </trkpt>
      <trkpt lat="46.99093" lon="6.52331">
        <ele>1035.9</ele>
        <time>2021-08-13T11:45:19Z</time>
      </trkpt>
      <trkpt lat="46.9909" lon="6.52328">
        <ele>1036</ele>
        <time>2021-08-13T11:45:20Z</time>
      </trkpt>
      <trkpt lat="46.99089" lon="6.52324">
        <ele>1036</ele>
        <time>2021-08-13T11:45:22Z</time>
      </trkpt>
      <trkpt lat="46.99088" lon="6.52318">
        <ele>1036.1</ele>
        <time>2021-08-13T11:45:24Z</time>
      </trkpt>
      <trkpt lat="46.99089" lon="6.52311">
        <ele>1036.2</ele>
        <time>2021-08-13T11:45:25Z</time>
      </trkpt>
      <trkpt lat="46.9909" lon="6.52302">
        <ele>1036.3</ele>
        <time>2021-08-13T11:45:26Z</time>
      </trkpt>
      <trkpt lat="46.9909" lon="6.52292">
        <ele>1036.4</ele>
        <time>2021-08-13T11:45:28Z</time>
      </trkpt>
      <trkpt lat="46.9909" lon="6.52285">
        <ele>1036.5</ele>
        <time>2021-08-13T11:45:30Z</time>
      </trkpt>
      <trkpt lat="46.99091" lon="6.5228">
        <ele>1036.6</ele>
        <time>2021-08-13T11:45:31Z</time>
      </trkpt>
      <trkpt lat="46.99091" lon="6.52273">
        <ele>1036.8</ele>
        <time>2021-08-13T11:45:33Z</time>
      </trkpt>
      <trkpt lat="46.99092" lon="6.52263">
        <ele>1037</ele>
        <time>2021-08-13T11:45:34Z</time>
      </trkpt>
      <trkpt lat="46.99092" lon="6.52254">
        <ele>1037.2</ele>
        <time>2021-08-13T11:45:36Z</time>
      </trkpt>
      <trkpt lat="46.99092" lon="6.52247">
        <ele>1037.4</ele>
        <time>2021-08-13T11:45:38Z</time>
      </trkpt>
      <trkpt lat="46.99093" lon="6.52239">
        <ele>1037.6</ele>
        <time>2021-08-13T11:45:39Z</time>
      </trkpt>
      <trkpt lat="46.99093" lon="6.52231">
        <ele>1037.9</ele>
        <time>2021-08-13T11:45:41Z</time>
      </trkpt>
      <trkpt lat="46.99092" lon="6.52225">
        <ele>1038.1</ele>
        <time>2021-08-13T11:45:42Z</time>
      </trkpt>
      <trkpt lat="46.99092" lon="6.52218">
        <ele>1038.3</ele>
        <time>2021-08-13T11:45:44Z</time>
      </trkpt>
      <trkpt lat="46.99091" lon="6.52212">
        <ele>1038.5</ele>
        <time>2021-08-13T11:45:45Z</time>
      </trkpt>
      <trkpt lat="46.99091" lon="6.52206">
        <ele>1038.7</ele>
        <time>2021-08-13T11:45:47Z</time>
      </trkpt>
      <trkpt lat="46.9909" lon="6.52198">
        <ele>1038.9</ele>
        <time>2021-08-13T11:45:48Z</time>
      </trkpt>
      <trkpt lat="46.99091" lon="6.5219">
        <ele>1039.2</ele>
        <time>2021-08-13T11:45:50Z</time>
      </trkpt>
      <trkpt lat="46.99091" lon="6.52183">
        <ele>1039.5</ele>
        <time>2021-08-13T11:45:52Z</time>
      </trkpt>
      <trkpt lat="46.99091" lon="6.5218">
        <ele>1039.6</ele>
        <time>2021-08-13T11:45:53Z</time>
      </trkpt>
      <trkpt lat="46.99092" lon="6.52178">
        <ele>1039.7</ele>
        <time>2021-08-13T11:45:54Z</time>
      </trkpt>
      <trkpt lat="46.99092" lon="6.52175">
        <ele>1039.8</ele>
        <time>2021-08-13T11:45:55Z</time>
      </trkpt>
      <trkpt lat="46.99091" lon="6.52172">
        <ele>1039.9</ele>
        <time>2021-08-13T11:45:57Z</time>
      </trkpt>
      <trkpt lat="46.99092" lon="6.52168">
        <ele>1040.1</ele>
        <time>2021-08-13T11:45:58Z</time>
      </trkpt>
      <trkpt lat="46.99093" lon="6.52167">
        <ele>1040.1</ele>
        <time>2021-08-13T11:45:59Z</time>
      </trkpt>
      <trkpt lat="46.99093" lon="6.52163">
        <ele>1040.3</ele>
        <time>2021-08-13T11:46:00Z</time>
      </trkpt>
      <trkpt lat="46.99093" lon="6.52159">
        <ele>1040.5</ele>
        <time>2021-08-13T11:46:02Z</time>
      </trkpt>
      <trkpt lat="46.99092" lon="6.52154">
        <ele>1040.7</ele>
        <time>2021-08-13T11:46:03Z</time>
      </trkpt>
      <trkpt lat="46.99091" lon="6.5215">
        <ele>1040.9</ele>
        <time>2021-08-13T11:46:05Z</time>
      </trkpt>
      <trkpt lat="46.9909" lon="6.52147">
        <ele>1041</ele>
        <time>2021-08-13T11:46:06Z</time>
      </trkpt>
      <trkpt lat="46.99089" lon="6.52144">
        <ele>1041.2</ele>
        <time>2021-08-13T11:46:08Z</time>
      </trkpt>
      <trkpt lat="46.9909" lon="6.5214">
        <ele>1041.3</ele>
        <time>2021-08-13T11:46:09Z</time>
      </trkpt>
      <trkpt lat="46.9909" lon="6.52134">
        <ele>1041.6</ele>
        <time>2021-08-13T11:46:11Z</time>
      </trkpt>
      <trkpt lat="46.9909" lon="6.52127">
        <ele>1041.9</ele>
        <time>2021-08-13T11:46:13Z</time>
      </trkpt>
      <trkpt lat="46.99089" lon="6.52123">
        <ele>1042</ele>
        <time>2021-08-13T11:46:14Z</time>
      </trkpt>
      <trkpt lat="46.99089" lon="6.52122">
        <ele>1042.1</ele>
        <time>2021-08-13T11:46:15Z</time>
      </trkpt>
      <trkpt lat="46.99087" lon="6.52118">
        <ele>1042.3</ele>
        <time>2021-08-13T11:46:17Z</time>
      </trkpt>
      <trkpt lat="46.99086" lon="6.52116">
        <ele>1042.4</ele>
        <time>2021-08-13T11:46:18Z</time>
      </trkpt>
      <trkpt lat="46.99085" lon="6.52114">
        <ele>1042.5</ele>
        <time>2021-08-13T11:46:19Z</time>
      </trkpt>
      <trkpt lat="46.99084" lon="6.52112">
        <ele>1042.6</ele>
        <time>2021-08-13T11:46:21Z</time>
      </trkpt>
      <trkpt lat="46.99082" lon="6.52111">
        <ele>1042.7</ele>
        <time>2021-08-13T11:46:22Z</time>
      </trkpt>
      <trkpt lat="46.99079" lon="6.5211">
        <ele>1042.9</ele>
        <time>2021-08-13T11:46:24Z</time>
      </trkpt>
      <trkpt lat="46.99078" lon="6.52109">
        <ele>1043</ele>
        <time>2021-08-13T11:46:25Z</time>
      </trkpt>
      <trkpt lat="46.99078" lon="6.52107">
        <ele>1043</ele>
        <time>2021-08-13T11:46:26Z</time>
      </trkpt>
      <trkpt lat="46.99078" lon="6.52105">
        <ele>1043.1</ele>
        <time>2021-08-13T11:46:28Z</time>
      </trkpt>
      <trkpt lat="46.99078" lon="6.521">
        <ele>1043.3</ele>
        <time>2021-08-13T11:46:30Z</time>
      </trkpt>
      <trkpt lat="46.99078" lon="6.52094">
        <ele>1043.6</ele>
        <time>2021-08-13T11:46:32Z</time>
      </trkpt>
      <trkpt lat="46.99076" lon="6.52091">
        <ele>1043.7</ele>
        <time>2021-08-13T11:46:34Z</time>
      </trkpt>
      <trkpt lat="46.99074" lon="6.52088">
        <ele>1044</ele>
        <time>2021-08-13T11:46:36Z</time>
      </trkpt>
      <trkpt lat="46.99072" lon="6.52084">
        <ele>1044.1</ele>
        <time>2021-08-13T11:46:38Z</time>
      </trkpt>
      <trkpt lat="46.99072" lon="6.52081">
        <ele>1044.3</ele>
        <time>2021-08-13T11:46:39Z</time>
      </trkpt>
      <trkpt lat="46.99071" lon="6.5208">
        <ele>1044.3</ele>
        <time>2021-08-13T11:46:40Z</time>
      </trkpt>
      <trkpt lat="46.9907" lon="6.52077">
        <ele>1044.4</ele>
        <time>2021-08-13T11:46:42Z</time>
      </trkpt>
      <trkpt lat="46.99069" lon="6.52073">
        <ele>1044.7</ele>
        <time>2021-08-13T11:46:44Z</time>
      </trkpt>
      <trkpt lat="46.99067" lon="6.52065">
        <ele>1045</ele>
        <time>2021-08-13T11:46:46Z</time>
      </trkpt>
      <trkpt lat="46.99067" lon="6.5206">
        <ele>1045.2</ele>
        <time>2021-08-13T11:46:47Z</time>
      </trkpt>
      <trkpt lat="46.99067" lon="6.52058">
        <ele>1045.3</ele>
        <time>2021-08-13T11:46:48Z</time>
      </trkpt>
      <trkpt lat="46.99068" lon="6.52051">
        <ele>1045.5</ele>
        <time>2021-08-13T11:46:49Z</time>
      </trkpt>
      <trkpt lat="46.99069" lon="6.52044">
        <ele>1045.8</ele>
        <time>2021-08-13T11:46:51Z</time>
      </trkpt>
      <trkpt lat="46.9907" lon="6.5204">
        <ele>1045.9</ele>
        <time>2021-08-13T11:46:52Z</time>
      </trkpt>
      <trkpt lat="46.9907" lon="6.52037">
        <ele>1046</ele>
        <time>2021-08-13T11:46:54Z</time>
      </trkpt>
      <trkpt lat="46.9907" lon="6.52031">
        <ele>1046.3</ele>
        <time>2021-08-13T11:46:55Z</time>
      </trkpt>
      <trkpt lat="46.99069" lon="6.52026">
        <ele>1046.4</ele>
        <time>2021-08-13T11:46:57Z</time>
      </trkpt>
      <trkpt lat="46.99069" lon="6.52024">
        <ele>1046.5</ele>
        <time>2021-08-13T11:46:58Z</time>
      </trkpt>
      <trkpt lat="46.99067" lon="6.52018">
        <ele>1046.8</ele>
        <time>2021-08-13T11:47:00Z</time>
      </trkpt>
      <trkpt lat="46.99065" lon="6.52011">
        <ele>1047</ele>
        <time>2021-08-13T11:47:02Z</time>
      </trkpt>
      <trkpt lat="46.99066" lon="6.52006">
        <ele>1047.2</ele>
        <time>2021-08-13T11:47:03Z</time>
      </trkpt>
      <trkpt lat="46.99066" lon="6.52001">
        <ele>1047.4</ele>
        <time>2021-08-13T11:47:05Z</time>
      </trkpt>
      <trkpt lat="46.99066" lon="6.52">
        <ele>1047.4</ele>
        <time>2021-08-13T11:47:06Z</time>
      </trkpt>
      <trkpt lat="46.99066" lon="6.51994">
        <ele>1047.7</ele>
        <time>2021-08-13T11:47:08Z</time>
      </trkpt>
      <trkpt lat="46.99065" lon="6.51989">
        <ele>1047.8</ele>
        <time>2021-08-13T11:47:09Z</time>
      </trkpt>
      <trkpt lat="46.99065" lon="6.51988">
        <ele>1047.9</ele>
        <time>2021-08-13T11:47:10Z</time>
      </trkpt>
      <trkpt lat="46.99065" lon="6.51985">
        <ele>1047.9</ele>
        <time>2021-08-13T11:47:11Z</time>
      </trkpt>
      <trkpt lat="46.99066" lon="6.51982">
        <ele>1048.1</ele>
        <time>2021-08-13T11:47:13Z</time>
      </trkpt>
      <trkpt lat="46.99067" lon="6.5198">
        <ele>1048.2</ele>
        <time>2021-08-13T11:47:14Z</time>
      </trkpt>
      <trkpt lat="46.99068" lon="6.51977">
        <ele>1048.3</ele>
        <time>2021-08-13T11:47:15Z</time>
      </trkpt>
      <trkpt lat="46.99068" lon="6.51973">
        <ele>1048.4</ele>
        <time>2021-08-13T11:47:17Z</time>
      </trkpt>
      <trkpt lat="46.99067" lon="6.51971">
        <ele>1048.5</ele>
        <time>2021-08-13T11:47:18Z</time>
      </trkpt>
      <trkpt lat="46.99067" lon="6.51967">
        <ele>1048.6</ele>
        <time>2021-08-13T11:47:19Z</time>
      </trkpt>
      <trkpt lat="46.99065" lon="6.51963">
        <ele>1048.8</ele>
        <time>2021-08-13T11:47:20Z</time>
      </trkpt>
      <trkpt lat="46.99065" lon="6.51961">
        <ele>1048.9</ele>
        <time>2021-08-13T11:47:21Z</time>
      </trkpt>
      <trkpt lat="46.99064" lon="6.51958">
        <ele>1049</ele>
        <time>2021-08-13T11:47:22Z</time>
      </trkpt>
      <trkpt lat="46.99062" lon="6.51951">
        <ele>1049.3</ele>
        <time>2021-08-13T11:47:25Z</time>
      </trkpt>
      <trkpt lat="46.9906" lon="6.51947">
        <ele>1049.4</ele>
        <time>2021-08-13T11:47:26Z</time>
      </trkpt>
      <trkpt lat="46.99059" lon="6.51945">
        <ele>1049.6</ele>
        <time>2021-08-13T11:47:27Z</time>
      </trkpt>
      <trkpt lat="46.99057" lon="6.51941">
        <ele>1049.7</ele>
        <time>2021-08-13T11:47:29Z</time>
      </trkpt>
      <trkpt lat="46.99055" lon="6.51938">
        <ele>1049.9</ele>
        <time>2021-08-13T11:47:30Z</time>
      </trkpt>
      <trkpt lat="46.99053" lon="6.51934">
        <ele>1050.1</ele>
        <time>2021-08-13T11:47:31Z</time>
      </trkpt>
      <trkpt lat="46.99052" lon="6.51933">
        <ele>1050.1</ele>
        <time>2021-08-13T11:47:32Z</time>
      </trkpt>
      <trkpt lat="46.9905" lon="6.51928">
        <ele>1050.3</ele>
        <time>2021-08-13T11:47:34Z</time>
      </trkpt>
      <trkpt lat="46.9905" lon="6.51925">
        <ele>1050.4</ele>
        <time>2021-08-13T11:47:35Z</time>
      </trkpt>
      <trkpt lat="46.9905" lon="6.51921">
        <ele>1050.6</ele>
        <time>2021-08-13T11:47:37Z</time>
      </trkpt>
      <trkpt lat="46.9905" lon="6.51917">
        <ele>1050.7</ele>
        <time>2021-08-13T11:47:38Z</time>
      </trkpt>
      <trkpt lat="46.9905" lon="6.51916">
        <ele>1050.8</ele>
        <time>2021-08-13T11:47:39Z</time>
      </trkpt>
      <trkpt lat="46.99051" lon="6.5191">
        <ele>1051</ele>
        <time>2021-08-13T11:47:40Z</time>
      </trkpt>
      <trkpt lat="46.99051" lon="6.51908">
        <ele>1051.1</ele>
        <time>2021-08-13T11:47:41Z</time>
      </trkpt>
      <trkpt lat="46.99052" lon="6.51904">
        <ele>1051.3</ele>
        <time>2021-08-13T11:47:43Z</time>
      </trkpt>
      <trkpt lat="46.99053" lon="6.51899">
        <ele>1051.4</ele>
        <time>2021-08-13T11:47:45Z</time>
      </trkpt>
      <trkpt lat="46.99052" lon="6.51896">
        <ele>1051.6</ele>
        <time>2021-08-13T11:47:46Z</time>
      </trkpt>
      <trkpt lat="46.9905" lon="6.51892">
        <ele>1051.8</ele>
        <time>2021-08-13T11:47:48Z</time>
      </trkpt>
      <trkpt lat="46.9905" lon="6.51888">
        <ele>1051.9</ele>
        <time>2021-08-13T11:47:49Z</time>
      </trkpt>
      <trkpt lat="46.9905" lon="6.51886">
        <ele>1052</ele>
        <time>2021-08-13T11:47:50Z</time>
      </trkpt>
      <trkpt lat="46.99048" lon="6.51879">
        <ele>1052.3</ele>
        <time>2021-08-13T11:47:52Z</time>
      </trkpt>
      <trkpt lat="46.99048" lon="6.51875">
        <ele>1052.4</ele>
        <time>2021-08-13T11:47:53Z</time>
      </trkpt>
      <trkpt lat="46.99048" lon="6.51867">
        <ele>1052.8</ele>
        <time>2021-08-13T11:47:55Z</time>
      </trkpt>
      <trkpt lat="46.99049" lon="6.51863">
        <ele>1052.9</ele>
        <time>2021-08-13T11:47:56Z</time>
      </trkpt>
      <trkpt lat="46.99049" lon="6.51856">
        <ele>1053.2</ele>
        <time>2021-08-13T11:47:58Z</time>
      </trkpt>
      <trkpt lat="46.99049" lon="6.5185">
        <ele>1053.5</ele>
        <time>2021-08-13T11:48:00Z</time>
      </trkpt>
      <trkpt lat="46.99048" lon="6.51844">
        <ele>1053.7</ele>
        <time>2021-08-13T11:48:02Z</time>
      </trkpt>
      <trkpt lat="46.99047" lon="6.51839">
        <ele>1053.9</ele>
        <time>2021-08-13T11:48:04Z</time>
      </trkpt>
      <trkpt lat="46.99047" lon="6.51832">
        <ele>1054.2</ele>
        <time>2021-08-13T11:48:05Z</time>
      </trkpt>
      <trkpt lat="46.99046" lon="6.51824">
        <ele>1054.5</ele>
        <time>2021-08-13T11:48:08Z</time>
      </trkpt>
      <trkpt lat="46.99046" lon="6.5182">
        <ele>1054.6</ele>
        <time>2021-08-13T11:48:09Z</time>
      </trkpt>
      <trkpt lat="46.99046" lon="6.51816">
        <ele>1054.8</ele>
        <time>2021-08-13T11:48:10Z</time>
      </trkpt>
      <trkpt lat="46.99046" lon="6.51813">
        <ele>1054.9</ele>
        <time>2021-08-13T11:48:11Z</time>
      </trkpt>
      <trkpt lat="46.99047" lon="6.51811">
        <ele>1054.9</ele>
        <time>2021-08-13T11:48:13Z</time>
      </trkpt>
      <trkpt lat="46.99047" lon="6.5181">
        <ele>1055</ele>
        <time>2021-08-13T11:48:14Z</time>
      </trkpt>
      <trkpt lat="46.99047" lon="6.51807">
        <ele>1055.1</ele>
        <time>2021-08-13T11:48:15Z</time>
      </trkpt>
      <trkpt lat="46.99047" lon="6.51802">
        <ele>1055.3</ele>
        <time>2021-08-13T11:48:16Z</time>
      </trkpt>
      <trkpt lat="46.99047" lon="6.518">
        <ele>1055.4</ele>
        <time>2021-08-13T11:48:17Z</time>
      </trkpt>
      <trkpt lat="46.99046" lon="6.51794">
        <ele>1055.6</ele>
        <time>2021-08-13T11:48:19Z</time>
      </trkpt>
      <trkpt lat="46.99043" lon="6.51789">
        <ele>1055.8</ele>
        <time>2021-08-13T11:48:20Z</time>
      </trkpt>
      <trkpt lat="46.99042" lon="6.51784">
        <ele>1056</ele>
        <time>2021-08-13T11:48:22Z</time>
      </trkpt>
      <trkpt lat="46.9904" lon="6.51779">
        <ele>1056.2</ele>
        <time>2021-08-13T11:48:24Z</time>
      </trkpt>
      <trkpt lat="46.99039" lon="6.51777">
        <ele>1056.3</ele>
        <time>2021-08-13T11:48:25Z</time>
      </trkpt>
      <trkpt lat="46.99037" lon="6.51773">
        <ele>1056.5</ele>
        <time>2021-08-13T11:48:27Z</time>
      </trkpt>
      <trkpt lat="46.99036" lon="6.51768">
        <ele>1056.7</ele>
        <time>2021-08-13T11:48:28Z</time>
      </trkpt>
      <trkpt lat="46.99035" lon="6.51766">
        <ele>1056.8</ele>
        <time>2021-08-13T11:48:29Z</time>
      </trkpt>
      <trkpt lat="46.99032" lon="6.51762">
        <ele>1057</ele>
        <time>2021-08-13T11:48:31Z</time>
      </trkpt>
      <trkpt lat="46.99029" lon="6.51759">
        <ele>1057.1</ele>
        <time>2021-08-13T11:48:32Z</time>
      </trkpt>
      <trkpt lat="46.99028" lon="6.51758">
        <ele>1057.2</ele>
        <time>2021-08-13T11:48:33Z</time>
      </trkpt>
      <trkpt lat="46.99026" lon="6.51756">
        <ele>1057.4</ele>
        <time>2021-08-13T11:48:34Z</time>
      </trkpt>
      <trkpt lat="46.99023" lon="6.51753">
        <ele>1057.6</ele>
        <time>2021-08-13T11:48:36Z</time>
      </trkpt>
      <trkpt lat="46.99021" lon="6.51748">
        <ele>1057.8</ele>
        <time>2021-08-13T11:48:37Z</time>
      </trkpt>
      <trkpt lat="46.99019" lon="6.51745">
        <ele>1057.9</ele>
        <time>2021-08-13T11:48:38Z</time>
      </trkpt>
      <trkpt lat="46.99017" lon="6.51739">
        <ele>1058.1</ele>
        <time>2021-08-13T11:48:40Z</time>
      </trkpt>
      <trkpt lat="46.99016" lon="6.51734">
        <ele>1058.3</ele>
        <time>2021-08-13T11:48:42Z</time>
      </trkpt>
      <trkpt lat="46.99014" lon="6.5173">
        <ele>1058.4</ele>
        <time>2021-08-13T11:48:43Z</time>
      </trkpt>
      <trkpt lat="46.99011" lon="6.51727">
        <ele>1058.6</ele>
        <time>2021-08-13T11:48:45Z</time>
      </trkpt>
      <trkpt lat="46.99009" lon="6.5172">
        <ele>1058.8</ele>
        <time>2021-08-13T11:48:46Z</time>
      </trkpt>
      <trkpt lat="46.99008" lon="6.51717">
        <ele>1058.9</ele>
        <time>2021-08-13T11:48:47Z</time>
      </trkpt>
      <trkpt lat="46.99006" lon="6.51714">
        <ele>1059.1</ele>
        <time>2021-08-13T11:48:49Z</time>
      </trkpt>
      <trkpt lat="46.99004" lon="6.51711">
        <ele>1059.2</ele>
        <time>2021-08-13T11:48:50Z</time>
      </trkpt>
      <trkpt lat="46.99001" lon="6.51707">
        <ele>1059.3</ele>
        <time>2021-08-13T11:48:51Z</time>
      </trkpt>
      <trkpt lat="46.98998" lon="6.51702">
        <ele>1059.5</ele>
        <time>2021-08-13T11:48:53Z</time>
      </trkpt>
      <trkpt lat="46.98996" lon="6.51699">
        <ele>1059.7</ele>
        <time>2021-08-13T11:48:54Z</time>
      </trkpt>
      <trkpt lat="46.98992" lon="6.51694">
        <ele>1060</ele>
        <time>2021-08-13T11:48:56Z</time>
      </trkpt>
      <trkpt lat="46.98988" lon="6.5169">
        <ele>1060.2</ele>
        <time>2021-08-13T11:48:57Z</time>
      </trkpt>
      <trkpt lat="46.98985" lon="6.51683">
        <ele>1060.5</ele>
        <time>2021-08-13T11:48:59Z</time>
      </trkpt>
      <trkpt lat="46.98981" lon="6.51678">
        <ele>1060.8</ele>
        <time>2021-08-13T11:49:01Z</time>
      </trkpt>
      <trkpt lat="46.98979" lon="6.51674">
        <ele>1060.9</ele>
        <time>2021-08-13T11:49:03Z</time>
      </trkpt>
      <trkpt lat="46.98978" lon="6.51672">
        <ele>1061</ele>
        <time>2021-08-13T11:49:04Z</time>
      </trkpt>
      <trkpt lat="46.98975" lon="6.51671">
        <ele>1061.1</ele>
        <time>2021-08-13T11:49:06Z</time>
      </trkpt>
      <trkpt lat="46.98973" lon="6.51667">
        <ele>1061.3</ele>
        <time>2021-08-13T11:49:07Z</time>
      </trkpt>
      <trkpt lat="46.98971" lon="6.51665">
        <ele>1061.3</ele>
        <time>2021-08-13T11:49:08Z</time>
      </trkpt>
      <trkpt lat="46.98969" lon="6.51662">
        <ele>1061.5</ele>
        <time>2021-08-13T11:49:10Z</time>
      </trkpt>
      <trkpt lat="46.98967" lon="6.51658">
        <ele>1061.6</ele>
        <time>2021-08-13T11:49:11Z</time>
      </trkpt>
      <trkpt lat="46.98965" lon="6.51654">
        <ele>1061.7</ele>
        <time>2021-08-13T11:49:13Z</time>
      </trkpt>
      <trkpt lat="46.98963" lon="6.5165">
        <ele>1061.8</ele>
        <time>2021-08-13T11:49:14Z</time>
      </trkpt>
      <trkpt lat="46.98962" lon="6.51649">
        <ele>1061.9</ele>
        <time>2021-08-13T11:49:15Z</time>
      </trkpt>
      <trkpt lat="46.9896" lon="6.51644">
        <ele>1062</ele>
        <time>2021-08-13T11:49:16Z</time>
      </trkpt>
      <trkpt lat="46.98958" lon="6.51639">
        <ele>1062.1</ele>
        <time>2021-08-13T11:49:17Z</time>
      </trkpt>
      <trkpt lat="46.98957" lon="6.51635">
        <ele>1062.2</ele>
        <time>2021-08-13T11:49:19Z</time>
      </trkpt>
      <trkpt lat="46.98954" lon="6.51627">
        <ele>1062.4</ele>
        <time>2021-08-13T11:49:21Z</time>
      </trkpt>
      <trkpt lat="46.98952" lon="6.51621">
        <ele>1062.5</ele>
        <time>2021-08-13T11:49:22Z</time>
      </trkpt>
      <trkpt lat="46.98951" lon="6.51618">
        <ele>1062.6</ele>
        <time>2021-08-13T11:49:23Z</time>
      </trkpt>
      <trkpt lat="46.98949" lon="6.51613">
        <ele>1062.7</ele>
        <time>2021-08-13T11:49:24Z</time>
      </trkpt>
      <trkpt lat="46.98947" lon="6.51606">
        <ele>1062.8</ele>
        <time>2021-08-13T11:49:26Z</time>
      </trkpt>
      <trkpt lat="46.98945" lon="6.51602">
        <ele>1062.9</ele>
        <time>2021-08-13T11:49:27Z</time>
      </trkpt>
      <trkpt lat="46.98943" lon="6.51596">
        <ele>1062.9</ele>
        <time>2021-08-13T11:49:29Z</time>
      </trkpt>
      <trkpt lat="46.98942" lon="6.51594">
        <ele>1063</ele>
        <time>2021-08-13T11:49:30Z</time>
      </trkpt>
      <trkpt lat="46.98941" lon="6.51591">
        <ele>1063</ele>
        <time>2021-08-13T11:49:31Z</time>
      </trkpt>
      <trkpt lat="46.98939" lon="6.51588">
        <ele>1063</ele>
        <time>2021-08-13T11:49:32Z</time>
      </trkpt>
      <trkpt lat="46.98936" lon="6.51581">
        <ele>1063.1</ele>
        <time>2021-08-13T11:49:34Z</time>
      </trkpt>
      <trkpt lat="46.98932" lon="6.51574">
        <ele>1063.1</ele>
        <time>2021-08-13T11:49:35Z</time>
      </trkpt>
      <trkpt lat="46.9893" lon="6.5157">
        <ele>1063.2</ele>
        <time>2021-08-13T11:49:37Z</time>
      </trkpt>
      <trkpt lat="46.98928" lon="6.51567">
        <ele>1063.2</ele>
        <time>2021-08-13T11:49:38Z</time>
      </trkpt>
      <trkpt lat="46.98925" lon="6.51561">
        <ele>1063.2</ele>
        <time>2021-08-13T11:49:39Z</time>
      </trkpt>
      <trkpt lat="46.98923" lon="6.51557">
        <ele>1063.2</ele>
        <time>2021-08-13T11:49:40Z</time>
      </trkpt>
      <trkpt lat="46.98921" lon="6.51553">
        <ele>1063.1</ele>
        <time>2021-08-13T11:49:41Z</time>
      </trkpt>
      <trkpt lat="46.98919" lon="6.51549">
        <ele>1063.1</ele>
        <time>2021-08-13T11:49:42Z</time>
      </trkpt>
      <trkpt lat="46.98917" lon="6.51545">
        <ele>1063.1</ele>
        <time>2021-08-13T11:49:43Z</time>
      </trkpt>
      <trkpt lat="46.98914" lon="6.51542">
        <ele>1063.1</ele>
        <time>2021-08-13T11:49:45Z</time>
      </trkpt>
      <trkpt lat="46.98911" lon="6.51536">
        <ele>1063</ele>
        <time>2021-08-13T11:49:46Z</time>
      </trkpt>
      <trkpt lat="46.98908" lon="6.51532">
        <ele>1063</ele>
        <time>2021-08-13T11:49:47Z</time>
      </trkpt>
      <trkpt lat="46.98905" lon="6.51528">
        <ele>1063</ele>
        <time>2021-08-13T11:49:48Z</time>
      </trkpt>
      <trkpt lat="46.98903" lon="6.51523">
        <ele>1062.9</ele>
        <time>2021-08-13T11:49:49Z</time>
      </trkpt>
      <trkpt lat="46.989" lon="6.51519">
        <ele>1062.9</ele>
        <time>2021-08-13T11:49:51Z</time>
      </trkpt>
      <trkpt lat="46.98897" lon="6.51512">
        <ele>1062.8</ele>
        <time>2021-08-13T11:49:52Z</time>
      </trkpt>
      <trkpt lat="46.98894" lon="6.51505">
        <ele>1062.7</ele>
        <time>2021-08-13T11:49:53Z</time>
      </trkpt>
      <trkpt lat="46.98891" lon="6.51498">
        <ele>1062.7</ele>
        <time>2021-08-13T11:49:55Z</time>
      </trkpt>
      <trkpt lat="46.98889" lon="6.51492">
        <ele>1062.6</ele>
        <time>2021-08-13T11:49:56Z</time>
      </trkpt>
      <trkpt lat="46.98887" lon="6.51487">
        <ele>1062.5</ele>
        <time>2021-08-13T11:49:57Z</time>
      </trkpt>
      <trkpt lat="46.98884" lon="6.51475">
        <ele>1062.4</ele>
        <time>2021-08-13T11:49:59Z</time>
      </trkpt>
      <trkpt lat="46.9888" lon="6.51465">
        <ele>1062.2</ele>
        <time>2021-08-13T11:50:01Z</time>
      </trkpt>
      <trkpt lat="46.98877" lon="6.51461">
        <ele>1062.1</ele>
        <time>2021-08-13T11:50:02Z</time>
      </trkpt>
      <trkpt lat="46.98872" lon="6.51453">
        <ele>1061.9</ele>
        <time>2021-08-13T11:50:03Z</time>
      </trkpt>
      <trkpt lat="46.9887" lon="6.51447">
        <ele>1061.7</ele>
        <time>2021-08-13T11:50:04Z</time>
      </trkpt>
      <trkpt lat="46.98868" lon="6.51441">
        <ele>1061.7</ele>
        <time>2021-08-13T11:50:06Z</time>
      </trkpt>
      <trkpt lat="46.98862" lon="6.51429">
        <ele>1061.5</ele>
        <time>2021-08-13T11:50:08Z</time>
      </trkpt>
      <trkpt lat="46.98858" lon="6.51415">
        <ele>1061.3</ele>
        <time>2021-08-13T11:50:10Z</time>
      </trkpt>
      <trkpt lat="46.98857" lon="6.51407">
        <ele>1061.2</ele>
        <time>2021-08-13T11:50:11Z</time>
      </trkpt>
      <trkpt lat="46.98855" lon="6.51399">
        <ele>1061.2</ele>
        <time>2021-08-13T11:50:12Z</time>
      </trkpt>
      <trkpt lat="46.98852" lon="6.5138">
        <ele>1061</ele>
        <time>2021-08-13T11:50:14Z</time>
      </trkpt>
      <trkpt lat="46.98851" lon="6.51361">
        <ele>1060.8</ele>
        <time>2021-08-13T11:50:16Z</time>
      </trkpt>
      <trkpt lat="46.98851" lon="6.51351">
        <ele>1060.7</ele>
        <time>2021-08-13T11:50:17Z</time>
      </trkpt>
      <trkpt lat="46.9885" lon="6.51341">
        <ele>1060.6</ele>
        <time>2021-08-13T11:50:18Z</time>
      </trkpt>
      <trkpt lat="46.9885" lon="6.51322">
        <ele>1060.5</ele>
        <time>2021-08-13T11:50:20Z</time>
      </trkpt>
      <trkpt lat="46.98849" lon="6.51302">
        <ele>1060.3</ele>
        <time>2021-08-13T11:50:22Z</time>
      </trkpt>
      <trkpt lat="46.98849" lon="6.51293">
        <ele>1060.2</ele>
        <time>2021-08-13T11:50:23Z</time>
      </trkpt>
      <trkpt lat="46.98849" lon="6.51284">
        <ele>1060.1</ele>
        <time>2021-08-13T11:50:24Z</time>
      </trkpt>
      <trkpt lat="46.98847" lon="6.51267">
        <ele>1059.9</ele>
        <time>2021-08-13T11:50:26Z</time>
      </trkpt>
      <trkpt lat="46.98843" lon="6.51252">
        <ele>1059.8</ele>
        <time>2021-08-13T11:50:28Z</time>
      </trkpt>
      <trkpt lat="46.98838" lon="6.51238">
        <ele>1059.6</ele>
        <time>2021-08-13T11:50:30Z</time>
      </trkpt>
      <trkpt lat="46.98836" lon="6.51232">
        <ele>1059.5</ele>
        <time>2021-08-13T11:50:31Z</time>
      </trkpt>
      <trkpt lat="46.98834" lon="6.51225">
        <ele>1059.4</ele>
        <time>2021-08-13T11:50:32Z</time>
      </trkpt>
      <trkpt lat="46.98828" lon="6.51212">
        <ele>1059.1</ele>
        <time>2021-08-13T11:50:34Z</time>
      </trkpt>
      <trkpt lat="46.98825" lon="6.51206">
        <ele>1058.9</ele>
        <time>2021-08-13T11:50:35Z</time>
      </trkpt>
      <trkpt lat="46.98822" lon="6.512">
        <ele>1058.6</ele>
        <time>2021-08-13T11:50:36Z</time>
      </trkpt>
      <trkpt lat="46.98814" lon="6.51189">
        <ele>1058.1</ele>
        <time>2021-08-13T11:50:38Z</time>
      </trkpt>
      <trkpt lat="46.9881" lon="6.51174">
        <ele>1057.6</ele>
        <time>2021-08-13T11:50:40Z</time>
      </trkpt>
      <trkpt lat="46.98805" lon="6.51157">
        <ele>1057</ele>
        <time>2021-08-13T11:50:42Z</time>
      </trkpt>
      <trkpt lat="46.98798" lon="6.5114">
        <ele>1056.4</ele>
        <time>2021-08-13T11:50:44Z</time>
      </trkpt>
      <trkpt lat="46.98792" lon="6.51121">
        <ele>1056</ele>
        <time>2021-08-13T11:50:46Z</time>
      </trkpt>
      <trkpt lat="46.98787" lon="6.51101">
        <ele>1055.7</ele>
        <time>2021-08-13T11:50:48Z</time>
      </trkpt>
      <trkpt lat="46.98783" lon="6.51081">
        <ele>1055.4</ele>
        <time>2021-08-13T11:50:50Z</time>
      </trkpt>
      <trkpt lat="46.98777" lon="6.51064">
        <ele>1055.1</ele>
        <time>2021-08-13T11:50:52Z</time>
      </trkpt>
      <trkpt lat="46.98774" lon="6.51055">
        <ele>1054.9</ele>
        <time>2021-08-13T11:50:53Z</time>
      </trkpt>
      <trkpt lat="46.98772" lon="6.51046">
        <ele>1054.8</ele>
        <time>2021-08-13T11:50:54Z</time>
      </trkpt>
      <trkpt lat="46.98766" lon="6.5103">
        <ele>1054.5</ele>
        <time>2021-08-13T11:50:56Z</time>
      </trkpt>
      <trkpt lat="46.98761" lon="6.51015">
        <ele>1054.3</ele>
        <time>2021-08-13T11:50:58Z</time>
      </trkpt>
      <trkpt lat="46.98758" lon="6.51008">
        <ele>1054.2</ele>
        <time>2021-08-13T11:50:59Z</time>
      </trkpt>
      <trkpt lat="46.98755" lon="6.51002">
        <ele>1054.1</ele>
        <time>2021-08-13T11:51:00Z</time>
      </trkpt>
      <trkpt lat="46.98749" lon="6.50992">
        <ele>1053.8</ele>
        <time>2021-08-13T11:51:02Z</time>
      </trkpt>
      <trkpt lat="46.98743" lon="6.50983">
        <ele>1053.7</ele>
        <time>2021-08-13T11:51:04Z</time>
      </trkpt>
      <trkpt lat="46.9874" lon="6.50978">
        <ele>1053.6</ele>
        <time>2021-08-13T11:51:05Z</time>
      </trkpt>
      <trkpt lat="46.98733" lon="6.50967">
        <ele>1053.5</ele>
        <time>2021-08-13T11:51:07Z</time>
      </trkpt>
      <trkpt lat="46.9873" lon="6.50961">
        <ele>1053.4</ele>
        <time>2021-08-13T11:51:08Z</time>
      </trkpt>
      <trkpt lat="46.98723" lon="6.50949">
        <ele>1053.3</ele>
        <time>2021-08-13T11:51:10Z</time>
      </trkpt>
      <trkpt lat="46.98719" lon="6.50943">
        <ele>1053.2</ele>
        <time>2021-08-13T11:51:11Z</time>
      </trkpt>
      <trkpt lat="46.98713" lon="6.50931">
        <ele>1053.1</ele>
        <time>2021-08-13T11:51:13Z</time>
      </trkpt>
      <trkpt lat="46.98711" lon="6.50926">
        <ele>1053.1</ele>
        <time>2021-08-13T11:51:14Z</time>
      </trkpt>
      <trkpt lat="46.98709" lon="6.50917">
        <ele>1053.1</ele>
        <time>2021-08-13T11:51:16Z</time>
      </trkpt>
      <trkpt lat="46.98709" lon="6.50912">
        <ele>1053.9</ele>
        <time>2021-08-13T11:51:17Z</time>
      </trkpt>
      <trkpt lat="46.98709" lon="6.5091">
        <ele>1054</ele>
        <time>2021-08-13T11:51:18Z</time>
      </trkpt>
      <trkpt lat="46.98711" lon="6.50907">
        <ele>1054.4</ele>
        <time>2021-08-13T11:51:19Z</time>
      </trkpt>
      <trkpt lat="46.98713" lon="6.50904">
        <ele>1054.8</ele>
        <time>2021-08-13T11:51:21Z</time>
      </trkpt>
      <trkpt lat="46.98716" lon="6.50907">
        <ele>1055.3</ele>
        <time>2021-08-13T11:51:23Z</time>
      </trkpt>
      <trkpt lat="46.98717" lon="6.50909">
        <ele>1055.5</ele>
        <time>2021-08-13T11:51:24Z</time>
      </trkpt>
      <trkpt lat="46.98718" lon="6.50909">
        <ele>1055.5</ele>
        <time>2021-08-13T11:51:25Z</time>
      </trkpt>
      <trkpt lat="46.98718" lon="6.50909">
        <ele>1055.5</ele>
        <time>2021-08-13T11:51:26Z</time>
      </trkpt>
      <trkpt lat="46.98718" lon="6.50909">
        <ele>1055.5</ele>
        <time>2021-08-13T11:51:28Z</time>
      </trkpt>
      <trkpt lat="46.98718" lon="6.50909">
        <ele>1055.6</ele>
        <time>2021-08-13T11:51:30Z</time>
      </trkpt>
      <trkpt lat="46.98718" lon="6.50909">
        <ele>1055.6</ele>
        <time>2021-08-13T11:51:32Z</time>
      </trkpt>
      <trkpt lat="46.9878" lon="6.50851">
        <ele>1049.3</ele>
        <time>2021-08-13T11:54:50Z</time>
      </trkpt>
      <trkpt lat="46.98784" lon="6.50848">
        <ele>1048.7</ele>
        <time>2021-08-13T11:54:52Z</time>
      </trkpt>
      <trkpt lat="46.98788" lon="6.50846">
        <ele>1048.2</ele>
        <time>2021-08-13T11:54:54Z</time>
      </trkpt>
      <trkpt lat="46.98791" lon="6.50846">
        <ele>1047.9</ele>
        <time>2021-08-13T11:54:55Z</time>
      </trkpt>
      <trkpt lat="46.98794" lon="6.50843">
        <ele>1047.5</ele>
        <time>2021-08-13T11:54:56Z</time>
      </trkpt>
      <trkpt lat="46.98796" lon="6.50838">
        <ele>1047.1</ele>
        <time>2021-08-13T11:54:58Z</time>
      </trkpt>
      <trkpt lat="46.98798" lon="6.50836">
        <ele>1046.9</ele>
        <time>2021-08-13T11:54:59Z</time>
      </trkpt>
      <trkpt lat="46.98801" lon="6.50835">
        <ele>1046.5</ele>
        <time>2021-08-13T11:55:00Z</time>
      </trkpt>
      <trkpt lat="46.98802" lon="6.50836">
        <ele>1046.4</ele>
        <time>2021-08-13T11:55:02Z</time>
      </trkpt>
      <trkpt lat="46.98804" lon="6.50836">
        <ele>1046.2</ele>
        <time>2021-08-13T11:55:04Z</time>
      </trkpt>
      <trkpt lat="46.98805" lon="6.50837">
        <ele>1046</ele>
        <time>2021-08-13T11:55:06Z</time>
      </trkpt>
      <trkpt lat="46.98806" lon="6.50838">
        <ele>1045.9</ele>
        <time>2021-08-13T11:55:08Z</time>
      </trkpt>
      <trkpt lat="46.98808" lon="6.50839">
        <ele>1045.7</ele>
        <time>2021-08-13T11:55:10Z</time>
      </trkpt>
      <trkpt lat="46.98809" lon="6.50839">
        <ele>1045.5</ele>
        <time>2021-08-13T11:55:24Z</time>
      </trkpt>
      <trkpt lat="46.98811" lon="6.5084">
        <ele>1045.3</ele>
        <time>2021-08-13T11:55:25Z</time>
      </trkpt>
      <trkpt lat="46.98818" lon="6.50841">
        <ele>1044.6</ele>
        <time>2021-08-13T11:55:26Z</time>
      </trkpt>
      <trkpt lat="46.98843" lon="6.50843">
        <ele>1041.6</ele>
        <time>2021-08-13T11:55:28Z</time>
      </trkpt>
      <trkpt lat="46.98852" lon="6.50844">
        <ele>1040.6</ele>
        <time>2021-08-13T11:55:29Z</time>
      </trkpt>
      <trkpt lat="46.98869" lon="6.5085">
        <ele>1039.3</ele>
        <time>2021-08-13T11:55:31Z</time>
      </trkpt>
      <trkpt lat="46.98877" lon="6.50854">
        <ele>1038.8</ele>
        <time>2021-08-13T11:55:32Z</time>
      </trkpt>
      <trkpt lat="46.9889" lon="6.50867">
        <ele>1037.9</ele>
        <time>2021-08-13T11:55:34Z</time>
      </trkpt>
      <trkpt lat="46.98896" lon="6.50872">
        <ele>1037.5</ele>
        <time>2021-08-13T11:55:36Z</time>
      </trkpt>
      <trkpt lat="46.98895" lon="6.50875">
        <ele>1037.4</ele>
        <time>2021-08-13T11:55:37Z</time>
      </trkpt>
      <trkpt lat="46.98895" lon="6.50886">
        <ele>1037</ele>
        <time>2021-08-13T11:55:39Z</time>
      </trkpt>
      <trkpt lat="46.98896" lon="6.50891">
        <ele>1036.8</ele>
        <time>2021-08-13T11:55:40Z</time>
      </trkpt>
      <trkpt lat="46.98896" lon="6.50892">
        <ele>1036.7</ele>
        <time>2021-08-13T11:55:41Z</time>
      </trkpt>
      <trkpt lat="46.98897" lon="6.50893">
        <ele>1036.7</ele>
        <time>2021-08-13T11:55:42Z</time>
      </trkpt>
      <trkpt lat="46.98898" lon="6.50895">
        <ele>1036.6</ele>
        <time>2021-08-13T11:55:44Z</time>
      </trkpt>
      <trkpt lat="46.98901" lon="6.50898">
        <ele>1036.4</ele>
        <time>2021-08-13T11:55:46Z</time>
      </trkpt>
      <trkpt lat="46.98908" lon="6.50909">
        <ele>1036</ele>
        <time>2021-08-13T11:55:51Z</time>
      </trkpt>
      <trkpt lat="46.98912" lon="6.50913">
        <ele>1035.9</ele>
        <time>2021-08-13T11:55:52Z</time>
      </trkpt>
      <trkpt lat="46.98915" lon="6.50916">
        <ele>1035.9</ele>
        <time>2021-08-13T11:55:53Z</time>
      </trkpt>
      <trkpt lat="46.98918" lon="6.50918">
        <ele>1035.9</ele>
        <time>2021-08-13T11:55:54Z</time>
      </trkpt>
      <trkpt lat="46.98924" lon="6.50922">
        <ele>1035.9</ele>
        <time>2021-08-13T11:55:55Z</time>
      </trkpt>
      <trkpt lat="46.98927" lon="6.50925">
        <ele>1035.9</ele>
        <time>2021-08-13T11:55:57Z</time>
      </trkpt>
      <trkpt lat="46.9893" lon="6.50929">
        <ele>1035.9</ele>
        <time>2021-08-13T11:55:58Z</time>
      </trkpt>
      <trkpt lat="46.98934" lon="6.50933">
        <ele>1036</ele>
        <time>2021-08-13T11:55:59Z</time>
      </trkpt>
      <trkpt lat="46.98937" lon="6.50938">
        <ele>1036</ele>
        <time>2021-08-13T11:56:01Z</time>
      </trkpt>
      <trkpt lat="46.98939" lon="6.50942">
        <ele>1036.1</ele>
        <time>2021-08-13T11:56:04Z</time>
      </trkpt>
      <trkpt lat="46.9894" lon="6.50945">
        <ele>1036.1</ele>
        <time>2021-08-13T11:56:05Z</time>
      </trkpt>
      <trkpt lat="46.98944" lon="6.50955">
        <ele>1036.2</ele>
        <time>2021-08-13T11:56:07Z</time>
      </trkpt>
      <trkpt lat="46.98944" lon="6.50959">
        <ele>1036.3</ele>
        <time>2021-08-13T11:56:09Z</time>
      </trkpt>
      <trkpt lat="46.98945" lon="6.50964">
        <ele>1036.3</ele>
        <time>2021-08-13T11:56:10Z</time>
      </trkpt>
      <trkpt lat="46.98948" lon="6.50972">
        <ele>1036.3</ele>
        <time>2021-08-13T11:56:12Z</time>
      </trkpt>
      <trkpt lat="46.98949" lon="6.50978">
        <ele>1036.3</ele>
        <time>2021-08-13T11:56:13Z</time>
      </trkpt>
      <trkpt lat="46.98953" lon="6.5098">
        <ele>1036.2</ele>
        <time>2021-08-13T11:56:14Z</time>
      </trkpt>
      <trkpt lat="46.98958" lon="6.50983">
        <ele>1036</ele>
        <time>2021-08-13T11:56:16Z</time>
      </trkpt>
      <trkpt lat="46.98964" lon="6.50985">
        <ele>1035.7</ele>
        <time>2021-08-13T11:56:17Z</time>
      </trkpt>
      <trkpt lat="46.9897" lon="6.50989">
        <ele>1035.3</ele>
        <time>2021-08-13T11:56:18Z</time>
      </trkpt>
      <trkpt lat="46.98972" lon="6.50992">
        <ele>1035</ele>
        <time>2021-08-13T11:56:19Z</time>
      </trkpt>
      <trkpt lat="46.98974" lon="6.50994">
        <ele>1034.9</ele>
        <time>2021-08-13T11:56:20Z</time>
      </trkpt>
      <trkpt lat="46.98976" lon="6.50999">
        <ele>1034.6</ele>
        <time>2021-08-13T11:56:22Z</time>
      </trkpt>
      <trkpt lat="46.98979" lon="6.51001">
        <ele>1034.3</ele>
        <time>2021-08-13T11:56:23Z</time>
      </trkpt>
      <trkpt lat="46.9898" lon="6.51004">
        <ele>1034.1</ele>
        <time>2021-08-13T11:56:24Z</time>
      </trkpt>
      <trkpt lat="46.98983" lon="6.51007">
        <ele>1033.7</ele>
        <time>2021-08-13T11:56:26Z</time>
      </trkpt>
      <trkpt lat="46.98986" lon="6.51009">
        <ele>1033.5</ele>
        <time>2021-08-13T11:56:27Z</time>
      </trkpt>
      <trkpt lat="46.9899" lon="6.51013">
        <ele>1033</ele>
        <time>2021-08-13T11:56:28Z</time>
      </trkpt>
      <trkpt lat="46.98994" lon="6.51016">
        <ele>1032.5</ele>
        <time>2021-08-13T11:56:29Z</time>
      </trkpt>
      <trkpt lat="46.98998" lon="6.51018">
        <ele>1032.1</ele>
        <time>2021-08-13T11:56:30Z</time>
      </trkpt>
      <trkpt lat="46.99" lon="6.51021">
        <ele>1031.7</ele>
        <time>2021-08-13T11:56:31Z</time>
      </trkpt>
      <trkpt lat="46.99004" lon="6.51024">
        <ele>1031.2</ele>
        <time>2021-08-13T11:56:33Z</time>
      </trkpt>
      <trkpt lat="46.99009" lon="6.5103">
        <ele>1030.2</ele>
        <time>2021-08-13T11:56:34Z</time>
      </trkpt>
      <trkpt lat="46.99014" lon="6.5104">
        <ele>1028.9</ele>
        <time>2021-08-13T11:56:36Z</time>
      </trkpt>
      <trkpt lat="46.99017" lon="6.51049">
        <ele>1027.8</ele>
        <time>2021-08-13T11:56:37Z</time>
      </trkpt>
      <trkpt lat="46.99021" lon="6.5106">
        <ele>1026.4</ele>
        <time>2021-08-13T11:56:39Z</time>
      </trkpt>
      <trkpt lat="46.99025" lon="6.51067">
        <ele>1025.6</ele>
        <time>2021-08-13T11:56:40Z</time>
      </trkpt>
      <trkpt lat="46.99029" lon="6.51072">
        <ele>1024.9</ele>
        <time>2021-08-13T11:56:41Z</time>
      </trkpt>
      <trkpt lat="46.99034" lon="6.51077">
        <ele>1024.3</ele>
        <time>2021-08-13T11:56:42Z</time>
      </trkpt>
      <trkpt lat="46.99039" lon="6.51081">
        <ele>1023.6</ele>
        <time>2021-08-13T11:56:43Z</time>
      </trkpt>
      <trkpt lat="46.99045" lon="6.51086">
        <ele>1022.9</ele>
        <time>2021-08-13T11:56:45Z</time>
      </trkpt>
      <trkpt lat="46.99052" lon="6.51091">
        <ele>1022.2</ele>
        <time>2021-08-13T11:56:46Z</time>
      </trkpt>
      <trkpt lat="46.99062" lon="6.51092">
        <ele>1020.9</ele>
        <time>2021-08-13T11:56:47Z</time>
      </trkpt>
      <trkpt lat="46.9907" lon="6.51101">
        <ele>1019.8</ele>
        <time>2021-08-13T11:56:49Z</time>
      </trkpt>
      <trkpt lat="46.99072" lon="6.51106">
        <ele>1019.3</ele>
        <time>2021-08-13T11:56:50Z</time>
      </trkpt>
      <trkpt lat="46.99074" lon="6.51108">
        <ele>1019</ele>
        <time>2021-08-13T11:56:51Z</time>
      </trkpt>
      <trkpt lat="46.99079" lon="6.51113">
        <ele>1018.3</ele>
        <time>2021-08-13T11:56:53Z</time>
      </trkpt>
      <trkpt lat="46.99083" lon="6.51117">
        <ele>1017.7</ele>
        <time>2021-08-13T11:56:54Z</time>
      </trkpt>
      <trkpt lat="46.99087" lon="6.51122">
        <ele>1017.1</ele>
        <time>2021-08-13T11:56:55Z</time>
      </trkpt>
      <trkpt lat="46.9909" lon="6.51126">
        <ele>1016.5</ele>
        <time>2021-08-13T11:56:56Z</time>
      </trkpt>
      <trkpt lat="46.99096" lon="6.51131">
        <ele>1015.8</ele>
        <time>2021-08-13T11:56:57Z</time>
      </trkpt>
      <trkpt lat="46.99113" lon="6.51131">
        <ele>1013.9</ele>
        <time>2021-08-13T11:56:59Z</time>
      </trkpt>
      <trkpt lat="46.9912" lon="6.51132">
        <ele>1013.2</ele>
        <time>2021-08-13T11:57:00Z</time>
      </trkpt>
      <trkpt lat="46.99132" lon="6.51135">
        <ele>1011.9</ele>
        <time>2021-08-13T11:57:02Z</time>
      </trkpt>
      <trkpt lat="46.99144" lon="6.51138">
        <ele>1010.5</ele>
        <time>2021-08-13T11:57:04Z</time>
      </trkpt>
      <trkpt lat="46.99161" lon="6.5114">
        <ele>1008.7</ele>
        <time>2021-08-13T11:57:06Z</time>
      </trkpt>
      <trkpt lat="46.99175" lon="6.51143">
        <ele>1007</ele>
        <time>2021-08-13T11:57:08Z</time>
      </trkpt>
      <trkpt lat="46.9919" lon="6.51142">
        <ele>1004.9</ele>
        <time>2021-08-13T11:57:10Z</time>
      </trkpt>
      <trkpt lat="46.99201" lon="6.5114">
        <ele>1003.4</ele>
        <time>2021-08-13T11:57:12Z</time>
      </trkpt>
      <trkpt lat="46.99207" lon="6.5114">
        <ele>1002.5</ele>
        <time>2021-08-13T11:57:13Z</time>
      </trkpt>
      <trkpt lat="46.99213" lon="6.5114">
        <ele>1001.6</ele>
        <time>2021-08-13T11:57:14Z</time>
      </trkpt>
      <trkpt lat="46.99222" lon="6.51138">
        <ele>1000.1</ele>
        <time>2021-08-13T11:57:16Z</time>
      </trkpt>
      <trkpt lat="46.99222" lon="6.51138">
        <ele>1000</ele>
        <time>2021-08-13T11:57:17Z</time>
      </trkpt>
      <trkpt lat="46.99223" lon="6.51137">
        <ele>999.8</ele>
        <time>2021-08-13T11:57:19Z</time>
      </trkpt>
      <trkpt lat="46.99225" lon="6.51138">
        <ele>999.5</ele>
        <time>2021-08-13T11:57:20Z</time>
      </trkpt>
      <trkpt lat="46.99264" lon="6.51028">
        <ele>986.6</ele>
        <time>2021-08-13T11:58:21Z</time>
      </trkpt>
      <trkpt lat="46.9927" lon="6.51016">
        <ele>984.9</ele>
        <time>2021-08-13T11:58:23Z</time>
      </trkpt>
      <trkpt lat="46.99274" lon="6.51008">
        <ele>983.8</ele>
        <time>2021-08-13T11:58:24Z</time>
      </trkpt>
      <trkpt lat="46.99276" lon="6.51003">
        <ele>983.1</ele>
        <time>2021-08-13T11:58:25Z</time>
      </trkpt>
      <trkpt lat="46.9928" lon="6.50998">
        <ele>982.1</ele>
        <time>2021-08-13T11:58:26Z</time>
      </trkpt>
      <trkpt lat="46.99287" lon="6.5099">
        <ele>980.6</ele>
        <time>2021-08-13T11:58:28Z</time>
      </trkpt>
      <trkpt lat="46.99293" lon="6.50985">
        <ele>979.2</ele>
        <time>2021-08-13T11:58:29Z</time>
      </trkpt>
      <trkpt lat="46.99297" lon="6.50981">
        <ele>978</ele>
        <time>2021-08-13T11:58:30Z</time>
      </trkpt>
      <trkpt lat="46.99301" lon="6.50976">
        <ele>976.8</ele>
        <time>2021-08-13T11:58:32Z</time>
      </trkpt>
      <trkpt lat="46.99305" lon="6.50973">
        <ele>975.7</ele>
        <time>2021-08-13T11:58:33Z</time>
      </trkpt>
      <trkpt lat="46.99309" lon="6.5097">
        <ele>974.5</ele>
        <time>2021-08-13T11:58:34Z</time>
      </trkpt>
      <trkpt lat="46.99315" lon="6.50965">
        <ele>973.1</ele>
        <time>2021-08-13T11:58:35Z</time>
      </trkpt>
      <trkpt lat="46.99318" lon="6.50962">
        <ele>972.2</ele>
        <time>2021-08-13T11:58:36Z</time>
      </trkpt>
      <trkpt lat="46.99321" lon="6.50963">
        <ele>971.5</ele>
        <time>2021-08-13T11:58:37Z</time>
      </trkpt>
      <trkpt lat="46.99324" lon="6.50964">
        <ele>970.9</ele>
        <time>2021-08-13T11:58:38Z</time>
      </trkpt>
      <trkpt lat="46.99326" lon="6.50953">
        <ele>969.6</ele>
        <time>2021-08-13T11:58:40Z</time>
      </trkpt>
      <trkpt lat="46.99329" lon="6.50951">
        <ele>969</ele>
        <time>2021-08-13T11:58:41Z</time>
      </trkpt>
      <trkpt lat="46.99337" lon="6.5095">
        <ele>967.9</ele>
        <time>2021-08-13T11:58:43Z</time>
      </trkpt>
      <trkpt lat="46.99339" lon="6.50954">
        <ele>967.6</ele>
        <time>2021-08-13T11:58:44Z</time>
      </trkpt>
      <trkpt lat="46.99347" lon="6.50954">
        <ele>966.7</ele>
        <time>2021-08-13T11:58:46Z</time>
      </trkpt>
      <trkpt lat="46.99356" lon="6.50952">
        <ele>965.9</ele>
        <time>2021-08-13T11:58:48Z</time>
      </trkpt>
      <trkpt lat="46.99361" lon="6.50951">
        <ele>965.5</ele>
        <time>2021-08-13T11:58:49Z</time>
      </trkpt>
      <trkpt lat="46.99365" lon="6.50949">
        <ele>965.2</ele>
        <time>2021-08-13T11:58:50Z</time>
      </trkpt>
      <trkpt lat="46.9937" lon="6.50947">
        <ele>964.9</ele>
        <time>2021-08-13T11:58:51Z</time>
      </trkpt>
      <trkpt lat="46.99372" lon="6.50945">
        <ele>964.9</ele>
        <time>2021-08-13T11:58:53Z</time>
      </trkpt>
      <trkpt lat="46.99372" lon="6.50944">
        <ele>964.9</ele>
        <time>2021-08-13T11:58:54Z</time>
      </trkpt>
      <trkpt lat="46.99375" lon="6.50936">
        <ele>965.1</ele>
        <time>2021-08-13T11:58:56Z</time>
      </trkpt>
      <trkpt lat="46.99375" lon="6.50934">
        <ele>965.1</ele>
        <time>2021-08-13T11:58:58Z</time>
      </trkpt>
      <trkpt lat="46.99376" lon="6.50934">
        <ele>965.1</ele>
        <time>2021-08-13T11:59:00Z</time>
      </trkpt>
      <trkpt lat="46.99376" lon="6.50933">
        <ele>965.2</ele>
        <time>2021-08-13T11:59:01Z</time>
      </trkpt>
      <trkpt lat="46.99376" lon="6.50932">
        <ele>965.2</ele>
        <time>2021-08-13T11:59:03Z</time>
      </trkpt>
      <trkpt lat="46.99392" lon="6.50931">
        <ele>965.7</ele>
        <time>2021-08-13T12:00:12Z</time>
      </trkpt>
      <trkpt lat="46.9939" lon="6.50931">
        <ele>965.8</ele>
        <time>2021-08-13T12:00:13Z</time>
      </trkpt>
      <trkpt lat="46.99387" lon="6.50931">
        <ele>965.9</ele>
        <time>2021-08-13T12:00:15Z</time>
      </trkpt>
      <trkpt lat="46.99386" lon="6.50931">
        <ele>965.9</ele>
        <time>2021-08-13T12:00:16Z</time>
      </trkpt>
      <trkpt lat="46.99385" lon="6.50931">
        <ele>966</ele>
        <time>2021-08-13T12:00:17Z</time>
      </trkpt>
      <trkpt lat="46.99381" lon="6.50931">
        <ele>966.1</ele>
        <time>2021-08-13T12:00:18Z</time>
      </trkpt>
      <trkpt lat="46.99377" lon="6.5093">
        <ele>966.2</ele>
        <time>2021-08-13T12:00:19Z</time>
      </trkpt>
      <trkpt lat="46.99374" lon="6.5093">
        <ele>966.3</ele>
        <time>2021-08-13T12:00:20Z</time>
      </trkpt>
      <trkpt lat="46.99371" lon="6.5093">
        <ele>966.4</ele>
        <time>2021-08-13T12:00:21Z</time>
      </trkpt>
      <trkpt lat="46.99362" lon="6.50926">
        <ele>966.7</ele>
        <time>2021-08-13T12:00:23Z</time>
      </trkpt>
      <trkpt lat="46.99359" lon="6.50924">
        <ele>966.9</ele>
        <time>2021-08-13T12:00:24Z</time>
      </trkpt>
      <trkpt lat="46.99358" lon="6.50923">
        <ele>966.9</ele>
        <time>2021-08-13T12:00:25Z</time>
      </trkpt>
      <trkpt lat="46.99357" lon="6.50921">
        <ele>967</ele>
        <time>2021-08-13T12:00:26Z</time>
      </trkpt>
      <trkpt lat="46.99354" lon="6.50917">
        <ele>967.2</ele>
        <time>2021-08-13T12:00:27Z</time>
      </trkpt>
      <trkpt lat="46.99353" lon="6.50914">
        <ele>967.3</ele>
        <time>2021-08-13T12:00:29Z</time>
      </trkpt>
      <trkpt lat="46.99351" lon="6.50912">
        <ele>967.4</ele>
        <time>2021-08-13T12:00:30Z</time>
      </trkpt>
      <trkpt lat="46.9935" lon="6.50909">
        <ele>967.5</ele>
        <time>2021-08-13T12:00:31Z</time>
      </trkpt>
      <trkpt lat="46.99345" lon="6.509">
        <ele>967.8</ele>
        <time>2021-08-13T12:00:32Z</time>
      </trkpt>
      <trkpt lat="46.99342" lon="6.50896">
        <ele>968</ele>
        <time>2021-08-13T12:00:33Z</time>
      </trkpt>
      <trkpt lat="46.99339" lon="6.50893">
        <ele>968.2</ele>
        <time>2021-08-13T12:00:34Z</time>
      </trkpt>
      <trkpt lat="46.99338" lon="6.5089">
        <ele>968.3</ele>
        <time>2021-08-13T12:00:35Z</time>
      </trkpt>
      <trkpt lat="46.99336" lon="6.50886">
        <ele>968.5</ele>
        <time>2021-08-13T12:00:36Z</time>
      </trkpt>
      <trkpt lat="46.99335" lon="6.50881">
        <ele>968.6</ele>
        <time>2021-08-13T12:00:37Z</time>
      </trkpt>
      <trkpt lat="46.99332" lon="6.50877">
        <ele>968.8</ele>
        <time>2021-08-13T12:00:38Z</time>
      </trkpt>
      <trkpt lat="46.99331" lon="6.50875">
        <ele>968.9</ele>
        <time>2021-08-13T12:00:39Z</time>
      </trkpt>
      <trkpt lat="46.9933" lon="6.5087">
        <ele>969.1</ele>
        <time>2021-08-13T12:00:41Z</time>
      </trkpt>
      <trkpt lat="46.9933" lon="6.50867">
        <ele>969.2</ele>
        <time>2021-08-13T12:00:42Z</time>
      </trkpt>
      <trkpt lat="46.9933" lon="6.50862">
        <ele>969.4</ele>
        <time>2021-08-13T12:00:44Z</time>
      </trkpt>
      <trkpt lat="46.99329" lon="6.50856">
        <ele>969.6</ele>
        <time>2021-08-13T12:00:45Z</time>
      </trkpt>
      <trkpt lat="46.99329" lon="6.50854">
        <ele>969.7</ele>
        <time>2021-08-13T12:00:46Z</time>
      </trkpt>
      <trkpt lat="46.99327" lon="6.50851">
        <ele>969.8</ele>
        <time>2021-08-13T12:00:47Z</time>
      </trkpt>
      <trkpt lat="46.99326" lon="6.50849">
        <ele>969.9</ele>
        <time>2021-08-13T12:00:49Z</time>
      </trkpt>
      <trkpt lat="46.99325" lon="6.50848">
        <ele>970</ele>
        <time>2021-08-13T12:00:50Z</time>
      </trkpt>
      <trkpt lat="46.9932" lon="6.50844">
        <ele>970.3</ele>
        <time>2021-08-13T12:00:52Z</time>
      </trkpt>
      <trkpt lat="46.99318" lon="6.5084">
        <ele>970.5</ele>
        <time>2021-08-13T12:00:53Z</time>
      </trkpt>
      <trkpt lat="46.99317" lon="6.50839">
        <ele>970.5</ele>
        <time>2021-08-13T12:00:54Z</time>
      </trkpt>
      <trkpt lat="46.99315" lon="6.50835">
        <ele>970.7</ele>
        <time>2021-08-13T12:00:55Z</time>
      </trkpt>
      <trkpt lat="46.99313" lon="6.50833">
        <ele>970.8</ele>
        <time>2021-08-13T12:00:56Z</time>
      </trkpt>
      <trkpt lat="46.99312" lon="6.5083">
        <ele>970.9</ele>
        <time>2021-08-13T12:00:58Z</time>
      </trkpt>
      <trkpt lat="46.9931" lon="6.50826">
        <ele>971.1</ele>
        <time>2021-08-13T12:00:59Z</time>
      </trkpt>
      <trkpt lat="46.99308" lon="6.50821">
        <ele>971.3</ele>
        <time>2021-08-13T12:01:00Z</time>
      </trkpt>
      <trkpt lat="46.99308" lon="6.5082">
        <ele>971.3</ele>
        <time>2021-08-13T12:01:01Z</time>
      </trkpt>
      <trkpt lat="46.99306" lon="6.50818">
        <ele>971.5</ele>
        <time>2021-08-13T12:01:02Z</time>
      </trkpt>
      <trkpt lat="46.99304" lon="6.50811">
        <ele>971.7</ele>
        <time>2021-08-13T12:01:04Z</time>
      </trkpt>
      <trkpt lat="46.99302" lon="6.50806">
        <ele>971.9</ele>
        <time>2021-08-13T12:01:05Z</time>
      </trkpt>
      <trkpt lat="46.99301" lon="6.50803">
        <ele>972</ele>
        <time>2021-08-13T12:01:06Z</time>
      </trkpt>
      <trkpt lat="46.993" lon="6.50799">
        <ele>972.1</ele>
        <time>2021-08-13T12:01:07Z</time>
      </trkpt>
      <trkpt lat="46.99299" lon="6.50794">
        <ele>972.3</ele>
        <time>2021-08-13T12:01:09Z</time>
      </trkpt>
      <trkpt lat="46.99298" lon="6.50793">
        <ele>972.3</ele>
        <time>2021-08-13T12:01:10Z</time>
      </trkpt>
      <trkpt lat="46.99296" lon="6.5079">
        <ele>972.4</ele>
        <time>2021-08-13T12:01:11Z</time>
      </trkpt>
      <trkpt lat="46.99295" lon="6.50787">
        <ele>972.6</ele>
        <time>2021-08-13T12:01:12Z</time>
      </trkpt>
      <trkpt lat="46.99292" lon="6.50781">
        <ele>972.7</ele>
        <time>2021-08-13T12:01:14Z</time>
      </trkpt>
      <trkpt lat="46.99291" lon="6.50779">
        <ele>972.8</ele>
        <time>2021-08-13T12:01:15Z</time>
      </trkpt>
      <trkpt lat="46.9929" lon="6.50775">
        <ele>972.9</ele>
        <time>2021-08-13T12:01:17Z</time>
      </trkpt>
      <trkpt lat="46.9929" lon="6.50772">
        <ele>973</ele>
        <time>2021-08-13T12:01:18Z</time>
      </trkpt>
      <trkpt lat="46.99289" lon="6.50766">
        <ele>973.2</ele>
        <time>2021-08-13T12:01:20Z</time>
      </trkpt>
      <trkpt lat="46.99289" lon="6.50761">
        <ele>973.3</ele>
        <time>2021-08-13T12:01:21Z</time>
      </trkpt>
      <trkpt lat="46.99289" lon="6.50756">
        <ele>973.4</ele>
        <time>2021-08-13T12:01:22Z</time>
      </trkpt>
      <trkpt lat="46.99288" lon="6.50754">
        <ele>973.5</ele>
        <time>2021-08-13T12:01:23Z</time>
      </trkpt>
      <trkpt lat="46.99286" lon="6.50748">
        <ele>973.7</ele>
        <time>2021-08-13T12:01:25Z</time>
      </trkpt>
      <trkpt lat="46.99284" lon="6.50744">
        <ele>973.8</ele>
        <time>2021-08-13T12:01:26Z</time>
      </trkpt>
      <trkpt lat="46.99283" lon="6.5074">
        <ele>973.9</ele>
        <time>2021-08-13T12:01:28Z</time>
      </trkpt>
      <trkpt lat="46.99283" lon="6.50734">
        <ele>974</ele>
        <time>2021-08-13T12:01:29Z</time>
      </trkpt>
      <trkpt lat="46.99282" lon="6.50731">
        <ele>974.1</ele>
        <time>2021-08-13T12:01:30Z</time>
      </trkpt>
      <trkpt lat="46.99281" lon="6.50728">
        <ele>974.2</ele>
        <time>2021-08-13T12:01:32Z</time>
      </trkpt>
      <trkpt lat="46.99281" lon="6.50722">
        <ele>974.3</ele>
        <time>2021-08-13T12:01:33Z</time>
      </trkpt>
      <trkpt lat="46.99281" lon="6.5072">
        <ele>974.4</ele>
        <time>2021-08-13T12:01:34Z</time>
      </trkpt>
      <trkpt lat="46.99282" lon="6.50715">
        <ele>974.5</ele>
        <time>2021-08-13T12:01:35Z</time>
      </trkpt>
      <trkpt lat="46.99283" lon="6.5071">
        <ele>974.6</ele>
        <time>2021-08-13T12:01:36Z</time>
      </trkpt>
      <trkpt lat="46.99283" lon="6.50706">
        <ele>974.7</ele>
        <time>2021-08-13T12:01:37Z</time>
      </trkpt>
      <trkpt lat="46.99283" lon="6.50697">
        <ele>974.9</ele>
        <time>2021-08-13T12:01:39Z</time>
      </trkpt>
      <trkpt lat="46.99283" lon="6.50693">
        <ele>975</ele>
        <time>2021-08-13T12:01:40Z</time>
      </trkpt>
      <trkpt lat="46.99283" lon="6.50688">
        <ele>975.1</ele>
        <time>2021-08-13T12:01:41Z</time>
      </trkpt>
      <trkpt lat="46.99283" lon="6.50686">
        <ele>975.1</ele>
        <time>2021-08-13T12:01:42Z</time>
      </trkpt>
      <trkpt lat="46.99283" lon="6.50682">
        <ele>975.2</ele>
        <time>2021-08-13T12:01:43Z</time>
      </trkpt>
      <trkpt lat="46.99282" lon="6.50678">
        <ele>975.3</ele>
        <time>2021-08-13T12:01:45Z</time>
      </trkpt>
      <trkpt lat="46.99281" lon="6.50673">
        <ele>975.4</ele>
        <time>2021-08-13T12:01:46Z</time>
      </trkpt>
      <trkpt lat="46.9928" lon="6.50669">
        <ele>975.5</ele>
        <time>2021-08-13T12:01:47Z</time>
      </trkpt>
      <trkpt lat="46.9928" lon="6.50668">
        <ele>975.5</ele>
        <time>2021-08-13T12:01:48Z</time>
      </trkpt>
      <trkpt lat="46.99279" lon="6.50665">
        <ele>975.6</ele>
        <time>2021-08-13T12:01:49Z</time>
      </trkpt>
      <trkpt lat="46.99278" lon="6.50662">
        <ele>975.6</ele>
        <time>2021-08-13T12:01:51Z</time>
      </trkpt>
      <trkpt lat="46.99277" lon="6.50659">
        <ele>975.7</ele>
        <time>2021-08-13T12:01:52Z</time>
      </trkpt>
      <trkpt lat="46.99277" lon="6.50657">
        <ele>975.7</ele>
        <time>2021-08-13T12:01:53Z</time>
      </trkpt>
      <trkpt lat="46.99276" lon="6.50652">
        <ele>975.8</ele>
        <time>2021-08-13T12:01:54Z</time>
      </trkpt>
      <trkpt lat="46.99274" lon="6.50646">
        <ele>975.9</ele>
        <time>2021-08-13T12:01:55Z</time>
      </trkpt>
      <trkpt lat="46.99273" lon="6.50644">
        <ele>976</ele>
        <time>2021-08-13T12:01:56Z</time>
      </trkpt>
      <trkpt lat="46.99271" lon="6.50638">
        <ele>976.1</ele>
        <time>2021-08-13T12:01:58Z</time>
      </trkpt>
      <trkpt lat="46.9927" lon="6.50635">
        <ele>976.2</ele>
        <time>2021-08-13T12:01:59Z</time>
      </trkpt>
      <trkpt lat="46.99268" lon="6.50633">
        <ele>976.2</ele>
        <time>2021-08-13T12:02:00Z</time>
      </trkpt>
      <trkpt lat="46.99266" lon="6.50629">
        <ele>976.4</ele>
        <time>2021-08-13T12:02:02Z</time>
      </trkpt>
      <trkpt lat="46.99264" lon="6.50624">
        <ele>976.5</ele>
        <time>2021-08-13T12:02:03Z</time>
      </trkpt>
      <trkpt lat="46.99263" lon="6.50622">
        <ele>976.5</ele>
        <time>2021-08-13T12:02:04Z</time>
      </trkpt>
      <trkpt lat="46.99262" lon="6.50618">
        <ele>976.6</ele>
        <time>2021-08-13T12:02:05Z</time>
      </trkpt>
      <trkpt lat="46.9926" lon="6.50615">
        <ele>976.7</ele>
        <time>2021-08-13T12:02:06Z</time>
      </trkpt>
      <trkpt lat="46.99258" lon="6.50611">
        <ele>976.8</ele>
        <time>2021-08-13T12:02:07Z</time>
      </trkpt>
      <trkpt lat="46.99256" lon="6.50607">
        <ele>976.9</ele>
        <time>2021-08-13T12:02:08Z</time>
      </trkpt>
      <trkpt lat="46.99254" lon="6.50604">
        <ele>977</ele>
        <time>2021-08-13T12:02:10Z</time>
      </trkpt>
      <trkpt lat="46.99252" lon="6.506">
        <ele>977.1</ele>
        <time>2021-08-13T12:02:11Z</time>
      </trkpt>
      <trkpt lat="46.9925" lon="6.50596">
        <ele>977.3</ele>
        <time>2021-08-13T12:02:12Z</time>
      </trkpt>
      <trkpt lat="46.99249" lon="6.50595">
        <ele>977.3</ele>
        <time>2021-08-13T12:02:13Z</time>
      </trkpt>
      <trkpt lat="46.99248" lon="6.50592">
        <ele>977.4</ele>
        <time>2021-08-13T12:02:14Z</time>
      </trkpt>
      <trkpt lat="46.99245" lon="6.50589">
        <ele>977.5</ele>
        <time>2021-08-13T12:02:16Z</time>
      </trkpt>
      <trkpt lat="46.99243" lon="6.50587">
        <ele>977.6</ele>
        <time>2021-08-13T12:02:17Z</time>
      </trkpt>
      <trkpt lat="46.99241" lon="6.50583">
        <ele>977.8</ele>
        <time>2021-08-13T12:02:18Z</time>
      </trkpt>
      <trkpt lat="46.99238" lon="6.50581">
        <ele>977.9</ele>
        <time>2021-08-13T12:02:19Z</time>
      </trkpt>
      <trkpt lat="46.99237" lon="6.5058">
        <ele>978</ele>
        <time>2021-08-13T12:02:20Z</time>
      </trkpt>
      <trkpt lat="46.99236" lon="6.5058">
        <ele>978</ele>
        <time>2021-08-13T12:02:21Z</time>
      </trkpt>
      <trkpt lat="46.99233" lon="6.50579">
        <ele>978.2</ele>
        <time>2021-08-13T12:02:23Z</time>
      </trkpt>
      <trkpt lat="46.99232" lon="6.50579">
        <ele>978.2</ele>
        <time>2021-08-13T12:02:24Z</time>
      </trkpt>
      <trkpt lat="46.99231" lon="6.50577">
        <ele>978.3</ele>
        <time>2021-08-13T12:02:25Z</time>
      </trkpt>
      <trkpt lat="46.99229" lon="6.50573">
        <ele>978.5</ele>
        <time>2021-08-13T12:02:27Z</time>
      </trkpt>
      <trkpt lat="46.99229" lon="6.50568">
        <ele>978.7</ele>
        <time>2021-08-13T12:02:29Z</time>
      </trkpt>
      <trkpt lat="46.99227" lon="6.50564">
        <ele>978.9</ele>
        <time>2021-08-13T12:02:30Z</time>
      </trkpt>
      <trkpt lat="46.99224" lon="6.50561">
        <ele>979.1</ele>
        <time>2021-08-13T12:02:32Z</time>
      </trkpt>
      <trkpt lat="46.99222" lon="6.50559">
        <ele>979.2</ele>
        <time>2021-08-13T12:02:33Z</time>
      </trkpt>
      <trkpt lat="46.9922" lon="6.50555">
        <ele>979.4</ele>
        <time>2021-08-13T12:02:35Z</time>
      </trkpt>
      <trkpt lat="46.99218" lon="6.50552">
        <ele>979.6</ele>
        <time>2021-08-13T12:02:36Z</time>
      </trkpt>
      <trkpt lat="46.99216" lon="6.50547">
        <ele>979.8</ele>
        <time>2021-08-13T12:02:38Z</time>
      </trkpt>
      <trkpt lat="46.99215" lon="6.50546">
        <ele>979.9</ele>
        <time>2021-08-13T12:02:39Z</time>
      </trkpt>
      <trkpt lat="46.99212" lon="6.50543">
        <ele>980.1</ele>
        <time>2021-08-13T12:02:41Z</time>
      </trkpt>
      <trkpt lat="46.99211" lon="6.5054">
        <ele>980.2</ele>
        <time>2021-08-13T12:02:42Z</time>
      </trkpt>
      <trkpt lat="46.9921" lon="6.50536">
        <ele>980.4</ele>
        <time>2021-08-13T12:02:44Z</time>
      </trkpt>
      <trkpt lat="46.99208" lon="6.50533">
        <ele>980.6</ele>
        <time>2021-08-13T12:02:45Z</time>
      </trkpt>
      <trkpt lat="46.99207" lon="6.50532">
        <ele>980.7</ele>
        <time>2021-08-13T12:02:46Z</time>
      </trkpt>
      <trkpt lat="46.99205" lon="6.50529">
        <ele>980.8</ele>
        <time>2021-08-13T12:02:48Z</time>
      </trkpt>
      <trkpt lat="46.99204" lon="6.50526">
        <ele>981</ele>
        <time>2021-08-13T12:02:49Z</time>
      </trkpt>
      <trkpt lat="46.99202" lon="6.50523">
        <ele>981.1</ele>
        <time>2021-08-13T12:02:51Z</time>
      </trkpt>
      <trkpt lat="46.99201" lon="6.50521">
        <ele>981.2</ele>
        <time>2021-08-13T12:02:52Z</time>
      </trkpt>
      <trkpt lat="46.99201" lon="6.50519">
        <ele>981.3</ele>
        <time>2021-08-13T12:02:53Z</time>
      </trkpt>
      <trkpt lat="46.99201" lon="6.50517">
        <ele>981.4</ele>
        <time>2021-08-13T12:02:54Z</time>
      </trkpt>
      <trkpt lat="46.99201" lon="6.50512">
        <ele>981.6</ele>
        <time>2021-08-13T12:02:56Z</time>
      </trkpt>
      <trkpt lat="46.992" lon="6.50508">
        <ele>981.8</ele>
        <time>2021-08-13T12:02:58Z</time>
      </trkpt>
      <trkpt lat="46.992" lon="6.50504">
        <ele>981.9</ele>
        <time>2021-08-13T12:02:59Z</time>
      </trkpt>
      <trkpt lat="46.99198" lon="6.505">
        <ele>982.2</ele>
        <time>2021-08-13T12:03:01Z</time>
      </trkpt>
      <trkpt lat="46.99197" lon="6.50497">
        <ele>982.3</ele>
        <time>2021-08-13T12:03:02Z</time>
      </trkpt>
      <trkpt lat="46.99194" lon="6.50494">
        <ele>982.5</ele>
        <time>2021-08-13T12:03:04Z</time>
      </trkpt>
      <trkpt lat="46.99192" lon="6.50489">
        <ele>982.7</ele>
        <time>2021-08-13T12:03:06Z</time>
      </trkpt>
      <trkpt lat="46.99191" lon="6.50488">
        <ele>982.8</ele>
        <time>2021-08-13T12:03:07Z</time>
      </trkpt>
      <trkpt lat="46.99189" lon="6.50487">
        <ele>983</ele>
        <time>2021-08-13T12:03:09Z</time>
      </trkpt>
      <trkpt lat="46.99187" lon="6.50483">
        <ele>983.2</ele>
        <time>2021-08-13T12:03:11Z</time>
      </trkpt>
      <trkpt lat="46.99185" lon="6.50478">
        <ele>983.4</ele>
        <time>2021-08-13T12:03:13Z</time>
      </trkpt>
      <trkpt lat="46.99183" lon="6.50474">
        <ele>983.7</ele>
        <time>2021-08-13T12:03:15Z</time>
      </trkpt>
      <trkpt lat="46.9918" lon="6.50469">
        <ele>983.9</ele>
        <time>2021-08-13T12:03:17Z</time>
      </trkpt>
      <trkpt lat="46.99179" lon="6.50468">
        <ele>984</ele>
        <time>2021-08-13T12:03:18Z</time>
      </trkpt>
      <trkpt lat="46.99178" lon="6.50466">
        <ele>984.1</ele>
        <time>2021-08-13T12:03:19Z</time>
      </trkpt>
      <trkpt lat="46.99176" lon="6.50464">
        <ele>984.3</ele>
        <time>2021-08-13T12:03:20Z</time>
      </trkpt>
      <trkpt lat="46.99174" lon="6.5046">
        <ele>984.5</ele>
        <time>2021-08-13T12:03:22Z</time>
      </trkpt>
      <trkpt lat="46.99174" lon="6.50458">
        <ele>984.6</ele>
        <time>2021-08-13T12:03:23Z</time>
      </trkpt>
      <trkpt lat="46.99174" lon="6.50457">
        <ele>984.7</ele>
        <time>2021-08-13T12:03:24Z</time>
      </trkpt>
      <trkpt lat="46.99173" lon="6.50455">
        <ele>984.8</ele>
        <time>2021-08-13T12:03:25Z</time>
      </trkpt>
      <trkpt lat="46.99172" lon="6.50453">
        <ele>984.9</ele>
        <time>2021-08-13T12:03:26Z</time>
      </trkpt>
      <trkpt lat="46.99172" lon="6.50452">
        <ele>985</ele>
        <time>2021-08-13T12:03:27Z</time>
      </trkpt>
      <trkpt lat="46.99171" lon="6.50448">
        <ele>985.2</ele>
        <time>2021-08-13T12:03:29Z</time>
      </trkpt>
      <trkpt lat="46.99169" lon="6.50444">
        <ele>985.4</ele>
        <time>2021-08-13T12:03:31Z</time>
      </trkpt>
      <trkpt lat="46.99167" lon="6.50441">
        <ele>985.6</ele>
        <time>2021-08-13T12:03:33Z</time>
      </trkpt>
      <trkpt lat="46.99165" lon="6.5044">
        <ele>985.7</ele>
        <time>2021-08-13T12:03:34Z</time>
      </trkpt>
      <trkpt lat="46.99163" lon="6.50438">
        <ele>986</ele>
        <time>2021-08-13T12:03:36Z</time>
      </trkpt>
      <trkpt lat="46.9916" lon="6.50434">
        <ele>986.2</ele>
        <time>2021-08-13T12:03:38Z</time>
      </trkpt>
      <trkpt lat="46.99158" lon="6.50431">
        <ele>986.5</ele>
        <time>2021-08-13T12:03:39Z</time>
      </trkpt>
      <trkpt lat="46.99157" lon="6.50429">
        <ele>986.6</ele>
        <time>2021-08-13T12:03:40Z</time>
      </trkpt>
      <trkpt lat="46.99156" lon="6.50426">
        <ele>986.7</ele>
        <time>2021-08-13T12:03:41Z</time>
      </trkpt>
      <trkpt lat="46.99153" lon="6.50421">
        <ele>987</ele>
        <time>2021-08-13T12:03:43Z</time>
      </trkpt>
      <trkpt lat="46.9915" lon="6.50419">
        <ele>987.3</ele>
        <time>2021-08-13T12:03:45Z</time>
      </trkpt>
      <trkpt lat="46.99148" lon="6.50418">
        <ele>987.3</ele>
        <time>2021-08-13T12:03:46Z</time>
      </trkpt>
      <trkpt lat="46.99147" lon="6.50418">
        <ele>987.4</ele>
        <time>2021-08-13T12:03:47Z</time>
      </trkpt>
      <trkpt lat="46.99145" lon="6.50415">
        <ele>987.6</ele>
        <time>2021-08-13T12:03:48Z</time>
      </trkpt>
      <trkpt lat="46.99144" lon="6.50414">
        <ele>987.6</ele>
        <time>2021-08-13T12:03:49Z</time>
      </trkpt>
      <trkpt lat="46.99143" lon="6.50411">
        <ele>987.7</ele>
        <time>2021-08-13T12:03:50Z</time>
      </trkpt>
      <trkpt lat="46.99142" lon="6.50406">
        <ele>987.9</ele>
        <time>2021-08-13T12:03:51Z</time>
      </trkpt>
      <trkpt lat="46.99141" lon="6.50401">
        <ele>988.1</ele>
        <time>2021-08-13T12:03:53Z</time>
      </trkpt>
      <trkpt lat="46.99138" lon="6.50396">
        <ele>988.2</ele>
        <time>2021-08-13T12:03:54Z</time>
      </trkpt>
      <trkpt lat="46.99133" lon="6.50389">
        <ele>988.4</ele>
        <time>2021-08-13T12:03:56Z</time>
      </trkpt>
      <trkpt lat="46.99129" lon="6.50381">
        <ele>988.5</ele>
        <time>2021-08-13T12:03:58Z</time>
      </trkpt>
      <trkpt lat="46.99124" lon="6.50371">
        <ele>988.6</ele>
        <time>2021-08-13T12:04:00Z</time>
      </trkpt>
      <trkpt lat="46.9912" lon="6.50366">
        <ele>988.5</ele>
        <time>2021-08-13T12:04:01Z</time>
      </trkpt>
      <trkpt lat="46.99117" lon="6.50361">
        <ele>988.5</ele>
        <time>2021-08-13T12:04:03Z</time>
      </trkpt>
      <trkpt lat="46.99112" lon="6.50356">
        <ele>988.4</ele>
        <time>2021-08-13T12:04:04Z</time>
      </trkpt>
      <trkpt lat="46.99107" lon="6.50354">
        <ele>988.3</ele>
        <time>2021-08-13T12:04:05Z</time>
      </trkpt>
      <trkpt lat="46.99099" lon="6.50352">
        <ele>988.1</ele>
        <time>2021-08-13T12:04:07Z</time>
      </trkpt>
      <trkpt lat="46.99093" lon="6.50351">
        <ele>987.9</ele>
        <time>2021-08-13T12:04:08Z</time>
      </trkpt>
      <trkpt lat="46.99079" lon="6.50347">
        <ele>987.3</ele>
        <time>2021-08-13T12:04:10Z</time>
      </trkpt>
      <trkpt lat="46.99073" lon="6.50345">
        <ele>987</ele>
        <time>2021-08-13T12:04:11Z</time>
      </trkpt>
      <trkpt lat="46.99062" lon="6.50337">
        <ele>986.4</ele>
        <time>2021-08-13T12:04:13Z</time>
      </trkpt>
      <trkpt lat="46.99056" lon="6.50331">
        <ele>985.8</ele>
        <time>2021-08-13T12:04:14Z</time>
      </trkpt>
      <trkpt lat="46.99047" lon="6.50319">
        <ele>986.1</ele>
        <time>2021-08-13T12:04:16Z</time>
      </trkpt>
      <trkpt lat="46.99044" lon="6.50312">
        <ele>986.3</ele>
        <time>2021-08-13T12:04:17Z</time>
      </trkpt>
      <trkpt lat="46.9904" lon="6.50302">
        <ele>986.5</ele>
        <time>2021-08-13T12:04:19Z</time>
      </trkpt>
      <trkpt lat="46.99037" lon="6.50294">
        <ele>986.7</ele>
        <time>2021-08-13T12:04:20Z</time>
      </trkpt>
      <trkpt lat="46.99035" lon="6.50276">
        <ele>987.2</ele>
        <time>2021-08-13T12:04:22Z</time>
      </trkpt>
      <trkpt lat="46.99035" lon="6.50267">
        <ele>987.4</ele>
        <time>2021-08-13T12:04:23Z</time>
      </trkpt>
      <trkpt lat="46.99035" lon="6.5026">
        <ele>987.5</ele>
        <time>2021-08-13T12:04:24Z</time>
      </trkpt>
      <trkpt lat="46.99036" lon="6.50253">
        <ele>987.7</ele>
        <time>2021-08-13T12:04:26Z</time>
      </trkpt>
      <trkpt lat="46.99036" lon="6.50248">
        <ele>987.9</ele>
        <time>2021-08-13T12:04:27Z</time>
      </trkpt>
      <trkpt lat="46.99035" lon="6.5024">
        <ele>988.1</ele>
        <time>2021-08-13T12:04:28Z</time>
      </trkpt>
      <trkpt lat="46.99033" lon="6.50226">
        <ele>988.7</ele>
        <time>2021-08-13T12:04:30Z</time>
      </trkpt>
      <trkpt lat="46.99032" lon="6.50215">
        <ele>989.1</ele>
        <time>2021-08-13T12:04:32Z</time>
      </trkpt>
      <trkpt lat="46.99031" lon="6.50209">
        <ele>989.3</ele>
        <time>2021-08-13T12:04:33Z</time>
      </trkpt>
      <trkpt lat="46.9903" lon="6.50203">
        <ele>989.5</ele>
        <time>2021-08-13T12:04:34Z</time>
      </trkpt>
      <trkpt lat="46.99028" lon="6.50197">
        <ele>989.7</ele>
        <time>2021-08-13T12:04:36Z</time>
      </trkpt>
      <trkpt lat="46.99026" lon="6.50191">
        <ele>989.9</ele>
        <time>2021-08-13T12:04:38Z</time>
      </trkpt>
      <trkpt lat="46.99025" lon="6.50184">
        <ele>990.1</ele>
        <time>2021-08-13T12:04:40Z</time>
      </trkpt>
      <trkpt lat="46.99023" lon="6.50179">
        <ele>990.3</ele>
        <time>2021-08-13T12:04:41Z</time>
      </trkpt>
      <trkpt lat="46.99022" lon="6.50174">
        <ele>990.4</ele>
        <time>2021-08-13T12:04:42Z</time>
      </trkpt>
      <trkpt lat="46.99021" lon="6.50169">
        <ele>990.6</ele>
        <time>2021-08-13T12:04:44Z</time>
      </trkpt>
      <trkpt lat="46.99019" lon="6.50165">
        <ele>990.7</ele>
        <time>2021-08-13T12:04:45Z</time>
      </trkpt>
      <trkpt lat="46.99018" lon="6.50161">
        <ele>990.8</ele>
        <time>2021-08-13T12:04:46Z</time>
      </trkpt>
      <trkpt lat="46.99015" lon="6.50153">
        <ele>991.1</ele>
        <time>2021-08-13T12:04:48Z</time>
      </trkpt>
      <trkpt lat="46.99012" lon="6.50145">
        <ele>991.4</ele>
        <time>2021-08-13T12:04:50Z</time>
      </trkpt>
      <trkpt lat="46.99011" lon="6.50139">
        <ele>991.6</ele>
        <time>2021-08-13T12:04:52Z</time>
      </trkpt>
      <trkpt lat="46.99009" lon="6.50135">
        <ele>991.7</ele>
        <time>2021-08-13T12:04:53Z</time>
      </trkpt>
      <trkpt lat="46.99009" lon="6.5013">
        <ele>991.9</ele>
        <time>2021-08-13T12:04:54Z</time>
      </trkpt>
      <trkpt lat="46.99009" lon="6.50126">
        <ele>992</ele>
        <time>2021-08-13T12:04:55Z</time>
      </trkpt>
      <trkpt lat="46.99008" lon="6.50121">
        <ele>992.1</ele>
        <time>2021-08-13T12:04:57Z</time>
      </trkpt>
      <trkpt lat="46.99008" lon="6.50116">
        <ele>992.3</ele>
        <time>2021-08-13T12:04:58Z</time>
      </trkpt>
      <trkpt lat="46.99007" lon="6.5011">
        <ele>992.5</ele>
        <time>2021-08-13T12:04:59Z</time>
      </trkpt>
      <trkpt lat="46.99006" lon="6.50104">
        <ele>992.7</ele>
        <time>2021-08-13T12:05:00Z</time>
      </trkpt>
      <trkpt lat="46.99004" lon="6.50098">
        <ele>992.9</ele>
        <time>2021-08-13T12:05:02Z</time>
      </trkpt>
      <trkpt lat="46.99002" lon="6.50091">
        <ele>993.2</ele>
        <time>2021-08-13T12:05:04Z</time>
      </trkpt>
      <trkpt lat="46.99001" lon="6.50086">
        <ele>993.3</ele>
        <time>2021-08-13T12:05:05Z</time>
      </trkpt>
      <trkpt lat="46.99" lon="6.50082">
        <ele>993.5</ele>
        <time>2021-08-13T12:05:06Z</time>
      </trkpt>
      <trkpt lat="46.98999" lon="6.50074">
        <ele>993.7</ele>
        <time>2021-08-13T12:05:08Z</time>
      </trkpt>
      <trkpt lat="46.98999" lon="6.50066">
        <ele>993.9</ele>
        <time>2021-08-13T12:05:10Z</time>
      </trkpt>
      <trkpt lat="46.98998" lon="6.50059">
        <ele>994.1</ele>
        <time>2021-08-13T12:05:12Z</time>
      </trkpt>
      <trkpt lat="46.98997" lon="6.50053">
        <ele>994.3</ele>
        <time>2021-08-13T12:05:13Z</time>
      </trkpt>
      <trkpt lat="46.98996" lon="6.50049">
        <ele>994.4</ele>
        <time>2021-08-13T12:05:14Z</time>
      </trkpt>
      <trkpt lat="46.98995" lon="6.50045">
        <ele>994.6</ele>
        <time>2021-08-13T12:05:15Z</time>
      </trkpt>
      <trkpt lat="46.98993" lon="6.50041">
        <ele>994.7</ele>
        <time>2021-08-13T12:05:16Z</time>
      </trkpt>
      <trkpt lat="46.98991" lon="6.50034">
        <ele>994.9</ele>
        <time>2021-08-13T12:05:18Z</time>
      </trkpt>
      <trkpt lat="46.98989" lon="6.50026">
        <ele>995.2</ele>
        <time>2021-08-13T12:05:20Z</time>
      </trkpt>
      <trkpt lat="46.98987" lon="6.50019">
        <ele>995.5</ele>
        <time>2021-08-13T12:05:22Z</time>
      </trkpt>
      <trkpt lat="46.98987" lon="6.50013">
        <ele>995.7</ele>
        <time>2021-08-13T12:05:24Z</time>
      </trkpt>
      <trkpt lat="46.98987" lon="6.50008">
        <ele>995.9</ele>
        <time>2021-08-13T12:05:25Z</time>
      </trkpt>
      <trkpt lat="46.98987" lon="6.50004">
        <ele>996</ele>
        <time>2021-08-13T12:05:26Z</time>
      </trkpt>
      <trkpt lat="46.98988" lon="6.49998">
        <ele>996.2</ele>
        <time>2021-08-13T12:05:28Z</time>
      </trkpt>
      <trkpt lat="46.98989" lon="6.49992">
        <ele>996.4</ele>
        <time>2021-08-13T12:05:29Z</time>
      </trkpt>
      <trkpt lat="46.9899" lon="6.49989">
        <ele>996.6</ele>
        <time>2021-08-13T12:05:30Z</time>
      </trkpt>
      <trkpt lat="46.98992" lon="6.49984">
        <ele>996.8</ele>
        <time>2021-08-13T12:05:32Z</time>
      </trkpt>
      <trkpt lat="46.98994" lon="6.4998">
        <ele>997</ele>
        <time>2021-08-13T12:05:33Z</time>
      </trkpt>
      <trkpt lat="46.98997" lon="6.49975">
        <ele>997.2</ele>
        <time>2021-08-13T12:05:34Z</time>
      </trkpt>
      <trkpt lat="46.98999" lon="6.49972">
        <ele>997.4</ele>
        <time>2021-08-13T12:05:35Z</time>
      </trkpt>
      <trkpt lat="46.99002" lon="6.49968">
        <ele>997.6</ele>
        <time>2021-08-13T12:05:36Z</time>
      </trkpt>
      <trkpt lat="46.99002" lon="6.49967">
        <ele>997.6</ele>
        <time>2021-08-13T12:05:37Z</time>
      </trkpt>
      <trkpt lat="46.99003" lon="6.49962">
        <ele>997.9</ele>
        <time>2021-08-13T12:05:39Z</time>
      </trkpt>
      <trkpt lat="46.99004" lon="6.49956">
        <ele>998.1</ele>
        <time>2021-08-13T12:05:41Z</time>
      </trkpt>
      <trkpt lat="46.99006" lon="6.49952">
        <ele>998.3</ele>
        <time>2021-08-13T12:05:42Z</time>
      </trkpt>
      <trkpt lat="46.99008" lon="6.49945">
        <ele>998.6</ele>
        <time>2021-08-13T12:05:44Z</time>
      </trkpt>
      <trkpt lat="46.9901" lon="6.4994">
        <ele>998.8</ele>
        <time>2021-08-13T12:05:45Z</time>
      </trkpt>
      <trkpt lat="46.9901" lon="6.49938">
        <ele>998.8</ele>
        <time>2021-08-13T12:05:46Z</time>
      </trkpt>
      <trkpt lat="46.99013" lon="6.49934">
        <ele>999.1</ele>
        <time>2021-08-13T12:05:48Z</time>
      </trkpt>
      <trkpt lat="46.99016" lon="6.49932">
        <ele>999.2</ele>
        <time>2021-08-13T12:05:49Z</time>
      </trkpt>
      <trkpt lat="46.99019" lon="6.49928">
        <ele>999.4</ele>
        <time>2021-08-13T12:05:50Z</time>
      </trkpt>
      <trkpt lat="46.99022" lon="6.49922">
        <ele>999.6</ele>
        <time>2021-08-13T12:05:52Z</time>
      </trkpt>
      <trkpt lat="46.99025" lon="6.4992">
        <ele>999.7</ele>
        <time>2021-08-13T12:05:53Z</time>
      </trkpt>
      <trkpt lat="46.99029" lon="6.49916">
        <ele>999.9</ele>
        <time>2021-08-13T12:05:55Z</time>
      </trkpt>
      <trkpt lat="46.99031" lon="6.49912">
        <ele>1000</ele>
        <time>2021-08-13T12:05:56Z</time>
      </trkpt>
      <trkpt lat="46.99034" lon="6.49907">
        <ele>1000.1</ele>
        <time>2021-08-13T12:05:58Z</time>
      </trkpt>
      <trkpt lat="46.99035" lon="6.49904">
        <ele>1000.1</ele>
        <time>2021-08-13T12:05:59Z</time>
      </trkpt>
      <trkpt lat="46.99038" lon="6.49901">
        <ele>1000.2</ele>
        <time>2021-08-13T12:06:00Z</time>
      </trkpt>
      <trkpt lat="46.99039" lon="6.49899">
        <ele>1000.2</ele>
        <time>2021-08-13T12:06:01Z</time>
      </trkpt>
      <trkpt lat="46.99043" lon="6.49895">
        <ele>1000.2</ele>
        <time>2021-08-13T12:06:03Z</time>
      </trkpt>
      <trkpt lat="46.99046" lon="6.49891">
        <ele>1000.2</ele>
        <time>2021-08-13T12:06:04Z</time>
      </trkpt>
      <trkpt lat="46.99047" lon="6.4989">
        <ele>1000.2</ele>
        <time>2021-08-13T12:06:05Z</time>
      </trkpt>
      <trkpt lat="46.99049" lon="6.49888">
        <ele>1000.2</ele>
        <time>2021-08-13T12:06:06Z</time>
      </trkpt>
      <trkpt lat="46.99052" lon="6.49885">
        <ele>1000.2</ele>
        <time>2021-08-13T12:06:08Z</time>
      </trkpt>
      <trkpt lat="46.99055" lon="6.4988">
        <ele>1000.1</ele>
        <time>2021-08-13T12:06:09Z</time>
      </trkpt>
      <trkpt lat="46.99057" lon="6.49878">
        <ele>1000.1</ele>
        <time>2021-08-13T12:06:10Z</time>
      </trkpt>
      <trkpt lat="46.99059" lon="6.49875">
        <ele>1000</ele>
        <time>2021-08-13T12:06:11Z</time>
      </trkpt>
      <trkpt lat="46.99065" lon="6.49869">
        <ele>999.9</ele>
        <time>2021-08-13T12:06:13Z</time>
      </trkpt>
      <trkpt lat="46.99069" lon="6.49861">
        <ele>999.8</ele>
        <time>2021-08-13T12:06:15Z</time>
      </trkpt>
      <trkpt lat="46.99071" lon="6.49856">
        <ele>999.6</ele>
        <time>2021-08-13T12:06:16Z</time>
      </trkpt>
      <trkpt lat="46.99074" lon="6.49846">
        <ele>999.4</ele>
        <time>2021-08-13T12:06:18Z</time>
      </trkpt>
      <trkpt lat="46.99075" lon="6.49838">
        <ele>999.1</ele>
        <time>2021-08-13T12:06:19Z</time>
      </trkpt>
      <trkpt lat="46.99073" lon="6.49827">
        <ele>999.3</ele>
        <time>2021-08-13T12:06:21Z</time>
      </trkpt>
      <trkpt lat="46.9907" lon="6.49819">
        <ele>999.6</ele>
        <time>2021-08-13T12:06:22Z</time>
      </trkpt>
      <trkpt lat="46.99068" lon="6.49813">
        <ele>999.8</ele>
        <time>2021-08-13T12:06:23Z</time>
      </trkpt>
      <trkpt lat="46.99064" lon="6.49806">
        <ele>1000.2</ele>
        <time>2021-08-13T12:06:25Z</time>
      </trkpt>
      <trkpt lat="46.99061" lon="6.49801">
        <ele>1000.5</ele>
        <time>2021-08-13T12:06:26Z</time>
      </trkpt>
      <trkpt lat="46.99059" lon="6.49795">
        <ele>1000.8</ele>
        <time>2021-08-13T12:06:27Z</time>
      </trkpt>
      <trkpt lat="46.99057" lon="6.49789">
        <ele>1001.2</ele>
        <time>2021-08-13T12:06:29Z</time>
      </trkpt>
      <trkpt lat="46.99055" lon="6.49782">
        <ele>1001.6</ele>
        <time>2021-08-13T12:06:31Z</time>
      </trkpt>
      <trkpt lat="46.99053" lon="6.49777">
        <ele>1001.9</ele>
        <time>2021-08-13T12:06:32Z</time>
      </trkpt>
      <trkpt lat="46.99049" lon="6.49772">
        <ele>1002.1</ele>
        <time>2021-08-13T12:06:34Z</time>
      </trkpt>
      <trkpt lat="46.99047" lon="6.49768">
        <ele>1002.3</ele>
        <time>2021-08-13T12:06:35Z</time>
      </trkpt>
      <trkpt lat="46.99045" lon="6.49765">
        <ele>1002.4</ele>
        <time>2021-08-13T12:06:36Z</time>
      </trkpt>
      <trkpt lat="46.99043" lon="6.49759">
        <ele>1002.6</ele>
        <time>2021-08-13T12:06:38Z</time>
      </trkpt>
      <trkpt lat="46.99041" lon="6.49756">
        <ele>1002.7</ele>
        <time>2021-08-13T12:06:39Z</time>
      </trkpt>
      <trkpt lat="46.9904" lon="6.49756">
        <ele>1002.7</ele>
        <time>2021-08-13T12:06:40Z</time>
      </trkpt>
      <trkpt lat="46.99036" lon="6.49754">
        <ele>1002.8</ele>
        <time>2021-08-13T12:06:41Z</time>
      </trkpt>
      <trkpt lat="46.99035" lon="6.49754">
        <ele>1002.8</ele>
        <time>2021-08-13T12:06:42Z</time>
      </trkpt>
      <trkpt lat="46.99032" lon="6.49753">
        <ele>1002.8</ele>
        <time>2021-08-13T12:06:43Z</time>
      </trkpt>
      <trkpt lat="46.99029" lon="6.49752">
        <ele>1002.9</ele>
        <time>2021-08-13T12:06:44Z</time>
      </trkpt>
      <trkpt lat="46.99025" lon="6.49747">
        <ele>1002.9</ele>
        <time>2021-08-13T12:06:46Z</time>
      </trkpt>
      <trkpt lat="46.99021" lon="6.49744">
        <ele>1002.9</ele>
        <time>2021-08-13T12:06:47Z</time>
      </trkpt>
      <trkpt lat="46.9902" lon="6.49744">
        <ele>1002.9</ele>
        <time>2021-08-13T12:06:48Z</time>
      </trkpt>
      <trkpt lat="46.99013" lon="6.49741">
        <ele>1002.8</ele>
        <time>2021-08-13T12:06:50Z</time>
      </trkpt>
      <trkpt lat="46.9901" lon="6.49739">
        <ele>1002.7</ele>
        <time>2021-08-13T12:06:51Z</time>
      </trkpt>
      <trkpt lat="46.99002" lon="6.49734">
        <ele>1002.5</ele>
        <time>2021-08-13T12:06:53Z</time>
      </trkpt>
      <trkpt lat="46.98997" lon="6.49728">
        <ele>1002.3</ele>
        <time>2021-08-13T12:06:55Z</time>
      </trkpt>
      <trkpt lat="46.98993" lon="6.49724">
        <ele>1002.1</ele>
        <time>2021-08-13T12:06:56Z</time>
      </trkpt>
      <trkpt lat="46.98989" lon="6.4972">
        <ele>1001.9</ele>
        <time>2021-08-13T12:06:57Z</time>
      </trkpt>
      <trkpt lat="46.98986" lon="6.49716">
        <ele>1001.7</ele>
        <time>2021-08-13T12:06:58Z</time>
      </trkpt>
      <trkpt lat="46.98983" lon="6.49711">
        <ele>1001.5</ele>
        <time>2021-08-13T12:06:59Z</time>
      </trkpt>
      <trkpt lat="46.98978" lon="6.49703">
        <ele>1001.2</ele>
        <time>2021-08-13T12:07:01Z</time>
      </trkpt>
      <trkpt lat="46.98972" lon="6.49691">
        <ele>1000.7</ele>
        <time>2021-08-13T12:07:02Z</time>
      </trkpt>
      <trkpt lat="46.98965" lon="6.49679">
        <ele>1000.2</ele>
        <time>2021-08-13T12:07:04Z</time>
      </trkpt>
      <trkpt lat="46.98961" lon="6.49674">
        <ele>1000</ele>
        <time>2021-08-13T12:07:05Z</time>
      </trkpt>
      <trkpt lat="46.98951" lon="6.49664">
        <ele>999.6</ele>
        <time>2021-08-13T12:07:07Z</time>
      </trkpt>
      <trkpt lat="46.98947" lon="6.49657">
        <ele>999.4</ele>
        <time>2021-08-13T12:07:08Z</time>
      </trkpt>
      <trkpt lat="46.98943" lon="6.49651">
        <ele>999.2</ele>
        <time>2021-08-13T12:07:09Z</time>
      </trkpt>
      <trkpt lat="46.98936" lon="6.49638">
        <ele>998.9</ele>
        <time>2021-08-13T12:07:11Z</time>
      </trkpt>
      <trkpt lat="46.98933" lon="6.49632">
        <ele>998.8</ele>
        <time>2021-08-13T12:07:12Z</time>
      </trkpt>
      <trkpt lat="46.98929" lon="6.49626">
        <ele>998.6</ele>
        <time>2021-08-13T12:07:13Z</time>
      </trkpt>
      <trkpt lat="46.98926" lon="6.49619">
        <ele>998.5</ele>
        <time>2021-08-13T12:07:14Z</time>
      </trkpt>
      <trkpt lat="46.98919" lon="6.49607">
        <ele>998.4</ele>
        <time>2021-08-13T12:07:16Z</time>
      </trkpt>
      <trkpt lat="46.98915" lon="6.49602">
        <ele>998.3</ele>
        <time>2021-08-13T12:07:17Z</time>
      </trkpt>
      <trkpt lat="46.98911" lon="6.49597">
        <ele>998.3</ele>
        <time>2021-08-13T12:07:18Z</time>
      </trkpt>
      <trkpt lat="46.98905" lon="6.49589">
        <ele>998.2</ele>
        <time>2021-08-13T12:07:20Z</time>
      </trkpt>
      <trkpt lat="46.98902" lon="6.49584">
        <ele>998.2</ele>
        <time>2021-08-13T12:07:21Z</time>
      </trkpt>
      <trkpt lat="46.98895" lon="6.49576">
        <ele>998.2</ele>
        <time>2021-08-13T12:07:23Z</time>
      </trkpt>
      <trkpt lat="46.98888" lon="6.49568">
        <ele>998.1</ele>
        <time>2021-08-13T12:07:25Z</time>
      </trkpt>
      <trkpt lat="46.98883" lon="6.49557">
        <ele>997.9</ele>
        <time>2021-08-13T12:07:27Z</time>
      </trkpt>
      <trkpt lat="46.98877" lon="6.49553">
        <ele>997.7</ele>
        <time>2021-08-13T12:07:28Z</time>
      </trkpt>
      <trkpt lat="46.98873" lon="6.4955">
        <ele>997.5</ele>
        <time>2021-08-13T12:07:29Z</time>
      </trkpt>
      <trkpt lat="46.98865" lon="6.4954">
        <ele>997.1</ele>
        <time>2021-08-13T12:07:31Z</time>
      </trkpt>
      <trkpt lat="46.98861" lon="6.49534">
        <ele>996.8</ele>
        <time>2021-08-13T12:07:32Z</time>
      </trkpt>
      <trkpt lat="46.98851" lon="6.49524">
        <ele>996.2</ele>
        <time>2021-08-13T12:07:34Z</time>
      </trkpt>
      <trkpt lat="46.9884" lon="6.49513">
        <ele>995.4</ele>
        <time>2021-08-13T12:07:36Z</time>
      </trkpt>
      <trkpt lat="46.98835" lon="6.49507">
        <ele>995</ele>
        <time>2021-08-13T12:07:37Z</time>
      </trkpt>
      <trkpt lat="46.9883" lon="6.49503">
        <ele>994.6</ele>
        <time>2021-08-13T12:07:38Z</time>
      </trkpt>
      <trkpt lat="46.9882" lon="6.49491">
        <ele>993.6</ele>
        <time>2021-08-13T12:07:40Z</time>
      </trkpt>
      <trkpt lat="46.98814" lon="6.49485">
        <ele>993.1</ele>
        <time>2021-08-13T12:07:41Z</time>
      </trkpt>
      <trkpt lat="46.98802" lon="6.49472">
        <ele>991.9</ele>
        <time>2021-08-13T12:07:43Z</time>
      </trkpt>
      <trkpt lat="46.9879" lon="6.49458">
        <ele>990.6</ele>
        <time>2021-08-13T12:07:45Z</time>
      </trkpt>
      <trkpt lat="46.98777" lon="6.49443">
        <ele>989.3</ele>
        <time>2021-08-13T12:07:47Z</time>
      </trkpt>
      <trkpt lat="46.9877" lon="6.49436">
        <ele>988.5</ele>
        <time>2021-08-13T12:07:48Z</time>
      </trkpt>
      <trkpt lat="46.98756" lon="6.49421">
        <ele>986.8</ele>
        <time>2021-08-13T12:07:50Z</time>
      </trkpt>
      <trkpt lat="46.98741" lon="6.49406">
        <ele>985.2</ele>
        <time>2021-08-13T12:07:52Z</time>
      </trkpt>
      <trkpt lat="46.98724" lon="6.49389">
        <ele>983.4</ele>
        <time>2021-08-13T12:07:54Z</time>
      </trkpt>
      <trkpt lat="46.98704" lon="6.49373">
        <ele>981.5</ele>
        <time>2021-08-13T12:07:56Z</time>
      </trkpt>
      <trkpt lat="46.98685" lon="6.49358">
        <ele>979.6</ele>
        <time>2021-08-13T12:07:58Z</time>
      </trkpt>
      <trkpt lat="46.98675" lon="6.4935">
        <ele>978.7</ele>
        <time>2021-08-13T12:07:59Z</time>
      </trkpt>
      <trkpt lat="46.98655" lon="6.49333">
        <ele>976.9</ele>
        <time>2021-08-13T12:08:01Z</time>
      </trkpt>
      <trkpt lat="46.98646" lon="6.49323">
        <ele>976</ele>
        <time>2021-08-13T12:08:02Z</time>
      </trkpt>
      <trkpt lat="46.98628" lon="6.49301">
        <ele>974.4</ele>
        <time>2021-08-13T12:08:04Z</time>
      </trkpt>
      <trkpt lat="46.9862" lon="6.4929">
        <ele>973.6</ele>
        <time>2021-08-13T12:08:05Z</time>
      </trkpt>
      <trkpt lat="46.98603" lon="6.49268">
        <ele>972.3</ele>
        <time>2021-08-13T12:08:07Z</time>
      </trkpt>
      <trkpt lat="46.98595" lon="6.49258">
        <ele>971.8</ele>
        <time>2021-08-13T12:08:08Z</time>
      </trkpt>
      <trkpt lat="46.98588" lon="6.49248">
        <ele>971.3</ele>
        <time>2021-08-13T12:08:09Z</time>
      </trkpt>
      <trkpt lat="46.98574" lon="6.4923">
        <ele>970.4</ele>
        <time>2021-08-13T12:08:11Z</time>
      </trkpt>
      <trkpt lat="46.9856" lon="6.49212">
        <ele>969.6</ele>
        <time>2021-08-13T12:08:13Z</time>
      </trkpt>
      <trkpt lat="46.98553" lon="6.49202">
        <ele>969.2</ele>
        <time>2021-08-13T12:08:14Z</time>
      </trkpt>
      <trkpt lat="46.98547" lon="6.49193">
        <ele>968.6</ele>
        <time>2021-08-13T12:08:15Z</time>
      </trkpt>
      <trkpt lat="46.98532" lon="6.49173">
        <ele>967.5</ele>
        <time>2021-08-13T12:08:17Z</time>
      </trkpt>
      <trkpt lat="46.98525" lon="6.49163">
        <ele>967.1</ele>
        <time>2021-08-13T12:08:18Z</time>
      </trkpt>
      <trkpt lat="46.98511" lon="6.49145">
        <ele>966.7</ele>
        <time>2021-08-13T12:08:20Z</time>
      </trkpt>
      <trkpt lat="46.98504" lon="6.49136">
        <ele>966.8</ele>
        <time>2021-08-13T12:08:21Z</time>
      </trkpt>
      <trkpt lat="46.98491" lon="6.49118">
        <ele>967</ele>
        <time>2021-08-13T12:08:23Z</time>
      </trkpt>
      <trkpt lat="46.98485" lon="6.49109">
        <ele>967.2</ele>
        <time>2021-08-13T12:08:24Z</time>
      </trkpt>
      <trkpt lat="46.9848" lon="6.491">
        <ele>967.5</ele>
        <time>2021-08-13T12:08:25Z</time>
      </trkpt>
      <trkpt lat="46.98475" lon="6.4909">
        <ele>967.8</ele>
        <time>2021-08-13T12:08:26Z</time>
      </trkpt>
      <trkpt lat="46.98468" lon="6.49073">
        <ele>968.3</ele>
        <time>2021-08-13T12:08:28Z</time>
      </trkpt>
      <trkpt lat="46.98466" lon="6.49065">
        <ele>968.7</ele>
        <time>2021-08-13T12:08:29Z</time>
      </trkpt>
      <trkpt lat="46.98465" lon="6.49057">
        <ele>969</ele>
        <time>2021-08-13T12:08:30Z</time>
      </trkpt>
      <trkpt lat="46.98464" lon="6.49051">
        <ele>969.4</ele>
        <time>2021-08-13T12:08:31Z</time>
      </trkpt>
      <trkpt lat="46.98464" lon="6.49046">
        <ele>969.7</ele>
        <time>2021-08-13T12:08:32Z</time>
      </trkpt>
      <trkpt lat="46.98467" lon="6.49037">
        <ele>970.2</ele>
        <time>2021-08-13T12:08:34Z</time>
      </trkpt>
      <trkpt lat="46.98469" lon="6.49032">
        <ele>970.5</ele>
        <time>2021-08-13T12:08:35Z</time>
      </trkpt>
      <trkpt lat="46.98472" lon="6.49028">
        <ele>970.8</ele>
        <time>2021-08-13T12:08:36Z</time>
      </trkpt>
      <trkpt lat="46.98478" lon="6.4902">
        <ele>971.5</ele>
        <time>2021-08-13T12:08:38Z</time>
      </trkpt>
      <trkpt lat="46.98478" lon="6.49018">
        <ele>971.6</ele>
        <time>2021-08-13T12:08:39Z</time>
      </trkpt>
      <trkpt lat="46.9848" lon="6.49016">
        <ele>971.5</ele>
        <time>2021-08-13T12:08:41Z</time>
      </trkpt>
      <trkpt lat="46.98484" lon="6.49016">
        <ele>971.3</ele>
        <time>2021-08-13T12:08:42Z</time>
      </trkpt>
      <trkpt lat="46.98486" lon="6.49018">
        <ele>971.2</ele>
        <time>2021-08-13T12:08:43Z</time>
      </trkpt>
      <trkpt lat="46.98488" lon="6.49024">
        <ele>970.9</ele>
        <time>2021-08-13T12:08:45Z</time>
      </trkpt>
      <trkpt lat="46.98488" lon="6.49027">
        <ele>970.8</ele>
        <time>2021-08-13T12:08:46Z</time>
      </trkpt>
      <trkpt lat="46.98487" lon="6.49031">
        <ele>970.7</ele>
        <time>2021-08-13T12:08:48Z</time>
      </trkpt>
      <trkpt lat="46.98485" lon="6.49034">
        <ele>970.6</ele>
        <time>2021-08-13T12:08:49Z</time>
      </trkpt>
      <trkpt lat="46.98484" lon="6.49036">
        <ele>970.5</ele>
        <time>2021-08-13T12:08:51Z</time>
      </trkpt>
      <trkpt lat="46.98471" lon="6.49046">
        <ele>969.7</ele>
        <time>2021-08-13T12:08:52Z</time>
      </trkpt>
      <trkpt lat="46.98471" lon="6.49046">
        <ele>969.7</ele>
        <time>2021-08-13T12:08:52Z</time>
      </trkpt>
      <trkpt lat="46.98467" lon="6.49047">
        <ele>969.5</ele>
        <time>2021-08-13T12:08:53Z</time>
      </trkpt>
      <trkpt lat="46.98458" lon="6.49052">
        <ele>968.6</ele>
        <time>2021-08-13T12:08:55Z</time>
      </trkpt>
      <trkpt lat="46.98452" lon="6.49057">
        <ele>968.8</ele>
        <time>2021-08-13T12:08:56Z</time>
      </trkpt>
      <trkpt lat="46.98447" lon="6.4906">
        <ele>969.1</ele>
        <time>2021-08-13T12:08:57Z</time>
      </trkpt>
      <trkpt lat="46.98442" lon="6.49063">
        <ele>969.4</ele>
        <time>2021-08-13T12:08:58Z</time>
      </trkpt>
      <trkpt lat="46.98437" lon="6.49064">
        <ele>969.7</ele>
        <time>2021-08-13T12:08:59Z</time>
      </trkpt>
      <trkpt lat="46.98432" lon="6.49064">
        <ele>970.1</ele>
        <time>2021-08-13T12:09:00Z</time>
      </trkpt>
      <trkpt lat="46.98428" lon="6.49062">
        <ele>970.5</ele>
        <time>2021-08-13T12:09:01Z</time>
      </trkpt>
      <trkpt lat="46.98424" lon="6.4906">
        <ele>970.9</ele>
        <time>2021-08-13T12:09:02Z</time>
      </trkpt>
      <trkpt lat="46.98421" lon="6.49061">
        <ele>971.1</ele>
        <time>2021-08-13T12:09:03Z</time>
      </trkpt>
      <trkpt lat="46.98418" lon="6.49062">
        <ele>971.3</ele>
        <time>2021-08-13T12:09:05Z</time>
      </trkpt>
      <trkpt lat="46.98414" lon="6.49064">
        <ele>971.6</ele>
        <time>2021-08-13T12:09:06Z</time>
      </trkpt>
      <trkpt lat="46.98413" lon="6.49065">
        <ele>971.7</ele>
        <time>2021-08-13T12:09:07Z</time>
      </trkpt>
      <trkpt lat="46.9841" lon="6.49065">
        <ele>971.9</ele>
        <time>2021-08-13T12:09:08Z</time>
      </trkpt>
      <trkpt lat="46.98406" lon="6.49065">
        <ele>972.2</ele>
        <time>2021-08-13T12:09:10Z</time>
      </trkpt>
      <trkpt lat="46.98402" lon="6.49065">
        <ele>972.4</ele>
        <time>2021-08-13T12:09:11Z</time>
      </trkpt>
      <trkpt lat="46.98397" lon="6.49064">
        <ele>972.6</ele>
        <time>2021-08-13T12:09:13Z</time>
      </trkpt>
      <trkpt lat="46.98396" lon="6.49062">
        <ele>972.7</ele>
        <time>2021-08-13T12:09:15Z</time>
      </trkpt>
      <trkpt lat="46.98393" lon="6.49059">
        <ele>972.8</ele>
        <time>2021-08-13T12:09:17Z</time>
      </trkpt>
      <trkpt lat="46.9839" lon="6.49057">
        <ele>972.9</ele>
        <time>2021-08-13T12:09:18Z</time>
      </trkpt>
      <trkpt lat="46.98385" lon="6.49051">
        <ele>973</ele>
        <time>2021-08-13T12:09:20Z</time>
      </trkpt>
      <trkpt lat="46.9838" lon="6.49048">
        <ele>973</ele>
        <time>2021-08-13T12:09:21Z</time>
      </trkpt>
      <trkpt lat="46.98375" lon="6.49046">
        <ele>973.1</ele>
        <time>2021-08-13T12:09:23Z</time>
      </trkpt>
      <trkpt lat="46.9837" lon="6.49044">
        <ele>973.1</ele>
        <time>2021-08-13T12:09:24Z</time>
      </trkpt>
      <trkpt lat="46.98365" lon="6.49042">
        <ele>973.2</ele>
        <time>2021-08-13T12:09:25Z</time>
      </trkpt>
      <trkpt lat="46.98358" lon="6.49041">
        <ele>973.2</ele>
        <time>2021-08-13T12:09:27Z</time>
      </trkpt>
      <trkpt lat="46.98352" lon="6.4904">
        <ele>973.3</ele>
        <time>2021-08-13T12:09:28Z</time>
      </trkpt>
      <trkpt lat="46.98346" lon="6.4904">
        <ele>973.4</ele>
        <time>2021-08-13T12:09:30Z</time>
      </trkpt>
      <trkpt lat="46.98342" lon="6.4904">
        <ele>973.4</ele>
        <time>2021-08-13T12:09:31Z</time>
      </trkpt>
      <trkpt lat="46.98338" lon="6.4904">
        <ele>973.5</ele>
        <time>2021-08-13T12:09:32Z</time>
      </trkpt>
      <trkpt lat="46.98332" lon="6.49037">
        <ele>973.5</ele>
        <time>2021-08-13T12:09:34Z</time>
      </trkpt>
      <trkpt lat="46.98328" lon="6.49037">
        <ele>973.6</ele>
        <time>2021-08-13T12:09:35Z</time>
      </trkpt>
      <trkpt lat="46.98325" lon="6.49037">
        <ele>973.7</ele>
        <time>2021-08-13T12:09:36Z</time>
      </trkpt>
      <trkpt lat="46.9832" lon="6.49036">
        <ele>973.8</ele>
        <time>2021-08-13T12:09:38Z</time>
      </trkpt>
      <trkpt lat="46.98317" lon="6.49035">
        <ele>973.9</ele>
        <time>2021-08-13T12:09:39Z</time>
      </trkpt>
      <trkpt lat="46.98313" lon="6.49036">
        <ele>974</ele>
        <time>2021-08-13T12:09:41Z</time>
      </trkpt>
      <trkpt lat="46.9831" lon="6.49036">
        <ele>974.1</ele>
        <time>2021-08-13T12:09:42Z</time>
      </trkpt>
      <trkpt lat="46.98306" lon="6.49036">
        <ele>974.2</ele>
        <time>2021-08-13T12:09:43Z</time>
      </trkpt>
      <trkpt lat="46.98305" lon="6.49036">
        <ele>974.3</ele>
        <time>2021-08-13T12:09:44Z</time>
      </trkpt>
      <trkpt lat="46.98302" lon="6.49034">
        <ele>974.4</ele>
        <time>2021-08-13T12:09:45Z</time>
      </trkpt>
      <trkpt lat="46.98301" lon="6.49033">
        <ele>974.4</ele>
        <time>2021-08-13T12:09:46Z</time>
      </trkpt>
      <trkpt lat="46.98297" lon="6.49032">
        <ele>974.6</ele>
        <time>2021-08-13T12:09:47Z</time>
      </trkpt>
      <trkpt lat="46.98295" lon="6.49031">
        <ele>974.6</ele>
        <time>2021-08-13T12:09:48Z</time>
      </trkpt>
      <trkpt lat="46.98293" lon="6.4903">
        <ele>974.7</ele>
        <time>2021-08-13T12:09:49Z</time>
      </trkpt>
      <trkpt lat="46.98289" lon="6.49028">
        <ele>974.9</ele>
        <time>2021-08-13T12:09:51Z</time>
      </trkpt>
      <trkpt lat="46.98285" lon="6.49026">
        <ele>975.1</ele>
        <time>2021-08-13T12:09:52Z</time>
      </trkpt>
      <trkpt lat="46.98283" lon="6.49026">
        <ele>975.1</ele>
        <time>2021-08-13T12:09:53Z</time>
      </trkpt>
      <trkpt lat="46.98278" lon="6.49024">
        <ele>975.4</ele>
        <time>2021-08-13T12:09:55Z</time>
      </trkpt>
      <trkpt lat="46.98275" lon="6.49024">
        <ele>975.5</ele>
        <time>2021-08-13T12:09:56Z</time>
      </trkpt>
      <trkpt lat="46.98269" lon="6.49024">
        <ele>975.8</ele>
        <time>2021-08-13T12:09:58Z</time>
      </trkpt>
      <trkpt lat="46.98266" lon="6.49024">
        <ele>976</ele>
        <time>2021-08-13T12:09:59Z</time>
      </trkpt>
      <trkpt lat="46.98261" lon="6.49024">
        <ele>976.3</ele>
        <time>2021-08-13T12:10:01Z</time>
      </trkpt>
      <trkpt lat="46.98258" lon="6.49024">
        <ele>976.5</ele>
        <time>2021-08-13T12:10:02Z</time>
      </trkpt>
      <trkpt lat="46.98256" lon="6.49024">
        <ele>976.6</ele>
        <time>2021-08-13T12:10:03Z</time>
      </trkpt>
      <trkpt lat="46.98254" lon="6.49023">
        <ele>976.8</ele>
        <time>2021-08-13T12:10:04Z</time>
      </trkpt>
      <trkpt lat="46.98251" lon="6.49021">
        <ele>977</ele>
        <time>2021-08-13T12:10:06Z</time>
      </trkpt>
      <trkpt lat="46.9825" lon="6.49021">
        <ele>977</ele>
        <time>2021-08-13T12:10:07Z</time>
      </trkpt>
      <trkpt lat="46.9825" lon="6.49018">
        <ele>977.1</ele>
        <time>2021-08-13T12:10:08Z</time>
      </trkpt>
      <trkpt lat="46.98249" lon="6.49018">
        <ele>977.2</ele>
        <time>2021-08-13T12:10:09Z</time>
      </trkpt>
      <trkpt lat="46.98248" lon="6.49017">
        <ele>977.2</ele>
        <time>2021-08-13T12:10:11Z</time>
      </trkpt>
      <trkpt lat="46.98247" lon="6.49017">
        <ele>977.3</ele>
        <time>2021-08-13T12:10:12Z</time>
      </trkpt>
      <trkpt lat="46.98247" lon="6.49017">
        <ele>977.3</ele>
        <time>2021-08-13T12:10:13Z</time>
      </trkpt>
      <trkpt lat="46.98244" lon="6.49015">
        <ele>977.5</ele>
        <time>2021-08-13T12:10:14Z</time>
      </trkpt>
      <trkpt lat="46.98241" lon="6.49012">
        <ele>977.7</ele>
        <time>2021-08-13T12:10:16Z</time>
      </trkpt>
      <trkpt lat="46.9824" lon="6.49012">
        <ele>977.7</ele>
        <time>2021-08-13T12:10:17Z</time>
      </trkpt>
      <trkpt lat="46.98238" lon="6.49011">
        <ele>977.8</ele>
        <time>2021-08-13T12:10:18Z</time>
      </trkpt>
      <trkpt lat="46.98237" lon="6.4901">
        <ele>977.9</ele>
        <time>2021-08-13T12:10:19Z</time>
      </trkpt>
      <trkpt lat="46.98233" lon="6.49007">
        <ele>978.1</ele>
        <time>2021-08-13T12:10:21Z</time>
      </trkpt>
      <trkpt lat="46.98229" lon="6.49005">
        <ele>978.3</ele>
        <time>2021-08-13T12:10:22Z</time>
      </trkpt>
      <trkpt lat="46.98228" lon="6.49004">
        <ele>978.3</ele>
        <time>2021-08-13T12:10:23Z</time>
      </trkpt>
      <trkpt lat="46.98225" lon="6.49003">
        <ele>978.5</ele>
        <time>2021-08-13T12:10:25Z</time>
      </trkpt>
      <trkpt lat="46.98224" lon="6.49002">
        <ele>978.5</ele>
        <time>2021-08-13T12:10:26Z</time>
      </trkpt>
      <trkpt lat="46.98222" lon="6.49">
        <ele>978.6</ele>
        <time>2021-08-13T12:10:27Z</time>
      </trkpt>
      <trkpt lat="46.98221" lon="6.48999">
        <ele>978.7</ele>
        <time>2021-08-13T12:10:28Z</time>
      </trkpt>
      <trkpt lat="46.9822" lon="6.48998">
        <ele>978.7</ele>
        <time>2021-08-13T12:10:29Z</time>
      </trkpt>
      <trkpt lat="46.98219" lon="6.48998">
        <ele>978.8</ele>
        <time>2021-08-13T12:10:30Z</time>
      </trkpt>
      <trkpt lat="46.98216" lon="6.48998">
        <ele>978.9</ele>
        <time>2021-08-13T12:10:32Z</time>
      </trkpt>
      <trkpt lat="46.98212" lon="6.49">
        <ele>979</ele>
        <time>2021-08-13T12:10:33Z</time>
      </trkpt>
      <trkpt lat="46.98211" lon="6.49001">
        <ele>979.1</ele>
        <time>2021-08-13T12:10:34Z</time>
      </trkpt>
      <trkpt lat="46.98208" lon="6.49002">
        <ele>979.2</ele>
        <time>2021-08-13T12:10:35Z</time>
      </trkpt>
      <trkpt lat="46.98204" lon="6.49004">
        <ele>979.4</ele>
        <time>2021-08-13T12:10:36Z</time>
      </trkpt>
      <trkpt lat="46.982" lon="6.49006">
        <ele>979.7</ele>
        <time>2021-08-13T12:10:37Z</time>
      </trkpt>
      <trkpt lat="46.98196" lon="6.49007">
        <ele>980</ele>
        <time>2021-08-13T12:10:38Z</time>
      </trkpt>
      <trkpt lat="46.98191" lon="6.4901">
        <ele>980.4</ele>
        <time>2021-08-13T12:10:40Z</time>
      </trkpt>
      <trkpt lat="46.98187" lon="6.49009">
        <ele>980.6</ele>
        <time>2021-08-13T12:10:41Z</time>
      </trkpt>
      <trkpt lat="46.98185" lon="6.49008">
        <ele>980.8</ele>
        <time>2021-08-13T12:10:42Z</time>
      </trkpt>
      <trkpt lat="46.98184" lon="6.49008">
        <ele>980.9</ele>
        <time>2021-08-13T12:10:43Z</time>
      </trkpt>
      <trkpt lat="46.98184" lon="6.49007">
        <ele>980.9</ele>
        <time>2021-08-13T12:10:44Z</time>
      </trkpt>
      <trkpt lat="46.98185" lon="6.49006">
        <ele>981</ele>
        <time>2021-08-13T12:10:45Z</time>
      </trkpt>
      <trkpt lat="46.98185" lon="6.49006">
        <ele>981</ele>
        <time>2021-08-13T12:10:47Z</time>
      </trkpt>
      <trkpt lat="46.98185" lon="6.49006">
        <ele>981</ele>
        <time>2021-08-13T12:10:48Z</time>
      </trkpt>
      <trkpt lat="46.98185" lon="6.49006">
        <ele>981</ele>
        <time>2021-08-13T12:10:50Z</time>
      </trkpt>
      <trkpt lat="46.98185" lon="6.49005">
        <ele>981</ele>
        <time>2021-08-13T12:10:52Z</time>
      </trkpt>
      <trkpt lat="46.98185" lon="6.49005">
        <ele>981.1</ele>
        <time>2021-08-13T12:10:54Z</time>
      </trkpt>
      <trkpt lat="46.98124" lon="6.48991">
        <ele>982.3</ele>
        <time>2021-08-13T12:12:20Z</time>
      </trkpt>
      <trkpt lat="46.98118" lon="6.48978">
        <ele>982.4</ele>
        <time>2021-08-13T12:12:22Z</time>
      </trkpt>
      <trkpt lat="46.98114" lon="6.48973">
        <ele>982.4</ele>
        <time>2021-08-13T12:12:23Z</time>
      </trkpt>
      <trkpt lat="46.98111" lon="6.48969">
        <ele>982.5</ele>
        <time>2021-08-13T12:12:24Z</time>
      </trkpt>
      <trkpt lat="46.98108" lon="6.48962">
        <ele>982.7</ele>
        <time>2021-08-13T12:12:26Z</time>
      </trkpt>
      <trkpt lat="46.98108" lon="6.48958">
        <ele>982.8</ele>
        <time>2021-08-13T12:12:27Z</time>
      </trkpt>
      <trkpt lat="46.98106" lon="6.48953">
        <ele>982.9</ele>
        <time>2021-08-13T12:12:28Z</time>
      </trkpt>
      <trkpt lat="46.98106" lon="6.48952">
        <ele>983</ele>
        <time>2021-08-13T12:12:29Z</time>
      </trkpt>
      <trkpt lat="46.98106" lon="6.48952">
        <ele>983</ele>
        <time>2021-08-13T12:12:31Z</time>
      </trkpt>
      <trkpt lat="46.98107" lon="6.48952">
        <ele>983</ele>
        <time>2021-08-13T12:12:32Z</time>
      </trkpt>
      <trkpt lat="46.98106" lon="6.48953">
        <ele>983</ele>
        <time>2021-08-13T12:12:34Z</time>
      </trkpt>
      <trkpt lat="46.98105" lon="6.48952">
        <ele>983.1</ele>
        <time>2021-08-13T12:12:35Z</time>
      </trkpt>
      <trkpt lat="46.98102" lon="6.48951">
        <ele>983.2</ele>
        <time>2021-08-13T12:12:37Z</time>
      </trkpt>
      <trkpt lat="46.981" lon="6.48949">
        <ele>983.4</ele>
        <time>2021-08-13T12:12:38Z</time>
      </trkpt>
      <trkpt lat="46.98097" lon="6.48946">
        <ele>983.5</ele>
        <time>2021-08-13T12:12:40Z</time>
      </trkpt>
      <trkpt lat="46.98089" lon="6.48926">
        <ele>984.6</ele>
        <time>2021-08-13T12:12:43Z</time>
      </trkpt>
      <trkpt lat="46.98086" lon="6.48916">
        <ele>985.1</ele>
        <time>2021-08-13T12:12:45Z</time>
      </trkpt>
      <trkpt lat="46.98085" lon="6.48911">
        <ele>985.3</ele>
        <time>2021-08-13T12:12:46Z</time>
      </trkpt>
      <trkpt lat="46.98084" lon="6.48906">
        <ele>985.5</ele>
        <time>2021-08-13T12:12:47Z</time>
      </trkpt>
      <trkpt lat="46.98082" lon="6.48899">
        <ele>985.8</ele>
        <time>2021-08-13T12:12:49Z</time>
      </trkpt>
      <trkpt lat="46.9808" lon="6.48894">
        <ele>985.9</ele>
        <time>2021-08-13T12:12:50Z</time>
      </trkpt>
      <trkpt lat="46.98077" lon="6.48886">
        <ele>986.2</ele>
        <time>2021-08-13T12:12:52Z</time>
      </trkpt>
      <trkpt lat="46.98076" lon="6.48884">
        <ele>986.3</ele>
        <time>2021-08-13T12:12:53Z</time>
      </trkpt>
      <trkpt lat="46.98075" lon="6.48884">
        <ele>986.3</ele>
        <time>2021-08-13T12:12:54Z</time>
      </trkpt>
      <trkpt lat="46.98074" lon="6.48883">
        <ele>986.3</ele>
        <time>2021-08-13T12:12:55Z</time>
      </trkpt>
      <trkpt lat="46.98073" lon="6.4888">
        <ele>986.4</ele>
        <time>2021-08-13T12:12:57Z</time>
      </trkpt>
      <trkpt lat="46.9807" lon="6.48877">
        <ele>986.6</ele>
        <time>2021-08-13T12:12:58Z</time>
      </trkpt>
      <trkpt lat="46.98067" lon="6.48872">
        <ele>986.7</ele>
        <time>2021-08-13T12:13:00Z</time>
      </trkpt>
      <trkpt lat="46.98066" lon="6.48871">
        <ele>986.8</ele>
        <time>2021-08-13T12:13:01Z</time>
      </trkpt>
      <trkpt lat="46.98066" lon="6.48869">
        <ele>986.9</ele>
        <time>2021-08-13T12:13:02Z</time>
      </trkpt>
      <trkpt lat="46.98063" lon="6.48866">
        <ele>987</ele>
        <time>2021-08-13T12:13:03Z</time>
      </trkpt>
      <trkpt lat="46.9806" lon="6.48865">
        <ele>987.2</ele>
        <time>2021-08-13T12:13:04Z</time>
      </trkpt>
      <trkpt lat="46.98058" lon="6.48863">
        <ele>987.3</ele>
        <time>2021-08-13T12:13:05Z</time>
      </trkpt>
      <trkpt lat="46.98054" lon="6.48859">
        <ele>987.6</ele>
        <time>2021-08-13T12:13:07Z</time>
      </trkpt>
      <trkpt lat="46.9805" lon="6.48857">
        <ele>987.7</ele>
        <time>2021-08-13T12:13:08Z</time>
      </trkpt>
      <trkpt lat="46.98048" lon="6.48856">
        <ele>987.9</ele>
        <time>2021-08-13T12:13:10Z</time>
      </trkpt>
      <trkpt lat="46.98043" lon="6.48854">
        <ele>988.1</ele>
        <time>2021-08-13T12:13:11Z</time>
      </trkpt>
      <trkpt lat="46.9804" lon="6.4885">
        <ele>988.2</ele>
        <time>2021-08-13T12:13:13Z</time>
      </trkpt>
      <trkpt lat="46.98039" lon="6.48849">
        <ele>988.3</ele>
        <time>2021-08-13T12:13:14Z</time>
      </trkpt>
      <trkpt lat="46.98038" lon="6.48848">
        <ele>988.3</ele>
        <time>2021-08-13T12:13:15Z</time>
      </trkpt>
      <trkpt lat="46.98037" lon="6.48846">
        <ele>988.4</ele>
        <time>2021-08-13T12:13:16Z</time>
      </trkpt>
      <trkpt lat="46.98037" lon="6.48843">
        <ele>988.5</ele>
        <time>2021-08-13T12:13:17Z</time>
      </trkpt>
      <trkpt lat="46.98036" lon="6.4884">
        <ele>988.6</ele>
        <time>2021-08-13T12:13:18Z</time>
      </trkpt>
      <trkpt lat="46.98036" lon="6.4884">
        <ele>988.6</ele>
        <time>2021-08-13T12:13:18Z</time>
      </trkpt>
      <trkpt lat="46.98034" lon="6.48835">
        <ele>988.7</ele>
        <time>2021-08-13T12:13:20Z</time>
      </trkpt>
      <trkpt lat="46.98034" lon="6.48829">
        <ele>988.9</ele>
        <time>2021-08-13T12:13:21Z</time>
      </trkpt>
      <trkpt lat="46.98034" lon="6.48824">
        <ele>989.1</ele>
        <time>2021-08-13T12:13:22Z</time>
      </trkpt>
      <trkpt lat="46.98034" lon="6.48817">
        <ele>989.4</ele>
        <time>2021-08-13T12:13:23Z</time>
      </trkpt>
      <trkpt lat="46.98035" lon="6.48809">
        <ele>989.7</ele>
        <time>2021-08-13T12:13:24Z</time>
      </trkpt>
      <trkpt lat="46.98034" lon="6.48802">
        <ele>990</ele>
        <time>2021-08-13T12:13:25Z</time>
      </trkpt>
      <trkpt lat="46.98032" lon="6.48793">
        <ele>990.4</ele>
        <time>2021-08-13T12:13:27Z</time>
      </trkpt>
      <trkpt lat="46.98031" lon="6.48786">
        <ele>990.7</ele>
        <time>2021-08-13T12:13:28Z</time>
      </trkpt>
      <trkpt lat="46.98027" lon="6.48777">
        <ele>991</ele>
        <time>2021-08-13T12:13:30Z</time>
      </trkpt>
      <trkpt lat="46.98024" lon="6.48771">
        <ele>991.1</ele>
        <time>2021-08-13T12:13:31Z</time>
      </trkpt>
      <trkpt lat="46.9802" lon="6.48765">
        <ele>991.1</ele>
        <time>2021-08-13T12:13:32Z</time>
      </trkpt>
      <trkpt lat="46.98017" lon="6.48759">
        <ele>991.2</ele>
        <time>2021-08-13T12:13:34Z</time>
      </trkpt>
      <trkpt lat="46.98014" lon="6.48755">
        <ele>991.2</ele>
        <time>2021-08-13T12:13:35Z</time>
      </trkpt>
      <trkpt lat="46.98013" lon="6.4875">
        <ele>991.2</ele>
        <time>2021-08-13T12:13:36Z</time>
      </trkpt>
      <trkpt lat="46.98012" lon="6.48746">
        <ele>991.1</ele>
        <time>2021-08-13T12:13:37Z</time>
      </trkpt>
      <trkpt lat="46.98012" lon="6.48741">
        <ele>991.1</ele>
        <time>2021-08-13T12:13:39Z</time>
      </trkpt>
      <trkpt lat="46.98011" lon="6.48736">
        <ele>991.1</ele>
        <time>2021-08-13T12:13:40Z</time>
      </trkpt>
      <trkpt lat="46.98011" lon="6.48734">
        <ele>991.1</ele>
        <time>2021-08-13T12:13:41Z</time>
      </trkpt>
      <trkpt lat="46.9801" lon="6.48731">
        <ele>991</ele>
        <time>2021-08-13T12:13:42Z</time>
      </trkpt>
      <trkpt lat="46.98007" lon="6.48726">
        <ele>991</ele>
        <time>2021-08-13T12:13:44Z</time>
      </trkpt>
      <trkpt lat="46.98005" lon="6.48722">
        <ele>990.9</ele>
        <time>2021-08-13T12:13:45Z</time>
      </trkpt>
      <trkpt lat="46.98002" lon="6.48718">
        <ele>990.9</ele>
        <time>2021-08-13T12:13:47Z</time>
      </trkpt>
      <trkpt lat="46.98001" lon="6.48714">
        <ele>990.8</ele>
        <time>2021-08-13T12:13:48Z</time>
      </trkpt>
      <trkpt lat="46.97999" lon="6.48711">
        <ele>990.8</ele>
        <time>2021-08-13T12:13:50Z</time>
      </trkpt>
      <trkpt lat="46.97996" lon="6.48708">
        <ele>990.8</ele>
        <time>2021-08-13T12:13:51Z</time>
      </trkpt>
      <trkpt lat="46.97994" lon="6.48705">
        <ele>990.7</ele>
        <time>2021-08-13T12:13:52Z</time>
      </trkpt>
      <trkpt lat="46.97993" lon="6.48702">
        <ele>990.7</ele>
        <time>2021-08-13T12:13:53Z</time>
      </trkpt>
      <trkpt lat="46.97991" lon="6.48697">
        <ele>990.6</ele>
        <time>2021-08-13T12:13:54Z</time>
      </trkpt>
      <trkpt lat="46.9799" lon="6.48693">
        <ele>990.6</ele>
        <time>2021-08-13T12:13:55Z</time>
      </trkpt>
      <trkpt lat="46.97989" lon="6.48689">
        <ele>990.5</ele>
        <time>2021-08-13T12:13:57Z</time>
      </trkpt>
      <trkpt lat="46.97987" lon="6.48685">
        <ele>990.5</ele>
        <time>2021-08-13T12:13:58Z</time>
      </trkpt>
      <trkpt lat="46.97984" lon="6.48679">
        <ele>990.4</ele>
        <time>2021-08-13T12:14:00Z</time>
      </trkpt>
      <trkpt lat="46.97984" lon="6.48677">
        <ele>990.3</ele>
        <time>2021-08-13T12:14:01Z</time>
      </trkpt>
      <trkpt lat="46.97983" lon="6.48676">
        <ele>990.3</ele>
        <time>2021-08-13T12:14:02Z</time>
      </trkpt>
      <trkpt lat="46.97982" lon="6.48673">
        <ele>990.2</ele>
        <time>2021-08-13T12:14:03Z</time>
      </trkpt>
      <trkpt lat="46.9798" lon="6.48669">
        <ele>990.2</ele>
        <time>2021-08-13T12:14:05Z</time>
      </trkpt>
      <trkpt lat="46.97978" lon="6.48665">
        <ele>990.1</ele>
        <time>2021-08-13T12:14:06Z</time>
      </trkpt>
      <trkpt lat="46.97974" lon="6.48663">
        <ele>990</ele>
        <time>2021-08-13T12:14:08Z</time>
      </trkpt>
      <trkpt lat="46.97971" lon="6.48661">
        <ele>989.9</ele>
        <time>2021-08-13T12:14:09Z</time>
      </trkpt>
      <trkpt lat="46.97968" lon="6.48658">
        <ele>989.8</ele>
        <time>2021-08-13T12:14:10Z</time>
      </trkpt>
      <trkpt lat="46.97966" lon="6.48655">
        <ele>989.7</ele>
        <time>2021-08-13T12:14:11Z</time>
      </trkpt>
      <trkpt lat="46.97963" lon="6.48652">
        <ele>989.6</ele>
        <time>2021-08-13T12:14:12Z</time>
      </trkpt>
      <trkpt lat="46.97959" lon="6.48644">
        <ele>989.5</ele>
        <time>2021-08-13T12:14:14Z</time>
      </trkpt>
      <trkpt lat="46.97953" lon="6.48635">
        <ele>989.2</ele>
        <time>2021-08-13T12:14:15Z</time>
      </trkpt>
      <trkpt lat="46.97946" lon="6.48621">
        <ele>988.9</ele>
        <time>2021-08-13T12:14:17Z</time>
      </trkpt>
      <trkpt lat="46.97941" lon="6.48612">
        <ele>988.7</ele>
        <time>2021-08-13T12:14:19Z</time>
      </trkpt>
      <trkpt lat="46.97939" lon="6.48604">
        <ele>988.6</ele>
        <time>2021-08-13T12:14:20Z</time>
      </trkpt>
      <trkpt lat="46.97936" lon="6.48597">
        <ele>988.4</ele>
        <time>2021-08-13T12:14:22Z</time>
      </trkpt>
      <trkpt lat="46.9793" lon="6.48586">
        <ele>988.2</ele>
        <time>2021-08-13T12:14:23Z</time>
      </trkpt>
      <trkpt lat="46.97925" lon="6.4858">
        <ele>988</ele>
        <time>2021-08-13T12:14:24Z</time>
      </trkpt>
      <trkpt lat="46.97921" lon="6.48574">
        <ele>988</ele>
        <time>2021-08-13T12:14:25Z</time>
      </trkpt>
      <trkpt lat="46.97916" lon="6.48568">
        <ele>988</ele>
        <time>2021-08-13T12:14:26Z</time>
      </trkpt>
      <trkpt lat="46.97908" lon="6.48559">
        <ele>988.2</ele>
        <time>2021-08-13T12:14:28Z</time>
      </trkpt>
      <trkpt lat="46.97905" lon="6.48555">
        <ele>988.3</ele>
        <time>2021-08-13T12:14:29Z</time>
      </trkpt>
      <trkpt lat="46.97904" lon="6.48552">
        <ele>988.4</ele>
        <time>2021-08-13T12:14:30Z</time>
      </trkpt>
      <trkpt lat="46.97901" lon="6.48546">
        <ele>988.6</ele>
        <time>2021-08-13T12:14:32Z</time>
      </trkpt>
      <trkpt lat="46.97898" lon="6.48542">
        <ele>988.8</ele>
        <time>2021-08-13T12:14:33Z</time>
      </trkpt>
      <trkpt lat="46.97894" lon="6.48535">
        <ele>989.1</ele>
        <time>2021-08-13T12:14:34Z</time>
      </trkpt>
      <trkpt lat="46.97891" lon="6.48531">
        <ele>989.3</ele>
        <time>2021-08-13T12:14:35Z</time>
      </trkpt>
      <trkpt lat="46.9789" lon="6.48526">
        <ele>989.5</ele>
        <time>2021-08-13T12:14:36Z</time>
      </trkpt>
      <trkpt lat="46.97889" lon="6.48525">
        <ele>989.6</ele>
        <time>2021-08-13T12:14:37Z</time>
      </trkpt>
      <trkpt lat="46.97888" lon="6.48521">
        <ele>989.8</ele>
        <time>2021-08-13T12:14:38Z</time>
      </trkpt>
      <trkpt lat="46.97886" lon="6.48516">
        <ele>990</ele>
        <time>2021-08-13T12:14:40Z</time>
      </trkpt>
      <trkpt lat="46.97885" lon="6.48513">
        <ele>990.1</ele>
        <time>2021-08-13T12:14:41Z</time>
      </trkpt>
      <trkpt lat="46.97884" lon="6.48509">
        <ele>990.3</ele>
        <time>2021-08-13T12:14:43Z</time>
      </trkpt>
      <trkpt lat="46.97883" lon="6.4851">
        <ele>990.3</ele>
        <time>2021-08-13T12:14:44Z</time>
      </trkpt>
      <trkpt lat="46.97883" lon="6.48511">
        <ele>990.4</ele>
        <time>2021-08-13T12:14:45Z</time>
      </trkpt>
      <trkpt lat="46.97883" lon="6.48512">
        <ele>990.4</ele>
        <time>2021-08-13T12:14:46Z</time>
      </trkpt>
      <trkpt lat="46.97884" lon="6.48515">
        <ele>990.6</ele>
        <time>2021-08-13T12:14:48Z</time>
      </trkpt>
      <trkpt lat="46.97885" lon="6.48514">
        <ele>990.6</ele>
        <time>2021-08-13T12:14:49Z</time>
      </trkpt>
      <trkpt lat="46.97885" lon="6.48513">
        <ele>990.6</ele>
        <time>2021-08-13T12:14:51Z</time>
      </trkpt>
      <trkpt lat="46.97885" lon="6.48512">
        <ele>990.7</ele>
        <time>2021-08-13T12:14:52Z</time>
      </trkpt>
      <trkpt lat="46.97887" lon="6.48512">
        <ele>990.8</ele>
        <time>2021-08-13T12:14:54Z</time>
      </trkpt>
      <trkpt lat="46.97887" lon="6.48512">
        <ele>990.9</ele>
        <time>2021-08-13T12:14:55Z</time>
      </trkpt>
      <trkpt lat="46.97888" lon="6.48512">
        <ele>990.9</ele>
        <time>2021-08-13T12:14:56Z</time>
      </trkpt>
      <trkpt lat="46.97889" lon="6.48512">
        <ele>991</ele>
        <time>2021-08-13T12:14:58Z</time>
      </trkpt>
      <trkpt lat="46.97889" lon="6.48511">
        <ele>991</ele>
        <time>2021-08-13T12:14:59Z</time>
      </trkpt>
      <trkpt lat="46.97888" lon="6.48509">
        <ele>991.2</ele>
        <time>2021-08-13T12:15:00Z</time>
      </trkpt>
      <trkpt lat="46.97887" lon="6.48505">
        <ele>991.4</ele>
        <time>2021-08-13T12:15:01Z</time>
      </trkpt>
      <trkpt lat="46.97886" lon="6.48504">
        <ele>991.4</ele>
        <time>2021-08-13T12:15:02Z</time>
      </trkpt>
      <trkpt lat="46.97864" lon="6.48467">
        <ele>993</ele>
        <time>2021-08-13T12:15:08Z</time>
      </trkpt>
      <trkpt lat="46.97862" lon="6.48462">
        <ele>993.2</ele>
        <time>2021-08-13T12:15:10Z</time>
      </trkpt>
      <trkpt lat="46.97858" lon="6.48456">
        <ele>993.3</ele>
        <time>2021-08-13T12:15:11Z</time>
      </trkpt>
      <trkpt lat="46.97853" lon="6.48449">
        <ele>993.5</ele>
        <time>2021-08-13T12:15:13Z</time>
      </trkpt>
      <trkpt lat="46.9785" lon="6.48444">
        <ele>993.6</ele>
        <time>2021-08-13T12:15:14Z</time>
      </trkpt>
      <trkpt lat="46.97847" lon="6.4844">
        <ele>993.7</ele>
        <time>2021-08-13T12:15:15Z</time>
      </trkpt>
      <trkpt lat="46.97844" lon="6.48434">
        <ele>993.8</ele>
        <time>2021-08-13T12:15:17Z</time>
      </trkpt>
      <trkpt lat="46.97843" lon="6.48433">
        <ele>993.8</ele>
        <time>2021-08-13T12:15:18Z</time>
      </trkpt>
      <trkpt lat="46.97842" lon="6.48431">
        <ele>993.8</ele>
        <time>2021-08-13T12:15:19Z</time>
      </trkpt>
      <trkpt lat="46.97842" lon="6.48432">
        <ele>993.8</ele>
        <time>2021-08-13T12:15:20Z</time>
      </trkpt>
      <trkpt lat="46.97841" lon="6.48435">
        <ele>993.8</ele>
        <time>2021-08-13T12:15:22Z</time>
      </trkpt>
      <trkpt lat="46.97841" lon="6.48435">
        <ele>993.8</ele>
        <time>2021-08-13T12:15:23Z</time>
      </trkpt>
      <trkpt lat="46.9784" lon="6.48436">
        <ele>993.8</ele>
        <time>2021-08-13T12:15:24Z</time>
      </trkpt>
      <trkpt lat="46.97839" lon="6.48436">
        <ele>993.8</ele>
        <time>2021-08-13T12:15:25Z</time>
      </trkpt>
      <trkpt lat="46.97838" lon="6.48436">
        <ele>993.8</ele>
        <time>2021-08-13T12:15:26Z</time>
      </trkpt>
      <trkpt lat="46.97836" lon="6.48435">
        <ele>993.8</ele>
        <time>2021-08-13T12:15:28Z</time>
      </trkpt>
      <trkpt lat="46.97832" lon="6.4843">
        <ele>993.8</ele>
        <time>2021-08-13T12:15:29Z</time>
      </trkpt>
      <trkpt lat="46.9783" lon="6.48428">
        <ele>993.8</ele>
        <time>2021-08-13T12:15:30Z</time>
      </trkpt>
      <trkpt lat="46.97827" lon="6.48424">
        <ele>993.8</ele>
        <time>2021-08-13T12:15:32Z</time>
      </trkpt>
      <trkpt lat="46.97816" lon="6.48412">
        <ele>994.1</ele>
        <time>2021-08-13T12:15:34Z</time>
      </trkpt>
      <trkpt lat="46.97813" lon="6.48409">
        <ele>994.2</ele>
        <time>2021-08-13T12:15:35Z</time>
      </trkpt>
      <trkpt lat="46.9781" lon="6.48407">
        <ele>994.4</ele>
        <time>2021-08-13T12:15:37Z</time>
      </trkpt>
      <trkpt lat="46.97807" lon="6.48404">
        <ele>994.7</ele>
        <time>2021-08-13T12:15:38Z</time>
      </trkpt>
      <trkpt lat="46.97806" lon="6.48402">
        <ele>994.8</ele>
        <time>2021-08-13T12:15:39Z</time>
      </trkpt>
      <trkpt lat="46.97804" lon="6.48399">
        <ele>995</ele>
        <time>2021-08-13T12:15:40Z</time>
      </trkpt>
      <trkpt lat="46.9776" lon="6.48366">
        <ele>998.7</ele>
        <time>2021-08-13T12:16:19Z</time>
      </trkpt>
      <trkpt lat="46.97755" lon="6.48367">
        <ele>998.8</ele>
        <time>2021-08-13T12:16:21Z</time>
      </trkpt>
      <trkpt lat="46.97749" lon="6.48368">
        <ele>998.9</ele>
        <time>2021-08-13T12:16:22Z</time>
      </trkpt>
      <trkpt lat="46.97743" lon="6.48368">
        <ele>999</ele>
        <time>2021-08-13T12:16:24Z</time>
      </trkpt>
      <trkpt lat="46.97736" lon="6.48366">
        <ele>999.1</ele>
        <time>2021-08-13T12:16:25Z</time>
      </trkpt>
      <trkpt lat="46.97729" lon="6.48364">
        <ele>999.3</ele>
        <time>2021-08-13T12:16:26Z</time>
      </trkpt>
      <trkpt lat="46.97725" lon="6.48363">
        <ele>999.4</ele>
        <time>2021-08-13T12:16:28Z</time>
      </trkpt>
      <trkpt lat="46.97721" lon="6.48363">
        <ele>999.5</ele>
        <time>2021-08-13T12:16:29Z</time>
      </trkpt>
      <trkpt lat="46.97718" lon="6.48364">
        <ele>999.6</ele>
        <time>2021-08-13T12:16:30Z</time>
      </trkpt>
      <trkpt lat="46.97714" lon="6.48366">
        <ele>999.7</ele>
        <time>2021-08-13T12:16:32Z</time>
      </trkpt>
      <trkpt lat="46.9768" lon="6.48393">
        <ele>1001</ele>
        <time>2021-08-13T12:16:38Z</time>
      </trkpt>
      <trkpt lat="46.97677" lon="6.48396">
        <ele>1001.1</ele>
        <time>2021-08-13T12:16:39Z</time>
      </trkpt>
      <trkpt lat="46.97673" lon="6.48398">
        <ele>1001.3</ele>
        <time>2021-08-13T12:16:40Z</time>
      </trkpt>
      <trkpt lat="46.9767" lon="6.48398">
        <ele>1001.4</ele>
        <time>2021-08-13T12:16:41Z</time>
      </trkpt>
      <trkpt lat="46.97667" lon="6.48397">
        <ele>1001.5</ele>
        <time>2021-08-13T12:16:42Z</time>
      </trkpt>
      <trkpt lat="46.97664" lon="6.48398">
        <ele>1001.7</ele>
        <time>2021-08-13T12:16:44Z</time>
      </trkpt>
      <trkpt lat="46.97662" lon="6.48401">
        <ele>1001.8</ele>
        <time>2021-08-13T12:16:45Z</time>
      </trkpt>
      <trkpt lat="46.97656" lon="6.48408">
        <ele>1002.1</ele>
        <time>2021-08-13T12:16:47Z</time>
      </trkpt>
      <trkpt lat="46.97655" lon="6.48409">
        <ele>1002.1</ele>
        <time>2021-08-13T12:16:48Z</time>
      </trkpt>
      <trkpt lat="46.97653" lon="6.4841">
        <ele>1002.2</ele>
        <time>2021-08-13T12:16:50Z</time>
      </trkpt>
      <trkpt lat="46.97653" lon="6.4841">
        <ele>1002.2</ele>
        <time>2021-08-13T12:16:51Z</time>
      </trkpt>
      <trkpt lat="46.97651" lon="6.48409">
        <ele>1002.3</ele>
        <time>2021-08-13T12:16:53Z</time>
      </trkpt>
      <trkpt lat="46.9765" lon="6.48407">
        <ele>1002.4</ele>
        <time>2021-08-13T12:16:55Z</time>
      </trkpt>
      <trkpt lat="46.97654" lon="6.48291">
        <ele>1006.1</ele>
        <time>2021-08-13T12:17:13Z</time>
      </trkpt>
      <trkpt lat="46.97658" lon="6.48271">
        <ele>1006.7</ele>
        <time>2021-08-13T12:17:15Z</time>
      </trkpt>
      <trkpt lat="46.97658" lon="6.48264">
        <ele>1006.9</ele>
        <time>2021-08-13T12:17:17Z</time>
      </trkpt>
      <trkpt lat="46.97657" lon="6.48257">
        <ele>1007</ele>
        <time>2021-08-13T12:17:19Z</time>
      </trkpt>
      <trkpt lat="46.97658" lon="6.48249">
        <ele>1007.3</ele>
        <time>2021-08-13T12:17:21Z</time>
      </trkpt>
      <trkpt lat="46.97655" lon="6.4824">
        <ele>1007.5</ele>
        <time>2021-08-13T12:17:23Z</time>
      </trkpt>
      <trkpt lat="46.9765" lon="6.48235">
        <ele>1007.7</ele>
        <time>2021-08-13T12:17:25Z</time>
      </trkpt>
      <trkpt lat="46.97647" lon="6.48231">
        <ele>1007.9</ele>
        <time>2021-08-13T12:17:26Z</time>
      </trkpt>
      <trkpt lat="46.97646" lon="6.48224">
        <ele>1008.1</ele>
        <time>2021-08-13T12:17:28Z</time>
      </trkpt>
      <trkpt lat="46.97645" lon="6.48222">
        <ele>1008.2</ele>
        <time>2021-08-13T12:17:29Z</time>
      </trkpt>
      <trkpt lat="46.97645" lon="6.4822">
        <ele>1008.3</ele>
        <time>2021-08-13T12:17:30Z</time>
      </trkpt>
      <trkpt lat="46.97643" lon="6.48212">
        <ele>1008.5</ele>
        <time>2021-08-13T12:17:32Z</time>
      </trkpt>
      <trkpt lat="46.97641" lon="6.48205">
        <ele>1008.7</ele>
        <time>2021-08-13T12:17:34Z</time>
      </trkpt>
      <trkpt lat="46.97641" lon="6.482">
        <ele>1008.9</ele>
        <time>2021-08-13T12:17:36Z</time>
      </trkpt>
      <trkpt lat="46.97642" lon="6.48195">
        <ele>1009.1</ele>
        <time>2021-08-13T12:17:37Z</time>
      </trkpt>
      <trkpt lat="46.97642" lon="6.48187">
        <ele>1009.4</ele>
        <time>2021-08-13T12:17:39Z</time>
      </trkpt>
      <trkpt lat="46.97644" lon="6.48181">
        <ele>1009.6</ele>
        <time>2021-08-13T12:17:40Z</time>
      </trkpt>
      <trkpt lat="46.97645" lon="6.48178">
        <ele>1009.7</ele>
        <time>2021-08-13T12:17:41Z</time>
      </trkpt>
      <trkpt lat="46.97645" lon="6.48172">
        <ele>1009.9</ele>
        <time>2021-08-13T12:17:43Z</time>
      </trkpt>
      <trkpt lat="46.97644" lon="6.48169">
        <ele>1010</ele>
        <time>2021-08-13T12:17:44Z</time>
      </trkpt>
      <trkpt lat="46.97644" lon="6.48164">
        <ele>1010.2</ele>
        <time>2021-08-13T12:17:46Z</time>
      </trkpt>
      <trkpt lat="46.97645" lon="6.48162">
        <ele>1010.2</ele>
        <time>2021-08-13T12:17:47Z</time>
      </trkpt>
      <trkpt lat="46.97647" lon="6.48154">
        <ele>1010.5</ele>
        <time>2021-08-13T12:17:49Z</time>
      </trkpt>
      <trkpt lat="46.97647" lon="6.48149">
        <ele>1010.7</ele>
        <time>2021-08-13T12:17:50Z</time>
      </trkpt>
      <trkpt lat="46.97648" lon="6.48147">
        <ele>1010.8</ele>
        <time>2021-08-13T12:17:52Z</time>
      </trkpt>
      <trkpt lat="46.97648" lon="6.48145">
        <ele>1010.8</ele>
        <time>2021-08-13T12:17:54Z</time>
      </trkpt>
      <trkpt lat="46.97648" lon="6.48143">
        <ele>1010.9</ele>
        <time>2021-08-13T12:17:55Z</time>
      </trkpt>
      <trkpt lat="46.97649" lon="6.48139">
        <ele>1011</ele>
        <time>2021-08-13T12:17:57Z</time>
      </trkpt>
      <trkpt lat="46.97615" lon="6.48048">
        <ele>1014.1</ele>
        <time>2021-08-13T12:18:32Z</time>
      </trkpt>
      <trkpt lat="46.97611" lon="6.48042">
        <ele>1014.3</ele>
        <time>2021-08-13T12:18:34Z</time>
      </trkpt>
      <trkpt lat="46.97609" lon="6.48039">
        <ele>1014.4</ele>
        <time>2021-08-13T12:18:35Z</time>
      </trkpt>
      <trkpt lat="46.97608" lon="6.48039">
        <ele>1014.4</ele>
        <time>2021-08-13T12:18:36Z</time>
      </trkpt>
      <trkpt lat="46.97601" lon="6.48034">
        <ele>1014.7</ele>
        <time>2021-08-13T12:18:38Z</time>
      </trkpt>
      <trkpt lat="46.97599" lon="6.48032">
        <ele>1014.7</ele>
        <time>2021-08-13T12:18:39Z</time>
      </trkpt>
      <trkpt lat="46.97593" lon="6.48028">
        <ele>1014.9</ele>
        <time>2021-08-13T12:18:41Z</time>
      </trkpt>
      <trkpt lat="46.97589" lon="6.48024">
        <ele>1015</ele>
        <time>2021-08-13T12:18:42Z</time>
      </trkpt>
      <trkpt lat="46.97586" lon="6.48022">
        <ele>1015.1</ele>
        <time>2021-08-13T12:18:43Z</time>
      </trkpt>
      <trkpt lat="46.97583" lon="6.4802">
        <ele>1015.2</ele>
        <time>2021-08-13T12:18:44Z</time>
      </trkpt>
      <trkpt lat="46.97578" lon="6.48015">
        <ele>1015.3</ele>
        <time>2021-08-13T12:18:46Z</time>
      </trkpt>
      <trkpt lat="46.97576" lon="6.48014">
        <ele>1015.3</ele>
        <time>2021-08-13T12:18:47Z</time>
      </trkpt>
      <trkpt lat="46.97569" lon="6.48009">
        <ele>1015.5</ele>
        <time>2021-08-13T12:18:49Z</time>
      </trkpt>
      <trkpt lat="46.97566" lon="6.48006">
        <ele>1015.5</ele>
        <time>2021-08-13T12:18:50Z</time>
      </trkpt>
      <trkpt lat="46.97564" lon="6.48002">
        <ele>1015.6</ele>
        <time>2021-08-13T12:18:52Z</time>
      </trkpt>
      <trkpt lat="46.97562" lon="6.47997">
        <ele>1015.7</ele>
        <time>2021-08-13T12:18:54Z</time>
      </trkpt>
      <trkpt lat="46.97561" lon="6.47995">
        <ele>1015.7</ele>
        <time>2021-08-13T12:18:55Z</time>
      </trkpt>
      <trkpt lat="46.97559" lon="6.47993">
        <ele>1015.7</ele>
        <time>2021-08-13T12:18:56Z</time>
      </trkpt>
      <trkpt lat="46.97477" lon="6.47906">
        <ele>1019.9</ele>
        <time>2021-08-13T12:19:38Z</time>
      </trkpt>
      <trkpt lat="46.97474" lon="6.47903">
        <ele>1020.2</ele>
        <time>2021-08-13T12:19:39Z</time>
      </trkpt>
      <trkpt lat="46.97473" lon="6.47895">
        <ele>1020.5</ele>
        <time>2021-08-13T12:19:41Z</time>
      </trkpt>
      <trkpt lat="46.97472" lon="6.47889">
        <ele>1020.8</ele>
        <time>2021-08-13T12:19:42Z</time>
      </trkpt>
      <trkpt lat="46.97471" lon="6.47884">
        <ele>1021</ele>
        <time>2021-08-13T12:19:43Z</time>
      </trkpt>
      <trkpt lat="46.97471" lon="6.47877">
        <ele>1021.3</ele>
        <time>2021-08-13T12:19:45Z</time>
      </trkpt>
      <trkpt lat="46.97471" lon="6.47871">
        <ele>1021.6</ele>
        <time>2021-08-13T12:19:46Z</time>
      </trkpt>
      <trkpt lat="46.9747" lon="6.47865">
        <ele>1021.9</ele>
        <time>2021-08-13T12:19:48Z</time>
      </trkpt>
      <trkpt lat="46.97469" lon="6.47861">
        <ele>1022.1</ele>
        <time>2021-08-13T12:19:49Z</time>
      </trkpt>
      <trkpt lat="46.97469" lon="6.47857">
        <ele>1022.2</ele>
        <time>2021-08-13T12:19:50Z</time>
      </trkpt>
      <trkpt lat="46.97471" lon="6.4785">
        <ele>1022.5</ele>
        <time>2021-08-13T12:19:52Z</time>
      </trkpt>
      <trkpt lat="46.97473" lon="6.47843">
        <ele>1022.8</ele>
        <time>2021-08-13T12:19:53Z</time>
      </trkpt>
      <trkpt lat="46.97475" lon="6.47837">
        <ele>1023.1</ele>
        <time>2021-08-13T12:19:54Z</time>
      </trkpt>
      <trkpt lat="46.97476" lon="6.47834">
        <ele>1023.3</ele>
        <time>2021-08-13T12:19:55Z</time>
      </trkpt>
      <trkpt lat="46.97476" lon="6.47835">
        <ele>1023.3</ele>
        <time>2021-08-13T12:19:56Z</time>
      </trkpt>
      <trkpt lat="46.97474" lon="6.47836">
        <ele>1023.4</ele>
        <time>2021-08-13T12:19:57Z</time>
      </trkpt>
      <trkpt lat="46.97472" lon="6.47837">
        <ele>1023.5</ele>
        <time>2021-08-13T12:19:59Z</time>
      </trkpt>
      <trkpt lat="46.9747" lon="6.47838">
        <ele>1023.7</ele>
        <time>2021-08-13T12:20:00Z</time>
      </trkpt>
      <trkpt lat="46.97467" lon="6.47835">
        <ele>1023.8</ele>
        <time>2021-08-13T12:20:02Z</time>
      </trkpt>
      <trkpt lat="46.97466" lon="6.47824">
        <ele>1024.2</ele>
        <time>2021-08-13T12:20:03Z</time>
      </trkpt>
      <trkpt lat="46.97464" lon="6.47823">
        <ele>1024.4</ele>
        <time>2021-08-13T12:20:04Z</time>
      </trkpt>
      <trkpt lat="46.97462" lon="6.47823">
        <ele>1024.4</ele>
        <time>2021-08-13T12:20:06Z</time>
      </trkpt>
      <trkpt lat="46.97461" lon="6.47823">
        <ele>1024.5</ele>
        <time>2021-08-13T12:20:08Z</time>
      </trkpt>
      <trkpt lat="46.97459" lon="6.47823">
        <ele>1024.6</ele>
        <time>2021-08-13T12:20:09Z</time>
      </trkpt>
      <trkpt lat="46.97457" lon="6.47824">
        <ele>1024.7</ele>
        <time>2021-08-13T12:20:11Z</time>
      </trkpt>
      <trkpt lat="46.97453" lon="6.47826">
        <ele>1025</ele>
        <time>2021-08-13T12:20:13Z</time>
      </trkpt>
      <trkpt lat="46.9745" lon="6.47827">
        <ele>1025.1</ele>
        <time>2021-08-13T12:20:14Z</time>
      </trkpt>
      <trkpt lat="46.97465" lon="6.478">
        <ele>1026.6</ele>
        <time>2021-08-13T12:20:40Z</time>
      </trkpt>
      <trkpt lat="46.97464" lon="6.47797">
        <ele>1026.7</ele>
        <time>2021-08-13T12:20:41Z</time>
      </trkpt>
      <trkpt lat="46.97462" lon="6.47791">
        <ele>1027</ele>
        <time>2021-08-13T12:20:43Z</time>
      </trkpt>
      <trkpt lat="46.97462" lon="6.47788">
        <ele>1027.1</ele>
        <time>2021-08-13T12:20:44Z</time>
      </trkpt>
      <trkpt lat="46.97462" lon="6.47783">
        <ele>1027.3</ele>
        <time>2021-08-13T12:20:46Z</time>
      </trkpt>
      <trkpt lat="46.97462" lon="6.47781">
        <ele>1027.4</ele>
        <time>2021-08-13T12:20:47Z</time>
      </trkpt>
      <trkpt lat="46.97462" lon="6.47778">
        <ele>1027.5</ele>
        <time>2021-08-13T12:20:48Z</time>
      </trkpt>
      <trkpt lat="46.97462" lon="6.47776">
        <ele>1027.6</ele>
        <time>2021-08-13T12:20:49Z</time>
      </trkpt>
      <trkpt lat="46.97462" lon="6.47773">
        <ele>1027.8</ele>
        <time>2021-08-13T12:20:51Z</time>
      </trkpt>
      <trkpt lat="46.97461" lon="6.47771">
        <ele>1027.9</ele>
        <time>2021-08-13T12:20:52Z</time>
      </trkpt>
      <trkpt lat="46.97461" lon="6.4777">
        <ele>1027.9</ele>
        <time>2021-08-13T12:20:53Z</time>
      </trkpt>
      <trkpt lat="46.9746" lon="6.47768">
        <ele>1028</ele>
        <time>2021-08-13T12:20:55Z</time>
      </trkpt>
      <trkpt lat="46.97459" lon="6.47768">
        <ele>1028.1</ele>
        <time>2021-08-13T12:20:56Z</time>
      </trkpt>
      <trkpt lat="46.97456" lon="6.47762">
        <ele>1028.4</ele>
        <time>2021-08-13T12:21:00Z</time>
      </trkpt>
      <trkpt lat="46.97454" lon="6.47756">
        <ele>1028.7</ele>
        <time>2021-08-13T12:21:02Z</time>
      </trkpt>
      <trkpt lat="46.97452" lon="6.47755">
        <ele>1028.8</ele>
        <time>2021-08-13T12:21:04Z</time>
      </trkpt>
      <trkpt lat="46.97451" lon="6.47755">
        <ele>1028.9</ele>
        <time>2021-08-13T12:21:05Z</time>
      </trkpt>
      <trkpt lat="46.9745" lon="6.47754">
        <ele>1028.9</ele>
        <time>2021-08-13T12:21:07Z</time>
      </trkpt>
      <trkpt lat="46.97449" lon="6.47753">
        <ele>1029</ele>
        <time>2021-08-13T12:21:08Z</time>
      </trkpt>
      <trkpt lat="46.97447" lon="6.47754">
        <ele>1029.1</ele>
        <time>2021-08-13T12:21:10Z</time>
      </trkpt>
      <trkpt lat="46.97446" lon="6.47754">
        <ele>1029.2</ele>
        <time>2021-08-13T12:21:11Z</time>
      </trkpt>
      <trkpt lat="46.97442" lon="6.47752">
        <ele>1029.5</ele>
        <time>2021-08-13T12:21:12Z</time>
      </trkpt>
      <trkpt lat="46.97441" lon="6.47752">
        <ele>1029.6</ele>
        <time>2021-08-13T12:21:13Z</time>
      </trkpt>
      <trkpt lat="46.97439" lon="6.47752">
        <ele>1029.7</ele>
        <time>2021-08-13T12:21:15Z</time>
      </trkpt>
      <trkpt lat="46.97438" lon="6.47752">
        <ele>1029.8</ele>
        <time>2021-08-13T12:21:16Z</time>
      </trkpt>
      <trkpt lat="46.97437" lon="6.47752">
        <ele>1029.9</ele>
        <time>2021-08-13T12:21:17Z</time>
      </trkpt>
      <trkpt lat="46.97434" lon="6.47754">
        <ele>1030.1</ele>
        <time>2021-08-13T12:21:18Z</time>
      </trkpt>
      <trkpt lat="46.97433" lon="6.47754">
        <ele>1030.1</ele>
        <time>2021-08-13T12:21:19Z</time>
      </trkpt>
      <trkpt lat="46.97431" lon="6.47754">
        <ele>1030.2</ele>
        <time>2021-08-13T12:21:20Z</time>
      </trkpt>
      <trkpt lat="46.9743" lon="6.47753">
        <ele>1030.3</ele>
        <time>2021-08-13T12:21:21Z</time>
      </trkpt>
      <trkpt lat="46.97429" lon="6.47753">
        <ele>1030.4</ele>
        <time>2021-08-13T12:21:23Z</time>
      </trkpt>
      <trkpt lat="46.97426" lon="6.47753">
        <ele>1030.6</ele>
        <time>2021-08-13T12:21:24Z</time>
      </trkpt>
      <trkpt lat="46.97421" lon="6.47757">
        <ele>1031</ele>
        <time>2021-08-13T12:21:25Z</time>
      </trkpt>
      <trkpt lat="46.97419" lon="6.47759">
        <ele>1031.1</ele>
        <time>2021-08-13T12:21:26Z</time>
      </trkpt>
      <trkpt lat="46.97415" lon="6.47764">
        <ele>1031.4</ele>
        <time>2021-08-13T12:21:28Z</time>
      </trkpt>
      <trkpt lat="46.97413" lon="6.47766">
        <ele>1031.6</ele>
        <time>2021-08-13T12:21:29Z</time>
      </trkpt>
      <trkpt lat="46.97409" lon="6.47768">
        <ele>1031.9</ele>
        <time>2021-08-13T12:21:30Z</time>
      </trkpt>
      <trkpt lat="46.97408" lon="6.47768">
        <ele>1031.9</ele>
        <time>2021-08-13T12:21:31Z</time>
      </trkpt>
      <trkpt lat="46.97407" lon="6.47769">
        <ele>1032</ele>
        <time>2021-08-13T12:21:32Z</time>
      </trkpt>
      <trkpt lat="46.97405" lon="6.47769">
        <ele>1032.2</ele>
        <time>2021-08-13T12:21:34Z</time>
      </trkpt>
      <trkpt lat="46.97405" lon="6.47769">
        <ele>1032.2</ele>
        <time>2021-08-13T12:21:35Z</time>
      </trkpt>
      <trkpt lat="46.97405" lon="6.47769">
        <ele>1032.2</ele>
        <time>2021-08-13T12:21:36Z</time>
      </trkpt>
      <trkpt lat="46.97402" lon="6.47768">
        <ele>1032.4</ele>
        <time>2021-08-13T12:21:38Z</time>
      </trkpt>
      <trkpt lat="46.97398" lon="6.47767">
        <ele>1032.6</ele>
        <time>2021-08-13T12:21:40Z</time>
      </trkpt>
      <trkpt lat="46.97396" lon="6.47765">
        <ele>1032.8</ele>
        <time>2021-08-13T12:21:42Z</time>
      </trkpt>
      <trkpt lat="46.97387" lon="6.47765">
        <ele>1033.4</ele>
        <time>2021-08-13T12:21:47Z</time>
      </trkpt>
      <trkpt lat="46.97385" lon="6.47765">
        <ele>1033.6</ele>
        <time>2021-08-13T12:21:48Z</time>
      </trkpt>
      <trkpt lat="46.97384" lon="6.47765">
        <ele>1033.6</ele>
        <time>2021-08-13T12:21:50Z</time>
      </trkpt>
      <trkpt lat="46.97384" lon="6.47765">
        <ele>1033.7</ele>
        <time>2021-08-13T12:21:52Z</time>
      </trkpt>
      <trkpt lat="46.97384" lon="6.47765">
        <ele>1033.7</ele>
        <time>2021-08-13T12:21:53Z</time>
      </trkpt>
      <trkpt lat="46.97383" lon="6.47765">
        <ele>1033.8</ele>
        <time>2021-08-13T12:21:54Z</time>
      </trkpt>
      <trkpt lat="46.97382" lon="6.47765">
        <ele>1033.9</ele>
        <time>2021-08-13T12:21:55Z</time>
      </trkpt>
      <trkpt lat="46.97379" lon="6.47766">
        <ele>1034</ele>
        <time>2021-08-13T12:21:57Z</time>
      </trkpt>
      <trkpt lat="46.97378" lon="6.47766">
        <ele>1034.1</ele>
        <time>2021-08-13T12:21:58Z</time>
      </trkpt>
      <trkpt lat="46.97329" lon="6.47731">
        <ele>1037.5</ele>
        <time>2021-08-13T12:22:53Z</time>
      </trkpt>
      <trkpt lat="46.97329" lon="6.47729">
        <ele>1037.5</ele>
        <time>2021-08-13T12:22:54Z</time>
      </trkpt>
      <trkpt lat="46.97328" lon="6.47726">
        <ele>1037.6</ele>
        <time>2021-08-13T12:22:55Z</time>
      </trkpt>
      <trkpt lat="46.97327" lon="6.47725">
        <ele>1037.7</ele>
        <time>2021-08-13T12:22:56Z</time>
      </trkpt>
      <trkpt lat="46.97325" lon="6.47721">
        <ele>1037.8</ele>
        <time>2021-08-13T12:22:58Z</time>
      </trkpt>
      <trkpt lat="46.97323" lon="6.47717">
        <ele>1038</ele>
        <time>2021-08-13T12:23:00Z</time>
      </trkpt>
      <trkpt lat="46.97322" lon="6.47715">
        <ele>1038.1</ele>
        <time>2021-08-13T12:23:01Z</time>
      </trkpt>
      <trkpt lat="46.97321" lon="6.47713">
        <ele>1038.1</ele>
        <time>2021-08-13T12:23:02Z</time>
      </trkpt>
      <trkpt lat="46.9732" lon="6.47711">
        <ele>1038.2</ele>
        <time>2021-08-13T12:23:03Z</time>
      </trkpt>
      <trkpt lat="46.97319" lon="6.47709">
        <ele>1038.3</ele>
        <time>2021-08-13T12:23:04Z</time>
      </trkpt>
      <trkpt lat="46.97316" lon="6.47701">
        <ele>1038.6</ele>
        <time>2021-08-13T12:23:07Z</time>
      </trkpt>
      <trkpt lat="46.97314" lon="6.47698">
        <ele>1038.7</ele>
        <time>2021-08-13T12:23:08Z</time>
      </trkpt>
      <trkpt lat="46.9731" lon="6.47691">
        <ele>1039</ele>
        <time>2021-08-13T12:23:10Z</time>
      </trkpt>
      <trkpt lat="46.97308" lon="6.47687">
        <ele>1039.2</ele>
        <time>2021-08-13T12:23:11Z</time>
      </trkpt>
      <trkpt lat="46.97307" lon="6.47686">
        <ele>1039.2</ele>
        <time>2021-08-13T12:23:12Z</time>
      </trkpt>
      <trkpt lat="46.97305" lon="6.47684">
        <ele>1039.4</ele>
        <time>2021-08-13T12:23:13Z</time>
      </trkpt>
      <trkpt lat="46.97303" lon="6.47682">
        <ele>1039.5</ele>
        <time>2021-08-13T12:23:15Z</time>
      </trkpt>
      <trkpt lat="46.97301" lon="6.47679">
        <ele>1039.6</ele>
        <time>2021-08-13T12:23:16Z</time>
      </trkpt>
      <trkpt lat="46.973" lon="6.47678">
        <ele>1039.7</ele>
        <time>2021-08-13T12:23:17Z</time>
      </trkpt>
      <trkpt lat="46.97298" lon="6.47675">
        <ele>1039.8</ele>
        <time>2021-08-13T12:23:18Z</time>
      </trkpt>
      <trkpt lat="46.97297" lon="6.47674">
        <ele>1039.9</ele>
        <time>2021-08-13T12:23:19Z</time>
      </trkpt>
      <trkpt lat="46.97295" lon="6.47672">
        <ele>1040</ele>
        <time>2021-08-13T12:23:20Z</time>
      </trkpt>
      <trkpt lat="46.97293" lon="6.4767">
        <ele>1040.1</ele>
        <time>2021-08-13T12:23:21Z</time>
      </trkpt>
      <trkpt lat="46.97291" lon="6.47669">
        <ele>1040.2</ele>
        <time>2021-08-13T12:23:23Z</time>
      </trkpt>
      <trkpt lat="46.97288" lon="6.47668">
        <ele>1040.4</ele>
        <time>2021-08-13T12:23:24Z</time>
      </trkpt>
      <trkpt lat="46.97287" lon="6.47668">
        <ele>1040.4</ele>
        <time>2021-08-13T12:23:25Z</time>
      </trkpt>
      <trkpt lat="46.97284" lon="6.47671">
        <ele>1040.6</ele>
        <time>2021-08-13T12:23:26Z</time>
      </trkpt>
      <trkpt lat="46.97282" lon="6.47671">
        <ele>1040.7</ele>
        <time>2021-08-13T12:23:27Z</time>
      </trkpt>
      <trkpt lat="46.97282" lon="6.47671">
        <ele>1040.7</ele>
        <time>2021-08-13T12:23:29Z</time>
      </trkpt>
      <trkpt lat="46.97281" lon="6.4767">
        <ele>1040.8</ele>
        <time>2021-08-13T12:23:30Z</time>
      </trkpt>
      <trkpt lat="46.9728" lon="6.47669">
        <ele>1040.8</ele>
        <time>2021-08-13T12:23:31Z</time>
      </trkpt>
      <trkpt lat="46.9728" lon="6.47669">
        <ele>1040.9</ele>
        <time>2021-08-13T12:23:32Z</time>
      </trkpt>
      <trkpt lat="46.97279" lon="6.47668">
        <ele>1040.9</ele>
        <time>2021-08-13T12:23:33Z</time>
      </trkpt>
      <trkpt lat="46.97279" lon="6.47667">
        <ele>1040.9</ele>
        <time>2021-08-13T12:23:35Z</time>
      </trkpt>
      <trkpt lat="46.97278" lon="6.47667">
        <ele>1041</ele>
        <time>2021-08-13T12:23:36Z</time>
      </trkpt>
      <trkpt lat="46.97278" lon="6.47666">
        <ele>1041</ele>
        <time>2021-08-13T12:23:37Z</time>
      </trkpt>
      <trkpt lat="46.97277" lon="6.47665">
        <ele>1041</ele>
        <time>2021-08-13T12:23:38Z</time>
      </trkpt>
      <trkpt lat="46.97276" lon="6.47664">
        <ele>1041.1</ele>
        <time>2021-08-13T12:23:39Z</time>
      </trkpt>
      <trkpt lat="46.97273" lon="6.47662">
        <ele>1041.2</ele>
        <time>2021-08-13T12:23:41Z</time>
      </trkpt>
      <trkpt lat="46.97272" lon="6.47661">
        <ele>1041.3</ele>
        <time>2021-08-13T12:23:43Z</time>
      </trkpt>
      <trkpt lat="46.97171" lon="6.47619">
        <ele>1048.7</ele>
        <time>2021-08-13T12:25:30Z</time>
      </trkpt>
      <trkpt lat="46.97168" lon="6.47617">
        <ele>1048.8</ele>
        <time>2021-08-13T12:25:31Z</time>
      </trkpt>
      <trkpt lat="46.97163" lon="6.47613">
        <ele>1049.1</ele>
        <time>2021-08-13T12:25:33Z</time>
      </trkpt>
      <trkpt lat="46.9716" lon="6.47609">
        <ele>1049.2</ele>
        <time>2021-08-13T12:25:34Z</time>
      </trkpt>
      <trkpt lat="46.97159" lon="6.47608">
        <ele>1049.2</ele>
        <time>2021-08-13T12:25:35Z</time>
      </trkpt>
      <trkpt lat="46.97156" lon="6.47605">
        <ele>1049.4</ele>
        <time>2021-08-13T12:25:37Z</time>
      </trkpt>
      <trkpt lat="46.97152" lon="6.47601">
        <ele>1049.5</ele>
        <time>2021-08-13T12:25:39Z</time>
      </trkpt>
      <trkpt lat="46.97148" lon="6.476">
        <ele>1049.7</ele>
        <time>2021-08-13T12:25:41Z</time>
      </trkpt>
      <trkpt lat="46.97144" lon="6.476">
        <ele>1049.8</ele>
        <time>2021-08-13T12:25:42Z</time>
      </trkpt>
      <trkpt lat="46.97142" lon="6.476">
        <ele>1049.9</ele>
        <time>2021-08-13T12:25:43Z</time>
      </trkpt>
      <trkpt lat="46.97138" lon="6.476">
        <ele>1050.1</ele>
        <time>2021-08-13T12:25:45Z</time>
      </trkpt>
      <trkpt lat="46.97138" lon="6.47599">
        <ele>1050.1</ele>
        <time>2021-08-13T12:25:46Z</time>
      </trkpt>
      <trkpt lat="46.97138" lon="6.47599">
        <ele>1050.1</ele>
        <time>2021-08-13T12:25:48Z</time>
      </trkpt>
      <trkpt lat="46.97137" lon="6.47597">
        <ele>1050.1</ele>
        <time>2021-08-13T12:25:50Z</time>
      </trkpt>
      <trkpt lat="46.97137" lon="6.47597">
        <ele>1050.1</ele>
        <time>2021-08-13T12:25:51Z</time>
      </trkpt>
      <trkpt lat="46.97136" lon="6.47597">
        <ele>1050.2</ele>
        <time>2021-08-13T12:25:53Z</time>
      </trkpt>
      <trkpt lat="46.97135" lon="6.47598">
        <ele>1050.2</ele>
        <time>2021-08-13T12:25:54Z</time>
      </trkpt>
      <trkpt lat="46.97134" lon="6.47598">
        <ele>1050.3</ele>
        <time>2021-08-13T12:25:56Z</time>
      </trkpt>
      <trkpt lat="46.97127" lon="6.47609">
        <ele>1050.7</ele>
        <time>2021-08-13T12:26:11Z</time>
      </trkpt>
      <trkpt lat="46.97126" lon="6.47612">
        <ele>1050.8</ele>
        <time>2021-08-13T12:26:13Z</time>
      </trkpt>
      <trkpt lat="46.97126" lon="6.47614">
        <ele>1050.9</ele>
        <time>2021-08-13T12:26:14Z</time>
      </trkpt>
      <trkpt lat="46.97127" lon="6.47615">
        <ele>1050.9</ele>
        <time>2021-08-13T12:26:15Z</time>
      </trkpt>
      <trkpt lat="46.97127" lon="6.47617">
        <ele>1051</ele>
        <time>2021-08-13T12:26:17Z</time>
      </trkpt>
      <trkpt lat="46.97128" lon="6.47618">
        <ele>1051</ele>
        <time>2021-08-13T12:26:18Z</time>
      </trkpt>
      <trkpt lat="46.97128" lon="6.47619">
        <ele>1051.1</ele>
        <time>2021-08-13T12:26:20Z</time>
      </trkpt>
      <trkpt lat="46.97128" lon="6.4762">
        <ele>1051.1</ele>
        <time>2021-08-13T12:26:21Z</time>
      </trkpt>
      <trkpt lat="46.97128" lon="6.4762">
        <ele>1051.1</ele>
        <time>2021-08-13T12:26:22Z</time>
      </trkpt>
      <trkpt lat="46.97123" lon="6.47608">
        <ele>1051.6</ele>
        <time>2021-08-13T12:26:24Z</time>
      </trkpt>
      <trkpt lat="46.97109" lon="6.47572">
        <ele>1052.9</ele>
        <time>2021-08-13T12:26:25Z</time>
      </trkpt>
      <trkpt lat="46.97105" lon="6.4756">
        <ele>1053.2</ele>
        <time>2021-08-13T12:26:26Z</time>
      </trkpt>
      <trkpt lat="46.97101" lon="6.47547">
        <ele>1053.6</ele>
        <time>2021-08-13T12:26:28Z</time>
      </trkpt>
      <trkpt lat="46.971" lon="6.47544">
        <ele>1053.6</ele>
        <time>2021-08-13T12:26:29Z</time>
      </trkpt>
      <trkpt lat="46.97095" lon="6.47534">
        <ele>1053.8</ele>
        <time>2021-08-13T12:26:31Z</time>
      </trkpt>
      <trkpt lat="46.97086" lon="6.4752">
        <ele>1054.1</ele>
        <time>2021-08-13T12:26:32Z</time>
      </trkpt>
      <trkpt lat="46.97082" lon="6.47513">
        <ele>1054.2</ele>
        <time>2021-08-13T12:26:34Z</time>
      </trkpt>
      <trkpt lat="46.97078" lon="6.47508">
        <ele>1054.3</ele>
        <time>2021-08-13T12:26:35Z</time>
      </trkpt>
      <trkpt lat="46.97076" lon="6.47504">
        <ele>1054.4</ele>
        <time>2021-08-13T12:26:36Z</time>
      </trkpt>
      <trkpt lat="46.97074" lon="6.47499">
        <ele>1054.5</ele>
        <time>2021-08-13T12:26:38Z</time>
      </trkpt>
      <trkpt lat="46.97072" lon="6.47494">
        <ele>1054.6</ele>
        <time>2021-08-13T12:26:39Z</time>
      </trkpt>
      <trkpt lat="46.97071" lon="6.4749">
        <ele>1054.6</ele>
        <time>2021-08-13T12:26:40Z</time>
      </trkpt>
      <trkpt lat="46.97069" lon="6.47487">
        <ele>1054.7</ele>
        <time>2021-08-13T12:26:41Z</time>
      </trkpt>
      <trkpt lat="46.97066" lon="6.4748">
        <ele>1054.9</ele>
        <time>2021-08-13T12:26:43Z</time>
      </trkpt>
      <trkpt lat="46.97064" lon="6.47477">
        <ele>1055</ele>
        <time>2021-08-13T12:26:44Z</time>
      </trkpt>
      <trkpt lat="46.97061" lon="6.47473">
        <ele>1055.1</ele>
        <time>2021-08-13T12:26:45Z</time>
      </trkpt>
      <trkpt lat="46.97059" lon="6.47468">
        <ele>1055.2</ele>
        <time>2021-08-13T12:26:47Z</time>
      </trkpt>
      <trkpt lat="46.97057" lon="6.47465">
        <ele>1055.3</ele>
        <time>2021-08-13T12:26:48Z</time>
      </trkpt>
      <trkpt lat="46.97053" lon="6.47459">
        <ele>1055.5</ele>
        <time>2021-08-13T12:26:50Z</time>
      </trkpt>
      <trkpt lat="46.9705" lon="6.47454">
        <ele>1055.7</ele>
        <time>2021-08-13T12:26:52Z</time>
      </trkpt>
      <trkpt lat="46.97046" lon="6.4745">
        <ele>1055.8</ele>
        <time>2021-08-13T12:26:53Z</time>
      </trkpt>
      <trkpt lat="46.97043" lon="6.47448">
        <ele>1055.9</ele>
        <time>2021-08-13T12:26:54Z</time>
      </trkpt>
      <trkpt lat="46.97038" lon="6.47443">
        <ele>1056.1</ele>
        <time>2021-08-13T12:26:56Z</time>
      </trkpt>
      <trkpt lat="46.97034" lon="6.47439">
        <ele>1056.3</ele>
        <time>2021-08-13T12:26:57Z</time>
      </trkpt>
      <trkpt lat="46.97032" lon="6.47436">
        <ele>1056.4</ele>
        <time>2021-08-13T12:26:58Z</time>
      </trkpt>
      <trkpt lat="46.9703" lon="6.47433">
        <ele>1056.5</ele>
        <time>2021-08-13T12:26:59Z</time>
      </trkpt>
      <trkpt lat="46.97027" lon="6.47427">
        <ele>1056.7</ele>
        <time>2021-08-13T12:27:01Z</time>
      </trkpt>
      <trkpt lat="46.97026" lon="6.47423">
        <ele>1056.8</ele>
        <time>2021-08-13T12:27:02Z</time>
      </trkpt>
      <trkpt lat="46.97023" lon="6.47417">
        <ele>1057</ele>
        <time>2021-08-13T12:27:04Z</time>
      </trkpt>
      <trkpt lat="46.97023" lon="6.47416">
        <ele>1057.1</ele>
        <time>2021-08-13T12:27:05Z</time>
      </trkpt>
      <trkpt lat="46.97023" lon="6.47414">
        <ele>1057.1</ele>
        <time>2021-08-13T12:27:06Z</time>
      </trkpt>
      <trkpt lat="46.9702" lon="6.47411">
        <ele>1057.2</ele>
        <time>2021-08-13T12:27:08Z</time>
      </trkpt>
      <trkpt lat="46.97019" lon="6.4741">
        <ele>1057.3</ele>
        <time>2021-08-13T12:27:09Z</time>
      </trkpt>
      <trkpt lat="46.97017" lon="6.47407">
        <ele>1057.4</ele>
        <time>2021-08-13T12:27:10Z</time>
      </trkpt>
      <trkpt lat="46.97016" lon="6.47407">
        <ele>1057.5</ele>
        <time>2021-08-13T12:27:11Z</time>
      </trkpt>
      <trkpt lat="46.97014" lon="6.47405">
        <ele>1057.6</ele>
        <time>2021-08-13T12:27:12Z</time>
      </trkpt>
      <trkpt lat="46.97012" lon="6.474">
        <ele>1057.7</ele>
        <time>2021-08-13T12:27:14Z</time>
      </trkpt>
      <trkpt lat="46.97012" lon="6.47399">
        <ele>1057.8</ele>
        <time>2021-08-13T12:27:15Z</time>
      </trkpt>
      <trkpt lat="46.97011" lon="6.47395">
        <ele>1057.9</ele>
        <time>2021-08-13T12:27:17Z</time>
      </trkpt>
      <trkpt lat="46.97011" lon="6.47394">
        <ele>1057.9</ele>
        <time>2021-08-13T12:27:18Z</time>
      </trkpt>
      <trkpt lat="46.9701" lon="6.47392">
        <ele>1058</ele>
        <time>2021-08-13T12:27:19Z</time>
      </trkpt>
      <trkpt lat="46.97009" lon="6.47388">
        <ele>1058.1</ele>
        <time>2021-08-13T12:27:21Z</time>
      </trkpt>
      <trkpt lat="46.97009" lon="6.47383">
        <ele>1058.3</ele>
        <time>2021-08-13T12:27:22Z</time>
      </trkpt>
      <trkpt lat="46.97008" lon="6.47379">
        <ele>1058.4</ele>
        <time>2021-08-13T12:27:23Z</time>
      </trkpt>
      <trkpt lat="46.97005" lon="6.47376">
        <ele>1058.6</ele>
        <time>2021-08-13T12:27:25Z</time>
      </trkpt>
      <trkpt lat="46.97004" lon="6.47375">
        <ele>1058.7</ele>
        <time>2021-08-13T12:27:26Z</time>
      </trkpt>
      <trkpt lat="46.97001" lon="6.47375">
        <ele>1058.8</ele>
        <time>2021-08-13T12:27:27Z</time>
      </trkpt>
      <trkpt lat="46.96999" lon="6.47375">
        <ele>1058.9</ele>
        <time>2021-08-13T12:27:28Z</time>
      </trkpt>
      <trkpt lat="46.96996" lon="6.47375">
        <ele>1059</ele>
        <time>2021-08-13T12:27:30Z</time>
      </trkpt>
      <trkpt lat="46.96994" lon="6.47375">
        <ele>1059.1</ele>
        <time>2021-08-13T12:27:31Z</time>
      </trkpt>
      <trkpt lat="46.96992" lon="6.47375">
        <ele>1059.2</ele>
        <time>2021-08-13T12:27:32Z</time>
      </trkpt>
      <trkpt lat="46.96992" lon="6.47375">
        <ele>1059.2</ele>
        <time>2021-08-13T12:27:33Z</time>
      </trkpt>
      <trkpt lat="46.96982" lon="6.47373">
        <ele>1059.6</ele>
        <time>2021-08-13T12:27:38Z</time>
      </trkpt>
      <trkpt lat="46.96974" lon="6.47372">
        <ele>1060</ele>
        <time>2021-08-13T12:27:39Z</time>
      </trkpt>
      <trkpt lat="46.96971" lon="6.47371">
        <ele>1060.1</ele>
        <time>2021-08-13T12:27:40Z</time>
      </trkpt>
      <trkpt lat="46.96968" lon="6.47369">
        <ele>1060.2</ele>
        <time>2021-08-13T12:27:41Z</time>
      </trkpt>
      <trkpt lat="46.96965" lon="6.47368">
        <ele>1060.3</ele>
        <time>2021-08-13T12:27:42Z</time>
      </trkpt>
      <trkpt lat="46.96961" lon="6.4737">
        <ele>1060.5</ele>
        <time>2021-08-13T12:27:44Z</time>
      </trkpt>
      <trkpt lat="46.96959" lon="6.47371">
        <ele>1060.6</ele>
        <time>2021-08-13T12:27:45Z</time>
      </trkpt>
      <trkpt lat="46.96958" lon="6.47371">
        <ele>1060.7</ele>
        <time>2021-08-13T12:27:46Z</time>
      </trkpt>
      <trkpt lat="46.96958" lon="6.47371">
        <ele>1060.7</ele>
        <time>2021-08-13T12:27:47Z</time>
      </trkpt>
      <trkpt lat="46.96958" lon="6.4737">
        <ele>1060.7</ele>
        <time>2021-08-13T12:27:49Z</time>
      </trkpt>
      <trkpt lat="46.96958" lon="6.4737">
        <ele>1060.7</ele>
        <time>2021-08-13T12:27:51Z</time>
      </trkpt>
      <trkpt lat="46.96949" lon="6.47365">
        <ele>1061.1</ele>
        <time>2021-08-13T12:28:21Z</time>
      </trkpt>
      <trkpt lat="46.96947" lon="6.47369">
        <ele>1061.3</ele>
        <time>2021-08-13T12:28:22Z</time>
      </trkpt>
      <trkpt lat="46.96945" lon="6.47372">
        <ele>1061.4</ele>
        <time>2021-08-13T12:28:23Z</time>
      </trkpt>
      <trkpt lat="46.96944" lon="6.47374">
        <ele>1061.5</ele>
        <time>2021-08-13T12:28:24Z</time>
      </trkpt>
      <trkpt lat="46.96942" lon="6.47379">
        <ele>1061.7</ele>
        <time>2021-08-13T12:28:26Z</time>
      </trkpt>
      <trkpt lat="46.96941" lon="6.4738">
        <ele>1061.7</ele>
        <time>2021-08-13T12:28:27Z</time>
      </trkpt>
      <trkpt lat="46.96941" lon="6.4738">
        <ele>1061.7</ele>
        <time>2021-08-13T12:28:28Z</time>
      </trkpt>
      <trkpt lat="46.96941" lon="6.4738">
        <ele>1061.7</ele>
        <time>2021-08-13T12:28:29Z</time>
      </trkpt>
      <trkpt lat="46.96941" lon="6.47381">
        <ele>1061.7</ele>
        <time>2021-08-13T12:28:31Z</time>
      </trkpt>
      <trkpt lat="46.96941" lon="6.47381">
        <ele>1061.7</ele>
        <time>2021-08-13T12:28:32Z</time>
      </trkpt>
      <trkpt lat="46.96951" lon="6.47348">
        <ele>1063</ele>
        <time>2021-08-13T12:28:39Z</time>
      </trkpt>
      <trkpt lat="46.96951" lon="6.47344">
        <ele>1063.1</ele>
        <time>2021-08-13T12:28:40Z</time>
      </trkpt>
      <trkpt lat="46.96949" lon="6.47335">
        <ele>1063.5</ele>
        <time>2021-08-13T12:28:42Z</time>
      </trkpt>
      <trkpt lat="46.96949" lon="6.47331">
        <ele>1063.7</ele>
        <time>2021-08-13T12:28:43Z</time>
      </trkpt>
      <trkpt lat="46.96948" lon="6.47327">
        <ele>1063.9</ele>
        <time>2021-08-13T12:28:44Z</time>
      </trkpt>
      <trkpt lat="46.96947" lon="6.47323">
        <ele>1064.1</ele>
        <time>2021-08-13T12:28:45Z</time>
      </trkpt>
      <trkpt lat="46.96947" lon="6.47322">
        <ele>1064.1</ele>
        <time>2021-08-13T12:28:46Z</time>
      </trkpt>
      <trkpt lat="46.96946" lon="6.47318">
        <ele>1064.3</ele>
        <time>2021-08-13T12:28:48Z</time>
      </trkpt>
      <trkpt lat="46.96945" lon="6.47315">
        <ele>1064.4</ele>
        <time>2021-08-13T12:28:49Z</time>
      </trkpt>
      <trkpt lat="46.96945" lon="6.47313">
        <ele>1064.5</ele>
        <time>2021-08-13T12:28:50Z</time>
      </trkpt>
      <trkpt lat="46.96945" lon="6.47311">
        <ele>1064.6</ele>
        <time>2021-08-13T12:28:52Z</time>
      </trkpt>
      <trkpt lat="46.96944" lon="6.47309">
        <ele>1064.7</ele>
        <time>2021-08-13T12:28:53Z</time>
      </trkpt>
      <trkpt lat="46.96943" lon="6.47308">
        <ele>1064.8</ele>
        <time>2021-08-13T12:28:54Z</time>
      </trkpt>
      <trkpt lat="46.96886" lon="6.47193">
        <ele>1070.8</ele>
        <time>2021-08-13T12:30:09Z</time>
      </trkpt>
      <trkpt lat="46.96884" lon="6.47185">
        <ele>1071</ele>
        <time>2021-08-13T12:30:10Z</time>
      </trkpt>
      <trkpt lat="46.96883" lon="6.47179">
        <ele>1071.1</ele>
        <time>2021-08-13T12:30:12Z</time>
      </trkpt>
      <trkpt lat="46.96879" lon="6.47168">
        <ele>1071.2</ele>
        <time>2021-08-13T12:30:13Z</time>
      </trkpt>
      <trkpt lat="46.96877" lon="6.47161">
        <ele>1071.3</ele>
        <time>2021-08-13T12:30:15Z</time>
      </trkpt>
      <trkpt lat="46.96875" lon="6.47156">
        <ele>1071.3</ele>
        <time>2021-08-13T12:30:16Z</time>
      </trkpt>
      <trkpt lat="46.96872" lon="6.47149">
        <ele>1071.3</ele>
        <time>2021-08-13T12:30:17Z</time>
      </trkpt>
      <trkpt lat="46.9687" lon="6.47143">
        <ele>1071.4</ele>
        <time>2021-08-13T12:30:18Z</time>
      </trkpt>
      <trkpt lat="46.96868" lon="6.47133">
        <ele>1071.4</ele>
        <time>2021-08-13T12:30:20Z</time>
      </trkpt>
      <trkpt lat="46.96867" lon="6.4712">
        <ele>1071.3</ele>
        <time>2021-08-13T12:30:21Z</time>
      </trkpt>
      <trkpt lat="46.96867" lon="6.47113">
        <ele>1071.3</ele>
        <time>2021-08-13T12:30:23Z</time>
      </trkpt>
      <trkpt lat="46.96866" lon="6.47109">
        <ele>1071.3</ele>
        <time>2021-08-13T12:30:24Z</time>
      </trkpt>
      <trkpt lat="46.96864" lon="6.47101">
        <ele>1071.2</ele>
        <time>2021-08-13T12:30:26Z</time>
      </trkpt>
      <trkpt lat="46.96856" lon="6.4709">
        <ele>1071.1</ele>
        <time>2021-08-13T12:30:28Z</time>
      </trkpt>
      <trkpt lat="46.96848" lon="6.47081">
        <ele>1070.9</ele>
        <time>2021-08-13T12:30:30Z</time>
      </trkpt>
      <trkpt lat="46.96843" lon="6.47076">
        <ele>1070.8</ele>
        <time>2021-08-13T12:30:31Z</time>
      </trkpt>
      <trkpt lat="46.9684" lon="6.47072">
        <ele>1070.8</ele>
        <time>2021-08-13T12:30:32Z</time>
      </trkpt>
      <trkpt lat="46.96834" lon="6.47058">
        <ele>1070.6</ele>
        <time>2021-08-13T12:30:34Z</time>
      </trkpt>
      <trkpt lat="46.96832" lon="6.47051">
        <ele>1070.5</ele>
        <time>2021-08-13T12:30:35Z</time>
      </trkpt>
      <trkpt lat="46.96829" lon="6.47045">
        <ele>1070.4</ele>
        <time>2021-08-13T12:30:36Z</time>
      </trkpt>
      <trkpt lat="46.96823" lon="6.47032">
        <ele>1070.2</ele>
        <time>2021-08-13T12:30:38Z</time>
      </trkpt>
      <trkpt lat="46.96815" lon="6.47021">
        <ele>1069.9</ele>
        <time>2021-08-13T12:30:40Z</time>
      </trkpt>
      <trkpt lat="46.96811" lon="6.47015">
        <ele>1069.7</ele>
        <time>2021-08-13T12:30:41Z</time>
      </trkpt>
      <trkpt lat="46.96807" lon="6.4701">
        <ele>1069.6</ele>
        <time>2021-08-13T12:30:42Z</time>
      </trkpt>
      <trkpt lat="46.96803" lon="6.47005">
        <ele>1069.4</ele>
        <time>2021-08-13T12:30:43Z</time>
      </trkpt>
      <trkpt lat="46.96799" lon="6.47">
        <ele>1069.2</ele>
        <time>2021-08-13T12:30:44Z</time>
      </trkpt>
      <trkpt lat="46.96792" lon="6.46989">
        <ele>1068.8</ele>
        <time>2021-08-13T12:30:46Z</time>
      </trkpt>
      <trkpt lat="46.96789" lon="6.46983">
        <ele>1068.7</ele>
        <time>2021-08-13T12:30:47Z</time>
      </trkpt>
      <trkpt lat="46.96786" lon="6.46977">
        <ele>1068.4</ele>
        <time>2021-08-13T12:30:48Z</time>
      </trkpt>
      <trkpt lat="46.96779" lon="6.46963">
        <ele>1068</ele>
        <time>2021-08-13T12:30:50Z</time>
      </trkpt>
      <trkpt lat="46.96772" lon="6.46949">
        <ele>1067.7</ele>
        <time>2021-08-13T12:30:52Z</time>
      </trkpt>
      <trkpt lat="46.96769" lon="6.46943">
        <ele>1067.5</ele>
        <time>2021-08-13T12:30:53Z</time>
      </trkpt>
      <trkpt lat="46.96763" lon="6.46931">
        <ele>1067.3</ele>
        <time>2021-08-13T12:30:55Z</time>
      </trkpt>
      <trkpt lat="46.96759" lon="6.46925">
        <ele>1067.2</ele>
        <time>2021-08-13T12:30:56Z</time>
      </trkpt>
      <trkpt lat="46.96752" lon="6.46913">
        <ele>1067</ele>
        <time>2021-08-13T12:30:58Z</time>
      </trkpt>
      <trkpt lat="46.96747" lon="6.46902">
        <ele>1066.9</ele>
        <time>2021-08-13T12:31:00Z</time>
      </trkpt>
      <trkpt lat="46.96744" lon="6.46896">
        <ele>1066.9</ele>
        <time>2021-08-13T12:31:01Z</time>
      </trkpt>
      <trkpt lat="46.96741" lon="6.46891">
        <ele>1066.8</ele>
        <time>2021-08-13T12:31:02Z</time>
      </trkpt>
      <trkpt lat="46.96732" lon="6.46879">
        <ele>1066.7</ele>
        <time>2021-08-13T12:31:04Z</time>
      </trkpt>
      <trkpt lat="46.96727" lon="6.46872">
        <ele>1066.6</ele>
        <time>2021-08-13T12:31:05Z</time>
      </trkpt>
      <trkpt lat="46.96723" lon="6.46867">
        <ele>1066.6</ele>
        <time>2021-08-13T12:31:06Z</time>
      </trkpt>
      <trkpt lat="46.96719" lon="6.46854">
        <ele>1066.6</ele>
        <time>2021-08-13T12:31:08Z</time>
      </trkpt>
      <trkpt lat="46.96715" lon="6.4684">
        <ele>1066.5</ele>
        <time>2021-08-13T12:31:10Z</time>
      </trkpt>
      <trkpt lat="46.96712" lon="6.46826">
        <ele>1066.4</ele>
        <time>2021-08-13T12:31:12Z</time>
      </trkpt>
      <trkpt lat="46.96707" lon="6.46813">
        <ele>1066.4</ele>
        <time>2021-08-13T12:31:14Z</time>
      </trkpt>
      <trkpt lat="46.96706" lon="6.46812">
        <ele>1066.4</ele>
        <time>2021-08-13T12:31:15Z</time>
      </trkpt>
      <trkpt lat="46.96704" lon="6.4681">
        <ele>1066.4</ele>
        <time>2021-08-13T12:31:17Z</time>
      </trkpt>
      <trkpt lat="46.96703" lon="6.4681">
        <ele>1066.4</ele>
        <time>2021-08-13T12:31:19Z</time>
      </trkpt>
      <trkpt lat="46.96703" lon="6.46809">
        <ele>1066.3</ele>
        <time>2021-08-13T12:31:20Z</time>
      </trkpt>
      <trkpt lat="46.96702" lon="6.46808">
        <ele>1066.3</ele>
        <time>2021-08-13T12:31:21Z</time>
      </trkpt>
      <trkpt lat="46.96702" lon="6.46811">
        <ele>1066.3</ele>
        <time>2021-08-13T12:31:22Z</time>
      </trkpt>
      <trkpt lat="46.96701" lon="6.46812">
        <ele>1066.3</ele>
        <time>2021-08-13T12:31:23Z</time>
      </trkpt>
      <trkpt lat="46.96696" lon="6.4681">
        <ele>1066.3</ele>
        <time>2021-08-13T12:31:25Z</time>
      </trkpt>
      <trkpt lat="46.96692" lon="6.46807">
        <ele>1066.3</ele>
        <time>2021-08-13T12:31:26Z</time>
      </trkpt>
      <trkpt lat="46.96688" lon="6.46804">
        <ele>1066.3</ele>
        <time>2021-08-13T12:31:28Z</time>
      </trkpt>
      <trkpt lat="46.96684" lon="6.46801">
        <ele>1066.3</ele>
        <time>2021-08-13T12:31:29Z</time>
      </trkpt>
      <trkpt lat="46.9668" lon="6.46798">
        <ele>1066.3</ele>
        <time>2021-08-13T12:31:31Z</time>
      </trkpt>
      <trkpt lat="46.96676" lon="6.46795">
        <ele>1066.3</ele>
        <time>2021-08-13T12:31:56Z</time>
      </trkpt>
      <trkpt lat="46.96672" lon="6.46792">
        <ele>1066.2</ele>
        <time>2021-08-13T12:31:57Z</time>
      </trkpt>
      <trkpt lat="46.96666" lon="6.46786">
        <ele>1066.2</ele>
        <time>2021-08-13T12:31:59Z</time>
      </trkpt>
      <trkpt lat="46.96659" lon="6.46779">
        <ele>1066.1</ele>
        <time>2021-08-13T12:32:01Z</time>
      </trkpt>
      <trkpt lat="46.96655" lon="6.46776">
        <ele>1066</ele>
        <time>2021-08-13T12:32:02Z</time>
      </trkpt>
      <trkpt lat="46.96647" lon="6.46768">
        <ele>1066</ele>
        <time>2021-08-13T12:32:04Z</time>
      </trkpt>
      <trkpt lat="46.96644" lon="6.46762">
        <ele>1065.9</ele>
        <time>2021-08-13T12:32:05Z</time>
      </trkpt>
      <trkpt lat="46.96641" lon="6.46754">
        <ele>1065.9</ele>
        <time>2021-08-13T12:32:06Z</time>
      </trkpt>
      <trkpt lat="46.9664" lon="6.46748">
        <ele>1065.9</ele>
        <time>2021-08-13T12:32:07Z</time>
      </trkpt>
      <trkpt lat="46.96638" lon="6.46739">
        <ele>1065.9</ele>
        <time>2021-08-13T12:32:09Z</time>
      </trkpt>
      <trkpt lat="46.96636" lon="6.46733">
        <ele>1065.9</ele>
        <time>2021-08-13T12:32:10Z</time>
      </trkpt>
      <trkpt lat="46.96634" lon="6.46727">
        <ele>1065.9</ele>
        <time>2021-08-13T12:32:11Z</time>
      </trkpt>
      <trkpt lat="46.96631" lon="6.46722">
        <ele>1065.9</ele>
        <time>2021-08-13T12:32:12Z</time>
      </trkpt>
      <trkpt lat="46.96626" lon="6.46716">
        <ele>1065.9</ele>
        <time>2021-08-13T12:32:14Z</time>
      </trkpt>
      <trkpt lat="46.96625" lon="6.46713">
        <ele>1065.9</ele>
        <time>2021-08-13T12:32:16Z</time>
      </trkpt>
      <trkpt lat="46.96624" lon="6.46712">
        <ele>1065.9</ele>
        <time>2021-08-13T12:32:17Z</time>
      </trkpt>
      <trkpt lat="46.96623" lon="6.4671">
        <ele>1065.9</ele>
        <time>2021-08-13T12:32:18Z</time>
      </trkpt>
      <trkpt lat="46.96622" lon="6.46709">
        <ele>1065.9</ele>
        <time>2021-08-13T12:32:19Z</time>
      </trkpt>
      <trkpt lat="46.96622" lon="6.46707">
        <ele>1065.9</ele>
        <time>2021-08-13T12:32:21Z</time>
      </trkpt>
      <trkpt lat="46.96623" lon="6.467">
        <ele>1065.8</ele>
        <time>2021-08-13T12:32:22Z</time>
      </trkpt>
      <trkpt lat="46.96623" lon="6.46696">
        <ele>1065.8</ele>
        <time>2021-08-13T12:32:23Z</time>
      </trkpt>
      <trkpt lat="46.96625" lon="6.4669">
        <ele>1065.7</ele>
        <time>2021-08-13T12:32:24Z</time>
      </trkpt>
      <trkpt lat="46.96628" lon="6.46677">
        <ele>1065.7</ele>
        <time>2021-08-13T12:32:26Z</time>
      </trkpt>
      <trkpt lat="46.96629" lon="6.46672">
        <ele>1065.6</ele>
        <time>2021-08-13T12:32:27Z</time>
      </trkpt>
      <trkpt lat="46.96629" lon="6.46667">
        <ele>1065.6</ele>
        <time>2021-08-13T12:32:29Z</time>
      </trkpt>
      <trkpt lat="46.96629" lon="6.46665">
        <ele>1065.6</ele>
        <time>2021-08-13T12:32:30Z</time>
      </trkpt>
      <trkpt lat="46.96627" lon="6.46659">
        <ele>1065.6</ele>
        <time>2021-08-13T12:32:32Z</time>
      </trkpt>
      <trkpt lat="46.96627" lon="6.46657">
        <ele>1065.6</ele>
        <time>2021-08-13T12:32:33Z</time>
      </trkpt>
      <trkpt lat="46.96626" lon="6.46655">
        <ele>1065.6</ele>
        <time>2021-08-13T12:32:34Z</time>
      </trkpt>
      <trkpt lat="46.96625" lon="6.46652">
        <ele>1065.6</ele>
        <time>2021-08-13T12:32:35Z</time>
      </trkpt>
      <trkpt lat="46.96625" lon="6.46652">
        <ele>1065.6</ele>
        <time>2021-08-13T12:32:36Z</time>
      </trkpt>
      <trkpt lat="46.96622" lon="6.46655">
        <ele>1065.6</ele>
        <time>2021-08-13T12:32:38Z</time>
      </trkpt>
      <trkpt lat="46.9662" lon="6.46656">
        <ele>1065.6</ele>
        <time>2021-08-13T12:32:39Z</time>
      </trkpt>
      <trkpt lat="46.96617" lon="6.46656">
        <ele>1065.6</ele>
        <time>2021-08-13T12:32:41Z</time>
      </trkpt>
      <trkpt lat="46.96612" lon="6.46658">
        <ele>1065.6</ele>
        <time>2021-08-13T12:32:42Z</time>
      </trkpt>
      <trkpt lat="46.9661" lon="6.46658">
        <ele>1065.6</ele>
        <time>2021-08-13T12:32:44Z</time>
      </trkpt>
      <trkpt lat="46.96609" lon="6.46659">
        <ele>1065.6</ele>
        <time>2021-08-13T12:32:45Z</time>
      </trkpt>
      <trkpt lat="46.96581" lon="6.46634">
        <ele>1066.1</ele>
        <time>2021-08-13T12:33:17Z</time>
      </trkpt>
      <trkpt lat="46.96579" lon="6.46629">
        <ele>1066.2</ele>
        <time>2021-08-13T12:33:18Z</time>
      </trkpt>
      <trkpt lat="46.96574" lon="6.46612">
        <ele>1066.4</ele>
        <time>2021-08-13T12:33:20Z</time>
      </trkpt>
      <trkpt lat="46.9657" lon="6.46601">
        <ele>1066.6</ele>
        <time>2021-08-13T12:33:22Z</time>
      </trkpt>
      <trkpt lat="46.96568" lon="6.46591">
        <ele>1066.7</ele>
        <time>2021-08-13T12:33:23Z</time>
      </trkpt>
      <trkpt lat="46.96568" lon="6.46582">
        <ele>1066.9</ele>
        <time>2021-08-13T12:33:24Z</time>
      </trkpt>
      <trkpt lat="46.96567" lon="6.46575">
        <ele>1067</ele>
        <time>2021-08-13T12:33:26Z</time>
      </trkpt>
      <trkpt lat="46.96567" lon="6.4657">
        <ele>1067.1</ele>
        <time>2021-08-13T12:33:27Z</time>
      </trkpt>
      <trkpt lat="46.96565" lon="6.46561">
        <ele>1067.2</ele>
        <time>2021-08-13T12:33:28Z</time>
      </trkpt>
      <trkpt lat="46.96565" lon="6.46556">
        <ele>1067.4</ele>
        <time>2021-08-13T12:33:30Z</time>
      </trkpt>
      <trkpt lat="46.96565" lon="6.46552">
        <ele>1067.5</ele>
        <time>2021-08-13T12:33:31Z</time>
      </trkpt>
      <trkpt lat="46.96564" lon="6.46545">
        <ele>1067.6</ele>
        <time>2021-08-13T12:33:32Z</time>
      </trkpt>
      <trkpt lat="46.96562" lon="6.46541">
        <ele>1067.7</ele>
        <time>2021-08-13T12:33:33Z</time>
      </trkpt>
      <trkpt lat="46.9656" lon="6.46538">
        <ele>1067.8</ele>
        <time>2021-08-13T12:33:35Z</time>
      </trkpt>
      <trkpt lat="46.96557" lon="6.46534">
        <ele>1068</ele>
        <time>2021-08-13T12:33:36Z</time>
      </trkpt>
      <trkpt lat="46.96554" lon="6.46533">
        <ele>1068.1</ele>
        <time>2021-08-13T12:33:37Z</time>
      </trkpt>
      <trkpt lat="46.9655" lon="6.4653">
        <ele>1068.3</ele>
        <time>2021-08-13T12:33:39Z</time>
      </trkpt>
      <trkpt lat="46.96546" lon="6.46525">
        <ele>1068.5</ele>
        <time>2021-08-13T12:33:40Z</time>
      </trkpt>
      <trkpt lat="46.96542" lon="6.46521">
        <ele>1068.7</ele>
        <time>2021-08-13T12:33:42Z</time>
      </trkpt>
      <trkpt lat="46.9654" lon="6.46518">
        <ele>1068.8</ele>
        <time>2021-08-13T12:33:43Z</time>
      </trkpt>
      <trkpt lat="46.96535" lon="6.46512">
        <ele>1069.1</ele>
        <time>2021-08-13T12:33:44Z</time>
      </trkpt>
      <trkpt lat="46.96531" lon="6.46508">
        <ele>1069.3</ele>
        <time>2021-08-13T12:33:46Z</time>
      </trkpt>
      <trkpt lat="46.96528" lon="6.46506">
        <ele>1069.5</ele>
        <time>2021-08-13T12:33:47Z</time>
      </trkpt>
      <trkpt lat="46.96524" lon="6.46502">
        <ele>1069.8</ele>
        <time>2021-08-13T12:33:48Z</time>
      </trkpt>
      <trkpt lat="46.96519" lon="6.46501">
        <ele>1070</ele>
        <time>2021-08-13T12:33:50Z</time>
      </trkpt>
      <trkpt lat="46.96516" lon="6.46499">
        <ele>1070.3</ele>
        <time>2021-08-13T12:33:51Z</time>
      </trkpt>
      <trkpt lat="46.9651" lon="6.46495">
        <ele>1070.6</ele>
        <time>2021-08-13T12:33:52Z</time>
      </trkpt>
      <trkpt lat="46.96505" lon="6.46489">
        <ele>1071</ele>
        <time>2021-08-13T12:33:54Z</time>
      </trkpt>
      <trkpt lat="46.96501" lon="6.46482">
        <ele>1071.4</ele>
        <time>2021-08-13T12:33:55Z</time>
      </trkpt>
      <trkpt lat="46.96496" lon="6.46472">
        <ele>1071.9</ele>
        <time>2021-08-13T12:33:57Z</time>
      </trkpt>
      <trkpt lat="46.96493" lon="6.46467">
        <ele>1072.1</ele>
        <time>2021-08-13T12:33:58Z</time>
      </trkpt>
      <trkpt lat="46.96488" lon="6.46462">
        <ele>1072.4</ele>
        <time>2021-08-13T12:34:00Z</time>
      </trkpt>
      <trkpt lat="46.96485" lon="6.46459">
        <ele>1072.5</ele>
        <time>2021-08-13T12:34:01Z</time>
      </trkpt>
      <trkpt lat="46.9648" lon="6.46453">
        <ele>1072.8</ele>
        <time>2021-08-13T12:34:03Z</time>
      </trkpt>
      <trkpt lat="46.96474" lon="6.46449">
        <ele>1073.1</ele>
        <time>2021-08-13T12:34:04Z</time>
      </trkpt>
      <trkpt lat="46.96469" lon="6.46447">
        <ele>1073.2</ele>
        <time>2021-08-13T12:34:06Z</time>
      </trkpt>
      <trkpt lat="46.96464" lon="6.46444">
        <ele>1073.4</ele>
        <time>2021-08-13T12:34:07Z</time>
      </trkpt>
      <trkpt lat="46.96461" lon="6.46442">
        <ele>1073.4</ele>
        <time>2021-08-13T12:34:09Z</time>
      </trkpt>
      <trkpt lat="46.9646" lon="6.46441">
        <ele>1073.5</ele>
        <time>2021-08-13T12:34:10Z</time>
      </trkpt>
      <trkpt lat="46.96458" lon="6.46438">
        <ele>1073.5</ele>
        <time>2021-08-13T12:34:12Z</time>
      </trkpt>
      <trkpt lat="46.96455" lon="6.46433">
        <ele>1073.6</ele>
        <time>2021-08-13T12:34:13Z</time>
      </trkpt>
      <trkpt lat="46.96454" lon="6.46429">
        <ele>1073.6</ele>
        <time>2021-08-13T12:34:14Z</time>
      </trkpt>
      <trkpt lat="46.96453" lon="6.46422">
        <ele>1073.7</ele>
        <time>2021-08-13T12:34:16Z</time>
      </trkpt>
      <trkpt lat="46.96456" lon="6.46415">
        <ele>1073.8</ele>
        <time>2021-08-13T12:34:17Z</time>
      </trkpt>
      <trkpt lat="46.96458" lon="6.46407">
        <ele>1073.8</ele>
        <time>2021-08-13T12:34:18Z</time>
      </trkpt>
      <trkpt lat="46.96459" lon="6.46402">
        <ele>1073.9</ele>
        <time>2021-08-13T12:34:19Z</time>
      </trkpt>
      <trkpt lat="46.96461" lon="6.46395">
        <ele>1073.9</ele>
        <time>2021-08-13T12:34:21Z</time>
      </trkpt>
      <trkpt lat="46.96461" lon="6.46392">
        <ele>1073.9</ele>
        <time>2021-08-13T12:34:22Z</time>
      </trkpt>
      <trkpt lat="46.96462" lon="6.46389">
        <ele>1074</ele>
        <time>2021-08-13T12:34:23Z</time>
      </trkpt>
      <trkpt lat="46.96463" lon="6.46384">
        <ele>1074.1</ele>
        <time>2021-08-13T12:34:25Z</time>
      </trkpt>
      <trkpt lat="46.96462" lon="6.46378">
        <ele>1074.1</ele>
        <time>2021-08-13T12:34:26Z</time>
      </trkpt>
      <trkpt lat="46.96462" lon="6.46373">
        <ele>1074.2</ele>
        <time>2021-08-13T12:34:28Z</time>
      </trkpt>
      <trkpt lat="46.96461" lon="6.46368">
        <ele>1074.3</ele>
        <time>2021-08-13T12:34:29Z</time>
      </trkpt>
      <trkpt lat="46.96461" lon="6.46363">
        <ele>1074.4</ele>
        <time>2021-08-13T12:34:31Z</time>
      </trkpt>
      <trkpt lat="46.96461" lon="6.46361">
        <ele>1074.4</ele>
        <time>2021-08-13T12:34:32Z</time>
      </trkpt>
      <trkpt lat="46.96459" lon="6.46357">
        <ele>1074.4</ele>
        <time>2021-08-13T12:34:33Z</time>
      </trkpt>
      <trkpt lat="46.96458" lon="6.46356">
        <ele>1074.5</ele>
        <time>2021-08-13T12:34:34Z</time>
      </trkpt>
      <trkpt lat="46.96455" lon="6.46354">
        <ele>1074.5</ele>
        <time>2021-08-13T12:34:35Z</time>
      </trkpt>
      <trkpt lat="46.96454" lon="6.46354">
        <ele>1074.5</ele>
        <time>2021-08-13T12:34:36Z</time>
      </trkpt>
      <trkpt lat="46.96452" lon="6.4635">
        <ele>1074.6</ele>
        <time>2021-08-13T12:34:38Z</time>
      </trkpt>
      <trkpt lat="46.96451" lon="6.46348">
        <ele>1074.7</ele>
        <time>2021-08-13T12:34:39Z</time>
      </trkpt>
      <trkpt lat="46.96451" lon="6.46343">
        <ele>1074.7</ele>
        <time>2021-08-13T12:34:40Z</time>
      </trkpt>
      <trkpt lat="46.96451" lon="6.46339">
        <ele>1074.8</ele>
        <time>2021-08-13T12:34:41Z</time>
      </trkpt>
      <trkpt lat="46.9645" lon="6.46336">
        <ele>1074.9</ele>
        <time>2021-08-13T12:34:43Z</time>
      </trkpt>
      <trkpt lat="46.96448" lon="6.46333">
        <ele>1075</ele>
        <time>2021-08-13T12:34:44Z</time>
      </trkpt>
      <trkpt lat="46.96448" lon="6.46332">
        <ele>1075</ele>
        <time>2021-08-13T12:34:45Z</time>
      </trkpt>
      <trkpt lat="46.96447" lon="6.46331">
        <ele>1075</ele>
        <time>2021-08-13T12:34:46Z</time>
      </trkpt>
      <trkpt lat="46.96446" lon="6.4633">
        <ele>1075.1</ele>
        <time>2021-08-13T12:34:48Z</time>
      </trkpt>
      <trkpt lat="46.96445" lon="6.46329">
        <ele>1075.1</ele>
        <time>2021-08-13T12:34:49Z</time>
      </trkpt>
      <trkpt lat="46.96444" lon="6.46328">
        <ele>1075.1</ele>
        <time>2021-08-13T12:34:50Z</time>
      </trkpt>
      <trkpt lat="46.96444" lon="6.46326">
        <ele>1075.2</ele>
        <time>2021-08-13T12:34:51Z</time>
      </trkpt>
      <trkpt lat="46.96443" lon="6.46325">
        <ele>1075.2</ele>
        <time>2021-08-13T12:34:52Z</time>
      </trkpt>
      <trkpt lat="46.96442" lon="6.46324">
        <ele>1075.2</ele>
        <time>2021-08-13T12:34:54Z</time>
      </trkpt>
      <trkpt lat="46.96374" lon="6.46292">
        <ele>1077.1</ele>
        <time>2021-08-13T12:35:44Z</time>
      </trkpt>
      <trkpt lat="46.96371" lon="6.46289">
        <ele>1077.2</ele>
        <time>2021-08-13T12:35:46Z</time>
      </trkpt>
      <trkpt lat="46.96371" lon="6.46289">
        <ele>1077.2</ele>
        <time>2021-08-13T12:35:47Z</time>
      </trkpt>
      <trkpt lat="46.9637" lon="6.46288">
        <ele>1077.2</ele>
        <time>2021-08-13T12:35:48Z</time>
      </trkpt>
      <trkpt lat="46.96368" lon="6.46287">
        <ele>1077.3</ele>
        <time>2021-08-13T12:35:49Z</time>
      </trkpt>
      <trkpt lat="46.96366" lon="6.46286">
        <ele>1077.3</ele>
        <time>2021-08-13T12:35:51Z</time>
      </trkpt>
      <trkpt lat="46.96365" lon="6.46286">
        <ele>1077.3</ele>
        <time>2021-08-13T12:35:52Z</time>
      </trkpt>
      <trkpt lat="46.96364" lon="6.46285">
        <ele>1077.4</ele>
        <time>2021-08-13T12:35:53Z</time>
      </trkpt>
      <trkpt lat="46.96361" lon="6.46282">
        <ele>1077.4</ele>
        <time>2021-08-13T12:35:54Z</time>
      </trkpt>
      <trkpt lat="46.9636" lon="6.46281">
        <ele>1077.5</ele>
        <time>2021-08-13T12:35:55Z</time>
      </trkpt>
      <trkpt lat="46.96357" lon="6.46279">
        <ele>1077.5</ele>
        <time>2021-08-13T12:35:56Z</time>
      </trkpt>
      <trkpt lat="46.96356" lon="6.46279">
        <ele>1077.5</ele>
        <time>2021-08-13T12:35:57Z</time>
      </trkpt>
      <trkpt lat="46.96355" lon="6.46279">
        <ele>1077.6</ele>
        <time>2021-08-13T12:35:59Z</time>
      </trkpt>
      <trkpt lat="46.96353" lon="6.46279">
        <ele>1077.7</ele>
        <time>2021-08-13T12:36:00Z</time>
      </trkpt>
      <trkpt lat="46.9635" lon="6.46277">
        <ele>1077.8</ele>
        <time>2021-08-13T12:36:02Z</time>
      </trkpt>
      <trkpt lat="46.96346" lon="6.46276">
        <ele>1077.8</ele>
        <time>2021-08-13T12:36:03Z</time>
      </trkpt>
      <trkpt lat="46.96345" lon="6.46276">
        <ele>1077.8</ele>
        <time>2021-08-13T12:36:05Z</time>
      </trkpt>
      <trkpt lat="46.96344" lon="6.46276">
        <ele>1077.9</ele>
        <time>2021-08-13T12:36:06Z</time>
      </trkpt>
      <trkpt lat="46.96344" lon="6.46276">
        <ele>1077.9</ele>
        <time>2021-08-13T12:36:07Z</time>
      </trkpt>
      <trkpt lat="46.96343" lon="6.46276">
        <ele>1077.9</ele>
        <time>2021-08-13T12:36:08Z</time>
      </trkpt>
      <trkpt lat="46.96343" lon="6.46276">
        <ele>1077.9</ele>
        <time>2021-08-13T12:36:09Z</time>
      </trkpt>
      <trkpt lat="46.96343" lon="6.46277">
        <ele>1077.9</ele>
        <time>2021-08-13T12:36:11Z</time>
      </trkpt>
      <trkpt lat="46.96342" lon="6.46277">
        <ele>1077.9</ele>
        <time>2021-08-13T12:36:12Z</time>
      </trkpt>
      <trkpt lat="46.96342" lon="6.46276">
        <ele>1077.9</ele>
        <time>2021-08-13T12:36:13Z</time>
      </trkpt>
      <trkpt lat="46.96341" lon="6.46275">
        <ele>1078</ele>
        <time>2021-08-13T12:36:14Z</time>
      </trkpt>
      <trkpt lat="46.96339" lon="6.46272">
        <ele>1078</ele>
        <time>2021-08-13T12:36:16Z</time>
      </trkpt>
      <trkpt lat="46.96331" lon="6.46255">
        <ele>1078.3</ele>
        <time>2021-08-13T12:36:23Z</time>
      </trkpt>
      <trkpt lat="46.9633" lon="6.46253">
        <ele>1078.3</ele>
        <time>2021-08-13T12:36:24Z</time>
      </trkpt>
      <trkpt lat="46.9633" lon="6.46251">
        <ele>1078.3</ele>
        <time>2021-08-13T12:36:25Z</time>
      </trkpt>
      <trkpt lat="46.9633" lon="6.46249">
        <ele>1078.3</ele>
        <time>2021-08-13T12:36:27Z</time>
      </trkpt>
      <trkpt lat="46.9633" lon="6.46248">
        <ele>1078.3</ele>
        <time>2021-08-13T12:36:28Z</time>
      </trkpt>
      <trkpt lat="46.9633" lon="6.46248">
        <ele>1078.4</ele>
        <time>2021-08-13T12:36:29Z</time>
      </trkpt>
      <trkpt lat="46.9633" lon="6.46247">
        <ele>1078.4</ele>
        <time>2021-08-13T12:36:30Z</time>
      </trkpt>
      <trkpt lat="46.9633" lon="6.46247">
        <ele>1078.4</ele>
        <time>2021-08-13T12:36:32Z</time>
      </trkpt>
      <trkpt lat="46.9633" lon="6.46246">
        <ele>1078.4</ele>
        <time>2021-08-13T12:36:33Z</time>
      </trkpt>
      <trkpt lat="46.9633" lon="6.46246">
        <ele>1078.4</ele>
        <time>2021-08-13T12:36:34Z</time>
      </trkpt>
      <trkpt lat="46.9633" lon="6.46246">
        <ele>1078.4</ele>
        <time>2021-08-13T12:36:35Z</time>
      </trkpt>
      <trkpt lat="46.9633" lon="6.46246">
        <ele>1078.4</ele>
        <time>2021-08-13T12:36:36Z</time>
      </trkpt>
      <trkpt lat="46.9633" lon="6.46246">
        <ele>1078.4</ele>
        <time>2021-08-13T12:36:37Z</time>
      </trkpt>
      <trkpt lat="46.96313" lon="6.46229">
        <ele>1078.6</ele>
        <time>2021-08-13T12:36:48Z</time>
      </trkpt>
      <trkpt lat="46.96311" lon="6.46226">
        <ele>1078.6</ele>
        <time>2021-08-13T12:36:50Z</time>
      </trkpt>
      <trkpt lat="46.9631" lon="6.46226">
        <ele>1078.6</ele>
        <time>2021-08-13T12:36:51Z</time>
      </trkpt>
      <trkpt lat="46.9631" lon="6.46225">
        <ele>1078.6</ele>
        <time>2021-08-13T12:36:52Z</time>
      </trkpt>
      <trkpt lat="46.9631" lon="6.46224">
        <ele>1078.6</ele>
        <time>2021-08-13T12:36:54Z</time>
      </trkpt>
      <trkpt lat="46.9631" lon="6.46223">
        <ele>1078.6</ele>
        <time>2021-08-13T12:36:55Z</time>
      </trkpt>
      <trkpt lat="46.9631" lon="6.46223">
        <ele>1078.6</ele>
        <time>2021-08-13T12:36:57Z</time>
      </trkpt>
      <trkpt lat="46.9631" lon="6.46223">
        <ele>1078.6</ele>
        <time>2021-08-13T12:36:59Z</time>
      </trkpt>
      <trkpt lat="46.96309" lon="6.46223">
        <ele>1078.6</ele>
        <time>2021-08-13T12:37:00Z</time>
      </trkpt>
      <trkpt lat="46.96309" lon="6.46221">
        <ele>1078.6</ele>
        <time>2021-08-13T12:37:01Z</time>
      </trkpt>
      <trkpt lat="46.96296" lon="6.46208">
        <ele>1078.7</ele>
        <time>2021-08-13T12:37:10Z</time>
      </trkpt>
      <trkpt lat="46.96293" lon="6.46205">
        <ele>1078.7</ele>
        <time>2021-08-13T12:37:11Z</time>
      </trkpt>
      <trkpt lat="46.96292" lon="6.46203">
        <ele>1078.8</ele>
        <time>2021-08-13T12:37:12Z</time>
      </trkpt>
      <trkpt lat="46.96291" lon="6.46201">
        <ele>1078.8</ele>
        <time>2021-08-13T12:37:14Z</time>
      </trkpt>
      <trkpt lat="46.96288" lon="6.46197">
        <ele>1078.8</ele>
        <time>2021-08-13T12:37:15Z</time>
      </trkpt>
      <trkpt lat="46.96288" lon="6.46195">
        <ele>1078.8</ele>
        <time>2021-08-13T12:37:16Z</time>
      </trkpt>
      <trkpt lat="46.96286" lon="6.46191">
        <ele>1078.9</ele>
        <time>2021-08-13T12:37:18Z</time>
      </trkpt>
      <trkpt lat="46.96285" lon="6.46189">
        <ele>1078.9</ele>
        <time>2021-08-13T12:37:19Z</time>
      </trkpt>
      <trkpt lat="46.96284" lon="6.46187">
        <ele>1078.9</ele>
        <time>2021-08-13T12:37:20Z</time>
      </trkpt>
      <trkpt lat="46.96283" lon="6.46185">
        <ele>1078.9</ele>
        <time>2021-08-13T12:37:22Z</time>
      </trkpt>
      <trkpt lat="46.96282" lon="6.46183">
        <ele>1079</ele>
        <time>2021-08-13T12:37:23Z</time>
      </trkpt>
      <trkpt lat="46.96281" lon="6.46181">
        <ele>1079</ele>
        <time>2021-08-13T12:37:24Z</time>
      </trkpt>
      <trkpt lat="46.9628" lon="6.4618">
        <ele>1079</ele>
        <time>2021-08-13T12:37:25Z</time>
      </trkpt>
      <trkpt lat="46.96279" lon="6.46179">
        <ele>1079</ele>
        <time>2021-08-13T12:37:26Z</time>
      </trkpt>
      <trkpt lat="46.96277" lon="6.46175">
        <ele>1079.1</ele>
        <time>2021-08-13T12:37:27Z</time>
      </trkpt>
      <trkpt lat="46.96276" lon="6.46174">
        <ele>1079.1</ele>
        <time>2021-08-13T12:37:28Z</time>
      </trkpt>
      <trkpt lat="46.96274" lon="6.46171">
        <ele>1079.2</ele>
        <time>2021-08-13T12:37:29Z</time>
      </trkpt>
      <trkpt lat="46.96273" lon="6.46171">
        <ele>1079.2</ele>
        <time>2021-08-13T12:37:31Z</time>
      </trkpt>
      <trkpt lat="46.96273" lon="6.4617">
        <ele>1079.2</ele>
        <time>2021-08-13T12:37:32Z</time>
      </trkpt>
      <trkpt lat="46.96273" lon="6.46169">
        <ele>1079.2</ele>
        <time>2021-08-13T12:37:33Z</time>
      </trkpt>
      <trkpt lat="46.96272" lon="6.46168">
        <ele>1079.2</ele>
        <time>2021-08-13T12:37:34Z</time>
      </trkpt>
      <trkpt lat="46.9627" lon="6.46165">
        <ele>1079.3</ele>
        <time>2021-08-13T12:37:36Z</time>
      </trkpt>
      <trkpt lat="46.96268" lon="6.46163">
        <ele>1079.3</ele>
        <time>2021-08-13T12:37:37Z</time>
      </trkpt>
      <trkpt lat="46.96268" lon="6.46161">
        <ele>1079.3</ele>
        <time>2021-08-13T12:37:38Z</time>
      </trkpt>
      <trkpt lat="46.96267" lon="6.4616">
        <ele>1079.3</ele>
        <time>2021-08-13T12:37:39Z</time>
      </trkpt>
      <trkpt lat="46.96267" lon="6.46159">
        <ele>1079.3</ele>
        <time>2021-08-13T12:37:40Z</time>
      </trkpt>
      <trkpt lat="46.96267" lon="6.46159">
        <ele>1079.3</ele>
        <time>2021-08-13T12:37:41Z</time>
      </trkpt>
      <trkpt lat="46.96266" lon="6.46159">
        <ele>1079.3</ele>
        <time>2021-08-13T12:37:43Z</time>
      </trkpt>
      <trkpt lat="46.96266" lon="6.46158">
        <ele>1079.3</ele>
        <time>2021-08-13T12:37:44Z</time>
      </trkpt>
      <trkpt lat="46.96266" lon="6.46158">
        <ele>1079.3</ele>
        <time>2021-08-13T12:37:45Z</time>
      </trkpt>
      <trkpt lat="46.96265" lon="6.46157">
        <ele>1079.3</ele>
        <time>2021-08-13T12:37:46Z</time>
      </trkpt>
      <trkpt lat="46.96265" lon="6.46157">
        <ele>1079.4</ele>
        <time>2021-08-13T12:37:47Z</time>
      </trkpt>
      <trkpt lat="46.96264" lon="6.46155">
        <ele>1079.4</ele>
        <time>2021-08-13T12:37:49Z</time>
      </trkpt>
      <trkpt lat="46.96263" lon="6.46155">
        <ele>1079.4</ele>
        <time>2021-08-13T12:37:50Z</time>
      </trkpt>
      <trkpt lat="46.96257" lon="6.46149">
        <ele>1079.4</ele>
        <time>2021-08-13T12:37:54Z</time>
      </trkpt>
      <trkpt lat="46.96255" lon="6.46147">
        <ele>1079.4</ele>
        <time>2021-08-13T12:37:55Z</time>
      </trkpt>
      <trkpt lat="46.96253" lon="6.46145">
        <ele>1079.4</ele>
        <time>2021-08-13T12:37:57Z</time>
      </trkpt>
      <trkpt lat="46.96251" lon="6.46141">
        <ele>1079.3</ele>
        <time>2021-08-13T12:37:58Z</time>
      </trkpt>
      <trkpt lat="46.96249" lon="6.46138">
        <ele>1079.3</ele>
        <time>2021-08-13T12:37:59Z</time>
      </trkpt>
      <trkpt lat="46.96246" lon="6.46134">
        <ele>1079.2</ele>
        <time>2021-08-13T12:38:01Z</time>
      </trkpt>
      <trkpt lat="46.96244" lon="6.46132">
        <ele>1079.1</ele>
        <time>2021-08-13T12:38:03Z</time>
      </trkpt>
      <trkpt lat="46.96243" lon="6.46131">
        <ele>1079.1</ele>
        <time>2021-08-13T12:38:04Z</time>
      </trkpt>
      <trkpt lat="46.96244" lon="6.46131">
        <ele>1079.1</ele>
        <time>2021-08-13T12:38:06Z</time>
      </trkpt>
      <trkpt lat="46.96244" lon="6.4613">
        <ele>1079.1</ele>
        <time>2021-08-13T12:38:07Z</time>
      </trkpt>
      <trkpt lat="46.96244" lon="6.4613">
        <ele>1079.1</ele>
        <time>2021-08-13T12:38:08Z</time>
      </trkpt>
      <trkpt lat="46.96244" lon="6.4613">
        <ele>1079.1</ele>
        <time>2021-08-13T12:38:10Z</time>
      </trkpt>
      <trkpt lat="46.96243" lon="6.4613">
        <ele>1079.1</ele>
        <time>2021-08-13T12:38:11Z</time>
      </trkpt>
      <trkpt lat="46.96243" lon="6.46127">
        <ele>1079.1</ele>
        <time>2021-08-13T12:38:12Z</time>
      </trkpt>
      <trkpt lat="46.96242" lon="6.46123">
        <ele>1079</ele>
        <time>2021-08-13T12:38:14Z</time>
      </trkpt>
      <trkpt lat="46.96242" lon="6.46121">
        <ele>1079</ele>
        <time>2021-08-13T12:38:15Z</time>
      </trkpt>
      <trkpt lat="46.96237" lon="6.46107">
        <ele>1078.9</ele>
        <time>2021-08-13T12:38:16Z</time>
      </trkpt>
      <trkpt lat="46.96233" lon="6.46094">
        <ele>1078.8</ele>
        <time>2021-08-13T12:38:44Z</time>
      </trkpt>
      <trkpt lat="46.96229" lon="6.46082">
        <ele>1078.8</ele>
        <time>2021-08-13T12:38:45Z</time>
      </trkpt>
      <trkpt lat="46.96225" lon="6.4607">
        <ele>1078.9</ele>
        <time>2021-08-13T12:38:46Z</time>
      </trkpt>
      <trkpt lat="46.96224" lon="6.46067">
        <ele>1078.9</ele>
        <time>2021-08-13T12:38:48Z</time>
      </trkpt>
      <trkpt lat="46.96223" lon="6.46066">
        <ele>1078.9</ele>
        <time>2021-08-13T12:38:49Z</time>
      </trkpt>
      <trkpt lat="46.96222" lon="6.46065">
        <ele>1078.9</ele>
        <time>2021-08-13T12:38:50Z</time>
      </trkpt>
      <trkpt lat="46.96221" lon="6.46063">
        <ele>1078.9</ele>
        <time>2021-08-13T12:38:52Z</time>
      </trkpt>
      <trkpt lat="46.96221" lon="6.46063">
        <ele>1078.9</ele>
        <time>2021-08-13T12:38:54Z</time>
      </trkpt>
      <trkpt lat="46.96221" lon="6.46062">
        <ele>1078.9</ele>
        <time>2021-08-13T12:38:55Z</time>
      </trkpt>
      <trkpt lat="46.96221" lon="6.46062">
        <ele>1078.9</ele>
        <time>2021-08-13T12:38:56Z</time>
      </trkpt>
      <trkpt lat="46.96221" lon="6.46061">
        <ele>1078.9</ele>
        <time>2021-08-13T12:38:58Z</time>
      </trkpt>
      <trkpt lat="46.96221" lon="6.46061">
        <ele>1078.9</ele>
        <time>2021-08-13T12:38:59Z</time>
      </trkpt>
      <trkpt lat="46.96221" lon="6.4606">
        <ele>1078.9</ele>
        <time>2021-08-13T12:39:00Z</time>
      </trkpt>
      <trkpt lat="46.9622" lon="6.46058">
        <ele>1079</ele>
        <time>2021-08-13T12:39:01Z</time>
      </trkpt>
      <trkpt lat="46.96218" lon="6.46055">
        <ele>1079</ele>
        <time>2021-08-13T12:39:03Z</time>
      </trkpt>
      <trkpt lat="46.96212" lon="6.46044">
        <ele>1079.1</ele>
        <time>2021-08-13T12:39:07Z</time>
      </trkpt>
      <trkpt lat="46.96207" lon="6.46033">
        <ele>1079.3</ele>
        <time>2021-08-13T12:39:08Z</time>
      </trkpt>
      <trkpt lat="46.96204" lon="6.46026">
        <ele>1079.4</ele>
        <time>2021-08-13T12:39:10Z</time>
      </trkpt>
      <trkpt lat="46.962" lon="6.46017">
        <ele>1079.6</ele>
        <time>2021-08-13T12:39:11Z</time>
      </trkpt>
      <trkpt lat="46.96197" lon="6.4601">
        <ele>1079.7</ele>
        <time>2021-08-13T12:39:13Z</time>
      </trkpt>
      <trkpt lat="46.96194" lon="6.46006">
        <ele>1079.8</ele>
        <time>2021-08-13T12:39:14Z</time>
      </trkpt>
      <trkpt lat="46.96191" lon="6.45999">
        <ele>1079.9</ele>
        <time>2021-08-13T12:39:15Z</time>
      </trkpt>
      <trkpt lat="46.9619" lon="6.45995">
        <ele>1080</ele>
        <time>2021-08-13T12:39:17Z</time>
      </trkpt>
      <trkpt lat="46.96188" lon="6.45991">
        <ele>1080</ele>
        <time>2021-08-13T12:39:18Z</time>
      </trkpt>
      <trkpt lat="46.96187" lon="6.45987">
        <ele>1080.1</ele>
        <time>2021-08-13T12:39:20Z</time>
      </trkpt>
      <trkpt lat="46.96186" lon="6.45986">
        <ele>1080.1</ele>
        <time>2021-08-13T12:39:21Z</time>
      </trkpt>
      <trkpt lat="46.96183" lon="6.45983">
        <ele>1080.2</ele>
        <time>2021-08-13T12:39:22Z</time>
      </trkpt>
      <trkpt lat="46.96181" lon="6.45981">
        <ele>1080.3</ele>
        <time>2021-08-13T12:39:24Z</time>
      </trkpt>
      <trkpt lat="46.96178" lon="6.45979">
        <ele>1080.4</ele>
        <time>2021-08-13T12:39:25Z</time>
      </trkpt>
      <trkpt lat="46.96175" lon="6.45978">
        <ele>1080.5</ele>
        <time>2021-08-13T12:39:27Z</time>
      </trkpt>
      <trkpt lat="46.96173" lon="6.45976">
        <ele>1080.5</ele>
        <time>2021-08-13T12:39:29Z</time>
      </trkpt>
      <trkpt lat="46.96172" lon="6.45975">
        <ele>1080.6</ele>
        <time>2021-08-13T12:39:30Z</time>
      </trkpt>
      <trkpt lat="46.9617" lon="6.45974">
        <ele>1080.6</ele>
        <time>2021-08-13T12:39:31Z</time>
      </trkpt>
      <trkpt lat="46.96169" lon="6.45973">
        <ele>1080.7</ele>
        <time>2021-08-13T12:39:32Z</time>
      </trkpt>
      <trkpt lat="46.96167" lon="6.45971">
        <ele>1080.7</ele>
        <time>2021-08-13T12:39:33Z</time>
      </trkpt>
      <trkpt lat="46.96167" lon="6.4597">
        <ele>1080.7</ele>
        <time>2021-08-13T12:39:35Z</time>
      </trkpt>
      <trkpt lat="46.96166" lon="6.45969">
        <ele>1080.8</ele>
        <time>2021-08-13T12:39:36Z</time>
      </trkpt>
      <trkpt lat="46.96165" lon="6.45969">
        <ele>1080.8</ele>
        <time>2021-08-13T12:39:37Z</time>
      </trkpt>
      <trkpt lat="46.96166" lon="6.45968">
        <ele>1080.8</ele>
        <time>2021-08-13T12:39:39Z</time>
      </trkpt>
      <trkpt lat="46.96165" lon="6.45967">
        <ele>1080.8</ele>
        <time>2021-08-13T12:39:41Z</time>
      </trkpt>
      <trkpt lat="46.96164" lon="6.45967">
        <ele>1080.8</ele>
        <time>2021-08-13T12:39:42Z</time>
      </trkpt>
      <trkpt lat="46.96163" lon="6.45966">
        <ele>1080.9</ele>
        <time>2021-08-13T12:39:43Z</time>
      </trkpt>
      <trkpt lat="46.96162" lon="6.45965">
        <ele>1080.9</ele>
        <time>2021-08-13T12:39:45Z</time>
      </trkpt>
      <trkpt lat="46.9616" lon="6.45964">
        <ele>1080.9</ele>
        <time>2021-08-13T12:39:46Z</time>
      </trkpt>
      <trkpt lat="46.96149" lon="6.45958">
        <ele>1081.1</ele>
        <time>2021-08-13T12:39:54Z</time>
      </trkpt>
      <trkpt lat="46.96146" lon="6.45953">
        <ele>1081.2</ele>
        <time>2021-08-13T12:39:56Z</time>
      </trkpt>
      <trkpt lat="46.96143" lon="6.45951">
        <ele>1081.2</ele>
        <time>2021-08-13T12:39:57Z</time>
      </trkpt>
      <trkpt lat="46.9614" lon="6.45948">
        <ele>1081.3</ele>
        <time>2021-08-13T12:39:58Z</time>
      </trkpt>
      <trkpt lat="46.96136" lon="6.45946">
        <ele>1081.3</ele>
        <time>2021-08-13T12:40:00Z</time>
      </trkpt>
      <trkpt lat="46.96133" lon="6.45944">
        <ele>1081.3</ele>
        <time>2021-08-13T12:40:01Z</time>
      </trkpt>
      <trkpt lat="46.96132" lon="6.45943">
        <ele>1081.3</ele>
        <time>2021-08-13T12:40:02Z</time>
      </trkpt>
      <trkpt lat="46.96129" lon="6.45941">
        <ele>1081.3</ele>
        <time>2021-08-13T12:40:04Z</time>
      </trkpt>
      <trkpt lat="46.96128" lon="6.4594">
        <ele>1081.3</ele>
        <time>2021-08-13T12:40:05Z</time>
      </trkpt>
      <trkpt lat="46.96125" lon="6.45938">
        <ele>1081.3</ele>
        <time>2021-08-13T12:40:06Z</time>
      </trkpt>
      <trkpt lat="46.96123" lon="6.45935">
        <ele>1081.2</ele>
        <time>2021-08-13T12:40:07Z</time>
      </trkpt>
      <trkpt lat="46.96119" lon="6.45932">
        <ele>1081.2</ele>
        <time>2021-08-13T12:40:08Z</time>
      </trkpt>
      <trkpt lat="46.96115" lon="6.45928">
        <ele>1081.1</ele>
        <time>2021-08-13T12:40:10Z</time>
      </trkpt>
      <trkpt lat="46.9611" lon="6.45925">
        <ele>1081</ele>
        <time>2021-08-13T12:40:11Z</time>
      </trkpt>
      <trkpt lat="46.96106" lon="6.45921">
        <ele>1081</ele>
        <time>2021-08-13T12:40:13Z</time>
      </trkpt>
      <trkpt lat="46.96104" lon="6.45919">
        <ele>1080.9</ele>
        <time>2021-08-13T12:40:14Z</time>
      </trkpt>
      <trkpt lat="46.96103" lon="6.45918">
        <ele>1080.9</ele>
        <time>2021-08-13T12:40:15Z</time>
      </trkpt>
      <trkpt lat="46.96101" lon="6.45913">
        <ele>1080.9</ele>
        <time>2021-08-13T12:40:16Z</time>
      </trkpt>
      <trkpt lat="46.96099" lon="6.45908">
        <ele>1080.9</ele>
        <time>2021-08-13T12:40:17Z</time>
      </trkpt>
      <trkpt lat="46.96097" lon="6.45903">
        <ele>1080.9</ele>
        <time>2021-08-13T12:40:18Z</time>
      </trkpt>
      <trkpt lat="46.96095" lon="6.45898">
        <ele>1080.9</ele>
        <time>2021-08-13T12:40:20Z</time>
      </trkpt>
      <trkpt lat="46.96092" lon="6.45892">
        <ele>1080.9</ele>
        <time>2021-08-13T12:40:21Z</time>
      </trkpt>
      <trkpt lat="46.96091" lon="6.45887">
        <ele>1081</ele>
        <time>2021-08-13T12:40:22Z</time>
      </trkpt>
      <trkpt lat="46.96088" lon="6.4588">
        <ele>1081</ele>
        <time>2021-08-13T12:40:24Z</time>
      </trkpt>
      <trkpt lat="46.96086" lon="6.45876">
        <ele>1081.1</ele>
        <time>2021-08-13T12:40:25Z</time>
      </trkpt>
      <trkpt lat="46.96084" lon="6.45869">
        <ele>1081.2</ele>
        <time>2021-08-13T12:40:26Z</time>
      </trkpt>
      <trkpt lat="46.96083" lon="6.45864">
        <ele>1081.3</ele>
        <time>2021-08-13T12:40:27Z</time>
      </trkpt>
      <trkpt lat="46.96083" lon="6.45858">
        <ele>1081.3</ele>
        <time>2021-08-13T12:40:29Z</time>
      </trkpt>
      <trkpt lat="46.96082" lon="6.45851">
        <ele>1081.4</ele>
        <time>2021-08-13T12:40:30Z</time>
      </trkpt>
      <trkpt lat="46.9608" lon="6.45844">
        <ele>1081.4</ele>
        <time>2021-08-13T12:40:31Z</time>
      </trkpt>
      <trkpt lat="46.96078" lon="6.45836">
        <ele>1081.3</ele>
        <time>2021-08-13T12:40:32Z</time>
      </trkpt>
      <trkpt lat="46.96077" lon="6.4583">
        <ele>1081.3</ele>
        <time>2021-08-13T12:40:34Z</time>
      </trkpt>
      <trkpt lat="46.96075" lon="6.45823">
        <ele>1080.9</ele>
        <time>2021-08-13T12:40:35Z</time>
      </trkpt>
      <trkpt lat="46.96072" lon="6.45814">
        <ele>1080.5</ele>
        <time>2021-08-13T12:40:37Z</time>
      </trkpt>
      <trkpt lat="46.96069" lon="6.45809">
        <ele>1080.2</ele>
        <time>2021-08-13T12:40:38Z</time>
      </trkpt>
      <trkpt lat="46.96065" lon="6.45799">
        <ele>1079.6</ele>
        <time>2021-08-13T12:40:40Z</time>
      </trkpt>
      <trkpt lat="46.96063" lon="6.4579">
        <ele>1079.1</ele>
        <time>2021-08-13T12:40:41Z</time>
      </trkpt>
      <trkpt lat="46.9606" lon="6.45783">
        <ele>1078.6</ele>
        <time>2021-08-13T12:40:42Z</time>
      </trkpt>
      <trkpt lat="46.96054" lon="6.45765">
        <ele>1077.8</ele>
        <time>2021-08-13T12:40:44Z</time>
      </trkpt>
      <trkpt lat="46.9605" lon="6.45757">
        <ele>1077.5</ele>
        <time>2021-08-13T12:40:45Z</time>
      </trkpt>
      <trkpt lat="46.96042" lon="6.4574">
        <ele>1076.9</ele>
        <time>2021-08-13T12:40:47Z</time>
      </trkpt>
      <trkpt lat="46.96037" lon="6.45733">
        <ele>1076.7</ele>
        <time>2021-08-13T12:40:48Z</time>
      </trkpt>
      <trkpt lat="46.96029" lon="6.45723">
        <ele>1076.4</ele>
        <time>2021-08-13T12:40:51Z</time>
      </trkpt>
      <trkpt lat="46.96023" lon="6.45721">
        <ele>1076.3</ele>
        <time>2021-08-13T12:40:53Z</time>
      </trkpt>
      <trkpt lat="46.96016" lon="6.4572">
        <ele>1076.2</ele>
        <time>2021-08-13T12:40:54Z</time>
      </trkpt>
      <trkpt lat="46.96011" lon="6.45721">
        <ele>1076.1</ele>
        <time>2021-08-13T12:40:55Z</time>
      </trkpt>
      <trkpt lat="46.96006" lon="6.45719">
        <ele>1076.1</ele>
        <time>2021-08-13T12:40:57Z</time>
      </trkpt>
      <trkpt lat="46.96001" lon="6.45718">
        <ele>1076</ele>
        <time>2021-08-13T12:40:58Z</time>
      </trkpt>
      <trkpt lat="46.95997" lon="6.45718">
        <ele>1076</ele>
        <time>2021-08-13T12:40:59Z</time>
      </trkpt>
      <trkpt lat="46.95992" lon="6.45717">
        <ele>1075.9</ele>
        <time>2021-08-13T12:41:00Z</time>
      </trkpt>
      <trkpt lat="46.9599" lon="6.45714">
        <ele>1075.9</ele>
        <time>2021-08-13T12:41:02Z</time>
      </trkpt>
      <trkpt lat="46.95987" lon="6.45709">
        <ele>1075.8</ele>
        <time>2021-08-13T12:41:03Z</time>
      </trkpt>
      <trkpt lat="46.95984" lon="6.45704">
        <ele>1075.7</ele>
        <time>2021-08-13T12:41:04Z</time>
      </trkpt>
      <trkpt lat="46.95979" lon="6.457">
        <ele>1075.6</ele>
        <time>2021-08-13T12:41:07Z</time>
      </trkpt>
      <trkpt lat="46.95976" lon="6.45699">
        <ele>1075.5</ele>
        <time>2021-08-13T12:41:08Z</time>
      </trkpt>
      <trkpt lat="46.95975" lon="6.45699">
        <ele>1075.5</ele>
        <time>2021-08-13T12:41:09Z</time>
      </trkpt>
      <trkpt lat="46.95971" lon="6.457">
        <ele>1075.5</ele>
        <time>2021-08-13T12:41:11Z</time>
      </trkpt>
      <trkpt lat="46.95971" lon="6.457">
        <ele>1075.4</ele>
        <time>2021-08-13T12:41:12Z</time>
      </trkpt>
      <trkpt lat="46.95972" lon="6.45704">
        <ele>1075.2</ele>
        <time>2021-08-13T12:41:14Z</time>
      </trkpt>
      <trkpt lat="46.95972" lon="6.45705">
        <ele>1075.2</ele>
        <time>2021-08-13T12:41:16Z</time>
      </trkpt>
      <trkpt lat="46.95972" lon="6.45706">
        <ele>1075.2</ele>
        <time>2021-08-13T12:41:17Z</time>
      </trkpt>
      <trkpt lat="46.95972" lon="6.45706">
        <ele>1075.1</ele>
        <time>2021-08-13T12:41:20Z</time>
      </trkpt>
      <trkpt lat="46.95972" lon="6.45707">
        <ele>1075.1</ele>
        <time>2021-08-13T12:41:21Z</time>
      </trkpt>
      <trkpt lat="46.95972" lon="6.45716">
        <ele>1074.7</ele>
        <time>2021-08-13T12:41:26Z</time>
      </trkpt>
      <trkpt lat="46.95968" lon="6.45722">
        <ele>1074.2</ele>
        <time>2021-08-13T12:41:28Z</time>
      </trkpt>
      <trkpt lat="46.95961" lon="6.4573">
        <ele>1073.5</ele>
        <time>2021-08-13T12:41:30Z</time>
      </trkpt>
      <trkpt lat="46.95957" lon="6.45734">
        <ele>1072.9</ele>
        <time>2021-08-13T12:41:31Z</time>
      </trkpt>
      <trkpt lat="46.9595" lon="6.45737">
        <ele>1072.3</ele>
        <time>2021-08-13T12:41:32Z</time>
      </trkpt>
      <trkpt lat="46.95945" lon="6.45737">
        <ele>1071.8</ele>
        <time>2021-08-13T12:41:34Z</time>
      </trkpt>
      <trkpt lat="46.95941" lon="6.45733">
        <ele>1071.2</ele>
        <time>2021-08-13T12:41:35Z</time>
      </trkpt>
      <trkpt lat="46.95936" lon="6.45724">
        <ele>1070.3</ele>
        <time>2021-08-13T12:41:37Z</time>
      </trkpt>
      <trkpt lat="46.95931" lon="6.45713">
        <ele>1069.4</ele>
        <time>2021-08-13T12:41:38Z</time>
      </trkpt>
      <trkpt lat="46.95924" lon="6.45697">
        <ele>1067.9</ele>
        <time>2021-08-13T12:41:40Z</time>
      </trkpt>
      <trkpt lat="46.95915" lon="6.45679">
        <ele>1066.3</ele>
        <time>2021-08-13T12:41:42Z</time>
      </trkpt>
      <trkpt lat="46.95911" lon="6.4567">
        <ele>1065.6</ele>
        <time>2021-08-13T12:41:43Z</time>
      </trkpt>
      <trkpt lat="46.95907" lon="6.4566">
        <ele>1064.9</ele>
        <time>2021-08-13T12:41:44Z</time>
      </trkpt>
      <trkpt lat="46.959" lon="6.45643">
        <ele>1063.6</ele>
        <time>2021-08-13T12:41:46Z</time>
      </trkpt>
      <trkpt lat="46.95896" lon="6.45635">
        <ele>1062.9</ele>
        <time>2021-08-13T12:41:47Z</time>
      </trkpt>
      <trkpt lat="46.95882" lon="6.45615">
        <ele>1061</ele>
        <time>2021-08-13T12:41:49Z</time>
      </trkpt>
      <trkpt lat="46.9587" lon="6.45594">
        <ele>1059.1</ele>
        <time>2021-08-13T12:41:51Z</time>
      </trkpt>
      <trkpt lat="46.95859" lon="6.45571">
        <ele>1057.3</ele>
        <time>2021-08-13T12:41:53Z</time>
      </trkpt>
      <trkpt lat="46.95855" lon="6.4556">
        <ele>1056.5</ele>
        <time>2021-08-13T12:41:54Z</time>
      </trkpt>
      <trkpt lat="46.95848" lon="6.45535">
        <ele>1054.7</ele>
        <time>2021-08-13T12:41:56Z</time>
      </trkpt>
      <trkpt lat="46.95844" lon="6.45504">
        <ele>1052.6</ele>
        <time>2021-08-13T12:41:58Z</time>
      </trkpt>
      <trkpt lat="46.95841" lon="6.4549">
        <ele>1051.6</ele>
        <time>2021-08-13T12:41:59Z</time>
      </trkpt>
      <trkpt lat="46.95839" lon="6.45475">
        <ele>1050.5</ele>
        <time>2021-08-13T12:42:00Z</time>
      </trkpt>
      <trkpt lat="46.95835" lon="6.45446">
        <ele>1048.8</ele>
        <time>2021-08-13T12:42:02Z</time>
      </trkpt>
      <trkpt lat="46.95831" lon="6.45416">
        <ele>1047.4</ele>
        <time>2021-08-13T12:42:04Z</time>
      </trkpt>
      <trkpt lat="46.9583" lon="6.454">
        <ele>1047.1</ele>
        <time>2021-08-13T12:42:05Z</time>
      </trkpt>
      <trkpt lat="46.95831" lon="6.45384">
        <ele>1047</ele>
        <time>2021-08-13T12:42:06Z</time>
      </trkpt>
      <trkpt lat="46.95836" lon="6.45354">
        <ele>1047.1</ele>
        <time>2021-08-13T12:42:08Z</time>
      </trkpt>
      <trkpt lat="46.95841" lon="6.45338">
        <ele>1047.3</ele>
        <time>2021-08-13T12:42:09Z</time>
      </trkpt>
      <trkpt lat="46.95848" lon="6.45309">
        <ele>1047.7</ele>
        <time>2021-08-13T12:42:11Z</time>
      </trkpt>
      <trkpt lat="46.95849" lon="6.45298">
        <ele>1047.9</ele>
        <time>2021-08-13T12:42:12Z</time>
      </trkpt>
      <trkpt lat="46.95851" lon="6.45288">
        <ele>1048</ele>
        <time>2021-08-13T12:42:13Z</time>
      </trkpt>
      <trkpt lat="46.95854" lon="6.4528">
        <ele>1048.1</ele>
        <time>2021-08-13T12:42:15Z</time>
      </trkpt>
      <trkpt lat="46.9586" lon="6.45267">
        <ele>1048.4</ele>
        <time>2021-08-13T12:42:17Z</time>
      </trkpt>
      <trkpt lat="46.95862" lon="6.45262">
        <ele>1048.5</ele>
        <time>2021-08-13T12:42:18Z</time>
      </trkpt>
      <trkpt lat="46.95865" lon="6.4525">
        <ele>1048.9</ele>
        <time>2021-08-13T12:42:20Z</time>
      </trkpt>
      <trkpt lat="46.95866" lon="6.45249">
        <ele>1048.9</ele>
        <time>2021-08-13T12:42:21Z</time>
      </trkpt>
      <trkpt lat="46.95869" lon="6.4524">
        <ele>1049.2</ele>
        <time>2021-08-13T12:42:23Z</time>
      </trkpt>
      <trkpt lat="46.95868" lon="6.45136">
        <ele>1052.1</ele>
        <time>2021-08-13T12:42:42Z</time>
      </trkpt>
      <trkpt lat="46.95864" lon="6.45117">
        <ele>1051.8</ele>
        <time>2021-08-13T12:42:44Z</time>
      </trkpt>
      <trkpt lat="46.95865" lon="6.45102">
        <ele>1051.3</ele>
        <time>2021-08-13T12:42:45Z</time>
      </trkpt>
      <trkpt lat="46.95868" lon="6.4509">
        <ele>1050.8</ele>
        <time>2021-08-13T12:42:46Z</time>
      </trkpt>
      <trkpt lat="46.95879" lon="6.45076">
        <ele>1049.9</ele>
        <time>2021-08-13T12:42:48Z</time>
      </trkpt>
      <trkpt lat="46.95883" lon="6.4507">
        <ele>1049.6</ele>
        <time>2021-08-13T12:42:49Z</time>
      </trkpt>
      <trkpt lat="46.95888" lon="6.45056">
        <ele>1049</ele>
        <time>2021-08-13T12:42:51Z</time>
      </trkpt>
      <trkpt lat="46.9589" lon="6.4505">
        <ele>1048.7</ele>
        <time>2021-08-13T12:42:52Z</time>
      </trkpt>
      <trkpt lat="46.95894" lon="6.45047">
        <ele>1048.4</ele>
        <time>2021-08-13T12:42:53Z</time>
      </trkpt>
      <trkpt lat="46.95897" lon="6.45046">
        <ele>1048.1</ele>
        <time>2021-08-13T12:42:54Z</time>
      </trkpt>
      <trkpt lat="46.95896" lon="6.45037">
        <ele>1047.6</ele>
        <time>2021-08-13T12:42:56Z</time>
      </trkpt>
      <trkpt lat="46.95892" lon="6.45026">
        <ele>1047.6</ele>
        <time>2021-08-13T12:42:57Z</time>
      </trkpt>
      <trkpt lat="46.95889" lon="6.45021">
        <ele>1047.2</ele>
        <time>2021-08-13T12:42:59Z</time>
      </trkpt>
      <trkpt lat="46.95881" lon="6.45026">
        <ele>1046.3</ele>
        <time>2021-08-13T12:43:00Z</time>
      </trkpt>
      <trkpt lat="46.95867" lon="6.45029">
        <ele>1045.2</ele>
        <time>2021-08-13T12:43:02Z</time>
      </trkpt>
      <trkpt lat="46.95851" lon="6.45023">
        <ele>1044.2</ele>
        <time>2021-08-13T12:43:04Z</time>
      </trkpt>
      <trkpt lat="46.95843" lon="6.45019">
        <ele>1043.9</ele>
        <time>2021-08-13T12:43:05Z</time>
      </trkpt>
      <trkpt lat="46.95828" lon="6.45011">
        <ele>1043.5</ele>
        <time>2021-08-13T12:43:07Z</time>
      </trkpt>
      <trkpt lat="46.9582" lon="6.45007">
        <ele>1043.4</ele>
        <time>2021-08-13T12:43:08Z</time>
      </trkpt>
      <trkpt lat="46.95806" lon="6.44999">
        <ele>1043.4</ele>
        <time>2021-08-13T12:43:10Z</time>
      </trkpt>
      <trkpt lat="46.95798" lon="6.44994">
        <ele>1043.4</ele>
        <time>2021-08-13T12:43:11Z</time>
      </trkpt>
      <trkpt lat="46.95791" lon="6.44989">
        <ele>1043.4</ele>
        <time>2021-08-13T12:43:12Z</time>
      </trkpt>
      <trkpt lat="46.95784" lon="6.44984">
        <ele>1043.3</ele>
        <time>2021-08-13T12:43:13Z</time>
      </trkpt>
      <trkpt lat="46.95772" lon="6.44975">
        <ele>1043.1</ele>
        <time>2021-08-13T12:43:15Z</time>
      </trkpt>
      <trkpt lat="46.95762" lon="6.44965">
        <ele>1042.8</ele>
        <time>2021-08-13T12:43:17Z</time>
      </trkpt>
      <trkpt lat="46.9575" lon="6.44953">
        <ele>1042.4</ele>
        <time>2021-08-13T12:43:19Z</time>
      </trkpt>
      <trkpt lat="46.95738" lon="6.44941">
        <ele>1041.9</ele>
        <time>2021-08-13T12:43:21Z</time>
      </trkpt>
      <trkpt lat="46.95727" lon="6.44929">
        <ele>1041.3</ele>
        <time>2021-08-13T12:43:23Z</time>
      </trkpt>
      <trkpt lat="46.95715" lon="6.4492">
        <ele>1040.8</ele>
        <time>2021-08-13T12:43:25Z</time>
      </trkpt>
      <trkpt lat="46.95709" lon="6.44916">
        <ele>1040.5</ele>
        <time>2021-08-13T12:43:26Z</time>
      </trkpt>
      <trkpt lat="46.95693" lon="6.44911">
        <ele>1039.6</ele>
        <time>2021-08-13T12:43:28Z</time>
      </trkpt>
      <trkpt lat="46.95683" lon="6.44909">
        <ele>1038.9</ele>
        <time>2021-08-13T12:43:29Z</time>
      </trkpt>
      <trkpt lat="46.95672" lon="6.44908">
        <ele>1038.3</ele>
        <time>2021-08-13T12:43:30Z</time>
      </trkpt>
      <trkpt lat="46.95652" lon="6.44903">
        <ele>1037.1</ele>
        <time>2021-08-13T12:43:32Z</time>
      </trkpt>
      <trkpt lat="46.95633" lon="6.44898">
        <ele>1036.3</ele>
        <time>2021-08-13T12:43:34Z</time>
      </trkpt>
      <trkpt lat="46.95625" lon="6.44895">
        <ele>1036</ele>
        <time>2021-08-13T12:43:35Z</time>
      </trkpt>
      <trkpt lat="46.95608" lon="6.44889">
        <ele>1035.5</ele>
        <time>2021-08-13T12:43:37Z</time>
      </trkpt>
      <trkpt lat="46.956" lon="6.44887">
        <ele>1035.3</ele>
        <time>2021-08-13T12:43:38Z</time>
      </trkpt>
      <trkpt lat="46.95587" lon="6.44884">
        <ele>1035.1</ele>
        <time>2021-08-13T12:43:40Z</time>
      </trkpt>
      <trkpt lat="46.9558" lon="6.44882">
        <ele>1035.1</ele>
        <time>2021-08-13T12:43:41Z</time>
      </trkpt>
      <trkpt lat="46.95574" lon="6.44881">
        <ele>1035.2</ele>
        <time>2021-08-13T12:43:42Z</time>
      </trkpt>
      <trkpt lat="46.95568" lon="6.44882">
        <ele>1035.2</ele>
        <time>2021-08-13T12:43:43Z</time>
      </trkpt>
      <trkpt lat="46.95562" lon="6.44883">
        <ele>1035.2</ele>
        <time>2021-08-13T12:43:44Z</time>
      </trkpt>
      <trkpt lat="46.9555" lon="6.44889">
        <ele>1035.2</ele>
        <time>2021-08-13T12:43:46Z</time>
      </trkpt>
      <trkpt lat="46.95544" lon="6.44893">
        <ele>1035.2</ele>
        <time>2021-08-13T12:43:47Z</time>
      </trkpt>
      <trkpt lat="46.95535" lon="6.44904">
        <ele>1035.5</ele>
        <time>2021-08-13T12:43:49Z</time>
      </trkpt>
      <trkpt lat="46.95532" lon="6.44912">
        <ele>1035.7</ele>
        <time>2021-08-13T12:43:50Z</time>
      </trkpt>
      <trkpt lat="46.95529" lon="6.44919">
        <ele>1035.9</ele>
        <time>2021-08-13T12:43:51Z</time>
      </trkpt>
      <trkpt lat="46.95523" lon="6.44935">
        <ele>1036.4</ele>
        <time>2021-08-13T12:43:53Z</time>
      </trkpt>
      <trkpt lat="46.9552" lon="6.44943">
        <ele>1036.7</ele>
        <time>2021-08-13T12:43:54Z</time>
      </trkpt>
      <trkpt lat="46.95517" lon="6.44949">
        <ele>1036.9</ele>
        <time>2021-08-13T12:43:55Z</time>
      </trkpt>
      <trkpt lat="46.95515" lon="6.44956">
        <ele>1037.2</ele>
        <time>2021-08-13T12:43:56Z</time>
      </trkpt>
      <trkpt lat="46.95512" lon="6.44967">
        <ele>1037.6</ele>
        <time>2021-08-13T12:43:58Z</time>
      </trkpt>
      <trkpt lat="46.9551" lon="6.44971">
        <ele>1037.8</ele>
        <time>2021-08-13T12:43:59Z</time>
      </trkpt>
      <trkpt lat="46.95509" lon="6.44973">
        <ele>1037.9</ele>
        <time>2021-08-13T12:44:00Z</time>
      </trkpt>
      <trkpt lat="46.95505" lon="6.44977">
        <ele>1038.2</ele>
        <time>2021-08-13T12:44:02Z</time>
      </trkpt>
      <trkpt lat="46.955" lon="6.44979">
        <ele>1038.6</ele>
        <time>2021-08-13T12:44:04Z</time>
      </trkpt>
      <trkpt lat="46.95493" lon="6.44979">
        <ele>1038.9</ele>
        <time>2021-08-13T12:44:05Z</time>
      </trkpt>
      <trkpt lat="46.95488" lon="6.44979">
        <ele>1039.2</ele>
        <time>2021-08-13T12:44:07Z</time>
      </trkpt>
      <trkpt lat="46.95487" lon="6.44979">
        <ele>1039.2</ele>
        <time>2021-08-13T12:44:08Z</time>
      </trkpt>
      <trkpt lat="46.95486" lon="6.44979">
        <ele>1039.3</ele>
        <time>2021-08-13T12:44:09Z</time>
      </trkpt>
      <trkpt lat="46.95482" lon="6.4498">
        <ele>1039.4</ele>
        <time>2021-08-13T12:44:10Z</time>
      </trkpt>
      <trkpt lat="46.95481" lon="6.4498">
        <ele>1039.5</ele>
        <time>2021-08-13T12:44:11Z</time>
      </trkpt>
      <trkpt lat="46.95478" lon="6.44978">
        <ele>1039.6</ele>
        <time>2021-08-13T12:44:13Z</time>
      </trkpt>
      <trkpt lat="46.95474" lon="6.44977">
        <ele>1039.8</ele>
        <time>2021-08-13T12:44:15Z</time>
      </trkpt>
      <trkpt lat="46.95468" lon="6.44977">
        <ele>1040.1</ele>
        <time>2021-08-13T12:44:16Z</time>
      </trkpt>
      <trkpt lat="46.95463" lon="6.44974">
        <ele>1040.3</ele>
        <time>2021-08-13T12:44:18Z</time>
      </trkpt>
      <trkpt lat="46.95459" lon="6.44972">
        <ele>1040.5</ele>
        <time>2021-08-13T12:44:20Z</time>
      </trkpt>
      <trkpt lat="46.95456" lon="6.44969">
        <ele>1040.6</ele>
        <time>2021-08-13T12:44:21Z</time>
      </trkpt>
      <trkpt lat="46.95453" lon="6.44964">
        <ele>1040.8</ele>
        <time>2021-08-13T12:44:23Z</time>
      </trkpt>
      <trkpt lat="46.9545" lon="6.44962">
        <ele>1041</ele>
        <time>2021-08-13T12:44:24Z</time>
      </trkpt>
      <trkpt lat="46.95446" lon="6.44958">
        <ele>1041.2</ele>
        <time>2021-08-13T12:44:26Z</time>
      </trkpt>
      <trkpt lat="46.95443" lon="6.44954">
        <ele>1041.3</ele>
        <time>2021-08-13T12:44:28Z</time>
      </trkpt>
      <trkpt lat="46.9544" lon="6.44952">
        <ele>1041.5</ele>
        <time>2021-08-13T12:44:29Z</time>
      </trkpt>
      <trkpt lat="46.95436" lon="6.4495">
        <ele>1041.6</ele>
        <time>2021-08-13T12:44:31Z</time>
      </trkpt>
      <trkpt lat="46.95432" lon="6.44949">
        <ele>1041.8</ele>
        <time>2021-08-13T12:44:32Z</time>
      </trkpt>
      <trkpt lat="46.95427" lon="6.44949">
        <ele>1042</ele>
        <time>2021-08-13T12:44:34Z</time>
      </trkpt>
      <trkpt lat="46.95426" lon="6.44949">
        <ele>1042.1</ele>
        <time>2021-08-13T12:44:35Z</time>
      </trkpt>
      <trkpt lat="46.95424" lon="6.44949">
        <ele>1042.2</ele>
        <time>2021-08-13T12:44:36Z</time>
      </trkpt>
      <trkpt lat="46.95421" lon="6.44949">
        <ele>1042.3</ele>
        <time>2021-08-13T12:44:38Z</time>
      </trkpt>
      <trkpt lat="46.95419" lon="6.44949">
        <ele>1042.4</ele>
        <time>2021-08-13T12:44:39Z</time>
      </trkpt>
      <trkpt lat="46.95416" lon="6.44949">
        <ele>1042.6</ele>
        <time>2021-08-13T12:44:41Z</time>
      </trkpt>
      <trkpt lat="46.95413" lon="6.4495">
        <ele>1042.7</ele>
        <time>2021-08-13T12:44:42Z</time>
      </trkpt>
      <trkpt lat="46.95412" lon="6.4495">
        <ele>1042.8</ele>
        <time>2021-08-13T12:44:43Z</time>
      </trkpt>
      <trkpt lat="46.95409" lon="6.44952">
        <ele>1043</ele>
        <time>2021-08-13T12:44:44Z</time>
      </trkpt>
      <trkpt lat="46.95405" lon="6.44955">
        <ele>1043.2</ele>
        <time>2021-08-13T12:44:46Z</time>
      </trkpt>
      <trkpt lat="46.95403" lon="6.44955">
        <ele>1043.3</ele>
        <time>2021-08-13T12:44:47Z</time>
      </trkpt>
      <trkpt lat="46.95402" lon="6.44956">
        <ele>1043.3</ele>
        <time>2021-08-13T12:44:48Z</time>
      </trkpt>
      <trkpt lat="46.954" lon="6.44957">
        <ele>1043.4</ele>
        <time>2021-08-13T12:44:49Z</time>
      </trkpt>
      <trkpt lat="46.95396" lon="6.44957">
        <ele>1043.7</ele>
        <time>2021-08-13T12:44:51Z</time>
      </trkpt>
      <trkpt lat="46.95392" lon="6.44957">
        <ele>1043.9</ele>
        <time>2021-08-13T12:44:52Z</time>
      </trkpt>
      <trkpt lat="46.95389" lon="6.4496">
        <ele>1044.1</ele>
        <time>2021-08-13T12:44:54Z</time>
      </trkpt>
      <trkpt lat="46.95387" lon="6.44963">
        <ele>1044.2</ele>
        <time>2021-08-13T12:44:55Z</time>
      </trkpt>
      <trkpt lat="46.95386" lon="6.44964">
        <ele>1044.3</ele>
        <time>2021-08-13T12:44:56Z</time>
      </trkpt>
      <trkpt lat="46.95382" lon="6.44967">
        <ele>1044.5</ele>
        <time>2021-08-13T12:44:57Z</time>
      </trkpt>
      <trkpt lat="46.95379" lon="6.44968">
        <ele>1044.7</ele>
        <time>2021-08-13T12:44:59Z</time>
      </trkpt>
      <trkpt lat="46.95374" lon="6.44971">
        <ele>1045</ele>
        <time>2021-08-13T12:45:01Z</time>
      </trkpt>
      <trkpt lat="46.95369" lon="6.44969">
        <ele>1045.3</ele>
        <time>2021-08-13T12:45:02Z</time>
      </trkpt>
      <trkpt lat="46.95363" lon="6.44964">
        <ele>1045.6</ele>
        <time>2021-08-13T12:45:04Z</time>
      </trkpt>
      <trkpt lat="46.9536" lon="6.44962">
        <ele>1045.8</ele>
        <time>2021-08-13T12:45:06Z</time>
      </trkpt>
      <trkpt lat="46.95356" lon="6.44958">
        <ele>1046.1</ele>
        <time>2021-08-13T12:45:07Z</time>
      </trkpt>
      <trkpt lat="46.95354" lon="6.44954">
        <ele>1046.3</ele>
        <time>2021-08-13T12:45:09Z</time>
      </trkpt>
      <trkpt lat="46.95351" lon="6.44951">
        <ele>1046.5</ele>
        <time>2021-08-13T12:45:10Z</time>
      </trkpt>
      <trkpt lat="46.9535" lon="6.4495">
        <ele>1046.5</ele>
        <time>2021-08-13T12:45:11Z</time>
      </trkpt>
      <trkpt lat="46.95347" lon="6.44948">
        <ele>1046.7</ele>
        <time>2021-08-13T12:45:12Z</time>
      </trkpt>
      <trkpt lat="46.95344" lon="6.44947">
        <ele>1046.9</ele>
        <time>2021-08-13T12:45:13Z</time>
      </trkpt>
      <trkpt lat="46.9534" lon="6.44947">
        <ele>1047.1</ele>
        <time>2021-08-13T12:45:15Z</time>
      </trkpt>
      <trkpt lat="46.95338" lon="6.44949">
        <ele>1047.2</ele>
        <time>2021-08-13T12:45:16Z</time>
      </trkpt>
      <trkpt lat="46.95334" lon="6.4495">
        <ele>1047.5</ele>
        <time>2021-08-13T12:45:18Z</time>
      </trkpt>
      <trkpt lat="46.95331" lon="6.44952">
        <ele>1047.7</ele>
        <time>2021-08-13T12:45:20Z</time>
      </trkpt>
      <trkpt lat="46.95327" lon="6.44955">
        <ele>1047.9</ele>
        <time>2021-08-13T12:45:22Z</time>
      </trkpt>
      <trkpt lat="46.95323" lon="6.44957">
        <ele>1048.2</ele>
        <time>2021-08-13T12:45:24Z</time>
      </trkpt>
      <trkpt lat="46.95319" lon="6.4496">
        <ele>1048.4</ele>
        <time>2021-08-13T12:45:25Z</time>
      </trkpt>
      <trkpt lat="46.95317" lon="6.44964">
        <ele>1048.6</ele>
        <time>2021-08-13T12:45:26Z</time>
      </trkpt>
      <trkpt lat="46.95314" lon="6.44966">
        <ele>1048.7</ele>
        <time>2021-08-13T12:45:28Z</time>
      </trkpt>
      <trkpt lat="46.95312" lon="6.44967">
        <ele>1048.9</ele>
        <time>2021-08-13T12:45:29Z</time>
      </trkpt>
      <trkpt lat="46.95308" lon="6.44968">
        <ele>1049.1</ele>
        <time>2021-08-13T12:45:31Z</time>
      </trkpt>
      <trkpt lat="46.95305" lon="6.44969">
        <ele>1049.2</ele>
        <time>2021-08-13T12:45:32Z</time>
      </trkpt>
      <trkpt lat="46.95301" lon="6.44973">
        <ele>1049.4</ele>
        <time>2021-08-13T12:45:33Z</time>
      </trkpt>
      <trkpt lat="46.95299" lon="6.44975">
        <ele>1049.5</ele>
        <time>2021-08-13T12:45:34Z</time>
      </trkpt>
      <trkpt lat="46.95297" lon="6.44977">
        <ele>1049.6</ele>
        <time>2021-08-13T12:45:36Z</time>
      </trkpt>
      <trkpt lat="46.95294" lon="6.44978">
        <ele>1049.7</ele>
        <time>2021-08-13T12:45:37Z</time>
      </trkpt>
      <trkpt lat="46.95292" lon="6.44979">
        <ele>1049.8</ele>
        <time>2021-08-13T12:45:39Z</time>
      </trkpt>
      <trkpt lat="46.95289" lon="6.4498">
        <ele>1049.9</ele>
        <time>2021-08-13T12:45:40Z</time>
      </trkpt>
      <trkpt lat="46.95285" lon="6.44982">
        <ele>1050</ele>
        <time>2021-08-13T12:45:41Z</time>
      </trkpt>
      <trkpt lat="46.95284" lon="6.44983">
        <ele>1050.1</ele>
        <time>2021-08-13T12:45:42Z</time>
      </trkpt>
      <trkpt lat="46.95282" lon="6.44984">
        <ele>1050.2</ele>
        <time>2021-08-13T12:45:44Z</time>
      </trkpt>
      <trkpt lat="46.95278" lon="6.44986">
        <ele>1050.2</ele>
        <time>2021-08-13T12:45:46Z</time>
      </trkpt>
      <trkpt lat="46.95274" lon="6.44987">
        <ele>1050.3</ele>
        <time>2021-08-13T12:45:47Z</time>
      </trkpt>
      <trkpt lat="46.95273" lon="6.44988">
        <ele>1050.3</ele>
        <time>2021-08-13T12:45:48Z</time>
      </trkpt>
      <trkpt lat="46.95269" lon="6.44987">
        <ele>1050.3</ele>
        <time>2021-08-13T12:45:49Z</time>
      </trkpt>
      <trkpt lat="46.95267" lon="6.44987">
        <ele>1050.3</ele>
        <time>2021-08-13T12:45:50Z</time>
      </trkpt>
      <trkpt lat="46.95264" lon="6.44984">
        <ele>1050.3</ele>
        <time>2021-08-13T12:45:52Z</time>
      </trkpt>
      <trkpt lat="46.95262" lon="6.44982">
        <ele>1050.2</ele>
        <time>2021-08-13T12:45:53Z</time>
      </trkpt>
      <trkpt lat="46.95258" lon="6.44979">
        <ele>1050.1</ele>
        <time>2021-08-13T12:45:54Z</time>
      </trkpt>
      <trkpt lat="46.95254" lon="6.44976">
        <ele>1050</ele>
        <time>2021-08-13T12:45:55Z</time>
      </trkpt>
      <trkpt lat="46.95251" lon="6.44974">
        <ele>1049.9</ele>
        <time>2021-08-13T12:45:56Z</time>
      </trkpt>
      <trkpt lat="46.95249" lon="6.44974">
        <ele>1049.9</ele>
        <time>2021-08-13T12:45:57Z</time>
      </trkpt>
      <trkpt lat="46.95246" lon="6.44974">
        <ele>1049.7</ele>
        <time>2021-08-13T12:45:59Z</time>
      </trkpt>
      <trkpt lat="46.95245" lon="6.44974">
        <ele>1049.7</ele>
        <time>2021-08-13T12:46:00Z</time>
      </trkpt>
      <trkpt lat="46.95244" lon="6.44974">
        <ele>1049.6</ele>
        <time>2021-08-13T12:46:01Z</time>
      </trkpt>
      <trkpt lat="46.95243" lon="6.44974">
        <ele>1049.6</ele>
        <time>2021-08-13T12:46:02Z</time>
      </trkpt>
      <trkpt lat="46.95242" lon="6.44975">
        <ele>1049.5</ele>
        <time>2021-08-13T12:46:03Z</time>
      </trkpt>
      <trkpt lat="46.9524" lon="6.44976">
        <ele>1049.4</ele>
        <time>2021-08-13T12:46:05Z</time>
      </trkpt>
      <trkpt lat="46.9524" lon="6.44976">
        <ele>1049.4</ele>
        <time>2021-08-13T12:46:06Z</time>
      </trkpt>
      <trkpt lat="46.9524" lon="6.44973">
        <ele>1049.3</ele>
        <time>2021-08-13T12:46:08Z</time>
      </trkpt>
      <trkpt lat="46.9524" lon="6.44973">
        <ele>1049.3</ele>
        <time>2021-08-13T12:46:09Z</time>
      </trkpt>
      <trkpt lat="46.9524" lon="6.44973">
        <ele>1049.3</ele>
        <time>2021-08-13T12:46:11Z</time>
      </trkpt>
      <trkpt lat="46.9524" lon="6.44973">
        <ele>1049.3</ele>
        <time>2021-08-13T12:46:12Z</time>
      </trkpt>
      <trkpt lat="46.9524" lon="6.44972">
        <ele>1049.3</ele>
        <time>2021-08-13T12:46:13Z</time>
      </trkpt>
      <trkpt lat="46.9524" lon="6.44973">
        <ele>1049.3</ele>
        <time>2021-08-13T12:46:15Z</time>
      </trkpt>
      <trkpt lat="46.95215" lon="6.44911">
        <ele>1046.2</ele>
        <time>2021-08-13T12:47:03Z</time>
      </trkpt>
      <trkpt lat="46.95211" lon="6.44904">
        <ele>1046</ele>
        <time>2021-08-13T12:47:05Z</time>
      </trkpt>
      <trkpt lat="46.95209" lon="6.44899">
        <ele>1045.9</ele>
        <time>2021-08-13T12:47:06Z</time>
      </trkpt>
      <trkpt lat="46.95207" lon="6.44892">
        <ele>1045.7</ele>
        <time>2021-08-13T12:47:07Z</time>
      </trkpt>
      <trkpt lat="46.95206" lon="6.44887">
        <ele>1045.6</ele>
        <time>2021-08-13T12:47:08Z</time>
      </trkpt>
      <trkpt lat="46.95205" lon="6.44881">
        <ele>1045.5</ele>
        <time>2021-08-13T12:47:10Z</time>
      </trkpt>
      <trkpt lat="46.95203" lon="6.44878">
        <ele>1045.4</ele>
        <time>2021-08-13T12:47:11Z</time>
      </trkpt>
      <trkpt lat="46.95202" lon="6.44877">
        <ele>1045.4</ele>
        <time>2021-08-13T12:47:12Z</time>
      </trkpt>
      <trkpt lat="46.952" lon="6.44874">
        <ele>1045.3</ele>
        <time>2021-08-13T12:47:13Z</time>
      </trkpt>
      <trkpt lat="46.95199" lon="6.44873">
        <ele>1045.3</ele>
        <time>2021-08-13T12:47:15Z</time>
      </trkpt>
      <trkpt lat="46.95198" lon="6.44871">
        <ele>1045.2</ele>
        <time>2021-08-13T12:47:16Z</time>
      </trkpt>
      <trkpt lat="46.95198" lon="6.4487">
        <ele>1045.2</ele>
        <time>2021-08-13T12:47:17Z</time>
      </trkpt>
      <trkpt lat="46.95197" lon="6.44869">
        <ele>1045.2</ele>
        <time>2021-08-13T12:47:18Z</time>
      </trkpt>
      <trkpt lat="46.95193" lon="6.44864">
        <ele>1045</ele>
        <time>2021-08-13T12:47:19Z</time>
      </trkpt>
      <trkpt lat="46.95191" lon="6.44861">
        <ele>1044.9</ele>
        <time>2021-08-13T12:47:20Z</time>
      </trkpt>
      <trkpt lat="46.95187" lon="6.44855">
        <ele>1044.7</ele>
        <time>2021-08-13T12:47:22Z</time>
      </trkpt>
      <trkpt lat="46.95184" lon="6.44852">
        <ele>1044.6</ele>
        <time>2021-08-13T12:47:23Z</time>
      </trkpt>
      <trkpt lat="46.95182" lon="6.44848">
        <ele>1044.6</ele>
        <time>2021-08-13T12:47:24Z</time>
      </trkpt>
      <trkpt lat="46.95178" lon="6.44843">
        <ele>1044.5</ele>
        <time>2021-08-13T12:47:25Z</time>
      </trkpt>
      <trkpt lat="46.95175" lon="6.44838">
        <ele>1044.4</ele>
        <time>2021-08-13T12:47:26Z</time>
      </trkpt>
      <trkpt lat="46.95172" lon="6.44832">
        <ele>1044.4</ele>
        <time>2021-08-13T12:47:28Z</time>
      </trkpt>
      <trkpt lat="46.95168" lon="6.44825">
        <ele>1044.3</ele>
        <time>2021-08-13T12:47:29Z</time>
      </trkpt>
      <trkpt lat="46.95164" lon="6.44819">
        <ele>1044.3</ele>
        <time>2021-08-13T12:47:30Z</time>
      </trkpt>
      <trkpt lat="46.95157" lon="6.44808">
        <ele>1044.1</ele>
        <time>2021-08-13T12:47:32Z</time>
      </trkpt>
      <trkpt lat="46.95153" lon="6.448">
        <ele>1044</ele>
        <time>2021-08-13T12:47:33Z</time>
      </trkpt>
      <trkpt lat="46.9515" lon="6.44793">
        <ele>1043.9</ele>
        <time>2021-08-13T12:47:35Z</time>
      </trkpt>
      <trkpt lat="46.95147" lon="6.44788">
        <ele>1043.9</ele>
        <time>2021-08-13T12:47:36Z</time>
      </trkpt>
      <trkpt lat="46.95141" lon="6.44778">
        <ele>1043.8</ele>
        <time>2021-08-13T12:47:37Z</time>
      </trkpt>
      <trkpt lat="46.95138" lon="6.44772">
        <ele>1043.8</ele>
        <time>2021-08-13T12:47:38Z</time>
      </trkpt>
      <trkpt lat="46.95135" lon="6.44765">
        <ele>1043.8</ele>
        <time>2021-08-13T12:47:40Z</time>
      </trkpt>
      <trkpt lat="46.95131" lon="6.44756">
        <ele>1043.9</ele>
        <time>2021-08-13T12:47:42Z</time>
      </trkpt>
      <trkpt lat="46.95129" lon="6.44753">
        <ele>1043.9</ele>
        <time>2021-08-13T12:47:43Z</time>
      </trkpt>
      <trkpt lat="46.95126" lon="6.44748">
        <ele>1044</ele>
        <time>2021-08-13T12:47:44Z</time>
      </trkpt>
      <trkpt lat="46.95124" lon="6.44743">
        <ele>1044</ele>
        <time>2021-08-13T12:47:45Z</time>
      </trkpt>
      <trkpt lat="46.95122" lon="6.44738">
        <ele>1044.1</ele>
        <time>2021-08-13T12:47:47Z</time>
      </trkpt>
      <trkpt lat="46.95121" lon="6.44733">
        <ele>1044.1</ele>
        <time>2021-08-13T12:47:48Z</time>
      </trkpt>
      <trkpt lat="46.9512" lon="6.44726">
        <ele>1044.1</ele>
        <time>2021-08-13T12:47:50Z</time>
      </trkpt>
      <trkpt lat="46.9512" lon="6.44723">
        <ele>1044</ele>
        <time>2021-08-13T12:47:51Z</time>
      </trkpt>
      <trkpt lat="46.95119" lon="6.4472">
        <ele>1044</ele>
        <time>2021-08-13T12:47:53Z</time>
      </trkpt>
      <trkpt lat="46.95118" lon="6.44718">
        <ele>1044</ele>
        <time>2021-08-13T12:47:54Z</time>
      </trkpt>
      <trkpt lat="46.95118" lon="6.44715">
        <ele>1043.9</ele>
        <time>2021-08-13T12:47:56Z</time>
      </trkpt>
      <trkpt lat="46.95117" lon="6.44712">
        <ele>1043.8</ele>
        <time>2021-08-13T12:47:57Z</time>
      </trkpt>
      <trkpt lat="46.95117" lon="6.44709">
        <ele>1043.8</ele>
        <time>2021-08-13T12:47:59Z</time>
      </trkpt>
      <trkpt lat="46.95116" lon="6.44706">
        <ele>1043.7</ele>
        <time>2021-08-13T12:48:00Z</time>
      </trkpt>
      <trkpt lat="46.95115" lon="6.44703">
        <ele>1043.7</ele>
        <time>2021-08-13T12:48:01Z</time>
      </trkpt>
      <trkpt lat="46.95115" lon="6.447">
        <ele>1043.6</ele>
        <time>2021-08-13T12:48:22Z</time>
      </trkpt>
      <trkpt lat="46.95114" lon="6.44697">
        <ele>1043.6</ele>
        <time>2021-08-13T12:48:23Z</time>
      </trkpt>
      <trkpt lat="46.95109" lon="6.44686">
        <ele>1043.5</ele>
        <time>2021-08-13T12:48:25Z</time>
      </trkpt>
      <trkpt lat="46.95105" lon="6.44678">
        <ele>1043.5</ele>
        <time>2021-08-13T12:48:26Z</time>
      </trkpt>
      <trkpt lat="46.95103" lon="6.44672">
        <ele>1043.5</ele>
        <time>2021-08-13T12:48:27Z</time>
      </trkpt>
      <trkpt lat="46.951" lon="6.44663">
        <ele>1043.5</ele>
        <time>2021-08-13T12:48:28Z</time>
      </trkpt>
      <trkpt lat="46.95098" lon="6.44657">
        <ele>1043.5</ele>
        <time>2021-08-13T12:48:30Z</time>
      </trkpt>
      <trkpt lat="46.95097" lon="6.44652">
        <ele>1043.5</ele>
        <time>2021-08-13T12:48:31Z</time>
      </trkpt>
      <trkpt lat="46.95098" lon="6.44647">
        <ele>1043.4</ele>
        <time>2021-08-13T12:48:32Z</time>
      </trkpt>
      <trkpt lat="46.951" lon="6.44638">
        <ele>1043.4</ele>
        <time>2021-08-13T12:48:33Z</time>
      </trkpt>
      <trkpt lat="46.95102" lon="6.44632">
        <ele>1043.4</ele>
        <time>2021-08-13T12:48:35Z</time>
      </trkpt>
      <trkpt lat="46.95104" lon="6.44627">
        <ele>1043.4</ele>
        <time>2021-08-13T12:48:36Z</time>
      </trkpt>
      <trkpt lat="46.95107" lon="6.44623">
        <ele>1043.4</ele>
        <time>2021-08-13T12:48:37Z</time>
      </trkpt>
      <trkpt lat="46.95109" lon="6.44618">
        <ele>1043.4</ele>
        <time>2021-08-13T12:48:38Z</time>
      </trkpt>
      <trkpt lat="46.95113" lon="6.4461">
        <ele>1043.4</ele>
        <time>2021-08-13T12:48:39Z</time>
      </trkpt>
      <trkpt lat="46.95115" lon="6.44595">
        <ele>1043.4</ele>
        <time>2021-08-13T12:48:41Z</time>
      </trkpt>
      <trkpt lat="46.95114" lon="6.44588">
        <ele>1043.8</ele>
        <time>2021-08-13T12:48:42Z</time>
      </trkpt>
      <trkpt lat="46.95112" lon="6.44581">
        <ele>1044</ele>
        <time>2021-08-13T12:48:43Z</time>
      </trkpt>
      <trkpt lat="46.9511" lon="6.44574">
        <ele>1044.3</ele>
        <time>2021-08-13T12:48:45Z</time>
      </trkpt>
      <trkpt lat="46.95108" lon="6.44568">
        <ele>1044.5</ele>
        <time>2021-08-13T12:48:46Z</time>
      </trkpt>
      <trkpt lat="46.95107" lon="6.44563">
        <ele>1044.7</ele>
        <time>2021-08-13T12:48:48Z</time>
      </trkpt>
      <trkpt lat="46.95106" lon="6.44562">
        <ele>1044.7</ele>
        <time>2021-08-13T12:48:49Z</time>
      </trkpt>
      <trkpt lat="46.95103" lon="6.4456">
        <ele>1044.9</ele>
        <time>2021-08-13T12:48:50Z</time>
      </trkpt>
      <trkpt lat="46.95101" lon="6.44551">
        <ele>1045</ele>
        <time>2021-08-13T12:48:53Z</time>
      </trkpt>
      <trkpt lat="46.95101" lon="6.44549">
        <ele>1045</ele>
        <time>2021-08-13T12:48:54Z</time>
      </trkpt>
      <trkpt lat="46.951" lon="6.44546">
        <ele>1045.1</ele>
        <time>2021-08-13T12:48:55Z</time>
      </trkpt>
      <trkpt lat="46.95099" lon="6.44542">
        <ele>1045.1</ele>
        <time>2021-08-13T12:48:56Z</time>
      </trkpt>
      <trkpt lat="46.95098" lon="6.44538">
        <ele>1045.1</ele>
        <time>2021-08-13T12:48:57Z</time>
      </trkpt>
      <trkpt lat="46.95096" lon="6.44535">
        <ele>1045.1</ele>
        <time>2021-08-13T12:48:59Z</time>
      </trkpt>
      <trkpt lat="46.95095" lon="6.4453">
        <ele>1045</ele>
        <time>2021-08-13T12:49:01Z</time>
      </trkpt>
      <trkpt lat="46.95092" lon="6.44526">
        <ele>1044.9</ele>
        <time>2021-08-13T12:49:02Z</time>
      </trkpt>
      <trkpt lat="46.95092" lon="6.44524">
        <ele>1044.9</ele>
        <time>2021-08-13T12:49:03Z</time>
      </trkpt>
      <trkpt lat="46.95091" lon="6.4452">
        <ele>1044.8</ele>
        <time>2021-08-13T12:49:04Z</time>
      </trkpt>
      <trkpt lat="46.95089" lon="6.44514">
        <ele>1044.6</ele>
        <time>2021-08-13T12:49:05Z</time>
      </trkpt>
      <trkpt lat="46.95087" lon="6.44507">
        <ele>1044.4</ele>
        <time>2021-08-13T12:49:06Z</time>
      </trkpt>
      <trkpt lat="46.95084" lon="6.445">
        <ele>1044.1</ele>
        <time>2021-08-13T12:49:07Z</time>
      </trkpt>
      <trkpt lat="46.95079" lon="6.44492">
        <ele>1043.6</ele>
        <time>2021-08-13T12:49:09Z</time>
      </trkpt>
      <trkpt lat="46.95074" lon="6.44487">
        <ele>1043.2</ele>
        <time>2021-08-13T12:49:10Z</time>
      </trkpt>
      <trkpt lat="46.95065" lon="6.44475">
        <ele>1042.5</ele>
        <time>2021-08-13T12:49:12Z</time>
      </trkpt>
      <trkpt lat="46.9506" lon="6.44468">
        <ele>1042.1</ele>
        <time>2021-08-13T12:49:13Z</time>
      </trkpt>
      <trkpt lat="46.9505" lon="6.44453">
        <ele>1041.2</ele>
        <time>2021-08-13T12:49:15Z</time>
      </trkpt>
      <trkpt lat="46.95044" lon="6.44438">
        <ele>1040.4</ele>
        <time>2021-08-13T12:49:17Z</time>
      </trkpt>
      <trkpt lat="46.95033" lon="6.44423">
        <ele>1039.5</ele>
        <time>2021-08-13T12:49:19Z</time>
      </trkpt>
      <trkpt lat="46.95028" lon="6.44416">
        <ele>1039.1</ele>
        <time>2021-08-13T12:49:20Z</time>
      </trkpt>
      <trkpt lat="46.95019" lon="6.444">
        <ele>1038.6</ele>
        <time>2021-08-13T12:49:22Z</time>
      </trkpt>
      <trkpt lat="46.95016" lon="6.44393">
        <ele>1038.5</ele>
        <time>2021-08-13T12:49:23Z</time>
      </trkpt>
      <trkpt lat="46.95009" lon="6.44377">
        <ele>1038.5</ele>
        <time>2021-08-13T12:49:25Z</time>
      </trkpt>
      <trkpt lat="46.95005" lon="6.4437">
        <ele>1038.6</ele>
        <time>2021-08-13T12:49:26Z</time>
      </trkpt>
      <trkpt lat="46.95" lon="6.44356">
        <ele>1038.7</ele>
        <time>2021-08-13T12:49:28Z</time>
      </trkpt>
      <trkpt lat="46.94994" lon="6.44342">
        <ele>1038.9</ele>
        <time>2021-08-13T12:49:30Z</time>
      </trkpt>
      <trkpt lat="46.94992" lon="6.44329">
        <ele>1039</ele>
        <time>2021-08-13T12:49:32Z</time>
      </trkpt>
      <trkpt lat="46.94991" lon="6.44315">
        <ele>1039.1</ele>
        <time>2021-08-13T12:49:34Z</time>
      </trkpt>
      <trkpt lat="46.94993" lon="6.44303">
        <ele>1039</ele>
        <time>2021-08-13T12:49:36Z</time>
      </trkpt>
      <trkpt lat="46.94995" lon="6.44299">
        <ele>1039</ele>
        <time>2021-08-13T12:49:37Z</time>
      </trkpt>
      <trkpt lat="46.95003" lon="6.44287">
        <ele>1038.8</ele>
        <time>2021-08-13T12:49:39Z</time>
      </trkpt>
      <trkpt lat="46.9501" lon="6.44275">
        <ele>1038.5</ele>
        <time>2021-08-13T12:49:41Z</time>
      </trkpt>
      <trkpt lat="46.95017" lon="6.44263">
        <ele>1038.2</ele>
        <time>2021-08-13T12:49:43Z</time>
      </trkpt>
      <trkpt lat="46.95024" lon="6.44253">
        <ele>1038</ele>
        <time>2021-08-13T12:49:45Z</time>
      </trkpt>
      <trkpt lat="46.95027" lon="6.44248">
        <ele>1037.9</ele>
        <time>2021-08-13T12:49:46Z</time>
      </trkpt>
      <trkpt lat="46.95035" lon="6.44237">
        <ele>1037.7</ele>
        <time>2021-08-13T12:49:48Z</time>
      </trkpt>
      <trkpt lat="46.95039" lon="6.44233">
        <ele>1037.6</ele>
        <time>2021-08-13T12:49:49Z</time>
      </trkpt>
      <trkpt lat="46.95043" lon="6.44229">
        <ele>1037.4</ele>
        <time>2021-08-13T12:49:50Z</time>
      </trkpt>
      <trkpt lat="46.95053" lon="6.44218">
        <ele>1037.1</ele>
        <time>2021-08-13T12:49:52Z</time>
      </trkpt>
      <trkpt lat="46.95058" lon="6.44211">
        <ele>1036.9</ele>
        <time>2021-08-13T12:49:53Z</time>
      </trkpt>
      <trkpt lat="46.95062" lon="6.44204">
        <ele>1036.7</ele>
        <time>2021-08-13T12:49:54Z</time>
      </trkpt>
      <trkpt lat="46.95073" lon="6.44191">
        <ele>1036.5</ele>
        <time>2021-08-13T12:49:56Z</time>
      </trkpt>
      <trkpt lat="46.95077" lon="6.44182">
        <ele>1036.4</ele>
        <time>2021-08-13T12:49:58Z</time>
      </trkpt>
      <trkpt lat="46.95079" lon="6.44177">
        <ele>1036.4</ele>
        <time>2021-08-13T12:49:59Z</time>
      </trkpt>
      <trkpt lat="46.95081" lon="6.4417">
        <ele>1036.3</ele>
        <time>2021-08-13T12:50:01Z</time>
      </trkpt>
      <trkpt lat="46.95085" lon="6.44166">
        <ele>1036.3</ele>
        <time>2021-08-13T12:50:02Z</time>
      </trkpt>
      <trkpt lat="46.95094" lon="6.44155">
        <ele>1036.1</ele>
        <time>2021-08-13T12:50:04Z</time>
      </trkpt>
      <trkpt lat="46.95098" lon="6.44148">
        <ele>1036</ele>
        <time>2021-08-13T12:50:05Z</time>
      </trkpt>
      <trkpt lat="46.95102" lon="6.44141">
        <ele>1035.8</ele>
        <time>2021-08-13T12:50:06Z</time>
      </trkpt>
      <trkpt lat="46.95105" lon="6.44134">
        <ele>1035.5</ele>
        <time>2021-08-13T12:50:07Z</time>
      </trkpt>
      <trkpt lat="46.95107" lon="6.44125">
        <ele>1035.3</ele>
        <time>2021-08-13T12:50:08Z</time>
      </trkpt>
      <trkpt lat="46.95108" lon="6.44118">
        <ele>1035</ele>
        <time>2021-08-13T12:50:09Z</time>
      </trkpt>
      <trkpt lat="46.95106" lon="6.44113">
        <ele>1034.8</ele>
        <time>2021-08-13T12:50:10Z</time>
      </trkpt>
      <trkpt lat="46.95104" lon="6.44103">
        <ele>1034.6</ele>
        <time>2021-08-13T12:50:12Z</time>
      </trkpt>
      <trkpt lat="46.95102" lon="6.44093">
        <ele>1034.3</ele>
        <time>2021-08-13T12:50:14Z</time>
      </trkpt>
      <trkpt lat="46.95105" lon="6.44081">
        <ele>1034.1</ele>
        <time>2021-08-13T12:50:16Z</time>
      </trkpt>
      <trkpt lat="46.95106" lon="6.44076">
        <ele>1034</ele>
        <time>2021-08-13T12:50:17Z</time>
      </trkpt>
      <trkpt lat="46.95106" lon="6.44074">
        <ele>1034</ele>
        <time>2021-08-13T12:50:18Z</time>
      </trkpt>
      <trkpt lat="46.95112" lon="6.44063">
        <ele>1033.9</ele>
        <time>2021-08-13T12:50:20Z</time>
      </trkpt>
      <trkpt lat="46.95116" lon="6.44056">
        <ele>1033.9</ele>
        <time>2021-08-13T12:50:21Z</time>
      </trkpt>
      <trkpt lat="46.95119" lon="6.4405">
        <ele>1034</ele>
        <time>2021-08-13T12:50:22Z</time>
      </trkpt>
      <trkpt lat="46.95122" lon="6.44043">
        <ele>1034</ele>
        <time>2021-08-13T12:50:24Z</time>
      </trkpt>
      <trkpt lat="46.95125" lon="6.44037">
        <ele>1034</ele>
        <time>2021-08-13T12:50:25Z</time>
      </trkpt>
      <trkpt lat="46.95128" lon="6.44032">
        <ele>1034.1</ele>
        <time>2021-08-13T12:50:26Z</time>
      </trkpt>
      <trkpt lat="46.9513" lon="6.44026">
        <ele>1034.2</ele>
        <time>2021-08-13T12:50:27Z</time>
      </trkpt>
      <trkpt lat="46.95134" lon="6.44017">
        <ele>1034.3</ele>
        <time>2021-08-13T12:50:29Z</time>
      </trkpt>
      <trkpt lat="46.95136" lon="6.44009">
        <ele>1034.4</ele>
        <time>2021-08-13T12:50:30Z</time>
      </trkpt>
      <trkpt lat="46.95137" lon="6.44002">
        <ele>1034.6</ele>
        <time>2021-08-13T12:50:32Z</time>
      </trkpt>
      <trkpt lat="46.95136" lon="6.43998">
        <ele>1034.7</ele>
        <time>2021-08-13T12:50:33Z</time>
      </trkpt>
      <trkpt lat="46.95135" lon="6.43996">
        <ele>1034.7</ele>
        <time>2021-08-13T12:50:34Z</time>
      </trkpt>
      <trkpt lat="46.95134" lon="6.43996">
        <ele>1034.8</ele>
        <time>2021-08-13T12:50:35Z</time>
      </trkpt>
      <trkpt lat="46.95132" lon="6.43995">
        <ele>1034.8</ele>
        <time>2021-08-13T12:50:36Z</time>
      </trkpt>
      <trkpt lat="46.95131" lon="6.43993">
        <ele>1034.9</ele>
        <time>2021-08-13T12:50:37Z</time>
      </trkpt>
      <trkpt lat="46.95131" lon="6.4399">
        <ele>1035</ele>
        <time>2021-08-13T12:50:39Z</time>
      </trkpt>
      <trkpt lat="46.9513" lon="6.43987">
        <ele>1035</ele>
        <time>2021-08-13T12:50:41Z</time>
      </trkpt>
      <trkpt lat="46.95128" lon="6.43982">
        <ele>1035.2</ele>
        <time>2021-08-13T12:50:42Z</time>
      </trkpt>
      <trkpt lat="46.95125" lon="6.43977">
        <ele>1035.3</ele>
        <time>2021-08-13T12:50:43Z</time>
      </trkpt>
      <trkpt lat="46.95123" lon="6.43973">
        <ele>1035.5</ele>
        <time>2021-08-13T12:50:44Z</time>
      </trkpt>
      <trkpt lat="46.9512" lon="6.43967">
        <ele>1035.6</ele>
        <time>2021-08-13T12:50:46Z</time>
      </trkpt>
      <trkpt lat="46.95118" lon="6.43961">
        <ele>1035.7</ele>
        <time>2021-08-13T12:50:47Z</time>
      </trkpt>
      <trkpt lat="46.95117" lon="6.43956">
        <ele>1035.7</ele>
        <time>2021-08-13T12:50:48Z</time>
      </trkpt>
      <trkpt lat="46.95115" lon="6.43947">
        <ele>1035.8</ele>
        <time>2021-08-13T12:50:49Z</time>
      </trkpt>
      <trkpt lat="46.95113" lon="6.43938">
        <ele>1035.8</ele>
        <time>2021-08-13T12:50:50Z</time>
      </trkpt>
      <trkpt lat="46.95111" lon="6.4392">
        <ele>1035.7</ele>
        <time>2021-08-13T12:50:52Z</time>
      </trkpt>
      <trkpt lat="46.95109" lon="6.43912">
        <ele>1035.5</ele>
        <time>2021-08-13T12:50:53Z</time>
      </trkpt>
      <trkpt lat="46.95109" lon="6.43902">
        <ele>1035.4</ele>
        <time>2021-08-13T12:50:55Z</time>
      </trkpt>
      <trkpt lat="46.95108" lon="6.4389">
        <ele>1035.2</ele>
        <time>2021-08-13T12:50:56Z</time>
      </trkpt>
      <trkpt lat="46.95107" lon="6.43883">
        <ele>1035.1</ele>
        <time>2021-08-13T12:50:57Z</time>
      </trkpt>
      <trkpt lat="46.95101" lon="6.43869">
        <ele>1034.8</ele>
        <time>2021-08-13T12:50:59Z</time>
      </trkpt>
      <trkpt lat="46.95097" lon="6.43861">
        <ele>1034.7</ele>
        <time>2021-08-13T12:51:00Z</time>
      </trkpt>
      <trkpt lat="46.95089" lon="6.43844">
        <ele>1034.5</ele>
        <time>2021-08-13T12:51:02Z</time>
      </trkpt>
      <trkpt lat="46.95083" lon="6.43829">
        <ele>1034.4</ele>
        <time>2021-08-13T12:51:04Z</time>
      </trkpt>
      <trkpt lat="46.9508" lon="6.43821">
        <ele>1034.4</ele>
        <time>2021-08-13T12:51:05Z</time>
      </trkpt>
      <trkpt lat="46.95075" lon="6.43812">
        <ele>1034.4</ele>
        <time>2021-08-13T12:51:06Z</time>
      </trkpt>
      <trkpt lat="46.95071" lon="6.43793">
        <ele>1034.4</ele>
        <time>2021-08-13T12:51:08Z</time>
      </trkpt>
      <trkpt lat="46.9507" lon="6.43784">
        <ele>1034.4</ele>
        <time>2021-08-13T12:51:09Z</time>
      </trkpt>
      <trkpt lat="46.95069" lon="6.43774">
        <ele>1034.6</ele>
        <time>2021-08-13T12:51:10Z</time>
      </trkpt>
      <trkpt lat="46.95069" lon="6.43765">
        <ele>1034.7</ele>
        <time>2021-08-13T12:51:11Z</time>
      </trkpt>
      <trkpt lat="46.95067" lon="6.43748">
        <ele>1035.3</ele>
        <time>2021-08-13T12:51:13Z</time>
      </trkpt>
      <trkpt lat="46.95066" lon="6.43742">
        <ele>1035.7</ele>
        <time>2021-08-13T12:51:14Z</time>
      </trkpt>
      <trkpt lat="46.95063" lon="6.43734">
        <ele>1036.3</ele>
        <time>2021-08-13T12:51:16Z</time>
      </trkpt>
      <trkpt lat="46.9506" lon="6.4373">
        <ele>1036.7</ele>
        <time>2021-08-13T12:51:17Z</time>
      </trkpt>
      <trkpt lat="46.95058" lon="6.43727">
        <ele>1036.9</ele>
        <time>2021-08-13T12:51:18Z</time>
      </trkpt>
      <trkpt lat="46.95057" lon="6.43721">
        <ele>1037.4</ele>
        <time>2021-08-13T12:51:20Z</time>
      </trkpt>
      <trkpt lat="46.95057" lon="6.43721">
        <ele>1037.4</ele>
        <time>2021-08-13T12:51:21Z</time>
      </trkpt>
      <trkpt lat="46.95056" lon="6.43716">
        <ele>1037.7</ele>
        <time>2021-08-13T12:51:22Z</time>
      </trkpt>
      <trkpt lat="46.95055" lon="6.43714">
        <ele>1037.9</ele>
        <time>2021-08-13T12:51:24Z</time>
      </trkpt>
      <trkpt lat="46.95055" lon="6.43712">
        <ele>1038</ele>
        <time>2021-08-13T12:51:25Z</time>
      </trkpt>
      <trkpt lat="46.95057" lon="6.43708">
        <ele>1038.3</ele>
        <time>2021-08-13T12:51:27Z</time>
      </trkpt>
      <trkpt lat="46.95058" lon="6.43707">
        <ele>1038.4</ele>
        <time>2021-08-13T12:51:28Z</time>
      </trkpt>
      <trkpt lat="46.9506" lon="6.43703">
        <ele>1038.7</ele>
        <time>2021-08-13T12:51:30Z</time>
      </trkpt>
      <trkpt lat="46.9506" lon="6.43702">
        <ele>1038.8</ele>
        <time>2021-08-13T12:51:31Z</time>
      </trkpt>
      <trkpt lat="46.9506" lon="6.437">
        <ele>1039</ele>
        <time>2021-08-13T12:51:33Z</time>
      </trkpt>
      <trkpt lat="46.95059" lon="6.43697">
        <ele>1039.1</ele>
        <time>2021-08-13T12:51:34Z</time>
      </trkpt>
      <trkpt lat="46.95058" lon="6.43694">
        <ele>1039.3</ele>
        <time>2021-08-13T12:51:35Z</time>
      </trkpt>
      <trkpt lat="46.95058" lon="6.43693">
        <ele>1039.4</ele>
        <time>2021-08-13T12:51:36Z</time>
      </trkpt>
      <trkpt lat="46.95057" lon="6.43692">
        <ele>1039.5</ele>
        <time>2021-08-13T12:51:37Z</time>
      </trkpt>
      <trkpt lat="46.95058" lon="6.43691">
        <ele>1039.5</ele>
        <time>2021-08-13T12:51:39Z</time>
      </trkpt>
      <trkpt lat="46.95058" lon="6.4369">
        <ele>1039.6</ele>
        <time>2021-08-13T12:51:40Z</time>
      </trkpt>
      <trkpt lat="46.95058" lon="6.43686">
        <ele>1039.8</ele>
        <time>2021-08-13T12:51:42Z</time>
      </trkpt>
      <trkpt lat="46.95057" lon="6.43683">
        <ele>1040</ele>
        <time>2021-08-13T12:51:43Z</time>
      </trkpt>
      <trkpt lat="46.95057" lon="6.43682">
        <ele>1040.1</ele>
        <time>2021-08-13T12:51:45Z</time>
      </trkpt>
      <trkpt lat="46.95057" lon="6.43682">
        <ele>1040.2</ele>
        <time>2021-08-13T12:51:46Z</time>
      </trkpt>
      <trkpt lat="46.95057" lon="6.43682">
        <ele>1040.2</ele>
        <time>2021-08-13T12:51:48Z</time>
      </trkpt>
      <trkpt lat="46.95057" lon="6.43681">
        <ele>1040.2</ele>
        <time>2021-08-13T12:51:50Z</time>
      </trkpt>
      <trkpt lat="46.95057" lon="6.43681">
        <ele>1040.2</ele>
        <time>2021-08-13T12:51:51Z</time>
      </trkpt>
      <trkpt lat="46.95056" lon="6.43681">
        <ele>1040.3</ele>
        <time>2021-08-13T12:51:52Z</time>
      </trkpt>
      <trkpt lat="46.95056" lon="6.4368">
        <ele>1040.3</ele>
        <time>2021-08-13T12:51:54Z</time>
      </trkpt>
      <trkpt lat="46.95064" lon="6.43652">
        <ele>1042.1</ele>
        <time>2021-08-13T12:52:19Z</time>
      </trkpt>
      <trkpt lat="46.95065" lon="6.43648">
        <ele>1042.3</ele>
        <time>2021-08-13T12:52:20Z</time>
      </trkpt>
      <trkpt lat="46.95066" lon="6.43645">
        <ele>1042.4</ele>
        <time>2021-08-13T12:52:21Z</time>
      </trkpt>
      <trkpt lat="46.95066" lon="6.43642">
        <ele>1042.6</ele>
        <time>2021-08-13T12:52:23Z</time>
      </trkpt>
      <trkpt lat="46.95066" lon="6.4364">
        <ele>1042.7</ele>
        <time>2021-08-13T12:52:24Z</time>
      </trkpt>
      <trkpt lat="46.95067" lon="6.43638">
        <ele>1042.9</ele>
        <time>2021-08-13T12:52:25Z</time>
      </trkpt>
      <trkpt lat="46.95068" lon="6.43637">
        <ele>1042.9</ele>
        <time>2021-08-13T12:52:26Z</time>
      </trkpt>
      <trkpt lat="46.95068" lon="6.43637">
        <ele>1043</ele>
        <time>2021-08-13T12:52:28Z</time>
      </trkpt>
      <trkpt lat="46.95068" lon="6.43637">
        <ele>1043</ele>
        <time>2021-08-13T12:52:29Z</time>
      </trkpt>
      <trkpt lat="46.95068" lon="6.43637">
        <ele>1043</ele>
        <time>2021-08-13T12:52:30Z</time>
      </trkpt>
      <trkpt lat="46.95068" lon="6.43636">
        <ele>1043</ele>
        <time>2021-08-13T12:52:31Z</time>
      </trkpt>
      <trkpt lat="46.95069" lon="6.43634">
        <ele>1043.1</ele>
        <time>2021-08-13T12:52:33Z</time>
      </trkpt>
      <trkpt lat="46.95069" lon="6.43633">
        <ele>1043.2</ele>
        <time>2021-08-13T12:52:34Z</time>
      </trkpt>
      <trkpt lat="46.95074" lon="6.43618">
        <ele>1044.2</ele>
        <time>2021-08-13T12:52:40Z</time>
      </trkpt>
      <trkpt lat="46.95075" lon="6.43615">
        <ele>1044.3</ele>
        <time>2021-08-13T12:52:41Z</time>
      </trkpt>
      <trkpt lat="46.95076" lon="6.43613">
        <ele>1044.5</ele>
        <time>2021-08-13T12:52:42Z</time>
      </trkpt>
      <trkpt lat="46.95077" lon="6.43611">
        <ele>1044.6</ele>
        <time>2021-08-13T12:52:44Z</time>
      </trkpt>
      <trkpt lat="46.95077" lon="6.4361">
        <ele>1044.7</ele>
        <time>2021-08-13T12:52:45Z</time>
      </trkpt>
      <trkpt lat="46.95078" lon="6.43608">
        <ele>1044.8</ele>
        <time>2021-08-13T12:52:46Z</time>
      </trkpt>
      <trkpt lat="46.95078" lon="6.43605">
        <ele>1045</ele>
        <time>2021-08-13T12:52:47Z</time>
      </trkpt>
      <trkpt lat="46.95078" lon="6.43602">
        <ele>1045.2</ele>
        <time>2021-08-13T12:52:48Z</time>
      </trkpt>
      <trkpt lat="46.95078" lon="6.436">
        <ele>1045.3</ele>
        <time>2021-08-13T12:52:50Z</time>
      </trkpt>
      <trkpt lat="46.95078" lon="6.43597">
        <ele>1045.5</ele>
        <time>2021-08-13T12:52:51Z</time>
      </trkpt>
      <trkpt lat="46.95078" lon="6.43595">
        <ele>1045.6</ele>
        <time>2021-08-13T12:52:52Z</time>
      </trkpt>
      <trkpt lat="46.95077" lon="6.43593">
        <ele>1045.8</ele>
        <time>2021-08-13T12:52:53Z</time>
      </trkpt>
      <trkpt lat="46.95077" lon="6.4359">
        <ele>1045.9</ele>
        <time>2021-08-13T12:52:55Z</time>
      </trkpt>
      <trkpt lat="46.95077" lon="6.43588">
        <ele>1046</ele>
        <time>2021-08-13T12:52:56Z</time>
      </trkpt>
      <trkpt lat="46.95077" lon="6.43586">
        <ele>1046.2</ele>
        <time>2021-08-13T12:52:57Z</time>
      </trkpt>
      <trkpt lat="46.95077" lon="6.43583">
        <ele>1046.3</ele>
        <time>2021-08-13T12:52:58Z</time>
      </trkpt>
      <trkpt lat="46.95077" lon="6.4358">
        <ele>1046.4</ele>
        <time>2021-08-13T12:53:00Z</time>
      </trkpt>
      <trkpt lat="46.95078" lon="6.43578">
        <ele>1046.6</ele>
        <time>2021-08-13T12:53:01Z</time>
      </trkpt>
      <trkpt lat="46.95078" lon="6.43576">
        <ele>1046.7</ele>
        <time>2021-08-13T12:53:02Z</time>
      </trkpt>
      <trkpt lat="46.9508" lon="6.43572">
        <ele>1046.9</ele>
        <time>2021-08-13T12:53:03Z</time>
      </trkpt>
      <trkpt lat="46.9508" lon="6.4357">
        <ele>1047</ele>
        <time>2021-08-13T12:53:04Z</time>
      </trkpt>
      <trkpt lat="46.95081" lon="6.43568">
        <ele>1047.1</ele>
        <time>2021-08-13T12:53:06Z</time>
      </trkpt>
      <trkpt lat="46.95081" lon="6.43567">
        <ele>1047.1</ele>
        <time>2021-08-13T12:53:07Z</time>
      </trkpt>
      <trkpt lat="46.95082" lon="6.43567">
        <ele>1047.1</ele>
        <time>2021-08-13T12:53:08Z</time>
      </trkpt>
      <trkpt lat="46.95082" lon="6.43567">
        <ele>1047.2</ele>
        <time>2021-08-13T12:53:09Z</time>
      </trkpt>
      <trkpt lat="46.95082" lon="6.43568">
        <ele>1047.2</ele>
        <time>2021-08-13T12:53:11Z</time>
      </trkpt>
      <trkpt lat="46.95082" lon="6.43567">
        <ele>1047.2</ele>
        <time>2021-08-13T12:53:12Z</time>
      </trkpt>
      <trkpt lat="46.95082" lon="6.43567">
        <ele>1047.2</ele>
        <time>2021-08-13T12:53:13Z</time>
      </trkpt>
      <trkpt lat="46.95082" lon="6.43566">
        <ele>1047.2</ele>
        <time>2021-08-13T12:53:14Z</time>
      </trkpt>
      <trkpt lat="46.95082" lon="6.43564">
        <ele>1047.3</ele>
        <time>2021-08-13T12:53:16Z</time>
      </trkpt>
      <trkpt lat="46.95082" lon="6.4356">
        <ele>1047.5</ele>
        <time>2021-08-13T12:53:18Z</time>
      </trkpt>
      <trkpt lat="46.95082" lon="6.43556">
        <ele>1047.6</ele>
        <time>2021-08-13T12:53:19Z</time>
      </trkpt>
      <trkpt lat="46.95082" lon="6.43553">
        <ele>1047.7</ele>
        <time>2021-08-13T12:53:21Z</time>
      </trkpt>
      <trkpt lat="46.95082" lon="6.43549">
        <ele>1047.8</ele>
        <time>2021-08-13T12:53:22Z</time>
      </trkpt>
      <trkpt lat="46.95081" lon="6.43546">
        <ele>1047.9</ele>
        <time>2021-08-13T12:53:24Z</time>
      </trkpt>
      <trkpt lat="46.95081" lon="6.43541">
        <ele>1048.1</ele>
        <time>2021-08-13T12:53:26Z</time>
      </trkpt>
      <trkpt lat="46.9508" lon="6.43537">
        <ele>1048.2</ele>
        <time>2021-08-13T12:53:27Z</time>
      </trkpt>
      <trkpt lat="46.95081" lon="6.43533">
        <ele>1048.4</ele>
        <time>2021-08-13T12:53:29Z</time>
      </trkpt>
      <trkpt lat="46.95081" lon="6.43531">
        <ele>1048.4</ele>
        <time>2021-08-13T12:53:30Z</time>
      </trkpt>
      <trkpt lat="46.9508" lon="6.43527">
        <ele>1048.6</ele>
        <time>2021-08-13T12:53:32Z</time>
      </trkpt>
      <trkpt lat="46.95079" lon="6.43523">
        <ele>1048.8</ele>
        <time>2021-08-13T12:53:33Z</time>
      </trkpt>
      <trkpt lat="46.95079" lon="6.4352">
        <ele>1048.9</ele>
        <time>2021-08-13T12:53:35Z</time>
      </trkpt>
      <trkpt lat="46.95078" lon="6.43516">
        <ele>1049.1</ele>
        <time>2021-08-13T12:53:37Z</time>
      </trkpt>
      <trkpt lat="46.95076" lon="6.43513">
        <ele>1049.3</ele>
        <time>2021-08-13T12:53:38Z</time>
      </trkpt>
      <trkpt lat="46.95075" lon="6.43512">
        <ele>1049.4</ele>
        <time>2021-08-13T12:53:39Z</time>
      </trkpt>
      <trkpt lat="46.95074" lon="6.4351">
        <ele>1049.6</ele>
        <time>2021-08-13T12:53:41Z</time>
      </trkpt>
      <trkpt lat="46.95074" lon="6.43507">
        <ele>1049.7</ele>
        <time>2021-08-13T12:53:42Z</time>
      </trkpt>
      <trkpt lat="46.95074" lon="6.43504">
        <ele>1049.9</ele>
        <time>2021-08-13T12:53:43Z</time>
      </trkpt>
      <trkpt lat="46.95074" lon="6.43502">
        <ele>1050</ele>
        <time>2021-08-13T12:53:45Z</time>
      </trkpt>
      <trkpt lat="46.95074" lon="6.435">
        <ele>1050.1</ele>
        <time>2021-08-13T12:53:46Z</time>
      </trkpt>
      <trkpt lat="46.95074" lon="6.43498">
        <ele>1050.2</ele>
        <time>2021-08-13T12:53:48Z</time>
      </trkpt>
      <trkpt lat="46.95075" lon="6.43496">
        <ele>1050.3</ele>
        <time>2021-08-13T12:53:49Z</time>
      </trkpt>
      <trkpt lat="46.95075" lon="6.43494">
        <ele>1050.4</ele>
        <time>2021-08-13T12:53:51Z</time>
      </trkpt>
      <trkpt lat="46.95075" lon="6.43492">
        <ele>1050.5</ele>
        <time>2021-08-13T12:53:52Z</time>
      </trkpt>
      <trkpt lat="46.95075" lon="6.4349">
        <ele>1050.6</ele>
        <time>2021-08-13T12:54:04Z</time>
      </trkpt>
      <trkpt lat="46.95075" lon="6.43488">
        <ele>1050.7</ele>
        <time>2021-08-13T12:54:05Z</time>
      </trkpt>
      <trkpt lat="46.95075" lon="6.43486">
        <ele>1050.8</ele>
        <time>2021-08-13T12:54:06Z</time>
      </trkpt>
      <trkpt lat="46.95075" lon="6.43483">
        <ele>1051</ele>
        <time>2021-08-13T12:54:08Z</time>
      </trkpt>
      <trkpt lat="46.95076" lon="6.43481">
        <ele>1051.1</ele>
        <time>2021-08-13T12:54:09Z</time>
      </trkpt>
      <trkpt lat="46.95077" lon="6.4348">
        <ele>1051.2</ele>
        <time>2021-08-13T12:54:10Z</time>
      </trkpt>
      <trkpt lat="46.95077" lon="6.43479">
        <ele>1051.2</ele>
        <time>2021-08-13T12:54:11Z</time>
      </trkpt>
      <trkpt lat="46.95077" lon="6.43476">
        <ele>1051.4</ele>
        <time>2021-08-13T12:54:12Z</time>
      </trkpt>
      <trkpt lat="46.95078" lon="6.43474">
        <ele>1051.5</ele>
        <time>2021-08-13T12:54:14Z</time>
      </trkpt>
      <trkpt lat="46.95078" lon="6.43472">
        <ele>1051.6</ele>
        <time>2021-08-13T12:54:15Z</time>
      </trkpt>
      <trkpt lat="46.95078" lon="6.43468">
        <ele>1051.7</ele>
        <time>2021-08-13T12:54:16Z</time>
      </trkpt>
      <trkpt lat="46.95078" lon="6.43467">
        <ele>1051.8</ele>
        <time>2021-08-13T12:54:17Z</time>
      </trkpt>
      <trkpt lat="46.95078" lon="6.43465">
        <ele>1051.9</ele>
        <time>2021-08-13T12:54:18Z</time>
      </trkpt>
      <trkpt lat="46.95078" lon="6.43463">
        <ele>1051.9</ele>
        <time>2021-08-13T12:54:19Z</time>
      </trkpt>
      <trkpt lat="46.95078" lon="6.43462">
        <ele>1052</ele>
        <time>2021-08-13T12:54:21Z</time>
      </trkpt>
      <trkpt lat="46.95078" lon="6.43461">
        <ele>1052</ele>
        <time>2021-08-13T12:54:22Z</time>
      </trkpt>
      <trkpt lat="46.95078" lon="6.43461">
        <ele>1052.1</ele>
        <time>2021-08-13T12:54:23Z</time>
      </trkpt>
      <trkpt lat="46.95078" lon="6.4346">
        <ele>1052.1</ele>
        <time>2021-08-13T12:54:24Z</time>
      </trkpt>
      <trkpt lat="46.95077" lon="6.4346">
        <ele>1052.1</ele>
        <time>2021-08-13T12:54:26Z</time>
      </trkpt>
      <trkpt lat="46.95077" lon="6.43459">
        <ele>1052.1</ele>
        <time>2021-08-13T12:54:27Z</time>
      </trkpt>
      <trkpt lat="46.95077" lon="6.43458">
        <ele>1052.2</ele>
        <time>2021-08-13T12:54:28Z</time>
      </trkpt>
      <trkpt lat="46.95078" lon="6.43456">
        <ele>1052.2</ele>
        <time>2021-08-13T12:54:30Z</time>
      </trkpt>
      <trkpt lat="46.95078" lon="6.43454">
        <ele>1052.3</ele>
        <time>2021-08-13T12:54:31Z</time>
      </trkpt>
      <trkpt lat="46.95078" lon="6.43452">
        <ele>1052.4</ele>
        <time>2021-08-13T12:54:33Z</time>
      </trkpt>
      <trkpt lat="46.95079" lon="6.43451">
        <ele>1052.4</ele>
        <time>2021-08-13T12:54:34Z</time>
      </trkpt>
      <trkpt lat="46.95079" lon="6.43448">
        <ele>1052.5</ele>
        <time>2021-08-13T12:54:35Z</time>
      </trkpt>
      <trkpt lat="46.9508" lon="6.43445">
        <ele>1052.5</ele>
        <time>2021-08-13T12:54:37Z</time>
      </trkpt>
      <trkpt lat="46.9508" lon="6.43445">
        <ele>1052.5</ele>
        <time>2021-08-13T12:54:37Z</time>
      </trkpt>
      <trkpt lat="46.9508" lon="6.43438">
        <ele>1052.7</ele>
        <time>2021-08-13T12:54:38Z</time>
      </trkpt>
      <trkpt lat="46.9508" lon="6.43434">
        <ele>1052.7</ele>
        <time>2021-08-13T12:54:39Z</time>
      </trkpt>
      <trkpt lat="46.95079" lon="6.43425">
        <ele>1052.8</ele>
        <time>2021-08-13T12:54:41Z</time>
      </trkpt>
      <trkpt lat="46.95079" lon="6.43415">
        <ele>1052.9</ele>
        <time>2021-08-13T12:54:42Z</time>
      </trkpt>
      <trkpt lat="46.95078" lon="6.4341">
        <ele>1052.9</ele>
        <time>2021-08-13T12:54:43Z</time>
      </trkpt>
      <trkpt lat="46.95078" lon="6.43403">
        <ele>1053</ele>
        <time>2021-08-13T12:54:45Z</time>
      </trkpt>
      <trkpt lat="46.95077" lon="6.43398">
        <ele>1053.1</ele>
        <time>2021-08-13T12:54:46Z</time>
      </trkpt>
      <trkpt lat="46.95075" lon="6.43388">
        <ele>1053.2</ele>
        <time>2021-08-13T12:54:48Z</time>
      </trkpt>
      <trkpt lat="46.95074" lon="6.43381">
        <ele>1053.4</ele>
        <time>2021-08-13T12:54:49Z</time>
      </trkpt>
      <trkpt lat="46.95073" lon="6.43375">
        <ele>1053.5</ele>
        <time>2021-08-13T12:54:50Z</time>
      </trkpt>
      <trkpt lat="46.95072" lon="6.43369">
        <ele>1053.6</ele>
        <time>2021-08-13T12:54:52Z</time>
      </trkpt>
      <trkpt lat="46.95071" lon="6.43365">
        <ele>1053.7</ele>
        <time>2021-08-13T12:54:53Z</time>
      </trkpt>
      <trkpt lat="46.9507" lon="6.43358">
        <ele>1053.9</ele>
        <time>2021-08-13T12:54:55Z</time>
      </trkpt>
      <trkpt lat="46.95069" lon="6.43353">
        <ele>1054.1</ele>
        <time>2021-08-13T12:54:56Z</time>
      </trkpt>
      <trkpt lat="46.95068" lon="6.43349">
        <ele>1054.2</ele>
        <time>2021-08-13T12:54:57Z</time>
      </trkpt>
      <trkpt lat="46.95067" lon="6.43345">
        <ele>1054.4</ele>
        <time>2021-08-13T12:54:59Z</time>
      </trkpt>
      <trkpt lat="46.95067" lon="6.43343">
        <ele>1054.4</ele>
        <time>2021-08-13T12:55:00Z</time>
      </trkpt>
      <trkpt lat="46.95066" lon="6.43341">
        <ele>1054.5</ele>
        <time>2021-08-13T12:55:01Z</time>
      </trkpt>
      <trkpt lat="46.95066" lon="6.43339">
        <ele>1054.6</ele>
        <time>2021-08-13T12:55:02Z</time>
      </trkpt>
      <trkpt lat="46.95066" lon="6.43336">
        <ele>1054.7</ele>
        <time>2021-08-13T12:55:04Z</time>
      </trkpt>
      <trkpt lat="46.95066" lon="6.43334">
        <ele>1054.8</ele>
        <time>2021-08-13T12:55:05Z</time>
      </trkpt>
      <trkpt lat="46.95066" lon="6.43332">
        <ele>1055</ele>
        <time>2021-08-13T12:55:06Z</time>
      </trkpt>
      <trkpt lat="46.95065" lon="6.4333">
        <ele>1055.1</ele>
        <time>2021-08-13T12:55:08Z</time>
      </trkpt>
      <trkpt lat="46.95065" lon="6.43329">
        <ele>1055.2</ele>
        <time>2021-08-13T12:55:09Z</time>
      </trkpt>
      <trkpt lat="46.95064" lon="6.43327">
        <ele>1055.2</ele>
        <time>2021-08-13T12:55:10Z</time>
      </trkpt>
      <trkpt lat="46.95064" lon="6.43326">
        <ele>1055.3</ele>
        <time>2021-08-13T12:55:11Z</time>
      </trkpt>
      <trkpt lat="46.95063" lon="6.43325">
        <ele>1055.4</ele>
        <time>2021-08-13T12:55:12Z</time>
      </trkpt>
      <trkpt lat="46.95062" lon="6.43323">
        <ele>1055.5</ele>
        <time>2021-08-13T12:55:13Z</time>
      </trkpt>
      <trkpt lat="46.95062" lon="6.43322">
        <ele>1055.6</ele>
        <time>2021-08-13T12:55:15Z</time>
      </trkpt>
      <trkpt lat="46.95061" lon="6.43321">
        <ele>1055.7</ele>
        <time>2021-08-13T12:55:25Z</time>
      </trkpt>
      <trkpt lat="46.9506" lon="6.43319">
        <ele>1055.8</ele>
        <time>2021-08-13T12:55:26Z</time>
      </trkpt>
      <trkpt lat="46.9506" lon="6.43318">
        <ele>1055.9</ele>
        <time>2021-08-13T12:55:27Z</time>
      </trkpt>
      <trkpt lat="46.95059" lon="6.43313">
        <ele>1056.2</ele>
        <time>2021-08-13T12:55:28Z</time>
      </trkpt>
      <trkpt lat="46.95057" lon="6.43307">
        <ele>1056.5</ele>
        <time>2021-08-13T12:55:30Z</time>
      </trkpt>
      <trkpt lat="46.95057" lon="6.43305">
        <ele>1056.6</ele>
        <time>2021-08-13T12:55:31Z</time>
      </trkpt>
      <trkpt lat="46.95056" lon="6.43302">
        <ele>1056.8</ele>
        <time>2021-08-13T12:55:33Z</time>
      </trkpt>
      <trkpt lat="46.95056" lon="6.43301">
        <ele>1056.9</ele>
        <time>2021-08-13T12:55:34Z</time>
      </trkpt>
      <trkpt lat="46.95055" lon="6.43299">
        <ele>1057</ele>
        <time>2021-08-13T12:55:35Z</time>
      </trkpt>
      <trkpt lat="46.95054" lon="6.43297">
        <ele>1057.1</ele>
        <time>2021-08-13T12:55:36Z</time>
      </trkpt>
      <trkpt lat="46.95053" lon="6.43294">
        <ele>1057.3</ele>
        <time>2021-08-13T12:55:38Z</time>
      </trkpt>
      <trkpt lat="46.95052" lon="6.43292">
        <ele>1057.4</ele>
        <time>2021-08-13T12:55:39Z</time>
      </trkpt>
      <trkpt lat="46.95052" lon="6.43291">
        <ele>1057.5</ele>
        <time>2021-08-13T12:55:40Z</time>
      </trkpt>
      <trkpt lat="46.95051" lon="6.43289">
        <ele>1057.6</ele>
        <time>2021-08-13T12:55:42Z</time>
      </trkpt>
      <trkpt lat="46.9505" lon="6.43286">
        <ele>1057.8</ele>
        <time>2021-08-13T12:55:43Z</time>
      </trkpt>
      <trkpt lat="46.9505" lon="6.43285">
        <ele>1057.8</ele>
        <time>2021-08-13T12:55:44Z</time>
      </trkpt>
      <trkpt lat="46.95049" lon="6.43284">
        <ele>1057.9</ele>
        <time>2021-08-13T12:55:45Z</time>
      </trkpt>
      <trkpt lat="46.95048" lon="6.43282">
        <ele>1058</ele>
        <time>2021-08-13T12:55:46Z</time>
      </trkpt>
      <trkpt lat="46.95044" lon="6.4328">
        <ele>1058.3</ele>
        <time>2021-08-13T12:55:48Z</time>
      </trkpt>
      <trkpt lat="46.95042" lon="6.43279">
        <ele>1058.5</ele>
        <time>2021-08-13T12:55:49Z</time>
      </trkpt>
      <trkpt lat="46.95038" lon="6.43275">
        <ele>1058.7</ele>
        <time>2021-08-13T12:55:51Z</time>
      </trkpt>
      <trkpt lat="46.95036" lon="6.43271">
        <ele>1058.8</ele>
        <time>2021-08-13T12:55:52Z</time>
      </trkpt>
      <trkpt lat="46.95035" lon="6.43269">
        <ele>1058.8</ele>
        <time>2021-08-13T12:55:53Z</time>
      </trkpt>
      <trkpt lat="46.95034" lon="6.43267">
        <ele>1058.9</ele>
        <time>2021-08-13T12:55:55Z</time>
      </trkpt>
      <trkpt lat="46.9503" lon="6.43263">
        <ele>1059.1</ele>
        <time>2021-08-13T12:55:57Z</time>
      </trkpt>
      <trkpt lat="46.95027" lon="6.4326">
        <ele>1059.2</ele>
        <time>2021-08-13T12:55:58Z</time>
      </trkpt>
      <trkpt lat="46.95026" lon="6.43259">
        <ele>1059.2</ele>
        <time>2021-08-13T12:55:59Z</time>
      </trkpt>
      <trkpt lat="46.95022" lon="6.43256">
        <ele>1059.4</ele>
        <time>2021-08-13T12:56:01Z</time>
      </trkpt>
      <trkpt lat="46.95019" lon="6.43253">
        <ele>1059.5</ele>
        <time>2021-08-13T12:56:02Z</time>
      </trkpt>
      <trkpt lat="46.95015" lon="6.43251">
        <ele>1059.7</ele>
        <time>2021-08-13T12:56:03Z</time>
      </trkpt>
      <trkpt lat="46.95009" lon="6.43248">
        <ele>1060</ele>
        <time>2021-08-13T12:56:05Z</time>
      </trkpt>
      <trkpt lat="46.95006" lon="6.43246">
        <ele>1060.2</ele>
        <time>2021-08-13T12:56:06Z</time>
      </trkpt>
      <trkpt lat="46.95003" lon="6.43243">
        <ele>1060.4</ele>
        <time>2021-08-13T12:56:07Z</time>
      </trkpt>
      <trkpt lat="46.94999" lon="6.43241">
        <ele>1060.6</ele>
        <time>2021-08-13T12:56:08Z</time>
      </trkpt>
      <trkpt lat="46.94997" lon="6.43238">
        <ele>1060.8</ele>
        <time>2021-08-13T12:56:10Z</time>
      </trkpt>
      <trkpt lat="46.94994" lon="6.43237">
        <ele>1061</ele>
        <time>2021-08-13T12:56:11Z</time>
      </trkpt>
      <trkpt lat="46.94992" lon="6.43236">
        <ele>1061.2</ele>
        <time>2021-08-13T12:56:12Z</time>
      </trkpt>
      <trkpt lat="46.94987" lon="6.43232">
        <ele>1061.6</ele>
        <time>2021-08-13T12:56:14Z</time>
      </trkpt>
      <trkpt lat="46.94986" lon="6.43231">
        <ele>1061.7</ele>
        <time>2021-08-13T12:56:15Z</time>
      </trkpt>
      <trkpt lat="46.94985" lon="6.4323">
        <ele>1061.8</ele>
        <time>2021-08-13T12:56:16Z</time>
      </trkpt>
      <trkpt lat="46.94983" lon="6.43227">
        <ele>1062</ele>
        <time>2021-08-13T12:56:18Z</time>
      </trkpt>
      <trkpt lat="46.94984" lon="6.43223">
        <ele>1062.3</ele>
        <time>2021-08-13T12:56:19Z</time>
      </trkpt>
      <trkpt lat="46.94985" lon="6.43221">
        <ele>1062.4</ele>
        <time>2021-08-13T12:56:20Z</time>
      </trkpt>
      <trkpt lat="46.94987" lon="6.43216">
        <ele>1062.8</ele>
        <time>2021-08-13T12:56:21Z</time>
      </trkpt>
      <trkpt lat="46.94986" lon="6.43211">
        <ele>1063.2</ele>
        <time>2021-08-13T12:56:22Z</time>
      </trkpt>
      <trkpt lat="46.94985" lon="6.43209">
        <ele>1063.3</ele>
        <time>2021-08-13T12:56:23Z</time>
      </trkpt>
      <trkpt lat="46.94987" lon="6.43204">
        <ele>1063.7</ele>
        <time>2021-08-13T12:56:25Z</time>
      </trkpt>
      <trkpt lat="46.94987" lon="6.43203">
        <ele>1063.8</ele>
        <time>2021-08-13T12:56:26Z</time>
      </trkpt>
      <trkpt lat="46.94991" lon="6.432">
        <ele>1064.2</ele>
        <time>2021-08-13T12:56:27Z</time>
      </trkpt>
      <trkpt lat="46.94992" lon="6.432">
        <ele>1064.3</ele>
        <time>2021-08-13T12:56:28Z</time>
      </trkpt>
      <trkpt lat="46.94993" lon="6.432">
        <ele>1064.4</ele>
        <time>2021-08-13T12:56:30Z</time>
      </trkpt>
      <trkpt lat="46.94994" lon="6.43199">
        <ele>1064.5</ele>
        <time>2021-08-13T12:56:31Z</time>
      </trkpt>
      <trkpt lat="46.94995" lon="6.43196">
        <ele>1064.7</ele>
        <time>2021-08-13T12:56:32Z</time>
      </trkpt>
      <trkpt lat="46.94996" lon="6.43193">
        <ele>1064.9</ele>
        <time>2021-08-13T12:56:33Z</time>
      </trkpt>
      <trkpt lat="46.94997" lon="6.43191">
        <ele>1065.1</ele>
        <time>2021-08-13T12:56:35Z</time>
      </trkpt>
      <trkpt lat="46.94998" lon="6.43188">
        <ele>1065.3</ele>
        <time>2021-08-13T12:56:36Z</time>
      </trkpt>
      <trkpt lat="46.94999" lon="6.43185">
        <ele>1065.5</ele>
        <time>2021-08-13T12:56:41Z</time>
      </trkpt>
      <trkpt lat="46.95" lon="6.43183">
        <ele>1065.7</ele>
        <time>2021-08-13T12:56:43Z</time>
      </trkpt>
      <trkpt lat="46.95001" lon="6.4318">
        <ele>1065.8</ele>
        <time>2021-08-13T12:56:44Z</time>
      </trkpt>
      <trkpt lat="46.95003" lon="6.43176">
        <ele>1066.1</ele>
        <time>2021-08-13T12:56:45Z</time>
      </trkpt>
      <trkpt lat="46.95003" lon="6.43175">
        <ele>1066.1</ele>
        <time>2021-08-13T12:56:46Z</time>
      </trkpt>
      <trkpt lat="46.95003" lon="6.43174">
        <ele>1066.2</ele>
        <time>2021-08-13T12:56:48Z</time>
      </trkpt>
      <trkpt lat="46.95004" lon="6.43174">
        <ele>1066.3</ele>
        <time>2021-08-13T12:56:49Z</time>
      </trkpt>
      <trkpt lat="46.95005" lon="6.43173">
        <ele>1066.3</ele>
        <time>2021-08-13T12:56:50Z</time>
      </trkpt>
      <trkpt lat="46.95005" lon="6.43172">
        <ele>1066.4</ele>
        <time>2021-08-13T12:56:51Z</time>
      </trkpt>
      <trkpt lat="46.95005" lon="6.43171">
        <ele>1066.4</ele>
        <time>2021-08-13T12:56:53Z</time>
      </trkpt>
      <trkpt lat="46.95005" lon="6.43171">
        <ele>1066.5</ele>
        <time>2021-08-13T12:56:54Z</time>
      </trkpt>
      <trkpt lat="46.95006" lon="6.43169">
        <ele>1066.6</ele>
        <time>2021-08-13T12:56:55Z</time>
      </trkpt>
      <trkpt lat="46.9501" lon="6.43151">
        <ele>1067.5</ele>
        <time>2021-08-13T12:57:07Z</time>
      </trkpt>
      <trkpt lat="46.95011" lon="6.43147">
        <ele>1067.7</ele>
        <time>2021-08-13T12:57:08Z</time>
      </trkpt>
      <trkpt lat="46.95011" lon="6.43143">
        <ele>1067.9</ele>
        <time>2021-08-13T12:57:09Z</time>
      </trkpt>
      <trkpt lat="46.95011" lon="6.4314">
        <ele>1068.1</ele>
        <time>2021-08-13T12:57:11Z</time>
      </trkpt>
      <trkpt lat="46.95011" lon="6.43138">
        <ele>1068.2</ele>
        <time>2021-08-13T12:57:12Z</time>
      </trkpt>
      <trkpt lat="46.95011" lon="6.43137">
        <ele>1068.2</ele>
        <time>2021-08-13T12:57:13Z</time>
      </trkpt>
      <trkpt lat="46.95011" lon="6.43136">
        <ele>1068.3</ele>
        <time>2021-08-13T12:57:14Z</time>
      </trkpt>
      <trkpt lat="46.9501" lon="6.43136">
        <ele>1068.3</ele>
        <time>2021-08-13T12:57:15Z</time>
      </trkpt>
      <trkpt lat="46.9501" lon="6.43136">
        <ele>1068.3</ele>
        <time>2021-08-13T12:57:16Z</time>
      </trkpt>
      <trkpt lat="46.9501" lon="6.43136">
        <ele>1068.3</ele>
        <time>2021-08-13T12:57:18Z</time>
      </trkpt>
      <trkpt lat="46.9501" lon="6.43134">
        <ele>1068.4</ele>
        <time>2021-08-13T12:57:19Z</time>
      </trkpt>
      <trkpt lat="46.9501" lon="6.43133">
        <ele>1068.5</ele>
        <time>2021-08-13T12:57:21Z</time>
      </trkpt>
      <trkpt lat="46.9501" lon="6.43131">
        <ele>1068.5</ele>
        <time>2021-08-13T12:57:22Z</time>
      </trkpt>
      <trkpt lat="46.9501" lon="6.4313">
        <ele>1068.6</ele>
        <time>2021-08-13T12:57:23Z</time>
      </trkpt>
      <trkpt lat="46.9501" lon="6.43128">
        <ele>1068.7</ele>
        <time>2021-08-13T12:57:24Z</time>
      </trkpt>
      <trkpt lat="46.9501" lon="6.43124">
        <ele>1068.9</ele>
        <time>2021-08-13T12:57:26Z</time>
      </trkpt>
      <trkpt lat="46.9501" lon="6.43121">
        <ele>1069</ele>
        <time>2021-08-13T12:57:27Z</time>
      </trkpt>
      <trkpt lat="46.9501" lon="6.43116">
        <ele>1069.3</ele>
        <time>2021-08-13T12:57:29Z</time>
      </trkpt>
      <trkpt lat="46.9501" lon="6.43112">
        <ele>1069.5</ele>
        <time>2021-08-13T12:57:30Z</time>
      </trkpt>
      <trkpt lat="46.9501" lon="6.4311">
        <ele>1069.6</ele>
        <time>2021-08-13T12:57:31Z</time>
      </trkpt>
      <trkpt lat="46.9501" lon="6.43106">
        <ele>1069.8</ele>
        <time>2021-08-13T12:57:32Z</time>
      </trkpt>
      <trkpt lat="46.9501" lon="6.43104">
        <ele>1069.9</ele>
        <time>2021-08-13T12:57:33Z</time>
      </trkpt>
      <trkpt lat="46.9501" lon="6.43102">
        <ele>1070</ele>
        <time>2021-08-13T12:57:35Z</time>
      </trkpt>
      <trkpt lat="46.95009" lon="6.43101">
        <ele>1070.1</ele>
        <time>2021-08-13T12:57:36Z</time>
      </trkpt>
      <trkpt lat="46.95009" lon="6.43098">
        <ele>1070.2</ele>
        <time>2021-08-13T12:57:37Z</time>
      </trkpt>
      <trkpt lat="46.95009" lon="6.43096">
        <ele>1070.3</ele>
        <time>2021-08-13T12:57:38Z</time>
      </trkpt>
      <trkpt lat="46.95009" lon="6.43095">
        <ele>1070.4</ele>
        <time>2021-08-13T12:57:40Z</time>
      </trkpt>
      <trkpt lat="46.95009" lon="6.43093">
        <ele>1070.4</ele>
        <time>2021-08-13T12:57:41Z</time>
      </trkpt>
      <trkpt lat="46.95009" lon="6.43091">
        <ele>1070.5</ele>
        <time>2021-08-13T12:57:42Z</time>
      </trkpt>
      <trkpt lat="46.95009" lon="6.43091">
        <ele>1070.5</ele>
        <time>2021-08-13T12:57:43Z</time>
      </trkpt>
      <trkpt lat="46.95009" lon="6.4309">
        <ele>1070.6</ele>
        <time>2021-08-13T12:57:45Z</time>
      </trkpt>
      <trkpt lat="46.95009" lon="6.4309">
        <ele>1070.6</ele>
        <time>2021-08-13T12:57:46Z</time>
      </trkpt>
      <trkpt lat="46.95009" lon="6.4309">
        <ele>1070.6</ele>
        <time>2021-08-13T12:57:47Z</time>
      </trkpt>
      <trkpt lat="46.95009" lon="6.4309">
        <ele>1070.6</ele>
        <time>2021-08-13T12:57:48Z</time>
      </trkpt>
      <trkpt lat="46.95009" lon="6.4309">
        <ele>1070.6</ele>
        <time>2021-08-13T12:57:49Z</time>
      </trkpt>
      <trkpt lat="46.95008" lon="6.4309">
        <ele>1070.6</ele>
        <time>2021-08-13T12:57:51Z</time>
      </trkpt>
      <trkpt lat="46.95008" lon="6.43089">
        <ele>1070.7</ele>
        <time>2021-08-13T12:57:53Z</time>
      </trkpt>
      <trkpt lat="46.95007" lon="6.43087">
        <ele>1070.8</ele>
        <time>2021-08-13T12:57:54Z</time>
      </trkpt>
      <trkpt lat="46.95006" lon="6.43082">
        <ele>1071</ele>
        <time>2021-08-13T12:57:55Z</time>
      </trkpt>
      <trkpt lat="46.95006" lon="6.4308">
        <ele>1071.1</ele>
        <time>2021-08-13T12:57:57Z</time>
      </trkpt>
      <trkpt lat="46.95006" lon="6.43078">
        <ele>1071.2</ele>
        <time>2021-08-13T12:57:58Z</time>
      </trkpt>
      <trkpt lat="46.95004" lon="6.43072">
        <ele>1071.4</ele>
        <time>2021-08-13T12:57:59Z</time>
      </trkpt>
      <trkpt lat="46.95003" lon="6.43067">
        <ele>1071.5</ele>
        <time>2021-08-13T12:58:01Z</time>
      </trkpt>
      <trkpt lat="46.95001" lon="6.43062">
        <ele>1071.7</ele>
        <time>2021-08-13T12:58:02Z</time>
      </trkpt>
      <trkpt lat="46.95" lon="6.43057">
        <ele>1071.8</ele>
        <time>2021-08-13T12:58:03Z</time>
      </trkpt>
      <trkpt lat="46.94999" lon="6.43053">
        <ele>1071.9</ele>
        <time>2021-08-13T12:58:05Z</time>
      </trkpt>
      <trkpt lat="46.94998" lon="6.43049">
        <ele>1072</ele>
        <time>2021-08-13T12:58:06Z</time>
      </trkpt>
      <trkpt lat="46.94997" lon="6.43041">
        <ele>1072.1</ele>
        <time>2021-08-13T12:58:08Z</time>
      </trkpt>
      <trkpt lat="46.94998" lon="6.43034">
        <ele>1072.2</ele>
        <time>2021-08-13T12:58:10Z</time>
      </trkpt>
      <trkpt lat="46.94999" lon="6.4303">
        <ele>1072.2</ele>
        <time>2021-08-13T12:58:11Z</time>
      </trkpt>
      <trkpt lat="46.94998" lon="6.43026">
        <ele>1072.3</ele>
        <time>2021-08-13T12:58:12Z</time>
      </trkpt>
      <trkpt lat="46.94998" lon="6.43021">
        <ele>1072.4</ele>
        <time>2021-08-13T12:58:13Z</time>
      </trkpt>
      <trkpt lat="46.94998" lon="6.43016">
        <ele>1072.4</ele>
        <time>2021-08-13T12:58:14Z</time>
      </trkpt>
      <trkpt lat="46.94998" lon="6.43011">
        <ele>1072.5</ele>
        <time>2021-08-13T12:58:15Z</time>
      </trkpt>
      <trkpt lat="46.94996" lon="6.43003">
        <ele>1072.6</ele>
        <time>2021-08-13T12:58:16Z</time>
      </trkpt>
      <trkpt lat="46.94995" lon="6.42998">
        <ele>1072.7</ele>
        <time>2021-08-13T12:58:18Z</time>
      </trkpt>
      <trkpt lat="46.94994" lon="6.42994">
        <ele>1072.8</ele>
        <time>2021-08-13T12:58:19Z</time>
      </trkpt>
      <trkpt lat="46.94995" lon="6.42988">
        <ele>1072.9</ele>
        <time>2021-08-13T12:58:21Z</time>
      </trkpt>
      <trkpt lat="46.94996" lon="6.42984">
        <ele>1073</ele>
        <time>2021-08-13T12:58:22Z</time>
      </trkpt>
      <trkpt lat="46.94998" lon="6.42978">
        <ele>1073.2</ele>
        <time>2021-08-13T12:58:23Z</time>
      </trkpt>
      <trkpt lat="46.95" lon="6.42974">
        <ele>1073.4</ele>
        <time>2021-08-13T12:58:25Z</time>
      </trkpt>
      <trkpt lat="46.95" lon="6.42972">
        <ele>1073.4</ele>
        <time>2021-08-13T12:58:26Z</time>
      </trkpt>
      <trkpt lat="46.95002" lon="6.42968">
        <ele>1073.5</ele>
        <time>2021-08-13T12:58:27Z</time>
      </trkpt>
      <trkpt lat="46.95002" lon="6.42967">
        <ele>1073.6</ele>
        <time>2021-08-13T12:58:28Z</time>
      </trkpt>
      <trkpt lat="46.95004" lon="6.42965">
        <ele>1073.7</ele>
        <time>2021-08-13T12:58:29Z</time>
      </trkpt>
      <trkpt lat="46.95005" lon="6.42961">
        <ele>1073.8</ele>
        <time>2021-08-13T12:58:31Z</time>
      </trkpt>
      <trkpt lat="46.95006" lon="6.42958">
        <ele>1074</ele>
        <time>2021-08-13T12:58:32Z</time>
      </trkpt>
      <trkpt lat="46.95006" lon="6.42955">
        <ele>1074.1</ele>
        <time>2021-08-13T12:58:34Z</time>
      </trkpt>
      <trkpt lat="46.95006" lon="6.42952">
        <ele>1074.2</ele>
        <time>2021-08-13T12:58:36Z</time>
      </trkpt>
      <trkpt lat="46.95006" lon="6.42952">
        <ele>1074.2</ele>
        <time>2021-08-13T12:58:37Z</time>
      </trkpt>
      <trkpt lat="46.95008" lon="6.4295">
        <ele>1074.4</ele>
        <time>2021-08-13T12:58:39Z</time>
      </trkpt>
      <trkpt lat="46.95009" lon="6.42952">
        <ele>1074.5</ele>
        <time>2021-08-13T12:58:41Z</time>
      </trkpt>
      <trkpt lat="46.95009" lon="6.42953">
        <ele>1074.5</ele>
        <time>2021-08-13T12:58:42Z</time>
      </trkpt>
      <trkpt lat="46.95009" lon="6.42953">
        <ele>1074.5</ele>
        <time>2021-08-13T12:58:44Z</time>
      </trkpt>
      <trkpt lat="46.95009" lon="6.42953">
        <ele>1074.5</ele>
        <time>2021-08-13T12:58:46Z</time>
      </trkpt>
      <trkpt lat="46.95008" lon="6.42953">
        <ele>1074.6</ele>
        <time>2021-08-13T12:58:47Z</time>
      </trkpt>
      <trkpt lat="46.95015" lon="6.42935">
        <ele>1075.5</ele>
        <time>2021-08-13T12:59:10Z</time>
      </trkpt>
      <trkpt lat="46.95017" lon="6.4293">
        <ele>1075.8</ele>
        <time>2021-08-13T12:59:12Z</time>
      </trkpt>
      <trkpt lat="46.95018" lon="6.42926">
        <ele>1075.9</ele>
        <time>2021-08-13T12:59:13Z</time>
      </trkpt>
      <trkpt lat="46.95018" lon="6.42924">
        <ele>1076</ele>
        <time>2021-08-13T12:59:14Z</time>
      </trkpt>
      <trkpt lat="46.95019" lon="6.42922">
        <ele>1076.1</ele>
        <time>2021-08-13T12:59:15Z</time>
      </trkpt>
      <trkpt lat="46.95018" lon="6.42919">
        <ele>1076.2</ele>
        <time>2021-08-13T12:59:17Z</time>
      </trkpt>
      <trkpt lat="46.95017" lon="6.42917">
        <ele>1076.3</ele>
        <time>2021-08-13T12:59:18Z</time>
      </trkpt>
      <trkpt lat="46.95016" lon="6.42916">
        <ele>1076.4</ele>
        <time>2021-08-13T12:59:19Z</time>
      </trkpt>
      <trkpt lat="46.95016" lon="6.42915">
        <ele>1076.5</ele>
        <time>2021-08-13T12:59:20Z</time>
      </trkpt>
      <trkpt lat="46.95015" lon="6.42913">
        <ele>1076.6</ele>
        <time>2021-08-13T12:59:22Z</time>
      </trkpt>
      <trkpt lat="46.95015" lon="6.42912">
        <ele>1076.7</ele>
        <time>2021-08-13T12:59:24Z</time>
      </trkpt>
      <trkpt lat="46.95015" lon="6.42912">
        <ele>1076.7</ele>
        <time>2021-08-13T12:59:25Z</time>
      </trkpt>
      <trkpt lat="46.95015" lon="6.42912">
        <ele>1076.7</ele>
        <time>2021-08-13T12:59:26Z</time>
      </trkpt>
      <trkpt lat="46.95015" lon="6.42912">
        <ele>1076.7</ele>
        <time>2021-08-13T12:59:28Z</time>
      </trkpt>
      <trkpt lat="46.95015" lon="6.42912">
        <ele>1076.7</ele>
        <time>2021-08-13T12:59:29Z</time>
      </trkpt>
      <trkpt lat="46.95015" lon="6.42912">
        <ele>1076.7</ele>
        <time>2021-08-13T12:59:31Z</time>
      </trkpt>
      <trkpt lat="46.95015" lon="6.42912">
        <ele>1076.7</ele>
        <time>2021-08-13T12:59:32Z</time>
      </trkpt>
      <trkpt lat="46.95007" lon="6.42897">
        <ele>1077</ele>
        <time>2021-08-13T12:59:40Z</time>
      </trkpt>
      <trkpt lat="46.95002" lon="6.42888">
        <ele>1077.1</ele>
        <time>2021-08-13T12:59:41Z</time>
      </trkpt>
      <trkpt lat="46.94998" lon="6.4288">
        <ele>1077.1</ele>
        <time>2021-08-13T12:59:42Z</time>
      </trkpt>
      <trkpt lat="46.94993" lon="6.42869">
        <ele>1077.2</ele>
        <time>2021-08-13T12:59:43Z</time>
      </trkpt>
      <trkpt lat="46.94991" lon="6.42862">
        <ele>1077.2</ele>
        <time>2021-08-13T12:59:44Z</time>
      </trkpt>
      <trkpt lat="46.9499" lon="6.42855">
        <ele>1077.2</ele>
        <time>2021-08-13T12:59:45Z</time>
      </trkpt>
      <trkpt lat="46.94987" lon="6.42849">
        <ele>1077.2</ele>
        <time>2021-08-13T12:59:47Z</time>
      </trkpt>
      <trkpt lat="46.94986" lon="6.42846">
        <ele>1077.2</ele>
        <time>2021-08-13T12:59:48Z</time>
      </trkpt>
      <trkpt lat="46.94982" lon="6.4284">
        <ele>1077.2</ele>
        <time>2021-08-13T12:59:49Z</time>
      </trkpt>
      <trkpt lat="46.94977" lon="6.42835">
        <ele>1077.1</ele>
        <time>2021-08-13T12:59:50Z</time>
      </trkpt>
      <trkpt lat="46.94972" lon="6.42828">
        <ele>1076.9</ele>
        <time>2021-08-13T12:59:52Z</time>
      </trkpt>
      <trkpt lat="46.94968" lon="6.42824">
        <ele>1076.7</ele>
        <time>2021-08-13T12:59:53Z</time>
      </trkpt>
      <trkpt lat="46.94956" lon="6.42818">
        <ele>1076.3</ele>
        <time>2021-08-13T12:59:55Z</time>
      </trkpt>
      <trkpt lat="46.94949" lon="6.42813">
        <ele>1076</ele>
        <time>2021-08-13T12:59:56Z</time>
      </trkpt>
      <trkpt lat="46.94938" lon="6.42802">
        <ele>1075.7</ele>
        <time>2021-08-13T12:59:58Z</time>
      </trkpt>
      <trkpt lat="46.94929" lon="6.42793">
        <ele>1075.5</ele>
        <time>2021-08-13T13:00:00Z</time>
      </trkpt>
      <trkpt lat="46.94921" lon="6.42783">
        <ele>1075.3</ele>
        <time>2021-08-13T13:00:02Z</time>
      </trkpt>
      <trkpt lat="46.94914" lon="6.42774">
        <ele>1075.2</ele>
        <time>2021-08-13T13:00:04Z</time>
      </trkpt>
      <trkpt lat="46.94911" lon="6.42769">
        <ele>1075.1</ele>
        <time>2021-08-13T13:00:05Z</time>
      </trkpt>
      <trkpt lat="46.94909" lon="6.42768">
        <ele>1075.1</ele>
        <time>2021-08-13T13:00:06Z</time>
      </trkpt>
      <trkpt lat="46.94904" lon="6.4276">
        <ele>1074.9</ele>
        <time>2021-08-13T13:00:08Z</time>
      </trkpt>
      <trkpt lat="46.94901" lon="6.42751">
        <ele>1074.8</ele>
        <time>2021-08-13T13:00:09Z</time>
      </trkpt>
      <trkpt lat="46.94898" lon="6.42745">
        <ele>1074.6</ele>
        <time>2021-08-13T13:00:10Z</time>
      </trkpt>
      <trkpt lat="46.94895" lon="6.4274">
        <ele>1074.5</ele>
        <time>2021-08-13T13:00:11Z</time>
      </trkpt>
      <trkpt lat="46.94891" lon="6.42736">
        <ele>1074.4</ele>
        <time>2021-08-13T13:00:12Z</time>
      </trkpt>
      <trkpt lat="46.94882" lon="6.42727">
        <ele>1074.1</ele>
        <time>2021-08-13T13:00:14Z</time>
      </trkpt>
      <trkpt lat="46.94872" lon="6.4272">
        <ele>1073.9</ele>
        <time>2021-08-13T13:00:16Z</time>
      </trkpt>
      <trkpt lat="46.94867" lon="6.42717">
        <ele>1073.7</ele>
        <time>2021-08-13T13:00:17Z</time>
      </trkpt>
      <trkpt lat="46.94862" lon="6.42713">
        <ele>1073.6</ele>
        <time>2021-08-13T13:00:18Z</time>
      </trkpt>
      <trkpt lat="46.94851" lon="6.42704">
        <ele>1073</ele>
        <time>2021-08-13T13:00:20Z</time>
      </trkpt>
      <trkpt lat="46.94841" lon="6.42695">
        <ele>1072.3</ele>
        <time>2021-08-13T13:00:22Z</time>
      </trkpt>
      <trkpt lat="46.94835" lon="6.4269">
        <ele>1071.8</ele>
        <time>2021-08-13T13:00:23Z</time>
      </trkpt>
      <trkpt lat="46.94829" lon="6.42684">
        <ele>1071.2</ele>
        <time>2021-08-13T13:00:24Z</time>
      </trkpt>
      <trkpt lat="46.94822" lon="6.42679">
        <ele>1070.5</ele>
        <time>2021-08-13T13:00:25Z</time>
      </trkpt>
      <trkpt lat="46.94814" lon="6.42673">
        <ele>1069.6</ele>
        <time>2021-08-13T13:00:26Z</time>
      </trkpt>
      <trkpt lat="46.94797" lon="6.42661">
        <ele>1067.4</ele>
        <time>2021-08-13T13:00:28Z</time>
      </trkpt>
      <trkpt lat="46.94787" lon="6.42655">
        <ele>1066.2</ele>
        <time>2021-08-13T13:00:29Z</time>
      </trkpt>
      <trkpt lat="46.94767" lon="6.42645">
        <ele>1063.6</ele>
        <time>2021-08-13T13:00:31Z</time>
      </trkpt>
      <trkpt lat="46.94757" lon="6.42639">
        <ele>1062.1</ele>
        <time>2021-08-13T13:00:32Z</time>
      </trkpt>
      <trkpt lat="46.94738" lon="6.42623">
        <ele>1058.9</ele>
        <time>2021-08-13T13:00:34Z</time>
      </trkpt>
      <trkpt lat="46.94721" lon="6.42601">
        <ele>1055.3</ele>
        <time>2021-08-13T13:00:36Z</time>
      </trkpt>
      <trkpt lat="46.94713" lon="6.42586">
        <ele>1053.3</ele>
        <time>2021-08-13T13:00:37Z</time>
      </trkpt>
      <trkpt lat="46.94698" lon="6.42553">
        <ele>1049.3</ele>
        <time>2021-08-13T13:00:39Z</time>
      </trkpt>
      <trkpt lat="46.9469" lon="6.42536">
        <ele>1047.4</ele>
        <time>2021-08-13T13:00:40Z</time>
      </trkpt>
      <trkpt lat="46.94683" lon="6.42519">
        <ele>1045.8</ele>
        <time>2021-08-13T13:00:41Z</time>
      </trkpt>
      <trkpt lat="46.94674" lon="6.42503">
        <ele>1044.4</ele>
        <time>2021-08-13T13:00:42Z</time>
      </trkpt>
      <trkpt lat="46.94654" lon="6.42475">
        <ele>1042.3</ele>
        <time>2021-08-13T13:00:44Z</time>
      </trkpt>
      <trkpt lat="46.94637" lon="6.42444">
        <ele>1040.6</ele>
        <time>2021-08-13T13:00:46Z</time>
      </trkpt>
      <trkpt lat="46.94629" lon="6.42429">
        <ele>1039.9</ele>
        <time>2021-08-13T13:00:47Z</time>
      </trkpt>
      <trkpt lat="46.94621" lon="6.42414">
        <ele>1039.4</ele>
        <time>2021-08-13T13:00:48Z</time>
      </trkpt>
      <trkpt lat="46.94605" lon="6.42385">
        <ele>1038.5</ele>
        <time>2021-08-13T13:00:50Z</time>
      </trkpt>
      <trkpt lat="46.94588" lon="6.42358">
        <ele>1038.2</ele>
        <time>2021-08-13T13:00:52Z</time>
      </trkpt>
      <trkpt lat="46.9458" lon="6.42346">
        <ele>1038.3</ele>
        <time>2021-08-13T13:00:53Z</time>
      </trkpt>
      <trkpt lat="46.94572" lon="6.42336">
        <ele>1038.6</ele>
        <time>2021-08-13T13:00:54Z</time>
      </trkpt>
      <trkpt lat="46.94563" lon="6.42326">
        <ele>1038.9</ele>
        <time>2021-08-13T13:00:55Z</time>
      </trkpt>
      <trkpt lat="46.94555" lon="6.42316">
        <ele>1039.2</ele>
        <time>2021-08-13T13:00:56Z</time>
      </trkpt>
      <trkpt lat="46.94539" lon="6.42298">
        <ele>1039.7</ele>
        <time>2021-08-13T13:00:58Z</time>
      </trkpt>
      <trkpt lat="46.94524" lon="6.42282">
        <ele>1040.2</ele>
        <time>2021-08-13T13:01:00Z</time>
      </trkpt>
      <trkpt lat="46.9451" lon="6.42269">
        <ele>1040.2</ele>
        <time>2021-08-13T13:01:02Z</time>
      </trkpt>
      <trkpt lat="46.94495" lon="6.42256">
        <ele>1039.8</ele>
        <time>2021-08-13T13:01:04Z</time>
      </trkpt>
      <trkpt lat="46.94488" lon="6.4225">
        <ele>1039.7</ele>
        <time>2021-08-13T13:01:05Z</time>
      </trkpt>
      <trkpt lat="46.94476" lon="6.42235">
        <ele>1039.2</ele>
        <time>2021-08-13T13:01:07Z</time>
      </trkpt>
      <trkpt lat="46.9447" lon="6.42226">
        <ele>1038.8</ele>
        <time>2021-08-13T13:01:08Z</time>
      </trkpt>
      <trkpt lat="46.94458" lon="6.42209">
        <ele>1038.8</ele>
        <time>2021-08-13T13:01:10Z</time>
      </trkpt>
      <trkpt lat="46.94453" lon="6.42203">
        <ele>1038.8</ele>
        <time>2021-08-13T13:01:11Z</time>
      </trkpt>
      <trkpt lat="46.94447" lon="6.42197">
        <ele>1038.8</ele>
        <time>2021-08-13T13:01:12Z</time>
      </trkpt>
      <trkpt lat="46.94441" lon="6.42194">
        <ele>1038.9</ele>
        <time>2021-08-13T13:01:13Z</time>
      </trkpt>
      <trkpt lat="46.94435" lon="6.42191">
        <ele>1039</ele>
        <time>2021-08-13T13:01:14Z</time>
      </trkpt>
      <trkpt lat="46.94428" lon="6.4219">
        <ele>1039.2</ele>
        <time>2021-08-13T13:01:15Z</time>
      </trkpt>
      <trkpt lat="46.94421" lon="6.42192">
        <ele>1039.3</ele>
        <time>2021-08-13T13:01:17Z</time>
      </trkpt>
      <trkpt lat="46.94412" lon="6.42196">
        <ele>1039.5</ele>
        <time>2021-08-13T13:01:19Z</time>
      </trkpt>
      <trkpt lat="46.94408" lon="6.42198">
        <ele>1039.5</ele>
        <time>2021-08-13T13:01:20Z</time>
      </trkpt>
      <trkpt lat="46.94399" lon="6.42201">
        <ele>1039.4</ele>
        <time>2021-08-13T13:01:22Z</time>
      </trkpt>
      <trkpt lat="46.94395" lon="6.42204">
        <ele>1039.3</ele>
        <time>2021-08-13T13:01:23Z</time>
      </trkpt>
      <trkpt lat="46.94391" lon="6.42208">
        <ele>1039.1</ele>
        <time>2021-08-13T13:01:24Z</time>
      </trkpt>
      <trkpt lat="46.94387" lon="6.42212">
        <ele>1038.9</ele>
        <time>2021-08-13T13:01:25Z</time>
      </trkpt>
      <trkpt lat="46.94378" lon="6.42221">
        <ele>1038.4</ele>
        <time>2021-08-13T13:01:27Z</time>
      </trkpt>
      <trkpt lat="46.94369" lon="6.42232">
        <ele>1037.7</ele>
        <time>2021-08-13T13:01:29Z</time>
      </trkpt>
      <trkpt lat="46.94365" lon="6.42237">
        <ele>1037.4</ele>
        <time>2021-08-13T13:01:30Z</time>
      </trkpt>
      <trkpt lat="46.9436" lon="6.42241">
        <ele>1037.1</ele>
        <time>2021-08-13T13:01:31Z</time>
      </trkpt>
      <trkpt lat="46.94355" lon="6.42246">
        <ele>1036.7</ele>
        <time>2021-08-13T13:01:32Z</time>
      </trkpt>
      <trkpt lat="46.94347" lon="6.42253">
        <ele>1036.1</ele>
        <time>2021-08-13T13:01:34Z</time>
      </trkpt>
      <trkpt lat="46.94344" lon="6.42257">
        <ele>1035.8</ele>
        <time>2021-08-13T13:01:35Z</time>
      </trkpt>
      <trkpt lat="46.94339" lon="6.42262">
        <ele>1035.5</ele>
        <time>2021-08-13T13:01:36Z</time>
      </trkpt>
      <trkpt lat="46.94329" lon="6.42274">
        <ele>1034.6</ele>
        <time>2021-08-13T13:01:38Z</time>
      </trkpt>
      <trkpt lat="46.94324" lon="6.42281">
        <ele>1034.1</ele>
        <time>2021-08-13T13:01:39Z</time>
      </trkpt>
      <trkpt lat="46.94312" lon="6.42291">
        <ele>1033.2</ele>
        <time>2021-08-13T13:01:41Z</time>
      </trkpt>
      <trkpt lat="46.94306" lon="6.42296">
        <ele>1032.6</ele>
        <time>2021-08-13T13:01:42Z</time>
      </trkpt>
      <trkpt lat="46.94266" lon="6.42307">
        <ele>1029.3</ele>
        <time>2021-08-13T13:01:46Z</time>
      </trkpt>
      <trkpt lat="46.94247" lon="6.42309">
        <ele>1027.6</ele>
        <time>2021-08-13T13:01:47Z</time>
      </trkpt>
      <trkpt lat="46.9423" lon="6.42311">
        <ele>1026.3</ele>
        <time>2021-08-13T13:01:48Z</time>
      </trkpt>
      <trkpt lat="46.942" lon="6.42314">
        <ele>1024.4</ele>
        <time>2021-08-13T13:01:50Z</time>
      </trkpt>
      <trkpt lat="46.94187" lon="6.42315">
        <ele>1023.5</ele>
        <time>2021-08-13T13:01:51Z</time>
      </trkpt>
      <trkpt lat="46.94175" lon="6.42316">
        <ele>1022.8</ele>
        <time>2021-08-13T13:01:52Z</time>
      </trkpt>
      <trkpt lat="46.94152" lon="6.4232">
        <ele>1021.7</ele>
        <time>2021-08-13T13:01:54Z</time>
      </trkpt>
      <trkpt lat="46.94126" lon="6.42325">
        <ele>1020.8</ele>
        <time>2021-08-13T13:01:56Z</time>
      </trkpt>
      <trkpt lat="46.94102" lon="6.42331">
        <ele>1020.4</ele>
        <time>2021-08-13T13:01:58Z</time>
      </trkpt>
      <trkpt lat="46.9408" lon="6.42334">
        <ele>1020</ele>
        <time>2021-08-13T13:02:00Z</time>
      </trkpt>
      <trkpt lat="46.94058" lon="6.4233">
        <ele>1019.3</ele>
        <time>2021-08-13T13:02:02Z</time>
      </trkpt>
      <trkpt lat="46.94041" lon="6.42325">
        <ele>1018.5</ele>
        <time>2021-08-13T13:02:04Z</time>
      </trkpt>
      <trkpt lat="46.94034" lon="6.42321">
        <ele>1018.1</ele>
        <time>2021-08-13T13:02:05Z</time>
      </trkpt>
      <trkpt lat="46.94027" lon="6.42317">
        <ele>1017.7</ele>
        <time>2021-08-13T13:02:06Z</time>
      </trkpt>
      <trkpt lat="46.94021" lon="6.42314">
        <ele>1017.3</ele>
        <time>2021-08-13T13:02:07Z</time>
      </trkpt>
      <trkpt lat="46.94009" lon="6.4231">
        <ele>1016.5</ele>
        <time>2021-08-13T13:02:09Z</time>
      </trkpt>
      <trkpt lat="46.94003" lon="6.42307">
        <ele>1016</ele>
        <time>2021-08-13T13:02:10Z</time>
      </trkpt>
      <trkpt lat="46.9399" lon="6.42298">
        <ele>1015</ele>
        <time>2021-08-13T13:02:12Z</time>
      </trkpt>
      <trkpt lat="46.93976" lon="6.42288">
        <ele>1014.2</ele>
        <time>2021-08-13T13:02:14Z</time>
      </trkpt>
      <trkpt lat="46.9397" lon="6.4228">
        <ele>1013.7</ele>
        <time>2021-08-13T13:02:15Z</time>
      </trkpt>
      <trkpt lat="46.93959" lon="6.42261">
        <ele>1012.7</ele>
        <time>2021-08-13T13:02:17Z</time>
      </trkpt>
      <trkpt lat="46.93954" lon="6.42252">
        <ele>1012.4</ele>
        <time>2021-08-13T13:02:18Z</time>
      </trkpt>
      <trkpt lat="46.93944" lon="6.42234">
        <ele>1011.8</ele>
        <time>2021-08-13T13:02:20Z</time>
      </trkpt>
      <trkpt lat="46.93933" lon="6.42215">
        <ele>1011.1</ele>
        <time>2021-08-13T13:02:22Z</time>
      </trkpt>
      <trkpt lat="46.93927" lon="6.42204">
        <ele>1010.7</ele>
        <time>2021-08-13T13:02:23Z</time>
      </trkpt>
      <trkpt lat="46.93921" lon="6.42192">
        <ele>1010.4</ele>
        <time>2021-08-13T13:02:24Z</time>
      </trkpt>
      <trkpt lat="46.93909" lon="6.42168">
        <ele>1009.6</ele>
        <time>2021-08-13T13:02:26Z</time>
      </trkpt>
      <trkpt lat="46.93897" lon="6.42145">
        <ele>1008.9</ele>
        <time>2021-08-13T13:02:28Z</time>
      </trkpt>
      <trkpt lat="46.9389" lon="6.42136">
        <ele>1008.6</ele>
        <time>2021-08-13T13:02:29Z</time>
      </trkpt>
      <trkpt lat="46.93877" lon="6.42121">
        <ele>1008</ele>
        <time>2021-08-13T13:02:31Z</time>
      </trkpt>
      <trkpt lat="46.93871" lon="6.42116">
        <ele>1007.8</ele>
        <time>2021-08-13T13:02:32Z</time>
      </trkpt>
      <trkpt lat="46.9386" lon="6.4211">
        <ele>1007.4</ele>
        <time>2021-08-13T13:02:34Z</time>
      </trkpt>
      <trkpt lat="46.93855" lon="6.42109">
        <ele>1007.2</ele>
        <time>2021-08-13T13:02:35Z</time>
      </trkpt>
      <trkpt lat="46.93849" lon="6.42108">
        <ele>1006.9</ele>
        <time>2021-08-13T13:02:36Z</time>
      </trkpt>
      <trkpt lat="46.93838" lon="6.42111">
        <ele>1006.1</ele>
        <time>2021-08-13T13:02:38Z</time>
      </trkpt>
      <trkpt lat="46.93833" lon="6.42114">
        <ele>1005.6</ele>
        <time>2021-08-13T13:02:39Z</time>
      </trkpt>
      <trkpt lat="46.93826" lon="6.42117">
        <ele>1005.1</ele>
        <time>2021-08-13T13:02:40Z</time>
      </trkpt>
      <trkpt lat="46.93814" lon="6.42127">
        <ele>1003.7</ele>
        <time>2021-08-13T13:02:42Z</time>
      </trkpt>
      <trkpt lat="46.93808" lon="6.42132">
        <ele>1003</ele>
        <time>2021-08-13T13:02:43Z</time>
      </trkpt>
      <trkpt lat="46.93797" lon="6.42141">
        <ele>1001.9</ele>
        <time>2021-08-13T13:02:45Z</time>
      </trkpt>
      <trkpt lat="46.93787" lon="6.42153">
        <ele>1000.4</ele>
        <time>2021-08-13T13:02:47Z</time>
      </trkpt>
      <trkpt lat="46.93782" lon="6.42161">
        <ele>999.2</ele>
        <time>2021-08-13T13:02:48Z</time>
      </trkpt>
      <trkpt lat="46.93771" lon="6.42174">
        <ele>996.9</ele>
        <time>2021-08-13T13:02:50Z</time>
      </trkpt>
      <trkpt lat="46.93758" lon="6.42188">
        <ele>994.6</ele>
        <time>2021-08-13T13:02:52Z</time>
      </trkpt>
      <trkpt lat="46.93746" lon="6.42205">
        <ele>992.6</ele>
        <time>2021-08-13T13:02:54Z</time>
      </trkpt>
      <trkpt lat="46.93735" lon="6.42219">
        <ele>991</ele>
        <time>2021-08-13T13:02:56Z</time>
      </trkpt>
      <trkpt lat="46.93727" lon="6.42235">
        <ele>989.6</ele>
        <time>2021-08-13T13:02:58Z</time>
      </trkpt>
      <trkpt lat="46.93723" lon="6.42241">
        <ele>989</ele>
        <time>2021-08-13T13:02:59Z</time>
      </trkpt>
      <trkpt lat="46.93719" lon="6.42247">
        <ele>988.4</ele>
        <time>2021-08-13T13:03:00Z</time>
      </trkpt>
      <trkpt lat="46.93711" lon="6.42256">
        <ele>987.4</ele>
        <time>2021-08-13T13:03:02Z</time>
      </trkpt>
      <trkpt lat="46.93708" lon="6.42261">
        <ele>987</ele>
        <time>2021-08-13T13:03:03Z</time>
      </trkpt>
      <trkpt lat="46.93705" lon="6.42265">
        <ele>986.7</ele>
        <time>2021-08-13T13:03:04Z</time>
      </trkpt>
      <trkpt lat="46.93703" lon="6.42268">
        <ele>986.4</ele>
        <time>2021-08-13T13:03:05Z</time>
      </trkpt>
      <trkpt lat="46.937" lon="6.42271">
        <ele>986.1</ele>
        <time>2021-08-13T13:03:06Z</time>
      </trkpt>
      <trkpt lat="46.93696" lon="6.42275">
        <ele>985.7</ele>
        <time>2021-08-13T13:03:08Z</time>
      </trkpt>
      <trkpt lat="46.93696" lon="6.42278">
        <ele>985.6</ele>
        <time>2021-08-13T13:03:09Z</time>
      </trkpt>
      <trkpt lat="46.93697" lon="6.42279">
        <ele>985.4</ele>
        <time>2021-08-13T13:03:11Z</time>
      </trkpt>
      <trkpt lat="46.93698" lon="6.42277">
        <ele>985.3</ele>
        <time>2021-08-13T13:03:13Z</time>
      </trkpt>
      <trkpt lat="46.93698" lon="6.42276">
        <ele>985.2</ele>
        <time>2021-08-13T13:03:14Z</time>
      </trkpt>
      <trkpt lat="46.93698" lon="6.42276">
        <ele>985.2</ele>
        <time>2021-08-13T13:03:15Z</time>
      </trkpt>
      <trkpt lat="46.93695" lon="6.42276">
        <ele>985</ele>
        <time>2021-08-13T13:03:17Z</time>
      </trkpt>
      <trkpt lat="46.93694" lon="6.42278">
        <ele>984.9</ele>
        <time>2021-08-13T13:03:18Z</time>
      </trkpt>
      <trkpt lat="46.93694" lon="6.4228">
        <ele>984.8</ele>
        <time>2021-08-13T13:03:19Z</time>
      </trkpt>
      <trkpt lat="46.93687" lon="6.42276">
        <ele>984.7</ele>
        <time>2021-08-13T13:03:31Z</time>
      </trkpt>
      <trkpt lat="46.93681" lon="6.42269">
        <ele>984.5</ele>
        <time>2021-08-13T13:03:33Z</time>
      </trkpt>
      <trkpt lat="46.93678" lon="6.42265">
        <ele>984.4</ele>
        <time>2021-08-13T13:03:34Z</time>
      </trkpt>
      <trkpt lat="46.93675" lon="6.42261">
        <ele>984.3</ele>
        <time>2021-08-13T13:03:35Z</time>
      </trkpt>
      <trkpt lat="46.93672" lon="6.42257">
        <ele>984.2</ele>
        <time>2021-08-13T13:03:36Z</time>
      </trkpt>
      <trkpt lat="46.93669" lon="6.42251">
        <ele>984</ele>
        <time>2021-08-13T13:03:37Z</time>
      </trkpt>
      <trkpt lat="46.93666" lon="6.42247">
        <ele>983.9</ele>
        <time>2021-08-13T13:03:38Z</time>
      </trkpt>
      <trkpt lat="46.93663" lon="6.42243">
        <ele>983.7</ele>
        <time>2021-08-13T13:03:39Z</time>
      </trkpt>
      <trkpt lat="46.9366" lon="6.4224">
        <ele>983.5</ele>
        <time>2021-08-13T13:03:40Z</time>
      </trkpt>
      <trkpt lat="46.93657" lon="6.42237">
        <ele>983.3</ele>
        <time>2021-08-13T13:03:42Z</time>
      </trkpt>
      <trkpt lat="46.93653" lon="6.42232">
        <ele>983.1</ele>
        <time>2021-08-13T13:03:43Z</time>
      </trkpt>
      <trkpt lat="46.93646" lon="6.42223">
        <ele>982.6</ele>
        <time>2021-08-13T13:03:45Z</time>
      </trkpt>
      <trkpt lat="46.93641" lon="6.42217">
        <ele>982.3</ele>
        <time>2021-08-13T13:03:46Z</time>
      </trkpt>
      <trkpt lat="46.9363" lon="6.42203">
        <ele>981.6</ele>
        <time>2021-08-13T13:03:48Z</time>
      </trkpt>
      <trkpt lat="46.93619" lon="6.42187">
        <ele>980.7</ele>
        <time>2021-08-13T13:03:50Z</time>
      </trkpt>
      <trkpt lat="46.93608" lon="6.4217">
        <ele>979.9</ele>
        <time>2021-08-13T13:03:52Z</time>
      </trkpt>
      <trkpt lat="46.93603" lon="6.42161">
        <ele>979.5</ele>
        <time>2021-08-13T13:03:53Z</time>
      </trkpt>
      <trkpt lat="46.93598" lon="6.42152">
        <ele>979.2</ele>
        <time>2021-08-13T13:03:54Z</time>
      </trkpt>
      <trkpt lat="46.93588" lon="6.42133">
        <ele>978.8</ele>
        <time>2021-08-13T13:03:56Z</time>
      </trkpt>
      <trkpt lat="46.93576" lon="6.42115">
        <ele>978.5</ele>
        <time>2021-08-13T13:03:58Z</time>
      </trkpt>
      <trkpt lat="46.9357" lon="6.42106">
        <ele>978.5</ele>
        <time>2021-08-13T13:03:59Z</time>
      </trkpt>
      <trkpt lat="46.93564" lon="6.42096">
        <ele>978.5</ele>
        <time>2021-08-13T13:04:00Z</time>
      </trkpt>
      <trkpt lat="46.93555" lon="6.42079">
        <ele>978.6</ele>
        <time>2021-08-13T13:04:02Z</time>
      </trkpt>
      <trkpt lat="46.93551" lon="6.42071">
        <ele>978.8</ele>
        <time>2021-08-13T13:04:03Z</time>
      </trkpt>
      <trkpt lat="46.93542" lon="6.42057">
        <ele>979.1</ele>
        <time>2021-08-13T13:04:05Z</time>
      </trkpt>
      <trkpt lat="46.93538" lon="6.42051">
        <ele>979.3</ele>
        <time>2021-08-13T13:04:06Z</time>
      </trkpt>
      <trkpt lat="46.93535" lon="6.42045">
        <ele>979.6</ele>
        <time>2021-08-13T13:04:07Z</time>
      </trkpt>
      <trkpt lat="46.93529" lon="6.42033">
        <ele>980.2</ele>
        <time>2021-08-13T13:04:09Z</time>
      </trkpt>
      <trkpt lat="46.93523" lon="6.42023">
        <ele>980.9</ele>
        <time>2021-08-13T13:04:11Z</time>
      </trkpt>
      <trkpt lat="46.93521" lon="6.4202">
        <ele>981.1</ele>
        <time>2021-08-13T13:04:12Z</time>
      </trkpt>
      <trkpt lat="46.93521" lon="6.42018">
        <ele>981.2</ele>
        <time>2021-08-13T13:04:14Z</time>
      </trkpt>
      <trkpt lat="46.9352" lon="6.42018">
        <ele>981.2</ele>
        <time>2021-08-13T13:04:15Z</time>
      </trkpt>
      <trkpt lat="46.93517" lon="6.42016">
        <ele>981.4</ele>
        <time>2021-08-13T13:04:17Z</time>
      </trkpt>
      <trkpt lat="46.93515" lon="6.42012">
        <ele>981.7</ele>
        <time>2021-08-13T13:04:19Z</time>
      </trkpt>
      <trkpt lat="46.93514" lon="6.42009">
        <ele>981.8</ele>
        <time>2021-08-13T13:04:20Z</time>
      </trkpt>
      <trkpt lat="46.93512" lon="6.42007">
        <ele>982</ele>
        <time>2021-08-13T13:04:22Z</time>
      </trkpt>
      <trkpt lat="46.9351" lon="6.42004">
        <ele>982.1</ele>
        <time>2021-08-13T13:04:23Z</time>
      </trkpt>
      <trkpt lat="46.93508" lon="6.41999">
        <ele>982.3</ele>
        <time>2021-08-13T13:04:25Z</time>
      </trkpt>
      <trkpt lat="46.93505" lon="6.41994">
        <ele>982.6</ele>
        <time>2021-08-13T13:04:26Z</time>
      </trkpt>
      <trkpt lat="46.93502" lon="6.4199">
        <ele>982.8</ele>
        <time>2021-08-13T13:04:28Z</time>
      </trkpt>
      <trkpt lat="46.93499" lon="6.41987">
        <ele>982.9</ele>
        <time>2021-08-13T13:04:29Z</time>
      </trkpt>
      <trkpt lat="46.93496" lon="6.41984">
        <ele>983.1</ele>
        <time>2021-08-13T13:04:31Z</time>
      </trkpt>
      <trkpt lat="46.93492" lon="6.41982">
        <ele>983.3</ele>
        <time>2021-08-13T13:04:32Z</time>
      </trkpt>
      <trkpt lat="46.93489" lon="6.41977">
        <ele>983.4</ele>
        <time>2021-08-13T13:04:34Z</time>
      </trkpt>
      <trkpt lat="46.93487" lon="6.41973">
        <ele>983.6</ele>
        <time>2021-08-13T13:04:35Z</time>
      </trkpt>
      <trkpt lat="46.93482" lon="6.41967">
        <ele>983.8</ele>
        <time>2021-08-13T13:04:37Z</time>
      </trkpt>
      <trkpt lat="46.9348" lon="6.41963">
        <ele>983.9</ele>
        <time>2021-08-13T13:04:38Z</time>
      </trkpt>
      <trkpt lat="46.93478" lon="6.41957">
        <ele>984</ele>
        <time>2021-08-13T13:04:40Z</time>
      </trkpt>
      <trkpt lat="46.93476" lon="6.41951">
        <ele>984.1</ele>
        <time>2021-08-13T13:04:41Z</time>
      </trkpt>
      <trkpt lat="46.93474" lon="6.41949">
        <ele>984.2</ele>
        <time>2021-08-13T13:04:42Z</time>
      </trkpt>
      <trkpt lat="46.9347" lon="6.41944">
        <ele>984.3</ele>
        <time>2021-08-13T13:04:44Z</time>
      </trkpt>
      <trkpt lat="46.93467" lon="6.4194">
        <ele>984.4</ele>
        <time>2021-08-13T13:04:46Z</time>
      </trkpt>
      <trkpt lat="46.93463" lon="6.41934">
        <ele>984.5</ele>
        <time>2021-08-13T13:04:48Z</time>
      </trkpt>
      <trkpt lat="46.93462" lon="6.41931">
        <ele>984.6</ele>
        <time>2021-08-13T13:04:49Z</time>
      </trkpt>
      <trkpt lat="46.9346" lon="6.41925">
        <ele>984.7</ele>
        <time>2021-08-13T13:04:51Z</time>
      </trkpt>
      <trkpt lat="46.93457" lon="6.41921">
        <ele>984.8</ele>
        <time>2021-08-13T13:04:52Z</time>
      </trkpt>
      <trkpt lat="46.93453" lon="6.41919">
        <ele>984.8</ele>
        <time>2021-08-13T13:04:53Z</time>
      </trkpt>
      <trkpt lat="46.9345" lon="6.41917">
        <ele>984.9</ele>
        <time>2021-08-13T13:04:54Z</time>
      </trkpt>
      <trkpt lat="46.93447" lon="6.41914">
        <ele>984.9</ele>
        <time>2021-08-13T13:04:55Z</time>
      </trkpt>
      <trkpt lat="46.93445" lon="6.4191">
        <ele>985</ele>
        <time>2021-08-13T13:04:56Z</time>
      </trkpt>
      <trkpt lat="46.93444" lon="6.41908">
        <ele>985</ele>
        <time>2021-08-13T13:04:57Z</time>
      </trkpt>
      <trkpt lat="46.93444" lon="6.41904">
        <ele>985</ele>
        <time>2021-08-13T13:04:58Z</time>
      </trkpt>
      <trkpt lat="46.93444" lon="6.41903">
        <ele>985.1</ele>
        <time>2021-08-13T13:04:59Z</time>
      </trkpt>
      <trkpt lat="46.93442" lon="6.41901">
        <ele>985.1</ele>
        <time>2021-08-13T13:05:00Z</time>
      </trkpt>
      <trkpt lat="46.9344" lon="6.41897">
        <ele>985.1</ele>
        <time>2021-08-13T13:05:02Z</time>
      </trkpt>
      <trkpt lat="46.93436" lon="6.41891">
        <ele>985.2</ele>
        <time>2021-08-13T13:05:04Z</time>
      </trkpt>
      <trkpt lat="46.93433" lon="6.41888">
        <ele>985.3</ele>
        <time>2021-08-13T13:05:05Z</time>
      </trkpt>
      <trkpt lat="46.93431" lon="6.41885">
        <ele>985.3</ele>
        <time>2021-08-13T13:05:06Z</time>
      </trkpt>
      <trkpt lat="46.93427" lon="6.4188">
        <ele>985.4</ele>
        <time>2021-08-13T13:05:07Z</time>
      </trkpt>
      <trkpt lat="46.93424" lon="6.41877">
        <ele>985.5</ele>
        <time>2021-08-13T13:05:09Z</time>
      </trkpt>
      <trkpt lat="46.93421" lon="6.41875">
        <ele>985.5</ele>
        <time>2021-08-13T13:05:10Z</time>
      </trkpt>
      <trkpt lat="46.93417" lon="6.41873">
        <ele>985.6</ele>
        <time>2021-08-13T13:05:11Z</time>
      </trkpt>
      <trkpt lat="46.93414" lon="6.4187">
        <ele>985.6</ele>
        <time>2021-08-13T13:05:13Z</time>
      </trkpt>
      <trkpt lat="46.93412" lon="6.41865">
        <ele>985.7</ele>
        <time>2021-08-13T13:05:14Z</time>
      </trkpt>
      <trkpt lat="46.93408" lon="6.41862">
        <ele>985.7</ele>
        <time>2021-08-13T13:05:16Z</time>
      </trkpt>
      <trkpt lat="46.93406" lon="6.41862">
        <ele>985.8</ele>
        <time>2021-08-13T13:05:17Z</time>
      </trkpt>
      <trkpt lat="46.93403" lon="6.4186">
        <ele>985.8</ele>
        <time>2021-08-13T13:05:18Z</time>
      </trkpt>
      <trkpt lat="46.93401" lon="6.4186">
        <ele>985.8</ele>
        <time>2021-08-13T13:05:19Z</time>
      </trkpt>
      <trkpt lat="46.93401" lon="6.41859">
        <ele>985.8</ele>
        <time>2021-08-13T13:05:21Z</time>
      </trkpt>
      <trkpt lat="46.934" lon="6.41859">
        <ele>985.8</ele>
        <time>2021-08-13T13:05:22Z</time>
      </trkpt>
      <trkpt lat="46.934" lon="6.4186">
        <ele>985.8</ele>
        <time>2021-08-13T13:05:24Z</time>
      </trkpt>
      <trkpt lat="46.93399" lon="6.4186">
        <ele>985.8</ele>
        <time>2021-08-13T13:05:25Z</time>
      </trkpt>
      <trkpt lat="46.93399" lon="6.4186">
        <ele>985.8</ele>
        <time>2021-08-13T13:05:27Z</time>
      </trkpt>
      <trkpt lat="46.93399" lon="6.4186">
        <ele>985.8</ele>
        <time>2021-08-13T13:05:28Z</time>
      </trkpt>
      <trkpt lat="46.93399" lon="6.41858">
        <ele>985.8</ele>
        <time>2021-08-13T13:05:30Z</time>
      </trkpt>
      <trkpt lat="46.93413" lon="6.41845">
        <ele>985.8</ele>
        <time>2021-08-13T13:06:38Z</time>
      </trkpt>
      <trkpt lat="46.93413" lon="6.41841">
        <ele>985.7</ele>
        <time>2021-08-13T13:06:39Z</time>
      </trkpt>
      <trkpt lat="46.93407" lon="6.41833">
        <ele>985.6</ele>
        <time>2021-08-13T13:06:40Z</time>
      </trkpt>
      <trkpt lat="46.93401" lon="6.41826">
        <ele>985.5</ele>
        <time>2021-08-13T13:06:42Z</time>
      </trkpt>
      <trkpt lat="46.93396" lon="6.41819">
        <ele>985.3</ele>
        <time>2021-08-13T13:06:43Z</time>
      </trkpt>
      <trkpt lat="46.93395" lon="6.41813">
        <ele>985.2</ele>
        <time>2021-08-13T13:06:44Z</time>
      </trkpt>
      <trkpt lat="46.93395" lon="6.41807">
        <ele>985.1</ele>
        <time>2021-08-13T13:06:46Z</time>
      </trkpt>
      <trkpt lat="46.93395" lon="6.41801">
        <ele>984.9</ele>
        <time>2021-08-13T13:06:47Z</time>
      </trkpt>
      <trkpt lat="46.93395" lon="6.41795">
        <ele>984.8</ele>
        <time>2021-08-13T13:06:49Z</time>
      </trkpt>
      <trkpt lat="46.93395" lon="6.41787">
        <ele>984.5</ele>
        <time>2021-08-13T13:06:50Z</time>
      </trkpt>
      <trkpt lat="46.93393" lon="6.41775">
        <ele>984.1</ele>
        <time>2021-08-13T13:06:52Z</time>
      </trkpt>
      <trkpt lat="46.93391" lon="6.41767">
        <ele>983.8</ele>
        <time>2021-08-13T13:06:53Z</time>
      </trkpt>
      <trkpt lat="46.93387" lon="6.4176">
        <ele>983.4</ele>
        <time>2021-08-13T13:06:54Z</time>
      </trkpt>
      <trkpt lat="46.93376" lon="6.41745">
        <ele>982.6</ele>
        <time>2021-08-13T13:06:56Z</time>
      </trkpt>
      <trkpt lat="46.93363" lon="6.41729">
        <ele>981.5</ele>
        <time>2021-08-13T13:06:58Z</time>
      </trkpt>
      <trkpt lat="46.93358" lon="6.41721">
        <ele>981</ele>
        <time>2021-08-13T13:06:59Z</time>
      </trkpt>
      <trkpt lat="46.93348" lon="6.41702">
        <ele>980.1</ele>
        <time>2021-08-13T13:07:01Z</time>
      </trkpt>
      <trkpt lat="46.93344" lon="6.41692">
        <ele>979.7</ele>
        <time>2021-08-13T13:07:02Z</time>
      </trkpt>
      <trkpt lat="46.93336" lon="6.41672">
        <ele>979</ele>
        <time>2021-08-13T13:07:04Z</time>
      </trkpt>
      <trkpt lat="46.93332" lon="6.41663">
        <ele>978.8</ele>
        <time>2021-08-13T13:07:05Z</time>
      </trkpt>
      <trkpt lat="46.93324" lon="6.41644">
        <ele>978.4</ele>
        <time>2021-08-13T13:07:07Z</time>
      </trkpt>
      <trkpt lat="46.93318" lon="6.41625">
        <ele>978.2</ele>
        <time>2021-08-13T13:07:09Z</time>
      </trkpt>
      <trkpt lat="46.93314" lon="6.41607">
        <ele>978.2</ele>
        <time>2021-08-13T13:07:11Z</time>
      </trkpt>
      <trkpt lat="46.93311" lon="6.41598">
        <ele>978.2</ele>
        <time>2021-08-13T13:07:12Z</time>
      </trkpt>
      <trkpt lat="46.93308" lon="6.41588">
        <ele>978.2</ele>
        <time>2021-08-13T13:07:13Z</time>
      </trkpt>
      <trkpt lat="46.93304" lon="6.41579">
        <ele>978.2</ele>
        <time>2021-08-13T13:07:14Z</time>
      </trkpt>
      <trkpt lat="46.93296" lon="6.41563">
        <ele>978.3</ele>
        <time>2021-08-13T13:07:16Z</time>
      </trkpt>
      <trkpt lat="46.93293" lon="6.41555">
        <ele>978.4</ele>
        <time>2021-08-13T13:07:17Z</time>
      </trkpt>
      <trkpt lat="46.93291" lon="6.41547">
        <ele>978.6</ele>
        <time>2021-08-13T13:07:18Z</time>
      </trkpt>
      <trkpt lat="46.93289" lon="6.41541">
        <ele>978.7</ele>
        <time>2021-08-13T13:07:19Z</time>
      </trkpt>
      <trkpt lat="46.93289" lon="6.41528">
        <ele>978.9</ele>
        <time>2021-08-13T13:07:21Z</time>
      </trkpt>
      <trkpt lat="46.93289" lon="6.41518">
        <ele>979.1</ele>
        <time>2021-08-13T13:07:23Z</time>
      </trkpt>
      <trkpt lat="46.93289" lon="6.41512">
        <ele>979.2</ele>
        <time>2021-08-13T13:07:24Z</time>
      </trkpt>
      <trkpt lat="46.93292" lon="6.41504">
        <ele>979.3</ele>
        <time>2021-08-13T13:07:26Z</time>
      </trkpt>
      <trkpt lat="46.93294" lon="6.41493">
        <ele>979.4</ele>
        <time>2021-08-13T13:07:28Z</time>
      </trkpt>
      <trkpt lat="46.93293" lon="6.41489">
        <ele>979.4</ele>
        <time>2021-08-13T13:07:29Z</time>
      </trkpt>
      <trkpt lat="46.93291" lon="6.41485">
        <ele>979.5</ele>
        <time>2021-08-13T13:07:30Z</time>
      </trkpt>
      <trkpt lat="46.93289" lon="6.41481">
        <ele>979.5</ele>
        <time>2021-08-13T13:07:32Z</time>
      </trkpt>
      <trkpt lat="46.93288" lon="6.4148">
        <ele>979.5</ele>
        <time>2021-08-13T13:07:33Z</time>
      </trkpt>
      <trkpt lat="46.93287" lon="6.41478">
        <ele>979.5</ele>
        <time>2021-08-13T13:07:34Z</time>
      </trkpt>
      <trkpt lat="46.93282" lon="6.41469">
        <ele>979.4</ele>
        <time>2021-08-13T13:07:36Z</time>
      </trkpt>
      <trkpt lat="46.93279" lon="6.41459">
        <ele>979.4</ele>
        <time>2021-08-13T13:07:37Z</time>
      </trkpt>
      <trkpt lat="46.93276" lon="6.41453">
        <ele>979.4</ele>
        <time>2021-08-13T13:07:38Z</time>
      </trkpt>
      <trkpt lat="46.93274" lon="6.41448">
        <ele>979.4</ele>
        <time>2021-08-13T13:07:39Z</time>
      </trkpt>
      <trkpt lat="46.93269" lon="6.4144">
        <ele>979.4</ele>
        <time>2021-08-13T13:07:41Z</time>
      </trkpt>
      <trkpt lat="46.93266" lon="6.41436">
        <ele>979.4</ele>
        <time>2021-08-13T13:07:42Z</time>
      </trkpt>
      <trkpt lat="46.93263" lon="6.41432">
        <ele>979.4</ele>
        <time>2021-08-13T13:07:43Z</time>
      </trkpt>
      <trkpt lat="46.93259" lon="6.41426">
        <ele>979.4</ele>
        <time>2021-08-13T13:07:45Z</time>
      </trkpt>
      <trkpt lat="46.93257" lon="6.41423">
        <ele>979.5</ele>
        <time>2021-08-13T13:07:46Z</time>
      </trkpt>
      <trkpt lat="46.93252" lon="6.41418">
        <ele>979.6</ele>
        <time>2021-08-13T13:07:48Z</time>
      </trkpt>
      <trkpt lat="46.93248" lon="6.41415">
        <ele>979.7</ele>
        <time>2021-08-13T13:07:50Z</time>
      </trkpt>
      <trkpt lat="46.93247" lon="6.41413">
        <ele>979.7</ele>
        <time>2021-08-13T13:07:51Z</time>
      </trkpt>
      <trkpt lat="46.93244" lon="6.41408">
        <ele>979.8</ele>
        <time>2021-08-13T13:07:53Z</time>
      </trkpt>
      <trkpt lat="46.93242" lon="6.41406">
        <ele>979.9</ele>
        <time>2021-08-13T13:07:54Z</time>
      </trkpt>
      <trkpt lat="46.93237" lon="6.41403">
        <ele>980</ele>
        <time>2021-08-13T13:07:56Z</time>
      </trkpt>
      <trkpt lat="46.93233" lon="6.41401">
        <ele>980.1</ele>
        <time>2021-08-13T13:07:57Z</time>
      </trkpt>
      <trkpt lat="46.93229" lon="6.41397">
        <ele>980.3</ele>
        <time>2021-08-13T13:07:59Z</time>
      </trkpt>
      <trkpt lat="46.93227" lon="6.41391">
        <ele>980.5</ele>
        <time>2021-08-13T13:08:01Z</time>
      </trkpt>
      <trkpt lat="46.93226" lon="6.41386">
        <ele>980.7</ele>
        <time>2021-08-13T13:08:03Z</time>
      </trkpt>
      <trkpt lat="46.93226" lon="6.41384">
        <ele>980.7</ele>
        <time>2021-08-13T13:08:04Z</time>
      </trkpt>
      <trkpt lat="46.93225" lon="6.41383">
        <ele>980.8</ele>
        <time>2021-08-13T13:08:05Z</time>
      </trkpt>
      <trkpt lat="46.93224" lon="6.41384">
        <ele>980.8</ele>
        <time>2021-08-13T13:08:07Z</time>
      </trkpt>
      <trkpt lat="46.93224" lon="6.41384">
        <ele>980.8</ele>
        <time>2021-08-13T13:08:09Z</time>
      </trkpt>
      <trkpt lat="46.93224" lon="6.41384">
        <ele>980.8</ele>
        <time>2021-08-13T13:08:10Z</time>
      </trkpt>
      <trkpt lat="46.93224" lon="6.41384">
        <ele>980.8</ele>
        <time>2021-08-13T13:08:12Z</time>
      </trkpt>
      <trkpt lat="46.93224" lon="6.41383">
        <ele>980.8</ele>
        <time>2021-08-13T13:08:14Z</time>
      </trkpt>
      <trkpt lat="46.93211" lon="6.41364">
        <ele>982</ele>
        <time>2021-08-13T13:10:08Z</time>
      </trkpt>
      <trkpt lat="46.93206" lon="6.41355">
        <ele>982.5</ele>
        <time>2021-08-13T13:10:10Z</time>
      </trkpt>
      <trkpt lat="46.93203" lon="6.41347">
        <ele>982.8</ele>
        <time>2021-08-13T13:10:11Z</time>
      </trkpt>
      <trkpt lat="46.93199" lon="6.41341">
        <ele>983.2</ele>
        <time>2021-08-13T13:10:13Z</time>
      </trkpt>
      <trkpt lat="46.93195" lon="6.41332">
        <ele>983.6</ele>
        <time>2021-08-13T13:10:14Z</time>
      </trkpt>
      <trkpt lat="46.93193" lon="6.41328">
        <ele>983.8</ele>
        <time>2021-08-13T13:10:16Z</time>
      </trkpt>
      <trkpt lat="46.93189" lon="6.41321">
        <ele>984.1</ele>
        <time>2021-08-13T13:10:18Z</time>
      </trkpt>
      <trkpt lat="46.93188" lon="6.41312">
        <ele>984.4</ele>
        <time>2021-08-13T13:10:20Z</time>
      </trkpt>
      <trkpt lat="46.93187" lon="6.41306">
        <ele>984.6</ele>
        <time>2021-08-13T13:10:21Z</time>
      </trkpt>
      <trkpt lat="46.93187" lon="6.41304">
        <ele>984.7</ele>
        <time>2021-08-13T13:10:23Z</time>
      </trkpt>
      <trkpt lat="46.93187" lon="6.413">
        <ele>984.8</ele>
        <time>2021-08-13T13:10:25Z</time>
      </trkpt>
      <trkpt lat="46.9319" lon="6.41294">
        <ele>984.9</ele>
        <time>2021-08-13T13:10:26Z</time>
      </trkpt>
      <trkpt lat="46.93191" lon="6.41291">
        <ele>984.9</ele>
        <time>2021-08-13T13:10:27Z</time>
      </trkpt>
      <trkpt lat="46.93191" lon="6.41286">
        <ele>985</ele>
        <time>2021-08-13T13:10:29Z</time>
      </trkpt>
      <trkpt lat="46.93191" lon="6.41282">
        <ele>985.1</ele>
        <time>2021-08-13T13:10:30Z</time>
      </trkpt>
      <trkpt lat="46.93193" lon="6.41276">
        <ele>985.1</ele>
        <time>2021-08-13T13:10:32Z</time>
      </trkpt>
      <trkpt lat="46.93194" lon="6.41272">
        <ele>985.1</ele>
        <time>2021-08-13T13:10:33Z</time>
      </trkpt>
      <trkpt lat="46.93196" lon="6.41266">
        <ele>985.1</ele>
        <time>2021-08-13T13:10:34Z</time>
      </trkpt>
      <trkpt lat="46.93197" lon="6.41262">
        <ele>985.1</ele>
        <time>2021-08-13T13:10:36Z</time>
      </trkpt>
      <trkpt lat="46.93198" lon="6.41257">
        <ele>985.1</ele>
        <time>2021-08-13T13:10:37Z</time>
      </trkpt>
      <trkpt lat="46.932" lon="6.4125">
        <ele>985.1</ele>
        <time>2021-08-13T13:10:39Z</time>
      </trkpt>
      <trkpt lat="46.93201" lon="6.41247">
        <ele>985.1</ele>
        <time>2021-08-13T13:10:40Z</time>
      </trkpt>
      <trkpt lat="46.93201" lon="6.41243">
        <ele>985.1</ele>
        <time>2021-08-13T13:10:42Z</time>
      </trkpt>
      <trkpt lat="46.93201" lon="6.41239">
        <ele>985.1</ele>
        <time>2021-08-13T13:10:43Z</time>
      </trkpt>
      <trkpt lat="46.93199" lon="6.41235">
        <ele>985.1</ele>
        <time>2021-08-13T13:10:44Z</time>
      </trkpt>
      <trkpt lat="46.93196" lon="6.41232">
        <ele>985</ele>
        <time>2021-08-13T13:10:45Z</time>
      </trkpt>
      <trkpt lat="46.93195" lon="6.41232">
        <ele>985</ele>
        <time>2021-08-13T13:10:46Z</time>
      </trkpt>
      <trkpt lat="46.93193" lon="6.41231">
        <ele>985</ele>
        <time>2021-08-13T13:10:47Z</time>
      </trkpt>
      <trkpt lat="46.93189" lon="6.41227">
        <ele>984.9</ele>
        <time>2021-08-13T13:10:49Z</time>
      </trkpt>
      <trkpt lat="46.93186" lon="6.41224">
        <ele>984.8</ele>
        <time>2021-08-13T13:10:50Z</time>
      </trkpt>
      <trkpt lat="46.93184" lon="6.4122">
        <ele>984.7</ele>
        <time>2021-08-13T13:10:51Z</time>
      </trkpt>
      <trkpt lat="46.93178" lon="6.41215">
        <ele>984.6</ele>
        <time>2021-08-13T13:10:52Z</time>
      </trkpt>
      <trkpt lat="46.93174" lon="6.41209">
        <ele>984.4</ele>
        <time>2021-08-13T13:10:53Z</time>
      </trkpt>
      <trkpt lat="46.93169" lon="6.41203">
        <ele>984.3</ele>
        <time>2021-08-13T13:10:54Z</time>
      </trkpt>
      <trkpt lat="46.93165" lon="6.41199">
        <ele>984.1</ele>
        <time>2021-08-13T13:10:55Z</time>
      </trkpt>
      <trkpt lat="46.9316" lon="6.41194">
        <ele>984</ele>
        <time>2021-08-13T13:10:57Z</time>
      </trkpt>
      <trkpt lat="46.93152" lon="6.41188">
        <ele>983.7</ele>
        <time>2021-08-13T13:10:58Z</time>
      </trkpt>
      <trkpt lat="46.93148" lon="6.41182">
        <ele>983.6</ele>
        <time>2021-08-13T13:11:00Z</time>
      </trkpt>
      <trkpt lat="46.93146" lon="6.41173">
        <ele>983.4</ele>
        <time>2021-08-13T13:11:01Z</time>
      </trkpt>
      <trkpt lat="46.93144" lon="6.41165">
        <ele>983.3</ele>
        <time>2021-08-13T13:11:02Z</time>
      </trkpt>
      <trkpt lat="46.9314" lon="6.41158">
        <ele>983.2</ele>
        <time>2021-08-13T13:11:04Z</time>
      </trkpt>
      <trkpt lat="46.93135" lon="6.41151">
        <ele>983</ele>
        <time>2021-08-13T13:11:05Z</time>
      </trkpt>
      <trkpt lat="46.93132" lon="6.41146">
        <ele>982.9</ele>
        <time>2021-08-13T13:11:06Z</time>
      </trkpt>
      <trkpt lat="46.93126" lon="6.41137">
        <ele>982.7</ele>
        <time>2021-08-13T13:11:08Z</time>
      </trkpt>
      <trkpt lat="46.93119" lon="6.41124">
        <ele>982.4</ele>
        <time>2021-08-13T13:11:10Z</time>
      </trkpt>
      <trkpt lat="46.93112" lon="6.41112">
        <ele>982.2</ele>
        <time>2021-08-13T13:11:12Z</time>
      </trkpt>
      <trkpt lat="46.93103" lon="6.41102">
        <ele>981.9</ele>
        <time>2021-08-13T13:11:14Z</time>
      </trkpt>
      <trkpt lat="46.93098" lon="6.41096">
        <ele>981.7</ele>
        <time>2021-08-13T13:11:15Z</time>
      </trkpt>
      <trkpt lat="46.93092" lon="6.4109">
        <ele>981.6</ele>
        <time>2021-08-13T13:11:16Z</time>
      </trkpt>
      <trkpt lat="46.93083" lon="6.41078">
        <ele>981.3</ele>
        <time>2021-08-13T13:11:18Z</time>
      </trkpt>
      <trkpt lat="46.93075" lon="6.41069">
        <ele>981.1</ele>
        <time>2021-08-13T13:11:20Z</time>
      </trkpt>
      <trkpt lat="46.9307" lon="6.41063">
        <ele>981</ele>
        <time>2021-08-13T13:11:21Z</time>
      </trkpt>
      <trkpt lat="46.93063" lon="6.41051">
        <ele>980.7</ele>
        <time>2021-08-13T13:11:23Z</time>
      </trkpt>
      <trkpt lat="46.9306" lon="6.41046">
        <ele>980.6</ele>
        <time>2021-08-13T13:11:24Z</time>
      </trkpt>
      <trkpt lat="46.93054" lon="6.41035">
        <ele>980.4</ele>
        <time>2021-08-13T13:11:26Z</time>
      </trkpt>
      <trkpt lat="46.93048" lon="6.41023">
        <ele>980.3</ele>
        <time>2021-08-13T13:11:28Z</time>
      </trkpt>
      <trkpt lat="46.93045" lon="6.41018">
        <ele>980.3</ele>
        <time>2021-08-13T13:11:29Z</time>
      </trkpt>
      <trkpt lat="46.93038" lon="6.41014">
        <ele>980.3</ele>
        <time>2021-08-13T13:11:31Z</time>
      </trkpt>
      <trkpt lat="46.93036" lon="6.4101">
        <ele>980.4</ele>
        <time>2021-08-13T13:11:32Z</time>
      </trkpt>
      <trkpt lat="46.93035" lon="6.41005">
        <ele>980.4</ele>
        <time>2021-08-13T13:11:33Z</time>
      </trkpt>
      <trkpt lat="46.93032" lon="6.41001">
        <ele>980.4</ele>
        <time>2021-08-13T13:11:34Z</time>
      </trkpt>
      <trkpt lat="46.93031" lon="6.40999">
        <ele>980.4</ele>
        <time>2021-08-13T13:11:36Z</time>
      </trkpt>
      <trkpt lat="46.93032" lon="6.40997">
        <ele>980.4</ele>
        <time>2021-08-13T13:11:37Z</time>
      </trkpt>
      <trkpt lat="46.93035" lon="6.40991">
        <ele>980.4</ele>
        <time>2021-08-13T13:11:38Z</time>
      </trkpt>
      <trkpt lat="46.93035" lon="6.4099">
        <ele>980.4</ele>
        <time>2021-08-13T13:11:40Z</time>
      </trkpt>
      <trkpt lat="46.93034" lon="6.40988">
        <ele>980.4</ele>
        <time>2021-08-13T13:11:41Z</time>
      </trkpt>
      <trkpt lat="46.93033" lon="6.40986">
        <ele>980.4</ele>
        <time>2021-08-13T13:11:42Z</time>
      </trkpt>
      <trkpt lat="46.93032" lon="6.40984">
        <ele>980.3</ele>
        <time>2021-08-13T13:11:43Z</time>
      </trkpt>
      <trkpt lat="46.93031" lon="6.40982">
        <ele>980.3</ele>
        <time>2021-08-13T13:11:44Z</time>
      </trkpt>
      <trkpt lat="46.93029" lon="6.40978">
        <ele>980.3</ele>
        <time>2021-08-13T13:11:46Z</time>
      </trkpt>
      <trkpt lat="46.93027" lon="6.40972">
        <ele>980.3</ele>
        <time>2021-08-13T13:11:47Z</time>
      </trkpt>
      <trkpt lat="46.93023" lon="6.40966">
        <ele>980.2</ele>
        <time>2021-08-13T13:11:49Z</time>
      </trkpt>
      <trkpt lat="46.93019" lon="6.40961">
        <ele>980.2</ele>
        <time>2021-08-13T13:11:50Z</time>
      </trkpt>
      <trkpt lat="46.93016" lon="6.40957">
        <ele>980.1</ele>
        <time>2021-08-13T13:11:51Z</time>
      </trkpt>
      <trkpt lat="46.93013" lon="6.40951">
        <ele>980.1</ele>
        <time>2021-08-13T13:11:52Z</time>
      </trkpt>
      <trkpt lat="46.9301" lon="6.40946">
        <ele>980.1</ele>
        <time>2021-08-13T13:11:53Z</time>
      </trkpt>
      <trkpt lat="46.93007" lon="6.40941">
        <ele>980</ele>
        <time>2021-08-13T13:11:55Z</time>
      </trkpt>
      <trkpt lat="46.93005" lon="6.40935">
        <ele>979.9</ele>
        <time>2021-08-13T13:11:56Z</time>
      </trkpt>
      <trkpt lat="46.93004" lon="6.40931">
        <ele>979.8</ele>
        <time>2021-08-13T13:11:57Z</time>
      </trkpt>
      <trkpt lat="46.93002" lon="6.40925">
        <ele>979.7</ele>
        <time>2021-08-13T13:11:58Z</time>
      </trkpt>
      <trkpt lat="46.92999" lon="6.40918">
        <ele>979.6</ele>
        <time>2021-08-13T13:12:00Z</time>
      </trkpt>
      <trkpt lat="46.92995" lon="6.40907">
        <ele>979.3</ele>
        <time>2021-08-13T13:12:01Z</time>
      </trkpt>
      <trkpt lat="46.92991" lon="6.40896">
        <ele>979</ele>
        <time>2021-08-13T13:12:03Z</time>
      </trkpt>
      <trkpt lat="46.92988" lon="6.40885">
        <ele>978.8</ele>
        <time>2021-08-13T13:12:05Z</time>
      </trkpt>
      <trkpt lat="46.92986" lon="6.40877">
        <ele>978.5</ele>
        <time>2021-08-13T13:12:06Z</time>
      </trkpt>
      <trkpt lat="46.9298" lon="6.40863">
        <ele>978.2</ele>
        <time>2021-08-13T13:12:08Z</time>
      </trkpt>
      <trkpt lat="46.92977" lon="6.40856">
        <ele>978</ele>
        <time>2021-08-13T13:12:09Z</time>
      </trkpt>
      <trkpt lat="46.92968" lon="6.4084">
        <ele>977.6</ele>
        <time>2021-08-13T13:12:11Z</time>
      </trkpt>
      <trkpt lat="46.92965" lon="6.40833">
        <ele>977.4</ele>
        <time>2021-08-13T13:12:12Z</time>
      </trkpt>
      <trkpt lat="46.92959" lon="6.40819">
        <ele>977</ele>
        <time>2021-08-13T13:12:14Z</time>
      </trkpt>
      <trkpt lat="46.92955" lon="6.40812">
        <ele>976.8</ele>
        <time>2021-08-13T13:12:15Z</time>
      </trkpt>
      <trkpt lat="46.92952" lon="6.40806">
        <ele>976.6</ele>
        <time>2021-08-13T13:12:16Z</time>
      </trkpt>
      <trkpt lat="46.92948" lon="6.408">
        <ele>976.2</ele>
        <time>2021-08-13T13:12:17Z</time>
      </trkpt>
      <trkpt lat="46.92941" lon="6.40788">
        <ele>975.5</ele>
        <time>2021-08-13T13:12:19Z</time>
      </trkpt>
      <trkpt lat="46.92933" lon="6.40775">
        <ele>974.7</ele>
        <time>2021-08-13T13:12:21Z</time>
      </trkpt>
      <trkpt lat="46.92925" lon="6.40759">
        <ele>973.7</ele>
        <time>2021-08-13T13:12:23Z</time>
      </trkpt>
      <trkpt lat="46.9292" lon="6.40751">
        <ele>973.2</ele>
        <time>2021-08-13T13:12:24Z</time>
      </trkpt>
      <trkpt lat="46.92911" lon="6.40734">
        <ele>972.2</ele>
        <time>2021-08-13T13:12:26Z</time>
      </trkpt>
      <trkpt lat="46.92904" lon="6.40716">
        <ele>971.2</ele>
        <time>2021-08-13T13:12:28Z</time>
      </trkpt>
      <trkpt lat="46.92896" lon="6.40699">
        <ele>970.4</ele>
        <time>2021-08-13T13:12:30Z</time>
      </trkpt>
      <trkpt lat="46.92887" lon="6.40683">
        <ele>969.5</ele>
        <time>2021-08-13T13:12:32Z</time>
      </trkpt>
      <trkpt lat="46.92882" lon="6.40675">
        <ele>969</ele>
        <time>2021-08-13T13:12:33Z</time>
      </trkpt>
      <trkpt lat="46.9287" lon="6.40661">
        <ele>968.1</ele>
        <time>2021-08-13T13:12:35Z</time>
      </trkpt>
      <trkpt lat="46.92864" lon="6.40655">
        <ele>967.6</ele>
        <time>2021-08-13T13:12:36Z</time>
      </trkpt>
      <trkpt lat="46.92857" lon="6.40648">
        <ele>967.1</ele>
        <time>2021-08-13T13:12:37Z</time>
      </trkpt>
      <trkpt lat="46.92847" lon="6.40628">
        <ele>966.4</ele>
        <time>2021-08-13T13:12:39Z</time>
      </trkpt>
      <trkpt lat="46.92839" lon="6.40605">
        <ele>965.6</ele>
        <time>2021-08-13T13:12:41Z</time>
      </trkpt>
      <trkpt lat="46.92836" lon="6.40594">
        <ele>965.1</ele>
        <time>2021-08-13T13:12:42Z</time>
      </trkpt>
      <trkpt lat="46.92829" lon="6.40575">
        <ele>964.2</ele>
        <time>2021-08-13T13:12:44Z</time>
      </trkpt>
      <trkpt lat="46.9282" lon="6.40558">
        <ele>963.3</ele>
        <time>2021-08-13T13:12:46Z</time>
      </trkpt>
      <trkpt lat="46.92816" lon="6.40549">
        <ele>962.9</ele>
        <time>2021-08-13T13:12:47Z</time>
      </trkpt>
      <trkpt lat="46.92807" lon="6.40532">
        <ele>962.1</ele>
        <time>2021-08-13T13:12:49Z</time>
      </trkpt>
      <trkpt lat="46.92802" lon="6.40524">
        <ele>961.8</ele>
        <time>2021-08-13T13:12:50Z</time>
      </trkpt>
      <trkpt lat="46.92794" lon="6.40508">
        <ele>961</ele>
        <time>2021-08-13T13:12:52Z</time>
      </trkpt>
      <trkpt lat="46.92787" lon="6.40493">
        <ele>960.3</ele>
        <time>2021-08-13T13:12:54Z</time>
      </trkpt>
      <trkpt lat="46.92778" lon="6.40476">
        <ele>959.5</ele>
        <time>2021-08-13T13:12:56Z</time>
      </trkpt>
      <trkpt lat="46.92768" lon="6.40458">
        <ele>958.7</ele>
        <time>2021-08-13T13:12:58Z</time>
      </trkpt>
      <trkpt lat="46.92758" lon="6.40439">
        <ele>957.9</ele>
        <time>2021-08-13T13:13:00Z</time>
      </trkpt>
      <trkpt lat="46.92752" lon="6.40429">
        <ele>957.5</ele>
        <time>2021-08-13T13:13:01Z</time>
      </trkpt>
      <trkpt lat="46.92747" lon="6.4042">
        <ele>957.1</ele>
        <time>2021-08-13T13:13:02Z</time>
      </trkpt>
      <trkpt lat="46.92739" lon="6.40396">
        <ele>956.3</ele>
        <time>2021-08-13T13:13:04Z</time>
      </trkpt>
      <trkpt lat="46.92734" lon="6.40385">
        <ele>955.9</ele>
        <time>2021-08-13T13:13:05Z</time>
      </trkpt>
      <trkpt lat="46.92726" lon="6.40366">
        <ele>955.2</ele>
        <time>2021-08-13T13:13:07Z</time>
      </trkpt>
      <trkpt lat="46.92716" lon="6.40349">
        <ele>954.7</ele>
        <time>2021-08-13T13:13:09Z</time>
      </trkpt>
      <trkpt lat="46.92707" lon="6.40332">
        <ele>954.4</ele>
        <time>2021-08-13T13:13:11Z</time>
      </trkpt>
      <trkpt lat="46.92702" lon="6.40325">
        <ele>954.2</ele>
        <time>2021-08-13T13:13:12Z</time>
      </trkpt>
      <trkpt lat="46.92693" lon="6.40309">
        <ele>953.9</ele>
        <time>2021-08-13T13:13:14Z</time>
      </trkpt>
      <trkpt lat="46.92689" lon="6.40301">
        <ele>953.8</ele>
        <time>2021-08-13T13:13:15Z</time>
      </trkpt>
      <trkpt lat="46.92682" lon="6.40285">
        <ele>953.4</ele>
        <time>2021-08-13T13:13:17Z</time>
      </trkpt>
      <trkpt lat="46.92678" lon="6.40277">
        <ele>953.1</ele>
        <time>2021-08-13T13:13:18Z</time>
      </trkpt>
      <trkpt lat="46.92669" lon="6.40262">
        <ele>952.3</ele>
        <time>2021-08-13T13:13:20Z</time>
      </trkpt>
      <trkpt lat="46.92664" lon="6.40253">
        <ele>951.8</ele>
        <time>2021-08-13T13:13:21Z</time>
      </trkpt>
      <trkpt lat="46.92654" lon="6.40235">
        <ele>950.9</ele>
        <time>2021-08-13T13:13:23Z</time>
      </trkpt>
      <trkpt lat="46.9265" lon="6.40224">
        <ele>950.4</ele>
        <time>2021-08-13T13:13:24Z</time>
      </trkpt>
      <trkpt lat="46.92641" lon="6.40204">
        <ele>949.5</ele>
        <time>2021-08-13T13:13:26Z</time>
      </trkpt>
      <trkpt lat="46.92632" lon="6.40188">
        <ele>948.8</ele>
        <time>2021-08-13T13:13:28Z</time>
      </trkpt>
      <trkpt lat="46.92627" lon="6.4018">
        <ele>948.5</ele>
        <time>2021-08-13T13:13:29Z</time>
      </trkpt>
      <trkpt lat="46.92618" lon="6.40163">
        <ele>948</ele>
        <time>2021-08-13T13:13:31Z</time>
      </trkpt>
      <trkpt lat="46.92614" lon="6.40155">
        <ele>947.9</ele>
        <time>2021-08-13T13:13:32Z</time>
      </trkpt>
      <trkpt lat="46.92605" lon="6.40142">
        <ele>947.7</ele>
        <time>2021-08-13T13:13:34Z</time>
      </trkpt>
      <trkpt lat="46.92602" lon="6.40135">
        <ele>947.6</ele>
        <time>2021-08-13T13:13:35Z</time>
      </trkpt>
      <trkpt lat="46.92596" lon="6.40114">
        <ele>947.5</ele>
        <time>2021-08-13T13:13:37Z</time>
      </trkpt>
      <trkpt lat="46.92592" lon="6.40098">
        <ele>947.3</ele>
        <time>2021-08-13T13:13:39Z</time>
      </trkpt>
      <trkpt lat="46.92587" lon="6.40082">
        <ele>947.2</ele>
        <time>2021-08-13T13:13:41Z</time>
      </trkpt>
      <trkpt lat="46.92584" lon="6.40071">
        <ele>947.1</ele>
        <time>2021-08-13T13:13:43Z</time>
      </trkpt>
      <trkpt lat="46.92582" lon="6.40065">
        <ele>947</ele>
        <time>2021-08-13T13:13:44Z</time>
      </trkpt>
      <trkpt lat="46.92577" lon="6.40054">
        <ele>946.8</ele>
        <time>2021-08-13T13:13:46Z</time>
      </trkpt>
      <trkpt lat="46.92573" lon="6.40049">
        <ele>946.6</ele>
        <time>2021-08-13T13:13:47Z</time>
      </trkpt>
      <trkpt lat="46.92565" lon="6.4004">
        <ele>946.3</ele>
        <time>2021-08-13T13:13:49Z</time>
      </trkpt>
      <trkpt lat="46.92556" lon="6.4003">
        <ele>945.7</ele>
        <time>2021-08-13T13:13:51Z</time>
      </trkpt>
      <trkpt lat="46.92512" lon="6.39935">
        <ele>947.5</ele>
        <time>2021-08-13T13:14:11Z</time>
      </trkpt>
      <trkpt lat="46.92506" lon="6.39919">
        <ele>947.3</ele>
        <time>2021-08-13T13:14:13Z</time>
      </trkpt>
      <trkpt lat="46.92503" lon="6.39912">
        <ele>947.1</ele>
        <time>2021-08-13T13:14:14Z</time>
      </trkpt>
      <trkpt lat="46.92494" lon="6.39891">
        <ele>946.8</ele>
        <time>2021-08-13T13:14:16Z</time>
      </trkpt>
      <trkpt lat="46.92489" lon="6.3988">
        <ele>946.6</ele>
        <time>2021-08-13T13:14:17Z</time>
      </trkpt>
      <trkpt lat="46.92486" lon="6.39868">
        <ele>946.5</ele>
        <time>2021-08-13T13:14:18Z</time>
      </trkpt>
      <trkpt lat="46.92483" lon="6.39858">
        <ele>946.4</ele>
        <time>2021-08-13T13:14:19Z</time>
      </trkpt>
      <trkpt lat="46.92477" lon="6.39841">
        <ele>946.4</ele>
        <time>2021-08-13T13:14:21Z</time>
      </trkpt>
      <trkpt lat="46.92472" lon="6.39829">
        <ele>946.3</ele>
        <time>2021-08-13T13:14:23Z</time>
      </trkpt>
      <trkpt lat="46.92469" lon="6.39822">
        <ele>946.3</ele>
        <time>2021-08-13T13:14:24Z</time>
      </trkpt>
      <trkpt lat="46.92467" lon="6.39817">
        <ele>946.3</ele>
        <time>2021-08-13T13:14:25Z</time>
      </trkpt>
      <trkpt lat="46.92464" lon="6.39812">
        <ele>946.4</ele>
        <time>2021-08-13T13:14:26Z</time>
      </trkpt>
      <trkpt lat="46.92459" lon="6.39804">
        <ele>946.4</ele>
        <time>2021-08-13T13:14:28Z</time>
      </trkpt>
      <trkpt lat="46.92456" lon="6.39794">
        <ele>946.5</ele>
        <time>2021-08-13T13:14:30Z</time>
      </trkpt>
      <trkpt lat="46.92453" lon="6.39781">
        <ele>946.6</ele>
        <time>2021-08-13T13:14:32Z</time>
      </trkpt>
      <trkpt lat="46.92451" lon="6.39787">
        <ele>946.6</ele>
        <time>2021-08-13T13:14:33Z</time>
      </trkpt>
      <trkpt lat="46.9245" lon="6.39779">
        <ele>946.7</ele>
        <time>2021-08-13T13:14:34Z</time>
      </trkpt>
      <trkpt lat="46.92449" lon="6.3977">
        <ele>946.7</ele>
        <time>2021-08-13T13:14:36Z</time>
      </trkpt>
      <trkpt lat="46.92449" lon="6.39762">
        <ele>946.7</ele>
        <time>2021-08-13T13:14:37Z</time>
      </trkpt>
      <trkpt lat="46.9245" lon="6.39756">
        <ele>946.8</ele>
        <time>2021-08-13T13:14:38Z</time>
      </trkpt>
      <trkpt lat="46.9245" lon="6.39752">
        <ele>946.8</ele>
        <time>2021-08-13T13:14:39Z</time>
      </trkpt>
      <trkpt lat="46.92449" lon="6.39746">
        <ele>946.8</ele>
        <time>2021-08-13T13:14:41Z</time>
      </trkpt>
      <trkpt lat="46.92448" lon="6.39742">
        <ele>946.8</ele>
        <time>2021-08-13T13:14:42Z</time>
      </trkpt>
      <trkpt lat="46.92447" lon="6.39736">
        <ele>946.8</ele>
        <time>2021-08-13T13:14:43Z</time>
      </trkpt>
      <trkpt lat="46.92446" lon="6.39732">
        <ele>946.8</ele>
        <time>2021-08-13T13:14:44Z</time>
      </trkpt>
      <trkpt lat="46.92445" lon="6.39725">
        <ele>946.8</ele>
        <time>2021-08-13T13:14:46Z</time>
      </trkpt>
      <trkpt lat="46.92444" lon="6.39721">
        <ele>946.8</ele>
        <time>2021-08-13T13:14:47Z</time>
      </trkpt>
      <trkpt lat="46.92443" lon="6.39717">
        <ele>946.9</ele>
        <time>2021-08-13T13:14:48Z</time>
      </trkpt>
      <trkpt lat="46.92441" lon="6.39713">
        <ele>946.9</ele>
        <time>2021-08-13T13:14:49Z</time>
      </trkpt>
      <trkpt lat="46.92438" lon="6.39709">
        <ele>946.9</ele>
        <time>2021-08-13T13:14:51Z</time>
      </trkpt>
      <trkpt lat="46.92436" lon="6.39707">
        <ele>947</ele>
        <time>2021-08-13T13:14:52Z</time>
      </trkpt>
      <trkpt lat="46.92435" lon="6.39704">
        <ele>947</ele>
        <time>2021-08-13T13:14:53Z</time>
      </trkpt>
      <trkpt lat="46.92434" lon="6.397">
        <ele>947</ele>
        <time>2021-08-13T13:14:54Z</time>
      </trkpt>
      <trkpt lat="46.92432" lon="6.39695">
        <ele>947.1</ele>
        <time>2021-08-13T13:14:56Z</time>
      </trkpt>
      <trkpt lat="46.92431" lon="6.39693">
        <ele>947.1</ele>
        <time>2021-08-13T13:14:57Z</time>
      </trkpt>
      <trkpt lat="46.9243" lon="6.39692">
        <ele>947.1</ele>
        <time>2021-08-13T13:14:58Z</time>
      </trkpt>
      <trkpt lat="46.92429" lon="6.3969">
        <ele>947</ele>
        <time>2021-08-13T13:14:59Z</time>
      </trkpt>
      <trkpt lat="46.92429" lon="6.39686">
        <ele>946.9</ele>
        <time>2021-08-13T13:15:01Z</time>
      </trkpt>
      <trkpt lat="46.92428" lon="6.39682">
        <ele>946.8</ele>
        <time>2021-08-13T13:15:02Z</time>
      </trkpt>
      <trkpt lat="46.92427" lon="6.39679">
        <ele>946.7</ele>
        <time>2021-08-13T13:15:04Z</time>
      </trkpt>
      <trkpt lat="46.92424" lon="6.39674">
        <ele>946.6</ele>
        <time>2021-08-13T13:15:05Z</time>
      </trkpt>
      <trkpt lat="46.92422" lon="6.3967">
        <ele>946.4</ele>
        <time>2021-08-13T13:15:07Z</time>
      </trkpt>
      <trkpt lat="46.92421" lon="6.39668">
        <ele>946.4</ele>
        <time>2021-08-13T13:15:08Z</time>
      </trkpt>
      <trkpt lat="46.92415" lon="6.39663">
        <ele>946.1</ele>
        <time>2021-08-13T13:15:09Z</time>
      </trkpt>
      <trkpt lat="46.92399" lon="6.39648">
        <ele>945.5</ele>
        <time>2021-08-13T13:15:11Z</time>
      </trkpt>
      <trkpt lat="46.92388" lon="6.39644">
        <ele>945.2</ele>
        <time>2021-08-13T13:15:12Z</time>
      </trkpt>
      <trkpt lat="46.92375" lon="6.39644">
        <ele>944.9</ele>
        <time>2021-08-13T13:15:13Z</time>
      </trkpt>
      <trkpt lat="46.92358" lon="6.39638">
        <ele>944.4</ele>
        <time>2021-08-13T13:15:15Z</time>
      </trkpt>
      <trkpt lat="46.92345" lon="6.39633">
        <ele>943.9</ele>
        <time>2021-08-13T13:15:17Z</time>
      </trkpt>
      <trkpt lat="46.92342" lon="6.39631">
        <ele>943.7</ele>
        <time>2021-08-13T13:15:18Z</time>
      </trkpt>
      <trkpt lat="46.9234" lon="6.3963">
        <ele>943.7</ele>
        <time>2021-08-13T13:15:19Z</time>
      </trkpt>
      <trkpt lat="46.92337" lon="6.39628">
        <ele>943.5</ele>
        <time>2021-08-13T13:15:20Z</time>
      </trkpt>
      <trkpt lat="46.92335" lon="6.39627">
        <ele>943.4</ele>
        <time>2021-08-13T13:15:22Z</time>
      </trkpt>
      <trkpt lat="46.92332" lon="6.39625">
        <ele>943.2</ele>
        <time>2021-08-13T13:15:24Z</time>
      </trkpt>
      <trkpt lat="46.92323" lon="6.39619">
        <ele>942.7</ele>
        <time>2021-08-13T13:15:25Z</time>
      </trkpt>
      <trkpt lat="46.92313" lon="6.39612">
        <ele>942</ele>
        <time>2021-08-13T13:15:26Z</time>
      </trkpt>
      <trkpt lat="46.92309" lon="6.39608">
        <ele>941.7</ele>
        <time>2021-08-13T13:15:27Z</time>
      </trkpt>
      <trkpt lat="46.92095" lon="6.3906">
        <ele>924.8</ele>
        <time>2021-08-13T13:16:26Z</time>
      </trkpt>
      <trkpt lat="46.92082" lon="6.39037">
        <ele>923.6</ele>
        <time>2021-08-13T13:16:28Z</time>
      </trkpt>
      <trkpt lat="46.92074" lon="6.39028">
        <ele>923</ele>
        <time>2021-08-13T13:16:29Z</time>
      </trkpt>
      <trkpt lat="46.92063" lon="6.39005">
        <ele>921.8</ele>
        <time>2021-08-13T13:16:31Z</time>
      </trkpt>
      <trkpt lat="46.92057" lon="6.3899">
        <ele>921.2</ele>
        <time>2021-08-13T13:16:32Z</time>
      </trkpt>
      <trkpt lat="46.92047" lon="6.38961">
        <ele>920.1</ele>
        <time>2021-08-13T13:16:34Z</time>
      </trkpt>
      <trkpt lat="46.92042" lon="6.38945">
        <ele>919.5</ele>
        <time>2021-08-13T13:16:35Z</time>
      </trkpt>
      <trkpt lat="46.92038" lon="6.38931">
        <ele>918.9</ele>
        <time>2021-08-13T13:16:36Z</time>
      </trkpt>
      <trkpt lat="46.9203" lon="6.38904">
        <ele>917.9</ele>
        <time>2021-08-13T13:16:38Z</time>
      </trkpt>
      <trkpt lat="46.92026" lon="6.38892">
        <ele>917.3</ele>
        <time>2021-08-13T13:16:39Z</time>
      </trkpt>
      <trkpt lat="46.92016" lon="6.38868">
        <ele>916</ele>
        <time>2021-08-13T13:16:41Z</time>
      </trkpt>
      <trkpt lat="46.92001" lon="6.38843">
        <ele>914.3</ele>
        <time>2021-08-13T13:16:43Z</time>
      </trkpt>
      <trkpt lat="46.91996" lon="6.38834">
        <ele>913.9</ele>
        <time>2021-08-13T13:16:44Z</time>
      </trkpt>
      <trkpt lat="46.91994" lon="6.38829">
        <ele>913.6</ele>
        <time>2021-08-13T13:16:46Z</time>
      </trkpt>
      <trkpt lat="46.91991" lon="6.38824">
        <ele>913.4</ele>
        <time>2021-08-13T13:16:48Z</time>
      </trkpt>
      <trkpt lat="46.9199" lon="6.38822">
        <ele>913.3</ele>
        <time>2021-08-13T13:16:49Z</time>
      </trkpt>
      <trkpt lat="46.9199" lon="6.38821">
        <ele>913.2</ele>
        <time>2021-08-13T13:16:51Z</time>
      </trkpt>
      <trkpt lat="46.9199" lon="6.3882">
        <ele>913.2</ele>
        <time>2021-08-13T13:16:52Z</time>
      </trkpt>
      <trkpt lat="46.9199" lon="6.38819">
        <ele>913.2</ele>
        <time>2021-08-13T13:16:53Z</time>
      </trkpt>
      <trkpt lat="46.91988" lon="6.38818">
        <ele>913.1</ele>
        <time>2021-08-13T13:16:54Z</time>
      </trkpt>
      <trkpt lat="46.91851" lon="6.38713">
        <ele>901.7</ele>
        <time>2021-08-13T13:17:41Z</time>
      </trkpt>
      <trkpt lat="46.91847" lon="6.38706">
        <ele>901.3</ele>
        <time>2021-08-13T13:17:42Z</time>
      </trkpt>
      <trkpt lat="46.91845" lon="6.38702">
        <ele>901</ele>
        <time>2021-08-13T13:17:43Z</time>
      </trkpt>
      <trkpt lat="46.9184" lon="6.38699">
        <ele>900.6</ele>
        <time>2021-08-13T13:17:44Z</time>
      </trkpt>
      <trkpt lat="46.91837" lon="6.38697">
        <ele>900.3</ele>
        <time>2021-08-13T13:17:45Z</time>
      </trkpt>
      <trkpt lat="46.9183" lon="6.38691">
        <ele>899.7</ele>
        <time>2021-08-13T13:17:47Z</time>
      </trkpt>
      <trkpt lat="46.91826" lon="6.38686">
        <ele>899.3</ele>
        <time>2021-08-13T13:17:48Z</time>
      </trkpt>
      <trkpt lat="46.91824" lon="6.38683">
        <ele>899.1</ele>
        <time>2021-08-13T13:17:49Z</time>
      </trkpt>
      <trkpt lat="46.91823" lon="6.3868">
        <ele>899</ele>
        <time>2021-08-13T13:17:50Z</time>
      </trkpt>
      <trkpt lat="46.91822" lon="6.38678">
        <ele>898.8</ele>
        <time>2021-08-13T13:17:52Z</time>
      </trkpt>
      <trkpt lat="46.91821" lon="6.38674">
        <ele>898.6</ele>
        <time>2021-08-13T13:17:54Z</time>
      </trkpt>
      <trkpt lat="46.91762" lon="6.38628">
        <ele>892.8</ele>
        <time>2021-08-13T13:18:04Z</time>
      </trkpt>
      <trkpt lat="46.91736" lon="6.38602">
        <ele>890.1</ele>
        <time>2021-08-13T13:18:05Z</time>
      </trkpt>
      <trkpt lat="46.91732" lon="6.38598">
        <ele>889.6</ele>
        <time>2021-08-13T13:18:07Z</time>
      </trkpt>
      <trkpt lat="46.91729" lon="6.38595">
        <ele>889.3</ele>
        <time>2021-08-13T13:18:08Z</time>
      </trkpt>
      <trkpt lat="46.91664" lon="6.38537">
        <ele>883</ele>
        <time>2021-08-13T13:18:10Z</time>
      </trkpt>
      <trkpt lat="46.91657" lon="6.3853">
        <ele>882.6</ele>
        <time>2021-08-13T13:18:11Z</time>
      </trkpt>
      <trkpt lat="46.91636" lon="6.38512">
        <ele>881.8</ele>
        <time>2021-08-13T13:18:13Z</time>
      </trkpt>
      <trkpt lat="46.91628" lon="6.38502">
        <ele>881.5</ele>
        <time>2021-08-13T13:18:14Z</time>
      </trkpt>
      <trkpt lat="46.91619" lon="6.38491">
        <ele>881.2</ele>
        <time>2021-08-13T13:18:15Z</time>
      </trkpt>
      <trkpt lat="46.91605" lon="6.38469">
        <ele>880.7</ele>
        <time>2021-08-13T13:18:17Z</time>
      </trkpt>
      <trkpt lat="46.91591" lon="6.38451">
        <ele>880.3</ele>
        <time>2021-08-13T13:18:19Z</time>
      </trkpt>
      <trkpt lat="46.91579" lon="6.3843">
        <ele>879.9</ele>
        <time>2021-08-13T13:18:21Z</time>
      </trkpt>
      <trkpt lat="46.91574" lon="6.38421">
        <ele>879.7</ele>
        <time>2021-08-13T13:18:22Z</time>
      </trkpt>
      <trkpt lat="46.91569" lon="6.38412">
        <ele>879.5</ele>
        <time>2021-08-13T13:18:23Z</time>
      </trkpt>
      <trkpt lat="46.91556" lon="6.38387">
        <ele>878.8</ele>
        <time>2021-08-13T13:18:25Z</time>
      </trkpt>
      <trkpt lat="46.91541" lon="6.38366">
        <ele>878.1</ele>
        <time>2021-08-13T13:18:27Z</time>
      </trkpt>
      <trkpt lat="46.91533" lon="6.38357">
        <ele>877.7</ele>
        <time>2021-08-13T13:18:28Z</time>
      </trkpt>
      <trkpt lat="46.91519" lon="6.38342">
        <ele>877.2</ele>
        <time>2021-08-13T13:18:30Z</time>
      </trkpt>
      <trkpt lat="46.91512" lon="6.38337">
        <ele>877</ele>
        <time>2021-08-13T13:18:31Z</time>
      </trkpt>
      <trkpt lat="46.91505" lon="6.38331">
        <ele>876.8</ele>
        <time>2021-08-13T13:18:33Z</time>
      </trkpt>
      <trkpt lat="46.91502" lon="6.38329">
        <ele>876.8</ele>
        <time>2021-08-13T13:18:34Z</time>
      </trkpt>
      <trkpt lat="46.91493" lon="6.38325">
        <ele>876.6</ele>
        <time>2021-08-13T13:18:36Z</time>
      </trkpt>
      <trkpt lat="46.91488" lon="6.38322">
        <ele>876.6</ele>
        <time>2021-08-13T13:18:37Z</time>
      </trkpt>
      <trkpt lat="46.91481" lon="6.38319">
        <ele>876.5</ele>
        <time>2021-08-13T13:18:39Z</time>
      </trkpt>
      <trkpt lat="46.91474" lon="6.38317">
        <ele>876.3</ele>
        <time>2021-08-13T13:18:41Z</time>
      </trkpt>
      <trkpt lat="46.91454" lon="6.38315">
        <ele>875.9</ele>
        <time>2021-08-13T13:18:45Z</time>
      </trkpt>
      <trkpt lat="46.9144" lon="6.38312">
        <ele>875.5</ele>
        <time>2021-08-13T13:18:47Z</time>
      </trkpt>
      <trkpt lat="46.91431" lon="6.38306">
        <ele>875.2</ele>
        <time>2021-08-13T13:18:49Z</time>
      </trkpt>
      <trkpt lat="46.91419" lon="6.38294">
        <ele>874.6</ele>
        <time>2021-08-13T13:18:51Z</time>
      </trkpt>
      <trkpt lat="46.91411" lon="6.38289">
        <ele>874.4</ele>
        <time>2021-08-13T13:18:52Z</time>
      </trkpt>
      <trkpt lat="46.91403" lon="6.38284">
        <ele>874.1</ele>
        <time>2021-08-13T13:18:53Z</time>
      </trkpt>
      <trkpt lat="46.9139" lon="6.38277">
        <ele>873.8</ele>
        <time>2021-08-13T13:18:55Z</time>
      </trkpt>
      <trkpt lat="46.91378" lon="6.38271">
        <ele>873.5</ele>
        <time>2021-08-13T13:18:57Z</time>
      </trkpt>
      <trkpt lat="46.91373" lon="6.38269">
        <ele>873.4</ele>
        <time>2021-08-13T13:18:58Z</time>
      </trkpt>
      <trkpt lat="46.91362" lon="6.38262">
        <ele>873</ele>
        <time>2021-08-13T13:19:00Z</time>
      </trkpt>
      <trkpt lat="46.91357" lon="6.38257">
        <ele>872.8</ele>
        <time>2021-08-13T13:19:01Z</time>
      </trkpt>
      <trkpt lat="46.91348" lon="6.38248">
        <ele>872.3</ele>
        <time>2021-08-13T13:19:03Z</time>
      </trkpt>
      <trkpt lat="46.91344" lon="6.38244">
        <ele>872.1</ele>
        <time>2021-08-13T13:19:04Z</time>
      </trkpt>
      <trkpt lat="46.91341" lon="6.3824">
        <ele>871.9</ele>
        <time>2021-08-13T13:19:05Z</time>
      </trkpt>
      <trkpt lat="46.91333" lon="6.38231">
        <ele>871.5</ele>
        <time>2021-08-13T13:19:07Z</time>
      </trkpt>
      <trkpt lat="46.91329" lon="6.38226">
        <ele>871.3</ele>
        <time>2021-08-13T13:19:08Z</time>
      </trkpt>
      <trkpt lat="46.91321" lon="6.38215">
        <ele>871</ele>
        <time>2021-08-13T13:19:10Z</time>
      </trkpt>
      <trkpt lat="46.91317" lon="6.3821">
        <ele>870.8</ele>
        <time>2021-08-13T13:19:11Z</time>
      </trkpt>
      <trkpt lat="46.91313" lon="6.38205">
        <ele>870.5</ele>
        <time>2021-08-13T13:19:12Z</time>
      </trkpt>
      <trkpt lat="46.91304" lon="6.38195">
        <ele>869.9</ele>
        <time>2021-08-13T13:19:14Z</time>
      </trkpt>
      <trkpt lat="46.91296" lon="6.38185">
        <ele>869.3</ele>
        <time>2021-08-13T13:19:16Z</time>
      </trkpt>
      <trkpt lat="46.91291" lon="6.38177">
        <ele>868.9</ele>
        <time>2021-08-13T13:19:17Z</time>
      </trkpt>
      <trkpt lat="46.91282" lon="6.38161">
        <ele>868.2</ele>
        <time>2021-08-13T13:19:19Z</time>
      </trkpt>
      <trkpt lat="46.91274" lon="6.38145">
        <ele>867.4</ele>
        <time>2021-08-13T13:19:21Z</time>
      </trkpt>
      <trkpt lat="46.91267" lon="6.38126">
        <ele>866.4</ele>
        <time>2021-08-13T13:19:23Z</time>
      </trkpt>
      <trkpt lat="46.91258" lon="6.38108">
        <ele>865.4</ele>
        <time>2021-08-13T13:19:25Z</time>
      </trkpt>
      <trkpt lat="46.91249" lon="6.38093">
        <ele>864.4</ele>
        <time>2021-08-13T13:19:27Z</time>
      </trkpt>
      <trkpt lat="46.91244" lon="6.38085">
        <ele>863.9</ele>
        <time>2021-08-13T13:19:28Z</time>
      </trkpt>
      <trkpt lat="46.91234" lon="6.38067">
        <ele>863</ele>
        <time>2021-08-13T13:19:30Z</time>
      </trkpt>
      <trkpt lat="46.91229" lon="6.38058">
        <ele>862.5</ele>
        <time>2021-08-13T13:19:31Z</time>
      </trkpt>
      <trkpt lat="46.91216" lon="6.3804">
        <ele>861.5</ele>
        <time>2021-08-13T13:19:33Z</time>
      </trkpt>
      <trkpt lat="46.9121" lon="6.38031">
        <ele>860.9</ele>
        <time>2021-08-13T13:19:34Z</time>
      </trkpt>
      <trkpt lat="46.91196" lon="6.38013">
        <ele>859.9</ele>
        <time>2021-08-13T13:19:36Z</time>
      </trkpt>
      <trkpt lat="46.91188" lon="6.38004">
        <ele>859.4</ele>
        <time>2021-08-13T13:19:37Z</time>
      </trkpt>
      <trkpt lat="46.91181" lon="6.37994">
        <ele>858.9</ele>
        <time>2021-08-13T13:19:38Z</time>
      </trkpt>
      <trkpt lat="46.91173" lon="6.37984">
        <ele>858.3</ele>
        <time>2021-08-13T13:19:39Z</time>
      </trkpt>
      <trkpt lat="46.91166" lon="6.37976">
        <ele>857.8</ele>
        <time>2021-08-13T13:19:40Z</time>
      </trkpt>
      <trkpt lat="46.91159" lon="6.37968">
        <ele>857.3</ele>
        <time>2021-08-13T13:19:41Z</time>
      </trkpt>
      <trkpt lat="46.91146" lon="6.37945">
        <ele>856.1</ele>
        <time>2021-08-13T13:19:43Z</time>
      </trkpt>
      <trkpt lat="46.91135" lon="6.37922">
        <ele>855.2</ele>
        <time>2021-08-13T13:19:45Z</time>
      </trkpt>
      <trkpt lat="46.91129" lon="6.3791">
        <ele>854.6</ele>
        <time>2021-08-13T13:19:46Z</time>
      </trkpt>
      <trkpt lat="46.91123" lon="6.37898">
        <ele>854.1</ele>
        <time>2021-08-13T13:19:47Z</time>
      </trkpt>
      <trkpt lat="46.9111" lon="6.37868">
        <ele>852.6</ele>
        <time>2021-08-13T13:19:49Z</time>
      </trkpt>
      <trkpt lat="46.91097" lon="6.37837">
        <ele>851</ele>
        <time>2021-08-13T13:19:51Z</time>
      </trkpt>
      <trkpt lat="46.91081" lon="6.3781">
        <ele>849.5</ele>
        <time>2021-08-13T13:19:53Z</time>
      </trkpt>
      <trkpt lat="46.91067" lon="6.37786">
        <ele>848.7</ele>
        <time>2021-08-13T13:19:55Z</time>
      </trkpt>
      <trkpt lat="46.91055" lon="6.37763">
        <ele>848.2</ele>
        <time>2021-08-13T13:19:57Z</time>
      </trkpt>
      <trkpt lat="46.91049" lon="6.37753">
        <ele>847.9</ele>
        <time>2021-08-13T13:19:58Z</time>
      </trkpt>
      <trkpt lat="46.91042" lon="6.37744">
        <ele>847.7</ele>
        <time>2021-08-13T13:19:59Z</time>
      </trkpt>
      <trkpt lat="46.91029" lon="6.37728">
        <ele>847.3</ele>
        <time>2021-08-13T13:20:01Z</time>
      </trkpt>
      <trkpt lat="46.91022" lon="6.37721">
        <ele>847.1</ele>
        <time>2021-08-13T13:20:02Z</time>
      </trkpt>
      <trkpt lat="46.9101" lon="6.37708">
        <ele>846.9</ele>
        <time>2021-08-13T13:20:04Z</time>
      </trkpt>
      <trkpt lat="46.91004" lon="6.37701">
        <ele>846.7</ele>
        <time>2021-08-13T13:20:05Z</time>
      </trkpt>
      <trkpt lat="46.90994" lon="6.37688">
        <ele>846.6</ele>
        <time>2021-08-13T13:20:07Z</time>
      </trkpt>
      <trkpt lat="46.9099" lon="6.37683">
        <ele>846.5</ele>
        <time>2021-08-13T13:20:08Z</time>
      </trkpt>
      <trkpt lat="46.90986" lon="6.37677">
        <ele>846.3</ele>
        <time>2021-08-13T13:20:09Z</time>
      </trkpt>
      <trkpt lat="46.90981" lon="6.37672">
        <ele>846.2</ele>
        <time>2021-08-13T13:20:10Z</time>
      </trkpt>
      <trkpt lat="46.90971" lon="6.37664">
        <ele>845.9</ele>
        <time>2021-08-13T13:20:12Z</time>
      </trkpt>
      <trkpt lat="46.9096" lon="6.37656">
        <ele>845.5</ele>
        <time>2021-08-13T13:20:14Z</time>
      </trkpt>
      <trkpt lat="46.90954" lon="6.37651">
        <ele>845.2</ele>
        <time>2021-08-13T13:20:15Z</time>
      </trkpt>
      <trkpt lat="46.90944" lon="6.37642">
        <ele>844.8</ele>
        <time>2021-08-13T13:20:17Z</time>
      </trkpt>
      <trkpt lat="46.90939" lon="6.37637">
        <ele>844.6</ele>
        <time>2021-08-13T13:20:18Z</time>
      </trkpt>
      <trkpt lat="46.90929" lon="6.37627">
        <ele>844.1</ele>
        <time>2021-08-13T13:20:20Z</time>
      </trkpt>
      <trkpt lat="46.90923" lon="6.37625">
        <ele>844</ele>
        <time>2021-08-13T13:20:21Z</time>
      </trkpt>
      <trkpt lat="46.90911" lon="6.37622">
        <ele>843.7</ele>
        <time>2021-08-13T13:20:23Z</time>
      </trkpt>
      <trkpt lat="46.90898" lon="6.37616">
        <ele>843.5</ele>
        <time>2021-08-13T13:20:25Z</time>
      </trkpt>
      <trkpt lat="46.90892" lon="6.37613">
        <ele>843.4</ele>
        <time>2021-08-13T13:20:26Z</time>
      </trkpt>
      <trkpt lat="46.90886" lon="6.37609">
        <ele>843.4</ele>
        <time>2021-08-13T13:20:27Z</time>
      </trkpt>
      <trkpt lat="46.90881" lon="6.37605">
        <ele>843.3</ele>
        <time>2021-08-13T13:20:28Z</time>
      </trkpt>
      <trkpt lat="46.90871" lon="6.37596">
        <ele>843.1</ele>
        <time>2021-08-13T13:20:30Z</time>
      </trkpt>
      <trkpt lat="46.90867" lon="6.37591">
        <ele>843.1</ele>
        <time>2021-08-13T13:20:31Z</time>
      </trkpt>
      <trkpt lat="46.90857" lon="6.37584">
        <ele>842.9</ele>
        <time>2021-08-13T13:20:33Z</time>
      </trkpt>
      <trkpt lat="46.90849" lon="6.37576">
        <ele>842.8</ele>
        <time>2021-08-13T13:20:35Z</time>
      </trkpt>
      <trkpt lat="46.90844" lon="6.37572">
        <ele>842.8</ele>
        <time>2021-08-13T13:20:36Z</time>
      </trkpt>
      <trkpt lat="46.90841" lon="6.37568">
        <ele>842.7</ele>
        <time>2021-08-13T13:20:37Z</time>
      </trkpt>
      <trkpt lat="46.90837" lon="6.37564">
        <ele>842.6</ele>
        <time>2021-08-13T13:20:38Z</time>
      </trkpt>
      <trkpt lat="46.90832" lon="6.37558">
        <ele>842.6</ele>
        <time>2021-08-13T13:20:40Z</time>
      </trkpt>
      <trkpt lat="46.90829" lon="6.37553">
        <ele>842.5</ele>
        <time>2021-08-13T13:20:41Z</time>
      </trkpt>
      <trkpt lat="46.90825" lon="6.37541">
        <ele>842.4</ele>
        <time>2021-08-13T13:20:43Z</time>
      </trkpt>
      <trkpt lat="46.90823" lon="6.37532">
        <ele>842.2</ele>
        <time>2021-08-13T13:20:44Z</time>
      </trkpt>
      <trkpt lat="46.9082" lon="6.37524">
        <ele>842.1</ele>
        <time>2021-08-13T13:20:45Z</time>
      </trkpt>
      <trkpt lat="46.90816" lon="6.37516">
        <ele>842</ele>
        <time>2021-08-13T13:20:47Z</time>
      </trkpt>
      <trkpt lat="46.90814" lon="6.37513">
        <ele>841.9</ele>
        <time>2021-08-13T13:20:48Z</time>
      </trkpt>
      <trkpt lat="46.90812" lon="6.37511">
        <ele>841.9</ele>
        <time>2021-08-13T13:20:49Z</time>
      </trkpt>
      <trkpt lat="46.90807" lon="6.375">
        <ele>841.7</ele>
        <time>2021-08-13T13:20:50Z</time>
      </trkpt>
      <trkpt lat="46.90804" lon="6.37488">
        <ele>841.5</ele>
        <time>2021-08-13T13:20:52Z</time>
      </trkpt>
      <trkpt lat="46.90796" lon="6.37479">
        <ele>841.3</ele>
        <time>2021-08-13T13:20:53Z</time>
      </trkpt>
      <trkpt lat="46.90789" lon="6.37467">
        <ele>841.1</ele>
        <time>2021-08-13T13:20:55Z</time>
      </trkpt>
      <trkpt lat="46.90786" lon="6.37465">
        <ele>841.1</ele>
        <time>2021-08-13T13:20:57Z</time>
      </trkpt>
      <trkpt lat="46.90779" lon="6.37457">
        <ele>840.9</ele>
        <time>2021-08-13T13:20:58Z</time>
      </trkpt>
      <trkpt lat="46.90775" lon="6.37454">
        <ele>840.9</ele>
        <time>2021-08-13T13:21:00Z</time>
      </trkpt>
      <trkpt lat="46.9077" lon="6.3745">
        <ele>840.7</ele>
        <time>2021-08-13T13:21:01Z</time>
      </trkpt>
      <trkpt lat="46.90766" lon="6.37445">
        <ele>840.6</ele>
        <time>2021-08-13T13:21:02Z</time>
      </trkpt>
      <trkpt lat="46.90761" lon="6.37441">
        <ele>840.5</ele>
        <time>2021-08-13T13:21:03Z</time>
      </trkpt>
      <trkpt lat="46.90758" lon="6.37438">
        <ele>840.5</ele>
        <time>2021-08-13T13:21:05Z</time>
      </trkpt>
      <trkpt lat="46.90754" lon="6.37435">
        <ele>840.4</ele>
        <time>2021-08-13T13:21:06Z</time>
      </trkpt>
      <trkpt lat="46.90741" lon="6.37424">
        <ele>840.2</ele>
        <time>2021-08-13T13:21:08Z</time>
      </trkpt>
      <trkpt lat="46.90714" lon="6.3739">
        <ele>839.7</ele>
        <time>2021-08-13T13:21:13Z</time>
      </trkpt>
      <trkpt lat="46.90712" lon="6.37386">
        <ele>839.7</ele>
        <time>2021-08-13T13:21:14Z</time>
      </trkpt>
      <trkpt lat="46.90711" lon="6.37383">
        <ele>839.6</ele>
        <time>2021-08-13T13:21:15Z</time>
      </trkpt>
      <trkpt lat="46.9071" lon="6.37375">
        <ele>839.6</ele>
        <time>2021-08-13T13:21:17Z</time>
      </trkpt>
      <trkpt lat="46.90707" lon="6.37367">
        <ele>839.5</ele>
        <time>2021-08-13T13:21:18Z</time>
      </trkpt>
      <trkpt lat="46.90703" lon="6.3736">
        <ele>839.4</ele>
        <time>2021-08-13T13:21:19Z</time>
      </trkpt>
      <trkpt lat="46.90701" lon="6.37354">
        <ele>839.4</ele>
        <time>2021-08-13T13:21:20Z</time>
      </trkpt>
      <trkpt lat="46.90697" lon="6.37346">
        <ele>839.3</ele>
        <time>2021-08-13T13:21:22Z</time>
      </trkpt>
      <trkpt lat="46.90693" lon="6.3734">
        <ele>839.2</ele>
        <time>2021-08-13T13:21:23Z</time>
      </trkpt>
      <trkpt lat="46.90687" lon="6.37332">
        <ele>839.1</ele>
        <time>2021-08-13T13:21:25Z</time>
      </trkpt>
      <trkpt lat="46.90679" lon="6.37325">
        <ele>838.9</ele>
        <time>2021-08-13T13:21:27Z</time>
      </trkpt>
      <trkpt lat="46.90676" lon="6.3732">
        <ele>838.9</ele>
        <time>2021-08-13T13:21:28Z</time>
      </trkpt>
      <trkpt lat="46.90674" lon="6.37314">
        <ele>838.8</ele>
        <time>2021-08-13T13:21:29Z</time>
      </trkpt>
      <trkpt lat="46.90672" lon="6.37311">
        <ele>838.7</ele>
        <time>2021-08-13T13:21:30Z</time>
      </trkpt>
      <trkpt lat="46.90665" lon="6.37299">
        <ele>838.6</ele>
        <time>2021-08-13T13:21:32Z</time>
      </trkpt>
      <trkpt lat="46.9066" lon="6.37291">
        <ele>838.5</ele>
        <time>2021-08-13T13:21:34Z</time>
      </trkpt>
      <trkpt lat="46.90651" lon="6.37279">
        <ele>838.3</ele>
        <time>2021-08-13T13:21:36Z</time>
      </trkpt>
      <trkpt lat="46.90646" lon="6.37274">
        <ele>838.3</ele>
        <time>2021-08-13T13:21:37Z</time>
      </trkpt>
      <trkpt lat="46.90641" lon="6.3727">
        <ele>838.2</ele>
        <time>2021-08-13T13:21:39Z</time>
      </trkpt>
      <trkpt lat="46.90635" lon="6.3726">
        <ele>838.1</ele>
        <time>2021-08-13T13:21:40Z</time>
      </trkpt>
      <trkpt lat="46.9063" lon="6.37253">
        <ele>838</ele>
        <time>2021-08-13T13:21:41Z</time>
      </trkpt>
      <trkpt lat="46.90623" lon="6.37242">
        <ele>837.9</ele>
        <time>2021-08-13T13:21:43Z</time>
      </trkpt>
      <trkpt lat="46.9062" lon="6.37236">
        <ele>837.8</ele>
        <time>2021-08-13T13:21:44Z</time>
      </trkpt>
      <trkpt lat="46.90617" lon="6.37223">
        <ele>837.6</ele>
        <time>2021-08-13T13:21:46Z</time>
      </trkpt>
      <trkpt lat="46.90616" lon="6.37216">
        <ele>837.5</ele>
        <time>2021-08-13T13:21:47Z</time>
      </trkpt>
      <trkpt lat="46.90617" lon="6.37202">
        <ele>837.4</ele>
        <time>2021-08-13T13:21:49Z</time>
      </trkpt>
      <trkpt lat="46.90617" lon="6.37188">
        <ele>837.3</ele>
        <time>2021-08-13T13:21:51Z</time>
      </trkpt>
      <trkpt lat="46.90616" lon="6.37173">
        <ele>837.2</ele>
        <time>2021-08-13T13:21:53Z</time>
      </trkpt>
      <trkpt lat="46.90615" lon="6.37169">
        <ele>837.1</ele>
        <time>2021-08-13T13:21:54Z</time>
      </trkpt>
      <trkpt lat="46.90612" lon="6.37162">
        <ele>837.1</ele>
        <time>2021-08-13T13:21:55Z</time>
      </trkpt>
      <trkpt lat="46.90605" lon="6.37147">
        <ele>837.1</ele>
        <time>2021-08-13T13:21:57Z</time>
      </trkpt>
      <trkpt lat="46.90603" lon="6.37139">
        <ele>837</ele>
        <time>2021-08-13T13:21:58Z</time>
      </trkpt>
      <trkpt lat="46.90598" lon="6.37125">
        <ele>836.9</ele>
        <time>2021-08-13T13:22:00Z</time>
      </trkpt>
      <trkpt lat="46.90597" lon="6.37117">
        <ele>836.9</ele>
        <time>2021-08-13T13:22:01Z</time>
      </trkpt>
      <trkpt lat="46.90595" lon="6.37105">
        <ele>836.8</ele>
        <time>2021-08-13T13:22:03Z</time>
      </trkpt>
      <trkpt lat="46.90595" lon="6.37087">
        <ele>836.7</ele>
        <time>2021-08-13T13:22:05Z</time>
      </trkpt>
      <trkpt lat="46.90595" lon="6.3708">
        <ele>836.7</ele>
        <time>2021-08-13T13:22:06Z</time>
      </trkpt>
      <trkpt lat="46.90594" lon="6.37073">
        <ele>836.6</ele>
        <time>2021-08-13T13:22:07Z</time>
      </trkpt>
      <trkpt lat="46.90594" lon="6.37066">
        <ele>836.6</ele>
        <time>2021-08-13T13:22:08Z</time>
      </trkpt>
      <trkpt lat="46.90592" lon="6.37062">
        <ele>836.5</ele>
        <time>2021-08-13T13:22:10Z</time>
      </trkpt>
      <trkpt lat="46.90592" lon="6.37058">
        <ele>836.5</ele>
        <time>2021-08-13T13:22:11Z</time>
      </trkpt>
      <trkpt lat="46.90593" lon="6.37049">
        <ele>836.5</ele>
        <time>2021-08-13T13:22:12Z</time>
      </trkpt>
      <trkpt lat="46.90591" lon="6.37041">
        <ele>836.4</ele>
        <time>2021-08-13T13:22:13Z</time>
      </trkpt>
      <trkpt lat="46.9059" lon="6.37033">
        <ele>836.4</ele>
        <time>2021-08-13T13:22:14Z</time>
      </trkpt>
      <trkpt lat="46.90589" lon="6.37024">
        <ele>836.3</ele>
        <time>2021-08-13T13:22:16Z</time>
      </trkpt>
      <trkpt lat="46.90587" lon="6.37013">
        <ele>836.2</ele>
        <time>2021-08-13T13:22:17Z</time>
      </trkpt>
      <trkpt lat="46.90586" lon="6.37005">
        <ele>836.1</ele>
        <time>2021-08-13T13:22:18Z</time>
      </trkpt>
      <trkpt lat="46.90586" lon="6.3699">
        <ele>835.9</ele>
        <time>2021-08-13T13:22:20Z</time>
      </trkpt>
      <trkpt lat="46.90585" lon="6.36982">
        <ele>835.8</ele>
        <time>2021-08-13T13:22:21Z</time>
      </trkpt>
      <trkpt lat="46.90585" lon="6.3697">
        <ele>835.7</ele>
        <time>2021-08-13T13:22:23Z</time>
      </trkpt>
      <trkpt lat="46.90586" lon="6.36965">
        <ele>835.7</ele>
        <time>2021-08-13T13:22:24Z</time>
      </trkpt>
      <trkpt lat="46.90586" lon="6.36961">
        <ele>835.6</ele>
        <time>2021-08-13T13:22:26Z</time>
      </trkpt>
      <trkpt lat="46.90586" lon="6.36954">
        <ele>835.5</ele>
        <time>2021-08-13T13:22:27Z</time>
      </trkpt>
      <trkpt lat="46.90585" lon="6.3694">
        <ele>835.4</ele>
        <time>2021-08-13T13:22:29Z</time>
      </trkpt>
      <trkpt lat="46.90585" lon="6.36933">
        <ele>835.4</ele>
        <time>2021-08-13T13:22:30Z</time>
      </trkpt>
      <trkpt lat="46.90585" lon="6.36928">
        <ele>835.4</ele>
        <time>2021-08-13T13:22:31Z</time>
      </trkpt>
      <trkpt lat="46.90586" lon="6.3692">
        <ele>835.3</ele>
        <time>2021-08-13T13:22:32Z</time>
      </trkpt>
      <trkpt lat="46.90586" lon="6.3691">
        <ele>835.3</ele>
        <time>2021-08-13T13:22:34Z</time>
      </trkpt>
      <trkpt lat="46.90586" lon="6.36904">
        <ele>835.2</ele>
        <time>2021-08-13T13:22:35Z</time>
      </trkpt>
      <trkpt lat="46.90584" lon="6.36891">
        <ele>835.1</ele>
        <time>2021-08-13T13:22:37Z</time>
      </trkpt>
      <trkpt lat="46.90584" lon="6.36885">
        <ele>835.1</ele>
        <time>2021-08-13T13:22:38Z</time>
      </trkpt>
      <trkpt lat="46.90584" lon="6.36873">
        <ele>835</ele>
        <time>2021-08-13T13:22:40Z</time>
      </trkpt>
      <trkpt lat="46.90584" lon="6.36867">
        <ele>835</ele>
        <time>2021-08-13T13:22:41Z</time>
      </trkpt>
      <trkpt lat="46.90584" lon="6.36857">
        <ele>834.9</ele>
        <time>2021-08-13T13:22:43Z</time>
      </trkpt>
      <trkpt lat="46.90584" lon="6.36846">
        <ele>834.9</ele>
        <time>2021-08-13T13:22:45Z</time>
      </trkpt>
      <trkpt lat="46.90582" lon="6.3684">
        <ele>834.9</ele>
        <time>2021-08-13T13:22:46Z</time>
      </trkpt>
      <trkpt lat="46.9058" lon="6.36836">
        <ele>834.8</ele>
        <time>2021-08-13T13:22:47Z</time>
      </trkpt>
      <trkpt lat="46.90578" lon="6.36834">
        <ele>834.8</ele>
        <time>2021-08-13T13:22:49Z</time>
      </trkpt>
      <trkpt lat="46.90574" lon="6.36832">
        <ele>834.9</ele>
        <time>2021-08-13T13:22:50Z</time>
      </trkpt>
      <trkpt lat="46.90569" lon="6.36834">
        <ele>835</ele>
        <time>2021-08-13T13:22:52Z</time>
      </trkpt>
      <trkpt lat="46.90565" lon="6.36836">
        <ele>835.1</ele>
        <time>2021-08-13T13:22:53Z</time>
      </trkpt>
      <trkpt lat="46.90559" lon="6.36836">
        <ele>835.1</ele>
        <time>2021-08-13T13:22:54Z</time>
      </trkpt>
      <trkpt lat="46.90556" lon="6.36835">
        <ele>835.1</ele>
        <time>2021-08-13T13:22:55Z</time>
      </trkpt>
      <trkpt lat="46.90552" lon="6.36834">
        <ele>835.1</ele>
        <time>2021-08-13T13:22:57Z</time>
      </trkpt>
      <trkpt lat="46.90548" lon="6.36829">
        <ele>835.1</ele>
        <time>2021-08-13T13:22:58Z</time>
      </trkpt>
      <trkpt lat="46.90545" lon="6.36824">
        <ele>835.1</ele>
        <time>2021-08-13T13:22:59Z</time>
      </trkpt>
      <trkpt lat="46.90542" lon="6.36819">
        <ele>835.1</ele>
        <time>2021-08-13T13:23:01Z</time>
      </trkpt>
      <trkpt lat="46.9054" lon="6.36811">
        <ele>835.4</ele>
        <time>2021-08-13T13:23:02Z</time>
      </trkpt>
      <trkpt lat="46.90538" lon="6.36807">
        <ele>835.4</ele>
        <time>2021-08-13T13:23:03Z</time>
      </trkpt>
      <trkpt lat="46.90535" lon="6.36798">
        <ele>835.6</ele>
        <time>2021-08-13T13:23:05Z</time>
      </trkpt>
      <trkpt lat="46.90533" lon="6.36789">
        <ele>835.8</ele>
        <time>2021-08-13T13:23:07Z</time>
      </trkpt>
      <trkpt lat="46.90532" lon="6.36785">
        <ele>836</ele>
        <time>2021-08-13T13:23:08Z</time>
      </trkpt>
      <trkpt lat="46.90533" lon="6.36778">
        <ele>836.2</ele>
        <time>2021-08-13T13:23:10Z</time>
      </trkpt>
      <trkpt lat="46.90535" lon="6.36774">
        <ele>836.3</ele>
        <time>2021-08-13T13:23:11Z</time>
      </trkpt>
      <trkpt lat="46.90536" lon="6.36768">
        <ele>836.5</ele>
        <time>2021-08-13T13:23:12Z</time>
      </trkpt>
      <trkpt lat="46.90538" lon="6.36765">
        <ele>836.6</ele>
        <time>2021-08-13T13:23:13Z</time>
      </trkpt>
      <trkpt lat="46.90537" lon="6.3676">
        <ele>836.7</ele>
        <time>2021-08-13T13:23:14Z</time>
      </trkpt>
      <trkpt lat="46.90535" lon="6.36756">
        <ele>836.9</ele>
        <time>2021-08-13T13:23:15Z</time>
      </trkpt>
      <trkpt lat="46.90529" lon="6.3675">
        <ele>837.1</ele>
        <time>2021-08-13T13:23:17Z</time>
      </trkpt>
      <trkpt lat="46.90527" lon="6.36747">
        <ele>837.1</ele>
        <time>2021-08-13T13:23:18Z</time>
      </trkpt>
      <trkpt lat="46.90523" lon="6.36744">
        <ele>837.1</ele>
        <time>2021-08-13T13:23:20Z</time>
      </trkpt>
      <trkpt lat="46.90519" lon="6.36743">
        <ele>837.2</ele>
        <time>2021-08-13T13:23:21Z</time>
      </trkpt>
      <trkpt lat="46.90515" lon="6.36743">
        <ele>837.2</ele>
        <time>2021-08-13T13:23:23Z</time>
      </trkpt>
      <trkpt lat="46.90514" lon="6.36742">
        <ele>837.2</ele>
        <time>2021-08-13T13:23:24Z</time>
      </trkpt>
      <trkpt lat="46.90513" lon="6.36742">
        <ele>837.2</ele>
        <time>2021-08-13T13:23:25Z</time>
      </trkpt>
      <trkpt lat="46.90511" lon="6.36742">
        <ele>837.1</ele>
        <time>2021-08-13T13:23:27Z</time>
      </trkpt>
      <trkpt lat="46.9051" lon="6.36742">
        <ele>837.1</ele>
        <time>2021-08-13T13:23:29Z</time>
      </trkpt>
      <trkpt lat="46.9051" lon="6.3674">
        <ele>837</ele>
        <time>2021-08-13T13:23:31Z</time>
      </trkpt>
      <trkpt lat="46.90512" lon="6.36739">
        <ele>837</ele>
        <time>2021-08-13T13:23:32Z</time>
      </trkpt>
      <trkpt lat="46.90512" lon="6.36738">
        <ele>837</ele>
        <time>2021-08-13T13:23:34Z</time>
      </trkpt>
      <trkpt lat="46.90512" lon="6.36738">
        <ele>836.9</ele>
        <time>2021-08-13T13:23:35Z</time>
      </trkpt>
      <trkpt lat="46.90512" lon="6.36738">
        <ele>836.9</ele>
        <time>2021-08-13T13:23:36Z</time>
      </trkpt>
      <trkpt lat="46.90512" lon="6.36737">
        <ele>836.9</ele>
        <time>2021-08-13T13:23:38Z</time>
      </trkpt>
      <trkpt lat="46.90512" lon="6.36736">
        <ele>836.9</ele>
        <time>2021-08-13T13:23:39Z</time>
      </trkpt>
      <trkpt lat="46.90509" lon="6.36748">
        <ele>836.8</ele>
        <time>2021-08-13T13:26:02Z</time>
      </trkpt>
      <trkpt lat="46.90507" lon="6.36746">
        <ele>836.8</ele>
        <time>2021-08-13T13:26:04Z</time>
      </trkpt>
      <trkpt lat="46.90506" lon="6.36744">
        <ele>836.8</ele>
        <time>2021-08-13T13:26:05Z</time>
      </trkpt>
      <trkpt lat="46.90506" lon="6.36741">
        <ele>836.8</ele>
        <time>2021-08-13T13:26:06Z</time>
      </trkpt>
      <trkpt lat="46.90505" lon="6.3674">
        <ele>836.8</ele>
        <time>2021-08-13T13:26:07Z</time>
      </trkpt>
      <trkpt lat="46.90505" lon="6.36739">
        <ele>836.8</ele>
        <time>2021-08-13T13:26:08Z</time>
      </trkpt>
      <trkpt lat="46.90505" lon="6.36734">
        <ele>836.9</ele>
        <time>2021-08-13T13:26:10Z</time>
      </trkpt>
      <trkpt lat="46.90505" lon="6.36733">
        <ele>836.9</ele>
        <time>2021-08-13T13:26:11Z</time>
      </trkpt>
      <trkpt lat="46.90505" lon="6.3673">
        <ele>836.9</ele>
        <time>2021-08-13T13:26:12Z</time>
      </trkpt>
      <trkpt lat="46.90505" lon="6.36728">
        <ele>837</ele>
        <time>2021-08-13T13:26:13Z</time>
      </trkpt>
      <trkpt lat="46.90504" lon="6.36725">
        <ele>837</ele>
        <time>2021-08-13T13:26:15Z</time>
      </trkpt>
      <trkpt lat="46.90502" lon="6.36723">
        <ele>837.1</ele>
        <time>2021-08-13T13:26:17Z</time>
      </trkpt>
      <trkpt lat="46.90502" lon="6.36723">
        <ele>837.1</ele>
        <time>2021-08-13T13:26:18Z</time>
      </trkpt>
      <trkpt lat="46.90499" lon="6.36721">
        <ele>837.2</ele>
        <time>2021-08-13T13:26:20Z</time>
      </trkpt>
      <trkpt lat="46.90498" lon="6.36717">
        <ele>837.4</ele>
        <time>2021-08-13T13:26:21Z</time>
      </trkpt>
      <trkpt lat="46.90496" lon="6.36711">
        <ele>837.6</ele>
        <time>2021-08-13T13:26:23Z</time>
      </trkpt>
      <trkpt lat="46.90494" lon="6.36708">
        <ele>837.8</ele>
        <time>2021-08-13T13:26:25Z</time>
      </trkpt>
      <trkpt lat="46.90492" lon="6.36706">
        <ele>837.9</ele>
        <time>2021-08-13T13:26:26Z</time>
      </trkpt>
      <trkpt lat="46.90492" lon="6.36707">
        <ele>838</ele>
        <time>2021-08-13T13:26:28Z</time>
      </trkpt>
      <trkpt lat="46.90491" lon="6.36706">
        <ele>838.1</ele>
        <time>2021-08-13T13:26:29Z</time>
      </trkpt>
      <trkpt lat="46.9049" lon="6.36705">
        <ele>838.2</ele>
        <time>2021-08-13T13:26:31Z</time>
      </trkpt>
      <trkpt lat="46.90489" lon="6.36705">
        <ele>838.2</ele>
        <time>2021-08-13T13:26:32Z</time>
      </trkpt>
      <trkpt lat="46.90489" lon="6.36705">
        <ele>838.2</ele>
        <time>2021-08-13T13:26:33Z</time>
      </trkpt>
      <trkpt lat="46.90489" lon="6.36705">
        <ele>838.3</ele>
        <time>2021-08-13T13:26:34Z</time>
      </trkpt>
      <trkpt lat="46.90488" lon="6.36704">
        <ele>838.3</ele>
        <time>2021-08-13T13:26:35Z</time>
      </trkpt>
      <trkpt lat="46.90488" lon="6.36704">
        <ele>838.3</ele>
        <time>2021-08-13T13:26:36Z</time>
      </trkpt>
      <trkpt lat="46.90475" lon="6.36689">
        <ele>839.6</ele>
        <time>2021-08-13T13:26:51Z</time>
      </trkpt>
      <trkpt lat="46.90474" lon="6.36687">
        <ele>839.6</ele>
        <time>2021-08-13T13:26:52Z</time>
      </trkpt>
      <trkpt lat="46.90473" lon="6.36684">
        <ele>839.8</ele>
        <time>2021-08-13T13:26:54Z</time>
      </trkpt>
      <trkpt lat="46.9047" lon="6.36682">
        <ele>839.9</ele>
        <time>2021-08-13T13:26:55Z</time>
      </trkpt>
      <trkpt lat="46.90469" lon="6.36681">
        <ele>840</ele>
        <time>2021-08-13T13:26:56Z</time>
      </trkpt>
      <trkpt lat="46.90468" lon="6.36682">
        <ele>840</ele>
        <time>2021-08-13T13:26:57Z</time>
      </trkpt>
      <trkpt lat="46.90466" lon="6.36682">
        <ele>840.1</ele>
        <time>2021-08-13T13:26:59Z</time>
      </trkpt>
      <trkpt lat="46.90461" lon="6.3668">
        <ele>840.3</ele>
        <time>2021-08-13T13:27:00Z</time>
      </trkpt>
      <trkpt lat="46.90457" lon="6.36679">
        <ele>840.5</ele>
        <time>2021-08-13T13:27:01Z</time>
      </trkpt>
      <trkpt lat="46.90452" lon="6.36676">
        <ele>840.7</ele>
        <time>2021-08-13T13:27:03Z</time>
      </trkpt>
      <trkpt lat="46.90447" lon="6.36674">
        <ele>840.9</ele>
        <time>2021-08-13T13:27:04Z</time>
      </trkpt>
      <trkpt lat="46.90444" lon="6.36672">
        <ele>841</ele>
        <time>2021-08-13T13:27:05Z</time>
      </trkpt>
      <trkpt lat="46.90438" lon="6.36669">
        <ele>841.4</ele>
        <time>2021-08-13T13:27:07Z</time>
      </trkpt>
      <trkpt lat="46.90435" lon="6.36667">
        <ele>841.9</ele>
        <time>2021-08-13T13:27:08Z</time>
      </trkpt>
      <trkpt lat="46.90434" lon="6.36667">
        <ele>842</ele>
        <time>2021-08-13T13:27:09Z</time>
      </trkpt>
      <trkpt lat="46.90431" lon="6.36663">
        <ele>842.7</ele>
        <time>2021-08-13T13:27:11Z</time>
      </trkpt>
      <trkpt lat="46.9043" lon="6.36662">
        <ele>842.9</ele>
        <time>2021-08-13T13:27:12Z</time>
      </trkpt>
      <trkpt lat="46.90429" lon="6.36661">
        <ele>843.1</ele>
        <time>2021-08-13T13:27:13Z</time>
      </trkpt>
      <trkpt lat="46.90427" lon="6.3666">
        <ele>843.4</ele>
        <time>2021-08-13T13:27:14Z</time>
      </trkpt>
      <trkpt lat="46.90426" lon="6.36658">
        <ele>843.6</ele>
        <time>2021-08-13T13:27:16Z</time>
      </trkpt>
      <trkpt lat="46.90425" lon="6.36657">
        <ele>843.9</ele>
        <time>2021-08-13T13:27:17Z</time>
      </trkpt>
      <trkpt lat="46.90424" lon="6.36657">
        <ele>843.9</ele>
        <time>2021-08-13T13:27:19Z</time>
      </trkpt>
      <trkpt lat="46.90424" lon="6.36656">
        <ele>844</ele>
        <time>2021-08-13T13:27:20Z</time>
      </trkpt>
      <trkpt lat="46.90423" lon="6.36656">
        <ele>844.1</ele>
        <time>2021-08-13T13:27:21Z</time>
      </trkpt>
      <trkpt lat="46.90423" lon="6.36656">
        <ele>844.2</ele>
        <time>2021-08-13T13:27:22Z</time>
      </trkpt>
      <trkpt lat="46.90423" lon="6.36655">
        <ele>844.2</ele>
        <time>2021-08-13T13:27:23Z</time>
      </trkpt>
      <trkpt lat="46.90422" lon="6.36655">
        <ele>844.3</ele>
        <time>2021-08-13T13:27:24Z</time>
      </trkpt>
      <trkpt lat="46.90421" lon="6.36654">
        <ele>844.6</ele>
        <time>2021-08-13T13:27:25Z</time>
      </trkpt>
      <trkpt lat="46.9042" lon="6.36652">
        <ele>844.8</ele>
        <time>2021-08-13T13:27:27Z</time>
      </trkpt>
      <trkpt lat="46.9042" lon="6.36653">
        <ele>844.9</ele>
        <time>2021-08-13T13:27:28Z</time>
      </trkpt>
      <trkpt lat="46.9042" lon="6.36653">
        <ele>844.9</ele>
        <time>2021-08-13T13:27:29Z</time>
      </trkpt>
      <trkpt lat="46.90418" lon="6.3665">
        <ele>845.5</ele>
        <time>2021-08-13T13:27:31Z</time>
      </trkpt>
      <trkpt lat="46.90415" lon="6.36648">
        <ele>845.9</ele>
        <time>2021-08-13T13:27:32Z</time>
      </trkpt>
      <trkpt lat="46.9041" lon="6.36646">
        <ele>846.8</ele>
        <time>2021-08-13T13:27:34Z</time>
      </trkpt>
      <trkpt lat="46.90406" lon="6.36646">
        <ele>847.5</ele>
        <time>2021-08-13T13:27:35Z</time>
      </trkpt>
      <trkpt lat="46.90402" lon="6.36645">
        <ele>848.2</ele>
        <time>2021-08-13T13:27:37Z</time>
      </trkpt>
      <trkpt lat="46.90399" lon="6.36644">
        <ele>848.7</ele>
        <time>2021-08-13T13:27:38Z</time>
      </trkpt>
      <trkpt lat="46.90399" lon="6.36644">
        <ele>848.8</ele>
        <time>2021-08-13T13:27:39Z</time>
      </trkpt>
      <trkpt lat="46.90398" lon="6.36644">
        <ele>849</ele>
        <time>2021-08-13T13:27:40Z</time>
      </trkpt>
      <trkpt lat="46.90396" lon="6.36645">
        <ele>849.2</ele>
        <time>2021-08-13T13:27:41Z</time>
      </trkpt>
      <trkpt lat="46.90395" lon="6.36645">
        <ele>849.2</ele>
        <time>2021-08-13T13:27:43Z</time>
      </trkpt>
      <trkpt lat="46.90393" lon="6.36646">
        <ele>849.2</ele>
        <time>2021-08-13T13:27:44Z</time>
      </trkpt>
      <trkpt lat="46.90391" lon="6.3665">
        <ele>849.2</ele>
        <time>2021-08-13T13:27:45Z</time>
      </trkpt>
      <trkpt lat="46.9039" lon="6.36652">
        <ele>849.2</ele>
        <time>2021-08-13T13:27:46Z</time>
      </trkpt>
      <trkpt lat="46.90389" lon="6.36656">
        <ele>850.2</ele>
        <time>2021-08-13T13:27:47Z</time>
      </trkpt>
      <trkpt lat="46.90388" lon="6.36659">
        <ele>850.2</ele>
        <time>2021-08-13T13:27:48Z</time>
      </trkpt>
      <trkpt lat="46.90386" lon="6.36668">
        <ele>850.4</ele>
        <time>2021-08-13T13:27:50Z</time>
      </trkpt>
      <trkpt lat="46.90384" lon="6.36675">
        <ele>850.6</ele>
        <time>2021-08-13T13:27:52Z</time>
      </trkpt>
      <trkpt lat="46.90382" lon="6.36678">
        <ele>850.5</ele>
        <time>2021-08-13T13:27:53Z</time>
      </trkpt>
      <trkpt lat="46.9038" lon="6.36682">
        <ele>850.5</ele>
        <time>2021-08-13T13:27:55Z</time>
      </trkpt>
      <trkpt lat="46.90379" lon="6.36688">
        <ele>850.6</ele>
        <time>2021-08-13T13:27:56Z</time>
      </trkpt>
      <trkpt lat="46.90379" lon="6.36691">
        <ele>850.7</ele>
        <time>2021-08-13T13:27:57Z</time>
      </trkpt>
      <trkpt lat="46.90379" lon="6.36697">
        <ele>851</ele>
        <time>2021-08-13T13:27:59Z</time>
      </trkpt>
      <trkpt lat="46.90379" lon="6.367">
        <ele>851.2</ele>
        <time>2021-08-13T13:28:00Z</time>
      </trkpt>
      <trkpt lat="46.90379" lon="6.36702">
        <ele>851.3</ele>
        <time>2021-08-13T13:28:01Z</time>
      </trkpt>
      <trkpt lat="46.90379" lon="6.36709">
        <ele>851.6</ele>
        <time>2021-08-13T13:28:03Z</time>
      </trkpt>
      <trkpt lat="46.90379" lon="6.36711">
        <ele>851.7</ele>
        <time>2021-08-13T13:28:04Z</time>
      </trkpt>
      <trkpt lat="46.90379" lon="6.36713">
        <ele>851.8</ele>
        <time>2021-08-13T13:28:05Z</time>
      </trkpt>
      <trkpt lat="46.90379" lon="6.36716">
        <ele>851.9</ele>
        <time>2021-08-13T13:28:06Z</time>
      </trkpt>
      <trkpt lat="46.9038" lon="6.36719">
        <ele>852.1</ele>
        <time>2021-08-13T13:28:08Z</time>
      </trkpt>
      <trkpt lat="46.9038" lon="6.36724">
        <ele>852.4</ele>
        <time>2021-08-13T13:28:09Z</time>
      </trkpt>
      <trkpt lat="46.90381" lon="6.36727">
        <ele>852.5</ele>
        <time>2021-08-13T13:28:10Z</time>
      </trkpt>
      <trkpt lat="46.90382" lon="6.36734">
        <ele>852.9</ele>
        <time>2021-08-13T13:28:12Z</time>
      </trkpt>
      <trkpt lat="46.90382" lon="6.36737">
        <ele>853.1</ele>
        <time>2021-08-13T13:28:13Z</time>
      </trkpt>
      <trkpt lat="46.90383" lon="6.36743">
        <ele>853.4</ele>
        <time>2021-08-13T13:28:15Z</time>
      </trkpt>
      <trkpt lat="46.90383" lon="6.36748">
        <ele>853.6</ele>
        <time>2021-08-13T13:28:16Z</time>
      </trkpt>
      <trkpt lat="46.90383" lon="6.3675">
        <ele>853.7</ele>
        <time>2021-08-13T13:28:17Z</time>
      </trkpt>
      <trkpt lat="46.90382" lon="6.36753">
        <ele>853.8</ele>
        <time>2021-08-13T13:28:18Z</time>
      </trkpt>
      <trkpt lat="46.90382" lon="6.36758">
        <ele>854</ele>
        <time>2021-08-13T13:28:20Z</time>
      </trkpt>
      <trkpt lat="46.90381" lon="6.36763">
        <ele>854.2</ele>
        <time>2021-08-13T13:28:21Z</time>
      </trkpt>
      <trkpt lat="46.90381" lon="6.36764">
        <ele>854.3</ele>
        <time>2021-08-13T13:28:22Z</time>
      </trkpt>
      <trkpt lat="46.90382" lon="6.36769">
        <ele>854.6</ele>
        <time>2021-08-13T13:28:24Z</time>
      </trkpt>
      <trkpt lat="46.90382" lon="6.36775">
        <ele>854.8</ele>
        <time>2021-08-13T13:28:26Z</time>
      </trkpt>
      <trkpt lat="46.90382" lon="6.36776">
        <ele>854.9</ele>
        <time>2021-08-13T13:28:27Z</time>
      </trkpt>
      <trkpt lat="46.90382" lon="6.36778">
        <ele>854.9</ele>
        <time>2021-08-13T13:28:28Z</time>
      </trkpt>
      <trkpt lat="46.90382" lon="6.36779">
        <ele>855</ele>
        <time>2021-08-13T13:28:29Z</time>
      </trkpt>
      <trkpt lat="46.90383" lon="6.36783">
        <ele>855.2</ele>
        <time>2021-08-13T13:28:31Z</time>
      </trkpt>
      <trkpt lat="46.90383" lon="6.36784">
        <ele>855.2</ele>
        <time>2021-08-13T13:28:33Z</time>
      </trkpt>
      <trkpt lat="46.90383" lon="6.36784">
        <ele>855.3</ele>
        <time>2021-08-13T13:28:34Z</time>
      </trkpt>
      <trkpt lat="46.90383" lon="6.36787">
        <ele>855.4</ele>
        <time>2021-08-13T13:28:35Z</time>
      </trkpt>
      <trkpt lat="46.90384" lon="6.3679">
        <ele>855.5</ele>
        <time>2021-08-13T13:28:37Z</time>
      </trkpt>
      <trkpt lat="46.90386" lon="6.36794">
        <ele>855.8</ele>
        <time>2021-08-13T13:28:38Z</time>
      </trkpt>
      <trkpt lat="46.90386" lon="6.36795">
        <ele>855.8</ele>
        <time>2021-08-13T13:28:39Z</time>
      </trkpt>
      <trkpt lat="46.90388" lon="6.36798">
        <ele>856</ele>
        <time>2021-08-13T13:28:41Z</time>
      </trkpt>
      <trkpt lat="46.90389" lon="6.36803">
        <ele>856.2</ele>
        <time>2021-08-13T13:28:43Z</time>
      </trkpt>
      <trkpt lat="46.90389" lon="6.36805">
        <ele>856.3</ele>
        <time>2021-08-13T13:28:44Z</time>
      </trkpt>
      <trkpt lat="46.9039" lon="6.36808">
        <ele>856.5</ele>
        <time>2021-08-13T13:28:46Z</time>
      </trkpt>
      <trkpt lat="46.90389" lon="6.36808">
        <ele>856.5</ele>
        <time>2021-08-13T13:28:47Z</time>
      </trkpt>
      <trkpt lat="46.90389" lon="6.36808">
        <ele>856.6</ele>
        <time>2021-08-13T13:28:48Z</time>
      </trkpt>
      <trkpt lat="46.90389" lon="6.36808">
        <ele>856.6</ele>
        <time>2021-08-13T13:28:49Z</time>
      </trkpt>
      <trkpt lat="46.90389" lon="6.36809">
        <ele>856.6</ele>
        <time>2021-08-13T13:28:51Z</time>
      </trkpt>
      <trkpt lat="46.90388" lon="6.3681">
        <ele>856.7</ele>
        <time>2021-08-13T13:28:52Z</time>
      </trkpt>
      <trkpt lat="46.90388" lon="6.36811">
        <ele>856.7</ele>
        <time>2021-08-13T13:28:53Z</time>
      </trkpt>
      <trkpt lat="46.90387" lon="6.36812">
        <ele>856.8</ele>
        <time>2021-08-13T13:28:55Z</time>
      </trkpt>
      <trkpt lat="46.90386" lon="6.36813">
        <ele>856.9</ele>
        <time>2021-08-13T13:28:56Z</time>
      </trkpt>
      <trkpt lat="46.90385" lon="6.3684">
        <ele>858.1</ele>
        <time>2021-08-13T13:29:16Z</time>
      </trkpt>
      <trkpt lat="46.90385" lon="6.36844">
        <ele>858.4</ele>
        <time>2021-08-13T13:29:17Z</time>
      </trkpt>
      <trkpt lat="46.90385" lon="6.36852">
        <ele>858.7</ele>
        <time>2021-08-13T13:29:19Z</time>
      </trkpt>
      <trkpt lat="46.90385" lon="6.36856">
        <ele>858.9</ele>
        <time>2021-08-13T13:29:20Z</time>
      </trkpt>
      <trkpt lat="46.90386" lon="6.36862">
        <ele>859.2</ele>
        <time>2021-08-13T13:29:22Z</time>
      </trkpt>
      <trkpt lat="46.90387" lon="6.36866">
        <ele>859.4</ele>
        <time>2021-08-13T13:29:23Z</time>
      </trkpt>
      <trkpt lat="46.90387" lon="6.36868">
        <ele>859.5</ele>
        <time>2021-08-13T13:29:24Z</time>
      </trkpt>
      <trkpt lat="46.90388" lon="6.36872">
        <ele>859.7</ele>
        <time>2021-08-13T13:29:25Z</time>
      </trkpt>
      <trkpt lat="46.90388" lon="6.36873">
        <ele>859.7</ele>
        <time>2021-08-13T13:29:26Z</time>
      </trkpt>
      <trkpt lat="46.90388" lon="6.36876">
        <ele>859.8</ele>
        <time>2021-08-13T13:29:27Z</time>
      </trkpt>
      <trkpt lat="46.90388" lon="6.36878">
        <ele>860</ele>
        <time>2021-08-13T13:29:28Z</time>
      </trkpt>
      <trkpt lat="46.90388" lon="6.36881">
        <ele>860.1</ele>
        <time>2021-08-13T13:29:29Z</time>
      </trkpt>
      <trkpt lat="46.90389" lon="6.36885">
        <ele>860.3</ele>
        <time>2021-08-13T13:29:31Z</time>
      </trkpt>
      <trkpt lat="46.90389" lon="6.36887">
        <ele>860.4</ele>
        <time>2021-08-13T13:29:32Z</time>
      </trkpt>
      <trkpt lat="46.9039" lon="6.36889">
        <ele>860.5</ele>
        <time>2021-08-13T13:29:33Z</time>
      </trkpt>
      <trkpt lat="46.9039" lon="6.36891">
        <ele>860.6</ele>
        <time>2021-08-13T13:29:34Z</time>
      </trkpt>
      <trkpt lat="46.9039" lon="6.36894">
        <ele>860.7</ele>
        <time>2021-08-13T13:29:35Z</time>
      </trkpt>
      <trkpt lat="46.90391" lon="6.36897">
        <ele>860.8</ele>
        <time>2021-08-13T13:29:36Z</time>
      </trkpt>
      <trkpt lat="46.90391" lon="6.369">
        <ele>861</ele>
        <time>2021-08-13T13:29:38Z</time>
      </trkpt>
      <trkpt lat="46.90394" lon="6.36904">
        <ele>861.3</ele>
        <time>2021-08-13T13:29:40Z</time>
      </trkpt>
      <trkpt lat="46.90396" lon="6.36908">
        <ele>861.5</ele>
        <time>2021-08-13T13:29:42Z</time>
      </trkpt>
      <trkpt lat="46.90396" lon="6.36909">
        <ele>861.5</ele>
        <time>2021-08-13T13:29:43Z</time>
      </trkpt>
      <trkpt lat="46.90397" lon="6.36911">
        <ele>861.7</ele>
        <time>2021-08-13T13:29:44Z</time>
      </trkpt>
      <trkpt lat="46.90398" lon="6.36916">
        <ele>861.9</ele>
        <time>2021-08-13T13:29:46Z</time>
      </trkpt>
      <trkpt lat="46.90399" lon="6.36923">
        <ele>862.2</ele>
        <time>2021-08-13T13:29:48Z</time>
      </trkpt>
      <trkpt lat="46.90399" lon="6.36926">
        <ele>862.4</ele>
        <time>2021-08-13T13:29:49Z</time>
      </trkpt>
      <trkpt lat="46.904" lon="6.36931">
        <ele>862.6</ele>
        <time>2021-08-13T13:29:51Z</time>
      </trkpt>
      <trkpt lat="46.90401" lon="6.36935">
        <ele>862.8</ele>
        <time>2021-08-13T13:29:53Z</time>
      </trkpt>
      <trkpt lat="46.90402" lon="6.3694">
        <ele>863.1</ele>
        <time>2021-08-13T13:29:55Z</time>
      </trkpt>
      <trkpt lat="46.90404" lon="6.36945">
        <ele>863.3</ele>
        <time>2021-08-13T13:29:57Z</time>
      </trkpt>
      <trkpt lat="46.90405" lon="6.36947">
        <ele>863.5</ele>
        <time>2021-08-13T13:29:58Z</time>
      </trkpt>
      <trkpt lat="46.90405" lon="6.36948">
        <ele>863.5</ele>
        <time>2021-08-13T13:29:59Z</time>
      </trkpt>
      <trkpt lat="46.90406" lon="6.36953">
        <ele>863.7</ele>
        <time>2021-08-13T13:30:01Z</time>
      </trkpt>
      <trkpt lat="46.90406" lon="6.36954">
        <ele>863.8</ele>
        <time>2021-08-13T13:30:02Z</time>
      </trkpt>
      <trkpt lat="46.90407" lon="6.36956">
        <ele>863.9</ele>
        <time>2021-08-13T13:30:03Z</time>
      </trkpt>
      <trkpt lat="46.90408" lon="6.36959">
        <ele>864.1</ele>
        <time>2021-08-13T13:30:05Z</time>
      </trkpt>
      <trkpt lat="46.90409" lon="6.36965">
        <ele>864.3</ele>
        <time>2021-08-13T13:30:06Z</time>
      </trkpt>
      <trkpt lat="46.90409" lon="6.36966">
        <ele>864.4</ele>
        <time>2021-08-13T13:30:07Z</time>
      </trkpt>
      <trkpt lat="46.90411" lon="6.36973">
        <ele>864.8</ele>
        <time>2021-08-13T13:30:09Z</time>
      </trkpt>
      <trkpt lat="46.90413" lon="6.3698">
        <ele>865.1</ele>
        <time>2021-08-13T13:30:11Z</time>
      </trkpt>
      <trkpt lat="46.90415" lon="6.36985">
        <ele>865.4</ele>
        <time>2021-08-13T13:30:13Z</time>
      </trkpt>
      <trkpt lat="46.90417" lon="6.3699">
        <ele>865.7</ele>
        <time>2021-08-13T13:30:15Z</time>
      </trkpt>
      <trkpt lat="46.90419" lon="6.36995">
        <ele>865.9</ele>
        <time>2021-08-13T13:30:16Z</time>
      </trkpt>
      <trkpt lat="46.9042" lon="6.36998">
        <ele>866.1</ele>
        <time>2021-08-13T13:30:17Z</time>
      </trkpt>
      <trkpt lat="46.90422" lon="6.37002">
        <ele>866.3</ele>
        <time>2021-08-13T13:30:19Z</time>
      </trkpt>
      <trkpt lat="46.90424" lon="6.37007">
        <ele>866.5</ele>
        <time>2021-08-13T13:30:21Z</time>
      </trkpt>
      <trkpt lat="46.90423" lon="6.3701">
        <ele>866.6</ele>
        <time>2021-08-13T13:30:23Z</time>
      </trkpt>
      <trkpt lat="46.90423" lon="6.37012">
        <ele>866.8</ele>
        <time>2021-08-13T13:30:24Z</time>
      </trkpt>
      <trkpt lat="46.90423" lon="6.37017">
        <ele>867</ele>
        <time>2021-08-13T13:30:26Z</time>
      </trkpt>
      <trkpt lat="46.90423" lon="6.3702">
        <ele>867.1</ele>
        <time>2021-08-13T13:30:28Z</time>
      </trkpt>
      <trkpt lat="46.90424" lon="6.37021">
        <ele>867.2</ele>
        <time>2021-08-13T13:30:29Z</time>
      </trkpt>
      <trkpt lat="46.90426" lon="6.37023">
        <ele>867.3</ele>
        <time>2021-08-13T13:30:31Z</time>
      </trkpt>
      <trkpt lat="46.90427" lon="6.37025">
        <ele>867.4</ele>
        <time>2021-08-13T13:30:32Z</time>
      </trkpt>
      <trkpt lat="46.90428" lon="6.37027">
        <ele>867.5</ele>
        <time>2021-08-13T13:30:33Z</time>
      </trkpt>
      <trkpt lat="46.90429" lon="6.37029">
        <ele>867.6</ele>
        <time>2021-08-13T13:30:34Z</time>
      </trkpt>
      <trkpt lat="46.9043" lon="6.37033">
        <ele>867.7</ele>
        <time>2021-08-13T13:30:36Z</time>
      </trkpt>
      <trkpt lat="46.90431" lon="6.37037">
        <ele>867.9</ele>
        <time>2021-08-13T13:30:37Z</time>
      </trkpt>
      <trkpt lat="46.90433" lon="6.37042">
        <ele>868</ele>
        <time>2021-08-13T13:30:38Z</time>
      </trkpt>
      <trkpt lat="46.90434" lon="6.37044">
        <ele>868.1</ele>
        <time>2021-08-13T13:30:39Z</time>
      </trkpt>
      <trkpt lat="46.90436" lon="6.37049">
        <ele>868.2</ele>
        <time>2021-08-13T13:30:41Z</time>
      </trkpt>
      <trkpt lat="46.90437" lon="6.37052">
        <ele>868.2</ele>
        <time>2021-08-13T13:30:42Z</time>
      </trkpt>
      <trkpt lat="46.90437" lon="6.37055">
        <ele>868.3</ele>
        <time>2021-08-13T13:30:43Z</time>
      </trkpt>
      <trkpt lat="46.90439" lon="6.37059">
        <ele>868.3</ele>
        <time>2021-08-13T13:30:45Z</time>
      </trkpt>
      <trkpt lat="46.9044" lon="6.37064">
        <ele>868.4</ele>
        <time>2021-08-13T13:30:47Z</time>
      </trkpt>
      <trkpt lat="46.90441" lon="6.37069">
        <ele>868.4</ele>
        <time>2021-08-13T13:30:48Z</time>
      </trkpt>
      <trkpt lat="46.90444" lon="6.37076">
        <ele>868.4</ele>
        <time>2021-08-13T13:30:50Z</time>
      </trkpt>
      <trkpt lat="46.90446" lon="6.37085">
        <ele>868.4</ele>
        <time>2021-08-13T13:30:52Z</time>
      </trkpt>
      <trkpt lat="46.90446" lon="6.3709">
        <ele>868.4</ele>
        <time>2021-08-13T13:30:53Z</time>
      </trkpt>
      <trkpt lat="46.90442" lon="6.37104">
        <ele>868.3</ele>
        <time>2021-08-13T13:30:55Z</time>
      </trkpt>
      <trkpt lat="46.90438" lon="6.37117">
        <ele>867.9</ele>
        <time>2021-08-13T13:30:57Z</time>
      </trkpt>
      <trkpt lat="46.90435" lon="6.37122">
        <ele>867.7</ele>
        <time>2021-08-13T13:30:58Z</time>
      </trkpt>
      <trkpt lat="46.90431" lon="6.37127">
        <ele>867.5</ele>
        <time>2021-08-13T13:30:59Z</time>
      </trkpt>
      <trkpt lat="46.90423" lon="6.37138">
        <ele>867</ele>
        <time>2021-08-13T13:31:01Z</time>
      </trkpt>
      <trkpt lat="46.90415" lon="6.37145">
        <ele>866.6</ele>
        <time>2021-08-13T13:31:03Z</time>
      </trkpt>
      <trkpt lat="46.90409" lon="6.37147">
        <ele>866.3</ele>
        <time>2021-08-13T13:31:04Z</time>
      </trkpt>
      <trkpt lat="46.90402" lon="6.37147">
        <ele>866.1</ele>
        <time>2021-08-13T13:31:05Z</time>
      </trkpt>
      <trkpt lat="46.9039" lon="6.37149">
        <ele>865.7</ele>
        <time>2021-08-13T13:31:07Z</time>
      </trkpt>
      <trkpt lat="46.90384" lon="6.37149">
        <ele>865.5</ele>
        <time>2021-08-13T13:31:08Z</time>
      </trkpt>
      <trkpt lat="46.90379" lon="6.3715">
        <ele>865.3</ele>
        <time>2021-08-13T13:31:09Z</time>
      </trkpt>
      <trkpt lat="46.90366" lon="6.37152">
        <ele>865</ele>
        <time>2021-08-13T13:31:11Z</time>
      </trkpt>
      <trkpt lat="46.90352" lon="6.37155">
        <ele>864.6</ele>
        <time>2021-08-13T13:31:13Z</time>
      </trkpt>
      <trkpt lat="46.90339" lon="6.37158">
        <ele>864.3</ele>
        <time>2021-08-13T13:31:15Z</time>
      </trkpt>
      <trkpt lat="46.90332" lon="6.3716">
        <ele>864.2</ele>
        <time>2021-08-13T13:31:16Z</time>
      </trkpt>
      <trkpt lat="46.90325" lon="6.3716">
        <ele>864</ele>
        <time>2021-08-13T13:31:17Z</time>
      </trkpt>
      <trkpt lat="46.90311" lon="6.37163">
        <ele>863.5</ele>
        <time>2021-08-13T13:31:19Z</time>
      </trkpt>
      <trkpt lat="46.90297" lon="6.37164">
        <ele>863</ele>
        <time>2021-08-13T13:31:21Z</time>
      </trkpt>
      <trkpt lat="46.9029" lon="6.37165">
        <ele>862.7</ele>
        <time>2021-08-13T13:31:22Z</time>
      </trkpt>
      <trkpt lat="46.90283" lon="6.37167">
        <ele>862.5</ele>
        <time>2021-08-13T13:31:23Z</time>
      </trkpt>
      <trkpt lat="46.9027" lon="6.37169">
        <ele>862</ele>
        <time>2021-08-13T13:31:25Z</time>
      </trkpt>
      <trkpt lat="46.90255" lon="6.37168">
        <ele>861.6</ele>
        <time>2021-08-13T13:31:27Z</time>
      </trkpt>
      <trkpt lat="46.90241" lon="6.37164">
        <ele>861.1</ele>
        <time>2021-08-13T13:31:29Z</time>
      </trkpt>
      <trkpt lat="46.90233" lon="6.3716">
        <ele>860.9</ele>
        <time>2021-08-13T13:31:30Z</time>
      </trkpt>
      <trkpt lat="46.90225" lon="6.37156">
        <ele>860.6</ele>
        <time>2021-08-13T13:31:31Z</time>
      </trkpt>
      <trkpt lat="46.90207" lon="6.37146">
        <ele>860</ele>
        <time>2021-08-13T13:31:33Z</time>
      </trkpt>
      <trkpt lat="46.90191" lon="6.37135">
        <ele>859.5</ele>
        <time>2021-08-13T13:31:35Z</time>
      </trkpt>
      <trkpt lat="46.90174" lon="6.37123">
        <ele>859.1</ele>
        <time>2021-08-13T13:31:37Z</time>
      </trkpt>
      <trkpt lat="46.90167" lon="6.37116">
        <ele>858.9</ele>
        <time>2021-08-13T13:31:38Z</time>
      </trkpt>
      <trkpt lat="46.90153" lon="6.37104">
        <ele>858.5</ele>
        <time>2021-08-13T13:31:40Z</time>
      </trkpt>
      <trkpt lat="46.90145" lon="6.37098">
        <ele>858.3</ele>
        <time>2021-08-13T13:31:41Z</time>
      </trkpt>
      <trkpt lat="46.90131" lon="6.37083">
        <ele>857.8</ele>
        <time>2021-08-13T13:31:43Z</time>
      </trkpt>
      <trkpt lat="46.90117" lon="6.37068">
        <ele>857.4</ele>
        <time>2021-08-13T13:31:45Z</time>
      </trkpt>
      <trkpt lat="46.90111" lon="6.3706">
        <ele>857.2</ele>
        <time>2021-08-13T13:31:46Z</time>
      </trkpt>
      <trkpt lat="46.90105" lon="6.37053">
        <ele>857</ele>
        <time>2021-08-13T13:31:47Z</time>
      </trkpt>
      <trkpt lat="46.90092" lon="6.3704">
        <ele>856.7</ele>
        <time>2021-08-13T13:31:49Z</time>
      </trkpt>
      <trkpt lat="46.90082" lon="6.37029">
        <ele>856.4</ele>
        <time>2021-08-13T13:31:51Z</time>
      </trkpt>
      <trkpt lat="46.90077" lon="6.37025">
        <ele>856.4</ele>
        <time>2021-08-13T13:31:52Z</time>
      </trkpt>
      <trkpt lat="46.90066" lon="6.37022">
        <ele>856.3</ele>
        <time>2021-08-13T13:31:54Z</time>
      </trkpt>
      <trkpt lat="46.9006" lon="6.37023">
        <ele>856.3</ele>
        <time>2021-08-13T13:31:55Z</time>
      </trkpt>
      <trkpt lat="46.90049" lon="6.37027">
        <ele>856.5</ele>
        <time>2021-08-13T13:31:57Z</time>
      </trkpt>
      <trkpt lat="46.90045" lon="6.37029">
        <ele>856.6</ele>
        <time>2021-08-13T13:31:58Z</time>
      </trkpt>
      <trkpt lat="46.90038" lon="6.37033">
        <ele>856.7</ele>
        <time>2021-08-13T13:32:00Z</time>
      </trkpt>
      <trkpt lat="46.90034" lon="6.37035">
        <ele>856.7</ele>
        <time>2021-08-13T13:32:01Z</time>
      </trkpt>
      <trkpt lat="46.90028" lon="6.37039">
        <ele>856.8</ele>
        <time>2021-08-13T13:32:03Z</time>
      </trkpt>
      <trkpt lat="46.9002" lon="6.37043">
        <ele>856.8</ele>
        <time>2021-08-13T13:32:05Z</time>
      </trkpt>
      <trkpt lat="46.90012" lon="6.37048">
        <ele>856.8</ele>
        <time>2021-08-13T13:32:07Z</time>
      </trkpt>
      <trkpt lat="46.90008" lon="6.3705">
        <ele>856.8</ele>
        <time>2021-08-13T13:32:08Z</time>
      </trkpt>
      <trkpt lat="46.90003" lon="6.37053">
        <ele>856.7</ele>
        <time>2021-08-13T13:32:09Z</time>
      </trkpt>
      <trkpt lat="46.90001" lon="6.37054">
        <ele>856.8</ele>
        <time>2021-08-13T13:32:10Z</time>
      </trkpt>
      <trkpt lat="46.89997" lon="6.37058">
        <ele>857</ele>
        <time>2021-08-13T13:32:11Z</time>
      </trkpt>
      <trkpt lat="46.89991" lon="6.37069">
        <ele>857.3</ele>
        <time>2021-08-13T13:32:13Z</time>
      </trkpt>
      <trkpt lat="46.89991" lon="6.37075">
        <ele>857.5</ele>
        <time>2021-08-13T13:32:14Z</time>
      </trkpt>
      <trkpt lat="46.89995" lon="6.3709">
        <ele>857.9</ele>
        <time>2021-08-13T13:32:16Z</time>
      </trkpt>
      <trkpt lat="46.89996" lon="6.37097">
        <ele>858</ele>
        <time>2021-08-13T13:32:17Z</time>
      </trkpt>
      <trkpt lat="46.89996" lon="6.37105">
        <ele>858.3</ele>
        <time>2021-08-13T13:32:18Z</time>
      </trkpt>
      <trkpt lat="46.89995" lon="6.3712">
        <ele>858.7</ele>
        <time>2021-08-13T13:32:20Z</time>
      </trkpt>
      <trkpt lat="46.89995" lon="6.37128">
        <ele>858.9</ele>
        <time>2021-08-13T13:32:21Z</time>
      </trkpt>
      <trkpt lat="46.89996" lon="6.37135">
        <ele>859.2</ele>
        <time>2021-08-13T13:32:22Z</time>
      </trkpt>
      <trkpt lat="46.89997" lon="6.37142">
        <ele>859.4</ele>
        <time>2021-08-13T13:32:23Z</time>
      </trkpt>
      <trkpt lat="46.89998" lon="6.37149">
        <ele>859.6</ele>
        <time>2021-08-13T13:32:24Z</time>
      </trkpt>
      <trkpt lat="46.89999" lon="6.37153">
        <ele>859.7</ele>
        <time>2021-08-13T13:32:25Z</time>
      </trkpt>
      <trkpt lat="46.9" lon="6.37164">
        <ele>860.1</ele>
        <time>2021-08-13T13:32:27Z</time>
      </trkpt>
      <trkpt lat="46.90001" lon="6.37175">
        <ele>860.5</ele>
        <time>2021-08-13T13:32:29Z</time>
      </trkpt>
      <trkpt lat="46.90002" lon="6.3718">
        <ele>860.7</ele>
        <time>2021-08-13T13:32:30Z</time>
      </trkpt>
      <trkpt lat="46.90003" lon="6.37185">
        <ele>860.8</ele>
        <time>2021-08-13T13:32:31Z</time>
      </trkpt>
      <trkpt lat="46.90004" lon="6.37194">
        <ele>861.1</ele>
        <time>2021-08-13T13:32:33Z</time>
      </trkpt>
      <trkpt lat="46.90004" lon="6.372">
        <ele>861.3</ele>
        <time>2021-08-13T13:32:34Z</time>
      </trkpt>
      <trkpt lat="46.90005" lon="6.37206">
        <ele>861.5</ele>
        <time>2021-08-13T13:32:36Z</time>
      </trkpt>
      <trkpt lat="46.90006" lon="6.37212">
        <ele>861.7</ele>
        <time>2021-08-13T13:32:38Z</time>
      </trkpt>
      <trkpt lat="46.90007" lon="6.37216">
        <ele>861.9</ele>
        <time>2021-08-13T13:32:39Z</time>
      </trkpt>
      <trkpt lat="46.90008" lon="6.3722">
        <ele>862</ele>
        <time>2021-08-13T13:32:40Z</time>
      </trkpt>
      <trkpt lat="46.90008" lon="6.37222">
        <ele>862.1</ele>
        <time>2021-08-13T13:32:41Z</time>
      </trkpt>
      <trkpt lat="46.90009" lon="6.37227">
        <ele>862.3</ele>
        <time>2021-08-13T13:32:43Z</time>
      </trkpt>
      <trkpt lat="46.90009" lon="6.37234">
        <ele>862.5</ele>
        <time>2021-08-13T13:32:45Z</time>
      </trkpt>
      <trkpt lat="46.9001" lon="6.3724">
        <ele>862.7</ele>
        <time>2021-08-13T13:32:47Z</time>
      </trkpt>
      <trkpt lat="46.90011" lon="6.37246">
        <ele>862.9</ele>
        <time>2021-08-13T13:32:49Z</time>
      </trkpt>
      <trkpt lat="46.90012" lon="6.37251">
        <ele>863</ele>
        <time>2021-08-13T13:32:50Z</time>
      </trkpt>
      <trkpt lat="46.90011" lon="6.37255">
        <ele>863.2</ele>
        <time>2021-08-13T13:32:52Z</time>
      </trkpt>
      <trkpt lat="46.90011" lon="6.3726">
        <ele>863.4</ele>
        <time>2021-08-13T13:32:53Z</time>
      </trkpt>
      <trkpt lat="46.90011" lon="6.37265">
        <ele>863.5</ele>
        <time>2021-08-13T13:32:55Z</time>
      </trkpt>
      <trkpt lat="46.9001" lon="6.37269">
        <ele>863.7</ele>
        <time>2021-08-13T13:32:56Z</time>
      </trkpt>
      <trkpt lat="46.9001" lon="6.37275">
        <ele>863.9</ele>
        <time>2021-08-13T13:32:57Z</time>
      </trkpt>
      <trkpt lat="46.90009" lon="6.37277">
        <ele>864</ele>
        <time>2021-08-13T13:32:58Z</time>
      </trkpt>
      <trkpt lat="46.90008" lon="6.37283">
        <ele>864.2</ele>
        <time>2021-08-13T13:33:00Z</time>
      </trkpt>
      <trkpt lat="46.90007" lon="6.37288">
        <ele>864.4</ele>
        <time>2021-08-13T13:33:01Z</time>
      </trkpt>
      <trkpt lat="46.90007" lon="6.37291">
        <ele>864.5</ele>
        <time>2021-08-13T13:33:02Z</time>
      </trkpt>
      <trkpt lat="46.90008" lon="6.37296">
        <ele>864.7</ele>
        <time>2021-08-13T13:33:04Z</time>
      </trkpt>
      <trkpt lat="46.90008" lon="6.37302">
        <ele>864.9</ele>
        <time>2021-08-13T13:33:05Z</time>
      </trkpt>
      <trkpt lat="46.90008" lon="6.37304">
        <ele>865</ele>
        <time>2021-08-13T13:33:06Z</time>
      </trkpt>
      <trkpt lat="46.90008" lon="6.37306">
        <ele>865.1</ele>
        <time>2021-08-13T13:33:07Z</time>
      </trkpt>
      <trkpt lat="46.90008" lon="6.3731">
        <ele>865.2</ele>
        <time>2021-08-13T13:33:09Z</time>
      </trkpt>
      <trkpt lat="46.90008" lon="6.37313">
        <ele>865.3</ele>
        <time>2021-08-13T13:33:10Z</time>
      </trkpt>
      <trkpt lat="46.90008" lon="6.37315">
        <ele>865.4</ele>
        <time>2021-08-13T13:33:11Z</time>
      </trkpt>
      <trkpt lat="46.90008" lon="6.37317">
        <ele>865.5</ele>
        <time>2021-08-13T13:33:12Z</time>
      </trkpt>
      <trkpt lat="46.90009" lon="6.37323">
        <ele>865.7</ele>
        <time>2021-08-13T13:33:13Z</time>
      </trkpt>
      <trkpt lat="46.90009" lon="6.37325">
        <ele>865.8</ele>
        <time>2021-08-13T13:33:14Z</time>
      </trkpt>
      <trkpt lat="46.90009" lon="6.37328">
        <ele>865.9</ele>
        <time>2021-08-13T13:33:15Z</time>
      </trkpt>
      <trkpt lat="46.9001" lon="6.37332">
        <ele>866.1</ele>
        <time>2021-08-13T13:33:17Z</time>
      </trkpt>
      <trkpt lat="46.90011" lon="6.37337">
        <ele>866.3</ele>
        <time>2021-08-13T13:33:18Z</time>
      </trkpt>
      <trkpt lat="46.90012" lon="6.37338">
        <ele>866.4</ele>
        <time>2021-08-13T13:33:19Z</time>
      </trkpt>
      <trkpt lat="46.90012" lon="6.37343">
        <ele>866.5</ele>
        <time>2021-08-13T13:33:20Z</time>
      </trkpt>
      <trkpt lat="46.90013" lon="6.37344">
        <ele>866.6</ele>
        <time>2021-08-13T13:33:21Z</time>
      </trkpt>
      <trkpt lat="46.90011" lon="6.37349">
        <ele>866.8</ele>
        <time>2021-08-13T13:33:22Z</time>
      </trkpt>
      <trkpt lat="46.90011" lon="6.3735">
        <ele>866.9</ele>
        <time>2021-08-13T13:33:23Z</time>
      </trkpt>
      <trkpt lat="46.90011" lon="6.37351">
        <ele>866.9</ele>
        <time>2021-08-13T13:33:24Z</time>
      </trkpt>
      <trkpt lat="46.9001" lon="6.37353">
        <ele>867</ele>
        <time>2021-08-13T13:33:25Z</time>
      </trkpt>
      <trkpt lat="46.9001" lon="6.37355">
        <ele>867.1</ele>
        <time>2021-08-13T13:33:26Z</time>
      </trkpt>
      <trkpt lat="46.90011" lon="6.37356">
        <ele>867.2</ele>
        <time>2021-08-13T13:33:27Z</time>
      </trkpt>
      <trkpt lat="46.90011" lon="6.3736">
        <ele>867.4</ele>
        <time>2021-08-13T13:33:29Z</time>
      </trkpt>
      <trkpt lat="46.90011" lon="6.37362">
        <ele>867.5</ele>
        <time>2021-08-13T13:33:30Z</time>
      </trkpt>
      <trkpt lat="46.90011" lon="6.37364">
        <ele>867.6</ele>
        <time>2021-08-13T13:33:31Z</time>
      </trkpt>
      <trkpt lat="46.90011" lon="6.37367">
        <ele>867.7</ele>
        <time>2021-08-13T13:33:32Z</time>
      </trkpt>
      <trkpt lat="46.90011" lon="6.37371">
        <ele>868</ele>
        <time>2021-08-13T13:33:34Z</time>
      </trkpt>
      <trkpt lat="46.90011" lon="6.37374">
        <ele>868.1</ele>
        <time>2021-08-13T13:33:35Z</time>
      </trkpt>
      <trkpt lat="46.90012" lon="6.37379">
        <ele>868.4</ele>
        <time>2021-08-13T13:33:37Z</time>
      </trkpt>
      <trkpt lat="46.90011" lon="6.37385">
        <ele>868.8</ele>
        <time>2021-08-13T13:33:39Z</time>
      </trkpt>
      <trkpt lat="46.90012" lon="6.37386">
        <ele>868.9</ele>
        <time>2021-08-13T13:33:40Z</time>
      </trkpt>
      <trkpt lat="46.90012" lon="6.37388">
        <ele>869</ele>
        <time>2021-08-13T13:33:42Z</time>
      </trkpt>
      <trkpt lat="46.90012" lon="6.37389">
        <ele>869.1</ele>
        <time>2021-08-13T13:33:43Z</time>
      </trkpt>
      <trkpt lat="46.90014" lon="6.37393">
        <ele>869.4</ele>
        <time>2021-08-13T13:33:44Z</time>
      </trkpt>
      <trkpt lat="46.90014" lon="6.37394">
        <ele>869.4</ele>
        <time>2021-08-13T13:33:45Z</time>
      </trkpt>
      <trkpt lat="46.90016" lon="6.37396">
        <ele>869.6</ele>
        <time>2021-08-13T13:33:46Z</time>
      </trkpt>
      <trkpt lat="46.90017" lon="6.37397">
        <ele>869.8</ele>
        <time>2021-08-13T13:33:47Z</time>
      </trkpt>
      <trkpt lat="46.90019" lon="6.37401">
        <ele>870.1</ele>
        <time>2021-08-13T13:33:49Z</time>
      </trkpt>
      <trkpt lat="46.90019" lon="6.37403">
        <ele>870.1</ele>
        <time>2021-08-13T13:33:50Z</time>
      </trkpt>
      <trkpt lat="46.90021" lon="6.37406">
        <ele>870.2</ele>
        <time>2021-08-13T13:33:52Z</time>
      </trkpt>
      <trkpt lat="46.90022" lon="6.37407">
        <ele>870.2</ele>
        <time>2021-08-13T13:33:53Z</time>
      </trkpt>
      <trkpt lat="46.90025" lon="6.37409">
        <ele>870.3</ele>
        <time>2021-08-13T13:33:54Z</time>
      </trkpt>
      <trkpt lat="46.90026" lon="6.3741">
        <ele>870.3</ele>
        <time>2021-08-13T13:33:55Z</time>
      </trkpt>
      <trkpt lat="46.90027" lon="6.37411">
        <ele>870.4</ele>
        <time>2021-08-13T13:33:57Z</time>
      </trkpt>
      <trkpt lat="46.90028" lon="6.37413">
        <ele>870.4</ele>
        <time>2021-08-13T13:33:58Z</time>
      </trkpt>
      <trkpt lat="46.90031" lon="6.37415">
        <ele>870.5</ele>
        <time>2021-08-13T13:33:59Z</time>
      </trkpt>
      <trkpt lat="46.90032" lon="6.37416">
        <ele>870.5</ele>
        <time>2021-08-13T13:34:00Z</time>
      </trkpt>
      <trkpt lat="46.90034" lon="6.37417">
        <ele>870.6</ele>
        <time>2021-08-13T13:34:01Z</time>
      </trkpt>
      <trkpt lat="46.90037" lon="6.37419">
        <ele>870.7</ele>
        <time>2021-08-13T13:34:03Z</time>
      </trkpt>
      <trkpt lat="46.90037" lon="6.37419">
        <ele>870.7</ele>
        <time>2021-08-13T13:34:04Z</time>
      </trkpt>
      <trkpt lat="46.90037" lon="6.37419">
        <ele>870.7</ele>
        <time>2021-08-13T13:34:05Z</time>
      </trkpt>
      <trkpt lat="46.90038" lon="6.37419">
        <ele>870.7</ele>
        <time>2021-08-13T13:34:06Z</time>
      </trkpt>
      <trkpt lat="46.90038" lon="6.37419">
        <ele>870.7</ele>
        <time>2021-08-13T13:34:08Z</time>
      </trkpt>
      <trkpt lat="46.90038" lon="6.37419">
        <ele>870.7</ele>
        <time>2021-08-13T13:34:10Z</time>
      </trkpt>
      <trkpt lat="46.90038" lon="6.37419">
        <ele>870.7</ele>
        <time>2021-08-13T13:34:11Z</time>
      </trkpt>
      <trkpt lat="46.90047" lon="6.37426">
        <ele>871</ele>
        <time>2021-08-13T13:34:20Z</time>
      </trkpt>
      <trkpt lat="46.90052" lon="6.37431">
        <ele>871.2</ele>
        <time>2021-08-13T13:34:22Z</time>
      </trkpt>
      <trkpt lat="46.90054" lon="6.37435">
        <ele>871.4</ele>
        <time>2021-08-13T13:34:23Z</time>
      </trkpt>
      <trkpt lat="46.90055" lon="6.37436">
        <ele>871.5</ele>
        <time>2021-08-13T13:34:24Z</time>
      </trkpt>
      <trkpt lat="46.90057" lon="6.37438">
        <ele>871.6</ele>
        <time>2021-08-13T13:34:25Z</time>
      </trkpt>
      <trkpt lat="46.90059" lon="6.37439">
        <ele>871.7</ele>
        <time>2021-08-13T13:34:26Z</time>
      </trkpt>
      <trkpt lat="46.90059" lon="6.37442">
        <ele>871.8</ele>
        <time>2021-08-13T13:34:27Z</time>
      </trkpt>
      <trkpt lat="46.9006" lon="6.37443">
        <ele>871.9</ele>
        <time>2021-08-13T13:34:28Z</time>
      </trkpt>
      <trkpt lat="46.90061" lon="6.37446">
        <ele>872.1</ele>
        <time>2021-08-13T13:34:30Z</time>
      </trkpt>
      <trkpt lat="46.90062" lon="6.37448">
        <ele>872.1</ele>
        <time>2021-08-13T13:34:31Z</time>
      </trkpt>
      <trkpt lat="46.90062" lon="6.37451">
        <ele>872.3</ele>
        <time>2021-08-13T13:34:32Z</time>
      </trkpt>
      <trkpt lat="46.90062" lon="6.37451">
        <ele>872.3</ele>
        <time>2021-08-13T13:34:33Z</time>
      </trkpt>
      <trkpt lat="46.90062" lon="6.37453">
        <ele>872.4</ele>
        <time>2021-08-13T13:34:35Z</time>
      </trkpt>
      <trkpt lat="46.90062" lon="6.37455">
        <ele>872.5</ele>
        <time>2021-08-13T13:34:36Z</time>
      </trkpt>
      <trkpt lat="46.90063" lon="6.37459">
        <ele>872.6</ele>
        <time>2021-08-13T13:34:37Z</time>
      </trkpt>
      <trkpt lat="46.90063" lon="6.3746">
        <ele>872.6</ele>
        <time>2021-08-13T13:34:38Z</time>
      </trkpt>
      <trkpt lat="46.90063" lon="6.37465">
        <ele>872.6</ele>
        <time>2021-08-13T13:34:39Z</time>
      </trkpt>
      <trkpt lat="46.90066" lon="6.3747">
        <ele>872.7</ele>
        <time>2021-08-13T13:34:41Z</time>
      </trkpt>
      <trkpt lat="46.90067" lon="6.37472">
        <ele>872.7</ele>
        <time>2021-08-13T13:34:42Z</time>
      </trkpt>
      <trkpt lat="46.90067" lon="6.37473">
        <ele>872.8</ele>
        <time>2021-08-13T13:34:43Z</time>
      </trkpt>
      <trkpt lat="46.90069" lon="6.37476">
        <ele>872.9</ele>
        <time>2021-08-13T13:34:44Z</time>
      </trkpt>
      <trkpt lat="46.9007" lon="6.37477">
        <ele>872.9</ele>
        <time>2021-08-13T13:34:45Z</time>
      </trkpt>
      <trkpt lat="46.90071" lon="6.37479">
        <ele>872.9</ele>
        <time>2021-08-13T13:34:46Z</time>
      </trkpt>
      <trkpt lat="46.90071" lon="6.37481">
        <ele>873</ele>
        <time>2021-08-13T13:34:47Z</time>
      </trkpt>
      <trkpt lat="46.90071" lon="6.37483">
        <ele>873</ele>
        <time>2021-08-13T13:34:49Z</time>
      </trkpt>
      <trkpt lat="46.90071" lon="6.37484">
        <ele>873</ele>
        <time>2021-08-13T13:34:50Z</time>
      </trkpt>
      <trkpt lat="46.9007" lon="6.37484">
        <ele>873.1</ele>
        <time>2021-08-13T13:34:51Z</time>
      </trkpt>
      <trkpt lat="46.9007" lon="6.37485">
        <ele>873.1</ele>
        <time>2021-08-13T13:34:52Z</time>
      </trkpt>
      <trkpt lat="46.9007" lon="6.37486">
        <ele>873.1</ele>
        <time>2021-08-13T13:34:53Z</time>
      </trkpt>
      <trkpt lat="46.90072" lon="6.37491">
        <ele>873.2</ele>
        <time>2021-08-13T13:34:55Z</time>
      </trkpt>
      <trkpt lat="46.90074" lon="6.37497">
        <ele>873.3</ele>
        <time>2021-08-13T13:34:57Z</time>
      </trkpt>
      <trkpt lat="46.90075" lon="6.37499">
        <ele>873.4</ele>
        <time>2021-08-13T13:34:58Z</time>
      </trkpt>
      <trkpt lat="46.90076" lon="6.37501">
        <ele>873.4</ele>
        <time>2021-08-13T13:34:59Z</time>
      </trkpt>
      <trkpt lat="46.90076" lon="6.37504">
        <ele>873.5</ele>
        <time>2021-08-13T13:35:00Z</time>
      </trkpt>
      <trkpt lat="46.90077" lon="6.37504">
        <ele>873.5</ele>
        <time>2021-08-13T13:35:01Z</time>
      </trkpt>
      <trkpt lat="46.9008" lon="6.37506">
        <ele>873.6</ele>
        <time>2021-08-13T13:35:03Z</time>
      </trkpt>
      <trkpt lat="46.9008" lon="6.37508">
        <ele>873.6</ele>
        <time>2021-08-13T13:35:04Z</time>
      </trkpt>
      <trkpt lat="46.9008" lon="6.37513">
        <ele>873.7</ele>
        <time>2021-08-13T13:35:06Z</time>
      </trkpt>
      <trkpt lat="46.90083" lon="6.37518">
        <ele>873.8</ele>
        <time>2021-08-13T13:35:08Z</time>
      </trkpt>
      <trkpt lat="46.90084" lon="6.3752">
        <ele>873.9</ele>
        <time>2021-08-13T13:35:09Z</time>
      </trkpt>
      <trkpt lat="46.90085" lon="6.37521">
        <ele>873.9</ele>
        <time>2021-08-13T13:35:10Z</time>
      </trkpt>
      <trkpt lat="46.90086" lon="6.37526">
        <ele>874</ele>
        <time>2021-08-13T13:35:12Z</time>
      </trkpt>
      <trkpt lat="46.90086" lon="6.37527">
        <ele>874</ele>
        <time>2021-08-13T13:35:13Z</time>
      </trkpt>
      <trkpt lat="46.90085" lon="6.37527">
        <ele>874.1</ele>
        <time>2021-08-13T13:35:15Z</time>
      </trkpt>
      <trkpt lat="46.90084" lon="6.37527">
        <ele>874.1</ele>
        <time>2021-08-13T13:35:16Z</time>
      </trkpt>
      <trkpt lat="46.90084" lon="6.37526">
        <ele>874.1</ele>
        <time>2021-08-13T13:35:17Z</time>
      </trkpt>
      <trkpt lat="46.90083" lon="6.37525">
        <ele>874.1</ele>
        <time>2021-08-13T13:35:18Z</time>
      </trkpt>
      <trkpt lat="46.90082" lon="6.37525">
        <ele>874.1</ele>
        <time>2021-08-13T13:35:19Z</time>
      </trkpt>
      <trkpt lat="46.9008" lon="6.37522">
        <ele>874.2</ele>
        <time>2021-08-13T13:35:20Z</time>
      </trkpt>
      <trkpt lat="46.90079" lon="6.37521">
        <ele>874.3</ele>
        <time>2021-08-13T13:35:21Z</time>
      </trkpt>
      <trkpt lat="46.90076" lon="6.37516">
        <ele>874.4</ele>
        <time>2021-08-13T13:35:22Z</time>
      </trkpt>
      <trkpt lat="46.90073" lon="6.37513">
        <ele>874.5</ele>
        <time>2021-08-13T13:35:24Z</time>
      </trkpt>
      <trkpt lat="46.90071" lon="6.37514">
        <ele>874.5</ele>
        <time>2021-08-13T13:35:25Z</time>
      </trkpt>
      <trkpt lat="46.90067" lon="6.37517">
        <ele>874.6</ele>
        <time>2021-08-13T13:35:27Z</time>
      </trkpt>
      <trkpt lat="46.90066" lon="6.3752">
        <ele>874.7</ele>
        <time>2021-08-13T13:35:28Z</time>
      </trkpt>
      <trkpt lat="46.90065" lon="6.3752">
        <ele>874.7</ele>
        <time>2021-08-13T13:35:29Z</time>
      </trkpt>
      <trkpt lat="46.90063" lon="6.37521">
        <ele>874.8</ele>
        <time>2021-08-13T13:35:30Z</time>
      </trkpt>
      <trkpt lat="46.90063" lon="6.37522">
        <ele>874.8</ele>
        <time>2021-08-13T13:35:32Z</time>
      </trkpt>
      <trkpt lat="46.90062" lon="6.37522">
        <ele>874.8</ele>
        <time>2021-08-13T13:35:33Z</time>
      </trkpt>
      <trkpt lat="46.90066" lon="6.37524">
        <ele>874.9</ele>
        <time>2021-08-13T13:35:34Z</time>
      </trkpt>
      <trkpt lat="46.90071" lon="6.37526">
        <ele>875</ele>
        <time>2021-08-13T13:35:35Z</time>
      </trkpt>
      <trkpt lat="46.90075" lon="6.37527">
        <ele>875.1</ele>
        <time>2021-08-13T13:35:36Z</time>
      </trkpt>
      <trkpt lat="46.90079" lon="6.37529">
        <ele>875.2</ele>
        <time>2021-08-13T13:35:38Z</time>
      </trkpt>
      <trkpt lat="46.90083" lon="6.37531">
        <ele>875.3</ele>
        <time>2021-08-13T13:36:20Z</time>
      </trkpt>
      <trkpt lat="46.90087" lon="6.37532">
        <ele>875.4</ele>
        <time>2021-08-13T13:36:21Z</time>
      </trkpt>
      <trkpt lat="46.90079" lon="6.37522">
        <ele>875.7</ele>
        <time>2021-08-13T13:36:22Z</time>
      </trkpt>
      <trkpt lat="46.90082" lon="6.37527">
        <ele>875.9</ele>
        <time>2021-08-13T13:36:24Z</time>
      </trkpt>
      <trkpt lat="46.90084" lon="6.3753">
        <ele>876</ele>
        <time>2021-08-13T13:36:25Z</time>
      </trkpt>
      <trkpt lat="46.90092" lon="6.37538">
        <ele>876.2</ele>
        <time>2021-08-13T13:36:27Z</time>
      </trkpt>
      <trkpt lat="46.90102" lon="6.37548">
        <ele>877</ele>
        <time>2021-08-13T13:36:29Z</time>
      </trkpt>
      <trkpt lat="46.90111" lon="6.37557">
        <ele>877.5</ele>
        <time>2021-08-13T13:36:30Z</time>
      </trkpt>
      <trkpt lat="46.90114" lon="6.3756">
        <ele>877.5</ele>
        <time>2021-08-13T13:36:31Z</time>
      </trkpt>
      <trkpt lat="46.90116" lon="6.37562">
        <ele>877.4</ele>
        <time>2021-08-13T13:36:33Z</time>
      </trkpt>
      <trkpt lat="46.90117" lon="6.37562">
        <ele>877.4</ele>
        <time>2021-08-13T13:36:34Z</time>
      </trkpt>
      <trkpt lat="46.90113" lon="6.37554">
        <ele>877.2</ele>
        <time>2021-08-13T13:36:35Z</time>
      </trkpt>
      <trkpt lat="46.90108" lon="6.37546">
        <ele>876.9</ele>
        <time>2021-08-13T13:36:37Z</time>
      </trkpt>
      <trkpt lat="46.90103" lon="6.37538">
        <ele>876.7</ele>
        <time>2021-08-13T13:36:39Z</time>
      </trkpt>
      <trkpt lat="46.90098" lon="6.37531">
        <ele>876.6</ele>
        <time>2021-08-13T13:36:40Z</time>
      </trkpt>
      <trkpt lat="46.90094" lon="6.37523">
        <ele>876</ele>
        <time>2021-08-13T13:36:42Z</time>
      </trkpt>
      <trkpt lat="46.90092" lon="6.37522">
        <ele>875.9</ele>
        <time>2021-08-13T13:36:43Z</time>
      </trkpt>
      <trkpt lat="46.90091" lon="6.37521">
        <ele>875.8</ele>
        <time>2021-08-13T13:36:44Z</time>
      </trkpt>
      <trkpt lat="46.9009" lon="6.37521">
        <ele>875.7</ele>
        <time>2021-08-13T13:36:45Z</time>
      </trkpt>
      <trkpt lat="46.90089" lon="6.37522">
        <ele>875.7</ele>
        <time>2021-08-13T13:36:46Z</time>
      </trkpt>
      <trkpt lat="46.90088" lon="6.37522">
        <ele>875.6</ele>
        <time>2021-08-13T13:36:48Z</time>
      </trkpt>
      <trkpt lat="46.90088" lon="6.37522">
        <ele>875.6</ele>
        <time>2021-08-13T13:36:49Z</time>
      </trkpt>
      <trkpt lat="46.90088" lon="6.37521">
        <ele>875.6</ele>
        <time>2021-08-13T13:36:50Z</time>
      </trkpt>
      <trkpt lat="46.90088" lon="6.37521">
        <ele>875.5</ele>
        <time>2021-08-13T13:36:51Z</time>
      </trkpt>
      <trkpt lat="46.90088" lon="6.37521">
        <ele>875.5</ele>
        <time>2021-08-13T13:36:52Z</time>
      </trkpt>
      <trkpt lat="46.90087" lon="6.37522">
        <ele>875.5</ele>
        <time>2021-08-13T13:36:54Z</time>
      </trkpt>
      <trkpt lat="46.90087" lon="6.37522">
        <ele>875.4</ele>
        <time>2021-08-13T13:36:55Z</time>
      </trkpt>
      <trkpt lat="46.90086" lon="6.37523">
        <ele>875.4</ele>
        <time>2021-08-13T13:36:57Z</time>
      </trkpt>
      <trkpt lat="46.90086" lon="6.37523">
        <ele>875.4</ele>
        <time>2021-08-13T13:36:58Z</time>
      </trkpt>
      <trkpt lat="46.90085" lon="6.37524">
        <ele>875.3</ele>
        <time>2021-08-13T13:36:59Z</time>
      </trkpt>
      <trkpt lat="46.90082" lon="6.37525">
        <ele>875.3</ele>
        <time>2021-08-13T13:37:01Z</time>
      </trkpt>
      <trkpt lat="46.90081" lon="6.37526">
        <ele>875.3</ele>
        <time>2021-08-13T13:37:02Z</time>
      </trkpt>
      <trkpt lat="46.9008" lon="6.37528">
        <ele>875.4</ele>
        <time>2021-08-13T13:37:04Z</time>
      </trkpt>
      <trkpt lat="46.90079" lon="6.37528">
        <ele>875.4</ele>
        <time>2021-08-13T13:37:05Z</time>
      </trkpt>
      <trkpt lat="46.90077" lon="6.37533">
        <ele>875.6</ele>
        <time>2021-08-13T13:37:07Z</time>
      </trkpt>
      <trkpt lat="46.90082" lon="6.37535">
        <ele>875.8</ele>
        <time>2021-08-13T13:37:08Z</time>
      </trkpt>
      <trkpt lat="46.90085" lon="6.37536">
        <ele>876</ele>
        <time>2021-08-13T13:37:09Z</time>
      </trkpt>
      <trkpt lat="46.90092" lon="6.37537">
        <ele>876.3</ele>
        <time>2021-08-13T13:37:11Z</time>
      </trkpt>
      <trkpt lat="46.90094" lon="6.37539">
        <ele>876.4</ele>
        <time>2021-08-13T13:37:12Z</time>
      </trkpt>
      <trkpt lat="46.90097" lon="6.37541">
        <ele>876.6</ele>
        <time>2021-08-13T13:37:13Z</time>
      </trkpt>
      <trkpt lat="46.90101" lon="6.37543">
        <ele>876.8</ele>
        <time>2021-08-13T13:37:15Z</time>
      </trkpt>
      <trkpt lat="46.90102" lon="6.37543">
        <ele>876.8</ele>
        <time>2021-08-13T13:37:16Z</time>
      </trkpt>
      <trkpt lat="46.90105" lon="6.37545">
        <ele>877</ele>
        <time>2021-08-13T13:37:17Z</time>
      </trkpt>
      <trkpt lat="46.90107" lon="6.37545">
        <ele>877</ele>
        <time>2021-08-13T13:37:18Z</time>
      </trkpt>
      <trkpt lat="46.9011" lon="6.37546">
        <ele>877.1</ele>
        <time>2021-08-13T13:37:19Z</time>
      </trkpt>
      <trkpt lat="46.90113" lon="6.37547">
        <ele>877.2</ele>
        <time>2021-08-13T13:37:20Z</time>
      </trkpt>
      <trkpt lat="46.90116" lon="6.37549">
        <ele>877.4</ele>
        <time>2021-08-13T13:37:21Z</time>
      </trkpt>
      <trkpt lat="46.90118" lon="6.3755">
        <ele>877.5</ele>
        <time>2021-08-13T13:37:22Z</time>
      </trkpt>
      <trkpt lat="46.90121" lon="6.37554">
        <ele>877.7</ele>
        <time>2021-08-13T13:37:24Z</time>
      </trkpt>
      <trkpt lat="46.90123" lon="6.37556">
        <ele>877.7</ele>
        <time>2021-08-13T13:37:25Z</time>
      </trkpt>
      <trkpt lat="46.90125" lon="6.3756">
        <ele>877.8</ele>
        <time>2021-08-13T13:37:27Z</time>
      </trkpt>
      <trkpt lat="46.90127" lon="6.37563">
        <ele>877.9</ele>
        <time>2021-08-13T13:37:28Z</time>
      </trkpt>
      <trkpt lat="46.90129" lon="6.37568">
        <ele>878</ele>
        <time>2021-08-13T13:37:29Z</time>
      </trkpt>
      <trkpt lat="46.9013" lon="6.37572">
        <ele>878.1</ele>
        <time>2021-08-13T13:37:30Z</time>
      </trkpt>
      <trkpt lat="46.90131" lon="6.37573">
        <ele>878.1</ele>
        <time>2021-08-13T13:37:31Z</time>
      </trkpt>
      <trkpt lat="46.90131" lon="6.37578">
        <ele>878.2</ele>
        <time>2021-08-13T13:37:33Z</time>
      </trkpt>
      <trkpt lat="46.90131" lon="6.37582">
        <ele>878.4</ele>
        <time>2021-08-13T13:37:35Z</time>
      </trkpt>
      <trkpt lat="46.9013" lon="6.37587">
        <ele>878.5</ele>
        <time>2021-08-13T13:37:36Z</time>
      </trkpt>
      <trkpt lat="46.9013" lon="6.3759">
        <ele>878.6</ele>
        <time>2021-08-13T13:37:37Z</time>
      </trkpt>
      <trkpt lat="46.90128" lon="6.376">
        <ele>878.9</ele>
        <time>2021-08-13T13:37:39Z</time>
      </trkpt>
      <trkpt lat="46.90127" lon="6.37608">
        <ele>878.9</ele>
        <time>2021-08-13T13:37:41Z</time>
      </trkpt>
      <trkpt lat="46.90127" lon="6.37612">
        <ele>878.9</ele>
        <time>2021-08-13T13:37:42Z</time>
      </trkpt>
      <trkpt lat="46.90127" lon="6.37615">
        <ele>878.9</ele>
        <time>2021-08-13T13:37:43Z</time>
      </trkpt>
      <trkpt lat="46.90127" lon="6.37617">
        <ele>879</ele>
        <time>2021-08-13T13:37:44Z</time>
      </trkpt>
      <trkpt lat="46.90125" lon="6.3762">
        <ele>879</ele>
        <time>2021-08-13T13:37:46Z</time>
      </trkpt>
      <trkpt lat="46.90123" lon="6.37622">
        <ele>879</ele>
        <time>2021-08-13T13:37:47Z</time>
      </trkpt>
      <trkpt lat="46.9012" lon="6.37625">
        <ele>879</ele>
        <time>2021-08-13T13:37:49Z</time>
      </trkpt>
      <trkpt lat="46.90116" lon="6.37626">
        <ele>879.2</ele>
        <time>2021-08-13T13:37:50Z</time>
      </trkpt>
      <trkpt lat="46.90114" lon="6.37627">
        <ele>879.3</ele>
        <time>2021-08-13T13:37:51Z</time>
      </trkpt>
      <trkpt lat="46.90112" lon="6.37628">
        <ele>879.5</ele>
        <time>2021-08-13T13:37:52Z</time>
      </trkpt>
      <trkpt lat="46.90108" lon="6.37628">
        <ele>879.8</ele>
        <time>2021-08-13T13:37:53Z</time>
      </trkpt>
      <trkpt lat="46.90105" lon="6.37629">
        <ele>880.1</ele>
        <time>2021-08-13T13:37:54Z</time>
      </trkpt>
      <trkpt lat="46.90104" lon="6.37629">
        <ele>880.1</ele>
        <time>2021-08-13T13:37:55Z</time>
      </trkpt>
      <trkpt lat="46.90101" lon="6.37631">
        <ele>880.4</ele>
        <time>2021-08-13T13:37:57Z</time>
      </trkpt>
      <trkpt lat="46.90098" lon="6.37634">
        <ele>880.7</ele>
        <time>2021-08-13T13:37:59Z</time>
      </trkpt>
      <trkpt lat="46.90094" lon="6.37637">
        <ele>881.1</ele>
        <time>2021-08-13T13:38:01Z</time>
      </trkpt>
      <trkpt lat="46.90091" lon="6.3764">
        <ele>881.4</ele>
        <time>2021-08-13T13:38:02Z</time>
      </trkpt>
      <trkpt lat="46.90091" lon="6.37641">
        <ele>881.5</ele>
        <time>2021-08-13T13:38:03Z</time>
      </trkpt>
      <trkpt lat="46.90089" lon="6.37644">
        <ele>881.7</ele>
        <time>2021-08-13T13:38:04Z</time>
      </trkpt>
      <trkpt lat="46.90088" lon="6.37646">
        <ele>881.8</ele>
        <time>2021-08-13T13:38:05Z</time>
      </trkpt>
      <trkpt lat="46.90088" lon="6.37647">
        <ele>881.9</ele>
        <time>2021-08-13T13:38:06Z</time>
      </trkpt>
      <trkpt lat="46.90087" lon="6.37649">
        <ele>882</ele>
        <time>2021-08-13T13:38:07Z</time>
      </trkpt>
      <trkpt lat="46.90084" lon="6.37651">
        <ele>882.3</ele>
        <time>2021-08-13T13:38:08Z</time>
      </trkpt>
      <trkpt lat="46.90082" lon="6.37651">
        <ele>882.4</ele>
        <time>2021-08-13T13:38:09Z</time>
      </trkpt>
      <trkpt lat="46.90079" lon="6.37654">
        <ele>882.5</ele>
        <time>2021-08-13T13:38:10Z</time>
      </trkpt>
      <trkpt lat="46.90078" lon="6.37654">
        <ele>882.5</ele>
        <time>2021-08-13T13:38:11Z</time>
      </trkpt>
      <trkpt lat="46.90075" lon="6.37656">
        <ele>882.5</ele>
        <time>2021-08-13T13:38:12Z</time>
      </trkpt>
      <trkpt lat="46.90075" lon="6.37657">
        <ele>882.5</ele>
        <time>2021-08-13T13:38:13Z</time>
      </trkpt>
      <trkpt lat="46.90072" lon="6.37659">
        <ele>882.6</ele>
        <time>2021-08-13T13:38:15Z</time>
      </trkpt>
      <trkpt lat="46.9007" lon="6.3766">
        <ele>882.6</ele>
        <time>2021-08-13T13:38:16Z</time>
      </trkpt>
      <trkpt lat="46.90067" lon="6.37662">
        <ele>882.6</ele>
        <time>2021-08-13T13:38:18Z</time>
      </trkpt>
      <trkpt lat="46.90066" lon="6.37663">
        <ele>882.7</ele>
        <time>2021-08-13T13:38:19Z</time>
      </trkpt>
      <trkpt lat="46.90065" lon="6.37663">
        <ele>882.7</ele>
        <time>2021-08-13T13:38:20Z</time>
      </trkpt>
      <trkpt lat="46.90063" lon="6.37664">
        <ele>882.7</ele>
        <time>2021-08-13T13:38:22Z</time>
      </trkpt>
      <trkpt lat="46.90062" lon="6.37665">
        <ele>882.7</ele>
        <time>2021-08-13T13:38:23Z</time>
      </trkpt>
      <trkpt lat="46.90061" lon="6.37665">
        <ele>882.7</ele>
        <time>2021-08-13T13:38:24Z</time>
      </trkpt>
      <trkpt lat="46.90059" lon="6.37663">
        <ele>882.7</ele>
        <time>2021-08-13T13:38:26Z</time>
      </trkpt>
      <trkpt lat="46.90055" lon="6.3766">
        <ele>882.8</ele>
        <time>2021-08-13T13:38:28Z</time>
      </trkpt>
      <trkpt lat="46.90053" lon="6.37657">
        <ele>882.8</ele>
        <time>2021-08-13T13:38:29Z</time>
      </trkpt>
      <trkpt lat="46.90048" lon="6.37651">
        <ele>882.9</ele>
        <time>2021-08-13T13:38:31Z</time>
      </trkpt>
      <trkpt lat="46.90042" lon="6.37644">
        <ele>883</ele>
        <time>2021-08-13T13:38:33Z</time>
      </trkpt>
      <trkpt lat="46.90038" lon="6.37639">
        <ele>883.1</ele>
        <time>2021-08-13T13:38:34Z</time>
      </trkpt>
      <trkpt lat="46.90035" lon="6.37635">
        <ele>883.1</ele>
        <time>2021-08-13T13:38:35Z</time>
      </trkpt>
      <trkpt lat="46.90031" lon="6.37632">
        <ele>883.2</ele>
        <time>2021-08-13T13:38:36Z</time>
      </trkpt>
      <trkpt lat="46.90029" lon="6.37629">
        <ele>883.2</ele>
        <time>2021-08-13T13:38:37Z</time>
      </trkpt>
      <trkpt lat="46.90025" lon="6.37623">
        <ele>883.3</ele>
        <time>2021-08-13T13:38:39Z</time>
      </trkpt>
      <trkpt lat="46.90023" lon="6.37621">
        <ele>883.3</ele>
        <time>2021-08-13T13:38:40Z</time>
      </trkpt>
      <trkpt lat="46.90022" lon="6.3762">
        <ele>883.3</ele>
        <time>2021-08-13T13:38:41Z</time>
      </trkpt>
      <trkpt lat="46.90021" lon="6.37615">
        <ele>883.3</ele>
        <time>2021-08-13T13:38:42Z</time>
      </trkpt>
      <trkpt lat="46.9002" lon="6.37613">
        <ele>883.4</ele>
        <time>2021-08-13T13:38:44Z</time>
      </trkpt>
      <trkpt lat="46.9002" lon="6.37611">
        <ele>883.4</ele>
        <time>2021-08-13T13:38:46Z</time>
      </trkpt>
      <trkpt lat="46.9002" lon="6.37611">
        <ele>883.4</ele>
        <time>2021-08-13T13:38:47Z</time>
      </trkpt>
      <trkpt lat="46.9002" lon="6.37612">
        <ele>883.4</ele>
        <time>2021-08-13T13:38:49Z</time>
      </trkpt>
      <trkpt lat="46.9002" lon="6.37613">
        <ele>883.4</ele>
        <time>2021-08-13T13:38:51Z</time>
      </trkpt>
      <trkpt lat="46.90019" lon="6.37614">
        <ele>883.4</ele>
        <time>2021-08-13T13:38:52Z</time>
      </trkpt>
      <trkpt lat="46.90019" lon="6.37614">
        <ele>883.4</ele>
        <time>2021-08-13T13:38:53Z</time>
      </trkpt>
      <trkpt lat="46.9002" lon="6.37613">
        <ele>883.4</ele>
        <time>2021-08-13T13:38:55Z</time>
      </trkpt>
      <trkpt lat="46.90011" lon="6.37632">
        <ele>883.6</ele>
        <time>2021-08-13T13:45:16Z</time>
      </trkpt>
      <trkpt lat="46.90012" lon="6.37627">
        <ele>883.6</ele>
        <time>2021-08-13T13:45:17Z</time>
      </trkpt>
      <trkpt lat="46.90014" lon="6.37623">
        <ele>883.7</ele>
        <time>2021-08-13T13:45:19Z</time>
      </trkpt>
      <trkpt lat="46.90014" lon="6.37621">
        <ele>883.7</ele>
        <time>2021-08-13T13:45:21Z</time>
      </trkpt>
      <trkpt lat="46.90014" lon="6.37621">
        <ele>883.7</ele>
        <time>2021-08-13T13:45:23Z</time>
      </trkpt>
      <trkpt lat="46.90014" lon="6.37621">
        <ele>883.7</ele>
        <time>2021-08-13T13:45:24Z</time>
      </trkpt>
      <trkpt lat="46.90014" lon="6.37621">
        <ele>883.7</ele>
        <time>2021-08-13T13:45:26Z</time>
      </trkpt>
      <trkpt lat="46.90014" lon="6.37621">
        <ele>883.7</ele>
        <time>2021-08-13T13:45:27Z</time>
      </trkpt>
      <trkpt lat="46.90016" lon="6.37615">
        <ele>883.7</ele>
        <time>2021-08-13T13:45:29Z</time>
      </trkpt>
      <trkpt lat="46.90018" lon="6.37609">
        <ele>883.8</ele>
        <time>2021-08-13T13:45:31Z</time>
      </trkpt>
      <trkpt lat="46.90019" lon="6.37612">
        <ele>883.8</ele>
        <time>2021-08-13T13:45:33Z</time>
      </trkpt>
      <trkpt lat="46.90019" lon="6.37613">
        <ele>883.8</ele>
        <time>2021-08-13T13:45:34Z</time>
      </trkpt>
      <trkpt lat="46.9002" lon="6.37613">
        <ele>883.8</ele>
        <time>2021-08-13T13:45:35Z</time>
      </trkpt>
      <trkpt lat="46.9002" lon="6.37613">
        <ele>883.8</ele>
        <time>2021-08-13T13:45:36Z</time>
      </trkpt>
      <trkpt lat="46.9002" lon="6.37613">
        <ele>883.8</ele>
        <time>2021-08-13T13:45:38Z</time>
      </trkpt>
      <trkpt lat="46.9002" lon="6.37613">
        <ele>883.8</ele>
        <time>2021-08-13T13:45:39Z</time>
      </trkpt>
      <trkpt lat="46.9002" lon="6.37613">
        <ele>883.8</ele>
        <time>2021-08-13T13:45:40Z</time>
      </trkpt>
      <trkpt lat="46.9002" lon="6.37613">
        <ele>883.8</ele>
        <time>2021-08-13T13:45:41Z</time>
      </trkpt>
      <trkpt lat="46.9002" lon="6.37613">
        <ele>883.8</ele>
        <time>2021-08-13T13:45:43Z</time>
      </trkpt>
      <trkpt lat="46.9002" lon="6.37613">
        <ele>883.8</ele>
        <time>2021-08-13T13:45:45Z</time>
      </trkpt>
      <trkpt lat="46.90017" lon="6.37615">
        <ele>883.8</ele>
        <time>2021-08-13T13:45:46Z</time>
      </trkpt>
      <trkpt lat="46.90016" lon="6.37615">
        <ele>883.9</ele>
        <time>2021-08-13T13:45:48Z</time>
      </trkpt>
      <trkpt lat="46.90016" lon="6.37615">
        <ele>883.9</ele>
        <time>2021-08-13T13:45:49Z</time>
      </trkpt>
      <trkpt lat="46.90016" lon="6.37615">
        <ele>883.9</ele>
        <time>2021-08-13T13:45:50Z</time>
      </trkpt>
      <trkpt lat="46.90017" lon="6.37615">
        <ele>883.9</ele>
        <time>2021-08-13T13:45:52Z</time>
      </trkpt>
      <trkpt lat="46.90018" lon="6.37615">
        <ele>883.9</ele>
        <time>2021-08-13T13:45:53Z</time>
      </trkpt>
      <trkpt lat="46.90018" lon="6.37615">
        <ele>883.9</ele>
        <time>2021-08-13T13:45:54Z</time>
      </trkpt>
      <trkpt lat="46.90017" lon="6.37615">
        <ele>883.9</ele>
        <time>2021-08-13T13:45:56Z</time>
      </trkpt>
      <trkpt lat="46.90014" lon="6.37616">
        <ele>883.9</ele>
        <time>2021-08-13T13:45:58Z</time>
      </trkpt>
      <trkpt lat="46.90013" lon="6.37616">
        <ele>883.9</ele>
        <time>2021-08-13T13:45:59Z</time>
      </trkpt>
      <trkpt lat="46.90012" lon="6.37616">
        <ele>884</ele>
        <time>2021-08-13T13:46:01Z</time>
      </trkpt>
      <trkpt lat="46.90011" lon="6.37617">
        <ele>884</ele>
        <time>2021-08-13T13:46:02Z</time>
      </trkpt>
      <trkpt lat="46.9001" lon="6.37617">
        <ele>884</ele>
        <time>2021-08-13T13:46:04Z</time>
      </trkpt>
      <trkpt lat="46.90009" lon="6.37618">
        <ele>884</ele>
        <time>2021-08-13T13:46:06Z</time>
      </trkpt>
      <trkpt lat="46.90008" lon="6.37618">
        <ele>884</ele>
        <time>2021-08-13T13:46:08Z</time>
      </trkpt>
      <trkpt lat="46.90008" lon="6.37619">
        <ele>884</ele>
        <time>2021-08-13T13:46:09Z</time>
      </trkpt>
      <trkpt lat="46.90007" lon="6.37619">
        <ele>884</ele>
        <time>2021-08-13T13:46:11Z</time>
      </trkpt>
      <trkpt lat="46.90007" lon="6.37619">
        <ele>884</ele>
        <time>2021-08-13T13:46:12Z</time>
      </trkpt>
      <trkpt lat="46.90007" lon="6.37619">
        <ele>884</ele>
        <time>2021-08-13T13:46:13Z</time>
      </trkpt>
      <trkpt lat="46.90007" lon="6.37619">
        <ele>884</ele>
        <time>2021-08-13T13:46:15Z</time>
      </trkpt>
      <trkpt lat="46.90007" lon="6.37619">
        <ele>884</ele>
        <time>2021-08-13T13:46:16Z</time>
      </trkpt>
      <trkpt lat="46.90007" lon="6.37619">
        <ele>884</ele>
        <time>2021-08-13T13:46:18Z</time>
      </trkpt>
      <trkpt lat="46.90007" lon="6.3762">
        <ele>884</ele>
        <time>2021-08-13T13:46:20Z</time>
      </trkpt>
      <trkpt lat="46.90007" lon="6.3762">
        <ele>884</ele>
        <time>2021-08-13T13:46:22Z</time>
      </trkpt>
      <trkpt lat="46.90007" lon="6.3762">
        <ele>884</ele>
        <time>2021-08-13T13:46:23Z</time>
      </trkpt>
      <trkpt lat="46.90007" lon="6.3762">
        <ele>884</ele>
        <time>2021-08-13T13:46:25Z</time>
      </trkpt>
      <trkpt lat="46.90007" lon="6.3762">
        <ele>884</ele>
        <time>2021-08-13T13:46:26Z</time>
      </trkpt>
      <trkpt lat="46.90007" lon="6.37619">
        <ele>884</ele>
        <time>2021-08-13T13:46:28Z</time>
      </trkpt>
      <trkpt lat="46.90007" lon="6.37619">
        <ele>884</ele>
        <time>2021-08-13T13:46:29Z</time>
      </trkpt>
      <trkpt lat="46.90007" lon="6.37619">
        <ele>884</ele>
        <time>2021-08-13T13:46:31Z</time>
      </trkpt>
      <trkpt lat="46.90011" lon="6.37617">
        <ele>884.1</ele>
        <time>2021-08-13T13:46:32Z</time>
      </trkpt>
      <trkpt lat="46.90013" lon="6.37618">
        <ele>884.1</ele>
        <time>2021-08-13T13:46:33Z</time>
      </trkpt>
      <trkpt lat="46.90014" lon="6.37621">
        <ele>884.1</ele>
        <time>2021-08-13T13:46:35Z</time>
      </trkpt>
      <trkpt lat="46.90015" lon="6.37623">
        <ele>884.2</ele>
        <time>2021-08-13T13:46:37Z</time>
      </trkpt>
      <trkpt lat="46.90015" lon="6.37623">
        <ele>884.2</ele>
        <time>2021-08-13T13:46:38Z</time>
      </trkpt>
      <trkpt lat="46.90015" lon="6.37623">
        <ele>884.2</ele>
        <time>2021-08-13T13:46:40Z</time>
      </trkpt>
      <trkpt lat="46.90015" lon="6.37623">
        <ele>884.2</ele>
        <time>2021-08-13T13:46:41Z</time>
      </trkpt>
      <trkpt lat="46.90015" lon="6.37623">
        <ele>884.2</ele>
        <time>2021-08-13T13:46:43Z</time>
      </trkpt>
      <trkpt lat="46.90015" lon="6.37623">
        <ele>884.2</ele>
        <time>2021-08-13T13:46:44Z</time>
      </trkpt>
      <trkpt lat="46.90015" lon="6.37623">
        <ele>884.2</ele>
        <time>2021-08-13T13:46:46Z</time>
      </trkpt>
      <trkpt lat="46.90015" lon="6.37623">
        <ele>884.2</ele>
        <time>2021-08-13T13:46:47Z</time>
      </trkpt>
      <trkpt lat="46.90015" lon="6.37623">
        <ele>884.2</ele>
        <time>2021-08-13T13:46:49Z</time>
      </trkpt>
      <trkpt lat="46.90015" lon="6.37623">
        <ele>884.2</ele>
        <time>2021-08-13T13:46:51Z</time>
      </trkpt>
      <trkpt lat="46.90015" lon="6.37623">
        <ele>884.2</ele>
        <time>2021-08-13T13:46:52Z</time>
      </trkpt>
      <trkpt lat="46.90015" lon="6.37623">
        <ele>884.2</ele>
        <time>2021-08-13T13:46:53Z</time>
      </trkpt>
      <trkpt lat="46.90015" lon="6.37623">
        <ele>884.2</ele>
        <time>2021-08-13T13:46:54Z</time>
      </trkpt>
      <trkpt lat="46.90015" lon="6.37623">
        <ele>884.2</ele>
        <time>2021-08-13T13:46:56Z</time>
      </trkpt>
      <trkpt lat="46.90015" lon="6.37623">
        <ele>884.2</ele>
        <time>2021-08-13T13:46:58Z</time>
      </trkpt>
      <trkpt lat="46.90015" lon="6.37623">
        <ele>884.2</ele>
        <time>2021-08-13T13:46:59Z</time>
      </trkpt>
      <trkpt lat="46.90015" lon="6.37623">
        <ele>884.2</ele>
        <time>2021-08-13T13:47:00Z</time>
      </trkpt>
      <trkpt lat="46.90015" lon="6.37623">
        <ele>884.2</ele>
        <time>2021-08-13T13:47:02Z</time>
      </trkpt>
      <trkpt lat="46.90015" lon="6.37623">
        <ele>884.2</ele>
        <time>2021-08-13T13:47:04Z</time>
      </trkpt>
      <trkpt lat="46.90015" lon="6.37623">
        <ele>884.2</ele>
        <time>2021-08-13T13:47:05Z</time>
      </trkpt>
      <trkpt lat="46.90015" lon="6.37623">
        <ele>884.2</ele>
        <time>2021-08-13T13:47:07Z</time>
      </trkpt>
      <trkpt lat="46.90015" lon="6.37623">
        <ele>884.2</ele>
        <time>2021-08-13T13:47:09Z</time>
      </trkpt>
      <trkpt lat="46.90015" lon="6.37623">
        <ele>884.2</ele>
        <time>2021-08-13T13:47:11Z</time>
      </trkpt>
      <trkpt lat="46.90015" lon="6.37623">
        <ele>884.2</ele>
        <time>2021-08-13T13:47:12Z</time>
      </trkpt>
      <trkpt lat="46.90015" lon="6.37623">
        <ele>884.2</ele>
        <time>2021-08-13T13:47:13Z</time>
      </trkpt>
      <trkpt lat="46.90015" lon="6.37624">
        <ele>884.2</ele>
        <time>2021-08-13T13:47:14Z</time>
      </trkpt>
      <trkpt lat="46.90016" lon="6.37624">
        <ele>884.2</ele>
        <time>2021-08-13T13:47:16Z</time>
      </trkpt>
      <trkpt lat="46.90016" lon="6.37624">
        <ele>884.2</ele>
        <time>2021-08-13T13:47:17Z</time>
      </trkpt>
      <trkpt lat="46.90016" lon="6.37624">
        <ele>884.2</ele>
        <time>2021-08-13T13:47:18Z</time>
      </trkpt>
      <trkpt lat="46.90016" lon="6.37624">
        <ele>884.2</ele>
        <time>2021-08-13T13:47:20Z</time>
      </trkpt>
      <trkpt lat="46.90016" lon="6.37624">
        <ele>884.2</ele>
        <time>2021-08-13T13:47:21Z</time>
      </trkpt>
      <trkpt lat="46.90018" lon="6.37623">
        <ele>884.2</ele>
        <time>2021-08-13T13:47:23Z</time>
      </trkpt>
      <trkpt lat="46.9002" lon="6.37623">
        <ele>884.2</ele>
        <time>2021-08-13T13:47:25Z</time>
      </trkpt>
      <trkpt lat="46.90021" lon="6.37622">
        <ele>884.2</ele>
        <time>2021-08-13T13:47:27Z</time>
      </trkpt>
      <trkpt lat="46.90023" lon="6.37622">
        <ele>884.3</ele>
        <time>2021-08-13T13:47:29Z</time>
      </trkpt>
      <trkpt lat="46.90023" lon="6.37621">
        <ele>884.3</ele>
        <time>2021-08-13T13:47:30Z</time>
      </trkpt>
      <trkpt lat="46.90024" lon="6.37621">
        <ele>884.3</ele>
        <time>2021-08-13T13:47:32Z</time>
      </trkpt>
      <trkpt lat="46.90025" lon="6.37621">
        <ele>884.3</ele>
        <time>2021-08-13T13:47:34Z</time>
      </trkpt>
      <trkpt lat="46.90026" lon="6.3762">
        <ele>884.3</ele>
        <time>2021-08-13T13:47:35Z</time>
      </trkpt>
      <trkpt lat="46.90026" lon="6.37619">
        <ele>884.3</ele>
        <time>2021-08-13T13:47:36Z</time>
      </trkpt>
      <trkpt lat="46.90027" lon="6.37618">
        <ele>884.3</ele>
        <time>2021-08-13T13:47:37Z</time>
      </trkpt>
      <trkpt lat="46.90027" lon="6.37616">
        <ele>884.3</ele>
        <time>2021-08-13T13:47:39Z</time>
      </trkpt>
      <trkpt lat="46.89976" lon="6.37455">
        <ele>873.6</ele>
        <time>2021-08-14T09:06:47Z</time>
      </trkpt>
      <trkpt lat="46.89976" lon="6.37455">
        <ele>873.6</ele>
        <time>2021-08-14T09:06:47Z</time>
      </trkpt>
      <trkpt lat="46.89975" lon="6.37454">
        <ele>873.7</ele>
        <time>2021-08-14T09:06:48Z</time>
      </trkpt>
      <trkpt lat="46.89971" lon="6.37462">
        <ele>874</ele>
        <time>2021-08-14T09:06:50Z</time>
      </trkpt>
      <trkpt lat="46.89969" lon="6.37467">
        <ele>874.2</ele>
        <time>2021-08-14T09:06:51Z</time>
      </trkpt>
      <trkpt lat="46.89966" lon="6.37475">
        <ele>874.6</ele>
        <time>2021-08-14T09:06:52Z</time>
      </trkpt>
      <trkpt lat="46.89964" lon="6.37481">
        <ele>875</ele>
        <time>2021-08-14T09:06:53Z</time>
      </trkpt>
      <trkpt lat="46.89962" lon="6.37485">
        <ele>875.3</ele>
        <time>2021-08-14T09:06:54Z</time>
      </trkpt>
      <trkpt lat="46.89959" lon="6.37488">
        <ele>875.7</ele>
        <time>2021-08-14T09:06:55Z</time>
      </trkpt>
      <trkpt lat="46.89958" lon="6.3749">
        <ele>875.9</ele>
        <time>2021-08-14T09:06:56Z</time>
      </trkpt>
      <trkpt lat="46.89957" lon="6.37492">
        <ele>876</ele>
        <time>2021-08-14T09:06:57Z</time>
      </trkpt>
      <trkpt lat="46.89956" lon="6.37493">
        <ele>876.2</ele>
        <time>2021-08-14T09:06:59Z</time>
      </trkpt>
      <trkpt lat="46.89956" lon="6.37493">
        <ele>876.3</ele>
        <time>2021-08-14T09:07:00Z</time>
      </trkpt>
      <trkpt lat="46.89955" lon="6.37494">
        <ele>876.4</ele>
        <time>2021-08-14T09:07:01Z</time>
      </trkpt>
      <trkpt lat="46.89955" lon="6.37494">
        <ele>876.4</ele>
        <time>2021-08-14T09:07:03Z</time>
      </trkpt>
      <trkpt lat="46.89955" lon="6.37495">
        <ele>876.5</ele>
        <time>2021-08-14T09:07:04Z</time>
      </trkpt>
      <trkpt lat="46.89954" lon="6.37496">
        <ele>876.6</ele>
        <time>2021-08-14T09:07:06Z</time>
      </trkpt>
      <trkpt lat="46.89954" lon="6.37497">
        <ele>876.7</ele>
        <time>2021-08-14T09:07:07Z</time>
      </trkpt>
      <trkpt lat="46.89954" lon="6.37498">
        <ele>876.8</ele>
        <time>2021-08-14T09:07:08Z</time>
      </trkpt>
      <trkpt lat="46.89954" lon="6.37498">
        <ele>876.8</ele>
        <time>2021-08-14T09:07:10Z</time>
      </trkpt>
      <trkpt lat="46.89934" lon="6.37553">
        <ele>881.5</ele>
        <time>2021-08-14T09:08:33Z</time>
      </trkpt>
      <trkpt lat="46.89932" lon="6.37555">
        <ele>881.5</ele>
        <time>2021-08-14T09:08:34Z</time>
      </trkpt>
      <trkpt lat="46.8993" lon="6.37556">
        <ele>881.5</ele>
        <time>2021-08-14T09:08:36Z</time>
      </trkpt>
      <trkpt lat="46.89927" lon="6.37558">
        <ele>881.4</ele>
        <time>2021-08-14T09:08:37Z</time>
      </trkpt>
      <trkpt lat="46.89924" lon="6.37559">
        <ele>881.4</ele>
        <time>2021-08-14T09:08:38Z</time>
      </trkpt>
      <trkpt lat="46.8992" lon="6.37561">
        <ele>881.4</ele>
        <time>2021-08-14T09:08:39Z</time>
      </trkpt>
      <trkpt lat="46.89916" lon="6.37562">
        <ele>881.4</ele>
        <time>2021-08-14T09:08:40Z</time>
      </trkpt>
      <trkpt lat="46.89913" lon="6.37563">
        <ele>881.4</ele>
        <time>2021-08-14T09:08:41Z</time>
      </trkpt>
      <trkpt lat="46.89911" lon="6.37564">
        <ele>881.4</ele>
        <time>2021-08-14T09:08:42Z</time>
      </trkpt>
      <trkpt lat="46.89907" lon="6.37566">
        <ele>881.4</ele>
        <time>2021-08-14T09:08:44Z</time>
      </trkpt>
      <trkpt lat="46.89904" lon="6.37568">
        <ele>881.4</ele>
        <time>2021-08-14T09:08:45Z</time>
      </trkpt>
      <trkpt lat="46.89902" lon="6.37566">
        <ele>881.4</ele>
        <time>2021-08-14T09:08:46Z</time>
      </trkpt>
      <trkpt lat="46.89901" lon="6.37564">
        <ele>881.4</ele>
        <time>2021-08-14T09:08:47Z</time>
      </trkpt>
      <trkpt lat="46.89901" lon="6.37562">
        <ele>881.4</ele>
        <time>2021-08-14T09:08:48Z</time>
      </trkpt>
      <trkpt lat="46.899" lon="6.37556">
        <ele>881.4</ele>
        <time>2021-08-14T09:08:49Z</time>
      </trkpt>
      <trkpt lat="46.899" lon="6.37552">
        <ele>881.4</ele>
        <time>2021-08-14T09:08:50Z</time>
      </trkpt>
      <trkpt lat="46.89899" lon="6.37547">
        <ele>881.6</ele>
        <time>2021-08-14T09:08:52Z</time>
      </trkpt>
      <trkpt lat="46.89898" lon="6.37545">
        <ele>881.7</ele>
        <time>2021-08-14T09:08:53Z</time>
      </trkpt>
      <trkpt lat="46.89897" lon="6.37544">
        <ele>881.9</ele>
        <time>2021-08-14T09:08:54Z</time>
      </trkpt>
      <trkpt lat="46.89896" lon="6.37542">
        <ele>882.1</ele>
        <time>2021-08-14T09:08:56Z</time>
      </trkpt>
      <trkpt lat="46.89893" lon="6.37536">
        <ele>882.7</ele>
        <time>2021-08-14T09:08:58Z</time>
      </trkpt>
      <trkpt lat="46.8989" lon="6.3753">
        <ele>883.3</ele>
        <time>2021-08-14T09:09:00Z</time>
      </trkpt>
      <trkpt lat="46.89888" lon="6.37526">
        <ele>883.8</ele>
        <time>2021-08-14T09:09:01Z</time>
      </trkpt>
      <trkpt lat="46.89887" lon="6.37524">
        <ele>884</ele>
        <time>2021-08-14T09:09:02Z</time>
      </trkpt>
      <trkpt lat="46.89885" lon="6.37519">
        <ele>884.5</ele>
        <time>2021-08-14T09:09:04Z</time>
      </trkpt>
      <trkpt lat="46.89885" lon="6.37518">
        <ele>884.6</ele>
        <time>2021-08-14T09:09:05Z</time>
      </trkpt>
      <trkpt lat="46.89882" lon="6.37515">
        <ele>885</ele>
        <time>2021-08-14T09:09:06Z</time>
      </trkpt>
      <trkpt lat="46.89882" lon="6.37514">
        <ele>885.1</ele>
        <time>2021-08-14T09:09:07Z</time>
      </trkpt>
      <trkpt lat="46.89879" lon="6.37511">
        <ele>885.6</ele>
        <time>2021-08-14T09:09:09Z</time>
      </trkpt>
      <trkpt lat="46.89877" lon="6.3751">
        <ele>885.8</ele>
        <time>2021-08-14T09:09:10Z</time>
      </trkpt>
      <trkpt lat="46.89877" lon="6.37507">
        <ele>888.3</ele>
        <time>2021-08-14T09:09:12Z</time>
      </trkpt>
      <trkpt lat="46.89878" lon="6.37506">
        <ele>888.4</ele>
        <time>2021-08-14T09:09:13Z</time>
      </trkpt>
      <trkpt lat="46.89881" lon="6.37498">
        <ele>889</ele>
        <time>2021-08-14T09:09:14Z</time>
      </trkpt>
      <trkpt lat="46.89883" lon="6.37494">
        <ele>889.2</ele>
        <time>2021-08-14T09:09:16Z</time>
      </trkpt>
      <trkpt lat="46.89883" lon="6.37493">
        <ele>889.2</ele>
        <time>2021-08-14T09:09:17Z</time>
      </trkpt>
      <trkpt lat="46.89876" lon="6.37488">
        <ele>889.6</ele>
        <time>2021-08-14T09:09:19Z</time>
      </trkpt>
      <trkpt lat="46.8987" lon="6.37485">
        <ele>890</ele>
        <time>2021-08-14T09:09:20Z</time>
      </trkpt>
      <trkpt lat="46.89863" lon="6.37481">
        <ele>890.3</ele>
        <time>2021-08-14T09:10:51Z</time>
      </trkpt>
      <trkpt lat="46.89857" lon="6.37477">
        <ele>890.7</ele>
        <time>2021-08-14T09:10:52Z</time>
      </trkpt>
      <trkpt lat="46.8985" lon="6.37473">
        <ele>891.1</ele>
        <time>2021-08-14T09:10:53Z</time>
      </trkpt>
      <trkpt lat="46.89847" lon="6.37474">
        <ele>891.3</ele>
        <time>2021-08-14T09:10:55Z</time>
      </trkpt>
      <trkpt lat="46.89847" lon="6.37475">
        <ele>891.3</ele>
        <time>2021-08-14T09:10:56Z</time>
      </trkpt>
      <trkpt lat="46.89845" lon="6.37475">
        <ele>891.5</ele>
        <time>2021-08-14T09:10:57Z</time>
      </trkpt>
      <trkpt lat="46.89843" lon="6.37475">
        <ele>891.6</ele>
        <time>2021-08-14T09:10:59Z</time>
      </trkpt>
      <trkpt lat="46.89842" lon="6.37475">
        <ele>891.7</ele>
        <time>2021-08-14T09:11:01Z</time>
      </trkpt>
      <trkpt lat="46.89841" lon="6.37475">
        <ele>891.8</ele>
        <time>2021-08-14T09:11:02Z</time>
      </trkpt>
      <trkpt lat="46.89839" lon="6.37474">
        <ele>891.9</ele>
        <time>2021-08-14T09:11:03Z</time>
      </trkpt>
      <trkpt lat="46.89838" lon="6.37472">
        <ele>892</ele>
        <time>2021-08-14T09:11:05Z</time>
      </trkpt>
      <trkpt lat="46.89836" lon="6.37472">
        <ele>892.1</ele>
        <time>2021-08-14T09:11:06Z</time>
      </trkpt>
      <trkpt lat="46.89834" lon="6.37471">
        <ele>892.3</ele>
        <time>2021-08-14T09:11:08Z</time>
      </trkpt>
      <trkpt lat="46.89833" lon="6.37471">
        <ele>892.4</ele>
        <time>2021-08-14T09:11:09Z</time>
      </trkpt>
      <trkpt lat="46.89831" lon="6.37471">
        <ele>892.5</ele>
        <time>2021-08-14T09:11:10Z</time>
      </trkpt>
      <trkpt lat="46.89829" lon="6.37471">
        <ele>892.7</ele>
        <time>2021-08-14T09:11:11Z</time>
      </trkpt>
      <trkpt lat="46.89828" lon="6.37471">
        <ele>892.8</ele>
        <time>2021-08-14T09:11:12Z</time>
      </trkpt>
      <trkpt lat="46.89825" lon="6.3747">
        <ele>893</ele>
        <time>2021-08-14T09:11:13Z</time>
      </trkpt>
      <trkpt lat="46.89824" lon="6.3747">
        <ele>893</ele>
        <time>2021-08-14T09:11:14Z</time>
      </trkpt>
      <trkpt lat="46.89822" lon="6.3747">
        <ele>893.2</ele>
        <time>2021-08-14T09:11:16Z</time>
      </trkpt>
      <trkpt lat="46.89821" lon="6.37471">
        <ele>893.3</ele>
        <time>2021-08-14T09:11:17Z</time>
      </trkpt>
      <trkpt lat="46.89819" lon="6.37471">
        <ele>893.4</ele>
        <time>2021-08-14T09:11:18Z</time>
      </trkpt>
      <trkpt lat="46.89818" lon="6.3747">
        <ele>893.5</ele>
        <time>2021-08-14T09:11:19Z</time>
      </trkpt>
      <trkpt lat="46.89817" lon="6.37469">
        <ele>893.6</ele>
        <time>2021-08-14T09:11:21Z</time>
      </trkpt>
      <trkpt lat="46.89815" lon="6.37468">
        <ele>893.7</ele>
        <time>2021-08-14T09:11:23Z</time>
      </trkpt>
      <trkpt lat="46.89813" lon="6.37468">
        <ele>893.8</ele>
        <time>2021-08-14T09:11:24Z</time>
      </trkpt>
      <trkpt lat="46.89812" lon="6.37467">
        <ele>893.9</ele>
        <time>2021-08-14T09:11:25Z</time>
      </trkpt>
      <trkpt lat="46.8981" lon="6.37466">
        <ele>894</ele>
        <time>2021-08-14T09:11:26Z</time>
      </trkpt>
      <trkpt lat="46.89809" lon="6.37466">
        <ele>894.1</ele>
        <time>2021-08-14T09:11:28Z</time>
      </trkpt>
      <trkpt lat="46.89806" lon="6.37464">
        <ele>894.2</ele>
        <time>2021-08-14T09:11:29Z</time>
      </trkpt>
      <trkpt lat="46.89805" lon="6.37462">
        <ele>894.3</ele>
        <time>2021-08-14T09:11:31Z</time>
      </trkpt>
      <trkpt lat="46.89802" lon="6.3746">
        <ele>894.5</ele>
        <time>2021-08-14T09:11:32Z</time>
      </trkpt>
      <trkpt lat="46.89801" lon="6.3746">
        <ele>894.5</ele>
        <time>2021-08-14T09:11:33Z</time>
      </trkpt>
      <trkpt lat="46.898" lon="6.37459">
        <ele>894.6</ele>
        <time>2021-08-14T09:11:35Z</time>
      </trkpt>
      <trkpt lat="46.89798" lon="6.37459">
        <ele>894.7</ele>
        <time>2021-08-14T09:11:36Z</time>
      </trkpt>
      <trkpt lat="46.89797" lon="6.37458">
        <ele>894.8</ele>
        <time>2021-08-14T09:11:37Z</time>
      </trkpt>
      <trkpt lat="46.89797" lon="6.37457">
        <ele>894.9</ele>
        <time>2021-08-14T09:11:38Z</time>
      </trkpt>
      <trkpt lat="46.89796" lon="6.37456">
        <ele>894.9</ele>
        <time>2021-08-14T09:11:39Z</time>
      </trkpt>
      <trkpt lat="46.89796" lon="6.37456">
        <ele>894.9</ele>
        <time>2021-08-14T09:11:41Z</time>
      </trkpt>
      <trkpt lat="46.89796" lon="6.37455">
        <ele>894.9</ele>
        <time>2021-08-14T09:11:42Z</time>
      </trkpt>
      <trkpt lat="46.89795" lon="6.37455">
        <ele>895</ele>
        <time>2021-08-14T09:11:43Z</time>
      </trkpt>
      <trkpt lat="46.89795" lon="6.37455">
        <ele>895</ele>
        <time>2021-08-14T09:11:45Z</time>
      </trkpt>
      <trkpt lat="46.89795" lon="6.37455">
        <ele>895</ele>
        <time>2021-08-14T09:11:46Z</time>
      </trkpt>
      <trkpt lat="46.89794" lon="6.37455">
        <ele>895</ele>
        <time>2021-08-14T09:11:47Z</time>
      </trkpt>
      <trkpt lat="46.89794" lon="6.37454">
        <ele>895.1</ele>
        <time>2021-08-14T09:11:48Z</time>
      </trkpt>
      <trkpt lat="46.89793" lon="6.37454">
        <ele>895.1</ele>
        <time>2021-08-14T09:11:49Z</time>
      </trkpt>
      <trkpt lat="46.89793" lon="6.37454">
        <ele>895.2</ele>
        <time>2021-08-14T09:11:51Z</time>
      </trkpt>
      <trkpt lat="46.89791" lon="6.37454">
        <ele>895.3</ele>
        <time>2021-08-14T09:11:52Z</time>
      </trkpt>
      <trkpt lat="46.8979" lon="6.37455">
        <ele>895.4</ele>
        <time>2021-08-14T09:11:54Z</time>
      </trkpt>
      <trkpt lat="46.89789" lon="6.37455">
        <ele>895.4</ele>
        <time>2021-08-14T09:11:55Z</time>
      </trkpt>
      <trkpt lat="46.89777" lon="6.37453">
        <ele>896.6</ele>
        <time>2021-08-14T09:12:06Z</time>
      </trkpt>
      <trkpt lat="46.89775" lon="6.37449">
        <ele>897</ele>
        <time>2021-08-14T09:12:07Z</time>
      </trkpt>
      <trkpt lat="46.89773" lon="6.37447">
        <ele>897.2</ele>
        <time>2021-08-14T09:12:09Z</time>
      </trkpt>
      <trkpt lat="46.89772" lon="6.37446">
        <ele>897.4</ele>
        <time>2021-08-14T09:12:10Z</time>
      </trkpt>
      <trkpt lat="46.89771" lon="6.37444">
        <ele>897.6</ele>
        <time>2021-08-14T09:12:11Z</time>
      </trkpt>
      <trkpt lat="46.89771" lon="6.37442">
        <ele>897.8</ele>
        <time>2021-08-14T09:12:12Z</time>
      </trkpt>
      <trkpt lat="46.8977" lon="6.3744">
        <ele>898</ele>
        <time>2021-08-14T09:12:14Z</time>
      </trkpt>
      <trkpt lat="46.8977" lon="6.37439">
        <ele>898</ele>
        <time>2021-08-14T09:12:15Z</time>
      </trkpt>
      <trkpt lat="46.8977" lon="6.37439">
        <ele>898</ele>
        <time>2021-08-14T09:12:16Z</time>
      </trkpt>
      <trkpt lat="46.8977" lon="6.37438">
        <ele>898.1</ele>
        <time>2021-08-14T09:12:17Z</time>
      </trkpt>
      <trkpt lat="46.8977" lon="6.37438">
        <ele>898.1</ele>
        <time>2021-08-14T09:12:19Z</time>
      </trkpt>
      <trkpt lat="46.8977" lon="6.37437">
        <ele>898.2</ele>
        <time>2021-08-14T09:12:20Z</time>
      </trkpt>
      <trkpt lat="46.8977" lon="6.37437">
        <ele>898.2</ele>
        <time>2021-08-14T09:12:21Z</time>
      </trkpt>
      <trkpt lat="46.8977" lon="6.37436">
        <ele>898.3</ele>
        <time>2021-08-14T09:12:23Z</time>
      </trkpt>
      <trkpt lat="46.89771" lon="6.37436">
        <ele>898.3</ele>
        <time>2021-08-14T09:12:24Z</time>
      </trkpt>
      <trkpt lat="46.8977" lon="6.37434">
        <ele>898.5</ele>
        <time>2021-08-14T09:12:26Z</time>
      </trkpt>
      <trkpt lat="46.89769" lon="6.37432">
        <ele>898.7</ele>
        <time>2021-08-14T09:12:27Z</time>
      </trkpt>
      <trkpt lat="46.89768" lon="6.3743">
        <ele>899</ele>
        <time>2021-08-14T09:12:29Z</time>
      </trkpt>
      <trkpt lat="46.89759" lon="6.37427">
        <ele>900.1</ele>
        <time>2021-08-14T09:12:41Z</time>
      </trkpt>
      <trkpt lat="46.89758" lon="6.37427">
        <ele>900.4</ele>
        <time>2021-08-14T09:12:42Z</time>
      </trkpt>
      <trkpt lat="46.89757" lon="6.37428">
        <ele>900.5</ele>
        <time>2021-08-14T09:12:43Z</time>
      </trkpt>
      <trkpt lat="46.89757" lon="6.37428">
        <ele>900.5</ele>
        <time>2021-08-14T09:12:45Z</time>
      </trkpt>
      <trkpt lat="46.89757" lon="6.37428">
        <ele>900.6</ele>
        <time>2021-08-14T09:12:46Z</time>
      </trkpt>
      <trkpt lat="46.89756" lon="6.37429">
        <ele>900.7</ele>
        <time>2021-08-14T09:12:48Z</time>
      </trkpt>
      <trkpt lat="46.89756" lon="6.37428">
        <ele>900.7</ele>
        <time>2021-08-14T09:12:49Z</time>
      </trkpt>
      <trkpt lat="46.89755" lon="6.37428">
        <ele>900.8</ele>
        <time>2021-08-14T09:12:50Z</time>
      </trkpt>
      <trkpt lat="46.89755" lon="6.37428">
        <ele>900.8</ele>
        <time>2021-08-14T09:12:52Z</time>
      </trkpt>
      <trkpt lat="46.89754" lon="6.37428">
        <ele>901</ele>
        <time>2021-08-14T09:12:54Z</time>
      </trkpt>
      <trkpt lat="46.89729" lon="6.37415">
        <ele>904.5</ele>
        <time>2021-08-14T09:13:24Z</time>
      </trkpt>
      <trkpt lat="46.89725" lon="6.37412">
        <ele>905</ele>
        <time>2021-08-14T09:13:26Z</time>
      </trkpt>
      <trkpt lat="46.89723" lon="6.37409">
        <ele>905.5</ele>
        <time>2021-08-14T09:13:27Z</time>
      </trkpt>
      <trkpt lat="46.8972" lon="6.37405">
        <ele>906</ele>
        <time>2021-08-14T09:13:29Z</time>
      </trkpt>
      <trkpt lat="46.89719" lon="6.37404">
        <ele>906.1</ele>
        <time>2021-08-14T09:13:30Z</time>
      </trkpt>
      <trkpt lat="46.89718" lon="6.37402">
        <ele>906.4</ele>
        <time>2021-08-14T09:13:32Z</time>
      </trkpt>
      <trkpt lat="46.89718" lon="6.37401">
        <ele>906.4</ele>
        <time>2021-08-14T09:13:33Z</time>
      </trkpt>
      <trkpt lat="46.89717" lon="6.37401">
        <ele>906.5</ele>
        <time>2021-08-14T09:13:34Z</time>
      </trkpt>
      <trkpt lat="46.89715" lon="6.37399">
        <ele>906.9</ele>
        <time>2021-08-14T09:13:36Z</time>
      </trkpt>
      <trkpt lat="46.89712" lon="6.37397">
        <ele>907.2</ele>
        <time>2021-08-14T09:13:37Z</time>
      </trkpt>
      <trkpt lat="46.8971" lon="6.37395">
        <ele>907.5</ele>
        <time>2021-08-14T09:13:39Z</time>
      </trkpt>
      <trkpt lat="46.89707" lon="6.37393">
        <ele>907.8</ele>
        <time>2021-08-14T09:13:40Z</time>
      </trkpt>
      <trkpt lat="46.89705" lon="6.37392">
        <ele>908</ele>
        <time>2021-08-14T09:13:41Z</time>
      </trkpt>
      <trkpt lat="46.89702" lon="6.3739">
        <ele>908.2</ele>
        <time>2021-08-14T09:13:42Z</time>
      </trkpt>
      <trkpt lat="46.897" lon="6.37388">
        <ele>908.4</ele>
        <time>2021-08-14T09:13:44Z</time>
      </trkpt>
      <trkpt lat="46.89697" lon="6.37386">
        <ele>908.6</ele>
        <time>2021-08-14T09:13:45Z</time>
      </trkpt>
      <trkpt lat="46.89695" lon="6.37385">
        <ele>908.8</ele>
        <time>2021-08-14T09:13:47Z</time>
      </trkpt>
      <trkpt lat="46.89692" lon="6.37383">
        <ele>909</ele>
        <time>2021-08-14T09:14:36Z</time>
      </trkpt>
      <trkpt lat="46.8969" lon="6.37381">
        <ele>909.1</ele>
        <time>2021-08-14T09:14:37Z</time>
      </trkpt>
      <trkpt lat="46.89687" lon="6.37379">
        <ele>909.2</ele>
        <time>2021-08-14T09:14:39Z</time>
      </trkpt>
      <trkpt lat="46.89685" lon="6.37378">
        <ele>909.4</ele>
        <time>2021-08-14T09:14:40Z</time>
      </trkpt>
      <trkpt lat="46.89683" lon="6.37376">
        <ele>909.5</ele>
        <time>2021-08-14T09:14:42Z</time>
      </trkpt>
      <trkpt lat="46.8968" lon="6.37374">
        <ele>909.6</ele>
        <time>2021-08-14T09:14:44Z</time>
      </trkpt>
      <trkpt lat="46.89678" lon="6.37372">
        <ele>909.8</ele>
        <time>2021-08-14T09:14:46Z</time>
      </trkpt>
      <trkpt lat="46.89675" lon="6.3737">
        <ele>909.9</ele>
        <time>2021-08-14T09:14:48Z</time>
      </trkpt>
      <trkpt lat="46.89673" lon="6.37369">
        <ele>910.1</ele>
        <time>2021-08-14T09:14:49Z</time>
      </trkpt>
      <trkpt lat="46.8967" lon="6.37367">
        <ele>910.2</ele>
        <time>2021-08-14T09:14:51Z</time>
      </trkpt>
      <trkpt lat="46.89668" lon="6.37365">
        <ele>910.4</ele>
        <time>2021-08-14T09:15:13Z</time>
      </trkpt>
      <trkpt lat="46.89665" lon="6.37363">
        <ele>910.5</ele>
        <time>2021-08-14T09:15:14Z</time>
      </trkpt>
      <trkpt lat="46.89663" lon="6.37362">
        <ele>910.7</ele>
        <time>2021-08-14T09:15:15Z</time>
      </trkpt>
      <trkpt lat="46.89661" lon="6.37361">
        <ele>910.8</ele>
        <time>2021-08-14T09:15:17Z</time>
      </trkpt>
      <trkpt lat="46.8966" lon="6.37361">
        <ele>910.9</ele>
        <time>2021-08-14T09:15:18Z</time>
      </trkpt>
      <trkpt lat="46.89659" lon="6.3736">
        <ele>911</ele>
        <time>2021-08-14T09:15:19Z</time>
      </trkpt>
      <trkpt lat="46.89657" lon="6.37359">
        <ele>911.1</ele>
        <time>2021-08-14T09:15:21Z</time>
      </trkpt>
      <trkpt lat="46.89656" lon="6.37358">
        <ele>911.2</ele>
        <time>2021-08-14T09:15:22Z</time>
      </trkpt>
      <trkpt lat="46.89655" lon="6.37357">
        <ele>911.3</ele>
        <time>2021-08-14T09:15:23Z</time>
      </trkpt>
      <trkpt lat="46.89654" lon="6.37358">
        <ele>911.4</ele>
        <time>2021-08-14T09:15:25Z</time>
      </trkpt>
      <trkpt lat="46.89653" lon="6.37358">
        <ele>911.4</ele>
        <time>2021-08-14T09:15:27Z</time>
      </trkpt>
      <trkpt lat="46.89653" lon="6.37358">
        <ele>911.4</ele>
        <time>2021-08-14T09:15:28Z</time>
      </trkpt>
      <trkpt lat="46.89652" lon="6.37359">
        <ele>911.5</ele>
        <time>2021-08-14T09:15:30Z</time>
      </trkpt>
      <trkpt lat="46.89651" lon="6.37359">
        <ele>911.6</ele>
        <time>2021-08-14T09:15:32Z</time>
      </trkpt>
      <trkpt lat="46.8965" lon="6.3736">
        <ele>911.6</ele>
        <time>2021-08-14T09:15:34Z</time>
      </trkpt>
      <trkpt lat="46.8965" lon="6.3736">
        <ele>911.7</ele>
        <time>2021-08-14T09:15:35Z</time>
      </trkpt>
      <trkpt lat="46.89649" lon="6.3736">
        <ele>911.7</ele>
        <time>2021-08-14T09:15:37Z</time>
      </trkpt>
      <trkpt lat="46.89649" lon="6.3736">
        <ele>911.8</ele>
        <time>2021-08-14T09:15:38Z</time>
      </trkpt>
      <trkpt lat="46.89648" lon="6.37359">
        <ele>911.8</ele>
        <time>2021-08-14T09:15:39Z</time>
      </trkpt>
      <trkpt lat="46.89647" lon="6.37359">
        <ele>911.9</ele>
        <time>2021-08-14T09:15:41Z</time>
      </trkpt>
      <trkpt lat="46.89647" lon="6.37358">
        <ele>911.9</ele>
        <time>2021-08-14T09:15:42Z</time>
      </trkpt>
      <trkpt lat="46.89633" lon="6.37326">
        <ele>909.9</ele>
        <time>2021-08-14T09:16:17Z</time>
      </trkpt>
      <trkpt lat="46.89627" lon="6.3732">
        <ele>909.5</ele>
        <time>2021-08-14T09:16:19Z</time>
      </trkpt>
      <trkpt lat="46.89601" lon="6.37293">
        <ele>908.2</ele>
        <time>2021-08-14T09:16:20Z</time>
      </trkpt>
      <trkpt lat="46.89592" lon="6.37283">
        <ele>907.7</ele>
        <time>2021-08-14T09:16:22Z</time>
      </trkpt>
      <trkpt lat="46.89578" lon="6.37268">
        <ele>906.7</ele>
        <time>2021-08-14T09:16:24Z</time>
      </trkpt>
      <trkpt lat="46.89568" lon="6.37252">
        <ele>905.8</ele>
        <time>2021-08-14T09:16:26Z</time>
      </trkpt>
      <trkpt lat="46.89563" lon="6.37244">
        <ele>905.3</ele>
        <time>2021-08-14T09:16:27Z</time>
      </trkpt>
      <trkpt lat="46.89558" lon="6.37236">
        <ele>904.8</ele>
        <time>2021-08-14T09:16:28Z</time>
      </trkpt>
      <trkpt lat="46.89545" lon="6.37223">
        <ele>903.8</ele>
        <time>2021-08-14T09:16:30Z</time>
      </trkpt>
      <trkpt lat="46.89533" lon="6.37211">
        <ele>903</ele>
        <time>2021-08-14T09:16:32Z</time>
      </trkpt>
      <trkpt lat="46.89522" lon="6.37202">
        <ele>902.3</ele>
        <time>2021-08-14T09:16:34Z</time>
      </trkpt>
      <trkpt lat="46.89516" lon="6.37198">
        <ele>901.9</ele>
        <time>2021-08-14T09:16:35Z</time>
      </trkpt>
      <trkpt lat="46.89509" lon="6.37193">
        <ele>901.5</ele>
        <time>2021-08-14T09:16:36Z</time>
      </trkpt>
      <trkpt lat="46.89495" lon="6.37187">
        <ele>900.5</ele>
        <time>2021-08-14T09:16:38Z</time>
      </trkpt>
      <trkpt lat="46.89487" lon="6.37185">
        <ele>900</ele>
        <time>2021-08-14T09:16:39Z</time>
      </trkpt>
      <trkpt lat="46.89471" lon="6.37183">
        <ele>899</ele>
        <time>2021-08-14T09:16:41Z</time>
      </trkpt>
      <trkpt lat="46.89454" lon="6.37184">
        <ele>897.9</ele>
        <time>2021-08-14T09:16:43Z</time>
      </trkpt>
      <trkpt lat="46.89435" lon="6.37183">
        <ele>896.7</ele>
        <time>2021-08-14T09:16:45Z</time>
      </trkpt>
      <trkpt lat="46.89412" lon="6.37181">
        <ele>895.3</ele>
        <time>2021-08-14T09:16:47Z</time>
      </trkpt>
      <trkpt lat="46.89391" lon="6.37179">
        <ele>893.9</ele>
        <time>2021-08-14T09:16:49Z</time>
      </trkpt>
      <trkpt lat="46.8937" lon="6.37175">
        <ele>892.5</ele>
        <time>2021-08-14T09:16:51Z</time>
      </trkpt>
      <trkpt lat="46.8936" lon="6.37173">
        <ele>891.8</ele>
        <time>2021-08-14T09:16:52Z</time>
      </trkpt>
      <trkpt lat="46.89343" lon="6.37167">
        <ele>890.7</ele>
        <time>2021-08-14T09:16:54Z</time>
      </trkpt>
      <trkpt lat="46.89328" lon="6.37155">
        <ele>889.6</ele>
        <time>2021-08-14T09:16:56Z</time>
      </trkpt>
      <trkpt lat="46.89311" lon="6.37139">
        <ele>888.2</ele>
        <time>2021-08-14T09:16:58Z</time>
      </trkpt>
      <trkpt lat="46.89302" lon="6.37131">
        <ele>887.5</ele>
        <time>2021-08-14T09:16:59Z</time>
      </trkpt>
      <trkpt lat="46.89294" lon="6.37123">
        <ele>886.8</ele>
        <time>2021-08-14T09:17:00Z</time>
      </trkpt>
      <trkpt lat="46.89286" lon="6.37114">
        <ele>886.1</ele>
        <time>2021-08-14T09:17:01Z</time>
      </trkpt>
      <trkpt lat="46.89269" lon="6.37098">
        <ele>884.7</ele>
        <time>2021-08-14T09:17:03Z</time>
      </trkpt>
      <trkpt lat="46.89251" lon="6.37077">
        <ele>883.3</ele>
        <time>2021-08-14T09:17:05Z</time>
      </trkpt>
      <trkpt lat="46.89242" lon="6.37066">
        <ele>882.6</ele>
        <time>2021-08-14T09:17:06Z</time>
      </trkpt>
      <trkpt lat="46.89224" lon="6.37047">
        <ele>881.2</ele>
        <time>2021-08-14T09:17:08Z</time>
      </trkpt>
      <trkpt lat="46.89205" lon="6.37029">
        <ele>879.9</ele>
        <time>2021-08-14T09:17:10Z</time>
      </trkpt>
      <trkpt lat="46.89196" lon="6.3702">
        <ele>879.3</ele>
        <time>2021-08-14T09:17:11Z</time>
      </trkpt>
      <trkpt lat="46.89187" lon="6.37011">
        <ele>878.6</ele>
        <time>2021-08-14T09:17:12Z</time>
      </trkpt>
      <trkpt lat="46.8917" lon="6.36994">
        <ele>877.4</ele>
        <time>2021-08-14T09:17:14Z</time>
      </trkpt>
      <trkpt lat="46.89154" lon="6.36975">
        <ele>876.3</ele>
        <time>2021-08-14T09:17:16Z</time>
      </trkpt>
      <trkpt lat="46.8914" lon="6.36957">
        <ele>875.3</ele>
        <time>2021-08-14T09:17:18Z</time>
      </trkpt>
      <trkpt lat="46.89122" lon="6.36942">
        <ele>874</ele>
        <time>2021-08-14T09:17:20Z</time>
      </trkpt>
      <trkpt lat="46.89108" lon="6.36928">
        <ele>875.2</ele>
        <time>2021-08-14T09:17:22Z</time>
      </trkpt>
      <trkpt lat="46.89103" lon="6.36923">
        <ele>875.6</ele>
        <time>2021-08-14T09:17:23Z</time>
      </trkpt>
      <trkpt lat="46.89098" lon="6.36918">
        <ele>875.8</ele>
        <time>2021-08-14T09:17:24Z</time>
      </trkpt>
      <trkpt lat="46.89094" lon="6.36915">
        <ele>876.1</ele>
        <time>2021-08-14T09:17:26Z</time>
      </trkpt>
      <trkpt lat="46.89098" lon="6.36915">
        <ele>876.4</ele>
        <time>2021-08-14T09:17:28Z</time>
      </trkpt>
      <trkpt lat="46.89099" lon="6.36915">
        <ele>876.4</ele>
        <time>2021-08-14T09:17:29Z</time>
      </trkpt>
      <trkpt lat="46.89098" lon="6.36915">
        <ele>876.4</ele>
        <time>2021-08-14T09:17:31Z</time>
      </trkpt>
      <trkpt lat="46.89097" lon="6.36916">
        <ele>876.5</ele>
        <time>2021-08-14T09:17:32Z</time>
      </trkpt>
      <trkpt lat="46.89096" lon="6.36917">
        <ele>876.5</ele>
        <time>2021-08-14T09:17:34Z</time>
      </trkpt>
      <trkpt lat="46.89095" lon="6.36917">
        <ele>876.6</ele>
        <time>2021-08-14T09:17:35Z</time>
      </trkpt>
      <trkpt lat="46.89095" lon="6.36918">
        <ele>876.6</ele>
        <time>2021-08-14T09:17:36Z</time>
      </trkpt>
      <trkpt lat="46.8909" lon="6.3692">
        <ele>876.9</ele>
        <time>2021-08-14T09:17:38Z</time>
      </trkpt>
      <trkpt lat="46.89085" lon="6.36917">
        <ele>877.2</ele>
        <time>2021-08-14T09:17:40Z</time>
      </trkpt>
      <trkpt lat="46.89079" lon="6.36913">
        <ele>877.5</ele>
        <time>2021-08-14T09:17:42Z</time>
      </trkpt>
      <trkpt lat="46.89077" lon="6.36912">
        <ele>877.6</ele>
        <time>2021-08-14T09:17:43Z</time>
      </trkpt>
      <trkpt lat="46.89077" lon="6.36912">
        <ele>877.6</ele>
        <time>2021-08-14T09:17:44Z</time>
      </trkpt>
      <trkpt lat="46.89077" lon="6.36911">
        <ele>877.6</ele>
        <time>2021-08-14T09:17:45Z</time>
      </trkpt>
      <trkpt lat="46.89077" lon="6.36908">
        <ele>877.7</ele>
        <time>2021-08-14T09:17:47Z</time>
      </trkpt>
      <trkpt lat="46.89076" lon="6.36905">
        <ele>877.8</ele>
        <time>2021-08-14T09:17:48Z</time>
      </trkpt>
      <trkpt lat="46.89075" lon="6.36904">
        <ele>877.9</ele>
        <time>2021-08-14T09:17:49Z</time>
      </trkpt>
      <trkpt lat="46.89074" lon="6.36903">
        <ele>877.9</ele>
        <time>2021-08-14T09:17:50Z</time>
      </trkpt>
      <trkpt lat="46.8907" lon="6.36897">
        <ele>878.2</ele>
        <time>2021-08-14T09:17:52Z</time>
      </trkpt>
      <trkpt lat="46.89068" lon="6.36895">
        <ele>878.3</ele>
        <time>2021-08-14T09:17:53Z</time>
      </trkpt>
      <trkpt lat="46.89067" lon="6.36894">
        <ele>878.4</ele>
        <time>2021-08-14T09:17:54Z</time>
      </trkpt>
      <trkpt lat="46.89064" lon="6.36889">
        <ele>878.6</ele>
        <time>2021-08-14T09:17:56Z</time>
      </trkpt>
      <trkpt lat="46.89063" lon="6.36887">
        <ele>878.7</ele>
        <time>2021-08-14T09:17:58Z</time>
      </trkpt>
      <trkpt lat="46.89063" lon="6.36886">
        <ele>878.7</ele>
        <time>2021-08-14T09:17:59Z</time>
      </trkpt>
      <trkpt lat="46.89062" lon="6.36885">
        <ele>878.8</ele>
        <time>2021-08-14T09:18:00Z</time>
      </trkpt>
      <trkpt lat="46.89063" lon="6.36885">
        <ele>878.8</ele>
        <time>2021-08-14T09:18:01Z</time>
      </trkpt>
      <trkpt lat="46.89062" lon="6.36884">
        <ele>878.8</ele>
        <time>2021-08-14T09:18:03Z</time>
      </trkpt>
      <trkpt lat="46.89062" lon="6.36884">
        <ele>878.9</ele>
        <time>2021-08-14T09:18:04Z</time>
      </trkpt>
      <trkpt lat="46.89061" lon="6.36883">
        <ele>878.9</ele>
        <time>2021-08-14T09:18:05Z</time>
      </trkpt>
      <trkpt lat="46.89061" lon="6.36882">
        <ele>878.9</ele>
        <time>2021-08-14T09:18:06Z</time>
      </trkpt>
      <trkpt lat="46.8906" lon="6.36882">
        <ele>879</ele>
        <time>2021-08-14T09:18:07Z</time>
      </trkpt>
      <trkpt lat="46.89059" lon="6.36881">
        <ele>879</ele>
        <time>2021-08-14T09:18:08Z</time>
      </trkpt>
      <trkpt lat="46.89058" lon="6.3688">
        <ele>879.1</ele>
        <time>2021-08-14T09:18:10Z</time>
      </trkpt>
      <trkpt lat="46.89043" lon="6.3688">
        <ele>879.9</ele>
        <time>2021-08-14T09:18:20Z</time>
      </trkpt>
      <trkpt lat="46.89039" lon="6.36879">
        <ele>880.1</ele>
        <time>2021-08-14T09:18:21Z</time>
      </trkpt>
      <trkpt lat="46.89035" lon="6.3688">
        <ele>880.3</ele>
        <time>2021-08-14T09:18:22Z</time>
      </trkpt>
      <trkpt lat="46.89031" lon="6.36883">
        <ele>880.6</ele>
        <time>2021-08-14T09:18:23Z</time>
      </trkpt>
      <trkpt lat="46.89029" lon="6.36886">
        <ele>880.8</ele>
        <time>2021-08-14T09:18:25Z</time>
      </trkpt>
      <trkpt lat="46.89029" lon="6.36888">
        <ele>880.9</ele>
        <time>2021-08-14T09:18:26Z</time>
      </trkpt>
      <trkpt lat="46.89028" lon="6.36888">
        <ele>880.9</ele>
        <time>2021-08-14T09:18:28Z</time>
      </trkpt>
      <trkpt lat="46.89027" lon="6.36888">
        <ele>880.9</ele>
        <time>2021-08-14T09:18:29Z</time>
      </trkpt>
      <trkpt lat="46.89027" lon="6.36888">
        <ele>881</ele>
        <time>2021-08-14T09:18:30Z</time>
      </trkpt>
      <trkpt lat="46.89026" lon="6.36888">
        <ele>881</ele>
        <time>2021-08-14T09:18:32Z</time>
      </trkpt>
      <trkpt lat="46.89037" lon="6.36899">
        <ele>881.8</ele>
        <time>2021-08-14T09:19:24Z</time>
      </trkpt>
      <trkpt lat="46.89044" lon="6.36907">
        <ele>882.5</ele>
        <time>2021-08-14T09:19:26Z</time>
      </trkpt>
      <trkpt lat="46.8905" lon="6.36916">
        <ele>883</ele>
        <time>2021-08-14T09:19:27Z</time>
      </trkpt>
      <trkpt lat="46.89052" lon="6.36922">
        <ele>883.4</ele>
        <time>2021-08-14T09:19:28Z</time>
      </trkpt>
      <trkpt lat="46.89053" lon="6.36928">
        <ele>883.8</ele>
        <time>2021-08-14T09:19:29Z</time>
      </trkpt>
      <trkpt lat="46.89057" lon="6.36933">
        <ele>884.4</ele>
        <time>2021-08-14T09:19:31Z</time>
      </trkpt>
      <trkpt lat="46.89059" lon="6.36934">
        <ele>884.7</ele>
        <time>2021-08-14T09:19:32Z</time>
      </trkpt>
      <trkpt lat="46.89061" lon="6.36936">
        <ele>884.9</ele>
        <time>2021-08-14T09:19:33Z</time>
      </trkpt>
      <trkpt lat="46.89061" lon="6.36937">
        <ele>885.1</ele>
        <time>2021-08-14T09:19:34Z</time>
      </trkpt>
      <trkpt lat="46.89061" lon="6.36938">
        <ele>885.1</ele>
        <time>2021-08-14T09:19:35Z</time>
      </trkpt>
      <trkpt lat="46.89059" lon="6.3694">
        <ele>885.4</ele>
        <time>2021-08-14T09:19:37Z</time>
      </trkpt>
      <trkpt lat="46.89057" lon="6.36942">
        <ele>885.6</ele>
        <time>2021-08-14T09:19:38Z</time>
      </trkpt>
      <trkpt lat="46.89056" lon="6.36943">
        <ele>885.8</ele>
        <time>2021-08-14T09:19:39Z</time>
      </trkpt>
      <trkpt lat="46.89055" lon="6.36944">
        <ele>885.9</ele>
        <time>2021-08-14T09:19:40Z</time>
      </trkpt>
      <trkpt lat="46.89055" lon="6.36944">
        <ele>886</ele>
        <time>2021-08-14T09:19:41Z</time>
      </trkpt>
      <trkpt lat="46.89053" lon="6.36945">
        <ele>886.2</ele>
        <time>2021-08-14T09:19:43Z</time>
      </trkpt>
      <trkpt lat="46.89052" lon="6.36947">
        <ele>886.3</ele>
        <time>2021-08-14T09:19:45Z</time>
      </trkpt>
      <trkpt lat="46.8905" lon="6.3695">
        <ele>886.6</ele>
        <time>2021-08-14T09:19:47Z</time>
      </trkpt>
      <trkpt lat="46.8905" lon="6.36951">
        <ele>886.8</ele>
        <time>2021-08-14T09:19:48Z</time>
      </trkpt>
      <trkpt lat="46.8905" lon="6.36952">
        <ele>886.8</ele>
        <time>2021-08-14T09:19:50Z</time>
      </trkpt>
      <trkpt lat="46.8905" lon="6.36953">
        <ele>886.9</ele>
        <time>2021-08-14T09:19:51Z</time>
      </trkpt>
      <trkpt lat="46.8905" lon="6.36954">
        <ele>887</ele>
        <time>2021-08-14T09:19:52Z</time>
      </trkpt>
      <trkpt lat="46.89049" lon="6.36954">
        <ele>887</ele>
        <time>2021-08-14T09:19:53Z</time>
      </trkpt>
      <trkpt lat="46.89049" lon="6.36955">
        <ele>887.1</ele>
        <time>2021-08-14T09:19:54Z</time>
      </trkpt>
      <trkpt lat="46.89049" lon="6.36957">
        <ele>887.2</ele>
        <time>2021-08-14T09:19:55Z</time>
      </trkpt>
      <trkpt lat="46.89049" lon="6.3696">
        <ele>887.5</ele>
        <time>2021-08-14T09:19:58Z</time>
      </trkpt>
      <trkpt lat="46.88986" lon="6.37022">
        <ele>906.4</ele>
        <time>2021-08-14T09:23:02Z</time>
      </trkpt>
      <trkpt lat="46.88983" lon="6.3702">
        <ele>907</ele>
        <time>2021-08-14T09:23:03Z</time>
      </trkpt>
      <trkpt lat="46.88977" lon="6.37023">
        <ele>908.3</ele>
        <time>2021-08-14T09:23:05Z</time>
      </trkpt>
      <trkpt lat="46.88971" lon="6.37027">
        <ele>909.3</ele>
        <time>2021-08-14T09:23:07Z</time>
      </trkpt>
      <trkpt lat="46.88967" lon="6.37029">
        <ele>910.6</ele>
        <time>2021-08-14T09:23:08Z</time>
      </trkpt>
      <trkpt lat="46.88961" lon="6.3703">
        <ele>911.3</ele>
        <time>2021-08-14T09:23:09Z</time>
      </trkpt>
      <trkpt lat="46.88959" lon="6.37031">
        <ele>911.6</ele>
        <time>2021-08-14T09:23:10Z</time>
      </trkpt>
      <trkpt lat="46.88955" lon="6.37031">
        <ele>912.1</ele>
        <time>2021-08-14T09:23:12Z</time>
      </trkpt>
      <trkpt lat="46.88953" lon="6.37032">
        <ele>912.4</ele>
        <time>2021-08-14T09:23:14Z</time>
      </trkpt>
      <trkpt lat="46.88952" lon="6.37032">
        <ele>912.5</ele>
        <time>2021-08-14T09:23:15Z</time>
      </trkpt>
      <trkpt lat="46.88949" lon="6.37034">
        <ele>913</ele>
        <time>2021-08-14T09:23:16Z</time>
      </trkpt>
      <trkpt lat="46.88947" lon="6.37034">
        <ele>913.1</ele>
        <time>2021-08-14T09:23:17Z</time>
      </trkpt>
      <trkpt lat="46.88946" lon="6.37035">
        <ele>913.4</ele>
        <time>2021-08-14T09:23:19Z</time>
      </trkpt>
      <trkpt lat="46.88945" lon="6.37036">
        <ele>913.5</ele>
        <time>2021-08-14T09:23:20Z</time>
      </trkpt>
      <trkpt lat="46.88943" lon="6.37037">
        <ele>913.8</ele>
        <time>2021-08-14T09:23:21Z</time>
      </trkpt>
      <trkpt lat="46.88941" lon="6.37037">
        <ele>914</ele>
        <time>2021-08-14T09:23:22Z</time>
      </trkpt>
      <trkpt lat="46.8894" lon="6.37038">
        <ele>914.1</ele>
        <time>2021-08-14T09:23:24Z</time>
      </trkpt>
      <trkpt lat="46.88939" lon="6.37038">
        <ele>914.2</ele>
        <time>2021-08-14T09:23:25Z</time>
      </trkpt>
      <trkpt lat="46.88939" lon="6.37038">
        <ele>914.3</ele>
        <time>2021-08-14T09:23:26Z</time>
      </trkpt>
      <trkpt lat="46.88938" lon="6.37038">
        <ele>914.5</ele>
        <time>2021-08-14T09:23:27Z</time>
      </trkpt>
      <trkpt lat="46.88865" lon="6.36989">
        <ele>928.3</ele>
        <time>2021-08-14T09:25:13Z</time>
      </trkpt>
      <trkpt lat="46.8886" lon="6.36987">
        <ele>929.2</ele>
        <time>2021-08-14T09:25:14Z</time>
      </trkpt>
      <trkpt lat="46.88857" lon="6.36986">
        <ele>929.7</ele>
        <time>2021-08-14T09:25:16Z</time>
      </trkpt>
      <trkpt lat="46.88855" lon="6.36985">
        <ele>930.1</ele>
        <time>2021-08-14T09:25:17Z</time>
      </trkpt>
      <trkpt lat="46.88853" lon="6.36985">
        <ele>930.4</ele>
        <time>2021-08-14T09:25:19Z</time>
      </trkpt>
      <trkpt lat="46.88853" lon="6.36985">
        <ele>930.5</ele>
        <time>2021-08-14T09:25:20Z</time>
      </trkpt>
      <trkpt lat="46.88852" lon="6.36985">
        <ele>930.6</ele>
        <time>2021-08-14T09:25:21Z</time>
      </trkpt>
      <trkpt lat="46.88851" lon="6.36985">
        <ele>930.8</ele>
        <time>2021-08-14T09:25:22Z</time>
      </trkpt>
      <trkpt lat="46.88848" lon="6.36984">
        <ele>931.2</ele>
        <time>2021-08-14T09:25:24Z</time>
      </trkpt>
      <trkpt lat="46.88844" lon="6.36983">
        <ele>931.7</ele>
        <time>2021-08-14T09:25:25Z</time>
      </trkpt>
      <trkpt lat="46.88839" lon="6.36985">
        <ele>932.4</ele>
        <time>2021-08-14T09:25:27Z</time>
      </trkpt>
      <trkpt lat="46.88838" lon="6.36985">
        <ele>932.5</ele>
        <time>2021-08-14T09:25:28Z</time>
      </trkpt>
      <trkpt lat="46.88838" lon="6.36985">
        <ele>932.6</ele>
        <time>2021-08-14T09:25:30Z</time>
      </trkpt>
      <trkpt lat="46.88837" lon="6.36985">
        <ele>932.6</ele>
        <time>2021-08-14T09:25:31Z</time>
      </trkpt>
      <trkpt lat="46.88837" lon="6.36985">
        <ele>932.7</ele>
        <time>2021-08-14T09:25:33Z</time>
      </trkpt>
      <trkpt lat="46.88837" lon="6.36985">
        <ele>932.7</ele>
        <time>2021-08-14T09:25:34Z</time>
      </trkpt>
      <trkpt lat="46.88836" lon="6.36985">
        <ele>932.7</ele>
        <time>2021-08-14T09:25:36Z</time>
      </trkpt>
      <trkpt lat="46.88836" lon="6.36985">
        <ele>932.8</ele>
        <time>2021-08-14T09:25:38Z</time>
      </trkpt>
      <trkpt lat="46.88752" lon="6.3698">
        <ele>947.1</ele>
        <time>2021-08-14T09:27:35Z</time>
      </trkpt>
      <trkpt lat="46.88751" lon="6.3698">
        <ele>947.3</ele>
        <time>2021-08-14T09:27:36Z</time>
      </trkpt>
      <trkpt lat="46.8875" lon="6.3698">
        <ele>947.4</ele>
        <time>2021-08-14T09:27:37Z</time>
      </trkpt>
      <trkpt lat="46.88749" lon="6.3698">
        <ele>947.5</ele>
        <time>2021-08-14T09:27:38Z</time>
      </trkpt>
      <trkpt lat="46.88749" lon="6.3698">
        <ele>947.6</ele>
        <time>2021-08-14T09:27:39Z</time>
      </trkpt>
      <trkpt lat="46.88748" lon="6.3698">
        <ele>947.7</ele>
        <time>2021-08-14T09:27:41Z</time>
      </trkpt>
      <trkpt lat="46.88748" lon="6.3698">
        <ele>947.7</ele>
        <time>2021-08-14T09:27:42Z</time>
      </trkpt>
      <trkpt lat="46.88748" lon="6.3698">
        <ele>947.7</ele>
        <time>2021-08-14T09:27:43Z</time>
      </trkpt>
      <trkpt lat="46.88748" lon="6.3698">
        <ele>947.8</ele>
        <time>2021-08-14T09:27:44Z</time>
      </trkpt>
      <trkpt lat="46.88748" lon="6.3698">
        <ele>947.8</ele>
        <time>2021-08-14T09:27:45Z</time>
      </trkpt>
      <trkpt lat="46.88748" lon="6.3698">
        <ele>947.8</ele>
        <time>2021-08-14T09:27:47Z</time>
      </trkpt>
      <trkpt lat="46.88727" lon="6.36989">
        <ele>951.5</ele>
        <time>2021-08-14T09:28:08Z</time>
      </trkpt>
      <trkpt lat="46.88726" lon="6.36989">
        <ele>951.6</ele>
        <time>2021-08-14T09:28:09Z</time>
      </trkpt>
      <trkpt lat="46.88726" lon="6.3699">
        <ele>951.7</ele>
        <time>2021-08-14T09:28:10Z</time>
      </trkpt>
      <trkpt lat="46.88725" lon="6.36989">
        <ele>951.8</ele>
        <time>2021-08-14T09:28:12Z</time>
      </trkpt>
      <trkpt lat="46.88725" lon="6.36988">
        <ele>951.9</ele>
        <time>2021-08-14T09:28:13Z</time>
      </trkpt>
      <trkpt lat="46.88724" lon="6.36988">
        <ele>952</ele>
        <time>2021-08-14T09:28:15Z</time>
      </trkpt>
      <trkpt lat="46.88724" lon="6.36987">
        <ele>952.2</ele>
        <time>2021-08-14T09:28:16Z</time>
      </trkpt>
      <trkpt lat="46.88723" lon="6.36987">
        <ele>952.2</ele>
        <time>2021-08-14T09:28:18Z</time>
      </trkpt>
      <trkpt lat="46.88723" lon="6.36987">
        <ele>952.3</ele>
        <time>2021-08-14T09:28:19Z</time>
      </trkpt>
      <trkpt lat="46.88723" lon="6.36986">
        <ele>952.3</ele>
        <time>2021-08-14T09:28:20Z</time>
      </trkpt>
      <trkpt lat="46.88723" lon="6.36986">
        <ele>952.4</ele>
        <time>2021-08-14T09:28:21Z</time>
      </trkpt>
      <trkpt lat="46.88723" lon="6.36986">
        <ele>952.4</ele>
        <time>2021-08-14T09:28:23Z</time>
      </trkpt>
      <trkpt lat="46.88723" lon="6.36986">
        <ele>952.4</ele>
        <time>2021-08-14T09:28:24Z</time>
      </trkpt>
      <trkpt lat="46.88723" lon="6.36986">
        <ele>952.4</ele>
        <time>2021-08-14T09:28:25Z</time>
      </trkpt>
      <trkpt lat="46.88723" lon="6.36986">
        <ele>952.4</ele>
        <time>2021-08-14T09:28:27Z</time>
      </trkpt>
      <trkpt lat="46.88722" lon="6.36987">
        <ele>952.6</ele>
        <time>2021-08-14T09:28:28Z</time>
      </trkpt>
      <trkpt lat="46.88721" lon="6.36988">
        <ele>952.8</ele>
        <time>2021-08-14T09:28:30Z</time>
      </trkpt>
      <trkpt lat="46.88719" lon="6.36989">
        <ele>953.2</ele>
        <time>2021-08-14T09:28:31Z</time>
      </trkpt>
      <trkpt lat="46.88718" lon="6.3699">
        <ele>953.5</ele>
        <time>2021-08-14T09:28:33Z</time>
      </trkpt>
      <trkpt lat="46.88716" lon="6.36991">
        <ele>953.8</ele>
        <time>2021-08-14T09:28:34Z</time>
      </trkpt>
      <trkpt lat="46.88716" lon="6.36992">
        <ele>953.9</ele>
        <time>2021-08-14T09:28:36Z</time>
      </trkpt>
      <trkpt lat="46.88715" lon="6.36993">
        <ele>954.1</ele>
        <time>2021-08-14T09:28:37Z</time>
      </trkpt>
      <trkpt lat="46.88715" lon="6.36993">
        <ele>954.2</ele>
        <time>2021-08-14T09:28:38Z</time>
      </trkpt>
      <trkpt lat="46.88714" lon="6.36993">
        <ele>954.2</ele>
        <time>2021-08-14T09:28:40Z</time>
      </trkpt>
      <trkpt lat="46.88714" lon="6.36993">
        <ele>954.3</ele>
        <time>2021-08-14T09:28:41Z</time>
      </trkpt>
      <trkpt lat="46.88714" lon="6.36993">
        <ele>954.3</ele>
        <time>2021-08-14T09:28:42Z</time>
      </trkpt>
      <trkpt lat="46.88714" lon="6.36993">
        <ele>954.4</ele>
        <time>2021-08-14T09:28:44Z</time>
      </trkpt>
      <trkpt lat="46.88714" lon="6.36993">
        <ele>954.4</ele>
        <time>2021-08-14T09:28:45Z</time>
      </trkpt>
      <trkpt lat="46.88713" lon="6.36993">
        <ele>954.4</ele>
        <time>2021-08-14T09:28:46Z</time>
      </trkpt>
      <trkpt lat="46.88713" lon="6.36993">
        <ele>954.4</ele>
        <time>2021-08-14T09:28:48Z</time>
      </trkpt>
      <trkpt lat="46.88713" lon="6.36993">
        <ele>954.4</ele>
        <time>2021-08-14T09:28:49Z</time>
      </trkpt>
      <trkpt lat="46.88713" lon="6.36993">
        <ele>954.4</ele>
        <time>2021-08-14T09:28:51Z</time>
      </trkpt>
      <trkpt lat="46.88713" lon="6.36993">
        <ele>954.4</ele>
        <time>2021-08-14T09:28:53Z</time>
      </trkpt>
      <trkpt lat="46.88713" lon="6.36993">
        <ele>954.5</ele>
        <time>2021-08-14T09:28:54Z</time>
      </trkpt>
      <trkpt lat="46.88713" lon="6.36993">
        <ele>954.5</ele>
        <time>2021-08-14T09:28:55Z</time>
      </trkpt>
      <trkpt lat="46.88713" lon="6.36994">
        <ele>954.6</ele>
        <time>2021-08-14T09:28:56Z</time>
      </trkpt>
      <trkpt lat="46.88712" lon="6.36995">
        <ele>954.8</ele>
        <time>2021-08-14T09:28:58Z</time>
      </trkpt>
      <trkpt lat="46.8871" lon="6.36996">
        <ele>955.1</ele>
        <time>2021-08-14T09:28:59Z</time>
      </trkpt>
      <trkpt lat="46.88709" lon="6.36996">
        <ele>955.4</ele>
        <time>2021-08-14T09:29:01Z</time>
      </trkpt>
      <trkpt lat="46.88708" lon="6.36997">
        <ele>955.5</ele>
        <time>2021-08-14T09:29:02Z</time>
      </trkpt>
      <trkpt lat="46.88707" lon="6.36997">
        <ele>955.6</ele>
        <time>2021-08-14T09:29:03Z</time>
      </trkpt>
      <trkpt lat="46.88707" lon="6.36998">
        <ele>955.8</ele>
        <time>2021-08-14T09:29:05Z</time>
      </trkpt>
      <trkpt lat="46.88706" lon="6.36998">
        <ele>955.9</ele>
        <time>2021-08-14T09:29:06Z</time>
      </trkpt>
      <trkpt lat="46.88706" lon="6.36999">
        <ele>955.9</ele>
        <time>2021-08-14T09:29:08Z</time>
      </trkpt>
      <trkpt lat="46.88706" lon="6.36999">
        <ele>956</ele>
        <time>2021-08-14T09:29:09Z</time>
      </trkpt>
      <trkpt lat="46.88706" lon="6.36999">
        <ele>956</ele>
        <time>2021-08-14T09:29:11Z</time>
      </trkpt>
      <trkpt lat="46.88706" lon="6.36999">
        <ele>956</ele>
        <time>2021-08-14T09:29:12Z</time>
      </trkpt>
      <trkpt lat="46.88706" lon="6.36999">
        <ele>956</ele>
        <time>2021-08-14T09:29:13Z</time>
      </trkpt>
      <trkpt lat="46.88706" lon="6.37">
        <ele>956.2</ele>
        <time>2021-08-14T09:29:15Z</time>
      </trkpt>
      <trkpt lat="46.88706" lon="6.37004">
        <ele>956.6</ele>
        <time>2021-08-14T09:29:17Z</time>
      </trkpt>
      <trkpt lat="46.88705" lon="6.37008">
        <ele>957.1</ele>
        <time>2021-08-14T09:29:18Z</time>
      </trkpt>
      <trkpt lat="46.88705" lon="6.37011">
        <ele>957.4</ele>
        <time>2021-08-14T09:29:20Z</time>
      </trkpt>
      <trkpt lat="46.88705" lon="6.37012">
        <ele>957.7</ele>
        <time>2021-08-14T09:29:21Z</time>
      </trkpt>
      <trkpt lat="46.88705" lon="6.37013">
        <ele>957.8</ele>
        <time>2021-08-14T09:29:22Z</time>
      </trkpt>
      <trkpt lat="46.88705" lon="6.37014">
        <ele>957.9</ele>
        <time>2021-08-14T09:29:23Z</time>
      </trkpt>
      <trkpt lat="46.88704" lon="6.37014">
        <ele>958</ele>
        <time>2021-08-14T09:29:25Z</time>
      </trkpt>
      <trkpt lat="46.88704" lon="6.37015">
        <ele>958</ele>
        <time>2021-08-14T09:29:26Z</time>
      </trkpt>
      <trkpt lat="46.88704" lon="6.37015">
        <ele>958.1</ele>
        <time>2021-08-14T09:29:27Z</time>
      </trkpt>
      <trkpt lat="46.88704" lon="6.37016">
        <ele>958.1</ele>
        <time>2021-08-14T09:29:29Z</time>
      </trkpt>
      <trkpt lat="46.88704" lon="6.37016">
        <ele>958.1</ele>
        <time>2021-08-14T09:29:30Z</time>
      </trkpt>
      <trkpt lat="46.88704" lon="6.37016">
        <ele>958.2</ele>
        <time>2021-08-14T09:29:31Z</time>
      </trkpt>
      <trkpt lat="46.88703" lon="6.37017">
        <ele>958.4</ele>
        <time>2021-08-14T09:29:33Z</time>
      </trkpt>
      <trkpt lat="46.88702" lon="6.3702">
        <ele>958.8</ele>
        <time>2021-08-14T09:29:34Z</time>
      </trkpt>
      <trkpt lat="46.88701" lon="6.37023">
        <ele>959.2</ele>
        <time>2021-08-14T09:29:35Z</time>
      </trkpt>
      <trkpt lat="46.887" lon="6.37025">
        <ele>959.5</ele>
        <time>2021-08-14T09:29:37Z</time>
      </trkpt>
      <trkpt lat="46.887" lon="6.3703">
        <ele>960</ele>
        <time>2021-08-14T09:29:38Z</time>
      </trkpt>
      <trkpt lat="46.887" lon="6.37032">
        <ele>960.3</ele>
        <time>2021-08-14T09:29:40Z</time>
      </trkpt>
      <trkpt lat="46.88699" lon="6.37034">
        <ele>960.6</ele>
        <time>2021-08-14T09:29:41Z</time>
      </trkpt>
      <trkpt lat="46.88699" lon="6.37036">
        <ele>960.8</ele>
        <time>2021-08-14T09:29:42Z</time>
      </trkpt>
      <trkpt lat="46.88699" lon="6.37038">
        <ele>961</ele>
        <time>2021-08-14T09:29:44Z</time>
      </trkpt>
      <trkpt lat="46.88698" lon="6.37039">
        <ele>961.1</ele>
        <time>2021-08-14T09:29:45Z</time>
      </trkpt>
      <trkpt lat="46.88698" lon="6.3704">
        <ele>961.2</ele>
        <time>2021-08-14T09:29:46Z</time>
      </trkpt>
      <trkpt lat="46.88698" lon="6.3704">
        <ele>961.3</ele>
        <time>2021-08-14T09:29:48Z</time>
      </trkpt>
      <trkpt lat="46.88698" lon="6.37041">
        <ele>961.4</ele>
        <time>2021-08-14T09:29:49Z</time>
      </trkpt>
      <trkpt lat="46.88698" lon="6.37041">
        <ele>961.4</ele>
        <time>2021-08-14T09:29:51Z</time>
      </trkpt>
      <trkpt lat="46.88698" lon="6.37041">
        <ele>961.5</ele>
        <time>2021-08-14T09:29:52Z</time>
      </trkpt>
      <trkpt lat="46.88697" lon="6.37042">
        <ele>961.5</ele>
        <time>2021-08-14T09:29:54Z</time>
      </trkpt>
      <trkpt lat="46.88697" lon="6.37042">
        <ele>961.5</ele>
        <time>2021-08-14T09:29:55Z</time>
      </trkpt>
      <trkpt lat="46.88697" lon="6.37042">
        <ele>961.5</ele>
        <time>2021-08-14T09:29:56Z</time>
      </trkpt>
      <trkpt lat="46.88697" lon="6.37042">
        <ele>961.5</ele>
        <time>2021-08-14T09:29:58Z</time>
      </trkpt>
      <trkpt lat="46.88697" lon="6.37042">
        <ele>961.5</ele>
        <time>2021-08-14T09:29:59Z</time>
      </trkpt>
      <trkpt lat="46.88697" lon="6.37042">
        <ele>961.5</ele>
        <time>2021-08-14T09:30:01Z</time>
      </trkpt>
      <trkpt lat="46.88697" lon="6.37041">
        <ele>961.6</ele>
        <time>2021-08-14T09:30:02Z</time>
      </trkpt>
      <trkpt lat="46.88695" lon="6.3704">
        <ele>961.9</ele>
        <time>2021-08-14T09:30:03Z</time>
      </trkpt>
      <trkpt lat="46.88694" lon="6.37038">
        <ele>962.2</ele>
        <time>2021-08-14T09:30:05Z</time>
      </trkpt>
      <trkpt lat="46.88693" lon="6.37037">
        <ele>962.3</ele>
        <time>2021-08-14T09:30:06Z</time>
      </trkpt>
      <trkpt lat="46.88691" lon="6.37035">
        <ele>962.7</ele>
        <time>2021-08-14T09:30:08Z</time>
      </trkpt>
      <trkpt lat="46.8869" lon="6.37034">
        <ele>962.8</ele>
        <time>2021-08-14T09:30:09Z</time>
      </trkpt>
      <trkpt lat="46.88689" lon="6.37034">
        <ele>962.9</ele>
        <time>2021-08-14T09:30:11Z</time>
      </trkpt>
      <trkpt lat="46.88689" lon="6.37033">
        <ele>963</ele>
        <time>2021-08-14T09:30:12Z</time>
      </trkpt>
      <trkpt lat="46.88688" lon="6.37033">
        <ele>963.1</ele>
        <time>2021-08-14T09:30:14Z</time>
      </trkpt>
      <trkpt lat="46.88688" lon="6.37032">
        <ele>963.1</ele>
        <time>2021-08-14T09:30:15Z</time>
      </trkpt>
      <trkpt lat="46.88687" lon="6.37032">
        <ele>963.2</ele>
        <time>2021-08-14T09:30:17Z</time>
      </trkpt>
      <trkpt lat="46.88687" lon="6.37032">
        <ele>963.2</ele>
        <time>2021-08-14T09:30:18Z</time>
      </trkpt>
      <trkpt lat="46.88687" lon="6.37032">
        <ele>963.2</ele>
        <time>2021-08-14T09:30:19Z</time>
      </trkpt>
      <trkpt lat="46.88686" lon="6.37032">
        <ele>963.3</ele>
        <time>2021-08-14T09:30:20Z</time>
      </trkpt>
      <trkpt lat="46.88684" lon="6.37032">
        <ele>963.6</ele>
        <time>2021-08-14T09:30:22Z</time>
      </trkpt>
      <trkpt lat="46.88682" lon="6.37031">
        <ele>963.8</ele>
        <time>2021-08-14T09:30:23Z</time>
      </trkpt>
      <trkpt lat="46.88679" lon="6.37032">
        <ele>964.1</ele>
        <time>2021-08-14T09:30:25Z</time>
      </trkpt>
      <trkpt lat="46.88678" lon="6.37032">
        <ele>964.2</ele>
        <time>2021-08-14T09:30:26Z</time>
      </trkpt>
      <trkpt lat="46.88669" lon="6.37033">
        <ele>965.1</ele>
        <time>2021-08-14T09:30:28Z</time>
      </trkpt>
      <trkpt lat="46.8866" lon="6.37035">
        <ele>965.9</ele>
        <time>2021-08-14T09:30:29Z</time>
      </trkpt>
      <trkpt lat="46.88655" lon="6.37036">
        <ele>966.3</ele>
        <time>2021-08-14T09:30:31Z</time>
      </trkpt>
      <trkpt lat="46.88651" lon="6.37037">
        <ele>966.7</ele>
        <time>2021-08-14T09:30:32Z</time>
      </trkpt>
      <trkpt lat="46.88647" lon="6.37037">
        <ele>967.1</ele>
        <time>2021-08-14T09:30:34Z</time>
      </trkpt>
      <trkpt lat="46.88644" lon="6.37038">
        <ele>967.4</ele>
        <time>2021-08-14T09:30:35Z</time>
      </trkpt>
      <trkpt lat="46.88642" lon="6.37039">
        <ele>967.6</ele>
        <time>2021-08-14T09:30:37Z</time>
      </trkpt>
      <trkpt lat="46.8864" lon="6.37039">
        <ele>967.8</ele>
        <time>2021-08-14T09:30:38Z</time>
      </trkpt>
      <trkpt lat="46.88633" lon="6.3704">
        <ele>968.6</ele>
        <time>2021-08-14T09:30:39Z</time>
      </trkpt>
      <trkpt lat="46.88628" lon="6.3704">
        <ele>969.1</ele>
        <time>2021-08-14T09:30:40Z</time>
      </trkpt>
      <trkpt lat="46.88623" lon="6.37039">
        <ele>969.6</ele>
        <time>2021-08-14T09:30:41Z</time>
      </trkpt>
      <trkpt lat="46.88615" lon="6.37038">
        <ele>970.3</ele>
        <time>2021-08-14T09:30:44Z</time>
      </trkpt>
      <trkpt lat="46.88613" lon="6.37037">
        <ele>970.5</ele>
        <time>2021-08-14T09:30:45Z</time>
      </trkpt>
      <trkpt lat="46.8861" lon="6.37037">
        <ele>970.8</ele>
        <time>2021-08-14T09:30:47Z</time>
      </trkpt>
      <trkpt lat="46.88607" lon="6.37037">
        <ele>971</ele>
        <time>2021-08-14T09:30:48Z</time>
      </trkpt>
      <trkpt lat="46.88605" lon="6.37037">
        <ele>971.2</ele>
        <time>2021-08-14T09:30:49Z</time>
      </trkpt>
      <trkpt lat="46.88604" lon="6.37036">
        <ele>971.2</ele>
        <time>2021-08-14T09:30:50Z</time>
      </trkpt>
      <trkpt lat="46.88603" lon="6.37036">
        <ele>971.3</ele>
        <time>2021-08-14T09:30:51Z</time>
      </trkpt>
      <trkpt lat="46.88602" lon="6.37036">
        <ele>971.4</ele>
        <time>2021-08-14T09:30:53Z</time>
      </trkpt>
      <trkpt lat="46.88602" lon="6.37036">
        <ele>971.5</ele>
        <time>2021-08-14T09:30:54Z</time>
      </trkpt>
      <trkpt lat="46.88465" lon="6.37043">
        <ele>985</ele>
        <time>2021-08-14T09:34:00Z</time>
      </trkpt>
      <trkpt lat="46.88458" lon="6.37042">
        <ele>985.2</ele>
        <time>2021-08-14T09:34:02Z</time>
      </trkpt>
      <trkpt lat="46.88452" lon="6.37041">
        <ele>985.4</ele>
        <time>2021-08-14T09:34:03Z</time>
      </trkpt>
      <trkpt lat="46.88446" lon="6.37042">
        <ele>985.5</ele>
        <time>2021-08-14T09:34:04Z</time>
      </trkpt>
      <trkpt lat="46.88442" lon="6.37043">
        <ele>985.7</ele>
        <time>2021-08-14T09:34:05Z</time>
      </trkpt>
      <trkpt lat="46.88435" lon="6.37044">
        <ele>985.9</ele>
        <time>2021-08-14T09:34:06Z</time>
      </trkpt>
      <trkpt lat="46.88431" lon="6.37043">
        <ele>986.1</ele>
        <time>2021-08-14T09:34:08Z</time>
      </trkpt>
      <trkpt lat="46.88426" lon="6.3704">
        <ele>986.3</ele>
        <time>2021-08-14T09:34:09Z</time>
      </trkpt>
      <trkpt lat="46.88421" lon="6.3704">
        <ele>986.6</ele>
        <time>2021-08-14T09:34:11Z</time>
      </trkpt>
      <trkpt lat="46.88419" lon="6.37042">
        <ele>986.7</ele>
        <time>2021-08-14T09:34:12Z</time>
      </trkpt>
      <trkpt lat="46.8842" lon="6.37045">
        <ele>986.8</ele>
        <time>2021-08-14T09:34:13Z</time>
      </trkpt>
      <trkpt lat="46.88419" lon="6.37047">
        <ele>986.8</ele>
        <time>2021-08-14T09:34:15Z</time>
      </trkpt>
      <trkpt lat="46.88418" lon="6.37047">
        <ele>986.9</ele>
        <time>2021-08-14T09:34:16Z</time>
      </trkpt>
      <trkpt lat="46.88417" lon="6.37048">
        <ele>986.9</ele>
        <time>2021-08-14T09:34:17Z</time>
      </trkpt>
      <trkpt lat="46.88416" lon="6.37049">
        <ele>987</ele>
        <time>2021-08-14T09:34:19Z</time>
      </trkpt>
      <trkpt lat="46.88416" lon="6.3705">
        <ele>987</ele>
        <time>2021-08-14T09:34:20Z</time>
      </trkpt>
      <trkpt lat="46.88416" lon="6.37051">
        <ele>987</ele>
        <time>2021-08-14T09:34:21Z</time>
      </trkpt>
      <trkpt lat="46.88409" lon="6.37051">
        <ele>987.3</ele>
        <time>2021-08-14T09:34:23Z</time>
      </trkpt>
      <trkpt lat="46.88403" lon="6.37049">
        <ele>987.6</ele>
        <time>2021-08-14T09:34:36Z</time>
      </trkpt>
      <trkpt lat="46.88397" lon="6.37047">
        <ele>987.8</ele>
        <time>2021-08-14T09:34:37Z</time>
      </trkpt>
      <trkpt lat="46.88391" lon="6.37045">
        <ele>988.1</ele>
        <time>2021-08-14T09:34:38Z</time>
      </trkpt>
      <trkpt lat="46.88388" lon="6.37044">
        <ele>988.3</ele>
        <time>2021-08-14T09:34:39Z</time>
      </trkpt>
      <trkpt lat="46.88386" lon="6.37043">
        <ele>988.3</ele>
        <time>2021-08-14T09:34:40Z</time>
      </trkpt>
      <trkpt lat="46.88385" lon="6.37045">
        <ele>988.4</ele>
        <time>2021-08-14T09:34:41Z</time>
      </trkpt>
      <trkpt lat="46.88385" lon="6.37047">
        <ele>988.5</ele>
        <time>2021-08-14T09:34:43Z</time>
      </trkpt>
      <trkpt lat="46.88384" lon="6.37048">
        <ele>988.5</ele>
        <time>2021-08-14T09:34:44Z</time>
      </trkpt>
      <trkpt lat="46.88382" lon="6.37052">
        <ele>988.7</ele>
        <time>2021-08-14T09:34:46Z</time>
      </trkpt>
      <trkpt lat="46.88382" lon="6.37057">
        <ele>988.9</ele>
        <time>2021-08-14T09:34:48Z</time>
      </trkpt>
      <trkpt lat="46.88378" lon="6.37062">
        <ele>989.2</ele>
        <time>2021-08-14T09:34:49Z</time>
      </trkpt>
      <trkpt lat="46.88374" lon="6.37065">
        <ele>989.5</ele>
        <time>2021-08-14T09:34:50Z</time>
      </trkpt>
      <trkpt lat="46.88373" lon="6.37066">
        <ele>989.6</ele>
        <time>2021-08-14T09:34:51Z</time>
      </trkpt>
      <trkpt lat="46.88371" lon="6.37066">
        <ele>989.7</ele>
        <time>2021-08-14T09:34:52Z</time>
      </trkpt>
      <trkpt lat="46.88367" lon="6.37062">
        <ele>989.7</ele>
        <time>2021-08-14T09:34:54Z</time>
      </trkpt>
      <trkpt lat="46.88365" lon="6.37059">
        <ele>989.6</ele>
        <time>2021-08-14T09:34:55Z</time>
      </trkpt>
      <trkpt lat="46.88362" lon="6.37058">
        <ele>989.6</ele>
        <time>2021-08-14T09:34:56Z</time>
      </trkpt>
      <trkpt lat="46.8835" lon="6.37058">
        <ele>989.4</ele>
        <time>2021-08-14T09:35:04Z</time>
      </trkpt>
      <trkpt lat="46.88347" lon="6.37055">
        <ele>989.4</ele>
        <time>2021-08-14T09:35:05Z</time>
      </trkpt>
      <trkpt lat="46.88343" lon="6.37053">
        <ele>989.4</ele>
        <time>2021-08-14T09:35:06Z</time>
      </trkpt>
      <trkpt lat="46.88342" lon="6.37052">
        <ele>989.4</ele>
        <time>2021-08-14T09:35:07Z</time>
      </trkpt>
      <trkpt lat="46.8834" lon="6.37052">
        <ele>989.5</ele>
        <time>2021-08-14T09:35:08Z</time>
      </trkpt>
      <trkpt lat="46.88338" lon="6.3705">
        <ele>989.5</ele>
        <time>2021-08-14T09:35:10Z</time>
      </trkpt>
      <trkpt lat="46.88337" lon="6.37049">
        <ele>989.5</ele>
        <time>2021-08-14T09:35:11Z</time>
      </trkpt>
      <trkpt lat="46.88332" lon="6.37045">
        <ele>989.7</ele>
        <time>2021-08-14T09:35:13Z</time>
      </trkpt>
      <trkpt lat="46.8833" lon="6.37046">
        <ele>989.8</ele>
        <time>2021-08-14T09:35:14Z</time>
      </trkpt>
      <trkpt lat="46.88326" lon="6.37046">
        <ele>989.9</ele>
        <time>2021-08-14T09:35:16Z</time>
      </trkpt>
      <trkpt lat="46.88323" lon="6.37047">
        <ele>990.1</ele>
        <time>2021-08-14T09:35:17Z</time>
      </trkpt>
      <trkpt lat="46.88318" lon="6.37047">
        <ele>990.3</ele>
        <time>2021-08-14T09:35:18Z</time>
      </trkpt>
      <trkpt lat="46.88315" lon="6.37047">
        <ele>990.4</ele>
        <time>2021-08-14T09:35:20Z</time>
      </trkpt>
      <trkpt lat="46.88312" lon="6.37043">
        <ele>990.6</ele>
        <time>2021-08-14T09:35:21Z</time>
      </trkpt>
      <trkpt lat="46.88308" lon="6.3704">
        <ele>990.7</ele>
        <time>2021-08-14T09:35:23Z</time>
      </trkpt>
      <trkpt lat="46.88307" lon="6.37039">
        <ele>990.7</ele>
        <time>2021-08-14T09:35:24Z</time>
      </trkpt>
      <trkpt lat="46.88305" lon="6.37039">
        <ele>990.7</ele>
        <time>2021-08-14T09:35:25Z</time>
      </trkpt>
      <trkpt lat="46.88303" lon="6.37037">
        <ele>990.8</ele>
        <time>2021-08-14T09:35:27Z</time>
      </trkpt>
      <trkpt lat="46.88302" lon="6.37035">
        <ele>990.8</ele>
        <time>2021-08-14T09:35:28Z</time>
      </trkpt>
      <trkpt lat="46.88304" lon="6.37035">
        <ele>990.9</ele>
        <time>2021-08-14T09:35:30Z</time>
      </trkpt>
      <trkpt lat="46.88307" lon="6.37038">
        <ele>991.1</ele>
        <time>2021-08-14T09:35:32Z</time>
      </trkpt>
      <trkpt lat="46.8831" lon="6.3704">
        <ele>991.2</ele>
        <time>2021-08-14T09:35:34Z</time>
      </trkpt>
      <trkpt lat="46.88314" lon="6.37043">
        <ele>991.3</ele>
        <time>2021-08-14T09:35:36Z</time>
      </trkpt>
      <trkpt lat="46.88317" lon="6.37045">
        <ele>991.4</ele>
        <time>2021-08-14T09:35:37Z</time>
      </trkpt>
      <trkpt lat="46.8832" lon="6.37048">
        <ele>991.4</ele>
        <time>2021-08-14T09:35:39Z</time>
      </trkpt>
      <trkpt lat="46.88323" lon="6.37051">
        <ele>991.5</ele>
        <time>2021-08-14T09:37:54Z</time>
      </trkpt>
      <trkpt lat="46.88327" lon="6.37053">
        <ele>991.6</ele>
        <time>2021-08-14T09:37:55Z</time>
      </trkpt>
      <trkpt lat="46.88329" lon="6.37056">
        <ele>991.8</ele>
        <time>2021-08-14T09:37:57Z</time>
      </trkpt>
      <trkpt lat="46.88331" lon="6.37061">
        <ele>992</ele>
        <time>2021-08-14T09:37:58Z</time>
      </trkpt>
      <trkpt lat="46.88332" lon="6.37064">
        <ele>992.2</ele>
        <time>2021-08-14T09:38:00Z</time>
      </trkpt>
      <trkpt lat="46.88332" lon="6.37064">
        <ele>992.2</ele>
        <time>2021-08-14T09:38:01Z</time>
      </trkpt>
      <trkpt lat="46.88332" lon="6.37065">
        <ele>992.2</ele>
        <time>2021-08-14T09:38:03Z</time>
      </trkpt>
      <trkpt lat="46.88332" lon="6.37066">
        <ele>992.3</ele>
        <time>2021-08-14T09:38:04Z</time>
      </trkpt>
      <trkpt lat="46.88333" lon="6.37067">
        <ele>992.5</ele>
        <time>2021-08-14T09:38:05Z</time>
      </trkpt>
      <trkpt lat="46.88334" lon="6.37067">
        <ele>992.6</ele>
        <time>2021-08-14T09:38:07Z</time>
      </trkpt>
      <trkpt lat="46.88335" lon="6.37068">
        <ele>992.6</ele>
        <time>2021-08-14T09:38:08Z</time>
      </trkpt>
      <trkpt lat="46.88362" lon="6.37185">
        <ele>1008.8</ele>
        <time>2021-08-14T09:40:27Z</time>
      </trkpt>
      <trkpt lat="46.88364" lon="6.37186">
        <ele>1009.1</ele>
        <time>2021-08-14T09:40:28Z</time>
      </trkpt>
      <trkpt lat="46.88366" lon="6.37187">
        <ele>1009.4</ele>
        <time>2021-08-14T09:40:30Z</time>
      </trkpt>
      <trkpt lat="46.88368" lon="6.37188">
        <ele>1009.7</ele>
        <time>2021-08-14T09:40:31Z</time>
      </trkpt>
      <trkpt lat="46.88371" lon="6.37189">
        <ele>1010.1</ele>
        <time>2021-08-14T09:40:33Z</time>
      </trkpt>
      <trkpt lat="46.88374" lon="6.3719">
        <ele>1010.5</ele>
        <time>2021-08-14T09:40:34Z</time>
      </trkpt>
      <trkpt lat="46.88376" lon="6.37191">
        <ele>1010.7</ele>
        <time>2021-08-14T09:40:35Z</time>
      </trkpt>
      <trkpt lat="46.88378" lon="6.37192">
        <ele>1011</ele>
        <time>2021-08-14T09:40:37Z</time>
      </trkpt>
      <trkpt lat="46.88379" lon="6.37192">
        <ele>1011.2</ele>
        <time>2021-08-14T09:40:38Z</time>
      </trkpt>
      <trkpt lat="46.88381" lon="6.37193">
        <ele>1011.4</ele>
        <time>2021-08-14T09:40:39Z</time>
      </trkpt>
      <trkpt lat="46.88381" lon="6.37193">
        <ele>1011.5</ele>
        <time>2021-08-14T09:40:41Z</time>
      </trkpt>
      <trkpt lat="46.88382" lon="6.37192">
        <ele>1011.6</ele>
        <time>2021-08-14T09:40:42Z</time>
      </trkpt>
      <trkpt lat="46.88383" lon="6.37191">
        <ele>1011.7</ele>
        <time>2021-08-14T09:40:44Z</time>
      </trkpt>
      <trkpt lat="46.88382" lon="6.37191">
        <ele>1011.8</ele>
        <time>2021-08-14T09:40:45Z</time>
      </trkpt>
      <trkpt lat="46.88382" lon="6.37191">
        <ele>1011.9</ele>
        <time>2021-08-14T09:40:46Z</time>
      </trkpt>
      <trkpt lat="46.88381" lon="6.37191">
        <ele>1012</ele>
        <time>2021-08-14T09:40:47Z</time>
      </trkpt>
      <trkpt lat="46.8838" lon="6.37192">
        <ele>1012.2</ele>
        <time>2021-08-14T09:40:49Z</time>
      </trkpt>
      <trkpt lat="46.88354" lon="6.37238">
        <ele>1016</ele>
        <time>2021-08-14T09:41:17Z</time>
      </trkpt>
      <trkpt lat="46.88355" lon="6.37239">
        <ele>1016</ele>
        <time>2021-08-14T09:41:18Z</time>
      </trkpt>
      <trkpt lat="46.88355" lon="6.37239">
        <ele>1016</ele>
        <time>2021-08-14T09:41:19Z</time>
      </trkpt>
      <trkpt lat="46.88355" lon="6.37239">
        <ele>1016.1</ele>
        <time>2021-08-14T09:41:21Z</time>
      </trkpt>
      <trkpt lat="46.88355" lon="6.3724">
        <ele>1016.1</ele>
        <time>2021-08-14T09:41:23Z</time>
      </trkpt>
      <trkpt lat="46.88354" lon="6.3724">
        <ele>1016.1</ele>
        <time>2021-08-14T09:41:24Z</time>
      </trkpt>
      <trkpt lat="46.88354" lon="6.3724">
        <ele>1016.1</ele>
        <time>2021-08-14T09:41:26Z</time>
      </trkpt>
      <trkpt lat="46.88354" lon="6.3724">
        <ele>1016.1</ele>
        <time>2021-08-14T09:41:27Z</time>
      </trkpt>
      <trkpt lat="46.88354" lon="6.3724">
        <ele>1016.1</ele>
        <time>2021-08-14T09:41:28Z</time>
      </trkpt>
      <trkpt lat="46.88354" lon="6.3724">
        <ele>1016.1</ele>
        <time>2021-08-14T09:41:30Z</time>
      </trkpt>
      <trkpt lat="46.88337" lon="6.37337">
        <ele>1023</ele>
        <time>2021-08-14T09:42:47Z</time>
      </trkpt>
      <trkpt lat="46.88338" lon="6.37338">
        <ele>1023.3</ele>
        <time>2021-08-14T09:42:48Z</time>
      </trkpt>
      <trkpt lat="46.88339" lon="6.37339">
        <ele>1023.4</ele>
        <time>2021-08-14T09:42:49Z</time>
      </trkpt>
      <trkpt lat="46.8834" lon="6.3734">
        <ele>1023.5</ele>
        <time>2021-08-14T09:42:51Z</time>
      </trkpt>
      <trkpt lat="46.88341" lon="6.3734">
        <ele>1023.6</ele>
        <time>2021-08-14T09:42:52Z</time>
      </trkpt>
      <trkpt lat="46.88341" lon="6.3734">
        <ele>1023.6</ele>
        <time>2021-08-14T09:42:53Z</time>
      </trkpt>
      <trkpt lat="46.88342" lon="6.37341">
        <ele>1023.7</ele>
        <time>2021-08-14T09:42:55Z</time>
      </trkpt>
      <trkpt lat="46.88342" lon="6.37342">
        <ele>1023.8</ele>
        <time>2021-08-14T09:42:56Z</time>
      </trkpt>
      <trkpt lat="46.88343" lon="6.37343">
        <ele>1023.9</ele>
        <time>2021-08-14T09:42:57Z</time>
      </trkpt>
      <trkpt lat="46.88343" lon="6.37344">
        <ele>1024</ele>
        <time>2021-08-14T09:42:59Z</time>
      </trkpt>
      <trkpt lat="46.88344" lon="6.37345">
        <ele>1024</ele>
        <time>2021-08-14T09:43:00Z</time>
      </trkpt>
      <trkpt lat="46.88344" lon="6.37346">
        <ele>1024.1</ele>
        <time>2021-08-14T09:43:01Z</time>
      </trkpt>
      <trkpt lat="46.88343" lon="6.37347">
        <ele>1024.2</ele>
        <time>2021-08-14T09:43:02Z</time>
      </trkpt>
      <trkpt lat="46.88343" lon="6.37349">
        <ele>1024.3</ele>
        <time>2021-08-14T09:43:03Z</time>
      </trkpt>
      <trkpt lat="46.88342" lon="6.37351">
        <ele>1024.5</ele>
        <time>2021-08-14T09:43:05Z</time>
      </trkpt>
      <trkpt lat="46.88341" lon="6.37352">
        <ele>1024.6</ele>
        <time>2021-08-14T09:43:06Z</time>
      </trkpt>
      <trkpt lat="46.8834" lon="6.37353">
        <ele>1024.7</ele>
        <time>2021-08-14T09:43:08Z</time>
      </trkpt>
      <trkpt lat="46.88339" lon="6.37356">
        <ele>1024.9</ele>
        <time>2021-08-14T09:43:10Z</time>
      </trkpt>
      <trkpt lat="46.88338" lon="6.37357">
        <ele>1024.9</ele>
        <time>2021-08-14T09:43:11Z</time>
      </trkpt>
      <trkpt lat="46.88337" lon="6.37359">
        <ele>1025</ele>
        <time>2021-08-14T09:43:13Z</time>
      </trkpt>
      <trkpt lat="46.88337" lon="6.3736">
        <ele>1025.1</ele>
        <time>2021-08-14T09:43:14Z</time>
      </trkpt>
      <trkpt lat="46.88337" lon="6.3736">
        <ele>1025.1</ele>
        <time>2021-08-14T09:43:16Z</time>
      </trkpt>
      <trkpt lat="46.88337" lon="6.37361">
        <ele>1025.1</ele>
        <time>2021-08-14T09:43:18Z</time>
      </trkpt>
      <trkpt lat="46.88337" lon="6.37361">
        <ele>1025.1</ele>
        <time>2021-08-14T09:43:20Z</time>
      </trkpt>
      <trkpt lat="46.88337" lon="6.37361">
        <ele>1025.1</ele>
        <time>2021-08-14T09:43:22Z</time>
      </trkpt>
      <trkpt lat="46.88336" lon="6.37362">
        <ele>1025.2</ele>
        <time>2021-08-14T09:43:24Z</time>
      </trkpt>
      <trkpt lat="46.88335" lon="6.37365">
        <ele>1025.3</ele>
        <time>2021-08-14T09:43:26Z</time>
      </trkpt>
      <trkpt lat="46.88335" lon="6.37367">
        <ele>1025.3</ele>
        <time>2021-08-14T09:43:28Z</time>
      </trkpt>
      <trkpt lat="46.88334" lon="6.37368">
        <ele>1025.4</ele>
        <time>2021-08-14T09:43:29Z</time>
      </trkpt>
      <trkpt lat="46.88334" lon="6.37369">
        <ele>1025.4</ele>
        <time>2021-08-14T09:43:31Z</time>
      </trkpt>
      <trkpt lat="46.88334" lon="6.3737">
        <ele>1025.4</ele>
        <time>2021-08-14T09:43:32Z</time>
      </trkpt>
      <trkpt lat="46.88334" lon="6.37372">
        <ele>1025.5</ele>
        <time>2021-08-14T09:43:34Z</time>
      </trkpt>
      <trkpt lat="46.88333" lon="6.37373">
        <ele>1025.5</ele>
        <time>2021-08-14T09:43:35Z</time>
      </trkpt>
      <trkpt lat="46.88333" lon="6.37373">
        <ele>1025.5</ele>
        <time>2021-08-14T09:43:36Z</time>
      </trkpt>
      <trkpt lat="46.88333" lon="6.37373">
        <ele>1025.5</ele>
        <time>2021-08-14T09:43:38Z</time>
      </trkpt>
      <trkpt lat="46.88333" lon="6.37373">
        <ele>1025.5</ele>
        <time>2021-08-14T09:43:40Z</time>
      </trkpt>
      <trkpt lat="46.88333" lon="6.37373">
        <ele>1025.5</ele>
        <time>2021-08-14T09:43:41Z</time>
      </trkpt>
      <trkpt lat="46.88333" lon="6.37373">
        <ele>1025.5</ele>
        <time>2021-08-14T09:43:42Z</time>
      </trkpt>
      <trkpt lat="46.88333" lon="6.37374">
        <ele>1025.5</ele>
        <time>2021-08-14T09:43:43Z</time>
      </trkpt>
      <trkpt lat="46.88333" lon="6.37374">
        <ele>1025.5</ele>
        <time>2021-08-14T09:43:44Z</time>
      </trkpt>
      <trkpt lat="46.88333" lon="6.37374">
        <ele>1025.5</ele>
        <time>2021-08-14T09:43:46Z</time>
      </trkpt>
      <trkpt lat="46.88333" lon="6.37374">
        <ele>1025.5</ele>
        <time>2021-08-14T09:43:47Z</time>
      </trkpt>
      <trkpt lat="46.88333" lon="6.37374">
        <ele>1025.5</ele>
        <time>2021-08-14T09:43:48Z</time>
      </trkpt>
      <trkpt lat="46.88333" lon="6.37374">
        <ele>1025.5</ele>
        <time>2021-08-14T09:43:49Z</time>
      </trkpt>
      <trkpt lat="46.88333" lon="6.37374">
        <ele>1025.5</ele>
        <time>2021-08-14T09:43:51Z</time>
      </trkpt>
      <trkpt lat="46.88332" lon="6.37374">
        <ele>1025.5</ele>
        <time>2021-08-14T09:43:52Z</time>
      </trkpt>
      <trkpt lat="46.88332" lon="6.37375">
        <ele>1025.5</ele>
        <time>2021-08-14T09:43:53Z</time>
      </trkpt>
      <trkpt lat="46.8833" lon="6.37377">
        <ele>1025.5</ele>
        <time>2021-08-14T09:43:55Z</time>
      </trkpt>
      <trkpt lat="46.88328" lon="6.3738">
        <ele>1025.5</ele>
        <time>2021-08-14T09:43:56Z</time>
      </trkpt>
      <trkpt lat="46.88328" lon="6.37381">
        <ele>1025.5</ele>
        <time>2021-08-14T09:43:57Z</time>
      </trkpt>
      <trkpt lat="46.88325" lon="6.37386">
        <ele>1025.4</ele>
        <time>2021-08-14T09:43:58Z</time>
      </trkpt>
      <trkpt lat="46.88324" lon="6.37388">
        <ele>1025.4</ele>
        <time>2021-08-14T09:44:00Z</time>
      </trkpt>
      <trkpt lat="46.88322" lon="6.37391">
        <ele>1025.3</ele>
        <time>2021-08-14T09:44:01Z</time>
      </trkpt>
      <trkpt lat="46.88321" lon="6.37399">
        <ele>1025.1</ele>
        <time>2021-08-14T09:44:02Z</time>
      </trkpt>
      <trkpt lat="46.8832" lon="6.37409">
        <ele>1024.8</ele>
        <time>2021-08-14T09:44:04Z</time>
      </trkpt>
      <trkpt lat="46.88319" lon="6.37417">
        <ele>1024.5</ele>
        <time>2021-08-14T09:44:05Z</time>
      </trkpt>
      <trkpt lat="46.88318" lon="6.37427">
        <ele>1024</ele>
        <time>2021-08-14T09:44:06Z</time>
      </trkpt>
      <trkpt lat="46.88318" lon="6.37435">
        <ele>1023.5</ele>
        <time>2021-08-14T09:44:08Z</time>
      </trkpt>
      <trkpt lat="46.88319" lon="6.3744">
        <ele>1023.2</ele>
        <time>2021-08-14T09:44:09Z</time>
      </trkpt>
      <trkpt lat="46.88319" lon="6.37446">
        <ele>1022.8</ele>
        <time>2021-08-14T09:44:10Z</time>
      </trkpt>
      <trkpt lat="46.88319" lon="6.37452">
        <ele>1022.3</ele>
        <time>2021-08-14T09:44:11Z</time>
      </trkpt>
      <trkpt lat="46.88319" lon="6.37457">
        <ele>1021.8</ele>
        <time>2021-08-14T09:44:13Z</time>
      </trkpt>
      <trkpt lat="46.88319" lon="6.37463">
        <ele>1021.2</ele>
        <time>2021-08-14T09:44:14Z</time>
      </trkpt>
      <trkpt lat="46.88318" lon="6.37468">
        <ele>1020.8</ele>
        <time>2021-08-14T09:44:15Z</time>
      </trkpt>
      <trkpt lat="46.88316" lon="6.37472">
        <ele>1020.3</ele>
        <time>2021-08-14T09:44:17Z</time>
      </trkpt>
      <trkpt lat="46.88315" lon="6.37476">
        <ele>1019.8</ele>
        <time>2021-08-14T09:44:18Z</time>
      </trkpt>
      <trkpt lat="46.88311" lon="6.37483">
        <ele>1019</ele>
        <time>2021-08-14T09:44:19Z</time>
      </trkpt>
      <trkpt lat="46.88309" lon="6.37489">
        <ele>1018.4</ele>
        <time>2021-08-14T09:44:21Z</time>
      </trkpt>
      <trkpt lat="46.88307" lon="6.37492">
        <ele>1018.1</ele>
        <time>2021-08-14T09:44:22Z</time>
      </trkpt>
      <trkpt lat="46.88305" lon="6.37496">
        <ele>1017.7</ele>
        <time>2021-08-14T09:44:23Z</time>
      </trkpt>
      <trkpt lat="46.88303" lon="6.375">
        <ele>1017.5</ele>
        <time>2021-08-14T09:44:24Z</time>
      </trkpt>
      <trkpt lat="46.88301" lon="6.37506">
        <ele>1017.2</ele>
        <time>2021-08-14T09:44:25Z</time>
      </trkpt>
      <trkpt lat="46.88299" lon="6.3751">
        <ele>1017.1</ele>
        <time>2021-08-14T09:44:27Z</time>
      </trkpt>
      <trkpt lat="46.88297" lon="6.37512">
        <ele>1017</ele>
        <time>2021-08-14T09:44:28Z</time>
      </trkpt>
      <trkpt lat="46.88294" lon="6.37515">
        <ele>1017</ele>
        <time>2021-08-14T09:44:29Z</time>
      </trkpt>
      <trkpt lat="46.88292" lon="6.37517">
        <ele>1017</ele>
        <time>2021-08-14T09:44:30Z</time>
      </trkpt>
      <trkpt lat="46.8829" lon="6.37522">
        <ele>1017</ele>
        <time>2021-08-14T09:44:32Z</time>
      </trkpt>
      <trkpt lat="46.88288" lon="6.37525">
        <ele>1017</ele>
        <time>2021-08-14T09:44:33Z</time>
      </trkpt>
      <trkpt lat="46.88286" lon="6.37532">
        <ele>1017.1</ele>
        <time>2021-08-14T09:44:34Z</time>
      </trkpt>
      <trkpt lat="46.88284" lon="6.37538">
        <ele>1017.3</ele>
        <time>2021-08-14T09:44:36Z</time>
      </trkpt>
      <trkpt lat="46.88284" lon="6.3754">
        <ele>1017.3</ele>
        <time>2021-08-14T09:44:37Z</time>
      </trkpt>
      <trkpt lat="46.88283" lon="6.37542">
        <ele>1017.4</ele>
        <time>2021-08-14T09:44:38Z</time>
      </trkpt>
      <trkpt lat="46.88282" lon="6.37546">
        <ele>1017.5</ele>
        <time>2021-08-14T09:44:40Z</time>
      </trkpt>
      <trkpt lat="46.88282" lon="6.37552">
        <ele>1017.7</ele>
        <time>2021-08-14T09:44:42Z</time>
      </trkpt>
      <trkpt lat="46.88279" lon="6.37558">
        <ele>1017.9</ele>
        <time>2021-08-14T09:44:44Z</time>
      </trkpt>
      <trkpt lat="46.88279" lon="6.37558">
        <ele>1018</ele>
        <time>2021-08-14T09:44:46Z</time>
      </trkpt>
      <trkpt lat="46.88278" lon="6.37556">
        <ele>1018</ele>
        <time>2021-08-14T09:44:47Z</time>
      </trkpt>
      <trkpt lat="46.88278" lon="6.37556">
        <ele>1018</ele>
        <time>2021-08-14T09:44:48Z</time>
      </trkpt>
      <trkpt lat="46.88278" lon="6.37556">
        <ele>1018</ele>
        <time>2021-08-14T09:44:50Z</time>
      </trkpt>
      <trkpt lat="46.88278" lon="6.37556">
        <ele>1018</ele>
        <time>2021-08-14T09:44:51Z</time>
      </trkpt>
      <trkpt lat="46.88278" lon="6.37556">
        <ele>1018</ele>
        <time>2021-08-14T09:44:52Z</time>
      </trkpt>
      <trkpt lat="46.88278" lon="6.37556">
        <ele>1018</ele>
        <time>2021-08-14T09:44:53Z</time>
      </trkpt>
      <trkpt lat="46.88278" lon="6.37556">
        <ele>1018</ele>
        <time>2021-08-14T09:44:54Z</time>
      </trkpt>
      <trkpt lat="46.88273" lon="6.37579">
        <ele>1018.8</ele>
        <time>2021-08-14T09:45:04Z</time>
      </trkpt>
      <trkpt lat="46.88271" lon="6.37587">
        <ele>1019.1</ele>
        <time>2021-08-14T09:45:06Z</time>
      </trkpt>
      <trkpt lat="46.8827" lon="6.37597">
        <ele>1019.5</ele>
        <time>2021-08-14T09:45:08Z</time>
      </trkpt>
      <trkpt lat="46.88271" lon="6.37605">
        <ele>1019.8</ele>
        <time>2021-08-14T09:45:09Z</time>
      </trkpt>
      <trkpt lat="46.8827" lon="6.37608">
        <ele>1020</ele>
        <time>2021-08-14T09:45:10Z</time>
      </trkpt>
      <trkpt lat="46.8827" lon="6.37613">
        <ele>1020.2</ele>
        <time>2021-08-14T09:45:12Z</time>
      </trkpt>
      <trkpt lat="46.8827" lon="6.37619">
        <ele>1020.5</ele>
        <time>2021-08-14T09:45:13Z</time>
      </trkpt>
      <trkpt lat="46.8827" lon="6.37621">
        <ele>1020.6</ele>
        <time>2021-08-14T09:45:14Z</time>
      </trkpt>
      <trkpt lat="46.8827" lon="6.37622">
        <ele>1020.7</ele>
        <time>2021-08-14T09:45:15Z</time>
      </trkpt>
      <trkpt lat="46.88271" lon="6.37626">
        <ele>1020.9</ele>
        <time>2021-08-14T09:45:17Z</time>
      </trkpt>
      <trkpt lat="46.88271" lon="6.37628">
        <ele>1021</ele>
        <time>2021-08-14T09:45:18Z</time>
      </trkpt>
      <trkpt lat="46.88271" lon="6.37628">
        <ele>1021.1</ele>
        <time>2021-08-14T09:45:19Z</time>
      </trkpt>
      <trkpt lat="46.88271" lon="6.37629">
        <ele>1021.1</ele>
        <time>2021-08-14T09:45:20Z</time>
      </trkpt>
      <trkpt lat="46.88272" lon="6.3763">
        <ele>1021.2</ele>
        <time>2021-08-14T09:45:22Z</time>
      </trkpt>
      <trkpt lat="46.88272" lon="6.37631">
        <ele>1021.3</ele>
        <time>2021-08-14T09:45:23Z</time>
      </trkpt>
      <trkpt lat="46.88271" lon="6.37631">
        <ele>1021.3</ele>
        <time>2021-08-14T09:45:25Z</time>
      </trkpt>
      <trkpt lat="46.88271" lon="6.37632">
        <ele>1021.4</ele>
        <time>2021-08-14T09:45:26Z</time>
      </trkpt>
      <trkpt lat="46.88269" lon="6.37633">
        <ele>1021.6</ele>
        <time>2021-08-14T09:45:27Z</time>
      </trkpt>
      <trkpt lat="46.88227" lon="6.37736">
        <ele>1034.5</ele>
        <time>2021-08-14T09:47:20Z</time>
      </trkpt>
      <trkpt lat="46.88226" lon="6.3774">
        <ele>1035.1</ele>
        <time>2021-08-14T09:47:22Z</time>
      </trkpt>
      <trkpt lat="46.88224" lon="6.37744">
        <ele>1035.6</ele>
        <time>2021-08-14T09:47:23Z</time>
      </trkpt>
      <trkpt lat="46.88224" lon="6.37745">
        <ele>1035.8</ele>
        <time>2021-08-14T09:47:24Z</time>
      </trkpt>
      <trkpt lat="46.88223" lon="6.37746">
        <ele>1035.9</ele>
        <time>2021-08-14T09:47:25Z</time>
      </trkpt>
      <trkpt lat="46.88223" lon="6.37747">
        <ele>1036.1</ele>
        <time>2021-08-14T09:47:26Z</time>
      </trkpt>
      <trkpt lat="46.88222" lon="6.37747">
        <ele>1036.2</ele>
        <time>2021-08-14T09:47:28Z</time>
      </trkpt>
      <trkpt lat="46.88222" lon="6.37748">
        <ele>1036.3</ele>
        <time>2021-08-14T09:47:29Z</time>
      </trkpt>
      <trkpt lat="46.88222" lon="6.37748">
        <ele>1036.4</ele>
        <time>2021-08-14T09:47:31Z</time>
      </trkpt>
      <trkpt lat="46.88221" lon="6.37748">
        <ele>1036.5</ele>
        <time>2021-08-14T09:47:32Z</time>
      </trkpt>
      <trkpt lat="46.88221" lon="6.37748">
        <ele>1036.5</ele>
        <time>2021-08-14T09:47:34Z</time>
      </trkpt>
      <trkpt lat="46.88176" lon="6.37883">
        <ele>1052.7</ele>
        <time>2021-08-14T09:50:57Z</time>
      </trkpt>
      <trkpt lat="46.88173" lon="6.37889">
        <ele>1053.4</ele>
        <time>2021-08-14T09:50:59Z</time>
      </trkpt>
      <trkpt lat="46.88173" lon="6.37891">
        <ele>1053.6</ele>
        <time>2021-08-14T09:51:00Z</time>
      </trkpt>
      <trkpt lat="46.88171" lon="6.37899">
        <ele>1054.4</ele>
        <time>2021-08-14T09:51:02Z</time>
      </trkpt>
      <trkpt lat="46.88171" lon="6.379">
        <ele>1054.5</ele>
        <time>2021-08-14T09:51:03Z</time>
      </trkpt>
      <trkpt lat="46.88171" lon="6.37901">
        <ele>1054.6</ele>
        <time>2021-08-14T09:51:05Z</time>
      </trkpt>
      <trkpt lat="46.88171" lon="6.37901">
        <ele>1054.6</ele>
        <time>2021-08-14T09:51:07Z</time>
      </trkpt>
      <trkpt lat="46.88171" lon="6.37901">
        <ele>1054.7</ele>
        <time>2021-08-14T09:51:08Z</time>
      </trkpt>
      <trkpt lat="46.88171" lon="6.37901">
        <ele>1054.7</ele>
        <time>2021-08-14T09:51:10Z</time>
      </trkpt>
      <trkpt lat="46.8817" lon="6.37902">
        <ele>1054.7</ele>
        <time>2021-08-14T09:51:11Z</time>
      </trkpt>
      <trkpt lat="46.8817" lon="6.37902">
        <ele>1054.7</ele>
        <time>2021-08-14T09:51:13Z</time>
      </trkpt>
      <trkpt lat="46.8817" lon="6.37902">
        <ele>1054.7</ele>
        <time>2021-08-14T09:51:14Z</time>
      </trkpt>
      <trkpt lat="46.8817" lon="6.37901">
        <ele>1054.8</ele>
        <time>2021-08-14T09:51:15Z</time>
      </trkpt>
      <trkpt lat="46.88171" lon="6.37902">
        <ele>1054.9</ele>
        <time>2021-08-14T09:51:17Z</time>
      </trkpt>
      <trkpt lat="46.88173" lon="6.37903">
        <ele>1055.2</ele>
        <time>2021-08-14T09:51:19Z</time>
      </trkpt>
      <trkpt lat="46.88174" lon="6.37903">
        <ele>1055.3</ele>
        <time>2021-08-14T09:51:20Z</time>
      </trkpt>
      <trkpt lat="46.88174" lon="6.37904">
        <ele>1055.4</ele>
        <time>2021-08-14T09:51:21Z</time>
      </trkpt>
      <trkpt lat="46.88174" lon="6.37907">
        <ele>1055.6</ele>
        <time>2021-08-14T09:51:23Z</time>
      </trkpt>
      <trkpt lat="46.88174" lon="6.37909">
        <ele>1055.8</ele>
        <time>2021-08-14T09:51:24Z</time>
      </trkpt>
      <trkpt lat="46.88174" lon="6.37911">
        <ele>1055.9</ele>
        <time>2021-08-14T09:51:25Z</time>
      </trkpt>
      <trkpt lat="46.88174" lon="6.37912">
        <ele>1056</ele>
        <time>2021-08-14T09:51:27Z</time>
      </trkpt>
      <trkpt lat="46.88174" lon="6.37913">
        <ele>1056.6</ele>
        <time>2021-08-14T09:51:28Z</time>
      </trkpt>
      <trkpt lat="46.88174" lon="6.37914">
        <ele>1056.6</ele>
        <time>2021-08-14T09:51:30Z</time>
      </trkpt>
      <trkpt lat="46.88174" lon="6.37915">
        <ele>1056.6</ele>
        <time>2021-08-14T09:51:31Z</time>
      </trkpt>
      <trkpt lat="46.88174" lon="6.37916">
        <ele>1056.5</ele>
        <time>2021-08-14T09:51:32Z</time>
      </trkpt>
      <trkpt lat="46.88174" lon="6.37918">
        <ele>1056.5</ele>
        <time>2021-08-14T09:51:33Z</time>
      </trkpt>
      <trkpt lat="46.88175" lon="6.37919">
        <ele>1056.5</ele>
        <time>2021-08-14T09:51:34Z</time>
      </trkpt>
      <trkpt lat="46.88176" lon="6.3792">
        <ele>1056.4</ele>
        <time>2021-08-14T09:51:36Z</time>
      </trkpt>
      <trkpt lat="46.88178" lon="6.37923">
        <ele>1056.4</ele>
        <time>2021-08-14T09:51:37Z</time>
      </trkpt>
      <trkpt lat="46.88184" lon="6.37935">
        <ele>1056.1</ele>
        <time>2021-08-14T09:51:38Z</time>
      </trkpt>
      <trkpt lat="46.88185" lon="6.37943">
        <ele>1055.9</ele>
        <time>2021-08-14T09:51:39Z</time>
      </trkpt>
      <trkpt lat="46.88185" lon="6.37953">
        <ele>1055.7</ele>
        <time>2021-08-14T09:51:41Z</time>
      </trkpt>
      <trkpt lat="46.88184" lon="6.37963">
        <ele>1055.6</ele>
        <time>2021-08-14T09:51:42Z</time>
      </trkpt>
      <trkpt lat="46.88181" lon="6.37973">
        <ele>1055.3</ele>
        <time>2021-08-14T09:51:43Z</time>
      </trkpt>
      <trkpt lat="46.88178" lon="6.37978">
        <ele>1055.2</ele>
        <time>2021-08-14T09:51:44Z</time>
      </trkpt>
      <trkpt lat="46.88175" lon="6.37983">
        <ele>1055.1</ele>
        <time>2021-08-14T09:51:46Z</time>
      </trkpt>
      <trkpt lat="46.88173" lon="6.37987">
        <ele>1055</ele>
        <time>2021-08-14T09:51:47Z</time>
      </trkpt>
      <trkpt lat="46.88173" lon="6.37988">
        <ele>1055</ele>
        <time>2021-08-14T09:51:48Z</time>
      </trkpt>
      <trkpt lat="46.88175" lon="6.37988">
        <ele>1054.9</ele>
        <time>2021-08-14T09:51:49Z</time>
      </trkpt>
      <trkpt lat="46.88176" lon="6.37988">
        <ele>1054.9</ele>
        <time>2021-08-14T09:51:50Z</time>
      </trkpt>
      <trkpt lat="46.88175" lon="6.3799">
        <ele>1054.8</ele>
        <time>2021-08-14T09:51:52Z</time>
      </trkpt>
      <trkpt lat="46.88174" lon="6.37992">
        <ele>1054.8</ele>
        <time>2021-08-14T09:51:53Z</time>
      </trkpt>
      <trkpt lat="46.88173" lon="6.37994">
        <ele>1054.8</ele>
        <time>2021-08-14T09:51:54Z</time>
      </trkpt>
      <trkpt lat="46.8817" lon="6.37997">
        <ele>1054.7</ele>
        <time>2021-08-14T09:51:56Z</time>
      </trkpt>
      <trkpt lat="46.88165" lon="6.37999">
        <ele>1054.5</ele>
        <time>2021-08-14T09:51:57Z</time>
      </trkpt>
      <trkpt lat="46.8816" lon="6.38001">
        <ele>1054.4</ele>
        <time>2021-08-14T09:51:58Z</time>
      </trkpt>
      <trkpt lat="46.88156" lon="6.38003">
        <ele>1054.3</ele>
        <time>2021-08-14T09:51:59Z</time>
      </trkpt>
      <trkpt lat="46.88147" lon="6.38006">
        <ele>1054.1</ele>
        <time>2021-08-14T09:52:01Z</time>
      </trkpt>
      <trkpt lat="46.88143" lon="6.38006">
        <ele>1054</ele>
        <time>2021-08-14T09:52:02Z</time>
      </trkpt>
      <trkpt lat="46.8814" lon="6.38008">
        <ele>1054</ele>
        <time>2021-08-14T09:52:03Z</time>
      </trkpt>
      <trkpt lat="46.88138" lon="6.3801">
        <ele>1054</ele>
        <time>2021-08-14T09:52:04Z</time>
      </trkpt>
      <trkpt lat="46.88135" lon="6.38013">
        <ele>1053.9</ele>
        <time>2021-08-14T09:52:06Z</time>
      </trkpt>
      <trkpt lat="46.88135" lon="6.38013">
        <ele>1053.9</ele>
        <time>2021-08-14T09:52:07Z</time>
      </trkpt>
      <trkpt lat="46.88133" lon="6.38013">
        <ele>1053.9</ele>
        <time>2021-08-14T09:52:08Z</time>
      </trkpt>
      <trkpt lat="46.88131" lon="6.38012">
        <ele>1053.8</ele>
        <time>2021-08-14T09:52:10Z</time>
      </trkpt>
      <trkpt lat="46.88129" lon="6.38011">
        <ele>1053.8</ele>
        <time>2021-08-14T09:52:11Z</time>
      </trkpt>
      <trkpt lat="46.88129" lon="6.3801">
        <ele>1053.8</ele>
        <time>2021-08-14T09:52:13Z</time>
      </trkpt>
      <trkpt lat="46.8806" lon="6.37895">
        <ele>1050.9</ele>
        <time>2021-08-14T09:52:36Z</time>
      </trkpt>
      <trkpt lat="46.88053" lon="6.3789">
        <ele>1050.6</ele>
        <time>2021-08-14T09:52:38Z</time>
      </trkpt>
      <trkpt lat="46.88041" lon="6.37884">
        <ele>1050</ele>
        <time>2021-08-14T09:52:39Z</time>
      </trkpt>
      <trkpt lat="46.88019" lon="6.37878">
        <ele>1048.6</ele>
        <time>2021-08-14T09:52:41Z</time>
      </trkpt>
      <trkpt lat="46.88002" lon="6.3788">
        <ele>1047.5</ele>
        <time>2021-08-14T09:52:43Z</time>
      </trkpt>
      <trkpt lat="46.87995" lon="6.37883">
        <ele>1047.1</ele>
        <time>2021-08-14T09:52:44Z</time>
      </trkpt>
      <trkpt lat="46.8798" lon="6.37884">
        <ele>1046.3</ele>
        <time>2021-08-14T09:52:46Z</time>
      </trkpt>
      <trkpt lat="46.87973" lon="6.37883">
        <ele>1046</ele>
        <time>2021-08-14T09:52:47Z</time>
      </trkpt>
      <trkpt lat="46.87966" lon="6.37883">
        <ele>1045.6</ele>
        <time>2021-08-14T09:52:48Z</time>
      </trkpt>
      <trkpt lat="46.87953" lon="6.37884">
        <ele>1044.9</ele>
        <time>2021-08-14T09:52:50Z</time>
      </trkpt>
      <trkpt lat="46.8794" lon="6.37885">
        <ele>1044.1</ele>
        <time>2021-08-14T09:52:52Z</time>
      </trkpt>
      <trkpt lat="46.87932" lon="6.37885">
        <ele>1043.7</ele>
        <time>2021-08-14T09:52:53Z</time>
      </trkpt>
      <trkpt lat="46.87925" lon="6.37884">
        <ele>1043.2</ele>
        <time>2021-08-14T09:52:54Z</time>
      </trkpt>
      <trkpt lat="46.87909" lon="6.37881">
        <ele>1042.3</ele>
        <time>2021-08-14T09:52:56Z</time>
      </trkpt>
      <trkpt lat="46.87892" lon="6.37879">
        <ele>1041.3</ele>
        <time>2021-08-14T09:52:58Z</time>
      </trkpt>
      <trkpt lat="46.87878" lon="6.37875">
        <ele>1040.3</ele>
        <time>2021-08-14T09:53:00Z</time>
      </trkpt>
      <trkpt lat="46.87874" lon="6.37872">
        <ele>1040.1</ele>
        <time>2021-08-14T09:53:02Z</time>
      </trkpt>
      <trkpt lat="46.87869" lon="6.37869">
        <ele>1039.8</ele>
        <time>2021-08-14T09:53:03Z</time>
      </trkpt>
      <trkpt lat="46.87859" lon="6.37862">
        <ele>1039.2</ele>
        <time>2021-08-14T09:53:05Z</time>
      </trkpt>
      <trkpt lat="46.87854" lon="6.37859">
        <ele>1038.8</ele>
        <time>2021-08-14T09:53:06Z</time>
      </trkpt>
      <trkpt lat="46.87853" lon="6.37858">
        <ele>1038.8</ele>
        <time>2021-08-14T09:53:07Z</time>
      </trkpt>
      <trkpt lat="46.87852" lon="6.37858">
        <ele>1038.7</ele>
        <time>2021-08-14T09:53:08Z</time>
      </trkpt>
      <trkpt lat="46.87848" lon="6.37854">
        <ele>1038.4</ele>
        <time>2021-08-14T09:53:10Z</time>
      </trkpt>
      <trkpt lat="46.87656" lon="6.37839">
        <ele>1026.6</ele>
        <time>2021-08-14T09:55:39Z</time>
      </trkpt>
      <trkpt lat="46.87657" lon="6.37844">
        <ele>1025.7</ele>
        <time>2021-08-14T09:55:40Z</time>
      </trkpt>
      <trkpt lat="46.87666" lon="6.37852">
        <ele>1024.7</ele>
        <time>2021-08-14T09:55:42Z</time>
      </trkpt>
      <trkpt lat="46.87683" lon="6.37874">
        <ele>1022.2</ele>
        <time>2021-08-14T09:55:44Z</time>
      </trkpt>
      <trkpt lat="46.8769" lon="6.37892">
        <ele>1020.6</ele>
        <time>2021-08-14T09:55:46Z</time>
      </trkpt>
      <trkpt lat="46.8769" lon="6.37904">
        <ele>1019.7</ele>
        <time>2021-08-14T09:55:47Z</time>
      </trkpt>
      <trkpt lat="46.87691" lon="6.37924">
        <ele>1018.2</ele>
        <time>2021-08-14T09:55:49Z</time>
      </trkpt>
      <trkpt lat="46.87692" lon="6.37934">
        <ele>1017.5</ele>
        <time>2021-08-14T09:55:50Z</time>
      </trkpt>
      <trkpt lat="46.87693" lon="6.37943">
        <ele>1016.8</ele>
        <time>2021-08-14T09:55:51Z</time>
      </trkpt>
      <trkpt lat="46.87693" lon="6.37959">
        <ele>1015.7</ele>
        <time>2021-08-14T09:55:53Z</time>
      </trkpt>
      <trkpt lat="46.87691" lon="6.37967">
        <ele>1015.1</ele>
        <time>2021-08-14T09:55:54Z</time>
      </trkpt>
      <trkpt lat="46.8769" lon="6.37975">
        <ele>1014.4</ele>
        <time>2021-08-14T09:55:55Z</time>
      </trkpt>
      <trkpt lat="46.87689" lon="6.37984">
        <ele>1013.8</ele>
        <time>2021-08-14T09:55:56Z</time>
      </trkpt>
      <trkpt lat="46.87686" lon="6.38">
        <ele>1012.7</ele>
        <time>2021-08-14T09:55:58Z</time>
      </trkpt>
      <trkpt lat="46.87685" lon="6.38007">
        <ele>1012.2</ele>
        <time>2021-08-14T09:55:59Z</time>
      </trkpt>
      <trkpt lat="46.87684" lon="6.38013">
        <ele>1011.8</ele>
        <time>2021-08-14T09:56:00Z</time>
      </trkpt>
      <trkpt lat="46.87682" lon="6.38019">
        <ele>1011.3</ele>
        <time>2021-08-14T09:56:01Z</time>
      </trkpt>
      <trkpt lat="46.87681" lon="6.38022">
        <ele>1011.1</ele>
        <time>2021-08-14T09:56:02Z</time>
      </trkpt>
      <trkpt lat="46.87677" lon="6.38034">
        <ele>1010.1</ele>
        <time>2021-08-14T09:56:04Z</time>
      </trkpt>
      <trkpt lat="46.87673" lon="6.38046">
        <ele>1009</ele>
        <time>2021-08-14T09:56:06Z</time>
      </trkpt>
      <trkpt lat="46.87672" lon="6.38054">
        <ele>1008.4</ele>
        <time>2021-08-14T09:56:07Z</time>
      </trkpt>
      <trkpt lat="46.8767" lon="6.38061">
        <ele>1007.8</ele>
        <time>2021-08-14T09:56:08Z</time>
      </trkpt>
      <trkpt lat="46.87667" lon="6.3807">
        <ele>1006.9</ele>
        <time>2021-08-14T09:56:10Z</time>
      </trkpt>
      <trkpt lat="46.87663" lon="6.3807">
        <ele>1006.6</ele>
        <time>2021-08-14T09:56:11Z</time>
      </trkpt>
      <trkpt lat="46.87661" lon="6.38073">
        <ele>1006.3</ele>
        <time>2021-08-14T09:56:12Z</time>
      </trkpt>
      <trkpt lat="46.87655" lon="6.3808">
        <ele>1005.5</ele>
        <time>2021-08-14T09:56:13Z</time>
      </trkpt>
      <trkpt lat="46.87651" lon="6.38083">
        <ele>1005</ele>
        <time>2021-08-14T09:56:14Z</time>
      </trkpt>
      <trkpt lat="46.87645" lon="6.38085">
        <ele>1004.5</ele>
        <time>2021-08-14T09:56:16Z</time>
      </trkpt>
      <trkpt lat="46.87635" lon="6.38082">
        <ele>1003.6</ele>
        <time>2021-08-14T09:56:17Z</time>
      </trkpt>
      <trkpt lat="46.87625" lon="6.38078">
        <ele>1002.7</ele>
        <time>2021-08-14T09:56:18Z</time>
      </trkpt>
      <trkpt lat="46.87617" lon="6.38072">
        <ele>1001.9</ele>
        <time>2021-08-14T09:56:20Z</time>
      </trkpt>
      <trkpt lat="46.8761" lon="6.38062">
        <ele>1000.9</ele>
        <time>2021-08-14T09:56:21Z</time>
      </trkpt>
      <trkpt lat="46.87606" lon="6.38056">
        <ele>1000.3</ele>
        <time>2021-08-14T09:56:22Z</time>
      </trkpt>
      <trkpt lat="46.87599" lon="6.38045">
        <ele>999.2</ele>
        <time>2021-08-14T09:56:24Z</time>
      </trkpt>
      <trkpt lat="46.87593" lon="6.38034">
        <ele>998.2</ele>
        <time>2021-08-14T09:56:26Z</time>
      </trkpt>
      <trkpt lat="46.87588" lon="6.38023">
        <ele>997.4</ele>
        <time>2021-08-14T09:56:28Z</time>
      </trkpt>
      <trkpt lat="46.87589" lon="6.38016">
        <ele>997</ele>
        <time>2021-08-14T09:56:29Z</time>
      </trkpt>
      <trkpt lat="46.87584" lon="6.38002">
        <ele>996.1</ele>
        <time>2021-08-14T09:56:31Z</time>
      </trkpt>
      <trkpt lat="46.87583" lon="6.37995">
        <ele>995.8</ele>
        <time>2021-08-14T09:56:32Z</time>
      </trkpt>
      <trkpt lat="46.87578" lon="6.37981">
        <ele>995.2</ele>
        <time>2021-08-14T09:56:34Z</time>
      </trkpt>
      <trkpt lat="46.87577" lon="6.37973">
        <ele>994.8</ele>
        <time>2021-08-14T09:56:35Z</time>
      </trkpt>
      <trkpt lat="46.87574" lon="6.37958">
        <ele>994.2</ele>
        <time>2021-08-14T09:56:37Z</time>
      </trkpt>
      <trkpt lat="46.87572" lon="6.37951">
        <ele>993.9</ele>
        <time>2021-08-14T09:56:38Z</time>
      </trkpt>
      <trkpt lat="46.87566" lon="6.37938">
        <ele>993.3</ele>
        <time>2021-08-14T09:56:40Z</time>
      </trkpt>
      <trkpt lat="46.87558" lon="6.37927">
        <ele>992.6</ele>
        <time>2021-08-14T09:56:42Z</time>
      </trkpt>
      <trkpt lat="46.87554" lon="6.37925">
        <ele>992.2</ele>
        <time>2021-08-14T09:56:43Z</time>
      </trkpt>
      <trkpt lat="46.87547" lon="6.37921">
        <ele>991.5</ele>
        <time>2021-08-14T09:56:44Z</time>
      </trkpt>
      <trkpt lat="46.87543" lon="6.37922">
        <ele>991</ele>
        <time>2021-08-14T09:56:46Z</time>
      </trkpt>
      <trkpt lat="46.87538" lon="6.37922">
        <ele>990.5</ele>
        <time>2021-08-14T09:56:47Z</time>
      </trkpt>
      <trkpt lat="46.87528" lon="6.3792">
        <ele>989.4</ele>
        <time>2021-08-14T09:56:49Z</time>
      </trkpt>
      <trkpt lat="46.87524" lon="6.37919">
        <ele>988.8</ele>
        <time>2021-08-14T09:56:50Z</time>
      </trkpt>
      <trkpt lat="46.87515" lon="6.37916">
        <ele>987.8</ele>
        <time>2021-08-14T09:56:52Z</time>
      </trkpt>
      <trkpt lat="46.87509" lon="6.37912">
        <ele>987</ele>
        <time>2021-08-14T09:56:54Z</time>
      </trkpt>
      <trkpt lat="46.87505" lon="6.3791">
        <ele>986.6</ele>
        <time>2021-08-14T09:56:55Z</time>
      </trkpt>
      <trkpt lat="46.87498" lon="6.37905">
        <ele>985.7</ele>
        <time>2021-08-14T09:56:57Z</time>
      </trkpt>
      <trkpt lat="46.87492" lon="6.37902">
        <ele>985</ele>
        <time>2021-08-14T09:56:59Z</time>
      </trkpt>
      <trkpt lat="46.87488" lon="6.37899">
        <ele>984.5</ele>
        <time>2021-08-14T09:57:00Z</time>
      </trkpt>
      <trkpt lat="46.87484" lon="6.37897">
        <ele>984</ele>
        <time>2021-08-14T09:57:02Z</time>
      </trkpt>
      <trkpt lat="46.87481" lon="6.37895">
        <ele>983.6</ele>
        <time>2021-08-14T09:57:03Z</time>
      </trkpt>
      <trkpt lat="46.87477" lon="6.37893">
        <ele>983.1</ele>
        <time>2021-08-14T09:57:05Z</time>
      </trkpt>
      <trkpt lat="46.87476" lon="6.37891">
        <ele>983</ele>
        <time>2021-08-14T09:57:07Z</time>
      </trkpt>
      <trkpt lat="46.87476" lon="6.37889">
        <ele>982.8</ele>
        <time>2021-08-14T09:57:08Z</time>
      </trkpt>
      <trkpt lat="46.87475" lon="6.37887">
        <ele>982.6</ele>
        <time>2021-08-14T09:57:09Z</time>
      </trkpt>
      <trkpt lat="46.87475" lon="6.37885">
        <ele>982.5</ele>
        <time>2021-08-14T09:57:10Z</time>
      </trkpt>
      <trkpt lat="46.87474" lon="6.37883">
        <ele>982.3</ele>
        <time>2021-08-14T09:57:11Z</time>
      </trkpt>
      <trkpt lat="46.87474" lon="6.37881">
        <ele>982.1</ele>
        <time>2021-08-14T09:57:13Z</time>
      </trkpt>
      <trkpt lat="46.87473" lon="6.37879">
        <ele>982</ele>
        <time>2021-08-14T09:57:14Z</time>
      </trkpt>
      <trkpt lat="46.87473" lon="6.37877">
        <ele>981.8</ele>
        <time>2021-08-14T09:57:16Z</time>
      </trkpt>
      <trkpt lat="46.87472" lon="6.37875">
        <ele>981.6</ele>
        <time>2021-08-14T09:58:03Z</time>
      </trkpt>
      <trkpt lat="46.87472" lon="6.37873">
        <ele>981.4</ele>
        <time>2021-08-14T09:58:04Z</time>
      </trkpt>
      <trkpt lat="46.87463" lon="6.37878">
        <ele>980.3</ele>
        <time>2021-08-14T09:58:05Z</time>
      </trkpt>
      <trkpt lat="46.87449" lon="6.37887">
        <ele>978.6</ele>
        <time>2021-08-14T09:58:07Z</time>
      </trkpt>
      <trkpt lat="46.87442" lon="6.37891">
        <ele>977.8</ele>
        <time>2021-08-14T09:58:08Z</time>
      </trkpt>
      <trkpt lat="46.87436" lon="6.37896">
        <ele>977.1</ele>
        <time>2021-08-14T09:58:09Z</time>
      </trkpt>
      <trkpt lat="46.87432" lon="6.379">
        <ele>976.6</ele>
        <time>2021-08-14T09:58:11Z</time>
      </trkpt>
      <trkpt lat="46.87429" lon="6.37906">
        <ele>976.1</ele>
        <time>2021-08-14T09:58:12Z</time>
      </trkpt>
      <trkpt lat="46.87427" lon="6.37913">
        <ele>975.6</ele>
        <time>2021-08-14T09:58:13Z</time>
      </trkpt>
      <trkpt lat="46.87425" lon="6.37921">
        <ele>974.9</ele>
        <time>2021-08-14T09:58:15Z</time>
      </trkpt>
      <trkpt lat="46.87425" lon="6.3793">
        <ele>974.4</ele>
        <time>2021-08-14T09:58:16Z</time>
      </trkpt>
      <trkpt lat="46.87425" lon="6.3794">
        <ele>973.6</ele>
        <time>2021-08-14T09:58:18Z</time>
      </trkpt>
      <trkpt lat="46.87425" lon="6.37952">
        <ele>972.8</ele>
        <time>2021-08-14T09:58:19Z</time>
      </trkpt>
      <trkpt lat="46.87425" lon="6.37961">
        <ele>972.2</ele>
        <time>2021-08-14T09:58:21Z</time>
      </trkpt>
      <trkpt lat="46.87426" lon="6.3797">
        <ele>971.6</ele>
        <time>2021-08-14T09:58:22Z</time>
      </trkpt>
      <trkpt lat="46.87426" lon="6.37977">
        <ele>971</ele>
        <time>2021-08-14T09:58:23Z</time>
      </trkpt>
      <trkpt lat="46.87426" lon="6.37985">
        <ele>970.5</ele>
        <time>2021-08-14T09:58:24Z</time>
      </trkpt>
      <trkpt lat="46.87427" lon="6.37992">
        <ele>970</ele>
        <time>2021-08-14T09:58:25Z</time>
      </trkpt>
      <trkpt lat="46.87428" lon="6.37999">
        <ele>969.6</ele>
        <time>2021-08-14T09:58:26Z</time>
      </trkpt>
      <trkpt lat="46.87429" lon="6.38013">
        <ele>968.6</ele>
        <time>2021-08-14T09:58:28Z</time>
      </trkpt>
      <trkpt lat="46.87429" lon="6.38024">
        <ele>967.8</ele>
        <time>2021-08-14T09:58:30Z</time>
      </trkpt>
      <trkpt lat="46.8743" lon="6.3803">
        <ele>967.4</ele>
        <time>2021-08-14T09:58:31Z</time>
      </trkpt>
      <trkpt lat="46.8743" lon="6.38039">
        <ele>966.8</ele>
        <time>2021-08-14T09:58:32Z</time>
      </trkpt>
      <trkpt lat="46.8743" lon="6.38049">
        <ele>966.1</ele>
        <time>2021-08-14T09:58:34Z</time>
      </trkpt>
      <trkpt lat="46.8743" lon="6.38056">
        <ele>965.6</ele>
        <time>2021-08-14T09:58:35Z</time>
      </trkpt>
      <trkpt lat="46.87428" lon="6.38059">
        <ele>965.3</ele>
        <time>2021-08-14T09:58:36Z</time>
      </trkpt>
      <trkpt lat="46.87428" lon="6.38066">
        <ele>964.8</ele>
        <time>2021-08-14T09:58:37Z</time>
      </trkpt>
      <trkpt lat="46.87429" lon="6.38073">
        <ele>964.3</ele>
        <time>2021-08-14T09:58:39Z</time>
      </trkpt>
      <trkpt lat="46.87429" lon="6.38081">
        <ele>963.6</ele>
        <time>2021-08-14T09:58:41Z</time>
      </trkpt>
      <trkpt lat="46.87427" lon="6.3809">
        <ele>962.9</ele>
        <time>2021-08-14T09:58:42Z</time>
      </trkpt>
      <trkpt lat="46.87426" lon="6.38097">
        <ele>962.3</ele>
        <time>2021-08-14T09:58:43Z</time>
      </trkpt>
      <trkpt lat="46.87426" lon="6.38104">
        <ele>961.8</ele>
        <time>2021-08-14T09:58:45Z</time>
      </trkpt>
      <trkpt lat="46.87426" lon="6.38111">
        <ele>961.2</ele>
        <time>2021-08-14T09:58:46Z</time>
      </trkpt>
      <trkpt lat="46.87426" lon="6.3812">
        <ele>960.5</ele>
        <time>2021-08-14T09:58:48Z</time>
      </trkpt>
      <trkpt lat="46.87426" lon="6.38131">
        <ele>959.7</ele>
        <time>2021-08-14T09:58:49Z</time>
      </trkpt>
      <trkpt lat="46.87426" lon="6.38139">
        <ele>959.1</ele>
        <time>2021-08-14T09:58:50Z</time>
      </trkpt>
      <trkpt lat="46.87426" lon="6.38151">
        <ele>958.3</ele>
        <time>2021-08-14T09:58:52Z</time>
      </trkpt>
      <trkpt lat="46.87427" lon="6.38158">
        <ele>957.8</ele>
        <time>2021-08-14T09:58:53Z</time>
      </trkpt>
      <trkpt lat="46.87428" lon="6.38163">
        <ele>957.4</ele>
        <time>2021-08-14T09:58:54Z</time>
      </trkpt>
      <trkpt lat="46.87431" lon="6.38175">
        <ele>956.5</ele>
        <time>2021-08-14T09:58:56Z</time>
      </trkpt>
      <trkpt lat="46.87432" lon="6.38184">
        <ele>955.8</ele>
        <time>2021-08-14T09:58:57Z</time>
      </trkpt>
      <trkpt lat="46.87432" lon="6.38191">
        <ele>955.3</ele>
        <time>2021-08-14T09:58:58Z</time>
      </trkpt>
      <trkpt lat="46.87433" lon="6.38197">
        <ele>954.9</ele>
        <time>2021-08-14T09:58:59Z</time>
      </trkpt>
      <trkpt lat="46.87434" lon="6.38204">
        <ele>954.4</ele>
        <time>2021-08-14T09:59:01Z</time>
      </trkpt>
      <trkpt lat="46.87434" lon="6.3821">
        <ele>954</ele>
        <time>2021-08-14T09:59:02Z</time>
      </trkpt>
      <trkpt lat="46.87435" lon="6.38216">
        <ele>953.6</ele>
        <time>2021-08-14T09:59:04Z</time>
      </trkpt>
      <trkpt lat="46.87435" lon="6.3822">
        <ele>953.3</ele>
        <time>2021-08-14T09:59:05Z</time>
      </trkpt>
      <trkpt lat="46.87435" lon="6.38226">
        <ele>952.8</ele>
        <time>2021-08-14T09:59:06Z</time>
      </trkpt>
      <trkpt lat="46.87436" lon="6.38229">
        <ele>952.6</ele>
        <time>2021-08-14T09:59:07Z</time>
      </trkpt>
      <trkpt lat="46.87437" lon="6.38233">
        <ele>952.3</ele>
        <time>2021-08-14T09:59:08Z</time>
      </trkpt>
      <trkpt lat="46.87437" lon="6.38236">
        <ele>952.1</ele>
        <time>2021-08-14T09:59:09Z</time>
      </trkpt>
      <trkpt lat="46.87437" lon="6.3824">
        <ele>951.8</ele>
        <time>2021-08-14T09:59:11Z</time>
      </trkpt>
      <trkpt lat="46.87439" lon="6.38246">
        <ele>951.3</ele>
        <time>2021-08-14T09:59:12Z</time>
      </trkpt>
      <trkpt lat="46.87441" lon="6.38251">
        <ele>950.8</ele>
        <time>2021-08-14T09:59:14Z</time>
      </trkpt>
      <trkpt lat="46.87443" lon="6.38256">
        <ele>950.4</ele>
        <time>2021-08-14T09:59:15Z</time>
      </trkpt>
      <trkpt lat="46.87443" lon="6.38261">
        <ele>950.1</ele>
        <time>2021-08-14T09:59:16Z</time>
      </trkpt>
      <trkpt lat="46.87444" lon="6.38267">
        <ele>949.6</ele>
        <time>2021-08-14T09:59:17Z</time>
      </trkpt>
      <trkpt lat="46.87445" lon="6.38271">
        <ele>949.3</ele>
        <time>2021-08-14T09:59:19Z</time>
      </trkpt>
      <trkpt lat="46.87447" lon="6.38276">
        <ele>949</ele>
        <time>2021-08-14T09:59:21Z</time>
      </trkpt>
      <trkpt lat="46.87447" lon="6.38281">
        <ele>948.7</ele>
        <time>2021-08-14T09:59:23Z</time>
      </trkpt>
      <trkpt lat="46.87448" lon="6.38282">
        <ele>948.6</ele>
        <time>2021-08-14T09:59:25Z</time>
      </trkpt>
      <trkpt lat="46.87448" lon="6.38283">
        <ele>948.5</ele>
        <time>2021-08-14T09:59:26Z</time>
      </trkpt>
      <trkpt lat="46.87448" lon="6.38283">
        <ele>948.5</ele>
        <time>2021-08-14T09:59:28Z</time>
      </trkpt>
      <trkpt lat="46.87448" lon="6.38283">
        <ele>948.5</ele>
        <time>2021-08-14T09:59:29Z</time>
      </trkpt>
      <trkpt lat="46.87448" lon="6.38283">
        <ele>948.5</ele>
        <time>2021-08-14T09:59:30Z</time>
      </trkpt>
      <trkpt lat="46.87448" lon="6.38283">
        <ele>948.5</ele>
        <time>2021-08-14T09:59:32Z</time>
      </trkpt>
      <trkpt lat="46.87448" lon="6.38283">
        <ele>948.5</ele>
        <time>2021-08-14T09:59:34Z</time>
      </trkpt>
      <trkpt lat="46.87429" lon="6.38283">
        <ele>946.5</ele>
        <time>2021-08-14T09:59:40Z</time>
      </trkpt>
      <trkpt lat="46.87427" lon="6.38279">
        <ele>946.1</ele>
        <time>2021-08-14T09:59:41Z</time>
      </trkpt>
      <trkpt lat="46.87422" lon="6.38271">
        <ele>945.3</ele>
        <time>2021-08-14T09:59:43Z</time>
      </trkpt>
      <trkpt lat="46.8742" lon="6.38267">
        <ele>944.9</ele>
        <time>2021-08-14T09:59:44Z</time>
      </trkpt>
      <trkpt lat="46.87417" lon="6.38262">
        <ele>944.4</ele>
        <time>2021-08-14T09:59:46Z</time>
      </trkpt>
      <trkpt lat="46.87413" lon="6.38255">
        <ele>943.8</ele>
        <time>2021-08-14T09:59:48Z</time>
      </trkpt>
      <trkpt lat="46.87412" lon="6.38251">
        <ele>943.4</ele>
        <time>2021-08-14T09:59:49Z</time>
      </trkpt>
      <trkpt lat="46.87411" lon="6.38247">
        <ele>943.1</ele>
        <time>2021-08-14T09:59:50Z</time>
      </trkpt>
      <trkpt lat="46.87406" lon="6.38242">
        <ele>942.5</ele>
        <time>2021-08-14T09:59:52Z</time>
      </trkpt>
      <trkpt lat="46.874" lon="6.38238">
        <ele>941.8</ele>
        <time>2021-08-14T09:59:54Z</time>
      </trkpt>
      <trkpt lat="46.87396" lon="6.38235">
        <ele>941.3</ele>
        <time>2021-08-14T09:59:56Z</time>
      </trkpt>
      <trkpt lat="46.87391" lon="6.3823">
        <ele>940.6</ele>
        <time>2021-08-14T09:59:58Z</time>
      </trkpt>
      <trkpt lat="46.87386" lon="6.38222">
        <ele>939.9</ele>
        <time>2021-08-14T10:00:00Z</time>
      </trkpt>
      <trkpt lat="46.87383" lon="6.38216">
        <ele>939.4</ele>
        <time>2021-08-14T10:00:02Z</time>
      </trkpt>
      <trkpt lat="46.8738" lon="6.38209">
        <ele>938.8</ele>
        <time>2021-08-14T10:00:04Z</time>
      </trkpt>
      <trkpt lat="46.87379" lon="6.38204">
        <ele>938.4</ele>
        <time>2021-08-14T10:00:05Z</time>
      </trkpt>
      <trkpt lat="46.87378" lon="6.38203">
        <ele>938.3</ele>
        <time>2021-08-14T10:00:06Z</time>
      </trkpt>
      <trkpt lat="46.87375" lon="6.38195">
        <ele>937.7</ele>
        <time>2021-08-14T10:00:08Z</time>
      </trkpt>
      <trkpt lat="46.87374" lon="6.3819">
        <ele>937.3</ele>
        <time>2021-08-14T10:00:09Z</time>
      </trkpt>
      <trkpt lat="46.87372" lon="6.38176">
        <ele>936.4</ele>
        <time>2021-08-14T10:00:11Z</time>
      </trkpt>
      <trkpt lat="46.87372" lon="6.38166">
        <ele>935.7</ele>
        <time>2021-08-14T10:00:12Z</time>
      </trkpt>
      <trkpt lat="46.87373" lon="6.38157">
        <ele>935</ele>
        <time>2021-08-14T10:00:13Z</time>
      </trkpt>
      <trkpt lat="46.87372" lon="6.3815">
        <ele>934.5</ele>
        <time>2021-08-14T10:00:14Z</time>
      </trkpt>
      <trkpt lat="46.87371" lon="6.38143">
        <ele>934</ele>
        <time>2021-08-14T10:00:15Z</time>
      </trkpt>
      <trkpt lat="46.87371" lon="6.38131">
        <ele>933.2</ele>
        <time>2021-08-14T10:00:17Z</time>
      </trkpt>
      <trkpt lat="46.87371" lon="6.38126">
        <ele>932.8</ele>
        <time>2021-08-14T10:00:18Z</time>
      </trkpt>
      <trkpt lat="46.87371" lon="6.38113">
        <ele>932</ele>
        <time>2021-08-14T10:00:20Z</time>
      </trkpt>
      <trkpt lat="46.8737" lon="6.38105">
        <ele>931.4</ele>
        <time>2021-08-14T10:00:21Z</time>
      </trkpt>
      <trkpt lat="46.87364" lon="6.3809">
        <ele>930.1</ele>
        <time>2021-08-14T10:00:23Z</time>
      </trkpt>
      <trkpt lat="46.87361" lon="6.38081">
        <ele>929.4</ele>
        <time>2021-08-14T10:00:24Z</time>
      </trkpt>
      <trkpt lat="46.87353" lon="6.38064">
        <ele>927.8</ele>
        <time>2021-08-14T10:00:26Z</time>
      </trkpt>
      <trkpt lat="46.87347" lon="6.38051">
        <ele>926.6</ele>
        <time>2021-08-14T10:00:28Z</time>
      </trkpt>
      <trkpt lat="46.87345" lon="6.38043">
        <ele>926</ele>
        <time>2021-08-14T10:00:29Z</time>
      </trkpt>
      <trkpt lat="46.87339" lon="6.38029">
        <ele>924.8</ele>
        <time>2021-08-14T10:00:31Z</time>
      </trkpt>
      <trkpt lat="46.87337" lon="6.38022">
        <ele>924.2</ele>
        <time>2021-08-14T10:00:32Z</time>
      </trkpt>
      <trkpt lat="46.87336" lon="6.38014">
        <ele>923.6</ele>
        <time>2021-08-14T10:00:33Z</time>
      </trkpt>
      <trkpt lat="46.87334" lon="6.38002">
        <ele>922.5</ele>
        <time>2021-08-14T10:00:35Z</time>
      </trkpt>
      <trkpt lat="46.87333" lon="6.37995">
        <ele>920.9</ele>
        <time>2021-08-14T10:00:36Z</time>
      </trkpt>
      <trkpt lat="46.87331" lon="6.37988">
        <ele>920.6</ele>
        <time>2021-08-14T10:00:38Z</time>
      </trkpt>
      <trkpt lat="46.87329" lon="6.37989">
        <ele>920.5</ele>
        <time>2021-08-14T10:00:39Z</time>
      </trkpt>
      <trkpt lat="46.87329" lon="6.37997">
        <ele>920.3</ele>
        <time>2021-08-14T10:00:41Z</time>
      </trkpt>
      <trkpt lat="46.87328" lon="6.38006">
        <ele>920</ele>
        <time>2021-08-14T10:00:43Z</time>
      </trkpt>
      <trkpt lat="46.87329" lon="6.38009">
        <ele>919.9</ele>
        <time>2021-08-14T10:00:44Z</time>
      </trkpt>
      <trkpt lat="46.87331" lon="6.38017">
        <ele>919.6</ele>
        <time>2021-08-14T10:00:46Z</time>
      </trkpt>
      <trkpt lat="46.87331" lon="6.38022">
        <ele>919.3</ele>
        <time>2021-08-14T10:00:47Z</time>
      </trkpt>
      <trkpt lat="46.87331" lon="6.38036">
        <ele>918.4</ele>
        <time>2021-08-14T10:00:49Z</time>
      </trkpt>
      <trkpt lat="46.87331" lon="6.38043">
        <ele>917.9</ele>
        <time>2021-08-14T10:00:50Z</time>
      </trkpt>
      <trkpt lat="46.87331" lon="6.38052">
        <ele>917.3</ele>
        <time>2021-08-14T10:00:51Z</time>
      </trkpt>
      <trkpt lat="46.87332" lon="6.38069">
        <ele>916.1</ele>
        <time>2021-08-14T10:00:53Z</time>
      </trkpt>
      <trkpt lat="46.87332" lon="6.38078">
        <ele>915.5</ele>
        <time>2021-08-14T10:00:54Z</time>
      </trkpt>
      <trkpt lat="46.87334" lon="6.38095">
        <ele>914.3</ele>
        <time>2021-08-14T10:00:56Z</time>
      </trkpt>
      <trkpt lat="46.87335" lon="6.38104">
        <ele>913.6</ele>
        <time>2021-08-14T10:00:57Z</time>
      </trkpt>
      <trkpt lat="46.87335" lon="6.38122">
        <ele>912.2</ele>
        <time>2021-08-14T10:00:59Z</time>
      </trkpt>
      <trkpt lat="46.87334" lon="6.38132">
        <ele>911.4</ele>
        <time>2021-08-14T10:01:00Z</time>
      </trkpt>
      <trkpt lat="46.87332" lon="6.38152">
        <ele>909.9</ele>
        <time>2021-08-14T10:01:02Z</time>
      </trkpt>
      <trkpt lat="46.87331" lon="6.38162">
        <ele>909.2</ele>
        <time>2021-08-14T10:01:03Z</time>
      </trkpt>
      <trkpt lat="46.87331" lon="6.38172">
        <ele>908.4</ele>
        <time>2021-08-14T10:01:04Z</time>
      </trkpt>
      <trkpt lat="46.87329" lon="6.38182">
        <ele>907.7</ele>
        <time>2021-08-14T10:01:05Z</time>
      </trkpt>
      <trkpt lat="46.87326" lon="6.382">
        <ele>906.3</ele>
        <time>2021-08-14T10:01:07Z</time>
      </trkpt>
      <trkpt lat="46.87323" lon="6.38209">
        <ele>905.6</ele>
        <time>2021-08-14T10:01:08Z</time>
      </trkpt>
      <trkpt lat="46.87322" lon="6.38228">
        <ele>904.1</ele>
        <time>2021-08-14T10:01:10Z</time>
      </trkpt>
      <trkpt lat="46.87322" lon="6.38238">
        <ele>903.3</ele>
        <time>2021-08-14T10:01:11Z</time>
      </trkpt>
      <trkpt lat="46.87326" lon="6.3826">
        <ele>901.6</ele>
        <time>2021-08-14T10:01:13Z</time>
      </trkpt>
      <trkpt lat="46.87328" lon="6.38281">
        <ele>900.1</ele>
        <time>2021-08-14T10:01:15Z</time>
      </trkpt>
      <trkpt lat="46.87328" lon="6.38291">
        <ele>899.5</ele>
        <time>2021-08-14T10:01:16Z</time>
      </trkpt>
      <trkpt lat="46.87327" lon="6.38307">
        <ele>898.4</ele>
        <time>2021-08-14T10:01:18Z</time>
      </trkpt>
      <trkpt lat="46.87328" lon="6.38314">
        <ele>897.9</ele>
        <time>2021-08-14T10:01:19Z</time>
      </trkpt>
      <trkpt lat="46.8733" lon="6.38327">
        <ele>897</ele>
        <time>2021-08-14T10:01:21Z</time>
      </trkpt>
      <trkpt lat="46.8733" lon="6.38331">
        <ele>896.7</ele>
        <time>2021-08-14T10:01:22Z</time>
      </trkpt>
      <trkpt lat="46.87329" lon="6.38337">
        <ele>896.2</ele>
        <time>2021-08-14T10:01:23Z</time>
      </trkpt>
      <trkpt lat="46.87326" lon="6.3834">
        <ele>895.7</ele>
        <time>2021-08-14T10:01:24Z</time>
      </trkpt>
      <trkpt lat="46.87322" lon="6.38338">
        <ele>895.1</ele>
        <time>2021-08-14T10:01:26Z</time>
      </trkpt>
      <trkpt lat="46.8732" lon="6.38334">
        <ele>894.6</ele>
        <time>2021-08-14T10:01:27Z</time>
      </trkpt>
      <trkpt lat="46.87315" lon="6.38322">
        <ele>893.4</ele>
        <time>2021-08-14T10:01:29Z</time>
      </trkpt>
      <trkpt lat="46.87313" lon="6.38314">
        <ele>892.7</ele>
        <time>2021-08-14T10:01:30Z</time>
      </trkpt>
      <trkpt lat="46.87308" lon="6.38299">
        <ele>891.4</ele>
        <time>2021-08-14T10:01:32Z</time>
      </trkpt>
      <trkpt lat="46.87307" lon="6.38291">
        <ele>890.8</ele>
        <time>2021-08-14T10:01:33Z</time>
      </trkpt>
      <trkpt lat="46.87305" lon="6.38277">
        <ele>889.7</ele>
        <time>2021-08-14T10:01:35Z</time>
      </trkpt>
      <trkpt lat="46.87305" lon="6.38271">
        <ele>889.3</ele>
        <time>2021-08-14T10:01:36Z</time>
      </trkpt>
      <trkpt lat="46.87303" lon="6.38255">
        <ele>888.2</ele>
        <time>2021-08-14T10:01:38Z</time>
      </trkpt>
      <trkpt lat="46.87302" lon="6.38248">
        <ele>887.6</ele>
        <time>2021-08-14T10:01:39Z</time>
      </trkpt>
      <trkpt lat="46.87296" lon="6.38231">
        <ele>886.2</ele>
        <time>2021-08-14T10:01:41Z</time>
      </trkpt>
      <trkpt lat="46.87293" lon="6.38222">
        <ele>885.5</ele>
        <time>2021-08-14T10:01:42Z</time>
      </trkpt>
      <trkpt lat="46.87289" lon="6.38206">
        <ele>884.1</ele>
        <time>2021-08-14T10:01:44Z</time>
      </trkpt>
      <trkpt lat="46.87286" lon="6.38188">
        <ele>882.6</ele>
        <time>2021-08-14T10:01:46Z</time>
      </trkpt>
      <trkpt lat="46.87282" lon="6.38171">
        <ele>881.3</ele>
        <time>2021-08-14T10:01:48Z</time>
      </trkpt>
      <trkpt lat="46.87279" lon="6.38157">
        <ele>880.4</ele>
        <time>2021-08-14T10:01:50Z</time>
      </trkpt>
      <trkpt lat="46.87277" lon="6.38152">
        <ele>880.2</ele>
        <time>2021-08-14T10:01:51Z</time>
      </trkpt>
      <trkpt lat="46.87274" lon="6.38144">
        <ele>879.7</ele>
        <time>2021-08-14T10:01:53Z</time>
      </trkpt>
      <trkpt lat="46.87271" lon="6.3814">
        <ele>879.3</ele>
        <time>2021-08-14T10:01:54Z</time>
      </trkpt>
      <trkpt lat="46.87268" lon="6.38132">
        <ele>878.6</ele>
        <time>2021-08-14T10:01:56Z</time>
      </trkpt>
      <trkpt lat="46.87266" lon="6.38122">
        <ele>877.9</ele>
        <time>2021-08-14T10:01:58Z</time>
      </trkpt>
      <trkpt lat="46.87265" lon="6.38117">
        <ele>877.5</ele>
        <time>2021-08-14T10:01:59Z</time>
      </trkpt>
      <trkpt lat="46.87265" lon="6.38116">
        <ele>877.4</ele>
        <time>2021-08-14T10:02:00Z</time>
      </trkpt>
      <trkpt lat="46.87267" lon="6.38108">
        <ele>876.7</ele>
        <time>2021-08-14T10:02:02Z</time>
      </trkpt>
      <trkpt lat="46.87266" lon="6.38104">
        <ele>876.5</ele>
        <time>2021-08-14T10:02:03Z</time>
      </trkpt>
      <trkpt lat="46.87266" lon="6.38098">
        <ele>875.9</ele>
        <time>2021-08-14T10:02:05Z</time>
      </trkpt>
      <trkpt lat="46.87267" lon="6.38093">
        <ele>875.6</ele>
        <time>2021-08-14T10:02:06Z</time>
      </trkpt>
      <trkpt lat="46.87266" lon="6.38089">
        <ele>875.3</ele>
        <time>2021-08-14T10:02:07Z</time>
      </trkpt>
      <trkpt lat="46.87265" lon="6.38081">
        <ele>874.7</ele>
        <time>2021-08-14T10:02:09Z</time>
      </trkpt>
      <trkpt lat="46.87266" lon="6.38074">
        <ele>874.1</ele>
        <time>2021-08-14T10:02:11Z</time>
      </trkpt>
      <trkpt lat="46.87265" lon="6.38068">
        <ele>873.7</ele>
        <time>2021-08-14T10:02:12Z</time>
      </trkpt>
      <trkpt lat="46.87262" lon="6.38056">
        <ele>872.8</ele>
        <time>2021-08-14T10:02:14Z</time>
      </trkpt>
      <trkpt lat="46.87261" lon="6.38052">
        <ele>872.5</ele>
        <time>2021-08-14T10:02:15Z</time>
      </trkpt>
      <trkpt lat="46.87259" lon="6.38048">
        <ele>872.2</ele>
        <time>2021-08-14T10:02:16Z</time>
      </trkpt>
      <trkpt lat="46.87257" lon="6.38045">
        <ele>871.9</ele>
        <time>2021-08-14T10:02:17Z</time>
      </trkpt>
      <trkpt lat="46.87257" lon="6.38044">
        <ele>871.8</ele>
        <time>2021-08-14T10:02:18Z</time>
      </trkpt>
      <trkpt lat="46.87253" lon="6.38041">
        <ele>871.3</ele>
        <time>2021-08-14T10:02:20Z</time>
      </trkpt>
      <trkpt lat="46.87252" lon="6.3804">
        <ele>871.2</ele>
        <time>2021-08-14T10:02:21Z</time>
      </trkpt>
      <trkpt lat="46.87251" lon="6.38039">
        <ele>871.1</ele>
        <time>2021-08-14T10:02:22Z</time>
      </trkpt>
      <trkpt lat="46.87249" lon="6.38034">
        <ele>870.7</ele>
        <time>2021-08-14T10:02:24Z</time>
      </trkpt>
      <trkpt lat="46.87249" lon="6.38032">
        <ele>870.6</ele>
        <time>2021-08-14T10:02:25Z</time>
      </trkpt>
      <trkpt lat="46.87248" lon="6.38029">
        <ele>870.3</ele>
        <time>2021-08-14T10:02:26Z</time>
      </trkpt>
      <trkpt lat="46.87244" lon="6.38022">
        <ele>869.7</ele>
        <time>2021-08-14T10:02:28Z</time>
      </trkpt>
      <trkpt lat="46.87241" lon="6.38017">
        <ele>869.1</ele>
        <time>2021-08-14T10:02:30Z</time>
      </trkpt>
      <trkpt lat="46.87239" lon="6.38013">
        <ele>868.7</ele>
        <time>2021-08-14T10:02:32Z</time>
      </trkpt>
      <trkpt lat="46.87235" lon="6.38011">
        <ele>868.6</ele>
        <time>2021-08-14T10:02:33Z</time>
      </trkpt>
      <trkpt lat="46.87234" lon="6.38011">
        <ele>868.7</ele>
        <time>2021-08-14T10:02:34Z</time>
      </trkpt>
      <trkpt lat="46.8723" lon="6.38012">
        <ele>869.3</ele>
        <time>2021-08-14T10:02:36Z</time>
      </trkpt>
      <trkpt lat="46.87225" lon="6.38018">
        <ele>870</ele>
        <time>2021-08-14T10:02:38Z</time>
      </trkpt>
      <trkpt lat="46.87224" lon="6.38023">
        <ele>870.4</ele>
        <time>2021-08-14T10:02:39Z</time>
      </trkpt>
      <trkpt lat="46.87225" lon="6.38031">
        <ele>871.1</ele>
        <time>2021-08-14T10:02:41Z</time>
      </trkpt>
      <trkpt lat="46.87226" lon="6.38034">
        <ele>871.3</ele>
        <time>2021-08-14T10:02:42Z</time>
      </trkpt>
      <trkpt lat="46.87228" lon="6.3804">
        <ele>871.9</ele>
        <time>2021-08-14T10:02:44Z</time>
      </trkpt>
      <trkpt lat="46.87228" lon="6.38042">
        <ele>872.1</ele>
        <time>2021-08-14T10:02:45Z</time>
      </trkpt>
      <trkpt lat="46.87229" lon="6.38047">
        <ele>872.5</ele>
        <time>2021-08-14T10:02:47Z</time>
      </trkpt>
      <trkpt lat="46.87227" lon="6.38052">
        <ele>872.9</ele>
        <time>2021-08-14T10:02:48Z</time>
      </trkpt>
      <trkpt lat="46.87227" lon="6.38053">
        <ele>873.1</ele>
        <time>2021-08-14T10:02:49Z</time>
      </trkpt>
      <trkpt lat="46.87227" lon="6.38057">
        <ele>873.3</ele>
        <time>2021-08-14T10:02:50Z</time>
      </trkpt>
      <trkpt lat="46.87229" lon="6.38061">
        <ele>873.7</ele>
        <time>2021-08-14T10:02:52Z</time>
      </trkpt>
      <trkpt lat="46.8723" lon="6.38066">
        <ele>874.1</ele>
        <time>2021-08-14T10:02:54Z</time>
      </trkpt>
      <trkpt lat="46.8723" lon="6.38067">
        <ele>874.3</ele>
        <time>2021-08-14T10:02:55Z</time>
      </trkpt>
      <trkpt lat="46.87229" lon="6.38068">
        <ele>874.3</ele>
        <time>2021-08-14T10:02:56Z</time>
      </trkpt>
      <trkpt lat="46.87227" lon="6.38067">
        <ele>874.6</ele>
        <time>2021-08-14T10:02:58Z</time>
      </trkpt>
      <trkpt lat="46.87228" lon="6.3806">
        <ele>875.2</ele>
        <time>2021-08-14T10:03:00Z</time>
      </trkpt>
      <trkpt lat="46.87227" lon="6.3806">
        <ele>875.4</ele>
        <time>2021-08-14T10:03:01Z</time>
      </trkpt>
      <trkpt lat="46.87226" lon="6.38058">
        <ele>875.6</ele>
        <time>2021-08-14T10:03:03Z</time>
      </trkpt>
      <trkpt lat="46.87227" lon="6.38057">
        <ele>875.8</ele>
        <time>2021-08-14T10:03:04Z</time>
      </trkpt>
      <trkpt lat="46.87229" lon="6.38054">
        <ele>876.1</ele>
        <time>2021-08-14T10:03:06Z</time>
      </trkpt>
      <trkpt lat="46.87231" lon="6.3805">
        <ele>876.5</ele>
        <time>2021-08-14T10:03:07Z</time>
      </trkpt>
      <trkpt lat="46.8723" lon="6.38062">
        <ele>877.5</ele>
        <time>2021-08-14T10:03:09Z</time>
      </trkpt>
      <trkpt lat="46.87228" lon="6.38076">
        <ele>879.4</ele>
        <time>2021-08-14T10:03:11Z</time>
      </trkpt>
      <trkpt lat="46.87227" lon="6.3809">
        <ele>879.4</ele>
        <time>2021-08-14T10:06:07Z</time>
      </trkpt>
      <trkpt lat="46.87225" lon="6.38104">
        <ele>879.4</ele>
        <time>2021-08-14T10:06:08Z</time>
      </trkpt>
      <trkpt lat="46.87223" lon="6.38118">
        <ele>879.3</ele>
        <time>2021-08-14T10:06:09Z</time>
      </trkpt>
      <trkpt lat="46.87222" lon="6.38118">
        <ele>879.3</ele>
        <time>2021-08-14T10:06:10Z</time>
      </trkpt>
      <trkpt lat="46.87221" lon="6.38117">
        <ele>879.3</ele>
        <time>2021-08-14T10:06:12Z</time>
      </trkpt>
      <trkpt lat="46.8722" lon="6.38117">
        <ele>879.3</ele>
        <time>2021-08-14T10:06:14Z</time>
      </trkpt>
      <trkpt lat="46.87219" lon="6.38118">
        <ele>879.3</ele>
        <time>2021-08-14T10:06:15Z</time>
      </trkpt>
      <trkpt lat="46.87219" lon="6.38118">
        <ele>879.3</ele>
        <time>2021-08-14T10:06:17Z</time>
      </trkpt>
      <trkpt lat="46.87219" lon="6.38119">
        <ele>879.3</ele>
        <time>2021-08-14T10:06:18Z</time>
      </trkpt>
      <trkpt lat="46.87219" lon="6.38119">
        <ele>879.3</ele>
        <time>2021-08-14T10:06:19Z</time>
      </trkpt>
      <trkpt lat="46.87218" lon="6.38119">
        <ele>879.3</ele>
        <time>2021-08-14T10:06:21Z</time>
      </trkpt>
      <trkpt lat="46.87239" lon="6.38098">
        <ele>879.4</ele>
        <time>2021-08-14T10:07:22Z</time>
      </trkpt>
      <trkpt lat="46.8724" lon="6.38095">
        <ele>879.4</ele>
        <time>2021-08-14T10:07:23Z</time>
      </trkpt>
      <trkpt lat="46.87241" lon="6.38093">
        <ele>879.4</ele>
        <time>2021-08-14T10:07:24Z</time>
      </trkpt>
      <trkpt lat="46.87241" lon="6.38091">
        <ele>879.4</ele>
        <time>2021-08-14T10:07:26Z</time>
      </trkpt>
      <trkpt lat="46.87242" lon="6.38089">
        <ele>879.4</ele>
        <time>2021-08-14T10:07:27Z</time>
      </trkpt>
      <trkpt lat="46.87243" lon="6.38087">
        <ele>879.4</ele>
        <time>2021-08-14T10:07:28Z</time>
      </trkpt>
      <trkpt lat="46.87243" lon="6.38085">
        <ele>879.4</ele>
        <time>2021-08-14T10:07:29Z</time>
      </trkpt>
      <trkpt lat="46.87243" lon="6.38083">
        <ele>879.4</ele>
        <time>2021-08-14T10:07:30Z</time>
      </trkpt>
      <trkpt lat="46.87243" lon="6.38081">
        <ele>879.4</ele>
        <time>2021-08-14T10:07:31Z</time>
      </trkpt>
      <trkpt lat="46.87243" lon="6.38079">
        <ele>879.4</ele>
        <time>2021-08-14T10:07:32Z</time>
      </trkpt>
      <trkpt lat="46.87243" lon="6.38077">
        <ele>879.4</ele>
        <time>2021-08-14T10:07:34Z</time>
      </trkpt>
      <trkpt lat="46.87243" lon="6.38075">
        <ele>879.4</ele>
        <time>2021-08-14T10:07:36Z</time>
      </trkpt>
      <trkpt lat="46.87242" lon="6.38075">
        <ele>879.4</ele>
        <time>2021-08-14T10:07:37Z</time>
      </trkpt>
      <trkpt lat="46.87241" lon="6.38075">
        <ele>879.4</ele>
        <time>2021-08-14T10:07:39Z</time>
      </trkpt>
      <trkpt lat="46.8724" lon="6.38075">
        <ele>879.4</ele>
        <time>2021-08-14T10:07:40Z</time>
      </trkpt>
      <trkpt lat="46.8724" lon="6.38075">
        <ele>879.4</ele>
        <time>2021-08-14T10:07:41Z</time>
      </trkpt>
      <trkpt lat="46.87239" lon="6.38075">
        <ele>879.4</ele>
        <time>2021-08-14T10:07:43Z</time>
      </trkpt>
      <trkpt lat="46.87239" lon="6.38075">
        <ele>879.4</ele>
        <time>2021-08-14T10:07:44Z</time>
      </trkpt>
      <trkpt lat="46.87239" lon="6.38075">
        <ele>879.4</ele>
        <time>2021-08-14T10:07:45Z</time>
      </trkpt>
      <trkpt lat="46.87239" lon="6.38075">
        <ele>879.4</ele>
        <time>2021-08-14T10:07:47Z</time>
      </trkpt>
      <trkpt lat="46.87225" lon="6.38049">
        <ele>874.3</ele>
        <time>2021-08-14T10:08:40Z</time>
      </trkpt>
      <trkpt lat="46.87225" lon="6.38042">
        <ele>872.9</ele>
        <time>2021-08-14T10:08:42Z</time>
      </trkpt>
      <trkpt lat="46.87225" lon="6.38031">
        <ele>871</ele>
        <time>2021-08-14T10:08:44Z</time>
      </trkpt>
      <trkpt lat="46.87225" lon="6.38026">
        <ele>870.1</ele>
        <time>2021-08-14T10:08:45Z</time>
      </trkpt>
      <trkpt lat="46.87225" lon="6.38022">
        <ele>869.2</ele>
        <time>2021-08-14T10:08:46Z</time>
      </trkpt>
      <trkpt lat="46.87224" lon="6.38017">
        <ele>868.5</ele>
        <time>2021-08-14T10:08:47Z</time>
      </trkpt>
      <trkpt lat="46.8722" lon="6.3801">
        <ele>868.2</ele>
        <time>2021-08-14T10:08:49Z</time>
      </trkpt>
      <trkpt lat="46.87218" lon="6.38007">
        <ele>868</ele>
        <time>2021-08-14T10:08:51Z</time>
      </trkpt>
      <trkpt lat="46.87219" lon="6.38004">
        <ele>866.9</ele>
        <time>2021-08-14T10:08:52Z</time>
      </trkpt>
      <trkpt lat="46.87219" lon="6.38004">
        <ele>866.9</ele>
        <time>2021-08-14T10:08:54Z</time>
      </trkpt>
      <trkpt lat="46.87215" lon="6.38004">
        <ele>866.7</ele>
        <time>2021-08-14T10:08:56Z</time>
      </trkpt>
      <trkpt lat="46.87212" lon="6.38006">
        <ele>866.5</ele>
        <time>2021-08-14T10:08:57Z</time>
      </trkpt>
      <trkpt lat="46.87208" lon="6.38013">
        <ele>866.1</ele>
        <time>2021-08-14T10:08:59Z</time>
      </trkpt>
      <trkpt lat="46.87204" lon="6.38017">
        <ele>866.1</ele>
        <time>2021-08-14T10:09:00Z</time>
      </trkpt>
      <trkpt lat="46.87201" lon="6.38023">
        <ele>866.1</ele>
        <time>2021-08-14T10:09:01Z</time>
      </trkpt>
      <trkpt lat="46.87199" lon="6.38028">
        <ele>866.1</ele>
        <time>2021-08-14T10:09:02Z</time>
      </trkpt>
      <trkpt lat="46.87197" lon="6.38034">
        <ele>866.1</ele>
        <time>2021-08-14T10:09:04Z</time>
      </trkpt>
      <trkpt lat="46.87197" lon="6.38037">
        <ele>866.1</ele>
        <time>2021-08-14T10:09:05Z</time>
      </trkpt>
      <trkpt lat="46.87196" lon="6.38044">
        <ele>866.2</ele>
        <time>2021-08-14T10:09:07Z</time>
      </trkpt>
      <trkpt lat="46.87197" lon="6.38048">
        <ele>866.2</ele>
        <time>2021-08-14T10:09:08Z</time>
      </trkpt>
      <trkpt lat="46.87198" lon="6.38052">
        <ele>866.2</ele>
        <time>2021-08-14T10:09:09Z</time>
      </trkpt>
      <trkpt lat="46.87199" lon="6.38057">
        <ele>866.2</ele>
        <time>2021-08-14T10:09:10Z</time>
      </trkpt>
      <trkpt lat="46.87199" lon="6.38065">
        <ele>866.2</ele>
        <time>2021-08-14T10:09:12Z</time>
      </trkpt>
      <trkpt lat="46.872" lon="6.3807">
        <ele>866.3</ele>
        <time>2021-08-14T10:09:13Z</time>
      </trkpt>
      <trkpt lat="46.87201" lon="6.38073">
        <ele>866.3</ele>
        <time>2021-08-14T10:09:14Z</time>
      </trkpt>
      <trkpt lat="46.87202" lon="6.38077">
        <ele>866.3</ele>
        <time>2021-08-14T10:09:15Z</time>
      </trkpt>
      <trkpt lat="46.87203" lon="6.38082">
        <ele>866.3</ele>
        <time>2021-08-14T10:09:16Z</time>
      </trkpt>
      <trkpt lat="46.87205" lon="6.38085">
        <ele>866.3</ele>
        <time>2021-08-14T10:09:17Z</time>
      </trkpt>
      <trkpt lat="46.87207" lon="6.38089">
        <ele>866.3</ele>
        <time>2021-08-14T10:09:19Z</time>
      </trkpt>
      <trkpt lat="46.87208" lon="6.38094">
        <ele>866.3</ele>
        <time>2021-08-14T10:09:20Z</time>
      </trkpt>
      <trkpt lat="46.8721" lon="6.381">
        <ele>866.3</ele>
        <time>2021-08-14T10:09:21Z</time>
      </trkpt>
      <trkpt lat="46.87211" lon="6.38105">
        <ele>866.3</ele>
        <time>2021-08-14T10:09:22Z</time>
      </trkpt>
      <trkpt lat="46.87212" lon="6.38111">
        <ele>866.3</ele>
        <time>2021-08-14T10:09:23Z</time>
      </trkpt>
      <trkpt lat="46.87213" lon="6.38116">
        <ele>866.3</ele>
        <time>2021-08-14T10:09:24Z</time>
      </trkpt>
      <trkpt lat="46.87214" lon="6.38121">
        <ele>866.3</ele>
        <time>2021-08-14T10:09:26Z</time>
      </trkpt>
      <trkpt lat="46.87214" lon="6.38126">
        <ele>866.2</ele>
        <time>2021-08-14T10:09:27Z</time>
      </trkpt>
      <trkpt lat="46.87214" lon="6.38133">
        <ele>866.2</ele>
        <time>2021-08-14T10:09:28Z</time>
      </trkpt>
      <trkpt lat="46.87214" lon="6.38138">
        <ele>866.2</ele>
        <time>2021-08-14T10:09:29Z</time>
      </trkpt>
      <trkpt lat="46.87215" lon="6.38145">
        <ele>866.1</ele>
        <time>2021-08-14T10:09:31Z</time>
      </trkpt>
      <trkpt lat="46.87214" lon="6.3815">
        <ele>866.1</ele>
        <time>2021-08-14T10:09:32Z</time>
      </trkpt>
      <trkpt lat="46.87212" lon="6.38153">
        <ele>866.1</ele>
        <time>2021-08-14T10:09:33Z</time>
      </trkpt>
      <trkpt lat="46.87212" lon="6.38158">
        <ele>866</ele>
        <time>2021-08-14T10:09:34Z</time>
      </trkpt>
      <trkpt lat="46.87214" lon="6.38163">
        <ele>866</ele>
        <time>2021-08-14T10:09:35Z</time>
      </trkpt>
      <trkpt lat="46.87215" lon="6.3817">
        <ele>865.9</ele>
        <time>2021-08-14T10:09:37Z</time>
      </trkpt>
      <trkpt lat="46.87216" lon="6.38177">
        <ele>865.9</ele>
        <time>2021-08-14T10:09:38Z</time>
      </trkpt>
      <trkpt lat="46.87216" lon="6.38185">
        <ele>865.8</ele>
        <time>2021-08-14T10:09:40Z</time>
      </trkpt>
      <trkpt lat="46.87217" lon="6.38192">
        <ele>865.8</ele>
        <time>2021-08-14T10:09:41Z</time>
      </trkpt>
      <trkpt lat="46.87218" lon="6.38198">
        <ele>865.8</ele>
        <time>2021-08-14T10:09:42Z</time>
      </trkpt>
      <trkpt lat="46.87218" lon="6.38203">
        <ele>865.7</ele>
        <time>2021-08-14T10:09:43Z</time>
      </trkpt>
      <trkpt lat="46.87216" lon="6.3821">
        <ele>865.6</ele>
        <time>2021-08-14T10:09:45Z</time>
      </trkpt>
      <trkpt lat="46.87216" lon="6.38216">
        <ele>865.6</ele>
        <time>2021-08-14T10:09:46Z</time>
      </trkpt>
      <trkpt lat="46.87216" lon="6.38222">
        <ele>865.5</ele>
        <time>2021-08-14T10:09:47Z</time>
      </trkpt>
      <trkpt lat="46.87217" lon="6.3823">
        <ele>865.5</ele>
        <time>2021-08-14T10:09:49Z</time>
      </trkpt>
      <trkpt lat="46.87217" lon="6.38238">
        <ele>865.4</ele>
        <time>2021-08-14T10:09:50Z</time>
      </trkpt>
      <trkpt lat="46.87218" lon="6.38248">
        <ele>865.3</ele>
        <time>2021-08-14T10:09:51Z</time>
      </trkpt>
      <trkpt lat="46.87219" lon="6.38256">
        <ele>865.2</ele>
        <time>2021-08-14T10:09:53Z</time>
      </trkpt>
      <trkpt lat="46.87219" lon="6.38273">
        <ele>865.1</ele>
        <time>2021-08-14T10:09:55Z</time>
      </trkpt>
      <trkpt lat="46.8722" lon="6.38287">
        <ele>865</ele>
        <time>2021-08-14T10:09:57Z</time>
      </trkpt>
      <trkpt lat="46.87222" lon="6.38292">
        <ele>865</ele>
        <time>2021-08-14T10:09:58Z</time>
      </trkpt>
      <trkpt lat="46.87224" lon="6.38303">
        <ele>865</ele>
        <time>2021-08-14T10:10:00Z</time>
      </trkpt>
      <trkpt lat="46.87225" lon="6.38308">
        <ele>865</ele>
        <time>2021-08-14T10:10:01Z</time>
      </trkpt>
      <trkpt lat="46.87226" lon="6.38318">
        <ele>865</ele>
        <time>2021-08-14T10:10:03Z</time>
      </trkpt>
      <trkpt lat="46.87226" lon="6.38329">
        <ele>865.1</ele>
        <time>2021-08-14T10:10:05Z</time>
      </trkpt>
      <trkpt lat="46.87226" lon="6.38339">
        <ele>865.1</ele>
        <time>2021-08-14T10:10:07Z</time>
      </trkpt>
      <trkpt lat="46.87226" lon="6.38343">
        <ele>865</ele>
        <time>2021-08-14T10:10:08Z</time>
      </trkpt>
      <trkpt lat="46.87227" lon="6.38348">
        <ele>865</ele>
        <time>2021-08-14T10:10:09Z</time>
      </trkpt>
      <trkpt lat="46.87227" lon="6.38356">
        <ele>865</ele>
        <time>2021-08-14T10:10:11Z</time>
      </trkpt>
      <trkpt lat="46.87228" lon="6.38361">
        <ele>865</ele>
        <time>2021-08-14T10:10:12Z</time>
      </trkpt>
      <trkpt lat="46.87228" lon="6.38369">
        <ele>865.1</ele>
        <time>2021-08-14T10:10:14Z</time>
      </trkpt>
      <trkpt lat="46.87229" lon="6.38374">
        <ele>865.1</ele>
        <time>2021-08-14T10:10:15Z</time>
      </trkpt>
      <trkpt lat="46.87229" lon="6.38378">
        <ele>865.1</ele>
        <time>2021-08-14T10:10:16Z</time>
      </trkpt>
      <trkpt lat="46.87229" lon="6.38382">
        <ele>865.1</ele>
        <time>2021-08-14T10:10:17Z</time>
      </trkpt>
      <trkpt lat="46.87229" lon="6.38388">
        <ele>865.1</ele>
        <time>2021-08-14T10:10:18Z</time>
      </trkpt>
      <trkpt lat="46.8723" lon="6.38393">
        <ele>865.2</ele>
        <time>2021-08-14T10:10:19Z</time>
      </trkpt>
      <trkpt lat="46.8723" lon="6.38402">
        <ele>865.2</ele>
        <time>2021-08-14T10:10:21Z</time>
      </trkpt>
      <trkpt lat="46.8723" lon="6.38412">
        <ele>865.3</ele>
        <time>2021-08-14T10:10:23Z</time>
      </trkpt>
      <trkpt lat="46.8723" lon="6.38418">
        <ele>865.4</ele>
        <time>2021-08-14T10:10:24Z</time>
      </trkpt>
      <trkpt lat="46.87231" lon="6.38426">
        <ele>865.4</ele>
        <time>2021-08-14T10:10:25Z</time>
      </trkpt>
      <trkpt lat="46.87231" lon="6.38431">
        <ele>865.5</ele>
        <time>2021-08-14T10:10:27Z</time>
      </trkpt>
      <trkpt lat="46.87231" lon="6.38436">
        <ele>865.5</ele>
        <time>2021-08-14T10:10:28Z</time>
      </trkpt>
      <trkpt lat="46.87232" lon="6.38445">
        <ele>865.6</ele>
        <time>2021-08-14T10:10:30Z</time>
      </trkpt>
      <trkpt lat="46.87232" lon="6.38456">
        <ele>865.6</ele>
        <time>2021-08-14T10:10:32Z</time>
      </trkpt>
      <trkpt lat="46.87232" lon="6.38465">
        <ele>865.7</ele>
        <time>2021-08-14T10:10:33Z</time>
      </trkpt>
      <trkpt lat="46.87232" lon="6.3847">
        <ele>865.7</ele>
        <time>2021-08-14T10:10:34Z</time>
      </trkpt>
      <trkpt lat="46.87233" lon="6.38481">
        <ele>865.8</ele>
        <time>2021-08-14T10:10:37Z</time>
      </trkpt>
      <trkpt lat="46.87234" lon="6.38489">
        <ele>865.9</ele>
        <time>2021-08-14T10:10:39Z</time>
      </trkpt>
      <trkpt lat="46.87234" lon="6.38495">
        <ele>866</ele>
        <time>2021-08-14T10:10:40Z</time>
      </trkpt>
      <trkpt lat="46.87235" lon="6.38502">
        <ele>866</ele>
        <time>2021-08-14T10:10:42Z</time>
      </trkpt>
      <trkpt lat="46.87235" lon="6.38506">
        <ele>866.1</ele>
        <time>2021-08-14T10:10:43Z</time>
      </trkpt>
      <trkpt lat="46.87235" lon="6.38514">
        <ele>866.2</ele>
        <time>2021-08-14T10:10:45Z</time>
      </trkpt>
      <trkpt lat="46.87235" lon="6.38519">
        <ele>866.3</ele>
        <time>2021-08-14T10:10:46Z</time>
      </trkpt>
      <trkpt lat="46.87235" lon="6.38523">
        <ele>866.4</ele>
        <time>2021-08-14T10:10:47Z</time>
      </trkpt>
      <trkpt lat="46.87235" lon="6.38527">
        <ele>866.4</ele>
        <time>2021-08-14T10:10:48Z</time>
      </trkpt>
      <trkpt lat="46.87235" lon="6.38532">
        <ele>866.5</ele>
        <time>2021-08-14T10:10:49Z</time>
      </trkpt>
      <trkpt lat="46.87235" lon="6.38536">
        <ele>866.6</ele>
        <time>2021-08-14T10:10:51Z</time>
      </trkpt>
      <trkpt lat="46.87235" lon="6.38542">
        <ele>866.7</ele>
        <time>2021-08-14T10:10:53Z</time>
      </trkpt>
      <trkpt lat="46.87235" lon="6.38548">
        <ele>866.7</ele>
        <time>2021-08-14T10:10:55Z</time>
      </trkpt>
      <trkpt lat="46.87237" lon="6.38554">
        <ele>866.8</ele>
        <time>2021-08-14T10:10:56Z</time>
      </trkpt>
      <trkpt lat="46.87238" lon="6.38556">
        <ele>866.9</ele>
        <time>2021-08-14T10:10:57Z</time>
      </trkpt>
      <trkpt lat="46.87238" lon="6.3856">
        <ele>866.9</ele>
        <time>2021-08-14T10:10:58Z</time>
      </trkpt>
      <trkpt lat="46.87239" lon="6.38565">
        <ele>867</ele>
        <time>2021-08-14T10:10:59Z</time>
      </trkpt>
      <trkpt lat="46.87239" lon="6.38569">
        <ele>867.1</ele>
        <time>2021-08-14T10:11:00Z</time>
      </trkpt>
      <trkpt lat="46.8724" lon="6.38575">
        <ele>867.1</ele>
        <time>2021-08-14T10:11:01Z</time>
      </trkpt>
      <trkpt lat="46.87241" lon="6.3858">
        <ele>867.2</ele>
        <time>2021-08-14T10:11:02Z</time>
      </trkpt>
      <trkpt lat="46.87242" lon="6.38585">
        <ele>867.3</ele>
        <time>2021-08-14T10:11:03Z</time>
      </trkpt>
      <trkpt lat="46.87244" lon="6.3859">
        <ele>867.4</ele>
        <time>2021-08-14T10:11:04Z</time>
      </trkpt>
      <trkpt lat="46.87245" lon="6.38595">
        <ele>867.5</ele>
        <time>2021-08-14T10:11:05Z</time>
      </trkpt>
      <trkpt lat="46.87246" lon="6.386">
        <ele>867.6</ele>
        <time>2021-08-14T10:11:06Z</time>
      </trkpt>
      <trkpt lat="46.87247" lon="6.38605">
        <ele>867.7</ele>
        <time>2021-08-14T10:11:07Z</time>
      </trkpt>
      <trkpt lat="46.87249" lon="6.38609">
        <ele>867.8</ele>
        <time>2021-08-14T10:11:09Z</time>
      </trkpt>
      <trkpt lat="46.8725" lon="6.38614">
        <ele>867.9</ele>
        <time>2021-08-14T10:11:10Z</time>
      </trkpt>
      <trkpt lat="46.8725" lon="6.38618">
        <ele>868</ele>
        <time>2021-08-14T10:11:11Z</time>
      </trkpt>
      <trkpt lat="46.8725" lon="6.38622">
        <ele>868.1</ele>
        <time>2021-08-14T10:11:12Z</time>
      </trkpt>
      <trkpt lat="46.8725" lon="6.38629">
        <ele>868.3</ele>
        <time>2021-08-14T10:11:13Z</time>
      </trkpt>
      <trkpt lat="46.87251" lon="6.38634">
        <ele>868.3</ele>
        <time>2021-08-14T10:11:14Z</time>
      </trkpt>
      <trkpt lat="46.87252" lon="6.38637">
        <ele>868.4</ele>
        <time>2021-08-14T10:11:15Z</time>
      </trkpt>
      <trkpt lat="46.87252" lon="6.38639">
        <ele>868.5</ele>
        <time>2021-08-14T10:11:16Z</time>
      </trkpt>
      <trkpt lat="46.87254" lon="6.38645">
        <ele>868.6</ele>
        <time>2021-08-14T10:11:18Z</time>
      </trkpt>
      <trkpt lat="46.87255" lon="6.38647">
        <ele>868.6</ele>
        <time>2021-08-14T10:11:20Z</time>
      </trkpt>
      <trkpt lat="46.87255" lon="6.38649">
        <ele>868.6</ele>
        <time>2021-08-14T10:11:21Z</time>
      </trkpt>
      <trkpt lat="46.87254" lon="6.38653">
        <ele>868.7</ele>
        <time>2021-08-14T10:11:22Z</time>
      </trkpt>
      <trkpt lat="46.87252" lon="6.38657">
        <ele>868.7</ele>
        <time>2021-08-14T10:11:24Z</time>
      </trkpt>
      <trkpt lat="46.87252" lon="6.38659">
        <ele>868.8</ele>
        <time>2021-08-14T10:11:25Z</time>
      </trkpt>
      <trkpt lat="46.87252" lon="6.38661">
        <ele>868.8</ele>
        <time>2021-08-14T10:11:26Z</time>
      </trkpt>
      <trkpt lat="46.87252" lon="6.38667">
        <ele>868.8</ele>
        <time>2021-08-14T10:11:28Z</time>
      </trkpt>
      <trkpt lat="46.87251" lon="6.38672">
        <ele>868.9</ele>
        <time>2021-08-14T10:11:29Z</time>
      </trkpt>
      <trkpt lat="46.8725" lon="6.38678">
        <ele>869</ele>
        <time>2021-08-14T10:11:30Z</time>
      </trkpt>
      <trkpt lat="46.87249" lon="6.38682">
        <ele>869</ele>
        <time>2021-08-14T10:11:31Z</time>
      </trkpt>
      <trkpt lat="46.87249" lon="6.38687">
        <ele>869.1</ele>
        <time>2021-08-14T10:11:32Z</time>
      </trkpt>
      <trkpt lat="46.87248" lon="6.38691">
        <ele>869.1</ele>
        <time>2021-08-14T10:11:33Z</time>
      </trkpt>
      <trkpt lat="46.8725" lon="6.38699">
        <ele>869.2</ele>
        <time>2021-08-14T10:11:35Z</time>
      </trkpt>
      <trkpt lat="46.87251" lon="6.38702">
        <ele>869.2</ele>
        <time>2021-08-14T10:11:36Z</time>
      </trkpt>
      <trkpt lat="46.87252" lon="6.38705">
        <ele>869.2</ele>
        <time>2021-08-14T10:11:37Z</time>
      </trkpt>
      <trkpt lat="46.87256" lon="6.38709">
        <ele>869.3</ele>
        <time>2021-08-14T10:11:39Z</time>
      </trkpt>
      <trkpt lat="46.87261" lon="6.38712">
        <ele>869.4</ele>
        <time>2021-08-14T10:11:41Z</time>
      </trkpt>
      <trkpt lat="46.87263" lon="6.38713">
        <ele>869.4</ele>
        <time>2021-08-14T10:11:42Z</time>
      </trkpt>
      <trkpt lat="46.87264" lon="6.38714">
        <ele>869.5</ele>
        <time>2021-08-14T10:11:43Z</time>
      </trkpt>
      <trkpt lat="46.87265" lon="6.38718">
        <ele>869.5</ele>
        <time>2021-08-14T10:11:45Z</time>
      </trkpt>
      <trkpt lat="46.87264" lon="6.38724">
        <ele>869.5</ele>
        <time>2021-08-14T10:11:46Z</time>
      </trkpt>
      <trkpt lat="46.87264" lon="6.38729">
        <ele>869.6</ele>
        <time>2021-08-14T10:11:47Z</time>
      </trkpt>
      <trkpt lat="46.87263" lon="6.38734">
        <ele>869.6</ele>
        <time>2021-08-14T10:11:48Z</time>
      </trkpt>
      <trkpt lat="46.87262" lon="6.38739">
        <ele>869.7</ele>
        <time>2021-08-14T10:11:49Z</time>
      </trkpt>
      <trkpt lat="46.87262" lon="6.38744">
        <ele>869.7</ele>
        <time>2021-08-14T10:11:50Z</time>
      </trkpt>
      <trkpt lat="46.87262" lon="6.38751">
        <ele>869.7</ele>
        <time>2021-08-14T10:11:52Z</time>
      </trkpt>
      <trkpt lat="46.87263" lon="6.38756">
        <ele>869.8</ele>
        <time>2021-08-14T10:11:53Z</time>
      </trkpt>
      <trkpt lat="46.87263" lon="6.38761">
        <ele>869.8</ele>
        <time>2021-08-14T10:11:54Z</time>
      </trkpt>
      <trkpt lat="46.87263" lon="6.38769">
        <ele>869.9</ele>
        <time>2021-08-14T10:11:55Z</time>
      </trkpt>
      <trkpt lat="46.87263" lon="6.38776">
        <ele>869.9</ele>
        <time>2021-08-14T10:11:56Z</time>
      </trkpt>
      <trkpt lat="46.87263" lon="6.38781">
        <ele>869.9</ele>
        <time>2021-08-14T10:11:57Z</time>
      </trkpt>
      <trkpt lat="46.87262" lon="6.38787">
        <ele>870</ele>
        <time>2021-08-14T10:11:58Z</time>
      </trkpt>
      <trkpt lat="46.87261" lon="6.38792">
        <ele>870</ele>
        <time>2021-08-14T10:11:59Z</time>
      </trkpt>
      <trkpt lat="46.87262" lon="6.38796">
        <ele>870</ele>
        <time>2021-08-14T10:12:00Z</time>
      </trkpt>
      <trkpt lat="46.87263" lon="6.38801">
        <ele>870</ele>
        <time>2021-08-14T10:12:01Z</time>
      </trkpt>
      <trkpt lat="46.87264" lon="6.38805">
        <ele>870.1</ele>
        <time>2021-08-14T10:12:02Z</time>
      </trkpt>
      <trkpt lat="46.87266" lon="6.38812">
        <ele>870.1</ele>
        <time>2021-08-14T10:12:04Z</time>
      </trkpt>
      <trkpt lat="46.87267" lon="6.38817">
        <ele>870.1</ele>
        <time>2021-08-14T10:12:05Z</time>
      </trkpt>
      <trkpt lat="46.87267" lon="6.38826">
        <ele>870.2</ele>
        <time>2021-08-14T10:12:06Z</time>
      </trkpt>
      <trkpt lat="46.87267" lon="6.38831">
        <ele>870.2</ele>
        <time>2021-08-14T10:12:07Z</time>
      </trkpt>
      <trkpt lat="46.87267" lon="6.38837">
        <ele>870.2</ele>
        <time>2021-08-14T10:12:08Z</time>
      </trkpt>
      <trkpt lat="46.87267" lon="6.38842">
        <ele>870.2</ele>
        <time>2021-08-14T10:12:09Z</time>
      </trkpt>
      <trkpt lat="46.87266" lon="6.38855">
        <ele>870.3</ele>
        <time>2021-08-14T10:12:11Z</time>
      </trkpt>
      <trkpt lat="46.87265" lon="6.38861">
        <ele>870.3</ele>
        <time>2021-08-14T10:12:12Z</time>
      </trkpt>
      <trkpt lat="46.87262" lon="6.3887">
        <ele>870.3</ele>
        <time>2021-08-14T10:12:14Z</time>
      </trkpt>
      <trkpt lat="46.87259" lon="6.38878">
        <ele>870.4</ele>
        <time>2021-08-14T10:12:15Z</time>
      </trkpt>
      <trkpt lat="46.87256" lon="6.38892">
        <ele>870.4</ele>
        <time>2021-08-14T10:12:17Z</time>
      </trkpt>
      <trkpt lat="46.87257" lon="6.38899">
        <ele>870.5</ele>
        <time>2021-08-14T10:12:18Z</time>
      </trkpt>
      <trkpt lat="46.87256" lon="6.38906">
        <ele>870.5</ele>
        <time>2021-08-14T10:12:20Z</time>
      </trkpt>
      <trkpt lat="46.87255" lon="6.3891">
        <ele>870.5</ele>
        <time>2021-08-14T10:12:21Z</time>
      </trkpt>
      <trkpt lat="46.87253" lon="6.38915">
        <ele>870.5</ele>
        <time>2021-08-14T10:12:22Z</time>
      </trkpt>
      <trkpt lat="46.8725" lon="6.38923">
        <ele>870.6</ele>
        <time>2021-08-14T10:12:24Z</time>
      </trkpt>
      <trkpt lat="46.87248" lon="6.38929">
        <ele>870.6</ele>
        <time>2021-08-14T10:12:25Z</time>
      </trkpt>
      <trkpt lat="46.87248" lon="6.38935">
        <ele>870.7</ele>
        <time>2021-08-14T10:12:27Z</time>
      </trkpt>
      <trkpt lat="46.87247" lon="6.3894">
        <ele>870.7</ele>
        <time>2021-08-14T10:12:28Z</time>
      </trkpt>
      <trkpt lat="46.87244" lon="6.38949">
        <ele>870.8</ele>
        <time>2021-08-14T10:12:29Z</time>
      </trkpt>
      <trkpt lat="46.87243" lon="6.38955">
        <ele>870.9</ele>
        <time>2021-08-14T10:12:31Z</time>
      </trkpt>
      <trkpt lat="46.87241" lon="6.38961">
        <ele>870.9</ele>
        <time>2021-08-14T10:12:32Z</time>
      </trkpt>
      <trkpt lat="46.87241" lon="6.38967">
        <ele>870.9</ele>
        <time>2021-08-14T10:12:33Z</time>
      </trkpt>
      <trkpt lat="46.87242" lon="6.38973">
        <ele>870.9</ele>
        <time>2021-08-14T10:12:35Z</time>
      </trkpt>
      <trkpt lat="46.87242" lon="6.38977">
        <ele>870.9</ele>
        <time>2021-08-14T10:12:36Z</time>
      </trkpt>
      <trkpt lat="46.87242" lon="6.38983">
        <ele>871</ele>
        <time>2021-08-14T10:12:37Z</time>
      </trkpt>
      <trkpt lat="46.87241" lon="6.3899">
        <ele>871</ele>
        <time>2021-08-14T10:12:39Z</time>
      </trkpt>
      <trkpt lat="46.87239" lon="6.38998">
        <ele>871</ele>
        <time>2021-08-14T10:12:41Z</time>
      </trkpt>
      <trkpt lat="46.87238" lon="6.39002">
        <ele>871.1</ele>
        <time>2021-08-14T10:12:42Z</time>
      </trkpt>
      <trkpt lat="46.87238" lon="6.39006">
        <ele>871.1</ele>
        <time>2021-08-14T10:12:43Z</time>
      </trkpt>
      <trkpt lat="46.87236" lon="6.39014">
        <ele>871.1</ele>
        <time>2021-08-14T10:12:45Z</time>
      </trkpt>
      <trkpt lat="46.87236" lon="6.39022">
        <ele>871.2</ele>
        <time>2021-08-14T10:12:47Z</time>
      </trkpt>
      <trkpt lat="46.87237" lon="6.39028">
        <ele>871.2</ele>
        <time>2021-08-14T10:12:48Z</time>
      </trkpt>
      <trkpt lat="46.87238" lon="6.3903">
        <ele>871.2</ele>
        <time>2021-08-14T10:12:49Z</time>
      </trkpt>
      <trkpt lat="46.87238" lon="6.39035">
        <ele>871.3</ele>
        <time>2021-08-14T10:12:50Z</time>
      </trkpt>
      <trkpt lat="46.87238" lon="6.39042">
        <ele>871.3</ele>
        <time>2021-08-14T10:12:52Z</time>
      </trkpt>
      <trkpt lat="46.87239" lon="6.3905">
        <ele>871.4</ele>
        <time>2021-08-14T10:12:54Z</time>
      </trkpt>
      <trkpt lat="46.87238" lon="6.39054">
        <ele>871.4</ele>
        <time>2021-08-14T10:12:55Z</time>
      </trkpt>
      <trkpt lat="46.87239" lon="6.39061">
        <ele>871.5</ele>
        <time>2021-08-14T10:12:57Z</time>
      </trkpt>
      <trkpt lat="46.87239" lon="6.39066">
        <ele>871.6</ele>
        <time>2021-08-14T10:12:58Z</time>
      </trkpt>
      <trkpt lat="46.87239" lon="6.39068">
        <ele>871.6</ele>
        <time>2021-08-14T10:12:59Z</time>
      </trkpt>
      <trkpt lat="46.87239" lon="6.39073">
        <ele>871.7</ele>
        <time>2021-08-14T10:13:00Z</time>
      </trkpt>
      <trkpt lat="46.8724" lon="6.39075">
        <ele>871.7</ele>
        <time>2021-08-14T10:13:01Z</time>
      </trkpt>
      <trkpt lat="46.8724" lon="6.39081">
        <ele>871.8</ele>
        <time>2021-08-14T10:13:02Z</time>
      </trkpt>
      <trkpt lat="46.87241" lon="6.39087">
        <ele>871.9</ele>
        <time>2021-08-14T10:13:04Z</time>
      </trkpt>
      <trkpt lat="46.87241" lon="6.39089">
        <ele>871.9</ele>
        <time>2021-08-14T10:13:05Z</time>
      </trkpt>
      <trkpt lat="46.87241" lon="6.39094">
        <ele>872</ele>
        <time>2021-08-14T10:13:07Z</time>
      </trkpt>
      <trkpt lat="46.87242" lon="6.39096">
        <ele>872</ele>
        <time>2021-08-14T10:13:08Z</time>
      </trkpt>
      <trkpt lat="46.87242" lon="6.39099">
        <ele>872.1</ele>
        <time>2021-08-14T10:13:09Z</time>
      </trkpt>
      <trkpt lat="46.87242" lon="6.39105">
        <ele>872.2</ele>
        <time>2021-08-14T10:13:11Z</time>
      </trkpt>
      <trkpt lat="46.87242" lon="6.39108">
        <ele>872.2</ele>
        <time>2021-08-14T10:13:12Z</time>
      </trkpt>
      <trkpt lat="46.87244" lon="6.39114">
        <ele>872.3</ele>
        <time>2021-08-14T10:13:14Z</time>
      </trkpt>
      <trkpt lat="46.87245" lon="6.3912">
        <ele>872.4</ele>
        <time>2021-08-14T10:13:15Z</time>
      </trkpt>
      <trkpt lat="46.87246" lon="6.39122">
        <ele>872.5</ele>
        <time>2021-08-14T10:13:16Z</time>
      </trkpt>
      <trkpt lat="46.87247" lon="6.39127">
        <ele>872.5</ele>
        <time>2021-08-14T10:13:17Z</time>
      </trkpt>
      <trkpt lat="46.87247" lon="6.3913">
        <ele>872.6</ele>
        <time>2021-08-14T10:13:18Z</time>
      </trkpt>
      <trkpt lat="46.87248" lon="6.39134">
        <ele>872.6</ele>
        <time>2021-08-14T10:13:20Z</time>
      </trkpt>
      <trkpt lat="46.87249" lon="6.39138">
        <ele>872.7</ele>
        <time>2021-08-14T10:13:21Z</time>
      </trkpt>
      <trkpt lat="46.87251" lon="6.39146">
        <ele>872.8</ele>
        <time>2021-08-14T10:13:22Z</time>
      </trkpt>
      <trkpt lat="46.87252" lon="6.39151">
        <ele>872.9</ele>
        <time>2021-08-14T10:13:24Z</time>
      </trkpt>
      <trkpt lat="46.87254" lon="6.39157">
        <ele>872.9</ele>
        <time>2021-08-14T10:13:26Z</time>
      </trkpt>
      <trkpt lat="46.87255" lon="6.39164">
        <ele>873</ele>
        <time>2021-08-14T10:13:28Z</time>
      </trkpt>
      <trkpt lat="46.87256" lon="6.39168">
        <ele>873</ele>
        <time>2021-08-14T10:13:29Z</time>
      </trkpt>
      <trkpt lat="46.87258" lon="6.39173">
        <ele>873.1</ele>
        <time>2021-08-14T10:13:30Z</time>
      </trkpt>
      <trkpt lat="46.87258" lon="6.39177">
        <ele>873.1</ele>
        <time>2021-08-14T10:13:31Z</time>
      </trkpt>
      <trkpt lat="46.87257" lon="6.39183">
        <ele>873.1</ele>
        <time>2021-08-14T10:13:32Z</time>
      </trkpt>
      <trkpt lat="46.87256" lon="6.39189">
        <ele>873.1</ele>
        <time>2021-08-14T10:13:33Z</time>
      </trkpt>
      <trkpt lat="46.87256" lon="6.39195">
        <ele>873.2</ele>
        <time>2021-08-14T10:13:34Z</time>
      </trkpt>
      <trkpt lat="46.87256" lon="6.39204">
        <ele>873.2</ele>
        <time>2021-08-14T10:13:36Z</time>
      </trkpt>
      <trkpt lat="46.87257" lon="6.39214">
        <ele>873.1</ele>
        <time>2021-08-14T10:13:38Z</time>
      </trkpt>
      <trkpt lat="46.87261" lon="6.39224">
        <ele>873.1</ele>
        <time>2021-08-14T10:13:40Z</time>
      </trkpt>
      <trkpt lat="46.87265" lon="6.39234">
        <ele>873.1</ele>
        <time>2021-08-14T10:13:41Z</time>
      </trkpt>
      <trkpt lat="46.87268" lon="6.39244">
        <ele>873</ele>
        <time>2021-08-14T10:13:43Z</time>
      </trkpt>
      <trkpt lat="46.87276" lon="6.39253">
        <ele>872.9</ele>
        <time>2021-08-14T10:13:44Z</time>
      </trkpt>
      <trkpt lat="46.8728" lon="6.39267">
        <ele>872.8</ele>
        <time>2021-08-14T10:13:46Z</time>
      </trkpt>
      <trkpt lat="46.87281" lon="6.39271">
        <ele>872.8</ele>
        <time>2021-08-14T10:13:47Z</time>
      </trkpt>
      <trkpt lat="46.87282" lon="6.39278">
        <ele>872.8</ele>
        <time>2021-08-14T10:13:48Z</time>
      </trkpt>
      <trkpt lat="46.87283" lon="6.39285">
        <ele>872.7</ele>
        <time>2021-08-14T10:13:49Z</time>
      </trkpt>
      <trkpt lat="46.87283" lon="6.39292">
        <ele>872.7</ele>
        <time>2021-08-14T10:13:50Z</time>
      </trkpt>
      <trkpt lat="46.87284" lon="6.39299">
        <ele>872.6</ele>
        <time>2021-08-14T10:13:51Z</time>
      </trkpt>
      <trkpt lat="46.87284" lon="6.39306">
        <ele>872.5</ele>
        <time>2021-08-14T10:13:52Z</time>
      </trkpt>
      <trkpt lat="46.87283" lon="6.39319">
        <ele>872.5</ele>
        <time>2021-08-14T10:13:54Z</time>
      </trkpt>
      <trkpt lat="46.87283" lon="6.39325">
        <ele>872.5</ele>
        <time>2021-08-14T10:13:55Z</time>
      </trkpt>
      <trkpt lat="46.87286" lon="6.39329">
        <ele>872.4</ele>
        <time>2021-08-14T10:13:56Z</time>
      </trkpt>
      <trkpt lat="46.87285" lon="6.39339">
        <ele>872.3</ele>
        <time>2021-08-14T10:13:57Z</time>
      </trkpt>
      <trkpt lat="46.87284" lon="6.39346">
        <ele>872.3</ele>
        <time>2021-08-14T10:13:58Z</time>
      </trkpt>
      <trkpt lat="46.87285" lon="6.39354">
        <ele>872.2</ele>
        <time>2021-08-14T10:14:00Z</time>
      </trkpt>
      <trkpt lat="46.87285" lon="6.3936">
        <ele>872.1</ele>
        <time>2021-08-14T10:14:01Z</time>
      </trkpt>
      <trkpt lat="46.87286" lon="6.39372">
        <ele>871.9</ele>
        <time>2021-08-14T10:14:02Z</time>
      </trkpt>
      <trkpt lat="46.87287" lon="6.39383">
        <ele>871.7</ele>
        <time>2021-08-14T10:14:04Z</time>
      </trkpt>
      <trkpt lat="46.87289" lon="6.39389">
        <ele>871.5</ele>
        <time>2021-08-14T10:14:05Z</time>
      </trkpt>
      <trkpt lat="46.87291" lon="6.39402">
        <ele>871.2</ele>
        <time>2021-08-14T10:14:07Z</time>
      </trkpt>
      <trkpt lat="46.87294" lon="6.39417">
        <ele>870.9</ele>
        <time>2021-08-14T10:14:09Z</time>
      </trkpt>
      <trkpt lat="46.87295" lon="6.39434">
        <ele>870.6</ele>
        <time>2021-08-14T10:14:11Z</time>
      </trkpt>
      <trkpt lat="46.87291" lon="6.39452">
        <ele>870.3</ele>
        <time>2021-08-14T10:14:13Z</time>
      </trkpt>
      <trkpt lat="46.87288" lon="6.39461">
        <ele>870.2</ele>
        <time>2021-08-14T10:14:14Z</time>
      </trkpt>
      <trkpt lat="46.87285" lon="6.39469">
        <ele>870.1</ele>
        <time>2021-08-14T10:14:15Z</time>
      </trkpt>
      <trkpt lat="46.87277" lon="6.39486">
        <ele>869.7</ele>
        <time>2021-08-14T10:14:17Z</time>
      </trkpt>
      <trkpt lat="46.87268" lon="6.39505">
        <ele>869.3</ele>
        <time>2021-08-14T10:14:19Z</time>
      </trkpt>
      <trkpt lat="46.87262" lon="6.39522">
        <ele>869.1</ele>
        <time>2021-08-14T10:14:21Z</time>
      </trkpt>
      <trkpt lat="46.87259" lon="6.39529">
        <ele>869</ele>
        <time>2021-08-14T10:14:22Z</time>
      </trkpt>
      <trkpt lat="46.87257" lon="6.39537">
        <ele>869</ele>
        <time>2021-08-14T10:14:23Z</time>
      </trkpt>
      <trkpt lat="46.87253" lon="6.39553">
        <ele>868.9</ele>
        <time>2021-08-14T10:14:25Z</time>
      </trkpt>
      <trkpt lat="46.87251" lon="6.39561">
        <ele>868.9</ele>
        <time>2021-08-14T10:14:26Z</time>
      </trkpt>
      <trkpt lat="46.87248" lon="6.39569">
        <ele>868.9</ele>
        <time>2021-08-14T10:14:27Z</time>
      </trkpt>
      <trkpt lat="46.87247" lon="6.39577">
        <ele>868.9</ele>
        <time>2021-08-14T10:14:28Z</time>
      </trkpt>
      <trkpt lat="46.87246" lon="6.39584">
        <ele>869</ele>
        <time>2021-08-14T10:14:29Z</time>
      </trkpt>
      <trkpt lat="46.87246" lon="6.39591">
        <ele>869</ele>
        <time>2021-08-14T10:14:30Z</time>
      </trkpt>
      <trkpt lat="46.87247" lon="6.39602">
        <ele>869.1</ele>
        <time>2021-08-14T10:14:32Z</time>
      </trkpt>
      <trkpt lat="46.87248" lon="6.39616">
        <ele>869.2</ele>
        <time>2021-08-14T10:14:34Z</time>
      </trkpt>
      <trkpt lat="46.87248" lon="6.39621">
        <ele>869.2</ele>
        <time>2021-08-14T10:14:35Z</time>
      </trkpt>
      <trkpt lat="46.87248" lon="6.39627">
        <ele>869.3</ele>
        <time>2021-08-14T10:14:36Z</time>
      </trkpt>
      <trkpt lat="46.87245" lon="6.39639">
        <ele>869.5</ele>
        <time>2021-08-14T10:14:38Z</time>
      </trkpt>
      <trkpt lat="46.87243" lon="6.39652">
        <ele>869.7</ele>
        <time>2021-08-14T10:14:39Z</time>
      </trkpt>
      <trkpt lat="46.8724" lon="6.39656">
        <ele>869.8</ele>
        <time>2021-08-14T10:14:40Z</time>
      </trkpt>
      <trkpt lat="46.87238" lon="6.39661">
        <ele>869.9</ele>
        <time>2021-08-14T10:14:41Z</time>
      </trkpt>
      <trkpt lat="46.87236" lon="6.39666">
        <ele>870</ele>
        <time>2021-08-14T10:14:43Z</time>
      </trkpt>
      <trkpt lat="46.87234" lon="6.3967">
        <ele>870.2</ele>
        <time>2021-08-14T10:14:44Z</time>
      </trkpt>
      <trkpt lat="46.87233" lon="6.39674">
        <ele>870.2</ele>
        <time>2021-08-14T10:14:45Z</time>
      </trkpt>
      <trkpt lat="46.87231" lon="6.39679">
        <ele>870.4</ele>
        <time>2021-08-14T10:14:46Z</time>
      </trkpt>
      <trkpt lat="46.87229" lon="6.39683">
        <ele>870.5</ele>
        <time>2021-08-14T10:14:47Z</time>
      </trkpt>
      <trkpt lat="46.87226" lon="6.39687">
        <ele>870.6</ele>
        <time>2021-08-14T10:14:49Z</time>
      </trkpt>
      <trkpt lat="46.87225" lon="6.39691">
        <ele>870.7</ele>
        <time>2021-08-14T10:14:50Z</time>
      </trkpt>
      <trkpt lat="46.87222" lon="6.39694">
        <ele>870.9</ele>
        <time>2021-08-14T10:14:51Z</time>
      </trkpt>
      <trkpt lat="46.87217" lon="6.39696">
        <ele>871.1</ele>
        <time>2021-08-14T10:14:53Z</time>
      </trkpt>
      <trkpt lat="46.87216" lon="6.39698">
        <ele>871.2</ele>
        <time>2021-08-14T10:14:54Z</time>
      </trkpt>
      <trkpt lat="46.87217" lon="6.39699">
        <ele>871.2</ele>
        <time>2021-08-14T10:14:55Z</time>
      </trkpt>
      <trkpt lat="46.87217" lon="6.39699">
        <ele>871.2</ele>
        <time>2021-08-14T10:14:57Z</time>
      </trkpt>
      <trkpt lat="46.87217" lon="6.39701">
        <ele>871.3</ele>
        <time>2021-08-14T10:14:58Z</time>
      </trkpt>
      <trkpt lat="46.87217" lon="6.39704">
        <ele>871.4</ele>
        <time>2021-08-14T10:14:59Z</time>
      </trkpt>
      <trkpt lat="46.87217" lon="6.39705">
        <ele>871.4</ele>
        <time>2021-08-14T10:15:00Z</time>
      </trkpt>
      <trkpt lat="46.87217" lon="6.39707">
        <ele>871.5</ele>
        <time>2021-08-14T10:15:01Z</time>
      </trkpt>
      <trkpt lat="46.87215" lon="6.3971">
        <ele>871.6</ele>
        <time>2021-08-14T10:15:02Z</time>
      </trkpt>
      <trkpt lat="46.87214" lon="6.3971">
        <ele>871.7</ele>
        <time>2021-08-14T10:15:03Z</time>
      </trkpt>
      <trkpt lat="46.87212" lon="6.39711">
        <ele>871.8</ele>
        <time>2021-08-14T10:15:05Z</time>
      </trkpt>
      <trkpt lat="46.87208" lon="6.39713">
        <ele>872</ele>
        <time>2021-08-14T10:15:07Z</time>
      </trkpt>
      <trkpt lat="46.87205" lon="6.39717">
        <ele>872.2</ele>
        <time>2021-08-14T10:15:08Z</time>
      </trkpt>
      <trkpt lat="46.87204" lon="6.39718">
        <ele>872.3</ele>
        <time>2021-08-14T10:15:10Z</time>
      </trkpt>
      <trkpt lat="46.87202" lon="6.39719">
        <ele>872.4</ele>
        <time>2021-08-14T10:15:11Z</time>
      </trkpt>
      <trkpt lat="46.87199" lon="6.39719">
        <ele>872.6</ele>
        <time>2021-08-14T10:15:12Z</time>
      </trkpt>
      <trkpt lat="46.87198" lon="6.39718">
        <ele>872.6</ele>
        <time>2021-08-14T10:15:13Z</time>
      </trkpt>
      <trkpt lat="46.87196" lon="6.39717">
        <ele>872.7</ele>
        <time>2021-08-14T10:15:14Z</time>
      </trkpt>
      <trkpt lat="46.87192" lon="6.39716">
        <ele>873</ele>
        <time>2021-08-14T10:15:15Z</time>
      </trkpt>
      <trkpt lat="46.87189" lon="6.39715">
        <ele>873.2</ele>
        <time>2021-08-14T10:15:16Z</time>
      </trkpt>
      <trkpt lat="46.87186" lon="6.39715">
        <ele>873.3</ele>
        <time>2021-08-14T10:15:17Z</time>
      </trkpt>
      <trkpt lat="46.87184" lon="6.39716">
        <ele>873.5</ele>
        <time>2021-08-14T10:15:18Z</time>
      </trkpt>
      <trkpt lat="46.87181" lon="6.3972">
        <ele>873.7</ele>
        <time>2021-08-14T10:15:19Z</time>
      </trkpt>
      <trkpt lat="46.8718" lon="6.39721">
        <ele>873.8</ele>
        <time>2021-08-14T10:15:20Z</time>
      </trkpt>
      <trkpt lat="46.87178" lon="6.39726">
        <ele>874</ele>
        <time>2021-08-14T10:15:21Z</time>
      </trkpt>
      <trkpt lat="46.87177" lon="6.39727">
        <ele>874</ele>
        <time>2021-08-14T10:15:22Z</time>
      </trkpt>
      <trkpt lat="46.87176" lon="6.3973">
        <ele>874.2</ele>
        <time>2021-08-14T10:15:23Z</time>
      </trkpt>
      <trkpt lat="46.87175" lon="6.39732">
        <ele>874.3</ele>
        <time>2021-08-14T10:15:25Z</time>
      </trkpt>
      <trkpt lat="46.87175" lon="6.39738">
        <ele>874.5</ele>
        <time>2021-08-14T10:15:26Z</time>
      </trkpt>
      <trkpt lat="46.87175" lon="6.3974">
        <ele>874.6</ele>
        <time>2021-08-14T10:15:27Z</time>
      </trkpt>
      <trkpt lat="46.87174" lon="6.39746">
        <ele>874.9</ele>
        <time>2021-08-14T10:15:29Z</time>
      </trkpt>
      <trkpt lat="46.87173" lon="6.39749">
        <ele>875</ele>
        <time>2021-08-14T10:15:30Z</time>
      </trkpt>
      <trkpt lat="46.87172" lon="6.39751">
        <ele>875.1</ele>
        <time>2021-08-14T10:15:31Z</time>
      </trkpt>
      <trkpt lat="46.87171" lon="6.39753">
        <ele>875.3</ele>
        <time>2021-08-14T10:15:32Z</time>
      </trkpt>
      <trkpt lat="46.87168" lon="6.39755">
        <ele>875.4</ele>
        <time>2021-08-14T10:15:34Z</time>
      </trkpt>
      <trkpt lat="46.87167" lon="6.39756">
        <ele>875.5</ele>
        <time>2021-08-14T10:15:36Z</time>
      </trkpt>
      <trkpt lat="46.87167" lon="6.39758">
        <ele>875.6</ele>
        <time>2021-08-14T10:15:37Z</time>
      </trkpt>
      <trkpt lat="46.87167" lon="6.39761">
        <ele>875.7</ele>
        <time>2021-08-14T10:15:38Z</time>
      </trkpt>
      <trkpt lat="46.87167" lon="6.39764">
        <ele>875.9</ele>
        <time>2021-08-14T10:15:40Z</time>
      </trkpt>
      <trkpt lat="46.87165" lon="6.39768">
        <ele>876.1</ele>
        <time>2021-08-14T10:15:41Z</time>
      </trkpt>
      <trkpt lat="46.87164" lon="6.39769">
        <ele>876.2</ele>
        <time>2021-08-14T10:15:42Z</time>
      </trkpt>
      <trkpt lat="46.87163" lon="6.39773">
        <ele>876.4</ele>
        <time>2021-08-14T10:15:43Z</time>
      </trkpt>
      <trkpt lat="46.87162" lon="6.39777">
        <ele>876.6</ele>
        <time>2021-08-14T10:15:44Z</time>
      </trkpt>
      <trkpt lat="46.87162" lon="6.39779">
        <ele>876.7</ele>
        <time>2021-08-14T10:15:45Z</time>
      </trkpt>
      <trkpt lat="46.87161" lon="6.39782">
        <ele>876.8</ele>
        <time>2021-08-14T10:15:46Z</time>
      </trkpt>
      <trkpt lat="46.8716" lon="6.39785">
        <ele>877</ele>
        <time>2021-08-14T10:15:48Z</time>
      </trkpt>
      <trkpt lat="46.87158" lon="6.39789">
        <ele>877.2</ele>
        <time>2021-08-14T10:15:49Z</time>
      </trkpt>
      <trkpt lat="46.87158" lon="6.3979">
        <ele>877.3</ele>
        <time>2021-08-14T10:15:50Z</time>
      </trkpt>
      <trkpt lat="46.87157" lon="6.39796">
        <ele>877.5</ele>
        <time>2021-08-14T10:15:52Z</time>
      </trkpt>
      <trkpt lat="46.8716" lon="6.398">
        <ele>877.8</ele>
        <time>2021-08-14T10:15:53Z</time>
      </trkpt>
      <trkpt lat="46.87162" lon="6.39801">
        <ele>877.9</ele>
        <time>2021-08-14T10:15:54Z</time>
      </trkpt>
      <trkpt lat="46.87169" lon="6.39802">
        <ele>878.4</ele>
        <time>2021-08-14T10:15:55Z</time>
      </trkpt>
      <trkpt lat="46.87171" lon="6.39803">
        <ele>878.6</ele>
        <time>2021-08-14T10:15:56Z</time>
      </trkpt>
      <trkpt lat="46.87171" lon="6.39804">
        <ele>878.6</ele>
        <time>2021-08-14T10:15:57Z</time>
      </trkpt>
      <trkpt lat="46.87171" lon="6.39805">
        <ele>878.6</ele>
        <time>2021-08-14T10:15:58Z</time>
      </trkpt>
      <trkpt lat="46.8717" lon="6.39806">
        <ele>878.7</ele>
        <time>2021-08-14T10:16:00Z</time>
      </trkpt>
      <trkpt lat="46.87169" lon="6.39807">
        <ele>878.8</ele>
        <time>2021-08-14T10:16:01Z</time>
      </trkpt>
      <trkpt lat="46.87169" lon="6.39807">
        <ele>878.9</ele>
        <time>2021-08-14T10:16:02Z</time>
      </trkpt>
      <trkpt lat="46.87168" lon="6.39809">
        <ele>879</ele>
        <time>2021-08-14T10:16:03Z</time>
      </trkpt>
      <trkpt lat="46.87165" lon="6.39815">
        <ele>879.5</ele>
        <time>2021-08-14T10:16:06Z</time>
      </trkpt>
      <trkpt lat="46.87163" lon="6.39818">
        <ele>879.7</ele>
        <time>2021-08-14T10:16:08Z</time>
      </trkpt>
      <trkpt lat="46.87162" lon="6.39818">
        <ele>879.8</ele>
        <time>2021-08-14T10:16:09Z</time>
      </trkpt>
      <trkpt lat="46.87162" lon="6.39818">
        <ele>879.8</ele>
        <time>2021-08-14T10:16:11Z</time>
      </trkpt>
      <trkpt lat="46.87161" lon="6.39819">
        <ele>879.9</ele>
        <time>2021-08-14T10:16:12Z</time>
      </trkpt>
      <trkpt lat="46.87161" lon="6.39822">
        <ele>880</ele>
        <time>2021-08-14T10:16:13Z</time>
      </trkpt>
      <trkpt lat="46.87162" lon="6.39824">
        <ele>880.2</ele>
        <time>2021-08-14T10:16:15Z</time>
      </trkpt>
      <trkpt lat="46.87162" lon="6.39826">
        <ele>880.3</ele>
        <time>2021-08-14T10:16:16Z</time>
      </trkpt>
      <trkpt lat="46.87162" lon="6.39827">
        <ele>880.3</ele>
        <time>2021-08-14T10:16:17Z</time>
      </trkpt>
      <trkpt lat="46.87163" lon="6.39828">
        <ele>880.4</ele>
        <time>2021-08-14T10:16:18Z</time>
      </trkpt>
      <trkpt lat="46.87164" lon="6.3983">
        <ele>880.5</ele>
        <time>2021-08-14T10:16:19Z</time>
      </trkpt>
      <trkpt lat="46.87164" lon="6.39831">
        <ele>880.7</ele>
        <time>2021-08-14T10:16:20Z</time>
      </trkpt>
      <trkpt lat="46.87165" lon="6.39832">
        <ele>880.7</ele>
        <time>2021-08-14T10:16:22Z</time>
      </trkpt>
      <trkpt lat="46.87165" lon="6.39833">
        <ele>880.8</ele>
        <time>2021-08-14T10:16:23Z</time>
      </trkpt>
      <trkpt lat="46.87166" lon="6.39835">
        <ele>880.9</ele>
        <time>2021-08-14T10:16:24Z</time>
      </trkpt>
      <trkpt lat="46.87169" lon="6.3984">
        <ele>881.3</ele>
        <time>2021-08-14T10:16:26Z</time>
      </trkpt>
      <trkpt lat="46.87171" lon="6.39845">
        <ele>881.6</ele>
        <time>2021-08-14T10:16:27Z</time>
      </trkpt>
      <trkpt lat="46.87173" lon="6.39849">
        <ele>881.9</ele>
        <time>2021-08-14T10:16:28Z</time>
      </trkpt>
      <trkpt lat="46.87178" lon="6.39858">
        <ele>882.5</ele>
        <time>2021-08-14T10:16:30Z</time>
      </trkpt>
      <trkpt lat="46.87179" lon="6.39861">
        <ele>882.7</ele>
        <time>2021-08-14T10:16:31Z</time>
      </trkpt>
      <trkpt lat="46.8718" lon="6.39862">
        <ele>882.8</ele>
        <time>2021-08-14T10:16:32Z</time>
      </trkpt>
      <trkpt lat="46.8718" lon="6.39862">
        <ele>882.8</ele>
        <time>2021-08-14T10:16:34Z</time>
      </trkpt>
      <trkpt lat="46.8718" lon="6.39862">
        <ele>882.8</ele>
        <time>2021-08-14T10:16:35Z</time>
      </trkpt>
      <trkpt lat="46.8718" lon="6.39863">
        <ele>882.9</ele>
        <time>2021-08-14T10:16:36Z</time>
      </trkpt>
      <trkpt lat="46.87182" lon="6.39866">
        <ele>883.1</ele>
        <time>2021-08-14T10:16:38Z</time>
      </trkpt>
      <trkpt lat="46.87184" lon="6.39867">
        <ele>883.3</ele>
        <time>2021-08-14T10:16:39Z</time>
      </trkpt>
      <trkpt lat="46.87185" lon="6.39868">
        <ele>883.4</ele>
        <time>2021-08-14T10:16:40Z</time>
      </trkpt>
      <trkpt lat="46.87187" lon="6.39869">
        <ele>883.6</ele>
        <time>2021-08-14T10:16:42Z</time>
      </trkpt>
      <trkpt lat="46.8719" lon="6.3987">
        <ele>883.8</ele>
        <time>2021-08-14T10:16:43Z</time>
      </trkpt>
      <trkpt lat="46.87191" lon="6.3987">
        <ele>883.9</ele>
        <time>2021-08-14T10:16:44Z</time>
      </trkpt>
      <trkpt lat="46.87193" lon="6.39871">
        <ele>884</ele>
        <time>2021-08-14T10:16:46Z</time>
      </trkpt>
      <trkpt lat="46.87193" lon="6.39871">
        <ele>884.1</ele>
        <time>2021-08-14T10:16:47Z</time>
      </trkpt>
      <trkpt lat="46.87194" lon="6.39871">
        <ele>884.1</ele>
        <time>2021-08-14T10:16:48Z</time>
      </trkpt>
      <trkpt lat="46.87195" lon="6.39872">
        <ele>884.2</ele>
        <time>2021-08-14T10:16:49Z</time>
      </trkpt>
      <trkpt lat="46.87195" lon="6.39872">
        <ele>884.2</ele>
        <time>2021-08-14T10:16:50Z</time>
      </trkpt>
      <trkpt lat="46.87196" lon="6.39873">
        <ele>884.3</ele>
        <time>2021-08-14T10:16:52Z</time>
      </trkpt>
      <trkpt lat="46.87196" lon="6.39873">
        <ele>884.3</ele>
        <time>2021-08-14T10:16:53Z</time>
      </trkpt>
      <trkpt lat="46.87197" lon="6.39874">
        <ele>884.4</ele>
        <time>2021-08-14T10:16:54Z</time>
      </trkpt>
      <trkpt lat="46.87197" lon="6.39874">
        <ele>884.4</ele>
        <time>2021-08-14T10:16:55Z</time>
      </trkpt>
      <trkpt lat="46.87197" lon="6.39874">
        <ele>884.4</ele>
        <time>2021-08-14T10:16:56Z</time>
      </trkpt>
      <trkpt lat="46.87197" lon="6.39874">
        <ele>884.4</ele>
        <time>2021-08-14T10:16:57Z</time>
      </trkpt>
      <trkpt lat="46.87198" lon="6.39875">
        <ele>884.5</ele>
        <time>2021-08-14T10:16:58Z</time>
      </trkpt>
      <trkpt lat="46.87198" lon="6.39877">
        <ele>884.6</ele>
        <time>2021-08-14T10:16:59Z</time>
      </trkpt>
      <trkpt lat="46.872" lon="6.39878">
        <ele>884.7</ele>
        <time>2021-08-14T10:17:00Z</time>
      </trkpt>
      <trkpt lat="46.87201" lon="6.3988">
        <ele>884.8</ele>
        <time>2021-08-14T10:17:01Z</time>
      </trkpt>
      <trkpt lat="46.87202" lon="6.39882">
        <ele>885</ele>
        <time>2021-08-14T10:17:03Z</time>
      </trkpt>
      <trkpt lat="46.87202" lon="6.39884">
        <ele>885</ele>
        <time>2021-08-14T10:17:04Z</time>
      </trkpt>
      <trkpt lat="46.87202" lon="6.39886">
        <ele>885.2</ele>
        <time>2021-08-14T10:17:05Z</time>
      </trkpt>
      <trkpt lat="46.87202" lon="6.39887">
        <ele>885.2</ele>
        <time>2021-08-14T10:17:06Z</time>
      </trkpt>
      <trkpt lat="46.87203" lon="6.39888">
        <ele>885.3</ele>
        <time>2021-08-14T10:17:07Z</time>
      </trkpt>
      <trkpt lat="46.87203" lon="6.39889">
        <ele>885.4</ele>
        <time>2021-08-14T10:17:08Z</time>
      </trkpt>
      <trkpt lat="46.87205" lon="6.399">
        <ele>885.9</ele>
        <time>2021-08-14T10:17:09Z</time>
      </trkpt>
      <trkpt lat="46.87206" lon="6.39904">
        <ele>886.2</ele>
        <time>2021-08-14T10:17:10Z</time>
      </trkpt>
      <trkpt lat="46.87207" lon="6.39906">
        <ele>886.3</ele>
        <time>2021-08-14T10:17:12Z</time>
      </trkpt>
      <trkpt lat="46.87207" lon="6.39907">
        <ele>886.3</ele>
        <time>2021-08-14T10:17:13Z</time>
      </trkpt>
      <trkpt lat="46.87208" lon="6.39908">
        <ele>886.4</ele>
        <time>2021-08-14T10:17:14Z</time>
      </trkpt>
      <trkpt lat="46.87208" lon="6.39909">
        <ele>886.5</ele>
        <time>2021-08-14T10:17:15Z</time>
      </trkpt>
      <trkpt lat="46.87208" lon="6.3991">
        <ele>886.5</ele>
        <time>2021-08-14T10:17:16Z</time>
      </trkpt>
      <trkpt lat="46.87209" lon="6.3991">
        <ele>886.6</ele>
        <time>2021-08-14T10:17:17Z</time>
      </trkpt>
      <trkpt lat="46.8721" lon="6.3991">
        <ele>886.6</ele>
        <time>2021-08-14T10:17:18Z</time>
      </trkpt>
      <trkpt lat="46.87214" lon="6.39914">
        <ele>887</ele>
        <time>2021-08-14T10:17:19Z</time>
      </trkpt>
      <trkpt lat="46.87218" lon="6.39918">
        <ele>887.3</ele>
        <time>2021-08-14T10:17:36Z</time>
      </trkpt>
      <trkpt lat="46.87221" lon="6.39922">
        <ele>887.6</ele>
        <time>2021-08-14T10:17:37Z</time>
      </trkpt>
      <trkpt lat="46.87225" lon="6.39926">
        <ele>888</ele>
        <time>2021-08-14T10:17:38Z</time>
      </trkpt>
      <trkpt lat="46.87227" lon="6.39926">
        <ele>888.1</ele>
        <time>2021-08-14T10:17:39Z</time>
      </trkpt>
      <trkpt lat="46.87228" lon="6.39927">
        <ele>888.2</ele>
        <time>2021-08-14T10:17:40Z</time>
      </trkpt>
      <trkpt lat="46.87229" lon="6.39927">
        <ele>888.3</ele>
        <time>2021-08-14T10:17:41Z</time>
      </trkpt>
      <trkpt lat="46.8723" lon="6.39928">
        <ele>888.4</ele>
        <time>2021-08-14T10:17:42Z</time>
      </trkpt>
      <trkpt lat="46.87231" lon="6.39928">
        <ele>888.4</ele>
        <time>2021-08-14T10:17:43Z</time>
      </trkpt>
      <trkpt lat="46.87231" lon="6.39928">
        <ele>888.4</ele>
        <time>2021-08-14T10:17:44Z</time>
      </trkpt>
      <trkpt lat="46.87231" lon="6.39928">
        <ele>888.4</ele>
        <time>2021-08-14T10:17:46Z</time>
      </trkpt>
      <trkpt lat="46.87231" lon="6.39928">
        <ele>888.5</ele>
        <time>2021-08-14T10:17:47Z</time>
      </trkpt>
      <trkpt lat="46.87232" lon="6.39927">
        <ele>888.5</ele>
        <time>2021-08-14T10:17:49Z</time>
      </trkpt>
      <trkpt lat="46.87254" lon="6.40039">
        <ele>894.8</ele>
        <time>2021-08-14T10:18:54Z</time>
      </trkpt>
      <trkpt lat="46.87256" lon="6.40043">
        <ele>895</ele>
        <time>2021-08-14T10:18:55Z</time>
      </trkpt>
      <trkpt lat="46.87259" lon="6.40045">
        <ele>895.3</ele>
        <time>2021-08-14T10:18:57Z</time>
      </trkpt>
      <trkpt lat="46.87262" lon="6.40046">
        <ele>895.5</ele>
        <time>2021-08-14T10:18:58Z</time>
      </trkpt>
      <trkpt lat="46.87264" lon="6.40048">
        <ele>895.7</ele>
        <time>2021-08-14T10:19:00Z</time>
      </trkpt>
      <trkpt lat="46.87265" lon="6.40049">
        <ele>895.8</ele>
        <time>2021-08-14T10:19:02Z</time>
      </trkpt>
      <trkpt lat="46.87266" lon="6.40051">
        <ele>895.9</ele>
        <time>2021-08-14T10:19:03Z</time>
      </trkpt>
      <trkpt lat="46.87266" lon="6.40053">
        <ele>896</ele>
        <time>2021-08-14T10:19:04Z</time>
      </trkpt>
      <trkpt lat="46.87267" lon="6.40057">
        <ele>896.2</ele>
        <time>2021-08-14T10:19:05Z</time>
      </trkpt>
      <trkpt lat="46.87268" lon="6.40059">
        <ele>896.3</ele>
        <time>2021-08-14T10:19:06Z</time>
      </trkpt>
      <trkpt lat="46.87268" lon="6.40065">
        <ele>896.6</ele>
        <time>2021-08-14T10:19:08Z</time>
      </trkpt>
      <trkpt lat="46.87268" lon="6.40067">
        <ele>896.7</ele>
        <time>2021-08-14T10:19:09Z</time>
      </trkpt>
      <trkpt lat="46.8727" lon="6.40068">
        <ele>896.8</ele>
        <time>2021-08-14T10:19:10Z</time>
      </trkpt>
      <trkpt lat="46.87271" lon="6.4007">
        <ele>896.9</ele>
        <time>2021-08-14T10:19:11Z</time>
      </trkpt>
      <trkpt lat="46.87272" lon="6.40076">
        <ele>897.2</ele>
        <time>2021-08-14T10:19:13Z</time>
      </trkpt>
      <trkpt lat="46.87272" lon="6.40081">
        <ele>897.5</ele>
        <time>2021-08-14T10:19:14Z</time>
      </trkpt>
      <trkpt lat="46.87273" lon="6.40086">
        <ele>897.8</ele>
        <time>2021-08-14T10:19:16Z</time>
      </trkpt>
      <trkpt lat="46.87273" lon="6.40093">
        <ele>898.2</ele>
        <time>2021-08-14T10:19:18Z</time>
      </trkpt>
      <trkpt lat="46.87272" lon="6.40101">
        <ele>898.6</ele>
        <time>2021-08-14T10:19:20Z</time>
      </trkpt>
      <trkpt lat="46.87271" lon="6.40106">
        <ele>898.9</ele>
        <time>2021-08-14T10:19:21Z</time>
      </trkpt>
      <trkpt lat="46.8727" lon="6.40111">
        <ele>899.1</ele>
        <time>2021-08-14T10:19:22Z</time>
      </trkpt>
      <trkpt lat="46.8727" lon="6.40112">
        <ele>899.2</ele>
        <time>2021-08-14T10:19:23Z</time>
      </trkpt>
      <trkpt lat="46.8727" lon="6.40112">
        <ele>899.2</ele>
        <time>2021-08-14T10:19:24Z</time>
      </trkpt>
      <trkpt lat="46.8727" lon="6.40117">
        <ele>899.5</ele>
        <time>2021-08-14T10:19:26Z</time>
      </trkpt>
      <trkpt lat="46.87271" lon="6.40119">
        <ele>899.6</ele>
        <time>2021-08-14T10:19:27Z</time>
      </trkpt>
      <trkpt lat="46.87271" lon="6.40123">
        <ele>899.8</ele>
        <time>2021-08-14T10:19:29Z</time>
      </trkpt>
      <trkpt lat="46.87271" lon="6.40127">
        <ele>900.1</ele>
        <time>2021-08-14T10:19:31Z</time>
      </trkpt>
      <trkpt lat="46.87271" lon="6.40129">
        <ele>900.2</ele>
        <time>2021-08-14T10:19:33Z</time>
      </trkpt>
      <trkpt lat="46.87272" lon="6.40132">
        <ele>900.3</ele>
        <time>2021-08-14T10:19:34Z</time>
      </trkpt>
      <trkpt lat="46.87274" lon="6.40133">
        <ele>900.5</ele>
        <time>2021-08-14T10:19:36Z</time>
      </trkpt>
      <trkpt lat="46.87274" lon="6.40134">
        <ele>900.6</ele>
        <time>2021-08-14T10:19:38Z</time>
      </trkpt>
      <trkpt lat="46.87274" lon="6.40134">
        <ele>900.6</ele>
        <time>2021-08-14T10:19:39Z</time>
      </trkpt>
      <trkpt lat="46.87273" lon="6.40134">
        <ele>900.6</ele>
        <time>2021-08-14T10:19:40Z</time>
      </trkpt>
      <trkpt lat="46.87273" lon="6.40135">
        <ele>900.7</ele>
        <time>2021-08-14T10:19:41Z</time>
      </trkpt>
      <trkpt lat="46.87274" lon="6.40137">
        <ele>900.8</ele>
        <time>2021-08-14T10:19:43Z</time>
      </trkpt>
      <trkpt lat="46.87273" lon="6.40137">
        <ele>900.8</ele>
        <time>2021-08-14T10:19:44Z</time>
      </trkpt>
      <trkpt lat="46.87273" lon="6.40137">
        <ele>900.9</ele>
        <time>2021-08-14T10:19:46Z</time>
      </trkpt>
      <trkpt lat="46.87272" lon="6.40137">
        <ele>901</ele>
        <time>2021-08-14T10:19:48Z</time>
      </trkpt>
      <trkpt lat="46.87272" lon="6.40138">
        <ele>901</ele>
        <time>2021-08-14T10:19:49Z</time>
      </trkpt>
      <trkpt lat="46.87273" lon="6.4014">
        <ele>901.1</ele>
        <time>2021-08-14T10:19:51Z</time>
      </trkpt>
      <trkpt lat="46.87274" lon="6.40143">
        <ele>901.3</ele>
        <time>2021-08-14T10:19:53Z</time>
      </trkpt>
      <trkpt lat="46.87278" lon="6.40156">
        <ele>902.1</ele>
        <time>2021-08-14T10:19:57Z</time>
      </trkpt>
      <trkpt lat="46.87279" lon="6.40159">
        <ele>902.2</ele>
        <time>2021-08-14T10:19:59Z</time>
      </trkpt>
      <trkpt lat="46.8728" lon="6.40162">
        <ele>902.4</ele>
        <time>2021-08-14T10:20:01Z</time>
      </trkpt>
      <trkpt lat="46.8728" lon="6.40164">
        <ele>902.5</ele>
        <time>2021-08-14T10:20:02Z</time>
      </trkpt>
      <trkpt lat="46.87281" lon="6.40165">
        <ele>902.6</ele>
        <time>2021-08-14T10:20:04Z</time>
      </trkpt>
      <trkpt lat="46.87281" lon="6.40168">
        <ele>902.7</ele>
        <time>2021-08-14T10:20:05Z</time>
      </trkpt>
      <trkpt lat="46.87282" lon="6.4017">
        <ele>902.8</ele>
        <time>2021-08-14T10:20:06Z</time>
      </trkpt>
      <trkpt lat="46.87282" lon="6.40171">
        <ele>902.9</ele>
        <time>2021-08-14T10:20:07Z</time>
      </trkpt>
      <trkpt lat="46.87282" lon="6.40172">
        <ele>903</ele>
        <time>2021-08-14T10:20:08Z</time>
      </trkpt>
      <trkpt lat="46.87282" lon="6.40174">
        <ele>903.1</ele>
        <time>2021-08-14T10:20:09Z</time>
      </trkpt>
      <trkpt lat="46.87283" lon="6.40175">
        <ele>903.1</ele>
        <time>2021-08-14T10:20:11Z</time>
      </trkpt>
      <trkpt lat="46.87283" lon="6.40177">
        <ele>903.2</ele>
        <time>2021-08-14T10:20:12Z</time>
      </trkpt>
      <trkpt lat="46.87284" lon="6.40178">
        <ele>903.3</ele>
        <time>2021-08-14T10:20:13Z</time>
      </trkpt>
      <trkpt lat="46.87285" lon="6.40179">
        <ele>903.4</ele>
        <time>2021-08-14T10:20:15Z</time>
      </trkpt>
      <trkpt lat="46.87285" lon="6.4018">
        <ele>903.4</ele>
        <time>2021-08-14T10:20:16Z</time>
      </trkpt>
      <trkpt lat="46.87286" lon="6.40181">
        <ele>903.5</ele>
        <time>2021-08-14T10:20:18Z</time>
      </trkpt>
      <trkpt lat="46.87286" lon="6.40182">
        <ele>903.6</ele>
        <time>2021-08-14T10:20:19Z</time>
      </trkpt>
      <trkpt lat="46.87287" lon="6.40183">
        <ele>903.6</ele>
        <time>2021-08-14T10:20:20Z</time>
      </trkpt>
      <trkpt lat="46.87287" lon="6.40184">
        <ele>903.7</ele>
        <time>2021-08-14T10:20:21Z</time>
      </trkpt>
      <trkpt lat="46.87287" lon="6.40185">
        <ele>903.8</ele>
        <time>2021-08-14T10:20:22Z</time>
      </trkpt>
      <trkpt lat="46.87288" lon="6.40186">
        <ele>903.8</ele>
        <time>2021-08-14T10:20:23Z</time>
      </trkpt>
      <trkpt lat="46.87288" lon="6.40188">
        <ele>903.9</ele>
        <time>2021-08-14T10:20:24Z</time>
      </trkpt>
      <trkpt lat="46.87289" lon="6.40191">
        <ele>904</ele>
        <time>2021-08-14T10:20:26Z</time>
      </trkpt>
      <trkpt lat="46.87289" lon="6.40193">
        <ele>904.2</ele>
        <time>2021-08-14T10:20:27Z</time>
      </trkpt>
      <trkpt lat="46.8729" lon="6.40194">
        <ele>904.3</ele>
        <time>2021-08-14T10:20:28Z</time>
      </trkpt>
      <trkpt lat="46.8729" lon="6.40196">
        <ele>904.3</ele>
        <time>2021-08-14T10:20:29Z</time>
      </trkpt>
      <trkpt lat="46.8729" lon="6.40197">
        <ele>904.4</ele>
        <time>2021-08-14T10:20:30Z</time>
      </trkpt>
      <trkpt lat="46.8729" lon="6.40198">
        <ele>904.4</ele>
        <time>2021-08-14T10:20:31Z</time>
      </trkpt>
      <trkpt lat="46.87289" lon="6.402">
        <ele>904.5</ele>
        <time>2021-08-14T10:20:33Z</time>
      </trkpt>
      <trkpt lat="46.87289" lon="6.40202">
        <ele>904.6</ele>
        <time>2021-08-14T10:20:34Z</time>
      </trkpt>
      <trkpt lat="46.87288" lon="6.40203">
        <ele>904.8</ele>
        <time>2021-08-14T10:20:35Z</time>
      </trkpt>
      <trkpt lat="46.87287" lon="6.40205">
        <ele>904.9</ele>
        <time>2021-08-14T10:20:36Z</time>
      </trkpt>
      <trkpt lat="46.87286" lon="6.40208">
        <ele>905.1</ele>
        <time>2021-08-14T10:20:38Z</time>
      </trkpt>
      <trkpt lat="46.87283" lon="6.40214">
        <ele>905.4</ele>
        <time>2021-08-14T10:20:39Z</time>
      </trkpt>
      <trkpt lat="46.8728" lon="6.40216">
        <ele>905.7</ele>
        <time>2021-08-14T10:20:40Z</time>
      </trkpt>
      <trkpt lat="46.87275" lon="6.40222">
        <ele>906.2</ele>
        <time>2021-08-14T10:20:41Z</time>
      </trkpt>
      <trkpt lat="46.87272" lon="6.40224">
        <ele>906.5</ele>
        <time>2021-08-14T10:20:42Z</time>
      </trkpt>
      <trkpt lat="46.87269" lon="6.40225">
        <ele>906.7</ele>
        <time>2021-08-14T10:20:43Z</time>
      </trkpt>
      <trkpt lat="46.87267" lon="6.40226">
        <ele>906.8</ele>
        <time>2021-08-14T10:20:45Z</time>
      </trkpt>
      <trkpt lat="46.87266" lon="6.40226">
        <ele>906.9</ele>
        <time>2021-08-14T10:20:46Z</time>
      </trkpt>
      <trkpt lat="46.87263" lon="6.40227">
        <ele>907.2</ele>
        <time>2021-08-14T10:20:48Z</time>
      </trkpt>
      <trkpt lat="46.8726" lon="6.40228">
        <ele>907.5</ele>
        <time>2021-08-14T10:20:49Z</time>
      </trkpt>
      <trkpt lat="46.87258" lon="6.40228">
        <ele>907.6</ele>
        <time>2021-08-14T10:20:50Z</time>
      </trkpt>
      <trkpt lat="46.87262" lon="6.40313">
        <ele>911.8</ele>
        <time>2021-08-14T10:21:32Z</time>
      </trkpt>
      <trkpt lat="46.8726" lon="6.40317">
        <ele>912</ele>
        <time>2021-08-14T10:21:34Z</time>
      </trkpt>
      <trkpt lat="46.87258" lon="6.4032">
        <ele>912.2</ele>
        <time>2021-08-14T10:21:35Z</time>
      </trkpt>
      <trkpt lat="46.87256" lon="6.40321">
        <ele>912.4</ele>
        <time>2021-08-14T10:21:36Z</time>
      </trkpt>
      <trkpt lat="46.87253" lon="6.40323">
        <ele>912.6</ele>
        <time>2021-08-14T10:21:38Z</time>
      </trkpt>
      <trkpt lat="46.87253" lon="6.40324">
        <ele>912.7</ele>
        <time>2021-08-14T10:21:39Z</time>
      </trkpt>
      <trkpt lat="46.87252" lon="6.40324">
        <ele>912.7</ele>
        <time>2021-08-14T10:21:41Z</time>
      </trkpt>
      <trkpt lat="46.87252" lon="6.40325">
        <ele>912.8</ele>
        <time>2021-08-14T10:21:43Z</time>
      </trkpt>
      <trkpt lat="46.8725" lon="6.40327">
        <ele>912.9</ele>
        <time>2021-08-14T10:21:45Z</time>
      </trkpt>
      <trkpt lat="46.87237" lon="6.40364">
        <ele>915.2</ele>
        <time>2021-08-14T10:22:01Z</time>
      </trkpt>
      <trkpt lat="46.87237" lon="6.40371">
        <ele>915.5</ele>
        <time>2021-08-14T10:22:03Z</time>
      </trkpt>
      <trkpt lat="46.87238" lon="6.4038">
        <ele>915.9</ele>
        <time>2021-08-14T10:22:05Z</time>
      </trkpt>
      <trkpt lat="46.87239" lon="6.40383">
        <ele>916.1</ele>
        <time>2021-08-14T10:22:06Z</time>
      </trkpt>
      <trkpt lat="46.87242" lon="6.40389">
        <ele>916.3</ele>
        <time>2021-08-14T10:22:07Z</time>
      </trkpt>
      <trkpt lat="46.87245" lon="6.40393">
        <ele>916.6</ele>
        <time>2021-08-14T10:22:09Z</time>
      </trkpt>
      <trkpt lat="46.87246" lon="6.40394">
        <ele>916.6</ele>
        <time>2021-08-14T10:22:10Z</time>
      </trkpt>
      <trkpt lat="46.87249" lon="6.40396">
        <ele>916.8</ele>
        <time>2021-08-14T10:22:12Z</time>
      </trkpt>
      <trkpt lat="46.87249" lon="6.40399">
        <ele>916.9</ele>
        <time>2021-08-14T10:22:13Z</time>
      </trkpt>
      <trkpt lat="46.87248" lon="6.40401">
        <ele>917</ele>
        <time>2021-08-14T10:22:15Z</time>
      </trkpt>
      <trkpt lat="46.87247" lon="6.40405">
        <ele>917.1</ele>
        <time>2021-08-14T10:22:16Z</time>
      </trkpt>
      <trkpt lat="46.87246" lon="6.40406">
        <ele>917.2</ele>
        <time>2021-08-14T10:22:17Z</time>
      </trkpt>
      <trkpt lat="46.87244" lon="6.40411">
        <ele>917.4</ele>
        <time>2021-08-14T10:22:18Z</time>
      </trkpt>
      <trkpt lat="46.87242" lon="6.40417">
        <ele>917.6</ele>
        <time>2021-08-14T10:22:20Z</time>
      </trkpt>
      <trkpt lat="46.87241" lon="6.40419">
        <ele>917.7</ele>
        <time>2021-08-14T10:22:21Z</time>
      </trkpt>
      <trkpt lat="46.87239" lon="6.40422">
        <ele>917.8</ele>
        <time>2021-08-14T10:22:22Z</time>
      </trkpt>
      <trkpt lat="46.87237" lon="6.40426">
        <ele>917.9</ele>
        <time>2021-08-14T10:22:23Z</time>
      </trkpt>
      <trkpt lat="46.87235" lon="6.4043">
        <ele>918</ele>
        <time>2021-08-14T10:22:25Z</time>
      </trkpt>
      <trkpt lat="46.87233" lon="6.40434">
        <ele>918.1</ele>
        <time>2021-08-14T10:22:26Z</time>
      </trkpt>
      <trkpt lat="46.8723" lon="6.40439">
        <ele>918.3</ele>
        <time>2021-08-14T10:22:27Z</time>
      </trkpt>
      <trkpt lat="46.87228" lon="6.40444">
        <ele>918.4</ele>
        <time>2021-08-14T10:22:28Z</time>
      </trkpt>
      <trkpt lat="46.87226" lon="6.40447">
        <ele>918.5</ele>
        <time>2021-08-14T10:22:30Z</time>
      </trkpt>
      <trkpt lat="46.87222" lon="6.40456">
        <ele>918.6</ele>
        <time>2021-08-14T10:22:32Z</time>
      </trkpt>
      <trkpt lat="46.87216" lon="6.40466">
        <ele>918.7</ele>
        <time>2021-08-14T10:22:34Z</time>
      </trkpt>
      <trkpt lat="46.87213" lon="6.40471">
        <ele>918.8</ele>
        <time>2021-08-14T10:22:35Z</time>
      </trkpt>
      <trkpt lat="46.87206" lon="6.40479">
        <ele>918.8</ele>
        <time>2021-08-14T10:22:37Z</time>
      </trkpt>
      <trkpt lat="46.87198" lon="6.40484">
        <ele>918.8</ele>
        <time>2021-08-14T10:22:38Z</time>
      </trkpt>
      <trkpt lat="46.87191" lon="6.40491">
        <ele>918.8</ele>
        <time>2021-08-14T10:22:39Z</time>
      </trkpt>
      <trkpt lat="46.87186" lon="6.40498">
        <ele>918.8</ele>
        <time>2021-08-14T10:22:41Z</time>
      </trkpt>
      <trkpt lat="46.8718" lon="6.40503">
        <ele>918.8</ele>
        <time>2021-08-14T10:22:42Z</time>
      </trkpt>
      <trkpt lat="46.87176" lon="6.40507">
        <ele>918.9</ele>
        <time>2021-08-14T10:22:43Z</time>
      </trkpt>
      <trkpt lat="46.87172" lon="6.4051">
        <ele>918.9</ele>
        <time>2021-08-14T10:22:44Z</time>
      </trkpt>
      <trkpt lat="46.87166" lon="6.40515">
        <ele>919</ele>
        <time>2021-08-14T10:22:46Z</time>
      </trkpt>
      <trkpt lat="46.87162" lon="6.40518">
        <ele>919.1</ele>
        <time>2021-08-14T10:22:47Z</time>
      </trkpt>
      <trkpt lat="46.87155" lon="6.40521">
        <ele>919.2</ele>
        <time>2021-08-14T10:22:48Z</time>
      </trkpt>
      <trkpt lat="46.87149" lon="6.40522">
        <ele>919.3</ele>
        <time>2021-08-14T10:22:50Z</time>
      </trkpt>
      <trkpt lat="46.87145" lon="6.40524">
        <ele>919.4</ele>
        <time>2021-08-14T10:22:51Z</time>
      </trkpt>
      <trkpt lat="46.8714" lon="6.40526">
        <ele>919.5</ele>
        <time>2021-08-14T10:22:52Z</time>
      </trkpt>
      <trkpt lat="46.87134" lon="6.40528">
        <ele>919.6</ele>
        <time>2021-08-14T10:22:54Z</time>
      </trkpt>
      <trkpt lat="46.8713" lon="6.4053">
        <ele>919.7</ele>
        <time>2021-08-14T10:22:55Z</time>
      </trkpt>
      <trkpt lat="46.87125" lon="6.40535">
        <ele>919.8</ele>
        <time>2021-08-14T10:22:57Z</time>
      </trkpt>
      <trkpt lat="46.87123" lon="6.40538">
        <ele>919.9</ele>
        <time>2021-08-14T10:22:58Z</time>
      </trkpt>
      <trkpt lat="46.8712" lon="6.40541">
        <ele>920</ele>
        <time>2021-08-14T10:22:59Z</time>
      </trkpt>
      <trkpt lat="46.8712" lon="6.40542">
        <ele>920</ele>
        <time>2021-08-14T10:23:00Z</time>
      </trkpt>
      <trkpt lat="46.87117" lon="6.40546">
        <ele>920.1</ele>
        <time>2021-08-14T10:23:01Z</time>
      </trkpt>
      <trkpt lat="46.87116" lon="6.40547">
        <ele>920.1</ele>
        <time>2021-08-14T10:23:02Z</time>
      </trkpt>
      <trkpt lat="46.87114" lon="6.40549">
        <ele>920.2</ele>
        <time>2021-08-14T10:23:03Z</time>
      </trkpt>
      <trkpt lat="46.87113" lon="6.40551">
        <ele>920.2</ele>
        <time>2021-08-14T10:23:05Z</time>
      </trkpt>
      <trkpt lat="46.87115" lon="6.40555">
        <ele>920.3</ele>
        <time>2021-08-14T10:23:06Z</time>
      </trkpt>
      <trkpt lat="46.87116" lon="6.40557">
        <ele>920.3</ele>
        <time>2021-08-14T10:23:07Z</time>
      </trkpt>
      <trkpt lat="46.87118" lon="6.40561">
        <ele>920.4</ele>
        <time>2021-08-14T10:23:08Z</time>
      </trkpt>
      <trkpt lat="46.8712" lon="6.40563">
        <ele>920.5</ele>
        <time>2021-08-14T10:23:09Z</time>
      </trkpt>
      <trkpt lat="46.87122" lon="6.40568">
        <ele>920.6</ele>
        <time>2021-08-14T10:23:10Z</time>
      </trkpt>
      <trkpt lat="46.87123" lon="6.4057">
        <ele>920.7</ele>
        <time>2021-08-14T10:23:11Z</time>
      </trkpt>
      <trkpt lat="46.87125" lon="6.40574">
        <ele>920.8</ele>
        <time>2021-08-14T10:23:12Z</time>
      </trkpt>
      <trkpt lat="46.87127" lon="6.40579">
        <ele>920.9</ele>
        <time>2021-08-14T10:23:14Z</time>
      </trkpt>
      <trkpt lat="46.87132" lon="6.4059">
        <ele>921.2</ele>
        <time>2021-08-14T10:23:15Z</time>
      </trkpt>
      <trkpt lat="46.87134" lon="6.40595">
        <ele>921.4</ele>
        <time>2021-08-14T10:23:16Z</time>
      </trkpt>
      <trkpt lat="46.87135" lon="6.406">
        <ele>921.5</ele>
        <time>2021-08-14T10:23:18Z</time>
      </trkpt>
      <trkpt lat="46.87135" lon="6.40601">
        <ele>921.5</ele>
        <time>2021-08-14T10:23:19Z</time>
      </trkpt>
      <trkpt lat="46.87135" lon="6.406">
        <ele>921.5</ele>
        <time>2021-08-14T10:23:20Z</time>
      </trkpt>
      <trkpt lat="46.87136" lon="6.406">
        <ele>921.6</ele>
        <time>2021-08-14T10:23:21Z</time>
      </trkpt>
      <trkpt lat="46.87136" lon="6.40601">
        <ele>921.6</ele>
        <time>2021-08-14T10:23:22Z</time>
      </trkpt>
      <trkpt lat="46.87136" lon="6.40602">
        <ele>921.6</ele>
        <time>2021-08-14T10:23:23Z</time>
      </trkpt>
      <trkpt lat="46.87137" lon="6.40603">
        <ele>921.7</ele>
        <time>2021-08-14T10:23:24Z</time>
      </trkpt>
      <trkpt lat="46.87138" lon="6.40607">
        <ele>921.8</ele>
        <time>2021-08-14T10:23:26Z</time>
      </trkpt>
      <trkpt lat="46.8714" lon="6.4061">
        <ele>921.9</ele>
        <time>2021-08-14T10:23:27Z</time>
      </trkpt>
      <trkpt lat="46.87143" lon="6.40615">
        <ele>922</ele>
        <time>2021-08-14T10:23:29Z</time>
      </trkpt>
      <trkpt lat="46.87145" lon="6.40617">
        <ele>922.1</ele>
        <time>2021-08-14T10:23:30Z</time>
      </trkpt>
      <trkpt lat="46.87146" lon="6.40623">
        <ele>922.3</ele>
        <time>2021-08-14T10:23:32Z</time>
      </trkpt>
      <trkpt lat="46.87145" lon="6.40628">
        <ele>922.4</ele>
        <time>2021-08-14T10:23:33Z</time>
      </trkpt>
      <trkpt lat="46.87144" lon="6.40629">
        <ele>922.4</ele>
        <time>2021-08-14T10:23:35Z</time>
      </trkpt>
      <trkpt lat="46.87143" lon="6.40632">
        <ele>922.5</ele>
        <time>2021-08-14T10:23:36Z</time>
      </trkpt>
      <trkpt lat="46.87143" lon="6.40638">
        <ele>922.7</ele>
        <time>2021-08-14T10:23:37Z</time>
      </trkpt>
      <trkpt lat="46.87143" lon="6.40643">
        <ele>922.8</ele>
        <time>2021-08-14T10:23:38Z</time>
      </trkpt>
      <trkpt lat="46.87143" lon="6.40647">
        <ele>923</ele>
        <time>2021-08-14T10:23:39Z</time>
      </trkpt>
      <trkpt lat="46.87145" lon="6.40652">
        <ele>923.1</ele>
        <time>2021-08-14T10:23:40Z</time>
      </trkpt>
      <trkpt lat="46.87146" lon="6.40653">
        <ele>923.1</ele>
        <time>2021-08-14T10:23:41Z</time>
      </trkpt>
      <trkpt lat="46.87148" lon="6.40653">
        <ele>923.2</ele>
        <time>2021-08-14T10:23:43Z</time>
      </trkpt>
      <trkpt lat="46.87149" lon="6.40651">
        <ele>923.3</ele>
        <time>2021-08-14T10:23:45Z</time>
      </trkpt>
      <trkpt lat="46.87149" lon="6.4065">
        <ele>923.3</ele>
        <time>2021-08-14T10:23:46Z</time>
      </trkpt>
      <trkpt lat="46.87149" lon="6.40649">
        <ele>923.4</ele>
        <time>2021-08-14T10:23:47Z</time>
      </trkpt>
      <trkpt lat="46.87149" lon="6.40648">
        <ele>923.4</ele>
        <time>2021-08-14T10:23:48Z</time>
      </trkpt>
      <trkpt lat="46.87149" lon="6.40648">
        <ele>923.4</ele>
        <time>2021-08-14T10:23:49Z</time>
      </trkpt>
      <trkpt lat="46.87149" lon="6.40648">
        <ele>923.4</ele>
        <time>2021-08-14T10:23:51Z</time>
      </trkpt>
      <trkpt lat="46.87154" lon="6.40681">
        <ele>924.5</ele>
        <time>2021-08-14T10:24:10Z</time>
      </trkpt>
      <trkpt lat="46.87156" lon="6.40687">
        <ele>924.7</ele>
        <time>2021-08-14T10:24:11Z</time>
      </trkpt>
      <trkpt lat="46.87156" lon="6.40692">
        <ele>924.9</ele>
        <time>2021-08-14T10:24:12Z</time>
      </trkpt>
      <trkpt lat="46.8716" lon="6.40703">
        <ele>925.3</ele>
        <time>2021-08-14T10:24:13Z</time>
      </trkpt>
      <trkpt lat="46.87164" lon="6.40715">
        <ele>925.8</ele>
        <time>2021-08-14T10:24:14Z</time>
      </trkpt>
      <trkpt lat="46.87165" lon="6.40721">
        <ele>926</ele>
        <time>2021-08-14T10:24:15Z</time>
      </trkpt>
      <trkpt lat="46.87167" lon="6.40726">
        <ele>926.2</ele>
        <time>2021-08-14T10:24:16Z</time>
      </trkpt>
      <trkpt lat="46.87169" lon="6.4073">
        <ele>926.4</ele>
        <time>2021-08-14T10:24:17Z</time>
      </trkpt>
      <trkpt lat="46.8717" lon="6.40733">
        <ele>926.5</ele>
        <time>2021-08-14T10:24:18Z</time>
      </trkpt>
      <trkpt lat="46.87171" lon="6.40735">
        <ele>926.6</ele>
        <time>2021-08-14T10:24:19Z</time>
      </trkpt>
      <trkpt lat="46.87177" lon="6.40745">
        <ele>927.2</ele>
        <time>2021-08-14T10:24:20Z</time>
      </trkpt>
      <trkpt lat="46.87181" lon="6.40752">
        <ele>927.5</ele>
        <time>2021-08-14T10:24:21Z</time>
      </trkpt>
      <trkpt lat="46.87281" lon="6.4088">
        <ele>934.2</ele>
        <time>2021-08-14T10:25:12Z</time>
      </trkpt>
      <trkpt lat="46.87283" lon="6.40885">
        <ele>934.4</ele>
        <time>2021-08-14T10:25:13Z</time>
      </trkpt>
      <trkpt lat="46.87284" lon="6.40889">
        <ele>934.6</ele>
        <time>2021-08-14T10:25:14Z</time>
      </trkpt>
      <trkpt lat="46.87285" lon="6.40895">
        <ele>934.8</ele>
        <time>2021-08-14T10:25:16Z</time>
      </trkpt>
      <trkpt lat="46.87285" lon="6.40905">
        <ele>935.2</ele>
        <time>2021-08-14T10:25:17Z</time>
      </trkpt>
      <trkpt lat="46.87285" lon="6.40912">
        <ele>935.5</ele>
        <time>2021-08-14T10:25:18Z</time>
      </trkpt>
      <trkpt lat="46.87285" lon="6.40916">
        <ele>935.6</ele>
        <time>2021-08-14T10:25:19Z</time>
      </trkpt>
      <trkpt lat="46.87284" lon="6.40922">
        <ele>935.8</ele>
        <time>2021-08-14T10:25:20Z</time>
      </trkpt>
      <trkpt lat="46.87281" lon="6.40933">
        <ele>936.2</ele>
        <time>2021-08-14T10:25:22Z</time>
      </trkpt>
      <trkpt lat="46.87279" lon="6.4094">
        <ele>936.4</ele>
        <time>2021-08-14T10:25:23Z</time>
      </trkpt>
      <trkpt lat="46.87276" lon="6.40947">
        <ele>936.6</ele>
        <time>2021-08-14T10:25:24Z</time>
      </trkpt>
      <trkpt lat="46.87274" lon="6.40954">
        <ele>936.8</ele>
        <time>2021-08-14T10:25:45Z</time>
      </trkpt>
      <trkpt lat="46.87271" lon="6.40961">
        <ele>937</ele>
        <time>2021-08-14T10:25:47Z</time>
      </trkpt>
      <trkpt lat="46.87269" lon="6.40968">
        <ele>937.1</ele>
        <time>2021-08-14T10:25:48Z</time>
      </trkpt>
      <trkpt lat="46.87272" lon="6.40971">
        <ele>937.2</ele>
        <time>2021-08-14T10:25:49Z</time>
      </trkpt>
      <trkpt lat="46.87276" lon="6.40981">
        <ele>937.4</ele>
        <time>2021-08-14T10:25:51Z</time>
      </trkpt>
      <trkpt lat="46.87278" lon="6.40989">
        <ele>937.6</ele>
        <time>2021-08-14T10:25:52Z</time>
      </trkpt>
      <trkpt lat="46.87279" lon="6.40997">
        <ele>937.7</ele>
        <time>2021-08-14T10:25:53Z</time>
      </trkpt>
      <trkpt lat="46.87279" lon="6.41003">
        <ele>937.8</ele>
        <time>2021-08-14T10:25:54Z</time>
      </trkpt>
      <trkpt lat="46.87276" lon="6.41009">
        <ele>937.9</ele>
        <time>2021-08-14T10:25:55Z</time>
      </trkpt>
      <trkpt lat="46.87268" lon="6.41017">
        <ele>938.1</ele>
        <time>2021-08-14T10:25:57Z</time>
      </trkpt>
      <trkpt lat="46.87256" lon="6.41028">
        <ele>938.5</ele>
        <time>2021-08-14T10:25:58Z</time>
      </trkpt>
      <trkpt lat="46.87252" lon="6.41035">
        <ele>938.7</ele>
        <time>2021-08-14T10:25:59Z</time>
      </trkpt>
      <trkpt lat="46.87251" lon="6.41042">
        <ele>938.8</ele>
        <time>2021-08-14T10:26:01Z</time>
      </trkpt>
      <trkpt lat="46.87251" lon="6.41049">
        <ele>938.9</ele>
        <time>2021-08-14T10:26:04Z</time>
      </trkpt>
      <trkpt lat="46.87251" lon="6.41051">
        <ele>939</ele>
        <time>2021-08-14T10:26:05Z</time>
      </trkpt>
      <trkpt lat="46.87347" lon="6.41169">
        <ele>943</ele>
        <time>2021-08-14T10:26:49Z</time>
      </trkpt>
      <trkpt lat="46.87351" lon="6.41179">
        <ele>943.2</ele>
        <time>2021-08-14T10:26:51Z</time>
      </trkpt>
      <trkpt lat="46.87356" lon="6.41187">
        <ele>943.4</ele>
        <time>2021-08-14T10:26:53Z</time>
      </trkpt>
      <trkpt lat="46.87359" lon="6.41193">
        <ele>943.5</ele>
        <time>2021-08-14T10:26:54Z</time>
      </trkpt>
      <trkpt lat="46.87366" lon="6.41205">
        <ele>943.8</ele>
        <time>2021-08-14T10:26:55Z</time>
      </trkpt>
      <trkpt lat="46.87374" lon="6.41218">
        <ele>944</ele>
        <time>2021-08-14T10:26:57Z</time>
      </trkpt>
      <trkpt lat="46.87379" lon="6.41228">
        <ele>944.1</ele>
        <time>2021-08-14T10:26:59Z</time>
      </trkpt>
      <trkpt lat="46.87383" lon="6.41235">
        <ele>944.2</ele>
        <time>2021-08-14T10:27:00Z</time>
      </trkpt>
      <trkpt lat="46.87387" lon="6.41244">
        <ele>944.3</ele>
        <time>2021-08-14T10:27:01Z</time>
      </trkpt>
      <trkpt lat="46.87393" lon="6.41252">
        <ele>944.4</ele>
        <time>2021-08-14T10:27:03Z</time>
      </trkpt>
      <trkpt lat="46.87401" lon="6.4126">
        <ele>944.4</ele>
        <time>2021-08-14T10:27:05Z</time>
      </trkpt>
      <trkpt lat="46.87407" lon="6.4127">
        <ele>944.5</ele>
        <time>2021-08-14T10:27:06Z</time>
      </trkpt>
      <trkpt lat="46.87416" lon="6.41283">
        <ele>944.6</ele>
        <time>2021-08-14T10:27:08Z</time>
      </trkpt>
      <trkpt lat="46.8743" lon="6.41299">
        <ele>944.7</ele>
        <time>2021-08-14T10:27:10Z</time>
      </trkpt>
      <trkpt lat="46.8744" lon="6.41312">
        <ele>944.7</ele>
        <time>2021-08-14T10:27:12Z</time>
      </trkpt>
      <trkpt lat="46.87443" lon="6.41317">
        <ele>944.7</ele>
        <time>2021-08-14T10:27:13Z</time>
      </trkpt>
      <trkpt lat="46.87446" lon="6.41324">
        <ele>944.7</ele>
        <time>2021-08-14T10:27:14Z</time>
      </trkpt>
      <trkpt lat="46.8745" lon="6.41336">
        <ele>944.7</ele>
        <time>2021-08-14T10:27:16Z</time>
      </trkpt>
      <trkpt lat="46.87453" lon="6.41342">
        <ele>944.7</ele>
        <time>2021-08-14T10:27:17Z</time>
      </trkpt>
      <trkpt lat="46.87455" lon="6.41347">
        <ele>944.7</ele>
        <time>2021-08-14T10:27:18Z</time>
      </trkpt>
      <trkpt lat="46.87456" lon="6.41358">
        <ele>944.7</ele>
        <time>2021-08-14T10:27:20Z</time>
      </trkpt>
      <trkpt lat="46.87458" lon="6.41366">
        <ele>944.7</ele>
        <time>2021-08-14T10:27:22Z</time>
      </trkpt>
      <trkpt lat="46.8746" lon="6.41371">
        <ele>944.7</ele>
        <time>2021-08-14T10:27:23Z</time>
      </trkpt>
      <trkpt lat="46.87463" lon="6.41377">
        <ele>944.7</ele>
        <time>2021-08-14T10:27:24Z</time>
      </trkpt>
      <trkpt lat="46.87466" lon="6.41382">
        <ele>944.7</ele>
        <time>2021-08-14T10:27:26Z</time>
      </trkpt>
      <trkpt lat="46.87468" lon="6.41386">
        <ele>944.6</ele>
        <time>2021-08-14T10:27:27Z</time>
      </trkpt>
      <trkpt lat="46.8747" lon="6.41391">
        <ele>944.6</ele>
        <time>2021-08-14T10:27:28Z</time>
      </trkpt>
      <trkpt lat="46.87475" lon="6.41397">
        <ele>944.6</ele>
        <time>2021-08-14T10:27:30Z</time>
      </trkpt>
      <trkpt lat="46.87476" lon="6.41409">
        <ele>944.6</ele>
        <time>2021-08-14T10:27:32Z</time>
      </trkpt>
      <trkpt lat="46.87479" lon="6.41415">
        <ele>944.6</ele>
        <time>2021-08-14T10:27:33Z</time>
      </trkpt>
      <trkpt lat="46.87481" lon="6.41419">
        <ele>944.6</ele>
        <time>2021-08-14T10:27:34Z</time>
      </trkpt>
      <trkpt lat="46.87482" lon="6.41427">
        <ele>944.6</ele>
        <time>2021-08-14T10:27:35Z</time>
      </trkpt>
      <trkpt lat="46.87486" lon="6.4144">
        <ele>944.6</ele>
        <time>2021-08-14T10:27:37Z</time>
      </trkpt>
      <trkpt lat="46.87491" lon="6.41453">
        <ele>944.6</ele>
        <time>2021-08-14T10:27:39Z</time>
      </trkpt>
      <trkpt lat="46.87494" lon="6.41459">
        <ele>944.6</ele>
        <time>2021-08-14T10:27:40Z</time>
      </trkpt>
      <trkpt lat="46.87496" lon="6.41465">
        <ele>944.6</ele>
        <time>2021-08-14T10:27:41Z</time>
      </trkpt>
      <trkpt lat="46.87497" lon="6.41475">
        <ele>944.6</ele>
        <time>2021-08-14T10:27:42Z</time>
      </trkpt>
      <trkpt lat="46.87498" lon="6.41485">
        <ele>944.6</ele>
        <time>2021-08-14T10:27:43Z</time>
      </trkpt>
      <trkpt lat="46.87501" lon="6.41495">
        <ele>944.6</ele>
        <time>2021-08-14T10:27:44Z</time>
      </trkpt>
      <trkpt lat="46.87504" lon="6.41505">
        <ele>944.6</ele>
        <time>2021-08-14T10:27:46Z</time>
      </trkpt>
      <trkpt lat="46.87508" lon="6.4151">
        <ele>944.7</ele>
        <time>2021-08-14T10:27:47Z</time>
      </trkpt>
      <trkpt lat="46.87514" lon="6.41519">
        <ele>944.7</ele>
        <time>2021-08-14T10:27:49Z</time>
      </trkpt>
      <trkpt lat="46.87516" lon="6.41524">
        <ele>944.7</ele>
        <time>2021-08-14T10:27:50Z</time>
      </trkpt>
      <trkpt lat="46.87519" lon="6.41529">
        <ele>944.7</ele>
        <time>2021-08-14T10:27:51Z</time>
      </trkpt>
      <trkpt lat="46.87522" lon="6.4154">
        <ele>944.8</ele>
        <time>2021-08-14T10:27:53Z</time>
      </trkpt>
      <trkpt lat="46.87523" lon="6.41548">
        <ele>944.8</ele>
        <time>2021-08-14T10:27:54Z</time>
      </trkpt>
      <trkpt lat="46.87527" lon="6.41562">
        <ele>944.8</ele>
        <time>2021-08-14T10:27:56Z</time>
      </trkpt>
      <trkpt lat="46.87529" lon="6.41569">
        <ele>944.8</ele>
        <time>2021-08-14T10:27:57Z</time>
      </trkpt>
      <trkpt lat="46.87529" lon="6.41576">
        <ele>944.9</ele>
        <time>2021-08-14T10:27:58Z</time>
      </trkpt>
      <trkpt lat="46.87531" lon="6.41584">
        <ele>944.9</ele>
        <time>2021-08-14T10:28:00Z</time>
      </trkpt>
      <trkpt lat="46.87533" lon="6.41591">
        <ele>944.9</ele>
        <time>2021-08-14T10:28:01Z</time>
      </trkpt>
      <trkpt lat="46.87535" lon="6.41606">
        <ele>944.9</ele>
        <time>2021-08-14T10:28:03Z</time>
      </trkpt>
      <trkpt lat="46.87533" lon="6.41613">
        <ele>944.9</ele>
        <time>2021-08-14T10:28:04Z</time>
      </trkpt>
      <trkpt lat="46.87536" lon="6.41626">
        <ele>944.9</ele>
        <time>2021-08-14T10:28:06Z</time>
      </trkpt>
      <trkpt lat="46.8754" lon="6.41633">
        <ele>945</ele>
        <time>2021-08-14T10:28:07Z</time>
      </trkpt>
      <trkpt lat="46.87546" lon="6.41648">
        <ele>945</ele>
        <time>2021-08-14T10:28:09Z</time>
      </trkpt>
      <trkpt lat="46.8755" lon="6.41662">
        <ele>945.1</ele>
        <time>2021-08-14T10:28:11Z</time>
      </trkpt>
      <trkpt lat="46.87551" lon="6.41669">
        <ele>945.1</ele>
        <time>2021-08-14T10:28:12Z</time>
      </trkpt>
      <trkpt lat="46.87553" lon="6.41672">
        <ele>945.1</ele>
        <time>2021-08-14T10:28:13Z</time>
      </trkpt>
      <trkpt lat="46.87556" lon="6.41687">
        <ele>945.2</ele>
        <time>2021-08-14T10:28:15Z</time>
      </trkpt>
      <trkpt lat="46.87559" lon="6.41697">
        <ele>945.3</ele>
        <time>2021-08-14T10:28:16Z</time>
      </trkpt>
      <trkpt lat="46.87559" lon="6.41708">
        <ele>945.4</ele>
        <time>2021-08-14T10:28:18Z</time>
      </trkpt>
      <trkpt lat="46.8756" lon="6.41717">
        <ele>945.6</ele>
        <time>2021-08-14T10:28:19Z</time>
      </trkpt>
      <trkpt lat="46.87562" lon="6.41722">
        <ele>945.7</ele>
        <time>2021-08-14T10:28:20Z</time>
      </trkpt>
      <trkpt lat="46.87564" lon="6.41728">
        <ele>945.8</ele>
        <time>2021-08-14T10:28:22Z</time>
      </trkpt>
      <trkpt lat="46.87566" lon="6.41732">
        <ele>945.9</ele>
        <time>2021-08-14T10:28:23Z</time>
      </trkpt>
      <trkpt lat="46.87567" lon="6.41735">
        <ele>946</ele>
        <time>2021-08-14T10:28:24Z</time>
      </trkpt>
      <trkpt lat="46.87569" lon="6.4174">
        <ele>946.1</ele>
        <time>2021-08-14T10:28:25Z</time>
      </trkpt>
      <trkpt lat="46.87569" lon="6.41741">
        <ele>946.2</ele>
        <time>2021-08-14T10:28:26Z</time>
      </trkpt>
      <trkpt lat="46.87568" lon="6.41747">
        <ele>946.3</ele>
        <time>2021-08-14T10:28:27Z</time>
      </trkpt>
      <trkpt lat="46.87568" lon="6.41748">
        <ele>946.4</ele>
        <time>2021-08-14T10:28:28Z</time>
      </trkpt>
      <trkpt lat="46.87568" lon="6.41753">
        <ele>946.5</ele>
        <time>2021-08-14T10:28:29Z</time>
      </trkpt>
      <trkpt lat="46.87568" lon="6.41755">
        <ele>946.6</ele>
        <time>2021-08-14T10:28:30Z</time>
      </trkpt>
      <trkpt lat="46.87566" lon="6.4176">
        <ele>946.7</ele>
        <time>2021-08-14T10:28:32Z</time>
      </trkpt>
      <trkpt lat="46.87566" lon="6.41764">
        <ele>946.9</ele>
        <time>2021-08-14T10:28:33Z</time>
      </trkpt>
      <trkpt lat="46.87566" lon="6.41766">
        <ele>946.9</ele>
        <time>2021-08-14T10:28:34Z</time>
      </trkpt>
      <trkpt lat="46.87565" lon="6.41768">
        <ele>947</ele>
        <time>2021-08-14T10:28:35Z</time>
      </trkpt>
      <trkpt lat="46.87565" lon="6.4177">
        <ele>947.1</ele>
        <time>2021-08-14T10:28:36Z</time>
      </trkpt>
      <trkpt lat="46.87563" lon="6.41773">
        <ele>947.2</ele>
        <time>2021-08-14T10:28:37Z</time>
      </trkpt>
      <trkpt lat="46.87562" lon="6.41774">
        <ele>947.3</ele>
        <time>2021-08-14T10:28:38Z</time>
      </trkpt>
      <trkpt lat="46.8756" lon="6.41777">
        <ele>947.4</ele>
        <time>2021-08-14T10:28:39Z</time>
      </trkpt>
      <trkpt lat="46.87558" lon="6.41779">
        <ele>947.5</ele>
        <time>2021-08-14T10:28:41Z</time>
      </trkpt>
      <trkpt lat="46.87554" lon="6.41782">
        <ele>947.7</ele>
        <time>2021-08-14T10:28:42Z</time>
      </trkpt>
      <trkpt lat="46.87553" lon="6.41782">
        <ele>947.8</ele>
        <time>2021-08-14T10:28:43Z</time>
      </trkpt>
      <trkpt lat="46.87551" lon="6.41783">
        <ele>947.9</ele>
        <time>2021-08-14T10:28:44Z</time>
      </trkpt>
      <trkpt lat="46.87544" lon="6.41784">
        <ele>948.2</ele>
        <time>2021-08-14T10:28:46Z</time>
      </trkpt>
      <trkpt lat="46.87539" lon="6.41782">
        <ele>948.5</ele>
        <time>2021-08-14T10:28:48Z</time>
      </trkpt>
      <trkpt lat="46.87538" lon="6.41781">
        <ele>948.6</ele>
        <time>2021-08-14T10:28:50Z</time>
      </trkpt>
      <trkpt lat="46.87536" lon="6.4178">
        <ele>948.7</ele>
        <time>2021-08-14T10:28:51Z</time>
      </trkpt>
      <trkpt lat="46.87535" lon="6.41782">
        <ele>948.8</ele>
        <time>2021-08-14T10:28:53Z</time>
      </trkpt>
      <trkpt lat="46.87534" lon="6.41783">
        <ele>948.9</ele>
        <time>2021-08-14T10:28:54Z</time>
      </trkpt>
      <trkpt lat="46.87533" lon="6.41784">
        <ele>948.9</ele>
        <time>2021-08-14T10:28:55Z</time>
      </trkpt>
      <trkpt lat="46.87531" lon="6.41785">
        <ele>949</ele>
        <time>2021-08-14T10:28:56Z</time>
      </trkpt>
      <trkpt lat="46.87529" lon="6.41789">
        <ele>949.2</ele>
        <time>2021-08-14T10:28:58Z</time>
      </trkpt>
      <trkpt lat="46.87524" lon="6.41792">
        <ele>949.6</ele>
        <time>2021-08-14T10:29:00Z</time>
      </trkpt>
      <trkpt lat="46.87521" lon="6.41792">
        <ele>949.8</ele>
        <time>2021-08-14T10:29:01Z</time>
      </trkpt>
      <trkpt lat="46.8752" lon="6.41793">
        <ele>949.8</ele>
        <time>2021-08-14T10:29:02Z</time>
      </trkpt>
      <trkpt lat="46.87516" lon="6.41793">
        <ele>950.1</ele>
        <time>2021-08-14T10:29:04Z</time>
      </trkpt>
      <trkpt lat="46.87515" lon="6.41793">
        <ele>950.1</ele>
        <time>2021-08-14T10:29:05Z</time>
      </trkpt>
      <trkpt lat="46.87512" lon="6.41792">
        <ele>950.3</ele>
        <time>2021-08-14T10:29:06Z</time>
      </trkpt>
      <trkpt lat="46.87508" lon="6.41789">
        <ele>950.6</ele>
        <time>2021-08-14T10:29:08Z</time>
      </trkpt>
      <trkpt lat="46.87507" lon="6.4179">
        <ele>950.6</ele>
        <time>2021-08-14T10:29:09Z</time>
      </trkpt>
      <trkpt lat="46.87505" lon="6.41789">
        <ele>950.7</ele>
        <time>2021-08-14T10:29:10Z</time>
      </trkpt>
      <trkpt lat="46.87504" lon="6.41788">
        <ele>950.8</ele>
        <time>2021-08-14T10:29:11Z</time>
      </trkpt>
      <trkpt lat="46.87504" lon="6.41788">
        <ele>950.8</ele>
        <time>2021-08-14T10:29:12Z</time>
      </trkpt>
      <trkpt lat="46.87503" lon="6.41787">
        <ele>950.9</ele>
        <time>2021-08-14T10:29:13Z</time>
      </trkpt>
      <trkpt lat="46.87502" lon="6.41785">
        <ele>951</ele>
        <time>2021-08-14T10:29:15Z</time>
      </trkpt>
      <trkpt lat="46.87501" lon="6.41783">
        <ele>951.1</ele>
        <time>2021-08-14T10:29:16Z</time>
      </trkpt>
      <trkpt lat="46.875" lon="6.41781">
        <ele>951.2</ele>
        <time>2021-08-14T10:29:17Z</time>
      </trkpt>
      <trkpt lat="46.87492" lon="6.41756">
        <ele>952.2</ele>
        <time>2021-08-14T10:29:18Z</time>
      </trkpt>
      <trkpt lat="46.87484" lon="6.41733">
        <ele>953.2</ele>
        <time>2021-08-14T10:30:14Z</time>
      </trkpt>
      <trkpt lat="46.87476" lon="6.4171">
        <ele>954.3</ele>
        <time>2021-08-14T10:30:15Z</time>
      </trkpt>
      <trkpt lat="46.87468" lon="6.41687">
        <ele>955.3</ele>
        <time>2021-08-14T10:30:16Z</time>
      </trkpt>
      <trkpt lat="46.87466" lon="6.41687">
        <ele>955.4</ele>
        <time>2021-08-14T10:30:18Z</time>
      </trkpt>
      <trkpt lat="46.87465" lon="6.41685">
        <ele>955.5</ele>
        <time>2021-08-14T10:30:19Z</time>
      </trkpt>
      <trkpt lat="46.87464" lon="6.41684">
        <ele>955.6</ele>
        <time>2021-08-14T10:30:20Z</time>
      </trkpt>
      <trkpt lat="46.87463" lon="6.41682">
        <ele>955.7</ele>
        <time>2021-08-14T10:30:21Z</time>
      </trkpt>
      <trkpt lat="46.87461" lon="6.4168">
        <ele>955.9</ele>
        <time>2021-08-14T10:30:23Z</time>
      </trkpt>
      <trkpt lat="46.87458" lon="6.41677">
        <ele>956.1</ele>
        <time>2021-08-14T10:30:25Z</time>
      </trkpt>
      <trkpt lat="46.87455" lon="6.41674">
        <ele>956.4</ele>
        <time>2021-08-14T10:30:27Z</time>
      </trkpt>
      <trkpt lat="46.87453" lon="6.41673">
        <ele>956.5</ele>
        <time>2021-08-14T10:30:28Z</time>
      </trkpt>
      <trkpt lat="46.87451" lon="6.41669">
        <ele>956.8</ele>
        <time>2021-08-14T10:30:30Z</time>
      </trkpt>
      <trkpt lat="46.87449" lon="6.41665">
        <ele>957</ele>
        <time>2021-08-14T10:30:31Z</time>
      </trkpt>
      <trkpt lat="46.87448" lon="6.41661">
        <ele>957.2</ele>
        <time>2021-08-14T10:30:32Z</time>
      </trkpt>
      <trkpt lat="46.87447" lon="6.41659">
        <ele>957.3</ele>
        <time>2021-08-14T10:30:33Z</time>
      </trkpt>
      <trkpt lat="46.87445" lon="6.41653">
        <ele>957.7</ele>
        <time>2021-08-14T10:30:34Z</time>
      </trkpt>
      <trkpt lat="46.87444" lon="6.41648">
        <ele>958</ele>
        <time>2021-08-14T10:30:36Z</time>
      </trkpt>
      <trkpt lat="46.87443" lon="6.41643">
        <ele>958.3</ele>
        <time>2021-08-14T10:30:37Z</time>
      </trkpt>
      <trkpt lat="46.87442" lon="6.41638">
        <ele>958.5</ele>
        <time>2021-08-14T10:30:38Z</time>
      </trkpt>
      <trkpt lat="46.87441" lon="6.41633">
        <ele>958.8</ele>
        <time>2021-08-14T10:30:39Z</time>
      </trkpt>
      <trkpt lat="46.87439" lon="6.41628">
        <ele>959.1</ele>
        <time>2021-08-14T10:30:41Z</time>
      </trkpt>
      <trkpt lat="46.87437" lon="6.41623">
        <ele>959.4</ele>
        <time>2021-08-14T10:30:42Z</time>
      </trkpt>
      <trkpt lat="46.87436" lon="6.4162">
        <ele>959.6</ele>
        <time>2021-08-14T10:30:44Z</time>
      </trkpt>
      <trkpt lat="46.87436" lon="6.41618">
        <ele>959.7</ele>
        <time>2021-08-14T10:30:45Z</time>
      </trkpt>
      <trkpt lat="46.87437" lon="6.41615">
        <ele>959.9</ele>
        <time>2021-08-14T10:30:46Z</time>
      </trkpt>
      <trkpt lat="46.87437" lon="6.41614">
        <ele>959.9</ele>
        <time>2021-08-14T10:30:48Z</time>
      </trkpt>
      <trkpt lat="46.87437" lon="6.41612">
        <ele>960</ele>
        <time>2021-08-14T10:30:50Z</time>
      </trkpt>
      <trkpt lat="46.87436" lon="6.41611">
        <ele>960.1</ele>
        <time>2021-08-14T10:30:51Z</time>
      </trkpt>
      <trkpt lat="46.87436" lon="6.4161">
        <ele>960.1</ele>
        <time>2021-08-14T10:30:52Z</time>
      </trkpt>
      <trkpt lat="46.87436" lon="6.41609">
        <ele>960.2</ele>
        <time>2021-08-14T10:30:54Z</time>
      </trkpt>
      <trkpt lat="46.87436" lon="6.41607">
        <ele>960.3</ele>
        <time>2021-08-14T10:30:55Z</time>
      </trkpt>
      <trkpt lat="46.87432" lon="6.416">
        <ele>960.7</ele>
        <time>2021-08-14T10:30:56Z</time>
      </trkpt>
      <trkpt lat="46.8743" lon="6.41594">
        <ele>961</ele>
        <time>2021-08-14T10:30:58Z</time>
      </trkpt>
      <trkpt lat="46.87429" lon="6.41592">
        <ele>961.2</ele>
        <time>2021-08-14T10:30:59Z</time>
      </trkpt>
      <trkpt lat="46.87428" lon="6.4159">
        <ele>961.3</ele>
        <time>2021-08-14T10:31:00Z</time>
      </trkpt>
      <trkpt lat="46.87429" lon="6.41587">
        <ele>961.4</ele>
        <time>2021-08-14T10:31:02Z</time>
      </trkpt>
      <trkpt lat="46.87429" lon="6.41581">
        <ele>961.7</ele>
        <time>2021-08-14T10:31:04Z</time>
      </trkpt>
      <trkpt lat="46.87426" lon="6.41575">
        <ele>962.1</ele>
        <time>2021-08-14T10:31:05Z</time>
      </trkpt>
      <trkpt lat="46.87423" lon="6.41569">
        <ele>962.4</ele>
        <time>2021-08-14T10:31:07Z</time>
      </trkpt>
      <trkpt lat="46.8742" lon="6.41564">
        <ele>962.7</ele>
        <time>2021-08-14T10:31:08Z</time>
      </trkpt>
      <trkpt lat="46.87417" lon="6.41559">
        <ele>963.1</ele>
        <time>2021-08-14T10:31:09Z</time>
      </trkpt>
      <trkpt lat="46.87414" lon="6.41553">
        <ele>963.4</ele>
        <time>2021-08-14T10:31:10Z</time>
      </trkpt>
      <trkpt lat="46.87411" lon="6.41548">
        <ele>963.7</ele>
        <time>2021-08-14T10:31:27Z</time>
      </trkpt>
      <trkpt lat="46.87409" lon="6.41543">
        <ele>964</ele>
        <time>2021-08-14T10:31:28Z</time>
      </trkpt>
      <trkpt lat="46.87405" lon="6.41538">
        <ele>964.3</ele>
        <time>2021-08-14T10:31:30Z</time>
      </trkpt>
      <trkpt lat="46.87402" lon="6.41534">
        <ele>964.6</ele>
        <time>2021-08-14T10:31:31Z</time>
      </trkpt>
      <trkpt lat="46.874" lon="6.41531">
        <ele>964.8</ele>
        <time>2021-08-14T10:31:33Z</time>
      </trkpt>
      <trkpt lat="46.87397" lon="6.41527">
        <ele>965.1</ele>
        <time>2021-08-14T10:31:35Z</time>
      </trkpt>
      <trkpt lat="46.87396" lon="6.41522">
        <ele>965.3</ele>
        <time>2021-08-14T10:31:37Z</time>
      </trkpt>
      <trkpt lat="46.87395" lon="6.4152">
        <ele>965.4</ele>
        <time>2021-08-14T10:31:38Z</time>
      </trkpt>
      <trkpt lat="46.87394" lon="6.41515">
        <ele>965.7</ele>
        <time>2021-08-14T10:31:40Z</time>
      </trkpt>
      <trkpt lat="46.87393" lon="6.41513">
        <ele>965.8</ele>
        <time>2021-08-14T10:31:41Z</time>
      </trkpt>
      <trkpt lat="46.87392" lon="6.41511">
        <ele>965.8</ele>
        <time>2021-08-14T10:31:42Z</time>
      </trkpt>
      <trkpt lat="46.87389" lon="6.41507">
        <ele>966.1</ele>
        <time>2021-08-14T10:31:44Z</time>
      </trkpt>
      <trkpt lat="46.87386" lon="6.41504">
        <ele>966.4</ele>
        <time>2021-08-14T10:31:46Z</time>
      </trkpt>
      <trkpt lat="46.87386" lon="6.41503">
        <ele>966.4</ele>
        <time>2021-08-14T10:31:47Z</time>
      </trkpt>
      <trkpt lat="46.87386" lon="6.41502">
        <ele>966.5</ele>
        <time>2021-08-14T10:31:48Z</time>
      </trkpt>
      <trkpt lat="46.87385" lon="6.41498">
        <ele>966.7</ele>
        <time>2021-08-14T10:31:50Z</time>
      </trkpt>
      <trkpt lat="46.87386" lon="6.41495">
        <ele>966.8</ele>
        <time>2021-08-14T10:31:52Z</time>
      </trkpt>
      <trkpt lat="46.87387" lon="6.41493">
        <ele>966.9</ele>
        <time>2021-08-14T10:31:54Z</time>
      </trkpt>
      <trkpt lat="46.87386" lon="6.41488">
        <ele>967.2</ele>
        <time>2021-08-14T10:31:56Z</time>
      </trkpt>
      <trkpt lat="46.87385" lon="6.41482">
        <ele>967.5</ele>
        <time>2021-08-14T10:31:58Z</time>
      </trkpt>
      <trkpt lat="46.87385" lon="6.41479">
        <ele>967.6</ele>
        <time>2021-08-14T10:31:59Z</time>
      </trkpt>
      <trkpt lat="46.87385" lon="6.41477">
        <ele>967.7</ele>
        <time>2021-08-14T10:32:01Z</time>
      </trkpt>
      <trkpt lat="46.87385" lon="6.41475">
        <ele>967.8</ele>
        <time>2021-08-14T10:32:02Z</time>
      </trkpt>
      <trkpt lat="46.87383" lon="6.41473">
        <ele>967.9</ele>
        <time>2021-08-14T10:32:03Z</time>
      </trkpt>
      <trkpt lat="46.87382" lon="6.41471">
        <ele>968</ele>
        <time>2021-08-14T10:32:05Z</time>
      </trkpt>
      <trkpt lat="46.87381" lon="6.4147">
        <ele>968.1</ele>
        <time>2021-08-14T10:32:06Z</time>
      </trkpt>
      <trkpt lat="46.87379" lon="6.41468">
        <ele>968.3</ele>
        <time>2021-08-14T10:32:07Z</time>
      </trkpt>
      <trkpt lat="46.87378" lon="6.41467">
        <ele>968.4</ele>
        <time>2021-08-14T10:32:09Z</time>
      </trkpt>
      <trkpt lat="46.87369" lon="6.41456">
        <ele>969.2</ele>
        <time>2021-08-14T10:32:14Z</time>
      </trkpt>
      <trkpt lat="46.87366" lon="6.41452">
        <ele>969.5</ele>
        <time>2021-08-14T10:32:16Z</time>
      </trkpt>
      <trkpt lat="46.87363" lon="6.41448">
        <ele>969.8</ele>
        <time>2021-08-14T10:32:17Z</time>
      </trkpt>
      <trkpt lat="46.87362" lon="6.41447">
        <ele>969.9</ele>
        <time>2021-08-14T10:32:18Z</time>
      </trkpt>
      <trkpt lat="46.87358" lon="6.41443">
        <ele>970.2</ele>
        <time>2021-08-14T10:32:20Z</time>
      </trkpt>
      <trkpt lat="46.87356" lon="6.41438">
        <ele>970.5</ele>
        <time>2021-08-14T10:32:21Z</time>
      </trkpt>
      <trkpt lat="46.87353" lon="6.41434">
        <ele>970.8</ele>
        <time>2021-08-14T10:32:23Z</time>
      </trkpt>
      <trkpt lat="46.87351" lon="6.41431">
        <ele>971</ele>
        <time>2021-08-14T10:32:24Z</time>
      </trkpt>
      <trkpt lat="46.87347" lon="6.41429">
        <ele>971.3</ele>
        <time>2021-08-14T10:32:25Z</time>
      </trkpt>
      <trkpt lat="46.87346" lon="6.41428">
        <ele>971.4</ele>
        <time>2021-08-14T10:32:26Z</time>
      </trkpt>
      <trkpt lat="46.8734" lon="6.41426">
        <ele>971.8</ele>
        <time>2021-08-14T10:32:27Z</time>
      </trkpt>
      <trkpt lat="46.87335" lon="6.41425">
        <ele>972.2</ele>
        <time>2021-08-14T10:32:29Z</time>
      </trkpt>
      <trkpt lat="46.87334" lon="6.41424">
        <ele>972.3</ele>
        <time>2021-08-14T10:32:31Z</time>
      </trkpt>
      <trkpt lat="46.87334" lon="6.41423">
        <ele>972.3</ele>
        <time>2021-08-14T10:32:32Z</time>
      </trkpt>
      <trkpt lat="46.87335" lon="6.41423">
        <ele>972.4</ele>
        <time>2021-08-14T10:32:33Z</time>
      </trkpt>
      <trkpt lat="46.87337" lon="6.41424">
        <ele>972.5</ele>
        <time>2021-08-14T10:32:35Z</time>
      </trkpt>
      <trkpt lat="46.87338" lon="6.41423">
        <ele>972.6</ele>
        <time>2021-08-14T10:32:36Z</time>
      </trkpt>
      <trkpt lat="46.87338" lon="6.41423">
        <ele>972.6</ele>
        <time>2021-08-14T10:32:37Z</time>
      </trkpt>
      <trkpt lat="46.87338" lon="6.4142">
        <ele>972.8</ele>
        <time>2021-08-14T10:32:39Z</time>
      </trkpt>
      <trkpt lat="46.87338" lon="6.41419">
        <ele>972.8</ele>
        <time>2021-08-14T10:32:40Z</time>
      </trkpt>
      <trkpt lat="46.87338" lon="6.41417">
        <ele>972.9</ele>
        <time>2021-08-14T10:32:41Z</time>
      </trkpt>
      <trkpt lat="46.87336" lon="6.41412">
        <ele>973.2</ele>
        <time>2021-08-14T10:32:42Z</time>
      </trkpt>
      <trkpt lat="46.87335" lon="6.41409">
        <ele>973.4</ele>
        <time>2021-08-14T10:32:43Z</time>
      </trkpt>
      <trkpt lat="46.87332" lon="6.41404">
        <ele>973.7</ele>
        <time>2021-08-14T10:32:45Z</time>
      </trkpt>
      <trkpt lat="46.87331" lon="6.41402">
        <ele>973.8</ele>
        <time>2021-08-14T10:32:46Z</time>
      </trkpt>
      <trkpt lat="46.87328" lon="6.41397">
        <ele>974.1</ele>
        <time>2021-08-14T10:32:48Z</time>
      </trkpt>
      <trkpt lat="46.87327" lon="6.41395">
        <ele>974.2</ele>
        <time>2021-08-14T10:32:49Z</time>
      </trkpt>
      <trkpt lat="46.87325" lon="6.41392">
        <ele>974.5</ele>
        <time>2021-08-14T10:32:51Z</time>
      </trkpt>
      <trkpt lat="46.87323" lon="6.41389">
        <ele>974.7</ele>
        <time>2021-08-14T10:32:52Z</time>
      </trkpt>
      <trkpt lat="46.87321" lon="6.41387">
        <ele>974.9</ele>
        <time>2021-08-14T10:32:53Z</time>
      </trkpt>
      <trkpt lat="46.87316" lon="6.41383">
        <ele>975.3</ele>
        <time>2021-08-14T10:32:55Z</time>
      </trkpt>
      <trkpt lat="46.87313" lon="6.41381">
        <ele>975.6</ele>
        <time>2021-08-14T10:32:56Z</time>
      </trkpt>
      <trkpt lat="46.87312" lon="6.4138">
        <ele>975.6</ele>
        <time>2021-08-14T10:32:57Z</time>
      </trkpt>
      <trkpt lat="46.87311" lon="6.41377">
        <ele>975.8</ele>
        <time>2021-08-14T10:32:58Z</time>
      </trkpt>
      <trkpt lat="46.87309" lon="6.41375">
        <ele>976</ele>
        <time>2021-08-14T10:33:00Z</time>
      </trkpt>
      <trkpt lat="46.87309" lon="6.41375">
        <ele>976</ele>
        <time>2021-08-14T10:33:01Z</time>
      </trkpt>
      <trkpt lat="46.87308" lon="6.41375">
        <ele>976.1</ele>
        <time>2021-08-14T10:33:02Z</time>
      </trkpt>
      <trkpt lat="46.87308" lon="6.41375">
        <ele>976.1</ele>
        <time>2021-08-14T10:33:03Z</time>
      </trkpt>
      <trkpt lat="46.87308" lon="6.41375">
        <ele>976.1</ele>
        <time>2021-08-14T10:33:04Z</time>
      </trkpt>
      <trkpt lat="46.87308" lon="6.41374">
        <ele>976.1</ele>
        <time>2021-08-14T10:33:05Z</time>
      </trkpt>
      <trkpt lat="46.87307" lon="6.41373">
        <ele>976.2</ele>
        <time>2021-08-14T10:33:07Z</time>
      </trkpt>
      <trkpt lat="46.87307" lon="6.41373">
        <ele>976.2</ele>
        <time>2021-08-14T10:33:08Z</time>
      </trkpt>
      <trkpt lat="46.87306" lon="6.41372">
        <ele>976.3</ele>
        <time>2021-08-14T10:33:09Z</time>
      </trkpt>
      <trkpt lat="46.87305" lon="6.41371">
        <ele>976.4</ele>
        <time>2021-08-14T10:33:10Z</time>
      </trkpt>
      <trkpt lat="46.87304" lon="6.4137">
        <ele>976.5</ele>
        <time>2021-08-14T10:33:12Z</time>
      </trkpt>
      <trkpt lat="46.87297" lon="6.41364">
        <ele>977.1</ele>
        <time>2021-08-14T10:33:18Z</time>
      </trkpt>
      <trkpt lat="46.87293" lon="6.41361">
        <ele>977.4</ele>
        <time>2021-08-14T10:33:20Z</time>
      </trkpt>
      <trkpt lat="46.87291" lon="6.41359">
        <ele>977.6</ele>
        <time>2021-08-14T10:33:21Z</time>
      </trkpt>
      <trkpt lat="46.87287" lon="6.41355">
        <ele>977.9</ele>
        <time>2021-08-14T10:33:23Z</time>
      </trkpt>
      <trkpt lat="46.87285" lon="6.41351">
        <ele>978.1</ele>
        <time>2021-08-14T10:33:24Z</time>
      </trkpt>
      <trkpt lat="46.87285" lon="6.41351">
        <ele>978.1</ele>
        <time>2021-08-14T10:33:25Z</time>
      </trkpt>
      <trkpt lat="46.87283" lon="6.41348">
        <ele>978.3</ele>
        <time>2021-08-14T10:33:27Z</time>
      </trkpt>
      <trkpt lat="46.87282" lon="6.41346">
        <ele>978.4</ele>
        <time>2021-08-14T10:33:28Z</time>
      </trkpt>
      <trkpt lat="46.8728" lon="6.41346">
        <ele>978.6</ele>
        <time>2021-08-14T10:33:30Z</time>
      </trkpt>
      <trkpt lat="46.87276" lon="6.41345">
        <ele>978.9</ele>
        <time>2021-08-14T10:33:31Z</time>
      </trkpt>
      <trkpt lat="46.87274" lon="6.41344">
        <ele>979</ele>
        <time>2021-08-14T10:33:32Z</time>
      </trkpt>
      <trkpt lat="46.87271" lon="6.41344">
        <ele>979.2</ele>
        <time>2021-08-14T10:33:33Z</time>
      </trkpt>
      <trkpt lat="46.87269" lon="6.41344">
        <ele>979.3</ele>
        <time>2021-08-14T10:33:34Z</time>
      </trkpt>
      <trkpt lat="46.87269" lon="6.41344">
        <ele>979.4</ele>
        <time>2021-08-14T10:33:36Z</time>
      </trkpt>
      <trkpt lat="46.87268" lon="6.41343">
        <ele>979.4</ele>
        <time>2021-08-14T10:33:37Z</time>
      </trkpt>
      <trkpt lat="46.87266" lon="6.41341">
        <ele>979.6</ele>
        <time>2021-08-14T10:33:39Z</time>
      </trkpt>
      <trkpt lat="46.87266" lon="6.4134">
        <ele>979.6</ele>
        <time>2021-08-14T10:33:40Z</time>
      </trkpt>
      <trkpt lat="46.87262" lon="6.41336">
        <ele>979.9</ele>
        <time>2021-08-14T10:33:42Z</time>
      </trkpt>
      <trkpt lat="46.87258" lon="6.41333">
        <ele>980.2</ele>
        <time>2021-08-14T10:33:43Z</time>
      </trkpt>
      <trkpt lat="46.87255" lon="6.41331">
        <ele>980.4</ele>
        <time>2021-08-14T10:33:44Z</time>
      </trkpt>
      <trkpt lat="46.87253" lon="6.41329">
        <ele>980.6</ele>
        <time>2021-08-14T10:33:45Z</time>
      </trkpt>
      <trkpt lat="46.87249" lon="6.41327">
        <ele>980.8</ele>
        <time>2021-08-14T10:33:46Z</time>
      </trkpt>
      <trkpt lat="46.87248" lon="6.41326">
        <ele>980.9</ele>
        <time>2021-08-14T10:33:47Z</time>
      </trkpt>
      <trkpt lat="46.87246" lon="6.41324">
        <ele>981</ele>
        <time>2021-08-14T10:33:49Z</time>
      </trkpt>
      <trkpt lat="46.87245" lon="6.41324">
        <ele>981.1</ele>
        <time>2021-08-14T10:33:50Z</time>
      </trkpt>
      <trkpt lat="46.87244" lon="6.41323">
        <ele>981.1</ele>
        <time>2021-08-14T10:33:51Z</time>
      </trkpt>
      <trkpt lat="46.8724" lon="6.41321">
        <ele>981.4</ele>
        <time>2021-08-14T10:33:52Z</time>
      </trkpt>
      <trkpt lat="46.87236" lon="6.41321">
        <ele>981.7</ele>
        <time>2021-08-14T10:33:54Z</time>
      </trkpt>
      <trkpt lat="46.87234" lon="6.41322">
        <ele>981.7</ele>
        <time>2021-08-14T10:33:55Z</time>
      </trkpt>
      <trkpt lat="46.87232" lon="6.41322">
        <ele>981.8</ele>
        <time>2021-08-14T10:33:56Z</time>
      </trkpt>
      <trkpt lat="46.87229" lon="6.41323">
        <ele>982</ele>
        <time>2021-08-14T10:33:58Z</time>
      </trkpt>
      <trkpt lat="46.87227" lon="6.41323">
        <ele>982.1</ele>
        <time>2021-08-14T10:33:59Z</time>
      </trkpt>
      <trkpt lat="46.87222" lon="6.41321">
        <ele>982.4</ele>
        <time>2021-08-14T10:34:01Z</time>
      </trkpt>
      <trkpt lat="46.87219" lon="6.41319">
        <ele>982.5</ele>
        <time>2021-08-14T10:34:02Z</time>
      </trkpt>
      <trkpt lat="46.87215" lon="6.41316">
        <ele>982.8</ele>
        <time>2021-08-14T10:34:03Z</time>
      </trkpt>
      <trkpt lat="46.87214" lon="6.41315">
        <ele>982.8</ele>
        <time>2021-08-14T10:34:04Z</time>
      </trkpt>
      <trkpt lat="46.87211" lon="6.41313">
        <ele>983</ele>
        <time>2021-08-14T10:34:06Z</time>
      </trkpt>
      <trkpt lat="46.8721" lon="6.41312">
        <ele>983</ele>
        <time>2021-08-14T10:34:07Z</time>
      </trkpt>
      <trkpt lat="46.87209" lon="6.41311">
        <ele>983.1</ele>
        <time>2021-08-14T10:34:09Z</time>
      </trkpt>
      <trkpt lat="46.87208" lon="6.4131">
        <ele>983.2</ele>
        <time>2021-08-14T10:34:10Z</time>
      </trkpt>
      <trkpt lat="46.87207" lon="6.4131">
        <ele>983.2</ele>
        <time>2021-08-14T10:34:12Z</time>
      </trkpt>
      <trkpt lat="46.87205" lon="6.41308">
        <ele>983.4</ele>
        <time>2021-08-14T10:34:13Z</time>
      </trkpt>
      <trkpt lat="46.87201" lon="6.41305">
        <ele>983.6</ele>
        <time>2021-08-14T10:34:15Z</time>
      </trkpt>
      <trkpt lat="46.87199" lon="6.41304">
        <ele>983.6</ele>
        <time>2021-08-14T10:34:16Z</time>
      </trkpt>
      <trkpt lat="46.87197" lon="6.41304">
        <ele>983.8</ele>
        <time>2021-08-14T10:34:18Z</time>
      </trkpt>
      <trkpt lat="46.87195" lon="6.41304">
        <ele>983.9</ele>
        <time>2021-08-14T10:34:19Z</time>
      </trkpt>
      <trkpt lat="46.87191" lon="6.41305">
        <ele>984.1</ele>
        <time>2021-08-14T10:34:21Z</time>
      </trkpt>
      <trkpt lat="46.87189" lon="6.41305">
        <ele>984.2</ele>
        <time>2021-08-14T10:34:22Z</time>
      </trkpt>
      <trkpt lat="46.87188" lon="6.41305">
        <ele>984.2</ele>
        <time>2021-08-14T10:34:23Z</time>
      </trkpt>
      <trkpt lat="46.87186" lon="6.41305">
        <ele>984.3</ele>
        <time>2021-08-14T10:34:24Z</time>
      </trkpt>
      <trkpt lat="46.87182" lon="6.41305">
        <ele>984.6</ele>
        <time>2021-08-14T10:34:26Z</time>
      </trkpt>
      <trkpt lat="46.87182" lon="6.41304">
        <ele>984.6</ele>
        <time>2021-08-14T10:34:27Z</time>
      </trkpt>
      <trkpt lat="46.87182" lon="6.41306">
        <ele>984.6</ele>
        <time>2021-08-14T10:34:28Z</time>
      </trkpt>
      <trkpt lat="46.87181" lon="6.41307">
        <ele>984.7</ele>
        <time>2021-08-14T10:34:30Z</time>
      </trkpt>
      <trkpt lat="46.8718" lon="6.41307">
        <ele>984.8</ele>
        <time>2021-08-14T10:34:31Z</time>
      </trkpt>
      <trkpt lat="46.87176" lon="6.41307">
        <ele>985</ele>
        <time>2021-08-14T10:34:32Z</time>
      </trkpt>
      <trkpt lat="46.87174" lon="6.41307">
        <ele>985.1</ele>
        <time>2021-08-14T10:34:33Z</time>
      </trkpt>
      <trkpt lat="46.87171" lon="6.41308">
        <ele>985.3</ele>
        <time>2021-08-14T10:34:35Z</time>
      </trkpt>
      <trkpt lat="46.87168" lon="6.41309">
        <ele>985.5</ele>
        <time>2021-08-14T10:34:36Z</time>
      </trkpt>
      <trkpt lat="46.87163" lon="6.41311">
        <ele>985.8</ele>
        <time>2021-08-14T10:34:37Z</time>
      </trkpt>
      <trkpt lat="46.8716" lon="6.41312">
        <ele>986</ele>
        <time>2021-08-14T10:34:39Z</time>
      </trkpt>
      <trkpt lat="46.87157" lon="6.41314">
        <ele>986.2</ele>
        <time>2021-08-14T10:34:40Z</time>
      </trkpt>
      <trkpt lat="46.87154" lon="6.41317">
        <ele>986.4</ele>
        <time>2021-08-14T10:34:42Z</time>
      </trkpt>
      <trkpt lat="46.87151" lon="6.4132">
        <ele>986.6</ele>
        <time>2021-08-14T10:34:44Z</time>
      </trkpt>
      <trkpt lat="46.87151" lon="6.41321">
        <ele>986.6</ele>
        <time>2021-08-14T10:34:45Z</time>
      </trkpt>
      <trkpt lat="46.87152" lon="6.41322">
        <ele>986.7</ele>
        <time>2021-08-14T10:34:46Z</time>
      </trkpt>
      <trkpt lat="46.87154" lon="6.41323">
        <ele>986.8</ele>
        <time>2021-08-14T10:34:48Z</time>
      </trkpt>
      <trkpt lat="46.87155" lon="6.41324">
        <ele>986.9</ele>
        <time>2021-08-14T10:34:49Z</time>
      </trkpt>
      <trkpt lat="46.87156" lon="6.41326">
        <ele>987</ele>
        <time>2021-08-14T10:34:50Z</time>
      </trkpt>
      <trkpt lat="46.87157" lon="6.4133">
        <ele>987.2</ele>
        <time>2021-08-14T10:34:51Z</time>
      </trkpt>
      <trkpt lat="46.87156" lon="6.41333">
        <ele>987.3</ele>
        <time>2021-08-14T10:34:53Z</time>
      </trkpt>
      <trkpt lat="46.87153" lon="6.41338">
        <ele>987.5</ele>
        <time>2021-08-14T10:34:54Z</time>
      </trkpt>
      <trkpt lat="46.87152" lon="6.4134">
        <ele>987.6</ele>
        <time>2021-08-14T10:34:55Z</time>
      </trkpt>
      <trkpt lat="46.87147" lon="6.4135">
        <ele>988.1</ele>
        <time>2021-08-14T10:34:56Z</time>
      </trkpt>
      <trkpt lat="46.87145" lon="6.41356">
        <ele>988.3</ele>
        <time>2021-08-14T10:34:57Z</time>
      </trkpt>
      <trkpt lat="46.87143" lon="6.41363">
        <ele>988.6</ele>
        <time>2021-08-14T10:34:59Z</time>
      </trkpt>
      <trkpt lat="46.87143" lon="6.41369">
        <ele>988.8</ele>
        <time>2021-08-14T10:35:01Z</time>
      </trkpt>
      <trkpt lat="46.87144" lon="6.41374">
        <ele>989</ele>
        <time>2021-08-14T10:35:03Z</time>
      </trkpt>
      <trkpt lat="46.87144" lon="6.41375">
        <ele>989.1</ele>
        <time>2021-08-14T10:35:04Z</time>
      </trkpt>
      <trkpt lat="46.87145" lon="6.41379">
        <ele>989.2</ele>
        <time>2021-08-14T10:35:05Z</time>
      </trkpt>
      <trkpt lat="46.87148" lon="6.41386">
        <ele>989.5</ele>
        <time>2021-08-14T10:35:07Z</time>
      </trkpt>
      <trkpt lat="46.8715" lon="6.41388">
        <ele>989.6</ele>
        <time>2021-08-14T10:35:08Z</time>
      </trkpt>
      <trkpt lat="46.87151" lon="6.4139">
        <ele>989.7</ele>
        <time>2021-08-14T10:35:09Z</time>
      </trkpt>
      <trkpt lat="46.87151" lon="6.41394">
        <ele>989.9</ele>
        <time>2021-08-14T10:35:11Z</time>
      </trkpt>
      <trkpt lat="46.87149" lon="6.41397">
        <ele>990.1</ele>
        <time>2021-08-14T10:35:12Z</time>
      </trkpt>
      <trkpt lat="46.87147" lon="6.41401">
        <ele>990.2</ele>
        <time>2021-08-14T10:35:14Z</time>
      </trkpt>
      <trkpt lat="46.87146" lon="6.41402">
        <ele>990.3</ele>
        <time>2021-08-14T10:35:15Z</time>
      </trkpt>
      <trkpt lat="46.87147" lon="6.41404">
        <ele>990.4</ele>
        <time>2021-08-14T10:35:16Z</time>
      </trkpt>
      <trkpt lat="46.87148" lon="6.41407">
        <ele>990.5</ele>
        <time>2021-08-14T10:35:18Z</time>
      </trkpt>
      <trkpt lat="46.87154" lon="6.41408">
        <ele>990.8</ele>
        <time>2021-08-14T10:35:19Z</time>
      </trkpt>
      <trkpt lat="46.87159" lon="6.4141">
        <ele>991.1</ele>
        <time>2021-08-14T10:35:21Z</time>
      </trkpt>
      <trkpt lat="46.87162" lon="6.41411">
        <ele>991.3</ele>
        <time>2021-08-14T10:35:22Z</time>
      </trkpt>
      <trkpt lat="46.87166" lon="6.41412">
        <ele>991.6</ele>
        <time>2021-08-14T10:35:24Z</time>
      </trkpt>
      <trkpt lat="46.87171" lon="6.41416">
        <ele>991.9</ele>
        <time>2021-08-14T10:35:26Z</time>
      </trkpt>
      <trkpt lat="46.8717" lon="6.41421">
        <ele>992.1</ele>
        <time>2021-08-14T10:35:28Z</time>
      </trkpt>
      <trkpt lat="46.87168" lon="6.41425">
        <ele>992.3</ele>
        <time>2021-08-14T10:35:29Z</time>
      </trkpt>
      <trkpt lat="46.87167" lon="6.41429">
        <ele>992.5</ele>
        <time>2021-08-14T10:35:31Z</time>
      </trkpt>
      <trkpt lat="46.87167" lon="6.41432">
        <ele>992.6</ele>
        <time>2021-08-14T10:35:33Z</time>
      </trkpt>
      <trkpt lat="46.87168" lon="6.41434">
        <ele>992.7</ele>
        <time>2021-08-14T10:35:35Z</time>
      </trkpt>
      <trkpt lat="46.87168" lon="6.41435">
        <ele>992.8</ele>
        <time>2021-08-14T10:35:36Z</time>
      </trkpt>
      <trkpt lat="46.87161" lon="6.41471">
        <ele>994.5</ele>
        <time>2021-08-14T10:35:47Z</time>
      </trkpt>
      <trkpt lat="46.87166" lon="6.41472">
        <ele>994.8</ele>
        <time>2021-08-14T10:35:48Z</time>
      </trkpt>
      <trkpt lat="46.87172" lon="6.41471">
        <ele>995.3</ele>
        <time>2021-08-14T10:35:50Z</time>
      </trkpt>
      <trkpt lat="46.87175" lon="6.41471">
        <ele>995.5</ele>
        <time>2021-08-14T10:35:51Z</time>
      </trkpt>
      <trkpt lat="46.87179" lon="6.4147">
        <ele>995.8</ele>
        <time>2021-08-14T10:35:52Z</time>
      </trkpt>
      <trkpt lat="46.87187" lon="6.41467">
        <ele>996.3</ele>
        <time>2021-08-14T10:35:53Z</time>
      </trkpt>
      <trkpt lat="46.87191" lon="6.41466">
        <ele>996.6</ele>
        <time>2021-08-14T10:35:54Z</time>
      </trkpt>
      <trkpt lat="46.87194" lon="6.41467">
        <ele>996.8</ele>
        <time>2021-08-14T10:35:56Z</time>
      </trkpt>
      <trkpt lat="46.87195" lon="6.41468">
        <ele>996.9</ele>
        <time>2021-08-14T10:35:58Z</time>
      </trkpt>
      <trkpt lat="46.87196" lon="6.41471">
        <ele>997.1</ele>
        <time>2021-08-14T10:35:59Z</time>
      </trkpt>
      <trkpt lat="46.87197" lon="6.41474">
        <ele>997.2</ele>
        <time>2021-08-14T10:36:01Z</time>
      </trkpt>
      <trkpt lat="46.87202" lon="6.41514">
        <ele>999.2</ele>
        <time>2021-08-14T10:36:11Z</time>
      </trkpt>
      <trkpt lat="46.87202" lon="6.41522">
        <ele>999.6</ele>
        <time>2021-08-14T10:36:13Z</time>
      </trkpt>
      <trkpt lat="46.87199" lon="6.41526">
        <ele>999.8</ele>
        <time>2021-08-14T10:36:14Z</time>
      </trkpt>
      <trkpt lat="46.87198" lon="6.41527">
        <ele>999.9</ele>
        <time>2021-08-14T10:36:15Z</time>
      </trkpt>
      <trkpt lat="46.87196" lon="6.41528">
        <ele>1000.1</ele>
        <time>2021-08-14T10:36:17Z</time>
      </trkpt>
      <trkpt lat="46.87195" lon="6.4153">
        <ele>1000.2</ele>
        <time>2021-08-14T10:36:18Z</time>
      </trkpt>
      <trkpt lat="46.87193" lon="6.41534">
        <ele>1000.4</ele>
        <time>2021-08-14T10:36:19Z</time>
      </trkpt>
      <trkpt lat="46.87192" lon="6.41535">
        <ele>1000.5</ele>
        <time>2021-08-14T10:36:20Z</time>
      </trkpt>
      <trkpt lat="46.87191" lon="6.41537">
        <ele>1000.6</ele>
        <time>2021-08-14T10:36:21Z</time>
      </trkpt>
      <trkpt lat="46.87189" lon="6.41541">
        <ele>1000.8</ele>
        <time>2021-08-14T10:36:23Z</time>
      </trkpt>
      <trkpt lat="46.8719" lon="6.41541">
        <ele>1000.8</ele>
        <time>2021-08-14T10:36:24Z</time>
      </trkpt>
      <trkpt lat="46.8719" lon="6.41542">
        <ele>1000.9</ele>
        <time>2021-08-14T10:36:26Z</time>
      </trkpt>
      <trkpt lat="46.8719" lon="6.41542">
        <ele>1000.9</ele>
        <time>2021-08-14T10:36:27Z</time>
      </trkpt>
      <trkpt lat="46.8719" lon="6.41542">
        <ele>1000.9</ele>
        <time>2021-08-14T10:36:28Z</time>
      </trkpt>
      <trkpt lat="46.87191" lon="6.41542">
        <ele>1000.9</ele>
        <time>2021-08-14T10:36:30Z</time>
      </trkpt>
      <trkpt lat="46.8719" lon="6.41543">
        <ele>1000.9</ele>
        <time>2021-08-14T10:36:31Z</time>
      </trkpt>
      <trkpt lat="46.87325" lon="6.41998">
        <ele>1023.5</ele>
        <time>2021-08-14T10:40:12Z</time>
      </trkpt>
      <trkpt lat="46.87327" lon="6.42004">
        <ele>1023.8</ele>
        <time>2021-08-14T10:40:14Z</time>
      </trkpt>
      <trkpt lat="46.87328" lon="6.42006">
        <ele>1023.9</ele>
        <time>2021-08-14T10:40:15Z</time>
      </trkpt>
      <trkpt lat="46.87329" lon="6.42008">
        <ele>1024</ele>
        <time>2021-08-14T10:40:16Z</time>
      </trkpt>
      <trkpt lat="46.87329" lon="6.42009">
        <ele>1024</ele>
        <time>2021-08-14T10:40:18Z</time>
      </trkpt>
      <trkpt lat="46.87329" lon="6.4201">
        <ele>1024.1</ele>
        <time>2021-08-14T10:40:19Z</time>
      </trkpt>
      <trkpt lat="46.8733" lon="6.42012">
        <ele>1024.2</ele>
        <time>2021-08-14T10:40:21Z</time>
      </trkpt>
      <trkpt lat="46.8733" lon="6.42013">
        <ele>1024.2</ele>
        <time>2021-08-14T10:40:22Z</time>
      </trkpt>
      <trkpt lat="46.8733" lon="6.42014">
        <ele>1024.3</ele>
        <time>2021-08-14T10:40:24Z</time>
      </trkpt>
      <trkpt lat="46.87331" lon="6.42016">
        <ele>1024.3</ele>
        <time>2021-08-14T10:40:29Z</time>
      </trkpt>
      <trkpt lat="46.87331" lon="6.42017">
        <ele>1024.4</ele>
        <time>2021-08-14T10:40:30Z</time>
      </trkpt>
      <trkpt lat="46.87331" lon="6.42018">
        <ele>1024.4</ele>
        <time>2021-08-14T10:40:31Z</time>
      </trkpt>
      <trkpt lat="46.8733" lon="6.42024">
        <ele>1024.7</ele>
        <time>2021-08-14T10:40:33Z</time>
      </trkpt>
      <trkpt lat="46.8733" lon="6.42025">
        <ele>1024.8</ele>
        <time>2021-08-14T10:40:34Z</time>
      </trkpt>
      <trkpt lat="46.87329" lon="6.42027">
        <ele>1024.8</ele>
        <time>2021-08-14T10:40:35Z</time>
      </trkpt>
      <trkpt lat="46.87324" lon="6.42028">
        <ele>1025.1</ele>
        <time>2021-08-14T10:40:36Z</time>
      </trkpt>
      <trkpt lat="46.87321" lon="6.42029">
        <ele>1025.3</ele>
        <time>2021-08-14T10:40:37Z</time>
      </trkpt>
      <trkpt lat="46.87319" lon="6.42032">
        <ele>1025.4</ele>
        <time>2021-08-14T10:40:38Z</time>
      </trkpt>
      <trkpt lat="46.87319" lon="6.42033">
        <ele>1025.5</ele>
        <time>2021-08-14T10:40:39Z</time>
      </trkpt>
      <trkpt lat="46.87319" lon="6.42034">
        <ele>1025.5</ele>
        <time>2021-08-14T10:40:40Z</time>
      </trkpt>
      <trkpt lat="46.87319" lon="6.42037">
        <ele>1025.7</ele>
        <time>2021-08-14T10:40:41Z</time>
      </trkpt>
      <trkpt lat="46.8732" lon="6.42039">
        <ele>1025.7</ele>
        <time>2021-08-14T10:40:42Z</time>
      </trkpt>
      <trkpt lat="46.8732" lon="6.42041">
        <ele>1025.8</ele>
        <time>2021-08-14T10:40:43Z</time>
      </trkpt>
      <trkpt lat="46.8732" lon="6.42045">
        <ele>1026</ele>
        <time>2021-08-14T10:40:45Z</time>
      </trkpt>
      <trkpt lat="46.87321" lon="6.42046">
        <ele>1026</ele>
        <time>2021-08-14T10:40:46Z</time>
      </trkpt>
      <trkpt lat="46.87322" lon="6.42047">
        <ele>1026.1</ele>
        <time>2021-08-14T10:40:47Z</time>
      </trkpt>
      <trkpt lat="46.87323" lon="6.42049">
        <ele>1026.2</ele>
        <time>2021-08-14T10:40:48Z</time>
      </trkpt>
      <trkpt lat="46.87325" lon="6.42051">
        <ele>1026.3</ele>
        <time>2021-08-14T10:40:49Z</time>
      </trkpt>
      <trkpt lat="46.87327" lon="6.42051">
        <ele>1026.4</ele>
        <time>2021-08-14T10:40:50Z</time>
      </trkpt>
      <trkpt lat="46.87331" lon="6.42055">
        <ele>1026.7</ele>
        <time>2021-08-14T10:40:52Z</time>
      </trkpt>
      <trkpt lat="46.87335" lon="6.42061">
        <ele>1027</ele>
        <time>2021-08-14T10:40:54Z</time>
      </trkpt>
      <trkpt lat="46.8734" lon="6.4207">
        <ele>1027.5</ele>
        <time>2021-08-14T10:40:55Z</time>
      </trkpt>
      <trkpt lat="46.87341" lon="6.42073">
        <ele>1027.6</ele>
        <time>2021-08-14T10:40:57Z</time>
      </trkpt>
      <trkpt lat="46.87341" lon="6.42074">
        <ele>1027.7</ele>
        <time>2021-08-14T10:40:58Z</time>
      </trkpt>
      <trkpt lat="46.87342" lon="6.42075">
        <ele>1027.7</ele>
        <time>2021-08-14T10:40:59Z</time>
      </trkpt>
      <trkpt lat="46.87341" lon="6.42078">
        <ele>1027.8</ele>
        <time>2021-08-14T10:41:01Z</time>
      </trkpt>
      <trkpt lat="46.8734" lon="6.42079">
        <ele>1027.9</ele>
        <time>2021-08-14T10:41:02Z</time>
      </trkpt>
      <trkpt lat="46.8734" lon="6.42082">
        <ele>1028</ele>
        <time>2021-08-14T10:41:03Z</time>
      </trkpt>
      <trkpt lat="46.8734" lon="6.42083">
        <ele>1028.1</ele>
        <time>2021-08-14T10:41:04Z</time>
      </trkpt>
      <trkpt lat="46.87339" lon="6.42085">
        <ele>1028.1</ele>
        <time>2021-08-14T10:41:05Z</time>
      </trkpt>
      <trkpt lat="46.87339" lon="6.42087">
        <ele>1028.2</ele>
        <time>2021-08-14T10:41:06Z</time>
      </trkpt>
      <trkpt lat="46.8734" lon="6.42092">
        <ele>1028.4</ele>
        <time>2021-08-14T10:41:08Z</time>
      </trkpt>
      <trkpt lat="46.87341" lon="6.42097">
        <ele>1028.7</ele>
        <time>2021-08-14T10:41:09Z</time>
      </trkpt>
      <trkpt lat="46.87341" lon="6.42102">
        <ele>1028.8</ele>
        <time>2021-08-14T10:41:10Z</time>
      </trkpt>
      <trkpt lat="46.87342" lon="6.42107">
        <ele>1029</ele>
        <time>2021-08-14T10:41:11Z</time>
      </trkpt>
      <trkpt lat="46.87343" lon="6.42108">
        <ele>1029.1</ele>
        <time>2021-08-14T10:41:12Z</time>
      </trkpt>
      <trkpt lat="46.87345" lon="6.42111">
        <ele>1029.3</ele>
        <time>2021-08-14T10:41:13Z</time>
      </trkpt>
      <trkpt lat="46.87346" lon="6.42112">
        <ele>1029.4</ele>
        <time>2021-08-14T10:41:14Z</time>
      </trkpt>
      <trkpt lat="46.87348" lon="6.42114">
        <ele>1029.5</ele>
        <time>2021-08-14T10:41:16Z</time>
      </trkpt>
      <trkpt lat="46.87349" lon="6.42115">
        <ele>1029.6</ele>
        <time>2021-08-14T10:41:17Z</time>
      </trkpt>
      <trkpt lat="46.8735" lon="6.42116">
        <ele>1029.7</ele>
        <time>2021-08-14T10:41:18Z</time>
      </trkpt>
      <trkpt lat="46.87351" lon="6.42117">
        <ele>1029.8</ele>
        <time>2021-08-14T10:41:19Z</time>
      </trkpt>
      <trkpt lat="46.87352" lon="6.42118">
        <ele>1029.8</ele>
        <time>2021-08-14T10:41:21Z</time>
      </trkpt>
      <trkpt lat="46.87353" lon="6.42118">
        <ele>1029.9</ele>
        <time>2021-08-14T10:41:22Z</time>
      </trkpt>
      <trkpt lat="46.87356" lon="6.42121">
        <ele>1030.1</ele>
        <time>2021-08-14T10:41:24Z</time>
      </trkpt>
      <trkpt lat="46.87356" lon="6.42121">
        <ele>1030.2</ele>
        <time>2021-08-14T10:41:25Z</time>
      </trkpt>
      <trkpt lat="46.87361" lon="6.42127">
        <ele>1030.6</ele>
        <time>2021-08-14T10:41:27Z</time>
      </trkpt>
      <trkpt lat="46.87361" lon="6.42127">
        <ele>1030.6</ele>
        <time>2021-08-14T10:41:27Z</time>
      </trkpt>
      <trkpt lat="46.87367" lon="6.42128">
        <ele>1031.1</ele>
        <time>2021-08-14T10:41:29Z</time>
      </trkpt>
      <trkpt lat="46.8737" lon="6.42127">
        <ele>1031.2</ele>
        <time>2021-08-14T10:41:30Z</time>
      </trkpt>
      <trkpt lat="46.87376" lon="6.42123">
        <ele>1031.7</ele>
        <time>2021-08-14T10:41:32Z</time>
      </trkpt>
      <trkpt lat="46.87377" lon="6.42127">
        <ele>1031.9</ele>
        <time>2021-08-14T10:41:33Z</time>
      </trkpt>
      <trkpt lat="46.87377" lon="6.4213">
        <ele>1032.1</ele>
        <time>2021-08-14T10:41:34Z</time>
      </trkpt>
      <trkpt lat="46.87378" lon="6.42134">
        <ele>1032.3</ele>
        <time>2021-08-14T10:41:35Z</time>
      </trkpt>
      <trkpt lat="46.87378" lon="6.42137">
        <ele>1032.5</ele>
        <time>2021-08-14T10:41:37Z</time>
      </trkpt>
      <trkpt lat="46.87379" lon="6.42141">
        <ele>1032.7</ele>
        <time>2021-08-14T10:41:39Z</time>
      </trkpt>
      <trkpt lat="46.87379" lon="6.42145">
        <ele>1032.9</ele>
        <time>2021-08-14T10:42:25Z</time>
      </trkpt>
      <trkpt lat="46.8738" lon="6.42148">
        <ele>1033.1</ele>
        <time>2021-08-14T10:42:26Z</time>
      </trkpt>
      <trkpt lat="46.8738" lon="6.42153">
        <ele>1033.4</ele>
        <time>2021-08-14T10:42:27Z</time>
      </trkpt>
      <trkpt lat="46.8738" lon="6.42157">
        <ele>1033.6</ele>
        <time>2021-08-14T10:42:28Z</time>
      </trkpt>
      <trkpt lat="46.87381" lon="6.42162">
        <ele>1033.9</ele>
        <time>2021-08-14T10:42:29Z</time>
      </trkpt>
      <trkpt lat="46.87383" lon="6.42168">
        <ele>1034.2</ele>
        <time>2021-08-14T10:42:31Z</time>
      </trkpt>
      <trkpt lat="46.87383" lon="6.42172">
        <ele>1034.5</ele>
        <time>2021-08-14T10:42:32Z</time>
      </trkpt>
      <trkpt lat="46.87382" lon="6.42175">
        <ele>1034.7</ele>
        <time>2021-08-14T10:42:33Z</time>
      </trkpt>
      <trkpt lat="46.8738" lon="6.42177">
        <ele>1034.8</ele>
        <time>2021-08-14T10:42:34Z</time>
      </trkpt>
      <trkpt lat="46.87379" lon="6.42178">
        <ele>1034.9</ele>
        <time>2021-08-14T10:42:35Z</time>
      </trkpt>
      <trkpt lat="46.87379" lon="6.42178">
        <ele>1034.9</ele>
        <time>2021-08-14T10:42:36Z</time>
      </trkpt>
      <trkpt lat="46.87378" lon="6.42179">
        <ele>1035</ele>
        <time>2021-08-14T10:42:37Z</time>
      </trkpt>
      <trkpt lat="46.87378" lon="6.42179">
        <ele>1035</ele>
        <time>2021-08-14T10:42:38Z</time>
      </trkpt>
      <trkpt lat="46.87377" lon="6.4218">
        <ele>1035.1</ele>
        <time>2021-08-14T10:42:39Z</time>
      </trkpt>
      <trkpt lat="46.87375" lon="6.42183">
        <ele>1035.3</ele>
        <time>2021-08-14T10:42:41Z</time>
      </trkpt>
      <trkpt lat="46.87374" lon="6.42188">
        <ele>1035.6</ele>
        <time>2021-08-14T10:42:42Z</time>
      </trkpt>
      <trkpt lat="46.87374" lon="6.42189">
        <ele>1035.6</ele>
        <time>2021-08-14T10:42:43Z</time>
      </trkpt>
      <trkpt lat="46.87374" lon="6.4219">
        <ele>1035.7</ele>
        <time>2021-08-14T10:42:44Z</time>
      </trkpt>
      <trkpt lat="46.87375" lon="6.4219">
        <ele>1035.8</ele>
        <time>2021-08-14T10:42:45Z</time>
      </trkpt>
      <trkpt lat="46.87377" lon="6.42191">
        <ele>1035.9</ele>
        <time>2021-08-14T10:42:46Z</time>
      </trkpt>
      <trkpt lat="46.87377" lon="6.42192">
        <ele>1036</ele>
        <time>2021-08-14T10:42:47Z</time>
      </trkpt>
      <trkpt lat="46.87378" lon="6.42194">
        <ele>1036.1</ele>
        <time>2021-08-14T10:42:48Z</time>
      </trkpt>
      <trkpt lat="46.87379" lon="6.42195">
        <ele>1036.1</ele>
        <time>2021-08-14T10:42:49Z</time>
      </trkpt>
      <trkpt lat="46.87378" lon="6.42197">
        <ele>1036.2</ele>
        <time>2021-08-14T10:42:51Z</time>
      </trkpt>
      <trkpt lat="46.87378" lon="6.42198">
        <ele>1036.3</ele>
        <time>2021-08-14T10:42:52Z</time>
      </trkpt>
      <trkpt lat="46.87377" lon="6.42208">
        <ele>1036.8</ele>
        <time>2021-08-14T10:42:56Z</time>
      </trkpt>
      <trkpt lat="46.87377" lon="6.42214">
        <ele>1037.2</ele>
        <time>2021-08-14T10:42:58Z</time>
      </trkpt>
      <trkpt lat="46.87376" lon="6.42219">
        <ele>1037.5</ele>
        <time>2021-08-14T10:42:59Z</time>
      </trkpt>
      <trkpt lat="46.87375" lon="6.42224">
        <ele>1037.8</ele>
        <time>2021-08-14T10:43:00Z</time>
      </trkpt>
      <trkpt lat="46.87375" lon="6.42229">
        <ele>1038.1</ele>
        <time>2021-08-14T10:43:01Z</time>
      </trkpt>
      <trkpt lat="46.87376" lon="6.4223">
        <ele>1038.1</ele>
        <time>2021-08-14T10:43:02Z</time>
      </trkpt>
      <trkpt lat="46.87377" lon="6.42231">
        <ele>1038.2</ele>
        <time>2021-08-14T10:43:03Z</time>
      </trkpt>
      <trkpt lat="46.87378" lon="6.42232">
        <ele>1038.3</ele>
        <time>2021-08-14T10:43:05Z</time>
      </trkpt>
      <trkpt lat="46.87378" lon="6.42233">
        <ele>1038.4</ele>
        <time>2021-08-14T10:43:06Z</time>
      </trkpt>
      <trkpt lat="46.87379" lon="6.42237">
        <ele>1038.6</ele>
        <time>2021-08-14T10:43:07Z</time>
      </trkpt>
      <trkpt lat="46.8738" lon="6.4224">
        <ele>1038.8</ele>
        <time>2021-08-14T10:43:08Z</time>
      </trkpt>
      <trkpt lat="46.87382" lon="6.42244">
        <ele>1039.1</ele>
        <time>2021-08-14T10:43:09Z</time>
      </trkpt>
      <trkpt lat="46.87382" lon="6.42246">
        <ele>1039.2</ele>
        <time>2021-08-14T10:43:10Z</time>
      </trkpt>
      <trkpt lat="46.87383" lon="6.42249">
        <ele>1039.3</ele>
        <time>2021-08-14T10:43:11Z</time>
      </trkpt>
      <trkpt lat="46.87384" lon="6.42249">
        <ele>1039.4</ele>
        <time>2021-08-14T10:43:12Z</time>
      </trkpt>
      <trkpt lat="46.87387" lon="6.42251">
        <ele>1039.7</ele>
        <time>2021-08-14T10:43:13Z</time>
      </trkpt>
      <trkpt lat="46.87389" lon="6.42252">
        <ele>1039.8</ele>
        <time>2021-08-14T10:43:14Z</time>
      </trkpt>
      <trkpt lat="46.87389" lon="6.42254">
        <ele>1039.9</ele>
        <time>2021-08-14T10:43:15Z</time>
      </trkpt>
      <trkpt lat="46.8739" lon="6.42255">
        <ele>1040</ele>
        <time>2021-08-14T10:43:16Z</time>
      </trkpt>
      <trkpt lat="46.8739" lon="6.42257">
        <ele>1040.1</ele>
        <time>2021-08-14T10:43:18Z</time>
      </trkpt>
      <trkpt lat="46.87391" lon="6.42259">
        <ele>1040.2</ele>
        <time>2021-08-14T10:43:19Z</time>
      </trkpt>
      <trkpt lat="46.87391" lon="6.4226">
        <ele>1040.3</ele>
        <time>2021-08-14T10:43:20Z</time>
      </trkpt>
      <trkpt lat="46.87382" lon="6.423">
        <ele>1042.7</ele>
        <time>2021-08-14T10:43:33Z</time>
      </trkpt>
      <trkpt lat="46.87379" lon="6.42307">
        <ele>1043.1</ele>
        <time>2021-08-14T10:43:34Z</time>
      </trkpt>
      <trkpt lat="46.87376" lon="6.42309">
        <ele>1043.4</ele>
        <time>2021-08-14T10:43:35Z</time>
      </trkpt>
      <trkpt lat="46.87375" lon="6.4231">
        <ele>1043.5</ele>
        <time>2021-08-14T10:43:36Z</time>
      </trkpt>
      <trkpt lat="46.87376" lon="6.42311">
        <ele>1043.6</ele>
        <time>2021-08-14T10:43:38Z</time>
      </trkpt>
      <trkpt lat="46.87376" lon="6.42311">
        <ele>1043.6</ele>
        <time>2021-08-14T10:43:39Z</time>
      </trkpt>
      <trkpt lat="46.87378" lon="6.42312">
        <ele>1043.7</ele>
        <time>2021-08-14T10:43:40Z</time>
      </trkpt>
      <trkpt lat="46.87382" lon="6.42318">
        <ele>1044.2</ele>
        <time>2021-08-14T10:43:42Z</time>
      </trkpt>
      <trkpt lat="46.87383" lon="6.42323">
        <ele>1044.5</ele>
        <time>2021-08-14T10:43:43Z</time>
      </trkpt>
      <trkpt lat="46.87383" lon="6.42329">
        <ele>1044.9</ele>
        <time>2021-08-14T10:43:45Z</time>
      </trkpt>
      <trkpt lat="46.87387" lon="6.42329">
        <ele>1045.1</ele>
        <time>2021-08-14T10:43:47Z</time>
      </trkpt>
      <trkpt lat="46.87389" lon="6.42329">
        <ele>1045.3</ele>
        <time>2021-08-14T10:43:48Z</time>
      </trkpt>
      <trkpt lat="46.87393" lon="6.42328">
        <ele>1045.6</ele>
        <time>2021-08-14T10:43:50Z</time>
      </trkpt>
      <trkpt lat="46.87396" lon="6.42328">
        <ele>1045.8</ele>
        <time>2021-08-14T10:43:51Z</time>
      </trkpt>
      <trkpt lat="46.87398" lon="6.42329">
        <ele>1046</ele>
        <time>2021-08-14T10:43:52Z</time>
      </trkpt>
      <trkpt lat="46.874" lon="6.42329">
        <ele>1046.1</ele>
        <time>2021-08-14T10:43:53Z</time>
      </trkpt>
      <trkpt lat="46.874" lon="6.42329">
        <ele>1046.1</ele>
        <time>2021-08-14T10:43:53Z</time>
      </trkpt>
      <trkpt lat="46.87405" lon="6.42332">
        <ele>1046.5</ele>
        <time>2021-08-14T10:43:55Z</time>
      </trkpt>
      <trkpt lat="46.87408" lon="6.42333">
        <ele>1046.9</ele>
        <time>2021-08-14T10:43:56Z</time>
      </trkpt>
      <trkpt lat="46.87411" lon="6.42335">
        <ele>1047.1</ele>
        <time>2021-08-14T10:43:58Z</time>
      </trkpt>
      <trkpt lat="46.87414" lon="6.42337">
        <ele>1047.5</ele>
        <time>2021-08-14T10:43:59Z</time>
      </trkpt>
      <trkpt lat="46.87416" lon="6.42338">
        <ele>1047.7</ele>
        <time>2021-08-14T10:44:01Z</time>
      </trkpt>
      <trkpt lat="46.87417" lon="6.42339">
        <ele>1047.7</ele>
        <time>2021-08-14T10:44:02Z</time>
      </trkpt>
      <trkpt lat="46.87418" lon="6.42339">
        <ele>1047.8</ele>
        <time>2021-08-14T10:44:03Z</time>
      </trkpt>
      <trkpt lat="46.87422" lon="6.42342">
        <ele>1048.2</ele>
        <time>2021-08-14T10:44:04Z</time>
      </trkpt>
      <trkpt lat="46.87424" lon="6.42345">
        <ele>1048.5</ele>
        <time>2021-08-14T10:44:06Z</time>
      </trkpt>
      <trkpt lat="46.87427" lon="6.42348">
        <ele>1048.8</ele>
        <time>2021-08-14T10:44:12Z</time>
      </trkpt>
      <trkpt lat="46.87429" lon="6.42351">
        <ele>1049.1</ele>
        <time>2021-08-14T10:44:13Z</time>
      </trkpt>
      <trkpt lat="46.87431" lon="6.42354">
        <ele>1049.4</ele>
        <time>2021-08-14T10:44:14Z</time>
      </trkpt>
      <trkpt lat="46.87433" lon="6.42358">
        <ele>1049.7</ele>
        <time>2021-08-14T10:44:16Z</time>
      </trkpt>
      <trkpt lat="46.87433" lon="6.42359">
        <ele>1049.8</ele>
        <time>2021-08-14T10:44:17Z</time>
      </trkpt>
      <trkpt lat="46.87433" lon="6.42363">
        <ele>1050</ele>
        <time>2021-08-14T10:44:18Z</time>
      </trkpt>
      <trkpt lat="46.87433" lon="6.42364">
        <ele>1050.1</ele>
        <time>2021-08-14T10:44:20Z</time>
      </trkpt>
      <trkpt lat="46.87434" lon="6.42365">
        <ele>1050.2</ele>
        <time>2021-08-14T10:44:21Z</time>
      </trkpt>
      <trkpt lat="46.87434" lon="6.42366">
        <ele>1050.3</ele>
        <time>2021-08-14T10:44:22Z</time>
      </trkpt>
      <trkpt lat="46.87434" lon="6.42368">
        <ele>1050.3</ele>
        <time>2021-08-14T10:44:24Z</time>
      </trkpt>
      <trkpt lat="46.87434" lon="6.42369">
        <ele>1050.4</ele>
        <time>2021-08-14T10:44:25Z</time>
      </trkpt>
      <trkpt lat="46.87435" lon="6.42374">
        <ele>1050.7</ele>
        <time>2021-08-14T10:44:26Z</time>
      </trkpt>
      <trkpt lat="46.87435" lon="6.42375">
        <ele>1050.8</ele>
        <time>2021-08-14T10:44:27Z</time>
      </trkpt>
      <trkpt lat="46.87437" lon="6.4238">
        <ele>1051.2</ele>
        <time>2021-08-14T10:44:28Z</time>
      </trkpt>
      <trkpt lat="46.87439" lon="6.4238">
        <ele>1051.3</ele>
        <time>2021-08-14T10:44:30Z</time>
      </trkpt>
      <trkpt lat="46.87443" lon="6.4238">
        <ele>1051.7</ele>
        <time>2021-08-14T10:44:32Z</time>
      </trkpt>
      <trkpt lat="46.87444" lon="6.4238">
        <ele>1051.7</ele>
        <time>2021-08-14T10:44:33Z</time>
      </trkpt>
      <trkpt lat="46.87444" lon="6.42382">
        <ele>1051.8</ele>
        <time>2021-08-14T10:44:35Z</time>
      </trkpt>
      <trkpt lat="46.87443" lon="6.42384">
        <ele>1051.9</ele>
        <time>2021-08-14T10:44:36Z</time>
      </trkpt>
      <trkpt lat="46.87443" lon="6.42387">
        <ele>1052.1</ele>
        <time>2021-08-14T10:44:37Z</time>
      </trkpt>
      <trkpt lat="46.87483" lon="6.42496">
        <ele>1055.5</ele>
        <time>2021-08-14T10:45:17Z</time>
      </trkpt>
      <trkpt lat="46.87488" lon="6.42507">
        <ele>1055.4</ele>
        <time>2021-08-14T10:45:19Z</time>
      </trkpt>
      <trkpt lat="46.87492" lon="6.42516">
        <ele>1055.3</ele>
        <time>2021-08-14T10:45:20Z</time>
      </trkpt>
      <trkpt lat="46.87496" lon="6.42524">
        <ele>1055.2</ele>
        <time>2021-08-14T10:45:21Z</time>
      </trkpt>
      <trkpt lat="46.87499" lon="6.42531">
        <ele>1055.2</ele>
        <time>2021-08-14T10:45:23Z</time>
      </trkpt>
      <trkpt lat="46.87502" lon="6.42536">
        <ele>1055.1</ele>
        <time>2021-08-14T10:45:24Z</time>
      </trkpt>
      <trkpt lat="46.87508" lon="6.42549">
        <ele>1055</ele>
        <time>2021-08-14T10:45:26Z</time>
      </trkpt>
      <trkpt lat="46.8751" lon="6.42555">
        <ele>1054.9</ele>
        <time>2021-08-14T10:45:27Z</time>
      </trkpt>
      <trkpt lat="46.87514" lon="6.42565">
        <ele>1054.9</ele>
        <time>2021-08-14T10:45:28Z</time>
      </trkpt>
      <trkpt lat="46.87517" lon="6.42572">
        <ele>1054.8</ele>
        <time>2021-08-14T10:45:30Z</time>
      </trkpt>
      <trkpt lat="46.8752" lon="6.4258">
        <ele>1054.7</ele>
        <time>2021-08-14T10:45:31Z</time>
      </trkpt>
      <trkpt lat="46.8752" lon="6.42586">
        <ele>1054.7</ele>
        <time>2021-08-14T10:45:33Z</time>
      </trkpt>
      <trkpt lat="46.8752" lon="6.42588">
        <ele>1054.7</ele>
        <time>2021-08-14T10:45:34Z</time>
      </trkpt>
      <trkpt lat="46.87519" lon="6.42589">
        <ele>1054.7</ele>
        <time>2021-08-14T10:45:35Z</time>
      </trkpt>
      <trkpt lat="46.87519" lon="6.4259">
        <ele>1054.7</ele>
        <time>2021-08-14T10:45:36Z</time>
      </trkpt>
      <trkpt lat="46.8752" lon="6.42594">
        <ele>1054.6</ele>
        <time>2021-08-14T10:45:37Z</time>
      </trkpt>
      <trkpt lat="46.8752" lon="6.42596">
        <ele>1054.6</ele>
        <time>2021-08-14T10:45:39Z</time>
      </trkpt>
      <trkpt lat="46.8752" lon="6.42599">
        <ele>1054.6</ele>
        <time>2021-08-14T10:45:40Z</time>
      </trkpt>
      <trkpt lat="46.8752" lon="6.42601">
        <ele>1054.6</ele>
        <time>2021-08-14T10:45:41Z</time>
      </trkpt>
      <trkpt lat="46.87521" lon="6.42607">
        <ele>1054.5</ele>
        <time>2021-08-14T10:45:43Z</time>
      </trkpt>
      <trkpt lat="46.87708" lon="6.43187">
        <ele>1062.1</ele>
        <time>2021-08-14T10:47:54Z</time>
      </trkpt>
      <trkpt lat="46.8771" lon="6.4319">
        <ele>1062.2</ele>
        <time>2021-08-14T10:47:55Z</time>
      </trkpt>
      <trkpt lat="46.87712" lon="6.43195">
        <ele>1062.3</ele>
        <time>2021-08-14T10:47:56Z</time>
      </trkpt>
      <trkpt lat="46.87713" lon="6.43201">
        <ele>1062.5</ele>
        <time>2021-08-14T10:47:57Z</time>
      </trkpt>
      <trkpt lat="46.87714" lon="6.43207">
        <ele>1062.6</ele>
        <time>2021-08-14T10:47:58Z</time>
      </trkpt>
      <trkpt lat="46.87715" lon="6.43213">
        <ele>1062.7</ele>
        <time>2021-08-14T10:47:59Z</time>
      </trkpt>
      <trkpt lat="46.87717" lon="6.4322">
        <ele>1062.8</ele>
        <time>2021-08-14T10:48:00Z</time>
      </trkpt>
      <trkpt lat="46.87717" lon="6.43226">
        <ele>1062.9</ele>
        <time>2021-08-14T10:48:01Z</time>
      </trkpt>
      <trkpt lat="46.87718" lon="6.43232">
        <ele>1063</ele>
        <time>2021-08-14T10:48:02Z</time>
      </trkpt>
      <trkpt lat="46.87718" lon="6.43237">
        <ele>1063.1</ele>
        <time>2021-08-14T10:48:03Z</time>
      </trkpt>
      <trkpt lat="46.87717" lon="6.43248">
        <ele>1063.3</ele>
        <time>2021-08-14T10:48:05Z</time>
      </trkpt>
      <trkpt lat="46.87718" lon="6.43256">
        <ele>1063.4</ele>
        <time>2021-08-14T10:48:07Z</time>
      </trkpt>
      <trkpt lat="46.87719" lon="6.43263">
        <ele>1063.5</ele>
        <time>2021-08-14T10:48:09Z</time>
      </trkpt>
      <trkpt lat="46.87719" lon="6.43268">
        <ele>1063.6</ele>
        <time>2021-08-14T10:48:10Z</time>
      </trkpt>
      <trkpt lat="46.8772" lon="6.4327">
        <ele>1063.6</ele>
        <time>2021-08-14T10:48:11Z</time>
      </trkpt>
      <trkpt lat="46.87721" lon="6.43274">
        <ele>1063.7</ele>
        <time>2021-08-14T10:48:12Z</time>
      </trkpt>
      <trkpt lat="46.87721" lon="6.43277">
        <ele>1063.7</ele>
        <time>2021-08-14T10:48:13Z</time>
      </trkpt>
      <trkpt lat="46.87721" lon="6.43281">
        <ele>1063.7</ele>
        <time>2021-08-14T10:48:15Z</time>
      </trkpt>
      <trkpt lat="46.8772" lon="6.43287">
        <ele>1063.8</ele>
        <time>2021-08-14T10:48:16Z</time>
      </trkpt>
      <trkpt lat="46.8771" lon="6.43301">
        <ele>1063.9</ele>
        <time>2021-08-14T10:48:18Z</time>
      </trkpt>
      <trkpt lat="46.87704" lon="6.43309">
        <ele>1063.9</ele>
        <time>2021-08-14T10:48:19Z</time>
      </trkpt>
      <trkpt lat="46.87694" lon="6.43323">
        <ele>1063.9</ele>
        <time>2021-08-14T10:48:21Z</time>
      </trkpt>
      <trkpt lat="46.87689" lon="6.43333">
        <ele>1063.9</ele>
        <time>2021-08-14T10:48:23Z</time>
      </trkpt>
      <trkpt lat="46.87685" lon="6.43337">
        <ele>1063.9</ele>
        <time>2021-08-14T10:48:24Z</time>
      </trkpt>
      <trkpt lat="46.87679" lon="6.43351">
        <ele>1063.9</ele>
        <time>2021-08-14T10:48:26Z</time>
      </trkpt>
      <trkpt lat="46.87676" lon="6.43364">
        <ele>1064</ele>
        <time>2021-08-14T10:48:28Z</time>
      </trkpt>
      <trkpt lat="46.87674" lon="6.43369">
        <ele>1064</ele>
        <time>2021-08-14T10:48:29Z</time>
      </trkpt>
      <trkpt lat="46.87672" lon="6.43374">
        <ele>1064.1</ele>
        <time>2021-08-14T10:48:30Z</time>
      </trkpt>
      <trkpt lat="46.87672" lon="6.43381">
        <ele>1064.2</ele>
        <time>2021-08-14T10:48:32Z</time>
      </trkpt>
      <trkpt lat="46.87672" lon="6.43385">
        <ele>1064.2</ele>
        <time>2021-08-14T10:48:33Z</time>
      </trkpt>
      <trkpt lat="46.87671" lon="6.4339">
        <ele>1064.3</ele>
        <time>2021-08-14T10:48:34Z</time>
      </trkpt>
      <trkpt lat="46.87668" lon="6.43399">
        <ele>1064.5</ele>
        <time>2021-08-14T10:48:36Z</time>
      </trkpt>
      <trkpt lat="46.87663" lon="6.43403">
        <ele>1064.7</ele>
        <time>2021-08-14T10:48:37Z</time>
      </trkpt>
      <trkpt lat="46.87659" lon="6.43409">
        <ele>1065</ele>
        <time>2021-08-14T10:48:39Z</time>
      </trkpt>
      <trkpt lat="46.87658" lon="6.43415">
        <ele>1065.7</ele>
        <time>2021-08-14T10:48:41Z</time>
      </trkpt>
      <trkpt lat="46.87658" lon="6.43418">
        <ele>1065.8</ele>
        <time>2021-08-14T10:48:42Z</time>
      </trkpt>
      <trkpt lat="46.87657" lon="6.4342">
        <ele>1065.9</ele>
        <time>2021-08-14T10:48:43Z</time>
      </trkpt>
      <trkpt lat="46.87656" lon="6.43422">
        <ele>1066.1</ele>
        <time>2021-08-14T10:48:45Z</time>
      </trkpt>
      <trkpt lat="46.87657" lon="6.43422">
        <ele>1066.2</ele>
        <time>2021-08-14T10:48:46Z</time>
      </trkpt>
      <trkpt lat="46.87659" lon="6.43421">
        <ele>1066.3</ele>
        <time>2021-08-14T10:48:47Z</time>
      </trkpt>
      <trkpt lat="46.8766" lon="6.4342">
        <ele>1066.4</ele>
        <time>2021-08-14T10:48:48Z</time>
      </trkpt>
      <trkpt lat="46.8766" lon="6.4342">
        <ele>1066.4</ele>
        <time>2021-08-14T10:48:49Z</time>
      </trkpt>
      <trkpt lat="46.8766" lon="6.4342">
        <ele>1066.4</ele>
        <time>2021-08-14T10:48:50Z</time>
      </trkpt>
      <trkpt lat="46.87659" lon="6.43419">
        <ele>1066.5</ele>
        <time>2021-08-14T10:48:51Z</time>
      </trkpt>
      <trkpt lat="46.87659" lon="6.43419">
        <ele>1066.6</ele>
        <time>2021-08-14T10:48:53Z</time>
      </trkpt>
      <trkpt lat="46.87658" lon="6.43418">
        <ele>1066.6</ele>
        <time>2021-08-14T10:48:54Z</time>
      </trkpt>
      <trkpt lat="46.87658" lon="6.43418">
        <ele>1066.6</ele>
        <time>2021-08-14T10:48:55Z</time>
      </trkpt>
      <trkpt lat="46.87469" lon="6.43236">
        <ele>1095.2</ele>
        <time>2021-08-14T10:53:47Z</time>
      </trkpt>
      <trkpt lat="46.87468" lon="6.43235">
        <ele>1095.4</ele>
        <time>2021-08-14T10:53:48Z</time>
      </trkpt>
      <trkpt lat="46.87466" lon="6.43235">
        <ele>1095.6</ele>
        <time>2021-08-14T10:53:50Z</time>
      </trkpt>
      <trkpt lat="46.87464" lon="6.43233">
        <ele>1095.8</ele>
        <time>2021-08-14T10:53:51Z</time>
      </trkpt>
      <trkpt lat="46.87463" lon="6.43233">
        <ele>1095.9</ele>
        <time>2021-08-14T10:53:52Z</time>
      </trkpt>
      <trkpt lat="46.87462" lon="6.43233">
        <ele>1096.1</ele>
        <time>2021-08-14T10:53:54Z</time>
      </trkpt>
      <trkpt lat="46.87461" lon="6.43232">
        <ele>1096.2</ele>
        <time>2021-08-14T10:53:55Z</time>
      </trkpt>
      <trkpt lat="46.87461" lon="6.43232">
        <ele>1096.3</ele>
        <time>2021-08-14T10:53:56Z</time>
      </trkpt>
      <trkpt lat="46.8746" lon="6.43232">
        <ele>1096.3</ele>
        <time>2021-08-14T10:53:58Z</time>
      </trkpt>
      <trkpt lat="46.87459" lon="6.43232">
        <ele>1096.4</ele>
        <time>2021-08-14T10:54:00Z</time>
      </trkpt>
      <trkpt lat="46.87232" lon="6.43148">
        <ele>1120.9</ele>
        <time>2021-08-14T10:59:11Z</time>
      </trkpt>
      <trkpt lat="46.8722" lon="6.43144">
        <ele>1121.1</ele>
        <time>2021-08-14T10:59:13Z</time>
      </trkpt>
      <trkpt lat="46.87212" lon="6.43141">
        <ele>1121.2</ele>
        <time>2021-08-14T10:59:14Z</time>
      </trkpt>
      <trkpt lat="46.87206" lon="6.43139">
        <ele>1121.2</ele>
        <time>2021-08-14T10:59:15Z</time>
      </trkpt>
      <trkpt lat="46.87201" lon="6.43137">
        <ele>1121.2</ele>
        <time>2021-08-14T10:59:16Z</time>
      </trkpt>
      <trkpt lat="46.87198" lon="6.43134">
        <ele>1121.2</ele>
        <time>2021-08-14T10:59:17Z</time>
      </trkpt>
      <trkpt lat="46.87187" lon="6.43125">
        <ele>1121.2</ele>
        <time>2021-08-14T10:59:18Z</time>
      </trkpt>
      <trkpt lat="46.87184" lon="6.43122">
        <ele>1121.2</ele>
        <time>2021-08-14T10:59:19Z</time>
      </trkpt>
      <trkpt lat="46.87181" lon="6.43118">
        <ele>1121.2</ele>
        <time>2021-08-14T10:59:21Z</time>
      </trkpt>
      <trkpt lat="46.8718" lon="6.43118">
        <ele>1121.2</ele>
        <time>2021-08-14T10:59:22Z</time>
      </trkpt>
      <trkpt lat="46.87177" lon="6.43113">
        <ele>1121.2</ele>
        <time>2021-08-14T10:59:23Z</time>
      </trkpt>
      <trkpt lat="46.87173" lon="6.43107">
        <ele>1121.1</ele>
        <time>2021-08-14T10:59:25Z</time>
      </trkpt>
      <trkpt lat="46.87173" lon="6.43102">
        <ele>1121.1</ele>
        <time>2021-08-14T10:59:26Z</time>
      </trkpt>
      <trkpt lat="46.87173" lon="6.43097">
        <ele>1121.1</ele>
        <time>2021-08-14T10:59:28Z</time>
      </trkpt>
      <trkpt lat="46.87174" lon="6.43093">
        <ele>1121.1</ele>
        <time>2021-08-14T10:59:29Z</time>
      </trkpt>
      <trkpt lat="46.87177" lon="6.43077">
        <ele>1121</ele>
        <time>2021-08-14T10:59:30Z</time>
      </trkpt>
      <trkpt lat="46.87181" lon="6.43066">
        <ele>1121</ele>
        <time>2021-08-14T10:59:31Z</time>
      </trkpt>
      <trkpt lat="46.87183" lon="6.43059">
        <ele>1121</ele>
        <time>2021-08-14T10:59:32Z</time>
      </trkpt>
      <trkpt lat="46.87184" lon="6.43047">
        <ele>1121</ele>
        <time>2021-08-14T10:59:34Z</time>
      </trkpt>
      <trkpt lat="46.87185" lon="6.43038">
        <ele>1121.1</ele>
        <time>2021-08-14T10:59:35Z</time>
      </trkpt>
      <trkpt lat="46.87185" lon="6.43031">
        <ele>1121.2</ele>
        <time>2021-08-14T10:59:36Z</time>
      </trkpt>
      <trkpt lat="46.87184" lon="6.43025">
        <ele>1121.3</ele>
        <time>2021-08-14T10:59:37Z</time>
      </trkpt>
      <trkpt lat="46.87181" lon="6.43021">
        <ele>1121.5</ele>
        <time>2021-08-14T10:59:39Z</time>
      </trkpt>
      <trkpt lat="46.8718" lon="6.43019">
        <ele>1121.6</ele>
        <time>2021-08-14T10:59:40Z</time>
      </trkpt>
      <trkpt lat="46.87178" lon="6.43018">
        <ele>1121.6</ele>
        <time>2021-08-14T10:59:41Z</time>
      </trkpt>
      <trkpt lat="46.87177" lon="6.43016">
        <ele>1121.7</ele>
        <time>2021-08-14T10:59:42Z</time>
      </trkpt>
      <trkpt lat="46.87178" lon="6.43013">
        <ele>1121.8</ele>
        <time>2021-08-14T10:59:43Z</time>
      </trkpt>
      <trkpt lat="46.87179" lon="6.43011">
        <ele>1121.9</ele>
        <time>2021-08-14T10:59:44Z</time>
      </trkpt>
      <trkpt lat="46.87181" lon="6.43003">
        <ele>1122.1</ele>
        <time>2021-08-14T10:59:46Z</time>
      </trkpt>
      <trkpt lat="46.87182" lon="6.42996">
        <ele>1122.3</ele>
        <time>2021-08-14T10:59:47Z</time>
      </trkpt>
      <trkpt lat="46.87186" lon="6.42988">
        <ele>1122.5</ele>
        <time>2021-08-14T10:59:49Z</time>
      </trkpt>
      <trkpt lat="46.87187" lon="6.42987">
        <ele>1122.5</ele>
        <time>2021-08-14T10:59:51Z</time>
      </trkpt>
      <trkpt lat="46.87188" lon="6.42986">
        <ele>1122.5</ele>
        <time>2021-08-14T10:59:52Z</time>
      </trkpt>
      <trkpt lat="46.87189" lon="6.42985">
        <ele>1122.6</ele>
        <time>2021-08-14T10:59:53Z</time>
      </trkpt>
      <trkpt lat="46.87191" lon="6.42981">
        <ele>1122.7</ele>
        <time>2021-08-14T10:59:55Z</time>
      </trkpt>
      <trkpt lat="46.87192" lon="6.42979">
        <ele>1122.7</ele>
        <time>2021-08-14T10:59:56Z</time>
      </trkpt>
      <trkpt lat="46.87193" lon="6.42977">
        <ele>1122.7</ele>
        <time>2021-08-14T10:59:57Z</time>
      </trkpt>
      <trkpt lat="46.87194" lon="6.42974">
        <ele>1122.8</ele>
        <time>2021-08-14T10:59:58Z</time>
      </trkpt>
      <trkpt lat="46.87195" lon="6.42971">
        <ele>1122.8</ele>
        <time>2021-08-14T11:00:00Z</time>
      </trkpt>
      <trkpt lat="46.87161" lon="6.42938">
        <ele>1123.3</ele>
        <time>2021-08-14T11:00:22Z</time>
      </trkpt>
      <trkpt lat="46.87159" lon="6.42936">
        <ele>1123.3</ele>
        <time>2021-08-14T11:00:23Z</time>
      </trkpt>
      <trkpt lat="46.87158" lon="6.42932">
        <ele>1123.3</ele>
        <time>2021-08-14T11:00:25Z</time>
      </trkpt>
      <trkpt lat="46.87158" lon="6.42931">
        <ele>1123.3</ele>
        <time>2021-08-14T11:00:26Z</time>
      </trkpt>
      <trkpt lat="46.87153" lon="6.42916">
        <ele>1123.4</ele>
        <time>2021-08-14T11:00:28Z</time>
      </trkpt>
      <trkpt lat="46.87149" lon="6.42904">
        <ele>1123.5</ele>
        <time>2021-08-14T11:00:29Z</time>
      </trkpt>
      <trkpt lat="46.87145" lon="6.42896">
        <ele>1123.6</ele>
        <time>2021-08-14T11:00:31Z</time>
      </trkpt>
      <trkpt lat="46.87141" lon="6.42888">
        <ele>1123.6</ele>
        <time>2021-08-14T11:00:33Z</time>
      </trkpt>
      <trkpt lat="46.87139" lon="6.42882">
        <ele>1123.6</ele>
        <time>2021-08-14T11:00:34Z</time>
      </trkpt>
      <trkpt lat="46.87136" lon="6.42878">
        <ele>1123.6</ele>
        <time>2021-08-14T11:00:35Z</time>
      </trkpt>
      <trkpt lat="46.87135" lon="6.42873">
        <ele>1123.6</ele>
        <time>2021-08-14T11:00:36Z</time>
      </trkpt>
      <trkpt lat="46.87135" lon="6.42866">
        <ele>1123.6</ele>
        <time>2021-08-14T11:00:37Z</time>
      </trkpt>
      <trkpt lat="46.87133" lon="6.42858">
        <ele>1123.5</ele>
        <time>2021-08-14T11:00:38Z</time>
      </trkpt>
      <trkpt lat="46.8713" lon="6.4285">
        <ele>1123.5</ele>
        <time>2021-08-14T11:00:40Z</time>
      </trkpt>
      <trkpt lat="46.87126" lon="6.42845">
        <ele>1123.4</ele>
        <time>2021-08-14T11:00:41Z</time>
      </trkpt>
      <trkpt lat="46.87121" lon="6.42838">
        <ele>1123.3</ele>
        <time>2021-08-14T11:00:42Z</time>
      </trkpt>
      <trkpt lat="46.87118" lon="6.42833">
        <ele>1123.2</ele>
        <time>2021-08-14T11:00:43Z</time>
      </trkpt>
      <trkpt lat="46.87115" lon="6.42827">
        <ele>1123.1</ele>
        <time>2021-08-14T11:00:44Z</time>
      </trkpt>
      <trkpt lat="46.87113" lon="6.42816">
        <ele>1123</ele>
        <time>2021-08-14T11:00:46Z</time>
      </trkpt>
      <trkpt lat="46.87112" lon="6.42809">
        <ele>1122.9</ele>
        <time>2021-08-14T11:00:47Z</time>
      </trkpt>
      <trkpt lat="46.87112" lon="6.42802">
        <ele>1122.8</ele>
        <time>2021-08-14T11:00:48Z</time>
      </trkpt>
      <trkpt lat="46.87111" lon="6.42796">
        <ele>1122.7</ele>
        <time>2021-08-14T11:00:49Z</time>
      </trkpt>
      <trkpt lat="46.87109" lon="6.42791">
        <ele>1122.6</ele>
        <time>2021-08-14T11:00:50Z</time>
      </trkpt>
      <trkpt lat="46.87107" lon="6.42784">
        <ele>1122.5</ele>
        <time>2021-08-14T11:00:52Z</time>
      </trkpt>
      <trkpt lat="46.87104" lon="6.42777">
        <ele>1122.4</ele>
        <time>2021-08-14T11:00:53Z</time>
      </trkpt>
      <trkpt lat="46.87103" lon="6.42771">
        <ele>1122.3</ele>
        <time>2021-08-14T11:00:54Z</time>
      </trkpt>
      <trkpt lat="46.87102" lon="6.42761">
        <ele>1122.1</ele>
        <time>2021-08-14T11:00:55Z</time>
      </trkpt>
      <trkpt lat="46.87097" lon="6.42743">
        <ele>1121.6</ele>
        <time>2021-08-14T11:00:57Z</time>
      </trkpt>
      <trkpt lat="46.87095" lon="6.42734">
        <ele>1121.4</ele>
        <time>2021-08-14T11:00:58Z</time>
      </trkpt>
      <trkpt lat="46.87093" lon="6.4272">
        <ele>1121.1</ele>
        <time>2021-08-14T11:01:00Z</time>
      </trkpt>
      <trkpt lat="46.87091" lon="6.42713">
        <ele>1121</ele>
        <time>2021-08-14T11:01:01Z</time>
      </trkpt>
      <trkpt lat="46.87088" lon="6.42708">
        <ele>1121</ele>
        <time>2021-08-14T11:01:02Z</time>
      </trkpt>
      <trkpt lat="46.87085" lon="6.42709">
        <ele>1120.9</ele>
        <time>2021-08-14T11:01:03Z</time>
      </trkpt>
      <trkpt lat="46.87083" lon="6.42704">
        <ele>1120.9</ele>
        <time>2021-08-14T11:01:04Z</time>
      </trkpt>
      <trkpt lat="46.87079" lon="6.42697">
        <ele>1120.8</ele>
        <time>2021-08-14T11:01:06Z</time>
      </trkpt>
      <trkpt lat="46.87075" lon="6.42692">
        <ele>1120.8</ele>
        <time>2021-08-14T11:01:08Z</time>
      </trkpt>
      <trkpt lat="46.87072" lon="6.42688">
        <ele>1120.7</ele>
        <time>2021-08-14T11:01:09Z</time>
      </trkpt>
      <trkpt lat="46.87069" lon="6.42685">
        <ele>1120.7</ele>
        <time>2021-08-14T11:01:10Z</time>
      </trkpt>
      <trkpt lat="46.87066" lon="6.42682">
        <ele>1120.6</ele>
        <time>2021-08-14T11:01:11Z</time>
      </trkpt>
      <trkpt lat="46.8706" lon="6.42675">
        <ele>1120.3</ele>
        <time>2021-08-14T11:01:13Z</time>
      </trkpt>
      <trkpt lat="46.87053" lon="6.42668">
        <ele>1120</ele>
        <time>2021-08-14T11:01:14Z</time>
      </trkpt>
      <trkpt lat="46.87047" lon="6.42661">
        <ele>1119.6</ele>
        <time>2021-08-14T11:01:15Z</time>
      </trkpt>
      <trkpt lat="46.87041" lon="6.42649">
        <ele>1119.1</ele>
        <time>2021-08-14T11:01:17Z</time>
      </trkpt>
      <trkpt lat="46.87043" lon="6.42633">
        <ele>1118.6</ele>
        <time>2021-08-14T11:01:19Z</time>
      </trkpt>
      <trkpt lat="46.87043" lon="6.42623">
        <ele>1118.4</ele>
        <time>2021-08-14T11:01:21Z</time>
      </trkpt>
      <trkpt lat="46.87042" lon="6.42617">
        <ele>1118.3</ele>
        <time>2021-08-14T11:01:22Z</time>
      </trkpt>
      <trkpt lat="46.8704" lon="6.42612">
        <ele>1118.2</ele>
        <time>2021-08-14T11:01:23Z</time>
      </trkpt>
      <trkpt lat="46.87034" lon="6.42599">
        <ele>1117.9</ele>
        <time>2021-08-14T11:01:25Z</time>
      </trkpt>
      <trkpt lat="46.87031" lon="6.42592">
        <ele>1117.8</ele>
        <time>2021-08-14T11:01:26Z</time>
      </trkpt>
      <trkpt lat="46.87031" lon="6.42583">
        <ele>1117.7</ele>
        <time>2021-08-14T11:01:28Z</time>
      </trkpt>
      <trkpt lat="46.87033" lon="6.4258">
        <ele>1117.7</ele>
        <time>2021-08-14T11:01:29Z</time>
      </trkpt>
      <trkpt lat="46.87036" lon="6.42576">
        <ele>1117.7</ele>
        <time>2021-08-14T11:01:30Z</time>
      </trkpt>
      <trkpt lat="46.87041" lon="6.42566">
        <ele>1117.7</ele>
        <time>2021-08-14T11:01:32Z</time>
      </trkpt>
      <trkpt lat="46.87042" lon="6.42562">
        <ele>1117.8</ele>
        <time>2021-08-14T11:01:33Z</time>
      </trkpt>
      <trkpt lat="46.87042" lon="6.42558">
        <ele>1117.8</ele>
        <time>2021-08-14T11:01:34Z</time>
      </trkpt>
      <trkpt lat="46.87039" lon="6.42548">
        <ele>1118</ele>
        <time>2021-08-14T11:01:36Z</time>
      </trkpt>
      <trkpt lat="46.87033" lon="6.4254">
        <ele>1118.2</ele>
        <time>2021-08-14T11:01:38Z</time>
      </trkpt>
      <trkpt lat="46.87029" lon="6.42536">
        <ele>1118.4</ele>
        <time>2021-08-14T11:01:40Z</time>
      </trkpt>
      <trkpt lat="46.87026" lon="6.42534">
        <ele>1118.5</ele>
        <time>2021-08-14T11:01:41Z</time>
      </trkpt>
      <trkpt lat="46.87025" lon="6.42531">
        <ele>1118.6</ele>
        <time>2021-08-14T11:01:42Z</time>
      </trkpt>
      <trkpt lat="46.87026" lon="6.42527">
        <ele>1118.7</ele>
        <time>2021-08-14T11:01:44Z</time>
      </trkpt>
      <trkpt lat="46.87026" lon="6.42522">
        <ele>1118.9</ele>
        <time>2021-08-14T11:01:46Z</time>
      </trkpt>
      <trkpt lat="46.87025" lon="6.42518">
        <ele>1119</ele>
        <time>2021-08-14T11:01:49Z</time>
      </trkpt>
      <trkpt lat="46.87024" lon="6.42515">
        <ele>1119.1</ele>
        <time>2021-08-14T11:01:51Z</time>
      </trkpt>
      <trkpt lat="46.87024" lon="6.42515">
        <ele>1119.2</ele>
        <time>2021-08-14T11:01:52Z</time>
      </trkpt>
      <trkpt lat="46.87024" lon="6.42515">
        <ele>1119.2</ele>
        <time>2021-08-14T11:01:54Z</time>
      </trkpt>
      <trkpt lat="46.87017" lon="6.42512">
        <ele>1119.5</ele>
        <time>2021-08-14T11:01:56Z</time>
      </trkpt>
      <trkpt lat="46.87012" lon="6.42512">
        <ele>1119.8</ele>
        <time>2021-08-14T11:01:58Z</time>
      </trkpt>
      <trkpt lat="46.8701" lon="6.42511">
        <ele>1119.9</ele>
        <time>2021-08-14T11:02:00Z</time>
      </trkpt>
      <trkpt lat="46.87007" lon="6.42511">
        <ele>1120</ele>
        <time>2021-08-14T11:02:01Z</time>
      </trkpt>
      <trkpt lat="46.87005" lon="6.42511">
        <ele>1120.1</ele>
        <time>2021-08-14T11:02:03Z</time>
      </trkpt>
      <trkpt lat="46.87003" lon="6.42511">
        <ele>1120.2</ele>
        <time>2021-08-14T11:02:04Z</time>
      </trkpt>
      <trkpt lat="46.87001" lon="6.4251">
        <ele>1120.3</ele>
        <time>2021-08-14T11:02:05Z</time>
      </trkpt>
      <trkpt lat="46.86999" lon="6.4251">
        <ele>1120.4</ele>
        <time>2021-08-14T11:02:07Z</time>
      </trkpt>
      <trkpt lat="46.86996" lon="6.4251">
        <ele>1120.5</ele>
        <time>2021-08-14T11:02:09Z</time>
      </trkpt>
      <trkpt lat="46.86994" lon="6.4251">
        <ele>1120.6</ele>
        <time>2021-08-14T11:02:10Z</time>
      </trkpt>
      <trkpt lat="46.86992" lon="6.42509">
        <ele>1120.7</ele>
        <time>2021-08-14T11:02:11Z</time>
      </trkpt>
      <trkpt lat="46.86983" lon="6.42505">
        <ele>1121.1</ele>
        <time>2021-08-14T11:02:13Z</time>
      </trkpt>
      <trkpt lat="46.86962" lon="6.42509">
        <ele>1121.5</ele>
        <time>2021-08-14T11:02:15Z</time>
      </trkpt>
      <trkpt lat="46.86956" lon="6.4251">
        <ele>1121.5</ele>
        <time>2021-08-14T11:02:16Z</time>
      </trkpt>
      <trkpt lat="46.86952" lon="6.42509">
        <ele>1121.5</ele>
        <time>2021-08-14T11:02:17Z</time>
      </trkpt>
      <trkpt lat="46.86948" lon="6.42509">
        <ele>1121.4</ele>
        <time>2021-08-14T11:02:19Z</time>
      </trkpt>
      <trkpt lat="46.86942" lon="6.42507">
        <ele>1121.4</ele>
        <time>2021-08-14T11:02:21Z</time>
      </trkpt>
      <trkpt lat="46.86942" lon="6.42507">
        <ele>1121.4</ele>
        <time>2021-08-14T11:02:22Z</time>
      </trkpt>
      <trkpt lat="46.8694" lon="6.42506">
        <ele>1121.3</ele>
        <time>2021-08-14T11:02:24Z</time>
      </trkpt>
      <trkpt lat="46.86939" lon="6.42505">
        <ele>1121.3</ele>
        <time>2021-08-14T11:02:25Z</time>
      </trkpt>
      <trkpt lat="46.86937" lon="6.42504">
        <ele>1121.3</ele>
        <time>2021-08-14T11:02:26Z</time>
      </trkpt>
      <trkpt lat="46.86932" lon="6.42499">
        <ele>1121.2</ele>
        <time>2021-08-14T11:02:28Z</time>
      </trkpt>
      <trkpt lat="46.86929" lon="6.42499">
        <ele>1121.2</ele>
        <time>2021-08-14T11:02:29Z</time>
      </trkpt>
      <trkpt lat="46.86924" lon="6.42498">
        <ele>1121.2</ele>
        <time>2021-08-14T11:02:30Z</time>
      </trkpt>
      <trkpt lat="46.86921" lon="6.42497">
        <ele>1121.2</ele>
        <time>2021-08-14T11:02:31Z</time>
      </trkpt>
      <trkpt lat="46.86918" lon="6.42497">
        <ele>1121.2</ele>
        <time>2021-08-14T11:02:32Z</time>
      </trkpt>
      <trkpt lat="46.86915" lon="6.42495">
        <ele>1121.2</ele>
        <time>2021-08-14T11:02:34Z</time>
      </trkpt>
      <trkpt lat="46.86913" lon="6.42496">
        <ele>1121.2</ele>
        <time>2021-08-14T11:02:35Z</time>
      </trkpt>
      <trkpt lat="46.8691" lon="6.42497">
        <ele>1121.2</ele>
        <time>2021-08-14T11:02:37Z</time>
      </trkpt>
      <trkpt lat="46.86909" lon="6.42497">
        <ele>1121.2</ele>
        <time>2021-08-14T11:02:38Z</time>
      </trkpt>
      <trkpt lat="46.86906" lon="6.42495">
        <ele>1121.2</ele>
        <time>2021-08-14T11:02:39Z</time>
      </trkpt>
      <trkpt lat="46.86905" lon="6.42493">
        <ele>1121.2</ele>
        <time>2021-08-14T11:02:40Z</time>
      </trkpt>
      <trkpt lat="46.86904" lon="6.42493">
        <ele>1121.2</ele>
        <time>2021-08-14T11:02:41Z</time>
      </trkpt>
      <trkpt lat="46.86902" lon="6.4249">
        <ele>1121.2</ele>
        <time>2021-08-14T11:02:43Z</time>
      </trkpt>
      <trkpt lat="46.86902" lon="6.42488">
        <ele>1121.2</ele>
        <time>2021-08-14T11:02:45Z</time>
      </trkpt>
      <trkpt lat="46.86902" lon="6.42485">
        <ele>1121.2</ele>
        <time>2021-08-14T11:02:46Z</time>
      </trkpt>
      <trkpt lat="46.86902" lon="6.42484">
        <ele>1121.2</ele>
        <time>2021-08-14T11:02:47Z</time>
      </trkpt>
      <trkpt lat="46.86902" lon="6.42483">
        <ele>1121.2</ele>
        <time>2021-08-14T11:02:48Z</time>
      </trkpt>
      <trkpt lat="46.86903" lon="6.4248">
        <ele>1121.2</ele>
        <time>2021-08-14T11:02:49Z</time>
      </trkpt>
      <trkpt lat="46.86901" lon="6.42425">
        <ele>1121.7</ele>
        <time>2021-08-14T11:03:01Z</time>
      </trkpt>
      <trkpt lat="46.86898" lon="6.42422">
        <ele>1121.9</ele>
        <time>2021-08-14T11:03:02Z</time>
      </trkpt>
      <trkpt lat="46.86894" lon="6.4242">
        <ele>1122</ele>
        <time>2021-08-14T11:03:03Z</time>
      </trkpt>
      <trkpt lat="46.86893" lon="6.4242">
        <ele>1122.1</ele>
        <time>2021-08-14T11:03:04Z</time>
      </trkpt>
      <trkpt lat="46.86888" lon="6.42419">
        <ele>1122.3</ele>
        <time>2021-08-14T11:03:06Z</time>
      </trkpt>
      <trkpt lat="46.86887" lon="6.42417">
        <ele>1122.4</ele>
        <time>2021-08-14T11:03:07Z</time>
      </trkpt>
      <trkpt lat="46.86883" lon="6.42412">
        <ele>1122.6</ele>
        <time>2021-08-14T11:03:09Z</time>
      </trkpt>
      <trkpt lat="46.86883" lon="6.42411">
        <ele>1122.7</ele>
        <time>2021-08-14T11:03:10Z</time>
      </trkpt>
      <trkpt lat="46.86881" lon="6.4241">
        <ele>1122.8</ele>
        <time>2021-08-14T11:03:11Z</time>
      </trkpt>
      <trkpt lat="46.8688" lon="6.42409">
        <ele>1123.2</ele>
        <time>2021-08-14T11:03:12Z</time>
      </trkpt>
      <trkpt lat="46.86879" lon="6.42409">
        <ele>1123.2</ele>
        <time>2021-08-14T11:03:13Z</time>
      </trkpt>
      <trkpt lat="46.86878" lon="6.4241">
        <ele>1123.3</ele>
        <time>2021-08-14T11:03:15Z</time>
      </trkpt>
      <trkpt lat="46.86856" lon="6.4241">
        <ele>1125.4</ele>
        <time>2021-08-14T11:03:31Z</time>
      </trkpt>
      <trkpt lat="46.86852" lon="6.42409">
        <ele>1125.7</ele>
        <time>2021-08-14T11:03:32Z</time>
      </trkpt>
      <trkpt lat="46.86848" lon="6.42406">
        <ele>1126.2</ele>
        <time>2021-08-14T11:03:34Z</time>
      </trkpt>
      <trkpt lat="46.86846" lon="6.42405">
        <ele>1126.3</ele>
        <time>2021-08-14T11:03:36Z</time>
      </trkpt>
      <trkpt lat="46.86847" lon="6.42405">
        <ele>1126.4</ele>
        <time>2021-08-14T11:03:37Z</time>
      </trkpt>
      <trkpt lat="46.86847" lon="6.42405">
        <ele>1126.4</ele>
        <time>2021-08-14T11:03:38Z</time>
      </trkpt>
      <trkpt lat="46.86847" lon="6.42405">
        <ele>1126.4</ele>
        <time>2021-08-14T11:03:39Z</time>
      </trkpt>
      <trkpt lat="46.86847" lon="6.42405">
        <ele>1126.4</ele>
        <time>2021-08-14T11:03:41Z</time>
      </trkpt>
      <trkpt lat="46.86846" lon="6.42405">
        <ele>1126.5</ele>
        <time>2021-08-14T11:03:42Z</time>
      </trkpt>
      <trkpt lat="46.86845" lon="6.42405">
        <ele>1126.6</ele>
        <time>2021-08-14T11:03:43Z</time>
      </trkpt>
      <trkpt lat="46.86844" lon="6.42406">
        <ele>1126.7</ele>
        <time>2021-08-14T11:03:45Z</time>
      </trkpt>
      <trkpt lat="46.86808" lon="6.42422">
        <ele>1129.7</ele>
        <time>2021-08-14T11:04:08Z</time>
      </trkpt>
      <trkpt lat="46.86807" lon="6.42424">
        <ele>1129.8</ele>
        <time>2021-08-14T11:04:10Z</time>
      </trkpt>
      <trkpt lat="46.86807" lon="6.42424">
        <ele>1129.9</ele>
        <time>2021-08-14T11:04:11Z</time>
      </trkpt>
      <trkpt lat="46.86807" lon="6.42425">
        <ele>1129.9</ele>
        <time>2021-08-14T11:04:13Z</time>
      </trkpt>
      <trkpt lat="46.86807" lon="6.42425">
        <ele>1129.9</ele>
        <time>2021-08-14T11:04:15Z</time>
      </trkpt>
      <trkpt lat="46.86807" lon="6.42425">
        <ele>1129.9</ele>
        <time>2021-08-14T11:04:17Z</time>
      </trkpt>
      <trkpt lat="46.86807" lon="6.42426">
        <ele>1129.9</ele>
        <time>2021-08-14T11:04:19Z</time>
      </trkpt>
      <trkpt lat="46.86807" lon="6.42426">
        <ele>1129.9</ele>
        <time>2021-08-14T11:04:20Z</time>
      </trkpt>
      <trkpt lat="46.86808" lon="6.42425">
        <ele>1130</ele>
        <time>2021-08-14T11:04:22Z</time>
      </trkpt>
      <trkpt lat="46.86808" lon="6.42425">
        <ele>1130</ele>
        <time>2021-08-14T11:04:23Z</time>
      </trkpt>
      <trkpt lat="46.86808" lon="6.42425">
        <ele>1130</ele>
        <time>2021-08-14T11:04:24Z</time>
      </trkpt>
      <trkpt lat="46.86808" lon="6.42426">
        <ele>1130</ele>
        <time>2021-08-14T11:04:26Z</time>
      </trkpt>
      <trkpt lat="46.86807" lon="6.42427">
        <ele>1130.1</ele>
        <time>2021-08-14T11:04:27Z</time>
      </trkpt>
      <trkpt lat="46.86806" lon="6.42429">
        <ele>1130.2</ele>
        <time>2021-08-14T11:04:28Z</time>
      </trkpt>
      <trkpt lat="46.86805" lon="6.42431">
        <ele>1130.3</ele>
        <time>2021-08-14T11:04:30Z</time>
      </trkpt>
      <trkpt lat="46.86804" lon="6.42433">
        <ele>1130.4</ele>
        <time>2021-08-14T11:04:31Z</time>
      </trkpt>
      <trkpt lat="46.86803" lon="6.42435">
        <ele>1130.6</ele>
        <time>2021-08-14T11:04:33Z</time>
      </trkpt>
      <trkpt lat="46.86803" lon="6.42436">
        <ele>1130.6</ele>
        <time>2021-08-14T11:04:34Z</time>
      </trkpt>
      <trkpt lat="46.86803" lon="6.42437">
        <ele>1130.6</ele>
        <time>2021-08-14T11:04:35Z</time>
      </trkpt>
      <trkpt lat="46.86803" lon="6.42437">
        <ele>1130.7</ele>
        <time>2021-08-14T11:04:37Z</time>
      </trkpt>
      <trkpt lat="46.86802" lon="6.42438">
        <ele>1130.7</ele>
        <time>2021-08-14T11:04:38Z</time>
      </trkpt>
      <trkpt lat="46.86802" lon="6.42439">
        <ele>1130.8</ele>
        <time>2021-08-14T11:04:40Z</time>
      </trkpt>
      <trkpt lat="46.86802" lon="6.42439">
        <ele>1130.8</ele>
        <time>2021-08-14T11:04:41Z</time>
      </trkpt>
      <trkpt lat="46.86802" lon="6.4244">
        <ele>1130.8</ele>
        <time>2021-08-14T11:04:42Z</time>
      </trkpt>
      <trkpt lat="46.86801" lon="6.42441">
        <ele>1130.9</ele>
        <time>2021-08-14T11:04:44Z</time>
      </trkpt>
      <trkpt lat="46.86801" lon="6.42441">
        <ele>1130.9</ele>
        <time>2021-08-14T11:04:45Z</time>
      </trkpt>
      <trkpt lat="46.86801" lon="6.42442">
        <ele>1131</ele>
        <time>2021-08-14T11:04:46Z</time>
      </trkpt>
      <trkpt lat="46.86798" lon="6.42447">
        <ele>1131.3</ele>
        <time>2021-08-14T11:04:47Z</time>
      </trkpt>
      <trkpt lat="46.86796" lon="6.4245">
        <ele>1131.6</ele>
        <time>2021-08-14T11:04:49Z</time>
      </trkpt>
      <trkpt lat="46.86793" lon="6.42454">
        <ele>1132</ele>
        <time>2021-08-14T11:04:50Z</time>
      </trkpt>
      <trkpt lat="46.86791" lon="6.42458">
        <ele>1132.3</ele>
        <time>2021-08-14T11:04:51Z</time>
      </trkpt>
      <trkpt lat="46.86788" lon="6.42462">
        <ele>1132.8</ele>
        <time>2021-08-14T11:04:52Z</time>
      </trkpt>
      <trkpt lat="46.86787" lon="6.42464">
        <ele>1133</ele>
        <time>2021-08-14T11:04:54Z</time>
      </trkpt>
      <trkpt lat="46.86786" lon="6.42465">
        <ele>1133.1</ele>
        <time>2021-08-14T11:04:55Z</time>
      </trkpt>
      <trkpt lat="46.86785" lon="6.42466">
        <ele>1133.2</ele>
        <time>2021-08-14T11:04:56Z</time>
      </trkpt>
      <trkpt lat="46.86783" lon="6.42467">
        <ele>1133.5</ele>
        <time>2021-08-14T11:04:57Z</time>
      </trkpt>
      <trkpt lat="46.8678" lon="6.42469">
        <ele>1133.9</ele>
        <time>2021-08-14T11:04:58Z</time>
      </trkpt>
      <trkpt lat="46.8678" lon="6.42469">
        <ele>1133.9</ele>
        <time>2021-08-14T11:04:59Z</time>
      </trkpt>
      <trkpt lat="46.86778" lon="6.4247">
        <ele>1134.1</ele>
        <time>2021-08-14T11:05:01Z</time>
      </trkpt>
      <trkpt lat="46.86777" lon="6.42472">
        <ele>1134.4</ele>
        <time>2021-08-14T11:05:02Z</time>
      </trkpt>
      <trkpt lat="46.86776" lon="6.42474">
        <ele>1134.5</ele>
        <time>2021-08-14T11:05:03Z</time>
      </trkpt>
      <trkpt lat="46.86776" lon="6.42475">
        <ele>1134.6</ele>
        <time>2021-08-14T11:05:04Z</time>
      </trkpt>
      <trkpt lat="46.86776" lon="6.42477">
        <ele>1134.8</ele>
        <time>2021-08-14T11:05:06Z</time>
      </trkpt>
      <trkpt lat="46.86776" lon="6.42477">
        <ele>1134.8</ele>
        <time>2021-08-14T11:05:07Z</time>
      </trkpt>
      <trkpt lat="46.86776" lon="6.42477">
        <ele>1134.8</ele>
        <time>2021-08-14T11:05:08Z</time>
      </trkpt>
      <trkpt lat="46.86775" lon="6.42476">
        <ele>1134.9</ele>
        <time>2021-08-14T11:05:10Z</time>
      </trkpt>
      <trkpt lat="46.86775" lon="6.42475">
        <ele>1135</ele>
        <time>2021-08-14T11:05:11Z</time>
      </trkpt>
      <trkpt lat="46.86775" lon="6.42473">
        <ele>1135.1</ele>
        <time>2021-08-14T11:05:13Z</time>
      </trkpt>
      <trkpt lat="46.86709" lon="6.42543">
        <ele>1141.8</ele>
        <time>2021-08-14T11:07:25Z</time>
      </trkpt>
      <trkpt lat="46.86705" lon="6.42551">
        <ele>1142.7</ele>
        <time>2021-08-14T11:07:26Z</time>
      </trkpt>
      <trkpt lat="46.86703" lon="6.42555">
        <ele>1143</ele>
        <time>2021-08-14T11:07:27Z</time>
      </trkpt>
      <trkpt lat="46.86702" lon="6.42557">
        <ele>1143.1</ele>
        <time>2021-08-14T11:07:28Z</time>
      </trkpt>
      <trkpt lat="46.86701" lon="6.42562">
        <ele>1143.5</ele>
        <time>2021-08-14T11:07:30Z</time>
      </trkpt>
      <trkpt lat="46.86699" lon="6.42566">
        <ele>1143.8</ele>
        <time>2021-08-14T11:07:31Z</time>
      </trkpt>
      <trkpt lat="46.86697" lon="6.4257">
        <ele>1144.1</ele>
        <time>2021-08-14T11:07:32Z</time>
      </trkpt>
      <trkpt lat="46.86696" lon="6.42572">
        <ele>1144.2</ele>
        <time>2021-08-14T11:07:33Z</time>
      </trkpt>
      <trkpt lat="46.86696" lon="6.42573">
        <ele>1144.3</ele>
        <time>2021-08-14T11:07:34Z</time>
      </trkpt>
      <trkpt lat="46.86696" lon="6.42575">
        <ele>1144.5</ele>
        <time>2021-08-14T11:07:35Z</time>
      </trkpt>
      <trkpt lat="46.86695" lon="6.42577">
        <ele>1144.6</ele>
        <time>2021-08-14T11:07:37Z</time>
      </trkpt>
      <trkpt lat="46.86695" lon="6.42578">
        <ele>1144.7</ele>
        <time>2021-08-14T11:07:38Z</time>
      </trkpt>
      <trkpt lat="46.86694" lon="6.42579">
        <ele>1144.7</ele>
        <time>2021-08-14T11:07:39Z</time>
      </trkpt>
      <trkpt lat="46.86694" lon="6.4258">
        <ele>1144.9</ele>
        <time>2021-08-14T11:07:40Z</time>
      </trkpt>
      <trkpt lat="46.86693" lon="6.42581">
        <ele>1145</ele>
        <time>2021-08-14T11:07:42Z</time>
      </trkpt>
      <trkpt lat="46.86693" lon="6.42582">
        <ele>1145</ele>
        <time>2021-08-14T11:07:44Z</time>
      </trkpt>
      <trkpt lat="46.86693" lon="6.42602">
        <ele>1146.3</ele>
        <time>2021-08-14T11:07:58Z</time>
      </trkpt>
      <trkpt lat="46.86693" lon="6.42606">
        <ele>1146.5</ele>
        <time>2021-08-14T11:07:59Z</time>
      </trkpt>
      <trkpt lat="46.86694" lon="6.42612">
        <ele>1146.9</ele>
        <time>2021-08-14T11:08:01Z</time>
      </trkpt>
      <trkpt lat="46.86695" lon="6.42617">
        <ele>1147.2</ele>
        <time>2021-08-14T11:08:02Z</time>
      </trkpt>
      <trkpt lat="46.86695" lon="6.42619">
        <ele>1147.3</ele>
        <time>2021-08-14T11:08:03Z</time>
      </trkpt>
      <trkpt lat="46.86696" lon="6.42624">
        <ele>1147.6</ele>
        <time>2021-08-14T11:08:05Z</time>
      </trkpt>
      <trkpt lat="46.86695" lon="6.42626">
        <ele>1147.8</ele>
        <time>2021-08-14T11:08:06Z</time>
      </trkpt>
      <trkpt lat="46.86692" lon="6.42627">
        <ele>1148.1</ele>
        <time>2021-08-14T11:08:08Z</time>
      </trkpt>
      <trkpt lat="46.86691" lon="6.42627">
        <ele>1148.2</ele>
        <time>2021-08-14T11:08:09Z</time>
      </trkpt>
      <trkpt lat="46.86691" lon="6.42628">
        <ele>1148.2</ele>
        <time>2021-08-14T11:08:10Z</time>
      </trkpt>
      <trkpt lat="46.86691" lon="6.42628">
        <ele>1148.2</ele>
        <time>2021-08-14T11:08:11Z</time>
      </trkpt>
      <trkpt lat="46.86691" lon="6.42628">
        <ele>1148.2</ele>
        <time>2021-08-14T11:08:12Z</time>
      </trkpt>
      <trkpt lat="46.8669" lon="6.4263">
        <ele>1148.3</ele>
        <time>2021-08-14T11:08:14Z</time>
      </trkpt>
      <trkpt lat="46.8669" lon="6.4263">
        <ele>1148.4</ele>
        <time>2021-08-14T11:08:15Z</time>
      </trkpt>
      <trkpt lat="46.86689" lon="6.42631">
        <ele>1148.5</ele>
        <time>2021-08-14T11:08:17Z</time>
      </trkpt>
      <trkpt lat="46.86687" lon="6.42641">
        <ele>1149.2</ele>
        <time>2021-08-14T11:08:24Z</time>
      </trkpt>
      <trkpt lat="46.86686" lon="6.42645">
        <ele>1149.5</ele>
        <time>2021-08-14T11:08:25Z</time>
      </trkpt>
      <trkpt lat="46.86685" lon="6.42647">
        <ele>1149.7</ele>
        <time>2021-08-14T11:08:26Z</time>
      </trkpt>
      <trkpt lat="46.86682" lon="6.4265">
        <ele>1150</ele>
        <time>2021-08-14T11:08:28Z</time>
      </trkpt>
      <trkpt lat="46.8668" lon="6.42651">
        <ele>1150.2</ele>
        <time>2021-08-14T11:08:29Z</time>
      </trkpt>
      <trkpt lat="46.86679" lon="6.42652">
        <ele>1150.4</ele>
        <time>2021-08-14T11:08:31Z</time>
      </trkpt>
      <trkpt lat="46.86678" lon="6.42655">
        <ele>1150.6</ele>
        <time>2021-08-14T11:08:32Z</time>
      </trkpt>
      <trkpt lat="46.86678" lon="6.42659">
        <ele>1150.8</ele>
        <time>2021-08-14T11:08:34Z</time>
      </trkpt>
      <trkpt lat="46.86678" lon="6.42661">
        <ele>1151</ele>
        <time>2021-08-14T11:08:35Z</time>
      </trkpt>
      <trkpt lat="46.86678" lon="6.42662">
        <ele>1151</ele>
        <time>2021-08-14T11:08:36Z</time>
      </trkpt>
      <trkpt lat="46.86679" lon="6.42662">
        <ele>1151.1</ele>
        <time>2021-08-14T11:08:37Z</time>
      </trkpt>
      <trkpt lat="46.86679" lon="6.42662">
        <ele>1151.1</ele>
        <time>2021-08-14T11:08:38Z</time>
      </trkpt>
      <trkpt lat="46.8668" lon="6.42662">
        <ele>1151.2</ele>
        <time>2021-08-14T11:08:39Z</time>
      </trkpt>
      <trkpt lat="46.8668" lon="6.42663">
        <ele>1151.3</ele>
        <time>2021-08-14T11:08:41Z</time>
      </trkpt>
      <trkpt lat="46.8668" lon="6.42666">
        <ele>1151.4</ele>
        <time>2021-08-14T11:08:42Z</time>
      </trkpt>
      <trkpt lat="46.86679" lon="6.42668">
        <ele>1151.6</ele>
        <time>2021-08-14T11:08:43Z</time>
      </trkpt>
      <trkpt lat="46.86679" lon="6.42668">
        <ele>1151.6</ele>
        <time>2021-08-14T11:08:44Z</time>
      </trkpt>
      <trkpt lat="46.86679" lon="6.42669">
        <ele>1151.7</ele>
        <time>2021-08-14T11:08:45Z</time>
      </trkpt>
      <trkpt lat="46.86679" lon="6.42671">
        <ele>1151.8</ele>
        <time>2021-08-14T11:08:47Z</time>
      </trkpt>
      <trkpt lat="46.86679" lon="6.42674">
        <ele>1152</ele>
        <time>2021-08-14T11:08:49Z</time>
      </trkpt>
      <trkpt lat="46.86678" lon="6.42675">
        <ele>1152.1</ele>
        <time>2021-08-14T11:08:50Z</time>
      </trkpt>
      <trkpt lat="46.86678" lon="6.42676">
        <ele>1152.2</ele>
        <time>2021-08-14T11:08:51Z</time>
      </trkpt>
      <trkpt lat="46.86677" lon="6.4268">
        <ele>1152.5</ele>
        <time>2021-08-14T11:08:53Z</time>
      </trkpt>
      <trkpt lat="46.86677" lon="6.42681">
        <ele>1152.6</ele>
        <time>2021-08-14T11:08:54Z</time>
      </trkpt>
      <trkpt lat="46.86676" lon="6.42683">
        <ele>1152.7</ele>
        <time>2021-08-14T11:08:55Z</time>
      </trkpt>
      <trkpt lat="46.86672" lon="6.42684">
        <ele>1153.2</ele>
        <time>2021-08-14T11:08:57Z</time>
      </trkpt>
      <trkpt lat="46.86669" lon="6.42687">
        <ele>1153.6</ele>
        <time>2021-08-14T11:08:59Z</time>
      </trkpt>
      <trkpt lat="46.86668" lon="6.42688">
        <ele>1153.7</ele>
        <time>2021-08-14T11:09:00Z</time>
      </trkpt>
      <trkpt lat="46.86668" lon="6.42689">
        <ele>1153.8</ele>
        <time>2021-08-14T11:09:02Z</time>
      </trkpt>
      <trkpt lat="46.86668" lon="6.42689">
        <ele>1153.8</ele>
        <time>2021-08-14T11:09:03Z</time>
      </trkpt>
      <trkpt lat="46.86668" lon="6.42689">
        <ele>1153.8</ele>
        <time>2021-08-14T11:09:04Z</time>
      </trkpt>
      <trkpt lat="46.86668" lon="6.42689">
        <ele>1153.8</ele>
        <time>2021-08-14T11:09:06Z</time>
      </trkpt>
      <trkpt lat="46.86668" lon="6.42689">
        <ele>1153.8</ele>
        <time>2021-08-14T11:09:07Z</time>
      </trkpt>
      <trkpt lat="46.86664" lon="6.4273">
        <ele>1156.8</ele>
        <time>2021-08-14T11:10:09Z</time>
      </trkpt>
      <trkpt lat="46.86663" lon="6.42734">
        <ele>1157.1</ele>
        <time>2021-08-14T11:10:10Z</time>
      </trkpt>
      <trkpt lat="46.86662" lon="6.4274">
        <ele>1157.6</ele>
        <time>2021-08-14T11:10:12Z</time>
      </trkpt>
      <trkpt lat="46.86662" lon="6.42742">
        <ele>1157.7</ele>
        <time>2021-08-14T11:10:13Z</time>
      </trkpt>
      <trkpt lat="46.86661" lon="6.42744">
        <ele>1157.9</ele>
        <time>2021-08-14T11:10:14Z</time>
      </trkpt>
      <trkpt lat="46.8666" lon="6.42747">
        <ele>1158</ele>
        <time>2021-08-14T11:10:15Z</time>
      </trkpt>
      <trkpt lat="46.8666" lon="6.42749">
        <ele>1158.2</ele>
        <time>2021-08-14T11:10:16Z</time>
      </trkpt>
      <trkpt lat="46.86659" lon="6.42751">
        <ele>1158.3</ele>
        <time>2021-08-14T11:10:17Z</time>
      </trkpt>
      <trkpt lat="46.86658" lon="6.42754">
        <ele>1158.6</ele>
        <time>2021-08-14T11:10:19Z</time>
      </trkpt>
      <trkpt lat="46.86657" lon="6.42758">
        <ele>1158.8</ele>
        <time>2021-08-14T11:10:20Z</time>
      </trkpt>
      <trkpt lat="46.86657" lon="6.4276">
        <ele>1159</ele>
        <time>2021-08-14T11:10:21Z</time>
      </trkpt>
      <trkpt lat="46.86656" lon="6.42763">
        <ele>1159.1</ele>
        <time>2021-08-14T11:10:22Z</time>
      </trkpt>
      <trkpt lat="46.86656" lon="6.42764">
        <ele>1159.2</ele>
        <time>2021-08-14T11:10:23Z</time>
      </trkpt>
      <trkpt lat="46.86656" lon="6.42765">
        <ele>1159.3</ele>
        <time>2021-08-14T11:10:24Z</time>
      </trkpt>
      <trkpt lat="46.86656" lon="6.42766">
        <ele>1159.4</ele>
        <time>2021-08-14T11:10:25Z</time>
      </trkpt>
      <trkpt lat="46.86654" lon="6.42773">
        <ele>1159.8</ele>
        <time>2021-08-14T11:10:27Z</time>
      </trkpt>
      <trkpt lat="46.86653" lon="6.42774">
        <ele>1159.9</ele>
        <time>2021-08-14T11:10:28Z</time>
      </trkpt>
      <trkpt lat="46.86652" lon="6.42775">
        <ele>1160</ele>
        <time>2021-08-14T11:10:29Z</time>
      </trkpt>
      <trkpt lat="46.86652" lon="6.42778">
        <ele>1160.2</ele>
        <time>2021-08-14T11:10:31Z</time>
      </trkpt>
      <trkpt lat="46.86653" lon="6.4278">
        <ele>1160.3</ele>
        <time>2021-08-14T11:10:32Z</time>
      </trkpt>
      <trkpt lat="46.86653" lon="6.42781">
        <ele>1160.4</ele>
        <time>2021-08-14T11:10:33Z</time>
      </trkpt>
      <trkpt lat="46.86652" lon="6.42783">
        <ele>1160.5</ele>
        <time>2021-08-14T11:10:35Z</time>
      </trkpt>
      <trkpt lat="46.86651" lon="6.42784">
        <ele>1160.6</ele>
        <time>2021-08-14T11:10:37Z</time>
      </trkpt>
      <trkpt lat="46.86651" lon="6.42786">
        <ele>1160.7</ele>
        <time>2021-08-14T11:10:38Z</time>
      </trkpt>
      <trkpt lat="46.8665" lon="6.42786">
        <ele>1160.8</ele>
        <time>2021-08-14T11:10:39Z</time>
      </trkpt>
      <trkpt lat="46.86649" lon="6.42787">
        <ele>1160.9</ele>
        <time>2021-08-14T11:10:40Z</time>
      </trkpt>
      <trkpt lat="46.86649" lon="6.42789">
        <ele>1161</ele>
        <time>2021-08-14T11:10:42Z</time>
      </trkpt>
      <trkpt lat="46.86648" lon="6.42789">
        <ele>1161</ele>
        <time>2021-08-14T11:10:43Z</time>
      </trkpt>
      <trkpt lat="46.86648" lon="6.4279">
        <ele>1161.1</ele>
        <time>2021-08-14T11:10:44Z</time>
      </trkpt>
      <trkpt lat="46.86647" lon="6.42791">
        <ele>1161.1</ele>
        <time>2021-08-14T11:10:45Z</time>
      </trkpt>
      <trkpt lat="46.86646" lon="6.42792">
        <ele>1161.2</ele>
        <time>2021-08-14T11:10:46Z</time>
      </trkpt>
      <trkpt lat="46.86646" lon="6.42793">
        <ele>1161.3</ele>
        <time>2021-08-14T11:10:47Z</time>
      </trkpt>
      <trkpt lat="46.86645" lon="6.42794">
        <ele>1161.4</ele>
        <time>2021-08-14T11:10:48Z</time>
      </trkpt>
      <trkpt lat="46.86643" lon="6.428">
        <ele>1161.8</ele>
        <time>2021-08-14T11:10:52Z</time>
      </trkpt>
      <trkpt lat="46.86642" lon="6.42804">
        <ele>1162</ele>
        <time>2021-08-14T11:10:53Z</time>
      </trkpt>
      <trkpt lat="46.86641" lon="6.42805">
        <ele>1162.1</ele>
        <time>2021-08-14T11:10:54Z</time>
      </trkpt>
      <trkpt lat="46.8664" lon="6.42807">
        <ele>1162.2</ele>
        <time>2021-08-14T11:10:55Z</time>
      </trkpt>
      <trkpt lat="46.86639" lon="6.42809">
        <ele>1162.4</ele>
        <time>2021-08-14T11:10:57Z</time>
      </trkpt>
      <trkpt lat="46.86638" lon="6.42811">
        <ele>1162.6</ele>
        <time>2021-08-14T11:10:58Z</time>
      </trkpt>
      <trkpt lat="46.86637" lon="6.42813">
        <ele>1162.7</ele>
        <time>2021-08-14T11:10:59Z</time>
      </trkpt>
      <trkpt lat="46.86637" lon="6.42814">
        <ele>1162.8</ele>
        <time>2021-08-14T11:11:01Z</time>
      </trkpt>
      <trkpt lat="46.86637" lon="6.42816">
        <ele>1162.9</ele>
        <time>2021-08-14T11:11:02Z</time>
      </trkpt>
      <trkpt lat="46.86636" lon="6.42817">
        <ele>1163</ele>
        <time>2021-08-14T11:11:03Z</time>
      </trkpt>
      <trkpt lat="46.86636" lon="6.4282">
        <ele>1163.1</ele>
        <time>2021-08-14T11:11:05Z</time>
      </trkpt>
      <trkpt lat="46.86636" lon="6.42824">
        <ele>1163.4</ele>
        <time>2021-08-14T11:11:07Z</time>
      </trkpt>
      <trkpt lat="46.86637" lon="6.42827">
        <ele>1163.6</ele>
        <time>2021-08-14T11:11:08Z</time>
      </trkpt>
      <trkpt lat="46.86638" lon="6.42831">
        <ele>1163.8</ele>
        <time>2021-08-14T11:11:10Z</time>
      </trkpt>
      <trkpt lat="46.86638" lon="6.4283">
        <ele>1163.9</ele>
        <time>2021-08-14T11:11:11Z</time>
      </trkpt>
      <trkpt lat="46.86638" lon="6.42833">
        <ele>1164.1</ele>
        <time>2021-08-14T11:11:13Z</time>
      </trkpt>
      <trkpt lat="46.86638" lon="6.42835">
        <ele>1164.3</ele>
        <time>2021-08-14T11:11:14Z</time>
      </trkpt>
      <trkpt lat="46.86634" lon="6.42838">
        <ele>1164.6</ele>
        <time>2021-08-14T11:11:16Z</time>
      </trkpt>
      <trkpt lat="46.86632" lon="6.42841">
        <ele>1164.9</ele>
        <time>2021-08-14T11:11:18Z</time>
      </trkpt>
      <trkpt lat="46.86631" lon="6.42842">
        <ele>1165</ele>
        <time>2021-08-14T11:11:19Z</time>
      </trkpt>
      <trkpt lat="46.86629" lon="6.42845">
        <ele>1165.3</ele>
        <time>2021-08-14T11:11:20Z</time>
      </trkpt>
      <trkpt lat="46.86628" lon="6.42847">
        <ele>1165.5</ele>
        <time>2021-08-14T11:11:22Z</time>
      </trkpt>
      <trkpt lat="46.86626" lon="6.42851">
        <ele>1165.8</ele>
        <time>2021-08-14T11:11:24Z</time>
      </trkpt>
      <trkpt lat="46.86625" lon="6.42853">
        <ele>1165.9</ele>
        <time>2021-08-14T11:11:25Z</time>
      </trkpt>
      <trkpt lat="46.86625" lon="6.42857">
        <ele>1166.2</ele>
        <time>2021-08-14T11:11:27Z</time>
      </trkpt>
      <trkpt lat="46.86624" lon="6.42862">
        <ele>1166.6</ele>
        <time>2021-08-14T11:11:28Z</time>
      </trkpt>
      <trkpt lat="46.86624" lon="6.42864">
        <ele>1166.7</ele>
        <time>2021-08-14T11:11:29Z</time>
      </trkpt>
      <trkpt lat="46.86624" lon="6.42866">
        <ele>1166.8</ele>
        <time>2021-08-14T11:11:30Z</time>
      </trkpt>
      <trkpt lat="46.86624" lon="6.42868">
        <ele>1167</ele>
        <time>2021-08-14T11:11:31Z</time>
      </trkpt>
      <trkpt lat="46.86624" lon="6.42871">
        <ele>1167.1</ele>
        <time>2021-08-14T11:11:32Z</time>
      </trkpt>
      <trkpt lat="46.86623" lon="6.42876">
        <ele>1167.4</ele>
        <time>2021-08-14T11:11:34Z</time>
      </trkpt>
      <trkpt lat="46.86622" lon="6.4288">
        <ele>1167.7</ele>
        <time>2021-08-14T11:11:36Z</time>
      </trkpt>
      <trkpt lat="46.86621" lon="6.42883">
        <ele>1167.8</ele>
        <time>2021-08-14T11:11:37Z</time>
      </trkpt>
      <trkpt lat="46.86621" lon="6.42884">
        <ele>1168</ele>
        <time>2021-08-14T11:11:39Z</time>
      </trkpt>
      <trkpt lat="46.8662" lon="6.42886">
        <ele>1168.1</ele>
        <time>2021-08-14T11:11:40Z</time>
      </trkpt>
      <trkpt lat="46.86619" lon="6.42887">
        <ele>1168.2</ele>
        <time>2021-08-14T11:11:41Z</time>
      </trkpt>
      <trkpt lat="46.86618" lon="6.4289">
        <ele>1168.4</ele>
        <time>2021-08-14T11:11:43Z</time>
      </trkpt>
      <trkpt lat="46.86616" lon="6.42892">
        <ele>1168.5</ele>
        <time>2021-08-14T11:11:44Z</time>
      </trkpt>
      <trkpt lat="46.86616" lon="6.42893">
        <ele>1168.6</ele>
        <time>2021-08-14T11:11:45Z</time>
      </trkpt>
      <trkpt lat="46.86616" lon="6.42894">
        <ele>1168.7</ele>
        <time>2021-08-14T11:11:47Z</time>
      </trkpt>
      <trkpt lat="46.86616" lon="6.42893">
        <ele>1168.7</ele>
        <time>2021-08-14T11:11:48Z</time>
      </trkpt>
      <trkpt lat="46.86616" lon="6.42893">
        <ele>1168.7</ele>
        <time>2021-08-14T11:11:49Z</time>
      </trkpt>
      <trkpt lat="46.86616" lon="6.42894">
        <ele>1168.8</ele>
        <time>2021-08-14T11:11:50Z</time>
      </trkpt>
      <trkpt lat="46.86616" lon="6.42895">
        <ele>1168.8</ele>
        <time>2021-08-14T11:11:52Z</time>
      </trkpt>
      <trkpt lat="46.86616" lon="6.42895">
        <ele>1168.8</ele>
        <time>2021-08-14T11:11:53Z</time>
      </trkpt>
      <trkpt lat="46.86616" lon="6.42896">
        <ele>1168.9</ele>
        <time>2021-08-14T11:11:54Z</time>
      </trkpt>
      <trkpt lat="46.86615" lon="6.42896">
        <ele>1168.9</ele>
        <time>2021-08-14T11:11:55Z</time>
      </trkpt>
      <trkpt lat="46.86597" lon="6.4291">
        <ele>1170.6</ele>
        <time>2021-08-14T11:12:11Z</time>
      </trkpt>
      <trkpt lat="46.86593" lon="6.42911">
        <ele>1170.9</ele>
        <time>2021-08-14T11:12:12Z</time>
      </trkpt>
      <trkpt lat="46.8659" lon="6.42913">
        <ele>1171.2</ele>
        <time>2021-08-14T11:12:14Z</time>
      </trkpt>
      <trkpt lat="46.8659" lon="6.42913">
        <ele>1171.2</ele>
        <time>2021-08-14T11:12:15Z</time>
      </trkpt>
      <trkpt lat="46.86586" lon="6.42915">
        <ele>1171.5</ele>
        <time>2021-08-14T11:12:16Z</time>
      </trkpt>
      <trkpt lat="46.86585" lon="6.42915">
        <ele>1171.6</ele>
        <time>2021-08-14T11:12:17Z</time>
      </trkpt>
      <trkpt lat="46.86585" lon="6.42916">
        <ele>1171.7</ele>
        <time>2021-08-14T11:12:19Z</time>
      </trkpt>
      <trkpt lat="46.86585" lon="6.42917">
        <ele>1171.7</ele>
        <time>2021-08-14T11:12:20Z</time>
      </trkpt>
      <trkpt lat="46.86585" lon="6.42918">
        <ele>1171.8</ele>
        <time>2021-08-14T11:12:22Z</time>
      </trkpt>
      <trkpt lat="46.86585" lon="6.42918">
        <ele>1171.8</ele>
        <time>2021-08-14T11:12:23Z</time>
      </trkpt>
      <trkpt lat="46.86585" lon="6.42918">
        <ele>1171.8</ele>
        <time>2021-08-14T11:12:24Z</time>
      </trkpt>
      <trkpt lat="46.86575" lon="6.42922">
        <ele>1172.9</ele>
        <time>2021-08-14T11:14:45Z</time>
      </trkpt>
      <trkpt lat="46.86575" lon="6.42914">
        <ele>1173.3</ele>
        <time>2021-08-14T11:14:47Z</time>
      </trkpt>
      <trkpt lat="46.86575" lon="6.42913">
        <ele>1173.3</ele>
        <time>2021-08-14T11:14:48Z</time>
      </trkpt>
      <trkpt lat="46.86575" lon="6.42914">
        <ele>1173.4</ele>
        <time>2021-08-14T11:14:49Z</time>
      </trkpt>
      <trkpt lat="46.86575" lon="6.42914">
        <ele>1173.4</ele>
        <time>2021-08-14T11:14:50Z</time>
      </trkpt>
      <trkpt lat="46.86574" lon="6.42916">
        <ele>1173.5</ele>
        <time>2021-08-14T11:14:52Z</time>
      </trkpt>
      <trkpt lat="46.86574" lon="6.42917">
        <ele>1173.6</ele>
        <time>2021-08-14T11:14:53Z</time>
      </trkpt>
      <trkpt lat="46.86573" lon="6.42918">
        <ele>1173.7</ele>
        <time>2021-08-14T11:14:54Z</time>
      </trkpt>
      <trkpt lat="46.86572" lon="6.42919">
        <ele>1173.7</ele>
        <time>2021-08-14T11:14:55Z</time>
      </trkpt>
      <trkpt lat="46.86571" lon="6.4292">
        <ele>1173.9</ele>
        <time>2021-08-14T11:14:57Z</time>
      </trkpt>
      <trkpt lat="46.86524" lon="6.42972">
        <ele>1179.4</ele>
        <time>2021-08-14T11:15:17Z</time>
      </trkpt>
      <trkpt lat="46.8652" lon="6.42976">
        <ele>1179.7</ele>
        <time>2021-08-14T11:15:18Z</time>
      </trkpt>
      <trkpt lat="46.86517" lon="6.42979">
        <ele>1180.2</ele>
        <time>2021-08-14T11:15:20Z</time>
      </trkpt>
      <trkpt lat="46.86514" lon="6.42984">
        <ele>1180.5</ele>
        <time>2021-08-14T11:15:22Z</time>
      </trkpt>
      <trkpt lat="46.86513" lon="6.42984">
        <ele>1180.7</ele>
        <time>2021-08-14T11:15:23Z</time>
      </trkpt>
      <trkpt lat="46.86512" lon="6.42985">
        <ele>1180.8</ele>
        <time>2021-08-14T11:15:25Z</time>
      </trkpt>
      <trkpt lat="46.86511" lon="6.42986">
        <ele>1180.9</ele>
        <time>2021-08-14T11:15:26Z</time>
      </trkpt>
      <trkpt lat="46.8651" lon="6.42988">
        <ele>1181</ele>
        <time>2021-08-14T11:15:27Z</time>
      </trkpt>
      <trkpt lat="46.86509" lon="6.42989">
        <ele>1181.1</ele>
        <time>2021-08-14T11:15:28Z</time>
      </trkpt>
      <trkpt lat="46.86509" lon="6.42991">
        <ele>1181.2</ele>
        <time>2021-08-14T11:15:30Z</time>
      </trkpt>
      <trkpt lat="46.86509" lon="6.42991">
        <ele>1181.3</ele>
        <time>2021-08-14T11:15:31Z</time>
      </trkpt>
      <trkpt lat="46.86508" lon="6.42992">
        <ele>1181.3</ele>
        <time>2021-08-14T11:15:32Z</time>
      </trkpt>
      <trkpt lat="46.86508" lon="6.42992">
        <ele>1181.3</ele>
        <time>2021-08-14T11:15:33Z</time>
      </trkpt>
      <trkpt lat="46.86508" lon="6.42992">
        <ele>1181.3</ele>
        <time>2021-08-14T11:15:34Z</time>
      </trkpt>
      <trkpt lat="46.86508" lon="6.42992">
        <ele>1181.3</ele>
        <time>2021-08-14T11:15:36Z</time>
      </trkpt>
      <trkpt lat="46.86508" lon="6.42992">
        <ele>1181.3</ele>
        <time>2021-08-14T11:15:37Z</time>
      </trkpt>
      <trkpt lat="46.86507" lon="6.42992">
        <ele>1181.4</ele>
        <time>2021-08-14T11:15:38Z</time>
      </trkpt>
      <trkpt lat="46.86507" lon="6.42992">
        <ele>1181.5</ele>
        <time>2021-08-14T11:15:39Z</time>
      </trkpt>
      <trkpt lat="46.86506" lon="6.42993">
        <ele>1181.5</ele>
        <time>2021-08-14T11:15:41Z</time>
      </trkpt>
      <trkpt lat="46.86505" lon="6.42993">
        <ele>1181.6</ele>
        <time>2021-08-14T11:15:42Z</time>
      </trkpt>
      <trkpt lat="46.86459" lon="6.42986">
        <ele>1183.8</ele>
        <time>2021-08-14T11:16:19Z</time>
      </trkpt>
      <trkpt lat="46.86454" lon="6.42986">
        <ele>1183.8</ele>
        <time>2021-08-14T11:16:21Z</time>
      </trkpt>
      <trkpt lat="46.86449" lon="6.42986">
        <ele>1183.8</ele>
        <time>2021-08-14T11:16:23Z</time>
      </trkpt>
      <trkpt lat="46.86448" lon="6.42987">
        <ele>1183.8</ele>
        <time>2021-08-14T11:16:24Z</time>
      </trkpt>
      <trkpt lat="46.86448" lon="6.42988">
        <ele>1183.8</ele>
        <time>2021-08-14T11:16:25Z</time>
      </trkpt>
      <trkpt lat="46.86447" lon="6.42988">
        <ele>1183.8</ele>
        <time>2021-08-14T11:16:27Z</time>
      </trkpt>
      <trkpt lat="46.86447" lon="6.42988">
        <ele>1183.8</ele>
        <time>2021-08-14T11:16:28Z</time>
      </trkpt>
      <trkpt lat="46.86441" lon="6.4299">
        <ele>1183.7</ele>
        <time>2021-08-14T11:16:29Z</time>
      </trkpt>
      <trkpt lat="46.86435" lon="6.42993">
        <ele>1183.6</ele>
        <time>2021-08-14T11:16:30Z</time>
      </trkpt>
      <trkpt lat="46.86429" lon="6.42995">
        <ele>1183.5</ele>
        <time>2021-08-14T11:16:31Z</time>
      </trkpt>
      <trkpt lat="46.86424" lon="6.42997">
        <ele>1183.4</ele>
        <time>2021-08-14T11:17:28Z</time>
      </trkpt>
      <trkpt lat="46.86418" lon="6.42999">
        <ele>1183.3</ele>
        <time>2021-08-14T11:17:29Z</time>
      </trkpt>
      <trkpt lat="46.86414" lon="6.42996">
        <ele>1183.2</ele>
        <time>2021-08-14T11:17:30Z</time>
      </trkpt>
      <trkpt lat="46.86407" lon="6.42992">
        <ele>1183</ele>
        <time>2021-08-14T11:17:32Z</time>
      </trkpt>
      <trkpt lat="46.86402" lon="6.42989">
        <ele>1182.9</ele>
        <time>2021-08-14T11:17:33Z</time>
      </trkpt>
      <trkpt lat="46.86395" lon="6.42984">
        <ele>1182.7</ele>
        <time>2021-08-14T11:17:35Z</time>
      </trkpt>
      <trkpt lat="46.8639" lon="6.42982">
        <ele>1182.6</ele>
        <time>2021-08-14T11:17:36Z</time>
      </trkpt>
      <trkpt lat="46.86384" lon="6.42979">
        <ele>1182.6</ele>
        <time>2021-08-14T11:17:37Z</time>
      </trkpt>
      <trkpt lat="46.86376" lon="6.42978">
        <ele>1182.5</ele>
        <time>2021-08-14T11:17:39Z</time>
      </trkpt>
      <trkpt lat="46.86371" lon="6.42976">
        <ele>1182.5</ele>
        <time>2021-08-14T11:17:40Z</time>
      </trkpt>
      <trkpt lat="46.86365" lon="6.42974">
        <ele>1182.5</ele>
        <time>2021-08-14T11:17:42Z</time>
      </trkpt>
      <trkpt lat="46.8636" lon="6.42973">
        <ele>1182.5</ele>
        <time>2021-08-14T11:17:43Z</time>
      </trkpt>
      <trkpt lat="46.86356" lon="6.42972">
        <ele>1182.6</ele>
        <time>2021-08-14T11:17:44Z</time>
      </trkpt>
      <trkpt lat="46.86352" lon="6.42971">
        <ele>1182.7</ele>
        <time>2021-08-14T11:17:46Z</time>
      </trkpt>
      <trkpt lat="46.86349" lon="6.4297">
        <ele>1182.8</ele>
        <time>2021-08-14T11:17:47Z</time>
      </trkpt>
      <trkpt lat="46.86348" lon="6.42969">
        <ele>1182.8</ele>
        <time>2021-08-14T11:17:48Z</time>
      </trkpt>
      <trkpt lat="46.86346" lon="6.42967">
        <ele>1182.9</ele>
        <time>2021-08-14T11:17:50Z</time>
      </trkpt>
      <trkpt lat="46.86347" lon="6.42965">
        <ele>1182.9</ele>
        <time>2021-08-14T11:17:51Z</time>
      </trkpt>
      <trkpt lat="46.86348" lon="6.42965">
        <ele>1183</ele>
        <time>2021-08-14T11:17:52Z</time>
      </trkpt>
      <trkpt lat="46.86348" lon="6.42964">
        <ele>1183</ele>
        <time>2021-08-14T11:17:53Z</time>
      </trkpt>
      <trkpt lat="46.86347" lon="6.42963">
        <ele>1183</ele>
        <time>2021-08-14T11:17:55Z</time>
      </trkpt>
      <trkpt lat="46.86344" lon="6.42962">
        <ele>1183.1</ele>
        <time>2021-08-14T11:17:56Z</time>
      </trkpt>
      <trkpt lat="46.8634" lon="6.42961">
        <ele>1183.3</ele>
        <time>2021-08-14T11:17:57Z</time>
      </trkpt>
      <trkpt lat="46.86339" lon="6.42961">
        <ele>1183.3</ele>
        <time>2021-08-14T11:17:58Z</time>
      </trkpt>
      <trkpt lat="46.86335" lon="6.42957">
        <ele>1183.5</ele>
        <time>2021-08-14T11:18:00Z</time>
      </trkpt>
      <trkpt lat="46.86333" lon="6.42955">
        <ele>1183.7</ele>
        <time>2021-08-14T11:18:01Z</time>
      </trkpt>
      <trkpt lat="46.8633" lon="6.42953">
        <ele>1183.8</ele>
        <time>2021-08-14T11:18:02Z</time>
      </trkpt>
      <trkpt lat="46.86327" lon="6.42949">
        <ele>1184</ele>
        <time>2021-08-14T11:18:03Z</time>
      </trkpt>
      <trkpt lat="46.86325" lon="6.42946">
        <ele>1184.2</ele>
        <time>2021-08-14T11:18:04Z</time>
      </trkpt>
      <trkpt lat="46.86323" lon="6.42944">
        <ele>1184.3</ele>
        <time>2021-08-14T11:18:05Z</time>
      </trkpt>
      <trkpt lat="46.86319" lon="6.42939">
        <ele>1184.6</ele>
        <time>2021-08-14T11:18:07Z</time>
      </trkpt>
      <trkpt lat="46.86316" lon="6.42936">
        <ele>1184.8</ele>
        <time>2021-08-14T11:18:08Z</time>
      </trkpt>
      <trkpt lat="46.86313" lon="6.42933">
        <ele>1184.9</ele>
        <time>2021-08-14T11:18:09Z</time>
      </trkpt>
      <trkpt lat="46.86313" lon="6.42932">
        <ele>1185</ele>
        <time>2021-08-14T11:18:10Z</time>
      </trkpt>
      <trkpt lat="46.8631" lon="6.42927">
        <ele>1185.2</ele>
        <time>2021-08-14T11:18:12Z</time>
      </trkpt>
      <trkpt lat="46.8631" lon="6.42922">
        <ele>1185.3</ele>
        <time>2021-08-14T11:18:13Z</time>
      </trkpt>
      <trkpt lat="46.8631" lon="6.42921">
        <ele>1185.4</ele>
        <time>2021-08-14T11:18:14Z</time>
      </trkpt>
      <trkpt lat="46.86311" lon="6.42917">
        <ele>1185.5</ele>
        <time>2021-08-14T11:18:16Z</time>
      </trkpt>
      <trkpt lat="46.86313" lon="6.42917">
        <ele>1185.6</ele>
        <time>2021-08-14T11:18:17Z</time>
      </trkpt>
      <trkpt lat="46.86314" lon="6.42916">
        <ele>1185.6</ele>
        <time>2021-08-14T11:18:18Z</time>
      </trkpt>
      <trkpt lat="46.86313" lon="6.42914">
        <ele>1185.7</ele>
        <time>2021-08-14T11:18:20Z</time>
      </trkpt>
      <trkpt lat="46.86313" lon="6.42913">
        <ele>1185.7</ele>
        <time>2021-08-14T11:18:21Z</time>
      </trkpt>
      <trkpt lat="46.86312" lon="6.42912">
        <ele>1185.8</ele>
        <time>2021-08-14T11:18:22Z</time>
      </trkpt>
      <trkpt lat="46.86311" lon="6.42911">
        <ele>1185.8</ele>
        <time>2021-08-14T11:18:24Z</time>
      </trkpt>
      <trkpt lat="46.86311" lon="6.4291">
        <ele>1185.8</ele>
        <time>2021-08-14T11:18:25Z</time>
      </trkpt>
      <trkpt lat="46.8631" lon="6.42909">
        <ele>1185.9</ele>
        <time>2021-08-14T11:18:27Z</time>
      </trkpt>
      <trkpt lat="46.86309" lon="6.42908">
        <ele>1185.9</ele>
        <time>2021-08-14T11:18:28Z</time>
      </trkpt>
      <trkpt lat="46.86307" lon="6.42905">
        <ele>1185.9</ele>
        <time>2021-08-14T11:18:29Z</time>
      </trkpt>
      <trkpt lat="46.86306" lon="6.42904">
        <ele>1185.9</ele>
        <time>2021-08-14T11:18:30Z</time>
      </trkpt>
      <trkpt lat="46.86304" lon="6.42903">
        <ele>1185.9</ele>
        <time>2021-08-14T11:18:32Z</time>
      </trkpt>
      <trkpt lat="46.86303" lon="6.42902">
        <ele>1185.9</ele>
        <time>2021-08-14T11:18:33Z</time>
      </trkpt>
      <trkpt lat="46.86302" lon="6.42901">
        <ele>1185.9</ele>
        <time>2021-08-14T11:18:34Z</time>
      </trkpt>
      <trkpt lat="46.86301" lon="6.42899">
        <ele>1185.9</ele>
        <time>2021-08-14T11:18:35Z</time>
      </trkpt>
      <trkpt lat="46.86301" lon="6.42899">
        <ele>1185.9</ele>
        <time>2021-08-14T11:18:37Z</time>
      </trkpt>
      <trkpt lat="46.86302" lon="6.42899">
        <ele>1185.9</ele>
        <time>2021-08-14T11:18:38Z</time>
      </trkpt>
      <trkpt lat="46.86302" lon="6.429">
        <ele>1185.9</ele>
        <time>2021-08-14T11:18:40Z</time>
      </trkpt>
      <trkpt lat="46.86303" lon="6.42901">
        <ele>1185.9</ele>
        <time>2021-08-14T11:18:41Z</time>
      </trkpt>
      <trkpt lat="46.86302" lon="6.42901">
        <ele>1185.9</ele>
        <time>2021-08-14T11:18:42Z</time>
      </trkpt>
      <trkpt lat="46.86301" lon="6.42901">
        <ele>1185.9</ele>
        <time>2021-08-14T11:18:44Z</time>
      </trkpt>
      <trkpt lat="46.86299" lon="6.429">
        <ele>1185.8</ele>
        <time>2021-08-14T11:18:45Z</time>
      </trkpt>
      <trkpt lat="46.86293" lon="6.42898">
        <ele>1185.8</ele>
        <time>2021-08-14T11:18:48Z</time>
      </trkpt>
      <trkpt lat="46.8629" lon="6.42896">
        <ele>1185.8</ele>
        <time>2021-08-14T11:18:49Z</time>
      </trkpt>
      <trkpt lat="46.86285" lon="6.42892">
        <ele>1185.7</ele>
        <time>2021-08-14T11:18:51Z</time>
      </trkpt>
      <trkpt lat="46.86281" lon="6.42891">
        <ele>1185.6</ele>
        <time>2021-08-14T11:18:52Z</time>
      </trkpt>
      <trkpt lat="46.86278" lon="6.4289">
        <ele>1185.5</ele>
        <time>2021-08-14T11:18:53Z</time>
      </trkpt>
      <trkpt lat="46.86276" lon="6.42888">
        <ele>1185.4</ele>
        <time>2021-08-14T11:18:54Z</time>
      </trkpt>
      <trkpt lat="46.86272" lon="6.42885">
        <ele>1185.3</ele>
        <time>2021-08-14T11:18:56Z</time>
      </trkpt>
      <trkpt lat="46.86269" lon="6.42882">
        <ele>1185.1</ele>
        <time>2021-08-14T11:18:57Z</time>
      </trkpt>
      <trkpt lat="46.86265" lon="6.42881">
        <ele>1185</ele>
        <time>2021-08-14T11:18:58Z</time>
      </trkpt>
      <trkpt lat="46.86264" lon="6.4288">
        <ele>1184.9</ele>
        <time>2021-08-14T11:18:59Z</time>
      </trkpt>
      <trkpt lat="46.86263" lon="6.42881">
        <ele>1184.9</ele>
        <time>2021-08-14T11:19:01Z</time>
      </trkpt>
      <trkpt lat="46.86261" lon="6.4288">
        <ele>1184.8</ele>
        <time>2021-08-14T11:19:02Z</time>
      </trkpt>
      <trkpt lat="46.86259" lon="6.42878">
        <ele>1184.7</ele>
        <time>2021-08-14T11:19:03Z</time>
      </trkpt>
      <trkpt lat="46.86258" lon="6.42877">
        <ele>1184.6</ele>
        <time>2021-08-14T11:19:04Z</time>
      </trkpt>
      <trkpt lat="46.86256" lon="6.42875">
        <ele>1184.5</ele>
        <time>2021-08-14T11:19:05Z</time>
      </trkpt>
      <trkpt lat="46.8625" lon="6.42874">
        <ele>1184.3</ele>
        <time>2021-08-14T11:19:07Z</time>
      </trkpt>
      <trkpt lat="46.86246" lon="6.42876">
        <ele>1184.1</ele>
        <time>2021-08-14T11:19:09Z</time>
      </trkpt>
      <trkpt lat="46.86241" lon="6.42876">
        <ele>1183.9</ele>
        <time>2021-08-14T11:19:10Z</time>
      </trkpt>
      <trkpt lat="46.86238" lon="6.42876">
        <ele>1183.8</ele>
        <time>2021-08-14T11:19:11Z</time>
      </trkpt>
      <trkpt lat="46.86235" lon="6.42874">
        <ele>1183.6</ele>
        <time>2021-08-14T11:19:13Z</time>
      </trkpt>
      <trkpt lat="46.86232" lon="6.42872">
        <ele>1183.5</ele>
        <time>2021-08-14T11:19:14Z</time>
      </trkpt>
      <trkpt lat="46.8623" lon="6.4287">
        <ele>1183.5</ele>
        <time>2021-08-14T11:19:15Z</time>
      </trkpt>
      <trkpt lat="46.86228" lon="6.4287">
        <ele>1183.4</ele>
        <time>2021-08-14T11:19:17Z</time>
      </trkpt>
      <trkpt lat="46.86224" lon="6.4287">
        <ele>1183.3</ele>
        <time>2021-08-14T11:19:18Z</time>
      </trkpt>
      <trkpt lat="46.86222" lon="6.4287">
        <ele>1183.2</ele>
        <time>2021-08-14T11:19:19Z</time>
      </trkpt>
      <trkpt lat="46.86219" lon="6.42874">
        <ele>1183.2</ele>
        <time>2021-08-14T11:19:20Z</time>
      </trkpt>
      <trkpt lat="46.86218" lon="6.42877">
        <ele>1183.1</ele>
        <time>2021-08-14T11:19:21Z</time>
      </trkpt>
      <trkpt lat="46.86217" lon="6.42881">
        <ele>1183</ele>
        <time>2021-08-14T11:19:23Z</time>
      </trkpt>
      <trkpt lat="46.86216" lon="6.42882">
        <ele>1183</ele>
        <time>2021-08-14T11:19:24Z</time>
      </trkpt>
      <trkpt lat="46.86211" lon="6.42888">
        <ele>1182.9</ele>
        <time>2021-08-14T11:19:25Z</time>
      </trkpt>
      <trkpt lat="46.86206" lon="6.42893">
        <ele>1182.9</ele>
        <time>2021-08-14T11:19:26Z</time>
      </trkpt>
      <trkpt lat="46.86202" lon="6.42896">
        <ele>1182.8</ele>
        <time>2021-08-14T11:19:27Z</time>
      </trkpt>
      <trkpt lat="46.86199" lon="6.429">
        <ele>1182.8</ele>
        <time>2021-08-14T11:19:28Z</time>
      </trkpt>
      <trkpt lat="46.86194" lon="6.42906">
        <ele>1182.7</ele>
        <time>2021-08-14T11:19:30Z</time>
      </trkpt>
      <trkpt lat="46.86189" lon="6.4291">
        <ele>1182.7</ele>
        <time>2021-08-14T11:19:32Z</time>
      </trkpt>
      <trkpt lat="46.86185" lon="6.42913">
        <ele>1182.7</ele>
        <time>2021-08-14T11:19:33Z</time>
      </trkpt>
      <trkpt lat="46.86179" lon="6.42916">
        <ele>1182.8</ele>
        <time>2021-08-14T11:19:34Z</time>
      </trkpt>
      <trkpt lat="46.86175" lon="6.42918">
        <ele>1182.9</ele>
        <time>2021-08-14T11:19:36Z</time>
      </trkpt>
      <trkpt lat="46.86174" lon="6.42917">
        <ele>1182.9</ele>
        <time>2021-08-14T11:19:37Z</time>
      </trkpt>
      <trkpt lat="46.86169" lon="6.42918">
        <ele>1183</ele>
        <time>2021-08-14T11:19:39Z</time>
      </trkpt>
      <trkpt lat="46.86165" lon="6.42919">
        <ele>1183.1</ele>
        <time>2021-08-14T11:19:40Z</time>
      </trkpt>
      <trkpt lat="46.86163" lon="6.4292">
        <ele>1183.2</ele>
        <time>2021-08-14T11:19:41Z</time>
      </trkpt>
      <trkpt lat="46.86159" lon="6.42922">
        <ele>1183.3</ele>
        <time>2021-08-14T11:19:43Z</time>
      </trkpt>
      <trkpt lat="46.86152" lon="6.42925">
        <ele>1183.8</ele>
        <time>2021-08-14T11:19:44Z</time>
      </trkpt>
      <trkpt lat="46.86144" lon="6.42927">
        <ele>1184.1</ele>
        <time>2021-08-14T11:19:46Z</time>
      </trkpt>
      <trkpt lat="46.86138" lon="6.42929">
        <ele>1184.3</ele>
        <time>2021-08-14T11:19:47Z</time>
      </trkpt>
      <trkpt lat="46.86133" lon="6.4293">
        <ele>1184.3</ele>
        <time>2021-08-14T11:19:48Z</time>
      </trkpt>
      <trkpt lat="46.86127" lon="6.42929">
        <ele>1184.4</ele>
        <time>2021-08-14T11:19:49Z</time>
      </trkpt>
      <trkpt lat="46.86123" lon="6.4293">
        <ele>1184.3</ele>
        <time>2021-08-14T11:19:50Z</time>
      </trkpt>
      <trkpt lat="46.86119" lon="6.42929">
        <ele>1184.3</ele>
        <time>2021-08-14T11:19:52Z</time>
      </trkpt>
      <trkpt lat="46.86115" lon="6.4293">
        <ele>1184.2</ele>
        <time>2021-08-14T11:19:53Z</time>
      </trkpt>
      <trkpt lat="46.86114" lon="6.4293">
        <ele>1184.2</ele>
        <time>2021-08-14T11:19:54Z</time>
      </trkpt>
      <trkpt lat="46.86111" lon="6.42929">
        <ele>1184.1</ele>
        <time>2021-08-14T11:19:55Z</time>
      </trkpt>
      <trkpt lat="46.8611" lon="6.42929">
        <ele>1184.1</ele>
        <time>2021-08-14T11:19:56Z</time>
      </trkpt>
      <trkpt lat="46.86108" lon="6.4293">
        <ele>1184.1</ele>
        <time>2021-08-14T11:19:57Z</time>
      </trkpt>
      <trkpt lat="46.86104" lon="6.42934">
        <ele>1184</ele>
        <time>2021-08-14T11:19:59Z</time>
      </trkpt>
      <trkpt lat="46.86101" lon="6.42938">
        <ele>1183.9</ele>
        <time>2021-08-14T11:20:00Z</time>
      </trkpt>
      <trkpt lat="46.86098" lon="6.42942">
        <ele>1183.8</ele>
        <time>2021-08-14T11:20:01Z</time>
      </trkpt>
      <trkpt lat="46.86096" lon="6.42947">
        <ele>1183.8</ele>
        <time>2021-08-14T11:20:03Z</time>
      </trkpt>
      <trkpt lat="46.86096" lon="6.42952">
        <ele>1184.1</ele>
        <time>2021-08-14T11:20:04Z</time>
      </trkpt>
      <trkpt lat="46.86096" lon="6.42953">
        <ele>1184.6</ele>
        <time>2021-08-14T11:20:05Z</time>
      </trkpt>
      <trkpt lat="46.86089" lon="6.42961">
        <ele>1185.3</ele>
        <time>2021-08-14T11:20:06Z</time>
      </trkpt>
      <trkpt lat="46.86083" lon="6.42966">
        <ele>1186</ele>
        <time>2021-08-14T11:20:08Z</time>
      </trkpt>
      <trkpt lat="46.86073" lon="6.42967">
        <ele>1186.8</ele>
        <time>2021-08-14T11:20:09Z</time>
      </trkpt>
      <trkpt lat="46.86066" lon="6.4297">
        <ele>1187.6</ele>
        <time>2021-08-14T11:20:11Z</time>
      </trkpt>
      <trkpt lat="46.86063" lon="6.42966">
        <ele>1188.7</ele>
        <time>2021-08-14T11:20:12Z</time>
      </trkpt>
      <trkpt lat="46.8606" lon="6.42957">
        <ele>1189.7</ele>
        <time>2021-08-14T11:20:14Z</time>
      </trkpt>
      <trkpt lat="46.86061" lon="6.42953">
        <ele>1190.4</ele>
        <time>2021-08-14T11:20:16Z</time>
      </trkpt>
      <trkpt lat="46.86063" lon="6.4295">
        <ele>1190.9</ele>
        <time>2021-08-14T11:20:18Z</time>
      </trkpt>
      <trkpt lat="46.86065" lon="6.42949">
        <ele>1191.3</ele>
        <time>2021-08-14T11:20:19Z</time>
      </trkpt>
      <trkpt lat="46.86066" lon="6.42948">
        <ele>1191.6</ele>
        <time>2021-08-14T11:20:20Z</time>
      </trkpt>
      <trkpt lat="46.86069" lon="6.42946">
        <ele>1192.1</ele>
        <time>2021-08-14T11:20:22Z</time>
      </trkpt>
      <trkpt lat="46.86001" lon="6.42829">
        <ele>1201.9</ele>
        <time>2021-08-14T11:24:18Z</time>
      </trkpt>
      <trkpt lat="46.85998" lon="6.42824">
        <ele>1201.8</ele>
        <time>2021-08-14T11:24:19Z</time>
      </trkpt>
      <trkpt lat="46.85992" lon="6.42816">
        <ele>1201.5</ele>
        <time>2021-08-14T11:24:21Z</time>
      </trkpt>
      <trkpt lat="46.85985" lon="6.42809">
        <ele>1201.2</ele>
        <time>2021-08-14T11:24:22Z</time>
      </trkpt>
      <trkpt lat="46.85979" lon="6.42802">
        <ele>1201.1</ele>
        <time>2021-08-14T11:24:23Z</time>
      </trkpt>
      <trkpt lat="46.85973" lon="6.42792">
        <ele>1201</ele>
        <time>2021-08-14T11:24:25Z</time>
      </trkpt>
      <trkpt lat="46.85969" lon="6.42786">
        <ele>1201</ele>
        <time>2021-08-14T11:24:26Z</time>
      </trkpt>
      <trkpt lat="46.85966" lon="6.42783">
        <ele>1200.9</ele>
        <time>2021-08-14T11:24:27Z</time>
      </trkpt>
      <trkpt lat="46.85963" lon="6.42785">
        <ele>1200.8</ele>
        <time>2021-08-14T11:24:29Z</time>
      </trkpt>
      <trkpt lat="46.85963" lon="6.42787">
        <ele>1200.8</ele>
        <time>2021-08-14T11:24:30Z</time>
      </trkpt>
      <trkpt lat="46.85961" lon="6.42789">
        <ele>1200.7</ele>
        <time>2021-08-14T11:24:31Z</time>
      </trkpt>
      <trkpt lat="46.85959" lon="6.42792">
        <ele>1200.6</ele>
        <time>2021-08-14T11:24:33Z</time>
      </trkpt>
      <trkpt lat="46.85953" lon="6.42792">
        <ele>1200.4</ele>
        <time>2021-08-14T11:24:34Z</time>
      </trkpt>
      <trkpt lat="46.85948" lon="6.42791">
        <ele>1200.2</ele>
        <time>2021-08-14T11:24:36Z</time>
      </trkpt>
      <trkpt lat="46.85943" lon="6.4279">
        <ele>1199.9</ele>
        <time>2021-08-14T11:24:38Z</time>
      </trkpt>
      <trkpt lat="46.85937" lon="6.4279">
        <ele>1199.6</ele>
        <time>2021-08-14T11:24:59Z</time>
      </trkpt>
      <trkpt lat="46.85932" lon="6.42789">
        <ele>1199.2</ele>
        <time>2021-08-14T11:25:00Z</time>
      </trkpt>
      <trkpt lat="46.85926" lon="6.42788">
        <ele>1198.8</ele>
        <time>2021-08-14T11:25:01Z</time>
      </trkpt>
      <trkpt lat="46.85919" lon="6.42787">
        <ele>1198.1</ele>
        <time>2021-08-14T11:25:03Z</time>
      </trkpt>
      <trkpt lat="46.85917" lon="6.42788">
        <ele>1197.9</ele>
        <time>2021-08-14T11:25:04Z</time>
      </trkpt>
      <trkpt lat="46.8591" lon="6.4279">
        <ele>1197.1</ele>
        <time>2021-08-14T11:25:06Z</time>
      </trkpt>
      <trkpt lat="46.85905" lon="6.4279">
        <ele>1196.6</ele>
        <time>2021-08-14T11:25:07Z</time>
      </trkpt>
      <trkpt lat="46.85902" lon="6.4279">
        <ele>1196.3</ele>
        <time>2021-08-14T11:25:08Z</time>
      </trkpt>
      <trkpt lat="46.85893" lon="6.42792">
        <ele>1195.7</ele>
        <time>2021-08-14T11:25:09Z</time>
      </trkpt>
      <trkpt lat="46.85882" lon="6.42796">
        <ele>1195</ele>
        <time>2021-08-14T11:25:10Z</time>
      </trkpt>
      <trkpt lat="46.85861" lon="6.42802">
        <ele>1194.6</ele>
        <time>2021-08-14T11:25:12Z</time>
      </trkpt>
      <trkpt lat="46.85845" lon="6.42802">
        <ele>1195.1</ele>
        <time>2021-08-14T11:25:14Z</time>
      </trkpt>
      <trkpt lat="46.85838" lon="6.42804">
        <ele>1195.1</ele>
        <time>2021-08-14T11:25:15Z</time>
      </trkpt>
      <trkpt lat="46.85823" lon="6.4281">
        <ele>1194.2</ele>
        <time>2021-08-14T11:25:17Z</time>
      </trkpt>
      <trkpt lat="46.85808" lon="6.42812">
        <ele>1192.8</ele>
        <time>2021-08-14T11:25:19Z</time>
      </trkpt>
      <trkpt lat="46.85803" lon="6.42811">
        <ele>1192.3</ele>
        <time>2021-08-14T11:25:20Z</time>
      </trkpt>
      <trkpt lat="46.85798" lon="6.42811">
        <ele>1191.8</ele>
        <time>2021-08-14T11:25:21Z</time>
      </trkpt>
      <trkpt lat="46.85793" lon="6.42811">
        <ele>1191.3</ele>
        <time>2021-08-14T11:25:22Z</time>
      </trkpt>
      <trkpt lat="46.85785" lon="6.42811">
        <ele>1190.6</ele>
        <time>2021-08-14T11:25:24Z</time>
      </trkpt>
      <trkpt lat="46.85779" lon="6.42808">
        <ele>1190.2</ele>
        <time>2021-08-14T11:25:26Z</time>
      </trkpt>
      <trkpt lat="46.85771" lon="6.42807">
        <ele>1189.6</ele>
        <time>2021-08-14T11:25:28Z</time>
      </trkpt>
      <trkpt lat="46.85762" lon="6.42807">
        <ele>1189</ele>
        <time>2021-08-14T11:25:30Z</time>
      </trkpt>
      <trkpt lat="46.85752" lon="6.42809">
        <ele>1188.8</ele>
        <time>2021-08-14T11:25:32Z</time>
      </trkpt>
      <trkpt lat="46.85747" lon="6.42811">
        <ele>1188.7</ele>
        <time>2021-08-14T11:25:33Z</time>
      </trkpt>
      <trkpt lat="46.8574" lon="6.4282">
        <ele>1188.7</ele>
        <time>2021-08-14T11:25:35Z</time>
      </trkpt>
      <trkpt lat="46.85738" lon="6.42822">
        <ele>1188.7</ele>
        <time>2021-08-14T11:25:36Z</time>
      </trkpt>
      <trkpt lat="46.85731" lon="6.4283">
        <ele>1188.8</ele>
        <time>2021-08-14T11:25:37Z</time>
      </trkpt>
      <trkpt lat="46.85726" lon="6.42835">
        <ele>1188.9</ele>
        <time>2021-08-14T11:25:39Z</time>
      </trkpt>
      <trkpt lat="46.85717" lon="6.42844">
        <ele>1188.8</ele>
        <time>2021-08-14T11:25:40Z</time>
      </trkpt>
      <trkpt lat="46.8571" lon="6.42852">
        <ele>1188.6</ele>
        <time>2021-08-14T11:25:41Z</time>
      </trkpt>
      <trkpt lat="46.857" lon="6.42862">
        <ele>1188.2</ele>
        <time>2021-08-14T11:25:43Z</time>
      </trkpt>
      <trkpt lat="46.85695" lon="6.42866">
        <ele>1188</ele>
        <time>2021-08-14T11:25:44Z</time>
      </trkpt>
      <trkpt lat="46.85686" lon="6.4288">
        <ele>1187.4</ele>
        <time>2021-08-14T11:25:46Z</time>
      </trkpt>
      <trkpt lat="46.85681" lon="6.42887">
        <ele>1187.1</ele>
        <time>2021-08-14T11:25:47Z</time>
      </trkpt>
      <trkpt lat="46.8567" lon="6.42898">
        <ele>1186.4</ele>
        <time>2021-08-14T11:25:49Z</time>
      </trkpt>
      <trkpt lat="46.85665" lon="6.42904">
        <ele>1186.1</ele>
        <time>2021-08-14T11:25:50Z</time>
      </trkpt>
      <trkpt lat="46.8566" lon="6.42909">
        <ele>1185.8</ele>
        <time>2021-08-14T11:25:51Z</time>
      </trkpt>
      <trkpt lat="46.85656" lon="6.42915">
        <ele>1185.5</ele>
        <time>2021-08-14T11:25:52Z</time>
      </trkpt>
      <trkpt lat="46.85647" lon="6.42923">
        <ele>1185.1</ele>
        <time>2021-08-14T11:25:54Z</time>
      </trkpt>
      <trkpt lat="46.85642" lon="6.42927">
        <ele>1184.9</ele>
        <time>2021-08-14T11:25:55Z</time>
      </trkpt>
      <trkpt lat="46.85637" lon="6.4293">
        <ele>1184.6</ele>
        <time>2021-08-14T11:25:56Z</time>
      </trkpt>
      <trkpt lat="46.85631" lon="6.42932">
        <ele>1184.3</ele>
        <time>2021-08-14T11:25:57Z</time>
      </trkpt>
      <trkpt lat="46.85618" lon="6.42933">
        <ele>1183.7</ele>
        <time>2021-08-14T11:25:59Z</time>
      </trkpt>
      <trkpt lat="46.85613" lon="6.42931">
        <ele>1183.4</ele>
        <time>2021-08-14T11:26:00Z</time>
      </trkpt>
      <trkpt lat="46.85609" lon="6.42926">
        <ele>1183.1</ele>
        <time>2021-08-14T11:26:01Z</time>
      </trkpt>
      <trkpt lat="46.85604" lon="6.42922">
        <ele>1182.9</ele>
        <time>2021-08-14T11:26:02Z</time>
      </trkpt>
      <trkpt lat="46.85598" lon="6.42916">
        <ele>1182.6</ele>
        <time>2021-08-14T11:26:03Z</time>
      </trkpt>
      <trkpt lat="46.85586" lon="6.42904">
        <ele>1182.2</ele>
        <time>2021-08-14T11:26:05Z</time>
      </trkpt>
      <trkpt lat="46.85574" lon="6.42893">
        <ele>1181.9</ele>
        <time>2021-08-14T11:26:07Z</time>
      </trkpt>
      <trkpt lat="46.85569" lon="6.4289">
        <ele>1181.8</ele>
        <time>2021-08-14T11:26:08Z</time>
      </trkpt>
      <trkpt lat="46.85564" lon="6.42886">
        <ele>1181.7</ele>
        <time>2021-08-14T11:26:09Z</time>
      </trkpt>
      <trkpt lat="46.85559" lon="6.42882">
        <ele>1181.6</ele>
        <time>2021-08-14T11:26:10Z</time>
      </trkpt>
      <trkpt lat="46.85551" lon="6.42872">
        <ele>1181.5</ele>
        <time>2021-08-14T11:26:12Z</time>
      </trkpt>
      <trkpt lat="46.85543" lon="6.42861">
        <ele>1181.4</ele>
        <time>2021-08-14T11:26:14Z</time>
      </trkpt>
      <trkpt lat="46.8554" lon="6.42854">
        <ele>1181.3</ele>
        <time>2021-08-14T11:26:15Z</time>
      </trkpt>
      <trkpt lat="46.85537" lon="6.42848">
        <ele>1181.2</ele>
        <time>2021-08-14T11:26:16Z</time>
      </trkpt>
      <trkpt lat="46.85534" lon="6.42842">
        <ele>1181</ele>
        <time>2021-08-14T11:26:17Z</time>
      </trkpt>
      <trkpt lat="46.85525" lon="6.42836">
        <ele>1180.8</ele>
        <time>2021-08-14T11:26:19Z</time>
      </trkpt>
      <trkpt lat="46.85523" lon="6.42834">
        <ele>1180.7</ele>
        <time>2021-08-14T11:26:20Z</time>
      </trkpt>
      <trkpt lat="46.85519" lon="6.4283">
        <ele>1180.5</ele>
        <time>2021-08-14T11:26:21Z</time>
      </trkpt>
      <trkpt lat="46.85515" lon="6.42825">
        <ele>1180.4</ele>
        <time>2021-08-14T11:26:22Z</time>
      </trkpt>
      <trkpt lat="46.85507" lon="6.42817">
        <ele>1180</ele>
        <time>2021-08-14T11:26:24Z</time>
      </trkpt>
      <trkpt lat="46.85502" lon="6.42812">
        <ele>1179.8</ele>
        <time>2021-08-14T11:26:25Z</time>
      </trkpt>
      <trkpt lat="46.85492" lon="6.42803">
        <ele>1179.3</ele>
        <time>2021-08-14T11:26:27Z</time>
      </trkpt>
      <trkpt lat="46.85487" lon="6.42798">
        <ele>1179.1</ele>
        <time>2021-08-14T11:26:28Z</time>
      </trkpt>
      <trkpt lat="46.85477" lon="6.42787">
        <ele>1178.6</ele>
        <time>2021-08-14T11:26:30Z</time>
      </trkpt>
      <trkpt lat="46.8547" lon="6.42782">
        <ele>1178.3</ele>
        <time>2021-08-14T11:26:31Z</time>
      </trkpt>
      <trkpt lat="46.85464" lon="6.42776">
        <ele>1178.1</ele>
        <time>2021-08-14T11:26:32Z</time>
      </trkpt>
      <trkpt lat="46.85457" lon="6.42771">
        <ele>1177.9</ele>
        <time>2021-08-14T11:26:33Z</time>
      </trkpt>
      <trkpt lat="46.85451" lon="6.42767">
        <ele>1177.7</ele>
        <time>2021-08-14T11:26:34Z</time>
      </trkpt>
      <trkpt lat="46.85445" lon="6.42764">
        <ele>1177.4</ele>
        <time>2021-08-14T11:26:35Z</time>
      </trkpt>
      <trkpt lat="46.85434" lon="6.42758">
        <ele>1177</ele>
        <time>2021-08-14T11:26:37Z</time>
      </trkpt>
      <trkpt lat="46.85424" lon="6.4275">
        <ele>1176.4</ele>
        <time>2021-08-14T11:26:39Z</time>
      </trkpt>
      <trkpt lat="46.85419" lon="6.42747">
        <ele>1176.2</ele>
        <time>2021-08-14T11:26:40Z</time>
      </trkpt>
      <trkpt lat="46.85411" lon="6.42741">
        <ele>1175.6</ele>
        <time>2021-08-14T11:26:42Z</time>
      </trkpt>
      <trkpt lat="46.85406" lon="6.42738">
        <ele>1175.3</ele>
        <time>2021-08-14T11:26:43Z</time>
      </trkpt>
      <trkpt lat="46.85393" lon="6.42729">
        <ele>1174.2</ele>
        <time>2021-08-14T11:26:45Z</time>
      </trkpt>
      <trkpt lat="46.85384" lon="6.42725">
        <ele>1173.5</ele>
        <time>2021-08-14T11:26:46Z</time>
      </trkpt>
      <trkpt lat="46.85372" lon="6.42721">
        <ele>1172.6</ele>
        <time>2021-08-14T11:26:47Z</time>
      </trkpt>
      <trkpt lat="46.85347" lon="6.42716">
        <ele>1171</ele>
        <time>2021-08-14T11:26:49Z</time>
      </trkpt>
      <trkpt lat="46.85336" lon="6.42716">
        <ele>1170.4</ele>
        <time>2021-08-14T11:26:50Z</time>
      </trkpt>
      <trkpt lat="46.85325" lon="6.42717">
        <ele>1169.9</ele>
        <time>2021-08-14T11:26:51Z</time>
      </trkpt>
      <trkpt lat="46.85315" lon="6.42716">
        <ele>1169.6</ele>
        <time>2021-08-14T11:26:52Z</time>
      </trkpt>
      <trkpt lat="46.85305" lon="6.42716">
        <ele>1169.3</ele>
        <time>2021-08-14T11:26:53Z</time>
      </trkpt>
      <trkpt lat="46.85295" lon="6.42716">
        <ele>1169.2</ele>
        <time>2021-08-14T11:26:54Z</time>
      </trkpt>
      <trkpt lat="46.85279" lon="6.42716">
        <ele>1169.1</ele>
        <time>2021-08-14T11:26:56Z</time>
      </trkpt>
      <trkpt lat="46.85273" lon="6.42717">
        <ele>1169.1</ele>
        <time>2021-08-14T11:26:57Z</time>
      </trkpt>
      <trkpt lat="46.85263" lon="6.42716">
        <ele>1169.1</ele>
        <time>2021-08-14T11:26:59Z</time>
      </trkpt>
      <trkpt lat="46.85259" lon="6.42716">
        <ele>1169</ele>
        <time>2021-08-14T11:27:00Z</time>
      </trkpt>
      <trkpt lat="46.85255" lon="6.42716">
        <ele>1168.9</ele>
        <time>2021-08-14T11:27:01Z</time>
      </trkpt>
      <trkpt lat="46.85246" lon="6.42716">
        <ele>1168.8</ele>
        <time>2021-08-14T11:27:03Z</time>
      </trkpt>
      <trkpt lat="46.85242" lon="6.42717">
        <ele>1168.8</ele>
        <time>2021-08-14T11:27:04Z</time>
      </trkpt>
      <trkpt lat="46.85238" lon="6.42718">
        <ele>1168.7</ele>
        <time>2021-08-14T11:27:05Z</time>
      </trkpt>
      <trkpt lat="46.85233" lon="6.42718">
        <ele>1168.6</ele>
        <time>2021-08-14T11:27:06Z</time>
      </trkpt>
      <trkpt lat="46.85228" lon="6.42718">
        <ele>1168.6</ele>
        <time>2021-08-14T11:27:07Z</time>
      </trkpt>
      <trkpt lat="46.85218" lon="6.42722">
        <ele>1168.5</ele>
        <time>2021-08-14T11:27:09Z</time>
      </trkpt>
      <trkpt lat="46.85211" lon="6.42725">
        <ele>1168.5</ele>
        <time>2021-08-14T11:27:10Z</time>
      </trkpt>
      <trkpt lat="46.85197" lon="6.4273">
        <ele>1168.5</ele>
        <time>2021-08-14T11:27:12Z</time>
      </trkpt>
      <trkpt lat="46.8519" lon="6.42731">
        <ele>1168.6</ele>
        <time>2021-08-14T11:27:13Z</time>
      </trkpt>
      <trkpt lat="46.85176" lon="6.42734">
        <ele>1168.8</ele>
        <time>2021-08-14T11:27:15Z</time>
      </trkpt>
      <trkpt lat="46.85161" lon="6.42736">
        <ele>1168.9</ele>
        <time>2021-08-14T11:27:17Z</time>
      </trkpt>
      <trkpt lat="46.85155" lon="6.42735">
        <ele>1168.9</ele>
        <time>2021-08-14T11:27:18Z</time>
      </trkpt>
      <trkpt lat="46.85147" lon="6.42727">
        <ele>1169.1</ele>
        <time>2021-08-14T11:27:20Z</time>
      </trkpt>
      <trkpt lat="46.85154" lon="6.42715">
        <ele>1169.4</ele>
        <time>2021-08-14T11:27:22Z</time>
      </trkpt>
      <trkpt lat="46.85158" lon="6.42706">
        <ele>1169.6</ele>
        <time>2021-08-14T11:27:24Z</time>
      </trkpt>
      <trkpt lat="46.8516" lon="6.42694">
        <ele>1169.9</ele>
        <time>2021-08-14T11:27:26Z</time>
      </trkpt>
      <trkpt lat="46.8516" lon="6.42688">
        <ele>1170.1</ele>
        <time>2021-08-14T11:27:27Z</time>
      </trkpt>
      <trkpt lat="46.85163" lon="6.42681">
        <ele>1170.4</ele>
        <time>2021-08-14T11:27:28Z</time>
      </trkpt>
      <trkpt lat="46.85169" lon="6.42665">
        <ele>1170.9</ele>
        <time>2021-08-14T11:27:30Z</time>
      </trkpt>
      <trkpt lat="46.85158" lon="6.42609">
        <ele>1172.6</ele>
        <time>2021-08-14T11:27:50Z</time>
      </trkpt>
      <trkpt lat="46.85154" lon="6.42605">
        <ele>1172.8</ele>
        <time>2021-08-14T11:27:52Z</time>
      </trkpt>
      <trkpt lat="46.8515" lon="6.42601">
        <ele>1173</ele>
        <time>2021-08-14T11:27:54Z</time>
      </trkpt>
      <trkpt lat="46.85149" lon="6.42598">
        <ele>1173</ele>
        <time>2021-08-14T11:27:55Z</time>
      </trkpt>
      <trkpt lat="46.85149" lon="6.42596">
        <ele>1173.1</ele>
        <time>2021-08-14T11:27:56Z</time>
      </trkpt>
      <trkpt lat="46.85148" lon="6.42592">
        <ele>1173.2</ele>
        <time>2021-08-14T11:27:58Z</time>
      </trkpt>
      <trkpt lat="46.85147" lon="6.42591">
        <ele>1173.2</ele>
        <time>2021-08-14T11:27:59Z</time>
      </trkpt>
      <trkpt lat="46.85151" lon="6.42587">
        <ele>1173.3</ele>
        <time>2021-08-14T11:28:01Z</time>
      </trkpt>
      <trkpt lat="46.85154" lon="6.42583">
        <ele>1173.5</ele>
        <time>2021-08-14T11:28:02Z</time>
      </trkpt>
      <trkpt lat="46.85157" lon="6.42579">
        <ele>1173.6</ele>
        <time>2021-08-14T11:28:03Z</time>
      </trkpt>
      <trkpt lat="46.85159" lon="6.4257">
        <ele>1173.8</ele>
        <time>2021-08-14T11:28:05Z</time>
      </trkpt>
      <trkpt lat="46.85158" lon="6.42566">
        <ele>1173.9</ele>
        <time>2021-08-14T11:28:06Z</time>
      </trkpt>
      <trkpt lat="46.85155" lon="6.42564">
        <ele>1174</ele>
        <time>2021-08-14T11:28:07Z</time>
      </trkpt>
      <trkpt lat="46.85153" lon="6.42563">
        <ele>1174</ele>
        <time>2021-08-14T11:28:08Z</time>
      </trkpt>
      <trkpt lat="46.85151" lon="6.42561">
        <ele>1174.1</ele>
        <time>2021-08-14T11:28:09Z</time>
      </trkpt>
      <trkpt lat="46.85146" lon="6.42558">
        <ele>1174.3</ele>
        <time>2021-08-14T11:28:11Z</time>
      </trkpt>
      <trkpt lat="46.85143" lon="6.42556">
        <ele>1174.4</ele>
        <time>2021-08-14T11:28:12Z</time>
      </trkpt>
      <trkpt lat="46.85141" lon="6.42555">
        <ele>1174.4</ele>
        <time>2021-08-14T11:28:13Z</time>
      </trkpt>
      <trkpt lat="46.85138" lon="6.42555">
        <ele>1174.5</ele>
        <time>2021-08-14T11:28:15Z</time>
      </trkpt>
      <trkpt lat="46.85137" lon="6.42552">
        <ele>1174.6</ele>
        <time>2021-08-14T11:28:17Z</time>
      </trkpt>
      <trkpt lat="46.85137" lon="6.42551">
        <ele>1174.6</ele>
        <time>2021-08-14T11:28:18Z</time>
      </trkpt>
      <trkpt lat="46.85136" lon="6.4255">
        <ele>1174.6</ele>
        <time>2021-08-14T11:28:20Z</time>
      </trkpt>
      <trkpt lat="46.85136" lon="6.42549">
        <ele>1174.7</ele>
        <time>2021-08-14T11:28:21Z</time>
      </trkpt>
      <trkpt lat="46.85135" lon="6.42547">
        <ele>1174.7</ele>
        <time>2021-08-14T11:28:22Z</time>
      </trkpt>
      <trkpt lat="46.85135" lon="6.42545">
        <ele>1174.7</ele>
        <time>2021-08-14T11:28:23Z</time>
      </trkpt>
      <trkpt lat="46.85132" lon="6.42529">
        <ele>1175</ele>
        <time>2021-08-14T11:28:31Z</time>
      </trkpt>
      <trkpt lat="46.85132" lon="6.42522">
        <ele>1175.1</ele>
        <time>2021-08-14T11:28:32Z</time>
      </trkpt>
      <trkpt lat="46.85132" lon="6.4251">
        <ele>1175.2</ele>
        <time>2021-08-14T11:28:34Z</time>
      </trkpt>
      <trkpt lat="46.85131" lon="6.42507">
        <ele>1175.2</ele>
        <time>2021-08-14T11:28:35Z</time>
      </trkpt>
      <trkpt lat="46.85127" lon="6.42504">
        <ele>1175.1</ele>
        <time>2021-08-14T11:28:37Z</time>
      </trkpt>
      <trkpt lat="46.85124" lon="6.42502">
        <ele>1175.1</ele>
        <time>2021-08-14T11:28:38Z</time>
      </trkpt>
      <trkpt lat="46.85124" lon="6.42501">
        <ele>1175.1</ele>
        <time>2021-08-14T11:28:39Z</time>
      </trkpt>
      <trkpt lat="46.85123" lon="6.425">
        <ele>1175.1</ele>
        <time>2021-08-14T11:28:40Z</time>
      </trkpt>
      <trkpt lat="46.85123" lon="6.425">
        <ele>1175.1</ele>
        <time>2021-08-14T11:28:42Z</time>
      </trkpt>
      <trkpt lat="46.85122" lon="6.42499">
        <ele>1175.1</ele>
        <time>2021-08-14T11:28:43Z</time>
      </trkpt>
      <trkpt lat="46.85122" lon="6.42497">
        <ele>1175.1</ele>
        <time>2021-08-14T11:28:45Z</time>
      </trkpt>
      <trkpt lat="46.85121" lon="6.42495">
        <ele>1175.1</ele>
        <time>2021-08-14T11:28:46Z</time>
      </trkpt>
      <trkpt lat="46.8512" lon="6.42491">
        <ele>1175</ele>
        <time>2021-08-14T11:28:48Z</time>
      </trkpt>
      <trkpt lat="46.85116" lon="6.42482">
        <ele>1174.9</ele>
        <time>2021-08-14T11:28:50Z</time>
      </trkpt>
      <trkpt lat="46.8511" lon="6.42471">
        <ele>1174.6</ele>
        <time>2021-08-14T11:28:52Z</time>
      </trkpt>
      <trkpt lat="46.85104" lon="6.42459">
        <ele>1174.1</ele>
        <time>2021-08-14T11:28:54Z</time>
      </trkpt>
      <trkpt lat="46.85101" lon="6.42447">
        <ele>1173.7</ele>
        <time>2021-08-14T11:28:55Z</time>
      </trkpt>
      <trkpt lat="46.85096" lon="6.4243">
        <ele>1173.1</ele>
        <time>2021-08-14T11:28:56Z</time>
      </trkpt>
      <trkpt lat="46.85093" lon="6.42425">
        <ele>1172.9</ele>
        <time>2021-08-14T11:28:57Z</time>
      </trkpt>
      <trkpt lat="46.85092" lon="6.42418">
        <ele>1172.6</ele>
        <time>2021-08-14T11:28:58Z</time>
      </trkpt>
      <trkpt lat="46.85088" lon="6.42412">
        <ele>1172.3</ele>
        <time>2021-08-14T11:29:00Z</time>
      </trkpt>
      <trkpt lat="46.85083" lon="6.42404">
        <ele>1171.9</ele>
        <time>2021-08-14T11:29:01Z</time>
      </trkpt>
      <trkpt lat="46.85079" lon="6.42397">
        <ele>1171.5</ele>
        <time>2021-08-14T11:29:02Z</time>
      </trkpt>
      <trkpt lat="46.85074" lon="6.4239">
        <ele>1171.1</ele>
        <time>2021-08-14T11:29:03Z</time>
      </trkpt>
      <trkpt lat="46.85064" lon="6.42379">
        <ele>1170.4</ele>
        <time>2021-08-14T11:29:05Z</time>
      </trkpt>
      <trkpt lat="46.85058" lon="6.42375">
        <ele>1169.9</ele>
        <time>2021-08-14T11:29:06Z</time>
      </trkpt>
      <trkpt lat="46.85047" lon="6.42373">
        <ele>1169.1</ele>
        <time>2021-08-14T11:29:08Z</time>
      </trkpt>
      <trkpt lat="46.85039" lon="6.42371">
        <ele>1168.4</ele>
        <time>2021-08-14T11:29:09Z</time>
      </trkpt>
      <trkpt lat="46.8503" lon="6.42369">
        <ele>1167.7</ele>
        <time>2021-08-14T11:29:10Z</time>
      </trkpt>
      <trkpt lat="46.85014" lon="6.42363">
        <ele>1166.3</ele>
        <time>2021-08-14T11:29:12Z</time>
      </trkpt>
      <trkpt lat="46.84995" lon="6.42354">
        <ele>1164.7</ele>
        <time>2021-08-14T11:29:14Z</time>
      </trkpt>
      <trkpt lat="46.84979" lon="6.42345">
        <ele>1163.4</ele>
        <time>2021-08-14T11:29:16Z</time>
      </trkpt>
      <trkpt lat="46.84964" lon="6.42329">
        <ele>1162</ele>
        <time>2021-08-14T11:29:18Z</time>
      </trkpt>
      <trkpt lat="46.84953" lon="6.42307">
        <ele>1160.5</ele>
        <time>2021-08-14T11:29:20Z</time>
      </trkpt>
      <trkpt lat="46.84948" lon="6.42296">
        <ele>1159.7</ele>
        <time>2021-08-14T11:29:21Z</time>
      </trkpt>
      <trkpt lat="46.84945" lon="6.42284">
        <ele>1159</ele>
        <time>2021-08-14T11:29:22Z</time>
      </trkpt>
      <trkpt lat="46.84941" lon="6.42272">
        <ele>1158.3</ele>
        <time>2021-08-14T11:29:23Z</time>
      </trkpt>
      <trkpt lat="46.84935" lon="6.42247">
        <ele>1156.9</ele>
        <time>2021-08-14T11:29:25Z</time>
      </trkpt>
      <trkpt lat="46.84931" lon="6.42233">
        <ele>1156.3</ele>
        <time>2021-08-14T11:29:26Z</time>
      </trkpt>
      <trkpt lat="46.84923" lon="6.42208">
        <ele>1155.3</ele>
        <time>2021-08-14T11:29:28Z</time>
      </trkpt>
      <trkpt lat="46.84914" lon="6.42186">
        <ele>1154.2</ele>
        <time>2021-08-14T11:29:30Z</time>
      </trkpt>
      <trkpt lat="46.849" lon="6.42167">
        <ele>1152.7</ele>
        <time>2021-08-14T11:29:32Z</time>
      </trkpt>
      <trkpt lat="46.84894" lon="6.42157">
        <ele>1151.9</ele>
        <time>2021-08-14T11:29:33Z</time>
      </trkpt>
      <trkpt lat="46.84876" lon="6.42143">
        <ele>1150</ele>
        <time>2021-08-14T11:29:35Z</time>
      </trkpt>
      <trkpt lat="46.84864" lon="6.42136">
        <ele>1148.9</ele>
        <time>2021-08-14T11:29:36Z</time>
      </trkpt>
      <trkpt lat="46.84846" lon="6.42122">
        <ele>1147.3</ele>
        <time>2021-08-14T11:29:38Z</time>
      </trkpt>
      <trkpt lat="46.84839" lon="6.42116">
        <ele>1146.7</ele>
        <time>2021-08-14T11:29:39Z</time>
      </trkpt>
      <trkpt lat="46.84832" lon="6.4211">
        <ele>1146.1</ele>
        <time>2021-08-14T11:29:40Z</time>
      </trkpt>
      <trkpt lat="46.84817" lon="6.42098">
        <ele>1144.8</ele>
        <time>2021-08-14T11:29:42Z</time>
      </trkpt>
      <trkpt lat="46.84802" lon="6.42084">
        <ele>1143.5</ele>
        <time>2021-08-14T11:29:44Z</time>
      </trkpt>
      <trkpt lat="46.84794" lon="6.42076">
        <ele>1142.9</ele>
        <time>2021-08-14T11:29:45Z</time>
      </trkpt>
      <trkpt lat="46.84786" lon="6.42067">
        <ele>1142.2</ele>
        <time>2021-08-14T11:29:46Z</time>
      </trkpt>
      <trkpt lat="46.8477" lon="6.42046">
        <ele>1141</ele>
        <time>2021-08-14T11:29:48Z</time>
      </trkpt>
      <trkpt lat="46.84755" lon="6.42024">
        <ele>1140</ele>
        <time>2021-08-14T11:29:50Z</time>
      </trkpt>
      <trkpt lat="46.84748" lon="6.42013">
        <ele>1139.4</ele>
        <time>2021-08-14T11:29:51Z</time>
      </trkpt>
      <trkpt lat="46.84743" lon="6.42002">
        <ele>1138.9</ele>
        <time>2021-08-14T11:29:52Z</time>
      </trkpt>
      <trkpt lat="46.84739" lon="6.41991">
        <ele>1138.5</ele>
        <time>2021-08-14T11:29:53Z</time>
      </trkpt>
      <trkpt lat="46.84734" lon="6.41981">
        <ele>1138</ele>
        <time>2021-08-14T11:29:54Z</time>
      </trkpt>
      <trkpt lat="46.84723" lon="6.41962">
        <ele>1137</ele>
        <time>2021-08-14T11:29:56Z</time>
      </trkpt>
      <trkpt lat="46.84718" lon="6.41953">
        <ele>1136.5</ele>
        <time>2021-08-14T11:29:57Z</time>
      </trkpt>
      <trkpt lat="46.84714" lon="6.41942">
        <ele>1135.9</ele>
        <time>2021-08-14T11:29:58Z</time>
      </trkpt>
      <trkpt lat="46.84707" lon="6.41923">
        <ele>1135</ele>
        <time>2021-08-14T11:30:00Z</time>
      </trkpt>
      <trkpt lat="46.84698" lon="6.41908">
        <ele>1134.1</ele>
        <time>2021-08-14T11:30:02Z</time>
      </trkpt>
      <trkpt lat="46.84686" lon="6.41891">
        <ele>1133.1</ele>
        <time>2021-08-14T11:30:04Z</time>
      </trkpt>
      <trkpt lat="46.8468" lon="6.41884">
        <ele>1132.6</ele>
        <time>2021-08-14T11:30:05Z</time>
      </trkpt>
      <trkpt lat="46.8467" lon="6.41868">
        <ele>1131.8</ele>
        <time>2021-08-14T11:30:07Z</time>
      </trkpt>
      <trkpt lat="46.84664" lon="6.4186">
        <ele>1131.3</ele>
        <time>2021-08-14T11:30:08Z</time>
      </trkpt>
      <trkpt lat="46.84658" lon="6.41853">
        <ele>1130.9</ele>
        <time>2021-08-14T11:30:09Z</time>
      </trkpt>
      <trkpt lat="46.84643" lon="6.41839">
        <ele>1129.8</ele>
        <time>2021-08-14T11:30:11Z</time>
      </trkpt>
      <trkpt lat="46.84636" lon="6.41831">
        <ele>1129.2</ele>
        <time>2021-08-14T11:30:12Z</time>
      </trkpt>
      <trkpt lat="46.84618" lon="6.4182">
        <ele>1127.7</ele>
        <time>2021-08-14T11:30:14Z</time>
      </trkpt>
      <trkpt lat="46.84609" lon="6.41815">
        <ele>1126.9</ele>
        <time>2021-08-14T11:30:15Z</time>
      </trkpt>
      <trkpt lat="46.84599" lon="6.4181">
        <ele>1126.1</ele>
        <time>2021-08-14T11:30:16Z</time>
      </trkpt>
      <trkpt lat="46.84578" lon="6.41796">
        <ele>1124.6</ele>
        <time>2021-08-14T11:30:18Z</time>
      </trkpt>
      <trkpt lat="46.84557" lon="6.41777">
        <ele>1123</ele>
        <time>2021-08-14T11:30:20Z</time>
      </trkpt>
      <trkpt lat="46.8455" lon="6.41766">
        <ele>1122.4</ele>
        <time>2021-08-14T11:30:21Z</time>
      </trkpt>
      <trkpt lat="46.84545" lon="6.41755">
        <ele>1121.8</ele>
        <time>2021-08-14T11:30:22Z</time>
      </trkpt>
      <trkpt lat="46.8454" lon="6.41743">
        <ele>1121.3</ele>
        <time>2021-08-14T11:30:23Z</time>
      </trkpt>
      <trkpt lat="46.84532" lon="6.41719">
        <ele>1120.3</ele>
        <time>2021-08-14T11:30:25Z</time>
      </trkpt>
      <trkpt lat="46.84529" lon="6.41708">
        <ele>1119.9</ele>
        <time>2021-08-14T11:30:26Z</time>
      </trkpt>
      <trkpt lat="46.84525" lon="6.41696">
        <ele>1119.5</ele>
        <time>2021-08-14T11:30:27Z</time>
      </trkpt>
      <trkpt lat="46.84521" lon="6.41686">
        <ele>1119.1</ele>
        <time>2021-08-14T11:30:28Z</time>
      </trkpt>
      <trkpt lat="46.84513" lon="6.41666">
        <ele>1118.4</ele>
        <time>2021-08-14T11:30:30Z</time>
      </trkpt>
      <trkpt lat="46.84504" lon="6.41646">
        <ele>1117.7</ele>
        <time>2021-08-14T11:30:32Z</time>
      </trkpt>
      <trkpt lat="46.84498" lon="6.41636">
        <ele>1117.4</ele>
        <time>2021-08-14T11:30:33Z</time>
      </trkpt>
      <trkpt lat="46.84491" lon="6.41626">
        <ele>1117</ele>
        <time>2021-08-14T11:30:34Z</time>
      </trkpt>
      <trkpt lat="46.84481" lon="6.4161">
        <ele>1116.5</ele>
        <time>2021-08-14T11:30:36Z</time>
      </trkpt>
      <trkpt lat="46.84477" lon="6.41603">
        <ele>1116.3</ele>
        <time>2021-08-14T11:30:37Z</time>
      </trkpt>
      <trkpt lat="46.84469" lon="6.41587">
        <ele>1115.8</ele>
        <time>2021-08-14T11:30:39Z</time>
      </trkpt>
      <trkpt lat="46.84465" lon="6.41579">
        <ele>1115.5</ele>
        <time>2021-08-14T11:30:40Z</time>
      </trkpt>
      <trkpt lat="46.84459" lon="6.4156">
        <ele>1114.9</ele>
        <time>2021-08-14T11:30:42Z</time>
      </trkpt>
      <trkpt lat="46.84457" lon="6.4155">
        <ele>1114.7</ele>
        <time>2021-08-14T11:30:43Z</time>
      </trkpt>
      <trkpt lat="46.84455" lon="6.41539">
        <ele>1114.4</ele>
        <time>2021-08-14T11:30:44Z</time>
      </trkpt>
      <trkpt lat="46.84454" lon="6.41519">
        <ele>1114.1</ele>
        <time>2021-08-14T11:30:46Z</time>
      </trkpt>
      <trkpt lat="46.84453" lon="6.41498">
        <ele>1113.8</ele>
        <time>2021-08-14T11:30:48Z</time>
      </trkpt>
      <trkpt lat="46.84455" lon="6.4149">
        <ele>1113.7</ele>
        <time>2021-08-14T11:30:49Z</time>
      </trkpt>
      <trkpt lat="46.84458" lon="6.41481">
        <ele>1113.5</ele>
        <time>2021-08-14T11:30:50Z</time>
      </trkpt>
      <trkpt lat="46.84461" lon="6.41473">
        <ele>1113.4</ele>
        <time>2021-08-14T11:30:51Z</time>
      </trkpt>
      <trkpt lat="46.84462" lon="6.41465">
        <ele>1113.2</ele>
        <time>2021-08-14T11:30:52Z</time>
      </trkpt>
      <trkpt lat="46.84469" lon="6.4145">
        <ele>1112.9</ele>
        <time>2021-08-14T11:30:54Z</time>
      </trkpt>
      <trkpt lat="46.84473" lon="6.41443">
        <ele>1112.7</ele>
        <time>2021-08-14T11:30:55Z</time>
      </trkpt>
      <trkpt lat="46.84482" lon="6.41429">
        <ele>1112.4</ele>
        <time>2021-08-14T11:30:57Z</time>
      </trkpt>
      <trkpt lat="46.84485" lon="6.41424">
        <ele>1112.2</ele>
        <time>2021-08-14T11:30:58Z</time>
      </trkpt>
      <trkpt lat="46.84488" lon="6.41411">
        <ele>1111.9</ele>
        <time>2021-08-14T11:31:00Z</time>
      </trkpt>
      <trkpt lat="46.84481" lon="6.41399">
        <ele>1111.5</ele>
        <time>2021-08-14T11:31:02Z</time>
      </trkpt>
      <trkpt lat="46.84476" lon="6.41396">
        <ele>1111.3</ele>
        <time>2021-08-14T11:31:03Z</time>
      </trkpt>
      <trkpt lat="46.8447" lon="6.4139">
        <ele>1111</ele>
        <time>2021-08-14T11:31:04Z</time>
      </trkpt>
      <trkpt lat="46.84454" lon="6.41378">
        <ele>1110.2</ele>
        <time>2021-08-14T11:31:06Z</time>
      </trkpt>
      <trkpt lat="46.84436" lon="6.41362">
        <ele>1109.2</ele>
        <time>2021-08-14T11:31:08Z</time>
      </trkpt>
      <trkpt lat="46.84417" lon="6.41347">
        <ele>1108.3</ele>
        <time>2021-08-14T11:31:10Z</time>
      </trkpt>
      <trkpt lat="46.844" lon="6.41334">
        <ele>1107.6</ele>
        <time>2021-08-14T11:31:12Z</time>
      </trkpt>
      <trkpt lat="46.84394" lon="6.41327">
        <ele>1107.3</ele>
        <time>2021-08-14T11:31:13Z</time>
      </trkpt>
      <trkpt lat="46.84389" lon="6.4132">
        <ele>1107.1</ele>
        <time>2021-08-14T11:31:14Z</time>
      </trkpt>
      <trkpt lat="46.84379" lon="6.41306">
        <ele>1106.7</ele>
        <time>2021-08-14T11:31:16Z</time>
      </trkpt>
      <trkpt lat="46.8437" lon="6.41291">
        <ele>1106.4</ele>
        <time>2021-08-14T11:31:18Z</time>
      </trkpt>
      <trkpt lat="46.84361" lon="6.41276">
        <ele>1106.1</ele>
        <time>2021-08-14T11:31:20Z</time>
      </trkpt>
      <trkpt lat="46.84355" lon="6.41269">
        <ele>1106</ele>
        <time>2021-08-14T11:31:21Z</time>
      </trkpt>
      <trkpt lat="46.84349" lon="6.41262">
        <ele>1105.8</ele>
        <time>2021-08-14T11:31:22Z</time>
      </trkpt>
      <trkpt lat="46.84339" lon="6.41248">
        <ele>1105.6</ele>
        <time>2021-08-14T11:31:24Z</time>
      </trkpt>
      <trkpt lat="46.84333" lon="6.41241">
        <ele>1105.5</ele>
        <time>2021-08-14T11:31:25Z</time>
      </trkpt>
      <trkpt lat="46.84328" lon="6.41235">
        <ele>1105.4</ele>
        <time>2021-08-14T11:31:26Z</time>
      </trkpt>
      <trkpt lat="46.84323" lon="6.41229">
        <ele>1105.3</ele>
        <time>2021-08-14T11:31:27Z</time>
      </trkpt>
      <trkpt lat="46.84317" lon="6.41223">
        <ele>1105.1</ele>
        <time>2021-08-14T11:31:28Z</time>
      </trkpt>
      <trkpt lat="46.84305" lon="6.41209">
        <ele>1104.9</ele>
        <time>2021-08-14T11:31:30Z</time>
      </trkpt>
      <trkpt lat="46.84297" lon="6.41195">
        <ele>1104.8</ele>
        <time>2021-08-14T11:31:32Z</time>
      </trkpt>
      <trkpt lat="46.8429" lon="6.41181">
        <ele>1104.7</ele>
        <time>2021-08-14T11:31:34Z</time>
      </trkpt>
      <trkpt lat="46.84279" lon="6.41168">
        <ele>1104.7</ele>
        <time>2021-08-14T11:31:36Z</time>
      </trkpt>
      <trkpt lat="46.8427" lon="6.41157">
        <ele>1104.7</ele>
        <time>2021-08-14T11:31:38Z</time>
      </trkpt>
      <trkpt lat="46.84266" lon="6.41152">
        <ele>1104.8</ele>
        <time>2021-08-14T11:31:39Z</time>
      </trkpt>
      <trkpt lat="46.84261" lon="6.41146">
        <ele>1104.8</ele>
        <time>2021-08-14T11:31:40Z</time>
      </trkpt>
      <trkpt lat="46.84257" lon="6.41141">
        <ele>1104.8</ele>
        <time>2021-08-14T11:31:41Z</time>
      </trkpt>
      <trkpt lat="46.8425" lon="6.4113">
        <ele>1104.7</ele>
        <time>2021-08-14T11:31:43Z</time>
      </trkpt>
      <trkpt lat="46.84246" lon="6.41125">
        <ele>1104.7</ele>
        <time>2021-08-14T11:31:44Z</time>
      </trkpt>
      <trkpt lat="46.84237" lon="6.41116">
        <ele>1104.5</ele>
        <time>2021-08-14T11:31:46Z</time>
      </trkpt>
      <trkpt lat="46.84228" lon="6.41106">
        <ele>1104.2</ele>
        <time>2021-08-14T11:31:48Z</time>
      </trkpt>
      <trkpt lat="46.84224" lon="6.41101">
        <ele>1104</ele>
        <time>2021-08-14T11:31:49Z</time>
      </trkpt>
      <trkpt lat="46.84215" lon="6.41091">
        <ele>1103.6</ele>
        <time>2021-08-14T11:31:51Z</time>
      </trkpt>
      <trkpt lat="46.8421" lon="6.41086">
        <ele>1103.5</ele>
        <time>2021-08-14T11:31:52Z</time>
      </trkpt>
      <trkpt lat="46.84205" lon="6.41082">
        <ele>1103.3</ele>
        <time>2021-08-14T11:31:54Z</time>
      </trkpt>
      <trkpt lat="46.84202" lon="6.41085">
        <ele>1103.2</ele>
        <time>2021-08-14T11:31:56Z</time>
      </trkpt>
      <trkpt lat="46.84198" lon="6.41088">
        <ele>1103.1</ele>
        <time>2021-08-14T11:31:57Z</time>
      </trkpt>
      <trkpt lat="46.84195" lon="6.41091">
        <ele>1103</ele>
        <time>2021-08-14T11:31:58Z</time>
      </trkpt>
      <trkpt lat="46.84192" lon="6.41094">
        <ele>1102.9</ele>
        <time>2021-08-14T11:32:00Z</time>
      </trkpt>
      <trkpt lat="46.84192" lon="6.41094">
        <ele>1102.9</ele>
        <time>2021-08-14T11:32:01Z</time>
      </trkpt>
      <trkpt lat="46.84191" lon="6.41094">
        <ele>1102.9</ele>
        <time>2021-08-14T11:32:02Z</time>
      </trkpt>
      <trkpt lat="46.84107" lon="6.41002">
        <ele>1101.2</ele>
        <time>2021-08-14T11:32:12Z</time>
      </trkpt>
      <trkpt lat="46.84093" lon="6.40988">
        <ele>1100.7</ele>
        <time>2021-08-14T11:32:14Z</time>
      </trkpt>
      <trkpt lat="46.84088" lon="6.40984">
        <ele>1100.5</ele>
        <time>2021-08-14T11:32:15Z</time>
      </trkpt>
      <trkpt lat="46.84083" lon="6.40977">
        <ele>1100.2</ele>
        <time>2021-08-14T11:32:19Z</time>
      </trkpt>
      <trkpt lat="46.84081" lon="6.40974">
        <ele>1100.1</ele>
        <time>2021-08-14T11:32:20Z</time>
      </trkpt>
      <trkpt lat="46.84072" lon="6.40966">
        <ele>1099.8</ele>
        <time>2021-08-14T11:32:22Z</time>
      </trkpt>
      <trkpt lat="46.84062" lon="6.40958">
        <ele>1099.6</ele>
        <time>2021-08-14T11:32:24Z</time>
      </trkpt>
      <trkpt lat="46.84054" lon="6.4095">
        <ele>1099.3</ele>
        <time>2021-08-14T11:32:26Z</time>
      </trkpt>
      <trkpt lat="46.84046" lon="6.4094">
        <ele>1099.1</ele>
        <time>2021-08-14T11:32:28Z</time>
      </trkpt>
      <trkpt lat="46.84037" lon="6.40929">
        <ele>1098.8</ele>
        <time>2021-08-14T11:32:30Z</time>
      </trkpt>
      <trkpt lat="46.84027" lon="6.40919">
        <ele>1098.6</ele>
        <time>2021-08-14T11:32:32Z</time>
      </trkpt>
      <trkpt lat="46.84019" lon="6.4091">
        <ele>1098.4</ele>
        <time>2021-08-14T11:32:34Z</time>
      </trkpt>
      <trkpt lat="46.84015" lon="6.40906">
        <ele>1098.4</ele>
        <time>2021-08-14T11:32:35Z</time>
      </trkpt>
      <trkpt lat="46.84006" lon="6.40899">
        <ele>1098.3</ele>
        <time>2021-08-14T11:32:37Z</time>
      </trkpt>
      <trkpt lat="46.84002" lon="6.40895">
        <ele>1098.3</ele>
        <time>2021-08-14T11:32:38Z</time>
      </trkpt>
      <trkpt lat="46.83991" lon="6.40887">
        <ele>1098.2</ele>
        <time>2021-08-14T11:32:40Z</time>
      </trkpt>
      <trkpt lat="46.83978" lon="6.40877">
        <ele>1098.1</ele>
        <time>2021-08-14T11:32:42Z</time>
      </trkpt>
      <trkpt lat="46.83967" lon="6.40865">
        <ele>1098.1</ele>
        <time>2021-08-14T11:32:44Z</time>
      </trkpt>
      <trkpt lat="46.83953" lon="6.40854">
        <ele>1098.1</ele>
        <time>2021-08-14T11:32:46Z</time>
      </trkpt>
      <trkpt lat="46.83945" lon="6.40849">
        <ele>1098.2</ele>
        <time>2021-08-14T11:32:48Z</time>
      </trkpt>
      <trkpt lat="46.83938" lon="6.40841">
        <ele>1098.2</ele>
        <time>2021-08-14T11:32:50Z</time>
      </trkpt>
      <trkpt lat="46.83938" lon="6.40837">
        <ele>1098.2</ele>
        <time>2021-08-14T11:32:51Z</time>
      </trkpt>
      <trkpt lat="46.83939" lon="6.40836">
        <ele>1098.2</ele>
        <time>2021-08-14T11:32:52Z</time>
      </trkpt>
      <trkpt lat="46.83939" lon="6.40832">
        <ele>1098.2</ele>
        <time>2021-08-14T11:32:54Z</time>
      </trkpt>
      <trkpt lat="46.83937" lon="6.40827">
        <ele>1098.2</ele>
        <time>2021-08-14T11:32:55Z</time>
      </trkpt>
      <trkpt lat="46.83935" lon="6.40824">
        <ele>1098.2</ele>
        <time>2021-08-14T11:32:56Z</time>
      </trkpt>
      <trkpt lat="46.83932" lon="6.4082">
        <ele>1098.2</ele>
        <time>2021-08-14T11:32:57Z</time>
      </trkpt>
      <trkpt lat="46.83927" lon="6.40816">
        <ele>1098.2</ele>
        <time>2021-08-14T11:32:59Z</time>
      </trkpt>
      <trkpt lat="46.83922" lon="6.40814">
        <ele>1098.1</ele>
        <time>2021-08-14T11:33:00Z</time>
      </trkpt>
      <trkpt lat="46.83919" lon="6.40812">
        <ele>1098.1</ele>
        <time>2021-08-14T11:33:01Z</time>
      </trkpt>
      <trkpt lat="46.83913" lon="6.40809">
        <ele>1098.1</ele>
        <time>2021-08-14T11:33:03Z</time>
      </trkpt>
      <trkpt lat="46.83908" lon="6.40806">
        <ele>1098</ele>
        <time>2021-08-14T11:33:04Z</time>
      </trkpt>
      <trkpt lat="46.83905" lon="6.40804">
        <ele>1098</ele>
        <time>2021-08-14T11:33:05Z</time>
      </trkpt>
      <trkpt lat="46.83902" lon="6.40803">
        <ele>1097.9</ele>
        <time>2021-08-14T11:33:06Z</time>
      </trkpt>
      <trkpt lat="46.83899" lon="6.408">
        <ele>1097.9</ele>
        <time>2021-08-14T11:33:07Z</time>
      </trkpt>
      <trkpt lat="46.83895" lon="6.40797">
        <ele>1097.8</ele>
        <time>2021-08-14T11:33:09Z</time>
      </trkpt>
      <trkpt lat="46.83893" lon="6.40794">
        <ele>1097.8</ele>
        <time>2021-08-14T11:33:10Z</time>
      </trkpt>
      <trkpt lat="46.83889" lon="6.40789">
        <ele>1097.7</ele>
        <time>2021-08-14T11:33:11Z</time>
      </trkpt>
      <trkpt lat="46.83882" lon="6.40784">
        <ele>1097.6</ele>
        <time>2021-08-14T11:33:12Z</time>
      </trkpt>
      <trkpt lat="46.83873" lon="6.40776">
        <ele>1097.4</ele>
        <time>2021-08-14T11:33:14Z</time>
      </trkpt>
      <trkpt lat="46.83867" lon="6.40771">
        <ele>1097.3</ele>
        <time>2021-08-14T11:33:15Z</time>
      </trkpt>
      <trkpt lat="46.83862" lon="6.40765">
        <ele>1097.2</ele>
        <time>2021-08-14T11:33:16Z</time>
      </trkpt>
      <trkpt lat="46.83856" lon="6.4076">
        <ele>1097.1</ele>
        <time>2021-08-14T11:33:17Z</time>
      </trkpt>
      <trkpt lat="46.83851" lon="6.40755">
        <ele>1096.9</ele>
        <time>2021-08-14T11:33:18Z</time>
      </trkpt>
      <trkpt lat="46.83846" lon="6.4075">
        <ele>1096.8</ele>
        <time>2021-08-14T11:33:19Z</time>
      </trkpt>
      <trkpt lat="46.83839" lon="6.40743">
        <ele>1096.6</ele>
        <time>2021-08-14T11:33:21Z</time>
      </trkpt>
      <trkpt lat="46.83833" lon="6.40737">
        <ele>1096.5</ele>
        <time>2021-08-14T11:33:22Z</time>
      </trkpt>
      <trkpt lat="46.83823" lon="6.40728">
        <ele>1096.3</ele>
        <time>2021-08-14T11:33:24Z</time>
      </trkpt>
      <trkpt lat="46.83818" lon="6.40723">
        <ele>1096.2</ele>
        <time>2021-08-14T11:33:25Z</time>
      </trkpt>
      <trkpt lat="46.8381" lon="6.40712">
        <ele>1095.9</ele>
        <time>2021-08-14T11:33:27Z</time>
      </trkpt>
      <trkpt lat="46.83804" lon="6.407">
        <ele>1095.7</ele>
        <time>2021-08-14T11:33:29Z</time>
      </trkpt>
      <trkpt lat="46.83797" lon="6.40688">
        <ele>1095.5</ele>
        <time>2021-08-14T11:33:31Z</time>
      </trkpt>
      <trkpt lat="46.83792" lon="6.40674">
        <ele>1095.3</ele>
        <time>2021-08-14T11:33:33Z</time>
      </trkpt>
      <trkpt lat="46.83789" lon="6.4066">
        <ele>1095</ele>
        <time>2021-08-14T11:33:35Z</time>
      </trkpt>
      <trkpt lat="46.83789" lon="6.40654">
        <ele>1094.8</ele>
        <time>2021-08-14T11:33:36Z</time>
      </trkpt>
      <trkpt lat="46.83789" lon="6.4065">
        <ele>1094.6</ele>
        <time>2021-08-14T11:33:37Z</time>
      </trkpt>
      <trkpt lat="46.83794" lon="6.40639">
        <ele>1094.1</ele>
        <time>2021-08-14T11:33:39Z</time>
      </trkpt>
      <trkpt lat="46.83799" lon="6.40629">
        <ele>1093.7</ele>
        <time>2021-08-14T11:33:40Z</time>
      </trkpt>
      <trkpt lat="46.83805" lon="6.40618">
        <ele>1093.3</ele>
        <time>2021-08-14T11:33:41Z</time>
      </trkpt>
      <trkpt lat="46.8382" lon="6.40599">
        <ele>1092.6</ele>
        <time>2021-08-14T11:33:43Z</time>
      </trkpt>
      <trkpt lat="46.83849" lon="6.40553">
        <ele>1091.6</ele>
        <time>2021-08-14T11:33:44Z</time>
      </trkpt>
      <trkpt lat="46.83854" lon="6.40544">
        <ele>1091.5</ele>
        <time>2021-08-14T11:33:45Z</time>
      </trkpt>
      <trkpt lat="46.83858" lon="6.40535">
        <ele>1091.4</ele>
        <time>2021-08-14T11:33:46Z</time>
      </trkpt>
      <trkpt lat="46.83863" lon="6.40523">
        <ele>1091.3</ele>
        <time>2021-08-14T11:33:47Z</time>
      </trkpt>
      <trkpt lat="46.83871" lon="6.405">
        <ele>1091.1</ele>
        <time>2021-08-14T11:33:49Z</time>
      </trkpt>
      <trkpt lat="46.83881" lon="6.40479">
        <ele>1090.7</ele>
        <time>2021-08-14T11:33:51Z</time>
      </trkpt>
      <trkpt lat="46.83891" lon="6.40459">
        <ele>1090.2</ele>
        <time>2021-08-14T11:33:53Z</time>
      </trkpt>
      <trkpt lat="46.83895" lon="6.40449">
        <ele>1089.9</ele>
        <time>2021-08-14T11:33:54Z</time>
      </trkpt>
      <trkpt lat="46.83902" lon="6.40438">
        <ele>1089.5</ele>
        <time>2021-08-14T11:33:56Z</time>
      </trkpt>
      <trkpt lat="46.83907" lon="6.4043">
        <ele>1089.3</ele>
        <time>2021-08-14T11:33:57Z</time>
      </trkpt>
      <trkpt lat="46.83914" lon="6.40413">
        <ele>1089.1</ele>
        <time>2021-08-14T11:33:59Z</time>
      </trkpt>
      <trkpt lat="46.83916" lon="6.40404">
        <ele>1089</ele>
        <time>2021-08-14T11:34:00Z</time>
      </trkpt>
      <trkpt lat="46.83918" lon="6.40386">
        <ele>1088.9</ele>
        <time>2021-08-14T11:34:02Z</time>
      </trkpt>
      <trkpt lat="46.8392" lon="6.40378">
        <ele>1088.9</ele>
        <time>2021-08-14T11:34:03Z</time>
      </trkpt>
      <trkpt lat="46.83921" lon="6.40369">
        <ele>1088.9</ele>
        <time>2021-08-14T11:34:04Z</time>
      </trkpt>
      <trkpt lat="46.83924" lon="6.40354">
        <ele>1088.8</ele>
        <time>2021-08-14T11:34:06Z</time>
      </trkpt>
      <trkpt lat="46.83926" lon="6.40345">
        <ele>1088.7</ele>
        <time>2021-08-14T11:34:07Z</time>
      </trkpt>
      <trkpt lat="46.83929" lon="6.40329">
        <ele>1088.4</ele>
        <time>2021-08-14T11:34:09Z</time>
      </trkpt>
      <trkpt lat="46.83931" lon="6.40322">
        <ele>1088.3</ele>
        <time>2021-08-14T11:34:10Z</time>
      </trkpt>
      <trkpt lat="46.83932" lon="6.40314">
        <ele>1088.1</ele>
        <time>2021-08-14T11:34:11Z</time>
      </trkpt>
      <trkpt lat="46.83935" lon="6.40299">
        <ele>1087.8</ele>
        <time>2021-08-14T11:34:13Z</time>
      </trkpt>
      <trkpt lat="46.83937" lon="6.40282">
        <ele>1087.4</ele>
        <time>2021-08-14T11:34:15Z</time>
      </trkpt>
      <trkpt lat="46.83938" lon="6.40272">
        <ele>1087.2</ele>
        <time>2021-08-14T11:34:16Z</time>
      </trkpt>
      <trkpt lat="46.83941" lon="6.40255">
        <ele>1086.9</ele>
        <time>2021-08-14T11:34:18Z</time>
      </trkpt>
      <trkpt lat="46.83942" lon="6.40247">
        <ele>1086.8</ele>
        <time>2021-08-14T11:34:19Z</time>
      </trkpt>
      <trkpt lat="46.83944" lon="6.40229">
        <ele>1086.5</ele>
        <time>2021-08-14T11:34:21Z</time>
      </trkpt>
      <trkpt lat="46.83945" lon="6.40221">
        <ele>1086.3</ele>
        <time>2021-08-14T11:34:22Z</time>
      </trkpt>
      <trkpt lat="46.83949" lon="6.40208">
        <ele>1086.1</ele>
        <time>2021-08-14T11:34:24Z</time>
      </trkpt>
      <trkpt lat="46.83954" lon="6.40193">
        <ele>1085.8</ele>
        <time>2021-08-14T11:34:26Z</time>
      </trkpt>
      <trkpt lat="46.83961" lon="6.40175">
        <ele>1085.3</ele>
        <time>2021-08-14T11:34:28Z</time>
      </trkpt>
      <trkpt lat="46.83964" lon="6.40167">
        <ele>1085.1</ele>
        <time>2021-08-14T11:34:29Z</time>
      </trkpt>
      <trkpt lat="46.83967" lon="6.40157">
        <ele>1084.9</ele>
        <time>2021-08-14T11:34:30Z</time>
      </trkpt>
      <trkpt lat="46.83973" lon="6.40137">
        <ele>1084.4</ele>
        <time>2021-08-14T11:34:32Z</time>
      </trkpt>
      <trkpt lat="46.83974" lon="6.40128">
        <ele>1084.3</ele>
        <time>2021-08-14T11:34:33Z</time>
      </trkpt>
      <trkpt lat="46.83974" lon="6.4012">
        <ele>1084.1</ele>
        <time>2021-08-14T11:34:34Z</time>
      </trkpt>
      <trkpt lat="46.83976" lon="6.40103">
        <ele>1083.8</ele>
        <time>2021-08-14T11:34:36Z</time>
      </trkpt>
      <trkpt lat="46.83976" lon="6.40093">
        <ele>1083.7</ele>
        <time>2021-08-14T11:34:38Z</time>
      </trkpt>
      <trkpt lat="46.83972" lon="6.4009">
        <ele>1083.5</ele>
        <time>2021-08-14T11:34:39Z</time>
      </trkpt>
      <trkpt lat="46.83971" lon="6.40089">
        <ele>1083.5</ele>
        <time>2021-08-14T11:34:40Z</time>
      </trkpt>
      <trkpt lat="46.83965" lon="6.40086">
        <ele>1083.4</ele>
        <time>2021-08-14T11:34:41Z</time>
      </trkpt>
      <trkpt lat="46.83957" lon="6.40085">
        <ele>1083.2</ele>
        <time>2021-08-14T11:34:43Z</time>
      </trkpt>
      <trkpt lat="46.83952" lon="6.40087">
        <ele>1083.1</ele>
        <time>2021-08-14T11:34:44Z</time>
      </trkpt>
      <trkpt lat="46.83946" lon="6.40087">
        <ele>1083</ele>
        <time>2021-08-14T11:34:46Z</time>
      </trkpt>
      <trkpt lat="46.83942" lon="6.40088">
        <ele>1082.9</ele>
        <time>2021-08-14T11:34:47Z</time>
      </trkpt>
      <trkpt lat="46.83933" lon="6.40091">
        <ele>1082.8</ele>
        <time>2021-08-14T11:34:49Z</time>
      </trkpt>
      <trkpt lat="46.83925" lon="6.40094">
        <ele>1082.6</ele>
        <time>2021-08-14T11:34:50Z</time>
      </trkpt>
      <trkpt lat="46.8391" lon="6.40101">
        <ele>1082.4</ele>
        <time>2021-08-14T11:34:51Z</time>
      </trkpt>
      <trkpt lat="46.83904" lon="6.40103">
        <ele>1082.3</ele>
        <time>2021-08-14T11:34:52Z</time>
      </trkpt>
      <trkpt lat="46.83893" lon="6.40108">
        <ele>1082.2</ele>
        <time>2021-08-14T11:34:54Z</time>
      </trkpt>
      <trkpt lat="46.83884" lon="6.40111">
        <ele>1082.1</ele>
        <time>2021-08-14T11:34:56Z</time>
      </trkpt>
      <trkpt lat="46.83879" lon="6.40113">
        <ele>1082.1</ele>
        <time>2021-08-14T11:34:57Z</time>
      </trkpt>
      <trkpt lat="46.8387" lon="6.40116">
        <ele>1082.1</ele>
        <time>2021-08-14T11:34:59Z</time>
      </trkpt>
      <trkpt lat="46.83867" lon="6.40116">
        <ele>1082.1</ele>
        <time>2021-08-14T11:35:00Z</time>
      </trkpt>
      <trkpt lat="46.83859" lon="6.40119">
        <ele>1082</ele>
        <time>2021-08-14T11:35:02Z</time>
      </trkpt>
      <trkpt lat="46.83857" lon="6.40121">
        <ele>1082</ele>
        <time>2021-08-14T11:35:04Z</time>
      </trkpt>
      <trkpt lat="46.83857" lon="6.40122">
        <ele>1082</ele>
        <time>2021-08-14T11:35:05Z</time>
      </trkpt>
      <trkpt lat="46.83854" lon="6.40123">
        <ele>1082</ele>
        <time>2021-08-14T11:35:07Z</time>
      </trkpt>
      <trkpt lat="46.83853" lon="6.40124">
        <ele>1082</ele>
        <time>2021-08-14T11:35:08Z</time>
      </trkpt>
      <trkpt lat="46.83849" lon="6.40125">
        <ele>1082</ele>
        <time>2021-08-14T11:35:10Z</time>
      </trkpt>
      <trkpt lat="46.83844" lon="6.40127">
        <ele>1081.9</ele>
        <time>2021-08-14T11:35:11Z</time>
      </trkpt>
      <trkpt lat="46.8383" lon="6.40133">
        <ele>1081.8</ele>
        <time>2021-08-14T11:35:12Z</time>
      </trkpt>
      <trkpt lat="46.83816" lon="6.40137">
        <ele>1081.7</ele>
        <time>2021-08-14T11:35:14Z</time>
      </trkpt>
      <trkpt lat="46.83805" lon="6.40139">
        <ele>1081.5</ele>
        <time>2021-08-14T11:35:16Z</time>
      </trkpt>
      <trkpt lat="46.838" lon="6.4014">
        <ele>1081.5</ele>
        <time>2021-08-14T11:35:17Z</time>
      </trkpt>
      <trkpt lat="46.83795" lon="6.4014">
        <ele>1081.4</ele>
        <time>2021-08-14T11:35:18Z</time>
      </trkpt>
      <trkpt lat="46.83784" lon="6.40139">
        <ele>1081.4</ele>
        <time>2021-08-14T11:35:20Z</time>
      </trkpt>
      <trkpt lat="46.8378" lon="6.40139">
        <ele>1081.4</ele>
        <time>2021-08-14T11:35:21Z</time>
      </trkpt>
      <trkpt lat="46.83775" lon="6.40139">
        <ele>1081.4</ele>
        <time>2021-08-14T11:35:22Z</time>
      </trkpt>
      <trkpt lat="46.83765" lon="6.40137">
        <ele>1081.3</ele>
        <time>2021-08-14T11:35:24Z</time>
      </trkpt>
      <trkpt lat="46.83759" lon="6.40137">
        <ele>1081.3</ele>
        <time>2021-08-14T11:35:25Z</time>
      </trkpt>
      <trkpt lat="46.83754" lon="6.40137">
        <ele>1081.3</ele>
        <time>2021-08-14T11:35:26Z</time>
      </trkpt>
      <trkpt lat="46.83748" lon="6.40138">
        <ele>1081.3</ele>
        <time>2021-08-14T11:35:27Z</time>
      </trkpt>
      <trkpt lat="46.83744" lon="6.4014">
        <ele>1081.4</ele>
        <time>2021-08-14T11:35:28Z</time>
      </trkpt>
      <trkpt lat="46.83736" lon="6.40142">
        <ele>1081.4</ele>
        <time>2021-08-14T11:35:30Z</time>
      </trkpt>
      <trkpt lat="46.83732" lon="6.40142">
        <ele>1081.4</ele>
        <time>2021-08-14T11:35:31Z</time>
      </trkpt>
      <trkpt lat="46.83722" lon="6.40143">
        <ele>1081.5</ele>
        <time>2021-08-14T11:35:33Z</time>
      </trkpt>
      <trkpt lat="46.83716" lon="6.40145">
        <ele>1081.6</ele>
        <time>2021-08-14T11:35:34Z</time>
      </trkpt>
      <trkpt lat="46.8371" lon="6.40146">
        <ele>1081.6</ele>
        <time>2021-08-14T11:35:35Z</time>
      </trkpt>
      <trkpt lat="46.837" lon="6.40147">
        <ele>1081.7</ele>
        <time>2021-08-14T11:35:37Z</time>
      </trkpt>
      <trkpt lat="46.83691" lon="6.40149">
        <ele>1081.8</ele>
        <time>2021-08-14T11:35:39Z</time>
      </trkpt>
      <trkpt lat="46.83683" lon="6.40149">
        <ele>1081.8</ele>
        <time>2021-08-14T11:35:40Z</time>
      </trkpt>
      <trkpt lat="46.83674" lon="6.4015">
        <ele>1081.8</ele>
        <time>2021-08-14T11:35:42Z</time>
      </trkpt>
      <trkpt lat="46.83667" lon="6.40152">
        <ele>1081.8</ele>
        <time>2021-08-14T11:35:44Z</time>
      </trkpt>
      <trkpt lat="46.83663" lon="6.40153">
        <ele>1081.8</ele>
        <time>2021-08-14T11:35:45Z</time>
      </trkpt>
      <trkpt lat="46.83658" lon="6.40155">
        <ele>1081.8</ele>
        <time>2021-08-14T11:35:47Z</time>
      </trkpt>
      <trkpt lat="46.83655" lon="6.40157">
        <ele>1081.8</ele>
        <time>2021-08-14T11:35:48Z</time>
      </trkpt>
      <trkpt lat="46.83651" lon="6.40157">
        <ele>1081.9</ele>
        <time>2021-08-14T11:35:49Z</time>
      </trkpt>
      <trkpt lat="46.83648" lon="6.40158">
        <ele>1081.9</ele>
        <time>2021-08-14T11:35:50Z</time>
      </trkpt>
      <trkpt lat="46.83646" lon="6.40157">
        <ele>1081.9</ele>
        <time>2021-08-14T11:35:51Z</time>
      </trkpt>
      <trkpt lat="46.83648" lon="6.40158">
        <ele>1081.9</ele>
        <time>2021-08-14T11:35:52Z</time>
      </trkpt>
      <trkpt lat="46.83649" lon="6.40162">
        <ele>1082</ele>
        <time>2021-08-14T11:35:54Z</time>
      </trkpt>
      <trkpt lat="46.83648" lon="6.40164">
        <ele>1082</ele>
        <time>2021-08-14T11:35:55Z</time>
      </trkpt>
      <trkpt lat="46.83647" lon="6.40165">
        <ele>1082</ele>
        <time>2021-08-14T11:35:56Z</time>
      </trkpt>
      <trkpt lat="46.83644" lon="6.40166">
        <ele>1082</ele>
        <time>2021-08-14T11:35:57Z</time>
      </trkpt>
      <trkpt lat="46.8364" lon="6.40165">
        <ele>1082</ele>
        <time>2021-08-14T11:35:59Z</time>
      </trkpt>
      <trkpt lat="46.83637" lon="6.40162">
        <ele>1082.1</ele>
        <time>2021-08-14T11:36:00Z</time>
      </trkpt>
      <trkpt lat="46.83633" lon="6.40158">
        <ele>1082.1</ele>
        <time>2021-08-14T11:36:01Z</time>
      </trkpt>
      <trkpt lat="46.83627" lon="6.40151">
        <ele>1082.2</ele>
        <time>2021-08-14T11:36:02Z</time>
      </trkpt>
      <trkpt lat="46.83623" lon="6.40145">
        <ele>1082.2</ele>
        <time>2021-08-14T11:36:03Z</time>
      </trkpt>
      <trkpt lat="46.83619" lon="6.40135">
        <ele>1082.2</ele>
        <time>2021-08-14T11:36:05Z</time>
      </trkpt>
      <trkpt lat="46.83616" lon="6.40126">
        <ele>1082.1</ele>
        <time>2021-08-14T11:36:06Z</time>
      </trkpt>
      <trkpt lat="46.83614" lon="6.40117">
        <ele>1082</ele>
        <time>2021-08-14T11:36:07Z</time>
      </trkpt>
      <trkpt lat="46.83614" lon="6.401">
        <ele>1081.8</ele>
        <time>2021-08-14T11:36:08Z</time>
      </trkpt>
      <trkpt lat="46.83615" lon="6.40087">
        <ele>1081.7</ele>
        <time>2021-08-14T11:36:10Z</time>
      </trkpt>
      <trkpt lat="46.83617" lon="6.40081">
        <ele>1081.7</ele>
        <time>2021-08-14T11:36:11Z</time>
      </trkpt>
      <trkpt lat="46.83619" lon="6.40073">
        <ele>1081.6</ele>
        <time>2021-08-14T11:36:13Z</time>
      </trkpt>
      <trkpt lat="46.83621" lon="6.40066">
        <ele>1081.6</ele>
        <time>2021-08-14T11:36:14Z</time>
      </trkpt>
      <trkpt lat="46.83625" lon="6.4006">
        <ele>1081.6</ele>
        <time>2021-08-14T11:36:15Z</time>
      </trkpt>
      <trkpt lat="46.83627" lon="6.40059">
        <ele>1081.6</ele>
        <time>2021-08-14T11:36:16Z</time>
      </trkpt>
      <trkpt lat="46.83632" lon="6.40055">
        <ele>1081.6</ele>
        <time>2021-08-14T11:36:18Z</time>
      </trkpt>
      <trkpt lat="46.83635" lon="6.40049">
        <ele>1081.6</ele>
        <time>2021-08-14T11:36:19Z</time>
      </trkpt>
      <trkpt lat="46.83637" lon="6.4004">
        <ele>1081.6</ele>
        <time>2021-08-14T11:36:20Z</time>
      </trkpt>
      <trkpt lat="46.8364" lon="6.40032">
        <ele>1081.5</ele>
        <time>2021-08-14T11:36:21Z</time>
      </trkpt>
      <trkpt lat="46.83648" lon="6.40023">
        <ele>1081.4</ele>
        <time>2021-08-14T11:36:23Z</time>
      </trkpt>
      <trkpt lat="46.83655" lon="6.40014">
        <ele>1081.2</ele>
        <time>2021-08-14T11:36:24Z</time>
      </trkpt>
      <trkpt lat="46.8366" lon="6.40006">
        <ele>1081.1</ele>
        <time>2021-08-14T11:36:25Z</time>
      </trkpt>
      <trkpt lat="46.83662" lon="6.4">
        <ele>1081.1</ele>
        <time>2021-08-14T11:36:26Z</time>
      </trkpt>
      <trkpt lat="46.83663" lon="6.39993">
        <ele>1081</ele>
        <time>2021-08-14T11:36:28Z</time>
      </trkpt>
      <trkpt lat="46.83664" lon="6.39988">
        <ele>1081</ele>
        <time>2021-08-14T11:36:29Z</time>
      </trkpt>
      <trkpt lat="46.83667" lon="6.3998">
        <ele>1080.9</ele>
        <time>2021-08-14T11:36:30Z</time>
      </trkpt>
      <trkpt lat="46.8367" lon="6.3997">
        <ele>1080.9</ele>
        <time>2021-08-14T11:36:31Z</time>
      </trkpt>
      <trkpt lat="46.83674" lon="6.39958">
        <ele>1080.8</ele>
        <time>2021-08-14T11:36:33Z</time>
      </trkpt>
      <trkpt lat="46.83677" lon="6.39947">
        <ele>1080.8</ele>
        <time>2021-08-14T11:36:34Z</time>
      </trkpt>
      <trkpt lat="46.83678" lon="6.39939">
        <ele>1080.8</ele>
        <time>2021-08-14T11:36:36Z</time>
      </trkpt>
      <trkpt lat="46.83678" lon="6.39928">
        <ele>1080.6</ele>
        <time>2021-08-14T11:36:37Z</time>
      </trkpt>
      <trkpt lat="46.83679" lon="6.39925">
        <ele>1080.6</ele>
        <time>2021-08-14T11:36:38Z</time>
      </trkpt>
      <trkpt lat="46.83681" lon="6.39919">
        <ele>1080.5</ele>
        <time>2021-08-14T11:36:40Z</time>
      </trkpt>
      <trkpt lat="46.83681" lon="6.39914">
        <ele>1080.4</ele>
        <time>2021-08-14T11:36:41Z</time>
      </trkpt>
      <trkpt lat="46.83681" lon="6.39908">
        <ele>1080.4</ele>
        <time>2021-08-14T11:36:42Z</time>
      </trkpt>
      <trkpt lat="46.83677" lon="6.39902">
        <ele>1080.3</ele>
        <time>2021-08-14T11:36:43Z</time>
      </trkpt>
      <trkpt lat="46.83673" lon="6.39896">
        <ele>1080.1</ele>
        <time>2021-08-14T11:36:44Z</time>
      </trkpt>
      <trkpt lat="46.83669" lon="6.3989">
        <ele>1080</ele>
        <time>2021-08-14T11:36:45Z</time>
      </trkpt>
      <trkpt lat="46.83665" lon="6.39882">
        <ele>1079.9</ele>
        <time>2021-08-14T11:36:46Z</time>
      </trkpt>
      <trkpt lat="46.83662" lon="6.39876">
        <ele>1079.7</ele>
        <time>2021-08-14T11:36:47Z</time>
      </trkpt>
      <trkpt lat="46.83658" lon="6.39869">
        <ele>1079.6</ele>
        <time>2021-08-14T11:36:48Z</time>
      </trkpt>
      <trkpt lat="46.83655" lon="6.39863">
        <ele>1079.5</ele>
        <time>2021-08-14T11:36:49Z</time>
      </trkpt>
      <trkpt lat="46.83652" lon="6.39856">
        <ele>1079.4</ele>
        <time>2021-08-14T11:36:50Z</time>
      </trkpt>
      <trkpt lat="46.83649" lon="6.39852">
        <ele>1079.3</ele>
        <time>2021-08-14T11:36:51Z</time>
      </trkpt>
      <trkpt lat="46.83645" lon="6.39848">
        <ele>1079.3</ele>
        <time>2021-08-14T11:36:53Z</time>
      </trkpt>
      <trkpt lat="46.83643" lon="6.39846">
        <ele>1079.2</ele>
        <time>2021-08-14T11:36:54Z</time>
      </trkpt>
      <trkpt lat="46.8364" lon="6.39835">
        <ele>1079.1</ele>
        <time>2021-08-14T11:36:56Z</time>
      </trkpt>
      <trkpt lat="46.83637" lon="6.39827">
        <ele>1078.9</ele>
        <time>2021-08-14T11:36:57Z</time>
      </trkpt>
      <trkpt lat="46.83636" lon="6.39822">
        <ele>1078.9</ele>
        <time>2021-08-14T11:36:58Z</time>
      </trkpt>
      <trkpt lat="46.83637" lon="6.39815">
        <ele>1078.9</ele>
        <time>2021-08-14T11:37:00Z</time>
      </trkpt>
      <trkpt lat="46.83639" lon="6.39812">
        <ele>1078.9</ele>
        <time>2021-08-14T11:37:01Z</time>
      </trkpt>
      <trkpt lat="46.83648" lon="6.39807">
        <ele>1078.9</ele>
        <time>2021-08-14T11:37:03Z</time>
      </trkpt>
      <trkpt lat="46.83658" lon="6.39804">
        <ele>1078.8</ele>
        <time>2021-08-14T11:37:05Z</time>
      </trkpt>
      <trkpt lat="46.83667" lon="6.39804">
        <ele>1078.8</ele>
        <time>2021-08-14T11:37:06Z</time>
      </trkpt>
      <trkpt lat="46.83672" lon="6.39806">
        <ele>1078.8</ele>
        <time>2021-08-14T11:37:07Z</time>
      </trkpt>
      <trkpt lat="46.83674" lon="6.39807">
        <ele>1078.8</ele>
        <time>2021-08-14T11:37:08Z</time>
      </trkpt>
      <trkpt lat="46.83678" lon="6.39806">
        <ele>1078.7</ele>
        <time>2021-08-14T11:37:10Z</time>
      </trkpt>
      <trkpt lat="46.83684" lon="6.39804">
        <ele>1078.7</ele>
        <time>2021-08-14T11:37:11Z</time>
      </trkpt>
      <trkpt lat="46.83689" lon="6.39799">
        <ele>1078.7</ele>
        <time>2021-08-14T11:37:13Z</time>
      </trkpt>
      <trkpt lat="46.83693" lon="6.39797">
        <ele>1078.7</ele>
        <time>2021-08-14T11:37:14Z</time>
      </trkpt>
      <trkpt lat="46.83697" lon="6.39793">
        <ele>1078.7</ele>
        <time>2021-08-14T11:37:16Z</time>
      </trkpt>
      <trkpt lat="46.83699" lon="6.39789">
        <ele>1078.7</ele>
        <time>2021-08-14T11:37:17Z</time>
      </trkpt>
      <trkpt lat="46.837" lon="6.39788">
        <ele>1078.7</ele>
        <time>2021-08-14T11:37:18Z</time>
      </trkpt>
      <trkpt lat="46.83701" lon="6.39783">
        <ele>1078.7</ele>
        <time>2021-08-14T11:37:20Z</time>
      </trkpt>
      <trkpt lat="46.83703" lon="6.39777">
        <ele>1078.7</ele>
        <time>2021-08-14T11:37:21Z</time>
      </trkpt>
      <trkpt lat="46.83705" lon="6.39774">
        <ele>1078.7</ele>
        <time>2021-08-14T11:37:22Z</time>
      </trkpt>
      <trkpt lat="46.83709" lon="6.39771">
        <ele>1078.7</ele>
        <time>2021-08-14T11:37:24Z</time>
      </trkpt>
      <trkpt lat="46.83708" lon="6.39765">
        <ele>1078.7</ele>
        <time>2021-08-14T11:37:26Z</time>
      </trkpt>
      <trkpt lat="46.83709" lon="6.39761">
        <ele>1078.7</ele>
        <time>2021-08-14T11:37:27Z</time>
      </trkpt>
      <trkpt lat="46.8371" lon="6.39759">
        <ele>1078.7</ele>
        <time>2021-08-14T11:37:28Z</time>
      </trkpt>
      <trkpt lat="46.83711" lon="6.39758">
        <ele>1078.7</ele>
        <time>2021-08-14T11:37:29Z</time>
      </trkpt>
      <trkpt lat="46.83719" lon="6.39754">
        <ele>1078.7</ele>
        <time>2021-08-14T11:37:31Z</time>
      </trkpt>
      <trkpt lat="46.83729" lon="6.3975">
        <ele>1078.7</ele>
        <time>2021-08-14T11:37:33Z</time>
      </trkpt>
      <trkpt lat="46.83735" lon="6.39746">
        <ele>1078.7</ele>
        <time>2021-08-14T11:37:35Z</time>
      </trkpt>
      <trkpt lat="46.8374" lon="6.39743">
        <ele>1078.7</ele>
        <time>2021-08-14T11:37:36Z</time>
      </trkpt>
      <trkpt lat="46.83743" lon="6.39739">
        <ele>1078.7</ele>
        <time>2021-08-14T11:37:37Z</time>
      </trkpt>
      <trkpt lat="46.83746" lon="6.39737">
        <ele>1078.7</ele>
        <time>2021-08-14T11:37:38Z</time>
      </trkpt>
      <trkpt lat="46.8375" lon="6.39733">
        <ele>1078.7</ele>
        <time>2021-08-14T11:37:40Z</time>
      </trkpt>
      <trkpt lat="46.83754" lon="6.39729">
        <ele>1078.7</ele>
        <time>2021-08-14T11:37:41Z</time>
      </trkpt>
      <trkpt lat="46.8376" lon="6.39723">
        <ele>1078.8</ele>
        <time>2021-08-14T11:37:43Z</time>
      </trkpt>
      <trkpt lat="46.83767" lon="6.3972">
        <ele>1078.8</ele>
        <time>2021-08-14T11:37:45Z</time>
      </trkpt>
      <trkpt lat="46.8377" lon="6.39719">
        <ele>1078.8</ele>
        <time>2021-08-14T11:37:46Z</time>
      </trkpt>
      <trkpt lat="46.83776" lon="6.39716">
        <ele>1078.8</ele>
        <time>2021-08-14T11:37:48Z</time>
      </trkpt>
      <trkpt lat="46.83781" lon="6.39714">
        <ele>1078.8</ele>
        <time>2021-08-14T11:37:50Z</time>
      </trkpt>
      <trkpt lat="46.83782" lon="6.39712">
        <ele>1078.8</ele>
        <time>2021-08-14T11:37:51Z</time>
      </trkpt>
      <trkpt lat="46.83784" lon="6.3971">
        <ele>1078.8</ele>
        <time>2021-08-14T11:37:53Z</time>
      </trkpt>
      <trkpt lat="46.83784" lon="6.39708">
        <ele>1078.8</ele>
        <time>2021-08-14T11:37:55Z</time>
      </trkpt>
      <trkpt lat="46.83786" lon="6.39707">
        <ele>1078.8</ele>
        <time>2021-08-14T11:37:56Z</time>
      </trkpt>
      <trkpt lat="46.83788" lon="6.39704">
        <ele>1078.8</ele>
        <time>2021-08-14T11:37:57Z</time>
      </trkpt>
      <trkpt lat="46.83788" lon="6.39702">
        <ele>1078.8</ele>
        <time>2021-08-14T11:37:59Z</time>
      </trkpt>
      <trkpt lat="46.83787" lon="6.39702">
        <ele>1078.8</ele>
        <time>2021-08-14T11:38:00Z</time>
      </trkpt>
      <trkpt lat="46.83786" lon="6.39702">
        <ele>1078.8</ele>
        <time>2021-08-14T11:38:02Z</time>
      </trkpt>
      <trkpt lat="46.83785" lon="6.39703">
        <ele>1078.8</ele>
        <time>2021-08-14T11:38:03Z</time>
      </trkpt>
      <trkpt lat="46.83784" lon="6.39703">
        <ele>1078.8</ele>
        <time>2021-08-14T11:38:04Z</time>
      </trkpt>
      <trkpt lat="46.83782" lon="6.39706">
        <ele>1078.8</ele>
        <time>2021-08-14T11:38:06Z</time>
      </trkpt>
      <trkpt lat="46.83781" lon="6.39708">
        <ele>1078.8</ele>
        <time>2021-08-14T11:38:07Z</time>
      </trkpt>
      <trkpt lat="46.83772" lon="6.39714">
        <ele>1078.8</ele>
        <time>2021-08-14T11:38:08Z</time>
      </trkpt>
      <trkpt lat="46.8376" lon="6.39722">
        <ele>1078.8</ele>
        <time>2021-08-14T11:38:10Z</time>
      </trkpt>
      <trkpt lat="46.83754" lon="6.39727">
        <ele>1078.7</ele>
        <time>2021-08-14T11:38:11Z</time>
      </trkpt>
      <trkpt lat="46.83747" lon="6.39731">
        <ele>1078.7</ele>
        <time>2021-08-14T11:38:12Z</time>
      </trkpt>
      <trkpt lat="46.8374" lon="6.39735">
        <ele>1078.7</ele>
        <time>2021-08-14T11:38:14Z</time>
      </trkpt>
      <trkpt lat="46.83733" lon="6.3974">
        <ele>1078.7</ele>
        <time>2021-08-14T11:38:15Z</time>
      </trkpt>
      <trkpt lat="46.83729" lon="6.39745">
        <ele>1078.7</ele>
        <time>2021-08-14T11:38:16Z</time>
      </trkpt>
      <trkpt lat="46.8372" lon="6.3975">
        <ele>1078.7</ele>
        <time>2021-08-14T11:38:18Z</time>
      </trkpt>
      <trkpt lat="46.83713" lon="6.39755">
        <ele>1078.7</ele>
        <time>2021-08-14T11:38:20Z</time>
      </trkpt>
      <trkpt lat="46.83706" lon="6.39758">
        <ele>1078.7</ele>
        <time>2021-08-14T11:38:21Z</time>
      </trkpt>
      <trkpt lat="46.83702" lon="6.39759">
        <ele>1078.7</ele>
        <time>2021-08-14T11:38:22Z</time>
      </trkpt>
      <trkpt lat="46.83698" lon="6.39757">
        <ele>1078.7</ele>
        <time>2021-08-14T11:38:23Z</time>
      </trkpt>
      <trkpt lat="46.83695" lon="6.39754">
        <ele>1078.7</ele>
        <time>2021-08-14T11:38:24Z</time>
      </trkpt>
      <trkpt lat="46.8369" lon="6.39748">
        <ele>1079.9</ele>
        <time>2021-08-14T11:38:26Z</time>
      </trkpt>
      <trkpt lat="46.8369" lon="6.39738">
        <ele>1079.9</ele>
        <time>2021-08-14T11:38:28Z</time>
      </trkpt>
      <trkpt lat="46.8369" lon="6.39733">
        <ele>1079.9</ele>
        <time>2021-08-14T11:38:29Z</time>
      </trkpt>
      <trkpt lat="46.8369" lon="6.39724">
        <ele>1079.9</ele>
        <time>2021-08-14T11:38:31Z</time>
      </trkpt>
      <trkpt lat="46.83688" lon="6.39718">
        <ele>1079.9</ele>
        <time>2021-08-14T11:38:33Z</time>
      </trkpt>
      <trkpt lat="46.83687" lon="6.39714">
        <ele>1079.9</ele>
        <time>2021-08-14T11:38:34Z</time>
      </trkpt>
      <trkpt lat="46.83687" lon="6.39712">
        <ele>1079.9</ele>
        <time>2021-08-14T11:38:35Z</time>
      </trkpt>
      <trkpt lat="46.83688" lon="6.39711">
        <ele>1079.9</ele>
        <time>2021-08-14T11:38:37Z</time>
      </trkpt>
      <trkpt lat="46.83689" lon="6.3971">
        <ele>1079.9</ele>
        <time>2021-08-14T11:38:38Z</time>
      </trkpt>
      <trkpt lat="46.83689" lon="6.3971">
        <ele>1079.9</ele>
        <time>2021-08-14T11:38:40Z</time>
      </trkpt>
      <trkpt lat="46.83689" lon="6.39709">
        <ele>1079.9</ele>
        <time>2021-08-14T11:38:41Z</time>
      </trkpt>
      <trkpt lat="46.83689" lon="6.39709">
        <ele>1079.9</ele>
        <time>2021-08-14T11:38:43Z</time>
      </trkpt>
      <trkpt lat="46.83689" lon="6.39709">
        <ele>1079.9</ele>
        <time>2021-08-14T11:38:44Z</time>
      </trkpt>
      <trkpt lat="46.83698" lon="6.3974">
        <ele>1080.1</ele>
        <time>2021-08-14T11:39:58Z</time>
      </trkpt>
      <trkpt lat="46.8369" lon="6.39747">
        <ele>1080.2</ele>
        <time>2021-08-14T11:40:00Z</time>
      </trkpt>
      <trkpt lat="46.83684" lon="6.39752">
        <ele>1080.2</ele>
        <time>2021-08-14T11:40:01Z</time>
      </trkpt>
      <trkpt lat="46.83679" lon="6.39756">
        <ele>1080.2</ele>
        <time>2021-08-14T11:40:02Z</time>
      </trkpt>
      <trkpt lat="46.83674" lon="6.39762">
        <ele>1080.3</ele>
        <time>2021-08-14T11:40:04Z</time>
      </trkpt>
      <trkpt lat="46.83669" lon="6.39767">
        <ele>1080.3</ele>
        <time>2021-08-14T11:40:05Z</time>
      </trkpt>
      <trkpt lat="46.83666" lon="6.3977">
        <ele>1080.4</ele>
        <time>2021-08-14T11:40:06Z</time>
      </trkpt>
      <trkpt lat="46.83663" lon="6.39773">
        <ele>1080.4</ele>
        <time>2021-08-14T11:40:07Z</time>
      </trkpt>
      <trkpt lat="46.8366" lon="6.39778">
        <ele>1080.4</ele>
        <time>2021-08-14T11:40:09Z</time>
      </trkpt>
      <trkpt lat="46.83656" lon="6.39781">
        <ele>1080.4</ele>
        <time>2021-08-14T11:40:10Z</time>
      </trkpt>
      <trkpt lat="46.83652" lon="6.39784">
        <ele>1080.4</ele>
        <time>2021-08-14T11:40:12Z</time>
      </trkpt>
      <trkpt lat="46.83649" lon="6.39785">
        <ele>1080.4</ele>
        <time>2021-08-14T11:40:13Z</time>
      </trkpt>
      <trkpt lat="46.83645" lon="6.39786">
        <ele>1080.4</ele>
        <time>2021-08-14T11:40:14Z</time>
      </trkpt>
      <trkpt lat="46.83642" lon="6.39787">
        <ele>1080.5</ele>
        <time>2021-08-14T11:40:15Z</time>
      </trkpt>
      <trkpt lat="46.8364" lon="6.39789">
        <ele>1080.5</ele>
        <time>2021-08-14T11:40:16Z</time>
      </trkpt>
      <trkpt lat="46.83638" lon="6.39794">
        <ele>1080.5</ele>
        <time>2021-08-14T11:40:17Z</time>
      </trkpt>
      <trkpt lat="46.83635" lon="6.398">
        <ele>1080.6</ele>
        <time>2021-08-14T11:40:19Z</time>
      </trkpt>
      <trkpt lat="46.83634" lon="6.39803">
        <ele>1080.6</ele>
        <time>2021-08-14T11:40:20Z</time>
      </trkpt>
      <trkpt lat="46.83631" lon="6.39808">
        <ele>1080.6</ele>
        <time>2021-08-14T11:40:21Z</time>
      </trkpt>
      <trkpt lat="46.83628" lon="6.39812">
        <ele>1080.7</ele>
        <time>2021-08-14T11:40:22Z</time>
      </trkpt>
      <trkpt lat="46.83627" lon="6.39814">
        <ele>1080.7</ele>
        <time>2021-08-14T11:40:23Z</time>
      </trkpt>
      <trkpt lat="46.83624" lon="6.39818">
        <ele>1080.7</ele>
        <time>2021-08-14T11:40:24Z</time>
      </trkpt>
      <trkpt lat="46.83621" lon="6.39824">
        <ele>1080.8</ele>
        <time>2021-08-14T11:40:26Z</time>
      </trkpt>
      <trkpt lat="46.83619" lon="6.39827">
        <ele>1080.9</ele>
        <time>2021-08-14T11:40:27Z</time>
      </trkpt>
      <trkpt lat="46.83616" lon="6.39835">
        <ele>1081</ele>
        <time>2021-08-14T11:40:29Z</time>
      </trkpt>
      <trkpt lat="46.83615" lon="6.39839">
        <ele>1081</ele>
        <time>2021-08-14T11:40:30Z</time>
      </trkpt>
      <trkpt lat="46.83613" lon="6.39843">
        <ele>1081.1</ele>
        <time>2021-08-14T11:40:31Z</time>
      </trkpt>
      <trkpt lat="46.83613" lon="6.39844">
        <ele>1081.1</ele>
        <time>2021-08-14T11:40:32Z</time>
      </trkpt>
      <trkpt lat="46.83611" lon="6.3985">
        <ele>1081.1</ele>
        <time>2021-08-14T11:40:34Z</time>
      </trkpt>
      <trkpt lat="46.8361" lon="6.39853">
        <ele>1081.2</ele>
        <time>2021-08-14T11:40:35Z</time>
      </trkpt>
      <trkpt lat="46.83608" lon="6.39857">
        <ele>1081.2</ele>
        <time>2021-08-14T11:40:37Z</time>
      </trkpt>
      <trkpt lat="46.83605" lon="6.3986">
        <ele>1081.3</ele>
        <time>2021-08-14T11:40:38Z</time>
      </trkpt>
      <trkpt lat="46.83603" lon="6.39862">
        <ele>1081.3</ele>
        <time>2021-08-14T11:40:39Z</time>
      </trkpt>
      <trkpt lat="46.836" lon="6.39865">
        <ele>1081.4</ele>
        <time>2021-08-14T11:40:40Z</time>
      </trkpt>
      <trkpt lat="46.83597" lon="6.39868">
        <ele>1081.5</ele>
        <time>2021-08-14T11:40:41Z</time>
      </trkpt>
      <trkpt lat="46.83595" lon="6.3987">
        <ele>1081.5</ele>
        <time>2021-08-14T11:40:42Z</time>
      </trkpt>
      <trkpt lat="46.83591" lon="6.39872">
        <ele>1081.6</ele>
        <time>2021-08-14T11:40:44Z</time>
      </trkpt>
      <trkpt lat="46.83588" lon="6.39875">
        <ele>1081.7</ele>
        <time>2021-08-14T11:40:45Z</time>
      </trkpt>
      <trkpt lat="46.83586" lon="6.39876">
        <ele>1081.7</ele>
        <time>2021-08-14T11:40:46Z</time>
      </trkpt>
      <trkpt lat="46.83584" lon="6.39879">
        <ele>1081.8</ele>
        <time>2021-08-14T11:40:47Z</time>
      </trkpt>
      <trkpt lat="46.83581" lon="6.39882">
        <ele>1081.9</ele>
        <time>2021-08-14T11:40:49Z</time>
      </trkpt>
      <trkpt lat="46.83579" lon="6.39886">
        <ele>1082</ele>
        <time>2021-08-14T11:40:50Z</time>
      </trkpt>
      <trkpt lat="46.83577" lon="6.39889">
        <ele>1082</ele>
        <time>2021-08-14T11:40:51Z</time>
      </trkpt>
      <trkpt lat="46.83574" lon="6.39892">
        <ele>1082.1</ele>
        <time>2021-08-14T11:40:53Z</time>
      </trkpt>
      <trkpt lat="46.83571" lon="6.39896">
        <ele>1082.2</ele>
        <time>2021-08-14T11:40:54Z</time>
      </trkpt>
      <trkpt lat="46.83569" lon="6.39899">
        <ele>1082.3</ele>
        <time>2021-08-14T11:40:55Z</time>
      </trkpt>
      <trkpt lat="46.83567" lon="6.39902">
        <ele>1082.4</ele>
        <time>2021-08-14T11:40:56Z</time>
      </trkpt>
      <trkpt lat="46.83566" lon="6.39906">
        <ele>1082.5</ele>
        <time>2021-08-14T11:40:57Z</time>
      </trkpt>
      <trkpt lat="46.83565" lon="6.3991">
        <ele>1082.5</ele>
        <time>2021-08-14T11:40:58Z</time>
      </trkpt>
      <trkpt lat="46.83564" lon="6.39914">
        <ele>1082.6</ele>
        <time>2021-08-14T11:40:59Z</time>
      </trkpt>
      <trkpt lat="46.83564" lon="6.39917">
        <ele>1082.7</ele>
        <time>2021-08-14T11:41:01Z</time>
      </trkpt>
      <trkpt lat="46.83564" lon="6.3992">
        <ele>1082.7</ele>
        <time>2021-08-14T11:41:02Z</time>
      </trkpt>
      <trkpt lat="46.83563" lon="6.39921">
        <ele>1082.7</ele>
        <time>2021-08-14T11:41:03Z</time>
      </trkpt>
      <trkpt lat="46.83563" lon="6.39923">
        <ele>1082.8</ele>
        <time>2021-08-14T11:41:04Z</time>
      </trkpt>
      <trkpt lat="46.83561" lon="6.39928">
        <ele>1082.8</ele>
        <time>2021-08-14T11:41:05Z</time>
      </trkpt>
      <trkpt lat="46.83561" lon="6.3993">
        <ele>1082.9</ele>
        <time>2021-08-14T11:41:06Z</time>
      </trkpt>
      <trkpt lat="46.8356" lon="6.39935">
        <ele>1082.9</ele>
        <time>2021-08-14T11:41:08Z</time>
      </trkpt>
      <trkpt lat="46.83559" lon="6.39942">
        <ele>1083</ele>
        <time>2021-08-14T11:41:09Z</time>
      </trkpt>
      <trkpt lat="46.83559" lon="6.39947">
        <ele>1083</ele>
        <time>2021-08-14T11:41:10Z</time>
      </trkpt>
      <trkpt lat="46.83559" lon="6.39953">
        <ele>1082.8</ele>
        <time>2021-08-14T11:41:12Z</time>
      </trkpt>
      <trkpt lat="46.83559" lon="6.39958">
        <ele>1082.2</ele>
        <time>2021-08-14T11:41:13Z</time>
      </trkpt>
      <trkpt lat="46.83559" lon="6.39963">
        <ele>1080.5</ele>
        <time>2021-08-14T11:41:14Z</time>
      </trkpt>
      <trkpt lat="46.8356" lon="6.39969">
        <ele>1080.5</ele>
        <time>2021-08-14T11:41:15Z</time>
      </trkpt>
      <trkpt lat="46.83559" lon="6.39973">
        <ele>1080.6</ele>
        <time>2021-08-14T11:41:16Z</time>
      </trkpt>
      <trkpt lat="46.83558" lon="6.39977">
        <ele>1080.6</ele>
        <time>2021-08-14T11:41:17Z</time>
      </trkpt>
      <trkpt lat="46.83556" lon="6.39981">
        <ele>1080.6</ele>
        <time>2021-08-14T11:41:18Z</time>
      </trkpt>
      <trkpt lat="46.83555" lon="6.39982">
        <ele>1080.6</ele>
        <time>2021-08-14T11:41:19Z</time>
      </trkpt>
      <trkpt lat="46.83553" lon="6.39988">
        <ele>1080.7</ele>
        <time>2021-08-14T11:41:20Z</time>
      </trkpt>
      <trkpt lat="46.83553" lon="6.39989">
        <ele>1080.7</ele>
        <time>2021-08-14T11:41:21Z</time>
      </trkpt>
      <trkpt lat="46.83551" lon="6.39993">
        <ele>1080.8</ele>
        <time>2021-08-14T11:41:22Z</time>
      </trkpt>
      <trkpt lat="46.8355" lon="6.39994">
        <ele>1080.8</ele>
        <time>2021-08-14T11:41:23Z</time>
      </trkpt>
      <trkpt lat="46.83549" lon="6.39996">
        <ele>1080.8</ele>
        <time>2021-08-14T11:41:24Z</time>
      </trkpt>
      <trkpt lat="46.83546" lon="6.39999">
        <ele>1080.9</ele>
        <time>2021-08-14T11:41:26Z</time>
      </trkpt>
      <trkpt lat="46.83543" lon="6.40002">
        <ele>1081</ele>
        <time>2021-08-14T11:41:27Z</time>
      </trkpt>
      <trkpt lat="46.83539" lon="6.40004">
        <ele>1081</ele>
        <time>2021-08-14T11:41:28Z</time>
      </trkpt>
      <trkpt lat="46.83536" lon="6.40007">
        <ele>1081.1</ele>
        <time>2021-08-14T11:41:29Z</time>
      </trkpt>
      <trkpt lat="46.83533" lon="6.4001">
        <ele>1081.2</ele>
        <time>2021-08-14T11:41:30Z</time>
      </trkpt>
      <trkpt lat="46.83531" lon="6.40014">
        <ele>1081.2</ele>
        <time>2021-08-14T11:41:31Z</time>
      </trkpt>
      <trkpt lat="46.83528" lon="6.40017">
        <ele>1081.3</ele>
        <time>2021-08-14T11:41:33Z</time>
      </trkpt>
      <trkpt lat="46.83526" lon="6.4002">
        <ele>1081.3</ele>
        <time>2021-08-14T11:41:34Z</time>
      </trkpt>
      <trkpt lat="46.83524" lon="6.40023">
        <ele>1081.4</ele>
        <time>2021-08-14T11:41:35Z</time>
      </trkpt>
      <trkpt lat="46.83523" lon="6.40027">
        <ele>1081.4</ele>
        <time>2021-08-14T11:41:36Z</time>
      </trkpt>
      <trkpt lat="46.83522" lon="6.4003">
        <ele>1081.4</ele>
        <time>2021-08-14T11:41:37Z</time>
      </trkpt>
      <trkpt lat="46.8352" lon="6.4003">
        <ele>1081.4</ele>
        <time>2021-08-14T11:41:38Z</time>
      </trkpt>
      <trkpt lat="46.83518" lon="6.40035">
        <ele>1081.5</ele>
        <time>2021-08-14T11:41:39Z</time>
      </trkpt>
      <trkpt lat="46.83517" lon="6.40037">
        <ele>1081.5</ele>
        <time>2021-08-14T11:41:40Z</time>
      </trkpt>
      <trkpt lat="46.83517" lon="6.40042">
        <ele>1081.5</ele>
        <time>2021-08-14T11:41:41Z</time>
      </trkpt>
      <trkpt lat="46.83517" lon="6.40046">
        <ele>1081.6</ele>
        <time>2021-08-14T11:41:42Z</time>
      </trkpt>
      <trkpt lat="46.83513" lon="6.4005">
        <ele>1081.6</ele>
        <time>2021-08-14T11:41:44Z</time>
      </trkpt>
      <trkpt lat="46.83511" lon="6.40054">
        <ele>1081.7</ele>
        <time>2021-08-14T11:41:45Z</time>
      </trkpt>
      <trkpt lat="46.8351" lon="6.40057">
        <ele>1081.7</ele>
        <time>2021-08-14T11:41:46Z</time>
      </trkpt>
      <trkpt lat="46.83507" lon="6.40063">
        <ele>1081.8</ele>
        <time>2021-08-14T11:41:48Z</time>
      </trkpt>
      <trkpt lat="46.83506" lon="6.40067">
        <ele>1081.8</ele>
        <time>2021-08-14T11:41:50Z</time>
      </trkpt>
      <trkpt lat="46.83504" lon="6.4007">
        <ele>1081.9</ele>
        <time>2021-08-14T11:41:51Z</time>
      </trkpt>
      <trkpt lat="46.83502" lon="6.40075">
        <ele>1081.9</ele>
        <time>2021-08-14T11:41:52Z</time>
      </trkpt>
      <trkpt lat="46.83501" lon="6.40076">
        <ele>1082</ele>
        <time>2021-08-14T11:41:53Z</time>
      </trkpt>
      <trkpt lat="46.835" lon="6.40081">
        <ele>1082</ele>
        <time>2021-08-14T11:41:54Z</time>
      </trkpt>
      <trkpt lat="46.835" lon="6.40083">
        <ele>1082.1</ele>
        <time>2021-08-14T11:41:55Z</time>
      </trkpt>
      <trkpt lat="46.83499" lon="6.40087">
        <ele>1082.1</ele>
        <time>2021-08-14T11:41:56Z</time>
      </trkpt>
      <trkpt lat="46.83499" lon="6.40096">
        <ele>1082.2</ele>
        <time>2021-08-14T11:41:58Z</time>
      </trkpt>
      <trkpt lat="46.835" lon="6.40105">
        <ele>1082.4</ele>
        <time>2021-08-14T11:42:00Z</time>
      </trkpt>
      <trkpt lat="46.835" lon="6.40109">
        <ele>1082.4</ele>
        <time>2021-08-14T11:42:01Z</time>
      </trkpt>
      <trkpt lat="46.835" lon="6.40114">
        <ele>1082.5</ele>
        <time>2021-08-14T11:42:03Z</time>
      </trkpt>
      <trkpt lat="46.835" lon="6.40119">
        <ele>1082.5</ele>
        <time>2021-08-14T11:42:04Z</time>
      </trkpt>
      <trkpt lat="46.83498" lon="6.40124">
        <ele>1082.5</ele>
        <time>2021-08-14T11:42:05Z</time>
      </trkpt>
      <trkpt lat="46.83497" lon="6.40132">
        <ele>1082.6</ele>
        <time>2021-08-14T11:42:07Z</time>
      </trkpt>
      <trkpt lat="46.83499" lon="6.40136">
        <ele>1082.6</ele>
        <time>2021-08-14T11:42:08Z</time>
      </trkpt>
      <trkpt lat="46.83499" lon="6.40138">
        <ele>1082.6</ele>
        <time>2021-08-14T11:42:09Z</time>
      </trkpt>
      <trkpt lat="46.83501" lon="6.40141">
        <ele>1082.6</ele>
        <time>2021-08-14T11:42:11Z</time>
      </trkpt>
      <trkpt lat="46.835" lon="6.4014">
        <ele>1082.6</ele>
        <time>2021-08-14T11:42:12Z</time>
      </trkpt>
      <trkpt lat="46.835" lon="6.40137">
        <ele>1082.6</ele>
        <time>2021-08-14T11:42:14Z</time>
      </trkpt>
      <trkpt lat="46.83501" lon="6.40135">
        <ele>1082.6</ele>
        <time>2021-08-14T11:42:15Z</time>
      </trkpt>
      <trkpt lat="46.83501" lon="6.40134">
        <ele>1082.6</ele>
        <time>2021-08-14T11:42:16Z</time>
      </trkpt>
      <trkpt lat="46.83502" lon="6.40131">
        <ele>1082.6</ele>
        <time>2021-08-14T11:42:18Z</time>
      </trkpt>
      <trkpt lat="46.83501" lon="6.40125">
        <ele>1082.7</ele>
        <time>2021-08-14T11:42:19Z</time>
      </trkpt>
      <trkpt lat="46.83499" lon="6.40122">
        <ele>1082.9</ele>
        <time>2021-08-14T11:42:21Z</time>
      </trkpt>
      <trkpt lat="46.83498" lon="6.40118">
        <ele>1083</ele>
        <time>2021-08-14T11:42:26Z</time>
      </trkpt>
      <trkpt lat="46.83496" lon="6.40115">
        <ele>1083.1</ele>
        <time>2021-08-14T11:42:27Z</time>
      </trkpt>
      <trkpt lat="46.83491" lon="6.4011">
        <ele>1083.3</ele>
        <time>2021-08-14T11:42:28Z</time>
      </trkpt>
      <trkpt lat="46.83484" lon="6.40105">
        <ele>1083.3</ele>
        <time>2021-08-14T11:42:29Z</time>
      </trkpt>
      <trkpt lat="46.83478" lon="6.401">
        <ele>1083.4</ele>
        <time>2021-08-14T11:42:31Z</time>
      </trkpt>
      <trkpt lat="46.83473" lon="6.40096">
        <ele>1083.5</ele>
        <time>2021-08-14T11:42:32Z</time>
      </trkpt>
      <trkpt lat="46.83467" lon="6.4009">
        <ele>1083.6</ele>
        <time>2021-08-14T11:42:33Z</time>
      </trkpt>
      <trkpt lat="46.83463" lon="6.40088">
        <ele>1083.7</ele>
        <time>2021-08-14T11:42:34Z</time>
      </trkpt>
      <trkpt lat="46.83458" lon="6.40084">
        <ele>1083.9</ele>
        <time>2021-08-14T11:42:36Z</time>
      </trkpt>
      <trkpt lat="46.83455" lon="6.40079">
        <ele>1084</ele>
        <time>2021-08-14T11:42:37Z</time>
      </trkpt>
      <trkpt lat="46.83452" lon="6.40072">
        <ele>1084.4</ele>
        <time>2021-08-14T11:42:39Z</time>
      </trkpt>
      <trkpt lat="46.83449" lon="6.40068">
        <ele>1084.6</ele>
        <time>2021-08-14T11:42:41Z</time>
      </trkpt>
      <trkpt lat="46.83447" lon="6.40065">
        <ele>1084.7</ele>
        <time>2021-08-14T11:42:42Z</time>
      </trkpt>
      <trkpt lat="46.83449" lon="6.4006">
        <ele>1084.9</ele>
        <time>2021-08-14T11:42:44Z</time>
      </trkpt>
      <trkpt lat="46.8345" lon="6.40059">
        <ele>1085</ele>
        <time>2021-08-14T11:42:45Z</time>
      </trkpt>
      <trkpt lat="46.83452" lon="6.40054">
        <ele>1085.2</ele>
        <time>2021-08-14T11:42:47Z</time>
      </trkpt>
      <trkpt lat="46.83452" lon="6.40051">
        <ele>1085.3</ele>
        <time>2021-08-14T11:42:49Z</time>
      </trkpt>
      <trkpt lat="46.83452" lon="6.40049">
        <ele>1085.4</ele>
        <time>2021-08-14T11:42:50Z</time>
      </trkpt>
      <trkpt lat="46.83453" lon="6.40047">
        <ele>1085.5</ele>
        <time>2021-08-14T11:42:51Z</time>
      </trkpt>
      <trkpt lat="46.83451" lon="6.40042">
        <ele>1085.6</ele>
        <time>2021-08-14T11:42:52Z</time>
      </trkpt>
      <trkpt lat="46.8345" lon="6.40041">
        <ele>1085.7</ele>
        <time>2021-08-14T11:42:53Z</time>
      </trkpt>
      <trkpt lat="46.8345" lon="6.40035">
        <ele>1085.8</ele>
        <time>2021-08-14T11:42:54Z</time>
      </trkpt>
      <trkpt lat="46.83451" lon="6.40033">
        <ele>1085.9</ele>
        <time>2021-08-14T11:42:55Z</time>
      </trkpt>
      <trkpt lat="46.83452" lon="6.4003">
        <ele>1086</ele>
        <time>2021-08-14T11:42:56Z</time>
      </trkpt>
      <trkpt lat="46.83453" lon="6.40025">
        <ele>1086.1</ele>
        <time>2021-08-14T11:42:57Z</time>
      </trkpt>
      <trkpt lat="46.83453" lon="6.40022">
        <ele>1086.2</ele>
        <time>2021-08-14T11:42:58Z</time>
      </trkpt>
      <trkpt lat="46.83453" lon="6.40015">
        <ele>1086.4</ele>
        <time>2021-08-14T11:43:00Z</time>
      </trkpt>
      <trkpt lat="46.83453" lon="6.40011">
        <ele>1086.5</ele>
        <time>2021-08-14T11:43:01Z</time>
      </trkpt>
      <trkpt lat="46.83454" lon="6.40003">
        <ele>1086.7</ele>
        <time>2021-08-14T11:43:03Z</time>
      </trkpt>
      <trkpt lat="46.83454" lon="6.39999">
        <ele>1086.8</ele>
        <time>2021-08-14T11:43:05Z</time>
      </trkpt>
      <trkpt lat="46.83454" lon="6.39995">
        <ele>1086.9</ele>
        <time>2021-08-14T11:43:06Z</time>
      </trkpt>
      <trkpt lat="46.83452" lon="6.39991">
        <ele>1087</ele>
        <time>2021-08-14T11:43:07Z</time>
      </trkpt>
      <trkpt lat="46.83451" lon="6.3999">
        <ele>1087</ele>
        <time>2021-08-14T11:43:08Z</time>
      </trkpt>
      <trkpt lat="46.83449" lon="6.39985">
        <ele>1087.2</ele>
        <time>2021-08-14T11:43:10Z</time>
      </trkpt>
      <trkpt lat="46.83448" lon="6.39982">
        <ele>1087.2</ele>
        <time>2021-08-14T11:43:11Z</time>
      </trkpt>
      <trkpt lat="46.83448" lon="6.39976">
        <ele>1087.3</ele>
        <time>2021-08-14T11:43:13Z</time>
      </trkpt>
      <trkpt lat="46.83448" lon="6.39971">
        <ele>1087.4</ele>
        <time>2021-08-14T11:43:14Z</time>
      </trkpt>
      <trkpt lat="46.83448" lon="6.39966">
        <ele>1087.5</ele>
        <time>2021-08-14T11:43:15Z</time>
      </trkpt>
      <trkpt lat="46.83448" lon="6.39959">
        <ele>1087.6</ele>
        <time>2021-08-14T11:43:17Z</time>
      </trkpt>
      <trkpt lat="46.83447" lon="6.39951">
        <ele>1087.8</ele>
        <time>2021-08-14T11:43:18Z</time>
      </trkpt>
      <trkpt lat="46.83444" lon="6.39944">
        <ele>1087.9</ele>
        <time>2021-08-14T11:43:20Z</time>
      </trkpt>
      <trkpt lat="46.83441" lon="6.39936">
        <ele>1088</ele>
        <time>2021-08-14T11:43:22Z</time>
      </trkpt>
      <trkpt lat="46.83437" lon="6.39929">
        <ele>1088.1</ele>
        <time>2021-08-14T11:43:24Z</time>
      </trkpt>
      <trkpt lat="46.83432" lon="6.39925">
        <ele>1088.2</ele>
        <time>2021-08-14T11:43:25Z</time>
      </trkpt>
      <trkpt lat="46.8343" lon="6.39923">
        <ele>1088.3</ele>
        <time>2021-08-14T11:43:26Z</time>
      </trkpt>
      <trkpt lat="46.83427" lon="6.39921">
        <ele>1088.4</ele>
        <time>2021-08-14T11:43:27Z</time>
      </trkpt>
      <trkpt lat="46.83423" lon="6.39918">
        <ele>1088.5</ele>
        <time>2021-08-14T11:43:29Z</time>
      </trkpt>
      <trkpt lat="46.83421" lon="6.39915">
        <ele>1088.6</ele>
        <time>2021-08-14T11:43:30Z</time>
      </trkpt>
      <trkpt lat="46.83419" lon="6.39908">
        <ele>1088.7</ele>
        <time>2021-08-14T11:43:32Z</time>
      </trkpt>
      <trkpt lat="46.83418" lon="6.39904">
        <ele>1088.8</ele>
        <time>2021-08-14T11:43:33Z</time>
      </trkpt>
      <trkpt lat="46.83417" lon="6.39896">
        <ele>1089</ele>
        <time>2021-08-14T11:43:35Z</time>
      </trkpt>
      <trkpt lat="46.83417" lon="6.39888">
        <ele>1089.2</ele>
        <time>2021-08-14T11:43:37Z</time>
      </trkpt>
      <trkpt lat="46.83417" lon="6.39882">
        <ele>1089.3</ele>
        <time>2021-08-14T11:43:38Z</time>
      </trkpt>
      <trkpt lat="46.83416" lon="6.39878">
        <ele>1089.4</ele>
        <time>2021-08-14T11:43:40Z</time>
      </trkpt>
      <trkpt lat="46.83415" lon="6.39873">
        <ele>1089.5</ele>
        <time>2021-08-14T11:43:41Z</time>
      </trkpt>
      <trkpt lat="46.83414" lon="6.3987">
        <ele>1089.6</ele>
        <time>2021-08-14T11:43:42Z</time>
      </trkpt>
      <trkpt lat="46.83413" lon="6.39866">
        <ele>1089.7</ele>
        <time>2021-08-14T11:43:44Z</time>
      </trkpt>
      <trkpt lat="46.8341" lon="6.39863">
        <ele>1089.7</ele>
        <time>2021-08-14T11:43:45Z</time>
      </trkpt>
      <trkpt lat="46.83408" lon="6.39862">
        <ele>1089.8</ele>
        <time>2021-08-14T11:43:46Z</time>
      </trkpt>
      <trkpt lat="46.83407" lon="6.39861">
        <ele>1089.9</ele>
        <time>2021-08-14T11:43:47Z</time>
      </trkpt>
      <trkpt lat="46.83405" lon="6.39858">
        <ele>1089.9</ele>
        <time>2021-08-14T11:43:48Z</time>
      </trkpt>
      <trkpt lat="46.83403" lon="6.39855">
        <ele>1090</ele>
        <time>2021-08-14T11:43:49Z</time>
      </trkpt>
      <trkpt lat="46.83401" lon="6.39853">
        <ele>1090.1</ele>
        <time>2021-08-14T11:43:50Z</time>
      </trkpt>
      <trkpt lat="46.83399" lon="6.3985">
        <ele>1090.2</ele>
        <time>2021-08-14T11:43:51Z</time>
      </trkpt>
      <trkpt lat="46.83397" lon="6.39846">
        <ele>1090.2</ele>
        <time>2021-08-14T11:43:52Z</time>
      </trkpt>
      <trkpt lat="46.83395" lon="6.39841">
        <ele>1090.3</ele>
        <time>2021-08-14T11:43:53Z</time>
      </trkpt>
      <trkpt lat="46.83391" lon="6.39835">
        <ele>1090.3</ele>
        <time>2021-08-14T11:43:55Z</time>
      </trkpt>
      <trkpt lat="46.83387" lon="6.39831">
        <ele>1090.3</ele>
        <time>2021-08-14T11:43:56Z</time>
      </trkpt>
      <trkpt lat="46.83382" lon="6.39827">
        <ele>1090.2</ele>
        <time>2021-08-14T11:43:57Z</time>
      </trkpt>
      <trkpt lat="46.83379" lon="6.39825">
        <ele>1090.1</ele>
        <time>2021-08-14T11:43:58Z</time>
      </trkpt>
      <trkpt lat="46.83374" lon="6.39823">
        <ele>1090</ele>
        <time>2021-08-14T11:43:59Z</time>
      </trkpt>
      <trkpt lat="46.83368" lon="6.39821">
        <ele>1089.9</ele>
        <time>2021-08-14T11:44:01Z</time>
      </trkpt>
      <trkpt lat="46.83362" lon="6.39817">
        <ele>1089.7</ele>
        <time>2021-08-14T11:44:02Z</time>
      </trkpt>
      <trkpt lat="46.83358" lon="6.39815">
        <ele>1089.5</ele>
        <time>2021-08-14T11:44:03Z</time>
      </trkpt>
      <trkpt lat="46.83352" lon="6.39811">
        <ele>1089.3</ele>
        <time>2021-08-14T11:44:05Z</time>
      </trkpt>
      <trkpt lat="46.83346" lon="6.39806">
        <ele>1089</ele>
        <time>2021-08-14T11:44:06Z</time>
      </trkpt>
      <trkpt lat="46.83341" lon="6.398">
        <ele>1088.8</ele>
        <time>2021-08-14T11:44:08Z</time>
      </trkpt>
      <trkpt lat="46.83336" lon="6.39793">
        <ele>1088.5</ele>
        <time>2021-08-14T11:44:09Z</time>
      </trkpt>
      <trkpt lat="46.83326" lon="6.39788">
        <ele>1088</ele>
        <time>2021-08-14T11:44:11Z</time>
      </trkpt>
      <trkpt lat="46.83313" lon="6.39784">
        <ele>1087.3</ele>
        <time>2021-08-14T11:44:13Z</time>
      </trkpt>
      <trkpt lat="46.83306" lon="6.39781">
        <ele>1087</ele>
        <time>2021-08-14T11:44:14Z</time>
      </trkpt>
      <trkpt lat="46.833" lon="6.39778">
        <ele>1086.7</ele>
        <time>2021-08-14T11:44:15Z</time>
      </trkpt>
      <trkpt lat="46.83294" lon="6.39774">
        <ele>1086.4</ele>
        <time>2021-08-14T11:44:16Z</time>
      </trkpt>
      <trkpt lat="46.83288" lon="6.39769">
        <ele>1086.2</ele>
        <time>2021-08-14T11:44:17Z</time>
      </trkpt>
      <trkpt lat="46.83279" lon="6.39759">
        <ele>1085.8</ele>
        <time>2021-08-14T11:44:19Z</time>
      </trkpt>
      <trkpt lat="46.8327" lon="6.39745">
        <ele>1085.5</ele>
        <time>2021-08-14T11:44:21Z</time>
      </trkpt>
      <trkpt lat="46.83264" lon="6.39737">
        <ele>1085.3</ele>
        <time>2021-08-14T11:44:22Z</time>
      </trkpt>
      <trkpt lat="46.83254" lon="6.39722">
        <ele>1085</ele>
        <time>2021-08-14T11:44:24Z</time>
      </trkpt>
      <trkpt lat="46.83249" lon="6.39713">
        <ele>1084.9</ele>
        <time>2021-08-14T11:44:25Z</time>
      </trkpt>
      <trkpt lat="46.83238" lon="6.39696">
        <ele>1084.8</ele>
        <time>2021-08-14T11:44:27Z</time>
      </trkpt>
      <trkpt lat="46.8323" lon="6.39682">
        <ele>1084.9</ele>
        <time>2021-08-14T11:44:29Z</time>
      </trkpt>
      <trkpt lat="46.83222" lon="6.39669">
        <ele>1085</ele>
        <time>2021-08-14T11:44:31Z</time>
      </trkpt>
      <trkpt lat="46.83213" lon="6.39657">
        <ele>1085.4</ele>
        <time>2021-08-14T11:44:33Z</time>
      </trkpt>
      <trkpt lat="46.83208" lon="6.39651">
        <ele>1085.6</ele>
        <time>2021-08-14T11:44:34Z</time>
      </trkpt>
      <trkpt lat="46.83196" lon="6.3964">
        <ele>1086</ele>
        <time>2021-08-14T11:44:36Z</time>
      </trkpt>
      <trkpt lat="46.83193" lon="6.39628">
        <ele>1086.1</ele>
        <time>2021-08-14T11:44:38Z</time>
      </trkpt>
      <trkpt lat="46.83194" lon="6.39621">
        <ele>1086.2</ele>
        <time>2021-08-14T11:44:40Z</time>
      </trkpt>
      <trkpt lat="46.83195" lon="6.39616">
        <ele>1086.2</ele>
        <time>2021-08-14T11:44:41Z</time>
      </trkpt>
      <trkpt lat="46.83195" lon="6.39614">
        <ele>1086.2</ele>
        <time>2021-08-14T11:44:42Z</time>
      </trkpt>
      <trkpt lat="46.83193" lon="6.39603">
        <ele>1086.3</ele>
        <time>2021-08-14T11:44:44Z</time>
      </trkpt>
      <trkpt lat="46.83191" lon="6.39594">
        <ele>1086.4</ele>
        <time>2021-08-14T11:44:46Z</time>
      </trkpt>
      <trkpt lat="46.83186" lon="6.39589">
        <ele>1086.4</ele>
        <time>2021-08-14T11:44:48Z</time>
      </trkpt>
      <trkpt lat="46.83184" lon="6.39585">
        <ele>1086.5</ele>
        <time>2021-08-14T11:44:49Z</time>
      </trkpt>
      <trkpt lat="46.83178" lon="6.39573">
        <ele>1086.5</ele>
        <time>2021-08-14T11:44:50Z</time>
      </trkpt>
      <trkpt lat="46.8317" lon="6.39562">
        <ele>1086.6</ele>
        <time>2021-08-14T11:44:52Z</time>
      </trkpt>
      <trkpt lat="46.83167" lon="6.39558">
        <ele>1086.7</ele>
        <time>2021-08-14T11:44:54Z</time>
      </trkpt>
      <trkpt lat="46.83165" lon="6.39555">
        <ele>1086.7</ele>
        <time>2021-08-14T11:44:55Z</time>
      </trkpt>
      <trkpt lat="46.83164" lon="6.3955">
        <ele>1086.7</ele>
        <time>2021-08-14T11:44:56Z</time>
      </trkpt>
      <trkpt lat="46.83162" lon="6.39545">
        <ele>1086.7</ele>
        <time>2021-08-14T11:44:57Z</time>
      </trkpt>
      <trkpt lat="46.83161" lon="6.3954">
        <ele>1086.7</ele>
        <time>2021-08-14T11:44:58Z</time>
      </trkpt>
      <trkpt lat="46.83158" lon="6.39534">
        <ele>1086.7</ele>
        <time>2021-08-14T11:44:59Z</time>
      </trkpt>
      <trkpt lat="46.83156" lon="6.39529">
        <ele>1086.8</ele>
        <time>2021-08-14T11:45:00Z</time>
      </trkpt>
      <trkpt lat="46.83154" lon="6.39524">
        <ele>1086.8</ele>
        <time>2021-08-14T11:45:01Z</time>
      </trkpt>
      <trkpt lat="46.83152" lon="6.39519">
        <ele>1086.8</ele>
        <time>2021-08-14T11:45:02Z</time>
      </trkpt>
      <trkpt lat="46.83151" lon="6.39514">
        <ele>1086.9</ele>
        <time>2021-08-14T11:45:03Z</time>
      </trkpt>
      <trkpt lat="46.83148" lon="6.39507">
        <ele>1086.9</ele>
        <time>2021-08-14T11:45:05Z</time>
      </trkpt>
      <trkpt lat="46.83145" lon="6.39503">
        <ele>1086.9</ele>
        <time>2021-08-14T11:45:06Z</time>
      </trkpt>
      <trkpt lat="46.83142" lon="6.39498">
        <ele>1086.9</ele>
        <time>2021-08-14T11:45:07Z</time>
      </trkpt>
      <trkpt lat="46.83138" lon="6.39494">
        <ele>1086.8</ele>
        <time>2021-08-14T11:45:08Z</time>
      </trkpt>
      <trkpt lat="46.83134" lon="6.39489">
        <ele>1086.8</ele>
        <time>2021-08-14T11:45:09Z</time>
      </trkpt>
      <trkpt lat="46.83131" lon="6.39484">
        <ele>1086.8</ele>
        <time>2021-08-14T11:45:10Z</time>
      </trkpt>
      <trkpt lat="46.83125" lon="6.39477">
        <ele>1086.7</ele>
        <time>2021-08-14T11:45:11Z</time>
      </trkpt>
      <trkpt lat="46.83121" lon="6.39472">
        <ele>1086.7</ele>
        <time>2021-08-14T11:45:12Z</time>
      </trkpt>
      <trkpt lat="46.83118" lon="6.39466">
        <ele>1086.6</ele>
        <time>2021-08-14T11:45:14Z</time>
      </trkpt>
      <trkpt lat="46.83113" lon="6.3946">
        <ele>1086.5</ele>
        <time>2021-08-14T11:45:15Z</time>
      </trkpt>
      <trkpt lat="46.83108" lon="6.39454">
        <ele>1086.5</ele>
        <time>2021-08-14T11:45:16Z</time>
      </trkpt>
      <trkpt lat="46.83105" lon="6.3945">
        <ele>1086.5</ele>
        <time>2021-08-14T11:45:17Z</time>
      </trkpt>
      <trkpt lat="46.831" lon="6.39444">
        <ele>1086.4</ele>
        <time>2021-08-14T11:45:19Z</time>
      </trkpt>
      <trkpt lat="46.83096" lon="6.39436">
        <ele>1086.3</ele>
        <time>2021-08-14T11:45:20Z</time>
      </trkpt>
      <trkpt lat="46.83092" lon="6.39429">
        <ele>1086.3</ele>
        <time>2021-08-14T11:45:22Z</time>
      </trkpt>
      <trkpt lat="46.83088" lon="6.39423">
        <ele>1086.2</ele>
        <time>2021-08-14T11:45:23Z</time>
      </trkpt>
      <trkpt lat="46.83085" lon="6.39414">
        <ele>1086.2</ele>
        <time>2021-08-14T11:45:24Z</time>
      </trkpt>
      <trkpt lat="46.8308" lon="6.39402">
        <ele>1086.1</ele>
        <time>2021-08-14T11:45:26Z</time>
      </trkpt>
      <trkpt lat="46.83078" lon="6.39397">
        <ele>1086.1</ele>
        <time>2021-08-14T11:45:27Z</time>
      </trkpt>
      <trkpt lat="46.83076" lon="6.39392">
        <ele>1086.1</ele>
        <time>2021-08-14T11:45:28Z</time>
      </trkpt>
      <trkpt lat="46.83073" lon="6.39382">
        <ele>1086.1</ele>
        <time>2021-08-14T11:45:30Z</time>
      </trkpt>
      <trkpt lat="46.83071" lon="6.39376">
        <ele>1086.2</ele>
        <time>2021-08-14T11:45:31Z</time>
      </trkpt>
      <trkpt lat="46.83068" lon="6.39376">
        <ele>1086.2</ele>
        <time>2021-08-14T11:45:33Z</time>
      </trkpt>
      <trkpt lat="46.83067" lon="6.39369">
        <ele>1086.3</ele>
        <time>2021-08-14T11:45:34Z</time>
      </trkpt>
      <trkpt lat="46.83066" lon="6.39363">
        <ele>1086.3</ele>
        <time>2021-08-14T11:45:35Z</time>
      </trkpt>
      <trkpt lat="46.83065" lon="6.39357">
        <ele>1086.4</ele>
        <time>2021-08-14T11:45:36Z</time>
      </trkpt>
      <trkpt lat="46.83063" lon="6.39351">
        <ele>1086.4</ele>
        <time>2021-08-14T11:45:38Z</time>
      </trkpt>
      <trkpt lat="46.83059" lon="6.39347">
        <ele>1086.5</ele>
        <time>2021-08-14T11:45:39Z</time>
      </trkpt>
      <trkpt lat="46.83056" lon="6.39344">
        <ele>1086.5</ele>
        <time>2021-08-14T11:45:40Z</time>
      </trkpt>
      <trkpt lat="46.8305" lon="6.3934">
        <ele>1086.6</ele>
        <time>2021-08-14T11:45:41Z</time>
      </trkpt>
      <trkpt lat="46.83046" lon="6.39337">
        <ele>1086.6</ele>
        <time>2021-08-14T11:45:43Z</time>
      </trkpt>
      <trkpt lat="46.83042" lon="6.39336">
        <ele>1086.6</ele>
        <time>2021-08-14T11:45:44Z</time>
      </trkpt>
      <trkpt lat="46.83036" lon="6.39334">
        <ele>1086.6</ele>
        <time>2021-08-14T11:45:45Z</time>
      </trkpt>
      <trkpt lat="46.83033" lon="6.39332">
        <ele>1086.7</ele>
        <time>2021-08-14T11:45:46Z</time>
      </trkpt>
      <trkpt lat="46.83029" lon="6.39329">
        <ele>1086.7</ele>
        <time>2021-08-14T11:45:48Z</time>
      </trkpt>
      <trkpt lat="46.83025" lon="6.39327">
        <ele>1086.8</ele>
        <time>2021-08-14T11:45:49Z</time>
      </trkpt>
      <trkpt lat="46.83021" lon="6.39326">
        <ele>1086.8</ele>
        <time>2021-08-14T11:45:50Z</time>
      </trkpt>
      <trkpt lat="46.83017" lon="6.39324">
        <ele>1086.9</ele>
        <time>2021-08-14T11:45:51Z</time>
      </trkpt>
      <trkpt lat="46.83014" lon="6.39323">
        <ele>1086.9</ele>
        <time>2021-08-14T11:45:52Z</time>
      </trkpt>
      <trkpt lat="46.83011" lon="6.3932">
        <ele>1086.9</ele>
        <time>2021-08-14T11:45:54Z</time>
      </trkpt>
      <trkpt lat="46.83008" lon="6.39318">
        <ele>1087</ele>
        <time>2021-08-14T11:45:55Z</time>
      </trkpt>
      <trkpt lat="46.83004" lon="6.39316">
        <ele>1087</ele>
        <time>2021-08-14T11:45:56Z</time>
      </trkpt>
      <trkpt lat="46.83" lon="6.39314">
        <ele>1087</ele>
        <time>2021-08-14T11:45:57Z</time>
      </trkpt>
      <trkpt lat="46.82995" lon="6.39311">
        <ele>1087.1</ele>
        <time>2021-08-14T11:45:58Z</time>
      </trkpt>
      <trkpt lat="46.8299" lon="6.39308">
        <ele>1087.1</ele>
        <time>2021-08-14T11:45:59Z</time>
      </trkpt>
      <trkpt lat="46.82985" lon="6.39305">
        <ele>1087.1</ele>
        <time>2021-08-14T11:46:00Z</time>
      </trkpt>
      <trkpt lat="46.8298" lon="6.39299">
        <ele>1087.2</ele>
        <time>2021-08-14T11:46:02Z</time>
      </trkpt>
      <trkpt lat="46.82976" lon="6.39296">
        <ele>1087.2</ele>
        <time>2021-08-14T11:46:03Z</time>
      </trkpt>
      <trkpt lat="46.82972" lon="6.39292">
        <ele>1087.2</ele>
        <time>2021-08-14T11:46:04Z</time>
      </trkpt>
      <trkpt lat="46.8297" lon="6.39287">
        <ele>1087.3</ele>
        <time>2021-08-14T11:46:06Z</time>
      </trkpt>
      <trkpt lat="46.82968" lon="6.39283">
        <ele>1087.3</ele>
        <time>2021-08-14T11:46:07Z</time>
      </trkpt>
      <trkpt lat="46.82965" lon="6.39278">
        <ele>1087.4</ele>
        <time>2021-08-14T11:46:08Z</time>
      </trkpt>
      <trkpt lat="46.82963" lon="6.39271">
        <ele>1087.4</ele>
        <time>2021-08-14T11:46:10Z</time>
      </trkpt>
      <trkpt lat="46.8296" lon="6.39268">
        <ele>1087.5</ele>
        <time>2021-08-14T11:46:11Z</time>
      </trkpt>
      <trkpt lat="46.82957" lon="6.39267">
        <ele>1087.5</ele>
        <time>2021-08-14T11:46:12Z</time>
      </trkpt>
      <trkpt lat="46.82953" lon="6.39263">
        <ele>1087.5</ele>
        <time>2021-08-14T11:46:14Z</time>
      </trkpt>
      <trkpt lat="46.82953" lon="6.39258">
        <ele>1087.5</ele>
        <time>2021-08-14T11:46:15Z</time>
      </trkpt>
      <trkpt lat="46.82953" lon="6.39251">
        <ele>1087.5</ele>
        <time>2021-08-14T11:46:16Z</time>
      </trkpt>
      <trkpt lat="46.82955" lon="6.39237">
        <ele>1087.5</ele>
        <time>2021-08-14T11:46:18Z</time>
      </trkpt>
      <trkpt lat="46.82956" lon="6.39231">
        <ele>1087.6</ele>
        <time>2021-08-14T11:46:19Z</time>
      </trkpt>
      <trkpt lat="46.82958" lon="6.3922">
        <ele>1087.6</ele>
        <time>2021-08-14T11:46:21Z</time>
      </trkpt>
      <trkpt lat="46.82955" lon="6.3921">
        <ele>1087.7</ele>
        <time>2021-08-14T11:46:23Z</time>
      </trkpt>
      <trkpt lat="46.82952" lon="6.39205">
        <ele>1087.7</ele>
        <time>2021-08-14T11:46:24Z</time>
      </trkpt>
      <trkpt lat="46.82949" lon="6.39198">
        <ele>1087.8</ele>
        <time>2021-08-14T11:46:26Z</time>
      </trkpt>
      <trkpt lat="46.82947" lon="6.39194">
        <ele>1087.9</ele>
        <time>2021-08-14T11:46:27Z</time>
      </trkpt>
      <trkpt lat="46.82945" lon="6.3919">
        <ele>1087.9</ele>
        <time>2021-08-14T11:46:28Z</time>
      </trkpt>
      <trkpt lat="46.82944" lon="6.39185">
        <ele>1088</ele>
        <time>2021-08-14T11:46:29Z</time>
      </trkpt>
      <trkpt lat="46.82944" lon="6.39181">
        <ele>1088</ele>
        <time>2021-08-14T11:46:30Z</time>
      </trkpt>
      <trkpt lat="46.82945" lon="6.39175">
        <ele>1088.1</ele>
        <time>2021-08-14T11:46:32Z</time>
      </trkpt>
      <trkpt lat="46.82947" lon="6.39172">
        <ele>1088.1</ele>
        <time>2021-08-14T11:46:33Z</time>
      </trkpt>
      <trkpt lat="46.8295" lon="6.39167">
        <ele>1088.2</ele>
        <time>2021-08-14T11:46:34Z</time>
      </trkpt>
      <trkpt lat="46.82952" lon="6.39162">
        <ele>1088.3</ele>
        <time>2021-08-14T11:46:35Z</time>
      </trkpt>
      <trkpt lat="46.82953" lon="6.3916">
        <ele>1088.3</ele>
        <time>2021-08-14T11:46:36Z</time>
      </trkpt>
      <trkpt lat="46.82955" lon="6.39155">
        <ele>1088.4</ele>
        <time>2021-08-14T11:46:38Z</time>
      </trkpt>
      <trkpt lat="46.82958" lon="6.3915">
        <ele>1088.5</ele>
        <time>2021-08-14T11:46:39Z</time>
      </trkpt>
      <trkpt lat="46.82959" lon="6.39145">
        <ele>1088.5</ele>
        <time>2021-08-14T11:46:40Z</time>
      </trkpt>
      <trkpt lat="46.82961" lon="6.39142">
        <ele>1088.6</ele>
        <time>2021-08-14T11:46:41Z</time>
      </trkpt>
      <trkpt lat="46.82962" lon="6.39138">
        <ele>1088.7</ele>
        <time>2021-08-14T11:46:42Z</time>
      </trkpt>
      <trkpt lat="46.82963" lon="6.39131">
        <ele>1088.8</ele>
        <time>2021-08-14T11:46:44Z</time>
      </trkpt>
      <trkpt lat="46.82965" lon="6.39125">
        <ele>1088.8</ele>
        <time>2021-08-14T11:46:46Z</time>
      </trkpt>
      <trkpt lat="46.82966" lon="6.39119">
        <ele>1088.9</ele>
        <time>2021-08-14T11:46:47Z</time>
      </trkpt>
      <trkpt lat="46.82966" lon="6.39114">
        <ele>1089</ele>
        <time>2021-08-14T11:46:48Z</time>
      </trkpt>
      <trkpt lat="46.82966" lon="6.39112">
        <ele>1089</ele>
        <time>2021-08-14T11:46:49Z</time>
      </trkpt>
      <trkpt lat="46.82965" lon="6.39105">
        <ele>1089.1</ele>
        <time>2021-08-14T11:46:51Z</time>
      </trkpt>
      <trkpt lat="46.82966" lon="6.39103">
        <ele>1089.1</ele>
        <time>2021-08-14T11:46:52Z</time>
      </trkpt>
      <trkpt lat="46.82967" lon="6.39102">
        <ele>1089.2</ele>
        <time>2021-08-14T11:46:53Z</time>
      </trkpt>
      <trkpt lat="46.82967" lon="6.39101">
        <ele>1089.2</ele>
        <time>2021-08-14T11:46:54Z</time>
      </trkpt>
      <trkpt lat="46.82968" lon="6.391">
        <ele>1089.2</ele>
        <time>2021-08-14T11:46:56Z</time>
      </trkpt>
      <trkpt lat="46.82968" lon="6.391">
        <ele>1089.2</ele>
        <time>2021-08-14T11:46:57Z</time>
      </trkpt>
      <trkpt lat="46.82969" lon="6.39099">
        <ele>1089.2</ele>
        <time>2021-08-14T11:46:59Z</time>
      </trkpt>
      <trkpt lat="46.82969" lon="6.39099">
        <ele>1089.2</ele>
        <time>2021-08-14T11:47:00Z</time>
      </trkpt>
      <trkpt lat="46.8297" lon="6.39099">
        <ele>1089.2</ele>
        <time>2021-08-14T11:47:01Z</time>
      </trkpt>
      <trkpt lat="46.8297" lon="6.39099">
        <ele>1089.2</ele>
        <time>2021-08-14T11:47:02Z</time>
      </trkpt>
      <trkpt lat="46.82947" lon="6.39118">
        <ele>1089.7</ele>
        <time>2021-08-14T11:47:30Z</time>
      </trkpt>
      <trkpt lat="46.82942" lon="6.39118">
        <ele>1089.7</ele>
        <time>2021-08-14T11:47:32Z</time>
      </trkpt>
      <trkpt lat="46.82942" lon="6.39118">
        <ele>1089.7</ele>
        <time>2021-08-14T11:47:34Z</time>
      </trkpt>
      <trkpt lat="46.82944" lon="6.39116">
        <ele>1089.8</ele>
        <time>2021-08-14T11:47:36Z</time>
      </trkpt>
      <trkpt lat="46.82948" lon="6.39116">
        <ele>1089.8</ele>
        <time>2021-08-14T11:47:38Z</time>
      </trkpt>
      <trkpt lat="46.82949" lon="6.39115">
        <ele>1089.9</ele>
        <time>2021-08-14T11:47:39Z</time>
      </trkpt>
      <trkpt lat="46.8295" lon="6.39115">
        <ele>1089.9</ele>
        <time>2021-08-14T11:47:40Z</time>
      </trkpt>
      <trkpt lat="46.82954" lon="6.39115">
        <ele>1089.9</ele>
        <time>2021-08-14T11:47:42Z</time>
      </trkpt>
      <trkpt lat="46.82957" lon="6.39116">
        <ele>1090</ele>
        <time>2021-08-14T11:47:44Z</time>
      </trkpt>
      <trkpt lat="46.82957" lon="6.39116">
        <ele>1090</ele>
        <time>2021-08-14T11:47:45Z</time>
      </trkpt>
      <trkpt lat="46.8296" lon="6.39117">
        <ele>1090</ele>
        <time>2021-08-14T11:47:47Z</time>
      </trkpt>
      <trkpt lat="46.82961" lon="6.39118">
        <ele>1090</ele>
        <time>2021-08-14T11:47:49Z</time>
      </trkpt>
      <trkpt lat="46.82962" lon="6.39115">
        <ele>1090.1</ele>
        <time>2021-08-14T11:47:50Z</time>
      </trkpt>
      <trkpt lat="46.82963" lon="6.39112">
        <ele>1090.1</ele>
        <time>2021-08-14T11:47:51Z</time>
      </trkpt>
      <trkpt lat="46.82964" lon="6.39109">
        <ele>1090.1</ele>
        <time>2021-08-14T11:47:53Z</time>
      </trkpt>
      <trkpt lat="46.82965" lon="6.39105">
        <ele>1090.2</ele>
        <time>2021-08-14T11:47:54Z</time>
      </trkpt>
      <trkpt lat="46.82966" lon="6.39102">
        <ele>1090.2</ele>
        <time>2021-08-14T11:47:56Z</time>
      </trkpt>
      <trkpt lat="46.82967" lon="6.39099">
        <ele>1090.2</ele>
        <time>2021-08-14T11:48:18Z</time>
      </trkpt>
      <trkpt lat="46.82967" lon="6.39096">
        <ele>1090.2</ele>
        <time>2021-08-14T11:48:19Z</time>
      </trkpt>
      <trkpt lat="46.82968" lon="6.39087">
        <ele>1090.3</ele>
        <time>2021-08-14T11:48:21Z</time>
      </trkpt>
      <trkpt lat="46.82969" lon="6.3908">
        <ele>1090.4</ele>
        <time>2021-08-14T11:48:22Z</time>
      </trkpt>
      <trkpt lat="46.82969" lon="6.39073">
        <ele>1090.5</ele>
        <time>2021-08-14T11:48:23Z</time>
      </trkpt>
      <trkpt lat="46.82973" lon="6.39065">
        <ele>1090.5</ele>
        <time>2021-08-14T11:48:25Z</time>
      </trkpt>
      <trkpt lat="46.82978" lon="6.39057">
        <ele>1090.6</ele>
        <time>2021-08-14T11:48:27Z</time>
      </trkpt>
      <trkpt lat="46.82982" lon="6.39049">
        <ele>1090.7</ele>
        <time>2021-08-14T11:48:29Z</time>
      </trkpt>
      <trkpt lat="46.82985" lon="6.39044">
        <ele>1090.8</ele>
        <time>2021-08-14T11:48:30Z</time>
      </trkpt>
      <trkpt lat="46.82987" lon="6.39038">
        <ele>1090.8</ele>
        <time>2021-08-14T11:48:32Z</time>
      </trkpt>
      <trkpt lat="46.82989" lon="6.39032">
        <ele>1090.9</ele>
        <time>2021-08-14T11:48:33Z</time>
      </trkpt>
      <trkpt lat="46.8299" lon="6.39027">
        <ele>1090.9</ele>
        <time>2021-08-14T11:48:34Z</time>
      </trkpt>
      <trkpt lat="46.82992" lon="6.39021">
        <ele>1090.9</ele>
        <time>2021-08-14T11:48:36Z</time>
      </trkpt>
      <trkpt lat="46.82993" lon="6.39014">
        <ele>1090.9</ele>
        <time>2021-08-14T11:48:37Z</time>
      </trkpt>
      <trkpt lat="46.82995" lon="6.39006">
        <ele>1090.9</ele>
        <time>2021-08-14T11:48:39Z</time>
      </trkpt>
      <trkpt lat="46.82999" lon="6.38999">
        <ele>1090.9</ele>
        <time>2021-08-14T11:48:40Z</time>
      </trkpt>
      <trkpt lat="46.83001" lon="6.38993">
        <ele>1090.9</ele>
        <time>2021-08-14T11:48:41Z</time>
      </trkpt>
      <trkpt lat="46.83006" lon="6.38985">
        <ele>1090.9</ele>
        <time>2021-08-14T11:48:43Z</time>
      </trkpt>
      <trkpt lat="46.83009" lon="6.38977">
        <ele>1091</ele>
        <time>2021-08-14T11:48:44Z</time>
      </trkpt>
      <trkpt lat="46.83012" lon="6.38967">
        <ele>1091.1</ele>
        <time>2021-08-14T11:48:46Z</time>
      </trkpt>
      <trkpt lat="46.83013" lon="6.38962">
        <ele>1091.2</ele>
        <time>2021-08-14T11:48:47Z</time>
      </trkpt>
      <trkpt lat="46.83014" lon="6.38958">
        <ele>1091.3</ele>
        <time>2021-08-14T11:48:48Z</time>
      </trkpt>
      <trkpt lat="46.83014" lon="6.38953">
        <ele>1091.3</ele>
        <time>2021-08-14T11:48:50Z</time>
      </trkpt>
      <trkpt lat="46.83015" lon="6.38948">
        <ele>1091.4</ele>
        <time>2021-08-14T11:48:51Z</time>
      </trkpt>
      <trkpt lat="46.83015" lon="6.38943">
        <ele>1091.4</ele>
        <time>2021-08-14T11:48:52Z</time>
      </trkpt>
      <trkpt lat="46.83015" lon="6.3894">
        <ele>1091.4</ele>
        <time>2021-08-14T11:48:53Z</time>
      </trkpt>
      <trkpt lat="46.83015" lon="6.38937">
        <ele>1091.4</ele>
        <time>2021-08-14T11:48:54Z</time>
      </trkpt>
      <trkpt lat="46.83013" lon="6.38929">
        <ele>1091.4</ele>
        <time>2021-08-14T11:48:56Z</time>
      </trkpt>
      <trkpt lat="46.83012" lon="6.38924">
        <ele>1091.3</ele>
        <time>2021-08-14T11:48:57Z</time>
      </trkpt>
      <trkpt lat="46.83011" lon="6.3892">
        <ele>1091.3</ele>
        <time>2021-08-14T11:48:58Z</time>
      </trkpt>
      <trkpt lat="46.8301" lon="6.38914">
        <ele>1091.1</ele>
        <time>2021-08-14T11:49:00Z</time>
      </trkpt>
      <trkpt lat="46.8301" lon="6.38908">
        <ele>1091</ele>
        <time>2021-08-14T11:49:01Z</time>
      </trkpt>
      <trkpt lat="46.83011" lon="6.38902">
        <ele>1090.7</ele>
        <time>2021-08-14T11:49:02Z</time>
      </trkpt>
      <trkpt lat="46.83017" lon="6.38894">
        <ele>1090.3</ele>
        <time>2021-08-14T11:49:03Z</time>
      </trkpt>
      <trkpt lat="46.83026" lon="6.3888">
        <ele>1089.8</ele>
        <time>2021-08-14T11:49:05Z</time>
      </trkpt>
      <trkpt lat="46.8303" lon="6.38873">
        <ele>1089.6</ele>
        <time>2021-08-14T11:49:06Z</time>
      </trkpt>
      <trkpt lat="46.83033" lon="6.38867">
        <ele>1089.5</ele>
        <time>2021-08-14T11:49:07Z</time>
      </trkpt>
      <trkpt lat="46.83035" lon="6.38853">
        <ele>1089.4</ele>
        <time>2021-08-14T11:49:09Z</time>
      </trkpt>
      <trkpt lat="46.83036" lon="6.38847">
        <ele>1089.4</ele>
        <time>2021-08-14T11:49:10Z</time>
      </trkpt>
      <trkpt lat="46.83038" lon="6.3884">
        <ele>1089.5</ele>
        <time>2021-08-14T11:49:11Z</time>
      </trkpt>
      <trkpt lat="46.83042" lon="6.38827">
        <ele>1089.6</ele>
        <time>2021-08-14T11:49:13Z</time>
      </trkpt>
      <trkpt lat="46.83044" lon="6.3882">
        <ele>1089.6</ele>
        <time>2021-08-14T11:49:14Z</time>
      </trkpt>
      <trkpt lat="46.83047" lon="6.38813">
        <ele>1089.7</ele>
        <time>2021-08-14T11:49:15Z</time>
      </trkpt>
      <trkpt lat="46.8305" lon="6.38808">
        <ele>1089.7</ele>
        <time>2021-08-14T11:49:16Z</time>
      </trkpt>
      <trkpt lat="46.83053" lon="6.38803">
        <ele>1089.7</ele>
        <time>2021-08-14T11:49:18Z</time>
      </trkpt>
      <trkpt lat="46.83057" lon="6.38793">
        <ele>1089.7</ele>
        <time>2021-08-14T11:49:19Z</time>
      </trkpt>
      <trkpt lat="46.83059" lon="6.38788">
        <ele>1089.6</ele>
        <time>2021-08-14T11:49:20Z</time>
      </trkpt>
      <trkpt lat="46.83064" lon="6.38777">
        <ele>1089.4</ele>
        <time>2021-08-14T11:49:22Z</time>
      </trkpt>
      <trkpt lat="46.83067" lon="6.3877">
        <ele>1089.2</ele>
        <time>2021-08-14T11:49:24Z</time>
      </trkpt>
      <trkpt lat="46.83069" lon="6.38763">
        <ele>1089</ele>
        <time>2021-08-14T11:49:25Z</time>
      </trkpt>
      <trkpt lat="46.83071" lon="6.38756">
        <ele>1088.7</ele>
        <time>2021-08-14T11:49:26Z</time>
      </trkpt>
      <trkpt lat="46.83078" lon="6.38746">
        <ele>1088.1</ele>
        <time>2021-08-14T11:49:27Z</time>
      </trkpt>
      <trkpt lat="46.83083" lon="6.38738">
        <ele>1087.7</ele>
        <time>2021-08-14T11:49:28Z</time>
      </trkpt>
      <trkpt lat="46.83093" lon="6.38719">
        <ele>1086.9</ele>
        <time>2021-08-14T11:49:30Z</time>
      </trkpt>
      <trkpt lat="46.83104" lon="6.38701">
        <ele>1086.4</ele>
        <time>2021-08-14T11:49:32Z</time>
      </trkpt>
      <trkpt lat="46.83107" lon="6.38692">
        <ele>1086.3</ele>
        <time>2021-08-14T11:49:33Z</time>
      </trkpt>
      <trkpt lat="46.8311" lon="6.38683">
        <ele>1086.2</ele>
        <time>2021-08-14T11:49:34Z</time>
      </trkpt>
      <trkpt lat="46.83116" lon="6.38662">
        <ele>1086</ele>
        <time>2021-08-14T11:49:36Z</time>
      </trkpt>
      <trkpt lat="46.83116" lon="6.38653">
        <ele>1085.9</ele>
        <time>2021-08-14T11:49:37Z</time>
      </trkpt>
      <trkpt lat="46.83117" lon="6.38644">
        <ele>1085.8</ele>
        <time>2021-08-14T11:49:38Z</time>
      </trkpt>
      <trkpt lat="46.83118" lon="6.38627">
        <ele>1085.7</ele>
        <time>2021-08-14T11:49:40Z</time>
      </trkpt>
      <trkpt lat="46.83118" lon="6.38619">
        <ele>1085.6</ele>
        <time>2021-08-14T11:49:41Z</time>
      </trkpt>
      <trkpt lat="46.83117" lon="6.38611">
        <ele>1085.6</ele>
        <time>2021-08-14T11:49:42Z</time>
      </trkpt>
      <trkpt lat="46.83113" lon="6.38595">
        <ele>1085.6</ele>
        <time>2021-08-14T11:49:44Z</time>
      </trkpt>
      <trkpt lat="46.8311" lon="6.38588">
        <ele>1085.6</ele>
        <time>2021-08-14T11:49:45Z</time>
      </trkpt>
      <trkpt lat="46.83106" lon="6.38574">
        <ele>1085.7</ele>
        <time>2021-08-14T11:49:47Z</time>
      </trkpt>
      <trkpt lat="46.83104" lon="6.38567">
        <ele>1085.8</ele>
        <time>2021-08-14T11:49:48Z</time>
      </trkpt>
      <trkpt lat="46.83098" lon="6.38557">
        <ele>1085.9</ele>
        <time>2021-08-14T11:49:50Z</time>
      </trkpt>
      <trkpt lat="46.83095" lon="6.38553">
        <ele>1086</ele>
        <time>2021-08-14T11:49:51Z</time>
      </trkpt>
      <trkpt lat="46.83087" lon="6.3855">
        <ele>1086.2</ele>
        <time>2021-08-14T11:49:53Z</time>
      </trkpt>
      <trkpt lat="46.83083" lon="6.38551">
        <ele>1086.5</ele>
        <time>2021-08-14T11:49:55Z</time>
      </trkpt>
      <trkpt lat="46.83085" lon="6.38551">
        <ele>1086.6</ele>
        <time>2021-08-14T11:49:57Z</time>
      </trkpt>
      <trkpt lat="46.83084" lon="6.38551">
        <ele>1086.6</ele>
        <time>2021-08-14T11:49:59Z</time>
      </trkpt>
      <trkpt lat="46.83084" lon="6.38552">
        <ele>1086.6</ele>
        <time>2021-08-14T11:50:00Z</time>
      </trkpt>
      <trkpt lat="46.83083" lon="6.38553">
        <ele>1086.7</ele>
        <time>2021-08-14T11:50:02Z</time>
      </trkpt>
      <trkpt lat="46.83083" lon="6.38553">
        <ele>1086.7</ele>
        <time>2021-08-14T11:50:03Z</time>
      </trkpt>
      <trkpt lat="46.83083" lon="6.38553">
        <ele>1086.7</ele>
        <time>2021-08-14T11:50:04Z</time>
      </trkpt>
      <trkpt lat="46.83083" lon="6.38553">
        <ele>1086.7</ele>
        <time>2021-08-14T11:50:05Z</time>
      </trkpt>
      <trkpt lat="46.83084" lon="6.38553">
        <ele>1086.7</ele>
        <time>2021-08-14T11:50:06Z</time>
      </trkpt>
      <trkpt lat="46.83082" lon="6.38555">
        <ele>1086.8</ele>
        <time>2021-08-14T11:50:08Z</time>
      </trkpt>
      <trkpt lat="46.83077" lon="6.38557">
        <ele>1087</ele>
        <time>2021-08-14T11:50:14Z</time>
      </trkpt>
      <trkpt lat="46.83074" lon="6.38562">
        <ele>1087.2</ele>
        <time>2021-08-14T11:50:15Z</time>
      </trkpt>
      <trkpt lat="46.83068" lon="6.38575">
        <ele>1087.6</ele>
        <time>2021-08-14T11:50:17Z</time>
      </trkpt>
      <trkpt lat="46.83064" lon="6.38582">
        <ele>1087.8</ele>
        <time>2021-08-14T11:50:18Z</time>
      </trkpt>
      <trkpt lat="46.83064" lon="6.38583">
        <ele>1087.8</ele>
        <time>2021-08-14T11:50:20Z</time>
      </trkpt>
      <trkpt lat="46.83064" lon="6.38583">
        <ele>1087.8</ele>
        <time>2021-08-14T11:50:22Z</time>
      </trkpt>
      <trkpt lat="46.83063" lon="6.38584">
        <ele>1087.8</ele>
        <time>2021-08-14T11:50:24Z</time>
      </trkpt>
      <trkpt lat="46.83063" lon="6.38584">
        <ele>1087.8</ele>
        <time>2021-08-14T11:50:26Z</time>
      </trkpt>
      <trkpt lat="46.83063" lon="6.38584">
        <ele>1087.8</ele>
        <time>2021-08-14T11:50:28Z</time>
      </trkpt>
      <trkpt lat="46.83043" lon="6.38551">
        <ele>1088.4</ele>
        <time>2021-08-14T11:52:48Z</time>
      </trkpt>
      <trkpt lat="46.8304" lon="6.38551">
        <ele>1088.5</ele>
        <time>2021-08-14T11:52:50Z</time>
      </trkpt>
      <trkpt lat="46.83037" lon="6.3855">
        <ele>1088.5</ele>
        <time>2021-08-14T11:52:51Z</time>
      </trkpt>
      <trkpt lat="46.83036" lon="6.38549">
        <ele>1088.5</ele>
        <time>2021-08-14T11:52:52Z</time>
      </trkpt>
      <trkpt lat="46.83033" lon="6.38544">
        <ele>1088.6</ele>
        <time>2021-08-14T11:52:54Z</time>
      </trkpt>
      <trkpt lat="46.83031" lon="6.38537">
        <ele>1088.8</ele>
        <time>2021-08-14T11:52:55Z</time>
      </trkpt>
      <trkpt lat="46.8303" lon="6.38528">
        <ele>1088.9</ele>
        <time>2021-08-14T11:52:57Z</time>
      </trkpt>
      <trkpt lat="46.8303" lon="6.38523">
        <ele>1089</ele>
        <time>2021-08-14T11:52:58Z</time>
      </trkpt>
      <trkpt lat="46.8303" lon="6.38518">
        <ele>1089.1</ele>
        <time>2021-08-14T11:53:00Z</time>
      </trkpt>
      <trkpt lat="46.8303" lon="6.38513">
        <ele>1089.3</ele>
        <time>2021-08-14T11:53:01Z</time>
      </trkpt>
      <trkpt lat="46.8303" lon="6.38511">
        <ele>1089.3</ele>
        <time>2021-08-14T11:53:02Z</time>
      </trkpt>
      <trkpt lat="46.8303" lon="6.38506">
        <ele>1089.4</ele>
        <time>2021-08-14T11:53:03Z</time>
      </trkpt>
      <trkpt lat="46.8303" lon="6.38505">
        <ele>1089.5</ele>
        <time>2021-08-14T11:53:04Z</time>
      </trkpt>
      <trkpt lat="46.8303" lon="6.38502">
        <ele>1089.6</ele>
        <time>2021-08-14T11:53:05Z</time>
      </trkpt>
      <trkpt lat="46.8303" lon="6.385">
        <ele>1089.6</ele>
        <time>2021-08-14T11:53:06Z</time>
      </trkpt>
      <trkpt lat="46.8303" lon="6.38501">
        <ele>1089.7</ele>
        <time>2021-08-14T11:53:07Z</time>
      </trkpt>
      <trkpt lat="46.8303" lon="6.38501">
        <ele>1089.7</ele>
        <time>2021-08-14T11:53:08Z</time>
      </trkpt>
      <trkpt lat="46.8303" lon="6.38501">
        <ele>1089.7</ele>
        <time>2021-08-14T11:53:09Z</time>
      </trkpt>
      <trkpt lat="46.8303" lon="6.385">
        <ele>1089.7</ele>
        <time>2021-08-14T11:53:11Z</time>
      </trkpt>
      <trkpt lat="46.83029" lon="6.38498">
        <ele>1089.8</ele>
        <time>2021-08-14T11:53:13Z</time>
      </trkpt>
      <trkpt lat="46.83028" lon="6.38497">
        <ele>1089.9</ele>
        <time>2021-08-14T11:53:14Z</time>
      </trkpt>
      <trkpt lat="46.83026" lon="6.38495">
        <ele>1090</ele>
        <time>2021-08-14T11:53:16Z</time>
      </trkpt>
      <trkpt lat="46.82931" lon="6.38466">
        <ele>1095.2</ele>
        <time>2021-08-14T11:54:16Z</time>
      </trkpt>
      <trkpt lat="46.82929" lon="6.38461">
        <ele>1095.4</ele>
        <time>2021-08-14T11:54:17Z</time>
      </trkpt>
      <trkpt lat="46.82929" lon="6.38459">
        <ele>1095.4</ele>
        <time>2021-08-14T11:54:18Z</time>
      </trkpt>
      <trkpt lat="46.82926" lon="6.38447">
        <ele>1095.9</ele>
        <time>2021-08-14T11:54:20Z</time>
      </trkpt>
      <trkpt lat="46.8292" lon="6.3843">
        <ele>1096.4</ele>
        <time>2021-08-14T11:54:21Z</time>
      </trkpt>
      <trkpt lat="46.82916" lon="6.38418">
        <ele>1096.7</ele>
        <time>2021-08-14T11:54:22Z</time>
      </trkpt>
      <trkpt lat="46.82913" lon="6.38413">
        <ele>1096.9</ele>
        <time>2021-08-14T11:54:23Z</time>
      </trkpt>
      <trkpt lat="46.82913" lon="6.38411">
        <ele>1096.9</ele>
        <time>2021-08-14T11:54:24Z</time>
      </trkpt>
      <trkpt lat="46.82912" lon="6.38409">
        <ele>1097</ele>
        <time>2021-08-14T11:54:26Z</time>
      </trkpt>
      <trkpt lat="46.82912" lon="6.38408">
        <ele>1097</ele>
        <time>2021-08-14T11:54:27Z</time>
      </trkpt>
      <trkpt lat="46.82912" lon="6.38407">
        <ele>1097</ele>
        <time>2021-08-14T11:54:28Z</time>
      </trkpt>
      <trkpt lat="46.82911" lon="6.38406">
        <ele>1097.1</ele>
        <time>2021-08-14T11:54:30Z</time>
      </trkpt>
      <trkpt lat="46.82911" lon="6.38405">
        <ele>1097.1</ele>
        <time>2021-08-14T11:54:31Z</time>
      </trkpt>
      <trkpt lat="46.82911" lon="6.38404">
        <ele>1097.1</ele>
        <time>2021-08-14T11:54:32Z</time>
      </trkpt>
      <trkpt lat="46.82911" lon="6.38403">
        <ele>1097.1</ele>
        <time>2021-08-14T11:54:33Z</time>
      </trkpt>
      <trkpt lat="46.82911" lon="6.384">
        <ele>1097.2</ele>
        <time>2021-08-14T11:54:34Z</time>
      </trkpt>
      <trkpt lat="46.82822" lon="6.38302">
        <ele>1099.2</ele>
        <time>2021-08-14T11:55:44Z</time>
      </trkpt>
      <trkpt lat="46.82819" lon="6.383">
        <ele>1099.1</ele>
        <time>2021-08-14T11:55:45Z</time>
      </trkpt>
      <trkpt lat="46.8281" lon="6.38297">
        <ele>1098.8</ele>
        <time>2021-08-14T11:55:46Z</time>
      </trkpt>
      <trkpt lat="46.82804" lon="6.38294">
        <ele>1098.6</ele>
        <time>2021-08-14T11:55:48Z</time>
      </trkpt>
      <trkpt lat="46.82794" lon="6.38289">
        <ele>1098.3</ele>
        <time>2021-08-14T11:55:49Z</time>
      </trkpt>
      <trkpt lat="46.82783" lon="6.38282">
        <ele>1097.9</ele>
        <time>2021-08-14T11:55:51Z</time>
      </trkpt>
      <trkpt lat="46.82775" lon="6.38277">
        <ele>1097.6</ele>
        <time>2021-08-14T11:55:53Z</time>
      </trkpt>
      <trkpt lat="46.82768" lon="6.38274">
        <ele>1097.4</ele>
        <time>2021-08-14T11:55:54Z</time>
      </trkpt>
      <trkpt lat="46.82761" lon="6.38271">
        <ele>1097.2</ele>
        <time>2021-08-14T11:55:55Z</time>
      </trkpt>
      <trkpt lat="46.82757" lon="6.3827">
        <ele>1097.1</ele>
        <time>2021-08-14T11:55:56Z</time>
      </trkpt>
      <trkpt lat="46.82753" lon="6.38266">
        <ele>1096.9</ele>
        <time>2021-08-14T11:55:58Z</time>
      </trkpt>
      <trkpt lat="46.8275" lon="6.38262">
        <ele>1096.8</ele>
        <time>2021-08-14T11:55:59Z</time>
      </trkpt>
      <trkpt lat="46.82747" lon="6.38258">
        <ele>1096.7</ele>
        <time>2021-08-14T11:56:00Z</time>
      </trkpt>
      <trkpt lat="46.82745" lon="6.38253">
        <ele>1096.6</ele>
        <time>2021-08-14T11:56:02Z</time>
      </trkpt>
      <trkpt lat="46.82745" lon="6.38252">
        <ele>1096.6</ele>
        <time>2021-08-14T11:56:03Z</time>
      </trkpt>
      <trkpt lat="46.82744" lon="6.38248">
        <ele>1096.6</ele>
        <time>2021-08-14T11:56:04Z</time>
      </trkpt>
      <trkpt lat="46.82743" lon="6.38245">
        <ele>1096.5</ele>
        <time>2021-08-14T11:56:06Z</time>
      </trkpt>
      <trkpt lat="46.82724" lon="6.38222">
        <ele>1095.9</ele>
        <time>2021-08-14T11:56:11Z</time>
      </trkpt>
      <trkpt lat="46.82722" lon="6.38217">
        <ele>1095.8</ele>
        <time>2021-08-14T11:56:12Z</time>
      </trkpt>
      <trkpt lat="46.82718" lon="6.3821">
        <ele>1095.7</ele>
        <time>2021-08-14T11:56:13Z</time>
      </trkpt>
      <trkpt lat="46.82713" lon="6.38207">
        <ele>1095.6</ele>
        <time>2021-08-14T11:56:15Z</time>
      </trkpt>
      <trkpt lat="46.82711" lon="6.38207">
        <ele>1095.6</ele>
        <time>2021-08-14T11:56:16Z</time>
      </trkpt>
      <trkpt lat="46.82705" lon="6.38206">
        <ele>1095.5</ele>
        <time>2021-08-14T11:56:18Z</time>
      </trkpt>
      <trkpt lat="46.82703" lon="6.38207">
        <ele>1095.4</ele>
        <time>2021-08-14T11:56:19Z</time>
      </trkpt>
      <trkpt lat="46.82699" lon="6.38207">
        <ele>1095.3</ele>
        <time>2021-08-14T11:56:20Z</time>
      </trkpt>
      <trkpt lat="46.82696" lon="6.38206">
        <ele>1095.3</ele>
        <time>2021-08-14T11:56:21Z</time>
      </trkpt>
      <trkpt lat="46.8269" lon="6.38202">
        <ele>1095.1</ele>
        <time>2021-08-14T11:56:23Z</time>
      </trkpt>
      <trkpt lat="46.82687" lon="6.38201">
        <ele>1095.1</ele>
        <time>2021-08-14T11:56:24Z</time>
      </trkpt>
      <trkpt lat="46.8268" lon="6.38194">
        <ele>1094.9</ele>
        <time>2021-08-14T11:56:26Z</time>
      </trkpt>
      <trkpt lat="46.82677" lon="6.38186">
        <ele>1094.8</ele>
        <time>2021-08-14T11:56:28Z</time>
      </trkpt>
      <trkpt lat="46.82675" lon="6.38179">
        <ele>1094.7</ele>
        <time>2021-08-14T11:56:29Z</time>
      </trkpt>
      <trkpt lat="46.82674" lon="6.38175">
        <ele>1094.6</ele>
        <time>2021-08-14T11:56:31Z</time>
      </trkpt>
      <trkpt lat="46.82672" lon="6.3817">
        <ele>1094.5</ele>
        <time>2021-08-14T11:56:32Z</time>
      </trkpt>
      <trkpt lat="46.8267" lon="6.38166">
        <ele>1094.5</ele>
        <time>2021-08-14T11:56:33Z</time>
      </trkpt>
      <trkpt lat="46.82669" lon="6.38165">
        <ele>1094.4</ele>
        <time>2021-08-14T11:56:35Z</time>
      </trkpt>
      <trkpt lat="46.82761" lon="6.38002">
        <ele>1091.5</ele>
        <time>2021-08-14T11:57:09Z</time>
      </trkpt>
      <trkpt lat="46.82761" lon="6.37995">
        <ele>1090.6</ele>
        <time>2021-08-14T11:57:10Z</time>
      </trkpt>
      <trkpt lat="46.82763" lon="6.37992">
        <ele>1090.1</ele>
        <time>2021-08-14T11:57:11Z</time>
      </trkpt>
      <trkpt lat="46.82765" lon="6.37988">
        <ele>1089.7</ele>
        <time>2021-08-14T11:57:13Z</time>
      </trkpt>
      <trkpt lat="46.82766" lon="6.37983">
        <ele>1089.2</ele>
        <time>2021-08-14T11:57:14Z</time>
      </trkpt>
      <trkpt lat="46.82769" lon="6.37977">
        <ele>1088.8</ele>
        <time>2021-08-14T11:57:15Z</time>
      </trkpt>
      <trkpt lat="46.82772" lon="6.37973">
        <ele>1088.4</ele>
        <time>2021-08-14T11:57:16Z</time>
      </trkpt>
      <trkpt lat="46.82775" lon="6.37968">
        <ele>1087.9</ele>
        <time>2021-08-14T11:57:17Z</time>
      </trkpt>
      <trkpt lat="46.82778" lon="6.37965">
        <ele>1087.4</ele>
        <time>2021-08-14T11:57:18Z</time>
      </trkpt>
      <trkpt lat="46.82779" lon="6.37963">
        <ele>1087.1</ele>
        <time>2021-08-14T11:57:19Z</time>
      </trkpt>
      <trkpt lat="46.82781" lon="6.37959">
        <ele>1086.6</ele>
        <time>2021-08-14T11:57:20Z</time>
      </trkpt>
      <trkpt lat="46.82781" lon="6.37956">
        <ele>1086.1</ele>
        <time>2021-08-14T11:57:23Z</time>
      </trkpt>
      <trkpt lat="46.82782" lon="6.37955">
        <ele>1085.8</ele>
        <time>2021-08-14T11:57:24Z</time>
      </trkpt>
      <trkpt lat="46.82782" lon="6.37951">
        <ele>1085.3</ele>
        <time>2021-08-14T11:57:25Z</time>
      </trkpt>
      <trkpt lat="46.82783" lon="6.37948">
        <ele>1084.8</ele>
        <time>2021-08-14T11:57:27Z</time>
      </trkpt>
      <trkpt lat="46.82749" lon="6.37915">
        <ele>1084.1</ele>
        <time>2021-08-14T11:57:48Z</time>
      </trkpt>
      <trkpt lat="46.82746" lon="6.37915">
        <ele>1084.2</ele>
        <time>2021-08-14T11:57:49Z</time>
      </trkpt>
      <trkpt lat="46.82741" lon="6.37919">
        <ele>1084.2</ele>
        <time>2021-08-14T11:57:51Z</time>
      </trkpt>
      <trkpt lat="46.82734" lon="6.37924">
        <ele>1084.9</ele>
        <time>2021-08-14T11:57:52Z</time>
      </trkpt>
      <trkpt lat="46.8273" lon="6.3793">
        <ele>1085.1</ele>
        <time>2021-08-14T11:57:54Z</time>
      </trkpt>
      <trkpt lat="46.82728" lon="6.37933">
        <ele>1085.3</ele>
        <time>2021-08-14T11:57:55Z</time>
      </trkpt>
      <trkpt lat="46.82724" lon="6.37935">
        <ele>1085.3</ele>
        <time>2021-08-14T11:57:56Z</time>
      </trkpt>
      <trkpt lat="46.82717" lon="6.37938">
        <ele>1086.1</ele>
        <time>2021-08-14T11:57:58Z</time>
      </trkpt>
      <trkpt lat="46.82714" lon="6.37939">
        <ele>1085.9</ele>
        <time>2021-08-14T11:57:59Z</time>
      </trkpt>
      <trkpt lat="46.82712" lon="6.37938">
        <ele>1086</ele>
        <time>2021-08-14T11:58:00Z</time>
      </trkpt>
      <trkpt lat="46.82712" lon="6.37936">
        <ele>1085.5</ele>
        <time>2021-08-14T11:58:01Z</time>
      </trkpt>
      <trkpt lat="46.82715" lon="6.37931">
        <ele>1084.8</ele>
        <time>2021-08-14T11:58:03Z</time>
      </trkpt>
      <trkpt lat="46.82716" lon="6.37929">
        <ele>1084.6</ele>
        <time>2021-08-14T11:58:04Z</time>
      </trkpt>
      <trkpt lat="46.82717" lon="6.37929">
        <ele>1084.4</ele>
        <time>2021-08-14T11:58:06Z</time>
      </trkpt>
      <trkpt lat="46.82717" lon="6.37928">
        <ele>1083.9</ele>
        <time>2021-08-14T11:58:07Z</time>
      </trkpt>
      <trkpt lat="46.82717" lon="6.37927">
        <ele>1083.4</ele>
        <time>2021-08-14T11:58:08Z</time>
      </trkpt>
      <trkpt lat="46.82717" lon="6.37926">
        <ele>1083.2</ele>
        <time>2021-08-14T11:58:09Z</time>
      </trkpt>
      <trkpt lat="46.82718" lon="6.37925">
        <ele>1083</ele>
        <time>2021-08-14T11:58:10Z</time>
      </trkpt>
      <trkpt lat="46.82726" lon="6.37883">
        <ele>1079.6</ele>
        <time>2021-08-14T11:58:18Z</time>
      </trkpt>
      <trkpt lat="46.82724" lon="6.3788">
        <ele>1079.2</ele>
        <time>2021-08-14T11:58:19Z</time>
      </trkpt>
      <trkpt lat="46.82721" lon="6.37875">
        <ele>1079</ele>
        <time>2021-08-14T11:58:20Z</time>
      </trkpt>
      <trkpt lat="46.82719" lon="6.37871">
        <ele>1078.8</ele>
        <time>2021-08-14T11:58:22Z</time>
      </trkpt>
      <trkpt lat="46.82716" lon="6.37869">
        <ele>1078.9</ele>
        <time>2021-08-14T11:58:23Z</time>
      </trkpt>
      <trkpt lat="46.82715" lon="6.37867">
        <ele>1078.4</ele>
        <time>2021-08-14T11:58:25Z</time>
      </trkpt>
      <trkpt lat="46.82714" lon="6.37866">
        <ele>1078.2</ele>
        <time>2021-08-14T11:58:26Z</time>
      </trkpt>
      <trkpt lat="46.82714" lon="6.37865">
        <ele>1078</ele>
        <time>2021-08-14T11:58:28Z</time>
      </trkpt>
      <trkpt lat="46.82714" lon="6.37864">
        <ele>1078</ele>
        <time>2021-08-14T11:58:30Z</time>
      </trkpt>
      <trkpt lat="46.82676" lon="6.37731">
        <ele>1076.9</ele>
        <time>2021-08-14T12:00:24Z</time>
      </trkpt>
      <trkpt lat="46.82674" lon="6.37721">
        <ele>1077</ele>
        <time>2021-08-14T12:00:26Z</time>
      </trkpt>
      <trkpt lat="46.8267" lon="6.37706">
        <ele>1077</ele>
        <time>2021-08-14T12:00:28Z</time>
      </trkpt>
      <trkpt lat="46.82667" lon="6.37695">
        <ele>1077</ele>
        <time>2021-08-14T12:00:29Z</time>
      </trkpt>
      <trkpt lat="46.82665" lon="6.37689">
        <ele>1077</ele>
        <time>2021-08-14T12:00:30Z</time>
      </trkpt>
      <trkpt lat="46.82664" lon="6.37685">
        <ele>1077</ele>
        <time>2021-08-14T12:00:31Z</time>
      </trkpt>
      <trkpt lat="46.82662" lon="6.37683">
        <ele>1077</ele>
        <time>2021-08-14T12:00:33Z</time>
      </trkpt>
      <trkpt lat="46.82658" lon="6.37682">
        <ele>1077</ele>
        <time>2021-08-14T12:00:35Z</time>
      </trkpt>
      <trkpt lat="46.82658" lon="6.37683">
        <ele>1077</ele>
        <time>2021-08-14T12:00:36Z</time>
      </trkpt>
      <trkpt lat="46.82658" lon="6.37683">
        <ele>1077</ele>
        <time>2021-08-14T12:00:37Z</time>
      </trkpt>
      <trkpt lat="46.82657" lon="6.37682">
        <ele>1077</ele>
        <time>2021-08-14T12:00:38Z</time>
      </trkpt>
      <trkpt lat="46.82657" lon="6.37682">
        <ele>1077</ele>
        <time>2021-08-14T12:00:39Z</time>
      </trkpt>
      <trkpt lat="46.82656" lon="6.37683">
        <ele>1077</ele>
        <time>2021-08-14T12:00:41Z</time>
      </trkpt>
      <trkpt lat="46.82656" lon="6.37683">
        <ele>1077</ele>
        <time>2021-08-14T12:00:43Z</time>
      </trkpt>
      <trkpt lat="46.82603" lon="6.37674">
        <ele>1077.2</ele>
        <time>2021-08-14T12:01:07Z</time>
      </trkpt>
      <trkpt lat="46.826" lon="6.37672">
        <ele>1077.2</ele>
        <time>2021-08-14T12:01:08Z</time>
      </trkpt>
      <trkpt lat="46.82598" lon="6.37668">
        <ele>1077.3</ele>
        <time>2021-08-14T12:01:09Z</time>
      </trkpt>
      <trkpt lat="46.82597" lon="6.37664">
        <ele>1077.3</ele>
        <time>2021-08-14T12:01:10Z</time>
      </trkpt>
      <trkpt lat="46.82595" lon="6.37661">
        <ele>1077.4</ele>
        <time>2021-08-14T12:01:12Z</time>
      </trkpt>
      <trkpt lat="46.82593" lon="6.37654">
        <ele>1077.5</ele>
        <time>2021-08-14T12:01:13Z</time>
      </trkpt>
      <trkpt lat="46.82591" lon="6.37647">
        <ele>1077.6</ele>
        <time>2021-08-14T12:01:15Z</time>
      </trkpt>
      <trkpt lat="46.82591" lon="6.37641">
        <ele>1077.7</ele>
        <time>2021-08-14T12:01:16Z</time>
      </trkpt>
      <trkpt lat="46.82589" lon="6.37629">
        <ele>1077.8</ele>
        <time>2021-08-14T12:01:18Z</time>
      </trkpt>
      <trkpt lat="46.82586" lon="6.37617">
        <ele>1077.9</ele>
        <time>2021-08-14T12:01:20Z</time>
      </trkpt>
      <trkpt lat="46.82583" lon="6.37613">
        <ele>1077.9</ele>
        <time>2021-08-14T12:01:21Z</time>
      </trkpt>
      <trkpt lat="46.8258" lon="6.37608">
        <ele>1077.9</ele>
        <time>2021-08-14T12:01:22Z</time>
      </trkpt>
      <trkpt lat="46.82577" lon="6.37605">
        <ele>1077.9</ele>
        <time>2021-08-14T12:01:24Z</time>
      </trkpt>
      <trkpt lat="46.82572" lon="6.37603">
        <ele>1077.9</ele>
        <time>2021-08-14T12:01:25Z</time>
      </trkpt>
      <trkpt lat="46.8257" lon="6.376">
        <ele>1077.9</ele>
        <time>2021-08-14T12:01:27Z</time>
      </trkpt>
      <trkpt lat="46.82569" lon="6.37598">
        <ele>1077.9</ele>
        <time>2021-08-14T12:01:28Z</time>
      </trkpt>
      <trkpt lat="46.82565" lon="6.37593">
        <ele>1077.9</ele>
        <time>2021-08-14T12:01:30Z</time>
      </trkpt>
      <trkpt lat="46.82562" lon="6.37594">
        <ele>1077.9</ele>
        <time>2021-08-14T12:01:31Z</time>
      </trkpt>
      <trkpt lat="46.82561" lon="6.37594">
        <ele>1077.9</ele>
        <time>2021-08-14T12:01:32Z</time>
      </trkpt>
      <trkpt lat="46.82558" lon="6.37597">
        <ele>1077.9</ele>
        <time>2021-08-14T12:01:33Z</time>
      </trkpt>
      <trkpt lat="46.82556" lon="6.37598">
        <ele>1077.9</ele>
        <time>2021-08-14T12:01:34Z</time>
      </trkpt>
      <trkpt lat="46.82553" lon="6.37598">
        <ele>1077.9</ele>
        <time>2021-08-14T12:01:36Z</time>
      </trkpt>
      <trkpt lat="46.82552" lon="6.37599">
        <ele>1077.9</ele>
        <time>2021-08-14T12:01:37Z</time>
      </trkpt>
      <trkpt lat="46.82552" lon="6.376">
        <ele>1077.9</ele>
        <time>2021-08-14T12:01:38Z</time>
      </trkpt>
      <trkpt lat="46.82552" lon="6.37602">
        <ele>1077.9</ele>
        <time>2021-08-14T12:01:39Z</time>
      </trkpt>
      <trkpt lat="46.82551" lon="6.376">
        <ele>1077.9</ele>
        <time>2021-08-14T12:01:41Z</time>
      </trkpt>
      <trkpt lat="46.82551" lon="6.37598">
        <ele>1077.9</ele>
        <time>2021-08-14T12:01:42Z</time>
      </trkpt>
      <trkpt lat="46.82551" lon="6.37596">
        <ele>1077.9</ele>
        <time>2021-08-14T12:01:43Z</time>
      </trkpt>
      <trkpt lat="46.82547" lon="6.3759">
        <ele>1077.9</ele>
        <time>2021-08-14T12:01:45Z</time>
      </trkpt>
      <trkpt lat="46.82545" lon="6.37587">
        <ele>1077.9</ele>
        <time>2021-08-14T12:01:46Z</time>
      </trkpt>
      <trkpt lat="46.82543" lon="6.37585">
        <ele>1077.9</ele>
        <time>2021-08-14T12:01:47Z</time>
      </trkpt>
      <trkpt lat="46.82541" lon="6.37569">
        <ele>1078</ele>
        <time>2021-08-14T12:01:49Z</time>
      </trkpt>
      <trkpt lat="46.8254" lon="6.37564">
        <ele>1078</ele>
        <time>2021-08-14T12:01:50Z</time>
      </trkpt>
      <trkpt lat="46.82536" lon="6.37556">
        <ele>1078.1</ele>
        <time>2021-08-14T12:01:52Z</time>
      </trkpt>
      <trkpt lat="46.82536" lon="6.37555">
        <ele>1078.1</ele>
        <time>2021-08-14T12:01:53Z</time>
      </trkpt>
      <trkpt lat="46.82533" lon="6.37549">
        <ele>1078.2</ele>
        <time>2021-08-14T12:01:55Z</time>
      </trkpt>
      <trkpt lat="46.82533" lon="6.37548">
        <ele>1078.2</ele>
        <time>2021-08-14T12:01:56Z</time>
      </trkpt>
      <trkpt lat="46.82533" lon="6.37547">
        <ele>1078.2</ele>
        <time>2021-08-14T12:01:57Z</time>
      </trkpt>
      <trkpt lat="46.82532" lon="6.37546">
        <ele>1078.2</ele>
        <time>2021-08-14T12:01:59Z</time>
      </trkpt>
      <trkpt lat="46.82532" lon="6.37545">
        <ele>1078.2</ele>
        <time>2021-08-14T12:02:01Z</time>
      </trkpt>
      <trkpt lat="46.82524" lon="6.37505">
        <ele>1078.4</ele>
        <time>2021-08-14T12:06:11Z</time>
      </trkpt>
      <trkpt lat="46.82529" lon="6.37502">
        <ele>1078.4</ele>
        <time>2021-08-14T12:06:13Z</time>
      </trkpt>
      <trkpt lat="46.82544" lon="6.37498">
        <ele>1078.4</ele>
        <time>2021-08-14T12:06:15Z</time>
      </trkpt>
      <trkpt lat="46.82546" lon="6.37498">
        <ele>1078.4</ele>
        <time>2021-08-14T12:06:16Z</time>
      </trkpt>
      <trkpt lat="46.82546" lon="6.37501">
        <ele>1078.4</ele>
        <time>2021-08-14T12:06:18Z</time>
      </trkpt>
      <trkpt lat="46.82543" lon="6.37505">
        <ele>1078.4</ele>
        <time>2021-08-14T12:06:20Z</time>
      </trkpt>
      <trkpt lat="46.8254" lon="6.37508">
        <ele>1078.3</ele>
        <time>2021-08-14T12:06:21Z</time>
      </trkpt>
      <trkpt lat="46.82538" lon="6.37512">
        <ele>1078.3</ele>
        <time>2021-08-14T12:06:23Z</time>
      </trkpt>
      <trkpt lat="46.82535" lon="6.37515">
        <ele>1078.2</ele>
        <time>2021-08-14T12:06:25Z</time>
      </trkpt>
      <trkpt lat="46.82525" lon="6.37526">
        <ele>1078</ele>
        <time>2021-08-14T12:06:26Z</time>
      </trkpt>
      <trkpt lat="46.82518" lon="6.37531">
        <ele>1077.8</ele>
        <time>2021-08-14T12:06:28Z</time>
      </trkpt>
      <trkpt lat="46.82512" lon="6.37535">
        <ele>1077.6</ele>
        <time>2021-08-14T12:06:30Z</time>
      </trkpt>
      <trkpt lat="46.82508" lon="6.37539">
        <ele>1077.4</ele>
        <time>2021-08-14T12:06:31Z</time>
      </trkpt>
      <trkpt lat="46.82503" lon="6.37542">
        <ele>1077.2</ele>
        <time>2021-08-14T12:06:32Z</time>
      </trkpt>
      <trkpt lat="46.82496" lon="6.37549">
        <ele>1076.9</ele>
        <time>2021-08-14T12:06:34Z</time>
      </trkpt>
      <trkpt lat="46.82494" lon="6.37551">
        <ele>1076.8</ele>
        <time>2021-08-14T12:06:35Z</time>
      </trkpt>
      <trkpt lat="46.82491" lon="6.37554">
        <ele>1076.6</ele>
        <time>2021-08-14T12:06:37Z</time>
      </trkpt>
      <trkpt lat="46.82491" lon="6.37556">
        <ele>1076.5</ele>
        <time>2021-08-14T12:06:38Z</time>
      </trkpt>
      <trkpt lat="46.82494" lon="6.37561">
        <ele>1076.3</ele>
        <time>2021-08-14T12:06:40Z</time>
      </trkpt>
      <trkpt lat="46.82495" lon="6.37563">
        <ele>1076.2</ele>
        <time>2021-08-14T12:06:42Z</time>
      </trkpt>
      <trkpt lat="46.82496" lon="6.37564">
        <ele>1076.2</ele>
        <time>2021-08-14T12:06:43Z</time>
      </trkpt>
      <trkpt lat="46.82497" lon="6.37564">
        <ele>1076.2</ele>
        <time>2021-08-14T12:06:44Z</time>
      </trkpt>
      <trkpt lat="46.825" lon="6.37565">
        <ele>1076</ele>
        <time>2021-08-14T12:06:46Z</time>
      </trkpt>
      <trkpt lat="46.825" lon="6.37565">
        <ele>1076</ele>
        <time>2021-08-14T12:06:47Z</time>
      </trkpt>
      <trkpt lat="46.82501" lon="6.37565">
        <ele>1076</ele>
        <time>2021-08-14T12:06:48Z</time>
      </trkpt>
      <trkpt lat="46.82502" lon="6.37563">
        <ele>1075.9</ele>
        <time>2021-08-14T12:06:50Z</time>
      </trkpt>
      <trkpt lat="46.82502" lon="6.37563">
        <ele>1075.9</ele>
        <time>2021-08-14T12:06:51Z</time>
      </trkpt>
      <trkpt lat="46.82503" lon="6.37562">
        <ele>1075.8</ele>
        <time>2021-08-14T12:06:53Z</time>
      </trkpt>
      <trkpt lat="46.82504" lon="6.37562">
        <ele>1075.8</ele>
        <time>2021-08-14T12:06:54Z</time>
      </trkpt>
      <trkpt lat="46.82505" lon="6.3756">
        <ele>1075.7</ele>
        <time>2021-08-14T12:06:56Z</time>
      </trkpt>
      <trkpt lat="46.82505" lon="6.37559">
        <ele>1075.7</ele>
        <time>2021-08-14T12:06:57Z</time>
      </trkpt>
      <trkpt lat="46.82506" lon="6.37557">
        <ele>1075.6</ele>
        <time>2021-08-14T12:06:59Z</time>
      </trkpt>
      <trkpt lat="46.82506" lon="6.37555">
        <ele>1075.5</ele>
        <time>2021-08-14T12:07:01Z</time>
      </trkpt>
      <trkpt lat="46.82506" lon="6.37555">
        <ele>1075.5</ele>
        <time>2021-08-14T12:07:02Z</time>
      </trkpt>
      <trkpt lat="46.82507" lon="6.37554">
        <ele>1075.5</ele>
        <time>2021-08-14T12:07:03Z</time>
      </trkpt>
      <trkpt lat="46.82507" lon="6.37553">
        <ele>1075.4</ele>
        <time>2021-08-14T12:07:05Z</time>
      </trkpt>
      <trkpt lat="46.82508" lon="6.37551">
        <ele>1075.4</ele>
        <time>2021-08-14T12:07:06Z</time>
      </trkpt>
      <trkpt lat="46.82509" lon="6.3755">
        <ele>1075.3</ele>
        <time>2021-08-14T12:07:07Z</time>
      </trkpt>
      <trkpt lat="46.8251" lon="6.37548">
        <ele>1075.2</ele>
        <time>2021-08-14T12:07:09Z</time>
      </trkpt>
      <trkpt lat="46.82512" lon="6.37547">
        <ele>1075.1</ele>
        <time>2021-08-14T12:07:10Z</time>
      </trkpt>
      <trkpt lat="46.82513" lon="6.37546">
        <ele>1075.1</ele>
        <time>2021-08-14T12:07:12Z</time>
      </trkpt>
      <trkpt lat="46.82515" lon="6.37544">
        <ele>1075</ele>
        <time>2021-08-14T12:07:14Z</time>
      </trkpt>
      <trkpt lat="46.82515" lon="6.37544">
        <ele>1074.9</ele>
        <time>2021-08-14T12:07:15Z</time>
      </trkpt>
      <trkpt lat="46.8252" lon="6.37538">
        <ele>1074.6</ele>
        <time>2021-08-14T12:07:16Z</time>
      </trkpt>
      <trkpt lat="46.82523" lon="6.37534">
        <ele>1074.4</ele>
        <time>2021-08-14T12:07:17Z</time>
      </trkpt>
      <trkpt lat="46.82532" lon="6.37523">
        <ele>1073.8</ele>
        <time>2021-08-14T12:07:19Z</time>
      </trkpt>
      <trkpt lat="46.82534" lon="6.37522">
        <ele>1073.7</ele>
        <time>2021-08-14T12:07:20Z</time>
      </trkpt>
      <trkpt lat="46.82538" lon="6.37522">
        <ele>1073.5</ele>
        <time>2021-08-14T12:07:22Z</time>
      </trkpt>
      <trkpt lat="46.82542" lon="6.37523">
        <ele>1073.3</ele>
        <time>2021-08-14T12:07:24Z</time>
      </trkpt>
      <trkpt lat="46.82543" lon="6.37524">
        <ele>1073.3</ele>
        <time>2021-08-14T12:07:25Z</time>
      </trkpt>
      <trkpt lat="46.82544" lon="6.37526">
        <ele>1073.2</ele>
        <time>2021-08-14T12:07:27Z</time>
      </trkpt>
      <trkpt lat="46.82544" lon="6.37527">
        <ele>1073.1</ele>
        <time>2021-08-14T12:07:28Z</time>
      </trkpt>
      <trkpt lat="46.82538" lon="6.37543">
        <ele>1072.5</ele>
        <time>2021-08-14T12:07:30Z</time>
      </trkpt>
      <trkpt lat="46.82534" lon="6.37545">
        <ele>1072.2</ele>
        <time>2021-08-14T12:07:32Z</time>
      </trkpt>
      <trkpt lat="46.82532" lon="6.37546">
        <ele>1072.1</ele>
        <time>2021-08-14T12:07:34Z</time>
      </trkpt>
      <trkpt lat="46.82531" lon="6.37547">
        <ele>1072.1</ele>
        <time>2021-08-14T12:07:35Z</time>
      </trkpt>
      <trkpt lat="46.8253" lon="6.37548">
        <ele>1072</ele>
        <time>2021-08-14T12:07:37Z</time>
      </trkpt>
      <trkpt lat="46.82529" lon="6.37548">
        <ele>1071.9</ele>
        <time>2021-08-14T12:07:38Z</time>
      </trkpt>
      <trkpt lat="46.82527" lon="6.37547">
        <ele>1071.9</ele>
        <time>2021-08-14T12:07:40Z</time>
      </trkpt>
      <trkpt lat="46.82527" lon="6.37547">
        <ele>1071.8</ele>
        <time>2021-08-14T12:07:42Z</time>
      </trkpt>
      <trkpt lat="46.82527" lon="6.37547">
        <ele>1071.8</ele>
        <time>2021-08-14T12:07:43Z</time>
      </trkpt>
      <trkpt lat="46.82527" lon="6.37547">
        <ele>1071.8</ele>
        <time>2021-08-14T12:07:44Z</time>
      </trkpt>
      <trkpt lat="46.82527" lon="6.37547">
        <ele>1071.8</ele>
        <time>2021-08-14T12:07:46Z</time>
      </trkpt>
      <trkpt lat="46.82527" lon="6.37547">
        <ele>1071.8</ele>
        <time>2021-08-14T12:07:48Z</time>
      </trkpt>
      <trkpt lat="46.82527" lon="6.37547">
        <ele>1071.8</ele>
        <time>2021-08-14T12:07:49Z</time>
      </trkpt>
      <trkpt lat="46.82527" lon="6.37547">
        <ele>1071.8</ele>
        <time>2021-08-14T12:07:51Z</time>
      </trkpt>
      <trkpt lat="46.82527" lon="6.37547">
        <ele>1071.8</ele>
        <time>2021-08-14T12:07:53Z</time>
      </trkpt>
      <trkpt lat="46.82528" lon="6.37543">
        <ele>1071.7</ele>
        <time>2021-08-14T12:07:55Z</time>
      </trkpt>
      <trkpt lat="46.82529" lon="6.37542">
        <ele>1071.6</ele>
        <time>2021-08-14T12:07:56Z</time>
      </trkpt>
      <trkpt lat="46.82529" lon="6.37539">
        <ele>1071.5</ele>
        <time>2021-08-14T12:07:58Z</time>
      </trkpt>
      <trkpt lat="46.82529" lon="6.37539">
        <ele>1071.5</ele>
        <time>2021-08-14T12:07:59Z</time>
      </trkpt>
      <trkpt lat="46.82529" lon="6.37538">
        <ele>1071.4</ele>
        <time>2021-08-14T12:08:00Z</time>
      </trkpt>
      <trkpt lat="46.82529" lon="6.37538">
        <ele>1071.4</ele>
        <time>2021-08-14T12:08:01Z</time>
      </trkpt>
      <trkpt lat="46.82529" lon="6.37538">
        <ele>1071.4</ele>
        <time>2021-08-14T12:08:03Z</time>
      </trkpt>
      <trkpt lat="46.82529" lon="6.37538">
        <ele>1071.4</ele>
        <time>2021-08-14T12:08:04Z</time>
      </trkpt>
      <trkpt lat="46.82529" lon="6.37538">
        <ele>1071.4</ele>
        <time>2021-08-14T12:08:05Z</time>
      </trkpt>
      <trkpt lat="46.82529" lon="6.37538">
        <ele>1071.4</ele>
        <time>2021-08-14T12:08:07Z</time>
      </trkpt>
      <trkpt lat="46.82529" lon="6.37538">
        <ele>1071.4</ele>
        <time>2021-08-14T12:08:08Z</time>
      </trkpt>
      <trkpt lat="46.82522" lon="6.37539">
        <ele>1071.1</ele>
        <time>2021-08-14T12:08:10Z</time>
      </trkpt>
      <trkpt lat="46.82521" lon="6.37541">
        <ele>1071</ele>
        <time>2021-08-14T12:08:11Z</time>
      </trkpt>
      <trkpt lat="46.82519" lon="6.37544">
        <ele>1070.9</ele>
        <time>2021-08-14T12:08:13Z</time>
      </trkpt>
      <trkpt lat="46.82518" lon="6.37544">
        <ele>1070.8</ele>
        <time>2021-08-14T12:08:14Z</time>
      </trkpt>
      <trkpt lat="46.82516" lon="6.37546">
        <ele>1070.7</ele>
        <time>2021-08-14T12:08:15Z</time>
      </trkpt>
      <trkpt lat="46.82513" lon="6.37549">
        <ele>1070.5</ele>
        <time>2021-08-14T12:08:17Z</time>
      </trkpt>
      <trkpt lat="46.82512" lon="6.3755">
        <ele>1070.5</ele>
        <time>2021-08-14T12:08:19Z</time>
      </trkpt>
      <trkpt lat="46.82512" lon="6.3755">
        <ele>1070.4</ele>
        <time>2021-08-14T12:08:21Z</time>
      </trkpt>
      <trkpt lat="46.82512" lon="6.3755">
        <ele>1070.4</ele>
        <time>2021-08-14T12:08:22Z</time>
      </trkpt>
      <trkpt lat="46.82512" lon="6.3755">
        <ele>1070.4</ele>
        <time>2021-08-14T12:08:24Z</time>
      </trkpt>
      <trkpt lat="46.82512" lon="6.3755">
        <ele>1070.4</ele>
        <time>2021-08-14T12:08:25Z</time>
      </trkpt>
      <trkpt lat="46.82512" lon="6.3755">
        <ele>1070.4</ele>
        <time>2021-08-14T12:08:26Z</time>
      </trkpt>
      <trkpt lat="46.82512" lon="6.3755">
        <ele>1070.4</ele>
        <time>2021-08-14T12:08:27Z</time>
      </trkpt>
      <trkpt lat="46.82512" lon="6.3755">
        <ele>1070.4</ele>
        <time>2021-08-14T12:08:28Z</time>
      </trkpt>
      <trkpt lat="46.82512" lon="6.3755">
        <ele>1070.4</ele>
        <time>2021-08-14T12:08:30Z</time>
      </trkpt>
      <trkpt lat="46.82512" lon="6.3755">
        <ele>1070.4</ele>
        <time>2021-08-14T12:08:31Z</time>
      </trkpt>
      <trkpt lat="46.82512" lon="6.3755">
        <ele>1070.4</ele>
        <time>2021-08-14T12:08:32Z</time>
      </trkpt>
      <trkpt lat="46.82509" lon="6.37549">
        <ele>1070.3</ele>
        <time>2021-08-14T12:08:34Z</time>
      </trkpt>
      <trkpt lat="46.82509" lon="6.37549">
        <ele>1070.3</ele>
        <time>2021-08-14T12:08:35Z</time>
      </trkpt>
      <trkpt lat="46.82508" lon="6.37545">
        <ele>1070.2</ele>
        <time>2021-08-14T12:08:37Z</time>
      </trkpt>
      <trkpt lat="46.82514" lon="6.37546">
        <ele>1069.9</ele>
        <time>2021-08-14T12:08:39Z</time>
      </trkpt>
      <trkpt lat="46.82519" lon="6.37551">
        <ele>1069.6</ele>
        <time>2021-08-14T12:08:40Z</time>
      </trkpt>
      <trkpt lat="46.82524" lon="6.37556">
        <ele>1069.3</ele>
        <time>2021-08-14T12:08:42Z</time>
      </trkpt>
      <trkpt lat="46.82527" lon="6.37559">
        <ele>1069.1</ele>
        <time>2021-08-14T12:08:44Z</time>
      </trkpt>
      <trkpt lat="46.82529" lon="6.37563">
        <ele>1069</ele>
        <time>2021-08-14T12:08:46Z</time>
      </trkpt>
      <trkpt lat="46.8253" lon="6.37565">
        <ele>1068.9</ele>
        <time>2021-08-14T12:08:48Z</time>
      </trkpt>
      <trkpt lat="46.8253" lon="6.37567">
        <ele>1068.8</ele>
        <time>2021-08-14T12:08:50Z</time>
      </trkpt>
      <trkpt lat="46.82531" lon="6.37568">
        <ele>1068.8</ele>
        <time>2021-08-14T12:08:52Z</time>
      </trkpt>
      <trkpt lat="46.82531" lon="6.37568">
        <ele>1068.8</ele>
        <time>2021-08-14T12:08:54Z</time>
      </trkpt>
      <trkpt lat="46.82531" lon="6.37568">
        <ele>1068.8</ele>
        <time>2021-08-14T12:08:55Z</time>
      </trkpt>
      <trkpt lat="46.82531" lon="6.37568">
        <ele>1068.8</ele>
        <time>2021-08-14T12:08:56Z</time>
      </trkpt>
      <trkpt lat="46.82531" lon="6.37568">
        <ele>1068.8</ele>
        <time>2021-08-14T12:08:58Z</time>
      </trkpt>
      <trkpt lat="46.82516" lon="6.37536">
        <ele>1067.5</ele>
        <time>2021-08-14T12:35:26Z</time>
      </trkpt>
      <trkpt lat="46.82514" lon="6.37531">
        <ele>1067.3</ele>
        <time>2021-08-14T12:35:28Z</time>
      </trkpt>
      <trkpt lat="46.82512" lon="6.37529">
        <ele>1067.1</ele>
        <time>2021-08-14T12:35:29Z</time>
      </trkpt>
      <trkpt lat="46.82512" lon="6.37528">
        <ele>1067.1</ele>
        <time>2021-08-14T12:35:30Z</time>
      </trkpt>
      <trkpt lat="46.8251" lon="6.37523">
        <ele>1066.9</ele>
        <time>2021-08-14T12:35:32Z</time>
      </trkpt>
      <trkpt lat="46.82509" lon="6.37519">
        <ele>1066.7</ele>
        <time>2021-08-14T12:35:33Z</time>
      </trkpt>
      <trkpt lat="46.82507" lon="6.37516">
        <ele>1066.5</ele>
        <time>2021-08-14T12:35:35Z</time>
      </trkpt>
      <trkpt lat="46.82506" lon="6.37512">
        <ele>1066.3</ele>
        <time>2021-08-14T12:35:36Z</time>
      </trkpt>
      <trkpt lat="46.82504" lon="6.37509">
        <ele>1066.2</ele>
        <time>2021-08-14T12:35:38Z</time>
      </trkpt>
      <trkpt lat="46.82503" lon="6.37505">
        <ele>1066</ele>
        <time>2021-08-14T12:36:03Z</time>
      </trkpt>
      <trkpt lat="46.82501" lon="6.37502">
        <ele>1065.8</ele>
        <time>2021-08-14T12:36:04Z</time>
      </trkpt>
      <trkpt lat="46.825" lon="6.37498">
        <ele>1065.6</ele>
        <time>2021-08-14T12:36:06Z</time>
      </trkpt>
      <trkpt lat="46.82499" lon="6.37494">
        <ele>1065.4</ele>
        <time>2021-08-14T12:36:07Z</time>
      </trkpt>
      <trkpt lat="46.82498" lon="6.3749">
        <ele>1065.2</ele>
        <time>2021-08-14T12:36:08Z</time>
      </trkpt>
      <trkpt lat="46.82498" lon="6.37487">
        <ele>1065.1</ele>
        <time>2021-08-14T12:36:10Z</time>
      </trkpt>
      <trkpt lat="46.82497" lon="6.37485">
        <ele>1065</ele>
        <time>2021-08-14T12:36:11Z</time>
      </trkpt>
      <trkpt lat="46.82497" lon="6.37482">
        <ele>1064.9</ele>
        <time>2021-08-14T12:36:12Z</time>
      </trkpt>
      <trkpt lat="46.82497" lon="6.3748">
        <ele>1064.7</ele>
        <time>2021-08-14T12:36:13Z</time>
      </trkpt>
      <trkpt lat="46.82496" lon="6.37477">
        <ele>1064.6</ele>
        <time>2021-08-14T12:36:14Z</time>
      </trkpt>
      <trkpt lat="46.82496" lon="6.37474">
        <ele>1064.5</ele>
        <time>2021-08-14T12:36:16Z</time>
      </trkpt>
      <trkpt lat="46.82497" lon="6.37469">
        <ele>1064.2</ele>
        <time>2021-08-14T12:36:17Z</time>
      </trkpt>
      <trkpt lat="46.82498" lon="6.37467">
        <ele>1064.1</ele>
        <time>2021-08-14T12:36:18Z</time>
      </trkpt>
      <trkpt lat="46.82501" lon="6.37459">
        <ele>1063.7</ele>
        <time>2021-08-14T12:36:20Z</time>
      </trkpt>
      <trkpt lat="46.82502" lon="6.37455">
        <ele>1063.4</ele>
        <time>2021-08-14T12:36:21Z</time>
      </trkpt>
      <trkpt lat="46.82503" lon="6.37447">
        <ele>1063</ele>
        <time>2021-08-14T12:36:23Z</time>
      </trkpt>
      <trkpt lat="46.82503" lon="6.3744">
        <ele>1062.7</ele>
        <time>2021-08-14T12:36:24Z</time>
      </trkpt>
      <trkpt lat="46.825" lon="6.37432">
        <ele>1062.2</ele>
        <time>2021-08-14T12:36:25Z</time>
      </trkpt>
      <trkpt lat="46.82498" lon="6.37428">
        <ele>1062</ele>
        <time>2021-08-14T12:36:26Z</time>
      </trkpt>
      <trkpt lat="46.82496" lon="6.37425">
        <ele>1061.8</ele>
        <time>2021-08-14T12:36:27Z</time>
      </trkpt>
      <trkpt lat="46.82493" lon="6.37423">
        <ele>1061.6</ele>
        <time>2021-08-14T12:36:28Z</time>
      </trkpt>
      <trkpt lat="46.8249" lon="6.3742">
        <ele>1061.3</ele>
        <time>2021-08-14T12:36:30Z</time>
      </trkpt>
      <trkpt lat="46.8249" lon="6.3742">
        <ele>1061.3</ele>
        <time>2021-08-14T12:36:31Z</time>
      </trkpt>
      <trkpt lat="46.82486" lon="6.37417">
        <ele>1061</ele>
        <time>2021-08-14T12:36:32Z</time>
      </trkpt>
      <trkpt lat="46.82485" lon="6.37416">
        <ele>1060.9</ele>
        <time>2021-08-14T12:36:33Z</time>
      </trkpt>
      <trkpt lat="46.82482" lon="6.37414">
        <ele>1060.7</ele>
        <time>2021-08-14T12:36:35Z</time>
      </trkpt>
      <trkpt lat="46.82481" lon="6.37414">
        <ele>1060.7</ele>
        <time>2021-08-14T12:36:36Z</time>
      </trkpt>
      <trkpt lat="46.8248" lon="6.37413">
        <ele>1060.6</ele>
        <time>2021-08-14T12:36:37Z</time>
      </trkpt>
      <trkpt lat="46.82479" lon="6.37413">
        <ele>1060.6</ele>
        <time>2021-08-14T12:36:38Z</time>
      </trkpt>
      <trkpt lat="46.82479" lon="6.37412">
        <ele>1060.5</ele>
        <time>2021-08-14T12:36:39Z</time>
      </trkpt>
      <trkpt lat="46.82478" lon="6.3741">
        <ele>1060.4</ele>
        <time>2021-08-14T12:36:40Z</time>
      </trkpt>
      <trkpt lat="46.82477" lon="6.37409">
        <ele>1060.3</ele>
        <time>2021-08-14T12:36:41Z</time>
      </trkpt>
      <trkpt lat="46.82476" lon="6.37408">
        <ele>1060.2</ele>
        <time>2021-08-14T12:36:43Z</time>
      </trkpt>
      <trkpt lat="46.82476" lon="6.37407">
        <ele>1060.2</ele>
        <time>2021-08-14T12:36:44Z</time>
      </trkpt>
      <trkpt lat="46.82475" lon="6.37406">
        <ele>1060.2</ele>
        <time>2021-08-14T12:36:46Z</time>
      </trkpt>
      <trkpt lat="46.82473" lon="6.37402">
        <ele>1060</ele>
        <time>2021-08-14T12:36:48Z</time>
      </trkpt>
      <trkpt lat="46.82471" lon="6.37399">
        <ele>1059.8</ele>
        <time>2021-08-14T12:36:49Z</time>
      </trkpt>
      <trkpt lat="46.82469" lon="6.37391">
        <ele>1059.4</ele>
        <time>2021-08-14T12:36:51Z</time>
      </trkpt>
      <trkpt lat="46.82467" lon="6.37385">
        <ele>1059.2</ele>
        <time>2021-08-14T12:36:52Z</time>
      </trkpt>
      <trkpt lat="46.82465" lon="6.37375">
        <ele>1058.8</ele>
        <time>2021-08-14T12:36:53Z</time>
      </trkpt>
      <trkpt lat="46.82464" lon="6.37367">
        <ele>1058.5</ele>
        <time>2021-08-14T12:36:54Z</time>
      </trkpt>
      <trkpt lat="46.82461" lon="6.37359">
        <ele>1058.1</ele>
        <time>2021-08-14T12:36:56Z</time>
      </trkpt>
      <trkpt lat="46.82458" lon="6.37355">
        <ele>1057.9</ele>
        <time>2021-08-14T12:36:57Z</time>
      </trkpt>
      <trkpt lat="46.82454" lon="6.37353">
        <ele>1057.6</ele>
        <time>2021-08-14T12:36:58Z</time>
      </trkpt>
      <trkpt lat="46.82451" lon="6.37353">
        <ele>1057.5</ele>
        <time>2021-08-14T12:37:00Z</time>
      </trkpt>
      <trkpt lat="46.8245" lon="6.37353">
        <ele>1057.4</ele>
        <time>2021-08-14T12:37:01Z</time>
      </trkpt>
      <trkpt lat="46.82444" lon="6.37356">
        <ele>1057</ele>
        <time>2021-08-14T12:37:02Z</time>
      </trkpt>
      <trkpt lat="46.82439" lon="6.37359">
        <ele>1056.8</ele>
        <time>2021-08-14T12:37:04Z</time>
      </trkpt>
      <trkpt lat="46.82436" lon="6.37362">
        <ele>1056.6</ele>
        <time>2021-08-14T12:37:05Z</time>
      </trkpt>
      <trkpt lat="46.8243" lon="6.37367">
        <ele>1056.4</ele>
        <time>2021-08-14T12:37:06Z</time>
      </trkpt>
      <trkpt lat="46.82426" lon="6.3737">
        <ele>1056.3</ele>
        <time>2021-08-14T12:37:08Z</time>
      </trkpt>
      <trkpt lat="46.82422" lon="6.37371">
        <ele>1056.2</ele>
        <time>2021-08-14T12:37:09Z</time>
      </trkpt>
      <trkpt lat="46.82419" lon="6.37373">
        <ele>1056.2</ele>
        <time>2021-08-14T12:37:10Z</time>
      </trkpt>
      <trkpt lat="46.82416" lon="6.37373">
        <ele>1056.1</ele>
        <time>2021-08-14T12:37:11Z</time>
      </trkpt>
      <trkpt lat="46.82412" lon="6.37373">
        <ele>1056.1</ele>
        <time>2021-08-14T12:37:13Z</time>
      </trkpt>
      <trkpt lat="46.82411" lon="6.37372">
        <ele>1056.1</ele>
        <time>2021-08-14T12:37:14Z</time>
      </trkpt>
      <trkpt lat="46.8241" lon="6.3737">
        <ele>1056.1</ele>
        <time>2021-08-14T12:37:16Z</time>
      </trkpt>
      <trkpt lat="46.82409" lon="6.37368">
        <ele>1056.1</ele>
        <time>2021-08-14T12:37:17Z</time>
      </trkpt>
      <trkpt lat="46.82407" lon="6.37366">
        <ele>1056.1</ele>
        <time>2021-08-14T12:37:18Z</time>
      </trkpt>
      <trkpt lat="46.82406" lon="6.37365">
        <ele>1056.1</ele>
        <time>2021-08-14T12:37:20Z</time>
      </trkpt>
      <trkpt lat="46.82406" lon="6.37365">
        <ele>1056.1</ele>
        <time>2021-08-14T12:37:21Z</time>
      </trkpt>
      <trkpt lat="46.82405" lon="6.37364">
        <ele>1056.1</ele>
        <time>2021-08-14T12:37:22Z</time>
      </trkpt>
      <trkpt lat="46.82404" lon="6.37364">
        <ele>1056.1</ele>
        <time>2021-08-14T12:37:23Z</time>
      </trkpt>
      <trkpt lat="46.82403" lon="6.37364">
        <ele>1056.1</ele>
        <time>2021-08-14T12:37:24Z</time>
      </trkpt>
      <trkpt lat="46.82403" lon="6.37364">
        <ele>1056.2</ele>
        <time>2021-08-14T12:37:26Z</time>
      </trkpt>
      <trkpt lat="46.82401" lon="6.37364">
        <ele>1056.2</ele>
        <time>2021-08-14T12:37:27Z</time>
      </trkpt>
      <trkpt lat="46.824" lon="6.37365">
        <ele>1056.2</ele>
        <time>2021-08-14T12:37:28Z</time>
      </trkpt>
      <trkpt lat="46.82332" lon="6.3737">
        <ele>1060.1</ele>
        <time>2021-08-14T12:38:09Z</time>
      </trkpt>
      <trkpt lat="46.82329" lon="6.3737">
        <ele>1060.4</ele>
        <time>2021-08-14T12:38:10Z</time>
      </trkpt>
      <trkpt lat="46.82323" lon="6.3737">
        <ele>1060.8</ele>
        <time>2021-08-14T12:38:11Z</time>
      </trkpt>
      <trkpt lat="46.82317" lon="6.37369">
        <ele>1061.1</ele>
        <time>2021-08-14T12:38:13Z</time>
      </trkpt>
      <trkpt lat="46.82313" lon="6.37368">
        <ele>1061.3</ele>
        <time>2021-08-14T12:38:14Z</time>
      </trkpt>
      <trkpt lat="46.82307" lon="6.37367">
        <ele>1061.4</ele>
        <time>2021-08-14T12:38:16Z</time>
      </trkpt>
      <trkpt lat="46.82299" lon="6.3737">
        <ele>1061.6</ele>
        <time>2021-08-14T12:38:18Z</time>
      </trkpt>
      <trkpt lat="46.82296" lon="6.37371">
        <ele>1061.6</ele>
        <time>2021-08-14T12:38:19Z</time>
      </trkpt>
      <trkpt lat="46.82293" lon="6.37371">
        <ele>1061.6</ele>
        <time>2021-08-14T12:38:20Z</time>
      </trkpt>
      <trkpt lat="46.82289" lon="6.37372">
        <ele>1061.5</ele>
        <time>2021-08-14T12:38:22Z</time>
      </trkpt>
      <trkpt lat="46.82286" lon="6.37374">
        <ele>1061.5</ele>
        <time>2021-08-14T12:38:23Z</time>
      </trkpt>
      <trkpt lat="46.82285" lon="6.37375">
        <ele>1061.5</ele>
        <time>2021-08-14T12:38:24Z</time>
      </trkpt>
      <trkpt lat="46.82283" lon="6.37377">
        <ele>1061.4</ele>
        <time>2021-08-14T12:38:25Z</time>
      </trkpt>
      <trkpt lat="46.82281" lon="6.3738">
        <ele>1061.4</ele>
        <time>2021-08-14T12:38:26Z</time>
      </trkpt>
      <trkpt lat="46.8228" lon="6.3738">
        <ele>1061.3</ele>
        <time>2021-08-14T12:38:27Z</time>
      </trkpt>
      <trkpt lat="46.82279" lon="6.37381">
        <ele>1061.3</ele>
        <time>2021-08-14T12:38:28Z</time>
      </trkpt>
      <trkpt lat="46.82277" lon="6.37382">
        <ele>1061.3</ele>
        <time>2021-08-14T12:38:29Z</time>
      </trkpt>
      <trkpt lat="46.82274" lon="6.37384">
        <ele>1061.3</ele>
        <time>2021-08-14T12:38:31Z</time>
      </trkpt>
      <trkpt lat="46.82273" lon="6.37385">
        <ele>1061.2</ele>
        <time>2021-08-14T12:38:32Z</time>
      </trkpt>
      <trkpt lat="46.82268" lon="6.37385">
        <ele>1061.2</ele>
        <time>2021-08-14T12:38:34Z</time>
      </trkpt>
      <trkpt lat="46.82265" lon="6.37385">
        <ele>1061.1</ele>
        <time>2021-08-14T12:38:35Z</time>
      </trkpt>
      <trkpt lat="46.82262" lon="6.37386">
        <ele>1061.1</ele>
        <time>2021-08-14T12:38:36Z</time>
      </trkpt>
      <trkpt lat="46.82255" lon="6.37387">
        <ele>1061.2</ele>
        <time>2021-08-14T12:38:38Z</time>
      </trkpt>
      <trkpt lat="46.82252" lon="6.37385">
        <ele>1061.2</ele>
        <time>2021-08-14T12:38:39Z</time>
      </trkpt>
      <trkpt lat="46.82249" lon="6.37382">
        <ele>1061.3</ele>
        <time>2021-08-14T12:38:40Z</time>
      </trkpt>
      <trkpt lat="46.82246" lon="6.37378">
        <ele>1061.4</ele>
        <time>2021-08-14T12:38:42Z</time>
      </trkpt>
      <trkpt lat="46.82244" lon="6.37376">
        <ele>1061.5</ele>
        <time>2021-08-14T12:38:43Z</time>
      </trkpt>
      <trkpt lat="46.82241" lon="6.37375">
        <ele>1061.6</ele>
        <time>2021-08-14T12:38:44Z</time>
      </trkpt>
      <trkpt lat="46.82236" lon="6.37372">
        <ele>1061.8</ele>
        <time>2021-08-14T12:38:46Z</time>
      </trkpt>
      <trkpt lat="46.82234" lon="6.37371">
        <ele>1061.8</ele>
        <time>2021-08-14T12:38:47Z</time>
      </trkpt>
      <trkpt lat="46.8223" lon="6.37365">
        <ele>1062.1</ele>
        <time>2021-08-14T12:38:49Z</time>
      </trkpt>
      <trkpt lat="46.82224" lon="6.37361">
        <ele>1062.3</ele>
        <time>2021-08-14T12:38:50Z</time>
      </trkpt>
      <trkpt lat="46.82223" lon="6.37361">
        <ele>1062.3</ele>
        <time>2021-08-14T12:38:51Z</time>
      </trkpt>
      <trkpt lat="46.82219" lon="6.37361">
        <ele>1062.4</ele>
        <time>2021-08-14T12:38:53Z</time>
      </trkpt>
      <trkpt lat="46.82216" lon="6.37363">
        <ele>1062.4</ele>
        <time>2021-08-14T12:38:54Z</time>
      </trkpt>
      <trkpt lat="46.82216" lon="6.37364">
        <ele>1062.4</ele>
        <time>2021-08-14T12:38:55Z</time>
      </trkpt>
      <trkpt lat="46.82214" lon="6.37365">
        <ele>1062.4</ele>
        <time>2021-08-14T12:38:57Z</time>
      </trkpt>
      <trkpt lat="46.82213" lon="6.37367">
        <ele>1062.4</ele>
        <time>2021-08-14T12:38:58Z</time>
      </trkpt>
      <trkpt lat="46.82212" lon="6.37369">
        <ele>1062.4</ele>
        <time>2021-08-14T12:38:59Z</time>
      </trkpt>
      <trkpt lat="46.8221" lon="6.37371">
        <ele>1062.4</ele>
        <time>2021-08-14T12:39:01Z</time>
      </trkpt>
      <trkpt lat="46.8221" lon="6.37371">
        <ele>1062.4</ele>
        <time>2021-08-14T12:39:01Z</time>
      </trkpt>
      <trkpt lat="46.82207" lon="6.37372">
        <ele>1062.4</ele>
        <time>2021-08-14T12:39:02Z</time>
      </trkpt>
      <trkpt lat="46.82203" lon="6.37372">
        <ele>1062.3</ele>
        <time>2021-08-14T12:39:04Z</time>
      </trkpt>
      <trkpt lat="46.82199" lon="6.37372">
        <ele>1062.2</ele>
        <time>2021-08-14T12:39:05Z</time>
      </trkpt>
      <trkpt lat="46.82194" lon="6.37374">
        <ele>1062.2</ele>
        <time>2021-08-14T12:39:07Z</time>
      </trkpt>
      <trkpt lat="46.82191" lon="6.37375">
        <ele>1062.1</ele>
        <time>2021-08-14T12:39:08Z</time>
      </trkpt>
      <trkpt lat="46.82187" lon="6.37375">
        <ele>1062</ele>
        <time>2021-08-14T12:39:10Z</time>
      </trkpt>
      <trkpt lat="46.82185" lon="6.37372">
        <ele>1062</ele>
        <time>2021-08-14T12:39:11Z</time>
      </trkpt>
      <trkpt lat="46.82181" lon="6.37368">
        <ele>1062</ele>
        <time>2021-08-14T12:39:12Z</time>
      </trkpt>
      <trkpt lat="46.8218" lon="6.37367">
        <ele>1062</ele>
        <time>2021-08-14T12:39:13Z</time>
      </trkpt>
      <trkpt lat="46.82177" lon="6.37366">
        <ele>1062</ele>
        <time>2021-08-14T12:39:15Z</time>
      </trkpt>
      <trkpt lat="46.82174" lon="6.37363">
        <ele>1062</ele>
        <time>2021-08-14T12:39:16Z</time>
      </trkpt>
      <trkpt lat="46.82173" lon="6.37367">
        <ele>1062</ele>
        <time>2021-08-14T12:39:18Z</time>
      </trkpt>
      <trkpt lat="46.82173" lon="6.37369">
        <ele>1062</ele>
        <time>2021-08-14T12:39:19Z</time>
      </trkpt>
      <trkpt lat="46.82172" lon="6.37369">
        <ele>1062</ele>
        <time>2021-08-14T12:39:21Z</time>
      </trkpt>
      <trkpt lat="46.82171" lon="6.37369">
        <ele>1062</ele>
        <time>2021-08-14T12:39:22Z</time>
      </trkpt>
      <trkpt lat="46.8217" lon="6.3737">
        <ele>1062</ele>
        <time>2021-08-14T12:39:23Z</time>
      </trkpt>
      <trkpt lat="46.8217" lon="6.37371">
        <ele>1062</ele>
        <time>2021-08-14T12:39:24Z</time>
      </trkpt>
      <trkpt lat="46.82168" lon="6.37374">
        <ele>1062.1</ele>
        <time>2021-08-14T12:39:25Z</time>
      </trkpt>
      <trkpt lat="46.82085" lon="6.37485">
        <ele>1070.6</ele>
        <time>2021-08-14T12:40:55Z</time>
      </trkpt>
      <trkpt lat="46.82083" lon="6.37489">
        <ele>1070.9</ele>
        <time>2021-08-14T12:40:56Z</time>
      </trkpt>
      <trkpt lat="46.82081" lon="6.37497">
        <ele>1071.3</ele>
        <time>2021-08-14T12:40:58Z</time>
      </trkpt>
      <trkpt lat="46.8208" lon="6.37501">
        <ele>1071.6</ele>
        <time>2021-08-14T12:40:59Z</time>
      </trkpt>
      <trkpt lat="46.82079" lon="6.37509">
        <ele>1072</ele>
        <time>2021-08-14T12:41:01Z</time>
      </trkpt>
      <trkpt lat="46.82078" lon="6.37514">
        <ele>1072.2</ele>
        <time>2021-08-14T12:41:02Z</time>
      </trkpt>
      <trkpt lat="46.82077" lon="6.37518">
        <ele>1072.4</ele>
        <time>2021-08-14T12:41:04Z</time>
      </trkpt>
      <trkpt lat="46.82076" lon="6.37524">
        <ele>1072.6</ele>
        <time>2021-08-14T12:41:05Z</time>
      </trkpt>
      <trkpt lat="46.82078" lon="6.37528">
        <ele>1072.8</ele>
        <time>2021-08-14T12:41:06Z</time>
      </trkpt>
      <trkpt lat="46.82078" lon="6.3753">
        <ele>1072.8</ele>
        <time>2021-08-14T12:41:07Z</time>
      </trkpt>
      <trkpt lat="46.82078" lon="6.37534">
        <ele>1073</ele>
        <time>2021-08-14T12:41:09Z</time>
      </trkpt>
      <trkpt lat="46.82078" lon="6.37534">
        <ele>1073</ele>
        <time>2021-08-14T12:41:10Z</time>
      </trkpt>
      <trkpt lat="46.82078" lon="6.37534">
        <ele>1073</ele>
        <time>2021-08-14T12:41:12Z</time>
      </trkpt>
      <trkpt lat="46.82077" lon="6.37535">
        <ele>1073</ele>
        <time>2021-08-14T12:41:13Z</time>
      </trkpt>
      <trkpt lat="46.82077" lon="6.37535">
        <ele>1073</ele>
        <time>2021-08-14T12:41:15Z</time>
      </trkpt>
      <trkpt lat="46.81999" lon="6.37645">
        <ele>1081.8</ele>
        <time>2021-08-14T12:42:47Z</time>
      </trkpt>
      <trkpt lat="46.81998" lon="6.37642">
        <ele>1081.8</ele>
        <time>2021-08-14T12:42:48Z</time>
      </trkpt>
      <trkpt lat="46.81997" lon="6.37637">
        <ele>1081.8</ele>
        <time>2021-08-14T12:42:50Z</time>
      </trkpt>
      <trkpt lat="46.81997" lon="6.37632">
        <ele>1084</ele>
        <time>2021-08-14T12:42:51Z</time>
      </trkpt>
      <trkpt lat="46.81996" lon="6.37626">
        <ele>1084.1</ele>
        <time>2021-08-14T12:42:53Z</time>
      </trkpt>
      <trkpt lat="46.81994" lon="6.37623">
        <ele>1084.2</ele>
        <time>2021-08-14T12:42:54Z</time>
      </trkpt>
      <trkpt lat="46.81992" lon="6.37619">
        <ele>1084.3</ele>
        <time>2021-08-14T12:42:55Z</time>
      </trkpt>
      <trkpt lat="46.81988" lon="6.37615">
        <ele>1084.4</ele>
        <time>2021-08-14T12:42:56Z</time>
      </trkpt>
      <trkpt lat="46.81987" lon="6.37614">
        <ele>1084.5</ele>
        <time>2021-08-14T12:42:57Z</time>
      </trkpt>
      <trkpt lat="46.81984" lon="6.37614">
        <ele>1084.5</ele>
        <time>2021-08-14T12:42:59Z</time>
      </trkpt>
      <trkpt lat="46.81982" lon="6.37613">
        <ele>1084.6</ele>
        <time>2021-08-14T12:43:00Z</time>
      </trkpt>
      <trkpt lat="46.81981" lon="6.37611">
        <ele>1084.6</ele>
        <time>2021-08-14T12:43:01Z</time>
      </trkpt>
      <trkpt lat="46.81981" lon="6.37609">
        <ele>1084.6</ele>
        <time>2021-08-14T12:43:02Z</time>
      </trkpt>
      <trkpt lat="46.81981" lon="6.37604">
        <ele>1084.7</ele>
        <time>2021-08-14T12:43:04Z</time>
      </trkpt>
      <trkpt lat="46.81981" lon="6.376">
        <ele>1084.7</ele>
        <time>2021-08-14T12:43:05Z</time>
      </trkpt>
      <trkpt lat="46.81981" lon="6.37598">
        <ele>1084.7</ele>
        <time>2021-08-14T12:43:06Z</time>
      </trkpt>
      <trkpt lat="46.8198" lon="6.37591">
        <ele>1084.7</ele>
        <time>2021-08-14T12:43:08Z</time>
      </trkpt>
      <trkpt lat="46.81978" lon="6.37584">
        <ele>1084.8</ele>
        <time>2021-08-14T12:43:09Z</time>
      </trkpt>
      <trkpt lat="46.81977" lon="6.37577">
        <ele>1084.8</ele>
        <time>2021-08-14T12:43:11Z</time>
      </trkpt>
      <trkpt lat="46.81977" lon="6.37573">
        <ele>1084.8</ele>
        <time>2021-08-14T12:43:12Z</time>
      </trkpt>
      <trkpt lat="46.81977" lon="6.37569">
        <ele>1084.9</ele>
        <time>2021-08-14T12:43:13Z</time>
      </trkpt>
      <trkpt lat="46.81975" lon="6.37565">
        <ele>1084.9</ele>
        <time>2021-08-14T12:43:14Z</time>
      </trkpt>
      <trkpt lat="46.81973" lon="6.37562">
        <ele>1085</ele>
        <time>2021-08-14T12:43:15Z</time>
      </trkpt>
      <trkpt lat="46.81973" lon="6.37561">
        <ele>1085</ele>
        <time>2021-08-14T12:43:16Z</time>
      </trkpt>
      <trkpt lat="46.81973" lon="6.37558">
        <ele>1085</ele>
        <time>2021-08-14T12:43:17Z</time>
      </trkpt>
      <trkpt lat="46.81973" lon="6.37554">
        <ele>1085.1</ele>
        <time>2021-08-14T12:43:19Z</time>
      </trkpt>
      <trkpt lat="46.81972" lon="6.37548">
        <ele>1085.2</ele>
        <time>2021-08-14T12:43:20Z</time>
      </trkpt>
      <trkpt lat="46.81972" lon="6.37546">
        <ele>1085.2</ele>
        <time>2021-08-14T12:43:21Z</time>
      </trkpt>
      <trkpt lat="46.81972" lon="6.37541">
        <ele>1085.4</ele>
        <time>2021-08-14T12:43:22Z</time>
      </trkpt>
      <trkpt lat="46.81973" lon="6.37537">
        <ele>1085.5</ele>
        <time>2021-08-14T12:43:24Z</time>
      </trkpt>
      <trkpt lat="46.81973" lon="6.37533">
        <ele>1085.6</ele>
        <time>2021-08-14T12:43:26Z</time>
      </trkpt>
      <trkpt lat="46.81973" lon="6.37528">
        <ele>1085.7</ele>
        <time>2021-08-14T12:43:27Z</time>
      </trkpt>
      <trkpt lat="46.81974" lon="6.37524">
        <ele>1085.9</ele>
        <time>2021-08-14T12:43:28Z</time>
      </trkpt>
      <trkpt lat="46.81974" lon="6.37518">
        <ele>1086</ele>
        <time>2021-08-14T12:43:29Z</time>
      </trkpt>
      <trkpt lat="46.81973" lon="6.37512">
        <ele>1086.2</ele>
        <time>2021-08-14T12:43:31Z</time>
      </trkpt>
      <trkpt lat="46.81972" lon="6.37508">
        <ele>1086.2</ele>
        <time>2021-08-14T12:43:32Z</time>
      </trkpt>
      <trkpt lat="46.81971" lon="6.37507">
        <ele>1086.3</ele>
        <time>2021-08-14T12:43:34Z</time>
      </trkpt>
      <trkpt lat="46.8197" lon="6.37505">
        <ele>1086.3</ele>
        <time>2021-08-14T12:43:35Z</time>
      </trkpt>
      <trkpt lat="46.8197" lon="6.37502">
        <ele>1086.4</ele>
        <time>2021-08-14T12:43:37Z</time>
      </trkpt>
      <trkpt lat="46.8197" lon="6.37499">
        <ele>1086.4</ele>
        <time>2021-08-14T12:43:38Z</time>
      </trkpt>
      <trkpt lat="46.81971" lon="6.37497">
        <ele>1086.4</ele>
        <time>2021-08-14T12:43:39Z</time>
      </trkpt>
      <trkpt lat="46.8197" lon="6.37492">
        <ele>1086.4</ele>
        <time>2021-08-14T12:43:41Z</time>
      </trkpt>
      <trkpt lat="46.81969" lon="6.37483">
        <ele>1086.4</ele>
        <time>2021-08-14T12:43:42Z</time>
      </trkpt>
      <trkpt lat="46.81968" lon="6.37473">
        <ele>1086.3</ele>
        <time>2021-08-14T12:43:44Z</time>
      </trkpt>
      <trkpt lat="46.81967" lon="6.37457">
        <ele>1085.9</ele>
        <time>2021-08-14T12:43:45Z</time>
      </trkpt>
      <trkpt lat="46.81964" lon="6.3744">
        <ele>1085.4</ele>
        <time>2021-08-14T12:43:47Z</time>
      </trkpt>
      <trkpt lat="46.81963" lon="6.37432">
        <ele>1085.2</ele>
        <time>2021-08-14T12:43:48Z</time>
      </trkpt>
      <trkpt lat="46.81962" lon="6.37429">
        <ele>1085.1</ele>
        <time>2021-08-14T12:43:49Z</time>
      </trkpt>
      <trkpt lat="46.81956" lon="6.37414">
        <ele>1084.7</ele>
        <time>2021-08-14T12:43:51Z</time>
      </trkpt>
      <trkpt lat="46.81952" lon="6.37401">
        <ele>1084.3</ele>
        <time>2021-08-14T12:43:52Z</time>
      </trkpt>
      <trkpt lat="46.81949" lon="6.37395">
        <ele>1084.1</ele>
        <time>2021-08-14T12:43:53Z</time>
      </trkpt>
      <trkpt lat="46.81945" lon="6.37388">
        <ele>1084</ele>
        <time>2021-08-14T12:43:55Z</time>
      </trkpt>
      <trkpt lat="46.81942" lon="6.37382">
        <ele>1083.8</ele>
        <time>2021-08-14T12:43:56Z</time>
      </trkpt>
      <trkpt lat="46.81937" lon="6.37377">
        <ele>1083.7</ele>
        <time>2021-08-14T12:43:57Z</time>
      </trkpt>
      <trkpt lat="46.81932" lon="6.37372">
        <ele>1083.6</ele>
        <time>2021-08-14T12:43:58Z</time>
      </trkpt>
      <trkpt lat="46.81925" lon="6.37367">
        <ele>1083.4</ele>
        <time>2021-08-14T12:44:00Z</time>
      </trkpt>
      <trkpt lat="46.81916" lon="6.37364">
        <ele>1083.3</ele>
        <time>2021-08-14T12:44:02Z</time>
      </trkpt>
      <trkpt lat="46.8191" lon="6.3736">
        <ele>1083.3</ele>
        <time>2021-08-14T12:44:03Z</time>
      </trkpt>
      <trkpt lat="46.819" lon="6.37356">
        <ele>1083.2</ele>
        <time>2021-08-14T12:44:05Z</time>
      </trkpt>
      <trkpt lat="46.81893" lon="6.37355">
        <ele>1083.1</ele>
        <time>2021-08-14T12:44:07Z</time>
      </trkpt>
      <trkpt lat="46.81889" lon="6.37353">
        <ele>1083.1</ele>
        <time>2021-08-14T12:44:08Z</time>
      </trkpt>
      <trkpt lat="46.81884" lon="6.37352">
        <ele>1083.1</ele>
        <time>2021-08-14T12:44:09Z</time>
      </trkpt>
      <trkpt lat="46.81874" lon="6.3735">
        <ele>1083</ele>
        <time>2021-08-14T12:44:11Z</time>
      </trkpt>
      <trkpt lat="46.81869" lon="6.37348">
        <ele>1083</ele>
        <time>2021-08-14T12:44:12Z</time>
      </trkpt>
      <trkpt lat="46.81859" lon="6.37345">
        <ele>1082.9</ele>
        <time>2021-08-14T12:44:14Z</time>
      </trkpt>
      <trkpt lat="46.81853" lon="6.37347">
        <ele>1082.9</ele>
        <time>2021-08-14T12:44:15Z</time>
      </trkpt>
      <trkpt lat="46.81849" lon="6.37346">
        <ele>1082.9</ele>
        <time>2021-08-14T12:44:17Z</time>
      </trkpt>
      <trkpt lat="46.81843" lon="6.37343">
        <ele>1083</ele>
        <time>2021-08-14T12:44:18Z</time>
      </trkpt>
      <trkpt lat="46.81838" lon="6.37341">
        <ele>1083</ele>
        <time>2021-08-14T12:44:19Z</time>
      </trkpt>
      <trkpt lat="46.81834" lon="6.37342">
        <ele>1083.1</ele>
        <time>2021-08-14T12:44:20Z</time>
      </trkpt>
      <trkpt lat="46.81836" lon="6.37345">
        <ele>1083.1</ele>
        <time>2021-08-14T12:44:21Z</time>
      </trkpt>
      <trkpt lat="46.81835" lon="6.37346">
        <ele>1083.1</ele>
        <time>2021-08-14T12:44:22Z</time>
      </trkpt>
      <trkpt lat="46.81823" lon="6.37343">
        <ele>1083.4</ele>
        <time>2021-08-14T12:44:24Z</time>
      </trkpt>
      <trkpt lat="46.81815" lon="6.3734">
        <ele>1083.6</ele>
        <time>2021-08-14T12:44:25Z</time>
      </trkpt>
      <trkpt lat="46.81809" lon="6.37337">
        <ele>1083.9</ele>
        <time>2021-08-14T12:44:26Z</time>
      </trkpt>
      <trkpt lat="46.81803" lon="6.37335">
        <ele>1084.3</ele>
        <time>2021-08-14T12:44:28Z</time>
      </trkpt>
      <trkpt lat="46.81801" lon="6.37334">
        <ele>1084.4</ele>
        <time>2021-08-14T12:44:29Z</time>
      </trkpt>
      <trkpt lat="46.81797" lon="6.3733">
        <ele>1084.7</ele>
        <time>2021-08-14T12:44:31Z</time>
      </trkpt>
      <trkpt lat="46.81795" lon="6.37329">
        <ele>1084.9</ele>
        <time>2021-08-14T12:44:32Z</time>
      </trkpt>
      <trkpt lat="46.81791" lon="6.37327">
        <ele>1085.2</ele>
        <time>2021-08-14T12:44:34Z</time>
      </trkpt>
      <trkpt lat="46.81787" lon="6.37326">
        <ele>1085.5</ele>
        <time>2021-08-14T12:44:35Z</time>
      </trkpt>
      <trkpt lat="46.81785" lon="6.37325">
        <ele>1085.7</ele>
        <time>2021-08-14T12:44:36Z</time>
      </trkpt>
      <trkpt lat="46.81781" lon="6.37322">
        <ele>1086.1</ele>
        <time>2021-08-14T12:44:38Z</time>
      </trkpt>
      <trkpt lat="46.81778" lon="6.37321">
        <ele>1086.3</ele>
        <time>2021-08-14T12:44:39Z</time>
      </trkpt>
      <trkpt lat="46.81776" lon="6.37321">
        <ele>1086.5</ele>
        <time>2021-08-14T12:44:41Z</time>
      </trkpt>
      <trkpt lat="46.81776" lon="6.3732">
        <ele>1086.5</ele>
        <time>2021-08-14T12:44:42Z</time>
      </trkpt>
      <trkpt lat="46.81775" lon="6.3732">
        <ele>1086.6</ele>
        <time>2021-08-14T12:44:43Z</time>
      </trkpt>
      <trkpt lat="46.81774" lon="6.37319">
        <ele>1086.7</ele>
        <time>2021-08-14T12:44:44Z</time>
      </trkpt>
      <trkpt lat="46.8177" lon="6.37321">
        <ele>1087</ele>
        <time>2021-08-14T12:44:46Z</time>
      </trkpt>
      <trkpt lat="46.81766" lon="6.37321">
        <ele>1087.3</ele>
        <time>2021-08-14T12:44:47Z</time>
      </trkpt>
      <trkpt lat="46.81762" lon="6.37322">
        <ele>1087.5</ele>
        <time>2021-08-14T12:44:49Z</time>
      </trkpt>
      <trkpt lat="46.81757" lon="6.37321">
        <ele>1087.8</ele>
        <time>2021-08-14T12:44:50Z</time>
      </trkpt>
      <trkpt lat="46.81753" lon="6.37322">
        <ele>1087.9</ele>
        <time>2021-08-14T12:44:52Z</time>
      </trkpt>
      <trkpt lat="46.81751" lon="6.3732">
        <ele>1088</ele>
        <time>2021-08-14T12:44:53Z</time>
      </trkpt>
      <trkpt lat="46.8175" lon="6.37318">
        <ele>1088.1</ele>
        <time>2021-08-14T12:44:54Z</time>
      </trkpt>
      <trkpt lat="46.81748" lon="6.37316">
        <ele>1088.2</ele>
        <time>2021-08-14T12:44:55Z</time>
      </trkpt>
      <trkpt lat="46.81746" lon="6.37315">
        <ele>1088.2</ele>
        <time>2021-08-14T12:44:56Z</time>
      </trkpt>
      <trkpt lat="46.81742" lon="6.37312">
        <ele>1088.3</ele>
        <time>2021-08-14T12:44:58Z</time>
      </trkpt>
      <trkpt lat="46.81739" lon="6.3731">
        <ele>1088.4</ele>
        <time>2021-08-14T12:44:59Z</time>
      </trkpt>
      <trkpt lat="46.81737" lon="6.37308">
        <ele>1088.4</ele>
        <time>2021-08-14T12:45:00Z</time>
      </trkpt>
      <trkpt lat="46.81735" lon="6.37306">
        <ele>1088.4</ele>
        <time>2021-08-14T12:45:01Z</time>
      </trkpt>
      <trkpt lat="46.81734" lon="6.37306">
        <ele>1088.4</ele>
        <time>2021-08-14T12:45:02Z</time>
      </trkpt>
      <trkpt lat="46.8173" lon="6.37306">
        <ele>1088.3</ele>
        <time>2021-08-14T12:45:04Z</time>
      </trkpt>
      <trkpt lat="46.81725" lon="6.37304">
        <ele>1088.3</ele>
        <time>2021-08-14T12:45:05Z</time>
      </trkpt>
      <trkpt lat="46.81721" lon="6.37302">
        <ele>1088.2</ele>
        <time>2021-08-14T12:45:07Z</time>
      </trkpt>
      <trkpt lat="46.81717" lon="6.373">
        <ele>1088</ele>
        <time>2021-08-14T12:45:08Z</time>
      </trkpt>
      <trkpt lat="46.81709" lon="6.37298">
        <ele>1087.8</ele>
        <time>2021-08-14T12:45:09Z</time>
      </trkpt>
      <trkpt lat="46.81703" lon="6.37296">
        <ele>1087.6</ele>
        <time>2021-08-14T12:45:11Z</time>
      </trkpt>
      <trkpt lat="46.81699" lon="6.37294">
        <ele>1087.4</ele>
        <time>2021-08-14T12:45:12Z</time>
      </trkpt>
      <trkpt lat="46.81694" lon="6.37291">
        <ele>1087.2</ele>
        <time>2021-08-14T12:45:13Z</time>
      </trkpt>
      <trkpt lat="46.81688" lon="6.3729">
        <ele>1086.9</ele>
        <time>2021-08-14T12:45:15Z</time>
      </trkpt>
      <trkpt lat="46.81674" lon="6.37289">
        <ele>1086.3</ele>
        <time>2021-08-14T12:45:17Z</time>
      </trkpt>
      <trkpt lat="46.81668" lon="6.37288">
        <ele>1086.1</ele>
        <time>2021-08-14T12:45:18Z</time>
      </trkpt>
      <trkpt lat="46.81663" lon="6.37288">
        <ele>1085.9</ele>
        <time>2021-08-14T12:45:19Z</time>
      </trkpt>
      <trkpt lat="46.81657" lon="6.37289">
        <ele>1085.7</ele>
        <time>2021-08-14T12:45:20Z</time>
      </trkpt>
      <trkpt lat="46.81648" lon="6.37286">
        <ele>1085.4</ele>
        <time>2021-08-14T12:45:22Z</time>
      </trkpt>
      <trkpt lat="46.81642" lon="6.37284">
        <ele>1085.3</ele>
        <time>2021-08-14T12:45:23Z</time>
      </trkpt>
      <trkpt lat="46.81637" lon="6.37283">
        <ele>1085.2</ele>
        <time>2021-08-14T12:45:24Z</time>
      </trkpt>
      <trkpt lat="46.81626" lon="6.37284">
        <ele>1085</ele>
        <time>2021-08-14T12:45:26Z</time>
      </trkpt>
      <trkpt lat="46.81615" lon="6.37285">
        <ele>1084.8</ele>
        <time>2021-08-14T12:45:28Z</time>
      </trkpt>
      <trkpt lat="46.81609" lon="6.37286">
        <ele>1084.8</ele>
        <time>2021-08-14T12:45:29Z</time>
      </trkpt>
      <trkpt lat="46.81603" lon="6.37288">
        <ele>1084.7</ele>
        <time>2021-08-14T12:45:30Z</time>
      </trkpt>
      <trkpt lat="46.81597" lon="6.3729">
        <ele>1084.7</ele>
        <time>2021-08-14T12:45:31Z</time>
      </trkpt>
      <trkpt lat="46.81586" lon="6.37295">
        <ele>1084.7</ele>
        <time>2021-08-14T12:45:33Z</time>
      </trkpt>
      <trkpt lat="46.81583" lon="6.37296">
        <ele>1084.7</ele>
        <time>2021-08-14T12:45:34Z</time>
      </trkpt>
      <trkpt lat="46.81578" lon="6.37298">
        <ele>1084.7</ele>
        <time>2021-08-14T12:45:35Z</time>
      </trkpt>
      <trkpt lat="46.81573" lon="6.37299">
        <ele>1084.7</ele>
        <time>2021-08-14T12:45:36Z</time>
      </trkpt>
      <trkpt lat="46.81562" lon="6.37302">
        <ele>1084.8</ele>
        <time>2021-08-14T12:45:38Z</time>
      </trkpt>
      <trkpt lat="46.81558" lon="6.37306">
        <ele>1084.9</ele>
        <time>2021-08-14T12:45:40Z</time>
      </trkpt>
      <trkpt lat="46.81555" lon="6.37307">
        <ele>1084.9</ele>
        <time>2021-08-14T12:45:41Z</time>
      </trkpt>
      <trkpt lat="46.8155" lon="6.37308">
        <ele>1085</ele>
        <time>2021-08-14T12:45:42Z</time>
      </trkpt>
      <trkpt lat="46.81544" lon="6.37309">
        <ele>1085</ele>
        <time>2021-08-14T12:45:43Z</time>
      </trkpt>
      <trkpt lat="46.8154" lon="6.37311">
        <ele>1085.1</ele>
        <time>2021-08-14T12:45:45Z</time>
      </trkpt>
      <trkpt lat="46.81535" lon="6.37311">
        <ele>1085.1</ele>
        <time>2021-08-14T12:45:46Z</time>
      </trkpt>
      <trkpt lat="46.81529" lon="6.37311">
        <ele>1085.2</ele>
        <time>2021-08-14T12:45:47Z</time>
      </trkpt>
      <trkpt lat="46.81524" lon="6.37312">
        <ele>1085.2</ele>
        <time>2021-08-14T12:45:48Z</time>
      </trkpt>
      <trkpt lat="46.81519" lon="6.37313">
        <ele>1085.1</ele>
        <time>2021-08-14T12:45:50Z</time>
      </trkpt>
      <trkpt lat="46.81513" lon="6.37312">
        <ele>1085</ele>
        <time>2021-08-14T12:45:51Z</time>
      </trkpt>
      <trkpt lat="46.81508" lon="6.37312">
        <ele>1084.9</ele>
        <time>2021-08-14T12:45:52Z</time>
      </trkpt>
      <trkpt lat="46.81502" lon="6.37313">
        <ele>1084.7</ele>
        <time>2021-08-14T12:45:53Z</time>
      </trkpt>
      <trkpt lat="46.81493" lon="6.37312">
        <ele>1084.3</ele>
        <time>2021-08-14T12:45:55Z</time>
      </trkpt>
      <trkpt lat="46.81487" lon="6.37313">
        <ele>1084.1</ele>
        <time>2021-08-14T12:45:56Z</time>
      </trkpt>
      <trkpt lat="46.81476" lon="6.3732">
        <ele>1083.8</ele>
        <time>2021-08-14T12:45:58Z</time>
      </trkpt>
      <trkpt lat="46.8147" lon="6.37325">
        <ele>1083.5</ele>
        <time>2021-08-14T12:45:59Z</time>
      </trkpt>
      <trkpt lat="46.81457" lon="6.37333">
        <ele>1083.1</ele>
        <time>2021-08-14T12:46:01Z</time>
      </trkpt>
      <trkpt lat="46.81451" lon="6.37335">
        <ele>1082.9</ele>
        <time>2021-08-14T12:46:02Z</time>
      </trkpt>
      <trkpt lat="46.8144" lon="6.37336">
        <ele>1082.5</ele>
        <time>2021-08-14T12:46:04Z</time>
      </trkpt>
      <trkpt lat="46.81429" lon="6.37335">
        <ele>1082.2</ele>
        <time>2021-08-14T12:46:06Z</time>
      </trkpt>
      <trkpt lat="46.81418" lon="6.37333">
        <ele>1081.8</ele>
        <time>2021-08-14T12:46:08Z</time>
      </trkpt>
      <trkpt lat="46.81406" lon="6.3733">
        <ele>1081.4</ele>
        <time>2021-08-14T12:46:10Z</time>
      </trkpt>
      <trkpt lat="46.814" lon="6.37328">
        <ele>1081.2</ele>
        <time>2021-08-14T12:46:11Z</time>
      </trkpt>
      <trkpt lat="46.81388" lon="6.37321">
        <ele>1080.7</ele>
        <time>2021-08-14T12:46:13Z</time>
      </trkpt>
      <trkpt lat="46.81382" lon="6.37317">
        <ele>1080.4</ele>
        <time>2021-08-14T12:46:14Z</time>
      </trkpt>
      <trkpt lat="46.81372" lon="6.37306">
        <ele>1079.9</ele>
        <time>2021-08-14T12:46:16Z</time>
      </trkpt>
      <trkpt lat="46.81367" lon="6.373">
        <ele>1079.7</ele>
        <time>2021-08-14T12:46:17Z</time>
      </trkpt>
      <trkpt lat="46.81362" lon="6.37295">
        <ele>1079.5</ele>
        <time>2021-08-14T12:46:18Z</time>
      </trkpt>
      <trkpt lat="46.81353" lon="6.37285">
        <ele>1079.1</ele>
        <time>2021-08-14T12:46:20Z</time>
      </trkpt>
      <trkpt lat="46.81343" lon="6.37274">
        <ele>1078.8</ele>
        <time>2021-08-14T12:46:22Z</time>
      </trkpt>
      <trkpt lat="46.81337" lon="6.37268">
        <ele>1078.7</ele>
        <time>2021-08-14T12:46:23Z</time>
      </trkpt>
      <trkpt lat="46.81331" lon="6.37263">
        <ele>1078.6</ele>
        <time>2021-08-14T12:46:24Z</time>
      </trkpt>
      <trkpt lat="46.81321" lon="6.37253">
        <ele>1078.5</ele>
        <time>2021-08-14T12:46:26Z</time>
      </trkpt>
      <trkpt lat="46.81312" lon="6.37243">
        <ele>1078.5</ele>
        <time>2021-08-14T12:46:28Z</time>
      </trkpt>
      <trkpt lat="46.81304" lon="6.37233">
        <ele>1078.6</ele>
        <time>2021-08-14T12:46:30Z</time>
      </trkpt>
      <trkpt lat="46.813" lon="6.37228">
        <ele>1078.7</ele>
        <time>2021-08-14T12:46:31Z</time>
      </trkpt>
      <trkpt lat="46.81296" lon="6.37224">
        <ele>1078.8</ele>
        <time>2021-08-14T12:46:32Z</time>
      </trkpt>
      <trkpt lat="46.81292" lon="6.37219">
        <ele>1078.9</ele>
        <time>2021-08-14T12:46:33Z</time>
      </trkpt>
      <trkpt lat="46.81285" lon="6.37213">
        <ele>1079</ele>
        <time>2021-08-14T12:46:35Z</time>
      </trkpt>
      <trkpt lat="46.81282" lon="6.3721">
        <ele>1079.1</ele>
        <time>2021-08-14T12:46:36Z</time>
      </trkpt>
      <trkpt lat="46.81278" lon="6.37208">
        <ele>1079.2</ele>
        <time>2021-08-14T12:46:37Z</time>
      </trkpt>
      <trkpt lat="46.81275" lon="6.37206">
        <ele>1079.3</ele>
        <time>2021-08-14T12:46:38Z</time>
      </trkpt>
      <trkpt lat="46.81269" lon="6.37202">
        <ele>1079.4</ele>
        <time>2021-08-14T12:46:40Z</time>
      </trkpt>
      <trkpt lat="46.81266" lon="6.37199">
        <ele>1079.5</ele>
        <time>2021-08-14T12:46:41Z</time>
      </trkpt>
      <trkpt lat="46.81262" lon="6.37194">
        <ele>1079.5</ele>
        <time>2021-08-14T12:46:42Z</time>
      </trkpt>
      <trkpt lat="46.81259" lon="6.37191">
        <ele>1079.6</ele>
        <time>2021-08-14T12:46:43Z</time>
      </trkpt>
      <trkpt lat="46.81256" lon="6.37187">
        <ele>1079.6</ele>
        <time>2021-08-14T12:46:44Z</time>
      </trkpt>
      <trkpt lat="46.81254" lon="6.37184">
        <ele>1079.6</ele>
        <time>2021-08-14T12:46:45Z</time>
      </trkpt>
      <trkpt lat="46.81251" lon="6.3718">
        <ele>1079.6</ele>
        <time>2021-08-14T12:46:46Z</time>
      </trkpt>
      <trkpt lat="46.81248" lon="6.37175">
        <ele>1079.6</ele>
        <time>2021-08-14T12:46:48Z</time>
      </trkpt>
      <trkpt lat="46.81245" lon="6.37171">
        <ele>1079.6</ele>
        <time>2021-08-14T12:46:49Z</time>
      </trkpt>
      <trkpt lat="46.81242" lon="6.37168">
        <ele>1079.7</ele>
        <time>2021-08-14T12:46:50Z</time>
      </trkpt>
      <trkpt lat="46.81238" lon="6.37165">
        <ele>1079.7</ele>
        <time>2021-08-14T12:46:51Z</time>
      </trkpt>
      <trkpt lat="46.81234" lon="6.37162">
        <ele>1079.7</ele>
        <time>2021-08-14T12:46:52Z</time>
      </trkpt>
      <trkpt lat="46.8123" lon="6.37159">
        <ele>1079.6</ele>
        <time>2021-08-14T12:46:53Z</time>
      </trkpt>
      <trkpt lat="46.81227" lon="6.37155">
        <ele>1079.6</ele>
        <time>2021-08-14T12:46:54Z</time>
      </trkpt>
      <trkpt lat="46.81224" lon="6.3715">
        <ele>1079.6</ele>
        <time>2021-08-14T12:46:55Z</time>
      </trkpt>
      <trkpt lat="46.81219" lon="6.37144">
        <ele>1079.6</ele>
        <time>2021-08-14T12:46:57Z</time>
      </trkpt>
      <trkpt lat="46.81214" lon="6.37139">
        <ele>1079.6</ele>
        <time>2021-08-14T12:46:58Z</time>
      </trkpt>
      <trkpt lat="46.81211" lon="6.37136">
        <ele>1079.7</ele>
        <time>2021-08-14T12:46:59Z</time>
      </trkpt>
      <trkpt lat="46.81204" lon="6.3713">
        <ele>1079.7</ele>
        <time>2021-08-14T12:47:01Z</time>
      </trkpt>
      <trkpt lat="46.81199" lon="6.37127">
        <ele>1079.7</ele>
        <time>2021-08-14T12:47:03Z</time>
      </trkpt>
      <trkpt lat="46.81191" lon="6.37124">
        <ele>1079.7</ele>
        <time>2021-08-14T12:47:05Z</time>
      </trkpt>
      <trkpt lat="46.81186" lon="6.37122">
        <ele>1079.7</ele>
        <time>2021-08-14T12:47:06Z</time>
      </trkpt>
      <trkpt lat="46.81177" lon="6.37118">
        <ele>1079.7</ele>
        <time>2021-08-14T12:47:08Z</time>
      </trkpt>
      <trkpt lat="46.81173" lon="6.37114">
        <ele>1079.7</ele>
        <time>2021-08-14T12:47:09Z</time>
      </trkpt>
      <trkpt lat="46.81161" lon="6.37113">
        <ele>1079.6</ele>
        <time>2021-08-14T12:47:11Z</time>
      </trkpt>
      <trkpt lat="46.81156" lon="6.37112">
        <ele>1079.5</ele>
        <time>2021-08-14T12:47:12Z</time>
      </trkpt>
      <trkpt lat="46.81145" lon="6.3711">
        <ele>1079.4</ele>
        <time>2021-08-14T12:47:14Z</time>
      </trkpt>
      <trkpt lat="46.81135" lon="6.37105">
        <ele>1079.2</ele>
        <time>2021-08-14T12:47:16Z</time>
      </trkpt>
      <trkpt lat="46.8113" lon="6.37103">
        <ele>1079</ele>
        <time>2021-08-14T12:47:17Z</time>
      </trkpt>
      <trkpt lat="46.8112" lon="6.371">
        <ele>1078.6</ele>
        <time>2021-08-14T12:47:19Z</time>
      </trkpt>
      <trkpt lat="46.81115" lon="6.37101">
        <ele>1078.4</ele>
        <time>2021-08-14T12:47:20Z</time>
      </trkpt>
      <trkpt lat="46.81104" lon="6.37102">
        <ele>1077.8</ele>
        <time>2021-08-14T12:47:22Z</time>
      </trkpt>
      <trkpt lat="46.81098" lon="6.37101">
        <ele>1077.4</ele>
        <time>2021-08-14T12:47:23Z</time>
      </trkpt>
      <trkpt lat="46.81091" lon="6.37099">
        <ele>1077</ele>
        <time>2021-08-14T12:47:24Z</time>
      </trkpt>
      <trkpt lat="46.81076" lon="6.37097">
        <ele>1075.9</ele>
        <time>2021-08-14T12:47:26Z</time>
      </trkpt>
      <trkpt lat="46.81061" lon="6.37092">
        <ele>1074.5</ele>
        <time>2021-08-14T12:47:28Z</time>
      </trkpt>
      <trkpt lat="46.81053" lon="6.37089">
        <ele>1073.7</ele>
        <time>2021-08-14T12:47:29Z</time>
      </trkpt>
      <trkpt lat="46.81036" lon="6.37082">
        <ele>1072</ele>
        <time>2021-08-14T12:47:31Z</time>
      </trkpt>
      <trkpt lat="46.81018" lon="6.37074">
        <ele>1070.5</ele>
        <time>2021-08-14T12:47:33Z</time>
      </trkpt>
      <trkpt lat="46.81001" lon="6.37066">
        <ele>1069.7</ele>
        <time>2021-08-14T12:47:35Z</time>
      </trkpt>
      <trkpt lat="46.80993" lon="6.37062">
        <ele>1069.5</ele>
        <time>2021-08-14T12:47:36Z</time>
      </trkpt>
      <trkpt lat="46.80977" lon="6.37052">
        <ele>1069.9</ele>
        <time>2021-08-14T12:47:38Z</time>
      </trkpt>
      <trkpt lat="46.80962" lon="6.37042">
        <ele>1070.4</ele>
        <time>2021-08-14T12:47:40Z</time>
      </trkpt>
      <trkpt lat="46.8095" lon="6.37038">
        <ele>1070.7</ele>
        <time>2021-08-14T12:47:42Z</time>
      </trkpt>
      <trkpt lat="46.80941" lon="6.37032">
        <ele>1070.8</ele>
        <time>2021-08-14T12:47:44Z</time>
      </trkpt>
      <trkpt lat="46.80935" lon="6.37028">
        <ele>1070.7</ele>
        <time>2021-08-14T12:47:46Z</time>
      </trkpt>
      <trkpt lat="46.80927" lon="6.37026">
        <ele>1070.6</ele>
        <time>2021-08-14T12:47:47Z</time>
      </trkpt>
      <trkpt lat="46.80915" lon="6.37024">
        <ele>1070.4</ele>
        <time>2021-08-14T12:47:49Z</time>
      </trkpt>
      <trkpt lat="46.80909" lon="6.37022">
        <ele>1070.3</ele>
        <time>2021-08-14T12:47:50Z</time>
      </trkpt>
      <trkpt lat="46.80905" lon="6.37021">
        <ele>1070.2</ele>
        <time>2021-08-14T12:47:51Z</time>
      </trkpt>
      <trkpt lat="46.80902" lon="6.37019">
        <ele>1070.1</ele>
        <time>2021-08-14T12:47:53Z</time>
      </trkpt>
      <trkpt lat="46.80894" lon="6.37014">
        <ele>1070</ele>
        <time>2021-08-14T12:47:54Z</time>
      </trkpt>
      <trkpt lat="46.80882" lon="6.37006">
        <ele>1070</ele>
        <time>2021-08-14T12:47:56Z</time>
      </trkpt>
      <trkpt lat="46.80867" lon="6.36997">
        <ele>1070.1</ele>
        <time>2021-08-14T12:47:58Z</time>
      </trkpt>
      <trkpt lat="46.80867" lon="6.36997">
        <ele>1070.1</ele>
        <time>2021-08-14T12:47:58Z</time>
      </trkpt>
      <trkpt lat="46.80858" lon="6.36992">
        <ele>1070.2</ele>
        <time>2021-08-14T12:47:59Z</time>
      </trkpt>
      <trkpt lat="46.80847" lon="6.36987">
        <ele>1070.4</ele>
        <time>2021-08-14T12:48:01Z</time>
      </trkpt>
      <trkpt lat="46.8084" lon="6.36984">
        <ele>1070.5</ele>
        <time>2021-08-14T12:48:02Z</time>
      </trkpt>
      <trkpt lat="46.8083" lon="6.36981">
        <ele>1070.7</ele>
        <time>2021-08-14T12:48:04Z</time>
      </trkpt>
      <trkpt lat="46.80825" lon="6.36978">
        <ele>1070.7</ele>
        <time>2021-08-14T12:48:05Z</time>
      </trkpt>
      <trkpt lat="46.80816" lon="6.3697">
        <ele>1070.8</ele>
        <time>2021-08-14T12:48:07Z</time>
      </trkpt>
      <trkpt lat="46.80811" lon="6.36967">
        <ele>1070.8</ele>
        <time>2021-08-14T12:48:08Z</time>
      </trkpt>
      <trkpt lat="46.80805" lon="6.36964">
        <ele>1070.8</ele>
        <time>2021-08-14T12:48:09Z</time>
      </trkpt>
      <trkpt lat="46.808" lon="6.36964">
        <ele>1070.8</ele>
        <time>2021-08-14T12:48:11Z</time>
      </trkpt>
      <trkpt lat="46.80794" lon="6.36958">
        <ele>1070.9</ele>
        <time>2021-08-14T12:48:12Z</time>
      </trkpt>
      <trkpt lat="46.8079" lon="6.36954">
        <ele>1070.9</ele>
        <time>2021-08-14T12:48:13Z</time>
      </trkpt>
      <trkpt lat="46.80787" lon="6.36953">
        <ele>1071</ele>
        <time>2021-08-14T12:48:14Z</time>
      </trkpt>
      <trkpt lat="46.8078" lon="6.3695">
        <ele>1071.1</ele>
        <time>2021-08-14T12:48:16Z</time>
      </trkpt>
      <trkpt lat="46.80776" lon="6.36949">
        <ele>1071.3</ele>
        <time>2021-08-14T12:48:17Z</time>
      </trkpt>
      <trkpt lat="46.80772" lon="6.36948">
        <ele>1071.4</ele>
        <time>2021-08-14T12:48:18Z</time>
      </trkpt>
      <trkpt lat="46.80764" lon="6.36946">
        <ele>1071.7</ele>
        <time>2021-08-14T12:48:20Z</time>
      </trkpt>
      <trkpt lat="46.80761" lon="6.36946">
        <ele>1071.8</ele>
        <time>2021-08-14T12:48:21Z</time>
      </trkpt>
      <trkpt lat="46.80758" lon="6.36948">
        <ele>1071.9</ele>
        <time>2021-08-14T12:48:22Z</time>
      </trkpt>
      <trkpt lat="46.80753" lon="6.36949">
        <ele>1072</ele>
        <time>2021-08-14T12:48:24Z</time>
      </trkpt>
      <trkpt lat="46.80751" lon="6.36949">
        <ele>1072.1</ele>
        <time>2021-08-14T12:48:25Z</time>
      </trkpt>
      <trkpt lat="46.80745" lon="6.36947">
        <ele>1072.3</ele>
        <time>2021-08-14T12:48:27Z</time>
      </trkpt>
      <trkpt lat="46.80743" lon="6.36947">
        <ele>1072.4</ele>
        <time>2021-08-14T12:48:28Z</time>
      </trkpt>
      <trkpt lat="46.8074" lon="6.36948">
        <ele>1072.5</ele>
        <time>2021-08-14T12:48:30Z</time>
      </trkpt>
      <trkpt lat="46.80737" lon="6.36949">
        <ele>1072.5</ele>
        <time>2021-08-14T12:48:31Z</time>
      </trkpt>
      <trkpt lat="46.80732" lon="6.36951">
        <ele>1072.6</ele>
        <time>2021-08-14T12:48:32Z</time>
      </trkpt>
      <trkpt lat="46.80728" lon="6.36953">
        <ele>1072.7</ele>
        <time>2021-08-14T12:48:33Z</time>
      </trkpt>
      <trkpt lat="46.80723" lon="6.36954">
        <ele>1072.8</ele>
        <time>2021-08-14T12:48:34Z</time>
      </trkpt>
      <trkpt lat="46.8072" lon="6.36956">
        <ele>1072.9</ele>
        <time>2021-08-14T12:48:35Z</time>
      </trkpt>
      <trkpt lat="46.80716" lon="6.36958">
        <ele>1072.9</ele>
        <time>2021-08-14T12:48:36Z</time>
      </trkpt>
      <trkpt lat="46.80711" lon="6.36959">
        <ele>1073</ele>
        <time>2021-08-14T12:48:37Z</time>
      </trkpt>
      <trkpt lat="46.80707" lon="6.3696">
        <ele>1073</ele>
        <time>2021-08-14T12:48:38Z</time>
      </trkpt>
      <trkpt lat="46.80702" lon="6.36959">
        <ele>1073.1</ele>
        <time>2021-08-14T12:48:40Z</time>
      </trkpt>
      <trkpt lat="46.80698" lon="6.36958">
        <ele>1073.2</ele>
        <time>2021-08-14T12:48:42Z</time>
      </trkpt>
      <trkpt lat="46.80694" lon="6.36956">
        <ele>1073.3</ele>
        <time>2021-08-14T12:48:43Z</time>
      </trkpt>
      <trkpt lat="46.80689" lon="6.36956">
        <ele>1073.4</ele>
        <time>2021-08-14T12:48:44Z</time>
      </trkpt>
      <trkpt lat="46.80685" lon="6.36957">
        <ele>1073.4</ele>
        <time>2021-08-14T12:48:46Z</time>
      </trkpt>
      <trkpt lat="46.8068" lon="6.36958">
        <ele>1073.5</ele>
        <time>2021-08-14T12:48:47Z</time>
      </trkpt>
      <trkpt lat="46.80676" lon="6.36958">
        <ele>1073.6</ele>
        <time>2021-08-14T12:48:48Z</time>
      </trkpt>
      <trkpt lat="46.8067" lon="6.36958">
        <ele>1073.7</ele>
        <time>2021-08-14T12:48:50Z</time>
      </trkpt>
      <trkpt lat="46.80665" lon="6.36958">
        <ele>1073.8</ele>
        <time>2021-08-14T12:48:51Z</time>
      </trkpt>
      <trkpt lat="46.80661" lon="6.36959">
        <ele>1073.8</ele>
        <time>2021-08-14T12:48:52Z</time>
      </trkpt>
      <trkpt lat="46.80656" lon="6.3696">
        <ele>1073.7</ele>
        <time>2021-08-14T12:48:53Z</time>
      </trkpt>
      <trkpt lat="46.80651" lon="6.36962">
        <ele>1073.7</ele>
        <time>2021-08-14T12:48:54Z</time>
      </trkpt>
      <trkpt lat="46.80644" lon="6.36965">
        <ele>1073.7</ele>
        <time>2021-08-14T12:48:56Z</time>
      </trkpt>
      <trkpt lat="46.80637" lon="6.36967">
        <ele>1073.7</ele>
        <time>2021-08-14T12:48:57Z</time>
      </trkpt>
      <trkpt lat="46.80632" lon="6.36969">
        <ele>1073.7</ele>
        <time>2021-08-14T12:48:58Z</time>
      </trkpt>
      <trkpt lat="46.80626" lon="6.36971">
        <ele>1073.8</ele>
        <time>2021-08-14T12:49:00Z</time>
      </trkpt>
      <trkpt lat="46.80618" lon="6.36974">
        <ele>1073.9</ele>
        <time>2021-08-14T12:49:01Z</time>
      </trkpt>
      <trkpt lat="46.80614" lon="6.36977">
        <ele>1074</ele>
        <time>2021-08-14T12:49:02Z</time>
      </trkpt>
      <trkpt lat="46.80609" lon="6.3698">
        <ele>1074</ele>
        <time>2021-08-14T12:49:04Z</time>
      </trkpt>
      <trkpt lat="46.80603" lon="6.36984">
        <ele>1074.1</ele>
        <time>2021-08-14T12:49:05Z</time>
      </trkpt>
      <trkpt lat="46.80599" lon="6.36985">
        <ele>1074.2</ele>
        <time>2021-08-14T12:49:07Z</time>
      </trkpt>
      <trkpt lat="46.80595" lon="6.36988">
        <ele>1074.3</ele>
        <time>2021-08-14T12:49:08Z</time>
      </trkpt>
      <trkpt lat="46.80588" lon="6.36992">
        <ele>1074.3</ele>
        <time>2021-08-14T12:49:09Z</time>
      </trkpt>
      <trkpt lat="46.80577" lon="6.36999">
        <ele>1074.3</ele>
        <time>2021-08-14T12:49:11Z</time>
      </trkpt>
      <trkpt lat="46.80571" lon="6.37004">
        <ele>1074.3</ele>
        <time>2021-08-14T12:49:12Z</time>
      </trkpt>
      <trkpt lat="46.80554" lon="6.37019">
        <ele>1074</ele>
        <time>2021-08-14T12:49:13Z</time>
      </trkpt>
      <trkpt lat="46.80552" lon="6.37021">
        <ele>1073.9</ele>
        <time>2021-08-14T12:49:14Z</time>
      </trkpt>
      <trkpt lat="46.8055" lon="6.37023">
        <ele>1073.8</ele>
        <time>2021-08-14T12:49:15Z</time>
      </trkpt>
      <trkpt lat="46.80545" lon="6.37031">
        <ele>1073.4</ele>
        <time>2021-08-14T12:49:17Z</time>
      </trkpt>
      <trkpt lat="46.80536" lon="6.37043">
        <ele>1072.6</ele>
        <time>2021-08-14T12:49:18Z</time>
      </trkpt>
      <trkpt lat="46.80524" lon="6.37059">
        <ele>1071.1</ele>
        <time>2021-08-14T12:49:20Z</time>
      </trkpt>
      <trkpt lat="46.80518" lon="6.37066">
        <ele>1070.3</ele>
        <time>2021-08-14T12:49:21Z</time>
      </trkpt>
      <trkpt lat="46.80503" lon="6.37078">
        <ele>1068.3</ele>
        <time>2021-08-14T12:49:23Z</time>
      </trkpt>
      <trkpt lat="46.80481" lon="6.3709">
        <ele>1065.4</ele>
        <time>2021-08-14T12:49:25Z</time>
      </trkpt>
      <trkpt lat="46.80466" lon="6.37093">
        <ele>1063.8</ele>
        <time>2021-08-14T12:49:26Z</time>
      </trkpt>
      <trkpt lat="46.80437" lon="6.37097">
        <ele>1061.5</ele>
        <time>2021-08-14T12:49:28Z</time>
      </trkpt>
      <trkpt lat="46.80409" lon="6.37101">
        <ele>1059.5</ele>
        <time>2021-08-14T12:49:30Z</time>
      </trkpt>
      <trkpt lat="46.80384" lon="6.371">
        <ele>1057.6</ele>
        <time>2021-08-14T12:49:32Z</time>
      </trkpt>
      <trkpt lat="46.80361" lon="6.37096">
        <ele>1056.2</ele>
        <time>2021-08-14T12:49:34Z</time>
      </trkpt>
      <trkpt lat="46.80349" lon="6.37091">
        <ele>1055.5</ele>
        <time>2021-08-14T12:49:35Z</time>
      </trkpt>
      <trkpt lat="46.80327" lon="6.37078">
        <ele>1054.2</ele>
        <time>2021-08-14T12:49:37Z</time>
      </trkpt>
      <trkpt lat="46.80317" lon="6.37073">
        <ele>1053.7</ele>
        <time>2021-08-14T12:49:38Z</time>
      </trkpt>
      <trkpt lat="46.80296" lon="6.37066">
        <ele>1052.9</ele>
        <time>2021-08-14T12:49:40Z</time>
      </trkpt>
      <trkpt lat="46.80285" lon="6.37067">
        <ele>1052.4</ele>
        <time>2021-08-14T12:49:41Z</time>
      </trkpt>
      <trkpt lat="46.80274" lon="6.37067">
        <ele>1052</ele>
        <time>2021-08-14T12:49:42Z</time>
      </trkpt>
      <trkpt lat="46.80251" lon="6.3706">
        <ele>1051.1</ele>
        <time>2021-08-14T12:49:44Z</time>
      </trkpt>
      <trkpt lat="46.80227" lon="6.3705">
        <ele>1050.2</ele>
        <time>2021-08-14T12:49:46Z</time>
      </trkpt>
      <trkpt lat="46.80215" lon="6.37048">
        <ele>1049.9</ele>
        <time>2021-08-14T12:49:47Z</time>
      </trkpt>
      <trkpt lat="46.80204" lon="6.37047">
        <ele>1049.7</ele>
        <time>2021-08-14T12:49:48Z</time>
      </trkpt>
      <trkpt lat="46.80184" lon="6.37041">
        <ele>1049.2</ele>
        <time>2021-08-14T12:49:50Z</time>
      </trkpt>
      <trkpt lat="46.80165" lon="6.37035">
        <ele>1048.6</ele>
        <time>2021-08-14T12:49:52Z</time>
      </trkpt>
      <trkpt lat="46.80157" lon="6.37029">
        <ele>1048.4</ele>
        <time>2021-08-14T12:49:53Z</time>
      </trkpt>
      <trkpt lat="46.8015" lon="6.37026">
        <ele>1048.1</ele>
        <time>2021-08-14T12:49:54Z</time>
      </trkpt>
      <trkpt lat="46.80142" lon="6.37024">
        <ele>1047.9</ele>
        <time>2021-08-14T12:49:55Z</time>
      </trkpt>
      <trkpt lat="46.80134" lon="6.37022">
        <ele>1047.7</ele>
        <time>2021-08-14T12:49:56Z</time>
      </trkpt>
      <trkpt lat="46.8012" lon="6.37017">
        <ele>1047.3</ele>
        <time>2021-08-14T12:49:58Z</time>
      </trkpt>
      <trkpt lat="46.80113" lon="6.37014">
        <ele>1047.1</ele>
        <time>2021-08-14T12:49:59Z</time>
      </trkpt>
      <trkpt lat="46.80106" lon="6.3701">
        <ele>1047</ele>
        <time>2021-08-14T12:50:00Z</time>
      </trkpt>
      <trkpt lat="46.80099" lon="6.37008">
        <ele>1046.9</ele>
        <time>2021-08-14T12:50:01Z</time>
      </trkpt>
      <trkpt lat="46.80085" lon="6.37002">
        <ele>1046.8</ele>
        <time>2021-08-14T12:50:03Z</time>
      </trkpt>
      <trkpt lat="46.8007" lon="6.36997">
        <ele>1046.8</ele>
        <time>2021-08-14T12:50:05Z</time>
      </trkpt>
      <trkpt lat="46.80054" lon="6.36992">
        <ele>1047</ele>
        <time>2021-08-14T12:50:07Z</time>
      </trkpt>
      <trkpt lat="46.80047" lon="6.36991">
        <ele>1047</ele>
        <time>2021-08-14T12:50:08Z</time>
      </trkpt>
      <trkpt lat="46.80033" lon="6.36986">
        <ele>1047.1</ele>
        <time>2021-08-14T12:50:10Z</time>
      </trkpt>
      <trkpt lat="46.80026" lon="6.36982">
        <ele>1047.1</ele>
        <time>2021-08-14T12:50:11Z</time>
      </trkpt>
      <trkpt lat="46.80013" lon="6.36975">
        <ele>1047.1</ele>
        <time>2021-08-14T12:50:13Z</time>
      </trkpt>
      <trkpt lat="46.80007" lon="6.36972">
        <ele>1047.1</ele>
        <time>2021-08-14T12:50:14Z</time>
      </trkpt>
      <trkpt lat="46.79995" lon="6.36965">
        <ele>1047</ele>
        <time>2021-08-14T12:50:16Z</time>
      </trkpt>
      <trkpt lat="46.79989" lon="6.36961">
        <ele>1047</ele>
        <time>2021-08-14T12:50:17Z</time>
      </trkpt>
      <trkpt lat="46.79983" lon="6.36958">
        <ele>1046.9</ele>
        <time>2021-08-14T12:50:18Z</time>
      </trkpt>
      <trkpt lat="46.79971" lon="6.36953">
        <ele>1046.8</ele>
        <time>2021-08-14T12:50:20Z</time>
      </trkpt>
      <trkpt lat="46.79958" lon="6.36953">
        <ele>1046.2</ele>
        <time>2021-08-14T12:50:22Z</time>
      </trkpt>
      <trkpt lat="46.79944" lon="6.36958">
        <ele>1045.4</ele>
        <time>2021-08-14T12:50:24Z</time>
      </trkpt>
      <trkpt lat="46.7993" lon="6.3697">
        <ele>1044.6</ele>
        <time>2021-08-14T12:50:26Z</time>
      </trkpt>
      <trkpt lat="46.79918" lon="6.36987">
        <ele>1044</ele>
        <time>2021-08-14T12:50:28Z</time>
      </trkpt>
      <trkpt lat="46.79912" lon="6.36996">
        <ele>1043.8</ele>
        <time>2021-08-14T12:50:29Z</time>
      </trkpt>
      <trkpt lat="46.79907" lon="6.37005">
        <ele>1043.6</ele>
        <time>2021-08-14T12:50:30Z</time>
      </trkpt>
      <trkpt lat="46.79897" lon="6.37023">
        <ele>1043.4</ele>
        <time>2021-08-14T12:50:32Z</time>
      </trkpt>
      <trkpt lat="46.79888" lon="6.37039">
        <ele>1043.3</ele>
        <time>2021-08-14T12:50:34Z</time>
      </trkpt>
      <trkpt lat="46.79883" lon="6.37047">
        <ele>1043.2</ele>
        <time>2021-08-14T12:50:35Z</time>
      </trkpt>
      <trkpt lat="46.79878" lon="6.37054">
        <ele>1043.2</ele>
        <time>2021-08-14T12:50:36Z</time>
      </trkpt>
      <trkpt lat="46.79873" lon="6.3706">
        <ele>1043.1</ele>
        <time>2021-08-14T12:50:37Z</time>
      </trkpt>
      <trkpt lat="46.79868" lon="6.37066">
        <ele>1043</ele>
        <time>2021-08-14T12:50:38Z</time>
      </trkpt>
      <trkpt lat="46.79855" lon="6.37076">
        <ele>1042.7</ele>
        <time>2021-08-14T12:50:40Z</time>
      </trkpt>
      <trkpt lat="46.79849" lon="6.37081">
        <ele>1042.5</ele>
        <time>2021-08-14T12:50:41Z</time>
      </trkpt>
      <trkpt lat="46.79835" lon="6.3709">
        <ele>1042.2</ele>
        <time>2021-08-14T12:50:43Z</time>
      </trkpt>
      <trkpt lat="46.7983" lon="6.37095">
        <ele>1042.1</ele>
        <time>2021-08-14T12:50:44Z</time>
      </trkpt>
      <trkpt lat="46.79819" lon="6.37105">
        <ele>1041.9</ele>
        <time>2021-08-14T12:50:46Z</time>
      </trkpt>
      <trkpt lat="46.79809" lon="6.37115">
        <ele>1041.7</ele>
        <time>2021-08-14T12:50:48Z</time>
      </trkpt>
      <trkpt lat="46.79799" lon="6.37126">
        <ele>1041.4</ele>
        <time>2021-08-14T12:50:50Z</time>
      </trkpt>
      <trkpt lat="46.79789" lon="6.37139">
        <ele>1040.9</ele>
        <time>2021-08-14T12:50:52Z</time>
      </trkpt>
      <trkpt lat="46.79776" lon="6.3715">
        <ele>1040.4</ele>
        <time>2021-08-14T12:50:54Z</time>
      </trkpt>
      <trkpt lat="46.79762" lon="6.37159">
        <ele>1040</ele>
        <time>2021-08-14T12:50:56Z</time>
      </trkpt>
      <trkpt lat="46.79755" lon="6.37163">
        <ele>1039.9</ele>
        <time>2021-08-14T12:50:57Z</time>
      </trkpt>
      <trkpt lat="46.79742" lon="6.37171">
        <ele>1039.8</ele>
        <time>2021-08-14T12:50:59Z</time>
      </trkpt>
      <trkpt lat="46.79735" lon="6.37175">
        <ele>1039.7</ele>
        <time>2021-08-14T12:51:00Z</time>
      </trkpt>
      <trkpt lat="46.79723" lon="6.37182">
        <ele>1039.7</ele>
        <time>2021-08-14T12:51:02Z</time>
      </trkpt>
      <trkpt lat="46.79717" lon="6.37185">
        <ele>1039.7</ele>
        <time>2021-08-14T12:51:03Z</time>
      </trkpt>
      <trkpt lat="46.79705" lon="6.3719">
        <ele>1039.7</ele>
        <time>2021-08-14T12:51:05Z</time>
      </trkpt>
      <trkpt lat="46.79693" lon="6.37194">
        <ele>1039.8</ele>
        <time>2021-08-14T12:51:07Z</time>
      </trkpt>
      <trkpt lat="46.79686" lon="6.37197">
        <ele>1039.9</ele>
        <time>2021-08-14T12:51:08Z</time>
      </trkpt>
      <trkpt lat="46.79675" lon="6.37204">
        <ele>1040.1</ele>
        <time>2021-08-14T12:51:10Z</time>
      </trkpt>
      <trkpt lat="46.79667" lon="6.37214">
        <ele>1040.1</ele>
        <time>2021-08-14T12:51:12Z</time>
      </trkpt>
      <trkpt lat="46.79666" lon="6.37222">
        <ele>1040.1</ele>
        <time>2021-08-14T12:51:13Z</time>
      </trkpt>
      <trkpt lat="46.79667" lon="6.37231">
        <ele>1040.2</ele>
        <time>2021-08-14T12:51:14Z</time>
      </trkpt>
      <trkpt lat="46.79671" lon="6.37251">
        <ele>1040.5</ele>
        <time>2021-08-14T12:51:16Z</time>
      </trkpt>
      <trkpt lat="46.79672" lon="6.3726">
        <ele>1040.7</ele>
        <time>2021-08-14T12:51:17Z</time>
      </trkpt>
      <trkpt lat="46.79674" lon="6.37276">
        <ele>1041.1</ele>
        <time>2021-08-14T12:51:19Z</time>
      </trkpt>
      <trkpt lat="46.79674" lon="6.37283">
        <ele>1041.3</ele>
        <time>2021-08-14T12:51:20Z</time>
      </trkpt>
      <trkpt lat="46.79675" lon="6.37292">
        <ele>1041.7</ele>
        <time>2021-08-14T12:51:22Z</time>
      </trkpt>
      <trkpt lat="46.79674" lon="6.37303">
        <ele>1042</ele>
        <time>2021-08-14T12:51:24Z</time>
      </trkpt>
      <trkpt lat="46.79671" lon="6.37311">
        <ele>1042.1</ele>
        <time>2021-08-14T12:51:26Z</time>
      </trkpt>
      <trkpt lat="46.79666" lon="6.37317">
        <ele>1042.3</ele>
        <time>2021-08-14T12:51:27Z</time>
      </trkpt>
      <trkpt lat="46.79663" lon="6.3732">
        <ele>1042.5</ele>
        <time>2021-08-14T12:51:28Z</time>
      </trkpt>
      <trkpt lat="46.7966" lon="6.37324">
        <ele>1042.5</ele>
        <time>2021-08-14T12:51:29Z</time>
      </trkpt>
      <trkpt lat="46.79656" lon="6.37325">
        <ele>1042.5</ele>
        <time>2021-08-14T12:51:30Z</time>
      </trkpt>
      <trkpt lat="46.79651" lon="6.37329">
        <ele>1042.7</ele>
        <time>2021-08-14T12:51:31Z</time>
      </trkpt>
      <trkpt lat="46.79647" lon="6.37332">
        <ele>1042.8</ele>
        <time>2021-08-14T12:51:33Z</time>
      </trkpt>
      <trkpt lat="46.79642" lon="6.37339">
        <ele>1043</ele>
        <time>2021-08-14T12:51:34Z</time>
      </trkpt>
      <trkpt lat="46.79638" lon="6.37344">
        <ele>1043.2</ele>
        <time>2021-08-14T12:51:36Z</time>
      </trkpt>
      <trkpt lat="46.79633" lon="6.37346">
        <ele>1043.3</ele>
        <time>2021-08-14T12:51:37Z</time>
      </trkpt>
      <trkpt lat="46.79628" lon="6.37349">
        <ele>1043.6</ele>
        <time>2021-08-14T12:51:39Z</time>
      </trkpt>
      <trkpt lat="46.79621" lon="6.37356">
        <ele>1044</ele>
        <time>2021-08-14T12:51:41Z</time>
      </trkpt>
      <trkpt lat="46.79619" lon="6.37359">
        <ele>1044.2</ele>
        <time>2021-08-14T12:51:42Z</time>
      </trkpt>
      <trkpt lat="46.79617" lon="6.37363">
        <ele>1044.8</ele>
        <time>2021-08-14T12:51:43Z</time>
      </trkpt>
      <trkpt lat="46.79616" lon="6.37365">
        <ele>1044.8</ele>
        <time>2021-08-14T12:51:45Z</time>
      </trkpt>
      <trkpt lat="46.79615" lon="6.37366">
        <ele>1044.9</ele>
        <time>2021-08-14T12:51:46Z</time>
      </trkpt>
      <trkpt lat="46.79616" lon="6.37366">
        <ele>1044.9</ele>
        <time>2021-08-14T12:51:48Z</time>
      </trkpt>
      <trkpt lat="46.79617" lon="6.37366">
        <ele>1044.9</ele>
        <time>2021-08-14T12:51:50Z</time>
      </trkpt>
      <trkpt lat="46.79618" lon="6.37365">
        <ele>1044.9</ele>
        <time>2021-08-14T12:51:52Z</time>
      </trkpt>
      <trkpt lat="46.79618" lon="6.37365">
        <ele>1044.9</ele>
        <time>2021-08-14T12:51:53Z</time>
      </trkpt>
      <trkpt lat="46.79618" lon="6.37365">
        <ele>1044.9</ele>
        <time>2021-08-14T12:51:54Z</time>
      </trkpt>
      <trkpt lat="46.79618" lon="6.37365">
        <ele>1044.9</ele>
        <time>2021-08-14T12:51:56Z</time>
      </trkpt>
      <trkpt lat="46.79609" lon="6.37373">
        <ele>1045.2</ele>
        <time>2021-08-14T12:52:07Z</time>
      </trkpt>
      <trkpt lat="46.79606" lon="6.37377">
        <ele>1045.3</ele>
        <time>2021-08-14T12:52:08Z</time>
      </trkpt>
      <trkpt lat="46.79601" lon="6.37384">
        <ele>1045.5</ele>
        <time>2021-08-14T12:52:10Z</time>
      </trkpt>
      <trkpt lat="46.79599" lon="6.3739">
        <ele>1045.7</ele>
        <time>2021-08-14T12:52:11Z</time>
      </trkpt>
      <trkpt lat="46.79597" lon="6.37395">
        <ele>1045.9</ele>
        <time>2021-08-14T12:52:12Z</time>
      </trkpt>
      <trkpt lat="46.79593" lon="6.374">
        <ele>1046.1</ele>
        <time>2021-08-14T12:52:14Z</time>
      </trkpt>
      <trkpt lat="46.79592" lon="6.37401">
        <ele>1046.2</ele>
        <time>2021-08-14T12:52:15Z</time>
      </trkpt>
      <trkpt lat="46.79591" lon="6.37403">
        <ele>1046.3</ele>
        <time>2021-08-14T12:52:16Z</time>
      </trkpt>
      <trkpt lat="46.7959" lon="6.37407">
        <ele>1046.5</ele>
        <time>2021-08-14T12:52:18Z</time>
      </trkpt>
      <trkpt lat="46.7959" lon="6.37409">
        <ele>1046.6</ele>
        <time>2021-08-14T12:52:19Z</time>
      </trkpt>
      <trkpt lat="46.79589" lon="6.37413">
        <ele>1046.9</ele>
        <time>2021-08-14T12:52:20Z</time>
      </trkpt>
      <trkpt lat="46.7959" lon="6.37415">
        <ele>1047</ele>
        <time>2021-08-14T12:52:22Z</time>
      </trkpt>
      <trkpt lat="46.7959" lon="6.37417">
        <ele>1047.1</ele>
        <time>2021-08-14T12:52:24Z</time>
      </trkpt>
      <trkpt lat="46.7959" lon="6.37419">
        <ele>1047.2</ele>
        <time>2021-08-14T12:52:25Z</time>
      </trkpt>
      <trkpt lat="46.7959" lon="6.37423">
        <ele>1047.5</ele>
        <time>2021-08-14T12:52:26Z</time>
      </trkpt>
      <trkpt lat="46.79591" lon="6.37425">
        <ele>1047.6</ele>
        <time>2021-08-14T12:52:27Z</time>
      </trkpt>
      <trkpt lat="46.79591" lon="6.37428">
        <ele>1047.8</ele>
        <time>2021-08-14T12:52:29Z</time>
      </trkpt>
      <trkpt lat="46.79591" lon="6.3743">
        <ele>1048</ele>
        <time>2021-08-14T12:52:30Z</time>
      </trkpt>
      <trkpt lat="46.79591" lon="6.37434">
        <ele>1048.2</ele>
        <time>2021-08-14T12:52:31Z</time>
      </trkpt>
      <trkpt lat="46.79591" lon="6.37436">
        <ele>1048.4</ele>
        <time>2021-08-14T12:52:32Z</time>
      </trkpt>
      <trkpt lat="46.79591" lon="6.37438">
        <ele>1048.5</ele>
        <time>2021-08-14T12:52:34Z</time>
      </trkpt>
      <trkpt lat="46.79591" lon="6.37439">
        <ele>1048.6</ele>
        <time>2021-08-14T12:52:35Z</time>
      </trkpt>
      <trkpt lat="46.79592" lon="6.3744">
        <ele>1048.7</ele>
        <time>2021-08-14T12:52:36Z</time>
      </trkpt>
      <trkpt lat="46.79592" lon="6.37442">
        <ele>1048.9</ele>
        <time>2021-08-14T12:52:38Z</time>
      </trkpt>
      <trkpt lat="46.79592" lon="6.37444">
        <ele>1049</ele>
        <time>2021-08-14T12:52:39Z</time>
      </trkpt>
      <trkpt lat="46.79593" lon="6.37448">
        <ele>1049.3</ele>
        <time>2021-08-14T12:52:40Z</time>
      </trkpt>
      <trkpt lat="46.79593" lon="6.3745">
        <ele>1049.5</ele>
        <time>2021-08-14T12:52:42Z</time>
      </trkpt>
      <trkpt lat="46.79593" lon="6.37454">
        <ele>1049.9</ele>
        <time>2021-08-14T12:52:43Z</time>
      </trkpt>
      <trkpt lat="46.79594" lon="6.37458">
        <ele>1050.3</ele>
        <time>2021-08-14T12:52:45Z</time>
      </trkpt>
      <trkpt lat="46.79593" lon="6.37459">
        <ele>1050.4</ele>
        <time>2021-08-14T12:52:46Z</time>
      </trkpt>
      <trkpt lat="46.79594" lon="6.37462">
        <ele>1050.7</ele>
        <time>2021-08-14T12:52:48Z</time>
      </trkpt>
      <trkpt lat="46.79595" lon="6.37464">
        <ele>1050.9</ele>
        <time>2021-08-14T12:52:49Z</time>
      </trkpt>
      <trkpt lat="46.79595" lon="6.37465">
        <ele>1051</ele>
        <time>2021-08-14T12:52:51Z</time>
      </trkpt>
      <trkpt lat="46.79595" lon="6.37466">
        <ele>1051.2</ele>
        <time>2021-08-14T12:52:52Z</time>
      </trkpt>
      <trkpt lat="46.79596" lon="6.37468">
        <ele>1051.4</ele>
        <time>2021-08-14T12:52:54Z</time>
      </trkpt>
      <trkpt lat="46.79596" lon="6.37469">
        <ele>1051.5</ele>
        <time>2021-08-14T12:52:55Z</time>
      </trkpt>
      <trkpt lat="46.79597" lon="6.37471">
        <ele>1051.7</ele>
        <time>2021-08-14T12:52:56Z</time>
      </trkpt>
      <trkpt lat="46.79597" lon="6.37472">
        <ele>1051.9</ele>
        <time>2021-08-14T12:52:58Z</time>
      </trkpt>
      <trkpt lat="46.79598" lon="6.37473">
        <ele>1052</ele>
        <time>2021-08-14T12:53:30Z</time>
      </trkpt>
      <trkpt lat="46.79598" lon="6.37475">
        <ele>1052.2</ele>
        <time>2021-08-14T12:53:31Z</time>
      </trkpt>
      <trkpt lat="46.79598" lon="6.37479">
        <ele>1052.7</ele>
        <time>2021-08-14T12:53:33Z</time>
      </trkpt>
      <trkpt lat="46.79597" lon="6.37481">
        <ele>1052.9</ele>
        <time>2021-08-14T12:53:34Z</time>
      </trkpt>
      <trkpt lat="46.79597" lon="6.37484">
        <ele>1053.3</ele>
        <time>2021-08-14T12:53:36Z</time>
      </trkpt>
      <trkpt lat="46.79597" lon="6.37488">
        <ele>1053.7</ele>
        <time>2021-08-14T12:53:38Z</time>
      </trkpt>
      <trkpt lat="46.79597" lon="6.37489">
        <ele>1053.9</ele>
        <time>2021-08-14T12:53:40Z</time>
      </trkpt>
      <trkpt lat="46.79598" lon="6.3749">
        <ele>1054.1</ele>
        <time>2021-08-14T12:53:41Z</time>
      </trkpt>
      <trkpt lat="46.79598" lon="6.37491">
        <ele>1054.1</ele>
        <time>2021-08-14T12:53:42Z</time>
      </trkpt>
      <trkpt lat="46.79598" lon="6.37491">
        <ele>1054.2</ele>
        <time>2021-08-14T12:53:44Z</time>
      </trkpt>
      <trkpt lat="46.79599" lon="6.37491">
        <ele>1054.2</ele>
        <time>2021-08-14T12:53:45Z</time>
      </trkpt>
      <trkpt lat="46.79599" lon="6.37491">
        <ele>1054.2</ele>
        <time>2021-08-14T12:53:46Z</time>
      </trkpt>
      <trkpt lat="46.79599" lon="6.3749">
        <ele>1054.3</ele>
        <time>2021-08-14T12:53:48Z</time>
      </trkpt>
      <trkpt lat="46.79599" lon="6.37491">
        <ele>1054.3</ele>
        <time>2021-08-14T12:53:49Z</time>
      </trkpt>
      <trkpt lat="46.79601" lon="6.37494">
        <ele>1054.9</ele>
        <time>2021-08-14T12:53:50Z</time>
      </trkpt>
      <trkpt lat="46.79602" lon="6.37497">
        <ele>1055.4</ele>
        <time>2021-08-14T12:54:57Z</time>
      </trkpt>
      <trkpt lat="46.79604" lon="6.375">
        <ele>1055.8</ele>
        <time>2021-08-14T12:54:59Z</time>
      </trkpt>
      <trkpt lat="46.79605" lon="6.37503">
        <ele>1056.3</ele>
        <time>2021-08-14T12:55:00Z</time>
      </trkpt>
      <trkpt lat="46.79605" lon="6.37506">
        <ele>1056.7</ele>
        <time>2021-08-14T12:55:01Z</time>
      </trkpt>
      <trkpt lat="46.79604" lon="6.37507">
        <ele>1056.9</ele>
        <time>2021-08-14T12:55:03Z</time>
      </trkpt>
      <trkpt lat="46.79603" lon="6.37511">
        <ele>1057.4</ele>
        <time>2021-08-14T12:55:04Z</time>
      </trkpt>
      <trkpt lat="46.79603" lon="6.37511">
        <ele>1057.5</ele>
        <time>2021-08-14T12:55:06Z</time>
      </trkpt>
      <trkpt lat="46.79603" lon="6.37512">
        <ele>1057.6</ele>
        <time>2021-08-14T12:55:07Z</time>
      </trkpt>
      <trkpt lat="46.79603" lon="6.37513">
        <ele>1057.7</ele>
        <time>2021-08-14T12:55:08Z</time>
      </trkpt>
      <trkpt lat="46.79603" lon="6.37514">
        <ele>1057.9</ele>
        <time>2021-08-14T12:55:09Z</time>
      </trkpt>
      <trkpt lat="46.79603" lon="6.37516">
        <ele>1058.2</ele>
        <time>2021-08-14T12:55:10Z</time>
      </trkpt>
      <trkpt lat="46.79602" lon="6.37518">
        <ele>1058.4</ele>
        <time>2021-08-14T12:55:11Z</time>
      </trkpt>
      <trkpt lat="46.79602" lon="6.37522">
        <ele>1059</ele>
        <time>2021-08-14T12:55:14Z</time>
      </trkpt>
      <trkpt lat="46.79603" lon="6.37526">
        <ele>1059.5</ele>
        <time>2021-08-14T12:55:15Z</time>
      </trkpt>
      <trkpt lat="46.79603" lon="6.3753">
        <ele>1060.1</ele>
        <time>2021-08-14T12:55:17Z</time>
      </trkpt>
      <trkpt lat="46.79604" lon="6.37531">
        <ele>1060.2</ele>
        <time>2021-08-14T12:55:18Z</time>
      </trkpt>
      <trkpt lat="46.79604" lon="6.37533">
        <ele>1060.5</ele>
        <time>2021-08-14T12:55:19Z</time>
      </trkpt>
      <trkpt lat="46.79605" lon="6.37533">
        <ele>1060.6</ele>
        <time>2021-08-14T12:55:20Z</time>
      </trkpt>
      <trkpt lat="46.79605" lon="6.37533">
        <ele>1060.6</ele>
        <time>2021-08-14T12:55:22Z</time>
      </trkpt>
      <trkpt lat="46.79605" lon="6.37533">
        <ele>1060.6</ele>
        <time>2021-08-14T12:55:23Z</time>
      </trkpt>
      <trkpt lat="46.79605" lon="6.37533">
        <ele>1060.7</ele>
        <time>2021-08-14T12:55:24Z</time>
      </trkpt>
      <trkpt lat="46.79605" lon="6.37533">
        <ele>1060.7</ele>
        <time>2021-08-14T12:55:26Z</time>
      </trkpt>
      <trkpt lat="46.79605" lon="6.37533">
        <ele>1060.7</ele>
        <time>2021-08-14T12:55:27Z</time>
      </trkpt>
      <trkpt lat="46.79605" lon="6.37534">
        <ele>1060.7</ele>
        <time>2021-08-14T12:55:28Z</time>
      </trkpt>
      <trkpt lat="46.79605" lon="6.37534">
        <ele>1060.8</ele>
        <time>2021-08-14T12:55:30Z</time>
      </trkpt>
      <trkpt lat="46.79581" lon="6.37569">
        <ele>1065.7</ele>
        <time>2021-08-14T12:57:09Z</time>
      </trkpt>
      <trkpt lat="46.79577" lon="6.37571">
        <ele>1065.8</ele>
        <time>2021-08-14T12:57:11Z</time>
      </trkpt>
      <trkpt lat="46.79572" lon="6.37574">
        <ele>1066</ele>
        <time>2021-08-14T12:57:12Z</time>
      </trkpt>
      <trkpt lat="46.7957" lon="6.37575">
        <ele>1066.2</ele>
        <time>2021-08-14T12:57:14Z</time>
      </trkpt>
      <trkpt lat="46.79566" lon="6.37577">
        <ele>1066.3</ele>
        <time>2021-08-14T12:57:16Z</time>
      </trkpt>
      <trkpt lat="46.79562" lon="6.37581">
        <ele>1066.5</ele>
        <time>2021-08-14T12:57:17Z</time>
      </trkpt>
      <trkpt lat="46.79561" lon="6.37583">
        <ele>1066.5</ele>
        <time>2021-08-14T12:57:18Z</time>
      </trkpt>
      <trkpt lat="46.7956" lon="6.37584">
        <ele>1066.6</ele>
        <time>2021-08-14T12:57:20Z</time>
      </trkpt>
      <trkpt lat="46.79558" lon="6.37585">
        <ele>1066.6</ele>
        <time>2021-08-14T12:57:22Z</time>
      </trkpt>
      <trkpt lat="46.79557" lon="6.37586">
        <ele>1066.7</ele>
        <time>2021-08-14T12:57:23Z</time>
      </trkpt>
      <trkpt lat="46.79553" lon="6.37587">
        <ele>1066.7</ele>
        <time>2021-08-14T12:57:24Z</time>
      </trkpt>
      <trkpt lat="46.79552" lon="6.37587">
        <ele>1066.8</ele>
        <time>2021-08-14T12:57:25Z</time>
      </trkpt>
      <trkpt lat="46.79549" lon="6.37587">
        <ele>1066.8</ele>
        <time>2021-08-14T12:57:27Z</time>
      </trkpt>
      <trkpt lat="46.79548" lon="6.37587">
        <ele>1066.8</ele>
        <time>2021-08-14T12:57:28Z</time>
      </trkpt>
      <trkpt lat="46.79544" lon="6.37587">
        <ele>1066.8</ele>
        <time>2021-08-14T12:57:29Z</time>
      </trkpt>
      <trkpt lat="46.79543" lon="6.37586">
        <ele>1066.9</ele>
        <time>2021-08-14T12:57:30Z</time>
      </trkpt>
      <trkpt lat="46.7954" lon="6.37583">
        <ele>1066.9</ele>
        <time>2021-08-14T12:57:31Z</time>
      </trkpt>
      <trkpt lat="46.79536" lon="6.37583">
        <ele>1066.9</ele>
        <time>2021-08-14T12:57:33Z</time>
      </trkpt>
      <trkpt lat="46.79532" lon="6.37586">
        <ele>1066.9</ele>
        <time>2021-08-14T12:57:34Z</time>
      </trkpt>
      <trkpt lat="46.79531" lon="6.37587">
        <ele>1066.9</ele>
        <time>2021-08-14T12:57:35Z</time>
      </trkpt>
      <trkpt lat="46.79528" lon="6.37589">
        <ele>1066.9</ele>
        <time>2021-08-14T12:57:36Z</time>
      </trkpt>
      <trkpt lat="46.79526" lon="6.37589">
        <ele>1066.9</ele>
        <time>2021-08-14T12:57:37Z</time>
      </trkpt>
      <trkpt lat="46.79522" lon="6.37589">
        <ele>1066.9</ele>
        <time>2021-08-14T12:57:38Z</time>
      </trkpt>
      <trkpt lat="46.79517" lon="6.3759">
        <ele>1066.9</ele>
        <time>2021-08-14T12:57:40Z</time>
      </trkpt>
      <trkpt lat="46.79512" lon="6.37589">
        <ele>1066.8</ele>
        <time>2021-08-14T12:57:41Z</time>
      </trkpt>
      <trkpt lat="46.79507" lon="6.37585">
        <ele>1066.7</ele>
        <time>2021-08-14T12:57:42Z</time>
      </trkpt>
      <trkpt lat="46.79499" lon="6.37578">
        <ele>1066.5</ele>
        <time>2021-08-14T12:57:43Z</time>
      </trkpt>
      <trkpt lat="46.79492" lon="6.37574">
        <ele>1066.3</ele>
        <time>2021-08-14T12:57:45Z</time>
      </trkpt>
      <trkpt lat="46.79488" lon="6.37572">
        <ele>1066.2</ele>
        <time>2021-08-14T12:57:46Z</time>
      </trkpt>
      <trkpt lat="46.79483" lon="6.37569">
        <ele>1066</ele>
        <time>2021-08-14T12:57:47Z</time>
      </trkpt>
      <trkpt lat="46.79473" lon="6.37566">
        <ele>1065.6</ele>
        <time>2021-08-14T12:57:49Z</time>
      </trkpt>
      <trkpt lat="46.79469" lon="6.37564">
        <ele>1065.4</ele>
        <time>2021-08-14T12:57:50Z</time>
      </trkpt>
      <trkpt lat="46.79459" lon="6.37561">
        <ele>1064.9</ele>
        <time>2021-08-14T12:57:52Z</time>
      </trkpt>
      <trkpt lat="46.79448" lon="6.37556">
        <ele>1064.6</ele>
        <time>2021-08-14T12:57:54Z</time>
      </trkpt>
      <trkpt lat="46.7944" lon="6.37555">
        <ele>1064.4</ele>
        <time>2021-08-14T12:57:56Z</time>
      </trkpt>
      <trkpt lat="46.79436" lon="6.37553">
        <ele>1064.3</ele>
        <time>2021-08-14T12:57:57Z</time>
      </trkpt>
      <trkpt lat="46.7943" lon="6.37552">
        <ele>1064.2</ele>
        <time>2021-08-14T12:57:58Z</time>
      </trkpt>
      <trkpt lat="46.79425" lon="6.3755">
        <ele>1064.2</ele>
        <time>2021-08-14T12:58:00Z</time>
      </trkpt>
      <trkpt lat="46.79417" lon="6.37548">
        <ele>1064.3</ele>
        <time>2021-08-14T12:58:02Z</time>
      </trkpt>
      <trkpt lat="46.7941" lon="6.37549">
        <ele>1064.5</ele>
        <time>2021-08-14T12:58:03Z</time>
      </trkpt>
      <trkpt lat="46.79405" lon="6.37551">
        <ele>1064.7</ele>
        <time>2021-08-14T12:58:05Z</time>
      </trkpt>
      <trkpt lat="46.79401" lon="6.37557">
        <ele>1064.9</ele>
        <time>2021-08-14T12:58:06Z</time>
      </trkpt>
      <trkpt lat="46.79396" lon="6.37558">
        <ele>1065.2</ele>
        <time>2021-08-14T12:58:08Z</time>
      </trkpt>
      <trkpt lat="46.7939" lon="6.37557">
        <ele>1065.5</ele>
        <time>2021-08-14T12:58:09Z</time>
      </trkpt>
      <trkpt lat="46.79386" lon="6.37556">
        <ele>1065.7</ele>
        <time>2021-08-14T12:58:11Z</time>
      </trkpt>
      <trkpt lat="46.79382" lon="6.37555">
        <ele>1065.9</ele>
        <time>2021-08-14T12:58:12Z</time>
      </trkpt>
      <trkpt lat="46.79376" lon="6.37552">
        <ele>1066.2</ele>
        <time>2021-08-14T12:58:13Z</time>
      </trkpt>
      <trkpt lat="46.79372" lon="6.37551">
        <ele>1066.5</ele>
        <time>2021-08-14T12:58:15Z</time>
      </trkpt>
      <trkpt lat="46.79369" lon="6.37551">
        <ele>1066.6</ele>
        <time>2021-08-14T12:58:17Z</time>
      </trkpt>
      <trkpt lat="46.79368" lon="6.37552">
        <ele>1066.8</ele>
        <time>2021-08-14T12:58:18Z</time>
      </trkpt>
      <trkpt lat="46.79364" lon="6.37554">
        <ele>1067</ele>
        <time>2021-08-14T12:58:20Z</time>
      </trkpt>
      <trkpt lat="46.7936" lon="6.37556">
        <ele>1067.4</ele>
        <time>2021-08-14T12:58:21Z</time>
      </trkpt>
      <trkpt lat="46.79357" lon="6.37558">
        <ele>1067.7</ele>
        <time>2021-08-14T12:58:23Z</time>
      </trkpt>
      <trkpt lat="46.79355" lon="6.37559">
        <ele>1067.9</ele>
        <time>2021-08-14T12:58:24Z</time>
      </trkpt>
      <trkpt lat="46.79354" lon="6.3756">
        <ele>1068</ele>
        <time>2021-08-14T12:58:25Z</time>
      </trkpt>
      <trkpt lat="46.79355" lon="6.37562">
        <ele>1068.2</ele>
        <time>2021-08-14T12:58:26Z</time>
      </trkpt>
      <trkpt lat="46.79355" lon="6.37563">
        <ele>1068.2</ele>
        <time>2021-08-14T12:58:28Z</time>
      </trkpt>
      <trkpt lat="46.79355" lon="6.37563">
        <ele>1068.2</ele>
        <time>2021-08-14T12:58:29Z</time>
      </trkpt>
      <trkpt lat="46.79355" lon="6.37563">
        <ele>1068.2</ele>
        <time>2021-08-14T12:58:30Z</time>
      </trkpt>
      <trkpt lat="46.79355" lon="6.37564">
        <ele>1068.3</ele>
        <time>2021-08-14T12:58:32Z</time>
      </trkpt>
      <trkpt lat="46.79356" lon="6.37565">
        <ele>1068.5</ele>
        <time>2021-08-14T12:58:34Z</time>
      </trkpt>
      <trkpt lat="46.79325" lon="6.37568">
        <ele>1069.8</ele>
        <time>2021-08-14T12:59:34Z</time>
      </trkpt>
      <trkpt lat="46.79322" lon="6.37565">
        <ele>1069.6</ele>
        <time>2021-08-14T12:59:35Z</time>
      </trkpt>
      <trkpt lat="46.79314" lon="6.37561">
        <ele>1069.3</ele>
        <time>2021-08-14T12:59:36Z</time>
      </trkpt>
      <trkpt lat="46.79303" lon="6.37561">
        <ele>1068.7</ele>
        <time>2021-08-14T12:59:38Z</time>
      </trkpt>
      <trkpt lat="46.79288" lon="6.37557">
        <ele>1067.7</ele>
        <time>2021-08-14T12:59:40Z</time>
      </trkpt>
      <trkpt lat="46.79281" lon="6.37555">
        <ele>1066.9</ele>
        <time>2021-08-14T12:59:41Z</time>
      </trkpt>
      <trkpt lat="46.79273" lon="6.37552">
        <ele>1066.2</ele>
        <time>2021-08-14T12:59:42Z</time>
      </trkpt>
      <trkpt lat="46.79258" lon="6.37546">
        <ele>1065</ele>
        <time>2021-08-14T12:59:44Z</time>
      </trkpt>
      <trkpt lat="46.79243" lon="6.37544">
        <ele>1063.9</ele>
        <time>2021-08-14T12:59:46Z</time>
      </trkpt>
      <trkpt lat="46.79234" lon="6.3754">
        <ele>1063.2</ele>
        <time>2021-08-14T12:59:47Z</time>
      </trkpt>
      <trkpt lat="46.79226" lon="6.37537">
        <ele>1062.6</ele>
        <time>2021-08-14T12:59:48Z</time>
      </trkpt>
      <trkpt lat="46.79208" lon="6.37531">
        <ele>1061.2</ele>
        <time>2021-08-14T12:59:50Z</time>
      </trkpt>
      <trkpt lat="46.7919" lon="6.37524">
        <ele>1059.6</ele>
        <time>2021-08-14T12:59:52Z</time>
      </trkpt>
      <trkpt lat="46.7918" lon="6.37521">
        <ele>1058.9</ele>
        <time>2021-08-14T12:59:53Z</time>
      </trkpt>
      <trkpt lat="46.7917" lon="6.37518">
        <ele>1058.1</ele>
        <time>2021-08-14T12:59:54Z</time>
      </trkpt>
      <trkpt lat="46.7915" lon="6.37512">
        <ele>1056.7</ele>
        <time>2021-08-14T12:59:56Z</time>
      </trkpt>
      <trkpt lat="46.79133" lon="6.37506">
        <ele>1055.6</ele>
        <time>2021-08-14T12:59:58Z</time>
      </trkpt>
      <trkpt lat="46.79126" lon="6.37505">
        <ele>1055.4</ele>
        <time>2021-08-14T12:59:59Z</time>
      </trkpt>
      <trkpt lat="46.79121" lon="6.37506">
        <ele>1055.2</ele>
        <time>2021-08-14T13:00:00Z</time>
      </trkpt>
      <trkpt lat="46.79111" lon="6.37507">
        <ele>1055.2</ele>
        <time>2021-08-14T13:00:02Z</time>
      </trkpt>
      <trkpt lat="46.79106" lon="6.37508">
        <ele>1055.4</ele>
        <time>2021-08-14T13:00:03Z</time>
      </trkpt>
      <trkpt lat="46.791" lon="6.3751">
        <ele>1055.7</ele>
        <time>2021-08-14T13:00:04Z</time>
      </trkpt>
      <trkpt lat="46.79095" lon="6.37512">
        <ele>1056.1</ele>
        <time>2021-08-14T13:00:05Z</time>
      </trkpt>
      <trkpt lat="46.7909" lon="6.37515">
        <ele>1056.5</ele>
        <time>2021-08-14T13:00:06Z</time>
      </trkpt>
      <trkpt lat="46.79082" lon="6.37518">
        <ele>1057.3</ele>
        <time>2021-08-14T13:00:08Z</time>
      </trkpt>
      <trkpt lat="46.79079" lon="6.37519">
        <ele>1057.7</ele>
        <time>2021-08-14T13:00:10Z</time>
      </trkpt>
      <trkpt lat="46.79073" lon="6.3752">
        <ele>1058.3</ele>
        <time>2021-08-14T13:00:12Z</time>
      </trkpt>
      <trkpt lat="46.7907" lon="6.3752">
        <ele>1058.7</ele>
        <time>2021-08-14T13:00:13Z</time>
      </trkpt>
      <trkpt lat="46.79068" lon="6.37521">
        <ele>1059.1</ele>
        <time>2021-08-14T13:00:14Z</time>
      </trkpt>
      <trkpt lat="46.79065" lon="6.3752">
        <ele>1059.5</ele>
        <time>2021-08-14T13:00:15Z</time>
      </trkpt>
      <trkpt lat="46.79061" lon="6.37521">
        <ele>1060.1</ele>
        <time>2021-08-14T13:00:17Z</time>
      </trkpt>
      <trkpt lat="46.79059" lon="6.37522">
        <ele>1060.3</ele>
        <time>2021-08-14T13:00:18Z</time>
      </trkpt>
      <trkpt lat="46.79056" lon="6.37524">
        <ele>1060.9</ele>
        <time>2021-08-14T13:00:20Z</time>
      </trkpt>
      <trkpt lat="46.79051" lon="6.37526">
        <ele>1061.5</ele>
        <time>2021-08-14T13:00:21Z</time>
      </trkpt>
      <trkpt lat="46.79046" lon="6.37525">
        <ele>1062.1</ele>
        <time>2021-08-14T13:00:23Z</time>
      </trkpt>
      <trkpt lat="46.79044" lon="6.37524">
        <ele>1062.4</ele>
        <time>2021-08-14T13:00:24Z</time>
      </trkpt>
      <trkpt lat="46.79042" lon="6.37524">
        <ele>1062.6</ele>
        <time>2021-08-14T13:00:26Z</time>
      </trkpt>
      <trkpt lat="46.79042" lon="6.37523">
        <ele>1062.8</ele>
        <time>2021-08-14T13:00:27Z</time>
      </trkpt>
      <trkpt lat="46.7904" lon="6.37522">
        <ele>1062.9</ele>
        <time>2021-08-14T13:00:29Z</time>
      </trkpt>
      <trkpt lat="46.79039" lon="6.37522">
        <ele>1063.1</ele>
        <time>2021-08-14T13:00:31Z</time>
      </trkpt>
      <trkpt lat="46.79038" lon="6.37523">
        <ele>1063.2</ele>
        <time>2021-08-14T13:00:32Z</time>
      </trkpt>
      <trkpt lat="46.79036" lon="6.37525">
        <ele>1063.5</ele>
        <time>2021-08-14T13:00:33Z</time>
      </trkpt>
      <trkpt lat="46.79033" lon="6.37528">
        <ele>1063.9</ele>
        <time>2021-08-14T13:00:35Z</time>
      </trkpt>
      <trkpt lat="46.79018" lon="6.37534">
        <ele>1065.5</ele>
        <time>2021-08-14T13:00:36Z</time>
      </trkpt>
      <trkpt lat="46.79004" lon="6.37539">
        <ele>1066.8</ele>
        <time>2021-08-14T13:01:08Z</time>
      </trkpt>
      <trkpt lat="46.7899" lon="6.37543">
        <ele>1067.9</ele>
        <time>2021-08-14T13:01:09Z</time>
      </trkpt>
      <trkpt lat="46.78986" lon="6.37547">
        <ele>1068.4</ele>
        <time>2021-08-14T13:01:10Z</time>
      </trkpt>
      <trkpt lat="46.78982" lon="6.3755">
        <ele>1068.7</ele>
        <time>2021-08-14T13:01:12Z</time>
      </trkpt>
      <trkpt lat="46.78977" lon="6.37556">
        <ele>1069.3</ele>
        <time>2021-08-14T13:01:13Z</time>
      </trkpt>
      <trkpt lat="46.78974" lon="6.37561">
        <ele>1069.8</ele>
        <time>2021-08-14T13:01:15Z</time>
      </trkpt>
      <trkpt lat="46.78971" lon="6.37563">
        <ele>1070.1</ele>
        <time>2021-08-14T13:01:16Z</time>
      </trkpt>
      <trkpt lat="46.78967" lon="6.37564">
        <ele>1070.5</ele>
        <time>2021-08-14T13:01:17Z</time>
      </trkpt>
      <trkpt lat="46.78963" lon="6.37563">
        <ele>1070.8</ele>
        <time>2021-08-14T13:01:19Z</time>
      </trkpt>
      <trkpt lat="46.7896" lon="6.37561">
        <ele>1071.1</ele>
        <time>2021-08-14T13:01:20Z</time>
      </trkpt>
      <trkpt lat="46.78957" lon="6.37557">
        <ele>1071.4</ele>
        <time>2021-08-14T13:01:21Z</time>
      </trkpt>
      <trkpt lat="46.78956" lon="6.37553">
        <ele>1071.5</ele>
        <time>2021-08-14T13:01:23Z</time>
      </trkpt>
      <trkpt lat="46.78955" lon="6.37551">
        <ele>1071.5</ele>
        <time>2021-08-14T13:01:24Z</time>
      </trkpt>
      <trkpt lat="46.78953" lon="6.37549">
        <ele>1071.5</ele>
        <time>2021-08-14T13:01:26Z</time>
      </trkpt>
      <trkpt lat="46.78951" lon="6.37549">
        <ele>1071.5</ele>
        <time>2021-08-14T13:01:27Z</time>
      </trkpt>
      <trkpt lat="46.7895" lon="6.37549">
        <ele>1071.5</ele>
        <time>2021-08-14T13:01:28Z</time>
      </trkpt>
      <trkpt lat="46.78948" lon="6.37549">
        <ele>1071.5</ele>
        <time>2021-08-14T13:01:30Z</time>
      </trkpt>
      <trkpt lat="46.78947" lon="6.37549">
        <ele>1071.5</ele>
        <time>2021-08-14T13:01:31Z</time>
      </trkpt>
      <trkpt lat="46.78945" lon="6.37549">
        <ele>1071.5</ele>
        <time>2021-08-14T13:01:32Z</time>
      </trkpt>
      <trkpt lat="46.78943" lon="6.37549">
        <ele>1071.5</ele>
        <time>2021-08-14T13:01:33Z</time>
      </trkpt>
      <trkpt lat="46.78942" lon="6.37549">
        <ele>1071.4</ele>
        <time>2021-08-14T13:01:35Z</time>
      </trkpt>
      <trkpt lat="46.7894" lon="6.37549">
        <ele>1071.4</ele>
        <time>2021-08-14T13:01:37Z</time>
      </trkpt>
      <trkpt lat="46.78939" lon="6.37549">
        <ele>1071.4</ele>
        <time>2021-08-14T13:01:38Z</time>
      </trkpt>
      <trkpt lat="46.78937" lon="6.37549">
        <ele>1071.3</ele>
        <time>2021-08-14T13:01:39Z</time>
      </trkpt>
      <trkpt lat="46.78935" lon="6.37549">
        <ele>1071.2</ele>
        <time>2021-08-14T13:01:41Z</time>
      </trkpt>
      <trkpt lat="46.78934" lon="6.37549">
        <ele>1071.2</ele>
        <time>2021-08-14T13:01:59Z</time>
      </trkpt>
      <trkpt lat="46.78932" lon="6.37549">
        <ele>1071.1</ele>
        <time>2021-08-14T13:02:00Z</time>
      </trkpt>
      <trkpt lat="46.78926" lon="6.37546">
        <ele>1070.7</ele>
        <time>2021-08-14T13:02:02Z</time>
      </trkpt>
      <trkpt lat="46.78916" lon="6.37545">
        <ele>1070</ele>
        <time>2021-08-14T13:02:03Z</time>
      </trkpt>
      <trkpt lat="46.78907" lon="6.37544">
        <ele>1069.3</ele>
        <time>2021-08-14T13:02:05Z</time>
      </trkpt>
      <trkpt lat="46.78898" lon="6.37546">
        <ele>1068.4</ele>
        <time>2021-08-14T13:02:06Z</time>
      </trkpt>
      <trkpt lat="46.78889" lon="6.37548">
        <ele>1067.6</ele>
        <time>2021-08-14T13:02:08Z</time>
      </trkpt>
      <trkpt lat="46.78877" lon="6.3755">
        <ele>1066.8</ele>
        <time>2021-08-14T13:02:10Z</time>
      </trkpt>
      <trkpt lat="46.78872" lon="6.37551">
        <ele>1066.5</ele>
        <time>2021-08-14T13:02:11Z</time>
      </trkpt>
      <trkpt lat="46.78869" lon="6.37553">
        <ele>1066.3</ele>
        <time>2021-08-14T13:02:12Z</time>
      </trkpt>
      <trkpt lat="46.78863" lon="6.37556">
        <ele>1066.1</ele>
        <time>2021-08-14T13:02:13Z</time>
      </trkpt>
      <trkpt lat="46.78856" lon="6.37559">
        <ele>1065.9</ele>
        <time>2021-08-14T13:02:15Z</time>
      </trkpt>
      <trkpt lat="46.78845" lon="6.37562">
        <ele>1065.8</ele>
        <time>2021-08-14T13:02:17Z</time>
      </trkpt>
      <trkpt lat="46.78841" lon="6.37563">
        <ele>1065.7</ele>
        <time>2021-08-14T13:02:18Z</time>
      </trkpt>
      <trkpt lat="46.78835" lon="6.37559">
        <ele>1065.7</ele>
        <time>2021-08-14T13:02:19Z</time>
      </trkpt>
      <trkpt lat="46.78831" lon="6.37562">
        <ele>1065.8</ele>
        <time>2021-08-14T13:02:21Z</time>
      </trkpt>
      <trkpt lat="46.78827" lon="6.37565">
        <ele>1065.8</ele>
        <time>2021-08-14T13:02:22Z</time>
      </trkpt>
      <trkpt lat="46.78822" lon="6.3757">
        <ele>1066</ele>
        <time>2021-08-14T13:02:24Z</time>
      </trkpt>
      <trkpt lat="46.78816" lon="6.37573">
        <ele>1066.2</ele>
        <time>2021-08-14T13:02:26Z</time>
      </trkpt>
      <trkpt lat="46.78811" lon="6.37574">
        <ele>1066.3</ele>
        <time>2021-08-14T13:02:27Z</time>
      </trkpt>
      <trkpt lat="46.78807" lon="6.37573">
        <ele>1066.4</ele>
        <time>2021-08-14T13:02:29Z</time>
      </trkpt>
      <trkpt lat="46.78805" lon="6.37571">
        <ele>1066.5</ele>
        <time>2021-08-14T13:02:30Z</time>
      </trkpt>
      <trkpt lat="46.78802" lon="6.37569">
        <ele>1066.4</ele>
        <time>2021-08-14T13:02:31Z</time>
      </trkpt>
      <trkpt lat="46.78802" lon="6.37568">
        <ele>1066.4</ele>
        <time>2021-08-14T13:02:33Z</time>
      </trkpt>
      <trkpt lat="46.78801" lon="6.37568">
        <ele>1066.3</ele>
        <time>2021-08-14T13:02:34Z</time>
      </trkpt>
      <trkpt lat="46.78801" lon="6.37567">
        <ele>1066.2</ele>
        <time>2021-08-14T13:02:35Z</time>
      </trkpt>
      <trkpt lat="46.788" lon="6.37566">
        <ele>1066.1</ele>
        <time>2021-08-14T13:02:37Z</time>
      </trkpt>
      <trkpt lat="46.788" lon="6.37566">
        <ele>1066.1</ele>
        <time>2021-08-14T13:02:38Z</time>
      </trkpt>
      <trkpt lat="46.78795" lon="6.37563">
        <ele>1065.7</ele>
        <time>2021-08-14T13:02:39Z</time>
      </trkpt>
      <trkpt lat="46.78791" lon="6.37562">
        <ele>1065.3</ele>
        <time>2021-08-14T13:02:41Z</time>
      </trkpt>
      <trkpt lat="46.78787" lon="6.3756">
        <ele>1065</ele>
        <time>2021-08-14T13:02:56Z</time>
      </trkpt>
      <trkpt lat="46.78783" lon="6.37558">
        <ele>1064.7</ele>
        <time>2021-08-14T13:02:57Z</time>
      </trkpt>
      <trkpt lat="46.78777" lon="6.37556">
        <ele>1064.2</ele>
        <time>2021-08-14T13:02:58Z</time>
      </trkpt>
      <trkpt lat="46.78763" lon="6.37548">
        <ele>1063.4</ele>
        <time>2021-08-14T13:03:00Z</time>
      </trkpt>
      <trkpt lat="46.78751" lon="6.3755">
        <ele>1063.2</ele>
        <time>2021-08-14T13:03:02Z</time>
      </trkpt>
      <trkpt lat="46.78746" lon="6.37552">
        <ele>1063.3</ele>
        <time>2021-08-14T13:03:03Z</time>
      </trkpt>
      <trkpt lat="46.78743" lon="6.37559">
        <ele>1063.4</ele>
        <time>2021-08-14T13:03:04Z</time>
      </trkpt>
      <trkpt lat="46.78739" lon="6.37561">
        <ele>1063.5</ele>
        <time>2021-08-14T13:03:05Z</time>
      </trkpt>
      <trkpt lat="46.78736" lon="6.37564">
        <ele>1063.6</ele>
        <time>2021-08-14T13:03:07Z</time>
      </trkpt>
      <trkpt lat="46.78733" lon="6.37569">
        <ele>1063.7</ele>
        <time>2021-08-14T13:03:08Z</time>
      </trkpt>
      <trkpt lat="46.78732" lon="6.37572">
        <ele>1063.7</ele>
        <time>2021-08-14T13:03:09Z</time>
      </trkpt>
      <trkpt lat="46.78732" lon="6.37578">
        <ele>1063.8</ele>
        <time>2021-08-14T13:03:10Z</time>
      </trkpt>
      <trkpt lat="46.78729" lon="6.37584">
        <ele>1064</ele>
        <time>2021-08-14T13:03:12Z</time>
      </trkpt>
      <trkpt lat="46.78727" lon="6.37588">
        <ele>1064.1</ele>
        <time>2021-08-14T13:03:13Z</time>
      </trkpt>
      <trkpt lat="46.78723" lon="6.3759">
        <ele>1064.2</ele>
        <time>2021-08-14T13:03:14Z</time>
      </trkpt>
      <trkpt lat="46.78717" lon="6.37591">
        <ele>1064.5</ele>
        <time>2021-08-14T13:03:16Z</time>
      </trkpt>
      <trkpt lat="46.78712" lon="6.37591">
        <ele>1064.7</ele>
        <time>2021-08-14T13:03:17Z</time>
      </trkpt>
      <trkpt lat="46.78708" lon="6.37593">
        <ele>1065</ele>
        <time>2021-08-14T13:03:19Z</time>
      </trkpt>
      <trkpt lat="46.78703" lon="6.37595">
        <ele>1065.3</ele>
        <time>2021-08-14T13:03:20Z</time>
      </trkpt>
      <trkpt lat="46.78701" lon="6.37597">
        <ele>1065.5</ele>
        <time>2021-08-14T13:03:22Z</time>
      </trkpt>
      <trkpt lat="46.787" lon="6.37601">
        <ele>1065.7</ele>
        <time>2021-08-14T13:03:23Z</time>
      </trkpt>
      <trkpt lat="46.78697" lon="6.37602">
        <ele>1066</ele>
        <time>2021-08-14T13:03:25Z</time>
      </trkpt>
      <trkpt lat="46.78696" lon="6.37602">
        <ele>1066.1</ele>
        <time>2021-08-14T13:03:26Z</time>
      </trkpt>
      <trkpt lat="46.78694" lon="6.37603">
        <ele>1066.2</ele>
        <time>2021-08-14T13:03:27Z</time>
      </trkpt>
      <trkpt lat="46.78691" lon="6.37603">
        <ele>1066.5</ele>
        <time>2021-08-14T13:03:29Z</time>
      </trkpt>
      <trkpt lat="46.7869" lon="6.37602">
        <ele>1066.6</ele>
        <time>2021-08-14T13:03:30Z</time>
      </trkpt>
      <trkpt lat="46.78688" lon="6.37602">
        <ele>1066.7</ele>
        <time>2021-08-14T13:03:31Z</time>
      </trkpt>
      <trkpt lat="46.78687" lon="6.37601">
        <ele>1066.9</ele>
        <time>2021-08-14T13:03:32Z</time>
      </trkpt>
      <trkpt lat="46.78687" lon="6.376">
        <ele>1067</ele>
        <time>2021-08-14T13:03:34Z</time>
      </trkpt>
      <trkpt lat="46.78687" lon="6.376">
        <ele>1067</ele>
        <time>2021-08-14T13:03:35Z</time>
      </trkpt>
      <trkpt lat="46.78686" lon="6.376">
        <ele>1067.1</ele>
        <time>2021-08-14T13:03:36Z</time>
      </trkpt>
      <trkpt lat="46.78685" lon="6.376">
        <ele>1067.2</ele>
        <time>2021-08-14T13:03:38Z</time>
      </trkpt>
      <trkpt lat="46.78684" lon="6.37601">
        <ele>1067.4</ele>
        <time>2021-08-14T13:03:39Z</time>
      </trkpt>
      <trkpt lat="46.78681" lon="6.37602">
        <ele>1067.6</ele>
        <time>2021-08-14T13:03:40Z</time>
      </trkpt>
      <trkpt lat="46.7868" lon="6.37603">
        <ele>1067.7</ele>
        <time>2021-08-14T13:03:41Z</time>
      </trkpt>
      <trkpt lat="46.78635" lon="6.37654">
        <ele>1075.1</ele>
        <time>2021-08-14T13:04:51Z</time>
      </trkpt>
      <trkpt lat="46.78633" lon="6.37658">
        <ele>1075.4</ele>
        <time>2021-08-14T13:04:53Z</time>
      </trkpt>
      <trkpt lat="46.78632" lon="6.3766">
        <ele>1075.5</ele>
        <time>2021-08-14T13:04:54Z</time>
      </trkpt>
      <trkpt lat="46.78629" lon="6.37659">
        <ele>1075.7</ele>
        <time>2021-08-14T13:04:56Z</time>
      </trkpt>
      <trkpt lat="46.78626" lon="6.37658">
        <ele>1075.9</ele>
        <time>2021-08-14T13:04:57Z</time>
      </trkpt>
      <trkpt lat="46.78625" lon="6.37657">
        <ele>1076</ele>
        <time>2021-08-14T13:04:58Z</time>
      </trkpt>
      <trkpt lat="46.78621" lon="6.37649">
        <ele>1076.4</ele>
        <time>2021-08-14T13:05:00Z</time>
      </trkpt>
      <trkpt lat="46.78618" lon="6.37643">
        <ele>1076.6</ele>
        <time>2021-08-14T13:05:01Z</time>
      </trkpt>
      <trkpt lat="46.78619" lon="6.37643">
        <ele>1076.7</ele>
        <time>2021-08-14T13:05:03Z</time>
      </trkpt>
      <trkpt lat="46.78619" lon="6.37644">
        <ele>1076.7</ele>
        <time>2021-08-14T13:05:05Z</time>
      </trkpt>
      <trkpt lat="46.78619" lon="6.37644">
        <ele>1076.7</ele>
        <time>2021-08-14T13:05:06Z</time>
      </trkpt>
      <trkpt lat="46.78619" lon="6.37643">
        <ele>1076.7</ele>
        <time>2021-08-14T13:05:07Z</time>
      </trkpt>
      <trkpt lat="46.78619" lon="6.37643">
        <ele>1076.7</ele>
        <time>2021-08-14T13:05:09Z</time>
      </trkpt>
      <trkpt lat="46.78619" lon="6.37645">
        <ele>1076.7</ele>
        <time>2021-08-14T13:05:10Z</time>
      </trkpt>
      <trkpt lat="46.78608" lon="6.37649">
        <ele>1077</ele>
        <time>2021-08-14T13:05:20Z</time>
      </trkpt>
      <trkpt lat="46.78603" lon="6.3765">
        <ele>1077</ele>
        <time>2021-08-14T13:05:22Z</time>
      </trkpt>
      <trkpt lat="46.78597" lon="6.37652">
        <ele>1076.9</ele>
        <time>2021-08-14T13:05:23Z</time>
      </trkpt>
      <trkpt lat="46.78594" lon="6.37654">
        <ele>1076.8</ele>
        <time>2021-08-14T13:05:24Z</time>
      </trkpt>
      <trkpt lat="46.7859" lon="6.37653">
        <ele>1076.7</ele>
        <time>2021-08-14T13:05:26Z</time>
      </trkpt>
      <trkpt lat="46.78589" lon="6.37652">
        <ele>1076.6</ele>
        <time>2021-08-14T13:05:27Z</time>
      </trkpt>
      <trkpt lat="46.78586" lon="6.37647">
        <ele>1076.4</ele>
        <time>2021-08-14T13:05:29Z</time>
      </trkpt>
      <trkpt lat="46.78582" lon="6.37643">
        <ele>1076.1</ele>
        <time>2021-08-14T13:05:30Z</time>
      </trkpt>
      <trkpt lat="46.78581" lon="6.37642">
        <ele>1076</ele>
        <time>2021-08-14T13:05:32Z</time>
      </trkpt>
      <trkpt lat="46.7858" lon="6.37641">
        <ele>1076</ele>
        <time>2021-08-14T13:05:33Z</time>
      </trkpt>
      <trkpt lat="46.7858" lon="6.3764">
        <ele>1075.9</ele>
        <time>2021-08-14T13:05:34Z</time>
      </trkpt>
      <trkpt lat="46.7858" lon="6.3764">
        <ele>1075.9</ele>
        <time>2021-08-14T13:05:36Z</time>
      </trkpt>
      <trkpt lat="46.7858" lon="6.37639">
        <ele>1075.9</ele>
        <time>2021-08-14T13:05:37Z</time>
      </trkpt>
      <trkpt lat="46.78577" lon="6.37639">
        <ele>1075.7</ele>
        <time>2021-08-14T13:05:38Z</time>
      </trkpt>
      <trkpt lat="46.78573" lon="6.37637">
        <ele>1075.5</ele>
        <time>2021-08-14T13:05:39Z</time>
      </trkpt>
      <trkpt lat="46.78568" lon="6.37633">
        <ele>1075.3</ele>
        <time>2021-08-14T13:05:40Z</time>
      </trkpt>
      <trkpt lat="46.78562" lon="6.37632">
        <ele>1075.1</ele>
        <time>2021-08-14T13:05:41Z</time>
      </trkpt>
      <trkpt lat="46.78553" lon="6.3763">
        <ele>1074.8</ele>
        <time>2021-08-14T13:05:43Z</time>
      </trkpt>
      <trkpt lat="46.78547" lon="6.3763">
        <ele>1074.7</ele>
        <time>2021-08-14T13:05:44Z</time>
      </trkpt>
      <trkpt lat="46.7854" lon="6.37629">
        <ele>1074.6</ele>
        <time>2021-08-14T13:05:45Z</time>
      </trkpt>
      <trkpt lat="46.78536" lon="6.37628">
        <ele>1074.5</ele>
        <time>2021-08-14T13:05:46Z</time>
      </trkpt>
      <trkpt lat="46.78531" lon="6.37628">
        <ele>1074.4</ele>
        <time>2021-08-14T13:05:48Z</time>
      </trkpt>
      <trkpt lat="46.78525" lon="6.37625">
        <ele>1074.2</ele>
        <time>2021-08-14T13:05:49Z</time>
      </trkpt>
      <trkpt lat="46.78519" lon="6.37622">
        <ele>1074</ele>
        <time>2021-08-14T13:05:50Z</time>
      </trkpt>
      <trkpt lat="46.78514" lon="6.3762">
        <ele>1073.8</ele>
        <time>2021-08-14T13:05:51Z</time>
      </trkpt>
      <trkpt lat="46.78509" lon="6.37618">
        <ele>1073.6</ele>
        <time>2021-08-14T13:05:52Z</time>
      </trkpt>
      <trkpt lat="46.78502" lon="6.37618">
        <ele>1073.3</ele>
        <time>2021-08-14T13:05:54Z</time>
      </trkpt>
      <trkpt lat="46.78494" lon="6.37618">
        <ele>1073.1</ele>
        <time>2021-08-14T13:05:55Z</time>
      </trkpt>
      <trkpt lat="46.78483" lon="6.3762">
        <ele>1072.8</ele>
        <time>2021-08-14T13:05:57Z</time>
      </trkpt>
      <trkpt lat="46.78476" lon="6.3762">
        <ele>1072.6</ele>
        <time>2021-08-14T13:05:58Z</time>
      </trkpt>
      <trkpt lat="46.7847" lon="6.37619">
        <ele>1072.4</ele>
        <time>2021-08-14T13:05:59Z</time>
      </trkpt>
      <trkpt lat="46.78458" lon="6.37619">
        <ele>1072</ele>
        <time>2021-08-14T13:06:01Z</time>
      </trkpt>
      <trkpt lat="46.78452" lon="6.37622">
        <ele>1071.7</ele>
        <time>2021-08-14T13:06:02Z</time>
      </trkpt>
      <trkpt lat="46.78445" lon="6.37625">
        <ele>1071.4</ele>
        <time>2021-08-14T13:06:04Z</time>
      </trkpt>
      <trkpt lat="46.78439" lon="6.37627">
        <ele>1071.2</ele>
        <time>2021-08-14T13:06:05Z</time>
      </trkpt>
      <trkpt lat="46.78433" lon="6.3763">
        <ele>1071</ele>
        <time>2021-08-14T13:06:06Z</time>
      </trkpt>
      <trkpt lat="46.78427" lon="6.37631">
        <ele>1070.9</ele>
        <time>2021-08-14T13:06:08Z</time>
      </trkpt>
      <trkpt lat="46.78422" lon="6.3763">
        <ele>1070.8</ele>
        <time>2021-08-14T13:06:09Z</time>
      </trkpt>
      <trkpt lat="46.7842" lon="6.37629">
        <ele>1070.8</ele>
        <time>2021-08-14T13:06:10Z</time>
      </trkpt>
      <trkpt lat="46.78414" lon="6.37627">
        <ele>1070.7</ele>
        <time>2021-08-14T13:06:12Z</time>
      </trkpt>
      <trkpt lat="46.78409" lon="6.37625">
        <ele>1070.5</ele>
        <time>2021-08-14T13:06:13Z</time>
      </trkpt>
      <trkpt lat="46.78405" lon="6.37626">
        <ele>1070.4</ele>
        <time>2021-08-14T13:06:14Z</time>
      </trkpt>
      <trkpt lat="46.78404" lon="6.37625">
        <ele>1070.4</ele>
        <time>2021-08-14T13:06:15Z</time>
      </trkpt>
      <trkpt lat="46.78402" lon="6.37624">
        <ele>1070.3</ele>
        <time>2021-08-14T13:06:16Z</time>
      </trkpt>
      <trkpt lat="46.78399" lon="6.37622">
        <ele>1070.2</ele>
        <time>2021-08-14T13:06:18Z</time>
      </trkpt>
      <trkpt lat="46.78396" lon="6.37621">
        <ele>1070.1</ele>
        <time>2021-08-14T13:06:19Z</time>
      </trkpt>
      <trkpt lat="46.7839" lon="6.37618">
        <ele>1069.9</ele>
        <time>2021-08-14T13:06:20Z</time>
      </trkpt>
      <trkpt lat="46.78378" lon="6.37612">
        <ele>1069.4</ele>
        <time>2021-08-14T13:06:22Z</time>
      </trkpt>
      <trkpt lat="46.78371" lon="6.37606">
        <ele>1069.2</ele>
        <time>2021-08-14T13:06:23Z</time>
      </trkpt>
      <trkpt lat="46.78361" lon="6.376">
        <ele>1069</ele>
        <time>2021-08-14T13:06:25Z</time>
      </trkpt>
      <trkpt lat="46.78355" lon="6.37596">
        <ele>1068.9</ele>
        <time>2021-08-14T13:06:26Z</time>
      </trkpt>
      <trkpt lat="46.78351" lon="6.37594">
        <ele>1068.8</ele>
        <time>2021-08-14T13:06:28Z</time>
      </trkpt>
      <trkpt lat="46.78349" lon="6.37594">
        <ele>1068.8</ele>
        <time>2021-08-14T13:06:29Z</time>
      </trkpt>
      <trkpt lat="46.78347" lon="6.37593">
        <ele>1068.8</ele>
        <time>2021-08-14T13:06:30Z</time>
      </trkpt>
      <trkpt lat="46.78344" lon="6.37592">
        <ele>1068.7</ele>
        <time>2021-08-14T13:06:32Z</time>
      </trkpt>
      <trkpt lat="46.78039" lon="6.37558">
        <ele>1055.7</ele>
        <time>2021-08-14T13:07:23Z</time>
      </trkpt>
      <trkpt lat="46.78029" lon="6.37567">
        <ele>1055.4</ele>
        <time>2021-08-14T13:07:24Z</time>
      </trkpt>
      <trkpt lat="46.78023" lon="6.37576">
        <ele>1055.4</ele>
        <time>2021-08-14T13:07:25Z</time>
      </trkpt>
      <trkpt lat="46.78018" lon="6.37584">
        <ele>1055.5</ele>
        <time>2021-08-14T13:07:26Z</time>
      </trkpt>
      <trkpt lat="46.78012" lon="6.37597">
        <ele>1055.6</ele>
        <time>2021-08-14T13:07:28Z</time>
      </trkpt>
      <trkpt lat="46.7801" lon="6.37602">
        <ele>1055.6</ele>
        <time>2021-08-14T13:07:29Z</time>
      </trkpt>
      <trkpt lat="46.78005" lon="6.37607">
        <ele>1055.7</ele>
        <time>2021-08-14T13:07:30Z</time>
      </trkpt>
      <trkpt lat="46.78002" lon="6.37609">
        <ele>1055</ele>
        <time>2021-08-14T13:07:31Z</time>
      </trkpt>
      <trkpt lat="46.77996" lon="6.37608">
        <ele>1054.5</ele>
        <time>2021-08-14T13:07:33Z</time>
      </trkpt>
      <trkpt lat="46.77992" lon="6.37607">
        <ele>1054.1</ele>
        <time>2021-08-14T13:07:34Z</time>
      </trkpt>
      <trkpt lat="46.77982" lon="6.37604">
        <ele>1053.2</ele>
        <time>2021-08-14T13:07:36Z</time>
      </trkpt>
      <trkpt lat="46.77968" lon="6.37606">
        <ele>1052.6</ele>
        <time>2021-08-14T13:07:38Z</time>
      </trkpt>
      <trkpt lat="46.77956" lon="6.37609">
        <ele>1052.2</ele>
        <time>2021-08-14T13:07:40Z</time>
      </trkpt>
      <trkpt lat="46.7795" lon="6.37608">
        <ele>1052</ele>
        <time>2021-08-14T13:07:41Z</time>
      </trkpt>
      <trkpt lat="46.77936" lon="6.37604">
        <ele>1051.7</ele>
        <time>2021-08-14T13:07:43Z</time>
      </trkpt>
      <trkpt lat="46.77929" lon="6.37601">
        <ele>1051.5</ele>
        <time>2021-08-14T13:07:44Z</time>
      </trkpt>
      <trkpt lat="46.77912" lon="6.37597">
        <ele>1051</ele>
        <time>2021-08-14T13:07:46Z</time>
      </trkpt>
      <trkpt lat="46.77904" lon="6.37595">
        <ele>1050.7</ele>
        <time>2021-08-14T13:07:47Z</time>
      </trkpt>
      <trkpt lat="46.77898" lon="6.37594">
        <ele>1050.3</ele>
        <time>2021-08-14T13:07:48Z</time>
      </trkpt>
      <trkpt lat="46.77885" lon="6.37598">
        <ele>1049.4</ele>
        <time>2021-08-14T13:07:50Z</time>
      </trkpt>
      <trkpt lat="46.77874" lon="6.37606">
        <ele>1048.5</ele>
        <time>2021-08-14T13:07:52Z</time>
      </trkpt>
      <trkpt lat="46.77861" lon="6.37616">
        <ele>1047.4</ele>
        <time>2021-08-14T13:07:54Z</time>
      </trkpt>
      <trkpt lat="46.77847" lon="6.37625">
        <ele>1046.1</ele>
        <time>2021-08-14T13:07:56Z</time>
      </trkpt>
      <trkpt lat="46.7784" lon="6.3763">
        <ele>1045.5</ele>
        <time>2021-08-14T13:07:57Z</time>
      </trkpt>
      <trkpt lat="46.77829" lon="6.37639">
        <ele>1044.4</ele>
        <time>2021-08-14T13:07:59Z</time>
      </trkpt>
      <trkpt lat="46.77824" lon="6.37642">
        <ele>1044</ele>
        <time>2021-08-14T13:08:00Z</time>
      </trkpt>
      <trkpt lat="46.77814" lon="6.37654">
        <ele>1042.8</ele>
        <time>2021-08-14T13:08:02Z</time>
      </trkpt>
      <trkpt lat="46.77809" lon="6.3766">
        <ele>1042.3</ele>
        <time>2021-08-14T13:08:03Z</time>
      </trkpt>
      <trkpt lat="46.77805" lon="6.37667">
        <ele>1041.7</ele>
        <time>2021-08-14T13:08:04Z</time>
      </trkpt>
      <trkpt lat="46.77801" lon="6.37675">
        <ele>1041</ele>
        <time>2021-08-14T13:08:05Z</time>
      </trkpt>
      <trkpt lat="46.77791" lon="6.3769">
        <ele>1039.7</ele>
        <time>2021-08-14T13:08:07Z</time>
      </trkpt>
      <trkpt lat="46.77785" lon="6.37695">
        <ele>1039.2</ele>
        <time>2021-08-14T13:08:08Z</time>
      </trkpt>
      <trkpt lat="46.77774" lon="6.37703">
        <ele>1038.1</ele>
        <time>2021-08-14T13:08:10Z</time>
      </trkpt>
      <trkpt lat="46.77768" lon="6.37706">
        <ele>1037.5</ele>
        <time>2021-08-14T13:08:11Z</time>
      </trkpt>
      <trkpt lat="46.77762" lon="6.37709">
        <ele>1036.9</ele>
        <time>2021-08-14T13:08:12Z</time>
      </trkpt>
      <trkpt lat="46.77749" lon="6.37715">
        <ele>1035.6</ele>
        <time>2021-08-14T13:08:14Z</time>
      </trkpt>
      <trkpt lat="46.77734" lon="6.37723">
        <ele>1034</ele>
        <time>2021-08-14T13:08:16Z</time>
      </trkpt>
      <trkpt lat="46.77725" lon="6.37727">
        <ele>1033.1</ele>
        <time>2021-08-14T13:08:17Z</time>
      </trkpt>
      <trkpt lat="46.77717" lon="6.37732">
        <ele>1032.3</ele>
        <time>2021-08-14T13:08:18Z</time>
      </trkpt>
      <trkpt lat="46.77698" lon="6.37742">
        <ele>1030.3</ele>
        <time>2021-08-14T13:08:20Z</time>
      </trkpt>
      <trkpt lat="46.77676" lon="6.37751">
        <ele>1028.1</ele>
        <time>2021-08-14T13:08:22Z</time>
      </trkpt>
      <trkpt lat="46.77665" lon="6.37756">
        <ele>1027</ele>
        <time>2021-08-14T13:08:23Z</time>
      </trkpt>
      <trkpt lat="46.77654" lon="6.37762">
        <ele>1025.8</ele>
        <time>2021-08-14T13:08:24Z</time>
      </trkpt>
      <trkpt lat="46.77644" lon="6.37768">
        <ele>1024.6</ele>
        <time>2021-08-14T13:08:25Z</time>
      </trkpt>
      <trkpt lat="46.77621" lon="6.37778">
        <ele>1022.2</ele>
        <time>2021-08-14T13:08:27Z</time>
      </trkpt>
      <trkpt lat="46.77599" lon="6.37787">
        <ele>1019.8</ele>
        <time>2021-08-14T13:08:29Z</time>
      </trkpt>
      <trkpt lat="46.77578" lon="6.37798">
        <ele>1017.5</ele>
        <time>2021-08-14T13:08:31Z</time>
      </trkpt>
      <trkpt lat="46.77567" lon="6.37803">
        <ele>1016.5</ele>
        <time>2021-08-14T13:08:32Z</time>
      </trkpt>
      <trkpt lat="46.77557" lon="6.37807">
        <ele>1015.5</ele>
        <time>2021-08-14T13:08:33Z</time>
      </trkpt>
      <trkpt lat="46.77547" lon="6.37811">
        <ele>1014.6</ele>
        <time>2021-08-14T13:08:34Z</time>
      </trkpt>
      <trkpt lat="46.77539" lon="6.37815">
        <ele>1013.8</ele>
        <time>2021-08-14T13:08:35Z</time>
      </trkpt>
      <trkpt lat="46.7753" lon="6.37819">
        <ele>1013.1</ele>
        <time>2021-08-14T13:08:36Z</time>
      </trkpt>
      <trkpt lat="46.77515" lon="6.37825">
        <ele>1011.7</ele>
        <time>2021-08-14T13:08:38Z</time>
      </trkpt>
      <trkpt lat="46.77502" lon="6.37828">
        <ele>1010.5</ele>
        <time>2021-08-14T13:08:40Z</time>
      </trkpt>
      <trkpt lat="46.77489" lon="6.37825">
        <ele>1008.8</ele>
        <time>2021-08-14T13:08:42Z</time>
      </trkpt>
      <trkpt lat="46.77481" lon="6.37819">
        <ele>1008</ele>
        <time>2021-08-14T13:08:44Z</time>
      </trkpt>
      <trkpt lat="46.77482" lon="6.37813">
        <ele>1007.6</ele>
        <time>2021-08-14T13:08:46Z</time>
      </trkpt>
      <trkpt lat="46.77484" lon="6.37813">
        <ele>1007.5</ele>
        <time>2021-08-14T13:08:48Z</time>
      </trkpt>
      <trkpt lat="46.77485" lon="6.37812">
        <ele>1007.4</ele>
        <time>2021-08-14T13:08:49Z</time>
      </trkpt>
      <trkpt lat="46.77487" lon="6.37812">
        <ele>1007.2</ele>
        <time>2021-08-14T13:08:50Z</time>
      </trkpt>
      <trkpt lat="46.77489" lon="6.37811">
        <ele>1007.1</ele>
        <time>2021-08-14T13:08:51Z</time>
      </trkpt>
      <trkpt lat="46.77491" lon="6.3781">
        <ele>1006.9</ele>
        <time>2021-08-14T13:08:52Z</time>
      </trkpt>
      <trkpt lat="46.77492" lon="6.3781">
        <ele>1006.8</ele>
        <time>2021-08-14T13:08:53Z</time>
      </trkpt>
      <trkpt lat="46.77494" lon="6.37809">
        <ele>1006.7</ele>
        <time>2021-08-14T13:08:55Z</time>
      </trkpt>
      <trkpt lat="46.77496" lon="6.37809">
        <ele>1006.5</ele>
        <time>2021-08-14T13:09:23Z</time>
      </trkpt>
      <trkpt lat="46.77497" lon="6.37808">
        <ele>1006.4</ele>
        <time>2021-08-14T13:09:24Z</time>
      </trkpt>
      <trkpt lat="46.77499" lon="6.37808">
        <ele>1006.3</ele>
        <time>2021-08-14T13:09:26Z</time>
      </trkpt>
      <trkpt lat="46.77494" lon="6.37791">
        <ele>1005.3</ele>
        <time>2021-08-14T13:09:28Z</time>
      </trkpt>
      <trkpt lat="46.77492" lon="6.37783">
        <ele>1005</ele>
        <time>2021-08-14T13:09:29Z</time>
      </trkpt>
      <trkpt lat="46.7749" lon="6.37776">
        <ele>1004.6</ele>
        <time>2021-08-14T13:09:30Z</time>
      </trkpt>
      <trkpt lat="46.77488" lon="6.37769">
        <ele>1004.3</ele>
        <time>2021-08-14T13:09:31Z</time>
      </trkpt>
      <trkpt lat="46.77486" lon="6.37764">
        <ele>1004.1</ele>
        <time>2021-08-14T13:09:32Z</time>
      </trkpt>
      <trkpt lat="46.77483" lon="6.37757">
        <ele>1003.8</ele>
        <time>2021-08-14T13:09:34Z</time>
      </trkpt>
      <trkpt lat="46.7748" lon="6.37749">
        <ele>1003.4</ele>
        <time>2021-08-14T13:09:36Z</time>
      </trkpt>
      <trkpt lat="46.77478" lon="6.37745">
        <ele>1003.2</ele>
        <time>2021-08-14T13:09:37Z</time>
      </trkpt>
      <trkpt lat="46.77477" lon="6.37744">
        <ele>1003.1</ele>
        <time>2021-08-14T13:09:38Z</time>
      </trkpt>
      <trkpt lat="46.77476" lon="6.37741">
        <ele>1003</ele>
        <time>2021-08-14T13:09:40Z</time>
      </trkpt>
      <trkpt lat="46.77476" lon="6.37739">
        <ele>1002.9</ele>
        <time>2021-08-14T13:09:41Z</time>
      </trkpt>
      <trkpt lat="46.77475" lon="6.37738">
        <ele>1002.8</ele>
        <time>2021-08-14T13:09:43Z</time>
      </trkpt>
      <trkpt lat="46.77474" lon="6.37738">
        <ele>1002.7</ele>
        <time>2021-08-14T13:09:44Z</time>
      </trkpt>
      <trkpt lat="46.77474" lon="6.37738">
        <ele>1002.7</ele>
        <time>2021-08-14T13:09:45Z</time>
      </trkpt>
      <trkpt lat="46.77474" lon="6.37738">
        <ele>1002.7</ele>
        <time>2021-08-14T13:09:47Z</time>
      </trkpt>
      <trkpt lat="46.77474" lon="6.37737">
        <ele>1002.7</ele>
        <time>2021-08-14T13:09:49Z</time>
      </trkpt>
      <trkpt lat="46.77474" lon="6.37737">
        <ele>1002.7</ele>
        <time>2021-08-14T13:09:50Z</time>
      </trkpt>
      <trkpt lat="46.77472" lon="6.37735">
        <ele>1002.6</ele>
        <time>2021-08-14T13:09:52Z</time>
      </trkpt>
      <trkpt lat="46.77459" lon="6.37731">
        <ele>1001.3</ele>
        <time>2021-08-14T13:09:59Z</time>
      </trkpt>
      <trkpt lat="46.77454" lon="6.37732">
        <ele>1001.3</ele>
        <time>2021-08-14T13:10:00Z</time>
      </trkpt>
      <trkpt lat="46.77447" lon="6.37733">
        <ele>1001.3</ele>
        <time>2021-08-14T13:10:02Z</time>
      </trkpt>
      <trkpt lat="46.77443" lon="6.37734">
        <ele>1001.3</ele>
        <time>2021-08-14T13:10:04Z</time>
      </trkpt>
      <trkpt lat="46.7744" lon="6.37736">
        <ele>1001.3</ele>
        <time>2021-08-14T13:10:05Z</time>
      </trkpt>
      <trkpt lat="46.77435" lon="6.37739">
        <ele>1001.4</ele>
        <time>2021-08-14T13:10:07Z</time>
      </trkpt>
      <trkpt lat="46.77431" lon="6.37741">
        <ele>1001.4</ele>
        <time>2021-08-14T13:10:08Z</time>
      </trkpt>
      <trkpt lat="46.77427" lon="6.3774">
        <ele>1001.5</ele>
        <time>2021-08-14T13:10:09Z</time>
      </trkpt>
      <trkpt lat="46.77423" lon="6.37738">
        <ele>1002</ele>
        <time>2021-08-14T13:10:11Z</time>
      </trkpt>
      <trkpt lat="46.7742" lon="6.37734">
        <ele>1002.3</ele>
        <time>2021-08-14T13:10:12Z</time>
      </trkpt>
      <trkpt lat="46.77416" lon="6.37728">
        <ele>1002.6</ele>
        <time>2021-08-14T13:10:13Z</time>
      </trkpt>
      <trkpt lat="46.77414" lon="6.37721">
        <ele>1002.8</ele>
        <time>2021-08-14T13:10:14Z</time>
      </trkpt>
      <trkpt lat="46.7741" lon="6.37712">
        <ele>1003</ele>
        <time>2021-08-14T13:10:16Z</time>
      </trkpt>
      <trkpt lat="46.77407" lon="6.37705">
        <ele>1003.2</ele>
        <time>2021-08-14T13:10:18Z</time>
      </trkpt>
      <trkpt lat="46.77405" lon="6.37699">
        <ele>1003.4</ele>
        <time>2021-08-14T13:10:19Z</time>
      </trkpt>
      <trkpt lat="46.77404" lon="6.37692">
        <ele>1003.6</ele>
        <time>2021-08-14T13:10:20Z</time>
      </trkpt>
      <trkpt lat="46.77404" lon="6.37686">
        <ele>1003.8</ele>
        <time>2021-08-14T13:10:22Z</time>
      </trkpt>
      <trkpt lat="46.77405" lon="6.37678">
        <ele>1004.1</ele>
        <time>2021-08-14T13:10:24Z</time>
      </trkpt>
      <trkpt lat="46.77408" lon="6.37672">
        <ele>1004.3</ele>
        <time>2021-08-14T13:10:25Z</time>
      </trkpt>
      <trkpt lat="46.77411" lon="6.37666">
        <ele>1004.6</ele>
        <time>2021-08-14T13:10:27Z</time>
      </trkpt>
      <trkpt lat="46.77415" lon="6.37661">
        <ele>1004.8</ele>
        <time>2021-08-14T13:10:28Z</time>
      </trkpt>
      <trkpt lat="46.77419" lon="6.37658">
        <ele>1005</ele>
        <time>2021-08-14T13:10:30Z</time>
      </trkpt>
      <trkpt lat="46.77422" lon="6.37656">
        <ele>1005.2</ele>
        <time>2021-08-14T13:10:31Z</time>
      </trkpt>
      <trkpt lat="46.77428" lon="6.37652">
        <ele>1005.6</ele>
        <time>2021-08-14T13:10:32Z</time>
      </trkpt>
      <trkpt lat="46.77431" lon="6.37652">
        <ele>1005.7</ele>
        <time>2021-08-14T13:10:34Z</time>
      </trkpt>
      <trkpt lat="46.77433" lon="6.37651">
        <ele>1005.9</ele>
        <time>2021-08-14T13:10:35Z</time>
      </trkpt>
      <trkpt lat="46.77436" lon="6.37649">
        <ele>1006</ele>
        <time>2021-08-14T13:10:37Z</time>
      </trkpt>
      <trkpt lat="46.77439" lon="6.37647">
        <ele>1006.2</ele>
        <time>2021-08-14T13:10:39Z</time>
      </trkpt>
      <trkpt lat="46.7744" lon="6.37647">
        <ele>1006.3</ele>
        <time>2021-08-14T13:10:40Z</time>
      </trkpt>
      <trkpt lat="46.77442" lon="6.37645">
        <ele>1006.4</ele>
        <time>2021-08-14T13:10:42Z</time>
      </trkpt>
      <trkpt lat="46.77449" lon="6.3764">
        <ele>1006.9</ele>
        <time>2021-08-14T13:10:45Z</time>
      </trkpt>
      <trkpt lat="46.77452" lon="6.37637">
        <ele>1007.1</ele>
        <time>2021-08-14T13:10:46Z</time>
      </trkpt>
      <trkpt lat="46.77455" lon="6.37634">
        <ele>1007.3</ele>
        <time>2021-08-14T13:10:47Z</time>
      </trkpt>
      <trkpt lat="46.77457" lon="6.3763">
        <ele>1007.6</ele>
        <time>2021-08-14T13:10:48Z</time>
      </trkpt>
      <trkpt lat="46.77459" lon="6.37627">
        <ele>1007.8</ele>
        <time>2021-08-14T13:10:49Z</time>
      </trkpt>
      <trkpt lat="46.77461" lon="6.37623">
        <ele>1008</ele>
        <time>2021-08-14T13:10:50Z</time>
      </trkpt>
      <trkpt lat="46.77462" lon="6.3762">
        <ele>1008.1</ele>
        <time>2021-08-14T13:10:51Z</time>
      </trkpt>
      <trkpt lat="46.77465" lon="6.37616">
        <ele>1008.4</ele>
        <time>2021-08-14T13:10:53Z</time>
      </trkpt>
      <trkpt lat="46.77465" lon="6.37616">
        <ele>1008.4</ele>
        <time>2021-08-14T13:10:54Z</time>
      </trkpt>
      <trkpt lat="46.77469" lon="6.37614">
        <ele>1008.6</ele>
        <time>2021-08-14T13:10:56Z</time>
      </trkpt>
      <trkpt lat="46.77472" lon="6.37614">
        <ele>1008.8</ele>
        <time>2021-08-14T13:10:57Z</time>
      </trkpt>
      <trkpt lat="46.77475" lon="6.37614">
        <ele>1009</ele>
        <time>2021-08-14T13:10:58Z</time>
      </trkpt>
      <trkpt lat="46.77478" lon="6.37614">
        <ele>1009.2</ele>
        <time>2021-08-14T13:10:59Z</time>
      </trkpt>
      <trkpt lat="46.77479" lon="6.37614">
        <ele>1009.3</ele>
        <time>2021-08-14T13:11:00Z</time>
      </trkpt>
      <trkpt lat="46.77481" lon="6.37613">
        <ele>1009.5</ele>
        <time>2021-08-14T13:11:01Z</time>
      </trkpt>
      <trkpt lat="46.77484" lon="6.37611">
        <ele>1009.7</ele>
        <time>2021-08-14T13:11:03Z</time>
      </trkpt>
      <trkpt lat="46.77486" lon="6.37607">
        <ele>1009.9</ele>
        <time>2021-08-14T13:11:04Z</time>
      </trkpt>
      <trkpt lat="46.77487" lon="6.37605">
        <ele>1010</ele>
        <time>2021-08-14T13:11:05Z</time>
      </trkpt>
      <trkpt lat="46.77488" lon="6.37604">
        <ele>1010.1</ele>
        <time>2021-08-14T13:11:06Z</time>
      </trkpt>
      <trkpt lat="46.77489" lon="6.37603">
        <ele>1010.2</ele>
        <time>2021-08-14T13:11:07Z</time>
      </trkpt>
      <trkpt lat="46.77489" lon="6.37602">
        <ele>1010.2</ele>
        <time>2021-08-14T13:11:08Z</time>
      </trkpt>
      <trkpt lat="46.77489" lon="6.37602">
        <ele>1010.2</ele>
        <time>2021-08-14T13:11:10Z</time>
      </trkpt>
      <trkpt lat="46.77489" lon="6.37601">
        <ele>1010.3</ele>
        <time>2021-08-14T13:11:11Z</time>
      </trkpt>
      <trkpt lat="46.77488" lon="6.376">
        <ele>1010.4</ele>
        <time>2021-08-14T13:11:12Z</time>
      </trkpt>
      <trkpt lat="46.77488" lon="6.37597">
        <ele>1010.5</ele>
        <time>2021-08-14T13:11:14Z</time>
      </trkpt>
      <trkpt lat="46.77488" lon="6.37595">
        <ele>1010.6</ele>
        <time>2021-08-14T13:11:15Z</time>
      </trkpt>
      <trkpt lat="46.77489" lon="6.37591">
        <ele>1010.8</ele>
        <time>2021-08-14T13:11:17Z</time>
      </trkpt>
      <trkpt lat="46.7749" lon="6.37589">
        <ele>1010.9</ele>
        <time>2021-08-14T13:11:18Z</time>
      </trkpt>
      <trkpt lat="46.77491" lon="6.37588">
        <ele>1011</ele>
        <time>2021-08-14T13:11:20Z</time>
      </trkpt>
      <trkpt lat="46.77492" lon="6.37586">
        <ele>1011.1</ele>
        <time>2021-08-14T13:11:21Z</time>
      </trkpt>
      <trkpt lat="46.77493" lon="6.37584">
        <ele>1011.2</ele>
        <time>2021-08-14T13:11:22Z</time>
      </trkpt>
      <trkpt lat="46.77496" lon="6.37581">
        <ele>1011.4</ele>
        <time>2021-08-14T13:11:23Z</time>
      </trkpt>
      <trkpt lat="46.77497" lon="6.37579">
        <ele>1011.5</ele>
        <time>2021-08-14T13:11:24Z</time>
      </trkpt>
      <trkpt lat="46.775" lon="6.37575">
        <ele>1011.8</ele>
        <time>2021-08-14T13:11:25Z</time>
      </trkpt>
      <trkpt lat="46.77503" lon="6.37572">
        <ele>1011.8</ele>
        <time>2021-08-14T13:11:26Z</time>
      </trkpt>
      <trkpt lat="46.77506" lon="6.3757">
        <ele>1011.9</ele>
        <time>2021-08-14T13:11:28Z</time>
      </trkpt>
      <trkpt lat="46.77512" lon="6.37566">
        <ele>1012.1</ele>
        <time>2021-08-14T13:11:29Z</time>
      </trkpt>
      <trkpt lat="46.77517" lon="6.3756">
        <ele>1012.2</ele>
        <time>2021-08-14T13:11:30Z</time>
      </trkpt>
      <trkpt lat="46.7752" lon="6.37554">
        <ele>1012.4</ele>
        <time>2021-08-14T13:11:31Z</time>
      </trkpt>
      <trkpt lat="46.77522" lon="6.37547">
        <ele>1012.5</ele>
        <time>2021-08-14T13:11:33Z</time>
      </trkpt>
      <trkpt lat="46.77523" lon="6.37541">
        <ele>1012.7</ele>
        <time>2021-08-14T13:11:35Z</time>
      </trkpt>
      <trkpt lat="46.77525" lon="6.37534">
        <ele>1013.2</ele>
        <time>2021-08-14T13:11:36Z</time>
      </trkpt>
      <trkpt lat="46.77526" lon="6.37529">
        <ele>1013.4</ele>
        <time>2021-08-14T13:11:37Z</time>
      </trkpt>
      <trkpt lat="46.77526" lon="6.37523">
        <ele>1013.6</ele>
        <time>2021-08-14T13:11:38Z</time>
      </trkpt>
      <trkpt lat="46.77528" lon="6.37519">
        <ele>1013.9</ele>
        <time>2021-08-14T13:11:39Z</time>
      </trkpt>
      <trkpt lat="46.77529" lon="6.37516">
        <ele>1014</ele>
        <time>2021-08-14T13:11:41Z</time>
      </trkpt>
      <trkpt lat="46.7753" lon="6.37511">
        <ele>1014.3</ele>
        <time>2021-08-14T13:11:43Z</time>
      </trkpt>
      <trkpt lat="46.77531" lon="6.37508">
        <ele>1014.4</ele>
        <time>2021-08-14T13:11:44Z</time>
      </trkpt>
      <trkpt lat="46.77532" lon="6.37507">
        <ele>1014.5</ele>
        <time>2021-08-14T13:11:46Z</time>
      </trkpt>
      <trkpt lat="46.77533" lon="6.37505">
        <ele>1014.7</ele>
        <time>2021-08-14T13:11:47Z</time>
      </trkpt>
      <trkpt lat="46.77535" lon="6.37503">
        <ele>1014.8</ele>
        <time>2021-08-14T13:11:48Z</time>
      </trkpt>
      <trkpt lat="46.77537" lon="6.37499">
        <ele>1015</ele>
        <time>2021-08-14T13:11:49Z</time>
      </trkpt>
      <trkpt lat="46.77538" lon="6.37498">
        <ele>1015.1</ele>
        <time>2021-08-14T13:11:50Z</time>
      </trkpt>
      <trkpt lat="46.7754" lon="6.37493">
        <ele>1015.4</ele>
        <time>2021-08-14T13:11:52Z</time>
      </trkpt>
      <trkpt lat="46.77541" lon="6.37492">
        <ele>1015.5</ele>
        <time>2021-08-14T13:11:53Z</time>
      </trkpt>
      <trkpt lat="46.77542" lon="6.3749">
        <ele>1015.6</ele>
        <time>2021-08-14T13:11:54Z</time>
      </trkpt>
      <trkpt lat="46.77545" lon="6.37488">
        <ele>1015.8</ele>
        <time>2021-08-14T13:11:56Z</time>
      </trkpt>
      <trkpt lat="46.77546" lon="6.37487">
        <ele>1015.9</ele>
        <time>2021-08-14T13:11:57Z</time>
      </trkpt>
      <trkpt lat="46.77547" lon="6.37484">
        <ele>1016.1</ele>
        <time>2021-08-14T13:11:58Z</time>
      </trkpt>
      <trkpt lat="46.77547" lon="6.37483">
        <ele>1016.2</ele>
        <time>2021-08-14T13:12:00Z</time>
      </trkpt>
      <trkpt lat="46.77547" lon="6.37481">
        <ele>1016.3</ele>
        <time>2021-08-14T13:12:01Z</time>
      </trkpt>
      <trkpt lat="46.77547" lon="6.37476">
        <ele>1016.5</ele>
        <time>2021-08-14T13:12:03Z</time>
      </trkpt>
      <trkpt lat="46.77548" lon="6.37474">
        <ele>1016.6</ele>
        <time>2021-08-14T13:12:04Z</time>
      </trkpt>
      <trkpt lat="46.77549" lon="6.37472">
        <ele>1016.7</ele>
        <time>2021-08-14T13:12:05Z</time>
      </trkpt>
      <trkpt lat="46.77549" lon="6.37469">
        <ele>1016.8</ele>
        <time>2021-08-14T13:12:07Z</time>
      </trkpt>
      <trkpt lat="46.77549" lon="6.37464">
        <ele>1017.1</ele>
        <time>2021-08-14T13:12:08Z</time>
      </trkpt>
      <trkpt lat="46.77548" lon="6.37462">
        <ele>1017.2</ele>
        <time>2021-08-14T13:12:09Z</time>
      </trkpt>
      <trkpt lat="46.77546" lon="6.37455">
        <ele>1017.5</ele>
        <time>2021-08-14T13:12:11Z</time>
      </trkpt>
      <trkpt lat="46.77546" lon="6.37453">
        <ele>1017.6</ele>
        <time>2021-08-14T13:12:12Z</time>
      </trkpt>
      <trkpt lat="46.77545" lon="6.37451">
        <ele>1017.7</ele>
        <time>2021-08-14T13:12:13Z</time>
      </trkpt>
      <trkpt lat="46.77544" lon="6.37447">
        <ele>1017.9</ele>
        <time>2021-08-14T13:12:15Z</time>
      </trkpt>
      <trkpt lat="46.77543" lon="6.37442">
        <ele>1018.1</ele>
        <time>2021-08-14T13:12:17Z</time>
      </trkpt>
      <trkpt lat="46.77541" lon="6.37439">
        <ele>1018.3</ele>
        <time>2021-08-14T13:12:18Z</time>
      </trkpt>
      <trkpt lat="46.7754" lon="6.37437">
        <ele>1018.4</ele>
        <time>2021-08-14T13:12:19Z</time>
      </trkpt>
      <trkpt lat="46.77537" lon="6.37434">
        <ele>1018.6</ele>
        <time>2021-08-14T13:12:21Z</time>
      </trkpt>
      <trkpt lat="46.77533" lon="6.37429">
        <ele>1018.9</ele>
        <time>2021-08-14T13:12:22Z</time>
      </trkpt>
      <trkpt lat="46.7753" lon="6.37425">
        <ele>1019.1</ele>
        <time>2021-08-14T13:12:24Z</time>
      </trkpt>
      <trkpt lat="46.77526" lon="6.37421">
        <ele>1019.2</ele>
        <time>2021-08-14T13:12:26Z</time>
      </trkpt>
      <trkpt lat="46.77523" lon="6.37416">
        <ele>1019.4</ele>
        <time>2021-08-14T13:12:28Z</time>
      </trkpt>
      <trkpt lat="46.7752" lon="6.37414">
        <ele>1019.5</ele>
        <time>2021-08-14T13:12:29Z</time>
      </trkpt>
      <trkpt lat="46.77517" lon="6.37413">
        <ele>1019.5</ele>
        <time>2021-08-14T13:12:30Z</time>
      </trkpt>
      <trkpt lat="46.77514" lon="6.37412">
        <ele>1019.6</ele>
        <time>2021-08-14T13:12:32Z</time>
      </trkpt>
      <trkpt lat="46.77511" lon="6.3741">
        <ele>1019.7</ele>
        <time>2021-08-14T13:12:33Z</time>
      </trkpt>
      <trkpt lat="46.77507" lon="6.37409">
        <ele>1019.7</ele>
        <time>2021-08-14T13:12:34Z</time>
      </trkpt>
      <trkpt lat="46.77501" lon="6.37407">
        <ele>1019.8</ele>
        <time>2021-08-14T13:12:36Z</time>
      </trkpt>
      <trkpt lat="46.77494" lon="6.37404">
        <ele>1019.9</ele>
        <time>2021-08-14T13:12:38Z</time>
      </trkpt>
      <trkpt lat="46.7749" lon="6.37404">
        <ele>1020</ele>
        <time>2021-08-14T13:12:39Z</time>
      </trkpt>
      <trkpt lat="46.77482" lon="6.37405">
        <ele>1020.1</ele>
        <time>2021-08-14T13:12:41Z</time>
      </trkpt>
      <trkpt lat="46.77479" lon="6.37405">
        <ele>1020.1</ele>
        <time>2021-08-14T13:12:42Z</time>
      </trkpt>
      <trkpt lat="46.77474" lon="6.37403">
        <ele>1020.2</ele>
        <time>2021-08-14T13:12:43Z</time>
      </trkpt>
      <trkpt lat="46.77469" lon="6.37401">
        <ele>1020.3</ele>
        <time>2021-08-14T13:12:45Z</time>
      </trkpt>
      <trkpt lat="46.77462" lon="6.37398">
        <ele>1020.4</ele>
        <time>2021-08-14T13:12:47Z</time>
      </trkpt>
      <trkpt lat="46.77458" lon="6.37396">
        <ele>1020.5</ele>
        <time>2021-08-14T13:12:48Z</time>
      </trkpt>
      <trkpt lat="46.77455" lon="6.37395">
        <ele>1020.5</ele>
        <time>2021-08-14T13:12:49Z</time>
      </trkpt>
      <trkpt lat="46.77452" lon="6.37394">
        <ele>1020.6</ele>
        <time>2021-08-14T13:12:51Z</time>
      </trkpt>
      <trkpt lat="46.77449" lon="6.37392">
        <ele>1020.6</ele>
        <time>2021-08-14T13:12:52Z</time>
      </trkpt>
      <trkpt lat="46.77446" lon="6.3739">
        <ele>1020.7</ele>
        <time>2021-08-14T13:12:53Z</time>
      </trkpt>
      <trkpt lat="46.7744" lon="6.37387">
        <ele>1020.8</ele>
        <time>2021-08-14T13:12:55Z</time>
      </trkpt>
      <trkpt lat="46.77439" lon="6.37386">
        <ele>1020.8</ele>
        <time>2021-08-14T13:12:56Z</time>
      </trkpt>
      <trkpt lat="46.77435" lon="6.37381">
        <ele>1021</ele>
        <time>2021-08-14T13:12:58Z</time>
      </trkpt>
      <trkpt lat="46.77433" lon="6.37378">
        <ele>1021</ele>
        <time>2021-08-14T13:12:59Z</time>
      </trkpt>
      <trkpt lat="46.77432" lon="6.37377">
        <ele>1021</ele>
        <time>2021-08-14T13:13:01Z</time>
      </trkpt>
      <trkpt lat="46.7743" lon="6.37376">
        <ele>1021.1</ele>
        <time>2021-08-14T13:13:02Z</time>
      </trkpt>
      <trkpt lat="46.77429" lon="6.37375">
        <ele>1021.1</ele>
        <time>2021-08-14T13:13:04Z</time>
      </trkpt>
      <trkpt lat="46.77428" lon="6.37375">
        <ele>1021.1</ele>
        <time>2021-08-14T13:13:05Z</time>
      </trkpt>
      <trkpt lat="46.77385" lon="6.37333">
        <ele>1022.4</ele>
        <time>2021-08-14T13:13:24Z</time>
      </trkpt>
      <trkpt lat="46.77381" lon="6.37331">
        <ele>1022.4</ele>
        <time>2021-08-14T13:13:25Z</time>
      </trkpt>
      <trkpt lat="46.77377" lon="6.37327">
        <ele>1022.5</ele>
        <time>2021-08-14T13:13:27Z</time>
      </trkpt>
      <trkpt lat="46.77373" lon="6.37323">
        <ele>1022.6</ele>
        <time>2021-08-14T13:13:28Z</time>
      </trkpt>
      <trkpt lat="46.77368" lon="6.37321">
        <ele>1022.7</ele>
        <time>2021-08-14T13:13:29Z</time>
      </trkpt>
      <trkpt lat="46.77364" lon="6.37319">
        <ele>1022.8</ele>
        <time>2021-08-14T13:13:31Z</time>
      </trkpt>
      <trkpt lat="46.7736" lon="6.37317">
        <ele>1022.9</ele>
        <time>2021-08-14T13:13:32Z</time>
      </trkpt>
      <trkpt lat="46.77354" lon="6.37314">
        <ele>1023.1</ele>
        <time>2021-08-14T13:13:33Z</time>
      </trkpt>
      <trkpt lat="46.77349" lon="6.37312">
        <ele>1023.2</ele>
        <time>2021-08-14T13:13:35Z</time>
      </trkpt>
      <trkpt lat="46.77346" lon="6.3731">
        <ele>1023.2</ele>
        <time>2021-08-14T13:13:36Z</time>
      </trkpt>
      <trkpt lat="46.77342" lon="6.37309">
        <ele>1023.3</ele>
        <time>2021-08-14T13:13:37Z</time>
      </trkpt>
      <trkpt lat="46.77339" lon="6.37308">
        <ele>1023.4</ele>
        <time>2021-08-14T13:13:38Z</time>
      </trkpt>
      <trkpt lat="46.77334" lon="6.37304">
        <ele>1023.5</ele>
        <time>2021-08-14T13:13:39Z</time>
      </trkpt>
      <trkpt lat="46.77329" lon="6.37302">
        <ele>1023.6</ele>
        <time>2021-08-14T13:13:41Z</time>
      </trkpt>
      <trkpt lat="46.77324" lon="6.373">
        <ele>1023.7</ele>
        <time>2021-08-14T13:13:42Z</time>
      </trkpt>
      <trkpt lat="46.77319" lon="6.373">
        <ele>1023.8</ele>
        <time>2021-08-14T13:13:44Z</time>
      </trkpt>
      <trkpt lat="46.77312" lon="6.373">
        <ele>1024</ele>
        <time>2021-08-14T13:13:46Z</time>
      </trkpt>
      <trkpt lat="46.77308" lon="6.37301">
        <ele>1024</ele>
        <time>2021-08-14T13:13:47Z</time>
      </trkpt>
      <trkpt lat="46.77304" lon="6.37302">
        <ele>1024</ele>
        <time>2021-08-14T13:13:48Z</time>
      </trkpt>
      <trkpt lat="46.77301" lon="6.37302">
        <ele>1024</ele>
        <time>2021-08-14T13:13:49Z</time>
      </trkpt>
      <trkpt lat="46.77298" lon="6.37302">
        <ele>1024</ele>
        <time>2021-08-14T13:13:50Z</time>
      </trkpt>
      <trkpt lat="46.77296" lon="6.373">
        <ele>1024</ele>
        <time>2021-08-14T13:13:52Z</time>
      </trkpt>
      <trkpt lat="46.77295" lon="6.373">
        <ele>1024</ele>
        <time>2021-08-14T13:13:53Z</time>
      </trkpt>
      <trkpt lat="46.77294" lon="6.373">
        <ele>1024</ele>
        <time>2021-08-14T13:13:54Z</time>
      </trkpt>
      <trkpt lat="46.77292" lon="6.373">
        <ele>1024</ele>
        <time>2021-08-14T13:13:56Z</time>
      </trkpt>
      <trkpt lat="46.77291" lon="6.373">
        <ele>1024</ele>
        <time>2021-08-14T13:13:58Z</time>
      </trkpt>
      <trkpt lat="46.7729" lon="6.37301">
        <ele>1024</ele>
        <time>2021-08-14T13:13:59Z</time>
      </trkpt>
      <trkpt lat="46.77289" lon="6.37301">
        <ele>1024</ele>
        <time>2021-08-14T13:14:01Z</time>
      </trkpt>
      <trkpt lat="46.77292" lon="6.37302">
        <ele>1024</ele>
        <time>2021-08-14T13:14:07Z</time>
      </trkpt>
      <trkpt lat="46.77298" lon="6.37296">
        <ele>1023.9</ele>
        <time>2021-08-14T13:14:09Z</time>
      </trkpt>
      <trkpt lat="46.77298" lon="6.37289">
        <ele>1023.9</ele>
        <time>2021-08-14T13:14:11Z</time>
      </trkpt>
      <trkpt lat="46.77296" lon="6.37287">
        <ele>1023.9</ele>
        <time>2021-08-14T13:14:12Z</time>
      </trkpt>
      <trkpt lat="46.77291" lon="6.37282">
        <ele>1023.9</ele>
        <time>2021-08-14T13:14:14Z</time>
      </trkpt>
      <trkpt lat="46.77282" lon="6.37278">
        <ele>1023.8</ele>
        <time>2021-08-14T13:14:16Z</time>
      </trkpt>
      <trkpt lat="46.77273" lon="6.37278">
        <ele>1023.7</ele>
        <time>2021-08-14T13:14:17Z</time>
      </trkpt>
      <trkpt lat="46.77268" lon="6.37278">
        <ele>1023.7</ele>
        <time>2021-08-14T13:14:18Z</time>
      </trkpt>
      <trkpt lat="46.77264" lon="6.37277">
        <ele>1023.7</ele>
        <time>2021-08-14T13:14:19Z</time>
      </trkpt>
      <trkpt lat="46.77259" lon="6.37276">
        <ele>1023.7</ele>
        <time>2021-08-14T13:14:21Z</time>
      </trkpt>
      <trkpt lat="46.77256" lon="6.37275">
        <ele>1023.8</ele>
        <time>2021-08-14T13:14:22Z</time>
      </trkpt>
      <trkpt lat="46.77252" lon="6.37274">
        <ele>1023.8</ele>
        <time>2021-08-14T13:14:23Z</time>
      </trkpt>
      <trkpt lat="46.77248" lon="6.37274">
        <ele>1023.8</ele>
        <time>2021-08-14T13:14:24Z</time>
      </trkpt>
      <trkpt lat="46.77246" lon="6.37273">
        <ele>1023.8</ele>
        <time>2021-08-14T13:14:25Z</time>
      </trkpt>
      <trkpt lat="46.77243" lon="6.3727">
        <ele>1023.8</ele>
        <time>2021-08-14T13:14:27Z</time>
      </trkpt>
      <trkpt lat="46.77241" lon="6.37267">
        <ele>1023.8</ele>
        <time>2021-08-14T13:14:28Z</time>
      </trkpt>
      <trkpt lat="46.77238" lon="6.37259">
        <ele>1023.8</ele>
        <time>2021-08-14T13:14:30Z</time>
      </trkpt>
      <trkpt lat="46.77236" lon="6.3725">
        <ele>1023.7</ele>
        <time>2021-08-14T13:14:31Z</time>
      </trkpt>
      <trkpt lat="46.77236" lon="6.37243">
        <ele>1023.7</ele>
        <time>2021-08-14T13:14:32Z</time>
      </trkpt>
      <trkpt lat="46.77234" lon="6.37235">
        <ele>1023.6</ele>
        <time>2021-08-14T13:14:33Z</time>
      </trkpt>
      <trkpt lat="46.77235" lon="6.37226">
        <ele>1023.6</ele>
        <time>2021-08-14T13:14:35Z</time>
      </trkpt>
      <trkpt lat="46.77239" lon="6.3722">
        <ele>1023.6</ele>
        <time>2021-08-14T13:14:36Z</time>
      </trkpt>
      <trkpt lat="46.77241" lon="6.37208">
        <ele>1023.7</ele>
        <time>2021-08-14T13:14:38Z</time>
      </trkpt>
      <trkpt lat="46.77241" lon="6.37204">
        <ele>1023.7</ele>
        <time>2021-08-14T13:14:39Z</time>
      </trkpt>
      <trkpt lat="46.77242" lon="6.37195">
        <ele>1023.7</ele>
        <time>2021-08-14T13:14:41Z</time>
      </trkpt>
      <trkpt lat="46.77246" lon="6.37184">
        <ele>1023.7</ele>
        <time>2021-08-14T13:14:42Z</time>
      </trkpt>
      <trkpt lat="46.77249" lon="6.37176">
        <ele>1023.8</ele>
        <time>2021-08-14T13:14:44Z</time>
      </trkpt>
      <trkpt lat="46.77251" lon="6.37167">
        <ele>1023.8</ele>
        <time>2021-08-14T13:14:45Z</time>
      </trkpt>
      <trkpt lat="46.77252" lon="6.37161">
        <ele>1023.8</ele>
        <time>2021-08-14T13:14:46Z</time>
      </trkpt>
      <trkpt lat="46.77253" lon="6.37156">
        <ele>1023.8</ele>
        <time>2021-08-14T13:14:47Z</time>
      </trkpt>
      <trkpt lat="46.77254" lon="6.37149">
        <ele>1023.8</ele>
        <time>2021-08-14T13:14:49Z</time>
      </trkpt>
      <trkpt lat="46.77256" lon="6.37143">
        <ele>1023.7</ele>
        <time>2021-08-14T13:14:50Z</time>
      </trkpt>
      <trkpt lat="46.77258" lon="6.37138">
        <ele>1023.7</ele>
        <time>2021-08-14T13:14:51Z</time>
      </trkpt>
      <trkpt lat="46.7726" lon="6.37131">
        <ele>1023.6</ele>
        <time>2021-08-14T13:14:52Z</time>
      </trkpt>
      <trkpt lat="46.77261" lon="6.37118">
        <ele>1023.5</ele>
        <time>2021-08-14T13:14:54Z</time>
      </trkpt>
      <trkpt lat="46.77261" lon="6.3711">
        <ele>1023.4</ele>
        <time>2021-08-14T13:14:55Z</time>
      </trkpt>
      <trkpt lat="46.77261" lon="6.37102">
        <ele>1023.4</ele>
        <time>2021-08-14T13:14:56Z</time>
      </trkpt>
      <trkpt lat="46.77258" lon="6.37088">
        <ele>1023.4</ele>
        <time>2021-08-14T13:14:58Z</time>
      </trkpt>
      <trkpt lat="46.77256" lon="6.37082">
        <ele>1023.4</ele>
        <time>2021-08-14T13:14:59Z</time>
      </trkpt>
      <trkpt lat="46.77255" lon="6.37076">
        <ele>1023.5</ele>
        <time>2021-08-14T13:15:00Z</time>
      </trkpt>
      <trkpt lat="46.77253" lon="6.37068">
        <ele>1023.6</ele>
        <time>2021-08-14T13:15:01Z</time>
      </trkpt>
      <trkpt lat="46.77251" lon="6.37063">
        <ele>1023.7</ele>
        <time>2021-08-14T13:15:03Z</time>
      </trkpt>
      <trkpt lat="46.7725" lon="6.37058">
        <ele>1023.8</ele>
        <time>2021-08-14T13:15:04Z</time>
      </trkpt>
      <trkpt lat="46.77249" lon="6.37054">
        <ele>1023.8</ele>
        <time>2021-08-14T13:15:05Z</time>
      </trkpt>
      <trkpt lat="46.77248" lon="6.37049">
        <ele>1023.9</ele>
        <time>2021-08-14T13:15:07Z</time>
      </trkpt>
      <trkpt lat="46.77247" lon="6.37043">
        <ele>1023.9</ele>
        <time>2021-08-14T13:15:08Z</time>
      </trkpt>
      <trkpt lat="46.77246" lon="6.37041">
        <ele>1023.9</ele>
        <time>2021-08-14T13:15:09Z</time>
      </trkpt>
      <trkpt lat="46.77246" lon="6.37038">
        <ele>1023.9</ele>
        <time>2021-08-14T13:15:10Z</time>
      </trkpt>
      <trkpt lat="46.77247" lon="6.37036">
        <ele>1023.9</ele>
        <time>2021-08-14T13:15:12Z</time>
      </trkpt>
      <trkpt lat="46.77248" lon="6.37033">
        <ele>1023.9</ele>
        <time>2021-08-14T13:15:13Z</time>
      </trkpt>
      <trkpt lat="46.77249" lon="6.37033">
        <ele>1023.9</ele>
        <time>2021-08-14T13:15:15Z</time>
      </trkpt>
      <trkpt lat="46.7725" lon="6.37032">
        <ele>1023.8</ele>
        <time>2021-08-14T13:15:17Z</time>
      </trkpt>
      <trkpt lat="46.77251" lon="6.37031">
        <ele>1023.8</ele>
        <time>2021-08-14T13:15:18Z</time>
      </trkpt>
      <trkpt lat="46.77252" lon="6.37031">
        <ele>1023.8</ele>
        <time>2021-08-14T13:15:20Z</time>
      </trkpt>
      <trkpt lat="46.77248" lon="6.37028">
        <ele>1023.6</ele>
        <time>2021-08-14T13:15:21Z</time>
      </trkpt>
      <trkpt lat="46.77244" lon="6.37026">
        <ele>1023.4</ele>
        <time>2021-08-14T13:15:22Z</time>
      </trkpt>
      <trkpt lat="46.77239" lon="6.37024">
        <ele>1023.2</ele>
        <time>2021-08-14T13:15:24Z</time>
      </trkpt>
      <trkpt lat="46.77234" lon="6.37022">
        <ele>1022.9</ele>
        <time>2021-08-14T13:15:25Z</time>
      </trkpt>
      <trkpt lat="46.77229" lon="6.3702">
        <ele>1022.7</ele>
        <time>2021-08-14T13:15:27Z</time>
      </trkpt>
      <trkpt lat="46.77224" lon="6.37017">
        <ele>1022.5</ele>
        <time>2021-08-14T13:17:06Z</time>
      </trkpt>
      <trkpt lat="46.77219" lon="6.37015">
        <ele>1022.3</ele>
        <time>2021-08-14T13:17:08Z</time>
      </trkpt>
      <trkpt lat="46.7721" lon="6.37008">
        <ele>1021.9</ele>
        <time>2021-08-14T13:17:09Z</time>
      </trkpt>
      <trkpt lat="46.77199" lon="6.36994">
        <ele>1021.3</ele>
        <time>2021-08-14T13:17:11Z</time>
      </trkpt>
      <trkpt lat="46.77191" lon="6.36981">
        <ele>1021</ele>
        <time>2021-08-14T13:17:13Z</time>
      </trkpt>
      <trkpt lat="46.77187" lon="6.36973">
        <ele>1020.9</ele>
        <time>2021-08-14T13:17:14Z</time>
      </trkpt>
      <trkpt lat="46.77179" lon="6.3696">
        <ele>1020.8</ele>
        <time>2021-08-14T13:17:16Z</time>
      </trkpt>
      <trkpt lat="46.77176" lon="6.36955">
        <ele>1020.7</ele>
        <time>2021-08-14T13:17:17Z</time>
      </trkpt>
      <trkpt lat="46.77167" lon="6.36945">
        <ele>1020.6</ele>
        <time>2021-08-14T13:17:19Z</time>
      </trkpt>
      <trkpt lat="46.77157" lon="6.36935">
        <ele>1020.6</ele>
        <time>2021-08-14T13:17:21Z</time>
      </trkpt>
      <trkpt lat="46.77147" lon="6.36925">
        <ele>1020.6</ele>
        <time>2021-08-14T13:17:23Z</time>
      </trkpt>
      <trkpt lat="46.77143" lon="6.36919">
        <ele>1020.7</ele>
        <time>2021-08-14T13:17:24Z</time>
      </trkpt>
      <trkpt lat="46.77135" lon="6.36909">
        <ele>1020.9</ele>
        <time>2021-08-14T13:17:26Z</time>
      </trkpt>
      <trkpt lat="46.77127" lon="6.36899">
        <ele>1021.1</ele>
        <time>2021-08-14T13:17:28Z</time>
      </trkpt>
      <trkpt lat="46.77123" lon="6.36892">
        <ele>1021.2</ele>
        <time>2021-08-14T13:17:29Z</time>
      </trkpt>
      <trkpt lat="46.77122" lon="6.3688">
        <ele>1021.3</ele>
        <time>2021-08-14T13:17:30Z</time>
      </trkpt>
      <trkpt lat="46.77121" lon="6.36864">
        <ele>1021.4</ele>
        <time>2021-08-14T13:17:32Z</time>
      </trkpt>
      <trkpt lat="46.77118" lon="6.36859">
        <ele>1021.5</ele>
        <time>2021-08-14T13:17:33Z</time>
      </trkpt>
      <trkpt lat="46.77116" lon="6.36856">
        <ele>1021.5</ele>
        <time>2021-08-14T13:17:35Z</time>
      </trkpt>
      <trkpt lat="46.77114" lon="6.36854">
        <ele>1021.6</ele>
        <time>2021-08-14T13:17:36Z</time>
      </trkpt>
      <trkpt lat="46.77111" lon="6.36849">
        <ele>1021.7</ele>
        <time>2021-08-14T13:17:37Z</time>
      </trkpt>
      <trkpt lat="46.77109" lon="6.36845">
        <ele>1021.8</ele>
        <time>2021-08-14T13:17:39Z</time>
      </trkpt>
      <trkpt lat="46.77106" lon="6.36841">
        <ele>1021.9</ele>
        <time>2021-08-14T13:17:40Z</time>
      </trkpt>
      <trkpt lat="46.771" lon="6.36836">
        <ele>1022.2</ele>
        <time>2021-08-14T13:17:42Z</time>
      </trkpt>
      <trkpt lat="46.77097" lon="6.36833">
        <ele>1022.4</ele>
        <time>2021-08-14T13:17:43Z</time>
      </trkpt>
      <trkpt lat="46.77092" lon="6.3683">
        <ele>1022.6</ele>
        <time>2021-08-14T13:17:45Z</time>
      </trkpt>
      <trkpt lat="46.77088" lon="6.36826">
        <ele>1022.8</ele>
        <time>2021-08-14T13:17:46Z</time>
      </trkpt>
      <trkpt lat="46.77084" lon="6.36818">
        <ele>1023</ele>
        <time>2021-08-14T13:17:47Z</time>
      </trkpt>
      <trkpt lat="46.77081" lon="6.36814">
        <ele>1023.2</ele>
        <time>2021-08-14T13:17:49Z</time>
      </trkpt>
      <trkpt lat="46.7708" lon="6.36813">
        <ele>1023.2</ele>
        <time>2021-08-14T13:17:50Z</time>
      </trkpt>
      <trkpt lat="46.77079" lon="6.36813">
        <ele>1023.3</ele>
        <time>2021-08-14T13:17:51Z</time>
      </trkpt>
      <trkpt lat="46.77078" lon="6.36812">
        <ele>1023.3</ele>
        <time>2021-08-14T13:17:53Z</time>
      </trkpt>
      <trkpt lat="46.77078" lon="6.36811">
        <ele>1023.4</ele>
        <time>2021-08-14T13:17:54Z</time>
      </trkpt>
      <trkpt lat="46.77076" lon="6.36808">
        <ele>1023.5</ele>
        <time>2021-08-14T13:17:55Z</time>
      </trkpt>
      <trkpt lat="46.77074" lon="6.36805">
        <ele>1023.6</ele>
        <time>2021-08-14T13:17:57Z</time>
      </trkpt>
      <trkpt lat="46.77071" lon="6.36801">
        <ele>1023.7</ele>
        <time>2021-08-14T13:17:58Z</time>
      </trkpt>
      <trkpt lat="46.77068" lon="6.36795">
        <ele>1023.9</ele>
        <time>2021-08-14T13:17:59Z</time>
      </trkpt>
      <trkpt lat="46.77064" lon="6.36789">
        <ele>1024.1</ele>
        <time>2021-08-14T13:18:00Z</time>
      </trkpt>
      <trkpt lat="46.7706" lon="6.36784">
        <ele>1024.2</ele>
        <time>2021-08-14T13:18:01Z</time>
      </trkpt>
      <trkpt lat="46.77051" lon="6.36773">
        <ele>1024.4</ele>
        <time>2021-08-14T13:18:03Z</time>
      </trkpt>
      <trkpt lat="46.77047" lon="6.36766">
        <ele>1024.4</ele>
        <time>2021-08-14T13:18:05Z</time>
      </trkpt>
      <trkpt lat="46.77044" lon="6.36761">
        <ele>1024.5</ele>
        <time>2021-08-14T13:18:06Z</time>
      </trkpt>
      <trkpt lat="46.77039" lon="6.36754">
        <ele>1024.7</ele>
        <time>2021-08-14T13:18:07Z</time>
      </trkpt>
      <trkpt lat="46.77035" lon="6.36748">
        <ele>1024.8</ele>
        <time>2021-08-14T13:18:09Z</time>
      </trkpt>
      <trkpt lat="46.77033" lon="6.36745">
        <ele>1025</ele>
        <time>2021-08-14T13:18:10Z</time>
      </trkpt>
      <trkpt lat="46.7703" lon="6.3674">
        <ele>1025.1</ele>
        <time>2021-08-14T13:18:12Z</time>
      </trkpt>
      <trkpt lat="46.77028" lon="6.36737">
        <ele>1025.3</ele>
        <time>2021-08-14T13:18:13Z</time>
      </trkpt>
      <trkpt lat="46.77028" lon="6.36735">
        <ele>1025.3</ele>
        <time>2021-08-14T13:18:14Z</time>
      </trkpt>
      <trkpt lat="46.77024" lon="6.36731">
        <ele>1025.6</ele>
        <time>2021-08-14T13:18:16Z</time>
      </trkpt>
      <trkpt lat="46.77023" lon="6.3673">
        <ele>1025.7</ele>
        <time>2021-08-14T13:18:17Z</time>
      </trkpt>
      <trkpt lat="46.77021" lon="6.36729">
        <ele>1025.8</ele>
        <time>2021-08-14T13:18:18Z</time>
      </trkpt>
      <trkpt lat="46.77017" lon="6.36728">
        <ele>1026</ele>
        <time>2021-08-14T13:18:19Z</time>
      </trkpt>
      <trkpt lat="46.77014" lon="6.36726">
        <ele>1026.2</ele>
        <time>2021-08-14T13:18:20Z</time>
      </trkpt>
      <trkpt lat="46.77011" lon="6.36725">
        <ele>1026.4</ele>
        <time>2021-08-14T13:18:21Z</time>
      </trkpt>
      <trkpt lat="46.7701" lon="6.36722">
        <ele>1026.5</ele>
        <time>2021-08-14T13:18:22Z</time>
      </trkpt>
      <trkpt lat="46.77007" lon="6.36717">
        <ele>1026.8</ele>
        <time>2021-08-14T13:18:24Z</time>
      </trkpt>
      <trkpt lat="46.77005" lon="6.36713">
        <ele>1027</ele>
        <time>2021-08-14T13:18:25Z</time>
      </trkpt>
      <trkpt lat="46.77004" lon="6.36712">
        <ele>1027.1</ele>
        <time>2021-08-14T13:18:26Z</time>
      </trkpt>
      <trkpt lat="46.77002" lon="6.36706">
        <ele>1027.4</ele>
        <time>2021-08-14T13:18:27Z</time>
      </trkpt>
      <trkpt lat="46.77001" lon="6.36704">
        <ele>1027.5</ele>
        <time>2021-08-14T13:18:28Z</time>
      </trkpt>
      <trkpt lat="46.76999" lon="6.367">
        <ele>1027.7</ele>
        <time>2021-08-14T13:18:30Z</time>
      </trkpt>
      <trkpt lat="46.76997" lon="6.36697">
        <ele>1027.9</ele>
        <time>2021-08-14T13:18:31Z</time>
      </trkpt>
      <trkpt lat="46.76995" lon="6.36692">
        <ele>1028.1</ele>
        <time>2021-08-14T13:18:32Z</time>
      </trkpt>
      <trkpt lat="46.76992" lon="6.36687">
        <ele>1028.4</ele>
        <time>2021-08-14T13:18:34Z</time>
      </trkpt>
      <trkpt lat="46.76991" lon="6.36685">
        <ele>1028.5</ele>
        <time>2021-08-14T13:18:35Z</time>
      </trkpt>
      <trkpt lat="46.76988" lon="6.36684">
        <ele>1028.7</ele>
        <time>2021-08-14T13:18:36Z</time>
      </trkpt>
      <trkpt lat="46.76987" lon="6.36684">
        <ele>1028.8</ele>
        <time>2021-08-14T13:18:38Z</time>
      </trkpt>
      <trkpt lat="46.76986" lon="6.36682">
        <ele>1028.9</ele>
        <time>2021-08-14T13:18:39Z</time>
      </trkpt>
      <trkpt lat="46.76986" lon="6.3668">
        <ele>1029</ele>
        <time>2021-08-14T13:18:40Z</time>
      </trkpt>
      <trkpt lat="46.76986" lon="6.36679">
        <ele>1029</ele>
        <time>2021-08-14T13:18:41Z</time>
      </trkpt>
      <trkpt lat="46.76986" lon="6.36682">
        <ele>1029.1</ele>
        <time>2021-08-14T13:18:42Z</time>
      </trkpt>
      <trkpt lat="46.76986" lon="6.36682">
        <ele>1029.1</ele>
        <time>2021-08-14T13:18:43Z</time>
      </trkpt>
      <trkpt lat="46.76985" lon="6.36682">
        <ele>1029.2</ele>
        <time>2021-08-14T13:18:44Z</time>
      </trkpt>
      <trkpt lat="46.76984" lon="6.36682">
        <ele>1029.2</ele>
        <time>2021-08-14T13:18:45Z</time>
      </trkpt>
      <trkpt lat="46.76983" lon="6.36682">
        <ele>1029.3</ele>
        <time>2021-08-14T13:18:46Z</time>
      </trkpt>
      <trkpt lat="46.76981" lon="6.36683">
        <ele>1029.4</ele>
        <time>2021-08-14T13:18:48Z</time>
      </trkpt>
      <trkpt lat="46.7698" lon="6.36683">
        <ele>1029.4</ele>
        <time>2021-08-14T13:18:50Z</time>
      </trkpt>
      <trkpt lat="46.76973" lon="6.36685">
        <ele>1029.7</ele>
        <time>2021-08-14T13:18:52Z</time>
      </trkpt>
      <trkpt lat="46.76965" lon="6.36684">
        <ele>1029.8</ele>
        <time>2021-08-14T13:18:53Z</time>
      </trkpt>
      <trkpt lat="46.7696" lon="6.36685">
        <ele>1029.9</ele>
        <time>2021-08-14T13:18:54Z</time>
      </trkpt>
      <trkpt lat="46.76955" lon="6.36685">
        <ele>1030</ele>
        <time>2021-08-14T13:18:55Z</time>
      </trkpt>
      <trkpt lat="46.7695" lon="6.36684">
        <ele>1030</ele>
        <time>2021-08-14T13:18:56Z</time>
      </trkpt>
      <trkpt lat="46.76946" lon="6.36683">
        <ele>1030.1</ele>
        <time>2021-08-14T13:18:58Z</time>
      </trkpt>
      <trkpt lat="46.76943" lon="6.36681">
        <ele>1030.2</ele>
        <time>2021-08-14T13:18:59Z</time>
      </trkpt>
      <trkpt lat="46.76937" lon="6.3668">
        <ele>1030.2</ele>
        <time>2021-08-14T13:19:00Z</time>
      </trkpt>
      <trkpt lat="46.76933" lon="6.36678">
        <ele>1030.3</ele>
        <time>2021-08-14T13:19:01Z</time>
      </trkpt>
      <trkpt lat="46.76928" lon="6.36673">
        <ele>1030.4</ele>
        <time>2021-08-14T13:19:03Z</time>
      </trkpt>
      <trkpt lat="46.76923" lon="6.3667">
        <ele>1030.5</ele>
        <time>2021-08-14T13:19:04Z</time>
      </trkpt>
      <trkpt lat="46.7692" lon="6.36668">
        <ele>1030.5</ele>
        <time>2021-08-14T13:19:05Z</time>
      </trkpt>
      <trkpt lat="46.76918" lon="6.36663">
        <ele>1030.5</ele>
        <time>2021-08-14T13:19:07Z</time>
      </trkpt>
      <trkpt lat="46.76917" lon="6.3666">
        <ele>1030.6</ele>
        <time>2021-08-14T13:19:08Z</time>
      </trkpt>
      <trkpt lat="46.76915" lon="6.36653">
        <ele>1030.7</ele>
        <time>2021-08-14T13:19:09Z</time>
      </trkpt>
      <trkpt lat="46.76914" lon="6.36646">
        <ele>1030.8</ele>
        <time>2021-08-14T13:19:11Z</time>
      </trkpt>
      <trkpt lat="46.76914" lon="6.36642">
        <ele>1030.8</ele>
        <time>2021-08-14T13:19:12Z</time>
      </trkpt>
      <trkpt lat="46.76913" lon="6.36634">
        <ele>1030.9</ele>
        <time>2021-08-14T13:19:13Z</time>
      </trkpt>
      <trkpt lat="46.76915" lon="6.36626">
        <ele>1031</ele>
        <time>2021-08-14T13:19:14Z</time>
      </trkpt>
      <trkpt lat="46.76915" lon="6.36621">
        <ele>1031</ele>
        <time>2021-08-14T13:19:16Z</time>
      </trkpt>
      <trkpt lat="46.76916" lon="6.36617">
        <ele>1031.1</ele>
        <time>2021-08-14T13:19:17Z</time>
      </trkpt>
      <trkpt lat="46.76917" lon="6.3661">
        <ele>1031.1</ele>
        <time>2021-08-14T13:19:18Z</time>
      </trkpt>
      <trkpt lat="46.76918" lon="6.36604">
        <ele>1031.1</ele>
        <time>2021-08-14T13:19:20Z</time>
      </trkpt>
      <trkpt lat="46.76921" lon="6.36596">
        <ele>1031.2</ele>
        <time>2021-08-14T13:19:22Z</time>
      </trkpt>
      <trkpt lat="46.76923" lon="6.36589">
        <ele>1031.3</ele>
        <time>2021-08-14T13:19:23Z</time>
      </trkpt>
      <trkpt lat="46.76924" lon="6.36581">
        <ele>1031.4</ele>
        <time>2021-08-14T13:19:25Z</time>
      </trkpt>
      <trkpt lat="46.76925" lon="6.36576">
        <ele>1031.5</ele>
        <time>2021-08-14T13:19:27Z</time>
      </trkpt>
      <trkpt lat="46.76925" lon="6.36572">
        <ele>1031.6</ele>
        <time>2021-08-14T13:19:28Z</time>
      </trkpt>
      <trkpt lat="46.76926" lon="6.36567">
        <ele>1031.6</ele>
        <time>2021-08-14T13:19:29Z</time>
      </trkpt>
      <trkpt lat="46.76928" lon="6.36561">
        <ele>1031.7</ele>
        <time>2021-08-14T13:19:30Z</time>
      </trkpt>
      <trkpt lat="46.76928" lon="6.36554">
        <ele>1031.9</ele>
        <time>2021-08-14T13:19:32Z</time>
      </trkpt>
      <trkpt lat="46.76929" lon="6.36545">
        <ele>1032.1</ele>
        <time>2021-08-14T13:19:34Z</time>
      </trkpt>
      <trkpt lat="46.76929" lon="6.36535">
        <ele>1032.4</ele>
        <time>2021-08-14T13:19:36Z</time>
      </trkpt>
      <trkpt lat="46.76929" lon="6.36531">
        <ele>1032.5</ele>
        <time>2021-08-14T13:19:37Z</time>
      </trkpt>
      <trkpt lat="46.76928" lon="6.36525">
        <ele>1032.7</ele>
        <time>2021-08-14T13:19:38Z</time>
      </trkpt>
      <trkpt lat="46.76926" lon="6.36519">
        <ele>1033</ele>
        <time>2021-08-14T13:19:40Z</time>
      </trkpt>
      <trkpt lat="46.76923" lon="6.36514">
        <ele>1033.3</ele>
        <time>2021-08-14T13:19:41Z</time>
      </trkpt>
      <trkpt lat="46.76921" lon="6.36509">
        <ele>1033.6</ele>
        <time>2021-08-14T13:19:43Z</time>
      </trkpt>
      <trkpt lat="46.76917" lon="6.36503">
        <ele>1034.1</ele>
        <time>2021-08-14T13:19:45Z</time>
      </trkpt>
      <trkpt lat="46.76916" lon="6.36501">
        <ele>1034.3</ele>
        <time>2021-08-14T13:19:46Z</time>
      </trkpt>
      <trkpt lat="46.76914" lon="6.36497">
        <ele>1034.6</ele>
        <time>2021-08-14T13:19:48Z</time>
      </trkpt>
      <trkpt lat="46.76913" lon="6.36496">
        <ele>1034.7</ele>
        <time>2021-08-14T13:19:49Z</time>
      </trkpt>
      <trkpt lat="46.76912" lon="6.36494">
        <ele>1034.8</ele>
        <time>2021-08-14T13:19:50Z</time>
      </trkpt>
      <trkpt lat="46.76911" lon="6.3649">
        <ele>1035</ele>
        <time>2021-08-14T13:19:52Z</time>
      </trkpt>
      <trkpt lat="46.76911" lon="6.36485">
        <ele>1035.3</ele>
        <time>2021-08-14T13:19:54Z</time>
      </trkpt>
      <trkpt lat="46.76909" lon="6.36481">
        <ele>1035.5</ele>
        <time>2021-08-14T13:19:55Z</time>
      </trkpt>
      <trkpt lat="46.76908" lon="6.36478">
        <ele>1035.7</ele>
        <time>2021-08-14T13:19:56Z</time>
      </trkpt>
      <trkpt lat="46.76905" lon="6.36474">
        <ele>1035.9</ele>
        <time>2021-08-14T13:19:57Z</time>
      </trkpt>
      <trkpt lat="46.76902" lon="6.36468">
        <ele>1036.2</ele>
        <time>2021-08-14T13:19:59Z</time>
      </trkpt>
      <trkpt lat="46.76901" lon="6.36466">
        <ele>1036.3</ele>
        <time>2021-08-14T13:20:00Z</time>
      </trkpt>
      <trkpt lat="46.769" lon="6.36464">
        <ele>1036.4</ele>
        <time>2021-08-14T13:20:01Z</time>
      </trkpt>
      <trkpt lat="46.76898" lon="6.3646">
        <ele>1036.5</ele>
        <time>2021-08-14T13:20:02Z</time>
      </trkpt>
      <trkpt lat="46.76895" lon="6.36455">
        <ele>1036.6</ele>
        <time>2021-08-14T13:20:04Z</time>
      </trkpt>
      <trkpt lat="46.76892" lon="6.36452">
        <ele>1036.7</ele>
        <time>2021-08-14T13:20:05Z</time>
      </trkpt>
      <trkpt lat="46.7689" lon="6.36451">
        <ele>1036.9</ele>
        <time>2021-08-14T13:20:06Z</time>
      </trkpt>
      <trkpt lat="46.76887" lon="6.36451">
        <ele>1037</ele>
        <time>2021-08-14T13:20:08Z</time>
      </trkpt>
      <trkpt lat="46.76886" lon="6.36451">
        <ele>1037</ele>
        <time>2021-08-14T13:20:09Z</time>
      </trkpt>
      <trkpt lat="46.76883" lon="6.36452">
        <ele>1037.1</ele>
        <time>2021-08-14T13:20:10Z</time>
      </trkpt>
      <trkpt lat="46.7688" lon="6.36453">
        <ele>1037.2</ele>
        <time>2021-08-14T13:20:12Z</time>
      </trkpt>
      <trkpt lat="46.76879" lon="6.36454">
        <ele>1037.2</ele>
        <time>2021-08-14T13:20:13Z</time>
      </trkpt>
      <trkpt lat="46.76878" lon="6.36456">
        <ele>1037.3</ele>
        <time>2021-08-14T13:20:14Z</time>
      </trkpt>
      <trkpt lat="46.76875" lon="6.36461">
        <ele>1037.5</ele>
        <time>2021-08-14T13:20:16Z</time>
      </trkpt>
      <trkpt lat="46.76873" lon="6.36465">
        <ele>1037.6</ele>
        <time>2021-08-14T13:20:17Z</time>
      </trkpt>
      <trkpt lat="46.76872" lon="6.36466">
        <ele>1037.6</ele>
        <time>2021-08-14T13:20:18Z</time>
      </trkpt>
      <trkpt lat="46.7687" lon="6.36469">
        <ele>1037.7</ele>
        <time>2021-08-14T13:20:19Z</time>
      </trkpt>
      <trkpt lat="46.76868" lon="6.36472">
        <ele>1037.8</ele>
        <time>2021-08-14T13:20:21Z</time>
      </trkpt>
      <trkpt lat="46.76867" lon="6.36473">
        <ele>1037.9</ele>
        <time>2021-08-14T13:20:22Z</time>
      </trkpt>
      <trkpt lat="46.76866" lon="6.36475">
        <ele>1037.9</ele>
        <time>2021-08-14T13:20:23Z</time>
      </trkpt>
      <trkpt lat="46.76865" lon="6.36476">
        <ele>1038</ele>
        <time>2021-08-14T13:20:24Z</time>
      </trkpt>
      <trkpt lat="46.76862" lon="6.36477">
        <ele>1038.1</ele>
        <time>2021-08-14T13:20:26Z</time>
      </trkpt>
      <trkpt lat="46.76861" lon="6.36478">
        <ele>1038.2</ele>
        <time>2021-08-14T13:20:27Z</time>
      </trkpt>
      <trkpt lat="46.76861" lon="6.36482">
        <ele>1038.3</ele>
        <time>2021-08-14T13:20:28Z</time>
      </trkpt>
      <trkpt lat="46.76861" lon="6.36484">
        <ele>1038.3</ele>
        <time>2021-08-14T13:20:29Z</time>
      </trkpt>
      <trkpt lat="46.7686" lon="6.36487">
        <ele>1038.4</ele>
        <time>2021-08-14T13:20:31Z</time>
      </trkpt>
      <trkpt lat="46.76859" lon="6.36489">
        <ele>1038.5</ele>
        <time>2021-08-14T13:20:32Z</time>
      </trkpt>
      <trkpt lat="46.76857" lon="6.36491">
        <ele>1038.6</ele>
        <time>2021-08-14T13:20:34Z</time>
      </trkpt>
      <trkpt lat="46.76857" lon="6.36492">
        <ele>1038.7</ele>
        <time>2021-08-14T13:20:35Z</time>
      </trkpt>
      <trkpt lat="46.76856" lon="6.36497">
        <ele>1038.9</ele>
        <time>2021-08-14T13:20:36Z</time>
      </trkpt>
      <trkpt lat="46.76855" lon="6.36498">
        <ele>1038.9</ele>
        <time>2021-08-14T13:20:37Z</time>
      </trkpt>
      <trkpt lat="46.76853" lon="6.36502">
        <ele>1039.1</ele>
        <time>2021-08-14T13:20:38Z</time>
      </trkpt>
      <trkpt lat="46.76852" lon="6.36504">
        <ele>1039.2</ele>
        <time>2021-08-14T13:20:39Z</time>
      </trkpt>
      <trkpt lat="46.76851" lon="6.36507">
        <ele>1039.4</ele>
        <time>2021-08-14T13:20:40Z</time>
      </trkpt>
      <trkpt lat="46.7685" lon="6.36512">
        <ele>1039.6</ele>
        <time>2021-08-14T13:20:42Z</time>
      </trkpt>
      <trkpt lat="46.76848" lon="6.36515">
        <ele>1039.8</ele>
        <time>2021-08-14T13:20:43Z</time>
      </trkpt>
      <trkpt lat="46.76847" lon="6.36515">
        <ele>1039.9</ele>
        <time>2021-08-14T13:20:45Z</time>
      </trkpt>
      <trkpt lat="46.76846" lon="6.36515">
        <ele>1039.9</ele>
        <time>2021-08-14T13:20:46Z</time>
      </trkpt>
      <trkpt lat="46.76844" lon="6.36516">
        <ele>1040</ele>
        <time>2021-08-14T13:20:47Z</time>
      </trkpt>
      <trkpt lat="46.76843" lon="6.36516">
        <ele>1040.1</ele>
        <time>2021-08-14T13:20:49Z</time>
      </trkpt>
      <trkpt lat="46.7684" lon="6.36516">
        <ele>1040.3</ele>
        <time>2021-08-14T13:20:50Z</time>
      </trkpt>
      <trkpt lat="46.76838" lon="6.36517">
        <ele>1040.5</ele>
        <time>2021-08-14T13:20:52Z</time>
      </trkpt>
      <trkpt lat="46.76836" lon="6.36522">
        <ele>1040.7</ele>
        <time>2021-08-14T13:20:53Z</time>
      </trkpt>
      <trkpt lat="46.76836" lon="6.36523">
        <ele>1040.8</ele>
        <time>2021-08-14T13:20:54Z</time>
      </trkpt>
      <trkpt lat="46.76834" lon="6.3653">
        <ele>1041.2</ele>
        <time>2021-08-14T13:20:56Z</time>
      </trkpt>
      <trkpt lat="46.76833" lon="6.36536">
        <ele>1041.4</ele>
        <time>2021-08-14T13:20:57Z</time>
      </trkpt>
      <trkpt lat="46.76832" lon="6.36545">
        <ele>1041.8</ele>
        <time>2021-08-14T13:20:59Z</time>
      </trkpt>
      <trkpt lat="46.7683" lon="6.36554">
        <ele>1042.1</ele>
        <time>2021-08-14T13:21:00Z</time>
      </trkpt>
      <trkpt lat="46.7683" lon="6.36561">
        <ele>1042.4</ele>
        <time>2021-08-14T13:21:01Z</time>
      </trkpt>
      <trkpt lat="46.76829" lon="6.36572">
        <ele>1042.7</ele>
        <time>2021-08-14T13:21:03Z</time>
      </trkpt>
      <trkpt lat="46.76828" lon="6.36581">
        <ele>1042.9</ele>
        <time>2021-08-14T13:21:05Z</time>
      </trkpt>
      <trkpt lat="46.76828" lon="6.36588">
        <ele>1043.1</ele>
        <time>2021-08-14T13:21:06Z</time>
      </trkpt>
      <trkpt lat="46.76827" lon="6.36595">
        <ele>1043.2</ele>
        <time>2021-08-14T13:21:08Z</time>
      </trkpt>
      <trkpt lat="46.76827" lon="6.366">
        <ele>1043.3</ele>
        <time>2021-08-14T13:21:09Z</time>
      </trkpt>
      <trkpt lat="46.76827" lon="6.36607">
        <ele>1043.4</ele>
        <time>2021-08-14T13:21:10Z</time>
      </trkpt>
      <trkpt lat="46.76827" lon="6.36611">
        <ele>1043.4</ele>
        <time>2021-08-14T13:21:11Z</time>
      </trkpt>
      <trkpt lat="46.76827" lon="6.36615">
        <ele>1043.5</ele>
        <time>2021-08-14T13:21:12Z</time>
      </trkpt>
      <trkpt lat="46.76827" lon="6.36622">
        <ele>1043.5</ele>
        <time>2021-08-14T13:21:14Z</time>
      </trkpt>
      <trkpt lat="46.76825" lon="6.36627">
        <ele>1043.5</ele>
        <time>2021-08-14T13:21:16Z</time>
      </trkpt>
      <trkpt lat="46.76825" lon="6.3663">
        <ele>1043.5</ele>
        <time>2021-08-14T13:21:17Z</time>
      </trkpt>
      <trkpt lat="46.76824" lon="6.36633">
        <ele>1043.4</ele>
        <time>2021-08-14T13:21:19Z</time>
      </trkpt>
      <trkpt lat="46.76823" lon="6.36639">
        <ele>1043.4</ele>
        <time>2021-08-14T13:21:20Z</time>
      </trkpt>
      <trkpt lat="46.76822" lon="6.36642">
        <ele>1043.4</ele>
        <time>2021-08-14T13:21:21Z</time>
      </trkpt>
      <trkpt lat="46.7682" lon="6.36647">
        <ele>1043.3</ele>
        <time>2021-08-14T13:21:22Z</time>
      </trkpt>
      <trkpt lat="46.76816" lon="6.3665">
        <ele>1043.3</ele>
        <time>2021-08-14T13:21:24Z</time>
      </trkpt>
      <trkpt lat="46.76813" lon="6.36654">
        <ele>1043.3</ele>
        <time>2021-08-14T13:21:25Z</time>
      </trkpt>
      <trkpt lat="46.76809" lon="6.36659">
        <ele>1043.4</ele>
        <time>2021-08-14T13:21:27Z</time>
      </trkpt>
      <trkpt lat="46.76807" lon="6.36662">
        <ele>1043.4</ele>
        <time>2021-08-14T13:21:28Z</time>
      </trkpt>
      <trkpt lat="46.76802" lon="6.36668">
        <ele>1043.5</ele>
        <time>2021-08-14T13:21:30Z</time>
      </trkpt>
      <trkpt lat="46.76797" lon="6.36676">
        <ele>1043.6</ele>
        <time>2021-08-14T13:21:31Z</time>
      </trkpt>
      <trkpt lat="46.76795" lon="6.3668">
        <ele>1043.7</ele>
        <time>2021-08-14T13:21:33Z</time>
      </trkpt>
      <trkpt lat="46.76794" lon="6.36684">
        <ele>1043.8</ele>
        <time>2021-08-14T13:21:34Z</time>
      </trkpt>
      <trkpt lat="46.76793" lon="6.36688">
        <ele>1043.8</ele>
        <time>2021-08-14T13:21:35Z</time>
      </trkpt>
      <trkpt lat="46.76792" lon="6.36695">
        <ele>1043.9</ele>
        <time>2021-08-14T13:21:36Z</time>
      </trkpt>
      <trkpt lat="46.76793" lon="6.36699">
        <ele>1044.5</ele>
        <time>2021-08-14T13:21:37Z</time>
      </trkpt>
      <trkpt lat="46.76793" lon="6.36702">
        <ele>1044.5</ele>
        <time>2021-08-14T13:21:38Z</time>
      </trkpt>
      <trkpt lat="46.76792" lon="6.36703">
        <ele>1044.6</ele>
        <time>2021-08-14T13:21:40Z</time>
      </trkpt>
      <trkpt lat="46.76791" lon="6.36701">
        <ele>1044.6</ele>
        <time>2021-08-14T13:21:41Z</time>
      </trkpt>
      <trkpt lat="46.76791" lon="6.367">
        <ele>1044.6</ele>
        <time>2021-08-14T13:21:42Z</time>
      </trkpt>
      <trkpt lat="46.7679" lon="6.36701">
        <ele>1044.6</ele>
        <time>2021-08-14T13:21:43Z</time>
      </trkpt>
      <trkpt lat="46.7679" lon="6.36701">
        <ele>1044.6</ele>
        <time>2021-08-14T13:21:45Z</time>
      </trkpt>
      <trkpt lat="46.76789" lon="6.36702">
        <ele>1044.6</ele>
        <time>2021-08-14T13:21:46Z</time>
      </trkpt>
      <trkpt lat="46.76788" lon="6.36703">
        <ele>1044.7</ele>
        <time>2021-08-14T13:21:47Z</time>
      </trkpt>
      <trkpt lat="46.76788" lon="6.36705">
        <ele>1044.7</ele>
        <time>2021-08-14T13:21:49Z</time>
      </trkpt>
      <trkpt lat="46.7678" lon="6.36709">
        <ele>1044.9</ele>
        <time>2021-08-14T13:21:54Z</time>
      </trkpt>
      <trkpt lat="46.76775" lon="6.36709">
        <ele>1045</ele>
        <time>2021-08-14T13:21:56Z</time>
      </trkpt>
      <trkpt lat="46.7677" lon="6.3671">
        <ele>1045.1</ele>
        <time>2021-08-14T13:21:57Z</time>
      </trkpt>
      <trkpt lat="46.76767" lon="6.36712">
        <ele>1045.2</ele>
        <time>2021-08-14T13:21:58Z</time>
      </trkpt>
      <trkpt lat="46.76766" lon="6.36712">
        <ele>1045.2</ele>
        <time>2021-08-14T13:22:00Z</time>
      </trkpt>
      <trkpt lat="46.76765" lon="6.36712">
        <ele>1045.2</ele>
        <time>2021-08-14T13:22:02Z</time>
      </trkpt>
      <trkpt lat="46.76764" lon="6.36712">
        <ele>1045.2</ele>
        <time>2021-08-14T13:22:03Z</time>
      </trkpt>
      <trkpt lat="46.76767" lon="6.36709">
        <ele>1045.3</ele>
        <time>2021-08-14T13:22:04Z</time>
      </trkpt>
      <trkpt lat="46.7677" lon="6.36707">
        <ele>1045.4</ele>
        <time>2021-08-14T13:22:06Z</time>
      </trkpt>
      <trkpt lat="46.76773" lon="6.36704">
        <ele>1045.5</ele>
        <time>2021-08-14T13:22:07Z</time>
      </trkpt>
      <trkpt lat="46.76776" lon="6.36702">
        <ele>1045.6</ele>
        <time>2021-08-14T13:22:08Z</time>
      </trkpt>
      <trkpt lat="46.76778" lon="6.36699">
        <ele>1045.3</ele>
        <time>2021-08-14T13:23:06Z</time>
      </trkpt>
      <trkpt lat="46.76781" lon="6.36697">
        <ele>1045.2</ele>
        <time>2021-08-14T13:23:07Z</time>
      </trkpt>
      <trkpt lat="46.76788" lon="6.36698">
        <ele>1044.9</ele>
        <time>2021-08-14T13:23:09Z</time>
      </trkpt>
      <trkpt lat="46.76791" lon="6.36701">
        <ele>1044.8</ele>
        <time>2021-08-14T13:23:10Z</time>
      </trkpt>
      <trkpt lat="46.76794" lon="6.36704">
        <ele>1044.7</ele>
        <time>2021-08-14T13:23:11Z</time>
      </trkpt>
      <trkpt lat="46.76797" lon="6.36711">
        <ele>1044.4</ele>
        <time>2021-08-14T13:23:13Z</time>
      </trkpt>
      <trkpt lat="46.76799" lon="6.36714">
        <ele>1044.4</ele>
        <time>2021-08-14T13:23:14Z</time>
      </trkpt>
      <trkpt lat="46.76801" lon="6.36714">
        <ele>1044.3</ele>
        <time>2021-08-14T13:23:15Z</time>
      </trkpt>
      <trkpt lat="46.76802" lon="6.36711">
        <ele>1044.2</ele>
        <time>2021-08-14T13:23:17Z</time>
      </trkpt>
      <trkpt lat="46.76803" lon="6.36708">
        <ele>1044.1</ele>
        <time>2021-08-14T13:23:18Z</time>
      </trkpt>
      <trkpt lat="46.76803" lon="6.36703">
        <ele>1044</ele>
        <time>2021-08-14T13:23:20Z</time>
      </trkpt>
      <trkpt lat="46.76803" lon="6.36697">
        <ele>1043.9</ele>
        <time>2021-08-14T13:23:21Z</time>
      </trkpt>
      <trkpt lat="46.76804" lon="6.36687">
        <ele>1043.8</ele>
        <time>2021-08-14T13:23:23Z</time>
      </trkpt>
      <trkpt lat="46.76806" lon="6.36679">
        <ele>1043.7</ele>
        <time>2021-08-14T13:23:24Z</time>
      </trkpt>
      <trkpt lat="46.76809" lon="6.36673">
        <ele>1043.5</ele>
        <time>2021-08-14T13:23:26Z</time>
      </trkpt>
      <trkpt lat="46.76811" lon="6.36668">
        <ele>1043.5</ele>
        <time>2021-08-14T13:23:27Z</time>
      </trkpt>
      <trkpt lat="46.76813" lon="6.36654">
        <ele>1043.3</ele>
        <time>2021-08-14T13:23:29Z</time>
      </trkpt>
      <trkpt lat="46.76815" lon="6.36648">
        <ele>1043.3</ele>
        <time>2021-08-14T13:23:30Z</time>
      </trkpt>
      <trkpt lat="46.76818" lon="6.36643">
        <ele>1043.3</ele>
        <time>2021-08-14T13:23:31Z</time>
      </trkpt>
      <trkpt lat="46.76819" lon="6.36636">
        <ele>1043.4</ele>
        <time>2021-08-14T13:23:32Z</time>
      </trkpt>
      <trkpt lat="46.76817" lon="6.36627">
        <ele>1043.4</ele>
        <time>2021-08-14T13:23:35Z</time>
      </trkpt>
      <trkpt lat="46.76815" lon="6.36623">
        <ele>1043.5</ele>
        <time>2021-08-14T13:23:37Z</time>
      </trkpt>
      <trkpt lat="46.76815" lon="6.3662">
        <ele>1043.5</ele>
        <time>2021-08-14T13:23:38Z</time>
      </trkpt>
      <trkpt lat="46.76815" lon="6.36619">
        <ele>1043.5</ele>
        <time>2021-08-14T13:23:39Z</time>
      </trkpt>
      <trkpt lat="46.76816" lon="6.36617">
        <ele>1043.5</ele>
        <time>2021-08-14T13:23:40Z</time>
      </trkpt>
      <trkpt lat="46.76817" lon="6.36612">
        <ele>1043.5</ele>
        <time>2021-08-14T13:23:41Z</time>
      </trkpt>
      <trkpt lat="46.76819" lon="6.36606">
        <ele>1043.4</ele>
        <time>2021-08-14T13:23:43Z</time>
      </trkpt>
      <trkpt lat="46.76821" lon="6.366">
        <ele>1043.3</ele>
        <time>2021-08-14T13:23:44Z</time>
      </trkpt>
      <trkpt lat="46.76824" lon="6.36594">
        <ele>1043.1</ele>
        <time>2021-08-14T13:23:45Z</time>
      </trkpt>
      <trkpt lat="46.76827" lon="6.36588">
        <ele>1043</ele>
        <time>2021-08-14T13:23:47Z</time>
      </trkpt>
      <trkpt lat="46.76828" lon="6.36584">
        <ele>1042.8</ele>
        <time>2021-08-14T13:23:48Z</time>
      </trkpt>
      <trkpt lat="46.76833" lon="6.36568">
        <ele>1042.3</ele>
        <time>2021-08-14T13:23:50Z</time>
      </trkpt>
      <trkpt lat="46.76839" lon="6.36553">
        <ele>1041.6</ele>
        <time>2021-08-14T13:23:52Z</time>
      </trkpt>
      <trkpt lat="46.76842" lon="6.36545">
        <ele>1041.2</ele>
        <time>2021-08-14T13:23:53Z</time>
      </trkpt>
      <trkpt lat="46.76846" lon="6.36537">
        <ele>1040.7</ele>
        <time>2021-08-14T13:23:54Z</time>
      </trkpt>
      <trkpt lat="46.76854" lon="6.36518">
        <ele>1039.6</ele>
        <time>2021-08-14T13:23:56Z</time>
      </trkpt>
      <trkpt lat="46.76863" lon="6.36498">
        <ele>1038.6</ele>
        <time>2021-08-14T13:23:58Z</time>
      </trkpt>
      <trkpt lat="46.76871" lon="6.36478">
        <ele>1037.8</ele>
        <time>2021-08-14T13:24:00Z</time>
      </trkpt>
      <trkpt lat="46.76878" lon="6.3646">
        <ele>1037.3</ele>
        <time>2021-08-14T13:24:02Z</time>
      </trkpt>
      <trkpt lat="46.76885" lon="6.36443">
        <ele>1036.9</ele>
        <time>2021-08-14T13:24:04Z</time>
      </trkpt>
      <trkpt lat="46.76888" lon="6.36434">
        <ele>1037.1</ele>
        <time>2021-08-14T13:24:05Z</time>
      </trkpt>
      <trkpt lat="46.76893" lon="6.36417">
        <ele>1037.1</ele>
        <time>2021-08-14T13:24:07Z</time>
      </trkpt>
      <trkpt lat="46.76894" lon="6.3641">
        <ele>1036.9</ele>
        <time>2021-08-14T13:24:08Z</time>
      </trkpt>
      <trkpt lat="46.76893" lon="6.36399">
        <ele>1036.6</ele>
        <time>2021-08-14T13:24:10Z</time>
      </trkpt>
      <trkpt lat="46.76892" lon="6.36387">
        <ele>1036.1</ele>
        <time>2021-08-14T13:24:12Z</time>
      </trkpt>
      <trkpt lat="46.76891" lon="6.36373">
        <ele>1035.5</ele>
        <time>2021-08-14T13:24:14Z</time>
      </trkpt>
      <trkpt lat="46.76891" lon="6.36357">
        <ele>1034.9</ele>
        <time>2021-08-14T13:24:16Z</time>
      </trkpt>
      <trkpt lat="46.76891" lon="6.36337">
        <ele>1034.5</ele>
        <time>2021-08-14T13:24:18Z</time>
      </trkpt>
      <trkpt lat="46.76892" lon="6.36317">
        <ele>1034.3</ele>
        <time>2021-08-14T13:24:20Z</time>
      </trkpt>
      <trkpt lat="46.76892" lon="6.36299">
        <ele>1033.9</ele>
        <time>2021-08-14T13:24:22Z</time>
      </trkpt>
      <trkpt lat="46.76892" lon="6.36291">
        <ele>1033.8</ele>
        <time>2021-08-14T13:24:23Z</time>
      </trkpt>
      <trkpt lat="46.76892" lon="6.36274">
        <ele>1033.2</ele>
        <time>2021-08-14T13:24:25Z</time>
      </trkpt>
      <trkpt lat="46.76892" lon="6.36266">
        <ele>1032.9</ele>
        <time>2021-08-14T13:24:26Z</time>
      </trkpt>
      <trkpt lat="46.76893" lon="6.36248">
        <ele>1032.1</ele>
        <time>2021-08-14T13:24:28Z</time>
      </trkpt>
      <trkpt lat="46.76894" lon="6.36239">
        <ele>1031.7</ele>
        <time>2021-08-14T13:24:29Z</time>
      </trkpt>
      <trkpt lat="46.76895" lon="6.36229">
        <ele>1031.2</ele>
        <time>2021-08-14T13:24:30Z</time>
      </trkpt>
      <trkpt lat="46.76896" lon="6.3622">
        <ele>1030.6</ele>
        <time>2021-08-14T13:24:31Z</time>
      </trkpt>
      <trkpt lat="46.76896" lon="6.36211">
        <ele>1030.1</ele>
        <time>2021-08-14T13:24:32Z</time>
      </trkpt>
      <trkpt lat="46.76896" lon="6.36193">
        <ele>1028.9</ele>
        <time>2021-08-14T13:24:34Z</time>
      </trkpt>
      <trkpt lat="46.76896" lon="6.36183">
        <ele>1028.2</ele>
        <time>2021-08-14T13:24:35Z</time>
      </trkpt>
      <trkpt lat="46.76898" lon="6.36173">
        <ele>1027.4</ele>
        <time>2021-08-14T13:24:36Z</time>
      </trkpt>
      <trkpt lat="46.76898" lon="6.36161">
        <ele>1026.5</ele>
        <time>2021-08-14T13:24:37Z</time>
      </trkpt>
      <trkpt lat="46.76899" lon="6.36149">
        <ele>1025.6</ele>
        <time>2021-08-14T13:24:38Z</time>
      </trkpt>
      <trkpt lat="46.76902" lon="6.36125">
        <ele>1024</ele>
        <time>2021-08-14T13:24:40Z</time>
      </trkpt>
      <trkpt lat="46.76902" lon="6.36113">
        <ele>1023.3</ele>
        <time>2021-08-14T13:24:41Z</time>
      </trkpt>
      <trkpt lat="46.76901" lon="6.36101">
        <ele>1022.7</ele>
        <time>2021-08-14T13:24:42Z</time>
      </trkpt>
      <trkpt lat="46.76897" lon="6.36082">
        <ele>1021.7</ele>
        <time>2021-08-14T13:24:44Z</time>
      </trkpt>
      <trkpt lat="46.76893" lon="6.36068">
        <ele>1020.9</ele>
        <time>2021-08-14T13:24:46Z</time>
      </trkpt>
      <trkpt lat="46.76893" lon="6.36064">
        <ele>1020.6</ele>
        <time>2021-08-14T13:24:47Z</time>
      </trkpt>
      <trkpt lat="46.76892" lon="6.36059">
        <ele>1020.3</ele>
        <time>2021-08-14T13:24:48Z</time>
      </trkpt>
      <trkpt lat="46.76894" lon="6.36051">
        <ele>1019.8</ele>
        <time>2021-08-14T13:24:50Z</time>
      </trkpt>
      <trkpt lat="46.76895" lon="6.36046">
        <ele>1019.5</ele>
        <time>2021-08-14T13:24:52Z</time>
      </trkpt>
      <trkpt lat="46.76896" lon="6.36042">
        <ele>1019.2</ele>
        <time>2021-08-14T13:24:53Z</time>
      </trkpt>
      <trkpt lat="46.76897" lon="6.36037">
        <ele>1018.9</ele>
        <time>2021-08-14T13:24:54Z</time>
      </trkpt>
      <trkpt lat="46.76898" lon="6.36032">
        <ele>1018.6</ele>
        <time>2021-08-14T13:24:55Z</time>
      </trkpt>
      <trkpt lat="46.76899" lon="6.36028">
        <ele>1018.3</ele>
        <time>2021-08-14T13:24:57Z</time>
      </trkpt>
      <trkpt lat="46.769" lon="6.36023">
        <ele>1017.9</ele>
        <time>2021-08-14T13:24:58Z</time>
      </trkpt>
      <trkpt lat="46.76901" lon="6.36018">
        <ele>1017.6</ele>
        <time>2021-08-14T13:25:00Z</time>
      </trkpt>
      <trkpt lat="46.76903" lon="6.36014">
        <ele>1017.3</ele>
        <time>2021-08-14T13:26:05Z</time>
      </trkpt>
      <trkpt lat="46.76904" lon="6.36009">
        <ele>1017</ele>
        <time>2021-08-14T13:26:06Z</time>
      </trkpt>
      <trkpt lat="46.76905" lon="6.35989">
        <ele>1016</ele>
        <time>2021-08-14T13:26:08Z</time>
      </trkpt>
      <trkpt lat="46.76905" lon="6.35983">
        <ele>1015.7</ele>
        <time>2021-08-14T13:26:09Z</time>
      </trkpt>
      <trkpt lat="46.76906" lon="6.35976">
        <ele>1015.4</ele>
        <time>2021-08-14T13:26:10Z</time>
      </trkpt>
      <trkpt lat="46.76906" lon="6.3597">
        <ele>1015.2</ele>
        <time>2021-08-14T13:26:11Z</time>
      </trkpt>
      <trkpt lat="46.76907" lon="6.35966">
        <ele>1015</ele>
        <time>2021-08-14T13:26:13Z</time>
      </trkpt>
      <trkpt lat="46.76907" lon="6.35961">
        <ele>1014.8</ele>
        <time>2021-08-14T13:26:15Z</time>
      </trkpt>
      <trkpt lat="46.76907" lon="6.35956">
        <ele>1014.6</ele>
        <time>2021-08-14T13:26:17Z</time>
      </trkpt>
      <trkpt lat="46.76904" lon="6.3595">
        <ele>1014.2</ele>
        <time>2021-08-14T13:26:19Z</time>
      </trkpt>
      <trkpt lat="46.76904" lon="6.35946">
        <ele>1014.1</ele>
        <time>2021-08-14T13:26:20Z</time>
      </trkpt>
      <trkpt lat="46.76902" lon="6.35936">
        <ele>1013.8</ele>
        <time>2021-08-14T13:26:21Z</time>
      </trkpt>
      <trkpt lat="46.76899" lon="6.35924">
        <ele>1013.3</ele>
        <time>2021-08-14T13:26:23Z</time>
      </trkpt>
      <trkpt lat="46.76897" lon="6.35917">
        <ele>1013.1</ele>
        <time>2021-08-14T13:26:24Z</time>
      </trkpt>
      <trkpt lat="46.76894" lon="6.35907">
        <ele>1012.7</ele>
        <time>2021-08-14T13:26:25Z</time>
      </trkpt>
      <trkpt lat="46.76892" lon="6.35895">
        <ele>1012.3</ele>
        <time>2021-08-14T13:26:27Z</time>
      </trkpt>
      <trkpt lat="46.7689" lon="6.3588">
        <ele>1011.8</ele>
        <time>2021-08-14T13:26:29Z</time>
      </trkpt>
      <trkpt lat="46.76889" lon="6.35872">
        <ele>1011.5</ele>
        <time>2021-08-14T13:26:30Z</time>
      </trkpt>
      <trkpt lat="46.76886" lon="6.35854">
        <ele>1010.9</ele>
        <time>2021-08-14T13:26:32Z</time>
      </trkpt>
      <trkpt lat="46.76883" lon="6.35838">
        <ele>1010.4</ele>
        <time>2021-08-14T13:26:34Z</time>
      </trkpt>
      <trkpt lat="46.76881" lon="6.35829">
        <ele>1010.2</ele>
        <time>2021-08-14T13:26:35Z</time>
      </trkpt>
      <trkpt lat="46.7688" lon="6.35821">
        <ele>1010</ele>
        <time>2021-08-14T13:26:36Z</time>
      </trkpt>
      <trkpt lat="46.76878" lon="6.35813">
        <ele>1009.9</ele>
        <time>2021-08-14T13:26:37Z</time>
      </trkpt>
      <trkpt lat="46.76877" lon="6.35804">
        <ele>1009.7</ele>
        <time>2021-08-14T13:26:38Z</time>
      </trkpt>
      <trkpt lat="46.76875" lon="6.35796">
        <ele>1009.6</ele>
        <time>2021-08-14T13:26:39Z</time>
      </trkpt>
      <trkpt lat="46.76873" lon="6.3578">
        <ele>1009.4</ele>
        <time>2021-08-14T13:26:41Z</time>
      </trkpt>
      <trkpt lat="46.76873" lon="6.35772">
        <ele>1009.3</ele>
        <time>2021-08-14T13:26:42Z</time>
      </trkpt>
      <trkpt lat="46.76871" lon="6.35757">
        <ele>1009.2</ele>
        <time>2021-08-14T13:26:44Z</time>
      </trkpt>
      <trkpt lat="46.7687" lon="6.35743">
        <ele>1009.2</ele>
        <time>2021-08-14T13:26:46Z</time>
      </trkpt>
      <trkpt lat="46.76868" lon="6.3573">
        <ele>1009.3</ele>
        <time>2021-08-14T13:26:48Z</time>
      </trkpt>
      <trkpt lat="46.76867" lon="6.35721">
        <ele>1009.3</ele>
        <time>2021-08-14T13:26:50Z</time>
      </trkpt>
      <trkpt lat="46.76866" lon="6.35713">
        <ele>1009.4</ele>
        <time>2021-08-14T13:26:52Z</time>
      </trkpt>
      <trkpt lat="46.76865" lon="6.35706">
        <ele>1009.3</ele>
        <time>2021-08-14T13:26:54Z</time>
      </trkpt>
      <trkpt lat="46.76867" lon="6.35701">
        <ele>1009.3</ele>
        <time>2021-08-14T13:26:55Z</time>
      </trkpt>
      <trkpt lat="46.76867" lon="6.35699">
        <ele>1009.2</ele>
        <time>2021-08-14T13:26:56Z</time>
      </trkpt>
      <trkpt lat="46.76867" lon="6.35694">
        <ele>1009.2</ele>
        <time>2021-08-14T13:26:58Z</time>
      </trkpt>
      <trkpt lat="46.76866" lon="6.3569">
        <ele>1009.1</ele>
        <time>2021-08-14T13:26:59Z</time>
      </trkpt>
      <trkpt lat="46.76867" lon="6.35685">
        <ele>1009.1</ele>
        <time>2021-08-14T13:27:00Z</time>
      </trkpt>
      <trkpt lat="46.76867" lon="6.3568">
        <ele>1009</ele>
        <time>2021-08-14T13:27:01Z</time>
      </trkpt>
      <trkpt lat="46.76869" lon="6.35675">
        <ele>1009</ele>
        <time>2021-08-14T13:27:02Z</time>
      </trkpt>
      <trkpt lat="46.76871" lon="6.3567">
        <ele>1008.8</ele>
        <time>2021-08-14T13:27:03Z</time>
      </trkpt>
      <trkpt lat="46.76874" lon="6.35663">
        <ele>1008.5</ele>
        <time>2021-08-14T13:27:05Z</time>
      </trkpt>
      <trkpt lat="46.76878" lon="6.35653">
        <ele>1008.1</ele>
        <time>2021-08-14T13:27:07Z</time>
      </trkpt>
      <trkpt lat="46.76882" lon="6.35646">
        <ele>1007.9</ele>
        <time>2021-08-14T13:27:08Z</time>
      </trkpt>
      <trkpt lat="46.76891" lon="6.35634">
        <ele>1007.4</ele>
        <time>2021-08-14T13:27:10Z</time>
      </trkpt>
      <trkpt lat="46.76896" lon="6.35628">
        <ele>1007.3</ele>
        <time>2021-08-14T13:27:11Z</time>
      </trkpt>
      <trkpt lat="46.76907" lon="6.35616">
        <ele>1007</ele>
        <time>2021-08-14T13:27:13Z</time>
      </trkpt>
      <trkpt lat="46.76912" lon="6.35611">
        <ele>1006.9</ele>
        <time>2021-08-14T13:27:14Z</time>
      </trkpt>
      <trkpt lat="46.7692" lon="6.35601">
        <ele>1006.8</ele>
        <time>2021-08-14T13:27:16Z</time>
      </trkpt>
      <trkpt lat="46.76928" lon="6.35591">
        <ele>1006.6</ele>
        <time>2021-08-14T13:27:18Z</time>
      </trkpt>
      <trkpt lat="46.76931" lon="6.35586">
        <ele>1006.5</ele>
        <time>2021-08-14T13:27:19Z</time>
      </trkpt>
      <trkpt lat="46.76935" lon="6.35581">
        <ele>1006.5</ele>
        <time>2021-08-14T13:27:20Z</time>
      </trkpt>
      <trkpt lat="46.76938" lon="6.35578">
        <ele>1006.4</ele>
        <time>2021-08-14T13:27:22Z</time>
      </trkpt>
      <trkpt lat="46.76944" lon="6.3558">
        <ele>1006.4</ele>
        <time>2021-08-14T13:27:24Z</time>
      </trkpt>
      <trkpt lat="46.76948" lon="6.35584">
        <ele>1006.3</ele>
        <time>2021-08-14T13:27:25Z</time>
      </trkpt>
      <trkpt lat="46.76948" lon="6.35589">
        <ele>1006.3</ele>
        <time>2021-08-14T13:27:27Z</time>
      </trkpt>
      <trkpt lat="46.7695" lon="6.35591">
        <ele>1006.3</ele>
        <time>2021-08-14T13:27:28Z</time>
      </trkpt>
      <trkpt lat="46.76954" lon="6.35597">
        <ele>1006.2</ele>
        <time>2021-08-14T13:27:30Z</time>
      </trkpt>
      <trkpt lat="46.76957" lon="6.35601">
        <ele>1006.1</ele>
        <time>2021-08-14T13:27:32Z</time>
      </trkpt>
      <trkpt lat="46.76958" lon="6.35604">
        <ele>1006.1</ele>
        <time>2021-08-14T13:27:34Z</time>
      </trkpt>
      <trkpt lat="46.76961" lon="6.35606">
        <ele>1006</ele>
        <time>2021-08-14T13:27:35Z</time>
      </trkpt>
      <trkpt lat="46.76965" lon="6.35605">
        <ele>1006</ele>
        <time>2021-08-14T13:27:37Z</time>
      </trkpt>
      <trkpt lat="46.76966" lon="6.35603">
        <ele>1005.9</ele>
        <time>2021-08-14T13:27:38Z</time>
      </trkpt>
      <trkpt lat="46.76968" lon="6.35599">
        <ele>1005.8</ele>
        <time>2021-08-14T13:27:40Z</time>
      </trkpt>
      <trkpt lat="46.76969" lon="6.35595">
        <ele>1005.7</ele>
        <time>2021-08-14T13:27:42Z</time>
      </trkpt>
      <trkpt lat="46.76971" lon="6.35591">
        <ele>1005.6</ele>
        <time>2021-08-14T13:27:44Z</time>
      </trkpt>
      <trkpt lat="46.76974" lon="6.35587">
        <ele>1005.5</ele>
        <time>2021-08-14T13:27:46Z</time>
      </trkpt>
      <trkpt lat="46.76976" lon="6.35584">
        <ele>1005.4</ele>
        <time>2021-08-14T13:27:47Z</time>
      </trkpt>
      <trkpt lat="46.76978" lon="6.35578">
        <ele>1005.3</ele>
        <time>2021-08-14T13:27:48Z</time>
      </trkpt>
      <trkpt lat="46.76979" lon="6.35572">
        <ele>1005.1</ele>
        <time>2021-08-14T13:27:49Z</time>
      </trkpt>
      <trkpt lat="46.76976" lon="6.35563">
        <ele>1004.9</ele>
        <time>2021-08-14T13:27:51Z</time>
      </trkpt>
      <trkpt lat="46.76975" lon="6.35559">
        <ele>1004.8</ele>
        <time>2021-08-14T13:27:52Z</time>
      </trkpt>
      <trkpt lat="46.76973" lon="6.35554">
        <ele>1004.7</ele>
        <time>2021-08-14T13:27:54Z</time>
      </trkpt>
      <trkpt lat="46.76972" lon="6.35551">
        <ele>1004.7</ele>
        <time>2021-08-14T13:27:55Z</time>
      </trkpt>
      <trkpt lat="46.76969" lon="6.35545">
        <ele>1004.5</ele>
        <time>2021-08-14T13:27:57Z</time>
      </trkpt>
      <trkpt lat="46.76968" lon="6.35541">
        <ele>1004.4</ele>
        <time>2021-08-14T13:27:58Z</time>
      </trkpt>
      <trkpt lat="46.76968" lon="6.3554">
        <ele>1004.4</ele>
        <time>2021-08-14T13:27:59Z</time>
      </trkpt>
      <trkpt lat="46.76969" lon="6.35538">
        <ele>1004.4</ele>
        <time>2021-08-14T13:28:00Z</time>
      </trkpt>
      <trkpt lat="46.76971" lon="6.35535">
        <ele>1004.3</ele>
        <time>2021-08-14T13:28:02Z</time>
      </trkpt>
      <trkpt lat="46.76974" lon="6.35532">
        <ele>1004.2</ele>
        <time>2021-08-14T13:28:04Z</time>
      </trkpt>
      <trkpt lat="46.76978" lon="6.35528">
        <ele>1004.1</ele>
        <time>2021-08-14T13:28:05Z</time>
      </trkpt>
      <trkpt lat="46.76979" lon="6.35525">
        <ele>1004</ele>
        <time>2021-08-14T13:28:06Z</time>
      </trkpt>
      <trkpt lat="46.76981" lon="6.35523">
        <ele>1003.9</ele>
        <time>2021-08-14T13:28:08Z</time>
      </trkpt>
      <trkpt lat="46.76986" lon="6.35519">
        <ele>1003.7</ele>
        <time>2021-08-14T13:28:10Z</time>
      </trkpt>
      <trkpt lat="46.76989" lon="6.35517">
        <ele>1003.6</ele>
        <time>2021-08-14T13:28:11Z</time>
      </trkpt>
      <trkpt lat="46.7699" lon="6.35516">
        <ele>1003.5</ele>
        <time>2021-08-14T13:28:12Z</time>
      </trkpt>
      <trkpt lat="46.76991" lon="6.3551">
        <ele>1003.4</ele>
        <time>2021-08-14T13:28:14Z</time>
      </trkpt>
      <trkpt lat="46.76992" lon="6.35507">
        <ele>1003.3</ele>
        <time>2021-08-14T13:28:15Z</time>
      </trkpt>
      <trkpt lat="46.76992" lon="6.35505">
        <ele>1003.2</ele>
        <time>2021-08-14T13:28:17Z</time>
      </trkpt>
      <trkpt lat="46.76993" lon="6.35502">
        <ele>1003.1</ele>
        <time>2021-08-14T13:28:18Z</time>
      </trkpt>
      <trkpt lat="46.76994" lon="6.35499">
        <ele>1003.1</ele>
        <time>2021-08-14T13:28:20Z</time>
      </trkpt>
      <trkpt lat="46.76997" lon="6.35496">
        <ele>1002.9</ele>
        <time>2021-08-14T13:28:21Z</time>
      </trkpt>
      <trkpt lat="46.76998" lon="6.35495">
        <ele>1002.9</ele>
        <time>2021-08-14T13:28:22Z</time>
      </trkpt>
      <trkpt lat="46.77" lon="6.35494">
        <ele>1002.8</ele>
        <time>2021-08-14T13:28:23Z</time>
      </trkpt>
      <trkpt lat="46.77003" lon="6.35494">
        <ele>1002.7</ele>
        <time>2021-08-14T13:28:25Z</time>
      </trkpt>
      <trkpt lat="46.77004" lon="6.35495">
        <ele>1002.6</ele>
        <time>2021-08-14T13:28:26Z</time>
      </trkpt>
      <trkpt lat="46.77004" lon="6.35495">
        <ele>1002.6</ele>
        <time>2021-08-14T13:28:27Z</time>
      </trkpt>
      <trkpt lat="46.77004" lon="6.35496">
        <ele>1002.6</ele>
        <time>2021-08-14T13:28:28Z</time>
      </trkpt>
      <trkpt lat="46.77004" lon="6.35497">
        <ele>1002.6</ele>
        <time>2021-08-14T13:28:29Z</time>
      </trkpt>
      <trkpt lat="46.77005" lon="6.35498">
        <ele>1002.5</ele>
        <time>2021-08-14T13:28:30Z</time>
      </trkpt>
      <trkpt lat="46.77008" lon="6.35503">
        <ele>1002.3</ele>
        <time>2021-08-14T13:28:31Z</time>
      </trkpt>
      <trkpt lat="46.7701" lon="6.35508">
        <ele>1002.1</ele>
        <time>2021-08-14T13:28:33Z</time>
      </trkpt>
      <trkpt lat="46.77014" lon="6.35509">
        <ele>1002</ele>
        <time>2021-08-14T13:28:34Z</time>
      </trkpt>
      <trkpt lat="46.77018" lon="6.35511">
        <ele>1001.8</ele>
        <time>2021-08-14T13:28:36Z</time>
      </trkpt>
      <trkpt lat="46.77021" lon="6.35512">
        <ele>1001.6</ele>
        <time>2021-08-14T13:28:37Z</time>
      </trkpt>
      <trkpt lat="46.77025" lon="6.35511">
        <ele>1001.4</ele>
        <time>2021-08-14T13:28:38Z</time>
      </trkpt>
      <trkpt lat="46.77031" lon="6.35511">
        <ele>1001.1</ele>
        <time>2021-08-14T13:28:40Z</time>
      </trkpt>
      <trkpt lat="46.77035" lon="6.35512">
        <ele>1000.9</ele>
        <time>2021-08-14T13:28:41Z</time>
      </trkpt>
      <trkpt lat="46.77041" lon="6.35515">
        <ele>1000.5</ele>
        <time>2021-08-14T13:28:42Z</time>
      </trkpt>
      <trkpt lat="46.77051" lon="6.35516">
        <ele>999.9</ele>
        <time>2021-08-14T13:28:44Z</time>
      </trkpt>
      <trkpt lat="46.77059" lon="6.35516">
        <ele>999.3</ele>
        <time>2021-08-14T13:28:46Z</time>
      </trkpt>
      <trkpt lat="46.77063" lon="6.35513">
        <ele>999</ele>
        <time>2021-08-14T13:28:47Z</time>
      </trkpt>
      <trkpt lat="46.77066" lon="6.35507">
        <ele>998.6</ele>
        <time>2021-08-14T13:28:48Z</time>
      </trkpt>
      <trkpt lat="46.77072" lon="6.35496">
        <ele>997.9</ele>
        <time>2021-08-14T13:28:50Z</time>
      </trkpt>
      <trkpt lat="46.77078" lon="6.35483">
        <ele>997.1</ele>
        <time>2021-08-14T13:28:52Z</time>
      </trkpt>
      <trkpt lat="46.77082" lon="6.35476">
        <ele>996.6</ele>
        <time>2021-08-14T13:28:53Z</time>
      </trkpt>
      <trkpt lat="46.77088" lon="6.35459">
        <ele>996.1</ele>
        <time>2021-08-14T13:28:55Z</time>
      </trkpt>
      <trkpt lat="46.77089" lon="6.3545">
        <ele>995.9</ele>
        <time>2021-08-14T13:28:56Z</time>
      </trkpt>
      <trkpt lat="46.77089" lon="6.35431">
        <ele>995.5</ele>
        <time>2021-08-14T13:28:58Z</time>
      </trkpt>
      <trkpt lat="46.77089" lon="6.35422">
        <ele>995.4</ele>
        <time>2021-08-14T13:28:59Z</time>
      </trkpt>
      <trkpt lat="46.77088" lon="6.35414">
        <ele>995.3</ele>
        <time>2021-08-14T13:29:00Z</time>
      </trkpt>
      <trkpt lat="46.77084" lon="6.35396">
        <ele>995.3</ele>
        <time>2021-08-14T13:29:02Z</time>
      </trkpt>
      <trkpt lat="46.77081" lon="6.35379">
        <ele>995.8</ele>
        <time>2021-08-14T13:29:04Z</time>
      </trkpt>
      <trkpt lat="46.77077" lon="6.3537">
        <ele>996.1</ele>
        <time>2021-08-14T13:29:05Z</time>
      </trkpt>
      <trkpt lat="46.77073" lon="6.35363">
        <ele>996.4</ele>
        <time>2021-08-14T13:29:06Z</time>
      </trkpt>
      <trkpt lat="46.77068" lon="6.35351">
        <ele>996.9</ele>
        <time>2021-08-14T13:29:08Z</time>
      </trkpt>
      <trkpt lat="46.77065" lon="6.35346">
        <ele>997.1</ele>
        <time>2021-08-14T13:29:09Z</time>
      </trkpt>
      <trkpt lat="46.77059" lon="6.35342">
        <ele>997.4</ele>
        <time>2021-08-14T13:29:11Z</time>
      </trkpt>
      <trkpt lat="46.77055" lon="6.35332">
        <ele>997.8</ele>
        <time>2021-08-14T13:29:13Z</time>
      </trkpt>
      <trkpt lat="46.77054" lon="6.35328">
        <ele>997.9</ele>
        <time>2021-08-14T13:29:14Z</time>
      </trkpt>
      <trkpt lat="46.77051" lon="6.35325">
        <ele>998</ele>
        <time>2021-08-14T13:29:16Z</time>
      </trkpt>
      <trkpt lat="46.77049" lon="6.35322">
        <ele>998.1</ele>
        <time>2021-08-14T13:29:17Z</time>
      </trkpt>
      <trkpt lat="46.77049" lon="6.35322">
        <ele>998.2</ele>
        <time>2021-08-14T13:29:18Z</time>
      </trkpt>
      <trkpt lat="46.77045" lon="6.35319">
        <ele>998.3</ele>
        <time>2021-08-14T13:29:19Z</time>
      </trkpt>
      <trkpt lat="46.77043" lon="6.35314">
        <ele>998.5</ele>
        <time>2021-08-14T13:29:20Z</time>
      </trkpt>
      <trkpt lat="46.7704" lon="6.35309">
        <ele>998.6</ele>
        <time>2021-08-14T13:29:21Z</time>
      </trkpt>
      <trkpt lat="46.77036" lon="6.35301">
        <ele>998.9</ele>
        <time>2021-08-14T13:29:23Z</time>
      </trkpt>
      <trkpt lat="46.77031" lon="6.35295">
        <ele>999.1</ele>
        <time>2021-08-14T13:29:25Z</time>
      </trkpt>
      <trkpt lat="46.77029" lon="6.35289">
        <ele>999.3</ele>
        <time>2021-08-14T13:29:27Z</time>
      </trkpt>
      <trkpt lat="46.77027" lon="6.35286">
        <ele>999.4</ele>
        <time>2021-08-14T13:29:28Z</time>
      </trkpt>
      <trkpt lat="46.77025" lon="6.35282">
        <ele>999.5</ele>
        <time>2021-08-14T13:29:29Z</time>
      </trkpt>
      <trkpt lat="46.77022" lon="6.35279">
        <ele>999.6</ele>
        <time>2021-08-14T13:29:30Z</time>
      </trkpt>
      <trkpt lat="46.77021" lon="6.35277">
        <ele>999.7</ele>
        <time>2021-08-14T13:29:31Z</time>
      </trkpt>
      <trkpt lat="46.77018" lon="6.35273">
        <ele>999.8</ele>
        <time>2021-08-14T13:29:32Z</time>
      </trkpt>
      <trkpt lat="46.77017" lon="6.35272">
        <ele>999.8</ele>
        <time>2021-08-14T13:29:33Z</time>
      </trkpt>
      <trkpt lat="46.77014" lon="6.35268">
        <ele>999.9</ele>
        <time>2021-08-14T13:29:34Z</time>
      </trkpt>
      <trkpt lat="46.77013" lon="6.35267">
        <ele>1000</ele>
        <time>2021-08-14T13:29:35Z</time>
      </trkpt>
      <trkpt lat="46.7701" lon="6.35264">
        <ele>1000.1</ele>
        <time>2021-08-14T13:29:37Z</time>
      </trkpt>
      <trkpt lat="46.77008" lon="6.35262">
        <ele>1000.2</ele>
        <time>2021-08-14T13:29:38Z</time>
      </trkpt>
      <trkpt lat="46.77005" lon="6.35257">
        <ele>1000.3</ele>
        <time>2021-08-14T13:29:39Z</time>
      </trkpt>
      <trkpt lat="46.77003" lon="6.35253">
        <ele>1000.4</ele>
        <time>2021-08-14T13:29:41Z</time>
      </trkpt>
      <trkpt lat="46.77001" lon="6.35249">
        <ele>1000.5</ele>
        <time>2021-08-14T13:29:42Z</time>
      </trkpt>
      <trkpt lat="46.76999" lon="6.35245">
        <ele>1000.6</ele>
        <time>2021-08-14T13:29:43Z</time>
      </trkpt>
      <trkpt lat="46.76997" lon="6.35242">
        <ele>1000.7</ele>
        <time>2021-08-14T13:29:44Z</time>
      </trkpt>
      <trkpt lat="46.76995" lon="6.35239">
        <ele>1000.8</ele>
        <time>2021-08-14T13:29:45Z</time>
      </trkpt>
      <trkpt lat="46.76993" lon="6.35237">
        <ele>1000.9</ele>
        <time>2021-08-14T13:29:46Z</time>
      </trkpt>
      <trkpt lat="46.7699" lon="6.35234">
        <ele>1001</ele>
        <time>2021-08-14T13:29:47Z</time>
      </trkpt>
      <trkpt lat="46.76988" lon="6.35231">
        <ele>1001.1</ele>
        <time>2021-08-14T13:29:48Z</time>
      </trkpt>
      <trkpt lat="46.76987" lon="6.35228">
        <ele>1001.2</ele>
        <time>2021-08-14T13:29:49Z</time>
      </trkpt>
      <trkpt lat="46.76985" lon="6.35224">
        <ele>1001.3</ele>
        <time>2021-08-14T13:29:50Z</time>
      </trkpt>
      <trkpt lat="46.76984" lon="6.35223">
        <ele>1001.3</ele>
        <time>2021-08-14T13:29:51Z</time>
      </trkpt>
      <trkpt lat="46.76982" lon="6.35219">
        <ele>1001.4</ele>
        <time>2021-08-14T13:29:53Z</time>
      </trkpt>
      <trkpt lat="46.76978" lon="6.35214">
        <ele>1001.6</ele>
        <time>2021-08-14T13:29:54Z</time>
      </trkpt>
      <trkpt lat="46.76977" lon="6.35212">
        <ele>1001.6</ele>
        <time>2021-08-14T13:29:55Z</time>
      </trkpt>
      <trkpt lat="46.76974" lon="6.3521">
        <ele>1001.8</ele>
        <time>2021-08-14T13:29:56Z</time>
      </trkpt>
      <trkpt lat="46.7697" lon="6.35207">
        <ele>1001.9</ele>
        <time>2021-08-14T13:29:58Z</time>
      </trkpt>
      <trkpt lat="46.76968" lon="6.35204">
        <ele>1002</ele>
        <time>2021-08-14T13:29:59Z</time>
      </trkpt>
      <trkpt lat="46.76966" lon="6.35201">
        <ele>1002.1</ele>
        <time>2021-08-14T13:30:00Z</time>
      </trkpt>
      <trkpt lat="46.76964" lon="6.35199">
        <ele>1002.2</ele>
        <time>2021-08-14T13:30:02Z</time>
      </trkpt>
      <trkpt lat="46.76962" lon="6.35196">
        <ele>1002.3</ele>
        <time>2021-08-14T13:30:03Z</time>
      </trkpt>
      <trkpt lat="46.76959" lon="6.35191">
        <ele>1002.4</ele>
        <time>2021-08-14T13:30:05Z</time>
      </trkpt>
      <trkpt lat="46.76955" lon="6.35187">
        <ele>1002.5</ele>
        <time>2021-08-14T13:30:06Z</time>
      </trkpt>
      <trkpt lat="46.76954" lon="6.35186">
        <ele>1002.6</ele>
        <time>2021-08-14T13:30:07Z</time>
      </trkpt>
      <trkpt lat="46.76952" lon="6.35184">
        <ele>1002.7</ele>
        <time>2021-08-14T13:30:08Z</time>
      </trkpt>
      <trkpt lat="46.76949" lon="6.35181">
        <ele>1002.7</ele>
        <time>2021-08-14T13:30:09Z</time>
      </trkpt>
      <trkpt lat="46.76946" lon="6.35178">
        <ele>1002.9</ele>
        <time>2021-08-14T13:30:10Z</time>
      </trkpt>
      <trkpt lat="46.76945" lon="6.35177">
        <ele>1002.9</ele>
        <time>2021-08-14T13:30:11Z</time>
      </trkpt>
      <trkpt lat="46.76942" lon="6.35174">
        <ele>1003</ele>
        <time>2021-08-14T13:30:12Z</time>
      </trkpt>
      <trkpt lat="46.76941" lon="6.35172">
        <ele>1003.1</ele>
        <time>2021-08-14T13:30:13Z</time>
      </trkpt>
      <trkpt lat="46.76938" lon="6.3517">
        <ele>1003.1</ele>
        <time>2021-08-14T13:30:15Z</time>
      </trkpt>
      <trkpt lat="46.76936" lon="6.35169">
        <ele>1003.2</ele>
        <time>2021-08-14T13:30:16Z</time>
      </trkpt>
      <trkpt lat="46.76934" lon="6.35166">
        <ele>1003.3</ele>
        <time>2021-08-14T13:30:17Z</time>
      </trkpt>
      <trkpt lat="46.7693" lon="6.35163">
        <ele>1003.4</ele>
        <time>2021-08-14T13:30:19Z</time>
      </trkpt>
      <trkpt lat="46.76925" lon="6.3516">
        <ele>1003.6</ele>
        <time>2021-08-14T13:30:20Z</time>
      </trkpt>
      <trkpt lat="46.76922" lon="6.35158">
        <ele>1003.6</ele>
        <time>2021-08-14T13:30:21Z</time>
      </trkpt>
      <trkpt lat="46.76918" lon="6.35157">
        <ele>1003.7</ele>
        <time>2021-08-14T13:30:23Z</time>
      </trkpt>
      <trkpt lat="46.76915" lon="6.35154">
        <ele>1003.8</ele>
        <time>2021-08-14T13:30:24Z</time>
      </trkpt>
      <trkpt lat="46.76912" lon="6.35152">
        <ele>1003.9</ele>
        <time>2021-08-14T13:30:25Z</time>
      </trkpt>
      <trkpt lat="46.76911" lon="6.35151">
        <ele>1003.9</ele>
        <time>2021-08-14T13:30:26Z</time>
      </trkpt>
      <trkpt lat="46.76908" lon="6.35148">
        <ele>1004</ele>
        <time>2021-08-14T13:30:28Z</time>
      </trkpt>
      <trkpt lat="46.76906" lon="6.35147">
        <ele>1004</ele>
        <time>2021-08-14T13:30:29Z</time>
      </trkpt>
      <trkpt lat="46.769" lon="6.35146">
        <ele>1004.1</ele>
        <time>2021-08-14T13:30:31Z</time>
      </trkpt>
      <trkpt lat="46.76894" lon="6.35145">
        <ele>1004.2</ele>
        <time>2021-08-14T13:30:32Z</time>
      </trkpt>
      <trkpt lat="46.7689" lon="6.35146">
        <ele>1004.3</ele>
        <time>2021-08-14T13:30:33Z</time>
      </trkpt>
      <trkpt lat="46.76886" lon="6.35146">
        <ele>1004.3</ele>
        <time>2021-08-14T13:30:35Z</time>
      </trkpt>
      <trkpt lat="46.7688" lon="6.35145">
        <ele>1004.4</ele>
        <time>2021-08-14T13:30:37Z</time>
      </trkpt>
      <trkpt lat="46.76876" lon="6.35144">
        <ele>1004.5</ele>
        <time>2021-08-14T13:30:38Z</time>
      </trkpt>
      <trkpt lat="46.76871" lon="6.35144">
        <ele>1004.6</ele>
        <time>2021-08-14T13:30:40Z</time>
      </trkpt>
      <trkpt lat="46.76869" lon="6.35144">
        <ele>1004.7</ele>
        <time>2021-08-14T13:30:41Z</time>
      </trkpt>
      <trkpt lat="46.76867" lon="6.35145">
        <ele>1004.7</ele>
        <time>2021-08-14T13:30:42Z</time>
      </trkpt>
      <trkpt lat="46.76864" lon="6.35146">
        <ele>1004.8</ele>
        <time>2021-08-14T13:30:43Z</time>
      </trkpt>
      <trkpt lat="46.76861" lon="6.35147">
        <ele>1004.8</ele>
        <time>2021-08-14T13:30:44Z</time>
      </trkpt>
      <trkpt lat="46.76857" lon="6.35149">
        <ele>1004.9</ele>
        <time>2021-08-14T13:30:46Z</time>
      </trkpt>
      <trkpt lat="46.76856" lon="6.35149">
        <ele>1005</ele>
        <time>2021-08-14T13:30:47Z</time>
      </trkpt>
      <trkpt lat="46.76851" lon="6.3515">
        <ele>1005</ele>
        <time>2021-08-14T13:30:48Z</time>
      </trkpt>
      <trkpt lat="46.7685" lon="6.3515">
        <ele>1005.1</ele>
        <time>2021-08-14T13:30:49Z</time>
      </trkpt>
      <trkpt lat="46.76846" lon="6.35151">
        <ele>1005.2</ele>
        <time>2021-08-14T13:30:51Z</time>
      </trkpt>
      <trkpt lat="46.76845" lon="6.35151">
        <ele>1005.2</ele>
        <time>2021-08-14T13:30:52Z</time>
      </trkpt>
      <trkpt lat="46.76841" lon="6.35152">
        <ele>1005.3</ele>
        <time>2021-08-14T13:30:53Z</time>
      </trkpt>
      <trkpt lat="46.7684" lon="6.35152">
        <ele>1005.3</ele>
        <time>2021-08-14T13:30:54Z</time>
      </trkpt>
      <trkpt lat="46.76835" lon="6.35153">
        <ele>1005.4</ele>
        <time>2021-08-14T13:30:55Z</time>
      </trkpt>
      <trkpt lat="46.76832" lon="6.35153">
        <ele>1005.5</ele>
        <time>2021-08-14T13:30:56Z</time>
      </trkpt>
      <trkpt lat="46.76828" lon="6.35153">
        <ele>1005.5</ele>
        <time>2021-08-14T13:30:57Z</time>
      </trkpt>
      <trkpt lat="46.76825" lon="6.35154">
        <ele>1005.6</ele>
        <time>2021-08-14T13:30:58Z</time>
      </trkpt>
      <trkpt lat="46.7682" lon="6.35154">
        <ele>1005.7</ele>
        <time>2021-08-14T13:31:00Z</time>
      </trkpt>
      <trkpt lat="46.76815" lon="6.35155">
        <ele>1005.9</ele>
        <time>2021-08-14T13:31:01Z</time>
      </trkpt>
      <trkpt lat="46.76811" lon="6.35155">
        <ele>1006</ele>
        <time>2021-08-14T13:31:03Z</time>
      </trkpt>
      <trkpt lat="46.76808" lon="6.35154">
        <ele>1006.1</ele>
        <time>2021-08-14T13:31:04Z</time>
      </trkpt>
      <trkpt lat="46.76807" lon="6.35154">
        <ele>1006.1</ele>
        <time>2021-08-14T13:31:05Z</time>
      </trkpt>
      <trkpt lat="46.76804" lon="6.3515">
        <ele>1006.3</ele>
        <time>2021-08-14T13:31:06Z</time>
      </trkpt>
      <trkpt lat="46.76802" lon="6.35148">
        <ele>1006.3</ele>
        <time>2021-08-14T13:31:07Z</time>
      </trkpt>
      <trkpt lat="46.768" lon="6.35145">
        <ele>1006.5</ele>
        <time>2021-08-14T13:31:08Z</time>
      </trkpt>
      <trkpt lat="46.76797" lon="6.35144">
        <ele>1006.6</ele>
        <time>2021-08-14T13:31:09Z</time>
      </trkpt>
      <trkpt lat="46.76794" lon="6.35142">
        <ele>1006.8</ele>
        <time>2021-08-14T13:31:10Z</time>
      </trkpt>
      <trkpt lat="46.76793" lon="6.35141">
        <ele>1006.8</ele>
        <time>2021-08-14T13:31:11Z</time>
      </trkpt>
      <trkpt lat="46.7679" lon="6.3514">
        <ele>1006.9</ele>
        <time>2021-08-14T13:31:12Z</time>
      </trkpt>
      <trkpt lat="46.76786" lon="6.35138">
        <ele>1007.2</ele>
        <time>2021-08-14T13:31:13Z</time>
      </trkpt>
      <trkpt lat="46.76778" lon="6.35135">
        <ele>1007.5</ele>
        <time>2021-08-14T13:31:15Z</time>
      </trkpt>
      <trkpt lat="46.76772" lon="6.35133">
        <ele>1007.8</ele>
        <time>2021-08-14T13:31:17Z</time>
      </trkpt>
      <trkpt lat="46.76768" lon="6.35132">
        <ele>1007.9</ele>
        <time>2021-08-14T13:31:18Z</time>
      </trkpt>
      <trkpt lat="46.76762" lon="6.35129">
        <ele>1008.2</ele>
        <time>2021-08-14T13:31:20Z</time>
      </trkpt>
      <trkpt lat="46.76754" lon="6.35125">
        <ele>1008.5</ele>
        <time>2021-08-14T13:31:21Z</time>
      </trkpt>
      <trkpt lat="46.76749" lon="6.35124">
        <ele>1008.6</ele>
        <time>2021-08-14T13:31:23Z</time>
      </trkpt>
      <trkpt lat="46.76744" lon="6.35123">
        <ele>1008.8</ele>
        <time>2021-08-14T13:31:24Z</time>
      </trkpt>
      <trkpt lat="46.7674" lon="6.35122">
        <ele>1009</ele>
        <time>2021-08-14T13:31:25Z</time>
      </trkpt>
      <trkpt lat="46.76737" lon="6.35122">
        <ele>1009.1</ele>
        <time>2021-08-14T13:31:26Z</time>
      </trkpt>
      <trkpt lat="46.76734" lon="6.35122">
        <ele>1009.2</ele>
        <time>2021-08-14T13:31:27Z</time>
      </trkpt>
      <trkpt lat="46.76731" lon="6.3512">
        <ele>1009.3</ele>
        <time>2021-08-14T13:31:28Z</time>
      </trkpt>
      <trkpt lat="46.76729" lon="6.35117">
        <ele>1009.4</ele>
        <time>2021-08-14T13:31:29Z</time>
      </trkpt>
      <trkpt lat="46.76725" lon="6.35113">
        <ele>1009.6</ele>
        <time>2021-08-14T13:31:31Z</time>
      </trkpt>
      <trkpt lat="46.76723" lon="6.35112">
        <ele>1009.7</ele>
        <time>2021-08-14T13:31:32Z</time>
      </trkpt>
      <trkpt lat="46.76722" lon="6.35111">
        <ele>1009.7</ele>
        <time>2021-08-14T13:31:33Z</time>
      </trkpt>
      <trkpt lat="46.76719" lon="6.35109">
        <ele>1009.9</ele>
        <time>2021-08-14T13:31:34Z</time>
      </trkpt>
      <trkpt lat="46.76718" lon="6.35109">
        <ele>1009.9</ele>
        <time>2021-08-14T13:31:35Z</time>
      </trkpt>
      <trkpt lat="46.76715" lon="6.35109">
        <ele>1010</ele>
        <time>2021-08-14T13:31:37Z</time>
      </trkpt>
      <trkpt lat="46.76711" lon="6.35107">
        <ele>1010.2</ele>
        <time>2021-08-14T13:31:39Z</time>
      </trkpt>
      <trkpt lat="46.76709" lon="6.35102">
        <ele>1010.3</ele>
        <time>2021-08-14T13:31:40Z</time>
      </trkpt>
      <trkpt lat="46.76708" lon="6.351">
        <ele>1010.3</ele>
        <time>2021-08-14T13:31:41Z</time>
      </trkpt>
      <trkpt lat="46.76706" lon="6.35096">
        <ele>1010.4</ele>
        <time>2021-08-14T13:31:42Z</time>
      </trkpt>
      <trkpt lat="46.76704" lon="6.35094">
        <ele>1010.5</ele>
        <time>2021-08-14T13:31:43Z</time>
      </trkpt>
      <trkpt lat="46.76701" lon="6.35088">
        <ele>1010.7</ele>
        <time>2021-08-14T13:31:45Z</time>
      </trkpt>
      <trkpt lat="46.767" lon="6.35086">
        <ele>1010.8</ele>
        <time>2021-08-14T13:31:46Z</time>
      </trkpt>
      <trkpt lat="46.76699" lon="6.35084">
        <ele>1010.8</ele>
        <time>2021-08-14T13:31:47Z</time>
      </trkpt>
      <trkpt lat="46.76696" lon="6.35079">
        <ele>1011</ele>
        <time>2021-08-14T13:31:49Z</time>
      </trkpt>
      <trkpt lat="46.76694" lon="6.35075">
        <ele>1011.1</ele>
        <time>2021-08-14T13:31:50Z</time>
      </trkpt>
      <trkpt lat="46.7669" lon="6.3507">
        <ele>1011.3</ele>
        <time>2021-08-14T13:31:51Z</time>
      </trkpt>
      <trkpt lat="46.76688" lon="6.35066">
        <ele>1011.4</ele>
        <time>2021-08-14T13:31:52Z</time>
      </trkpt>
      <trkpt lat="46.76686" lon="6.35062">
        <ele>1011.5</ele>
        <time>2021-08-14T13:31:53Z</time>
      </trkpt>
      <trkpt lat="46.76684" lon="6.35057">
        <ele>1011.6</ele>
        <time>2021-08-14T13:31:54Z</time>
      </trkpt>
      <trkpt lat="46.76682" lon="6.35054">
        <ele>1011.6</ele>
        <time>2021-08-14T13:31:55Z</time>
      </trkpt>
      <trkpt lat="46.76681" lon="6.3505">
        <ele>1011.7</ele>
        <time>2021-08-14T13:31:56Z</time>
      </trkpt>
      <trkpt lat="46.76679" lon="6.35046">
        <ele>1011.8</ele>
        <time>2021-08-14T13:31:57Z</time>
      </trkpt>
      <trkpt lat="46.76677" lon="6.35041">
        <ele>1011.9</ele>
        <time>2021-08-14T13:31:58Z</time>
      </trkpt>
      <trkpt lat="46.76676" lon="6.35037">
        <ele>1012</ele>
        <time>2021-08-14T13:31:59Z</time>
      </trkpt>
      <trkpt lat="46.76674" lon="6.35033">
        <ele>1012</ele>
        <time>2021-08-14T13:32:00Z</time>
      </trkpt>
      <trkpt lat="46.76673" lon="6.35027">
        <ele>1012.1</ele>
        <time>2021-08-14T13:32:02Z</time>
      </trkpt>
      <trkpt lat="46.76672" lon="6.35023">
        <ele>1012.2</ele>
        <time>2021-08-14T13:32:03Z</time>
      </trkpt>
      <trkpt lat="46.76672" lon="6.35021">
        <ele>1012.2</ele>
        <time>2021-08-14T13:32:04Z</time>
      </trkpt>
      <trkpt lat="46.76671" lon="6.35014">
        <ele>1012.3</ele>
        <time>2021-08-14T13:32:05Z</time>
      </trkpt>
      <trkpt lat="46.76669" lon="6.3501">
        <ele>1012.4</ele>
        <time>2021-08-14T13:32:07Z</time>
      </trkpt>
      <trkpt lat="46.76668" lon="6.35005">
        <ele>1012.5</ele>
        <time>2021-08-14T13:32:08Z</time>
      </trkpt>
      <trkpt lat="46.76667" lon="6.34997">
        <ele>1012.6</ele>
        <time>2021-08-14T13:32:09Z</time>
      </trkpt>
      <trkpt lat="46.76665" lon="6.34994">
        <ele>1012.7</ele>
        <time>2021-08-14T13:32:10Z</time>
      </trkpt>
      <trkpt lat="46.76663" lon="6.34989">
        <ele>1012.7</ele>
        <time>2021-08-14T13:32:12Z</time>
      </trkpt>
      <trkpt lat="46.7666" lon="6.34982">
        <ele>1012.8</ele>
        <time>2021-08-14T13:32:13Z</time>
      </trkpt>
      <trkpt lat="46.76658" lon="6.34977">
        <ele>1012.9</ele>
        <time>2021-08-14T13:32:15Z</time>
      </trkpt>
      <trkpt lat="46.76656" lon="6.3497">
        <ele>1013</ele>
        <time>2021-08-14T13:32:16Z</time>
      </trkpt>
      <trkpt lat="46.76655" lon="6.34965">
        <ele>1013.1</ele>
        <time>2021-08-14T13:32:18Z</time>
      </trkpt>
      <trkpt lat="46.76653" lon="6.34959">
        <ele>1013.1</ele>
        <time>2021-08-14T13:32:20Z</time>
      </trkpt>
      <trkpt lat="46.76651" lon="6.34954">
        <ele>1013.2</ele>
        <time>2021-08-14T13:32:21Z</time>
      </trkpt>
      <trkpt lat="46.76648" lon="6.34946">
        <ele>1013.2</ele>
        <time>2021-08-14T13:32:23Z</time>
      </trkpt>
      <trkpt lat="46.76646" lon="6.34943">
        <ele>1013.3</ele>
        <time>2021-08-14T13:32:24Z</time>
      </trkpt>
      <trkpt lat="46.76643" lon="6.34938">
        <ele>1013.3</ele>
        <time>2021-08-14T13:32:25Z</time>
      </trkpt>
      <trkpt lat="46.7664" lon="6.3493">
        <ele>1013.4</ele>
        <time>2021-08-14T13:32:27Z</time>
      </trkpt>
      <trkpt lat="46.76639" lon="6.34926">
        <ele>1013.4</ele>
        <time>2021-08-14T13:32:28Z</time>
      </trkpt>
      <trkpt lat="46.76637" lon="6.34921">
        <ele>1013.5</ele>
        <time>2021-08-14T13:32:29Z</time>
      </trkpt>
      <trkpt lat="46.76636" lon="6.34916">
        <ele>1013.5</ele>
        <time>2021-08-14T13:32:30Z</time>
      </trkpt>
      <trkpt lat="46.76633" lon="6.34911">
        <ele>1013.6</ele>
        <time>2021-08-14T13:32:31Z</time>
      </trkpt>
      <trkpt lat="46.7663" lon="6.34906">
        <ele>1013.7</ele>
        <time>2021-08-14T13:32:32Z</time>
      </trkpt>
      <trkpt lat="46.76627" lon="6.34901">
        <ele>1013.7</ele>
        <time>2021-08-14T13:32:33Z</time>
      </trkpt>
      <trkpt lat="46.76624" lon="6.34897">
        <ele>1013.8</ele>
        <time>2021-08-14T13:32:34Z</time>
      </trkpt>
      <trkpt lat="46.76621" lon="6.34894">
        <ele>1013.8</ele>
        <time>2021-08-14T13:32:36Z</time>
      </trkpt>
      <trkpt lat="46.76618" lon="6.34887">
        <ele>1013.9</ele>
        <time>2021-08-14T13:32:38Z</time>
      </trkpt>
      <trkpt lat="46.76614" lon="6.34882">
        <ele>1014</ele>
        <time>2021-08-14T13:32:39Z</time>
      </trkpt>
      <trkpt lat="46.76612" lon="6.34878">
        <ele>1014</ele>
        <time>2021-08-14T13:32:40Z</time>
      </trkpt>
      <trkpt lat="46.7661" lon="6.34874">
        <ele>1014</ele>
        <time>2021-08-14T13:32:41Z</time>
      </trkpt>
      <trkpt lat="46.76608" lon="6.34869">
        <ele>1014.1</ele>
        <time>2021-08-14T13:32:42Z</time>
      </trkpt>
      <trkpt lat="46.76606" lon="6.34864">
        <ele>1014.1</ele>
        <time>2021-08-14T13:32:44Z</time>
      </trkpt>
      <trkpt lat="46.76603" lon="6.34859">
        <ele>1014.1</ele>
        <time>2021-08-14T13:32:45Z</time>
      </trkpt>
      <trkpt lat="46.76601" lon="6.34855">
        <ele>1014.2</ele>
        <time>2021-08-14T13:32:47Z</time>
      </trkpt>
      <trkpt lat="46.76599" lon="6.34852">
        <ele>1014.2</ele>
        <time>2021-08-14T13:32:48Z</time>
      </trkpt>
      <trkpt lat="46.76595" lon="6.34845">
        <ele>1014.2</ele>
        <time>2021-08-14T13:32:49Z</time>
      </trkpt>
      <trkpt lat="46.76594" lon="6.3484">
        <ele>1014.2</ele>
        <time>2021-08-14T13:32:50Z</time>
      </trkpt>
      <trkpt lat="46.76592" lon="6.34836">
        <ele>1014.3</ele>
        <time>2021-08-14T13:32:51Z</time>
      </trkpt>
      <trkpt lat="46.76591" lon="6.34831">
        <ele>1014.3</ele>
        <time>2021-08-14T13:32:52Z</time>
      </trkpt>
      <trkpt lat="46.76588" lon="6.34827">
        <ele>1014.3</ele>
        <time>2021-08-14T13:32:54Z</time>
      </trkpt>
      <trkpt lat="46.76584" lon="6.34817">
        <ele>1014.4</ele>
        <time>2021-08-14T13:32:56Z</time>
      </trkpt>
      <trkpt lat="46.76579" lon="6.34808">
        <ele>1014.5</ele>
        <time>2021-08-14T13:32:58Z</time>
      </trkpt>
      <trkpt lat="46.76575" lon="6.348">
        <ele>1014.5</ele>
        <time>2021-08-14T13:33:00Z</time>
      </trkpt>
      <trkpt lat="46.76574" lon="6.34793">
        <ele>1014.6</ele>
        <time>2021-08-14T13:33:01Z</time>
      </trkpt>
      <trkpt lat="46.76573" lon="6.34788">
        <ele>1014.6</ele>
        <time>2021-08-14T13:33:02Z</time>
      </trkpt>
      <trkpt lat="46.76571" lon="6.34782">
        <ele>1014.7</ele>
        <time>2021-08-14T13:33:04Z</time>
      </trkpt>
      <trkpt lat="46.76569" lon="6.34778">
        <ele>1014.7</ele>
        <time>2021-08-14T13:33:05Z</time>
      </trkpt>
      <trkpt lat="46.76567" lon="6.34775">
        <ele>1014.7</ele>
        <time>2021-08-14T13:33:06Z</time>
      </trkpt>
      <trkpt lat="46.76562" lon="6.3477">
        <ele>1014.8</ele>
        <time>2021-08-14T13:33:07Z</time>
      </trkpt>
      <trkpt lat="46.76559" lon="6.34764">
        <ele>1014.8</ele>
        <time>2021-08-14T13:33:09Z</time>
      </trkpt>
      <trkpt lat="46.76557" lon="6.3476">
        <ele>1014.8</ele>
        <time>2021-08-14T13:33:10Z</time>
      </trkpt>
      <trkpt lat="46.76555" lon="6.34755">
        <ele>1014.8</ele>
        <time>2021-08-14T13:33:11Z</time>
      </trkpt>
      <trkpt lat="46.76553" lon="6.34751">
        <ele>1014.8</ele>
        <time>2021-08-14T13:33:12Z</time>
      </trkpt>
      <trkpt lat="46.76549" lon="6.34745">
        <ele>1014.8</ele>
        <time>2021-08-14T13:33:13Z</time>
      </trkpt>
      <trkpt lat="46.76545" lon="6.34736">
        <ele>1014.8</ele>
        <time>2021-08-14T13:33:15Z</time>
      </trkpt>
      <trkpt lat="46.76543" lon="6.34731">
        <ele>1014.7</ele>
        <time>2021-08-14T13:33:16Z</time>
      </trkpt>
      <trkpt lat="46.76539" lon="6.34728">
        <ele>1014.7</ele>
        <time>2021-08-14T13:33:17Z</time>
      </trkpt>
      <trkpt lat="46.76536" lon="6.34715">
        <ele>1014.6</ele>
        <time>2021-08-14T13:33:19Z</time>
      </trkpt>
      <trkpt lat="46.76535" lon="6.34708">
        <ele>1014.5</ele>
        <time>2021-08-14T13:33:20Z</time>
      </trkpt>
      <trkpt lat="46.76534" lon="6.347">
        <ele>1014.5</ele>
        <time>2021-08-14T13:33:21Z</time>
      </trkpt>
      <trkpt lat="46.7653" lon="6.34685">
        <ele>1014.4</ele>
        <time>2021-08-14T13:33:23Z</time>
      </trkpt>
      <trkpt lat="46.76528" lon="6.34678">
        <ele>1014.3</ele>
        <time>2021-08-14T13:33:24Z</time>
      </trkpt>
      <trkpt lat="46.76524" lon="6.34665">
        <ele>1014.3</ele>
        <time>2021-08-14T13:33:26Z</time>
      </trkpt>
      <trkpt lat="46.76522" lon="6.34659">
        <ele>1014.3</ele>
        <time>2021-08-14T13:33:27Z</time>
      </trkpt>
      <trkpt lat="46.7652" lon="6.34654">
        <ele>1014.3</ele>
        <time>2021-08-14T13:33:28Z</time>
      </trkpt>
      <trkpt lat="46.76517" lon="6.34648">
        <ele>1014.3</ele>
        <time>2021-08-14T13:33:29Z</time>
      </trkpt>
      <trkpt lat="46.76514" lon="6.34639">
        <ele>1014.3</ele>
        <time>2021-08-14T13:33:31Z</time>
      </trkpt>
      <trkpt lat="46.7651" lon="6.34627">
        <ele>1014.3</ele>
        <time>2021-08-14T13:33:33Z</time>
      </trkpt>
      <trkpt lat="46.76507" lon="6.34625">
        <ele>1014.3</ele>
        <time>2021-08-14T13:33:34Z</time>
      </trkpt>
      <trkpt lat="46.76504" lon="6.34621">
        <ele>1014.3</ele>
        <time>2021-08-14T13:33:35Z</time>
      </trkpt>
      <trkpt lat="46.76502" lon="6.34615">
        <ele>1014.3</ele>
        <time>2021-08-14T13:33:36Z</time>
      </trkpt>
      <trkpt lat="46.76497" lon="6.34603">
        <ele>1014.3</ele>
        <time>2021-08-14T13:33:38Z</time>
      </trkpt>
      <trkpt lat="46.76494" lon="6.34597">
        <ele>1014.3</ele>
        <time>2021-08-14T13:33:39Z</time>
      </trkpt>
      <trkpt lat="46.76488" lon="6.34587">
        <ele>1014.3</ele>
        <time>2021-08-14T13:33:41Z</time>
      </trkpt>
      <trkpt lat="46.76484" lon="6.34581">
        <ele>1014.3</ele>
        <time>2021-08-14T13:33:42Z</time>
      </trkpt>
      <trkpt lat="46.76479" lon="6.34575">
        <ele>1014.1</ele>
        <time>2021-08-14T13:33:43Z</time>
      </trkpt>
      <trkpt lat="46.76474" lon="6.34573">
        <ele>1014</ele>
        <time>2021-08-14T13:33:46Z</time>
      </trkpt>
      <trkpt lat="46.76472" lon="6.34566">
        <ele>1013.9</ele>
        <time>2021-08-14T13:33:47Z</time>
      </trkpt>
      <trkpt lat="46.76472" lon="6.34559">
        <ele>1013.7</ele>
        <time>2021-08-14T13:33:48Z</time>
      </trkpt>
      <trkpt lat="46.76473" lon="6.34556">
        <ele>1013.7</ele>
        <time>2021-08-14T13:33:49Z</time>
      </trkpt>
      <trkpt lat="46.76473" lon="6.34549">
        <ele>1013.5</ele>
        <time>2021-08-14T13:33:51Z</time>
      </trkpt>
      <trkpt lat="46.76478" lon="6.34534">
        <ele>1013.2</ele>
        <time>2021-08-14T13:33:52Z</time>
      </trkpt>
      <trkpt lat="46.7648" lon="6.34525">
        <ele>1012.9</ele>
        <time>2021-08-14T13:33:53Z</time>
      </trkpt>
      <trkpt lat="46.76481" lon="6.34517">
        <ele>1012.8</ele>
        <time>2021-08-14T13:33:54Z</time>
      </trkpt>
      <trkpt lat="46.76481" lon="6.3451">
        <ele>1012.6</ele>
        <time>2021-08-14T13:33:55Z</time>
      </trkpt>
      <trkpt lat="46.76481" lon="6.34503">
        <ele>1012.5</ele>
        <time>2021-08-14T13:33:56Z</time>
      </trkpt>
      <trkpt lat="46.7648" lon="6.34486">
        <ele>1012.2</ele>
        <time>2021-08-14T13:33:58Z</time>
      </trkpt>
      <trkpt lat="46.76479" lon="6.34467">
        <ele>1011.8</ele>
        <time>2021-08-14T13:34:00Z</time>
      </trkpt>
      <trkpt lat="46.7648" lon="6.34459">
        <ele>1011.7</ele>
        <time>2021-08-14T13:34:01Z</time>
      </trkpt>
      <trkpt lat="46.7648" lon="6.3445">
        <ele>1011.5</ele>
        <time>2021-08-14T13:34:02Z</time>
      </trkpt>
      <trkpt lat="46.76479" lon="6.34429">
        <ele>1011.3</ele>
        <time>2021-08-14T13:34:04Z</time>
      </trkpt>
      <trkpt lat="46.76478" lon="6.34418">
        <ele>1011.1</ele>
        <time>2021-08-14T13:34:05Z</time>
      </trkpt>
      <trkpt lat="46.76475" lon="6.34396">
        <ele>1010.9</ele>
        <time>2021-08-14T13:34:07Z</time>
      </trkpt>
      <trkpt lat="46.76474" lon="6.34384">
        <ele>1010.9</ele>
        <time>2021-08-14T13:34:08Z</time>
      </trkpt>
      <trkpt lat="46.76473" lon="6.34371">
        <ele>1011</ele>
        <time>2021-08-14T13:34:09Z</time>
      </trkpt>
      <trkpt lat="46.76469" lon="6.34348">
        <ele>1011.3</ele>
        <time>2021-08-14T13:34:11Z</time>
      </trkpt>
      <trkpt lat="46.76467" lon="6.34338">
        <ele>1011.5</ele>
        <time>2021-08-14T13:34:12Z</time>
      </trkpt>
      <trkpt lat="46.76461" lon="6.34321">
        <ele>1011.9</ele>
        <time>2021-08-14T13:34:14Z</time>
      </trkpt>
      <trkpt lat="46.76459" lon="6.34306">
        <ele>1012</ele>
        <time>2021-08-14T13:34:16Z</time>
      </trkpt>
      <trkpt lat="46.76457" lon="6.343">
        <ele>1012</ele>
        <time>2021-08-14T13:34:17Z</time>
      </trkpt>
      <trkpt lat="46.76456" lon="6.34293">
        <ele>1012</ele>
        <time>2021-08-14T13:34:18Z</time>
      </trkpt>
      <trkpt lat="46.76455" lon="6.34287">
        <ele>1012</ele>
        <time>2021-08-14T13:34:19Z</time>
      </trkpt>
      <trkpt lat="46.76454" lon="6.34281">
        <ele>1012</ele>
        <time>2021-08-14T13:34:20Z</time>
      </trkpt>
      <trkpt lat="46.76451" lon="6.34267">
        <ele>1011.9</ele>
        <time>2021-08-14T13:34:22Z</time>
      </trkpt>
      <trkpt lat="46.7645" lon="6.34261">
        <ele>1011.9</ele>
        <time>2021-08-14T13:34:23Z</time>
      </trkpt>
      <trkpt lat="46.76449" lon="6.3425">
        <ele>1011.8</ele>
        <time>2021-08-14T13:34:25Z</time>
      </trkpt>
      <trkpt lat="46.76449" lon="6.34245">
        <ele>1011.8</ele>
        <time>2021-08-14T13:34:26Z</time>
      </trkpt>
      <trkpt lat="46.76449" lon="6.3423">
        <ele>1011.6</ele>
        <time>2021-08-14T13:34:28Z</time>
      </trkpt>
      <trkpt lat="46.76447" lon="6.34223">
        <ele>1011.6</ele>
        <time>2021-08-14T13:34:29Z</time>
      </trkpt>
      <trkpt lat="46.76445" lon="6.34216">
        <ele>1011.5</ele>
        <time>2021-08-14T13:34:30Z</time>
      </trkpt>
      <trkpt lat="46.76442" lon="6.34201">
        <ele>1011.4</ele>
        <time>2021-08-14T13:34:32Z</time>
      </trkpt>
      <trkpt lat="46.76438" lon="6.34188">
        <ele>1011.3</ele>
        <time>2021-08-14T13:34:34Z</time>
      </trkpt>
      <trkpt lat="46.76434" lon="6.34174">
        <ele>1011.3</ele>
        <time>2021-08-14T13:34:36Z</time>
      </trkpt>
      <trkpt lat="46.7643" lon="6.3416">
        <ele>1011.2</ele>
        <time>2021-08-14T13:34:38Z</time>
      </trkpt>
      <trkpt lat="46.76427" lon="6.34145">
        <ele>1011.1</ele>
        <time>2021-08-14T13:34:40Z</time>
      </trkpt>
      <trkpt lat="46.76425" lon="6.34138">
        <ele>1011</ele>
        <time>2021-08-14T13:34:41Z</time>
      </trkpt>
      <trkpt lat="46.76423" lon="6.34131">
        <ele>1011</ele>
        <time>2021-08-14T13:34:42Z</time>
      </trkpt>
      <trkpt lat="46.7642" lon="6.34117">
        <ele>1010.8</ele>
        <time>2021-08-14T13:34:44Z</time>
      </trkpt>
      <trkpt lat="46.76415" lon="6.34101">
        <ele>1010.6</ele>
        <time>2021-08-14T13:34:46Z</time>
      </trkpt>
      <trkpt lat="46.76413" lon="6.34094">
        <ele>1010.4</ele>
        <time>2021-08-14T13:34:47Z</time>
      </trkpt>
      <trkpt lat="46.76407" lon="6.34079">
        <ele>1010.2</ele>
        <time>2021-08-14T13:34:49Z</time>
      </trkpt>
      <trkpt lat="46.76404" lon="6.34071">
        <ele>1010.1</ele>
        <time>2021-08-14T13:34:50Z</time>
      </trkpt>
      <trkpt lat="46.76401" lon="6.34064">
        <ele>1010</ele>
        <time>2021-08-14T13:34:51Z</time>
      </trkpt>
      <trkpt lat="46.76395" lon="6.34047">
        <ele>1009.9</ele>
        <time>2021-08-14T13:34:53Z</time>
      </trkpt>
      <trkpt lat="46.76388" lon="6.34033">
        <ele>1009.9</ele>
        <time>2021-08-14T13:34:55Z</time>
      </trkpt>
      <trkpt lat="46.76384" lon="6.34026">
        <ele>1009.9</ele>
        <time>2021-08-14T13:34:56Z</time>
      </trkpt>
      <trkpt lat="46.76377" lon="6.34011">
        <ele>1010</ele>
        <time>2021-08-14T13:34:58Z</time>
      </trkpt>
      <trkpt lat="46.76371" lon="6.33997">
        <ele>1010.1</ele>
        <time>2021-08-14T13:35:00Z</time>
      </trkpt>
      <trkpt lat="46.76368" lon="6.33991">
        <ele>1010</ele>
        <time>2021-08-14T13:35:01Z</time>
      </trkpt>
      <trkpt lat="46.76366" lon="6.33986">
        <ele>1009.9</ele>
        <time>2021-08-14T13:35:02Z</time>
      </trkpt>
      <trkpt lat="46.76364" lon="6.33978">
        <ele>1009.7</ele>
        <time>2021-08-14T13:35:04Z</time>
      </trkpt>
      <trkpt lat="46.76363" lon="6.33977">
        <ele>1009.6</ele>
        <time>2021-08-14T13:35:05Z</time>
      </trkpt>
      <trkpt lat="46.76362" lon="6.33974">
        <ele>1009.6</ele>
        <time>2021-08-14T13:35:06Z</time>
      </trkpt>
      <trkpt lat="46.7636" lon="6.3397">
        <ele>1009.4</ele>
        <time>2021-08-14T13:35:08Z</time>
      </trkpt>
      <trkpt lat="46.76359" lon="6.33969">
        <ele>1009.4</ele>
        <time>2021-08-14T13:35:09Z</time>
      </trkpt>
      <trkpt lat="46.76358" lon="6.33963">
        <ele>1009.1</ele>
        <time>2021-08-14T13:35:11Z</time>
      </trkpt>
      <trkpt lat="46.76355" lon="6.33958">
        <ele>1008.9</ele>
        <time>2021-08-14T13:35:12Z</time>
      </trkpt>
      <trkpt lat="46.76351" lon="6.33952">
        <ele>1008.5</ele>
        <time>2021-08-14T13:35:13Z</time>
      </trkpt>
      <trkpt lat="46.76347" lon="6.33949">
        <ele>1008.2</ele>
        <time>2021-08-14T13:35:14Z</time>
      </trkpt>
      <trkpt lat="46.76342" lon="6.33946">
        <ele>1008.4</ele>
        <time>2021-08-14T13:35:15Z</time>
      </trkpt>
      <trkpt lat="46.76338" lon="6.33945">
        <ele>1008.7</ele>
        <time>2021-08-14T13:35:17Z</time>
      </trkpt>
      <trkpt lat="46.76334" lon="6.33944">
        <ele>1008.8</ele>
        <time>2021-08-14T13:35:18Z</time>
      </trkpt>
      <trkpt lat="46.76331" lon="6.33944">
        <ele>1008.8</ele>
        <time>2021-08-14T13:35:19Z</time>
      </trkpt>
      <trkpt lat="46.76325" lon="6.33944">
        <ele>1008.8</ele>
        <time>2021-08-14T13:35:21Z</time>
      </trkpt>
      <trkpt lat="46.76323" lon="6.33945">
        <ele>1008.8</ele>
        <time>2021-08-14T13:35:22Z</time>
      </trkpt>
      <trkpt lat="46.76322" lon="6.33945">
        <ele>1008.8</ele>
        <time>2021-08-14T13:35:23Z</time>
      </trkpt>
      <trkpt lat="46.76322" lon="6.33948">
        <ele>1008.8</ele>
        <time>2021-08-14T13:35:24Z</time>
      </trkpt>
      <trkpt lat="46.76321" lon="6.3395">
        <ele>1008.8</ele>
        <time>2021-08-14T13:35:25Z</time>
      </trkpt>
      <trkpt lat="46.76319" lon="6.33952">
        <ele>1008.7</ele>
        <time>2021-08-14T13:35:27Z</time>
      </trkpt>
      <trkpt lat="46.76315" lon="6.33957">
        <ele>1008.7</ele>
        <time>2021-08-14T13:35:29Z</time>
      </trkpt>
      <trkpt lat="46.76314" lon="6.33959">
        <ele>1008.6</ele>
        <time>2021-08-14T13:35:30Z</time>
      </trkpt>
      <trkpt lat="46.7631" lon="6.33963">
        <ele>1008.7</ele>
        <time>2021-08-14T13:35:32Z</time>
      </trkpt>
      <trkpt lat="46.76309" lon="6.33964">
        <ele>1008.7</ele>
        <time>2021-08-14T13:35:33Z</time>
      </trkpt>
      <trkpt lat="46.76308" lon="6.33965">
        <ele>1008.7</ele>
        <time>2021-08-14T13:35:35Z</time>
      </trkpt>
      <trkpt lat="46.76308" lon="6.33965">
        <ele>1008.7</ele>
        <time>2021-08-14T13:35:36Z</time>
      </trkpt>
      <trkpt lat="46.76308" lon="6.33966">
        <ele>1008.7</ele>
        <time>2021-08-14T13:35:37Z</time>
      </trkpt>
      <trkpt lat="46.76308" lon="6.33966">
        <ele>1008.7</ele>
        <time>2021-08-14T13:35:38Z</time>
      </trkpt>
      <trkpt lat="46.76308" lon="6.33966">
        <ele>1008.7</ele>
        <time>2021-08-14T13:35:40Z</time>
      </trkpt>
      <trkpt lat="46.76308" lon="6.33966">
        <ele>1008.7</ele>
        <time>2021-08-14T13:35:41Z</time>
      </trkpt>
      <trkpt lat="46.76308" lon="6.33966">
        <ele>1008.7</ele>
        <time>2021-08-14T13:35:42Z</time>
      </trkpt>
      <trkpt lat="46.76308" lon="6.33965">
        <ele>1008.7</ele>
        <time>2021-08-14T13:35:44Z</time>
      </trkpt>
      <trkpt lat="46.76318" lon="6.33958">
        <ele>1008.8</ele>
        <time>2021-08-14T13:35:52Z</time>
      </trkpt>
      <trkpt lat="46.76322" lon="6.33958">
        <ele>1008.8</ele>
        <time>2021-08-14T13:35:53Z</time>
      </trkpt>
      <trkpt lat="46.76333" lon="6.33957">
        <ele>1008.8</ele>
        <time>2021-08-14T13:35:55Z</time>
      </trkpt>
      <trkpt lat="46.76339" lon="6.33957">
        <ele>1008.8</ele>
        <time>2021-08-14T13:35:56Z</time>
      </trkpt>
      <trkpt lat="46.76348" lon="6.33954">
        <ele>1008.1</ele>
        <time>2021-08-14T13:35:58Z</time>
      </trkpt>
      <trkpt lat="46.7635" lon="6.33949">
        <ele>1007.7</ele>
        <time>2021-08-14T13:35:59Z</time>
      </trkpt>
      <trkpt lat="46.7635" lon="6.33947">
        <ele>1007.6</ele>
        <time>2021-08-14T13:36:00Z</time>
      </trkpt>
      <trkpt lat="46.76351" lon="6.33943">
        <ele>1007.4</ele>
        <time>2021-08-14T13:36:01Z</time>
      </trkpt>
      <trkpt lat="46.76349" lon="6.33935">
        <ele>1006.9</ele>
        <time>2021-08-14T13:36:02Z</time>
      </trkpt>
      <trkpt lat="46.76347" lon="6.33931">
        <ele>1006.6</ele>
        <time>2021-08-14T13:36:04Z</time>
      </trkpt>
      <trkpt lat="46.76345" lon="6.33927">
        <ele>1006.3</ele>
        <time>2021-08-14T13:36:05Z</time>
      </trkpt>
      <trkpt lat="46.76344" lon="6.33922">
        <ele>1006.1</ele>
        <time>2021-08-14T13:36:07Z</time>
      </trkpt>
      <trkpt lat="46.76342" lon="6.33918">
        <ele>1005.7</ele>
        <time>2021-08-14T13:36:08Z</time>
      </trkpt>
      <trkpt lat="46.7634" lon="6.33914">
        <ele>1005.4</ele>
        <time>2021-08-14T13:36:10Z</time>
      </trkpt>
      <trkpt lat="46.76338" lon="6.3391">
        <ele>1005.1</ele>
        <time>2021-08-14T13:36:11Z</time>
      </trkpt>
      <trkpt lat="46.76337" lon="6.33905">
        <ele>1004.8</ele>
        <time>2021-08-14T13:36:44Z</time>
      </trkpt>
      <trkpt lat="46.76335" lon="6.33901">
        <ele>1004.4</ele>
        <time>2021-08-14T13:36:46Z</time>
      </trkpt>
      <trkpt lat="46.7633" lon="6.33891">
        <ele>1003.5</ele>
        <time>2021-08-14T13:36:47Z</time>
      </trkpt>
      <trkpt lat="46.76326" lon="6.33881">
        <ele>1002.6</ele>
        <time>2021-08-14T13:36:48Z</time>
      </trkpt>
      <trkpt lat="46.76319" lon="6.33859">
        <ele>1000.9</ele>
        <time>2021-08-14T13:36:50Z</time>
      </trkpt>
      <trkpt lat="46.76315" lon="6.33847">
        <ele>1000</ele>
        <time>2021-08-14T13:36:51Z</time>
      </trkpt>
      <trkpt lat="46.76311" lon="6.33835">
        <ele>999.3</ele>
        <time>2021-08-14T13:36:52Z</time>
      </trkpt>
      <trkpt lat="46.76307" lon="6.33822">
        <ele>998.5</ele>
        <time>2021-08-14T13:36:53Z</time>
      </trkpt>
      <trkpt lat="46.76303" lon="6.33809">
        <ele>997.8</ele>
        <time>2021-08-14T13:36:54Z</time>
      </trkpt>
      <trkpt lat="46.76295" lon="6.33783">
        <ele>996.4</ele>
        <time>2021-08-14T13:36:56Z</time>
      </trkpt>
      <trkpt lat="46.76287" lon="6.33761">
        <ele>995</ele>
        <time>2021-08-14T13:36:58Z</time>
      </trkpt>
      <trkpt lat="46.76284" lon="6.33752">
        <ele>994.3</ele>
        <time>2021-08-14T13:36:59Z</time>
      </trkpt>
      <trkpt lat="46.7628" lon="6.33743">
        <ele>993.6</ele>
        <time>2021-08-14T13:37:00Z</time>
      </trkpt>
      <trkpt lat="46.76273" lon="6.33722">
        <ele>991.5</ele>
        <time>2021-08-14T13:37:02Z</time>
      </trkpt>
      <trkpt lat="46.76264" lon="6.33701">
        <ele>989.3</ele>
        <time>2021-08-14T13:37:04Z</time>
      </trkpt>
      <trkpt lat="46.76259" lon="6.33689">
        <ele>988.1</ele>
        <time>2021-08-14T13:37:05Z</time>
      </trkpt>
      <trkpt lat="46.76255" lon="6.33675">
        <ele>986.8</ele>
        <time>2021-08-14T13:37:06Z</time>
      </trkpt>
      <trkpt lat="46.76248" lon="6.33645">
        <ele>985</ele>
        <time>2021-08-14T13:37:08Z</time>
      </trkpt>
      <trkpt lat="46.76244" lon="6.33621">
        <ele>984.2</ele>
        <time>2021-08-14T13:37:10Z</time>
      </trkpt>
      <trkpt lat="46.76241" lon="6.33602">
        <ele>983.7</ele>
        <time>2021-08-14T13:37:12Z</time>
      </trkpt>
      <trkpt lat="46.76238" lon="6.33585">
        <ele>983.4</ele>
        <time>2021-08-14T13:37:14Z</time>
      </trkpt>
      <trkpt lat="46.76232" lon="6.33574">
        <ele>983</ele>
        <time>2021-08-14T13:37:16Z</time>
      </trkpt>
      <trkpt lat="46.76229" lon="6.3357">
        <ele>982.8</ele>
        <time>2021-08-14T13:37:17Z</time>
      </trkpt>
      <trkpt lat="46.76227" lon="6.33565">
        <ele>982.5</ele>
        <time>2021-08-14T13:37:18Z</time>
      </trkpt>
      <trkpt lat="46.76222" lon="6.33552">
        <ele>982</ele>
        <time>2021-08-14T13:37:20Z</time>
      </trkpt>
      <trkpt lat="46.76218" lon="6.33538">
        <ele>981.6</ele>
        <time>2021-08-14T13:37:22Z</time>
      </trkpt>
      <trkpt lat="46.76212" lon="6.33523">
        <ele>981.1</ele>
        <time>2021-08-14T13:37:24Z</time>
      </trkpt>
      <trkpt lat="46.7621" lon="6.33516">
        <ele>980.9</ele>
        <time>2021-08-14T13:37:25Z</time>
      </trkpt>
      <trkpt lat="46.76207" lon="6.33508">
        <ele>980.6</ele>
        <time>2021-08-14T13:37:26Z</time>
      </trkpt>
      <trkpt lat="46.76201" lon="6.33494">
        <ele>980.2</ele>
        <time>2021-08-14T13:37:28Z</time>
      </trkpt>
      <trkpt lat="46.76199" lon="6.33487">
        <ele>980</ele>
        <time>2021-08-14T13:37:29Z</time>
      </trkpt>
      <trkpt lat="46.76196" lon="6.33481">
        <ele>979.7</ele>
        <time>2021-08-14T13:37:30Z</time>
      </trkpt>
      <trkpt lat="46.76191" lon="6.33471">
        <ele>979.3</ele>
        <time>2021-08-14T13:37:32Z</time>
      </trkpt>
      <trkpt lat="46.76189" lon="6.33466">
        <ele>979.1</ele>
        <time>2021-08-14T13:37:33Z</time>
      </trkpt>
      <trkpt lat="46.76186" lon="6.33463">
        <ele>978.9</ele>
        <time>2021-08-14T13:37:34Z</time>
      </trkpt>
      <trkpt lat="46.76185" lon="6.33459">
        <ele>978.7</ele>
        <time>2021-08-14T13:37:35Z</time>
      </trkpt>
      <trkpt lat="46.76182" lon="6.33453">
        <ele>978.3</ele>
        <time>2021-08-14T13:37:37Z</time>
      </trkpt>
      <trkpt lat="46.76177" lon="6.33446">
        <ele>977.7</ele>
        <time>2021-08-14T13:37:38Z</time>
      </trkpt>
      <trkpt lat="46.76172" lon="6.3344">
        <ele>977.1</ele>
        <time>2021-08-14T13:37:40Z</time>
      </trkpt>
      <trkpt lat="46.76167" lon="6.33434">
        <ele>976.5</ele>
        <time>2021-08-14T13:37:41Z</time>
      </trkpt>
      <trkpt lat="46.76163" lon="6.33427">
        <ele>975.9</ele>
        <time>2021-08-14T13:37:43Z</time>
      </trkpt>
      <trkpt lat="46.76158" lon="6.33421">
        <ele>975.4</ele>
        <time>2021-08-14T13:37:45Z</time>
      </trkpt>
      <trkpt lat="46.76154" lon="6.33415">
        <ele>975</ele>
        <time>2021-08-14T13:37:47Z</time>
      </trkpt>
      <trkpt lat="46.76149" lon="6.33409">
        <ele>974.6</ele>
        <time>2021-08-14T13:37:48Z</time>
      </trkpt>
      <trkpt lat="46.76145" lon="6.33403">
        <ele>974.2</ele>
        <time>2021-08-14T13:38:50Z</time>
      </trkpt>
      <trkpt lat="46.7614" lon="6.33397">
        <ele>973.9</ele>
        <time>2021-08-14T13:38:52Z</time>
      </trkpt>
      <trkpt lat="46.76135" lon="6.33387">
        <ele>973.5</ele>
        <time>2021-08-14T13:38:53Z</time>
      </trkpt>
      <trkpt lat="46.76127" lon="6.33366">
        <ele>972</ele>
        <time>2021-08-14T13:38:55Z</time>
      </trkpt>
      <trkpt lat="46.76122" lon="6.33355">
        <ele>971.4</ele>
        <time>2021-08-14T13:38:56Z</time>
      </trkpt>
      <trkpt lat="46.76114" lon="6.33332">
        <ele>970.4</ele>
        <time>2021-08-14T13:38:58Z</time>
      </trkpt>
      <trkpt lat="46.76106" lon="6.33311">
        <ele>970</ele>
        <time>2021-08-14T13:39:00Z</time>
      </trkpt>
      <trkpt lat="46.76098" lon="6.33292">
        <ele>970.3</ele>
        <time>2021-08-14T13:39:02Z</time>
      </trkpt>
      <trkpt lat="46.76095" lon="6.33282">
        <ele>970.7</ele>
        <time>2021-08-14T13:39:03Z</time>
      </trkpt>
      <trkpt lat="46.76091" lon="6.33274">
        <ele>971</ele>
        <time>2021-08-14T13:39:04Z</time>
      </trkpt>
      <trkpt lat="46.76082" lon="6.33259">
        <ele>971.6</ele>
        <time>2021-08-14T13:39:06Z</time>
      </trkpt>
      <trkpt lat="46.76077" lon="6.33254">
        <ele>971.8</ele>
        <time>2021-08-14T13:39:07Z</time>
      </trkpt>
      <trkpt lat="46.76072" lon="6.3325">
        <ele>971.9</ele>
        <time>2021-08-14T13:39:08Z</time>
      </trkpt>
      <trkpt lat="46.76068" lon="6.33247">
        <ele>971.9</ele>
        <time>2021-08-14T13:39:09Z</time>
      </trkpt>
      <trkpt lat="46.76061" lon="6.33244">
        <ele>971.8</ele>
        <time>2021-08-14T13:39:11Z</time>
      </trkpt>
      <trkpt lat="46.76057" lon="6.33241">
        <ele>971.7</ele>
        <time>2021-08-14T13:39:12Z</time>
      </trkpt>
      <trkpt lat="46.76055" lon="6.33239">
        <ele>971.7</ele>
        <time>2021-08-14T13:39:13Z</time>
      </trkpt>
      <trkpt lat="46.76052" lon="6.33235">
        <ele>971.5</ele>
        <time>2021-08-14T13:39:14Z</time>
      </trkpt>
      <trkpt lat="46.76047" lon="6.33229">
        <ele>971.3</ele>
        <time>2021-08-14T13:39:16Z</time>
      </trkpt>
      <trkpt lat="46.76043" lon="6.33227">
        <ele>971.1</ele>
        <time>2021-08-14T13:39:17Z</time>
      </trkpt>
      <trkpt lat="46.7604" lon="6.33226">
        <ele>971</ele>
        <time>2021-08-14T13:39:18Z</time>
      </trkpt>
      <trkpt lat="46.76038" lon="6.33224">
        <ele>970.9</ele>
        <time>2021-08-14T13:39:20Z</time>
      </trkpt>
      <trkpt lat="46.76035" lon="6.33223">
        <ele>970.7</ele>
        <time>2021-08-14T13:39:22Z</time>
      </trkpt>
      <trkpt lat="46.76033" lon="6.33222">
        <ele>970.5</ele>
        <time>2021-08-14T13:39:24Z</time>
      </trkpt>
      <trkpt lat="46.7603" lon="6.3322">
        <ele>970.3</ele>
        <time>2021-08-14T13:39:25Z</time>
      </trkpt>
      <trkpt lat="46.76028" lon="6.33219">
        <ele>970.1</ele>
        <time>2021-08-14T13:39:26Z</time>
      </trkpt>
      <trkpt lat="46.76025" lon="6.33218">
        <ele>969.8</ele>
        <time>2021-08-14T13:39:28Z</time>
      </trkpt>
      <trkpt lat="46.76022" lon="6.33216">
        <ele>969.5</ele>
        <time>2021-08-14T13:39:42Z</time>
      </trkpt>
      <trkpt lat="46.7602" lon="6.33215">
        <ele>969.2</ele>
        <time>2021-08-14T13:39:43Z</time>
      </trkpt>
      <trkpt lat="46.76009" lon="6.33204">
        <ele>967.3</ele>
        <time>2021-08-14T13:39:45Z</time>
      </trkpt>
      <trkpt lat="46.76003" lon="6.33198">
        <ele>966.1</ele>
        <time>2021-08-14T13:39:46Z</time>
      </trkpt>
      <trkpt lat="46.75991" lon="6.33186">
        <ele>963.5</ele>
        <time>2021-08-14T13:39:48Z</time>
      </trkpt>
      <trkpt lat="46.75978" lon="6.33174">
        <ele>961.7</ele>
        <time>2021-08-14T13:39:50Z</time>
      </trkpt>
      <trkpt lat="46.75969" lon="6.33162">
        <ele>960.9</ele>
        <time>2021-08-14T13:39:52Z</time>
      </trkpt>
      <trkpt lat="46.75966" lon="6.33156">
        <ele>960.7</ele>
        <time>2021-08-14T13:39:53Z</time>
      </trkpt>
      <trkpt lat="46.75963" lon="6.33149">
        <ele>960.5</ele>
        <time>2021-08-14T13:39:54Z</time>
      </trkpt>
      <trkpt lat="46.75956" lon="6.33138">
        <ele>960.2</ele>
        <time>2021-08-14T13:39:56Z</time>
      </trkpt>
      <trkpt lat="46.75949" lon="6.33127">
        <ele>960</ele>
        <time>2021-08-14T13:39:58Z</time>
      </trkpt>
      <trkpt lat="46.75945" lon="6.33122">
        <ele>959.9</ele>
        <time>2021-08-14T13:39:59Z</time>
      </trkpt>
      <trkpt lat="46.75941" lon="6.33115">
        <ele>959.8</ele>
        <time>2021-08-14T13:40:00Z</time>
      </trkpt>
      <trkpt lat="46.75934" lon="6.33101">
        <ele>959.6</ele>
        <time>2021-08-14T13:40:02Z</time>
      </trkpt>
      <trkpt lat="46.75931" lon="6.33094">
        <ele>959.5</ele>
        <time>2021-08-14T13:40:03Z</time>
      </trkpt>
      <trkpt lat="46.75928" lon="6.33088">
        <ele>959.4</ele>
        <time>2021-08-14T13:40:04Z</time>
      </trkpt>
      <trkpt lat="46.75921" lon="6.33074">
        <ele>959.3</ele>
        <time>2021-08-14T13:40:06Z</time>
      </trkpt>
      <trkpt lat="46.75914" lon="6.33059">
        <ele>959.3</ele>
        <time>2021-08-14T13:40:08Z</time>
      </trkpt>
      <trkpt lat="46.75907" lon="6.33044">
        <ele>959.4</ele>
        <time>2021-08-14T13:40:10Z</time>
      </trkpt>
      <trkpt lat="46.75904" lon="6.33035">
        <ele>959.5</ele>
        <time>2021-08-14T13:40:11Z</time>
      </trkpt>
      <trkpt lat="46.75901" lon="6.33027">
        <ele>959.6</ele>
        <time>2021-08-14T13:40:12Z</time>
      </trkpt>
      <trkpt lat="46.75894" lon="6.33014">
        <ele>959.7</ele>
        <time>2021-08-14T13:40:14Z</time>
      </trkpt>
      <trkpt lat="46.75891" lon="6.33008">
        <ele>959.8</ele>
        <time>2021-08-14T13:40:15Z</time>
      </trkpt>
      <trkpt lat="46.75885" lon="6.32997">
        <ele>959.9</ele>
        <time>2021-08-14T13:40:17Z</time>
      </trkpt>
      <trkpt lat="46.75883" lon="6.32992">
        <ele>960</ele>
        <time>2021-08-14T13:40:18Z</time>
      </trkpt>
      <trkpt lat="46.75881" lon="6.32986">
        <ele>960</ele>
        <time>2021-08-14T13:40:19Z</time>
      </trkpt>
      <trkpt lat="46.75879" lon="6.3298">
        <ele>960</ele>
        <time>2021-08-14T13:40:20Z</time>
      </trkpt>
      <trkpt lat="46.75876" lon="6.32968">
        <ele>960</ele>
        <time>2021-08-14T13:40:22Z</time>
      </trkpt>
      <trkpt lat="46.75874" lon="6.32962">
        <ele>960</ele>
        <time>2021-08-14T13:40:23Z</time>
      </trkpt>
      <trkpt lat="46.75872" lon="6.32957">
        <ele>960</ele>
        <time>2021-08-14T13:40:24Z</time>
      </trkpt>
      <trkpt lat="46.75865" lon="6.32945">
        <ele>960</ele>
        <time>2021-08-14T13:40:26Z</time>
      </trkpt>
      <trkpt lat="46.75859" lon="6.32933">
        <ele>959.9</ele>
        <time>2021-08-14T13:40:28Z</time>
      </trkpt>
      <trkpt lat="46.75853" lon="6.32923">
        <ele>959.8</ele>
        <time>2021-08-14T13:40:30Z</time>
      </trkpt>
      <trkpt lat="46.75846" lon="6.32911">
        <ele>959.6</ele>
        <time>2021-08-14T13:40:32Z</time>
      </trkpt>
      <trkpt lat="46.75839" lon="6.32899">
        <ele>959.4</ele>
        <time>2021-08-14T13:40:34Z</time>
      </trkpt>
      <trkpt lat="46.75836" lon="6.32893">
        <ele>959.3</ele>
        <time>2021-08-14T13:40:35Z</time>
      </trkpt>
      <trkpt lat="46.75834" lon="6.32887">
        <ele>959.2</ele>
        <time>2021-08-14T13:40:36Z</time>
      </trkpt>
      <trkpt lat="46.75828" lon="6.32874">
        <ele>959</ele>
        <time>2021-08-14T13:40:38Z</time>
      </trkpt>
      <trkpt lat="46.75822" lon="6.32862">
        <ele>958.8</ele>
        <time>2021-08-14T13:40:40Z</time>
      </trkpt>
      <trkpt lat="46.75817" lon="6.3285">
        <ele>958.6</ele>
        <time>2021-08-14T13:40:42Z</time>
      </trkpt>
      <trkpt lat="46.75812" lon="6.32841">
        <ele>958.5</ele>
        <time>2021-08-14T13:40:44Z</time>
      </trkpt>
      <trkpt lat="46.75809" lon="6.32834">
        <ele>958.3</ele>
        <time>2021-08-14T13:40:45Z</time>
      </trkpt>
      <trkpt lat="46.75806" lon="6.32827">
        <ele>958.2</ele>
        <time>2021-08-14T13:40:46Z</time>
      </trkpt>
      <trkpt lat="46.758" lon="6.32812">
        <ele>957.9</ele>
        <time>2021-08-14T13:40:48Z</time>
      </trkpt>
      <trkpt lat="46.75797" lon="6.32805">
        <ele>957.8</ele>
        <time>2021-08-14T13:40:49Z</time>
      </trkpt>
      <trkpt lat="46.75793" lon="6.32799">
        <ele>957.6</ele>
        <time>2021-08-14T13:40:50Z</time>
      </trkpt>
      <trkpt lat="46.75787" lon="6.32785">
        <ele>957.3</ele>
        <time>2021-08-14T13:40:52Z</time>
      </trkpt>
      <trkpt lat="46.75781" lon="6.32771">
        <ele>957</ele>
        <time>2021-08-14T13:40:54Z</time>
      </trkpt>
      <trkpt lat="46.75775" lon="6.32758">
        <ele>956.8</ele>
        <time>2021-08-14T13:40:56Z</time>
      </trkpt>
      <trkpt lat="46.75772" lon="6.32751">
        <ele>956.7</ele>
        <time>2021-08-14T13:40:57Z</time>
      </trkpt>
      <trkpt lat="46.75769" lon="6.32744">
        <ele>956.5</ele>
        <time>2021-08-14T13:40:58Z</time>
      </trkpt>
      <trkpt lat="46.75766" lon="6.32737">
        <ele>956.4</ele>
        <time>2021-08-14T13:40:59Z</time>
      </trkpt>
      <trkpt lat="46.75764" lon="6.3273">
        <ele>956.3</ele>
        <time>2021-08-14T13:41:00Z</time>
      </trkpt>
      <trkpt lat="46.75759" lon="6.32716">
        <ele>956.1</ele>
        <time>2021-08-14T13:41:02Z</time>
      </trkpt>
      <trkpt lat="46.75752" lon="6.327">
        <ele>955.8</ele>
        <time>2021-08-14T13:41:04Z</time>
      </trkpt>
      <trkpt lat="46.75743" lon="6.32683">
        <ele>955.5</ele>
        <time>2021-08-14T13:41:06Z</time>
      </trkpt>
      <trkpt lat="46.75735" lon="6.3267">
        <ele>955.3</ele>
        <time>2021-08-14T13:41:08Z</time>
      </trkpt>
      <trkpt lat="46.75729" lon="6.32658">
        <ele>955.1</ele>
        <time>2021-08-14T13:41:10Z</time>
      </trkpt>
      <trkpt lat="46.75726" lon="6.32651">
        <ele>955</ele>
        <time>2021-08-14T13:41:11Z</time>
      </trkpt>
      <trkpt lat="46.75719" lon="6.32639">
        <ele>954.7</ele>
        <time>2021-08-14T13:41:13Z</time>
      </trkpt>
      <trkpt lat="46.75715" lon="6.32632">
        <ele>954.6</ele>
        <time>2021-08-14T13:41:14Z</time>
      </trkpt>
      <trkpt lat="46.75707" lon="6.3262">
        <ele>954.4</ele>
        <time>2021-08-14T13:41:16Z</time>
      </trkpt>
      <trkpt lat="46.757" lon="6.32609">
        <ele>954.2</ele>
        <time>2021-08-14T13:41:18Z</time>
      </trkpt>
      <trkpt lat="46.75694" lon="6.32597">
        <ele>954.1</ele>
        <time>2021-08-14T13:41:20Z</time>
      </trkpt>
      <trkpt lat="46.7569" lon="6.32582">
        <ele>953.8</ele>
        <time>2021-08-14T13:41:22Z</time>
      </trkpt>
      <trkpt lat="46.75687" lon="6.32574">
        <ele>953.7</ele>
        <time>2021-08-14T13:41:23Z</time>
      </trkpt>
      <trkpt lat="46.75684" lon="6.32567">
        <ele>953.5</ele>
        <time>2021-08-14T13:41:24Z</time>
      </trkpt>
      <trkpt lat="46.75678" lon="6.32554">
        <ele>953.2</ele>
        <time>2021-08-14T13:41:26Z</time>
      </trkpt>
      <trkpt lat="46.75673" lon="6.32539">
        <ele>952.8</ele>
        <time>2021-08-14T13:41:28Z</time>
      </trkpt>
      <trkpt lat="46.7567" lon="6.32532">
        <ele>952.7</ele>
        <time>2021-08-14T13:41:29Z</time>
      </trkpt>
      <trkpt lat="46.75666" lon="6.32525">
        <ele>952.5</ele>
        <time>2021-08-14T13:41:30Z</time>
      </trkpt>
      <trkpt lat="46.75658" lon="6.3251">
        <ele>952.2</ele>
        <time>2021-08-14T13:41:32Z</time>
      </trkpt>
      <trkpt lat="46.75655" lon="6.32503">
        <ele>952.1</ele>
        <time>2021-08-14T13:41:33Z</time>
      </trkpt>
      <trkpt lat="46.75652" lon="6.32496">
        <ele>951.9</ele>
        <time>2021-08-14T13:41:34Z</time>
      </trkpt>
      <trkpt lat="46.75649" lon="6.32489">
        <ele>951.8</ele>
        <time>2021-08-14T13:41:35Z</time>
      </trkpt>
      <trkpt lat="46.75645" lon="6.32481">
        <ele>951.6</ele>
        <time>2021-08-14T13:41:36Z</time>
      </trkpt>
      <trkpt lat="46.75639" lon="6.32466">
        <ele>951.3</ele>
        <time>2021-08-14T13:41:38Z</time>
      </trkpt>
      <trkpt lat="46.75631" lon="6.32452">
        <ele>951</ele>
        <time>2021-08-14T13:41:40Z</time>
      </trkpt>
      <trkpt lat="46.75625" lon="6.32437">
        <ele>950.7</ele>
        <time>2021-08-14T13:41:42Z</time>
      </trkpt>
      <trkpt lat="46.75619" lon="6.32422">
        <ele>950.4</ele>
        <time>2021-08-14T13:41:44Z</time>
      </trkpt>
      <trkpt lat="46.75612" lon="6.32409">
        <ele>950.1</ele>
        <time>2021-08-14T13:41:46Z</time>
      </trkpt>
      <trkpt lat="46.75609" lon="6.32402">
        <ele>949.9</ele>
        <time>2021-08-14T13:41:47Z</time>
      </trkpt>
      <trkpt lat="46.75605" lon="6.32395">
        <ele>949.8</ele>
        <time>2021-08-14T13:41:48Z</time>
      </trkpt>
      <trkpt lat="46.75598" lon="6.3238">
        <ele>949.4</ele>
        <time>2021-08-14T13:41:50Z</time>
      </trkpt>
      <trkpt lat="46.75592" lon="6.32364">
        <ele>949</ele>
        <time>2021-08-14T13:41:52Z</time>
      </trkpt>
      <trkpt lat="46.75588" lon="6.32356">
        <ele>948.8</ele>
        <time>2021-08-14T13:41:53Z</time>
      </trkpt>
      <trkpt lat="46.75584" lon="6.32349">
        <ele>948.5</ele>
        <time>2021-08-14T13:41:54Z</time>
      </trkpt>
      <trkpt lat="46.75577" lon="6.32333">
        <ele>948</ele>
        <time>2021-08-14T13:41:56Z</time>
      </trkpt>
      <trkpt lat="46.75574" lon="6.32324">
        <ele>947.7</ele>
        <time>2021-08-14T13:41:57Z</time>
      </trkpt>
      <trkpt lat="46.7557" lon="6.32315">
        <ele>947.3</ele>
        <time>2021-08-14T13:41:58Z</time>
      </trkpt>
      <trkpt lat="46.75566" lon="6.32305">
        <ele>947</ele>
        <time>2021-08-14T13:41:59Z</time>
      </trkpt>
      <trkpt lat="46.75562" lon="6.32297">
        <ele>946.7</ele>
        <time>2021-08-14T13:42:00Z</time>
      </trkpt>
      <trkpt lat="46.75554" lon="6.32279">
        <ele>946.1</ele>
        <time>2021-08-14T13:42:02Z</time>
      </trkpt>
      <trkpt lat="46.75546" lon="6.3226">
        <ele>945.4</ele>
        <time>2021-08-14T13:42:04Z</time>
      </trkpt>
      <trkpt lat="46.75541" lon="6.3225">
        <ele>945</ele>
        <time>2021-08-14T13:42:05Z</time>
      </trkpt>
      <trkpt lat="46.75537" lon="6.32241">
        <ele>944.7</ele>
        <time>2021-08-14T13:42:06Z</time>
      </trkpt>
      <trkpt lat="46.75532" lon="6.32232">
        <ele>944.4</ele>
        <time>2021-08-14T13:42:07Z</time>
      </trkpt>
      <trkpt lat="46.75528" lon="6.32223">
        <ele>944.1</ele>
        <time>2021-08-14T13:42:08Z</time>
      </trkpt>
      <trkpt lat="46.7552" lon="6.32209">
        <ele>943.5</ele>
        <time>2021-08-14T13:42:10Z</time>
      </trkpt>
      <trkpt lat="46.75515" lon="6.32202">
        <ele>943.3</ele>
        <time>2021-08-14T13:42:11Z</time>
      </trkpt>
      <trkpt lat="46.75511" lon="6.32195">
        <ele>943</ele>
        <time>2021-08-14T13:42:12Z</time>
      </trkpt>
      <trkpt lat="46.75506" lon="6.32188">
        <ele>942.7</ele>
        <time>2021-08-14T13:42:13Z</time>
      </trkpt>
      <trkpt lat="46.75498" lon="6.32176">
        <ele>942.1</ele>
        <time>2021-08-14T13:42:15Z</time>
      </trkpt>
      <trkpt lat="46.75494" lon="6.32169">
        <ele>941.7</ele>
        <time>2021-08-14T13:42:16Z</time>
      </trkpt>
      <trkpt lat="46.75485" lon="6.32154">
        <ele>941</ele>
        <time>2021-08-14T13:42:18Z</time>
      </trkpt>
      <trkpt lat="46.75481" lon="6.32146">
        <ele>940.6</ele>
        <time>2021-08-14T13:42:19Z</time>
      </trkpt>
      <trkpt lat="46.75478" lon="6.32137">
        <ele>940.3</ele>
        <time>2021-08-14T13:42:20Z</time>
      </trkpt>
      <trkpt lat="46.75468" lon="6.3212">
        <ele>939.4</ele>
        <time>2021-08-14T13:42:22Z</time>
      </trkpt>
      <trkpt lat="46.75459" lon="6.32102">
        <ele>938.5</ele>
        <time>2021-08-14T13:42:24Z</time>
      </trkpt>
      <trkpt lat="46.75455" lon="6.32091">
        <ele>938</ele>
        <time>2021-08-14T13:42:25Z</time>
      </trkpt>
      <trkpt lat="46.75451" lon="6.3208">
        <ele>937.5</ele>
        <time>2021-08-14T13:42:26Z</time>
      </trkpt>
      <trkpt lat="46.75447" lon="6.32055">
        <ele>936.4</ele>
        <time>2021-08-14T13:42:28Z</time>
      </trkpt>
      <trkpt lat="46.75444" lon="6.32029">
        <ele>935.3</ele>
        <time>2021-08-14T13:42:30Z</time>
      </trkpt>
      <trkpt lat="46.75442" lon="6.32004">
        <ele>934.3</ele>
        <time>2021-08-14T13:42:32Z</time>
      </trkpt>
      <trkpt lat="46.75437" lon="6.3198">
        <ele>933.6</ele>
        <time>2021-08-14T13:42:34Z</time>
      </trkpt>
      <trkpt lat="46.75435" lon="6.31969">
        <ele>933.3</ele>
        <time>2021-08-14T13:42:35Z</time>
      </trkpt>
      <trkpt lat="46.75432" lon="6.31958">
        <ele>933</ele>
        <time>2021-08-14T13:42:36Z</time>
      </trkpt>
      <trkpt lat="46.75426" lon="6.31936">
        <ele>932.4</ele>
        <time>2021-08-14T13:42:38Z</time>
      </trkpt>
      <trkpt lat="46.75419" lon="6.31915">
        <ele>931.7</ele>
        <time>2021-08-14T13:42:40Z</time>
      </trkpt>
      <trkpt lat="46.75413" lon="6.31895">
        <ele>931.1</ele>
        <time>2021-08-14T13:42:42Z</time>
      </trkpt>
      <trkpt lat="46.75407" lon="6.31875">
        <ele>930.5</ele>
        <time>2021-08-14T13:42:44Z</time>
      </trkpt>
      <trkpt lat="46.75402" lon="6.31856">
        <ele>929.9</ele>
        <time>2021-08-14T13:42:46Z</time>
      </trkpt>
      <trkpt lat="46.75397" lon="6.31835">
        <ele>929.3</ele>
        <time>2021-08-14T13:42:48Z</time>
      </trkpt>
      <trkpt lat="46.75392" lon="6.31819">
        <ele>928.7</ele>
        <time>2021-08-14T13:42:50Z</time>
      </trkpt>
      <trkpt lat="46.75389" lon="6.31803">
        <ele>928.2</ele>
        <time>2021-08-14T13:42:52Z</time>
      </trkpt>
      <trkpt lat="46.75387" lon="6.31796">
        <ele>927.9</ele>
        <time>2021-08-14T13:42:53Z</time>
      </trkpt>
      <trkpt lat="46.75386" lon="6.31789">
        <ele>927.7</ele>
        <time>2021-08-14T13:42:54Z</time>
      </trkpt>
      <trkpt lat="46.75384" lon="6.31785">
        <ele>927.5</ele>
        <time>2021-08-14T13:42:55Z</time>
      </trkpt>
      <trkpt lat="46.75382" lon="6.31779">
        <ele>927.3</ele>
        <time>2021-08-14T13:42:56Z</time>
      </trkpt>
      <trkpt lat="46.7538" lon="6.31771">
        <ele>926.9</ele>
        <time>2021-08-14T13:42:58Z</time>
      </trkpt>
      <trkpt lat="46.75379" lon="6.31767">
        <ele>926.7</ele>
        <time>2021-08-14T13:42:59Z</time>
      </trkpt>
      <trkpt lat="46.75378" lon="6.31761">
        <ele>926.6</ele>
        <time>2021-08-14T13:43:00Z</time>
      </trkpt>
      <trkpt lat="46.75378" lon="6.31756">
        <ele>926.5</ele>
        <time>2021-08-14T13:43:02Z</time>
      </trkpt>
      <trkpt lat="46.75378" lon="6.31754">
        <ele>926.4</ele>
        <time>2021-08-14T13:43:03Z</time>
      </trkpt>
      <trkpt lat="46.75383" lon="6.31745">
        <ele>926.1</ele>
        <time>2021-08-14T13:43:05Z</time>
      </trkpt>
      <trkpt lat="46.75393" lon="6.31737">
        <ele>925.1</ele>
        <time>2021-08-14T13:43:06Z</time>
      </trkpt>
      <trkpt lat="46.75405" lon="6.31724">
        <ele>923.8</ele>
        <time>2021-08-14T13:43:08Z</time>
      </trkpt>
      <trkpt lat="46.75417" lon="6.31714">
        <ele>922.6</ele>
        <time>2021-08-14T13:43:10Z</time>
      </trkpt>
      <trkpt lat="46.75422" lon="6.31709">
        <ele>922.1</ele>
        <time>2021-08-14T13:43:11Z</time>
      </trkpt>
      <trkpt lat="46.75427" lon="6.31705">
        <ele>921.7</ele>
        <time>2021-08-14T13:43:12Z</time>
      </trkpt>
      <trkpt lat="46.75434" lon="6.31699">
        <ele>921.1</ele>
        <time>2021-08-14T13:43:13Z</time>
      </trkpt>
      <trkpt lat="46.75438" lon="6.31698">
        <ele>920.8</ele>
        <time>2021-08-14T13:43:15Z</time>
      </trkpt>
      <trkpt lat="46.75441" lon="6.31694">
        <ele>920.6</ele>
        <time>2021-08-14T13:43:16Z</time>
      </trkpt>
      <trkpt lat="46.75443" lon="6.31694">
        <ele>920.6</ele>
        <time>2021-08-14T13:43:18Z</time>
      </trkpt>
      <trkpt lat="46.75442" lon="6.31695">
        <ele>920.6</ele>
        <time>2021-08-14T13:43:20Z</time>
      </trkpt>
      <trkpt lat="46.75441" lon="6.31697">
        <ele>920.6</ele>
        <time>2021-08-14T13:43:21Z</time>
      </trkpt>
      <trkpt lat="46.75441" lon="6.31698">
        <ele>920.6</ele>
        <time>2021-08-14T13:43:23Z</time>
      </trkpt>
      <trkpt lat="46.75441" lon="6.31698">
        <ele>920.6</ele>
        <time>2021-08-14T13:43:24Z</time>
      </trkpt>
      <trkpt lat="46.7544" lon="6.31699">
        <ele>920.6</ele>
        <time>2021-08-14T13:43:26Z</time>
      </trkpt>
      <trkpt lat="46.75441" lon="6.31698">
        <ele>920.6</ele>
        <time>2021-08-14T13:43:27Z</time>
      </trkpt>
      <trkpt lat="46.75441" lon="6.31698">
        <ele>920.6</ele>
        <time>2021-08-14T13:43:29Z</time>
      </trkpt>
      <trkpt lat="46.75442" lon="6.31693">
        <ele>920.6</ele>
        <time>2021-08-14T13:43:32Z</time>
      </trkpt>
      <trkpt lat="46.75442" lon="6.31687">
        <ele>920.6</ele>
        <time>2021-08-14T13:43:33Z</time>
      </trkpt>
      <trkpt lat="46.75442" lon="6.31681">
        <ele>920.6</ele>
        <time>2021-08-14T13:43:34Z</time>
      </trkpt>
      <trkpt lat="46.75439" lon="6.31669">
        <ele>920.7</ele>
        <time>2021-08-14T13:43:36Z</time>
      </trkpt>
      <trkpt lat="46.75438" lon="6.3166">
        <ele>920.7</ele>
        <time>2021-08-14T13:43:38Z</time>
      </trkpt>
      <trkpt lat="46.75439" lon="6.31651">
        <ele>920.7</ele>
        <time>2021-08-14T13:43:40Z</time>
      </trkpt>
      <trkpt lat="46.75438" lon="6.31643">
        <ele>920.7</ele>
        <time>2021-08-14T13:43:41Z</time>
      </trkpt>
      <trkpt lat="46.75436" lon="6.31633">
        <ele>920.7</ele>
        <time>2021-08-14T13:43:42Z</time>
      </trkpt>
      <trkpt lat="46.75432" lon="6.31626">
        <ele>920.7</ele>
        <time>2021-08-14T13:43:43Z</time>
      </trkpt>
      <trkpt lat="46.75429" lon="6.31621">
        <ele>920.7</ele>
        <time>2021-08-14T13:43:44Z</time>
      </trkpt>
      <trkpt lat="46.75425" lon="6.31615">
        <ele>920.7</ele>
        <time>2021-08-14T13:43:46Z</time>
      </trkpt>
      <trkpt lat="46.75421" lon="6.3161">
        <ele>920.7</ele>
        <time>2021-08-14T13:43:47Z</time>
      </trkpt>
      <trkpt lat="46.75413" lon="6.31603">
        <ele>920.6</ele>
        <time>2021-08-14T13:43:48Z</time>
      </trkpt>
      <trkpt lat="46.7541" lon="6.31597">
        <ele>920.6</ele>
        <time>2021-08-14T13:43:49Z</time>
      </trkpt>
      <trkpt lat="46.75403" lon="6.31586">
        <ele>920.5</ele>
        <time>2021-08-14T13:43:51Z</time>
      </trkpt>
      <trkpt lat="46.75402" lon="6.31578">
        <ele>920.4</ele>
        <time>2021-08-14T13:43:52Z</time>
      </trkpt>
      <trkpt lat="46.754" lon="6.3157">
        <ele>920.3</ele>
        <time>2021-08-14T13:43:53Z</time>
      </trkpt>
      <trkpt lat="46.75398" lon="6.31563">
        <ele>920.2</ele>
        <time>2021-08-14T13:43:54Z</time>
      </trkpt>
      <trkpt lat="46.75394" lon="6.31548">
        <ele>920</ele>
        <time>2021-08-14T13:43:56Z</time>
      </trkpt>
      <trkpt lat="46.7539" lon="6.31532">
        <ele>919.7</ele>
        <time>2021-08-14T13:43:58Z</time>
      </trkpt>
      <trkpt lat="46.75387" lon="6.31525">
        <ele>919.6</ele>
        <time>2021-08-14T13:43:59Z</time>
      </trkpt>
      <trkpt lat="46.75384" lon="6.31518">
        <ele>919.4</ele>
        <time>2021-08-14T13:44:00Z</time>
      </trkpt>
      <trkpt lat="46.75379" lon="6.31507">
        <ele>919.2</ele>
        <time>2021-08-14T13:44:02Z</time>
      </trkpt>
      <trkpt lat="46.75375" lon="6.31502">
        <ele>919</ele>
        <time>2021-08-14T13:44:03Z</time>
      </trkpt>
      <trkpt lat="46.75367" lon="6.31494">
        <ele>918.7</ele>
        <time>2021-08-14T13:44:05Z</time>
      </trkpt>
      <trkpt lat="46.75363" lon="6.31487">
        <ele>918.4</ele>
        <time>2021-08-14T13:44:06Z</time>
      </trkpt>
      <trkpt lat="46.75355" lon="6.31474">
        <ele>918</ele>
        <time>2021-08-14T13:44:08Z</time>
      </trkpt>
      <trkpt lat="46.75349" lon="6.31462">
        <ele>917.7</ele>
        <time>2021-08-14T13:44:10Z</time>
      </trkpt>
      <trkpt lat="46.75346" lon="6.31457">
        <ele>917.5</ele>
        <time>2021-08-14T13:44:11Z</time>
      </trkpt>
      <trkpt lat="46.75342" lon="6.31445">
        <ele>917.2</ele>
        <time>2021-08-14T13:44:13Z</time>
      </trkpt>
      <trkpt lat="46.7534" lon="6.31439">
        <ele>917</ele>
        <time>2021-08-14T13:44:14Z</time>
      </trkpt>
      <trkpt lat="46.75335" lon="6.31426">
        <ele>916.6</ele>
        <time>2021-08-14T13:44:16Z</time>
      </trkpt>
      <trkpt lat="46.75329" lon="6.31411">
        <ele>916.2</ele>
        <time>2021-08-14T13:44:18Z</time>
      </trkpt>
      <trkpt lat="46.75323" lon="6.31396">
        <ele>915.9</ele>
        <time>2021-08-14T13:44:20Z</time>
      </trkpt>
      <trkpt lat="46.75316" lon="6.31383">
        <ele>915.5</ele>
        <time>2021-08-14T13:44:22Z</time>
      </trkpt>
      <trkpt lat="46.75312" lon="6.31376">
        <ele>915.4</ele>
        <time>2021-08-14T13:44:23Z</time>
      </trkpt>
      <trkpt lat="46.75309" lon="6.31368">
        <ele>915.2</ele>
        <time>2021-08-14T13:44:24Z</time>
      </trkpt>
      <trkpt lat="46.753" lon="6.31349">
        <ele>914.9</ele>
        <time>2021-08-14T13:44:26Z</time>
      </trkpt>
      <trkpt lat="46.75294" lon="6.31332">
        <ele>914.6</ele>
        <time>2021-08-14T13:44:28Z</time>
      </trkpt>
      <trkpt lat="46.75288" lon="6.31313">
        <ele>914.4</ele>
        <time>2021-08-14T13:44:30Z</time>
      </trkpt>
      <trkpt lat="46.75283" lon="6.31295">
        <ele>914.2</ele>
        <time>2021-08-14T13:44:32Z</time>
      </trkpt>
      <trkpt lat="46.75278" lon="6.31278">
        <ele>914.1</ele>
        <time>2021-08-14T13:44:34Z</time>
      </trkpt>
      <trkpt lat="46.75275" lon="6.3127">
        <ele>914.1</ele>
        <time>2021-08-14T13:44:35Z</time>
      </trkpt>
      <trkpt lat="46.75273" lon="6.31262">
        <ele>914</ele>
        <time>2021-08-14T13:44:36Z</time>
      </trkpt>
      <trkpt lat="46.75269" lon="6.31246">
        <ele>913.9</ele>
        <time>2021-08-14T13:44:38Z</time>
      </trkpt>
      <trkpt lat="46.75267" lon="6.31238">
        <ele>913.9</ele>
        <time>2021-08-14T13:44:39Z</time>
      </trkpt>
      <trkpt lat="46.75263" lon="6.31222">
        <ele>913.8</ele>
        <time>2021-08-14T13:44:41Z</time>
      </trkpt>
      <trkpt lat="46.7526" lon="6.31213">
        <ele>913.8</ele>
        <time>2021-08-14T13:44:42Z</time>
      </trkpt>
      <trkpt lat="46.75253" lon="6.31196">
        <ele>913.7</ele>
        <time>2021-08-14T13:44:44Z</time>
      </trkpt>
      <trkpt lat="46.75247" lon="6.3118">
        <ele>913.7</ele>
        <time>2021-08-14T13:44:46Z</time>
      </trkpt>
      <trkpt lat="46.75244" lon="6.31172">
        <ele>913.7</ele>
        <time>2021-08-14T13:44:47Z</time>
      </trkpt>
      <trkpt lat="46.7524" lon="6.31165">
        <ele>913.7</ele>
        <time>2021-08-14T13:44:48Z</time>
      </trkpt>
      <trkpt lat="46.75235" lon="6.3115">
        <ele>913.8</ele>
        <time>2021-08-14T13:44:50Z</time>
      </trkpt>
      <trkpt lat="46.7523" lon="6.31135">
        <ele>913.8</ele>
        <time>2021-08-14T13:44:52Z</time>
      </trkpt>
      <trkpt lat="46.75222" lon="6.31123">
        <ele>913.9</ele>
        <time>2021-08-14T13:44:54Z</time>
      </trkpt>
      <trkpt lat="46.75218" lon="6.31117">
        <ele>914</ele>
        <time>2021-08-14T13:44:55Z</time>
      </trkpt>
      <trkpt lat="46.75214" lon="6.31109">
        <ele>914</ele>
        <time>2021-08-14T13:44:56Z</time>
      </trkpt>
      <trkpt lat="46.75207" lon="6.31094">
        <ele>914.2</ele>
        <time>2021-08-14T13:44:58Z</time>
      </trkpt>
      <trkpt lat="46.75202" lon="6.31086">
        <ele>914.4</ele>
        <time>2021-08-14T13:44:59Z</time>
      </trkpt>
      <trkpt lat="46.75193" lon="6.31074">
        <ele>914.6</ele>
        <time>2021-08-14T13:45:01Z</time>
      </trkpt>
      <trkpt lat="46.75188" lon="6.31068">
        <ele>914.6</ele>
        <time>2021-08-14T13:45:02Z</time>
      </trkpt>
      <trkpt lat="46.75179" lon="6.31058">
        <ele>914.8</ele>
        <time>2021-08-14T13:45:04Z</time>
      </trkpt>
      <trkpt lat="46.75174" lon="6.31054">
        <ele>914.9</ele>
        <time>2021-08-14T13:45:05Z</time>
      </trkpt>
      <trkpt lat="46.75169" lon="6.31051">
        <ele>915</ele>
        <time>2021-08-14T13:45:06Z</time>
      </trkpt>
      <trkpt lat="46.75161" lon="6.31048">
        <ele>915.2</ele>
        <time>2021-08-14T13:45:08Z</time>
      </trkpt>
      <trkpt lat="46.75154" lon="6.31046">
        <ele>915.3</ele>
        <time>2021-08-14T13:45:10Z</time>
      </trkpt>
      <trkpt lat="46.75149" lon="6.31043">
        <ele>915.3</ele>
        <time>2021-08-14T13:45:12Z</time>
      </trkpt>
      <trkpt lat="46.75146" lon="6.31041">
        <ele>915.4</ele>
        <time>2021-08-14T13:45:13Z</time>
      </trkpt>
      <trkpt lat="46.75146" lon="6.31036">
        <ele>915.4</ele>
        <time>2021-08-14T13:45:15Z</time>
      </trkpt>
      <trkpt lat="46.75146" lon="6.31031">
        <ele>915.4</ele>
        <time>2021-08-14T13:45:16Z</time>
      </trkpt>
      <trkpt lat="46.75145" lon="6.31026">
        <ele>915.4</ele>
        <time>2021-08-14T13:45:17Z</time>
      </trkpt>
      <trkpt lat="46.75144" lon="6.3102">
        <ele>915.5</ele>
        <time>2021-08-14T13:45:18Z</time>
      </trkpt>
      <trkpt lat="46.75144" lon="6.31013">
        <ele>915.5</ele>
        <time>2021-08-14T13:45:19Z</time>
      </trkpt>
      <trkpt lat="46.75144" lon="6.31007">
        <ele>915.5</ele>
        <time>2021-08-14T13:45:20Z</time>
      </trkpt>
      <trkpt lat="46.75143" lon="6.31">
        <ele>915.5</ele>
        <time>2021-08-14T13:45:21Z</time>
      </trkpt>
      <trkpt lat="46.75142" lon="6.30994">
        <ele>915.5</ele>
        <time>2021-08-14T13:45:22Z</time>
      </trkpt>
      <trkpt lat="46.75141" lon="6.30988">
        <ele>915.4</ele>
        <time>2021-08-14T13:45:23Z</time>
      </trkpt>
      <trkpt lat="46.75137" lon="6.30982">
        <ele>915.4</ele>
        <time>2021-08-14T13:45:25Z</time>
      </trkpt>
      <trkpt lat="46.75132" lon="6.30977">
        <ele>915.3</ele>
        <time>2021-08-14T13:45:26Z</time>
      </trkpt>
      <trkpt lat="46.75132" lon="6.30978">
        <ele>915.3</ele>
        <time>2021-08-14T13:45:27Z</time>
      </trkpt>
      <trkpt lat="46.75129" lon="6.30972">
        <ele>915.2</ele>
        <time>2021-08-14T13:45:29Z</time>
      </trkpt>
      <trkpt lat="46.75126" lon="6.30966">
        <ele>915.1</ele>
        <time>2021-08-14T13:45:30Z</time>
      </trkpt>
      <trkpt lat="46.75119" lon="6.30957">
        <ele>915</ele>
        <time>2021-08-14T13:45:31Z</time>
      </trkpt>
      <trkpt lat="46.75112" lon="6.30942">
        <ele>914.8</ele>
        <time>2021-08-14T13:45:33Z</time>
      </trkpt>
      <trkpt lat="46.75105" lon="6.30926">
        <ele>914.5</ele>
        <time>2021-08-14T13:45:35Z</time>
      </trkpt>
      <trkpt lat="46.75096" lon="6.30911">
        <ele>914.3</ele>
        <time>2021-08-14T13:45:37Z</time>
      </trkpt>
      <trkpt lat="46.75092" lon="6.30905">
        <ele>914.2</ele>
        <time>2021-08-14T13:45:38Z</time>
      </trkpt>
      <trkpt lat="46.75083" lon="6.30892">
        <ele>914.1</ele>
        <time>2021-08-14T13:45:40Z</time>
      </trkpt>
      <trkpt lat="46.75079" lon="6.30887">
        <ele>914</ele>
        <time>2021-08-14T13:45:41Z</time>
      </trkpt>
      <trkpt lat="46.75072" lon="6.30875">
        <ele>913.9</ele>
        <time>2021-08-14T13:45:43Z</time>
      </trkpt>
      <trkpt lat="46.75069" lon="6.30867">
        <ele>913.9</ele>
        <time>2021-08-14T13:45:44Z</time>
      </trkpt>
      <trkpt lat="46.75063" lon="6.30851">
        <ele>913.8</ele>
        <time>2021-08-14T13:45:46Z</time>
      </trkpt>
      <trkpt lat="46.7506" lon="6.30843">
        <ele>913.8</ele>
        <time>2021-08-14T13:45:47Z</time>
      </trkpt>
      <trkpt lat="46.75054" lon="6.30829">
        <ele>913.7</ele>
        <time>2021-08-14T13:45:49Z</time>
      </trkpt>
      <trkpt lat="46.7505" lon="6.30823">
        <ele>913.6</ele>
        <time>2021-08-14T13:45:50Z</time>
      </trkpt>
      <trkpt lat="46.7504" lon="6.30811">
        <ele>913.2</ele>
        <time>2021-08-14T13:45:52Z</time>
      </trkpt>
      <trkpt lat="46.75034" lon="6.30799">
        <ele>912.9</ele>
        <time>2021-08-14T13:45:54Z</time>
      </trkpt>
      <trkpt lat="46.75028" lon="6.30784">
        <ele>912.7</ele>
        <time>2021-08-14T13:45:56Z</time>
      </trkpt>
      <trkpt lat="46.75025" lon="6.30776">
        <ele>912.7</ele>
        <time>2021-08-14T13:45:57Z</time>
      </trkpt>
      <trkpt lat="46.75016" lon="6.30761">
        <ele>912.9</ele>
        <time>2021-08-14T13:45:59Z</time>
      </trkpt>
      <trkpt lat="46.75012" lon="6.30754">
        <ele>913</ele>
        <time>2021-08-14T13:46:00Z</time>
      </trkpt>
      <trkpt lat="46.75003" lon="6.30741">
        <ele>912.8</ele>
        <time>2021-08-14T13:46:02Z</time>
      </trkpt>
      <trkpt lat="46.74996" lon="6.3073">
        <ele>912.7</ele>
        <time>2021-08-14T13:46:04Z</time>
      </trkpt>
      <trkpt lat="46.74989" lon="6.30719">
        <ele>912.7</ele>
        <time>2021-08-14T13:46:06Z</time>
      </trkpt>
      <trkpt lat="46.74987" lon="6.30715">
        <ele>912.6</ele>
        <time>2021-08-14T13:46:07Z</time>
      </trkpt>
      <trkpt lat="46.7498" lon="6.30701">
        <ele>912.5</ele>
        <time>2021-08-14T13:46:09Z</time>
      </trkpt>
      <trkpt lat="46.74972" lon="6.30689">
        <ele>912.4</ele>
        <time>2021-08-14T13:46:11Z</time>
      </trkpt>
      <trkpt lat="46.74969" lon="6.30684">
        <ele>912.4</ele>
        <time>2021-08-14T13:46:12Z</time>
      </trkpt>
      <trkpt lat="46.74962" lon="6.30674">
        <ele>912.4</ele>
        <time>2021-08-14T13:46:14Z</time>
      </trkpt>
      <trkpt lat="46.7496" lon="6.30669">
        <ele>912.3</ele>
        <time>2021-08-14T13:46:15Z</time>
      </trkpt>
      <trkpt lat="46.74955" lon="6.3066">
        <ele>912.2</ele>
        <time>2021-08-14T13:46:17Z</time>
      </trkpt>
      <trkpt lat="46.74951" lon="6.30655">
        <ele>912</ele>
        <time>2021-08-14T13:46:18Z</time>
      </trkpt>
      <trkpt lat="46.74943" lon="6.30645">
        <ele>911.8</ele>
        <time>2021-08-14T13:46:20Z</time>
      </trkpt>
      <trkpt lat="46.74936" lon="6.30637">
        <ele>911.6</ele>
        <time>2021-08-14T13:46:22Z</time>
      </trkpt>
      <trkpt lat="46.74933" lon="6.30631">
        <ele>911.5</ele>
        <time>2021-08-14T13:46:23Z</time>
      </trkpt>
      <trkpt lat="46.74926" lon="6.30619">
        <ele>911.3</ele>
        <time>2021-08-14T13:46:25Z</time>
      </trkpt>
      <trkpt lat="46.74919" lon="6.30605">
        <ele>911.2</ele>
        <time>2021-08-14T13:46:27Z</time>
      </trkpt>
      <trkpt lat="46.74912" lon="6.30592">
        <ele>911.2</ele>
        <time>2021-08-14T13:46:29Z</time>
      </trkpt>
      <trkpt lat="46.74908" lon="6.30586">
        <ele>911.2</ele>
        <time>2021-08-14T13:46:30Z</time>
      </trkpt>
      <trkpt lat="46.74902" lon="6.30573">
        <ele>911.3</ele>
        <time>2021-08-14T13:46:32Z</time>
      </trkpt>
      <trkpt lat="46.74898" lon="6.30566">
        <ele>911.3</ele>
        <time>2021-08-14T13:46:33Z</time>
      </trkpt>
      <trkpt lat="46.74891" lon="6.30554">
        <ele>911.5</ele>
        <time>2021-08-14T13:46:35Z</time>
      </trkpt>
      <trkpt lat="46.74887" lon="6.30548">
        <ele>911.5</ele>
        <time>2021-08-14T13:46:36Z</time>
      </trkpt>
      <trkpt lat="46.74883" lon="6.30543">
        <ele>911.6</ele>
        <time>2021-08-14T13:46:37Z</time>
      </trkpt>
      <trkpt lat="46.74876" lon="6.30534">
        <ele>911.8</ele>
        <time>2021-08-14T13:46:39Z</time>
      </trkpt>
      <trkpt lat="46.74872" lon="6.30528">
        <ele>911.9</ele>
        <time>2021-08-14T13:46:40Z</time>
      </trkpt>
      <trkpt lat="46.74869" lon="6.30523">
        <ele>912</ele>
        <time>2021-08-14T13:46:41Z</time>
      </trkpt>
      <trkpt lat="46.74863" lon="6.30512">
        <ele>912.1</ele>
        <time>2021-08-14T13:46:43Z</time>
      </trkpt>
      <trkpt lat="46.7486" lon="6.30508">
        <ele>912.2</ele>
        <time>2021-08-14T13:46:44Z</time>
      </trkpt>
      <trkpt lat="46.74853" lon="6.30499">
        <ele>912.4</ele>
        <time>2021-08-14T13:46:46Z</time>
      </trkpt>
      <trkpt lat="46.7485" lon="6.30493">
        <ele>912.5</ele>
        <time>2021-08-14T13:46:47Z</time>
      </trkpt>
      <trkpt lat="46.74845" lon="6.30482">
        <ele>912.7</ele>
        <time>2021-08-14T13:46:49Z</time>
      </trkpt>
      <trkpt lat="46.74842" lon="6.30477">
        <ele>912.8</ele>
        <time>2021-08-14T13:46:50Z</time>
      </trkpt>
      <trkpt lat="46.7484" lon="6.30473">
        <ele>912.8</ele>
        <time>2021-08-14T13:46:51Z</time>
      </trkpt>
      <trkpt lat="46.74834" lon="6.30465">
        <ele>913</ele>
        <time>2021-08-14T13:46:53Z</time>
      </trkpt>
      <trkpt lat="46.7483" lon="6.30458">
        <ele>913.1</ele>
        <time>2021-08-14T13:46:55Z</time>
      </trkpt>
      <trkpt lat="46.74827" lon="6.30452">
        <ele>913.2</ele>
        <time>2021-08-14T13:46:56Z</time>
      </trkpt>
      <trkpt lat="46.74824" lon="6.30448">
        <ele>913.4</ele>
        <time>2021-08-14T13:46:57Z</time>
      </trkpt>
      <trkpt lat="46.74824" lon="6.30447">
        <ele>913.4</ele>
        <time>2021-08-14T13:46:58Z</time>
      </trkpt>
      <trkpt lat="46.74821" lon="6.30443">
        <ele>913.6</ele>
        <time>2021-08-14T13:47:00Z</time>
      </trkpt>
      <trkpt lat="46.74818" lon="6.3044">
        <ele>913.8</ele>
        <time>2021-08-14T13:47:01Z</time>
      </trkpt>
      <trkpt lat="46.74816" lon="6.30439">
        <ele>913.9</ele>
        <time>2021-08-14T13:47:02Z</time>
      </trkpt>
      <trkpt lat="46.74814" lon="6.30436">
        <ele>914</ele>
        <time>2021-08-14T13:47:03Z</time>
      </trkpt>
      <trkpt lat="46.74812" lon="6.30434">
        <ele>914.2</ele>
        <time>2021-08-14T13:47:05Z</time>
      </trkpt>
      <trkpt lat="46.74811" lon="6.30432">
        <ele>914.3</ele>
        <time>2021-08-14T13:47:06Z</time>
      </trkpt>
      <trkpt lat="46.7481" lon="6.30431">
        <ele>914.3</ele>
        <time>2021-08-14T13:47:08Z</time>
      </trkpt>
      <trkpt lat="46.7481" lon="6.30431">
        <ele>914.3</ele>
        <time>2021-08-14T13:47:09Z</time>
      </trkpt>
      <trkpt lat="46.7481" lon="6.30431">
        <ele>914.3</ele>
        <time>2021-08-14T13:47:10Z</time>
      </trkpt>
      <trkpt lat="46.7481" lon="6.3043">
        <ele>914.3</ele>
        <time>2021-08-14T13:47:12Z</time>
      </trkpt>
      <trkpt lat="46.7481" lon="6.3043">
        <ele>914.3</ele>
        <time>2021-08-14T13:47:13Z</time>
      </trkpt>
      <trkpt lat="46.7481" lon="6.30431">
        <ele>914.4</ele>
        <time>2021-08-14T13:47:15Z</time>
      </trkpt>
      <trkpt lat="46.7481" lon="6.30431">
        <ele>914.4</ele>
        <time>2021-08-14T13:47:16Z</time>
      </trkpt>
      <trkpt lat="46.74808" lon="6.30434">
        <ele>914.6</ele>
        <time>2021-08-14T13:47:57Z</time>
      </trkpt>
      <trkpt lat="46.74805" lon="6.30436">
        <ele>914.8</ele>
        <time>2021-08-14T13:47:58Z</time>
      </trkpt>
      <trkpt lat="46.748" lon="6.30438">
        <ele>915</ele>
        <time>2021-08-14T13:47:59Z</time>
      </trkpt>
      <trkpt lat="46.74797" lon="6.30439">
        <ele>915.2</ele>
        <time>2021-08-14T13:48:00Z</time>
      </trkpt>
      <trkpt lat="46.74793" lon="6.30439">
        <ele>915.4</ele>
        <time>2021-08-14T13:48:02Z</time>
      </trkpt>
      <trkpt lat="46.74788" lon="6.30441">
        <ele>915.7</ele>
        <time>2021-08-14T13:48:03Z</time>
      </trkpt>
      <trkpt lat="46.74784" lon="6.30442">
        <ele>916</ele>
        <time>2021-08-14T13:48:05Z</time>
      </trkpt>
      <trkpt lat="46.74782" lon="6.30443">
        <ele>916.1</ele>
        <time>2021-08-14T13:48:06Z</time>
      </trkpt>
      <trkpt lat="46.74777" lon="6.30444">
        <ele>916.4</ele>
        <time>2021-08-14T13:48:08Z</time>
      </trkpt>
      <trkpt lat="46.74774" lon="6.30443">
        <ele>916.6</ele>
        <time>2021-08-14T13:48:09Z</time>
      </trkpt>
      <trkpt lat="46.74773" lon="6.30443">
        <ele>916.7</ele>
        <time>2021-08-14T13:48:10Z</time>
      </trkpt>
      <trkpt lat="46.74769" lon="6.30442">
        <ele>916.9</ele>
        <time>2021-08-14T13:48:11Z</time>
      </trkpt>
      <trkpt lat="46.74766" lon="6.30441">
        <ele>917.2</ele>
        <time>2021-08-14T13:48:12Z</time>
      </trkpt>
      <trkpt lat="46.74764" lon="6.30441">
        <ele>917.3</ele>
        <time>2021-08-14T13:48:13Z</time>
      </trkpt>
      <trkpt lat="46.74762" lon="6.30441">
        <ele>917.5</ele>
        <time>2021-08-14T13:48:14Z</time>
      </trkpt>
      <trkpt lat="46.7476" lon="6.30442">
        <ele>917.6</ele>
        <time>2021-08-14T13:48:16Z</time>
      </trkpt>
      <trkpt lat="46.74756" lon="6.30443">
        <ele>917.9</ele>
        <time>2021-08-14T13:48:17Z</time>
      </trkpt>
      <trkpt lat="46.74755" lon="6.30444">
        <ele>918.3</ele>
        <time>2021-08-14T13:48:18Z</time>
      </trkpt>
      <trkpt lat="46.74753" lon="6.30447">
        <ele>918.5</ele>
        <time>2021-08-14T13:48:19Z</time>
      </trkpt>
      <trkpt lat="46.74752" lon="6.30448">
        <ele>918.5</ele>
        <time>2021-08-14T13:48:20Z</time>
      </trkpt>
      <trkpt lat="46.7475" lon="6.30451">
        <ele>918.6</ele>
        <time>2021-08-14T13:48:21Z</time>
      </trkpt>
      <trkpt lat="46.74749" lon="6.30453">
        <ele>918.7</ele>
        <time>2021-08-14T13:48:22Z</time>
      </trkpt>
      <trkpt lat="46.74748" lon="6.30457">
        <ele>918.8</ele>
        <time>2021-08-14T13:48:24Z</time>
      </trkpt>
      <trkpt lat="46.74747" lon="6.3046">
        <ele>918.9</ele>
        <time>2021-08-14T13:48:25Z</time>
      </trkpt>
      <trkpt lat="46.74746" lon="6.30465">
        <ele>919</ele>
        <time>2021-08-14T13:48:27Z</time>
      </trkpt>
      <trkpt lat="46.74745" lon="6.30467">
        <ele>919</ele>
        <time>2021-08-14T13:48:28Z</time>
      </trkpt>
      <trkpt lat="46.74745" lon="6.3047">
        <ele>919.1</ele>
        <time>2021-08-14T13:48:29Z</time>
      </trkpt>
      <trkpt lat="46.74743" lon="6.30475">
        <ele>919.2</ele>
        <time>2021-08-14T13:48:31Z</time>
      </trkpt>
      <trkpt lat="46.74743" lon="6.3048">
        <ele>919.3</ele>
        <time>2021-08-14T13:48:33Z</time>
      </trkpt>
      <trkpt lat="46.74743" lon="6.30482">
        <ele>919.4</ele>
        <time>2021-08-14T13:48:34Z</time>
      </trkpt>
      <trkpt lat="46.74742" lon="6.30489">
        <ele>920</ele>
        <time>2021-08-14T13:48:36Z</time>
      </trkpt>
      <trkpt lat="46.74742" lon="6.30491">
        <ele>920.1</ele>
        <time>2021-08-14T13:48:37Z</time>
      </trkpt>
      <trkpt lat="46.74741" lon="6.30493">
        <ele>920.3</ele>
        <time>2021-08-14T13:48:38Z</time>
      </trkpt>
      <trkpt lat="46.7474" lon="6.30495">
        <ele>920.5</ele>
        <time>2021-08-14T13:48:39Z</time>
      </trkpt>
      <trkpt lat="46.74739" lon="6.30499">
        <ele>920.9</ele>
        <time>2021-08-14T13:48:41Z</time>
      </trkpt>
      <trkpt lat="46.74738" lon="6.30501">
        <ele>921.1</ele>
        <time>2021-08-14T13:48:42Z</time>
      </trkpt>
      <trkpt lat="46.74735" lon="6.30504">
        <ele>921.6</ele>
        <time>2021-08-14T13:48:44Z</time>
      </trkpt>
      <trkpt lat="46.74732" lon="6.30508">
        <ele>922.1</ele>
        <time>2021-08-14T13:48:46Z</time>
      </trkpt>
      <trkpt lat="46.74731" lon="6.30509">
        <ele>922.4</ele>
        <time>2021-08-14T13:48:47Z</time>
      </trkpt>
      <trkpt lat="46.74728" lon="6.30511">
        <ele>922.8</ele>
        <time>2021-08-14T13:48:49Z</time>
      </trkpt>
      <trkpt lat="46.74725" lon="6.30513">
        <ele>923</ele>
        <time>2021-08-14T13:48:50Z</time>
      </trkpt>
      <trkpt lat="46.74723" lon="6.30513">
        <ele>923</ele>
        <time>2021-08-14T13:48:51Z</time>
      </trkpt>
      <trkpt lat="46.74719" lon="6.30514">
        <ele>923.2</ele>
        <time>2021-08-14T13:48:53Z</time>
      </trkpt>
      <trkpt lat="46.74718" lon="6.30514">
        <ele>923.2</ele>
        <time>2021-08-14T13:48:54Z</time>
      </trkpt>
      <trkpt lat="46.74713" lon="6.30514">
        <ele>923.4</ele>
        <time>2021-08-14T13:48:55Z</time>
      </trkpt>
      <trkpt lat="46.74709" lon="6.30514">
        <ele>923.6</ele>
        <time>2021-08-14T13:48:57Z</time>
      </trkpt>
      <trkpt lat="46.74707" lon="6.30515">
        <ele>923.6</ele>
        <time>2021-08-14T13:48:58Z</time>
      </trkpt>
      <trkpt lat="46.74706" lon="6.30515">
        <ele>923.7</ele>
        <time>2021-08-14T13:48:59Z</time>
      </trkpt>
      <trkpt lat="46.74703" lon="6.30513">
        <ele>923.8</ele>
        <time>2021-08-14T13:49:00Z</time>
      </trkpt>
      <trkpt lat="46.74702" lon="6.30512">
        <ele>923.8</ele>
        <time>2021-08-14T13:49:01Z</time>
      </trkpt>
      <trkpt lat="46.74699" lon="6.30511">
        <ele>924</ele>
        <time>2021-08-14T13:49:02Z</time>
      </trkpt>
      <trkpt lat="46.74698" lon="6.3051">
        <ele>924.1</ele>
        <time>2021-08-14T13:49:03Z</time>
      </trkpt>
      <trkpt lat="46.74694" lon="6.30509">
        <ele>924.2</ele>
        <time>2021-08-14T13:49:05Z</time>
      </trkpt>
      <trkpt lat="46.74693" lon="6.30508">
        <ele>924.3</ele>
        <time>2021-08-14T13:49:06Z</time>
      </trkpt>
      <trkpt lat="46.7469" lon="6.30508">
        <ele>924.4</ele>
        <time>2021-08-14T13:49:07Z</time>
      </trkpt>
      <trkpt lat="46.74689" lon="6.30508">
        <ele>924.5</ele>
        <time>2021-08-14T13:49:08Z</time>
      </trkpt>
      <trkpt lat="46.74686" lon="6.30508">
        <ele>924.7</ele>
        <time>2021-08-14T13:49:09Z</time>
      </trkpt>
      <trkpt lat="46.74684" lon="6.30508">
        <ele>924.8</ele>
        <time>2021-08-14T13:49:11Z</time>
      </trkpt>
      <trkpt lat="46.74683" lon="6.30508">
        <ele>924.8</ele>
        <time>2021-08-14T13:49:12Z</time>
      </trkpt>
      <trkpt lat="46.7468" lon="6.30507">
        <ele>925</ele>
        <time>2021-08-14T13:49:13Z</time>
      </trkpt>
      <trkpt lat="46.74679" lon="6.30507">
        <ele>925</ele>
        <time>2021-08-14T13:49:14Z</time>
      </trkpt>
      <trkpt lat="46.74677" lon="6.30507">
        <ele>925.2</ele>
        <time>2021-08-14T13:49:15Z</time>
      </trkpt>
      <trkpt lat="46.74676" lon="6.30507">
        <ele>925.3</ele>
        <time>2021-08-14T13:49:16Z</time>
      </trkpt>
      <trkpt lat="46.74674" lon="6.30507">
        <ele>925.4</ele>
        <time>2021-08-14T13:49:17Z</time>
      </trkpt>
      <trkpt lat="46.74673" lon="6.30508">
        <ele>925.4</ele>
        <time>2021-08-14T13:49:18Z</time>
      </trkpt>
      <trkpt lat="46.74672" lon="6.30508">
        <ele>925.5</ele>
        <time>2021-08-14T13:49:19Z</time>
      </trkpt>
      <trkpt lat="46.7467" lon="6.30508">
        <ele>925.7</ele>
        <time>2021-08-14T13:49:20Z</time>
      </trkpt>
      <trkpt lat="46.74666" lon="6.30508">
        <ele>925.9</ele>
        <time>2021-08-14T13:49:21Z</time>
      </trkpt>
      <trkpt lat="46.74665" lon="6.30509">
        <ele>926</ele>
        <time>2021-08-14T13:49:22Z</time>
      </trkpt>
      <trkpt lat="46.74663" lon="6.30509">
        <ele>926.1</ele>
        <time>2021-08-14T13:49:23Z</time>
      </trkpt>
      <trkpt lat="46.74662" lon="6.30509">
        <ele>926.2</ele>
        <time>2021-08-14T13:49:24Z</time>
      </trkpt>
      <trkpt lat="46.74658" lon="6.30508">
        <ele>926.4</ele>
        <time>2021-08-14T13:49:26Z</time>
      </trkpt>
      <trkpt lat="46.74657" lon="6.30508">
        <ele>926.5</ele>
        <time>2021-08-14T13:49:27Z</time>
      </trkpt>
      <trkpt lat="46.74654" lon="6.30506">
        <ele>926.7</ele>
        <time>2021-08-14T13:49:29Z</time>
      </trkpt>
      <trkpt lat="46.74653" lon="6.30505">
        <ele>926.8</ele>
        <time>2021-08-14T13:49:30Z</time>
      </trkpt>
      <trkpt lat="46.74651" lon="6.30504">
        <ele>927</ele>
        <time>2021-08-14T13:49:31Z</time>
      </trkpt>
      <trkpt lat="46.74649" lon="6.30502">
        <ele>927.1</ele>
        <time>2021-08-14T13:49:33Z</time>
      </trkpt>
      <trkpt lat="46.74648" lon="6.305">
        <ele>927.3</ele>
        <time>2021-08-14T13:49:34Z</time>
      </trkpt>
      <trkpt lat="46.74646" lon="6.30497">
        <ele>927.4</ele>
        <time>2021-08-14T13:49:36Z</time>
      </trkpt>
      <trkpt lat="46.74645" lon="6.30493">
        <ele>927.6</ele>
        <time>2021-08-14T13:49:38Z</time>
      </trkpt>
      <trkpt lat="46.74642" lon="6.30489">
        <ele>927.9</ele>
        <time>2021-08-14T13:49:39Z</time>
      </trkpt>
      <trkpt lat="46.74641" lon="6.30488">
        <ele>928</ele>
        <time>2021-08-14T13:49:40Z</time>
      </trkpt>
      <trkpt lat="46.7464" lon="6.30487">
        <ele>928</ele>
        <time>2021-08-14T13:49:42Z</time>
      </trkpt>
      <trkpt lat="46.7464" lon="6.30486">
        <ele>928.1</ele>
        <time>2021-08-14T13:49:43Z</time>
      </trkpt>
      <trkpt lat="46.74636" lon="6.3048">
        <ele>928.5</ele>
        <time>2021-08-14T13:49:45Z</time>
      </trkpt>
      <trkpt lat="46.74633" lon="6.30476">
        <ele>928.7</ele>
        <time>2021-08-14T13:49:47Z</time>
      </trkpt>
      <trkpt lat="46.74632" lon="6.30472">
        <ele>928.9</ele>
        <time>2021-08-14T13:49:48Z</time>
      </trkpt>
      <trkpt lat="46.7463" lon="6.30468">
        <ele>929.1</ele>
        <time>2021-08-14T13:49:49Z</time>
      </trkpt>
      <trkpt lat="46.7463" lon="6.30464">
        <ele>929.3</ele>
        <time>2021-08-14T13:49:51Z</time>
      </trkpt>
      <trkpt lat="46.7463" lon="6.30462">
        <ele>929.3</ele>
        <time>2021-08-14T13:49:52Z</time>
      </trkpt>
      <trkpt lat="46.74629" lon="6.30458">
        <ele>929.5</ele>
        <time>2021-08-14T13:49:53Z</time>
      </trkpt>
      <trkpt lat="46.74629" lon="6.30457">
        <ele>929.6</ele>
        <time>2021-08-14T13:49:54Z</time>
      </trkpt>
      <trkpt lat="46.74628" lon="6.30452">
        <ele>929.8</ele>
        <time>2021-08-14T13:49:55Z</time>
      </trkpt>
      <trkpt lat="46.74628" lon="6.30451">
        <ele>929.9</ele>
        <time>2021-08-14T13:49:56Z</time>
      </trkpt>
      <trkpt lat="46.74627" lon="6.30447">
        <ele>930.1</ele>
        <time>2021-08-14T13:49:57Z</time>
      </trkpt>
      <trkpt lat="46.74626" lon="6.30446">
        <ele>930.2</ele>
        <time>2021-08-14T13:49:58Z</time>
      </trkpt>
      <trkpt lat="46.74625" lon="6.30443">
        <ele>930.4</ele>
        <time>2021-08-14T13:49:59Z</time>
      </trkpt>
      <trkpt lat="46.74623" lon="6.3044">
        <ele>930.5</ele>
        <time>2021-08-14T13:50:01Z</time>
      </trkpt>
      <trkpt lat="46.74621" lon="6.30437">
        <ele>930.8</ele>
        <time>2021-08-14T13:50:02Z</time>
      </trkpt>
      <trkpt lat="46.74619" lon="6.30435">
        <ele>931</ele>
        <time>2021-08-14T13:50:04Z</time>
      </trkpt>
      <trkpt lat="46.74617" lon="6.30433">
        <ele>931.1</ele>
        <time>2021-08-14T13:50:05Z</time>
      </trkpt>
      <trkpt lat="46.74616" lon="6.30432">
        <ele>931.2</ele>
        <time>2021-08-14T13:50:06Z</time>
      </trkpt>
      <trkpt lat="46.74614" lon="6.30428">
        <ele>931.4</ele>
        <time>2021-08-14T13:50:07Z</time>
      </trkpt>
      <trkpt lat="46.74613" lon="6.30426">
        <ele>931.6</ele>
        <time>2021-08-14T13:50:09Z</time>
      </trkpt>
      <trkpt lat="46.74612" lon="6.30424">
        <ele>931.7</ele>
        <time>2021-08-14T13:50:10Z</time>
      </trkpt>
      <trkpt lat="46.74612" lon="6.30422">
        <ele>931.8</ele>
        <time>2021-08-14T13:50:11Z</time>
      </trkpt>
      <trkpt lat="46.74611" lon="6.30418">
        <ele>932</ele>
        <time>2021-08-14T13:50:13Z</time>
      </trkpt>
      <trkpt lat="46.74611" lon="6.30416">
        <ele>932.1</ele>
        <time>2021-08-14T13:50:14Z</time>
      </trkpt>
      <trkpt lat="46.74611" lon="6.30414">
        <ele>932.2</ele>
        <time>2021-08-14T13:50:15Z</time>
      </trkpt>
      <trkpt lat="46.74611" lon="6.30413">
        <ele>932.3</ele>
        <time>2021-08-14T13:50:17Z</time>
      </trkpt>
      <trkpt lat="46.7461" lon="6.3041">
        <ele>932.5</ele>
        <time>2021-08-14T13:50:18Z</time>
      </trkpt>
      <trkpt lat="46.74608" lon="6.30405">
        <ele>932.7</ele>
        <time>2021-08-14T13:50:19Z</time>
      </trkpt>
      <trkpt lat="46.74607" lon="6.30404">
        <ele>932.8</ele>
        <time>2021-08-14T13:50:20Z</time>
      </trkpt>
      <trkpt lat="46.74604" lon="6.30399">
        <ele>933.1</ele>
        <time>2021-08-14T13:50:21Z</time>
      </trkpt>
      <trkpt lat="46.74601" lon="6.30397">
        <ele>933.4</ele>
        <time>2021-08-14T13:50:23Z</time>
      </trkpt>
      <trkpt lat="46.746" lon="6.30396">
        <ele>933.4</ele>
        <time>2021-08-14T13:50:24Z</time>
      </trkpt>
      <trkpt lat="46.74598" lon="6.30393">
        <ele>933.7</ele>
        <time>2021-08-14T13:50:25Z</time>
      </trkpt>
      <trkpt lat="46.74596" lon="6.3039">
        <ele>933.9</ele>
        <time>2021-08-14T13:50:26Z</time>
      </trkpt>
      <trkpt lat="46.74593" lon="6.30387">
        <ele>934.1</ele>
        <time>2021-08-14T13:50:28Z</time>
      </trkpt>
      <trkpt lat="46.7459" lon="6.30384">
        <ele>934.4</ele>
        <time>2021-08-14T13:50:29Z</time>
      </trkpt>
      <trkpt lat="46.74586" lon="6.30379">
        <ele>934.8</ele>
        <time>2021-08-14T13:50:31Z</time>
      </trkpt>
      <trkpt lat="46.74583" lon="6.30375">
        <ele>935.1</ele>
        <time>2021-08-14T13:50:32Z</time>
      </trkpt>
      <trkpt lat="46.74581" lon="6.30374">
        <ele>935.3</ele>
        <time>2021-08-14T13:50:33Z</time>
      </trkpt>
      <trkpt lat="46.74578" lon="6.30372">
        <ele>935.5</ele>
        <time>2021-08-14T13:50:35Z</time>
      </trkpt>
      <trkpt lat="46.74575" lon="6.3037">
        <ele>935.8</ele>
        <time>2021-08-14T13:50:36Z</time>
      </trkpt>
      <trkpt lat="46.74571" lon="6.30366">
        <ele>936.1</ele>
        <time>2021-08-14T13:50:38Z</time>
      </trkpt>
      <trkpt lat="46.7457" lon="6.30365">
        <ele>936.2</ele>
        <time>2021-08-14T13:50:39Z</time>
      </trkpt>
      <trkpt lat="46.74568" lon="6.30364">
        <ele>936.3</ele>
        <time>2021-08-14T13:50:40Z</time>
      </trkpt>
      <trkpt lat="46.74566" lon="6.30361">
        <ele>936.6</ele>
        <time>2021-08-14T13:50:42Z</time>
      </trkpt>
      <trkpt lat="46.74565" lon="6.3036">
        <ele>936.7</ele>
        <time>2021-08-14T13:50:43Z</time>
      </trkpt>
      <trkpt lat="46.74564" lon="6.30357">
        <ele>936.9</ele>
        <time>2021-08-14T13:50:45Z</time>
      </trkpt>
      <trkpt lat="46.74561" lon="6.30355">
        <ele>937.1</ele>
        <time>2021-08-14T13:50:47Z</time>
      </trkpt>
      <trkpt lat="46.7456" lon="6.30354">
        <ele>937.2</ele>
        <time>2021-08-14T13:50:48Z</time>
      </trkpt>
      <trkpt lat="46.74558" lon="6.30353">
        <ele>937.4</ele>
        <time>2021-08-14T13:50:49Z</time>
      </trkpt>
      <trkpt lat="46.74555" lon="6.30352">
        <ele>937.6</ele>
        <time>2021-08-14T13:50:50Z</time>
      </trkpt>
      <trkpt lat="46.74554" lon="6.30351">
        <ele>937.7</ele>
        <time>2021-08-14T13:50:51Z</time>
      </trkpt>
      <trkpt lat="46.74552" lon="6.30349">
        <ele>938</ele>
        <time>2021-08-14T13:50:52Z</time>
      </trkpt>
      <trkpt lat="46.74551" lon="6.30348">
        <ele>938</ele>
        <time>2021-08-14T13:50:54Z</time>
      </trkpt>
      <trkpt lat="46.74549" lon="6.30346">
        <ele>938.2</ele>
        <time>2021-08-14T13:50:55Z</time>
      </trkpt>
      <trkpt lat="46.74549" lon="6.30345">
        <ele>938.3</ele>
        <time>2021-08-14T13:50:57Z</time>
      </trkpt>
      <trkpt lat="46.74548" lon="6.30344">
        <ele>938.4</ele>
        <time>2021-08-14T13:50:58Z</time>
      </trkpt>
      <trkpt lat="46.74547" lon="6.30342">
        <ele>938.5</ele>
        <time>2021-08-14T13:50:59Z</time>
      </trkpt>
      <trkpt lat="46.74546" lon="6.30339">
        <ele>938.7</ele>
        <time>2021-08-14T13:51:01Z</time>
      </trkpt>
      <trkpt lat="46.74522" lon="6.3032">
        <ele>941.7</ele>
        <time>2021-08-14T13:51:37Z</time>
      </trkpt>
      <trkpt lat="46.74521" lon="6.30319">
        <ele>941.8</ele>
        <time>2021-08-14T13:51:38Z</time>
      </trkpt>
      <trkpt lat="46.74521" lon="6.30317">
        <ele>942</ele>
        <time>2021-08-14T13:51:40Z</time>
      </trkpt>
      <trkpt lat="46.74521" lon="6.30316">
        <ele>942.1</ele>
        <time>2021-08-14T13:51:41Z</time>
      </trkpt>
      <trkpt lat="46.74521" lon="6.30316">
        <ele>942.1</ele>
        <time>2021-08-14T13:51:42Z</time>
      </trkpt>
      <trkpt lat="46.74521" lon="6.30315">
        <ele>942.2</ele>
        <time>2021-08-14T13:51:43Z</time>
      </trkpt>
      <trkpt lat="46.7452" lon="6.30315">
        <ele>942.2</ele>
        <time>2021-08-14T13:51:44Z</time>
      </trkpt>
      <trkpt lat="46.7452" lon="6.30314">
        <ele>942.2</ele>
        <time>2021-08-14T13:51:46Z</time>
      </trkpt>
      <trkpt lat="46.7452" lon="6.30314">
        <ele>942.2</ele>
        <time>2021-08-14T13:51:47Z</time>
      </trkpt>
      <trkpt lat="46.7452" lon="6.30314">
        <ele>942.3</ele>
        <time>2021-08-14T13:51:48Z</time>
      </trkpt>
      <trkpt lat="46.7452" lon="6.30314">
        <ele>942.3</ele>
        <time>2021-08-14T13:51:50Z</time>
      </trkpt>
      <trkpt lat="46.7452" lon="6.30314">
        <ele>942.3</ele>
        <time>2021-08-14T13:51:51Z</time>
      </trkpt>
      <trkpt lat="46.7452" lon="6.30313">
        <ele>942.3</ele>
        <time>2021-08-14T13:51:52Z</time>
      </trkpt>
      <trkpt lat="46.7452" lon="6.30313">
        <ele>942.3</ele>
        <time>2021-08-14T13:51:53Z</time>
      </trkpt>
      <trkpt lat="46.7452" lon="6.30313">
        <ele>942.3</ele>
        <time>2021-08-14T13:51:54Z</time>
      </trkpt>
      <trkpt lat="46.7452" lon="6.30313">
        <ele>942.3</ele>
        <time>2021-08-14T13:51:55Z</time>
      </trkpt>
      <trkpt lat="46.7452" lon="6.30313">
        <ele>942.3</ele>
        <time>2021-08-14T13:51:57Z</time>
      </trkpt>
      <trkpt lat="46.74518" lon="6.30313">
        <ele>942.5</ele>
        <time>2021-08-14T13:51:58Z</time>
      </trkpt>
      <trkpt lat="46.74516" lon="6.30313">
        <ele>942.8</ele>
        <time>2021-08-14T13:52:00Z</time>
      </trkpt>
      <trkpt lat="46.74515" lon="6.30313">
        <ele>942.9</ele>
        <time>2021-08-14T13:52:01Z</time>
      </trkpt>
      <trkpt lat="46.74512" lon="6.30314">
        <ele>943.3</ele>
        <time>2021-08-14T13:52:02Z</time>
      </trkpt>
      <trkpt lat="46.74509" lon="6.30315">
        <ele>943.6</ele>
        <time>2021-08-14T13:52:04Z</time>
      </trkpt>
      <trkpt lat="46.74508" lon="6.30315">
        <ele>943.7</ele>
        <time>2021-08-14T13:52:05Z</time>
      </trkpt>
      <trkpt lat="46.74505" lon="6.30315">
        <ele>944.1</ele>
        <time>2021-08-14T13:52:06Z</time>
      </trkpt>
      <trkpt lat="46.74502" lon="6.30315">
        <ele>944.5</ele>
        <time>2021-08-14T13:52:07Z</time>
      </trkpt>
      <trkpt lat="46.74502" lon="6.30316">
        <ele>944.6</ele>
        <time>2021-08-14T13:52:08Z</time>
      </trkpt>
      <trkpt lat="46.745" lon="6.30316">
        <ele>944.7</ele>
        <time>2021-08-14T13:52:10Z</time>
      </trkpt>
      <trkpt lat="46.745" lon="6.30317">
        <ele>944.8</ele>
        <time>2021-08-14T13:52:11Z</time>
      </trkpt>
      <trkpt lat="46.74499" lon="6.30317">
        <ele>944.9</ele>
        <time>2021-08-14T13:52:12Z</time>
      </trkpt>
      <trkpt lat="46.74498" lon="6.30317">
        <ele>945</ele>
        <time>2021-08-14T13:52:13Z</time>
      </trkpt>
      <trkpt lat="46.74498" lon="6.30318">
        <ele>945.1</ele>
        <time>2021-08-14T13:52:15Z</time>
      </trkpt>
      <trkpt lat="46.74497" lon="6.30319">
        <ele>945.2</ele>
        <time>2021-08-14T13:52:17Z</time>
      </trkpt>
      <trkpt lat="46.74497" lon="6.3032">
        <ele>945.3</ele>
        <time>2021-08-14T13:52:19Z</time>
      </trkpt>
      <trkpt lat="46.74497" lon="6.30321">
        <ele>945.4</ele>
        <time>2021-08-14T13:52:20Z</time>
      </trkpt>
      <trkpt lat="46.74496" lon="6.30322">
        <ele>945.5</ele>
        <time>2021-08-14T13:52:21Z</time>
      </trkpt>
      <trkpt lat="46.74496" lon="6.30323">
        <ele>945.5</ele>
        <time>2021-08-14T13:52:22Z</time>
      </trkpt>
      <trkpt lat="46.74495" lon="6.30327">
        <ele>946</ele>
        <time>2021-08-14T13:52:24Z</time>
      </trkpt>
      <trkpt lat="46.74495" lon="6.30329">
        <ele>946.1</ele>
        <time>2021-08-14T13:52:25Z</time>
      </trkpt>
      <trkpt lat="46.74495" lon="6.30331">
        <ele>946.3</ele>
        <time>2021-08-14T13:52:27Z</time>
      </trkpt>
      <trkpt lat="46.74495" lon="6.30331">
        <ele>946.3</ele>
        <time>2021-08-14T13:52:28Z</time>
      </trkpt>
      <trkpt lat="46.74494" lon="6.30332">
        <ele>946.4</ele>
        <time>2021-08-14T13:52:29Z</time>
      </trkpt>
      <trkpt lat="46.74494" lon="6.30333">
        <ele>946.4</ele>
        <time>2021-08-14T13:52:30Z</time>
      </trkpt>
      <trkpt lat="46.74494" lon="6.30334">
        <ele>946.5</ele>
        <time>2021-08-14T13:52:32Z</time>
      </trkpt>
      <trkpt lat="46.74494" lon="6.30336">
        <ele>946.7</ele>
        <time>2021-08-14T13:52:33Z</time>
      </trkpt>
      <trkpt lat="46.74494" lon="6.30339">
        <ele>947</ele>
        <time>2021-08-14T13:52:35Z</time>
      </trkpt>
      <trkpt lat="46.74494" lon="6.3034">
        <ele>947.1</ele>
        <time>2021-08-14T13:52:36Z</time>
      </trkpt>
      <trkpt lat="46.74494" lon="6.30345">
        <ele>947.4</ele>
        <time>2021-08-14T13:52:38Z</time>
      </trkpt>
      <trkpt lat="46.74494" lon="6.30346">
        <ele>947.5</ele>
        <time>2021-08-14T13:52:39Z</time>
      </trkpt>
      <trkpt lat="46.74493" lon="6.30347">
        <ele>947.6</ele>
        <time>2021-08-14T13:52:40Z</time>
      </trkpt>
      <trkpt lat="46.74493" lon="6.30348">
        <ele>947.7</ele>
        <time>2021-08-14T13:52:41Z</time>
      </trkpt>
      <trkpt lat="46.74493" lon="6.30349">
        <ele>947.8</ele>
        <time>2021-08-14T13:52:43Z</time>
      </trkpt>
      <trkpt lat="46.74493" lon="6.30349">
        <ele>947.8</ele>
        <time>2021-08-14T13:52:44Z</time>
      </trkpt>
      <trkpt lat="46.74493" lon="6.30351">
        <ele>947.9</ele>
        <time>2021-08-14T13:52:45Z</time>
      </trkpt>
      <trkpt lat="46.74494" lon="6.30354">
        <ele>948.2</ele>
        <time>2021-08-14T13:52:47Z</time>
      </trkpt>
      <trkpt lat="46.74495" lon="6.3036">
        <ele>948.6</ele>
        <time>2021-08-14T13:52:48Z</time>
      </trkpt>
      <trkpt lat="46.74495" lon="6.30363">
        <ele>948.8</ele>
        <time>2021-08-14T13:52:49Z</time>
      </trkpt>
      <trkpt lat="46.74497" lon="6.3037">
        <ele>949.3</ele>
        <time>2021-08-14T13:52:51Z</time>
      </trkpt>
      <trkpt lat="46.74497" lon="6.30373">
        <ele>949.5</ele>
        <time>2021-08-14T13:52:53Z</time>
      </trkpt>
      <trkpt lat="46.74498" lon="6.30375">
        <ele>949.6</ele>
        <time>2021-08-14T13:52:54Z</time>
      </trkpt>
      <trkpt lat="46.74498" lon="6.30378">
        <ele>949.8</ele>
        <time>2021-08-14T13:52:55Z</time>
      </trkpt>
      <trkpt lat="46.74498" lon="6.30381">
        <ele>949.9</ele>
        <time>2021-08-14T13:52:56Z</time>
      </trkpt>
      <trkpt lat="46.74498" lon="6.30387">
        <ele>950.2</ele>
        <time>2021-08-14T13:52:58Z</time>
      </trkpt>
      <trkpt lat="46.74498" lon="6.30391">
        <ele>950.4</ele>
        <time>2021-08-14T13:52:59Z</time>
      </trkpt>
      <trkpt lat="46.74498" lon="6.30393">
        <ele>950.5</ele>
        <time>2021-08-14T13:53:00Z</time>
      </trkpt>
      <trkpt lat="46.74498" lon="6.30398">
        <ele>950.7</ele>
        <time>2021-08-14T13:53:02Z</time>
      </trkpt>
      <trkpt lat="46.74497" lon="6.304">
        <ele>950.8</ele>
        <time>2021-08-14T13:53:03Z</time>
      </trkpt>
      <trkpt lat="46.74496" lon="6.30402">
        <ele>950.9</ele>
        <time>2021-08-14T13:53:04Z</time>
      </trkpt>
      <trkpt lat="46.74496" lon="6.30403">
        <ele>951</ele>
        <time>2021-08-14T13:53:06Z</time>
      </trkpt>
      <trkpt lat="46.74495" lon="6.30404">
        <ele>951.1</ele>
        <time>2021-08-14T13:53:07Z</time>
      </trkpt>
      <trkpt lat="46.74494" lon="6.30406">
        <ele>951.2</ele>
        <time>2021-08-14T13:53:08Z</time>
      </trkpt>
      <trkpt lat="46.74492" lon="6.30409">
        <ele>951.4</ele>
        <time>2021-08-14T13:53:10Z</time>
      </trkpt>
      <trkpt lat="46.74491" lon="6.3041">
        <ele>951.5</ele>
        <time>2021-08-14T13:53:11Z</time>
      </trkpt>
      <trkpt lat="46.74489" lon="6.30413">
        <ele>951.7</ele>
        <time>2021-08-14T13:53:13Z</time>
      </trkpt>
      <trkpt lat="46.74487" lon="6.30417">
        <ele>952</ele>
        <time>2021-08-14T13:53:15Z</time>
      </trkpt>
      <trkpt lat="46.74487" lon="6.30418">
        <ele>952.1</ele>
        <time>2021-08-14T13:53:16Z</time>
      </trkpt>
      <trkpt lat="46.74486" lon="6.3042">
        <ele>952.2</ele>
        <time>2021-08-14T13:53:17Z</time>
      </trkpt>
      <trkpt lat="46.74485" lon="6.30423">
        <ele>952.4</ele>
        <time>2021-08-14T13:53:19Z</time>
      </trkpt>
      <trkpt lat="46.74484" lon="6.30426">
        <ele>952.6</ele>
        <time>2021-08-14T13:53:20Z</time>
      </trkpt>
      <trkpt lat="46.74484" lon="6.30426">
        <ele>952.6</ele>
        <time>2021-08-14T13:53:21Z</time>
      </trkpt>
      <trkpt lat="46.74484" lon="6.30426">
        <ele>952.6</ele>
        <time>2021-08-14T13:53:23Z</time>
      </trkpt>
      <trkpt lat="46.74484" lon="6.30427">
        <ele>952.7</ele>
        <time>2021-08-14T13:53:24Z</time>
      </trkpt>
      <trkpt lat="46.74483" lon="6.30427">
        <ele>952.7</ele>
        <time>2021-08-14T13:53:25Z</time>
      </trkpt>
      <trkpt lat="46.74482" lon="6.30428">
        <ele>952.8</ele>
        <time>2021-08-14T13:53:26Z</time>
      </trkpt>
      <trkpt lat="46.74481" lon="6.30429">
        <ele>953</ele>
        <time>2021-08-14T13:53:28Z</time>
      </trkpt>
      <trkpt lat="46.7448" lon="6.30431">
        <ele>953.1</ele>
        <time>2021-08-14T13:53:29Z</time>
      </trkpt>
      <trkpt lat="46.74479" lon="6.30432">
        <ele>953.2</ele>
        <time>2021-08-14T13:53:30Z</time>
      </trkpt>
      <trkpt lat="46.74457" lon="6.30486">
        <ele>957.1</ele>
        <time>2021-08-14T13:54:04Z</time>
      </trkpt>
      <trkpt lat="46.74455" lon="6.30491">
        <ele>957.4</ele>
        <time>2021-08-14T13:54:06Z</time>
      </trkpt>
      <trkpt lat="46.74452" lon="6.30497">
        <ele>957.8</ele>
        <time>2021-08-14T13:54:08Z</time>
      </trkpt>
      <trkpt lat="46.74452" lon="6.30498">
        <ele>957.9</ele>
        <time>2021-08-14T13:54:09Z</time>
      </trkpt>
      <trkpt lat="46.74451" lon="6.305">
        <ele>958</ele>
        <time>2021-08-14T13:54:11Z</time>
      </trkpt>
      <trkpt lat="46.7445" lon="6.30501">
        <ele>958.1</ele>
        <time>2021-08-14T13:54:12Z</time>
      </trkpt>
      <trkpt lat="46.74449" lon="6.30502">
        <ele>958.1</ele>
        <time>2021-08-14T13:54:13Z</time>
      </trkpt>
      <trkpt lat="46.74449" lon="6.30504">
        <ele>958.2</ele>
        <time>2021-08-14T13:54:14Z</time>
      </trkpt>
      <trkpt lat="46.74447" lon="6.30507">
        <ele>958.5</ele>
        <time>2021-08-14T13:54:16Z</time>
      </trkpt>
      <trkpt lat="46.74446" lon="6.30509">
        <ele>958.6</ele>
        <time>2021-08-14T13:54:17Z</time>
      </trkpt>
      <trkpt lat="46.74445" lon="6.30509">
        <ele>958.6</ele>
        <time>2021-08-14T13:54:19Z</time>
      </trkpt>
      <trkpt lat="46.74445" lon="6.30509">
        <ele>958.7</ele>
        <time>2021-08-14T13:54:20Z</time>
      </trkpt>
      <trkpt lat="46.74444" lon="6.3051">
        <ele>958.8</ele>
        <time>2021-08-14T13:54:22Z</time>
      </trkpt>
      <trkpt lat="46.74441" lon="6.30518">
        <ele>959.3</ele>
        <time>2021-08-14T13:54:23Z</time>
      </trkpt>
      <trkpt lat="46.74438" lon="6.30525">
        <ele>959.8</ele>
        <time>2021-08-14T13:54:25Z</time>
      </trkpt>
      <trkpt lat="46.74435" lon="6.30532">
        <ele>960.4</ele>
        <time>2021-08-14T13:54:26Z</time>
      </trkpt>
      <trkpt lat="46.74433" lon="6.30539">
        <ele>960.9</ele>
        <time>2021-08-14T13:54:43Z</time>
      </trkpt>
      <trkpt lat="46.7443" lon="6.30546">
        <ele>961.5</ele>
        <time>2021-08-14T13:54:44Z</time>
      </trkpt>
      <trkpt lat="46.74429" lon="6.30552">
        <ele>962</ele>
        <time>2021-08-14T13:54:46Z</time>
      </trkpt>
      <trkpt lat="46.74428" lon="6.30554">
        <ele>962.2</ele>
        <time>2021-08-14T13:54:47Z</time>
      </trkpt>
      <trkpt lat="46.74428" lon="6.30556">
        <ele>962.3</ele>
        <time>2021-08-14T13:54:48Z</time>
      </trkpt>
      <trkpt lat="46.74427" lon="6.30558">
        <ele>962.5</ele>
        <time>2021-08-14T13:54:49Z</time>
      </trkpt>
      <trkpt lat="46.74427" lon="6.3056">
        <ele>962.7</ele>
        <time>2021-08-14T13:54:50Z</time>
      </trkpt>
      <trkpt lat="46.74426" lon="6.30566">
        <ele>963.2</ele>
        <time>2021-08-14T13:54:52Z</time>
      </trkpt>
      <trkpt lat="46.74425" lon="6.30572">
        <ele>963.6</ele>
        <time>2021-08-14T13:54:54Z</time>
      </trkpt>
      <trkpt lat="46.74423" lon="6.30577">
        <ele>964</ele>
        <time>2021-08-14T13:54:55Z</time>
      </trkpt>
      <trkpt lat="46.74422" lon="6.30582">
        <ele>964.5</ele>
        <time>2021-08-14T13:54:57Z</time>
      </trkpt>
      <trkpt lat="46.7442" lon="6.30587">
        <ele>964.9</ele>
        <time>2021-08-14T13:54:59Z</time>
      </trkpt>
      <trkpt lat="46.74419" lon="6.30592">
        <ele>965.3</ele>
        <time>2021-08-14T13:55:25Z</time>
      </trkpt>
      <trkpt lat="46.74417" lon="6.30597">
        <ele>965.8</ele>
        <time>2021-08-14T13:55:26Z</time>
      </trkpt>
      <trkpt lat="46.74416" lon="6.30603">
        <ele>967.1</ele>
        <time>2021-08-14T13:55:27Z</time>
      </trkpt>
      <trkpt lat="46.74415" lon="6.30604">
        <ele>967.3</ele>
        <time>2021-08-14T13:55:29Z</time>
      </trkpt>
      <trkpt lat="46.74413" lon="6.30605">
        <ele>967.4</ele>
        <time>2021-08-14T13:55:30Z</time>
      </trkpt>
      <trkpt lat="46.74412" lon="6.30605">
        <ele>967.5</ele>
        <time>2021-08-14T13:55:31Z</time>
      </trkpt>
      <trkpt lat="46.74411" lon="6.30606">
        <ele>967.6</ele>
        <time>2021-08-14T13:55:33Z</time>
      </trkpt>
      <trkpt lat="46.74411" lon="6.30606">
        <ele>967.6</ele>
        <time>2021-08-14T13:55:34Z</time>
      </trkpt>
      <trkpt lat="46.7441" lon="6.30606">
        <ele>967.7</ele>
        <time>2021-08-14T13:55:35Z</time>
      </trkpt>
      <trkpt lat="46.7441" lon="6.30606">
        <ele>967.7</ele>
        <time>2021-08-14T13:55:36Z</time>
      </trkpt>
      <trkpt lat="46.74408" lon="6.30606">
        <ele>967.8</ele>
        <time>2021-08-14T13:55:38Z</time>
      </trkpt>
      <trkpt lat="46.74406" lon="6.30606">
        <ele>968.1</ele>
        <time>2021-08-14T13:55:40Z</time>
      </trkpt>
      <trkpt lat="46.74403" lon="6.30605">
        <ele>968.3</ele>
        <time>2021-08-14T13:55:41Z</time>
      </trkpt>
      <trkpt lat="46.74402" lon="6.30605">
        <ele>968.3</ele>
        <time>2021-08-14T13:55:42Z</time>
      </trkpt>
      <trkpt lat="46.74401" lon="6.30604">
        <ele>968.5</ele>
        <time>2021-08-14T13:55:44Z</time>
      </trkpt>
      <trkpt lat="46.74399" lon="6.30603">
        <ele>968.6</ele>
        <time>2021-08-14T13:55:45Z</time>
      </trkpt>
      <trkpt lat="46.74398" lon="6.30602">
        <ele>968.7</ele>
        <time>2021-08-14T13:55:46Z</time>
      </trkpt>
      <trkpt lat="46.74396" lon="6.30601">
        <ele>968.8</ele>
        <time>2021-08-14T13:55:48Z</time>
      </trkpt>
      <trkpt lat="46.74396" lon="6.30601">
        <ele>968.8</ele>
        <time>2021-08-14T13:55:49Z</time>
      </trkpt>
      <trkpt lat="46.74396" lon="6.30601">
        <ele>968.8</ele>
        <time>2021-08-14T13:55:50Z</time>
      </trkpt>
      <trkpt lat="46.74396" lon="6.306">
        <ele>968.8</ele>
        <time>2021-08-14T13:55:52Z</time>
      </trkpt>
      <trkpt lat="46.74396" lon="6.306">
        <ele>968.8</ele>
        <time>2021-08-14T13:55:53Z</time>
      </trkpt>
      <trkpt lat="46.74396" lon="6.306">
        <ele>968.8</ele>
        <time>2021-08-14T13:55:54Z</time>
      </trkpt>
      <trkpt lat="46.74396" lon="6.306">
        <ele>968.9</ele>
        <time>2021-08-14T13:55:55Z</time>
      </trkpt>
      <trkpt lat="46.74396" lon="6.306">
        <ele>968.9</ele>
        <time>2021-08-14T13:55:57Z</time>
      </trkpt>
      <trkpt lat="46.74396" lon="6.306">
        <ele>968.9</ele>
        <time>2021-08-14T13:55:58Z</time>
      </trkpt>
      <trkpt lat="46.74396" lon="6.30599">
        <ele>968.9</ele>
        <time>2021-08-14T13:55:59Z</time>
      </trkpt>
      <trkpt lat="46.74396" lon="6.30599">
        <ele>968.9</ele>
        <time>2021-08-14T13:56:00Z</time>
      </trkpt>
      <trkpt lat="46.74396" lon="6.30599">
        <ele>968.9</ele>
        <time>2021-08-14T13:56:02Z</time>
      </trkpt>
      <trkpt lat="46.74396" lon="6.30599">
        <ele>968.9</ele>
        <time>2021-08-14T13:56:03Z</time>
      </trkpt>
      <trkpt lat="46.74382" lon="6.30595">
        <ele>969.8</ele>
        <time>2021-08-14T13:56:13Z</time>
      </trkpt>
      <trkpt lat="46.74378" lon="6.30593">
        <ele>970</ele>
        <time>2021-08-14T13:56:15Z</time>
      </trkpt>
      <trkpt lat="46.74376" lon="6.30592">
        <ele>970.2</ele>
        <time>2021-08-14T13:56:17Z</time>
      </trkpt>
      <trkpt lat="46.74376" lon="6.30591">
        <ele>970.2</ele>
        <time>2021-08-14T13:56:18Z</time>
      </trkpt>
      <trkpt lat="46.74372" lon="6.30591">
        <ele>970.4</ele>
        <time>2021-08-14T13:56:20Z</time>
      </trkpt>
      <trkpt lat="46.7437" lon="6.3059">
        <ele>970.5</ele>
        <time>2021-08-14T13:56:21Z</time>
      </trkpt>
      <trkpt lat="46.74367" lon="6.3059">
        <ele>970.7</ele>
        <time>2021-08-14T13:56:23Z</time>
      </trkpt>
      <trkpt lat="46.74363" lon="6.30591">
        <ele>971</ele>
        <time>2021-08-14T13:56:24Z</time>
      </trkpt>
      <trkpt lat="46.74361" lon="6.30591">
        <ele>971.1</ele>
        <time>2021-08-14T13:56:25Z</time>
      </trkpt>
      <trkpt lat="46.74358" lon="6.30593">
        <ele>971.4</ele>
        <time>2021-08-14T13:56:27Z</time>
      </trkpt>
      <trkpt lat="46.74356" lon="6.30593">
        <ele>971.5</ele>
        <time>2021-08-14T13:56:28Z</time>
      </trkpt>
      <trkpt lat="46.74355" lon="6.30594">
        <ele>971.6</ele>
        <time>2021-08-14T13:56:29Z</time>
      </trkpt>
      <trkpt lat="46.74354" lon="6.30594">
        <ele>971.6</ele>
        <time>2021-08-14T13:56:31Z</time>
      </trkpt>
      <trkpt lat="46.74354" lon="6.30594">
        <ele>971.6</ele>
        <time>2021-08-14T13:56:32Z</time>
      </trkpt>
      <trkpt lat="46.74353" lon="6.30594">
        <ele>971.7</ele>
        <time>2021-08-14T13:56:34Z</time>
      </trkpt>
      <trkpt lat="46.74353" lon="6.30594">
        <ele>971.8</ele>
        <time>2021-08-14T13:56:35Z</time>
      </trkpt>
      <trkpt lat="46.74352" lon="6.30594">
        <ele>971.8</ele>
        <time>2021-08-14T13:56:36Z</time>
      </trkpt>
      <trkpt lat="46.74352" lon="6.30594">
        <ele>971.8</ele>
        <time>2021-08-14T13:56:38Z</time>
      </trkpt>
      <trkpt lat="46.74341" lon="6.3059">
        <ele>972.7</ele>
        <time>2021-08-14T13:56:49Z</time>
      </trkpt>
      <trkpt lat="46.74339" lon="6.30589">
        <ele>972.9</ele>
        <time>2021-08-14T13:56:51Z</time>
      </trkpt>
      <trkpt lat="46.74338" lon="6.30589">
        <ele>973</ele>
        <time>2021-08-14T13:56:52Z</time>
      </trkpt>
      <trkpt lat="46.74335" lon="6.30589">
        <ele>973.2</ele>
        <time>2021-08-14T13:56:54Z</time>
      </trkpt>
      <trkpt lat="46.74335" lon="6.30589">
        <ele>973.3</ele>
        <time>2021-08-14T13:56:55Z</time>
      </trkpt>
      <trkpt lat="46.74334" lon="6.30589">
        <ele>973.3</ele>
        <time>2021-08-14T13:56:56Z</time>
      </trkpt>
      <trkpt lat="46.74334" lon="6.30589">
        <ele>973.3</ele>
        <time>2021-08-14T13:56:58Z</time>
      </trkpt>
      <trkpt lat="46.74333" lon="6.30589">
        <ele>973.4</ele>
        <time>2021-08-14T13:56:59Z</time>
      </trkpt>
      <trkpt lat="46.74333" lon="6.30589">
        <ele>973.4</ele>
        <time>2021-08-14T13:57:01Z</time>
      </trkpt>
      <trkpt lat="46.74332" lon="6.30589">
        <ele>973.5</ele>
        <time>2021-08-14T13:57:02Z</time>
      </trkpt>
      <trkpt lat="46.7433" lon="6.30588">
        <ele>973.7</ele>
        <time>2021-08-14T13:57:04Z</time>
      </trkpt>
      <trkpt lat="46.74329" lon="6.30587">
        <ele>973.8</ele>
        <time>2021-08-14T13:57:05Z</time>
      </trkpt>
      <trkpt lat="46.74327" lon="6.30587">
        <ele>973.9</ele>
        <time>2021-08-14T13:57:06Z</time>
      </trkpt>
      <trkpt lat="46.74325" lon="6.30586">
        <ele>974.1</ele>
        <time>2021-08-14T13:57:07Z</time>
      </trkpt>
      <trkpt lat="46.74324" lon="6.30586">
        <ele>974.1</ele>
        <time>2021-08-14T13:57:09Z</time>
      </trkpt>
      <trkpt lat="46.74323" lon="6.30585">
        <ele>974.2</ele>
        <time>2021-08-14T13:57:11Z</time>
      </trkpt>
      <trkpt lat="46.74323" lon="6.30585">
        <ele>974.3</ele>
        <time>2021-08-14T13:57:12Z</time>
      </trkpt>
      <trkpt lat="46.74322" lon="6.30585">
        <ele>974.3</ele>
        <time>2021-08-14T13:57:13Z</time>
      </trkpt>
      <trkpt lat="46.74322" lon="6.30584">
        <ele>974.3</ele>
        <time>2021-08-14T13:57:14Z</time>
      </trkpt>
      <trkpt lat="46.74322" lon="6.30584">
        <ele>974.4</ele>
        <time>2021-08-14T13:57:16Z</time>
      </trkpt>
      <trkpt lat="46.74322" lon="6.30584">
        <ele>974.4</ele>
        <time>2021-08-14T13:57:18Z</time>
      </trkpt>
      <trkpt lat="46.74321" lon="6.30584">
        <ele>974.4</ele>
        <time>2021-08-14T13:57:19Z</time>
      </trkpt>
      <trkpt lat="46.74321" lon="6.30584">
        <ele>974.5</ele>
        <time>2021-08-14T13:57:20Z</time>
      </trkpt>
      <trkpt lat="46.74321" lon="6.30584">
        <ele>974.5</ele>
        <time>2021-08-14T13:57:22Z</time>
      </trkpt>
      <trkpt lat="46.74321" lon="6.30584">
        <ele>974.5</ele>
        <time>2021-08-14T13:57:24Z</time>
      </trkpt>
      <trkpt lat="46.74321" lon="6.30584">
        <ele>974.5</ele>
        <time>2021-08-14T13:57:25Z</time>
      </trkpt>
      <trkpt lat="46.74321" lon="6.30583">
        <ele>974.5</ele>
        <time>2021-08-14T13:57:26Z</time>
      </trkpt>
      <trkpt lat="46.74321" lon="6.30583">
        <ele>974.5</ele>
        <time>2021-08-14T13:57:28Z</time>
      </trkpt>
      <trkpt lat="46.74321" lon="6.30583">
        <ele>974.5</ele>
        <time>2021-08-14T13:57:30Z</time>
      </trkpt>
      <trkpt lat="46.74321" lon="6.30583">
        <ele>974.5</ele>
        <time>2021-08-14T13:57:32Z</time>
      </trkpt>
      <trkpt lat="46.74321" lon="6.30583">
        <ele>974.5</ele>
        <time>2021-08-14T13:57:33Z</time>
      </trkpt>
      <trkpt lat="46.74321" lon="6.30583">
        <ele>974.6</ele>
        <time>2021-08-14T13:57:34Z</time>
      </trkpt>
      <trkpt lat="46.7432" lon="6.30584">
        <ele>974.7</ele>
        <time>2021-08-14T13:57:36Z</time>
      </trkpt>
      <trkpt lat="46.74318" lon="6.30586">
        <ele>974.9</ele>
        <time>2021-08-14T13:57:37Z</time>
      </trkpt>
      <trkpt lat="46.74317" lon="6.30586">
        <ele>975.1</ele>
        <time>2021-08-14T13:57:39Z</time>
      </trkpt>
      <trkpt lat="46.74315" lon="6.30588">
        <ele>975.4</ele>
        <time>2021-08-14T13:57:41Z</time>
      </trkpt>
      <trkpt lat="46.74314" lon="6.30588">
        <ele>975.5</ele>
        <time>2021-08-14T13:57:42Z</time>
      </trkpt>
      <trkpt lat="46.74313" lon="6.30589">
        <ele>975.7</ele>
        <time>2021-08-14T13:57:44Z</time>
      </trkpt>
      <trkpt lat="46.74312" lon="6.3059">
        <ele>975.8</ele>
        <time>2021-08-14T13:57:45Z</time>
      </trkpt>
      <trkpt lat="46.74311" lon="6.3059">
        <ele>975.9</ele>
        <time>2021-08-14T13:57:47Z</time>
      </trkpt>
      <trkpt lat="46.74311" lon="6.3059">
        <ele>976</ele>
        <time>2021-08-14T13:57:48Z</time>
      </trkpt>
      <trkpt lat="46.74311" lon="6.30591">
        <ele>976</ele>
        <time>2021-08-14T13:57:49Z</time>
      </trkpt>
      <trkpt lat="46.7431" lon="6.30591">
        <ele>976.1</ele>
        <time>2021-08-14T13:57:51Z</time>
      </trkpt>
      <trkpt lat="46.74309" lon="6.30592">
        <ele>976.4</ele>
        <time>2021-08-14T13:57:52Z</time>
      </trkpt>
      <trkpt lat="46.74306" lon="6.30595">
        <ele>976.9</ele>
        <time>2021-08-14T13:57:54Z</time>
      </trkpt>
      <trkpt lat="46.74305" lon="6.30596">
        <ele>977.1</ele>
        <time>2021-08-14T13:57:55Z</time>
      </trkpt>
      <trkpt lat="46.74304" lon="6.30597">
        <ele>977.3</ele>
        <time>2021-08-14T13:57:56Z</time>
      </trkpt>
      <trkpt lat="46.74303" lon="6.30598">
        <ele>977.5</ele>
        <time>2021-08-14T13:57:58Z</time>
      </trkpt>
      <trkpt lat="46.74302" lon="6.30599">
        <ele>977.6</ele>
        <time>2021-08-14T13:57:59Z</time>
      </trkpt>
      <trkpt lat="46.74302" lon="6.30599">
        <ele>977.7</ele>
        <time>2021-08-14T13:58:00Z</time>
      </trkpt>
      <trkpt lat="46.74301" lon="6.306">
        <ele>977.8</ele>
        <time>2021-08-14T13:58:01Z</time>
      </trkpt>
      <trkpt lat="46.74301" lon="6.30601">
        <ele>978</ele>
        <time>2021-08-14T13:58:02Z</time>
      </trkpt>
      <trkpt lat="46.743" lon="6.30603">
        <ele>978.2</ele>
        <time>2021-08-14T13:58:04Z</time>
      </trkpt>
      <trkpt lat="46.74298" lon="6.30604">
        <ele>978.6</ele>
        <time>2021-08-14T13:58:05Z</time>
      </trkpt>
      <trkpt lat="46.74296" lon="6.30605">
        <ele>978.8</ele>
        <time>2021-08-14T13:58:07Z</time>
      </trkpt>
      <trkpt lat="46.74295" lon="6.30606">
        <ele>979.1</ele>
        <time>2021-08-14T13:58:08Z</time>
      </trkpt>
      <trkpt lat="46.74294" lon="6.30606">
        <ele>979.2</ele>
        <time>2021-08-14T13:58:09Z</time>
      </trkpt>
      <trkpt lat="46.74293" lon="6.30606">
        <ele>979.3</ele>
        <time>2021-08-14T13:58:11Z</time>
      </trkpt>
      <trkpt lat="46.74293" lon="6.30607">
        <ele>979.4</ele>
        <time>2021-08-14T13:58:12Z</time>
      </trkpt>
      <trkpt lat="46.74293" lon="6.30608">
        <ele>979.5</ele>
        <time>2021-08-14T13:58:14Z</time>
      </trkpt>
      <trkpt lat="46.74292" lon="6.30608">
        <ele>979.5</ele>
        <time>2021-08-14T13:58:15Z</time>
      </trkpt>
      <trkpt lat="46.74292" lon="6.30608">
        <ele>979.6</ele>
        <time>2021-08-14T13:58:16Z</time>
      </trkpt>
      <trkpt lat="46.74292" lon="6.30609">
        <ele>979.6</ele>
        <time>2021-08-14T13:58:18Z</time>
      </trkpt>
      <trkpt lat="46.74292" lon="6.30609">
        <ele>979.7</ele>
        <time>2021-08-14T13:58:19Z</time>
      </trkpt>
      <trkpt lat="46.74292" lon="6.30609">
        <ele>979.7</ele>
        <time>2021-08-14T13:58:21Z</time>
      </trkpt>
      <trkpt lat="46.74292" lon="6.30609">
        <ele>979.7</ele>
        <time>2021-08-14T13:58:22Z</time>
      </trkpt>
      <trkpt lat="46.74292" lon="6.30609">
        <ele>979.8</ele>
        <time>2021-08-14T13:58:23Z</time>
      </trkpt>
      <trkpt lat="46.74291" lon="6.3061">
        <ele>979.9</ele>
        <time>2021-08-14T13:58:24Z</time>
      </trkpt>
      <trkpt lat="46.74289" lon="6.30613">
        <ele>980.3</ele>
        <time>2021-08-14T13:58:26Z</time>
      </trkpt>
      <trkpt lat="46.74288" lon="6.30614">
        <ele>980.5</ele>
        <time>2021-08-14T13:58:27Z</time>
      </trkpt>
      <trkpt lat="46.74287" lon="6.30616">
        <ele>980.8</ele>
        <time>2021-08-14T13:58:28Z</time>
      </trkpt>
      <trkpt lat="46.74285" lon="6.30618">
        <ele>981.2</ele>
        <time>2021-08-14T13:58:30Z</time>
      </trkpt>
      <trkpt lat="46.74284" lon="6.30619">
        <ele>981.4</ele>
        <time>2021-08-14T13:58:31Z</time>
      </trkpt>
      <trkpt lat="46.74283" lon="6.3062">
        <ele>981.6</ele>
        <time>2021-08-14T13:58:33Z</time>
      </trkpt>
      <trkpt lat="46.74282" lon="6.3062">
        <ele>981.7</ele>
        <time>2021-08-14T13:58:34Z</time>
      </trkpt>
      <trkpt lat="46.74279" lon="6.30622">
        <ele>982.3</ele>
        <time>2021-08-14T13:58:36Z</time>
      </trkpt>
      <trkpt lat="46.74278" lon="6.30623">
        <ele>982.5</ele>
        <time>2021-08-14T13:58:37Z</time>
      </trkpt>
      <trkpt lat="46.74276" lon="6.30623">
        <ele>982.7</ele>
        <time>2021-08-14T13:58:39Z</time>
      </trkpt>
      <trkpt lat="46.74275" lon="6.30624">
        <ele>982.9</ele>
        <time>2021-08-14T13:58:40Z</time>
      </trkpt>
      <trkpt lat="46.74273" lon="6.30624">
        <ele>983.2</ele>
        <time>2021-08-14T13:58:41Z</time>
      </trkpt>
      <trkpt lat="46.74272" lon="6.30624">
        <ele>983.3</ele>
        <time>2021-08-14T13:58:43Z</time>
      </trkpt>
      <trkpt lat="46.74272" lon="6.30624">
        <ele>983.5</ele>
        <time>2021-08-14T13:58:44Z</time>
      </trkpt>
      <trkpt lat="46.74271" lon="6.30624">
        <ele>983.6</ele>
        <time>2021-08-14T13:58:45Z</time>
      </trkpt>
      <trkpt lat="46.74269" lon="6.30624">
        <ele>983.9</ele>
        <time>2021-08-14T13:58:46Z</time>
      </trkpt>
      <trkpt lat="46.74267" lon="6.30624">
        <ele>984.3</ele>
        <time>2021-08-14T13:58:48Z</time>
      </trkpt>
      <trkpt lat="46.74264" lon="6.30625">
        <ele>984.7</ele>
        <time>2021-08-14T13:58:49Z</time>
      </trkpt>
      <trkpt lat="46.74262" lon="6.30625">
        <ele>984.9</ele>
        <time>2021-08-14T13:58:51Z</time>
      </trkpt>
      <trkpt lat="46.74261" lon="6.30625">
        <ele>985.1</ele>
        <time>2021-08-14T13:58:52Z</time>
      </trkpt>
      <trkpt lat="46.74261" lon="6.30625">
        <ele>985.2</ele>
        <time>2021-08-14T13:58:54Z</time>
      </trkpt>
      <trkpt lat="46.7426" lon="6.30625">
        <ele>985.2</ele>
        <time>2021-08-14T13:58:55Z</time>
      </trkpt>
      <trkpt lat="46.7426" lon="6.30625">
        <ele>985.3</ele>
        <time>2021-08-14T13:58:56Z</time>
      </trkpt>
      <trkpt lat="46.7426" lon="6.30625">
        <ele>985.3</ele>
        <time>2021-08-14T13:58:57Z</time>
      </trkpt>
      <trkpt lat="46.74259" lon="6.30625">
        <ele>985.4</ele>
        <time>2021-08-14T13:58:59Z</time>
      </trkpt>
      <trkpt lat="46.74258" lon="6.30626">
        <ele>985.7</ele>
        <time>2021-08-14T13:59:00Z</time>
      </trkpt>
      <trkpt lat="46.74256" lon="6.30627">
        <ele>985.9</ele>
        <time>2021-08-14T13:59:01Z</time>
      </trkpt>
      <trkpt lat="46.74254" lon="6.30628">
        <ele>986.2</ele>
        <time>2021-08-14T13:59:03Z</time>
      </trkpt>
      <trkpt lat="46.74251" lon="6.3063">
        <ele>986.7</ele>
        <time>2021-08-14T13:59:04Z</time>
      </trkpt>
      <trkpt lat="46.74251" lon="6.3063">
        <ele>986.8</ele>
        <time>2021-08-14T13:59:05Z</time>
      </trkpt>
      <trkpt lat="46.7425" lon="6.3063">
        <ele>986.9</ele>
        <time>2021-08-14T13:59:07Z</time>
      </trkpt>
      <trkpt lat="46.7425" lon="6.3063">
        <ele>987</ele>
        <time>2021-08-14T13:59:08Z</time>
      </trkpt>
      <trkpt lat="46.74249" lon="6.3063">
        <ele>987</ele>
        <time>2021-08-14T13:59:09Z</time>
      </trkpt>
      <trkpt lat="46.74249" lon="6.3063">
        <ele>987.1</ele>
        <time>2021-08-14T13:59:10Z</time>
      </trkpt>
      <trkpt lat="46.74247" lon="6.30631">
        <ele>987.2</ele>
        <time>2021-08-14T13:59:11Z</time>
      </trkpt>
      <trkpt lat="46.74244" lon="6.30632">
        <ele>987.6</ele>
        <time>2021-08-14T13:59:13Z</time>
      </trkpt>
      <trkpt lat="46.74243" lon="6.30632">
        <ele>987.8</ele>
        <time>2021-08-14T13:59:14Z</time>
      </trkpt>
      <trkpt lat="46.74242" lon="6.30633">
        <ele>988</ele>
        <time>2021-08-14T13:59:16Z</time>
      </trkpt>
      <trkpt lat="46.74239" lon="6.30635">
        <ele>988.3</ele>
        <time>2021-08-14T13:59:18Z</time>
      </trkpt>
      <trkpt lat="46.74238" lon="6.30636">
        <ele>988.4</ele>
        <time>2021-08-14T13:59:19Z</time>
      </trkpt>
      <trkpt lat="46.74237" lon="6.30638">
        <ele>988.6</ele>
        <time>2021-08-14T13:59:20Z</time>
      </trkpt>
      <trkpt lat="46.74234" lon="6.3064">
        <ele>988.9</ele>
        <time>2021-08-14T13:59:22Z</time>
      </trkpt>
      <trkpt lat="46.74234" lon="6.30641">
        <ele>989.1</ele>
        <time>2021-08-14T13:59:23Z</time>
      </trkpt>
      <trkpt lat="46.74233" lon="6.30642">
        <ele>989.2</ele>
        <time>2021-08-14T13:59:25Z</time>
      </trkpt>
      <trkpt lat="46.74232" lon="6.30643">
        <ele>989.3</ele>
        <time>2021-08-14T13:59:26Z</time>
      </trkpt>
      <trkpt lat="46.74232" lon="6.30644">
        <ele>989.4</ele>
        <time>2021-08-14T13:59:27Z</time>
      </trkpt>
      <trkpt lat="46.74231" lon="6.30644">
        <ele>989.4</ele>
        <time>2021-08-14T13:59:29Z</time>
      </trkpt>
      <trkpt lat="46.74231" lon="6.30644">
        <ele>989.4</ele>
        <time>2021-08-14T13:59:30Z</time>
      </trkpt>
      <trkpt lat="46.7421" lon="6.30678">
        <ele>992.8</ele>
        <time>2021-08-14T13:59:58Z</time>
      </trkpt>
      <trkpt lat="46.74207" lon="6.3068">
        <ele>993.1</ele>
        <time>2021-08-14T13:59:59Z</time>
      </trkpt>
      <trkpt lat="46.74205" lon="6.30682">
        <ele>993.3</ele>
        <time>2021-08-14T14:00:00Z</time>
      </trkpt>
      <trkpt lat="46.74203" lon="6.30683">
        <ele>993.5</ele>
        <time>2021-08-14T14:00:02Z</time>
      </trkpt>
      <trkpt lat="46.742" lon="6.30683">
        <ele>993.9</ele>
        <time>2021-08-14T14:00:03Z</time>
      </trkpt>
      <trkpt lat="46.74199" lon="6.30684">
        <ele>994</ele>
        <time>2021-08-14T14:00:04Z</time>
      </trkpt>
      <trkpt lat="46.74197" lon="6.30683">
        <ele>994.3</ele>
        <time>2021-08-14T14:00:05Z</time>
      </trkpt>
      <trkpt lat="46.74196" lon="6.30683">
        <ele>994.3</ele>
        <time>2021-08-14T14:00:07Z</time>
      </trkpt>
      <trkpt lat="46.74195" lon="6.30683">
        <ele>994.4</ele>
        <time>2021-08-14T14:00:08Z</time>
      </trkpt>
      <trkpt lat="46.74194" lon="6.30683">
        <ele>994.5</ele>
        <time>2021-08-14T14:00:09Z</time>
      </trkpt>
      <trkpt lat="46.74192" lon="6.30683">
        <ele>994.8</ele>
        <time>2021-08-14T14:00:10Z</time>
      </trkpt>
      <trkpt lat="46.74191" lon="6.30684">
        <ele>994.9</ele>
        <time>2021-08-14T14:00:11Z</time>
      </trkpt>
      <trkpt lat="46.74188" lon="6.30685">
        <ele>995.3</ele>
        <time>2021-08-14T14:00:13Z</time>
      </trkpt>
      <trkpt lat="46.74186" lon="6.30686">
        <ele>995.4</ele>
        <time>2021-08-14T14:00:14Z</time>
      </trkpt>
      <trkpt lat="46.74185" lon="6.30688">
        <ele>995.6</ele>
        <time>2021-08-14T14:00:15Z</time>
      </trkpt>
      <trkpt lat="46.74183" lon="6.30689">
        <ele>995.8</ele>
        <time>2021-08-14T14:00:17Z</time>
      </trkpt>
      <trkpt lat="46.74182" lon="6.30691">
        <ele>996</ele>
        <time>2021-08-14T14:00:18Z</time>
      </trkpt>
      <trkpt lat="46.7418" lon="6.30694">
        <ele>996.3</ele>
        <time>2021-08-14T14:00:20Z</time>
      </trkpt>
      <trkpt lat="46.74179" lon="6.30695">
        <ele>996.5</ele>
        <time>2021-08-14T14:00:21Z</time>
      </trkpt>
      <trkpt lat="46.74178" lon="6.30697">
        <ele>996.6</ele>
        <time>2021-08-14T14:00:22Z</time>
      </trkpt>
      <trkpt lat="46.74176" lon="6.30699">
        <ele>996.9</ele>
        <time>2021-08-14T14:00:24Z</time>
      </trkpt>
      <trkpt lat="46.74175" lon="6.307">
        <ele>997</ele>
        <time>2021-08-14T14:00:25Z</time>
      </trkpt>
      <trkpt lat="46.74174" lon="6.30702">
        <ele>997.2</ele>
        <time>2021-08-14T14:00:27Z</time>
      </trkpt>
      <trkpt lat="46.74174" lon="6.30703">
        <ele>997.3</ele>
        <time>2021-08-14T14:00:28Z</time>
      </trkpt>
      <trkpt lat="46.74173" lon="6.30703">
        <ele>997.3</ele>
        <time>2021-08-14T14:00:30Z</time>
      </trkpt>
      <trkpt lat="46.74173" lon="6.30703">
        <ele>997.3</ele>
        <time>2021-08-14T14:00:31Z</time>
      </trkpt>
      <trkpt lat="46.74173" lon="6.30703">
        <ele>997.3</ele>
        <time>2021-08-14T14:00:32Z</time>
      </trkpt>
      <trkpt lat="46.74173" lon="6.30703">
        <ele>997.4</ele>
        <time>2021-08-14T14:00:34Z</time>
      </trkpt>
      <trkpt lat="46.74172" lon="6.30703">
        <ele>997.5</ele>
        <time>2021-08-14T14:00:35Z</time>
      </trkpt>
      <trkpt lat="46.7417" lon="6.30703">
        <ele>997.7</ele>
        <time>2021-08-14T14:00:36Z</time>
      </trkpt>
      <trkpt lat="46.74169" lon="6.30703">
        <ele>997.8</ele>
        <time>2021-08-14T14:00:37Z</time>
      </trkpt>
      <trkpt lat="46.74168" lon="6.30703">
        <ele>997.9</ele>
        <time>2021-08-14T14:00:39Z</time>
      </trkpt>
      <trkpt lat="46.74167" lon="6.30703">
        <ele>998</ele>
        <time>2021-08-14T14:00:40Z</time>
      </trkpt>
      <trkpt lat="46.74166" lon="6.30703">
        <ele>998.1</ele>
        <time>2021-08-14T14:00:41Z</time>
      </trkpt>
      <trkpt lat="46.7415" lon="6.30701">
        <ele>1000</ele>
        <time>2021-08-14T14:00:56Z</time>
      </trkpt>
      <trkpt lat="46.74146" lon="6.307">
        <ele>1000.5</ele>
        <time>2021-08-14T14:00:57Z</time>
      </trkpt>
      <trkpt lat="46.74142" lon="6.307">
        <ele>1000.9</ele>
        <time>2021-08-14T14:00:58Z</time>
      </trkpt>
      <trkpt lat="46.74141" lon="6.307">
        <ele>1001.1</ele>
        <time>2021-08-14T14:00:59Z</time>
      </trkpt>
      <trkpt lat="46.74138" lon="6.30702">
        <ele>1001.5</ele>
        <time>2021-08-14T14:01:01Z</time>
      </trkpt>
      <trkpt lat="46.74137" lon="6.30702">
        <ele>1001.6</ele>
        <time>2021-08-14T14:01:02Z</time>
      </trkpt>
      <trkpt lat="46.74133" lon="6.30705">
        <ele>1002.2</ele>
        <time>2021-08-14T14:01:04Z</time>
      </trkpt>
      <trkpt lat="46.74132" lon="6.30706">
        <ele>1002.4</ele>
        <time>2021-08-14T14:01:06Z</time>
      </trkpt>
      <trkpt lat="46.74131" lon="6.30707">
        <ele>1002.5</ele>
        <time>2021-08-14T14:01:07Z</time>
      </trkpt>
      <trkpt lat="46.74129" lon="6.30708">
        <ele>1002.7</ele>
        <time>2021-08-14T14:01:08Z</time>
      </trkpt>
      <trkpt lat="46.74128" lon="6.30708">
        <ele>1002.8</ele>
        <time>2021-08-14T14:01:10Z</time>
      </trkpt>
      <trkpt lat="46.74127" lon="6.30707">
        <ele>1002.9</ele>
        <time>2021-08-14T14:01:12Z</time>
      </trkpt>
      <trkpt lat="46.74127" lon="6.30707">
        <ele>1002.9</ele>
        <time>2021-08-14T14:01:13Z</time>
      </trkpt>
      <trkpt lat="46.74127" lon="6.30707">
        <ele>1003</ele>
        <time>2021-08-14T14:01:14Z</time>
      </trkpt>
      <trkpt lat="46.74127" lon="6.30706">
        <ele>1003</ele>
        <time>2021-08-14T14:01:15Z</time>
      </trkpt>
      <trkpt lat="46.74127" lon="6.30706">
        <ele>1003</ele>
        <time>2021-08-14T14:01:16Z</time>
      </trkpt>
      <trkpt lat="46.74127" lon="6.30706">
        <ele>1003</ele>
        <time>2021-08-14T14:01:17Z</time>
      </trkpt>
      <trkpt lat="46.74127" lon="6.30706">
        <ele>1003</ele>
        <time>2021-08-14T14:01:18Z</time>
      </trkpt>
      <trkpt lat="46.74128" lon="6.30706">
        <ele>1003</ele>
        <time>2021-08-14T14:01:20Z</time>
      </trkpt>
      <trkpt lat="46.74128" lon="6.30706">
        <ele>1003.1</ele>
        <time>2021-08-14T14:01:22Z</time>
      </trkpt>
      <trkpt lat="46.74128" lon="6.30706">
        <ele>1003.1</ele>
        <time>2021-08-14T14:01:23Z</time>
      </trkpt>
      <trkpt lat="46.74128" lon="6.30706">
        <ele>1003.1</ele>
        <time>2021-08-14T14:01:25Z</time>
      </trkpt>
      <trkpt lat="46.74128" lon="6.30706">
        <ele>1003.1</ele>
        <time>2021-08-14T14:01:27Z</time>
      </trkpt>
      <trkpt lat="46.74124" lon="6.30708">
        <ele>1003.6</ele>
        <time>2021-08-14T14:02:10Z</time>
      </trkpt>
      <trkpt lat="46.74122" lon="6.30711">
        <ele>1003.9</ele>
        <time>2021-08-14T14:02:11Z</time>
      </trkpt>
      <trkpt lat="46.74119" lon="6.30715">
        <ele>1004.2</ele>
        <time>2021-08-14T14:02:12Z</time>
      </trkpt>
      <trkpt lat="46.74119" lon="6.30716">
        <ele>1004.3</ele>
        <time>2021-08-14T14:02:13Z</time>
      </trkpt>
      <trkpt lat="46.74117" lon="6.30718">
        <ele>1004.5</ele>
        <time>2021-08-14T14:02:14Z</time>
      </trkpt>
      <trkpt lat="46.74116" lon="6.3072">
        <ele>1004.6</ele>
        <time>2021-08-14T14:02:16Z</time>
      </trkpt>
      <trkpt lat="46.74115" lon="6.30722">
        <ele>1004.8</ele>
        <time>2021-08-14T14:02:17Z</time>
      </trkpt>
      <trkpt lat="46.74114" lon="6.30725">
        <ele>1005</ele>
        <time>2021-08-14T14:02:19Z</time>
      </trkpt>
      <trkpt lat="46.74112" lon="6.30727">
        <ele>1005.2</ele>
        <time>2021-08-14T14:02:20Z</time>
      </trkpt>
      <trkpt lat="46.74111" lon="6.30728">
        <ele>1005.3</ele>
        <time>2021-08-14T14:02:21Z</time>
      </trkpt>
      <trkpt lat="46.7411" lon="6.30729">
        <ele>1005.4</ele>
        <time>2021-08-14T14:02:22Z</time>
      </trkpt>
      <trkpt lat="46.74109" lon="6.3073">
        <ele>1005.5</ele>
        <time>2021-08-14T14:02:24Z</time>
      </trkpt>
      <trkpt lat="46.74107" lon="6.30733">
        <ele>1005.8</ele>
        <time>2021-08-14T14:02:25Z</time>
      </trkpt>
      <trkpt lat="46.74106" lon="6.30734">
        <ele>1005.9</ele>
        <time>2021-08-14T14:02:27Z</time>
      </trkpt>
      <trkpt lat="46.74106" lon="6.30735">
        <ele>1006</ele>
        <time>2021-08-14T14:02:28Z</time>
      </trkpt>
      <trkpt lat="46.74105" lon="6.30737">
        <ele>1006.1</ele>
        <time>2021-08-14T14:02:30Z</time>
      </trkpt>
      <trkpt lat="46.74104" lon="6.30741">
        <ele>1006.4</ele>
        <time>2021-08-14T14:02:32Z</time>
      </trkpt>
      <trkpt lat="46.74103" lon="6.30745">
        <ele>1006.7</ele>
        <time>2021-08-14T14:02:33Z</time>
      </trkpt>
      <trkpt lat="46.74103" lon="6.30749">
        <ele>1006.9</ele>
        <time>2021-08-14T14:02:35Z</time>
      </trkpt>
      <trkpt lat="46.74103" lon="6.30751">
        <ele>1007</ele>
        <time>2021-08-14T14:02:36Z</time>
      </trkpt>
      <trkpt lat="46.74101" lon="6.30754">
        <ele>1007.3</ele>
        <time>2021-08-14T14:02:38Z</time>
      </trkpt>
      <trkpt lat="46.74101" lon="6.30755">
        <ele>1007.4</ele>
        <time>2021-08-14T14:02:39Z</time>
      </trkpt>
      <trkpt lat="46.74099" lon="6.30756">
        <ele>1007.5</ele>
        <time>2021-08-14T14:02:40Z</time>
      </trkpt>
      <trkpt lat="46.74099" lon="6.30757">
        <ele>1007.6</ele>
        <time>2021-08-14T14:02:41Z</time>
      </trkpt>
      <trkpt lat="46.74099" lon="6.30757">
        <ele>1007.6</ele>
        <time>2021-08-14T14:02:42Z</time>
      </trkpt>
      <trkpt lat="46.74099" lon="6.30758">
        <ele>1007.7</ele>
        <time>2021-08-14T14:02:44Z</time>
      </trkpt>
      <trkpt lat="46.74098" lon="6.3076">
        <ele>1007.8</ele>
        <time>2021-08-14T14:02:45Z</time>
      </trkpt>
      <trkpt lat="46.74097" lon="6.30762">
        <ele>1007.9</ele>
        <time>2021-08-14T14:02:47Z</time>
      </trkpt>
      <trkpt lat="46.74096" lon="6.30764">
        <ele>1008.1</ele>
        <time>2021-08-14T14:02:48Z</time>
      </trkpt>
      <trkpt lat="46.74095" lon="6.30766">
        <ele>1008.3</ele>
        <time>2021-08-14T14:02:49Z</time>
      </trkpt>
      <trkpt lat="46.74095" lon="6.30769">
        <ele>1008.4</ele>
        <time>2021-08-14T14:02:51Z</time>
      </trkpt>
      <trkpt lat="46.74095" lon="6.3077">
        <ele>1008.5</ele>
        <time>2021-08-14T14:02:52Z</time>
      </trkpt>
      <trkpt lat="46.74096" lon="6.30771">
        <ele>1008.6</ele>
        <time>2021-08-14T14:02:53Z</time>
      </trkpt>
      <trkpt lat="46.74096" lon="6.30772">
        <ele>1008.7</ele>
        <time>2021-08-14T14:02:54Z</time>
      </trkpt>
      <trkpt lat="46.74097" lon="6.30774">
        <ele>1008.8</ele>
        <time>2021-08-14T14:02:56Z</time>
      </trkpt>
      <trkpt lat="46.74097" lon="6.30775">
        <ele>1008.8</ele>
        <time>2021-08-14T14:02:57Z</time>
      </trkpt>
      <trkpt lat="46.74097" lon="6.30776">
        <ele>1008.9</ele>
        <time>2021-08-14T14:02:58Z</time>
      </trkpt>
      <trkpt lat="46.74098" lon="6.30777">
        <ele>1009</ele>
        <time>2021-08-14T14:02:59Z</time>
      </trkpt>
      <trkpt lat="46.74098" lon="6.30779">
        <ele>1009.1</ele>
        <time>2021-08-14T14:03:00Z</time>
      </trkpt>
      <trkpt lat="46.74099" lon="6.3078">
        <ele>1009.2</ele>
        <time>2021-08-14T14:03:01Z</time>
      </trkpt>
      <trkpt lat="46.74099" lon="6.30781">
        <ele>1009.2</ele>
        <time>2021-08-14T14:03:03Z</time>
      </trkpt>
      <trkpt lat="46.74099" lon="6.30782">
        <ele>1009.3</ele>
        <time>2021-08-14T14:03:04Z</time>
      </trkpt>
      <trkpt lat="46.741" lon="6.30784">
        <ele>1009.4</ele>
        <time>2021-08-14T14:03:06Z</time>
      </trkpt>
      <trkpt lat="46.741" lon="6.30785">
        <ele>1009.5</ele>
        <time>2021-08-14T14:03:19Z</time>
      </trkpt>
      <trkpt lat="46.74101" lon="6.30786">
        <ele>1009.6</ele>
        <time>2021-08-14T14:03:20Z</time>
      </trkpt>
      <trkpt lat="46.74101" lon="6.30787">
        <ele>1009.6</ele>
        <time>2021-08-14T14:03:21Z</time>
      </trkpt>
      <trkpt lat="46.74101" lon="6.3079">
        <ele>1009.8</ele>
        <time>2021-08-14T14:03:23Z</time>
      </trkpt>
      <trkpt lat="46.74101" lon="6.30792">
        <ele>1009.9</ele>
        <time>2021-08-14T14:03:24Z</time>
      </trkpt>
      <trkpt lat="46.74102" lon="6.30794">
        <ele>1010.1</ele>
        <time>2021-08-14T14:03:25Z</time>
      </trkpt>
      <trkpt lat="46.74103" lon="6.30795">
        <ele>1010.2</ele>
        <time>2021-08-14T14:03:26Z</time>
      </trkpt>
      <trkpt lat="46.74103" lon="6.30796">
        <ele>1010.3</ele>
        <time>2021-08-14T14:03:27Z</time>
      </trkpt>
      <trkpt lat="46.74103" lon="6.30798">
        <ele>1010.4</ele>
        <time>2021-08-14T14:03:28Z</time>
      </trkpt>
      <trkpt lat="46.74104" lon="6.308">
        <ele>1010.5</ele>
        <time>2021-08-14T14:03:30Z</time>
      </trkpt>
      <trkpt lat="46.74104" lon="6.30801">
        <ele>1010.6</ele>
        <time>2021-08-14T14:03:31Z</time>
      </trkpt>
      <trkpt lat="46.74103" lon="6.30802">
        <ele>1010.7</ele>
        <time>2021-08-14T14:03:32Z</time>
      </trkpt>
      <trkpt lat="46.74103" lon="6.30804">
        <ele>1010.8</ele>
        <time>2021-08-14T14:03:33Z</time>
      </trkpt>
      <trkpt lat="46.74103" lon="6.30806">
        <ele>1011</ele>
        <time>2021-08-14T14:03:35Z</time>
      </trkpt>
      <trkpt lat="46.74103" lon="6.30807">
        <ele>1011.1</ele>
        <time>2021-08-14T14:03:36Z</time>
      </trkpt>
      <trkpt lat="46.74104" lon="6.30808">
        <ele>1011.1</ele>
        <time>2021-08-14T14:03:37Z</time>
      </trkpt>
      <trkpt lat="46.74104" lon="6.30809">
        <ele>1011.2</ele>
        <time>2021-08-14T14:03:39Z</time>
      </trkpt>
      <trkpt lat="46.74105" lon="6.3081">
        <ele>1011.3</ele>
        <time>2021-08-14T14:03:40Z</time>
      </trkpt>
      <trkpt lat="46.74105" lon="6.30811">
        <ele>1011.4</ele>
        <time>2021-08-14T14:03:41Z</time>
      </trkpt>
      <trkpt lat="46.74105" lon="6.30813">
        <ele>1011.5</ele>
        <time>2021-08-14T14:03:42Z</time>
      </trkpt>
      <trkpt lat="46.74105" lon="6.30815">
        <ele>1011.7</ele>
        <time>2021-08-14T14:03:44Z</time>
      </trkpt>
      <trkpt lat="46.74105" lon="6.30819">
        <ele>1012</ele>
        <time>2021-08-14T14:03:46Z</time>
      </trkpt>
      <trkpt lat="46.74106" lon="6.30828">
        <ele>1012.8</ele>
        <time>2021-08-14T14:03:49Z</time>
      </trkpt>
      <trkpt lat="46.74107" lon="6.30832">
        <ele>1013.1</ele>
        <time>2021-08-14T14:03:50Z</time>
      </trkpt>
      <trkpt lat="46.74108" lon="6.30837">
        <ele>1013.5</ele>
        <time>2021-08-14T14:03:52Z</time>
      </trkpt>
      <trkpt lat="46.74108" lon="6.30837">
        <ele>1013.6</ele>
        <time>2021-08-14T14:03:53Z</time>
      </trkpt>
      <trkpt lat="46.74109" lon="6.30837">
        <ele>1013.7</ele>
        <time>2021-08-14T14:03:54Z</time>
      </trkpt>
      <trkpt lat="46.74109" lon="6.30838">
        <ele>1013.7</ele>
        <time>2021-08-14T14:03:55Z</time>
      </trkpt>
      <trkpt lat="46.7411" lon="6.3084">
        <ele>1013.9</ele>
        <time>2021-08-14T14:03:56Z</time>
      </trkpt>
      <trkpt lat="46.74111" lon="6.30845">
        <ele>1014.4</ele>
        <time>2021-08-14T14:03:58Z</time>
      </trkpt>
      <trkpt lat="46.74111" lon="6.30845">
        <ele>1014.5</ele>
        <time>2021-08-14T14:03:59Z</time>
      </trkpt>
      <trkpt lat="46.74111" lon="6.30846">
        <ele>1014.6</ele>
        <time>2021-08-14T14:04:00Z</time>
      </trkpt>
      <trkpt lat="46.74112" lon="6.30847">
        <ele>1014.7</ele>
        <time>2021-08-14T14:04:01Z</time>
      </trkpt>
      <trkpt lat="46.74112" lon="6.30848">
        <ele>1014.7</ele>
        <time>2021-08-14T14:04:03Z</time>
      </trkpt>
      <trkpt lat="46.74112" lon="6.30849">
        <ele>1014.8</ele>
        <time>2021-08-14T14:04:04Z</time>
      </trkpt>
      <trkpt lat="46.74113" lon="6.3085">
        <ele>1014.9</ele>
        <time>2021-08-14T14:04:05Z</time>
      </trkpt>
      <trkpt lat="46.74113" lon="6.3085">
        <ele>1014.9</ele>
        <time>2021-08-14T14:04:07Z</time>
      </trkpt>
      <trkpt lat="46.74113" lon="6.3085">
        <ele>1015</ele>
        <time>2021-08-14T14:04:08Z</time>
      </trkpt>
      <trkpt lat="46.74116" lon="6.30871">
        <ele>1016.7</ele>
        <time>2021-08-14T14:04:33Z</time>
      </trkpt>
      <trkpt lat="46.74117" lon="6.30875">
        <ele>1017</ele>
        <time>2021-08-14T14:04:34Z</time>
      </trkpt>
      <trkpt lat="46.74118" lon="6.30879">
        <ele>1017.3</ele>
        <time>2021-08-14T14:04:35Z</time>
      </trkpt>
      <trkpt lat="46.74119" lon="6.30883">
        <ele>1017.7</ele>
        <time>2021-08-14T14:04:37Z</time>
      </trkpt>
      <trkpt lat="46.74119" lon="6.30885">
        <ele>1017.8</ele>
        <time>2021-08-14T14:04:38Z</time>
      </trkpt>
      <trkpt lat="46.74121" lon="6.30889">
        <ele>1018.1</ele>
        <time>2021-08-14T14:04:39Z</time>
      </trkpt>
      <trkpt lat="46.74122" lon="6.30892">
        <ele>1018.3</ele>
        <time>2021-08-14T14:04:40Z</time>
      </trkpt>
      <trkpt lat="46.74123" lon="6.30895">
        <ele>1018.6</ele>
        <time>2021-08-14T14:04:42Z</time>
      </trkpt>
      <trkpt lat="46.74124" lon="6.30898">
        <ele>1018.8</ele>
        <time>2021-08-14T14:04:43Z</time>
      </trkpt>
      <trkpt lat="46.74125" lon="6.30901">
        <ele>1019</ele>
        <time>2021-08-14T14:04:44Z</time>
      </trkpt>
      <trkpt lat="46.74126" lon="6.30904">
        <ele>1019.3</ele>
        <time>2021-08-14T14:04:45Z</time>
      </trkpt>
      <trkpt lat="46.74127" lon="6.30907">
        <ele>1019.5</ele>
        <time>2021-08-14T14:04:47Z</time>
      </trkpt>
      <trkpt lat="46.74129" lon="6.3091">
        <ele>1019.7</ele>
        <time>2021-08-14T14:04:48Z</time>
      </trkpt>
      <trkpt lat="46.7413" lon="6.30913">
        <ele>1019.9</ele>
        <time>2021-08-14T14:05:07Z</time>
      </trkpt>
      <trkpt lat="46.74131" lon="6.30916">
        <ele>1020.1</ele>
        <time>2021-08-14T14:05:08Z</time>
      </trkpt>
      <trkpt lat="46.74132" lon="6.30919">
        <ele>1020.4</ele>
        <time>2021-08-14T14:05:09Z</time>
      </trkpt>
      <trkpt lat="46.74134" lon="6.30924">
        <ele>1022.6</ele>
        <time>2021-08-14T14:05:10Z</time>
      </trkpt>
      <trkpt lat="46.74135" lon="6.30925">
        <ele>1022.7</ele>
        <time>2021-08-14T14:05:11Z</time>
      </trkpt>
      <trkpt lat="46.74136" lon="6.30927">
        <ele>1022.7</ele>
        <time>2021-08-14T14:05:13Z</time>
      </trkpt>
      <trkpt lat="46.74137" lon="6.30928">
        <ele>1022.7</ele>
        <time>2021-08-14T14:05:14Z</time>
      </trkpt>
      <trkpt lat="46.74137" lon="6.30929">
        <ele>1022.8</ele>
        <time>2021-08-14T14:05:15Z</time>
      </trkpt>
      <trkpt lat="46.74137" lon="6.30929">
        <ele>1022.8</ele>
        <time>2021-08-14T14:05:16Z</time>
      </trkpt>
      <trkpt lat="46.74137" lon="6.3093">
        <ele>1022.8</ele>
        <time>2021-08-14T14:05:18Z</time>
      </trkpt>
      <trkpt lat="46.74136" lon="6.30929">
        <ele>1022.8</ele>
        <time>2021-08-14T14:05:20Z</time>
      </trkpt>
      <trkpt lat="46.74136" lon="6.30929">
        <ele>1022.8</ele>
        <time>2021-08-14T14:05:21Z</time>
      </trkpt>
      <trkpt lat="46.74136" lon="6.30929">
        <ele>1022.8</ele>
        <time>2021-08-14T14:05:22Z</time>
      </trkpt>
      <trkpt lat="46.74136" lon="6.30929">
        <ele>1022.8</ele>
        <time>2021-08-14T14:05:23Z</time>
      </trkpt>
      <trkpt lat="46.74136" lon="6.30929">
        <ele>1022.8</ele>
        <time>2021-08-14T14:05:24Z</time>
      </trkpt>
      <trkpt lat="46.74136" lon="6.30929">
        <ele>1022.8</ele>
        <time>2021-08-14T14:05:25Z</time>
      </trkpt>
      <trkpt lat="46.74136" lon="6.30929">
        <ele>1022.8</ele>
        <time>2021-08-14T14:05:27Z</time>
      </trkpt>
      <trkpt lat="46.74136" lon="6.30929">
        <ele>1022.8</ele>
        <time>2021-08-14T14:05:28Z</time>
      </trkpt>
      <trkpt lat="46.74136" lon="6.30928">
        <ele>1022.8</ele>
        <time>2021-08-14T14:05:29Z</time>
      </trkpt>
      <trkpt lat="46.74136" lon="6.30928">
        <ele>1022.8</ele>
        <time>2021-08-14T14:05:31Z</time>
      </trkpt>
      <trkpt lat="46.74118" lon="6.30928">
        <ele>1023.5</ele>
        <time>2021-08-14T14:06:08Z</time>
      </trkpt>
      <trkpt lat="46.74113" lon="6.30926">
        <ele>1023.7</ele>
        <time>2021-08-14T14:06:10Z</time>
      </trkpt>
      <trkpt lat="46.74107" lon="6.30923">
        <ele>1024.1</ele>
        <time>2021-08-14T14:06:11Z</time>
      </trkpt>
      <trkpt lat="46.741" lon="6.30919">
        <ele>1024.5</ele>
        <time>2021-08-14T14:06:12Z</time>
      </trkpt>
      <trkpt lat="46.74095" lon="6.30917">
        <ele>1024.9</ele>
        <time>2021-08-14T14:06:13Z</time>
      </trkpt>
      <trkpt lat="46.74091" lon="6.30916">
        <ele>1025.1</ele>
        <time>2021-08-14T14:06:14Z</time>
      </trkpt>
      <trkpt lat="46.74088" lon="6.30913">
        <ele>1025.4</ele>
        <time>2021-08-14T14:06:16Z</time>
      </trkpt>
      <trkpt lat="46.74079" lon="6.30909">
        <ele>1026.1</ele>
        <time>2021-08-14T14:06:18Z</time>
      </trkpt>
      <trkpt lat="46.74076" lon="6.30908">
        <ele>1026.3</ele>
        <time>2021-08-14T14:06:19Z</time>
      </trkpt>
      <trkpt lat="46.74072" lon="6.30905">
        <ele>1026.6</ele>
        <time>2021-08-14T14:06:21Z</time>
      </trkpt>
      <trkpt lat="46.74067" lon="6.30901">
        <ele>1027.1</ele>
        <time>2021-08-14T14:06:23Z</time>
      </trkpt>
      <trkpt lat="46.74062" lon="6.309">
        <ele>1027.4</ele>
        <time>2021-08-14T14:06:24Z</time>
      </trkpt>
      <trkpt lat="46.74059" lon="6.30901">
        <ele>1027.6</ele>
        <time>2021-08-14T14:06:26Z</time>
      </trkpt>
      <trkpt lat="46.74058" lon="6.30901">
        <ele>1027.7</ele>
        <time>2021-08-14T14:06:27Z</time>
      </trkpt>
      <trkpt lat="46.74056" lon="6.30902">
        <ele>1027.8</ele>
        <time>2021-08-14T14:06:28Z</time>
      </trkpt>
      <trkpt lat="46.74056" lon="6.30904">
        <ele>1027.9</ele>
        <time>2021-08-14T14:06:29Z</time>
      </trkpt>
      <trkpt lat="46.74051" lon="6.30908">
        <ele>1028.3</ele>
        <time>2021-08-14T14:06:30Z</time>
      </trkpt>
      <trkpt lat="46.74049" lon="6.30909">
        <ele>1028.5</ele>
        <time>2021-08-14T14:06:32Z</time>
      </trkpt>
      <trkpt lat="46.74048" lon="6.30909">
        <ele>1028.6</ele>
        <time>2021-08-14T14:06:33Z</time>
      </trkpt>
      <trkpt lat="46.74045" lon="6.30909">
        <ele>1028.8</ele>
        <time>2021-08-14T14:06:35Z</time>
      </trkpt>
      <trkpt lat="46.74042" lon="6.3091">
        <ele>1029.1</ele>
        <time>2021-08-14T14:06:36Z</time>
      </trkpt>
      <trkpt lat="46.74034" lon="6.30911">
        <ele>1029.6</ele>
        <time>2021-08-14T14:06:38Z</time>
      </trkpt>
      <trkpt lat="46.7403" lon="6.30911">
        <ele>1029.9</ele>
        <time>2021-08-14T14:06:39Z</time>
      </trkpt>
      <trkpt lat="46.74029" lon="6.3091">
        <ele>1030</ele>
        <time>2021-08-14T14:06:40Z</time>
      </trkpt>
      <trkpt lat="46.74025" lon="6.30911">
        <ele>1030.2</ele>
        <time>2021-08-14T14:06:41Z</time>
      </trkpt>
      <trkpt lat="46.74017" lon="6.30912">
        <ele>1030.8</ele>
        <time>2021-08-14T14:06:43Z</time>
      </trkpt>
      <trkpt lat="46.74015" lon="6.30912">
        <ele>1031</ele>
        <time>2021-08-14T14:06:44Z</time>
      </trkpt>
      <trkpt lat="46.74012" lon="6.30912">
        <ele>1031.2</ele>
        <time>2021-08-14T14:06:45Z</time>
      </trkpt>
      <trkpt lat="46.74008" lon="6.30913">
        <ele>1031.6</ele>
        <time>2021-08-14T14:06:46Z</time>
      </trkpt>
      <trkpt lat="46.74006" lon="6.30913">
        <ele>1031.7</ele>
        <time>2021-08-14T14:06:47Z</time>
      </trkpt>
      <trkpt lat="46.74001" lon="6.30912">
        <ele>1032</ele>
        <time>2021-08-14T14:06:48Z</time>
      </trkpt>
      <trkpt lat="46.73995" lon="6.3091">
        <ele>1032.6</ele>
        <time>2021-08-14T14:06:49Z</time>
      </trkpt>
      <trkpt lat="46.73989" lon="6.30908">
        <ele>1033</ele>
        <time>2021-08-14T14:06:51Z</time>
      </trkpt>
      <trkpt lat="46.73986" lon="6.30907">
        <ele>1033.3</ele>
        <time>2021-08-14T14:06:52Z</time>
      </trkpt>
      <trkpt lat="46.73983" lon="6.30905">
        <ele>1033.6</ele>
        <time>2021-08-14T14:06:54Z</time>
      </trkpt>
      <trkpt lat="46.73977" lon="6.30904">
        <ele>1034</ele>
        <time>2021-08-14T14:06:55Z</time>
      </trkpt>
      <trkpt lat="46.73974" lon="6.30902">
        <ele>1034.3</ele>
        <time>2021-08-14T14:06:56Z</time>
      </trkpt>
      <trkpt lat="46.73973" lon="6.30901">
        <ele>1034.4</ele>
        <time>2021-08-14T14:06:57Z</time>
      </trkpt>
      <trkpt lat="46.73968" lon="6.30896">
        <ele>1034.9</ele>
        <time>2021-08-14T14:06:59Z</time>
      </trkpt>
      <trkpt lat="46.73965" lon="6.30897">
        <ele>1035.1</ele>
        <time>2021-08-14T14:07:00Z</time>
      </trkpt>
      <trkpt lat="46.73964" lon="6.30901">
        <ele>1035.4</ele>
        <time>2021-08-14T14:07:01Z</time>
      </trkpt>
      <trkpt lat="46.73961" lon="6.30903">
        <ele>1035.6</ele>
        <time>2021-08-14T14:07:03Z</time>
      </trkpt>
      <trkpt lat="46.73957" lon="6.30901">
        <ele>1035.9</ele>
        <time>2021-08-14T14:07:05Z</time>
      </trkpt>
      <trkpt lat="46.73952" lon="6.30901">
        <ele>1036.4</ele>
        <time>2021-08-14T14:07:07Z</time>
      </trkpt>
      <trkpt lat="46.73947" lon="6.30899">
        <ele>1036.7</ele>
        <time>2021-08-14T14:07:09Z</time>
      </trkpt>
      <trkpt lat="46.73943" lon="6.30897">
        <ele>1037.1</ele>
        <time>2021-08-14T14:07:11Z</time>
      </trkpt>
      <trkpt lat="46.73939" lon="6.30895">
        <ele>1037.5</ele>
        <time>2021-08-14T14:07:13Z</time>
      </trkpt>
      <trkpt lat="46.73934" lon="6.30895">
        <ele>1037.9</ele>
        <time>2021-08-14T14:07:15Z</time>
      </trkpt>
      <trkpt lat="46.73932" lon="6.30894">
        <ele>1038.1</ele>
        <time>2021-08-14T14:07:16Z</time>
      </trkpt>
      <trkpt lat="46.73927" lon="6.30892">
        <ele>1038.5</ele>
        <time>2021-08-14T14:07:18Z</time>
      </trkpt>
      <trkpt lat="46.73924" lon="6.30892">
        <ele>1038.8</ele>
        <time>2021-08-14T14:07:19Z</time>
      </trkpt>
      <trkpt lat="46.73923" lon="6.30892">
        <ele>1038.9</ele>
        <time>2021-08-14T14:07:20Z</time>
      </trkpt>
      <trkpt lat="46.73921" lon="6.30892">
        <ele>1039.1</ele>
        <time>2021-08-14T14:07:21Z</time>
      </trkpt>
      <trkpt lat="46.73917" lon="6.30892">
        <ele>1039.4</ele>
        <time>2021-08-14T14:07:23Z</time>
      </trkpt>
      <trkpt lat="46.73912" lon="6.30891">
        <ele>1039.9</ele>
        <time>2021-08-14T14:07:25Z</time>
      </trkpt>
      <trkpt lat="46.73907" lon="6.30885">
        <ele>1040.4</ele>
        <time>2021-08-14T14:07:27Z</time>
      </trkpt>
      <trkpt lat="46.73905" lon="6.30883">
        <ele>1040.6</ele>
        <time>2021-08-14T14:07:28Z</time>
      </trkpt>
      <trkpt lat="46.73905" lon="6.30882">
        <ele>1040.7</ele>
        <time>2021-08-14T14:07:29Z</time>
      </trkpt>
      <trkpt lat="46.73903" lon="6.30881">
        <ele>1040.8</ele>
        <time>2021-08-14T14:07:31Z</time>
      </trkpt>
      <trkpt lat="46.73896" lon="6.30881">
        <ele>1041.4</ele>
        <time>2021-08-14T14:07:33Z</time>
      </trkpt>
      <trkpt lat="46.73889" lon="6.30881">
        <ele>1042.1</ele>
        <time>2021-08-14T14:07:34Z</time>
      </trkpt>
      <trkpt lat="46.73883" lon="6.30881">
        <ele>1042.6</ele>
        <time>2021-08-14T14:07:35Z</time>
      </trkpt>
      <trkpt lat="46.7388" lon="6.3088">
        <ele>1042.9</ele>
        <time>2021-08-14T14:07:36Z</time>
      </trkpt>
      <trkpt lat="46.73877" lon="6.3088">
        <ele>1043.1</ele>
        <time>2021-08-14T14:07:37Z</time>
      </trkpt>
      <trkpt lat="46.73875" lon="6.30878">
        <ele>1043.3</ele>
        <time>2021-08-14T14:07:39Z</time>
      </trkpt>
      <trkpt lat="46.73876" lon="6.30878">
        <ele>1043.4</ele>
        <time>2021-08-14T14:07:41Z</time>
      </trkpt>
      <trkpt lat="46.73876" lon="6.30878">
        <ele>1043.4</ele>
        <time>2021-08-14T14:07:42Z</time>
      </trkpt>
      <trkpt lat="46.7387" lon="6.30883">
        <ele>1044.1</ele>
        <time>2021-08-14T14:07:44Z</time>
      </trkpt>
      <trkpt lat="46.73864" lon="6.30886">
        <ele>1044.8</ele>
        <time>2021-08-14T14:07:45Z</time>
      </trkpt>
      <trkpt lat="46.73855" lon="6.30891">
        <ele>1045.8</ele>
        <time>2021-08-14T14:07:47Z</time>
      </trkpt>
      <trkpt lat="46.73848" lon="6.30823">
        <ele>1043.6</ele>
        <time>2021-08-14T14:09:07Z</time>
      </trkpt>
      <trkpt lat="46.7385" lon="6.30819">
        <ele>1043.2</ele>
        <time>2021-08-14T14:09:08Z</time>
      </trkpt>
      <trkpt lat="46.73854" lon="6.30808">
        <ele>1042</ele>
        <time>2021-08-14T14:09:10Z</time>
      </trkpt>
      <trkpt lat="46.73856" lon="6.30799">
        <ele>1040.7</ele>
        <time>2021-08-14T14:09:11Z</time>
      </trkpt>
      <trkpt lat="46.73859" lon="6.30786">
        <ele>1039.4</ele>
        <time>2021-08-14T14:09:13Z</time>
      </trkpt>
      <trkpt lat="46.73859" lon="6.30781">
        <ele>1039.2</ele>
        <time>2021-08-14T14:09:14Z</time>
      </trkpt>
      <trkpt lat="46.73859" lon="6.30777">
        <ele>1038.9</ele>
        <time>2021-08-14T14:09:15Z</time>
      </trkpt>
      <trkpt lat="46.73858" lon="6.30773">
        <ele>1038.7</ele>
        <time>2021-08-14T14:09:16Z</time>
      </trkpt>
      <trkpt lat="46.73858" lon="6.30771">
        <ele>1038.4</ele>
        <time>2021-08-14T14:09:17Z</time>
      </trkpt>
      <trkpt lat="46.73858" lon="6.3077">
        <ele>1038.2</ele>
        <time>2021-08-14T14:09:19Z</time>
      </trkpt>
      <trkpt lat="46.73858" lon="6.30769">
        <ele>1038</ele>
        <time>2021-08-14T14:09:20Z</time>
      </trkpt>
      <trkpt lat="46.73858" lon="6.30768">
        <ele>1037.7</ele>
        <time>2021-08-14T14:09:21Z</time>
      </trkpt>
      <trkpt lat="46.73858" lon="6.30768">
        <ele>1037.5</ele>
        <time>2021-08-14T14:09:23Z</time>
      </trkpt>
      <trkpt lat="46.73858" lon="6.30767">
        <ele>1037.2</ele>
        <time>2021-08-14T14:09:25Z</time>
      </trkpt>
      <trkpt lat="46.73858" lon="6.30767">
        <ele>1037</ele>
        <time>2021-08-14T14:09:26Z</time>
      </trkpt>
      <trkpt lat="46.73858" lon="6.30767">
        <ele>1036.7</ele>
        <time>2021-08-14T14:09:27Z</time>
      </trkpt>
      <trkpt lat="46.73803" lon="6.3056">
        <ele>1051.8</ele>
        <time>2021-08-14T14:13:10Z</time>
      </trkpt>
      <trkpt lat="46.738" lon="6.30556">
        <ele>1052.3</ele>
        <time>2021-08-14T14:13:11Z</time>
      </trkpt>
      <trkpt lat="46.73798" lon="6.30552">
        <ele>1052</ele>
        <time>2021-08-14T14:13:12Z</time>
      </trkpt>
      <trkpt lat="46.73792" lon="6.30546">
        <ele>1053.2</ele>
        <time>2021-08-14T14:13:13Z</time>
      </trkpt>
      <trkpt lat="46.73787" lon="6.30541">
        <ele>1054.6</ele>
        <time>2021-08-14T14:13:15Z</time>
      </trkpt>
      <trkpt lat="46.73784" lon="6.30538">
        <ele>1055</ele>
        <time>2021-08-14T14:13:16Z</time>
      </trkpt>
      <trkpt lat="46.73781" lon="6.30533">
        <ele>1055.5</ele>
        <time>2021-08-14T14:13:17Z</time>
      </trkpt>
      <trkpt lat="46.73777" lon="6.30528">
        <ele>1057.1</ele>
        <time>2021-08-14T14:13:19Z</time>
      </trkpt>
      <trkpt lat="46.73775" lon="6.30525">
        <ele>1056.8</ele>
        <time>2021-08-14T14:13:20Z</time>
      </trkpt>
      <trkpt lat="46.73772" lon="6.30521">
        <ele>1057.4</ele>
        <time>2021-08-14T14:13:21Z</time>
      </trkpt>
      <trkpt lat="46.7377" lon="6.30519">
        <ele>1058</ele>
        <time>2021-08-14T14:13:22Z</time>
      </trkpt>
      <trkpt lat="46.73768" lon="6.30518">
        <ele>1058.8</ele>
        <time>2021-08-14T14:13:24Z</time>
      </trkpt>
      <trkpt lat="46.73767" lon="6.30517">
        <ele>1058.6</ele>
        <time>2021-08-14T14:13:25Z</time>
      </trkpt>
      <trkpt lat="46.73769" lon="6.30515">
        <ele>1057</ele>
        <time>2021-08-14T14:13:27Z</time>
      </trkpt>
      <trkpt lat="46.73769" lon="6.30513">
        <ele>1056.8</ele>
        <time>2021-08-14T14:13:29Z</time>
      </trkpt>
      <trkpt lat="46.7377" lon="6.30511">
        <ele>1056.3</ele>
        <time>2021-08-14T14:13:30Z</time>
      </trkpt>
      <trkpt lat="46.7377" lon="6.3051">
        <ele>1056</ele>
        <time>2021-08-14T14:13:31Z</time>
      </trkpt>
      <trkpt lat="46.73771" lon="6.30508">
        <ele>1055.5</ele>
        <time>2021-08-14T14:13:33Z</time>
      </trkpt>
      <trkpt lat="46.73769" lon="6.30502">
        <ele>1055</ele>
        <time>2021-08-14T14:13:34Z</time>
      </trkpt>
      <trkpt lat="46.73768" lon="6.30498">
        <ele>1055.4</ele>
        <time>2021-08-14T14:13:40Z</time>
      </trkpt>
      <trkpt lat="46.73766" lon="6.30494">
        <ele>1054.8</ele>
        <time>2021-08-14T14:13:41Z</time>
      </trkpt>
      <trkpt lat="46.73765" lon="6.30491">
        <ele>1055.1</ele>
        <time>2021-08-14T14:13:42Z</time>
      </trkpt>
      <trkpt lat="46.73763" lon="6.30485">
        <ele>1054.5</ele>
        <time>2021-08-14T14:13:44Z</time>
      </trkpt>
      <trkpt lat="46.73762" lon="6.3048">
        <ele>1054.6</ele>
        <time>2021-08-14T14:13:45Z</time>
      </trkpt>
      <trkpt lat="46.73761" lon="6.30477">
        <ele>1053.9</ele>
        <time>2021-08-14T14:13:47Z</time>
      </trkpt>
      <trkpt lat="46.7376" lon="6.30476">
        <ele>1053.7</ele>
        <time>2021-08-14T14:13:48Z</time>
      </trkpt>
      <trkpt lat="46.7376" lon="6.30476">
        <ele>1053.4</ele>
        <time>2021-08-14T14:13:49Z</time>
      </trkpt>
      <trkpt lat="46.7376" lon="6.30475">
        <ele>1053.2</ele>
        <time>2021-08-14T14:13:50Z</time>
      </trkpt>
      <trkpt lat="46.7376" lon="6.30475">
        <ele>1052.9</ele>
        <time>2021-08-14T14:13:52Z</time>
      </trkpt>
      <trkpt lat="46.73761" lon="6.30474">
        <ele>1052.2</ele>
        <time>2021-08-14T14:13:54Z</time>
      </trkpt>
      <trkpt lat="46.73788" lon="6.30414">
        <ele>1040.3</ele>
        <time>2021-08-14T14:14:30Z</time>
      </trkpt>
      <trkpt lat="46.73791" lon="6.30411">
        <ele>1039.1</ele>
        <time>2021-08-14T14:14:31Z</time>
      </trkpt>
      <trkpt lat="46.73795" lon="6.30407">
        <ele>1037.3</ele>
        <time>2021-08-14T14:14:32Z</time>
      </trkpt>
      <trkpt lat="46.73802" lon="6.30399">
        <ele>1035.5</ele>
        <time>2021-08-14T14:14:33Z</time>
      </trkpt>
      <trkpt lat="46.73805" lon="6.30393">
        <ele>1034.5</ele>
        <time>2021-08-14T14:14:34Z</time>
      </trkpt>
      <trkpt lat="46.73806" lon="6.30383">
        <ele>1033.9</ele>
        <time>2021-08-14T14:14:36Z</time>
      </trkpt>
      <trkpt lat="46.73806" lon="6.30377">
        <ele>1033.6</ele>
        <time>2021-08-14T14:14:37Z</time>
      </trkpt>
      <trkpt lat="46.73804" lon="6.30365">
        <ele>1032.8</ele>
        <time>2021-08-14T14:14:39Z</time>
      </trkpt>
      <trkpt lat="46.738" lon="6.30354">
        <ele>1033.3</ele>
        <time>2021-08-14T14:14:40Z</time>
      </trkpt>
      <trkpt lat="46.73798" lon="6.30347">
        <ele>1032.5</ele>
        <time>2021-08-14T14:14:42Z</time>
      </trkpt>
      <trkpt lat="46.73796" lon="6.30341">
        <ele>1032.6</ele>
        <time>2021-08-14T14:14:43Z</time>
      </trkpt>
      <trkpt lat="46.73795" lon="6.30334">
        <ele>1032.3</ele>
        <time>2021-08-14T14:14:44Z</time>
      </trkpt>
      <trkpt lat="46.73792" lon="6.30316">
        <ele>1031</ele>
        <time>2021-08-14T14:14:46Z</time>
      </trkpt>
      <trkpt lat="46.73791" lon="6.30306">
        <ele>1030.5</ele>
        <time>2021-08-14T14:14:47Z</time>
      </trkpt>
      <trkpt lat="46.73791" lon="6.30295">
        <ele>1029.7</ele>
        <time>2021-08-14T14:14:48Z</time>
      </trkpt>
      <trkpt lat="46.73788" lon="6.30282">
        <ele>1028.8</ele>
        <time>2021-08-14T14:14:50Z</time>
      </trkpt>
      <trkpt lat="46.73781" lon="6.30263">
        <ele>1027.1</ele>
        <time>2021-08-14T14:14:52Z</time>
      </trkpt>
      <trkpt lat="46.7378" lon="6.30254">
        <ele>1026.6</ele>
        <time>2021-08-14T14:14:53Z</time>
      </trkpt>
      <trkpt lat="46.73779" lon="6.30237">
        <ele>1024.5</ele>
        <time>2021-08-14T14:14:55Z</time>
      </trkpt>
      <trkpt lat="46.73776" lon="6.30222">
        <ele>1025.5</ele>
        <time>2021-08-14T14:14:57Z</time>
      </trkpt>
      <trkpt lat="46.73773" lon="6.30209">
        <ele>1026.3</ele>
        <time>2021-08-14T14:14:59Z</time>
      </trkpt>
      <trkpt lat="46.73768" lon="6.30203">
        <ele>1026.8</ele>
        <time>2021-08-14T14:15:01Z</time>
      </trkpt>
      <trkpt lat="46.73766" lon="6.30194">
        <ele>1027.1</ele>
        <time>2021-08-14T14:15:02Z</time>
      </trkpt>
      <trkpt lat="46.73764" lon="6.30188">
        <ele>1027.3</ele>
        <time>2021-08-14T14:15:03Z</time>
      </trkpt>
      <trkpt lat="46.73762" lon="6.30181">
        <ele>1027.5</ele>
        <time>2021-08-14T14:15:05Z</time>
      </trkpt>
      <trkpt lat="46.73759" lon="6.30176">
        <ele>1027.7</ele>
        <time>2021-08-14T14:15:07Z</time>
      </trkpt>
      <trkpt lat="46.73757" lon="6.30172">
        <ele>1028</ele>
        <time>2021-08-14T14:15:08Z</time>
      </trkpt>
      <trkpt lat="46.73754" lon="6.30168">
        <ele>1028.2</ele>
        <time>2021-08-14T14:15:10Z</time>
      </trkpt>
      <trkpt lat="46.73752" lon="6.30165">
        <ele>1028.3</ele>
        <time>2021-08-14T14:15:11Z</time>
      </trkpt>
      <trkpt lat="46.73752" lon="6.30164">
        <ele>1028.4</ele>
        <time>2021-08-14T14:15:12Z</time>
      </trkpt>
      <trkpt lat="46.73753" lon="6.30161">
        <ele>1028.5</ele>
        <time>2021-08-14T14:15:14Z</time>
      </trkpt>
      <trkpt lat="46.73753" lon="6.30156">
        <ele>1028.7</ele>
        <time>2021-08-14T14:15:15Z</time>
      </trkpt>
      <trkpt lat="46.73753" lon="6.30152">
        <ele>1028.8</ele>
        <time>2021-08-14T14:15:17Z</time>
      </trkpt>
      <trkpt lat="46.73753" lon="6.30147">
        <ele>1029</ele>
        <time>2021-08-14T14:15:18Z</time>
      </trkpt>
      <trkpt lat="46.73753" lon="6.30143">
        <ele>1029.2</ele>
        <time>2021-08-14T14:15:20Z</time>
      </trkpt>
      <trkpt lat="46.73753" lon="6.30141">
        <ele>1029.3</ele>
        <time>2021-08-14T14:15:21Z</time>
      </trkpt>
      <trkpt lat="46.73723" lon="6.30088">
        <ele>1033.1</ele>
        <time>2021-08-14T14:15:58Z</time>
      </trkpt>
      <trkpt lat="46.7372" lon="6.30083">
        <ele>1033.4</ele>
        <time>2021-08-14T14:15:59Z</time>
      </trkpt>
      <trkpt lat="46.7372" lon="6.30082">
        <ele>1033.5</ele>
        <time>2021-08-14T14:16:01Z</time>
      </trkpt>
      <trkpt lat="46.73718" lon="6.3008">
        <ele>1033.6</ele>
        <time>2021-08-14T14:16:02Z</time>
      </trkpt>
      <trkpt lat="46.73714" lon="6.30073">
        <ele>1034</ele>
        <time>2021-08-14T14:16:04Z</time>
      </trkpt>
      <trkpt lat="46.73712" lon="6.3007">
        <ele>1034.1</ele>
        <time>2021-08-14T14:16:05Z</time>
      </trkpt>
      <trkpt lat="46.73711" lon="6.30069">
        <ele>1034.2</ele>
        <time>2021-08-14T14:16:06Z</time>
      </trkpt>
      <trkpt lat="46.73709" lon="6.30063">
        <ele>1034.3</ele>
        <time>2021-08-14T14:16:08Z</time>
      </trkpt>
      <trkpt lat="46.73708" lon="6.30061">
        <ele>1034.4</ele>
        <time>2021-08-14T14:16:09Z</time>
      </trkpt>
      <trkpt lat="46.73706" lon="6.30056">
        <ele>1034.5</ele>
        <time>2021-08-14T14:16:11Z</time>
      </trkpt>
      <trkpt lat="46.73706" lon="6.30054">
        <ele>1034.5</ele>
        <time>2021-08-14T14:16:13Z</time>
      </trkpt>
      <trkpt lat="46.73705" lon="6.30053">
        <ele>1034.5</ele>
        <time>2021-08-14T14:16:14Z</time>
      </trkpt>
      <trkpt lat="46.73702" lon="6.30045">
        <ele>1034.6</ele>
        <time>2021-08-14T14:16:16Z</time>
      </trkpt>
      <trkpt lat="46.737" lon="6.30038">
        <ele>1034.6</ele>
        <time>2021-08-14T14:16:17Z</time>
      </trkpt>
      <trkpt lat="46.73697" lon="6.30032">
        <ele>1034.7</ele>
        <time>2021-08-14T14:16:18Z</time>
      </trkpt>
      <trkpt lat="46.73694" lon="6.30024">
        <ele>1034.8</ele>
        <time>2021-08-14T14:16:19Z</time>
      </trkpt>
      <trkpt lat="46.73691" lon="6.30018">
        <ele>1034.9</ele>
        <time>2021-08-14T14:16:20Z</time>
      </trkpt>
      <trkpt lat="46.73689" lon="6.30013">
        <ele>1035</ele>
        <time>2021-08-14T14:16:22Z</time>
      </trkpt>
      <trkpt lat="46.73687" lon="6.30007">
        <ele>1035.1</ele>
        <time>2021-08-14T14:16:23Z</time>
      </trkpt>
      <trkpt lat="46.73687" lon="6.30003">
        <ele>1035.2</ele>
        <time>2021-08-14T14:16:24Z</time>
      </trkpt>
      <trkpt lat="46.73687" lon="6.30001">
        <ele>1035.3</ele>
        <time>2021-08-14T14:16:25Z</time>
      </trkpt>
      <trkpt lat="46.73686" lon="6.29996">
        <ele>1035.4</ele>
        <time>2021-08-14T14:16:27Z</time>
      </trkpt>
      <trkpt lat="46.73686" lon="6.29993">
        <ele>1035.5</ele>
        <time>2021-08-14T14:16:28Z</time>
      </trkpt>
      <trkpt lat="46.73686" lon="6.29992">
        <ele>1035.5</ele>
        <time>2021-08-14T14:16:29Z</time>
      </trkpt>
      <trkpt lat="46.73686" lon="6.29991">
        <ele>1035.5</ele>
        <time>2021-08-14T14:16:30Z</time>
      </trkpt>
      <trkpt lat="46.73686" lon="6.29989">
        <ele>1035.6</ele>
        <time>2021-08-14T14:16:32Z</time>
      </trkpt>
      <trkpt lat="46.73686" lon="6.29987">
        <ele>1035.6</ele>
        <time>2021-08-14T14:16:33Z</time>
      </trkpt>
      <trkpt lat="46.73685" lon="6.29984">
        <ele>1035.7</ele>
        <time>2021-08-14T14:16:34Z</time>
      </trkpt>
      <trkpt lat="46.73684" lon="6.29982">
        <ele>1035.7</ele>
        <time>2021-08-14T14:16:35Z</time>
      </trkpt>
      <trkpt lat="46.73683" lon="6.29981">
        <ele>1035.8</ele>
        <time>2021-08-14T14:16:36Z</time>
      </trkpt>
      <trkpt lat="46.73681" lon="6.29977">
        <ele>1035.9</ele>
        <time>2021-08-14T14:16:37Z</time>
      </trkpt>
      <trkpt lat="46.7368" lon="6.29975">
        <ele>1036</ele>
        <time>2021-08-14T14:16:39Z</time>
      </trkpt>
      <trkpt lat="46.73678" lon="6.29973">
        <ele>1036</ele>
        <time>2021-08-14T14:16:40Z</time>
      </trkpt>
      <trkpt lat="46.73675" lon="6.29968">
        <ele>1036.2</ele>
        <time>2021-08-14T14:16:42Z</time>
      </trkpt>
      <trkpt lat="46.73673" lon="6.29965">
        <ele>1036.3</ele>
        <time>2021-08-14T14:16:43Z</time>
      </trkpt>
      <trkpt lat="46.73668" lon="6.2996">
        <ele>1036.4</ele>
        <time>2021-08-14T14:16:44Z</time>
      </trkpt>
      <trkpt lat="46.73665" lon="6.29955">
        <ele>1036.5</ele>
        <time>2021-08-14T14:16:46Z</time>
      </trkpt>
      <trkpt lat="46.73664" lon="6.2995">
        <ele>1036.5</ele>
        <time>2021-08-14T14:16:47Z</time>
      </trkpt>
      <trkpt lat="46.73663" lon="6.29947">
        <ele>1036.5</ele>
        <time>2021-08-14T14:16:48Z</time>
      </trkpt>
      <trkpt lat="46.73663" lon="6.2994">
        <ele>1036.5</ele>
        <time>2021-08-14T14:16:50Z</time>
      </trkpt>
      <trkpt lat="46.73662" lon="6.29935">
        <ele>1036.5</ele>
        <time>2021-08-14T14:16:51Z</time>
      </trkpt>
      <trkpt lat="46.73661" lon="6.29929">
        <ele>1036.4</ele>
        <time>2021-08-14T14:16:53Z</time>
      </trkpt>
      <trkpt lat="46.7366" lon="6.29923">
        <ele>1036.3</ele>
        <time>2021-08-14T14:16:54Z</time>
      </trkpt>
      <trkpt lat="46.73659" lon="6.29917">
        <ele>1036.2</ele>
        <time>2021-08-14T14:16:55Z</time>
      </trkpt>
      <trkpt lat="46.73657" lon="6.2991">
        <ele>1036.1</ele>
        <time>2021-08-14T14:16:57Z</time>
      </trkpt>
      <trkpt lat="46.73656" lon="6.299">
        <ele>1035.8</ele>
        <time>2021-08-14T14:16:58Z</time>
      </trkpt>
      <trkpt lat="46.73655" lon="6.29892">
        <ele>1035.5</ele>
        <time>2021-08-14T14:17:00Z</time>
      </trkpt>
      <trkpt lat="46.73653" lon="6.29881">
        <ele>1035.1</ele>
        <time>2021-08-14T14:17:02Z</time>
      </trkpt>
      <trkpt lat="46.73652" lon="6.29874">
        <ele>1034.8</ele>
        <time>2021-08-14T14:17:03Z</time>
      </trkpt>
      <trkpt lat="46.73651" lon="6.29867">
        <ele>1034.6</ele>
        <time>2021-08-14T14:17:04Z</time>
      </trkpt>
      <trkpt lat="46.73649" lon="6.29862">
        <ele>1034.3</ele>
        <time>2021-08-14T14:17:05Z</time>
      </trkpt>
      <trkpt lat="46.73647" lon="6.2985">
        <ele>1033.8</ele>
        <time>2021-08-14T14:17:07Z</time>
      </trkpt>
      <trkpt lat="46.73645" lon="6.29839">
        <ele>1033.3</ele>
        <time>2021-08-14T14:17:08Z</time>
      </trkpt>
      <trkpt lat="46.73642" lon="6.29826">
        <ele>1032.7</ele>
        <time>2021-08-14T14:17:09Z</time>
      </trkpt>
      <trkpt lat="46.73641" lon="6.2982">
        <ele>1032.4</ele>
        <time>2021-08-14T14:17:10Z</time>
      </trkpt>
      <trkpt lat="46.7364" lon="6.29813">
        <ele>1032.2</ele>
        <time>2021-08-14T14:17:11Z</time>
      </trkpt>
      <trkpt lat="46.7364" lon="6.29807">
        <ele>1031.9</ele>
        <time>2021-08-14T14:17:12Z</time>
      </trkpt>
      <trkpt lat="46.73639" lon="6.298">
        <ele>1031.6</ele>
        <time>2021-08-14T14:17:13Z</time>
      </trkpt>
      <trkpt lat="46.73638" lon="6.29795">
        <ele>1031.3</ele>
        <time>2021-08-14T14:17:14Z</time>
      </trkpt>
      <trkpt lat="46.73636" lon="6.29787">
        <ele>1031</ele>
        <time>2021-08-14T14:17:16Z</time>
      </trkpt>
      <trkpt lat="46.73634" lon="6.29776">
        <ele>1030.5</ele>
        <time>2021-08-14T14:17:18Z</time>
      </trkpt>
      <trkpt lat="46.73632" lon="6.29771">
        <ele>1030.2</ele>
        <time>2021-08-14T14:17:19Z</time>
      </trkpt>
      <trkpt lat="46.73632" lon="6.29769">
        <ele>1030.1</ele>
        <time>2021-08-14T14:17:20Z</time>
      </trkpt>
      <trkpt lat="46.73631" lon="6.29765">
        <ele>1029.9</ele>
        <time>2021-08-14T14:17:22Z</time>
      </trkpt>
      <trkpt lat="46.73629" lon="6.29763">
        <ele>1029.7</ele>
        <time>2021-08-14T14:17:24Z</time>
      </trkpt>
      <trkpt lat="46.73627" lon="6.29761">
        <ele>1029.6</ele>
        <time>2021-08-14T14:17:25Z</time>
      </trkpt>
      <trkpt lat="46.73624" lon="6.29758">
        <ele>1029.3</ele>
        <time>2021-08-14T14:17:27Z</time>
      </trkpt>
      <trkpt lat="46.73624" lon="6.29758">
        <ele>1029.3</ele>
        <time>2021-08-14T14:17:28Z</time>
      </trkpt>
      <trkpt lat="46.73622" lon="6.29759">
        <ele>1029.1</ele>
        <time>2021-08-14T14:17:29Z</time>
      </trkpt>
      <trkpt lat="46.73621" lon="6.29759">
        <ele>1029.1</ele>
        <time>2021-08-14T14:17:30Z</time>
      </trkpt>
      <trkpt lat="46.7362" lon="6.29759">
        <ele>1029</ele>
        <time>2021-08-14T14:17:32Z</time>
      </trkpt>
      <trkpt lat="46.73619" lon="6.29759">
        <ele>1029</ele>
        <time>2021-08-14T14:17:33Z</time>
      </trkpt>
      <trkpt lat="46.73619" lon="6.29758">
        <ele>1028.9</ele>
        <time>2021-08-14T14:17:35Z</time>
      </trkpt>
      <trkpt lat="46.73596" lon="6.29694">
        <ele>1025.9</ele>
        <time>2021-08-14T14:18:00Z</time>
      </trkpt>
      <trkpt lat="46.73597" lon="6.29687">
        <ele>1025.6</ele>
        <time>2021-08-14T14:18:02Z</time>
      </trkpt>
      <trkpt lat="46.73598" lon="6.29679">
        <ele>1025.3</ele>
        <time>2021-08-14T14:18:03Z</time>
      </trkpt>
      <trkpt lat="46.73598" lon="6.29669">
        <ele>1024.9</ele>
        <time>2021-08-14T14:18:05Z</time>
      </trkpt>
      <trkpt lat="46.73594" lon="6.29662">
        <ele>1024.7</ele>
        <time>2021-08-14T14:18:06Z</time>
      </trkpt>
      <trkpt lat="46.73589" lon="6.29653">
        <ele>1024.4</ele>
        <time>2021-08-14T14:18:08Z</time>
      </trkpt>
      <trkpt lat="46.73583" lon="6.29647">
        <ele>1024.2</ele>
        <time>2021-08-14T14:18:10Z</time>
      </trkpt>
      <trkpt lat="46.7358" lon="6.29643">
        <ele>1024.2</ele>
        <time>2021-08-14T14:18:11Z</time>
      </trkpt>
      <trkpt lat="46.73576" lon="6.29639">
        <ele>1024.1</ele>
        <time>2021-08-14T14:18:12Z</time>
      </trkpt>
      <trkpt lat="46.73575" lon="6.29638">
        <ele>1024.1</ele>
        <time>2021-08-14T14:18:13Z</time>
      </trkpt>
      <trkpt lat="46.73573" lon="6.29636">
        <ele>1024.1</ele>
        <time>2021-08-14T14:18:14Z</time>
      </trkpt>
      <trkpt lat="46.73569" lon="6.29633">
        <ele>1024</ele>
        <time>2021-08-14T14:18:16Z</time>
      </trkpt>
      <trkpt lat="46.73567" lon="6.29629">
        <ele>1024</ele>
        <time>2021-08-14T14:18:17Z</time>
      </trkpt>
      <trkpt lat="46.73565" lon="6.29626">
        <ele>1024</ele>
        <time>2021-08-14T14:18:18Z</time>
      </trkpt>
      <trkpt lat="46.73564" lon="6.29622">
        <ele>1023.9</ele>
        <time>2021-08-14T14:18:20Z</time>
      </trkpt>
      <trkpt lat="46.73562" lon="6.29615">
        <ele>1023.7</ele>
        <time>2021-08-14T14:18:21Z</time>
      </trkpt>
      <trkpt lat="46.7356" lon="6.29608">
        <ele>1023.5</ele>
        <time>2021-08-14T14:18:22Z</time>
      </trkpt>
      <trkpt lat="46.73554" lon="6.29589">
        <ele>1022.3</ele>
        <time>2021-08-14T14:18:24Z</time>
      </trkpt>
      <trkpt lat="46.73551" lon="6.29579">
        <ele>1021.5</ele>
        <time>2021-08-14T14:18:25Z</time>
      </trkpt>
      <trkpt lat="46.73547" lon="6.29568">
        <ele>1020.8</ele>
        <time>2021-08-14T14:18:26Z</time>
      </trkpt>
      <trkpt lat="46.73542" lon="6.29548">
        <ele>1019.8</ele>
        <time>2021-08-14T14:18:28Z</time>
      </trkpt>
      <trkpt lat="46.73539" lon="6.2954">
        <ele>1019.4</ele>
        <time>2021-08-14T14:18:29Z</time>
      </trkpt>
      <trkpt lat="46.73535" lon="6.29523">
        <ele>1018.1</ele>
        <time>2021-08-14T14:18:31Z</time>
      </trkpt>
      <trkpt lat="46.73533" lon="6.29506">
        <ele>1017</ele>
        <time>2021-08-14T14:18:33Z</time>
      </trkpt>
      <trkpt lat="46.73531" lon="6.29491">
        <ele>1016</ele>
        <time>2021-08-14T14:18:35Z</time>
      </trkpt>
      <trkpt lat="46.7353" lon="6.29475">
        <ele>1015.1</ele>
        <time>2021-08-14T14:18:37Z</time>
      </trkpt>
      <trkpt lat="46.7353" lon="6.29466">
        <ele>1014.7</ele>
        <time>2021-08-14T14:18:38Z</time>
      </trkpt>
      <trkpt lat="46.7353" lon="6.29457">
        <ele>1014.3</ele>
        <time>2021-08-14T14:18:39Z</time>
      </trkpt>
      <trkpt lat="46.73531" lon="6.29448">
        <ele>1013.9</ele>
        <time>2021-08-14T14:18:40Z</time>
      </trkpt>
      <trkpt lat="46.73533" lon="6.2944">
        <ele>1013.5</ele>
        <time>2021-08-14T14:18:41Z</time>
      </trkpt>
      <trkpt lat="46.73535" lon="6.29422">
        <ele>1013</ele>
        <time>2021-08-14T14:18:43Z</time>
      </trkpt>
      <trkpt lat="46.73538" lon="6.29407">
        <ele>1012.8</ele>
        <time>2021-08-14T14:18:45Z</time>
      </trkpt>
      <trkpt lat="46.73542" lon="6.29394">
        <ele>1012.7</ele>
        <time>2021-08-14T14:18:47Z</time>
      </trkpt>
      <trkpt lat="46.73546" lon="6.29383">
        <ele>1011.6</ele>
        <time>2021-08-14T14:18:49Z</time>
      </trkpt>
      <trkpt lat="46.73549" lon="6.29376">
        <ele>1011.1</ele>
        <time>2021-08-14T14:18:51Z</time>
      </trkpt>
      <trkpt lat="46.73549" lon="6.29375">
        <ele>1011</ele>
        <time>2021-08-14T14:18:53Z</time>
      </trkpt>
      <trkpt lat="46.73545" lon="6.29379">
        <ele>1011.5</ele>
        <time>2021-08-14T14:18:55Z</time>
      </trkpt>
      <trkpt lat="46.73542" lon="6.29382">
        <ele>1011.8</ele>
        <time>2021-08-14T14:18:56Z</time>
      </trkpt>
      <trkpt lat="46.73542" lon="6.29382">
        <ele>1011.9</ele>
        <time>2021-08-14T14:18:57Z</time>
      </trkpt>
      <trkpt lat="46.7354" lon="6.29384">
        <ele>1012.1</ele>
        <time>2021-08-14T14:18:58Z</time>
      </trkpt>
      <trkpt lat="46.73532" lon="6.29393">
        <ele>1013</ele>
        <time>2021-08-14T14:19:00Z</time>
      </trkpt>
      <trkpt lat="46.73525" lon="6.29402">
        <ele>1013.6</ele>
        <time>2021-08-14T14:19:02Z</time>
      </trkpt>
      <trkpt lat="46.73521" lon="6.29404">
        <ele>1013.9</ele>
        <time>2021-08-14T14:19:04Z</time>
      </trkpt>
      <trkpt lat="46.73521" lon="6.29404">
        <ele>1013.9</ele>
        <time>2021-08-14T14:19:04Z</time>
      </trkpt>
      <trkpt lat="46.73513" lon="6.29415">
        <ele>1014.6</ele>
        <time>2021-08-14T14:19:05Z</time>
      </trkpt>
      <trkpt lat="46.73506" lon="6.29424">
        <ele>1015.2</ele>
        <time>2021-08-14T14:19:07Z</time>
      </trkpt>
      <trkpt lat="46.73501" lon="6.29431">
        <ele>1015.7</ele>
        <time>2021-08-14T14:19:08Z</time>
      </trkpt>
      <trkpt lat="46.73499" lon="6.29436">
        <ele>1016</ele>
        <time>2021-08-14T14:19:09Z</time>
      </trkpt>
      <trkpt lat="46.73496" lon="6.29441">
        <ele>1016.3</ele>
        <time>2021-08-14T14:19:10Z</time>
      </trkpt>
      <trkpt lat="46.73492" lon="6.29447">
        <ele>1016.7</ele>
        <time>2021-08-14T14:19:12Z</time>
      </trkpt>
      <trkpt lat="46.7349" lon="6.2945">
        <ele>1016.9</ele>
        <time>2021-08-14T14:19:13Z</time>
      </trkpt>
      <trkpt lat="46.73488" lon="6.2945">
        <ele>1017</ele>
        <time>2021-08-14T14:19:14Z</time>
      </trkpt>
      <trkpt lat="46.73487" lon="6.29451">
        <ele>1017.1</ele>
        <time>2021-08-14T14:19:16Z</time>
      </trkpt>
      <trkpt lat="46.73486" lon="6.29451">
        <ele>1017.2</ele>
        <time>2021-08-14T14:19:17Z</time>
      </trkpt>
      <trkpt lat="46.73486" lon="6.29451">
        <ele>1017.2</ele>
        <time>2021-08-14T14:19:18Z</time>
      </trkpt>
      <trkpt lat="46.73485" lon="6.29451">
        <ele>1017.3</ele>
        <time>2021-08-14T14:19:20Z</time>
      </trkpt>
      <trkpt lat="46.73485" lon="6.29447">
        <ele>1017.5</ele>
        <time>2021-08-14T14:19:21Z</time>
      </trkpt>
      <trkpt lat="46.73485" lon="6.29447">
        <ele>1017.5</ele>
        <time>2021-08-14T14:19:22Z</time>
      </trkpt>
      <trkpt lat="46.73484" lon="6.2942">
        <ele>1017.6</ele>
        <time>2021-08-14T14:20:16Z</time>
      </trkpt>
      <trkpt lat="46.73482" lon="6.29417">
        <ele>1017.9</ele>
        <time>2021-08-14T14:20:17Z</time>
      </trkpt>
      <trkpt lat="46.7348" lon="6.29414">
        <ele>1018.2</ele>
        <time>2021-08-14T14:20:18Z</time>
      </trkpt>
      <trkpt lat="46.73478" lon="6.29411">
        <ele>1018.5</ele>
        <time>2021-08-14T14:20:19Z</time>
      </trkpt>
      <trkpt lat="46.73477" lon="6.29409">
        <ele>1018.6</ele>
        <time>2021-08-14T14:20:20Z</time>
      </trkpt>
      <trkpt lat="46.73475" lon="6.29406">
        <ele>1019</ele>
        <time>2021-08-14T14:20:22Z</time>
      </trkpt>
      <trkpt lat="46.73472" lon="6.29403">
        <ele>1019.3</ele>
        <time>2021-08-14T14:20:23Z</time>
      </trkpt>
      <trkpt lat="46.73472" lon="6.29403">
        <ele>1019.4</ele>
        <time>2021-08-14T14:20:24Z</time>
      </trkpt>
      <trkpt lat="46.73469" lon="6.294">
        <ele>1019.7</ele>
        <time>2021-08-14T14:20:26Z</time>
      </trkpt>
      <trkpt lat="46.73467" lon="6.29401">
        <ele>1019.9</ele>
        <time>2021-08-14T14:20:27Z</time>
      </trkpt>
      <trkpt lat="46.73465" lon="6.294">
        <ele>1020</ele>
        <time>2021-08-14T14:20:29Z</time>
      </trkpt>
      <trkpt lat="46.73462" lon="6.29399">
        <ele>1020.4</ele>
        <time>2021-08-14T14:20:30Z</time>
      </trkpt>
      <trkpt lat="46.73461" lon="6.29398">
        <ele>1020.5</ele>
        <time>2021-08-14T14:20:31Z</time>
      </trkpt>
      <trkpt lat="46.73459" lon="6.29394">
        <ele>1020.8</ele>
        <time>2021-08-14T14:20:32Z</time>
      </trkpt>
      <trkpt lat="46.73459" lon="6.29394">
        <ele>1020.8</ele>
        <time>2021-08-14T14:20:33Z</time>
      </trkpt>
      <trkpt lat="46.73458" lon="6.29391">
        <ele>1021.1</ele>
        <time>2021-08-14T14:20:34Z</time>
      </trkpt>
      <trkpt lat="46.73456" lon="6.29388">
        <ele>1021.4</ele>
        <time>2021-08-14T14:20:36Z</time>
      </trkpt>
      <trkpt lat="46.73455" lon="6.29383">
        <ele>1021.6</ele>
        <time>2021-08-14T14:20:38Z</time>
      </trkpt>
      <trkpt lat="46.73455" lon="6.29381">
        <ele>1021.8</ele>
        <time>2021-08-14T14:20:39Z</time>
      </trkpt>
      <trkpt lat="46.73455" lon="6.29378">
        <ele>1021.9</ele>
        <time>2021-08-14T14:20:40Z</time>
      </trkpt>
      <trkpt lat="46.73456" lon="6.29374">
        <ele>1022.3</ele>
        <time>2021-08-14T14:20:41Z</time>
      </trkpt>
      <trkpt lat="46.73456" lon="6.29372">
        <ele>1022.3</ele>
        <time>2021-08-14T14:20:42Z</time>
      </trkpt>
      <trkpt lat="46.73455" lon="6.2937">
        <ele>1022.5</ele>
        <time>2021-08-14T14:20:43Z</time>
      </trkpt>
      <trkpt lat="46.73454" lon="6.29368">
        <ele>1022.7</ele>
        <time>2021-08-14T14:20:44Z</time>
      </trkpt>
      <trkpt lat="46.73454" lon="6.29366">
        <ele>1022.8</ele>
        <time>2021-08-14T14:20:45Z</time>
      </trkpt>
      <trkpt lat="46.73454" lon="6.29364">
        <ele>1023</ele>
        <time>2021-08-14T14:20:46Z</time>
      </trkpt>
      <trkpt lat="46.73453" lon="6.29362">
        <ele>1023.1</ele>
        <time>2021-08-14T14:20:47Z</time>
      </trkpt>
      <trkpt lat="46.73451" lon="6.2936">
        <ele>1023.3</ele>
        <time>2021-08-14T14:20:49Z</time>
      </trkpt>
      <trkpt lat="46.7345" lon="6.29356">
        <ele>1023.5</ele>
        <time>2021-08-14T14:20:50Z</time>
      </trkpt>
      <trkpt lat="46.73448" lon="6.29353">
        <ele>1023.8</ele>
        <time>2021-08-14T14:20:52Z</time>
      </trkpt>
      <trkpt lat="46.73446" lon="6.2935">
        <ele>1024.1</ele>
        <time>2021-08-14T14:20:53Z</time>
      </trkpt>
      <trkpt lat="46.73445" lon="6.29348">
        <ele>1024.2</ele>
        <time>2021-08-14T14:20:54Z</time>
      </trkpt>
      <trkpt lat="46.73442" lon="6.29345">
        <ele>1024.6</ele>
        <time>2021-08-14T14:20:55Z</time>
      </trkpt>
      <trkpt lat="46.73441" lon="6.29344">
        <ele>1024.7</ele>
        <time>2021-08-14T14:20:56Z</time>
      </trkpt>
      <trkpt lat="46.73439" lon="6.29343">
        <ele>1024.8</ele>
        <time>2021-08-14T14:20:58Z</time>
      </trkpt>
      <trkpt lat="46.73438" lon="6.29341">
        <ele>1025</ele>
        <time>2021-08-14T14:20:59Z</time>
      </trkpt>
      <trkpt lat="46.73437" lon="6.29338">
        <ele>1025.2</ele>
        <time>2021-08-14T14:21:00Z</time>
      </trkpt>
      <trkpt lat="46.73437" lon="6.29337">
        <ele>1025.3</ele>
        <time>2021-08-14T14:21:01Z</time>
      </trkpt>
      <trkpt lat="46.73436" lon="6.29336">
        <ele>1025.3</ele>
        <time>2021-08-14T14:21:03Z</time>
      </trkpt>
      <trkpt lat="46.73436" lon="6.29335">
        <ele>1025.4</ele>
        <time>2021-08-14T14:21:04Z</time>
      </trkpt>
      <trkpt lat="46.73435" lon="6.29334">
        <ele>1025.5</ele>
        <time>2021-08-14T14:21:05Z</time>
      </trkpt>
      <trkpt lat="46.73435" lon="6.29332">
        <ele>1025.6</ele>
        <time>2021-08-14T14:21:06Z</time>
      </trkpt>
      <trkpt lat="46.73435" lon="6.29328">
        <ele>1025.8</ele>
        <time>2021-08-14T14:21:08Z</time>
      </trkpt>
      <trkpt lat="46.73435" lon="6.29327">
        <ele>1025.9</ele>
        <time>2021-08-14T14:21:09Z</time>
      </trkpt>
      <trkpt lat="46.73435" lon="6.29324">
        <ele>1026</ele>
        <time>2021-08-14T14:21:11Z</time>
      </trkpt>
      <trkpt lat="46.73436" lon="6.29322">
        <ele>1026.2</ele>
        <time>2021-08-14T14:21:13Z</time>
      </trkpt>
      <trkpt lat="46.73436" lon="6.29317">
        <ele>1026.5</ele>
        <time>2021-08-14T14:21:15Z</time>
      </trkpt>
      <trkpt lat="46.73436" lon="6.29312">
        <ele>1026.7</ele>
        <time>2021-08-14T14:21:17Z</time>
      </trkpt>
      <trkpt lat="46.73435" lon="6.29308">
        <ele>1027</ele>
        <time>2021-08-14T14:21:18Z</time>
      </trkpt>
      <trkpt lat="46.73432" lon="6.29305">
        <ele>1027.3</ele>
        <time>2021-08-14T14:21:20Z</time>
      </trkpt>
      <trkpt lat="46.73429" lon="6.29304">
        <ele>1027.5</ele>
        <time>2021-08-14T14:21:21Z</time>
      </trkpt>
      <trkpt lat="46.73426" lon="6.29301">
        <ele>1027.7</ele>
        <time>2021-08-14T14:21:22Z</time>
      </trkpt>
      <trkpt lat="46.73425" lon="6.293">
        <ele>1027.8</ele>
        <time>2021-08-14T14:21:23Z</time>
      </trkpt>
      <trkpt lat="46.73424" lon="6.29298">
        <ele>1028</ele>
        <time>2021-08-14T14:21:24Z</time>
      </trkpt>
      <trkpt lat="46.73423" lon="6.29298">
        <ele>1028</ele>
        <time>2021-08-14T14:21:25Z</time>
      </trkpt>
      <trkpt lat="46.73422" lon="6.29297">
        <ele>1028.1</ele>
        <time>2021-08-14T14:21:27Z</time>
      </trkpt>
      <trkpt lat="46.7342" lon="6.29293">
        <ele>1028.4</ele>
        <time>2021-08-14T14:21:28Z</time>
      </trkpt>
      <trkpt lat="46.73419" lon="6.29292">
        <ele>1028.5</ele>
        <time>2021-08-14T14:21:29Z</time>
      </trkpt>
      <trkpt lat="46.73417" lon="6.2929">
        <ele>1028.7</ele>
        <time>2021-08-14T14:21:30Z</time>
      </trkpt>
      <trkpt lat="46.73416" lon="6.29289">
        <ele>1028.8</ele>
        <time>2021-08-14T14:21:31Z</time>
      </trkpt>
      <trkpt lat="46.73414" lon="6.29287">
        <ele>1029</ele>
        <time>2021-08-14T14:21:32Z</time>
      </trkpt>
      <trkpt lat="46.73414" lon="6.29287">
        <ele>1029</ele>
        <time>2021-08-14T14:21:33Z</time>
      </trkpt>
      <trkpt lat="46.73413" lon="6.29285">
        <ele>1029.1</ele>
        <time>2021-08-14T14:21:35Z</time>
      </trkpt>
      <trkpt lat="46.73413" lon="6.29284">
        <ele>1029.2</ele>
        <time>2021-08-14T14:21:36Z</time>
      </trkpt>
      <trkpt lat="46.73412" lon="6.29284">
        <ele>1029.2</ele>
        <time>2021-08-14T14:21:37Z</time>
      </trkpt>
      <trkpt lat="46.73412" lon="6.29284">
        <ele>1029.2</ele>
        <time>2021-08-14T14:21:38Z</time>
      </trkpt>
      <trkpt lat="46.73412" lon="6.29284">
        <ele>1029.2</ele>
        <time>2021-08-14T14:21:39Z</time>
      </trkpt>
      <trkpt lat="46.73412" lon="6.29284">
        <ele>1029.2</ele>
        <time>2021-08-14T14:21:41Z</time>
      </trkpt>
      <trkpt lat="46.73363" lon="6.2925">
        <ele>1032.4</ele>
        <time>2021-08-14T14:22:38Z</time>
      </trkpt>
      <trkpt lat="46.73361" lon="6.29248">
        <ele>1032.5</ele>
        <time>2021-08-14T14:22:40Z</time>
      </trkpt>
      <trkpt lat="46.7336" lon="6.29246">
        <ele>1032.6</ele>
        <time>2021-08-14T14:22:42Z</time>
      </trkpt>
      <trkpt lat="46.7336" lon="6.29245">
        <ele>1032.7</ele>
        <time>2021-08-14T14:22:43Z</time>
      </trkpt>
      <trkpt lat="46.73359" lon="6.29242">
        <ele>1032.8</ele>
        <time>2021-08-14T14:22:44Z</time>
      </trkpt>
      <trkpt lat="46.73359" lon="6.29239">
        <ele>1032.9</ele>
        <time>2021-08-14T14:22:46Z</time>
      </trkpt>
      <trkpt lat="46.73361" lon="6.29237">
        <ele>1033</ele>
        <time>2021-08-14T14:22:47Z</time>
      </trkpt>
      <trkpt lat="46.73365" lon="6.2923">
        <ele>1033.4</ele>
        <time>2021-08-14T14:22:49Z</time>
      </trkpt>
      <trkpt lat="46.73369" lon="6.29221">
        <ele>1033.9</ele>
        <time>2021-08-14T14:22:51Z</time>
      </trkpt>
      <trkpt lat="46.73375" lon="6.29214">
        <ele>1034.4</ele>
        <time>2021-08-14T14:22:53Z</time>
      </trkpt>
      <trkpt lat="46.7338" lon="6.29205">
        <ele>1034.9</ele>
        <time>2021-08-14T14:22:54Z</time>
      </trkpt>
      <trkpt lat="46.73385" lon="6.29199">
        <ele>1035.3</ele>
        <time>2021-08-14T14:22:55Z</time>
      </trkpt>
      <trkpt lat="46.73392" lon="6.29192">
        <ele>1035.8</ele>
        <time>2021-08-14T14:22:56Z</time>
      </trkpt>
      <trkpt lat="46.73398" lon="6.29185">
        <ele>1036.3</ele>
        <time>2021-08-14T14:22:58Z</time>
      </trkpt>
      <trkpt lat="46.734" lon="6.29181">
        <ele>1036.5</ele>
        <time>2021-08-14T14:22:59Z</time>
      </trkpt>
      <trkpt lat="46.73403" lon="6.29175">
        <ele>1036.8</ele>
        <time>2021-08-14T14:23:01Z</time>
      </trkpt>
      <trkpt lat="46.73406" lon="6.29168">
        <ele>1037.1</ele>
        <time>2021-08-14T14:23:03Z</time>
      </trkpt>
      <trkpt lat="46.73408" lon="6.29161">
        <ele>1037.4</ele>
        <time>2021-08-14T14:23:05Z</time>
      </trkpt>
      <trkpt lat="46.73408" lon="6.29157">
        <ele>1037.6</ele>
        <time>2021-08-14T14:23:06Z</time>
      </trkpt>
      <trkpt lat="46.73406" lon="6.29153">
        <ele>1037.8</ele>
        <time>2021-08-14T14:23:08Z</time>
      </trkpt>
      <trkpt lat="46.73403" lon="6.29153">
        <ele>1038</ele>
        <time>2021-08-14T14:23:09Z</time>
      </trkpt>
      <trkpt lat="46.73399" lon="6.29152">
        <ele>1038.2</ele>
        <time>2021-08-14T14:23:10Z</time>
      </trkpt>
      <trkpt lat="46.73398" lon="6.29151">
        <ele>1038.2</ele>
        <time>2021-08-14T14:23:11Z</time>
      </trkpt>
      <trkpt lat="46.73397" lon="6.29149">
        <ele>1038.3</ele>
        <time>2021-08-14T14:23:13Z</time>
      </trkpt>
      <trkpt lat="46.73397" lon="6.2915">
        <ele>1038.4</ele>
        <time>2021-08-14T14:23:14Z</time>
      </trkpt>
      <trkpt lat="46.73396" lon="6.2915">
        <ele>1038.4</ele>
        <time>2021-08-14T14:23:16Z</time>
      </trkpt>
      <trkpt lat="46.73395" lon="6.29149">
        <ele>1038.5</ele>
        <time>2021-08-14T14:23:17Z</time>
      </trkpt>
      <trkpt lat="46.73394" lon="6.29147">
        <ele>1038.6</ele>
        <time>2021-08-14T14:23:18Z</time>
      </trkpt>
      <trkpt lat="46.73393" lon="6.29146">
        <ele>1038.7</ele>
        <time>2021-08-14T14:23:19Z</time>
      </trkpt>
      <trkpt lat="46.73392" lon="6.29143">
        <ele>1038.8</ele>
        <time>2021-08-14T14:23:20Z</time>
      </trkpt>
      <trkpt lat="46.7339" lon="6.29142">
        <ele>1038.9</ele>
        <time>2021-08-14T14:23:22Z</time>
      </trkpt>
      <trkpt lat="46.73386" lon="6.29141">
        <ele>1039.1</ele>
        <time>2021-08-14T14:23:23Z</time>
      </trkpt>
      <trkpt lat="46.73385" lon="6.29141">
        <ele>1039.2</ele>
        <time>2021-08-14T14:23:24Z</time>
      </trkpt>
      <trkpt lat="46.73382" lon="6.2914">
        <ele>1039.3</ele>
        <time>2021-08-14T14:23:25Z</time>
      </trkpt>
      <trkpt lat="46.73379" lon="6.29139">
        <ele>1039.5</ele>
        <time>2021-08-14T14:23:27Z</time>
      </trkpt>
      <trkpt lat="46.73375" lon="6.29136">
        <ele>1039.7</ele>
        <time>2021-08-14T14:23:29Z</time>
      </trkpt>
      <trkpt lat="46.73372" lon="6.29134">
        <ele>1039.9</ele>
        <time>2021-08-14T14:23:30Z</time>
      </trkpt>
      <trkpt lat="46.73367" lon="6.29131">
        <ele>1040.2</ele>
        <time>2021-08-14T14:23:32Z</time>
      </trkpt>
      <trkpt lat="46.73363" lon="6.29128">
        <ele>1040.4</ele>
        <time>2021-08-14T14:23:34Z</time>
      </trkpt>
      <trkpt lat="46.73362" lon="6.29126">
        <ele>1040.5</ele>
        <time>2021-08-14T14:23:35Z</time>
      </trkpt>
      <trkpt lat="46.7336" lon="6.29127">
        <ele>1040.7</ele>
        <time>2021-08-14T14:23:37Z</time>
      </trkpt>
      <trkpt lat="46.73359" lon="6.29127">
        <ele>1040.7</ele>
        <time>2021-08-14T14:23:38Z</time>
      </trkpt>
      <trkpt lat="46.73359" lon="6.29127">
        <ele>1040.7</ele>
        <time>2021-08-14T14:23:39Z</time>
      </trkpt>
      <trkpt lat="46.73359" lon="6.29127">
        <ele>1040.7</ele>
        <time>2021-08-14T14:23:41Z</time>
      </trkpt>
      <trkpt lat="46.73359" lon="6.29127">
        <ele>1040.7</ele>
        <time>2021-08-14T14:23:42Z</time>
      </trkpt>
      <trkpt lat="46.73358" lon="6.29127">
        <ele>1040.7</ele>
        <time>2021-08-14T14:23:43Z</time>
      </trkpt>
      <trkpt lat="46.73358" lon="6.29127">
        <ele>1040.7</ele>
        <time>2021-08-14T14:23:44Z</time>
      </trkpt>
      <trkpt lat="46.73315" lon="6.29066">
        <ele>1044.4</ele>
        <time>2021-08-14T14:24:25Z</time>
      </trkpt>
      <trkpt lat="46.73312" lon="6.29062">
        <ele>1044.6</ele>
        <time>2021-08-14T14:24:26Z</time>
      </trkpt>
      <trkpt lat="46.7331" lon="6.29059">
        <ele>1044.8</ele>
        <time>2021-08-14T14:24:27Z</time>
      </trkpt>
      <trkpt lat="46.73307" lon="6.29054">
        <ele>1045.1</ele>
        <time>2021-08-14T14:24:28Z</time>
      </trkpt>
      <trkpt lat="46.73306" lon="6.29053">
        <ele>1045.2</ele>
        <time>2021-08-14T14:24:29Z</time>
      </trkpt>
      <trkpt lat="46.73302" lon="6.29051">
        <ele>1045.4</ele>
        <time>2021-08-14T14:24:31Z</time>
      </trkpt>
      <trkpt lat="46.73298" lon="6.29052">
        <ele>1045.7</ele>
        <time>2021-08-14T14:24:32Z</time>
      </trkpt>
      <trkpt lat="46.73295" lon="6.29053">
        <ele>1045.9</ele>
        <time>2021-08-14T14:24:33Z</time>
      </trkpt>
      <trkpt lat="46.73293" lon="6.29053">
        <ele>1046.1</ele>
        <time>2021-08-14T14:24:34Z</time>
      </trkpt>
      <trkpt lat="46.73292" lon="6.29053">
        <ele>1046.1</ele>
        <time>2021-08-14T14:24:35Z</time>
      </trkpt>
      <trkpt lat="46.73292" lon="6.29052">
        <ele>1046.2</ele>
        <time>2021-08-14T14:24:36Z</time>
      </trkpt>
      <trkpt lat="46.73289" lon="6.29053">
        <ele>1046.4</ele>
        <time>2021-08-14T14:24:37Z</time>
      </trkpt>
      <trkpt lat="46.73287" lon="6.29054">
        <ele>1046.6</ele>
        <time>2021-08-14T14:24:38Z</time>
      </trkpt>
      <trkpt lat="46.73282" lon="6.29055">
        <ele>1046.9</ele>
        <time>2021-08-14T14:24:40Z</time>
      </trkpt>
      <trkpt lat="46.73279" lon="6.29055">
        <ele>1047.1</ele>
        <time>2021-08-14T14:24:41Z</time>
      </trkpt>
      <trkpt lat="46.73277" lon="6.29054">
        <ele>1047.3</ele>
        <time>2021-08-14T14:24:42Z</time>
      </trkpt>
      <trkpt lat="46.73275" lon="6.29053">
        <ele>1047.4</ele>
        <time>2021-08-14T14:24:43Z</time>
      </trkpt>
      <trkpt lat="46.73272" lon="6.29047">
        <ele>1047.8</ele>
        <time>2021-08-14T14:24:45Z</time>
      </trkpt>
      <trkpt lat="46.73271" lon="6.29042">
        <ele>1048</ele>
        <time>2021-08-14T14:24:46Z</time>
      </trkpt>
      <trkpt lat="46.73271" lon="6.29041">
        <ele>1048.1</ele>
        <time>2021-08-14T14:24:47Z</time>
      </trkpt>
      <trkpt lat="46.73272" lon="6.29036">
        <ele>1048.3</ele>
        <time>2021-08-14T14:24:48Z</time>
      </trkpt>
      <trkpt lat="46.73272" lon="6.29034">
        <ele>1048.4</ele>
        <time>2021-08-14T14:24:49Z</time>
      </trkpt>
      <trkpt lat="46.73273" lon="6.29031">
        <ele>1048.6</ele>
        <time>2021-08-14T14:24:50Z</time>
      </trkpt>
      <trkpt lat="46.73275" lon="6.29026">
        <ele>1048.8</ele>
        <time>2021-08-14T14:24:52Z</time>
      </trkpt>
      <trkpt lat="46.73276" lon="6.29024">
        <ele>1049</ele>
        <time>2021-08-14T14:24:53Z</time>
      </trkpt>
      <trkpt lat="46.73276" lon="6.29024">
        <ele>1049</ele>
        <time>2021-08-14T14:24:54Z</time>
      </trkpt>
      <trkpt lat="46.73277" lon="6.29021">
        <ele>1049.2</ele>
        <time>2021-08-14T14:24:56Z</time>
      </trkpt>
      <trkpt lat="46.73277" lon="6.2902">
        <ele>1049.2</ele>
        <time>2021-08-14T14:24:57Z</time>
      </trkpt>
      <trkpt lat="46.73277" lon="6.29017">
        <ele>1049.4</ele>
        <time>2021-08-14T14:24:58Z</time>
      </trkpt>
      <trkpt lat="46.73276" lon="6.29017">
        <ele>1049.4</ele>
        <time>2021-08-14T14:24:59Z</time>
      </trkpt>
      <trkpt lat="46.73276" lon="6.29016">
        <ele>1049.4</ele>
        <time>2021-08-14T14:25:00Z</time>
      </trkpt>
      <trkpt lat="46.73275" lon="6.29015">
        <ele>1049.5</ele>
        <time>2021-08-14T14:25:02Z</time>
      </trkpt>
      <trkpt lat="46.73274" lon="6.29015">
        <ele>1049.6</ele>
        <time>2021-08-14T14:25:03Z</time>
      </trkpt>
      <trkpt lat="46.73272" lon="6.29014">
        <ele>1049.7</ele>
        <time>2021-08-14T14:25:05Z</time>
      </trkpt>
      <trkpt lat="46.73271" lon="6.29013">
        <ele>1049.8</ele>
        <time>2021-08-14T14:25:06Z</time>
      </trkpt>
      <trkpt lat="46.73271" lon="6.29012">
        <ele>1049.9</ele>
        <time>2021-08-14T14:25:07Z</time>
      </trkpt>
      <trkpt lat="46.73251" lon="6.28992">
        <ele>1051.7</ele>
        <time>2021-08-14T14:25:27Z</time>
      </trkpt>
      <trkpt lat="46.73248" lon="6.28987">
        <ele>1052</ele>
        <time>2021-08-14T14:25:28Z</time>
      </trkpt>
      <trkpt lat="46.73246" lon="6.28982">
        <ele>1052.3</ele>
        <time>2021-08-14T14:25:29Z</time>
      </trkpt>
      <trkpt lat="46.73244" lon="6.28975">
        <ele>1052.7</ele>
        <time>2021-08-14T14:25:31Z</time>
      </trkpt>
      <trkpt lat="46.73244" lon="6.28973">
        <ele>1052.9</ele>
        <time>2021-08-14T14:25:32Z</time>
      </trkpt>
      <trkpt lat="46.73243" lon="6.2897">
        <ele>1053</ele>
        <time>2021-08-14T14:25:33Z</time>
      </trkpt>
      <trkpt lat="46.73242" lon="6.28967">
        <ele>1053.2</ele>
        <time>2021-08-14T14:25:35Z</time>
      </trkpt>
      <trkpt lat="46.73242" lon="6.28967">
        <ele>1053.2</ele>
        <time>2021-08-14T14:25:36Z</time>
      </trkpt>
      <trkpt lat="46.73242" lon="6.28965">
        <ele>1053.2</ele>
        <time>2021-08-14T14:25:37Z</time>
      </trkpt>
      <trkpt lat="46.73241" lon="6.28962">
        <ele>1053.4</ele>
        <time>2021-08-14T14:25:39Z</time>
      </trkpt>
      <trkpt lat="46.73239" lon="6.2896">
        <ele>1053.6</ele>
        <time>2021-08-14T14:25:40Z</time>
      </trkpt>
      <trkpt lat="46.73239" lon="6.28962">
        <ele>1053.7</ele>
        <time>2021-08-14T14:25:41Z</time>
      </trkpt>
      <trkpt lat="46.73237" lon="6.28964">
        <ele>1053.8</ele>
        <time>2021-08-14T14:25:43Z</time>
      </trkpt>
      <trkpt lat="46.73236" lon="6.28964">
        <ele>1053.9</ele>
        <time>2021-08-14T14:25:44Z</time>
      </trkpt>
      <trkpt lat="46.73234" lon="6.28964">
        <ele>1054</ele>
        <time>2021-08-14T14:25:46Z</time>
      </trkpt>
      <trkpt lat="46.73233" lon="6.28964">
        <ele>1054.2</ele>
        <time>2021-08-14T14:25:47Z</time>
      </trkpt>
      <trkpt lat="46.73231" lon="6.28963">
        <ele>1054.2</ele>
        <time>2021-08-14T14:25:48Z</time>
      </trkpt>
      <trkpt lat="46.73229" lon="6.28962">
        <ele>1054.4</ele>
        <time>2021-08-14T14:25:49Z</time>
      </trkpt>
      <trkpt lat="46.73185" lon="6.28958">
        <ele>1057.7</ele>
        <time>2021-08-14T14:26:05Z</time>
      </trkpt>
      <trkpt lat="46.73182" lon="6.28955">
        <ele>1058</ele>
        <time>2021-08-14T14:26:06Z</time>
      </trkpt>
      <trkpt lat="46.73179" lon="6.28953">
        <ele>1058.3</ele>
        <time>2021-08-14T14:26:07Z</time>
      </trkpt>
      <trkpt lat="46.73176" lon="6.28951">
        <ele>1058.5</ele>
        <time>2021-08-14T14:26:08Z</time>
      </trkpt>
      <trkpt lat="46.73175" lon="6.2895">
        <ele>1058.6</ele>
        <time>2021-08-14T14:26:09Z</time>
      </trkpt>
      <trkpt lat="46.73175" lon="6.2895">
        <ele>1058.6</ele>
        <time>2021-08-14T14:26:10Z</time>
      </trkpt>
      <trkpt lat="46.73174" lon="6.2895">
        <ele>1058.7</ele>
        <time>2021-08-14T14:26:11Z</time>
      </trkpt>
      <trkpt lat="46.73174" lon="6.2895">
        <ele>1058.7</ele>
        <time>2021-08-14T14:26:13Z</time>
      </trkpt>
      <trkpt lat="46.73173" lon="6.2895">
        <ele>1058.8</ele>
        <time>2021-08-14T14:26:14Z</time>
      </trkpt>
      <trkpt lat="46.73172" lon="6.2895">
        <ele>1058.8</ele>
        <time>2021-08-14T14:26:15Z</time>
      </trkpt>
      <trkpt lat="46.73171" lon="6.28951">
        <ele>1058.9</ele>
        <time>2021-08-14T14:26:16Z</time>
      </trkpt>
      <trkpt lat="46.73168" lon="6.28952">
        <ele>1059.1</ele>
        <time>2021-08-14T14:26:18Z</time>
      </trkpt>
      <trkpt lat="46.7316" lon="6.28956">
        <ele>1059.8</ele>
        <time>2021-08-14T14:26:22Z</time>
      </trkpt>
      <trkpt lat="46.73156" lon="6.28958">
        <ele>1060.1</ele>
        <time>2021-08-14T14:26:23Z</time>
      </trkpt>
      <trkpt lat="46.73148" lon="6.28965">
        <ele>1060.9</ele>
        <time>2021-08-14T14:26:25Z</time>
      </trkpt>
      <trkpt lat="46.73143" lon="6.28968">
        <ele>1061.3</ele>
        <time>2021-08-14T14:26:26Z</time>
      </trkpt>
      <trkpt lat="46.73139" lon="6.28972">
        <ele>1061.7</ele>
        <time>2021-08-14T14:26:28Z</time>
      </trkpt>
      <trkpt lat="46.73136" lon="6.28975">
        <ele>1062</ele>
        <time>2021-08-14T14:26:29Z</time>
      </trkpt>
      <trkpt lat="46.73134" lon="6.28977">
        <ele>1062.1</ele>
        <time>2021-08-14T14:26:30Z</time>
      </trkpt>
      <trkpt lat="46.73133" lon="6.28977">
        <ele>1062.3</ele>
        <time>2021-08-14T14:26:31Z</time>
      </trkpt>
      <trkpt lat="46.73129" lon="6.28979">
        <ele>1062.6</ele>
        <time>2021-08-14T14:26:33Z</time>
      </trkpt>
      <trkpt lat="46.73129" lon="6.28985">
        <ele>1062.9</ele>
        <time>2021-08-14T14:26:34Z</time>
      </trkpt>
      <trkpt lat="46.73129" lon="6.2899">
        <ele>1063.1</ele>
        <time>2021-08-14T14:26:35Z</time>
      </trkpt>
      <trkpt lat="46.73129" lon="6.28995">
        <ele>1063.4</ele>
        <time>2021-08-14T14:26:36Z</time>
      </trkpt>
      <trkpt lat="46.73129" lon="6.29">
        <ele>1063.7</ele>
        <time>2021-08-14T14:26:38Z</time>
      </trkpt>
      <trkpt lat="46.73128" lon="6.29006">
        <ele>1063.9</ele>
        <time>2021-08-14T14:26:40Z</time>
      </trkpt>
      <trkpt lat="46.73128" lon="6.29011">
        <ele>1064.2</ele>
        <time>2021-08-14T14:27:09Z</time>
      </trkpt>
      <trkpt lat="46.73128" lon="6.29016">
        <ele>1064.4</ele>
        <time>2021-08-14T14:27:10Z</time>
      </trkpt>
      <trkpt lat="46.73128" lon="6.29021">
        <ele>1064.7</ele>
        <time>2021-08-14T14:27:11Z</time>
      </trkpt>
      <trkpt lat="46.73126" lon="6.29023">
        <ele>1064.9</ele>
        <time>2021-08-14T14:27:12Z</time>
      </trkpt>
      <trkpt lat="46.73125" lon="6.29024">
        <ele>1065</ele>
        <time>2021-08-14T14:27:14Z</time>
      </trkpt>
      <trkpt lat="46.73123" lon="6.29026">
        <ele>1065.1</ele>
        <time>2021-08-14T14:27:15Z</time>
      </trkpt>
      <trkpt lat="46.73123" lon="6.29026">
        <ele>1065.2</ele>
        <time>2021-08-14T14:27:16Z</time>
      </trkpt>
      <trkpt lat="46.73122" lon="6.29026">
        <ele>1065.2</ele>
        <time>2021-08-14T14:27:17Z</time>
      </trkpt>
      <trkpt lat="46.73122" lon="6.29026">
        <ele>1065.2</ele>
        <time>2021-08-14T14:27:19Z</time>
      </trkpt>
      <trkpt lat="46.73122" lon="6.29027">
        <ele>1065.2</ele>
        <time>2021-08-14T14:27:20Z</time>
      </trkpt>
      <trkpt lat="46.73122" lon="6.29029">
        <ele>1065.3</ele>
        <time>2021-08-14T14:27:21Z</time>
      </trkpt>
      <trkpt lat="46.73121" lon="6.2903">
        <ele>1065.4</ele>
        <time>2021-08-14T14:27:23Z</time>
      </trkpt>
      <trkpt lat="46.73001" lon="6.29095">
        <ele>1080</ele>
        <time>2021-08-14T14:29:50Z</time>
      </trkpt>
      <trkpt lat="46.72998" lon="6.29096">
        <ele>1080.2</ele>
        <time>2021-08-14T14:29:51Z</time>
      </trkpt>
      <trkpt lat="46.72996" lon="6.29098">
        <ele>1080.5</ele>
        <time>2021-08-14T14:29:53Z</time>
      </trkpt>
      <trkpt lat="46.72997" lon="6.29096">
        <ele>1080.6</ele>
        <time>2021-08-14T14:29:55Z</time>
      </trkpt>
      <trkpt lat="46.72996" lon="6.29094">
        <ele>1080.7</ele>
        <time>2021-08-14T14:29:57Z</time>
      </trkpt>
      <trkpt lat="46.72994" lon="6.29093">
        <ele>1080.9</ele>
        <time>2021-08-14T14:29:58Z</time>
      </trkpt>
      <trkpt lat="46.72989" lon="6.2909">
        <ele>1081.2</ele>
        <time>2021-08-14T14:30:00Z</time>
      </trkpt>
      <trkpt lat="46.72986" lon="6.2909">
        <ele>1081.4</ele>
        <time>2021-08-14T14:30:01Z</time>
      </trkpt>
      <trkpt lat="46.7298" lon="6.29092">
        <ele>1081.8</ele>
        <time>2021-08-14T14:30:03Z</time>
      </trkpt>
      <trkpt lat="46.72977" lon="6.29093">
        <ele>1082</ele>
        <time>2021-08-14T14:30:04Z</time>
      </trkpt>
      <trkpt lat="46.72971" lon="6.29094">
        <ele>1082.5</ele>
        <time>2021-08-14T14:30:06Z</time>
      </trkpt>
      <trkpt lat="46.72966" lon="6.29092">
        <ele>1082.9</ele>
        <time>2021-08-14T14:30:08Z</time>
      </trkpt>
      <trkpt lat="46.72963" lon="6.29092">
        <ele>1083.2</ele>
        <time>2021-08-14T14:30:09Z</time>
      </trkpt>
      <trkpt lat="46.72959" lon="6.29092">
        <ele>1083.5</ele>
        <time>2021-08-14T14:30:11Z</time>
      </trkpt>
      <trkpt lat="46.72958" lon="6.29091">
        <ele>1083.6</ele>
        <time>2021-08-14T14:30:12Z</time>
      </trkpt>
      <trkpt lat="46.72954" lon="6.29087">
        <ele>1083.9</ele>
        <time>2021-08-14T14:30:14Z</time>
      </trkpt>
      <trkpt lat="46.72955" lon="6.29085">
        <ele>1084.1</ele>
        <time>2021-08-14T14:30:15Z</time>
      </trkpt>
      <trkpt lat="46.72955" lon="6.29083">
        <ele>1084.2</ele>
        <time>2021-08-14T14:30:16Z</time>
      </trkpt>
      <trkpt lat="46.72956" lon="6.2908">
        <ele>1084.3</ele>
        <time>2021-08-14T14:30:18Z</time>
      </trkpt>
      <trkpt lat="46.72956" lon="6.2908">
        <ele>1084.4</ele>
        <time>2021-08-14T14:30:20Z</time>
      </trkpt>
      <trkpt lat="46.72957" lon="6.29079">
        <ele>1084.4</ele>
        <time>2021-08-14T14:30:22Z</time>
      </trkpt>
      <trkpt lat="46.72837" lon="6.29082">
        <ele>1091.4</ele>
        <time>2021-08-14T14:32:13Z</time>
      </trkpt>
      <trkpt lat="46.72835" lon="6.29081">
        <ele>1091.5</ele>
        <time>2021-08-14T14:32:15Z</time>
      </trkpt>
      <trkpt lat="46.72834" lon="6.29081">
        <ele>1091.6</ele>
        <time>2021-08-14T14:32:16Z</time>
      </trkpt>
      <trkpt lat="46.72833" lon="6.29082">
        <ele>1091.6</ele>
        <time>2021-08-14T14:32:17Z</time>
      </trkpt>
      <trkpt lat="46.72832" lon="6.29082">
        <ele>1091.7</ele>
        <time>2021-08-14T14:32:18Z</time>
      </trkpt>
      <trkpt lat="46.72831" lon="6.29083">
        <ele>1091.8</ele>
        <time>2021-08-14T14:32:19Z</time>
      </trkpt>
      <trkpt lat="46.72829" lon="6.29084">
        <ele>1091.9</ele>
        <time>2021-08-14T14:32:21Z</time>
      </trkpt>
      <trkpt lat="46.72827" lon="6.29084">
        <ele>1092</ele>
        <time>2021-08-14T14:32:22Z</time>
      </trkpt>
      <trkpt lat="46.72826" lon="6.29084">
        <ele>1092.1</ele>
        <time>2021-08-14T14:32:24Z</time>
      </trkpt>
      <trkpt lat="46.72825" lon="6.29083">
        <ele>1092.2</ele>
        <time>2021-08-14T14:32:25Z</time>
      </trkpt>
      <trkpt lat="46.72824" lon="6.29083">
        <ele>1092.3</ele>
        <time>2021-08-14T14:32:26Z</time>
      </trkpt>
      <trkpt lat="46.72823" lon="6.29082">
        <ele>1092.3</ele>
        <time>2021-08-14T14:32:27Z</time>
      </trkpt>
      <trkpt lat="46.72777" lon="6.29096">
        <ele>1095</ele>
        <time>2021-08-14T14:32:52Z</time>
      </trkpt>
      <trkpt lat="46.72769" lon="6.29102">
        <ele>1095.3</ele>
        <time>2021-08-14T14:32:53Z</time>
      </trkpt>
      <trkpt lat="46.72765" lon="6.29106">
        <ele>1095.4</ele>
        <time>2021-08-14T14:32:54Z</time>
      </trkpt>
      <trkpt lat="46.72759" lon="6.29109">
        <ele>1095.6</ele>
        <time>2021-08-14T14:32:56Z</time>
      </trkpt>
      <trkpt lat="46.72755" lon="6.29112">
        <ele>1095.7</ele>
        <time>2021-08-14T14:32:58Z</time>
      </trkpt>
      <trkpt lat="46.72752" lon="6.29113">
        <ele>1095.7</ele>
        <time>2021-08-14T14:32:59Z</time>
      </trkpt>
      <trkpt lat="46.7275" lon="6.29112">
        <ele>1095.8</ele>
        <time>2021-08-14T14:33:01Z</time>
      </trkpt>
      <trkpt lat="46.72747" lon="6.2911">
        <ele>1095.9</ele>
        <time>2021-08-14T14:33:02Z</time>
      </trkpt>
      <trkpt lat="46.72745" lon="6.29108">
        <ele>1095.9</ele>
        <time>2021-08-14T14:33:03Z</time>
      </trkpt>
      <trkpt lat="46.72744" lon="6.29108">
        <ele>1096.5</ele>
        <time>2021-08-14T14:33:04Z</time>
      </trkpt>
      <trkpt lat="46.72743" lon="6.29107">
        <ele>1096.6</ele>
        <time>2021-08-14T14:33:05Z</time>
      </trkpt>
      <trkpt lat="46.7274" lon="6.29104">
        <ele>1097.2</ele>
        <time>2021-08-14T14:33:07Z</time>
      </trkpt>
      <trkpt lat="46.72734" lon="6.29099">
        <ele>1098.3</ele>
        <time>2021-08-14T14:33:09Z</time>
      </trkpt>
      <trkpt lat="46.72726" lon="6.29091">
        <ele>1100.1</ele>
        <time>2021-08-14T14:33:11Z</time>
      </trkpt>
      <trkpt lat="46.72722" lon="6.29087">
        <ele>1100.7</ele>
        <time>2021-08-14T14:33:12Z</time>
      </trkpt>
      <trkpt lat="46.72715" lon="6.29077">
        <ele>1102.3</ele>
        <time>2021-08-14T14:33:13Z</time>
      </trkpt>
      <trkpt lat="46.72711" lon="6.29069">
        <ele>1102.9</ele>
        <time>2021-08-14T14:33:15Z</time>
      </trkpt>
      <trkpt lat="46.72704" lon="6.29059">
        <ele>1103.9</ele>
        <time>2021-08-14T14:33:17Z</time>
      </trkpt>
      <trkpt lat="46.72701" lon="6.2906">
        <ele>1104.4</ele>
        <time>2021-08-14T14:33:18Z</time>
      </trkpt>
      <trkpt lat="46.72697" lon="6.29056">
        <ele>1105.3</ele>
        <time>2021-08-14T14:33:19Z</time>
      </trkpt>
      <trkpt lat="46.72695" lon="6.29054">
        <ele>1105.4</ele>
        <time>2021-08-14T14:33:20Z</time>
      </trkpt>
      <trkpt lat="46.72694" lon="6.29048">
        <ele>1106.1</ele>
        <time>2021-08-14T14:33:21Z</time>
      </trkpt>
      <trkpt lat="46.72694" lon="6.29045">
        <ele>1106.2</ele>
        <time>2021-08-14T14:33:22Z</time>
      </trkpt>
      <trkpt lat="46.72695" lon="6.29034">
        <ele>1106</ele>
        <time>2021-08-14T14:33:23Z</time>
      </trkpt>
      <trkpt lat="46.72699" lon="6.29023">
        <ele>1105.8</ele>
        <time>2021-08-14T14:33:25Z</time>
      </trkpt>
      <trkpt lat="46.72707" lon="6.29009">
        <ele>1105.1</ele>
        <time>2021-08-14T14:33:26Z</time>
      </trkpt>
      <trkpt lat="46.72713" lon="6.28995">
        <ele>1104.9</ele>
        <time>2021-08-14T14:33:28Z</time>
      </trkpt>
      <trkpt lat="46.72715" lon="6.2899">
        <ele>1104.8</ele>
        <time>2021-08-14T14:33:29Z</time>
      </trkpt>
      <trkpt lat="46.7272" lon="6.28981">
        <ele>1104.7</ele>
        <time>2021-08-14T14:33:30Z</time>
      </trkpt>
      <trkpt lat="46.72727" lon="6.28975">
        <ele>1104.4</ele>
        <time>2021-08-14T14:33:32Z</time>
      </trkpt>
      <trkpt lat="46.72731" lon="6.28971">
        <ele>1104.2</ele>
        <time>2021-08-14T14:33:33Z</time>
      </trkpt>
      <trkpt lat="46.72738" lon="6.28963">
        <ele>1104.2</ele>
        <time>2021-08-14T14:33:35Z</time>
      </trkpt>
      <trkpt lat="46.72743" lon="6.28955">
        <ele>1104.3</ele>
        <time>2021-08-14T14:33:37Z</time>
      </trkpt>
      <trkpt lat="46.72744" lon="6.28951">
        <ele>1104.4</ele>
        <time>2021-08-14T14:33:38Z</time>
      </trkpt>
      <trkpt lat="46.72743" lon="6.2895">
        <ele>1104.6</ele>
        <time>2021-08-14T14:33:39Z</time>
      </trkpt>
      <trkpt lat="46.72741" lon="6.28943">
        <ele>1104.7</ele>
        <time>2021-08-14T14:33:41Z</time>
      </trkpt>
      <trkpt lat="46.72743" lon="6.2894">
        <ele>1104.9</ele>
        <time>2021-08-14T14:33:43Z</time>
      </trkpt>
      <trkpt lat="46.72744" lon="6.28939">
        <ele>1105</ele>
        <time>2021-08-14T14:33:44Z</time>
      </trkpt>
      <trkpt lat="46.72745" lon="6.28938">
        <ele>1105.1</ele>
        <time>2021-08-14T14:33:45Z</time>
      </trkpt>
      <trkpt lat="46.72748" lon="6.28939">
        <ele>1105.1</ele>
        <time>2021-08-14T14:33:47Z</time>
      </trkpt>
      <trkpt lat="46.72749" lon="6.28939">
        <ele>1105.2</ele>
        <time>2021-08-14T14:33:48Z</time>
      </trkpt>
      <trkpt lat="46.72766" lon="6.28949">
        <ele>1105.8</ele>
        <time>2021-08-14T14:33:51Z</time>
      </trkpt>
      <trkpt lat="46.72773" lon="6.28952">
        <ele>1106</ele>
        <time>2021-08-14T14:33:52Z</time>
      </trkpt>
      <trkpt lat="46.72782" lon="6.28953">
        <ele>1106.2</ele>
        <time>2021-08-14T14:33:54Z</time>
      </trkpt>
      <trkpt lat="46.72787" lon="6.28953">
        <ele>1106.3</ele>
        <time>2021-08-14T14:33:55Z</time>
      </trkpt>
      <trkpt lat="46.72791" lon="6.28952">
        <ele>1106.4</ele>
        <time>2021-08-14T14:33:56Z</time>
      </trkpt>
      <trkpt lat="46.72794" lon="6.28951">
        <ele>1106.6</ele>
        <time>2021-08-14T14:33:57Z</time>
      </trkpt>
      <trkpt lat="46.72799" lon="6.2895">
        <ele>1106.8</ele>
        <time>2021-08-14T14:33:59Z</time>
      </trkpt>
      <trkpt lat="46.72803" lon="6.28942">
        <ele>1106.9</ele>
        <time>2021-08-14T14:34:01Z</time>
      </trkpt>
      <trkpt lat="46.72805" lon="6.28937">
        <ele>1107.2</ele>
        <time>2021-08-14T14:34:02Z</time>
      </trkpt>
      <trkpt lat="46.7281" lon="6.28925">
        <ele>1107.3</ele>
        <time>2021-08-14T14:34:04Z</time>
      </trkpt>
      <trkpt lat="46.72815" lon="6.28915">
        <ele>1107.5</ele>
        <time>2021-08-14T14:34:05Z</time>
      </trkpt>
      <trkpt lat="46.72817" lon="6.28908">
        <ele>1107.5</ele>
        <time>2021-08-14T14:34:06Z</time>
      </trkpt>
      <trkpt lat="46.72821" lon="6.28898">
        <ele>1107.6</ele>
        <time>2021-08-14T14:34:08Z</time>
      </trkpt>
      <trkpt lat="46.72823" lon="6.28891">
        <ele>1107.6</ele>
        <time>2021-08-14T14:34:10Z</time>
      </trkpt>
      <trkpt lat="46.72825" lon="6.28885">
        <ele>1107.7</ele>
        <time>2021-08-14T14:34:11Z</time>
      </trkpt>
      <trkpt lat="46.72828" lon="6.28876">
        <ele>1107.8</ele>
        <time>2021-08-14T14:34:12Z</time>
      </trkpt>
      <trkpt lat="46.72832" lon="6.28853">
        <ele>1107.8</ele>
        <time>2021-08-14T14:34:14Z</time>
      </trkpt>
      <trkpt lat="46.72832" lon="6.28843">
        <ele>1107.9</ele>
        <time>2021-08-14T14:34:15Z</time>
      </trkpt>
      <trkpt lat="46.72836" lon="6.2883">
        <ele>1107.9</ele>
        <time>2021-08-14T14:34:17Z</time>
      </trkpt>
      <trkpt lat="46.72838" lon="6.28821">
        <ele>1107.8</ele>
        <time>2021-08-14T14:34:18Z</time>
      </trkpt>
      <trkpt lat="46.72839" lon="6.28813">
        <ele>1107.8</ele>
        <time>2021-08-14T14:34:19Z</time>
      </trkpt>
      <trkpt lat="46.72843" lon="6.28797">
        <ele>1107.7</ele>
        <time>2021-08-14T14:34:21Z</time>
      </trkpt>
      <trkpt lat="46.72844" lon="6.28789">
        <ele>1107.7</ele>
        <time>2021-08-14T14:34:22Z</time>
      </trkpt>
      <trkpt lat="46.72847" lon="6.28772">
        <ele>1107.6</ele>
        <time>2021-08-14T14:34:24Z</time>
      </trkpt>
      <trkpt lat="46.72848" lon="6.28764">
        <ele>1107.5</ele>
        <time>2021-08-14T14:34:25Z</time>
      </trkpt>
      <trkpt lat="46.7285" lon="6.28749">
        <ele>1107.7</ele>
        <time>2021-08-14T14:34:27Z</time>
      </trkpt>
      <trkpt lat="46.72852" lon="6.28736">
        <ele>1107.7</ele>
        <time>2021-08-14T14:34:29Z</time>
      </trkpt>
      <trkpt lat="46.72853" lon="6.28728">
        <ele>1107.8</ele>
        <time>2021-08-14T14:34:30Z</time>
      </trkpt>
      <trkpt lat="46.72854" lon="6.28721">
        <ele>1107.7</ele>
        <time>2021-08-14T14:34:31Z</time>
      </trkpt>
      <trkpt lat="46.72857" lon="6.28714">
        <ele>1107.4</ele>
        <time>2021-08-14T14:34:32Z</time>
      </trkpt>
      <trkpt lat="46.72864" lon="6.287">
        <ele>1106.3</ele>
        <time>2021-08-14T14:34:34Z</time>
      </trkpt>
      <trkpt lat="46.72868" lon="6.28693">
        <ele>1105.3</ele>
        <time>2021-08-14T14:34:35Z</time>
      </trkpt>
      <trkpt lat="46.72874" lon="6.28677">
        <ele>1103.1</ele>
        <time>2021-08-14T14:34:37Z</time>
      </trkpt>
      <trkpt lat="46.72876" lon="6.28668">
        <ele>1101.6</ele>
        <time>2021-08-14T14:34:38Z</time>
      </trkpt>
      <trkpt lat="46.72879" lon="6.28651">
        <ele>1098.8</ele>
        <time>2021-08-14T14:34:40Z</time>
      </trkpt>
      <trkpt lat="46.72884" lon="6.28635">
        <ele>1096.6</ele>
        <time>2021-08-14T14:34:42Z</time>
      </trkpt>
      <trkpt lat="46.72888" lon="6.28619">
        <ele>1095.4</ele>
        <time>2021-08-14T14:34:44Z</time>
      </trkpt>
      <trkpt lat="46.72889" lon="6.28611">
        <ele>1095.1</ele>
        <time>2021-08-14T14:34:45Z</time>
      </trkpt>
      <trkpt lat="46.72891" lon="6.28603">
        <ele>1095</ele>
        <time>2021-08-14T14:34:46Z</time>
      </trkpt>
      <trkpt lat="46.72895" lon="6.28588">
        <ele>1095.4</ele>
        <time>2021-08-14T14:34:48Z</time>
      </trkpt>
      <trkpt lat="46.72897" lon="6.28581">
        <ele>1095.8</ele>
        <time>2021-08-14T14:34:49Z</time>
      </trkpt>
      <trkpt lat="46.729" lon="6.28569">
        <ele>1096.7</ele>
        <time>2021-08-14T14:34:51Z</time>
      </trkpt>
      <trkpt lat="46.72902" lon="6.28564">
        <ele>1097.4</ele>
        <time>2021-08-14T14:34:52Z</time>
      </trkpt>
      <trkpt lat="46.72903" lon="6.28556">
        <ele>1097.8</ele>
        <time>2021-08-14T14:34:53Z</time>
      </trkpt>
      <trkpt lat="46.72904" lon="6.28549">
        <ele>1098.5</ele>
        <time>2021-08-14T14:34:54Z</time>
      </trkpt>
      <trkpt lat="46.72904" lon="6.28544">
        <ele>1098.8</ele>
        <time>2021-08-14T14:34:55Z</time>
      </trkpt>
      <trkpt lat="46.72907" lon="6.28537">
        <ele>1099.5</ele>
        <time>2021-08-14T14:34:57Z</time>
      </trkpt>
      <trkpt lat="46.72909" lon="6.28539">
        <ele>1099.3</ele>
        <time>2021-08-14T14:34:58Z</time>
      </trkpt>
      <trkpt lat="46.7291" lon="6.28531">
        <ele>1100</ele>
        <time>2021-08-14T14:35:00Z</time>
      </trkpt>
      <trkpt lat="46.72911" lon="6.28524">
        <ele>1100.5</ele>
        <time>2021-08-14T14:35:01Z</time>
      </trkpt>
      <trkpt lat="46.72912" lon="6.28513">
        <ele>1101</ele>
        <time>2021-08-14T14:35:02Z</time>
      </trkpt>
      <trkpt lat="46.72913" lon="6.28506">
        <ele>1101.5</ele>
        <time>2021-08-14T14:35:03Z</time>
      </trkpt>
      <trkpt lat="46.72915" lon="6.28499">
        <ele>1101.5</ele>
        <time>2021-08-14T14:35:05Z</time>
      </trkpt>
      <trkpt lat="46.72917" lon="6.28492">
        <ele>1101.6</ele>
        <time>2021-08-14T14:35:06Z</time>
      </trkpt>
      <trkpt lat="46.72917" lon="6.28487">
        <ele>1101.6</ele>
        <time>2021-08-14T14:35:07Z</time>
      </trkpt>
      <trkpt lat="46.72914" lon="6.28482">
        <ele>1101.7</ele>
        <time>2021-08-14T14:35:08Z</time>
      </trkpt>
      <trkpt lat="46.72911" lon="6.28478">
        <ele>1101.7</ele>
        <time>2021-08-14T14:35:09Z</time>
      </trkpt>
      <trkpt lat="46.72909" lon="6.28475">
        <ele>1101.7</ele>
        <time>2021-08-14T14:35:10Z</time>
      </trkpt>
      <trkpt lat="46.72906" lon="6.28474">
        <ele>1101.7</ele>
        <time>2021-08-14T14:35:11Z</time>
      </trkpt>
      <trkpt lat="46.72904" lon="6.28473">
        <ele>1101.7</ele>
        <time>2021-08-14T14:35:12Z</time>
      </trkpt>
      <trkpt lat="46.72901" lon="6.28469">
        <ele>1101.8</ele>
        <time>2021-08-14T14:35:14Z</time>
      </trkpt>
      <trkpt lat="46.729" lon="6.28467">
        <ele>1101.8</ele>
        <time>2021-08-14T14:35:15Z</time>
      </trkpt>
      <trkpt lat="46.72898" lon="6.28463">
        <ele>1101.8</ele>
        <time>2021-08-14T14:35:16Z</time>
      </trkpt>
      <trkpt lat="46.72897" lon="6.28459">
        <ele>1101.8</ele>
        <time>2021-08-14T14:35:18Z</time>
      </trkpt>
      <trkpt lat="46.72895" lon="6.28452">
        <ele>1101.8</ele>
        <time>2021-08-14T14:35:19Z</time>
      </trkpt>
      <trkpt lat="46.72892" lon="6.28442">
        <ele>1101.9</ele>
        <time>2021-08-14T14:35:20Z</time>
      </trkpt>
      <trkpt lat="46.72889" lon="6.28436">
        <ele>1101.9</ele>
        <time>2021-08-14T14:35:21Z</time>
      </trkpt>
      <trkpt lat="46.72888" lon="6.28429">
        <ele>1101.9</ele>
        <time>2021-08-14T14:35:22Z</time>
      </trkpt>
      <trkpt lat="46.72887" lon="6.28423">
        <ele>1102</ele>
        <time>2021-08-14T14:35:23Z</time>
      </trkpt>
      <trkpt lat="46.72887" lon="6.28417">
        <ele>1102</ele>
        <time>2021-08-14T14:35:24Z</time>
      </trkpt>
      <trkpt lat="46.72889" lon="6.28411">
        <ele>1102.1</ele>
        <time>2021-08-14T14:35:25Z</time>
      </trkpt>
      <trkpt lat="46.72891" lon="6.28407">
        <ele>1102.1</ele>
        <time>2021-08-14T14:35:26Z</time>
      </trkpt>
      <trkpt lat="46.72892" lon="6.28401">
        <ele>1102.2</ele>
        <time>2021-08-14T14:35:28Z</time>
      </trkpt>
      <trkpt lat="46.72893" lon="6.28395">
        <ele>1102.2</ele>
        <time>2021-08-14T14:35:30Z</time>
      </trkpt>
      <trkpt lat="46.72893" lon="6.28394">
        <ele>1102.2</ele>
        <time>2021-08-14T14:35:31Z</time>
      </trkpt>
      <trkpt lat="46.72893" lon="6.28388">
        <ele>1102.3</ele>
        <time>2021-08-14T14:35:32Z</time>
      </trkpt>
      <trkpt lat="46.72894" lon="6.28381">
        <ele>1102.4</ele>
        <time>2021-08-14T14:35:33Z</time>
      </trkpt>
      <trkpt lat="46.72894" lon="6.28372">
        <ele>1102.5</ele>
        <time>2021-08-14T14:35:35Z</time>
      </trkpt>
      <trkpt lat="46.72897" lon="6.28359">
        <ele>1102.6</ele>
        <time>2021-08-14T14:35:37Z</time>
      </trkpt>
      <trkpt lat="46.72894" lon="6.28348">
        <ele>1102.7</ele>
        <time>2021-08-14T14:35:39Z</time>
      </trkpt>
      <trkpt lat="46.72891" lon="6.2834">
        <ele>1102.7</ele>
        <time>2021-08-14T14:35:40Z</time>
      </trkpt>
      <trkpt lat="46.72889" lon="6.28336">
        <ele>1102.8</ele>
        <time>2021-08-14T14:35:41Z</time>
      </trkpt>
      <trkpt lat="46.72888" lon="6.28333">
        <ele>1102.8</ele>
        <time>2021-08-14T14:35:42Z</time>
      </trkpt>
      <trkpt lat="46.72887" lon="6.2833">
        <ele>1102.8</ele>
        <time>2021-08-14T14:35:44Z</time>
      </trkpt>
      <trkpt lat="46.72887" lon="6.28327">
        <ele>1102.8</ele>
        <time>2021-08-14T14:35:45Z</time>
      </trkpt>
      <trkpt lat="46.72885" lon="6.28291">
        <ele>1102.8</ele>
        <time>2021-08-14T14:35:53Z</time>
      </trkpt>
      <trkpt lat="46.72886" lon="6.28281">
        <ele>1102.7</ele>
        <time>2021-08-14T14:35:54Z</time>
      </trkpt>
      <trkpt lat="46.72885" lon="6.28272">
        <ele>1102.6</ele>
        <time>2021-08-14T14:35:56Z</time>
      </trkpt>
      <trkpt lat="46.72884" lon="6.28261">
        <ele>1102.5</ele>
        <time>2021-08-14T14:35:57Z</time>
      </trkpt>
      <trkpt lat="46.72886" lon="6.28251">
        <ele>1102.3</ele>
        <time>2021-08-14T14:35:59Z</time>
      </trkpt>
      <trkpt lat="46.72888" lon="6.28244">
        <ele>1102.1</ele>
        <time>2021-08-14T14:36:00Z</time>
      </trkpt>
      <trkpt lat="46.72889" lon="6.28239">
        <ele>1102</ele>
        <time>2021-08-14T14:36:01Z</time>
      </trkpt>
      <trkpt lat="46.72891" lon="6.2823">
        <ele>1101.7</ele>
        <time>2021-08-14T14:36:02Z</time>
      </trkpt>
      <trkpt lat="46.72893" lon="6.28224">
        <ele>1101.5</ele>
        <time>2021-08-14T14:36:04Z</time>
      </trkpt>
      <trkpt lat="46.72896" lon="6.28209">
        <ele>1101</ele>
        <time>2021-08-14T14:36:05Z</time>
      </trkpt>
      <trkpt lat="46.72899" lon="6.28197">
        <ele>1100.6</ele>
        <time>2021-08-14T14:36:06Z</time>
      </trkpt>
      <trkpt lat="46.72902" lon="6.28187">
        <ele>1100.2</ele>
        <time>2021-08-14T14:36:07Z</time>
      </trkpt>
      <trkpt lat="46.72906" lon="6.28172">
        <ele>1099.6</ele>
        <time>2021-08-14T14:36:09Z</time>
      </trkpt>
      <trkpt lat="46.7291" lon="6.28169">
        <ele>1099.4</ele>
        <time>2021-08-14T14:36:10Z</time>
      </trkpt>
      <trkpt lat="46.72913" lon="6.28159">
        <ele>1099.1</ele>
        <time>2021-08-14T14:36:12Z</time>
      </trkpt>
      <trkpt lat="46.7292" lon="6.28146">
        <ele>1098.5</ele>
        <time>2021-08-14T14:36:13Z</time>
      </trkpt>
      <trkpt lat="46.7293" lon="6.28128">
        <ele>1097.8</ele>
        <time>2021-08-14T14:36:15Z</time>
      </trkpt>
      <trkpt lat="46.72933" lon="6.28118">
        <ele>1097.4</ele>
        <time>2021-08-14T14:36:16Z</time>
      </trkpt>
      <trkpt lat="46.7294" lon="6.28098">
        <ele>1096.6</ele>
        <time>2021-08-14T14:36:18Z</time>
      </trkpt>
      <trkpt lat="46.72942" lon="6.28088">
        <ele>1096.2</ele>
        <time>2021-08-14T14:36:19Z</time>
      </trkpt>
      <trkpt lat="46.72947" lon="6.2807">
        <ele>1095.5</ele>
        <time>2021-08-14T14:36:21Z</time>
      </trkpt>
      <trkpt lat="46.72949" lon="6.2805">
        <ele>1094.9</ele>
        <time>2021-08-14T14:36:23Z</time>
      </trkpt>
      <trkpt lat="46.72953" lon="6.28039">
        <ele>1094.6</ele>
        <time>2021-08-14T14:36:24Z</time>
      </trkpt>
      <trkpt lat="46.72957" lon="6.28029">
        <ele>1094.4</ele>
        <time>2021-08-14T14:36:25Z</time>
      </trkpt>
      <trkpt lat="46.72963" lon="6.28012">
        <ele>1094</ele>
        <time>2021-08-14T14:36:27Z</time>
      </trkpt>
      <trkpt lat="46.72965" lon="6.28005">
        <ele>1093.9</ele>
        <time>2021-08-14T14:36:28Z</time>
      </trkpt>
      <trkpt lat="46.72969" lon="6.2799">
        <ele>1093.8</ele>
        <time>2021-08-14T14:36:30Z</time>
      </trkpt>
      <trkpt lat="46.72971" lon="6.27984">
        <ele>1093.7</ele>
        <time>2021-08-14T14:36:31Z</time>
      </trkpt>
      <trkpt lat="46.72973" lon="6.27971">
        <ele>1093.7</ele>
        <time>2021-08-14T14:36:33Z</time>
      </trkpt>
      <trkpt lat="46.72973" lon="6.27958">
        <ele>1094</ele>
        <time>2021-08-14T14:36:35Z</time>
      </trkpt>
      <trkpt lat="46.72972" lon="6.27953">
        <ele>1094.1</ele>
        <time>2021-08-14T14:36:36Z</time>
      </trkpt>
      <trkpt lat="46.72972" lon="6.27951">
        <ele>1094.1</ele>
        <time>2021-08-14T14:36:37Z</time>
      </trkpt>
      <trkpt lat="46.72974" lon="6.27942">
        <ele>1094.3</ele>
        <time>2021-08-14T14:36:39Z</time>
      </trkpt>
      <trkpt lat="46.72974" lon="6.27937">
        <ele>1094.4</ele>
        <time>2021-08-14T14:36:40Z</time>
      </trkpt>
      <trkpt lat="46.72972" lon="6.27926">
        <ele>1094.6</ele>
        <time>2021-08-14T14:36:42Z</time>
      </trkpt>
      <trkpt lat="46.72969" lon="6.27923">
        <ele>1094.7</ele>
        <time>2021-08-14T14:36:43Z</time>
      </trkpt>
      <trkpt lat="46.72969" lon="6.27921">
        <ele>1094.7</ele>
        <time>2021-08-14T14:36:44Z</time>
      </trkpt>
      <trkpt lat="46.7297" lon="6.27916">
        <ele>1094.8</ele>
        <time>2021-08-14T14:36:45Z</time>
      </trkpt>
      <trkpt lat="46.72971" lon="6.27912">
        <ele>1094.8</ele>
        <time>2021-08-14T14:36:46Z</time>
      </trkpt>
      <trkpt lat="46.72972" lon="6.27906">
        <ele>1094.9</ele>
        <time>2021-08-14T14:36:48Z</time>
      </trkpt>
      <trkpt lat="46.72973" lon="6.279">
        <ele>1095</ele>
        <time>2021-08-14T14:36:49Z</time>
      </trkpt>
      <trkpt lat="46.72973" lon="6.27894">
        <ele>1095</ele>
        <time>2021-08-14T14:36:50Z</time>
      </trkpt>
      <trkpt lat="46.72973" lon="6.27891">
        <ele>1095</ele>
        <time>2021-08-14T14:36:52Z</time>
      </trkpt>
      <trkpt lat="46.72973" lon="6.2789">
        <ele>1095</ele>
        <time>2021-08-14T14:36:53Z</time>
      </trkpt>
      <trkpt lat="46.72972" lon="6.2789">
        <ele>1095.1</ele>
        <time>2021-08-14T14:36:55Z</time>
      </trkpt>
      <trkpt lat="46.72972" lon="6.2789">
        <ele>1095.1</ele>
        <time>2021-08-14T14:36:56Z</time>
      </trkpt>
      <trkpt lat="46.72973" lon="6.2789">
        <ele>1095.1</ele>
        <time>2021-08-14T14:36:58Z</time>
      </trkpt>
      <trkpt lat="46.72973" lon="6.2789">
        <ele>1095.1</ele>
        <time>2021-08-14T14:36:59Z</time>
      </trkpt>
      <trkpt lat="46.72973" lon="6.27889">
        <ele>1095.1</ele>
        <time>2021-08-14T14:37:00Z</time>
      </trkpt>
      <trkpt lat="46.72973" lon="6.2789">
        <ele>1095.1</ele>
        <time>2021-08-14T14:37:02Z</time>
      </trkpt>
      <trkpt lat="46.72932" lon="6.27856">
        <ele>1095.4</ele>
        <time>2021-08-14T14:38:15Z</time>
      </trkpt>
      <trkpt lat="46.7293" lon="6.2785">
        <ele>1095.5</ele>
        <time>2021-08-14T14:38:16Z</time>
      </trkpt>
      <trkpt lat="46.72926" lon="6.27842">
        <ele>1095.6</ele>
        <time>2021-08-14T14:38:18Z</time>
      </trkpt>
      <trkpt lat="46.72924" lon="6.27837">
        <ele>1095.7</ele>
        <time>2021-08-14T14:38:19Z</time>
      </trkpt>
      <trkpt lat="46.72922" lon="6.27831">
        <ele>1095.8</ele>
        <time>2021-08-14T14:38:20Z</time>
      </trkpt>
      <trkpt lat="46.72921" lon="6.27823">
        <ele>1095.9</ele>
        <time>2021-08-14T14:38:22Z</time>
      </trkpt>
      <trkpt lat="46.7292" lon="6.27818">
        <ele>1096</ele>
        <time>2021-08-14T14:38:23Z</time>
      </trkpt>
      <trkpt lat="46.72918" lon="6.27812">
        <ele>1096.1</ele>
        <time>2021-08-14T14:38:24Z</time>
      </trkpt>
      <trkpt lat="46.72917" lon="6.27808">
        <ele>1096.1</ele>
        <time>2021-08-14T14:38:25Z</time>
      </trkpt>
      <trkpt lat="46.72916" lon="6.27805">
        <ele>1096.2</ele>
        <time>2021-08-14T14:38:27Z</time>
      </trkpt>
      <trkpt lat="46.72915" lon="6.27801">
        <ele>1096.2</ele>
        <time>2021-08-14T14:38:28Z</time>
      </trkpt>
      <trkpt lat="46.72915" lon="6.278">
        <ele>1096.2</ele>
        <time>2021-08-14T14:38:29Z</time>
      </trkpt>
      <trkpt lat="46.72914" lon="6.27797">
        <ele>1096.3</ele>
        <time>2021-08-14T14:38:30Z</time>
      </trkpt>
      <trkpt lat="46.72913" lon="6.27794">
        <ele>1096.3</ele>
        <time>2021-08-14T14:38:32Z</time>
      </trkpt>
      <trkpt lat="46.72911" lon="6.27789">
        <ele>1096.4</ele>
        <time>2021-08-14T14:38:33Z</time>
      </trkpt>
      <trkpt lat="46.7291" lon="6.27785">
        <ele>1096.4</ele>
        <time>2021-08-14T14:38:35Z</time>
      </trkpt>
      <trkpt lat="46.72908" lon="6.2778">
        <ele>1096.5</ele>
        <time>2021-08-14T14:38:36Z</time>
      </trkpt>
      <trkpt lat="46.72906" lon="6.27776">
        <ele>1096.5</ele>
        <time>2021-08-14T14:38:37Z</time>
      </trkpt>
      <trkpt lat="46.72904" lon="6.27774">
        <ele>1096.6</ele>
        <time>2021-08-14T14:38:38Z</time>
      </trkpt>
      <trkpt lat="46.72902" lon="6.2777">
        <ele>1096.6</ele>
        <time>2021-08-14T14:38:40Z</time>
      </trkpt>
      <trkpt lat="46.729" lon="6.27767">
        <ele>1096.6</ele>
        <time>2021-08-14T14:38:41Z</time>
      </trkpt>
      <trkpt lat="46.72898" lon="6.27763">
        <ele>1096.7</ele>
        <time>2021-08-14T14:38:42Z</time>
      </trkpt>
      <trkpt lat="46.72897" lon="6.27757">
        <ele>1096.7</ele>
        <time>2021-08-14T14:38:43Z</time>
      </trkpt>
      <trkpt lat="46.72897" lon="6.27756">
        <ele>1096.7</ele>
        <time>2021-08-14T14:38:44Z</time>
      </trkpt>
      <trkpt lat="46.72895" lon="6.27752">
        <ele>1096.7</ele>
        <time>2021-08-14T14:38:45Z</time>
      </trkpt>
      <trkpt lat="46.72893" lon="6.27749">
        <ele>1096.7</ele>
        <time>2021-08-14T14:38:47Z</time>
      </trkpt>
      <trkpt lat="46.72892" lon="6.27745">
        <ele>1096.8</ele>
        <time>2021-08-14T14:38:48Z</time>
      </trkpt>
      <trkpt lat="46.72889" lon="6.27742">
        <ele>1096.8</ele>
        <time>2021-08-14T14:38:49Z</time>
      </trkpt>
      <trkpt lat="46.72886" lon="6.27739">
        <ele>1096.8</ele>
        <time>2021-08-14T14:38:50Z</time>
      </trkpt>
      <trkpt lat="46.72883" lon="6.27737">
        <ele>1096.8</ele>
        <time>2021-08-14T14:38:51Z</time>
      </trkpt>
      <trkpt lat="46.72881" lon="6.27733">
        <ele>1096.9</ele>
        <time>2021-08-14T14:38:52Z</time>
      </trkpt>
      <trkpt lat="46.7288" lon="6.27732">
        <ele>1096.9</ele>
        <time>2021-08-14T14:38:53Z</time>
      </trkpt>
      <trkpt lat="46.7288" lon="6.27728">
        <ele>1096.9</ele>
        <time>2021-08-14T14:38:54Z</time>
      </trkpt>
      <trkpt lat="46.72878" lon="6.27723">
        <ele>1096.9</ele>
        <time>2021-08-14T14:38:55Z</time>
      </trkpt>
      <trkpt lat="46.72877" lon="6.27719">
        <ele>1096.9</ele>
        <time>2021-08-14T14:38:57Z</time>
      </trkpt>
      <trkpt lat="46.72875" lon="6.27715">
        <ele>1097</ele>
        <time>2021-08-14T14:38:58Z</time>
      </trkpt>
      <trkpt lat="46.72874" lon="6.27711">
        <ele>1097.1</ele>
        <time>2021-08-14T14:38:59Z</time>
      </trkpt>
      <trkpt lat="46.72874" lon="6.27709">
        <ele>1097.1</ele>
        <time>2021-08-14T14:39:00Z</time>
      </trkpt>
      <trkpt lat="46.72871" lon="6.27706">
        <ele>1097.2</ele>
        <time>2021-08-14T14:39:02Z</time>
      </trkpt>
      <trkpt lat="46.72868" lon="6.27704">
        <ele>1097.3</ele>
        <time>2021-08-14T14:39:03Z</time>
      </trkpt>
      <trkpt lat="46.72866" lon="6.27701">
        <ele>1097.4</ele>
        <time>2021-08-14T14:39:04Z</time>
      </trkpt>
      <trkpt lat="46.72864" lon="6.27696">
        <ele>1097.5</ele>
        <time>2021-08-14T14:39:05Z</time>
      </trkpt>
      <trkpt lat="46.72863" lon="6.27693">
        <ele>1097.6</ele>
        <time>2021-08-14T14:39:06Z</time>
      </trkpt>
      <trkpt lat="46.72861" lon="6.27689">
        <ele>1097.7</ele>
        <time>2021-08-14T14:39:07Z</time>
      </trkpt>
      <trkpt lat="46.72859" lon="6.27686">
        <ele>1097.8</ele>
        <time>2021-08-14T14:39:08Z</time>
      </trkpt>
      <trkpt lat="46.72856" lon="6.27682">
        <ele>1097.9</ele>
        <time>2021-08-14T14:39:10Z</time>
      </trkpt>
      <trkpt lat="46.72853" lon="6.27679">
        <ele>1098</ele>
        <time>2021-08-14T14:39:12Z</time>
      </trkpt>
      <trkpt lat="46.72849" lon="6.27675">
        <ele>1098.1</ele>
        <time>2021-08-14T14:39:13Z</time>
      </trkpt>
      <trkpt lat="46.72847" lon="6.27673">
        <ele>1098.2</ele>
        <time>2021-08-14T14:39:14Z</time>
      </trkpt>
      <trkpt lat="46.72844" lon="6.2767">
        <ele>1098.4</ele>
        <time>2021-08-14T14:39:16Z</time>
      </trkpt>
      <trkpt lat="46.72841" lon="6.27668">
        <ele>1098.5</ele>
        <time>2021-08-14T14:39:17Z</time>
      </trkpt>
      <trkpt lat="46.72839" lon="6.27664">
        <ele>1098.6</ele>
        <time>2021-08-14T14:39:18Z</time>
      </trkpt>
      <trkpt lat="46.72836" lon="6.27662">
        <ele>1098.7</ele>
        <time>2021-08-14T14:39:19Z</time>
      </trkpt>
      <trkpt lat="46.72834" lon="6.27659">
        <ele>1098.8</ele>
        <time>2021-08-14T14:39:20Z</time>
      </trkpt>
      <trkpt lat="46.72832" lon="6.27654">
        <ele>1098.9</ele>
        <time>2021-08-14T14:39:22Z</time>
      </trkpt>
      <trkpt lat="46.72831" lon="6.27653">
        <ele>1098.9</ele>
        <time>2021-08-14T14:39:23Z</time>
      </trkpt>
      <trkpt lat="46.72829" lon="6.27648">
        <ele>1099</ele>
        <time>2021-08-14T14:39:24Z</time>
      </trkpt>
      <trkpt lat="46.72827" lon="6.27645">
        <ele>1099.1</ele>
        <time>2021-08-14T14:39:25Z</time>
      </trkpt>
      <trkpt lat="46.72824" lon="6.27641">
        <ele>1099.2</ele>
        <time>2021-08-14T14:39:27Z</time>
      </trkpt>
      <trkpt lat="46.72821" lon="6.27638">
        <ele>1099.2</ele>
        <time>2021-08-14T14:39:28Z</time>
      </trkpt>
      <trkpt lat="46.72819" lon="6.27635">
        <ele>1099.3</ele>
        <time>2021-08-14T14:39:29Z</time>
      </trkpt>
      <trkpt lat="46.72815" lon="6.27631">
        <ele>1099.3</ele>
        <time>2021-08-14T14:39:30Z</time>
      </trkpt>
      <trkpt lat="46.72812" lon="6.27626">
        <ele>1099.4</ele>
        <time>2021-08-14T14:39:32Z</time>
      </trkpt>
      <trkpt lat="46.7281" lon="6.27622">
        <ele>1099.4</ele>
        <time>2021-08-14T14:39:34Z</time>
      </trkpt>
      <trkpt lat="46.72806" lon="6.27619">
        <ele>1099.3</ele>
        <time>2021-08-14T14:39:35Z</time>
      </trkpt>
      <trkpt lat="46.72803" lon="6.27617">
        <ele>1099.3</ele>
        <time>2021-08-14T14:39:36Z</time>
      </trkpt>
      <trkpt lat="46.728" lon="6.27614">
        <ele>1099.3</ele>
        <time>2021-08-14T14:39:37Z</time>
      </trkpt>
      <trkpt lat="46.72797" lon="6.27612">
        <ele>1099.2</ele>
        <time>2021-08-14T14:39:39Z</time>
      </trkpt>
      <trkpt lat="46.72794" lon="6.27609">
        <ele>1099.1</ele>
        <time>2021-08-14T14:39:40Z</time>
      </trkpt>
      <trkpt lat="46.7279" lon="6.27605">
        <ele>1098.9</ele>
        <time>2021-08-14T14:39:41Z</time>
      </trkpt>
      <trkpt lat="46.72787" lon="6.27603">
        <ele>1098.8</ele>
        <time>2021-08-14T14:39:42Z</time>
      </trkpt>
      <trkpt lat="46.72783" lon="6.27599">
        <ele>1098.5</ele>
        <time>2021-08-14T14:39:44Z</time>
      </trkpt>
      <trkpt lat="46.72781" lon="6.27597">
        <ele>1098.4</ele>
        <time>2021-08-14T14:39:45Z</time>
      </trkpt>
      <trkpt lat="46.72779" lon="6.27594">
        <ele>1098.3</ele>
        <time>2021-08-14T14:39:46Z</time>
      </trkpt>
      <trkpt lat="46.72777" lon="6.27591">
        <ele>1098.1</ele>
        <time>2021-08-14T14:39:48Z</time>
      </trkpt>
      <trkpt lat="46.72776" lon="6.27589">
        <ele>1098</ele>
        <time>2021-08-14T14:39:49Z</time>
      </trkpt>
      <trkpt lat="46.72774" lon="6.27586">
        <ele>1097.9</ele>
        <time>2021-08-14T14:39:50Z</time>
      </trkpt>
      <trkpt lat="46.72772" lon="6.27584">
        <ele>1097.8</ele>
        <time>2021-08-14T14:39:52Z</time>
      </trkpt>
      <trkpt lat="46.7277" lon="6.27581">
        <ele>1097.8</ele>
        <time>2021-08-14T14:40:04Z</time>
      </trkpt>
      <trkpt lat="46.72768" lon="6.27578">
        <ele>1097.7</ele>
        <time>2021-08-14T14:40:05Z</time>
      </trkpt>
      <trkpt lat="46.72762" lon="6.27571">
        <ele>1097.7</ele>
        <time>2021-08-14T14:40:06Z</time>
      </trkpt>
      <trkpt lat="46.72757" lon="6.27567">
        <ele>1097.8</ele>
        <time>2021-08-14T14:40:07Z</time>
      </trkpt>
      <trkpt lat="46.72753" lon="6.27565">
        <ele>1097.9</ele>
        <time>2021-08-14T14:40:08Z</time>
      </trkpt>
      <trkpt lat="46.72749" lon="6.27561">
        <ele>1098</ele>
        <time>2021-08-14T14:40:10Z</time>
      </trkpt>
      <trkpt lat="46.72745" lon="6.27558">
        <ele>1098.2</ele>
        <time>2021-08-14T14:40:12Z</time>
      </trkpt>
      <trkpt lat="46.72743" lon="6.27556">
        <ele>1098.2</ele>
        <time>2021-08-14T14:40:13Z</time>
      </trkpt>
      <trkpt lat="46.72743" lon="6.27556">
        <ele>1098.2</ele>
        <time>2021-08-14T14:40:14Z</time>
      </trkpt>
      <trkpt lat="46.72741" lon="6.27555">
        <ele>1098.3</ele>
        <time>2021-08-14T14:40:15Z</time>
      </trkpt>
      <trkpt lat="46.72741" lon="6.27554">
        <ele>1098.3</ele>
        <time>2021-08-14T14:40:17Z</time>
      </trkpt>
      <trkpt lat="46.7274" lon="6.27553">
        <ele>1098.3</ele>
        <time>2021-08-14T14:40:18Z</time>
      </trkpt>
      <trkpt lat="46.72739" lon="6.27552">
        <ele>1098.3</ele>
        <time>2021-08-14T14:40:20Z</time>
      </trkpt>
      <trkpt lat="46.72738" lon="6.27551">
        <ele>1098.3</ele>
        <time>2021-08-14T14:40:21Z</time>
      </trkpt>
      <trkpt lat="46.72737" lon="6.2755">
        <ele>1098.4</ele>
        <time>2021-08-14T14:40:23Z</time>
      </trkpt>
      <trkpt lat="46.72737" lon="6.27549">
        <ele>1098.4</ele>
        <time>2021-08-14T14:40:24Z</time>
      </trkpt>
      <trkpt lat="46.72736" lon="6.27548">
        <ele>1098.4</ele>
        <time>2021-08-14T14:40:37Z</time>
      </trkpt>
      <trkpt lat="46.72735" lon="6.27547">
        <ele>1098.4</ele>
        <time>2021-08-14T14:40:39Z</time>
      </trkpt>
      <trkpt lat="46.72734" lon="6.27546">
        <ele>1098.4</ele>
        <time>2021-08-14T14:40:40Z</time>
      </trkpt>
      <trkpt lat="46.72732" lon="6.27543">
        <ele>1098.5</ele>
        <time>2021-08-14T14:40:42Z</time>
      </trkpt>
      <trkpt lat="46.72731" lon="6.27542">
        <ele>1098.5</ele>
        <time>2021-08-14T14:40:43Z</time>
      </trkpt>
      <trkpt lat="46.72731" lon="6.2754">
        <ele>1098.5</ele>
        <time>2021-08-14T14:40:45Z</time>
      </trkpt>
      <trkpt lat="46.7273" lon="6.27539">
        <ele>1098.5</ele>
        <time>2021-08-14T14:40:46Z</time>
      </trkpt>
      <trkpt lat="46.7273" lon="6.27538">
        <ele>1098.5</ele>
        <time>2021-08-14T14:40:47Z</time>
      </trkpt>
      <trkpt lat="46.72728" lon="6.27535">
        <ele>1098.5</ele>
        <time>2021-08-14T14:40:48Z</time>
      </trkpt>
      <trkpt lat="46.72727" lon="6.27534">
        <ele>1098.6</ele>
        <time>2021-08-14T14:40:49Z</time>
      </trkpt>
      <trkpt lat="46.72725" lon="6.27534">
        <ele>1098.6</ele>
        <time>2021-08-14T14:40:51Z</time>
      </trkpt>
      <trkpt lat="46.72723" lon="6.27534">
        <ele>1098.6</ele>
        <time>2021-08-14T14:40:52Z</time>
      </trkpt>
      <trkpt lat="46.72722" lon="6.27533">
        <ele>1098.6</ele>
        <time>2021-08-14T14:40:53Z</time>
      </trkpt>
      <trkpt lat="46.72722" lon="6.27533">
        <ele>1098.6</ele>
        <time>2021-08-14T14:40:55Z</time>
      </trkpt>
      <trkpt lat="46.72721" lon="6.27533">
        <ele>1098.7</ele>
        <time>2021-08-14T14:40:56Z</time>
      </trkpt>
      <trkpt lat="46.72721" lon="6.27532">
        <ele>1098.7</ele>
        <time>2021-08-14T14:40:57Z</time>
      </trkpt>
      <trkpt lat="46.7272" lon="6.27532">
        <ele>1098.7</ele>
        <time>2021-08-14T14:40:58Z</time>
      </trkpt>
      <trkpt lat="46.72719" lon="6.27532">
        <ele>1098.7</ele>
        <time>2021-08-14T14:40:59Z</time>
      </trkpt>
      <trkpt lat="46.72717" lon="6.27531">
        <ele>1098.7</ele>
        <time>2021-08-14T14:41:01Z</time>
      </trkpt>
      <trkpt lat="46.72717" lon="6.2753">
        <ele>1098.8</ele>
        <time>2021-08-14T14:41:03Z</time>
      </trkpt>
      <trkpt lat="46.72714" lon="6.27528">
        <ele>1098.8</ele>
        <time>2021-08-14T14:41:06Z</time>
      </trkpt>
      <trkpt lat="46.72711" lon="6.27524">
        <ele>1098.9</ele>
        <time>2021-08-14T14:41:07Z</time>
      </trkpt>
      <trkpt lat="46.72708" lon="6.27522">
        <ele>1099</ele>
        <time>2021-08-14T14:41:09Z</time>
      </trkpt>
      <trkpt lat="46.72705" lon="6.27523">
        <ele>1099.1</ele>
        <time>2021-08-14T14:41:10Z</time>
      </trkpt>
      <trkpt lat="46.72702" lon="6.27524">
        <ele>1099.2</ele>
        <time>2021-08-14T14:41:11Z</time>
      </trkpt>
      <trkpt lat="46.72697" lon="6.27522">
        <ele>1099.4</ele>
        <time>2021-08-14T14:41:13Z</time>
      </trkpt>
      <trkpt lat="46.72695" lon="6.27521">
        <ele>1099.5</ele>
        <time>2021-08-14T14:41:14Z</time>
      </trkpt>
      <trkpt lat="46.72693" lon="6.27519">
        <ele>1099.6</ele>
        <time>2021-08-14T14:41:16Z</time>
      </trkpt>
      <trkpt lat="46.72691" lon="6.27517">
        <ele>1099.7</ele>
        <time>2021-08-14T14:41:18Z</time>
      </trkpt>
      <trkpt lat="46.72689" lon="6.27516">
        <ele>1099.7</ele>
        <time>2021-08-14T14:41:20Z</time>
      </trkpt>
      <trkpt lat="46.72687" lon="6.27514">
        <ele>1099.8</ele>
        <time>2021-08-14T14:41:22Z</time>
      </trkpt>
      <trkpt lat="46.72685" lon="6.27513">
        <ele>1099.9</ele>
        <time>2021-08-14T14:41:23Z</time>
      </trkpt>
      <trkpt lat="46.72683" lon="6.27511">
        <ele>1100</ele>
        <time>2021-08-14T14:41:25Z</time>
      </trkpt>
      <trkpt lat="46.72681" lon="6.2751">
        <ele>1100.1</ele>
        <time>2021-08-14T14:41:44Z</time>
      </trkpt>
      <trkpt lat="46.72679" lon="6.27508">
        <ele>1100.2</ele>
        <time>2021-08-14T14:41:46Z</time>
      </trkpt>
      <trkpt lat="46.72677" lon="6.27506">
        <ele>1100.3</ele>
        <time>2021-08-14T14:41:47Z</time>
      </trkpt>
      <trkpt lat="46.72677" lon="6.27505">
        <ele>1100.4</ele>
        <time>2021-08-14T14:41:48Z</time>
      </trkpt>
      <trkpt lat="46.72675" lon="6.27503">
        <ele>1100.5</ele>
        <time>2021-08-14T14:41:50Z</time>
      </trkpt>
      <trkpt lat="46.72675" lon="6.27502">
        <ele>1100.5</ele>
        <time>2021-08-14T14:41:51Z</time>
      </trkpt>
      <trkpt lat="46.72674" lon="6.27499">
        <ele>1100.6</ele>
        <time>2021-08-14T14:41:53Z</time>
      </trkpt>
      <trkpt lat="46.72673" lon="6.27498">
        <ele>1100.6</ele>
        <time>2021-08-14T14:41:55Z</time>
      </trkpt>
      <trkpt lat="46.72673" lon="6.27498">
        <ele>1100.6</ele>
        <time>2021-08-14T14:41:56Z</time>
      </trkpt>
      <trkpt lat="46.72673" lon="6.27498">
        <ele>1100.7</ele>
        <time>2021-08-14T14:41:57Z</time>
      </trkpt>
      <trkpt lat="46.72672" lon="6.27496">
        <ele>1100.7</ele>
        <time>2021-08-14T14:41:59Z</time>
      </trkpt>
      <trkpt lat="46.72671" lon="6.27493">
        <ele>1100.8</ele>
        <time>2021-08-14T14:42:01Z</time>
      </trkpt>
      <trkpt lat="46.72671" lon="6.27492">
        <ele>1100.8</ele>
        <time>2021-08-14T14:42:02Z</time>
      </trkpt>
      <trkpt lat="46.7267" lon="6.27491">
        <ele>1100.9</ele>
        <time>2021-08-14T14:42:03Z</time>
      </trkpt>
      <trkpt lat="46.7267" lon="6.27488">
        <ele>1100.9</ele>
        <time>2021-08-14T14:42:05Z</time>
      </trkpt>
      <trkpt lat="46.7267" lon="6.27485">
        <ele>1101</ele>
        <time>2021-08-14T14:42:07Z</time>
      </trkpt>
      <trkpt lat="46.7267" lon="6.27485">
        <ele>1101</ele>
        <time>2021-08-14T14:42:08Z</time>
      </trkpt>
      <trkpt lat="46.72669" lon="6.27484">
        <ele>1101</ele>
        <time>2021-08-14T14:42:09Z</time>
      </trkpt>
      <trkpt lat="46.72667" lon="6.27483">
        <ele>1101.1</ele>
        <time>2021-08-14T14:42:11Z</time>
      </trkpt>
      <trkpt lat="46.72665" lon="6.27482">
        <ele>1101.1</ele>
        <time>2021-08-14T14:42:13Z</time>
      </trkpt>
      <trkpt lat="46.72663" lon="6.2748">
        <ele>1101.2</ele>
        <time>2021-08-14T14:42:14Z</time>
      </trkpt>
      <trkpt lat="46.72662" lon="6.27479">
        <ele>1101.2</ele>
        <time>2021-08-14T14:42:15Z</time>
      </trkpt>
      <trkpt lat="46.7266" lon="6.27477">
        <ele>1101.3</ele>
        <time>2021-08-14T14:42:17Z</time>
      </trkpt>
      <trkpt lat="46.72659" lon="6.27475">
        <ele>1101.3</ele>
        <time>2021-08-14T14:42:18Z</time>
      </trkpt>
      <trkpt lat="46.72657" lon="6.27474">
        <ele>1101.3</ele>
        <time>2021-08-14T14:42:20Z</time>
      </trkpt>
      <trkpt lat="46.72656" lon="6.27472">
        <ele>1101.4</ele>
        <time>2021-08-14T14:42:21Z</time>
      </trkpt>
      <trkpt lat="46.72654" lon="6.2747">
        <ele>1101.4</ele>
        <time>2021-08-14T14:42:23Z</time>
      </trkpt>
      <trkpt lat="46.72653" lon="6.27469">
        <ele>1101.5</ele>
        <time>2021-08-14T14:43:13Z</time>
      </trkpt>
      <trkpt lat="46.72651" lon="6.27467">
        <ele>1101.5</ele>
        <time>2021-08-14T14:43:14Z</time>
      </trkpt>
      <trkpt lat="46.7265" lon="6.27465">
        <ele>1101.5</ele>
        <time>2021-08-14T14:43:15Z</time>
      </trkpt>
      <trkpt lat="46.72648" lon="6.27463">
        <ele>1101.6</ele>
        <time>2021-08-14T14:43:16Z</time>
      </trkpt>
      <trkpt lat="46.72648" lon="6.27462">
        <ele>1101.6</ele>
        <time>2021-08-14T14:43:17Z</time>
      </trkpt>
      <trkpt lat="46.72646" lon="6.27459">
        <ele>1101.7</ele>
        <time>2021-08-14T14:43:19Z</time>
      </trkpt>
      <trkpt lat="46.72645" lon="6.27458">
        <ele>1101.7</ele>
        <time>2021-08-14T14:43:20Z</time>
      </trkpt>
      <trkpt lat="46.72642" lon="6.27456">
        <ele>1101.7</ele>
        <time>2021-08-14T14:43:22Z</time>
      </trkpt>
      <trkpt lat="46.72641" lon="6.27456">
        <ele>1101.8</ele>
        <time>2021-08-14T14:43:23Z</time>
      </trkpt>
      <trkpt lat="46.72641" lon="6.27455">
        <ele>1101.8</ele>
        <time>2021-08-14T14:43:25Z</time>
      </trkpt>
      <trkpt lat="46.7264" lon="6.27454">
        <ele>1101.8</ele>
        <time>2021-08-14T14:43:27Z</time>
      </trkpt>
      <trkpt lat="46.7264" lon="6.27454">
        <ele>1101.8</ele>
        <time>2021-08-14T14:43:29Z</time>
      </trkpt>
      <trkpt lat="46.7264" lon="6.27454">
        <ele>1101.8</ele>
        <time>2021-08-14T14:43:31Z</time>
      </trkpt>
      <trkpt lat="46.7264" lon="6.27454">
        <ele>1101.8</ele>
        <time>2021-08-14T14:43:32Z</time>
      </trkpt>
      <trkpt lat="46.72636" lon="6.27428">
        <ele>1102.3</ele>
        <time>2021-08-14T14:43:59Z</time>
      </trkpt>
      <trkpt lat="46.72634" lon="6.27426">
        <ele>1102.3</ele>
        <time>2021-08-14T14:44:01Z</time>
      </trkpt>
      <trkpt lat="46.72634" lon="6.27425">
        <ele>1102.3</ele>
        <time>2021-08-14T14:44:02Z</time>
      </trkpt>
      <trkpt lat="46.72633" lon="6.27423">
        <ele>1102.4</ele>
        <time>2021-08-14T14:44:03Z</time>
      </trkpt>
      <trkpt lat="46.72633" lon="6.27419">
        <ele>1102.4</ele>
        <time>2021-08-14T14:44:05Z</time>
      </trkpt>
      <trkpt lat="46.72633" lon="6.27417">
        <ele>1102.5</ele>
        <time>2021-08-14T14:44:06Z</time>
      </trkpt>
      <trkpt lat="46.72632" lon="6.27414">
        <ele>1102.5</ele>
        <time>2021-08-14T14:44:08Z</time>
      </trkpt>
      <trkpt lat="46.72632" lon="6.27412">
        <ele>1102.5</ele>
        <time>2021-08-14T14:44:09Z</time>
      </trkpt>
      <trkpt lat="46.72632" lon="6.2741">
        <ele>1102.5</ele>
        <time>2021-08-14T14:44:11Z</time>
      </trkpt>
      <trkpt lat="46.72631" lon="6.27409">
        <ele>1102.5</ele>
        <time>2021-08-14T14:44:12Z</time>
      </trkpt>
      <trkpt lat="46.7263" lon="6.27407">
        <ele>1102.5</ele>
        <time>2021-08-14T14:44:14Z</time>
      </trkpt>
      <trkpt lat="46.72629" lon="6.27406">
        <ele>1102.5</ele>
        <time>2021-08-14T14:44:16Z</time>
      </trkpt>
      <trkpt lat="46.72629" lon="6.27406">
        <ele>1102.5</ele>
        <time>2021-08-14T14:44:17Z</time>
      </trkpt>
      <trkpt lat="46.72629" lon="6.27406">
        <ele>1102.5</ele>
        <time>2021-08-14T14:44:18Z</time>
      </trkpt>
      <trkpt lat="46.72629" lon="6.27406">
        <ele>1102.5</ele>
        <time>2021-08-14T14:44:20Z</time>
      </trkpt>
      <trkpt lat="46.72629" lon="6.27406">
        <ele>1102.5</ele>
        <time>2021-08-14T14:44:22Z</time>
      </trkpt>
      <trkpt lat="46.72629" lon="6.27406">
        <ele>1102.5</ele>
        <time>2021-08-14T14:44:23Z</time>
      </trkpt>
      <trkpt lat="46.72629" lon="6.27406">
        <ele>1102.5</ele>
        <time>2021-08-14T14:44:24Z</time>
      </trkpt>
      <trkpt lat="46.72627" lon="6.27382">
        <ele>1102.1</ele>
        <time>2021-08-14T14:44:37Z</time>
      </trkpt>
      <trkpt lat="46.72628" lon="6.27376">
        <ele>1101.9</ele>
        <time>2021-08-14T14:44:38Z</time>
      </trkpt>
      <trkpt lat="46.7263" lon="6.27365">
        <ele>1101.5</ele>
        <time>2021-08-14T14:44:40Z</time>
      </trkpt>
      <trkpt lat="46.72631" lon="6.27361">
        <ele>1101.3</ele>
        <time>2021-08-14T14:44:41Z</time>
      </trkpt>
      <trkpt lat="46.72632" lon="6.27355">
        <ele>1101.2</ele>
        <time>2021-08-14T14:44:42Z</time>
      </trkpt>
      <trkpt lat="46.72634" lon="6.27345">
        <ele>1100.8</ele>
        <time>2021-08-14T14:44:44Z</time>
      </trkpt>
      <trkpt lat="46.72634" lon="6.27335">
        <ele>1100.5</ele>
        <time>2021-08-14T14:44:46Z</time>
      </trkpt>
      <trkpt lat="46.72634" lon="6.27331">
        <ele>1100.4</ele>
        <time>2021-08-14T14:44:47Z</time>
      </trkpt>
      <trkpt lat="46.72635" lon="6.27326">
        <ele>1100.3</ele>
        <time>2021-08-14T14:44:48Z</time>
      </trkpt>
      <trkpt lat="46.72635" lon="6.27321">
        <ele>1100.2</ele>
        <time>2021-08-14T14:44:50Z</time>
      </trkpt>
      <trkpt lat="46.72635" lon="6.27316">
        <ele>1100.1</ele>
        <time>2021-08-14T14:44:51Z</time>
      </trkpt>
      <trkpt lat="46.72634" lon="6.27312">
        <ele>1100</ele>
        <time>2021-08-14T14:44:53Z</time>
      </trkpt>
      <trkpt lat="46.72634" lon="6.27308">
        <ele>1099.9</ele>
        <time>2021-08-14T14:44:54Z</time>
      </trkpt>
      <trkpt lat="46.72633" lon="6.27303">
        <ele>1099.8</ele>
        <time>2021-08-14T14:44:56Z</time>
      </trkpt>
      <trkpt lat="46.72632" lon="6.27299">
        <ele>1099.6</ele>
        <time>2021-08-14T14:44:58Z</time>
      </trkpt>
      <trkpt lat="46.72632" lon="6.27295">
        <ele>1099.5</ele>
        <time>2021-08-14T14:44:59Z</time>
      </trkpt>
      <trkpt lat="46.72631" lon="6.27291">
        <ele>1099.4</ele>
        <time>2021-08-14T14:45:00Z</time>
      </trkpt>
      <trkpt lat="46.7263" lon="6.27286">
        <ele>1099.3</ele>
        <time>2021-08-14T14:45:02Z</time>
      </trkpt>
      <trkpt lat="46.7263" lon="6.27282">
        <ele>1099.2</ele>
        <time>2021-08-14T14:45:22Z</time>
      </trkpt>
      <trkpt lat="46.72629" lon="6.27278">
        <ele>1099</ele>
        <time>2021-08-14T14:45:23Z</time>
      </trkpt>
      <trkpt lat="46.72627" lon="6.27275">
        <ele>1098.9</ele>
        <time>2021-08-14T14:45:24Z</time>
      </trkpt>
      <trkpt lat="46.72625" lon="6.27271">
        <ele>1098.7</ele>
        <time>2021-08-14T14:45:25Z</time>
      </trkpt>
      <trkpt lat="46.72624" lon="6.27266">
        <ele>1098.5</ele>
        <time>2021-08-14T14:45:26Z</time>
      </trkpt>
      <trkpt lat="46.7262" lon="6.27258">
        <ele>1098.1</ele>
        <time>2021-08-14T14:45:28Z</time>
      </trkpt>
      <trkpt lat="46.72619" lon="6.27245">
        <ele>1097.5</ele>
        <time>2021-08-14T14:45:30Z</time>
      </trkpt>
      <trkpt lat="46.72619" lon="6.27237">
        <ele>1097.2</ele>
        <time>2021-08-14T14:45:31Z</time>
      </trkpt>
      <trkpt lat="46.72619" lon="6.2722">
        <ele>1096.4</ele>
        <time>2021-08-14T14:45:33Z</time>
      </trkpt>
      <trkpt lat="46.72618" lon="6.2721">
        <ele>1096.1</ele>
        <time>2021-08-14T14:45:34Z</time>
      </trkpt>
      <trkpt lat="46.72618" lon="6.27191">
        <ele>1095.4</ele>
        <time>2021-08-14T14:45:36Z</time>
      </trkpt>
      <trkpt lat="46.72619" lon="6.27171">
        <ele>1094.7</ele>
        <time>2021-08-14T14:45:38Z</time>
      </trkpt>
      <trkpt lat="46.7262" lon="6.27162">
        <ele>1094.4</ele>
        <time>2021-08-14T14:45:39Z</time>
      </trkpt>
      <trkpt lat="46.72621" lon="6.27152">
        <ele>1094.1</ele>
        <time>2021-08-14T14:45:40Z</time>
      </trkpt>
      <trkpt lat="46.72622" lon="6.27143">
        <ele>1093.8</ele>
        <time>2021-08-14T14:45:41Z</time>
      </trkpt>
      <trkpt lat="46.72628" lon="6.27124">
        <ele>1092.8</ele>
        <time>2021-08-14T14:45:43Z</time>
      </trkpt>
      <trkpt lat="46.72635" lon="6.27109">
        <ele>1091.9</ele>
        <time>2021-08-14T14:45:45Z</time>
      </trkpt>
      <trkpt lat="46.72642" lon="6.27093">
        <ele>1091</ele>
        <time>2021-08-14T14:45:47Z</time>
      </trkpt>
      <trkpt lat="46.72643" lon="6.27082">
        <ele>1090.5</ele>
        <time>2021-08-14T14:45:48Z</time>
      </trkpt>
      <trkpt lat="46.72643" lon="6.27072">
        <ele>1090.1</ele>
        <time>2021-08-14T14:45:49Z</time>
      </trkpt>
      <trkpt lat="46.72646" lon="6.27053">
        <ele>1089.6</ele>
        <time>2021-08-14T14:45:51Z</time>
      </trkpt>
      <trkpt lat="46.72653" lon="6.27035">
        <ele>1089</ele>
        <time>2021-08-14T14:45:53Z</time>
      </trkpt>
      <trkpt lat="46.72656" lon="6.27027">
        <ele>1088.8</ele>
        <time>2021-08-14T14:45:54Z</time>
      </trkpt>
      <trkpt lat="46.7266" lon="6.27011">
        <ele>1088.5</ele>
        <time>2021-08-14T14:45:56Z</time>
      </trkpt>
      <trkpt lat="46.72665" lon="6.26994">
        <ele>1088.2</ele>
        <time>2021-08-14T14:45:58Z</time>
      </trkpt>
      <trkpt lat="46.72669" lon="6.26978">
        <ele>1087.8</ele>
        <time>2021-08-14T14:46:00Z</time>
      </trkpt>
      <trkpt lat="46.7267" lon="6.26971">
        <ele>1087.5</ele>
        <time>2021-08-14T14:46:01Z</time>
      </trkpt>
      <trkpt lat="46.72672" lon="6.26964">
        <ele>1087.3</ele>
        <time>2021-08-14T14:46:02Z</time>
      </trkpt>
      <trkpt lat="46.72674" lon="6.26949">
        <ele>1086.4</ele>
        <time>2021-08-14T14:46:04Z</time>
      </trkpt>
      <trkpt lat="46.72674" lon="6.2694">
        <ele>1085.9</ele>
        <time>2021-08-14T14:46:05Z</time>
      </trkpt>
      <trkpt lat="46.72673" lon="6.26932">
        <ele>1085.5</ele>
        <time>2021-08-14T14:46:06Z</time>
      </trkpt>
      <trkpt lat="46.7267" lon="6.26919">
        <ele>1084.9</ele>
        <time>2021-08-14T14:46:08Z</time>
      </trkpt>
      <trkpt lat="46.72667" lon="6.2691">
        <ele>1084.5</ele>
        <time>2021-08-14T14:46:10Z</time>
      </trkpt>
      <trkpt lat="46.72665" lon="6.26906">
        <ele>1084.4</ele>
        <time>2021-08-14T14:46:11Z</time>
      </trkpt>
      <trkpt lat="46.72659" lon="6.26903">
        <ele>1084.1</ele>
        <time>2021-08-14T14:46:13Z</time>
      </trkpt>
      <trkpt lat="46.72654" lon="6.26901">
        <ele>1084</ele>
        <time>2021-08-14T14:46:14Z</time>
      </trkpt>
      <trkpt lat="46.72654" lon="6.269">
        <ele>1084</ele>
        <time>2021-08-14T14:46:15Z</time>
      </trkpt>
      <trkpt lat="46.72652" lon="6.26899">
        <ele>1083.9</ele>
        <time>2021-08-14T14:46:16Z</time>
      </trkpt>
      <trkpt lat="46.72644" lon="6.26892">
        <ele>1083.6</ele>
        <time>2021-08-14T14:46:18Z</time>
      </trkpt>
      <trkpt lat="46.72641" lon="6.26885">
        <ele>1083.4</ele>
        <time>2021-08-14T14:46:20Z</time>
      </trkpt>
      <trkpt lat="46.72638" lon="6.26881">
        <ele>1083.2</ele>
        <time>2021-08-14T14:46:21Z</time>
      </trkpt>
      <trkpt lat="46.72635" lon="6.26876">
        <ele>1083.1</ele>
        <time>2021-08-14T14:46:22Z</time>
      </trkpt>
      <trkpt lat="46.72628" lon="6.26869">
        <ele>1082.9</ele>
        <time>2021-08-14T14:46:24Z</time>
      </trkpt>
      <trkpt lat="46.72621" lon="6.26864">
        <ele>1082.7</ele>
        <time>2021-08-14T14:46:25Z</time>
      </trkpt>
      <trkpt lat="46.72617" lon="6.26859">
        <ele>1082.6</ele>
        <time>2021-08-14T14:46:27Z</time>
      </trkpt>
      <trkpt lat="46.72613" lon="6.26853">
        <ele>1082.5</ele>
        <time>2021-08-14T14:46:28Z</time>
      </trkpt>
      <trkpt lat="46.7261" lon="6.26846">
        <ele>1082.4</ele>
        <time>2021-08-14T14:46:29Z</time>
      </trkpt>
      <trkpt lat="46.72608" lon="6.26835">
        <ele>1082.2</ele>
        <time>2021-08-14T14:46:31Z</time>
      </trkpt>
      <trkpt lat="46.72606" lon="6.26829">
        <ele>1082.1</ele>
        <time>2021-08-14T14:46:33Z</time>
      </trkpt>
      <trkpt lat="46.72604" lon="6.26824">
        <ele>1082</ele>
        <time>2021-08-14T14:46:34Z</time>
      </trkpt>
      <trkpt lat="46.72601" lon="6.26811">
        <ele>1081.8</ele>
        <time>2021-08-14T14:46:35Z</time>
      </trkpt>
      <trkpt lat="46.72598" lon="6.26801">
        <ele>1081.7</ele>
        <time>2021-08-14T14:46:37Z</time>
      </trkpt>
      <trkpt lat="46.72596" lon="6.26793">
        <ele>1081.6</ele>
        <time>2021-08-14T14:46:38Z</time>
      </trkpt>
      <trkpt lat="46.72592" lon="6.26786">
        <ele>1081.5</ele>
        <time>2021-08-14T14:46:39Z</time>
      </trkpt>
      <trkpt lat="46.7259" lon="6.2678">
        <ele>1081.5</ele>
        <time>2021-08-14T14:46:40Z</time>
      </trkpt>
      <trkpt lat="46.72587" lon="6.26774">
        <ele>1081.4</ele>
        <time>2021-08-14T14:46:41Z</time>
      </trkpt>
      <trkpt lat="46.72585" lon="6.26769">
        <ele>1081.4</ele>
        <time>2021-08-14T14:46:42Z</time>
      </trkpt>
      <trkpt lat="46.72582" lon="6.26763">
        <ele>1081.3</ele>
        <time>2021-08-14T14:46:44Z</time>
      </trkpt>
      <trkpt lat="46.72578" lon="6.26757">
        <ele>1081.2</ele>
        <time>2021-08-14T14:46:45Z</time>
      </trkpt>
      <trkpt lat="46.72574" lon="6.26751">
        <ele>1081.1</ele>
        <time>2021-08-14T14:46:47Z</time>
      </trkpt>
      <trkpt lat="46.72571" lon="6.26742">
        <ele>1081</ele>
        <time>2021-08-14T14:46:48Z</time>
      </trkpt>
      <trkpt lat="46.72569" lon="6.26735">
        <ele>1080.9</ele>
        <time>2021-08-14T14:46:49Z</time>
      </trkpt>
      <trkpt lat="46.72567" lon="6.26726">
        <ele>1080.7</ele>
        <time>2021-08-14T14:46:51Z</time>
      </trkpt>
      <trkpt lat="46.72565" lon="6.26718">
        <ele>1080.6</ele>
        <time>2021-08-14T14:46:52Z</time>
      </trkpt>
      <trkpt lat="46.72563" lon="6.26708">
        <ele>1080.4</ele>
        <time>2021-08-14T14:46:54Z</time>
      </trkpt>
      <trkpt lat="46.72562" lon="6.26698">
        <ele>1080.2</ele>
        <time>2021-08-14T14:46:55Z</time>
      </trkpt>
      <trkpt lat="46.72561" lon="6.26691">
        <ele>1079.9</ele>
        <time>2021-08-14T14:46:57Z</time>
      </trkpt>
      <trkpt lat="46.72559" lon="6.26686">
        <ele>1079.7</ele>
        <time>2021-08-14T14:46:58Z</time>
      </trkpt>
      <trkpt lat="46.72557" lon="6.26677">
        <ele>1079.1</ele>
        <time>2021-08-14T14:46:59Z</time>
      </trkpt>
      <trkpt lat="46.72555" lon="6.26669">
        <ele>1078.6</ele>
        <time>2021-08-14T14:47:00Z</time>
      </trkpt>
      <trkpt lat="46.72554" lon="6.2666">
        <ele>1077.9</ele>
        <time>2021-08-14T14:47:02Z</time>
      </trkpt>
      <trkpt lat="46.72555" lon="6.26655">
        <ele>1077.5</ele>
        <time>2021-08-14T14:47:03Z</time>
      </trkpt>
      <trkpt lat="46.72554" lon="6.26649">
        <ele>1077</ele>
        <time>2021-08-14T14:47:05Z</time>
      </trkpt>
      <trkpt lat="46.72554" lon="6.26643">
        <ele>1076.6</ele>
        <time>2021-08-14T14:47:06Z</time>
      </trkpt>
      <trkpt lat="46.72556" lon="6.26636">
        <ele>1076.1</ele>
        <time>2021-08-14T14:47:08Z</time>
      </trkpt>
      <trkpt lat="46.72558" lon="6.26632">
        <ele>1075.8</ele>
        <time>2021-08-14T14:47:09Z</time>
      </trkpt>
      <trkpt lat="46.72558" lon="6.26626">
        <ele>1075.4</ele>
        <time>2021-08-14T14:47:10Z</time>
      </trkpt>
      <trkpt lat="46.72562" lon="6.26617">
        <ele>1074.8</ele>
        <time>2021-08-14T14:47:12Z</time>
      </trkpt>
      <trkpt lat="46.72565" lon="6.26606">
        <ele>1074.1</ele>
        <time>2021-08-14T14:47:13Z</time>
      </trkpt>
      <trkpt lat="46.72567" lon="6.26598">
        <ele>1073.7</ele>
        <time>2021-08-14T14:47:14Z</time>
      </trkpt>
      <trkpt lat="46.72569" lon="6.26588">
        <ele>1073.3</ele>
        <time>2021-08-14T14:47:16Z</time>
      </trkpt>
      <trkpt lat="46.7257" lon="6.26582">
        <ele>1073</ele>
        <time>2021-08-14T14:47:17Z</time>
      </trkpt>
      <trkpt lat="46.72571" lon="6.26576">
        <ele>1072.8</ele>
        <time>2021-08-14T14:47:18Z</time>
      </trkpt>
      <trkpt lat="46.72571" lon="6.26569">
        <ele>1072.6</ele>
        <time>2021-08-14T14:47:19Z</time>
      </trkpt>
      <trkpt lat="46.7257" lon="6.26563">
        <ele>1072.4</ele>
        <time>2021-08-14T14:47:20Z</time>
      </trkpt>
      <trkpt lat="46.72569" lon="6.26559">
        <ele>1072.3</ele>
        <time>2021-08-14T14:47:22Z</time>
      </trkpt>
      <trkpt lat="46.72567" lon="6.26556">
        <ele>1072.2</ele>
        <time>2021-08-14T14:47:23Z</time>
      </trkpt>
      <trkpt lat="46.72562" lon="6.26547">
        <ele>1071.8</ele>
        <time>2021-08-14T14:47:25Z</time>
      </trkpt>
      <trkpt lat="46.7256" lon="6.26543">
        <ele>1071.7</ele>
        <time>2021-08-14T14:47:26Z</time>
      </trkpt>
      <trkpt lat="46.72558" lon="6.26534">
        <ele>1071.4</ele>
        <time>2021-08-14T14:47:27Z</time>
      </trkpt>
      <trkpt lat="46.72557" lon="6.26526">
        <ele>1071.1</ele>
        <time>2021-08-14T14:47:28Z</time>
      </trkpt>
      <trkpt lat="46.72556" lon="6.26518">
        <ele>1070.7</ele>
        <time>2021-08-14T14:47:30Z</time>
      </trkpt>
      <trkpt lat="46.72556" lon="6.2651">
        <ele>1070.4</ele>
        <time>2021-08-14T14:47:31Z</time>
      </trkpt>
      <trkpt lat="46.72557" lon="6.26506">
        <ele>1070.2</ele>
        <time>2021-08-14T14:47:32Z</time>
      </trkpt>
      <trkpt lat="46.72559" lon="6.26496">
        <ele>1069.7</ele>
        <time>2021-08-14T14:47:34Z</time>
      </trkpt>
      <trkpt lat="46.7256" lon="6.26491">
        <ele>1069.4</ele>
        <time>2021-08-14T14:47:35Z</time>
      </trkpt>
      <trkpt lat="46.72559" lon="6.26483">
        <ele>1069.2</ele>
        <time>2021-08-14T14:47:37Z</time>
      </trkpt>
      <trkpt lat="46.72556" lon="6.26473">
        <ele>1068.7</ele>
        <time>2021-08-14T14:47:38Z</time>
      </trkpt>
      <trkpt lat="46.72555" lon="6.26468">
        <ele>1068.4</ele>
        <time>2021-08-14T14:47:40Z</time>
      </trkpt>
      <trkpt lat="46.72555" lon="6.26446">
        <ele>1067.5</ele>
        <time>2021-08-14T14:47:41Z</time>
      </trkpt>
      <trkpt lat="46.72557" lon="6.26425">
        <ele>1066.6</ele>
        <time>2021-08-14T14:47:43Z</time>
      </trkpt>
      <trkpt lat="46.72557" lon="6.26417">
        <ele>1066.3</ele>
        <time>2021-08-14T14:47:44Z</time>
      </trkpt>
      <trkpt lat="46.72555" lon="6.26409">
        <ele>1066</ele>
        <time>2021-08-14T14:47:45Z</time>
      </trkpt>
      <trkpt lat="46.72553" lon="6.26393">
        <ele>1065.4</ele>
        <time>2021-08-14T14:47:47Z</time>
      </trkpt>
      <trkpt lat="46.72551" lon="6.26386">
        <ele>1066.4</ele>
        <time>2021-08-14T14:47:48Z</time>
      </trkpt>
      <trkpt lat="46.7255" lon="6.26381">
        <ele>1066.6</ele>
        <time>2021-08-14T14:47:50Z</time>
      </trkpt>
      <trkpt lat="46.72547" lon="6.26374">
        <ele>1067</ele>
        <time>2021-08-14T14:47:51Z</time>
      </trkpt>
      <trkpt lat="46.72544" lon="6.26366">
        <ele>1067.3</ele>
        <time>2021-08-14T14:47:52Z</time>
      </trkpt>
      <trkpt lat="46.72543" lon="6.26362">
        <ele>1067.5</ele>
        <time>2021-08-14T14:47:54Z</time>
      </trkpt>
      <trkpt lat="46.72542" lon="6.26361">
        <ele>1067.6</ele>
        <time>2021-08-14T14:47:55Z</time>
      </trkpt>
      <trkpt lat="46.72538" lon="6.26354">
        <ele>1067.9</ele>
        <time>2021-08-14T14:47:56Z</time>
      </trkpt>
      <trkpt lat="46.72535" lon="6.26349">
        <ele>1068.2</ele>
        <time>2021-08-14T14:47:58Z</time>
      </trkpt>
      <trkpt lat="46.72532" lon="6.26344">
        <ele>1068.5</ele>
        <time>2021-08-14T14:47:59Z</time>
      </trkpt>
      <trkpt lat="46.72529" lon="6.26336">
        <ele>1068.8</ele>
        <time>2021-08-14T14:48:01Z</time>
      </trkpt>
      <trkpt lat="46.72526" lon="6.2633">
        <ele>1069.2</ele>
        <time>2021-08-14T14:48:02Z</time>
      </trkpt>
      <trkpt lat="46.72524" lon="6.26326">
        <ele>1069.4</ele>
        <time>2021-08-14T14:48:04Z</time>
      </trkpt>
      <trkpt lat="46.72522" lon="6.26322">
        <ele>1069.6</ele>
        <time>2021-08-14T14:48:05Z</time>
      </trkpt>
      <trkpt lat="46.72519" lon="6.26316">
        <ele>1070</ele>
        <time>2021-08-14T14:48:07Z</time>
      </trkpt>
      <trkpt lat="46.72516" lon="6.26309">
        <ele>1070.3</ele>
        <time>2021-08-14T14:48:08Z</time>
      </trkpt>
      <trkpt lat="46.72514" lon="6.26304">
        <ele>1070.5</ele>
        <time>2021-08-14T14:48:10Z</time>
      </trkpt>
      <trkpt lat="46.72512" lon="6.26301">
        <ele>1070.7</ele>
        <time>2021-08-14T14:48:11Z</time>
      </trkpt>
      <trkpt lat="46.7251" lon="6.26298">
        <ele>1070.8</ele>
        <time>2021-08-14T14:48:12Z</time>
      </trkpt>
      <trkpt lat="46.72506" lon="6.26291">
        <ele>1071.1</ele>
        <time>2021-08-14T14:48:14Z</time>
      </trkpt>
      <trkpt lat="46.72505" lon="6.26288">
        <ele>1071.3</ele>
        <time>2021-08-14T14:48:15Z</time>
      </trkpt>
      <trkpt lat="46.72504" lon="6.26285">
        <ele>1071.4</ele>
        <time>2021-08-14T14:48:16Z</time>
      </trkpt>
      <trkpt lat="46.72503" lon="6.26281">
        <ele>1071.6</ele>
        <time>2021-08-14T14:48:18Z</time>
      </trkpt>
      <trkpt lat="46.72502" lon="6.26277">
        <ele>1071.7</ele>
        <time>2021-08-14T14:48:19Z</time>
      </trkpt>
      <trkpt lat="46.72501" lon="6.26272">
        <ele>1071.9</ele>
        <time>2021-08-14T14:48:21Z</time>
      </trkpt>
      <trkpt lat="46.72498" lon="6.2627">
        <ele>1072.1</ele>
        <time>2021-08-14T14:48:22Z</time>
      </trkpt>
      <trkpt lat="46.72497" lon="6.26271">
        <ele>1072.1</ele>
        <time>2021-08-14T14:48:23Z</time>
      </trkpt>
      <trkpt lat="46.72496" lon="6.26271">
        <ele>1072.2</ele>
        <time>2021-08-14T14:48:24Z</time>
      </trkpt>
      <trkpt lat="46.72493" lon="6.26272">
        <ele>1072.4</ele>
        <time>2021-08-14T14:48:26Z</time>
      </trkpt>
      <trkpt lat="46.72492" lon="6.26273">
        <ele>1072.4</ele>
        <time>2021-08-14T14:48:27Z</time>
      </trkpt>
      <trkpt lat="46.7249" lon="6.26274">
        <ele>1072.6</ele>
        <time>2021-08-14T14:48:29Z</time>
      </trkpt>
      <trkpt lat="46.72487" lon="6.26272">
        <ele>1072.7</ele>
        <time>2021-08-14T14:48:30Z</time>
      </trkpt>
      <trkpt lat="46.72485" lon="6.26271">
        <ele>1072.8</ele>
        <time>2021-08-14T14:48:31Z</time>
      </trkpt>
      <trkpt lat="46.72481" lon="6.26268">
        <ele>1073</ele>
        <time>2021-08-14T14:48:33Z</time>
      </trkpt>
      <trkpt lat="46.72479" lon="6.26266">
        <ele>1073.2</ele>
        <time>2021-08-14T14:48:34Z</time>
      </trkpt>
      <trkpt lat="46.72477" lon="6.26265">
        <ele>1073.3</ele>
        <time>2021-08-14T14:48:35Z</time>
      </trkpt>
      <trkpt lat="46.72475" lon="6.26265">
        <ele>1073.4</ele>
        <time>2021-08-14T14:48:36Z</time>
      </trkpt>
      <trkpt lat="46.72473" lon="6.26264">
        <ele>1073.5</ele>
        <time>2021-08-14T14:48:37Z</time>
      </trkpt>
      <trkpt lat="46.72471" lon="6.26263">
        <ele>1073.6</ele>
        <time>2021-08-14T14:48:39Z</time>
      </trkpt>
      <trkpt lat="46.7247" lon="6.26261">
        <ele>1073.7</ele>
        <time>2021-08-14T14:48:40Z</time>
      </trkpt>
      <trkpt lat="46.72468" lon="6.2626">
        <ele>1073.8</ele>
        <time>2021-08-14T14:48:41Z</time>
      </trkpt>
      <trkpt lat="46.72467" lon="6.26257">
        <ele>1073.9</ele>
        <time>2021-08-14T14:48:42Z</time>
      </trkpt>
      <trkpt lat="46.72466" lon="6.26254">
        <ele>1074</ele>
        <time>2021-08-14T14:48:44Z</time>
      </trkpt>
      <trkpt lat="46.72466" lon="6.26249">
        <ele>1074.2</ele>
        <time>2021-08-14T14:48:45Z</time>
      </trkpt>
      <trkpt lat="46.72465" lon="6.26244">
        <ele>1074.4</ele>
        <time>2021-08-14T14:48:47Z</time>
      </trkpt>
      <trkpt lat="46.72464" lon="6.26238">
        <ele>1074.6</ele>
        <time>2021-08-14T14:48:48Z</time>
      </trkpt>
      <trkpt lat="46.72463" lon="6.26236">
        <ele>1074.6</ele>
        <time>2021-08-14T14:48:49Z</time>
      </trkpt>
      <trkpt lat="46.72462" lon="6.26232">
        <ele>1074.8</ele>
        <time>2021-08-14T14:48:50Z</time>
      </trkpt>
      <trkpt lat="46.72462" lon="6.26231">
        <ele>1074.8</ele>
        <time>2021-08-14T14:48:51Z</time>
      </trkpt>
      <trkpt lat="46.72461" lon="6.26227">
        <ele>1075</ele>
        <time>2021-08-14T14:48:53Z</time>
      </trkpt>
      <trkpt lat="46.7246" lon="6.26221">
        <ele>1075.2</ele>
        <time>2021-08-14T14:48:54Z</time>
      </trkpt>
      <trkpt lat="46.72459" lon="6.26217">
        <ele>1075.4</ele>
        <time>2021-08-14T14:48:55Z</time>
      </trkpt>
      <trkpt lat="46.72457" lon="6.26211">
        <ele>1075.6</ele>
        <time>2021-08-14T14:48:56Z</time>
      </trkpt>
      <trkpt lat="46.72456" lon="6.26206">
        <ele>1075.9</ele>
        <time>2021-08-14T14:48:58Z</time>
      </trkpt>
      <trkpt lat="46.72455" lon="6.26201">
        <ele>1076.1</ele>
        <time>2021-08-14T14:48:59Z</time>
      </trkpt>
      <trkpt lat="46.72453" lon="6.26195">
        <ele>1076.4</ele>
        <time>2021-08-14T14:49:00Z</time>
      </trkpt>
      <trkpt lat="46.72451" lon="6.26191">
        <ele>1076.6</ele>
        <time>2021-08-14T14:49:01Z</time>
      </trkpt>
      <trkpt lat="46.7245" lon="6.26187">
        <ele>1076.8</ele>
        <time>2021-08-14T14:49:03Z</time>
      </trkpt>
      <trkpt lat="46.72449" lon="6.26183">
        <ele>1076.9</ele>
        <time>2021-08-14T14:49:04Z</time>
      </trkpt>
      <trkpt lat="46.72448" lon="6.26179">
        <ele>1077.1</ele>
        <time>2021-08-14T14:49:05Z</time>
      </trkpt>
      <trkpt lat="46.72446" lon="6.26177">
        <ele>1077.3</ele>
        <time>2021-08-14T14:49:06Z</time>
      </trkpt>
      <trkpt lat="46.72445" lon="6.26176">
        <ele>1077.4</ele>
        <time>2021-08-14T14:49:08Z</time>
      </trkpt>
      <trkpt lat="46.72444" lon="6.26175">
        <ele>1077.4</ele>
        <time>2021-08-14T14:49:09Z</time>
      </trkpt>
      <trkpt lat="46.72444" lon="6.26174">
        <ele>1077.5</ele>
        <time>2021-08-14T14:49:10Z</time>
      </trkpt>
      <trkpt lat="46.72443" lon="6.26174">
        <ele>1077.5</ele>
        <time>2021-08-14T14:49:11Z</time>
      </trkpt>
      <trkpt lat="46.72441" lon="6.26171">
        <ele>1077.7</ele>
        <time>2021-08-14T14:49:12Z</time>
      </trkpt>
      <trkpt lat="46.7244" lon="6.2617">
        <ele>1077.8</ele>
        <time>2021-08-14T14:49:13Z</time>
      </trkpt>
      <trkpt lat="46.72438" lon="6.26167">
        <ele>1078</ele>
        <time>2021-08-14T14:49:15Z</time>
      </trkpt>
      <trkpt lat="46.72434" lon="6.26161">
        <ele>1078.3</ele>
        <time>2021-08-14T14:49:17Z</time>
      </trkpt>
      <trkpt lat="46.72434" lon="6.26161">
        <ele>1078.3</ele>
        <time>2021-08-14T14:49:17Z</time>
      </trkpt>
      <trkpt lat="46.72432" lon="6.26158">
        <ele>1078.5</ele>
        <time>2021-08-14T14:49:18Z</time>
      </trkpt>
      <trkpt lat="46.7243" lon="6.26155">
        <ele>1078.7</ele>
        <time>2021-08-14T14:49:19Z</time>
      </trkpt>
      <trkpt lat="46.72428" lon="6.26151">
        <ele>1078.8</ele>
        <time>2021-08-14T14:49:20Z</time>
      </trkpt>
      <trkpt lat="46.72428" lon="6.2615">
        <ele>1078.9</ele>
        <time>2021-08-14T14:49:21Z</time>
      </trkpt>
      <trkpt lat="46.72427" lon="6.26147">
        <ele>1079</ele>
        <time>2021-08-14T14:49:22Z</time>
      </trkpt>
      <trkpt lat="46.72427" lon="6.26146">
        <ele>1079.2</ele>
        <time>2021-08-14T14:49:23Z</time>
      </trkpt>
      <trkpt lat="46.72427" lon="6.26143">
        <ele>1079.3</ele>
        <time>2021-08-14T14:49:25Z</time>
      </trkpt>
      <trkpt lat="46.72427" lon="6.26143">
        <ele>1079.3</ele>
        <time>2021-08-14T14:49:26Z</time>
      </trkpt>
      <trkpt lat="46.72427" lon="6.26142">
        <ele>1079.4</ele>
        <time>2021-08-14T14:49:28Z</time>
      </trkpt>
      <trkpt lat="46.72427" lon="6.26142">
        <ele>1079.4</ele>
        <time>2021-08-14T14:49:29Z</time>
      </trkpt>
      <trkpt lat="46.72425" lon="6.2614">
        <ele>1079.6</ele>
        <time>2021-08-14T14:49:31Z</time>
      </trkpt>
      <trkpt lat="46.72374" lon="6.26117">
        <ele>1082.9</ele>
        <time>2021-08-14T14:50:00Z</time>
      </trkpt>
      <trkpt lat="46.72368" lon="6.26115">
        <ele>1083.3</ele>
        <time>2021-08-14T14:50:01Z</time>
      </trkpt>
      <trkpt lat="46.72363" lon="6.26113">
        <ele>1083.6</ele>
        <time>2021-08-14T14:50:03Z</time>
      </trkpt>
      <trkpt lat="46.72359" lon="6.26113">
        <ele>1083.8</ele>
        <time>2021-08-14T14:50:04Z</time>
      </trkpt>
      <trkpt lat="46.72354" lon="6.26112">
        <ele>1084.1</ele>
        <time>2021-08-14T14:50:06Z</time>
      </trkpt>
      <trkpt lat="46.72353" lon="6.26112">
        <ele>1084.2</ele>
        <time>2021-08-14T14:50:07Z</time>
      </trkpt>
      <trkpt lat="46.72347" lon="6.26109">
        <ele>1084.5</ele>
        <time>2021-08-14T14:50:09Z</time>
      </trkpt>
      <trkpt lat="46.72345" lon="6.26107">
        <ele>1084.7</ele>
        <time>2021-08-14T14:50:10Z</time>
      </trkpt>
      <trkpt lat="46.72344" lon="6.26106">
        <ele>1084.8</ele>
        <time>2021-08-14T14:50:11Z</time>
      </trkpt>
      <trkpt lat="46.72343" lon="6.26104">
        <ele>1084.9</ele>
        <time>2021-08-14T14:50:13Z</time>
      </trkpt>
      <trkpt lat="46.7234" lon="6.26101">
        <ele>1085.1</ele>
        <time>2021-08-14T14:50:15Z</time>
      </trkpt>
      <trkpt lat="46.72319" lon="6.26097">
        <ele>1086.3</ele>
        <time>2021-08-14T14:50:28Z</time>
      </trkpt>
      <trkpt lat="46.72315" lon="6.26096">
        <ele>1086.6</ele>
        <time>2021-08-14T14:50:29Z</time>
      </trkpt>
      <trkpt lat="46.72314" lon="6.26095">
        <ele>1086.7</ele>
        <time>2021-08-14T14:50:31Z</time>
      </trkpt>
      <trkpt lat="46.72313" lon="6.26094">
        <ele>1086.7</ele>
        <time>2021-08-14T14:50:32Z</time>
      </trkpt>
      <trkpt lat="46.72311" lon="6.26093">
        <ele>1086.9</ele>
        <time>2021-08-14T14:50:34Z</time>
      </trkpt>
      <trkpt lat="46.72308" lon="6.26092">
        <ele>1087.1</ele>
        <time>2021-08-14T14:50:35Z</time>
      </trkpt>
      <trkpt lat="46.72306" lon="6.26091">
        <ele>1087.2</ele>
        <time>2021-08-14T14:50:36Z</time>
      </trkpt>
      <trkpt lat="46.72302" lon="6.26089">
        <ele>1087.5</ele>
        <time>2021-08-14T14:50:38Z</time>
      </trkpt>
      <trkpt lat="46.72298" lon="6.26088">
        <ele>1087.8</ele>
        <time>2021-08-14T14:50:39Z</time>
      </trkpt>
      <trkpt lat="46.72296" lon="6.26087">
        <ele>1087.9</ele>
        <time>2021-08-14T14:50:40Z</time>
      </trkpt>
      <trkpt lat="46.72293" lon="6.26087">
        <ele>1088.1</ele>
        <time>2021-08-14T14:50:41Z</time>
      </trkpt>
      <trkpt lat="46.72291" lon="6.26088">
        <ele>1088.2</ele>
        <time>2021-08-14T14:50:42Z</time>
      </trkpt>
      <trkpt lat="46.72289" lon="6.26088">
        <ele>1088.4</ele>
        <time>2021-08-14T14:50:43Z</time>
      </trkpt>
      <trkpt lat="46.72288" lon="6.26088">
        <ele>1088.4</ele>
        <time>2021-08-14T14:50:45Z</time>
      </trkpt>
      <trkpt lat="46.72288" lon="6.26088">
        <ele>1088.4</ele>
        <time>2021-08-14T14:50:46Z</time>
      </trkpt>
      <trkpt lat="46.72288" lon="6.26089">
        <ele>1088.5</ele>
        <time>2021-08-14T14:50:47Z</time>
      </trkpt>
      <trkpt lat="46.72287" lon="6.26088">
        <ele>1088.5</ele>
        <time>2021-08-14T14:50:49Z</time>
      </trkpt>
      <trkpt lat="46.72285" lon="6.26088">
        <ele>1088.6</ele>
        <time>2021-08-14T14:50:51Z</time>
      </trkpt>
      <trkpt lat="46.72284" lon="6.26087">
        <ele>1088.7</ele>
        <time>2021-08-14T14:50:52Z</time>
      </trkpt>
      <trkpt lat="46.7226" lon="6.26068">
        <ele>1090.4</ele>
        <time>2021-08-14T14:51:08Z</time>
      </trkpt>
      <trkpt lat="46.72255" lon="6.26064">
        <ele>1090.7</ele>
        <time>2021-08-14T14:51:10Z</time>
      </trkpt>
      <trkpt lat="46.72252" lon="6.26062">
        <ele>1090.9</ele>
        <time>2021-08-14T14:51:11Z</time>
      </trkpt>
      <trkpt lat="46.72247" lon="6.26058">
        <ele>1091.3</ele>
        <time>2021-08-14T14:51:13Z</time>
      </trkpt>
      <trkpt lat="46.72244" lon="6.26057">
        <ele>1091.5</ele>
        <time>2021-08-14T14:51:14Z</time>
      </trkpt>
      <trkpt lat="46.72242" lon="6.26056">
        <ele>1091.6</ele>
        <time>2021-08-14T14:51:15Z</time>
      </trkpt>
      <trkpt lat="46.7224" lon="6.26055">
        <ele>1091.7</ele>
        <time>2021-08-14T14:51:16Z</time>
      </trkpt>
      <trkpt lat="46.72239" lon="6.26054">
        <ele>1091.8</ele>
        <time>2021-08-14T14:51:17Z</time>
      </trkpt>
      <trkpt lat="46.72237" lon="6.26051">
        <ele>1092</ele>
        <time>2021-08-14T14:51:19Z</time>
      </trkpt>
      <trkpt lat="46.72233" lon="6.26046">
        <ele>1092.3</ele>
        <time>2021-08-14T14:51:21Z</time>
      </trkpt>
      <trkpt lat="46.7223" lon="6.26044">
        <ele>1092.5</ele>
        <time>2021-08-14T14:51:22Z</time>
      </trkpt>
      <trkpt lat="46.72226" lon="6.26039">
        <ele>1092.8</ele>
        <time>2021-08-14T14:51:24Z</time>
      </trkpt>
      <trkpt lat="46.72223" lon="6.26035">
        <ele>1093</ele>
        <time>2021-08-14T14:51:25Z</time>
      </trkpt>
      <trkpt lat="46.72222" lon="6.26031">
        <ele>1093.2</ele>
        <time>2021-08-14T14:51:26Z</time>
      </trkpt>
      <trkpt lat="46.72219" lon="6.26028">
        <ele>1093.4</ele>
        <time>2021-08-14T14:51:27Z</time>
      </trkpt>
      <trkpt lat="46.72218" lon="6.26028">
        <ele>1093.5</ele>
        <time>2021-08-14T14:51:28Z</time>
      </trkpt>
      <trkpt lat="46.72216" lon="6.26026">
        <ele>1093.6</ele>
        <time>2021-08-14T14:51:29Z</time>
      </trkpt>
      <trkpt lat="46.72216" lon="6.26027">
        <ele>1093.7</ele>
        <time>2021-08-14T14:51:30Z</time>
      </trkpt>
      <trkpt lat="46.72215" lon="6.26027">
        <ele>1093.7</ele>
        <time>2021-08-14T14:51:31Z</time>
      </trkpt>
      <trkpt lat="46.72214" lon="6.26026">
        <ele>1093.8</ele>
        <time>2021-08-14T14:51:32Z</time>
      </trkpt>
      <trkpt lat="46.72213" lon="6.26024">
        <ele>1093.9</ele>
        <time>2021-08-14T14:51:34Z</time>
      </trkpt>
      <trkpt lat="46.72212" lon="6.26022">
        <ele>1094</ele>
        <time>2021-08-14T14:51:35Z</time>
      </trkpt>
      <trkpt lat="46.72209" lon="6.26018">
        <ele>1094.2</ele>
        <time>2021-08-14T14:51:37Z</time>
      </trkpt>
      <trkpt lat="46.72206" lon="6.26015">
        <ele>1094.5</ele>
        <time>2021-08-14T14:51:39Z</time>
      </trkpt>
      <trkpt lat="46.72201" lon="6.26012">
        <ele>1094.8</ele>
        <time>2021-08-14T14:51:41Z</time>
      </trkpt>
      <trkpt lat="46.72197" lon="6.26008">
        <ele>1095.1</ele>
        <time>2021-08-14T14:51:42Z</time>
      </trkpt>
      <trkpt lat="46.72191" lon="6.26002">
        <ele>1095.5</ele>
        <time>2021-08-14T14:51:44Z</time>
      </trkpt>
      <trkpt lat="46.72186" lon="6.25999">
        <ele>1095.9</ele>
        <time>2021-08-14T14:51:46Z</time>
      </trkpt>
      <trkpt lat="46.72184" lon="6.25995">
        <ele>1096.1</ele>
        <time>2021-08-14T14:51:47Z</time>
      </trkpt>
      <trkpt lat="46.72182" lon="6.25992">
        <ele>1096.3</ele>
        <time>2021-08-14T14:51:48Z</time>
      </trkpt>
      <trkpt lat="46.72179" lon="6.25985">
        <ele>1096.6</ele>
        <time>2021-08-14T14:51:49Z</time>
      </trkpt>
      <trkpt lat="46.72176" lon="6.25979">
        <ele>1096.9</ele>
        <time>2021-08-14T14:51:51Z</time>
      </trkpt>
      <trkpt lat="46.72174" lon="6.25974">
        <ele>1097.2</ele>
        <time>2021-08-14T14:51:52Z</time>
      </trkpt>
      <trkpt lat="46.72172" lon="6.2597">
        <ele>1097.4</ele>
        <time>2021-08-14T14:51:53Z</time>
      </trkpt>
      <trkpt lat="46.72169" lon="6.25962">
        <ele>1097.7</ele>
        <time>2021-08-14T14:51:54Z</time>
      </trkpt>
      <trkpt lat="46.72169" lon="6.25958">
        <ele>1097.9</ele>
        <time>2021-08-14T14:51:55Z</time>
      </trkpt>
      <trkpt lat="46.72168" lon="6.25954">
        <ele>1098</ele>
        <time>2021-08-14T14:51:56Z</time>
      </trkpt>
      <trkpt lat="46.72166" lon="6.25949">
        <ele>1098.2</ele>
        <time>2021-08-14T14:51:58Z</time>
      </trkpt>
      <trkpt lat="46.72163" lon="6.25943">
        <ele>1098.5</ele>
        <time>2021-08-14T14:52:00Z</time>
      </trkpt>
      <trkpt lat="46.7216" lon="6.25938">
        <ele>1098.8</ele>
        <time>2021-08-14T14:52:02Z</time>
      </trkpt>
      <trkpt lat="46.72158" lon="6.25934">
        <ele>1099</ele>
        <time>2021-08-14T14:52:03Z</time>
      </trkpt>
      <trkpt lat="46.72153" lon="6.2593">
        <ele>1099.3</ele>
        <time>2021-08-14T14:52:04Z</time>
      </trkpt>
      <trkpt lat="46.72148" lon="6.25926">
        <ele>1099.6</ele>
        <time>2021-08-14T14:52:06Z</time>
      </trkpt>
      <trkpt lat="46.72145" lon="6.25925">
        <ele>1099.8</ele>
        <time>2021-08-14T14:52:07Z</time>
      </trkpt>
      <trkpt lat="46.72138" lon="6.25923">
        <ele>1100.1</ele>
        <time>2021-08-14T14:52:09Z</time>
      </trkpt>
      <trkpt lat="46.72134" lon="6.2592">
        <ele>1100.2</ele>
        <time>2021-08-14T14:52:10Z</time>
      </trkpt>
      <trkpt lat="46.72132" lon="6.25916">
        <ele>1100.4</ele>
        <time>2021-08-14T14:52:11Z</time>
      </trkpt>
      <trkpt lat="46.7213" lon="6.25908">
        <ele>1100.4</ele>
        <time>2021-08-14T14:52:12Z</time>
      </trkpt>
      <trkpt lat="46.72129" lon="6.25904">
        <ele>1100.5</ele>
        <time>2021-08-14T14:52:13Z</time>
      </trkpt>
      <trkpt lat="46.72127" lon="6.25898">
        <ele>1100.4</ele>
        <time>2021-08-14T14:52:15Z</time>
      </trkpt>
      <trkpt lat="46.72127" lon="6.25896">
        <ele>1100.4</ele>
        <time>2021-08-14T14:52:16Z</time>
      </trkpt>
      <trkpt lat="46.72127" lon="6.25892">
        <ele>1100.3</ele>
        <time>2021-08-14T14:52:17Z</time>
      </trkpt>
      <trkpt lat="46.72126" lon="6.25887">
        <ele>1100.2</ele>
        <time>2021-08-14T14:52:19Z</time>
      </trkpt>
      <trkpt lat="46.72123" lon="6.2588">
        <ele>1100</ele>
        <time>2021-08-14T14:52:21Z</time>
      </trkpt>
      <trkpt lat="46.72123" lon="6.25875">
        <ele>1099.8</ele>
        <time>2021-08-14T14:52:22Z</time>
      </trkpt>
      <trkpt lat="46.72125" lon="6.25867">
        <ele>1099.4</ele>
        <time>2021-08-14T14:52:23Z</time>
      </trkpt>
      <trkpt lat="46.72125" lon="6.25861">
        <ele>1099.1</ele>
        <time>2021-08-14T14:52:25Z</time>
      </trkpt>
      <trkpt lat="46.72125" lon="6.25856">
        <ele>1098.8</ele>
        <time>2021-08-14T14:52:26Z</time>
      </trkpt>
      <trkpt lat="46.72123" lon="6.2585">
        <ele>1098.5</ele>
        <time>2021-08-14T14:52:28Z</time>
      </trkpt>
      <trkpt lat="46.7212" lon="6.25845">
        <ele>1098.2</ele>
        <time>2021-08-14T14:52:29Z</time>
      </trkpt>
      <trkpt lat="46.72118" lon="6.25842">
        <ele>1097.9</ele>
        <time>2021-08-14T14:52:30Z</time>
      </trkpt>
      <trkpt lat="46.72116" lon="6.25839">
        <ele>1097.7</ele>
        <time>2021-08-14T14:52:31Z</time>
      </trkpt>
      <trkpt lat="46.72108" lon="6.25833">
        <ele>1097</ele>
        <time>2021-08-14T14:52:33Z</time>
      </trkpt>
      <trkpt lat="46.72103" lon="6.2583">
        <ele>1096.5</ele>
        <time>2021-08-14T14:52:34Z</time>
      </trkpt>
      <trkpt lat="46.72098" lon="6.25827">
        <ele>1096</ele>
        <time>2021-08-14T14:52:35Z</time>
      </trkpt>
      <trkpt lat="46.72094" lon="6.25822">
        <ele>1095.5</ele>
        <time>2021-08-14T14:52:36Z</time>
      </trkpt>
      <trkpt lat="46.72083" lon="6.25811">
        <ele>1094.3</ele>
        <time>2021-08-14T14:52:38Z</time>
      </trkpt>
      <trkpt lat="46.72077" lon="6.25804">
        <ele>1093.6</ele>
        <time>2021-08-14T14:52:39Z</time>
      </trkpt>
      <trkpt lat="46.72071" lon="6.25795">
        <ele>1092.9</ele>
        <time>2021-08-14T14:52:40Z</time>
      </trkpt>
      <trkpt lat="46.7206" lon="6.25776">
        <ele>1091.3</ele>
        <time>2021-08-14T14:52:42Z</time>
      </trkpt>
      <trkpt lat="46.72051" lon="6.25754">
        <ele>1089.8</ele>
        <time>2021-08-14T14:52:44Z</time>
      </trkpt>
      <trkpt lat="46.72046" lon="6.25742">
        <ele>1089.1</ele>
        <time>2021-08-14T14:52:45Z</time>
      </trkpt>
      <trkpt lat="46.72034" lon="6.25719">
        <ele>1087.6</ele>
        <time>2021-08-14T14:52:47Z</time>
      </trkpt>
      <trkpt lat="46.72024" lon="6.25694">
        <ele>1086.1</ele>
        <time>2021-08-14T14:52:49Z</time>
      </trkpt>
      <trkpt lat="46.72019" lon="6.25682">
        <ele>1085.3</ele>
        <time>2021-08-14T14:52:50Z</time>
      </trkpt>
      <trkpt lat="46.72014" lon="6.25672">
        <ele>1084.7</ele>
        <time>2021-08-14T14:52:51Z</time>
      </trkpt>
      <trkpt lat="46.72007" lon="6.25653">
        <ele>1083.6</ele>
        <time>2021-08-14T14:52:53Z</time>
      </trkpt>
      <trkpt lat="46.72007" lon="6.2563">
        <ele>1082.3</ele>
        <time>2021-08-14T14:52:55Z</time>
      </trkpt>
      <trkpt lat="46.72008" lon="6.25606">
        <ele>1081</ele>
        <time>2021-08-14T14:52:57Z</time>
      </trkpt>
      <trkpt lat="46.72009" lon="6.25594">
        <ele>1080.4</ele>
        <time>2021-08-14T14:52:58Z</time>
      </trkpt>
      <trkpt lat="46.7201" lon="6.25568">
        <ele>1078.8</ele>
        <time>2021-08-14T14:53:00Z</time>
      </trkpt>
      <trkpt lat="46.72009" lon="6.2554">
        <ele>1077.1</ele>
        <time>2021-08-14T14:53:02Z</time>
      </trkpt>
      <trkpt lat="46.72009" lon="6.25514">
        <ele>1075.7</ele>
        <time>2021-08-14T14:53:04Z</time>
      </trkpt>
      <trkpt lat="46.7201" lon="6.25488">
        <ele>1074.3</ele>
        <time>2021-08-14T14:53:06Z</time>
      </trkpt>
      <trkpt lat="46.72011" lon="6.25475">
        <ele>1073.6</ele>
        <time>2021-08-14T14:53:07Z</time>
      </trkpt>
      <trkpt lat="46.7201" lon="6.25462">
        <ele>1072.8</ele>
        <time>2021-08-14T14:53:08Z</time>
      </trkpt>
      <trkpt lat="46.72009" lon="6.25448">
        <ele>1072</ele>
        <time>2021-08-14T14:53:09Z</time>
      </trkpt>
      <trkpt lat="46.72002" lon="6.25421">
        <ele>1070.2</ele>
        <time>2021-08-14T14:53:11Z</time>
      </trkpt>
      <trkpt lat="46.71997" lon="6.25408">
        <ele>1069.4</ele>
        <time>2021-08-14T14:53:12Z</time>
      </trkpt>
      <trkpt lat="46.71988" lon="6.25383">
        <ele>1067.8</ele>
        <time>2021-08-14T14:53:14Z</time>
      </trkpt>
      <trkpt lat="46.71984" lon="6.2537">
        <ele>1067</ele>
        <time>2021-08-14T14:53:15Z</time>
      </trkpt>
      <trkpt lat="46.71979" lon="6.25355">
        <ele>1066.1</ele>
        <time>2021-08-14T14:53:16Z</time>
      </trkpt>
      <trkpt lat="46.71974" lon="6.25341">
        <ele>1065.1</ele>
        <time>2021-08-14T14:53:17Z</time>
      </trkpt>
      <trkpt lat="46.71964" lon="6.25311">
        <ele>1063.4</ele>
        <time>2021-08-14T14:53:19Z</time>
      </trkpt>
      <trkpt lat="46.71953" lon="6.25281">
        <ele>1061.7</ele>
        <time>2021-08-14T14:53:21Z</time>
      </trkpt>
      <trkpt lat="46.71947" lon="6.25267">
        <ele>1060.8</ele>
        <time>2021-08-14T14:53:22Z</time>
      </trkpt>
      <trkpt lat="46.71941" lon="6.25253">
        <ele>1060</ele>
        <time>2021-08-14T14:53:23Z</time>
      </trkpt>
      <trkpt lat="46.71934" lon="6.2524">
        <ele>1059.1</ele>
        <time>2021-08-14T14:53:24Z</time>
      </trkpt>
      <trkpt lat="46.71918" lon="6.25213">
        <ele>1057.2</ele>
        <time>2021-08-14T14:53:26Z</time>
      </trkpt>
      <trkpt lat="46.71907" lon="6.25185">
        <ele>1055.7</ele>
        <time>2021-08-14T14:53:28Z</time>
      </trkpt>
      <trkpt lat="46.71901" lon="6.25172">
        <ele>1055.6</ele>
        <time>2021-08-14T14:53:29Z</time>
      </trkpt>
      <trkpt lat="46.71895" lon="6.25159">
        <ele>1055.6</ele>
        <time>2021-08-14T14:53:30Z</time>
      </trkpt>
      <trkpt lat="46.71885" lon="6.25138">
        <ele>1056.1</ele>
        <time>2021-08-14T14:53:32Z</time>
      </trkpt>
      <trkpt lat="46.71876" lon="6.2512">
        <ele>1058</ele>
        <time>2021-08-14T14:53:34Z</time>
      </trkpt>
      <trkpt lat="46.71871" lon="6.25107">
        <ele>1059.3</ele>
        <time>2021-08-14T14:53:36Z</time>
      </trkpt>
      <trkpt lat="46.71868" lon="6.25096">
        <ele>1060.2</ele>
        <time>2021-08-14T14:53:38Z</time>
      </trkpt>
      <trkpt lat="46.71866" lon="6.25089">
        <ele>1060.7</ele>
        <time>2021-08-14T14:53:40Z</time>
      </trkpt>
      <trkpt lat="46.71866" lon="6.25089">
        <ele>1060.7</ele>
        <time>2021-08-14T14:53:41Z</time>
      </trkpt>
      <trkpt lat="46.71865" lon="6.25087">
        <ele>1060.9</ele>
        <time>2021-08-14T14:53:43Z</time>
      </trkpt>
      <trkpt lat="46.71864" lon="6.25086">
        <ele>1061</ele>
        <time>2021-08-14T14:53:44Z</time>
      </trkpt>
      <trkpt lat="46.7186" lon="6.25088">
        <ele>1061.3</ele>
        <time>2021-08-14T14:53:46Z</time>
      </trkpt>
      <trkpt lat="46.71857" lon="6.25089">
        <ele>1061.4</ele>
        <time>2021-08-14T14:53:47Z</time>
      </trkpt>
      <trkpt lat="46.71852" lon="6.25089">
        <ele>1061.7</ele>
        <time>2021-08-14T14:53:49Z</time>
      </trkpt>
      <trkpt lat="46.71847" lon="6.25086">
        <ele>1062.1</ele>
        <time>2021-08-14T14:53:51Z</time>
      </trkpt>
      <trkpt lat="46.71844" lon="6.25084">
        <ele>1062.2</ele>
        <time>2021-08-14T14:53:52Z</time>
      </trkpt>
      <trkpt lat="46.71842" lon="6.25082">
        <ele>1062.3</ele>
        <time>2021-08-14T14:53:53Z</time>
      </trkpt>
      <trkpt lat="46.71836" lon="6.25078">
        <ele>1062.5</ele>
        <time>2021-08-14T14:53:55Z</time>
      </trkpt>
      <trkpt lat="46.71834" lon="6.25075">
        <ele>1062.6</ele>
        <time>2021-08-14T14:53:56Z</time>
      </trkpt>
      <trkpt lat="46.71829" lon="6.2507">
        <ele>1062.8</ele>
        <time>2021-08-14T14:53:58Z</time>
      </trkpt>
      <trkpt lat="46.71826" lon="6.25066">
        <ele>1062.9</ele>
        <time>2021-08-14T14:53:59Z</time>
      </trkpt>
      <trkpt lat="46.71821" lon="6.25061">
        <ele>1063</ele>
        <time>2021-08-14T14:54:01Z</time>
      </trkpt>
      <trkpt lat="46.71819" lon="6.25058">
        <ele>1063.1</ele>
        <time>2021-08-14T14:54:02Z</time>
      </trkpt>
      <trkpt lat="46.71818" lon="6.25057">
        <ele>1063.2</ele>
        <time>2021-08-14T14:54:03Z</time>
      </trkpt>
      <trkpt lat="46.71814" lon="6.25054">
        <ele>1063.3</ele>
        <time>2021-08-14T14:54:05Z</time>
      </trkpt>
      <trkpt lat="46.71812" lon="6.25051">
        <ele>1063.4</ele>
        <time>2021-08-14T14:54:06Z</time>
      </trkpt>
      <trkpt lat="46.7181" lon="6.2505">
        <ele>1063.4</ele>
        <time>2021-08-14T14:54:07Z</time>
      </trkpt>
      <trkpt lat="46.71807" lon="6.25049">
        <ele>1063.5</ele>
        <time>2021-08-14T14:54:09Z</time>
      </trkpt>
      <trkpt lat="46.71803" lon="6.25047">
        <ele>1063.7</ele>
        <time>2021-08-14T14:54:10Z</time>
      </trkpt>
      <trkpt lat="46.718" lon="6.25044">
        <ele>1063.8</ele>
        <time>2021-08-14T14:54:12Z</time>
      </trkpt>
      <trkpt lat="46.71797" lon="6.25041">
        <ele>1064</ele>
        <time>2021-08-14T14:54:13Z</time>
      </trkpt>
      <trkpt lat="46.71794" lon="6.25037">
        <ele>1064.3</ele>
        <time>2021-08-14T14:54:14Z</time>
      </trkpt>
      <trkpt lat="46.71792" lon="6.25036">
        <ele>1064.4</ele>
        <time>2021-08-14T14:54:15Z</time>
      </trkpt>
      <trkpt lat="46.7179" lon="6.25034">
        <ele>1064.6</ele>
        <time>2021-08-14T14:54:16Z</time>
      </trkpt>
      <trkpt lat="46.71787" lon="6.25031">
        <ele>1064.8</ele>
        <time>2021-08-14T14:54:18Z</time>
      </trkpt>
      <trkpt lat="46.71786" lon="6.2503">
        <ele>1065</ele>
        <time>2021-08-14T14:54:19Z</time>
      </trkpt>
      <trkpt lat="46.71784" lon="6.25028">
        <ele>1065.2</ele>
        <time>2021-08-14T14:54:21Z</time>
      </trkpt>
      <trkpt lat="46.71782" lon="6.25025">
        <ele>1065.5</ele>
        <time>2021-08-14T14:54:22Z</time>
      </trkpt>
      <trkpt lat="46.71781" lon="6.25024">
        <ele>1065.6</ele>
        <time>2021-08-14T14:54:23Z</time>
      </trkpt>
      <trkpt lat="46.7178" lon="6.2502">
        <ele>1065.9</ele>
        <time>2021-08-14T14:54:24Z</time>
      </trkpt>
      <trkpt lat="46.7178" lon="6.25018">
        <ele>1066</ele>
        <time>2021-08-14T14:54:25Z</time>
      </trkpt>
      <trkpt lat="46.71778" lon="6.25014">
        <ele>1066.4</ele>
        <time>2021-08-14T14:54:26Z</time>
      </trkpt>
      <trkpt lat="46.71777" lon="6.25013">
        <ele>1066.6</ele>
        <time>2021-08-14T14:54:27Z</time>
      </trkpt>
      <trkpt lat="46.71775" lon="6.25011">
        <ele>1066.9</ele>
        <time>2021-08-14T14:54:28Z</time>
      </trkpt>
      <trkpt lat="46.71774" lon="6.2501">
        <ele>1067.1</ele>
        <time>2021-08-14T14:54:29Z</time>
      </trkpt>
      <trkpt lat="46.71772" lon="6.25009">
        <ele>1067.2</ele>
        <time>2021-08-14T14:54:30Z</time>
      </trkpt>
      <trkpt lat="46.71771" lon="6.25008">
        <ele>1067.4</ele>
        <time>2021-08-14T14:54:32Z</time>
      </trkpt>
      <trkpt lat="46.71769" lon="6.25006">
        <ele>1067.8</ele>
        <time>2021-08-14T14:54:34Z</time>
      </trkpt>
      <trkpt lat="46.7176" lon="6.25001">
        <ele>1069</ele>
        <time>2021-08-14T14:54:35Z</time>
      </trkpt>
      <trkpt lat="46.71751" lon="6.24997">
        <ele>1070.1</ele>
        <time>2021-08-14T14:54:36Z</time>
      </trkpt>
      <trkpt lat="46.71742" lon="6.24993">
        <ele>1071.2</ele>
        <time>2021-08-14T14:54:38Z</time>
      </trkpt>
      <trkpt lat="46.71734" lon="6.24989">
        <ele>1072.1</ele>
        <time>2021-08-14T14:54:39Z</time>
      </trkpt>
      <trkpt lat="46.71725" lon="6.24984">
        <ele>1072.9</ele>
        <time>2021-08-14T14:55:22Z</time>
      </trkpt>
      <trkpt lat="46.71716" lon="6.2498">
        <ele>1073.6</ele>
        <time>2021-08-14T14:55:23Z</time>
      </trkpt>
      <trkpt lat="46.71712" lon="6.24976">
        <ele>1073.9</ele>
        <time>2021-08-14T14:55:25Z</time>
      </trkpt>
      <trkpt lat="46.7171" lon="6.24975">
        <ele>1074.1</ele>
        <time>2021-08-14T14:55:26Z</time>
      </trkpt>
      <trkpt lat="46.71709" lon="6.24974">
        <ele>1074.2</ele>
        <time>2021-08-14T14:55:27Z</time>
      </trkpt>
      <trkpt lat="46.71705" lon="6.24972">
        <ele>1074.5</ele>
        <time>2021-08-14T14:55:28Z</time>
      </trkpt>
      <trkpt lat="46.71703" lon="6.24971">
        <ele>1074.6</ele>
        <time>2021-08-14T14:55:29Z</time>
      </trkpt>
      <trkpt lat="46.717" lon="6.2497">
        <ele>1074.8</ele>
        <time>2021-08-14T14:55:31Z</time>
      </trkpt>
      <trkpt lat="46.71697" lon="6.24968">
        <ele>1075</ele>
        <time>2021-08-14T14:55:32Z</time>
      </trkpt>
      <trkpt lat="46.71693" lon="6.24965">
        <ele>1075.3</ele>
        <time>2021-08-14T14:55:34Z</time>
      </trkpt>
      <trkpt lat="46.7169" lon="6.2496">
        <ele>1075.6</ele>
        <time>2021-08-14T14:55:36Z</time>
      </trkpt>
      <trkpt lat="46.71686" lon="6.24956">
        <ele>1075.9</ele>
        <time>2021-08-14T14:55:38Z</time>
      </trkpt>
      <trkpt lat="46.71684" lon="6.24953">
        <ele>1076.1</ele>
        <time>2021-08-14T14:55:40Z</time>
      </trkpt>
      <trkpt lat="46.71683" lon="6.24953">
        <ele>1076.2</ele>
        <time>2021-08-14T14:55:41Z</time>
      </trkpt>
      <trkpt lat="46.71681" lon="6.24949">
        <ele>1076.4</ele>
        <time>2021-08-14T14:55:42Z</time>
      </trkpt>
      <trkpt lat="46.71681" lon="6.24948">
        <ele>1076.4</ele>
        <time>2021-08-14T14:55:43Z</time>
      </trkpt>
      <trkpt lat="46.71679" lon="6.24945">
        <ele>1076.7</ele>
        <time>2021-08-14T14:55:45Z</time>
      </trkpt>
      <trkpt lat="46.71678" lon="6.24944">
        <ele>1076.8</ele>
        <time>2021-08-14T14:55:46Z</time>
      </trkpt>
      <trkpt lat="46.71677" lon="6.24939">
        <ele>1077.1</ele>
        <time>2021-08-14T14:55:48Z</time>
      </trkpt>
      <trkpt lat="46.71673" lon="6.24934">
        <ele>1077.5</ele>
        <time>2021-08-14T14:55:50Z</time>
      </trkpt>
      <trkpt lat="46.71672" lon="6.24932">
        <ele>1077.6</ele>
        <time>2021-08-14T14:55:51Z</time>
      </trkpt>
      <trkpt lat="46.71671" lon="6.24931">
        <ele>1077.7</ele>
        <time>2021-08-14T14:55:52Z</time>
      </trkpt>
      <trkpt lat="46.7167" lon="6.24929">
        <ele>1077.8</ele>
        <time>2021-08-14T14:55:53Z</time>
      </trkpt>
      <trkpt lat="46.71669" lon="6.24928">
        <ele>1078</ele>
        <time>2021-08-14T14:55:54Z</time>
      </trkpt>
      <trkpt lat="46.71667" lon="6.24926">
        <ele>1078.2</ele>
        <time>2021-08-14T14:55:55Z</time>
      </trkpt>
      <trkpt lat="46.71666" lon="6.24926">
        <ele>1078.3</ele>
        <time>2021-08-14T14:55:56Z</time>
      </trkpt>
      <trkpt lat="46.71663" lon="6.24925">
        <ele>1078.5</ele>
        <time>2021-08-14T14:55:57Z</time>
      </trkpt>
      <trkpt lat="46.71661" lon="6.24925">
        <ele>1078.7</ele>
        <time>2021-08-14T14:55:59Z</time>
      </trkpt>
      <trkpt lat="46.71659" lon="6.24924">
        <ele>1078.8</ele>
        <time>2021-08-14T14:56:00Z</time>
      </trkpt>
      <trkpt lat="46.71657" lon="6.24924">
        <ele>1079</ele>
        <time>2021-08-14T14:56:01Z</time>
      </trkpt>
      <trkpt lat="46.71656" lon="6.24924">
        <ele>1079.1</ele>
        <time>2021-08-14T14:56:03Z</time>
      </trkpt>
      <trkpt lat="46.71656" lon="6.24925">
        <ele>1079.2</ele>
        <time>2021-08-14T14:56:05Z</time>
      </trkpt>
      <trkpt lat="46.71654" lon="6.24925">
        <ele>1079.3</ele>
        <time>2021-08-14T14:56:07Z</time>
      </trkpt>
      <trkpt lat="46.71654" lon="6.24925">
        <ele>1079.3</ele>
        <time>2021-08-14T14:56:08Z</time>
      </trkpt>
      <trkpt lat="46.71654" lon="6.24925">
        <ele>1079.3</ele>
        <time>2021-08-14T14:56:09Z</time>
      </trkpt>
      <trkpt lat="46.71654" lon="6.24924">
        <ele>1079.3</ele>
        <time>2021-08-14T14:56:10Z</time>
      </trkpt>
      <trkpt lat="46.71654" lon="6.24924">
        <ele>1079.4</ele>
        <time>2021-08-14T14:56:11Z</time>
      </trkpt>
      <trkpt lat="46.71654" lon="6.24924">
        <ele>1079.4</ele>
        <time>2021-08-14T14:56:13Z</time>
      </trkpt>
      <trkpt lat="46.71626" lon="6.24868">
        <ele>1083.5</ele>
        <time>2021-08-14T14:56:52Z</time>
      </trkpt>
      <trkpt lat="46.71623" lon="6.24867">
        <ele>1083.7</ele>
        <time>2021-08-14T14:56:53Z</time>
      </trkpt>
      <trkpt lat="46.71614" lon="6.2486">
        <ele>1084.4</ele>
        <time>2021-08-14T14:56:54Z</time>
      </trkpt>
      <trkpt lat="46.71609" lon="6.24856">
        <ele>1084.7</ele>
        <time>2021-08-14T14:56:56Z</time>
      </trkpt>
      <trkpt lat="46.71605" lon="6.24854">
        <ele>1084.9</ele>
        <time>2021-08-14T14:56:57Z</time>
      </trkpt>
      <trkpt lat="46.71601" lon="6.24854">
        <ele>1085.1</ele>
        <time>2021-08-14T14:56:58Z</time>
      </trkpt>
      <trkpt lat="46.71596" lon="6.24853">
        <ele>1085.3</ele>
        <time>2021-08-14T14:57:00Z</time>
      </trkpt>
      <trkpt lat="46.71593" lon="6.24851">
        <ele>1085.4</ele>
        <time>2021-08-14T14:57:01Z</time>
      </trkpt>
      <trkpt lat="46.71592" lon="6.2485">
        <ele>1085.5</ele>
        <time>2021-08-14T14:57:02Z</time>
      </trkpt>
      <trkpt lat="46.7159" lon="6.24847">
        <ele>1085.6</ele>
        <time>2021-08-14T14:57:03Z</time>
      </trkpt>
      <trkpt lat="46.71587" lon="6.24843">
        <ele>1085.7</ele>
        <time>2021-08-14T14:57:04Z</time>
      </trkpt>
      <trkpt lat="46.71584" lon="6.2484">
        <ele>1085.8</ele>
        <time>2021-08-14T14:57:05Z</time>
      </trkpt>
      <trkpt lat="46.71581" lon="6.24836">
        <ele>1085.9</ele>
        <time>2021-08-14T14:57:06Z</time>
      </trkpt>
      <trkpt lat="46.71577" lon="6.24828">
        <ele>1086</ele>
        <time>2021-08-14T14:57:08Z</time>
      </trkpt>
      <trkpt lat="46.71576" lon="6.24823">
        <ele>1086.1</ele>
        <time>2021-08-14T14:57:09Z</time>
      </trkpt>
      <trkpt lat="46.71574" lon="6.24819">
        <ele>1086.2</ele>
        <time>2021-08-14T14:57:10Z</time>
      </trkpt>
      <trkpt lat="46.71572" lon="6.2481">
        <ele>1086.3</ele>
        <time>2021-08-14T14:57:11Z</time>
      </trkpt>
      <trkpt lat="46.71569" lon="6.24803">
        <ele>1086.4</ele>
        <time>2021-08-14T14:57:13Z</time>
      </trkpt>
      <trkpt lat="46.71568" lon="6.24798">
        <ele>1086.5</ele>
        <time>2021-08-14T14:57:14Z</time>
      </trkpt>
      <trkpt lat="46.71568" lon="6.24788">
        <ele>1086.6</ele>
        <time>2021-08-14T14:57:16Z</time>
      </trkpt>
      <trkpt lat="46.71568" lon="6.24781">
        <ele>1086.7</ele>
        <time>2021-08-14T14:57:17Z</time>
      </trkpt>
      <trkpt lat="46.71568" lon="6.24774">
        <ele>1086.7</ele>
        <time>2021-08-14T14:57:18Z</time>
      </trkpt>
      <trkpt lat="46.71567" lon="6.24764">
        <ele>1086.7</ele>
        <time>2021-08-14T14:57:20Z</time>
      </trkpt>
      <trkpt lat="46.71565" lon="6.24755">
        <ele>1086.6</ele>
        <time>2021-08-14T14:57:21Z</time>
      </trkpt>
      <trkpt lat="46.71561" lon="6.24733">
        <ele>1086.6</ele>
        <time>2021-08-14T14:57:23Z</time>
      </trkpt>
      <trkpt lat="46.71558" lon="6.24724">
        <ele>1086.5</ele>
        <time>2021-08-14T14:57:24Z</time>
      </trkpt>
      <trkpt lat="46.71554" lon="6.24717">
        <ele>1086.4</ele>
        <time>2021-08-14T14:57:25Z</time>
      </trkpt>
      <trkpt lat="46.71551" lon="6.24711">
        <ele>1086.4</ele>
        <time>2021-08-14T14:57:26Z</time>
      </trkpt>
      <trkpt lat="46.71543" lon="6.247">
        <ele>1086.4</ele>
        <time>2021-08-14T14:57:28Z</time>
      </trkpt>
      <trkpt lat="46.7154" lon="6.24694">
        <ele>1086.4</ele>
        <time>2021-08-14T14:57:29Z</time>
      </trkpt>
      <trkpt lat="46.7154" lon="6.2469">
        <ele>1086.4</ele>
        <time>2021-08-14T14:57:30Z</time>
      </trkpt>
      <trkpt lat="46.71537" lon="6.24684">
        <ele>1086.5</ele>
        <time>2021-08-14T14:57:31Z</time>
      </trkpt>
      <trkpt lat="46.71533" lon="6.24678">
        <ele>1086.6</ele>
        <time>2021-08-14T14:57:32Z</time>
      </trkpt>
      <trkpt lat="46.7153" lon="6.24673">
        <ele>1086.7</ele>
        <time>2021-08-14T14:57:33Z</time>
      </trkpt>
      <trkpt lat="46.71526" lon="6.24668">
        <ele>1086.9</ele>
        <time>2021-08-14T14:57:35Z</time>
      </trkpt>
      <trkpt lat="46.71524" lon="6.24665">
        <ele>1087</ele>
        <time>2021-08-14T14:57:36Z</time>
      </trkpt>
      <trkpt lat="46.71521" lon="6.24661">
        <ele>1087.1</ele>
        <time>2021-08-14T14:57:37Z</time>
      </trkpt>
      <trkpt lat="46.71518" lon="6.24657">
        <ele>1087.3</ele>
        <time>2021-08-14T14:57:38Z</time>
      </trkpt>
      <trkpt lat="46.71514" lon="6.24652">
        <ele>1087.4</ele>
        <time>2021-08-14T14:57:40Z</time>
      </trkpt>
      <trkpt lat="46.71513" lon="6.24646">
        <ele>1087.6</ele>
        <time>2021-08-14T14:57:41Z</time>
      </trkpt>
      <trkpt lat="46.7151" lon="6.24638">
        <ele>1087.8</ele>
        <time>2021-08-14T14:57:42Z</time>
      </trkpt>
      <trkpt lat="46.71509" lon="6.24628">
        <ele>1088.1</ele>
        <time>2021-08-14T14:57:44Z</time>
      </trkpt>
      <trkpt lat="46.71508" lon="6.24621">
        <ele>1088.3</ele>
        <time>2021-08-14T14:57:45Z</time>
      </trkpt>
      <trkpt lat="46.71505" lon="6.24615">
        <ele>1088.6</ele>
        <time>2021-08-14T14:57:47Z</time>
      </trkpt>
      <trkpt lat="46.71501" lon="6.2461">
        <ele>1088.8</ele>
        <time>2021-08-14T14:57:48Z</time>
      </trkpt>
      <trkpt lat="46.71498" lon="6.24606">
        <ele>1089</ele>
        <time>2021-08-14T14:57:50Z</time>
      </trkpt>
      <trkpt lat="46.71493" lon="6.24603">
        <ele>1089.3</ele>
        <time>2021-08-14T14:57:52Z</time>
      </trkpt>
      <trkpt lat="46.71489" lon="6.24601">
        <ele>1089.6</ele>
        <time>2021-08-14T14:57:53Z</time>
      </trkpt>
      <trkpt lat="46.71486" lon="6.24598">
        <ele>1089.7</ele>
        <time>2021-08-14T14:57:55Z</time>
      </trkpt>
      <trkpt lat="46.71483" lon="6.24593">
        <ele>1089.9</ele>
        <time>2021-08-14T14:57:56Z</time>
      </trkpt>
      <trkpt lat="46.71481" lon="6.24589">
        <ele>1090</ele>
        <time>2021-08-14T14:57:57Z</time>
      </trkpt>
      <trkpt lat="46.7148" lon="6.24584">
        <ele>1090</ele>
        <time>2021-08-14T14:57:58Z</time>
      </trkpt>
      <trkpt lat="46.71478" lon="6.24578">
        <ele>1090</ele>
        <time>2021-08-14T14:58:00Z</time>
      </trkpt>
      <trkpt lat="46.71478" lon="6.24573">
        <ele>1090</ele>
        <time>2021-08-14T14:58:01Z</time>
      </trkpt>
      <trkpt lat="46.71477" lon="6.24567">
        <ele>1090</ele>
        <time>2021-08-14T14:58:03Z</time>
      </trkpt>
      <trkpt lat="46.71477" lon="6.24562">
        <ele>1089.9</ele>
        <time>2021-08-14T14:58:04Z</time>
      </trkpt>
      <trkpt lat="46.71475" lon="6.24554">
        <ele>1089.8</ele>
        <time>2021-08-14T14:58:06Z</time>
      </trkpt>
      <trkpt lat="46.7147" lon="6.24546">
        <ele>1089.7</ele>
        <time>2021-08-14T14:58:07Z</time>
      </trkpt>
      <trkpt lat="46.71463" lon="6.2454">
        <ele>1089.5</ele>
        <time>2021-08-14T14:58:09Z</time>
      </trkpt>
      <trkpt lat="46.71454" lon="6.24534">
        <ele>1089.4</ele>
        <time>2021-08-14T14:58:11Z</time>
      </trkpt>
      <trkpt lat="46.71444" lon="6.2453">
        <ele>1089.3</ele>
        <time>2021-08-14T14:58:12Z</time>
      </trkpt>
      <trkpt lat="46.71437" lon="6.24526">
        <ele>1089.2</ele>
        <time>2021-08-14T14:58:14Z</time>
      </trkpt>
      <trkpt lat="46.71436" lon="6.24522">
        <ele>1089.2</ele>
        <time>2021-08-14T14:58:15Z</time>
      </trkpt>
      <trkpt lat="46.71433" lon="6.24519">
        <ele>1089.2</ele>
        <time>2021-08-14T14:58:16Z</time>
      </trkpt>
      <trkpt lat="46.71429" lon="6.24516">
        <ele>1089.2</ele>
        <time>2021-08-14T14:58:17Z</time>
      </trkpt>
      <trkpt lat="46.71425" lon="6.24512">
        <ele>1089.3</ele>
        <time>2021-08-14T14:58:18Z</time>
      </trkpt>
      <trkpt lat="46.71421" lon="6.24508">
        <ele>1089.3</ele>
        <time>2021-08-14T14:58:20Z</time>
      </trkpt>
      <trkpt lat="46.71418" lon="6.24505">
        <ele>1089.3</ele>
        <time>2021-08-14T14:58:21Z</time>
      </trkpt>
      <trkpt lat="46.71414" lon="6.245">
        <ele>1089.4</ele>
        <time>2021-08-14T14:58:22Z</time>
      </trkpt>
      <trkpt lat="46.71411" lon="6.24492">
        <ele>1089.5</ele>
        <time>2021-08-14T14:58:23Z</time>
      </trkpt>
      <trkpt lat="46.71407" lon="6.24488">
        <ele>1089.5</ele>
        <time>2021-08-14T14:58:25Z</time>
      </trkpt>
      <trkpt lat="46.71403" lon="6.24484">
        <ele>1089.6</ele>
        <time>2021-08-14T14:58:26Z</time>
      </trkpt>
      <trkpt lat="46.714" lon="6.2448">
        <ele>1089.6</ele>
        <time>2021-08-14T14:58:28Z</time>
      </trkpt>
      <trkpt lat="46.71395" lon="6.24478">
        <ele>1089.7</ele>
        <time>2021-08-14T14:58:29Z</time>
      </trkpt>
      <trkpt lat="46.71392" lon="6.24475">
        <ele>1089.7</ele>
        <time>2021-08-14T14:58:31Z</time>
      </trkpt>
      <trkpt lat="46.71386" lon="6.24473">
        <ele>1089.7</ele>
        <time>2021-08-14T14:58:32Z</time>
      </trkpt>
      <trkpt lat="46.71382" lon="6.24474">
        <ele>1089.6</ele>
        <time>2021-08-14T14:58:34Z</time>
      </trkpt>
      <trkpt lat="46.71378" lon="6.24475">
        <ele>1089.6</ele>
        <time>2021-08-14T14:58:35Z</time>
      </trkpt>
      <trkpt lat="46.71373" lon="6.24476">
        <ele>1089.5</ele>
        <time>2021-08-14T14:58:36Z</time>
      </trkpt>
      <trkpt lat="46.71368" lon="6.24477">
        <ele>1089.4</ele>
        <time>2021-08-14T14:58:37Z</time>
      </trkpt>
      <trkpt lat="46.71363" lon="6.2448">
        <ele>1089.3</ele>
        <time>2021-08-14T14:58:39Z</time>
      </trkpt>
      <trkpt lat="46.71359" lon="6.24482">
        <ele>1089.2</ele>
        <time>2021-08-14T14:58:40Z</time>
      </trkpt>
      <trkpt lat="46.71355" lon="6.24483">
        <ele>1089.1</ele>
        <time>2021-08-14T14:58:41Z</time>
      </trkpt>
      <trkpt lat="46.71349" lon="6.24482">
        <ele>1088.9</ele>
        <time>2021-08-14T14:58:42Z</time>
      </trkpt>
      <trkpt lat="46.71346" lon="6.24481">
        <ele>1088.8</ele>
        <time>2021-08-14T14:58:43Z</time>
      </trkpt>
      <trkpt lat="46.71343" lon="6.24481">
        <ele>1088.6</ele>
        <time>2021-08-14T14:58:44Z</time>
      </trkpt>
      <trkpt lat="46.71339" lon="6.24482">
        <ele>1088.5</ele>
        <time>2021-08-14T14:58:46Z</time>
      </trkpt>
      <trkpt lat="46.71334" lon="6.24483">
        <ele>1088.2</ele>
        <time>2021-08-14T14:58:48Z</time>
      </trkpt>
      <trkpt lat="46.71329" lon="6.24484">
        <ele>1087.9</ele>
        <time>2021-08-14T14:58:49Z</time>
      </trkpt>
      <trkpt lat="46.71325" lon="6.24485">
        <ele>1087.9</ele>
        <time>2021-08-14T14:58:50Z</time>
      </trkpt>
      <trkpt lat="46.71315" lon="6.24486">
        <ele>1087</ele>
        <time>2021-08-14T14:58:51Z</time>
      </trkpt>
      <trkpt lat="46.71309" lon="6.24485">
        <ele>1086.3</ele>
        <time>2021-08-14T14:58:52Z</time>
      </trkpt>
      <trkpt lat="46.71301" lon="6.24483">
        <ele>1085.5</ele>
        <time>2021-08-14T14:58:54Z</time>
      </trkpt>
      <trkpt lat="46.71296" lon="6.24482">
        <ele>1085</ele>
        <time>2021-08-14T14:58:55Z</time>
      </trkpt>
      <trkpt lat="46.71289" lon="6.24477">
        <ele>1084.5</ele>
        <time>2021-08-14T14:58:56Z</time>
      </trkpt>
      <trkpt lat="46.71284" lon="6.24473">
        <ele>1084.4</ele>
        <time>2021-08-14T14:58:58Z</time>
      </trkpt>
      <trkpt lat="46.71279" lon="6.24467">
        <ele>1084.5</ele>
        <time>2021-08-14T14:58:59Z</time>
      </trkpt>
      <trkpt lat="46.71276" lon="6.24461">
        <ele>1084.9</ele>
        <time>2021-08-14T14:59:00Z</time>
      </trkpt>
      <trkpt lat="46.71273" lon="6.24454">
        <ele>1085.4</ele>
        <time>2021-08-14T14:59:01Z</time>
      </trkpt>
      <trkpt lat="46.71272" lon="6.24449">
        <ele>1085.8</ele>
        <time>2021-08-14T14:59:03Z</time>
      </trkpt>
      <trkpt lat="46.71273" lon="6.24444">
        <ele>1086.2</ele>
        <time>2021-08-14T14:59:04Z</time>
      </trkpt>
      <trkpt lat="46.71275" lon="6.24438">
        <ele>1086.8</ele>
        <time>2021-08-14T14:59:06Z</time>
      </trkpt>
      <trkpt lat="46.71276" lon="6.24434">
        <ele>1087.2</ele>
        <time>2021-08-14T14:59:07Z</time>
      </trkpt>
      <trkpt lat="46.71276" lon="6.24433">
        <ele>1087.3</ele>
        <time>2021-08-14T14:59:09Z</time>
      </trkpt>
      <trkpt lat="46.71276" lon="6.24433">
        <ele>1087.3</ele>
        <time>2021-08-14T14:59:10Z</time>
      </trkpt>
      <trkpt lat="46.71276" lon="6.2443">
        <ele>1087.5</ele>
        <time>2021-08-14T14:59:11Z</time>
      </trkpt>
      <trkpt lat="46.71275" lon="6.24427">
        <ele>1087.8</ele>
        <time>2021-08-14T14:59:13Z</time>
      </trkpt>
      <trkpt lat="46.7126" lon="6.24383">
        <ele>1090.2</ele>
        <time>2021-08-14T14:59:40Z</time>
      </trkpt>
      <trkpt lat="46.71261" lon="6.24375">
        <ele>1090.6</ele>
        <time>2021-08-14T14:59:42Z</time>
      </trkpt>
      <trkpt lat="46.71261" lon="6.24365">
        <ele>1091</ele>
        <time>2021-08-14T14:59:43Z</time>
      </trkpt>
      <trkpt lat="46.71262" lon="6.24358">
        <ele>1091.3</ele>
        <time>2021-08-14T14:59:45Z</time>
      </trkpt>
      <trkpt lat="46.71263" lon="6.24348">
        <ele>1091.7</ele>
        <time>2021-08-14T14:59:47Z</time>
      </trkpt>
      <trkpt lat="46.71264" lon="6.24343">
        <ele>1091.9</ele>
        <time>2021-08-14T14:59:48Z</time>
      </trkpt>
      <trkpt lat="46.71265" lon="6.24339">
        <ele>1092</ele>
        <time>2021-08-14T14:59:49Z</time>
      </trkpt>
      <trkpt lat="46.71266" lon="6.24333">
        <ele>1092.2</ele>
        <time>2021-08-14T14:59:50Z</time>
      </trkpt>
      <trkpt lat="46.71266" lon="6.24325">
        <ele>1092.3</ele>
        <time>2021-08-14T14:59:51Z</time>
      </trkpt>
      <trkpt lat="46.71265" lon="6.24318">
        <ele>1092.4</ele>
        <time>2021-08-14T14:59:53Z</time>
      </trkpt>
      <trkpt lat="46.71263" lon="6.24315">
        <ele>1092.5</ele>
        <time>2021-08-14T14:59:54Z</time>
      </trkpt>
      <trkpt lat="46.7126" lon="6.24313">
        <ele>1092.6</ele>
        <time>2021-08-14T14:59:55Z</time>
      </trkpt>
      <trkpt lat="46.71257" lon="6.24313">
        <ele>1092.7</ele>
        <time>2021-08-14T14:59:57Z</time>
      </trkpt>
      <trkpt lat="46.71255" lon="6.24313">
        <ele>1092.7</ele>
        <time>2021-08-14T14:59:59Z</time>
      </trkpt>
      <trkpt lat="46.71254" lon="6.24312">
        <ele>1092.7</ele>
        <time>2021-08-14T15:00:00Z</time>
      </trkpt>
      <trkpt lat="46.71254" lon="6.24311">
        <ele>1092.7</ele>
        <time>2021-08-14T15:00:01Z</time>
      </trkpt>
      <trkpt lat="46.71254" lon="6.24311">
        <ele>1092.8</ele>
        <time>2021-08-14T15:00:03Z</time>
      </trkpt>
      <trkpt lat="46.71253" lon="6.2431">
        <ele>1092.8</ele>
        <time>2021-08-14T15:00:05Z</time>
      </trkpt>
      <trkpt lat="46.71237" lon="6.24266">
        <ele>1093.9</ele>
        <time>2021-08-14T15:00:35Z</time>
      </trkpt>
      <trkpt lat="46.71236" lon="6.24261">
        <ele>1094.1</ele>
        <time>2021-08-14T15:00:36Z</time>
      </trkpt>
      <trkpt lat="46.71234" lon="6.24253">
        <ele>1094.4</ele>
        <time>2021-08-14T15:00:37Z</time>
      </trkpt>
      <trkpt lat="46.71231" lon="6.24244">
        <ele>1094.7</ele>
        <time>2021-08-14T15:00:39Z</time>
      </trkpt>
      <trkpt lat="46.71228" lon="6.24237">
        <ele>1094.9</ele>
        <time>2021-08-14T15:00:40Z</time>
      </trkpt>
      <trkpt lat="46.71226" lon="6.24229">
        <ele>1095.2</ele>
        <time>2021-08-14T15:00:41Z</time>
      </trkpt>
      <trkpt lat="46.71225" lon="6.24224">
        <ele>1095.4</ele>
        <time>2021-08-14T15:00:42Z</time>
      </trkpt>
      <trkpt lat="46.71224" lon="6.24219">
        <ele>1095.6</ele>
        <time>2021-08-14T15:00:44Z</time>
      </trkpt>
      <trkpt lat="46.71223" lon="6.24214">
        <ele>1095.7</ele>
        <time>2021-08-14T15:00:45Z</time>
      </trkpt>
      <trkpt lat="46.71222" lon="6.24209">
        <ele>1096</ele>
        <time>2021-08-14T15:00:47Z</time>
      </trkpt>
      <trkpt lat="46.71222" lon="6.24204">
        <ele>1096.1</ele>
        <time>2021-08-14T15:00:48Z</time>
      </trkpt>
      <trkpt lat="46.71221" lon="6.24203">
        <ele>1096.2</ele>
        <time>2021-08-14T15:00:49Z</time>
      </trkpt>
      <trkpt lat="46.71221" lon="6.24201">
        <ele>1096.3</ele>
        <time>2021-08-14T15:00:50Z</time>
      </trkpt>
      <trkpt lat="46.71221" lon="6.24197">
        <ele>1096.4</ele>
        <time>2021-08-14T15:00:52Z</time>
      </trkpt>
      <trkpt lat="46.71219" lon="6.24191">
        <ele>1096.6</ele>
        <time>2021-08-14T15:00:54Z</time>
      </trkpt>
      <trkpt lat="46.71216" lon="6.24185">
        <ele>1096.8</ele>
        <time>2021-08-14T15:00:55Z</time>
      </trkpt>
      <trkpt lat="46.71215" lon="6.24182">
        <ele>1096.9</ele>
        <time>2021-08-14T15:00:56Z</time>
      </trkpt>
      <trkpt lat="46.71214" lon="6.24178">
        <ele>1097</ele>
        <time>2021-08-14T15:00:57Z</time>
      </trkpt>
      <trkpt lat="46.71213" lon="6.24174">
        <ele>1097.1</ele>
        <time>2021-08-14T15:00:58Z</time>
      </trkpt>
      <trkpt lat="46.71218" lon="6.24175">
        <ele>1097.3</ele>
        <time>2021-08-14T15:01:00Z</time>
      </trkpt>
      <trkpt lat="46.7122" lon="6.24175">
        <ele>1097.3</ele>
        <time>2021-08-14T15:01:01Z</time>
      </trkpt>
      <trkpt lat="46.71221" lon="6.24173">
        <ele>1097.4</ele>
        <time>2021-08-14T15:01:03Z</time>
      </trkpt>
      <trkpt lat="46.71221" lon="6.2417">
        <ele>1097.4</ele>
        <time>2021-08-14T15:01:04Z</time>
      </trkpt>
      <trkpt lat="46.71222" lon="6.24166">
        <ele>1097.5</ele>
        <time>2021-08-14T15:01:05Z</time>
      </trkpt>
      <trkpt lat="46.71223" lon="6.24163">
        <ele>1097.5</ele>
        <time>2021-08-14T15:01:07Z</time>
      </trkpt>
      <trkpt lat="46.71224" lon="6.24161">
        <ele>1097.5</ele>
        <time>2021-08-14T15:01:08Z</time>
      </trkpt>
      <trkpt lat="46.71227" lon="6.24146">
        <ele>1097.7</ele>
        <time>2021-08-14T15:01:16Z</time>
      </trkpt>
      <trkpt lat="46.71227" lon="6.24139">
        <ele>1097.7</ele>
        <time>2021-08-14T15:01:17Z</time>
      </trkpt>
      <trkpt lat="46.71225" lon="6.24131">
        <ele>1097.8</ele>
        <time>2021-08-14T15:01:19Z</time>
      </trkpt>
      <trkpt lat="46.71221" lon="6.24126">
        <ele>1097.8</ele>
        <time>2021-08-14T15:01:20Z</time>
      </trkpt>
      <trkpt lat="46.71218" lon="6.24123">
        <ele>1097.8</ele>
        <time>2021-08-14T15:01:21Z</time>
      </trkpt>
      <trkpt lat="46.71214" lon="6.24119">
        <ele>1097.7</ele>
        <time>2021-08-14T15:01:22Z</time>
      </trkpt>
      <trkpt lat="46.71209" lon="6.24114">
        <ele>1097.7</ele>
        <time>2021-08-14T15:01:24Z</time>
      </trkpt>
      <trkpt lat="46.71205" lon="6.24111">
        <ele>1097.6</ele>
        <time>2021-08-14T15:01:25Z</time>
      </trkpt>
      <trkpt lat="46.71199" lon="6.24108">
        <ele>1097.6</ele>
        <time>2021-08-14T15:01:26Z</time>
      </trkpt>
      <trkpt lat="46.7119" lon="6.24104">
        <ele>1097.5</ele>
        <time>2021-08-14T15:01:27Z</time>
      </trkpt>
      <trkpt lat="46.71182" lon="6.24102">
        <ele>1097.4</ele>
        <time>2021-08-14T15:01:29Z</time>
      </trkpt>
      <trkpt lat="46.71179" lon="6.24101">
        <ele>1097.4</ele>
        <time>2021-08-14T15:01:30Z</time>
      </trkpt>
      <trkpt lat="46.71171" lon="6.24096">
        <ele>1097.3</ele>
        <time>2021-08-14T15:01:31Z</time>
      </trkpt>
      <trkpt lat="46.71161" lon="6.24087">
        <ele>1097.2</ele>
        <time>2021-08-14T15:01:34Z</time>
      </trkpt>
      <trkpt lat="46.71157" lon="6.24082">
        <ele>1097.1</ele>
        <time>2021-08-14T15:01:35Z</time>
      </trkpt>
      <trkpt lat="46.71149" lon="6.24074">
        <ele>1096.7</ele>
        <time>2021-08-14T15:01:36Z</time>
      </trkpt>
      <trkpt lat="46.71137" lon="6.24054">
        <ele>1095.4</ele>
        <time>2021-08-14T15:01:38Z</time>
      </trkpt>
      <trkpt lat="46.71128" lon="6.24038">
        <ele>1094.2</ele>
        <time>2021-08-14T15:01:40Z</time>
      </trkpt>
      <trkpt lat="46.71119" lon="6.24027">
        <ele>1093.6</ele>
        <time>2021-08-14T15:01:42Z</time>
      </trkpt>
      <trkpt lat="46.71117" lon="6.24021">
        <ele>1093.5</ele>
        <time>2021-08-14T15:01:43Z</time>
      </trkpt>
      <trkpt lat="46.71113" lon="6.24014">
        <ele>1093.4</ele>
        <time>2021-08-14T15:01:45Z</time>
      </trkpt>
      <trkpt lat="46.71111" lon="6.24001">
        <ele>1093.3</ele>
        <time>2021-08-14T15:01:46Z</time>
      </trkpt>
      <trkpt lat="46.7111" lon="6.23991">
        <ele>1093.2</ele>
        <time>2021-08-14T15:01:47Z</time>
      </trkpt>
      <trkpt lat="46.71109" lon="6.23984">
        <ele>1093.2</ele>
        <time>2021-08-14T15:01:48Z</time>
      </trkpt>
      <trkpt lat="46.71107" lon="6.23978">
        <ele>1092.8</ele>
        <time>2021-08-14T15:01:49Z</time>
      </trkpt>
      <trkpt lat="46.71112" lon="6.23956">
        <ele>1091.3</ele>
        <time>2021-08-14T15:01:51Z</time>
      </trkpt>
      <trkpt lat="46.71118" lon="6.23935">
        <ele>1090.1</ele>
        <time>2021-08-14T15:01:53Z</time>
      </trkpt>
      <trkpt lat="46.71122" lon="6.23924">
        <ele>1089.5</ele>
        <time>2021-08-14T15:01:54Z</time>
      </trkpt>
      <trkpt lat="46.71128" lon="6.23898">
        <ele>1088.3</ele>
        <time>2021-08-14T15:01:56Z</time>
      </trkpt>
      <trkpt lat="46.71134" lon="6.23868">
        <ele>1086.9</ele>
        <time>2021-08-14T15:01:58Z</time>
      </trkpt>
      <trkpt lat="46.71137" lon="6.23845">
        <ele>1085.5</ele>
        <time>2021-08-14T15:02:00Z</time>
      </trkpt>
      <trkpt lat="46.71142" lon="6.23824">
        <ele>1084.1</ele>
        <time>2021-08-14T15:02:02Z</time>
      </trkpt>
      <trkpt lat="46.71145" lon="6.23803">
        <ele>1082.7</ele>
        <time>2021-08-14T15:02:04Z</time>
      </trkpt>
      <trkpt lat="46.71147" lon="6.23798">
        <ele>1082.3</ele>
        <time>2021-08-14T15:02:05Z</time>
      </trkpt>
      <trkpt lat="46.71157" lon="6.23767">
        <ele>1080.1</ele>
        <time>2021-08-14T15:02:07Z</time>
      </trkpt>
      <trkpt lat="46.71163" lon="6.23753">
        <ele>1079.2</ele>
        <time>2021-08-14T15:02:08Z</time>
      </trkpt>
      <trkpt lat="46.7117" lon="6.23731">
        <ele>1077.8</ele>
        <time>2021-08-14T15:02:10Z</time>
      </trkpt>
      <trkpt lat="46.71173" lon="6.2372">
        <ele>1077.1</ele>
        <time>2021-08-14T15:02:11Z</time>
      </trkpt>
      <trkpt lat="46.71178" lon="6.23698">
        <ele>1075.7</ele>
        <time>2021-08-14T15:02:13Z</time>
      </trkpt>
      <trkpt lat="46.7118" lon="6.23686">
        <ele>1074.9</ele>
        <time>2021-08-14T15:02:14Z</time>
      </trkpt>
      <trkpt lat="46.71171" lon="6.23654">
        <ele>1072.6</ele>
        <time>2021-08-14T15:02:16Z</time>
      </trkpt>
      <trkpt lat="46.71162" lon="6.23622">
        <ele>1070.5</ele>
        <time>2021-08-14T15:02:18Z</time>
      </trkpt>
      <trkpt lat="46.71153" lon="6.23592">
        <ele>1068.6</ele>
        <time>2021-08-14T15:02:20Z</time>
      </trkpt>
      <trkpt lat="46.71146" lon="6.23562">
        <ele>1066.6</ele>
        <time>2021-08-14T15:02:22Z</time>
      </trkpt>
      <trkpt lat="46.71137" lon="6.23533">
        <ele>1064.6</ele>
        <time>2021-08-14T15:02:24Z</time>
      </trkpt>
      <trkpt lat="46.71133" lon="6.23517">
        <ele>1063.5</ele>
        <time>2021-08-14T15:02:25Z</time>
      </trkpt>
      <trkpt lat="46.71128" lon="6.23499">
        <ele>1062.4</ele>
        <time>2021-08-14T15:02:26Z</time>
      </trkpt>
      <trkpt lat="46.71118" lon="6.23467">
        <ele>1060.4</ele>
        <time>2021-08-14T15:02:28Z</time>
      </trkpt>
      <trkpt lat="46.71112" lon="6.23452">
        <ele>1059.4</ele>
        <time>2021-08-14T15:02:29Z</time>
      </trkpt>
      <trkpt lat="46.71099" lon="6.23423">
        <ele>1057.4</ele>
        <time>2021-08-14T15:02:31Z</time>
      </trkpt>
      <trkpt lat="46.71093" lon="6.23408">
        <ele>1056.3</ele>
        <time>2021-08-14T15:02:32Z</time>
      </trkpt>
      <trkpt lat="46.71081" lon="6.23379">
        <ele>1054</ele>
        <time>2021-08-14T15:02:34Z</time>
      </trkpt>
      <trkpt lat="46.71071" lon="6.23348">
        <ele>1051.8</ele>
        <time>2021-08-14T15:02:36Z</time>
      </trkpt>
      <trkpt lat="46.71063" lon="6.23315">
        <ele>1049.6</ele>
        <time>2021-08-14T15:02:38Z</time>
      </trkpt>
      <trkpt lat="46.71059" lon="6.23299">
        <ele>1048.6</ele>
        <time>2021-08-14T15:02:39Z</time>
      </trkpt>
      <trkpt lat="46.71061" lon="6.23262">
        <ele>1046.2</ele>
        <time>2021-08-14T15:02:41Z</time>
      </trkpt>
      <trkpt lat="46.71063" lon="6.23245">
        <ele>1045.2</ele>
        <time>2021-08-14T15:02:42Z</time>
      </trkpt>
      <trkpt lat="46.71064" lon="6.2323">
        <ele>1044.3</ele>
        <time>2021-08-14T15:02:43Z</time>
      </trkpt>
      <trkpt lat="46.71067" lon="6.23203">
        <ele>1042.5</ele>
        <time>2021-08-14T15:02:45Z</time>
      </trkpt>
      <trkpt lat="46.7107" lon="6.23178">
        <ele>1040.9</ele>
        <time>2021-08-14T15:02:47Z</time>
      </trkpt>
      <trkpt lat="46.71071" lon="6.23168">
        <ele>1040.4</ele>
        <time>2021-08-14T15:02:48Z</time>
      </trkpt>
      <trkpt lat="46.71076" lon="6.23161">
        <ele>1039.8</ele>
        <time>2021-08-14T15:02:50Z</time>
      </trkpt>
      <trkpt lat="46.71082" lon="6.23153">
        <ele>1039.2</ele>
        <time>2021-08-14T15:02:52Z</time>
      </trkpt>
      <trkpt lat="46.71085" lon="6.23147">
        <ele>1038.7</ele>
        <time>2021-08-14T15:02:53Z</time>
      </trkpt>
      <trkpt lat="46.7109" lon="6.23139">
        <ele>1038.2</ele>
        <time>2021-08-14T15:02:54Z</time>
      </trkpt>
      <trkpt lat="46.71107" lon="6.23114">
        <ele>1036.2</ele>
        <time>2021-08-14T15:02:56Z</time>
      </trkpt>
      <trkpt lat="46.7112" lon="6.23096">
        <ele>1034.7</ele>
        <time>2021-08-14T15:02:58Z</time>
      </trkpt>
      <trkpt lat="46.71125" lon="6.23087">
        <ele>1034.1</ele>
        <time>2021-08-14T15:02:59Z</time>
      </trkpt>
      <trkpt lat="46.71134" lon="6.23082">
        <ele>1033.3</ele>
        <time>2021-08-14T15:03:00Z</time>
      </trkpt>
      <trkpt lat="46.71143" lon="6.23077">
        <ele>1032.6</ele>
        <time>2021-08-14T15:03:02Z</time>
      </trkpt>
      <trkpt lat="46.7115" lon="6.2306">
        <ele>1031.5</ele>
        <time>2021-08-14T15:03:04Z</time>
      </trkpt>
      <trkpt lat="46.71153" lon="6.2305">
        <ele>1030.9</ele>
        <time>2021-08-14T15:03:05Z</time>
      </trkpt>
      <trkpt lat="46.71157" lon="6.23036">
        <ele>1030.1</ele>
        <time>2021-08-14T15:03:06Z</time>
      </trkpt>
      <trkpt lat="46.71168" lon="6.23006">
        <ele>1028.3</ele>
        <time>2021-08-14T15:03:08Z</time>
      </trkpt>
      <trkpt lat="46.71177" lon="6.22977">
        <ele>1026.6</ele>
        <time>2021-08-14T15:03:10Z</time>
      </trkpt>
      <trkpt lat="46.71178" lon="6.22963">
        <ele>1025.9</ele>
        <time>2021-08-14T15:03:11Z</time>
      </trkpt>
      <trkpt lat="46.71176" lon="6.22948">
        <ele>1025.1</ele>
        <time>2021-08-14T15:03:12Z</time>
      </trkpt>
      <trkpt lat="46.71163" lon="6.2292">
        <ele>1023.2</ele>
        <time>2021-08-14T15:03:14Z</time>
      </trkpt>
      <trkpt lat="46.71157" lon="6.22906">
        <ele>1022.3</ele>
        <time>2021-08-14T15:03:15Z</time>
      </trkpt>
      <trkpt lat="46.71152" lon="6.22885">
        <ele>1021</ele>
        <time>2021-08-14T15:03:17Z</time>
      </trkpt>
      <trkpt lat="46.71149" lon="6.22878">
        <ele>1020.6</ele>
        <time>2021-08-14T15:03:18Z</time>
      </trkpt>
      <trkpt lat="46.71141" lon="6.22869">
        <ele>1019.8</ele>
        <time>2021-08-14T15:03:20Z</time>
      </trkpt>
      <trkpt lat="46.71133" lon="6.22861">
        <ele>1019</ele>
        <time>2021-08-14T15:03:21Z</time>
      </trkpt>
      <trkpt lat="46.71119" lon="6.22849">
        <ele>1018.6</ele>
        <time>2021-08-14T15:03:23Z</time>
      </trkpt>
      <trkpt lat="46.71107" lon="6.22833">
        <ele>1017.3</ele>
        <time>2021-08-14T15:03:25Z</time>
      </trkpt>
      <trkpt lat="46.71104" lon="6.22826">
        <ele>1017</ele>
        <time>2021-08-14T15:03:26Z</time>
      </trkpt>
      <trkpt lat="46.711" lon="6.2281">
        <ele>1016.2</ele>
        <time>2021-08-14T15:03:28Z</time>
      </trkpt>
      <trkpt lat="46.71095" lon="6.22794">
        <ele>1015.7</ele>
        <time>2021-08-14T15:03:30Z</time>
      </trkpt>
      <trkpt lat="46.71087" lon="6.22776">
        <ele>1015.2</ele>
        <time>2021-08-14T15:03:32Z</time>
      </trkpt>
      <trkpt lat="46.71076" lon="6.22755">
        <ele>1014.7</ele>
        <time>2021-08-14T15:03:34Z</time>
      </trkpt>
      <trkpt lat="46.7107" lon="6.22744">
        <ele>1014.4</ele>
        <time>2021-08-14T15:03:35Z</time>
      </trkpt>
      <trkpt lat="46.71064" lon="6.22734">
        <ele>1014.2</ele>
        <time>2021-08-14T15:03:36Z</time>
      </trkpt>
      <trkpt lat="46.71055" lon="6.22717">
        <ele>1013.7</ele>
        <time>2021-08-14T15:03:38Z</time>
      </trkpt>
      <trkpt lat="46.71049" lon="6.22709">
        <ele>1013.4</ele>
        <time>2021-08-14T15:03:39Z</time>
      </trkpt>
      <trkpt lat="46.71041" lon="6.22692">
        <ele>1012.9</ele>
        <time>2021-08-14T15:03:41Z</time>
      </trkpt>
      <trkpt lat="46.71038" lon="6.22684">
        <ele>1012.6</ele>
        <time>2021-08-14T15:03:42Z</time>
      </trkpt>
      <trkpt lat="46.71036" lon="6.22675">
        <ele>1012.3</ele>
        <time>2021-08-14T15:03:43Z</time>
      </trkpt>
      <trkpt lat="46.71033" lon="6.22656">
        <ele>1011.8</ele>
        <time>2021-08-14T15:03:45Z</time>
      </trkpt>
      <trkpt lat="46.71033" lon="6.22645">
        <ele>1011.6</ele>
        <time>2021-08-14T15:03:46Z</time>
      </trkpt>
      <trkpt lat="46.71033" lon="6.22636">
        <ele>1011.4</ele>
        <time>2021-08-14T15:03:47Z</time>
      </trkpt>
      <trkpt lat="46.71032" lon="6.22631">
        <ele>1011.3</ele>
        <time>2021-08-14T15:03:48Z</time>
      </trkpt>
      <trkpt lat="46.71029" lon="6.2262">
        <ele>1011.1</ele>
        <time>2021-08-14T15:03:49Z</time>
      </trkpt>
      <trkpt lat="46.71027" lon="6.22609">
        <ele>1010.9</ele>
        <time>2021-08-14T15:03:50Z</time>
      </trkpt>
      <trkpt lat="46.71024" lon="6.2259">
        <ele>1010.7</ele>
        <time>2021-08-14T15:03:52Z</time>
      </trkpt>
      <trkpt lat="46.71019" lon="6.22576">
        <ele>1010.6</ele>
        <time>2021-08-14T15:03:54Z</time>
      </trkpt>
      <trkpt lat="46.71012" lon="6.22568">
        <ele>1010.6</ele>
        <time>2021-08-14T15:03:56Z</time>
      </trkpt>
      <trkpt lat="46.71003" lon="6.22559">
        <ele>1010.8</ele>
        <time>2021-08-14T15:03:58Z</time>
      </trkpt>
      <trkpt lat="46.70999" lon="6.22555">
        <ele>1011.1</ele>
        <time>2021-08-14T15:03:59Z</time>
      </trkpt>
      <trkpt lat="46.70995" lon="6.22552">
        <ele>1011.3</ele>
        <time>2021-08-14T15:04:00Z</time>
      </trkpt>
      <trkpt lat="46.70989" lon="6.22545">
        <ele>1011.8</ele>
        <time>2021-08-14T15:04:02Z</time>
      </trkpt>
      <trkpt lat="46.70987" lon="6.22543">
        <ele>1012.1</ele>
        <time>2021-08-14T15:04:03Z</time>
      </trkpt>
      <trkpt lat="46.70986" lon="6.22545">
        <ele>1012.1</ele>
        <time>2021-08-14T15:04:05Z</time>
      </trkpt>
      <trkpt lat="46.70987" lon="6.22541">
        <ele>1012.4</ele>
        <time>2021-08-14T15:04:07Z</time>
      </trkpt>
      <trkpt lat="46.70987" lon="6.22539">
        <ele>1012.5</ele>
        <time>2021-08-14T15:04:08Z</time>
      </trkpt>
      <trkpt lat="46.70988" lon="6.22536">
        <ele>1012.6</ele>
        <time>2021-08-14T15:04:09Z</time>
      </trkpt>
      <trkpt lat="46.70991" lon="6.2253">
        <ele>1013</ele>
        <time>2021-08-14T15:04:11Z</time>
      </trkpt>
      <trkpt lat="46.70991" lon="6.22527">
        <ele>1013.2</ele>
        <time>2021-08-14T15:04:12Z</time>
      </trkpt>
      <trkpt lat="46.7099" lon="6.22522">
        <ele>1013.5</ele>
        <time>2021-08-14T15:04:14Z</time>
      </trkpt>
      <trkpt lat="46.70954" lon="6.22332">
        <ele>1015.5</ele>
        <time>2021-08-14T15:05:08Z</time>
      </trkpt>
      <trkpt lat="46.70953" lon="6.22317">
        <ele>1014.8</ele>
        <time>2021-08-14T15:05:09Z</time>
      </trkpt>
      <trkpt lat="46.70956" lon="6.22292">
        <ele>1013.6</ele>
        <time>2021-08-14T15:05:11Z</time>
      </trkpt>
      <trkpt lat="46.70957" lon="6.22273">
        <ele>1012.8</ele>
        <time>2021-08-14T15:05:13Z</time>
      </trkpt>
      <trkpt lat="46.70958" lon="6.22253">
        <ele>1012.2</ele>
        <time>2021-08-14T15:05:15Z</time>
      </trkpt>
      <trkpt lat="46.7096" lon="6.2223">
        <ele>1011.3</ele>
        <time>2021-08-14T15:05:17Z</time>
      </trkpt>
      <trkpt lat="46.70958" lon="6.22219">
        <ele>1010.6</ele>
        <time>2021-08-14T15:05:18Z</time>
      </trkpt>
      <trkpt lat="46.70957" lon="6.22198">
        <ele>1009.2</ele>
        <time>2021-08-14T15:05:20Z</time>
      </trkpt>
      <trkpt lat="46.70956" lon="6.22187">
        <ele>1008.4</ele>
        <time>2021-08-14T15:05:21Z</time>
      </trkpt>
      <trkpt lat="46.70952" lon="6.22164">
        <ele>1006.8</ele>
        <time>2021-08-14T15:05:23Z</time>
      </trkpt>
      <trkpt lat="46.70948" lon="6.22155">
        <ele>1006.1</ele>
        <time>2021-08-14T15:05:24Z</time>
      </trkpt>
      <trkpt lat="46.70932" lon="6.22133">
        <ele>1004.1</ele>
        <time>2021-08-14T15:05:26Z</time>
      </trkpt>
      <trkpt lat="46.70926" lon="6.22119">
        <ele>1003</ele>
        <time>2021-08-14T15:05:27Z</time>
      </trkpt>
      <trkpt lat="46.70922" lon="6.22103">
        <ele>1001.7</ele>
        <time>2021-08-14T15:05:28Z</time>
      </trkpt>
      <trkpt lat="46.70916" lon="6.22077">
        <ele>999.7</ele>
        <time>2021-08-14T15:05:30Z</time>
      </trkpt>
      <trkpt lat="46.70909" lon="6.22053">
        <ele>998.8</ele>
        <time>2021-08-14T15:05:32Z</time>
      </trkpt>
      <trkpt lat="46.70902" lon="6.22035">
        <ele>998.7</ele>
        <time>2021-08-14T15:05:34Z</time>
      </trkpt>
      <trkpt lat="46.70895" lon="6.22018">
        <ele>998.9</ele>
        <time>2021-08-14T15:05:36Z</time>
      </trkpt>
      <trkpt lat="46.7089" lon="6.22004">
        <ele>999</ele>
        <time>2021-08-14T15:05:38Z</time>
      </trkpt>
      <trkpt lat="46.70887" lon="6.21995">
        <ele>999.1</ele>
        <time>2021-08-14T15:05:39Z</time>
      </trkpt>
      <trkpt lat="46.70886" lon="6.21987">
        <ele>999.2</ele>
        <time>2021-08-14T15:05:40Z</time>
      </trkpt>
      <trkpt lat="46.70885" lon="6.2198">
        <ele>999.2</ele>
        <time>2021-08-14T15:05:41Z</time>
      </trkpt>
      <trkpt lat="46.70886" lon="6.21971">
        <ele>999.2</ele>
        <time>2021-08-14T15:05:43Z</time>
      </trkpt>
      <trkpt lat="46.70891" lon="6.21958">
        <ele>999.1</ele>
        <time>2021-08-14T15:05:45Z</time>
      </trkpt>
      <trkpt lat="46.7089" lon="6.21952">
        <ele>999.1</ele>
        <time>2021-08-14T15:05:46Z</time>
      </trkpt>
      <trkpt lat="46.70885" lon="6.21941">
        <ele>999</ele>
        <time>2021-08-14T15:05:48Z</time>
      </trkpt>
      <trkpt lat="46.70884" lon="6.21931">
        <ele>999</ele>
        <time>2021-08-14T15:05:50Z</time>
      </trkpt>
      <trkpt lat="46.70884" lon="6.21924">
        <ele>999</ele>
        <time>2021-08-14T15:05:51Z</time>
      </trkpt>
      <trkpt lat="46.70885" lon="6.21913">
        <ele>999.1</ele>
        <time>2021-08-14T15:05:52Z</time>
      </trkpt>
      <trkpt lat="46.7089" lon="6.21897">
        <ele>999.1</ele>
        <time>2021-08-14T15:05:54Z</time>
      </trkpt>
      <trkpt lat="46.70891" lon="6.21889">
        <ele>999.2</ele>
        <time>2021-08-14T15:05:55Z</time>
      </trkpt>
      <trkpt lat="46.70892" lon="6.21881">
        <ele>999.3</ele>
        <time>2021-08-14T15:05:57Z</time>
      </trkpt>
      <trkpt lat="46.70889" lon="6.21873">
        <ele>999.4</ele>
        <time>2021-08-14T15:05:59Z</time>
      </trkpt>
      <trkpt lat="46.70887" lon="6.21871">
        <ele>999.4</ele>
        <time>2021-08-14T15:06:00Z</time>
      </trkpt>
      <trkpt lat="46.70884" lon="6.21867">
        <ele>999.5</ele>
        <time>2021-08-14T15:06:01Z</time>
      </trkpt>
      <trkpt lat="46.7088" lon="6.2186">
        <ele>999.5</ele>
        <time>2021-08-14T15:06:03Z</time>
      </trkpt>
      <trkpt lat="46.70879" lon="6.21856">
        <ele>999.5</ele>
        <time>2021-08-14T15:06:04Z</time>
      </trkpt>
      <trkpt lat="46.70879" lon="6.2185">
        <ele>999.5</ele>
        <time>2021-08-14T15:06:06Z</time>
      </trkpt>
      <trkpt lat="46.70873" lon="6.21826">
        <ele>999.1</ele>
        <time>2021-08-14T15:06:07Z</time>
      </trkpt>
      <trkpt lat="46.70873" lon="6.21826">
        <ele>999.1</ele>
        <time>2021-08-14T15:06:07Z</time>
      </trkpt>
      <trkpt lat="46.70866" lon="6.21808">
        <ele>998.3</ele>
        <time>2021-08-14T15:06:09Z</time>
      </trkpt>
      <trkpt lat="46.70867" lon="6.21803">
        <ele>998.1</ele>
        <time>2021-08-14T15:06:10Z</time>
      </trkpt>
      <trkpt lat="46.70866" lon="6.218">
        <ele>998</ele>
        <time>2021-08-14T15:06:11Z</time>
      </trkpt>
      <trkpt lat="46.70863" lon="6.21793">
        <ele>997.7</ele>
        <time>2021-08-14T15:06:12Z</time>
      </trkpt>
      <trkpt lat="46.7086" lon="6.21787">
        <ele>997.5</ele>
        <time>2021-08-14T15:06:13Z</time>
      </trkpt>
      <trkpt lat="46.70853" lon="6.2178">
        <ele>997.1</ele>
        <time>2021-08-14T15:06:15Z</time>
      </trkpt>
      <trkpt lat="46.70848" lon="6.21776">
        <ele>996.9</ele>
        <time>2021-08-14T15:06:16Z</time>
      </trkpt>
      <trkpt lat="46.70842" lon="6.21772">
        <ele>996.3</ele>
        <time>2021-08-14T15:06:17Z</time>
      </trkpt>
      <trkpt lat="46.70839" lon="6.21768">
        <ele>995.9</ele>
        <time>2021-08-14T15:06:19Z</time>
      </trkpt>
      <trkpt lat="46.70838" lon="6.21767">
        <ele>995.7</ele>
        <time>2021-08-14T15:06:20Z</time>
      </trkpt>
      <trkpt lat="46.70835" lon="6.21765">
        <ele>995.2</ele>
        <time>2021-08-14T15:06:21Z</time>
      </trkpt>
      <trkpt lat="46.70833" lon="6.21762">
        <ele>994.7</ele>
        <time>2021-08-14T15:06:22Z</time>
      </trkpt>
      <trkpt lat="46.70832" lon="6.21759">
        <ele>994.3</ele>
        <time>2021-08-14T15:06:23Z</time>
      </trkpt>
      <trkpt lat="46.70828" lon="6.21753">
        <ele>993.4</ele>
        <time>2021-08-14T15:06:25Z</time>
      </trkpt>
      <trkpt lat="46.70825" lon="6.2175">
        <ele>992.7</ele>
        <time>2021-08-14T15:06:26Z</time>
      </trkpt>
      <trkpt lat="46.70823" lon="6.21746">
        <ele>991.2</ele>
        <time>2021-08-14T15:06:27Z</time>
      </trkpt>
      <trkpt lat="46.70819" lon="6.21738">
        <ele>991</ele>
        <time>2021-08-14T15:06:29Z</time>
      </trkpt>
      <trkpt lat="46.70818" lon="6.21736">
        <ele>990.9</ele>
        <time>2021-08-14T15:06:30Z</time>
      </trkpt>
      <trkpt lat="46.70817" lon="6.21728">
        <ele>990.7</ele>
        <time>2021-08-14T15:06:32Z</time>
      </trkpt>
      <trkpt lat="46.70817" lon="6.21722">
        <ele>990.6</ele>
        <time>2021-08-14T15:06:33Z</time>
      </trkpt>
      <trkpt lat="46.70817" lon="6.21716">
        <ele>990.6</ele>
        <time>2021-08-14T15:06:34Z</time>
      </trkpt>
      <trkpt lat="46.70814" lon="6.21703">
        <ele>989.9</ele>
        <time>2021-08-14T15:06:36Z</time>
      </trkpt>
      <trkpt lat="46.70811" lon="6.21691">
        <ele>989.4</ele>
        <time>2021-08-14T15:06:38Z</time>
      </trkpt>
      <trkpt lat="46.70809" lon="6.21682">
        <ele>989.1</ele>
        <time>2021-08-14T15:06:39Z</time>
      </trkpt>
      <trkpt lat="46.70807" lon="6.21674">
        <ele>988.7</ele>
        <time>2021-08-14T15:06:40Z</time>
      </trkpt>
      <trkpt lat="46.70804" lon="6.21665">
        <ele>988.4</ele>
        <time>2021-08-14T15:06:41Z</time>
      </trkpt>
      <trkpt lat="46.70798" lon="6.21652">
        <ele>987.7</ele>
        <time>2021-08-14T15:06:42Z</time>
      </trkpt>
      <trkpt lat="46.70791" lon="6.21636">
        <ele>986.8</ele>
        <time>2021-08-14T15:06:44Z</time>
      </trkpt>
      <trkpt lat="46.70787" lon="6.21628">
        <ele>986.4</ele>
        <time>2021-08-14T15:06:45Z</time>
      </trkpt>
      <trkpt lat="46.70782" lon="6.21613">
        <ele>985.5</ele>
        <time>2021-08-14T15:06:47Z</time>
      </trkpt>
      <trkpt lat="46.70777" lon="6.21603">
        <ele>984.9</ele>
        <time>2021-08-14T15:06:48Z</time>
      </trkpt>
      <trkpt lat="46.7077" lon="6.2158">
        <ele>983.6</ele>
        <time>2021-08-14T15:06:50Z</time>
      </trkpt>
      <trkpt lat="46.70765" lon="6.21557">
        <ele>982.2</ele>
        <time>2021-08-14T15:06:52Z</time>
      </trkpt>
      <trkpt lat="46.70761" lon="6.21544">
        <ele>981.4</ele>
        <time>2021-08-14T15:06:53Z</time>
      </trkpt>
      <trkpt lat="46.70758" lon="6.21532">
        <ele>980.7</ele>
        <time>2021-08-14T15:06:54Z</time>
      </trkpt>
      <trkpt lat="46.70756" lon="6.21519">
        <ele>980</ele>
        <time>2021-08-14T15:06:55Z</time>
      </trkpt>
      <trkpt lat="46.7075" lon="6.21496">
        <ele>978.7</ele>
        <time>2021-08-14T15:06:57Z</time>
      </trkpt>
      <trkpt lat="46.70742" lon="6.21471">
        <ele>977.1</ele>
        <time>2021-08-14T15:06:59Z</time>
      </trkpt>
      <trkpt lat="46.70738" lon="6.21457">
        <ele>976.2</ele>
        <time>2021-08-14T15:07:00Z</time>
      </trkpt>
      <trkpt lat="46.70731" lon="6.21432">
        <ele>974.9</ele>
        <time>2021-08-14T15:07:02Z</time>
      </trkpt>
      <trkpt lat="46.70727" lon="6.2142">
        <ele>974.3</ele>
        <time>2021-08-14T15:07:03Z</time>
      </trkpt>
      <trkpt lat="46.70724" lon="6.21394">
        <ele>972.9</ele>
        <time>2021-08-14T15:07:05Z</time>
      </trkpt>
      <trkpt lat="46.70722" lon="6.21367">
        <ele>971.4</ele>
        <time>2021-08-14T15:07:07Z</time>
      </trkpt>
      <trkpt lat="46.70718" lon="6.21338">
        <ele>969.9</ele>
        <time>2021-08-14T15:07:09Z</time>
      </trkpt>
      <trkpt lat="46.70714" lon="6.21306">
        <ele>968.2</ele>
        <time>2021-08-14T15:07:11Z</time>
      </trkpt>
      <trkpt lat="46.70714" lon="6.21274">
        <ele>966.8</ele>
        <time>2021-08-14T15:07:13Z</time>
      </trkpt>
      <trkpt lat="46.70713" lon="6.21247">
        <ele>965.6</ele>
        <time>2021-08-14T15:07:15Z</time>
      </trkpt>
      <trkpt lat="46.70712" lon="6.21235">
        <ele>965.1</ele>
        <time>2021-08-14T15:07:16Z</time>
      </trkpt>
      <trkpt lat="46.70713" lon="6.21224">
        <ele>964.5</ele>
        <time>2021-08-14T15:07:17Z</time>
      </trkpt>
      <trkpt lat="46.70714" lon="6.21202">
        <ele>963.5</ele>
        <time>2021-08-14T15:07:19Z</time>
      </trkpt>
      <trkpt lat="46.70713" lon="6.21191">
        <ele>963</ele>
        <time>2021-08-14T15:07:20Z</time>
      </trkpt>
      <trkpt lat="46.7071" lon="6.21172">
        <ele>962.4</ele>
        <time>2021-08-14T15:07:22Z</time>
      </trkpt>
      <trkpt lat="46.70708" lon="6.21165">
        <ele>962.6</ele>
        <time>2021-08-14T15:07:23Z</time>
      </trkpt>
      <trkpt lat="46.70701" lon="6.21153">
        <ele>963</ele>
        <time>2021-08-14T15:07:25Z</time>
      </trkpt>
      <trkpt lat="46.707" lon="6.2114">
        <ele>963.3</ele>
        <time>2021-08-14T15:07:27Z</time>
      </trkpt>
      <trkpt lat="46.70696" lon="6.21138">
        <ele>963.4</ele>
        <time>2021-08-14T15:07:29Z</time>
      </trkpt>
      <trkpt lat="46.70695" lon="6.21135">
        <ele>963.5</ele>
        <time>2021-08-14T15:07:30Z</time>
      </trkpt>
      <trkpt lat="46.70694" lon="6.21136">
        <ele>963.6</ele>
        <time>2021-08-14T15:07:32Z</time>
      </trkpt>
      <trkpt lat="46.70696" lon="6.2114">
        <ele>963.7</ele>
        <time>2021-08-14T15:07:33Z</time>
      </trkpt>
      <trkpt lat="46.70699" lon="6.21143">
        <ele>963.9</ele>
        <time>2021-08-14T15:07:35Z</time>
      </trkpt>
      <trkpt lat="46.70704" lon="6.21145">
        <ele>963.3</ele>
        <time>2021-08-14T15:07:36Z</time>
      </trkpt>
      <trkpt lat="46.7071" lon="6.21146">
        <ele>961.7</ele>
        <time>2021-08-14T15:07:38Z</time>
      </trkpt>
      <trkpt lat="46.70715" lon="6.21148">
        <ele>961.1</ele>
        <time>2021-08-14T15:07:40Z</time>
      </trkpt>
      <trkpt lat="46.7072" lon="6.21149">
        <ele>960.5</ele>
        <time>2021-08-14T15:08:30Z</time>
      </trkpt>
      <trkpt lat="46.70726" lon="6.21151">
        <ele>959.9</ele>
        <time>2021-08-14T15:08:31Z</time>
      </trkpt>
      <trkpt lat="46.70748" lon="6.21151">
        <ele>957.3</ele>
        <time>2021-08-14T15:08:33Z</time>
      </trkpt>
      <trkpt lat="46.70762" lon="6.21145">
        <ele>955.5</ele>
        <time>2021-08-14T15:08:35Z</time>
      </trkpt>
      <trkpt lat="46.7078" lon="6.2114">
        <ele>953.3</ele>
        <time>2021-08-14T15:08:37Z</time>
      </trkpt>
      <trkpt lat="46.70788" lon="6.21135">
        <ele>952.2</ele>
        <time>2021-08-14T15:08:38Z</time>
      </trkpt>
      <trkpt lat="46.70802" lon="6.21125">
        <ele>950.3</ele>
        <time>2021-08-14T15:08:40Z</time>
      </trkpt>
      <trkpt lat="46.70807" lon="6.21118">
        <ele>949.5</ele>
        <time>2021-08-14T15:08:41Z</time>
      </trkpt>
      <trkpt lat="46.70812" lon="6.21113">
        <ele>948.8</ele>
        <time>2021-08-14T15:08:42Z</time>
      </trkpt>
      <trkpt lat="46.70817" lon="6.21107">
        <ele>948.1</ele>
        <time>2021-08-14T15:08:43Z</time>
      </trkpt>
      <trkpt lat="46.70827" lon="6.21097">
        <ele>947</ele>
        <time>2021-08-14T15:08:45Z</time>
      </trkpt>
      <trkpt lat="46.70831" lon="6.21093">
        <ele>946.5</ele>
        <time>2021-08-14T15:08:46Z</time>
      </trkpt>
      <trkpt lat="46.70836" lon="6.21088">
        <ele>945.9</ele>
        <time>2021-08-14T15:08:48Z</time>
      </trkpt>
      <trkpt lat="46.70838" lon="6.21085">
        <ele>945.6</ele>
        <time>2021-08-14T15:08:49Z</time>
      </trkpt>
      <trkpt lat="46.70839" lon="6.21075">
        <ele>944.9</ele>
        <time>2021-08-14T15:08:51Z</time>
      </trkpt>
      <trkpt lat="46.70835" lon="6.21066">
        <ele>944.7</ele>
        <time>2021-08-14T15:08:53Z</time>
      </trkpt>
      <trkpt lat="46.70832" lon="6.21061">
        <ele>944.5</ele>
        <time>2021-08-14T15:08:54Z</time>
      </trkpt>
      <trkpt lat="46.70821" lon="6.21051">
        <ele>944.2</ele>
        <time>2021-08-14T15:08:56Z</time>
      </trkpt>
      <trkpt lat="46.70815" lon="6.21046">
        <ele>944.1</ele>
        <time>2021-08-14T15:08:57Z</time>
      </trkpt>
      <trkpt lat="46.70804" lon="6.21035">
        <ele>943.9</ele>
        <time>2021-08-14T15:08:59Z</time>
      </trkpt>
      <trkpt lat="46.70794" lon="6.21024">
        <ele>943.8</ele>
        <time>2021-08-14T15:09:01Z</time>
      </trkpt>
      <trkpt lat="46.7079" lon="6.21017">
        <ele>943.8</ele>
        <time>2021-08-14T15:09:02Z</time>
      </trkpt>
      <trkpt lat="46.70786" lon="6.21011">
        <ele>943.8</ele>
        <time>2021-08-14T15:09:03Z</time>
      </trkpt>
      <trkpt lat="46.70778" lon="6.21003">
        <ele>943.8</ele>
        <time>2021-08-14T15:09:05Z</time>
      </trkpt>
      <trkpt lat="46.70769" lon="6.20996">
        <ele>943.8</ele>
        <time>2021-08-14T15:09:07Z</time>
      </trkpt>
      <trkpt lat="46.70762" lon="6.20987">
        <ele>943.7</ele>
        <time>2021-08-14T15:09:09Z</time>
      </trkpt>
      <trkpt lat="46.70758" lon="6.20982">
        <ele>943.7</ele>
        <time>2021-08-14T15:09:10Z</time>
      </trkpt>
      <trkpt lat="46.70757" lon="6.20975">
        <ele>943.7</ele>
        <time>2021-08-14T15:09:11Z</time>
      </trkpt>
      <trkpt lat="46.70753" lon="6.20962">
        <ele>943.6</ele>
        <time>2021-08-14T15:09:13Z</time>
      </trkpt>
      <trkpt lat="46.70748" lon="6.2095">
        <ele>943.5</ele>
        <time>2021-08-14T15:09:15Z</time>
      </trkpt>
      <trkpt lat="46.7074" lon="6.20939">
        <ele>943.3</ele>
        <time>2021-08-14T15:09:17Z</time>
      </trkpt>
      <trkpt lat="46.70736" lon="6.20935">
        <ele>943.3</ele>
        <time>2021-08-14T15:09:18Z</time>
      </trkpt>
      <trkpt lat="46.70726" lon="6.20928">
        <ele>943.1</ele>
        <time>2021-08-14T15:09:20Z</time>
      </trkpt>
      <trkpt lat="46.70721" lon="6.20929">
        <ele>943</ele>
        <time>2021-08-14T15:09:21Z</time>
      </trkpt>
      <trkpt lat="46.70716" lon="6.20925">
        <ele>942.9</ele>
        <time>2021-08-14T15:09:23Z</time>
      </trkpt>
      <trkpt lat="46.70711" lon="6.20916">
        <ele>942.8</ele>
        <time>2021-08-14T15:09:25Z</time>
      </trkpt>
      <trkpt lat="46.7071" lon="6.20912">
        <ele>942.8</ele>
        <time>2021-08-14T15:09:26Z</time>
      </trkpt>
      <trkpt lat="46.70711" lon="6.20911">
        <ele>942.8</ele>
        <time>2021-08-14T15:09:28Z</time>
      </trkpt>
      <trkpt lat="46.70711" lon="6.20911">
        <ele>942.8</ele>
        <time>2021-08-14T15:09:29Z</time>
      </trkpt>
      <trkpt lat="46.70714" lon="6.20907">
        <ele>942.7</ele>
        <time>2021-08-14T15:09:31Z</time>
      </trkpt>
      <trkpt lat="46.70714" lon="6.20905">
        <ele>942.7</ele>
        <time>2021-08-14T15:09:32Z</time>
      </trkpt>
      <trkpt lat="46.70715" lon="6.20908">
        <ele>942.7</ele>
        <time>2021-08-14T15:09:33Z</time>
      </trkpt>
      <trkpt lat="46.70715" lon="6.20909">
        <ele>942.7</ele>
        <time>2021-08-14T15:09:35Z</time>
      </trkpt>
      <trkpt lat="46.70715" lon="6.20909">
        <ele>942.7</ele>
        <time>2021-08-14T15:09:36Z</time>
      </trkpt>
      <trkpt lat="46.70715" lon="6.20909">
        <ele>942.7</ele>
        <time>2021-08-14T15:09:37Z</time>
      </trkpt>
      <trkpt lat="46.70715" lon="6.20909">
        <ele>942.7</ele>
        <time>2021-08-14T15:09:39Z</time>
      </trkpt>
      <trkpt lat="46.70714" lon="6.20909">
        <ele>942.7</ele>
        <time>2021-08-14T15:09:40Z</time>
      </trkpt>
      <trkpt lat="46.70714" lon="6.20909">
        <ele>942.7</ele>
        <time>2021-08-14T15:09:42Z</time>
      </trkpt>
      <trkpt lat="46.70682" lon="6.20889">
        <ele>942.3</ele>
        <time>2021-08-14T15:11:55Z</time>
      </trkpt>
      <trkpt lat="46.70683" lon="6.2089">
        <ele>942.3</ele>
        <time>2021-08-14T15:11:56Z</time>
      </trkpt>
      <trkpt lat="46.70682" lon="6.20888">
        <ele>942.2</ele>
        <time>2021-08-14T15:11:57Z</time>
      </trkpt>
      <trkpt lat="46.70681" lon="6.20889">
        <ele>942.2</ele>
        <time>2021-08-14T15:11:59Z</time>
      </trkpt>
      <trkpt lat="46.70681" lon="6.20889">
        <ele>942.2</ele>
        <time>2021-08-14T15:12:00Z</time>
      </trkpt>
      <trkpt lat="46.70681" lon="6.2089">
        <ele>942.2</ele>
        <time>2021-08-14T15:12:02Z</time>
      </trkpt>
      <trkpt lat="46.70681" lon="6.2089">
        <ele>942.2</ele>
        <time>2021-08-14T15:12:03Z</time>
      </trkpt>
      <trkpt lat="46.70682" lon="6.2089">
        <ele>942.2</ele>
        <time>2021-08-14T15:12:04Z</time>
      </trkpt>
      <trkpt lat="46.70682" lon="6.20891">
        <ele>942.2</ele>
        <time>2021-08-14T15:12:06Z</time>
      </trkpt>
      <trkpt lat="46.70683" lon="6.20893">
        <ele>942.2</ele>
        <time>2021-08-14T15:12:08Z</time>
      </trkpt>
      <trkpt lat="46.70684" lon="6.20894">
        <ele>942.2</ele>
        <time>2021-08-14T15:12:09Z</time>
      </trkpt>
      <trkpt lat="46.70685" lon="6.20895">
        <ele>942.2</ele>
        <time>2021-08-14T15:12:10Z</time>
      </trkpt>
      <trkpt lat="46.70686" lon="6.20897">
        <ele>942.2</ele>
        <time>2021-08-14T15:12:11Z</time>
      </trkpt>
      <trkpt lat="46.70695" lon="6.20905">
        <ele>942.4</ele>
        <time>2021-08-14T15:12:13Z</time>
      </trkpt>
      <trkpt lat="46.70702" lon="6.20913">
        <ele>942.6</ele>
        <time>2021-08-14T15:12:14Z</time>
      </trkpt>
      <trkpt lat="46.70711" lon="6.20923">
        <ele>942.8</ele>
        <time>2021-08-14T15:12:16Z</time>
      </trkpt>
      <trkpt lat="46.70713" lon="6.20927">
        <ele>942.9</ele>
        <time>2021-08-14T15:12:17Z</time>
      </trkpt>
      <trkpt lat="46.70716" lon="6.20929">
        <ele>942.9</ele>
        <time>2021-08-14T15:12:18Z</time>
      </trkpt>
      <trkpt lat="46.70719" lon="6.20933">
        <ele>943</ele>
        <time>2021-08-14T15:12:19Z</time>
      </trkpt>
      <trkpt lat="46.70721" lon="6.20935">
        <ele>943</ele>
        <time>2021-08-14T15:12:21Z</time>
      </trkpt>
      <trkpt lat="46.70722" lon="6.20935">
        <ele>943</ele>
        <time>2021-08-14T15:12:22Z</time>
      </trkpt>
      <trkpt lat="46.70723" lon="6.20936">
        <ele>943</ele>
        <time>2021-08-14T15:12:24Z</time>
      </trkpt>
      <trkpt lat="46.70729" lon="6.20939">
        <ele>943</ele>
        <time>2021-08-14T15:12:26Z</time>
      </trkpt>
      <trkpt lat="46.70731" lon="6.20939">
        <ele>943</ele>
        <time>2021-08-14T15:12:27Z</time>
      </trkpt>
      <trkpt lat="46.70731" lon="6.20939">
        <ele>943</ele>
        <time>2021-08-14T15:12:29Z</time>
      </trkpt>
      <trkpt lat="46.7073" lon="6.20938">
        <ele>943</ele>
        <time>2021-08-14T15:12:30Z</time>
      </trkpt>
      <trkpt lat="46.7073" lon="6.20938">
        <ele>943</ele>
        <time>2021-08-14T15:12:32Z</time>
      </trkpt>
      <trkpt lat="46.70729" lon="6.20938">
        <ele>943</ele>
        <time>2021-08-14T15:12:33Z</time>
      </trkpt>
      <trkpt lat="46.70729" lon="6.20938">
        <ele>943</ele>
        <time>2021-08-14T15:12:35Z</time>
      </trkpt>
      <trkpt lat="46.70729" lon="6.20938">
        <ele>943</ele>
        <time>2021-08-14T15:12:36Z</time>
      </trkpt>
      <trkpt lat="46.70729" lon="6.20938">
        <ele>943</ele>
        <time>2021-08-14T15:12:38Z</time>
      </trkpt>
      <trkpt lat="46.70727" lon="6.20936">
        <ele>943</ele>
        <time>2021-08-14T15:12:39Z</time>
      </trkpt>
      <trkpt lat="46.70723" lon="6.20933">
        <ele>942.9</ele>
        <time>2021-08-14T15:12:40Z</time>
      </trkpt>
      <trkpt lat="46.70717" lon="6.20929">
        <ele>942.9</ele>
        <time>2021-08-14T15:12:42Z</time>
      </trkpt>
      <trkpt lat="46.70714" lon="6.20928">
        <ele>942.9</ele>
        <time>2021-08-14T15:12:44Z</time>
      </trkpt>
      <trkpt lat="46.70713" lon="6.20927">
        <ele>942.9</ele>
        <time>2021-08-14T15:12:45Z</time>
      </trkpt>
      <trkpt lat="46.70713" lon="6.20927">
        <ele>942.9</ele>
        <time>2021-08-14T15:12:46Z</time>
      </trkpt>
      <trkpt lat="46.70712" lon="6.20927">
        <ele>942.9</ele>
        <time>2021-08-14T15:12:48Z</time>
      </trkpt>
      <trkpt lat="46.70709" lon="6.20924">
        <ele>942.8</ele>
        <time>2021-08-14T15:12:50Z</time>
      </trkpt>
      <trkpt lat="46.70705" lon="6.20921">
        <ele>942.8</ele>
        <time>2021-08-14T15:12:51Z</time>
      </trkpt>
      <trkpt lat="46.70703" lon="6.2092">
        <ele>942.7</ele>
        <time>2021-08-14T15:12:52Z</time>
      </trkpt>
      <trkpt lat="46.70697" lon="6.20916">
        <ele>942.7</ele>
        <time>2021-08-14T15:12:53Z</time>
      </trkpt>
      <trkpt lat="46.70689" lon="6.20912">
        <ele>942.6</ele>
        <time>2021-08-14T15:12:55Z</time>
      </trkpt>
      <trkpt lat="46.70684" lon="6.2091">
        <ele>942.6</ele>
        <time>2021-08-14T15:12:57Z</time>
      </trkpt>
      <trkpt lat="46.70681" lon="6.20907">
        <ele>942.5</ele>
        <time>2021-08-14T15:12:58Z</time>
      </trkpt>
      <trkpt lat="46.7068" lon="6.20907">
        <ele>942.5</ele>
        <time>2021-08-14T15:12:59Z</time>
      </trkpt>
      <trkpt lat="46.70679" lon="6.20906">
        <ele>942.5</ele>
        <time>2021-08-14T15:13:00Z</time>
      </trkpt>
      <trkpt lat="46.70679" lon="6.20904">
        <ele>942.5</ele>
        <time>2021-08-14T15:13:02Z</time>
      </trkpt>
      <trkpt lat="46.70679" lon="6.20903">
        <ele>942.5</ele>
        <time>2021-08-14T15:13:03Z</time>
      </trkpt>
      <trkpt lat="46.70679" lon="6.20902">
        <ele>942.5</ele>
        <time>2021-08-14T15:13:04Z</time>
      </trkpt>
      <trkpt lat="46.70678" lon="6.209">
        <ele>942.5</ele>
        <time>2021-08-14T15:13:05Z</time>
      </trkpt>
      <trkpt lat="46.70676" lon="6.20896">
        <ele>942.4</ele>
        <time>2021-08-14T15:13:07Z</time>
      </trkpt>
      <trkpt lat="46.70675" lon="6.20896">
        <ele>942.4</ele>
        <time>2021-08-14T15:13:08Z</time>
      </trkpt>
      <trkpt lat="46.70674" lon="6.20894">
        <ele>942.4</ele>
        <time>2021-08-14T15:13:09Z</time>
      </trkpt>
      <trkpt lat="46.70673" lon="6.20892">
        <ele>942.4</ele>
        <time>2021-08-14T15:13:11Z</time>
      </trkpt>
      <trkpt lat="46.70672" lon="6.20891">
        <ele>942.4</ele>
        <time>2021-08-14T15:13:12Z</time>
      </trkpt>
      <trkpt lat="46.70671" lon="6.20889">
        <ele>942.4</ele>
        <time>2021-08-14T15:13:14Z</time>
      </trkpt>
      <trkpt lat="46.70671" lon="6.20888">
        <ele>942.4</ele>
        <time>2021-08-14T15:13:16Z</time>
      </trkpt>
      <trkpt lat="46.70672" lon="6.20887">
        <ele>942.4</ele>
        <time>2021-08-14T15:13:17Z</time>
      </trkpt>
      <trkpt lat="46.70674" lon="6.20887">
        <ele>942.3</ele>
        <time>2021-08-14T15:13:18Z</time>
      </trkpt>
      <trkpt lat="46.70675" lon="6.20887">
        <ele>942.3</ele>
        <time>2021-08-14T15:13:20Z</time>
      </trkpt>
      <trkpt lat="46.70676" lon="6.20887">
        <ele>942.3</ele>
        <time>2021-08-14T15:13:22Z</time>
      </trkpt>
      <trkpt lat="46.70676" lon="6.20887">
        <ele>942.3</ele>
        <time>2021-08-14T15:13:23Z</time>
      </trkpt>
      <trkpt lat="46.70676" lon="6.20887">
        <ele>942.3</ele>
        <time>2021-08-14T15:13:24Z</time>
      </trkpt>
      <trkpt lat="46.70683" lon="6.20888">
        <ele>942.3</ele>
        <time>2021-08-14T15:13:26Z</time>
      </trkpt>
      <trkpt lat="46.70685" lon="6.20893">
        <ele>942.2</ele>
        <time>2021-08-14T15:13:28Z</time>
      </trkpt>
      <trkpt lat="46.70688" lon="6.20899">
        <ele>942.2</ele>
        <time>2021-08-14T15:13:29Z</time>
      </trkpt>
      <trkpt lat="46.70689" lon="6.20902">
        <ele>942.1</ele>
        <time>2021-08-14T15:13:30Z</time>
      </trkpt>
      <trkpt lat="46.70692" lon="6.20908">
        <ele>942.1</ele>
        <time>2021-08-14T15:13:32Z</time>
      </trkpt>
      <trkpt lat="46.7069" lon="6.20902">
        <ele>942.1</ele>
        <time>2021-08-14T15:13:33Z</time>
      </trkpt>
      <trkpt lat="46.70687" lon="6.20893">
        <ele>942</ele>
        <time>2021-08-14T15:13:34Z</time>
      </trkpt>
      <trkpt lat="46.70686" lon="6.2089">
        <ele>942</ele>
        <time>2021-08-14T15:13:36Z</time>
      </trkpt>
      <trkpt lat="46.70686" lon="6.2089">
        <ele>942</ele>
        <time>2021-08-14T15:13:37Z</time>
      </trkpt>
      <trkpt lat="46.70686" lon="6.20889">
        <ele>942</ele>
        <time>2021-08-14T15:13:39Z</time>
      </trkpt>
      <trkpt lat="46.70686" lon="6.20889">
        <ele>942</ele>
        <time>2021-08-14T15:13:41Z</time>
      </trkpt>
      <trkpt lat="46.70686" lon="6.20889">
        <ele>942</ele>
        <time>2021-08-14T15:13:42Z</time>
      </trkpt>
      <trkpt lat="46.70686" lon="6.20889">
        <ele>942</ele>
        <time>2021-08-14T15:13:44Z</time>
      </trkpt>
      <trkpt lat="46.70686" lon="6.20889">
        <ele>942</ele>
        <time>2021-08-14T15:13:45Z</time>
      </trkpt>
      <trkpt lat="46.7069" lon="6.20893">
        <ele>941.9</ele>
        <time>2021-08-14T15:13:47Z</time>
      </trkpt>
      <trkpt lat="46.70693" lon="6.20897">
        <ele>941.9</ele>
        <time>2021-08-14T15:13:48Z</time>
      </trkpt>
      <trkpt lat="46.70695" lon="6.20899">
        <ele>941.8</ele>
        <time>2021-08-14T15:13:49Z</time>
      </trkpt>
      <trkpt lat="46.70698" lon="6.20901">
        <ele>941.8</ele>
        <time>2021-08-14T15:13:51Z</time>
      </trkpt>
      <trkpt lat="46.70699" lon="6.20903">
        <ele>941.8</ele>
        <time>2021-08-14T15:13:53Z</time>
      </trkpt>
      <trkpt lat="46.70699" lon="6.20904">
        <ele>941.8</ele>
        <time>2021-08-14T15:13:54Z</time>
      </trkpt>
      <trkpt lat="46.707" lon="6.20904">
        <ele>941.8</ele>
        <time>2021-08-14T15:13:55Z</time>
      </trkpt>
      <trkpt lat="46.707" lon="6.20905">
        <ele>941.8</ele>
        <time>2021-08-14T15:13:56Z</time>
      </trkpt>
      <trkpt lat="46.70701" lon="6.20906">
        <ele>941.8</ele>
        <time>2021-08-14T15:13:58Z</time>
      </trkpt>
      <trkpt lat="46.70701" lon="6.20906">
        <ele>941.8</ele>
        <time>2021-08-14T15:14:00Z</time>
      </trkpt>
      <trkpt lat="46.70702" lon="6.20907">
        <ele>941.8</ele>
        <time>2021-08-14T15:14:01Z</time>
      </trkpt>
      <trkpt lat="46.70703" lon="6.2091">
        <ele>941.7</ele>
        <time>2021-08-14T15:14:02Z</time>
      </trkpt>
      <trkpt lat="46.70705" lon="6.20913">
        <ele>941.7</ele>
        <time>2021-08-14T15:14:04Z</time>
      </trkpt>
      <trkpt lat="46.70706" lon="6.20914">
        <ele>941.7</ele>
        <time>2021-08-14T15:14:06Z</time>
      </trkpt>
      <trkpt lat="46.70706" lon="6.20914">
        <ele>941.7</ele>
        <time>2021-08-14T15:14:07Z</time>
      </trkpt>
      <trkpt lat="46.70706" lon="6.20914">
        <ele>941.7</ele>
        <time>2021-08-14T15:14:08Z</time>
      </trkpt>
      <trkpt lat="46.70706" lon="6.20914">
        <ele>941.7</ele>
        <time>2021-08-14T15:14:09Z</time>
      </trkpt>
      <trkpt lat="46.70706" lon="6.20914">
        <ele>941.7</ele>
        <time>2021-08-14T15:14:11Z</time>
      </trkpt>
      <trkpt lat="46.70706" lon="6.20914">
        <ele>941.7</ele>
        <time>2021-08-14T15:14:12Z</time>
      </trkpt>
      <trkpt lat="46.70702" lon="6.20911">
        <ele>941.6</ele>
        <time>2021-08-14T15:14:14Z</time>
      </trkpt>
      <trkpt lat="46.707" lon="6.20908">
        <ele>941.6</ele>
        <time>2021-08-14T15:14:15Z</time>
      </trkpt>
      <trkpt lat="46.70696" lon="6.20906">
        <ele>941.6</ele>
        <time>2021-08-14T15:14:17Z</time>
      </trkpt>
      <trkpt lat="46.70695" lon="6.20906">
        <ele>941.6</ele>
        <time>2021-08-14T15:14:18Z</time>
      </trkpt>
      <trkpt lat="46.70695" lon="6.20906">
        <ele>941.6</ele>
        <time>2021-08-14T15:14:20Z</time>
      </trkpt>
      <trkpt lat="46.70695" lon="6.20906">
        <ele>941.6</ele>
        <time>2021-08-14T15:14:21Z</time>
      </trkpt>
      <trkpt lat="46.70695" lon="6.20906">
        <ele>941.6</ele>
        <time>2021-08-14T15:14:22Z</time>
      </trkpt>
      <trkpt lat="46.70694" lon="6.20906">
        <ele>941.6</ele>
        <time>2021-08-14T15:14:23Z</time>
      </trkpt>
      <trkpt lat="46.70694" lon="6.20906">
        <ele>941.6</ele>
        <time>2021-08-14T15:14:25Z</time>
      </trkpt>
      <trkpt lat="46.70694" lon="6.20907">
        <ele>941.6</ele>
        <time>2021-08-14T15:14:26Z</time>
      </trkpt>
      <trkpt lat="46.70694" lon="6.20907">
        <ele>941.6</ele>
        <time>2021-08-14T15:14:27Z</time>
      </trkpt>
      <trkpt lat="46.70694" lon="6.20907">
        <ele>941.6</ele>
        <time>2021-08-14T15:14:28Z</time>
      </trkpt>
      <trkpt lat="46.70694" lon="6.20907">
        <ele>941.6</ele>
        <time>2021-08-14T15:14:30Z</time>
      </trkpt>
      <trkpt lat="46.70693" lon="6.20907">
        <ele>941.5</ele>
        <time>2021-08-14T15:14:31Z</time>
      </trkpt>
      <trkpt lat="46.70693" lon="6.20907">
        <ele>941.5</ele>
        <time>2021-08-14T15:14:32Z</time>
      </trkpt>
      <trkpt lat="46.70693" lon="6.20908">
        <ele>941.5</ele>
        <time>2021-08-14T15:14:34Z</time>
      </trkpt>
      <trkpt lat="46.70693" lon="6.20908">
        <ele>941.5</ele>
        <time>2021-08-14T15:14:35Z</time>
      </trkpt>
      <trkpt lat="46.70693" lon="6.20908">
        <ele>941.5</ele>
        <time>2021-08-14T15:14:37Z</time>
      </trkpt>
      <trkpt lat="46.70693" lon="6.20908">
        <ele>941.5</ele>
        <time>2021-08-14T15:14:38Z</time>
      </trkpt>
      <trkpt lat="46.70693" lon="6.20908">
        <ele>941.5</ele>
        <time>2021-08-14T15:14:39Z</time>
      </trkpt>
      <trkpt lat="46.70692" lon="6.20908">
        <ele>941.5</ele>
        <time>2021-08-14T15:14:41Z</time>
      </trkpt>
      <trkpt lat="46.70692" lon="6.20908">
        <ele>941.5</ele>
        <time>2021-08-14T15:14:42Z</time>
      </trkpt>
      <trkpt lat="46.70692" lon="6.20909">
        <ele>941.5</ele>
        <time>2021-08-14T15:14:43Z</time>
      </trkpt>
      <trkpt lat="46.70692" lon="6.20909">
        <ele>941.5</ele>
        <time>2021-08-14T15:14:45Z</time>
      </trkpt>
      <trkpt lat="46.70692" lon="6.20909">
        <ele>941.5</ele>
        <time>2021-08-14T15:14:47Z</time>
      </trkpt>
      <trkpt lat="46.70692" lon="6.20909">
        <ele>941.5</ele>
        <time>2021-08-14T15:14:48Z</time>
      </trkpt>
      <trkpt lat="46.70692" lon="6.20909">
        <ele>941.5</ele>
        <time>2021-08-14T15:14:50Z</time>
      </trkpt>
      <trkpt lat="46.70691" lon="6.20909">
        <ele>941.5</ele>
        <time>2021-08-14T15:14:51Z</time>
      </trkpt>
      <trkpt lat="46.70691" lon="6.20909">
        <ele>941.5</ele>
        <time>2021-08-14T15:14:52Z</time>
      </trkpt>
      <trkpt lat="46.70691" lon="6.2091">
        <ele>941.5</ele>
        <time>2021-08-14T15:14:54Z</time>
      </trkpt>
      <trkpt lat="46.70691" lon="6.2091">
        <ele>941.5</ele>
        <time>2021-08-14T15:14:56Z</time>
      </trkpt>
      <trkpt lat="46.70691" lon="6.2091">
        <ele>941.5</ele>
        <time>2021-08-14T15:14:57Z</time>
      </trkpt>
      <trkpt lat="46.70691" lon="6.2091">
        <ele>941.5</ele>
        <time>2021-08-14T15:14:58Z</time>
      </trkpt>
      <trkpt lat="46.7069" lon="6.2091">
        <ele>941.5</ele>
        <time>2021-08-14T15:14:59Z</time>
      </trkpt>
      <trkpt lat="46.7069" lon="6.2091">
        <ele>941.5</ele>
        <time>2021-08-14T15:15:01Z</time>
      </trkpt>
      <trkpt lat="46.7069" lon="6.20911">
        <ele>941.5</ele>
        <time>2021-08-14T15:15:02Z</time>
      </trkpt>
      <trkpt lat="46.7069" lon="6.20911">
        <ele>941.5</ele>
        <time>2021-08-14T15:15:03Z</time>
      </trkpt>
      <trkpt lat="46.7069" lon="6.20911">
        <ele>941.5</ele>
        <time>2021-08-14T15:15:05Z</time>
      </trkpt>
      <trkpt lat="46.7069" lon="6.20911">
        <ele>941.5</ele>
        <time>2021-08-14T15:15:06Z</time>
      </trkpt>
      <trkpt lat="46.7069" lon="6.20911">
        <ele>941.5</ele>
        <time>2021-08-14T15:15:08Z</time>
      </trkpt>
      <trkpt lat="46.70689" lon="6.20911">
        <ele>941.5</ele>
        <time>2021-08-14T15:15:09Z</time>
      </trkpt>
      <trkpt lat="46.70689" lon="6.20911">
        <ele>941.5</ele>
        <time>2021-08-14T15:15:10Z</time>
      </trkpt>
      <trkpt lat="46.70686" lon="6.20911">
        <ele>941.5</ele>
        <time>2021-08-14T15:15:12Z</time>
      </trkpt>
      <trkpt lat="46.70685" lon="6.20911">
        <ele>941.4</ele>
        <time>2021-08-14T15:15:13Z</time>
      </trkpt>
      <trkpt lat="46.70683" lon="6.20911">
        <ele>941.4</ele>
        <time>2021-08-14T15:15:14Z</time>
      </trkpt>
      <trkpt lat="46.70683" lon="6.20912">
        <ele>941.4</ele>
        <time>2021-08-14T15:15:15Z</time>
      </trkpt>
      <trkpt lat="46.70683" lon="6.20913">
        <ele>941.4</ele>
        <time>2021-08-14T15:15:16Z</time>
      </trkpt>
      <trkpt lat="46.70683" lon="6.20913">
        <ele>941.4</ele>
        <time>2021-08-14T15:15:17Z</time>
      </trkpt>
      <trkpt lat="46.70683" lon="6.20913">
        <ele>941.4</ele>
        <time>2021-08-14T15:15:19Z</time>
      </trkpt>
      <trkpt lat="46.70683" lon="6.20912">
        <ele>941.4</ele>
        <time>2021-08-14T15:15:20Z</time>
      </trkpt>
      <trkpt lat="46.70681" lon="6.2091">
        <ele>941.4</ele>
        <time>2021-08-14T15:15:21Z</time>
      </trkpt>
      <trkpt lat="46.70682" lon="6.2091">
        <ele>941.4</ele>
        <time>2021-08-14T15:15:23Z</time>
      </trkpt>
      <trkpt lat="46.70682" lon="6.2091">
        <ele>941.4</ele>
        <time>2021-08-14T15:15:24Z</time>
      </trkpt>
      <trkpt lat="46.70682" lon="6.20909">
        <ele>941.4</ele>
        <time>2021-08-14T15:15:25Z</time>
      </trkpt>
      <trkpt lat="46.70681" lon="6.20908">
        <ele>941.4</ele>
        <time>2021-08-14T15:15:26Z</time>
      </trkpt>
      <trkpt lat="46.7068" lon="6.20906">
        <ele>941.4</ele>
        <time>2021-08-14T15:15:27Z</time>
      </trkpt>
      <trkpt lat="46.70678" lon="6.20904">
        <ele>941.3</ele>
        <time>2021-08-14T15:15:28Z</time>
      </trkpt>
      <trkpt lat="46.70677" lon="6.20902">
        <ele>941.3</ele>
        <time>2021-08-14T15:15:30Z</time>
      </trkpt>
      <trkpt lat="46.70676" lon="6.20899">
        <ele>941.3</ele>
        <time>2021-08-14T15:15:31Z</time>
      </trkpt>
      <trkpt lat="46.70675" lon="6.20897">
        <ele>941.3</ele>
        <time>2021-08-14T15:15:32Z</time>
      </trkpt>
      <trkpt lat="46.70674" lon="6.20895">
        <ele>941.3</ele>
        <time>2021-08-14T15:15:34Z</time>
      </trkpt>
      <trkpt lat="46.70673" lon="6.20893">
        <ele>941.2</ele>
        <time>2021-08-14T15:15:35Z</time>
      </trkpt>
      <trkpt lat="46.70672" lon="6.2089">
        <ele>941.2</ele>
        <time>2021-08-14T15:15:36Z</time>
      </trkpt>
      <trkpt lat="46.70671" lon="6.20888">
        <ele>941.2</ele>
        <time>2021-08-14T15:15:37Z</time>
      </trkpt>
      <trkpt lat="46.7067" lon="6.20886">
        <ele>941.2</ele>
        <time>2021-08-14T15:15:57Z</time>
      </trkpt>
      <trkpt lat="46.70669" lon="6.20884">
        <ele>941.2</ele>
        <time>2021-08-14T15:15:58Z</time>
      </trkpt>
      <trkpt lat="46.70663" lon="6.20877">
        <ele>941.1</ele>
        <time>2021-08-14T15:15:59Z</time>
      </trkpt>
      <trkpt lat="46.7066" lon="6.20874">
        <ele>941</ele>
        <time>2021-08-14T15:16:00Z</time>
      </trkpt>
      <trkpt lat="46.70656" lon="6.2087">
        <ele>941</ele>
        <time>2021-08-14T15:16:01Z</time>
      </trkpt>
      <trkpt lat="46.70653" lon="6.20868">
        <ele>941</ele>
        <time>2021-08-14T15:16:02Z</time>
      </trkpt>
      <trkpt lat="46.70649" lon="6.20866">
        <ele>940.9</ele>
        <time>2021-08-14T15:16:04Z</time>
      </trkpt>
      <trkpt lat="46.70648" lon="6.20865">
        <ele>940.9</ele>
        <time>2021-08-14T15:16:05Z</time>
      </trkpt>
      <trkpt lat="46.70645" lon="6.20863">
        <ele>940.9</ele>
        <time>2021-08-14T15:16:06Z</time>
      </trkpt>
      <trkpt lat="46.70644" lon="6.20861">
        <ele>940.9</ele>
        <time>2021-08-14T15:16:07Z</time>
      </trkpt>
      <trkpt lat="46.70645" lon="6.20861">
        <ele>940.9</ele>
        <time>2021-08-14T15:16:09Z</time>
      </trkpt>
      <trkpt lat="46.70645" lon="6.20861">
        <ele>940.9</ele>
        <time>2021-08-14T15:16:10Z</time>
      </trkpt>
      <trkpt lat="46.70644" lon="6.20861">
        <ele>940.8</ele>
        <time>2021-08-14T15:16:11Z</time>
      </trkpt>
      <trkpt lat="46.70644" lon="6.2086">
        <ele>940.8</ele>
        <time>2021-08-14T15:16:12Z</time>
      </trkpt>
      <trkpt lat="46.70644" lon="6.2086">
        <ele>940.8</ele>
        <time>2021-08-14T15:16:13Z</time>
      </trkpt>
      <trkpt lat="46.70644" lon="6.20859">
        <ele>940.8</ele>
        <time>2021-08-14T15:16:14Z</time>
      </trkpt>
      <trkpt lat="46.70644" lon="6.20859">
        <ele>940.8</ele>
        <time>2021-08-14T15:16:16Z</time>
      </trkpt>
      <trkpt lat="46.70622" lon="6.20834">
        <ele>940.2</ele>
        <time>2021-08-14T15:16:38Z</time>
      </trkpt>
      <trkpt lat="46.70621" lon="6.20829">
        <ele>940.2</ele>
        <time>2021-08-14T15:16:39Z</time>
      </trkpt>
      <trkpt lat="46.7062" lon="6.20822">
        <ele>940.1</ele>
        <time>2021-08-14T15:16:41Z</time>
      </trkpt>
      <trkpt lat="46.7062" lon="6.20816">
        <ele>940.1</ele>
        <time>2021-08-14T15:16:42Z</time>
      </trkpt>
      <trkpt lat="46.70619" lon="6.20808">
        <ele>940.1</ele>
        <time>2021-08-14T15:16:44Z</time>
      </trkpt>
      <trkpt lat="46.70619" lon="6.20805">
        <ele>940</ele>
        <time>2021-08-14T15:16:45Z</time>
      </trkpt>
      <trkpt lat="46.70618" lon="6.20805">
        <ele>940</ele>
        <time>2021-08-14T15:16:46Z</time>
      </trkpt>
      <trkpt lat="46.70617" lon="6.20804">
        <ele>940</ele>
        <time>2021-08-14T15:16:47Z</time>
      </trkpt>
      <trkpt lat="46.70617" lon="6.20804">
        <ele>940</ele>
        <time>2021-08-14T15:16:49Z</time>
      </trkpt>
      <trkpt lat="46.70617" lon="6.20803">
        <ele>940</ele>
        <time>2021-08-14T15:16:51Z</time>
      </trkpt>
      <trkpt lat="46.70617" lon="6.20803">
        <ele>940</ele>
        <time>2021-08-14T15:16:52Z</time>
      </trkpt>
      <trkpt lat="46.70617" lon="6.20803">
        <ele>940</ele>
        <time>2021-08-14T15:16:53Z</time>
      </trkpt>
      <trkpt lat="46.70617" lon="6.20803">
        <ele>940</ele>
        <time>2021-08-14T15:16:54Z</time>
      </trkpt>
      <trkpt lat="46.70617" lon="6.20803">
        <ele>940</ele>
        <time>2021-08-14T15:16:56Z</time>
      </trkpt>
      <trkpt lat="46.70617" lon="6.20803">
        <ele>940</ele>
        <time>2021-08-14T15:16:57Z</time>
      </trkpt>
      <trkpt lat="46.70617" lon="6.20802">
        <ele>940</ele>
        <time>2021-08-14T15:16:58Z</time>
      </trkpt>
      <trkpt lat="46.70616" lon="6.20801">
        <ele>940</ele>
        <time>2021-08-14T15:16:59Z</time>
      </trkpt>
      <trkpt lat="46.70615" lon="6.20798">
        <ele>940</ele>
        <time>2021-08-14T15:17:00Z</time>
      </trkpt>
      <trkpt lat="46.70614" lon="6.20795">
        <ele>940</ele>
        <time>2021-08-14T15:17:02Z</time>
      </trkpt>
      <trkpt lat="46.70598" lon="6.2069">
        <ele>939.3</ele>
        <time>2021-08-14T15:29:36Z</time>
      </trkpt>
      <trkpt lat="46.70599" lon="6.20691">
        <ele>938.3</ele>
        <time>2021-08-14T15:29:38Z</time>
      </trkpt>
      <trkpt lat="46.706" lon="6.20692">
        <ele>938.3</ele>
        <time>2021-08-14T15:29:40Z</time>
      </trkpt>
      <trkpt lat="46.706" lon="6.20693">
        <ele>938.3</ele>
        <time>2021-08-14T15:29:41Z</time>
      </trkpt>
      <trkpt lat="46.70601" lon="6.20694">
        <ele>938.2</ele>
        <time>2021-08-14T15:29:43Z</time>
      </trkpt>
      <trkpt lat="46.70601" lon="6.20695">
        <ele>938.2</ele>
        <time>2021-08-14T15:29:44Z</time>
      </trkpt>
      <trkpt lat="46.70602" lon="6.20696">
        <ele>938.2</ele>
        <time>2021-08-14T15:29:46Z</time>
      </trkpt>
      <trkpt lat="46.70602" lon="6.20697">
        <ele>938.2</ele>
        <time>2021-08-14T15:29:48Z</time>
      </trkpt>
      <trkpt lat="46.70603" lon="6.20699">
        <ele>938.2</ele>
        <time>2021-08-14T15:29:49Z</time>
      </trkpt>
      <trkpt lat="46.70603" lon="6.207">
        <ele>938.2</ele>
        <time>2021-08-14T15:29:50Z</time>
      </trkpt>
      <trkpt lat="46.70618" lon="6.20722">
        <ele>938.2</ele>
        <time>2021-08-14T15:29:52Z</time>
      </trkpt>
      <trkpt lat="46.70621" lon="6.20728">
        <ele>938.1</ele>
        <time>2021-08-14T15:29:53Z</time>
      </trkpt>
      <trkpt lat="46.70623" lon="6.20732">
        <ele>938.1</ele>
        <time>2021-08-14T15:29:54Z</time>
      </trkpt>
      <trkpt lat="46.70625" lon="6.20735">
        <ele>938.1</ele>
        <time>2021-08-14T15:29:56Z</time>
      </trkpt>
      <trkpt lat="46.70627" lon="6.20738">
        <ele>938.1</ele>
        <time>2021-08-14T15:29:58Z</time>
      </trkpt>
      <trkpt lat="46.70628" lon="6.20741">
        <ele>938.1</ele>
        <time>2021-08-14T15:29:59Z</time>
      </trkpt>
      <trkpt lat="46.70629" lon="6.20742">
        <ele>938.1</ele>
        <time>2021-08-14T15:30:01Z</time>
      </trkpt>
      <trkpt lat="46.7063" lon="6.20743">
        <ele>938.1</ele>
        <time>2021-08-14T15:30:02Z</time>
      </trkpt>
      <trkpt lat="46.70631" lon="6.20743">
        <ele>938.1</ele>
        <time>2021-08-14T15:30:03Z</time>
      </trkpt>
      <trkpt lat="46.70632" lon="6.20744">
        <ele>938.1</ele>
        <time>2021-08-14T15:30:05Z</time>
      </trkpt>
      <trkpt lat="46.70632" lon="6.20745">
        <ele>938.1</ele>
        <time>2021-08-14T15:30:06Z</time>
      </trkpt>
      <trkpt lat="46.70633" lon="6.20745">
        <ele>938.1</ele>
        <time>2021-08-14T15:30:07Z</time>
      </trkpt>
      <trkpt lat="46.70633" lon="6.20746">
        <ele>938.1</ele>
        <time>2021-08-14T15:30:09Z</time>
      </trkpt>
      <trkpt lat="46.70633" lon="6.20746">
        <ele>938.1</ele>
        <time>2021-08-14T15:30:10Z</time>
      </trkpt>
      <trkpt lat="46.70634" lon="6.20747">
        <ele>938.1</ele>
        <time>2021-08-14T15:30:12Z</time>
      </trkpt>
      <trkpt lat="46.70634" lon="6.20748">
        <ele>938.1</ele>
        <time>2021-08-14T15:30:15Z</time>
      </trkpt>
      <trkpt lat="46.70634" lon="6.20748">
        <ele>938.1</ele>
        <time>2021-08-14T15:30:16Z</time>
      </trkpt>
      <trkpt lat="46.70634" lon="6.20749">
        <ele>938.1</ele>
        <time>2021-08-14T15:30:18Z</time>
      </trkpt>
      <trkpt lat="46.70634" lon="6.20749">
        <ele>938.1</ele>
        <time>2021-08-14T15:30:19Z</time>
      </trkpt>
      <trkpt lat="46.70634" lon="6.20749">
        <ele>938.1</ele>
        <time>2021-08-14T15:30:21Z</time>
      </trkpt>
      <trkpt lat="46.70634" lon="6.20749">
        <ele>938.1</ele>
        <time>2021-08-14T15:30:23Z</time>
      </trkpt>
      <trkpt lat="46.70621" lon="6.20753">
        <ele>938</ele>
        <time>2021-08-14T15:30:25Z</time>
      </trkpt>
      <trkpt lat="46.70609" lon="6.20755">
        <ele>938</ele>
        <time>2021-08-14T15:30:27Z</time>
      </trkpt>
      <trkpt lat="46.70608" lon="6.20755">
        <ele>938</ele>
        <time>2021-08-14T15:30:28Z</time>
      </trkpt>
      <trkpt lat="46.70608" lon="6.20755">
        <ele>938</ele>
        <time>2021-08-14T15:30:29Z</time>
      </trkpt>
      <trkpt lat="46.70608" lon="6.20755">
        <ele>938</ele>
        <time>2021-08-14T15:30:30Z</time>
      </trkpt>
      <trkpt lat="46.70608" lon="6.20755">
        <ele>938</ele>
        <time>2021-08-14T15:30:32Z</time>
      </trkpt>
      <trkpt lat="46.70608" lon="6.20755">
        <ele>938</ele>
        <time>2021-08-14T15:30:34Z</time>
      </trkpt>
      <trkpt lat="46.70608" lon="6.20755">
        <ele>938</ele>
        <time>2021-08-14T15:30:35Z</time>
      </trkpt>
      <trkpt lat="46.70608" lon="6.20755">
        <ele>938</ele>
        <time>2021-08-14T15:30:36Z</time>
      </trkpt>
      <trkpt lat="46.70608" lon="6.20755">
        <ele>938</ele>
        <time>2021-08-14T15:30:37Z</time>
      </trkpt>
      <trkpt lat="46.70608" lon="6.20755">
        <ele>938</ele>
        <time>2021-08-14T15:30:39Z</time>
      </trkpt>
      <trkpt lat="46.70608" lon="6.20755">
        <ele>938</ele>
        <time>2021-08-14T15:30:41Z</time>
      </trkpt>
      <trkpt lat="46.70608" lon="6.20755">
        <ele>938</ele>
        <time>2021-08-14T15:30:42Z</time>
      </trkpt>
      <trkpt lat="46.70609" lon="6.20754">
        <ele>938</ele>
        <time>2021-08-14T15:30:44Z</time>
      </trkpt>
      <trkpt lat="46.7061" lon="6.20753">
        <ele>938</ele>
        <time>2021-08-14T15:30:45Z</time>
      </trkpt>
      <trkpt lat="46.70611" lon="6.20752">
        <ele>938</ele>
        <time>2021-08-14T15:30:47Z</time>
      </trkpt>
      <trkpt lat="46.70612" lon="6.2075">
        <ele>938</ele>
        <time>2021-08-14T15:30:49Z</time>
      </trkpt>
      <trkpt lat="46.70613" lon="6.20749">
        <ele>938</ele>
        <time>2021-08-14T15:30:51Z</time>
      </trkpt>
      <trkpt lat="46.70614" lon="6.20748">
        <ele>938</ele>
        <time>2021-08-14T15:30:52Z</time>
      </trkpt>
      <trkpt lat="46.70614" lon="6.20748">
        <ele>938</ele>
        <time>2021-08-14T15:30:53Z</time>
      </trkpt>
      <trkpt lat="46.70615" lon="6.20747">
        <ele>938</ele>
        <time>2021-08-14T15:30:55Z</time>
      </trkpt>
      <trkpt lat="46.70615" lon="6.20747">
        <ele>938</ele>
        <time>2021-08-14T15:30:57Z</time>
      </trkpt>
      <trkpt lat="46.70616" lon="6.20746">
        <ele>938</ele>
        <time>2021-08-14T15:30:58Z</time>
      </trkpt>
      <trkpt lat="46.70617" lon="6.20745">
        <ele>938</ele>
        <time>2021-08-14T15:30:59Z</time>
      </trkpt>
      <trkpt lat="46.70617" lon="6.20744">
        <ele>937.9</ele>
        <time>2021-08-14T15:31:00Z</time>
      </trkpt>
      <trkpt lat="46.70618" lon="6.2074">
        <ele>937.9</ele>
        <time>2021-08-14T15:31:02Z</time>
      </trkpt>
      <trkpt lat="46.70619" lon="6.20737">
        <ele>937.9</ele>
        <time>2021-08-14T15:31:03Z</time>
      </trkpt>
      <trkpt lat="46.70619" lon="6.20736">
        <ele>937.9</ele>
        <time>2021-08-14T15:31:05Z</time>
      </trkpt>
      <trkpt lat="46.7062" lon="6.20735">
        <ele>937.9</ele>
        <time>2021-08-14T15:31:07Z</time>
      </trkpt>
      <trkpt lat="46.7062" lon="6.20735">
        <ele>937.9</ele>
        <time>2021-08-14T15:31:08Z</time>
      </trkpt>
      <trkpt lat="46.70621" lon="6.20734">
        <ele>937.9</ele>
        <time>2021-08-14T15:31:09Z</time>
      </trkpt>
      <trkpt lat="46.70621" lon="6.20733">
        <ele>937.9</ele>
        <time>2021-08-14T15:31:11Z</time>
      </trkpt>
      <trkpt lat="46.70621" lon="6.20733">
        <ele>937.9</ele>
        <time>2021-08-14T15:31:12Z</time>
      </trkpt>
      <trkpt lat="46.70622" lon="6.20733">
        <ele>937.9</ele>
        <time>2021-08-14T15:31:13Z</time>
      </trkpt>
      <trkpt lat="46.70622" lon="6.20732">
        <ele>937.9</ele>
        <time>2021-08-14T15:31:15Z</time>
      </trkpt>
      <trkpt lat="46.70622" lon="6.20732">
        <ele>937.9</ele>
        <time>2021-08-14T15:31:16Z</time>
      </trkpt>
      <trkpt lat="46.70622" lon="6.20733">
        <ele>937.9</ele>
        <time>2021-08-14T15:31:17Z</time>
      </trkpt>
      <trkpt lat="46.70622" lon="6.20734">
        <ele>937.9</ele>
        <time>2021-08-14T15:31:18Z</time>
      </trkpt>
      <trkpt lat="46.70622" lon="6.20737">
        <ele>937.9</ele>
        <time>2021-08-14T15:31:20Z</time>
      </trkpt>
      <trkpt lat="46.70621" lon="6.20739">
        <ele>937.9</ele>
        <time>2021-08-14T15:31:21Z</time>
      </trkpt>
      <trkpt lat="46.70621" lon="6.2074">
        <ele>937.9</ele>
        <time>2021-08-14T15:31:23Z</time>
      </trkpt>
      <trkpt lat="46.70621" lon="6.20742">
        <ele>937.9</ele>
        <time>2021-08-14T15:31:24Z</time>
      </trkpt>
      <trkpt lat="46.70621" lon="6.20743">
        <ele>937.9</ele>
        <time>2021-08-14T15:31:25Z</time>
      </trkpt>
      <trkpt lat="46.7062" lon="6.20743">
        <ele>937.9</ele>
        <time>2021-08-14T15:31:27Z</time>
      </trkpt>
      <trkpt lat="46.7062" lon="6.20744">
        <ele>937.9</ele>
        <time>2021-08-14T15:31:28Z</time>
      </trkpt>
      <trkpt lat="46.70621" lon="6.20744">
        <ele>937.9</ele>
        <time>2021-08-14T15:31:30Z</time>
      </trkpt>
      <trkpt lat="46.70621" lon="6.20743">
        <ele>937.9</ele>
        <time>2021-08-14T15:31:32Z</time>
      </trkpt>
      <trkpt lat="46.70622" lon="6.20743">
        <ele>937.9</ele>
        <time>2021-08-14T15:31:33Z</time>
      </trkpt>
      <trkpt lat="46.70623" lon="6.20743">
        <ele>937.9</ele>
        <time>2021-08-14T15:31:34Z</time>
      </trkpt>
      <trkpt lat="46.70623" lon="6.20744">
        <ele>937.9</ele>
        <time>2021-08-14T15:31:36Z</time>
      </trkpt>
      <trkpt lat="46.70623" lon="6.20743">
        <ele>937.9</ele>
        <time>2021-08-14T15:31:37Z</time>
      </trkpt>
      <trkpt lat="46.70623" lon="6.20743">
        <ele>937.9</ele>
        <time>2021-08-14T15:31:39Z</time>
      </trkpt>
      <trkpt lat="46.70623" lon="6.20743">
        <ele>937.9</ele>
        <time>2021-08-14T15:31:40Z</time>
      </trkpt>
      <trkpt lat="46.70623" lon="6.20743">
        <ele>937.9</ele>
        <time>2021-08-14T15:31:42Z</time>
      </trkpt>
      <trkpt lat="46.70623" lon="6.20743">
        <ele>937.9</ele>
        <time>2021-08-14T15:31:44Z</time>
      </trkpt>
      <trkpt lat="46.70623" lon="6.20743">
        <ele>937.9</ele>
        <time>2021-08-14T15:31:45Z</time>
      </trkpt>
      <trkpt lat="46.70624" lon="6.20743">
        <ele>937.9</ele>
        <time>2021-08-14T15:31:47Z</time>
      </trkpt>
      <trkpt lat="46.70624" lon="6.20743">
        <ele>937.9</ele>
        <time>2021-08-14T15:31:48Z</time>
      </trkpt>
      <trkpt lat="46.70624" lon="6.20743">
        <ele>937.9</ele>
        <time>2021-08-14T15:31:49Z</time>
      </trkpt>
      <trkpt lat="46.70624" lon="6.20743">
        <ele>937.9</ele>
        <time>2021-08-14T15:31:50Z</time>
      </trkpt>
      <trkpt lat="46.70622" lon="6.20743">
        <ele>937.9</ele>
        <time>2021-08-14T15:31:51Z</time>
      </trkpt>
      <trkpt lat="46.70621" lon="6.20743">
        <ele>937.9</ele>
        <time>2021-08-14T15:31:53Z</time>
      </trkpt>
      <trkpt lat="46.70619" lon="6.20743">
        <ele>937.9</ele>
        <time>2021-08-14T15:31:54Z</time>
      </trkpt>
      <trkpt lat="46.70619" lon="6.20743">
        <ele>937.9</ele>
        <time>2021-08-14T15:31:55Z</time>
      </trkpt>
      <trkpt lat="46.70618" lon="6.20744">
        <ele>937.9</ele>
        <time>2021-08-14T15:31:56Z</time>
      </trkpt>
      <trkpt lat="46.70617" lon="6.20745">
        <ele>937.9</ele>
        <time>2021-08-14T15:31:58Z</time>
      </trkpt>
      <trkpt lat="46.70617" lon="6.20747">
        <ele>937.8</ele>
        <time>2021-08-14T15:32:00Z</time>
      </trkpt>
      <trkpt lat="46.70616" lon="6.20748">
        <ele>937.8</ele>
        <time>2021-08-14T15:32:01Z</time>
      </trkpt>
      <trkpt lat="46.70616" lon="6.20749">
        <ele>937.8</ele>
        <time>2021-08-14T15:32:02Z</time>
      </trkpt>
      <trkpt lat="46.70615" lon="6.20752">
        <ele>937.8</ele>
        <time>2021-08-14T15:32:04Z</time>
      </trkpt>
      <trkpt lat="46.70614" lon="6.20753">
        <ele>937.8</ele>
        <time>2021-08-14T15:32:06Z</time>
      </trkpt>
      <trkpt lat="46.70613" lon="6.20754">
        <ele>937.8</ele>
        <time>2021-08-14T15:32:08Z</time>
      </trkpt>
      <trkpt lat="46.70612" lon="6.20755">
        <ele>937.8</ele>
        <time>2021-08-14T15:32:10Z</time>
      </trkpt>
      <trkpt lat="46.70612" lon="6.20755">
        <ele>937.8</ele>
        <time>2021-08-14T15:32:11Z</time>
      </trkpt>
      <trkpt lat="46.70613" lon="6.20755">
        <ele>937.8</ele>
        <time>2021-08-14T15:32:12Z</time>
      </trkpt>
      <trkpt lat="46.70614" lon="6.20755">
        <ele>937.8</ele>
        <time>2021-08-14T15:32:14Z</time>
      </trkpt>
      <trkpt lat="46.70615" lon="6.20755">
        <ele>937.8</ele>
        <time>2021-08-14T15:32:16Z</time>
      </trkpt>
      <trkpt lat="46.70614" lon="6.20756">
        <ele>937.8</ele>
        <time>2021-08-14T15:32:18Z</time>
      </trkpt>
      <trkpt lat="46.70612" lon="6.20759">
        <ele>937.8</ele>
        <time>2021-08-14T15:32:19Z</time>
      </trkpt>
      <trkpt lat="46.7061" lon="6.20761">
        <ele>937.8</ele>
        <time>2021-08-14T15:32:20Z</time>
      </trkpt>
      <trkpt lat="46.70606" lon="6.20764">
        <ele>937.8</ele>
        <time>2021-08-14T15:32:22Z</time>
      </trkpt>
      <trkpt lat="46.70607" lon="6.20764">
        <ele>937.8</ele>
        <time>2021-08-14T15:32:23Z</time>
      </trkpt>
      <trkpt lat="46.7061" lon="6.20761">
        <ele>937.8</ele>
        <time>2021-08-14T15:32:25Z</time>
      </trkpt>
      <trkpt lat="46.7061" lon="6.20761">
        <ele>937.8</ele>
        <time>2021-08-14T15:32:26Z</time>
      </trkpt>
      <trkpt lat="46.70609" lon="6.2076">
        <ele>937.8</ele>
        <time>2021-08-14T15:32:28Z</time>
      </trkpt>
      <trkpt lat="46.70608" lon="6.20758">
        <ele>937.8</ele>
        <time>2021-08-14T15:32:30Z</time>
      </trkpt>
      <trkpt lat="46.70608" lon="6.20756">
        <ele>937.8</ele>
        <time>2021-08-14T15:32:31Z</time>
      </trkpt>
      <trkpt lat="46.70608" lon="6.20755">
        <ele>937.8</ele>
        <time>2021-08-14T15:32:32Z</time>
      </trkpt>
      <trkpt lat="46.70608" lon="6.20755">
        <ele>937.8</ele>
        <time>2021-08-14T15:32:33Z</time>
      </trkpt>
      <trkpt lat="46.70608" lon="6.20753">
        <ele>937.8</ele>
        <time>2021-08-14T15:32:35Z</time>
      </trkpt>
      <trkpt lat="46.70608" lon="6.20752">
        <ele>937.8</ele>
        <time>2021-08-14T15:32:37Z</time>
      </trkpt>
      <trkpt lat="46.70608" lon="6.20751">
        <ele>937.8</ele>
        <time>2021-08-14T15:32:38Z</time>
      </trkpt>
      <trkpt lat="46.70609" lon="6.20751">
        <ele>937.8</ele>
        <time>2021-08-14T15:32:39Z</time>
      </trkpt>
      <trkpt lat="46.70609" lon="6.2075">
        <ele>937.8</ele>
        <time>2021-08-14T15:32:41Z</time>
      </trkpt>
      <trkpt lat="46.70609" lon="6.2075">
        <ele>937.8</ele>
        <time>2021-08-14T15:32:43Z</time>
      </trkpt>
      <trkpt lat="46.70609" lon="6.2075">
        <ele>937.8</ele>
        <time>2021-08-14T15:32:44Z</time>
      </trkpt>
      <trkpt lat="46.7061" lon="6.2075">
        <ele>937.8</ele>
        <time>2021-08-14T15:32:46Z</time>
      </trkpt>
      <trkpt lat="46.7061" lon="6.2075">
        <ele>937.8</ele>
        <time>2021-08-14T15:32:47Z</time>
      </trkpt>
      <trkpt lat="46.7061" lon="6.2075">
        <ele>937.8</ele>
        <time>2021-08-14T15:32:49Z</time>
      </trkpt>
      <trkpt lat="46.7061" lon="6.2075">
        <ele>937.8</ele>
        <time>2021-08-14T15:32:50Z</time>
      </trkpt>
      <trkpt lat="46.7061" lon="6.2075">
        <ele>937.8</ele>
        <time>2021-08-14T15:32:51Z</time>
      </trkpt>
      <trkpt lat="46.7061" lon="6.2075">
        <ele>937.8</ele>
        <time>2021-08-14T15:32:53Z</time>
      </trkpt>
      <trkpt lat="46.7061" lon="6.2075">
        <ele>937.8</ele>
        <time>2021-08-14T15:32:54Z</time>
      </trkpt>
      <trkpt lat="46.7061" lon="6.2075">
        <ele>937.8</ele>
        <time>2021-08-14T15:32:55Z</time>
      </trkpt>
      <trkpt lat="46.7061" lon="6.2075">
        <ele>937.7</ele>
        <time>2021-08-14T15:32:56Z</time>
      </trkpt>
      <trkpt lat="46.70609" lon="6.20752">
        <ele>937.7</ele>
        <time>2021-08-14T15:32:58Z</time>
      </trkpt>
      <trkpt lat="46.70608" lon="6.20752">
        <ele>937.7</ele>
        <time>2021-08-14T15:33:00Z</time>
      </trkpt>
      <trkpt lat="46.70608" lon="6.20754">
        <ele>937.7</ele>
        <time>2021-08-14T15:33:07Z</time>
      </trkpt>
      <trkpt lat="46.70608" lon="6.20754">
        <ele>937.7</ele>
        <time>2021-08-14T15:33:09Z</time>
      </trkpt>
      <trkpt lat="46.70608" lon="6.20754">
        <ele>937.7</ele>
        <time>2021-08-14T15:33:10Z</time>
      </trkpt>
      <trkpt lat="46.70608" lon="6.20755">
        <ele>937.7</ele>
        <time>2021-08-14T15:33:11Z</time>
      </trkpt>
      <trkpt lat="46.70608" lon="6.20755">
        <ele>937.7</ele>
        <time>2021-08-14T15:33:13Z</time>
      </trkpt>
      <trkpt lat="46.7061" lon="6.20755">
        <ele>937.7</ele>
        <time>2021-08-14T15:33:14Z</time>
      </trkpt>
      <trkpt lat="46.70612" lon="6.20756">
        <ele>937.7</ele>
        <time>2021-08-14T15:33:16Z</time>
      </trkpt>
      <trkpt lat="46.70615" lon="6.20757">
        <ele>937.7</ele>
        <time>2021-08-14T15:33:17Z</time>
      </trkpt>
      <trkpt lat="46.7062" lon="6.20757">
        <ele>937.7</ele>
        <time>2021-08-14T15:33:18Z</time>
      </trkpt>
      <trkpt lat="46.70627" lon="6.20758">
        <ele>937.7</ele>
        <time>2021-08-14T15:33:19Z</time>
      </trkpt>
      <trkpt lat="46.70629" lon="6.20759">
        <ele>937.7</ele>
        <time>2021-08-14T15:33:21Z</time>
      </trkpt>
      <trkpt lat="46.70629" lon="6.20759">
        <ele>937.7</ele>
        <time>2021-08-14T15:33:23Z</time>
      </trkpt>
      <trkpt lat="46.7063" lon="6.20758">
        <ele>937.7</ele>
        <time>2021-08-14T15:33:25Z</time>
      </trkpt>
      <trkpt lat="46.70632" lon="6.20756">
        <ele>937.7</ele>
        <time>2021-08-14T15:33:26Z</time>
      </trkpt>
      <trkpt lat="46.70634" lon="6.20755">
        <ele>937.7</ele>
        <time>2021-08-14T15:33:28Z</time>
      </trkpt>
      <trkpt lat="46.70634" lon="6.20755">
        <ele>937.7</ele>
        <time>2021-08-14T15:33:30Z</time>
      </trkpt>
      <trkpt lat="46.70635" lon="6.20755">
        <ele>937.7</ele>
        <time>2021-08-14T15:33:31Z</time>
      </trkpt>
      <trkpt lat="46.70635" lon="6.20754">
        <ele>937.7</ele>
        <time>2021-08-14T15:33:32Z</time>
      </trkpt>
      <trkpt lat="46.70635" lon="6.20754">
        <ele>937.7</ele>
        <time>2021-08-14T15:33:33Z</time>
      </trkpt>
      <trkpt lat="46.70635" lon="6.20754">
        <ele>937.7</ele>
        <time>2021-08-14T15:33:35Z</time>
      </trkpt>
      <trkpt lat="46.70635" lon="6.20754">
        <ele>937.7</ele>
        <time>2021-08-14T15:33:36Z</time>
      </trkpt>
      <trkpt lat="46.70635" lon="6.20754">
        <ele>937.7</ele>
        <time>2021-08-14T15:33:38Z</time>
      </trkpt>
      <trkpt lat="46.70635" lon="6.20754">
        <ele>937.7</ele>
        <time>2021-08-14T15:33:39Z</time>
      </trkpt>
      <trkpt lat="46.70636" lon="6.20754">
        <ele>937.7</ele>
        <time>2021-08-14T15:33:40Z</time>
      </trkpt>
      <trkpt lat="46.70635" lon="6.20753">
        <ele>937.7</ele>
        <time>2021-08-14T15:33:42Z</time>
      </trkpt>
      <trkpt lat="46.70634" lon="6.20752">
        <ele>937.7</ele>
        <time>2021-08-14T15:33:43Z</time>
      </trkpt>
      <trkpt lat="46.70632" lon="6.20749">
        <ele>937.6</ele>
        <time>2021-08-14T15:33:45Z</time>
      </trkpt>
      <trkpt lat="46.70627" lon="6.20748">
        <ele>937.6</ele>
        <time>2021-08-14T15:33:46Z</time>
      </trkpt>
      <trkpt lat="46.70623" lon="6.20748">
        <ele>937.6</ele>
        <time>2021-08-14T15:33:48Z</time>
      </trkpt>
      <trkpt lat="46.70619" lon="6.20747">
        <ele>937.6</ele>
        <time>2021-08-14T15:33:49Z</time>
      </trkpt>
      <trkpt lat="46.70616" lon="6.20749">
        <ele>937.6</ele>
        <time>2021-08-14T15:33:50Z</time>
      </trkpt>
      <trkpt lat="46.7061" lon="6.2075">
        <ele>937.6</ele>
        <time>2021-08-14T15:33:52Z</time>
      </trkpt>
      <trkpt lat="46.70605" lon="6.20752">
        <ele>937.6</ele>
        <time>2021-08-14T15:33:53Z</time>
      </trkpt>
      <trkpt lat="46.70601" lon="6.20751">
        <ele>937.6</ele>
        <time>2021-08-14T15:33:55Z</time>
      </trkpt>
      <trkpt lat="46.70596" lon="6.20748">
        <ele>937.5</ele>
        <time>2021-08-14T15:33:56Z</time>
      </trkpt>
      <trkpt lat="46.70595" lon="6.20747">
        <ele>937.5</ele>
        <time>2021-08-14T15:33:58Z</time>
      </trkpt>
      <trkpt lat="46.70595" lon="6.20747">
        <ele>937.5</ele>
        <time>2021-08-14T15:33:59Z</time>
      </trkpt>
      <trkpt lat="46.70595" lon="6.20747">
        <ele>937.5</ele>
        <time>2021-08-14T15:34:00Z</time>
      </trkpt>
      <trkpt lat="46.70595" lon="6.20748">
        <ele>937.5</ele>
        <time>2021-08-14T15:34:01Z</time>
      </trkpt>
      <trkpt lat="46.70596" lon="6.20748">
        <ele>937.5</ele>
        <time>2021-08-14T15:34:03Z</time>
      </trkpt>
      <trkpt lat="46.70596" lon="6.20747">
        <ele>937.5</ele>
        <time>2021-08-14T15:34:04Z</time>
      </trkpt>
      <trkpt lat="46.70596" lon="6.20747">
        <ele>937.5</ele>
        <time>2021-08-14T15:34:05Z</time>
      </trkpt>
      <trkpt lat="46.70629" lon="6.20741">
        <ele>937.5</ele>
        <time>2021-08-14T15:36:06Z</time>
      </trkpt>
      <trkpt lat="46.70618" lon="6.20732">
        <ele>937.4</ele>
        <time>2021-08-14T15:36:14Z</time>
      </trkpt>
      <trkpt lat="46.70615" lon="6.20732">
        <ele>937.4</ele>
        <time>2021-08-14T15:36:15Z</time>
      </trkpt>
      <trkpt lat="46.70612" lon="6.20735">
        <ele>937.4</ele>
        <time>2021-08-14T15:36:17Z</time>
      </trkpt>
      <trkpt lat="46.7061" lon="6.20735">
        <ele>937.4</ele>
        <time>2021-08-14T15:36:18Z</time>
      </trkpt>
      <trkpt lat="46.70605" lon="6.20737">
        <ele>937.4</ele>
        <time>2021-08-14T15:36:19Z</time>
      </trkpt>
      <trkpt lat="46.70601" lon="6.20737">
        <ele>937.4</ele>
        <time>2021-08-14T15:36:21Z</time>
      </trkpt>
      <trkpt lat="46.70598" lon="6.20736">
        <ele>937.4</ele>
        <time>2021-08-14T15:36:23Z</time>
      </trkpt>
      <trkpt lat="46.70644" lon="6.20725">
        <ele>937.3</ele>
        <time>2021-08-14T15:40:06Z</time>
      </trkpt>
      <trkpt lat="46.70645" lon="6.20726">
        <ele>937.3</ele>
        <time>2021-08-14T15:40:07Z</time>
      </trkpt>
      <trkpt lat="46.70646" lon="6.20726">
        <ele>937.3</ele>
        <time>2021-08-14T15:40:09Z</time>
      </trkpt>
      <trkpt lat="46.70646" lon="6.20725">
        <ele>937.3</ele>
        <time>2021-08-14T15:40:10Z</time>
      </trkpt>
      <trkpt lat="46.70646" lon="6.20725">
        <ele>937.3</ele>
        <time>2021-08-14T15:40:12Z</time>
      </trkpt>
      <trkpt lat="46.70647" lon="6.20725">
        <ele>937.3</ele>
        <time>2021-08-14T15:40:13Z</time>
      </trkpt>
      <trkpt lat="46.70648" lon="6.20724">
        <ele>937.3</ele>
        <time>2021-08-14T15:40:15Z</time>
      </trkpt>
      <trkpt lat="46.70649" lon="6.20723">
        <ele>937.3</ele>
        <time>2021-08-14T15:40:16Z</time>
      </trkpt>
      <trkpt lat="46.70654" lon="6.20722">
        <ele>937.3</ele>
        <time>2021-08-14T15:40:18Z</time>
      </trkpt>
      <trkpt lat="46.70658" lon="6.20721">
        <ele>937.3</ele>
        <time>2021-08-14T15:40:19Z</time>
      </trkpt>
      <trkpt lat="46.70672" lon="6.20717">
        <ele>937.4</ele>
        <time>2021-08-14T15:40:21Z</time>
      </trkpt>
      <trkpt lat="46.70681" lon="6.20715">
        <ele>937.4</ele>
        <time>2021-08-14T15:40:23Z</time>
      </trkpt>
      <trkpt lat="46.70681" lon="6.20715">
        <ele>937.4</ele>
        <time>2021-08-14T15:40:24Z</time>
      </trkpt>
      <trkpt lat="46.70682" lon="6.20714">
        <ele>937.5</ele>
        <time>2021-08-14T15:40:26Z</time>
      </trkpt>
      <trkpt lat="46.70682" lon="6.20713">
        <ele>937.5</ele>
        <time>2021-08-14T15:40:28Z</time>
      </trkpt>
      <trkpt lat="46.70682" lon="6.20712">
        <ele>937.5</ele>
        <time>2021-08-14T15:40:29Z</time>
      </trkpt>
      <trkpt lat="46.70681" lon="6.20712">
        <ele>937.5</ele>
        <time>2021-08-14T15:40:30Z</time>
      </trkpt>
      <trkpt lat="46.70681" lon="6.20712">
        <ele>937.5</ele>
        <time>2021-08-14T15:40:32Z</time>
      </trkpt>
      <trkpt lat="46.70623" lon="6.20733">
        <ele>938.1</ele>
        <time>2021-08-14T15:42:07Z</time>
      </trkpt>
      <trkpt lat="46.70621" lon="6.20732">
        <ele>938.1</ele>
        <time>2021-08-14T15:42:08Z</time>
      </trkpt>
      <trkpt lat="46.70615" lon="6.20735">
        <ele>938.2</ele>
        <time>2021-08-14T15:42:10Z</time>
      </trkpt>
      <trkpt lat="46.70612" lon="6.20736">
        <ele>938.2</ele>
        <time>2021-08-14T15:42:11Z</time>
      </trkpt>
      <trkpt lat="46.70606" lon="6.20739">
        <ele>938.3</ele>
        <time>2021-08-14T15:42:13Z</time>
      </trkpt>
      <trkpt lat="46.70602" lon="6.2074">
        <ele>938.3</ele>
        <time>2021-08-14T15:42:14Z</time>
      </trkpt>
      <trkpt lat="46.70599" lon="6.20743">
        <ele>938.4</ele>
        <time>2021-08-14T15:42:16Z</time>
      </trkpt>
      <trkpt lat="46.70603" lon="6.20746">
        <ele>938.4</ele>
        <time>2021-08-14T15:42:18Z</time>
      </trkpt>
      <trkpt lat="46.70608" lon="6.20748">
        <ele>938.5</ele>
        <time>2021-08-14T15:42:19Z</time>
      </trkpt>
      <trkpt lat="46.70613" lon="6.20751">
        <ele>938.3</ele>
        <time>2021-08-14T15:42:20Z</time>
      </trkpt>
      <trkpt lat="46.70618" lon="6.20753">
        <ele>938.3</ele>
        <time>2021-08-14T15:42:21Z</time>
      </trkpt>
      <trkpt lat="46.70623" lon="6.20755">
        <ele>938.3</ele>
        <time>2021-08-14T15:42:23Z</time>
      </trkpt>
      <trkpt lat="46.70628" lon="6.20757">
        <ele>938.3</ele>
        <time>2021-08-14T15:48:29Z</time>
      </trkpt>
      <trkpt lat="46.70633" lon="6.20759">
        <ele>938.2</ele>
        <time>2021-08-14T15:48:30Z</time>
      </trkpt>
      <trkpt lat="46.70626" lon="6.20747">
        <ele>938.2</ele>
        <time>2021-08-14T15:48:32Z</time>
      </trkpt>
      <trkpt lat="46.70626" lon="6.20747">
        <ele>938.2</ele>
        <time>2021-08-14T15:48:33Z</time>
      </trkpt>
      <trkpt lat="46.70625" lon="6.20746">
        <ele>938.2</ele>
        <time>2021-08-14T15:48:34Z</time>
      </trkpt>
      <trkpt lat="46.70625" lon="6.20746">
        <ele>938.2</ele>
        <time>2021-08-14T15:48:36Z</time>
      </trkpt>
      <trkpt lat="46.70625" lon="6.20746">
        <ele>938.2</ele>
        <time>2021-08-14T15:48:37Z</time>
      </trkpt>
      <trkpt lat="46.70625" lon="6.20747">
        <ele>938.2</ele>
        <time>2021-08-14T15:48:39Z</time>
      </trkpt>
      <trkpt lat="46.70626" lon="6.20747">
        <ele>938.2</ele>
        <time>2021-08-14T15:48:40Z</time>
      </trkpt>
      <trkpt lat="46.70626" lon="6.20748">
        <ele>938.2</ele>
        <time>2021-08-14T15:48:41Z</time>
      </trkpt>
      <trkpt lat="46.70627" lon="6.20747">
        <ele>938.2</ele>
        <time>2021-08-14T15:48:42Z</time>
      </trkpt>
      <trkpt lat="46.70628" lon="6.20742">
        <ele>938.2</ele>
        <time>2021-08-14T15:48:44Z</time>
      </trkpt>
      <trkpt lat="46.7063" lon="6.20738">
        <ele>938.1</ele>
        <time>2021-08-14T15:48:45Z</time>
      </trkpt>
      <trkpt lat="46.7063" lon="6.20737">
        <ele>938.1</ele>
        <time>2021-08-14T15:48:46Z</time>
      </trkpt>
      <trkpt lat="46.7063" lon="6.20736">
        <ele>938.1</ele>
        <time>2021-08-14T15:48:47Z</time>
      </trkpt>
      <trkpt lat="46.7063" lon="6.20736">
        <ele>938.1</ele>
        <time>2021-08-14T15:48:48Z</time>
      </trkpt>
      <trkpt lat="46.7063" lon="6.20735">
        <ele>938.1</ele>
        <time>2021-08-14T15:48:49Z</time>
      </trkpt>
      <trkpt lat="46.7063" lon="6.20735">
        <ele>938.1</ele>
        <time>2021-08-14T15:48:51Z</time>
      </trkpt>
      <trkpt lat="46.7063" lon="6.20734">
        <ele>938.1</ele>
        <time>2021-08-14T15:48:52Z</time>
      </trkpt>
      <trkpt lat="46.7063" lon="6.20734">
        <ele>938.1</ele>
        <time>2021-08-14T15:48:54Z</time>
      </trkpt>
      <trkpt lat="46.7063" lon="6.20734">
        <ele>938.1</ele>
        <time>2021-08-14T15:48:56Z</time>
      </trkpt>
      <trkpt lat="46.70628" lon="6.20733">
        <ele>938.1</ele>
        <time>2021-08-14T15:48:58Z</time>
      </trkpt>
      <trkpt lat="46.70626" lon="6.20732">
        <ele>938.1</ele>
        <time>2021-08-14T15:49:00Z</time>
      </trkpt>
      <trkpt lat="46.70624" lon="6.20732">
        <ele>938.1</ele>
        <time>2021-08-14T15:49:02Z</time>
      </trkpt>
      <trkpt lat="46.70623" lon="6.20732">
        <ele>938.1</ele>
        <time>2021-08-14T15:49:04Z</time>
      </trkpt>
      <trkpt lat="46.70622" lon="6.20732">
        <ele>938.1</ele>
        <time>2021-08-14T15:49:05Z</time>
      </trkpt>
      <trkpt lat="46.70617" lon="6.20738">
        <ele>938.1</ele>
        <time>2021-08-14T15:49:07Z</time>
      </trkpt>
      <trkpt lat="46.70615" lon="6.2074">
        <ele>938.1</ele>
        <time>2021-08-14T15:49:08Z</time>
      </trkpt>
      <trkpt lat="46.70612" lon="6.20743">
        <ele>938</ele>
        <time>2021-08-14T15:49:10Z</time>
      </trkpt>
      <trkpt lat="46.70612" lon="6.20743">
        <ele>938</ele>
        <time>2021-08-14T15:49:11Z</time>
      </trkpt>
      <trkpt lat="46.70612" lon="6.20743">
        <ele>938</ele>
        <time>2021-08-14T15:49:12Z</time>
      </trkpt>
      <trkpt lat="46.70612" lon="6.20743">
        <ele>938</ele>
        <time>2021-08-14T15:49:14Z</time>
      </trkpt>
      <trkpt lat="46.70612" lon="6.20743">
        <ele>938</ele>
        <time>2021-08-14T15:49:16Z</time>
      </trkpt>
      <trkpt lat="46.70612" lon="6.20743">
        <ele>938</ele>
        <time>2021-08-14T15:49:17Z</time>
      </trkpt>
      <trkpt lat="46.70612" lon="6.20743">
        <ele>938</ele>
        <time>2021-08-14T15:49:18Z</time>
      </trkpt>
      <trkpt lat="46.70612" lon="6.20743">
        <ele>938</ele>
        <time>2021-08-14T15:49:19Z</time>
      </trkpt>
      <trkpt lat="46.70612" lon="6.20743">
        <ele>938</ele>
        <time>2021-08-14T15:49:20Z</time>
      </trkpt>
      <trkpt lat="46.70612" lon="6.20743">
        <ele>938</ele>
        <time>2021-08-14T15:49:22Z</time>
      </trkpt>
      <trkpt lat="46.70612" lon="6.20743">
        <ele>938</ele>
        <time>2021-08-14T15:49:23Z</time>
      </trkpt>
      <trkpt lat="46.70612" lon="6.20743">
        <ele>938</ele>
        <time>2021-08-14T15:49:24Z</time>
      </trkpt>
      <trkpt lat="46.70612" lon="6.20743">
        <ele>938</ele>
        <time>2021-08-14T15:49:25Z</time>
      </trkpt>
      <trkpt lat="46.70612" lon="6.20743">
        <ele>938</ele>
        <time>2021-08-14T15:49:26Z</time>
      </trkpt>
      <trkpt lat="46.70612" lon="6.20743">
        <ele>938</ele>
        <time>2021-08-14T15:49:28Z</time>
      </trkpt>
      <trkpt lat="46.70612" lon="6.20743">
        <ele>938</ele>
        <time>2021-08-14T15:49:29Z</time>
      </trkpt>
      <trkpt lat="46.70612" lon="6.20743">
        <ele>938</ele>
        <time>2021-08-14T15:49:30Z</time>
      </trkpt>
      <trkpt lat="46.70612" lon="6.20743">
        <ele>938</ele>
        <time>2021-08-14T15:49:32Z</time>
      </trkpt>
      <trkpt lat="46.70612" lon="6.20743">
        <ele>938</ele>
        <time>2021-08-14T15:49:34Z</time>
      </trkpt>
      <trkpt lat="46.70612" lon="6.20743">
        <ele>938</ele>
        <time>2021-08-14T15:49:35Z</time>
      </trkpt>
      <trkpt lat="46.70612" lon="6.20743">
        <ele>938</ele>
        <time>2021-08-14T15:49:36Z</time>
      </trkpt>
      <trkpt lat="46.70612" lon="6.20743">
        <ele>938</ele>
        <time>2021-08-14T15:49:38Z</time>
      </trkpt>
      <trkpt lat="46.70612" lon="6.20743">
        <ele>938</ele>
        <time>2021-08-14T15:49:40Z</time>
      </trkpt>
      <trkpt lat="46.70612" lon="6.20743">
        <ele>938</ele>
        <time>2021-08-14T15:49:41Z</time>
      </trkpt>
      <trkpt lat="46.70612" lon="6.20743">
        <ele>938</ele>
        <time>2021-08-14T15:49:42Z</time>
      </trkpt>
      <trkpt lat="46.70612" lon="6.20743">
        <ele>938</ele>
        <time>2021-08-14T15:49:43Z</time>
      </trkpt>
      <trkpt lat="46.70612" lon="6.20743">
        <ele>938</ele>
        <time>2021-08-14T15:49:44Z</time>
      </trkpt>
      <trkpt lat="46.70612" lon="6.20743">
        <ele>938</ele>
        <time>2021-08-14T15:49:46Z</time>
      </trkpt>
      <trkpt lat="46.70612" lon="6.20743">
        <ele>938</ele>
        <time>2021-08-14T15:49:47Z</time>
      </trkpt>
      <trkpt lat="46.70612" lon="6.20743">
        <ele>938</ele>
        <time>2021-08-14T15:49:49Z</time>
      </trkpt>
      <trkpt lat="46.70612" lon="6.20743">
        <ele>938</ele>
        <time>2021-08-14T15:49:50Z</time>
      </trkpt>
      <trkpt lat="46.70612" lon="6.20743">
        <ele>938</ele>
        <time>2021-08-14T15:49:52Z</time>
      </trkpt>
      <trkpt lat="46.70612" lon="6.20743">
        <ele>938</ele>
        <time>2021-08-14T15:49:53Z</time>
      </trkpt>
      <trkpt lat="46.70612" lon="6.20743">
        <ele>938</ele>
        <time>2021-08-14T15:49:54Z</time>
      </trkpt>
      <trkpt lat="46.70612" lon="6.20743">
        <ele>938</ele>
        <time>2021-08-14T15:49:55Z</time>
      </trkpt>
      <trkpt lat="46.70612" lon="6.20743">
        <ele>938</ele>
        <time>2021-08-14T15:49:56Z</time>
      </trkpt>
      <trkpt lat="46.70612" lon="6.20743">
        <ele>938</ele>
        <time>2021-08-14T15:49:58Z</time>
      </trkpt>
      <trkpt lat="46.70612" lon="6.20743">
        <ele>938</ele>
        <time>2021-08-14T15:49:59Z</time>
      </trkpt>
      <trkpt lat="46.70612" lon="6.20743">
        <ele>938</ele>
        <time>2021-08-14T15:50:01Z</time>
      </trkpt>
      <trkpt lat="46.70612" lon="6.20743">
        <ele>938</ele>
        <time>2021-08-14T15:50:02Z</time>
      </trkpt>
      <trkpt lat="46.70619" lon="6.20737">
        <ele>938</ele>
        <time>2021-08-14T15:50:04Z</time>
      </trkpt>
      <trkpt lat="46.70622" lon="6.20734">
        <ele>938</ele>
        <time>2021-08-14T15:50:06Z</time>
      </trkpt>
      <trkpt lat="46.70623" lon="6.20733">
        <ele>938</ele>
        <time>2021-08-14T15:50:07Z</time>
      </trkpt>
      <trkpt lat="46.70625" lon="6.20732">
        <ele>938</ele>
        <time>2021-08-14T15:50:08Z</time>
      </trkpt>
      <trkpt lat="46.70625" lon="6.20732">
        <ele>938</ele>
        <time>2021-08-14T15:50:09Z</time>
      </trkpt>
      <trkpt lat="46.70625" lon="6.20732">
        <ele>938</ele>
        <time>2021-08-14T15:50:11Z</time>
      </trkpt>
      <trkpt lat="46.70626" lon="6.20732">
        <ele>938</ele>
        <time>2021-08-14T15:50:12Z</time>
      </trkpt>
      <trkpt lat="46.70626" lon="6.20732">
        <ele>938</ele>
        <time>2021-08-14T15:50:13Z</time>
      </trkpt>
      <trkpt lat="46.70626" lon="6.20732">
        <ele>938</ele>
        <time>2021-08-14T15:50:15Z</time>
      </trkpt>
      <trkpt lat="46.70626" lon="6.20732">
        <ele>938</ele>
        <time>2021-08-14T15:50:17Z</time>
      </trkpt>
      <trkpt lat="46.70627" lon="6.20731">
        <ele>938</ele>
        <time>2021-08-14T15:50:18Z</time>
      </trkpt>
      <trkpt lat="46.70629" lon="6.2073">
        <ele>938</ele>
        <time>2021-08-14T15:50:20Z</time>
      </trkpt>
      <trkpt lat="46.70631" lon="6.20729">
        <ele>937.9</ele>
        <time>2021-08-14T15:50:22Z</time>
      </trkpt>
      <trkpt lat="46.70631" lon="6.20729">
        <ele>937.9</ele>
        <time>2021-08-14T15:50:23Z</time>
      </trkpt>
      <trkpt lat="46.70633" lon="6.20716">
        <ele>937.9</ele>
        <time>2021-08-14T15:50:25Z</time>
      </trkpt>
      <trkpt lat="46.70634" lon="6.20704">
        <ele>937.9</ele>
        <time>2021-08-14T15:50:26Z</time>
      </trkpt>
      <trkpt lat="46.70635" lon="6.20696">
        <ele>937.8</ele>
        <time>2021-08-14T15:50:28Z</time>
      </trkpt>
      <trkpt lat="46.70634" lon="6.20674">
        <ele>937.8</ele>
        <time>2021-08-14T15:50:31Z</time>
      </trkpt>
      <trkpt lat="46.70635" lon="6.20669">
        <ele>937.8</ele>
        <time>2021-08-14T15:50:32Z</time>
      </trkpt>
      <trkpt lat="46.70636" lon="6.20666">
        <ele>937.8</ele>
        <time>2021-08-14T15:50:33Z</time>
      </trkpt>
      <trkpt lat="46.70636" lon="6.20665">
        <ele>937.8</ele>
        <time>2021-08-14T15:50:35Z</time>
      </trkpt>
      <trkpt lat="46.70636" lon="6.20665">
        <ele>937.8</ele>
        <time>2021-08-14T15:50:37Z</time>
      </trkpt>
      <trkpt lat="46.70635" lon="6.20666">
        <ele>937.8</ele>
        <time>2021-08-14T15:50:38Z</time>
      </trkpt>
      <trkpt lat="46.70635" lon="6.20667">
        <ele>937.8</ele>
        <time>2021-08-14T15:50:39Z</time>
      </trkpt>
      <trkpt lat="46.70634" lon="6.20668">
        <ele>937.8</ele>
        <time>2021-08-14T15:50:41Z</time>
      </trkpt>
      <trkpt lat="46.70404" lon="6.20152">
        <ele>940.3</ele>
        <time>2021-08-18T08:21:44Z</time>
      </trkpt>
      <trkpt lat="46.70404" lon="6.20152">
        <ele>940.3</ele>
        <time>2021-08-18T08:21:44Z</time>
      </trkpt>
      <trkpt lat="46.70392" lon="6.20156">
        <ele>940.3</ele>
        <time>2021-08-18T08:21:45Z</time>
      </trkpt>
      <trkpt lat="46.70408" lon="6.20153">
        <ele>940.3</ele>
        <time>2021-08-18T08:21:46Z</time>
      </trkpt>
      <trkpt lat="46.7041" lon="6.20153">
        <ele>940.3</ele>
        <time>2021-08-18T08:21:48Z</time>
      </trkpt>
      <trkpt lat="46.70411" lon="6.20153">
        <ele>940.3</ele>
        <time>2021-08-18T08:21:49Z</time>
      </trkpt>
      <trkpt lat="46.70403" lon="6.20153">
        <ele>940.3</ele>
        <time>2021-08-18T08:21:51Z</time>
      </trkpt>
      <trkpt lat="46.70389" lon="6.20153">
        <ele>940.3</ele>
        <time>2021-08-18T08:21:52Z</time>
      </trkpt>
      <trkpt lat="46.70383" lon="6.20154">
        <ele>940.3</ele>
        <time>2021-08-18T08:21:53Z</time>
      </trkpt>
      <trkpt lat="46.7038" lon="6.20154">
        <ele>940.3</ele>
        <time>2021-08-18T08:21:55Z</time>
      </trkpt>
      <trkpt lat="46.70377" lon="6.20146">
        <ele>940.3</ele>
        <time>2021-08-18T08:22:04Z</time>
      </trkpt>
      <trkpt lat="46.70377" lon="6.20143">
        <ele>940.3</ele>
        <time>2021-08-18T08:22:05Z</time>
      </trkpt>
      <trkpt lat="46.70376" lon="6.20136">
        <ele>940.2</ele>
        <time>2021-08-18T08:22:07Z</time>
      </trkpt>
      <trkpt lat="46.70374" lon="6.20129">
        <ele>940.1</ele>
        <time>2021-08-18T08:22:08Z</time>
      </trkpt>
      <trkpt lat="46.70372" lon="6.20123">
        <ele>940</ele>
        <time>2021-08-18T08:22:09Z</time>
      </trkpt>
      <trkpt lat="46.7037" lon="6.20114">
        <ele>939.9</ele>
        <time>2021-08-18T08:22:11Z</time>
      </trkpt>
      <trkpt lat="46.70367" lon="6.2011">
        <ele>939.8</ele>
        <time>2021-08-18T08:22:12Z</time>
      </trkpt>
      <trkpt lat="46.70365" lon="6.20105">
        <ele>939.7</ele>
        <time>2021-08-18T08:22:14Z</time>
      </trkpt>
      <trkpt lat="46.70364" lon="6.201">
        <ele>939.6</ele>
        <time>2021-08-18T08:22:15Z</time>
      </trkpt>
      <trkpt lat="46.7036" lon="6.20087">
        <ele>939.5</ele>
        <time>2021-08-18T08:22:17Z</time>
      </trkpt>
      <trkpt lat="46.70359" lon="6.20079">
        <ele>939.4</ele>
        <time>2021-08-18T08:22:19Z</time>
      </trkpt>
      <trkpt lat="46.70358" lon="6.20071">
        <ele>939.4</ele>
        <time>2021-08-18T08:22:20Z</time>
      </trkpt>
      <trkpt lat="46.70357" lon="6.20064">
        <ele>939.3</ele>
        <time>2021-08-18T08:22:21Z</time>
      </trkpt>
      <trkpt lat="46.70357" lon="6.20057">
        <ele>939.3</ele>
        <time>2021-08-18T08:22:22Z</time>
      </trkpt>
      <trkpt lat="46.70356" lon="6.20049">
        <ele>939.3</ele>
        <time>2021-08-18T08:22:24Z</time>
      </trkpt>
      <trkpt lat="46.70355" lon="6.20041">
        <ele>939.3</ele>
        <time>2021-08-18T08:22:25Z</time>
      </trkpt>
      <trkpt lat="46.70352" lon="6.2003">
        <ele>939.2</ele>
        <time>2021-08-18T08:22:27Z</time>
      </trkpt>
      <trkpt lat="46.7035" lon="6.20021">
        <ele>939.2</ele>
        <time>2021-08-18T08:22:28Z</time>
      </trkpt>
      <trkpt lat="46.70348" lon="6.20015">
        <ele>939.2</ele>
        <time>2021-08-18T08:22:29Z</time>
      </trkpt>
      <trkpt lat="46.70344" lon="6.20005">
        <ele>939.2</ele>
        <time>2021-08-18T08:22:31Z</time>
      </trkpt>
      <trkpt lat="46.70342" lon="6.19996">
        <ele>939.2</ele>
        <time>2021-08-18T08:22:32Z</time>
      </trkpt>
      <trkpt lat="46.7034" lon="6.19989">
        <ele>939.2</ele>
        <time>2021-08-18T08:22:33Z</time>
      </trkpt>
      <trkpt lat="46.70337" lon="6.19979">
        <ele>939.2</ele>
        <time>2021-08-18T08:22:35Z</time>
      </trkpt>
      <trkpt lat="46.70335" lon="6.19969">
        <ele>939.2</ele>
        <time>2021-08-18T08:22:36Z</time>
      </trkpt>
      <trkpt lat="46.70332" lon="6.19958">
        <ele>939.2</ele>
        <time>2021-08-18T08:22:38Z</time>
      </trkpt>
      <trkpt lat="46.7033" lon="6.19952">
        <ele>939.2</ele>
        <time>2021-08-18T08:22:39Z</time>
      </trkpt>
      <trkpt lat="46.70326" lon="6.19942">
        <ele>939.2</ele>
        <time>2021-08-18T08:22:41Z</time>
      </trkpt>
      <trkpt lat="46.70324" lon="6.19936">
        <ele>939.2</ele>
        <time>2021-08-18T08:22:43Z</time>
      </trkpt>
      <trkpt lat="46.70322" lon="6.19931">
        <ele>939.2</ele>
        <time>2021-08-18T08:22:44Z</time>
      </trkpt>
      <trkpt lat="46.70319" lon="6.19923">
        <ele>939.1</ele>
        <time>2021-08-18T08:22:45Z</time>
      </trkpt>
      <trkpt lat="46.70318" lon="6.19919">
        <ele>939.1</ele>
        <time>2021-08-18T08:22:46Z</time>
      </trkpt>
      <trkpt lat="46.70315" lon="6.19914">
        <ele>939.1</ele>
        <time>2021-08-18T08:22:48Z</time>
      </trkpt>
      <trkpt lat="46.70313" lon="6.19908">
        <ele>939.1</ele>
        <time>2021-08-18T08:22:49Z</time>
      </trkpt>
      <trkpt lat="46.70312" lon="6.19904">
        <ele>939.2</ele>
        <time>2021-08-18T08:22:50Z</time>
      </trkpt>
      <trkpt lat="46.70309" lon="6.19898">
        <ele>939.2</ele>
        <time>2021-08-18T08:22:51Z</time>
      </trkpt>
      <trkpt lat="46.70308" lon="6.19893">
        <ele>939.2</ele>
        <time>2021-08-18T08:22:52Z</time>
      </trkpt>
      <trkpt lat="46.70306" lon="6.19888">
        <ele>939.2</ele>
        <time>2021-08-18T08:22:53Z</time>
      </trkpt>
      <trkpt lat="46.70305" lon="6.19881">
        <ele>939.2</ele>
        <time>2021-08-18T08:22:55Z</time>
      </trkpt>
      <trkpt lat="46.70303" lon="6.19874">
        <ele>939.3</ele>
        <time>2021-08-18T08:22:56Z</time>
      </trkpt>
      <trkpt lat="46.70301" lon="6.19867">
        <ele>939.3</ele>
        <time>2021-08-18T08:22:57Z</time>
      </trkpt>
      <trkpt lat="46.70298" lon="6.19857">
        <ele>939.3</ele>
        <time>2021-08-18T08:22:59Z</time>
      </trkpt>
      <trkpt lat="46.70296" lon="6.19852">
        <ele>939.4</ele>
        <time>2021-08-18T08:23:00Z</time>
      </trkpt>
      <trkpt lat="46.70291" lon="6.19843">
        <ele>939.4</ele>
        <time>2021-08-18T08:23:02Z</time>
      </trkpt>
      <trkpt lat="46.70289" lon="6.19838">
        <ele>939.4</ele>
        <time>2021-08-18T08:23:03Z</time>
      </trkpt>
      <trkpt lat="46.70286" lon="6.1983">
        <ele>939.4</ele>
        <time>2021-08-18T08:23:05Z</time>
      </trkpt>
      <trkpt lat="46.70283" lon="6.19823">
        <ele>939.5</ele>
        <time>2021-08-18T08:23:06Z</time>
      </trkpt>
      <trkpt lat="46.70281" lon="6.19817">
        <ele>939.5</ele>
        <time>2021-08-18T08:23:07Z</time>
      </trkpt>
      <trkpt lat="46.70279" lon="6.19809">
        <ele>939.5</ele>
        <time>2021-08-18T08:23:09Z</time>
      </trkpt>
      <trkpt lat="46.70277" lon="6.19803">
        <ele>939.5</ele>
        <time>2021-08-18T08:23:10Z</time>
      </trkpt>
      <trkpt lat="46.70276" lon="6.19796">
        <ele>939.5</ele>
        <time>2021-08-18T08:23:11Z</time>
      </trkpt>
      <trkpt lat="46.70275" lon="6.19791">
        <ele>939.6</ele>
        <time>2021-08-18T08:23:12Z</time>
      </trkpt>
      <trkpt lat="46.70273" lon="6.19785">
        <ele>939.6</ele>
        <time>2021-08-18T08:23:13Z</time>
      </trkpt>
      <trkpt lat="46.7027" lon="6.19776">
        <ele>939.7</ele>
        <time>2021-08-18T08:23:15Z</time>
      </trkpt>
      <trkpt lat="46.70269" lon="6.19771">
        <ele>939.7</ele>
        <time>2021-08-18T08:23:16Z</time>
      </trkpt>
      <trkpt lat="46.70267" lon="6.19766">
        <ele>939.8</ele>
        <time>2021-08-18T08:23:17Z</time>
      </trkpt>
      <trkpt lat="46.70265" lon="6.19757">
        <ele>939.9</ele>
        <time>2021-08-18T08:23:19Z</time>
      </trkpt>
      <trkpt lat="46.70262" lon="6.19751">
        <ele>940</ele>
        <time>2021-08-18T08:23:20Z</time>
      </trkpt>
      <trkpt lat="46.70258" lon="6.19741">
        <ele>940.1</ele>
        <time>2021-08-18T08:23:22Z</time>
      </trkpt>
      <trkpt lat="46.70255" lon="6.19735">
        <ele>940.2</ele>
        <time>2021-08-18T08:23:24Z</time>
      </trkpt>
      <trkpt lat="46.70252" lon="6.1973">
        <ele>940.3</ele>
        <time>2021-08-18T08:23:25Z</time>
      </trkpt>
      <trkpt lat="46.7025" lon="6.19725">
        <ele>940.4</ele>
        <time>2021-08-18T08:23:26Z</time>
      </trkpt>
      <trkpt lat="46.70248" lon="6.19717">
        <ele>940.5</ele>
        <time>2021-08-18T08:23:28Z</time>
      </trkpt>
      <trkpt lat="46.70247" lon="6.19713">
        <ele>940.5</ele>
        <time>2021-08-18T08:23:29Z</time>
      </trkpt>
      <trkpt lat="46.70247" lon="6.19707">
        <ele>940.6</ele>
        <time>2021-08-18T08:23:30Z</time>
      </trkpt>
      <trkpt lat="46.70246" lon="6.19706">
        <ele>940.6</ele>
        <time>2021-08-18T08:23:31Z</time>
      </trkpt>
      <trkpt lat="46.70244" lon="6.19701">
        <ele>940.7</ele>
        <time>2021-08-18T08:23:33Z</time>
      </trkpt>
      <trkpt lat="46.70243" lon="6.19698">
        <ele>940.7</ele>
        <time>2021-08-18T08:23:34Z</time>
      </trkpt>
      <trkpt lat="46.70241" lon="6.19693">
        <ele>940.8</ele>
        <time>2021-08-18T08:23:36Z</time>
      </trkpt>
      <trkpt lat="46.7024" lon="6.1969">
        <ele>940.9</ele>
        <time>2021-08-18T08:23:37Z</time>
      </trkpt>
      <trkpt lat="46.70239" lon="6.19685">
        <ele>940.9</ele>
        <time>2021-08-18T08:23:39Z</time>
      </trkpt>
      <trkpt lat="46.70238" lon="6.19681">
        <ele>941</ele>
        <time>2021-08-18T08:23:40Z</time>
      </trkpt>
      <trkpt lat="46.70236" lon="6.19679">
        <ele>941.1</ele>
        <time>2021-08-18T08:23:41Z</time>
      </trkpt>
      <trkpt lat="46.70233" lon="6.19676">
        <ele>941.1</ele>
        <time>2021-08-18T08:23:43Z</time>
      </trkpt>
      <trkpt lat="46.70232" lon="6.19674">
        <ele>941.2</ele>
        <time>2021-08-18T08:23:44Z</time>
      </trkpt>
      <trkpt lat="46.70232" lon="6.1967">
        <ele>941.3</ele>
        <time>2021-08-18T08:23:46Z</time>
      </trkpt>
      <trkpt lat="46.70234" lon="6.19668">
        <ele>941.3</ele>
        <time>2021-08-18T08:23:48Z</time>
      </trkpt>
      <trkpt lat="46.70235" lon="6.19668">
        <ele>941.3</ele>
        <time>2021-08-18T08:23:49Z</time>
      </trkpt>
      <trkpt lat="46.70236" lon="6.19672">
        <ele>941.4</ele>
        <time>2021-08-18T08:23:50Z</time>
      </trkpt>
      <trkpt lat="46.70236" lon="6.19672">
        <ele>941.4</ele>
        <time>2021-08-18T08:23:52Z</time>
      </trkpt>
      <trkpt lat="46.70234" lon="6.19671">
        <ele>941.5</ele>
        <time>2021-08-18T08:23:53Z</time>
      </trkpt>
      <trkpt lat="46.70232" lon="6.19669">
        <ele>941.5</ele>
        <time>2021-08-18T08:23:54Z</time>
      </trkpt>
      <trkpt lat="46.70231" lon="6.19668">
        <ele>941.6</ele>
        <time>2021-08-18T08:23:56Z</time>
      </trkpt>
      <trkpt lat="46.70229" lon="6.19666">
        <ele>941.6</ele>
        <time>2021-08-18T08:23:57Z</time>
      </trkpt>
      <trkpt lat="46.70227" lon="6.19664">
        <ele>941.7</ele>
        <time>2021-08-18T08:23:58Z</time>
      </trkpt>
      <trkpt lat="46.70226" lon="6.19663">
        <ele>941.7</ele>
        <time>2021-08-18T08:23:59Z</time>
      </trkpt>
      <trkpt lat="46.70224" lon="6.19661">
        <ele>941.8</ele>
        <time>2021-08-18T08:24:01Z</time>
      </trkpt>
      <trkpt lat="46.70223" lon="6.19659">
        <ele>941.8</ele>
        <time>2021-08-18T08:24:02Z</time>
      </trkpt>
      <trkpt lat="46.70221" lon="6.19658">
        <ele>941.9</ele>
        <time>2021-08-18T08:24:03Z</time>
      </trkpt>
      <trkpt lat="46.70219" lon="6.19656">
        <ele>941.9</ele>
        <time>2021-08-18T08:25:52Z</time>
      </trkpt>
      <trkpt lat="46.70218" lon="6.19654">
        <ele>942</ele>
        <time>2021-08-18T08:25:53Z</time>
      </trkpt>
      <trkpt lat="46.70216" lon="6.19649">
        <ele>942.1</ele>
        <time>2021-08-18T08:25:54Z</time>
      </trkpt>
      <trkpt lat="46.70213" lon="6.19643">
        <ele>942.2</ele>
        <time>2021-08-18T08:25:56Z</time>
      </trkpt>
      <trkpt lat="46.70211" lon="6.19637">
        <ele>942.3</ele>
        <time>2021-08-18T08:25:57Z</time>
      </trkpt>
      <trkpt lat="46.70209" lon="6.19631">
        <ele>942.3</ele>
        <time>2021-08-18T08:25:58Z</time>
      </trkpt>
      <trkpt lat="46.70207" lon="6.19627">
        <ele>942.4</ele>
        <time>2021-08-18T08:25:59Z</time>
      </trkpt>
      <trkpt lat="46.70206" lon="6.19622">
        <ele>942.5</ele>
        <time>2021-08-18T08:26:01Z</time>
      </trkpt>
      <trkpt lat="46.70204" lon="6.19617">
        <ele>942.6</ele>
        <time>2021-08-18T08:26:02Z</time>
      </trkpt>
      <trkpt lat="46.70202" lon="6.19613">
        <ele>942.6</ele>
        <time>2021-08-18T08:26:03Z</time>
      </trkpt>
      <trkpt lat="46.702" lon="6.1961">
        <ele>942.7</ele>
        <time>2021-08-18T08:26:04Z</time>
      </trkpt>
      <trkpt lat="46.70199" lon="6.19605">
        <ele>942.7</ele>
        <time>2021-08-18T08:26:06Z</time>
      </trkpt>
      <trkpt lat="46.70197" lon="6.19599">
        <ele>942.8</ele>
        <time>2021-08-18T08:26:07Z</time>
      </trkpt>
      <trkpt lat="46.70195" lon="6.19595">
        <ele>942.9</ele>
        <time>2021-08-18T08:26:09Z</time>
      </trkpt>
      <trkpt lat="46.70193" lon="6.1959">
        <ele>942.9</ele>
        <time>2021-08-18T08:26:10Z</time>
      </trkpt>
      <trkpt lat="46.70192" lon="6.19586">
        <ele>943</ele>
        <time>2021-08-18T08:26:11Z</time>
      </trkpt>
      <trkpt lat="46.7019" lon="6.19579">
        <ele>943</ele>
        <time>2021-08-18T08:26:13Z</time>
      </trkpt>
      <trkpt lat="46.70188" lon="6.19575">
        <ele>943.1</ele>
        <time>2021-08-18T08:26:14Z</time>
      </trkpt>
      <trkpt lat="46.70186" lon="6.19569">
        <ele>943.2</ele>
        <time>2021-08-18T08:26:16Z</time>
      </trkpt>
      <trkpt lat="46.70185" lon="6.19564">
        <ele>943.2</ele>
        <time>2021-08-18T08:26:17Z</time>
      </trkpt>
      <trkpt lat="46.70184" lon="6.19559">
        <ele>943.3</ele>
        <time>2021-08-18T08:26:19Z</time>
      </trkpt>
      <trkpt lat="46.70183" lon="6.19555">
        <ele>943.4</ele>
        <time>2021-08-18T08:26:20Z</time>
      </trkpt>
      <trkpt lat="46.70181" lon="6.1955">
        <ele>943.4</ele>
        <time>2021-08-18T08:26:21Z</time>
      </trkpt>
      <trkpt lat="46.7018" lon="6.19545">
        <ele>943.5</ele>
        <time>2021-08-18T08:26:22Z</time>
      </trkpt>
      <trkpt lat="46.70179" lon="6.1954">
        <ele>943.6</ele>
        <time>2021-08-18T08:26:23Z</time>
      </trkpt>
      <trkpt lat="46.70178" lon="6.19537">
        <ele>943.6</ele>
        <time>2021-08-18T08:26:24Z</time>
      </trkpt>
      <trkpt lat="46.70176" lon="6.19533">
        <ele>943.7</ele>
        <time>2021-08-18T08:26:25Z</time>
      </trkpt>
      <trkpt lat="46.70174" lon="6.19527">
        <ele>943.8</ele>
        <time>2021-08-18T08:26:27Z</time>
      </trkpt>
      <trkpt lat="46.70173" lon="6.19524">
        <ele>943.8</ele>
        <time>2021-08-18T08:26:28Z</time>
      </trkpt>
      <trkpt lat="46.7017" lon="6.19519">
        <ele>943.9</ele>
        <time>2021-08-18T08:26:29Z</time>
      </trkpt>
      <trkpt lat="46.7017" lon="6.19518">
        <ele>943.9</ele>
        <time>2021-08-18T08:26:30Z</time>
      </trkpt>
      <trkpt lat="46.70168" lon="6.19515">
        <ele>944</ele>
        <time>2021-08-18T08:26:31Z</time>
      </trkpt>
      <trkpt lat="46.70165" lon="6.19512">
        <ele>944</ele>
        <time>2021-08-18T08:26:33Z</time>
      </trkpt>
      <trkpt lat="46.70163" lon="6.19508">
        <ele>944.1</ele>
        <time>2021-08-18T08:26:34Z</time>
      </trkpt>
      <trkpt lat="46.70161" lon="6.19505">
        <ele>944.1</ele>
        <time>2021-08-18T08:26:35Z</time>
      </trkpt>
      <trkpt lat="46.70159" lon="6.19501">
        <ele>944.2</ele>
        <time>2021-08-18T08:26:37Z</time>
      </trkpt>
      <trkpt lat="46.70157" lon="6.19497">
        <ele>944.2</ele>
        <time>2021-08-18T08:26:38Z</time>
      </trkpt>
      <trkpt lat="46.70155" lon="6.19495">
        <ele>944.3</ele>
        <time>2021-08-18T08:26:39Z</time>
      </trkpt>
      <trkpt lat="46.70153" lon="6.19491">
        <ele>944.3</ele>
        <time>2021-08-18T08:26:41Z</time>
      </trkpt>
      <trkpt lat="46.70151" lon="6.19486">
        <ele>944.4</ele>
        <time>2021-08-18T08:26:42Z</time>
      </trkpt>
      <trkpt lat="46.7015" lon="6.19484">
        <ele>944.4</ele>
        <time>2021-08-18T08:26:43Z</time>
      </trkpt>
      <trkpt lat="46.70148" lon="6.19481">
        <ele>944.4</ele>
        <time>2021-08-18T08:26:44Z</time>
      </trkpt>
      <trkpt lat="46.70146" lon="6.19476">
        <ele>944.4</ele>
        <time>2021-08-18T08:26:45Z</time>
      </trkpt>
      <trkpt lat="46.70143" lon="6.19471">
        <ele>944.5</ele>
        <time>2021-08-18T08:26:47Z</time>
      </trkpt>
      <trkpt lat="46.70141" lon="6.19467">
        <ele>944.5</ele>
        <time>2021-08-18T08:26:48Z</time>
      </trkpt>
      <trkpt lat="46.7014" lon="6.19463">
        <ele>944.5</ele>
        <time>2021-08-18T08:26:49Z</time>
      </trkpt>
      <trkpt lat="46.70138" lon="6.1946">
        <ele>944.5</ele>
        <time>2021-08-18T08:26:50Z</time>
      </trkpt>
      <trkpt lat="46.70136" lon="6.19456">
        <ele>944.6</ele>
        <time>2021-08-18T08:26:51Z</time>
      </trkpt>
      <trkpt lat="46.70134" lon="6.1945">
        <ele>944.6</ele>
        <time>2021-08-18T08:26:52Z</time>
      </trkpt>
      <trkpt lat="46.70132" lon="6.19446">
        <ele>944.7</ele>
        <time>2021-08-18T08:26:53Z</time>
      </trkpt>
      <trkpt lat="46.7013" lon="6.1944">
        <ele>944.7</ele>
        <time>2021-08-18T08:26:55Z</time>
      </trkpt>
      <trkpt lat="46.70128" lon="6.19437">
        <ele>944.7</ele>
        <time>2021-08-18T08:26:56Z</time>
      </trkpt>
      <trkpt lat="46.70126" lon="6.19433">
        <ele>944.8</ele>
        <time>2021-08-18T08:26:57Z</time>
      </trkpt>
      <trkpt lat="46.70125" lon="6.1943">
        <ele>944.8</ele>
        <time>2021-08-18T08:26:58Z</time>
      </trkpt>
      <trkpt lat="46.70123" lon="6.19426">
        <ele>944.7</ele>
        <time>2021-08-18T08:26:59Z</time>
      </trkpt>
      <trkpt lat="46.70121" lon="6.19423">
        <ele>944.6</ele>
        <time>2021-08-18T08:27:00Z</time>
      </trkpt>
      <trkpt lat="46.7012" lon="6.19419">
        <ele>944.5</ele>
        <time>2021-08-18T08:27:01Z</time>
      </trkpt>
      <trkpt lat="46.70117" lon="6.19414">
        <ele>944.3</ele>
        <time>2021-08-18T08:27:03Z</time>
      </trkpt>
      <trkpt lat="46.70115" lon="6.19411">
        <ele>944.3</ele>
        <time>2021-08-18T08:27:04Z</time>
      </trkpt>
      <trkpt lat="46.70114" lon="6.1941">
        <ele>944.2</ele>
        <time>2021-08-18T08:27:05Z</time>
      </trkpt>
      <trkpt lat="46.70112" lon="6.19409">
        <ele>944.1</ele>
        <time>2021-08-18T08:27:07Z</time>
      </trkpt>
      <trkpt lat="46.70111" lon="6.19408">
        <ele>944.1</ele>
        <time>2021-08-18T08:27:08Z</time>
      </trkpt>
      <trkpt lat="46.70109" lon="6.19406">
        <ele>944</ele>
        <time>2021-08-18T08:27:10Z</time>
      </trkpt>
      <trkpt lat="46.70108" lon="6.19405">
        <ele>944</ele>
        <time>2021-08-18T08:27:11Z</time>
      </trkpt>
      <trkpt lat="46.70107" lon="6.19401">
        <ele>943.9</ele>
        <time>2021-08-18T08:27:13Z</time>
      </trkpt>
      <trkpt lat="46.70105" lon="6.19398">
        <ele>943.8</ele>
        <time>2021-08-18T08:27:15Z</time>
      </trkpt>
      <trkpt lat="46.70103" lon="6.19394">
        <ele>943.8</ele>
        <time>2021-08-18T08:27:16Z</time>
      </trkpt>
      <trkpt lat="46.70102" lon="6.19391">
        <ele>943.8</ele>
        <time>2021-08-18T08:27:17Z</time>
      </trkpt>
      <trkpt lat="46.70099" lon="6.19386">
        <ele>943.8</ele>
        <time>2021-08-18T08:27:19Z</time>
      </trkpt>
      <trkpt lat="46.70097" lon="6.19381">
        <ele>943.8</ele>
        <time>2021-08-18T08:27:20Z</time>
      </trkpt>
      <trkpt lat="46.70096" lon="6.19378">
        <ele>943.8</ele>
        <time>2021-08-18T08:27:21Z</time>
      </trkpt>
      <trkpt lat="46.70093" lon="6.19373">
        <ele>943.8</ele>
        <time>2021-08-18T08:27:23Z</time>
      </trkpt>
      <trkpt lat="46.70091" lon="6.19369">
        <ele>943.8</ele>
        <time>2021-08-18T08:27:24Z</time>
      </trkpt>
      <trkpt lat="46.70088" lon="6.19364">
        <ele>943.9</ele>
        <time>2021-08-18T08:27:25Z</time>
      </trkpt>
      <trkpt lat="46.70084" lon="6.19358">
        <ele>943.9</ele>
        <time>2021-08-18T08:27:27Z</time>
      </trkpt>
      <trkpt lat="46.70081" lon="6.19355">
        <ele>943.9</ele>
        <time>2021-08-18T08:27:28Z</time>
      </trkpt>
      <trkpt lat="46.70078" lon="6.1935">
        <ele>943.9</ele>
        <time>2021-08-18T08:27:29Z</time>
      </trkpt>
      <trkpt lat="46.70074" lon="6.19342">
        <ele>943.8</ele>
        <time>2021-08-18T08:27:31Z</time>
      </trkpt>
      <trkpt lat="46.70071" lon="6.19336">
        <ele>943.8</ele>
        <time>2021-08-18T08:27:32Z</time>
      </trkpt>
      <trkpt lat="46.70069" lon="6.1933">
        <ele>943.8</ele>
        <time>2021-08-18T08:27:33Z</time>
      </trkpt>
      <trkpt lat="46.70067" lon="6.19325">
        <ele>943.7</ele>
        <time>2021-08-18T08:27:34Z</time>
      </trkpt>
      <trkpt lat="46.70064" lon="6.19315">
        <ele>943.6</ele>
        <time>2021-08-18T08:27:36Z</time>
      </trkpt>
      <trkpt lat="46.70063" lon="6.1931">
        <ele>943.6</ele>
        <time>2021-08-18T08:27:37Z</time>
      </trkpt>
      <trkpt lat="46.70062" lon="6.19299">
        <ele>943.4</ele>
        <time>2021-08-18T08:27:39Z</time>
      </trkpt>
      <trkpt lat="46.70061" lon="6.19288">
        <ele>943.3</ele>
        <time>2021-08-18T08:27:41Z</time>
      </trkpt>
      <trkpt lat="46.7006" lon="6.19276">
        <ele>943.2</ele>
        <time>2021-08-18T08:27:43Z</time>
      </trkpt>
      <trkpt lat="46.70055" lon="6.19264">
        <ele>943.1</ele>
        <time>2021-08-18T08:27:45Z</time>
      </trkpt>
      <trkpt lat="46.70051" lon="6.19256">
        <ele>943.1</ele>
        <time>2021-08-18T08:27:46Z</time>
      </trkpt>
      <trkpt lat="46.70047" lon="6.19245">
        <ele>943.1</ele>
        <time>2021-08-18T08:27:48Z</time>
      </trkpt>
      <trkpt lat="46.70042" lon="6.19238">
        <ele>943.1</ele>
        <time>2021-08-18T08:27:49Z</time>
      </trkpt>
      <trkpt lat="46.70037" lon="6.19226">
        <ele>943.2</ele>
        <time>2021-08-18T08:27:51Z</time>
      </trkpt>
      <trkpt lat="46.7004" lon="6.19218">
        <ele>943.2</ele>
        <time>2021-08-18T08:27:53Z</time>
      </trkpt>
      <trkpt lat="46.70037" lon="6.19212">
        <ele>943.3</ele>
        <time>2021-08-18T08:27:54Z</time>
      </trkpt>
      <trkpt lat="46.70034" lon="6.19206">
        <ele>943.3</ele>
        <time>2021-08-18T08:27:55Z</time>
      </trkpt>
      <trkpt lat="46.70031" lon="6.192">
        <ele>943.3</ele>
        <time>2021-08-18T08:27:57Z</time>
      </trkpt>
      <trkpt lat="46.70028" lon="6.19194">
        <ele>943.3</ele>
        <time>2021-08-18T08:27:58Z</time>
      </trkpt>
      <trkpt lat="46.70025" lon="6.19188">
        <ele>943.3</ele>
        <time>2021-08-18T08:27:59Z</time>
      </trkpt>
      <trkpt lat="46.70023" lon="6.19182">
        <ele>943.3</ele>
        <time>2021-08-18T08:28:00Z</time>
      </trkpt>
      <trkpt lat="46.70021" lon="6.19177">
        <ele>943.3</ele>
        <time>2021-08-18T08:28:01Z</time>
      </trkpt>
      <trkpt lat="46.70018" lon="6.19172">
        <ele>943.3</ele>
        <time>2021-08-18T08:28:02Z</time>
      </trkpt>
      <trkpt lat="46.70016" lon="6.19167">
        <ele>943.3</ele>
        <time>2021-08-18T08:28:03Z</time>
      </trkpt>
      <trkpt lat="46.70013" lon="6.19162">
        <ele>943.3</ele>
        <time>2021-08-18T08:28:04Z</time>
      </trkpt>
      <trkpt lat="46.70008" lon="6.19157">
        <ele>943.3</ele>
        <time>2021-08-18T08:28:05Z</time>
      </trkpt>
      <trkpt lat="46.70004" lon="6.19152">
        <ele>943.4</ele>
        <time>2021-08-18T08:28:06Z</time>
      </trkpt>
      <trkpt lat="46.69997" lon="6.19147">
        <ele>943.5</ele>
        <time>2021-08-18T08:28:08Z</time>
      </trkpt>
      <trkpt lat="46.69991" lon="6.1914">
        <ele>943.6</ele>
        <time>2021-08-18T08:28:09Z</time>
      </trkpt>
      <trkpt lat="46.69987" lon="6.19134">
        <ele>943.7</ele>
        <time>2021-08-18T08:28:10Z</time>
      </trkpt>
      <trkpt lat="46.69985" lon="6.1913">
        <ele>943.8</ele>
        <time>2021-08-18T08:28:11Z</time>
      </trkpt>
      <trkpt lat="46.6998" lon="6.19122">
        <ele>944</ele>
        <time>2021-08-18T08:28:13Z</time>
      </trkpt>
      <trkpt lat="46.69976" lon="6.19117">
        <ele>944</ele>
        <time>2021-08-18T08:28:14Z</time>
      </trkpt>
      <trkpt lat="46.69973" lon="6.19114">
        <ele>944.1</ele>
        <time>2021-08-18T08:28:15Z</time>
      </trkpt>
      <trkpt lat="46.6997" lon="6.19107">
        <ele>944.1</ele>
        <time>2021-08-18T08:28:17Z</time>
      </trkpt>
      <trkpt lat="46.69968" lon="6.19101">
        <ele>944.1</ele>
        <time>2021-08-18T08:28:18Z</time>
      </trkpt>
      <trkpt lat="46.69967" lon="6.19097">
        <ele>944.2</ele>
        <time>2021-08-18T08:28:19Z</time>
      </trkpt>
      <trkpt lat="46.69965" lon="6.1909">
        <ele>944.2</ele>
        <time>2021-08-18T08:28:21Z</time>
      </trkpt>
      <trkpt lat="46.69964" lon="6.19085">
        <ele>944.2</ele>
        <time>2021-08-18T08:28:22Z</time>
      </trkpt>
      <trkpt lat="46.69962" lon="6.19082">
        <ele>944.2</ele>
        <time>2021-08-18T08:28:23Z</time>
      </trkpt>
      <trkpt lat="46.69961" lon="6.19078">
        <ele>944.2</ele>
        <time>2021-08-18T08:28:24Z</time>
      </trkpt>
      <trkpt lat="46.6996" lon="6.19072">
        <ele>944.2</ele>
        <time>2021-08-18T08:28:26Z</time>
      </trkpt>
      <trkpt lat="46.69959" lon="6.19065">
        <ele>944.2</ele>
        <time>2021-08-18T08:28:27Z</time>
      </trkpt>
      <trkpt lat="46.69958" lon="6.1906">
        <ele>944.2</ele>
        <time>2021-08-18T08:28:29Z</time>
      </trkpt>
      <trkpt lat="46.69956" lon="6.19054">
        <ele>944.2</ele>
        <time>2021-08-18T08:28:30Z</time>
      </trkpt>
      <trkpt lat="46.69954" lon="6.19049">
        <ele>944.2</ele>
        <time>2021-08-18T08:28:31Z</time>
      </trkpt>
      <trkpt lat="46.69952" lon="6.19045">
        <ele>944.3</ele>
        <time>2021-08-18T08:28:32Z</time>
      </trkpt>
      <trkpt lat="46.69949" lon="6.1904">
        <ele>944.3</ele>
        <time>2021-08-18T08:28:33Z</time>
      </trkpt>
      <trkpt lat="46.69947" lon="6.19034">
        <ele>944.4</ele>
        <time>2021-08-18T08:28:34Z</time>
      </trkpt>
      <trkpt lat="46.69945" lon="6.19028">
        <ele>944.4</ele>
        <time>2021-08-18T08:28:35Z</time>
      </trkpt>
      <trkpt lat="46.69943" lon="6.19023">
        <ele>944.5</ele>
        <time>2021-08-18T08:28:36Z</time>
      </trkpt>
      <trkpt lat="46.69941" lon="6.19016">
        <ele>944.5</ele>
        <time>2021-08-18T08:28:38Z</time>
      </trkpt>
      <trkpt lat="46.69939" lon="6.1901">
        <ele>944.6</ele>
        <time>2021-08-18T08:28:39Z</time>
      </trkpt>
      <trkpt lat="46.69938" lon="6.19005">
        <ele>944.6</ele>
        <time>2021-08-18T08:28:40Z</time>
      </trkpt>
      <trkpt lat="46.69935" lon="6.19">
        <ele>944.7</ele>
        <time>2021-08-18T08:28:42Z</time>
      </trkpt>
      <trkpt lat="46.69933" lon="6.18995">
        <ele>944.7</ele>
        <time>2021-08-18T08:28:43Z</time>
      </trkpt>
      <trkpt lat="46.69931" lon="6.1899">
        <ele>944.8</ele>
        <time>2021-08-18T08:28:44Z</time>
      </trkpt>
      <trkpt lat="46.69929" lon="6.18985">
        <ele>944.8</ele>
        <time>2021-08-18T08:28:46Z</time>
      </trkpt>
      <trkpt lat="46.69926" lon="6.18981">
        <ele>944.8</ele>
        <time>2021-08-18T08:28:47Z</time>
      </trkpt>
      <trkpt lat="46.69924" lon="6.18975">
        <ele>944.9</ele>
        <time>2021-08-18T08:28:48Z</time>
      </trkpt>
      <trkpt lat="46.69922" lon="6.1897">
        <ele>945</ele>
        <time>2021-08-18T08:28:49Z</time>
      </trkpt>
      <trkpt lat="46.69919" lon="6.18965">
        <ele>945.1</ele>
        <time>2021-08-18T08:28:51Z</time>
      </trkpt>
      <trkpt lat="46.69916" lon="6.1896">
        <ele>945.1</ele>
        <time>2021-08-18T08:28:52Z</time>
      </trkpt>
      <trkpt lat="46.69913" lon="6.18956">
        <ele>945.3</ele>
        <time>2021-08-18T08:28:53Z</time>
      </trkpt>
      <trkpt lat="46.69911" lon="6.18951">
        <ele>945.4</ele>
        <time>2021-08-18T08:28:54Z</time>
      </trkpt>
      <trkpt lat="46.69909" lon="6.18947">
        <ele>945.6</ele>
        <time>2021-08-18T08:28:55Z</time>
      </trkpt>
      <trkpt lat="46.69907" lon="6.18942">
        <ele>945.7</ele>
        <time>2021-08-18T08:28:57Z</time>
      </trkpt>
      <trkpt lat="46.69905" lon="6.18938">
        <ele>945.9</ele>
        <time>2021-08-18T08:28:58Z</time>
      </trkpt>
      <trkpt lat="46.69902" lon="6.18933">
        <ele>946.1</ele>
        <time>2021-08-18T08:28:59Z</time>
      </trkpt>
      <trkpt lat="46.699" lon="6.1893">
        <ele>946.3</ele>
        <time>2021-08-18T08:29:00Z</time>
      </trkpt>
      <trkpt lat="46.69899" lon="6.18929">
        <ele>946.3</ele>
        <time>2021-08-18T08:29:01Z</time>
      </trkpt>
      <trkpt lat="46.69897" lon="6.18928">
        <ele>946.4</ele>
        <time>2021-08-18T08:29:02Z</time>
      </trkpt>
      <trkpt lat="46.69895" lon="6.18927">
        <ele>946.5</ele>
        <time>2021-08-18T08:29:04Z</time>
      </trkpt>
      <trkpt lat="46.69894" lon="6.18927">
        <ele>946.6</ele>
        <time>2021-08-18T08:29:05Z</time>
      </trkpt>
      <trkpt lat="46.69894" lon="6.18928">
        <ele>946.6</ele>
        <time>2021-08-18T08:29:07Z</time>
      </trkpt>
      <trkpt lat="46.69898" lon="6.18929">
        <ele>946.8</ele>
        <time>2021-08-18T08:29:08Z</time>
      </trkpt>
      <trkpt lat="46.69903" lon="6.18928">
        <ele>947</ele>
        <time>2021-08-18T08:29:09Z</time>
      </trkpt>
      <trkpt lat="46.69907" lon="6.18928">
        <ele>947.2</ele>
        <time>2021-08-18T08:29:10Z</time>
      </trkpt>
      <trkpt lat="46.69908" lon="6.18927">
        <ele>947.2</ele>
        <time>2021-08-18T08:29:11Z</time>
      </trkpt>
      <trkpt lat="46.6991" lon="6.18927">
        <ele>947.3</ele>
        <time>2021-08-18T08:29:13Z</time>
      </trkpt>
      <trkpt lat="46.6991" lon="6.18928">
        <ele>947.3</ele>
        <time>2021-08-18T08:29:15Z</time>
      </trkpt>
      <trkpt lat="46.69911" lon="6.18928">
        <ele>947.3</ele>
        <time>2021-08-18T08:29:16Z</time>
      </trkpt>
      <trkpt lat="46.6991" lon="6.18928">
        <ele>947.3</ele>
        <time>2021-08-18T08:29:18Z</time>
      </trkpt>
      <trkpt lat="46.6991" lon="6.18927">
        <ele>947.4</ele>
        <time>2021-08-18T08:29:19Z</time>
      </trkpt>
      <trkpt lat="46.69908" lon="6.18927">
        <ele>947.4</ele>
        <time>2021-08-18T08:29:21Z</time>
      </trkpt>
      <trkpt lat="46.69907" lon="6.18926">
        <ele>947.5</ele>
        <time>2021-08-18T08:29:22Z</time>
      </trkpt>
      <trkpt lat="46.69906" lon="6.18925">
        <ele>947.5</ele>
        <time>2021-08-18T08:29:23Z</time>
      </trkpt>
      <trkpt lat="46.699" lon="6.18919">
        <ele>947.7</ele>
        <time>2021-08-18T08:29:28Z</time>
      </trkpt>
      <trkpt lat="46.69895" lon="6.18915">
        <ele>947.8</ele>
        <time>2021-08-18T08:29:29Z</time>
      </trkpt>
      <trkpt lat="46.69888" lon="6.18909">
        <ele>948</ele>
        <time>2021-08-18T08:29:31Z</time>
      </trkpt>
      <trkpt lat="46.69884" lon="6.18905">
        <ele>948.1</ele>
        <time>2021-08-18T08:29:32Z</time>
      </trkpt>
      <trkpt lat="46.6988" lon="6.18902">
        <ele>948.2</ele>
        <time>2021-08-18T08:29:33Z</time>
      </trkpt>
      <trkpt lat="46.69876" lon="6.18899">
        <ele>948.2</ele>
        <time>2021-08-18T08:29:34Z</time>
      </trkpt>
      <trkpt lat="46.69873" lon="6.18896">
        <ele>948.3</ele>
        <time>2021-08-18T08:29:35Z</time>
      </trkpt>
      <trkpt lat="46.69869" lon="6.18891">
        <ele>948.3</ele>
        <time>2021-08-18T08:29:37Z</time>
      </trkpt>
      <trkpt lat="46.69866" lon="6.18887">
        <ele>948.3</ele>
        <time>2021-08-18T08:29:38Z</time>
      </trkpt>
      <trkpt lat="46.69862" lon="6.18884">
        <ele>948.3</ele>
        <time>2021-08-18T08:29:40Z</time>
      </trkpt>
      <trkpt lat="46.69857" lon="6.18881">
        <ele>948.3</ele>
        <time>2021-08-18T08:29:42Z</time>
      </trkpt>
      <trkpt lat="46.69854" lon="6.1888">
        <ele>948.3</ele>
        <time>2021-08-18T08:29:43Z</time>
      </trkpt>
      <trkpt lat="46.6985" lon="6.18879">
        <ele>948.3</ele>
        <time>2021-08-18T08:29:45Z</time>
      </trkpt>
      <trkpt lat="46.69845" lon="6.18878">
        <ele>948.3</ele>
        <time>2021-08-18T08:29:46Z</time>
      </trkpt>
      <trkpt lat="46.69839" lon="6.18876">
        <ele>948.3</ele>
        <time>2021-08-18T08:29:48Z</time>
      </trkpt>
      <trkpt lat="46.69835" lon="6.18875">
        <ele>948.4</ele>
        <time>2021-08-18T08:29:49Z</time>
      </trkpt>
      <trkpt lat="46.69832" lon="6.18873">
        <ele>948.4</ele>
        <time>2021-08-18T08:29:51Z</time>
      </trkpt>
      <trkpt lat="46.6983" lon="6.18872">
        <ele>948.4</ele>
        <time>2021-08-18T08:29:52Z</time>
      </trkpt>
      <trkpt lat="46.69824" lon="6.18868">
        <ele>948.5</ele>
        <time>2021-08-18T08:29:54Z</time>
      </trkpt>
      <trkpt lat="46.6982" lon="6.18864">
        <ele>948.5</ele>
        <time>2021-08-18T08:29:55Z</time>
      </trkpt>
      <trkpt lat="46.69816" lon="6.1886">
        <ele>948.6</ele>
        <time>2021-08-18T08:29:56Z</time>
      </trkpt>
      <trkpt lat="46.6981" lon="6.18852">
        <ele>948.8</ele>
        <time>2021-08-18T08:29:58Z</time>
      </trkpt>
      <trkpt lat="46.69805" lon="6.18847">
        <ele>948.9</ele>
        <time>2021-08-18T08:29:59Z</time>
      </trkpt>
      <trkpt lat="46.69801" lon="6.18842">
        <ele>949</ele>
        <time>2021-08-18T08:30:00Z</time>
      </trkpt>
      <trkpt lat="46.69797" lon="6.18836">
        <ele>949.1</ele>
        <time>2021-08-18T08:30:01Z</time>
      </trkpt>
      <trkpt lat="46.69792" lon="6.1883">
        <ele>949.2</ele>
        <time>2021-08-18T08:30:03Z</time>
      </trkpt>
      <trkpt lat="46.69789" lon="6.18827">
        <ele>949.3</ele>
        <time>2021-08-18T08:30:04Z</time>
      </trkpt>
      <trkpt lat="46.69789" lon="6.18824">
        <ele>949.3</ele>
        <time>2021-08-18T08:30:05Z</time>
      </trkpt>
      <trkpt lat="46.69788" lon="6.18822">
        <ele>949.4</ele>
        <time>2021-08-18T08:30:07Z</time>
      </trkpt>
      <trkpt lat="46.69787" lon="6.18819">
        <ele>949.4</ele>
        <time>2021-08-18T08:30:08Z</time>
      </trkpt>
      <trkpt lat="46.69781" lon="6.18814">
        <ele>949.5</ele>
        <time>2021-08-18T08:30:10Z</time>
      </trkpt>
      <trkpt lat="46.69779" lon="6.1881">
        <ele>949.5</ele>
        <time>2021-08-18T08:30:11Z</time>
      </trkpt>
      <trkpt lat="46.69774" lon="6.18804">
        <ele>949.6</ele>
        <time>2021-08-18T08:30:13Z</time>
      </trkpt>
      <trkpt lat="46.69771" lon="6.188">
        <ele>949.6</ele>
        <time>2021-08-18T08:30:14Z</time>
      </trkpt>
      <trkpt lat="46.69769" lon="6.18797">
        <ele>949.6</ele>
        <time>2021-08-18T08:30:16Z</time>
      </trkpt>
      <trkpt lat="46.69766" lon="6.18791">
        <ele>949.7</ele>
        <time>2021-08-18T08:30:18Z</time>
      </trkpt>
      <trkpt lat="46.69764" lon="6.18789">
        <ele>949.7</ele>
        <time>2021-08-18T08:30:19Z</time>
      </trkpt>
      <trkpt lat="46.69759" lon="6.18785">
        <ele>949.7</ele>
        <time>2021-08-18T08:30:21Z</time>
      </trkpt>
      <trkpt lat="46.69755" lon="6.1878">
        <ele>949.7</ele>
        <time>2021-08-18T08:30:22Z</time>
      </trkpt>
      <trkpt lat="46.69752" lon="6.18776">
        <ele>949.7</ele>
        <time>2021-08-18T08:30:23Z</time>
      </trkpt>
      <trkpt lat="46.69749" lon="6.18771">
        <ele>949.7</ele>
        <time>2021-08-18T08:30:24Z</time>
      </trkpt>
      <trkpt lat="46.69743" lon="6.18762">
        <ele>949.7</ele>
        <time>2021-08-18T08:30:26Z</time>
      </trkpt>
      <trkpt lat="46.6974" lon="6.18757">
        <ele>949.7</ele>
        <time>2021-08-18T08:30:27Z</time>
      </trkpt>
      <trkpt lat="46.69737" lon="6.18752">
        <ele>949.8</ele>
        <time>2021-08-18T08:30:28Z</time>
      </trkpt>
      <trkpt lat="46.69734" lon="6.18747">
        <ele>949.8</ele>
        <time>2021-08-18T08:30:29Z</time>
      </trkpt>
      <trkpt lat="46.6973" lon="6.18741">
        <ele>949.9</ele>
        <time>2021-08-18T08:30:31Z</time>
      </trkpt>
      <trkpt lat="46.69725" lon="6.18733">
        <ele>949.9</ele>
        <time>2021-08-18T08:30:32Z</time>
      </trkpt>
      <trkpt lat="46.6972" lon="6.18726">
        <ele>950.1</ele>
        <time>2021-08-18T08:30:34Z</time>
      </trkpt>
      <trkpt lat="46.69716" lon="6.18721">
        <ele>950.1</ele>
        <time>2021-08-18T08:30:35Z</time>
      </trkpt>
      <trkpt lat="46.69714" lon="6.18715">
        <ele>950.2</ele>
        <time>2021-08-18T08:30:36Z</time>
      </trkpt>
      <trkpt lat="46.69712" lon="6.1871">
        <ele>950.3</ele>
        <time>2021-08-18T08:30:37Z</time>
      </trkpt>
      <trkpt lat="46.69707" lon="6.18702">
        <ele>950.4</ele>
        <time>2021-08-18T08:30:39Z</time>
      </trkpt>
      <trkpt lat="46.69704" lon="6.18698">
        <ele>950.6</ele>
        <time>2021-08-18T08:30:41Z</time>
      </trkpt>
      <trkpt lat="46.697" lon="6.18692">
        <ele>950.7</ele>
        <time>2021-08-18T08:30:42Z</time>
      </trkpt>
      <trkpt lat="46.69698" lon="6.18688">
        <ele>950.8</ele>
        <time>2021-08-18T08:30:43Z</time>
      </trkpt>
      <trkpt lat="46.69695" lon="6.18683">
        <ele>951</ele>
        <time>2021-08-18T08:30:45Z</time>
      </trkpt>
      <trkpt lat="46.69692" lon="6.1868">
        <ele>951.1</ele>
        <time>2021-08-18T08:30:46Z</time>
      </trkpt>
      <trkpt lat="46.69687" lon="6.18675">
        <ele>951.3</ele>
        <time>2021-08-18T08:30:48Z</time>
      </trkpt>
      <trkpt lat="46.69683" lon="6.18669">
        <ele>951.5</ele>
        <time>2021-08-18T08:30:50Z</time>
      </trkpt>
      <trkpt lat="46.69679" lon="6.18667">
        <ele>951.6</ele>
        <time>2021-08-18T08:30:51Z</time>
      </trkpt>
      <trkpt lat="46.69677" lon="6.18664">
        <ele>951.7</ele>
        <time>2021-08-18T08:30:52Z</time>
      </trkpt>
      <trkpt lat="46.69675" lon="6.18661">
        <ele>951.8</ele>
        <time>2021-08-18T08:30:53Z</time>
      </trkpt>
      <trkpt lat="46.69672" lon="6.18656">
        <ele>951.9</ele>
        <time>2021-08-18T08:30:55Z</time>
      </trkpt>
      <trkpt lat="46.69671" lon="6.18652">
        <ele>952</ele>
        <time>2021-08-18T08:30:56Z</time>
      </trkpt>
      <trkpt lat="46.69668" lon="6.18649">
        <ele>952</ele>
        <time>2021-08-18T08:30:57Z</time>
      </trkpt>
      <trkpt lat="46.69667" lon="6.18649">
        <ele>952.1</ele>
        <time>2021-08-18T08:30:58Z</time>
      </trkpt>
      <trkpt lat="46.69665" lon="6.18648">
        <ele>952.1</ele>
        <time>2021-08-18T08:30:59Z</time>
      </trkpt>
      <trkpt lat="46.69661" lon="6.18645">
        <ele>952.2</ele>
        <time>2021-08-18T08:31:01Z</time>
      </trkpt>
      <trkpt lat="46.69656" lon="6.18642">
        <ele>952.3</ele>
        <time>2021-08-18T08:31:03Z</time>
      </trkpt>
      <trkpt lat="46.69655" lon="6.18641">
        <ele>952.3</ele>
        <time>2021-08-18T08:31:04Z</time>
      </trkpt>
      <trkpt lat="46.69654" lon="6.1864">
        <ele>952.2</ele>
        <time>2021-08-18T08:31:05Z</time>
      </trkpt>
      <trkpt lat="46.69651" lon="6.18638">
        <ele>952.2</ele>
        <time>2021-08-18T08:31:06Z</time>
      </trkpt>
      <trkpt lat="46.69649" lon="6.18635">
        <ele>952.1</ele>
        <time>2021-08-18T08:31:07Z</time>
      </trkpt>
      <trkpt lat="46.69645" lon="6.18632">
        <ele>952</ele>
        <time>2021-08-18T08:31:09Z</time>
      </trkpt>
      <trkpt lat="46.69643" lon="6.18631">
        <ele>951.9</ele>
        <time>2021-08-18T08:31:10Z</time>
      </trkpt>
      <trkpt lat="46.69641" lon="6.1863">
        <ele>951.9</ele>
        <time>2021-08-18T08:31:11Z</time>
      </trkpt>
      <trkpt lat="46.69639" lon="6.18628">
        <ele>951.8</ele>
        <time>2021-08-18T08:31:12Z</time>
      </trkpt>
      <trkpt lat="46.69637" lon="6.18627">
        <ele>951.8</ele>
        <time>2021-08-18T08:31:13Z</time>
      </trkpt>
      <trkpt lat="46.69632" lon="6.18624">
        <ele>951.6</ele>
        <time>2021-08-18T08:31:15Z</time>
      </trkpt>
      <trkpt lat="46.69628" lon="6.18621">
        <ele>951.5</ele>
        <time>2021-08-18T08:31:16Z</time>
      </trkpt>
      <trkpt lat="46.69622" lon="6.18619">
        <ele>951.3</ele>
        <time>2021-08-18T08:31:17Z</time>
      </trkpt>
      <trkpt lat="46.69614" lon="6.18617">
        <ele>951.2</ele>
        <time>2021-08-18T08:31:19Z</time>
      </trkpt>
      <trkpt lat="46.69604" lon="6.18615">
        <ele>951.2</ele>
        <time>2021-08-18T08:31:21Z</time>
      </trkpt>
      <trkpt lat="46.69596" lon="6.18611">
        <ele>951.2</ele>
        <time>2021-08-18T08:31:23Z</time>
      </trkpt>
      <trkpt lat="46.69589" lon="6.18608">
        <ele>951.3</ele>
        <time>2021-08-18T08:31:24Z</time>
      </trkpt>
      <trkpt lat="46.69584" lon="6.18608">
        <ele>951.4</ele>
        <time>2021-08-18T08:31:25Z</time>
      </trkpt>
      <trkpt lat="46.69579" lon="6.18606">
        <ele>951.5</ele>
        <time>2021-08-18T08:31:26Z</time>
      </trkpt>
      <trkpt lat="46.69575" lon="6.18603">
        <ele>951.5</ele>
        <time>2021-08-18T08:31:27Z</time>
      </trkpt>
      <trkpt lat="46.69572" lon="6.18601">
        <ele>951.6</ele>
        <time>2021-08-18T08:31:28Z</time>
      </trkpt>
      <trkpt lat="46.69568" lon="6.18599">
        <ele>951.7</ele>
        <time>2021-08-18T08:31:29Z</time>
      </trkpt>
      <trkpt lat="46.69564" lon="6.18597">
        <ele>951.7</ele>
        <time>2021-08-18T08:31:31Z</time>
      </trkpt>
      <trkpt lat="46.69561" lon="6.18595">
        <ele>951.8</ele>
        <time>2021-08-18T08:31:32Z</time>
      </trkpt>
      <trkpt lat="46.69557" lon="6.18592">
        <ele>951.9</ele>
        <time>2021-08-18T08:31:33Z</time>
      </trkpt>
      <trkpt lat="46.69552" lon="6.18588">
        <ele>952</ele>
        <time>2021-08-18T08:31:35Z</time>
      </trkpt>
      <trkpt lat="46.69548" lon="6.18587">
        <ele>952.1</ele>
        <time>2021-08-18T08:31:37Z</time>
      </trkpt>
      <trkpt lat="46.69543" lon="6.18585">
        <ele>952.2</ele>
        <time>2021-08-18T08:31:38Z</time>
      </trkpt>
      <trkpt lat="46.69539" lon="6.18585">
        <ele>952.3</ele>
        <time>2021-08-18T08:31:40Z</time>
      </trkpt>
      <trkpt lat="46.69535" lon="6.18585">
        <ele>952.4</ele>
        <time>2021-08-18T08:31:41Z</time>
      </trkpt>
      <trkpt lat="46.69532" lon="6.18584">
        <ele>952.5</ele>
        <time>2021-08-18T08:31:42Z</time>
      </trkpt>
      <trkpt lat="46.69531" lon="6.18584">
        <ele>952.6</ele>
        <time>2021-08-18T08:31:43Z</time>
      </trkpt>
      <trkpt lat="46.69527" lon="6.18581">
        <ele>952.6</ele>
        <time>2021-08-18T08:31:45Z</time>
      </trkpt>
      <trkpt lat="46.69524" lon="6.18578">
        <ele>952.7</ele>
        <time>2021-08-18T08:31:47Z</time>
      </trkpt>
      <trkpt lat="46.69523" lon="6.18577">
        <ele>952.7</ele>
        <time>2021-08-18T08:31:48Z</time>
      </trkpt>
      <trkpt lat="46.69521" lon="6.18573">
        <ele>952.8</ele>
        <time>2021-08-18T08:31:49Z</time>
      </trkpt>
      <trkpt lat="46.6952" lon="6.18572">
        <ele>952.8</ele>
        <time>2021-08-18T08:31:50Z</time>
      </trkpt>
      <trkpt lat="46.69517" lon="6.18569">
        <ele>952.8</ele>
        <time>2021-08-18T08:31:51Z</time>
      </trkpt>
      <trkpt lat="46.69516" lon="6.18567">
        <ele>952.8</ele>
        <time>2021-08-18T08:31:52Z</time>
      </trkpt>
      <trkpt lat="46.69513" lon="6.18564">
        <ele>952.9</ele>
        <time>2021-08-18T08:31:54Z</time>
      </trkpt>
      <trkpt lat="46.69509" lon="6.1856">
        <ele>953</ele>
        <time>2021-08-18T08:31:55Z</time>
      </trkpt>
      <trkpt lat="46.69504" lon="6.18556">
        <ele>953</ele>
        <time>2021-08-18T08:31:57Z</time>
      </trkpt>
      <trkpt lat="46.69501" lon="6.18553">
        <ele>953</ele>
        <time>2021-08-18T08:31:58Z</time>
      </trkpt>
      <trkpt lat="46.69499" lon="6.1855">
        <ele>953.1</ele>
        <time>2021-08-18T08:31:59Z</time>
      </trkpt>
      <trkpt lat="46.69496" lon="6.18548">
        <ele>953.1</ele>
        <time>2021-08-18T08:32:00Z</time>
      </trkpt>
      <trkpt lat="46.69493" lon="6.18545">
        <ele>953.1</ele>
        <time>2021-08-18T08:32:01Z</time>
      </trkpt>
      <trkpt lat="46.69491" lon="6.18543">
        <ele>953.1</ele>
        <time>2021-08-18T08:32:02Z</time>
      </trkpt>
      <trkpt lat="46.69485" lon="6.1854">
        <ele>953.2</ele>
        <time>2021-08-18T08:32:04Z</time>
      </trkpt>
      <trkpt lat="46.69482" lon="6.18539">
        <ele>953.2</ele>
        <time>2021-08-18T08:32:05Z</time>
      </trkpt>
      <trkpt lat="46.69477" lon="6.18535">
        <ele>953.1</ele>
        <time>2021-08-18T08:32:07Z</time>
      </trkpt>
      <trkpt lat="46.69472" lon="6.18532">
        <ele>953.1</ele>
        <time>2021-08-18T08:32:08Z</time>
      </trkpt>
      <trkpt lat="46.69467" lon="6.18526">
        <ele>953</ele>
        <time>2021-08-18T08:32:10Z</time>
      </trkpt>
      <trkpt lat="46.69463" lon="6.18519">
        <ele>953</ele>
        <time>2021-08-18T08:32:11Z</time>
      </trkpt>
      <trkpt lat="46.69459" lon="6.18511">
        <ele>953</ele>
        <time>2021-08-18T08:32:12Z</time>
      </trkpt>
      <trkpt lat="46.69457" lon="6.18504">
        <ele>953</ele>
        <time>2021-08-18T08:32:13Z</time>
      </trkpt>
      <trkpt lat="46.69455" lon="6.18498">
        <ele>953.1</ele>
        <time>2021-08-18T08:32:14Z</time>
      </trkpt>
      <trkpt lat="46.69454" lon="6.18491">
        <ele>953.2</ele>
        <time>2021-08-18T08:32:16Z</time>
      </trkpt>
      <trkpt lat="46.69453" lon="6.18486">
        <ele>953.2</ele>
        <time>2021-08-18T08:32:17Z</time>
      </trkpt>
      <trkpt lat="46.69453" lon="6.18481">
        <ele>953.2</ele>
        <time>2021-08-18T08:32:18Z</time>
      </trkpt>
      <trkpt lat="46.69455" lon="6.18477">
        <ele>953.2</ele>
        <time>2021-08-18T08:32:19Z</time>
      </trkpt>
      <trkpt lat="46.69457" lon="6.18474">
        <ele>953.2</ele>
        <time>2021-08-18T08:32:20Z</time>
      </trkpt>
      <trkpt lat="46.69459" lon="6.18471">
        <ele>953.2</ele>
        <time>2021-08-18T08:32:21Z</time>
      </trkpt>
      <trkpt lat="46.69464" lon="6.18468">
        <ele>953.1</ele>
        <time>2021-08-18T08:32:23Z</time>
      </trkpt>
      <trkpt lat="46.6947" lon="6.18463">
        <ele>953.1</ele>
        <time>2021-08-18T08:32:24Z</time>
      </trkpt>
      <trkpt lat="46.69478" lon="6.18458">
        <ele>952.9</ele>
        <time>2021-08-18T08:32:26Z</time>
      </trkpt>
      <trkpt lat="46.69483" lon="6.18456">
        <ele>952.9</ele>
        <time>2021-08-18T08:32:27Z</time>
      </trkpt>
      <trkpt lat="46.69492" lon="6.1845">
        <ele>952.8</ele>
        <time>2021-08-18T08:32:29Z</time>
      </trkpt>
      <trkpt lat="46.69497" lon="6.18447">
        <ele>952.8</ele>
        <time>2021-08-18T08:32:30Z</time>
      </trkpt>
      <trkpt lat="46.69504" lon="6.18443">
        <ele>952.8</ele>
        <time>2021-08-18T08:32:32Z</time>
      </trkpt>
      <trkpt lat="46.69509" lon="6.18441">
        <ele>952.9</ele>
        <time>2021-08-18T08:32:33Z</time>
      </trkpt>
      <trkpt lat="46.69514" lon="6.18438">
        <ele>953</ele>
        <time>2021-08-18T08:32:34Z</time>
      </trkpt>
      <trkpt lat="46.69518" lon="6.18436">
        <ele>953.2</ele>
        <time>2021-08-18T08:32:35Z</time>
      </trkpt>
      <trkpt lat="46.69524" lon="6.18432">
        <ele>953.4</ele>
        <time>2021-08-18T08:32:37Z</time>
      </trkpt>
      <trkpt lat="46.69528" lon="6.1843">
        <ele>953.6</ele>
        <time>2021-08-18T08:32:38Z</time>
      </trkpt>
      <trkpt lat="46.69528" lon="6.18431">
        <ele>953.6</ele>
        <time>2021-08-18T08:32:40Z</time>
      </trkpt>
      <trkpt lat="46.69529" lon="6.1843">
        <ele>953.7</ele>
        <time>2021-08-18T08:32:41Z</time>
      </trkpt>
      <trkpt lat="46.69531" lon="6.18429">
        <ele>953.7</ele>
        <time>2021-08-18T08:32:42Z</time>
      </trkpt>
      <trkpt lat="46.69535" lon="6.18427">
        <ele>954</ele>
        <time>2021-08-18T08:32:43Z</time>
      </trkpt>
      <trkpt lat="46.69537" lon="6.18425">
        <ele>954.1</ele>
        <time>2021-08-18T08:32:44Z</time>
      </trkpt>
      <trkpt lat="46.69541" lon="6.18421">
        <ele>954.4</ele>
        <time>2021-08-18T08:32:46Z</time>
      </trkpt>
      <trkpt lat="46.69545" lon="6.1842">
        <ele>954.5</ele>
        <time>2021-08-18T08:32:48Z</time>
      </trkpt>
      <trkpt lat="46.69547" lon="6.18418">
        <ele>954.7</ele>
        <time>2021-08-18T08:32:49Z</time>
      </trkpt>
      <trkpt lat="46.69551" lon="6.18416">
        <ele>954.8</ele>
        <time>2021-08-18T08:32:50Z</time>
      </trkpt>
      <trkpt lat="46.69551" lon="6.18416">
        <ele>954.9</ele>
        <time>2021-08-18T08:32:51Z</time>
      </trkpt>
      <trkpt lat="46.69555" lon="6.18413">
        <ele>955</ele>
        <time>2021-08-18T08:32:52Z</time>
      </trkpt>
      <trkpt lat="46.69556" lon="6.18412">
        <ele>955.1</ele>
        <time>2021-08-18T08:32:53Z</time>
      </trkpt>
      <trkpt lat="46.69559" lon="6.1841">
        <ele>955.2</ele>
        <time>2021-08-18T08:32:55Z</time>
      </trkpt>
      <trkpt lat="46.69561" lon="6.18406">
        <ele>955.3</ele>
        <time>2021-08-18T08:32:56Z</time>
      </trkpt>
      <trkpt lat="46.69563" lon="6.18404">
        <ele>955.4</ele>
        <time>2021-08-18T08:32:57Z</time>
      </trkpt>
      <trkpt lat="46.69565" lon="6.18399">
        <ele>955.5</ele>
        <time>2021-08-18T08:32:59Z</time>
      </trkpt>
      <trkpt lat="46.69567" lon="6.18394">
        <ele>955.6</ele>
        <time>2021-08-18T08:33:00Z</time>
      </trkpt>
      <trkpt lat="46.69569" lon="6.1839">
        <ele>955.7</ele>
        <time>2021-08-18T08:33:01Z</time>
      </trkpt>
      <trkpt lat="46.69571" lon="6.18385">
        <ele>955.7</ele>
        <time>2021-08-18T08:33:03Z</time>
      </trkpt>
      <trkpt lat="46.69573" lon="6.18379">
        <ele>955.7</ele>
        <time>2021-08-18T08:33:04Z</time>
      </trkpt>
      <trkpt lat="46.69576" lon="6.18374">
        <ele>955.8</ele>
        <time>2021-08-18T08:33:06Z</time>
      </trkpt>
      <trkpt lat="46.69578" lon="6.1837">
        <ele>955.8</ele>
        <time>2021-08-18T08:33:07Z</time>
      </trkpt>
      <trkpt lat="46.69579" lon="6.18366">
        <ele>955.8</ele>
        <time>2021-08-18T08:33:08Z</time>
      </trkpt>
      <trkpt lat="46.6958" lon="6.18361">
        <ele>955.8</ele>
        <time>2021-08-18T08:33:09Z</time>
      </trkpt>
      <trkpt lat="46.6958" lon="6.1836">
        <ele>955.8</ele>
        <time>2021-08-18T08:33:10Z</time>
      </trkpt>
      <trkpt lat="46.6958" lon="6.18354">
        <ele>955.9</ele>
        <time>2021-08-18T08:33:12Z</time>
      </trkpt>
      <trkpt lat="46.69578" lon="6.18351">
        <ele>955.9</ele>
        <time>2021-08-18T08:33:13Z</time>
      </trkpt>
      <trkpt lat="46.69576" lon="6.18346">
        <ele>956</ele>
        <time>2021-08-18T08:33:15Z</time>
      </trkpt>
      <trkpt lat="46.69573" lon="6.18339">
        <ele>956.1</ele>
        <time>2021-08-18T08:33:17Z</time>
      </trkpt>
      <trkpt lat="46.69572" lon="6.18335">
        <ele>956.1</ele>
        <time>2021-08-18T08:33:18Z</time>
      </trkpt>
      <trkpt lat="46.69572" lon="6.18329">
        <ele>956.2</ele>
        <time>2021-08-18T08:33:19Z</time>
      </trkpt>
      <trkpt lat="46.69571" lon="6.18321">
        <ele>956.3</ele>
        <time>2021-08-18T08:33:21Z</time>
      </trkpt>
      <trkpt lat="46.69569" lon="6.18316">
        <ele>956.4</ele>
        <time>2021-08-18T08:33:22Z</time>
      </trkpt>
      <trkpt lat="46.69567" lon="6.18312">
        <ele>956.5</ele>
        <time>2021-08-18T08:33:23Z</time>
      </trkpt>
      <trkpt lat="46.69567" lon="6.1831">
        <ele>956.6</ele>
        <time>2021-08-18T08:33:24Z</time>
      </trkpt>
      <trkpt lat="46.69565" lon="6.18306">
        <ele>956.7</ele>
        <time>2021-08-18T08:33:26Z</time>
      </trkpt>
      <trkpt lat="46.69562" lon="6.18302">
        <ele>956.8</ele>
        <time>2021-08-18T08:33:28Z</time>
      </trkpt>
      <trkpt lat="46.6956" lon="6.18298">
        <ele>956.9</ele>
        <time>2021-08-18T08:33:29Z</time>
      </trkpt>
      <trkpt lat="46.6956" lon="6.18297">
        <ele>956.9</ele>
        <time>2021-08-18T08:33:30Z</time>
      </trkpt>
      <trkpt lat="46.69559" lon="6.18293">
        <ele>957</ele>
        <time>2021-08-18T08:33:32Z</time>
      </trkpt>
      <trkpt lat="46.69559" lon="6.18292">
        <ele>957.1</ele>
        <time>2021-08-18T08:33:33Z</time>
      </trkpt>
      <trkpt lat="46.69557" lon="6.18289">
        <ele>957.2</ele>
        <time>2021-08-18T08:33:34Z</time>
      </trkpt>
      <trkpt lat="46.69552" lon="6.18282">
        <ele>957.4</ele>
        <time>2021-08-18T08:33:36Z</time>
      </trkpt>
      <trkpt lat="46.69548" lon="6.1828">
        <ele>957.6</ele>
        <time>2021-08-18T08:33:37Z</time>
      </trkpt>
      <trkpt lat="46.69544" lon="6.18277">
        <ele>957.7</ele>
        <time>2021-08-18T08:33:39Z</time>
      </trkpt>
      <trkpt lat="46.69541" lon="6.18272">
        <ele>957.8</ele>
        <time>2021-08-18T08:33:41Z</time>
      </trkpt>
      <trkpt lat="46.6954" lon="6.18268">
        <ele>957.9</ele>
        <time>2021-08-18T08:33:42Z</time>
      </trkpt>
      <trkpt lat="46.69539" lon="6.1826">
        <ele>958</ele>
        <time>2021-08-18T08:33:43Z</time>
      </trkpt>
      <trkpt lat="46.69537" lon="6.1825">
        <ele>958.1</ele>
        <time>2021-08-18T08:33:45Z</time>
      </trkpt>
      <trkpt lat="46.69536" lon="6.18241">
        <ele>958.1</ele>
        <time>2021-08-18T08:33:46Z</time>
      </trkpt>
      <trkpt lat="46.69536" lon="6.18233">
        <ele>958.1</ele>
        <time>2021-08-18T08:33:47Z</time>
      </trkpt>
      <trkpt lat="46.69535" lon="6.18226">
        <ele>958.1</ele>
        <time>2021-08-18T08:33:48Z</time>
      </trkpt>
      <trkpt lat="46.69535" lon="6.1822">
        <ele>958.1</ele>
        <time>2021-08-18T08:33:49Z</time>
      </trkpt>
      <trkpt lat="46.69534" lon="6.18212">
        <ele>958.1</ele>
        <time>2021-08-18T08:33:51Z</time>
      </trkpt>
      <trkpt lat="46.69533" lon="6.18206">
        <ele>958.1</ele>
        <time>2021-08-18T08:33:52Z</time>
      </trkpt>
      <trkpt lat="46.69532" lon="6.18202">
        <ele>958.1</ele>
        <time>2021-08-18T08:33:53Z</time>
      </trkpt>
      <trkpt lat="46.69532" lon="6.182">
        <ele>958.1</ele>
        <time>2021-08-18T08:33:54Z</time>
      </trkpt>
      <trkpt lat="46.69534" lon="6.18197">
        <ele>958.1</ele>
        <time>2021-08-18T08:33:56Z</time>
      </trkpt>
      <trkpt lat="46.69534" lon="6.18193">
        <ele>958.1</ele>
        <time>2021-08-18T08:33:57Z</time>
      </trkpt>
      <trkpt lat="46.69534" lon="6.18191">
        <ele>958.2</ele>
        <time>2021-08-18T08:33:58Z</time>
      </trkpt>
      <trkpt lat="46.69533" lon="6.18186">
        <ele>958.2</ele>
        <time>2021-08-18T08:34:00Z</time>
      </trkpt>
      <trkpt lat="46.69533" lon="6.18182">
        <ele>958.2</ele>
        <time>2021-08-18T08:34:01Z</time>
      </trkpt>
      <trkpt lat="46.69534" lon="6.18178">
        <ele>958.2</ele>
        <time>2021-08-18T08:34:02Z</time>
      </trkpt>
      <trkpt lat="46.69534" lon="6.18176">
        <ele>958.2</ele>
        <time>2021-08-18T08:34:03Z</time>
      </trkpt>
      <trkpt lat="46.69486" lon="6.18077">
        <ele>959.1</ele>
        <time>2021-08-18T08:34:47Z</time>
      </trkpt>
      <trkpt lat="46.69482" lon="6.18077">
        <ele>959.3</ele>
        <time>2021-08-18T08:34:49Z</time>
      </trkpt>
      <trkpt lat="46.69479" lon="6.18076">
        <ele>959.5</ele>
        <time>2021-08-18T08:34:50Z</time>
      </trkpt>
      <trkpt lat="46.69477" lon="6.18076">
        <ele>959.7</ele>
        <time>2021-08-18T08:34:51Z</time>
      </trkpt>
      <trkpt lat="46.69474" lon="6.18074">
        <ele>959.9</ele>
        <time>2021-08-18T08:34:53Z</time>
      </trkpt>
      <trkpt lat="46.69472" lon="6.18072">
        <ele>960.1</ele>
        <time>2021-08-18T08:34:54Z</time>
      </trkpt>
      <trkpt lat="46.69471" lon="6.18071">
        <ele>960.2</ele>
        <time>2021-08-18T08:34:55Z</time>
      </trkpt>
      <trkpt lat="46.69468" lon="6.18069">
        <ele>960.6</ele>
        <time>2021-08-18T08:34:57Z</time>
      </trkpt>
      <trkpt lat="46.69466" lon="6.18069">
        <ele>960.7</ele>
        <time>2021-08-18T08:34:58Z</time>
      </trkpt>
      <trkpt lat="46.69462" lon="6.18067">
        <ele>961.2</ele>
        <time>2021-08-18T08:35:00Z</time>
      </trkpt>
      <trkpt lat="46.69449" lon="6.18045">
        <ele>963.2</ele>
        <time>2021-08-18T08:35:12Z</time>
      </trkpt>
      <trkpt lat="46.69447" lon="6.18044">
        <ele>963.4</ele>
        <time>2021-08-18T08:35:13Z</time>
      </trkpt>
      <trkpt lat="46.69445" lon="6.18044">
        <ele>963.6</ele>
        <time>2021-08-18T08:35:15Z</time>
      </trkpt>
      <trkpt lat="46.69443" lon="6.18044">
        <ele>963.8</ele>
        <time>2021-08-18T08:35:16Z</time>
      </trkpt>
      <trkpt lat="46.69441" lon="6.18043">
        <ele>963.9</ele>
        <time>2021-08-18T08:35:18Z</time>
      </trkpt>
      <trkpt lat="46.6944" lon="6.18044">
        <ele>964</ele>
        <time>2021-08-18T08:35:19Z</time>
      </trkpt>
      <trkpt lat="46.69439" lon="6.18044">
        <ele>964.1</ele>
        <time>2021-08-18T08:35:20Z</time>
      </trkpt>
      <trkpt lat="46.69438" lon="6.18044">
        <ele>964.3</ele>
        <time>2021-08-18T08:35:21Z</time>
      </trkpt>
      <trkpt lat="46.69434" lon="6.18045">
        <ele>964.6</ele>
        <time>2021-08-18T08:35:23Z</time>
      </trkpt>
      <trkpt lat="46.69433" lon="6.18045">
        <ele>964.8</ele>
        <time>2021-08-18T08:35:24Z</time>
      </trkpt>
      <trkpt lat="46.69432" lon="6.18046">
        <ele>964.9</ele>
        <time>2021-08-18T08:35:25Z</time>
      </trkpt>
      <trkpt lat="46.6943" lon="6.18047">
        <ele>965</ele>
        <time>2021-08-18T08:35:27Z</time>
      </trkpt>
      <trkpt lat="46.69429" lon="6.18048">
        <ele>965.2</ele>
        <time>2021-08-18T08:35:28Z</time>
      </trkpt>
      <trkpt lat="46.69427" lon="6.18048">
        <ele>965.4</ele>
        <time>2021-08-18T08:35:30Z</time>
      </trkpt>
      <trkpt lat="46.69426" lon="6.18048">
        <ele>965.6</ele>
        <time>2021-08-18T08:35:31Z</time>
      </trkpt>
      <trkpt lat="46.69425" lon="6.18049">
        <ele>965.7</ele>
        <time>2021-08-18T08:35:32Z</time>
      </trkpt>
      <trkpt lat="46.69424" lon="6.18049">
        <ele>965.8</ele>
        <time>2021-08-18T08:35:33Z</time>
      </trkpt>
      <trkpt lat="46.69422" lon="6.1805">
        <ele>966.1</ele>
        <time>2021-08-18T08:35:35Z</time>
      </trkpt>
      <trkpt lat="46.69421" lon="6.1805">
        <ele>966.2</ele>
        <time>2021-08-18T08:35:36Z</time>
      </trkpt>
      <trkpt lat="46.6942" lon="6.1805">
        <ele>966.4</ele>
        <time>2021-08-18T08:35:37Z</time>
      </trkpt>
      <trkpt lat="46.69412" lon="6.1805">
        <ele>967.5</ele>
        <time>2021-08-18T08:35:39Z</time>
      </trkpt>
      <trkpt lat="46.69405" lon="6.1805">
        <ele>968.6</ele>
        <time>2021-08-18T08:35:40Z</time>
      </trkpt>
      <trkpt lat="46.69397" lon="6.18049">
        <ele>969.8</ele>
        <time>2021-08-18T08:35:42Z</time>
      </trkpt>
      <trkpt lat="46.69394" lon="6.18048">
        <ele>970.3</ele>
        <time>2021-08-18T08:35:43Z</time>
      </trkpt>
      <trkpt lat="46.69393" lon="6.18047">
        <ele>970.5</ele>
        <time>2021-08-18T08:35:45Z</time>
      </trkpt>
      <trkpt lat="46.69392" lon="6.18046">
        <ele>970.6</ele>
        <time>2021-08-18T08:35:46Z</time>
      </trkpt>
      <trkpt lat="46.69391" lon="6.18045">
        <ele>970.8</ele>
        <time>2021-08-18T08:35:47Z</time>
      </trkpt>
      <trkpt lat="46.69388" lon="6.18044">
        <ele>971.1</ele>
        <time>2021-08-18T08:35:49Z</time>
      </trkpt>
      <trkpt lat="46.69388" lon="6.18043">
        <ele>971.2</ele>
        <time>2021-08-18T08:35:50Z</time>
      </trkpt>
      <trkpt lat="46.69382" lon="6.1804">
        <ele>971.7</ele>
        <time>2021-08-18T08:35:52Z</time>
      </trkpt>
      <trkpt lat="46.69377" lon="6.18038">
        <ele>972.1</ele>
        <time>2021-08-18T08:35:53Z</time>
      </trkpt>
      <trkpt lat="46.69371" lon="6.18032">
        <ele>972.5</ele>
        <time>2021-08-18T08:35:55Z</time>
      </trkpt>
      <trkpt lat="46.69368" lon="6.18029">
        <ele>972.7</ele>
        <time>2021-08-18T08:35:56Z</time>
      </trkpt>
      <trkpt lat="46.69363" lon="6.18027">
        <ele>972.9</ele>
        <time>2021-08-18T08:35:57Z</time>
      </trkpt>
      <trkpt lat="46.69358" lon="6.18026">
        <ele>973.1</ele>
        <time>2021-08-18T08:35:59Z</time>
      </trkpt>
      <trkpt lat="46.69355" lon="6.18022">
        <ele>973.2</ele>
        <time>2021-08-18T08:36:00Z</time>
      </trkpt>
      <trkpt lat="46.69354" lon="6.1802">
        <ele>973.2</ele>
        <time>2021-08-18T08:36:01Z</time>
      </trkpt>
      <trkpt lat="46.69355" lon="6.18016">
        <ele>973.3</ele>
        <time>2021-08-18T08:36:03Z</time>
      </trkpt>
      <trkpt lat="46.69355" lon="6.18015">
        <ele>973.3</ele>
        <time>2021-08-18T08:36:04Z</time>
      </trkpt>
      <trkpt lat="46.69356" lon="6.18014">
        <ele>973.3</ele>
        <time>2021-08-18T08:36:05Z</time>
      </trkpt>
      <trkpt lat="46.69357" lon="6.18014">
        <ele>973.3</ele>
        <time>2021-08-18T08:36:07Z</time>
      </trkpt>
      <trkpt lat="46.69357" lon="6.18011">
        <ele>973.3</ele>
        <time>2021-08-18T08:36:08Z</time>
      </trkpt>
      <trkpt lat="46.69357" lon="6.1801">
        <ele>973.3</ele>
        <time>2021-08-18T08:36:09Z</time>
      </trkpt>
      <trkpt lat="46.69355" lon="6.18008">
        <ele>973.3</ele>
        <time>2021-08-18T08:36:10Z</time>
      </trkpt>
      <trkpt lat="46.69353" lon="6.18003">
        <ele>973.3</ele>
        <time>2021-08-18T08:36:12Z</time>
      </trkpt>
      <trkpt lat="46.69352" lon="6.18001">
        <ele>973.3</ele>
        <time>2021-08-18T08:36:13Z</time>
      </trkpt>
      <trkpt lat="46.6935" lon="6.17999">
        <ele>973.3</ele>
        <time>2021-08-18T08:36:14Z</time>
      </trkpt>
      <trkpt lat="46.69349" lon="6.17999">
        <ele>973.3</ele>
        <time>2021-08-18T08:36:15Z</time>
      </trkpt>
      <trkpt lat="46.69345" lon="6.17997">
        <ele>973.2</ele>
        <time>2021-08-18T08:36:16Z</time>
      </trkpt>
      <trkpt lat="46.69344" lon="6.17996">
        <ele>973.2</ele>
        <time>2021-08-18T08:36:17Z</time>
      </trkpt>
      <trkpt lat="46.6934" lon="6.17992">
        <ele>973.2</ele>
        <time>2021-08-18T08:36:19Z</time>
      </trkpt>
      <trkpt lat="46.69339" lon="6.17991">
        <ele>973.1</ele>
        <time>2021-08-18T08:36:20Z</time>
      </trkpt>
      <trkpt lat="46.69338" lon="6.1799">
        <ele>973.1</ele>
        <time>2021-08-18T08:36:21Z</time>
      </trkpt>
      <trkpt lat="46.69336" lon="6.17986">
        <ele>973.1</ele>
        <time>2021-08-18T08:36:22Z</time>
      </trkpt>
      <trkpt lat="46.69334" lon="6.17982">
        <ele>973.1</ele>
        <time>2021-08-18T08:36:23Z</time>
      </trkpt>
      <trkpt lat="46.6933" lon="6.17973">
        <ele>973</ele>
        <time>2021-08-18T08:36:25Z</time>
      </trkpt>
      <trkpt lat="46.69327" lon="6.17967">
        <ele>973</ele>
        <time>2021-08-18T08:36:26Z</time>
      </trkpt>
      <trkpt lat="46.69322" lon="6.17957">
        <ele>973.1</ele>
        <time>2021-08-18T08:36:28Z</time>
      </trkpt>
      <trkpt lat="46.69317" lon="6.17948">
        <ele>973.1</ele>
        <time>2021-08-18T08:36:30Z</time>
      </trkpt>
      <trkpt lat="46.69314" lon="6.17943">
        <ele>973.1</ele>
        <time>2021-08-18T08:36:31Z</time>
      </trkpt>
      <trkpt lat="46.69311" lon="6.17937">
        <ele>973.2</ele>
        <time>2021-08-18T08:36:33Z</time>
      </trkpt>
      <trkpt lat="46.6931" lon="6.17932">
        <ele>973.2</ele>
        <time>2021-08-18T08:36:34Z</time>
      </trkpt>
      <trkpt lat="46.6931" lon="6.17927">
        <ele>973.3</ele>
        <time>2021-08-18T08:36:35Z</time>
      </trkpt>
      <trkpt lat="46.69308" lon="6.1792">
        <ele>973.4</ele>
        <time>2021-08-18T08:36:37Z</time>
      </trkpt>
      <trkpt lat="46.69306" lon="6.17917">
        <ele>973.5</ele>
        <time>2021-08-18T08:36:38Z</time>
      </trkpt>
      <trkpt lat="46.69305" lon="6.17917">
        <ele>973.5</ele>
        <time>2021-08-18T08:36:39Z</time>
      </trkpt>
      <trkpt lat="46.69303" lon="6.17913">
        <ele>973.6</ele>
        <time>2021-08-18T08:36:41Z</time>
      </trkpt>
      <trkpt lat="46.69301" lon="6.17911">
        <ele>973.7</ele>
        <time>2021-08-18T08:36:42Z</time>
      </trkpt>
      <trkpt lat="46.69298" lon="6.17908">
        <ele>973.7</ele>
        <time>2021-08-18T08:36:43Z</time>
      </trkpt>
      <trkpt lat="46.69295" lon="6.17905">
        <ele>973.9</ele>
        <time>2021-08-18T08:36:45Z</time>
      </trkpt>
      <trkpt lat="46.69291" lon="6.17902">
        <ele>974.1</ele>
        <time>2021-08-18T08:36:46Z</time>
      </trkpt>
      <trkpt lat="46.69289" lon="6.179">
        <ele>974.2</ele>
        <time>2021-08-18T08:36:47Z</time>
      </trkpt>
      <trkpt lat="46.69284" lon="6.17898">
        <ele>974.4</ele>
        <time>2021-08-18T08:36:49Z</time>
      </trkpt>
      <trkpt lat="46.69281" lon="6.17895">
        <ele>974.6</ele>
        <time>2021-08-18T08:36:51Z</time>
      </trkpt>
      <trkpt lat="46.69278" lon="6.17893">
        <ele>974.8</ele>
        <time>2021-08-18T08:36:52Z</time>
      </trkpt>
      <trkpt lat="46.69275" lon="6.17891">
        <ele>975</ele>
        <time>2021-08-18T08:36:53Z</time>
      </trkpt>
      <trkpt lat="46.69274" lon="6.1789">
        <ele>975</ele>
        <time>2021-08-18T08:36:54Z</time>
      </trkpt>
      <trkpt lat="46.69273" lon="6.17888">
        <ele>975.1</ele>
        <time>2021-08-18T08:36:55Z</time>
      </trkpt>
      <trkpt lat="46.6927" lon="6.17885">
        <ele>975.3</ele>
        <time>2021-08-18T08:36:57Z</time>
      </trkpt>
      <trkpt lat="46.69268" lon="6.1788">
        <ele>975.6</ele>
        <time>2021-08-18T08:36:58Z</time>
      </trkpt>
      <trkpt lat="46.69268" lon="6.17879">
        <ele>975.6</ele>
        <time>2021-08-18T08:36:59Z</time>
      </trkpt>
      <trkpt lat="46.6927" lon="6.17874">
        <ele>975.6</ele>
        <time>2021-08-18T08:37:01Z</time>
      </trkpt>
      <trkpt lat="46.69271" lon="6.17869">
        <ele>975.5</ele>
        <time>2021-08-18T08:37:02Z</time>
      </trkpt>
      <trkpt lat="46.69273" lon="6.17862">
        <ele>975.3</ele>
        <time>2021-08-18T08:37:04Z</time>
      </trkpt>
      <trkpt lat="46.69274" lon="6.17858">
        <ele>975.2</ele>
        <time>2021-08-18T08:37:05Z</time>
      </trkpt>
      <trkpt lat="46.69276" lon="6.17853">
        <ele>975.1</ele>
        <time>2021-08-18T08:37:06Z</time>
      </trkpt>
      <trkpt lat="46.69278" lon="6.17848">
        <ele>975</ele>
        <time>2021-08-18T08:37:07Z</time>
      </trkpt>
      <trkpt lat="46.69281" lon="6.17842">
        <ele>975</ele>
        <time>2021-08-18T08:37:09Z</time>
      </trkpt>
      <trkpt lat="46.69285" lon="6.17839">
        <ele>974.9</ele>
        <time>2021-08-18T08:37:10Z</time>
      </trkpt>
      <trkpt lat="46.69291" lon="6.17836">
        <ele>974.9</ele>
        <time>2021-08-18T08:37:12Z</time>
      </trkpt>
      <trkpt lat="46.69296" lon="6.17834">
        <ele>975</ele>
        <time>2021-08-18T08:37:13Z</time>
      </trkpt>
      <trkpt lat="46.69302" lon="6.17833">
        <ele>975.1</ele>
        <time>2021-08-18T08:37:14Z</time>
      </trkpt>
      <trkpt lat="46.69308" lon="6.17831">
        <ele>975.3</ele>
        <time>2021-08-18T08:37:16Z</time>
      </trkpt>
      <trkpt lat="46.69312" lon="6.1783">
        <ele>975.4</ele>
        <time>2021-08-18T08:37:17Z</time>
      </trkpt>
      <trkpt lat="46.69316" lon="6.1783">
        <ele>975.5</ele>
        <time>2021-08-18T08:37:18Z</time>
      </trkpt>
      <trkpt lat="46.6932" lon="6.17828">
        <ele>975.6</ele>
        <time>2021-08-18T08:37:19Z</time>
      </trkpt>
      <trkpt lat="46.69323" lon="6.17825">
        <ele>975.7</ele>
        <time>2021-08-18T08:37:20Z</time>
      </trkpt>
      <trkpt lat="46.69326" lon="6.17821">
        <ele>975.9</ele>
        <time>2021-08-18T08:37:21Z</time>
      </trkpt>
      <trkpt lat="46.69329" lon="6.17818">
        <ele>976</ele>
        <time>2021-08-18T08:37:22Z</time>
      </trkpt>
      <trkpt lat="46.69331" lon="6.17813">
        <ele>976.1</ele>
        <time>2021-08-18T08:37:23Z</time>
      </trkpt>
      <trkpt lat="46.69331" lon="6.17808">
        <ele>976.2</ele>
        <time>2021-08-18T08:37:25Z</time>
      </trkpt>
      <trkpt lat="46.69331" lon="6.17803">
        <ele>976.3</ele>
        <time>2021-08-18T08:37:26Z</time>
      </trkpt>
      <trkpt lat="46.6933" lon="6.17798">
        <ele>976.4</ele>
        <time>2021-08-18T08:37:27Z</time>
      </trkpt>
      <trkpt lat="46.69329" lon="6.17793">
        <ele>976.5</ele>
        <time>2021-08-18T08:37:28Z</time>
      </trkpt>
      <trkpt lat="46.6933" lon="6.17789">
        <ele>976.6</ele>
        <time>2021-08-18T08:37:29Z</time>
      </trkpt>
      <trkpt lat="46.6933" lon="6.17784">
        <ele>976.7</ele>
        <time>2021-08-18T08:37:30Z</time>
      </trkpt>
      <trkpt lat="46.6933" lon="6.1778">
        <ele>976.8</ele>
        <time>2021-08-18T08:37:31Z</time>
      </trkpt>
      <trkpt lat="46.69329" lon="6.17775">
        <ele>976.9</ele>
        <time>2021-08-18T08:37:32Z</time>
      </trkpt>
      <trkpt lat="46.69328" lon="6.1777">
        <ele>977.1</ele>
        <time>2021-08-18T08:37:33Z</time>
      </trkpt>
      <trkpt lat="46.69326" lon="6.17765">
        <ele>977.2</ele>
        <time>2021-08-18T08:37:34Z</time>
      </trkpt>
      <trkpt lat="46.69322" lon="6.17756">
        <ele>977.6</ele>
        <time>2021-08-18T08:37:36Z</time>
      </trkpt>
      <trkpt lat="46.6932" lon="6.17751">
        <ele>977.8</ele>
        <time>2021-08-18T08:37:37Z</time>
      </trkpt>
      <trkpt lat="46.69319" lon="6.17746">
        <ele>978</ele>
        <time>2021-08-18T08:37:38Z</time>
      </trkpt>
      <trkpt lat="46.69318" lon="6.17736">
        <ele>978.3</ele>
        <time>2021-08-18T08:37:40Z</time>
      </trkpt>
      <trkpt lat="46.69317" lon="6.17726">
        <ele>978.7</ele>
        <time>2021-08-18T08:37:42Z</time>
      </trkpt>
      <trkpt lat="46.69318" lon="6.17723">
        <ele>978.8</ele>
        <time>2021-08-18T08:37:44Z</time>
      </trkpt>
      <trkpt lat="46.6932" lon="6.1772">
        <ele>978.9</ele>
        <time>2021-08-18T08:37:46Z</time>
      </trkpt>
      <trkpt lat="46.69322" lon="6.17719">
        <ele>978.9</ele>
        <time>2021-08-18T08:37:47Z</time>
      </trkpt>
      <trkpt lat="46.69326" lon="6.17717">
        <ele>979</ele>
        <time>2021-08-18T08:37:49Z</time>
      </trkpt>
      <trkpt lat="46.69328" lon="6.17716">
        <ele>979</ele>
        <time>2021-08-18T08:37:50Z</time>
      </trkpt>
      <trkpt lat="46.69329" lon="6.17715">
        <ele>979.1</ele>
        <time>2021-08-18T08:37:51Z</time>
      </trkpt>
      <trkpt lat="46.6933" lon="6.17715">
        <ele>979.1</ele>
        <time>2021-08-18T08:37:52Z</time>
      </trkpt>
      <trkpt lat="46.69383" lon="6.17721">
        <ele>980.4</ele>
        <time>2021-08-18T08:38:16Z</time>
      </trkpt>
      <trkpt lat="46.69386" lon="6.17723">
        <ele>980.6</ele>
        <time>2021-08-18T08:38:17Z</time>
      </trkpt>
      <trkpt lat="46.69392" lon="6.17726">
        <ele>981</ele>
        <time>2021-08-18T08:38:19Z</time>
      </trkpt>
      <trkpt lat="46.69397" lon="6.17729">
        <ele>981.3</ele>
        <time>2021-08-18T08:38:21Z</time>
      </trkpt>
      <trkpt lat="46.69399" lon="6.17729">
        <ele>981.4</ele>
        <time>2021-08-18T08:38:22Z</time>
      </trkpt>
      <trkpt lat="46.69403" lon="6.17728">
        <ele>981.6</ele>
        <time>2021-08-18T08:38:24Z</time>
      </trkpt>
      <trkpt lat="46.69406" lon="6.17727">
        <ele>981.8</ele>
        <time>2021-08-18T08:38:25Z</time>
      </trkpt>
      <trkpt lat="46.69409" lon="6.17727">
        <ele>981.9</ele>
        <time>2021-08-18T08:38:26Z</time>
      </trkpt>
      <trkpt lat="46.69413" lon="6.17727">
        <ele>982.1</ele>
        <time>2021-08-18T08:38:28Z</time>
      </trkpt>
      <trkpt lat="46.69417" lon="6.17726">
        <ele>982.3</ele>
        <time>2021-08-18T08:38:29Z</time>
      </trkpt>
      <trkpt lat="46.6942" lon="6.17725">
        <ele>982.5</ele>
        <time>2021-08-18T08:38:30Z</time>
      </trkpt>
      <trkpt lat="46.69424" lon="6.17724">
        <ele>982.6</ele>
        <time>2021-08-18T08:38:31Z</time>
      </trkpt>
      <trkpt lat="46.69429" lon="6.17722">
        <ele>982.7</ele>
        <time>2021-08-18T08:38:32Z</time>
      </trkpt>
      <trkpt lat="46.69438" lon="6.17719">
        <ele>982.6</ele>
        <time>2021-08-18T08:38:34Z</time>
      </trkpt>
      <trkpt lat="46.69443" lon="6.17716">
        <ele>982.5</ele>
        <time>2021-08-18T08:38:35Z</time>
      </trkpt>
      <trkpt lat="46.6945" lon="6.17705">
        <ele>982.2</ele>
        <time>2021-08-18T08:38:37Z</time>
      </trkpt>
      <trkpt lat="46.69456" lon="6.17692">
        <ele>982</ele>
        <time>2021-08-18T08:38:39Z</time>
      </trkpt>
      <trkpt lat="46.69461" lon="6.17678">
        <ele>981.8</ele>
        <time>2021-08-18T08:38:41Z</time>
      </trkpt>
      <trkpt lat="46.69466" lon="6.17663">
        <ele>981.5</ele>
        <time>2021-08-18T08:38:43Z</time>
      </trkpt>
      <trkpt lat="46.69469" lon="6.17649">
        <ele>981.2</ele>
        <time>2021-08-18T08:38:45Z</time>
      </trkpt>
      <trkpt lat="46.69471" lon="6.17642">
        <ele>981.1</ele>
        <time>2021-08-18T08:38:46Z</time>
      </trkpt>
      <trkpt lat="46.69471" lon="6.17636">
        <ele>980.9</ele>
        <time>2021-08-18T08:38:47Z</time>
      </trkpt>
      <trkpt lat="46.69472" lon="6.1763">
        <ele>980.7</ele>
        <time>2021-08-18T08:38:48Z</time>
      </trkpt>
      <trkpt lat="46.69472" lon="6.17624">
        <ele>980.6</ele>
        <time>2021-08-18T08:38:49Z</time>
      </trkpt>
      <trkpt lat="46.6947" lon="6.17612">
        <ele>980.2</ele>
        <time>2021-08-18T08:38:51Z</time>
      </trkpt>
      <trkpt lat="46.6947" lon="6.17606">
        <ele>980</ele>
        <time>2021-08-18T08:38:52Z</time>
      </trkpt>
      <trkpt lat="46.69469" lon="6.17594">
        <ele>979.6</ele>
        <time>2021-08-18T08:38:54Z</time>
      </trkpt>
      <trkpt lat="46.69467" lon="6.17587">
        <ele>979.3</ele>
        <time>2021-08-18T08:38:55Z</time>
      </trkpt>
      <trkpt lat="46.69462" lon="6.17573">
        <ele>979</ele>
        <time>2021-08-18T08:38:57Z</time>
      </trkpt>
      <trkpt lat="46.69456" lon="6.17561">
        <ele>978.8</ele>
        <time>2021-08-18T08:38:59Z</time>
      </trkpt>
      <trkpt lat="46.69452" lon="6.17547">
        <ele>978.6</ele>
        <time>2021-08-18T08:39:01Z</time>
      </trkpt>
      <trkpt lat="46.69451" lon="6.17539">
        <ele>978.5</ele>
        <time>2021-08-18T08:39:02Z</time>
      </trkpt>
      <trkpt lat="46.6944" lon="6.17525">
        <ele>978.3</ele>
        <time>2021-08-18T08:39:04Z</time>
      </trkpt>
      <trkpt lat="46.69434" lon="6.17518">
        <ele>978.3</ele>
        <time>2021-08-18T08:39:05Z</time>
      </trkpt>
      <trkpt lat="46.6943" lon="6.17512">
        <ele>978.4</ele>
        <time>2021-08-18T08:39:06Z</time>
      </trkpt>
      <trkpt lat="46.69428" lon="6.17504">
        <ele>978.4</ele>
        <time>2021-08-18T08:39:07Z</time>
      </trkpt>
      <trkpt lat="46.69426" lon="6.17492">
        <ele>978.5</ele>
        <time>2021-08-18T08:39:09Z</time>
      </trkpt>
      <trkpt lat="46.69424" lon="6.17486">
        <ele>978.5</ele>
        <time>2021-08-18T08:39:10Z</time>
      </trkpt>
      <trkpt lat="46.69422" lon="6.1748">
        <ele>978.6</ele>
        <time>2021-08-18T08:39:11Z</time>
      </trkpt>
      <trkpt lat="46.69419" lon="6.17466">
        <ele>978.8</ele>
        <time>2021-08-18T08:39:13Z</time>
      </trkpt>
      <trkpt lat="46.69415" lon="6.17454">
        <ele>979.1</ele>
        <time>2021-08-18T08:39:15Z</time>
      </trkpt>
      <trkpt lat="46.69412" lon="6.17448">
        <ele>979.3</ele>
        <time>2021-08-18T08:39:16Z</time>
      </trkpt>
      <trkpt lat="46.6941" lon="6.17443">
        <ele>979.5</ele>
        <time>2021-08-18T08:39:17Z</time>
      </trkpt>
      <trkpt lat="46.69408" lon="6.17438">
        <ele>979.7</ele>
        <time>2021-08-18T08:39:18Z</time>
      </trkpt>
      <trkpt lat="46.69407" lon="6.17433">
        <ele>980</ele>
        <time>2021-08-18T08:39:19Z</time>
      </trkpt>
      <trkpt lat="46.69405" lon="6.17426">
        <ele>980.3</ele>
        <time>2021-08-18T08:39:21Z</time>
      </trkpt>
      <trkpt lat="46.69403" lon="6.17423">
        <ele>980.5</ele>
        <time>2021-08-18T08:39:22Z</time>
      </trkpt>
      <trkpt lat="46.69398" lon="6.17424">
        <ele>980.9</ele>
        <time>2021-08-18T08:39:24Z</time>
      </trkpt>
      <trkpt lat="46.69397" lon="6.17419">
        <ele>981.5</ele>
        <time>2021-08-18T08:39:25Z</time>
      </trkpt>
      <trkpt lat="46.69393" lon="6.17415">
        <ele>981.9</ele>
        <time>2021-08-18T08:39:27Z</time>
      </trkpt>
      <trkpt lat="46.6939" lon="6.17413">
        <ele>982.2</ele>
        <time>2021-08-18T08:39:28Z</time>
      </trkpt>
      <trkpt lat="46.69387" lon="6.17411">
        <ele>982.6</ele>
        <time>2021-08-18T08:39:29Z</time>
      </trkpt>
      <trkpt lat="46.69385" lon="6.1741">
        <ele>982.8</ele>
        <time>2021-08-18T08:39:30Z</time>
      </trkpt>
      <trkpt lat="46.69386" lon="6.17409">
        <ele>982.9</ele>
        <time>2021-08-18T08:39:32Z</time>
      </trkpt>
      <trkpt lat="46.69386" lon="6.17408">
        <ele>982.9</ele>
        <time>2021-08-18T08:39:33Z</time>
      </trkpt>
      <trkpt lat="46.69385" lon="6.17407">
        <ele>983.1</ele>
        <time>2021-08-18T08:39:34Z</time>
      </trkpt>
      <trkpt lat="46.69386" lon="6.17405">
        <ele>983.3</ele>
        <time>2021-08-18T08:39:35Z</time>
      </trkpt>
      <trkpt lat="46.69387" lon="6.17403">
        <ele>983.4</ele>
        <time>2021-08-18T08:39:36Z</time>
      </trkpt>
      <trkpt lat="46.69387" lon="6.17402">
        <ele>983.5</ele>
        <time>2021-08-18T08:39:37Z</time>
      </trkpt>
      <trkpt lat="46.69388" lon="6.17401">
        <ele>983.6</ele>
        <time>2021-08-18T08:39:38Z</time>
      </trkpt>
      <trkpt lat="46.69388" lon="6.174">
        <ele>983.6</ele>
        <time>2021-08-18T08:39:39Z</time>
      </trkpt>
      <trkpt lat="46.69389" lon="6.17398">
        <ele>983.8</ele>
        <time>2021-08-18T08:39:41Z</time>
      </trkpt>
      <trkpt lat="46.69389" lon="6.17396">
        <ele>983.9</ele>
        <time>2021-08-18T08:39:42Z</time>
      </trkpt>
      <trkpt lat="46.69389" lon="6.17393">
        <ele>984.1</ele>
        <time>2021-08-18T08:39:43Z</time>
      </trkpt>
      <trkpt lat="46.69389" lon="6.17388">
        <ele>984.5</ele>
        <time>2021-08-18T08:39:48Z</time>
      </trkpt>
      <trkpt lat="46.6939" lon="6.17387">
        <ele>984.6</ele>
        <time>2021-08-18T08:39:50Z</time>
      </trkpt>
      <trkpt lat="46.6939" lon="6.17386">
        <ele>984.6</ele>
        <time>2021-08-18T08:39:51Z</time>
      </trkpt>
      <trkpt lat="46.69389" lon="6.17385">
        <ele>984.7</ele>
        <time>2021-08-18T08:39:52Z</time>
      </trkpt>
      <trkpt lat="46.69389" lon="6.17385">
        <ele>984.7</ele>
        <time>2021-08-18T08:39:53Z</time>
      </trkpt>
      <trkpt lat="46.69389" lon="6.17383">
        <ele>984.8</ele>
        <time>2021-08-18T08:39:55Z</time>
      </trkpt>
      <trkpt lat="46.69389" lon="6.17383">
        <ele>984.8</ele>
        <time>2021-08-18T08:39:56Z</time>
      </trkpt>
      <trkpt lat="46.69389" lon="6.17382">
        <ele>984.9</ele>
        <time>2021-08-18T08:39:57Z</time>
      </trkpt>
      <trkpt lat="46.69389" lon="6.17382">
        <ele>984.9</ele>
        <time>2021-08-18T08:39:58Z</time>
      </trkpt>
      <trkpt lat="46.69389" lon="6.17381">
        <ele>985</ele>
        <time>2021-08-18T08:39:59Z</time>
      </trkpt>
      <trkpt lat="46.69388" lon="6.17381">
        <ele>985</ele>
        <time>2021-08-18T08:40:00Z</time>
      </trkpt>
      <trkpt lat="46.69388" lon="6.17379">
        <ele>985.1</ele>
        <time>2021-08-18T08:40:02Z</time>
      </trkpt>
      <trkpt lat="46.69386" lon="6.1738">
        <ele>985.3</ele>
        <time>2021-08-18T08:40:04Z</time>
      </trkpt>
      <trkpt lat="46.69386" lon="6.17379">
        <ele>985.3</ele>
        <time>2021-08-18T08:40:05Z</time>
      </trkpt>
      <trkpt lat="46.69385" lon="6.17379">
        <ele>985.4</ele>
        <time>2021-08-18T08:40:06Z</time>
      </trkpt>
      <trkpt lat="46.69385" lon="6.17379">
        <ele>985.4</ele>
        <time>2021-08-18T08:40:07Z</time>
      </trkpt>
      <trkpt lat="46.69385" lon="6.17379">
        <ele>985.5</ele>
        <time>2021-08-18T08:40:08Z</time>
      </trkpt>
      <trkpt lat="46.69386" lon="6.1738">
        <ele>985.5</ele>
        <time>2021-08-18T08:40:09Z</time>
      </trkpt>
      <trkpt lat="46.69386" lon="6.1738">
        <ele>985.5</ele>
        <time>2021-08-18T08:40:10Z</time>
      </trkpt>
      <trkpt lat="46.69386" lon="6.1738">
        <ele>985.5</ele>
        <time>2021-08-18T08:40:11Z</time>
      </trkpt>
      <trkpt lat="46.69386" lon="6.17379">
        <ele>985.5</ele>
        <time>2021-08-18T08:40:12Z</time>
      </trkpt>
      <trkpt lat="46.69385" lon="6.17379">
        <ele>985.6</ele>
        <time>2021-08-18T08:40:13Z</time>
      </trkpt>
      <trkpt lat="46.69385" lon="6.17378">
        <ele>985.6</ele>
        <time>2021-08-18T08:40:14Z</time>
      </trkpt>
      <trkpt lat="46.69384" lon="6.17378">
        <ele>985.7</ele>
        <time>2021-08-18T08:40:16Z</time>
      </trkpt>
      <trkpt lat="46.69373" lon="6.17375">
        <ele>986.9</ele>
        <time>2021-08-18T08:40:26Z</time>
      </trkpt>
      <trkpt lat="46.69369" lon="6.17373">
        <ele>987.3</ele>
        <time>2021-08-18T08:40:28Z</time>
      </trkpt>
      <trkpt lat="46.69368" lon="6.17373">
        <ele>987.4</ele>
        <time>2021-08-18T08:40:29Z</time>
      </trkpt>
      <trkpt lat="46.69366" lon="6.17372">
        <ele>987.6</ele>
        <time>2021-08-18T08:40:30Z</time>
      </trkpt>
      <trkpt lat="46.69351" lon="6.17367">
        <ele>989.3</ele>
        <time>2021-08-18T08:40:32Z</time>
      </trkpt>
      <trkpt lat="46.69346" lon="6.17366">
        <ele>989.9</ele>
        <time>2021-08-18T08:40:33Z</time>
      </trkpt>
      <trkpt lat="46.69344" lon="6.17365">
        <ele>990.1</ele>
        <time>2021-08-18T08:40:34Z</time>
      </trkpt>
      <trkpt lat="46.69342" lon="6.17364">
        <ele>990.3</ele>
        <time>2021-08-18T08:40:35Z</time>
      </trkpt>
      <trkpt lat="46.69341" lon="6.17363">
        <ele>990.5</ele>
        <time>2021-08-18T08:40:36Z</time>
      </trkpt>
      <trkpt lat="46.69339" lon="6.17362">
        <ele>990.8</ele>
        <time>2021-08-18T08:40:38Z</time>
      </trkpt>
      <trkpt lat="46.69338" lon="6.17362">
        <ele>990.9</ele>
        <time>2021-08-18T08:40:39Z</time>
      </trkpt>
      <trkpt lat="46.69337" lon="6.17361">
        <ele>991</ele>
        <time>2021-08-18T08:40:41Z</time>
      </trkpt>
      <trkpt lat="46.69336" lon="6.1736">
        <ele>991.1</ele>
        <time>2021-08-18T08:40:42Z</time>
      </trkpt>
      <trkpt lat="46.69334" lon="6.17358">
        <ele>991.4</ele>
        <time>2021-08-18T08:40:43Z</time>
      </trkpt>
      <trkpt lat="46.69334" lon="6.17357">
        <ele>991.5</ele>
        <time>2021-08-18T08:40:44Z</time>
      </trkpt>
      <trkpt lat="46.69333" lon="6.17356">
        <ele>991.6</ele>
        <time>2021-08-18T08:40:45Z</time>
      </trkpt>
      <trkpt lat="46.69332" lon="6.17355">
        <ele>991.7</ele>
        <time>2021-08-18T08:40:46Z</time>
      </trkpt>
      <trkpt lat="46.6933" lon="6.17354">
        <ele>992</ele>
        <time>2021-08-18T08:40:48Z</time>
      </trkpt>
      <trkpt lat="46.69328" lon="6.17352">
        <ele>992.3</ele>
        <time>2021-08-18T08:40:49Z</time>
      </trkpt>
      <trkpt lat="46.69325" lon="6.17351">
        <ele>992.7</ele>
        <time>2021-08-18T08:40:51Z</time>
      </trkpt>
      <trkpt lat="46.69323" lon="6.1735">
        <ele>992.9</ele>
        <time>2021-08-18T08:40:52Z</time>
      </trkpt>
      <trkpt lat="46.69322" lon="6.17349">
        <ele>993</ele>
        <time>2021-08-18T08:40:53Z</time>
      </trkpt>
      <trkpt lat="46.69319" lon="6.17348">
        <ele>993.4</ele>
        <time>2021-08-18T08:40:55Z</time>
      </trkpt>
      <trkpt lat="46.69316" lon="6.17346">
        <ele>993.8</ele>
        <time>2021-08-18T08:40:57Z</time>
      </trkpt>
      <trkpt lat="46.69314" lon="6.17344">
        <ele>994</ele>
        <time>2021-08-18T08:40:59Z</time>
      </trkpt>
      <trkpt lat="46.69313" lon="6.17341">
        <ele>994.3</ele>
        <time>2021-08-18T08:41:01Z</time>
      </trkpt>
      <trkpt lat="46.69311" lon="6.17337">
        <ele>994.7</ele>
        <time>2021-08-18T08:41:03Z</time>
      </trkpt>
      <trkpt lat="46.6931" lon="6.17336">
        <ele>994.8</ele>
        <time>2021-08-18T08:41:04Z</time>
      </trkpt>
      <trkpt lat="46.69308" lon="6.17332">
        <ele>995.2</ele>
        <time>2021-08-18T08:41:06Z</time>
      </trkpt>
      <trkpt lat="46.69307" lon="6.17331">
        <ele>995.4</ele>
        <time>2021-08-18T08:41:07Z</time>
      </trkpt>
      <trkpt lat="46.69305" lon="6.17328">
        <ele>995.7</ele>
        <time>2021-08-18T08:41:09Z</time>
      </trkpt>
      <trkpt lat="46.69305" lon="6.17326">
        <ele>995.8</ele>
        <time>2021-08-18T08:41:10Z</time>
      </trkpt>
      <trkpt lat="46.69305" lon="6.17324">
        <ele>996</ele>
        <time>2021-08-18T08:41:12Z</time>
      </trkpt>
      <trkpt lat="46.69305" lon="6.17323">
        <ele>996.1</ele>
        <time>2021-08-18T08:41:13Z</time>
      </trkpt>
      <trkpt lat="46.69305" lon="6.1732">
        <ele>996.3</ele>
        <time>2021-08-18T08:41:15Z</time>
      </trkpt>
      <trkpt lat="46.69305" lon="6.17319">
        <ele>996.4</ele>
        <time>2021-08-18T08:41:16Z</time>
      </trkpt>
      <trkpt lat="46.69305" lon="6.17318">
        <ele>996.5</ele>
        <time>2021-08-18T08:41:17Z</time>
      </trkpt>
      <trkpt lat="46.69305" lon="6.17317">
        <ele>996.6</ele>
        <time>2021-08-18T08:41:18Z</time>
      </trkpt>
      <trkpt lat="46.69306" lon="6.17316">
        <ele>996.7</ele>
        <time>2021-08-18T08:41:19Z</time>
      </trkpt>
      <trkpt lat="46.69307" lon="6.17312">
        <ele>997</ele>
        <time>2021-08-18T08:41:21Z</time>
      </trkpt>
      <trkpt lat="46.69308" lon="6.1731">
        <ele>997.2</ele>
        <time>2021-08-18T08:41:22Z</time>
      </trkpt>
      <trkpt lat="46.69308" lon="6.1731">
        <ele>997.3</ele>
        <time>2021-08-18T08:41:23Z</time>
      </trkpt>
      <trkpt lat="46.69315" lon="6.17306">
        <ele>998.1</ele>
        <time>2021-08-18T08:41:25Z</time>
      </trkpt>
      <trkpt lat="46.69328" lon="6.17298">
        <ele>999.6</ele>
        <time>2021-08-18T08:41:26Z</time>
      </trkpt>
      <trkpt lat="46.69329" lon="6.17297">
        <ele>999.8</ele>
        <time>2021-08-18T08:41:27Z</time>
      </trkpt>
      <trkpt lat="46.69328" lon="6.17297">
        <ele>1000</ele>
        <time>2021-08-18T08:41:28Z</time>
      </trkpt>
      <trkpt lat="46.69321" lon="6.17297">
        <ele>1000.7</ele>
        <time>2021-08-18T08:41:30Z</time>
      </trkpt>
      <trkpt lat="46.69318" lon="6.17296">
        <ele>1000.9</ele>
        <time>2021-08-18T08:41:31Z</time>
      </trkpt>
      <trkpt lat="46.69316" lon="6.17295">
        <ele>1001.1</ele>
        <time>2021-08-18T08:41:32Z</time>
      </trkpt>
      <trkpt lat="46.69314" lon="6.17293">
        <ele>1001.3</ele>
        <time>2021-08-18T08:41:34Z</time>
      </trkpt>
      <trkpt lat="46.69311" lon="6.1729">
        <ele>1001.6</ele>
        <time>2021-08-18T08:41:35Z</time>
      </trkpt>
      <trkpt lat="46.6931" lon="6.17288">
        <ele>1001.7</ele>
        <time>2021-08-18T08:41:36Z</time>
      </trkpt>
      <trkpt lat="46.69307" lon="6.17282">
        <ele>1002.1</ele>
        <time>2021-08-18T08:41:38Z</time>
      </trkpt>
      <trkpt lat="46.69306" lon="6.1728">
        <ele>1002.2</ele>
        <time>2021-08-18T08:41:39Z</time>
      </trkpt>
      <trkpt lat="46.69305" lon="6.17277">
        <ele>1002.4</ele>
        <time>2021-08-18T08:41:40Z</time>
      </trkpt>
      <trkpt lat="46.69302" lon="6.17275">
        <ele>1002.6</ele>
        <time>2021-08-18T08:41:42Z</time>
      </trkpt>
      <trkpt lat="46.69298" lon="6.17273">
        <ele>1002.8</ele>
        <time>2021-08-18T08:41:43Z</time>
      </trkpt>
      <trkpt lat="46.69295" lon="6.17271">
        <ele>1003.1</ele>
        <time>2021-08-18T08:41:44Z</time>
      </trkpt>
      <trkpt lat="46.69289" lon="6.17267">
        <ele>1003.5</ele>
        <time>2021-08-18T08:41:46Z</time>
      </trkpt>
      <trkpt lat="46.69286" lon="6.17265">
        <ele>1003.7</ele>
        <time>2021-08-18T08:41:47Z</time>
      </trkpt>
      <trkpt lat="46.69282" lon="6.17263">
        <ele>1004</ele>
        <time>2021-08-18T08:41:48Z</time>
      </trkpt>
      <trkpt lat="46.69281" lon="6.17262">
        <ele>1004.1</ele>
        <time>2021-08-18T08:41:49Z</time>
      </trkpt>
      <trkpt lat="46.69278" lon="6.17261">
        <ele>1004.3</ele>
        <time>2021-08-18T08:41:50Z</time>
      </trkpt>
      <trkpt lat="46.69277" lon="6.1726">
        <ele>1004.4</ele>
        <time>2021-08-18T08:41:51Z</time>
      </trkpt>
      <trkpt lat="46.69274" lon="6.1726">
        <ele>1004.6</ele>
        <time>2021-08-18T08:41:52Z</time>
      </trkpt>
      <trkpt lat="46.69273" lon="6.17259">
        <ele>1004.6</ele>
        <time>2021-08-18T08:41:53Z</time>
      </trkpt>
      <trkpt lat="46.6927" lon="6.17258">
        <ele>1004.8</ele>
        <time>2021-08-18T08:41:54Z</time>
      </trkpt>
      <trkpt lat="46.69269" lon="6.17257">
        <ele>1004.9</ele>
        <time>2021-08-18T08:41:56Z</time>
      </trkpt>
      <trkpt lat="46.69268" lon="6.17256">
        <ele>1005</ele>
        <time>2021-08-18T08:41:57Z</time>
      </trkpt>
      <trkpt lat="46.69267" lon="6.17255">
        <ele>1005.1</ele>
        <time>2021-08-18T08:41:58Z</time>
      </trkpt>
      <trkpt lat="46.69266" lon="6.17254">
        <ele>1005.1</ele>
        <time>2021-08-18T08:41:59Z</time>
      </trkpt>
      <trkpt lat="46.69265" lon="6.1725">
        <ele>1005.3</ele>
        <time>2021-08-18T08:42:01Z</time>
      </trkpt>
      <trkpt lat="46.69265" lon="6.17248">
        <ele>1005.4</ele>
        <time>2021-08-18T08:42:02Z</time>
      </trkpt>
      <trkpt lat="46.69265" lon="6.17243">
        <ele>1005.6</ele>
        <time>2021-08-18T08:42:03Z</time>
      </trkpt>
      <trkpt lat="46.69265" lon="6.17242">
        <ele>1005.7</ele>
        <time>2021-08-18T08:42:04Z</time>
      </trkpt>
      <trkpt lat="46.69265" lon="6.17237">
        <ele>1005.9</ele>
        <time>2021-08-18T08:42:06Z</time>
      </trkpt>
      <trkpt lat="46.69264" lon="6.17235">
        <ele>1006</ele>
        <time>2021-08-18T08:42:07Z</time>
      </trkpt>
      <trkpt lat="46.69264" lon="6.17234">
        <ele>1006</ele>
        <time>2021-08-18T08:42:08Z</time>
      </trkpt>
      <trkpt lat="46.69263" lon="6.17233">
        <ele>1006.1</ele>
        <time>2021-08-18T08:42:09Z</time>
      </trkpt>
      <trkpt lat="46.69262" lon="6.17233">
        <ele>1006.2</ele>
        <time>2021-08-18T08:42:10Z</time>
      </trkpt>
      <trkpt lat="46.6926" lon="6.17234">
        <ele>1006.3</ele>
        <time>2021-08-18T08:42:11Z</time>
      </trkpt>
      <trkpt lat="46.69259" lon="6.17235">
        <ele>1006.4</ele>
        <time>2021-08-18T08:42:12Z</time>
      </trkpt>
      <trkpt lat="46.69259" lon="6.17235">
        <ele>1006.4</ele>
        <time>2021-08-18T08:42:13Z</time>
      </trkpt>
      <trkpt lat="46.69257" lon="6.17235">
        <ele>1006.5</ele>
        <time>2021-08-18T08:42:15Z</time>
      </trkpt>
      <trkpt lat="46.69257" lon="6.17235">
        <ele>1006.6</ele>
        <time>2021-08-18T08:42:16Z</time>
      </trkpt>
      <trkpt lat="46.69255" lon="6.17236">
        <ele>1006.7</ele>
        <time>2021-08-18T08:42:17Z</time>
      </trkpt>
      <trkpt lat="46.69255" lon="6.17236">
        <ele>1006.7</ele>
        <time>2021-08-18T08:42:19Z</time>
      </trkpt>
      <trkpt lat="46.69255" lon="6.17234">
        <ele>1006.7</ele>
        <time>2021-08-18T08:42:20Z</time>
      </trkpt>
      <trkpt lat="46.69254" lon="6.17232">
        <ele>1006.9</ele>
        <time>2021-08-18T08:42:21Z</time>
      </trkpt>
      <trkpt lat="46.69252" lon="6.17228">
        <ele>1007.1</ele>
        <time>2021-08-18T08:42:23Z</time>
      </trkpt>
      <trkpt lat="46.69251" lon="6.17223">
        <ele>1007.3</ele>
        <time>2021-08-18T08:42:24Z</time>
      </trkpt>
      <trkpt lat="46.6925" lon="6.17222">
        <ele>1007.4</ele>
        <time>2021-08-18T08:42:25Z</time>
      </trkpt>
      <trkpt lat="46.69249" lon="6.17218">
        <ele>1007.4</ele>
        <time>2021-08-18T08:42:26Z</time>
      </trkpt>
      <trkpt lat="46.69248" lon="6.17213">
        <ele>1007.4</ele>
        <time>2021-08-18T08:42:28Z</time>
      </trkpt>
      <trkpt lat="46.69246" lon="6.17207">
        <ele>1007.3</ele>
        <time>2021-08-18T08:42:29Z</time>
      </trkpt>
      <trkpt lat="46.69244" lon="6.172">
        <ele>1007.2</ele>
        <time>2021-08-18T08:42:30Z</time>
      </trkpt>
      <trkpt lat="46.69243" lon="6.17193">
        <ele>1007</ele>
        <time>2021-08-18T08:42:31Z</time>
      </trkpt>
      <trkpt lat="46.69243" lon="6.17186">
        <ele>1006.8</ele>
        <time>2021-08-18T08:42:32Z</time>
      </trkpt>
      <trkpt lat="46.69243" lon="6.17181">
        <ele>1006.6</ele>
        <time>2021-08-18T08:42:33Z</time>
      </trkpt>
      <trkpt lat="46.69244" lon="6.17179">
        <ele>1006.5</ele>
        <time>2021-08-18T08:42:34Z</time>
      </trkpt>
      <trkpt lat="46.69239" lon="6.17169">
        <ele>1006.1</ele>
        <time>2021-08-18T08:42:36Z</time>
      </trkpt>
      <trkpt lat="46.69234" lon="6.17161">
        <ele>1005.7</ele>
        <time>2021-08-18T08:42:37Z</time>
      </trkpt>
      <trkpt lat="46.69232" lon="6.17156">
        <ele>1005.5</ele>
        <time>2021-08-18T08:42:39Z</time>
      </trkpt>
      <trkpt lat="46.69231" lon="6.17152">
        <ele>1005.4</ele>
        <time>2021-08-18T08:42:40Z</time>
      </trkpt>
      <trkpt lat="46.69228" lon="6.17143">
        <ele>1005.2</ele>
        <time>2021-08-18T08:42:42Z</time>
      </trkpt>
      <trkpt lat="46.69225" lon="6.17137">
        <ele>1005.2</ele>
        <time>2021-08-18T08:42:43Z</time>
      </trkpt>
      <trkpt lat="46.69223" lon="6.17131">
        <ele>1005.1</ele>
        <time>2021-08-18T08:42:44Z</time>
      </trkpt>
      <trkpt lat="46.69222" lon="6.17124">
        <ele>1005.1</ele>
        <time>2021-08-18T08:42:45Z</time>
      </trkpt>
      <trkpt lat="46.69217" lon="6.17115">
        <ele>1005.1</ele>
        <time>2021-08-18T08:42:47Z</time>
      </trkpt>
      <trkpt lat="46.6921" lon="6.17111">
        <ele>1005.1</ele>
        <time>2021-08-18T08:42:48Z</time>
      </trkpt>
      <trkpt lat="46.69205" lon="6.17107">
        <ele>1005</ele>
        <time>2021-08-18T08:42:49Z</time>
      </trkpt>
      <trkpt lat="46.69182" lon="6.17086">
        <ele>1004.2</ele>
        <time>2021-08-18T08:42:51Z</time>
      </trkpt>
      <trkpt lat="46.69177" lon="6.17077">
        <ele>1003.8</ele>
        <time>2021-08-18T08:42:52Z</time>
      </trkpt>
      <trkpt lat="46.69171" lon="6.17068">
        <ele>1003.4</ele>
        <time>2021-08-18T08:42:53Z</time>
      </trkpt>
      <trkpt lat="46.69163" lon="6.17052">
        <ele>1002.8</ele>
        <time>2021-08-18T08:42:55Z</time>
      </trkpt>
      <trkpt lat="46.69158" lon="6.17039">
        <ele>1002.4</ele>
        <time>2021-08-18T08:42:57Z</time>
      </trkpt>
      <trkpt lat="46.69149" lon="6.17029">
        <ele>1002</ele>
        <time>2021-08-18T08:42:59Z</time>
      </trkpt>
      <trkpt lat="46.69145" lon="6.17023">
        <ele>1001.8</ele>
        <time>2021-08-18T08:43:00Z</time>
      </trkpt>
      <trkpt lat="46.69142" lon="6.17016">
        <ele>1001.6</ele>
        <time>2021-08-18T08:43:01Z</time>
      </trkpt>
      <trkpt lat="46.69138" lon="6.1701">
        <ele>1001.4</ele>
        <time>2021-08-18T08:43:02Z</time>
      </trkpt>
      <trkpt lat="46.69128" lon="6.17001">
        <ele>1001.2</ele>
        <time>2021-08-18T08:43:04Z</time>
      </trkpt>
      <trkpt lat="46.69123" lon="6.16997">
        <ele>1001.1</ele>
        <time>2021-08-18T08:43:05Z</time>
      </trkpt>
      <trkpt lat="46.69118" lon="6.16994">
        <ele>1001.1</ele>
        <time>2021-08-18T08:43:06Z</time>
      </trkpt>
      <trkpt lat="46.69113" lon="6.16993">
        <ele>1001.1</ele>
        <time>2021-08-18T08:43:07Z</time>
      </trkpt>
      <trkpt lat="46.69108" lon="6.16989">
        <ele>1001.2</ele>
        <time>2021-08-18T08:43:09Z</time>
      </trkpt>
      <trkpt lat="46.69108" lon="6.1699">
        <ele>1001.2</ele>
        <time>2021-08-18T08:43:10Z</time>
      </trkpt>
      <trkpt lat="46.69104" lon="6.16985">
        <ele>1001.3</ele>
        <time>2021-08-18T08:43:12Z</time>
      </trkpt>
      <trkpt lat="46.69099" lon="6.16981">
        <ele>1001.4</ele>
        <time>2021-08-18T08:43:13Z</time>
      </trkpt>
      <trkpt lat="46.69095" lon="6.16978">
        <ele>1001.6</ele>
        <time>2021-08-18T08:43:14Z</time>
      </trkpt>
      <trkpt lat="46.69092" lon="6.16975">
        <ele>1001.8</ele>
        <time>2021-08-18T08:43:15Z</time>
      </trkpt>
      <trkpt lat="46.69089" lon="6.16971">
        <ele>1002.1</ele>
        <time>2021-08-18T08:43:16Z</time>
      </trkpt>
      <trkpt lat="46.69087" lon="6.16966">
        <ele>1002.3</ele>
        <time>2021-08-18T08:43:18Z</time>
      </trkpt>
      <trkpt lat="46.69085" lon="6.16962">
        <ele>1002.6</ele>
        <time>2021-08-18T08:43:19Z</time>
      </trkpt>
      <trkpt lat="46.69084" lon="6.16958">
        <ele>1002.8</ele>
        <time>2021-08-18T08:43:20Z</time>
      </trkpt>
      <trkpt lat="46.69083" lon="6.16955">
        <ele>1003</ele>
        <time>2021-08-18T08:43:22Z</time>
      </trkpt>
      <trkpt lat="46.69081" lon="6.16955">
        <ele>1003.1</ele>
        <time>2021-08-18T08:43:23Z</time>
      </trkpt>
      <trkpt lat="46.6908" lon="6.16954">
        <ele>1003.2</ele>
        <time>2021-08-18T08:43:24Z</time>
      </trkpt>
      <trkpt lat="46.6908" lon="6.16954">
        <ele>1003.2</ele>
        <time>2021-08-18T08:43:25Z</time>
      </trkpt>
      <trkpt lat="46.69079" lon="6.16954">
        <ele>1003.3</ele>
        <time>2021-08-18T08:43:26Z</time>
      </trkpt>
      <trkpt lat="46.69079" lon="6.16954">
        <ele>1003.4</ele>
        <time>2021-08-18T08:43:27Z</time>
      </trkpt>
      <trkpt lat="46.69076" lon="6.16953">
        <ele>1003.5</ele>
        <time>2021-08-18T08:43:29Z</time>
      </trkpt>
      <trkpt lat="46.69076" lon="6.16953">
        <ele>1003.6</ele>
        <time>2021-08-18T08:43:30Z</time>
      </trkpt>
      <trkpt lat="46.69075" lon="6.16953">
        <ele>1003.6</ele>
        <time>2021-08-18T08:43:31Z</time>
      </trkpt>
      <trkpt lat="46.69061" lon="6.16951">
        <ele>1004.8</ele>
        <time>2021-08-18T08:43:33Z</time>
      </trkpt>
      <trkpt lat="46.69048" lon="6.16941">
        <ele>1005.8</ele>
        <time>2021-08-18T08:43:39Z</time>
      </trkpt>
      <trkpt lat="46.69045" lon="6.16935">
        <ele>1006.1</ele>
        <time>2021-08-18T08:43:40Z</time>
      </trkpt>
      <trkpt lat="46.69042" lon="6.16932">
        <ele>1006.3</ele>
        <time>2021-08-18T08:43:41Z</time>
      </trkpt>
      <trkpt lat="46.69034" lon="6.16926">
        <ele>1006.8</ele>
        <time>2021-08-18T08:43:43Z</time>
      </trkpt>
      <trkpt lat="46.69029" lon="6.16925">
        <ele>1007</ele>
        <time>2021-08-18T08:43:44Z</time>
      </trkpt>
      <trkpt lat="46.69021" lon="6.16921">
        <ele>1007.6</ele>
        <time>2021-08-18T08:43:46Z</time>
      </trkpt>
      <trkpt lat="46.69018" lon="6.16918">
        <ele>1007.9</ele>
        <time>2021-08-18T08:43:47Z</time>
      </trkpt>
      <trkpt lat="46.69015" lon="6.16915">
        <ele>1008.1</ele>
        <time>2021-08-18T08:43:48Z</time>
      </trkpt>
      <trkpt lat="46.69014" lon="6.16915">
        <ele>1008.2</ele>
        <time>2021-08-18T08:43:49Z</time>
      </trkpt>
      <trkpt lat="46.69015" lon="6.16912">
        <ele>1008.4</ele>
        <time>2021-08-18T08:43:51Z</time>
      </trkpt>
      <trkpt lat="46.69014" lon="6.1691">
        <ele>1008.5</ele>
        <time>2021-08-18T08:43:53Z</time>
      </trkpt>
      <trkpt lat="46.69012" lon="6.16909">
        <ele>1008.7</ele>
        <time>2021-08-18T08:43:54Z</time>
      </trkpt>
      <trkpt lat="46.69011" lon="6.16907">
        <ele>1008.9</ele>
        <time>2021-08-18T08:43:55Z</time>
      </trkpt>
      <trkpt lat="46.69007" lon="6.16903">
        <ele>1009.3</ele>
        <time>2021-08-18T08:43:57Z</time>
      </trkpt>
      <trkpt lat="46.69005" lon="6.16901">
        <ele>1009.6</ele>
        <time>2021-08-18T08:43:58Z</time>
      </trkpt>
      <trkpt lat="46.69003" lon="6.169">
        <ele>1009.9</ele>
        <time>2021-08-18T08:43:59Z</time>
      </trkpt>
      <trkpt lat="46.69004" lon="6.16895">
        <ele>1010.2</ele>
        <time>2021-08-18T08:44:01Z</time>
      </trkpt>
      <trkpt lat="46.69004" lon="6.16893">
        <ele>1010.4</ele>
        <time>2021-08-18T08:44:02Z</time>
      </trkpt>
      <trkpt lat="46.69004" lon="6.16892">
        <ele>1010.5</ele>
        <time>2021-08-18T08:44:03Z</time>
      </trkpt>
      <trkpt lat="46.69004" lon="6.16891">
        <ele>1010.6</ele>
        <time>2021-08-18T08:44:04Z</time>
      </trkpt>
      <trkpt lat="46.69004" lon="6.16891">
        <ele>1010.6</ele>
        <time>2021-08-18T08:44:05Z</time>
      </trkpt>
      <trkpt lat="46.69004" lon="6.1689">
        <ele>1010.6</ele>
        <time>2021-08-18T08:44:07Z</time>
      </trkpt>
      <trkpt lat="46.69004" lon="6.1689">
        <ele>1010.6</ele>
        <time>2021-08-18T08:44:08Z</time>
      </trkpt>
      <trkpt lat="46.69004" lon="6.1689">
        <ele>1010.7</ele>
        <time>2021-08-18T08:44:09Z</time>
      </trkpt>
      <trkpt lat="46.68975" lon="6.16826">
        <ele>1016.2</ele>
        <time>2021-08-18T08:44:55Z</time>
      </trkpt>
      <trkpt lat="46.68975" lon="6.16822">
        <ele>1016.3</ele>
        <time>2021-08-18T08:44:56Z</time>
      </trkpt>
      <trkpt lat="46.68975" lon="6.16818">
        <ele>1016.4</ele>
        <time>2021-08-18T08:44:58Z</time>
      </trkpt>
      <trkpt lat="46.68975" lon="6.16813">
        <ele>1016.4</ele>
        <time>2021-08-18T08:44:59Z</time>
      </trkpt>
      <trkpt lat="46.68975" lon="6.16808">
        <ele>1016.4</ele>
        <time>2021-08-18T08:45:00Z</time>
      </trkpt>
      <trkpt lat="46.68974" lon="6.16802">
        <ele>1016.4</ele>
        <time>2021-08-18T08:45:01Z</time>
      </trkpt>
      <trkpt lat="46.68974" lon="6.16791">
        <ele>1016.1</ele>
        <time>2021-08-18T08:45:03Z</time>
      </trkpt>
      <trkpt lat="46.68973" lon="6.16781">
        <ele>1015.8</ele>
        <time>2021-08-18T08:45:04Z</time>
      </trkpt>
      <trkpt lat="46.68971" lon="6.16774">
        <ele>1015.6</ele>
        <time>2021-08-18T08:45:05Z</time>
      </trkpt>
      <trkpt lat="46.6897" lon="6.16768">
        <ele>1015.4</ele>
        <time>2021-08-18T08:45:06Z</time>
      </trkpt>
      <trkpt lat="46.68968" lon="6.16762">
        <ele>1015.3</ele>
        <time>2021-08-18T08:45:07Z</time>
      </trkpt>
      <trkpt lat="46.68964" lon="6.16751">
        <ele>1015.3</ele>
        <time>2021-08-18T08:45:09Z</time>
      </trkpt>
      <trkpt lat="46.68964" lon="6.16744">
        <ele>1015.3</ele>
        <time>2021-08-18T08:45:10Z</time>
      </trkpt>
      <trkpt lat="46.68965" lon="6.16738">
        <ele>1015.4</ele>
        <time>2021-08-18T08:45:12Z</time>
      </trkpt>
      <trkpt lat="46.68965" lon="6.16733">
        <ele>1015.5</ele>
        <time>2021-08-18T08:45:13Z</time>
      </trkpt>
      <trkpt lat="46.68964" lon="6.16729">
        <ele>1015.6</ele>
        <time>2021-08-18T08:45:14Z</time>
      </trkpt>
      <trkpt lat="46.68963" lon="6.16726">
        <ele>1015.7</ele>
        <time>2021-08-18T08:45:15Z</time>
      </trkpt>
      <trkpt lat="46.68961" lon="6.16719">
        <ele>1015.8</ele>
        <time>2021-08-18T08:45:17Z</time>
      </trkpt>
      <trkpt lat="46.6896" lon="6.16714">
        <ele>1015.9</ele>
        <time>2021-08-18T08:45:18Z</time>
      </trkpt>
      <trkpt lat="46.6896" lon="6.16713">
        <ele>1016</ele>
        <time>2021-08-18T08:45:19Z</time>
      </trkpt>
      <trkpt lat="46.68958" lon="6.16709">
        <ele>1016</ele>
        <time>2021-08-18T08:45:21Z</time>
      </trkpt>
      <trkpt lat="46.68957" lon="6.16705">
        <ele>1016.1</ele>
        <time>2021-08-18T08:45:22Z</time>
      </trkpt>
      <trkpt lat="46.68955" lon="6.167">
        <ele>1016.2</ele>
        <time>2021-08-18T08:45:23Z</time>
      </trkpt>
      <trkpt lat="46.68954" lon="6.16699">
        <ele>1016.2</ele>
        <time>2021-08-18T08:45:24Z</time>
      </trkpt>
      <trkpt lat="46.68952" lon="6.16693">
        <ele>1016.3</ele>
        <time>2021-08-18T08:45:26Z</time>
      </trkpt>
      <trkpt lat="46.68951" lon="6.16689">
        <ele>1016.4</ele>
        <time>2021-08-18T08:45:27Z</time>
      </trkpt>
      <trkpt lat="46.68949" lon="6.16686">
        <ele>1016.4</ele>
        <time>2021-08-18T08:45:28Z</time>
      </trkpt>
      <trkpt lat="46.68948" lon="6.1668">
        <ele>1016.4</ele>
        <time>2021-08-18T08:45:30Z</time>
      </trkpt>
      <trkpt lat="46.68947" lon="6.16675">
        <ele>1016.3</ele>
        <time>2021-08-18T08:45:31Z</time>
      </trkpt>
      <trkpt lat="46.68947" lon="6.16673">
        <ele>1016.3</ele>
        <time>2021-08-18T08:45:32Z</time>
      </trkpt>
      <trkpt lat="46.68945" lon="6.16668">
        <ele>1016.3</ele>
        <time>2021-08-18T08:45:33Z</time>
      </trkpt>
      <trkpt lat="46.68945" lon="6.16667">
        <ele>1016.2</ele>
        <time>2021-08-18T08:45:34Z</time>
      </trkpt>
      <trkpt lat="46.68943" lon="6.16665">
        <ele>1016.1</ele>
        <time>2021-08-18T08:45:35Z</time>
      </trkpt>
      <trkpt lat="46.6894" lon="6.1666">
        <ele>1015.9</ele>
        <time>2021-08-18T08:45:37Z</time>
      </trkpt>
      <trkpt lat="46.68938" lon="6.16656">
        <ele>1015.7</ele>
        <time>2021-08-18T08:45:38Z</time>
      </trkpt>
      <trkpt lat="46.68936" lon="6.16651">
        <ele>1015.3</ele>
        <time>2021-08-18T08:45:39Z</time>
      </trkpt>
      <trkpt lat="46.68934" lon="6.16645">
        <ele>1014.9</ele>
        <time>2021-08-18T08:45:40Z</time>
      </trkpt>
      <trkpt lat="46.68932" lon="6.16636">
        <ele>1014.3</ele>
        <time>2021-08-18T08:45:42Z</time>
      </trkpt>
      <trkpt lat="46.6893" lon="6.16629">
        <ele>1013.8</ele>
        <time>2021-08-18T08:45:43Z</time>
      </trkpt>
      <trkpt lat="46.68926" lon="6.16621">
        <ele>1013.1</ele>
        <time>2021-08-18T08:45:44Z</time>
      </trkpt>
      <trkpt lat="46.68921" lon="6.16611">
        <ele>1012.2</ele>
        <time>2021-08-18T08:45:46Z</time>
      </trkpt>
      <trkpt lat="46.68918" lon="6.16603">
        <ele>1011.6</ele>
        <time>2021-08-18T08:45:47Z</time>
      </trkpt>
      <trkpt lat="46.68915" lon="6.16591">
        <ele>1010.8</ele>
        <time>2021-08-18T08:45:49Z</time>
      </trkpt>
      <trkpt lat="46.68913" lon="6.16585">
        <ele>1010.4</ele>
        <time>2021-08-18T08:45:50Z</time>
      </trkpt>
      <trkpt lat="46.68911" lon="6.1658">
        <ele>1010</ele>
        <time>2021-08-18T08:45:51Z</time>
      </trkpt>
      <trkpt lat="46.68909" lon="6.16575">
        <ele>1009.6</ele>
        <time>2021-08-18T08:45:53Z</time>
      </trkpt>
      <trkpt lat="46.68905" lon="6.16567">
        <ele>1009</ele>
        <time>2021-08-18T08:45:54Z</time>
      </trkpt>
      <trkpt lat="46.68903" lon="6.16561">
        <ele>1008.6</ele>
        <time>2021-08-18T08:45:55Z</time>
      </trkpt>
      <trkpt lat="46.689" lon="6.16554">
        <ele>1008.1</ele>
        <time>2021-08-18T08:45:57Z</time>
      </trkpt>
      <trkpt lat="46.68897" lon="6.16548">
        <ele>1007.7</ele>
        <time>2021-08-18T08:45:58Z</time>
      </trkpt>
      <trkpt lat="46.68895" lon="6.16541">
        <ele>1007.3</ele>
        <time>2021-08-18T08:45:59Z</time>
      </trkpt>
      <trkpt lat="46.68892" lon="6.16539">
        <ele>1007.1</ele>
        <time>2021-08-18T08:46:00Z</time>
      </trkpt>
      <trkpt lat="46.68888" lon="6.16535">
        <ele>1006.8</ele>
        <time>2021-08-18T08:46:02Z</time>
      </trkpt>
      <trkpt lat="46.68886" lon="6.16532">
        <ele>1006.6</ele>
        <time>2021-08-18T08:46:04Z</time>
      </trkpt>
      <trkpt lat="46.68885" lon="6.16531">
        <ele>1006.6</ele>
        <time>2021-08-18T08:46:05Z</time>
      </trkpt>
      <trkpt lat="46.68886" lon="6.16525">
        <ele>1006.4</ele>
        <time>2021-08-18T08:46:07Z</time>
      </trkpt>
      <trkpt lat="46.68887" lon="6.16521">
        <ele>1006.2</ele>
        <time>2021-08-18T08:46:08Z</time>
      </trkpt>
      <trkpt lat="46.68887" lon="6.16513">
        <ele>1006</ele>
        <time>2021-08-18T08:46:10Z</time>
      </trkpt>
      <trkpt lat="46.68887" lon="6.16508">
        <ele>1005.9</ele>
        <time>2021-08-18T08:46:11Z</time>
      </trkpt>
      <trkpt lat="46.68887" lon="6.16506">
        <ele>1005.9</ele>
        <time>2021-08-18T08:46:12Z</time>
      </trkpt>
      <trkpt lat="46.68887" lon="6.16503">
        <ele>1005.8</ele>
        <time>2021-08-18T08:46:13Z</time>
      </trkpt>
      <trkpt lat="46.68887" lon="6.16497">
        <ele>1005.7</ele>
        <time>2021-08-18T08:46:15Z</time>
      </trkpt>
      <trkpt lat="46.68887" lon="6.16492">
        <ele>1005.6</ele>
        <time>2021-08-18T08:46:16Z</time>
      </trkpt>
      <trkpt lat="46.68888" lon="6.1649">
        <ele>1005.6</ele>
        <time>2021-08-18T08:46:17Z</time>
      </trkpt>
      <trkpt lat="46.68888" lon="6.16483">
        <ele>1005.5</ele>
        <time>2021-08-18T08:46:19Z</time>
      </trkpt>
      <trkpt lat="46.68886" lon="6.16471">
        <ele>1005.5</ele>
        <time>2021-08-18T08:46:21Z</time>
      </trkpt>
      <trkpt lat="46.68883" lon="6.16465">
        <ele>1005.5</ele>
        <time>2021-08-18T08:46:22Z</time>
      </trkpt>
      <trkpt lat="46.6888" lon="6.16459">
        <ele>1005.5</ele>
        <time>2021-08-18T08:46:23Z</time>
      </trkpt>
      <trkpt lat="46.68876" lon="6.16449">
        <ele>1005.3</ele>
        <time>2021-08-18T08:46:25Z</time>
      </trkpt>
      <trkpt lat="46.68873" lon="6.16439">
        <ele>1005.1</ele>
        <time>2021-08-18T08:46:26Z</time>
      </trkpt>
      <trkpt lat="46.68871" lon="6.16431">
        <ele>1004.8</ele>
        <time>2021-08-18T08:46:27Z</time>
      </trkpt>
      <trkpt lat="46.68869" lon="6.16425">
        <ele>1004.6</ele>
        <time>2021-08-18T08:46:28Z</time>
      </trkpt>
      <trkpt lat="46.68869" lon="6.16419">
        <ele>1004.3</ele>
        <time>2021-08-18T08:46:29Z</time>
      </trkpt>
      <trkpt lat="46.68868" lon="6.16413">
        <ele>1004.1</ele>
        <time>2021-08-18T08:46:30Z</time>
      </trkpt>
      <trkpt lat="46.68866" lon="6.16405">
        <ele>1003.7</ele>
        <time>2021-08-18T08:46:32Z</time>
      </trkpt>
      <trkpt lat="46.68864" lon="6.16398">
        <ele>1003.4</ele>
        <time>2021-08-18T08:46:33Z</time>
      </trkpt>
      <trkpt lat="46.68863" lon="6.16392">
        <ele>1003.2</ele>
        <time>2021-08-18T08:46:34Z</time>
      </trkpt>
      <trkpt lat="46.68862" lon="6.16387">
        <ele>1003</ele>
        <time>2021-08-18T08:46:35Z</time>
      </trkpt>
      <trkpt lat="46.6886" lon="6.16382">
        <ele>1002.7</ele>
        <time>2021-08-18T08:46:36Z</time>
      </trkpt>
      <trkpt lat="46.68859" lon="6.16381">
        <ele>1002.7</ele>
        <time>2021-08-18T08:46:37Z</time>
      </trkpt>
      <trkpt lat="46.68858" lon="6.16371">
        <ele>1002.3</ele>
        <time>2021-08-18T08:46:39Z</time>
      </trkpt>
      <trkpt lat="46.68857" lon="6.16365">
        <ele>1002</ele>
        <time>2021-08-18T08:46:40Z</time>
      </trkpt>
      <trkpt lat="46.68858" lon="6.16356">
        <ele>1001.6</ele>
        <time>2021-08-18T08:46:42Z</time>
      </trkpt>
      <trkpt lat="46.68858" lon="6.16347">
        <ele>1001.3</ele>
        <time>2021-08-18T08:46:43Z</time>
      </trkpt>
      <trkpt lat="46.68855" lon="6.16334">
        <ele>1000.6</ele>
        <time>2021-08-18T08:46:44Z</time>
      </trkpt>
      <trkpt lat="46.68851" lon="6.16314">
        <ele>999.3</ele>
        <time>2021-08-18T08:46:46Z</time>
      </trkpt>
      <trkpt lat="46.68846" lon="6.16292">
        <ele>997.2</ele>
        <time>2021-08-18T08:46:48Z</time>
      </trkpt>
      <trkpt lat="46.68841" lon="6.1628">
        <ele>996.3</ele>
        <time>2021-08-18T08:46:49Z</time>
      </trkpt>
      <trkpt lat="46.68833" lon="6.1626">
        <ele>995</ele>
        <time>2021-08-18T08:46:51Z</time>
      </trkpt>
      <trkpt lat="46.68829" lon="6.1625">
        <ele>994.5</ele>
        <time>2021-08-18T08:46:52Z</time>
      </trkpt>
      <trkpt lat="46.68817" lon="6.16228">
        <ele>993.4</ele>
        <time>2021-08-18T08:46:54Z</time>
      </trkpt>
      <trkpt lat="46.68805" lon="6.16206">
        <ele>992.2</ele>
        <time>2021-08-18T08:46:56Z</time>
      </trkpt>
      <trkpt lat="46.688" lon="6.16197">
        <ele>991.7</ele>
        <time>2021-08-18T08:46:57Z</time>
      </trkpt>
      <trkpt lat="46.68787" lon="6.16179">
        <ele>990.9</ele>
        <time>2021-08-18T08:46:59Z</time>
      </trkpt>
      <trkpt lat="46.68782" lon="6.1617">
        <ele>990.5</ele>
        <time>2021-08-18T08:47:00Z</time>
      </trkpt>
      <trkpt lat="46.68776" lon="6.1616">
        <ele>989.8</ele>
        <time>2021-08-18T08:47:01Z</time>
      </trkpt>
      <trkpt lat="46.68767" lon="6.16138">
        <ele>988.1</ele>
        <time>2021-08-18T08:47:03Z</time>
      </trkpt>
      <trkpt lat="46.68763" lon="6.16127">
        <ele>987</ele>
        <time>2021-08-18T08:47:04Z</time>
      </trkpt>
      <trkpt lat="46.68756" lon="6.16098">
        <ele>983.3</ele>
        <time>2021-08-18T08:47:06Z</time>
      </trkpt>
      <trkpt lat="46.68755" lon="6.16083">
        <ele>982</ele>
        <time>2021-08-18T08:47:07Z</time>
      </trkpt>
      <trkpt lat="46.68755" lon="6.16053">
        <ele>979.6</ele>
        <time>2021-08-18T08:47:09Z</time>
      </trkpt>
      <trkpt lat="46.68754" lon="6.16037">
        <ele>978.6</ele>
        <time>2021-08-18T08:47:10Z</time>
      </trkpt>
      <trkpt lat="46.6875" lon="6.16008">
        <ele>977.4</ele>
        <time>2021-08-18T08:47:12Z</time>
      </trkpt>
      <trkpt lat="46.68748" lon="6.15994">
        <ele>977.1</ele>
        <time>2021-08-18T08:47:13Z</time>
      </trkpt>
      <trkpt lat="46.68744" lon="6.15969">
        <ele>976.9</ele>
        <time>2021-08-18T08:47:15Z</time>
      </trkpt>
      <trkpt lat="46.68742" lon="6.15958">
        <ele>976.8</ele>
        <time>2021-08-18T08:47:16Z</time>
      </trkpt>
      <trkpt lat="46.68741" lon="6.15948">
        <ele>976.7</ele>
        <time>2021-08-18T08:47:17Z</time>
      </trkpt>
      <trkpt lat="46.6874" lon="6.15932">
        <ele>976.3</ele>
        <time>2021-08-18T08:47:19Z</time>
      </trkpt>
      <trkpt lat="46.68737" lon="6.1592">
        <ele>975.9</ele>
        <time>2021-08-18T08:47:21Z</time>
      </trkpt>
      <trkpt lat="46.68735" lon="6.15914">
        <ele>975.7</ele>
        <time>2021-08-18T08:47:22Z</time>
      </trkpt>
      <trkpt lat="46.68733" lon="6.15908">
        <ele>975.6</ele>
        <time>2021-08-18T08:47:23Z</time>
      </trkpt>
      <trkpt lat="46.6873" lon="6.159">
        <ele>975.5</ele>
        <time>2021-08-18T08:47:24Z</time>
      </trkpt>
      <trkpt lat="46.68728" lon="6.15891">
        <ele>975.4</ele>
        <time>2021-08-18T08:47:25Z</time>
      </trkpt>
      <trkpt lat="46.68725" lon="6.15873">
        <ele>975.5</ele>
        <time>2021-08-18T08:47:27Z</time>
      </trkpt>
      <trkpt lat="46.68723" lon="6.15856">
        <ele>975.6</ele>
        <time>2021-08-18T08:47:29Z</time>
      </trkpt>
      <trkpt lat="46.68723" lon="6.15849">
        <ele>975.7</ele>
        <time>2021-08-18T08:47:30Z</time>
      </trkpt>
      <trkpt lat="46.68726" lon="6.15834">
        <ele>975.9</ele>
        <time>2021-08-18T08:47:32Z</time>
      </trkpt>
      <trkpt lat="46.68731" lon="6.15825">
        <ele>976.1</ele>
        <time>2021-08-18T08:47:34Z</time>
      </trkpt>
      <trkpt lat="46.68734" lon="6.1582">
        <ele>976.2</ele>
        <time>2021-08-18T08:47:35Z</time>
      </trkpt>
      <trkpt lat="46.68737" lon="6.15817">
        <ele>976.2</ele>
        <time>2021-08-18T08:47:36Z</time>
      </trkpt>
      <trkpt lat="46.68739" lon="6.15812">
        <ele>976.2</ele>
        <time>2021-08-18T08:47:37Z</time>
      </trkpt>
      <trkpt lat="46.68745" lon="6.15801">
        <ele>976.1</ele>
        <time>2021-08-18T08:47:39Z</time>
      </trkpt>
      <trkpt lat="46.68748" lon="6.15797">
        <ele>976.1</ele>
        <time>2021-08-18T08:47:40Z</time>
      </trkpt>
      <trkpt lat="46.68753" lon="6.15788">
        <ele>976</ele>
        <time>2021-08-18T08:47:42Z</time>
      </trkpt>
      <trkpt lat="46.68754" lon="6.15783">
        <ele>976</ele>
        <time>2021-08-18T08:47:43Z</time>
      </trkpt>
      <trkpt lat="46.68757" lon="6.15772">
        <ele>976</ele>
        <time>2021-08-18T08:47:45Z</time>
      </trkpt>
      <trkpt lat="46.68757" lon="6.15768">
        <ele>976</ele>
        <time>2021-08-18T08:47:46Z</time>
      </trkpt>
      <trkpt lat="46.68757" lon="6.15762">
        <ele>976</ele>
        <time>2021-08-18T08:47:47Z</time>
      </trkpt>
      <trkpt lat="46.68755" lon="6.15751">
        <ele>976</ele>
        <time>2021-08-18T08:47:49Z</time>
      </trkpt>
      <trkpt lat="46.68752" lon="6.15742">
        <ele>976.1</ele>
        <time>2021-08-18T08:47:51Z</time>
      </trkpt>
      <trkpt lat="46.6875" lon="6.15737">
        <ele>976.1</ele>
        <time>2021-08-18T08:47:52Z</time>
      </trkpt>
      <trkpt lat="46.68746" lon="6.15731">
        <ele>976.2</ele>
        <time>2021-08-18T08:47:54Z</time>
      </trkpt>
      <trkpt lat="46.68741" lon="6.15724">
        <ele>976.3</ele>
        <time>2021-08-18T08:47:56Z</time>
      </trkpt>
      <trkpt lat="46.68737" lon="6.15719">
        <ele>976.3</ele>
        <time>2021-08-18T08:47:58Z</time>
      </trkpt>
      <trkpt lat="46.68734" lon="6.15716">
        <ele>976.4</ele>
        <time>2021-08-18T08:47:59Z</time>
      </trkpt>
      <trkpt lat="46.68733" lon="6.15711">
        <ele>976.4</ele>
        <time>2021-08-18T08:48:00Z</time>
      </trkpt>
      <trkpt lat="46.68732" lon="6.15702">
        <ele>976.6</ele>
        <time>2021-08-18T08:48:02Z</time>
      </trkpt>
      <trkpt lat="46.68734" lon="6.15697">
        <ele>976.9</ele>
        <time>2021-08-18T08:48:03Z</time>
      </trkpt>
      <trkpt lat="46.68735" lon="6.15691">
        <ele>976.9</ele>
        <time>2021-08-18T08:48:04Z</time>
      </trkpt>
      <trkpt lat="46.68735" lon="6.15689">
        <ele>976.9</ele>
        <time>2021-08-18T08:48:05Z</time>
      </trkpt>
      <trkpt lat="46.68734" lon="6.15685">
        <ele>977</ele>
        <time>2021-08-18T08:48:06Z</time>
      </trkpt>
      <trkpt lat="46.68732" lon="6.15681">
        <ele>977</ele>
        <time>2021-08-18T08:48:08Z</time>
      </trkpt>
      <trkpt lat="46.68729" lon="6.15677">
        <ele>977</ele>
        <time>2021-08-18T08:48:09Z</time>
      </trkpt>
      <trkpt lat="46.68727" lon="6.15673">
        <ele>976.9</ele>
        <time>2021-08-18T08:48:10Z</time>
      </trkpt>
      <trkpt lat="46.68725" lon="6.15668">
        <ele>976.9</ele>
        <time>2021-08-18T08:48:12Z</time>
      </trkpt>
      <trkpt lat="46.68725" lon="6.15667">
        <ele>976.9</ele>
        <time>2021-08-18T08:48:13Z</time>
      </trkpt>
      <trkpt lat="46.68723" lon="6.15662">
        <ele>976.8</ele>
        <time>2021-08-18T08:48:14Z</time>
      </trkpt>
      <trkpt lat="46.68721" lon="6.15659">
        <ele>976.8</ele>
        <time>2021-08-18T08:48:16Z</time>
      </trkpt>
      <trkpt lat="46.6872" lon="6.15655">
        <ele>976.8</ele>
        <time>2021-08-18T08:48:17Z</time>
      </trkpt>
      <trkpt lat="46.68716" lon="6.15649">
        <ele>976.7</ele>
        <time>2021-08-18T08:48:18Z</time>
      </trkpt>
      <trkpt lat="46.68714" lon="6.15644">
        <ele>976.7</ele>
        <time>2021-08-18T08:48:20Z</time>
      </trkpt>
      <trkpt lat="46.68711" lon="6.15637">
        <ele>976.7</ele>
        <time>2021-08-18T08:48:21Z</time>
      </trkpt>
      <trkpt lat="46.68709" lon="6.15632">
        <ele>976.7</ele>
        <time>2021-08-18T08:48:23Z</time>
      </trkpt>
      <trkpt lat="46.68707" lon="6.15625">
        <ele>976.7</ele>
        <time>2021-08-18T08:48:24Z</time>
      </trkpt>
      <trkpt lat="46.68704" lon="6.15619">
        <ele>976.7</ele>
        <time>2021-08-18T08:48:26Z</time>
      </trkpt>
      <trkpt lat="46.68703" lon="6.15613">
        <ele>976.7</ele>
        <time>2021-08-18T08:48:27Z</time>
      </trkpt>
      <trkpt lat="46.68702" lon="6.15608">
        <ele>976.7</ele>
        <time>2021-08-18T08:48:28Z</time>
      </trkpt>
      <trkpt lat="46.68701" lon="6.15602">
        <ele>976.7</ele>
        <time>2021-08-18T08:48:29Z</time>
      </trkpt>
      <trkpt lat="46.68701" lon="6.15597">
        <ele>976.8</ele>
        <time>2021-08-18T08:48:31Z</time>
      </trkpt>
      <trkpt lat="46.68699" lon="6.1559">
        <ele>976.8</ele>
        <time>2021-08-18T08:48:33Z</time>
      </trkpt>
      <trkpt lat="46.68697" lon="6.15585">
        <ele>976.8</ele>
        <time>2021-08-18T08:48:34Z</time>
      </trkpt>
      <trkpt lat="46.68696" lon="6.15581">
        <ele>976.9</ele>
        <time>2021-08-18T08:48:35Z</time>
      </trkpt>
      <trkpt lat="46.68695" lon="6.15577">
        <ele>976.9</ele>
        <time>2021-08-18T08:48:36Z</time>
      </trkpt>
      <trkpt lat="46.68694" lon="6.15573">
        <ele>976.9</ele>
        <time>2021-08-18T08:48:37Z</time>
      </trkpt>
      <trkpt lat="46.68693" lon="6.15567">
        <ele>977</ele>
        <time>2021-08-18T08:48:38Z</time>
      </trkpt>
      <trkpt lat="46.68692" lon="6.15566">
        <ele>977</ele>
        <time>2021-08-18T08:48:39Z</time>
      </trkpt>
      <trkpt lat="46.68691" lon="6.15562">
        <ele>977.1</ele>
        <time>2021-08-18T08:48:40Z</time>
      </trkpt>
      <trkpt lat="46.6869" lon="6.15557">
        <ele>977.2</ele>
        <time>2021-08-18T08:48:42Z</time>
      </trkpt>
      <trkpt lat="46.68689" lon="6.15552">
        <ele>977.2</ele>
        <time>2021-08-18T08:48:43Z</time>
      </trkpt>
      <trkpt lat="46.68688" lon="6.15548">
        <ele>977.3</ele>
        <time>2021-08-18T08:48:44Z</time>
      </trkpt>
      <trkpt lat="46.68686" lon="6.15542">
        <ele>977.3</ele>
        <time>2021-08-18T08:48:46Z</time>
      </trkpt>
      <trkpt lat="46.68686" lon="6.15539">
        <ele>977.4</ele>
        <time>2021-08-18T08:48:47Z</time>
      </trkpt>
      <trkpt lat="46.68686" lon="6.15534">
        <ele>977.4</ele>
        <time>2021-08-18T08:48:48Z</time>
      </trkpt>
      <trkpt lat="46.68686" lon="6.15532">
        <ele>977.4</ele>
        <time>2021-08-18T08:48:49Z</time>
      </trkpt>
      <trkpt lat="46.68684" lon="6.15525">
        <ele>977.4</ele>
        <time>2021-08-18T08:48:51Z</time>
      </trkpt>
      <trkpt lat="46.68684" lon="6.15523">
        <ele>977.5</ele>
        <time>2021-08-18T08:48:52Z</time>
      </trkpt>
      <trkpt lat="46.68684" lon="6.15521">
        <ele>977.5</ele>
        <time>2021-08-18T08:48:53Z</time>
      </trkpt>
      <trkpt lat="46.68683" lon="6.15515">
        <ele>977.5</ele>
        <time>2021-08-18T08:48:54Z</time>
      </trkpt>
      <trkpt lat="46.68683" lon="6.15511">
        <ele>977.5</ele>
        <time>2021-08-18T08:48:55Z</time>
      </trkpt>
      <trkpt lat="46.68682" lon="6.15507">
        <ele>977.6</ele>
        <time>2021-08-18T08:48:57Z</time>
      </trkpt>
      <trkpt lat="46.68682" lon="6.15503">
        <ele>977.6</ele>
        <time>2021-08-18T08:48:58Z</time>
      </trkpt>
      <trkpt lat="46.68681" lon="6.15499">
        <ele>977.6</ele>
        <time>2021-08-18T08:48:59Z</time>
      </trkpt>
      <trkpt lat="46.68681" lon="6.15495">
        <ele>977.7</ele>
        <time>2021-08-18T08:49:00Z</time>
      </trkpt>
      <trkpt lat="46.68682" lon="6.1549">
        <ele>977.7</ele>
        <time>2021-08-18T08:49:02Z</time>
      </trkpt>
      <trkpt lat="46.68682" lon="6.15486">
        <ele>977.8</ele>
        <time>2021-08-18T08:49:03Z</time>
      </trkpt>
      <trkpt lat="46.68682" lon="6.15482">
        <ele>977.8</ele>
        <time>2021-08-18T08:49:04Z</time>
      </trkpt>
      <trkpt lat="46.68681" lon="6.15477">
        <ele>977.8</ele>
        <time>2021-08-18T08:49:05Z</time>
      </trkpt>
      <trkpt lat="46.6868" lon="6.15476">
        <ele>977.9</ele>
        <time>2021-08-18T08:49:06Z</time>
      </trkpt>
      <trkpt lat="46.6868" lon="6.15471">
        <ele>977.9</ele>
        <time>2021-08-18T08:49:08Z</time>
      </trkpt>
      <trkpt lat="46.68679" lon="6.15469">
        <ele>977.9</ele>
        <time>2021-08-18T08:49:09Z</time>
      </trkpt>
      <trkpt lat="46.68678" lon="6.15462">
        <ele>978</ele>
        <time>2021-08-18T08:49:11Z</time>
      </trkpt>
      <trkpt lat="46.68677" lon="6.15458">
        <ele>978</ele>
        <time>2021-08-18T08:49:12Z</time>
      </trkpt>
      <trkpt lat="46.68677" lon="6.15453">
        <ele>978</ele>
        <time>2021-08-18T08:49:13Z</time>
      </trkpt>
      <trkpt lat="46.68676" lon="6.15452">
        <ele>978</ele>
        <time>2021-08-18T08:49:14Z</time>
      </trkpt>
      <trkpt lat="46.68676" lon="6.15446">
        <ele>978.1</ele>
        <time>2021-08-18T08:49:15Z</time>
      </trkpt>
      <trkpt lat="46.68676" lon="6.15445">
        <ele>978.1</ele>
        <time>2021-08-18T08:49:16Z</time>
      </trkpt>
      <trkpt lat="46.68675" lon="6.15439">
        <ele>978.1</ele>
        <time>2021-08-18T08:49:17Z</time>
      </trkpt>
      <trkpt lat="46.68675" lon="6.15438">
        <ele>978.1</ele>
        <time>2021-08-18T08:49:18Z</time>
      </trkpt>
      <trkpt lat="46.68675" lon="6.15434">
        <ele>978.1</ele>
        <time>2021-08-18T08:49:19Z</time>
      </trkpt>
      <trkpt lat="46.68675" lon="6.15427">
        <ele>978.2</ele>
        <time>2021-08-18T08:49:21Z</time>
      </trkpt>
      <trkpt lat="46.68674" lon="6.15423">
        <ele>978.2</ele>
        <time>2021-08-18T08:49:23Z</time>
      </trkpt>
      <trkpt lat="46.68673" lon="6.15418">
        <ele>978.2</ele>
        <time>2021-08-18T08:49:24Z</time>
      </trkpt>
      <trkpt lat="46.68672" lon="6.15413">
        <ele>978.3</ele>
        <time>2021-08-18T08:49:25Z</time>
      </trkpt>
      <trkpt lat="46.68672" lon="6.1541">
        <ele>978.3</ele>
        <time>2021-08-18T08:49:26Z</time>
      </trkpt>
      <trkpt lat="46.68671" lon="6.15405">
        <ele>978.4</ele>
        <time>2021-08-18T08:49:28Z</time>
      </trkpt>
      <trkpt lat="46.6867" lon="6.154">
        <ele>978.5</ele>
        <time>2021-08-18T08:49:29Z</time>
      </trkpt>
      <trkpt lat="46.6867" lon="6.15398">
        <ele>978.5</ele>
        <time>2021-08-18T08:49:30Z</time>
      </trkpt>
      <trkpt lat="46.68668" lon="6.15395">
        <ele>978.6</ele>
        <time>2021-08-18T08:49:31Z</time>
      </trkpt>
      <trkpt lat="46.68667" lon="6.15389">
        <ele>978.7</ele>
        <time>2021-08-18T08:49:34Z</time>
      </trkpt>
      <trkpt lat="46.68666" lon="6.15384">
        <ele>978.8</ele>
        <time>2021-08-18T08:49:35Z</time>
      </trkpt>
      <trkpt lat="46.68666" lon="6.15383">
        <ele>978.8</ele>
        <time>2021-08-18T08:49:36Z</time>
      </trkpt>
      <trkpt lat="46.68663" lon="6.15378">
        <ele>978.9</ele>
        <time>2021-08-18T08:49:37Z</time>
      </trkpt>
      <trkpt lat="46.68662" lon="6.15375">
        <ele>979</ele>
        <time>2021-08-18T08:49:39Z</time>
      </trkpt>
      <trkpt lat="46.68661" lon="6.15371">
        <ele>979.1</ele>
        <time>2021-08-18T08:49:40Z</time>
      </trkpt>
      <trkpt lat="46.68659" lon="6.15366">
        <ele>979.2</ele>
        <time>2021-08-18T08:49:41Z</time>
      </trkpt>
      <trkpt lat="46.68658" lon="6.15365">
        <ele>979.3</ele>
        <time>2021-08-18T08:49:42Z</time>
      </trkpt>
      <trkpt lat="46.68656" lon="6.1536">
        <ele>979.4</ele>
        <time>2021-08-18T08:49:44Z</time>
      </trkpt>
      <trkpt lat="46.68656" lon="6.15358">
        <ele>979.4</ele>
        <time>2021-08-18T08:49:45Z</time>
      </trkpt>
      <trkpt lat="46.68655" lon="6.15355">
        <ele>979.5</ele>
        <time>2021-08-18T08:49:46Z</time>
      </trkpt>
      <trkpt lat="46.68654" lon="6.15351">
        <ele>979.6</ele>
        <time>2021-08-18T08:49:48Z</time>
      </trkpt>
      <trkpt lat="46.68653" lon="6.15344">
        <ele>979.7</ele>
        <time>2021-08-18T08:49:49Z</time>
      </trkpt>
      <trkpt lat="46.68652" lon="6.1534">
        <ele>979.8</ele>
        <time>2021-08-18T08:49:51Z</time>
      </trkpt>
      <trkpt lat="46.6865" lon="6.15336">
        <ele>979.8</ele>
        <time>2021-08-18T08:49:52Z</time>
      </trkpt>
      <trkpt lat="46.68649" lon="6.15331">
        <ele>979.9</ele>
        <time>2021-08-18T08:49:53Z</time>
      </trkpt>
      <trkpt lat="46.68648" lon="6.1533">
        <ele>979.9</ele>
        <time>2021-08-18T08:49:54Z</time>
      </trkpt>
      <trkpt lat="46.68646" lon="6.15325">
        <ele>980</ele>
        <time>2021-08-18T08:49:55Z</time>
      </trkpt>
      <trkpt lat="46.68646" lon="6.15324">
        <ele>980</ele>
        <time>2021-08-18T08:49:56Z</time>
      </trkpt>
      <trkpt lat="46.68644" lon="6.15319">
        <ele>980</ele>
        <time>2021-08-18T08:49:57Z</time>
      </trkpt>
      <trkpt lat="46.68643" lon="6.15316">
        <ele>980</ele>
        <time>2021-08-18T08:49:58Z</time>
      </trkpt>
      <trkpt lat="46.68641" lon="6.15312">
        <ele>980</ele>
        <time>2021-08-18T08:50:00Z</time>
      </trkpt>
      <trkpt lat="46.6864" lon="6.15306">
        <ele>980</ele>
        <time>2021-08-18T08:50:01Z</time>
      </trkpt>
      <trkpt lat="46.68639" lon="6.153">
        <ele>980</ele>
        <time>2021-08-18T08:50:03Z</time>
      </trkpt>
      <trkpt lat="46.68639" lon="6.15296">
        <ele>980</ele>
        <time>2021-08-18T08:50:04Z</time>
      </trkpt>
      <trkpt lat="46.68637" lon="6.1529">
        <ele>980</ele>
        <time>2021-08-18T08:50:05Z</time>
      </trkpt>
      <trkpt lat="46.68637" lon="6.15285">
        <ele>980</ele>
        <time>2021-08-18T08:50:07Z</time>
      </trkpt>
      <trkpt lat="46.68636" lon="6.1528">
        <ele>980</ele>
        <time>2021-08-18T08:50:08Z</time>
      </trkpt>
      <trkpt lat="46.68634" lon="6.15275">
        <ele>980</ele>
        <time>2021-08-18T08:50:09Z</time>
      </trkpt>
      <trkpt lat="46.68632" lon="6.15271">
        <ele>980</ele>
        <time>2021-08-18T08:50:10Z</time>
      </trkpt>
      <trkpt lat="46.6863" lon="6.15265">
        <ele>980</ele>
        <time>2021-08-18T08:50:12Z</time>
      </trkpt>
      <trkpt lat="46.68627" lon="6.15259">
        <ele>980</ele>
        <time>2021-08-18T08:50:13Z</time>
      </trkpt>
      <trkpt lat="46.68623" lon="6.15253">
        <ele>980</ele>
        <time>2021-08-18T08:50:15Z</time>
      </trkpt>
      <trkpt lat="46.68619" lon="6.15247">
        <ele>980</ele>
        <time>2021-08-18T08:50:16Z</time>
      </trkpt>
      <trkpt lat="46.68616" lon="6.15241">
        <ele>980.1</ele>
        <time>2021-08-18T08:50:18Z</time>
      </trkpt>
      <trkpt lat="46.68614" lon="6.15236">
        <ele>980.1</ele>
        <time>2021-08-18T08:50:19Z</time>
      </trkpt>
      <trkpt lat="46.68612" lon="6.15228">
        <ele>980.1</ele>
        <time>2021-08-18T08:50:21Z</time>
      </trkpt>
      <trkpt lat="46.6861" lon="6.1522">
        <ele>980.2</ele>
        <time>2021-08-18T08:50:23Z</time>
      </trkpt>
      <trkpt lat="46.68608" lon="6.15216">
        <ele>980.3</ele>
        <time>2021-08-18T08:50:24Z</time>
      </trkpt>
      <trkpt lat="46.68606" lon="6.1521">
        <ele>980.3</ele>
        <time>2021-08-18T08:50:25Z</time>
      </trkpt>
      <trkpt lat="46.68605" lon="6.15205">
        <ele>980.4</ele>
        <time>2021-08-18T08:50:26Z</time>
      </trkpt>
      <trkpt lat="46.68602" lon="6.15197">
        <ele>980.6</ele>
        <time>2021-08-18T08:50:28Z</time>
      </trkpt>
      <trkpt lat="46.68601" lon="6.15192">
        <ele>980.7</ele>
        <time>2021-08-18T08:50:30Z</time>
      </trkpt>
      <trkpt lat="46.68601" lon="6.15187">
        <ele>980.8</ele>
        <time>2021-08-18T08:50:31Z</time>
      </trkpt>
      <trkpt lat="46.68601" lon="6.15181">
        <ele>980.9</ele>
        <time>2021-08-18T08:50:32Z</time>
      </trkpt>
      <trkpt lat="46.686" lon="6.15176">
        <ele>981</ele>
        <time>2021-08-18T08:50:34Z</time>
      </trkpt>
      <trkpt lat="46.68599" lon="6.1517">
        <ele>981.1</ele>
        <time>2021-08-18T08:50:35Z</time>
      </trkpt>
      <trkpt lat="46.68598" lon="6.15166">
        <ele>981.2</ele>
        <time>2021-08-18T08:50:36Z</time>
      </trkpt>
      <trkpt lat="46.68597" lon="6.1516">
        <ele>981.2</ele>
        <time>2021-08-18T08:50:38Z</time>
      </trkpt>
      <trkpt lat="46.68597" lon="6.15157">
        <ele>981.3</ele>
        <time>2021-08-18T08:50:39Z</time>
      </trkpt>
      <trkpt lat="46.68597" lon="6.15151">
        <ele>981.3</ele>
        <time>2021-08-18T08:50:41Z</time>
      </trkpt>
      <trkpt lat="46.68597" lon="6.15144">
        <ele>981.3</ele>
        <time>2021-08-18T08:50:42Z</time>
      </trkpt>
      <trkpt lat="46.68597" lon="6.15137">
        <ele>981.2</ele>
        <time>2021-08-18T08:50:44Z</time>
      </trkpt>
      <trkpt lat="46.68596" lon="6.15128">
        <ele>981.2</ele>
        <time>2021-08-18T08:50:45Z</time>
      </trkpt>
      <trkpt lat="46.68594" lon="6.15123">
        <ele>981.2</ele>
        <time>2021-08-18T08:50:47Z</time>
      </trkpt>
      <trkpt lat="46.68593" lon="6.15119">
        <ele>981.2</ele>
        <time>2021-08-18T08:50:48Z</time>
      </trkpt>
      <trkpt lat="46.68592" lon="6.15112">
        <ele>981.2</ele>
        <time>2021-08-18T08:50:49Z</time>
      </trkpt>
      <trkpt lat="46.68591" lon="6.15106">
        <ele>981.2</ele>
        <time>2021-08-18T08:50:51Z</time>
      </trkpt>
      <trkpt lat="46.68588" lon="6.15098">
        <ele>981.2</ele>
        <time>2021-08-18T08:50:52Z</time>
      </trkpt>
      <trkpt lat="46.68586" lon="6.15092">
        <ele>981.2</ele>
        <time>2021-08-18T08:50:54Z</time>
      </trkpt>
      <trkpt lat="46.68584" lon="6.15086">
        <ele>981.2</ele>
        <time>2021-08-18T08:50:55Z</time>
      </trkpt>
      <trkpt lat="46.68583" lon="6.1508">
        <ele>981.3</ele>
        <time>2021-08-18T08:50:56Z</time>
      </trkpt>
      <trkpt lat="46.68582" lon="6.15075">
        <ele>981.3</ele>
        <time>2021-08-18T08:50:58Z</time>
      </trkpt>
      <trkpt lat="46.68582" lon="6.15071">
        <ele>981.3</ele>
        <time>2021-08-18T08:50:59Z</time>
      </trkpt>
      <trkpt lat="46.68581" lon="6.15065">
        <ele>981.3</ele>
        <time>2021-08-18T08:51:00Z</time>
      </trkpt>
      <trkpt lat="46.68581" lon="6.1506">
        <ele>981.4</ele>
        <time>2021-08-18T08:51:01Z</time>
      </trkpt>
      <trkpt lat="46.6858" lon="6.15055">
        <ele>981.4</ele>
        <time>2021-08-18T08:51:03Z</time>
      </trkpt>
      <trkpt lat="46.68578" lon="6.1505">
        <ele>981.4</ele>
        <time>2021-08-18T08:51:04Z</time>
      </trkpt>
      <trkpt lat="46.68576" lon="6.15045">
        <ele>981.5</ele>
        <time>2021-08-18T08:51:05Z</time>
      </trkpt>
      <trkpt lat="46.68573" lon="6.15039">
        <ele>981.6</ele>
        <time>2021-08-18T08:51:07Z</time>
      </trkpt>
      <trkpt lat="46.68571" lon="6.15035">
        <ele>981.6</ele>
        <time>2021-08-18T08:51:08Z</time>
      </trkpt>
      <trkpt lat="46.6857" lon="6.15027">
        <ele>981.7</ele>
        <time>2021-08-18T08:51:09Z</time>
      </trkpt>
      <trkpt lat="46.6857" lon="6.15022">
        <ele>981.8</ele>
        <time>2021-08-18T08:51:11Z</time>
      </trkpt>
      <trkpt lat="46.6857" lon="6.15018">
        <ele>981.8</ele>
        <time>2021-08-18T08:51:12Z</time>
      </trkpt>
      <trkpt lat="46.68567" lon="6.1501">
        <ele>981.8</ele>
        <time>2021-08-18T08:51:14Z</time>
      </trkpt>
      <trkpt lat="46.68563" lon="6.15005">
        <ele>981.8</ele>
        <time>2021-08-18T08:51:15Z</time>
      </trkpt>
      <trkpt lat="46.68559" lon="6.15">
        <ele>981.8</ele>
        <time>2021-08-18T08:51:17Z</time>
      </trkpt>
      <trkpt lat="46.68549" lon="6.14993">
        <ele>981.7</ele>
        <time>2021-08-18T08:51:19Z</time>
      </trkpt>
      <trkpt lat="46.68543" lon="6.14995">
        <ele>981.6</ele>
        <time>2021-08-18T08:51:20Z</time>
      </trkpt>
      <trkpt lat="46.6854" lon="6.14989">
        <ele>981.7</ele>
        <time>2021-08-18T08:51:22Z</time>
      </trkpt>
      <trkpt lat="46.68535" lon="6.1498">
        <ele>981.7</ele>
        <time>2021-08-18T08:51:23Z</time>
      </trkpt>
      <trkpt lat="46.68533" lon="6.14974">
        <ele>981.7</ele>
        <time>2021-08-18T08:51:24Z</time>
      </trkpt>
      <trkpt lat="46.68529" lon="6.14965">
        <ele>981.8</ele>
        <time>2021-08-18T08:51:26Z</time>
      </trkpt>
      <trkpt lat="46.68527" lon="6.14961">
        <ele>981.9</ele>
        <time>2021-08-18T08:51:27Z</time>
      </trkpt>
      <trkpt lat="46.68525" lon="6.14956">
        <ele>981.9</ele>
        <time>2021-08-18T08:51:28Z</time>
      </trkpt>
      <trkpt lat="46.68523" lon="6.14951">
        <ele>982</ele>
        <time>2021-08-18T08:51:29Z</time>
      </trkpt>
      <trkpt lat="46.68522" lon="6.14947">
        <ele>982</ele>
        <time>2021-08-18T08:51:30Z</time>
      </trkpt>
      <trkpt lat="46.68521" lon="6.14943">
        <ele>982.1</ele>
        <time>2021-08-18T08:51:31Z</time>
      </trkpt>
      <trkpt lat="46.6852" lon="6.14934">
        <ele>982.2</ele>
        <time>2021-08-18T08:51:33Z</time>
      </trkpt>
      <trkpt lat="46.68519" lon="6.1493">
        <ele>982.3</ele>
        <time>2021-08-18T08:51:34Z</time>
      </trkpt>
      <trkpt lat="46.68517" lon="6.1492">
        <ele>982.5</ele>
        <time>2021-08-18T08:51:36Z</time>
      </trkpt>
      <trkpt lat="46.68516" lon="6.14914">
        <ele>982.7</ele>
        <time>2021-08-18T08:51:38Z</time>
      </trkpt>
      <trkpt lat="46.68516" lon="6.1491">
        <ele>982.8</ele>
        <time>2021-08-18T08:51:39Z</time>
      </trkpt>
      <trkpt lat="46.68514" lon="6.14905">
        <ele>982.9</ele>
        <time>2021-08-18T08:51:41Z</time>
      </trkpt>
      <trkpt lat="46.68513" lon="6.14902">
        <ele>983</ele>
        <time>2021-08-18T08:51:42Z</time>
      </trkpt>
      <trkpt lat="46.68512" lon="6.14898">
        <ele>983.1</ele>
        <time>2021-08-18T08:51:43Z</time>
      </trkpt>
      <trkpt lat="46.68512" lon="6.14894">
        <ele>983.2</ele>
        <time>2021-08-18T08:51:45Z</time>
      </trkpt>
      <trkpt lat="46.68511" lon="6.1489">
        <ele>983.3</ele>
        <time>2021-08-18T08:51:46Z</time>
      </trkpt>
      <trkpt lat="46.6851" lon="6.14885">
        <ele>983.4</ele>
        <time>2021-08-18T08:51:47Z</time>
      </trkpt>
      <trkpt lat="46.68509" lon="6.1488">
        <ele>983.5</ele>
        <time>2021-08-18T08:51:49Z</time>
      </trkpt>
      <trkpt lat="46.68508" lon="6.14878">
        <ele>983.5</ele>
        <time>2021-08-18T08:51:50Z</time>
      </trkpt>
      <trkpt lat="46.68508" lon="6.14874">
        <ele>983.6</ele>
        <time>2021-08-18T08:51:51Z</time>
      </trkpt>
      <trkpt lat="46.68507" lon="6.1487">
        <ele>983.7</ele>
        <time>2021-08-18T08:51:52Z</time>
      </trkpt>
      <trkpt lat="46.68505" lon="6.14866">
        <ele>983.8</ele>
        <time>2021-08-18T08:51:53Z</time>
      </trkpt>
      <trkpt lat="46.68504" lon="6.14862">
        <ele>983.8</ele>
        <time>2021-08-18T08:51:54Z</time>
      </trkpt>
      <trkpt lat="46.68501" lon="6.14855">
        <ele>983.9</ele>
        <time>2021-08-18T08:51:56Z</time>
      </trkpt>
      <trkpt lat="46.68498" lon="6.14849">
        <ele>984</ele>
        <time>2021-08-18T08:51:57Z</time>
      </trkpt>
      <trkpt lat="46.68495" lon="6.14843">
        <ele>984</ele>
        <time>2021-08-18T08:51:58Z</time>
      </trkpt>
      <trkpt lat="46.68493" lon="6.14836">
        <ele>984.1</ele>
        <time>2021-08-18T08:52:00Z</time>
      </trkpt>
      <trkpt lat="46.68491" lon="6.14831">
        <ele>984.2</ele>
        <time>2021-08-18T08:52:01Z</time>
      </trkpt>
      <trkpt lat="46.68489" lon="6.14827">
        <ele>984.2</ele>
        <time>2021-08-18T08:52:02Z</time>
      </trkpt>
      <trkpt lat="46.68486" lon="6.14822">
        <ele>984.3</ele>
        <time>2021-08-18T08:52:04Z</time>
      </trkpt>
      <trkpt lat="46.68484" lon="6.14816">
        <ele>984.4</ele>
        <time>2021-08-18T08:52:05Z</time>
      </trkpt>
      <trkpt lat="46.68481" lon="6.14811">
        <ele>984.4</ele>
        <time>2021-08-18T08:52:07Z</time>
      </trkpt>
      <trkpt lat="46.6848" lon="6.14806">
        <ele>984.5</ele>
        <time>2021-08-18T08:52:08Z</time>
      </trkpt>
      <trkpt lat="46.68477" lon="6.148">
        <ele>984.6</ele>
        <time>2021-08-18T08:52:09Z</time>
      </trkpt>
      <trkpt lat="46.68475" lon="6.14795">
        <ele>984.6</ele>
        <time>2021-08-18T08:52:11Z</time>
      </trkpt>
      <trkpt lat="46.68474" lon="6.14791">
        <ele>984.7</ele>
        <time>2021-08-18T08:52:12Z</time>
      </trkpt>
      <trkpt lat="46.68471" lon="6.14787">
        <ele>984.7</ele>
        <time>2021-08-18T08:52:13Z</time>
      </trkpt>
      <trkpt lat="46.68469" lon="6.14781">
        <ele>984.7</ele>
        <time>2021-08-18T08:52:14Z</time>
      </trkpt>
      <trkpt lat="46.68467" lon="6.14776">
        <ele>984.8</ele>
        <time>2021-08-18T08:52:16Z</time>
      </trkpt>
      <trkpt lat="46.68465" lon="6.14768">
        <ele>984.8</ele>
        <time>2021-08-18T08:52:18Z</time>
      </trkpt>
      <trkpt lat="46.68466" lon="6.14763">
        <ele>984.8</ele>
        <time>2021-08-18T08:52:20Z</time>
      </trkpt>
      <trkpt lat="46.68467" lon="6.14762">
        <ele>984.8</ele>
        <time>2021-08-18T08:52:21Z</time>
      </trkpt>
      <trkpt lat="46.68469" lon="6.1476">
        <ele>984.8</ele>
        <time>2021-08-18T08:52:22Z</time>
      </trkpt>
      <trkpt lat="46.68469" lon="6.1476">
        <ele>984.8</ele>
        <time>2021-08-18T08:52:24Z</time>
      </trkpt>
      <trkpt lat="46.68469" lon="6.1476">
        <ele>984.8</ele>
        <time>2021-08-18T08:52:25Z</time>
      </trkpt>
      <trkpt lat="46.68469" lon="6.1476">
        <ele>984.8</ele>
        <time>2021-08-18T08:52:27Z</time>
      </trkpt>
      <trkpt lat="46.68469" lon="6.1476">
        <ele>984.8</ele>
        <time>2021-08-18T08:52:28Z</time>
      </trkpt>
      <trkpt lat="46.6847" lon="6.1476">
        <ele>984.8</ele>
        <time>2021-08-18T08:52:29Z</time>
      </trkpt>
      <trkpt lat="46.68471" lon="6.1476">
        <ele>984.8</ele>
        <time>2021-08-18T08:52:31Z</time>
      </trkpt>
      <trkpt lat="46.68475" lon="6.14754">
        <ele>984.9</ele>
        <time>2021-08-18T08:52:37Z</time>
      </trkpt>
      <trkpt lat="46.68479" lon="6.1475">
        <ele>984.9</ele>
        <time>2021-08-18T08:52:38Z</time>
      </trkpt>
      <trkpt lat="46.68482" lon="6.14746">
        <ele>984.9</ele>
        <time>2021-08-18T08:52:40Z</time>
      </trkpt>
      <trkpt lat="46.68483" lon="6.14745">
        <ele>984.9</ele>
        <time>2021-08-18T08:52:41Z</time>
      </trkpt>
      <trkpt lat="46.68484" lon="6.1474">
        <ele>984.9</ele>
        <time>2021-08-18T08:52:43Z</time>
      </trkpt>
      <trkpt lat="46.68484" lon="6.14739">
        <ele>984.9</ele>
        <time>2021-08-18T08:52:44Z</time>
      </trkpt>
      <trkpt lat="46.68484" lon="6.14734">
        <ele>984.9</ele>
        <time>2021-08-18T08:52:45Z</time>
      </trkpt>
      <trkpt lat="46.68482" lon="6.14728">
        <ele>984.9</ele>
        <time>2021-08-18T08:52:47Z</time>
      </trkpt>
      <trkpt lat="46.68478" lon="6.14724">
        <ele>984.9</ele>
        <time>2021-08-18T08:52:48Z</time>
      </trkpt>
      <trkpt lat="46.68475" lon="6.1472">
        <ele>985</ele>
        <time>2021-08-18T08:52:49Z</time>
      </trkpt>
      <trkpt lat="46.68472" lon="6.14716">
        <ele>985</ele>
        <time>2021-08-18T08:52:50Z</time>
      </trkpt>
      <trkpt lat="46.6847" lon="6.14713">
        <ele>985.1</ele>
        <time>2021-08-18T08:52:51Z</time>
      </trkpt>
      <trkpt lat="46.68466" lon="6.14707">
        <ele>985.1</ele>
        <time>2021-08-18T08:52:53Z</time>
      </trkpt>
      <trkpt lat="46.68464" lon="6.14704">
        <ele>985.2</ele>
        <time>2021-08-18T08:52:54Z</time>
      </trkpt>
      <trkpt lat="46.6846" lon="6.147">
        <ele>985.3</ele>
        <time>2021-08-18T08:52:56Z</time>
      </trkpt>
      <trkpt lat="46.68457" lon="6.14696">
        <ele>985.3</ele>
        <time>2021-08-18T08:52:57Z</time>
      </trkpt>
      <trkpt lat="46.68454" lon="6.14691">
        <ele>985.4</ele>
        <time>2021-08-18T08:52:59Z</time>
      </trkpt>
      <trkpt lat="46.6845" lon="6.14687">
        <ele>985.5</ele>
        <time>2021-08-18T08:53:00Z</time>
      </trkpt>
      <trkpt lat="46.68448" lon="6.14684">
        <ele>985.5</ele>
        <time>2021-08-18T08:53:01Z</time>
      </trkpt>
      <trkpt lat="46.68446" lon="6.14681">
        <ele>985.6</ele>
        <time>2021-08-18T08:53:03Z</time>
      </trkpt>
      <trkpt lat="46.68444" lon="6.14677">
        <ele>985.7</ele>
        <time>2021-08-18T08:53:04Z</time>
      </trkpt>
      <trkpt lat="46.68442" lon="6.14674">
        <ele>985.7</ele>
        <time>2021-08-18T08:53:05Z</time>
      </trkpt>
      <trkpt lat="46.6844" lon="6.14671">
        <ele>985.8</ele>
        <time>2021-08-18T08:53:07Z</time>
      </trkpt>
      <trkpt lat="46.68438" lon="6.14667">
        <ele>985.8</ele>
        <time>2021-08-18T08:53:08Z</time>
      </trkpt>
      <trkpt lat="46.68437" lon="6.14663">
        <ele>985.9</ele>
        <time>2021-08-18T08:53:10Z</time>
      </trkpt>
      <trkpt lat="46.68433" lon="6.14656">
        <ele>986</ele>
        <time>2021-08-18T08:53:12Z</time>
      </trkpt>
      <trkpt lat="46.68431" lon="6.14649">
        <ele>986.1</ele>
        <time>2021-08-18T08:53:13Z</time>
      </trkpt>
      <trkpt lat="46.68429" lon="6.14644">
        <ele>986.1</ele>
        <time>2021-08-18T08:53:15Z</time>
      </trkpt>
      <trkpt lat="46.68428" lon="6.1464">
        <ele>986.2</ele>
        <time>2021-08-18T08:53:16Z</time>
      </trkpt>
      <trkpt lat="46.68425" lon="6.14633">
        <ele>986.3</ele>
        <time>2021-08-18T08:53:18Z</time>
      </trkpt>
      <trkpt lat="46.68423" lon="6.14629">
        <ele>986.3</ele>
        <time>2021-08-18T08:53:19Z</time>
      </trkpt>
      <trkpt lat="46.68422" lon="6.14624">
        <ele>986.4</ele>
        <time>2021-08-18T08:53:20Z</time>
      </trkpt>
      <trkpt lat="46.68421" lon="6.1462">
        <ele>986.5</ele>
        <time>2021-08-18T08:53:21Z</time>
      </trkpt>
      <trkpt lat="46.6842" lon="6.14614">
        <ele>986.5</ele>
        <time>2021-08-18T08:53:23Z</time>
      </trkpt>
      <trkpt lat="46.68419" lon="6.1461">
        <ele>986.6</ele>
        <time>2021-08-18T08:53:24Z</time>
      </trkpt>
      <trkpt lat="46.68417" lon="6.14602">
        <ele>986.7</ele>
        <time>2021-08-18T08:53:26Z</time>
      </trkpt>
      <trkpt lat="46.68415" lon="6.14598">
        <ele>986.7</ele>
        <time>2021-08-18T08:53:27Z</time>
      </trkpt>
      <trkpt lat="46.68412" lon="6.1459">
        <ele>986.8</ele>
        <time>2021-08-18T08:53:28Z</time>
      </trkpt>
      <trkpt lat="46.6841" lon="6.14586">
        <ele>986.8</ele>
        <time>2021-08-18T08:53:29Z</time>
      </trkpt>
      <trkpt lat="46.68407" lon="6.14582">
        <ele>986.9</ele>
        <time>2021-08-18T08:53:31Z</time>
      </trkpt>
      <trkpt lat="46.68405" lon="6.14578">
        <ele>986.9</ele>
        <time>2021-08-18T08:53:32Z</time>
      </trkpt>
      <trkpt lat="46.68402" lon="6.14573">
        <ele>986.9</ele>
        <time>2021-08-18T08:53:33Z</time>
      </trkpt>
      <trkpt lat="46.684" lon="6.1457">
        <ele>987</ele>
        <time>2021-08-18T08:53:34Z</time>
      </trkpt>
      <trkpt lat="46.68398" lon="6.14565">
        <ele>987</ele>
        <time>2021-08-18T08:53:35Z</time>
      </trkpt>
      <trkpt lat="46.68397" lon="6.14563">
        <ele>987</ele>
        <time>2021-08-18T08:53:36Z</time>
      </trkpt>
      <trkpt lat="46.68395" lon="6.14558">
        <ele>987.1</ele>
        <time>2021-08-18T08:53:38Z</time>
      </trkpt>
      <trkpt lat="46.68392" lon="6.14552">
        <ele>987.1</ele>
        <time>2021-08-18T08:53:39Z</time>
      </trkpt>
      <trkpt lat="46.68391" lon="6.14547">
        <ele>987.2</ele>
        <time>2021-08-18T08:53:41Z</time>
      </trkpt>
      <trkpt lat="46.68391" lon="6.14541">
        <ele>987.2</ele>
        <time>2021-08-18T08:53:42Z</time>
      </trkpt>
      <trkpt lat="46.6839" lon="6.14536">
        <ele>987.3</ele>
        <time>2021-08-18T08:53:43Z</time>
      </trkpt>
      <trkpt lat="46.68388" lon="6.14529">
        <ele>987.3</ele>
        <time>2021-08-18T08:53:45Z</time>
      </trkpt>
      <trkpt lat="46.68387" lon="6.14525">
        <ele>987.4</ele>
        <time>2021-08-18T08:53:46Z</time>
      </trkpt>
      <trkpt lat="46.68387" lon="6.1452">
        <ele>987.4</ele>
        <time>2021-08-18T08:53:47Z</time>
      </trkpt>
      <trkpt lat="46.68387" lon="6.14518">
        <ele>987.5</ele>
        <time>2021-08-18T08:53:48Z</time>
      </trkpt>
      <trkpt lat="46.68385" lon="6.14513">
        <ele>987.5</ele>
        <time>2021-08-18T08:53:49Z</time>
      </trkpt>
      <trkpt lat="46.68384" lon="6.14511">
        <ele>987.5</ele>
        <time>2021-08-18T08:53:50Z</time>
      </trkpt>
      <trkpt lat="46.68383" lon="6.14506">
        <ele>987.6</ele>
        <time>2021-08-18T08:53:51Z</time>
      </trkpt>
      <trkpt lat="46.68383" lon="6.14504">
        <ele>987.6</ele>
        <time>2021-08-18T08:53:52Z</time>
      </trkpt>
      <trkpt lat="46.68382" lon="6.145">
        <ele>987.7</ele>
        <time>2021-08-18T08:53:53Z</time>
      </trkpt>
      <trkpt lat="46.68381" lon="6.14495">
        <ele>987.7</ele>
        <time>2021-08-18T08:53:54Z</time>
      </trkpt>
      <trkpt lat="46.6838" lon="6.14491">
        <ele>987.7</ele>
        <time>2021-08-18T08:53:56Z</time>
      </trkpt>
      <trkpt lat="46.68378" lon="6.14484">
        <ele>987.8</ele>
        <time>2021-08-18T08:53:58Z</time>
      </trkpt>
      <trkpt lat="46.68376" lon="6.14478">
        <ele>987.9</ele>
        <time>2021-08-18T08:53:59Z</time>
      </trkpt>
      <trkpt lat="46.68375" lon="6.14472">
        <ele>987.9</ele>
        <time>2021-08-18T08:54:01Z</time>
      </trkpt>
      <trkpt lat="46.68374" lon="6.14468">
        <ele>987.9</ele>
        <time>2021-08-18T08:54:02Z</time>
      </trkpt>
      <trkpt lat="46.68372" lon="6.1446">
        <ele>988</ele>
        <time>2021-08-18T08:54:04Z</time>
      </trkpt>
      <trkpt lat="46.68371" lon="6.14454">
        <ele>988</ele>
        <time>2021-08-18T08:54:05Z</time>
      </trkpt>
      <trkpt lat="46.68371" lon="6.14449">
        <ele>988</ele>
        <time>2021-08-18T08:54:06Z</time>
      </trkpt>
      <trkpt lat="46.68369" lon="6.14442">
        <ele>988.1</ele>
        <time>2021-08-18T08:54:07Z</time>
      </trkpt>
      <trkpt lat="46.68368" lon="6.14435">
        <ele>988.1</ele>
        <time>2021-08-18T08:54:08Z</time>
      </trkpt>
      <trkpt lat="46.68365" lon="6.1443">
        <ele>988.1</ele>
        <time>2021-08-18T08:54:10Z</time>
      </trkpt>
      <trkpt lat="46.68363" lon="6.14425">
        <ele>988.2</ele>
        <time>2021-08-18T08:54:11Z</time>
      </trkpt>
      <trkpt lat="46.68361" lon="6.14421">
        <ele>988.2</ele>
        <time>2021-08-18T08:54:12Z</time>
      </trkpt>
      <trkpt lat="46.68358" lon="6.14412">
        <ele>988.4</ele>
        <time>2021-08-18T08:54:14Z</time>
      </trkpt>
      <trkpt lat="46.68355" lon="6.14404">
        <ele>988.5</ele>
        <time>2021-08-18T08:54:16Z</time>
      </trkpt>
      <trkpt lat="46.68353" lon="6.14398">
        <ele>988.6</ele>
        <time>2021-08-18T08:54:17Z</time>
      </trkpt>
      <trkpt lat="46.6835" lon="6.14392">
        <ele>988.8</ele>
        <time>2021-08-18T08:54:19Z</time>
      </trkpt>
      <trkpt lat="46.6835" lon="6.1439">
        <ele>988.9</ele>
        <time>2021-08-18T08:54:20Z</time>
      </trkpt>
      <trkpt lat="46.68349" lon="6.14387">
        <ele>989</ele>
        <time>2021-08-18T08:54:21Z</time>
      </trkpt>
      <trkpt lat="46.68348" lon="6.14381">
        <ele>989.2</ele>
        <time>2021-08-18T08:54:22Z</time>
      </trkpt>
      <trkpt lat="46.68347" lon="6.14375">
        <ele>989.5</ele>
        <time>2021-08-18T08:54:24Z</time>
      </trkpt>
      <trkpt lat="46.68348" lon="6.14374">
        <ele>989.6</ele>
        <time>2021-08-18T08:54:25Z</time>
      </trkpt>
      <trkpt lat="46.68347" lon="6.14368">
        <ele>989.9</ele>
        <time>2021-08-18T08:54:26Z</time>
      </trkpt>
      <trkpt lat="46.68345" lon="6.14365">
        <ele>990.1</ele>
        <time>2021-08-18T08:54:28Z</time>
      </trkpt>
      <trkpt lat="46.68345" lon="6.14361">
        <ele>990.3</ele>
        <time>2021-08-18T08:54:30Z</time>
      </trkpt>
      <trkpt lat="46.68345" lon="6.14358">
        <ele>990.5</ele>
        <time>2021-08-18T08:54:32Z</time>
      </trkpt>
      <trkpt lat="46.68345" lon="6.14354">
        <ele>990.8</ele>
        <time>2021-08-18T08:54:34Z</time>
      </trkpt>
      <trkpt lat="46.68346" lon="6.14352">
        <ele>991</ele>
        <time>2021-08-18T08:54:35Z</time>
      </trkpt>
      <trkpt lat="46.68346" lon="6.14351">
        <ele>991.1</ele>
        <time>2021-08-18T08:54:36Z</time>
      </trkpt>
      <trkpt lat="46.68346" lon="6.14349">
        <ele>991.2</ele>
        <time>2021-08-18T08:54:37Z</time>
      </trkpt>
      <trkpt lat="46.68346" lon="6.14348">
        <ele>991.3</ele>
        <time>2021-08-18T08:54:39Z</time>
      </trkpt>
      <trkpt lat="46.68346" lon="6.14347">
        <ele>991.3</ele>
        <time>2021-08-18T08:54:40Z</time>
      </trkpt>
      <trkpt lat="46.68346" lon="6.14343">
        <ele>991.7</ele>
        <time>2021-08-18T08:54:42Z</time>
      </trkpt>
      <trkpt lat="46.68346" lon="6.14342">
        <ele>991.7</ele>
        <time>2021-08-18T08:54:43Z</time>
      </trkpt>
      <trkpt lat="46.68346" lon="6.14341">
        <ele>991.8</ele>
        <time>2021-08-18T08:54:44Z</time>
      </trkpt>
      <trkpt lat="46.68345" lon="6.14338">
        <ele>992.1</ele>
        <time>2021-08-18T08:54:46Z</time>
      </trkpt>
      <trkpt lat="46.68346" lon="6.14334">
        <ele>992.4</ele>
        <time>2021-08-18T08:54:47Z</time>
      </trkpt>
      <trkpt lat="46.68346" lon="6.14331">
        <ele>992.7</ele>
        <time>2021-08-18T08:54:49Z</time>
      </trkpt>
      <trkpt lat="46.68346" lon="6.14328">
        <ele>992.9</ele>
        <time>2021-08-18T08:54:50Z</time>
      </trkpt>
      <trkpt lat="46.68346" lon="6.14326">
        <ele>993.1</ele>
        <time>2021-08-18T08:54:51Z</time>
      </trkpt>
      <trkpt lat="46.68346" lon="6.14325">
        <ele>993.2</ele>
        <time>2021-08-18T08:54:52Z</time>
      </trkpt>
      <trkpt lat="46.68346" lon="6.14322">
        <ele>993.5</ele>
        <time>2021-08-18T08:54:53Z</time>
      </trkpt>
      <trkpt lat="46.68346" lon="6.14321">
        <ele>993.6</ele>
        <time>2021-08-18T08:54:54Z</time>
      </trkpt>
      <trkpt lat="46.68346" lon="6.1432">
        <ele>993.7</ele>
        <time>2021-08-18T08:54:56Z</time>
      </trkpt>
      <trkpt lat="46.68345" lon="6.14319">
        <ele>993.8</ele>
        <time>2021-08-18T08:54:57Z</time>
      </trkpt>
      <trkpt lat="46.68345" lon="6.14317">
        <ele>993.9</ele>
        <time>2021-08-18T08:54:59Z</time>
      </trkpt>
      <trkpt lat="46.68345" lon="6.14317">
        <ele>994</ele>
        <time>2021-08-18T08:55:00Z</time>
      </trkpt>
      <trkpt lat="46.68345" lon="6.14316">
        <ele>994.1</ele>
        <time>2021-08-18T08:55:01Z</time>
      </trkpt>
      <trkpt lat="46.68344" lon="6.14315">
        <ele>994.2</ele>
        <time>2021-08-18T08:55:02Z</time>
      </trkpt>
      <trkpt lat="46.68343" lon="6.1431">
        <ele>994.7</ele>
        <time>2021-08-18T08:55:04Z</time>
      </trkpt>
      <trkpt lat="46.68343" lon="6.14309">
        <ele>994.8</ele>
        <time>2021-08-18T08:55:05Z</time>
      </trkpt>
      <trkpt lat="46.68341" lon="6.14306">
        <ele>995.2</ele>
        <time>2021-08-18T08:55:06Z</time>
      </trkpt>
      <trkpt lat="46.6834" lon="6.14302">
        <ele>995.7</ele>
        <time>2021-08-18T08:55:08Z</time>
      </trkpt>
      <trkpt lat="46.6834" lon="6.14301">
        <ele>995.8</ele>
        <time>2021-08-18T08:55:09Z</time>
      </trkpt>
      <trkpt lat="46.68339" lon="6.14298">
        <ele>996.1</ele>
        <time>2021-08-18T08:55:10Z</time>
      </trkpt>
      <trkpt lat="46.68339" lon="6.14295">
        <ele>996.4</ele>
        <time>2021-08-18T08:55:12Z</time>
      </trkpt>
      <trkpt lat="46.68339" lon="6.14289">
        <ele>996.9</ele>
        <time>2021-08-18T08:55:14Z</time>
      </trkpt>
      <trkpt lat="46.68339" lon="6.14287">
        <ele>997.1</ele>
        <time>2021-08-18T08:55:15Z</time>
      </trkpt>
      <trkpt lat="46.68339" lon="6.14283">
        <ele>997.5</ele>
        <time>2021-08-18T08:55:17Z</time>
      </trkpt>
      <trkpt lat="46.6834" lon="6.14281">
        <ele>997.6</ele>
        <time>2021-08-18T08:55:18Z</time>
      </trkpt>
      <trkpt lat="46.6834" lon="6.1428">
        <ele>997.7</ele>
        <time>2021-08-18T08:55:19Z</time>
      </trkpt>
      <trkpt lat="46.6834" lon="6.14278">
        <ele>998</ele>
        <time>2021-08-18T08:55:21Z</time>
      </trkpt>
      <trkpt lat="46.68339" lon="6.14276">
        <ele>998.2</ele>
        <time>2021-08-18T08:55:22Z</time>
      </trkpt>
      <trkpt lat="46.68338" lon="6.14274">
        <ele>998.4</ele>
        <time>2021-08-18T08:55:23Z</time>
      </trkpt>
      <trkpt lat="46.68337" lon="6.14269">
        <ele>998.8</ele>
        <time>2021-08-18T08:55:24Z</time>
      </trkpt>
      <trkpt lat="46.68336" lon="6.14267">
        <ele>999</ele>
        <time>2021-08-18T08:55:25Z</time>
      </trkpt>
      <trkpt lat="46.68335" lon="6.14264">
        <ele>999.3</ele>
        <time>2021-08-18T08:55:27Z</time>
      </trkpt>
      <trkpt lat="46.68335" lon="6.1426">
        <ele>999.6</ele>
        <time>2021-08-18T08:55:28Z</time>
      </trkpt>
      <trkpt lat="46.68335" lon="6.14258">
        <ele>999.8</ele>
        <time>2021-08-18T08:55:29Z</time>
      </trkpt>
      <trkpt lat="46.68335" lon="6.14256">
        <ele>999.9</ele>
        <time>2021-08-18T08:55:31Z</time>
      </trkpt>
      <trkpt lat="46.68335" lon="6.14254">
        <ele>1000.1</ele>
        <time>2021-08-18T08:55:32Z</time>
      </trkpt>
      <trkpt lat="46.68334" lon="6.14251">
        <ele>1000.3</ele>
        <time>2021-08-18T08:55:33Z</time>
      </trkpt>
      <trkpt lat="46.68333" lon="6.1425">
        <ele>1000.4</ele>
        <time>2021-08-18T08:55:34Z</time>
      </trkpt>
      <trkpt lat="46.68332" lon="6.14245">
        <ele>1000.8</ele>
        <time>2021-08-18T08:55:35Z</time>
      </trkpt>
      <trkpt lat="46.68332" lon="6.14244">
        <ele>1000.9</ele>
        <time>2021-08-18T08:55:37Z</time>
      </trkpt>
      <trkpt lat="46.68331" lon="6.14242">
        <ele>1001</ele>
        <time>2021-08-18T08:55:38Z</time>
      </trkpt>
      <trkpt lat="46.68331" lon="6.14241">
        <ele>1001.1</ele>
        <time>2021-08-18T08:55:39Z</time>
      </trkpt>
      <trkpt lat="46.68331" lon="6.14239">
        <ele>1001.2</ele>
        <time>2021-08-18T08:55:40Z</time>
      </trkpt>
      <trkpt lat="46.6833" lon="6.14237">
        <ele>1001.4</ele>
        <time>2021-08-18T08:55:41Z</time>
      </trkpt>
      <trkpt lat="46.6833" lon="6.14235">
        <ele>1001.5</ele>
        <time>2021-08-18T08:55:43Z</time>
      </trkpt>
      <trkpt lat="46.68329" lon="6.14234">
        <ele>1001.6</ele>
        <time>2021-08-18T08:55:44Z</time>
      </trkpt>
      <trkpt lat="46.68328" lon="6.14231">
        <ele>1001.7</ele>
        <time>2021-08-18T08:55:45Z</time>
      </trkpt>
      <trkpt lat="46.68328" lon="6.14229">
        <ele>1001.8</ele>
        <time>2021-08-18T08:55:47Z</time>
      </trkpt>
      <trkpt lat="46.68328" lon="6.14229">
        <ele>1001.8</ele>
        <time>2021-08-18T08:55:48Z</time>
      </trkpt>
      <trkpt lat="46.68328" lon="6.14227">
        <ele>1001.9</ele>
        <time>2021-08-18T08:55:49Z</time>
      </trkpt>
      <trkpt lat="46.68327" lon="6.14223">
        <ele>1002.1</ele>
        <time>2021-08-18T08:55:50Z</time>
      </trkpt>
      <trkpt lat="46.68327" lon="6.1422">
        <ele>1002.3</ele>
        <time>2021-08-18T08:55:52Z</time>
      </trkpt>
      <trkpt lat="46.68326" lon="6.14216">
        <ele>1002.4</ele>
        <time>2021-08-18T08:55:53Z</time>
      </trkpt>
      <trkpt lat="46.68325" lon="6.14213">
        <ele>1002.6</ele>
        <time>2021-08-18T08:55:54Z</time>
      </trkpt>
      <trkpt lat="46.68324" lon="6.1421">
        <ele>1002.7</ele>
        <time>2021-08-18T08:55:55Z</time>
      </trkpt>
      <trkpt lat="46.68324" lon="6.14206">
        <ele>1002.8</ele>
        <time>2021-08-18T08:56:04Z</time>
      </trkpt>
      <trkpt lat="46.68323" lon="6.14203">
        <ele>1003</ele>
        <time>2021-08-18T08:56:05Z</time>
      </trkpt>
      <trkpt lat="46.68322" lon="6.142">
        <ele>1003.1</ele>
        <time>2021-08-18T08:56:06Z</time>
      </trkpt>
      <trkpt lat="46.68321" lon="6.14196">
        <ele>1003.3</ele>
        <time>2021-08-18T08:56:08Z</time>
      </trkpt>
      <trkpt lat="46.6832" lon="6.14192">
        <ele>1003.4</ele>
        <time>2021-08-18T08:56:09Z</time>
      </trkpt>
      <trkpt lat="46.68319" lon="6.14189">
        <ele>1003.5</ele>
        <time>2021-08-18T08:56:10Z</time>
      </trkpt>
      <trkpt lat="46.68317" lon="6.14186">
        <ele>1003.6</ele>
        <time>2021-08-18T08:56:12Z</time>
      </trkpt>
      <trkpt lat="46.68316" lon="6.14183">
        <ele>1003.7</ele>
        <time>2021-08-18T08:56:13Z</time>
      </trkpt>
      <trkpt lat="46.68315" lon="6.14181">
        <ele>1003.8</ele>
        <time>2021-08-18T08:56:14Z</time>
      </trkpt>
      <trkpt lat="46.68316" lon="6.14176">
        <ele>1003.9</ele>
        <time>2021-08-18T08:56:15Z</time>
      </trkpt>
      <trkpt lat="46.68316" lon="6.14172">
        <ele>1004.1</ele>
        <time>2021-08-18T08:56:17Z</time>
      </trkpt>
      <trkpt lat="46.68317" lon="6.1417">
        <ele>1004.2</ele>
        <time>2021-08-18T08:56:18Z</time>
      </trkpt>
      <trkpt lat="46.68318" lon="6.14168">
        <ele>1004.3</ele>
        <time>2021-08-18T08:56:19Z</time>
      </trkpt>
      <trkpt lat="46.68318" lon="6.14165">
        <ele>1004.4</ele>
        <time>2021-08-18T08:56:20Z</time>
      </trkpt>
      <trkpt lat="46.6832" lon="6.1416">
        <ele>1004.6</ele>
        <time>2021-08-18T08:56:22Z</time>
      </trkpt>
      <trkpt lat="46.6832" lon="6.14155">
        <ele>1004.9</ele>
        <time>2021-08-18T08:56:23Z</time>
      </trkpt>
      <trkpt lat="46.6832" lon="6.14153">
        <ele>1004.9</ele>
        <time>2021-08-18T08:56:24Z</time>
      </trkpt>
      <trkpt lat="46.68321" lon="6.14149">
        <ele>1005.2</ele>
        <time>2021-08-18T08:56:26Z</time>
      </trkpt>
      <trkpt lat="46.68321" lon="6.14148">
        <ele>1005.2</ele>
        <time>2021-08-18T08:56:27Z</time>
      </trkpt>
      <trkpt lat="46.68321" lon="6.14146">
        <ele>1005.3</ele>
        <time>2021-08-18T08:56:29Z</time>
      </trkpt>
      <trkpt lat="46.68322" lon="6.14146">
        <ele>1005.3</ele>
        <time>2021-08-18T08:56:30Z</time>
      </trkpt>
      <trkpt lat="46.68322" lon="6.14146">
        <ele>1005.4</ele>
        <time>2021-08-18T08:56:31Z</time>
      </trkpt>
      <trkpt lat="46.68322" lon="6.14146">
        <ele>1005.4</ele>
        <time>2021-08-18T08:56:32Z</time>
      </trkpt>
      <trkpt lat="46.68321" lon="6.14146">
        <ele>1005.4</ele>
        <time>2021-08-18T08:56:33Z</time>
      </trkpt>
      <trkpt lat="46.68321" lon="6.14145">
        <ele>1005.4</ele>
        <time>2021-08-18T08:56:35Z</time>
      </trkpt>
      <trkpt lat="46.68321" lon="6.14145">
        <ele>1005.4</ele>
        <time>2021-08-18T08:56:36Z</time>
      </trkpt>
      <trkpt lat="46.68321" lon="6.14145">
        <ele>1005.4</ele>
        <time>2021-08-18T08:56:38Z</time>
      </trkpt>
      <trkpt lat="46.68321" lon="6.14145">
        <ele>1005.4</ele>
        <time>2021-08-18T08:56:39Z</time>
      </trkpt>
      <trkpt lat="46.6832" lon="6.1413">
        <ele>1006</ele>
        <time>2021-08-18T08:56:56Z</time>
      </trkpt>
      <trkpt lat="46.68319" lon="6.14128">
        <ele>1006.1</ele>
        <time>2021-08-18T08:56:58Z</time>
      </trkpt>
      <trkpt lat="46.68319" lon="6.14126">
        <ele>1006.2</ele>
        <time>2021-08-18T08:56:59Z</time>
      </trkpt>
      <trkpt lat="46.68319" lon="6.14124">
        <ele>1006.2</ele>
        <time>2021-08-18T08:57:01Z</time>
      </trkpt>
      <trkpt lat="46.68319" lon="6.14123">
        <ele>1006.2</ele>
        <time>2021-08-18T08:57:02Z</time>
      </trkpt>
      <trkpt lat="46.68319" lon="6.14122">
        <ele>1006.2</ele>
        <time>2021-08-18T08:57:03Z</time>
      </trkpt>
      <trkpt lat="46.68319" lon="6.14122">
        <ele>1006.2</ele>
        <time>2021-08-18T08:57:04Z</time>
      </trkpt>
      <trkpt lat="46.68319" lon="6.14121">
        <ele>1006.3</ele>
        <time>2021-08-18T08:57:06Z</time>
      </trkpt>
      <trkpt lat="46.68319" lon="6.1412">
        <ele>1006.3</ele>
        <time>2021-08-18T08:57:09Z</time>
      </trkpt>
      <trkpt lat="46.68319" lon="6.14118">
        <ele>1006.3</ele>
        <time>2021-08-18T08:57:10Z</time>
      </trkpt>
      <trkpt lat="46.68319" lon="6.14116">
        <ele>1006.3</ele>
        <time>2021-08-18T08:57:11Z</time>
      </trkpt>
      <trkpt lat="46.68319" lon="6.14115">
        <ele>1006.4</ele>
        <time>2021-08-18T08:57:12Z</time>
      </trkpt>
      <trkpt lat="46.68319" lon="6.14112">
        <ele>1006.4</ele>
        <time>2021-08-18T08:57:13Z</time>
      </trkpt>
      <trkpt lat="46.68319" lon="6.14105">
        <ele>1006.4</ele>
        <time>2021-08-18T08:57:15Z</time>
      </trkpt>
      <trkpt lat="46.68317" lon="6.141">
        <ele>1006.5</ele>
        <time>2021-08-18T08:57:17Z</time>
      </trkpt>
      <trkpt lat="46.68316" lon="6.14096">
        <ele>1006.5</ele>
        <time>2021-08-18T08:57:18Z</time>
      </trkpt>
      <trkpt lat="46.68314" lon="6.1409">
        <ele>1006.5</ele>
        <time>2021-08-18T08:57:19Z</time>
      </trkpt>
      <trkpt lat="46.68313" lon="6.14083">
        <ele>1006.6</ele>
        <time>2021-08-18T08:57:20Z</time>
      </trkpt>
      <trkpt lat="46.68312" lon="6.14076">
        <ele>1006.6</ele>
        <time>2021-08-18T08:57:22Z</time>
      </trkpt>
      <trkpt lat="46.68312" lon="6.14071">
        <ele>1006.6</ele>
        <time>2021-08-18T08:57:24Z</time>
      </trkpt>
      <trkpt lat="46.68311" lon="6.14064">
        <ele>1006.6</ele>
        <time>2021-08-18T08:57:25Z</time>
      </trkpt>
      <trkpt lat="46.68311" lon="6.14059">
        <ele>1006.7</ele>
        <time>2021-08-18T08:57:27Z</time>
      </trkpt>
      <trkpt lat="46.6831" lon="6.14055">
        <ele>1006.7</ele>
        <time>2021-08-18T08:57:28Z</time>
      </trkpt>
      <trkpt lat="46.68309" lon="6.14048">
        <ele>1006.7</ele>
        <time>2021-08-18T08:57:29Z</time>
      </trkpt>
      <trkpt lat="46.68308" lon="6.14044">
        <ele>1006.7</ele>
        <time>2021-08-18T08:57:30Z</time>
      </trkpt>
      <trkpt lat="46.68307" lon="6.14039">
        <ele>1006.8</ele>
        <time>2021-08-18T08:57:31Z</time>
      </trkpt>
      <trkpt lat="46.68307" lon="6.14035">
        <ele>1006.8</ele>
        <time>2021-08-18T08:57:32Z</time>
      </trkpt>
      <trkpt lat="46.68306" lon="6.1403">
        <ele>1006.8</ele>
        <time>2021-08-18T08:57:33Z</time>
      </trkpt>
      <trkpt lat="46.68306" lon="6.14025">
        <ele>1006.8</ele>
        <time>2021-08-18T08:57:34Z</time>
      </trkpt>
      <trkpt lat="46.68305" lon="6.1402">
        <ele>1006.8</ele>
        <time>2021-08-18T08:57:36Z</time>
      </trkpt>
      <trkpt lat="46.68303" lon="6.14014">
        <ele>1006.8</ele>
        <time>2021-08-18T08:57:37Z</time>
      </trkpt>
      <trkpt lat="46.68301" lon="6.14006">
        <ele>1006.8</ele>
        <time>2021-08-18T08:57:39Z</time>
      </trkpt>
      <trkpt lat="46.68298" lon="6.13998">
        <ele>1006.8</ele>
        <time>2021-08-18T08:57:40Z</time>
      </trkpt>
      <trkpt lat="46.68297" lon="6.13992">
        <ele>1006.8</ele>
        <time>2021-08-18T08:57:41Z</time>
      </trkpt>
      <trkpt lat="46.68294" lon="6.13985">
        <ele>1006.7</ele>
        <time>2021-08-18T08:57:43Z</time>
      </trkpt>
      <trkpt lat="46.68292" lon="6.13976">
        <ele>1006.6</ele>
        <time>2021-08-18T08:57:44Z</time>
      </trkpt>
      <trkpt lat="46.68289" lon="6.13968">
        <ele>1006.5</ele>
        <time>2021-08-18T08:57:46Z</time>
      </trkpt>
      <trkpt lat="46.68284" lon="6.13956">
        <ele>1006.4</ele>
        <time>2021-08-18T08:57:48Z</time>
      </trkpt>
      <trkpt lat="46.68282" lon="6.1395">
        <ele>1006.3</ele>
        <time>2021-08-18T08:57:49Z</time>
      </trkpt>
      <trkpt lat="46.68278" lon="6.13946">
        <ele>1006.3</ele>
        <time>2021-08-18T08:57:50Z</time>
      </trkpt>
      <trkpt lat="46.68274" lon="6.13938">
        <ele>1006.4</ele>
        <time>2021-08-18T08:57:52Z</time>
      </trkpt>
      <trkpt lat="46.6827" lon="6.13928">
        <ele>1006.5</ele>
        <time>2021-08-18T08:57:53Z</time>
      </trkpt>
      <trkpt lat="46.68267" lon="6.13919">
        <ele>1006.7</ele>
        <time>2021-08-18T08:57:55Z</time>
      </trkpt>
      <trkpt lat="46.68263" lon="6.13912">
        <ele>1007</ele>
        <time>2021-08-18T08:57:57Z</time>
      </trkpt>
      <trkpt lat="46.6826" lon="6.13904">
        <ele>1007.3</ele>
        <time>2021-08-18T08:57:58Z</time>
      </trkpt>
      <trkpt lat="46.68259" lon="6.13899">
        <ele>1007.5</ele>
        <time>2021-08-18T08:58:00Z</time>
      </trkpt>
      <trkpt lat="46.68258" lon="6.13895">
        <ele>1007.7</ele>
        <time>2021-08-18T08:58:01Z</time>
      </trkpt>
      <trkpt lat="46.68256" lon="6.13889">
        <ele>1008</ele>
        <time>2021-08-18T08:58:03Z</time>
      </trkpt>
      <trkpt lat="46.68252" lon="6.13884">
        <ele>1008.3</ele>
        <time>2021-08-18T08:58:05Z</time>
      </trkpt>
      <trkpt lat="46.68251" lon="6.13879">
        <ele>1008.4</ele>
        <time>2021-08-18T08:58:06Z</time>
      </trkpt>
      <trkpt lat="46.68249" lon="6.13876">
        <ele>1008.6</ele>
        <time>2021-08-18T08:58:07Z</time>
      </trkpt>
      <trkpt lat="46.68247" lon="6.13871">
        <ele>1008.7</ele>
        <time>2021-08-18T08:58:09Z</time>
      </trkpt>
      <trkpt lat="46.68247" lon="6.13867">
        <ele>1008.8</ele>
        <time>2021-08-18T08:58:10Z</time>
      </trkpt>
      <trkpt lat="46.68246" lon="6.13863">
        <ele>1008.9</ele>
        <time>2021-08-18T08:58:11Z</time>
      </trkpt>
      <trkpt lat="46.68247" lon="6.13858">
        <ele>1009</ele>
        <time>2021-08-18T08:58:12Z</time>
      </trkpt>
      <trkpt lat="46.68246" lon="6.13853">
        <ele>1009</ele>
        <time>2021-08-18T08:58:13Z</time>
      </trkpt>
      <trkpt lat="46.68246" lon="6.13846">
        <ele>1009.1</ele>
        <time>2021-08-18T08:58:15Z</time>
      </trkpt>
      <trkpt lat="46.68245" lon="6.13841">
        <ele>1009.1</ele>
        <time>2021-08-18T08:58:16Z</time>
      </trkpt>
      <trkpt lat="46.68244" lon="6.13837">
        <ele>1009.1</ele>
        <time>2021-08-18T08:58:17Z</time>
      </trkpt>
      <trkpt lat="46.68243" lon="6.13831">
        <ele>1009.1</ele>
        <time>2021-08-18T08:58:18Z</time>
      </trkpt>
      <trkpt lat="46.68242" lon="6.13826">
        <ele>1009</ele>
        <time>2021-08-18T08:58:19Z</time>
      </trkpt>
      <trkpt lat="46.6824" lon="6.1382">
        <ele>1009</ele>
        <time>2021-08-18T08:58:20Z</time>
      </trkpt>
      <trkpt lat="46.68239" lon="6.13814">
        <ele>1008.9</ele>
        <time>2021-08-18T08:58:21Z</time>
      </trkpt>
      <trkpt lat="46.68238" lon="6.13809">
        <ele>1008.8</ele>
        <time>2021-08-18T08:58:22Z</time>
      </trkpt>
      <trkpt lat="46.68236" lon="6.138">
        <ele>1008.7</ele>
        <time>2021-08-18T08:58:24Z</time>
      </trkpt>
      <trkpt lat="46.68233" lon="6.13792">
        <ele>1008.5</ele>
        <time>2021-08-18T08:58:25Z</time>
      </trkpt>
      <trkpt lat="46.6823" lon="6.13784">
        <ele>1008.4</ele>
        <time>2021-08-18T08:58:27Z</time>
      </trkpt>
      <trkpt lat="46.68228" lon="6.13776">
        <ele>1008.2</ele>
        <time>2021-08-18T08:58:28Z</time>
      </trkpt>
      <trkpt lat="46.68222" lon="6.13764">
        <ele>1007.8</ele>
        <time>2021-08-18T08:58:30Z</time>
      </trkpt>
      <trkpt lat="46.68214" lon="6.13752">
        <ele>1007.2</ele>
        <time>2021-08-18T08:58:32Z</time>
      </trkpt>
      <trkpt lat="46.68203" lon="6.13741">
        <ele>1006.6</ele>
        <time>2021-08-18T08:58:34Z</time>
      </trkpt>
      <trkpt lat="46.68198" lon="6.13736">
        <ele>1006.3</ele>
        <time>2021-08-18T08:58:35Z</time>
      </trkpt>
      <trkpt lat="46.68193" lon="6.13731">
        <ele>1006</ele>
        <time>2021-08-18T08:58:36Z</time>
      </trkpt>
      <trkpt lat="46.68183" lon="6.1372">
        <ele>1005.4</ele>
        <time>2021-08-18T08:58:38Z</time>
      </trkpt>
      <trkpt lat="46.68174" lon="6.13706">
        <ele>1004.6</ele>
        <time>2021-08-18T08:58:40Z</time>
      </trkpt>
      <trkpt lat="46.68165" lon="6.13692">
        <ele>1003.6</ele>
        <time>2021-08-18T08:58:42Z</time>
      </trkpt>
      <trkpt lat="46.68156" lon="6.13675">
        <ele>1002.5</ele>
        <time>2021-08-18T08:58:44Z</time>
      </trkpt>
      <trkpt lat="46.68152" lon="6.13667">
        <ele>1001.8</ele>
        <time>2021-08-18T08:58:45Z</time>
      </trkpt>
      <trkpt lat="46.68147" lon="6.13659">
        <ele>1001.2</ele>
        <time>2021-08-18T08:58:46Z</time>
      </trkpt>
      <trkpt lat="46.68139" lon="6.13642">
        <ele>1000</ele>
        <time>2021-08-18T08:58:48Z</time>
      </trkpt>
      <trkpt lat="46.68135" lon="6.13634">
        <ele>999.4</ele>
        <time>2021-08-18T08:58:49Z</time>
      </trkpt>
      <trkpt lat="46.68127" lon="6.13618">
        <ele>998.3</ele>
        <time>2021-08-18T08:58:51Z</time>
      </trkpt>
      <trkpt lat="46.68119" lon="6.13601">
        <ele>997.3</ele>
        <time>2021-08-18T08:58:53Z</time>
      </trkpt>
      <trkpt lat="46.68115" lon="6.13592">
        <ele>996.9</ele>
        <time>2021-08-18T08:58:54Z</time>
      </trkpt>
      <trkpt lat="46.68111" lon="6.13582">
        <ele>996.6</ele>
        <time>2021-08-18T08:58:55Z</time>
      </trkpt>
      <trkpt lat="46.68106" lon="6.13565">
        <ele>996.1</ele>
        <time>2021-08-18T08:58:57Z</time>
      </trkpt>
      <trkpt lat="46.68103" lon="6.13555">
        <ele>995.6</ele>
        <time>2021-08-18T08:58:58Z</time>
      </trkpt>
      <trkpt lat="46.68097" lon="6.13535">
        <ele>994.8</ele>
        <time>2021-08-18T08:59:00Z</time>
      </trkpt>
      <trkpt lat="46.68093" lon="6.13526">
        <ele>994.5</ele>
        <time>2021-08-18T08:59:01Z</time>
      </trkpt>
      <trkpt lat="46.68086" lon="6.13507">
        <ele>994.1</ele>
        <time>2021-08-18T08:59:03Z</time>
      </trkpt>
      <trkpt lat="46.68083" lon="6.13498">
        <ele>993.9</ele>
        <time>2021-08-18T08:59:04Z</time>
      </trkpt>
      <trkpt lat="46.68078" lon="6.1348">
        <ele>993.6</ele>
        <time>2021-08-18T08:59:06Z</time>
      </trkpt>
      <trkpt lat="46.68076" lon="6.13471">
        <ele>993.5</ele>
        <time>2021-08-18T08:59:07Z</time>
      </trkpt>
      <trkpt lat="46.68074" lon="6.13464">
        <ele>993.4</ele>
        <time>2021-08-18T08:59:08Z</time>
      </trkpt>
      <trkpt lat="46.68072" lon="6.1345">
        <ele>993.3</ele>
        <time>2021-08-18T08:59:10Z</time>
      </trkpt>
      <trkpt lat="46.68071" lon="6.13446">
        <ele>993.5</ele>
        <time>2021-08-18T08:59:11Z</time>
      </trkpt>
      <trkpt lat="46.68067" lon="6.13437">
        <ele>993.7</ele>
        <time>2021-08-18T08:59:13Z</time>
      </trkpt>
      <trkpt lat="46.68065" lon="6.13432">
        <ele>993.8</ele>
        <time>2021-08-18T08:59:14Z</time>
      </trkpt>
      <trkpt lat="46.68065" lon="6.1343">
        <ele>993.8</ele>
        <time>2021-08-18T08:59:16Z</time>
      </trkpt>
      <trkpt lat="46.68065" lon="6.1343">
        <ele>993.8</ele>
        <time>2021-08-18T08:59:17Z</time>
      </trkpt>
      <trkpt lat="46.68065" lon="6.1343">
        <ele>993.8</ele>
        <time>2021-08-18T08:59:19Z</time>
      </trkpt>
      <trkpt lat="46.68065" lon="6.13429">
        <ele>993.8</ele>
        <time>2021-08-18T08:59:21Z</time>
      </trkpt>
      <trkpt lat="46.68064" lon="6.13421">
        <ele>993.9</ele>
        <time>2021-08-18T08:59:23Z</time>
      </trkpt>
      <trkpt lat="46.68063" lon="6.13417">
        <ele>994</ele>
        <time>2021-08-18T08:59:24Z</time>
      </trkpt>
      <trkpt lat="46.68063" lon="6.13416">
        <ele>994</ele>
        <time>2021-08-18T08:59:25Z</time>
      </trkpt>
      <trkpt lat="46.6806" lon="6.1341">
        <ele>994.1</ele>
        <time>2021-08-18T08:59:27Z</time>
      </trkpt>
      <trkpt lat="46.68059" lon="6.13409">
        <ele>994.1</ele>
        <time>2021-08-18T08:59:28Z</time>
      </trkpt>
      <trkpt lat="46.68058" lon="6.13408">
        <ele>994.1</ele>
        <time>2021-08-18T08:59:29Z</time>
      </trkpt>
      <trkpt lat="46.68055" lon="6.13403">
        <ele>994.1</ele>
        <time>2021-08-18T08:59:31Z</time>
      </trkpt>
      <trkpt lat="46.68054" lon="6.13402">
        <ele>994.1</ele>
        <time>2021-08-18T08:59:32Z</time>
      </trkpt>
      <trkpt lat="46.68052" lon="6.13398">
        <ele>994.2</ele>
        <time>2021-08-18T08:59:33Z</time>
      </trkpt>
      <trkpt lat="46.68051" lon="6.13397">
        <ele>994.2</ele>
        <time>2021-08-18T08:59:34Z</time>
      </trkpt>
      <trkpt lat="46.6805" lon="6.13395">
        <ele>994.2</ele>
        <time>2021-08-18T08:59:35Z</time>
      </trkpt>
      <trkpt lat="46.68046" lon="6.1339">
        <ele>994.2</ele>
        <time>2021-08-18T08:59:37Z</time>
      </trkpt>
      <trkpt lat="46.68043" lon="6.13386">
        <ele>994.1</ele>
        <time>2021-08-18T08:59:38Z</time>
      </trkpt>
      <trkpt lat="46.68042" lon="6.13385">
        <ele>994.1</ele>
        <time>2021-08-18T08:59:39Z</time>
      </trkpt>
      <trkpt lat="46.68039" lon="6.13382">
        <ele>994.1</ele>
        <time>2021-08-18T08:59:41Z</time>
      </trkpt>
      <trkpt lat="46.68034" lon="6.13379">
        <ele>994</ele>
        <time>2021-08-18T08:59:43Z</time>
      </trkpt>
      <trkpt lat="46.68031" lon="6.13375">
        <ele>994</ele>
        <time>2021-08-18T08:59:45Z</time>
      </trkpt>
      <trkpt lat="46.68028" lon="6.13374">
        <ele>993.9</ele>
        <time>2021-08-18T08:59:46Z</time>
      </trkpt>
      <trkpt lat="46.68025" lon="6.13372">
        <ele>993.9</ele>
        <time>2021-08-18T08:59:47Z</time>
      </trkpt>
      <trkpt lat="46.68022" lon="6.1337">
        <ele>993.8</ele>
        <time>2021-08-18T08:59:48Z</time>
      </trkpt>
      <trkpt lat="46.6802" lon="6.13369">
        <ele>993.8</ele>
        <time>2021-08-18T08:59:49Z</time>
      </trkpt>
      <trkpt lat="46.68015" lon="6.13366">
        <ele>993.6</ele>
        <time>2021-08-18T08:59:51Z</time>
      </trkpt>
      <trkpt lat="46.68012" lon="6.13362">
        <ele>993.6</ele>
        <time>2021-08-18T08:59:52Z</time>
      </trkpt>
      <trkpt lat="46.68008" lon="6.13356">
        <ele>993.4</ele>
        <time>2021-08-18T08:59:53Z</time>
      </trkpt>
      <trkpt lat="46.68005" lon="6.13353">
        <ele>993.3</ele>
        <time>2021-08-18T08:59:55Z</time>
      </trkpt>
      <trkpt lat="46.68004" lon="6.13352">
        <ele>993.3</ele>
        <time>2021-08-18T08:59:56Z</time>
      </trkpt>
      <trkpt lat="46.68002" lon="6.13351">
        <ele>993.3</ele>
        <time>2021-08-18T08:59:57Z</time>
      </trkpt>
      <trkpt lat="46.68003" lon="6.13351">
        <ele>993.3</ele>
        <time>2021-08-18T08:59:58Z</time>
      </trkpt>
      <trkpt lat="46.68002" lon="6.13349">
        <ele>993.3</ele>
        <time>2021-08-18T09:00:00Z</time>
      </trkpt>
      <trkpt lat="46.68001" lon="6.13347">
        <ele>993.2</ele>
        <time>2021-08-18T09:00:02Z</time>
      </trkpt>
      <trkpt lat="46.68001" lon="6.13345">
        <ele>993.2</ele>
        <time>2021-08-18T09:00:04Z</time>
      </trkpt>
      <trkpt lat="46.68" lon="6.13343">
        <ele>993.2</ele>
        <time>2021-08-18T09:00:05Z</time>
      </trkpt>
      <trkpt lat="46.67999" lon="6.13342">
        <ele>993.2</ele>
        <time>2021-08-18T09:00:07Z</time>
      </trkpt>
      <trkpt lat="46.67998" lon="6.1334">
        <ele>993.1</ele>
        <time>2021-08-18T09:00:17Z</time>
      </trkpt>
      <trkpt lat="46.67997" lon="6.13338">
        <ele>993.1</ele>
        <time>2021-08-18T09:00:18Z</time>
      </trkpt>
      <trkpt lat="46.67988" lon="6.13323">
        <ele>992.9</ele>
        <time>2021-08-18T09:00:19Z</time>
      </trkpt>
      <trkpt lat="46.67983" lon="6.13314">
        <ele>992.8</ele>
        <time>2021-08-18T09:00:20Z</time>
      </trkpt>
      <trkpt lat="46.67977" lon="6.13299">
        <ele>992.6</ele>
        <time>2021-08-18T09:00:22Z</time>
      </trkpt>
      <trkpt lat="46.67975" lon="6.1329">
        <ele>992.6</ele>
        <time>2021-08-18T09:00:23Z</time>
      </trkpt>
      <trkpt lat="46.67973" lon="6.13284">
        <ele>992.5</ele>
        <time>2021-08-18T09:00:24Z</time>
      </trkpt>
      <trkpt lat="46.6797" lon="6.13276">
        <ele>992.4</ele>
        <time>2021-08-18T09:00:26Z</time>
      </trkpt>
      <trkpt lat="46.67967" lon="6.13272">
        <ele>992.4</ele>
        <time>2021-08-18T09:00:27Z</time>
      </trkpt>
      <trkpt lat="46.67964" lon="6.13273">
        <ele>992.4</ele>
        <time>2021-08-18T09:00:29Z</time>
      </trkpt>
      <trkpt lat="46.67956" lon="6.13276">
        <ele>992.3</ele>
        <time>2021-08-18T09:00:31Z</time>
      </trkpt>
      <trkpt lat="46.67951" lon="6.1328">
        <ele>992.2</ele>
        <time>2021-08-18T09:00:32Z</time>
      </trkpt>
      <trkpt lat="46.67947" lon="6.13286">
        <ele>992.1</ele>
        <time>2021-08-18T09:00:33Z</time>
      </trkpt>
      <trkpt lat="46.67938" lon="6.13297">
        <ele>992.1</ele>
        <time>2021-08-18T09:00:35Z</time>
      </trkpt>
      <trkpt lat="46.67935" lon="6.13301">
        <ele>992.1</ele>
        <time>2021-08-18T09:00:36Z</time>
      </trkpt>
      <trkpt lat="46.67929" lon="6.13308">
        <ele>992.1</ele>
        <time>2021-08-18T09:00:37Z</time>
      </trkpt>
      <trkpt lat="46.67923" lon="6.13314">
        <ele>992.1</ele>
        <time>2021-08-18T09:00:39Z</time>
      </trkpt>
      <trkpt lat="46.67918" lon="6.13323">
        <ele>992.1</ele>
        <time>2021-08-18T09:00:40Z</time>
      </trkpt>
      <trkpt lat="46.67915" lon="6.13329">
        <ele>992.1</ele>
        <time>2021-08-18T09:00:41Z</time>
      </trkpt>
      <trkpt lat="46.67912" lon="6.13336">
        <ele>992.1</ele>
        <time>2021-08-18T09:00:43Z</time>
      </trkpt>
      <trkpt lat="46.67908" lon="6.13342">
        <ele>992.1</ele>
        <time>2021-08-18T09:00:44Z</time>
      </trkpt>
      <trkpt lat="46.67904" lon="6.13347">
        <ele>992.1</ele>
        <time>2021-08-18T09:00:45Z</time>
      </trkpt>
      <trkpt lat="46.67899" lon="6.13351">
        <ele>992.1</ele>
        <time>2021-08-18T09:00:46Z</time>
      </trkpt>
      <trkpt lat="46.67893" lon="6.13357">
        <ele>992.1</ele>
        <time>2021-08-18T09:00:48Z</time>
      </trkpt>
      <trkpt lat="46.6789" lon="6.13361">
        <ele>992.1</ele>
        <time>2021-08-18T09:00:49Z</time>
      </trkpt>
      <trkpt lat="46.67887" lon="6.13367">
        <ele>992.1</ele>
        <time>2021-08-18T09:00:51Z</time>
      </trkpt>
      <trkpt lat="46.67886" lon="6.13369">
        <ele>992.1</ele>
        <time>2021-08-18T09:00:52Z</time>
      </trkpt>
      <trkpt lat="46.67885" lon="6.1337">
        <ele>992.1</ele>
        <time>2021-08-18T09:00:54Z</time>
      </trkpt>
      <trkpt lat="46.67886" lon="6.13368">
        <ele>992.1</ele>
        <time>2021-08-18T09:00:55Z</time>
      </trkpt>
      <trkpt lat="46.67887" lon="6.13367">
        <ele>992.1</ele>
        <time>2021-08-18T09:00:56Z</time>
      </trkpt>
      <trkpt lat="46.67888" lon="6.13367">
        <ele>992.1</ele>
        <time>2021-08-18T09:00:57Z</time>
      </trkpt>
      <trkpt lat="46.6789" lon="6.13368">
        <ele>992.1</ele>
        <time>2021-08-18T09:00:58Z</time>
      </trkpt>
      <trkpt lat="46.67891" lon="6.13369">
        <ele>992.1</ele>
        <time>2021-08-18T09:00:59Z</time>
      </trkpt>
      <trkpt lat="46.67891" lon="6.1337">
        <ele>992.1</ele>
        <time>2021-08-18T09:01:01Z</time>
      </trkpt>
      <trkpt lat="46.67892" lon="6.1337">
        <ele>992.1</ele>
        <time>2021-08-18T09:01:02Z</time>
      </trkpt>
      <trkpt lat="46.67889" lon="6.13374">
        <ele>992.2</ele>
        <time>2021-08-18T09:01:05Z</time>
      </trkpt>
      <trkpt lat="46.67886" lon="6.13392">
        <ele>992.2</ele>
        <time>2021-08-18T09:01:07Z</time>
      </trkpt>
      <trkpt lat="46.67884" lon="6.134">
        <ele>992.3</ele>
        <time>2021-08-18T09:01:08Z</time>
      </trkpt>
      <trkpt lat="46.67881" lon="6.13412">
        <ele>992.4</ele>
        <time>2021-08-18T09:01:10Z</time>
      </trkpt>
      <trkpt lat="46.67878" lon="6.13419">
        <ele>992.5</ele>
        <time>2021-08-18T09:01:11Z</time>
      </trkpt>
      <trkpt lat="46.67875" lon="6.13425">
        <ele>992.6</ele>
        <time>2021-08-18T09:01:12Z</time>
      </trkpt>
      <trkpt lat="46.67872" lon="6.13432">
        <ele>992.7</ele>
        <time>2021-08-18T09:01:13Z</time>
      </trkpt>
      <trkpt lat="46.6787" lon="6.13437">
        <ele>992.8</ele>
        <time>2021-08-18T09:01:14Z</time>
      </trkpt>
      <trkpt lat="46.67868" lon="6.13442">
        <ele>992.9</ele>
        <time>2021-08-18T09:01:15Z</time>
      </trkpt>
      <trkpt lat="46.67865" lon="6.13452">
        <ele>993.1</ele>
        <time>2021-08-18T09:01:17Z</time>
      </trkpt>
      <trkpt lat="46.67862" lon="6.13463">
        <ele>993.2</ele>
        <time>2021-08-18T09:01:19Z</time>
      </trkpt>
      <trkpt lat="46.67861" lon="6.13467">
        <ele>993.3</ele>
        <time>2021-08-18T09:01:20Z</time>
      </trkpt>
      <trkpt lat="46.67858" lon="6.13472">
        <ele>993.4</ele>
        <time>2021-08-18T09:01:21Z</time>
      </trkpt>
      <trkpt lat="46.67855" lon="6.13477">
        <ele>993.5</ele>
        <time>2021-08-18T09:01:22Z</time>
      </trkpt>
      <trkpt lat="46.67852" lon="6.13481">
        <ele>993.6</ele>
        <time>2021-08-18T09:01:23Z</time>
      </trkpt>
      <trkpt lat="46.6785" lon="6.13485">
        <ele>993.7</ele>
        <time>2021-08-18T09:01:24Z</time>
      </trkpt>
      <trkpt lat="46.67847" lon="6.13489">
        <ele>993.8</ele>
        <time>2021-08-18T09:01:26Z</time>
      </trkpt>
      <trkpt lat="46.67845" lon="6.13494">
        <ele>993.9</ele>
        <time>2021-08-18T09:01:27Z</time>
      </trkpt>
      <trkpt lat="46.67844" lon="6.13498">
        <ele>993.9</ele>
        <time>2021-08-18T09:01:28Z</time>
      </trkpt>
      <trkpt lat="46.67842" lon="6.13502">
        <ele>994</ele>
        <time>2021-08-18T09:01:29Z</time>
      </trkpt>
      <trkpt lat="46.67839" lon="6.13506">
        <ele>994.1</ele>
        <time>2021-08-18T09:01:30Z</time>
      </trkpt>
      <trkpt lat="46.67837" lon="6.1351">
        <ele>994.2</ele>
        <time>2021-08-18T09:01:31Z</time>
      </trkpt>
      <trkpt lat="46.67835" lon="6.13513">
        <ele>994.2</ele>
        <time>2021-08-18T09:01:32Z</time>
      </trkpt>
      <trkpt lat="46.67832" lon="6.13516">
        <ele>994.3</ele>
        <time>2021-08-18T09:01:33Z</time>
      </trkpt>
      <trkpt lat="46.67828" lon="6.13522">
        <ele>994.4</ele>
        <time>2021-08-18T09:01:35Z</time>
      </trkpt>
      <trkpt lat="46.67826" lon="6.13526">
        <ele>994.4</ele>
        <time>2021-08-18T09:01:36Z</time>
      </trkpt>
      <trkpt lat="46.67824" lon="6.1353">
        <ele>994.5</ele>
        <time>2021-08-18T09:01:37Z</time>
      </trkpt>
      <trkpt lat="46.67822" lon="6.13535">
        <ele>994.6</ele>
        <time>2021-08-18T09:01:38Z</time>
      </trkpt>
      <trkpt lat="46.67818" lon="6.13542">
        <ele>994.6</ele>
        <time>2021-08-18T09:01:40Z</time>
      </trkpt>
      <trkpt lat="46.67814" lon="6.13548">
        <ele>994.7</ele>
        <time>2021-08-18T09:01:42Z</time>
      </trkpt>
      <trkpt lat="46.67812" lon="6.13551">
        <ele>994.7</ele>
        <time>2021-08-18T09:01:43Z</time>
      </trkpt>
      <trkpt lat="46.6781" lon="6.13555">
        <ele>994.8</ele>
        <time>2021-08-18T09:01:44Z</time>
      </trkpt>
      <trkpt lat="46.67807" lon="6.13562">
        <ele>994.8</ele>
        <time>2021-08-18T09:01:46Z</time>
      </trkpt>
      <trkpt lat="46.67805" lon="6.13567">
        <ele>994.9</ele>
        <time>2021-08-18T09:01:47Z</time>
      </trkpt>
      <trkpt lat="46.67803" lon="6.13571">
        <ele>994.9</ele>
        <time>2021-08-18T09:01:48Z</time>
      </trkpt>
      <trkpt lat="46.67801" lon="6.13574">
        <ele>994.9</ele>
        <time>2021-08-18T09:01:49Z</time>
      </trkpt>
      <trkpt lat="46.67798" lon="6.13578">
        <ele>995</ele>
        <time>2021-08-18T09:01:50Z</time>
      </trkpt>
      <trkpt lat="46.67795" lon="6.13583">
        <ele>995</ele>
        <time>2021-08-18T09:01:51Z</time>
      </trkpt>
      <trkpt lat="46.67791" lon="6.13592">
        <ele>995.1</ele>
        <time>2021-08-18T09:01:53Z</time>
      </trkpt>
      <trkpt lat="46.6779" lon="6.13596">
        <ele>995.1</ele>
        <time>2021-08-18T09:01:54Z</time>
      </trkpt>
      <trkpt lat="46.67788" lon="6.13604">
        <ele>995.2</ele>
        <time>2021-08-18T09:01:56Z</time>
      </trkpt>
      <trkpt lat="46.67788" lon="6.13612">
        <ele>995.3</ele>
        <time>2021-08-18T09:01:57Z</time>
      </trkpt>
      <trkpt lat="46.67787" lon="6.13616">
        <ele>995.3</ele>
        <time>2021-08-18T09:01:58Z</time>
      </trkpt>
      <trkpt lat="46.67786" lon="6.13626">
        <ele>995.4</ele>
        <time>2021-08-18T09:02:00Z</time>
      </trkpt>
      <trkpt lat="46.67785" lon="6.13635">
        <ele>995.5</ele>
        <time>2021-08-18T09:02:02Z</time>
      </trkpt>
      <trkpt lat="46.67784" lon="6.13643">
        <ele>995.5</ele>
        <time>2021-08-18T09:02:04Z</time>
      </trkpt>
      <trkpt lat="46.6778" lon="6.13652">
        <ele>995.6</ele>
        <time>2021-08-18T09:02:06Z</time>
      </trkpt>
      <trkpt lat="46.67778" lon="6.13657">
        <ele>995.7</ele>
        <time>2021-08-18T09:02:07Z</time>
      </trkpt>
      <trkpt lat="46.67774" lon="6.13665">
        <ele>995.8</ele>
        <time>2021-08-18T09:02:09Z</time>
      </trkpt>
      <trkpt lat="46.67772" lon="6.13669">
        <ele>995.8</ele>
        <time>2021-08-18T09:02:10Z</time>
      </trkpt>
      <trkpt lat="46.67769" lon="6.13673">
        <ele>995.9</ele>
        <time>2021-08-18T09:02:11Z</time>
      </trkpt>
      <trkpt lat="46.67767" lon="6.13677">
        <ele>995.9</ele>
        <time>2021-08-18T09:02:12Z</time>
      </trkpt>
      <trkpt lat="46.67765" lon="6.13681">
        <ele>996</ele>
        <time>2021-08-18T09:02:13Z</time>
      </trkpt>
      <trkpt lat="46.67763" lon="6.13686">
        <ele>996</ele>
        <time>2021-08-18T09:02:14Z</time>
      </trkpt>
      <trkpt lat="46.67761" lon="6.13689">
        <ele>996.1</ele>
        <time>2021-08-18T09:02:15Z</time>
      </trkpt>
      <trkpt lat="46.67756" lon="6.13696">
        <ele>996.2</ele>
        <time>2021-08-18T09:02:17Z</time>
      </trkpt>
      <trkpt lat="46.67752" lon="6.13704">
        <ele>996.4</ele>
        <time>2021-08-18T09:02:19Z</time>
      </trkpt>
      <trkpt lat="46.6775" lon="6.13708">
        <ele>996.5</ele>
        <time>2021-08-18T09:02:20Z</time>
      </trkpt>
      <trkpt lat="46.67748" lon="6.13713">
        <ele>996.5</ele>
        <time>2021-08-18T09:02:21Z</time>
      </trkpt>
      <trkpt lat="46.67743" lon="6.13722">
        <ele>996.7</ele>
        <time>2021-08-18T09:02:23Z</time>
      </trkpt>
      <trkpt lat="46.67737" lon="6.13729">
        <ele>996.9</ele>
        <time>2021-08-18T09:02:25Z</time>
      </trkpt>
      <trkpt lat="46.67734" lon="6.13733">
        <ele>997</ele>
        <time>2021-08-18T09:02:26Z</time>
      </trkpt>
      <trkpt lat="46.67731" lon="6.13737">
        <ele>997</ele>
        <time>2021-08-18T09:02:27Z</time>
      </trkpt>
      <trkpt lat="46.67725" lon="6.13744">
        <ele>997.2</ele>
        <time>2021-08-18T09:02:29Z</time>
      </trkpt>
      <trkpt lat="46.6772" lon="6.13752">
        <ele>997.4</ele>
        <time>2021-08-18T09:02:31Z</time>
      </trkpt>
      <trkpt lat="46.67717" lon="6.13756">
        <ele>997.4</ele>
        <time>2021-08-18T09:02:32Z</time>
      </trkpt>
      <trkpt lat="46.67714" lon="6.13759">
        <ele>997.5</ele>
        <time>2021-08-18T09:02:33Z</time>
      </trkpt>
      <trkpt lat="46.67708" lon="6.13766">
        <ele>997.7</ele>
        <time>2021-08-18T09:02:35Z</time>
      </trkpt>
      <trkpt lat="46.67704" lon="6.13772">
        <ele>997.8</ele>
        <time>2021-08-18T09:02:37Z</time>
      </trkpt>
      <trkpt lat="46.67701" lon="6.13778">
        <ele>997.9</ele>
        <time>2021-08-18T09:02:39Z</time>
      </trkpt>
      <trkpt lat="46.67699" lon="6.13781">
        <ele>997.9</ele>
        <time>2021-08-18T09:02:40Z</time>
      </trkpt>
      <trkpt lat="46.67697" lon="6.13786">
        <ele>998</ele>
        <time>2021-08-18T09:02:41Z</time>
      </trkpt>
      <trkpt lat="46.67694" lon="6.1379">
        <ele>998.1</ele>
        <time>2021-08-18T09:02:42Z</time>
      </trkpt>
      <trkpt lat="46.67691" lon="6.13795">
        <ele>998.2</ele>
        <time>2021-08-18T09:02:43Z</time>
      </trkpt>
      <trkpt lat="46.67688" lon="6.13801">
        <ele>998.3</ele>
        <time>2021-08-18T09:02:45Z</time>
      </trkpt>
      <trkpt lat="46.67687" lon="6.13804">
        <ele>998.4</ele>
        <time>2021-08-18T09:02:46Z</time>
      </trkpt>
      <trkpt lat="46.67684" lon="6.13806">
        <ele>998.4</ele>
        <time>2021-08-18T09:02:47Z</time>
      </trkpt>
      <trkpt lat="46.67683" lon="6.13807">
        <ele>998.5</ele>
        <time>2021-08-18T09:02:48Z</time>
      </trkpt>
      <trkpt lat="46.67679" lon="6.13811">
        <ele>998.6</ele>
        <time>2021-08-18T09:02:50Z</time>
      </trkpt>
      <trkpt lat="46.67675" lon="6.13814">
        <ele>998.7</ele>
        <time>2021-08-18T09:02:52Z</time>
      </trkpt>
      <trkpt lat="46.67672" lon="6.13816">
        <ele>998.8</ele>
        <time>2021-08-18T09:02:53Z</time>
      </trkpt>
      <trkpt lat="46.67668" lon="6.13818">
        <ele>998.9</ele>
        <time>2021-08-18T09:02:54Z</time>
      </trkpt>
      <trkpt lat="46.67663" lon="6.13819">
        <ele>999</ele>
        <time>2021-08-18T09:02:56Z</time>
      </trkpt>
      <trkpt lat="46.67657" lon="6.1382">
        <ele>999.1</ele>
        <time>2021-08-18T09:02:58Z</time>
      </trkpt>
      <trkpt lat="46.67654" lon="6.13821">
        <ele>999.2</ele>
        <time>2021-08-18T09:02:59Z</time>
      </trkpt>
      <trkpt lat="46.67649" lon="6.13822">
        <ele>999.3</ele>
        <time>2021-08-18T09:03:01Z</time>
      </trkpt>
      <trkpt lat="46.67645" lon="6.13821">
        <ele>999.4</ele>
        <time>2021-08-18T09:03:02Z</time>
      </trkpt>
      <trkpt lat="46.67641" lon="6.1382">
        <ele>999.5</ele>
        <time>2021-08-18T09:03:03Z</time>
      </trkpt>
      <trkpt lat="46.67638" lon="6.1382">
        <ele>999.6</ele>
        <time>2021-08-18T09:03:04Z</time>
      </trkpt>
      <trkpt lat="46.67636" lon="6.1382">
        <ele>999.6</ele>
        <time>2021-08-18T09:03:05Z</time>
      </trkpt>
      <trkpt lat="46.67631" lon="6.13821">
        <ele>999.8</ele>
        <time>2021-08-18T09:03:07Z</time>
      </trkpt>
      <trkpt lat="46.67628" lon="6.13821">
        <ele>999.8</ele>
        <time>2021-08-18T09:03:08Z</time>
      </trkpt>
      <trkpt lat="46.67622" lon="6.13823">
        <ele>1000</ele>
        <time>2021-08-18T09:03:10Z</time>
      </trkpt>
      <trkpt lat="46.67617" lon="6.13821">
        <ele>1000.1</ele>
        <time>2021-08-18T09:03:12Z</time>
      </trkpt>
      <trkpt lat="46.67613" lon="6.13821">
        <ele>1000.2</ele>
        <time>2021-08-18T09:03:13Z</time>
      </trkpt>
      <trkpt lat="46.6761" lon="6.13821">
        <ele>1000.3</ele>
        <time>2021-08-18T09:03:14Z</time>
      </trkpt>
      <trkpt lat="46.67607" lon="6.1382">
        <ele>1000.3</ele>
        <time>2021-08-18T09:03:16Z</time>
      </trkpt>
      <trkpt lat="46.67605" lon="6.13816">
        <ele>1000.4</ele>
        <time>2021-08-18T09:03:18Z</time>
      </trkpt>
      <trkpt lat="46.67603" lon="6.13814">
        <ele>1000.4</ele>
        <time>2021-08-18T09:03:20Z</time>
      </trkpt>
      <trkpt lat="46.676" lon="6.13811">
        <ele>1000.5</ele>
        <time>2021-08-18T09:03:22Z</time>
      </trkpt>
      <trkpt lat="46.67597" lon="6.1381">
        <ele>1000.6</ele>
        <time>2021-08-18T09:03:23Z</time>
      </trkpt>
      <trkpt lat="46.67592" lon="6.13807">
        <ele>1000.6</ele>
        <time>2021-08-18T09:03:25Z</time>
      </trkpt>
      <trkpt lat="46.67588" lon="6.13805">
        <ele>1000.7</ele>
        <time>2021-08-18T09:03:26Z</time>
      </trkpt>
      <trkpt lat="46.67581" lon="6.13802">
        <ele>1000.9</ele>
        <time>2021-08-18T09:03:28Z</time>
      </trkpt>
      <trkpt lat="46.67575" lon="6.13798">
        <ele>1001</ele>
        <time>2021-08-18T09:03:30Z</time>
      </trkpt>
      <trkpt lat="46.67569" lon="6.13795">
        <ele>1001.1</ele>
        <time>2021-08-18T09:03:32Z</time>
      </trkpt>
      <trkpt lat="46.67567" lon="6.13793">
        <ele>1001.2</ele>
        <time>2021-08-18T09:03:33Z</time>
      </trkpt>
      <trkpt lat="46.67562" lon="6.13789">
        <ele>1001.3</ele>
        <time>2021-08-18T09:03:35Z</time>
      </trkpt>
      <trkpt lat="46.67559" lon="6.13786">
        <ele>1001.4</ele>
        <time>2021-08-18T09:03:36Z</time>
      </trkpt>
      <trkpt lat="46.67556" lon="6.13784">
        <ele>1001.5</ele>
        <time>2021-08-18T09:03:37Z</time>
      </trkpt>
      <trkpt lat="46.67553" lon="6.13781">
        <ele>1001.6</ele>
        <time>2021-08-18T09:03:38Z</time>
      </trkpt>
      <trkpt lat="46.67548" lon="6.13778">
        <ele>1001.7</ele>
        <time>2021-08-18T09:03:39Z</time>
      </trkpt>
      <trkpt lat="46.67546" lon="6.13775">
        <ele>1001.7</ele>
        <time>2021-08-18T09:03:40Z</time>
      </trkpt>
      <trkpt lat="46.67544" lon="6.13772">
        <ele>1001.8</ele>
        <time>2021-08-18T09:03:42Z</time>
      </trkpt>
      <trkpt lat="46.67541" lon="6.13768">
        <ele>1001.9</ele>
        <time>2021-08-18T09:03:44Z</time>
      </trkpt>
      <trkpt lat="46.67536" lon="6.13766">
        <ele>1002</ele>
        <time>2021-08-18T09:03:46Z</time>
      </trkpt>
      <trkpt lat="46.67533" lon="6.13764">
        <ele>1002.1</ele>
        <time>2021-08-18T09:03:48Z</time>
      </trkpt>
      <trkpt lat="46.6753" lon="6.13763">
        <ele>1002.2</ele>
        <time>2021-08-18T09:03:49Z</time>
      </trkpt>
      <trkpt lat="46.67527" lon="6.1376">
        <ele>1002.3</ele>
        <time>2021-08-18T09:03:50Z</time>
      </trkpt>
      <trkpt lat="46.67526" lon="6.13759">
        <ele>1002.4</ele>
        <time>2021-08-18T09:03:51Z</time>
      </trkpt>
      <trkpt lat="46.67522" lon="6.13756">
        <ele>1002.5</ele>
        <time>2021-08-18T09:03:53Z</time>
      </trkpt>
      <trkpt lat="46.67518" lon="6.13755">
        <ele>1002.7</ele>
        <time>2021-08-18T09:03:54Z</time>
      </trkpt>
      <trkpt lat="46.67517" lon="6.13755">
        <ele>1002.7</ele>
        <time>2021-08-18T09:03:55Z</time>
      </trkpt>
      <trkpt lat="46.67512" lon="6.13754">
        <ele>1002.9</ele>
        <time>2021-08-18T09:03:57Z</time>
      </trkpt>
      <trkpt lat="46.67509" lon="6.13752">
        <ele>1003</ele>
        <time>2021-08-18T09:03:58Z</time>
      </trkpt>
      <trkpt lat="46.67508" lon="6.13751">
        <ele>1003</ele>
        <time>2021-08-18T09:03:59Z</time>
      </trkpt>
      <trkpt lat="46.67505" lon="6.1375">
        <ele>1003.1</ele>
        <time>2021-08-18T09:04:00Z</time>
      </trkpt>
      <trkpt lat="46.67498" lon="6.1375">
        <ele>1003.4</ele>
        <time>2021-08-18T09:04:02Z</time>
      </trkpt>
      <trkpt lat="46.67494" lon="6.13751">
        <ele>1003.5</ele>
        <time>2021-08-18T09:04:03Z</time>
      </trkpt>
      <trkpt lat="46.67492" lon="6.13752">
        <ele>1003.6</ele>
        <time>2021-08-18T09:04:04Z</time>
      </trkpt>
      <trkpt lat="46.67484" lon="6.13755">
        <ele>1003.9</ele>
        <time>2021-08-18T09:04:06Z</time>
      </trkpt>
      <trkpt lat="46.67481" lon="6.13757">
        <ele>1004</ele>
        <time>2021-08-18T09:04:07Z</time>
      </trkpt>
      <trkpt lat="46.67477" lon="6.13759">
        <ele>1004.2</ele>
        <time>2021-08-18T09:04:08Z</time>
      </trkpt>
      <trkpt lat="46.67473" lon="6.13763">
        <ele>1004.4</ele>
        <time>2021-08-18T09:04:10Z</time>
      </trkpt>
      <trkpt lat="46.67469" lon="6.13765">
        <ele>1004.5</ele>
        <time>2021-08-18T09:04:11Z</time>
      </trkpt>
      <trkpt lat="46.67466" lon="6.13767">
        <ele>1004.6</ele>
        <time>2021-08-18T09:04:12Z</time>
      </trkpt>
      <trkpt lat="46.67463" lon="6.13769">
        <ele>1004.8</ele>
        <time>2021-08-18T09:04:13Z</time>
      </trkpt>
      <trkpt lat="46.67459" lon="6.13771">
        <ele>1004.9</ele>
        <time>2021-08-18T09:04:14Z</time>
      </trkpt>
      <trkpt lat="46.67457" lon="6.13772">
        <ele>1005</ele>
        <time>2021-08-18T09:04:15Z</time>
      </trkpt>
      <trkpt lat="46.67454" lon="6.13772">
        <ele>1005.1</ele>
        <time>2021-08-18T09:04:17Z</time>
      </trkpt>
      <trkpt lat="46.67451" lon="6.13774">
        <ele>1005.3</ele>
        <time>2021-08-18T09:04:18Z</time>
      </trkpt>
      <trkpt lat="46.67447" lon="6.13775">
        <ele>1005.4</ele>
        <time>2021-08-18T09:04:19Z</time>
      </trkpt>
      <trkpt lat="46.67445" lon="6.13773">
        <ele>1005.5</ele>
        <time>2021-08-18T09:04:20Z</time>
      </trkpt>
      <trkpt lat="46.67444" lon="6.13768">
        <ele>1005.6</ele>
        <time>2021-08-18T09:04:22Z</time>
      </trkpt>
      <trkpt lat="46.67442" lon="6.13762">
        <ele>1005.8</ele>
        <time>2021-08-18T09:04:23Z</time>
      </trkpt>
      <trkpt lat="46.6744" lon="6.13756">
        <ele>1006</ele>
        <time>2021-08-18T09:04:24Z</time>
      </trkpt>
      <trkpt lat="46.67437" lon="6.13749">
        <ele>1006.1</ele>
        <time>2021-08-18T09:04:26Z</time>
      </trkpt>
      <trkpt lat="46.67434" lon="6.13745">
        <ele>1006.2</ele>
        <time>2021-08-18T09:04:27Z</time>
      </trkpt>
      <trkpt lat="46.6743" lon="6.13737">
        <ele>1006.3</ele>
        <time>2021-08-18T09:04:29Z</time>
      </trkpt>
      <trkpt lat="46.67426" lon="6.13727">
        <ele>1006.4</ele>
        <time>2021-08-18T09:04:31Z</time>
      </trkpt>
      <trkpt lat="46.67423" lon="6.1372">
        <ele>1006.5</ele>
        <time>2021-08-18T09:04:32Z</time>
      </trkpt>
      <trkpt lat="46.67419" lon="6.13712">
        <ele>1006.6</ele>
        <time>2021-08-18T09:04:33Z</time>
      </trkpt>
      <trkpt lat="46.67417" lon="6.13708">
        <ele>1006.7</ele>
        <time>2021-08-18T09:04:34Z</time>
      </trkpt>
      <trkpt lat="46.67414" lon="6.13702">
        <ele>1006.8</ele>
        <time>2021-08-18T09:04:36Z</time>
      </trkpt>
      <trkpt lat="46.67413" lon="6.13697">
        <ele>1006.9</ele>
        <time>2021-08-18T09:04:37Z</time>
      </trkpt>
      <trkpt lat="46.6741" lon="6.13688">
        <ele>1007.1</ele>
        <time>2021-08-18T09:04:39Z</time>
      </trkpt>
      <trkpt lat="46.67409" lon="6.1368">
        <ele>1007.3</ele>
        <time>2021-08-18T09:04:41Z</time>
      </trkpt>
      <trkpt lat="46.67407" lon="6.13677">
        <ele>1007.3</ele>
        <time>2021-08-18T09:04:42Z</time>
      </trkpt>
      <trkpt lat="46.67406" lon="6.13671">
        <ele>1007.5</ele>
        <time>2021-08-18T09:04:44Z</time>
      </trkpt>
      <trkpt lat="46.67405" lon="6.13666">
        <ele>1007.6</ele>
        <time>2021-08-18T09:04:45Z</time>
      </trkpt>
      <trkpt lat="46.67405" lon="6.13661">
        <ele>1007.7</ele>
        <time>2021-08-18T09:04:46Z</time>
      </trkpt>
      <trkpt lat="46.67404" lon="6.13654">
        <ele>1007.8</ele>
        <time>2021-08-18T09:04:48Z</time>
      </trkpt>
      <trkpt lat="46.67402" lon="6.13647">
        <ele>1008</ele>
        <time>2021-08-18T09:04:49Z</time>
      </trkpt>
      <trkpt lat="46.674" lon="6.1364">
        <ele>1008.1</ele>
        <time>2021-08-18T09:04:51Z</time>
      </trkpt>
      <trkpt lat="46.67398" lon="6.13634">
        <ele>1008.3</ele>
        <time>2021-08-18T09:04:52Z</time>
      </trkpt>
      <trkpt lat="46.67397" lon="6.13633">
        <ele>1008.3</ele>
        <time>2021-08-18T09:04:53Z</time>
      </trkpt>
      <trkpt lat="46.67396" lon="6.13628">
        <ele>1008.4</ele>
        <time>2021-08-18T09:04:54Z</time>
      </trkpt>
      <trkpt lat="46.67395" lon="6.13624">
        <ele>1008.5</ele>
        <time>2021-08-18T09:04:55Z</time>
      </trkpt>
      <trkpt lat="46.67393" lon="6.13621">
        <ele>1008.5</ele>
        <time>2021-08-18T09:04:56Z</time>
      </trkpt>
      <trkpt lat="46.67391" lon="6.13613">
        <ele>1008.7</ele>
        <time>2021-08-18T09:04:58Z</time>
      </trkpt>
      <trkpt lat="46.6739" lon="6.1361">
        <ele>1008.7</ele>
        <time>2021-08-18T09:04:59Z</time>
      </trkpt>
      <trkpt lat="46.67387" lon="6.13602">
        <ele>1008.9</ele>
        <time>2021-08-18T09:05:01Z</time>
      </trkpt>
      <trkpt lat="46.67383" lon="6.13596">
        <ele>1009</ele>
        <time>2021-08-18T09:05:03Z</time>
      </trkpt>
      <trkpt lat="46.67381" lon="6.13593">
        <ele>1009</ele>
        <time>2021-08-18T09:05:04Z</time>
      </trkpt>
      <trkpt lat="46.67379" lon="6.1359">
        <ele>1009.1</ele>
        <time>2021-08-18T09:05:05Z</time>
      </trkpt>
      <trkpt lat="46.67377" lon="6.13584">
        <ele>1009.2</ele>
        <time>2021-08-18T09:05:06Z</time>
      </trkpt>
      <trkpt lat="46.67376" lon="6.13577">
        <ele>1009.2</ele>
        <time>2021-08-18T09:05:08Z</time>
      </trkpt>
      <trkpt lat="46.67376" lon="6.13575">
        <ele>1009.3</ele>
        <time>2021-08-18T09:05:09Z</time>
      </trkpt>
      <trkpt lat="46.67375" lon="6.13572">
        <ele>1009.3</ele>
        <time>2021-08-18T09:05:10Z</time>
      </trkpt>
      <trkpt lat="46.67374" lon="6.13567">
        <ele>1009.3</ele>
        <time>2021-08-18T09:05:11Z</time>
      </trkpt>
      <trkpt lat="46.67374" lon="6.13565">
        <ele>1009.4</ele>
        <time>2021-08-18T09:05:12Z</time>
      </trkpt>
      <trkpt lat="46.67374" lon="6.13561">
        <ele>1009.4</ele>
        <time>2021-08-18T09:05:13Z</time>
      </trkpt>
      <trkpt lat="46.67374" lon="6.13556">
        <ele>1009.4</ele>
        <time>2021-08-18T09:05:14Z</time>
      </trkpt>
      <trkpt lat="46.67375" lon="6.13548">
        <ele>1009.5</ele>
        <time>2021-08-18T09:05:16Z</time>
      </trkpt>
      <trkpt lat="46.67375" lon="6.13544">
        <ele>1009.6</ele>
        <time>2021-08-18T09:05:17Z</time>
      </trkpt>
      <trkpt lat="46.67375" lon="6.13543">
        <ele>1009.6</ele>
        <time>2021-08-18T09:05:18Z</time>
      </trkpt>
      <trkpt lat="46.67374" lon="6.13538">
        <ele>1009.6</ele>
        <time>2021-08-18T09:05:20Z</time>
      </trkpt>
      <trkpt lat="46.67373" lon="6.13533">
        <ele>1009.7</ele>
        <time>2021-08-18T09:05:21Z</time>
      </trkpt>
      <trkpt lat="46.67372" lon="6.13527">
        <ele>1009.7</ele>
        <time>2021-08-18T09:05:23Z</time>
      </trkpt>
      <trkpt lat="46.67371" lon="6.13523">
        <ele>1009.8</ele>
        <time>2021-08-18T09:05:24Z</time>
      </trkpt>
      <trkpt lat="46.67371" lon="6.13518">
        <ele>1009.8</ele>
        <time>2021-08-18T09:05:25Z</time>
      </trkpt>
      <trkpt lat="46.67371" lon="6.13517">
        <ele>1009.9</ele>
        <time>2021-08-18T09:05:26Z</time>
      </trkpt>
      <trkpt lat="46.6737" lon="6.13514">
        <ele>1009.9</ele>
        <time>2021-08-18T09:05:28Z</time>
      </trkpt>
      <trkpt lat="46.67371" lon="6.13514">
        <ele>1009.9</ele>
        <time>2021-08-18T09:05:29Z</time>
      </trkpt>
      <trkpt lat="46.67373" lon="6.13513">
        <ele>1009.9</ele>
        <time>2021-08-18T09:05:30Z</time>
      </trkpt>
      <trkpt lat="46.67374" lon="6.13513">
        <ele>1010</ele>
        <time>2021-08-18T09:05:32Z</time>
      </trkpt>
      <trkpt lat="46.67374" lon="6.13513">
        <ele>1010</ele>
        <time>2021-08-18T09:05:34Z</time>
      </trkpt>
      <trkpt lat="46.67375" lon="6.13513">
        <ele>1010</ele>
        <time>2021-08-18T09:05:36Z</time>
      </trkpt>
      <trkpt lat="46.67371" lon="6.13489">
        <ele>1010.2</ele>
        <time>2021-08-18T09:07:27Z</time>
      </trkpt>
      <trkpt lat="46.67366" lon="6.13478">
        <ele>1010.3</ele>
        <time>2021-08-18T09:07:29Z</time>
      </trkpt>
      <trkpt lat="46.67364" lon="6.13466">
        <ele>1010.5</ele>
        <time>2021-08-18T09:07:31Z</time>
      </trkpt>
      <trkpt lat="46.67363" lon="6.1346">
        <ele>1010.6</ele>
        <time>2021-08-18T09:07:32Z</time>
      </trkpt>
      <trkpt lat="46.67362" lon="6.13454">
        <ele>1010.6</ele>
        <time>2021-08-18T09:07:33Z</time>
      </trkpt>
      <trkpt lat="46.67361" lon="6.13449">
        <ele>1010.7</ele>
        <time>2021-08-18T09:07:34Z</time>
      </trkpt>
      <trkpt lat="46.67361" lon="6.13443">
        <ele>1010.8</ele>
        <time>2021-08-18T09:07:35Z</time>
      </trkpt>
      <trkpt lat="46.67359" lon="6.13438">
        <ele>1010.8</ele>
        <time>2021-08-18T09:07:36Z</time>
      </trkpt>
      <trkpt lat="46.67356" lon="6.13433">
        <ele>1010.9</ele>
        <time>2021-08-18T09:07:37Z</time>
      </trkpt>
      <trkpt lat="46.67351" lon="6.13423">
        <ele>1011.1</ele>
        <time>2021-08-18T09:07:39Z</time>
      </trkpt>
      <trkpt lat="46.67346" lon="6.13416">
        <ele>1011.2</ele>
        <time>2021-08-18T09:07:41Z</time>
      </trkpt>
      <trkpt lat="46.67343" lon="6.13412">
        <ele>1011.3</ele>
        <time>2021-08-18T09:07:42Z</time>
      </trkpt>
      <trkpt lat="46.6734" lon="6.13409">
        <ele>1011.4</ele>
        <time>2021-08-18T09:07:43Z</time>
      </trkpt>
      <trkpt lat="46.67337" lon="6.13405">
        <ele>1011.4</ele>
        <time>2021-08-18T09:07:44Z</time>
      </trkpt>
      <trkpt lat="46.67334" lon="6.13402">
        <ele>1011.5</ele>
        <time>2021-08-18T09:07:45Z</time>
      </trkpt>
      <trkpt lat="46.67331" lon="6.13398">
        <ele>1011.6</ele>
        <time>2021-08-18T09:07:46Z</time>
      </trkpt>
      <trkpt lat="46.67329" lon="6.13395">
        <ele>1011.7</ele>
        <time>2021-08-18T09:07:47Z</time>
      </trkpt>
      <trkpt lat="46.67326" lon="6.13392">
        <ele>1011.8</ele>
        <time>2021-08-18T09:07:48Z</time>
      </trkpt>
      <trkpt lat="46.67323" lon="6.13389">
        <ele>1011.9</ele>
        <time>2021-08-18T09:07:49Z</time>
      </trkpt>
      <trkpt lat="46.67321" lon="6.13386">
        <ele>1012</ele>
        <time>2021-08-18T09:07:51Z</time>
      </trkpt>
      <trkpt lat="46.6732" lon="6.13383">
        <ele>1012</ele>
        <time>2021-08-18T09:07:52Z</time>
      </trkpt>
      <trkpt lat="46.67318" lon="6.13379">
        <ele>1012.1</ele>
        <time>2021-08-18T09:07:53Z</time>
      </trkpt>
      <trkpt lat="46.67317" lon="6.13375">
        <ele>1012.2</ele>
        <time>2021-08-18T09:07:54Z</time>
      </trkpt>
      <trkpt lat="46.67315" lon="6.13372">
        <ele>1012.3</ele>
        <time>2021-08-18T09:07:55Z</time>
      </trkpt>
      <trkpt lat="46.67313" lon="6.13367">
        <ele>1012.4</ele>
        <time>2021-08-18T09:07:56Z</time>
      </trkpt>
      <trkpt lat="46.67312" lon="6.13365">
        <ele>1012.5</ele>
        <time>2021-08-18T09:07:57Z</time>
      </trkpt>
      <trkpt lat="46.6731" lon="6.13363">
        <ele>1012.5</ele>
        <time>2021-08-18T09:07:58Z</time>
      </trkpt>
      <trkpt lat="46.67309" lon="6.1336">
        <ele>1012.6</ele>
        <time>2021-08-18T09:08:00Z</time>
      </trkpt>
      <trkpt lat="46.67307" lon="6.13355">
        <ele>1012.7</ele>
        <time>2021-08-18T09:08:01Z</time>
      </trkpt>
      <trkpt lat="46.67306" lon="6.13353">
        <ele>1012.7</ele>
        <time>2021-08-18T09:08:02Z</time>
      </trkpt>
      <trkpt lat="46.67305" lon="6.1335">
        <ele>1012.8</ele>
        <time>2021-08-18T09:08:03Z</time>
      </trkpt>
      <trkpt lat="46.67302" lon="6.13343">
        <ele>1012.9</ele>
        <time>2021-08-18T09:08:05Z</time>
      </trkpt>
      <trkpt lat="46.673" lon="6.13335">
        <ele>1013</ele>
        <time>2021-08-18T09:08:07Z</time>
      </trkpt>
      <trkpt lat="46.67298" lon="6.13329">
        <ele>1013.1</ele>
        <time>2021-08-18T09:08:08Z</time>
      </trkpt>
      <trkpt lat="46.67297" lon="6.13325">
        <ele>1013.2</ele>
        <time>2021-08-18T09:08:09Z</time>
      </trkpt>
      <trkpt lat="46.67294" lon="6.1332">
        <ele>1013.2</ele>
        <time>2021-08-18T09:08:11Z</time>
      </trkpt>
      <trkpt lat="46.67292" lon="6.13314">
        <ele>1013.3</ele>
        <time>2021-08-18T09:08:12Z</time>
      </trkpt>
      <trkpt lat="46.67291" lon="6.1331">
        <ele>1013.4</ele>
        <time>2021-08-18T09:08:13Z</time>
      </trkpt>
      <trkpt lat="46.6729" lon="6.13306">
        <ele>1013.4</ele>
        <time>2021-08-18T09:08:14Z</time>
      </trkpt>
      <trkpt lat="46.67288" lon="6.13302">
        <ele>1013.5</ele>
        <time>2021-08-18T09:08:15Z</time>
      </trkpt>
      <trkpt lat="46.67287" lon="6.13297">
        <ele>1013.6</ele>
        <time>2021-08-18T09:08:17Z</time>
      </trkpt>
      <trkpt lat="46.67287" lon="6.13295">
        <ele>1013.6</ele>
        <time>2021-08-18T09:08:18Z</time>
      </trkpt>
      <trkpt lat="46.67286" lon="6.1329">
        <ele>1013.7</ele>
        <time>2021-08-18T09:08:19Z</time>
      </trkpt>
      <trkpt lat="46.67285" lon="6.13284">
        <ele>1013.8</ele>
        <time>2021-08-18T09:08:20Z</time>
      </trkpt>
      <trkpt lat="46.67284" lon="6.13281">
        <ele>1013.8</ele>
        <time>2021-08-18T09:08:21Z</time>
      </trkpt>
      <trkpt lat="46.67282" lon="6.13278">
        <ele>1013.9</ele>
        <time>2021-08-18T09:08:23Z</time>
      </trkpt>
      <trkpt lat="46.67281" lon="6.13274">
        <ele>1014</ele>
        <time>2021-08-18T09:08:24Z</time>
      </trkpt>
      <trkpt lat="46.67279" lon="6.1327">
        <ele>1014.1</ele>
        <time>2021-08-18T09:08:25Z</time>
      </trkpt>
      <trkpt lat="46.67278" lon="6.13266">
        <ele>1014.2</ele>
        <time>2021-08-18T09:08:26Z</time>
      </trkpt>
      <trkpt lat="46.67277" lon="6.13263">
        <ele>1014.2</ele>
        <time>2021-08-18T09:08:27Z</time>
      </trkpt>
      <trkpt lat="46.67274" lon="6.13256">
        <ele>1014.4</ele>
        <time>2021-08-18T09:08:29Z</time>
      </trkpt>
      <trkpt lat="46.67272" lon="6.13251">
        <ele>1014.5</ele>
        <time>2021-08-18T09:08:30Z</time>
      </trkpt>
      <trkpt lat="46.6727" lon="6.13247">
        <ele>1014.6</ele>
        <time>2021-08-18T09:08:32Z</time>
      </trkpt>
      <trkpt lat="46.67269" lon="6.13243">
        <ele>1014.7</ele>
        <time>2021-08-18T09:08:33Z</time>
      </trkpt>
      <trkpt lat="46.67267" lon="6.1324">
        <ele>1014.8</ele>
        <time>2021-08-18T09:08:34Z</time>
      </trkpt>
      <trkpt lat="46.67265" lon="6.13236">
        <ele>1014.8</ele>
        <time>2021-08-18T09:08:35Z</time>
      </trkpt>
      <trkpt lat="46.67263" lon="6.13233">
        <ele>1014.9</ele>
        <time>2021-08-18T09:08:36Z</time>
      </trkpt>
      <trkpt lat="46.67261" lon="6.1323">
        <ele>1015</ele>
        <time>2021-08-18T09:08:37Z</time>
      </trkpt>
      <trkpt lat="46.67259" lon="6.13228">
        <ele>1015.1</ele>
        <time>2021-08-18T09:08:38Z</time>
      </trkpt>
      <trkpt lat="46.67257" lon="6.13225">
        <ele>1015.2</ele>
        <time>2021-08-18T09:08:39Z</time>
      </trkpt>
      <trkpt lat="46.67254" lon="6.13222">
        <ele>1015.4</ele>
        <time>2021-08-18T09:08:41Z</time>
      </trkpt>
      <trkpt lat="46.67251" lon="6.1322">
        <ele>1015.5</ele>
        <time>2021-08-18T09:08:42Z</time>
      </trkpt>
      <trkpt lat="46.67248" lon="6.13218">
        <ele>1015.6</ele>
        <time>2021-08-18T09:08:43Z</time>
      </trkpt>
      <trkpt lat="46.67247" lon="6.13218">
        <ele>1015.6</ele>
        <time>2021-08-18T09:08:44Z</time>
      </trkpt>
      <trkpt lat="46.67244" lon="6.13213">
        <ele>1015.8</ele>
        <time>2021-08-18T09:08:46Z</time>
      </trkpt>
      <trkpt lat="46.67241" lon="6.13211">
        <ele>1015.9</ele>
        <time>2021-08-18T09:08:47Z</time>
      </trkpt>
      <trkpt lat="46.6724" lon="6.1321">
        <ele>1015.9</ele>
        <time>2021-08-18T09:08:48Z</time>
      </trkpt>
      <trkpt lat="46.67238" lon="6.13209">
        <ele>1016</ele>
        <time>2021-08-18T09:08:49Z</time>
      </trkpt>
      <trkpt lat="46.67235" lon="6.13205">
        <ele>1016.1</ele>
        <time>2021-08-18T09:08:51Z</time>
      </trkpt>
      <trkpt lat="46.67233" lon="6.13202">
        <ele>1016.2</ele>
        <time>2021-08-18T09:08:52Z</time>
      </trkpt>
      <trkpt lat="46.67229" lon="6.132">
        <ele>1016.3</ele>
        <time>2021-08-18T09:08:53Z</time>
      </trkpt>
      <trkpt lat="46.67227" lon="6.132">
        <ele>1016.4</ele>
        <time>2021-08-18T09:08:54Z</time>
      </trkpt>
      <trkpt lat="46.67223" lon="6.13199">
        <ele>1016.5</ele>
        <time>2021-08-18T09:08:56Z</time>
      </trkpt>
      <trkpt lat="46.67222" lon="6.13198">
        <ele>1016.6</ele>
        <time>2021-08-18T09:08:57Z</time>
      </trkpt>
      <trkpt lat="46.67219" lon="6.13196">
        <ele>1016.7</ele>
        <time>2021-08-18T09:08:58Z</time>
      </trkpt>
      <trkpt lat="46.67218" lon="6.13195">
        <ele>1016.7</ele>
        <time>2021-08-18T09:08:59Z</time>
      </trkpt>
      <trkpt lat="46.67214" lon="6.13193">
        <ele>1016.8</ele>
        <time>2021-08-18T09:09:01Z</time>
      </trkpt>
      <trkpt lat="46.67212" lon="6.13193">
        <ele>1016.9</ele>
        <time>2021-08-18T09:09:02Z</time>
      </trkpt>
      <trkpt lat="46.67211" lon="6.13193">
        <ele>1016.9</ele>
        <time>2021-08-18T09:09:03Z</time>
      </trkpt>
      <trkpt lat="46.67206" lon="6.1319">
        <ele>1017.1</ele>
        <time>2021-08-18T09:09:05Z</time>
      </trkpt>
      <trkpt lat="46.67205" lon="6.13189">
        <ele>1017.1</ele>
        <time>2021-08-18T09:09:06Z</time>
      </trkpt>
      <trkpt lat="46.67204" lon="6.13188">
        <ele>1017.2</ele>
        <time>2021-08-18T09:09:07Z</time>
      </trkpt>
      <trkpt lat="46.67202" lon="6.13188">
        <ele>1017.3</ele>
        <time>2021-08-18T09:09:08Z</time>
      </trkpt>
      <trkpt lat="46.67196" lon="6.13187">
        <ele>1017.4</ele>
        <time>2021-08-18T09:09:10Z</time>
      </trkpt>
      <trkpt lat="46.67193" lon="6.13185">
        <ele>1017.5</ele>
        <time>2021-08-18T09:09:11Z</time>
      </trkpt>
      <trkpt lat="46.6719" lon="6.13183">
        <ele>1017.6</ele>
        <time>2021-08-18T09:09:13Z</time>
      </trkpt>
      <trkpt lat="46.67187" lon="6.13182">
        <ele>1017.7</ele>
        <time>2021-08-18T09:09:14Z</time>
      </trkpt>
      <trkpt lat="46.67186" lon="6.13181">
        <ele>1017.7</ele>
        <time>2021-08-18T09:09:15Z</time>
      </trkpt>
      <trkpt lat="46.67183" lon="6.13179">
        <ele>1017.8</ele>
        <time>2021-08-18T09:09:17Z</time>
      </trkpt>
      <trkpt lat="46.67179" lon="6.13177">
        <ele>1017.9</ele>
        <time>2021-08-18T09:09:18Z</time>
      </trkpt>
      <trkpt lat="46.67178" lon="6.13176">
        <ele>1017.9</ele>
        <time>2021-08-18T09:09:19Z</time>
      </trkpt>
      <trkpt lat="46.67175" lon="6.13174">
        <ele>1018</ele>
        <time>2021-08-18T09:09:20Z</time>
      </trkpt>
      <trkpt lat="46.67173" lon="6.13173">
        <ele>1018</ele>
        <time>2021-08-18T09:09:21Z</time>
      </trkpt>
      <trkpt lat="46.6717" lon="6.13172">
        <ele>1018.1</ele>
        <time>2021-08-18T09:09:22Z</time>
      </trkpt>
      <trkpt lat="46.67169" lon="6.13172">
        <ele>1018.1</ele>
        <time>2021-08-18T09:09:23Z</time>
      </trkpt>
      <trkpt lat="46.67166" lon="6.13169">
        <ele>1018.2</ele>
        <time>2021-08-18T09:09:24Z</time>
      </trkpt>
      <trkpt lat="46.67164" lon="6.13168">
        <ele>1018.2</ele>
        <time>2021-08-18T09:09:25Z</time>
      </trkpt>
      <trkpt lat="46.67161" lon="6.13165">
        <ele>1018.3</ele>
        <time>2021-08-18T09:09:26Z</time>
      </trkpt>
      <trkpt lat="46.6716" lon="6.13164">
        <ele>1018.3</ele>
        <time>2021-08-18T09:09:27Z</time>
      </trkpt>
      <trkpt lat="46.67156" lon="6.1316">
        <ele>1018.5</ele>
        <time>2021-08-18T09:09:29Z</time>
      </trkpt>
      <trkpt lat="46.67153" lon="6.13159">
        <ele>1018.5</ele>
        <time>2021-08-18T09:09:30Z</time>
      </trkpt>
      <trkpt lat="46.67149" lon="6.13154">
        <ele>1018.7</ele>
        <time>2021-08-18T09:09:32Z</time>
      </trkpt>
      <trkpt lat="46.67146" lon="6.13152">
        <ele>1018.8</ele>
        <time>2021-08-18T09:09:33Z</time>
      </trkpt>
      <trkpt lat="46.67144" lon="6.13149">
        <ele>1018.9</ele>
        <time>2021-08-18T09:09:34Z</time>
      </trkpt>
      <trkpt lat="46.67141" lon="6.13145">
        <ele>1019.1</ele>
        <time>2021-08-18T09:09:36Z</time>
      </trkpt>
      <trkpt lat="46.67139" lon="6.13143">
        <ele>1019.3</ele>
        <time>2021-08-18T09:09:37Z</time>
      </trkpt>
      <trkpt lat="46.67137" lon="6.13141">
        <ele>1019.4</ele>
        <time>2021-08-18T09:09:38Z</time>
      </trkpt>
      <trkpt lat="46.67134" lon="6.13138">
        <ele>1019.5</ele>
        <time>2021-08-18T09:09:40Z</time>
      </trkpt>
      <trkpt lat="46.67131" lon="6.13135">
        <ele>1019.7</ele>
        <time>2021-08-18T09:09:41Z</time>
      </trkpt>
      <trkpt lat="46.6713" lon="6.13134">
        <ele>1019.8</ele>
        <time>2021-08-18T09:09:42Z</time>
      </trkpt>
      <trkpt lat="46.67128" lon="6.13132">
        <ele>1020</ele>
        <time>2021-08-18T09:09:43Z</time>
      </trkpt>
      <trkpt lat="46.67127" lon="6.13131">
        <ele>1020</ele>
        <time>2021-08-18T09:09:44Z</time>
      </trkpt>
      <trkpt lat="46.67125" lon="6.13128">
        <ele>1020.2</ele>
        <time>2021-08-18T09:09:45Z</time>
      </trkpt>
      <trkpt lat="46.67124" lon="6.13127">
        <ele>1020.3</ele>
        <time>2021-08-18T09:09:46Z</time>
      </trkpt>
      <trkpt lat="46.67121" lon="6.13125">
        <ele>1020.4</ele>
        <time>2021-08-18T09:09:47Z</time>
      </trkpt>
      <trkpt lat="46.67119" lon="6.13123">
        <ele>1020.5</ele>
        <time>2021-08-18T09:09:48Z</time>
      </trkpt>
      <trkpt lat="46.67115" lon="6.13119">
        <ele>1020.8</ele>
        <time>2021-08-18T09:09:50Z</time>
      </trkpt>
      <trkpt lat="46.67113" lon="6.13115">
        <ele>1020.9</ele>
        <time>2021-08-18T09:09:51Z</time>
      </trkpt>
      <trkpt lat="46.67112" lon="6.13114">
        <ele>1021</ele>
        <time>2021-08-18T09:09:52Z</time>
      </trkpt>
      <trkpt lat="46.67109" lon="6.13111">
        <ele>1021.2</ele>
        <time>2021-08-18T09:09:53Z</time>
      </trkpt>
      <trkpt lat="46.67108" lon="6.1311">
        <ele>1021.2</ele>
        <time>2021-08-18T09:09:54Z</time>
      </trkpt>
      <trkpt lat="46.67105" lon="6.13108">
        <ele>1021.3</ele>
        <time>2021-08-18T09:09:55Z</time>
      </trkpt>
      <trkpt lat="46.67104" lon="6.13107">
        <ele>1021.3</ele>
        <time>2021-08-18T09:09:56Z</time>
      </trkpt>
      <trkpt lat="46.67101" lon="6.13105">
        <ele>1021.5</ele>
        <time>2021-08-18T09:09:58Z</time>
      </trkpt>
      <trkpt lat="46.67098" lon="6.13101">
        <ele>1021.5</ele>
        <time>2021-08-18T09:09:59Z</time>
      </trkpt>
      <trkpt lat="46.67097" lon="6.131">
        <ele>1021.6</ele>
        <time>2021-08-18T09:10:00Z</time>
      </trkpt>
      <trkpt lat="46.67095" lon="6.13098">
        <ele>1021.6</ele>
        <time>2021-08-18T09:10:01Z</time>
      </trkpt>
      <trkpt lat="46.67092" lon="6.13094">
        <ele>1021.7</ele>
        <time>2021-08-18T09:10:03Z</time>
      </trkpt>
      <trkpt lat="46.67087" lon="6.13091">
        <ele>1021.7</ele>
        <time>2021-08-18T09:10:05Z</time>
      </trkpt>
      <trkpt lat="46.67085" lon="6.13088">
        <ele>1021.7</ele>
        <time>2021-08-18T09:10:06Z</time>
      </trkpt>
      <trkpt lat="46.67083" lon="6.13085">
        <ele>1021.7</ele>
        <time>2021-08-18T09:10:07Z</time>
      </trkpt>
      <trkpt lat="46.67079" lon="6.13079">
        <ele>1021.7</ele>
        <time>2021-08-18T09:10:09Z</time>
      </trkpt>
      <trkpt lat="46.67074" lon="6.13074">
        <ele>1021.6</ele>
        <time>2021-08-18T09:10:11Z</time>
      </trkpt>
      <trkpt lat="46.67068" lon="6.13068">
        <ele>1021.6</ele>
        <time>2021-08-18T09:10:13Z</time>
      </trkpt>
      <trkpt lat="46.67063" lon="6.13061">
        <ele>1021.6</ele>
        <time>2021-08-18T09:10:15Z</time>
      </trkpt>
      <trkpt lat="46.67059" lon="6.13056">
        <ele>1021.6</ele>
        <time>2021-08-18T09:10:16Z</time>
      </trkpt>
      <trkpt lat="46.67057" lon="6.13053">
        <ele>1021.7</ele>
        <time>2021-08-18T09:10:17Z</time>
      </trkpt>
      <trkpt lat="46.67054" lon="6.1305">
        <ele>1021.7</ele>
        <time>2021-08-18T09:10:18Z</time>
      </trkpt>
      <trkpt lat="46.67051" lon="6.13046">
        <ele>1021.8</ele>
        <time>2021-08-18T09:10:19Z</time>
      </trkpt>
      <trkpt lat="46.67048" lon="6.13043">
        <ele>1021.8</ele>
        <time>2021-08-18T09:10:20Z</time>
      </trkpt>
      <trkpt lat="46.67043" lon="6.13038">
        <ele>1021.9</ele>
        <time>2021-08-18T09:10:22Z</time>
      </trkpt>
      <trkpt lat="46.6704" lon="6.13035">
        <ele>1022.1</ele>
        <time>2021-08-18T09:10:23Z</time>
      </trkpt>
      <trkpt lat="46.67035" lon="6.13029">
        <ele>1022.3</ele>
        <time>2021-08-18T09:10:25Z</time>
      </trkpt>
      <trkpt lat="46.67031" lon="6.13026">
        <ele>1022.5</ele>
        <time>2021-08-18T09:10:26Z</time>
      </trkpt>
      <trkpt lat="46.6703" lon="6.13025">
        <ele>1022.5</ele>
        <time>2021-08-18T09:10:27Z</time>
      </trkpt>
      <trkpt lat="46.67027" lon="6.13023">
        <ele>1022.7</ele>
        <time>2021-08-18T09:10:28Z</time>
      </trkpt>
      <trkpt lat="46.67026" lon="6.13022">
        <ele>1022.8</ele>
        <time>2021-08-18T09:10:29Z</time>
      </trkpt>
      <trkpt lat="46.67024" lon="6.13019">
        <ele>1023</ele>
        <time>2021-08-18T09:10:30Z</time>
      </trkpt>
      <trkpt lat="46.67023" lon="6.13019">
        <ele>1023</ele>
        <time>2021-08-18T09:10:31Z</time>
      </trkpt>
      <trkpt lat="46.67021" lon="6.13017">
        <ele>1023.2</ele>
        <time>2021-08-18T09:10:32Z</time>
      </trkpt>
      <trkpt lat="46.6702" lon="6.13017">
        <ele>1023.2</ele>
        <time>2021-08-18T09:10:33Z</time>
      </trkpt>
      <trkpt lat="46.67019" lon="6.13017">
        <ele>1023.3</ele>
        <time>2021-08-18T09:10:34Z</time>
      </trkpt>
      <trkpt lat="46.67017" lon="6.13017">
        <ele>1023.5</ele>
        <time>2021-08-18T09:10:35Z</time>
      </trkpt>
      <trkpt lat="46.67016" lon="6.13017">
        <ele>1023.6</ele>
        <time>2021-08-18T09:10:37Z</time>
      </trkpt>
      <trkpt lat="46.67014" lon="6.13017">
        <ele>1023.7</ele>
        <time>2021-08-18T09:10:38Z</time>
      </trkpt>
      <trkpt lat="46.67012" lon="6.13016">
        <ele>1023.9</ele>
        <time>2021-08-18T09:10:39Z</time>
      </trkpt>
      <trkpt lat="46.6701" lon="6.13015">
        <ele>1024</ele>
        <time>2021-08-18T09:10:40Z</time>
      </trkpt>
      <trkpt lat="46.67009" lon="6.13014">
        <ele>1024.1</ele>
        <time>2021-08-18T09:10:41Z</time>
      </trkpt>
      <trkpt lat="46.67007" lon="6.13014">
        <ele>1024.3</ele>
        <time>2021-08-18T09:10:43Z</time>
      </trkpt>
      <trkpt lat="46.67006" lon="6.13014">
        <ele>1024.4</ele>
        <time>2021-08-18T09:10:44Z</time>
      </trkpt>
      <trkpt lat="46.67006" lon="6.13013">
        <ele>1024.5</ele>
        <time>2021-08-18T09:10:45Z</time>
      </trkpt>
      <trkpt lat="46.67006" lon="6.13012">
        <ele>1024.5</ele>
        <time>2021-08-18T09:10:47Z</time>
      </trkpt>
      <trkpt lat="46.67006" lon="6.13011">
        <ele>1024.6</ele>
        <time>2021-08-18T09:10:48Z</time>
      </trkpt>
      <trkpt lat="46.67005" lon="6.13011">
        <ele>1024.6</ele>
        <time>2021-08-18T09:10:49Z</time>
      </trkpt>
      <trkpt lat="46.67005" lon="6.1301">
        <ele>1024.7</ele>
        <time>2021-08-18T09:10:50Z</time>
      </trkpt>
      <trkpt lat="46.67004" lon="6.1301">
        <ele>1024.8</ele>
        <time>2021-08-18T09:10:51Z</time>
      </trkpt>
      <trkpt lat="46.67003" lon="6.13008">
        <ele>1024.9</ele>
        <time>2021-08-18T09:10:52Z</time>
      </trkpt>
      <trkpt lat="46.67002" lon="6.13006">
        <ele>1025</ele>
        <time>2021-08-18T09:10:54Z</time>
      </trkpt>
      <trkpt lat="46.66993" lon="6.12999">
        <ele>1026.1</ele>
        <time>2021-08-18T09:11:03Z</time>
      </trkpt>
      <trkpt lat="46.6699" lon="6.12999">
        <ele>1026.4</ele>
        <time>2021-08-18T09:11:05Z</time>
      </trkpt>
      <trkpt lat="46.66988" lon="6.12999">
        <ele>1026.6</ele>
        <time>2021-08-18T09:11:06Z</time>
      </trkpt>
      <trkpt lat="46.66987" lon="6.12999">
        <ele>1026.7</ele>
        <time>2021-08-18T09:11:07Z</time>
      </trkpt>
      <trkpt lat="46.66983" lon="6.12999">
        <ele>1027.1</ele>
        <time>2021-08-18T09:11:09Z</time>
      </trkpt>
      <trkpt lat="46.66982" lon="6.12999">
        <ele>1027.3</ele>
        <time>2021-08-18T09:11:10Z</time>
      </trkpt>
      <trkpt lat="46.6698" lon="6.12999">
        <ele>1027.4</ele>
        <time>2021-08-18T09:11:11Z</time>
      </trkpt>
      <trkpt lat="46.66978" lon="6.12997">
        <ele>1027.7</ele>
        <time>2021-08-18T09:11:13Z</time>
      </trkpt>
      <trkpt lat="46.66977" lon="6.12996">
        <ele>1027.8</ele>
        <time>2021-08-18T09:11:14Z</time>
      </trkpt>
      <trkpt lat="46.66973" lon="6.12993">
        <ele>1028.3</ele>
        <time>2021-08-18T09:11:16Z</time>
      </trkpt>
      <trkpt lat="46.66972" lon="6.12991">
        <ele>1028.5</ele>
        <time>2021-08-18T09:11:17Z</time>
      </trkpt>
      <trkpt lat="46.6697" lon="6.1299">
        <ele>1028.7</ele>
        <time>2021-08-18T09:11:18Z</time>
      </trkpt>
      <trkpt lat="46.66969" lon="6.1299">
        <ele>1028.8</ele>
        <time>2021-08-18T09:11:19Z</time>
      </trkpt>
      <trkpt lat="46.66967" lon="6.12988">
        <ele>1029.1</ele>
        <time>2021-08-18T09:11:20Z</time>
      </trkpt>
      <trkpt lat="46.66966" lon="6.12987">
        <ele>1029.2</ele>
        <time>2021-08-18T09:11:21Z</time>
      </trkpt>
      <trkpt lat="46.66965" lon="6.12985">
        <ele>1029.4</ele>
        <time>2021-08-18T09:11:23Z</time>
      </trkpt>
      <trkpt lat="46.66964" lon="6.12984">
        <ele>1029.5</ele>
        <time>2021-08-18T09:11:24Z</time>
      </trkpt>
      <trkpt lat="46.66964" lon="6.12984">
        <ele>1029.6</ele>
        <time>2021-08-18T09:11:25Z</time>
      </trkpt>
      <trkpt lat="46.66963" lon="6.12984">
        <ele>1029.7</ele>
        <time>2021-08-18T09:11:26Z</time>
      </trkpt>
      <trkpt lat="46.66962" lon="6.12984">
        <ele>1029.8</ele>
        <time>2021-08-18T09:11:27Z</time>
      </trkpt>
      <trkpt lat="46.6696" lon="6.12983">
        <ele>1030.1</ele>
        <time>2021-08-18T09:11:29Z</time>
      </trkpt>
      <trkpt lat="46.66959" lon="6.12981">
        <ele>1030.3</ele>
        <time>2021-08-18T09:11:30Z</time>
      </trkpt>
      <trkpt lat="46.66958" lon="6.12979">
        <ele>1030.5</ele>
        <time>2021-08-18T09:11:32Z</time>
      </trkpt>
      <trkpt lat="46.66957" lon="6.12976">
        <ele>1030.9</ele>
        <time>2021-08-18T09:11:33Z</time>
      </trkpt>
      <trkpt lat="46.66955" lon="6.12972">
        <ele>1031.4</ele>
        <time>2021-08-18T09:11:35Z</time>
      </trkpt>
      <trkpt lat="46.66954" lon="6.1297">
        <ele>1031.6</ele>
        <time>2021-08-18T09:11:36Z</time>
      </trkpt>
      <trkpt lat="46.66952" lon="6.12967">
        <ele>1032</ele>
        <time>2021-08-18T09:11:38Z</time>
      </trkpt>
      <trkpt lat="46.66951" lon="6.12966">
        <ele>1032.2</ele>
        <time>2021-08-18T09:11:39Z</time>
      </trkpt>
      <trkpt lat="46.6695" lon="6.12962">
        <ele>1032.6</ele>
        <time>2021-08-18T09:11:41Z</time>
      </trkpt>
      <trkpt lat="46.6695" lon="6.1296">
        <ele>1032.8</ele>
        <time>2021-08-18T09:11:42Z</time>
      </trkpt>
      <trkpt lat="46.6695" lon="6.12957">
        <ele>1033.1</ele>
        <time>2021-08-18T09:11:44Z</time>
      </trkpt>
      <trkpt lat="46.66948" lon="6.12954">
        <ele>1033.5</ele>
        <time>2021-08-18T09:11:46Z</time>
      </trkpt>
      <trkpt lat="46.66948" lon="6.12951">
        <ele>1033.8</ele>
        <time>2021-08-18T09:11:48Z</time>
      </trkpt>
      <trkpt lat="46.66948" lon="6.12949">
        <ele>1034</ele>
        <time>2021-08-18T09:11:49Z</time>
      </trkpt>
      <trkpt lat="46.66947" lon="6.12947">
        <ele>1034.2</ele>
        <time>2021-08-18T09:11:50Z</time>
      </trkpt>
      <trkpt lat="46.66947" lon="6.12948">
        <ele>1034.2</ele>
        <time>2021-08-18T09:11:52Z</time>
      </trkpt>
      <trkpt lat="46.66947" lon="6.12948">
        <ele>1034.3</ele>
        <time>2021-08-18T09:11:53Z</time>
      </trkpt>
      <trkpt lat="46.66947" lon="6.12948">
        <ele>1034.3</ele>
        <time>2021-08-18T09:11:54Z</time>
      </trkpt>
      <trkpt lat="46.66947" lon="6.12947">
        <ele>1034.4</ele>
        <time>2021-08-18T09:11:55Z</time>
      </trkpt>
      <trkpt lat="46.66945" lon="6.12943">
        <ele>1034.9</ele>
        <time>2021-08-18T09:11:56Z</time>
      </trkpt>
      <trkpt lat="46.66945" lon="6.12942">
        <ele>1035</ele>
        <time>2021-08-18T09:11:57Z</time>
      </trkpt>
      <trkpt lat="46.66944" lon="6.1294">
        <ele>1035.2</ele>
        <time>2021-08-18T09:11:58Z</time>
      </trkpt>
      <trkpt lat="46.66943" lon="6.12938">
        <ele>1035.5</ele>
        <time>2021-08-18T09:11:59Z</time>
      </trkpt>
      <trkpt lat="46.66941" lon="6.12934">
        <ele>1035.9</ele>
        <time>2021-08-18T09:12:01Z</time>
      </trkpt>
      <trkpt lat="46.66941" lon="6.12933">
        <ele>1036.1</ele>
        <time>2021-08-18T09:12:02Z</time>
      </trkpt>
      <trkpt lat="46.66941" lon="6.12933">
        <ele>1036.1</ele>
        <time>2021-08-18T09:12:03Z</time>
      </trkpt>
      <trkpt lat="46.6694" lon="6.12932">
        <ele>1036.1</ele>
        <time>2021-08-18T09:12:04Z</time>
      </trkpt>
      <trkpt lat="46.6694" lon="6.12932">
        <ele>1036.2</ele>
        <time>2021-08-18T09:12:05Z</time>
      </trkpt>
      <trkpt lat="46.6694" lon="6.12932">
        <ele>1036.2</ele>
        <time>2021-08-18T09:12:07Z</time>
      </trkpt>
      <trkpt lat="46.6694" lon="6.12931">
        <ele>1036.3</ele>
        <time>2021-08-18T09:12:08Z</time>
      </trkpt>
      <trkpt lat="46.6694" lon="6.12931">
        <ele>1036.3</ele>
        <time>2021-08-18T09:12:09Z</time>
      </trkpt>
      <trkpt lat="46.66939" lon="6.1293">
        <ele>1036.4</ele>
        <time>2021-08-18T09:12:10Z</time>
      </trkpt>
      <trkpt lat="46.66937" lon="6.12927">
        <ele>1036.9</ele>
        <time>2021-08-18T09:12:11Z</time>
      </trkpt>
      <trkpt lat="46.66936" lon="6.12927">
        <ele>1037</ele>
        <time>2021-08-18T09:12:12Z</time>
      </trkpt>
      <trkpt lat="46.66934" lon="6.12924">
        <ele>1037.4</ele>
        <time>2021-08-18T09:12:13Z</time>
      </trkpt>
      <trkpt lat="46.66933" lon="6.12923">
        <ele>1037.6</ele>
        <time>2021-08-18T09:12:15Z</time>
      </trkpt>
      <trkpt lat="46.66932" lon="6.12922">
        <ele>1037.8</ele>
        <time>2021-08-18T09:12:16Z</time>
      </trkpt>
      <trkpt lat="46.66931" lon="6.1292">
        <ele>1038</ele>
        <time>2021-08-18T09:12:17Z</time>
      </trkpt>
      <trkpt lat="46.6693" lon="6.12919">
        <ele>1038.3</ele>
        <time>2021-08-18T09:12:18Z</time>
      </trkpt>
      <trkpt lat="46.66928" lon="6.12917">
        <ele>1038.7</ele>
        <time>2021-08-18T09:12:19Z</time>
      </trkpt>
      <trkpt lat="46.66924" lon="6.12915">
        <ele>1039.3</ele>
        <time>2021-08-18T09:12:21Z</time>
      </trkpt>
      <trkpt lat="46.66923" lon="6.12914">
        <ele>1039.5</ele>
        <time>2021-08-18T09:12:22Z</time>
      </trkpt>
      <trkpt lat="46.66922" lon="6.12913">
        <ele>1039.7</ele>
        <time>2021-08-18T09:12:23Z</time>
      </trkpt>
      <trkpt lat="46.66922" lon="6.12913">
        <ele>1039.7</ele>
        <time>2021-08-18T09:12:24Z</time>
      </trkpt>
      <trkpt lat="46.66921" lon="6.12913">
        <ele>1039.8</ele>
        <time>2021-08-18T09:12:27Z</time>
      </trkpt>
      <trkpt lat="46.6692" lon="6.12913">
        <ele>1039.9</ele>
        <time>2021-08-18T09:12:29Z</time>
      </trkpt>
      <trkpt lat="46.6692" lon="6.12913">
        <ele>1040</ele>
        <time>2021-08-18T09:12:31Z</time>
      </trkpt>
      <trkpt lat="46.66919" lon="6.12914">
        <ele>1040.1</ele>
        <time>2021-08-18T09:12:32Z</time>
      </trkpt>
      <trkpt lat="46.66867" lon="6.12822">
        <ele>1053.7</ele>
        <time>2021-08-18T09:14:27Z</time>
      </trkpt>
      <trkpt lat="46.66866" lon="6.12817">
        <ele>1054.2</ele>
        <time>2021-08-18T09:14:28Z</time>
      </trkpt>
      <trkpt lat="46.66865" lon="6.12815">
        <ele>1054.4</ele>
        <time>2021-08-18T09:14:29Z</time>
      </trkpt>
      <trkpt lat="46.66865" lon="6.12814">
        <ele>1054.5</ele>
        <time>2021-08-18T09:14:30Z</time>
      </trkpt>
      <trkpt lat="46.66865" lon="6.12813">
        <ele>1054.5</ele>
        <time>2021-08-18T09:14:32Z</time>
      </trkpt>
      <trkpt lat="46.66864" lon="6.12812">
        <ele>1054.6</ele>
        <time>2021-08-18T09:14:33Z</time>
      </trkpt>
      <trkpt lat="46.66864" lon="6.12812">
        <ele>1054.6</ele>
        <time>2021-08-18T09:14:35Z</time>
      </trkpt>
      <trkpt lat="46.66864" lon="6.12811">
        <ele>1054.7</ele>
        <time>2021-08-18T09:14:36Z</time>
      </trkpt>
      <trkpt lat="46.66859" lon="6.12803">
        <ele>1055.5</ele>
        <time>2021-08-18T09:14:37Z</time>
      </trkpt>
      <trkpt lat="46.66853" lon="6.12795">
        <ele>1056.3</ele>
        <time>2021-08-18T09:14:38Z</time>
      </trkpt>
      <trkpt lat="46.66848" lon="6.12786">
        <ele>1056.9</ele>
        <time>2021-08-18T09:14:40Z</time>
      </trkpt>
      <trkpt lat="46.66843" lon="6.12778">
        <ele>1057.5</ele>
        <time>2021-08-18T09:15:11Z</time>
      </trkpt>
      <trkpt lat="46.66838" lon="6.1277">
        <ele>1058</ele>
        <time>2021-08-18T09:15:12Z</time>
      </trkpt>
      <trkpt lat="46.66832" lon="6.12762">
        <ele>1058.5</ele>
        <time>2021-08-18T09:15:13Z</time>
      </trkpt>
      <trkpt lat="46.66829" lon="6.12757">
        <ele>1058.7</ele>
        <time>2021-08-18T09:15:15Z</time>
      </trkpt>
      <trkpt lat="46.66828" lon="6.12756">
        <ele>1058.8</ele>
        <time>2021-08-18T09:15:16Z</time>
      </trkpt>
      <trkpt lat="46.66827" lon="6.12754">
        <ele>1058.8</ele>
        <time>2021-08-18T09:15:17Z</time>
      </trkpt>
      <trkpt lat="46.66825" lon="6.12751">
        <ele>1058.9</ele>
        <time>2021-08-18T09:15:18Z</time>
      </trkpt>
      <trkpt lat="46.66823" lon="6.12747">
        <ele>1059</ele>
        <time>2021-08-18T09:15:19Z</time>
      </trkpt>
      <trkpt lat="46.66821" lon="6.12745">
        <ele>1059.1</ele>
        <time>2021-08-18T09:15:20Z</time>
      </trkpt>
      <trkpt lat="46.6682" lon="6.12743">
        <ele>1059.1</ele>
        <time>2021-08-18T09:15:22Z</time>
      </trkpt>
      <trkpt lat="46.66818" lon="6.12739">
        <ele>1059.2</ele>
        <time>2021-08-18T09:15:23Z</time>
      </trkpt>
      <trkpt lat="46.66817" lon="6.12738">
        <ele>1059.3</ele>
        <time>2021-08-18T09:15:24Z</time>
      </trkpt>
      <trkpt lat="46.66815" lon="6.12734">
        <ele>1059.3</ele>
        <time>2021-08-18T09:15:25Z</time>
      </trkpt>
      <trkpt lat="46.66814" lon="6.12731">
        <ele>1059.3</ele>
        <time>2021-08-18T09:15:26Z</time>
      </trkpt>
      <trkpt lat="46.66812" lon="6.12726">
        <ele>1059.4</ele>
        <time>2021-08-18T09:15:28Z</time>
      </trkpt>
      <trkpt lat="46.66811" lon="6.12724">
        <ele>1059.4</ele>
        <time>2021-08-18T09:15:29Z</time>
      </trkpt>
      <trkpt lat="46.66811" lon="6.12722">
        <ele>1059.4</ele>
        <time>2021-08-18T09:15:30Z</time>
      </trkpt>
      <trkpt lat="46.6681" lon="6.12716">
        <ele>1059.4</ele>
        <time>2021-08-18T09:15:31Z</time>
      </trkpt>
      <trkpt lat="46.66809" lon="6.12712">
        <ele>1059.4</ele>
        <time>2021-08-18T09:15:33Z</time>
      </trkpt>
      <trkpt lat="46.66807" lon="6.12708">
        <ele>1059.3</ele>
        <time>2021-08-18T09:15:34Z</time>
      </trkpt>
      <trkpt lat="46.66804" lon="6.12704">
        <ele>1059.3</ele>
        <time>2021-08-18T09:15:36Z</time>
      </trkpt>
      <trkpt lat="46.66802" lon="6.12699">
        <ele>1059.2</ele>
        <time>2021-08-18T09:15:37Z</time>
      </trkpt>
      <trkpt lat="46.66798" lon="6.12693">
        <ele>1059</ele>
        <time>2021-08-18T09:15:39Z</time>
      </trkpt>
      <trkpt lat="46.66794" lon="6.12688">
        <ele>1058.9</ele>
        <time>2021-08-18T09:15:40Z</time>
      </trkpt>
      <trkpt lat="46.6679" lon="6.12682">
        <ele>1058.6</ele>
        <time>2021-08-18T09:15:41Z</time>
      </trkpt>
      <trkpt lat="46.66787" lon="6.12677">
        <ele>1058.4</ele>
        <time>2021-08-18T09:15:42Z</time>
      </trkpt>
      <trkpt lat="46.66778" lon="6.12669">
        <ele>1057.9</ele>
        <time>2021-08-18T09:15:44Z</time>
      </trkpt>
      <trkpt lat="46.66769" lon="6.12657">
        <ele>1057.3</ele>
        <time>2021-08-18T09:15:46Z</time>
      </trkpt>
      <trkpt lat="46.66765" lon="6.1265">
        <ele>1057.2</ele>
        <time>2021-08-18T09:15:47Z</time>
      </trkpt>
      <trkpt lat="46.66761" lon="6.12644">
        <ele>1057.1</ele>
        <time>2021-08-18T09:15:48Z</time>
      </trkpt>
      <trkpt lat="46.66757" lon="6.12638">
        <ele>1057</ele>
        <time>2021-08-18T09:15:49Z</time>
      </trkpt>
      <trkpt lat="46.66754" lon="6.12632">
        <ele>1057</ele>
        <time>2021-08-18T09:15:50Z</time>
      </trkpt>
      <trkpt lat="46.66746" lon="6.12622">
        <ele>1057.1</ele>
        <time>2021-08-18T09:15:52Z</time>
      </trkpt>
      <trkpt lat="46.66742" lon="6.12617">
        <ele>1057.1</ele>
        <time>2021-08-18T09:15:53Z</time>
      </trkpt>
      <trkpt lat="46.66734" lon="6.12607">
        <ele>1057.3</ele>
        <time>2021-08-18T09:15:55Z</time>
      </trkpt>
      <trkpt lat="46.66731" lon="6.12603">
        <ele>1057.3</ele>
        <time>2021-08-18T09:15:56Z</time>
      </trkpt>
      <trkpt lat="46.66728" lon="6.126">
        <ele>1057.4</ele>
        <time>2021-08-18T09:15:57Z</time>
      </trkpt>
      <trkpt lat="46.66722" lon="6.12595">
        <ele>1057.6</ele>
        <time>2021-08-18T09:15:59Z</time>
      </trkpt>
      <trkpt lat="46.66719" lon="6.12593">
        <ele>1057.6</ele>
        <time>2021-08-18T09:16:00Z</time>
      </trkpt>
      <trkpt lat="46.66716" lon="6.1259">
        <ele>1057.7</ele>
        <time>2021-08-18T09:16:01Z</time>
      </trkpt>
      <trkpt lat="46.66717" lon="6.12585">
        <ele>1057.8</ele>
        <time>2021-08-18T09:16:03Z</time>
      </trkpt>
      <trkpt lat="46.66712" lon="6.12583">
        <ele>1057.8</ele>
        <time>2021-08-18T09:16:04Z</time>
      </trkpt>
      <trkpt lat="46.66709" lon="6.12582">
        <ele>1057.9</ele>
        <time>2021-08-18T09:16:05Z</time>
      </trkpt>
      <trkpt lat="46.66706" lon="6.12579">
        <ele>1057.9</ele>
        <time>2021-08-18T09:16:06Z</time>
      </trkpt>
      <trkpt lat="46.66703" lon="6.12576">
        <ele>1057.9</ele>
        <time>2021-08-18T09:16:08Z</time>
      </trkpt>
      <trkpt lat="46.667" lon="6.12573">
        <ele>1057.9</ele>
        <time>2021-08-18T09:16:09Z</time>
      </trkpt>
      <trkpt lat="46.66699" lon="6.12568">
        <ele>1057.9</ele>
        <time>2021-08-18T09:16:10Z</time>
      </trkpt>
      <trkpt lat="46.66698" lon="6.12563">
        <ele>1057.9</ele>
        <time>2021-08-18T09:16:11Z</time>
      </trkpt>
      <trkpt lat="46.66697" lon="6.12557">
        <ele>1057.9</ele>
        <time>2021-08-18T09:16:13Z</time>
      </trkpt>
      <trkpt lat="46.66696" lon="6.12552">
        <ele>1057.9</ele>
        <time>2021-08-18T09:16:14Z</time>
      </trkpt>
      <trkpt lat="46.66695" lon="6.12545">
        <ele>1057.8</ele>
        <time>2021-08-18T09:16:15Z</time>
      </trkpt>
      <trkpt lat="46.66694" lon="6.12538">
        <ele>1057.6</ele>
        <time>2021-08-18T09:16:17Z</time>
      </trkpt>
      <trkpt lat="46.66693" lon="6.12531">
        <ele>1057.3</ele>
        <time>2021-08-18T09:16:18Z</time>
      </trkpt>
      <trkpt lat="46.66688" lon="6.12517">
        <ele>1056.8</ele>
        <time>2021-08-18T09:16:20Z</time>
      </trkpt>
      <trkpt lat="46.66684" lon="6.12504">
        <ele>1056.3</ele>
        <time>2021-08-18T09:16:22Z</time>
      </trkpt>
      <trkpt lat="46.66677" lon="6.12491">
        <ele>1055.8</ele>
        <time>2021-08-18T09:16:24Z</time>
      </trkpt>
      <trkpt lat="46.66671" lon="6.12477">
        <ele>1055.3</ele>
        <time>2021-08-18T09:16:26Z</time>
      </trkpt>
      <trkpt lat="46.66665" lon="6.12464">
        <ele>1054.9</ele>
        <time>2021-08-18T09:16:28Z</time>
      </trkpt>
      <trkpt lat="46.66663" lon="6.12457">
        <ele>1054.9</ele>
        <time>2021-08-18T09:16:29Z</time>
      </trkpt>
      <trkpt lat="46.66661" lon="6.12451">
        <ele>1054.8</ele>
        <time>2021-08-18T09:16:30Z</time>
      </trkpt>
      <trkpt lat="46.66659" lon="6.12444">
        <ele>1054.7</ele>
        <time>2021-08-18T09:16:31Z</time>
      </trkpt>
      <trkpt lat="46.66658" lon="6.12438">
        <ele>1054.6</ele>
        <time>2021-08-18T09:16:32Z</time>
      </trkpt>
      <trkpt lat="46.66656" lon="6.12427">
        <ele>1054.4</ele>
        <time>2021-08-18T09:16:34Z</time>
      </trkpt>
      <trkpt lat="46.66655" lon="6.1242">
        <ele>1054.3</ele>
        <time>2021-08-18T09:16:35Z</time>
      </trkpt>
      <trkpt lat="46.66653" lon="6.1241">
        <ele>1054.1</ele>
        <time>2021-08-18T09:16:37Z</time>
      </trkpt>
      <trkpt lat="46.6665" lon="6.12399">
        <ele>1053.8</ele>
        <time>2021-08-18T09:16:39Z</time>
      </trkpt>
      <trkpt lat="46.66645" lon="6.12385">
        <ele>1053.4</ele>
        <time>2021-08-18T09:16:41Z</time>
      </trkpt>
      <trkpt lat="46.66642" lon="6.12379">
        <ele>1053.2</ele>
        <time>2021-08-18T09:16:42Z</time>
      </trkpt>
      <trkpt lat="46.66636" lon="6.12366">
        <ele>1052.7</ele>
        <time>2021-08-18T09:16:44Z</time>
      </trkpt>
      <trkpt lat="46.66629" lon="6.12354">
        <ele>1052.3</ele>
        <time>2021-08-18T09:16:46Z</time>
      </trkpt>
      <trkpt lat="46.66622" lon="6.1234">
        <ele>1051.8</ele>
        <time>2021-08-18T09:16:48Z</time>
      </trkpt>
      <trkpt lat="46.66619" lon="6.12333">
        <ele>1051.7</ele>
        <time>2021-08-18T09:16:49Z</time>
      </trkpt>
      <trkpt lat="46.66617" lon="6.12325">
        <ele>1051.5</ele>
        <time>2021-08-18T09:16:50Z</time>
      </trkpt>
      <trkpt lat="46.66614" lon="6.12311">
        <ele>1051.1</ele>
        <time>2021-08-18T09:16:52Z</time>
      </trkpt>
      <trkpt lat="46.6661" lon="6.12295">
        <ele>1050.5</ele>
        <time>2021-08-18T09:16:54Z</time>
      </trkpt>
      <trkpt lat="46.66607" lon="6.12286">
        <ele>1050.2</ele>
        <time>2021-08-18T09:16:55Z</time>
      </trkpt>
      <trkpt lat="46.66601" lon="6.1227">
        <ele>1049.6</ele>
        <time>2021-08-18T09:16:57Z</time>
      </trkpt>
      <trkpt lat="46.66596" lon="6.12253">
        <ele>1049</ele>
        <time>2021-08-18T09:16:59Z</time>
      </trkpt>
      <trkpt lat="46.66594" lon="6.12244">
        <ele>1048.7</ele>
        <time>2021-08-18T09:17:00Z</time>
      </trkpt>
      <trkpt lat="46.66588" lon="6.12228">
        <ele>1048.3</ele>
        <time>2021-08-18T09:17:02Z</time>
      </trkpt>
      <trkpt lat="46.66585" lon="6.12222">
        <ele>1048.1</ele>
        <time>2021-08-18T09:17:03Z</time>
      </trkpt>
      <trkpt lat="46.66583" lon="6.12215">
        <ele>1048</ele>
        <time>2021-08-18T09:17:04Z</time>
      </trkpt>
      <trkpt lat="46.66579" lon="6.12208">
        <ele>1047.8</ele>
        <time>2021-08-18T09:17:05Z</time>
      </trkpt>
      <trkpt lat="46.66573" lon="6.12195">
        <ele>1047.4</ele>
        <time>2021-08-18T09:17:07Z</time>
      </trkpt>
      <trkpt lat="46.6657" lon="6.12188">
        <ele>1047.2</ele>
        <time>2021-08-18T09:17:08Z</time>
      </trkpt>
      <trkpt lat="46.66565" lon="6.12175">
        <ele>1046.8</ele>
        <time>2021-08-18T09:17:10Z</time>
      </trkpt>
      <trkpt lat="46.66563" lon="6.12167">
        <ele>1046.6</ele>
        <time>2021-08-18T09:17:11Z</time>
      </trkpt>
      <trkpt lat="46.66557" lon="6.12152">
        <ele>1046.1</ele>
        <time>2021-08-18T09:17:13Z</time>
      </trkpt>
      <trkpt lat="46.66553" lon="6.12145">
        <ele>1046</ele>
        <time>2021-08-18T09:17:14Z</time>
      </trkpt>
      <trkpt lat="46.66547" lon="6.1213">
        <ele>1045.7</ele>
        <time>2021-08-18T09:17:16Z</time>
      </trkpt>
      <trkpt lat="46.66541" lon="6.12117">
        <ele>1045.6</ele>
        <time>2021-08-18T09:17:18Z</time>
      </trkpt>
      <trkpt lat="46.66539" lon="6.12109">
        <ele>1045.6</ele>
        <time>2021-08-18T09:17:19Z</time>
      </trkpt>
      <trkpt lat="46.66539" lon="6.12102">
        <ele>1045.6</ele>
        <time>2021-08-18T09:17:20Z</time>
      </trkpt>
      <trkpt lat="46.66539" lon="6.12089">
        <ele>1045.6</ele>
        <time>2021-08-18T09:17:22Z</time>
      </trkpt>
      <trkpt lat="46.66539" lon="6.12084">
        <ele>1045.7</ele>
        <time>2021-08-18T09:17:23Z</time>
      </trkpt>
      <trkpt lat="46.6654" lon="6.1208">
        <ele>1045.7</ele>
        <time>2021-08-18T09:17:24Z</time>
      </trkpt>
      <trkpt lat="46.66539" lon="6.12071">
        <ele>1045.7</ele>
        <time>2021-08-18T09:17:26Z</time>
      </trkpt>
      <trkpt lat="46.66539" lon="6.12063">
        <ele>1045.8</ele>
        <time>2021-08-18T09:17:28Z</time>
      </trkpt>
      <trkpt lat="46.6654" lon="6.12057">
        <ele>1045.8</ele>
        <time>2021-08-18T09:17:30Z</time>
      </trkpt>
      <trkpt lat="46.66539" lon="6.12055">
        <ele>1045.8</ele>
        <time>2021-08-18T09:17:31Z</time>
      </trkpt>
      <trkpt lat="46.66538" lon="6.12053">
        <ele>1045.9</ele>
        <time>2021-08-18T09:17:32Z</time>
      </trkpt>
      <trkpt lat="46.66536" lon="6.12048">
        <ele>1045.9</ele>
        <time>2021-08-18T09:17:33Z</time>
      </trkpt>
      <trkpt lat="46.66535" lon="6.12047">
        <ele>1045.9</ele>
        <time>2021-08-18T09:17:34Z</time>
      </trkpt>
      <trkpt lat="46.66534" lon="6.12041">
        <ele>1046</ele>
        <time>2021-08-18T09:17:36Z</time>
      </trkpt>
      <trkpt lat="46.66533" lon="6.12034">
        <ele>1046.1</ele>
        <time>2021-08-18T09:17:37Z</time>
      </trkpt>
      <trkpt lat="46.66533" lon="6.1203">
        <ele>1046.1</ele>
        <time>2021-08-18T09:17:39Z</time>
      </trkpt>
      <trkpt lat="46.66533" lon="6.12025">
        <ele>1046.1</ele>
        <time>2021-08-18T09:17:40Z</time>
      </trkpt>
      <trkpt lat="46.66533" lon="6.1202">
        <ele>1046.1</ele>
        <time>2021-08-18T09:17:41Z</time>
      </trkpt>
      <trkpt lat="46.66532" lon="6.12015">
        <ele>1046.2</ele>
        <time>2021-08-18T09:17:43Z</time>
      </trkpt>
      <trkpt lat="46.66533" lon="6.1201">
        <ele>1046.2</ele>
        <time>2021-08-18T09:17:45Z</time>
      </trkpt>
      <trkpt lat="46.66534" lon="6.12005">
        <ele>1046.2</ele>
        <time>2021-08-18T09:17:46Z</time>
      </trkpt>
      <trkpt lat="46.66535" lon="6.12">
        <ele>1046.2</ele>
        <time>2021-08-18T09:17:47Z</time>
      </trkpt>
      <trkpt lat="46.66536" lon="6.11993">
        <ele>1046.2</ele>
        <time>2021-08-18T09:17:49Z</time>
      </trkpt>
      <trkpt lat="46.66537" lon="6.11988">
        <ele>1046.2</ele>
        <time>2021-08-18T09:17:50Z</time>
      </trkpt>
      <trkpt lat="46.66537" lon="6.11984">
        <ele>1046.2</ele>
        <time>2021-08-18T09:17:51Z</time>
      </trkpt>
      <trkpt lat="46.66537" lon="6.11982">
        <ele>1046.2</ele>
        <time>2021-08-18T09:17:52Z</time>
      </trkpt>
      <trkpt lat="46.66536" lon="6.11978">
        <ele>1046.2</ele>
        <time>2021-08-18T09:17:53Z</time>
      </trkpt>
      <trkpt lat="46.66535" lon="6.11972">
        <ele>1046.2</ele>
        <time>2021-08-18T09:17:55Z</time>
      </trkpt>
      <trkpt lat="46.66533" lon="6.11966">
        <ele>1046.1</ele>
        <time>2021-08-18T09:17:57Z</time>
      </trkpt>
      <trkpt lat="46.66532" lon="6.11961">
        <ele>1046.1</ele>
        <time>2021-08-18T09:17:58Z</time>
      </trkpt>
      <trkpt lat="46.66532" lon="6.11959">
        <ele>1046.1</ele>
        <time>2021-08-18T09:17:59Z</time>
      </trkpt>
      <trkpt lat="46.66532" lon="6.11954">
        <ele>1046.1</ele>
        <time>2021-08-18T09:18:01Z</time>
      </trkpt>
      <trkpt lat="46.66531" lon="6.11948">
        <ele>1046</ele>
        <time>2021-08-18T09:18:02Z</time>
      </trkpt>
      <trkpt lat="46.6653" lon="6.11946">
        <ele>1046</ele>
        <time>2021-08-18T09:18:03Z</time>
      </trkpt>
      <trkpt lat="46.66529" lon="6.11941">
        <ele>1046</ele>
        <time>2021-08-18T09:18:05Z</time>
      </trkpt>
      <trkpt lat="46.66528" lon="6.11939">
        <ele>1045.9</ele>
        <time>2021-08-18T09:18:06Z</time>
      </trkpt>
      <trkpt lat="46.66527" lon="6.11935">
        <ele>1045.9</ele>
        <time>2021-08-18T09:18:07Z</time>
      </trkpt>
      <trkpt lat="46.66525" lon="6.1193">
        <ele>1045.8</ele>
        <time>2021-08-18T09:18:09Z</time>
      </trkpt>
      <trkpt lat="46.66525" lon="6.11925">
        <ele>1045.8</ele>
        <time>2021-08-18T09:18:10Z</time>
      </trkpt>
      <trkpt lat="46.66523" lon="6.11919">
        <ele>1045.8</ele>
        <time>2021-08-18T09:18:11Z</time>
      </trkpt>
      <trkpt lat="46.66521" lon="6.11914">
        <ele>1045.7</ele>
        <time>2021-08-18T09:18:12Z</time>
      </trkpt>
      <trkpt lat="46.66517" lon="6.11905">
        <ele>1045.6</ele>
        <time>2021-08-18T09:18:14Z</time>
      </trkpt>
      <trkpt lat="46.66514" lon="6.11896">
        <ele>1045.4</ele>
        <time>2021-08-18T09:18:15Z</time>
      </trkpt>
      <trkpt lat="46.66511" lon="6.1189">
        <ele>1045.3</ele>
        <time>2021-08-18T09:18:16Z</time>
      </trkpt>
      <trkpt lat="46.66506" lon="6.11882">
        <ele>1045.1</ele>
        <time>2021-08-18T09:18:18Z</time>
      </trkpt>
      <trkpt lat="46.66504" lon="6.11876">
        <ele>1045.1</ele>
        <time>2021-08-18T09:18:19Z</time>
      </trkpt>
      <trkpt lat="46.66499" lon="6.11869">
        <ele>1044.9</ele>
        <time>2021-08-18T09:18:20Z</time>
      </trkpt>
      <trkpt lat="46.66496" lon="6.11861">
        <ele>1044.8</ele>
        <time>2021-08-18T09:18:22Z</time>
      </trkpt>
      <trkpt lat="46.66493" lon="6.11855">
        <ele>1044.6</ele>
        <time>2021-08-18T09:18:23Z</time>
      </trkpt>
      <trkpt lat="46.6649" lon="6.11848">
        <ele>1044.5</ele>
        <time>2021-08-18T09:18:24Z</time>
      </trkpt>
      <trkpt lat="46.66486" lon="6.11841">
        <ele>1044.3</ele>
        <time>2021-08-18T09:18:26Z</time>
      </trkpt>
      <trkpt lat="46.66483" lon="6.11837">
        <ele>1044.2</ele>
        <time>2021-08-18T09:18:27Z</time>
      </trkpt>
      <trkpt lat="46.66478" lon="6.11829">
        <ele>1043.9</ele>
        <time>2021-08-18T09:18:28Z</time>
      </trkpt>
      <trkpt lat="46.66471" lon="6.1182">
        <ele>1043.7</ele>
        <time>2021-08-18T09:18:30Z</time>
      </trkpt>
      <trkpt lat="46.66468" lon="6.11814">
        <ele>1043.5</ele>
        <time>2021-08-18T09:18:31Z</time>
      </trkpt>
      <trkpt lat="46.66462" lon="6.11802">
        <ele>1043.4</ele>
        <time>2021-08-18T09:18:33Z</time>
      </trkpt>
      <trkpt lat="46.6646" lon="6.11799">
        <ele>1043.3</ele>
        <time>2021-08-18T09:18:34Z</time>
      </trkpt>
      <trkpt lat="46.66456" lon="6.11792">
        <ele>1043.3</ele>
        <time>2021-08-18T09:18:36Z</time>
      </trkpt>
      <trkpt lat="46.66454" lon="6.11789">
        <ele>1043.2</ele>
        <time>2021-08-18T09:18:37Z</time>
      </trkpt>
      <trkpt lat="46.66452" lon="6.11785">
        <ele>1043.2</ele>
        <time>2021-08-18T09:18:38Z</time>
      </trkpt>
      <trkpt lat="46.66451" lon="6.11783">
        <ele>1043.2</ele>
        <time>2021-08-18T09:18:39Z</time>
      </trkpt>
      <trkpt lat="46.6645" lon="6.11779">
        <ele>1043.2</ele>
        <time>2021-08-18T09:18:41Z</time>
      </trkpt>
      <trkpt lat="46.66449" lon="6.11777">
        <ele>1043.2</ele>
        <time>2021-08-18T09:18:42Z</time>
      </trkpt>
      <trkpt lat="46.66449" lon="6.11772">
        <ele>1043.3</ele>
        <time>2021-08-18T09:18:43Z</time>
      </trkpt>
      <trkpt lat="46.66448" lon="6.11771">
        <ele>1043.3</ele>
        <time>2021-08-18T09:18:44Z</time>
      </trkpt>
      <trkpt lat="46.66447" lon="6.11766">
        <ele>1043.3</ele>
        <time>2021-08-18T09:18:45Z</time>
      </trkpt>
      <trkpt lat="46.66443" lon="6.11759">
        <ele>1043.5</ele>
        <time>2021-08-18T09:18:47Z</time>
      </trkpt>
      <trkpt lat="46.66441" lon="6.11754">
        <ele>1043.6</ele>
        <time>2021-08-18T09:18:48Z</time>
      </trkpt>
      <trkpt lat="46.66438" lon="6.1175">
        <ele>1043.8</ele>
        <time>2021-08-18T09:18:49Z</time>
      </trkpt>
      <trkpt lat="46.66435" lon="6.11747">
        <ele>1043.9</ele>
        <time>2021-08-18T09:18:51Z</time>
      </trkpt>
      <trkpt lat="46.66435" lon="6.11746">
        <ele>1044</ele>
        <time>2021-08-18T09:18:52Z</time>
      </trkpt>
      <trkpt lat="46.66431" lon="6.11743">
        <ele>1044.2</ele>
        <time>2021-08-18T09:18:54Z</time>
      </trkpt>
      <trkpt lat="46.66427" lon="6.1174">
        <ele>1044.4</ele>
        <time>2021-08-18T09:18:56Z</time>
      </trkpt>
      <trkpt lat="46.66425" lon="6.11736">
        <ele>1044.6</ele>
        <time>2021-08-18T09:18:57Z</time>
      </trkpt>
      <trkpt lat="46.66425" lon="6.11735">
        <ele>1044.7</ele>
        <time>2021-08-18T09:18:58Z</time>
      </trkpt>
      <trkpt lat="46.66423" lon="6.11732">
        <ele>1044.8</ele>
        <time>2021-08-18T09:19:00Z</time>
      </trkpt>
      <trkpt lat="46.66423" lon="6.1173">
        <ele>1044.9</ele>
        <time>2021-08-18T09:19:01Z</time>
      </trkpt>
      <trkpt lat="46.6642" lon="6.11727">
        <ele>1045.1</ele>
        <time>2021-08-18T09:19:02Z</time>
      </trkpt>
      <trkpt lat="46.66419" lon="6.11725">
        <ele>1045.2</ele>
        <time>2021-08-18T09:19:03Z</time>
      </trkpt>
      <trkpt lat="46.66415" lon="6.1172">
        <ele>1045.5</ele>
        <time>2021-08-18T09:19:05Z</time>
      </trkpt>
      <trkpt lat="46.66414" lon="6.11719">
        <ele>1045.6</ele>
        <time>2021-08-18T09:19:06Z</time>
      </trkpt>
      <trkpt lat="46.66413" lon="6.11718">
        <ele>1045.7</ele>
        <time>2021-08-18T09:19:07Z</time>
      </trkpt>
      <trkpt lat="46.6641" lon="6.11714">
        <ele>1045.9</ele>
        <time>2021-08-18T09:19:09Z</time>
      </trkpt>
      <trkpt lat="46.66408" lon="6.11712">
        <ele>1046</ele>
        <time>2021-08-18T09:19:10Z</time>
      </trkpt>
      <trkpt lat="46.66405" lon="6.11709">
        <ele>1046.1</ele>
        <time>2021-08-18T09:19:11Z</time>
      </trkpt>
      <trkpt lat="46.66404" lon="6.11708">
        <ele>1046.2</ele>
        <time>2021-08-18T09:19:12Z</time>
      </trkpt>
      <trkpt lat="46.66404" lon="6.11706">
        <ele>1046.2</ele>
        <time>2021-08-18T09:19:13Z</time>
      </trkpt>
      <trkpt lat="46.66403" lon="6.11705">
        <ele>1046.3</ele>
        <time>2021-08-18T09:19:14Z</time>
      </trkpt>
      <trkpt lat="46.664" lon="6.11702">
        <ele>1046.4</ele>
        <time>2021-08-18T09:19:16Z</time>
      </trkpt>
      <trkpt lat="46.66399" lon="6.11701">
        <ele>1046.4</ele>
        <time>2021-08-18T09:19:17Z</time>
      </trkpt>
      <trkpt lat="46.66396" lon="6.11698">
        <ele>1046.5</ele>
        <time>2021-08-18T09:19:19Z</time>
      </trkpt>
      <trkpt lat="46.66395" lon="6.11697">
        <ele>1046.8</ele>
        <time>2021-08-18T09:19:20Z</time>
      </trkpt>
      <trkpt lat="46.66394" lon="6.11694">
        <ele>1046.9</ele>
        <time>2021-08-18T09:19:22Z</time>
      </trkpt>
      <trkpt lat="46.66392" lon="6.11692">
        <ele>1047</ele>
        <time>2021-08-18T09:19:23Z</time>
      </trkpt>
      <trkpt lat="46.66392" lon="6.11691">
        <ele>1047</ele>
        <time>2021-08-18T09:19:25Z</time>
      </trkpt>
      <trkpt lat="46.66392" lon="6.1169">
        <ele>1047</ele>
        <time>2021-08-18T09:19:27Z</time>
      </trkpt>
      <trkpt lat="46.66391" lon="6.1169">
        <ele>1047.1</ele>
        <time>2021-08-18T09:19:28Z</time>
      </trkpt>
      <trkpt lat="46.66391" lon="6.11689">
        <ele>1047.1</ele>
        <time>2021-08-18T09:19:30Z</time>
      </trkpt>
      <trkpt lat="46.66391" lon="6.11689">
        <ele>1047.1</ele>
        <time>2021-08-18T09:19:31Z</time>
      </trkpt>
      <trkpt lat="46.6639" lon="6.11688">
        <ele>1047.2</ele>
        <time>2021-08-18T09:19:32Z</time>
      </trkpt>
      <trkpt lat="46.6639" lon="6.11688">
        <ele>1047.2</ele>
        <time>2021-08-18T09:19:33Z</time>
      </trkpt>
      <trkpt lat="46.66388" lon="6.11689">
        <ele>1047.3</ele>
        <time>2021-08-18T09:19:35Z</time>
      </trkpt>
      <trkpt lat="46.66387" lon="6.11691">
        <ele>1047.4</ele>
        <time>2021-08-18T09:19:37Z</time>
      </trkpt>
      <trkpt lat="46.66386" lon="6.11692">
        <ele>1047.5</ele>
        <time>2021-08-18T09:19:38Z</time>
      </trkpt>
      <trkpt lat="46.66384" lon="6.11694">
        <ele>1047.7</ele>
        <time>2021-08-18T09:19:40Z</time>
      </trkpt>
      <trkpt lat="46.66381" lon="6.11697">
        <ele>1047.9</ele>
        <time>2021-08-18T09:19:42Z</time>
      </trkpt>
      <trkpt lat="46.6638" lon="6.11698">
        <ele>1048</ele>
        <time>2021-08-18T09:19:43Z</time>
      </trkpt>
      <trkpt lat="46.6638" lon="6.117">
        <ele>1048.1</ele>
        <time>2021-08-18T09:19:44Z</time>
      </trkpt>
      <trkpt lat="46.66378" lon="6.11702">
        <ele>1048.3</ele>
        <time>2021-08-18T09:19:46Z</time>
      </trkpt>
      <trkpt lat="46.66377" lon="6.11702">
        <ele>1048.4</ele>
        <time>2021-08-18T09:19:47Z</time>
      </trkpt>
      <trkpt lat="46.66375" lon="6.11703">
        <ele>1048.5</ele>
        <time>2021-08-18T09:19:48Z</time>
      </trkpt>
      <trkpt lat="46.66374" lon="6.11704">
        <ele>1048.6</ele>
        <time>2021-08-18T09:19:49Z</time>
      </trkpt>
      <trkpt lat="46.66373" lon="6.11705">
        <ele>1048.7</ele>
        <time>2021-08-18T09:19:50Z</time>
      </trkpt>
      <trkpt lat="46.66371" lon="6.11706">
        <ele>1048.9</ele>
        <time>2021-08-18T09:19:52Z</time>
      </trkpt>
      <trkpt lat="46.6637" lon="6.11707">
        <ele>1048.9</ele>
        <time>2021-08-18T09:19:53Z</time>
      </trkpt>
      <trkpt lat="46.66371" lon="6.11708">
        <ele>1049</ele>
        <time>2021-08-18T09:19:54Z</time>
      </trkpt>
      <trkpt lat="46.66371" lon="6.11709">
        <ele>1049.1</ele>
        <time>2021-08-18T09:19:55Z</time>
      </trkpt>
      <trkpt lat="46.6637" lon="6.1171">
        <ele>1049.2</ele>
        <time>2021-08-18T09:19:57Z</time>
      </trkpt>
      <trkpt lat="46.6637" lon="6.11711">
        <ele>1049.2</ele>
        <time>2021-08-18T09:19:58Z</time>
      </trkpt>
      <trkpt lat="46.66367" lon="6.11713">
        <ele>1049.5</ele>
        <time>2021-08-18T09:19:59Z</time>
      </trkpt>
      <trkpt lat="46.66365" lon="6.11716">
        <ele>1049.8</ele>
        <time>2021-08-18T09:20:00Z</time>
      </trkpt>
      <trkpt lat="46.66362" lon="6.11718">
        <ele>1050</ele>
        <time>2021-08-18T09:20:01Z</time>
      </trkpt>
      <trkpt lat="46.66359" lon="6.1172">
        <ele>1050.3</ele>
        <time>2021-08-18T09:20:03Z</time>
      </trkpt>
      <trkpt lat="46.66357" lon="6.11723">
        <ele>1050.5</ele>
        <time>2021-08-18T09:20:15Z</time>
      </trkpt>
      <trkpt lat="46.66354" lon="6.11725">
        <ele>1050.8</ele>
        <time>2021-08-18T09:20:17Z</time>
      </trkpt>
      <trkpt lat="46.66352" lon="6.11727">
        <ele>1051</ele>
        <time>2021-08-18T09:20:18Z</time>
      </trkpt>
      <trkpt lat="46.66351" lon="6.11728">
        <ele>1051.1</ele>
        <time>2021-08-18T09:20:19Z</time>
      </trkpt>
      <trkpt lat="46.6635" lon="6.1173">
        <ele>1051.2</ele>
        <time>2021-08-18T09:20:20Z</time>
      </trkpt>
      <trkpt lat="46.66348" lon="6.11732">
        <ele>1051.4</ele>
        <time>2021-08-18T09:20:22Z</time>
      </trkpt>
      <trkpt lat="46.66347" lon="6.11736">
        <ele>1051.6</ele>
        <time>2021-08-18T09:20:23Z</time>
      </trkpt>
      <trkpt lat="46.66347" lon="6.11737">
        <ele>1051.7</ele>
        <time>2021-08-18T09:20:24Z</time>
      </trkpt>
      <trkpt lat="46.66346" lon="6.1174">
        <ele>1051.9</ele>
        <time>2021-08-18T09:20:25Z</time>
      </trkpt>
      <trkpt lat="46.66345" lon="6.11742">
        <ele>1052</ele>
        <time>2021-08-18T09:20:27Z</time>
      </trkpt>
      <trkpt lat="46.66344" lon="6.11744">
        <ele>1052.2</ele>
        <time>2021-08-18T09:20:28Z</time>
      </trkpt>
      <trkpt lat="46.66343" lon="6.11746">
        <ele>1052.3</ele>
        <time>2021-08-18T09:20:30Z</time>
      </trkpt>
      <trkpt lat="46.66341" lon="6.11747">
        <ele>1052.5</ele>
        <time>2021-08-18T09:20:31Z</time>
      </trkpt>
      <trkpt lat="46.6634" lon="6.11749">
        <ele>1052.6</ele>
        <time>2021-08-18T09:20:32Z</time>
      </trkpt>
      <trkpt lat="46.66338" lon="6.1175">
        <ele>1052.8</ele>
        <time>2021-08-18T09:20:33Z</time>
      </trkpt>
      <trkpt lat="46.66337" lon="6.11752">
        <ele>1052.9</ele>
        <time>2021-08-18T09:20:34Z</time>
      </trkpt>
      <trkpt lat="46.66335" lon="6.11753">
        <ele>1053.1</ele>
        <time>2021-08-18T09:20:35Z</time>
      </trkpt>
      <trkpt lat="46.66334" lon="6.11755">
        <ele>1053.2</ele>
        <time>2021-08-18T09:20:37Z</time>
      </trkpt>
      <trkpt lat="46.66332" lon="6.11756">
        <ele>1053.4</ele>
        <time>2021-08-18T09:20:49Z</time>
      </trkpt>
      <trkpt lat="46.66331" lon="6.11758">
        <ele>1053.5</ele>
        <time>2021-08-18T09:20:51Z</time>
      </trkpt>
      <trkpt lat="46.66329" lon="6.11759">
        <ele>1053.7</ele>
        <time>2021-08-18T09:20:52Z</time>
      </trkpt>
      <trkpt lat="46.66328" lon="6.11761">
        <ele>1053.9</ele>
        <time>2021-08-18T09:20:53Z</time>
      </trkpt>
      <trkpt lat="46.66325" lon="6.11762">
        <ele>1054.1</ele>
        <time>2021-08-18T09:20:54Z</time>
      </trkpt>
      <trkpt lat="46.66324" lon="6.11762">
        <ele>1054.2</ele>
        <time>2021-08-18T09:20:55Z</time>
      </trkpt>
      <trkpt lat="46.66322" lon="6.11763">
        <ele>1054.4</ele>
        <time>2021-08-18T09:20:56Z</time>
      </trkpt>
      <trkpt lat="46.66321" lon="6.11764">
        <ele>1054.6</ele>
        <time>2021-08-18T09:20:57Z</time>
      </trkpt>
      <trkpt lat="46.66318" lon="6.11765">
        <ele>1054.9</ele>
        <time>2021-08-18T09:20:59Z</time>
      </trkpt>
      <trkpt lat="46.66317" lon="6.11764">
        <ele>1055</ele>
        <time>2021-08-18T09:21:00Z</time>
      </trkpt>
      <trkpt lat="46.66314" lon="6.11764">
        <ele>1055.3</ele>
        <time>2021-08-18T09:21:02Z</time>
      </trkpt>
      <trkpt lat="46.66313" lon="6.11763">
        <ele>1055.3</ele>
        <time>2021-08-18T09:21:03Z</time>
      </trkpt>
      <trkpt lat="46.66312" lon="6.11763">
        <ele>1055.5</ele>
        <time>2021-08-18T09:21:04Z</time>
      </trkpt>
      <trkpt lat="46.66309" lon="6.11763">
        <ele>1055.7</ele>
        <time>2021-08-18T09:21:06Z</time>
      </trkpt>
      <trkpt lat="46.66305" lon="6.11762">
        <ele>1056.1</ele>
        <time>2021-08-18T09:21:08Z</time>
      </trkpt>
      <trkpt lat="46.66303" lon="6.11761">
        <ele>1056.4</ele>
        <time>2021-08-18T09:21:10Z</time>
      </trkpt>
      <trkpt lat="46.66302" lon="6.11761">
        <ele>1056.5</ele>
        <time>2021-08-18T09:21:11Z</time>
      </trkpt>
      <trkpt lat="46.66301" lon="6.1176">
        <ele>1056.7</ele>
        <time>2021-08-18T09:21:12Z</time>
      </trkpt>
      <trkpt lat="46.66298" lon="6.11759">
        <ele>1057</ele>
        <time>2021-08-18T09:21:14Z</time>
      </trkpt>
      <trkpt lat="46.66296" lon="6.11761">
        <ele>1057.2</ele>
        <time>2021-08-18T09:21:15Z</time>
      </trkpt>
      <trkpt lat="46.66297" lon="6.11762">
        <ele>1057.2</ele>
        <time>2021-08-18T09:21:17Z</time>
      </trkpt>
      <trkpt lat="46.66296" lon="6.11763">
        <ele>1057.4</ele>
        <time>2021-08-18T09:21:18Z</time>
      </trkpt>
      <trkpt lat="46.66294" lon="6.11763">
        <ele>1057.5</ele>
        <time>2021-08-18T09:21:19Z</time>
      </trkpt>
      <trkpt lat="46.66291" lon="6.11763">
        <ele>1057.8</ele>
        <time>2021-08-18T09:21:21Z</time>
      </trkpt>
      <trkpt lat="46.6629" lon="6.11762">
        <ele>1057.9</ele>
        <time>2021-08-18T09:21:22Z</time>
      </trkpt>
      <trkpt lat="46.66288" lon="6.1176">
        <ele>1058.2</ele>
        <time>2021-08-18T09:21:24Z</time>
      </trkpt>
      <trkpt lat="46.66287" lon="6.1176">
        <ele>1058.4</ele>
        <time>2021-08-18T09:21:25Z</time>
      </trkpt>
      <trkpt lat="46.66285" lon="6.11759">
        <ele>1058.5</ele>
        <time>2021-08-18T09:21:26Z</time>
      </trkpt>
      <trkpt lat="46.66285" lon="6.11759">
        <ele>1058.5</ele>
        <time>2021-08-18T09:21:27Z</time>
      </trkpt>
      <trkpt lat="46.66285" lon="6.11759">
        <ele>1058.5</ele>
        <time>2021-08-18T09:21:28Z</time>
      </trkpt>
      <trkpt lat="46.66285" lon="6.11758">
        <ele>1058.6</ele>
        <time>2021-08-18T09:21:29Z</time>
      </trkpt>
      <trkpt lat="46.66285" lon="6.11758">
        <ele>1058.6</ele>
        <time>2021-08-18T09:21:30Z</time>
      </trkpt>
      <trkpt lat="46.66285" lon="6.11757">
        <ele>1058.7</ele>
        <time>2021-08-18T09:21:31Z</time>
      </trkpt>
      <trkpt lat="46.66284" lon="6.11757">
        <ele>1058.7</ele>
        <time>2021-08-18T09:21:32Z</time>
      </trkpt>
      <trkpt lat="46.66283" lon="6.11756">
        <ele>1058.8</ele>
        <time>2021-08-18T09:21:34Z</time>
      </trkpt>
      <trkpt lat="46.66282" lon="6.11756">
        <ele>1058.9</ele>
        <time>2021-08-18T09:21:35Z</time>
      </trkpt>
      <trkpt lat="46.66245" lon="6.11736">
        <ele>1062</ele>
        <time>2021-08-18T09:22:01Z</time>
      </trkpt>
      <trkpt lat="46.66243" lon="6.11733">
        <ele>1062</ele>
        <time>2021-08-18T09:22:03Z</time>
      </trkpt>
      <trkpt lat="46.66241" lon="6.1173">
        <ele>1062</ele>
        <time>2021-08-18T09:22:04Z</time>
      </trkpt>
      <trkpt lat="46.66239" lon="6.11728">
        <ele>1062</ele>
        <time>2021-08-18T09:22:05Z</time>
      </trkpt>
      <trkpt lat="46.66236" lon="6.11725">
        <ele>1062.1</ele>
        <time>2021-08-18T09:22:06Z</time>
      </trkpt>
      <trkpt lat="46.66235" lon="6.11725">
        <ele>1062.1</ele>
        <time>2021-08-18T09:22:07Z</time>
      </trkpt>
      <trkpt lat="46.66231" lon="6.11722">
        <ele>1062.1</ele>
        <time>2021-08-18T09:22:09Z</time>
      </trkpt>
      <trkpt lat="46.66228" lon="6.1172">
        <ele>1062.1</ele>
        <time>2021-08-18T09:22:10Z</time>
      </trkpt>
      <trkpt lat="46.66222" lon="6.11716">
        <ele>1062.1</ele>
        <time>2021-08-18T09:22:12Z</time>
      </trkpt>
      <trkpt lat="46.66218" lon="6.11713">
        <ele>1062.1</ele>
        <time>2021-08-18T09:22:13Z</time>
      </trkpt>
      <trkpt lat="46.66217" lon="6.1171">
        <ele>1062</ele>
        <time>2021-08-18T09:22:14Z</time>
      </trkpt>
      <trkpt lat="46.66216" lon="6.11705">
        <ele>1061.9</ele>
        <time>2021-08-18T09:22:15Z</time>
      </trkpt>
      <trkpt lat="46.66216" lon="6.117">
        <ele>1061.8</ele>
        <time>2021-08-18T09:22:17Z</time>
      </trkpt>
      <trkpt lat="46.66215" lon="6.11694">
        <ele>1061.6</ele>
        <time>2021-08-18T09:22:18Z</time>
      </trkpt>
      <trkpt lat="46.66215" lon="6.11689">
        <ele>1061.4</ele>
        <time>2021-08-18T09:22:20Z</time>
      </trkpt>
      <trkpt lat="46.66215" lon="6.11685">
        <ele>1061.2</ele>
        <time>2021-08-18T09:22:21Z</time>
      </trkpt>
      <trkpt lat="46.66213" lon="6.1168">
        <ele>1061</ele>
        <time>2021-08-18T09:22:22Z</time>
      </trkpt>
      <trkpt lat="46.66211" lon="6.11677">
        <ele>1060.7</ele>
        <time>2021-08-18T09:22:23Z</time>
      </trkpt>
      <trkpt lat="46.66208" lon="6.1167">
        <ele>1060.3</ele>
        <time>2021-08-18T09:22:24Z</time>
      </trkpt>
      <trkpt lat="46.66206" lon="6.11666">
        <ele>1059.9</ele>
        <time>2021-08-18T09:22:25Z</time>
      </trkpt>
      <trkpt lat="46.66204" lon="6.11659">
        <ele>1059.5</ele>
        <time>2021-08-18T09:22:27Z</time>
      </trkpt>
      <trkpt lat="46.66203" lon="6.11653">
        <ele>1059</ele>
        <time>2021-08-18T09:22:28Z</time>
      </trkpt>
      <trkpt lat="46.66202" lon="6.11647">
        <ele>1058.6</ele>
        <time>2021-08-18T09:22:30Z</time>
      </trkpt>
      <trkpt lat="46.66202" lon="6.11641">
        <ele>1058.3</ele>
        <time>2021-08-18T09:22:31Z</time>
      </trkpt>
      <trkpt lat="46.66202" lon="6.11636">
        <ele>1057.9</ele>
        <time>2021-08-18T09:22:32Z</time>
      </trkpt>
      <trkpt lat="46.66202" lon="6.11629">
        <ele>1057.4</ele>
        <time>2021-08-18T09:22:33Z</time>
      </trkpt>
      <trkpt lat="46.66203" lon="6.11623">
        <ele>1056.9</ele>
        <time>2021-08-18T09:22:35Z</time>
      </trkpt>
      <trkpt lat="46.66204" lon="6.11618">
        <ele>1056.5</ele>
        <time>2021-08-18T09:22:36Z</time>
      </trkpt>
      <trkpt lat="46.66204" lon="6.11615">
        <ele>1056.2</ele>
        <time>2021-08-18T09:22:37Z</time>
      </trkpt>
      <trkpt lat="46.66205" lon="6.11612">
        <ele>1056</ele>
        <time>2021-08-18T09:22:39Z</time>
      </trkpt>
      <trkpt lat="46.66206" lon="6.11609">
        <ele>1055.7</ele>
        <time>2021-08-18T09:22:40Z</time>
      </trkpt>
      <trkpt lat="46.66208" lon="6.11604">
        <ele>1055.3</ele>
        <time>2021-08-18T09:22:42Z</time>
      </trkpt>
      <trkpt lat="46.6621" lon="6.11598">
        <ele>1054.7</ele>
        <time>2021-08-18T09:22:43Z</time>
      </trkpt>
      <trkpt lat="46.66211" lon="6.11594">
        <ele>1054.4</ele>
        <time>2021-08-18T09:22:44Z</time>
      </trkpt>
      <trkpt lat="46.66212" lon="6.11587">
        <ele>1053.8</ele>
        <time>2021-08-18T09:22:46Z</time>
      </trkpt>
      <trkpt lat="46.66215" lon="6.11582">
        <ele>1053.3</ele>
        <time>2021-08-18T09:22:47Z</time>
      </trkpt>
      <trkpt lat="46.66219" lon="6.11577">
        <ele>1052.8</ele>
        <time>2021-08-18T09:22:49Z</time>
      </trkpt>
      <trkpt lat="46.66221" lon="6.11574">
        <ele>1052.4</ele>
        <time>2021-08-18T09:22:50Z</time>
      </trkpt>
      <trkpt lat="46.66227" lon="6.11568">
        <ele>1051.6</ele>
        <time>2021-08-18T09:22:52Z</time>
      </trkpt>
      <trkpt lat="46.6623" lon="6.11562">
        <ele>1051.1</ele>
        <time>2021-08-18T09:22:53Z</time>
      </trkpt>
      <trkpt lat="46.66231" lon="6.11559">
        <ele>1050.8</ele>
        <time>2021-08-18T09:22:54Z</time>
      </trkpt>
      <trkpt lat="46.66232" lon="6.11554">
        <ele>1050.4</ele>
        <time>2021-08-18T09:22:55Z</time>
      </trkpt>
      <trkpt lat="46.66232" lon="6.1155">
        <ele>1050</ele>
        <time>2021-08-18T09:22:57Z</time>
      </trkpt>
      <trkpt lat="46.66233" lon="6.11546">
        <ele>1049.7</ele>
        <time>2021-08-18T09:22:58Z</time>
      </trkpt>
      <trkpt lat="46.66231" lon="6.11542">
        <ele>1049.3</ele>
        <time>2021-08-18T09:22:59Z</time>
      </trkpt>
      <trkpt lat="46.6623" lon="6.11536">
        <ele>1048.8</ele>
        <time>2021-08-18T09:23:00Z</time>
      </trkpt>
      <trkpt lat="46.66228" lon="6.11531">
        <ele>1048.3</ele>
        <time>2021-08-18T09:23:02Z</time>
      </trkpt>
      <trkpt lat="46.66226" lon="6.11526">
        <ele>1047.9</ele>
        <time>2021-08-18T09:23:03Z</time>
      </trkpt>
      <trkpt lat="46.66224" lon="6.1152">
        <ele>1047.4</ele>
        <time>2021-08-18T09:23:04Z</time>
      </trkpt>
      <trkpt lat="46.66223" lon="6.11515">
        <ele>1047</ele>
        <time>2021-08-18T09:23:05Z</time>
      </trkpt>
      <trkpt lat="46.66222" lon="6.11508">
        <ele>1046.4</ele>
        <time>2021-08-18T09:23:06Z</time>
      </trkpt>
      <trkpt lat="46.66221" lon="6.115">
        <ele>1045.8</ele>
        <time>2021-08-18T09:23:08Z</time>
      </trkpt>
      <trkpt lat="46.6622" lon="6.11493">
        <ele>1045.2</ele>
        <time>2021-08-18T09:23:09Z</time>
      </trkpt>
      <trkpt lat="46.66219" lon="6.11485">
        <ele>1044.7</ele>
        <time>2021-08-18T09:23:10Z</time>
      </trkpt>
      <trkpt lat="46.66211" lon="6.11465">
        <ele>1043.3</ele>
        <time>2021-08-18T09:23:12Z</time>
      </trkpt>
      <trkpt lat="46.66204" lon="6.11453">
        <ele>1042.9</ele>
        <time>2021-08-18T09:23:14Z</time>
      </trkpt>
      <trkpt lat="46.66197" lon="6.11443">
        <ele>1042.7</ele>
        <time>2021-08-18T09:23:16Z</time>
      </trkpt>
      <trkpt lat="46.66197" lon="6.11436">
        <ele>1042.6</ele>
        <time>2021-08-18T09:23:17Z</time>
      </trkpt>
      <trkpt lat="46.66193" lon="6.11429">
        <ele>1042.5</ele>
        <time>2021-08-18T09:23:19Z</time>
      </trkpt>
      <trkpt lat="46.66191" lon="6.11423">
        <ele>1042.4</ele>
        <time>2021-08-18T09:23:20Z</time>
      </trkpt>
      <trkpt lat="46.66189" lon="6.11417">
        <ele>1042.4</ele>
        <time>2021-08-18T09:23:21Z</time>
      </trkpt>
      <trkpt lat="46.66189" lon="6.11406">
        <ele>1042.2</ele>
        <time>2021-08-18T09:23:22Z</time>
      </trkpt>
      <trkpt lat="46.66188" lon="6.11398">
        <ele>1042.2</ele>
        <time>2021-08-18T09:23:23Z</time>
      </trkpt>
      <trkpt lat="46.66188" lon="6.11389">
        <ele>1042.2</ele>
        <time>2021-08-18T09:23:25Z</time>
      </trkpt>
      <trkpt lat="46.66187" lon="6.11381">
        <ele>1042.2</ele>
        <time>2021-08-18T09:23:26Z</time>
      </trkpt>
      <trkpt lat="46.66186" lon="6.11375">
        <ele>1042.3</ele>
        <time>2021-08-18T09:23:27Z</time>
      </trkpt>
      <trkpt lat="46.66186" lon="6.11367">
        <ele>1042.4</ele>
        <time>2021-08-18T09:23:28Z</time>
      </trkpt>
      <trkpt lat="46.66186" lon="6.11359">
        <ele>1042.6</ele>
        <time>2021-08-18T09:23:30Z</time>
      </trkpt>
      <trkpt lat="46.66186" lon="6.11352">
        <ele>1042.8</ele>
        <time>2021-08-18T09:23:31Z</time>
      </trkpt>
      <trkpt lat="46.66184" lon="6.11343">
        <ele>1043.2</ele>
        <time>2021-08-18T09:23:33Z</time>
      </trkpt>
      <trkpt lat="46.66183" lon="6.11338">
        <ele>1043.5</ele>
        <time>2021-08-18T09:23:34Z</time>
      </trkpt>
      <trkpt lat="46.66183" lon="6.11333">
        <ele>1043.8</ele>
        <time>2021-08-18T09:23:36Z</time>
      </trkpt>
      <trkpt lat="46.66184" lon="6.1133">
        <ele>1044</ele>
        <time>2021-08-18T09:23:37Z</time>
      </trkpt>
      <trkpt lat="46.66184" lon="6.11329">
        <ele>1044</ele>
        <time>2021-08-18T09:23:38Z</time>
      </trkpt>
      <trkpt lat="46.66185" lon="6.11328">
        <ele>1044.1</ele>
        <time>2021-08-18T09:23:40Z</time>
      </trkpt>
      <trkpt lat="46.66184" lon="6.11326">
        <ele>1044.2</ele>
        <time>2021-08-18T09:23:41Z</time>
      </trkpt>
      <trkpt lat="46.66184" lon="6.11326">
        <ele>1044.3</ele>
        <time>2021-08-18T09:23:43Z</time>
      </trkpt>
      <trkpt lat="46.66183" lon="6.11325">
        <ele>1044.4</ele>
        <time>2021-08-18T09:23:45Z</time>
      </trkpt>
      <trkpt lat="46.66182" lon="6.11324">
        <ele>1044.5</ele>
        <time>2021-08-18T09:23:47Z</time>
      </trkpt>
      <trkpt lat="46.66159" lon="6.11227">
        <ele>1050.8</ele>
        <time>2021-08-18T09:25:17Z</time>
      </trkpt>
      <trkpt lat="46.66157" lon="6.11223">
        <ele>1051.1</ele>
        <time>2021-08-18T09:25:18Z</time>
      </trkpt>
      <trkpt lat="46.66157" lon="6.11221">
        <ele>1051.2</ele>
        <time>2021-08-18T09:25:19Z</time>
      </trkpt>
      <trkpt lat="46.66156" lon="6.1122">
        <ele>1051.3</ele>
        <time>2021-08-18T09:25:20Z</time>
      </trkpt>
      <trkpt lat="46.66154" lon="6.11216">
        <ele>1051.6</ele>
        <time>2021-08-18T09:25:22Z</time>
      </trkpt>
      <trkpt lat="46.66153" lon="6.11214">
        <ele>1051.7</ele>
        <time>2021-08-18T09:25:23Z</time>
      </trkpt>
      <trkpt lat="46.66152" lon="6.11213">
        <ele>1051.8</ele>
        <time>2021-08-18T09:25:24Z</time>
      </trkpt>
      <trkpt lat="46.66151" lon="6.11212">
        <ele>1051.9</ele>
        <time>2021-08-18T09:25:25Z</time>
      </trkpt>
      <trkpt lat="46.66148" lon="6.11209">
        <ele>1052.1</ele>
        <time>2021-08-18T09:25:27Z</time>
      </trkpt>
      <trkpt lat="46.66147" lon="6.11207">
        <ele>1052.3</ele>
        <time>2021-08-18T09:25:28Z</time>
      </trkpt>
      <trkpt lat="46.66146" lon="6.11206">
        <ele>1052.4</ele>
        <time>2021-08-18T09:25:29Z</time>
      </trkpt>
      <trkpt lat="46.66144" lon="6.11205">
        <ele>1052.5</ele>
        <time>2021-08-18T09:25:30Z</time>
      </trkpt>
      <trkpt lat="46.66144" lon="6.11205">
        <ele>1052.6</ele>
        <time>2021-08-18T09:25:32Z</time>
      </trkpt>
      <trkpt lat="46.66144" lon="6.11204">
        <ele>1052.6</ele>
        <time>2021-08-18T09:25:33Z</time>
      </trkpt>
      <trkpt lat="46.66144" lon="6.11204">
        <ele>1052.6</ele>
        <time>2021-08-18T09:25:34Z</time>
      </trkpt>
      <trkpt lat="46.66144" lon="6.11204">
        <ele>1052.6</ele>
        <time>2021-08-18T09:25:35Z</time>
      </trkpt>
      <trkpt lat="46.66144" lon="6.11203">
        <ele>1052.6</ele>
        <time>2021-08-18T09:25:37Z</time>
      </trkpt>
      <trkpt lat="46.66144" lon="6.11203">
        <ele>1052.6</ele>
        <time>2021-08-18T09:25:38Z</time>
      </trkpt>
      <trkpt lat="46.66144" lon="6.11203">
        <ele>1052.7</ele>
        <time>2021-08-18T09:25:39Z</time>
      </trkpt>
      <trkpt lat="46.66143" lon="6.11203">
        <ele>1052.7</ele>
        <time>2021-08-18T09:25:41Z</time>
      </trkpt>
      <trkpt lat="46.66135" lon="6.1116">
        <ele>1054.9</ele>
        <time>2021-08-18T09:26:06Z</time>
      </trkpt>
      <trkpt lat="46.66133" lon="6.11155">
        <ele>1055.1</ele>
        <time>2021-08-18T09:26:07Z</time>
      </trkpt>
      <trkpt lat="46.66133" lon="6.11153">
        <ele>1055.2</ele>
        <time>2021-08-18T09:26:09Z</time>
      </trkpt>
      <trkpt lat="46.66132" lon="6.11152">
        <ele>1055.3</ele>
        <time>2021-08-18T09:26:10Z</time>
      </trkpt>
      <trkpt lat="46.66132" lon="6.11151">
        <ele>1055.4</ele>
        <time>2021-08-18T09:26:11Z</time>
      </trkpt>
      <trkpt lat="46.66131" lon="6.11149">
        <ele>1055.5</ele>
        <time>2021-08-18T09:26:12Z</time>
      </trkpt>
      <trkpt lat="46.6613" lon="6.11147">
        <ele>1055.6</ele>
        <time>2021-08-18T09:26:13Z</time>
      </trkpt>
      <trkpt lat="46.66129" lon="6.11146">
        <ele>1055.7</ele>
        <time>2021-08-18T09:26:15Z</time>
      </trkpt>
      <trkpt lat="46.66129" lon="6.11145">
        <ele>1055.7</ele>
        <time>2021-08-18T09:26:17Z</time>
      </trkpt>
      <trkpt lat="46.66128" lon="6.11144">
        <ele>1055.8</ele>
        <time>2021-08-18T09:26:18Z</time>
      </trkpt>
      <trkpt lat="46.66128" lon="6.11143">
        <ele>1055.9</ele>
        <time>2021-08-18T09:26:19Z</time>
      </trkpt>
      <trkpt lat="46.66127" lon="6.11139">
        <ele>1056</ele>
        <time>2021-08-18T09:26:21Z</time>
      </trkpt>
      <trkpt lat="46.66127" lon="6.11134">
        <ele>1056.2</ele>
        <time>2021-08-18T09:26:23Z</time>
      </trkpt>
      <trkpt lat="46.66127" lon="6.11129">
        <ele>1056.5</ele>
        <time>2021-08-18T09:26:25Z</time>
      </trkpt>
      <trkpt lat="46.66126" lon="6.11124">
        <ele>1056.6</ele>
        <time>2021-08-18T09:26:27Z</time>
      </trkpt>
      <trkpt lat="46.66123" lon="6.11118">
        <ele>1056.8</ele>
        <time>2021-08-18T09:26:29Z</time>
      </trkpt>
      <trkpt lat="46.66121" lon="6.11114">
        <ele>1056.9</ele>
        <time>2021-08-18T09:26:30Z</time>
      </trkpt>
      <trkpt lat="46.6612" lon="6.1111">
        <ele>1057</ele>
        <time>2021-08-18T09:26:31Z</time>
      </trkpt>
      <trkpt lat="46.66118" lon="6.11106">
        <ele>1057.1</ele>
        <time>2021-08-18T09:26:32Z</time>
      </trkpt>
      <trkpt lat="46.66116" lon="6.11101">
        <ele>1057.3</ele>
        <time>2021-08-18T09:26:34Z</time>
      </trkpt>
      <trkpt lat="46.66115" lon="6.11097">
        <ele>1057.3</ele>
        <time>2021-08-18T09:26:35Z</time>
      </trkpt>
      <trkpt lat="46.66114" lon="6.11093">
        <ele>1057.4</ele>
        <time>2021-08-18T09:26:36Z</time>
      </trkpt>
      <trkpt lat="46.66113" lon="6.11092">
        <ele>1057.5</ele>
        <time>2021-08-18T09:26:37Z</time>
      </trkpt>
      <trkpt lat="46.66111" lon="6.11087">
        <ele>1057.6</ele>
        <time>2021-08-18T09:26:39Z</time>
      </trkpt>
      <trkpt lat="46.66109" lon="6.11084">
        <ele>1057.6</ele>
        <time>2021-08-18T09:26:40Z</time>
      </trkpt>
      <trkpt lat="46.66108" lon="6.11079">
        <ele>1057.7</ele>
        <time>2021-08-18T09:26:42Z</time>
      </trkpt>
      <trkpt lat="46.66107" lon="6.11078">
        <ele>1057.8</ele>
        <time>2021-08-18T09:26:43Z</time>
      </trkpt>
      <trkpt lat="46.66103" lon="6.11076">
        <ele>1057.9</ele>
        <time>2021-08-18T09:26:45Z</time>
      </trkpt>
      <trkpt lat="46.66101" lon="6.11075">
        <ele>1058</ele>
        <time>2021-08-18T09:26:46Z</time>
      </trkpt>
      <trkpt lat="46.66099" lon="6.11075">
        <ele>1058.1</ele>
        <time>2021-08-18T09:26:47Z</time>
      </trkpt>
      <trkpt lat="46.66097" lon="6.11073">
        <ele>1058.2</ele>
        <time>2021-08-18T09:26:48Z</time>
      </trkpt>
      <trkpt lat="46.66095" lon="6.11071">
        <ele>1058.3</ele>
        <time>2021-08-18T09:26:50Z</time>
      </trkpt>
      <trkpt lat="46.66092" lon="6.1107">
        <ele>1058.4</ele>
        <time>2021-08-18T09:26:51Z</time>
      </trkpt>
      <trkpt lat="46.6609" lon="6.11069">
        <ele>1058.5</ele>
        <time>2021-08-18T09:26:52Z</time>
      </trkpt>
      <trkpt lat="46.66088" lon="6.11067">
        <ele>1058.6</ele>
        <time>2021-08-18T09:26:53Z</time>
      </trkpt>
      <trkpt lat="46.66085" lon="6.11061">
        <ele>1058.8</ele>
        <time>2021-08-18T09:26:55Z</time>
      </trkpt>
      <trkpt lat="46.66084" lon="6.1106">
        <ele>1058.9</ele>
        <time>2021-08-18T09:26:56Z</time>
      </trkpt>
      <trkpt lat="46.66084" lon="6.11058">
        <ele>1059</ele>
        <time>2021-08-18T09:26:57Z</time>
      </trkpt>
      <trkpt lat="46.66082" lon="6.11053">
        <ele>1059.2</ele>
        <time>2021-08-18T09:26:59Z</time>
      </trkpt>
      <trkpt lat="46.6608" lon="6.11048">
        <ele>1059.3</ele>
        <time>2021-08-18T09:27:01Z</time>
      </trkpt>
      <trkpt lat="46.6608" lon="6.11043">
        <ele>1059.5</ele>
        <time>2021-08-18T09:27:02Z</time>
      </trkpt>
      <trkpt lat="46.6608" lon="6.1104">
        <ele>1059.6</ele>
        <time>2021-08-18T09:27:03Z</time>
      </trkpt>
      <trkpt lat="46.66079" lon="6.11035">
        <ele>1059.8</ele>
        <time>2021-08-18T09:27:05Z</time>
      </trkpt>
      <trkpt lat="46.66078" lon="6.1103">
        <ele>1060.1</ele>
        <time>2021-08-18T09:27:06Z</time>
      </trkpt>
      <trkpt lat="46.66077" lon="6.11029">
        <ele>1060.1</ele>
        <time>2021-08-18T09:27:07Z</time>
      </trkpt>
      <trkpt lat="46.66076" lon="6.11024">
        <ele>1060.4</ele>
        <time>2021-08-18T09:27:09Z</time>
      </trkpt>
      <trkpt lat="46.66074" lon="6.1102">
        <ele>1060.6</ele>
        <time>2021-08-18T09:27:10Z</time>
      </trkpt>
      <trkpt lat="46.66071" lon="6.11018">
        <ele>1060.9</ele>
        <time>2021-08-18T09:27:11Z</time>
      </trkpt>
      <trkpt lat="46.66067" lon="6.11014">
        <ele>1061.2</ele>
        <time>2021-08-18T09:27:13Z</time>
      </trkpt>
      <trkpt lat="46.66066" lon="6.11011">
        <ele>1061.4</ele>
        <time>2021-08-18T09:27:14Z</time>
      </trkpt>
      <trkpt lat="46.66064" lon="6.11007">
        <ele>1061.7</ele>
        <time>2021-08-18T09:27:16Z</time>
      </trkpt>
      <trkpt lat="46.66062" lon="6.11004">
        <ele>1061.9</ele>
        <time>2021-08-18T09:27:17Z</time>
      </trkpt>
      <trkpt lat="46.66059" lon="6.11001">
        <ele>1062.1</ele>
        <time>2021-08-18T09:27:19Z</time>
      </trkpt>
      <trkpt lat="46.66057" lon="6.10997">
        <ele>1062.3</ele>
        <time>2021-08-18T09:27:20Z</time>
      </trkpt>
      <trkpt lat="46.66055" lon="6.10992">
        <ele>1062.5</ele>
        <time>2021-08-18T09:27:22Z</time>
      </trkpt>
      <trkpt lat="46.66053" lon="6.1099">
        <ele>1062.6</ele>
        <time>2021-08-18T09:27:23Z</time>
      </trkpt>
      <trkpt lat="46.6605" lon="6.10985">
        <ele>1062.7</ele>
        <time>2021-08-18T09:27:25Z</time>
      </trkpt>
      <trkpt lat="46.66047" lon="6.10982">
        <ele>1062.8</ele>
        <time>2021-08-18T09:27:26Z</time>
      </trkpt>
      <trkpt lat="46.66043" lon="6.10976">
        <ele>1062.9</ele>
        <time>2021-08-18T09:27:28Z</time>
      </trkpt>
      <trkpt lat="46.6604" lon="6.10974">
        <ele>1062.9</ele>
        <time>2021-08-18T09:27:29Z</time>
      </trkpt>
      <trkpt lat="46.66035" lon="6.10971">
        <ele>1063</ele>
        <time>2021-08-18T09:27:31Z</time>
      </trkpt>
      <trkpt lat="46.6603" lon="6.1097">
        <ele>1063</ele>
        <time>2021-08-18T09:27:32Z</time>
      </trkpt>
      <trkpt lat="46.66025" lon="6.10966">
        <ele>1063.1</ele>
        <time>2021-08-18T09:27:34Z</time>
      </trkpt>
      <trkpt lat="46.66024" lon="6.10964">
        <ele>1063.2</ele>
        <time>2021-08-18T09:27:35Z</time>
      </trkpt>
      <trkpt lat="46.66019" lon="6.10961">
        <ele>1063.3</ele>
        <time>2021-08-18T09:27:37Z</time>
      </trkpt>
      <trkpt lat="46.66017" lon="6.10958">
        <ele>1063.4</ele>
        <time>2021-08-18T09:27:38Z</time>
      </trkpt>
      <trkpt lat="46.66013" lon="6.10954">
        <ele>1063.5</ele>
        <time>2021-08-18T09:27:40Z</time>
      </trkpt>
      <trkpt lat="46.66013" lon="6.10953">
        <ele>1063.5</ele>
        <time>2021-08-18T09:27:41Z</time>
      </trkpt>
      <trkpt lat="46.66012" lon="6.10952">
        <ele>1063.5</ele>
        <time>2021-08-18T09:27:43Z</time>
      </trkpt>
      <trkpt lat="46.66011" lon="6.10951">
        <ele>1063.6</ele>
        <time>2021-08-18T09:27:44Z</time>
      </trkpt>
      <trkpt lat="46.6601" lon="6.10949">
        <ele>1063.6</ele>
        <time>2021-08-18T09:27:46Z</time>
      </trkpt>
      <trkpt lat="46.66009" lon="6.10948">
        <ele>1063.6</ele>
        <time>2021-08-18T09:27:47Z</time>
      </trkpt>
      <trkpt lat="46.66008" lon="6.10944">
        <ele>1063.7</ele>
        <time>2021-08-18T09:27:48Z</time>
      </trkpt>
      <trkpt lat="46.66011" lon="6.10939">
        <ele>1063.7</ele>
        <time>2021-08-18T09:27:50Z</time>
      </trkpt>
      <trkpt lat="46.66014" lon="6.10935">
        <ele>1063.8</ele>
        <time>2021-08-18T09:27:51Z</time>
      </trkpt>
      <trkpt lat="46.66015" lon="6.1093">
        <ele>1063.9</ele>
        <time>2021-08-18T09:27:52Z</time>
      </trkpt>
      <trkpt lat="46.66017" lon="6.10925">
        <ele>1063.9</ele>
        <time>2021-08-18T09:27:53Z</time>
      </trkpt>
      <trkpt lat="46.66018" lon="6.1092">
        <ele>1064</ele>
        <time>2021-08-18T09:27:54Z</time>
      </trkpt>
      <trkpt lat="46.66016" lon="6.10916">
        <ele>1064.1</ele>
        <time>2021-08-18T09:27:56Z</time>
      </trkpt>
      <trkpt lat="46.66015" lon="6.10913">
        <ele>1064.1</ele>
        <time>2021-08-18T09:27:57Z</time>
      </trkpt>
      <trkpt lat="46.66013" lon="6.10909">
        <ele>1064.2</ele>
        <time>2021-08-18T09:27:59Z</time>
      </trkpt>
      <trkpt lat="46.66012" lon="6.10903">
        <ele>1064.4</ele>
        <time>2021-08-18T09:28:01Z</time>
      </trkpt>
      <trkpt lat="46.66012" lon="6.109">
        <ele>1064.4</ele>
        <time>2021-08-18T09:28:02Z</time>
      </trkpt>
      <trkpt lat="46.66011" lon="6.10895">
        <ele>1064.5</ele>
        <time>2021-08-18T09:28:04Z</time>
      </trkpt>
      <trkpt lat="46.6601" lon="6.1089">
        <ele>1064.6</ele>
        <time>2021-08-18T09:28:05Z</time>
      </trkpt>
      <trkpt lat="46.6601" lon="6.10889">
        <ele>1064.6</ele>
        <time>2021-08-18T09:28:06Z</time>
      </trkpt>
      <trkpt lat="46.66007" lon="6.10885">
        <ele>1064.6</ele>
        <time>2021-08-18T09:28:08Z</time>
      </trkpt>
      <trkpt lat="46.66006" lon="6.10884">
        <ele>1064.6</ele>
        <time>2021-08-18T09:28:09Z</time>
      </trkpt>
      <trkpt lat="46.66005" lon="6.10883">
        <ele>1064.6</ele>
        <time>2021-08-18T09:28:10Z</time>
      </trkpt>
      <trkpt lat="46.66004" lon="6.10882">
        <ele>1064.6</ele>
        <time>2021-08-18T09:28:11Z</time>
      </trkpt>
      <trkpt lat="46.66002" lon="6.10879">
        <ele>1064.6</ele>
        <time>2021-08-18T09:28:13Z</time>
      </trkpt>
      <trkpt lat="46.66001" lon="6.10876">
        <ele>1064.5</ele>
        <time>2021-08-18T09:28:14Z</time>
      </trkpt>
      <trkpt lat="46.65999" lon="6.10872">
        <ele>1064.4</ele>
        <time>2021-08-18T09:28:15Z</time>
      </trkpt>
      <trkpt lat="46.65997" lon="6.10867">
        <ele>1064.2</ele>
        <time>2021-08-18T09:28:16Z</time>
      </trkpt>
      <trkpt lat="46.65995" lon="6.1086">
        <ele>1063.9</ele>
        <time>2021-08-18T09:28:17Z</time>
      </trkpt>
      <trkpt lat="46.65992" lon="6.1085">
        <ele>1063.4</ele>
        <time>2021-08-18T09:28:19Z</time>
      </trkpt>
      <trkpt lat="46.65986" lon="6.10838">
        <ele>1062.8</ele>
        <time>2021-08-18T09:28:20Z</time>
      </trkpt>
      <trkpt lat="46.65979" lon="6.10823">
        <ele>1062.4</ele>
        <time>2021-08-18T09:28:22Z</time>
      </trkpt>
      <trkpt lat="46.65976" lon="6.10817">
        <ele>1062.3</ele>
        <time>2021-08-18T09:28:23Z</time>
      </trkpt>
      <trkpt lat="46.65969" lon="6.10805">
        <ele>1062.3</ele>
        <time>2021-08-18T09:28:25Z</time>
      </trkpt>
      <trkpt lat="46.65967" lon="6.10798">
        <ele>1062.3</ele>
        <time>2021-08-18T09:28:26Z</time>
      </trkpt>
      <trkpt lat="46.65965" lon="6.10785">
        <ele>1062.5</ele>
        <time>2021-08-18T09:28:29Z</time>
      </trkpt>
      <trkpt lat="46.65963" lon="6.10779">
        <ele>1062.7</ele>
        <time>2021-08-18T09:28:30Z</time>
      </trkpt>
      <trkpt lat="46.6596" lon="6.10771">
        <ele>1062.8</ele>
        <time>2021-08-18T09:28:32Z</time>
      </trkpt>
      <trkpt lat="46.65957" lon="6.10765">
        <ele>1062.9</ele>
        <time>2021-08-18T09:28:33Z</time>
      </trkpt>
      <trkpt lat="46.65955" lon="6.1076">
        <ele>1063</ele>
        <time>2021-08-18T09:28:35Z</time>
      </trkpt>
      <trkpt lat="46.65953" lon="6.10755">
        <ele>1063.1</ele>
        <time>2021-08-18T09:28:36Z</time>
      </trkpt>
      <trkpt lat="46.6595" lon="6.10751">
        <ele>1063.1</ele>
        <time>2021-08-18T09:28:37Z</time>
      </trkpt>
      <trkpt lat="46.65948" lon="6.10746">
        <ele>1063.2</ele>
        <time>2021-08-18T09:28:39Z</time>
      </trkpt>
      <trkpt lat="46.65945" lon="6.10739">
        <ele>1063.3</ele>
        <time>2021-08-18T09:28:41Z</time>
      </trkpt>
      <trkpt lat="46.65944" lon="6.10733">
        <ele>1063.4</ele>
        <time>2021-08-18T09:28:42Z</time>
      </trkpt>
      <trkpt lat="46.6594" lon="6.10726">
        <ele>1063.5</ele>
        <time>2021-08-18T09:28:44Z</time>
      </trkpt>
      <trkpt lat="46.65936" lon="6.10723">
        <ele>1063.7</ele>
        <time>2021-08-18T09:28:45Z</time>
      </trkpt>
      <trkpt lat="46.65934" lon="6.10719">
        <ele>1063.8</ele>
        <time>2021-08-18T09:28:46Z</time>
      </trkpt>
      <trkpt lat="46.65932" lon="6.10712">
        <ele>1064</ele>
        <time>2021-08-18T09:28:48Z</time>
      </trkpt>
      <trkpt lat="46.65932" lon="6.1071">
        <ele>1064</ele>
        <time>2021-08-18T09:28:49Z</time>
      </trkpt>
      <trkpt lat="46.65932" lon="6.10707">
        <ele>1064.1</ele>
        <time>2021-08-18T09:28:50Z</time>
      </trkpt>
      <trkpt lat="46.65931" lon="6.10702">
        <ele>1064.2</ele>
        <time>2021-08-18T09:28:52Z</time>
      </trkpt>
      <trkpt lat="46.65931" lon="6.10698">
        <ele>1064.3</ele>
        <time>2021-08-18T09:28:53Z</time>
      </trkpt>
      <trkpt lat="46.6593" lon="6.10693">
        <ele>1064.3</ele>
        <time>2021-08-18T09:28:54Z</time>
      </trkpt>
      <trkpt lat="46.65927" lon="6.10688">
        <ele>1064.4</ele>
        <time>2021-08-18T09:28:56Z</time>
      </trkpt>
      <trkpt lat="46.65925" lon="6.10683">
        <ele>1064.4</ele>
        <time>2021-08-18T09:28:57Z</time>
      </trkpt>
      <trkpt lat="46.65919" lon="6.10677">
        <ele>1064.4</ele>
        <time>2021-08-18T09:28:58Z</time>
      </trkpt>
      <trkpt lat="46.65914" lon="6.10673">
        <ele>1064.3</ele>
        <time>2021-08-18T09:29:00Z</time>
      </trkpt>
      <trkpt lat="46.65909" lon="6.10669">
        <ele>1064.3</ele>
        <time>2021-08-18T09:29:01Z</time>
      </trkpt>
      <trkpt lat="46.65904" lon="6.10664">
        <ele>1064.2</ele>
        <time>2021-08-18T09:29:02Z</time>
      </trkpt>
      <trkpt lat="46.65897" lon="6.10658">
        <ele>1064.2</ele>
        <time>2021-08-18T09:29:04Z</time>
      </trkpt>
      <trkpt lat="46.65891" lon="6.10651">
        <ele>1064.2</ele>
        <time>2021-08-18T09:29:06Z</time>
      </trkpt>
      <trkpt lat="46.65886" lon="6.10643">
        <ele>1064.3</ele>
        <time>2021-08-18T09:29:08Z</time>
      </trkpt>
      <trkpt lat="46.65882" lon="6.10639">
        <ele>1064.3</ele>
        <time>2021-08-18T09:29:09Z</time>
      </trkpt>
      <trkpt lat="46.65877" lon="6.10635">
        <ele>1064.3</ele>
        <time>2021-08-18T09:29:10Z</time>
      </trkpt>
      <trkpt lat="46.65873" lon="6.1063">
        <ele>1064.3</ele>
        <time>2021-08-18T09:29:11Z</time>
      </trkpt>
      <trkpt lat="46.6587" lon="6.10623">
        <ele>1064.3</ele>
        <time>2021-08-18T09:29:13Z</time>
      </trkpt>
      <trkpt lat="46.65864" lon="6.10615">
        <ele>1064.3</ele>
        <time>2021-08-18T09:29:15Z</time>
      </trkpt>
      <trkpt lat="46.65861" lon="6.10612">
        <ele>1064.4</ele>
        <time>2021-08-18T09:29:16Z</time>
      </trkpt>
      <trkpt lat="46.65858" lon="6.10609">
        <ele>1064.4</ele>
        <time>2021-08-18T09:29:17Z</time>
      </trkpt>
      <trkpt lat="46.65854" lon="6.10602">
        <ele>1064.4</ele>
        <time>2021-08-18T09:29:19Z</time>
      </trkpt>
      <trkpt lat="46.6585" lon="6.10597">
        <ele>1064.5</ele>
        <time>2021-08-18T09:29:20Z</time>
      </trkpt>
      <trkpt lat="46.65846" lon="6.10591">
        <ele>1064.6</ele>
        <time>2021-08-18T09:29:21Z</time>
      </trkpt>
      <trkpt lat="46.65843" lon="6.10584">
        <ele>1064.6</ele>
        <time>2021-08-18T09:29:23Z</time>
      </trkpt>
      <trkpt lat="46.65841" lon="6.10579">
        <ele>1064.6</ele>
        <time>2021-08-18T09:29:24Z</time>
      </trkpt>
      <trkpt lat="46.6584" lon="6.10572">
        <ele>1064.6</ele>
        <time>2021-08-18T09:29:26Z</time>
      </trkpt>
      <trkpt lat="46.65839" lon="6.1057">
        <ele>1064.6</ele>
        <time>2021-08-18T09:29:28Z</time>
      </trkpt>
      <trkpt lat="46.6584" lon="6.10569">
        <ele>1064.6</ele>
        <time>2021-08-18T09:29:29Z</time>
      </trkpt>
      <trkpt lat="46.6584" lon="6.10569">
        <ele>1064.6</ele>
        <time>2021-08-18T09:29:30Z</time>
      </trkpt>
      <trkpt lat="46.65841" lon="6.10567">
        <ele>1064.6</ele>
        <time>2021-08-18T09:29:32Z</time>
      </trkpt>
      <trkpt lat="46.65844" lon="6.10567">
        <ele>1064.5</ele>
        <time>2021-08-18T09:29:33Z</time>
      </trkpt>
      <trkpt lat="46.65848" lon="6.10568">
        <ele>1064.3</ele>
        <time>2021-08-18T09:29:34Z</time>
      </trkpt>
      <trkpt lat="46.65851" lon="6.10567">
        <ele>1064.2</ele>
        <time>2021-08-18T09:29:35Z</time>
      </trkpt>
      <trkpt lat="46.65858" lon="6.10566">
        <ele>1063.9</ele>
        <time>2021-08-18T09:29:37Z</time>
      </trkpt>
      <trkpt lat="46.65863" lon="6.10565">
        <ele>1063.7</ele>
        <time>2021-08-18T09:29:38Z</time>
      </trkpt>
      <trkpt lat="46.65869" lon="6.10562">
        <ele>1063.3</ele>
        <time>2021-08-18T09:29:39Z</time>
      </trkpt>
      <trkpt lat="46.6588" lon="6.10554">
        <ele>1062.6</ele>
        <time>2021-08-18T09:29:41Z</time>
      </trkpt>
      <trkpt lat="46.65887" lon="6.1055">
        <ele>1062.2</ele>
        <time>2021-08-18T09:29:42Z</time>
      </trkpt>
      <trkpt lat="46.659" lon="6.10547">
        <ele>1061.6</ele>
        <time>2021-08-18T09:29:44Z</time>
      </trkpt>
      <trkpt lat="46.65914" lon="6.1055">
        <ele>1061.1</ele>
        <time>2021-08-18T09:29:46Z</time>
      </trkpt>
      <trkpt lat="46.65926" lon="6.10556">
        <ele>1060.7</ele>
        <time>2021-08-18T09:29:48Z</time>
      </trkpt>
      <trkpt lat="46.65938" lon="6.10557">
        <ele>1060.2</ele>
        <time>2021-08-18T09:29:50Z</time>
      </trkpt>
      <trkpt lat="46.65948" lon="6.10552">
        <ele>1059.1</ele>
        <time>2021-08-18T09:29:52Z</time>
      </trkpt>
      <trkpt lat="46.65952" lon="6.10549">
        <ele>1058.7</ele>
        <time>2021-08-18T09:29:53Z</time>
      </trkpt>
      <trkpt lat="46.65954" lon="6.10543">
        <ele>1058.2</ele>
        <time>2021-08-18T09:29:54Z</time>
      </trkpt>
      <trkpt lat="46.65955" lon="6.10528">
        <ele>1057.2</ele>
        <time>2021-08-18T09:29:56Z</time>
      </trkpt>
      <trkpt lat="46.65953" lon="6.10503">
        <ele>1055.4</ele>
        <time>2021-08-18T09:29:58Z</time>
      </trkpt>
      <trkpt lat="46.65952" lon="6.10488">
        <ele>1054.4</ele>
        <time>2021-08-18T09:29:59Z</time>
      </trkpt>
      <trkpt lat="46.65951" lon="6.10474">
        <ele>1053.3</ele>
        <time>2021-08-18T09:30:00Z</time>
      </trkpt>
      <trkpt lat="46.65949" lon="6.10459">
        <ele>1052.3</ele>
        <time>2021-08-18T09:30:01Z</time>
      </trkpt>
      <trkpt lat="46.65949" lon="6.10431">
        <ele>1050.3</ele>
        <time>2021-08-18T09:30:03Z</time>
      </trkpt>
      <trkpt lat="46.65944" lon="6.10401">
        <ele>1048.5</ele>
        <time>2021-08-18T09:30:05Z</time>
      </trkpt>
      <trkpt lat="46.65934" lon="6.10369">
        <ele>1046.3</ele>
        <time>2021-08-18T09:30:07Z</time>
      </trkpt>
      <trkpt lat="46.65928" lon="6.10354">
        <ele>1044.9</ele>
        <time>2021-08-18T09:30:08Z</time>
      </trkpt>
      <trkpt lat="46.6592" lon="6.10324">
        <ele>1042.2</ele>
        <time>2021-08-18T09:30:10Z</time>
      </trkpt>
      <trkpt lat="46.65916" lon="6.10309">
        <ele>1040.9</ele>
        <time>2021-08-18T09:30:11Z</time>
      </trkpt>
      <trkpt lat="46.65911" lon="6.10284">
        <ele>1038.8</ele>
        <time>2021-08-18T09:30:13Z</time>
      </trkpt>
      <trkpt lat="46.6591" lon="6.10273">
        <ele>1037.9</ele>
        <time>2021-08-18T09:30:14Z</time>
      </trkpt>
      <trkpt lat="46.65909" lon="6.10251">
        <ele>1036.3</ele>
        <time>2021-08-18T09:30:16Z</time>
      </trkpt>
      <trkpt lat="46.65909" lon="6.10241">
        <ele>1035.5</ele>
        <time>2021-08-18T09:30:17Z</time>
      </trkpt>
      <trkpt lat="46.65908" lon="6.10219">
        <ele>1033.9</ele>
        <time>2021-08-18T09:30:19Z</time>
      </trkpt>
      <trkpt lat="46.65907" lon="6.1021">
        <ele>1032.1</ele>
        <time>2021-08-18T09:30:20Z</time>
      </trkpt>
      <trkpt lat="46.65916" lon="6.10201">
        <ele>1031.5</ele>
        <time>2021-08-18T09:30:22Z</time>
      </trkpt>
      <trkpt lat="46.65924" lon="6.102">
        <ele>1031.2</ele>
        <time>2021-08-18T09:30:23Z</time>
      </trkpt>
      <trkpt lat="46.65932" lon="6.102">
        <ele>1030.9</ele>
        <time>2021-08-18T09:30:24Z</time>
      </trkpt>
      <trkpt lat="46.65948" lon="6.102">
        <ele>1030.5</ele>
        <time>2021-08-18T09:30:26Z</time>
      </trkpt>
      <trkpt lat="46.65962" lon="6.1019">
        <ele>1030.3</ele>
        <time>2021-08-18T09:30:28Z</time>
      </trkpt>
      <trkpt lat="46.65972" lon="6.10179">
        <ele>1030</ele>
        <time>2021-08-18T09:30:30Z</time>
      </trkpt>
      <trkpt lat="46.65982" lon="6.1017">
        <ele>1029.6</ele>
        <time>2021-08-18T09:30:32Z</time>
      </trkpt>
      <trkpt lat="46.65989" lon="6.10167">
        <ele>1029.3</ele>
        <time>2021-08-18T09:30:33Z</time>
      </trkpt>
      <trkpt lat="46.66003" lon="6.10161">
        <ele>1028.7</ele>
        <time>2021-08-18T09:30:35Z</time>
      </trkpt>
      <trkpt lat="46.66011" lon="6.10158">
        <ele>1028.4</ele>
        <time>2021-08-18T09:30:36Z</time>
      </trkpt>
      <trkpt lat="46.66027" lon="6.1015">
        <ele>1028</ele>
        <time>2021-08-18T09:30:38Z</time>
      </trkpt>
      <trkpt lat="46.66041" lon="6.10143">
        <ele>1027.9</ele>
        <time>2021-08-18T09:30:40Z</time>
      </trkpt>
      <trkpt lat="46.66053" lon="6.10137">
        <ele>1028.1</ele>
        <time>2021-08-18T09:30:42Z</time>
      </trkpt>
      <trkpt lat="46.66059" lon="6.10134">
        <ele>1028.2</ele>
        <time>2021-08-18T09:30:43Z</time>
      </trkpt>
      <trkpt lat="46.66064" lon="6.10131">
        <ele>1028.3</ele>
        <time>2021-08-18T09:30:44Z</time>
      </trkpt>
      <trkpt lat="46.66073" lon="6.10126">
        <ele>1028.4</ele>
        <time>2021-08-18T09:30:46Z</time>
      </trkpt>
      <trkpt lat="46.66076" lon="6.10123">
        <ele>1028.4</ele>
        <time>2021-08-18T09:30:47Z</time>
      </trkpt>
      <trkpt lat="46.66085" lon="6.10115">
        <ele>1028.4</ele>
        <time>2021-08-18T09:30:49Z</time>
      </trkpt>
      <trkpt lat="46.66089" lon="6.10109">
        <ele>1028.4</ele>
        <time>2021-08-18T09:30:50Z</time>
      </trkpt>
      <trkpt lat="46.66095" lon="6.10098">
        <ele>1028.7</ele>
        <time>2021-08-18T09:30:52Z</time>
      </trkpt>
      <trkpt lat="46.66096" lon="6.10088">
        <ele>1029</ele>
        <time>2021-08-18T09:30:54Z</time>
      </trkpt>
      <trkpt lat="46.66097" lon="6.10078">
        <ele>1029.4</ele>
        <time>2021-08-18T09:30:56Z</time>
      </trkpt>
      <trkpt lat="46.66096" lon="6.1007">
        <ele>1029.7</ele>
        <time>2021-08-18T09:30:58Z</time>
      </trkpt>
      <trkpt lat="46.66096" lon="6.10068">
        <ele>1029.8</ele>
        <time>2021-08-18T09:30:59Z</time>
      </trkpt>
      <trkpt lat="46.66096" lon="6.10065">
        <ele>1029.9</ele>
        <time>2021-08-18T09:31:00Z</time>
      </trkpt>
      <trkpt lat="46.66094" lon="6.10061">
        <ele>1030.2</ele>
        <time>2021-08-18T09:31:01Z</time>
      </trkpt>
      <trkpt lat="46.66094" lon="6.1006">
        <ele>1030.2</ele>
        <time>2021-08-18T09:31:02Z</time>
      </trkpt>
      <trkpt lat="46.66092" lon="6.10053">
        <ele>1030.6</ele>
        <time>2021-08-18T09:31:04Z</time>
      </trkpt>
      <trkpt lat="46.66091" lon="6.10051">
        <ele>1030.7</ele>
        <time>2021-08-18T09:31:05Z</time>
      </trkpt>
      <trkpt lat="46.66089" lon="6.10047">
        <ele>1031</ele>
        <time>2021-08-18T09:31:07Z</time>
      </trkpt>
      <trkpt lat="46.66088" lon="6.10042">
        <ele>1031.4</ele>
        <time>2021-08-18T09:31:08Z</time>
      </trkpt>
      <trkpt lat="46.66088" lon="6.1004">
        <ele>1031.5</ele>
        <time>2021-08-18T09:31:09Z</time>
      </trkpt>
      <trkpt lat="46.66087" lon="6.10037">
        <ele>1031.7</ele>
        <time>2021-08-18T09:31:11Z</time>
      </trkpt>
      <trkpt lat="46.66086" lon="6.10036">
        <ele>1031.8</ele>
        <time>2021-08-18T09:31:12Z</time>
      </trkpt>
      <trkpt lat="46.66086" lon="6.10034">
        <ele>1031.9</ele>
        <time>2021-08-18T09:31:13Z</time>
      </trkpt>
      <trkpt lat="46.66086" lon="6.10033">
        <ele>1032</ele>
        <time>2021-08-18T09:31:14Z</time>
      </trkpt>
      <trkpt lat="46.66085" lon="6.10031">
        <ele>1032.1</ele>
        <time>2021-08-18T09:31:15Z</time>
      </trkpt>
      <trkpt lat="46.66084" lon="6.10028">
        <ele>1032.3</ele>
        <time>2021-08-18T09:31:17Z</time>
      </trkpt>
      <trkpt lat="46.66082" lon="6.10028">
        <ele>1032.4</ele>
        <time>2021-08-18T09:31:19Z</time>
      </trkpt>
      <trkpt lat="46.66082" lon="6.10026">
        <ele>1032.5</ele>
        <time>2021-08-18T09:31:20Z</time>
      </trkpt>
      <trkpt lat="46.66082" lon="6.10026">
        <ele>1032.5</ele>
        <time>2021-08-18T09:31:22Z</time>
      </trkpt>
      <trkpt lat="46.66082" lon="6.10025">
        <ele>1032.6</ele>
        <time>2021-08-18T09:31:23Z</time>
      </trkpt>
      <trkpt lat="46.66081" lon="6.10024">
        <ele>1032.6</ele>
        <time>2021-08-18T09:31:25Z</time>
      </trkpt>
      <trkpt lat="46.66081" lon="6.10023">
        <ele>1032.7</ele>
        <time>2021-08-18T09:31:26Z</time>
      </trkpt>
      <trkpt lat="46.66079" lon="6.1002">
        <ele>1032.9</ele>
        <time>2021-08-18T09:31:27Z</time>
      </trkpt>
      <trkpt lat="46.66078" lon="6.10018">
        <ele>1033</ele>
        <time>2021-08-18T09:31:28Z</time>
      </trkpt>
      <trkpt lat="46.66077" lon="6.10017">
        <ele>1033.1</ele>
        <time>2021-08-18T09:31:29Z</time>
      </trkpt>
      <trkpt lat="46.6607" lon="6.10006">
        <ele>1033.7</ele>
        <time>2021-08-18T09:31:35Z</time>
      </trkpt>
      <trkpt lat="46.66067" lon="6.10003">
        <ele>1033.9</ele>
        <time>2021-08-18T09:31:36Z</time>
      </trkpt>
      <trkpt lat="46.66065" lon="6.1">
        <ele>1034.1</ele>
        <time>2021-08-18T09:31:37Z</time>
      </trkpt>
      <trkpt lat="46.66062" lon="6.09997">
        <ele>1034.2</ele>
        <time>2021-08-18T09:31:38Z</time>
      </trkpt>
      <trkpt lat="46.66058" lon="6.0999">
        <ele>1034.4</ele>
        <time>2021-08-18T09:31:40Z</time>
      </trkpt>
      <trkpt lat="46.66056" lon="6.09987">
        <ele>1034.5</ele>
        <time>2021-08-18T09:31:41Z</time>
      </trkpt>
      <trkpt lat="46.66054" lon="6.09984">
        <ele>1034.6</ele>
        <time>2021-08-18T09:31:42Z</time>
      </trkpt>
      <trkpt lat="46.66052" lon="6.09981">
        <ele>1034.7</ele>
        <time>2021-08-18T09:31:43Z</time>
      </trkpt>
      <trkpt lat="46.6605" lon="6.09975">
        <ele>1034.8</ele>
        <time>2021-08-18T09:31:44Z</time>
      </trkpt>
      <trkpt lat="46.66048" lon="6.0997">
        <ele>1034.8</ele>
        <time>2021-08-18T09:31:46Z</time>
      </trkpt>
      <trkpt lat="46.66046" lon="6.09964">
        <ele>1034.9</ele>
        <time>2021-08-18T09:31:48Z</time>
      </trkpt>
      <trkpt lat="46.66044" lon="6.0996">
        <ele>1035</ele>
        <time>2021-08-18T09:31:49Z</time>
      </trkpt>
      <trkpt lat="46.66041" lon="6.09955">
        <ele>1035.1</ele>
        <time>2021-08-18T09:31:50Z</time>
      </trkpt>
      <trkpt lat="46.66041" lon="6.09952">
        <ele>1035.1</ele>
        <time>2021-08-18T09:31:51Z</time>
      </trkpt>
      <trkpt lat="46.66039" lon="6.09947">
        <ele>1035.2</ele>
        <time>2021-08-18T09:31:53Z</time>
      </trkpt>
      <trkpt lat="46.66037" lon="6.09944">
        <ele>1035.2</ele>
        <time>2021-08-18T09:31:54Z</time>
      </trkpt>
      <trkpt lat="46.66036" lon="6.09939">
        <ele>1035.3</ele>
        <time>2021-08-18T09:31:56Z</time>
      </trkpt>
      <trkpt lat="46.66034" lon="6.09935">
        <ele>1035.4</ele>
        <time>2021-08-18T09:31:57Z</time>
      </trkpt>
      <trkpt lat="46.66032" lon="6.09931">
        <ele>1035.5</ele>
        <time>2021-08-18T09:31:58Z</time>
      </trkpt>
      <trkpt lat="46.6603" lon="6.09926">
        <ele>1035.5</ele>
        <time>2021-08-18T09:32:00Z</time>
      </trkpt>
      <trkpt lat="46.66028" lon="6.09923">
        <ele>1035.6</ele>
        <time>2021-08-18T09:32:01Z</time>
      </trkpt>
      <trkpt lat="46.66027" lon="6.09918">
        <ele>1035.7</ele>
        <time>2021-08-18T09:32:02Z</time>
      </trkpt>
      <trkpt lat="46.66028" lon="6.09916">
        <ele>1035.7</ele>
        <time>2021-08-18T09:32:03Z</time>
      </trkpt>
      <trkpt lat="46.66027" lon="6.09914">
        <ele>1035.7</ele>
        <time>2021-08-18T09:32:04Z</time>
      </trkpt>
      <trkpt lat="46.66027" lon="6.09911">
        <ele>1035.8</ele>
        <time>2021-08-18T09:32:05Z</time>
      </trkpt>
      <trkpt lat="46.66025" lon="6.09906">
        <ele>1035.8</ele>
        <time>2021-08-18T09:32:07Z</time>
      </trkpt>
      <trkpt lat="46.66024" lon="6.09904">
        <ele>1035.9</ele>
        <time>2021-08-18T09:32:08Z</time>
      </trkpt>
      <trkpt lat="46.66023" lon="6.09898">
        <ele>1035.9</ele>
        <time>2021-08-18T09:32:10Z</time>
      </trkpt>
      <trkpt lat="46.66022" lon="6.09894">
        <ele>1036</ele>
        <time>2021-08-18T09:32:11Z</time>
      </trkpt>
      <trkpt lat="46.66021" lon="6.09891">
        <ele>1036</ele>
        <time>2021-08-18T09:32:12Z</time>
      </trkpt>
      <trkpt lat="46.66021" lon="6.09885">
        <ele>1036.1</ele>
        <time>2021-08-18T09:32:14Z</time>
      </trkpt>
      <trkpt lat="46.66019" lon="6.09878">
        <ele>1036.1</ele>
        <time>2021-08-18T09:32:16Z</time>
      </trkpt>
      <trkpt lat="46.66018" lon="6.09871">
        <ele>1036.2</ele>
        <time>2021-08-18T09:32:18Z</time>
      </trkpt>
      <trkpt lat="46.66018" lon="6.09866">
        <ele>1036.3</ele>
        <time>2021-08-18T09:32:19Z</time>
      </trkpt>
      <trkpt lat="46.66017" lon="6.09861">
        <ele>1036.3</ele>
        <time>2021-08-18T09:32:20Z</time>
      </trkpt>
      <trkpt lat="46.66017" lon="6.0986">
        <ele>1036.3</ele>
        <time>2021-08-18T09:32:21Z</time>
      </trkpt>
      <trkpt lat="46.66015" lon="6.09856">
        <ele>1036.4</ele>
        <time>2021-08-18T09:32:22Z</time>
      </trkpt>
      <trkpt lat="46.66014" lon="6.09853">
        <ele>1036.4</ele>
        <time>2021-08-18T09:32:23Z</time>
      </trkpt>
      <trkpt lat="46.66012" lon="6.09849">
        <ele>1036.5</ele>
        <time>2021-08-18T09:32:24Z</time>
      </trkpt>
      <trkpt lat="46.66009" lon="6.09845">
        <ele>1036.6</ele>
        <time>2021-08-18T09:32:26Z</time>
      </trkpt>
      <trkpt lat="46.66008" lon="6.09841">
        <ele>1036.6</ele>
        <time>2021-08-18T09:32:27Z</time>
      </trkpt>
      <trkpt lat="46.66006" lon="6.09838">
        <ele>1036.7</ele>
        <time>2021-08-18T09:32:28Z</time>
      </trkpt>
      <trkpt lat="46.66005" lon="6.09836">
        <ele>1036.7</ele>
        <time>2021-08-18T09:32:29Z</time>
      </trkpt>
      <trkpt lat="46.66004" lon="6.09832">
        <ele>1036.8</ele>
        <time>2021-08-18T09:32:30Z</time>
      </trkpt>
      <trkpt lat="46.66004" lon="6.09831">
        <ele>1036.8</ele>
        <time>2021-08-18T09:32:31Z</time>
      </trkpt>
      <trkpt lat="46.66004" lon="6.09826">
        <ele>1036.9</ele>
        <time>2021-08-18T09:32:32Z</time>
      </trkpt>
      <trkpt lat="46.66003" lon="6.09824">
        <ele>1036.9</ele>
        <time>2021-08-18T09:32:33Z</time>
      </trkpt>
      <trkpt lat="46.66001" lon="6.09821">
        <ele>1037</ele>
        <time>2021-08-18T09:32:35Z</time>
      </trkpt>
      <trkpt lat="46.66" lon="6.09817">
        <ele>1037.1</ele>
        <time>2021-08-18T09:32:36Z</time>
      </trkpt>
      <trkpt lat="46.65999" lon="6.09816">
        <ele>1037.1</ele>
        <time>2021-08-18T09:32:37Z</time>
      </trkpt>
      <trkpt lat="46.65998" lon="6.09812">
        <ele>1037.2</ele>
        <time>2021-08-18T09:32:38Z</time>
      </trkpt>
      <trkpt lat="46.65997" lon="6.09807">
        <ele>1037.4</ele>
        <time>2021-08-18T09:32:39Z</time>
      </trkpt>
      <trkpt lat="46.65997" lon="6.09805">
        <ele>1037.4</ele>
        <time>2021-08-18T09:32:40Z</time>
      </trkpt>
      <trkpt lat="46.65995" lon="6.09801">
        <ele>1037.5</ele>
        <time>2021-08-18T09:32:42Z</time>
      </trkpt>
      <trkpt lat="46.65995" lon="6.098">
        <ele>1037.5</ele>
        <time>2021-08-18T09:32:43Z</time>
      </trkpt>
      <trkpt lat="46.65993" lon="6.09797">
        <ele>1037.6</ele>
        <time>2021-08-18T09:32:44Z</time>
      </trkpt>
      <trkpt lat="46.65991" lon="6.09794">
        <ele>1037.7</ele>
        <time>2021-08-18T09:32:46Z</time>
      </trkpt>
      <trkpt lat="46.65989" lon="6.0979">
        <ele>1037.8</ele>
        <time>2021-08-18T09:32:47Z</time>
      </trkpt>
      <trkpt lat="46.65988" lon="6.09786">
        <ele>1037.9</ele>
        <time>2021-08-18T09:32:48Z</time>
      </trkpt>
      <trkpt lat="46.65987" lon="6.09782">
        <ele>1038</ele>
        <time>2021-08-18T09:32:49Z</time>
      </trkpt>
      <trkpt lat="46.65985" lon="6.09778">
        <ele>1038.1</ele>
        <time>2021-08-18T09:32:50Z</time>
      </trkpt>
      <trkpt lat="46.65984" lon="6.09774">
        <ele>1038.2</ele>
        <time>2021-08-18T09:32:51Z</time>
      </trkpt>
      <trkpt lat="46.65981" lon="6.0977">
        <ele>1038.3</ele>
        <time>2021-08-18T09:32:52Z</time>
      </trkpt>
      <trkpt lat="46.65979" lon="6.09767">
        <ele>1038.4</ele>
        <time>2021-08-18T09:32:54Z</time>
      </trkpt>
      <trkpt lat="46.65978" lon="6.09765">
        <ele>1038.4</ele>
        <time>2021-08-18T09:32:55Z</time>
      </trkpt>
      <trkpt lat="46.65976" lon="6.09762">
        <ele>1038.5</ele>
        <time>2021-08-18T09:32:56Z</time>
      </trkpt>
      <trkpt lat="46.65974" lon="6.09757">
        <ele>1038.6</ele>
        <time>2021-08-18T09:32:57Z</time>
      </trkpt>
      <trkpt lat="46.65973" lon="6.09755">
        <ele>1038.6</ele>
        <time>2021-08-18T09:32:58Z</time>
      </trkpt>
      <trkpt lat="46.65971" lon="6.0975">
        <ele>1038.7</ele>
        <time>2021-08-18T09:32:59Z</time>
      </trkpt>
      <trkpt lat="46.6597" lon="6.09746">
        <ele>1038.7</ele>
        <time>2021-08-18T09:33:00Z</time>
      </trkpt>
      <trkpt lat="46.65968" lon="6.09741">
        <ele>1038.8</ele>
        <time>2021-08-18T09:33:02Z</time>
      </trkpt>
      <trkpt lat="46.65966" lon="6.09736">
        <ele>1038.9</ele>
        <time>2021-08-18T09:33:03Z</time>
      </trkpt>
      <trkpt lat="46.65964" lon="6.0973">
        <ele>1038.9</ele>
        <time>2021-08-18T09:33:04Z</time>
      </trkpt>
      <trkpt lat="46.65962" lon="6.09725">
        <ele>1039</ele>
        <time>2021-08-18T09:33:05Z</time>
      </trkpt>
      <trkpt lat="46.65962" lon="6.09721">
        <ele>1039.1</ele>
        <time>2021-08-18T09:33:06Z</time>
      </trkpt>
      <trkpt lat="46.6596" lon="6.09716">
        <ele>1039.2</ele>
        <time>2021-08-18T09:33:08Z</time>
      </trkpt>
      <trkpt lat="46.65959" lon="6.09711">
        <ele>1039.3</ele>
        <time>2021-08-18T09:33:09Z</time>
      </trkpt>
      <trkpt lat="46.65958" lon="6.09709">
        <ele>1039.3</ele>
        <time>2021-08-18T09:33:10Z</time>
      </trkpt>
      <trkpt lat="46.65957" lon="6.09705">
        <ele>1039.4</ele>
        <time>2021-08-18T09:33:12Z</time>
      </trkpt>
      <trkpt lat="46.65955" lon="6.09702">
        <ele>1039.5</ele>
        <time>2021-08-18T09:33:13Z</time>
      </trkpt>
      <trkpt lat="46.65953" lon="6.09697">
        <ele>1039.7</ele>
        <time>2021-08-18T09:33:14Z</time>
      </trkpt>
      <trkpt lat="46.65953" lon="6.09696">
        <ele>1039.7</ele>
        <time>2021-08-18T09:33:15Z</time>
      </trkpt>
      <trkpt lat="46.65952" lon="6.09693">
        <ele>1039.8</ele>
        <time>2021-08-18T09:33:16Z</time>
      </trkpt>
      <trkpt lat="46.6595" lon="6.09688">
        <ele>1040</ele>
        <time>2021-08-18T09:33:18Z</time>
      </trkpt>
      <trkpt lat="46.65946" lon="6.09683">
        <ele>1040.2</ele>
        <time>2021-08-18T09:33:20Z</time>
      </trkpt>
      <trkpt lat="46.65944" lon="6.09681">
        <ele>1040.3</ele>
        <time>2021-08-18T09:33:21Z</time>
      </trkpt>
      <trkpt lat="46.65941" lon="6.09677">
        <ele>1040.5</ele>
        <time>2021-08-18T09:33:23Z</time>
      </trkpt>
      <trkpt lat="46.6594" lon="6.09676">
        <ele>1040.6</ele>
        <time>2021-08-18T09:33:24Z</time>
      </trkpt>
      <trkpt lat="46.65938" lon="6.09673">
        <ele>1040.7</ele>
        <time>2021-08-18T09:33:25Z</time>
      </trkpt>
      <trkpt lat="46.65935" lon="6.09669">
        <ele>1040.9</ele>
        <time>2021-08-18T09:33:26Z</time>
      </trkpt>
      <trkpt lat="46.65935" lon="6.09667">
        <ele>1040.9</ele>
        <time>2021-08-18T09:33:27Z</time>
      </trkpt>
      <trkpt lat="46.65932" lon="6.09664">
        <ele>1041.1</ele>
        <time>2021-08-18T09:33:29Z</time>
      </trkpt>
      <trkpt lat="46.6593" lon="6.0966">
        <ele>1041.2</ele>
        <time>2021-08-18T09:33:30Z</time>
      </trkpt>
      <trkpt lat="46.65928" lon="6.09657">
        <ele>1041.3</ele>
        <time>2021-08-18T09:33:31Z</time>
      </trkpt>
      <trkpt lat="46.65924" lon="6.09652">
        <ele>1041.4</ele>
        <time>2021-08-18T09:33:33Z</time>
      </trkpt>
      <trkpt lat="46.65923" lon="6.09649">
        <ele>1041.4</ele>
        <time>2021-08-18T09:33:34Z</time>
      </trkpt>
      <trkpt lat="46.65922" lon="6.09647">
        <ele>1041.4</ele>
        <time>2021-08-18T09:33:35Z</time>
      </trkpt>
      <trkpt lat="46.6592" lon="6.09643">
        <ele>1041.4</ele>
        <time>2021-08-18T09:33:37Z</time>
      </trkpt>
      <trkpt lat="46.65918" lon="6.0964">
        <ele>1041.4</ele>
        <time>2021-08-18T09:33:38Z</time>
      </trkpt>
      <trkpt lat="46.65915" lon="6.09635">
        <ele>1041.4</ele>
        <time>2021-08-18T09:33:39Z</time>
      </trkpt>
      <trkpt lat="46.65912" lon="6.09632">
        <ele>1041.4</ele>
        <time>2021-08-18T09:33:40Z</time>
      </trkpt>
      <trkpt lat="46.65909" lon="6.09628">
        <ele>1041.3</ele>
        <time>2021-08-18T09:33:41Z</time>
      </trkpt>
      <trkpt lat="46.65905" lon="6.09623">
        <ele>1041.3</ele>
        <time>2021-08-18T09:33:42Z</time>
      </trkpt>
      <trkpt lat="46.65903" lon="6.09619">
        <ele>1041.3</ele>
        <time>2021-08-18T09:33:44Z</time>
      </trkpt>
      <trkpt lat="46.659" lon="6.09614">
        <ele>1041.2</ele>
        <time>2021-08-18T09:33:45Z</time>
      </trkpt>
      <trkpt lat="46.65897" lon="6.0961">
        <ele>1041.2</ele>
        <time>2021-08-18T09:33:46Z</time>
      </trkpt>
      <trkpt lat="46.65894" lon="6.09608">
        <ele>1041.2</ele>
        <time>2021-08-18T09:33:47Z</time>
      </trkpt>
      <trkpt lat="46.65892" lon="6.09605">
        <ele>1041.1</ele>
        <time>2021-08-18T09:33:48Z</time>
      </trkpt>
      <trkpt lat="46.65889" lon="6.09601">
        <ele>1041.1</ele>
        <time>2021-08-18T09:33:49Z</time>
      </trkpt>
      <trkpt lat="46.65886" lon="6.09596">
        <ele>1041</ele>
        <time>2021-08-18T09:33:51Z</time>
      </trkpt>
      <trkpt lat="46.65883" lon="6.09591">
        <ele>1040.8</ele>
        <time>2021-08-18T09:33:52Z</time>
      </trkpt>
      <trkpt lat="46.65879" lon="6.09585">
        <ele>1040.6</ele>
        <time>2021-08-18T09:33:53Z</time>
      </trkpt>
      <trkpt lat="46.65875" lon="6.09579">
        <ele>1040.3</ele>
        <time>2021-08-18T09:33:54Z</time>
      </trkpt>
      <trkpt lat="46.65869" lon="6.09571">
        <ele>1039.7</ele>
        <time>2021-08-18T09:33:56Z</time>
      </trkpt>
      <trkpt lat="46.65863" lon="6.09559">
        <ele>1038.9</ele>
        <time>2021-08-18T09:33:58Z</time>
      </trkpt>
      <trkpt lat="46.6586" lon="6.09553">
        <ele>1038.5</ele>
        <time>2021-08-18T09:33:59Z</time>
      </trkpt>
      <trkpt lat="46.65857" lon="6.09547">
        <ele>1038.2</ele>
        <time>2021-08-18T09:34:00Z</time>
      </trkpt>
      <trkpt lat="46.65848" lon="6.09535">
        <ele>1037.7</ele>
        <time>2021-08-18T09:34:02Z</time>
      </trkpt>
      <trkpt lat="46.6584" lon="6.09521">
        <ele>1037</ele>
        <time>2021-08-18T09:34:04Z</time>
      </trkpt>
      <trkpt lat="46.65833" lon="6.09508">
        <ele>1036.2</ele>
        <time>2021-08-18T09:34:06Z</time>
      </trkpt>
      <trkpt lat="46.65828" lon="6.09501">
        <ele>1035.8</ele>
        <time>2021-08-18T09:34:07Z</time>
      </trkpt>
      <trkpt lat="46.65824" lon="6.09495">
        <ele>1035.4</ele>
        <time>2021-08-18T09:34:08Z</time>
      </trkpt>
      <trkpt lat="46.65816" lon="6.09481">
        <ele>1034.5</ele>
        <time>2021-08-18T09:34:10Z</time>
      </trkpt>
      <trkpt lat="46.65812" lon="6.09474">
        <ele>1034.1</ele>
        <time>2021-08-18T09:34:11Z</time>
      </trkpt>
      <trkpt lat="46.65803" lon="6.09457">
        <ele>1033.2</ele>
        <time>2021-08-18T09:34:13Z</time>
      </trkpt>
      <trkpt lat="46.65798" lon="6.09449">
        <ele>1032.8</ele>
        <time>2021-08-18T09:34:14Z</time>
      </trkpt>
      <trkpt lat="46.65788" lon="6.09433">
        <ele>1032</ele>
        <time>2021-08-18T09:34:16Z</time>
      </trkpt>
      <trkpt lat="46.65779" lon="6.09419">
        <ele>1031.5</ele>
        <time>2021-08-18T09:34:18Z</time>
      </trkpt>
      <trkpt lat="46.65775" lon="6.09411">
        <ele>1031.3</ele>
        <time>2021-08-18T09:34:19Z</time>
      </trkpt>
      <trkpt lat="46.65771" lon="6.09404">
        <ele>1031.2</ele>
        <time>2021-08-18T09:34:20Z</time>
      </trkpt>
      <trkpt lat="46.65763" lon="6.0939">
        <ele>1031.1</ele>
        <time>2021-08-18T09:34:22Z</time>
      </trkpt>
      <trkpt lat="46.6576" lon="6.09384">
        <ele>1031.1</ele>
        <time>2021-08-18T09:34:23Z</time>
      </trkpt>
      <trkpt lat="46.65754" lon="6.0937">
        <ele>1031.1</ele>
        <time>2021-08-18T09:34:25Z</time>
      </trkpt>
      <trkpt lat="46.65749" lon="6.09364">
        <ele>1031.1</ele>
        <time>2021-08-18T09:34:26Z</time>
      </trkpt>
      <trkpt lat="46.65741" lon="6.09353">
        <ele>1031.1</ele>
        <time>2021-08-18T09:34:28Z</time>
      </trkpt>
      <trkpt lat="46.65734" lon="6.09342">
        <ele>1031.2</ele>
        <time>2021-08-18T09:34:30Z</time>
      </trkpt>
      <trkpt lat="46.65728" lon="6.09334">
        <ele>1031.3</ele>
        <time>2021-08-18T09:34:32Z</time>
      </trkpt>
      <trkpt lat="46.65726" lon="6.0933">
        <ele>1031.3</ele>
        <time>2021-08-18T09:34:33Z</time>
      </trkpt>
      <trkpt lat="46.65724" lon="6.09321">
        <ele>1031.4</ele>
        <time>2021-08-18T09:34:35Z</time>
      </trkpt>
      <trkpt lat="46.65723" lon="6.09315">
        <ele>1031.5</ele>
        <time>2021-08-18T09:34:36Z</time>
      </trkpt>
      <trkpt lat="46.65723" lon="6.09305">
        <ele>1031.6</ele>
        <time>2021-08-18T09:34:38Z</time>
      </trkpt>
      <trkpt lat="46.65721" lon="6.09298">
        <ele>1031.7</ele>
        <time>2021-08-18T09:34:39Z</time>
      </trkpt>
      <trkpt lat="46.65718" lon="6.09291">
        <ele>1031.8</ele>
        <time>2021-08-18T09:34:41Z</time>
      </trkpt>
      <trkpt lat="46.65714" lon="6.09286">
        <ele>1031.8</ele>
        <time>2021-08-18T09:34:42Z</time>
      </trkpt>
      <trkpt lat="46.6571" lon="6.0928">
        <ele>1031.8</ele>
        <time>2021-08-18T09:34:43Z</time>
      </trkpt>
      <trkpt lat="46.65706" lon="6.09274">
        <ele>1031.7</ele>
        <time>2021-08-18T09:34:44Z</time>
      </trkpt>
      <trkpt lat="46.65703" lon="6.09267">
        <ele>1031.7</ele>
        <time>2021-08-18T09:34:45Z</time>
      </trkpt>
      <trkpt lat="46.65701" lon="6.09261">
        <ele>1031.6</ele>
        <time>2021-08-18T09:34:46Z</time>
      </trkpt>
      <trkpt lat="46.65698" lon="6.09253">
        <ele>1031.4</ele>
        <time>2021-08-18T09:34:47Z</time>
      </trkpt>
      <trkpt lat="46.65696" lon="6.09248">
        <ele>1031.3</ele>
        <time>2021-08-18T09:34:48Z</time>
      </trkpt>
      <trkpt lat="46.65693" lon="6.09242">
        <ele>1031.1</ele>
        <time>2021-08-18T09:34:49Z</time>
      </trkpt>
      <trkpt lat="46.65682" lon="6.0923">
        <ele>1030.6</ele>
        <time>2021-08-18T09:34:51Z</time>
      </trkpt>
      <trkpt lat="46.6567" lon="6.09219">
        <ele>1030.1</ele>
        <time>2021-08-18T09:34:53Z</time>
      </trkpt>
      <trkpt lat="46.65664" lon="6.09214">
        <ele>1029.9</ele>
        <time>2021-08-18T09:34:54Z</time>
      </trkpt>
      <trkpt lat="46.65658" lon="6.09208">
        <ele>1029.6</ele>
        <time>2021-08-18T09:34:55Z</time>
      </trkpt>
      <trkpt lat="46.65652" lon="6.09202">
        <ele>1029.4</ele>
        <time>2021-08-18T09:34:56Z</time>
      </trkpt>
      <trkpt lat="46.65645" lon="6.09185">
        <ele>1029.2</ele>
        <time>2021-08-18T09:34:58Z</time>
      </trkpt>
      <trkpt lat="46.65637" lon="6.09172">
        <ele>1029.2</ele>
        <time>2021-08-18T09:35:00Z</time>
      </trkpt>
      <trkpt lat="46.65633" lon="6.09165">
        <ele>1029.3</ele>
        <time>2021-08-18T09:35:01Z</time>
      </trkpt>
      <trkpt lat="46.6563" lon="6.09158">
        <ele>1029.3</ele>
        <time>2021-08-18T09:35:02Z</time>
      </trkpt>
      <trkpt lat="46.65628" lon="6.0915">
        <ele>1029.4</ele>
        <time>2021-08-18T09:35:03Z</time>
      </trkpt>
      <trkpt lat="46.65624" lon="6.09134">
        <ele>1029.5</ele>
        <time>2021-08-18T09:35:05Z</time>
      </trkpt>
      <trkpt lat="46.65622" lon="6.09126">
        <ele>1029.6</ele>
        <time>2021-08-18T09:35:06Z</time>
      </trkpt>
      <trkpt lat="46.65616" lon="6.09114">
        <ele>1029.7</ele>
        <time>2021-08-18T09:35:08Z</time>
      </trkpt>
      <trkpt lat="46.6561" lon="6.09102">
        <ele>1029.8</ele>
        <time>2021-08-18T09:35:10Z</time>
      </trkpt>
      <trkpt lat="46.65608" lon="6.09099">
        <ele>1029.9</ele>
        <time>2021-08-18T09:35:11Z</time>
      </trkpt>
      <trkpt lat="46.65605" lon="6.09096">
        <ele>1029.9</ele>
        <time>2021-08-18T09:35:12Z</time>
      </trkpt>
      <trkpt lat="46.65598" lon="6.09086">
        <ele>1030.1</ele>
        <time>2021-08-18T09:35:14Z</time>
      </trkpt>
      <trkpt lat="46.65599" lon="6.09083">
        <ele>1030.1</ele>
        <time>2021-08-18T09:35:16Z</time>
      </trkpt>
      <trkpt lat="46.65596" lon="6.09079">
        <ele>1030.2</ele>
        <time>2021-08-18T09:35:17Z</time>
      </trkpt>
      <trkpt lat="46.65591" lon="6.09073">
        <ele>1030.3</ele>
        <time>2021-08-18T09:35:18Z</time>
      </trkpt>
      <trkpt lat="46.65587" lon="6.09068">
        <ele>1030.4</ele>
        <time>2021-08-18T09:35:20Z</time>
      </trkpt>
      <trkpt lat="46.65582" lon="6.09061">
        <ele>1030.5</ele>
        <time>2021-08-18T09:35:21Z</time>
      </trkpt>
      <trkpt lat="46.65579" lon="6.09056">
        <ele>1030.6</ele>
        <time>2021-08-18T09:35:22Z</time>
      </trkpt>
      <trkpt lat="46.65575" lon="6.0905">
        <ele>1030.6</ele>
        <time>2021-08-18T09:35:23Z</time>
      </trkpt>
      <trkpt lat="46.65571" lon="6.09044">
        <ele>1030.7</ele>
        <time>2021-08-18T09:35:25Z</time>
      </trkpt>
      <trkpt lat="46.65568" lon="6.0904">
        <ele>1030.7</ele>
        <time>2021-08-18T09:35:26Z</time>
      </trkpt>
      <trkpt lat="46.65566" lon="6.09036">
        <ele>1030.6</ele>
        <time>2021-08-18T09:35:27Z</time>
      </trkpt>
      <trkpt lat="46.65562" lon="6.09032">
        <ele>1030.6</ele>
        <time>2021-08-18T09:35:28Z</time>
      </trkpt>
      <trkpt lat="46.65559" lon="6.09028">
        <ele>1030.6</ele>
        <time>2021-08-18T09:35:30Z</time>
      </trkpt>
      <trkpt lat="46.65557" lon="6.09024">
        <ele>1030.5</ele>
        <time>2021-08-18T09:35:31Z</time>
      </trkpt>
      <trkpt lat="46.65553" lon="6.09019">
        <ele>1030.5</ele>
        <time>2021-08-18T09:35:32Z</time>
      </trkpt>
      <trkpt lat="46.65549" lon="6.09014">
        <ele>1030.4</ele>
        <time>2021-08-18T09:35:34Z</time>
      </trkpt>
      <trkpt lat="46.65546" lon="6.09012">
        <ele>1030.3</ele>
        <time>2021-08-18T09:35:35Z</time>
      </trkpt>
      <trkpt lat="46.65541" lon="6.09008">
        <ele>1030.2</ele>
        <time>2021-08-18T09:35:37Z</time>
      </trkpt>
      <trkpt lat="46.65538" lon="6.09003">
        <ele>1030.1</ele>
        <time>2021-08-18T09:35:38Z</time>
      </trkpt>
      <trkpt lat="46.65537" lon="6.09001">
        <ele>1030</ele>
        <time>2021-08-18T09:35:39Z</time>
      </trkpt>
      <trkpt lat="46.65535" lon="6.08997">
        <ele>1029.9</ele>
        <time>2021-08-18T09:35:40Z</time>
      </trkpt>
      <trkpt lat="46.65533" lon="6.08992">
        <ele>1029.7</ele>
        <time>2021-08-18T09:35:42Z</time>
      </trkpt>
      <trkpt lat="46.6553" lon="6.08986">
        <ele>1029.6</ele>
        <time>2021-08-18T09:35:43Z</time>
      </trkpt>
      <trkpt lat="46.65529" lon="6.08981">
        <ele>1029.4</ele>
        <time>2021-08-18T09:35:44Z</time>
      </trkpt>
      <trkpt lat="46.65527" lon="6.08973">
        <ele>1029.2</ele>
        <time>2021-08-18T09:35:45Z</time>
      </trkpt>
      <trkpt lat="46.65525" lon="6.08966">
        <ele>1029</ele>
        <time>2021-08-18T09:35:47Z</time>
      </trkpt>
      <trkpt lat="46.65517" lon="6.08956">
        <ele>1028.6</ele>
        <time>2021-08-18T09:35:48Z</time>
      </trkpt>
      <trkpt lat="46.65512" lon="6.0895">
        <ele>1028.5</ele>
        <time>2021-08-18T09:35:49Z</time>
      </trkpt>
      <trkpt lat="46.65507" lon="6.08944">
        <ele>1028.4</ele>
        <time>2021-08-18T09:35:50Z</time>
      </trkpt>
      <trkpt lat="46.655" lon="6.08934">
        <ele>1028.2</ele>
        <time>2021-08-18T09:35:52Z</time>
      </trkpt>
      <trkpt lat="46.65495" lon="6.08923">
        <ele>1028.1</ele>
        <time>2021-08-18T09:35:54Z</time>
      </trkpt>
      <trkpt lat="46.65492" lon="6.08917">
        <ele>1028</ele>
        <time>2021-08-18T09:35:55Z</time>
      </trkpt>
      <trkpt lat="46.65484" lon="6.08903">
        <ele>1027.6</ele>
        <time>2021-08-18T09:35:57Z</time>
      </trkpt>
      <trkpt lat="46.65481" lon="6.08896">
        <ele>1027.4</ele>
        <time>2021-08-18T09:35:58Z</time>
      </trkpt>
      <trkpt lat="46.65478" lon="6.0889">
        <ele>1027.1</ele>
        <time>2021-08-18T09:35:59Z</time>
      </trkpt>
      <trkpt lat="46.65475" lon="6.08884">
        <ele>1026.8</ele>
        <time>2021-08-18T09:36:00Z</time>
      </trkpt>
      <trkpt lat="46.65467" lon="6.08871">
        <ele>1026.1</ele>
        <time>2021-08-18T09:36:02Z</time>
      </trkpt>
      <trkpt lat="46.65455" lon="6.08858">
        <ele>1025.1</ele>
        <time>2021-08-18T09:36:04Z</time>
      </trkpt>
      <trkpt lat="46.65445" lon="6.08845">
        <ele>1024.1</ele>
        <time>2021-08-18T09:36:06Z</time>
      </trkpt>
      <trkpt lat="46.65441" lon="6.08839">
        <ele>1023.6</ele>
        <time>2021-08-18T09:36:07Z</time>
      </trkpt>
      <trkpt lat="46.65435" lon="6.08832">
        <ele>1023.1</ele>
        <time>2021-08-18T09:36:08Z</time>
      </trkpt>
      <trkpt lat="46.65426" lon="6.08816">
        <ele>1022.2</ele>
        <time>2021-08-18T09:36:10Z</time>
      </trkpt>
      <trkpt lat="46.65421" lon="6.08806">
        <ele>1021.9</ele>
        <time>2021-08-18T09:36:11Z</time>
      </trkpt>
      <trkpt lat="46.65417" lon="6.08796">
        <ele>1021.6</ele>
        <time>2021-08-18T09:36:12Z</time>
      </trkpt>
      <trkpt lat="46.65407" lon="6.08778">
        <ele>1021.1</ele>
        <time>2021-08-18T09:36:14Z</time>
      </trkpt>
      <trkpt lat="46.65396" lon="6.08762">
        <ele>1020.6</ele>
        <time>2021-08-18T09:36:16Z</time>
      </trkpt>
      <trkpt lat="46.65391" lon="6.08754">
        <ele>1020.3</ele>
        <time>2021-08-18T09:36:17Z</time>
      </trkpt>
      <trkpt lat="46.65385" lon="6.08745">
        <ele>1020.1</ele>
        <time>2021-08-18T09:36:18Z</time>
      </trkpt>
      <trkpt lat="46.65377" lon="6.08724">
        <ele>1019.3</ele>
        <time>2021-08-18T09:36:20Z</time>
      </trkpt>
      <trkpt lat="46.6537" lon="6.08699">
        <ele>1017.7</ele>
        <time>2021-08-18T09:36:22Z</time>
      </trkpt>
      <trkpt lat="46.65362" lon="6.08673">
        <ele>1016.1</ele>
        <time>2021-08-18T09:36:24Z</time>
      </trkpt>
      <trkpt lat="46.65359" lon="6.08661">
        <ele>1015.4</ele>
        <time>2021-08-18T09:36:25Z</time>
      </trkpt>
      <trkpt lat="46.65349" lon="6.0864">
        <ele>1013.7</ele>
        <time>2021-08-18T09:36:27Z</time>
      </trkpt>
      <trkpt lat="46.65343" lon="6.08632">
        <ele>1012.9</ele>
        <time>2021-08-18T09:36:28Z</time>
      </trkpt>
      <trkpt lat="46.65337" lon="6.08625">
        <ele>1012</ele>
        <time>2021-08-18T09:36:29Z</time>
      </trkpt>
      <trkpt lat="46.65329" lon="6.0862">
        <ele>1011</ele>
        <time>2021-08-18T09:36:30Z</time>
      </trkpt>
      <trkpt lat="46.65321" lon="6.08618">
        <ele>1009.9</ele>
        <time>2021-08-18T09:36:31Z</time>
      </trkpt>
      <trkpt lat="46.65312" lon="6.08618">
        <ele>1008.7</ele>
        <time>2021-08-18T09:36:32Z</time>
      </trkpt>
      <trkpt lat="46.65293" lon="6.08617">
        <ele>1006.7</ele>
        <time>2021-08-18T09:36:34Z</time>
      </trkpt>
      <trkpt lat="46.65285" lon="6.08613">
        <ele>1006.1</ele>
        <time>2021-08-18T09:36:35Z</time>
      </trkpt>
      <trkpt lat="46.65278" lon="6.08608">
        <ele>1005.7</ele>
        <time>2021-08-18T09:36:36Z</time>
      </trkpt>
      <trkpt lat="46.65267" lon="6.08596">
        <ele>1005.2</ele>
        <time>2021-08-18T09:36:38Z</time>
      </trkpt>
      <trkpt lat="46.6526" lon="6.08584">
        <ele>1005.3</ele>
        <time>2021-08-18T09:36:40Z</time>
      </trkpt>
      <trkpt lat="46.65256" lon="6.08577">
        <ele>1005.4</ele>
        <time>2021-08-18T09:36:41Z</time>
      </trkpt>
      <trkpt lat="46.65253" lon="6.08571">
        <ele>1005.6</ele>
        <time>2021-08-18T09:36:42Z</time>
      </trkpt>
      <trkpt lat="46.65249" lon="6.08558">
        <ele>1005.9</ele>
        <time>2021-08-18T09:36:44Z</time>
      </trkpt>
      <trkpt lat="46.65248" lon="6.08553">
        <ele>1006</ele>
        <time>2021-08-18T09:36:45Z</time>
      </trkpt>
      <trkpt lat="46.65245" lon="6.0854">
        <ele>1006.4</ele>
        <time>2021-08-18T09:36:47Z</time>
      </trkpt>
      <trkpt lat="46.65243" lon="6.08528">
        <ele>1006.9</ele>
        <time>2021-08-18T09:36:49Z</time>
      </trkpt>
      <trkpt lat="46.65242" lon="6.08522">
        <ele>1007.1</ele>
        <time>2021-08-18T09:36:50Z</time>
      </trkpt>
      <trkpt lat="46.65241" lon="6.08513">
        <ele>1007.5</ele>
        <time>2021-08-18T09:36:52Z</time>
      </trkpt>
      <trkpt lat="46.65242" lon="6.08515">
        <ele>1007.6</ele>
        <time>2021-08-18T09:36:53Z</time>
      </trkpt>
      <trkpt lat="46.6524" lon="6.08508">
        <ele>1008</ele>
        <time>2021-08-18T09:36:54Z</time>
      </trkpt>
      <trkpt lat="46.65237" lon="6.08499">
        <ele>1008.6</ele>
        <time>2021-08-18T09:36:56Z</time>
      </trkpt>
      <trkpt lat="46.65235" lon="6.08491">
        <ele>1009.2</ele>
        <time>2021-08-18T09:36:58Z</time>
      </trkpt>
      <trkpt lat="46.65233" lon="6.08484">
        <ele>1009.6</ele>
        <time>2021-08-18T09:36:59Z</time>
      </trkpt>
      <trkpt lat="46.65232" lon="6.0848">
        <ele>1009.9</ele>
        <time>2021-08-18T09:37:00Z</time>
      </trkpt>
      <trkpt lat="46.6523" lon="6.08476">
        <ele>1010.3</ele>
        <time>2021-08-18T09:37:01Z</time>
      </trkpt>
      <trkpt lat="46.65228" lon="6.08472">
        <ele>1010.6</ele>
        <time>2021-08-18T09:37:02Z</time>
      </trkpt>
      <trkpt lat="46.65226" lon="6.08468">
        <ele>1011</ele>
        <time>2021-08-18T09:37:04Z</time>
      </trkpt>
      <trkpt lat="46.65222" lon="6.08464">
        <ele>1011.4</ele>
        <time>2021-08-18T09:37:06Z</time>
      </trkpt>
      <trkpt lat="46.6522" lon="6.08462">
        <ele>1011.7</ele>
        <time>2021-08-18T09:37:07Z</time>
      </trkpt>
      <trkpt lat="46.65216" lon="6.08458">
        <ele>1012.2</ele>
        <time>2021-08-18T09:37:09Z</time>
      </trkpt>
      <trkpt lat="46.65214" lon="6.08456">
        <ele>1012.4</ele>
        <time>2021-08-18T09:37:10Z</time>
      </trkpt>
      <trkpt lat="46.65212" lon="6.08453">
        <ele>1012.7</ele>
        <time>2021-08-18T09:37:12Z</time>
      </trkpt>
      <trkpt lat="46.65211" lon="6.08453">
        <ele>1012.8</ele>
        <time>2021-08-18T09:37:13Z</time>
      </trkpt>
      <trkpt lat="46.6521" lon="6.08452">
        <ele>1012.8</ele>
        <time>2021-08-18T09:37:15Z</time>
      </trkpt>
      <trkpt lat="46.65209" lon="6.0845">
        <ele>1013</ele>
        <time>2021-08-18T09:37:16Z</time>
      </trkpt>
      <trkpt lat="46.65206" lon="6.08451">
        <ele>1013.2</ele>
        <time>2021-08-18T09:37:18Z</time>
      </trkpt>
      <trkpt lat="46.65205" lon="6.08451">
        <ele>1013.3</ele>
        <time>2021-08-18T09:37:19Z</time>
      </trkpt>
      <trkpt lat="46.65203" lon="6.08453">
        <ele>1013.6</ele>
        <time>2021-08-18T09:37:20Z</time>
      </trkpt>
      <trkpt lat="46.65202" lon="6.08453">
        <ele>1013.7</ele>
        <time>2021-08-18T09:37:21Z</time>
      </trkpt>
      <trkpt lat="46.652" lon="6.08455">
        <ele>1013.9</ele>
        <time>2021-08-18T09:37:22Z</time>
      </trkpt>
      <trkpt lat="46.652" lon="6.08457">
        <ele>1014</ele>
        <time>2021-08-18T09:37:23Z</time>
      </trkpt>
      <trkpt lat="46.65199" lon="6.0846">
        <ele>1014.2</ele>
        <time>2021-08-18T09:37:25Z</time>
      </trkpt>
      <trkpt lat="46.65199" lon="6.08461">
        <ele>1014.2</ele>
        <time>2021-08-18T09:37:26Z</time>
      </trkpt>
      <trkpt lat="46.65201" lon="6.08461">
        <ele>1014.4</ele>
        <time>2021-08-18T09:37:27Z</time>
      </trkpt>
      <trkpt lat="46.65201" lon="6.08461">
        <ele>1014.4</ele>
        <time>2021-08-18T09:37:28Z</time>
      </trkpt>
      <trkpt lat="46.652" lon="6.08463">
        <ele>1014.6</ele>
        <time>2021-08-18T09:37:29Z</time>
      </trkpt>
      <trkpt lat="46.652" lon="6.08465">
        <ele>1014.7</ele>
        <time>2021-08-18T09:37:30Z</time>
      </trkpt>
      <trkpt lat="46.65198" lon="6.08469">
        <ele>1014.9</ele>
        <time>2021-08-18T09:37:32Z</time>
      </trkpt>
      <trkpt lat="46.65197" lon="6.08471">
        <ele>1015</ele>
        <time>2021-08-18T09:37:33Z</time>
      </trkpt>
      <trkpt lat="46.65197" lon="6.08472">
        <ele>1015.1</ele>
        <time>2021-08-18T09:37:34Z</time>
      </trkpt>
      <trkpt lat="46.65196" lon="6.08474">
        <ele>1015.3</ele>
        <time>2021-08-18T09:37:36Z</time>
      </trkpt>
      <trkpt lat="46.65195" lon="6.08476">
        <ele>1015.4</ele>
        <time>2021-08-18T09:37:37Z</time>
      </trkpt>
      <trkpt lat="46.65195" lon="6.08479">
        <ele>1015.5</ele>
        <time>2021-08-18T09:37:38Z</time>
      </trkpt>
      <trkpt lat="46.65195" lon="6.0848">
        <ele>1015.6</ele>
        <time>2021-08-18T09:37:39Z</time>
      </trkpt>
      <trkpt lat="46.65194" lon="6.08481">
        <ele>1015.7</ele>
        <time>2021-08-18T09:37:40Z</time>
      </trkpt>
      <trkpt lat="46.65194" lon="6.08481">
        <ele>1015.7</ele>
        <time>2021-08-18T09:37:42Z</time>
      </trkpt>
      <trkpt lat="46.65193" lon="6.08481">
        <ele>1015.7</ele>
        <time>2021-08-18T09:37:43Z</time>
      </trkpt>
      <trkpt lat="46.65192" lon="6.08483">
        <ele>1015.9</ele>
        <time>2021-08-18T09:37:44Z</time>
      </trkpt>
      <trkpt lat="46.6519" lon="6.08486">
        <ele>1016.1</ele>
        <time>2021-08-18T09:37:45Z</time>
      </trkpt>
      <trkpt lat="46.6519" lon="6.08487">
        <ele>1016.1</ele>
        <time>2021-08-18T09:37:46Z</time>
      </trkpt>
      <trkpt lat="46.65188" lon="6.0849">
        <ele>1016.3</ele>
        <time>2021-08-18T09:37:47Z</time>
      </trkpt>
      <trkpt lat="46.65187" lon="6.08492">
        <ele>1016.5</ele>
        <time>2021-08-18T09:37:48Z</time>
      </trkpt>
      <trkpt lat="46.65186" lon="6.08494">
        <ele>1016.5</ele>
        <time>2021-08-18T09:37:50Z</time>
      </trkpt>
      <trkpt lat="46.65185" lon="6.08496">
        <ele>1016.6</ele>
        <time>2021-08-18T09:37:51Z</time>
      </trkpt>
      <trkpt lat="46.65184" lon="6.08498">
        <ele>1016.7</ele>
        <time>2021-08-18T09:37:52Z</time>
      </trkpt>
      <trkpt lat="46.65184" lon="6.085">
        <ele>1016.8</ele>
        <time>2021-08-18T09:37:53Z</time>
      </trkpt>
      <trkpt lat="46.65182" lon="6.08501">
        <ele>1016.9</ele>
        <time>2021-08-18T09:37:54Z</time>
      </trkpt>
      <trkpt lat="46.65181" lon="6.08502">
        <ele>1016.9</ele>
        <time>2021-08-18T09:37:56Z</time>
      </trkpt>
      <trkpt lat="46.6518" lon="6.08504">
        <ele>1017</ele>
        <time>2021-08-18T09:37:57Z</time>
      </trkpt>
      <trkpt lat="46.65179" lon="6.08506">
        <ele>1017.1</ele>
        <time>2021-08-18T09:37:58Z</time>
      </trkpt>
      <trkpt lat="46.65177" lon="6.08507">
        <ele>1017.1</ele>
        <time>2021-08-18T09:37:59Z</time>
      </trkpt>
      <trkpt lat="46.65176" lon="6.08509">
        <ele>1017.2</ele>
        <time>2021-08-18T09:38:00Z</time>
      </trkpt>
      <trkpt lat="46.65173" lon="6.08512">
        <ele>1017.3</ele>
        <time>2021-08-18T09:38:02Z</time>
      </trkpt>
      <trkpt lat="46.65171" lon="6.08515">
        <ele>1017.3</ele>
        <time>2021-08-18T09:38:03Z</time>
      </trkpt>
      <trkpt lat="46.6517" lon="6.08518">
        <ele>1017.3</ele>
        <time>2021-08-18T09:38:05Z</time>
      </trkpt>
      <trkpt lat="46.65167" lon="6.08522">
        <ele>1017.4</ele>
        <time>2021-08-18T09:38:06Z</time>
      </trkpt>
      <trkpt lat="46.65166" lon="6.08523">
        <ele>1017.4</ele>
        <time>2021-08-18T09:38:07Z</time>
      </trkpt>
      <trkpt lat="46.65164" lon="6.08526">
        <ele>1017.3</ele>
        <time>2021-08-18T09:38:09Z</time>
      </trkpt>
      <trkpt lat="46.65162" lon="6.0853">
        <ele>1017.1</ele>
        <time>2021-08-18T09:38:10Z</time>
      </trkpt>
      <trkpt lat="46.65159" lon="6.08534">
        <ele>1016.9</ele>
        <time>2021-08-18T09:38:11Z</time>
      </trkpt>
      <trkpt lat="46.6515" lon="6.08548">
        <ele>1015.8</ele>
        <time>2021-08-18T09:38:13Z</time>
      </trkpt>
      <trkpt lat="46.65145" lon="6.08555">
        <ele>1015.2</ele>
        <time>2021-08-18T09:38:14Z</time>
      </trkpt>
      <trkpt lat="46.65133" lon="6.08566">
        <ele>1013.7</ele>
        <time>2021-08-18T09:38:16Z</time>
      </trkpt>
      <trkpt lat="46.65127" lon="6.08573">
        <ele>1012.9</ele>
        <time>2021-08-18T09:38:17Z</time>
      </trkpt>
      <trkpt lat="46.6512" lon="6.0858">
        <ele>1012.1</ele>
        <time>2021-08-18T09:38:18Z</time>
      </trkpt>
      <trkpt lat="46.65114" lon="6.08588">
        <ele>1011.5</ele>
        <time>2021-08-18T09:38:19Z</time>
      </trkpt>
      <trkpt lat="46.65103" lon="6.08603">
        <ele>1010.6</ele>
        <time>2021-08-18T09:38:21Z</time>
      </trkpt>
      <trkpt lat="46.65093" lon="6.08618">
        <ele>1010.2</ele>
        <time>2021-08-18T09:38:23Z</time>
      </trkpt>
      <trkpt lat="46.65084" lon="6.08632">
        <ele>1010.4</ele>
        <time>2021-08-18T09:38:25Z</time>
      </trkpt>
      <trkpt lat="46.6508" lon="6.08639">
        <ele>1010.7</ele>
        <time>2021-08-18T09:38:26Z</time>
      </trkpt>
      <trkpt lat="46.65072" lon="6.08649">
        <ele>1011.4</ele>
        <time>2021-08-18T09:38:28Z</time>
      </trkpt>
      <trkpt lat="46.65069" lon="6.08653">
        <ele>1011.7</ele>
        <time>2021-08-18T09:38:29Z</time>
      </trkpt>
      <trkpt lat="46.65069" lon="6.08657">
        <ele>1011.8</ele>
        <time>2021-08-18T09:38:30Z</time>
      </trkpt>
      <trkpt lat="46.65069" lon="6.08659">
        <ele>1011.9</ele>
        <time>2021-08-18T09:38:31Z</time>
      </trkpt>
      <trkpt lat="46.65068" lon="6.08663">
        <ele>1012.1</ele>
        <time>2021-08-18T09:38:32Z</time>
      </trkpt>
      <trkpt lat="46.65067" lon="6.08667">
        <ele>1012.2</ele>
        <time>2021-08-18T09:38:33Z</time>
      </trkpt>
      <trkpt lat="46.65065" lon="6.08674">
        <ele>1012.5</ele>
        <time>2021-08-18T09:38:35Z</time>
      </trkpt>
      <trkpt lat="46.65062" lon="6.0868">
        <ele>1012.8</ele>
        <time>2021-08-18T09:38:36Z</time>
      </trkpt>
      <trkpt lat="46.65062" lon="6.08685">
        <ele>1013</ele>
        <time>2021-08-18T09:38:38Z</time>
      </trkpt>
      <trkpt lat="46.65062" lon="6.08689">
        <ele>1013.1</ele>
        <time>2021-08-18T09:38:39Z</time>
      </trkpt>
      <trkpt lat="46.65062" lon="6.08692">
        <ele>1013.3</ele>
        <time>2021-08-18T09:38:41Z</time>
      </trkpt>
      <trkpt lat="46.65061" lon="6.08698">
        <ele>1013.5</ele>
        <time>2021-08-18T09:38:42Z</time>
      </trkpt>
      <trkpt lat="46.6506" lon="6.08699">
        <ele>1013.7</ele>
        <time>2021-08-18T09:38:43Z</time>
      </trkpt>
      <trkpt lat="46.65058" lon="6.08702">
        <ele>1013.9</ele>
        <time>2021-08-18T09:38:45Z</time>
      </trkpt>
      <trkpt lat="46.65056" lon="6.08704">
        <ele>1014.1</ele>
        <time>2021-08-18T09:38:47Z</time>
      </trkpt>
      <trkpt lat="46.65053" lon="6.08705">
        <ele>1014.4</ele>
        <time>2021-08-18T09:38:48Z</time>
      </trkpt>
      <trkpt lat="46.65051" lon="6.08705">
        <ele>1014.5</ele>
        <time>2021-08-18T09:38:49Z</time>
      </trkpt>
      <trkpt lat="46.65047" lon="6.08706">
        <ele>1014.9</ele>
        <time>2021-08-18T09:38:51Z</time>
      </trkpt>
      <trkpt lat="46.65046" lon="6.08706">
        <ele>1015.2</ele>
        <time>2021-08-18T09:38:52Z</time>
      </trkpt>
      <trkpt lat="46.65045" lon="6.08707">
        <ele>1015.3</ele>
        <time>2021-08-18T09:38:53Z</time>
      </trkpt>
      <trkpt lat="46.65044" lon="6.08708">
        <ele>1015.3</ele>
        <time>2021-08-18T09:38:54Z</time>
      </trkpt>
      <trkpt lat="46.65044" lon="6.08708">
        <ele>1015.4</ele>
        <time>2021-08-18T09:38:55Z</time>
      </trkpt>
      <trkpt lat="46.65045" lon="6.08709">
        <ele>1015.5</ele>
        <time>2021-08-18T09:38:56Z</time>
      </trkpt>
      <trkpt lat="46.65046" lon="6.08709">
        <ele>1015.6</ele>
        <time>2021-08-18T09:38:57Z</time>
      </trkpt>
      <trkpt lat="46.65046" lon="6.08709">
        <ele>1015.7</ele>
        <time>2021-08-18T09:38:59Z</time>
      </trkpt>
      <trkpt lat="46.65046" lon="6.08709">
        <ele>1015.8</ele>
        <time>2021-08-18T09:39:00Z</time>
      </trkpt>
      <trkpt lat="46.65046" lon="6.08709">
        <ele>1015.9</ele>
        <time>2021-08-18T09:39:01Z</time>
      </trkpt>
      <trkpt lat="46.65046" lon="6.08709">
        <ele>1016</ele>
        <time>2021-08-18T09:39:02Z</time>
      </trkpt>
      <trkpt lat="46.65046" lon="6.08709">
        <ele>1016.1</ele>
        <time>2021-08-18T09:39:03Z</time>
      </trkpt>
      <trkpt lat="46.65046" lon="6.08709">
        <ele>1016.2</ele>
        <time>2021-08-18T09:39:04Z</time>
      </trkpt>
      <trkpt lat="46.65064" lon="6.08698">
        <ele>1015.2</ele>
        <time>2021-08-18T09:39:15Z</time>
      </trkpt>
      <trkpt lat="46.65063" lon="6.08697">
        <ele>1015.3</ele>
        <time>2021-08-18T09:39:16Z</time>
      </trkpt>
      <trkpt lat="46.65063" lon="6.08697">
        <ele>1015.4</ele>
        <time>2021-08-18T09:39:17Z</time>
      </trkpt>
      <trkpt lat="46.65063" lon="6.08694">
        <ele>1015.7</ele>
        <time>2021-08-18T09:39:18Z</time>
      </trkpt>
      <trkpt lat="46.65063" lon="6.0869">
        <ele>1015.9</ele>
        <time>2021-08-18T09:39:20Z</time>
      </trkpt>
      <trkpt lat="46.65063" lon="6.08688">
        <ele>1016</ele>
        <time>2021-08-18T09:39:21Z</time>
      </trkpt>
      <trkpt lat="46.65063" lon="6.08684">
        <ele>1016.2</ele>
        <time>2021-08-18T09:39:23Z</time>
      </trkpt>
      <trkpt lat="46.65061" lon="6.08681">
        <ele>1016.7</ele>
        <time>2021-08-18T09:39:24Z</time>
      </trkpt>
      <trkpt lat="46.65058" lon="6.08676">
        <ele>1017.2</ele>
        <time>2021-08-18T09:39:26Z</time>
      </trkpt>
      <trkpt lat="46.65055" lon="6.08674">
        <ele>1017.7</ele>
        <time>2021-08-18T09:39:27Z</time>
      </trkpt>
      <trkpt lat="46.65051" lon="6.08671">
        <ele>1018.1</ele>
        <time>2021-08-18T09:39:28Z</time>
      </trkpt>
      <trkpt lat="46.65048" lon="6.08668">
        <ele>1018.5</ele>
        <time>2021-08-18T09:39:29Z</time>
      </trkpt>
      <trkpt lat="46.65045" lon="6.08664">
        <ele>1018.8</ele>
        <time>2021-08-18T09:39:30Z</time>
      </trkpt>
      <trkpt lat="46.65042" lon="6.0866">
        <ele>1018.9</ele>
        <time>2021-08-18T09:39:32Z</time>
      </trkpt>
      <trkpt lat="46.6504" lon="6.08657">
        <ele>1019</ele>
        <time>2021-08-18T09:39:33Z</time>
      </trkpt>
      <trkpt lat="46.65036" lon="6.08652">
        <ele>1019.1</ele>
        <time>2021-08-18T09:39:34Z</time>
      </trkpt>
      <trkpt lat="46.65033" lon="6.08648">
        <ele>1019.1</ele>
        <time>2021-08-18T09:39:35Z</time>
      </trkpt>
      <trkpt lat="46.6503" lon="6.08644">
        <ele>1019.2</ele>
        <time>2021-08-18T09:39:37Z</time>
      </trkpt>
      <trkpt lat="46.65027" lon="6.08641">
        <ele>1019.3</ele>
        <time>2021-08-18T09:39:39Z</time>
      </trkpt>
      <trkpt lat="46.65024" lon="6.08639">
        <ele>1019.3</ele>
        <time>2021-08-18T09:39:40Z</time>
      </trkpt>
      <trkpt lat="46.65021" lon="6.08636">
        <ele>1019.3</ele>
        <time>2021-08-18T09:39:41Z</time>
      </trkpt>
      <trkpt lat="46.65018" lon="6.08635">
        <ele>1019.3</ele>
        <time>2021-08-18T09:39:42Z</time>
      </trkpt>
      <trkpt lat="46.65015" lon="6.08631">
        <ele>1019.3</ele>
        <time>2021-08-18T09:39:43Z</time>
      </trkpt>
      <trkpt lat="46.65014" lon="6.0863">
        <ele>1019.3</ele>
        <time>2021-08-18T09:39:44Z</time>
      </trkpt>
      <trkpt lat="46.65011" lon="6.08625">
        <ele>1019.2</ele>
        <time>2021-08-18T09:39:46Z</time>
      </trkpt>
      <trkpt lat="46.6501" lon="6.08619">
        <ele>1019.1</ele>
        <time>2021-08-18T09:39:48Z</time>
      </trkpt>
      <trkpt lat="46.65007" lon="6.08615">
        <ele>1019.1</ele>
        <time>2021-08-18T09:39:49Z</time>
      </trkpt>
      <trkpt lat="46.65005" lon="6.0861">
        <ele>1019</ele>
        <time>2021-08-18T09:39:51Z</time>
      </trkpt>
      <trkpt lat="46.65004" lon="6.08605">
        <ele>1018.9</ele>
        <time>2021-08-18T09:39:52Z</time>
      </trkpt>
      <trkpt lat="46.65002" lon="6.086">
        <ele>1018.8</ele>
        <time>2021-08-18T09:39:54Z</time>
      </trkpt>
      <trkpt lat="46.65001" lon="6.08596">
        <ele>1018.8</ele>
        <time>2021-08-18T09:39:55Z</time>
      </trkpt>
      <trkpt lat="46.65001" lon="6.08591">
        <ele>1018.7</ele>
        <time>2021-08-18T09:39:56Z</time>
      </trkpt>
      <trkpt lat="46.65001" lon="6.08589">
        <ele>1018.7</ele>
        <time>2021-08-18T09:39:57Z</time>
      </trkpt>
      <trkpt lat="46.65" lon="6.08585">
        <ele>1018.6</ele>
        <time>2021-08-18T09:39:59Z</time>
      </trkpt>
      <trkpt lat="46.65" lon="6.08583">
        <ele>1018.6</ele>
        <time>2021-08-18T09:40:00Z</time>
      </trkpt>
      <trkpt lat="46.64997" lon="6.08581">
        <ele>1018.5</ele>
        <time>2021-08-18T09:40:01Z</time>
      </trkpt>
      <trkpt lat="46.64996" lon="6.08581">
        <ele>1018.5</ele>
        <time>2021-08-18T09:40:02Z</time>
      </trkpt>
      <trkpt lat="46.64992" lon="6.08578">
        <ele>1018.4</ele>
        <time>2021-08-18T09:40:04Z</time>
      </trkpt>
      <trkpt lat="46.6499" lon="6.08577">
        <ele>1018.4</ele>
        <time>2021-08-18T09:40:05Z</time>
      </trkpt>
      <trkpt lat="46.64989" lon="6.08576">
        <ele>1018.4</ele>
        <time>2021-08-18T09:40:06Z</time>
      </trkpt>
      <trkpt lat="46.64987" lon="6.08573">
        <ele>1018.3</ele>
        <time>2021-08-18T09:40:07Z</time>
      </trkpt>
      <trkpt lat="46.64986" lon="6.08571">
        <ele>1018.3</ele>
        <time>2021-08-18T09:40:09Z</time>
      </trkpt>
      <trkpt lat="46.64985" lon="6.08569">
        <ele>1018.3</ele>
        <time>2021-08-18T09:40:10Z</time>
      </trkpt>
      <trkpt lat="46.64984" lon="6.08567">
        <ele>1018.3</ele>
        <time>2021-08-18T09:40:11Z</time>
      </trkpt>
      <trkpt lat="46.64983" lon="6.08562">
        <ele>1018.3</ele>
        <time>2021-08-18T09:40:12Z</time>
      </trkpt>
      <trkpt lat="46.64983" lon="6.08562">
        <ele>1018.3</ele>
        <time>2021-08-18T09:40:13Z</time>
      </trkpt>
      <trkpt lat="46.64985" lon="6.08559">
        <ele>1018.3</ele>
        <time>2021-08-18T09:40:14Z</time>
      </trkpt>
      <trkpt lat="46.64985" lon="6.08554">
        <ele>1018.3</ele>
        <time>2021-08-18T09:40:15Z</time>
      </trkpt>
      <trkpt lat="46.64984" lon="6.0855">
        <ele>1018.2</ele>
        <time>2021-08-18T09:40:17Z</time>
      </trkpt>
      <trkpt lat="46.64983" lon="6.08547">
        <ele>1018.2</ele>
        <time>2021-08-18T09:40:19Z</time>
      </trkpt>
      <trkpt lat="46.64982" lon="6.08543">
        <ele>1018.2</ele>
        <time>2021-08-18T09:40:20Z</time>
      </trkpt>
      <trkpt lat="46.64981" lon="6.08539">
        <ele>1018.2</ele>
        <time>2021-08-18T09:40:22Z</time>
      </trkpt>
      <trkpt lat="46.6498" lon="6.08536">
        <ele>1018.1</ele>
        <time>2021-08-18T09:40:45Z</time>
      </trkpt>
      <trkpt lat="46.64979" lon="6.08532">
        <ele>1018.1</ele>
        <time>2021-08-18T09:40:46Z</time>
      </trkpt>
      <trkpt lat="46.64976" lon="6.08524">
        <ele>1017.8</ele>
        <time>2021-08-18T09:40:47Z</time>
      </trkpt>
      <trkpt lat="46.64974" lon="6.0852">
        <ele>1017.7</ele>
        <time>2021-08-18T09:40:48Z</time>
      </trkpt>
      <trkpt lat="46.64969" lon="6.08513">
        <ele>1017.2</ele>
        <time>2021-08-18T09:40:50Z</time>
      </trkpt>
      <trkpt lat="46.64967" lon="6.08512">
        <ele>1017.1</ele>
        <time>2021-08-18T09:40:51Z</time>
      </trkpt>
      <trkpt lat="46.64966" lon="6.08507">
        <ele>1016.8</ele>
        <time>2021-08-18T09:40:53Z</time>
      </trkpt>
      <trkpt lat="46.64966" lon="6.08506">
        <ele>1016.8</ele>
        <time>2021-08-18T09:40:54Z</time>
      </trkpt>
      <trkpt lat="46.64964" lon="6.08506">
        <ele>1016.6</ele>
        <time>2021-08-18T09:40:55Z</time>
      </trkpt>
      <trkpt lat="46.64958" lon="6.08505">
        <ele>1015.3</ele>
        <time>2021-08-18T09:40:57Z</time>
      </trkpt>
      <trkpt lat="46.6495" lon="6.08506">
        <ele>1014.4</ele>
        <time>2021-08-18T09:40:59Z</time>
      </trkpt>
      <trkpt lat="46.64943" lon="6.08508">
        <ele>1013.8</ele>
        <time>2021-08-18T09:41:00Z</time>
      </trkpt>
      <trkpt lat="46.6493" lon="6.08513">
        <ele>1012.8</ele>
        <time>2021-08-18T09:41:02Z</time>
      </trkpt>
      <trkpt lat="46.64924" lon="6.08519">
        <ele>1012.5</ele>
        <time>2021-08-18T09:41:04Z</time>
      </trkpt>
      <trkpt lat="46.6492" lon="6.08523">
        <ele>1012.3</ele>
        <time>2021-08-18T09:41:05Z</time>
      </trkpt>
      <trkpt lat="46.64918" lon="6.08524">
        <ele>1012.2</ele>
        <time>2021-08-18T09:41:07Z</time>
      </trkpt>
      <trkpt lat="46.64921" lon="6.08521">
        <ele>1012.2</ele>
        <time>2021-08-18T09:41:08Z</time>
      </trkpt>
      <trkpt lat="46.64922" lon="6.0852">
        <ele>1012.2</ele>
        <time>2021-08-18T09:41:10Z</time>
      </trkpt>
      <trkpt lat="46.64922" lon="6.0852">
        <ele>1012.2</ele>
        <time>2021-08-18T09:41:11Z</time>
      </trkpt>
      <trkpt lat="46.64922" lon="6.0852">
        <ele>1012.2</ele>
        <time>2021-08-18T09:41:13Z</time>
      </trkpt>
      <trkpt lat="46.64922" lon="6.0852">
        <ele>1012.2</ele>
        <time>2021-08-18T09:41:14Z</time>
      </trkpt>
      <trkpt lat="46.64922" lon="6.0852">
        <ele>1012.2</ele>
        <time>2021-08-18T09:41:16Z</time>
      </trkpt>
      <trkpt lat="46.64915" lon="6.0853">
        <ele>1012.1</ele>
        <time>2021-08-18T09:41:28Z</time>
      </trkpt>
      <trkpt lat="46.64911" lon="6.08535">
        <ele>1012.2</ele>
        <time>2021-08-18T09:41:30Z</time>
      </trkpt>
      <trkpt lat="46.64908" lon="6.08539">
        <ele>1012.3</ele>
        <time>2021-08-18T09:41:31Z</time>
      </trkpt>
      <trkpt lat="46.64904" lon="6.08544">
        <ele>1012.4</ele>
        <time>2021-08-18T09:41:33Z</time>
      </trkpt>
      <trkpt lat="46.64902" lon="6.08547">
        <ele>1012.5</ele>
        <time>2021-08-18T09:41:34Z</time>
      </trkpt>
      <trkpt lat="46.64899" lon="6.0855">
        <ele>1012.6</ele>
        <time>2021-08-18T09:41:35Z</time>
      </trkpt>
      <trkpt lat="46.64898" lon="6.08551">
        <ele>1012.6</ele>
        <time>2021-08-18T09:41:36Z</time>
      </trkpt>
      <trkpt lat="46.64897" lon="6.08554">
        <ele>1012.7</ele>
        <time>2021-08-18T09:41:37Z</time>
      </trkpt>
      <trkpt lat="46.64894" lon="6.08558">
        <ele>1012.8</ele>
        <time>2021-08-18T09:41:39Z</time>
      </trkpt>
      <trkpt lat="46.64892" lon="6.08561">
        <ele>1013</ele>
        <time>2021-08-18T09:41:40Z</time>
      </trkpt>
      <trkpt lat="46.64888" lon="6.08566">
        <ele>1013.2</ele>
        <time>2021-08-18T09:41:42Z</time>
      </trkpt>
      <trkpt lat="46.64887" lon="6.08567">
        <ele>1013.2</ele>
        <time>2021-08-18T09:41:43Z</time>
      </trkpt>
      <trkpt lat="46.64886" lon="6.08568">
        <ele>1013.3</ele>
        <time>2021-08-18T09:41:44Z</time>
      </trkpt>
      <trkpt lat="46.64883" lon="6.08571">
        <ele>1013.5</ele>
        <time>2021-08-18T09:41:46Z</time>
      </trkpt>
      <trkpt lat="46.64882" lon="6.08572">
        <ele>1013.6</ele>
        <time>2021-08-18T09:41:47Z</time>
      </trkpt>
      <trkpt lat="46.64879" lon="6.08571">
        <ele>1013.7</ele>
        <time>2021-08-18T09:41:48Z</time>
      </trkpt>
      <trkpt lat="46.64877" lon="6.08571">
        <ele>1013.9</ele>
        <time>2021-08-18T09:41:49Z</time>
      </trkpt>
      <trkpt lat="46.64875" lon="6.0857">
        <ele>1014</ele>
        <time>2021-08-18T09:41:51Z</time>
      </trkpt>
      <trkpt lat="46.64872" lon="6.08569">
        <ele>1014.2</ele>
        <time>2021-08-18T09:41:52Z</time>
      </trkpt>
      <trkpt lat="46.6487" lon="6.08568">
        <ele>1014.3</ele>
        <time>2021-08-18T09:41:53Z</time>
      </trkpt>
      <trkpt lat="46.64868" lon="6.08567">
        <ele>1014.5</ele>
        <time>2021-08-18T09:41:55Z</time>
      </trkpt>
      <trkpt lat="46.64866" lon="6.08566">
        <ele>1014.6</ele>
        <time>2021-08-18T09:41:56Z</time>
      </trkpt>
      <trkpt lat="46.64864" lon="6.08565">
        <ele>1014.8</ele>
        <time>2021-08-18T09:41:57Z</time>
      </trkpt>
      <trkpt lat="46.64862" lon="6.08564">
        <ele>1014.9</ele>
        <time>2021-08-18T09:42:22Z</time>
      </trkpt>
      <trkpt lat="46.64859" lon="6.08563">
        <ele>1015.1</ele>
        <time>2021-08-18T09:42:23Z</time>
      </trkpt>
      <trkpt lat="46.64857" lon="6.08562">
        <ele>1015.3</ele>
        <time>2021-08-18T09:42:24Z</time>
      </trkpt>
      <trkpt lat="46.64856" lon="6.08561">
        <ele>1015.3</ele>
        <time>2021-08-18T09:42:26Z</time>
      </trkpt>
      <trkpt lat="46.64854" lon="6.0856">
        <ele>1015.4</ele>
        <time>2021-08-18T09:42:27Z</time>
      </trkpt>
      <trkpt lat="46.64853" lon="6.0856">
        <ele>1015.5</ele>
        <time>2021-08-18T09:42:28Z</time>
      </trkpt>
      <trkpt lat="46.64852" lon="6.08559">
        <ele>1015.6</ele>
        <time>2021-08-18T09:42:29Z</time>
      </trkpt>
      <trkpt lat="46.64851" lon="6.08557">
        <ele>1015.7</ele>
        <time>2021-08-18T09:42:31Z</time>
      </trkpt>
      <trkpt lat="46.64849" lon="6.08555">
        <ele>1015.8</ele>
        <time>2021-08-18T09:42:32Z</time>
      </trkpt>
      <trkpt lat="46.64849" lon="6.08554">
        <ele>1015.8</ele>
        <time>2021-08-18T09:42:33Z</time>
      </trkpt>
      <trkpt lat="46.6485" lon="6.08553">
        <ele>1015.8</ele>
        <time>2021-08-18T09:42:34Z</time>
      </trkpt>
      <trkpt lat="46.6485" lon="6.08553">
        <ele>1015.8</ele>
        <time>2021-08-18T09:42:36Z</time>
      </trkpt>
      <trkpt lat="46.6485" lon="6.08553">
        <ele>1015.8</ele>
        <time>2021-08-18T09:42:37Z</time>
      </trkpt>
      <trkpt lat="46.6485" lon="6.08553">
        <ele>1015.8</ele>
        <time>2021-08-18T09:42:38Z</time>
      </trkpt>
      <trkpt lat="46.6485" lon="6.08553">
        <ele>1015.8</ele>
        <time>2021-08-18T09:42:40Z</time>
      </trkpt>
      <trkpt lat="46.6485" lon="6.08553">
        <ele>1015.8</ele>
        <time>2021-08-18T09:42:42Z</time>
      </trkpt>
      <trkpt lat="46.6485" lon="6.08553">
        <ele>1015.8</ele>
        <time>2021-08-18T09:42:43Z</time>
      </trkpt>
      <trkpt lat="46.6485" lon="6.08553">
        <ele>1015.8</ele>
        <time>2021-08-18T09:42:44Z</time>
      </trkpt>
      <trkpt lat="46.6485" lon="6.08553">
        <ele>1015.8</ele>
        <time>2021-08-18T09:42:45Z</time>
      </trkpt>
      <trkpt lat="46.6485" lon="6.08553">
        <ele>1015.8</ele>
        <time>2021-08-18T09:42:46Z</time>
      </trkpt>
      <trkpt lat="46.64827" lon="6.08533">
        <ele>1017</ele>
        <time>2021-08-18T09:43:06Z</time>
      </trkpt>
      <trkpt lat="46.64819" lon="6.08525">
        <ele>1017.4</ele>
        <time>2021-08-18T09:43:08Z</time>
      </trkpt>
      <trkpt lat="46.64813" lon="6.08519">
        <ele>1017.8</ele>
        <time>2021-08-18T09:43:09Z</time>
      </trkpt>
      <trkpt lat="46.64811" lon="6.08516">
        <ele>1018</ele>
        <time>2021-08-18T09:43:10Z</time>
      </trkpt>
      <trkpt lat="46.64809" lon="6.08513">
        <ele>1018.1</ele>
        <time>2021-08-18T09:43:11Z</time>
      </trkpt>
      <trkpt lat="46.64807" lon="6.08511">
        <ele>1018.3</ele>
        <time>2021-08-18T09:43:12Z</time>
      </trkpt>
      <trkpt lat="46.64804" lon="6.08508">
        <ele>1018.4</ele>
        <time>2021-08-18T09:43:13Z</time>
      </trkpt>
      <trkpt lat="46.64802" lon="6.08506">
        <ele>1018.6</ele>
        <time>2021-08-18T09:43:15Z</time>
      </trkpt>
      <trkpt lat="46.64799" lon="6.08505">
        <ele>1018.7</ele>
        <time>2021-08-18T09:43:16Z</time>
      </trkpt>
      <trkpt lat="46.64796" lon="6.08502">
        <ele>1018.9</ele>
        <time>2021-08-18T09:43:18Z</time>
      </trkpt>
      <trkpt lat="46.64793" lon="6.085">
        <ele>1019</ele>
        <time>2021-08-18T09:43:19Z</time>
      </trkpt>
      <trkpt lat="46.64792" lon="6.08498">
        <ele>1019.1</ele>
        <time>2021-08-18T09:43:20Z</time>
      </trkpt>
      <trkpt lat="46.6479" lon="6.08496">
        <ele>1019.2</ele>
        <time>2021-08-18T09:43:22Z</time>
      </trkpt>
      <trkpt lat="46.64787" lon="6.08493">
        <ele>1019.4</ele>
        <time>2021-08-18T09:43:23Z</time>
      </trkpt>
      <trkpt lat="46.64786" lon="6.08492">
        <ele>1019.5</ele>
        <time>2021-08-18T09:43:24Z</time>
      </trkpt>
      <trkpt lat="46.64784" lon="6.08488">
        <ele>1019.6</ele>
        <time>2021-08-18T09:43:25Z</time>
      </trkpt>
      <trkpt lat="46.64783" lon="6.08486">
        <ele>1019.7</ele>
        <time>2021-08-18T09:43:27Z</time>
      </trkpt>
      <trkpt lat="46.64782" lon="6.08484">
        <ele>1019.8</ele>
        <time>2021-08-18T09:43:28Z</time>
      </trkpt>
      <trkpt lat="46.64781" lon="6.08482">
        <ele>1019.9</ele>
        <time>2021-08-18T09:43:29Z</time>
      </trkpt>
      <trkpt lat="46.64779" lon="6.0848">
        <ele>1020</ele>
        <time>2021-08-18T09:43:31Z</time>
      </trkpt>
      <trkpt lat="46.64777" lon="6.08476">
        <ele>1020.2</ele>
        <time>2021-08-18T09:43:33Z</time>
      </trkpt>
      <trkpt lat="46.64775" lon="6.08471">
        <ele>1020.4</ele>
        <time>2021-08-18T09:43:35Z</time>
      </trkpt>
      <trkpt lat="46.64774" lon="6.08469">
        <ele>1020.5</ele>
        <time>2021-08-18T09:43:36Z</time>
      </trkpt>
      <trkpt lat="46.64771" lon="6.08464">
        <ele>1020.8</ele>
        <time>2021-08-18T09:43:38Z</time>
      </trkpt>
      <trkpt lat="46.64768" lon="6.08459">
        <ele>1021</ele>
        <time>2021-08-18T09:43:40Z</time>
      </trkpt>
      <trkpt lat="46.64765" lon="6.08456">
        <ele>1021.3</ele>
        <time>2021-08-18T09:43:42Z</time>
      </trkpt>
      <trkpt lat="46.64761" lon="6.08452">
        <ele>1021.6</ele>
        <time>2021-08-18T09:43:44Z</time>
      </trkpt>
      <trkpt lat="46.64759" lon="6.08452">
        <ele>1021.7</ele>
        <time>2021-08-18T09:43:45Z</time>
      </trkpt>
      <trkpt lat="46.64758" lon="6.08451">
        <ele>1021.7</ele>
        <time>2021-08-18T09:43:46Z</time>
      </trkpt>
      <trkpt lat="46.64756" lon="6.08446">
        <ele>1022</ele>
        <time>2021-08-18T09:43:48Z</time>
      </trkpt>
      <trkpt lat="46.64755" lon="6.08444">
        <ele>1022.1</ele>
        <time>2021-08-18T09:43:49Z</time>
      </trkpt>
      <trkpt lat="46.64753" lon="6.08441">
        <ele>1022.3</ele>
        <time>2021-08-18T09:43:51Z</time>
      </trkpt>
      <trkpt lat="46.6475" lon="6.08438">
        <ele>1022.5</ele>
        <time>2021-08-18T09:43:53Z</time>
      </trkpt>
      <trkpt lat="46.64748" lon="6.08437">
        <ele>1022.6</ele>
        <time>2021-08-18T09:43:54Z</time>
      </trkpt>
      <trkpt lat="46.64746" lon="6.08435">
        <ele>1022.7</ele>
        <time>2021-08-18T09:43:56Z</time>
      </trkpt>
      <trkpt lat="46.64744" lon="6.08433">
        <ele>1022.9</ele>
        <time>2021-08-18T09:43:58Z</time>
      </trkpt>
      <trkpt lat="46.64742" lon="6.08432">
        <ele>1023</ele>
        <time>2021-08-18T09:43:59Z</time>
      </trkpt>
      <trkpt lat="46.64741" lon="6.08431">
        <ele>1023.1</ele>
        <time>2021-08-18T09:44:00Z</time>
      </trkpt>
      <trkpt lat="46.6474" lon="6.0843">
        <ele>1023.2</ele>
        <time>2021-08-18T09:44:01Z</time>
      </trkpt>
      <trkpt lat="46.64738" lon="6.0843">
        <ele>1023.3</ele>
        <time>2021-08-18T09:44:02Z</time>
      </trkpt>
      <trkpt lat="46.64737" lon="6.08429">
        <ele>1023.4</ele>
        <time>2021-08-18T09:44:03Z</time>
      </trkpt>
      <trkpt lat="46.64735" lon="6.08428">
        <ele>1023.5</ele>
        <time>2021-08-18T09:44:04Z</time>
      </trkpt>
      <trkpt lat="46.64734" lon="6.08427">
        <ele>1023.6</ele>
        <time>2021-08-18T09:44:06Z</time>
      </trkpt>
      <trkpt lat="46.64733" lon="6.08426">
        <ele>1023.7</ele>
        <time>2021-08-18T09:44:07Z</time>
      </trkpt>
      <trkpt lat="46.64731" lon="6.08426">
        <ele>1023.8</ele>
        <time>2021-08-18T09:44:08Z</time>
      </trkpt>
      <trkpt lat="46.6473" lon="6.08425">
        <ele>1023.9</ele>
        <time>2021-08-18T09:44:09Z</time>
      </trkpt>
      <trkpt lat="46.64725" lon="6.08425">
        <ele>1024.2</ele>
        <time>2021-08-18T09:44:11Z</time>
      </trkpt>
      <trkpt lat="46.64724" lon="6.08425">
        <ele>1024.3</ele>
        <time>2021-08-18T09:44:13Z</time>
      </trkpt>
      <trkpt lat="46.64723" lon="6.08425">
        <ele>1024.4</ele>
        <time>2021-08-18T09:44:14Z</time>
      </trkpt>
      <trkpt lat="46.64721" lon="6.08425">
        <ele>1024.4</ele>
        <time>2021-08-18T09:44:15Z</time>
      </trkpt>
      <trkpt lat="46.6472" lon="6.08424">
        <ele>1024.6</ele>
        <time>2021-08-18T09:44:16Z</time>
      </trkpt>
      <trkpt lat="46.64717" lon="6.08423">
        <ele>1024.8</ele>
        <time>2021-08-18T09:44:17Z</time>
      </trkpt>
      <trkpt lat="46.64714" lon="6.0842">
        <ele>1025</ele>
        <time>2021-08-18T09:44:18Z</time>
      </trkpt>
      <trkpt lat="46.64712" lon="6.08418">
        <ele>1025.1</ele>
        <time>2021-08-18T09:44:19Z</time>
      </trkpt>
      <trkpt lat="46.64709" lon="6.08415">
        <ele>1025.3</ele>
        <time>2021-08-18T09:44:21Z</time>
      </trkpt>
      <trkpt lat="46.64707" lon="6.08412">
        <ele>1025.4</ele>
        <time>2021-08-18T09:44:22Z</time>
      </trkpt>
      <trkpt lat="46.64704" lon="6.08409">
        <ele>1025.6</ele>
        <time>2021-08-18T09:44:23Z</time>
      </trkpt>
      <trkpt lat="46.647" lon="6.08405">
        <ele>1025.7</ele>
        <time>2021-08-18T09:44:25Z</time>
      </trkpt>
      <trkpt lat="46.64698" lon="6.08401">
        <ele>1025.8</ele>
        <time>2021-08-18T09:44:26Z</time>
      </trkpt>
      <trkpt lat="46.64696" lon="6.08398">
        <ele>1025.8</ele>
        <time>2021-08-18T09:44:27Z</time>
      </trkpt>
      <trkpt lat="46.64693" lon="6.08392">
        <ele>1025.9</ele>
        <time>2021-08-18T09:44:29Z</time>
      </trkpt>
      <trkpt lat="46.64691" lon="6.08387">
        <ele>1026</ele>
        <time>2021-08-18T09:44:30Z</time>
      </trkpt>
      <trkpt lat="46.6469" lon="6.08385">
        <ele>1026.1</ele>
        <time>2021-08-18T09:44:31Z</time>
      </trkpt>
      <trkpt lat="46.64687" lon="6.08379">
        <ele>1026.2</ele>
        <time>2021-08-18T09:44:33Z</time>
      </trkpt>
      <trkpt lat="46.64683" lon="6.08375">
        <ele>1026.3</ele>
        <time>2021-08-18T09:44:34Z</time>
      </trkpt>
      <trkpt lat="46.6468" lon="6.08371">
        <ele>1026.5</ele>
        <time>2021-08-18T09:44:36Z</time>
      </trkpt>
      <trkpt lat="46.64678" lon="6.08369">
        <ele>1026.6</ele>
        <time>2021-08-18T09:44:37Z</time>
      </trkpt>
      <trkpt lat="46.64675" lon="6.08366">
        <ele>1026.7</ele>
        <time>2021-08-18T09:44:38Z</time>
      </trkpt>
      <trkpt lat="46.64673" lon="6.08362">
        <ele>1026.8</ele>
        <time>2021-08-18T09:44:39Z</time>
      </trkpt>
      <trkpt lat="46.64672" lon="6.08361">
        <ele>1026.8</ele>
        <time>2021-08-18T09:44:40Z</time>
      </trkpt>
      <trkpt lat="46.64666" lon="6.08357">
        <ele>1027.1</ele>
        <time>2021-08-18T09:44:42Z</time>
      </trkpt>
      <trkpt lat="46.64661" lon="6.08353">
        <ele>1027.3</ele>
        <time>2021-08-18T09:44:44Z</time>
      </trkpt>
      <trkpt lat="46.64658" lon="6.0835">
        <ele>1027.4</ele>
        <time>2021-08-18T09:44:45Z</time>
      </trkpt>
      <trkpt lat="46.64654" lon="6.08346">
        <ele>1027.5</ele>
        <time>2021-08-18T09:44:47Z</time>
      </trkpt>
      <trkpt lat="46.64653" lon="6.08344">
        <ele>1027.5</ele>
        <time>2021-08-18T09:44:48Z</time>
      </trkpt>
      <trkpt lat="46.64652" lon="6.08343">
        <ele>1027.6</ele>
        <time>2021-08-18T09:44:49Z</time>
      </trkpt>
      <trkpt lat="46.6465" lon="6.0834">
        <ele>1027.7</ele>
        <time>2021-08-18T09:44:50Z</time>
      </trkpt>
      <trkpt lat="46.64649" lon="6.08335">
        <ele>1027.7</ele>
        <time>2021-08-18T09:44:52Z</time>
      </trkpt>
      <trkpt lat="46.64646" lon="6.08332">
        <ele>1027.8</ele>
        <time>2021-08-18T09:44:53Z</time>
      </trkpt>
      <trkpt lat="46.64643" lon="6.08328">
        <ele>1027.9</ele>
        <time>2021-08-18T09:44:54Z</time>
      </trkpt>
      <trkpt lat="46.64642" lon="6.08327">
        <ele>1027.9</ele>
        <time>2021-08-18T09:44:55Z</time>
      </trkpt>
      <trkpt lat="46.6464" lon="6.08325">
        <ele>1028</ele>
        <time>2021-08-18T09:44:56Z</time>
      </trkpt>
      <trkpt lat="46.64638" lon="6.08322">
        <ele>1028</ele>
        <time>2021-08-18T09:44:58Z</time>
      </trkpt>
      <trkpt lat="46.64637" lon="6.08321">
        <ele>1028.1</ele>
        <time>2021-08-18T09:44:59Z</time>
      </trkpt>
      <trkpt lat="46.64635" lon="6.08316">
        <ele>1028.1</ele>
        <time>2021-08-18T09:45:00Z</time>
      </trkpt>
      <trkpt lat="46.64633" lon="6.08314">
        <ele>1028.1</ele>
        <time>2021-08-18T09:45:01Z</time>
      </trkpt>
      <trkpt lat="46.6463" lon="6.08311">
        <ele>1028.2</ele>
        <time>2021-08-18T09:45:03Z</time>
      </trkpt>
      <trkpt lat="46.64628" lon="6.08309">
        <ele>1028.2</ele>
        <time>2021-08-18T09:45:04Z</time>
      </trkpt>
      <trkpt lat="46.64625" lon="6.08306">
        <ele>1028.2</ele>
        <time>2021-08-18T09:45:05Z</time>
      </trkpt>
      <trkpt lat="46.64621" lon="6.08303">
        <ele>1028.2</ele>
        <time>2021-08-18T09:45:07Z</time>
      </trkpt>
      <trkpt lat="46.6462" lon="6.08302">
        <ele>1028.2</ele>
        <time>2021-08-18T09:45:08Z</time>
      </trkpt>
      <trkpt lat="46.64617" lon="6.083">
        <ele>1028.2</ele>
        <time>2021-08-18T09:45:09Z</time>
      </trkpt>
      <trkpt lat="46.64615" lon="6.08296">
        <ele>1028.2</ele>
        <time>2021-08-18T09:45:10Z</time>
      </trkpt>
      <trkpt lat="46.64611" lon="6.0829">
        <ele>1028.2</ele>
        <time>2021-08-18T09:45:12Z</time>
      </trkpt>
      <trkpt lat="46.64607" lon="6.08285">
        <ele>1028.2</ele>
        <time>2021-08-18T09:45:13Z</time>
      </trkpt>
      <trkpt lat="46.64605" lon="6.08281">
        <ele>1028.3</ele>
        <time>2021-08-18T09:45:14Z</time>
      </trkpt>
      <trkpt lat="46.64603" lon="6.08278">
        <ele>1028.3</ele>
        <time>2021-08-18T09:45:15Z</time>
      </trkpt>
      <trkpt lat="46.64601" lon="6.08276">
        <ele>1028.4</ele>
        <time>2021-08-18T09:45:16Z</time>
      </trkpt>
      <trkpt lat="46.64598" lon="6.08273">
        <ele>1028.4</ele>
        <time>2021-08-18T09:45:18Z</time>
      </trkpt>
      <trkpt lat="46.64596" lon="6.0827">
        <ele>1028.4</ele>
        <time>2021-08-18T09:45:19Z</time>
      </trkpt>
      <trkpt lat="46.64594" lon="6.08268">
        <ele>1028.5</ele>
        <time>2021-08-18T09:45:21Z</time>
      </trkpt>
      <trkpt lat="46.64592" lon="6.08268">
        <ele>1028.5</ele>
        <time>2021-08-18T09:45:22Z</time>
      </trkpt>
      <trkpt lat="46.6459" lon="6.08267">
        <ele>1028.5</ele>
        <time>2021-08-18T09:45:23Z</time>
      </trkpt>
      <trkpt lat="46.64591" lon="6.08268">
        <ele>1028.5</ele>
        <time>2021-08-18T09:45:25Z</time>
      </trkpt>
      <trkpt lat="46.64591" lon="6.08268">
        <ele>1028.5</ele>
        <time>2021-08-18T09:45:26Z</time>
      </trkpt>
      <trkpt lat="46.64589" lon="6.08267">
        <ele>1028.5</ele>
        <time>2021-08-18T09:45:28Z</time>
      </trkpt>
      <trkpt lat="46.64588" lon="6.08266">
        <ele>1028.4</ele>
        <time>2021-08-18T09:45:29Z</time>
      </trkpt>
      <trkpt lat="46.64586" lon="6.08263">
        <ele>1028.4</ele>
        <time>2021-08-18T09:45:31Z</time>
      </trkpt>
      <trkpt lat="46.64585" lon="6.08261">
        <ele>1028.3</ele>
        <time>2021-08-18T09:45:32Z</time>
      </trkpt>
      <trkpt lat="46.64583" lon="6.08255">
        <ele>1027.9</ele>
        <time>2021-08-18T09:45:34Z</time>
      </trkpt>
      <trkpt lat="46.64576" lon="6.08246">
        <ele>1027.3</ele>
        <time>2021-08-18T09:45:35Z</time>
      </trkpt>
      <trkpt lat="46.64572" lon="6.0824">
        <ele>1026.9</ele>
        <time>2021-08-18T09:45:36Z</time>
      </trkpt>
      <trkpt lat="46.64564" lon="6.0823">
        <ele>1026.2</ele>
        <time>2021-08-18T09:45:38Z</time>
      </trkpt>
      <trkpt lat="46.64556" lon="6.08219">
        <ele>1025.4</ele>
        <time>2021-08-18T09:45:40Z</time>
      </trkpt>
      <trkpt lat="46.64553" lon="6.08214">
        <ele>1025</ele>
        <time>2021-08-18T09:45:41Z</time>
      </trkpt>
      <trkpt lat="46.64547" lon="6.08204">
        <ele>1024.2</ele>
        <time>2021-08-18T09:45:43Z</time>
      </trkpt>
      <trkpt lat="46.64543" lon="6.082">
        <ele>1023.8</ele>
        <time>2021-08-18T09:45:44Z</time>
      </trkpt>
      <trkpt lat="46.64541" lon="6.08194">
        <ele>1023.4</ele>
        <time>2021-08-18T09:45:45Z</time>
      </trkpt>
      <trkpt lat="46.6454" lon="6.08187">
        <ele>1023</ele>
        <time>2021-08-18T09:45:47Z</time>
      </trkpt>
      <trkpt lat="46.64538" lon="6.08183">
        <ele>1022.5</ele>
        <time>2021-08-18T09:45:48Z</time>
      </trkpt>
      <trkpt lat="46.64538" lon="6.08181">
        <ele>1022.5</ele>
        <time>2021-08-18T09:45:49Z</time>
      </trkpt>
      <trkpt lat="46.64537" lon="6.0818">
        <ele>1022.5</ele>
        <time>2021-08-18T09:45:50Z</time>
      </trkpt>
      <trkpt lat="46.64538" lon="6.08183">
        <ele>1022.6</ele>
        <time>2021-08-18T09:45:51Z</time>
      </trkpt>
      <trkpt lat="46.64538" lon="6.08183">
        <ele>1022.6</ele>
        <time>2021-08-18T09:45:53Z</time>
      </trkpt>
      <trkpt lat="46.64538" lon="6.08183">
        <ele>1022.6</ele>
        <time>2021-08-18T09:45:54Z</time>
      </trkpt>
      <trkpt lat="46.64538" lon="6.08184">
        <ele>1022.6</ele>
        <time>2021-08-18T09:45:55Z</time>
      </trkpt>
      <trkpt lat="46.64538" lon="6.08184">
        <ele>1022.6</ele>
        <time>2021-08-18T09:45:56Z</time>
      </trkpt>
      <trkpt lat="46.64538" lon="6.08184">
        <ele>1022.6</ele>
        <time>2021-08-18T09:45:58Z</time>
      </trkpt>
      <trkpt lat="46.64538" lon="6.08183">
        <ele>1022.6</ele>
        <time>2021-08-18T09:45:59Z</time>
      </trkpt>
      <trkpt lat="46.64522" lon="6.08173">
        <ele>1022.5</ele>
        <time>2021-08-18T09:46:04Z</time>
      </trkpt>
      <trkpt lat="46.6451" lon="6.08165">
        <ele>1022.4</ele>
        <time>2021-08-18T09:46:06Z</time>
      </trkpt>
      <trkpt lat="46.64498" lon="6.08154">
        <ele>1022.3</ele>
        <time>2021-08-18T09:46:08Z</time>
      </trkpt>
      <trkpt lat="46.64488" lon="6.08146">
        <ele>1022.3</ele>
        <time>2021-08-18T09:46:10Z</time>
      </trkpt>
      <trkpt lat="46.64483" lon="6.08143">
        <ele>1022.3</ele>
        <time>2021-08-18T09:46:11Z</time>
      </trkpt>
      <trkpt lat="46.64478" lon="6.08139">
        <ele>1022.3</ele>
        <time>2021-08-18T09:46:12Z</time>
      </trkpt>
      <trkpt lat="46.64474" lon="6.08136">
        <ele>1022.3</ele>
        <time>2021-08-18T09:46:13Z</time>
      </trkpt>
      <trkpt lat="46.64466" lon="6.08129">
        <ele>1022.4</ele>
        <time>2021-08-18T09:46:15Z</time>
      </trkpt>
      <trkpt lat="46.64463" lon="6.08126">
        <ele>1022.4</ele>
        <time>2021-08-18T09:46:16Z</time>
      </trkpt>
      <trkpt lat="46.64459" lon="6.08123">
        <ele>1022.5</ele>
        <time>2021-08-18T09:46:17Z</time>
      </trkpt>
      <trkpt lat="46.64455" lon="6.08121">
        <ele>1022.5</ele>
        <time>2021-08-18T09:46:18Z</time>
      </trkpt>
      <trkpt lat="46.64446" lon="6.08115">
        <ele>1022.6</ele>
        <time>2021-08-18T09:46:20Z</time>
      </trkpt>
      <trkpt lat="46.64439" lon="6.08111">
        <ele>1022.6</ele>
        <time>2021-08-18T09:46:22Z</time>
      </trkpt>
      <trkpt lat="46.6443" lon="6.0811">
        <ele>1022.6</ele>
        <time>2021-08-18T09:46:23Z</time>
      </trkpt>
      <trkpt lat="46.64424" lon="6.08107">
        <ele>1022.7</ele>
        <time>2021-08-18T09:46:24Z</time>
      </trkpt>
      <trkpt lat="46.6442" lon="6.08104">
        <ele>1022.7</ele>
        <time>2021-08-18T09:46:25Z</time>
      </trkpt>
      <trkpt lat="46.64416" lon="6.08105">
        <ele>1022.7</ele>
        <time>2021-08-18T09:46:26Z</time>
      </trkpt>
      <trkpt lat="46.64411" lon="6.08103">
        <ele>1022.8</ele>
        <time>2021-08-18T09:46:28Z</time>
      </trkpt>
      <trkpt lat="46.64407" lon="6.08095">
        <ele>1022.8</ele>
        <time>2021-08-18T09:46:29Z</time>
      </trkpt>
      <trkpt lat="46.64403" lon="6.08089">
        <ele>1022.8</ele>
        <time>2021-08-18T09:46:30Z</time>
      </trkpt>
      <trkpt lat="46.64397" lon="6.08078">
        <ele>1022.9</ele>
        <time>2021-08-18T09:46:31Z</time>
      </trkpt>
      <trkpt lat="46.64394" lon="6.08072">
        <ele>1022.9</ele>
        <time>2021-08-18T09:46:32Z</time>
      </trkpt>
      <trkpt lat="46.64389" lon="6.08064">
        <ele>1023</ele>
        <time>2021-08-18T09:46:34Z</time>
      </trkpt>
      <trkpt lat="46.64386" lon="6.08059">
        <ele>1023</ele>
        <time>2021-08-18T09:46:35Z</time>
      </trkpt>
      <trkpt lat="46.64383" lon="6.08054">
        <ele>1023</ele>
        <time>2021-08-18T09:46:36Z</time>
      </trkpt>
      <trkpt lat="46.64378" lon="6.08046">
        <ele>1023</ele>
        <time>2021-08-18T09:46:38Z</time>
      </trkpt>
      <trkpt lat="46.64381" lon="6.08043">
        <ele>1023.1</ele>
        <time>2021-08-18T09:46:39Z</time>
      </trkpt>
      <trkpt lat="46.64379" lon="6.08037">
        <ele>1023.1</ele>
        <time>2021-08-18T09:46:40Z</time>
      </trkpt>
      <trkpt lat="46.64374" lon="6.08031">
        <ele>1023.1</ele>
        <time>2021-08-18T09:46:41Z</time>
      </trkpt>
      <trkpt lat="46.64368" lon="6.08023">
        <ele>1023.1</ele>
        <time>2021-08-18T09:46:43Z</time>
      </trkpt>
      <trkpt lat="46.64366" lon="6.08019">
        <ele>1023.1</ele>
        <time>2021-08-18T09:46:44Z</time>
      </trkpt>
      <trkpt lat="46.64363" lon="6.08013">
        <ele>1023.1</ele>
        <time>2021-08-18T09:46:46Z</time>
      </trkpt>
      <trkpt lat="46.64361" lon="6.08008">
        <ele>1023.1</ele>
        <time>2021-08-18T09:46:47Z</time>
      </trkpt>
      <trkpt lat="46.64359" lon="6.08001">
        <ele>1023.2</ele>
        <time>2021-08-18T09:46:48Z</time>
      </trkpt>
      <trkpt lat="46.64356" lon="6.07993">
        <ele>1023.2</ele>
        <time>2021-08-18T09:46:50Z</time>
      </trkpt>
      <trkpt lat="46.64352" lon="6.07985">
        <ele>1023.3</ele>
        <time>2021-08-18T09:46:52Z</time>
      </trkpt>
      <trkpt lat="46.64349" lon="6.0798">
        <ele>1023.3</ele>
        <time>2021-08-18T09:46:53Z</time>
      </trkpt>
      <trkpt lat="46.64346" lon="6.07975">
        <ele>1023.4</ele>
        <time>2021-08-18T09:46:54Z</time>
      </trkpt>
      <trkpt lat="46.64344" lon="6.07969">
        <ele>1023.4</ele>
        <time>2021-08-18T09:46:55Z</time>
      </trkpt>
      <trkpt lat="46.64341" lon="6.07961">
        <ele>1023.5</ele>
        <time>2021-08-18T09:46:57Z</time>
      </trkpt>
      <trkpt lat="46.64337" lon="6.07956">
        <ele>1023.5</ele>
        <time>2021-08-18T09:46:58Z</time>
      </trkpt>
      <trkpt lat="46.6433" lon="6.07949">
        <ele>1023.6</ele>
        <time>2021-08-18T09:47:00Z</time>
      </trkpt>
      <trkpt lat="46.64321" lon="6.07942">
        <ele>1023.7</ele>
        <time>2021-08-18T09:47:01Z</time>
      </trkpt>
      <trkpt lat="46.64317" lon="6.07939">
        <ele>1023.8</ele>
        <time>2021-08-18T09:47:02Z</time>
      </trkpt>
      <trkpt lat="46.64314" lon="6.07936">
        <ele>1023.8</ele>
        <time>2021-08-18T09:47:03Z</time>
      </trkpt>
      <trkpt lat="46.6431" lon="6.07932">
        <ele>1023.8</ele>
        <time>2021-08-18T09:47:04Z</time>
      </trkpt>
      <trkpt lat="46.64307" lon="6.07931">
        <ele>1023.8</ele>
        <time>2021-08-18T09:47:05Z</time>
      </trkpt>
      <trkpt lat="46.64306" lon="6.07931">
        <ele>1023.8</ele>
        <time>2021-08-18T09:47:06Z</time>
      </trkpt>
      <trkpt lat="46.64306" lon="6.0793">
        <ele>1023.9</ele>
        <time>2021-08-18T09:47:07Z</time>
      </trkpt>
      <trkpt lat="46.64303" lon="6.07925">
        <ele>1023.9</ele>
        <time>2021-08-18T09:47:09Z</time>
      </trkpt>
      <trkpt lat="46.643" lon="6.0792">
        <ele>1023.9</ele>
        <time>2021-08-18T09:47:10Z</time>
      </trkpt>
      <trkpt lat="46.64297" lon="6.07915">
        <ele>1024</ele>
        <time>2021-08-18T09:47:11Z</time>
      </trkpt>
      <trkpt lat="46.64291" lon="6.07906">
        <ele>1024.1</ele>
        <time>2021-08-18T09:47:13Z</time>
      </trkpt>
      <trkpt lat="46.64287" lon="6.07901">
        <ele>1024.1</ele>
        <time>2021-08-18T09:47:14Z</time>
      </trkpt>
      <trkpt lat="46.64283" lon="6.07897">
        <ele>1024.2</ele>
        <time>2021-08-18T09:47:15Z</time>
      </trkpt>
      <trkpt lat="46.64279" lon="6.07892">
        <ele>1024.2</ele>
        <time>2021-08-18T09:47:16Z</time>
      </trkpt>
      <trkpt lat="46.64276" lon="6.07888">
        <ele>1024.3</ele>
        <time>2021-08-18T09:47:17Z</time>
      </trkpt>
      <trkpt lat="46.64273" lon="6.07885">
        <ele>1024.3</ele>
        <time>2021-08-18T09:47:18Z</time>
      </trkpt>
      <trkpt lat="46.64269" lon="6.0788">
        <ele>1024.3</ele>
        <time>2021-08-18T09:47:20Z</time>
      </trkpt>
      <trkpt lat="46.64266" lon="6.07875">
        <ele>1024.3</ele>
        <time>2021-08-18T09:47:21Z</time>
      </trkpt>
      <trkpt lat="46.64265" lon="6.07871">
        <ele>1024.3</ele>
        <time>2021-08-18T09:47:22Z</time>
      </trkpt>
      <trkpt lat="46.64264" lon="6.07866">
        <ele>1024.3</ele>
        <time>2021-08-18T09:47:23Z</time>
      </trkpt>
      <trkpt lat="46.64262" lon="6.07862">
        <ele>1024.3</ele>
        <time>2021-08-18T09:47:24Z</time>
      </trkpt>
      <trkpt lat="46.64261" lon="6.07858">
        <ele>1024.3</ele>
        <time>2021-08-18T09:47:25Z</time>
      </trkpt>
      <trkpt lat="46.64261" lon="6.07853">
        <ele>1024.3</ele>
        <time>2021-08-18T09:47:26Z</time>
      </trkpt>
      <trkpt lat="46.6426" lon="6.07847">
        <ele>1024.3</ele>
        <time>2021-08-18T09:47:28Z</time>
      </trkpt>
      <trkpt lat="46.64259" lon="6.07839">
        <ele>1024.3</ele>
        <time>2021-08-18T09:47:29Z</time>
      </trkpt>
      <trkpt lat="46.64259" lon="6.07832">
        <ele>1024.3</ele>
        <time>2021-08-18T09:47:30Z</time>
      </trkpt>
      <trkpt lat="46.64259" lon="6.07826">
        <ele>1024.3</ele>
        <time>2021-08-18T09:47:32Z</time>
      </trkpt>
      <trkpt lat="46.64259" lon="6.07823">
        <ele>1024.3</ele>
        <time>2021-08-18T09:47:33Z</time>
      </trkpt>
      <trkpt lat="46.64258" lon="6.07817">
        <ele>1024.3</ele>
        <time>2021-08-18T09:47:34Z</time>
      </trkpt>
      <trkpt lat="46.64257" lon="6.0781">
        <ele>1024.4</ele>
        <time>2021-08-18T09:47:35Z</time>
      </trkpt>
      <trkpt lat="46.64255" lon="6.07803">
        <ele>1024.4</ele>
        <time>2021-08-18T09:47:36Z</time>
      </trkpt>
      <trkpt lat="46.6425" lon="6.07789">
        <ele>1024.4</ele>
        <time>2021-08-18T09:47:39Z</time>
      </trkpt>
      <trkpt lat="46.64248" lon="6.07785">
        <ele>1024.5</ele>
        <time>2021-08-18T09:47:40Z</time>
      </trkpt>
      <trkpt lat="46.64245" lon="6.07778">
        <ele>1024.5</ele>
        <time>2021-08-18T09:47:42Z</time>
      </trkpt>
      <trkpt lat="46.64244" lon="6.07773">
        <ele>1024.5</ele>
        <time>2021-08-18T09:47:43Z</time>
      </trkpt>
      <trkpt lat="46.64243" lon="6.07771">
        <ele>1024.6</ele>
        <time>2021-08-18T09:47:44Z</time>
      </trkpt>
      <trkpt lat="46.64242" lon="6.07765">
        <ele>1024.6</ele>
        <time>2021-08-18T09:47:45Z</time>
      </trkpt>
      <trkpt lat="46.64241" lon="6.07759">
        <ele>1024.6</ele>
        <time>2021-08-18T09:47:47Z</time>
      </trkpt>
      <trkpt lat="46.64241" lon="6.07757">
        <ele>1024.7</ele>
        <time>2021-08-18T09:47:48Z</time>
      </trkpt>
      <trkpt lat="46.64242" lon="6.07753">
        <ele>1024.7</ele>
        <time>2021-08-18T09:47:49Z</time>
      </trkpt>
      <trkpt lat="46.64242" lon="6.0775">
        <ele>1024.7</ele>
        <time>2021-08-18T09:47:50Z</time>
      </trkpt>
      <trkpt lat="46.64241" lon="6.07737">
        <ele>1024.8</ele>
        <time>2021-08-18T09:47:52Z</time>
      </trkpt>
      <trkpt lat="46.64239" lon="6.07725">
        <ele>1024.9</ele>
        <time>2021-08-18T09:47:53Z</time>
      </trkpt>
      <trkpt lat="46.64238" lon="6.07717">
        <ele>1025</ele>
        <time>2021-08-18T09:47:54Z</time>
      </trkpt>
      <trkpt lat="46.64236" lon="6.07709">
        <ele>1025.1</ele>
        <time>2021-08-18T09:47:55Z</time>
      </trkpt>
      <trkpt lat="46.64234" lon="6.077">
        <ele>1025.1</ele>
        <time>2021-08-18T09:47:56Z</time>
      </trkpt>
      <trkpt lat="46.6423" lon="6.07691">
        <ele>1025.1</ele>
        <time>2021-08-18T09:47:58Z</time>
      </trkpt>
      <trkpt lat="46.64228" lon="6.07688">
        <ele>1025.1</ele>
        <time>2021-08-18T09:47:59Z</time>
      </trkpt>
      <trkpt lat="46.64223" lon="6.0768">
        <ele>1025.2</ele>
        <time>2021-08-18T09:48:00Z</time>
      </trkpt>
      <trkpt lat="46.64221" lon="6.07676">
        <ele>1025.2</ele>
        <time>2021-08-18T09:48:01Z</time>
      </trkpt>
      <trkpt lat="46.64218" lon="6.07673">
        <ele>1025.2</ele>
        <time>2021-08-18T09:48:02Z</time>
      </trkpt>
      <trkpt lat="46.64211" lon="6.07665">
        <ele>1025.2</ele>
        <time>2021-08-18T09:48:04Z</time>
      </trkpt>
      <trkpt lat="46.64203" lon="6.07655">
        <ele>1025.2</ele>
        <time>2021-08-18T09:48:06Z</time>
      </trkpt>
      <trkpt lat="46.64198" lon="6.0765">
        <ele>1025.2</ele>
        <time>2021-08-18T09:48:07Z</time>
      </trkpt>
      <trkpt lat="46.64193" lon="6.07644">
        <ele>1025.1</ele>
        <time>2021-08-18T09:48:08Z</time>
      </trkpt>
      <trkpt lat="46.64186" lon="6.07635">
        <ele>1025.1</ele>
        <time>2021-08-18T09:48:10Z</time>
      </trkpt>
      <trkpt lat="46.64182" lon="6.07631">
        <ele>1025.2</ele>
        <time>2021-08-18T09:48:11Z</time>
      </trkpt>
      <trkpt lat="46.64173" lon="6.07622">
        <ele>1025.2</ele>
        <time>2021-08-18T09:48:13Z</time>
      </trkpt>
      <trkpt lat="46.64169" lon="6.07618">
        <ele>1025.3</ele>
        <time>2021-08-18T09:48:14Z</time>
      </trkpt>
      <trkpt lat="46.64161" lon="6.0761">
        <ele>1025.4</ele>
        <time>2021-08-18T09:48:16Z</time>
      </trkpt>
      <trkpt lat="46.64154" lon="6.07604">
        <ele>1025.5</ele>
        <time>2021-08-18T09:48:18Z</time>
      </trkpt>
      <trkpt lat="46.6415" lon="6.07601">
        <ele>1025.5</ele>
        <time>2021-08-18T09:48:19Z</time>
      </trkpt>
      <trkpt lat="46.64146" lon="6.07598">
        <ele>1025.5</ele>
        <time>2021-08-18T09:48:20Z</time>
      </trkpt>
      <trkpt lat="46.64143" lon="6.07594">
        <ele>1025.6</ele>
        <time>2021-08-18T09:48:21Z</time>
      </trkpt>
      <trkpt lat="46.64136" lon="6.07589">
        <ele>1025.7</ele>
        <time>2021-08-18T09:48:22Z</time>
      </trkpt>
      <trkpt lat="46.6413" lon="6.07585">
        <ele>1025.7</ele>
        <time>2021-08-18T09:48:24Z</time>
      </trkpt>
      <trkpt lat="46.64121" lon="6.07581">
        <ele>1025.8</ele>
        <time>2021-08-18T09:48:25Z</time>
      </trkpt>
      <trkpt lat="46.64115" lon="6.07578">
        <ele>1025.8</ele>
        <time>2021-08-18T09:48:26Z</time>
      </trkpt>
      <trkpt lat="46.64107" lon="6.07573">
        <ele>1025.9</ele>
        <time>2021-08-18T09:48:28Z</time>
      </trkpt>
      <trkpt lat="46.64103" lon="6.07571">
        <ele>1025.9</ele>
        <time>2021-08-18T09:48:29Z</time>
      </trkpt>
      <trkpt lat="46.64097" lon="6.07567">
        <ele>1026</ele>
        <time>2021-08-18T09:48:30Z</time>
      </trkpt>
      <trkpt lat="46.64094" lon="6.07563">
        <ele>1026</ele>
        <time>2021-08-18T09:48:31Z</time>
      </trkpt>
      <trkpt lat="46.64091" lon="6.0756">
        <ele>1026</ele>
        <time>2021-08-18T09:48:32Z</time>
      </trkpt>
      <trkpt lat="46.64088" lon="6.07557">
        <ele>1026</ele>
        <time>2021-08-18T09:48:33Z</time>
      </trkpt>
      <trkpt lat="46.64083" lon="6.0755">
        <ele>1026.1</ele>
        <time>2021-08-18T09:48:35Z</time>
      </trkpt>
      <trkpt lat="46.6408" lon="6.07544">
        <ele>1026.2</ele>
        <time>2021-08-18T09:48:36Z</time>
      </trkpt>
      <trkpt lat="46.64076" lon="6.07536">
        <ele>1026.2</ele>
        <time>2021-08-18T09:48:38Z</time>
      </trkpt>
      <trkpt lat="46.64074" lon="6.07532">
        <ele>1026.3</ele>
        <time>2021-08-18T09:48:39Z</time>
      </trkpt>
      <trkpt lat="46.64067" lon="6.07525">
        <ele>1026.4</ele>
        <time>2021-08-18T09:48:41Z</time>
      </trkpt>
      <trkpt lat="46.6406" lon="6.07519">
        <ele>1026.5</ele>
        <time>2021-08-18T09:48:43Z</time>
      </trkpt>
      <trkpt lat="46.64052" lon="6.07513">
        <ele>1026.6</ele>
        <time>2021-08-18T09:48:45Z</time>
      </trkpt>
      <trkpt lat="46.64044" lon="6.07507">
        <ele>1026.6</ele>
        <time>2021-08-18T09:48:47Z</time>
      </trkpt>
      <trkpt lat="46.64039" lon="6.07501">
        <ele>1026.6</ele>
        <time>2021-08-18T09:48:49Z</time>
      </trkpt>
      <trkpt lat="46.64037" lon="6.07499">
        <ele>1026.7</ele>
        <time>2021-08-18T09:48:50Z</time>
      </trkpt>
      <trkpt lat="46.64034" lon="6.07491">
        <ele>1026.7</ele>
        <time>2021-08-18T09:48:52Z</time>
      </trkpt>
      <trkpt lat="46.64032" lon="6.07486">
        <ele>1026.7</ele>
        <time>2021-08-18T09:48:53Z</time>
      </trkpt>
      <trkpt lat="46.6403" lon="6.07483">
        <ele>1026.7</ele>
        <time>2021-08-18T09:48:55Z</time>
      </trkpt>
      <trkpt lat="46.64027" lon="6.07479">
        <ele>1026.8</ele>
        <time>2021-08-18T09:48:56Z</time>
      </trkpt>
      <trkpt lat="46.64023" lon="6.07475">
        <ele>1026.8</ele>
        <time>2021-08-18T09:48:57Z</time>
      </trkpt>
      <trkpt lat="46.6402" lon="6.07473">
        <ele>1026.8</ele>
        <time>2021-08-18T09:48:58Z</time>
      </trkpt>
      <trkpt lat="46.64017" lon="6.07472">
        <ele>1026.8</ele>
        <time>2021-08-18T09:48:59Z</time>
      </trkpt>
      <trkpt lat="46.64014" lon="6.07471">
        <ele>1026.8</ele>
        <time>2021-08-18T09:49:01Z</time>
      </trkpt>
      <trkpt lat="46.64013" lon="6.0747">
        <ele>1026.8</ele>
        <time>2021-08-18T09:49:02Z</time>
      </trkpt>
      <trkpt lat="46.64013" lon="6.0747">
        <ele>1026.8</ele>
        <time>2021-08-18T09:49:03Z</time>
      </trkpt>
      <trkpt lat="46.6401" lon="6.0747">
        <ele>1026.8</ele>
        <time>2021-08-18T09:49:04Z</time>
      </trkpt>
      <trkpt lat="46.64006" lon="6.0747">
        <ele>1026.9</ele>
        <time>2021-08-18T09:49:06Z</time>
      </trkpt>
      <trkpt lat="46.64" lon="6.07471">
        <ele>1026.9</ele>
        <time>2021-08-18T09:49:07Z</time>
      </trkpt>
      <trkpt lat="46.63996" lon="6.07473">
        <ele>1026.9</ele>
        <time>2021-08-18T09:49:09Z</time>
      </trkpt>
      <trkpt lat="46.63991" lon="6.07478">
        <ele>1026.9</ele>
        <time>2021-08-18T09:49:10Z</time>
      </trkpt>
      <trkpt lat="46.63976" lon="6.07483">
        <ele>1027.1</ele>
        <time>2021-08-18T09:49:11Z</time>
      </trkpt>
      <trkpt lat="46.63961" lon="6.07491">
        <ele>1027.3</ele>
        <time>2021-08-18T09:49:13Z</time>
      </trkpt>
      <trkpt lat="46.63954" lon="6.07496">
        <ele>1027.4</ele>
        <time>2021-08-18T09:49:14Z</time>
      </trkpt>
      <trkpt lat="46.63948" lon="6.075">
        <ele>1027.4</ele>
        <time>2021-08-18T09:49:15Z</time>
      </trkpt>
      <trkpt lat="46.63937" lon="6.0751">
        <ele>1027.3</ele>
        <time>2021-08-18T09:49:17Z</time>
      </trkpt>
      <trkpt lat="46.63927" lon="6.0752">
        <ele>1027.2</ele>
        <time>2021-08-18T09:49:19Z</time>
      </trkpt>
      <trkpt lat="46.63922" lon="6.07524">
        <ele>1027.1</ele>
        <time>2021-08-18T09:49:20Z</time>
      </trkpt>
      <trkpt lat="46.63911" lon="6.07528">
        <ele>1026.8</ele>
        <time>2021-08-18T09:49:22Z</time>
      </trkpt>
      <trkpt lat="46.63904" lon="6.07529">
        <ele>1026.8</ele>
        <time>2021-08-18T09:49:23Z</time>
      </trkpt>
      <trkpt lat="46.63889" lon="6.07524">
        <ele>1026.6</ele>
        <time>2021-08-18T09:49:25Z</time>
      </trkpt>
      <trkpt lat="46.63876" lon="6.07512">
        <ele>1026.7</ele>
        <time>2021-08-18T09:49:27Z</time>
      </trkpt>
      <trkpt lat="46.63871" lon="6.07504">
        <ele>1026.8</ele>
        <time>2021-08-18T09:49:28Z</time>
      </trkpt>
      <trkpt lat="46.63868" lon="6.07495">
        <ele>1026.9</ele>
        <time>2021-08-18T09:49:29Z</time>
      </trkpt>
      <trkpt lat="46.63865" lon="6.07487">
        <ele>1027.1</ele>
        <time>2021-08-18T09:49:30Z</time>
      </trkpt>
      <trkpt lat="46.63862" lon="6.07481">
        <ele>1027.3</ele>
        <time>2021-08-18T09:49:31Z</time>
      </trkpt>
      <trkpt lat="46.6386" lon="6.07476">
        <ele>1027.4</ele>
        <time>2021-08-18T09:49:32Z</time>
      </trkpt>
      <trkpt lat="46.63855" lon="6.07466">
        <ele>1027.9</ele>
        <time>2021-08-18T09:49:34Z</time>
      </trkpt>
      <trkpt lat="46.6385" lon="6.07458">
        <ele>1028.3</ele>
        <time>2021-08-18T09:49:36Z</time>
      </trkpt>
      <trkpt lat="46.63848" lon="6.07452">
        <ele>1028.5</ele>
        <time>2021-08-18T09:49:38Z</time>
      </trkpt>
      <trkpt lat="46.63846" lon="6.07446">
        <ele>1028.8</ele>
        <time>2021-08-18T09:49:39Z</time>
      </trkpt>
      <trkpt lat="46.63845" lon="6.07444">
        <ele>1029</ele>
        <time>2021-08-18T09:49:41Z</time>
      </trkpt>
      <trkpt lat="46.63849" lon="6.07438">
        <ele>1029.3</ele>
        <time>2021-08-18T09:49:43Z</time>
      </trkpt>
      <trkpt lat="46.63851" lon="6.07431">
        <ele>1029.6</ele>
        <time>2021-08-18T09:49:44Z</time>
      </trkpt>
      <trkpt lat="46.63852" lon="6.07427">
        <ele>1029.8</ele>
        <time>2021-08-18T09:49:46Z</time>
      </trkpt>
      <trkpt lat="46.63853" lon="6.07426">
        <ele>1029.9</ele>
        <time>2021-08-18T09:49:47Z</time>
      </trkpt>
      <trkpt lat="46.63852" lon="6.07423">
        <ele>1030</ele>
        <time>2021-08-18T09:49:49Z</time>
      </trkpt>
      <trkpt lat="46.63852" lon="6.07422">
        <ele>1030.1</ele>
        <time>2021-08-18T09:49:51Z</time>
      </trkpt>
      <trkpt lat="46.63851" lon="6.07421">
        <ele>1030.1</ele>
        <time>2021-08-18T09:49:52Z</time>
      </trkpt>
      <trkpt lat="46.63848" lon="6.07416">
        <ele>1030.4</ele>
        <time>2021-08-18T09:49:54Z</time>
      </trkpt>
      <trkpt lat="46.63842" lon="6.07409">
        <ele>1030.9</ele>
        <time>2021-08-18T09:49:56Z</time>
      </trkpt>
      <trkpt lat="46.63838" lon="6.07404">
        <ele>1031.2</ele>
        <time>2021-08-18T09:49:57Z</time>
      </trkpt>
      <trkpt lat="46.63837" lon="6.07402">
        <ele>1031.3</ele>
        <time>2021-08-18T09:49:58Z</time>
      </trkpt>
      <trkpt lat="46.63833" lon="6.07397">
        <ele>1031.6</ele>
        <time>2021-08-18T09:49:59Z</time>
      </trkpt>
      <trkpt lat="46.63832" lon="6.07394">
        <ele>1031.8</ele>
        <time>2021-08-18T09:50:01Z</time>
      </trkpt>
      <trkpt lat="46.63831" lon="6.07392">
        <ele>1031.8</ele>
        <time>2021-08-18T09:50:02Z</time>
      </trkpt>
      <trkpt lat="46.6383" lon="6.07386">
        <ele>1032.1</ele>
        <time>2021-08-18T09:50:04Z</time>
      </trkpt>
      <trkpt lat="46.63821" lon="6.07379">
        <ele>1032.7</ele>
        <time>2021-08-18T09:50:09Z</time>
      </trkpt>
      <trkpt lat="46.63817" lon="6.07377">
        <ele>1032.9</ele>
        <time>2021-08-18T09:50:10Z</time>
      </trkpt>
      <trkpt lat="46.63812" lon="6.07376">
        <ele>1033.2</ele>
        <time>2021-08-18T09:50:11Z</time>
      </trkpt>
      <trkpt lat="46.63806" lon="6.07373">
        <ele>1033.6</ele>
        <time>2021-08-18T09:50:13Z</time>
      </trkpt>
      <trkpt lat="46.638" lon="6.0737">
        <ele>1034</ele>
        <time>2021-08-18T09:50:14Z</time>
      </trkpt>
      <trkpt lat="46.63795" lon="6.07368">
        <ele>1034.2</ele>
        <time>2021-08-18T09:50:15Z</time>
      </trkpt>
      <trkpt lat="46.63793" lon="6.07367">
        <ele>1034.3</ele>
        <time>2021-08-18T09:50:16Z</time>
      </trkpt>
      <trkpt lat="46.63794" lon="6.07364">
        <ele>1034.5</ele>
        <time>2021-08-18T09:50:17Z</time>
      </trkpt>
      <trkpt lat="46.63794" lon="6.07361">
        <ele>1034.6</ele>
        <time>2021-08-18T09:50:19Z</time>
      </trkpt>
      <trkpt lat="46.63793" lon="6.0736">
        <ele>1034.6</ele>
        <time>2021-08-18T09:50:20Z</time>
      </trkpt>
      <trkpt lat="46.63793" lon="6.07359">
        <ele>1034.7</ele>
        <time>2021-08-18T09:50:22Z</time>
      </trkpt>
      <trkpt lat="46.63792" lon="6.07358">
        <ele>1034.7</ele>
        <time>2021-08-18T09:50:23Z</time>
      </trkpt>
      <trkpt lat="46.63792" lon="6.07356">
        <ele>1034.8</ele>
        <time>2021-08-18T09:50:25Z</time>
      </trkpt>
      <trkpt lat="46.63818" lon="6.07322">
        <ele>1036.6</ele>
        <time>2021-08-18T09:50:43Z</time>
      </trkpt>
      <trkpt lat="46.63821" lon="6.07319">
        <ele>1036.8</ele>
        <time>2021-08-18T09:50:44Z</time>
      </trkpt>
      <trkpt lat="46.63825" lon="6.07315">
        <ele>1037.1</ele>
        <time>2021-08-18T09:50:45Z</time>
      </trkpt>
      <trkpt lat="46.63828" lon="6.07312">
        <ele>1037.2</ele>
        <time>2021-08-18T09:50:46Z</time>
      </trkpt>
      <trkpt lat="46.63828" lon="6.07311">
        <ele>1037.3</ele>
        <time>2021-08-18T09:50:48Z</time>
      </trkpt>
      <trkpt lat="46.63829" lon="6.07308">
        <ele>1037.4</ele>
        <time>2021-08-18T09:50:49Z</time>
      </trkpt>
      <trkpt lat="46.63829" lon="6.07306">
        <ele>1037.5</ele>
        <time>2021-08-18T09:50:50Z</time>
      </trkpt>
      <trkpt lat="46.63829" lon="6.07305">
        <ele>1037.5</ele>
        <time>2021-08-18T09:50:51Z</time>
      </trkpt>
      <trkpt lat="46.63829" lon="6.07303">
        <ele>1037.6</ele>
        <time>2021-08-18T09:50:53Z</time>
      </trkpt>
      <trkpt lat="46.63828" lon="6.07302">
        <ele>1037.6</ele>
        <time>2021-08-18T09:50:54Z</time>
      </trkpt>
      <trkpt lat="46.63828" lon="6.07297">
        <ele>1037.8</ele>
        <time>2021-08-18T09:50:56Z</time>
      </trkpt>
      <trkpt lat="46.63829" lon="6.07293">
        <ele>1037.9</ele>
        <time>2021-08-18T09:50:57Z</time>
      </trkpt>
      <trkpt lat="46.63826" lon="6.07284">
        <ele>1038.3</ele>
        <time>2021-08-18T09:50:59Z</time>
      </trkpt>
      <trkpt lat="46.63825" lon="6.07279">
        <ele>1038.4</ele>
        <time>2021-08-18T09:51:00Z</time>
      </trkpt>
      <trkpt lat="46.63823" lon="6.07269">
        <ele>1038.8</ele>
        <time>2021-08-18T09:51:02Z</time>
      </trkpt>
      <trkpt lat="46.63821" lon="6.07265">
        <ele>1038.9</ele>
        <time>2021-08-18T09:51:03Z</time>
      </trkpt>
      <trkpt lat="46.63821" lon="6.0726">
        <ele>1039.1</ele>
        <time>2021-08-18T09:51:04Z</time>
      </trkpt>
      <trkpt lat="46.6382" lon="6.07259">
        <ele>1039.1</ele>
        <time>2021-08-18T09:51:05Z</time>
      </trkpt>
      <trkpt lat="46.63819" lon="6.07256">
        <ele>1039.3</ele>
        <time>2021-08-18T09:51:06Z</time>
      </trkpt>
      <trkpt lat="46.63815" lon="6.07251">
        <ele>1039.5</ele>
        <time>2021-08-18T09:51:08Z</time>
      </trkpt>
      <trkpt lat="46.63813" lon="6.07247">
        <ele>1039.6</ele>
        <time>2021-08-18T09:51:09Z</time>
      </trkpt>
      <trkpt lat="46.63813" lon="6.07247">
        <ele>1039.7</ele>
        <time>2021-08-18T09:51:10Z</time>
      </trkpt>
      <trkpt lat="46.6381" lon="6.07243">
        <ele>1039.8</ele>
        <time>2021-08-18T09:51:12Z</time>
      </trkpt>
      <trkpt lat="46.63809" lon="6.07242">
        <ele>1039.9</ele>
        <time>2021-08-18T09:51:13Z</time>
      </trkpt>
      <trkpt lat="46.63808" lon="6.07241">
        <ele>1039.9</ele>
        <time>2021-08-18T09:51:14Z</time>
      </trkpt>
      <trkpt lat="46.63808" lon="6.07241">
        <ele>1039.9</ele>
        <time>2021-08-18T09:51:16Z</time>
      </trkpt>
      <trkpt lat="46.63808" lon="6.07241">
        <ele>1039.9</ele>
        <time>2021-08-18T09:51:17Z</time>
      </trkpt>
      <trkpt lat="46.63808" lon="6.07241">
        <ele>1039.9</ele>
        <time>2021-08-18T09:51:19Z</time>
      </trkpt>
      <trkpt lat="46.63808" lon="6.07241">
        <ele>1039.9</ele>
        <time>2021-08-18T09:51:20Z</time>
      </trkpt>
      <trkpt lat="46.63808" lon="6.0724">
        <ele>1039.9</ele>
        <time>2021-08-18T09:51:21Z</time>
      </trkpt>
      <trkpt lat="46.63808" lon="6.0724">
        <ele>1039.9</ele>
        <time>2021-08-18T09:51:23Z</time>
      </trkpt>
      <trkpt lat="46.638" lon="6.07206">
        <ele>1040.8</ele>
        <time>2021-08-18T09:51:42Z</time>
      </trkpt>
      <trkpt lat="46.63799" lon="6.07202">
        <ele>1040.9</ele>
        <time>2021-08-18T09:51:43Z</time>
      </trkpt>
      <trkpt lat="46.63797" lon="6.07198">
        <ele>1041</ele>
        <time>2021-08-18T09:51:44Z</time>
      </trkpt>
      <trkpt lat="46.63794" lon="6.07191">
        <ele>1041.3</ele>
        <time>2021-08-18T09:51:46Z</time>
      </trkpt>
      <trkpt lat="46.63792" lon="6.07187">
        <ele>1041.4</ele>
        <time>2021-08-18T09:51:47Z</time>
      </trkpt>
      <trkpt lat="46.63789" lon="6.07181">
        <ele>1041.7</ele>
        <time>2021-08-18T09:51:48Z</time>
      </trkpt>
      <trkpt lat="46.63787" lon="6.07177">
        <ele>1041.8</ele>
        <time>2021-08-18T09:51:49Z</time>
      </trkpt>
      <trkpt lat="46.63786" lon="6.07174">
        <ele>1042</ele>
        <time>2021-08-18T09:51:50Z</time>
      </trkpt>
      <trkpt lat="46.63783" lon="6.07167">
        <ele>1042.2</ele>
        <time>2021-08-18T09:51:52Z</time>
      </trkpt>
      <trkpt lat="46.63781" lon="6.07163">
        <ele>1042.4</ele>
        <time>2021-08-18T09:51:53Z</time>
      </trkpt>
      <trkpt lat="46.63779" lon="6.07158">
        <ele>1042.6</ele>
        <time>2021-08-18T09:51:54Z</time>
      </trkpt>
      <trkpt lat="46.63777" lon="6.07154">
        <ele>1042.8</ele>
        <time>2021-08-18T09:51:55Z</time>
      </trkpt>
      <trkpt lat="46.63772" lon="6.07147">
        <ele>1043.3</ele>
        <time>2021-08-18T09:51:57Z</time>
      </trkpt>
      <trkpt lat="46.63769" lon="6.07145">
        <ele>1043.5</ele>
        <time>2021-08-18T09:51:58Z</time>
      </trkpt>
      <trkpt lat="46.63765" lon="6.07143">
        <ele>1043.7</ele>
        <time>2021-08-18T09:51:59Z</time>
      </trkpt>
      <trkpt lat="46.63761" lon="6.0714">
        <ele>1044</ele>
        <time>2021-08-18T09:52:00Z</time>
      </trkpt>
      <trkpt lat="46.63757" lon="6.07139">
        <ele>1044.2</ele>
        <time>2021-08-18T09:52:01Z</time>
      </trkpt>
      <trkpt lat="46.63749" lon="6.07137">
        <ele>1044.7</ele>
        <time>2021-08-18T09:52:02Z</time>
      </trkpt>
      <trkpt lat="46.63743" lon="6.07136">
        <ele>1045.9</ele>
        <time>2021-08-18T09:52:04Z</time>
      </trkpt>
      <trkpt lat="46.63738" lon="6.07137">
        <ele>1047</ele>
        <time>2021-08-18T09:52:05Z</time>
      </trkpt>
      <trkpt lat="46.63734" lon="6.07138">
        <ele>1047.6</ele>
        <time>2021-08-18T09:52:06Z</time>
      </trkpt>
      <trkpt lat="46.63731" lon="6.07139">
        <ele>1048.2</ele>
        <time>2021-08-18T09:52:07Z</time>
      </trkpt>
      <trkpt lat="46.63729" lon="6.07139">
        <ele>1048.7</ele>
        <time>2021-08-18T09:52:08Z</time>
      </trkpt>
      <trkpt lat="46.63724" lon="6.07139">
        <ele>1049.6</ele>
        <time>2021-08-18T09:52:10Z</time>
      </trkpt>
      <trkpt lat="46.63716" lon="6.07138">
        <ele>1050.4</ele>
        <time>2021-08-18T09:52:12Z</time>
      </trkpt>
      <trkpt lat="46.63711" lon="6.07136">
        <ele>1051.1</ele>
        <time>2021-08-18T09:52:14Z</time>
      </trkpt>
      <trkpt lat="46.63707" lon="6.07135">
        <ele>1051.1</ele>
        <time>2021-08-18T09:52:15Z</time>
      </trkpt>
      <trkpt lat="46.63705" lon="6.07134">
        <ele>1051.4</ele>
        <time>2021-08-18T09:52:16Z</time>
      </trkpt>
      <trkpt lat="46.63702" lon="6.07133">
        <ele>1051.6</ele>
        <time>2021-08-18T09:52:17Z</time>
      </trkpt>
      <trkpt lat="46.63701" lon="6.07132">
        <ele>1051.8</ele>
        <time>2021-08-18T09:52:18Z</time>
      </trkpt>
      <trkpt lat="46.63697" lon="6.07129">
        <ele>1051.8</ele>
        <time>2021-08-18T09:52:20Z</time>
      </trkpt>
      <trkpt lat="46.63696" lon="6.07127">
        <ele>1051.5</ele>
        <time>2021-08-18T09:52:21Z</time>
      </trkpt>
      <trkpt lat="46.63693" lon="6.07123">
        <ele>1051.4</ele>
        <time>2021-08-18T09:52:23Z</time>
      </trkpt>
      <trkpt lat="46.63689" lon="6.07118">
        <ele>1051.2</ele>
        <time>2021-08-18T09:52:25Z</time>
      </trkpt>
      <trkpt lat="46.63687" lon="6.07116">
        <ele>1051.4</ele>
        <time>2021-08-18T09:52:26Z</time>
      </trkpt>
      <trkpt lat="46.63685" lon="6.07113">
        <ele>1051.2</ele>
        <time>2021-08-18T09:52:28Z</time>
      </trkpt>
      <trkpt lat="46.63684" lon="6.07112">
        <ele>1051.3</ele>
        <time>2021-08-18T09:52:29Z</time>
      </trkpt>
      <trkpt lat="46.63684" lon="6.07108">
        <ele>1051.1</ele>
        <time>2021-08-18T09:52:30Z</time>
      </trkpt>
      <trkpt lat="46.63684" lon="6.07104">
        <ele>1050.9</ele>
        <time>2021-08-18T09:52:32Z</time>
      </trkpt>
      <trkpt lat="46.63684" lon="6.07102">
        <ele>1050.9</ele>
        <time>2021-08-18T09:52:33Z</time>
      </trkpt>
      <trkpt lat="46.63684" lon="6.07101">
        <ele>1051</ele>
        <time>2021-08-18T09:52:34Z</time>
      </trkpt>
      <trkpt lat="46.63685" lon="6.07102">
        <ele>1051</ele>
        <time>2021-08-18T09:52:35Z</time>
      </trkpt>
      <trkpt lat="46.63687" lon="6.07103">
        <ele>1051.1</ele>
        <time>2021-08-18T09:52:36Z</time>
      </trkpt>
      <trkpt lat="46.63687" lon="6.07103">
        <ele>1051.1</ele>
        <time>2021-08-18T09:52:38Z</time>
      </trkpt>
      <trkpt lat="46.63687" lon="6.07103">
        <ele>1051.1</ele>
        <time>2021-08-18T09:52:39Z</time>
      </trkpt>
      <trkpt lat="46.63688" lon="6.07102">
        <ele>1051.2</ele>
        <time>2021-08-18T09:52:41Z</time>
      </trkpt>
      <trkpt lat="46.63689" lon="6.07101">
        <ele>1051.2</ele>
        <time>2021-08-18T09:52:42Z</time>
      </trkpt>
      <trkpt lat="46.63691" lon="6.071">
        <ele>1051.3</ele>
        <time>2021-08-18T09:52:43Z</time>
      </trkpt>
      <trkpt lat="46.63681" lon="6.07112">
        <ele>1051.9</ele>
        <time>2021-08-18T09:53:05Z</time>
      </trkpt>
      <trkpt lat="46.6368" lon="6.07113">
        <ele>1051.9</ele>
        <time>2021-08-18T09:53:06Z</time>
      </trkpt>
      <trkpt lat="46.63679" lon="6.07115">
        <ele>1052</ele>
        <time>2021-08-18T09:53:07Z</time>
      </trkpt>
      <trkpt lat="46.63677" lon="6.07117">
        <ele>1052.1</ele>
        <time>2021-08-18T09:53:09Z</time>
      </trkpt>
      <trkpt lat="46.63676" lon="6.07117">
        <ele>1052.2</ele>
        <time>2021-08-18T09:53:10Z</time>
      </trkpt>
      <trkpt lat="46.63675" lon="6.07118">
        <ele>1052.2</ele>
        <time>2021-08-18T09:53:11Z</time>
      </trkpt>
      <trkpt lat="46.63674" lon="6.0712">
        <ele>1052.3</ele>
        <time>2021-08-18T09:53:13Z</time>
      </trkpt>
      <trkpt lat="46.63673" lon="6.07121">
        <ele>1052.4</ele>
        <time>2021-08-18T09:53:14Z</time>
      </trkpt>
      <trkpt lat="46.63672" lon="6.07121">
        <ele>1052.4</ele>
        <time>2021-08-18T09:53:15Z</time>
      </trkpt>
      <trkpt lat="46.63671" lon="6.07121">
        <ele>1052.4</ele>
        <time>2021-08-18T09:53:17Z</time>
      </trkpt>
      <trkpt lat="46.63671" lon="6.0712">
        <ele>1052.5</ele>
        <time>2021-08-18T09:53:18Z</time>
      </trkpt>
      <trkpt lat="46.6367" lon="6.0712">
        <ele>1052.5</ele>
        <time>2021-08-18T09:53:19Z</time>
      </trkpt>
      <trkpt lat="46.6367" lon="6.07119">
        <ele>1052.6</ele>
        <time>2021-08-18T09:53:20Z</time>
      </trkpt>
      <trkpt lat="46.63669" lon="6.07118">
        <ele>1052.6</ele>
        <time>2021-08-18T09:53:21Z</time>
      </trkpt>
      <trkpt lat="46.63667" lon="6.07117">
        <ele>1052.7</ele>
        <time>2021-08-18T09:53:22Z</time>
      </trkpt>
      <trkpt lat="46.63664" lon="6.07116">
        <ele>1052.9</ele>
        <time>2021-08-18T09:53:24Z</time>
      </trkpt>
      <trkpt lat="46.63663" lon="6.07115">
        <ele>1052.9</ele>
        <time>2021-08-18T09:53:25Z</time>
      </trkpt>
      <trkpt lat="46.63663" lon="6.07115">
        <ele>1053</ele>
        <time>2021-08-18T09:53:27Z</time>
      </trkpt>
      <trkpt lat="46.63662" lon="6.07115">
        <ele>1053</ele>
        <time>2021-08-18T09:53:28Z</time>
      </trkpt>
      <trkpt lat="46.63662" lon="6.07115">
        <ele>1053</ele>
        <time>2021-08-18T09:53:30Z</time>
      </trkpt>
      <trkpt lat="46.63661" lon="6.07115">
        <ele>1053.1</ele>
        <time>2021-08-18T09:53:32Z</time>
      </trkpt>
      <trkpt lat="46.63661" lon="6.07115">
        <ele>1053.1</ele>
        <time>2021-08-18T09:53:33Z</time>
      </trkpt>
      <trkpt lat="46.63661" lon="6.07117">
        <ele>1053.1</ele>
        <time>2021-08-18T09:53:34Z</time>
      </trkpt>
      <trkpt lat="46.63646" lon="6.07128">
        <ele>1055.2</ele>
        <time>2021-08-18T09:53:48Z</time>
      </trkpt>
      <trkpt lat="46.63643" lon="6.07129">
        <ele>1055.4</ele>
        <time>2021-08-18T09:53:49Z</time>
      </trkpt>
      <trkpt lat="46.6364" lon="6.07129">
        <ele>1055.6</ele>
        <time>2021-08-18T09:53:50Z</time>
      </trkpt>
      <trkpt lat="46.63637" lon="6.0713">
        <ele>1055.8</ele>
        <time>2021-08-18T09:53:51Z</time>
      </trkpt>
      <trkpt lat="46.63629" lon="6.07129">
        <ele>1056.2</ele>
        <time>2021-08-18T09:53:53Z</time>
      </trkpt>
      <trkpt lat="46.63624" lon="6.0713">
        <ele>1056.4</ele>
        <time>2021-08-18T09:53:54Z</time>
      </trkpt>
      <trkpt lat="46.63621" lon="6.07132">
        <ele>1056.8</ele>
        <time>2021-08-18T09:53:56Z</time>
      </trkpt>
      <trkpt lat="46.6362" lon="6.07134">
        <ele>1056.9</ele>
        <time>2021-08-18T09:53:57Z</time>
      </trkpt>
      <trkpt lat="46.6362" lon="6.07139">
        <ele>1057.2</ele>
        <time>2021-08-18T09:53:59Z</time>
      </trkpt>
      <trkpt lat="46.63621" lon="6.07143">
        <ele>1057.5</ele>
        <time>2021-08-18T09:54:00Z</time>
      </trkpt>
      <trkpt lat="46.63621" lon="6.07145">
        <ele>1057.5</ele>
        <time>2021-08-18T09:54:01Z</time>
      </trkpt>
      <trkpt lat="46.63621" lon="6.07149">
        <ele>1057.8</ele>
        <time>2021-08-18T09:54:03Z</time>
      </trkpt>
      <trkpt lat="46.63621" lon="6.0715">
        <ele>1057.8</ele>
        <time>2021-08-18T09:54:04Z</time>
      </trkpt>
      <trkpt lat="46.6362" lon="6.07152">
        <ele>1057.9</ele>
        <time>2021-08-18T09:54:05Z</time>
      </trkpt>
      <trkpt lat="46.6362" lon="6.07154">
        <ele>1058.1</ele>
        <time>2021-08-18T09:54:06Z</time>
      </trkpt>
      <trkpt lat="46.6362" lon="6.07157">
        <ele>1058.2</ele>
        <time>2021-08-18T09:54:07Z</time>
      </trkpt>
      <trkpt lat="46.63621" lon="6.07162">
        <ele>1058.5</ele>
        <time>2021-08-18T09:54:09Z</time>
      </trkpt>
      <trkpt lat="46.63619" lon="6.07167">
        <ele>1058.7</ele>
        <time>2021-08-18T09:54:11Z</time>
      </trkpt>
      <trkpt lat="46.63619" lon="6.07171">
        <ele>1059</ele>
        <time>2021-08-18T09:54:13Z</time>
      </trkpt>
      <trkpt lat="46.63618" lon="6.07172">
        <ele>1059</ele>
        <time>2021-08-18T09:54:14Z</time>
      </trkpt>
      <trkpt lat="46.63619" lon="6.07174">
        <ele>1059.2</ele>
        <time>2021-08-18T09:54:15Z</time>
      </trkpt>
      <trkpt lat="46.63618" lon="6.07178">
        <ele>1059.4</ele>
        <time>2021-08-18T09:54:17Z</time>
      </trkpt>
      <trkpt lat="46.63618" lon="6.0718">
        <ele>1059.5</ele>
        <time>2021-08-18T09:54:18Z</time>
      </trkpt>
      <trkpt lat="46.63618" lon="6.07181">
        <ele>1059.6</ele>
        <time>2021-08-18T09:54:19Z</time>
      </trkpt>
      <trkpt lat="46.63618" lon="6.07182">
        <ele>1059.6</ele>
        <time>2021-08-18T09:54:21Z</time>
      </trkpt>
      <trkpt lat="46.63618" lon="6.07184">
        <ele>1059.7</ele>
        <time>2021-08-18T09:54:23Z</time>
      </trkpt>
      <trkpt lat="46.63617" lon="6.07186">
        <ele>1059.8</ele>
        <time>2021-08-18T09:54:24Z</time>
      </trkpt>
      <trkpt lat="46.63615" lon="6.07189">
        <ele>1060.1</ele>
        <time>2021-08-18T09:54:25Z</time>
      </trkpt>
      <trkpt lat="46.63614" lon="6.07191">
        <ele>1060.2</ele>
        <time>2021-08-18T09:54:26Z</time>
      </trkpt>
      <trkpt lat="46.63612" lon="6.07194">
        <ele>1060.3</ele>
        <time>2021-08-18T09:54:28Z</time>
      </trkpt>
      <trkpt lat="46.63611" lon="6.07195">
        <ele>1060.4</ele>
        <time>2021-08-18T09:54:29Z</time>
      </trkpt>
      <trkpt lat="46.63608" lon="6.07196">
        <ele>1060.6</ele>
        <time>2021-08-18T09:54:31Z</time>
      </trkpt>
      <trkpt lat="46.63606" lon="6.07199">
        <ele>1060.8</ele>
        <time>2021-08-18T09:54:32Z</time>
      </trkpt>
      <trkpt lat="46.63605" lon="6.072">
        <ele>1060.8</ele>
        <time>2021-08-18T09:54:33Z</time>
      </trkpt>
      <trkpt lat="46.63604" lon="6.07201">
        <ele>1060.9</ele>
        <time>2021-08-18T09:54:34Z</time>
      </trkpt>
      <trkpt lat="46.636" lon="6.07201">
        <ele>1061.2</ele>
        <time>2021-08-18T09:54:36Z</time>
      </trkpt>
      <trkpt lat="46.63595" lon="6.07201">
        <ele>1061.4</ele>
        <time>2021-08-18T09:54:38Z</time>
      </trkpt>
      <trkpt lat="46.63592" lon="6.07201">
        <ele>1061.6</ele>
        <time>2021-08-18T09:54:40Z</time>
      </trkpt>
      <trkpt lat="46.63589" lon="6.07202">
        <ele>1061.7</ele>
        <time>2021-08-18T09:54:41Z</time>
      </trkpt>
      <trkpt lat="46.63587" lon="6.07205">
        <ele>1061.9</ele>
        <time>2021-08-18T09:54:43Z</time>
      </trkpt>
      <trkpt lat="46.63585" lon="6.07205">
        <ele>1061.9</ele>
        <time>2021-08-18T09:54:44Z</time>
      </trkpt>
      <trkpt lat="46.63581" lon="6.07206">
        <ele>1062.1</ele>
        <time>2021-08-18T09:54:46Z</time>
      </trkpt>
      <trkpt lat="46.63579" lon="6.07207">
        <ele>1062.1</ele>
        <time>2021-08-18T09:54:47Z</time>
      </trkpt>
      <trkpt lat="46.63577" lon="6.07208">
        <ele>1062.2</ele>
        <time>2021-08-18T09:54:49Z</time>
      </trkpt>
      <trkpt lat="46.63576" lon="6.07209">
        <ele>1062.3</ele>
        <time>2021-08-18T09:54:51Z</time>
      </trkpt>
      <trkpt lat="46.63576" lon="6.07209">
        <ele>1062.3</ele>
        <time>2021-08-18T09:54:53Z</time>
      </trkpt>
      <trkpt lat="46.63576" lon="6.07209">
        <ele>1062.3</ele>
        <time>2021-08-18T09:54:54Z</time>
      </trkpt>
      <trkpt lat="46.63573" lon="6.07208">
        <ele>1062.4</ele>
        <time>2021-08-18T09:54:56Z</time>
      </trkpt>
      <trkpt lat="46.63572" lon="6.07207">
        <ele>1062.5</ele>
        <time>2021-08-18T09:54:57Z</time>
      </trkpt>
      <trkpt lat="46.6357" lon="6.07203">
        <ele>1062.6</ele>
        <time>2021-08-18T09:54:59Z</time>
      </trkpt>
      <trkpt lat="46.63568" lon="6.07199">
        <ele>1062.8</ele>
        <time>2021-08-18T09:55:01Z</time>
      </trkpt>
      <trkpt lat="46.63567" lon="6.07196">
        <ele>1062.8</ele>
        <time>2021-08-18T09:55:02Z</time>
      </trkpt>
      <trkpt lat="46.63567" lon="6.07195">
        <ele>1062.9</ele>
        <time>2021-08-18T09:55:03Z</time>
      </trkpt>
      <trkpt lat="46.63566" lon="6.07191">
        <ele>1063</ele>
        <time>2021-08-18T09:55:05Z</time>
      </trkpt>
      <trkpt lat="46.63566" lon="6.07191">
        <ele>1063</ele>
        <time>2021-08-18T09:55:06Z</time>
      </trkpt>
      <trkpt lat="46.63565" lon="6.0719">
        <ele>1063</ele>
        <time>2021-08-18T09:55:07Z</time>
      </trkpt>
      <trkpt lat="46.63564" lon="6.0719">
        <ele>1063.1</ele>
        <time>2021-08-18T09:55:08Z</time>
      </trkpt>
      <trkpt lat="46.63562" lon="6.07188">
        <ele>1063.2</ele>
        <time>2021-08-18T09:55:10Z</time>
      </trkpt>
      <trkpt lat="46.63556" lon="6.07182">
        <ele>1063.6</ele>
        <time>2021-08-18T09:55:11Z</time>
      </trkpt>
      <trkpt lat="46.63551" lon="6.07176">
        <ele>1063.9</ele>
        <time>2021-08-18T09:55:22Z</time>
      </trkpt>
      <trkpt lat="46.63546" lon="6.0717">
        <ele>1064.2</ele>
        <time>2021-08-18T09:55:23Z</time>
      </trkpt>
      <trkpt lat="46.6354" lon="6.07164">
        <ele>1064.6</ele>
        <time>2021-08-18T09:55:24Z</time>
      </trkpt>
      <trkpt lat="46.63533" lon="6.0716">
        <ele>1065.1</ele>
        <time>2021-08-18T09:55:26Z</time>
      </trkpt>
      <trkpt lat="46.63526" lon="6.07159">
        <ele>1065.4</ele>
        <time>2021-08-18T09:55:28Z</time>
      </trkpt>
      <trkpt lat="46.6352" lon="6.07158">
        <ele>1065.8</ele>
        <time>2021-08-18T09:55:29Z</time>
      </trkpt>
      <trkpt lat="46.63516" lon="6.07158">
        <ele>1066</ele>
        <time>2021-08-18T09:55:30Z</time>
      </trkpt>
      <trkpt lat="46.6351" lon="6.07159">
        <ele>1066.3</ele>
        <time>2021-08-18T09:55:32Z</time>
      </trkpt>
      <trkpt lat="46.63504" lon="6.0716">
        <ele>1066.4</ele>
        <time>2021-08-18T09:55:34Z</time>
      </trkpt>
      <trkpt lat="46.63501" lon="6.07162">
        <ele>1066.5</ele>
        <time>2021-08-18T09:55:35Z</time>
      </trkpt>
      <trkpt lat="46.63499" lon="6.07162">
        <ele>1066.5</ele>
        <time>2021-08-18T09:55:36Z</time>
      </trkpt>
      <trkpt lat="46.63497" lon="6.07166">
        <ele>1066.6</ele>
        <time>2021-08-18T09:55:38Z</time>
      </trkpt>
      <trkpt lat="46.63496" lon="6.07167">
        <ele>1066.7</ele>
        <time>2021-08-18T09:55:39Z</time>
      </trkpt>
      <trkpt lat="46.63493" lon="6.07169">
        <ele>1066.8</ele>
        <time>2021-08-18T09:55:41Z</time>
      </trkpt>
      <trkpt lat="46.63491" lon="6.0717">
        <ele>1066.8</ele>
        <time>2021-08-18T09:55:42Z</time>
      </trkpt>
      <trkpt lat="46.63489" lon="6.07171">
        <ele>1066.9</ele>
        <time>2021-08-18T09:55:44Z</time>
      </trkpt>
      <trkpt lat="46.63486" lon="6.07171">
        <ele>1066.9</ele>
        <time>2021-08-18T09:55:45Z</time>
      </trkpt>
      <trkpt lat="46.63482" lon="6.07169">
        <ele>1067</ele>
        <time>2021-08-18T09:55:47Z</time>
      </trkpt>
      <trkpt lat="46.63478" lon="6.07168">
        <ele>1067.1</ele>
        <time>2021-08-18T09:55:48Z</time>
      </trkpt>
      <trkpt lat="46.63474" lon="6.07169">
        <ele>1067.2</ele>
        <time>2021-08-18T09:55:49Z</time>
      </trkpt>
      <trkpt lat="46.63469" lon="6.07169">
        <ele>1067.3</ele>
        <time>2021-08-18T09:55:51Z</time>
      </trkpt>
      <trkpt lat="46.63465" lon="6.07169">
        <ele>1067.3</ele>
        <time>2021-08-18T09:55:52Z</time>
      </trkpt>
      <trkpt lat="46.63461" lon="6.07169">
        <ele>1067.4</ele>
        <time>2021-08-18T09:55:54Z</time>
      </trkpt>
      <trkpt lat="46.63458" lon="6.07169">
        <ele>1067.4</ele>
        <time>2021-08-18T09:55:55Z</time>
      </trkpt>
      <trkpt lat="46.63457" lon="6.07169">
        <ele>1067.4</ele>
        <time>2021-08-18T09:55:56Z</time>
      </trkpt>
      <trkpt lat="46.63453" lon="6.07169">
        <ele>1067.4</ele>
        <time>2021-08-18T09:55:57Z</time>
      </trkpt>
      <trkpt lat="46.63448" lon="6.07168">
        <ele>1067.5</ele>
        <time>2021-08-18T09:55:59Z</time>
      </trkpt>
      <trkpt lat="46.63442" lon="6.07168">
        <ele>1067.5</ele>
        <time>2021-08-18T09:56:01Z</time>
      </trkpt>
      <trkpt lat="46.63434" lon="6.07166">
        <ele>1067.5</ele>
        <time>2021-08-18T09:56:03Z</time>
      </trkpt>
      <trkpt lat="46.63427" lon="6.07163">
        <ele>1067.5</ele>
        <time>2021-08-18T09:56:05Z</time>
      </trkpt>
      <trkpt lat="46.6342" lon="6.07159">
        <ele>1067.6</ele>
        <time>2021-08-18T09:56:07Z</time>
      </trkpt>
      <trkpt lat="46.63415" lon="6.07156">
        <ele>1067.6</ele>
        <time>2021-08-18T09:56:08Z</time>
      </trkpt>
      <trkpt lat="46.63409" lon="6.07149">
        <ele>1067.5</ele>
        <time>2021-08-18T09:56:10Z</time>
      </trkpt>
      <trkpt lat="46.63406" lon="6.07143">
        <ele>1067.3</ele>
        <time>2021-08-18T09:56:11Z</time>
      </trkpt>
      <trkpt lat="46.63403" lon="6.07135">
        <ele>1067</ele>
        <time>2021-08-18T09:56:13Z</time>
      </trkpt>
      <trkpt lat="46.63401" lon="6.07128">
        <ele>1066.7</ele>
        <time>2021-08-18T09:56:14Z</time>
      </trkpt>
      <trkpt lat="46.63396" lon="6.07114">
        <ele>1066.1</ele>
        <time>2021-08-18T09:56:15Z</time>
      </trkpt>
      <trkpt lat="46.63391" lon="6.07106">
        <ele>1065.6</ele>
        <time>2021-08-18T09:56:16Z</time>
      </trkpt>
      <trkpt lat="46.63387" lon="6.071">
        <ele>1065.1</ele>
        <time>2021-08-18T09:56:17Z</time>
      </trkpt>
      <trkpt lat="46.63376" lon="6.0709">
        <ele>1064.2</ele>
        <time>2021-08-18T09:56:19Z</time>
      </trkpt>
      <trkpt lat="46.63371" lon="6.07086">
        <ele>1063.8</ele>
        <time>2021-08-18T09:56:20Z</time>
      </trkpt>
      <trkpt lat="46.63361" lon="6.07077">
        <ele>1063.1</ele>
        <time>2021-08-18T09:56:22Z</time>
      </trkpt>
      <trkpt lat="46.63355" lon="6.0707">
        <ele>1062.7</ele>
        <time>2021-08-18T09:56:23Z</time>
      </trkpt>
      <trkpt lat="46.63349" lon="6.07059">
        <ele>1062.5</ele>
        <time>2021-08-18T09:56:24Z</time>
      </trkpt>
      <trkpt lat="46.63345" lon="6.07047">
        <ele>1062.3</ele>
        <time>2021-08-18T09:56:25Z</time>
      </trkpt>
      <trkpt lat="46.6334" lon="6.07036">
        <ele>1062.1</ele>
        <time>2021-08-18T09:56:26Z</time>
      </trkpt>
      <trkpt lat="46.63332" lon="6.07014">
        <ele>1061.4</ele>
        <time>2021-08-18T09:56:28Z</time>
      </trkpt>
      <trkpt lat="46.63329" lon="6.07002">
        <ele>1061</ele>
        <time>2021-08-18T09:56:29Z</time>
      </trkpt>
      <trkpt lat="46.63321" lon="6.0698">
        <ele>1059.9</ele>
        <time>2021-08-18T09:56:31Z</time>
      </trkpt>
      <trkpt lat="46.63317" lon="6.06969">
        <ele>1059.3</ele>
        <time>2021-08-18T09:56:32Z</time>
      </trkpt>
      <trkpt lat="46.63311" lon="6.06944">
        <ele>1058.2</ele>
        <time>2021-08-18T09:56:34Z</time>
      </trkpt>
      <trkpt lat="46.6331" lon="6.06933">
        <ele>1057.7</ele>
        <time>2021-08-18T09:56:35Z</time>
      </trkpt>
      <trkpt lat="46.63307" lon="6.06908">
        <ele>1056.6</ele>
        <time>2021-08-18T09:56:37Z</time>
      </trkpt>
      <trkpt lat="46.63307" lon="6.06884">
        <ele>1055.5</ele>
        <time>2021-08-18T09:56:39Z</time>
      </trkpt>
      <trkpt lat="46.63309" lon="6.06871">
        <ele>1054.8</ele>
        <time>2021-08-18T09:56:40Z</time>
      </trkpt>
      <trkpt lat="46.6331" lon="6.06858">
        <ele>1054.3</ele>
        <time>2021-08-18T09:56:41Z</time>
      </trkpt>
      <trkpt lat="46.63307" lon="6.06831">
        <ele>1053.1</ele>
        <time>2021-08-18T09:56:43Z</time>
      </trkpt>
      <trkpt lat="46.63304" lon="6.0682">
        <ele>1052.5</ele>
        <time>2021-08-18T09:56:44Z</time>
      </trkpt>
      <trkpt lat="46.63295" lon="6.06802">
        <ele>1051.5</ele>
        <time>2021-08-18T09:56:46Z</time>
      </trkpt>
      <trkpt lat="46.6329" lon="6.06796">
        <ele>1051.1</ele>
        <time>2021-08-18T09:56:47Z</time>
      </trkpt>
      <trkpt lat="46.63285" lon="6.0679">
        <ele>1050.6</ele>
        <time>2021-08-18T09:56:48Z</time>
      </trkpt>
      <trkpt lat="46.63275" lon="6.0678">
        <ele>1049.8</ele>
        <time>2021-08-18T09:56:50Z</time>
      </trkpt>
      <trkpt lat="46.63267" lon="6.06777">
        <ele>1049.3</ele>
        <time>2021-08-18T09:56:51Z</time>
      </trkpt>
      <trkpt lat="46.63259" lon="6.06775">
        <ele>1048.7</ele>
        <time>2021-08-18T09:56:52Z</time>
      </trkpt>
      <trkpt lat="46.63251" lon="6.06773">
        <ele>1048.3</ele>
        <time>2021-08-18T09:56:53Z</time>
      </trkpt>
      <trkpt lat="46.63238" lon="6.06772">
        <ele>1047.6</ele>
        <time>2021-08-18T09:56:55Z</time>
      </trkpt>
      <trkpt lat="46.63222" lon="6.06766">
        <ele>1046.9</ele>
        <time>2021-08-18T09:56:57Z</time>
      </trkpt>
      <trkpt lat="46.6321" lon="6.06757">
        <ele>1046.4</ele>
        <time>2021-08-18T09:56:59Z</time>
      </trkpt>
      <trkpt lat="46.63207" lon="6.06753">
        <ele>1046.4</ele>
        <time>2021-08-18T09:57:00Z</time>
      </trkpt>
      <trkpt lat="46.63196" lon="6.06742">
        <ele>1046.3</ele>
        <time>2021-08-18T09:57:02Z</time>
      </trkpt>
      <trkpt lat="46.63184" lon="6.06734">
        <ele>1046.2</ele>
        <time>2021-08-18T09:57:04Z</time>
      </trkpt>
      <trkpt lat="46.63171" lon="6.06728">
        <ele>1046.2</ele>
        <time>2021-08-18T09:57:06Z</time>
      </trkpt>
      <trkpt lat="46.63171" lon="6.06727">
        <ele>1046.2</ele>
        <time>2021-08-18T09:57:07Z</time>
      </trkpt>
      <trkpt lat="46.63168" lon="6.06726">
        <ele>1046.2</ele>
        <time>2021-08-18T09:57:09Z</time>
      </trkpt>
      <trkpt lat="46.63121" lon="6.0671">
        <ele>1047.2</ele>
        <time>2021-08-18T09:57:15Z</time>
      </trkpt>
      <trkpt lat="46.63108" lon="6.06708">
        <ele>1047.5</ele>
        <time>2021-08-18T09:57:17Z</time>
      </trkpt>
      <trkpt lat="46.631" lon="6.06707">
        <ele>1047.6</ele>
        <time>2021-08-18T09:57:19Z</time>
      </trkpt>
      <trkpt lat="46.63102" lon="6.06706">
        <ele>1047.7</ele>
        <time>2021-08-18T09:57:21Z</time>
      </trkpt>
      <trkpt lat="46.63101" lon="6.06705">
        <ele>1047.7</ele>
        <time>2021-08-18T09:57:23Z</time>
      </trkpt>
      <trkpt lat="46.63101" lon="6.06704">
        <ele>1047.7</ele>
        <time>2021-08-18T09:57:24Z</time>
      </trkpt>
      <trkpt lat="46.631" lon="6.06703">
        <ele>1047.8</ele>
        <time>2021-08-18T09:57:25Z</time>
      </trkpt>
      <trkpt lat="46.631" lon="6.06702">
        <ele>1047.8</ele>
        <time>2021-08-18T09:57:26Z</time>
      </trkpt>
      <trkpt lat="46.63096" lon="6.06695">
        <ele>1048</ele>
        <time>2021-08-18T09:57:28Z</time>
      </trkpt>
      <trkpt lat="46.63094" lon="6.06692">
        <ele>1048.1</ele>
        <time>2021-08-18T09:57:29Z</time>
      </trkpt>
      <trkpt lat="46.63091" lon="6.06687">
        <ele>1048.2</ele>
        <time>2021-08-18T09:57:30Z</time>
      </trkpt>
      <trkpt lat="46.63088" lon="6.06681">
        <ele>1048.4</ele>
        <time>2021-08-18T09:57:32Z</time>
      </trkpt>
      <trkpt lat="46.63085" lon="6.06676">
        <ele>1048.5</ele>
        <time>2021-08-18T09:57:33Z</time>
      </trkpt>
      <trkpt lat="46.63083" lon="6.0667">
        <ele>1048.6</ele>
        <time>2021-08-18T09:57:34Z</time>
      </trkpt>
      <trkpt lat="46.63081" lon="6.06666">
        <ele>1048.7</ele>
        <time>2021-08-18T09:57:35Z</time>
      </trkpt>
      <trkpt lat="46.63077" lon="6.06657">
        <ele>1048.9</ele>
        <time>2021-08-18T09:57:37Z</time>
      </trkpt>
      <trkpt lat="46.63075" lon="6.06653">
        <ele>1049</ele>
        <time>2021-08-18T09:57:38Z</time>
      </trkpt>
      <trkpt lat="46.63072" lon="6.06648">
        <ele>1049.2</ele>
        <time>2021-08-18T09:57:40Z</time>
      </trkpt>
      <trkpt lat="46.6307" lon="6.06646">
        <ele>1049.3</ele>
        <time>2021-08-18T09:57:41Z</time>
      </trkpt>
      <trkpt lat="46.63069" lon="6.06644">
        <ele>1049.3</ele>
        <time>2021-08-18T09:57:42Z</time>
      </trkpt>
      <trkpt lat="46.63066" lon="6.06639">
        <ele>1049.5</ele>
        <time>2021-08-18T09:57:44Z</time>
      </trkpt>
      <trkpt lat="46.63065" lon="6.06637">
        <ele>1049.6</ele>
        <time>2021-08-18T09:57:45Z</time>
      </trkpt>
      <trkpt lat="46.63064" lon="6.06635">
        <ele>1049.7</ele>
        <time>2021-08-18T09:57:46Z</time>
      </trkpt>
      <trkpt lat="46.63063" lon="6.06631">
        <ele>1049.9</ele>
        <time>2021-08-18T09:57:47Z</time>
      </trkpt>
      <trkpt lat="46.63062" lon="6.0663">
        <ele>1049.9</ele>
        <time>2021-08-18T09:57:48Z</time>
      </trkpt>
      <trkpt lat="46.6306" lon="6.06627">
        <ele>1050</ele>
        <time>2021-08-18T09:57:50Z</time>
      </trkpt>
      <trkpt lat="46.6306" lon="6.06625">
        <ele>1050.1</ele>
        <time>2021-08-18T09:57:51Z</time>
      </trkpt>
      <trkpt lat="46.63058" lon="6.0662">
        <ele>1050.3</ele>
        <time>2021-08-18T09:57:53Z</time>
      </trkpt>
      <trkpt lat="46.63057" lon="6.06616">
        <ele>1050.4</ele>
        <time>2021-08-18T09:57:54Z</time>
      </trkpt>
      <trkpt lat="46.63053" lon="6.06611">
        <ele>1050.6</ele>
        <time>2021-08-18T09:57:55Z</time>
      </trkpt>
      <trkpt lat="46.63051" lon="6.06609">
        <ele>1050.7</ele>
        <time>2021-08-18T09:57:56Z</time>
      </trkpt>
      <trkpt lat="46.63047" lon="6.06606">
        <ele>1050.7</ele>
        <time>2021-08-18T09:57:58Z</time>
      </trkpt>
      <trkpt lat="46.63042" lon="6.06604">
        <ele>1050.8</ele>
        <time>2021-08-18T09:57:59Z</time>
      </trkpt>
      <trkpt lat="46.63033" lon="6.06603">
        <ele>1050.6</ele>
        <time>2021-08-18T09:58:01Z</time>
      </trkpt>
      <trkpt lat="46.6302" lon="6.06604">
        <ele>1050</ele>
        <time>2021-08-18T09:58:02Z</time>
      </trkpt>
      <trkpt lat="46.63005" lon="6.06609">
        <ele>1049.2</ele>
        <time>2021-08-18T09:58:04Z</time>
      </trkpt>
      <trkpt lat="46.62999" lon="6.06614">
        <ele>1048.8</ele>
        <time>2021-08-18T09:58:05Z</time>
      </trkpt>
      <trkpt lat="46.62993" lon="6.0662">
        <ele>1048.5</ele>
        <time>2021-08-18T09:58:06Z</time>
      </trkpt>
      <trkpt lat="46.62988" lon="6.06625">
        <ele>1048.2</ele>
        <time>2021-08-18T09:58:07Z</time>
      </trkpt>
      <trkpt lat="46.62984" lon="6.0663">
        <ele>1047.9</ele>
        <time>2021-08-18T09:58:08Z</time>
      </trkpt>
      <trkpt lat="46.62979" lon="6.06635">
        <ele>1047.7</ele>
        <time>2021-08-18T09:58:09Z</time>
      </trkpt>
      <trkpt lat="46.62974" lon="6.06641">
        <ele>1047.6</ele>
        <time>2021-08-18T09:58:10Z</time>
      </trkpt>
      <trkpt lat="46.62964" lon="6.0665">
        <ele>1047.3</ele>
        <time>2021-08-18T09:58:12Z</time>
      </trkpt>
      <trkpt lat="46.62954" lon="6.06656">
        <ele>1047.1</ele>
        <time>2021-08-18T09:58:14Z</time>
      </trkpt>
      <trkpt lat="46.62948" lon="6.06658">
        <ele>1047</ele>
        <time>2021-08-18T09:58:15Z</time>
      </trkpt>
      <trkpt lat="46.62942" lon="6.06662">
        <ele>1046.9</ele>
        <time>2021-08-18T09:58:16Z</time>
      </trkpt>
      <trkpt lat="46.62937" lon="6.06668">
        <ele>1046.8</ele>
        <time>2021-08-18T09:58:17Z</time>
      </trkpt>
      <trkpt lat="46.62933" lon="6.06674">
        <ele>1046.8</ele>
        <time>2021-08-18T09:58:18Z</time>
      </trkpt>
      <trkpt lat="46.62924" lon="6.06683">
        <ele>1046.8</ele>
        <time>2021-08-18T09:58:20Z</time>
      </trkpt>
      <trkpt lat="46.62919" lon="6.06686">
        <ele>1046.8</ele>
        <time>2021-08-18T09:58:21Z</time>
      </trkpt>
      <trkpt lat="46.62916" lon="6.06688">
        <ele>1046.8</ele>
        <time>2021-08-18T09:58:22Z</time>
      </trkpt>
      <trkpt lat="46.62911" lon="6.06689">
        <ele>1046.9</ele>
        <time>2021-08-18T09:58:23Z</time>
      </trkpt>
      <trkpt lat="46.62903" lon="6.06691">
        <ele>1046.9</ele>
        <time>2021-08-18T09:58:25Z</time>
      </trkpt>
      <trkpt lat="46.62899" lon="6.06693">
        <ele>1046.8</ele>
        <time>2021-08-18T09:58:26Z</time>
      </trkpt>
      <trkpt lat="46.62895" lon="6.06696">
        <ele>1046.8</ele>
        <time>2021-08-18T09:58:28Z</time>
      </trkpt>
      <trkpt lat="46.62889" lon="6.06696">
        <ele>1046.8</ele>
        <time>2021-08-18T09:58:30Z</time>
      </trkpt>
      <trkpt lat="46.62882" lon="6.06695">
        <ele>1046.6</ele>
        <time>2021-08-18T09:58:31Z</time>
      </trkpt>
      <trkpt lat="46.62877" lon="6.06694">
        <ele>1046.5</ele>
        <time>2021-08-18T09:58:32Z</time>
      </trkpt>
      <trkpt lat="46.62873" lon="6.06691">
        <ele>1046.4</ele>
        <time>2021-08-18T09:58:33Z</time>
      </trkpt>
      <trkpt lat="46.62869" lon="6.06686">
        <ele>1046.2</ele>
        <time>2021-08-18T09:58:35Z</time>
      </trkpt>
      <trkpt lat="46.6286" lon="6.06676">
        <ele>1045.8</ele>
        <time>2021-08-18T09:58:36Z</time>
      </trkpt>
      <trkpt lat="46.62852" lon="6.06666">
        <ele>1045.3</ele>
        <time>2021-08-18T09:58:38Z</time>
      </trkpt>
      <trkpt lat="46.6284" lon="6.06656">
        <ele>1044.6</ele>
        <time>2021-08-18T09:58:40Z</time>
      </trkpt>
      <trkpt lat="46.62834" lon="6.06651">
        <ele>1044.3</ele>
        <time>2021-08-18T09:58:41Z</time>
      </trkpt>
      <trkpt lat="46.62829" lon="6.06647">
        <ele>1044</ele>
        <time>2021-08-18T09:58:42Z</time>
      </trkpt>
      <trkpt lat="46.62817" lon="6.06641">
        <ele>1043.3</ele>
        <time>2021-08-18T09:58:44Z</time>
      </trkpt>
      <trkpt lat="46.62813" lon="6.06638">
        <ele>1043</ele>
        <time>2021-08-18T09:58:45Z</time>
      </trkpt>
      <trkpt lat="46.62806" lon="6.06635">
        <ele>1042.5</ele>
        <time>2021-08-18T09:58:47Z</time>
      </trkpt>
      <trkpt lat="46.62801" lon="6.06633">
        <ele>1042.2</ele>
        <time>2021-08-18T09:58:49Z</time>
      </trkpt>
      <trkpt lat="46.62797" lon="6.06618">
        <ele>1041.4</ele>
        <time>2021-08-18T09:58:50Z</time>
      </trkpt>
      <trkpt lat="46.62792" lon="6.06611">
        <ele>1041.1</ele>
        <time>2021-08-18T09:58:51Z</time>
      </trkpt>
      <trkpt lat="46.62784" lon="6.06601">
        <ele>1040.8</ele>
        <time>2021-08-18T09:58:53Z</time>
      </trkpt>
      <trkpt lat="46.62782" lon="6.06595">
        <ele>1040.8</ele>
        <time>2021-08-18T09:58:54Z</time>
      </trkpt>
      <trkpt lat="46.62779" lon="6.06591">
        <ele>1040.8</ele>
        <time>2021-08-18T09:58:55Z</time>
      </trkpt>
      <trkpt lat="46.62772" lon="6.0658">
        <ele>1041</ele>
        <time>2021-08-18T09:58:57Z</time>
      </trkpt>
      <trkpt lat="46.62767" lon="6.06577">
        <ele>1041.1</ele>
        <time>2021-08-18T09:58:59Z</time>
      </trkpt>
      <trkpt lat="46.62764" lon="6.06574">
        <ele>1041.2</ele>
        <time>2021-08-18T09:59:00Z</time>
      </trkpt>
      <trkpt lat="46.62761" lon="6.0657">
        <ele>1041.3</ele>
        <time>2021-08-18T09:59:01Z</time>
      </trkpt>
      <trkpt lat="46.62757" lon="6.06566">
        <ele>1041.5</ele>
        <time>2021-08-18T09:59:02Z</time>
      </trkpt>
      <trkpt lat="46.62753" lon="6.06559">
        <ele>1041.7</ele>
        <time>2021-08-18T09:59:04Z</time>
      </trkpt>
      <trkpt lat="46.62749" lon="6.06556">
        <ele>1041.8</ele>
        <time>2021-08-18T09:59:05Z</time>
      </trkpt>
      <trkpt lat="46.62746" lon="6.06555">
        <ele>1041.9</ele>
        <time>2021-08-18T09:59:06Z</time>
      </trkpt>
      <trkpt lat="46.62743" lon="6.06553">
        <ele>1041.9</ele>
        <time>2021-08-18T09:59:07Z</time>
      </trkpt>
      <trkpt lat="46.6274" lon="6.06547">
        <ele>1042.1</ele>
        <time>2021-08-18T09:59:09Z</time>
      </trkpt>
      <trkpt lat="46.62738" lon="6.06543">
        <ele>1042.1</ele>
        <time>2021-08-18T09:59:10Z</time>
      </trkpt>
      <trkpt lat="46.62734" lon="6.06536">
        <ele>1042.2</ele>
        <time>2021-08-18T09:59:12Z</time>
      </trkpt>
      <trkpt lat="46.62732" lon="6.06533">
        <ele>1042.3</ele>
        <time>2021-08-18T09:59:13Z</time>
      </trkpt>
      <trkpt lat="46.6273" lon="6.06528">
        <ele>1042.3</ele>
        <time>2021-08-18T09:59:14Z</time>
      </trkpt>
      <trkpt lat="46.62727" lon="6.06525">
        <ele>1042.3</ele>
        <time>2021-08-18T09:59:15Z</time>
      </trkpt>
      <trkpt lat="46.62725" lon="6.06521">
        <ele>1042.4</ele>
        <time>2021-08-18T09:59:17Z</time>
      </trkpt>
      <trkpt lat="46.62721" lon="6.06518">
        <ele>1042.4</ele>
        <time>2021-08-18T09:59:18Z</time>
      </trkpt>
      <trkpt lat="46.62717" lon="6.06513">
        <ele>1042.4</ele>
        <time>2021-08-18T09:59:19Z</time>
      </trkpt>
      <trkpt lat="46.62714" lon="6.0651">
        <ele>1042.4</ele>
        <time>2021-08-18T09:59:20Z</time>
      </trkpt>
      <trkpt lat="46.62703" lon="6.06497">
        <ele>1042.5</ele>
        <time>2021-08-18T09:59:22Z</time>
      </trkpt>
      <trkpt lat="46.627" lon="6.06492">
        <ele>1042.6</ele>
        <time>2021-08-18T09:59:23Z</time>
      </trkpt>
      <trkpt lat="46.627" lon="6.06489">
        <ele>1042.6</ele>
        <time>2021-08-18T09:59:24Z</time>
      </trkpt>
      <trkpt lat="46.627" lon="6.06487">
        <ele>1042.6</ele>
        <time>2021-08-18T09:59:26Z</time>
      </trkpt>
      <trkpt lat="46.62699" lon="6.06486">
        <ele>1042.6</ele>
        <time>2021-08-18T09:59:27Z</time>
      </trkpt>
      <trkpt lat="46.627" lon="6.06486">
        <ele>1042.6</ele>
        <time>2021-08-18T09:59:29Z</time>
      </trkpt>
      <trkpt lat="46.627" lon="6.06487">
        <ele>1042.6</ele>
        <time>2021-08-18T09:59:30Z</time>
      </trkpt>
      <trkpt lat="46.627" lon="6.06489">
        <ele>1042.6</ele>
        <time>2021-08-18T09:59:32Z</time>
      </trkpt>
      <trkpt lat="46.62698" lon="6.06489">
        <ele>1042.6</ele>
        <time>2021-08-18T09:59:33Z</time>
      </trkpt>
      <trkpt lat="46.62676" lon="6.06497">
        <ele>1042.8</ele>
        <time>2021-08-18T09:59:37Z</time>
      </trkpt>
      <trkpt lat="46.6267" lon="6.06497">
        <ele>1042.8</ele>
        <time>2021-08-18T09:59:38Z</time>
      </trkpt>
      <trkpt lat="46.62664" lon="6.06497">
        <ele>1042.8</ele>
        <time>2021-08-18T09:59:40Z</time>
      </trkpt>
      <trkpt lat="46.62656" lon="6.06497">
        <ele>1042.7</ele>
        <time>2021-08-18T09:59:41Z</time>
      </trkpt>
      <trkpt lat="46.6265" lon="6.06497">
        <ele>1042.5</ele>
        <time>2021-08-18T09:59:42Z</time>
      </trkpt>
      <trkpt lat="46.62642" lon="6.06492">
        <ele>1042.4</ele>
        <time>2021-08-18T09:59:44Z</time>
      </trkpt>
      <trkpt lat="46.62625" lon="6.06474">
        <ele>1042.2</ele>
        <time>2021-08-18T09:59:45Z</time>
      </trkpt>
      <trkpt lat="46.62608" lon="6.0646">
        <ele>1041.8</ele>
        <time>2021-08-18T09:59:47Z</time>
      </trkpt>
      <trkpt lat="46.62602" lon="6.06452">
        <ele>1041.5</ele>
        <time>2021-08-18T09:59:48Z</time>
      </trkpt>
      <trkpt lat="46.62597" lon="6.06442">
        <ele>1040.9</ele>
        <time>2021-08-18T09:59:49Z</time>
      </trkpt>
      <trkpt lat="46.62594" lon="6.06428">
        <ele>1040.3</ele>
        <time>2021-08-18T09:59:51Z</time>
      </trkpt>
      <trkpt lat="46.626" lon="6.06399">
        <ele>1038.5</ele>
        <time>2021-08-18T09:59:52Z</time>
      </trkpt>
      <trkpt lat="46.62599" lon="6.06393">
        <ele>1038.2</ele>
        <time>2021-08-18T09:59:53Z</time>
      </trkpt>
      <trkpt lat="46.62594" lon="6.06375">
        <ele>1037</ele>
        <time>2021-08-18T09:59:55Z</time>
      </trkpt>
      <trkpt lat="46.6259" lon="6.06368">
        <ele>1036.4</ele>
        <time>2021-08-18T09:59:56Z</time>
      </trkpt>
      <trkpt lat="46.62585" lon="6.06362">
        <ele>1035.9</ele>
        <time>2021-08-18T09:59:57Z</time>
      </trkpt>
      <trkpt lat="46.62575" lon="6.06351">
        <ele>1035.2</ele>
        <time>2021-08-18T09:59:59Z</time>
      </trkpt>
      <trkpt lat="46.62564" lon="6.06343">
        <ele>1034.6</ele>
        <time>2021-08-18T10:00:01Z</time>
      </trkpt>
      <trkpt lat="46.62558" lon="6.06342">
        <ele>1034.2</ele>
        <time>2021-08-18T10:00:02Z</time>
      </trkpt>
      <trkpt lat="46.62543" lon="6.06344">
        <ele>1033.2</ele>
        <time>2021-08-18T10:00:04Z</time>
      </trkpt>
      <trkpt lat="46.62533" lon="6.0635">
        <ele>1032.2</ele>
        <time>2021-08-18T10:00:05Z</time>
      </trkpt>
      <trkpt lat="46.62523" lon="6.0636">
        <ele>1031</ele>
        <time>2021-08-18T10:00:06Z</time>
      </trkpt>
      <trkpt lat="46.62512" lon="6.06364">
        <ele>1030</ele>
        <time>2021-08-18T10:00:07Z</time>
      </trkpt>
      <trkpt lat="46.62503" lon="6.06368">
        <ele>1029.2</ele>
        <time>2021-08-18T10:00:08Z</time>
      </trkpt>
      <trkpt lat="46.62485" lon="6.06376">
        <ele>1028.1</ele>
        <time>2021-08-18T10:00:10Z</time>
      </trkpt>
      <trkpt lat="46.62475" lon="6.06378">
        <ele>1027.5</ele>
        <time>2021-08-18T10:00:11Z</time>
      </trkpt>
      <trkpt lat="46.62455" lon="6.06381">
        <ele>1026.5</ele>
        <time>2021-08-18T10:00:13Z</time>
      </trkpt>
      <trkpt lat="46.62445" lon="6.06384">
        <ele>1026.2</ele>
        <time>2021-08-18T10:00:14Z</time>
      </trkpt>
      <trkpt lat="46.62427" lon="6.06389">
        <ele>1025.6</ele>
        <time>2021-08-18T10:00:16Z</time>
      </trkpt>
      <trkpt lat="46.6242" lon="6.06392">
        <ele>1025.3</ele>
        <time>2021-08-18T10:00:17Z</time>
      </trkpt>
      <trkpt lat="46.62407" lon="6.06403">
        <ele>1024.8</ele>
        <time>2021-08-18T10:00:19Z</time>
      </trkpt>
      <trkpt lat="46.62397" lon="6.06422">
        <ele>1024.1</ele>
        <time>2021-08-18T10:00:21Z</time>
      </trkpt>
      <trkpt lat="46.62392" lon="6.06453">
        <ele>1023.1</ele>
        <time>2021-08-18T10:00:23Z</time>
      </trkpt>
      <trkpt lat="46.6239" lon="6.06468">
        <ele>1022.7</ele>
        <time>2021-08-18T10:00:24Z</time>
      </trkpt>
      <trkpt lat="46.62384" lon="6.06492">
        <ele>1021.9</ele>
        <time>2021-08-18T10:00:26Z</time>
      </trkpt>
      <trkpt lat="46.62377" lon="6.06513">
        <ele>1021.3</ele>
        <time>2021-08-18T10:00:28Z</time>
      </trkpt>
      <trkpt lat="46.62369" lon="6.06531">
        <ele>1020.8</ele>
        <time>2021-08-18T10:00:30Z</time>
      </trkpt>
      <trkpt lat="46.62358" lon="6.06548">
        <ele>1020.6</ele>
        <time>2021-08-18T10:00:32Z</time>
      </trkpt>
      <trkpt lat="46.62347" lon="6.06562">
        <ele>1020.7</ele>
        <time>2021-08-18T10:00:34Z</time>
      </trkpt>
      <trkpt lat="46.62337" lon="6.06577">
        <ele>1020.9</ele>
        <time>2021-08-18T10:00:36Z</time>
      </trkpt>
      <trkpt lat="46.62332" lon="6.06582">
        <ele>1021.1</ele>
        <time>2021-08-18T10:00:37Z</time>
      </trkpt>
      <trkpt lat="46.62322" lon="6.06591">
        <ele>1021.5</ele>
        <time>2021-08-18T10:00:39Z</time>
      </trkpt>
      <trkpt lat="46.62314" lon="6.06598">
        <ele>1022</ele>
        <time>2021-08-18T10:00:41Z</time>
      </trkpt>
      <trkpt lat="46.62311" lon="6.06601">
        <ele>1022.2</ele>
        <time>2021-08-18T10:00:42Z</time>
      </trkpt>
      <trkpt lat="46.62305" lon="6.06605">
        <ele>1022.5</ele>
        <time>2021-08-18T10:00:44Z</time>
      </trkpt>
      <trkpt lat="46.62302" lon="6.06605">
        <ele>1022.7</ele>
        <time>2021-08-18T10:00:45Z</time>
      </trkpt>
      <trkpt lat="46.62296" lon="6.06607">
        <ele>1023</ele>
        <time>2021-08-18T10:00:47Z</time>
      </trkpt>
      <trkpt lat="46.62288" lon="6.06609">
        <ele>1023.3</ele>
        <time>2021-08-18T10:00:49Z</time>
      </trkpt>
      <trkpt lat="46.62285" lon="6.06606">
        <ele>1023.5</ele>
        <time>2021-08-18T10:00:51Z</time>
      </trkpt>
      <trkpt lat="46.62282" lon="6.06609">
        <ele>1023.7</ele>
        <time>2021-08-18T10:00:52Z</time>
      </trkpt>
      <trkpt lat="46.62278" lon="6.06612">
        <ele>1023.9</ele>
        <time>2021-08-18T10:00:53Z</time>
      </trkpt>
      <trkpt lat="46.62276" lon="6.06614">
        <ele>1024</ele>
        <time>2021-08-18T10:00:54Z</time>
      </trkpt>
      <trkpt lat="46.62271" lon="6.06615">
        <ele>1024.2</ele>
        <time>2021-08-18T10:00:56Z</time>
      </trkpt>
      <trkpt lat="46.62266" lon="6.06615">
        <ele>1024.5</ele>
        <time>2021-08-18T10:00:57Z</time>
      </trkpt>
      <trkpt lat="46.62263" lon="6.06614">
        <ele>1024.7</ele>
        <time>2021-08-18T10:00:58Z</time>
      </trkpt>
      <trkpt lat="46.62258" lon="6.06611">
        <ele>1024.9</ele>
        <time>2021-08-18T10:01:00Z</time>
      </trkpt>
      <trkpt lat="46.62255" lon="6.06612">
        <ele>1025.1</ele>
        <time>2021-08-18T10:01:01Z</time>
      </trkpt>
      <trkpt lat="46.62253" lon="6.06612">
        <ele>1025.2</ele>
        <time>2021-08-18T10:01:02Z</time>
      </trkpt>
      <trkpt lat="46.62254" lon="6.06616">
        <ele>1025.4</ele>
        <time>2021-08-18T10:01:04Z</time>
      </trkpt>
      <trkpt lat="46.62256" lon="6.06619">
        <ele>1025.5</ele>
        <time>2021-08-18T10:01:05Z</time>
      </trkpt>
      <trkpt lat="46.62258" lon="6.06621">
        <ele>1025.7</ele>
        <time>2021-08-18T10:01:06Z</time>
      </trkpt>
      <trkpt lat="46.62263" lon="6.06626">
        <ele>1026.1</ele>
        <time>2021-08-18T10:01:08Z</time>
      </trkpt>
      <trkpt lat="46.62264" lon="6.06627">
        <ele>1026.2</ele>
        <time>2021-08-18T10:01:09Z</time>
      </trkpt>
      <trkpt lat="46.62264" lon="6.06628">
        <ele>1026.2</ele>
        <time>2021-08-18T10:01:10Z</time>
      </trkpt>
      <trkpt lat="46.62264" lon="6.06629">
        <ele>1026.3</ele>
        <time>2021-08-18T10:01:11Z</time>
      </trkpt>
      <trkpt lat="46.62264" lon="6.06634">
        <ele>1026.5</ele>
        <time>2021-08-18T10:01:13Z</time>
      </trkpt>
      <trkpt lat="46.62264" lon="6.06635">
        <ele>1026.5</ele>
        <time>2021-08-18T10:01:14Z</time>
      </trkpt>
      <trkpt lat="46.62237" lon="6.06679">
        <ele>1028.4</ele>
        <time>2021-08-18T10:01:26Z</time>
      </trkpt>
      <trkpt lat="46.62233" lon="6.06683">
        <ele>1028.4</ele>
        <time>2021-08-18T10:01:27Z</time>
      </trkpt>
      <trkpt lat="46.62226" lon="6.0669">
        <ele>1028.4</ele>
        <time>2021-08-18T10:01:29Z</time>
      </trkpt>
      <trkpt lat="46.62221" lon="6.06696">
        <ele>1028.4</ele>
        <time>2021-08-18T10:01:30Z</time>
      </trkpt>
      <trkpt lat="46.62217" lon="6.06701">
        <ele>1028.4</ele>
        <time>2021-08-18T10:01:32Z</time>
      </trkpt>
      <trkpt lat="46.62213" lon="6.06704">
        <ele>1028.4</ele>
        <time>2021-08-18T10:01:33Z</time>
      </trkpt>
      <trkpt lat="46.62207" lon="6.06708">
        <ele>1028.5</ele>
        <time>2021-08-18T10:01:35Z</time>
      </trkpt>
      <trkpt lat="46.62202" lon="6.06713">
        <ele>1028.5</ele>
        <time>2021-08-18T10:01:37Z</time>
      </trkpt>
      <trkpt lat="46.62198" lon="6.06716">
        <ele>1028.6</ele>
        <time>2021-08-18T10:01:38Z</time>
      </trkpt>
      <trkpt lat="46.62191" lon="6.06723">
        <ele>1028.7</ele>
        <time>2021-08-18T10:01:40Z</time>
      </trkpt>
      <trkpt lat="46.62188" lon="6.06726">
        <ele>1028.8</ele>
        <time>2021-08-18T10:01:41Z</time>
      </trkpt>
      <trkpt lat="46.62185" lon="6.06729">
        <ele>1028.9</ele>
        <time>2021-08-18T10:01:42Z</time>
      </trkpt>
      <trkpt lat="46.62182" lon="6.06731">
        <ele>1029</ele>
        <time>2021-08-18T10:01:43Z</time>
      </trkpt>
      <trkpt lat="46.62179" lon="6.06735">
        <ele>1029</ele>
        <time>2021-08-18T10:01:44Z</time>
      </trkpt>
      <trkpt lat="46.62177" lon="6.06739">
        <ele>1029.1</ele>
        <time>2021-08-18T10:01:46Z</time>
      </trkpt>
      <trkpt lat="46.62177" lon="6.06739">
        <ele>1029.1</ele>
        <time>2021-08-18T10:01:47Z</time>
      </trkpt>
      <trkpt lat="46.62175" lon="6.0674">
        <ele>1029.2</ele>
        <time>2021-08-18T10:01:49Z</time>
      </trkpt>
      <trkpt lat="46.62174" lon="6.0674">
        <ele>1029.2</ele>
        <time>2021-08-18T10:01:50Z</time>
      </trkpt>
      <trkpt lat="46.62173" lon="6.0674">
        <ele>1029.2</ele>
        <time>2021-08-18T10:01:51Z</time>
      </trkpt>
      <trkpt lat="46.62172" lon="6.06741">
        <ele>1029.2</ele>
        <time>2021-08-18T10:01:53Z</time>
      </trkpt>
      <trkpt lat="46.62171" lon="6.06741">
        <ele>1029.3</ele>
        <time>2021-08-18T10:01:54Z</time>
      </trkpt>
      <trkpt lat="46.62152" lon="6.06748">
        <ele>1029.8</ele>
        <time>2021-08-18T10:02:05Z</time>
      </trkpt>
      <trkpt lat="46.62147" lon="6.0675">
        <ele>1029.9</ele>
        <time>2021-08-18T10:02:07Z</time>
      </trkpt>
      <trkpt lat="46.62142" lon="6.06751">
        <ele>1030.1</ele>
        <time>2021-08-18T10:02:08Z</time>
      </trkpt>
      <trkpt lat="46.62138" lon="6.06751">
        <ele>1030.3</ele>
        <time>2021-08-18T10:02:09Z</time>
      </trkpt>
      <trkpt lat="46.62135" lon="6.06753">
        <ele>1030.4</ele>
        <time>2021-08-18T10:02:10Z</time>
      </trkpt>
      <trkpt lat="46.6213" lon="6.06753">
        <ele>1030.6</ele>
        <time>2021-08-18T10:02:11Z</time>
      </trkpt>
      <trkpt lat="46.62128" lon="6.06752">
        <ele>1030.7</ele>
        <time>2021-08-18T10:02:12Z</time>
      </trkpt>
      <trkpt lat="46.62123" lon="6.06754">
        <ele>1030.9</ele>
        <time>2021-08-18T10:02:14Z</time>
      </trkpt>
      <trkpt lat="46.62122" lon="6.06754">
        <ele>1030.9</ele>
        <time>2021-08-18T10:02:15Z</time>
      </trkpt>
      <trkpt lat="46.62121" lon="6.06754">
        <ele>1031</ele>
        <time>2021-08-18T10:02:16Z</time>
      </trkpt>
      <trkpt lat="46.62116" lon="6.06751">
        <ele>1031.2</ele>
        <time>2021-08-18T10:02:18Z</time>
      </trkpt>
      <trkpt lat="46.62112" lon="6.0675">
        <ele>1031.4</ele>
        <time>2021-08-18T10:02:19Z</time>
      </trkpt>
      <trkpt lat="46.62109" lon="6.0675">
        <ele>1031.5</ele>
        <time>2021-08-18T10:02:21Z</time>
      </trkpt>
      <trkpt lat="46.62107" lon="6.06752">
        <ele>1031.6</ele>
        <time>2021-08-18T10:02:22Z</time>
      </trkpt>
      <trkpt lat="46.62104" lon="6.06754">
        <ele>1031.8</ele>
        <time>2021-08-18T10:02:24Z</time>
      </trkpt>
      <trkpt lat="46.62101" lon="6.06757">
        <ele>1032</ele>
        <time>2021-08-18T10:02:25Z</time>
      </trkpt>
      <trkpt lat="46.621" lon="6.06758">
        <ele>1032.1</ele>
        <time>2021-08-18T10:02:26Z</time>
      </trkpt>
      <trkpt lat="46.62097" lon="6.06761">
        <ele>1032.3</ele>
        <time>2021-08-18T10:02:28Z</time>
      </trkpt>
      <trkpt lat="46.62095" lon="6.06762">
        <ele>1032.5</ele>
        <time>2021-08-18T10:02:29Z</time>
      </trkpt>
      <trkpt lat="46.62092" lon="6.06762">
        <ele>1032.7</ele>
        <time>2021-08-18T10:02:30Z</time>
      </trkpt>
      <trkpt lat="46.62088" lon="6.06759">
        <ele>1033</ele>
        <time>2021-08-18T10:02:32Z</time>
      </trkpt>
      <trkpt lat="46.62083" lon="6.06757">
        <ele>1033.4</ele>
        <time>2021-08-18T10:02:33Z</time>
      </trkpt>
      <trkpt lat="46.62081" lon="6.06756">
        <ele>1033.6</ele>
        <time>2021-08-18T10:02:34Z</time>
      </trkpt>
      <trkpt lat="46.62079" lon="6.06755">
        <ele>1033.7</ele>
        <time>2021-08-18T10:02:35Z</time>
      </trkpt>
      <trkpt lat="46.62078" lon="6.06755">
        <ele>1033.8</ele>
        <time>2021-08-18T10:02:36Z</time>
      </trkpt>
      <trkpt lat="46.62076" lon="6.06755">
        <ele>1034</ele>
        <time>2021-08-18T10:02:37Z</time>
      </trkpt>
      <trkpt lat="46.62073" lon="6.06753">
        <ele>1034.2</ele>
        <time>2021-08-18T10:02:39Z</time>
      </trkpt>
      <trkpt lat="46.62073" lon="6.06753">
        <ele>1034.2</ele>
        <time>2021-08-18T10:02:40Z</time>
      </trkpt>
      <trkpt lat="46.62073" lon="6.06755">
        <ele>1034.3</ele>
        <time>2021-08-18T10:02:41Z</time>
      </trkpt>
      <trkpt lat="46.62074" lon="6.06756">
        <ele>1034.4</ele>
        <time>2021-08-18T10:02:42Z</time>
      </trkpt>
      <trkpt lat="46.62074" lon="6.06758">
        <ele>1034.4</ele>
        <time>2021-08-18T10:02:44Z</time>
      </trkpt>
      <trkpt lat="46.62074" lon="6.06759">
        <ele>1034.5</ele>
        <time>2021-08-18T10:02:45Z</time>
      </trkpt>
      <trkpt lat="46.62075" lon="6.0676">
        <ele>1034.6</ele>
        <time>2021-08-18T10:02:46Z</time>
      </trkpt>
      <trkpt lat="46.62075" lon="6.06762">
        <ele>1034.7</ele>
        <time>2021-08-18T10:02:47Z</time>
      </trkpt>
      <trkpt lat="46.62076" lon="6.06763">
        <ele>1034.8</ele>
        <time>2021-08-18T10:02:48Z</time>
      </trkpt>
      <trkpt lat="46.62077" lon="6.06764">
        <ele>1034.9</ele>
        <time>2021-08-18T10:02:50Z</time>
      </trkpt>
      <trkpt lat="46.62021" lon="6.06775">
        <ele>1038.9</ele>
        <time>2021-08-18T10:03:33Z</time>
      </trkpt>
      <trkpt lat="46.62019" lon="6.06777">
        <ele>1039.2</ele>
        <time>2021-08-18T10:03:34Z</time>
      </trkpt>
      <trkpt lat="46.62016" lon="6.06779">
        <ele>1039.4</ele>
        <time>2021-08-18T10:03:36Z</time>
      </trkpt>
      <trkpt lat="46.62015" lon="6.0678">
        <ele>1039.4</ele>
        <time>2021-08-18T10:03:37Z</time>
      </trkpt>
      <trkpt lat="46.62015" lon="6.0678">
        <ele>1039.5</ele>
        <time>2021-08-18T10:03:38Z</time>
      </trkpt>
      <trkpt lat="46.62014" lon="6.06781">
        <ele>1039.6</ele>
        <time>2021-08-18T10:03:40Z</time>
      </trkpt>
      <trkpt lat="46.62013" lon="6.06782">
        <ele>1039.6</ele>
        <time>2021-08-18T10:03:41Z</time>
      </trkpt>
      <trkpt lat="46.62013" lon="6.06782">
        <ele>1039.6</ele>
        <time>2021-08-18T10:03:42Z</time>
      </trkpt>
      <trkpt lat="46.62013" lon="6.06784">
        <ele>1039.7</ele>
        <time>2021-08-18T10:03:43Z</time>
      </trkpt>
      <trkpt lat="46.62013" lon="6.06787">
        <ele>1039.9</ele>
        <time>2021-08-18T10:03:45Z</time>
      </trkpt>
      <trkpt lat="46.62013" lon="6.06789">
        <ele>1040</ele>
        <time>2021-08-18T10:03:46Z</time>
      </trkpt>
      <trkpt lat="46.62013" lon="6.06792">
        <ele>1040.1</ele>
        <time>2021-08-18T10:03:47Z</time>
      </trkpt>
      <trkpt lat="46.62014" lon="6.06796">
        <ele>1040.3</ele>
        <time>2021-08-18T10:03:48Z</time>
      </trkpt>
      <trkpt lat="46.62014" lon="6.06798">
        <ele>1040.4</ele>
        <time>2021-08-18T10:03:50Z</time>
      </trkpt>
      <trkpt lat="46.62014" lon="6.06802">
        <ele>1040.6</ele>
        <time>2021-08-18T10:03:51Z</time>
      </trkpt>
      <trkpt lat="46.62014" lon="6.06804">
        <ele>1040.6</ele>
        <time>2021-08-18T10:03:52Z</time>
      </trkpt>
      <trkpt lat="46.62014" lon="6.06808">
        <ele>1040.8</ele>
        <time>2021-08-18T10:03:53Z</time>
      </trkpt>
      <trkpt lat="46.62016" lon="6.06815">
        <ele>1041.1</ele>
        <time>2021-08-18T10:03:55Z</time>
      </trkpt>
      <trkpt lat="46.62017" lon="6.06819">
        <ele>1041.3</ele>
        <time>2021-08-18T10:03:56Z</time>
      </trkpt>
      <trkpt lat="46.62018" lon="6.06822">
        <ele>1041.4</ele>
        <time>2021-08-18T10:03:58Z</time>
      </trkpt>
      <trkpt lat="46.6202" lon="6.06824">
        <ele>1041.6</ele>
        <time>2021-08-18T10:04:00Z</time>
      </trkpt>
      <trkpt lat="46.6202" lon="6.06825">
        <ele>1041.6</ele>
        <time>2021-08-18T10:04:01Z</time>
      </trkpt>
      <trkpt lat="46.62026" lon="6.06834">
        <ele>1042.1</ele>
        <time>2021-08-18T10:04:02Z</time>
      </trkpt>
      <trkpt lat="46.62031" lon="6.0684">
        <ele>1042.5</ele>
        <time>2021-08-18T10:04:04Z</time>
      </trkpt>
      <trkpt lat="46.62034" lon="6.06844">
        <ele>1042.7</ele>
        <time>2021-08-18T10:04:05Z</time>
      </trkpt>
      <trkpt lat="46.62008" lon="6.06964">
        <ele>1048</ele>
        <time>2021-08-18T10:05:19Z</time>
      </trkpt>
      <trkpt lat="46.62009" lon="6.0697">
        <ele>1048.3</ele>
        <time>2021-08-18T10:05:20Z</time>
      </trkpt>
      <trkpt lat="46.62009" lon="6.06975">
        <ele>1048.4</ele>
        <time>2021-08-18T10:05:22Z</time>
      </trkpt>
      <trkpt lat="46.62009" lon="6.06977">
        <ele>1048.5</ele>
        <time>2021-08-18T10:05:23Z</time>
      </trkpt>
      <trkpt lat="46.62009" lon="6.06981">
        <ele>1048.7</ele>
        <time>2021-08-18T10:05:24Z</time>
      </trkpt>
      <trkpt lat="46.62008" lon="6.06983">
        <ele>1048.7</ele>
        <time>2021-08-18T10:05:25Z</time>
      </trkpt>
      <trkpt lat="46.62006" lon="6.06987">
        <ele>1048.9</ele>
        <time>2021-08-18T10:05:27Z</time>
      </trkpt>
      <trkpt lat="46.62006" lon="6.06987">
        <ele>1049</ele>
        <time>2021-08-18T10:05:28Z</time>
      </trkpt>
      <trkpt lat="46.62004" lon="6.06989">
        <ele>1049.1</ele>
        <time>2021-08-18T10:05:29Z</time>
      </trkpt>
      <trkpt lat="46.62" lon="6.0699">
        <ele>1049.3</ele>
        <time>2021-08-18T10:05:31Z</time>
      </trkpt>
      <trkpt lat="46.61996" lon="6.0699">
        <ele>1049.5</ele>
        <time>2021-08-18T10:05:32Z</time>
      </trkpt>
      <trkpt lat="46.61994" lon="6.06991">
        <ele>1049.6</ele>
        <time>2021-08-18T10:05:33Z</time>
      </trkpt>
      <trkpt lat="46.61992" lon="6.06991">
        <ele>1049.7</ele>
        <time>2021-08-18T10:05:35Z</time>
      </trkpt>
      <trkpt lat="46.61991" lon="6.06992">
        <ele>1049.8</ele>
        <time>2021-08-18T10:05:36Z</time>
      </trkpt>
      <trkpt lat="46.6199" lon="6.06993">
        <ele>1049.9</ele>
        <time>2021-08-18T10:05:37Z</time>
      </trkpt>
      <trkpt lat="46.61989" lon="6.06995">
        <ele>1050</ele>
        <time>2021-08-18T10:05:39Z</time>
      </trkpt>
      <trkpt lat="46.61989" lon="6.06996">
        <ele>1050</ele>
        <time>2021-08-18T10:05:41Z</time>
      </trkpt>
      <trkpt lat="46.61988" lon="6.06997">
        <ele>1050.1</ele>
        <time>2021-08-18T10:05:42Z</time>
      </trkpt>
      <trkpt lat="46.61985" lon="6.07">
        <ele>1050.3</ele>
        <time>2021-08-18T10:05:44Z</time>
      </trkpt>
      <trkpt lat="46.61983" lon="6.07002">
        <ele>1050.4</ele>
        <time>2021-08-18T10:05:45Z</time>
      </trkpt>
      <trkpt lat="46.6198" lon="6.07005">
        <ele>1050.6</ele>
        <time>2021-08-18T10:05:47Z</time>
      </trkpt>
      <trkpt lat="46.61979" lon="6.07006">
        <ele>1050.7</ele>
        <time>2021-08-18T10:05:48Z</time>
      </trkpt>
      <trkpt lat="46.61976" lon="6.07009">
        <ele>1050.9</ele>
        <time>2021-08-18T10:05:49Z</time>
      </trkpt>
      <trkpt lat="46.61975" lon="6.0701">
        <ele>1051</ele>
        <time>2021-08-18T10:05:51Z</time>
      </trkpt>
      <trkpt lat="46.61973" lon="6.07011">
        <ele>1051.1</ele>
        <time>2021-08-18T10:05:52Z</time>
      </trkpt>
      <trkpt lat="46.61972" lon="6.07012">
        <ele>1051.2</ele>
        <time>2021-08-18T10:05:53Z</time>
      </trkpt>
      <trkpt lat="46.61967" lon="6.07013">
        <ele>1051.5</ele>
        <time>2021-08-18T10:05:55Z</time>
      </trkpt>
      <trkpt lat="46.61966" lon="6.07014">
        <ele>1051.6</ele>
        <time>2021-08-18T10:05:56Z</time>
      </trkpt>
      <trkpt lat="46.61964" lon="6.07014">
        <ele>1051.6</ele>
        <time>2021-08-18T10:05:57Z</time>
      </trkpt>
      <trkpt lat="46.61962" lon="6.07016">
        <ele>1051.8</ele>
        <time>2021-08-18T10:05:58Z</time>
      </trkpt>
      <trkpt lat="46.61962" lon="6.07017">
        <ele>1051.8</ele>
        <time>2021-08-18T10:06:00Z</time>
      </trkpt>
      <trkpt lat="46.61961" lon="6.07018">
        <ele>1051.9</ele>
        <time>2021-08-18T10:06:01Z</time>
      </trkpt>
      <trkpt lat="46.6196" lon="6.0702">
        <ele>1052</ele>
        <time>2021-08-18T10:06:02Z</time>
      </trkpt>
      <trkpt lat="46.61958" lon="6.07023">
        <ele>1052.1</ele>
        <time>2021-08-18T10:06:03Z</time>
      </trkpt>
      <trkpt lat="46.61957" lon="6.07025">
        <ele>1052.2</ele>
        <time>2021-08-18T10:06:04Z</time>
      </trkpt>
      <trkpt lat="46.61956" lon="6.07027">
        <ele>1052.3</ele>
        <time>2021-08-18T10:06:06Z</time>
      </trkpt>
      <trkpt lat="46.61956" lon="6.07029">
        <ele>1052.4</ele>
        <time>2021-08-18T10:06:07Z</time>
      </trkpt>
      <trkpt lat="46.61956" lon="6.0703">
        <ele>1052.4</ele>
        <time>2021-08-18T10:06:08Z</time>
      </trkpt>
      <trkpt lat="46.61956" lon="6.07031">
        <ele>1052.5</ele>
        <time>2021-08-18T10:06:09Z</time>
      </trkpt>
      <trkpt lat="46.61956" lon="6.07033">
        <ele>1052.5</ele>
        <time>2021-08-18T10:06:11Z</time>
      </trkpt>
      <trkpt lat="46.61957" lon="6.07033">
        <ele>1052.5</ele>
        <time>2021-08-18T10:06:12Z</time>
      </trkpt>
      <trkpt lat="46.61952" lon="6.07038">
        <ele>1052.8</ele>
        <time>2021-08-18T10:06:14Z</time>
      </trkpt>
      <trkpt lat="46.61948" lon="6.07043">
        <ele>1053.1</ele>
        <time>2021-08-18T10:06:15Z</time>
      </trkpt>
      <trkpt lat="46.61944" lon="6.07047">
        <ele>1053.4</ele>
        <time>2021-08-18T10:06:16Z</time>
      </trkpt>
      <trkpt lat="46.6194" lon="6.07052">
        <ele>1053.6</ele>
        <time>2021-08-18T10:06:35Z</time>
      </trkpt>
      <trkpt lat="46.61936" lon="6.07056">
        <ele>1053.9</ele>
        <time>2021-08-18T10:06:36Z</time>
      </trkpt>
      <trkpt lat="46.61932" lon="6.07061">
        <ele>1054.2</ele>
        <time>2021-08-18T10:06:37Z</time>
      </trkpt>
      <trkpt lat="46.6193" lon="6.07065">
        <ele>1054.3</ele>
        <time>2021-08-18T10:06:38Z</time>
      </trkpt>
      <trkpt lat="46.61929" lon="6.07067">
        <ele>1054.4</ele>
        <time>2021-08-18T10:06:39Z</time>
      </trkpt>
      <trkpt lat="46.61927" lon="6.07071">
        <ele>1054.6</ele>
        <time>2021-08-18T10:06:40Z</time>
      </trkpt>
      <trkpt lat="46.61927" lon="6.07073">
        <ele>1054.7</ele>
        <time>2021-08-18T10:06:41Z</time>
      </trkpt>
      <trkpt lat="46.61927" lon="6.07073">
        <ele>1054.7</ele>
        <time>2021-08-18T10:06:42Z</time>
      </trkpt>
      <trkpt lat="46.61927" lon="6.07075">
        <ele>1054.8</ele>
        <time>2021-08-18T10:06:43Z</time>
      </trkpt>
      <trkpt lat="46.61926" lon="6.07079">
        <ele>1054.9</ele>
        <time>2021-08-18T10:06:45Z</time>
      </trkpt>
      <trkpt lat="46.61924" lon="6.07084">
        <ele>1055.1</ele>
        <time>2021-08-18T10:06:46Z</time>
      </trkpt>
      <trkpt lat="46.61924" lon="6.07086">
        <ele>1055.2</ele>
        <time>2021-08-18T10:06:47Z</time>
      </trkpt>
      <trkpt lat="46.61922" lon="6.07086">
        <ele>1055.3</ele>
        <time>2021-08-18T10:06:48Z</time>
      </trkpt>
      <trkpt lat="46.6192" lon="6.07085">
        <ele>1055.4</ele>
        <time>2021-08-18T10:06:49Z</time>
      </trkpt>
      <trkpt lat="46.61919" lon="6.07083">
        <ele>1055.6</ele>
        <time>2021-08-18T10:06:50Z</time>
      </trkpt>
      <trkpt lat="46.61918" lon="6.07081">
        <ele>1055.7</ele>
        <time>2021-08-18T10:06:52Z</time>
      </trkpt>
      <trkpt lat="46.61916" lon="6.0708">
        <ele>1055.8</ele>
        <time>2021-08-18T10:06:54Z</time>
      </trkpt>
      <trkpt lat="46.61915" lon="6.07078">
        <ele>1055.9</ele>
        <time>2021-08-18T10:06:56Z</time>
      </trkpt>
      <trkpt lat="46.61913" lon="6.07077">
        <ele>1056</ele>
        <time>2021-08-18T10:06:58Z</time>
      </trkpt>
      <trkpt lat="46.61912" lon="6.07075">
        <ele>1056.1</ele>
        <time>2021-08-18T10:07:20Z</time>
      </trkpt>
      <trkpt lat="46.61911" lon="6.07074">
        <ele>1056.2</ele>
        <time>2021-08-18T10:07:21Z</time>
      </trkpt>
      <trkpt lat="46.61904" lon="6.07067">
        <ele>1056.7</ele>
        <time>2021-08-18T10:07:23Z</time>
      </trkpt>
      <trkpt lat="46.61902" lon="6.07065">
        <ele>1056.9</ele>
        <time>2021-08-18T10:07:25Z</time>
      </trkpt>
      <trkpt lat="46.61901" lon="6.07065">
        <ele>1057</ele>
        <time>2021-08-18T10:07:27Z</time>
      </trkpt>
      <trkpt lat="46.619" lon="6.07065">
        <ele>1057</ele>
        <time>2021-08-18T10:07:28Z</time>
      </trkpt>
      <trkpt lat="46.61897" lon="6.07063">
        <ele>1057.2</ele>
        <time>2021-08-18T10:07:30Z</time>
      </trkpt>
      <trkpt lat="46.61897" lon="6.07062">
        <ele>1057.3</ele>
        <time>2021-08-18T10:07:31Z</time>
      </trkpt>
      <trkpt lat="46.61896" lon="6.07058">
        <ele>1057.5</ele>
        <time>2021-08-18T10:07:33Z</time>
      </trkpt>
      <trkpt lat="46.61829" lon="6.0722">
        <ele>1066.5</ele>
        <time>2021-08-18T10:10:06Z</time>
      </trkpt>
      <trkpt lat="46.61827" lon="6.0722">
        <ele>1066.7</ele>
        <time>2021-08-18T10:10:07Z</time>
      </trkpt>
      <trkpt lat="46.61826" lon="6.0722">
        <ele>1066.8</ele>
        <time>2021-08-18T10:10:08Z</time>
      </trkpt>
      <trkpt lat="46.6182" lon="6.07219">
        <ele>1067.1</ele>
        <time>2021-08-18T10:10:10Z</time>
      </trkpt>
      <trkpt lat="46.61815" lon="6.07219">
        <ele>1067.4</ele>
        <time>2021-08-18T10:10:12Z</time>
      </trkpt>
      <trkpt lat="46.61814" lon="6.07219">
        <ele>1067.5</ele>
        <time>2021-08-18T10:10:14Z</time>
      </trkpt>
      <trkpt lat="46.61814" lon="6.07219">
        <ele>1067.5</ele>
        <time>2021-08-18T10:10:15Z</time>
      </trkpt>
      <trkpt lat="46.61813" lon="6.07219">
        <ele>1067.6</ele>
        <time>2021-08-18T10:10:16Z</time>
      </trkpt>
      <trkpt lat="46.61813" lon="6.07219">
        <ele>1067.6</ele>
        <time>2021-08-18T10:10:17Z</time>
      </trkpt>
      <trkpt lat="46.61812" lon="6.07219">
        <ele>1067.7</ele>
        <time>2021-08-18T10:10:18Z</time>
      </trkpt>
      <trkpt lat="46.61811" lon="6.07219">
        <ele>1067.7</ele>
        <time>2021-08-18T10:10:19Z</time>
      </trkpt>
      <trkpt lat="46.61809" lon="6.07219">
        <ele>1067.8</ele>
        <time>2021-08-18T10:10:21Z</time>
      </trkpt>
      <trkpt lat="46.61808" lon="6.07219">
        <ele>1067.9</ele>
        <time>2021-08-18T10:10:22Z</time>
      </trkpt>
      <trkpt lat="46.61805" lon="6.07217">
        <ele>1068.1</ele>
        <time>2021-08-18T10:10:24Z</time>
      </trkpt>
      <trkpt lat="46.61804" lon="6.07217">
        <ele>1068.1</ele>
        <time>2021-08-18T10:10:25Z</time>
      </trkpt>
      <trkpt lat="46.61802" lon="6.07217">
        <ele>1068.2</ele>
        <time>2021-08-18T10:10:27Z</time>
      </trkpt>
      <trkpt lat="46.61801" lon="6.07216">
        <ele>1068.3</ele>
        <time>2021-08-18T10:10:28Z</time>
      </trkpt>
      <trkpt lat="46.618" lon="6.07215">
        <ele>1068.4</ele>
        <time>2021-08-18T10:10:29Z</time>
      </trkpt>
      <trkpt lat="46.61798" lon="6.07214">
        <ele>1068.5</ele>
        <time>2021-08-18T10:10:30Z</time>
      </trkpt>
      <trkpt lat="46.61797" lon="6.07214">
        <ele>1068.6</ele>
        <time>2021-08-18T10:10:31Z</time>
      </trkpt>
      <trkpt lat="46.61796" lon="6.07213">
        <ele>1068.7</ele>
        <time>2021-08-18T10:10:33Z</time>
      </trkpt>
      <trkpt lat="46.61762" lon="6.07203">
        <ele>1071.3</ele>
        <time>2021-08-18T10:11:04Z</time>
      </trkpt>
      <trkpt lat="46.6176" lon="6.07203">
        <ele>1071.5</ele>
        <time>2021-08-18T10:11:05Z</time>
      </trkpt>
      <trkpt lat="46.61759" lon="6.07203">
        <ele>1071.5</ele>
        <time>2021-08-18T10:11:06Z</time>
      </trkpt>
      <trkpt lat="46.61757" lon="6.07203">
        <ele>1071.7</ele>
        <time>2021-08-18T10:11:07Z</time>
      </trkpt>
      <trkpt lat="46.61755" lon="6.07203">
        <ele>1071.8</ele>
        <time>2021-08-18T10:11:09Z</time>
      </trkpt>
      <trkpt lat="46.61754" lon="6.07203">
        <ele>1071.9</ele>
        <time>2021-08-18T10:11:10Z</time>
      </trkpt>
      <trkpt lat="46.61753" lon="6.07203">
        <ele>1072</ele>
        <time>2021-08-18T10:11:11Z</time>
      </trkpt>
      <trkpt lat="46.61752" lon="6.07203">
        <ele>1072.1</ele>
        <time>2021-08-18T10:11:12Z</time>
      </trkpt>
      <trkpt lat="46.61748" lon="6.07202">
        <ele>1072.3</ele>
        <time>2021-08-18T10:11:14Z</time>
      </trkpt>
      <trkpt lat="46.61746" lon="6.07202">
        <ele>1072.5</ele>
        <time>2021-08-18T10:11:15Z</time>
      </trkpt>
      <trkpt lat="46.61745" lon="6.07201">
        <ele>1072.6</ele>
        <time>2021-08-18T10:11:17Z</time>
      </trkpt>
      <trkpt lat="46.61744" lon="6.072">
        <ele>1072.6</ele>
        <time>2021-08-18T10:11:18Z</time>
      </trkpt>
      <trkpt lat="46.61743" lon="6.072">
        <ele>1072.7</ele>
        <time>2021-08-18T10:11:20Z</time>
      </trkpt>
      <trkpt lat="46.61743" lon="6.072">
        <ele>1072.7</ele>
        <time>2021-08-18T10:11:21Z</time>
      </trkpt>
      <trkpt lat="46.61741" lon="6.07199">
        <ele>1072.9</ele>
        <time>2021-08-18T10:11:22Z</time>
      </trkpt>
      <trkpt lat="46.61739" lon="6.07198">
        <ele>1073</ele>
        <time>2021-08-18T10:11:23Z</time>
      </trkpt>
      <trkpt lat="46.61738" lon="6.07198">
        <ele>1073.1</ele>
        <time>2021-08-18T10:11:24Z</time>
      </trkpt>
      <trkpt lat="46.61737" lon="6.07198">
        <ele>1073.2</ele>
        <time>2021-08-18T10:11:26Z</time>
      </trkpt>
      <trkpt lat="46.61737" lon="6.07198">
        <ele>1073.2</ele>
        <time>2021-08-18T10:11:27Z</time>
      </trkpt>
      <trkpt lat="46.61737" lon="6.07198">
        <ele>1073.2</ele>
        <time>2021-08-18T10:11:28Z</time>
      </trkpt>
      <trkpt lat="46.61736" lon="6.07198">
        <ele>1073.3</ele>
        <time>2021-08-18T10:11:29Z</time>
      </trkpt>
      <trkpt lat="46.61735" lon="6.07197">
        <ele>1073.3</ele>
        <time>2021-08-18T10:11:30Z</time>
      </trkpt>
      <trkpt lat="46.61734" lon="6.07198">
        <ele>1073.5</ele>
        <time>2021-08-18T10:11:32Z</time>
      </trkpt>
      <trkpt lat="46.61734" lon="6.07198">
        <ele>1073.5</ele>
        <time>2021-08-18T10:11:33Z</time>
      </trkpt>
      <trkpt lat="46.61733" lon="6.07197">
        <ele>1073.6</ele>
        <time>2021-08-18T10:11:34Z</time>
      </trkpt>
      <trkpt lat="46.61732" lon="6.07197">
        <ele>1073.6</ele>
        <time>2021-08-18T10:11:36Z</time>
      </trkpt>
      <trkpt lat="46.61732" lon="6.07197">
        <ele>1073.7</ele>
        <time>2021-08-18T10:11:37Z</time>
      </trkpt>
      <trkpt lat="46.61731" lon="6.07197">
        <ele>1073.7</ele>
        <time>2021-08-18T10:11:38Z</time>
      </trkpt>
      <trkpt lat="46.61731" lon="6.07197">
        <ele>1073.7</ele>
        <time>2021-08-18T10:11:39Z</time>
      </trkpt>
      <trkpt lat="46.61732" lon="6.07198">
        <ele>1073.7</ele>
        <time>2021-08-18T10:11:40Z</time>
      </trkpt>
      <trkpt lat="46.61692" lon="6.07218">
        <ele>1076.5</ele>
        <time>2021-08-18T10:12:23Z</time>
      </trkpt>
      <trkpt lat="46.61684" lon="6.07221">
        <ele>1076.7</ele>
        <time>2021-08-18T10:12:25Z</time>
      </trkpt>
      <trkpt lat="46.61679" lon="6.07224">
        <ele>1076.8</ele>
        <time>2021-08-18T10:12:26Z</time>
      </trkpt>
      <trkpt lat="46.61674" lon="6.07227">
        <ele>1076.9</ele>
        <time>2021-08-18T10:12:27Z</time>
      </trkpt>
      <trkpt lat="46.6167" lon="6.0723">
        <ele>1076.9</ele>
        <time>2021-08-18T10:12:28Z</time>
      </trkpt>
      <trkpt lat="46.61665" lon="6.07232">
        <ele>1076.9</ele>
        <time>2021-08-18T10:12:29Z</time>
      </trkpt>
      <trkpt lat="46.61657" lon="6.0724">
        <ele>1076.9</ele>
        <time>2021-08-18T10:12:31Z</time>
      </trkpt>
      <trkpt lat="46.61653" lon="6.07243">
        <ele>1076.9</ele>
        <time>2021-08-18T10:12:32Z</time>
      </trkpt>
      <trkpt lat="46.61646" lon="6.07247">
        <ele>1076.9</ele>
        <time>2021-08-18T10:12:34Z</time>
      </trkpt>
      <trkpt lat="46.61641" lon="6.07248">
        <ele>1077</ele>
        <time>2021-08-18T10:12:35Z</time>
      </trkpt>
      <trkpt lat="46.61635" lon="6.0725">
        <ele>1077</ele>
        <time>2021-08-18T10:12:37Z</time>
      </trkpt>
      <trkpt lat="46.61631" lon="6.07251">
        <ele>1077.1</ele>
        <time>2021-08-18T10:12:38Z</time>
      </trkpt>
      <trkpt lat="46.61628" lon="6.07253">
        <ele>1077.1</ele>
        <time>2021-08-18T10:12:39Z</time>
      </trkpt>
      <trkpt lat="46.61625" lon="6.07252">
        <ele>1077.2</ele>
        <time>2021-08-18T10:12:40Z</time>
      </trkpt>
      <trkpt lat="46.61622" lon="6.07251">
        <ele>1077.2</ele>
        <time>2021-08-18T10:12:41Z</time>
      </trkpt>
      <trkpt lat="46.61619" lon="6.0725">
        <ele>1077.2</ele>
        <time>2021-08-18T10:12:42Z</time>
      </trkpt>
      <trkpt lat="46.61615" lon="6.0725">
        <ele>1077.3</ele>
        <time>2021-08-18T10:12:44Z</time>
      </trkpt>
      <trkpt lat="46.61611" lon="6.07249">
        <ele>1077.3</ele>
        <time>2021-08-18T10:12:45Z</time>
      </trkpt>
      <trkpt lat="46.6161" lon="6.07249">
        <ele>1077.3</ele>
        <time>2021-08-18T10:12:46Z</time>
      </trkpt>
      <trkpt lat="46.61607" lon="6.0725">
        <ele>1077.3</ele>
        <time>2021-08-18T10:12:47Z</time>
      </trkpt>
      <trkpt lat="46.61606" lon="6.07251">
        <ele>1077.3</ele>
        <time>2021-08-18T10:12:48Z</time>
      </trkpt>
      <trkpt lat="46.61603" lon="6.07253">
        <ele>1077.3</ele>
        <time>2021-08-18T10:12:50Z</time>
      </trkpt>
      <trkpt lat="46.61601" lon="6.07254">
        <ele>1077.3</ele>
        <time>2021-08-18T10:12:51Z</time>
      </trkpt>
      <trkpt lat="46.616" lon="6.07255">
        <ele>1077.3</ele>
        <time>2021-08-18T10:12:52Z</time>
      </trkpt>
      <trkpt lat="46.61595" lon="6.07257">
        <ele>1077.2</ele>
        <time>2021-08-18T10:12:54Z</time>
      </trkpt>
      <trkpt lat="46.61591" lon="6.07259">
        <ele>1077.2</ele>
        <time>2021-08-18T10:12:55Z</time>
      </trkpt>
      <trkpt lat="46.61586" lon="6.07263">
        <ele>1077.1</ele>
        <time>2021-08-18T10:12:57Z</time>
      </trkpt>
      <trkpt lat="46.61581" lon="6.07267">
        <ele>1077</ele>
        <time>2021-08-18T10:12:58Z</time>
      </trkpt>
      <trkpt lat="46.61577" lon="6.0727">
        <ele>1076.9</ele>
        <time>2021-08-18T10:12:59Z</time>
      </trkpt>
      <trkpt lat="46.61573" lon="6.07274">
        <ele>1076.8</ele>
        <time>2021-08-18T10:13:00Z</time>
      </trkpt>
      <trkpt lat="46.61569" lon="6.07279">
        <ele>1076.7</ele>
        <time>2021-08-18T10:13:01Z</time>
      </trkpt>
      <trkpt lat="46.61559" lon="6.07292">
        <ele>1076.4</ele>
        <time>2021-08-18T10:13:03Z</time>
      </trkpt>
      <trkpt lat="46.61555" lon="6.07299">
        <ele>1076.2</ele>
        <time>2021-08-18T10:13:04Z</time>
      </trkpt>
      <trkpt lat="46.61551" lon="6.07305">
        <ele>1075.9</ele>
        <time>2021-08-18T10:13:05Z</time>
      </trkpt>
      <trkpt lat="46.61542" lon="6.07317">
        <ele>1075.4</ele>
        <time>2021-08-18T10:13:07Z</time>
      </trkpt>
      <trkpt lat="46.61538" lon="6.07323">
        <ele>1075</ele>
        <time>2021-08-18T10:13:08Z</time>
      </trkpt>
      <trkpt lat="46.61534" lon="6.07329">
        <ele>1074.6</ele>
        <time>2021-08-18T10:13:09Z</time>
      </trkpt>
      <trkpt lat="46.61525" lon="6.07342">
        <ele>1073.7</ele>
        <time>2021-08-18T10:13:11Z</time>
      </trkpt>
      <trkpt lat="46.61516" lon="6.07356">
        <ele>1072.8</ele>
        <time>2021-08-18T10:13:13Z</time>
      </trkpt>
      <trkpt lat="46.61506" lon="6.0737">
        <ele>1071.8</ele>
        <time>2021-08-18T10:13:15Z</time>
      </trkpt>
      <trkpt lat="46.61501" lon="6.07378">
        <ele>1071.3</ele>
        <time>2021-08-18T10:13:16Z</time>
      </trkpt>
      <trkpt lat="46.61496" lon="6.07385">
        <ele>1070.8</ele>
        <time>2021-08-18T10:13:17Z</time>
      </trkpt>
      <trkpt lat="46.61491" lon="6.07395">
        <ele>1070.3</ele>
        <time>2021-08-18T10:13:18Z</time>
      </trkpt>
      <trkpt lat="46.61479" lon="6.07413">
        <ele>1069.4</ele>
        <time>2021-08-18T10:13:20Z</time>
      </trkpt>
      <trkpt lat="46.61468" lon="6.07433">
        <ele>1068.4</ele>
        <time>2021-08-18T10:13:22Z</time>
      </trkpt>
      <trkpt lat="46.61463" lon="6.07443">
        <ele>1068</ele>
        <time>2021-08-18T10:13:23Z</time>
      </trkpt>
      <trkpt lat="46.61454" lon="6.07461">
        <ele>1067.3</ele>
        <time>2021-08-18T10:13:25Z</time>
      </trkpt>
      <trkpt lat="46.61446" lon="6.0748">
        <ele>1066.9</ele>
        <time>2021-08-18T10:13:27Z</time>
      </trkpt>
      <trkpt lat="46.61443" lon="6.07489">
        <ele>1066.8</ele>
        <time>2021-08-18T10:13:28Z</time>
      </trkpt>
      <trkpt lat="46.61439" lon="6.07497">
        <ele>1066.6</ele>
        <time>2021-08-18T10:13:29Z</time>
      </trkpt>
      <trkpt lat="46.61434" lon="6.07504">
        <ele>1066.4</ele>
        <time>2021-08-18T10:13:30Z</time>
      </trkpt>
      <trkpt lat="46.61427" lon="6.07519">
        <ele>1066.2</ele>
        <time>2021-08-18T10:13:32Z</time>
      </trkpt>
      <trkpt lat="46.61424" lon="6.07527">
        <ele>1066.1</ele>
        <time>2021-08-18T10:13:33Z</time>
      </trkpt>
      <trkpt lat="46.61418" lon="6.07542">
        <ele>1066.1</ele>
        <time>2021-08-18T10:13:35Z</time>
      </trkpt>
      <trkpt lat="46.61415" lon="6.07549">
        <ele>1066.1</ele>
        <time>2021-08-18T10:13:36Z</time>
      </trkpt>
      <trkpt lat="46.61412" lon="6.07565">
        <ele>1066.2</ele>
        <time>2021-08-18T10:13:38Z</time>
      </trkpt>
      <trkpt lat="46.6141" lon="6.07573">
        <ele>1066.3</ele>
        <time>2021-08-18T10:13:39Z</time>
      </trkpt>
      <trkpt lat="46.61405" lon="6.07587">
        <ele>1066.3</ele>
        <time>2021-08-18T10:13:41Z</time>
      </trkpt>
      <trkpt lat="46.61402" lon="6.07592">
        <ele>1066.4</ele>
        <time>2021-08-18T10:13:42Z</time>
      </trkpt>
      <trkpt lat="46.61397" lon="6.07603">
        <ele>1066.4</ele>
        <time>2021-08-18T10:13:44Z</time>
      </trkpt>
      <trkpt lat="46.61394" lon="6.07609">
        <ele>1066.5</ele>
        <time>2021-08-18T10:13:45Z</time>
      </trkpt>
      <trkpt lat="46.61388" lon="6.07617">
        <ele>1066.5</ele>
        <time>2021-08-18T10:13:47Z</time>
      </trkpt>
      <trkpt lat="46.61385" lon="6.0762">
        <ele>1066.5</ele>
        <time>2021-08-18T10:13:48Z</time>
      </trkpt>
      <trkpt lat="46.61383" lon="6.07625">
        <ele>1066.5</ele>
        <time>2021-08-18T10:13:49Z</time>
      </trkpt>
      <trkpt lat="46.61379" lon="6.07636">
        <ele>1066.5</ele>
        <time>2021-08-18T10:13:51Z</time>
      </trkpt>
      <trkpt lat="46.61377" lon="6.07642">
        <ele>1066.5</ele>
        <time>2021-08-18T10:13:52Z</time>
      </trkpt>
      <trkpt lat="46.61373" lon="6.07651">
        <ele>1066.5</ele>
        <time>2021-08-18T10:13:54Z</time>
      </trkpt>
      <trkpt lat="46.6137" lon="6.0765">
        <ele>1066.4</ele>
        <time>2021-08-18T10:13:56Z</time>
      </trkpt>
      <trkpt lat="46.61367" lon="6.07654">
        <ele>1066.4</ele>
        <time>2021-08-18T10:13:57Z</time>
      </trkpt>
      <trkpt lat="46.61363" lon="6.07659">
        <ele>1066.4</ele>
        <time>2021-08-18T10:13:58Z</time>
      </trkpt>
      <trkpt lat="46.6136" lon="6.07664">
        <ele>1066.4</ele>
        <time>2021-08-18T10:13:59Z</time>
      </trkpt>
      <trkpt lat="46.61354" lon="6.07672">
        <ele>1066.4</ele>
        <time>2021-08-18T10:14:00Z</time>
      </trkpt>
      <trkpt lat="46.61351" lon="6.07677">
        <ele>1066.4</ele>
        <time>2021-08-18T10:14:01Z</time>
      </trkpt>
      <trkpt lat="46.61342" lon="6.07689">
        <ele>1066.4</ele>
        <time>2021-08-18T10:14:03Z</time>
      </trkpt>
      <trkpt lat="46.61335" lon="6.07698">
        <ele>1066.5</ele>
        <time>2021-08-18T10:14:05Z</time>
      </trkpt>
      <trkpt lat="46.61332" lon="6.077">
        <ele>1066.5</ele>
        <time>2021-08-18T10:14:07Z</time>
      </trkpt>
      <trkpt lat="46.6133" lon="6.07703">
        <ele>1066.6</ele>
        <time>2021-08-18T10:14:08Z</time>
      </trkpt>
      <trkpt lat="46.61327" lon="6.07707">
        <ele>1066.7</ele>
        <time>2021-08-18T10:14:09Z</time>
      </trkpt>
      <trkpt lat="46.61324" lon="6.07711">
        <ele>1066.7</ele>
        <time>2021-08-18T10:14:10Z</time>
      </trkpt>
      <trkpt lat="46.6132" lon="6.07716">
        <ele>1066.8</ele>
        <time>2021-08-18T10:14:11Z</time>
      </trkpt>
      <trkpt lat="46.61317" lon="6.0772">
        <ele>1066.9</ele>
        <time>2021-08-18T10:14:12Z</time>
      </trkpt>
      <trkpt lat="46.61313" lon="6.07728">
        <ele>1067</ele>
        <time>2021-08-18T10:14:13Z</time>
      </trkpt>
      <trkpt lat="46.61308" lon="6.07737">
        <ele>1067</ele>
        <time>2021-08-18T10:14:15Z</time>
      </trkpt>
      <trkpt lat="46.61305" lon="6.07743">
        <ele>1067.1</ele>
        <time>2021-08-18T10:14:16Z</time>
      </trkpt>
      <trkpt lat="46.61302" lon="6.07748">
        <ele>1067.1</ele>
        <time>2021-08-18T10:14:17Z</time>
      </trkpt>
      <trkpt lat="46.61299" lon="6.07753">
        <ele>1067.1</ele>
        <time>2021-08-18T10:14:18Z</time>
      </trkpt>
      <trkpt lat="46.61296" lon="6.07758">
        <ele>1067.1</ele>
        <time>2021-08-18T10:14:19Z</time>
      </trkpt>
      <trkpt lat="46.61293" lon="6.07765">
        <ele>1067.2</ele>
        <time>2021-08-18T10:14:21Z</time>
      </trkpt>
      <trkpt lat="46.61291" lon="6.07771">
        <ele>1067.2</ele>
        <time>2021-08-18T10:14:22Z</time>
      </trkpt>
      <trkpt lat="46.61288" lon="6.07778">
        <ele>1067.2</ele>
        <time>2021-08-18T10:14:23Z</time>
      </trkpt>
      <trkpt lat="46.61287" lon="6.07783">
        <ele>1067.2</ele>
        <time>2021-08-18T10:14:24Z</time>
      </trkpt>
      <trkpt lat="46.61285" lon="6.0779">
        <ele>1067.2</ele>
        <time>2021-08-18T10:14:25Z</time>
      </trkpt>
      <trkpt lat="46.61284" lon="6.07796">
        <ele>1067.3</ele>
        <time>2021-08-18T10:14:26Z</time>
      </trkpt>
      <trkpt lat="46.61283" lon="6.07802">
        <ele>1067.3</ele>
        <time>2021-08-18T10:14:27Z</time>
      </trkpt>
      <trkpt lat="46.61282" lon="6.07808">
        <ele>1067.3</ele>
        <time>2021-08-18T10:14:28Z</time>
      </trkpt>
      <trkpt lat="46.61281" lon="6.07817">
        <ele>1067.3</ele>
        <time>2021-08-18T10:14:30Z</time>
      </trkpt>
      <trkpt lat="46.6128" lon="6.07826">
        <ele>1067.3</ele>
        <time>2021-08-18T10:14:31Z</time>
      </trkpt>
      <trkpt lat="46.61279" lon="6.07833">
        <ele>1067.2</ele>
        <time>2021-08-18T10:14:33Z</time>
      </trkpt>
      <trkpt lat="46.61277" lon="6.0784">
        <ele>1067.2</ele>
        <time>2021-08-18T10:14:34Z</time>
      </trkpt>
      <trkpt lat="46.61276" lon="6.07848">
        <ele>1067.2</ele>
        <time>2021-08-18T10:14:35Z</time>
      </trkpt>
      <trkpt lat="46.61275" lon="6.07855">
        <ele>1067.2</ele>
        <time>2021-08-18T10:14:36Z</time>
      </trkpt>
      <trkpt lat="46.61275" lon="6.07866">
        <ele>1067.2</ele>
        <time>2021-08-18T10:14:38Z</time>
      </trkpt>
      <trkpt lat="46.61274" lon="6.07873">
        <ele>1067.2</ele>
        <time>2021-08-18T10:14:39Z</time>
      </trkpt>
      <trkpt lat="46.61271" lon="6.07887">
        <ele>1067.1</ele>
        <time>2021-08-18T10:14:41Z</time>
      </trkpt>
      <trkpt lat="46.61269" lon="6.07901">
        <ele>1067</ele>
        <time>2021-08-18T10:14:43Z</time>
      </trkpt>
      <trkpt lat="46.61267" lon="6.0791">
        <ele>1067</ele>
        <time>2021-08-18T10:14:44Z</time>
      </trkpt>
      <trkpt lat="46.61263" lon="6.0792">
        <ele>1067</ele>
        <time>2021-08-18T10:14:46Z</time>
      </trkpt>
      <trkpt lat="46.6126" lon="6.07926">
        <ele>1066.9</ele>
        <time>2021-08-18T10:14:47Z</time>
      </trkpt>
      <trkpt lat="46.61257" lon="6.07932">
        <ele>1066.9</ele>
        <time>2021-08-18T10:14:48Z</time>
      </trkpt>
      <trkpt lat="46.61255" lon="6.07938">
        <ele>1066.9</ele>
        <time>2021-08-18T10:14:49Z</time>
      </trkpt>
      <trkpt lat="46.61251" lon="6.07947">
        <ele>1066.8</ele>
        <time>2021-08-18T10:14:51Z</time>
      </trkpt>
      <trkpt lat="46.61248" lon="6.07951">
        <ele>1066.8</ele>
        <time>2021-08-18T10:14:52Z</time>
      </trkpt>
      <trkpt lat="46.61244" lon="6.07958">
        <ele>1066.7</ele>
        <time>2021-08-18T10:14:54Z</time>
      </trkpt>
      <trkpt lat="46.61241" lon="6.07964">
        <ele>1066.7</ele>
        <time>2021-08-18T10:14:55Z</time>
      </trkpt>
      <trkpt lat="46.61239" lon="6.0797">
        <ele>1066.6</ele>
        <time>2021-08-18T10:14:57Z</time>
      </trkpt>
      <trkpt lat="46.61236" lon="6.07976">
        <ele>1066.5</ele>
        <time>2021-08-18T10:14:58Z</time>
      </trkpt>
      <trkpt lat="46.61233" lon="6.07983">
        <ele>1066.5</ele>
        <time>2021-08-18T10:15:00Z</time>
      </trkpt>
      <trkpt lat="46.61229" lon="6.07989">
        <ele>1066.4</ele>
        <time>2021-08-18T10:15:01Z</time>
      </trkpt>
      <trkpt lat="46.61226" lon="6.07996">
        <ele>1066.3</ele>
        <time>2021-08-18T10:15:02Z</time>
      </trkpt>
      <trkpt lat="46.61223" lon="6.08004">
        <ele>1066.2</ele>
        <time>2021-08-18T10:15:04Z</time>
      </trkpt>
      <trkpt lat="46.6122" lon="6.08012">
        <ele>1066</ele>
        <time>2021-08-18T10:15:05Z</time>
      </trkpt>
      <trkpt lat="46.61217" lon="6.08023">
        <ele>1065.8</ele>
        <time>2021-08-18T10:15:06Z</time>
      </trkpt>
      <trkpt lat="46.61215" lon="6.08032">
        <ele>1065.6</ele>
        <time>2021-08-18T10:15:07Z</time>
      </trkpt>
      <trkpt lat="46.61213" lon="6.0805">
        <ele>1065.1</ele>
        <time>2021-08-18T10:15:09Z</time>
      </trkpt>
      <trkpt lat="46.61213" lon="6.08059">
        <ele>1064.9</ele>
        <time>2021-08-18T10:15:10Z</time>
      </trkpt>
      <trkpt lat="46.61212" lon="6.08068">
        <ele>1064.7</ele>
        <time>2021-08-18T10:15:11Z</time>
      </trkpt>
      <trkpt lat="46.61212" lon="6.08087">
        <ele>1064.3</ele>
        <time>2021-08-18T10:15:13Z</time>
      </trkpt>
      <trkpt lat="46.61213" lon="6.08097">
        <ele>1064.1</ele>
        <time>2021-08-18T10:15:14Z</time>
      </trkpt>
      <trkpt lat="46.61214" lon="6.08108">
        <ele>1063.9</ele>
        <time>2021-08-18T10:15:15Z</time>
      </trkpt>
      <trkpt lat="46.61214" lon="6.08131">
        <ele>1063.5</ele>
        <time>2021-08-18T10:15:17Z</time>
      </trkpt>
      <trkpt lat="46.61214" lon="6.08151">
        <ele>1063.5</ele>
        <time>2021-08-18T10:15:19Z</time>
      </trkpt>
      <trkpt lat="46.61215" lon="6.0816">
        <ele>1063.6</ele>
        <time>2021-08-18T10:15:20Z</time>
      </trkpt>
      <trkpt lat="46.61214" lon="6.08175">
        <ele>1064</ele>
        <time>2021-08-18T10:15:22Z</time>
      </trkpt>
      <trkpt lat="46.6121" lon="6.08182">
        <ele>1064.4</ele>
        <time>2021-08-18T10:15:24Z</time>
      </trkpt>
      <trkpt lat="46.61208" lon="6.08185">
        <ele>1064.6</ele>
        <time>2021-08-18T10:15:25Z</time>
      </trkpt>
      <trkpt lat="46.61204" lon="6.08191">
        <ele>1064.9</ele>
        <time>2021-08-18T10:15:27Z</time>
      </trkpt>
      <trkpt lat="46.61201" lon="6.08195">
        <ele>1065.1</ele>
        <time>2021-08-18T10:15:29Z</time>
      </trkpt>
      <trkpt lat="46.61198" lon="6.08198">
        <ele>1065.3</ele>
        <time>2021-08-18T10:15:30Z</time>
      </trkpt>
      <trkpt lat="46.61197" lon="6.082">
        <ele>1065.3</ele>
        <time>2021-08-18T10:15:31Z</time>
      </trkpt>
      <trkpt lat="46.61195" lon="6.08206">
        <ele>1065.5</ele>
        <time>2021-08-18T10:15:32Z</time>
      </trkpt>
      <trkpt lat="46.61194" lon="6.08214">
        <ele>1065.7</ele>
        <time>2021-08-18T10:15:34Z</time>
      </trkpt>
      <trkpt lat="46.61193" lon="6.08221">
        <ele>1065.8</ele>
        <time>2021-08-18T10:15:35Z</time>
      </trkpt>
      <trkpt lat="46.61192" lon="6.08227">
        <ele>1065.9</ele>
        <time>2021-08-18T10:15:37Z</time>
      </trkpt>
      <trkpt lat="46.61191" lon="6.08232">
        <ele>1066</ele>
        <time>2021-08-18T10:15:38Z</time>
      </trkpt>
      <trkpt lat="46.61191" lon="6.08238">
        <ele>1066.1</ele>
        <time>2021-08-18T10:15:40Z</time>
      </trkpt>
      <trkpt lat="46.6119" lon="6.08241">
        <ele>1066.1</ele>
        <time>2021-08-18T10:15:41Z</time>
      </trkpt>
      <trkpt lat="46.61188" lon="6.08244">
        <ele>1066.1</ele>
        <time>2021-08-18T10:15:43Z</time>
      </trkpt>
      <trkpt lat="46.61186" lon="6.08249">
        <ele>1066.2</ele>
        <time>2021-08-18T10:15:44Z</time>
      </trkpt>
      <trkpt lat="46.61185" lon="6.08254">
        <ele>1066.2</ele>
        <time>2021-08-18T10:15:46Z</time>
      </trkpt>
      <trkpt lat="46.61183" lon="6.08257">
        <ele>1066.3</ele>
        <time>2021-08-18T10:15:47Z</time>
      </trkpt>
      <trkpt lat="46.61181" lon="6.08263">
        <ele>1066.3</ele>
        <time>2021-08-18T10:15:49Z</time>
      </trkpt>
      <trkpt lat="46.61179" lon="6.08267">
        <ele>1066.4</ele>
        <time>2021-08-18T10:15:51Z</time>
      </trkpt>
      <trkpt lat="46.61177" lon="6.0827">
        <ele>1066.4</ele>
        <time>2021-08-18T10:15:52Z</time>
      </trkpt>
      <trkpt lat="46.61175" lon="6.08272">
        <ele>1066.4</ele>
        <time>2021-08-18T10:15:53Z</time>
      </trkpt>
      <trkpt lat="46.61172" lon="6.08276">
        <ele>1066.5</ele>
        <time>2021-08-18T10:15:55Z</time>
      </trkpt>
      <trkpt lat="46.6117" lon="6.08279">
        <ele>1066.5</ele>
        <time>2021-08-18T10:15:56Z</time>
      </trkpt>
      <trkpt lat="46.61167" lon="6.08284">
        <ele>1066.5</ele>
        <time>2021-08-18T10:15:58Z</time>
      </trkpt>
      <trkpt lat="46.61165" lon="6.08288">
        <ele>1066.5</ele>
        <time>2021-08-18T10:15:59Z</time>
      </trkpt>
      <trkpt lat="46.61164" lon="6.08289">
        <ele>1066.5</ele>
        <time>2021-08-18T10:16:00Z</time>
      </trkpt>
      <trkpt lat="46.61161" lon="6.08292">
        <ele>1066.5</ele>
        <time>2021-08-18T10:16:02Z</time>
      </trkpt>
      <trkpt lat="46.61158" lon="6.08296">
        <ele>1066.5</ele>
        <time>2021-08-18T10:16:03Z</time>
      </trkpt>
      <trkpt lat="46.61155" lon="6.083">
        <ele>1066.5</ele>
        <time>2021-08-18T10:16:04Z</time>
      </trkpt>
      <trkpt lat="46.61154" lon="6.08303">
        <ele>1066.4</ele>
        <time>2021-08-18T10:16:05Z</time>
      </trkpt>
      <trkpt lat="46.61151" lon="6.08307">
        <ele>1066.4</ele>
        <time>2021-08-18T10:16:07Z</time>
      </trkpt>
      <trkpt lat="46.61148" lon="6.08311">
        <ele>1066.4</ele>
        <time>2021-08-18T10:16:08Z</time>
      </trkpt>
      <trkpt lat="46.61145" lon="6.08315">
        <ele>1066.3</ele>
        <time>2021-08-18T10:16:09Z</time>
      </trkpt>
      <trkpt lat="46.61143" lon="6.08319">
        <ele>1066.3</ele>
        <time>2021-08-18T10:16:10Z</time>
      </trkpt>
      <trkpt lat="46.61141" lon="6.08323">
        <ele>1066.3</ele>
        <time>2021-08-18T10:16:11Z</time>
      </trkpt>
      <trkpt lat="46.61135" lon="6.0833">
        <ele>1066.2</ele>
        <time>2021-08-18T10:16:13Z</time>
      </trkpt>
      <trkpt lat="46.61132" lon="6.08335">
        <ele>1066.1</ele>
        <time>2021-08-18T10:16:14Z</time>
      </trkpt>
      <trkpt lat="46.61129" lon="6.08341">
        <ele>1065.9</ele>
        <time>2021-08-18T10:16:15Z</time>
      </trkpt>
      <trkpt lat="46.61125" lon="6.08347">
        <ele>1065.8</ele>
        <time>2021-08-18T10:16:16Z</time>
      </trkpt>
      <trkpt lat="46.61122" lon="6.08352">
        <ele>1065.6</ele>
        <time>2021-08-18T10:16:17Z</time>
      </trkpt>
      <trkpt lat="46.61115" lon="6.08362">
        <ele>1065.3</ele>
        <time>2021-08-18T10:16:19Z</time>
      </trkpt>
      <trkpt lat="46.61109" lon="6.08373">
        <ele>1065</ele>
        <time>2021-08-18T10:16:21Z</time>
      </trkpt>
      <trkpt lat="46.61105" lon="6.08379">
        <ele>1064.8</ele>
        <time>2021-08-18T10:16:22Z</time>
      </trkpt>
      <trkpt lat="46.61102" lon="6.08385">
        <ele>1064.6</ele>
        <time>2021-08-18T10:16:23Z</time>
      </trkpt>
      <trkpt lat="46.61095" lon="6.08397">
        <ele>1064.2</ele>
        <time>2021-08-18T10:16:25Z</time>
      </trkpt>
      <trkpt lat="46.6109" lon="6.08408">
        <ele>1063.9</ele>
        <time>2021-08-18T10:16:27Z</time>
      </trkpt>
      <trkpt lat="46.61088" lon="6.08414">
        <ele>1063.7</ele>
        <time>2021-08-18T10:16:28Z</time>
      </trkpt>
      <trkpt lat="46.61085" lon="6.0842">
        <ele>1063.6</ele>
        <time>2021-08-18T10:16:29Z</time>
      </trkpt>
      <trkpt lat="46.61078" lon="6.08432">
        <ele>1063.2</ele>
        <time>2021-08-18T10:16:31Z</time>
      </trkpt>
      <trkpt lat="46.6107" lon="6.08442">
        <ele>1062.9</ele>
        <time>2021-08-18T10:16:33Z</time>
      </trkpt>
      <trkpt lat="46.61066" lon="6.08447">
        <ele>1062.8</ele>
        <time>2021-08-18T10:16:34Z</time>
      </trkpt>
      <trkpt lat="46.61062" lon="6.08451">
        <ele>1062.6</ele>
        <time>2021-08-18T10:16:35Z</time>
      </trkpt>
      <trkpt lat="46.61057" lon="6.08462">
        <ele>1062.4</ele>
        <time>2021-08-18T10:16:37Z</time>
      </trkpt>
      <trkpt lat="46.61055" lon="6.08466">
        <ele>1062.2</ele>
        <time>2021-08-18T10:16:38Z</time>
      </trkpt>
      <trkpt lat="46.61052" lon="6.0848">
        <ele>1061.9</ele>
        <time>2021-08-18T10:16:40Z</time>
      </trkpt>
      <trkpt lat="46.61052" lon="6.08485">
        <ele>1061.7</ele>
        <time>2021-08-18T10:16:41Z</time>
      </trkpt>
      <trkpt lat="46.61047" lon="6.085">
        <ele>1061.2</ele>
        <time>2021-08-18T10:16:43Z</time>
      </trkpt>
      <trkpt lat="46.61043" lon="6.08507">
        <ele>1060.9</ele>
        <time>2021-08-18T10:16:44Z</time>
      </trkpt>
      <trkpt lat="46.61038" lon="6.08513">
        <ele>1060.6</ele>
        <time>2021-08-18T10:16:45Z</time>
      </trkpt>
      <trkpt lat="46.61035" lon="6.08519">
        <ele>1060.4</ele>
        <time>2021-08-18T10:16:46Z</time>
      </trkpt>
      <trkpt lat="46.61031" lon="6.08525">
        <ele>1060.1</ele>
        <time>2021-08-18T10:16:47Z</time>
      </trkpt>
      <trkpt lat="46.61023" lon="6.08536">
        <ele>1059.7</ele>
        <time>2021-08-18T10:16:49Z</time>
      </trkpt>
      <trkpt lat="46.61016" lon="6.08549">
        <ele>1059.3</ele>
        <time>2021-08-18T10:16:51Z</time>
      </trkpt>
      <trkpt lat="46.61006" lon="6.08559">
        <ele>1058.9</ele>
        <time>2021-08-18T10:16:53Z</time>
      </trkpt>
      <trkpt lat="46.61001" lon="6.08563">
        <ele>1058.8</ele>
        <time>2021-08-18T10:16:54Z</time>
      </trkpt>
      <trkpt lat="46.60997" lon="6.08567">
        <ele>1058.8</ele>
        <time>2021-08-18T10:16:55Z</time>
      </trkpt>
      <trkpt lat="46.60987" lon="6.08571">
        <ele>1058.8</ele>
        <time>2021-08-18T10:16:57Z</time>
      </trkpt>
      <trkpt lat="46.60983" lon="6.08572">
        <ele>1058.9</ele>
        <time>2021-08-18T10:16:58Z</time>
      </trkpt>
      <trkpt lat="46.60981" lon="6.08573">
        <ele>1058.9</ele>
        <time>2021-08-18T10:16:59Z</time>
      </trkpt>
      <trkpt lat="46.60975" lon="6.08576">
        <ele>1058.9</ele>
        <time>2021-08-18T10:17:01Z</time>
      </trkpt>
      <trkpt lat="46.60973" lon="6.08577">
        <ele>1058.8</ele>
        <time>2021-08-18T10:17:02Z</time>
      </trkpt>
      <trkpt lat="46.60969" lon="6.08578">
        <ele>1058.8</ele>
        <time>2021-08-18T10:17:04Z</time>
      </trkpt>
      <trkpt lat="46.60967" lon="6.08578">
        <ele>1058.8</ele>
        <time>2021-08-18T10:17:05Z</time>
      </trkpt>
      <trkpt lat="46.60964" lon="6.08576">
        <ele>1058.7</ele>
        <time>2021-08-18T10:17:07Z</time>
      </trkpt>
      <trkpt lat="46.60962" lon="6.08577">
        <ele>1058.7</ele>
        <time>2021-08-18T10:17:08Z</time>
      </trkpt>
      <trkpt lat="46.60959" lon="6.08577">
        <ele>1058.7</ele>
        <time>2021-08-18T10:17:10Z</time>
      </trkpt>
      <trkpt lat="46.60957" lon="6.08578">
        <ele>1058.6</ele>
        <time>2021-08-18T10:17:11Z</time>
      </trkpt>
      <trkpt lat="46.60955" lon="6.08579">
        <ele>1058.6</ele>
        <time>2021-08-18T10:17:12Z</time>
      </trkpt>
      <trkpt lat="46.60954" lon="6.08579">
        <ele>1058.6</ele>
        <time>2021-08-18T10:17:13Z</time>
      </trkpt>
      <trkpt lat="46.60949" lon="6.0858">
        <ele>1058.6</ele>
        <time>2021-08-18T10:17:15Z</time>
      </trkpt>
      <trkpt lat="46.60946" lon="6.08582">
        <ele>1058.6</ele>
        <time>2021-08-18T10:17:17Z</time>
      </trkpt>
      <trkpt lat="46.60944" lon="6.08584">
        <ele>1058.6</ele>
        <time>2021-08-18T10:17:18Z</time>
      </trkpt>
      <trkpt lat="46.60944" lon="6.08585">
        <ele>1058.6</ele>
        <time>2021-08-18T10:17:19Z</time>
      </trkpt>
      <trkpt lat="46.60943" lon="6.08584">
        <ele>1058.6</ele>
        <time>2021-08-18T10:17:20Z</time>
      </trkpt>
      <trkpt lat="46.60944" lon="6.08584">
        <ele>1058.6</ele>
        <time>2021-08-18T10:17:21Z</time>
      </trkpt>
      <trkpt lat="46.60945" lon="6.08585">
        <ele>1058.6</ele>
        <time>2021-08-18T10:17:22Z</time>
      </trkpt>
      <trkpt lat="46.60946" lon="6.08584">
        <ele>1058.6</ele>
        <time>2021-08-18T10:17:23Z</time>
      </trkpt>
      <trkpt lat="46.60949" lon="6.08581">
        <ele>1058.6</ele>
        <time>2021-08-18T10:17:25Z</time>
      </trkpt>
      <trkpt lat="46.60955" lon="6.08577">
        <ele>1058.7</ele>
        <time>2021-08-18T10:17:26Z</time>
      </trkpt>
      <trkpt lat="46.60959" lon="6.08575">
        <ele>1058.7</ele>
        <time>2021-08-18T10:17:28Z</time>
      </trkpt>
      <trkpt lat="46.60963" lon="6.08574">
        <ele>1058.8</ele>
        <time>2021-08-18T10:17:29Z</time>
      </trkpt>
      <trkpt lat="46.60967" lon="6.08574">
        <ele>1058.8</ele>
        <time>2021-08-18T10:17:30Z</time>
      </trkpt>
      <trkpt lat="46.60972" lon="6.08574">
        <ele>1058.8</ele>
        <time>2021-08-18T10:17:31Z</time>
      </trkpt>
      <trkpt lat="46.60978" lon="6.08574">
        <ele>1058.9</ele>
        <time>2021-08-18T10:17:32Z</time>
      </trkpt>
      <trkpt lat="46.60983" lon="6.08573">
        <ele>1058.9</ele>
        <time>2021-08-18T10:17:34Z</time>
      </trkpt>
      <trkpt lat="46.60988" lon="6.08572">
        <ele>1058.8</ele>
        <time>2021-08-18T10:17:35Z</time>
      </trkpt>
      <trkpt lat="46.60993" lon="6.0857">
        <ele>1058.8</ele>
        <time>2021-08-18T10:17:36Z</time>
      </trkpt>
      <trkpt lat="46.60998" lon="6.08568">
        <ele>1058.8</ele>
        <time>2021-08-18T10:17:38Z</time>
      </trkpt>
      <trkpt lat="46.61002" lon="6.08564">
        <ele>1058.8</ele>
        <time>2021-08-18T10:17:39Z</time>
      </trkpt>
      <trkpt lat="46.61004" lon="6.08561">
        <ele>1058.8</ele>
        <time>2021-08-18T10:17:40Z</time>
      </trkpt>
      <trkpt lat="46.61005" lon="6.08558">
        <ele>1058.9</ele>
        <time>2021-08-18T10:17:41Z</time>
      </trkpt>
      <trkpt lat="46.61005" lon="6.08556">
        <ele>1058.9</ele>
        <time>2021-08-18T10:17:42Z</time>
      </trkpt>
      <trkpt lat="46.61004" lon="6.08555">
        <ele>1058.9</ele>
        <time>2021-08-18T10:17:43Z</time>
      </trkpt>
      <trkpt lat="46.61004" lon="6.08552">
        <ele>1059</ele>
        <time>2021-08-18T10:17:45Z</time>
      </trkpt>
      <trkpt lat="46.61004" lon="6.08551">
        <ele>1059</ele>
        <time>2021-08-18T10:17:46Z</time>
      </trkpt>
      <trkpt lat="46.61004" lon="6.08551">
        <ele>1059</ele>
        <time>2021-08-18T10:17:47Z</time>
      </trkpt>
      <trkpt lat="46.61004" lon="6.08551">
        <ele>1059</ele>
        <time>2021-08-18T10:17:49Z</time>
      </trkpt>
      <trkpt lat="46.61004" lon="6.08551">
        <ele>1059</ele>
        <time>2021-08-18T10:17:50Z</time>
      </trkpt>
      <trkpt lat="46.61004" lon="6.08551">
        <ele>1059</ele>
        <time>2021-08-18T10:17:51Z</time>
      </trkpt>
      <trkpt lat="46.61007" lon="6.08544">
        <ele>1059.1</ele>
        <time>2021-08-18T10:18:13Z</time>
      </trkpt>
      <trkpt lat="46.61014" lon="6.0854">
        <ele>1059.4</ele>
        <time>2021-08-18T10:18:15Z</time>
      </trkpt>
      <trkpt lat="46.61017" lon="6.08538">
        <ele>1059.3</ele>
        <time>2021-08-18T10:18:16Z</time>
      </trkpt>
      <trkpt lat="46.61019" lon="6.08537">
        <ele>1059.3</ele>
        <time>2021-08-18T10:18:17Z</time>
      </trkpt>
      <trkpt lat="46.61021" lon="6.08536">
        <ele>1059.3</ele>
        <time>2021-08-18T10:18:18Z</time>
      </trkpt>
      <trkpt lat="46.61018" lon="6.08538">
        <ele>1059.2</ele>
        <time>2021-08-18T10:18:20Z</time>
      </trkpt>
      <trkpt lat="46.61015" lon="6.08541">
        <ele>1059.2</ele>
        <time>2021-08-18T10:18:21Z</time>
      </trkpt>
      <trkpt lat="46.61012" lon="6.08543">
        <ele>1059.1</ele>
        <time>2021-08-18T10:18:23Z</time>
      </trkpt>
      <trkpt lat="46.61009" lon="6.08546">
        <ele>1059.1</ele>
        <time>2021-08-18T10:18:24Z</time>
      </trkpt>
      <trkpt lat="46.61007" lon="6.08548">
        <ele>1059</ele>
        <time>2021-08-18T10:18:26Z</time>
      </trkpt>
      <trkpt lat="46.61004" lon="6.08551">
        <ele>1058.9</ele>
        <time>2021-08-18T10:18:28Z</time>
      </trkpt>
      <trkpt lat="46.61001" lon="6.08553">
        <ele>1058.8</ele>
        <time>2021-08-18T10:19:33Z</time>
      </trkpt>
      <trkpt lat="46.60998" lon="6.08556">
        <ele>1058.8</ele>
        <time>2021-08-18T10:19:34Z</time>
      </trkpt>
      <trkpt lat="46.60993" lon="6.08559">
        <ele>1058.8</ele>
        <time>2021-08-18T10:19:35Z</time>
      </trkpt>
      <trkpt lat="46.60985" lon="6.08562">
        <ele>1058.8</ele>
        <time>2021-08-18T10:19:37Z</time>
      </trkpt>
      <trkpt lat="46.6098" lon="6.08565">
        <ele>1058.9</ele>
        <time>2021-08-18T10:19:38Z</time>
      </trkpt>
      <trkpt lat="46.60976" lon="6.08567">
        <ele>1058.9</ele>
        <time>2021-08-18T10:19:39Z</time>
      </trkpt>
      <trkpt lat="46.60972" lon="6.08569">
        <ele>1058.8</ele>
        <time>2021-08-18T10:19:40Z</time>
      </trkpt>
      <trkpt lat="46.60968" lon="6.0857">
        <ele>1058.8</ele>
        <time>2021-08-18T10:19:41Z</time>
      </trkpt>
      <trkpt lat="46.60965" lon="6.08572">
        <ele>1058.8</ele>
        <time>2021-08-18T10:19:42Z</time>
      </trkpt>
      <trkpt lat="46.60962" lon="6.08574">
        <ele>1058.7</ele>
        <time>2021-08-18T10:19:43Z</time>
      </trkpt>
      <trkpt lat="46.60956" lon="6.08577">
        <ele>1058.7</ele>
        <time>2021-08-18T10:19:45Z</time>
      </trkpt>
      <trkpt lat="46.60953" lon="6.08578">
        <ele>1058.6</ele>
        <time>2021-08-18T10:19:46Z</time>
      </trkpt>
      <trkpt lat="46.60948" lon="6.0858">
        <ele>1058.6</ele>
        <time>2021-08-18T10:19:48Z</time>
      </trkpt>
      <trkpt lat="46.60945" lon="6.08581">
        <ele>1058.6</ele>
        <time>2021-08-18T10:19:49Z</time>
      </trkpt>
      <trkpt lat="46.60941" lon="6.08582">
        <ele>1058.6</ele>
        <time>2021-08-18T10:19:50Z</time>
      </trkpt>
      <trkpt lat="46.60939" lon="6.08584">
        <ele>1058.6</ele>
        <time>2021-08-18T10:19:51Z</time>
      </trkpt>
      <trkpt lat="46.60935" lon="6.08586">
        <ele>1058.7</ele>
        <time>2021-08-18T10:19:52Z</time>
      </trkpt>
      <trkpt lat="46.60933" lon="6.08587">
        <ele>1058.7</ele>
        <time>2021-08-18T10:19:53Z</time>
      </trkpt>
      <trkpt lat="46.60929" lon="6.08591">
        <ele>1058.7</ele>
        <time>2021-08-18T10:19:55Z</time>
      </trkpt>
      <trkpt lat="46.60926" lon="6.08593">
        <ele>1058.8</ele>
        <time>2021-08-18T10:19:56Z</time>
      </trkpt>
      <trkpt lat="46.60924" lon="6.08594">
        <ele>1058.8</ele>
        <time>2021-08-18T10:19:57Z</time>
      </trkpt>
      <trkpt lat="46.60921" lon="6.08597">
        <ele>1058.9</ele>
        <time>2021-08-18T10:19:58Z</time>
      </trkpt>
      <trkpt lat="46.6092" lon="6.08597">
        <ele>1058.9</ele>
        <time>2021-08-18T10:19:59Z</time>
      </trkpt>
      <trkpt lat="46.60916" lon="6.086">
        <ele>1059</ele>
        <time>2021-08-18T10:20:01Z</time>
      </trkpt>
      <trkpt lat="46.60913" lon="6.08602">
        <ele>1059</ele>
        <time>2021-08-18T10:20:02Z</time>
      </trkpt>
      <trkpt lat="46.60911" lon="6.08604">
        <ele>1059.1</ele>
        <time>2021-08-18T10:20:03Z</time>
      </trkpt>
      <trkpt lat="46.60907" lon="6.08606">
        <ele>1059.2</ele>
        <time>2021-08-18T10:20:05Z</time>
      </trkpt>
      <trkpt lat="46.60905" lon="6.08608">
        <ele>1059.2</ele>
        <time>2021-08-18T10:20:06Z</time>
      </trkpt>
      <trkpt lat="46.60902" lon="6.0861">
        <ele>1059.3</ele>
        <time>2021-08-18T10:20:07Z</time>
      </trkpt>
      <trkpt lat="46.60899" lon="6.08613">
        <ele>1059.4</ele>
        <time>2021-08-18T10:20:09Z</time>
      </trkpt>
      <trkpt lat="46.60895" lon="6.08615">
        <ele>1059.4</ele>
        <time>2021-08-18T10:20:10Z</time>
      </trkpt>
      <trkpt lat="46.60892" lon="6.08617">
        <ele>1059.5</ele>
        <time>2021-08-18T10:20:11Z</time>
      </trkpt>
      <trkpt lat="46.60887" lon="6.08619">
        <ele>1059.6</ele>
        <time>2021-08-18T10:20:13Z</time>
      </trkpt>
      <trkpt lat="46.60883" lon="6.08622">
        <ele>1059.7</ele>
        <time>2021-08-18T10:20:14Z</time>
      </trkpt>
      <trkpt lat="46.60879" lon="6.08624">
        <ele>1059.7</ele>
        <time>2021-08-18T10:20:15Z</time>
      </trkpt>
      <trkpt lat="46.60875" lon="6.08627">
        <ele>1059.8</ele>
        <time>2021-08-18T10:20:17Z</time>
      </trkpt>
      <trkpt lat="46.60872" lon="6.08629">
        <ele>1059.9</ele>
        <time>2021-08-18T10:20:18Z</time>
      </trkpt>
      <trkpt lat="46.60868" lon="6.0863">
        <ele>1060</ele>
        <time>2021-08-18T10:20:19Z</time>
      </trkpt>
      <trkpt lat="46.60865" lon="6.08632">
        <ele>1060</ele>
        <time>2021-08-18T10:20:20Z</time>
      </trkpt>
      <trkpt lat="46.60862" lon="6.08634">
        <ele>1060.1</ele>
        <time>2021-08-18T10:20:21Z</time>
      </trkpt>
      <trkpt lat="46.60856" lon="6.08638">
        <ele>1060.2</ele>
        <time>2021-08-18T10:20:23Z</time>
      </trkpt>
      <trkpt lat="46.60853" lon="6.08641">
        <ele>1060.3</ele>
        <time>2021-08-18T10:20:24Z</time>
      </trkpt>
      <trkpt lat="46.6085" lon="6.08643">
        <ele>1060.4</ele>
        <time>2021-08-18T10:20:25Z</time>
      </trkpt>
      <trkpt lat="46.60847" lon="6.08646">
        <ele>1060.5</ele>
        <time>2021-08-18T10:20:27Z</time>
      </trkpt>
      <trkpt lat="46.60844" lon="6.08648">
        <ele>1060.6</ele>
        <time>2021-08-18T10:20:28Z</time>
      </trkpt>
      <trkpt lat="46.60839" lon="6.0865">
        <ele>1060.7</ele>
        <time>2021-08-18T10:20:30Z</time>
      </trkpt>
      <trkpt lat="46.60836" lon="6.08652">
        <ele>1060.8</ele>
        <time>2021-08-18T10:20:31Z</time>
      </trkpt>
      <trkpt lat="46.60835" lon="6.08653">
        <ele>1060.9</ele>
        <time>2021-08-18T10:20:32Z</time>
      </trkpt>
      <trkpt lat="46.6083" lon="6.08655">
        <ele>1061</ele>
        <time>2021-08-18T10:20:34Z</time>
      </trkpt>
      <trkpt lat="46.60827" lon="6.08657">
        <ele>1061.1</ele>
        <time>2021-08-18T10:20:35Z</time>
      </trkpt>
      <trkpt lat="46.60826" lon="6.08658">
        <ele>1061.1</ele>
        <time>2021-08-18T10:20:36Z</time>
      </trkpt>
      <trkpt lat="46.60821" lon="6.08662">
        <ele>1061.2</ele>
        <time>2021-08-18T10:20:38Z</time>
      </trkpt>
      <trkpt lat="46.6082" lon="6.08666">
        <ele>1061.3</ele>
        <time>2021-08-18T10:20:40Z</time>
      </trkpt>
      <trkpt lat="46.6082" lon="6.08668">
        <ele>1061.3</ele>
        <time>2021-08-18T10:20:41Z</time>
      </trkpt>
      <trkpt lat="46.60819" lon="6.0867">
        <ele>1061.3</ele>
        <time>2021-08-18T10:20:42Z</time>
      </trkpt>
      <trkpt lat="46.60818" lon="6.08671">
        <ele>1061.4</ele>
        <time>2021-08-18T10:20:43Z</time>
      </trkpt>
      <trkpt lat="46.60817" lon="6.08671">
        <ele>1061.4</ele>
        <time>2021-08-18T10:20:45Z</time>
      </trkpt>
      <trkpt lat="46.60817" lon="6.08669">
        <ele>1061.4</ele>
        <time>2021-08-18T10:20:47Z</time>
      </trkpt>
      <trkpt lat="46.60814" lon="6.0867">
        <ele>1061.4</ele>
        <time>2021-08-18T10:20:49Z</time>
      </trkpt>
      <trkpt lat="46.60813" lon="6.0867">
        <ele>1061.4</ele>
        <time>2021-08-18T10:20:50Z</time>
      </trkpt>
      <trkpt lat="46.6081" lon="6.08672">
        <ele>1061.5</ele>
        <time>2021-08-18T10:20:52Z</time>
      </trkpt>
      <trkpt lat="46.60807" lon="6.08676">
        <ele>1061.5</ele>
        <time>2021-08-18T10:20:53Z</time>
      </trkpt>
      <trkpt lat="46.608" lon="6.08683">
        <ele>1061.4</ele>
        <time>2021-08-18T10:20:54Z</time>
      </trkpt>
      <trkpt lat="46.60794" lon="6.08689">
        <ele>1061.3</ele>
        <time>2021-08-18T10:20:55Z</time>
      </trkpt>
      <trkpt lat="46.6078" lon="6.08703">
        <ele>1061</ele>
        <time>2021-08-18T10:20:57Z</time>
      </trkpt>
      <trkpt lat="46.60774" lon="6.0871">
        <ele>1060.8</ele>
        <time>2021-08-18T10:20:58Z</time>
      </trkpt>
      <trkpt lat="46.60769" lon="6.08718">
        <ele>1060.6</ele>
        <time>2021-08-18T10:20:59Z</time>
      </trkpt>
      <trkpt lat="46.60759" lon="6.08734">
        <ele>1060.1</ele>
        <time>2021-08-18T10:21:01Z</time>
      </trkpt>
      <trkpt lat="46.6075" lon="6.08749">
        <ele>1059.6</ele>
        <time>2021-08-18T10:21:03Z</time>
      </trkpt>
      <trkpt lat="46.60747" lon="6.08758">
        <ele>1059.3</ele>
        <time>2021-08-18T10:21:04Z</time>
      </trkpt>
      <trkpt lat="46.60743" lon="6.08767">
        <ele>1058.9</ele>
        <time>2021-08-18T10:21:05Z</time>
      </trkpt>
      <trkpt lat="46.60736" lon="6.08785">
        <ele>1058.1</ele>
        <time>2021-08-18T10:21:07Z</time>
      </trkpt>
      <trkpt lat="46.60733" lon="6.08794">
        <ele>1057.7</ele>
        <time>2021-08-18T10:21:08Z</time>
      </trkpt>
      <trkpt lat="46.60729" lon="6.08811">
        <ele>1057.6</ele>
        <time>2021-08-18T10:21:10Z</time>
      </trkpt>
      <trkpt lat="46.60728" lon="6.0882">
        <ele>1057.6</ele>
        <time>2021-08-18T10:21:11Z</time>
      </trkpt>
      <trkpt lat="46.60724" lon="6.08836">
        <ele>1057.6</ele>
        <time>2021-08-18T10:21:13Z</time>
      </trkpt>
      <trkpt lat="46.60721" lon="6.08851">
        <ele>1057.6</ele>
        <time>2021-08-18T10:21:15Z</time>
      </trkpt>
      <trkpt lat="46.6072" lon="6.0886">
        <ele>1057.6</ele>
        <time>2021-08-18T10:21:16Z</time>
      </trkpt>
      <trkpt lat="46.60718" lon="6.08869">
        <ele>1057.6</ele>
        <time>2021-08-18T10:21:17Z</time>
      </trkpt>
      <trkpt lat="46.60716" lon="6.08878">
        <ele>1057.6</ele>
        <time>2021-08-18T10:21:18Z</time>
      </trkpt>
      <trkpt lat="46.60713" lon="6.08886">
        <ele>1057.6</ele>
        <time>2021-08-18T10:21:19Z</time>
      </trkpt>
      <trkpt lat="46.60707" lon="6.08897">
        <ele>1057.7</ele>
        <time>2021-08-18T10:21:21Z</time>
      </trkpt>
      <trkpt lat="46.60704" lon="6.08902">
        <ele>1057.7</ele>
        <time>2021-08-18T10:21:22Z</time>
      </trkpt>
      <trkpt lat="46.60698" lon="6.08913">
        <ele>1057.7</ele>
        <time>2021-08-18T10:21:24Z</time>
      </trkpt>
      <trkpt lat="46.60694" lon="6.0892">
        <ele>1057.8</ele>
        <time>2021-08-18T10:21:25Z</time>
      </trkpt>
      <trkpt lat="46.60688" lon="6.08934">
        <ele>1057.9</ele>
        <time>2021-08-18T10:21:27Z</time>
      </trkpt>
      <trkpt lat="46.60685" lon="6.08941">
        <ele>1057.9</ele>
        <time>2021-08-18T10:21:28Z</time>
      </trkpt>
      <trkpt lat="46.60683" lon="6.08947">
        <ele>1057.9</ele>
        <time>2021-08-18T10:21:29Z</time>
      </trkpt>
      <trkpt lat="46.60677" lon="6.08958">
        <ele>1058</ele>
        <time>2021-08-18T10:21:31Z</time>
      </trkpt>
      <trkpt lat="46.60671" lon="6.08971">
        <ele>1058</ele>
        <time>2021-08-18T10:21:33Z</time>
      </trkpt>
      <trkpt lat="46.60664" lon="6.08984">
        <ele>1058</ele>
        <time>2021-08-18T10:21:35Z</time>
      </trkpt>
      <trkpt lat="46.60657" lon="6.08996">
        <ele>1058</ele>
        <time>2021-08-18T10:21:37Z</time>
      </trkpt>
      <trkpt lat="46.6065" lon="6.09005">
        <ele>1058</ele>
        <time>2021-08-18T10:21:39Z</time>
      </trkpt>
      <trkpt lat="46.60646" lon="6.0901">
        <ele>1058</ele>
        <time>2021-08-18T10:21:40Z</time>
      </trkpt>
      <trkpt lat="46.60643" lon="6.09014">
        <ele>1058</ele>
        <time>2021-08-18T10:21:41Z</time>
      </trkpt>
      <trkpt lat="46.60637" lon="6.09023">
        <ele>1058</ele>
        <time>2021-08-18T10:21:43Z</time>
      </trkpt>
      <trkpt lat="46.6063" lon="6.09032">
        <ele>1057.9</ele>
        <time>2021-08-18T10:21:45Z</time>
      </trkpt>
      <trkpt lat="46.60622" lon="6.09042">
        <ele>1057.9</ele>
        <time>2021-08-18T10:21:47Z</time>
      </trkpt>
      <trkpt lat="46.60617" lon="6.09047">
        <ele>1057.9</ele>
        <time>2021-08-18T10:21:48Z</time>
      </trkpt>
      <trkpt lat="46.60613" lon="6.09051">
        <ele>1057.9</ele>
        <time>2021-08-18T10:21:49Z</time>
      </trkpt>
      <trkpt lat="46.60607" lon="6.09058">
        <ele>1057.9</ele>
        <time>2021-08-18T10:21:51Z</time>
      </trkpt>
      <trkpt lat="46.60603" lon="6.09061">
        <ele>1057.9</ele>
        <time>2021-08-18T10:21:52Z</time>
      </trkpt>
      <trkpt lat="46.60597" lon="6.09064">
        <ele>1057.9</ele>
        <time>2021-08-18T10:21:54Z</time>
      </trkpt>
      <trkpt lat="46.60593" lon="6.09069">
        <ele>1057.9</ele>
        <time>2021-08-18T10:21:55Z</time>
      </trkpt>
      <trkpt lat="46.60587" lon="6.09075">
        <ele>1058</ele>
        <time>2021-08-18T10:21:57Z</time>
      </trkpt>
      <trkpt lat="46.60584" lon="6.0908">
        <ele>1058</ele>
        <time>2021-08-18T10:21:58Z</time>
      </trkpt>
      <trkpt lat="46.60578" lon="6.09086">
        <ele>1058.1</ele>
        <time>2021-08-18T10:22:00Z</time>
      </trkpt>
      <trkpt lat="46.60574" lon="6.09089">
        <ele>1058.2</ele>
        <time>2021-08-18T10:22:01Z</time>
      </trkpt>
      <trkpt lat="46.60569" lon="6.09095">
        <ele>1058.3</ele>
        <time>2021-08-18T10:22:03Z</time>
      </trkpt>
      <trkpt lat="46.60565" lon="6.09099">
        <ele>1058.3</ele>
        <time>2021-08-18T10:22:04Z</time>
      </trkpt>
      <trkpt lat="46.60558" lon="6.09105">
        <ele>1058.5</ele>
        <time>2021-08-18T10:22:06Z</time>
      </trkpt>
      <trkpt lat="46.60554" lon="6.09107">
        <ele>1058.6</ele>
        <time>2021-08-18T10:22:07Z</time>
      </trkpt>
      <trkpt lat="46.60546" lon="6.09114">
        <ele>1058.7</ele>
        <time>2021-08-18T10:22:09Z</time>
      </trkpt>
      <trkpt lat="46.60542" lon="6.09118">
        <ele>1058.8</ele>
        <time>2021-08-18T10:22:10Z</time>
      </trkpt>
      <trkpt lat="46.60532" lon="6.09122">
        <ele>1058.9</ele>
        <time>2021-08-18T10:22:12Z</time>
      </trkpt>
      <trkpt lat="46.60528" lon="6.09123">
        <ele>1059</ele>
        <time>2021-08-18T10:22:13Z</time>
      </trkpt>
      <trkpt lat="46.60523" lon="6.0913">
        <ele>1059</ele>
        <time>2021-08-18T10:22:15Z</time>
      </trkpt>
      <trkpt lat="46.60517" lon="6.0913">
        <ele>1059.1</ele>
        <time>2021-08-18T10:22:17Z</time>
      </trkpt>
      <trkpt lat="46.60512" lon="6.09131">
        <ele>1059.2</ele>
        <time>2021-08-18T10:22:18Z</time>
      </trkpt>
      <trkpt lat="46.60507" lon="6.09132">
        <ele>1059.2</ele>
        <time>2021-08-18T10:22:19Z</time>
      </trkpt>
      <trkpt lat="46.60502" lon="6.09133">
        <ele>1059.3</ele>
        <time>2021-08-18T10:22:20Z</time>
      </trkpt>
      <trkpt lat="46.60497" lon="6.09135">
        <ele>1059.3</ele>
        <time>2021-08-18T10:22:21Z</time>
      </trkpt>
      <trkpt lat="46.60494" lon="6.09136">
        <ele>1059.4</ele>
        <time>2021-08-18T10:22:22Z</time>
      </trkpt>
      <trkpt lat="46.60489" lon="6.09137">
        <ele>1059.4</ele>
        <time>2021-08-18T10:22:23Z</time>
      </trkpt>
      <trkpt lat="46.60484" lon="6.09138">
        <ele>1059.5</ele>
        <time>2021-08-18T10:22:25Z</time>
      </trkpt>
      <trkpt lat="46.60479" lon="6.09139">
        <ele>1059.5</ele>
        <time>2021-08-18T10:22:26Z</time>
      </trkpt>
      <trkpt lat="46.60475" lon="6.0914">
        <ele>1059.6</ele>
        <time>2021-08-18T10:22:27Z</time>
      </trkpt>
      <trkpt lat="46.6047" lon="6.09141">
        <ele>1059.7</ele>
        <time>2021-08-18T10:22:28Z</time>
      </trkpt>
      <trkpt lat="46.60465" lon="6.09142">
        <ele>1059.8</ele>
        <time>2021-08-18T10:22:29Z</time>
      </trkpt>
      <trkpt lat="46.6046" lon="6.09143">
        <ele>1059.9</ele>
        <time>2021-08-18T10:22:30Z</time>
      </trkpt>
      <trkpt lat="46.60455" lon="6.09144">
        <ele>1059.9</ele>
        <time>2021-08-18T10:22:31Z</time>
      </trkpt>
      <trkpt lat="46.60451" lon="6.09145">
        <ele>1060</ele>
        <time>2021-08-18T10:22:32Z</time>
      </trkpt>
      <trkpt lat="46.60447" lon="6.09145">
        <ele>1060</ele>
        <time>2021-08-18T10:22:33Z</time>
      </trkpt>
      <trkpt lat="46.60443" lon="6.09145">
        <ele>1060.1</ele>
        <time>2021-08-18T10:22:34Z</time>
      </trkpt>
      <trkpt lat="46.60438" lon="6.09146">
        <ele>1060.1</ele>
        <time>2021-08-18T10:22:35Z</time>
      </trkpt>
      <trkpt lat="46.60434" lon="6.09146">
        <ele>1060.2</ele>
        <time>2021-08-18T10:22:36Z</time>
      </trkpt>
      <trkpt lat="46.6043" lon="6.09147">
        <ele>1060.2</ele>
        <time>2021-08-18T10:22:37Z</time>
      </trkpt>
      <trkpt lat="46.60425" lon="6.09147">
        <ele>1060.3</ele>
        <time>2021-08-18T10:22:39Z</time>
      </trkpt>
      <trkpt lat="46.60417" lon="6.09148">
        <ele>1060.3</ele>
        <time>2021-08-18T10:22:40Z</time>
      </trkpt>
      <trkpt lat="46.60415" lon="6.09148">
        <ele>1060.3</ele>
        <time>2021-08-18T10:22:41Z</time>
      </trkpt>
      <trkpt lat="46.60411" lon="6.09149">
        <ele>1060.3</ele>
        <time>2021-08-18T10:22:42Z</time>
      </trkpt>
      <trkpt lat="46.60406" lon="6.09151">
        <ele>1060.4</ele>
        <time>2021-08-18T10:22:43Z</time>
      </trkpt>
      <trkpt lat="46.604" lon="6.09152">
        <ele>1060.4</ele>
        <time>2021-08-18T10:22:45Z</time>
      </trkpt>
      <trkpt lat="46.60395" lon="6.09152">
        <ele>1060.4</ele>
        <time>2021-08-18T10:22:46Z</time>
      </trkpt>
      <trkpt lat="46.6039" lon="6.09152">
        <ele>1060.4</ele>
        <time>2021-08-18T10:22:47Z</time>
      </trkpt>
      <trkpt lat="46.60385" lon="6.09151">
        <ele>1060.3</ele>
        <time>2021-08-18T10:22:49Z</time>
      </trkpt>
      <trkpt lat="46.6038" lon="6.09151">
        <ele>1060.3</ele>
        <time>2021-08-18T10:22:50Z</time>
      </trkpt>
      <trkpt lat="46.60375" lon="6.09152">
        <ele>1060.3</ele>
        <time>2021-08-18T10:22:51Z</time>
      </trkpt>
      <trkpt lat="46.6037" lon="6.09152">
        <ele>1060.3</ele>
        <time>2021-08-18T10:22:52Z</time>
      </trkpt>
      <trkpt lat="46.60365" lon="6.09151">
        <ele>1060.3</ele>
        <time>2021-08-18T10:22:53Z</time>
      </trkpt>
      <trkpt lat="46.6036" lon="6.0915">
        <ele>1060.3</ele>
        <time>2021-08-18T10:22:54Z</time>
      </trkpt>
      <trkpt lat="46.60355" lon="6.09149">
        <ele>1060.3</ele>
        <time>2021-08-18T10:22:55Z</time>
      </trkpt>
      <trkpt lat="46.60317" lon="6.09151">
        <ele>1060.5</ele>
        <time>2021-08-18T10:22:56Z</time>
      </trkpt>
      <trkpt lat="46.60329" lon="6.09151">
        <ele>1060.7</ele>
        <time>2021-08-18T10:22:57Z</time>
      </trkpt>
      <trkpt lat="46.60313" lon="6.09153">
        <ele>1061</ele>
        <time>2021-08-18T10:22:58Z</time>
      </trkpt>
      <trkpt lat="46.60326" lon="6.09153">
        <ele>1061.3</ele>
        <time>2021-08-18T10:22:59Z</time>
      </trkpt>
      <trkpt lat="46.60307" lon="6.09155">
        <ele>1061.5</ele>
        <time>2021-08-18T10:23:00Z</time>
      </trkpt>
      <trkpt lat="46.60304" lon="6.09157">
        <ele>1061.5</ele>
        <time>2021-08-18T10:23:01Z</time>
      </trkpt>
      <trkpt lat="46.603" lon="6.09159">
        <ele>1061.5</ele>
        <time>2021-08-18T10:23:02Z</time>
      </trkpt>
      <trkpt lat="46.60294" lon="6.09162">
        <ele>1061.5</ele>
        <time>2021-08-18T10:23:03Z</time>
      </trkpt>
      <trkpt lat="46.60307" lon="6.09158">
        <ele>1061.5</ele>
        <time>2021-08-18T10:23:04Z</time>
      </trkpt>
      <trkpt lat="46.6029" lon="6.09166">
        <ele>1061.4</ele>
        <time>2021-08-18T10:23:05Z</time>
      </trkpt>
      <trkpt lat="46.60284" lon="6.09171">
        <ele>1061.3</ele>
        <time>2021-08-18T10:23:06Z</time>
      </trkpt>
      <trkpt lat="46.60279" lon="6.09175">
        <ele>1061.3</ele>
        <time>2021-08-18T10:23:08Z</time>
      </trkpt>
      <trkpt lat="46.60274" lon="6.09179">
        <ele>1061.2</ele>
        <time>2021-08-18T10:23:09Z</time>
      </trkpt>
      <trkpt lat="46.6027" lon="6.09182">
        <ele>1061.2</ele>
        <time>2021-08-18T10:23:10Z</time>
      </trkpt>
      <trkpt lat="46.60264" lon="6.09186">
        <ele>1061.1</ele>
        <time>2021-08-18T10:23:12Z</time>
      </trkpt>
      <trkpt lat="46.60259" lon="6.0919">
        <ele>1061</ele>
        <time>2021-08-18T10:23:13Z</time>
      </trkpt>
      <trkpt lat="46.60256" lon="6.09196">
        <ele>1060.9</ele>
        <time>2021-08-18T10:23:15Z</time>
      </trkpt>
      <trkpt lat="46.60252" lon="6.09199">
        <ele>1060.8</ele>
        <time>2021-08-18T10:23:16Z</time>
      </trkpt>
      <trkpt lat="46.60247" lon="6.09204">
        <ele>1060.7</ele>
        <time>2021-08-18T10:23:18Z</time>
      </trkpt>
      <trkpt lat="46.60236" lon="6.09211">
        <ele>1060.3</ele>
        <time>2021-08-18T10:23:20Z</time>
      </trkpt>
      <trkpt lat="46.60226" lon="6.09218">
        <ele>1059.9</ele>
        <time>2021-08-18T10:23:22Z</time>
      </trkpt>
      <trkpt lat="46.60222" lon="6.09221">
        <ele>1059.7</ele>
        <time>2021-08-18T10:23:23Z</time>
      </trkpt>
      <trkpt lat="46.60217" lon="6.09224">
        <ele>1059.5</ele>
        <time>2021-08-18T10:23:24Z</time>
      </trkpt>
      <trkpt lat="46.60208" lon="6.09232">
        <ele>1059.1</ele>
        <time>2021-08-18T10:23:26Z</time>
      </trkpt>
      <trkpt lat="46.602" lon="6.0924">
        <ele>1058.7</ele>
        <time>2021-08-18T10:23:28Z</time>
      </trkpt>
      <trkpt lat="46.60195" lon="6.09245">
        <ele>1058.6</ele>
        <time>2021-08-18T10:23:29Z</time>
      </trkpt>
      <trkpt lat="46.6019" lon="6.09251">
        <ele>1058.4</ele>
        <time>2021-08-18T10:23:30Z</time>
      </trkpt>
      <trkpt lat="46.6018" lon="6.09263">
        <ele>1058.1</ele>
        <time>2021-08-18T10:23:32Z</time>
      </trkpt>
      <trkpt lat="46.6017" lon="6.09274">
        <ele>1058</ele>
        <time>2021-08-18T10:23:34Z</time>
      </trkpt>
      <trkpt lat="46.60159" lon="6.09285">
        <ele>1057.9</ele>
        <time>2021-08-18T10:23:36Z</time>
      </trkpt>
      <trkpt lat="46.60154" lon="6.0929">
        <ele>1057.9</ele>
        <time>2021-08-18T10:23:37Z</time>
      </trkpt>
      <trkpt lat="46.60149" lon="6.09295">
        <ele>1057.9</ele>
        <time>2021-08-18T10:23:38Z</time>
      </trkpt>
      <trkpt lat="46.6014" lon="6.09303">
        <ele>1057.9</ele>
        <time>2021-08-18T10:23:40Z</time>
      </trkpt>
      <trkpt lat="46.60136" lon="6.09308">
        <ele>1058</ele>
        <time>2021-08-18T10:23:41Z</time>
      </trkpt>
      <trkpt lat="46.60132" lon="6.09313">
        <ele>1058</ele>
        <time>2021-08-18T10:23:42Z</time>
      </trkpt>
      <trkpt lat="46.60128" lon="6.09318">
        <ele>1058</ele>
        <time>2021-08-18T10:23:43Z</time>
      </trkpt>
      <trkpt lat="46.60119" lon="6.09327">
        <ele>1058.2</ele>
        <time>2021-08-18T10:23:45Z</time>
      </trkpt>
      <trkpt lat="46.6011" lon="6.09337">
        <ele>1058.4</ele>
        <time>2021-08-18T10:23:47Z</time>
      </trkpt>
      <trkpt lat="46.60106" lon="6.09341">
        <ele>1058.5</ele>
        <time>2021-08-18T10:23:48Z</time>
      </trkpt>
      <trkpt lat="46.60099" lon="6.09348">
        <ele>1058.6</ele>
        <time>2021-08-18T10:23:50Z</time>
      </trkpt>
      <trkpt lat="46.60096" lon="6.09351">
        <ele>1058.7</ele>
        <time>2021-08-18T10:23:51Z</time>
      </trkpt>
      <trkpt lat="46.60089" lon="6.09358">
        <ele>1058.9</ele>
        <time>2021-08-18T10:23:53Z</time>
      </trkpt>
      <trkpt lat="46.60086" lon="6.09361">
        <ele>1059</ele>
        <time>2021-08-18T10:23:54Z</time>
      </trkpt>
      <trkpt lat="46.60075" lon="6.09371">
        <ele>1059.2</ele>
        <time>2021-08-18T10:23:56Z</time>
      </trkpt>
      <trkpt lat="46.60074" lon="6.09375">
        <ele>1059.3</ele>
        <time>2021-08-18T10:23:57Z</time>
      </trkpt>
      <trkpt lat="46.60072" lon="6.09379">
        <ele>1059.4</ele>
        <time>2021-08-18T10:23:58Z</time>
      </trkpt>
      <trkpt lat="46.60069" lon="6.09383">
        <ele>1059.5</ele>
        <time>2021-08-18T10:23:59Z</time>
      </trkpt>
      <trkpt lat="46.60067" lon="6.09386">
        <ele>1059.5</ele>
        <time>2021-08-18T10:24:00Z</time>
      </trkpt>
      <trkpt lat="46.60064" lon="6.09389">
        <ele>1059.6</ele>
        <time>2021-08-18T10:24:01Z</time>
      </trkpt>
      <trkpt lat="46.60061" lon="6.09392">
        <ele>1059.7</ele>
        <time>2021-08-18T10:24:02Z</time>
      </trkpt>
      <trkpt lat="46.60057" lon="6.09394">
        <ele>1059.9</ele>
        <time>2021-08-18T10:24:03Z</time>
      </trkpt>
      <trkpt lat="46.60054" lon="6.09398">
        <ele>1060</ele>
        <time>2021-08-18T10:24:04Z</time>
      </trkpt>
      <trkpt lat="46.60047" lon="6.09403">
        <ele>1060.3</ele>
        <time>2021-08-18T10:24:06Z</time>
      </trkpt>
      <trkpt lat="46.60041" lon="6.09408">
        <ele>1060.6</ele>
        <time>2021-08-18T10:24:08Z</time>
      </trkpt>
      <trkpt lat="46.60038" lon="6.09412">
        <ele>1060.8</ele>
        <time>2021-08-18T10:24:10Z</time>
      </trkpt>
      <trkpt lat="46.60035" lon="6.09416">
        <ele>1061.1</ele>
        <time>2021-08-18T10:24:11Z</time>
      </trkpt>
      <trkpt lat="46.60032" lon="6.0942">
        <ele>1061.3</ele>
        <time>2021-08-18T10:24:13Z</time>
      </trkpt>
      <trkpt lat="46.60029" lon="6.09422">
        <ele>1061.5</ele>
        <time>2021-08-18T10:24:14Z</time>
      </trkpt>
      <trkpt lat="46.60026" lon="6.09424">
        <ele>1061.6</ele>
        <time>2021-08-18T10:24:15Z</time>
      </trkpt>
      <trkpt lat="46.60023" lon="6.09426">
        <ele>1061.8</ele>
        <time>2021-08-18T10:24:16Z</time>
      </trkpt>
      <trkpt lat="46.60019" lon="6.09429">
        <ele>1062.1</ele>
        <time>2021-08-18T10:24:18Z</time>
      </trkpt>
      <trkpt lat="46.60016" lon="6.0943">
        <ele>1062.2</ele>
        <time>2021-08-18T10:24:19Z</time>
      </trkpt>
      <trkpt lat="46.60012" lon="6.09433">
        <ele>1062.5</ele>
        <time>2021-08-18T10:24:21Z</time>
      </trkpt>
      <trkpt lat="46.60009" lon="6.09438">
        <ele>1062.7</ele>
        <time>2021-08-18T10:24:23Z</time>
      </trkpt>
      <trkpt lat="46.60005" lon="6.09439">
        <ele>1062.9</ele>
        <time>2021-08-18T10:24:24Z</time>
      </trkpt>
      <trkpt lat="46.60003" lon="6.09439">
        <ele>1063</ele>
        <time>2021-08-18T10:24:25Z</time>
      </trkpt>
      <trkpt lat="46.6" lon="6.0944">
        <ele>1063.2</ele>
        <time>2021-08-18T10:24:26Z</time>
      </trkpt>
      <trkpt lat="46.59998" lon="6.09442">
        <ele>1063.3</ele>
        <time>2021-08-18T10:24:27Z</time>
      </trkpt>
      <trkpt lat="46.59995" lon="6.09443">
        <ele>1063.5</ele>
        <time>2021-08-18T10:24:28Z</time>
      </trkpt>
      <trkpt lat="46.59992" lon="6.09446">
        <ele>1063.7</ele>
        <time>2021-08-18T10:24:29Z</time>
      </trkpt>
      <trkpt lat="46.59989" lon="6.09448">
        <ele>1063.8</ele>
        <time>2021-08-18T10:24:30Z</time>
      </trkpt>
      <trkpt lat="46.59987" lon="6.09449">
        <ele>1063.9</ele>
        <time>2021-08-18T10:24:31Z</time>
      </trkpt>
      <trkpt lat="46.59983" lon="6.09453">
        <ele>1064.1</ele>
        <time>2021-08-18T10:24:33Z</time>
      </trkpt>
      <trkpt lat="46.59982" lon="6.09454">
        <ele>1064.1</ele>
        <time>2021-08-18T10:24:34Z</time>
      </trkpt>
      <trkpt lat="46.59981" lon="6.09455">
        <ele>1064.2</ele>
        <time>2021-08-18T10:24:35Z</time>
      </trkpt>
      <trkpt lat="46.59977" lon="6.09458">
        <ele>1064.3</ele>
        <time>2021-08-18T10:24:37Z</time>
      </trkpt>
      <trkpt lat="46.59974" lon="6.09461">
        <ele>1064.5</ele>
        <time>2021-08-18T10:24:38Z</time>
      </trkpt>
      <trkpt lat="46.59972" lon="6.09463">
        <ele>1064.5</ele>
        <time>2021-08-18T10:24:39Z</time>
      </trkpt>
      <trkpt lat="46.59969" lon="6.09465">
        <ele>1064.6</ele>
        <time>2021-08-18T10:24:41Z</time>
      </trkpt>
      <trkpt lat="46.59967" lon="6.09466">
        <ele>1064.7</ele>
        <time>2021-08-18T10:24:42Z</time>
      </trkpt>
      <trkpt lat="46.59962" lon="6.0947">
        <ele>1064.8</ele>
        <time>2021-08-18T10:24:44Z</time>
      </trkpt>
      <trkpt lat="46.59959" lon="6.09474">
        <ele>1064.9</ele>
        <time>2021-08-18T10:24:45Z</time>
      </trkpt>
      <trkpt lat="46.59956" lon="6.09477">
        <ele>1064.9</ele>
        <time>2021-08-18T10:24:47Z</time>
      </trkpt>
      <trkpt lat="46.59955" lon="6.09479">
        <ele>1065</ele>
        <time>2021-08-18T10:24:48Z</time>
      </trkpt>
      <trkpt lat="46.59953" lon="6.09484">
        <ele>1065.1</ele>
        <time>2021-08-18T10:24:50Z</time>
      </trkpt>
      <trkpt lat="46.59949" lon="6.09491">
        <ele>1065.2</ele>
        <time>2021-08-18T10:24:52Z</time>
      </trkpt>
      <trkpt lat="46.59947" lon="6.09498">
        <ele>1065.2</ele>
        <time>2021-08-18T10:24:53Z</time>
      </trkpt>
      <trkpt lat="46.59946" lon="6.09503">
        <ele>1065.3</ele>
        <time>2021-08-18T10:24:54Z</time>
      </trkpt>
      <trkpt lat="46.59945" lon="6.09509">
        <ele>1065.4</ele>
        <time>2021-08-18T10:24:56Z</time>
      </trkpt>
      <trkpt lat="46.59943" lon="6.09514">
        <ele>1065.4</ele>
        <time>2021-08-18T10:24:57Z</time>
      </trkpt>
      <trkpt lat="46.59941" lon="6.09519">
        <ele>1065.5</ele>
        <time>2021-08-18T10:24:59Z</time>
      </trkpt>
      <trkpt lat="46.59939" lon="6.09524">
        <ele>1065.6</ele>
        <time>2021-08-18T10:25:00Z</time>
      </trkpt>
      <trkpt lat="46.59937" lon="6.09529">
        <ele>1065.6</ele>
        <time>2021-08-18T10:25:01Z</time>
      </trkpt>
      <trkpt lat="46.59935" lon="6.09534">
        <ele>1065.7</ele>
        <time>2021-08-18T10:25:03Z</time>
      </trkpt>
      <trkpt lat="46.59933" lon="6.09538">
        <ele>1065.7</ele>
        <time>2021-08-18T10:25:04Z</time>
      </trkpt>
      <trkpt lat="46.59931" lon="6.09542">
        <ele>1065.8</ele>
        <time>2021-08-18T10:25:05Z</time>
      </trkpt>
      <trkpt lat="46.59929" lon="6.09547">
        <ele>1065.8</ele>
        <time>2021-08-18T10:25:06Z</time>
      </trkpt>
      <trkpt lat="46.59928" lon="6.09551">
        <ele>1065.9</ele>
        <time>2021-08-18T10:25:07Z</time>
      </trkpt>
      <trkpt lat="46.59926" lon="6.09556">
        <ele>1066</ele>
        <time>2021-08-18T10:25:09Z</time>
      </trkpt>
      <trkpt lat="46.59924" lon="6.0956">
        <ele>1066</ele>
        <time>2021-08-18T10:25:10Z</time>
      </trkpt>
      <trkpt lat="46.59923" lon="6.09565">
        <ele>1066.1</ele>
        <time>2021-08-18T10:25:11Z</time>
      </trkpt>
      <trkpt lat="46.5992" lon="6.09571">
        <ele>1066.1</ele>
        <time>2021-08-18T10:25:13Z</time>
      </trkpt>
      <trkpt lat="46.59918" lon="6.09575">
        <ele>1066.2</ele>
        <time>2021-08-18T10:25:14Z</time>
      </trkpt>
      <trkpt lat="46.59917" lon="6.09579">
        <ele>1066.2</ele>
        <time>2021-08-18T10:25:15Z</time>
      </trkpt>
      <trkpt lat="46.59914" lon="6.09588">
        <ele>1066.3</ele>
        <time>2021-08-18T10:25:17Z</time>
      </trkpt>
      <trkpt lat="46.59913" lon="6.09593">
        <ele>1066.3</ele>
        <time>2021-08-18T10:25:18Z</time>
      </trkpt>
      <trkpt lat="46.59911" lon="6.09598">
        <ele>1066.3</ele>
        <time>2021-08-18T10:25:20Z</time>
      </trkpt>
      <trkpt lat="46.59909" lon="6.09605">
        <ele>1066.4</ele>
        <time>2021-08-18T10:25:22Z</time>
      </trkpt>
      <trkpt lat="46.59907" lon="6.09609">
        <ele>1066.4</ele>
        <time>2021-08-18T10:25:23Z</time>
      </trkpt>
      <trkpt lat="46.59906" lon="6.09611">
        <ele>1066.4</ele>
        <time>2021-08-18T10:25:24Z</time>
      </trkpt>
      <trkpt lat="46.59905" lon="6.09617">
        <ele>1066.4</ele>
        <time>2021-08-18T10:25:26Z</time>
      </trkpt>
      <trkpt lat="46.59902" lon="6.09622">
        <ele>1066.5</ele>
        <time>2021-08-18T10:25:28Z</time>
      </trkpt>
      <trkpt lat="46.599" lon="6.09625">
        <ele>1066.5</ele>
        <time>2021-08-18T10:25:30Z</time>
      </trkpt>
      <trkpt lat="46.599" lon="6.09627">
        <ele>1066.5</ele>
        <time>2021-08-18T10:25:32Z</time>
      </trkpt>
      <trkpt lat="46.599" lon="6.09628">
        <ele>1066.5</ele>
        <time>2021-08-18T10:25:33Z</time>
      </trkpt>
      <trkpt lat="46.599" lon="6.0963">
        <ele>1066.6</ele>
        <time>2021-08-18T10:25:35Z</time>
      </trkpt>
      <trkpt lat="46.599" lon="6.09631">
        <ele>1066.6</ele>
        <time>2021-08-18T10:25:36Z</time>
      </trkpt>
      <trkpt lat="46.599" lon="6.09632">
        <ele>1066.6</ele>
        <time>2021-08-18T10:25:38Z</time>
      </trkpt>
      <trkpt lat="46.599" lon="6.09632">
        <ele>1066.6</ele>
        <time>2021-08-18T10:25:39Z</time>
      </trkpt>
      <trkpt lat="46.599" lon="6.09633">
        <ele>1066.6</ele>
        <time>2021-08-18T10:25:41Z</time>
      </trkpt>
      <trkpt lat="46.599" lon="6.09633">
        <ele>1066.7</ele>
        <time>2021-08-18T10:25:42Z</time>
      </trkpt>
      <trkpt lat="46.599" lon="6.09634">
        <ele>1066.7</ele>
        <time>2021-08-18T10:25:43Z</time>
      </trkpt>
      <trkpt lat="46.59906" lon="6.0965">
        <ele>1067.1</ele>
        <time>2021-08-18T10:26:07Z</time>
      </trkpt>
      <trkpt lat="46.59906" lon="6.09654">
        <ele>1067.1</ele>
        <time>2021-08-18T10:26:08Z</time>
      </trkpt>
      <trkpt lat="46.59907" lon="6.09661">
        <ele>1067.2</ele>
        <time>2021-08-18T10:26:09Z</time>
      </trkpt>
      <trkpt lat="46.59908" lon="6.09666">
        <ele>1067.3</ele>
        <time>2021-08-18T10:26:11Z</time>
      </trkpt>
      <trkpt lat="46.59909" lon="6.0967">
        <ele>1067.3</ele>
        <time>2021-08-18T10:26:12Z</time>
      </trkpt>
      <trkpt lat="46.5991" lon="6.09676">
        <ele>1067.4</ele>
        <time>2021-08-18T10:26:14Z</time>
      </trkpt>
      <trkpt lat="46.5991" lon="6.09679">
        <ele>1067.4</ele>
        <time>2021-08-18T10:26:15Z</time>
      </trkpt>
      <trkpt lat="46.5991" lon="6.09681">
        <ele>1067.5</ele>
        <time>2021-08-18T10:26:16Z</time>
      </trkpt>
      <trkpt lat="46.59911" lon="6.09686">
        <ele>1067.5</ele>
        <time>2021-08-18T10:26:17Z</time>
      </trkpt>
      <trkpt lat="46.59911" lon="6.09687">
        <ele>1067.6</ele>
        <time>2021-08-18T10:26:18Z</time>
      </trkpt>
      <trkpt lat="46.59911" lon="6.0969">
        <ele>1067.6</ele>
        <time>2021-08-18T10:26:19Z</time>
      </trkpt>
      <trkpt lat="46.59913" lon="6.09692">
        <ele>1067.6</ele>
        <time>2021-08-18T10:26:21Z</time>
      </trkpt>
      <trkpt lat="46.59914" lon="6.09696">
        <ele>1067.7</ele>
        <time>2021-08-18T10:26:22Z</time>
      </trkpt>
      <trkpt lat="46.59915" lon="6.09701">
        <ele>1067.8</ele>
        <time>2021-08-18T10:26:23Z</time>
      </trkpt>
      <trkpt lat="46.59916" lon="6.09704">
        <ele>1067.8</ele>
        <time>2021-08-18T10:26:25Z</time>
      </trkpt>
      <trkpt lat="46.59919" lon="6.0971">
        <ele>1067.9</ele>
        <time>2021-08-18T10:26:26Z</time>
      </trkpt>
      <trkpt lat="46.59921" lon="6.09713">
        <ele>1067.9</ele>
        <time>2021-08-18T10:26:28Z</time>
      </trkpt>
      <trkpt lat="46.59923" lon="6.09717">
        <ele>1067.9</ele>
        <time>2021-08-18T10:26:29Z</time>
      </trkpt>
      <trkpt lat="46.59925" lon="6.09721">
        <ele>1067.9</ele>
        <time>2021-08-18T10:26:30Z</time>
      </trkpt>
      <trkpt lat="46.59926" lon="6.09726">
        <ele>1067.9</ele>
        <time>2021-08-18T10:26:32Z</time>
      </trkpt>
      <trkpt lat="46.59926" lon="6.09728">
        <ele>1067.9</ele>
        <time>2021-08-18T10:26:33Z</time>
      </trkpt>
      <trkpt lat="46.59927" lon="6.0973">
        <ele>1067.9</ele>
        <time>2021-08-18T10:26:34Z</time>
      </trkpt>
      <trkpt lat="46.59928" lon="6.09734">
        <ele>1067.9</ele>
        <time>2021-08-18T10:26:36Z</time>
      </trkpt>
      <trkpt lat="46.59929" lon="6.09739">
        <ele>1067.9</ele>
        <time>2021-08-18T10:26:37Z</time>
      </trkpt>
      <trkpt lat="46.59929" lon="6.09743">
        <ele>1067.9</ele>
        <time>2021-08-18T10:26:38Z</time>
      </trkpt>
      <trkpt lat="46.59929" lon="6.09749">
        <ele>1067.9</ele>
        <time>2021-08-18T10:26:39Z</time>
      </trkpt>
      <trkpt lat="46.59929" lon="6.09755">
        <ele>1067.9</ele>
        <time>2021-08-18T10:26:41Z</time>
      </trkpt>
      <trkpt lat="46.5993" lon="6.09763">
        <ele>1067.9</ele>
        <time>2021-08-18T10:26:42Z</time>
      </trkpt>
      <trkpt lat="46.59931" lon="6.09768">
        <ele>1067.9</ele>
        <time>2021-08-18T10:26:44Z</time>
      </trkpt>
      <trkpt lat="46.59934" lon="6.09777">
        <ele>1068</ele>
        <time>2021-08-18T10:26:45Z</time>
      </trkpt>
      <trkpt lat="46.59937" lon="6.09784">
        <ele>1068.1</ele>
        <time>2021-08-18T10:26:47Z</time>
      </trkpt>
      <trkpt lat="46.59938" lon="6.09789">
        <ele>1068.2</ele>
        <time>2021-08-18T10:26:48Z</time>
      </trkpt>
      <trkpt lat="46.59939" lon="6.09794">
        <ele>1068.3</ele>
        <time>2021-08-18T10:26:49Z</time>
      </trkpt>
      <trkpt lat="46.5994" lon="6.09801">
        <ele>1068.5</ele>
        <time>2021-08-18T10:26:51Z</time>
      </trkpt>
      <trkpt lat="46.59939" lon="6.09804">
        <ele>1068.5</ele>
        <time>2021-08-18T10:26:52Z</time>
      </trkpt>
      <trkpt lat="46.59939" lon="6.09807">
        <ele>1068.6</ele>
        <time>2021-08-18T10:26:53Z</time>
      </trkpt>
      <trkpt lat="46.59938" lon="6.09811">
        <ele>1068.7</ele>
        <time>2021-08-18T10:26:54Z</time>
      </trkpt>
      <trkpt lat="46.59937" lon="6.09815">
        <ele>1068.8</ele>
        <time>2021-08-18T10:26:56Z</time>
      </trkpt>
      <trkpt lat="46.59936" lon="6.09819">
        <ele>1069</ele>
        <time>2021-08-18T10:26:57Z</time>
      </trkpt>
      <trkpt lat="46.59933" lon="6.09827">
        <ele>1069.2</ele>
        <time>2021-08-18T10:26:59Z</time>
      </trkpt>
      <trkpt lat="46.59932" lon="6.09837">
        <ele>1069.4</ele>
        <time>2021-08-18T10:27:01Z</time>
      </trkpt>
      <trkpt lat="46.59933" lon="6.09842">
        <ele>1069.5</ele>
        <time>2021-08-18T10:27:02Z</time>
      </trkpt>
      <trkpt lat="46.59934" lon="6.09847">
        <ele>1069.6</ele>
        <time>2021-08-18T10:27:03Z</time>
      </trkpt>
      <trkpt lat="46.59936" lon="6.09856">
        <ele>1069.8</ele>
        <time>2021-08-18T10:27:04Z</time>
      </trkpt>
      <trkpt lat="46.59936" lon="6.09862">
        <ele>1069.9</ele>
        <time>2021-08-18T10:27:05Z</time>
      </trkpt>
      <trkpt lat="46.59938" lon="6.09867">
        <ele>1070</ele>
        <time>2021-08-18T10:27:07Z</time>
      </trkpt>
      <trkpt lat="46.59939" lon="6.0987">
        <ele>1070.1</ele>
        <time>2021-08-18T10:27:08Z</time>
      </trkpt>
      <trkpt lat="46.59939" lon="6.09875">
        <ele>1070.1</ele>
        <time>2021-08-18T10:27:10Z</time>
      </trkpt>
      <trkpt lat="46.59939" lon="6.0988">
        <ele>1070.2</ele>
        <time>2021-08-18T10:27:11Z</time>
      </trkpt>
      <trkpt lat="46.59939" lon="6.09882">
        <ele>1070.3</ele>
        <time>2021-08-18T10:27:12Z</time>
      </trkpt>
      <trkpt lat="46.5994" lon="6.09888">
        <ele>1070.4</ele>
        <time>2021-08-18T10:27:13Z</time>
      </trkpt>
      <trkpt lat="46.59941" lon="6.09893">
        <ele>1070.5</ele>
        <time>2021-08-18T10:27:15Z</time>
      </trkpt>
      <trkpt lat="46.59942" lon="6.09898">
        <ele>1070.6</ele>
        <time>2021-08-18T10:27:16Z</time>
      </trkpt>
      <trkpt lat="46.59943" lon="6.09905">
        <ele>1070.8</ele>
        <time>2021-08-18T10:27:18Z</time>
      </trkpt>
      <trkpt lat="46.59944" lon="6.0991">
        <ele>1071</ele>
        <time>2021-08-18T10:27:19Z</time>
      </trkpt>
      <trkpt lat="46.59945" lon="6.09914">
        <ele>1071.1</ele>
        <time>2021-08-18T10:27:20Z</time>
      </trkpt>
      <trkpt lat="46.59946" lon="6.09922">
        <ele>1071.3</ele>
        <time>2021-08-18T10:27:22Z</time>
      </trkpt>
      <trkpt lat="46.59947" lon="6.09927">
        <ele>1071.3</ele>
        <time>2021-08-18T10:27:23Z</time>
      </trkpt>
      <trkpt lat="46.59948" lon="6.09931">
        <ele>1071.4</ele>
        <time>2021-08-18T10:27:24Z</time>
      </trkpt>
      <trkpt lat="46.59949" lon="6.09938">
        <ele>1071.4</ele>
        <time>2021-08-18T10:27:25Z</time>
      </trkpt>
      <trkpt lat="46.5995" lon="6.09945">
        <ele>1071.5</ele>
        <time>2021-08-18T10:27:27Z</time>
      </trkpt>
      <trkpt lat="46.59952" lon="6.09951">
        <ele>1071.6</ele>
        <time>2021-08-18T10:27:28Z</time>
      </trkpt>
      <trkpt lat="46.59953" lon="6.09956">
        <ele>1071.7</ele>
        <time>2021-08-18T10:27:29Z</time>
      </trkpt>
      <trkpt lat="46.59953" lon="6.09962">
        <ele>1071.8</ele>
        <time>2021-08-18T10:27:31Z</time>
      </trkpt>
      <trkpt lat="46.59953" lon="6.09966">
        <ele>1071.8</ele>
        <time>2021-08-18T10:27:32Z</time>
      </trkpt>
      <trkpt lat="46.59953" lon="6.09972">
        <ele>1071.9</ele>
        <time>2021-08-18T10:27:33Z</time>
      </trkpt>
      <trkpt lat="46.59953" lon="6.09976">
        <ele>1072</ele>
        <time>2021-08-18T10:27:35Z</time>
      </trkpt>
      <trkpt lat="46.59952" lon="6.0998">
        <ele>1072.1</ele>
        <time>2021-08-18T10:27:36Z</time>
      </trkpt>
      <trkpt lat="46.59953" lon="6.09986">
        <ele>1072.2</ele>
        <time>2021-08-18T10:27:38Z</time>
      </trkpt>
      <trkpt lat="46.59955" lon="6.0999">
        <ele>1072.3</ele>
        <time>2021-08-18T10:27:39Z</time>
      </trkpt>
      <trkpt lat="46.59957" lon="6.09993">
        <ele>1072.4</ele>
        <time>2021-08-18T10:27:41Z</time>
      </trkpt>
      <trkpt lat="46.59959" lon="6.09995">
        <ele>1072.4</ele>
        <time>2021-08-18T10:27:42Z</time>
      </trkpt>
      <trkpt lat="46.59961" lon="6.09999">
        <ele>1072.5</ele>
        <time>2021-08-18T10:27:44Z</time>
      </trkpt>
      <trkpt lat="46.59962" lon="6.10002">
        <ele>1072.5</ele>
        <time>2021-08-18T10:27:45Z</time>
      </trkpt>
      <trkpt lat="46.59961" lon="6.10003">
        <ele>1072.5</ele>
        <time>2021-08-18T10:27:47Z</time>
      </trkpt>
      <trkpt lat="46.59961" lon="6.10003">
        <ele>1072.5</ele>
        <time>2021-08-18T10:27:48Z</time>
      </trkpt>
      <trkpt lat="46.59962" lon="6.10003">
        <ele>1072.5</ele>
        <time>2021-08-18T10:27:49Z</time>
      </trkpt>
      <trkpt lat="46.59963" lon="6.10004">
        <ele>1072.5</ele>
        <time>2021-08-18T10:27:51Z</time>
      </trkpt>
      <trkpt lat="46.59963" lon="6.10005">
        <ele>1072.5</ele>
        <time>2021-08-18T10:27:52Z</time>
      </trkpt>
      <trkpt lat="46.59964" lon="6.10005">
        <ele>1072.5</ele>
        <time>2021-08-18T10:27:53Z</time>
      </trkpt>
      <trkpt lat="46.59964" lon="6.10006">
        <ele>1072.5</ele>
        <time>2021-08-18T10:27:54Z</time>
      </trkpt>
      <trkpt lat="46.59965" lon="6.10007">
        <ele>1072.5</ele>
        <time>2021-08-18T10:27:55Z</time>
      </trkpt>
      <trkpt lat="46.59967" lon="6.10008">
        <ele>1072.5</ele>
        <time>2021-08-18T10:27:57Z</time>
      </trkpt>
      <trkpt lat="46.5997" lon="6.10015">
        <ele>1072.4</ele>
        <time>2021-08-18T10:28:00Z</time>
      </trkpt>
      <trkpt lat="46.59978" lon="6.10025">
        <ele>1072.2</ele>
        <time>2021-08-18T10:28:02Z</time>
      </trkpt>
      <trkpt lat="46.59985" lon="6.1003">
        <ele>1072</ele>
        <time>2021-08-18T10:28:03Z</time>
      </trkpt>
      <trkpt lat="46.59992" lon="6.10038">
        <ele>1071.9</ele>
        <time>2021-08-18T10:28:05Z</time>
      </trkpt>
      <trkpt lat="46.59997" lon="6.10042">
        <ele>1071.9</ele>
        <time>2021-08-18T10:28:06Z</time>
      </trkpt>
      <trkpt lat="46.59999" lon="6.10049">
        <ele>1071.9</ele>
        <time>2021-08-18T10:28:07Z</time>
      </trkpt>
      <trkpt lat="46.59999" lon="6.10054">
        <ele>1071.9</ele>
        <time>2021-08-18T10:28:08Z</time>
      </trkpt>
      <trkpt lat="46.59999" lon="6.1006">
        <ele>1071.9</ele>
        <time>2021-08-18T10:28:10Z</time>
      </trkpt>
      <trkpt lat="46.6" lon="6.10066">
        <ele>1071.9</ele>
        <time>2021-08-18T10:28:11Z</time>
      </trkpt>
      <trkpt lat="46.60002" lon="6.10072">
        <ele>1071.8</ele>
        <time>2021-08-18T10:28:12Z</time>
      </trkpt>
      <trkpt lat="46.60002" lon="6.10077">
        <ele>1071.8</ele>
        <time>2021-08-18T10:28:14Z</time>
      </trkpt>
      <trkpt lat="46.60003" lon="6.10082">
        <ele>1071.8</ele>
        <time>2021-08-18T10:28:15Z</time>
      </trkpt>
      <trkpt lat="46.60005" lon="6.10085">
        <ele>1071.8</ele>
        <time>2021-08-18T10:28:16Z</time>
      </trkpt>
      <trkpt lat="46.60007" lon="6.1009">
        <ele>1071.8</ele>
        <time>2021-08-18T10:28:18Z</time>
      </trkpt>
      <trkpt lat="46.60009" lon="6.10094">
        <ele>1071.8</ele>
        <time>2021-08-18T10:28:19Z</time>
      </trkpt>
      <trkpt lat="46.6001" lon="6.10098">
        <ele>1071.8</ele>
        <time>2021-08-18T10:28:20Z</time>
      </trkpt>
      <trkpt lat="46.60013" lon="6.10105">
        <ele>1071.8</ele>
        <time>2021-08-18T10:28:22Z</time>
      </trkpt>
      <trkpt lat="46.60015" lon="6.10109">
        <ele>1071.8</ele>
        <time>2021-08-18T10:28:23Z</time>
      </trkpt>
      <trkpt lat="46.60017" lon="6.10113">
        <ele>1071.8</ele>
        <time>2021-08-18T10:28:24Z</time>
      </trkpt>
      <trkpt lat="46.60022" lon="6.10119">
        <ele>1071.8</ele>
        <time>2021-08-18T10:28:26Z</time>
      </trkpt>
      <trkpt lat="46.60026" lon="6.10121">
        <ele>1071.9</ele>
        <time>2021-08-18T10:28:27Z</time>
      </trkpt>
      <trkpt lat="46.60034" lon="6.10124">
        <ele>1071.9</ele>
        <time>2021-08-18T10:28:29Z</time>
      </trkpt>
      <trkpt lat="46.60038" lon="6.10125">
        <ele>1071.9</ele>
        <time>2021-08-18T10:28:30Z</time>
      </trkpt>
      <trkpt lat="46.60042" lon="6.10127">
        <ele>1072</ele>
        <time>2021-08-18T10:28:31Z</time>
      </trkpt>
      <trkpt lat="46.60045" lon="6.10129">
        <ele>1072</ele>
        <time>2021-08-18T10:28:32Z</time>
      </trkpt>
      <trkpt lat="46.60051" lon="6.10132">
        <ele>1072</ele>
        <time>2021-08-18T10:28:34Z</time>
      </trkpt>
      <trkpt lat="46.60054" lon="6.10133">
        <ele>1072.1</ele>
        <time>2021-08-18T10:28:35Z</time>
      </trkpt>
      <trkpt lat="46.60057" lon="6.10134">
        <ele>1072.1</ele>
        <time>2021-08-18T10:28:36Z</time>
      </trkpt>
      <trkpt lat="46.60062" lon="6.10136">
        <ele>1072.1</ele>
        <time>2021-08-18T10:28:38Z</time>
      </trkpt>
      <trkpt lat="46.60067" lon="6.10135">
        <ele>1072.2</ele>
        <time>2021-08-18T10:28:39Z</time>
      </trkpt>
      <trkpt lat="46.60071" lon="6.10136">
        <ele>1072.2</ele>
        <time>2021-08-18T10:28:41Z</time>
      </trkpt>
      <trkpt lat="46.60074" lon="6.10138">
        <ele>1072.2</ele>
        <time>2021-08-18T10:28:42Z</time>
      </trkpt>
      <trkpt lat="46.60077" lon="6.10141">
        <ele>1072.3</ele>
        <time>2021-08-18T10:28:43Z</time>
      </trkpt>
      <trkpt lat="46.60079" lon="6.10144">
        <ele>1072.3</ele>
        <time>2021-08-18T10:28:45Z</time>
      </trkpt>
      <trkpt lat="46.60081" lon="6.10147">
        <ele>1072.4</ele>
        <time>2021-08-18T10:28:46Z</time>
      </trkpt>
      <trkpt lat="46.60083" lon="6.10151">
        <ele>1072.4</ele>
        <time>2021-08-18T10:28:48Z</time>
      </trkpt>
      <trkpt lat="46.60084" lon="6.10152">
        <ele>1072.4</ele>
        <time>2021-08-18T10:28:49Z</time>
      </trkpt>
      <trkpt lat="46.60085" lon="6.10155">
        <ele>1072.5</ele>
        <time>2021-08-18T10:28:50Z</time>
      </trkpt>
      <trkpt lat="46.60086" lon="6.10158">
        <ele>1072.5</ele>
        <time>2021-08-18T10:28:52Z</time>
      </trkpt>
      <trkpt lat="46.60086" lon="6.10159">
        <ele>1072.5</ele>
        <time>2021-08-18T10:28:53Z</time>
      </trkpt>
      <trkpt lat="46.60085" lon="6.1016">
        <ele>1072.5</ele>
        <time>2021-08-18T10:28:54Z</time>
      </trkpt>
      <trkpt lat="46.60086" lon="6.10161">
        <ele>1072.5</ele>
        <time>2021-08-18T10:28:55Z</time>
      </trkpt>
      <trkpt lat="46.60086" lon="6.10161">
        <ele>1072.5</ele>
        <time>2021-08-18T10:28:57Z</time>
      </trkpt>
      <trkpt lat="46.60086" lon="6.1016">
        <ele>1072.5</ele>
        <time>2021-08-18T10:28:58Z</time>
      </trkpt>
      <trkpt lat="46.60086" lon="6.1016">
        <ele>1072.5</ele>
        <time>2021-08-18T10:29:00Z</time>
      </trkpt>
      <trkpt lat="46.601" lon="6.10173">
        <ele>1072.7</ele>
        <time>2021-08-18T10:29:18Z</time>
      </trkpt>
      <trkpt lat="46.60107" lon="6.10178">
        <ele>1072.7</ele>
        <time>2021-08-18T10:29:20Z</time>
      </trkpt>
      <trkpt lat="46.60115" lon="6.10184">
        <ele>1072.7</ele>
        <time>2021-08-18T10:29:21Z</time>
      </trkpt>
      <trkpt lat="46.60119" lon="6.10186">
        <ele>1072.7</ele>
        <time>2021-08-18T10:29:22Z</time>
      </trkpt>
      <trkpt lat="46.60123" lon="6.10189">
        <ele>1072.7</ele>
        <time>2021-08-18T10:29:24Z</time>
      </trkpt>
      <trkpt lat="46.60126" lon="6.10193">
        <ele>1072.7</ele>
        <time>2021-08-18T10:29:25Z</time>
      </trkpt>
      <trkpt lat="46.60129" lon="6.10198">
        <ele>1072.7</ele>
        <time>2021-08-18T10:29:27Z</time>
      </trkpt>
      <trkpt lat="46.60132" lon="6.10204">
        <ele>1072.7</ele>
        <time>2021-08-18T10:29:28Z</time>
      </trkpt>
      <trkpt lat="46.60134" lon="6.10209">
        <ele>1072.7</ele>
        <time>2021-08-18T10:29:30Z</time>
      </trkpt>
      <trkpt lat="46.60137" lon="6.10213">
        <ele>1072.7</ele>
        <time>2021-08-18T10:29:31Z</time>
      </trkpt>
      <trkpt lat="46.60139" lon="6.10219">
        <ele>1072.7</ele>
        <time>2021-08-18T10:29:33Z</time>
      </trkpt>
      <trkpt lat="46.60141" lon="6.10223">
        <ele>1072.7</ele>
        <time>2021-08-18T10:29:34Z</time>
      </trkpt>
      <trkpt lat="46.60144" lon="6.10228">
        <ele>1072.7</ele>
        <time>2021-08-18T10:29:35Z</time>
      </trkpt>
      <trkpt lat="46.60146" lon="6.10234">
        <ele>1072.8</ele>
        <time>2021-08-18T10:29:37Z</time>
      </trkpt>
      <trkpt lat="46.60148" lon="6.10239">
        <ele>1072.8</ele>
        <time>2021-08-18T10:29:38Z</time>
      </trkpt>
      <trkpt lat="46.60151" lon="6.10243">
        <ele>1072.8</ele>
        <time>2021-08-18T10:29:39Z</time>
      </trkpt>
      <trkpt lat="46.60153" lon="6.10249">
        <ele>1072.8</ele>
        <time>2021-08-18T10:29:40Z</time>
      </trkpt>
      <trkpt lat="46.60155" lon="6.10252">
        <ele>1072.8</ele>
        <time>2021-08-18T10:29:41Z</time>
      </trkpt>
      <trkpt lat="46.60158" lon="6.10256">
        <ele>1072.8</ele>
        <time>2021-08-18T10:29:43Z</time>
      </trkpt>
      <trkpt lat="46.60161" lon="6.10261">
        <ele>1072.8</ele>
        <time>2021-08-18T10:29:44Z</time>
      </trkpt>
      <trkpt lat="46.60162" lon="6.10262">
        <ele>1072.9</ele>
        <time>2021-08-18T10:29:45Z</time>
      </trkpt>
      <trkpt lat="46.60165" lon="6.10266">
        <ele>1072.9</ele>
        <time>2021-08-18T10:29:47Z</time>
      </trkpt>
      <trkpt lat="46.60167" lon="6.10269">
        <ele>1072.9</ele>
        <time>2021-08-18T10:29:48Z</time>
      </trkpt>
      <trkpt lat="46.60169" lon="6.1027">
        <ele>1073</ele>
        <time>2021-08-18T10:29:49Z</time>
      </trkpt>
      <trkpt lat="46.60172" lon="6.10272">
        <ele>1073</ele>
        <time>2021-08-18T10:29:50Z</time>
      </trkpt>
      <trkpt lat="46.60176" lon="6.10276">
        <ele>1073.1</ele>
        <time>2021-08-18T10:29:52Z</time>
      </trkpt>
      <trkpt lat="46.60178" lon="6.1028">
        <ele>1073.2</ele>
        <time>2021-08-18T10:29:53Z</time>
      </trkpt>
      <trkpt lat="46.60179" lon="6.10284">
        <ele>1073.2</ele>
        <time>2021-08-18T10:29:54Z</time>
      </trkpt>
      <trkpt lat="46.6018" lon="6.10289">
        <ele>1073.3</ele>
        <time>2021-08-18T10:29:55Z</time>
      </trkpt>
      <trkpt lat="46.60181" lon="6.10293">
        <ele>1073.4</ele>
        <time>2021-08-18T10:29:56Z</time>
      </trkpt>
      <trkpt lat="46.60183" lon="6.10299">
        <ele>1073.5</ele>
        <time>2021-08-18T10:29:58Z</time>
      </trkpt>
      <trkpt lat="46.60184" lon="6.10303">
        <ele>1073.6</ele>
        <time>2021-08-18T10:29:59Z</time>
      </trkpt>
      <trkpt lat="46.60185" lon="6.10308">
        <ele>1073.7</ele>
        <time>2021-08-18T10:30:00Z</time>
      </trkpt>
      <trkpt lat="46.60184" lon="6.10314">
        <ele>1073.8</ele>
        <time>2021-08-18T10:30:02Z</time>
      </trkpt>
      <trkpt lat="46.60183" lon="6.1032">
        <ele>1073.8</ele>
        <time>2021-08-18T10:30:03Z</time>
      </trkpt>
      <trkpt lat="46.60181" lon="6.10324">
        <ele>1073.9</ele>
        <time>2021-08-18T10:30:04Z</time>
      </trkpt>
      <trkpt lat="46.60179" lon="6.1033">
        <ele>1074</ele>
        <time>2021-08-18T10:30:05Z</time>
      </trkpt>
      <trkpt lat="46.60177" lon="6.10335">
        <ele>1074</ele>
        <time>2021-08-18T10:30:06Z</time>
      </trkpt>
      <trkpt lat="46.60174" lon="6.10343">
        <ele>1074.1</ele>
        <time>2021-08-18T10:30:08Z</time>
      </trkpt>
      <trkpt lat="46.60171" lon="6.10351">
        <ele>1074.1</ele>
        <time>2021-08-18T10:30:10Z</time>
      </trkpt>
      <trkpt lat="46.60167" lon="6.10358">
        <ele>1074.2</ele>
        <time>2021-08-18T10:30:11Z</time>
      </trkpt>
      <trkpt lat="46.60164" lon="6.10363">
        <ele>1074.2</ele>
        <time>2021-08-18T10:30:13Z</time>
      </trkpt>
      <trkpt lat="46.60159" lon="6.1037">
        <ele>1074.4</ele>
        <time>2021-08-18T10:30:15Z</time>
      </trkpt>
      <trkpt lat="46.60156" lon="6.10372">
        <ele>1074.5</ele>
        <time>2021-08-18T10:30:16Z</time>
      </trkpt>
      <trkpt lat="46.60152" lon="6.10375">
        <ele>1074.6</ele>
        <time>2021-08-18T10:30:18Z</time>
      </trkpt>
      <trkpt lat="46.6015" lon="6.10378">
        <ele>1074.7</ele>
        <time>2021-08-18T10:30:19Z</time>
      </trkpt>
      <trkpt lat="46.60149" lon="6.10379">
        <ele>1074.8</ele>
        <time>2021-08-18T10:30:20Z</time>
      </trkpt>
      <trkpt lat="46.60145" lon="6.10381">
        <ele>1074.9</ele>
        <time>2021-08-18T10:30:21Z</time>
      </trkpt>
      <trkpt lat="46.60142" lon="6.10382">
        <ele>1075</ele>
        <time>2021-08-18T10:30:23Z</time>
      </trkpt>
      <trkpt lat="46.60139" lon="6.10384">
        <ele>1075.2</ele>
        <time>2021-08-18T10:30:24Z</time>
      </trkpt>
      <trkpt lat="46.60137" lon="6.10385">
        <ele>1075.3</ele>
        <time>2021-08-18T10:30:25Z</time>
      </trkpt>
      <trkpt lat="46.60135" lon="6.10387">
        <ele>1075.4</ele>
        <time>2021-08-18T10:30:27Z</time>
      </trkpt>
      <trkpt lat="46.60133" lon="6.1039">
        <ele>1075.5</ele>
        <time>2021-08-18T10:30:28Z</time>
      </trkpt>
      <trkpt lat="46.60132" lon="6.10394">
        <ele>1075.6</ele>
        <time>2021-08-18T10:30:29Z</time>
      </trkpt>
      <trkpt lat="46.60131" lon="6.10398">
        <ele>1075.7</ele>
        <time>2021-08-18T10:30:31Z</time>
      </trkpt>
      <trkpt lat="46.60131" lon="6.104">
        <ele>1075.7</ele>
        <time>2021-08-18T10:30:32Z</time>
      </trkpt>
      <trkpt lat="46.6013" lon="6.10402">
        <ele>1075.8</ele>
        <time>2021-08-18T10:30:33Z</time>
      </trkpt>
      <trkpt lat="46.60129" lon="6.10404">
        <ele>1075.8</ele>
        <time>2021-08-18T10:30:35Z</time>
      </trkpt>
      <trkpt lat="46.60127" lon="6.10405">
        <ele>1075.9</ele>
        <time>2021-08-18T10:30:36Z</time>
      </trkpt>
      <trkpt lat="46.60125" lon="6.10406">
        <ele>1075.9</ele>
        <time>2021-08-18T10:30:38Z</time>
      </trkpt>
      <trkpt lat="46.60122" lon="6.1041">
        <ele>1076</ele>
        <time>2021-08-18T10:30:40Z</time>
      </trkpt>
      <trkpt lat="46.6012" lon="6.10413">
        <ele>1076</ele>
        <time>2021-08-18T10:30:41Z</time>
      </trkpt>
      <trkpt lat="46.60119" lon="6.10414">
        <ele>1076</ele>
        <time>2021-08-18T10:30:42Z</time>
      </trkpt>
      <trkpt lat="46.60116" lon="6.10416">
        <ele>1076</ele>
        <time>2021-08-18T10:30:43Z</time>
      </trkpt>
      <trkpt lat="46.60115" lon="6.10416">
        <ele>1076</ele>
        <time>2021-08-18T10:30:44Z</time>
      </trkpt>
      <trkpt lat="46.60113" lon="6.10418">
        <ele>1076</ele>
        <time>2021-08-18T10:30:45Z</time>
      </trkpt>
      <trkpt lat="46.60112" lon="6.10419">
        <ele>1075.9</ele>
        <time>2021-08-18T10:30:47Z</time>
      </trkpt>
      <trkpt lat="46.6011" lon="6.10422">
        <ele>1075.9</ele>
        <time>2021-08-18T10:30:48Z</time>
      </trkpt>
      <trkpt lat="46.60109" lon="6.10423">
        <ele>1075.9</ele>
        <time>2021-08-18T10:30:49Z</time>
      </trkpt>
      <trkpt lat="46.60106" lon="6.10428">
        <ele>1075.8</ele>
        <time>2021-08-18T10:30:51Z</time>
      </trkpt>
      <trkpt lat="46.60106" lon="6.10429">
        <ele>1075.7</ele>
        <time>2021-08-18T10:30:52Z</time>
      </trkpt>
      <trkpt lat="46.60105" lon="6.10433">
        <ele>1075.6</ele>
        <time>2021-08-18T10:30:53Z</time>
      </trkpt>
      <trkpt lat="46.60103" lon="6.10439">
        <ele>1075.4</ele>
        <time>2021-08-18T10:30:55Z</time>
      </trkpt>
      <trkpt lat="46.60101" lon="6.10444">
        <ele>1075.3</ele>
        <time>2021-08-18T10:30:56Z</time>
      </trkpt>
      <trkpt lat="46.60098" lon="6.10452">
        <ele>1075.1</ele>
        <time>2021-08-18T10:30:57Z</time>
      </trkpt>
      <trkpt lat="46.60096" lon="6.10458">
        <ele>1074.9</ele>
        <time>2021-08-18T10:30:59Z</time>
      </trkpt>
      <trkpt lat="46.60093" lon="6.10463">
        <ele>1074.8</ele>
        <time>2021-08-18T10:31:00Z</time>
      </trkpt>
      <trkpt lat="46.60089" lon="6.10469">
        <ele>1074.6</ele>
        <time>2021-08-18T10:31:01Z</time>
      </trkpt>
      <trkpt lat="46.60086" lon="6.10474">
        <ele>1074.5</ele>
        <time>2021-08-18T10:31:02Z</time>
      </trkpt>
      <trkpt lat="46.60082" lon="6.10481">
        <ele>1074.4</ele>
        <time>2021-08-18T10:31:04Z</time>
      </trkpt>
      <trkpt lat="46.60079" lon="6.10484">
        <ele>1074.4</ele>
        <time>2021-08-18T10:31:05Z</time>
      </trkpt>
      <trkpt lat="46.60076" lon="6.10488">
        <ele>1074.3</ele>
        <time>2021-08-18T10:31:06Z</time>
      </trkpt>
      <trkpt lat="46.6007" lon="6.10494">
        <ele>1074.3</ele>
        <time>2021-08-18T10:31:08Z</time>
      </trkpt>
      <trkpt lat="46.60066" lon="6.10501">
        <ele>1074.4</ele>
        <time>2021-08-18T10:31:09Z</time>
      </trkpt>
      <trkpt lat="46.60062" lon="6.10506">
        <ele>1074.5</ele>
        <time>2021-08-18T10:31:11Z</time>
      </trkpt>
      <trkpt lat="46.6006" lon="6.10508">
        <ele>1074.5</ele>
        <time>2021-08-18T10:31:12Z</time>
      </trkpt>
      <trkpt lat="46.60058" lon="6.1051">
        <ele>1074.5</ele>
        <time>2021-08-18T10:31:13Z</time>
      </trkpt>
      <trkpt lat="46.60056" lon="6.10511">
        <ele>1074.6</ele>
        <time>2021-08-18T10:31:15Z</time>
      </trkpt>
      <trkpt lat="46.60056" lon="6.10512">
        <ele>1074.6</ele>
        <time>2021-08-18T10:31:16Z</time>
      </trkpt>
      <trkpt lat="46.60056" lon="6.10514">
        <ele>1074.6</ele>
        <time>2021-08-18T10:31:17Z</time>
      </trkpt>
      <trkpt lat="46.60055" lon="6.10515">
        <ele>1074.7</ele>
        <time>2021-08-18T10:31:18Z</time>
      </trkpt>
      <trkpt lat="46.60054" lon="6.10517">
        <ele>1074.7</ele>
        <time>2021-08-18T10:31:20Z</time>
      </trkpt>
      <trkpt lat="46.60053" lon="6.10519">
        <ele>1074.7</ele>
        <time>2021-08-18T10:31:21Z</time>
      </trkpt>
      <trkpt lat="46.60052" lon="6.10521">
        <ele>1074.7</ele>
        <time>2021-08-18T10:31:23Z</time>
      </trkpt>
      <trkpt lat="46.60051" lon="6.10522">
        <ele>1074.8</ele>
        <time>2021-08-18T10:31:24Z</time>
      </trkpt>
      <trkpt lat="46.6005" lon="6.10524">
        <ele>1074.8</ele>
        <time>2021-08-18T10:31:25Z</time>
      </trkpt>
      <trkpt lat="46.60049" lon="6.10526">
        <ele>1074.8</ele>
        <time>2021-08-18T10:31:27Z</time>
      </trkpt>
      <trkpt lat="46.60048" lon="6.10528">
        <ele>1074.8</ele>
        <time>2021-08-18T10:31:45Z</time>
      </trkpt>
      <trkpt lat="46.60047" lon="6.10529">
        <ele>1074.8</ele>
        <time>2021-08-18T10:31:46Z</time>
      </trkpt>
      <trkpt lat="46.60043" lon="6.10538">
        <ele>1074.8</ele>
        <time>2021-08-18T10:31:48Z</time>
      </trkpt>
      <trkpt lat="46.60039" lon="6.10547">
        <ele>1074.7</ele>
        <time>2021-08-18T10:31:49Z</time>
      </trkpt>
      <trkpt lat="46.60037" lon="6.10552">
        <ele>1074.7</ele>
        <time>2021-08-18T10:31:50Z</time>
      </trkpt>
      <trkpt lat="46.60036" lon="6.10557">
        <ele>1074.7</ele>
        <time>2021-08-18T10:31:52Z</time>
      </trkpt>
      <trkpt lat="46.60034" lon="6.10562">
        <ele>1074.7</ele>
        <time>2021-08-18T10:31:53Z</time>
      </trkpt>
      <trkpt lat="46.60033" lon="6.10566">
        <ele>1074.7</ele>
        <time>2021-08-18T10:31:54Z</time>
      </trkpt>
      <trkpt lat="46.60034" lon="6.10571">
        <ele>1074.7</ele>
        <time>2021-08-18T10:31:55Z</time>
      </trkpt>
      <trkpt lat="46.60035" lon="6.10574">
        <ele>1074.6</ele>
        <time>2021-08-18T10:31:56Z</time>
      </trkpt>
      <trkpt lat="46.60037" lon="6.10579">
        <ele>1074.4</ele>
        <time>2021-08-18T10:31:57Z</time>
      </trkpt>
      <trkpt lat="46.6004" lon="6.10587">
        <ele>1074.1</ele>
        <time>2021-08-18T10:31:58Z</time>
      </trkpt>
      <trkpt lat="46.60047" lon="6.106">
        <ele>1073.6</ele>
        <time>2021-08-18T10:32:00Z</time>
      </trkpt>
      <trkpt lat="46.60053" lon="6.10618">
        <ele>1073</ele>
        <time>2021-08-18T10:32:02Z</time>
      </trkpt>
      <trkpt lat="46.60055" lon="6.10628">
        <ele>1072.7</ele>
        <time>2021-08-18T10:32:03Z</time>
      </trkpt>
      <trkpt lat="46.60056" lon="6.10638">
        <ele>1072.5</ele>
        <time>2021-08-18T10:32:04Z</time>
      </trkpt>
      <trkpt lat="46.60057" lon="6.10649">
        <ele>1072.2</ele>
        <time>2021-08-18T10:32:05Z</time>
      </trkpt>
      <trkpt lat="46.6006" lon="6.10659">
        <ele>1072</ele>
        <time>2021-08-18T10:32:06Z</time>
      </trkpt>
      <trkpt lat="46.60063" lon="6.10669">
        <ele>1071.8</ele>
        <time>2021-08-18T10:32:07Z</time>
      </trkpt>
      <trkpt lat="46.60069" lon="6.10687">
        <ele>1071.6</ele>
        <time>2021-08-18T10:32:09Z</time>
      </trkpt>
      <trkpt lat="46.60074" lon="6.10703">
        <ele>1071.5</ele>
        <time>2021-08-18T10:32:11Z</time>
      </trkpt>
      <trkpt lat="46.60078" lon="6.10718">
        <ele>1071.5</ele>
        <time>2021-08-18T10:32:13Z</time>
      </trkpt>
      <trkpt lat="46.6008" lon="6.10725">
        <ele>1071.5</ele>
        <time>2021-08-18T10:32:14Z</time>
      </trkpt>
      <trkpt lat="46.60081" lon="6.10737">
        <ele>1071.5</ele>
        <time>2021-08-18T10:32:16Z</time>
      </trkpt>
      <trkpt lat="46.60081" lon="6.10742">
        <ele>1071.5</ele>
        <time>2021-08-18T10:32:17Z</time>
      </trkpt>
      <trkpt lat="46.60078" lon="6.10753">
        <ele>1071.5</ele>
        <time>2021-08-18T10:32:19Z</time>
      </trkpt>
      <trkpt lat="46.60076" lon="6.10758">
        <ele>1071.5</ele>
        <time>2021-08-18T10:32:20Z</time>
      </trkpt>
      <trkpt lat="46.60077" lon="6.10763">
        <ele>1071.5</ele>
        <time>2021-08-18T10:32:22Z</time>
      </trkpt>
      <trkpt lat="46.60077" lon="6.10765">
        <ele>1071.5</ele>
        <time>2021-08-18T10:32:23Z</time>
      </trkpt>
      <trkpt lat="46.60078" lon="6.10766">
        <ele>1071.5</ele>
        <time>2021-08-18T10:32:24Z</time>
      </trkpt>
      <trkpt lat="46.60077" lon="6.10763">
        <ele>1071.5</ele>
        <time>2021-08-18T10:32:26Z</time>
      </trkpt>
      <trkpt lat="46.60077" lon="6.10762">
        <ele>1071.5</ele>
        <time>2021-08-18T10:32:27Z</time>
      </trkpt>
      <trkpt lat="46.60079" lon="6.1076">
        <ele>1071.5</ele>
        <time>2021-08-18T10:32:28Z</time>
      </trkpt>
      <trkpt lat="46.60079" lon="6.10755">
        <ele>1071.5</ele>
        <time>2021-08-18T10:32:29Z</time>
      </trkpt>
      <trkpt lat="46.60078" lon="6.10747">
        <ele>1071.5</ele>
        <time>2021-08-18T10:32:31Z</time>
      </trkpt>
      <trkpt lat="46.60078" lon="6.1074">
        <ele>1071.5</ele>
        <time>2021-08-18T10:32:32Z</time>
      </trkpt>
      <trkpt lat="46.60078" lon="6.10734">
        <ele>1071.5</ele>
        <time>2021-08-18T10:32:33Z</time>
      </trkpt>
      <trkpt lat="46.60077" lon="6.10727">
        <ele>1071.5</ele>
        <time>2021-08-18T10:32:34Z</time>
      </trkpt>
      <trkpt lat="46.60075" lon="6.1072">
        <ele>1071.5</ele>
        <time>2021-08-18T10:32:36Z</time>
      </trkpt>
      <trkpt lat="46.60072" lon="6.10715">
        <ele>1071.5</ele>
        <time>2021-08-18T10:32:37Z</time>
      </trkpt>
      <trkpt lat="46.6007" lon="6.1071">
        <ele>1071.5</ele>
        <time>2021-08-18T10:32:38Z</time>
      </trkpt>
      <trkpt lat="46.60069" lon="6.10706">
        <ele>1071.5</ele>
        <time>2021-08-18T10:32:40Z</time>
      </trkpt>
      <trkpt lat="46.60068" lon="6.10704">
        <ele>1071.5</ele>
        <time>2021-08-18T10:32:41Z</time>
      </trkpt>
      <trkpt lat="46.60068" lon="6.10703">
        <ele>1071.5</ele>
        <time>2021-08-18T10:32:43Z</time>
      </trkpt>
      <trkpt lat="46.60068" lon="6.10702">
        <ele>1071.5</ele>
        <time>2021-08-18T10:32:44Z</time>
      </trkpt>
      <trkpt lat="46.60068" lon="6.10702">
        <ele>1071.5</ele>
        <time>2021-08-18T10:32:45Z</time>
      </trkpt>
      <trkpt lat="46.60068" lon="6.10702">
        <ele>1071.5</ele>
        <time>2021-08-18T10:32:47Z</time>
      </trkpt>
      <trkpt lat="46.60068" lon="6.10702">
        <ele>1071.5</ele>
        <time>2021-08-18T10:32:48Z</time>
      </trkpt>
      <trkpt lat="46.60072" lon="6.10712">
        <ele>1071.5</ele>
        <time>2021-08-18T10:32:55Z</time>
      </trkpt>
      <trkpt lat="46.60074" lon="6.10717">
        <ele>1071.5</ele>
        <time>2021-08-18T10:32:56Z</time>
      </trkpt>
      <trkpt lat="46.60075" lon="6.10723">
        <ele>1071.5</ele>
        <time>2021-08-18T10:32:57Z</time>
      </trkpt>
      <trkpt lat="46.60075" lon="6.10735">
        <ele>1071.5</ele>
        <time>2021-08-18T10:32:58Z</time>
      </trkpt>
      <trkpt lat="46.60075" lon="6.10742">
        <ele>1071.5</ele>
        <time>2021-08-18T10:32:59Z</time>
      </trkpt>
      <trkpt lat="46.60075" lon="6.10749">
        <ele>1071.5</ele>
        <time>2021-08-18T10:33:01Z</time>
      </trkpt>
      <trkpt lat="46.60074" lon="6.10756">
        <ele>1071.5</ele>
        <time>2021-08-18T10:33:02Z</time>
      </trkpt>
      <trkpt lat="46.60074" lon="6.10764">
        <ele>1071.6</ele>
        <time>2021-08-18T10:33:03Z</time>
      </trkpt>
      <trkpt lat="46.60075" lon="6.10772">
        <ele>1071.6</ele>
        <time>2021-08-18T10:33:04Z</time>
      </trkpt>
      <trkpt lat="46.60075" lon="6.10779">
        <ele>1071.6</ele>
        <time>2021-08-18T10:33:05Z</time>
      </trkpt>
      <trkpt lat="46.60075" lon="6.10785">
        <ele>1071.6</ele>
        <time>2021-08-18T10:33:06Z</time>
      </trkpt>
      <trkpt lat="46.60075" lon="6.10791">
        <ele>1071.6</ele>
        <time>2021-08-18T10:33:08Z</time>
      </trkpt>
      <trkpt lat="46.60075" lon="6.10798">
        <ele>1071.6</ele>
        <time>2021-08-18T10:33:09Z</time>
      </trkpt>
      <trkpt lat="46.60074" lon="6.1081">
        <ele>1071.6</ele>
        <time>2021-08-18T10:33:11Z</time>
      </trkpt>
      <trkpt lat="46.60073" lon="6.10822">
        <ele>1071.7</ele>
        <time>2021-08-18T10:33:13Z</time>
      </trkpt>
      <trkpt lat="46.60072" lon="6.10827">
        <ele>1071.7</ele>
        <time>2021-08-18T10:33:14Z</time>
      </trkpt>
      <trkpt lat="46.60071" lon="6.10834">
        <ele>1071.7</ele>
        <time>2021-08-18T10:33:15Z</time>
      </trkpt>
      <trkpt lat="46.6007" lon="6.1084">
        <ele>1071.7</ele>
        <time>2021-08-18T10:33:16Z</time>
      </trkpt>
      <trkpt lat="46.60069" lon="6.10845">
        <ele>1071.7</ele>
        <time>2021-08-18T10:33:18Z</time>
      </trkpt>
      <trkpt lat="46.60067" lon="6.1085">
        <ele>1071.8</ele>
        <time>2021-08-18T10:33:19Z</time>
      </trkpt>
      <trkpt lat="46.60066" lon="6.10855">
        <ele>1071.8</ele>
        <time>2021-08-18T10:33:20Z</time>
      </trkpt>
      <trkpt lat="46.60063" lon="6.10862">
        <ele>1071.8</ele>
        <time>2021-08-18T10:33:21Z</time>
      </trkpt>
      <trkpt lat="46.60061" lon="6.10866">
        <ele>1071.8</ele>
        <time>2021-08-18T10:33:23Z</time>
      </trkpt>
      <trkpt lat="46.60058" lon="6.10869">
        <ele>1071.8</ele>
        <time>2021-08-18T10:33:24Z</time>
      </trkpt>
      <trkpt lat="46.60053" lon="6.10875">
        <ele>1071.8</ele>
        <time>2021-08-18T10:33:25Z</time>
      </trkpt>
      <trkpt lat="46.6005" lon="6.1088">
        <ele>1071.8</ele>
        <time>2021-08-18T10:33:27Z</time>
      </trkpt>
      <trkpt lat="46.60046" lon="6.10891">
        <ele>1071.8</ele>
        <time>2021-08-18T10:33:29Z</time>
      </trkpt>
      <trkpt lat="46.60044" lon="6.10897">
        <ele>1071.8</ele>
        <time>2021-08-18T10:33:30Z</time>
      </trkpt>
      <trkpt lat="46.60042" lon="6.10903">
        <ele>1071.8</ele>
        <time>2021-08-18T10:33:31Z</time>
      </trkpt>
      <trkpt lat="46.6004" lon="6.10909">
        <ele>1071.8</ele>
        <time>2021-08-18T10:33:32Z</time>
      </trkpt>
      <trkpt lat="46.60037" lon="6.10914">
        <ele>1071.9</ele>
        <time>2021-08-18T10:33:33Z</time>
      </trkpt>
      <trkpt lat="46.60034" lon="6.1092">
        <ele>1071.9</ele>
        <time>2021-08-18T10:33:34Z</time>
      </trkpt>
      <trkpt lat="46.60034" lon="6.10927">
        <ele>1072</ele>
        <time>2021-08-18T10:33:35Z</time>
      </trkpt>
      <trkpt lat="46.60033" lon="6.10935">
        <ele>1072</ele>
        <time>2021-08-18T10:33:37Z</time>
      </trkpt>
      <trkpt lat="46.60033" lon="6.10943">
        <ele>1072</ele>
        <time>2021-08-18T10:33:38Z</time>
      </trkpt>
      <trkpt lat="46.60031" lon="6.10954">
        <ele>1072.1</ele>
        <time>2021-08-18T10:33:40Z</time>
      </trkpt>
      <trkpt lat="46.60028" lon="6.10961">
        <ele>1072.1</ele>
        <time>2021-08-18T10:33:41Z</time>
      </trkpt>
      <trkpt lat="46.60026" lon="6.10967">
        <ele>1072.1</ele>
        <time>2021-08-18T10:33:42Z</time>
      </trkpt>
      <trkpt lat="46.60023" lon="6.10981">
        <ele>1072.2</ele>
        <time>2021-08-18T10:33:44Z</time>
      </trkpt>
      <trkpt lat="46.6002" lon="6.10995">
        <ele>1072.3</ele>
        <time>2021-08-18T10:33:46Z</time>
      </trkpt>
      <trkpt lat="46.60018" lon="6.11002">
        <ele>1072.4</ele>
        <time>2021-08-18T10:33:47Z</time>
      </trkpt>
      <trkpt lat="46.60017" lon="6.11008">
        <ele>1072.6</ele>
        <time>2021-08-18T10:33:48Z</time>
      </trkpt>
      <trkpt lat="46.60018" lon="6.11016">
        <ele>1072.8</ele>
        <time>2021-08-18T10:33:49Z</time>
      </trkpt>
      <trkpt lat="46.60017" lon="6.11021">
        <ele>1072.9</ele>
        <time>2021-08-18T10:33:50Z</time>
      </trkpt>
      <trkpt lat="46.60015" lon="6.11027">
        <ele>1073.1</ele>
        <time>2021-08-18T10:33:52Z</time>
      </trkpt>
      <trkpt lat="46.60014" lon="6.11034">
        <ele>1073.3</ele>
        <time>2021-08-18T10:33:53Z</time>
      </trkpt>
      <trkpt lat="46.60012" lon="6.11039">
        <ele>1073.5</ele>
        <time>2021-08-18T10:33:54Z</time>
      </trkpt>
      <trkpt lat="46.60011" lon="6.11044">
        <ele>1073.6</ele>
        <time>2021-08-18T10:33:56Z</time>
      </trkpt>
      <trkpt lat="46.60009" lon="6.1105">
        <ele>1073.9</ele>
        <time>2021-08-18T10:33:57Z</time>
      </trkpt>
      <trkpt lat="46.60007" lon="6.11056">
        <ele>1074.1</ele>
        <time>2021-08-18T10:33:59Z</time>
      </trkpt>
      <trkpt lat="46.60006" lon="6.11059">
        <ele>1074.2</ele>
        <time>2021-08-18T10:34:00Z</time>
      </trkpt>
      <trkpt lat="46.60004" lon="6.11065">
        <ele>1074.4</ele>
        <time>2021-08-18T10:34:01Z</time>
      </trkpt>
      <trkpt lat="46.60003" lon="6.11071">
        <ele>1074.7</ele>
        <time>2021-08-18T10:34:03Z</time>
      </trkpt>
      <trkpt lat="46.60002" lon="6.11076">
        <ele>1074.9</ele>
        <time>2021-08-18T10:34:04Z</time>
      </trkpt>
      <trkpt lat="46.60001" lon="6.11077">
        <ele>1075</ele>
        <time>2021-08-18T10:34:05Z</time>
      </trkpt>
      <trkpt lat="46.6" lon="6.1108">
        <ele>1075.1</ele>
        <time>2021-08-18T10:34:06Z</time>
      </trkpt>
      <trkpt lat="46.59999" lon="6.11083">
        <ele>1075.3</ele>
        <time>2021-08-18T10:34:08Z</time>
      </trkpt>
      <trkpt lat="46.59998" lon="6.11087">
        <ele>1075.5</ele>
        <time>2021-08-18T10:34:09Z</time>
      </trkpt>
      <trkpt lat="46.59997" lon="6.11089">
        <ele>1075.6</ele>
        <time>2021-08-18T10:34:10Z</time>
      </trkpt>
      <trkpt lat="46.59997" lon="6.11092">
        <ele>1075.8</ele>
        <time>2021-08-18T10:34:11Z</time>
      </trkpt>
      <trkpt lat="46.59995" lon="6.11095">
        <ele>1076</ele>
        <time>2021-08-18T10:34:13Z</time>
      </trkpt>
      <trkpt lat="46.59994" lon="6.11099">
        <ele>1076.2</ele>
        <time>2021-08-18T10:34:14Z</time>
      </trkpt>
      <trkpt lat="46.59994" lon="6.11101">
        <ele>1076.3</ele>
        <time>2021-08-18T10:34:15Z</time>
      </trkpt>
      <trkpt lat="46.59993" lon="6.11105">
        <ele>1076.6</ele>
        <time>2021-08-18T10:34:17Z</time>
      </trkpt>
      <trkpt lat="46.59992" lon="6.11106">
        <ele>1076.7</ele>
        <time>2021-08-18T10:34:18Z</time>
      </trkpt>
      <trkpt lat="46.5999" lon="6.1111">
        <ele>1077</ele>
        <time>2021-08-18T10:34:19Z</time>
      </trkpt>
      <trkpt lat="46.59989" lon="6.1111">
        <ele>1077.1</ele>
        <time>2021-08-18T10:34:20Z</time>
      </trkpt>
      <trkpt lat="46.59989" lon="6.11113">
        <ele>1077.2</ele>
        <time>2021-08-18T10:34:22Z</time>
      </trkpt>
      <trkpt lat="46.5999" lon="6.11115">
        <ele>1077.4</ele>
        <time>2021-08-18T10:34:23Z</time>
      </trkpt>
      <trkpt lat="46.5999" lon="6.11121">
        <ele>1077.7</ele>
        <time>2021-08-18T10:34:24Z</time>
      </trkpt>
      <trkpt lat="46.59989" lon="6.11122">
        <ele>1077.8</ele>
        <time>2021-08-18T10:34:25Z</time>
      </trkpt>
      <trkpt lat="46.59988" lon="6.11129">
        <ele>1078.2</ele>
        <time>2021-08-18T10:34:27Z</time>
      </trkpt>
      <trkpt lat="46.59987" lon="6.11131">
        <ele>1078.3</ele>
        <time>2021-08-18T10:34:28Z</time>
      </trkpt>
      <trkpt lat="46.59987" lon="6.11133">
        <ele>1078.5</ele>
        <time>2021-08-18T10:34:29Z</time>
      </trkpt>
      <trkpt lat="46.59987" lon="6.11138">
        <ele>1078.7</ele>
        <time>2021-08-18T10:34:30Z</time>
      </trkpt>
      <trkpt lat="46.59987" lon="6.11139">
        <ele>1078.8</ele>
        <time>2021-08-18T10:34:31Z</time>
      </trkpt>
      <trkpt lat="46.59986" lon="6.11142">
        <ele>1079</ele>
        <time>2021-08-18T10:34:32Z</time>
      </trkpt>
      <trkpt lat="46.59986" lon="6.11144">
        <ele>1079.2</ele>
        <time>2021-08-18T10:34:34Z</time>
      </trkpt>
      <trkpt lat="46.59986" lon="6.11146">
        <ele>1079.3</ele>
        <time>2021-08-18T10:34:35Z</time>
      </trkpt>
      <trkpt lat="46.59985" lon="6.11148">
        <ele>1079.4</ele>
        <time>2021-08-18T10:34:36Z</time>
      </trkpt>
      <trkpt lat="46.59985" lon="6.1115">
        <ele>1079.6</ele>
        <time>2021-08-18T10:34:38Z</time>
      </trkpt>
      <trkpt lat="46.59985" lon="6.11153">
        <ele>1079.7</ele>
        <time>2021-08-18T10:34:39Z</time>
      </trkpt>
      <trkpt lat="46.59985" lon="6.11155">
        <ele>1079.9</ele>
        <time>2021-08-18T10:34:40Z</time>
      </trkpt>
      <trkpt lat="46.59985" lon="6.11157">
        <ele>1080</ele>
        <time>2021-08-18T10:34:41Z</time>
      </trkpt>
      <trkpt lat="46.59984" lon="6.1116">
        <ele>1080.2</ele>
        <time>2021-08-18T10:34:43Z</time>
      </trkpt>
      <trkpt lat="46.59982" lon="6.11162">
        <ele>1080.4</ele>
        <time>2021-08-18T10:34:45Z</time>
      </trkpt>
      <trkpt lat="46.59982" lon="6.11164">
        <ele>1080.5</ele>
        <time>2021-08-18T10:34:46Z</time>
      </trkpt>
      <trkpt lat="46.59983" lon="6.11166">
        <ele>1080.7</ele>
        <time>2021-08-18T10:34:47Z</time>
      </trkpt>
      <trkpt lat="46.59984" lon="6.11167">
        <ele>1080.7</ele>
        <time>2021-08-18T10:34:48Z</time>
      </trkpt>
      <trkpt lat="46.59984" lon="6.11168">
        <ele>1080.8</ele>
        <time>2021-08-18T10:34:50Z</time>
      </trkpt>
      <trkpt lat="46.59984" lon="6.11169">
        <ele>1080.9</ele>
        <time>2021-08-18T10:34:51Z</time>
      </trkpt>
      <trkpt lat="46.59985" lon="6.1117">
        <ele>1081</ele>
        <time>2021-08-18T10:34:52Z</time>
      </trkpt>
      <trkpt lat="46.59985" lon="6.11172">
        <ele>1081</ele>
        <time>2021-08-18T10:34:53Z</time>
      </trkpt>
      <trkpt lat="46.59984" lon="6.11173">
        <ele>1081.1</ele>
        <time>2021-08-18T10:34:54Z</time>
      </trkpt>
      <trkpt lat="46.59983" lon="6.11175">
        <ele>1081.3</ele>
        <time>2021-08-18T10:34:55Z</time>
      </trkpt>
      <trkpt lat="46.59981" lon="6.11178">
        <ele>1081.5</ele>
        <time>2021-08-18T10:34:57Z</time>
      </trkpt>
      <trkpt lat="46.59981" lon="6.11179">
        <ele>1081.6</ele>
        <time>2021-08-18T10:34:58Z</time>
      </trkpt>
      <trkpt lat="46.5998" lon="6.11179">
        <ele>1081.7</ele>
        <time>2021-08-18T10:34:59Z</time>
      </trkpt>
      <trkpt lat="46.5998" lon="6.11181">
        <ele>1081.8</ele>
        <time>2021-08-18T10:35:00Z</time>
      </trkpt>
      <trkpt lat="46.59979" lon="6.11183">
        <ele>1081.9</ele>
        <time>2021-08-18T10:35:01Z</time>
      </trkpt>
      <trkpt lat="46.59978" lon="6.11185">
        <ele>1082.1</ele>
        <time>2021-08-18T10:35:02Z</time>
      </trkpt>
      <trkpt lat="46.59977" lon="6.11186">
        <ele>1082.2</ele>
        <time>2021-08-18T10:35:04Z</time>
      </trkpt>
      <trkpt lat="46.59977" lon="6.11188">
        <ele>1082.3</ele>
        <time>2021-08-18T10:35:05Z</time>
      </trkpt>
      <trkpt lat="46.59977" lon="6.11194">
        <ele>1082.7</ele>
        <time>2021-08-18T10:35:07Z</time>
      </trkpt>
      <trkpt lat="46.59976" lon="6.11196">
        <ele>1082.9</ele>
        <time>2021-08-18T10:35:08Z</time>
      </trkpt>
      <trkpt lat="46.59976" lon="6.11197">
        <ele>1083</ele>
        <time>2021-08-18T10:35:09Z</time>
      </trkpt>
      <trkpt lat="46.59977" lon="6.11203">
        <ele>1083.4</ele>
        <time>2021-08-18T10:35:11Z</time>
      </trkpt>
      <trkpt lat="46.59977" lon="6.11208">
        <ele>1083.7</ele>
        <time>2021-08-18T10:35:13Z</time>
      </trkpt>
      <trkpt lat="46.59976" lon="6.11214">
        <ele>1084.1</ele>
        <time>2021-08-18T10:35:15Z</time>
      </trkpt>
      <trkpt lat="46.59974" lon="6.1122">
        <ele>1084.6</ele>
        <time>2021-08-18T10:35:16Z</time>
      </trkpt>
      <trkpt lat="46.59974" lon="6.11226">
        <ele>1084.9</ele>
        <time>2021-08-18T10:35:18Z</time>
      </trkpt>
      <trkpt lat="46.59973" lon="6.1123">
        <ele>1085.2</ele>
        <time>2021-08-18T10:35:19Z</time>
      </trkpt>
      <trkpt lat="46.59973" lon="6.11235">
        <ele>1085.5</ele>
        <time>2021-08-18T10:35:20Z</time>
      </trkpt>
      <trkpt lat="46.59972" lon="6.11237">
        <ele>1085.6</ele>
        <time>2021-08-18T10:35:21Z</time>
      </trkpt>
      <trkpt lat="46.59972" lon="6.11241">
        <ele>1085.8</ele>
        <time>2021-08-18T10:35:23Z</time>
      </trkpt>
      <trkpt lat="46.59971" lon="6.11245">
        <ele>1086</ele>
        <time>2021-08-18T10:35:24Z</time>
      </trkpt>
      <trkpt lat="46.59971" lon="6.11249">
        <ele>1086.3</ele>
        <time>2021-08-18T10:35:26Z</time>
      </trkpt>
      <trkpt lat="46.59969" lon="6.11256">
        <ele>1086.6</ele>
        <time>2021-08-18T10:35:28Z</time>
      </trkpt>
      <trkpt lat="46.59968" lon="6.11262">
        <ele>1087</ele>
        <time>2021-08-18T10:35:29Z</time>
      </trkpt>
      <trkpt lat="46.59968" lon="6.11267">
        <ele>1087.2</ele>
        <time>2021-08-18T10:35:31Z</time>
      </trkpt>
      <trkpt lat="46.59968" lon="6.11271">
        <ele>1087.4</ele>
        <time>2021-08-18T10:35:32Z</time>
      </trkpt>
      <trkpt lat="46.59967" lon="6.11277">
        <ele>1087.6</ele>
        <time>2021-08-18T10:35:34Z</time>
      </trkpt>
      <trkpt lat="46.59967" lon="6.11278">
        <ele>1087.7</ele>
        <time>2021-08-18T10:35:35Z</time>
      </trkpt>
      <trkpt lat="46.59966" lon="6.1128">
        <ele>1087.8</ele>
        <time>2021-08-18T10:35:36Z</time>
      </trkpt>
      <trkpt lat="46.59962" lon="6.11282">
        <ele>1088</ele>
        <time>2021-08-18T10:35:38Z</time>
      </trkpt>
      <trkpt lat="46.59962" lon="6.11283">
        <ele>1088.1</ele>
        <time>2021-08-18T10:35:39Z</time>
      </trkpt>
      <trkpt lat="46.5996" lon="6.11286">
        <ele>1088.2</ele>
        <time>2021-08-18T10:35:41Z</time>
      </trkpt>
      <trkpt lat="46.59959" lon="6.11287">
        <ele>1088.3</ele>
        <time>2021-08-18T10:35:42Z</time>
      </trkpt>
      <trkpt lat="46.59958" lon="6.11291">
        <ele>1088.4</ele>
        <time>2021-08-18T10:35:43Z</time>
      </trkpt>
      <trkpt lat="46.59957" lon="6.11295">
        <ele>1088.6</ele>
        <time>2021-08-18T10:35:45Z</time>
      </trkpt>
      <trkpt lat="46.59956" lon="6.11299">
        <ele>1088.7</ele>
        <time>2021-08-18T10:35:46Z</time>
      </trkpt>
      <trkpt lat="46.59955" lon="6.11302">
        <ele>1088.8</ele>
        <time>2021-08-18T10:35:47Z</time>
      </trkpt>
      <trkpt lat="46.59953" lon="6.11305">
        <ele>1088.9</ele>
        <time>2021-08-18T10:35:49Z</time>
      </trkpt>
      <trkpt lat="46.59952" lon="6.11308">
        <ele>1089</ele>
        <time>2021-08-18T10:35:50Z</time>
      </trkpt>
      <trkpt lat="46.59951" lon="6.11311">
        <ele>1089.1</ele>
        <time>2021-08-18T10:35:51Z</time>
      </trkpt>
      <trkpt lat="46.5995" lon="6.11312">
        <ele>1089.1</ele>
        <time>2021-08-18T10:35:52Z</time>
      </trkpt>
      <trkpt lat="46.59947" lon="6.11316">
        <ele>1089.1</ele>
        <time>2021-08-18T10:35:54Z</time>
      </trkpt>
      <trkpt lat="46.59946" lon="6.11317">
        <ele>1089.1</ele>
        <time>2021-08-18T10:35:55Z</time>
      </trkpt>
      <trkpt lat="46.59944" lon="6.11319">
        <ele>1089.1</ele>
        <time>2021-08-18T10:35:56Z</time>
      </trkpt>
      <trkpt lat="46.59939" lon="6.11325">
        <ele>1089</ele>
        <time>2021-08-18T10:35:58Z</time>
      </trkpt>
      <trkpt lat="46.59929" lon="6.11331">
        <ele>1088.6</ele>
        <time>2021-08-18T10:36:00Z</time>
      </trkpt>
      <trkpt lat="46.59918" lon="6.11338">
        <ele>1087.8</ele>
        <time>2021-08-18T10:36:02Z</time>
      </trkpt>
      <trkpt lat="46.59912" lon="6.11342">
        <ele>1087.4</ele>
        <time>2021-08-18T10:36:03Z</time>
      </trkpt>
      <trkpt lat="46.59907" lon="6.11347">
        <ele>1086.9</ele>
        <time>2021-08-18T10:36:04Z</time>
      </trkpt>
      <trkpt lat="46.59901" lon="6.11353">
        <ele>1086.5</ele>
        <time>2021-08-18T10:36:05Z</time>
      </trkpt>
      <trkpt lat="46.59896" lon="6.11359">
        <ele>1086.2</ele>
        <time>2021-08-18T10:36:06Z</time>
      </trkpt>
      <trkpt lat="46.59886" lon="6.11372">
        <ele>1085.6</ele>
        <time>2021-08-18T10:36:08Z</time>
      </trkpt>
      <trkpt lat="46.59875" lon="6.11381">
        <ele>1085.7</ele>
        <time>2021-08-18T10:36:10Z</time>
      </trkpt>
      <trkpt lat="46.59869" lon="6.11385">
        <ele>1085.8</ele>
        <time>2021-08-18T10:36:11Z</time>
      </trkpt>
      <trkpt lat="46.59864" lon="6.11388">
        <ele>1086</ele>
        <time>2021-08-18T10:36:12Z</time>
      </trkpt>
      <trkpt lat="46.59856" lon="6.11393">
        <ele>1086.2</ele>
        <time>2021-08-18T10:36:14Z</time>
      </trkpt>
      <trkpt lat="46.59852" lon="6.11395">
        <ele>1086.4</ele>
        <time>2021-08-18T10:36:15Z</time>
      </trkpt>
      <trkpt lat="46.59849" lon="6.11396">
        <ele>1086.5</ele>
        <time>2021-08-18T10:36:16Z</time>
      </trkpt>
      <trkpt lat="46.59845" lon="6.11397">
        <ele>1086.6</ele>
        <time>2021-08-18T10:36:17Z</time>
      </trkpt>
      <trkpt lat="46.59841" lon="6.11397">
        <ele>1086.8</ele>
        <time>2021-08-18T10:36:18Z</time>
      </trkpt>
      <trkpt lat="46.59835" lon="6.11398">
        <ele>1087</ele>
        <time>2021-08-18T10:36:20Z</time>
      </trkpt>
      <trkpt lat="46.59831" lon="6.11398">
        <ele>1087.1</ele>
        <time>2021-08-18T10:36:21Z</time>
      </trkpt>
      <trkpt lat="46.59827" lon="6.11399">
        <ele>1087.2</ele>
        <time>2021-08-18T10:36:22Z</time>
      </trkpt>
      <trkpt lat="46.59823" lon="6.11401">
        <ele>1087.4</ele>
        <time>2021-08-18T10:36:23Z</time>
      </trkpt>
      <trkpt lat="46.59821" lon="6.11403">
        <ele>1087.5</ele>
        <time>2021-08-18T10:36:25Z</time>
      </trkpt>
      <trkpt lat="46.59818" lon="6.11405">
        <ele>1087.6</ele>
        <time>2021-08-18T10:36:26Z</time>
      </trkpt>
      <trkpt lat="46.59813" lon="6.11409">
        <ele>1087.7</ele>
        <time>2021-08-18T10:36:28Z</time>
      </trkpt>
      <trkpt lat="46.59807" lon="6.11413">
        <ele>1087.8</ele>
        <time>2021-08-18T10:36:30Z</time>
      </trkpt>
      <trkpt lat="46.59803" lon="6.11414">
        <ele>1087.8</ele>
        <time>2021-08-18T10:36:31Z</time>
      </trkpt>
      <trkpt lat="46.59799" lon="6.11415">
        <ele>1087.8</ele>
        <time>2021-08-18T10:36:32Z</time>
      </trkpt>
      <trkpt lat="46.59796" lon="6.11416">
        <ele>1087.8</ele>
        <time>2021-08-18T10:36:34Z</time>
      </trkpt>
      <trkpt lat="46.59795" lon="6.11416">
        <ele>1087.8</ele>
        <time>2021-08-18T10:36:35Z</time>
      </trkpt>
      <trkpt lat="46.59792" lon="6.11417">
        <ele>1087.8</ele>
        <time>2021-08-18T10:36:37Z</time>
      </trkpt>
      <trkpt lat="46.5979" lon="6.11418">
        <ele>1087.8</ele>
        <time>2021-08-18T10:36:38Z</time>
      </trkpt>
      <trkpt lat="46.59789" lon="6.11419">
        <ele>1087.8</ele>
        <time>2021-08-18T10:36:39Z</time>
      </trkpt>
      <trkpt lat="46.59788" lon="6.11418">
        <ele>1087.8</ele>
        <time>2021-08-18T10:36:40Z</time>
      </trkpt>
      <trkpt lat="46.59789" lon="6.11418">
        <ele>1087.8</ele>
        <time>2021-08-18T10:36:42Z</time>
      </trkpt>
      <trkpt lat="46.59789" lon="6.11419">
        <ele>1087.8</ele>
        <time>2021-08-18T10:36:43Z</time>
      </trkpt>
      <trkpt lat="46.5979" lon="6.1142">
        <ele>1087.8</ele>
        <time>2021-08-18T10:36:44Z</time>
      </trkpt>
      <trkpt lat="46.59791" lon="6.11421">
        <ele>1087.7</ele>
        <time>2021-08-18T10:36:46Z</time>
      </trkpt>
      <trkpt lat="46.59793" lon="6.11421">
        <ele>1087.7</ele>
        <time>2021-08-18T10:36:48Z</time>
      </trkpt>
      <trkpt lat="46.59793" lon="6.11421">
        <ele>1087.7</ele>
        <time>2021-08-18T10:36:49Z</time>
      </trkpt>
      <trkpt lat="46.59794" lon="6.11421">
        <ele>1087.7</ele>
        <time>2021-08-18T10:36:51Z</time>
      </trkpt>
      <trkpt lat="46.59794" lon="6.11421">
        <ele>1087.7</ele>
        <time>2021-08-18T10:36:52Z</time>
      </trkpt>
      <trkpt lat="46.59794" lon="6.11421">
        <ele>1087.7</ele>
        <time>2021-08-18T10:36:53Z</time>
      </trkpt>
      <trkpt lat="46.59795" lon="6.11421">
        <ele>1087.7</ele>
        <time>2021-08-18T10:36:55Z</time>
      </trkpt>
      <trkpt lat="46.59799" lon="6.11409">
        <ele>1087.7</ele>
        <time>2021-08-18T10:37:22Z</time>
      </trkpt>
      <trkpt lat="46.59797" lon="6.11401">
        <ele>1087.6</ele>
        <time>2021-08-18T10:37:24Z</time>
      </trkpt>
      <trkpt lat="46.59794" lon="6.11392">
        <ele>1087.6</ele>
        <time>2021-08-18T10:37:25Z</time>
      </trkpt>
      <trkpt lat="46.59791" lon="6.11386">
        <ele>1087.5</ele>
        <time>2021-08-18T10:37:26Z</time>
      </trkpt>
      <trkpt lat="46.59789" lon="6.11381">
        <ele>1087.4</ele>
        <time>2021-08-18T10:37:27Z</time>
      </trkpt>
      <trkpt lat="46.59784" lon="6.11377">
        <ele>1087.3</ele>
        <time>2021-08-18T10:37:29Z</time>
      </trkpt>
      <trkpt lat="46.59778" lon="6.11373">
        <ele>1087.2</ele>
        <time>2021-08-18T10:37:30Z</time>
      </trkpt>
      <trkpt lat="46.59772" lon="6.11369">
        <ele>1087.1</ele>
        <time>2021-08-18T10:37:31Z</time>
      </trkpt>
      <trkpt lat="46.59762" lon="6.11363">
        <ele>1086.8</ele>
        <time>2021-08-18T10:37:33Z</time>
      </trkpt>
      <trkpt lat="46.59757" lon="6.1136">
        <ele>1086.6</ele>
        <time>2021-08-18T10:37:34Z</time>
      </trkpt>
      <trkpt lat="46.59747" lon="6.11354">
        <ele>1086.1</ele>
        <time>2021-08-18T10:37:36Z</time>
      </trkpt>
      <trkpt lat="46.59738" lon="6.11346">
        <ele>1085.6</ele>
        <time>2021-08-18T10:37:38Z</time>
      </trkpt>
      <trkpt lat="46.59734" lon="6.11339">
        <ele>1085.3</ele>
        <time>2021-08-18T10:37:39Z</time>
      </trkpt>
      <trkpt lat="46.59729" lon="6.11333">
        <ele>1084.9</ele>
        <time>2021-08-18T10:37:40Z</time>
      </trkpt>
      <trkpt lat="46.59725" lon="6.11326">
        <ele>1084.5</ele>
        <time>2021-08-18T10:37:41Z</time>
      </trkpt>
      <trkpt lat="46.59722" lon="6.1132">
        <ele>1084.1</ele>
        <time>2021-08-18T10:37:42Z</time>
      </trkpt>
      <trkpt lat="46.59717" lon="6.11304">
        <ele>1083.2</ele>
        <time>2021-08-18T10:37:44Z</time>
      </trkpt>
      <trkpt lat="46.59715" lon="6.11294">
        <ele>1082.5</ele>
        <time>2021-08-18T10:37:45Z</time>
      </trkpt>
      <trkpt lat="46.59712" lon="6.11272">
        <ele>1081.2</ele>
        <time>2021-08-18T10:37:47Z</time>
      </trkpt>
      <trkpt lat="46.5971" lon="6.1126">
        <ele>1080.5</ele>
        <time>2021-08-18T10:37:48Z</time>
      </trkpt>
      <trkpt lat="46.59705" lon="6.11237">
        <ele>1079.2</ele>
        <time>2021-08-18T10:37:50Z</time>
      </trkpt>
      <trkpt lat="46.59701" lon="6.11224">
        <ele>1078.5</ele>
        <time>2021-08-18T10:37:51Z</time>
      </trkpt>
      <trkpt lat="46.59697" lon="6.11212">
        <ele>1077.9</ele>
        <time>2021-08-18T10:37:52Z</time>
      </trkpt>
      <trkpt lat="46.59693" lon="6.11199">
        <ele>1077.3</ele>
        <time>2021-08-18T10:37:53Z</time>
      </trkpt>
      <trkpt lat="46.59689" lon="6.11186">
        <ele>1076.7</ele>
        <time>2021-08-18T10:37:54Z</time>
      </trkpt>
      <trkpt lat="46.59685" lon="6.11173">
        <ele>1076.3</ele>
        <time>2021-08-18T10:37:55Z</time>
      </trkpt>
      <trkpt lat="46.5968" lon="6.11147">
        <ele>1075.6</ele>
        <time>2021-08-18T10:37:57Z</time>
      </trkpt>
      <trkpt lat="46.59677" lon="6.11135">
        <ele>1075.4</ele>
        <time>2021-08-18T10:37:58Z</time>
      </trkpt>
      <trkpt lat="46.59674" lon="6.11124">
        <ele>1075.3</ele>
        <time>2021-08-18T10:37:59Z</time>
      </trkpt>
      <trkpt lat="46.59669" lon="6.11112">
        <ele>1075.1</ele>
        <time>2021-08-18T10:38:00Z</time>
      </trkpt>
      <trkpt lat="46.5966" lon="6.11092">
        <ele>1074.9</ele>
        <time>2021-08-18T10:38:02Z</time>
      </trkpt>
      <trkpt lat="46.59654" lon="6.11083">
        <ele>1074.9</ele>
        <time>2021-08-18T10:38:03Z</time>
      </trkpt>
      <trkpt lat="46.59643" lon="6.11066">
        <ele>1074.8</ele>
        <time>2021-08-18T10:38:05Z</time>
      </trkpt>
      <trkpt lat="46.59638" lon="6.11058">
        <ele>1074.8</ele>
        <time>2021-08-18T10:38:06Z</time>
      </trkpt>
      <trkpt lat="46.59628" lon="6.11044">
        <ele>1074.8</ele>
        <time>2021-08-18T10:38:08Z</time>
      </trkpt>
      <trkpt lat="46.59622" lon="6.11038">
        <ele>1074.8</ele>
        <time>2021-08-18T10:38:09Z</time>
      </trkpt>
      <trkpt lat="46.59611" lon="6.11026">
        <ele>1074.8</ele>
        <time>2021-08-18T10:38:11Z</time>
      </trkpt>
      <trkpt lat="46.59606" lon="6.1102">
        <ele>1074.8</ele>
        <time>2021-08-18T10:38:12Z</time>
      </trkpt>
      <trkpt lat="46.59601" lon="6.11015">
        <ele>1074.8</ele>
        <time>2021-08-18T10:38:13Z</time>
      </trkpt>
      <trkpt lat="46.59596" lon="6.1101">
        <ele>1074.9</ele>
        <time>2021-08-18T10:38:14Z</time>
      </trkpt>
      <trkpt lat="46.59587" lon="6.10999">
        <ele>1075</ele>
        <time>2021-08-18T10:38:16Z</time>
      </trkpt>
      <trkpt lat="46.59582" lon="6.10995">
        <ele>1075.1</ele>
        <time>2021-08-18T10:38:17Z</time>
      </trkpt>
      <trkpt lat="46.59578" lon="6.10991">
        <ele>1075.1</ele>
        <time>2021-08-18T10:38:18Z</time>
      </trkpt>
      <trkpt lat="46.59569" lon="6.10984">
        <ele>1075.3</ele>
        <time>2021-08-18T10:38:20Z</time>
      </trkpt>
      <trkpt lat="46.59561" lon="6.10976">
        <ele>1075.4</ele>
        <time>2021-08-18T10:38:22Z</time>
      </trkpt>
      <trkpt lat="46.59558" lon="6.10971">
        <ele>1075.5</ele>
        <time>2021-08-18T10:38:23Z</time>
      </trkpt>
      <trkpt lat="46.59554" lon="6.10967">
        <ele>1075.6</ele>
        <time>2021-08-18T10:38:24Z</time>
      </trkpt>
      <trkpt lat="46.59547" lon="6.1096">
        <ele>1075.7</ele>
        <time>2021-08-18T10:38:26Z</time>
      </trkpt>
      <trkpt lat="46.59539" lon="6.10952">
        <ele>1075.8</ele>
        <time>2021-08-18T10:38:28Z</time>
      </trkpt>
      <trkpt lat="46.59535" lon="6.10947">
        <ele>1075.9</ele>
        <time>2021-08-18T10:38:29Z</time>
      </trkpt>
      <trkpt lat="46.59531" lon="6.10943">
        <ele>1076</ele>
        <time>2021-08-18T10:38:30Z</time>
      </trkpt>
      <trkpt lat="46.59528" lon="6.10939">
        <ele>1076.1</ele>
        <time>2021-08-18T10:38:31Z</time>
      </trkpt>
      <trkpt lat="46.59522" lon="6.10933">
        <ele>1076.3</ele>
        <time>2021-08-18T10:38:33Z</time>
      </trkpt>
      <trkpt lat="46.59516" lon="6.10926">
        <ele>1076.4</ele>
        <time>2021-08-18T10:38:35Z</time>
      </trkpt>
      <trkpt lat="46.59512" lon="6.10923">
        <ele>1076.5</ele>
        <time>2021-08-18T10:38:36Z</time>
      </trkpt>
      <trkpt lat="46.59505" lon="6.10918">
        <ele>1076.8</ele>
        <time>2021-08-18T10:38:38Z</time>
      </trkpt>
      <trkpt lat="46.59507" lon="6.10913">
        <ele>1076.9</ele>
        <time>2021-08-18T10:38:40Z</time>
      </trkpt>
      <trkpt lat="46.59501" lon="6.10909">
        <ele>1077.1</ele>
        <time>2021-08-18T10:38:41Z</time>
      </trkpt>
      <trkpt lat="46.59498" lon="6.10907">
        <ele>1077.3</ele>
        <time>2021-08-18T10:38:43Z</time>
      </trkpt>
      <trkpt lat="46.59492" lon="6.10904">
        <ele>1077.5</ele>
        <time>2021-08-18T10:38:44Z</time>
      </trkpt>
      <trkpt lat="46.59488" lon="6.10902">
        <ele>1077.7</ele>
        <time>2021-08-18T10:38:46Z</time>
      </trkpt>
      <trkpt lat="46.59485" lon="6.109">
        <ele>1077.9</ele>
        <time>2021-08-18T10:38:47Z</time>
      </trkpt>
      <trkpt lat="46.59482" lon="6.10897">
        <ele>1078.1</ele>
        <time>2021-08-18T10:38:49Z</time>
      </trkpt>
      <trkpt lat="46.5948" lon="6.10895">
        <ele>1078.2</ele>
        <time>2021-08-18T10:38:50Z</time>
      </trkpt>
      <trkpt lat="46.59476" lon="6.1089">
        <ele>1078.5</ele>
        <time>2021-08-18T10:38:52Z</time>
      </trkpt>
      <trkpt lat="46.59472" lon="6.10886">
        <ele>1078.7</ele>
        <time>2021-08-18T10:38:54Z</time>
      </trkpt>
      <trkpt lat="46.59471" lon="6.10884">
        <ele>1078.8</ele>
        <time>2021-08-18T10:38:55Z</time>
      </trkpt>
      <trkpt lat="46.59468" lon="6.10881">
        <ele>1079</ele>
        <time>2021-08-18T10:38:57Z</time>
      </trkpt>
      <trkpt lat="46.59468" lon="6.10876">
        <ele>1079.1</ele>
        <time>2021-08-18T10:38:58Z</time>
      </trkpt>
      <trkpt lat="46.59468" lon="6.10875">
        <ele>1079.2</ele>
        <time>2021-08-18T10:38:59Z</time>
      </trkpt>
      <trkpt lat="46.59467" lon="6.1087">
        <ele>1079.3</ele>
        <time>2021-08-18T10:39:01Z</time>
      </trkpt>
      <trkpt lat="46.59467" lon="6.10868">
        <ele>1079.4</ele>
        <time>2021-08-18T10:39:02Z</time>
      </trkpt>
      <trkpt lat="46.59464" lon="6.10863">
        <ele>1079.6</ele>
        <time>2021-08-18T10:39:04Z</time>
      </trkpt>
      <trkpt lat="46.59461" lon="6.1086">
        <ele>1079.7</ele>
        <time>2021-08-18T10:39:05Z</time>
      </trkpt>
      <trkpt lat="46.59461" lon="6.10858">
        <ele>1079.7</ele>
        <time>2021-08-18T10:39:06Z</time>
      </trkpt>
      <trkpt lat="46.59458" lon="6.10853">
        <ele>1079.9</ele>
        <time>2021-08-18T10:39:08Z</time>
      </trkpt>
      <trkpt lat="46.59456" lon="6.10848">
        <ele>1080</ele>
        <time>2021-08-18T10:39:09Z</time>
      </trkpt>
      <trkpt lat="46.59455" lon="6.10846">
        <ele>1080</ele>
        <time>2021-08-18T10:39:10Z</time>
      </trkpt>
      <trkpt lat="46.59453" lon="6.1084">
        <ele>1080.2</ele>
        <time>2021-08-18T10:39:12Z</time>
      </trkpt>
      <trkpt lat="46.5945" lon="6.10833">
        <ele>1080.3</ele>
        <time>2021-08-18T10:39:14Z</time>
      </trkpt>
      <trkpt lat="46.59448" lon="6.10828">
        <ele>1080.4</ele>
        <time>2021-08-18T10:39:15Z</time>
      </trkpt>
      <trkpt lat="46.59446" lon="6.10822">
        <ele>1080.5</ele>
        <time>2021-08-18T10:39:17Z</time>
      </trkpt>
      <trkpt lat="46.59444" lon="6.10816">
        <ele>1080.6</ele>
        <time>2021-08-18T10:39:18Z</time>
      </trkpt>
      <trkpt lat="46.59443" lon="6.10812">
        <ele>1080.6</ele>
        <time>2021-08-18T10:39:19Z</time>
      </trkpt>
      <trkpt lat="46.59442" lon="6.10808">
        <ele>1080.7</ele>
        <time>2021-08-18T10:39:20Z</time>
      </trkpt>
      <trkpt lat="46.5944" lon="6.10803">
        <ele>1080.8</ele>
        <time>2021-08-18T10:39:22Z</time>
      </trkpt>
      <trkpt lat="46.59439" lon="6.10799">
        <ele>1080.8</ele>
        <time>2021-08-18T10:39:23Z</time>
      </trkpt>
      <trkpt lat="46.59438" lon="6.10798">
        <ele>1080.8</ele>
        <time>2021-08-18T10:39:24Z</time>
      </trkpt>
      <trkpt lat="46.59435" lon="6.10794">
        <ele>1080.9</ele>
        <time>2021-08-18T10:39:25Z</time>
      </trkpt>
      <trkpt lat="46.59434" lon="6.10793">
        <ele>1081</ele>
        <time>2021-08-18T10:39:26Z</time>
      </trkpt>
      <trkpt lat="46.59431" lon="6.1079">
        <ele>1081.1</ele>
        <time>2021-08-18T10:39:28Z</time>
      </trkpt>
      <trkpt lat="46.59429" lon="6.10786">
        <ele>1081.1</ele>
        <time>2021-08-18T10:39:29Z</time>
      </trkpt>
      <trkpt lat="46.59427" lon="6.10783">
        <ele>1081.2</ele>
        <time>2021-08-18T10:39:30Z</time>
      </trkpt>
      <trkpt lat="46.59426" lon="6.10781">
        <ele>1081.3</ele>
        <time>2021-08-18T10:39:31Z</time>
      </trkpt>
      <trkpt lat="46.59423" lon="6.10777">
        <ele>1081.4</ele>
        <time>2021-08-18T10:39:33Z</time>
      </trkpt>
      <trkpt lat="46.59418" lon="6.10773">
        <ele>1081.5</ele>
        <time>2021-08-18T10:39:35Z</time>
      </trkpt>
      <trkpt lat="46.59416" lon="6.1077">
        <ele>1081.6</ele>
        <time>2021-08-18T10:39:36Z</time>
      </trkpt>
      <trkpt lat="46.59414" lon="6.10767">
        <ele>1081.7</ele>
        <time>2021-08-18T10:39:37Z</time>
      </trkpt>
      <trkpt lat="46.59411" lon="6.10762">
        <ele>1081.8</ele>
        <time>2021-08-18T10:39:38Z</time>
      </trkpt>
      <trkpt lat="46.59409" lon="6.1076">
        <ele>1081.8</ele>
        <time>2021-08-18T10:39:39Z</time>
      </trkpt>
      <trkpt lat="46.59405" lon="6.10756">
        <ele>1081.9</ele>
        <time>2021-08-18T10:39:41Z</time>
      </trkpt>
      <trkpt lat="46.59402" lon="6.10753">
        <ele>1082</ele>
        <time>2021-08-18T10:39:42Z</time>
      </trkpt>
      <trkpt lat="46.59399" lon="6.10751">
        <ele>1082.1</ele>
        <time>2021-08-18T10:39:43Z</time>
      </trkpt>
      <trkpt lat="46.59394" lon="6.10747">
        <ele>1082.2</ele>
        <time>2021-08-18T10:39:45Z</time>
      </trkpt>
      <trkpt lat="46.5939" lon="6.10743">
        <ele>1082.4</ele>
        <time>2021-08-18T10:39:46Z</time>
      </trkpt>
      <trkpt lat="46.59387" lon="6.1074">
        <ele>1082.5</ele>
        <time>2021-08-18T10:39:47Z</time>
      </trkpt>
      <trkpt lat="46.59381" lon="6.10736">
        <ele>1082.6</ele>
        <time>2021-08-18T10:39:48Z</time>
      </trkpt>
      <trkpt lat="46.59377" lon="6.10732">
        <ele>1082.8</ele>
        <time>2021-08-18T10:39:50Z</time>
      </trkpt>
      <trkpt lat="46.59371" lon="6.10728">
        <ele>1083</ele>
        <time>2021-08-18T10:39:51Z</time>
      </trkpt>
      <trkpt lat="46.59368" lon="6.10726">
        <ele>1083.2</ele>
        <time>2021-08-18T10:39:52Z</time>
      </trkpt>
      <trkpt lat="46.59364" lon="6.10723">
        <ele>1083.4</ele>
        <time>2021-08-18T10:39:54Z</time>
      </trkpt>
      <trkpt lat="46.5936" lon="6.1072">
        <ele>1083.5</ele>
        <time>2021-08-18T10:39:55Z</time>
      </trkpt>
      <trkpt lat="46.59356" lon="6.10717">
        <ele>1083.8</ele>
        <time>2021-08-18T10:39:57Z</time>
      </trkpt>
      <trkpt lat="46.59353" lon="6.10715">
        <ele>1083.9</ele>
        <time>2021-08-18T10:39:58Z</time>
      </trkpt>
      <trkpt lat="46.59348" lon="6.10712">
        <ele>1084.2</ele>
        <time>2021-08-18T10:40:00Z</time>
      </trkpt>
      <trkpt lat="46.59342" lon="6.1071">
        <ele>1084.5</ele>
        <time>2021-08-18T10:40:02Z</time>
      </trkpt>
      <trkpt lat="46.59336" lon="6.10708">
        <ele>1084.9</ele>
        <time>2021-08-18T10:40:04Z</time>
      </trkpt>
      <trkpt lat="46.59333" lon="6.10705">
        <ele>1085.1</ele>
        <time>2021-08-18T10:40:05Z</time>
      </trkpt>
      <trkpt lat="46.59329" lon="6.10704">
        <ele>1085.4</ele>
        <time>2021-08-18T10:40:06Z</time>
      </trkpt>
      <trkpt lat="46.59323" lon="6.10702">
        <ele>1085.8</ele>
        <time>2021-08-18T10:40:07Z</time>
      </trkpt>
      <trkpt lat="46.59319" lon="6.10701">
        <ele>1086.1</ele>
        <time>2021-08-18T10:40:09Z</time>
      </trkpt>
      <trkpt lat="46.59316" lon="6.107">
        <ele>1086.3</ele>
        <time>2021-08-18T10:40:10Z</time>
      </trkpt>
      <trkpt lat="46.59314" lon="6.10699">
        <ele>1086.4</ele>
        <time>2021-08-18T10:40:11Z</time>
      </trkpt>
      <trkpt lat="46.59311" lon="6.10698">
        <ele>1086.7</ele>
        <time>2021-08-18T10:40:12Z</time>
      </trkpt>
      <trkpt lat="46.59307" lon="6.10696">
        <ele>1086.9</ele>
        <time>2021-08-18T10:40:13Z</time>
      </trkpt>
      <trkpt lat="46.59304" lon="6.10693">
        <ele>1087.1</ele>
        <time>2021-08-18T10:40:15Z</time>
      </trkpt>
      <trkpt lat="46.593" lon="6.1069">
        <ele>1087.4</ele>
        <time>2021-08-18T10:40:16Z</time>
      </trkpt>
      <trkpt lat="46.59298" lon="6.10689">
        <ele>1087.5</ele>
        <time>2021-08-18T10:40:17Z</time>
      </trkpt>
      <trkpt lat="46.59295" lon="6.10687">
        <ele>1087.7</ele>
        <time>2021-08-18T10:40:18Z</time>
      </trkpt>
      <trkpt lat="46.59292" lon="6.10685">
        <ele>1087.9</ele>
        <time>2021-08-18T10:40:20Z</time>
      </trkpt>
      <trkpt lat="46.59288" lon="6.10683">
        <ele>1088.1</ele>
        <time>2021-08-18T10:40:21Z</time>
      </trkpt>
      <trkpt lat="46.59285" lon="6.10681">
        <ele>1088.3</ele>
        <time>2021-08-18T10:40:22Z</time>
      </trkpt>
      <trkpt lat="46.59282" lon="6.1068">
        <ele>1088.5</ele>
        <time>2021-08-18T10:40:24Z</time>
      </trkpt>
      <trkpt lat="46.5928" lon="6.10677">
        <ele>1088.6</ele>
        <time>2021-08-18T10:40:25Z</time>
      </trkpt>
      <trkpt lat="46.59277" lon="6.10675">
        <ele>1088.7</ele>
        <time>2021-08-18T10:40:26Z</time>
      </trkpt>
      <trkpt lat="46.59274" lon="6.1067">
        <ele>1089</ele>
        <time>2021-08-18T10:40:28Z</time>
      </trkpt>
      <trkpt lat="46.59273" lon="6.10668">
        <ele>1089.1</ele>
        <time>2021-08-18T10:40:29Z</time>
      </trkpt>
      <trkpt lat="46.5927" lon="6.10665">
        <ele>1089.2</ele>
        <time>2021-08-18T10:40:31Z</time>
      </trkpt>
      <trkpt lat="46.59269" lon="6.10663">
        <ele>1089.3</ele>
        <time>2021-08-18T10:40:32Z</time>
      </trkpt>
      <trkpt lat="46.59264" lon="6.10659">
        <ele>1089.6</ele>
        <time>2021-08-18T10:40:34Z</time>
      </trkpt>
      <trkpt lat="46.59258" lon="6.10656">
        <ele>1089.8</ele>
        <time>2021-08-18T10:40:36Z</time>
      </trkpt>
      <trkpt lat="46.59255" lon="6.10654">
        <ele>1089.9</ele>
        <time>2021-08-18T10:40:37Z</time>
      </trkpt>
      <trkpt lat="46.59252" lon="6.10653">
        <ele>1090</ele>
        <time>2021-08-18T10:40:38Z</time>
      </trkpt>
      <trkpt lat="46.59249" lon="6.10652">
        <ele>1090.1</ele>
        <time>2021-08-18T10:40:39Z</time>
      </trkpt>
      <trkpt lat="46.59245" lon="6.1065">
        <ele>1090.2</ele>
        <time>2021-08-18T10:40:40Z</time>
      </trkpt>
      <trkpt lat="46.59242" lon="6.10648">
        <ele>1090.3</ele>
        <time>2021-08-18T10:40:42Z</time>
      </trkpt>
      <trkpt lat="46.59239" lon="6.10646">
        <ele>1090.4</ele>
        <time>2021-08-18T10:40:44Z</time>
      </trkpt>
      <trkpt lat="46.59236" lon="6.10645">
        <ele>1090.5</ele>
        <time>2021-08-18T10:40:45Z</time>
      </trkpt>
      <trkpt lat="46.59234" lon="6.10644">
        <ele>1090.5</ele>
        <time>2021-08-18T10:40:46Z</time>
      </trkpt>
      <trkpt lat="46.5923" lon="6.10643">
        <ele>1090.6</ele>
        <time>2021-08-18T10:40:48Z</time>
      </trkpt>
      <trkpt lat="46.59226" lon="6.10641">
        <ele>1090.7</ele>
        <time>2021-08-18T10:40:50Z</time>
      </trkpt>
      <trkpt lat="46.59225" lon="6.1064">
        <ele>1090.8</ele>
        <time>2021-08-18T10:40:51Z</time>
      </trkpt>
      <trkpt lat="46.59223" lon="6.10639">
        <ele>1090.8</ele>
        <time>2021-08-18T10:40:52Z</time>
      </trkpt>
      <trkpt lat="46.59221" lon="6.10637">
        <ele>1090.9</ele>
        <time>2021-08-18T10:40:53Z</time>
      </trkpt>
      <trkpt lat="46.59214" lon="6.10635">
        <ele>1091</ele>
        <time>2021-08-18T10:40:55Z</time>
      </trkpt>
      <trkpt lat="46.5921" lon="6.10634">
        <ele>1091.1</ele>
        <time>2021-08-18T10:40:56Z</time>
      </trkpt>
      <trkpt lat="46.59207" lon="6.10631">
        <ele>1091.1</ele>
        <time>2021-08-18T10:40:58Z</time>
      </trkpt>
      <trkpt lat="46.59205" lon="6.10629">
        <ele>1091.2</ele>
        <time>2021-08-18T10:40:59Z</time>
      </trkpt>
      <trkpt lat="46.59202" lon="6.10627">
        <ele>1091.2</ele>
        <time>2021-08-18T10:41:00Z</time>
      </trkpt>
      <trkpt lat="46.59199" lon="6.10624">
        <ele>1091.3</ele>
        <time>2021-08-18T10:41:01Z</time>
      </trkpt>
      <trkpt lat="46.59196" lon="6.10622">
        <ele>1091.4</ele>
        <time>2021-08-18T10:41:03Z</time>
      </trkpt>
      <trkpt lat="46.59193" lon="6.1062">
        <ele>1091.4</ele>
        <time>2021-08-18T10:41:04Z</time>
      </trkpt>
      <trkpt lat="46.59191" lon="6.10617">
        <ele>1091.5</ele>
        <time>2021-08-18T10:41:05Z</time>
      </trkpt>
      <trkpt lat="46.59186" lon="6.10614">
        <ele>1091.5</ele>
        <time>2021-08-18T10:41:07Z</time>
      </trkpt>
      <trkpt lat="46.59183" lon="6.10611">
        <ele>1091.6</ele>
        <time>2021-08-18T10:41:08Z</time>
      </trkpt>
      <trkpt lat="46.59181" lon="6.10609">
        <ele>1091.7</ele>
        <time>2021-08-18T10:41:09Z</time>
      </trkpt>
      <trkpt lat="46.59177" lon="6.10603">
        <ele>1091.7</ele>
        <time>2021-08-18T10:41:11Z</time>
      </trkpt>
      <trkpt lat="46.59173" lon="6.106">
        <ele>1091.8</ele>
        <time>2021-08-18T10:41:12Z</time>
      </trkpt>
      <trkpt lat="46.59171" lon="6.10598">
        <ele>1091.8</ele>
        <time>2021-08-18T10:41:13Z</time>
      </trkpt>
      <trkpt lat="46.59169" lon="6.10596">
        <ele>1091.8</ele>
        <time>2021-08-18T10:41:14Z</time>
      </trkpt>
      <trkpt lat="46.59167" lon="6.10593">
        <ele>1091.8</ele>
        <time>2021-08-18T10:41:16Z</time>
      </trkpt>
      <trkpt lat="46.59165" lon="6.10588">
        <ele>1091.8</ele>
        <time>2021-08-18T10:41:18Z</time>
      </trkpt>
      <trkpt lat="46.59162" lon="6.10584">
        <ele>1091.8</ele>
        <time>2021-08-18T10:41:19Z</time>
      </trkpt>
      <trkpt lat="46.59162" lon="6.10583">
        <ele>1091.8</ele>
        <time>2021-08-18T10:41:20Z</time>
      </trkpt>
      <trkpt lat="46.59158" lon="6.10579">
        <ele>1091.8</ele>
        <time>2021-08-18T10:41:22Z</time>
      </trkpt>
      <trkpt lat="46.59155" lon="6.10576">
        <ele>1091.8</ele>
        <time>2021-08-18T10:41:23Z</time>
      </trkpt>
      <trkpt lat="46.59154" lon="6.10576">
        <ele>1091.8</ele>
        <time>2021-08-18T10:41:24Z</time>
      </trkpt>
      <trkpt lat="46.5915" lon="6.10573">
        <ele>1091.8</ele>
        <time>2021-08-18T10:41:26Z</time>
      </trkpt>
      <trkpt lat="46.59145" lon="6.10569">
        <ele>1091.8</ele>
        <time>2021-08-18T10:41:28Z</time>
      </trkpt>
      <trkpt lat="46.59142" lon="6.10566">
        <ele>1091.8</ele>
        <time>2021-08-18T10:41:29Z</time>
      </trkpt>
      <trkpt lat="46.5914" lon="6.10564">
        <ele>1091.8</ele>
        <time>2021-08-18T10:41:30Z</time>
      </trkpt>
      <trkpt lat="46.59136" lon="6.10559">
        <ele>1091.7</ele>
        <time>2021-08-18T10:41:31Z</time>
      </trkpt>
      <trkpt lat="46.59131" lon="6.10555">
        <ele>1091.7</ele>
        <time>2021-08-18T10:41:33Z</time>
      </trkpt>
      <trkpt lat="46.59128" lon="6.10552">
        <ele>1091.7</ele>
        <time>2021-08-18T10:41:34Z</time>
      </trkpt>
      <trkpt lat="46.59125" lon="6.10549">
        <ele>1091.7</ele>
        <time>2021-08-18T10:41:35Z</time>
      </trkpt>
      <trkpt lat="46.59118" lon="6.10544">
        <ele>1091.6</ele>
        <time>2021-08-18T10:41:37Z</time>
      </trkpt>
      <trkpt lat="46.59112" lon="6.10543">
        <ele>1091.6</ele>
        <time>2021-08-18T10:41:38Z</time>
      </trkpt>
      <trkpt lat="46.591" lon="6.10542">
        <ele>1091.7</ele>
        <time>2021-08-18T10:41:40Z</time>
      </trkpt>
      <trkpt lat="46.59091" lon="6.10537">
        <ele>1091.8</ele>
        <time>2021-08-18T10:41:42Z</time>
      </trkpt>
      <trkpt lat="46.59084" lon="6.10533">
        <ele>1091.9</ele>
        <time>2021-08-18T10:41:44Z</time>
      </trkpt>
      <trkpt lat="46.5908" lon="6.1053">
        <ele>1091.9</ele>
        <time>2021-08-18T10:41:45Z</time>
      </trkpt>
      <trkpt lat="46.59073" lon="6.10528">
        <ele>1092</ele>
        <time>2021-08-18T10:41:46Z</time>
      </trkpt>
      <trkpt lat="46.59066" lon="6.10525">
        <ele>1092.1</ele>
        <time>2021-08-18T10:41:48Z</time>
      </trkpt>
      <trkpt lat="46.59061" lon="6.1052">
        <ele>1092.2</ele>
        <time>2021-08-18T10:41:50Z</time>
      </trkpt>
      <trkpt lat="46.59055" lon="6.10516">
        <ele>1092.3</ele>
        <time>2021-08-18T10:41:51Z</time>
      </trkpt>
      <trkpt lat="46.59051" lon="6.10513">
        <ele>1092.4</ele>
        <time>2021-08-18T10:41:53Z</time>
      </trkpt>
      <trkpt lat="46.59048" lon="6.1051">
        <ele>1092.5</ele>
        <time>2021-08-18T10:41:55Z</time>
      </trkpt>
      <trkpt lat="46.59044" lon="6.10507">
        <ele>1092.6</ele>
        <time>2021-08-18T10:41:56Z</time>
      </trkpt>
      <trkpt lat="46.59041" lon="6.10504">
        <ele>1092.7</ele>
        <time>2021-08-18T10:41:58Z</time>
      </trkpt>
      <trkpt lat="46.5904" lon="6.10502">
        <ele>1092.7</ele>
        <time>2021-08-18T10:41:59Z</time>
      </trkpt>
      <trkpt lat="46.59037" lon="6.105">
        <ele>1092.9</ele>
        <time>2021-08-18T10:42:01Z</time>
      </trkpt>
      <trkpt lat="46.59034" lon="6.10498">
        <ele>1093</ele>
        <time>2021-08-18T10:42:02Z</time>
      </trkpt>
      <trkpt lat="46.59031" lon="6.10496">
        <ele>1093.1</ele>
        <time>2021-08-18T10:42:04Z</time>
      </trkpt>
      <trkpt lat="46.59028" lon="6.10494">
        <ele>1093.2</ele>
        <time>2021-08-18T10:42:05Z</time>
      </trkpt>
      <trkpt lat="46.59025" lon="6.10492">
        <ele>1093.3</ele>
        <time>2021-08-18T10:42:06Z</time>
      </trkpt>
      <trkpt lat="46.59022" lon="6.1049">
        <ele>1093.4</ele>
        <time>2021-08-18T10:42:07Z</time>
      </trkpt>
      <trkpt lat="46.59018" lon="6.10487">
        <ele>1093.5</ele>
        <time>2021-08-18T10:42:08Z</time>
      </trkpt>
      <trkpt lat="46.59015" lon="6.10484">
        <ele>1093.6</ele>
        <time>2021-08-18T10:42:10Z</time>
      </trkpt>
      <trkpt lat="46.59013" lon="6.10477">
        <ele>1093.8</ele>
        <time>2021-08-18T10:42:12Z</time>
      </trkpt>
      <trkpt lat="46.59012" lon="6.10471">
        <ele>1093.9</ele>
        <time>2021-08-18T10:42:14Z</time>
      </trkpt>
      <trkpt lat="46.5901" lon="6.10466">
        <ele>1094</ele>
        <time>2021-08-18T10:42:15Z</time>
      </trkpt>
      <trkpt lat="46.59008" lon="6.10462">
        <ele>1094.1</ele>
        <time>2021-08-18T10:42:16Z</time>
      </trkpt>
      <trkpt lat="46.59003" lon="6.10456">
        <ele>1094.3</ele>
        <time>2021-08-18T10:42:18Z</time>
      </trkpt>
      <trkpt lat="46.59001" lon="6.10453">
        <ele>1094.4</ele>
        <time>2021-08-18T10:42:19Z</time>
      </trkpt>
      <trkpt lat="46.58998" lon="6.10451">
        <ele>1094.5</ele>
        <time>2021-08-18T10:42:20Z</time>
      </trkpt>
      <trkpt lat="46.58995" lon="6.10449">
        <ele>1094.6</ele>
        <time>2021-08-18T10:42:21Z</time>
      </trkpt>
      <trkpt lat="46.58992" lon="6.10447">
        <ele>1094.8</ele>
        <time>2021-08-18T10:42:23Z</time>
      </trkpt>
      <trkpt lat="46.58987" lon="6.10443">
        <ele>1094.9</ele>
        <time>2021-08-18T10:42:24Z</time>
      </trkpt>
      <trkpt lat="46.58984" lon="6.10439">
        <ele>1095</ele>
        <time>2021-08-18T10:42:26Z</time>
      </trkpt>
      <trkpt lat="46.58983" lon="6.10438">
        <ele>1095.1</ele>
        <time>2021-08-18T10:42:27Z</time>
      </trkpt>
      <trkpt lat="46.58981" lon="6.10436">
        <ele>1095.1</ele>
        <time>2021-08-18T10:42:28Z</time>
      </trkpt>
      <trkpt lat="46.58979" lon="6.10432">
        <ele>1095.2</ele>
        <time>2021-08-18T10:42:29Z</time>
      </trkpt>
      <trkpt lat="46.58976" lon="6.10428">
        <ele>1095.3</ele>
        <time>2021-08-18T10:42:31Z</time>
      </trkpt>
      <trkpt lat="46.58973" lon="6.10425">
        <ele>1095.5</ele>
        <time>2021-08-18T10:42:32Z</time>
      </trkpt>
      <trkpt lat="46.58971" lon="6.10424">
        <ele>1095.5</ele>
        <time>2021-08-18T10:42:33Z</time>
      </trkpt>
      <trkpt lat="46.58969" lon="6.10421">
        <ele>1095.6</ele>
        <time>2021-08-18T10:42:34Z</time>
      </trkpt>
      <trkpt lat="46.58966" lon="6.10414">
        <ele>1095.8</ele>
        <time>2021-08-18T10:42:37Z</time>
      </trkpt>
      <trkpt lat="46.58965" lon="6.10412">
        <ele>1095.8</ele>
        <time>2021-08-18T10:42:38Z</time>
      </trkpt>
      <trkpt lat="46.58965" lon="6.10411">
        <ele>1095.8</ele>
        <time>2021-08-18T10:42:39Z</time>
      </trkpt>
      <trkpt lat="46.58961" lon="6.10408">
        <ele>1095.9</ele>
        <time>2021-08-18T10:42:40Z</time>
      </trkpt>
      <trkpt lat="46.5896" lon="6.10407">
        <ele>1095.9</ele>
        <time>2021-08-18T10:42:41Z</time>
      </trkpt>
      <trkpt lat="46.58957" lon="6.10407">
        <ele>1096</ele>
        <time>2021-08-18T10:42:43Z</time>
      </trkpt>
      <trkpt lat="46.58953" lon="6.10406">
        <ele>1096</ele>
        <time>2021-08-18T10:42:45Z</time>
      </trkpt>
      <trkpt lat="46.58949" lon="6.10406">
        <ele>1096.1</ele>
        <time>2021-08-18T10:42:46Z</time>
      </trkpt>
      <trkpt lat="46.58945" lon="6.10405">
        <ele>1096.1</ele>
        <time>2021-08-18T10:42:48Z</time>
      </trkpt>
      <trkpt lat="46.58942" lon="6.10404">
        <ele>1096.2</ele>
        <time>2021-08-18T10:42:49Z</time>
      </trkpt>
      <trkpt lat="46.58939" lon="6.10402">
        <ele>1096.2</ele>
        <time>2021-08-18T10:42:50Z</time>
      </trkpt>
      <trkpt lat="46.58937" lon="6.10399">
        <ele>1096.2</ele>
        <time>2021-08-18T10:42:51Z</time>
      </trkpt>
      <trkpt lat="46.58936" lon="6.10398">
        <ele>1096.3</ele>
        <time>2021-08-18T10:42:52Z</time>
      </trkpt>
      <trkpt lat="46.58934" lon="6.10397">
        <ele>1096.3</ele>
        <time>2021-08-18T10:42:53Z</time>
      </trkpt>
      <trkpt lat="46.58932" lon="6.10397">
        <ele>1096.4</ele>
        <time>2021-08-18T10:42:55Z</time>
      </trkpt>
      <trkpt lat="46.58929" lon="6.10397">
        <ele>1096.4</ele>
        <time>2021-08-18T10:42:56Z</time>
      </trkpt>
      <trkpt lat="46.58928" lon="6.10397">
        <ele>1096.5</ele>
        <time>2021-08-18T10:42:57Z</time>
      </trkpt>
      <trkpt lat="46.58925" lon="6.10395">
        <ele>1096.6</ele>
        <time>2021-08-18T10:42:59Z</time>
      </trkpt>
      <trkpt lat="46.58924" lon="6.10394">
        <ele>1096.6</ele>
        <time>2021-08-18T10:43:00Z</time>
      </trkpt>
      <trkpt lat="46.58922" lon="6.10394">
        <ele>1096.6</ele>
        <time>2021-08-18T10:43:02Z</time>
      </trkpt>
      <trkpt lat="46.58918" lon="6.10391">
        <ele>1096.7</ele>
        <time>2021-08-18T10:43:04Z</time>
      </trkpt>
      <trkpt lat="46.58915" lon="6.10388">
        <ele>1096.8</ele>
        <time>2021-08-18T10:43:05Z</time>
      </trkpt>
      <trkpt lat="46.58914" lon="6.10387">
        <ele>1096.8</ele>
        <time>2021-08-18T10:43:06Z</time>
      </trkpt>
      <trkpt lat="46.5891" lon="6.10386">
        <ele>1096.9</ele>
        <time>2021-08-18T10:43:08Z</time>
      </trkpt>
      <trkpt lat="46.58907" lon="6.10386">
        <ele>1097</ele>
        <time>2021-08-18T10:43:09Z</time>
      </trkpt>
      <trkpt lat="46.58901" lon="6.10384">
        <ele>1097.1</ele>
        <time>2021-08-18T10:43:11Z</time>
      </trkpt>
      <trkpt lat="46.58898" lon="6.10382">
        <ele>1097.1</ele>
        <time>2021-08-18T10:43:12Z</time>
      </trkpt>
      <trkpt lat="46.58897" lon="6.10382">
        <ele>1097.1</ele>
        <time>2021-08-18T10:43:13Z</time>
      </trkpt>
      <trkpt lat="46.58893" lon="6.1038">
        <ele>1097.2</ele>
        <time>2021-08-18T10:43:14Z</time>
      </trkpt>
      <trkpt lat="46.58891" lon="6.1038">
        <ele>1097.2</ele>
        <time>2021-08-18T10:43:15Z</time>
      </trkpt>
      <trkpt lat="46.58886" lon="6.10379">
        <ele>1097.2</ele>
        <time>2021-08-18T10:43:16Z</time>
      </trkpt>
      <trkpt lat="46.58879" lon="6.10378">
        <ele>1097.3</ele>
        <time>2021-08-18T10:43:18Z</time>
      </trkpt>
      <trkpt lat="46.58874" lon="6.10377">
        <ele>1097.3</ele>
        <time>2021-08-18T10:43:19Z</time>
      </trkpt>
      <trkpt lat="46.58869" lon="6.10376">
        <ele>1097.4</ele>
        <time>2021-08-18T10:43:20Z</time>
      </trkpt>
      <trkpt lat="46.5886" lon="6.10377">
        <ele>1097.5</ele>
        <time>2021-08-18T10:43:22Z</time>
      </trkpt>
      <trkpt lat="46.58851" lon="6.10377">
        <ele>1097.5</ele>
        <time>2021-08-18T10:43:23Z</time>
      </trkpt>
      <trkpt lat="46.58842" lon="6.10376">
        <ele>1097.6</ele>
        <time>2021-08-18T10:43:25Z</time>
      </trkpt>
      <trkpt lat="46.58837" lon="6.10374">
        <ele>1097.7</ele>
        <time>2021-08-18T10:43:27Z</time>
      </trkpt>
      <trkpt lat="46.58831" lon="6.10372">
        <ele>1097.8</ele>
        <time>2021-08-18T10:43:28Z</time>
      </trkpt>
      <trkpt lat="46.58824" lon="6.1037">
        <ele>1098</ele>
        <time>2021-08-18T10:43:30Z</time>
      </trkpt>
      <trkpt lat="46.58818" lon="6.10368">
        <ele>1098.2</ele>
        <time>2021-08-18T10:43:31Z</time>
      </trkpt>
      <trkpt lat="46.58813" lon="6.10365">
        <ele>1098.4</ele>
        <time>2021-08-18T10:43:33Z</time>
      </trkpt>
      <trkpt lat="46.5881" lon="6.10363">
        <ele>1098.5</ele>
        <time>2021-08-18T10:43:34Z</time>
      </trkpt>
      <trkpt lat="46.58806" lon="6.10361">
        <ele>1098.7</ele>
        <time>2021-08-18T10:43:35Z</time>
      </trkpt>
      <trkpt lat="46.58802" lon="6.10358">
        <ele>1098.9</ele>
        <time>2021-08-18T10:43:37Z</time>
      </trkpt>
      <trkpt lat="46.58797" lon="6.10353">
        <ele>1099.2</ele>
        <time>2021-08-18T10:43:38Z</time>
      </trkpt>
      <trkpt lat="46.58793" lon="6.10349">
        <ele>1099.5</ele>
        <time>2021-08-18T10:43:40Z</time>
      </trkpt>
      <trkpt lat="46.58792" lon="6.10348">
        <ele>1099.6</ele>
        <time>2021-08-18T10:43:41Z</time>
      </trkpt>
      <trkpt lat="46.5879" lon="6.10347">
        <ele>1099.7</ele>
        <time>2021-08-18T10:43:42Z</time>
      </trkpt>
      <trkpt lat="46.58787" lon="6.10342">
        <ele>1100</ele>
        <time>2021-08-18T10:43:44Z</time>
      </trkpt>
      <trkpt lat="46.58784" lon="6.10338">
        <ele>1100.3</ele>
        <time>2021-08-18T10:43:45Z</time>
      </trkpt>
      <trkpt lat="46.58779" lon="6.10335">
        <ele>1100.6</ele>
        <time>2021-08-18T10:43:47Z</time>
      </trkpt>
      <trkpt lat="46.58778" lon="6.10333">
        <ele>1100.8</ele>
        <time>2021-08-18T10:43:48Z</time>
      </trkpt>
      <trkpt lat="46.58776" lon="6.10331">
        <ele>1100.9</ele>
        <time>2021-08-18T10:43:49Z</time>
      </trkpt>
      <trkpt lat="46.58774" lon="6.10328">
        <ele>1101.1</ele>
        <time>2021-08-18T10:43:51Z</time>
      </trkpt>
      <trkpt lat="46.58773" lon="6.10327">
        <ele>1101.2</ele>
        <time>2021-08-18T10:43:52Z</time>
      </trkpt>
      <trkpt lat="46.5877" lon="6.10322">
        <ele>1101.5</ele>
        <time>2021-08-18T10:43:53Z</time>
      </trkpt>
      <trkpt lat="46.58769" lon="6.1032">
        <ele>1101.6</ele>
        <time>2021-08-18T10:43:54Z</time>
      </trkpt>
      <trkpt lat="46.58766" lon="6.10317">
        <ele>1101.9</ele>
        <time>2021-08-18T10:43:56Z</time>
      </trkpt>
      <trkpt lat="46.58763" lon="6.10315">
        <ele>1102.1</ele>
        <time>2021-08-18T10:43:57Z</time>
      </trkpt>
      <trkpt lat="46.5876" lon="6.10311">
        <ele>1102.3</ele>
        <time>2021-08-18T10:43:59Z</time>
      </trkpt>
      <trkpt lat="46.58759" lon="6.10309">
        <ele>1102.4</ele>
        <time>2021-08-18T10:44:00Z</time>
      </trkpt>
      <trkpt lat="46.58754" lon="6.10306">
        <ele>1102.7</ele>
        <time>2021-08-18T10:44:02Z</time>
      </trkpt>
      <trkpt lat="46.5875" lon="6.10302">
        <ele>1103</ele>
        <time>2021-08-18T10:44:04Z</time>
      </trkpt>
      <trkpt lat="46.58746" lon="6.10299">
        <ele>1103.2</ele>
        <time>2021-08-18T10:44:05Z</time>
      </trkpt>
      <trkpt lat="46.58745" lon="6.10298">
        <ele>1103.3</ele>
        <time>2021-08-18T10:44:06Z</time>
      </trkpt>
      <trkpt lat="46.58741" lon="6.10295">
        <ele>1103.6</ele>
        <time>2021-08-18T10:44:08Z</time>
      </trkpt>
      <trkpt lat="46.58739" lon="6.10293">
        <ele>1103.7</ele>
        <time>2021-08-18T10:44:09Z</time>
      </trkpt>
      <trkpt lat="46.58734" lon="6.10289">
        <ele>1103.9</ele>
        <time>2021-08-18T10:44:11Z</time>
      </trkpt>
      <trkpt lat="46.58732" lon="6.10287">
        <ele>1104.1</ele>
        <time>2021-08-18T10:44:12Z</time>
      </trkpt>
      <trkpt lat="46.58728" lon="6.10285">
        <ele>1104.3</ele>
        <time>2021-08-18T10:44:13Z</time>
      </trkpt>
      <trkpt lat="46.58723" lon="6.10283">
        <ele>1104.5</ele>
        <time>2021-08-18T10:44:15Z</time>
      </trkpt>
      <trkpt lat="46.5872" lon="6.10281">
        <ele>1104.7</ele>
        <time>2021-08-18T10:44:16Z</time>
      </trkpt>
      <trkpt lat="46.58713" lon="6.10277">
        <ele>1105.1</ele>
        <time>2021-08-18T10:44:18Z</time>
      </trkpt>
      <trkpt lat="46.5871" lon="6.10275">
        <ele>1105.2</ele>
        <time>2021-08-18T10:44:19Z</time>
      </trkpt>
      <trkpt lat="46.58709" lon="6.10274">
        <ele>1105.3</ele>
        <time>2021-08-18T10:44:20Z</time>
      </trkpt>
      <trkpt lat="46.58707" lon="6.10274">
        <ele>1105.4</ele>
        <time>2021-08-18T10:44:21Z</time>
      </trkpt>
      <trkpt lat="46.58704" lon="6.1027">
        <ele>1105.6</ele>
        <time>2021-08-18T10:44:23Z</time>
      </trkpt>
      <trkpt lat="46.58701" lon="6.10265">
        <ele>1105.8</ele>
        <time>2021-08-18T10:44:25Z</time>
      </trkpt>
      <trkpt lat="46.58698" lon="6.10263">
        <ele>1106</ele>
        <time>2021-08-18T10:44:27Z</time>
      </trkpt>
      <trkpt lat="46.58695" lon="6.1026">
        <ele>1106.2</ele>
        <time>2021-08-18T10:44:28Z</time>
      </trkpt>
      <trkpt lat="46.58694" lon="6.1026">
        <ele>1106.2</ele>
        <time>2021-08-18T10:44:29Z</time>
      </trkpt>
      <trkpt lat="46.58691" lon="6.10257">
        <ele>1106.4</ele>
        <time>2021-08-18T10:44:30Z</time>
      </trkpt>
      <trkpt lat="46.5869" lon="6.10256">
        <ele>1106.4</ele>
        <time>2021-08-18T10:44:31Z</time>
      </trkpt>
      <trkpt lat="46.58687" lon="6.10253">
        <ele>1106.6</ele>
        <time>2021-08-18T10:44:33Z</time>
      </trkpt>
      <trkpt lat="46.58686" lon="6.10252">
        <ele>1106.6</ele>
        <time>2021-08-18T10:44:34Z</time>
      </trkpt>
      <trkpt lat="46.58683" lon="6.10251">
        <ele>1106.8</ele>
        <time>2021-08-18T10:44:36Z</time>
      </trkpt>
      <trkpt lat="46.5868" lon="6.10248">
        <ele>1106.9</ele>
        <time>2021-08-18T10:44:37Z</time>
      </trkpt>
      <trkpt lat="46.58677" lon="6.10246">
        <ele>1107</ele>
        <time>2021-08-18T10:44:39Z</time>
      </trkpt>
      <trkpt lat="46.58675" lon="6.10242">
        <ele>1107.1</ele>
        <time>2021-08-18T10:44:40Z</time>
      </trkpt>
      <trkpt lat="46.58673" lon="6.10239">
        <ele>1107.2</ele>
        <time>2021-08-18T10:44:42Z</time>
      </trkpt>
      <trkpt lat="46.58672" lon="6.10238">
        <ele>1107.2</ele>
        <time>2021-08-18T10:44:43Z</time>
      </trkpt>
      <trkpt lat="46.5867" lon="6.10237">
        <ele>1107.3</ele>
        <time>2021-08-18T10:44:44Z</time>
      </trkpt>
      <trkpt lat="46.58666" lon="6.10234">
        <ele>1107.4</ele>
        <time>2021-08-18T10:44:46Z</time>
      </trkpt>
      <trkpt lat="46.58664" lon="6.10231">
        <ele>1107.5</ele>
        <time>2021-08-18T10:44:48Z</time>
      </trkpt>
      <trkpt lat="46.58663" lon="6.10229">
        <ele>1107.5</ele>
        <time>2021-08-18T10:44:50Z</time>
      </trkpt>
      <trkpt lat="46.58662" lon="6.10225">
        <ele>1107.6</ele>
        <time>2021-08-18T10:44:52Z</time>
      </trkpt>
      <trkpt lat="46.58662" lon="6.10221">
        <ele>1107.7</ele>
        <time>2021-08-18T10:44:53Z</time>
      </trkpt>
      <trkpt lat="46.58659" lon="6.10216">
        <ele>1107.8</ele>
        <time>2021-08-18T10:44:55Z</time>
      </trkpt>
      <trkpt lat="46.58656" lon="6.10213">
        <ele>1107.9</ele>
        <time>2021-08-18T10:44:56Z</time>
      </trkpt>
      <trkpt lat="46.58655" lon="6.10211">
        <ele>1107.9</ele>
        <time>2021-08-18T10:44:57Z</time>
      </trkpt>
      <trkpt lat="46.58651" lon="6.10207">
        <ele>1108.1</ele>
        <time>2021-08-18T10:44:59Z</time>
      </trkpt>
      <trkpt lat="46.58649" lon="6.10202">
        <ele>1108.1</ele>
        <time>2021-08-18T10:45:00Z</time>
      </trkpt>
      <trkpt lat="46.58648" lon="6.102">
        <ele>1108.2</ele>
        <time>2021-08-18T10:45:01Z</time>
      </trkpt>
      <trkpt lat="46.58647" lon="6.10194">
        <ele>1108.2</ele>
        <time>2021-08-18T10:45:03Z</time>
      </trkpt>
      <trkpt lat="46.58646" lon="6.10191">
        <ele>1108.2</ele>
        <time>2021-08-18T10:45:04Z</time>
      </trkpt>
      <trkpt lat="46.58643" lon="6.10186">
        <ele>1108.3</ele>
        <time>2021-08-18T10:45:06Z</time>
      </trkpt>
      <trkpt lat="46.58642" lon="6.10182">
        <ele>1108.4</ele>
        <time>2021-08-18T10:45:07Z</time>
      </trkpt>
      <trkpt lat="46.5864" lon="6.10177">
        <ele>1108.4</ele>
        <time>2021-08-18T10:45:08Z</time>
      </trkpt>
      <trkpt lat="46.58639" lon="6.10176">
        <ele>1108.4</ele>
        <time>2021-08-18T10:45:09Z</time>
      </trkpt>
      <trkpt lat="46.58638" lon="6.10171">
        <ele>1108.5</ele>
        <time>2021-08-18T10:45:11Z</time>
      </trkpt>
      <trkpt lat="46.58636" lon="6.10166">
        <ele>1108.6</ele>
        <time>2021-08-18T10:45:13Z</time>
      </trkpt>
      <trkpt lat="46.58634" lon="6.10161">
        <ele>1108.6</ele>
        <time>2021-08-18T10:45:14Z</time>
      </trkpt>
      <trkpt lat="46.58633" lon="6.10159">
        <ele>1108.6</ele>
        <time>2021-08-18T10:45:15Z</time>
      </trkpt>
      <trkpt lat="46.58632" lon="6.10156">
        <ele>1108.7</ele>
        <time>2021-08-18T10:45:16Z</time>
      </trkpt>
      <trkpt lat="46.58631" lon="6.10152">
        <ele>1108.7</ele>
        <time>2021-08-18T10:45:17Z</time>
      </trkpt>
      <trkpt lat="46.58629" lon="6.10145">
        <ele>1108.8</ele>
        <time>2021-08-18T10:45:19Z</time>
      </trkpt>
      <trkpt lat="46.58627" lon="6.10143">
        <ele>1108.9</ele>
        <time>2021-08-18T10:45:20Z</time>
      </trkpt>
      <trkpt lat="46.58626" lon="6.10142">
        <ele>1108.9</ele>
        <time>2021-08-18T10:45:21Z</time>
      </trkpt>
      <trkpt lat="46.58623" lon="6.10142">
        <ele>1108.9</ele>
        <time>2021-08-18T10:45:23Z</time>
      </trkpt>
      <trkpt lat="46.5862" lon="6.10141">
        <ele>1109</ele>
        <time>2021-08-18T10:45:25Z</time>
      </trkpt>
      <trkpt lat="46.58617" lon="6.10144">
        <ele>1109</ele>
        <time>2021-08-18T10:45:26Z</time>
      </trkpt>
      <trkpt lat="46.58616" lon="6.10146">
        <ele>1109.1</ele>
        <time>2021-08-18T10:45:27Z</time>
      </trkpt>
      <trkpt lat="46.58615" lon="6.1015">
        <ele>1109.2</ele>
        <time>2021-08-18T10:45:29Z</time>
      </trkpt>
      <trkpt lat="46.58615" lon="6.10152">
        <ele>1109.3</ele>
        <time>2021-08-18T10:45:30Z</time>
      </trkpt>
      <trkpt lat="46.58614" lon="6.10159">
        <ele>1109.4</ele>
        <time>2021-08-18T10:45:32Z</time>
      </trkpt>
      <trkpt lat="46.58612" lon="6.10163">
        <ele>1109.6</ele>
        <time>2021-08-18T10:45:33Z</time>
      </trkpt>
      <trkpt lat="46.58611" lon="6.10164">
        <ele>1109.6</ele>
        <time>2021-08-18T10:45:34Z</time>
      </trkpt>
      <trkpt lat="46.58609" lon="6.10166">
        <ele>1109.7</ele>
        <time>2021-08-18T10:45:35Z</time>
      </trkpt>
      <trkpt lat="46.58606" lon="6.10172">
        <ele>1109.9</ele>
        <time>2021-08-18T10:45:37Z</time>
      </trkpt>
      <trkpt lat="46.58603" lon="6.10175">
        <ele>1110.1</ele>
        <time>2021-08-18T10:45:38Z</time>
      </trkpt>
      <trkpt lat="46.586" lon="6.10183">
        <ele>1110.3</ele>
        <time>2021-08-18T10:45:40Z</time>
      </trkpt>
      <trkpt lat="46.586" lon="6.10187">
        <ele>1110.4</ele>
        <time>2021-08-18T10:45:41Z</time>
      </trkpt>
      <trkpt lat="46.58599" lon="6.10192">
        <ele>1110.6</ele>
        <time>2021-08-18T10:45:42Z</time>
      </trkpt>
      <trkpt lat="46.58599" lon="6.102">
        <ele>1110.8</ele>
        <time>2021-08-18T10:45:44Z</time>
      </trkpt>
      <trkpt lat="46.58598" lon="6.10207">
        <ele>1111</ele>
        <time>2021-08-18T10:45:45Z</time>
      </trkpt>
      <trkpt lat="46.58597" lon="6.10211">
        <ele>1111.1</ele>
        <time>2021-08-18T10:45:46Z</time>
      </trkpt>
      <trkpt lat="46.58596" lon="6.10215">
        <ele>1111.2</ele>
        <time>2021-08-18T10:45:47Z</time>
      </trkpt>
      <trkpt lat="46.58593" lon="6.10221">
        <ele>1111.4</ele>
        <time>2021-08-18T10:45:49Z</time>
      </trkpt>
      <trkpt lat="46.58592" lon="6.10223">
        <ele>1111.5</ele>
        <time>2021-08-18T10:45:50Z</time>
      </trkpt>
      <trkpt lat="46.58591" lon="6.10224">
        <ele>1111.6</ele>
        <time>2021-08-18T10:45:51Z</time>
      </trkpt>
      <trkpt lat="46.5859" lon="6.10228">
        <ele>1111.7</ele>
        <time>2021-08-18T10:45:52Z</time>
      </trkpt>
      <trkpt lat="46.58589" lon="6.10235">
        <ele>1111.9</ele>
        <time>2021-08-18T10:45:54Z</time>
      </trkpt>
      <trkpt lat="46.58585" lon="6.1024">
        <ele>1112.1</ele>
        <time>2021-08-18T10:45:56Z</time>
      </trkpt>
      <trkpt lat="46.58582" lon="6.10243">
        <ele>1112.2</ele>
        <time>2021-08-18T10:45:57Z</time>
      </trkpt>
      <trkpt lat="46.58581" lon="6.10244">
        <ele>1112.3</ele>
        <time>2021-08-18T10:45:58Z</time>
      </trkpt>
      <trkpt lat="46.5858" lon="6.10248">
        <ele>1112.4</ele>
        <time>2021-08-18T10:45:59Z</time>
      </trkpt>
      <trkpt lat="46.58577" lon="6.10253">
        <ele>1112.6</ele>
        <time>2021-08-18T10:46:01Z</time>
      </trkpt>
      <trkpt lat="46.58576" lon="6.10254">
        <ele>1112.7</ele>
        <time>2021-08-18T10:46:02Z</time>
      </trkpt>
      <trkpt lat="46.58575" lon="6.10258">
        <ele>1112.8</ele>
        <time>2021-08-18T10:46:03Z</time>
      </trkpt>
      <trkpt lat="46.58574" lon="6.10259">
        <ele>1112.8</ele>
        <time>2021-08-18T10:46:04Z</time>
      </trkpt>
      <trkpt lat="46.58572" lon="6.10263">
        <ele>1113</ele>
        <time>2021-08-18T10:46:05Z</time>
      </trkpt>
      <trkpt lat="46.58571" lon="6.10263">
        <ele>1113</ele>
        <time>2021-08-18T10:46:06Z</time>
      </trkpt>
      <trkpt lat="46.58568" lon="6.10267">
        <ele>1113.2</ele>
        <time>2021-08-18T10:46:08Z</time>
      </trkpt>
      <trkpt lat="46.58567" lon="6.10268">
        <ele>1113.2</ele>
        <time>2021-08-18T10:46:09Z</time>
      </trkpt>
      <trkpt lat="46.58563" lon="6.10272">
        <ele>1113.4</ele>
        <time>2021-08-18T10:46:11Z</time>
      </trkpt>
      <trkpt lat="46.5856" lon="6.10276">
        <ele>1113.5</ele>
        <time>2021-08-18T10:46:13Z</time>
      </trkpt>
      <trkpt lat="46.58557" lon="6.10279">
        <ele>1113.7</ele>
        <time>2021-08-18T10:46:15Z</time>
      </trkpt>
      <trkpt lat="46.58553" lon="6.10282">
        <ele>1113.9</ele>
        <time>2021-08-18T10:46:17Z</time>
      </trkpt>
      <trkpt lat="46.5855" lon="6.10284">
        <ele>1114</ele>
        <time>2021-08-18T10:46:18Z</time>
      </trkpt>
      <trkpt lat="46.58549" lon="6.10285">
        <ele>1114.1</ele>
        <time>2021-08-18T10:46:19Z</time>
      </trkpt>
      <trkpt lat="46.58545" lon="6.10289">
        <ele>1114.3</ele>
        <time>2021-08-18T10:46:20Z</time>
      </trkpt>
      <trkpt lat="46.58544" lon="6.10291">
        <ele>1114.4</ele>
        <time>2021-08-18T10:46:21Z</time>
      </trkpt>
      <trkpt lat="46.58541" lon="6.10297">
        <ele>1114.6</ele>
        <time>2021-08-18T10:46:23Z</time>
      </trkpt>
      <trkpt lat="46.5854" lon="6.10299">
        <ele>1114.7</ele>
        <time>2021-08-18T10:46:24Z</time>
      </trkpt>
      <trkpt lat="46.58539" lon="6.10301">
        <ele>1114.8</ele>
        <time>2021-08-18T10:46:25Z</time>
      </trkpt>
      <trkpt lat="46.58536" lon="6.10308">
        <ele>1115.1</ele>
        <time>2021-08-18T10:46:27Z</time>
      </trkpt>
      <trkpt lat="46.58533" lon="6.10315">
        <ele>1115.4</ele>
        <time>2021-08-18T10:46:29Z</time>
      </trkpt>
      <trkpt lat="46.58532" lon="6.10317">
        <ele>1115.5</ele>
        <time>2021-08-18T10:46:30Z</time>
      </trkpt>
      <trkpt lat="46.58528" lon="6.10321">
        <ele>1115.8</ele>
        <time>2021-08-18T10:46:32Z</time>
      </trkpt>
      <trkpt lat="46.58523" lon="6.10323">
        <ele>1116.1</ele>
        <time>2021-08-18T10:46:34Z</time>
      </trkpt>
      <trkpt lat="46.58518" lon="6.10325">
        <ele>1116.3</ele>
        <time>2021-08-18T10:46:35Z</time>
      </trkpt>
      <trkpt lat="46.58515" lon="6.10328">
        <ele>1116.5</ele>
        <time>2021-08-18T10:46:36Z</time>
      </trkpt>
      <trkpt lat="46.58512" lon="6.1033">
        <ele>1116.6</ele>
        <time>2021-08-18T10:46:37Z</time>
      </trkpt>
      <trkpt lat="46.58509" lon="6.10332">
        <ele>1116.8</ele>
        <time>2021-08-18T10:46:39Z</time>
      </trkpt>
      <trkpt lat="46.58506" lon="6.10334">
        <ele>1117</ele>
        <time>2021-08-18T10:46:40Z</time>
      </trkpt>
      <trkpt lat="46.58504" lon="6.10335">
        <ele>1117.1</ele>
        <time>2021-08-18T10:46:41Z</time>
      </trkpt>
      <trkpt lat="46.58501" lon="6.10336">
        <ele>1117.2</ele>
        <time>2021-08-18T10:46:43Z</time>
      </trkpt>
      <trkpt lat="46.58499" lon="6.10336">
        <ele>1117.3</ele>
        <time>2021-08-18T10:46:44Z</time>
      </trkpt>
      <trkpt lat="46.58494" lon="6.10337">
        <ele>1117.5</ele>
        <time>2021-08-18T10:46:46Z</time>
      </trkpt>
      <trkpt lat="46.58492" lon="6.10338">
        <ele>1117.7</ele>
        <time>2021-08-18T10:46:47Z</time>
      </trkpt>
      <trkpt lat="46.5849" lon="6.10338">
        <ele>1117.7</ele>
        <time>2021-08-18T10:46:48Z</time>
      </trkpt>
      <trkpt lat="46.58486" lon="6.1034">
        <ele>1117.9</ele>
        <time>2021-08-18T10:46:50Z</time>
      </trkpt>
      <trkpt lat="46.58483" lon="6.10342">
        <ele>1118</ele>
        <time>2021-08-18T10:46:51Z</time>
      </trkpt>
      <trkpt lat="46.58479" lon="6.10342">
        <ele>1118.1</ele>
        <time>2021-08-18T10:46:53Z</time>
      </trkpt>
      <trkpt lat="46.58475" lon="6.10343">
        <ele>1118.3</ele>
        <time>2021-08-18T10:46:54Z</time>
      </trkpt>
      <trkpt lat="46.58473" lon="6.10344">
        <ele>1118.4</ele>
        <time>2021-08-18T10:46:55Z</time>
      </trkpt>
      <trkpt lat="46.5847" lon="6.10347">
        <ele>1118.5</ele>
        <time>2021-08-18T10:46:57Z</time>
      </trkpt>
      <trkpt lat="46.58467" lon="6.10348">
        <ele>1118.5</ele>
        <time>2021-08-18T10:46:58Z</time>
      </trkpt>
      <trkpt lat="46.58464" lon="6.10349">
        <ele>1118.6</ele>
        <time>2021-08-18T10:46:59Z</time>
      </trkpt>
      <trkpt lat="46.58463" lon="6.10351">
        <ele>1118.6</ele>
        <time>2021-08-18T10:47:01Z</time>
      </trkpt>
      <trkpt lat="46.58461" lon="6.10355">
        <ele>1118.7</ele>
        <time>2021-08-18T10:47:02Z</time>
      </trkpt>
      <trkpt lat="46.5846" lon="6.10357">
        <ele>1118.8</ele>
        <time>2021-08-18T10:47:03Z</time>
      </trkpt>
      <trkpt lat="46.58457" lon="6.10361">
        <ele>1118.8</ele>
        <time>2021-08-18T10:47:04Z</time>
      </trkpt>
      <trkpt lat="46.58454" lon="6.10364">
        <ele>1118.9</ele>
        <time>2021-08-18T10:47:06Z</time>
      </trkpt>
      <trkpt lat="46.58448" lon="6.10368">
        <ele>1118.9</ele>
        <time>2021-08-18T10:47:08Z</time>
      </trkpt>
      <trkpt lat="46.58445" lon="6.10372">
        <ele>1119</ele>
        <time>2021-08-18T10:47:09Z</time>
      </trkpt>
      <trkpt lat="46.58441" lon="6.10376">
        <ele>1119</ele>
        <time>2021-08-18T10:47:11Z</time>
      </trkpt>
      <trkpt lat="46.58439" lon="6.1038">
        <ele>1119</ele>
        <time>2021-08-18T10:47:12Z</time>
      </trkpt>
      <trkpt lat="46.58433" lon="6.10387">
        <ele>1119.1</ele>
        <time>2021-08-18T10:47:14Z</time>
      </trkpt>
      <trkpt lat="46.5843" lon="6.10392">
        <ele>1119.1</ele>
        <time>2021-08-18T10:47:15Z</time>
      </trkpt>
      <trkpt lat="46.58427" lon="6.10397">
        <ele>1119.1</ele>
        <time>2021-08-18T10:47:16Z</time>
      </trkpt>
      <trkpt lat="46.58423" lon="6.10403">
        <ele>1119.2</ele>
        <time>2021-08-18T10:47:18Z</time>
      </trkpt>
      <trkpt lat="46.58421" lon="6.10407">
        <ele>1119.2</ele>
        <time>2021-08-18T10:47:19Z</time>
      </trkpt>
      <trkpt lat="46.58419" lon="6.1041">
        <ele>1119.2</ele>
        <time>2021-08-18T10:47:20Z</time>
      </trkpt>
      <trkpt lat="46.58418" lon="6.10414">
        <ele>1119.3</ele>
        <time>2021-08-18T10:47:21Z</time>
      </trkpt>
      <trkpt lat="46.58416" lon="6.10417">
        <ele>1119.3</ele>
        <time>2021-08-18T10:47:22Z</time>
      </trkpt>
      <trkpt lat="46.58414" lon="6.10423">
        <ele>1119.4</ele>
        <time>2021-08-18T10:47:24Z</time>
      </trkpt>
      <trkpt lat="46.58411" lon="6.1043">
        <ele>1119.5</ele>
        <time>2021-08-18T10:47:26Z</time>
      </trkpt>
      <trkpt lat="46.5841" lon="6.10434">
        <ele>1119.6</ele>
        <time>2021-08-18T10:47:27Z</time>
      </trkpt>
      <trkpt lat="46.5841" lon="6.1044">
        <ele>1119.6</ele>
        <time>2021-08-18T10:47:28Z</time>
      </trkpt>
      <trkpt lat="46.58411" lon="6.10445">
        <ele>1119.7</ele>
        <time>2021-08-18T10:47:29Z</time>
      </trkpt>
      <trkpt lat="46.58412" lon="6.10451">
        <ele>1119.8</ele>
        <time>2021-08-18T10:47:30Z</time>
      </trkpt>
      <trkpt lat="46.58413" lon="6.10457">
        <ele>1119.9</ele>
        <time>2021-08-18T10:47:32Z</time>
      </trkpt>
      <trkpt lat="46.58414" lon="6.10461">
        <ele>1120</ele>
        <time>2021-08-18T10:47:33Z</time>
      </trkpt>
      <trkpt lat="46.58414" lon="6.10467">
        <ele>1120.1</ele>
        <time>2021-08-18T10:47:34Z</time>
      </trkpt>
      <trkpt lat="46.58414" lon="6.10472">
        <ele>1120.1</ele>
        <time>2021-08-18T10:47:35Z</time>
      </trkpt>
      <trkpt lat="46.58414" lon="6.10477">
        <ele>1120.2</ele>
        <time>2021-08-18T10:47:36Z</time>
      </trkpt>
      <trkpt lat="46.58415" lon="6.10482">
        <ele>1120.3</ele>
        <time>2021-08-18T10:47:37Z</time>
      </trkpt>
      <trkpt lat="46.58415" lon="6.10487">
        <ele>1120.4</ele>
        <time>2021-08-18T10:47:38Z</time>
      </trkpt>
      <trkpt lat="46.58416" lon="6.10494">
        <ele>1120.5</ele>
        <time>2021-08-18T10:47:39Z</time>
      </trkpt>
      <trkpt lat="46.58416" lon="6.10501">
        <ele>1120.6</ele>
        <time>2021-08-18T10:47:41Z</time>
      </trkpt>
      <trkpt lat="46.58416" lon="6.10504">
        <ele>1120.7</ele>
        <time>2021-08-18T10:47:42Z</time>
      </trkpt>
      <trkpt lat="46.58416" lon="6.10506">
        <ele>1120.7</ele>
        <time>2021-08-18T10:47:43Z</time>
      </trkpt>
      <trkpt lat="46.58415" lon="6.10511">
        <ele>1120.8</ele>
        <time>2021-08-18T10:47:44Z</time>
      </trkpt>
      <trkpt lat="46.58413" lon="6.10518">
        <ele>1120.9</ele>
        <time>2021-08-18T10:47:45Z</time>
      </trkpt>
      <trkpt lat="46.58413" lon="6.10524">
        <ele>1121</ele>
        <time>2021-08-18T10:47:47Z</time>
      </trkpt>
      <trkpt lat="46.58411" lon="6.10533">
        <ele>1121.1</ele>
        <time>2021-08-18T10:47:49Z</time>
      </trkpt>
      <trkpt lat="46.58409" lon="6.10539">
        <ele>1121.2</ele>
        <time>2021-08-18T10:47:50Z</time>
      </trkpt>
      <trkpt lat="46.58408" lon="6.10542">
        <ele>1121.3</ele>
        <time>2021-08-18T10:47:51Z</time>
      </trkpt>
      <trkpt lat="46.58407" lon="6.10548">
        <ele>1121.3</ele>
        <time>2021-08-18T10:47:52Z</time>
      </trkpt>
      <trkpt lat="46.58406" lon="6.10553">
        <ele>1121.4</ele>
        <time>2021-08-18T10:47:54Z</time>
      </trkpt>
      <trkpt lat="46.58405" lon="6.10557">
        <ele>1121.5</ele>
        <time>2021-08-18T10:47:55Z</time>
      </trkpt>
      <trkpt lat="46.58403" lon="6.1056">
        <ele>1121.5</ele>
        <time>2021-08-18T10:47:56Z</time>
      </trkpt>
      <trkpt lat="46.58401" lon="6.10565">
        <ele>1121.6</ele>
        <time>2021-08-18T10:47:57Z</time>
      </trkpt>
      <trkpt lat="46.58398" lon="6.1057">
        <ele>1121.6</ele>
        <time>2021-08-18T10:47:58Z</time>
      </trkpt>
      <trkpt lat="46.58397" lon="6.10572">
        <ele>1121.7</ele>
        <time>2021-08-18T10:47:59Z</time>
      </trkpt>
      <trkpt lat="46.58395" lon="6.10577">
        <ele>1121.7</ele>
        <time>2021-08-18T10:48:01Z</time>
      </trkpt>
      <trkpt lat="46.58394" lon="6.10581">
        <ele>1121.8</ele>
        <time>2021-08-18T10:48:02Z</time>
      </trkpt>
      <trkpt lat="46.58392" lon="6.10586">
        <ele>1121.8</ele>
        <time>2021-08-18T10:48:03Z</time>
      </trkpt>
      <trkpt lat="46.58391" lon="6.1059">
        <ele>1121.9</ele>
        <time>2021-08-18T10:48:04Z</time>
      </trkpt>
      <trkpt lat="46.58389" lon="6.10594">
        <ele>1121.9</ele>
        <time>2021-08-18T10:48:05Z</time>
      </trkpt>
      <trkpt lat="46.58386" lon="6.106">
        <ele>1122</ele>
        <time>2021-08-18T10:48:07Z</time>
      </trkpt>
      <trkpt lat="46.58384" lon="6.10603">
        <ele>1122.1</ele>
        <time>2021-08-18T10:48:08Z</time>
      </trkpt>
      <trkpt lat="46.58381" lon="6.10607">
        <ele>1122.1</ele>
        <time>2021-08-18T10:48:09Z</time>
      </trkpt>
      <trkpt lat="46.58378" lon="6.10612">
        <ele>1122.2</ele>
        <time>2021-08-18T10:48:10Z</time>
      </trkpt>
      <trkpt lat="46.58376" lon="6.10614">
        <ele>1122.3</ele>
        <time>2021-08-18T10:48:12Z</time>
      </trkpt>
      <trkpt lat="46.58374" lon="6.10618">
        <ele>1122.3</ele>
        <time>2021-08-18T10:48:13Z</time>
      </trkpt>
      <trkpt lat="46.58372" lon="6.10623">
        <ele>1122.4</ele>
        <time>2021-08-18T10:48:14Z</time>
      </trkpt>
      <trkpt lat="46.58369" lon="6.10628">
        <ele>1122.4</ele>
        <time>2021-08-18T10:48:15Z</time>
      </trkpt>
      <trkpt lat="46.58366" lon="6.10631">
        <ele>1122.5</ele>
        <time>2021-08-18T10:48:17Z</time>
      </trkpt>
      <trkpt lat="46.58364" lon="6.10635">
        <ele>1122.4</ele>
        <time>2021-08-18T10:48:18Z</time>
      </trkpt>
      <trkpt lat="46.58362" lon="6.1064">
        <ele>1122.4</ele>
        <time>2021-08-18T10:48:19Z</time>
      </trkpt>
      <trkpt lat="46.58359" lon="6.10644">
        <ele>1122.3</ele>
        <time>2021-08-18T10:48:20Z</time>
      </trkpt>
      <trkpt lat="46.58357" lon="6.10648">
        <ele>1122.3</ele>
        <time>2021-08-18T10:48:21Z</time>
      </trkpt>
      <trkpt lat="46.58356" lon="6.10652">
        <ele>1122.2</ele>
        <time>2021-08-18T10:48:22Z</time>
      </trkpt>
      <trkpt lat="46.58354" lon="6.10658">
        <ele>1122.1</ele>
        <time>2021-08-18T10:48:24Z</time>
      </trkpt>
      <trkpt lat="46.58352" lon="6.10663">
        <ele>1122</ele>
        <time>2021-08-18T10:48:25Z</time>
      </trkpt>
      <trkpt lat="46.5835" lon="6.10668">
        <ele>1121.8</ele>
        <time>2021-08-18T10:48:26Z</time>
      </trkpt>
      <trkpt lat="46.58348" lon="6.10673">
        <ele>1121.7</ele>
        <time>2021-08-18T10:48:27Z</time>
      </trkpt>
      <trkpt lat="46.58343" lon="6.10681">
        <ele>1121.5</ele>
        <time>2021-08-18T10:48:28Z</time>
      </trkpt>
      <trkpt lat="46.58338" lon="6.10685">
        <ele>1121.4</ele>
        <time>2021-08-18T10:48:29Z</time>
      </trkpt>
      <trkpt lat="46.58332" lon="6.10694">
        <ele>1121.3</ele>
        <time>2021-08-18T10:48:31Z</time>
      </trkpt>
      <trkpt lat="46.58327" lon="6.10698">
        <ele>1121.3</ele>
        <time>2021-08-18T10:48:32Z</time>
      </trkpt>
      <trkpt lat="46.58316" lon="6.10705">
        <ele>1121.3</ele>
        <time>2021-08-18T10:48:34Z</time>
      </trkpt>
      <trkpt lat="46.58306" lon="6.1071">
        <ele>1121.4</ele>
        <time>2021-08-18T10:48:36Z</time>
      </trkpt>
      <trkpt lat="46.58296" lon="6.10712">
        <ele>1121.6</ele>
        <time>2021-08-18T10:48:38Z</time>
      </trkpt>
      <trkpt lat="46.58284" lon="6.10714">
        <ele>1121.8</ele>
        <time>2021-08-18T10:48:40Z</time>
      </trkpt>
      <trkpt lat="46.58278" lon="6.10715">
        <ele>1122</ele>
        <time>2021-08-18T10:48:41Z</time>
      </trkpt>
      <trkpt lat="46.58267" lon="6.10717">
        <ele>1122.3</ele>
        <time>2021-08-18T10:48:43Z</time>
      </trkpt>
      <trkpt lat="46.58262" lon="6.10719">
        <ele>1122.4</ele>
        <time>2021-08-18T10:48:44Z</time>
      </trkpt>
      <trkpt lat="46.58258" lon="6.10722">
        <ele>1122.6</ele>
        <time>2021-08-18T10:48:45Z</time>
      </trkpt>
      <trkpt lat="46.58253" lon="6.10724">
        <ele>1122.8</ele>
        <time>2021-08-18T10:48:47Z</time>
      </trkpt>
      <trkpt lat="46.58249" lon="6.10724">
        <ele>1123</ele>
        <time>2021-08-18T10:48:48Z</time>
      </trkpt>
      <trkpt lat="46.58245" lon="6.10722">
        <ele>1123.2</ele>
        <time>2021-08-18T10:48:49Z</time>
      </trkpt>
      <trkpt lat="46.58242" lon="6.10721">
        <ele>1123.3</ele>
        <time>2021-08-18T10:48:50Z</time>
      </trkpt>
      <trkpt lat="46.58235" lon="6.10717">
        <ele>1123.6</ele>
        <time>2021-08-18T10:48:51Z</time>
      </trkpt>
      <trkpt lat="46.58229" lon="6.10712">
        <ele>1124</ele>
        <time>2021-08-18T10:48:53Z</time>
      </trkpt>
      <trkpt lat="46.58222" lon="6.10707">
        <ele>1124.3</ele>
        <time>2021-08-18T10:48:55Z</time>
      </trkpt>
      <trkpt lat="46.58219" lon="6.1071">
        <ele>1124.4</ele>
        <time>2021-08-18T10:48:56Z</time>
      </trkpt>
      <trkpt lat="46.58216" lon="6.10712">
        <ele>1124.5</ele>
        <time>2021-08-18T10:48:57Z</time>
      </trkpt>
      <trkpt lat="46.58212" lon="6.10711">
        <ele>1124.6</ele>
        <time>2021-08-18T10:48:58Z</time>
      </trkpt>
      <trkpt lat="46.58211" lon="6.10711">
        <ele>1124.6</ele>
        <time>2021-08-18T10:48:59Z</time>
      </trkpt>
      <trkpt lat="46.58206" lon="6.10709">
        <ele>1124.7</ele>
        <time>2021-08-18T10:49:01Z</time>
      </trkpt>
      <trkpt lat="46.58204" lon="6.10708">
        <ele>1124.7</ele>
        <time>2021-08-18T10:49:02Z</time>
      </trkpt>
      <trkpt lat="46.58201" lon="6.10708">
        <ele>1124.8</ele>
        <time>2021-08-18T10:49:03Z</time>
      </trkpt>
      <trkpt lat="46.58197" lon="6.10707">
        <ele>1124.8</ele>
        <time>2021-08-18T10:49:04Z</time>
      </trkpt>
      <trkpt lat="46.58194" lon="6.10706">
        <ele>1124.8</ele>
        <time>2021-08-18T10:49:05Z</time>
      </trkpt>
      <trkpt lat="46.58191" lon="6.10704">
        <ele>1124.7</ele>
        <time>2021-08-18T10:49:07Z</time>
      </trkpt>
      <trkpt lat="46.58188" lon="6.10703">
        <ele>1124.7</ele>
        <time>2021-08-18T10:49:08Z</time>
      </trkpt>
      <trkpt lat="46.58185" lon="6.10701">
        <ele>1124.6</ele>
        <time>2021-08-18T10:49:09Z</time>
      </trkpt>
      <trkpt lat="46.58182" lon="6.10699">
        <ele>1124.4</ele>
        <time>2021-08-18T10:49:10Z</time>
      </trkpt>
      <trkpt lat="46.58177" lon="6.10696">
        <ele>1124.3</ele>
        <time>2021-08-18T10:49:12Z</time>
      </trkpt>
      <trkpt lat="46.58174" lon="6.10692">
        <ele>1124.1</ele>
        <time>2021-08-18T10:49:13Z</time>
      </trkpt>
      <trkpt lat="46.58164" lon="6.10683">
        <ele>1123.7</ele>
        <time>2021-08-18T10:49:15Z</time>
      </trkpt>
      <trkpt lat="46.58159" lon="6.10678">
        <ele>1123.4</ele>
        <time>2021-08-18T10:49:16Z</time>
      </trkpt>
      <trkpt lat="46.58154" lon="6.10673">
        <ele>1123.1</ele>
        <time>2021-08-18T10:49:17Z</time>
      </trkpt>
      <trkpt lat="46.58148" lon="6.10667">
        <ele>1122.9</ele>
        <time>2021-08-18T10:49:18Z</time>
      </trkpt>
      <trkpt lat="46.58137" lon="6.10656">
        <ele>1122.3</ele>
        <time>2021-08-18T10:49:20Z</time>
      </trkpt>
      <trkpt lat="46.58127" lon="6.10644">
        <ele>1121.7</ele>
        <time>2021-08-18T10:49:22Z</time>
      </trkpt>
      <trkpt lat="46.58121" lon="6.10638">
        <ele>1121.4</ele>
        <time>2021-08-18T10:49:23Z</time>
      </trkpt>
      <trkpt lat="46.58116" lon="6.10631">
        <ele>1121</ele>
        <time>2021-08-18T10:49:24Z</time>
      </trkpt>
      <trkpt lat="46.58105" lon="6.10618">
        <ele>1120.3</ele>
        <time>2021-08-18T10:49:26Z</time>
      </trkpt>
      <trkpt lat="46.58092" lon="6.10603">
        <ele>1119.7</ele>
        <time>2021-08-18T10:49:28Z</time>
      </trkpt>
      <trkpt lat="46.58079" lon="6.1059">
        <ele>1119.4</ele>
        <time>2021-08-18T10:49:30Z</time>
      </trkpt>
      <trkpt lat="46.58065" lon="6.10577">
        <ele>1119.5</ele>
        <time>2021-08-18T10:49:32Z</time>
      </trkpt>
      <trkpt lat="46.58053" lon="6.10566">
        <ele>1119.7</ele>
        <time>2021-08-18T10:49:34Z</time>
      </trkpt>
      <trkpt lat="46.58047" lon="6.10561">
        <ele>1119.8</ele>
        <time>2021-08-18T10:49:35Z</time>
      </trkpt>
      <trkpt lat="46.58041" lon="6.10557">
        <ele>1120</ele>
        <time>2021-08-18T10:49:36Z</time>
      </trkpt>
      <trkpt lat="46.58027" lon="6.10551">
        <ele>1120.4</ele>
        <time>2021-08-18T10:49:38Z</time>
      </trkpt>
      <trkpt lat="46.58012" lon="6.10548">
        <ele>1120.7</ele>
        <time>2021-08-18T10:49:40Z</time>
      </trkpt>
      <trkpt lat="46.58" lon="6.10545">
        <ele>1121.2</ele>
        <time>2021-08-18T10:49:42Z</time>
      </trkpt>
      <trkpt lat="46.57987" lon="6.10544">
        <ele>1121.8</ele>
        <time>2021-08-18T10:49:44Z</time>
      </trkpt>
      <trkpt lat="46.57978" lon="6.10542">
        <ele>1122.3</ele>
        <time>2021-08-18T10:49:46Z</time>
      </trkpt>
      <trkpt lat="46.57969" lon="6.10542">
        <ele>1123</ele>
        <time>2021-08-18T10:49:48Z</time>
      </trkpt>
      <trkpt lat="46.57961" lon="6.10543">
        <ele>1123.6</ele>
        <time>2021-08-18T10:49:50Z</time>
      </trkpt>
      <trkpt lat="46.57958" lon="6.10543">
        <ele>1123.8</ele>
        <time>2021-08-18T10:49:51Z</time>
      </trkpt>
      <trkpt lat="46.57953" lon="6.10543">
        <ele>1124.2</ele>
        <time>2021-08-18T10:49:53Z</time>
      </trkpt>
      <trkpt lat="46.57949" lon="6.10544">
        <ele>1124.5</ele>
        <time>2021-08-18T10:49:55Z</time>
      </trkpt>
      <trkpt lat="46.57948" lon="6.10544">
        <ele>1124.6</ele>
        <time>2021-08-18T10:49:56Z</time>
      </trkpt>
      <trkpt lat="46.57947" lon="6.10544">
        <ele>1124.6</ele>
        <time>2021-08-18T10:49:57Z</time>
      </trkpt>
      <trkpt lat="46.57946" lon="6.10544">
        <ele>1124.7</ele>
        <time>2021-08-18T10:49:58Z</time>
      </trkpt>
      <trkpt lat="46.57943" lon="6.10545">
        <ele>1124.9</ele>
        <time>2021-08-18T10:49:59Z</time>
      </trkpt>
      <trkpt lat="46.57941" lon="6.10545">
        <ele>1124.9</ele>
        <time>2021-08-18T10:50:00Z</time>
      </trkpt>
      <trkpt lat="46.5794" lon="6.10546">
        <ele>1125.1</ele>
        <time>2021-08-18T10:50:02Z</time>
      </trkpt>
      <trkpt lat="46.57937" lon="6.10547">
        <ele>1125.2</ele>
        <time>2021-08-18T10:50:04Z</time>
      </trkpt>
      <trkpt lat="46.57934" lon="6.10549">
        <ele>1125.4</ele>
        <time>2021-08-18T10:50:06Z</time>
      </trkpt>
      <trkpt lat="46.57931" lon="6.1055">
        <ele>1125.6</ele>
        <time>2021-08-18T10:50:07Z</time>
      </trkpt>
      <trkpt lat="46.5793" lon="6.1055">
        <ele>1125.6</ele>
        <time>2021-08-18T10:50:08Z</time>
      </trkpt>
      <trkpt lat="46.57927" lon="6.1055">
        <ele>1125.8</ele>
        <time>2021-08-18T10:50:09Z</time>
      </trkpt>
      <trkpt lat="46.57924" lon="6.1055">
        <ele>1125.9</ele>
        <time>2021-08-18T10:50:10Z</time>
      </trkpt>
      <trkpt lat="46.57923" lon="6.1055">
        <ele>1126</ele>
        <time>2021-08-18T10:50:11Z</time>
      </trkpt>
      <trkpt lat="46.57919" lon="6.10551">
        <ele>1126.2</ele>
        <time>2021-08-18T10:50:12Z</time>
      </trkpt>
      <trkpt lat="46.57917" lon="6.10551">
        <ele>1126.2</ele>
        <time>2021-08-18T10:50:13Z</time>
      </trkpt>
      <trkpt lat="46.57914" lon="6.10553">
        <ele>1126.4</ele>
        <time>2021-08-18T10:50:15Z</time>
      </trkpt>
      <trkpt lat="46.5791" lon="6.10555">
        <ele>1126.6</ele>
        <time>2021-08-18T10:50:17Z</time>
      </trkpt>
      <trkpt lat="46.57907" lon="6.10555">
        <ele>1126.7</ele>
        <time>2021-08-18T10:50:18Z</time>
      </trkpt>
      <trkpt lat="46.57904" lon="6.10555">
        <ele>1126.9</ele>
        <time>2021-08-18T10:50:19Z</time>
      </trkpt>
      <trkpt lat="46.57902" lon="6.10555">
        <ele>1126.9</ele>
        <time>2021-08-18T10:50:21Z</time>
      </trkpt>
      <trkpt lat="46.57903" lon="6.10554">
        <ele>1126.9</ele>
        <time>2021-08-18T10:50:22Z</time>
      </trkpt>
      <trkpt lat="46.57903" lon="6.10554">
        <ele>1126.9</ele>
        <time>2021-08-18T10:50:23Z</time>
      </trkpt>
      <trkpt lat="46.57902" lon="6.10554">
        <ele>1126.9</ele>
        <time>2021-08-18T10:50:25Z</time>
      </trkpt>
      <trkpt lat="46.579" lon="6.10554">
        <ele>1127</ele>
        <time>2021-08-18T10:50:26Z</time>
      </trkpt>
      <trkpt lat="46.57899" lon="6.10553">
        <ele>1127.1</ele>
        <time>2021-08-18T10:50:27Z</time>
      </trkpt>
      <trkpt lat="46.57896" lon="6.10553">
        <ele>1127.1</ele>
        <time>2021-08-18T10:50:29Z</time>
      </trkpt>
      <trkpt lat="46.57891" lon="6.10555">
        <ele>1127.3</ele>
        <time>2021-08-18T10:50:31Z</time>
      </trkpt>
      <trkpt lat="46.57885" lon="6.10555">
        <ele>1127.4</ele>
        <time>2021-08-18T10:50:32Z</time>
      </trkpt>
      <trkpt lat="46.5788" lon="6.10556">
        <ele>1127.6</ele>
        <time>2021-08-18T10:50:33Z</time>
      </trkpt>
      <trkpt lat="46.57877" lon="6.10556">
        <ele>1127.6</ele>
        <time>2021-08-18T10:50:35Z</time>
      </trkpt>
      <trkpt lat="46.57876" lon="6.10557">
        <ele>1127.7</ele>
        <time>2021-08-18T10:50:36Z</time>
      </trkpt>
      <trkpt lat="46.57874" lon="6.10558">
        <ele>1127.7</ele>
        <time>2021-08-18T10:50:37Z</time>
      </trkpt>
      <trkpt lat="46.57872" lon="6.10558">
        <ele>1127.8</ele>
        <time>2021-08-18T10:50:38Z</time>
      </trkpt>
      <trkpt lat="46.5787" lon="6.1056">
        <ele>1127.8</ele>
        <time>2021-08-18T10:50:39Z</time>
      </trkpt>
      <trkpt lat="46.57858" lon="6.10566">
        <ele>1128.2</ele>
        <time>2021-08-18T10:50:46Z</time>
      </trkpt>
      <trkpt lat="46.57852" lon="6.10567">
        <ele>1128.4</ele>
        <time>2021-08-18T10:50:48Z</time>
      </trkpt>
      <trkpt lat="46.57846" lon="6.10566">
        <ele>1128.6</ele>
        <time>2021-08-18T10:50:49Z</time>
      </trkpt>
      <trkpt lat="46.5784" lon="6.10565">
        <ele>1128.9</ele>
        <time>2021-08-18T10:50:51Z</time>
      </trkpt>
      <trkpt lat="46.57837" lon="6.10564">
        <ele>1129.1</ele>
        <time>2021-08-18T10:50:52Z</time>
      </trkpt>
      <trkpt lat="46.57833" lon="6.10564">
        <ele>1129.2</ele>
        <time>2021-08-18T10:50:54Z</time>
      </trkpt>
      <trkpt lat="46.57829" lon="6.10565">
        <ele>1129.5</ele>
        <time>2021-08-18T10:50:55Z</time>
      </trkpt>
      <trkpt lat="46.57824" lon="6.10566">
        <ele>1129.8</ele>
        <time>2021-08-18T10:50:57Z</time>
      </trkpt>
      <trkpt lat="46.5782" lon="6.10566">
        <ele>1130</ele>
        <time>2021-08-18T10:50:58Z</time>
      </trkpt>
      <trkpt lat="46.57818" lon="6.10566">
        <ele>1130.2</ele>
        <time>2021-08-18T10:50:59Z</time>
      </trkpt>
      <trkpt lat="46.57815" lon="6.10565">
        <ele>1130.4</ele>
        <time>2021-08-18T10:51:00Z</time>
      </trkpt>
      <trkpt lat="46.57811" lon="6.10563">
        <ele>1130.7</ele>
        <time>2021-08-18T10:51:02Z</time>
      </trkpt>
      <trkpt lat="46.57807" lon="6.10562">
        <ele>1131</ele>
        <time>2021-08-18T10:51:04Z</time>
      </trkpt>
      <trkpt lat="46.57804" lon="6.1056">
        <ele>1131.2</ele>
        <time>2021-08-18T10:51:05Z</time>
      </trkpt>
      <trkpt lat="46.57803" lon="6.10559">
        <ele>1131.3</ele>
        <time>2021-08-18T10:51:06Z</time>
      </trkpt>
      <trkpt lat="46.578" lon="6.10557">
        <ele>1131.5</ele>
        <time>2021-08-18T10:51:07Z</time>
      </trkpt>
      <trkpt lat="46.57798" lon="6.10555">
        <ele>1131.7</ele>
        <time>2021-08-18T10:51:08Z</time>
      </trkpt>
      <trkpt lat="46.57795" lon="6.10554">
        <ele>1131.9</ele>
        <time>2021-08-18T10:51:10Z</time>
      </trkpt>
      <trkpt lat="46.57792" lon="6.10552">
        <ele>1132.2</ele>
        <time>2021-08-18T10:51:11Z</time>
      </trkpt>
      <trkpt lat="46.5779" lon="6.10551">
        <ele>1132.3</ele>
        <time>2021-08-18T10:51:13Z</time>
      </trkpt>
      <trkpt lat="46.57791" lon="6.1055">
        <ele>1132.4</ele>
        <time>2021-08-18T10:51:14Z</time>
      </trkpt>
      <trkpt lat="46.57793" lon="6.10551">
        <ele>1132.5</ele>
        <time>2021-08-18T10:51:16Z</time>
      </trkpt>
      <trkpt lat="46.57794" lon="6.10551">
        <ele>1132.6</ele>
        <time>2021-08-18T10:51:18Z</time>
      </trkpt>
      <trkpt lat="46.57794" lon="6.10551">
        <ele>1132.6</ele>
        <time>2021-08-18T10:51:19Z</time>
      </trkpt>
      <trkpt lat="46.57794" lon="6.10551">
        <ele>1132.6</ele>
        <time>2021-08-18T10:51:20Z</time>
      </trkpt>
      <trkpt lat="46.57794" lon="6.10551">
        <ele>1132.6</ele>
        <time>2021-08-18T10:51:22Z</time>
      </trkpt>
      <trkpt lat="46.57794" lon="6.10551">
        <ele>1132.6</ele>
        <time>2021-08-18T10:51:24Z</time>
      </trkpt>
      <trkpt lat="46.57784" lon="6.10517">
        <ele>1133.9</ele>
        <time>2021-08-18T10:51:56Z</time>
      </trkpt>
      <trkpt lat="46.5778" lon="6.10508">
        <ele>1134.2</ele>
        <time>2021-08-18T10:51:58Z</time>
      </trkpt>
      <trkpt lat="46.57777" lon="6.10503">
        <ele>1134.4</ele>
        <time>2021-08-18T10:51:59Z</time>
      </trkpt>
      <trkpt lat="46.57775" lon="6.10499">
        <ele>1134.5</ele>
        <time>2021-08-18T10:52:01Z</time>
      </trkpt>
      <trkpt lat="46.57772" lon="6.10495">
        <ele>1134.6</ele>
        <time>2021-08-18T10:52:02Z</time>
      </trkpt>
      <trkpt lat="46.57769" lon="6.10495">
        <ele>1134.7</ele>
        <time>2021-08-18T10:52:03Z</time>
      </trkpt>
      <trkpt lat="46.57762" lon="6.10493">
        <ele>1135</ele>
        <time>2021-08-18T10:52:05Z</time>
      </trkpt>
      <trkpt lat="46.57759" lon="6.10492">
        <ele>1135.1</ele>
        <time>2021-08-18T10:52:06Z</time>
      </trkpt>
      <trkpt lat="46.57758" lon="6.10491">
        <ele>1135.1</ele>
        <time>2021-08-18T10:52:07Z</time>
      </trkpt>
      <trkpt lat="46.57758" lon="6.1049">
        <ele>1135.1</ele>
        <time>2021-08-18T10:52:09Z</time>
      </trkpt>
      <trkpt lat="46.57756" lon="6.10488">
        <ele>1135.2</ele>
        <time>2021-08-18T10:52:10Z</time>
      </trkpt>
      <trkpt lat="46.57754" lon="6.10485">
        <ele>1135.3</ele>
        <time>2021-08-18T10:52:11Z</time>
      </trkpt>
      <trkpt lat="46.57752" lon="6.10483">
        <ele>1135.4</ele>
        <time>2021-08-18T10:52:12Z</time>
      </trkpt>
      <trkpt lat="46.57747" lon="6.10478">
        <ele>1135.5</ele>
        <time>2021-08-18T10:52:13Z</time>
      </trkpt>
      <trkpt lat="46.57744" lon="6.10474">
        <ele>1135.6</ele>
        <time>2021-08-18T10:52:15Z</time>
      </trkpt>
      <trkpt lat="46.57741" lon="6.10468">
        <ele>1135.7</ele>
        <time>2021-08-18T10:52:16Z</time>
      </trkpt>
      <trkpt lat="46.57738" lon="6.10464">
        <ele>1135.8</ele>
        <time>2021-08-18T10:52:18Z</time>
      </trkpt>
      <trkpt lat="46.57735" lon="6.10458">
        <ele>1135.9</ele>
        <time>2021-08-18T10:52:19Z</time>
      </trkpt>
      <trkpt lat="46.57734" lon="6.10454">
        <ele>1136</ele>
        <time>2021-08-18T10:52:20Z</time>
      </trkpt>
      <trkpt lat="46.57732" lon="6.10449">
        <ele>1136.1</ele>
        <time>2021-08-18T10:52:22Z</time>
      </trkpt>
      <trkpt lat="46.5773" lon="6.10444">
        <ele>1136.2</ele>
        <time>2021-08-18T10:52:23Z</time>
      </trkpt>
      <trkpt lat="46.57727" lon="6.1044">
        <ele>1136.3</ele>
        <time>2021-08-18T10:52:24Z</time>
      </trkpt>
      <trkpt lat="46.57725" lon="6.10436">
        <ele>1136.5</ele>
        <time>2021-08-18T10:52:25Z</time>
      </trkpt>
      <trkpt lat="46.57722" lon="6.10431">
        <ele>1136.6</ele>
        <time>2021-08-18T10:52:26Z</time>
      </trkpt>
      <trkpt lat="46.5772" lon="6.10427">
        <ele>1136.7</ele>
        <time>2021-08-18T10:52:27Z</time>
      </trkpt>
      <trkpt lat="46.57719" lon="6.10423">
        <ele>1136.7</ele>
        <time>2021-08-18T10:52:28Z</time>
      </trkpt>
      <trkpt lat="46.57718" lon="6.1042">
        <ele>1136.8</ele>
        <time>2021-08-18T10:52:29Z</time>
      </trkpt>
      <trkpt lat="46.57716" lon="6.10415">
        <ele>1136.9</ele>
        <time>2021-08-18T10:52:30Z</time>
      </trkpt>
      <trkpt lat="46.57713" lon="6.10411">
        <ele>1137</ele>
        <time>2021-08-18T10:52:31Z</time>
      </trkpt>
      <trkpt lat="46.57711" lon="6.10406">
        <ele>1137.1</ele>
        <time>2021-08-18T10:52:33Z</time>
      </trkpt>
      <trkpt lat="46.57708" lon="6.10403">
        <ele>1137.2</ele>
        <time>2021-08-18T10:52:34Z</time>
      </trkpt>
      <trkpt lat="46.57703" lon="6.10398">
        <ele>1137.4</ele>
        <time>2021-08-18T10:52:35Z</time>
      </trkpt>
      <trkpt lat="46.577" lon="6.10395">
        <ele>1137.4</ele>
        <time>2021-08-18T10:52:36Z</time>
      </trkpt>
      <trkpt lat="46.57697" lon="6.10391">
        <ele>1137.4</ele>
        <time>2021-08-18T10:52:38Z</time>
      </trkpt>
      <trkpt lat="46.57694" lon="6.10387">
        <ele>1137.4</ele>
        <time>2021-08-18T10:52:39Z</time>
      </trkpt>
      <trkpt lat="46.57692" lon="6.10384">
        <ele>1137.3</ele>
        <time>2021-08-18T10:52:40Z</time>
      </trkpt>
      <trkpt lat="46.57691" lon="6.10381">
        <ele>1137.2</ele>
        <time>2021-08-18T10:52:42Z</time>
      </trkpt>
      <trkpt lat="46.5769" lon="6.10378">
        <ele>1137.2</ele>
        <time>2021-08-18T10:52:44Z</time>
      </trkpt>
      <trkpt lat="46.57688" lon="6.10376">
        <ele>1137.1</ele>
        <time>2021-08-18T10:52:45Z</time>
      </trkpt>
      <trkpt lat="46.57684" lon="6.10371">
        <ele>1136.8</ele>
        <time>2021-08-18T10:52:47Z</time>
      </trkpt>
      <trkpt lat="46.57678" lon="6.10367">
        <ele>1136.4</ele>
        <time>2021-08-18T10:52:48Z</time>
      </trkpt>
      <trkpt lat="46.57667" lon="6.10358">
        <ele>1135.9</ele>
        <time>2021-08-18T10:52:50Z</time>
      </trkpt>
      <trkpt lat="46.57663" lon="6.10353">
        <ele>1135.6</ele>
        <time>2021-08-18T10:52:51Z</time>
      </trkpt>
      <trkpt lat="46.57652" lon="6.10342">
        <ele>1134.9</ele>
        <time>2021-08-18T10:52:53Z</time>
      </trkpt>
      <trkpt lat="46.57647" lon="6.10336">
        <ele>1134.5</ele>
        <time>2021-08-18T10:52:54Z</time>
      </trkpt>
      <trkpt lat="46.57636" lon="6.10324">
        <ele>1133.7</ele>
        <time>2021-08-18T10:52:56Z</time>
      </trkpt>
      <trkpt lat="46.57625" lon="6.10313">
        <ele>1132.7</ele>
        <time>2021-08-18T10:52:58Z</time>
      </trkpt>
      <trkpt lat="46.57619" lon="6.10308">
        <ele>1132.1</ele>
        <time>2021-08-18T10:52:59Z</time>
      </trkpt>
      <trkpt lat="46.57608" lon="6.10298">
        <ele>1131.1</ele>
        <time>2021-08-18T10:53:01Z</time>
      </trkpt>
      <trkpt lat="46.57603" lon="6.10293">
        <ele>1130.6</ele>
        <time>2021-08-18T10:53:02Z</time>
      </trkpt>
      <trkpt lat="46.57591" lon="6.10284">
        <ele>1129.9</ele>
        <time>2021-08-18T10:53:04Z</time>
      </trkpt>
      <trkpt lat="46.57585" lon="6.10279">
        <ele>1129.7</ele>
        <time>2021-08-18T10:53:05Z</time>
      </trkpt>
      <trkpt lat="46.57579" lon="6.10273">
        <ele>1129.8</ele>
        <time>2021-08-18T10:53:06Z</time>
      </trkpt>
      <trkpt lat="46.57568" lon="6.10264">
        <ele>1130.3</ele>
        <time>2021-08-18T10:53:08Z</time>
      </trkpt>
      <trkpt lat="46.57561" lon="6.10257">
        <ele>1130.8</ele>
        <time>2021-08-18T10:53:10Z</time>
      </trkpt>
      <trkpt lat="46.57557" lon="6.10253">
        <ele>1131.1</ele>
        <time>2021-08-18T10:53:11Z</time>
      </trkpt>
      <trkpt lat="46.57553" lon="6.10249">
        <ele>1131.4</ele>
        <time>2021-08-18T10:53:12Z</time>
      </trkpt>
      <trkpt lat="46.57547" lon="6.10243">
        <ele>1131.9</ele>
        <time>2021-08-18T10:53:14Z</time>
      </trkpt>
      <trkpt lat="46.5754" lon="6.10235">
        <ele>1132.6</ele>
        <time>2021-08-18T10:53:16Z</time>
      </trkpt>
      <trkpt lat="46.57535" lon="6.10227">
        <ele>1133.2</ele>
        <time>2021-08-18T10:53:18Z</time>
      </trkpt>
      <trkpt lat="46.57533" lon="6.10218">
        <ele>1133.6</ele>
        <time>2021-08-18T10:53:20Z</time>
      </trkpt>
      <trkpt lat="46.57532" lon="6.10215">
        <ele>1133.7</ele>
        <time>2021-08-18T10:53:21Z</time>
      </trkpt>
      <trkpt lat="46.57531" lon="6.10211">
        <ele>1133.8</ele>
        <time>2021-08-18T10:53:22Z</time>
      </trkpt>
      <trkpt lat="46.5753" lon="6.10203">
        <ele>1133.9</ele>
        <time>2021-08-18T10:53:23Z</time>
      </trkpt>
      <trkpt lat="46.57529" lon="6.10197">
        <ele>1133.9</ele>
        <time>2021-08-18T10:53:24Z</time>
      </trkpt>
      <trkpt lat="46.57527" lon="6.10189">
        <ele>1133.9</ele>
        <time>2021-08-18T10:53:26Z</time>
      </trkpt>
      <trkpt lat="46.57525" lon="6.10176">
        <ele>1133.6</ele>
        <time>2021-08-18T10:53:28Z</time>
      </trkpt>
      <trkpt lat="46.57523" lon="6.10163">
        <ele>1133.2</ele>
        <time>2021-08-18T10:53:30Z</time>
      </trkpt>
      <trkpt lat="46.57522" lon="6.10149">
        <ele>1132.6</ele>
        <time>2021-08-18T10:53:32Z</time>
      </trkpt>
      <trkpt lat="46.57516" lon="6.10135">
        <ele>1132.2</ele>
        <time>2021-08-18T10:53:34Z</time>
      </trkpt>
      <trkpt lat="46.57513" lon="6.10128">
        <ele>1132</ele>
        <time>2021-08-18T10:53:35Z</time>
      </trkpt>
      <trkpt lat="46.5751" lon="6.1012">
        <ele>1131.9</ele>
        <time>2021-08-18T10:53:36Z</time>
      </trkpt>
      <trkpt lat="46.57508" lon="6.10112">
        <ele>1131.7</ele>
        <time>2021-08-18T10:53:37Z</time>
      </trkpt>
      <trkpt lat="46.57506" lon="6.10105">
        <ele>1131.5</ele>
        <time>2021-08-18T10:53:38Z</time>
      </trkpt>
      <trkpt lat="46.57505" lon="6.10097">
        <ele>1131.3</ele>
        <time>2021-08-18T10:53:39Z</time>
      </trkpt>
      <trkpt lat="46.57507" lon="6.10083">
        <ele>1130.9</ele>
        <time>2021-08-18T10:53:41Z</time>
      </trkpt>
      <trkpt lat="46.57508" lon="6.10077">
        <ele>1130.8</ele>
        <time>2021-08-18T10:53:42Z</time>
      </trkpt>
      <trkpt lat="46.57509" lon="6.10072">
        <ele>1130.6</ele>
        <time>2021-08-18T10:53:43Z</time>
      </trkpt>
      <trkpt lat="46.57511" lon="6.10067">
        <ele>1130.5</ele>
        <time>2021-08-18T10:53:44Z</time>
      </trkpt>
      <trkpt lat="46.57515" lon="6.10058">
        <ele>1130.2</ele>
        <time>2021-08-18T10:53:45Z</time>
      </trkpt>
      <trkpt lat="46.57518" lon="6.10053">
        <ele>1129.9</ele>
        <time>2021-08-18T10:53:47Z</time>
      </trkpt>
      <trkpt lat="46.57518" lon="6.10045">
        <ele>1129.6</ele>
        <time>2021-08-18T10:53:48Z</time>
      </trkpt>
      <trkpt lat="46.57517" lon="6.1004">
        <ele>1129.4</ele>
        <time>2021-08-18T10:53:49Z</time>
      </trkpt>
      <trkpt lat="46.57515" lon="6.10034">
        <ele>1129.1</ele>
        <time>2021-08-18T10:53:50Z</time>
      </trkpt>
      <trkpt lat="46.57514" lon="6.10028">
        <ele>1128.9</ele>
        <time>2021-08-18T10:53:52Z</time>
      </trkpt>
      <trkpt lat="46.57512" lon="6.10023">
        <ele>1128.6</ele>
        <time>2021-08-18T10:53:53Z</time>
      </trkpt>
      <trkpt lat="46.5751" lon="6.10017">
        <ele>1128.3</ele>
        <time>2021-08-18T10:53:54Z</time>
      </trkpt>
      <trkpt lat="46.57508" lon="6.10012">
        <ele>1128.1</ele>
        <time>2021-08-18T10:53:55Z</time>
      </trkpt>
      <trkpt lat="46.57504" lon="6.10005">
        <ele>1127.7</ele>
        <time>2021-08-18T10:53:57Z</time>
      </trkpt>
      <trkpt lat="46.57501" lon="6.10003">
        <ele>1127.5</ele>
        <time>2021-08-18T10:53:58Z</time>
      </trkpt>
      <trkpt lat="46.57498" lon="6.10002">
        <ele>1127.3</ele>
        <time>2021-08-18T10:53:59Z</time>
      </trkpt>
      <trkpt lat="46.57496" lon="6.10002">
        <ele>1127.2</ele>
        <time>2021-08-18T10:54:00Z</time>
      </trkpt>
      <trkpt lat="46.57494" lon="6.10004">
        <ele>1127</ele>
        <time>2021-08-18T10:54:02Z</time>
      </trkpt>
      <trkpt lat="46.57493" lon="6.09997">
        <ele>1126.7</ele>
        <time>2021-08-18T10:54:04Z</time>
      </trkpt>
      <trkpt lat="46.57492" lon="6.09989">
        <ele>1126.4</ele>
        <time>2021-08-18T10:54:05Z</time>
      </trkpt>
      <trkpt lat="46.57491" lon="6.0998">
        <ele>1126.1</ele>
        <time>2021-08-18T10:54:06Z</time>
      </trkpt>
      <trkpt lat="46.5749" lon="6.09972">
        <ele>1125.8</ele>
        <time>2021-08-18T10:54:08Z</time>
      </trkpt>
      <trkpt lat="46.57489" lon="6.09963">
        <ele>1125.6</ele>
        <time>2021-08-18T10:54:10Z</time>
      </trkpt>
      <trkpt lat="46.57488" lon="6.09955">
        <ele>1125.3</ele>
        <time>2021-08-18T10:56:11Z</time>
      </trkpt>
      <trkpt lat="46.57488" lon="6.09946">
        <ele>1125.1</ele>
        <time>2021-08-18T10:56:12Z</time>
      </trkpt>
      <trkpt lat="46.57482" lon="6.09929">
        <ele>1124.7</ele>
        <time>2021-08-18T10:56:14Z</time>
      </trkpt>
      <trkpt lat="46.57478" lon="6.09914">
        <ele>1124.5</ele>
        <time>2021-08-18T10:56:16Z</time>
      </trkpt>
      <trkpt lat="46.57476" lon="6.09906">
        <ele>1124.4</ele>
        <time>2021-08-18T10:56:17Z</time>
      </trkpt>
      <trkpt lat="46.57474" lon="6.09898">
        <ele>1124.3</ele>
        <time>2021-08-18T10:56:18Z</time>
      </trkpt>
      <trkpt lat="46.5747" lon="6.09881">
        <ele>1124.1</ele>
        <time>2021-08-18T10:56:20Z</time>
      </trkpt>
      <trkpt lat="46.57469" lon="6.09865">
        <ele>1123.9</ele>
        <time>2021-08-18T10:56:22Z</time>
      </trkpt>
      <trkpt lat="46.57468" lon="6.09857">
        <ele>1123.8</ele>
        <time>2021-08-18T10:56:23Z</time>
      </trkpt>
      <trkpt lat="46.57468" lon="6.09852">
        <ele>1123.7</ele>
        <time>2021-08-18T10:56:24Z</time>
      </trkpt>
      <trkpt lat="46.57468" lon="6.09839">
        <ele>1123.4</ele>
        <time>2021-08-18T10:56:26Z</time>
      </trkpt>
      <trkpt lat="46.57468" lon="6.09826">
        <ele>1123.1</ele>
        <time>2021-08-18T10:56:28Z</time>
      </trkpt>
      <trkpt lat="46.57468" lon="6.09821">
        <ele>1122.9</ele>
        <time>2021-08-18T10:56:29Z</time>
      </trkpt>
      <trkpt lat="46.57468" lon="6.09818">
        <ele>1122.4</ele>
        <time>2021-08-18T10:56:30Z</time>
      </trkpt>
      <trkpt lat="46.57467" lon="6.09815">
        <ele>1122.3</ele>
        <time>2021-08-18T10:56:31Z</time>
      </trkpt>
      <trkpt lat="46.57466" lon="6.09813">
        <ele>1122.2</ele>
        <time>2021-08-18T10:56:32Z</time>
      </trkpt>
      <trkpt lat="46.57463" lon="6.09808">
        <ele>1122</ele>
        <time>2021-08-18T10:56:34Z</time>
      </trkpt>
      <trkpt lat="46.5746" lon="6.09804">
        <ele>1121.8</ele>
        <time>2021-08-18T10:56:35Z</time>
      </trkpt>
      <trkpt lat="46.57455" lon="6.098">
        <ele>1121.5</ele>
        <time>2021-08-18T10:56:36Z</time>
      </trkpt>
      <trkpt lat="46.57451" lon="6.09798">
        <ele>1121.3</ele>
        <time>2021-08-18T10:56:37Z</time>
      </trkpt>
      <trkpt lat="46.57446" lon="6.09796">
        <ele>1121</ele>
        <time>2021-08-18T10:56:39Z</time>
      </trkpt>
      <trkpt lat="46.57442" lon="6.09794">
        <ele>1120.7</ele>
        <time>2021-08-18T10:56:40Z</time>
      </trkpt>
      <trkpt lat="46.57434" lon="6.0979">
        <ele>1120.4</ele>
        <time>2021-08-18T10:56:42Z</time>
      </trkpt>
      <trkpt lat="46.57425" lon="6.09784">
        <ele>1119.8</ele>
        <time>2021-08-18T10:56:44Z</time>
      </trkpt>
      <trkpt lat="46.57413" lon="6.09777">
        <ele>1119.2</ele>
        <time>2021-08-18T10:56:46Z</time>
      </trkpt>
      <trkpt lat="46.57407" lon="6.09773">
        <ele>1118.9</ele>
        <time>2021-08-18T10:56:47Z</time>
      </trkpt>
      <trkpt lat="46.57401" lon="6.09769">
        <ele>1118.5</ele>
        <time>2021-08-18T10:56:48Z</time>
      </trkpt>
      <trkpt lat="46.57388" lon="6.09763">
        <ele>1117.7</ele>
        <time>2021-08-18T10:56:50Z</time>
      </trkpt>
      <trkpt lat="46.57373" lon="6.09758">
        <ele>1116.9</ele>
        <time>2021-08-18T10:56:52Z</time>
      </trkpt>
      <trkpt lat="46.57365" lon="6.09756">
        <ele>1116.6</ele>
        <time>2021-08-18T10:56:53Z</time>
      </trkpt>
      <trkpt lat="46.57358" lon="6.09753">
        <ele>1116.3</ele>
        <time>2021-08-18T10:56:54Z</time>
      </trkpt>
      <trkpt lat="46.57343" lon="6.09749">
        <ele>1115.7</ele>
        <time>2021-08-18T10:56:56Z</time>
      </trkpt>
      <trkpt lat="46.57336" lon="6.09746">
        <ele>1115.5</ele>
        <time>2021-08-18T10:56:57Z</time>
      </trkpt>
      <trkpt lat="46.57323" lon="6.09743">
        <ele>1115.2</ele>
        <time>2021-08-18T10:56:59Z</time>
      </trkpt>
      <trkpt lat="46.57316" lon="6.09742">
        <ele>1115.2</ele>
        <time>2021-08-18T10:57:00Z</time>
      </trkpt>
      <trkpt lat="46.57305" lon="6.09738">
        <ele>1115.3</ele>
        <time>2021-08-18T10:57:02Z</time>
      </trkpt>
      <trkpt lat="46.57301" lon="6.09735">
        <ele>1115.2</ele>
        <time>2021-08-18T10:57:03Z</time>
      </trkpt>
      <trkpt lat="46.57295" lon="6.09723">
        <ele>1115</ele>
        <time>2021-08-18T10:57:05Z</time>
      </trkpt>
      <trkpt lat="46.57293" lon="6.09714">
        <ele>1114.8</ele>
        <time>2021-08-18T10:57:06Z</time>
      </trkpt>
      <trkpt lat="46.57291" lon="6.09696">
        <ele>1114.4</ele>
        <time>2021-08-18T10:57:08Z</time>
      </trkpt>
      <trkpt lat="46.57287" lon="6.09678">
        <ele>1114.1</ele>
        <time>2021-08-18T10:57:10Z</time>
      </trkpt>
      <trkpt lat="46.57283" lon="6.09669">
        <ele>1114</ele>
        <time>2021-08-18T10:57:11Z</time>
      </trkpt>
      <trkpt lat="46.5728" lon="6.0966">
        <ele>1114</ele>
        <time>2021-08-18T10:57:12Z</time>
      </trkpt>
      <trkpt lat="46.57273" lon="6.09643">
        <ele>1113.8</ele>
        <time>2021-08-18T10:57:14Z</time>
      </trkpt>
      <trkpt lat="46.57267" lon="6.09626">
        <ele>1113.6</ele>
        <time>2021-08-18T10:57:16Z</time>
      </trkpt>
      <trkpt lat="46.57261" lon="6.09611">
        <ele>1113.3</ele>
        <time>2021-08-18T10:57:18Z</time>
      </trkpt>
      <trkpt lat="46.57254" lon="6.09597">
        <ele>1112.8</ele>
        <time>2021-08-18T10:57:20Z</time>
      </trkpt>
      <trkpt lat="46.57247" lon="6.09583">
        <ele>1112.3</ele>
        <time>2021-08-18T10:57:22Z</time>
      </trkpt>
      <trkpt lat="46.57243" lon="6.09575">
        <ele>1112</ele>
        <time>2021-08-18T10:57:23Z</time>
      </trkpt>
      <trkpt lat="46.57239" lon="6.09568">
        <ele>1111.7</ele>
        <time>2021-08-18T10:57:24Z</time>
      </trkpt>
      <trkpt lat="46.5723" lon="6.09552">
        <ele>1111.2</ele>
        <time>2021-08-18T10:57:26Z</time>
      </trkpt>
      <trkpt lat="46.57226" lon="6.09544">
        <ele>1111</ele>
        <time>2021-08-18T10:57:27Z</time>
      </trkpt>
      <trkpt lat="46.57219" lon="6.09529">
        <ele>1110.6</ele>
        <time>2021-08-18T10:57:29Z</time>
      </trkpt>
      <trkpt lat="46.57216" lon="6.09521">
        <ele>1110.5</ele>
        <time>2021-08-18T10:57:30Z</time>
      </trkpt>
      <trkpt lat="46.57213" lon="6.09507">
        <ele>1110</ele>
        <time>2021-08-18T10:57:32Z</time>
      </trkpt>
      <trkpt lat="46.57212" lon="6.09501">
        <ele>1109.8</ele>
        <time>2021-08-18T10:57:33Z</time>
      </trkpt>
      <trkpt lat="46.57211" lon="6.09494">
        <ele>1109.4</ele>
        <time>2021-08-18T10:57:35Z</time>
      </trkpt>
      <trkpt lat="46.5721" lon="6.0949">
        <ele>1109.1</ele>
        <time>2021-08-18T10:57:36Z</time>
      </trkpt>
      <trkpt lat="46.57207" lon="6.09485">
        <ele>1108.7</ele>
        <time>2021-08-18T10:57:38Z</time>
      </trkpt>
      <trkpt lat="46.57204" lon="6.0948">
        <ele>1108.2</ele>
        <time>2021-08-18T10:57:40Z</time>
      </trkpt>
      <trkpt lat="46.57202" lon="6.09477">
        <ele>1107.9</ele>
        <time>2021-08-18T10:57:42Z</time>
      </trkpt>
      <trkpt lat="46.57201" lon="6.09474">
        <ele>1107.6</ele>
        <time>2021-08-18T10:57:43Z</time>
      </trkpt>
      <trkpt lat="46.57199" lon="6.09471">
        <ele>1107.3</ele>
        <time>2021-08-18T10:57:45Z</time>
      </trkpt>
      <trkpt lat="46.57198" lon="6.09468">
        <ele>1106.9</ele>
        <time>2021-08-18T10:57:46Z</time>
      </trkpt>
      <trkpt lat="46.57196" lon="6.09465">
        <ele>1106.6</ele>
        <time>2021-08-18T10:57:47Z</time>
      </trkpt>
      <trkpt lat="46.57194" lon="6.09462">
        <ele>1106.3</ele>
        <time>2021-08-18T10:57:49Z</time>
      </trkpt>
      <trkpt lat="46.57193" lon="6.09459">
        <ele>1105.9</ele>
        <time>2021-08-18T10:57:50Z</time>
      </trkpt>
      <trkpt lat="46.57191" lon="6.09456">
        <ele>1105.6</ele>
        <time>2021-08-18T10:58:32Z</time>
      </trkpt>
      <trkpt lat="46.5719" lon="6.09452">
        <ele>1105.2</ele>
        <time>2021-08-18T10:58:33Z</time>
      </trkpt>
      <trkpt lat="46.57172" lon="6.09432">
        <ele>1102.7</ele>
        <time>2021-08-18T10:58:35Z</time>
      </trkpt>
      <trkpt lat="46.57164" lon="6.09424">
        <ele>1101.9</ele>
        <time>2021-08-18T10:58:36Z</time>
      </trkpt>
      <trkpt lat="46.57157" lon="6.09417">
        <ele>1101.4</ele>
        <time>2021-08-18T10:58:37Z</time>
      </trkpt>
      <trkpt lat="46.57144" lon="6.09402">
        <ele>1100.6</ele>
        <time>2021-08-18T10:58:39Z</time>
      </trkpt>
      <trkpt lat="46.57138" lon="6.09395">
        <ele>1100.3</ele>
        <time>2021-08-18T10:58:40Z</time>
      </trkpt>
      <trkpt lat="46.57133" lon="6.09387">
        <ele>1100</ele>
        <time>2021-08-18T10:58:41Z</time>
      </trkpt>
      <trkpt lat="46.57127" lon="6.0938">
        <ele>1099.7</ele>
        <time>2021-08-18T10:58:42Z</time>
      </trkpt>
      <trkpt lat="46.57122" lon="6.09372">
        <ele>1099.4</ele>
        <time>2021-08-18T10:58:43Z</time>
      </trkpt>
      <trkpt lat="46.57111" lon="6.09356">
        <ele>1098.7</ele>
        <time>2021-08-18T10:58:45Z</time>
      </trkpt>
      <trkpt lat="46.57106" lon="6.09348">
        <ele>1098.5</ele>
        <time>2021-08-18T10:58:46Z</time>
      </trkpt>
      <trkpt lat="46.57101" lon="6.0934">
        <ele>1098.6</ele>
        <time>2021-08-18T10:58:47Z</time>
      </trkpt>
      <trkpt lat="46.57095" lon="6.09332">
        <ele>1098.6</ele>
        <time>2021-08-18T10:58:48Z</time>
      </trkpt>
      <trkpt lat="46.57083" lon="6.09317">
        <ele>1098.1</ele>
        <time>2021-08-18T10:58:50Z</time>
      </trkpt>
      <trkpt lat="46.5707" lon="6.09302">
        <ele>1097.7</ele>
        <time>2021-08-18T10:58:52Z</time>
      </trkpt>
      <trkpt lat="46.57063" lon="6.09295">
        <ele>1097.6</ele>
        <time>2021-08-18T10:58:53Z</time>
      </trkpt>
      <trkpt lat="46.57057" lon="6.09288">
        <ele>1097.5</ele>
        <time>2021-08-18T10:58:54Z</time>
      </trkpt>
      <trkpt lat="46.5705" lon="6.0928">
        <ele>1097.6</ele>
        <time>2021-08-18T10:59:07Z</time>
      </trkpt>
      <trkpt lat="46.57039" lon="6.09267">
        <ele>1097.9</ele>
        <time>2021-08-18T10:59:09Z</time>
      </trkpt>
      <trkpt lat="46.57034" lon="6.0926">
        <ele>1098.1</ele>
        <time>2021-08-18T10:59:10Z</time>
      </trkpt>
      <trkpt lat="46.57029" lon="6.09253">
        <ele>1098.5</ele>
        <time>2021-08-18T10:59:11Z</time>
      </trkpt>
      <trkpt lat="46.57013" lon="6.09241">
        <ele>1099.6</ele>
        <time>2021-08-18T10:59:13Z</time>
      </trkpt>
      <trkpt lat="46.57005" lon="6.09236">
        <ele>1100.3</ele>
        <time>2021-08-18T10:59:14Z</time>
      </trkpt>
      <trkpt lat="46.56991" lon="6.09227">
        <ele>1101.3</ele>
        <time>2021-08-18T10:59:16Z</time>
      </trkpt>
      <trkpt lat="46.56985" lon="6.09224">
        <ele>1101.7</ele>
        <time>2021-08-18T10:59:17Z</time>
      </trkpt>
      <trkpt lat="46.56975" lon="6.09217">
        <ele>1102</ele>
        <time>2021-08-18T10:59:19Z</time>
      </trkpt>
      <trkpt lat="46.56967" lon="6.09209">
        <ele>1102</ele>
        <time>2021-08-18T10:59:21Z</time>
      </trkpt>
      <trkpt lat="46.56962" lon="6.09203">
        <ele>1101.9</ele>
        <time>2021-08-18T10:59:23Z</time>
      </trkpt>
      <trkpt lat="46.56959" lon="6.09201">
        <ele>1101.8</ele>
        <time>2021-08-18T10:59:24Z</time>
      </trkpt>
      <trkpt lat="46.56955" lon="6.09198">
        <ele>1101.7</ele>
        <time>2021-08-18T10:59:26Z</time>
      </trkpt>
      <trkpt lat="46.56949" lon="6.09195">
        <ele>1101.6</ele>
        <time>2021-08-18T10:59:28Z</time>
      </trkpt>
      <trkpt lat="46.56944" lon="6.09193">
        <ele>1101.5</ele>
        <time>2021-08-18T10:59:29Z</time>
      </trkpt>
      <trkpt lat="46.56943" lon="6.09194">
        <ele>1101.5</ele>
        <time>2021-08-18T10:59:30Z</time>
      </trkpt>
      <trkpt lat="46.56941" lon="6.09193">
        <ele>1101.5</ele>
        <time>2021-08-18T10:59:31Z</time>
      </trkpt>
      <trkpt lat="46.56938" lon="6.09191">
        <ele>1101.5</ele>
        <time>2021-08-18T10:59:32Z</time>
      </trkpt>
      <trkpt lat="46.56935" lon="6.0919">
        <ele>1101.4</ele>
        <time>2021-08-18T10:59:33Z</time>
      </trkpt>
      <trkpt lat="46.56932" lon="6.09189">
        <ele>1101.4</ele>
        <time>2021-08-18T10:59:35Z</time>
      </trkpt>
      <trkpt lat="46.56927" lon="6.09187">
        <ele>1101.4</ele>
        <time>2021-08-18T10:59:36Z</time>
      </trkpt>
      <trkpt lat="46.56922" lon="6.09185">
        <ele>1101.4</ele>
        <time>2021-08-18T10:59:37Z</time>
      </trkpt>
      <trkpt lat="46.56916" lon="6.09183">
        <ele>1101.4</ele>
        <time>2021-08-18T10:59:39Z</time>
      </trkpt>
      <trkpt lat="46.56913" lon="6.09182">
        <ele>1101.5</ele>
        <time>2021-08-18T10:59:40Z</time>
      </trkpt>
      <trkpt lat="46.56907" lon="6.09181">
        <ele>1101.5</ele>
        <time>2021-08-18T10:59:41Z</time>
      </trkpt>
      <trkpt lat="46.56901" lon="6.09179">
        <ele>1101.6</ele>
        <time>2021-08-18T10:59:42Z</time>
      </trkpt>
      <trkpt lat="46.56897" lon="6.09177">
        <ele>1101.6</ele>
        <time>2021-08-18T10:59:44Z</time>
      </trkpt>
      <trkpt lat="46.56891" lon="6.09176">
        <ele>1101.7</ele>
        <time>2021-08-18T10:59:45Z</time>
      </trkpt>
      <trkpt lat="46.56886" lon="6.09174">
        <ele>1101.8</ele>
        <time>2021-08-18T10:59:47Z</time>
      </trkpt>
      <trkpt lat="46.56882" lon="6.09172">
        <ele>1101.8</ele>
        <time>2021-08-18T10:59:48Z</time>
      </trkpt>
      <trkpt lat="46.56877" lon="6.09166">
        <ele>1101.9</ele>
        <time>2021-08-18T10:59:50Z</time>
      </trkpt>
      <trkpt lat="46.56871" lon="6.09159">
        <ele>1102.1</ele>
        <time>2021-08-18T10:59:52Z</time>
      </trkpt>
      <trkpt lat="46.56868" lon="6.09154">
        <ele>1102.4</ele>
        <time>2021-08-18T10:59:53Z</time>
      </trkpt>
      <trkpt lat="46.56864" lon="6.0915">
        <ele>1102.7</ele>
        <time>2021-08-18T10:59:54Z</time>
      </trkpt>
      <trkpt lat="46.56861" lon="6.09145">
        <ele>1103</ele>
        <time>2021-08-18T10:59:55Z</time>
      </trkpt>
      <trkpt lat="46.56856" lon="6.09139">
        <ele>1103.3</ele>
        <time>2021-08-18T10:59:57Z</time>
      </trkpt>
      <trkpt lat="46.56853" lon="6.09133">
        <ele>1103.6</ele>
        <time>2021-08-18T10:59:59Z</time>
      </trkpt>
      <trkpt lat="46.56852" lon="6.09129">
        <ele>1103.7</ele>
        <time>2021-08-18T11:00:00Z</time>
      </trkpt>
      <trkpt lat="46.56852" lon="6.09127">
        <ele>1103.7</ele>
        <time>2021-08-18T11:00:01Z</time>
      </trkpt>
      <trkpt lat="46.56852" lon="6.09125">
        <ele>1103.8</ele>
        <time>2021-08-18T11:00:03Z</time>
      </trkpt>
      <trkpt lat="46.56852" lon="6.09124">
        <ele>1103.8</ele>
        <time>2021-08-18T11:00:04Z</time>
      </trkpt>
      <trkpt lat="46.56852" lon="6.09124">
        <ele>1103.8</ele>
        <time>2021-08-18T11:00:05Z</time>
      </trkpt>
      <trkpt lat="46.56851" lon="6.09121">
        <ele>1103.9</ele>
        <time>2021-08-18T11:00:06Z</time>
      </trkpt>
      <trkpt lat="46.56848" lon="6.09118">
        <ele>1103.9</ele>
        <time>2021-08-18T11:00:08Z</time>
      </trkpt>
      <trkpt lat="46.56845" lon="6.09116">
        <ele>1103.9</ele>
        <time>2021-08-18T11:00:09Z</time>
      </trkpt>
      <trkpt lat="46.56842" lon="6.09113">
        <ele>1103.9</ele>
        <time>2021-08-18T11:00:11Z</time>
      </trkpt>
      <trkpt lat="46.56839" lon="6.09111">
        <ele>1103.9</ele>
        <time>2021-08-18T11:00:12Z</time>
      </trkpt>
      <trkpt lat="46.56836" lon="6.09108">
        <ele>1103.8</ele>
        <time>2021-08-18T11:00:14Z</time>
      </trkpt>
      <trkpt lat="46.56836" lon="6.09107">
        <ele>1103.8</ele>
        <time>2021-08-18T11:00:15Z</time>
      </trkpt>
      <trkpt lat="46.56833" lon="6.09102">
        <ele>1103.8</ele>
        <time>2021-08-18T11:00:17Z</time>
      </trkpt>
      <trkpt lat="46.56833" lon="6.09099">
        <ele>1103.7</ele>
        <time>2021-08-18T11:00:18Z</time>
      </trkpt>
      <trkpt lat="46.56834" lon="6.09097">
        <ele>1103.7</ele>
        <time>2021-08-18T11:00:19Z</time>
      </trkpt>
      <trkpt lat="46.56834" lon="6.09096">
        <ele>1103.7</ele>
        <time>2021-08-18T11:00:20Z</time>
      </trkpt>
      <trkpt lat="46.56835" lon="6.09093">
        <ele>1103.7</ele>
        <time>2021-08-18T11:00:21Z</time>
      </trkpt>
      <trkpt lat="46.56836" lon="6.0909">
        <ele>1103.7</ele>
        <time>2021-08-18T11:00:23Z</time>
      </trkpt>
      <trkpt lat="46.56836" lon="6.09084">
        <ele>1103.6</ele>
        <time>2021-08-18T11:00:24Z</time>
      </trkpt>
      <trkpt lat="46.56836" lon="6.09082">
        <ele>1103.6</ele>
        <time>2021-08-18T11:00:25Z</time>
      </trkpt>
      <trkpt lat="46.56836" lon="6.09076">
        <ele>1103.6</ele>
        <time>2021-08-18T11:00:26Z</time>
      </trkpt>
      <trkpt lat="46.56835" lon="6.09069">
        <ele>1103.5</ele>
        <time>2021-08-18T11:00:28Z</time>
      </trkpt>
      <trkpt lat="46.56833" lon="6.09063">
        <ele>1103.5</ele>
        <time>2021-08-18T11:00:29Z</time>
      </trkpt>
      <trkpt lat="46.5683" lon="6.09052">
        <ele>1103.4</ele>
        <time>2021-08-18T11:00:31Z</time>
      </trkpt>
      <trkpt lat="46.56827" lon="6.09042">
        <ele>1103.4</ele>
        <time>2021-08-18T11:00:33Z</time>
      </trkpt>
      <trkpt lat="46.56823" lon="6.09031">
        <ele>1103.3</ele>
        <time>2021-08-18T11:00:35Z</time>
      </trkpt>
      <trkpt lat="46.56817" lon="6.0902">
        <ele>1103.3</ele>
        <time>2021-08-18T11:00:36Z</time>
      </trkpt>
      <trkpt lat="46.56813" lon="6.09013">
        <ele>1103.2</ele>
        <time>2021-08-18T11:00:38Z</time>
      </trkpt>
      <trkpt lat="46.5681" lon="6.09005">
        <ele>1103.2</ele>
        <time>2021-08-18T11:00:39Z</time>
      </trkpt>
      <trkpt lat="46.56806" lon="6.08996">
        <ele>1103.1</ele>
        <time>2021-08-18T11:00:41Z</time>
      </trkpt>
      <trkpt lat="46.56802" lon="6.0899">
        <ele>1103.1</ele>
        <time>2021-08-18T11:00:42Z</time>
      </trkpt>
      <trkpt lat="46.56796" lon="6.08979">
        <ele>1103</ele>
        <time>2021-08-18T11:00:44Z</time>
      </trkpt>
      <trkpt lat="46.56795" lon="6.08975">
        <ele>1102.9</ele>
        <time>2021-08-18T11:00:45Z</time>
      </trkpt>
      <trkpt lat="46.56793" lon="6.08968">
        <ele>1102.9</ele>
        <time>2021-08-18T11:00:47Z</time>
      </trkpt>
      <trkpt lat="46.56791" lon="6.08962">
        <ele>1102.8</ele>
        <time>2021-08-18T11:00:48Z</time>
      </trkpt>
      <trkpt lat="46.56789" lon="6.08954">
        <ele>1102.7</ele>
        <time>2021-08-18T11:00:50Z</time>
      </trkpt>
      <trkpt lat="46.56787" lon="6.08948">
        <ele>1102.7</ele>
        <time>2021-08-18T11:00:51Z</time>
      </trkpt>
      <trkpt lat="46.56783" lon="6.0894">
        <ele>1102.5</ele>
        <time>2021-08-18T11:00:52Z</time>
      </trkpt>
      <trkpt lat="46.56779" lon="6.08933">
        <ele>1102.5</ele>
        <time>2021-08-18T11:00:54Z</time>
      </trkpt>
      <trkpt lat="46.56775" lon="6.08926">
        <ele>1102.3</ele>
        <time>2021-08-18T11:00:55Z</time>
      </trkpt>
      <trkpt lat="46.56772" lon="6.0892">
        <ele>1102.2</ele>
        <time>2021-08-18T11:00:57Z</time>
      </trkpt>
      <trkpt lat="46.5677" lon="6.08915">
        <ele>1102.1</ele>
        <time>2021-08-18T11:00:58Z</time>
      </trkpt>
      <trkpt lat="46.56767" lon="6.08911">
        <ele>1102</ele>
        <time>2021-08-18T11:00:59Z</time>
      </trkpt>
      <trkpt lat="46.56764" lon="6.08907">
        <ele>1101.9</ele>
        <time>2021-08-18T11:01:00Z</time>
      </trkpt>
      <trkpt lat="46.56763" lon="6.08905">
        <ele>1101.8</ele>
        <time>2021-08-18T11:01:01Z</time>
      </trkpt>
      <trkpt lat="46.5676" lon="6.08899">
        <ele>1101.6</ele>
        <time>2021-08-18T11:01:03Z</time>
      </trkpt>
      <trkpt lat="46.56759" lon="6.08896">
        <ele>1101.6</ele>
        <time>2021-08-18T11:01:04Z</time>
      </trkpt>
      <trkpt lat="46.56758" lon="6.08894">
        <ele>1101.5</ele>
        <time>2021-08-18T11:01:05Z</time>
      </trkpt>
      <trkpt lat="46.56755" lon="6.08888">
        <ele>1101.3</ele>
        <time>2021-08-18T11:01:06Z</time>
      </trkpt>
      <trkpt lat="46.56752" lon="6.0888">
        <ele>1101</ele>
        <time>2021-08-18T11:01:08Z</time>
      </trkpt>
      <trkpt lat="46.56751" lon="6.08874">
        <ele>1100.8</ele>
        <time>2021-08-18T11:01:09Z</time>
      </trkpt>
      <trkpt lat="46.56751" lon="6.08865">
        <ele>1100.6</ele>
        <time>2021-08-18T11:01:10Z</time>
      </trkpt>
      <trkpt lat="46.56751" lon="6.08856">
        <ele>1100.3</ele>
        <time>2021-08-18T11:01:11Z</time>
      </trkpt>
      <trkpt lat="46.56751" lon="6.08848">
        <ele>1100.1</ele>
        <time>2021-08-18T11:01:12Z</time>
      </trkpt>
      <trkpt lat="46.56748" lon="6.08831">
        <ele>1099.7</ele>
        <time>2021-08-18T11:01:14Z</time>
      </trkpt>
      <trkpt lat="46.56741" lon="6.08814">
        <ele>1099.2</ele>
        <time>2021-08-18T11:01:16Z</time>
      </trkpt>
      <trkpt lat="46.56737" lon="6.08805">
        <ele>1098.9</ele>
        <time>2021-08-18T11:01:17Z</time>
      </trkpt>
      <trkpt lat="46.56732" lon="6.08794">
        <ele>1098.6</ele>
        <time>2021-08-18T11:01:18Z</time>
      </trkpt>
      <trkpt lat="46.56723" lon="6.08774">
        <ele>1098.1</ele>
        <time>2021-08-18T11:01:20Z</time>
      </trkpt>
      <trkpt lat="46.56714" lon="6.08756">
        <ele>1097.5</ele>
        <time>2021-08-18T11:01:22Z</time>
      </trkpt>
      <trkpt lat="46.56704" lon="6.08737">
        <ele>1096.9</ele>
        <time>2021-08-18T11:01:24Z</time>
      </trkpt>
      <trkpt lat="46.56695" lon="6.08717">
        <ele>1096.5</ele>
        <time>2021-08-18T11:01:26Z</time>
      </trkpt>
      <trkpt lat="46.56685" lon="6.08697">
        <ele>1096.1</ele>
        <time>2021-08-18T11:01:28Z</time>
      </trkpt>
      <trkpt lat="46.56681" lon="6.08687">
        <ele>1096</ele>
        <time>2021-08-18T11:01:29Z</time>
      </trkpt>
      <trkpt lat="46.56677" lon="6.08678">
        <ele>1095.8</ele>
        <time>2021-08-18T11:01:30Z</time>
      </trkpt>
      <trkpt lat="46.56672" lon="6.08661">
        <ele>1095.7</ele>
        <time>2021-08-18T11:01:32Z</time>
      </trkpt>
      <trkpt lat="46.56669" lon="6.08651">
        <ele>1095.6</ele>
        <time>2021-08-18T11:01:33Z</time>
      </trkpt>
      <trkpt lat="46.56662" lon="6.08633">
        <ele>1095.6</ele>
        <time>2021-08-18T11:01:35Z</time>
      </trkpt>
      <trkpt lat="46.56659" lon="6.08625">
        <ele>1095.6</ele>
        <time>2021-08-18T11:01:36Z</time>
      </trkpt>
      <trkpt lat="46.56654" lon="6.0861">
        <ele>1095.7</ele>
        <time>2021-08-18T11:01:38Z</time>
      </trkpt>
      <trkpt lat="46.56646" lon="6.08595">
        <ele>1095.8</ele>
        <time>2021-08-18T11:01:40Z</time>
      </trkpt>
      <trkpt lat="46.56637" lon="6.0858">
        <ele>1096.1</ele>
        <time>2021-08-18T11:01:42Z</time>
      </trkpt>
      <trkpt lat="46.56634" lon="6.08574">
        <ele>1096.2</ele>
        <time>2021-08-18T11:01:43Z</time>
      </trkpt>
      <trkpt lat="46.56632" lon="6.08569">
        <ele>1096.3</ele>
        <time>2021-08-18T11:01:44Z</time>
      </trkpt>
      <trkpt lat="46.56629" lon="6.08561">
        <ele>1096.4</ele>
        <time>2021-08-18T11:01:46Z</time>
      </trkpt>
      <trkpt lat="46.56627" lon="6.08555">
        <ele>1096.5</ele>
        <time>2021-08-18T11:01:47Z</time>
      </trkpt>
      <trkpt lat="46.56626" lon="6.08553">
        <ele>1096.5</ele>
        <time>2021-08-18T11:01:48Z</time>
      </trkpt>
      <trkpt lat="46.56624" lon="6.08546">
        <ele>1096.6</ele>
        <time>2021-08-18T11:01:50Z</time>
      </trkpt>
      <trkpt lat="46.56622" lon="6.0854">
        <ele>1096.7</ele>
        <time>2021-08-18T11:01:51Z</time>
      </trkpt>
      <trkpt lat="46.5662" lon="6.08536">
        <ele>1096.8</ele>
        <time>2021-08-18T11:01:52Z</time>
      </trkpt>
      <trkpt lat="46.56617" lon="6.0853">
        <ele>1096.9</ele>
        <time>2021-08-18T11:01:54Z</time>
      </trkpt>
      <trkpt lat="46.56614" lon="6.08525">
        <ele>1097</ele>
        <time>2021-08-18T11:01:55Z</time>
      </trkpt>
      <trkpt lat="46.5661" lon="6.08517">
        <ele>1097.2</ele>
        <time>2021-08-18T11:01:57Z</time>
      </trkpt>
      <trkpt lat="46.56606" lon="6.08512">
        <ele>1097.4</ele>
        <time>2021-08-18T11:01:58Z</time>
      </trkpt>
      <trkpt lat="46.56604" lon="6.08507">
        <ele>1097.5</ele>
        <time>2021-08-18T11:01:59Z</time>
      </trkpt>
      <trkpt lat="46.56603" lon="6.08503">
        <ele>1097.6</ele>
        <time>2021-08-18T11:02:00Z</time>
      </trkpt>
      <trkpt lat="46.566" lon="6.08494">
        <ele>1097.9</ele>
        <time>2021-08-18T11:02:02Z</time>
      </trkpt>
      <trkpt lat="46.56599" lon="6.08487">
        <ele>1098.1</ele>
        <time>2021-08-18T11:02:03Z</time>
      </trkpt>
      <trkpt lat="46.56598" lon="6.08482">
        <ele>1098.3</ele>
        <time>2021-08-18T11:02:05Z</time>
      </trkpt>
      <trkpt lat="46.56596" lon="6.08477">
        <ele>1098.5</ele>
        <time>2021-08-18T11:02:06Z</time>
      </trkpt>
      <trkpt lat="46.56595" lon="6.08469">
        <ele>1098.7</ele>
        <time>2021-08-18T11:02:07Z</time>
      </trkpt>
      <trkpt lat="46.56594" lon="6.08463">
        <ele>1098.9</ele>
        <time>2021-08-18T11:02:09Z</time>
      </trkpt>
      <trkpt lat="46.56594" lon="6.08458">
        <ele>1099.1</ele>
        <time>2021-08-18T11:02:10Z</time>
      </trkpt>
      <trkpt lat="46.56594" lon="6.08456">
        <ele>1099.1</ele>
        <time>2021-08-18T11:02:11Z</time>
      </trkpt>
      <trkpt lat="46.56594" lon="6.08451">
        <ele>1099.3</ele>
        <time>2021-08-18T11:02:12Z</time>
      </trkpt>
      <trkpt lat="46.56594" lon="6.08448">
        <ele>1099.4</ele>
        <time>2021-08-18T11:02:13Z</time>
      </trkpt>
      <trkpt lat="46.56594" lon="6.08444">
        <ele>1099.5</ele>
        <time>2021-08-18T11:02:15Z</time>
      </trkpt>
      <trkpt lat="46.56594" lon="6.0844">
        <ele>1099.6</ele>
        <time>2021-08-18T11:02:16Z</time>
      </trkpt>
      <trkpt lat="46.56594" lon="6.08435">
        <ele>1099.7</ele>
        <time>2021-08-18T11:02:17Z</time>
      </trkpt>
      <trkpt lat="46.56594" lon="6.08433">
        <ele>1099.7</ele>
        <time>2021-08-18T11:02:18Z</time>
      </trkpt>
      <trkpt lat="46.56596" lon="6.08426">
        <ele>1099.8</ele>
        <time>2021-08-18T11:02:19Z</time>
      </trkpt>
      <trkpt lat="46.56598" lon="6.0842">
        <ele>1099.7</ele>
        <time>2021-08-18T11:02:21Z</time>
      </trkpt>
      <trkpt lat="46.566" lon="6.08412">
        <ele>1099.6</ele>
        <time>2021-08-18T11:02:22Z</time>
      </trkpt>
      <trkpt lat="46.56602" lon="6.08405">
        <ele>1099.5</ele>
        <time>2021-08-18T11:02:24Z</time>
      </trkpt>
      <trkpt lat="46.56607" lon="6.08395">
        <ele>1099.3</ele>
        <time>2021-08-18T11:02:26Z</time>
      </trkpt>
      <trkpt lat="46.56614" lon="6.08383">
        <ele>1099</ele>
        <time>2021-08-18T11:02:28Z</time>
      </trkpt>
      <trkpt lat="46.56619" lon="6.08374">
        <ele>1098.8</ele>
        <time>2021-08-18T11:02:30Z</time>
      </trkpt>
      <trkpt lat="46.56621" lon="6.08362">
        <ele>1098.5</ele>
        <time>2021-08-18T11:02:32Z</time>
      </trkpt>
      <trkpt lat="46.56624" lon="6.0835">
        <ele>1098.2</ele>
        <time>2021-08-18T11:02:34Z</time>
      </trkpt>
      <trkpt lat="46.56627" lon="6.08343">
        <ele>1097.9</ele>
        <time>2021-08-18T11:02:35Z</time>
      </trkpt>
      <trkpt lat="46.56631" lon="6.08334">
        <ele>1097.5</ele>
        <time>2021-08-18T11:02:37Z</time>
      </trkpt>
      <trkpt lat="46.56634" lon="6.08328">
        <ele>1097.2</ele>
        <time>2021-08-18T11:02:38Z</time>
      </trkpt>
      <trkpt lat="46.56639" lon="6.08317">
        <ele>1096.7</ele>
        <time>2021-08-18T11:02:40Z</time>
      </trkpt>
      <trkpt lat="46.56636" lon="6.08313">
        <ele>1096.5</ele>
        <time>2021-08-18T11:02:42Z</time>
      </trkpt>
      <trkpt lat="46.56641" lon="6.08308">
        <ele>1096.2</ele>
        <time>2021-08-18T11:02:43Z</time>
      </trkpt>
      <trkpt lat="46.56644" lon="6.08302">
        <ele>1096</ele>
        <time>2021-08-18T11:02:44Z</time>
      </trkpt>
      <trkpt lat="46.56648" lon="6.08292">
        <ele>1095.6</ele>
        <time>2021-08-18T11:02:45Z</time>
      </trkpt>
      <trkpt lat="46.56653" lon="6.08282">
        <ele>1095.3</ele>
        <time>2021-08-18T11:02:47Z</time>
      </trkpt>
      <trkpt lat="46.56658" lon="6.08269">
        <ele>1095</ele>
        <time>2021-08-18T11:02:49Z</time>
      </trkpt>
      <trkpt lat="46.5666" lon="6.08263">
        <ele>1094.8</ele>
        <time>2021-08-18T11:02:50Z</time>
      </trkpt>
      <trkpt lat="46.56663" lon="6.08257">
        <ele>1094.6</ele>
        <time>2021-08-18T11:02:51Z</time>
      </trkpt>
      <trkpt lat="46.56668" lon="6.08246">
        <ele>1094.3</ele>
        <time>2021-08-18T11:02:53Z</time>
      </trkpt>
      <trkpt lat="46.5667" lon="6.0824">
        <ele>1094.2</ele>
        <time>2021-08-18T11:02:54Z</time>
      </trkpt>
      <trkpt lat="46.56675" lon="6.08228">
        <ele>1093.8</ele>
        <time>2021-08-18T11:02:56Z</time>
      </trkpt>
      <trkpt lat="46.56677" lon="6.08222">
        <ele>1093.7</ele>
        <time>2021-08-18T11:02:57Z</time>
      </trkpt>
      <trkpt lat="46.56682" lon="6.08209">
        <ele>1093.3</ele>
        <time>2021-08-18T11:02:59Z</time>
      </trkpt>
      <trkpt lat="46.56685" lon="6.08202">
        <ele>1093.1</ele>
        <time>2021-08-18T11:03:00Z</time>
      </trkpt>
      <trkpt lat="46.5669" lon="6.08188">
        <ele>1092.6</ele>
        <time>2021-08-18T11:03:02Z</time>
      </trkpt>
      <trkpt lat="46.56695" lon="6.08175">
        <ele>1092.2</ele>
        <time>2021-08-18T11:03:04Z</time>
      </trkpt>
      <trkpt lat="46.56698" lon="6.08167">
        <ele>1092</ele>
        <time>2021-08-18T11:03:05Z</time>
      </trkpt>
      <trkpt lat="46.56701" lon="6.0816">
        <ele>1091.8</ele>
        <time>2021-08-18T11:03:06Z</time>
      </trkpt>
      <trkpt lat="46.56709" lon="6.08145">
        <ele>1091.3</ele>
        <time>2021-08-18T11:03:08Z</time>
      </trkpt>
      <trkpt lat="46.56717" lon="6.0813">
        <ele>1090.9</ele>
        <time>2021-08-18T11:03:10Z</time>
      </trkpt>
      <trkpt lat="46.5672" lon="6.08122">
        <ele>1090.8</ele>
        <time>2021-08-18T11:03:11Z</time>
      </trkpt>
      <trkpt lat="46.56726" lon="6.08106">
        <ele>1091</ele>
        <time>2021-08-18T11:03:13Z</time>
      </trkpt>
      <trkpt lat="46.56729" lon="6.08099">
        <ele>1091.1</ele>
        <time>2021-08-18T11:03:14Z</time>
      </trkpt>
      <trkpt lat="46.56731" lon="6.08092">
        <ele>1091.2</ele>
        <time>2021-08-18T11:03:15Z</time>
      </trkpt>
      <trkpt lat="46.56735" lon="6.0808">
        <ele>1091.5</ele>
        <time>2021-08-18T11:03:17Z</time>
      </trkpt>
      <trkpt lat="46.56736" lon="6.08074">
        <ele>1091.6</ele>
        <time>2021-08-18T11:03:18Z</time>
      </trkpt>
      <trkpt lat="46.56739" lon="6.08061">
        <ele>1091.9</ele>
        <time>2021-08-18T11:03:20Z</time>
      </trkpt>
      <trkpt lat="46.5674" lon="6.08052">
        <ele>1092.1</ele>
        <time>2021-08-18T11:03:22Z</time>
      </trkpt>
      <trkpt lat="46.56737" lon="6.08042">
        <ele>1092.4</ele>
        <time>2021-08-18T11:03:24Z</time>
      </trkpt>
      <trkpt lat="46.56734" lon="6.08033">
        <ele>1092.6</ele>
        <time>2021-08-18T11:03:26Z</time>
      </trkpt>
      <trkpt lat="46.56731" lon="6.08028">
        <ele>1092.8</ele>
        <time>2021-08-18T11:03:27Z</time>
      </trkpt>
      <trkpt lat="46.56727" lon="6.08021">
        <ele>1093.1</ele>
        <time>2021-08-18T11:03:29Z</time>
      </trkpt>
      <trkpt lat="46.56725" lon="6.08017">
        <ele>1093.2</ele>
        <time>2021-08-18T11:03:30Z</time>
      </trkpt>
      <trkpt lat="46.56721" lon="6.0801">
        <ele>1093.5</ele>
        <time>2021-08-18T11:03:32Z</time>
      </trkpt>
      <trkpt lat="46.56719" lon="6.08006">
        <ele>1093.6</ele>
        <time>2021-08-18T11:03:33Z</time>
      </trkpt>
      <trkpt lat="46.56717" lon="6.08002">
        <ele>1093.8</ele>
        <time>2021-08-18T11:03:34Z</time>
      </trkpt>
      <trkpt lat="46.56715" lon="6.07999">
        <ele>1093.9</ele>
        <time>2021-08-18T11:03:35Z</time>
      </trkpt>
      <trkpt lat="46.56712" lon="6.07995">
        <ele>1094</ele>
        <time>2021-08-18T11:03:36Z</time>
      </trkpt>
      <trkpt lat="46.56711" lon="6.07994">
        <ele>1094</ele>
        <time>2021-08-18T11:03:37Z</time>
      </trkpt>
      <trkpt lat="46.56707" lon="6.07989">
        <ele>1094.2</ele>
        <time>2021-08-18T11:03:39Z</time>
      </trkpt>
      <trkpt lat="46.56704" lon="6.07984">
        <ele>1094.3</ele>
        <time>2021-08-18T11:03:40Z</time>
      </trkpt>
      <trkpt lat="46.56702" lon="6.07979">
        <ele>1094.4</ele>
        <time>2021-08-18T11:03:42Z</time>
      </trkpt>
      <trkpt lat="46.56699" lon="6.07975">
        <ele>1094.5</ele>
        <time>2021-08-18T11:03:43Z</time>
      </trkpt>
      <trkpt lat="46.56697" lon="6.07973">
        <ele>1094.6</ele>
        <time>2021-08-18T11:03:44Z</time>
      </trkpt>
      <trkpt lat="46.56695" lon="6.07972">
        <ele>1094.6</ele>
        <time>2021-08-18T11:03:46Z</time>
      </trkpt>
      <trkpt lat="46.56692" lon="6.07967">
        <ele>1094.8</ele>
        <time>2021-08-18T11:03:47Z</time>
      </trkpt>
      <trkpt lat="46.56691" lon="6.07965">
        <ele>1094.8</ele>
        <time>2021-08-18T11:03:48Z</time>
      </trkpt>
      <trkpt lat="46.56688" lon="6.07962">
        <ele>1094.9</ele>
        <time>2021-08-18T11:03:50Z</time>
      </trkpt>
      <trkpt lat="46.56686" lon="6.07962">
        <ele>1094.9</ele>
        <time>2021-08-18T11:03:51Z</time>
      </trkpt>
      <trkpt lat="46.56684" lon="6.07961">
        <ele>1094.9</ele>
        <time>2021-08-18T11:03:53Z</time>
      </trkpt>
      <trkpt lat="46.56683" lon="6.0796">
        <ele>1094.9</ele>
        <time>2021-08-18T11:03:54Z</time>
      </trkpt>
      <trkpt lat="46.56679" lon="6.07963">
        <ele>1094.8</ele>
        <time>2021-08-18T11:03:55Z</time>
      </trkpt>
      <trkpt lat="46.56676" lon="6.07965">
        <ele>1094.7</ele>
        <time>2021-08-18T11:03:56Z</time>
      </trkpt>
      <trkpt lat="46.56674" lon="6.07968">
        <ele>1094.7</ele>
        <time>2021-08-18T11:03:58Z</time>
      </trkpt>
      <trkpt lat="46.56671" lon="6.07971">
        <ele>1094.6</ele>
        <time>2021-08-18T11:04:00Z</time>
      </trkpt>
      <trkpt lat="46.56669" lon="6.07973">
        <ele>1094.5</ele>
        <time>2021-08-18T11:04:01Z</time>
      </trkpt>
      <trkpt lat="46.56666" lon="6.07976">
        <ele>1094.4</ele>
        <time>2021-08-18T11:04:03Z</time>
      </trkpt>
      <trkpt lat="46.56664" lon="6.07979">
        <ele>1094.3</ele>
        <time>2021-08-18T11:04:05Z</time>
      </trkpt>
      <trkpt lat="46.56661" lon="6.07981">
        <ele>1094.2</ele>
        <time>2021-08-18T11:04:18Z</time>
      </trkpt>
      <trkpt lat="46.56659" lon="6.07984">
        <ele>1094.1</ele>
        <time>2021-08-18T11:04:20Z</time>
      </trkpt>
      <trkpt lat="46.56647" lon="6.07992">
        <ele>1093.5</ele>
        <time>2021-08-18T11:04:22Z</time>
      </trkpt>
      <trkpt lat="46.56641" lon="6.07994">
        <ele>1093.2</ele>
        <time>2021-08-18T11:04:23Z</time>
      </trkpt>
      <trkpt lat="46.56636" lon="6.07994">
        <ele>1092.9</ele>
        <time>2021-08-18T11:04:24Z</time>
      </trkpt>
      <trkpt lat="46.56625" lon="6.07991">
        <ele>1092.2</ele>
        <time>2021-08-18T11:04:26Z</time>
      </trkpt>
      <trkpt lat="46.5662" lon="6.07986">
        <ele>1091.7</ele>
        <time>2021-08-18T11:04:27Z</time>
      </trkpt>
      <trkpt lat="46.56608" lon="6.07974">
        <ele>1090.5</ele>
        <time>2021-08-18T11:04:29Z</time>
      </trkpt>
      <trkpt lat="46.56599" lon="6.07957">
        <ele>1089.1</ele>
        <time>2021-08-18T11:04:31Z</time>
      </trkpt>
      <trkpt lat="46.56591" lon="6.07935">
        <ele>1087.5</ele>
        <time>2021-08-18T11:04:33Z</time>
      </trkpt>
      <trkpt lat="46.56585" lon="6.07923">
        <ele>1086.6</ele>
        <time>2021-08-18T11:04:34Z</time>
      </trkpt>
      <trkpt lat="46.56572" lon="6.07899">
        <ele>1084.7</ele>
        <time>2021-08-18T11:04:36Z</time>
      </trkpt>
      <trkpt lat="46.5656" lon="6.07875">
        <ele>1082.9</ele>
        <time>2021-08-18T11:04:38Z</time>
      </trkpt>
      <trkpt lat="46.56546" lon="6.07853">
        <ele>1081.1</ele>
        <time>2021-08-18T11:04:40Z</time>
      </trkpt>
      <trkpt lat="46.56537" lon="6.07842">
        <ele>1080.2</ele>
        <time>2021-08-18T11:04:41Z</time>
      </trkpt>
      <trkpt lat="46.56529" lon="6.07834">
        <ele>1079.4</ele>
        <time>2021-08-18T11:04:42Z</time>
      </trkpt>
      <trkpt lat="46.56509" lon="6.07822">
        <ele>1077.9</ele>
        <time>2021-08-18T11:04:44Z</time>
      </trkpt>
      <trkpt lat="46.56487" lon="6.07818">
        <ele>1076.4</ele>
        <time>2021-08-18T11:04:46Z</time>
      </trkpt>
      <trkpt lat="46.56464" lon="6.07821">
        <ele>1075.2</ele>
        <time>2021-08-18T11:04:48Z</time>
      </trkpt>
      <trkpt lat="46.56443" lon="6.07825">
        <ele>1074.7</ele>
        <time>2021-08-18T11:04:50Z</time>
      </trkpt>
      <trkpt lat="46.56424" lon="6.07829">
        <ele>1074.7</ele>
        <time>2021-08-18T11:04:52Z</time>
      </trkpt>
      <trkpt lat="46.56415" lon="6.07831">
        <ele>1074.8</ele>
        <time>2021-08-18T11:04:53Z</time>
      </trkpt>
      <trkpt lat="46.56406" lon="6.0783">
        <ele>1075</ele>
        <time>2021-08-18T11:04:54Z</time>
      </trkpt>
      <trkpt lat="46.56388" lon="6.07826">
        <ele>1075.8</ele>
        <time>2021-08-18T11:04:56Z</time>
      </trkpt>
      <trkpt lat="46.56372" lon="6.07821">
        <ele>1076.6</ele>
        <time>2021-08-18T11:04:58Z</time>
      </trkpt>
      <trkpt lat="46.56363" lon="6.07818">
        <ele>1077.1</ele>
        <time>2021-08-18T11:04:59Z</time>
      </trkpt>
      <trkpt lat="46.56355" lon="6.07815">
        <ele>1077.6</ele>
        <time>2021-08-18T11:05:00Z</time>
      </trkpt>
      <trkpt lat="46.56342" lon="6.07809">
        <ele>1078.4</ele>
        <time>2021-08-18T11:05:02Z</time>
      </trkpt>
      <trkpt lat="46.56336" lon="6.07805">
        <ele>1078.8</ele>
        <time>2021-08-18T11:05:03Z</time>
      </trkpt>
      <trkpt lat="46.56328" lon="6.07799">
        <ele>1079.3</ele>
        <time>2021-08-18T11:05:05Z</time>
      </trkpt>
      <trkpt lat="46.5632" lon="6.07791">
        <ele>1079.8</ele>
        <time>2021-08-18T11:05:07Z</time>
      </trkpt>
      <trkpt lat="46.56316" lon="6.07785">
        <ele>1080</ele>
        <time>2021-08-18T11:05:08Z</time>
      </trkpt>
      <trkpt lat="46.56312" lon="6.07774">
        <ele>1080.4</ele>
        <time>2021-08-18T11:05:10Z</time>
      </trkpt>
      <trkpt lat="46.56311" lon="6.07768">
        <ele>1080.6</ele>
        <time>2021-08-18T11:05:11Z</time>
      </trkpt>
      <trkpt lat="46.5631" lon="6.07761">
        <ele>1080.8</ele>
        <time>2021-08-18T11:05:12Z</time>
      </trkpt>
      <trkpt lat="46.5631" lon="6.07748">
        <ele>1081.2</ele>
        <time>2021-08-18T11:05:14Z</time>
      </trkpt>
      <trkpt lat="46.5631" lon="6.07734">
        <ele>1081.5</ele>
        <time>2021-08-18T11:05:16Z</time>
      </trkpt>
      <trkpt lat="46.56308" lon="6.07723">
        <ele>1081.7</ele>
        <time>2021-08-18T11:05:18Z</time>
      </trkpt>
      <trkpt lat="46.56306" lon="6.07713">
        <ele>1081.8</ele>
        <time>2021-08-18T11:05:20Z</time>
      </trkpt>
      <trkpt lat="46.56303" lon="6.07702">
        <ele>1081.9</ele>
        <time>2021-08-18T11:05:22Z</time>
      </trkpt>
      <trkpt lat="46.56301" lon="6.07695">
        <ele>1081.9</ele>
        <time>2021-08-18T11:05:24Z</time>
      </trkpt>
      <trkpt lat="46.56299" lon="6.0769">
        <ele>1081.9</ele>
        <time>2021-08-18T11:05:25Z</time>
      </trkpt>
      <trkpt lat="46.56298" lon="6.07683">
        <ele>1081.8</ele>
        <time>2021-08-18T11:05:26Z</time>
      </trkpt>
      <trkpt lat="46.56297" lon="6.07677">
        <ele>1081.7</ele>
        <time>2021-08-18T11:05:27Z</time>
      </trkpt>
      <trkpt lat="46.56295" lon="6.07671">
        <ele>1081.6</ele>
        <time>2021-08-18T11:05:28Z</time>
      </trkpt>
      <trkpt lat="46.56295" lon="6.07664">
        <ele>1081.5</ele>
        <time>2021-08-18T11:05:30Z</time>
      </trkpt>
      <trkpt lat="46.56294" lon="6.07658">
        <ele>1081.4</ele>
        <time>2021-08-18T11:05:31Z</time>
      </trkpt>
      <trkpt lat="46.56294" lon="6.07652">
        <ele>1081.3</ele>
        <time>2021-08-18T11:05:32Z</time>
      </trkpt>
      <trkpt lat="46.56295" lon="6.07646">
        <ele>1081.2</ele>
        <time>2021-08-18T11:05:33Z</time>
      </trkpt>
      <trkpt lat="46.56295" lon="6.0764">
        <ele>1081.1</ele>
        <time>2021-08-18T11:05:34Z</time>
      </trkpt>
      <trkpt lat="46.56296" lon="6.07634">
        <ele>1080.9</ele>
        <time>2021-08-18T11:05:35Z</time>
      </trkpt>
      <trkpt lat="46.56296" lon="6.07627">
        <ele>1080.8</ele>
        <time>2021-08-18T11:05:36Z</time>
      </trkpt>
      <trkpt lat="46.56301" lon="6.07612">
        <ele>1080.5</ele>
        <time>2021-08-18T11:05:38Z</time>
      </trkpt>
      <trkpt lat="46.56304" lon="6.07605">
        <ele>1080.3</ele>
        <time>2021-08-18T11:05:39Z</time>
      </trkpt>
      <trkpt lat="46.56307" lon="6.07598">
        <ele>1080.1</ele>
        <time>2021-08-18T11:05:40Z</time>
      </trkpt>
      <trkpt lat="46.56315" lon="6.07586">
        <ele>1079.9</ele>
        <time>2021-08-18T11:05:42Z</time>
      </trkpt>
      <trkpt lat="46.56321" lon="6.07575">
        <ele>1079.7</ele>
        <time>2021-08-18T11:05:44Z</time>
      </trkpt>
      <trkpt lat="46.56325" lon="6.07564">
        <ele>1079.6</ele>
        <time>2021-08-18T11:05:46Z</time>
      </trkpt>
      <trkpt lat="46.56329" lon="6.07558">
        <ele>1079.4</ele>
        <time>2021-08-18T11:05:47Z</time>
      </trkpt>
      <trkpt lat="46.56332" lon="6.07552">
        <ele>1079.2</ele>
        <time>2021-08-18T11:05:48Z</time>
      </trkpt>
      <trkpt lat="46.56339" lon="6.0754">
        <ele>1078.3</ele>
        <time>2021-08-18T11:05:50Z</time>
      </trkpt>
      <trkpt lat="46.56343" lon="6.07526">
        <ele>1077.4</ele>
        <time>2021-08-18T11:05:52Z</time>
      </trkpt>
      <trkpt lat="46.56344" lon="6.07514">
        <ele>1076.6</ele>
        <time>2021-08-18T11:05:54Z</time>
      </trkpt>
      <trkpt lat="46.56344" lon="6.07507">
        <ele>1076.8</ele>
        <time>2021-08-18T11:05:56Z</time>
      </trkpt>
      <trkpt lat="46.56344" lon="6.07505">
        <ele>1076.8</ele>
        <time>2021-08-18T11:05:58Z</time>
      </trkpt>
      <trkpt lat="46.56345" lon="6.07505">
        <ele>1076.8</ele>
        <time>2021-08-18T11:05:59Z</time>
      </trkpt>
      <trkpt lat="46.56347" lon="6.07503">
        <ele>1076.9</ele>
        <time>2021-08-18T11:06:01Z</time>
      </trkpt>
      <trkpt lat="46.56346" lon="6.07504">
        <ele>1076.9</ele>
        <time>2021-08-18T11:06:03Z</time>
      </trkpt>
      <trkpt lat="46.56347" lon="6.07504">
        <ele>1076.9</ele>
        <time>2021-08-18T11:06:04Z</time>
      </trkpt>
      <trkpt lat="46.56349" lon="6.07505">
        <ele>1077</ele>
        <time>2021-08-18T11:06:06Z</time>
      </trkpt>
      <trkpt lat="46.56349" lon="6.07529">
        <ele>1077.6</ele>
        <time>2021-08-18T11:06:42Z</time>
      </trkpt>
      <trkpt lat="46.56346" lon="6.07533">
        <ele>1077.7</ele>
        <time>2021-08-18T11:06:44Z</time>
      </trkpt>
      <trkpt lat="46.56343" lon="6.07534">
        <ele>1077.9</ele>
        <time>2021-08-18T11:06:45Z</time>
      </trkpt>
      <trkpt lat="46.56338" lon="6.07533">
        <ele>1079.2</ele>
        <time>2021-08-18T11:06:46Z</time>
      </trkpt>
      <trkpt lat="46.56336" lon="6.07532">
        <ele>1079.2</ele>
        <time>2021-08-18T11:06:48Z</time>
      </trkpt>
      <trkpt lat="46.56335" lon="6.07533">
        <ele>1079.2</ele>
        <time>2021-08-18T11:06:50Z</time>
      </trkpt>
      <trkpt lat="46.56334" lon="6.07533">
        <ele>1079.2</ele>
        <time>2021-08-18T11:06:52Z</time>
      </trkpt>
      <trkpt lat="46.56334" lon="6.07534">
        <ele>1079.2</ele>
        <time>2021-08-18T11:06:54Z</time>
      </trkpt>
      <trkpt lat="46.56334" lon="6.07534">
        <ele>1079.2</ele>
        <time>2021-08-18T11:06:55Z</time>
      </trkpt>
      <trkpt lat="46.56327" lon="6.07533">
        <ele>1080.9</ele>
        <time>2021-08-18T11:07:24Z</time>
      </trkpt>
      <trkpt lat="46.56324" lon="6.07532">
        <ele>1081.2</ele>
        <time>2021-08-18T11:07:25Z</time>
      </trkpt>
      <trkpt lat="46.56321" lon="6.07531">
        <ele>1081.4</ele>
        <time>2021-08-18T11:07:26Z</time>
      </trkpt>
      <trkpt lat="46.56318" lon="6.0753">
        <ele>1081.7</ele>
        <time>2021-08-18T11:07:27Z</time>
      </trkpt>
      <trkpt lat="46.56314" lon="6.0753">
        <ele>1082</ele>
        <time>2021-08-18T11:07:29Z</time>
      </trkpt>
      <trkpt lat="46.56312" lon="6.0753">
        <ele>1082.1</ele>
        <time>2021-08-18T11:07:30Z</time>
      </trkpt>
      <trkpt lat="46.56309" lon="6.07529">
        <ele>1082.4</ele>
        <time>2021-08-18T11:07:31Z</time>
      </trkpt>
      <trkpt lat="46.56308" lon="6.07529">
        <ele>1082.4</ele>
        <time>2021-08-18T11:07:32Z</time>
      </trkpt>
      <trkpt lat="46.56305" lon="6.07528">
        <ele>1082.7</ele>
        <time>2021-08-18T11:07:34Z</time>
      </trkpt>
      <trkpt lat="46.56304" lon="6.07528">
        <ele>1082.8</ele>
        <time>2021-08-18T11:07:35Z</time>
      </trkpt>
      <trkpt lat="46.56303" lon="6.07528">
        <ele>1082.9</ele>
        <time>2021-08-18T11:07:36Z</time>
      </trkpt>
      <trkpt lat="46.56302" lon="6.07528">
        <ele>1082.9</ele>
        <time>2021-08-18T11:07:37Z</time>
      </trkpt>
      <trkpt lat="46.56303" lon="6.07529">
        <ele>1083</ele>
        <time>2021-08-18T11:07:38Z</time>
      </trkpt>
      <trkpt lat="46.56304" lon="6.0753">
        <ele>1083.1</ele>
        <time>2021-08-18T11:07:39Z</time>
      </trkpt>
      <trkpt lat="46.56304" lon="6.0753">
        <ele>1083.1</ele>
        <time>2021-08-18T11:07:40Z</time>
      </trkpt>
      <trkpt lat="46.56303" lon="6.07531">
        <ele>1083.2</ele>
        <time>2021-08-18T11:07:41Z</time>
      </trkpt>
      <trkpt lat="46.56302" lon="6.07532">
        <ele>1083.3</ele>
        <time>2021-08-18T11:07:43Z</time>
      </trkpt>
      <trkpt lat="46.56299" lon="6.07534">
        <ele>1083.5</ele>
        <time>2021-08-18T11:07:45Z</time>
      </trkpt>
      <trkpt lat="46.56298" lon="6.07535">
        <ele>1083.6</ele>
        <time>2021-08-18T11:07:46Z</time>
      </trkpt>
      <trkpt lat="46.56297" lon="6.07536">
        <ele>1083.7</ele>
        <time>2021-08-18T11:07:47Z</time>
      </trkpt>
      <trkpt lat="46.56296" lon="6.07537">
        <ele>1083.8</ele>
        <time>2021-08-18T11:07:48Z</time>
      </trkpt>
      <trkpt lat="46.56294" lon="6.0754">
        <ele>1084.1</ele>
        <time>2021-08-18T11:07:50Z</time>
      </trkpt>
      <trkpt lat="46.56293" lon="6.07541">
        <ele>1084.1</ele>
        <time>2021-08-18T11:07:51Z</time>
      </trkpt>
      <trkpt lat="46.56293" lon="6.07542">
        <ele>1084.2</ele>
        <time>2021-08-18T11:07:52Z</time>
      </trkpt>
      <trkpt lat="46.56293" lon="6.07542">
        <ele>1084.2</ele>
        <time>2021-08-18T11:07:53Z</time>
      </trkpt>
      <trkpt lat="46.56293" lon="6.07543">
        <ele>1084.2</ele>
        <time>2021-08-18T11:07:54Z</time>
      </trkpt>
      <trkpt lat="46.56291" lon="6.07545">
        <ele>1084.4</ele>
        <time>2021-08-18T11:07:56Z</time>
      </trkpt>
      <trkpt lat="46.5629" lon="6.07546">
        <ele>1084.5</ele>
        <time>2021-08-18T11:07:57Z</time>
      </trkpt>
      <trkpt lat="46.56288" lon="6.07549">
        <ele>1084.7</ele>
        <time>2021-08-18T11:07:59Z</time>
      </trkpt>
      <trkpt lat="46.56287" lon="6.07551">
        <ele>1084.8</ele>
        <time>2021-08-18T11:08:00Z</time>
      </trkpt>
      <trkpt lat="46.56286" lon="6.07553">
        <ele>1084.9</ele>
        <time>2021-08-18T11:08:01Z</time>
      </trkpt>
      <trkpt lat="46.56285" lon="6.07555">
        <ele>1085</ele>
        <time>2021-08-18T11:08:02Z</time>
      </trkpt>
      <trkpt lat="46.56283" lon="6.07556">
        <ele>1085.2</ele>
        <time>2021-08-18T11:08:03Z</time>
      </trkpt>
      <trkpt lat="46.56283" lon="6.07559">
        <ele>1085.3</ele>
        <time>2021-08-18T11:08:04Z</time>
      </trkpt>
      <trkpt lat="46.56282" lon="6.07561">
        <ele>1085.4</ele>
        <time>2021-08-18T11:08:05Z</time>
      </trkpt>
      <trkpt lat="46.56282" lon="6.07563">
        <ele>1085.5</ele>
        <time>2021-08-18T11:08:06Z</time>
      </trkpt>
      <trkpt lat="46.56281" lon="6.07565">
        <ele>1085.7</ele>
        <time>2021-08-18T11:08:07Z</time>
      </trkpt>
      <trkpt lat="46.5628" lon="6.07567">
        <ele>1085.8</ele>
        <time>2021-08-18T11:08:08Z</time>
      </trkpt>
      <trkpt lat="46.56279" lon="6.07569">
        <ele>1085.9</ele>
        <time>2021-08-18T11:08:09Z</time>
      </trkpt>
      <trkpt lat="46.56278" lon="6.07574">
        <ele>1086.1</ele>
        <time>2021-08-18T11:08:11Z</time>
      </trkpt>
      <trkpt lat="46.56278" lon="6.07575">
        <ele>1086.2</ele>
        <time>2021-08-18T11:08:12Z</time>
      </trkpt>
      <trkpt lat="46.56278" lon="6.07578">
        <ele>1086.4</ele>
        <time>2021-08-18T11:08:13Z</time>
      </trkpt>
      <trkpt lat="46.56277" lon="6.0758">
        <ele>1086.5</ele>
        <time>2021-08-18T11:08:14Z</time>
      </trkpt>
      <trkpt lat="46.56276" lon="6.07584">
        <ele>1086.7</ele>
        <time>2021-08-18T11:08:15Z</time>
      </trkpt>
      <trkpt lat="46.56275" lon="6.07585">
        <ele>1086.8</ele>
        <time>2021-08-18T11:08:16Z</time>
      </trkpt>
      <trkpt lat="46.56274" lon="6.07587">
        <ele>1086.9</ele>
        <time>2021-08-18T11:08:17Z</time>
      </trkpt>
      <trkpt lat="46.56273" lon="6.07589">
        <ele>1087</ele>
        <time>2021-08-18T11:08:18Z</time>
      </trkpt>
      <trkpt lat="46.56272" lon="6.0759">
        <ele>1087.2</ele>
        <time>2021-08-18T11:08:19Z</time>
      </trkpt>
      <trkpt lat="46.5627" lon="6.0759">
        <ele>1087.3</ele>
        <time>2021-08-18T11:08:20Z</time>
      </trkpt>
      <trkpt lat="46.56269" lon="6.0759">
        <ele>1087.4</ele>
        <time>2021-08-18T11:08:22Z</time>
      </trkpt>
      <trkpt lat="46.56268" lon="6.0759">
        <ele>1087.4</ele>
        <time>2021-08-18T11:08:23Z</time>
      </trkpt>
      <trkpt lat="46.56266" lon="6.07593">
        <ele>1087.6</ele>
        <time>2021-08-18T11:08:25Z</time>
      </trkpt>
      <trkpt lat="46.56264" lon="6.07595">
        <ele>1087.8</ele>
        <time>2021-08-18T11:08:26Z</time>
      </trkpt>
      <trkpt lat="46.56262" lon="6.07599">
        <ele>1088</ele>
        <time>2021-08-18T11:08:28Z</time>
      </trkpt>
      <trkpt lat="46.56262" lon="6.07604">
        <ele>1088.2</ele>
        <time>2021-08-18T11:08:29Z</time>
      </trkpt>
      <trkpt lat="46.56262" lon="6.07605">
        <ele>1088.3</ele>
        <time>2021-08-18T11:08:30Z</time>
      </trkpt>
      <trkpt lat="46.56261" lon="6.07608">
        <ele>1088.5</ele>
        <time>2021-08-18T11:08:31Z</time>
      </trkpt>
      <trkpt lat="46.56261" lon="6.0761">
        <ele>1088.6</ele>
        <time>2021-08-18T11:08:32Z</time>
      </trkpt>
      <trkpt lat="46.56261" lon="6.07612">
        <ele>1088.7</ele>
        <time>2021-08-18T11:08:34Z</time>
      </trkpt>
      <trkpt lat="46.5626" lon="6.07614">
        <ele>1088.8</ele>
        <time>2021-08-18T11:08:35Z</time>
      </trkpt>
      <trkpt lat="46.56259" lon="6.07619">
        <ele>1089</ele>
        <time>2021-08-18T11:08:36Z</time>
      </trkpt>
      <trkpt lat="46.56259" lon="6.0762">
        <ele>1089.1</ele>
        <time>2021-08-18T11:08:37Z</time>
      </trkpt>
      <trkpt lat="46.56259" lon="6.07622">
        <ele>1089.2</ele>
        <time>2021-08-18T11:08:38Z</time>
      </trkpt>
      <trkpt lat="46.56258" lon="6.07627">
        <ele>1089.4</ele>
        <time>2021-08-18T11:08:40Z</time>
      </trkpt>
      <trkpt lat="46.56258" lon="6.07629">
        <ele>1089.5</ele>
        <time>2021-08-18T11:08:41Z</time>
      </trkpt>
      <trkpt lat="46.56259" lon="6.07631">
        <ele>1089.6</ele>
        <time>2021-08-18T11:08:42Z</time>
      </trkpt>
      <trkpt lat="46.56259" lon="6.07634">
        <ele>1089.7</ele>
        <time>2021-08-18T11:08:43Z</time>
      </trkpt>
      <trkpt lat="46.56259" lon="6.07636">
        <ele>1089.8</ele>
        <time>2021-08-18T11:08:44Z</time>
      </trkpt>
      <trkpt lat="46.56258" lon="6.07639">
        <ele>1090</ele>
        <time>2021-08-18T11:08:45Z</time>
      </trkpt>
      <trkpt lat="46.56257" lon="6.0764">
        <ele>1090.1</ele>
        <time>2021-08-18T11:08:46Z</time>
      </trkpt>
      <trkpt lat="46.56256" lon="6.07641">
        <ele>1090.1</ele>
        <time>2021-08-18T11:08:48Z</time>
      </trkpt>
      <trkpt lat="46.56256" lon="6.07642">
        <ele>1090.2</ele>
        <time>2021-08-18T11:08:49Z</time>
      </trkpt>
      <trkpt lat="46.56255" lon="6.07643">
        <ele>1090.3</ele>
        <time>2021-08-18T11:08:50Z</time>
      </trkpt>
      <trkpt lat="46.56255" lon="6.07644">
        <ele>1090.3</ele>
        <time>2021-08-18T11:08:51Z</time>
      </trkpt>
      <trkpt lat="46.56254" lon="6.07649">
        <ele>1090.6</ele>
        <time>2021-08-18T11:08:53Z</time>
      </trkpt>
      <trkpt lat="46.56253" lon="6.0765">
        <ele>1090.6</ele>
        <time>2021-08-18T11:08:54Z</time>
      </trkpt>
      <trkpt lat="46.56252" lon="6.07652">
        <ele>1090.8</ele>
        <time>2021-08-18T11:08:55Z</time>
      </trkpt>
      <trkpt lat="46.56252" lon="6.07658">
        <ele>1091</ele>
        <time>2021-08-18T11:08:57Z</time>
      </trkpt>
      <trkpt lat="46.56252" lon="6.07661">
        <ele>1091.2</ele>
        <time>2021-08-18T11:08:58Z</time>
      </trkpt>
      <trkpt lat="46.56251" lon="6.07665">
        <ele>1091.4</ele>
        <time>2021-08-18T11:09:00Z</time>
      </trkpt>
      <trkpt lat="46.5625" lon="6.07667">
        <ele>1091.5</ele>
        <time>2021-08-18T11:09:01Z</time>
      </trkpt>
      <trkpt lat="46.56249" lon="6.0767">
        <ele>1091.6</ele>
        <time>2021-08-18T11:09:02Z</time>
      </trkpt>
      <trkpt lat="46.56249" lon="6.07672">
        <ele>1091.8</ele>
        <time>2021-08-18T11:09:03Z</time>
      </trkpt>
      <trkpt lat="46.56248" lon="6.07675">
        <ele>1091.9</ele>
        <time>2021-08-18T11:09:04Z</time>
      </trkpt>
      <trkpt lat="46.56248" lon="6.07677">
        <ele>1092</ele>
        <time>2021-08-18T11:09:05Z</time>
      </trkpt>
      <trkpt lat="46.56247" lon="6.0768">
        <ele>1092.2</ele>
        <time>2021-08-18T11:09:07Z</time>
      </trkpt>
      <trkpt lat="46.56246" lon="6.07682">
        <ele>1092.3</ele>
        <time>2021-08-18T11:09:08Z</time>
      </trkpt>
      <trkpt lat="46.56245" lon="6.07684">
        <ele>1092.4</ele>
        <time>2021-08-18T11:09:09Z</time>
      </trkpt>
      <trkpt lat="46.56244" lon="6.07685">
        <ele>1092.6</ele>
        <time>2021-08-18T11:09:11Z</time>
      </trkpt>
      <trkpt lat="46.56243" lon="6.07687">
        <ele>1092.7</ele>
        <time>2021-08-18T11:09:12Z</time>
      </trkpt>
      <trkpt lat="46.56243" lon="6.0769">
        <ele>1092.8</ele>
        <time>2021-08-18T11:09:13Z</time>
      </trkpt>
      <trkpt lat="46.56242" lon="6.07692">
        <ele>1092.9</ele>
        <time>2021-08-18T11:09:14Z</time>
      </trkpt>
      <trkpt lat="46.56242" lon="6.07694">
        <ele>1093.1</ele>
        <time>2021-08-18T11:09:15Z</time>
      </trkpt>
      <trkpt lat="46.56242" lon="6.07696">
        <ele>1093.2</ele>
        <time>2021-08-18T11:09:17Z</time>
      </trkpt>
      <trkpt lat="46.56242" lon="6.07697">
        <ele>1093.2</ele>
        <time>2021-08-18T11:09:18Z</time>
      </trkpt>
      <trkpt lat="46.56242" lon="6.07698">
        <ele>1093.3</ele>
        <time>2021-08-18T11:09:19Z</time>
      </trkpt>
      <trkpt lat="46.56242" lon="6.07698">
        <ele>1093.3</ele>
        <time>2021-08-18T11:09:21Z</time>
      </trkpt>
      <trkpt lat="46.56242" lon="6.07698">
        <ele>1093.3</ele>
        <time>2021-08-18T11:09:22Z</time>
      </trkpt>
      <trkpt lat="46.56242" lon="6.07698">
        <ele>1093.3</ele>
        <time>2021-08-18T11:09:24Z</time>
      </trkpt>
      <trkpt lat="46.56242" lon="6.07698">
        <ele>1093.3</ele>
        <time>2021-08-18T11:09:26Z</time>
      </trkpt>
      <trkpt lat="46.5624" lon="6.07712">
        <ele>1094</ele>
        <time>2021-08-18T11:09:33Z</time>
      </trkpt>
      <trkpt lat="46.56238" lon="6.07718">
        <ele>1094.4</ele>
        <time>2021-08-18T11:09:35Z</time>
      </trkpt>
      <trkpt lat="46.56238" lon="6.0772">
        <ele>1094.5</ele>
        <time>2021-08-18T11:09:36Z</time>
      </trkpt>
      <trkpt lat="46.56238" lon="6.07721">
        <ele>1094.5</ele>
        <time>2021-08-18T11:09:37Z</time>
      </trkpt>
      <trkpt lat="46.56237" lon="6.07723">
        <ele>1094.6</ele>
        <time>2021-08-18T11:09:38Z</time>
      </trkpt>
      <trkpt lat="46.56236" lon="6.07728">
        <ele>1094.9</ele>
        <time>2021-08-18T11:09:40Z</time>
      </trkpt>
      <trkpt lat="46.56235" lon="6.07732">
        <ele>1095.2</ele>
        <time>2021-08-18T11:09:41Z</time>
      </trkpt>
      <trkpt lat="46.56235" lon="6.07733">
        <ele>1095.3</ele>
        <time>2021-08-18T11:09:42Z</time>
      </trkpt>
      <trkpt lat="46.56235" lon="6.07736">
        <ele>1095.4</ele>
        <time>2021-08-18T11:09:43Z</time>
      </trkpt>
      <trkpt lat="46.56234" lon="6.07738">
        <ele>1095.6</ele>
        <time>2021-08-18T11:09:44Z</time>
      </trkpt>
      <trkpt lat="46.56233" lon="6.07741">
        <ele>1095.7</ele>
        <time>2021-08-18T11:09:45Z</time>
      </trkpt>
      <trkpt lat="46.56232" lon="6.07742">
        <ele>1095.8</ele>
        <time>2021-08-18T11:09:46Z</time>
      </trkpt>
      <trkpt lat="46.56231" lon="6.07742">
        <ele>1095.9</ele>
        <time>2021-08-18T11:09:47Z</time>
      </trkpt>
      <trkpt lat="46.56231" lon="6.07743">
        <ele>1096</ele>
        <time>2021-08-18T11:09:48Z</time>
      </trkpt>
      <trkpt lat="46.5623" lon="6.07744">
        <ele>1096.1</ele>
        <time>2021-08-18T11:09:49Z</time>
      </trkpt>
      <trkpt lat="46.5623" lon="6.07745">
        <ele>1096.1</ele>
        <time>2021-08-18T11:09:50Z</time>
      </trkpt>
      <trkpt lat="46.5623" lon="6.07746">
        <ele>1096.2</ele>
        <time>2021-08-18T11:09:51Z</time>
      </trkpt>
      <trkpt lat="46.56229" lon="6.07746">
        <ele>1096.2</ele>
        <time>2021-08-18T11:09:52Z</time>
      </trkpt>
      <trkpt lat="46.56229" lon="6.07747">
        <ele>1096.3</ele>
        <time>2021-08-18T11:09:54Z</time>
      </trkpt>
      <trkpt lat="46.56229" lon="6.07747">
        <ele>1096.3</ele>
        <time>2021-08-18T11:09:55Z</time>
      </trkpt>
      <trkpt lat="46.56229" lon="6.07747">
        <ele>1096.3</ele>
        <time>2021-08-18T11:09:56Z</time>
      </trkpt>
      <trkpt lat="46.56229" lon="6.07748">
        <ele>1096.3</ele>
        <time>2021-08-18T11:09:57Z</time>
      </trkpt>
      <trkpt lat="46.56183" lon="6.07864">
        <ele>1105.3</ele>
        <time>2021-08-18T11:11:28Z</time>
      </trkpt>
      <trkpt lat="46.5618" lon="6.07868">
        <ele>1105.7</ele>
        <time>2021-08-18T11:11:30Z</time>
      </trkpt>
      <trkpt lat="46.56179" lon="6.0787">
        <ele>1105.9</ele>
        <time>2021-08-18T11:11:31Z</time>
      </trkpt>
      <trkpt lat="46.56179" lon="6.07871">
        <ele>1105.9</ele>
        <time>2021-08-18T11:11:32Z</time>
      </trkpt>
      <trkpt lat="46.56179" lon="6.07872">
        <ele>1106</ele>
        <time>2021-08-18T11:11:34Z</time>
      </trkpt>
      <trkpt lat="46.56178" lon="6.07873">
        <ele>1106.1</ele>
        <time>2021-08-18T11:11:35Z</time>
      </trkpt>
      <trkpt lat="46.56178" lon="6.07874">
        <ele>1106.2</ele>
        <time>2021-08-18T11:11:36Z</time>
      </trkpt>
      <trkpt lat="46.56178" lon="6.07875">
        <ele>1106.2</ele>
        <time>2021-08-18T11:11:38Z</time>
      </trkpt>
      <trkpt lat="46.56177" lon="6.07875">
        <ele>1106.2</ele>
        <time>2021-08-18T11:11:39Z</time>
      </trkpt>
      <trkpt lat="46.56177" lon="6.07875">
        <ele>1106.3</ele>
        <time>2021-08-18T11:11:40Z</time>
      </trkpt>
      <trkpt lat="46.56167" lon="6.07883">
        <ele>1107.4</ele>
        <time>2021-08-18T11:11:48Z</time>
      </trkpt>
      <trkpt lat="46.56165" lon="6.07886">
        <ele>1107.6</ele>
        <time>2021-08-18T11:11:49Z</time>
      </trkpt>
      <trkpt lat="46.56163" lon="6.07888">
        <ele>1107.9</ele>
        <time>2021-08-18T11:11:50Z</time>
      </trkpt>
      <trkpt lat="46.5616" lon="6.07895">
        <ele>1108.4</ele>
        <time>2021-08-18T11:11:52Z</time>
      </trkpt>
      <trkpt lat="46.56158" lon="6.07904">
        <ele>1109</ele>
        <time>2021-08-18T11:11:54Z</time>
      </trkpt>
      <trkpt lat="46.56158" lon="6.07905">
        <ele>1109</ele>
        <time>2021-08-18T11:11:55Z</time>
      </trkpt>
      <trkpt lat="46.56158" lon="6.07905">
        <ele>1109.1</ele>
        <time>2021-08-18T11:11:56Z</time>
      </trkpt>
      <trkpt lat="46.56158" lon="6.07906">
        <ele>1109.1</ele>
        <time>2021-08-18T11:11:57Z</time>
      </trkpt>
      <trkpt lat="46.56157" lon="6.07908">
        <ele>1109.3</ele>
        <time>2021-08-18T11:11:59Z</time>
      </trkpt>
      <trkpt lat="46.56156" lon="6.0791">
        <ele>1109.4</ele>
        <time>2021-08-18T11:12:00Z</time>
      </trkpt>
      <trkpt lat="46.56152" lon="6.07923">
        <ele>1110.2</ele>
        <time>2021-08-18T11:12:06Z</time>
      </trkpt>
      <trkpt lat="46.56151" lon="6.07927">
        <ele>1110.5</ele>
        <time>2021-08-18T11:12:07Z</time>
      </trkpt>
      <trkpt lat="46.56149" lon="6.07931">
        <ele>1110.6</ele>
        <time>2021-08-18T11:12:08Z</time>
      </trkpt>
      <trkpt lat="46.56148" lon="6.07933">
        <ele>1110.7</ele>
        <time>2021-08-18T11:12:09Z</time>
      </trkpt>
      <trkpt lat="46.56147" lon="6.07938">
        <ele>1110.9</ele>
        <time>2021-08-18T11:12:10Z</time>
      </trkpt>
      <trkpt lat="46.56146" lon="6.0794">
        <ele>1110.9</ele>
        <time>2021-08-18T11:12:11Z</time>
      </trkpt>
      <trkpt lat="46.56146" lon="6.07943">
        <ele>1111.1</ele>
        <time>2021-08-18T11:12:13Z</time>
      </trkpt>
      <trkpt lat="46.56145" lon="6.07951">
        <ele>1111.3</ele>
        <time>2021-08-18T11:12:14Z</time>
      </trkpt>
      <trkpt lat="46.56146" lon="6.07954">
        <ele>1111.5</ele>
        <time>2021-08-18T11:12:16Z</time>
      </trkpt>
      <trkpt lat="46.56146" lon="6.07956">
        <ele>1111.5</ele>
        <time>2021-08-18T11:12:18Z</time>
      </trkpt>
      <trkpt lat="46.56146" lon="6.07957">
        <ele>1111.6</ele>
        <time>2021-08-18T11:12:19Z</time>
      </trkpt>
      <trkpt lat="46.56146" lon="6.07959">
        <ele>1111.7</ele>
        <time>2021-08-18T11:12:20Z</time>
      </trkpt>
      <trkpt lat="46.56146" lon="6.07961">
        <ele>1111.7</ele>
        <time>2021-08-18T11:12:21Z</time>
      </trkpt>
      <trkpt lat="46.56146" lon="6.0796">
        <ele>1111.7</ele>
        <time>2021-08-18T11:12:22Z</time>
      </trkpt>
      <trkpt lat="46.56146" lon="6.07961">
        <ele>1111.7</ele>
        <time>2021-08-18T11:12:23Z</time>
      </trkpt>
      <trkpt lat="46.56146" lon="6.07963">
        <ele>1111.8</ele>
        <time>2021-08-18T11:12:24Z</time>
      </trkpt>
      <trkpt lat="46.56145" lon="6.07965">
        <ele>1111.9</ele>
        <time>2021-08-18T11:12:25Z</time>
      </trkpt>
      <trkpt lat="46.56143" lon="6.07964">
        <ele>1112.1</ele>
        <time>2021-08-18T11:12:27Z</time>
      </trkpt>
      <trkpt lat="46.56141" lon="6.07962">
        <ele>1112.2</ele>
        <time>2021-08-18T11:12:28Z</time>
      </trkpt>
      <trkpt lat="46.56138" lon="6.07961">
        <ele>1112.4</ele>
        <time>2021-08-18T11:12:30Z</time>
      </trkpt>
      <trkpt lat="46.56136" lon="6.0796">
        <ele>1112.5</ele>
        <time>2021-08-18T11:12:31Z</time>
      </trkpt>
      <trkpt lat="46.56134" lon="6.07958">
        <ele>1112.6</ele>
        <time>2021-08-18T11:12:32Z</time>
      </trkpt>
      <trkpt lat="46.56132" lon="6.07957">
        <ele>1112.8</ele>
        <time>2021-08-18T11:12:33Z</time>
      </trkpt>
      <trkpt lat="46.5613" lon="6.07956">
        <ele>1112.9</ele>
        <time>2021-08-18T11:12:35Z</time>
      </trkpt>
      <trkpt lat="46.56127" lon="6.07954">
        <ele>1113.1</ele>
        <time>2021-08-18T11:12:52Z</time>
      </trkpt>
      <trkpt lat="46.56125" lon="6.07953">
        <ele>1113.2</ele>
        <time>2021-08-18T11:12:53Z</time>
      </trkpt>
      <trkpt lat="46.56123" lon="6.07952">
        <ele>1113.4</ele>
        <time>2021-08-18T11:12:54Z</time>
      </trkpt>
      <trkpt lat="46.5612" lon="6.07947">
        <ele>1113.7</ele>
        <time>2021-08-18T11:12:56Z</time>
      </trkpt>
      <trkpt lat="46.56118" lon="6.07946">
        <ele>1113.8</ele>
        <time>2021-08-18T11:12:57Z</time>
      </trkpt>
      <trkpt lat="46.56117" lon="6.07944">
        <ele>1113.9</ele>
        <time>2021-08-18T11:12:58Z</time>
      </trkpt>
      <trkpt lat="46.56115" lon="6.0794">
        <ele>1114.2</ele>
        <time>2021-08-18T11:12:59Z</time>
      </trkpt>
      <trkpt lat="46.56113" lon="6.07938">
        <ele>1114.4</ele>
        <time>2021-08-18T11:13:00Z</time>
      </trkpt>
      <trkpt lat="46.56113" lon="6.07938">
        <ele>1114.4</ele>
        <time>2021-08-18T11:13:02Z</time>
      </trkpt>
      <trkpt lat="46.56112" lon="6.07938">
        <ele>1114.5</ele>
        <time>2021-08-18T11:13:03Z</time>
      </trkpt>
      <trkpt lat="46.56111" lon="6.07937">
        <ele>1114.6</ele>
        <time>2021-08-18T11:13:04Z</time>
      </trkpt>
      <trkpt lat="46.5611" lon="6.07937">
        <ele>1114.7</ele>
        <time>2021-08-18T11:13:05Z</time>
      </trkpt>
      <trkpt lat="46.5611" lon="6.07938">
        <ele>1114.8</ele>
        <time>2021-08-18T11:13:07Z</time>
      </trkpt>
      <trkpt lat="46.56109" lon="6.07939">
        <ele>1114.8</ele>
        <time>2021-08-18T11:13:08Z</time>
      </trkpt>
      <trkpt lat="46.56109" lon="6.0794">
        <ele>1114.9</ele>
        <time>2021-08-18T11:13:09Z</time>
      </trkpt>
      <trkpt lat="46.56106" lon="6.0794">
        <ele>1115.2</ele>
        <time>2021-08-18T11:13:11Z</time>
      </trkpt>
      <trkpt lat="46.56103" lon="6.0794">
        <ele>1115.4</ele>
        <time>2021-08-18T11:13:12Z</time>
      </trkpt>
      <trkpt lat="46.561" lon="6.07939">
        <ele>1115.7</ele>
        <time>2021-08-18T11:13:13Z</time>
      </trkpt>
      <trkpt lat="46.56097" lon="6.07938">
        <ele>1115.9</ele>
        <time>2021-08-18T11:13:14Z</time>
      </trkpt>
      <trkpt lat="46.56094" lon="6.07937">
        <ele>1116.2</ele>
        <time>2021-08-18T11:13:42Z</time>
      </trkpt>
      <trkpt lat="46.56091" lon="6.07936">
        <ele>1116.5</ele>
        <time>2021-08-18T11:13:43Z</time>
      </trkpt>
      <trkpt lat="46.56088" lon="6.07935">
        <ele>1116.7</ele>
        <time>2021-08-18T11:13:44Z</time>
      </trkpt>
      <trkpt lat="46.56085" lon="6.07934">
        <ele>1117</ele>
        <time>2021-08-18T11:13:46Z</time>
      </trkpt>
      <trkpt lat="46.56082" lon="6.07933">
        <ele>1117.3</ele>
        <time>2021-08-18T11:13:47Z</time>
      </trkpt>
      <trkpt lat="46.56079" lon="6.07932">
        <ele>1117.5</ele>
        <time>2021-08-18T11:13:48Z</time>
      </trkpt>
      <trkpt lat="46.56076" lon="6.07931">
        <ele>1117.8</ele>
        <time>2021-08-18T11:13:50Z</time>
      </trkpt>
      <trkpt lat="46.56073" lon="6.0793">
        <ele>1118.1</ele>
        <time>2021-08-18T11:13:52Z</time>
      </trkpt>
      <trkpt lat="46.5607" lon="6.07929">
        <ele>1118.3</ele>
        <time>2021-08-18T11:13:53Z</time>
      </trkpt>
      <trkpt lat="46.56067" lon="6.07928">
        <ele>1118.6</ele>
        <time>2021-08-18T11:13:54Z</time>
      </trkpt>
      <trkpt lat="46.56065" lon="6.07928">
        <ele>1118.8</ele>
        <time>2021-08-18T11:13:56Z</time>
      </trkpt>
      <trkpt lat="46.56064" lon="6.07927">
        <ele>1118.9</ele>
        <time>2021-08-18T11:13:57Z</time>
      </trkpt>
      <trkpt lat="46.56058" lon="6.07925">
        <ele>1119.4</ele>
        <time>2021-08-18T11:13:59Z</time>
      </trkpt>
      <trkpt lat="46.56054" lon="6.07924">
        <ele>1119.8</ele>
        <time>2021-08-18T11:14:00Z</time>
      </trkpt>
      <trkpt lat="46.56051" lon="6.07924">
        <ele>1120</ele>
        <time>2021-08-18T11:14:01Z</time>
      </trkpt>
      <trkpt lat="46.56049" lon="6.07925">
        <ele>1120.2</ele>
        <time>2021-08-18T11:14:03Z</time>
      </trkpt>
      <trkpt lat="46.56048" lon="6.07925">
        <ele>1120.3</ele>
        <time>2021-08-18T11:14:04Z</time>
      </trkpt>
      <trkpt lat="46.56043" lon="6.07923">
        <ele>1120.7</ele>
        <time>2021-08-18T11:14:06Z</time>
      </trkpt>
      <trkpt lat="46.56038" lon="6.07923">
        <ele>1121</ele>
        <time>2021-08-18T11:14:08Z</time>
      </trkpt>
      <trkpt lat="46.56034" lon="6.07925">
        <ele>1121.3</ele>
        <time>2021-08-18T11:14:09Z</time>
      </trkpt>
      <trkpt lat="46.56031" lon="6.07926">
        <ele>1121.5</ele>
        <time>2021-08-18T11:14:11Z</time>
      </trkpt>
      <trkpt lat="46.56029" lon="6.07928">
        <ele>1121.6</ele>
        <time>2021-08-18T11:14:12Z</time>
      </trkpt>
      <trkpt lat="46.56027" lon="6.07929">
        <ele>1121.8</ele>
        <time>2021-08-18T11:14:13Z</time>
      </trkpt>
      <trkpt lat="46.56025" lon="6.07931">
        <ele>1121.9</ele>
        <time>2021-08-18T11:14:15Z</time>
      </trkpt>
      <trkpt lat="46.56022" lon="6.07932">
        <ele>1122.1</ele>
        <time>2021-08-18T11:14:16Z</time>
      </trkpt>
      <trkpt lat="46.5602" lon="6.07933">
        <ele>1122.2</ele>
        <time>2021-08-18T11:14:18Z</time>
      </trkpt>
      <trkpt lat="46.56018" lon="6.07935">
        <ele>1122.4</ele>
        <time>2021-08-18T11:14:29Z</time>
      </trkpt>
      <trkpt lat="46.56015" lon="6.07936">
        <ele>1122.5</ele>
        <time>2021-08-18T11:14:30Z</time>
      </trkpt>
      <trkpt lat="46.56012" lon="6.07939">
        <ele>1122.7</ele>
        <time>2021-08-18T11:14:31Z</time>
      </trkpt>
      <trkpt lat="46.56009" lon="6.07941">
        <ele>1122.9</ele>
        <time>2021-08-18T11:14:33Z</time>
      </trkpt>
      <trkpt lat="46.56007" lon="6.07941">
        <ele>1123</ele>
        <time>2021-08-18T11:14:34Z</time>
      </trkpt>
      <trkpt lat="46.56006" lon="6.07943">
        <ele>1123.1</ele>
        <time>2021-08-18T11:14:36Z</time>
      </trkpt>
      <trkpt lat="46.56003" lon="6.07941">
        <ele>1123.3</ele>
        <time>2021-08-18T11:14:38Z</time>
      </trkpt>
      <trkpt lat="46.56001" lon="6.07937">
        <ele>1123.4</ele>
        <time>2021-08-18T11:14:39Z</time>
      </trkpt>
      <trkpt lat="46.55998" lon="6.07933">
        <ele>1123.6</ele>
        <time>2021-08-18T11:14:41Z</time>
      </trkpt>
      <trkpt lat="46.55997" lon="6.07932">
        <ele>1123.7</ele>
        <time>2021-08-18T11:14:42Z</time>
      </trkpt>
      <trkpt lat="46.55995" lon="6.07931">
        <ele>1123.8</ele>
        <time>2021-08-18T11:14:44Z</time>
      </trkpt>
      <trkpt lat="46.55984" lon="6.07929">
        <ele>1124.2</ele>
        <time>2021-08-18T11:14:49Z</time>
      </trkpt>
      <trkpt lat="46.55981" lon="6.07931">
        <ele>1124.3</ele>
        <time>2021-08-18T11:14:51Z</time>
      </trkpt>
      <trkpt lat="46.55978" lon="6.07932">
        <ele>1124.4</ele>
        <time>2021-08-18T11:14:52Z</time>
      </trkpt>
      <trkpt lat="46.55977" lon="6.07934">
        <ele>1124.4</ele>
        <time>2021-08-18T11:14:53Z</time>
      </trkpt>
      <trkpt lat="46.55975" lon="6.07933">
        <ele>1124.5</ele>
        <time>2021-08-18T11:14:55Z</time>
      </trkpt>
      <trkpt lat="46.55974" lon="6.07933">
        <ele>1124.5</ele>
        <time>2021-08-18T11:14:56Z</time>
      </trkpt>
      <trkpt lat="46.55972" lon="6.07933">
        <ele>1124.6</ele>
        <time>2021-08-18T11:14:57Z</time>
      </trkpt>
      <trkpt lat="46.55969" lon="6.07934">
        <ele>1124.6</ele>
        <time>2021-08-18T11:14:59Z</time>
      </trkpt>
      <trkpt lat="46.55968" lon="6.07934">
        <ele>1124.6</ele>
        <time>2021-08-18T11:15:00Z</time>
      </trkpt>
      <trkpt lat="46.55964" lon="6.07935">
        <ele>1124.7</ele>
        <time>2021-08-18T11:15:01Z</time>
      </trkpt>
      <trkpt lat="46.55962" lon="6.07936">
        <ele>1125.1</ele>
        <time>2021-08-18T11:15:02Z</time>
      </trkpt>
      <trkpt lat="46.55961" lon="6.07936">
        <ele>1125.1</ele>
        <time>2021-08-18T11:15:03Z</time>
      </trkpt>
      <trkpt lat="46.55958" lon="6.07938">
        <ele>1125.4</ele>
        <time>2021-08-18T11:15:05Z</time>
      </trkpt>
      <trkpt lat="46.55957" lon="6.07939">
        <ele>1125.7</ele>
        <time>2021-08-18T11:15:06Z</time>
      </trkpt>
      <trkpt lat="46.55955" lon="6.07942">
        <ele>1125.9</ele>
        <time>2021-08-18T11:15:08Z</time>
      </trkpt>
      <trkpt lat="46.55953" lon="6.07947">
        <ele>1126.4</ele>
        <time>2021-08-18T11:15:10Z</time>
      </trkpt>
      <trkpt lat="46.55949" lon="6.07946">
        <ele>1126.7</ele>
        <time>2021-08-18T11:15:12Z</time>
      </trkpt>
      <trkpt lat="46.55941" lon="6.07943">
        <ele>1127.6</ele>
        <time>2021-08-18T11:15:14Z</time>
      </trkpt>
      <trkpt lat="46.55938" lon="6.07943">
        <ele>1127.9</ele>
        <time>2021-08-18T11:15:15Z</time>
      </trkpt>
      <trkpt lat="46.55934" lon="6.07942">
        <ele>1128</ele>
        <time>2021-08-18T11:15:16Z</time>
      </trkpt>
      <trkpt lat="46.55931" lon="6.07941">
        <ele>1128.3</ele>
        <time>2021-08-18T11:15:17Z</time>
      </trkpt>
      <trkpt lat="46.55927" lon="6.07941">
        <ele>1128.5</ele>
        <time>2021-08-18T11:15:18Z</time>
      </trkpt>
      <trkpt lat="46.55925" lon="6.07942">
        <ele>1128.8</ele>
        <time>2021-08-18T11:15:20Z</time>
      </trkpt>
      <trkpt lat="46.55925" lon="6.07942">
        <ele>1128.9</ele>
        <time>2021-08-18T11:15:21Z</time>
      </trkpt>
      <trkpt lat="46.55925" lon="6.07942">
        <ele>1128.9</ele>
        <time>2021-08-18T11:15:22Z</time>
      </trkpt>
      <trkpt lat="46.55925" lon="6.07942">
        <ele>1129</ele>
        <time>2021-08-18T11:15:23Z</time>
      </trkpt>
      <trkpt lat="46.55924" lon="6.07942">
        <ele>1129</ele>
        <time>2021-08-18T11:15:24Z</time>
      </trkpt>
      <trkpt lat="46.55924" lon="6.07941">
        <ele>1129.3</ele>
        <time>2021-08-18T11:15:25Z</time>
      </trkpt>
      <trkpt lat="46.55924" lon="6.07941">
        <ele>1129.4</ele>
        <time>2021-08-18T11:15:26Z</time>
      </trkpt>
      <trkpt lat="46.55924" lon="6.07941">
        <ele>1129.5</ele>
        <time>2021-08-18T11:15:28Z</time>
      </trkpt>
      <trkpt lat="46.5589" lon="6.07924">
        <ele>1129.9</ele>
        <time>2021-08-18T11:16:22Z</time>
      </trkpt>
      <trkpt lat="46.55888" lon="6.07921">
        <ele>1129.7</ele>
        <time>2021-08-18T11:16:23Z</time>
      </trkpt>
      <trkpt lat="46.55888" lon="6.07919">
        <ele>1129.7</ele>
        <time>2021-08-18T11:16:24Z</time>
      </trkpt>
      <trkpt lat="46.55888" lon="6.07913">
        <ele>1128.7</ele>
        <time>2021-08-18T11:16:26Z</time>
      </trkpt>
      <trkpt lat="46.55887" lon="6.0791">
        <ele>1128.8</ele>
        <time>2021-08-18T11:16:27Z</time>
      </trkpt>
      <trkpt lat="46.55886" lon="6.07909">
        <ele>1128.8</ele>
        <time>2021-08-18T11:16:28Z</time>
      </trkpt>
      <trkpt lat="46.55886" lon="6.07908">
        <ele>1128.8</ele>
        <time>2021-08-18T11:16:29Z</time>
      </trkpt>
      <trkpt lat="46.55884" lon="6.07906">
        <ele>1128.8</ele>
        <time>2021-08-18T11:16:31Z</time>
      </trkpt>
      <trkpt lat="46.55883" lon="6.07905">
        <ele>1128.9</ele>
        <time>2021-08-18T11:16:32Z</time>
      </trkpt>
      <trkpt lat="46.55883" lon="6.07904">
        <ele>1128.7</ele>
        <time>2021-08-18T11:16:33Z</time>
      </trkpt>
      <trkpt lat="46.55882" lon="6.07903">
        <ele>1128.7</ele>
        <time>2021-08-18T11:16:34Z</time>
      </trkpt>
      <trkpt lat="46.55882" lon="6.07903">
        <ele>1128.8</ele>
        <time>2021-08-18T11:16:36Z</time>
      </trkpt>
      <trkpt lat="46.55881" lon="6.07902">
        <ele>1128.8</ele>
        <time>2021-08-18T11:16:37Z</time>
      </trkpt>
      <trkpt lat="46.55881" lon="6.07902">
        <ele>1128.9</ele>
        <time>2021-08-18T11:16:39Z</time>
      </trkpt>
      <trkpt lat="46.55832" lon="6.07892">
        <ele>1134.5</ele>
        <time>2021-08-18T11:18:31Z</time>
      </trkpt>
      <trkpt lat="46.55828" lon="6.07889">
        <ele>1134.4</ele>
        <time>2021-08-18T11:18:33Z</time>
      </trkpt>
      <trkpt lat="46.55824" lon="6.07887">
        <ele>1134.2</ele>
        <time>2021-08-18T11:18:34Z</time>
      </trkpt>
      <trkpt lat="46.55817" lon="6.07883">
        <ele>1134.9</ele>
        <time>2021-08-18T11:18:36Z</time>
      </trkpt>
      <trkpt lat="46.5581" lon="6.07879">
        <ele>1135.7</ele>
        <time>2021-08-18T11:18:38Z</time>
      </trkpt>
      <trkpt lat="46.55805" lon="6.07877">
        <ele>1136.1</ele>
        <time>2021-08-18T11:18:39Z</time>
      </trkpt>
      <trkpt lat="46.55802" lon="6.07876">
        <ele>1136.6</ele>
        <time>2021-08-18T11:18:41Z</time>
      </trkpt>
      <trkpt lat="46.55799" lon="6.07874">
        <ele>1136.7</ele>
        <time>2021-08-18T11:18:42Z</time>
      </trkpt>
      <trkpt lat="46.55796" lon="6.07873">
        <ele>1137.1</ele>
        <time>2021-08-18T11:18:43Z</time>
      </trkpt>
      <trkpt lat="46.55795" lon="6.07872">
        <ele>1137.6</ele>
        <time>2021-08-18T11:18:44Z</time>
      </trkpt>
      <trkpt lat="46.55792" lon="6.07871">
        <ele>1137.6</ele>
        <time>2021-08-18T11:18:45Z</time>
      </trkpt>
      <trkpt lat="46.55788" lon="6.0787">
        <ele>1138.1</ele>
        <time>2021-08-18T11:18:47Z</time>
      </trkpt>
      <trkpt lat="46.55785" lon="6.07869">
        <ele>1138.6</ele>
        <time>2021-08-18T11:18:48Z</time>
      </trkpt>
      <trkpt lat="46.55779" lon="6.07868">
        <ele>1139.7</ele>
        <time>2021-08-18T11:18:50Z</time>
      </trkpt>
      <trkpt lat="46.55771" lon="6.07863">
        <ele>1140.5</ele>
        <time>2021-08-18T11:18:52Z</time>
      </trkpt>
      <trkpt lat="46.55767" lon="6.07862">
        <ele>1141.4</ele>
        <time>2021-08-18T11:18:53Z</time>
      </trkpt>
      <trkpt lat="46.55761" lon="6.07856">
        <ele>1141.8</ele>
        <time>2021-08-18T11:18:55Z</time>
      </trkpt>
      <trkpt lat="46.55755" lon="6.07855">
        <ele>1142.8</ele>
        <time>2021-08-18T11:18:56Z</time>
      </trkpt>
      <trkpt lat="46.55749" lon="6.07853">
        <ele>1143.4</ele>
        <time>2021-08-18T11:18:57Z</time>
      </trkpt>
      <trkpt lat="46.55743" lon="6.07852">
        <ele>1144.3</ele>
        <time>2021-08-18T11:18:59Z</time>
      </trkpt>
      <trkpt lat="46.5574" lon="6.07851">
        <ele>1144.8</ele>
        <time>2021-08-18T11:19:00Z</time>
      </trkpt>
      <trkpt lat="46.55735" lon="6.07849">
        <ele>1145.6</ele>
        <time>2021-08-18T11:19:01Z</time>
      </trkpt>
      <trkpt lat="46.55731" lon="6.07847">
        <ele>1145.7</ele>
        <time>2021-08-18T11:19:02Z</time>
      </trkpt>
      <trkpt lat="46.55728" lon="6.07845">
        <ele>1146.2</ele>
        <time>2021-08-18T11:19:03Z</time>
      </trkpt>
      <trkpt lat="46.55723" lon="6.0784">
        <ele>1146.4</ele>
        <time>2021-08-18T11:19:05Z</time>
      </trkpt>
      <trkpt lat="46.5572" lon="6.07834">
        <ele>1146.5</ele>
        <time>2021-08-18T11:19:07Z</time>
      </trkpt>
      <trkpt lat="46.55717" lon="6.07831">
        <ele>1146.6</ele>
        <time>2021-08-18T11:19:08Z</time>
      </trkpt>
      <trkpt lat="46.55715" lon="6.07827">
        <ele>1146.3</ele>
        <time>2021-08-18T11:19:09Z</time>
      </trkpt>
      <trkpt lat="46.55713" lon="6.07822">
        <ele>1146.5</ele>
        <time>2021-08-18T11:19:10Z</time>
      </trkpt>
      <trkpt lat="46.55712" lon="6.07821">
        <ele>1146.5</ele>
        <time>2021-08-18T11:19:11Z</time>
      </trkpt>
      <trkpt lat="46.55711" lon="6.07817">
        <ele>1146.7</ele>
        <time>2021-08-18T11:19:12Z</time>
      </trkpt>
      <trkpt lat="46.55711" lon="6.07815">
        <ele>1146.8</ele>
        <time>2021-08-18T11:19:13Z</time>
      </trkpt>
      <trkpt lat="46.55709" lon="6.07811">
        <ele>1146.5</ele>
        <time>2021-08-18T11:19:14Z</time>
      </trkpt>
      <trkpt lat="46.55709" lon="6.07809">
        <ele>1146.7</ele>
        <time>2021-08-18T11:19:15Z</time>
      </trkpt>
      <trkpt lat="46.55707" lon="6.07805">
        <ele>1146.4</ele>
        <time>2021-08-18T11:19:17Z</time>
      </trkpt>
      <trkpt lat="46.55707" lon="6.07803">
        <ele>1146.5</ele>
        <time>2021-08-18T11:19:18Z</time>
      </trkpt>
      <trkpt lat="46.55705" lon="6.078">
        <ele>1146.5</ele>
        <time>2021-08-18T11:19:19Z</time>
      </trkpt>
      <trkpt lat="46.55704" lon="6.07799">
        <ele>1146.5</ele>
        <time>2021-08-18T11:19:20Z</time>
      </trkpt>
      <trkpt lat="46.55701" lon="6.07794">
        <ele>1146.5</ele>
        <time>2021-08-18T11:19:21Z</time>
      </trkpt>
      <trkpt lat="46.557" lon="6.07791">
        <ele>1146.1</ele>
        <time>2021-08-18T11:19:23Z</time>
      </trkpt>
      <trkpt lat="46.55699" lon="6.07786">
        <ele>1145.9</ele>
        <time>2021-08-18T11:19:24Z</time>
      </trkpt>
      <trkpt lat="46.55697" lon="6.07782">
        <ele>1145.4</ele>
        <time>2021-08-18T11:19:26Z</time>
      </trkpt>
      <trkpt lat="46.55696" lon="6.07778">
        <ele>1145.2</ele>
        <time>2021-08-18T11:19:27Z</time>
      </trkpt>
      <trkpt lat="46.55695" lon="6.07777">
        <ele>1145.3</ele>
        <time>2021-08-18T11:19:28Z</time>
      </trkpt>
      <trkpt lat="46.55694" lon="6.07775">
        <ele>1145</ele>
        <time>2021-08-18T11:19:29Z</time>
      </trkpt>
      <trkpt lat="46.55691" lon="6.07772">
        <ele>1145.2</ele>
        <time>2021-08-18T11:19:31Z</time>
      </trkpt>
      <trkpt lat="46.5569" lon="6.07767">
        <ele>1144.7</ele>
        <time>2021-08-18T11:19:33Z</time>
      </trkpt>
      <trkpt lat="46.55688" lon="6.07763">
        <ele>1144.3</ele>
        <time>2021-08-18T11:19:34Z</time>
      </trkpt>
      <trkpt lat="46.55686" lon="6.0776">
        <ele>1143.8</ele>
        <time>2021-08-18T11:19:36Z</time>
      </trkpt>
      <trkpt lat="46.55686" lon="6.07759">
        <ele>1143.8</ele>
        <time>2021-08-18T11:19:37Z</time>
      </trkpt>
      <trkpt lat="46.55685" lon="6.07755">
        <ele>1143.3</ele>
        <time>2021-08-18T11:19:39Z</time>
      </trkpt>
      <trkpt lat="46.55685" lon="6.07753">
        <ele>1142.8</ele>
        <time>2021-08-18T11:19:40Z</time>
      </trkpt>
      <trkpt lat="46.55685" lon="6.07751">
        <ele>1142.8</ele>
        <time>2021-08-18T11:19:41Z</time>
      </trkpt>
      <trkpt lat="46.55685" lon="6.07748">
        <ele>1142.3</ele>
        <time>2021-08-18T11:19:43Z</time>
      </trkpt>
      <trkpt lat="46.55683" lon="6.07747">
        <ele>1142.3</ele>
        <time>2021-08-18T11:19:44Z</time>
      </trkpt>
      <trkpt lat="46.55681" lon="6.07746">
        <ele>1142.4</ele>
        <time>2021-08-18T11:19:45Z</time>
      </trkpt>
      <trkpt lat="46.55679" lon="6.07746">
        <ele>1141.9</ele>
        <time>2021-08-18T11:19:46Z</time>
      </trkpt>
      <trkpt lat="46.55676" lon="6.07744">
        <ele>1142.1</ele>
        <time>2021-08-18T11:19:48Z</time>
      </trkpt>
      <trkpt lat="46.55674" lon="6.07743">
        <ele>1142.1</ele>
        <time>2021-08-18T11:19:49Z</time>
      </trkpt>
      <trkpt lat="46.55673" lon="6.07743">
        <ele>1142.3</ele>
        <time>2021-08-18T11:19:50Z</time>
      </trkpt>
      <trkpt lat="46.55673" lon="6.07742">
        <ele>1142.3</ele>
        <time>2021-08-18T11:19:51Z</time>
      </trkpt>
      <trkpt lat="46.55671" lon="6.07741">
        <ele>1141.8</ele>
        <time>2021-08-18T11:19:53Z</time>
      </trkpt>
      <trkpt lat="46.5567" lon="6.07741">
        <ele>1142</ele>
        <time>2021-08-18T11:19:54Z</time>
      </trkpt>
      <trkpt lat="46.55669" lon="6.0774">
        <ele>1142.1</ele>
        <time>2021-08-18T11:19:55Z</time>
      </trkpt>
      <trkpt lat="46.55667" lon="6.07739">
        <ele>1142.3</ele>
        <time>2021-08-18T11:19:57Z</time>
      </trkpt>
      <trkpt lat="46.55663" lon="6.07738">
        <ele>1142.5</ele>
        <time>2021-08-18T11:19:59Z</time>
      </trkpt>
      <trkpt lat="46.55659" lon="6.07736">
        <ele>1142.3</ele>
        <time>2021-08-18T11:20:00Z</time>
      </trkpt>
      <trkpt lat="46.55658" lon="6.07736">
        <ele>1142.5</ele>
        <time>2021-08-18T11:20:01Z</time>
      </trkpt>
      <trkpt lat="46.55655" lon="6.07734">
        <ele>1142.7</ele>
        <time>2021-08-18T11:20:02Z</time>
      </trkpt>
      <trkpt lat="46.55651" lon="6.07732">
        <ele>1142.6</ele>
        <time>2021-08-18T11:20:04Z</time>
      </trkpt>
      <trkpt lat="46.5565" lon="6.07731">
        <ele>1142.9</ele>
        <time>2021-08-18T11:20:05Z</time>
      </trkpt>
      <trkpt lat="46.55648" lon="6.0773">
        <ele>1142.9</ele>
        <time>2021-08-18T11:20:06Z</time>
      </trkpt>
      <trkpt lat="46.55645" lon="6.07728">
        <ele>1142.9</ele>
        <time>2021-08-18T11:20:08Z</time>
      </trkpt>
      <trkpt lat="46.55644" lon="6.07727">
        <ele>1143.3</ele>
        <time>2021-08-18T11:20:09Z</time>
      </trkpt>
      <trkpt lat="46.5564" lon="6.07726">
        <ele>1143.8</ele>
        <time>2021-08-18T11:20:11Z</time>
      </trkpt>
      <trkpt lat="46.55639" lon="6.07726">
        <ele>1143.8</ele>
        <time>2021-08-18T11:20:12Z</time>
      </trkpt>
      <trkpt lat="46.55638" lon="6.07727">
        <ele>1143.9</ele>
        <time>2021-08-18T11:20:13Z</time>
      </trkpt>
      <trkpt lat="46.55638" lon="6.07728">
        <ele>1144.4</ele>
        <time>2021-08-18T11:20:15Z</time>
      </trkpt>
      <trkpt lat="46.55638" lon="6.07729">
        <ele>1144.7</ele>
        <time>2021-08-18T11:20:16Z</time>
      </trkpt>
      <trkpt lat="46.55633" lon="6.07734">
        <ele>1145.5</ele>
        <time>2021-08-18T11:20:17Z</time>
      </trkpt>
      <trkpt lat="46.55629" lon="6.07739">
        <ele>1146.7</ele>
        <time>2021-08-18T11:20:19Z</time>
      </trkpt>
      <trkpt lat="46.55624" lon="6.07744">
        <ele>1147.5</ele>
        <time>2021-08-18T11:20:20Z</time>
      </trkpt>
      <trkpt lat="46.5562" lon="6.07748">
        <ele>1148.8</ele>
        <time>2021-08-18T11:20:21Z</time>
      </trkpt>
      <trkpt lat="46.55615" lon="6.07753">
        <ele>1149.6</ele>
        <time>2021-08-18T11:20:23Z</time>
      </trkpt>
      <trkpt lat="46.55611" lon="6.07758">
        <ele>1151</ele>
        <time>2021-08-18T11:20:57Z</time>
      </trkpt>
      <trkpt lat="46.55606" lon="6.07762">
        <ele>1151.7</ele>
        <time>2021-08-18T11:20:59Z</time>
      </trkpt>
      <trkpt lat="46.55602" lon="6.07767">
        <ele>1152.8</ele>
        <time>2021-08-18T11:21:00Z</time>
      </trkpt>
      <trkpt lat="46.55601" lon="6.07767">
        <ele>1152.9</ele>
        <time>2021-08-18T11:21:02Z</time>
      </trkpt>
      <trkpt lat="46.556" lon="6.07767">
        <ele>1152.9</ele>
        <time>2021-08-18T11:21:03Z</time>
      </trkpt>
      <trkpt lat="46.55599" lon="6.07765">
        <ele>1153.4</ele>
        <time>2021-08-18T11:21:04Z</time>
      </trkpt>
      <trkpt lat="46.55596" lon="6.07763">
        <ele>1153.9</ele>
        <time>2021-08-18T11:21:05Z</time>
      </trkpt>
      <trkpt lat="46.55595" lon="6.07761">
        <ele>1154</ele>
        <time>2021-08-18T11:21:06Z</time>
      </trkpt>
      <trkpt lat="46.55594" lon="6.07758">
        <ele>1154</ele>
        <time>2021-08-18T11:21:08Z</time>
      </trkpt>
      <trkpt lat="46.55592" lon="6.07754">
        <ele>1154.4</ele>
        <time>2021-08-18T11:21:10Z</time>
      </trkpt>
      <trkpt lat="46.55591" lon="6.07752">
        <ele>1155</ele>
        <time>2021-08-18T11:21:11Z</time>
      </trkpt>
      <trkpt lat="46.5559" lon="6.0775">
        <ele>1155.1</ele>
        <time>2021-08-18T11:21:12Z</time>
      </trkpt>
      <trkpt lat="46.55589" lon="6.07749">
        <ele>1155</ele>
        <time>2021-08-18T11:21:13Z</time>
      </trkpt>
      <trkpt lat="46.55588" lon="6.07746">
        <ele>1155.6</ele>
        <time>2021-08-18T11:21:15Z</time>
      </trkpt>
      <trkpt lat="46.55587" lon="6.07745">
        <ele>1155.6</ele>
        <time>2021-08-18T11:21:16Z</time>
      </trkpt>
      <trkpt lat="46.55585" lon="6.07742">
        <ele>1156.2</ele>
        <time>2021-08-18T11:21:18Z</time>
      </trkpt>
      <trkpt lat="46.55584" lon="6.07741">
        <ele>1156.2</ele>
        <time>2021-08-18T11:21:19Z</time>
      </trkpt>
      <trkpt lat="46.55583" lon="6.0774">
        <ele>1156.2</ele>
        <time>2021-08-18T11:21:20Z</time>
      </trkpt>
      <trkpt lat="46.55581" lon="6.07737">
        <ele>1156.8</ele>
        <time>2021-08-18T11:21:22Z</time>
      </trkpt>
      <trkpt lat="46.55578" lon="6.07735">
        <ele>1157.3</ele>
        <time>2021-08-18T11:21:23Z</time>
      </trkpt>
      <trkpt lat="46.55577" lon="6.07734">
        <ele>1157.4</ele>
        <time>2021-08-18T11:21:24Z</time>
      </trkpt>
      <trkpt lat="46.55575" lon="6.07732">
        <ele>1157.9</ele>
        <time>2021-08-18T11:21:26Z</time>
      </trkpt>
      <trkpt lat="46.55574" lon="6.0773">
        <ele>1157.9</ele>
        <time>2021-08-18T11:21:27Z</time>
      </trkpt>
      <trkpt lat="46.55573" lon="6.07728">
        <ele>1158.3</ele>
        <time>2021-08-18T11:21:29Z</time>
      </trkpt>
      <trkpt lat="46.55572" lon="6.07727">
        <ele>1158.4</ele>
        <time>2021-08-18T11:21:30Z</time>
      </trkpt>
      <trkpt lat="46.55571" lon="6.07724">
        <ele>1158.3</ele>
        <time>2021-08-18T11:21:32Z</time>
      </trkpt>
      <trkpt lat="46.5557" lon="6.07713">
        <ele>1158.4</ele>
        <time>2021-08-18T11:21:56Z</time>
      </trkpt>
      <trkpt lat="46.55572" lon="6.0772">
        <ele>1158.2</ele>
        <time>2021-08-18T11:21:58Z</time>
      </trkpt>
      <trkpt lat="46.55572" lon="6.07725">
        <ele>1158.6</ele>
        <time>2021-08-18T11:21:59Z</time>
      </trkpt>
      <trkpt lat="46.55573" lon="6.07735">
        <ele>1158.9</ele>
        <time>2021-08-18T11:22:00Z</time>
      </trkpt>
      <trkpt lat="46.55572" lon="6.07741">
        <ele>1159</ele>
        <time>2021-08-18T11:22:02Z</time>
      </trkpt>
      <trkpt lat="46.55573" lon="6.07747">
        <ele>1159.3</ele>
        <time>2021-08-18T11:22:03Z</time>
      </trkpt>
      <trkpt lat="46.55573" lon="6.07749">
        <ele>1158.9</ele>
        <time>2021-08-18T11:22:04Z</time>
      </trkpt>
      <trkpt lat="46.55575" lon="6.07751">
        <ele>1159</ele>
        <time>2021-08-18T11:22:06Z</time>
      </trkpt>
      <trkpt lat="46.55575" lon="6.07755">
        <ele>1159</ele>
        <time>2021-08-18T11:22:08Z</time>
      </trkpt>
      <trkpt lat="46.55575" lon="6.07759">
        <ele>1159</ele>
        <time>2021-08-18T11:22:09Z</time>
      </trkpt>
      <trkpt lat="46.55575" lon="6.07766">
        <ele>1159</ele>
        <time>2021-08-18T11:22:11Z</time>
      </trkpt>
      <trkpt lat="46.55576" lon="6.07773">
        <ele>1158.6</ele>
        <time>2021-08-18T11:22:12Z</time>
      </trkpt>
      <trkpt lat="46.5558" lon="6.07779">
        <ele>1157.7</ele>
        <time>2021-08-18T11:22:13Z</time>
      </trkpt>
      <trkpt lat="46.55581" lon="6.07782">
        <ele>1157.5</ele>
        <time>2021-08-18T11:22:14Z</time>
      </trkpt>
      <trkpt lat="46.55586" lon="6.07786">
        <ele>1156.7</ele>
        <time>2021-08-18T11:22:16Z</time>
      </trkpt>
      <trkpt lat="46.5559" lon="6.07785">
        <ele>1156.5</ele>
        <time>2021-08-18T11:22:18Z</time>
      </trkpt>
      <trkpt lat="46.55592" lon="6.07781">
        <ele>1156.4</ele>
        <time>2021-08-18T11:22:19Z</time>
      </trkpt>
      <trkpt lat="46.55595" lon="6.07776">
        <ele>1156.1</ele>
        <time>2021-08-18T11:22:20Z</time>
      </trkpt>
      <trkpt lat="46.55605" lon="6.07764">
        <ele>1154.8</ele>
        <time>2021-08-18T11:22:22Z</time>
      </trkpt>
      <trkpt lat="46.55612" lon="6.07758">
        <ele>1153.1</ele>
        <time>2021-08-18T11:22:23Z</time>
      </trkpt>
      <trkpt lat="46.5562" lon="6.07751">
        <ele>1151.9</ele>
        <time>2021-08-18T11:22:24Z</time>
      </trkpt>
      <trkpt lat="46.55633" lon="6.0774">
        <ele>1149</ele>
        <time>2021-08-18T11:22:26Z</time>
      </trkpt>
      <trkpt lat="46.55644" lon="6.07732">
        <ele>1147.2</ele>
        <time>2021-08-18T11:22:28Z</time>
      </trkpt>
      <trkpt lat="46.55649" lon="6.07729">
        <ele>1146.6</ele>
        <time>2021-08-18T11:22:29Z</time>
      </trkpt>
      <trkpt lat="46.55661" lon="6.07731">
        <ele>1145.9</ele>
        <time>2021-08-18T11:22:31Z</time>
      </trkpt>
      <trkpt lat="46.55669" lon="6.07737">
        <ele>1145.9</ele>
        <time>2021-08-18T11:22:32Z</time>
      </trkpt>
      <trkpt lat="46.55687" lon="6.07754">
        <ele>1147.8</ele>
        <time>2021-08-18T11:22:34Z</time>
      </trkpt>
      <trkpt lat="46.55695" lon="6.0776">
        <ele>1148.6</ele>
        <time>2021-08-18T11:22:35Z</time>
      </trkpt>
      <trkpt lat="46.557" lon="6.07766">
        <ele>1148.6</ele>
        <time>2021-08-18T11:22:36Z</time>
      </trkpt>
      <trkpt lat="46.55706" lon="6.07774">
        <ele>1149.5</ele>
        <time>2021-08-18T11:22:38Z</time>
      </trkpt>
      <trkpt lat="46.55706" lon="6.07775">
        <ele>1149.6</ele>
        <time>2021-08-18T11:22:40Z</time>
      </trkpt>
      <trkpt lat="46.55705" lon="6.07777">
        <ele>1150.2</ele>
        <time>2021-08-18T11:22:42Z</time>
      </trkpt>
      <trkpt lat="46.55704" lon="6.0778">
        <ele>1150.9</ele>
        <time>2021-08-18T11:22:44Z</time>
      </trkpt>
      <trkpt lat="46.55703" lon="6.07787">
        <ele>1151.8</ele>
        <time>2021-08-18T11:22:46Z</time>
      </trkpt>
      <trkpt lat="46.55702" lon="6.07792">
        <ele>1152.4</ele>
        <time>2021-08-18T11:22:47Z</time>
      </trkpt>
      <trkpt lat="46.55702" lon="6.07794">
        <ele>1152.9</ele>
        <time>2021-08-18T11:22:48Z</time>
      </trkpt>
      <trkpt lat="46.55702" lon="6.07798">
        <ele>1153.4</ele>
        <time>2021-08-18T11:22:50Z</time>
      </trkpt>
      <trkpt lat="46.55703" lon="6.07802">
        <ele>1153.9</ele>
        <time>2021-08-18T11:22:51Z</time>
      </trkpt>
      <trkpt lat="46.55703" lon="6.07803">
        <ele>1153.9</ele>
        <time>2021-08-18T11:22:53Z</time>
      </trkpt>
      <trkpt lat="46.55704" lon="6.07803">
        <ele>1153.6</ele>
        <time>2021-08-18T11:22:54Z</time>
      </trkpt>
      <trkpt lat="46.55706" lon="6.07803">
        <ele>1153.7</ele>
        <time>2021-08-18T11:22:55Z</time>
      </trkpt>
      <trkpt lat="46.5571" lon="6.07802">
        <ele>1153</ele>
        <time>2021-08-18T11:22:57Z</time>
      </trkpt>
      <trkpt lat="46.55711" lon="6.07802">
        <ele>1153.1</ele>
        <time>2021-08-18T11:22:58Z</time>
      </trkpt>
      <trkpt lat="46.55712" lon="6.07802">
        <ele>1152.7</ele>
        <time>2021-08-18T11:22:59Z</time>
      </trkpt>
      <trkpt lat="46.55714" lon="6.07806">
        <ele>1153.1</ele>
        <time>2021-08-18T11:23:01Z</time>
      </trkpt>
      <trkpt lat="46.55716" lon="6.07814">
        <ele>1153</ele>
        <time>2021-08-18T11:23:03Z</time>
      </trkpt>
      <trkpt lat="46.55723" lon="6.07831">
        <ele>1153.4</ele>
        <time>2021-08-18T11:23:05Z</time>
      </trkpt>
      <trkpt lat="46.55726" lon="6.07839">
        <ele>1153.9</ele>
        <time>2021-08-18T11:23:06Z</time>
      </trkpt>
      <trkpt lat="46.55735" lon="6.07847">
        <ele>1153.5</ele>
        <time>2021-08-18T11:23:07Z</time>
      </trkpt>
      <trkpt lat="46.55742" lon="6.07852">
        <ele>1152.7</ele>
        <time>2021-08-18T11:23:08Z</time>
      </trkpt>
      <trkpt lat="46.55748" lon="6.07856">
        <ele>1152.2</ele>
        <time>2021-08-18T11:23:10Z</time>
      </trkpt>
      <trkpt lat="46.55758" lon="6.07858">
        <ele>1151.2</ele>
        <time>2021-08-18T11:23:12Z</time>
      </trkpt>
      <trkpt lat="46.55765" lon="6.07856">
        <ele>1150.1</ele>
        <time>2021-08-18T11:23:13Z</time>
      </trkpt>
      <trkpt lat="46.55771" lon="6.07856">
        <ele>1148.8</ele>
        <time>2021-08-18T11:23:14Z</time>
      </trkpt>
      <trkpt lat="46.55776" lon="6.07858">
        <ele>1148.7</ele>
        <time>2021-08-18T11:23:15Z</time>
      </trkpt>
      <trkpt lat="46.55782" lon="6.0786">
        <ele>1147.6</ele>
        <time>2021-08-18T11:23:16Z</time>
      </trkpt>
      <trkpt lat="46.55787" lon="6.0786">
        <ele>1146.6</ele>
        <time>2021-08-18T11:23:17Z</time>
      </trkpt>
      <trkpt lat="46.55792" lon="6.07863">
        <ele>1146.6</ele>
        <time>2021-08-18T11:23:19Z</time>
      </trkpt>
      <trkpt lat="46.55797" lon="6.07866">
        <ele>1145.9</ele>
        <time>2021-08-18T11:23:20Z</time>
      </trkpt>
      <trkpt lat="46.558" lon="6.07868">
        <ele>1145.9</ele>
        <time>2021-08-18T11:23:21Z</time>
      </trkpt>
      <trkpt lat="46.55805" lon="6.0787">
        <ele>1145.1</ele>
        <time>2021-08-18T11:23:23Z</time>
      </trkpt>
      <trkpt lat="46.55811" lon="6.07873">
        <ele>1144.7</ele>
        <time>2021-08-18T11:23:25Z</time>
      </trkpt>
      <trkpt lat="46.55816" lon="6.07877">
        <ele>1144.5</ele>
        <time>2021-08-18T11:23:27Z</time>
      </trkpt>
      <trkpt lat="46.55819" lon="6.07878">
        <ele>1144.1</ele>
        <time>2021-08-18T11:23:28Z</time>
      </trkpt>
      <trkpt lat="46.55823" lon="6.07881">
        <ele>1144.3</ele>
        <time>2021-08-18T11:23:30Z</time>
      </trkpt>
      <trkpt lat="46.55826" lon="6.07882">
        <ele>1144</ele>
        <time>2021-08-18T11:23:31Z</time>
      </trkpt>
      <trkpt lat="46.5583" lon="6.07885">
        <ele>1143.8</ele>
        <time>2021-08-18T11:23:33Z</time>
      </trkpt>
      <trkpt lat="46.55834" lon="6.07887">
        <ele>1143.4</ele>
        <time>2021-08-18T11:23:35Z</time>
      </trkpt>
      <trkpt lat="46.55836" lon="6.07888">
        <ele>1144.1</ele>
        <time>2021-08-18T11:23:36Z</time>
      </trkpt>
      <trkpt lat="46.55837" lon="6.07889">
        <ele>1143.7</ele>
        <time>2021-08-18T11:23:37Z</time>
      </trkpt>
      <trkpt lat="46.5584" lon="6.07891">
        <ele>1143.3</ele>
        <time>2021-08-18T11:23:39Z</time>
      </trkpt>
      <trkpt lat="46.55843" lon="6.07891">
        <ele>1142.9</ele>
        <time>2021-08-18T11:23:40Z</time>
      </trkpt>
      <trkpt lat="46.55846" lon="6.0789">
        <ele>1142.5</ele>
        <time>2021-08-18T11:23:42Z</time>
      </trkpt>
      <trkpt lat="46.55848" lon="6.07889">
        <ele>1142.2</ele>
        <time>2021-08-18T11:23:43Z</time>
      </trkpt>
      <trkpt lat="46.55852" lon="6.07889">
        <ele>1141.9</ele>
        <time>2021-08-18T11:23:45Z</time>
      </trkpt>
      <trkpt lat="46.55855" lon="6.07889">
        <ele>1141.5</ele>
        <time>2021-08-18T11:23:46Z</time>
      </trkpt>
      <trkpt lat="46.55857" lon="6.07889">
        <ele>1141.2</ele>
        <time>2021-08-18T11:23:47Z</time>
      </trkpt>
      <trkpt lat="46.55861" lon="6.0789">
        <ele>1140.8</ele>
        <time>2021-08-18T11:23:49Z</time>
      </trkpt>
      <trkpt lat="46.55866" lon="6.07891">
        <ele>1141.6</ele>
        <time>2021-08-18T11:23:51Z</time>
      </trkpt>
      <trkpt lat="46.55867" lon="6.07892">
        <ele>1141.8</ele>
        <time>2021-08-18T11:23:52Z</time>
      </trkpt>
      <trkpt lat="46.55867" lon="6.07892">
        <ele>1141.9</ele>
        <time>2021-08-18T11:23:53Z</time>
      </trkpt>
      <trkpt lat="46.55866" lon="6.07891">
        <ele>1142.1</ele>
        <time>2021-08-18T11:23:54Z</time>
      </trkpt>
      <trkpt lat="46.55866" lon="6.07891">
        <ele>1142.1</ele>
        <time>2021-08-18T11:23:56Z</time>
      </trkpt>
      <trkpt lat="46.55866" lon="6.07891">
        <ele>1142.2</ele>
        <time>2021-08-18T11:23:58Z</time>
      </trkpt>
      <trkpt lat="46.55866" lon="6.07891">
        <ele>1142.2</ele>
        <time>2021-08-18T11:24:00Z</time>
      </trkpt>
      <trkpt lat="46.55866" lon="6.07891">
        <ele>1142.2</ele>
        <time>2021-08-18T11:24:01Z</time>
      </trkpt>
      <trkpt lat="46.55866" lon="6.07891">
        <ele>1142.2</ele>
        <time>2021-08-18T11:24:03Z</time>
      </trkpt>
      <trkpt lat="46.55828" lon="6.08">
        <ele>1152.5</ele>
        <time>2021-08-18T11:27:01Z</time>
      </trkpt>
      <trkpt lat="46.55827" lon="6.08">
        <ele>1152.6</ele>
        <time>2021-08-18T11:27:02Z</time>
      </trkpt>
      <trkpt lat="46.55826" lon="6.08">
        <ele>1152.6</ele>
        <time>2021-08-18T11:27:03Z</time>
      </trkpt>
      <trkpt lat="46.55826" lon="6.08">
        <ele>1152.6</ele>
        <time>2021-08-18T11:27:04Z</time>
      </trkpt>
      <trkpt lat="46.55825" lon="6.08001">
        <ele>1152.7</ele>
        <time>2021-08-18T11:27:05Z</time>
      </trkpt>
      <trkpt lat="46.55825" lon="6.08001">
        <ele>1152.7</ele>
        <time>2021-08-18T11:27:06Z</time>
      </trkpt>
      <trkpt lat="46.55825" lon="6.08001">
        <ele>1152.7</ele>
        <time>2021-08-18T11:27:08Z</time>
      </trkpt>
      <trkpt lat="46.55825" lon="6.08001">
        <ele>1152.8</ele>
        <time>2021-08-18T11:27:09Z</time>
      </trkpt>
      <trkpt lat="46.55824" lon="6.08002">
        <ele>1152.8</ele>
        <time>2021-08-18T11:27:11Z</time>
      </trkpt>
      <trkpt lat="46.55823" lon="6.08002">
        <ele>1152.9</ele>
        <time>2021-08-18T11:27:12Z</time>
      </trkpt>
      <trkpt lat="46.55822" lon="6.08003">
        <ele>1153</ele>
        <time>2021-08-18T11:27:13Z</time>
      </trkpt>
      <trkpt lat="46.55821" lon="6.08004">
        <ele>1153.1</ele>
        <time>2021-08-18T11:27:15Z</time>
      </trkpt>
      <trkpt lat="46.5582" lon="6.08005">
        <ele>1153.1</ele>
        <time>2021-08-18T11:27:16Z</time>
      </trkpt>
      <trkpt lat="46.5582" lon="6.08006">
        <ele>1153.2</ele>
        <time>2021-08-18T11:27:17Z</time>
      </trkpt>
      <trkpt lat="46.55819" lon="6.08007">
        <ele>1153.2</ele>
        <time>2021-08-18T11:27:19Z</time>
      </trkpt>
      <trkpt lat="46.55819" lon="6.08007">
        <ele>1153.3</ele>
        <time>2021-08-18T11:27:21Z</time>
      </trkpt>
      <trkpt lat="46.55819" lon="6.08008">
        <ele>1153.3</ele>
        <time>2021-08-18T11:27:22Z</time>
      </trkpt>
      <trkpt lat="46.55819" lon="6.08008">
        <ele>1153.4</ele>
        <time>2021-08-18T11:27:23Z</time>
      </trkpt>
      <trkpt lat="46.55818" lon="6.08009">
        <ele>1153.4</ele>
        <time>2021-08-18T11:27:25Z</time>
      </trkpt>
      <trkpt lat="46.55818" lon="6.08009">
        <ele>1153.4</ele>
        <time>2021-08-18T11:27:26Z</time>
      </trkpt>
      <trkpt lat="46.55818" lon="6.08009">
        <ele>1153.4</ele>
        <time>2021-08-18T11:27:28Z</time>
      </trkpt>
      <trkpt lat="46.55818" lon="6.08009">
        <ele>1153.4</ele>
        <time>2021-08-18T11:27:29Z</time>
      </trkpt>
      <trkpt lat="46.55818" lon="6.08009">
        <ele>1153.4</ele>
        <time>2021-08-18T11:27:30Z</time>
      </trkpt>
      <trkpt lat="46.55818" lon="6.0801">
        <ele>1153.4</ele>
        <time>2021-08-18T11:27:32Z</time>
      </trkpt>
      <trkpt lat="46.55818" lon="6.08011">
        <ele>1153.5</ele>
        <time>2021-08-18T11:27:33Z</time>
      </trkpt>
      <trkpt lat="46.55818" lon="6.08014">
        <ele>1153.6</ele>
        <time>2021-08-18T11:27:34Z</time>
      </trkpt>
      <trkpt lat="46.55818" lon="6.08018">
        <ele>1153.8</ele>
        <time>2021-08-18T11:27:35Z</time>
      </trkpt>
      <trkpt lat="46.55817" lon="6.0802">
        <ele>1154</ele>
        <time>2021-08-18T11:27:37Z</time>
      </trkpt>
      <trkpt lat="46.55817" lon="6.08022">
        <ele>1154.1</ele>
        <time>2021-08-18T11:27:38Z</time>
      </trkpt>
      <trkpt lat="46.55816" lon="6.08024">
        <ele>1154.2</ele>
        <time>2021-08-18T11:27:40Z</time>
      </trkpt>
      <trkpt lat="46.55816" lon="6.08026">
        <ele>1154.3</ele>
        <time>2021-08-18T11:27:41Z</time>
      </trkpt>
      <trkpt lat="46.55815" lon="6.08028">
        <ele>1154.4</ele>
        <time>2021-08-18T11:27:42Z</time>
      </trkpt>
      <trkpt lat="46.55815" lon="6.08033">
        <ele>1154.7</ele>
        <time>2021-08-18T11:27:44Z</time>
      </trkpt>
      <trkpt lat="46.55815" lon="6.08034">
        <ele>1154.7</ele>
        <time>2021-08-18T11:27:45Z</time>
      </trkpt>
      <trkpt lat="46.55815" lon="6.08035">
        <ele>1154.8</ele>
        <time>2021-08-18T11:27:47Z</time>
      </trkpt>
      <trkpt lat="46.55815" lon="6.08036">
        <ele>1154.8</ele>
        <time>2021-08-18T11:27:48Z</time>
      </trkpt>
      <trkpt lat="46.55814" lon="6.08036">
        <ele>1154.8</ele>
        <time>2021-08-18T11:27:50Z</time>
      </trkpt>
      <trkpt lat="46.55814" lon="6.08037">
        <ele>1154.9</ele>
        <time>2021-08-18T11:27:51Z</time>
      </trkpt>
      <trkpt lat="46.55814" lon="6.08037">
        <ele>1154.9</ele>
        <time>2021-08-18T11:27:53Z</time>
      </trkpt>
      <trkpt lat="46.55814" lon="6.08037">
        <ele>1154.9</ele>
        <time>2021-08-18T11:27:54Z</time>
      </trkpt>
      <trkpt lat="46.55814" lon="6.08038">
        <ele>1154.9</ele>
        <time>2021-08-18T11:27:56Z</time>
      </trkpt>
      <trkpt lat="46.55814" lon="6.08038">
        <ele>1154.9</ele>
        <time>2021-08-18T11:27:57Z</time>
      </trkpt>
      <trkpt lat="46.55814" lon="6.08038">
        <ele>1154.9</ele>
        <time>2021-08-18T11:27:58Z</time>
      </trkpt>
      <trkpt lat="46.55814" lon="6.08038">
        <ele>1154.9</ele>
        <time>2021-08-18T11:28:00Z</time>
      </trkpt>
      <trkpt lat="46.55814" lon="6.08038">
        <ele>1154.9</ele>
        <time>2021-08-18T11:28:01Z</time>
      </trkpt>
      <trkpt lat="46.55814" lon="6.08038">
        <ele>1154.9</ele>
        <time>2021-08-18T11:28:02Z</time>
      </trkpt>
      <trkpt lat="46.55814" lon="6.08038">
        <ele>1155</ele>
        <time>2021-08-18T11:28:04Z</time>
      </trkpt>
      <trkpt lat="46.55814" lon="6.08038">
        <ele>1155</ele>
        <time>2021-08-18T11:28:05Z</time>
      </trkpt>
      <trkpt lat="46.55814" lon="6.08038">
        <ele>1155</ele>
        <time>2021-08-18T11:28:06Z</time>
      </trkpt>
      <trkpt lat="46.55814" lon="6.08038">
        <ele>1155</ele>
        <time>2021-08-18T11:28:07Z</time>
      </trkpt>
      <trkpt lat="46.55814" lon="6.08038">
        <ele>1155</ele>
        <time>2021-08-18T11:28:09Z</time>
      </trkpt>
      <trkpt lat="46.55814" lon="6.08039">
        <ele>1155</ele>
        <time>2021-08-18T11:28:10Z</time>
      </trkpt>
      <trkpt lat="46.55813" lon="6.08042">
        <ele>1155.2</ele>
        <time>2021-08-18T11:28:11Z</time>
      </trkpt>
      <trkpt lat="46.55812" lon="6.08046">
        <ele>1155.4</ele>
        <time>2021-08-18T11:28:13Z</time>
      </trkpt>
      <trkpt lat="46.55811" lon="6.0805">
        <ele>1155.7</ele>
        <time>2021-08-18T11:28:14Z</time>
      </trkpt>
      <trkpt lat="46.55811" lon="6.08055">
        <ele>1155.9</ele>
        <time>2021-08-18T11:28:16Z</time>
      </trkpt>
      <trkpt lat="46.55811" lon="6.08058">
        <ele>1156.1</ele>
        <time>2021-08-18T11:28:17Z</time>
      </trkpt>
      <trkpt lat="46.55811" lon="6.0806">
        <ele>1156.2</ele>
        <time>2021-08-18T11:28:18Z</time>
      </trkpt>
      <trkpt lat="46.5581" lon="6.08063">
        <ele>1156.3</ele>
        <time>2021-08-18T11:28:20Z</time>
      </trkpt>
      <trkpt lat="46.5581" lon="6.08065">
        <ele>1156.4</ele>
        <time>2021-08-18T11:28:22Z</time>
      </trkpt>
      <trkpt lat="46.5581" lon="6.08066">
        <ele>1156.5</ele>
        <time>2021-08-18T11:28:23Z</time>
      </trkpt>
      <trkpt lat="46.5581" lon="6.08066">
        <ele>1156.5</ele>
        <time>2021-08-18T11:28:24Z</time>
      </trkpt>
      <trkpt lat="46.55809" lon="6.08067">
        <ele>1156.6</ele>
        <time>2021-08-18T11:28:25Z</time>
      </trkpt>
      <trkpt lat="46.55809" lon="6.0807">
        <ele>1156.7</ele>
        <time>2021-08-18T11:28:27Z</time>
      </trkpt>
      <trkpt lat="46.5581" lon="6.08075">
        <ele>1157</ele>
        <time>2021-08-18T11:28:28Z</time>
      </trkpt>
      <trkpt lat="46.5581" lon="6.08079">
        <ele>1157.2</ele>
        <time>2021-08-18T11:28:30Z</time>
      </trkpt>
      <trkpt lat="46.55811" lon="6.0808">
        <ele>1157.2</ele>
        <time>2021-08-18T11:28:31Z</time>
      </trkpt>
      <trkpt lat="46.55811" lon="6.08082">
        <ele>1157.3</ele>
        <time>2021-08-18T11:28:32Z</time>
      </trkpt>
      <trkpt lat="46.55811" lon="6.08082">
        <ele>1157.4</ele>
        <time>2021-08-18T11:28:33Z</time>
      </trkpt>
      <trkpt lat="46.55811" lon="6.08083">
        <ele>1157.4</ele>
        <time>2021-08-18T11:28:35Z</time>
      </trkpt>
      <trkpt lat="46.55811" lon="6.08084">
        <ele>1157.4</ele>
        <time>2021-08-18T11:28:36Z</time>
      </trkpt>
      <trkpt lat="46.55812" lon="6.08084">
        <ele>1157.4</ele>
        <time>2021-08-18T11:28:38Z</time>
      </trkpt>
      <trkpt lat="46.55812" lon="6.08085">
        <ele>1157.5</ele>
        <time>2021-08-18T11:28:39Z</time>
      </trkpt>
      <trkpt lat="46.55812" lon="6.08085">
        <ele>1157.5</ele>
        <time>2021-08-18T11:28:41Z</time>
      </trkpt>
      <trkpt lat="46.55812" lon="6.08088">
        <ele>1157.6</ele>
        <time>2021-08-18T11:28:42Z</time>
      </trkpt>
      <trkpt lat="46.55812" lon="6.0809">
        <ele>1157.7</ele>
        <time>2021-08-18T11:28:44Z</time>
      </trkpt>
      <trkpt lat="46.55812" lon="6.08096">
        <ele>1157.9</ele>
        <time>2021-08-18T11:28:46Z</time>
      </trkpt>
      <trkpt lat="46.55812" lon="6.081">
        <ele>1158.1</ele>
        <time>2021-08-18T11:28:48Z</time>
      </trkpt>
      <trkpt lat="46.55812" lon="6.08101">
        <ele>1158.1</ele>
        <time>2021-08-18T11:28:49Z</time>
      </trkpt>
      <trkpt lat="46.55811" lon="6.08104">
        <ele>1158.2</ele>
        <time>2021-08-18T11:28:51Z</time>
      </trkpt>
      <trkpt lat="46.5581" lon="6.08105">
        <ele>1158.3</ele>
        <time>2021-08-18T11:28:52Z</time>
      </trkpt>
      <trkpt lat="46.5581" lon="6.08106">
        <ele>1158.3</ele>
        <time>2021-08-18T11:28:53Z</time>
      </trkpt>
      <trkpt lat="46.55805" lon="6.08111">
        <ele>1158.6</ele>
        <time>2021-08-18T11:28:55Z</time>
      </trkpt>
      <trkpt lat="46.55803" lon="6.08114">
        <ele>1158.7</ele>
        <time>2021-08-18T11:28:56Z</time>
      </trkpt>
      <trkpt lat="46.55801" lon="6.08117">
        <ele>1158.8</ele>
        <time>2021-08-18T11:28:57Z</time>
      </trkpt>
      <trkpt lat="46.55792" lon="6.08129">
        <ele>1159.2</ele>
        <time>2021-08-18T11:28:59Z</time>
      </trkpt>
      <trkpt lat="46.55786" lon="6.08136">
        <ele>1159.5</ele>
        <time>2021-08-18T11:29:01Z</time>
      </trkpt>
      <trkpt lat="46.55782" lon="6.0814">
        <ele>1159.7</ele>
        <time>2021-08-18T11:29:02Z</time>
      </trkpt>
      <trkpt lat="46.55777" lon="6.08145">
        <ele>1160</ele>
        <time>2021-08-18T11:29:04Z</time>
      </trkpt>
      <trkpt lat="46.55775" lon="6.08147">
        <ele>1160.2</ele>
        <time>2021-08-18T11:29:05Z</time>
      </trkpt>
      <trkpt lat="46.55774" lon="6.08147">
        <ele>1160.2</ele>
        <time>2021-08-18T11:29:07Z</time>
      </trkpt>
      <trkpt lat="46.55774" lon="6.08147">
        <ele>1160.2</ele>
        <time>2021-08-18T11:29:08Z</time>
      </trkpt>
      <trkpt lat="46.55774" lon="6.08148">
        <ele>1160.3</ele>
        <time>2021-08-18T11:29:10Z</time>
      </trkpt>
      <trkpt lat="46.55773" lon="6.08148">
        <ele>1160.3</ele>
        <time>2021-08-18T11:29:11Z</time>
      </trkpt>
      <trkpt lat="46.55773" lon="6.08148">
        <ele>1160.3</ele>
        <time>2021-08-18T11:29:12Z</time>
      </trkpt>
      <trkpt lat="46.55759" lon="6.0816">
        <ele>1161.8</ele>
        <time>2021-08-18T11:29:27Z</time>
      </trkpt>
      <trkpt lat="46.55758" lon="6.08164">
        <ele>1162.1</ele>
        <time>2021-08-18T11:29:28Z</time>
      </trkpt>
      <trkpt lat="46.55757" lon="6.08165">
        <ele>1162.2</ele>
        <time>2021-08-18T11:29:29Z</time>
      </trkpt>
      <trkpt lat="46.55757" lon="6.08167">
        <ele>1162.3</ele>
        <time>2021-08-18T11:29:30Z</time>
      </trkpt>
      <trkpt lat="46.55757" lon="6.08168">
        <ele>1162.4</ele>
        <time>2021-08-18T11:29:32Z</time>
      </trkpt>
      <trkpt lat="46.55757" lon="6.08171">
        <ele>1162.6</ele>
        <time>2021-08-18T11:29:34Z</time>
      </trkpt>
      <trkpt lat="46.55757" lon="6.08172">
        <ele>1162.6</ele>
        <time>2021-08-18T11:29:36Z</time>
      </trkpt>
      <trkpt lat="46.55757" lon="6.08172">
        <ele>1162.7</ele>
        <time>2021-08-18T11:29:37Z</time>
      </trkpt>
      <trkpt lat="46.55757" lon="6.08172">
        <ele>1162.7</ele>
        <time>2021-08-18T11:29:38Z</time>
      </trkpt>
      <trkpt lat="46.55755" lon="6.08188">
        <ele>1163.7</ele>
        <time>2021-08-18T11:29:52Z</time>
      </trkpt>
      <trkpt lat="46.55753" lon="6.08191">
        <ele>1164</ele>
        <time>2021-08-18T11:29:53Z</time>
      </trkpt>
      <trkpt lat="46.5575" lon="6.08194">
        <ele>1164.3</ele>
        <time>2021-08-18T11:29:54Z</time>
      </trkpt>
      <trkpt lat="46.55746" lon="6.08199">
        <ele>1164.7</ele>
        <time>2021-08-18T11:29:56Z</time>
      </trkpt>
      <trkpt lat="46.55744" lon="6.08205">
        <ele>1165</ele>
        <time>2021-08-18T11:29:57Z</time>
      </trkpt>
      <trkpt lat="46.55744" lon="6.08207">
        <ele>1165.1</ele>
        <time>2021-08-18T11:29:58Z</time>
      </trkpt>
      <trkpt lat="46.55743" lon="6.0821">
        <ele>1165.2</ele>
        <time>2021-08-18T11:30:00Z</time>
      </trkpt>
      <trkpt lat="46.55742" lon="6.08212">
        <ele>1165.3</ele>
        <time>2021-08-18T11:30:01Z</time>
      </trkpt>
      <trkpt lat="46.55742" lon="6.08213">
        <ele>1165.4</ele>
        <time>2021-08-18T11:30:02Z</time>
      </trkpt>
      <trkpt lat="46.55741" lon="6.08216">
        <ele>1165.5</ele>
        <time>2021-08-18T11:30:03Z</time>
      </trkpt>
      <trkpt lat="46.5574" lon="6.08219">
        <ele>1165.7</ele>
        <time>2021-08-18T11:30:05Z</time>
      </trkpt>
      <trkpt lat="46.5574" lon="6.0822">
        <ele>1165.8</ele>
        <time>2021-08-18T11:30:06Z</time>
      </trkpt>
      <trkpt lat="46.5574" lon="6.08221">
        <ele>1165.8</ele>
        <time>2021-08-18T11:30:07Z</time>
      </trkpt>
      <trkpt lat="46.55739" lon="6.08221">
        <ele>1165.8</ele>
        <time>2021-08-18T11:30:08Z</time>
      </trkpt>
      <trkpt lat="46.55739" lon="6.08222">
        <ele>1165.9</ele>
        <time>2021-08-18T11:30:10Z</time>
      </trkpt>
      <trkpt lat="46.55739" lon="6.08223">
        <ele>1165.9</ele>
        <time>2021-08-18T11:30:11Z</time>
      </trkpt>
      <trkpt lat="46.55739" lon="6.08223">
        <ele>1165.9</ele>
        <time>2021-08-18T11:30:12Z</time>
      </trkpt>
      <trkpt lat="46.55739" lon="6.08223">
        <ele>1165.9</ele>
        <time>2021-08-18T11:30:13Z</time>
      </trkpt>
      <trkpt lat="46.55718" lon="6.08251">
        <ele>1168.2</ele>
        <time>2021-08-18T11:30:45Z</time>
      </trkpt>
      <trkpt lat="46.55716" lon="6.08261">
        <ele>1168.7</ele>
        <time>2021-08-18T11:30:47Z</time>
      </trkpt>
      <trkpt lat="46.55716" lon="6.08263">
        <ele>1168.8</ele>
        <time>2021-08-18T11:30:48Z</time>
      </trkpt>
      <trkpt lat="46.55715" lon="6.08265">
        <ele>1168.9</ele>
        <time>2021-08-18T11:30:50Z</time>
      </trkpt>
      <trkpt lat="46.55715" lon="6.08266">
        <ele>1169</ele>
        <time>2021-08-18T11:30:51Z</time>
      </trkpt>
      <trkpt lat="46.55715" lon="6.08268">
        <ele>1169.1</ele>
        <time>2021-08-18T11:30:52Z</time>
      </trkpt>
      <trkpt lat="46.55714" lon="6.0827">
        <ele>1169.2</ele>
        <time>2021-08-18T11:30:54Z</time>
      </trkpt>
      <trkpt lat="46.55713" lon="6.08272">
        <ele>1169.3</ele>
        <time>2021-08-18T11:30:55Z</time>
      </trkpt>
      <trkpt lat="46.55711" lon="6.08274">
        <ele>1169.5</ele>
        <time>2021-08-18T11:30:56Z</time>
      </trkpt>
      <trkpt lat="46.5571" lon="6.08274">
        <ele>1169.6</ele>
        <time>2021-08-18T11:30:57Z</time>
      </trkpt>
      <trkpt lat="46.55709" lon="6.08275">
        <ele>1169.7</ele>
        <time>2021-08-18T11:30:59Z</time>
      </trkpt>
      <trkpt lat="46.55708" lon="6.08276">
        <ele>1169.8</ele>
        <time>2021-08-18T11:31:00Z</time>
      </trkpt>
      <trkpt lat="46.55706" lon="6.08278">
        <ele>1169.9</ele>
        <time>2021-08-18T11:31:01Z</time>
      </trkpt>
      <trkpt lat="46.55703" lon="6.08278">
        <ele>1170.2</ele>
        <time>2021-08-18T11:31:03Z</time>
      </trkpt>
      <trkpt lat="46.557" lon="6.08277">
        <ele>1170.5</ele>
        <time>2021-08-18T11:31:04Z</time>
      </trkpt>
      <trkpt lat="46.55695" lon="6.08274">
        <ele>1170.9</ele>
        <time>2021-08-18T11:31:05Z</time>
      </trkpt>
      <trkpt lat="46.55693" lon="6.08272">
        <ele>1171.1</ele>
        <time>2021-08-18T11:31:07Z</time>
      </trkpt>
      <trkpt lat="46.55693" lon="6.08272">
        <ele>1171.1</ele>
        <time>2021-08-18T11:31:08Z</time>
      </trkpt>
      <trkpt lat="46.55693" lon="6.08271">
        <ele>1171.2</ele>
        <time>2021-08-18T11:31:10Z</time>
      </trkpt>
      <trkpt lat="46.55692" lon="6.08271">
        <ele>1171.2</ele>
        <time>2021-08-18T11:31:11Z</time>
      </trkpt>
      <trkpt lat="46.55691" lon="6.08273">
        <ele>1171.3</ele>
        <time>2021-08-18T11:31:13Z</time>
      </trkpt>
      <trkpt lat="46.55682" lon="6.08281">
        <ele>1172.4</ele>
        <time>2021-08-18T11:31:20Z</time>
      </trkpt>
      <trkpt lat="46.55679" lon="6.08284">
        <ele>1172.8</ele>
        <time>2021-08-18T11:31:22Z</time>
      </trkpt>
      <trkpt lat="46.55678" lon="6.08286">
        <ele>1173</ele>
        <time>2021-08-18T11:31:23Z</time>
      </trkpt>
      <trkpt lat="46.55677" lon="6.08289">
        <ele>1173.2</ele>
        <time>2021-08-18T11:31:24Z</time>
      </trkpt>
      <trkpt lat="46.55676" lon="6.08293">
        <ele>1173.6</ele>
        <time>2021-08-18T11:31:26Z</time>
      </trkpt>
      <trkpt lat="46.55676" lon="6.08294">
        <ele>1173.7</ele>
        <time>2021-08-18T11:31:27Z</time>
      </trkpt>
      <trkpt lat="46.55675" lon="6.08296">
        <ele>1174</ele>
        <time>2021-08-18T11:31:28Z</time>
      </trkpt>
      <trkpt lat="46.55675" lon="6.08297">
        <ele>1174.1</ele>
        <time>2021-08-18T11:31:29Z</time>
      </trkpt>
      <trkpt lat="46.55675" lon="6.08298">
        <ele>1174.2</ele>
        <time>2021-08-18T11:31:31Z</time>
      </trkpt>
      <trkpt lat="46.55674" lon="6.08298">
        <ele>1174.2</ele>
        <time>2021-08-18T11:31:32Z</time>
      </trkpt>
      <trkpt lat="46.55674" lon="6.08299">
        <ele>1174.3</ele>
        <time>2021-08-18T11:31:33Z</time>
      </trkpt>
      <trkpt lat="46.55674" lon="6.08299">
        <ele>1174.3</ele>
        <time>2021-08-18T11:31:35Z</time>
      </trkpt>
      <trkpt lat="46.55674" lon="6.08299">
        <ele>1174.3</ele>
        <time>2021-08-18T11:31:36Z</time>
      </trkpt>
      <trkpt lat="46.55673" lon="6.08299">
        <ele>1174.4</ele>
        <time>2021-08-18T11:31:38Z</time>
      </trkpt>
      <trkpt lat="46.55648" lon="6.08314">
        <ele>1178.8</ele>
        <time>2021-08-18T11:32:30Z</time>
      </trkpt>
      <trkpt lat="46.55647" lon="6.08317">
        <ele>1179.3</ele>
        <time>2021-08-18T11:32:31Z</time>
      </trkpt>
      <trkpt lat="46.55644" lon="6.08321">
        <ele>1179.8</ele>
        <time>2021-08-18T11:32:33Z</time>
      </trkpt>
      <trkpt lat="46.55643" lon="6.08324">
        <ele>1180.1</ele>
        <time>2021-08-18T11:32:34Z</time>
      </trkpt>
      <trkpt lat="46.55642" lon="6.08325">
        <ele>1180.3</ele>
        <time>2021-08-18T11:32:35Z</time>
      </trkpt>
      <trkpt lat="46.55642" lon="6.08327">
        <ele>1180.4</ele>
        <time>2021-08-18T11:32:37Z</time>
      </trkpt>
      <trkpt lat="46.55641" lon="6.08328">
        <ele>1180.5</ele>
        <time>2021-08-18T11:32:38Z</time>
      </trkpt>
      <trkpt lat="46.55641" lon="6.08329">
        <ele>1180.7</ele>
        <time>2021-08-18T11:32:39Z</time>
      </trkpt>
      <trkpt lat="46.5564" lon="6.0833">
        <ele>1180.8</ele>
        <time>2021-08-18T11:32:41Z</time>
      </trkpt>
      <trkpt lat="46.55708" lon="6.08389">
        <ele>1189.5</ele>
        <time>2021-08-18T11:35:40Z</time>
      </trkpt>
      <trkpt lat="46.55711" lon="6.0839">
        <ele>1189.7</ele>
        <time>2021-08-18T11:35:41Z</time>
      </trkpt>
      <trkpt lat="46.55715" lon="6.08392">
        <ele>1190.1</ele>
        <time>2021-08-18T11:35:42Z</time>
      </trkpt>
      <trkpt lat="46.55718" lon="6.08393">
        <ele>1190.4</ele>
        <time>2021-08-18T11:35:44Z</time>
      </trkpt>
      <trkpt lat="46.55722" lon="6.08395">
        <ele>1190.8</ele>
        <time>2021-08-18T11:35:46Z</time>
      </trkpt>
      <trkpt lat="46.55726" lon="6.08397">
        <ele>1191.1</ele>
        <time>2021-08-18T11:35:47Z</time>
      </trkpt>
      <trkpt lat="46.55728" lon="6.08397">
        <ele>1191.3</ele>
        <time>2021-08-18T11:35:48Z</time>
      </trkpt>
      <trkpt lat="46.55729" lon="6.08397">
        <ele>1191.4</ele>
        <time>2021-08-18T11:35:49Z</time>
      </trkpt>
      <trkpt lat="46.55731" lon="6.08396">
        <ele>1191.5</ele>
        <time>2021-08-18T11:35:51Z</time>
      </trkpt>
      <trkpt lat="46.55734" lon="6.08397">
        <ele>1191.8</ele>
        <time>2021-08-18T11:35:52Z</time>
      </trkpt>
      <trkpt lat="46.55738" lon="6.08397">
        <ele>1192</ele>
        <time>2021-08-18T11:35:53Z</time>
      </trkpt>
      <trkpt lat="46.55739" lon="6.08397">
        <ele>1192.1</ele>
        <time>2021-08-18T11:35:54Z</time>
      </trkpt>
      <trkpt lat="46.55741" lon="6.08398">
        <ele>1192.2</ele>
        <time>2021-08-18T11:35:55Z</time>
      </trkpt>
      <trkpt lat="46.55742" lon="6.08398">
        <ele>1192.2</ele>
        <time>2021-08-18T11:35:56Z</time>
      </trkpt>
      <trkpt lat="46.55747" lon="6.08395">
        <ele>1192.5</ele>
        <time>2021-08-18T11:35:57Z</time>
      </trkpt>
      <trkpt lat="46.55752" lon="6.08392">
        <ele>1192.7</ele>
        <time>2021-08-18T11:35:58Z</time>
      </trkpt>
      <trkpt lat="46.55757" lon="6.0839">
        <ele>1192.9</ele>
        <time>2021-08-18T11:36:00Z</time>
      </trkpt>
      <trkpt lat="46.5576" lon="6.08389">
        <ele>1193</ele>
        <time>2021-08-18T11:36:01Z</time>
      </trkpt>
      <trkpt lat="46.55764" lon="6.0839">
        <ele>1193.2</ele>
        <time>2021-08-18T11:36:02Z</time>
      </trkpt>
      <trkpt lat="46.55766" lon="6.08391">
        <ele>1193.3</ele>
        <time>2021-08-18T11:36:03Z</time>
      </trkpt>
      <trkpt lat="46.5577" lon="6.08395">
        <ele>1193.5</ele>
        <time>2021-08-18T11:36:05Z</time>
      </trkpt>
      <trkpt lat="46.55771" lon="6.08396">
        <ele>1193.5</ele>
        <time>2021-08-18T11:36:06Z</time>
      </trkpt>
      <trkpt lat="46.55772" lon="6.08397">
        <ele>1193.6</ele>
        <time>2021-08-18T11:36:07Z</time>
      </trkpt>
      <trkpt lat="46.55773" lon="6.08399">
        <ele>1193.6</ele>
        <time>2021-08-18T11:36:08Z</time>
      </trkpt>
      <trkpt lat="46.55775" lon="6.08402">
        <ele>1193.7</ele>
        <time>2021-08-18T11:36:10Z</time>
      </trkpt>
      <trkpt lat="46.55779" lon="6.08402">
        <ele>1193.8</ele>
        <time>2021-08-18T11:36:11Z</time>
      </trkpt>
      <trkpt lat="46.55779" lon="6.08402">
        <ele>1193.9</ele>
        <time>2021-08-18T11:36:12Z</time>
      </trkpt>
      <trkpt lat="46.55783" lon="6.08405">
        <ele>1194</ele>
        <time>2021-08-18T11:36:14Z</time>
      </trkpt>
      <trkpt lat="46.55784" lon="6.08407">
        <ele>1194.1</ele>
        <time>2021-08-18T11:36:15Z</time>
      </trkpt>
      <trkpt lat="46.55785" lon="6.08408">
        <ele>1194.2</ele>
        <time>2021-08-18T11:36:16Z</time>
      </trkpt>
      <trkpt lat="46.55787" lon="6.08409">
        <ele>1194.2</ele>
        <time>2021-08-18T11:36:17Z</time>
      </trkpt>
      <trkpt lat="46.55788" lon="6.0841">
        <ele>1194.3</ele>
        <time>2021-08-18T11:36:18Z</time>
      </trkpt>
      <trkpt lat="46.5579" lon="6.08414">
        <ele>1194.4</ele>
        <time>2021-08-18T11:36:20Z</time>
      </trkpt>
      <trkpt lat="46.55791" lon="6.08418">
        <ele>1194.5</ele>
        <time>2021-08-18T11:36:21Z</time>
      </trkpt>
      <trkpt lat="46.55792" lon="6.08419">
        <ele>1194.6</ele>
        <time>2021-08-18T11:36:22Z</time>
      </trkpt>
      <trkpt lat="46.55791" lon="6.08422">
        <ele>1194.7</ele>
        <time>2021-08-18T11:36:23Z</time>
      </trkpt>
      <trkpt lat="46.55791" lon="6.08424">
        <ele>1194.8</ele>
        <time>2021-08-18T11:36:24Z</time>
      </trkpt>
      <trkpt lat="46.5579" lon="6.08427">
        <ele>1194.8</ele>
        <time>2021-08-18T11:36:25Z</time>
      </trkpt>
      <trkpt lat="46.55789" lon="6.0843">
        <ele>1194.7</ele>
        <time>2021-08-18T11:36:27Z</time>
      </trkpt>
      <trkpt lat="46.55786" lon="6.08433">
        <ele>1194.5</ele>
        <time>2021-08-18T11:36:28Z</time>
      </trkpt>
      <trkpt lat="46.55784" lon="6.08435">
        <ele>1194.5</ele>
        <time>2021-08-18T11:36:29Z</time>
      </trkpt>
      <trkpt lat="46.55782" lon="6.08436">
        <ele>1194.4</ele>
        <time>2021-08-18T11:36:30Z</time>
      </trkpt>
      <trkpt lat="46.55778" lon="6.08436">
        <ele>1194.2</ele>
        <time>2021-08-18T11:36:32Z</time>
      </trkpt>
      <trkpt lat="46.55775" lon="6.08431">
        <ele>1194</ele>
        <time>2021-08-18T11:36:34Z</time>
      </trkpt>
      <trkpt lat="46.55774" lon="6.0843">
        <ele>1194</ele>
        <time>2021-08-18T11:36:35Z</time>
      </trkpt>
      <trkpt lat="46.55774" lon="6.08426">
        <ele>1193.9</ele>
        <time>2021-08-18T11:36:36Z</time>
      </trkpt>
      <trkpt lat="46.55773" lon="6.08425">
        <ele>1193.9</ele>
        <time>2021-08-18T11:36:38Z</time>
      </trkpt>
      <trkpt lat="46.55773" lon="6.08425">
        <ele>1193.9</ele>
        <time>2021-08-18T11:36:39Z</time>
      </trkpt>
      <trkpt lat="46.55773" lon="6.08425">
        <ele>1193.9</ele>
        <time>2021-08-18T11:36:40Z</time>
      </trkpt>
      <trkpt lat="46.55772" lon="6.08425">
        <ele>1193.8</ele>
        <time>2021-08-18T11:36:41Z</time>
      </trkpt>
      <trkpt lat="46.5577" lon="6.08425">
        <ele>1193.8</ele>
        <time>2021-08-18T11:36:43Z</time>
      </trkpt>
      <trkpt lat="46.55765" lon="6.08422">
        <ele>1193.6</ele>
        <time>2021-08-18T11:36:48Z</time>
      </trkpt>
      <trkpt lat="46.55761" lon="6.0842">
        <ele>1193.5</ele>
        <time>2021-08-18T11:36:49Z</time>
      </trkpt>
      <trkpt lat="46.55759" lon="6.08418">
        <ele>1193.4</ele>
        <time>2021-08-18T11:36:51Z</time>
      </trkpt>
      <trkpt lat="46.55758" lon="6.08418">
        <ele>1193.3</ele>
        <time>2021-08-18T11:36:52Z</time>
      </trkpt>
      <trkpt lat="46.55755" lon="6.08418">
        <ele>1193.2</ele>
        <time>2021-08-18T11:36:53Z</time>
      </trkpt>
      <trkpt lat="46.55754" lon="6.08418">
        <ele>1193.2</ele>
        <time>2021-08-18T11:36:54Z</time>
      </trkpt>
      <trkpt lat="46.55752" lon="6.08418">
        <ele>1193.1</ele>
        <time>2021-08-18T11:36:55Z</time>
      </trkpt>
      <trkpt lat="46.55751" lon="6.08418">
        <ele>1193.1</ele>
        <time>2021-08-18T11:36:57Z</time>
      </trkpt>
      <trkpt lat="46.55749" lon="6.08418">
        <ele>1193</ele>
        <time>2021-08-18T11:36:59Z</time>
      </trkpt>
      <trkpt lat="46.55748" lon="6.08418">
        <ele>1193</ele>
        <time>2021-08-18T11:37:00Z</time>
      </trkpt>
      <trkpt lat="46.55745" lon="6.08415">
        <ele>1192.8</ele>
        <time>2021-08-18T11:37:01Z</time>
      </trkpt>
      <trkpt lat="46.55744" lon="6.08414">
        <ele>1192.8</ele>
        <time>2021-08-18T11:37:02Z</time>
      </trkpt>
      <trkpt lat="46.55743" lon="6.08412">
        <ele>1192.7</ele>
        <time>2021-08-18T11:37:03Z</time>
      </trkpt>
      <trkpt lat="46.55743" lon="6.08411">
        <ele>1192.7</ele>
        <time>2021-08-18T11:37:04Z</time>
      </trkpt>
      <trkpt lat="46.55743" lon="6.08411">
        <ele>1192.7</ele>
        <time>2021-08-18T11:37:05Z</time>
      </trkpt>
      <trkpt lat="46.55742" lon="6.08411">
        <ele>1192.7</ele>
        <time>2021-08-18T11:37:06Z</time>
      </trkpt>
      <trkpt lat="46.55742" lon="6.0841">
        <ele>1192.7</ele>
        <time>2021-08-18T11:37:08Z</time>
      </trkpt>
      <trkpt lat="46.55742" lon="6.0841">
        <ele>1192.7</ele>
        <time>2021-08-18T11:37:09Z</time>
      </trkpt>
      <trkpt lat="46.55742" lon="6.0841">
        <ele>1192.7</ele>
        <time>2021-08-18T11:37:10Z</time>
      </trkpt>
      <trkpt lat="46.55742" lon="6.0841">
        <ele>1192.6</ele>
        <time>2021-08-18T11:37:11Z</time>
      </trkpt>
      <trkpt lat="46.55742" lon="6.0841">
        <ele>1192.6</ele>
        <time>2021-08-18T11:37:12Z</time>
      </trkpt>
      <trkpt lat="46.55704" lon="6.08393">
        <ele>1188.9</ele>
        <time>2021-08-18T11:38:00Z</time>
      </trkpt>
      <trkpt lat="46.557" lon="6.08388">
        <ele>1188.2</ele>
        <time>2021-08-18T11:38:02Z</time>
      </trkpt>
      <trkpt lat="46.55698" lon="6.08386">
        <ele>1187.8</ele>
        <time>2021-08-18T11:38:03Z</time>
      </trkpt>
      <trkpt lat="46.55697" lon="6.08385">
        <ele>1187.6</ele>
        <time>2021-08-18T11:38:04Z</time>
      </trkpt>
      <trkpt lat="46.55694" lon="6.08382">
        <ele>1187.1</ele>
        <time>2021-08-18T11:38:05Z</time>
      </trkpt>
      <trkpt lat="46.55694" lon="6.08381">
        <ele>1187</ele>
        <time>2021-08-18T11:38:06Z</time>
      </trkpt>
      <trkpt lat="46.55692" lon="6.08381">
        <ele>1186.8</ele>
        <time>2021-08-18T11:38:07Z</time>
      </trkpt>
      <trkpt lat="46.55691" lon="6.08382">
        <ele>1186.6</ele>
        <time>2021-08-18T11:38:08Z</time>
      </trkpt>
      <trkpt lat="46.5569" lon="6.08382">
        <ele>1186.5</ele>
        <time>2021-08-18T11:38:10Z</time>
      </trkpt>
      <trkpt lat="46.55689" lon="6.08381">
        <ele>1186.2</ele>
        <time>2021-08-18T11:38:11Z</time>
      </trkpt>
      <trkpt lat="46.55688" lon="6.0838">
        <ele>1186</ele>
        <time>2021-08-18T11:38:12Z</time>
      </trkpt>
      <trkpt lat="46.55687" lon="6.08381">
        <ele>1185.9</ele>
        <time>2021-08-18T11:38:13Z</time>
      </trkpt>
      <trkpt lat="46.55686" lon="6.08381">
        <ele>1185.8</ele>
        <time>2021-08-18T11:38:14Z</time>
      </trkpt>
      <trkpt lat="46.55686" lon="6.08381">
        <ele>1185.7</ele>
        <time>2021-08-18T11:38:15Z</time>
      </trkpt>
      <trkpt lat="46.55685" lon="6.08381">
        <ele>1185.6</ele>
        <time>2021-08-18T11:38:16Z</time>
      </trkpt>
      <trkpt lat="46.55685" lon="6.08381">
        <ele>1185.6</ele>
        <time>2021-08-18T11:38:18Z</time>
      </trkpt>
      <trkpt lat="46.55684" lon="6.08381">
        <ele>1185.5</ele>
        <time>2021-08-18T11:38:19Z</time>
      </trkpt>
      <trkpt lat="46.55684" lon="6.08381">
        <ele>1185.4</ele>
        <time>2021-08-18T11:38:20Z</time>
      </trkpt>
      <trkpt lat="46.55684" lon="6.08381">
        <ele>1185.4</ele>
        <time>2021-08-18T11:38:21Z</time>
      </trkpt>
      <trkpt lat="46.55665" lon="6.08362">
        <ele>1182.7</ele>
        <time>2021-08-18T11:38:42Z</time>
      </trkpt>
      <trkpt lat="46.55663" lon="6.08359">
        <ele>1182.4</ele>
        <time>2021-08-18T11:38:43Z</time>
      </trkpt>
      <trkpt lat="46.55662" lon="6.08355">
        <ele>1182.2</ele>
        <time>2021-08-18T11:38:45Z</time>
      </trkpt>
      <trkpt lat="46.55661" lon="6.08354">
        <ele>1182.1</ele>
        <time>2021-08-18T11:38:46Z</time>
      </trkpt>
      <trkpt lat="46.5566" lon="6.08354">
        <ele>1182</ele>
        <time>2021-08-18T11:38:47Z</time>
      </trkpt>
      <trkpt lat="46.55658" lon="6.08353">
        <ele>1181.8</ele>
        <time>2021-08-18T11:38:48Z</time>
      </trkpt>
      <trkpt lat="46.55657" lon="6.08353">
        <ele>1182.4</ele>
        <time>2021-08-18T11:38:49Z</time>
      </trkpt>
      <trkpt lat="46.55657" lon="6.08353">
        <ele>1182.9</ele>
        <time>2021-08-18T11:38:50Z</time>
      </trkpt>
      <trkpt lat="46.55655" lon="6.08353">
        <ele>1183.7</ele>
        <time>2021-08-18T11:38:52Z</time>
      </trkpt>
      <trkpt lat="46.55654" lon="6.08353">
        <ele>1184.2</ele>
        <time>2021-08-18T11:38:53Z</time>
      </trkpt>
      <trkpt lat="46.55654" lon="6.08353">
        <ele>1184.8</ele>
        <time>2021-08-18T11:38:54Z</time>
      </trkpt>
      <trkpt lat="46.55653" lon="6.08353">
        <ele>1185.3</ele>
        <time>2021-08-18T11:38:56Z</time>
      </trkpt>
      <trkpt lat="46.55652" lon="6.08353">
        <ele>1186.1</ele>
        <time>2021-08-18T11:38:57Z</time>
      </trkpt>
      <trkpt lat="46.55648" lon="6.08351">
        <ele>1186.9</ele>
        <time>2021-08-18T11:38:58Z</time>
      </trkpt>
      <trkpt lat="46.55645" lon="6.08349">
        <ele>1186.4</ele>
        <time>2021-08-18T11:39:03Z</time>
      </trkpt>
      <trkpt lat="46.55642" lon="6.08348">
        <ele>1187.2</ele>
        <time>2021-08-18T11:39:04Z</time>
      </trkpt>
      <trkpt lat="46.55638" lon="6.08346">
        <ele>1186.8</ele>
        <time>2021-08-18T11:39:05Z</time>
      </trkpt>
      <trkpt lat="46.55636" lon="6.08344">
        <ele>1187.7</ele>
        <time>2021-08-18T11:39:07Z</time>
      </trkpt>
      <trkpt lat="46.55635" lon="6.08343">
        <ele>1188.5</ele>
        <time>2021-08-18T11:39:08Z</time>
      </trkpt>
      <trkpt lat="46.55634" lon="6.08343">
        <ele>1189</ele>
        <time>2021-08-18T11:39:09Z</time>
      </trkpt>
      <trkpt lat="46.55633" lon="6.08343">
        <ele>1189.6</ele>
        <time>2021-08-18T11:39:11Z</time>
      </trkpt>
      <trkpt lat="46.55632" lon="6.08343">
        <ele>1190.1</ele>
        <time>2021-08-18T11:39:12Z</time>
      </trkpt>
      <trkpt lat="46.55632" lon="6.08343">
        <ele>1190.9</ele>
        <time>2021-08-18T11:39:13Z</time>
      </trkpt>
      <trkpt lat="46.55632" lon="6.08343">
        <ele>1191.5</ele>
        <time>2021-08-18T11:39:14Z</time>
      </trkpt>
      <trkpt lat="46.55632" lon="6.08343">
        <ele>1192</ele>
        <time>2021-08-18T11:39:15Z</time>
      </trkpt>
      <trkpt lat="46.55631" lon="6.08342">
        <ele>1192.6</ele>
        <time>2021-08-18T11:39:17Z</time>
      </trkpt>
      <trkpt lat="46.55616" lon="6.08344">
        <ele>1194</ele>
        <time>2021-08-18T11:39:33Z</time>
      </trkpt>
      <trkpt lat="46.55614" lon="6.08342">
        <ele>1194.8</ele>
        <time>2021-08-18T11:39:34Z</time>
      </trkpt>
      <trkpt lat="46.55612" lon="6.08342">
        <ele>1194.4</ele>
        <time>2021-08-18T11:39:36Z</time>
      </trkpt>
      <trkpt lat="46.55609" lon="6.08342">
        <ele>1195</ele>
        <time>2021-08-18T11:39:38Z</time>
      </trkpt>
      <trkpt lat="46.55606" lon="6.08343">
        <ele>1196.9</ele>
        <time>2021-08-18T11:39:39Z</time>
      </trkpt>
      <trkpt lat="46.55605" lon="6.08344">
        <ele>1197.6</ele>
        <time>2021-08-18T11:39:41Z</time>
      </trkpt>
      <trkpt lat="46.55603" lon="6.08345">
        <ele>1198.2</ele>
        <time>2021-08-18T11:39:42Z</time>
      </trkpt>
      <trkpt lat="46.55598" lon="6.08347">
        <ele>1200.3</ele>
        <time>2021-08-18T11:39:44Z</time>
      </trkpt>
      <trkpt lat="46.55592" lon="6.0835">
        <ele>1201.3</ele>
        <time>2021-08-18T11:39:46Z</time>
      </trkpt>
      <trkpt lat="46.55587" lon="6.08354">
        <ele>1203.5</ele>
        <time>2021-08-18T11:39:48Z</time>
      </trkpt>
      <trkpt lat="46.55585" lon="6.08357">
        <ele>1205.4</ele>
        <time>2021-08-18T11:39:49Z</time>
      </trkpt>
      <trkpt lat="46.55583" lon="6.0836">
        <ele>1206.9</ele>
        <time>2021-08-18T11:39:50Z</time>
      </trkpt>
      <trkpt lat="46.55581" lon="6.08364">
        <ele>1208.7</ele>
        <time>2021-08-18T11:39:52Z</time>
      </trkpt>
      <trkpt lat="46.55578" lon="6.08368">
        <ele>1209.5</ele>
        <time>2021-08-18T11:39:54Z</time>
      </trkpt>
      <trkpt lat="46.55578" lon="6.0837">
        <ele>1211</ele>
        <time>2021-08-18T11:39:55Z</time>
      </trkpt>
      <trkpt lat="46.55578" lon="6.08372">
        <ele>1211.5</ele>
        <time>2021-08-18T11:39:56Z</time>
      </trkpt>
      <trkpt lat="46.55578" lon="6.08374">
        <ele>1212.9</ele>
        <time>2021-08-18T11:39:57Z</time>
      </trkpt>
      <trkpt lat="46.55576" lon="6.08377">
        <ele>1214.2</ele>
        <time>2021-08-18T11:39:59Z</time>
      </trkpt>
      <trkpt lat="46.55575" lon="6.0838">
        <ele>1214.9</ele>
        <time>2021-08-18T11:40:00Z</time>
      </trkpt>
      <trkpt lat="46.55574" lon="6.08381">
        <ele>1216</ele>
        <time>2021-08-18T11:40:01Z</time>
      </trkpt>
      <trkpt lat="46.55573" lon="6.08383">
        <ele>1216.7</ele>
        <time>2021-08-18T11:40:02Z</time>
      </trkpt>
      <trkpt lat="46.55571" lon="6.08386">
        <ele>1217.7</ele>
        <time>2021-08-18T11:40:04Z</time>
      </trkpt>
      <trkpt lat="46.5557" lon="6.08391">
        <ele>1218.6</ele>
        <time>2021-08-18T11:40:06Z</time>
      </trkpt>
      <trkpt lat="46.5557" lon="6.08393">
        <ele>1218.8</ele>
        <time>2021-08-18T11:40:07Z</time>
      </trkpt>
      <trkpt lat="46.5557" lon="6.08395">
        <ele>1218.9</ele>
        <time>2021-08-18T11:40:08Z</time>
      </trkpt>
      <trkpt lat="46.55569" lon="6.08397">
        <ele>1219</ele>
        <time>2021-08-18T11:40:09Z</time>
      </trkpt>
      <trkpt lat="46.55567" lon="6.08399">
        <ele>1219.2</ele>
        <time>2021-08-18T11:40:11Z</time>
      </trkpt>
      <trkpt lat="46.55566" lon="6.084">
        <ele>1219.3</ele>
        <time>2021-08-18T11:40:12Z</time>
      </trkpt>
      <trkpt lat="46.55565" lon="6.08401">
        <ele>1219.4</ele>
        <time>2021-08-18T11:40:13Z</time>
      </trkpt>
      <trkpt lat="46.55563" lon="6.08404">
        <ele>1219.6</ele>
        <time>2021-08-18T11:40:15Z</time>
      </trkpt>
      <trkpt lat="46.55563" lon="6.08405">
        <ele>1219.7</ele>
        <time>2021-08-18T11:40:16Z</time>
      </trkpt>
      <trkpt lat="46.55559" lon="6.08408">
        <ele>1220</ele>
        <time>2021-08-18T11:40:18Z</time>
      </trkpt>
      <trkpt lat="46.55557" lon="6.0841">
        <ele>1220.2</ele>
        <time>2021-08-18T11:40:19Z</time>
      </trkpt>
      <trkpt lat="46.55555" lon="6.08412">
        <ele>1220.4</ele>
        <time>2021-08-18T11:40:20Z</time>
      </trkpt>
      <trkpt lat="46.5555" lon="6.08415">
        <ele>1220.7</ele>
        <time>2021-08-18T11:40:22Z</time>
      </trkpt>
      <trkpt lat="46.55548" lon="6.08419">
        <ele>1220.9</ele>
        <time>2021-08-18T11:40:23Z</time>
      </trkpt>
      <trkpt lat="46.55548" lon="6.08421">
        <ele>1221</ele>
        <time>2021-08-18T11:40:24Z</time>
      </trkpt>
      <trkpt lat="46.55546" lon="6.08427">
        <ele>1221.2</ele>
        <time>2021-08-18T11:40:25Z</time>
      </trkpt>
      <trkpt lat="46.55546" lon="6.08429">
        <ele>1221.3</ele>
        <time>2021-08-18T11:40:26Z</time>
      </trkpt>
      <trkpt lat="46.55543" lon="6.08432">
        <ele>1221.5</ele>
        <time>2021-08-18T11:40:28Z</time>
      </trkpt>
      <trkpt lat="46.55542" lon="6.08434">
        <ele>1221.6</ele>
        <time>2021-08-18T11:40:29Z</time>
      </trkpt>
      <trkpt lat="46.55538" lon="6.08436">
        <ele>1221.8</ele>
        <time>2021-08-18T11:40:31Z</time>
      </trkpt>
      <trkpt lat="46.55537" lon="6.08437">
        <ele>1221.9</ele>
        <time>2021-08-18T11:40:32Z</time>
      </trkpt>
      <trkpt lat="46.55536" lon="6.08439">
        <ele>1222</ele>
        <time>2021-08-18T11:40:33Z</time>
      </trkpt>
      <trkpt lat="46.55534" lon="6.08442">
        <ele>1222.2</ele>
        <time>2021-08-18T11:40:35Z</time>
      </trkpt>
      <trkpt lat="46.55532" lon="6.08444">
        <ele>1222.3</ele>
        <time>2021-08-18T11:40:36Z</time>
      </trkpt>
      <trkpt lat="46.55531" lon="6.08445">
        <ele>1222.4</ele>
        <time>2021-08-18T11:40:38Z</time>
      </trkpt>
      <trkpt lat="46.5553" lon="6.08447">
        <ele>1222.5</ele>
        <time>2021-08-18T11:40:39Z</time>
      </trkpt>
      <trkpt lat="46.55526" lon="6.08449">
        <ele>1222.7</ele>
        <time>2021-08-18T11:40:41Z</time>
      </trkpt>
      <trkpt lat="46.55524" lon="6.0845">
        <ele>1222.8</ele>
        <time>2021-08-18T11:40:42Z</time>
      </trkpt>
      <trkpt lat="46.55522" lon="6.08456">
        <ele>1223.3</ele>
        <time>2021-08-18T11:40:44Z</time>
      </trkpt>
      <trkpt lat="46.55519" lon="6.08459">
        <ele>1223.6</ele>
        <time>2021-08-18T11:40:45Z</time>
      </trkpt>
      <trkpt lat="46.55515" lon="6.0846">
        <ele>1223.9</ele>
        <time>2021-08-18T11:40:47Z</time>
      </trkpt>
      <trkpt lat="46.5551" lon="6.08461">
        <ele>1224.3</ele>
        <time>2021-08-18T11:40:48Z</time>
      </trkpt>
      <trkpt lat="46.55505" lon="6.08463">
        <ele>1224.6</ele>
        <time>2021-08-18T11:40:50Z</time>
      </trkpt>
      <trkpt lat="46.55503" lon="6.08465">
        <ele>1224.7</ele>
        <time>2021-08-18T11:40:51Z</time>
      </trkpt>
      <trkpt lat="46.555" lon="6.08466">
        <ele>1224.9</ele>
        <time>2021-08-18T11:40:52Z</time>
      </trkpt>
      <trkpt lat="46.55497" lon="6.0847">
        <ele>1225.1</ele>
        <time>2021-08-18T11:40:53Z</time>
      </trkpt>
      <trkpt lat="46.55493" lon="6.08475">
        <ele>1225.4</ele>
        <time>2021-08-18T11:40:54Z</time>
      </trkpt>
      <trkpt lat="46.5549" lon="6.08477">
        <ele>1225.5</ele>
        <time>2021-08-18T11:40:56Z</time>
      </trkpt>
      <trkpt lat="46.55487" lon="6.0848">
        <ele>1225.7</ele>
        <time>2021-08-18T11:40:57Z</time>
      </trkpt>
      <trkpt lat="46.55483" lon="6.08483">
        <ele>1225.8</ele>
        <time>2021-08-18T11:40:58Z</time>
      </trkpt>
      <trkpt lat="46.5548" lon="6.08485">
        <ele>1226</ele>
        <time>2021-08-18T11:40:59Z</time>
      </trkpt>
      <trkpt lat="46.55477" lon="6.08487">
        <ele>1226.1</ele>
        <time>2021-08-18T11:41:00Z</time>
      </trkpt>
      <trkpt lat="46.55475" lon="6.08492">
        <ele>1226.2</ele>
        <time>2021-08-18T11:41:01Z</time>
      </trkpt>
      <trkpt lat="46.55475" lon="6.08494">
        <ele>1226.3</ele>
        <time>2021-08-18T11:41:02Z</time>
      </trkpt>
      <trkpt lat="46.55473" lon="6.08498">
        <ele>1226.4</ele>
        <time>2021-08-18T11:41:04Z</time>
      </trkpt>
      <trkpt lat="46.55471" lon="6.08503">
        <ele>1226.5</ele>
        <time>2021-08-18T11:41:05Z</time>
      </trkpt>
      <trkpt lat="46.55469" lon="6.08507">
        <ele>1226.7</ele>
        <time>2021-08-18T11:41:06Z</time>
      </trkpt>
      <trkpt lat="46.55467" lon="6.0851">
        <ele>1226.8</ele>
        <time>2021-08-18T11:41:07Z</time>
      </trkpt>
      <trkpt lat="46.55462" lon="6.08517">
        <ele>1227.1</ele>
        <time>2021-08-18T11:41:09Z</time>
      </trkpt>
      <trkpt lat="46.5546" lon="6.08522">
        <ele>1227.3</ele>
        <time>2021-08-18T11:41:11Z</time>
      </trkpt>
      <trkpt lat="46.55458" lon="6.08527">
        <ele>1227.4</ele>
        <time>2021-08-18T11:41:12Z</time>
      </trkpt>
      <trkpt lat="46.55457" lon="6.08528">
        <ele>1227.5</ele>
        <time>2021-08-18T11:41:13Z</time>
      </trkpt>
      <trkpt lat="46.55454" lon="6.08534">
        <ele>1227.7</ele>
        <time>2021-08-18T11:41:15Z</time>
      </trkpt>
      <trkpt lat="46.55453" lon="6.08539">
        <ele>1227.8</ele>
        <time>2021-08-18T11:41:16Z</time>
      </trkpt>
      <trkpt lat="46.55453" lon="6.08541">
        <ele>1227.9</ele>
        <time>2021-08-18T11:41:17Z</time>
      </trkpt>
      <trkpt lat="46.55453" lon="6.08547">
        <ele>1228.1</ele>
        <time>2021-08-18T11:41:19Z</time>
      </trkpt>
      <trkpt lat="46.55454" lon="6.08552">
        <ele>1228.2</ele>
        <time>2021-08-18T11:41:21Z</time>
      </trkpt>
      <trkpt lat="46.55455" lon="6.08556">
        <ele>1228.3</ele>
        <time>2021-08-18T11:41:23Z</time>
      </trkpt>
      <trkpt lat="46.55455" lon="6.08558">
        <ele>1228.4</ele>
        <time>2021-08-18T11:41:24Z</time>
      </trkpt>
      <trkpt lat="46.55454" lon="6.08561">
        <ele>1228.5</ele>
        <time>2021-08-18T11:41:25Z</time>
      </trkpt>
      <trkpt lat="46.55454" lon="6.08562">
        <ele>1228.5</ele>
        <time>2021-08-18T11:41:27Z</time>
      </trkpt>
      <trkpt lat="46.55453" lon="6.08563">
        <ele>1228.6</ele>
        <time>2021-08-18T11:41:28Z</time>
      </trkpt>
      <trkpt lat="46.55452" lon="6.08565">
        <ele>1228.6</ele>
        <time>2021-08-18T11:41:29Z</time>
      </trkpt>
      <trkpt lat="46.55451" lon="6.08565">
        <ele>1228.7</ele>
        <time>2021-08-18T11:41:30Z</time>
      </trkpt>
      <trkpt lat="46.55451" lon="6.08565">
        <ele>1228.7</ele>
        <time>2021-08-18T11:41:32Z</time>
      </trkpt>
      <trkpt lat="46.55451" lon="6.08565">
        <ele>1228.7</ele>
        <time>2021-08-18T11:41:33Z</time>
      </trkpt>
      <trkpt lat="46.5545" lon="6.08565">
        <ele>1228.7</ele>
        <time>2021-08-18T11:41:34Z</time>
      </trkpt>
      <trkpt lat="46.5545" lon="6.08565">
        <ele>1228.7</ele>
        <time>2021-08-18T11:41:35Z</time>
      </trkpt>
      <trkpt lat="46.5545" lon="6.08565">
        <ele>1228.7</ele>
        <time>2021-08-18T11:41:37Z</time>
      </trkpt>
      <trkpt lat="46.5545" lon="6.08565">
        <ele>1228.7</ele>
        <time>2021-08-18T11:41:39Z</time>
      </trkpt>
      <trkpt lat="46.5545" lon="6.08565">
        <ele>1228.7</ele>
        <time>2021-08-18T11:41:41Z</time>
      </trkpt>
      <trkpt lat="46.5544" lon="6.08565">
        <ele>1229.1</ele>
        <time>2021-08-18T11:42:07Z</time>
      </trkpt>
      <trkpt lat="46.55438" lon="6.0857">
        <ele>1229.3</ele>
        <time>2021-08-18T11:42:08Z</time>
      </trkpt>
      <trkpt lat="46.55434" lon="6.08577">
        <ele>1229.5</ele>
        <time>2021-08-18T11:42:10Z</time>
      </trkpt>
      <trkpt lat="46.55431" lon="6.08585">
        <ele>1229.8</ele>
        <time>2021-08-18T11:42:11Z</time>
      </trkpt>
      <trkpt lat="46.55428" lon="6.08593">
        <ele>1230.1</ele>
        <time>2021-08-18T11:42:13Z</time>
      </trkpt>
      <trkpt lat="46.55425" lon="6.08599">
        <ele>1230.3</ele>
        <time>2021-08-18T11:42:14Z</time>
      </trkpt>
      <trkpt lat="46.55422" lon="6.08606">
        <ele>1230.3</ele>
        <time>2021-08-18T11:42:15Z</time>
      </trkpt>
      <trkpt lat="46.55417" lon="6.08613">
        <ele>1230.2</ele>
        <time>2021-08-18T11:42:17Z</time>
      </trkpt>
      <trkpt lat="46.55413" lon="6.08618">
        <ele>1230.3</ele>
        <time>2021-08-18T11:42:19Z</time>
      </trkpt>
      <trkpt lat="46.5541" lon="6.08625">
        <ele>1230.3</ele>
        <time>2021-08-18T11:42:21Z</time>
      </trkpt>
      <trkpt lat="46.55407" lon="6.08629">
        <ele>1230.4</ele>
        <time>2021-08-18T11:42:22Z</time>
      </trkpt>
      <trkpt lat="46.55404" lon="6.08634">
        <ele>1230.5</ele>
        <time>2021-08-18T11:42:23Z</time>
      </trkpt>
      <trkpt lat="46.554" lon="6.08643">
        <ele>1230.5</ele>
        <time>2021-08-18T11:42:25Z</time>
      </trkpt>
      <trkpt lat="46.55398" lon="6.08647">
        <ele>1230.6</ele>
        <time>2021-08-18T11:42:26Z</time>
      </trkpt>
      <trkpt lat="46.55394" lon="6.0865">
        <ele>1230.6</ele>
        <time>2021-08-18T11:42:27Z</time>
      </trkpt>
      <trkpt lat="46.5539" lon="6.08652">
        <ele>1230.6</ele>
        <time>2021-08-18T11:42:28Z</time>
      </trkpt>
      <trkpt lat="46.55384" lon="6.08653">
        <ele>1230.5</ele>
        <time>2021-08-18T11:42:29Z</time>
      </trkpt>
      <trkpt lat="46.55376" lon="6.08662">
        <ele>1230.4</ele>
        <time>2021-08-18T11:42:31Z</time>
      </trkpt>
      <trkpt lat="46.55366" lon="6.08666">
        <ele>1230.1</ele>
        <time>2021-08-18T11:42:33Z</time>
      </trkpt>
      <trkpt lat="46.55361" lon="6.08669">
        <ele>1229.9</ele>
        <time>2021-08-18T11:42:34Z</time>
      </trkpt>
      <trkpt lat="46.55355" lon="6.0867">
        <ele>1229.7</ele>
        <time>2021-08-18T11:42:35Z</time>
      </trkpt>
      <trkpt lat="46.55344" lon="6.0867">
        <ele>1229.1</ele>
        <time>2021-08-18T11:42:37Z</time>
      </trkpt>
      <trkpt lat="46.55332" lon="6.08671">
        <ele>1228.5</ele>
        <time>2021-08-18T11:42:39Z</time>
      </trkpt>
      <trkpt lat="46.55325" lon="6.08674">
        <ele>1228.1</ele>
        <time>2021-08-18T11:42:40Z</time>
      </trkpt>
      <trkpt lat="46.5531" lon="6.08683">
        <ele>1227</ele>
        <time>2021-08-18T11:42:42Z</time>
      </trkpt>
      <trkpt lat="46.55303" lon="6.08687">
        <ele>1226.4</ele>
        <time>2021-08-18T11:42:43Z</time>
      </trkpt>
      <trkpt lat="46.55291" lon="6.08695">
        <ele>1225.4</ele>
        <time>2021-08-18T11:42:45Z</time>
      </trkpt>
      <trkpt lat="46.55284" lon="6.08697">
        <ele>1225</ele>
        <time>2021-08-18T11:42:46Z</time>
      </trkpt>
      <trkpt lat="46.55277" lon="6.08699">
        <ele>1224.7</ele>
        <time>2021-08-18T11:42:47Z</time>
      </trkpt>
      <trkpt lat="46.55266" lon="6.08703">
        <ele>1224.2</ele>
        <time>2021-08-18T11:42:49Z</time>
      </trkpt>
      <trkpt lat="46.55256" lon="6.08706">
        <ele>1224.1</ele>
        <time>2021-08-18T11:42:51Z</time>
      </trkpt>
      <trkpt lat="46.55245" lon="6.0871">
        <ele>1224.1</ele>
        <time>2021-08-18T11:42:53Z</time>
      </trkpt>
      <trkpt lat="46.55236" lon="6.08711">
        <ele>1224.3</ele>
        <time>2021-08-18T11:42:55Z</time>
      </trkpt>
      <trkpt lat="46.55226" lon="6.08712">
        <ele>1224.6</ele>
        <time>2021-08-18T11:42:57Z</time>
      </trkpt>
      <trkpt lat="46.55219" lon="6.08711">
        <ele>1224.8</ele>
        <time>2021-08-18T11:42:59Z</time>
      </trkpt>
      <trkpt lat="46.55215" lon="6.0871">
        <ele>1225</ele>
        <time>2021-08-18T11:43:00Z</time>
      </trkpt>
      <trkpt lat="46.55209" lon="6.08709">
        <ele>1225.1</ele>
        <time>2021-08-18T11:43:01Z</time>
      </trkpt>
      <trkpt lat="46.55202" lon="6.08709">
        <ele>1225.2</ele>
        <time>2021-08-18T11:43:02Z</time>
      </trkpt>
      <trkpt lat="46.55192" lon="6.08711">
        <ele>1225.3</ele>
        <time>2021-08-18T11:43:04Z</time>
      </trkpt>
      <trkpt lat="46.55187" lon="6.08711">
        <ele>1225.4</ele>
        <time>2021-08-18T11:43:05Z</time>
      </trkpt>
      <trkpt lat="46.55179" lon="6.0871">
        <ele>1225.4</ele>
        <time>2021-08-18T11:43:07Z</time>
      </trkpt>
      <trkpt lat="46.55172" lon="6.08711">
        <ele>1225.3</ele>
        <time>2021-08-18T11:43:08Z</time>
      </trkpt>
      <trkpt lat="46.55167" lon="6.08715">
        <ele>1225.3</ele>
        <time>2021-08-18T11:43:09Z</time>
      </trkpt>
      <trkpt lat="46.55158" lon="6.0872">
        <ele>1225.1</ele>
        <time>2021-08-18T11:43:11Z</time>
      </trkpt>
      <trkpt lat="46.55154" lon="6.08726">
        <ele>1224.9</ele>
        <time>2021-08-18T11:43:13Z</time>
      </trkpt>
      <trkpt lat="46.55149" lon="6.08731">
        <ele>1224.7</ele>
        <time>2021-08-18T11:43:14Z</time>
      </trkpt>
      <trkpt lat="46.5514" lon="6.08742">
        <ele>1224.5</ele>
        <time>2021-08-18T11:43:15Z</time>
      </trkpt>
      <trkpt lat="46.55136" lon="6.08746">
        <ele>1224.4</ele>
        <time>2021-08-18T11:43:16Z</time>
      </trkpt>
      <trkpt lat="46.55131" lon="6.08751">
        <ele>1224.3</ele>
        <time>2021-08-18T11:43:18Z</time>
      </trkpt>
      <trkpt lat="46.55129" lon="6.08753">
        <ele>1224.2</ele>
        <time>2021-08-18T11:43:19Z</time>
      </trkpt>
      <trkpt lat="46.55125" lon="6.08759">
        <ele>1224.2</ele>
        <time>2021-08-18T11:43:20Z</time>
      </trkpt>
      <trkpt lat="46.5512" lon="6.08766">
        <ele>1224.1</ele>
        <time>2021-08-18T11:43:21Z</time>
      </trkpt>
      <trkpt lat="46.55109" lon="6.08778">
        <ele>1223.9</ele>
        <time>2021-08-18T11:43:23Z</time>
      </trkpt>
      <trkpt lat="46.55104" lon="6.08783">
        <ele>1223.9</ele>
        <time>2021-08-18T11:43:24Z</time>
      </trkpt>
      <trkpt lat="46.55098" lon="6.08786">
        <ele>1223.9</ele>
        <time>2021-08-18T11:43:25Z</time>
      </trkpt>
      <trkpt lat="46.55088" lon="6.08789">
        <ele>1223.9</ele>
        <time>2021-08-18T11:43:27Z</time>
      </trkpt>
      <trkpt lat="46.55082" lon="6.08791">
        <ele>1223.9</ele>
        <time>2021-08-18T11:43:28Z</time>
      </trkpt>
      <trkpt lat="46.55078" lon="6.08794">
        <ele>1223.8</ele>
        <time>2021-08-18T11:43:29Z</time>
      </trkpt>
      <trkpt lat="46.55068" lon="6.08799">
        <ele>1223.8</ele>
        <time>2021-08-18T11:43:31Z</time>
      </trkpt>
      <trkpt lat="46.55058" lon="6.08802">
        <ele>1223.9</ele>
        <time>2021-08-18T11:43:33Z</time>
      </trkpt>
      <trkpt lat="46.55049" lon="6.08806">
        <ele>1224</ele>
        <time>2021-08-18T11:43:35Z</time>
      </trkpt>
      <trkpt lat="46.55041" lon="6.08813">
        <ele>1224.3</ele>
        <time>2021-08-18T11:43:37Z</time>
      </trkpt>
      <trkpt lat="46.55036" lon="6.08818">
        <ele>1224.5</ele>
        <time>2021-08-18T11:43:39Z</time>
      </trkpt>
      <trkpt lat="46.55032" lon="6.0882">
        <ele>1224.8</ele>
        <time>2021-08-18T11:43:41Z</time>
      </trkpt>
      <trkpt lat="46.55027" lon="6.08822">
        <ele>1225</ele>
        <time>2021-08-18T11:43:42Z</time>
      </trkpt>
      <trkpt lat="46.55024" lon="6.08823">
        <ele>1225.3</ele>
        <time>2021-08-18T11:43:43Z</time>
      </trkpt>
      <trkpt lat="46.55019" lon="6.08825">
        <ele>1225.6</ele>
        <time>2021-08-18T11:43:45Z</time>
      </trkpt>
      <trkpt lat="46.55017" lon="6.08826">
        <ele>1225.7</ele>
        <time>2021-08-18T11:43:46Z</time>
      </trkpt>
      <trkpt lat="46.55016" lon="6.08827">
        <ele>1225.8</ele>
        <time>2021-08-18T11:43:47Z</time>
      </trkpt>
      <trkpt lat="46.55013" lon="6.08828">
        <ele>1226</ele>
        <time>2021-08-18T11:43:49Z</time>
      </trkpt>
      <trkpt lat="46.5501" lon="6.08831">
        <ele>1226.1</ele>
        <time>2021-08-18T11:43:50Z</time>
      </trkpt>
      <trkpt lat="46.55008" lon="6.08833">
        <ele>1226.3</ele>
        <time>2021-08-18T11:43:51Z</time>
      </trkpt>
      <trkpt lat="46.55007" lon="6.08834">
        <ele>1226.3</ele>
        <time>2021-08-18T11:43:53Z</time>
      </trkpt>
      <trkpt lat="46.55006" lon="6.08835">
        <ele>1226.3</ele>
        <time>2021-08-18T11:43:54Z</time>
      </trkpt>
      <trkpt lat="46.55005" lon="6.08836">
        <ele>1226.4</ele>
        <time>2021-08-18T11:43:55Z</time>
      </trkpt>
      <trkpt lat="46.55005" lon="6.08837">
        <ele>1226.4</ele>
        <time>2021-08-18T11:43:57Z</time>
      </trkpt>
      <trkpt lat="46.55004" lon="6.08837">
        <ele>1226.5</ele>
        <time>2021-08-18T11:43:58Z</time>
      </trkpt>
      <trkpt lat="46.55003" lon="6.08838">
        <ele>1226.5</ele>
        <time>2021-08-18T11:43:59Z</time>
      </trkpt>
      <trkpt lat="46.54998" lon="6.0884">
        <ele>1226.7</ele>
        <time>2021-08-18T11:44:01Z</time>
      </trkpt>
      <trkpt lat="46.54994" lon="6.08843">
        <ele>1226.9</ele>
        <time>2021-08-18T11:44:02Z</time>
      </trkpt>
      <trkpt lat="46.5499" lon="6.08846">
        <ele>1227</ele>
        <time>2021-08-18T11:44:03Z</time>
      </trkpt>
      <trkpt lat="46.54985" lon="6.08848">
        <ele>1227.2</ele>
        <time>2021-08-18T11:44:05Z</time>
      </trkpt>
      <trkpt lat="46.54981" lon="6.08851">
        <ele>1227.3</ele>
        <time>2021-08-18T11:44:06Z</time>
      </trkpt>
      <trkpt lat="46.54977" lon="6.08855">
        <ele>1227.4</ele>
        <time>2021-08-18T11:44:08Z</time>
      </trkpt>
      <trkpt lat="46.54974" lon="6.08857">
        <ele>1227.6</ele>
        <time>2021-08-18T11:44:09Z</time>
      </trkpt>
      <trkpt lat="46.54971" lon="6.08858">
        <ele>1227.7</ele>
        <time>2021-08-18T11:44:10Z</time>
      </trkpt>
      <trkpt lat="46.5497" lon="6.08859">
        <ele>1227.7</ele>
        <time>2021-08-18T11:44:11Z</time>
      </trkpt>
      <trkpt lat="46.54967" lon="6.08864">
        <ele>1227.8</ele>
        <time>2021-08-18T11:44:13Z</time>
      </trkpt>
      <trkpt lat="46.54965" lon="6.08866">
        <ele>1227.9</ele>
        <time>2021-08-18T11:44:14Z</time>
      </trkpt>
      <trkpt lat="46.54961" lon="6.08871">
        <ele>1228</ele>
        <time>2021-08-18T11:44:16Z</time>
      </trkpt>
      <trkpt lat="46.54956" lon="6.08876">
        <ele>1228.2</ele>
        <time>2021-08-18T11:44:18Z</time>
      </trkpt>
      <trkpt lat="46.54951" lon="6.08878">
        <ele>1228.3</ele>
        <time>2021-08-18T11:44:20Z</time>
      </trkpt>
      <trkpt lat="46.54946" lon="6.08878">
        <ele>1228.4</ele>
        <time>2021-08-18T11:44:22Z</time>
      </trkpt>
      <trkpt lat="46.54941" lon="6.08878">
        <ele>1228.5</ele>
        <time>2021-08-18T11:44:24Z</time>
      </trkpt>
      <trkpt lat="46.54938" lon="6.08879">
        <ele>1228.5</ele>
        <time>2021-08-18T11:44:25Z</time>
      </trkpt>
      <trkpt lat="46.54935" lon="6.08881">
        <ele>1228.6</ele>
        <time>2021-08-18T11:44:27Z</time>
      </trkpt>
      <trkpt lat="46.54933" lon="6.08884">
        <ele>1228.6</ele>
        <time>2021-08-18T11:44:28Z</time>
      </trkpt>
      <trkpt lat="46.54931" lon="6.08888">
        <ele>1228.6</ele>
        <time>2021-08-18T11:44:29Z</time>
      </trkpt>
      <trkpt lat="46.54929" lon="6.08893">
        <ele>1228.7</ele>
        <time>2021-08-18T11:44:31Z</time>
      </trkpt>
      <trkpt lat="46.54927" lon="6.08898">
        <ele>1228.7</ele>
        <time>2021-08-18T11:44:32Z</time>
      </trkpt>
      <trkpt lat="46.54926" lon="6.08902">
        <ele>1228.8</ele>
        <time>2021-08-18T11:44:34Z</time>
      </trkpt>
      <trkpt lat="46.54925" lon="6.08906">
        <ele>1228.8</ele>
        <time>2021-08-18T11:44:35Z</time>
      </trkpt>
      <trkpt lat="46.54924" lon="6.0891">
        <ele>1228.9</ele>
        <time>2021-08-18T11:44:36Z</time>
      </trkpt>
      <trkpt lat="46.54923" lon="6.08911">
        <ele>1228.9</ele>
        <time>2021-08-18T11:44:38Z</time>
      </trkpt>
      <trkpt lat="46.54922" lon="6.08911">
        <ele>1228.9</ele>
        <time>2021-08-18T11:44:39Z</time>
      </trkpt>
      <trkpt lat="46.54921" lon="6.08912">
        <ele>1228.9</ele>
        <time>2021-08-18T11:44:40Z</time>
      </trkpt>
      <trkpt lat="46.5492" lon="6.08912">
        <ele>1228.9</ele>
        <time>2021-08-18T11:44:41Z</time>
      </trkpt>
      <trkpt lat="46.54917" lon="6.08914">
        <ele>1229</ele>
        <time>2021-08-18T11:44:43Z</time>
      </trkpt>
      <trkpt lat="46.54914" lon="6.08915">
        <ele>1229.1</ele>
        <time>2021-08-18T11:44:44Z</time>
      </trkpt>
      <trkpt lat="46.54911" lon="6.08916">
        <ele>1229.2</ele>
        <time>2021-08-18T11:44:46Z</time>
      </trkpt>
      <trkpt lat="46.54908" lon="6.08916">
        <ele>1229.2</ele>
        <time>2021-08-18T11:44:47Z</time>
      </trkpt>
      <trkpt lat="46.54907" lon="6.08916">
        <ele>1229.3</ele>
        <time>2021-08-18T11:44:48Z</time>
      </trkpt>
      <trkpt lat="46.54906" lon="6.08916">
        <ele>1229.3</ele>
        <time>2021-08-18T11:44:49Z</time>
      </trkpt>
      <trkpt lat="46.54903" lon="6.08916">
        <ele>1229.4</ele>
        <time>2021-08-18T11:44:51Z</time>
      </trkpt>
      <trkpt lat="46.54902" lon="6.08917">
        <ele>1229.5</ele>
        <time>2021-08-18T11:44:52Z</time>
      </trkpt>
      <trkpt lat="46.549" lon="6.08918">
        <ele>1229.5</ele>
        <time>2021-08-18T11:44:54Z</time>
      </trkpt>
      <trkpt lat="46.54872" lon="6.0894">
        <ele>1231.8</ele>
        <time>2021-08-18T11:45:09Z</time>
      </trkpt>
      <trkpt lat="46.54867" lon="6.08946">
        <ele>1232.4</ele>
        <time>2021-08-18T11:45:11Z</time>
      </trkpt>
      <trkpt lat="46.54865" lon="6.0895">
        <ele>1232.7</ele>
        <time>2021-08-18T11:45:12Z</time>
      </trkpt>
      <trkpt lat="46.54863" lon="6.08957">
        <ele>1233.3</ele>
        <time>2021-08-18T11:45:14Z</time>
      </trkpt>
      <trkpt lat="46.54861" lon="6.08961">
        <ele>1233.6</ele>
        <time>2021-08-18T11:45:15Z</time>
      </trkpt>
      <trkpt lat="46.54859" lon="6.08966">
        <ele>1234</ele>
        <time>2021-08-18T11:45:17Z</time>
      </trkpt>
      <trkpt lat="46.54859" lon="6.08972">
        <ele>1234.5</ele>
        <time>2021-08-18T11:45:19Z</time>
      </trkpt>
      <trkpt lat="46.5486" lon="6.08973">
        <ele>1234.6</ele>
        <time>2021-08-18T11:45:20Z</time>
      </trkpt>
      <trkpt lat="46.54859" lon="6.08975">
        <ele>1234.7</ele>
        <time>2021-08-18T11:45:21Z</time>
      </trkpt>
      <trkpt lat="46.54859" lon="6.08976">
        <ele>1234.9</ele>
        <time>2021-08-18T11:45:23Z</time>
      </trkpt>
      <trkpt lat="46.54858" lon="6.08977">
        <ele>1234.9</ele>
        <time>2021-08-18T11:45:24Z</time>
      </trkpt>
      <trkpt lat="46.54857" lon="6.08978">
        <ele>1235.1</ele>
        <time>2021-08-18T11:45:26Z</time>
      </trkpt>
      <trkpt lat="46.54856" lon="6.08979">
        <ele>1235.2</ele>
        <time>2021-08-18T11:45:27Z</time>
      </trkpt>
      <trkpt lat="46.54855" lon="6.08981">
        <ele>1235.4</ele>
        <time>2021-08-18T11:45:28Z</time>
      </trkpt>
      <trkpt lat="46.54854" lon="6.08982">
        <ele>1235.5</ele>
        <time>2021-08-18T11:45:29Z</time>
      </trkpt>
      <trkpt lat="46.54852" lon="6.08985">
        <ele>1235.9</ele>
        <time>2021-08-18T11:45:31Z</time>
      </trkpt>
      <trkpt lat="46.54849" lon="6.08989">
        <ele>1236.2</ele>
        <time>2021-08-18T11:45:32Z</time>
      </trkpt>
      <trkpt lat="46.54846" lon="6.08991">
        <ele>1236.6</ele>
        <time>2021-08-18T11:45:34Z</time>
      </trkpt>
      <trkpt lat="46.54843" lon="6.08995">
        <ele>1236.9</ele>
        <time>2021-08-18T11:45:35Z</time>
      </trkpt>
      <trkpt lat="46.54842" lon="6.08996">
        <ele>1237.1</ele>
        <time>2021-08-18T11:45:36Z</time>
      </trkpt>
      <trkpt lat="46.54839" lon="6.09001">
        <ele>1237.5</ele>
        <time>2021-08-18T11:45:38Z</time>
      </trkpt>
      <trkpt lat="46.54838" lon="6.09003">
        <ele>1237.6</ele>
        <time>2021-08-18T11:45:39Z</time>
      </trkpt>
      <trkpt lat="46.54837" lon="6.09006">
        <ele>1237.8</ele>
        <time>2021-08-18T11:45:41Z</time>
      </trkpt>
      <trkpt lat="46.54835" lon="6.09009">
        <ele>1238</ele>
        <time>2021-08-18T11:45:42Z</time>
      </trkpt>
      <trkpt lat="46.54833" lon="6.0901">
        <ele>1238.1</ele>
        <time>2021-08-18T11:45:43Z</time>
      </trkpt>
      <trkpt lat="46.5483" lon="6.09014">
        <ele>1238.4</ele>
        <time>2021-08-18T11:45:45Z</time>
      </trkpt>
      <trkpt lat="46.54827" lon="6.0902">
        <ele>1238.8</ele>
        <time>2021-08-18T11:45:47Z</time>
      </trkpt>
      <trkpt lat="46.54824" lon="6.09024">
        <ele>1239</ele>
        <time>2021-08-18T11:45:49Z</time>
      </trkpt>
      <trkpt lat="46.54822" lon="6.09026">
        <ele>1239.1</ele>
        <time>2021-08-18T11:45:50Z</time>
      </trkpt>
      <trkpt lat="46.54821" lon="6.09028">
        <ele>1239.2</ele>
        <time>2021-08-18T11:45:51Z</time>
      </trkpt>
      <trkpt lat="46.5482" lon="6.09031">
        <ele>1239.4</ele>
        <time>2021-08-18T11:45:52Z</time>
      </trkpt>
      <trkpt lat="46.54819" lon="6.09032">
        <ele>1239.4</ele>
        <time>2021-08-18T11:45:53Z</time>
      </trkpt>
      <trkpt lat="46.54821" lon="6.09035">
        <ele>1239.5</ele>
        <time>2021-08-18T11:45:55Z</time>
      </trkpt>
      <trkpt lat="46.54821" lon="6.09036">
        <ele>1239.6</ele>
        <time>2021-08-18T11:45:56Z</time>
      </trkpt>
      <trkpt lat="46.54818" lon="6.09038">
        <ele>1239.7</ele>
        <time>2021-08-18T11:45:58Z</time>
      </trkpt>
      <trkpt lat="46.54816" lon="6.09038">
        <ele>1239.8</ele>
        <time>2021-08-18T11:45:59Z</time>
      </trkpt>
      <trkpt lat="46.54813" lon="6.09039">
        <ele>1239.9</ele>
        <time>2021-08-18T11:46:01Z</time>
      </trkpt>
      <trkpt lat="46.54807" lon="6.09041">
        <ele>1240.1</ele>
        <time>2021-08-18T11:46:03Z</time>
      </trkpt>
      <trkpt lat="46.54802" lon="6.09042">
        <ele>1240.3</ele>
        <time>2021-08-18T11:46:05Z</time>
      </trkpt>
      <trkpt lat="46.548" lon="6.09043">
        <ele>1240.4</ele>
        <time>2021-08-18T11:46:07Z</time>
      </trkpt>
      <trkpt lat="46.548" lon="6.09044">
        <ele>1240.4</ele>
        <time>2021-08-18T11:46:09Z</time>
      </trkpt>
      <trkpt lat="46.548" lon="6.09044">
        <ele>1240.4</ele>
        <time>2021-08-18T11:46:10Z</time>
      </trkpt>
      <trkpt lat="46.548" lon="6.09044">
        <ele>1240.4</ele>
        <time>2021-08-18T11:46:11Z</time>
      </trkpt>
      <trkpt lat="46.548" lon="6.09046">
        <ele>1240.5</ele>
        <time>2021-08-18T11:46:13Z</time>
      </trkpt>
      <trkpt lat="46.54799" lon="6.09047">
        <ele>1240.5</ele>
        <time>2021-08-18T11:46:14Z</time>
      </trkpt>
      <trkpt lat="46.54797" lon="6.09049">
        <ele>1240.6</ele>
        <time>2021-08-18T11:46:16Z</time>
      </trkpt>
      <trkpt lat="46.54781" lon="6.09053">
        <ele>1241.3</ele>
        <time>2021-08-18T11:46:27Z</time>
      </trkpt>
      <trkpt lat="46.54777" lon="6.09055">
        <ele>1241.5</ele>
        <time>2021-08-18T11:46:28Z</time>
      </trkpt>
      <trkpt lat="46.54772" lon="6.09057">
        <ele>1241.7</ele>
        <time>2021-08-18T11:46:29Z</time>
      </trkpt>
      <trkpt lat="46.54765" lon="6.09058">
        <ele>1242.1</ele>
        <time>2021-08-18T11:46:31Z</time>
      </trkpt>
      <trkpt lat="46.54762" lon="6.09059">
        <ele>1242.3</ele>
        <time>2021-08-18T11:46:32Z</time>
      </trkpt>
      <trkpt lat="46.5476" lon="6.09059">
        <ele>1242.4</ele>
        <time>2021-08-18T11:46:33Z</time>
      </trkpt>
      <trkpt lat="46.54757" lon="6.0906">
        <ele>1242.6</ele>
        <time>2021-08-18T11:46:35Z</time>
      </trkpt>
      <trkpt lat="46.54754" lon="6.09061">
        <ele>1242.8</ele>
        <time>2021-08-18T11:46:36Z</time>
      </trkpt>
      <trkpt lat="46.54752" lon="6.09062">
        <ele>1242.9</ele>
        <time>2021-08-18T11:46:37Z</time>
      </trkpt>
      <trkpt lat="46.54752" lon="6.09063">
        <ele>1243</ele>
        <time>2021-08-18T11:46:39Z</time>
      </trkpt>
      <trkpt lat="46.54752" lon="6.09064">
        <ele>1243</ele>
        <time>2021-08-18T11:46:40Z</time>
      </trkpt>
      <trkpt lat="46.54752" lon="6.09064">
        <ele>1243</ele>
        <time>2021-08-18T11:46:41Z</time>
      </trkpt>
      <trkpt lat="46.54752" lon="6.09064">
        <ele>1243</ele>
        <time>2021-08-18T11:46:43Z</time>
      </trkpt>
      <trkpt lat="46.54751" lon="6.09064">
        <ele>1243</ele>
        <time>2021-08-18T11:46:45Z</time>
      </trkpt>
      <trkpt lat="46.54751" lon="6.09065">
        <ele>1243.1</ele>
        <time>2021-08-18T11:46:46Z</time>
      </trkpt>
      <trkpt lat="46.5475" lon="6.09066">
        <ele>1243.1</ele>
        <time>2021-08-18T11:46:47Z</time>
      </trkpt>
      <trkpt lat="46.54743" lon="6.09072">
        <ele>1243.8</ele>
        <time>2021-08-18T11:46:53Z</time>
      </trkpt>
      <trkpt lat="46.54738" lon="6.09074">
        <ele>1244.1</ele>
        <time>2021-08-18T11:46:55Z</time>
      </trkpt>
      <trkpt lat="46.54737" lon="6.09074">
        <ele>1244.2</ele>
        <time>2021-08-18T11:46:56Z</time>
      </trkpt>
      <trkpt lat="46.54735" lon="6.09074">
        <ele>1244.4</ele>
        <time>2021-08-18T11:46:57Z</time>
      </trkpt>
      <trkpt lat="46.5473" lon="6.09075">
        <ele>1244.8</ele>
        <time>2021-08-18T11:46:59Z</time>
      </trkpt>
      <trkpt lat="46.54726" lon="6.09076">
        <ele>1245</ele>
        <time>2021-08-18T11:47:00Z</time>
      </trkpt>
      <trkpt lat="46.54722" lon="6.09077">
        <ele>1245.4</ele>
        <time>2021-08-18T11:47:02Z</time>
      </trkpt>
      <trkpt lat="46.5472" lon="6.09079">
        <ele>1245.6</ele>
        <time>2021-08-18T11:47:03Z</time>
      </trkpt>
      <trkpt lat="46.54717" lon="6.09083">
        <ele>1245.9</ele>
        <time>2021-08-18T11:47:04Z</time>
      </trkpt>
      <trkpt lat="46.54715" lon="6.09087">
        <ele>1246.1</ele>
        <time>2021-08-18T11:47:05Z</time>
      </trkpt>
      <trkpt lat="46.54714" lon="6.09088">
        <ele>1246.2</ele>
        <time>2021-08-18T11:47:06Z</time>
      </trkpt>
      <trkpt lat="46.54713" lon="6.0909">
        <ele>1246.3</ele>
        <time>2021-08-18T11:47:07Z</time>
      </trkpt>
      <trkpt lat="46.54712" lon="6.09092">
        <ele>1246.5</ele>
        <time>2021-08-18T11:47:08Z</time>
      </trkpt>
      <trkpt lat="46.54711" lon="6.09094">
        <ele>1246.6</ele>
        <time>2021-08-18T11:47:09Z</time>
      </trkpt>
      <trkpt lat="46.5471" lon="6.09096">
        <ele>1246.7</ele>
        <time>2021-08-18T11:47:10Z</time>
      </trkpt>
      <trkpt lat="46.54709" lon="6.091">
        <ele>1246.9</ele>
        <time>2021-08-18T11:47:12Z</time>
      </trkpt>
      <trkpt lat="46.54708" lon="6.09102">
        <ele>1247</ele>
        <time>2021-08-18T11:47:13Z</time>
      </trkpt>
      <trkpt lat="46.54707" lon="6.09107">
        <ele>1247.3</ele>
        <time>2021-08-18T11:47:14Z</time>
      </trkpt>
      <trkpt lat="46.54707" lon="6.09108">
        <ele>1247.4</ele>
        <time>2021-08-18T11:47:15Z</time>
      </trkpt>
      <trkpt lat="46.54705" lon="6.09112">
        <ele>1247.6</ele>
        <time>2021-08-18T11:47:17Z</time>
      </trkpt>
      <trkpt lat="46.54705" lon="6.09116">
        <ele>1247.8</ele>
        <time>2021-08-18T11:47:18Z</time>
      </trkpt>
      <trkpt lat="46.54705" lon="6.09119">
        <ele>1248</ele>
        <time>2021-08-18T11:47:19Z</time>
      </trkpt>
      <trkpt lat="46.54704" lon="6.09124">
        <ele>1248.3</ele>
        <time>2021-08-18T11:47:21Z</time>
      </trkpt>
      <trkpt lat="46.54702" lon="6.0913">
        <ele>1248.6</ele>
        <time>2021-08-18T11:47:23Z</time>
      </trkpt>
      <trkpt lat="46.547" lon="6.09137">
        <ele>1249</ele>
        <time>2021-08-18T11:47:24Z</time>
      </trkpt>
      <trkpt lat="46.54699" lon="6.09141">
        <ele>1249.3</ele>
        <time>2021-08-18T11:47:25Z</time>
      </trkpt>
      <trkpt lat="46.54696" lon="6.09146">
        <ele>1249.6</ele>
        <time>2021-08-18T11:47:27Z</time>
      </trkpt>
      <trkpt lat="46.54694" lon="6.09151">
        <ele>1249.9</ele>
        <time>2021-08-18T11:47:28Z</time>
      </trkpt>
      <trkpt lat="46.54689" lon="6.09165">
        <ele>1250.7</ele>
        <time>2021-08-18T11:47:29Z</time>
      </trkpt>
      <trkpt lat="46.54678" lon="6.09178">
        <ele>1251.6</ele>
        <time>2021-08-18T11:47:31Z</time>
      </trkpt>
      <trkpt lat="46.54666" lon="6.0919">
        <ele>1252.1</ele>
        <time>2021-08-18T11:47:33Z</time>
      </trkpt>
      <trkpt lat="46.54654" lon="6.09206">
        <ele>1252.3</ele>
        <time>2021-08-18T11:47:35Z</time>
      </trkpt>
      <trkpt lat="46.54645" lon="6.09228">
        <ele>1251.8</ele>
        <time>2021-08-18T11:47:37Z</time>
      </trkpt>
      <trkpt lat="46.5464" lon="6.09254">
        <ele>1250.7</ele>
        <time>2021-08-18T11:47:39Z</time>
      </trkpt>
      <trkpt lat="46.54639" lon="6.09269">
        <ele>1250</ele>
        <time>2021-08-18T11:47:40Z</time>
      </trkpt>
      <trkpt lat="46.54638" lon="6.09281">
        <ele>1249.3</ele>
        <time>2021-08-18T11:47:41Z</time>
      </trkpt>
      <trkpt lat="46.54633" lon="6.09306">
        <ele>1247.9</ele>
        <time>2021-08-18T11:47:43Z</time>
      </trkpt>
      <trkpt lat="46.54621" lon="6.09334">
        <ele>1246.1</ele>
        <time>2021-08-18T11:47:45Z</time>
      </trkpt>
      <trkpt lat="46.54613" lon="6.09347">
        <ele>1245.1</ele>
        <time>2021-08-18T11:47:46Z</time>
      </trkpt>
      <trkpt lat="46.54604" lon="6.09357">
        <ele>1244.2</ele>
        <time>2021-08-18T11:47:47Z</time>
      </trkpt>
      <trkpt lat="46.54597" lon="6.09365">
        <ele>1243.4</ele>
        <time>2021-08-18T11:47:48Z</time>
      </trkpt>
      <trkpt lat="46.5459" lon="6.0937">
        <ele>1242.7</ele>
        <time>2021-08-18T11:47:49Z</time>
      </trkpt>
      <trkpt lat="46.54574" lon="6.09373">
        <ele>1241.1</ele>
        <time>2021-08-18T11:47:51Z</time>
      </trkpt>
      <trkpt lat="46.54568" lon="6.09371">
        <ele>1240.5</ele>
        <time>2021-08-18T11:47:52Z</time>
      </trkpt>
      <trkpt lat="46.54564" lon="6.09371">
        <ele>1240</ele>
        <time>2021-08-18T11:47:53Z</time>
      </trkpt>
      <trkpt lat="46.54551" lon="6.09378">
        <ele>1238.7</ele>
        <time>2021-08-18T11:47:55Z</time>
      </trkpt>
      <trkpt lat="46.54545" lon="6.09379">
        <ele>1238</ele>
        <time>2021-08-18T11:47:57Z</time>
      </trkpt>
      <trkpt lat="46.54544" lon="6.09378">
        <ele>1237.9</ele>
        <time>2021-08-18T11:47:58Z</time>
      </trkpt>
      <trkpt lat="46.5454" lon="6.09375">
        <ele>1237.4</ele>
        <time>2021-08-18T11:48:00Z</time>
      </trkpt>
      <trkpt lat="46.54537" lon="6.09371">
        <ele>1237</ele>
        <time>2021-08-18T11:48:02Z</time>
      </trkpt>
      <trkpt lat="46.54536" lon="6.09371">
        <ele>1236.9</ele>
        <time>2021-08-18T11:48:03Z</time>
      </trkpt>
      <trkpt lat="46.54535" lon="6.09371">
        <ele>1236.8</ele>
        <time>2021-08-18T11:48:05Z</time>
      </trkpt>
      <trkpt lat="46.54534" lon="6.09371">
        <ele>1236.6</ele>
        <time>2021-08-18T11:48:06Z</time>
      </trkpt>
      <trkpt lat="46.54532" lon="6.09373">
        <ele>1236.4</ele>
        <time>2021-08-18T11:48:08Z</time>
      </trkpt>
      <trkpt lat="46.54532" lon="6.09375">
        <ele>1236.2</ele>
        <time>2021-08-18T11:48:09Z</time>
      </trkpt>
      <trkpt lat="46.54532" lon="6.09376">
        <ele>1236.1</ele>
        <time>2021-08-18T11:48:10Z</time>
      </trkpt>
      <trkpt lat="46.54534" lon="6.0938">
        <ele>1235.8</ele>
        <time>2021-08-18T11:48:12Z</time>
      </trkpt>
      <trkpt lat="46.54536" lon="6.09384">
        <ele>1235.4</ele>
        <time>2021-08-18T11:48:14Z</time>
      </trkpt>
      <trkpt lat="46.54539" lon="6.09385">
        <ele>1235.1</ele>
        <time>2021-08-18T11:48:15Z</time>
      </trkpt>
      <trkpt lat="46.54542" lon="6.09385">
        <ele>1234.7</ele>
        <time>2021-08-18T11:48:16Z</time>
      </trkpt>
      <trkpt lat="46.54545" lon="6.09387">
        <ele>1234.3</ele>
        <time>2021-08-18T11:48:17Z</time>
      </trkpt>
      <trkpt lat="46.54546" lon="6.09387">
        <ele>1234.2</ele>
        <time>2021-08-18T11:48:18Z</time>
      </trkpt>
      <trkpt lat="46.54547" lon="6.09389">
        <ele>1234</ele>
        <time>2021-08-18T11:48:19Z</time>
      </trkpt>
      <trkpt lat="46.54549" lon="6.09391">
        <ele>1233.7</ele>
        <time>2021-08-18T11:48:21Z</time>
      </trkpt>
      <trkpt lat="46.54552" lon="6.09388">
        <ele>1233.4</ele>
        <time>2021-08-18T11:48:22Z</time>
      </trkpt>
      <trkpt lat="46.54552" lon="6.09388">
        <ele>1233.3</ele>
        <time>2021-08-18T11:48:23Z</time>
      </trkpt>
      <trkpt lat="46.54554" lon="6.09383">
        <ele>1233</ele>
        <time>2021-08-18T11:48:25Z</time>
      </trkpt>
      <trkpt lat="46.54555" lon="6.09382">
        <ele>1232.8</ele>
        <time>2021-08-18T11:48:27Z</time>
      </trkpt>
      <trkpt lat="46.54555" lon="6.09382">
        <ele>1232.7</ele>
        <time>2021-08-18T11:48:28Z</time>
      </trkpt>
      <trkpt lat="46.54556" lon="6.09381">
        <ele>1232.6</ele>
        <time>2021-08-18T11:48:30Z</time>
      </trkpt>
      <trkpt lat="46.54556" lon="6.09381">
        <ele>1232.6</ele>
        <time>2021-08-18T11:48:31Z</time>
      </trkpt>
      <trkpt lat="46.54557" lon="6.09381">
        <ele>1232.4</ele>
        <time>2021-08-18T11:48:33Z</time>
      </trkpt>
      <trkpt lat="46.54559" lon="6.0938">
        <ele>1232.3</ele>
        <time>2021-08-18T11:48:34Z</time>
      </trkpt>
      <trkpt lat="46.54559" lon="6.09379">
        <ele>1232.2</ele>
        <time>2021-08-18T11:48:36Z</time>
      </trkpt>
      <trkpt lat="46.54559" lon="6.0938">
        <ele>1232.2</ele>
        <time>2021-08-18T11:48:37Z</time>
      </trkpt>
      <trkpt lat="46.5456" lon="6.0938">
        <ele>1232.2</ele>
        <time>2021-08-18T11:48:39Z</time>
      </trkpt>
      <trkpt lat="46.5456" lon="6.0938">
        <ele>1232.1</ele>
        <time>2021-08-18T11:48:41Z</time>
      </trkpt>
      <trkpt lat="46.5456" lon="6.0938">
        <ele>1232.1</ele>
        <time>2021-08-18T11:48:42Z</time>
      </trkpt>
      <trkpt lat="46.5456" lon="6.0938">
        <ele>1232.1</ele>
        <time>2021-08-18T11:48:43Z</time>
      </trkpt>
      <trkpt lat="46.5456" lon="6.09381">
        <ele>1232</ele>
        <time>2021-08-18T11:48:45Z</time>
      </trkpt>
      <trkpt lat="46.54552" lon="6.09385">
        <ele>1231.2</ele>
        <time>2021-08-18T11:48:52Z</time>
      </trkpt>
      <trkpt lat="46.54545" lon="6.09392">
        <ele>1230.4</ele>
        <time>2021-08-18T11:48:54Z</time>
      </trkpt>
      <trkpt lat="46.54541" lon="6.09398">
        <ele>1229.8</ele>
        <time>2021-08-18T11:48:55Z</time>
      </trkpt>
      <trkpt lat="46.54536" lon="6.09404">
        <ele>1229.3</ele>
        <time>2021-08-18T11:48:57Z</time>
      </trkpt>
      <trkpt lat="46.54533" lon="6.09407">
        <ele>1228.9</ele>
        <time>2021-08-18T11:48:58Z</time>
      </trkpt>
      <trkpt lat="46.54529" lon="6.09409">
        <ele>1228.6</ele>
        <time>2021-08-18T11:48:59Z</time>
      </trkpt>
      <trkpt lat="46.54525" lon="6.09412">
        <ele>1228.5</ele>
        <time>2021-08-18T11:49:00Z</time>
      </trkpt>
      <trkpt lat="46.54523" lon="6.09414">
        <ele>1228.5</ele>
        <time>2021-08-18T11:49:01Z</time>
      </trkpt>
      <trkpt lat="46.54522" lon="6.09415">
        <ele>1228.5</ele>
        <time>2021-08-18T11:49:02Z</time>
      </trkpt>
      <trkpt lat="46.54522" lon="6.09415">
        <ele>1228.5</ele>
        <time>2021-08-18T11:49:04Z</time>
      </trkpt>
      <trkpt lat="46.54522" lon="6.09412">
        <ele>1228.5</ele>
        <time>2021-08-18T11:49:05Z</time>
      </trkpt>
      <trkpt lat="46.54521" lon="6.0941">
        <ele>1228.5</ele>
        <time>2021-08-18T11:49:07Z</time>
      </trkpt>
      <trkpt lat="46.5452" lon="6.0941">
        <ele>1228.5</ele>
        <time>2021-08-18T11:49:08Z</time>
      </trkpt>
      <trkpt lat="46.5452" lon="6.0941">
        <ele>1228.5</ele>
        <time>2021-08-18T11:49:09Z</time>
      </trkpt>
      <trkpt lat="46.5452" lon="6.09408">
        <ele>1228.4</ele>
        <time>2021-08-18T11:49:10Z</time>
      </trkpt>
      <trkpt lat="46.5452" lon="6.09406">
        <ele>1228.4</ele>
        <time>2021-08-18T11:49:11Z</time>
      </trkpt>
      <trkpt lat="46.54521" lon="6.09405">
        <ele>1228.4</ele>
        <time>2021-08-18T11:49:13Z</time>
      </trkpt>
      <trkpt lat="46.54521" lon="6.09404">
        <ele>1228.4</ele>
        <time>2021-08-18T11:49:15Z</time>
      </trkpt>
      <trkpt lat="46.54521" lon="6.09404">
        <ele>1228.4</ele>
        <time>2021-08-18T11:49:17Z</time>
      </trkpt>
      <trkpt lat="46.54521" lon="6.09404">
        <ele>1228.4</ele>
        <time>2021-08-18T11:49:18Z</time>
      </trkpt>
      <trkpt lat="46.5451" lon="6.09412">
        <ele>1228</ele>
        <time>2021-08-18T11:50:27Z</time>
      </trkpt>
      <trkpt lat="46.54514" lon="6.09407">
        <ele>1228.2</ele>
        <time>2021-08-18T11:50:29Z</time>
      </trkpt>
      <trkpt lat="46.54519" lon="6.09403">
        <ele>1228.4</ele>
        <time>2021-08-18T11:50:30Z</time>
      </trkpt>
      <trkpt lat="46.54522" lon="6.09402">
        <ele>1228.5</ele>
        <time>2021-08-18T11:50:31Z</time>
      </trkpt>
      <trkpt lat="46.54526" lon="6.09401">
        <ele>1228.5</ele>
        <time>2021-08-18T11:50:33Z</time>
      </trkpt>
      <trkpt lat="46.5453" lon="6.09401">
        <ele>1228.6</ele>
        <time>2021-08-18T11:50:35Z</time>
      </trkpt>
      <trkpt lat="46.54533" lon="6.094">
        <ele>1228.7</ele>
        <time>2021-08-18T11:50:36Z</time>
      </trkpt>
      <trkpt lat="46.54534" lon="6.09399">
        <ele>1228.6</ele>
        <time>2021-08-18T11:50:38Z</time>
      </trkpt>
      <trkpt lat="46.54535" lon="6.09398">
        <ele>1228.6</ele>
        <time>2021-08-18T11:50:39Z</time>
      </trkpt>
      <trkpt lat="46.54536" lon="6.09397">
        <ele>1228.6</ele>
        <time>2021-08-18T11:50:40Z</time>
      </trkpt>
      <trkpt lat="46.54539" lon="6.09394">
        <ele>1228.5</ele>
        <time>2021-08-18T11:50:42Z</time>
      </trkpt>
      <trkpt lat="46.5454" lon="6.09394">
        <ele>1228.4</ele>
        <time>2021-08-18T11:50:43Z</time>
      </trkpt>
      <trkpt lat="46.54541" lon="6.09392">
        <ele>1228.4</ele>
        <time>2021-08-18T11:50:45Z</time>
      </trkpt>
      <trkpt lat="46.54542" lon="6.09392">
        <ele>1228.4</ele>
        <time>2021-08-18T11:50:46Z</time>
      </trkpt>
      <trkpt lat="46.54542" lon="6.09391">
        <ele>1228.4</ele>
        <time>2021-08-18T11:50:47Z</time>
      </trkpt>
      <trkpt lat="46.54543" lon="6.09395">
        <ele>1228.3</ele>
        <time>2021-08-18T11:50:49Z</time>
      </trkpt>
      <trkpt lat="46.54544" lon="6.09397">
        <ele>1228.2</ele>
        <time>2021-08-18T11:50:50Z</time>
      </trkpt>
      <trkpt lat="46.54545" lon="6.094">
        <ele>1228.1</ele>
        <time>2021-08-18T11:50:51Z</time>
      </trkpt>
      <trkpt lat="46.54546" lon="6.09403">
        <ele>1228.1</ele>
        <time>2021-08-18T11:50:53Z</time>
      </trkpt>
      <trkpt lat="46.54547" lon="6.09405">
        <ele>1228</ele>
        <time>2021-08-18T11:50:55Z</time>
      </trkpt>
      <trkpt lat="46.54548" lon="6.09408">
        <ele>1227.9</ele>
        <time>2021-08-18T11:50:57Z</time>
      </trkpt>
      <trkpt lat="46.54549" lon="6.09411">
        <ele>1227.9</ele>
        <time>2021-08-18T11:51:43Z</time>
      </trkpt>
      <trkpt lat="46.5455" lon="6.09414">
        <ele>1227.8</ele>
        <time>2021-08-18T11:51:44Z</time>
      </trkpt>
      <trkpt lat="46.54551" lon="6.09416">
        <ele>1227.7</ele>
        <time>2021-08-18T11:51:45Z</time>
      </trkpt>
      <trkpt lat="46.54554" lon="6.09425">
        <ele>1227.5</ele>
        <time>2021-08-18T11:51:47Z</time>
      </trkpt>
      <trkpt lat="46.54557" lon="6.09434">
        <ele>1227.2</ele>
        <time>2021-08-18T11:51:48Z</time>
      </trkpt>
      <trkpt lat="46.54563" lon="6.09448">
        <ele>1226.7</ele>
        <time>2021-08-18T11:51:50Z</time>
      </trkpt>
      <trkpt lat="46.54567" lon="6.09461">
        <ele>1226.2</ele>
        <time>2021-08-18T11:51:52Z</time>
      </trkpt>
      <trkpt lat="46.54569" lon="6.09466">
        <ele>1226</ele>
        <time>2021-08-18T11:51:53Z</time>
      </trkpt>
      <trkpt lat="46.54572" lon="6.09474">
        <ele>1225.7</ele>
        <time>2021-08-18T11:51:54Z</time>
      </trkpt>
      <trkpt lat="46.5457" lon="6.09485">
        <ele>1225.3</ele>
        <time>2021-08-18T11:51:56Z</time>
      </trkpt>
      <trkpt lat="46.54569" lon="6.09493">
        <ele>1224.9</ele>
        <time>2021-08-18T11:51:57Z</time>
      </trkpt>
      <trkpt lat="46.54567" lon="6.09512">
        <ele>1224.3</ele>
        <time>2021-08-18T11:51:59Z</time>
      </trkpt>
      <trkpt lat="46.54566" lon="6.09534">
        <ele>1223.6</ele>
        <time>2021-08-18T11:52:01Z</time>
      </trkpt>
      <trkpt lat="46.54565" lon="6.09544">
        <ele>1223.3</ele>
        <time>2021-08-18T11:52:02Z</time>
      </trkpt>
      <trkpt lat="46.54565" lon="6.09565">
        <ele>1223</ele>
        <time>2021-08-18T11:52:04Z</time>
      </trkpt>
      <trkpt lat="46.54566" lon="6.09584">
        <ele>1222.9</ele>
        <time>2021-08-18T11:52:06Z</time>
      </trkpt>
      <trkpt lat="46.54566" lon="6.096">
        <ele>1222.8</ele>
        <time>2021-08-18T11:52:08Z</time>
      </trkpt>
      <trkpt lat="46.54566" lon="6.09615">
        <ele>1222.8</ele>
        <time>2021-08-18T11:52:10Z</time>
      </trkpt>
      <trkpt lat="46.54566" lon="6.09623">
        <ele>1222.7</ele>
        <time>2021-08-18T11:52:11Z</time>
      </trkpt>
      <trkpt lat="46.54566" lon="6.0963">
        <ele>1222.7</ele>
        <time>2021-08-18T11:52:12Z</time>
      </trkpt>
      <trkpt lat="46.54565" lon="6.09638">
        <ele>1222.6</ele>
        <time>2021-08-18T11:52:13Z</time>
      </trkpt>
      <trkpt lat="46.54563" lon="6.09646">
        <ele>1222.5</ele>
        <time>2021-08-18T11:52:14Z</time>
      </trkpt>
      <trkpt lat="46.54561" lon="6.09662">
        <ele>1222.3</ele>
        <time>2021-08-18T11:52:16Z</time>
      </trkpt>
      <trkpt lat="46.54561" lon="6.09677">
        <ele>1222.2</ele>
        <time>2021-08-18T11:52:18Z</time>
      </trkpt>
      <trkpt lat="46.54562" lon="6.09688">
        <ele>1222.1</ele>
        <time>2021-08-18T11:52:20Z</time>
      </trkpt>
      <trkpt lat="46.54564" lon="6.09698">
        <ele>1222.1</ele>
        <time>2021-08-18T11:52:22Z</time>
      </trkpt>
      <trkpt lat="46.54563" lon="6.09704">
        <ele>1222.1</ele>
        <time>2021-08-18T11:52:24Z</time>
      </trkpt>
      <trkpt lat="46.5456" lon="6.09709">
        <ele>1222.1</ele>
        <time>2021-08-18T11:52:26Z</time>
      </trkpt>
      <trkpt lat="46.54558" lon="6.0971">
        <ele>1222.2</ele>
        <time>2021-08-18T11:52:27Z</time>
      </trkpt>
      <trkpt lat="46.54554" lon="6.09714">
        <ele>1222.2</ele>
        <time>2021-08-18T11:52:29Z</time>
      </trkpt>
      <trkpt lat="46.54551" lon="6.0972">
        <ele>1222.3</ele>
        <time>2021-08-18T11:52:30Z</time>
      </trkpt>
      <trkpt lat="46.54548" lon="6.09728">
        <ele>1222.4</ele>
        <time>2021-08-18T11:52:31Z</time>
      </trkpt>
      <trkpt lat="46.54544" lon="6.09741">
        <ele>1222.4</ele>
        <time>2021-08-18T11:52:33Z</time>
      </trkpt>
      <trkpt lat="46.54539" lon="6.09756">
        <ele>1222</ele>
        <time>2021-08-18T11:52:35Z</time>
      </trkpt>
      <trkpt lat="46.54535" lon="6.09763">
        <ele>1221.7</ele>
        <time>2021-08-18T11:52:36Z</time>
      </trkpt>
      <trkpt lat="46.54527" lon="6.09773">
        <ele>1221.1</ele>
        <time>2021-08-18T11:52:38Z</time>
      </trkpt>
      <trkpt lat="46.54518" lon="6.09785">
        <ele>1220.6</ele>
        <time>2021-08-18T11:52:40Z</time>
      </trkpt>
      <trkpt lat="46.5451" lon="6.09796">
        <ele>1220.2</ele>
        <time>2021-08-18T11:52:42Z</time>
      </trkpt>
      <trkpt lat="46.54502" lon="6.09809">
        <ele>1219.9</ele>
        <time>2021-08-18T11:52:44Z</time>
      </trkpt>
      <trkpt lat="46.54495" lon="6.09822">
        <ele>1219.6</ele>
        <time>2021-08-18T11:52:46Z</time>
      </trkpt>
      <trkpt lat="46.54493" lon="6.0983">
        <ele>1219.3</ele>
        <time>2021-08-18T11:52:47Z</time>
      </trkpt>
      <trkpt lat="46.5449" lon="6.09837">
        <ele>1219.1</ele>
        <time>2021-08-18T11:52:48Z</time>
      </trkpt>
      <trkpt lat="46.54482" lon="6.09849">
        <ele>1218.5</ele>
        <time>2021-08-18T11:52:50Z</time>
      </trkpt>
      <trkpt lat="46.54468" lon="6.09856">
        <ele>1216.2</ele>
        <time>2021-08-18T11:52:52Z</time>
      </trkpt>
      <trkpt lat="46.54453" lon="6.09861">
        <ele>1215.6</ele>
        <time>2021-08-18T11:52:54Z</time>
      </trkpt>
      <trkpt lat="46.54446" lon="6.09864">
        <ele>1215.3</ele>
        <time>2021-08-18T11:52:55Z</time>
      </trkpt>
      <trkpt lat="46.54434" lon="6.09873">
        <ele>1215</ele>
        <time>2021-08-18T11:52:57Z</time>
      </trkpt>
      <trkpt lat="46.54429" lon="6.09878">
        <ele>1214.9</ele>
        <time>2021-08-18T11:52:58Z</time>
      </trkpt>
      <trkpt lat="46.54424" lon="6.09883">
        <ele>1214.9</ele>
        <time>2021-08-18T11:52:59Z</time>
      </trkpt>
      <trkpt lat="46.54417" lon="6.09893">
        <ele>1214.9</ele>
        <time>2021-08-18T11:53:01Z</time>
      </trkpt>
      <trkpt lat="46.54417" lon="6.09907">
        <ele>1215</ele>
        <time>2021-08-18T11:53:03Z</time>
      </trkpt>
      <trkpt lat="46.54417" lon="6.09922">
        <ele>1215.2</ele>
        <time>2021-08-18T11:53:05Z</time>
      </trkpt>
      <trkpt lat="46.54416" lon="6.09929">
        <ele>1215.3</ele>
        <time>2021-08-18T11:53:06Z</time>
      </trkpt>
      <trkpt lat="46.54413" lon="6.09941">
        <ele>1215.5</ele>
        <time>2021-08-18T11:53:08Z</time>
      </trkpt>
      <trkpt lat="46.54415" lon="6.09943">
        <ele>1215.5</ele>
        <time>2021-08-18T11:53:09Z</time>
      </trkpt>
      <trkpt lat="46.54413" lon="6.09948">
        <ele>1215.6</ele>
        <time>2021-08-18T11:53:10Z</time>
      </trkpt>
      <trkpt lat="46.54408" lon="6.09957">
        <ele>1215.7</ele>
        <time>2021-08-18T11:53:12Z</time>
      </trkpt>
      <trkpt lat="46.54403" lon="6.09963">
        <ele>1215.7</ele>
        <time>2021-08-18T11:53:13Z</time>
      </trkpt>
      <trkpt lat="46.54399" lon="6.0997">
        <ele>1215.8</ele>
        <time>2021-08-18T11:53:15Z</time>
      </trkpt>
      <trkpt lat="46.54396" lon="6.09974">
        <ele>1215.9</ele>
        <time>2021-08-18T11:53:16Z</time>
      </trkpt>
      <trkpt lat="46.54391" lon="6.09979">
        <ele>1215.9</ele>
        <time>2021-08-18T11:53:17Z</time>
      </trkpt>
      <trkpt lat="46.54387" lon="6.09983">
        <ele>1215.9</ele>
        <time>2021-08-18T11:53:18Z</time>
      </trkpt>
      <trkpt lat="46.54384" lon="6.09987">
        <ele>1215.9</ele>
        <time>2021-08-18T11:53:19Z</time>
      </trkpt>
      <trkpt lat="46.54381" lon="6.09991">
        <ele>1215.9</ele>
        <time>2021-08-18T11:53:20Z</time>
      </trkpt>
      <trkpt lat="46.54372" lon="6.09996">
        <ele>1215.5</ele>
        <time>2021-08-18T11:53:22Z</time>
      </trkpt>
      <trkpt lat="46.54367" lon="6.1">
        <ele>1215.2</ele>
        <time>2021-08-18T11:53:23Z</time>
      </trkpt>
      <trkpt lat="46.54361" lon="6.10004">
        <ele>1214.8</ele>
        <time>2021-08-18T11:53:24Z</time>
      </trkpt>
      <trkpt lat="46.54349" lon="6.10012">
        <ele>1213.9</ele>
        <time>2021-08-18T11:53:26Z</time>
      </trkpt>
      <trkpt lat="46.54336" lon="6.10022">
        <ele>1212.9</ele>
        <time>2021-08-18T11:53:28Z</time>
      </trkpt>
      <trkpt lat="46.5433" lon="6.10028">
        <ele>1212.3</ele>
        <time>2021-08-18T11:53:29Z</time>
      </trkpt>
      <trkpt lat="46.54325" lon="6.10036">
        <ele>1211.8</ele>
        <time>2021-08-18T11:53:30Z</time>
      </trkpt>
      <trkpt lat="46.54314" lon="6.10051">
        <ele>1210.8</ele>
        <time>2021-08-18T11:53:32Z</time>
      </trkpt>
      <trkpt lat="46.54303" lon="6.10063">
        <ele>1209.9</ele>
        <time>2021-08-18T11:53:34Z</time>
      </trkpt>
      <trkpt lat="46.54298" lon="6.10066">
        <ele>1209.4</ele>
        <time>2021-08-18T11:53:35Z</time>
      </trkpt>
      <trkpt lat="46.54293" lon="6.1007">
        <ele>1208.8</ele>
        <time>2021-08-18T11:53:36Z</time>
      </trkpt>
      <trkpt lat="46.54281" lon="6.10076">
        <ele>1207.3</ele>
        <time>2021-08-18T11:53:38Z</time>
      </trkpt>
      <trkpt lat="46.54266" lon="6.1008">
        <ele>1205.3</ele>
        <time>2021-08-18T11:53:40Z</time>
      </trkpt>
      <trkpt lat="46.54259" lon="6.10083">
        <ele>1204.5</ele>
        <time>2021-08-18T11:53:41Z</time>
      </trkpt>
      <trkpt lat="46.54252" lon="6.10085">
        <ele>1203.8</ele>
        <time>2021-08-18T11:53:42Z</time>
      </trkpt>
      <trkpt lat="46.54239" lon="6.10088">
        <ele>1202.9</ele>
        <time>2021-08-18T11:53:44Z</time>
      </trkpt>
      <trkpt lat="46.54226" lon="6.10092">
        <ele>1202.5</ele>
        <time>2021-08-18T11:53:46Z</time>
      </trkpt>
      <trkpt lat="46.54214" lon="6.10096">
        <ele>1202.4</ele>
        <time>2021-08-18T11:53:48Z</time>
      </trkpt>
      <trkpt lat="46.54203" lon="6.10103">
        <ele>1202.5</ele>
        <time>2021-08-18T11:53:50Z</time>
      </trkpt>
      <trkpt lat="46.54195" lon="6.10111">
        <ele>1202.7</ele>
        <time>2021-08-18T11:53:52Z</time>
      </trkpt>
      <trkpt lat="46.54191" lon="6.10115">
        <ele>1202.7</ele>
        <time>2021-08-18T11:53:53Z</time>
      </trkpt>
      <trkpt lat="46.54187" lon="6.10119">
        <ele>1202.8</ele>
        <time>2021-08-18T11:53:54Z</time>
      </trkpt>
      <trkpt lat="46.54181" lon="6.10123">
        <ele>1202.9</ele>
        <time>2021-08-18T11:53:56Z</time>
      </trkpt>
      <trkpt lat="46.54173" lon="6.10126">
        <ele>1203</ele>
        <time>2021-08-18T11:53:58Z</time>
      </trkpt>
      <trkpt lat="46.54168" lon="6.10127">
        <ele>1203.1</ele>
        <time>2021-08-18T11:53:59Z</time>
      </trkpt>
      <trkpt lat="46.54161" lon="6.1013">
        <ele>1203.3</ele>
        <time>2021-08-18T11:54:01Z</time>
      </trkpt>
      <trkpt lat="46.54158" lon="6.10129">
        <ele>1203.4</ele>
        <time>2021-08-18T11:54:02Z</time>
      </trkpt>
      <trkpt lat="46.54156" lon="6.1013">
        <ele>1203.4</ele>
        <time>2021-08-18T11:54:03Z</time>
      </trkpt>
      <trkpt lat="46.54152" lon="6.10134">
        <ele>1203.6</ele>
        <time>2021-08-18T11:54:04Z</time>
      </trkpt>
      <trkpt lat="46.54148" lon="6.10139">
        <ele>1203.6</ele>
        <time>2021-08-18T11:54:05Z</time>
      </trkpt>
      <trkpt lat="46.54142" lon="6.10147">
        <ele>1203.5</ele>
        <time>2021-08-18T11:54:07Z</time>
      </trkpt>
      <trkpt lat="46.54132" lon="6.10156">
        <ele>1202.8</ele>
        <time>2021-08-18T11:54:09Z</time>
      </trkpt>
      <trkpt lat="46.54126" lon="6.10158">
        <ele>1202.4</ele>
        <time>2021-08-18T11:54:10Z</time>
      </trkpt>
      <trkpt lat="46.5412" lon="6.1016">
        <ele>1201.9</ele>
        <time>2021-08-18T11:54:11Z</time>
      </trkpt>
      <trkpt lat="46.54115" lon="6.10164">
        <ele>1201.6</ele>
        <time>2021-08-18T11:54:12Z</time>
      </trkpt>
      <trkpt lat="46.54109" lon="6.10165">
        <ele>1201.3</ele>
        <time>2021-08-18T11:54:14Z</time>
      </trkpt>
      <trkpt lat="46.54106" lon="6.10169">
        <ele>1201.1</ele>
        <time>2021-08-18T11:54:16Z</time>
      </trkpt>
      <trkpt lat="46.54104" lon="6.10169">
        <ele>1201.1</ele>
        <time>2021-08-18T11:54:17Z</time>
      </trkpt>
      <trkpt lat="46.54103" lon="6.10168">
        <ele>1201.1</ele>
        <time>2021-08-18T11:54:18Z</time>
      </trkpt>
      <trkpt lat="46.54097" lon="6.10167">
        <ele>1201.1</ele>
        <time>2021-08-18T11:54:20Z</time>
      </trkpt>
      <trkpt lat="46.54093" lon="6.10165">
        <ele>1201.1</ele>
        <time>2021-08-18T11:54:22Z</time>
      </trkpt>
      <trkpt lat="46.5409" lon="6.10162">
        <ele>1201.2</ele>
        <time>2021-08-18T11:54:23Z</time>
      </trkpt>
      <trkpt lat="46.54087" lon="6.1016">
        <ele>1201.4</ele>
        <time>2021-08-18T11:54:24Z</time>
      </trkpt>
      <trkpt lat="46.54082" lon="6.10155">
        <ele>1201.8</ele>
        <time>2021-08-18T11:54:26Z</time>
      </trkpt>
      <trkpt lat="46.54075" lon="6.1015">
        <ele>1202.3</ele>
        <time>2021-08-18T11:54:28Z</time>
      </trkpt>
      <trkpt lat="46.54073" lon="6.10149">
        <ele>1202.5</ele>
        <time>2021-08-18T11:54:29Z</time>
      </trkpt>
      <trkpt lat="46.5407" lon="6.10149">
        <ele>1202.7</ele>
        <time>2021-08-18T11:54:30Z</time>
      </trkpt>
      <trkpt lat="46.54068" lon="6.10152">
        <ele>1203</ele>
        <time>2021-08-18T11:54:32Z</time>
      </trkpt>
      <trkpt lat="46.54065" lon="6.10157">
        <ele>1203.3</ele>
        <time>2021-08-18T11:54:34Z</time>
      </trkpt>
      <trkpt lat="46.54063" lon="6.1016">
        <ele>1203.5</ele>
        <time>2021-08-18T11:54:36Z</time>
      </trkpt>
      <trkpt lat="46.54059" lon="6.10165">
        <ele>1203.8</ele>
        <time>2021-08-18T11:54:38Z</time>
      </trkpt>
      <trkpt lat="46.54058" lon="6.10167">
        <ele>1203.9</ele>
        <time>2021-08-18T11:54:39Z</time>
      </trkpt>
      <trkpt lat="46.54056" lon="6.10169">
        <ele>1204.1</ele>
        <time>2021-08-18T11:54:40Z</time>
      </trkpt>
      <trkpt lat="46.54054" lon="6.10171">
        <ele>1204.2</ele>
        <time>2021-08-18T11:54:42Z</time>
      </trkpt>
      <trkpt lat="46.54051" lon="6.10172">
        <ele>1204.4</ele>
        <time>2021-08-18T11:54:43Z</time>
      </trkpt>
      <trkpt lat="46.54048" lon="6.10171">
        <ele>1204.6</ele>
        <time>2021-08-18T11:54:45Z</time>
      </trkpt>
      <trkpt lat="46.54044" lon="6.1017">
        <ele>1204.8</ele>
        <time>2021-08-18T11:54:46Z</time>
      </trkpt>
      <trkpt lat="46.54041" lon="6.1017">
        <ele>1205</ele>
        <time>2021-08-18T11:54:47Z</time>
      </trkpt>
      <trkpt lat="46.5404" lon="6.1017">
        <ele>1205.1</ele>
        <time>2021-08-18T11:54:48Z</time>
      </trkpt>
      <trkpt lat="46.54035" lon="6.10168">
        <ele>1205.4</ele>
        <time>2021-08-18T11:54:50Z</time>
      </trkpt>
      <trkpt lat="46.54032" lon="6.10168">
        <ele>1205.6</ele>
        <time>2021-08-18T11:54:52Z</time>
      </trkpt>
      <trkpt lat="46.54028" lon="6.10165">
        <ele>1205.9</ele>
        <time>2021-08-18T11:54:54Z</time>
      </trkpt>
      <trkpt lat="46.54026" lon="6.10165">
        <ele>1205.9</ele>
        <time>2021-08-18T11:54:55Z</time>
      </trkpt>
      <trkpt lat="46.54025" lon="6.10165">
        <ele>1206</ele>
        <time>2021-08-18T11:54:56Z</time>
      </trkpt>
      <trkpt lat="46.54023" lon="6.10166">
        <ele>1206.1</ele>
        <time>2021-08-18T11:54:57Z</time>
      </trkpt>
      <trkpt lat="46.54021" lon="6.10166">
        <ele>1206.2</ele>
        <time>2021-08-18T11:54:58Z</time>
      </trkpt>
      <trkpt lat="46.54019" lon="6.10166">
        <ele>1206.4</ele>
        <time>2021-08-18T11:54:59Z</time>
      </trkpt>
      <trkpt lat="46.54018" lon="6.10166">
        <ele>1206.4</ele>
        <time>2021-08-18T11:55:00Z</time>
      </trkpt>
      <trkpt lat="46.54016" lon="6.10169">
        <ele>1206.6</ele>
        <time>2021-08-18T11:55:02Z</time>
      </trkpt>
      <trkpt lat="46.54015" lon="6.1017">
        <ele>1206.7</ele>
        <time>2021-08-18T11:55:03Z</time>
      </trkpt>
      <trkpt lat="46.54014" lon="6.10171">
        <ele>1206.8</ele>
        <time>2021-08-18T11:55:04Z</time>
      </trkpt>
      <trkpt lat="46.54013" lon="6.10172">
        <ele>1206.8</ele>
        <time>2021-08-18T11:55:06Z</time>
      </trkpt>
      <trkpt lat="46.54011" lon="6.10173">
        <ele>1206.9</ele>
        <time>2021-08-18T11:55:07Z</time>
      </trkpt>
      <trkpt lat="46.54009" lon="6.10173">
        <ele>1207</ele>
        <time>2021-08-18T11:55:08Z</time>
      </trkpt>
      <trkpt lat="46.54007" lon="6.10174">
        <ele>1207.2</ele>
        <time>2021-08-18T11:55:09Z</time>
      </trkpt>
      <trkpt lat="46.54006" lon="6.10174">
        <ele>1207.3</ele>
        <time>2021-08-18T11:55:10Z</time>
      </trkpt>
      <trkpt lat="46.54002" lon="6.10174">
        <ele>1207.5</ele>
        <time>2021-08-18T11:55:11Z</time>
      </trkpt>
      <trkpt lat="46.54001" lon="6.10174">
        <ele>1207.5</ele>
        <time>2021-08-18T11:55:12Z</time>
      </trkpt>
      <trkpt lat="46.53998" lon="6.10175">
        <ele>1207.7</ele>
        <time>2021-08-18T11:55:13Z</time>
      </trkpt>
      <trkpt lat="46.53998" lon="6.10175">
        <ele>1207.8</ele>
        <time>2021-08-18T11:55:14Z</time>
      </trkpt>
      <trkpt lat="46.53995" lon="6.10176">
        <ele>1207.9</ele>
        <time>2021-08-18T11:55:15Z</time>
      </trkpt>
      <trkpt lat="46.53994" lon="6.10176">
        <ele>1208</ele>
        <time>2021-08-18T11:55:16Z</time>
      </trkpt>
      <trkpt lat="46.5399" lon="6.10178">
        <ele>1208.2</ele>
        <time>2021-08-18T11:55:18Z</time>
      </trkpt>
      <trkpt lat="46.53988" lon="6.10179">
        <ele>1208.3</ele>
        <time>2021-08-18T11:55:19Z</time>
      </trkpt>
      <trkpt lat="46.53987" lon="6.1018">
        <ele>1208.4</ele>
        <time>2021-08-18T11:55:21Z</time>
      </trkpt>
      <trkpt lat="46.53985" lon="6.1018">
        <ele>1208.5</ele>
        <time>2021-08-18T11:55:22Z</time>
      </trkpt>
      <trkpt lat="46.53982" lon="6.1018">
        <ele>1208.7</ele>
        <time>2021-08-18T11:55:23Z</time>
      </trkpt>
      <trkpt lat="46.53981" lon="6.10181">
        <ele>1208.8</ele>
        <time>2021-08-18T11:55:24Z</time>
      </trkpt>
      <trkpt lat="46.53977" lon="6.10184">
        <ele>1209.1</ele>
        <time>2021-08-18T11:55:26Z</time>
      </trkpt>
      <trkpt lat="46.53975" lon="6.10185">
        <ele>1209.2</ele>
        <time>2021-08-18T11:55:27Z</time>
      </trkpt>
      <trkpt lat="46.53974" lon="6.10187">
        <ele>1209.3</ele>
        <time>2021-08-18T11:55:28Z</time>
      </trkpt>
      <trkpt lat="46.53971" lon="6.10187">
        <ele>1209.5</ele>
        <time>2021-08-18T11:55:29Z</time>
      </trkpt>
      <trkpt lat="46.5397" lon="6.10187">
        <ele>1209.6</ele>
        <time>2021-08-18T11:55:30Z</time>
      </trkpt>
      <trkpt lat="46.53967" lon="6.10188">
        <ele>1209.8</ele>
        <time>2021-08-18T11:55:31Z</time>
      </trkpt>
      <trkpt lat="46.53966" lon="6.10188">
        <ele>1209.9</ele>
        <time>2021-08-18T11:55:32Z</time>
      </trkpt>
      <trkpt lat="46.53963" lon="6.10189">
        <ele>1210.1</ele>
        <time>2021-08-18T11:55:34Z</time>
      </trkpt>
      <trkpt lat="46.53958" lon="6.1019">
        <ele>1210.4</ele>
        <time>2021-08-18T11:55:35Z</time>
      </trkpt>
      <trkpt lat="46.53955" lon="6.1019">
        <ele>1210.5</ele>
        <time>2021-08-18T11:55:37Z</time>
      </trkpt>
      <trkpt lat="46.53951" lon="6.1019">
        <ele>1210.7</ele>
        <time>2021-08-18T11:55:38Z</time>
      </trkpt>
      <trkpt lat="46.53945" lon="6.10189">
        <ele>1210.9</ele>
        <time>2021-08-18T11:55:39Z</time>
      </trkpt>
      <trkpt lat="46.53939" lon="6.10188">
        <ele>1211</ele>
        <time>2021-08-18T11:55:41Z</time>
      </trkpt>
      <trkpt lat="46.53936" lon="6.10187">
        <ele>1211.1</ele>
        <time>2021-08-18T11:55:42Z</time>
      </trkpt>
      <trkpt lat="46.53931" lon="6.10184">
        <ele>1211.1</ele>
        <time>2021-08-18T11:55:45Z</time>
      </trkpt>
      <trkpt lat="46.53927" lon="6.10181">
        <ele>1211.2</ele>
        <time>2021-08-18T11:55:46Z</time>
      </trkpt>
      <trkpt lat="46.53925" lon="6.1018">
        <ele>1211.2</ele>
        <time>2021-08-18T11:55:47Z</time>
      </trkpt>
      <trkpt lat="46.53923" lon="6.10178">
        <ele>1211.2</ele>
        <time>2021-08-18T11:55:48Z</time>
      </trkpt>
      <trkpt lat="46.5392" lon="6.10174">
        <ele>1211.2</ele>
        <time>2021-08-18T11:55:50Z</time>
      </trkpt>
      <trkpt lat="46.53917" lon="6.10171">
        <ele>1211.2</ele>
        <time>2021-08-18T11:55:51Z</time>
      </trkpt>
      <trkpt lat="46.53914" lon="6.10168">
        <ele>1211.2</ele>
        <time>2021-08-18T11:55:52Z</time>
      </trkpt>
      <trkpt lat="46.53911" lon="6.10167">
        <ele>1211.2</ele>
        <time>2021-08-18T11:55:53Z</time>
      </trkpt>
      <trkpt lat="46.53906" lon="6.10164">
        <ele>1211.1</ele>
        <time>2021-08-18T11:55:54Z</time>
      </trkpt>
      <trkpt lat="46.53903" lon="6.10163">
        <ele>1211.1</ele>
        <time>2021-08-18T11:55:56Z</time>
      </trkpt>
      <trkpt lat="46.53896" lon="6.10161">
        <ele>1211.1</ele>
        <time>2021-08-18T11:55:57Z</time>
      </trkpt>
      <trkpt lat="46.53893" lon="6.1016">
        <ele>1211.2</ele>
        <time>2021-08-18T11:55:59Z</time>
      </trkpt>
      <trkpt lat="46.5389" lon="6.10159">
        <ele>1211.2</ele>
        <time>2021-08-18T11:56:00Z</time>
      </trkpt>
      <trkpt lat="46.53887" lon="6.10158">
        <ele>1211.3</ele>
        <time>2021-08-18T11:56:01Z</time>
      </trkpt>
      <trkpt lat="46.53882" lon="6.10157">
        <ele>1211.4</ele>
        <time>2021-08-18T11:56:03Z</time>
      </trkpt>
      <trkpt lat="46.53879" lon="6.10156">
        <ele>1211.5</ele>
        <time>2021-08-18T11:56:04Z</time>
      </trkpt>
      <trkpt lat="46.53876" lon="6.10155">
        <ele>1211.7</ele>
        <time>2021-08-18T11:56:05Z</time>
      </trkpt>
      <trkpt lat="46.53872" lon="6.10155">
        <ele>1211.9</ele>
        <time>2021-08-18T11:56:07Z</time>
      </trkpt>
      <trkpt lat="46.5387" lon="6.10155">
        <ele>1212</ele>
        <time>2021-08-18T11:56:08Z</time>
      </trkpt>
      <trkpt lat="46.53866" lon="6.10155">
        <ele>1212.3</ele>
        <time>2021-08-18T11:56:09Z</time>
      </trkpt>
      <trkpt lat="46.53863" lon="6.10155">
        <ele>1212.5</ele>
        <time>2021-08-18T11:56:11Z</time>
      </trkpt>
      <trkpt lat="46.53862" lon="6.10155">
        <ele>1212.6</ele>
        <time>2021-08-18T11:56:12Z</time>
      </trkpt>
      <trkpt lat="46.53859" lon="6.10153">
        <ele>1212.8</ele>
        <time>2021-08-18T11:56:13Z</time>
      </trkpt>
      <trkpt lat="46.53857" lon="6.1015">
        <ele>1213</ele>
        <time>2021-08-18T11:56:14Z</time>
      </trkpt>
      <trkpt lat="46.53856" lon="6.10148">
        <ele>1213.1</ele>
        <time>2021-08-18T11:56:15Z</time>
      </trkpt>
      <trkpt lat="46.53854" lon="6.10145">
        <ele>1213.3</ele>
        <time>2021-08-18T11:56:16Z</time>
      </trkpt>
      <trkpt lat="46.53853" lon="6.10145">
        <ele>1213.4</ele>
        <time>2021-08-18T11:56:17Z</time>
      </trkpt>
      <trkpt lat="46.53849" lon="6.10143">
        <ele>1213.6</ele>
        <time>2021-08-18T11:56:19Z</time>
      </trkpt>
      <trkpt lat="46.53844" lon="6.1014">
        <ele>1213.9</ele>
        <time>2021-08-18T11:56:21Z</time>
      </trkpt>
      <trkpt lat="46.53841" lon="6.10139">
        <ele>1214.1</ele>
        <time>2021-08-18T11:56:22Z</time>
      </trkpt>
      <trkpt lat="46.53836" lon="6.10136">
        <ele>1214.3</ele>
        <time>2021-08-18T11:56:23Z</time>
      </trkpt>
      <trkpt lat="46.53832" lon="6.10134">
        <ele>1214.5</ele>
        <time>2021-08-18T11:56:25Z</time>
      </trkpt>
      <trkpt lat="46.53827" lon="6.10131">
        <ele>1214.7</ele>
        <time>2021-08-18T11:56:26Z</time>
      </trkpt>
      <trkpt lat="46.53825" lon="6.1013">
        <ele>1214.8</ele>
        <time>2021-08-18T11:56:27Z</time>
      </trkpt>
      <trkpt lat="46.53823" lon="6.10127">
        <ele>1214.8</ele>
        <time>2021-08-18T11:56:28Z</time>
      </trkpt>
      <trkpt lat="46.53821" lon="6.10122">
        <ele>1214.9</ele>
        <time>2021-08-18T11:56:30Z</time>
      </trkpt>
      <trkpt lat="46.5382" lon="6.10118">
        <ele>1215</ele>
        <time>2021-08-18T11:56:31Z</time>
      </trkpt>
      <trkpt lat="46.53819" lon="6.10114">
        <ele>1215.1</ele>
        <time>2021-08-18T11:56:33Z</time>
      </trkpt>
      <trkpt lat="46.53816" lon="6.10108">
        <ele>1215.1</ele>
        <time>2021-08-18T11:56:34Z</time>
      </trkpt>
      <trkpt lat="46.53814" lon="6.10105">
        <ele>1215.1</ele>
        <time>2021-08-18T11:56:36Z</time>
      </trkpt>
      <trkpt lat="46.5381" lon="6.10099">
        <ele>1215.1</ele>
        <time>2021-08-18T11:56:38Z</time>
      </trkpt>
      <trkpt lat="46.53807" lon="6.10096">
        <ele>1215.1</ele>
        <time>2021-08-18T11:56:39Z</time>
      </trkpt>
      <trkpt lat="46.53803" lon="6.10094">
        <ele>1215</ele>
        <time>2021-08-18T11:56:40Z</time>
      </trkpt>
      <trkpt lat="46.538" lon="6.10092">
        <ele>1215</ele>
        <time>2021-08-18T11:56:42Z</time>
      </trkpt>
      <trkpt lat="46.53796" lon="6.10091">
        <ele>1214.9</ele>
        <time>2021-08-18T11:56:43Z</time>
      </trkpt>
      <trkpt lat="46.5379" lon="6.10092">
        <ele>1214.7</ele>
        <time>2021-08-18T11:56:45Z</time>
      </trkpt>
      <trkpt lat="46.53784" lon="6.10093">
        <ele>1214.5</ele>
        <time>2021-08-18T11:56:46Z</time>
      </trkpt>
      <trkpt lat="46.53773" lon="6.10096">
        <ele>1213.8</ele>
        <time>2021-08-18T11:56:48Z</time>
      </trkpt>
      <trkpt lat="46.53761" lon="6.10099">
        <ele>1212.9</ele>
        <time>2021-08-18T11:56:50Z</time>
      </trkpt>
      <trkpt lat="46.53747" lon="6.10102">
        <ele>1212.2</ele>
        <time>2021-08-18T11:56:52Z</time>
      </trkpt>
      <trkpt lat="46.53741" lon="6.10102">
        <ele>1212</ele>
        <time>2021-08-18T11:56:53Z</time>
      </trkpt>
      <trkpt lat="46.53735" lon="6.10104">
        <ele>1212</ele>
        <time>2021-08-18T11:56:54Z</time>
      </trkpt>
      <trkpt lat="46.53725" lon="6.10107">
        <ele>1212.1</ele>
        <time>2021-08-18T11:56:56Z</time>
      </trkpt>
      <trkpt lat="46.53722" lon="6.10108">
        <ele>1212.2</ele>
        <time>2021-08-18T11:56:57Z</time>
      </trkpt>
      <trkpt lat="46.53719" lon="6.10106">
        <ele>1212.3</ele>
        <time>2021-08-18T11:56:58Z</time>
      </trkpt>
      <trkpt lat="46.53715" lon="6.10106">
        <ele>1212.4</ele>
        <time>2021-08-18T11:56:59Z</time>
      </trkpt>
      <trkpt lat="46.53709" lon="6.10107">
        <ele>1212.7</ele>
        <time>2021-08-18T11:57:00Z</time>
      </trkpt>
      <trkpt lat="46.53705" lon="6.10109">
        <ele>1213</ele>
        <time>2021-08-18T11:57:02Z</time>
      </trkpt>
      <trkpt lat="46.53702" lon="6.10111">
        <ele>1213.2</ele>
        <time>2021-08-18T11:57:03Z</time>
      </trkpt>
      <trkpt lat="46.53698" lon="6.10115">
        <ele>1213.5</ele>
        <time>2021-08-18T11:57:04Z</time>
      </trkpt>
      <trkpt lat="46.53696" lon="6.10117">
        <ele>1213.7</ele>
        <time>2021-08-18T11:57:05Z</time>
      </trkpt>
      <trkpt lat="46.53694" lon="6.1012">
        <ele>1213.9</ele>
        <time>2021-08-18T11:57:06Z</time>
      </trkpt>
      <trkpt lat="46.53693" lon="6.10121">
        <ele>1214</ele>
        <time>2021-08-18T11:57:07Z</time>
      </trkpt>
      <trkpt lat="46.53692" lon="6.10123">
        <ele>1214.1</ele>
        <time>2021-08-18T11:57:09Z</time>
      </trkpt>
      <trkpt lat="46.53691" lon="6.10125">
        <ele>1214.2</ele>
        <time>2021-08-18T11:57:10Z</time>
      </trkpt>
      <trkpt lat="46.53689" lon="6.10127">
        <ele>1214.4</ele>
        <time>2021-08-18T11:57:11Z</time>
      </trkpt>
      <trkpt lat="46.53688" lon="6.10128">
        <ele>1214.5</ele>
        <time>2021-08-18T11:57:13Z</time>
      </trkpt>
      <trkpt lat="46.53686" lon="6.10131">
        <ele>1214.7</ele>
        <time>2021-08-18T11:57:14Z</time>
      </trkpt>
      <trkpt lat="46.53682" lon="6.10135">
        <ele>1215</ele>
        <time>2021-08-18T11:57:16Z</time>
      </trkpt>
      <trkpt lat="46.53681" lon="6.10136">
        <ele>1215.1</ele>
        <time>2021-08-18T11:57:17Z</time>
      </trkpt>
      <trkpt lat="46.53679" lon="6.10138">
        <ele>1215.3</ele>
        <time>2021-08-18T11:57:18Z</time>
      </trkpt>
      <trkpt lat="46.53677" lon="6.10141">
        <ele>1215.5</ele>
        <time>2021-08-18T11:57:20Z</time>
      </trkpt>
      <trkpt lat="46.53675" lon="6.10143">
        <ele>1215.5</ele>
        <time>2021-08-18T11:57:21Z</time>
      </trkpt>
      <trkpt lat="46.5367" lon="6.10143">
        <ele>1215.8</ele>
        <time>2021-08-18T11:57:23Z</time>
      </trkpt>
      <trkpt lat="46.53668" lon="6.10143">
        <ele>1215.9</ele>
        <time>2021-08-18T11:57:24Z</time>
      </trkpt>
      <trkpt lat="46.53666" lon="6.10143">
        <ele>1216</ele>
        <time>2021-08-18T11:57:25Z</time>
      </trkpt>
      <trkpt lat="46.53664" lon="6.10143">
        <ele>1216.1</ele>
        <time>2021-08-18T11:57:26Z</time>
      </trkpt>
      <trkpt lat="46.53661" lon="6.10143">
        <ele>1216.2</ele>
        <time>2021-08-18T11:57:28Z</time>
      </trkpt>
      <trkpt lat="46.53655" lon="6.10142">
        <ele>1216.3</ele>
        <time>2021-08-18T11:57:30Z</time>
      </trkpt>
      <trkpt lat="46.53649" lon="6.10141">
        <ele>1216.4</ele>
        <time>2021-08-18T11:57:31Z</time>
      </trkpt>
      <trkpt lat="46.53645" lon="6.10142">
        <ele>1216.4</ele>
        <time>2021-08-18T11:57:33Z</time>
      </trkpt>
      <trkpt lat="46.53641" lon="6.10142">
        <ele>1216.3</ele>
        <time>2021-08-18T11:57:34Z</time>
      </trkpt>
      <trkpt lat="46.53635" lon="6.10142">
        <ele>1216.3</ele>
        <time>2021-08-18T11:57:35Z</time>
      </trkpt>
      <trkpt lat="46.53632" lon="6.10141">
        <ele>1216.3</ele>
        <time>2021-08-18T11:57:36Z</time>
      </trkpt>
      <trkpt lat="46.53628" lon="6.10138">
        <ele>1216.3</ele>
        <time>2021-08-18T11:57:38Z</time>
      </trkpt>
      <trkpt lat="46.53626" lon="6.10138">
        <ele>1216.3</ele>
        <time>2021-08-18T11:57:39Z</time>
      </trkpt>
      <trkpt lat="46.53624" lon="6.10138">
        <ele>1218.2</ele>
        <time>2021-08-18T11:57:41Z</time>
      </trkpt>
      <trkpt lat="46.53623" lon="6.10138">
        <ele>1218.3</ele>
        <time>2021-08-18T11:57:42Z</time>
      </trkpt>
      <trkpt lat="46.53621" lon="6.10137">
        <ele>1218.4</ele>
        <time>2021-08-18T11:57:43Z</time>
      </trkpt>
      <trkpt lat="46.53619" lon="6.10133">
        <ele>1218.5</ele>
        <time>2021-08-18T11:57:44Z</time>
      </trkpt>
      <trkpt lat="46.53618" lon="6.10131">
        <ele>1218.6</ele>
        <time>2021-08-18T11:57:45Z</time>
      </trkpt>
      <trkpt lat="46.53617" lon="6.10126">
        <ele>1218.8</ele>
        <time>2021-08-18T11:57:47Z</time>
      </trkpt>
      <trkpt lat="46.53617" lon="6.10124">
        <ele>1218.9</ele>
        <time>2021-08-18T11:57:48Z</time>
      </trkpt>
      <trkpt lat="46.53617" lon="6.10122">
        <ele>1218.9</ele>
        <time>2021-08-18T11:57:49Z</time>
      </trkpt>
      <trkpt lat="46.53616" lon="6.10115">
        <ele>1219.1</ele>
        <time>2021-08-18T11:57:50Z</time>
      </trkpt>
      <trkpt lat="46.53615" lon="6.10109">
        <ele>1219.4</ele>
        <time>2021-08-18T11:57:52Z</time>
      </trkpt>
      <trkpt lat="46.53613" lon="6.10106">
        <ele>1219.5</ele>
        <time>2021-08-18T11:57:53Z</time>
      </trkpt>
      <trkpt lat="46.53613" lon="6.10105">
        <ele>1219.5</ele>
        <time>2021-08-18T11:57:54Z</time>
      </trkpt>
      <trkpt lat="46.53611" lon="6.10103">
        <ele>1219.7</ele>
        <time>2021-08-18T11:57:55Z</time>
      </trkpt>
      <trkpt lat="46.5361" lon="6.10102">
        <ele>1219.7</ele>
        <time>2021-08-18T11:57:56Z</time>
      </trkpt>
      <trkpt lat="46.53607" lon="6.10099">
        <ele>1219.9</ele>
        <time>2021-08-18T11:57:57Z</time>
      </trkpt>
      <trkpt lat="46.53606" lon="6.10097">
        <ele>1219.9</ele>
        <time>2021-08-18T11:57:58Z</time>
      </trkpt>
      <trkpt lat="46.53604" lon="6.10094">
        <ele>1220.1</ele>
        <time>2021-08-18T11:57:59Z</time>
      </trkpt>
      <trkpt lat="46.53604" lon="6.10092">
        <ele>1220.2</ele>
        <time>2021-08-18T11:58:00Z</time>
      </trkpt>
      <trkpt lat="46.53602" lon="6.10087">
        <ele>1220.3</ele>
        <time>2021-08-18T11:58:02Z</time>
      </trkpt>
      <trkpt lat="46.53602" lon="6.10085">
        <ele>1220.4</ele>
        <time>2021-08-18T11:58:03Z</time>
      </trkpt>
      <trkpt lat="46.53601" lon="6.10083">
        <ele>1220.5</ele>
        <time>2021-08-18T11:58:04Z</time>
      </trkpt>
      <trkpt lat="46.536" lon="6.10081">
        <ele>1220.5</ele>
        <time>2021-08-18T11:58:06Z</time>
      </trkpt>
      <trkpt lat="46.53599" lon="6.10079">
        <ele>1220.6</ele>
        <time>2021-08-18T11:58:07Z</time>
      </trkpt>
      <trkpt lat="46.53599" lon="6.10078">
        <ele>1220.7</ele>
        <time>2021-08-18T11:58:08Z</time>
      </trkpt>
      <trkpt lat="46.53596" lon="6.10075">
        <ele>1220.8</ele>
        <time>2021-08-18T11:58:10Z</time>
      </trkpt>
      <trkpt lat="46.53595" lon="6.10075">
        <ele>1220.9</ele>
        <time>2021-08-18T11:58:11Z</time>
      </trkpt>
      <trkpt lat="46.53595" lon="6.10073">
        <ele>1220.9</ele>
        <time>2021-08-18T11:58:12Z</time>
      </trkpt>
      <trkpt lat="46.53594" lon="6.10072">
        <ele>1221</ele>
        <time>2021-08-18T11:58:13Z</time>
      </trkpt>
      <trkpt lat="46.53593" lon="6.10071">
        <ele>1221</ele>
        <time>2021-08-18T11:58:15Z</time>
      </trkpt>
      <trkpt lat="46.53591" lon="6.1007">
        <ele>1221.1</ele>
        <time>2021-08-18T11:58:16Z</time>
      </trkpt>
      <trkpt lat="46.5359" lon="6.10068">
        <ele>1221.2</ele>
        <time>2021-08-18T11:58:17Z</time>
      </trkpt>
      <trkpt lat="46.53587" lon="6.10068">
        <ele>1221.3</ele>
        <time>2021-08-18T11:58:18Z</time>
      </trkpt>
      <trkpt lat="46.53585" lon="6.10068">
        <ele>1221.4</ele>
        <time>2021-08-18T11:58:19Z</time>
      </trkpt>
      <trkpt lat="46.53582" lon="6.10068">
        <ele>1221.6</ele>
        <time>2021-08-18T11:58:20Z</time>
      </trkpt>
      <trkpt lat="46.53579" lon="6.10068">
        <ele>1221.7</ele>
        <time>2021-08-18T11:58:21Z</time>
      </trkpt>
      <trkpt lat="46.53576" lon="6.10066">
        <ele>1221.8</ele>
        <time>2021-08-18T11:58:23Z</time>
      </trkpt>
      <trkpt lat="46.53572" lon="6.10066">
        <ele>1222</ele>
        <time>2021-08-18T11:58:24Z</time>
      </trkpt>
      <trkpt lat="46.53569" lon="6.10065">
        <ele>1222.1</ele>
        <time>2021-08-18T11:58:25Z</time>
      </trkpt>
      <trkpt lat="46.53565" lon="6.10064">
        <ele>1222.3</ele>
        <time>2021-08-18T11:58:27Z</time>
      </trkpt>
      <trkpt lat="46.53563" lon="6.10063">
        <ele>1222.4</ele>
        <time>2021-08-18T11:58:28Z</time>
      </trkpt>
      <trkpt lat="46.53562" lon="6.10062">
        <ele>1222.5</ele>
        <time>2021-08-18T11:58:29Z</time>
      </trkpt>
      <trkpt lat="46.5356" lon="6.10059">
        <ele>1222.7</ele>
        <time>2021-08-18T11:58:30Z</time>
      </trkpt>
      <trkpt lat="46.53559" lon="6.10057">
        <ele>1222.9</ele>
        <time>2021-08-18T11:58:32Z</time>
      </trkpt>
      <trkpt lat="46.53558" lon="6.10056">
        <ele>1223</ele>
        <time>2021-08-18T11:58:33Z</time>
      </trkpt>
      <trkpt lat="46.53557" lon="6.10054">
        <ele>1223.1</ele>
        <time>2021-08-18T11:58:34Z</time>
      </trkpt>
      <trkpt lat="46.53556" lon="6.10052">
        <ele>1223.2</ele>
        <time>2021-08-18T11:58:35Z</time>
      </trkpt>
      <trkpt lat="46.53556" lon="6.10049">
        <ele>1223.4</ele>
        <time>2021-08-18T11:58:36Z</time>
      </trkpt>
      <trkpt lat="46.53556" lon="6.10046">
        <ele>1223.5</ele>
        <time>2021-08-18T11:58:38Z</time>
      </trkpt>
      <trkpt lat="46.53555" lon="6.10044">
        <ele>1223.7</ele>
        <time>2021-08-18T11:58:40Z</time>
      </trkpt>
      <trkpt lat="46.53554" lon="6.10041">
        <ele>1223.9</ele>
        <time>2021-08-18T11:58:41Z</time>
      </trkpt>
      <trkpt lat="46.53553" lon="6.1004">
        <ele>1224</ele>
        <time>2021-08-18T11:58:43Z</time>
      </trkpt>
      <trkpt lat="46.53553" lon="6.10039">
        <ele>1224</ele>
        <time>2021-08-18T11:58:44Z</time>
      </trkpt>
      <trkpt lat="46.53553" lon="6.10038">
        <ele>1224</ele>
        <time>2021-08-18T11:58:45Z</time>
      </trkpt>
      <trkpt lat="46.53553" lon="6.10037">
        <ele>1224.1</ele>
        <time>2021-08-18T11:58:47Z</time>
      </trkpt>
      <trkpt lat="46.53553" lon="6.10037">
        <ele>1224.1</ele>
        <time>2021-08-18T11:58:48Z</time>
      </trkpt>
      <trkpt lat="46.53553" lon="6.10036">
        <ele>1224.2</ele>
        <time>2021-08-18T11:58:49Z</time>
      </trkpt>
      <trkpt lat="46.53552" lon="6.10035">
        <ele>1224.2</ele>
        <time>2021-08-18T11:58:51Z</time>
      </trkpt>
      <trkpt lat="46.53545" lon="6.10027">
        <ele>1224.9</ele>
        <time>2021-08-18T11:58:56Z</time>
      </trkpt>
      <trkpt lat="46.53541" lon="6.10025">
        <ele>1225.2</ele>
        <time>2021-08-18T11:58:58Z</time>
      </trkpt>
      <trkpt lat="46.53538" lon="6.10023">
        <ele>1225.5</ele>
        <time>2021-08-18T11:58:59Z</time>
      </trkpt>
      <trkpt lat="46.53534" lon="6.10023">
        <ele>1225.9</ele>
        <time>2021-08-18T11:59:00Z</time>
      </trkpt>
      <trkpt lat="46.5353" lon="6.10022">
        <ele>1226.1</ele>
        <time>2021-08-18T11:59:01Z</time>
      </trkpt>
      <trkpt lat="46.53527" lon="6.10021">
        <ele>1226.4</ele>
        <time>2021-08-18T11:59:03Z</time>
      </trkpt>
      <trkpt lat="46.53522" lon="6.10018">
        <ele>1226.8</ele>
        <time>2021-08-18T11:59:04Z</time>
      </trkpt>
      <trkpt lat="46.5352" lon="6.10018">
        <ele>1226.9</ele>
        <time>2021-08-18T11:59:06Z</time>
      </trkpt>
      <trkpt lat="46.53519" lon="6.10019">
        <ele>1227</ele>
        <time>2021-08-18T11:59:07Z</time>
      </trkpt>
      <trkpt lat="46.53518" lon="6.1002">
        <ele>1227.1</ele>
        <time>2021-08-18T11:59:08Z</time>
      </trkpt>
      <trkpt lat="46.53518" lon="6.10021">
        <ele>1227.1</ele>
        <time>2021-08-18T11:59:09Z</time>
      </trkpt>
      <trkpt lat="46.53517" lon="6.10022">
        <ele>1227.2</ele>
        <time>2021-08-18T11:59:10Z</time>
      </trkpt>
      <trkpt lat="46.53516" lon="6.10023">
        <ele>1227.3</ele>
        <time>2021-08-18T11:59:12Z</time>
      </trkpt>
      <trkpt lat="46.53514" lon="6.10023">
        <ele>1227.5</ele>
        <time>2021-08-18T11:59:13Z</time>
      </trkpt>
      <trkpt lat="46.53512" lon="6.10023">
        <ele>1227.6</ele>
        <time>2021-08-18T11:59:15Z</time>
      </trkpt>
      <trkpt lat="46.53511" lon="6.10023">
        <ele>1227.7</ele>
        <time>2021-08-18T11:59:16Z</time>
      </trkpt>
      <trkpt lat="46.5351" lon="6.10024">
        <ele>1227.7</ele>
        <time>2021-08-18T11:59:17Z</time>
      </trkpt>
      <trkpt lat="46.53508" lon="6.10024">
        <ele>1227.8</ele>
        <time>2021-08-18T11:59:18Z</time>
      </trkpt>
      <trkpt lat="46.53507" lon="6.10024">
        <ele>1227.9</ele>
        <time>2021-08-18T11:59:19Z</time>
      </trkpt>
      <trkpt lat="46.53504" lon="6.10024">
        <ele>1228</ele>
        <time>2021-08-18T11:59:20Z</time>
      </trkpt>
      <trkpt lat="46.53503" lon="6.10024">
        <ele>1228.1</ele>
        <time>2021-08-18T11:59:21Z</time>
      </trkpt>
      <trkpt lat="46.535" lon="6.10022">
        <ele>1228.3</ele>
        <time>2021-08-18T11:59:23Z</time>
      </trkpt>
      <trkpt lat="46.53498" lon="6.10022">
        <ele>1228.3</ele>
        <time>2021-08-18T11:59:24Z</time>
      </trkpt>
      <trkpt lat="46.53495" lon="6.10022">
        <ele>1228.5</ele>
        <time>2021-08-18T11:59:26Z</time>
      </trkpt>
      <trkpt lat="46.53493" lon="6.10022">
        <ele>1228.5</ele>
        <time>2021-08-18T11:59:27Z</time>
      </trkpt>
      <trkpt lat="46.53492" lon="6.10023">
        <ele>1228.6</ele>
        <time>2021-08-18T11:59:28Z</time>
      </trkpt>
      <trkpt lat="46.53489" lon="6.10023">
        <ele>1228.6</ele>
        <time>2021-08-18T11:59:29Z</time>
      </trkpt>
      <trkpt lat="46.53488" lon="6.10023">
        <ele>1228.7</ele>
        <time>2021-08-18T11:59:30Z</time>
      </trkpt>
      <trkpt lat="46.53484" lon="6.10023">
        <ele>1228.7</ele>
        <time>2021-08-18T11:59:32Z</time>
      </trkpt>
      <trkpt lat="46.53482" lon="6.10023">
        <ele>1228.7</ele>
        <time>2021-08-18T11:59:33Z</time>
      </trkpt>
      <trkpt lat="46.5348" lon="6.10025">
        <ele>1228.8</ele>
        <time>2021-08-18T11:59:35Z</time>
      </trkpt>
      <trkpt lat="46.53477" lon="6.10026">
        <ele>1228.8</ele>
        <time>2021-08-18T11:59:36Z</time>
      </trkpt>
      <trkpt lat="46.53474" lon="6.10028">
        <ele>1228.8</ele>
        <time>2021-08-18T11:59:37Z</time>
      </trkpt>
      <trkpt lat="46.53472" lon="6.10028">
        <ele>1228.8</ele>
        <time>2021-08-18T11:59:38Z</time>
      </trkpt>
      <trkpt lat="46.53469" lon="6.10029">
        <ele>1228.8</ele>
        <time>2021-08-18T11:59:40Z</time>
      </trkpt>
      <trkpt lat="46.53466" lon="6.10029">
        <ele>1228.8</ele>
        <time>2021-08-18T11:59:41Z</time>
      </trkpt>
      <trkpt lat="46.53465" lon="6.10029">
        <ele>1228.8</ele>
        <time>2021-08-18T11:59:42Z</time>
      </trkpt>
      <trkpt lat="46.5346" lon="6.1003">
        <ele>1228.7</ele>
        <time>2021-08-18T11:59:43Z</time>
      </trkpt>
      <trkpt lat="46.53458" lon="6.1003">
        <ele>1228.7</ele>
        <time>2021-08-18T11:59:45Z</time>
      </trkpt>
      <trkpt lat="46.53456" lon="6.10031">
        <ele>1228.7</ele>
        <time>2021-08-18T11:59:46Z</time>
      </trkpt>
      <trkpt lat="46.53452" lon="6.10032">
        <ele>1228.6</ele>
        <time>2021-08-18T11:59:48Z</time>
      </trkpt>
      <trkpt lat="46.5345" lon="6.10032">
        <ele>1228.6</ele>
        <time>2021-08-18T11:59:49Z</time>
      </trkpt>
      <trkpt lat="46.53449" lon="6.10032">
        <ele>1228.6</ele>
        <time>2021-08-18T11:59:50Z</time>
      </trkpt>
      <trkpt lat="46.53446" lon="6.10032">
        <ele>1228.5</ele>
        <time>2021-08-18T11:59:51Z</time>
      </trkpt>
      <trkpt lat="46.53445" lon="6.10032">
        <ele>1228.5</ele>
        <time>2021-08-18T11:59:52Z</time>
      </trkpt>
      <trkpt lat="46.53442" lon="6.10031">
        <ele>1228.4</ele>
        <time>2021-08-18T11:59:54Z</time>
      </trkpt>
      <trkpt lat="46.53439" lon="6.1003">
        <ele>1228.3</ele>
        <time>2021-08-18T11:59:55Z</time>
      </trkpt>
      <trkpt lat="46.53435" lon="6.10029">
        <ele>1228.2</ele>
        <time>2021-08-18T11:59:56Z</time>
      </trkpt>
      <trkpt lat="46.5343" lon="6.10026">
        <ele>1228</ele>
        <time>2021-08-18T11:59:57Z</time>
      </trkpt>
      <trkpt lat="46.53426" lon="6.10025">
        <ele>1227.9</ele>
        <time>2021-08-18T11:59:59Z</time>
      </trkpt>
      <trkpt lat="46.53423" lon="6.10024">
        <ele>1227.8</ele>
        <time>2021-08-18T12:00:00Z</time>
      </trkpt>
      <trkpt lat="46.53418" lon="6.10021">
        <ele>1227.6</ele>
        <time>2021-08-18T12:00:02Z</time>
      </trkpt>
      <trkpt lat="46.53415" lon="6.10019">
        <ele>1227.4</ele>
        <time>2021-08-18T12:00:03Z</time>
      </trkpt>
      <trkpt lat="46.53411" lon="6.10017">
        <ele>1227.3</ele>
        <time>2021-08-18T12:00:04Z</time>
      </trkpt>
      <trkpt lat="46.53406" lon="6.10015">
        <ele>1227.1</ele>
        <time>2021-08-18T12:00:05Z</time>
      </trkpt>
      <trkpt lat="46.53398" lon="6.10011">
        <ele>1226.9</ele>
        <time>2021-08-18T12:00:07Z</time>
      </trkpt>
      <trkpt lat="46.53387" lon="6.10005">
        <ele>1226.6</ele>
        <time>2021-08-18T12:00:09Z</time>
      </trkpt>
      <trkpt lat="46.53383" lon="6.10002">
        <ele>1226.6</ele>
        <time>2021-08-18T12:00:10Z</time>
      </trkpt>
      <trkpt lat="46.5338" lon="6.09999">
        <ele>1226.6</ele>
        <time>2021-08-18T12:00:12Z</time>
      </trkpt>
      <trkpt lat="46.53377" lon="6.09995">
        <ele>1226.5</ele>
        <time>2021-08-18T12:00:13Z</time>
      </trkpt>
      <trkpt lat="46.53375" lon="6.09992">
        <ele>1226.5</ele>
        <time>2021-08-18T12:00:14Z</time>
      </trkpt>
      <trkpt lat="46.53373" lon="6.09989">
        <ele>1226.5</ele>
        <time>2021-08-18T12:00:15Z</time>
      </trkpt>
      <trkpt lat="46.5337" lon="6.09985">
        <ele>1226.4</ele>
        <time>2021-08-18T12:00:17Z</time>
      </trkpt>
      <trkpt lat="46.53368" lon="6.09983">
        <ele>1226.4</ele>
        <time>2021-08-18T12:00:18Z</time>
      </trkpt>
      <trkpt lat="46.53365" lon="6.09975">
        <ele>1226.4</ele>
        <time>2021-08-18T12:00:20Z</time>
      </trkpt>
      <trkpt lat="46.53365" lon="6.09975">
        <ele>1226.4</ele>
        <time>2021-08-18T12:00:20Z</time>
      </trkpt>
      <trkpt lat="46.53361" lon="6.09965">
        <ele>1226.3</ele>
        <time>2021-08-18T12:00:21Z</time>
      </trkpt>
      <trkpt lat="46.53358" lon="6.09953">
        <ele>1226.1</ele>
        <time>2021-08-18T12:00:23Z</time>
      </trkpt>
      <trkpt lat="46.53355" lon="6.09946">
        <ele>1226</ele>
        <time>2021-08-18T12:00:24Z</time>
      </trkpt>
      <trkpt lat="46.5335" lon="6.09926">
        <ele>1225.7</ele>
        <time>2021-08-18T12:00:26Z</time>
      </trkpt>
      <trkpt lat="46.53347" lon="6.0992">
        <ele>1225.7</ele>
        <time>2021-08-18T12:00:27Z</time>
      </trkpt>
      <trkpt lat="46.53342" lon="6.09912">
        <ele>1225.7</ele>
        <time>2021-08-18T12:00:29Z</time>
      </trkpt>
      <trkpt lat="46.5334" lon="6.09907">
        <ele>1225.7</ele>
        <time>2021-08-18T12:00:30Z</time>
      </trkpt>
      <trkpt lat="46.53338" lon="6.09901">
        <ele>1225.8</ele>
        <time>2021-08-18T12:00:31Z</time>
      </trkpt>
      <trkpt lat="46.53334" lon="6.09894">
        <ele>1226</ele>
        <time>2021-08-18T12:00:33Z</time>
      </trkpt>
      <trkpt lat="46.53332" lon="6.09891">
        <ele>1226.1</ele>
        <time>2021-08-18T12:00:34Z</time>
      </trkpt>
      <trkpt lat="46.53329" lon="6.09887">
        <ele>1226.3</ele>
        <time>2021-08-18T12:00:35Z</time>
      </trkpt>
      <trkpt lat="46.53328" lon="6.09885">
        <ele>1226.4</ele>
        <time>2021-08-18T12:00:36Z</time>
      </trkpt>
      <trkpt lat="46.53326" lon="6.09882">
        <ele>1226.5</ele>
        <time>2021-08-18T12:00:38Z</time>
      </trkpt>
      <trkpt lat="46.53323" lon="6.09879">
        <ele>1226.7</ele>
        <time>2021-08-18T12:00:39Z</time>
      </trkpt>
      <trkpt lat="46.53321" lon="6.09876">
        <ele>1226.9</ele>
        <time>2021-08-18T12:00:40Z</time>
      </trkpt>
      <trkpt lat="46.5332" lon="6.09872">
        <ele>1227.1</ele>
        <time>2021-08-18T12:00:41Z</time>
      </trkpt>
      <trkpt lat="46.53319" lon="6.09868">
        <ele>1227.3</ele>
        <time>2021-08-18T12:00:43Z</time>
      </trkpt>
      <trkpt lat="46.53318" lon="6.09868">
        <ele>1227.4</ele>
        <time>2021-08-18T12:00:44Z</time>
      </trkpt>
      <trkpt lat="46.53315" lon="6.09866">
        <ele>1227.6</ele>
        <time>2021-08-18T12:00:45Z</time>
      </trkpt>
      <trkpt lat="46.53313" lon="6.09865">
        <ele>1227.7</ele>
        <time>2021-08-18T12:00:46Z</time>
      </trkpt>
      <trkpt lat="46.53311" lon="6.09863">
        <ele>1227.8</ele>
        <time>2021-08-18T12:00:47Z</time>
      </trkpt>
      <trkpt lat="46.53309" lon="6.0986">
        <ele>1228</ele>
        <time>2021-08-18T12:00:49Z</time>
      </trkpt>
      <trkpt lat="46.53308" lon="6.09858">
        <ele>1228.2</ele>
        <time>2021-08-18T12:00:50Z</time>
      </trkpt>
      <trkpt lat="46.53306" lon="6.09855">
        <ele>1228.3</ele>
        <time>2021-08-18T12:00:52Z</time>
      </trkpt>
      <trkpt lat="46.53304" lon="6.09852">
        <ele>1228.5</ele>
        <time>2021-08-18T12:00:53Z</time>
      </trkpt>
      <trkpt lat="46.53303" lon="6.09849">
        <ele>1228.6</ele>
        <time>2021-08-18T12:00:54Z</time>
      </trkpt>
      <trkpt lat="46.53302" lon="6.09847">
        <ele>1228.7</ele>
        <time>2021-08-18T12:00:56Z</time>
      </trkpt>
      <trkpt lat="46.53301" lon="6.09845">
        <ele>1228.9</ele>
        <time>2021-08-18T12:00:57Z</time>
      </trkpt>
      <trkpt lat="46.53299" lon="6.09839">
        <ele>1229.1</ele>
        <time>2021-08-18T12:00:58Z</time>
      </trkpt>
      <trkpt lat="46.53299" lon="6.09835">
        <ele>1229.2</ele>
        <time>2021-08-18T12:01:00Z</time>
      </trkpt>
      <trkpt lat="46.53299" lon="6.09828">
        <ele>1229.5</ele>
        <time>2021-08-18T12:01:02Z</time>
      </trkpt>
      <trkpt lat="46.53298" lon="6.09824">
        <ele>1229.6</ele>
        <time>2021-08-18T12:01:03Z</time>
      </trkpt>
      <trkpt lat="46.53297" lon="6.09822">
        <ele>1229.6</ele>
        <time>2021-08-18T12:01:04Z</time>
      </trkpt>
      <trkpt lat="46.53297" lon="6.09817">
        <ele>1229.8</ele>
        <time>2021-08-18T12:01:05Z</time>
      </trkpt>
      <trkpt lat="46.53297" lon="6.09813">
        <ele>1229.9</ele>
        <time>2021-08-18T12:01:06Z</time>
      </trkpt>
      <trkpt lat="46.53297" lon="6.09808">
        <ele>1229.9</ele>
        <time>2021-08-18T12:01:08Z</time>
      </trkpt>
      <trkpt lat="46.53296" lon="6.09803">
        <ele>1230</ele>
        <time>2021-08-18T12:01:09Z</time>
      </trkpt>
      <trkpt lat="46.53296" lon="6.09799">
        <ele>1230.1</ele>
        <time>2021-08-18T12:01:10Z</time>
      </trkpt>
      <trkpt lat="46.53296" lon="6.09798">
        <ele>1230.1</ele>
        <time>2021-08-18T12:01:11Z</time>
      </trkpt>
      <trkpt lat="46.53297" lon="6.09796">
        <ele>1230.2</ele>
        <time>2021-08-18T12:01:13Z</time>
      </trkpt>
      <trkpt lat="46.53297" lon="6.09795">
        <ele>1230.2</ele>
        <time>2021-08-18T12:01:14Z</time>
      </trkpt>
      <trkpt lat="46.53297" lon="6.09795">
        <ele>1230.2</ele>
        <time>2021-08-18T12:01:15Z</time>
      </trkpt>
      <trkpt lat="46.53295" lon="6.09793">
        <ele>1230.2</ele>
        <time>2021-08-18T12:01:16Z</time>
      </trkpt>
      <trkpt lat="46.53293" lon="6.09792">
        <ele>1230.3</ele>
        <time>2021-08-18T12:01:17Z</time>
      </trkpt>
      <trkpt lat="46.53292" lon="6.09791">
        <ele>1230.3</ele>
        <time>2021-08-18T12:01:18Z</time>
      </trkpt>
      <trkpt lat="46.53288" lon="6.09789">
        <ele>1230.4</ele>
        <time>2021-08-18T12:01:20Z</time>
      </trkpt>
      <trkpt lat="46.53286" lon="6.09788">
        <ele>1230.5</ele>
        <time>2021-08-18T12:01:21Z</time>
      </trkpt>
      <trkpt lat="46.53284" lon="6.09787">
        <ele>1230.6</ele>
        <time>2021-08-18T12:01:22Z</time>
      </trkpt>
      <trkpt lat="46.53281" lon="6.09786">
        <ele>1230.6</ele>
        <time>2021-08-18T12:01:24Z</time>
      </trkpt>
      <trkpt lat="46.53274" lon="6.0978">
        <ele>1230.9</ele>
        <time>2021-08-18T12:01:29Z</time>
      </trkpt>
      <trkpt lat="46.53271" lon="6.09777">
        <ele>1231</ele>
        <time>2021-08-18T12:01:30Z</time>
      </trkpt>
      <trkpt lat="46.53267" lon="6.09774">
        <ele>1231.1</ele>
        <time>2021-08-18T12:01:31Z</time>
      </trkpt>
      <trkpt lat="46.53261" lon="6.09771">
        <ele>1231.3</ele>
        <time>2021-08-18T12:01:33Z</time>
      </trkpt>
      <trkpt lat="46.53255" lon="6.09767">
        <ele>1231.5</ele>
        <time>2021-08-18T12:01:34Z</time>
      </trkpt>
      <trkpt lat="46.5325" lon="6.09765">
        <ele>1231.6</ele>
        <time>2021-08-18T12:01:35Z</time>
      </trkpt>
      <trkpt lat="46.53248" lon="6.09764">
        <ele>1231.7</ele>
        <time>2021-08-18T12:01:36Z</time>
      </trkpt>
      <trkpt lat="46.53242" lon="6.09759">
        <ele>1231.9</ele>
        <time>2021-08-18T12:01:38Z</time>
      </trkpt>
      <trkpt lat="46.5324" lon="6.09756">
        <ele>1232</ele>
        <time>2021-08-18T12:01:39Z</time>
      </trkpt>
      <trkpt lat="46.53237" lon="6.09751">
        <ele>1232.1</ele>
        <time>2021-08-18T12:01:41Z</time>
      </trkpt>
      <trkpt lat="46.53236" lon="6.09749">
        <ele>1232.2</ele>
        <time>2021-08-18T12:01:42Z</time>
      </trkpt>
      <trkpt lat="46.53235" lon="6.09746">
        <ele>1232.2</ele>
        <time>2021-08-18T12:01:43Z</time>
      </trkpt>
      <trkpt lat="46.53234" lon="6.09743">
        <ele>1232.4</ele>
        <time>2021-08-18T12:01:45Z</time>
      </trkpt>
      <trkpt lat="46.53233" lon="6.09738">
        <ele>1232.5</ele>
        <time>2021-08-18T12:01:46Z</time>
      </trkpt>
      <trkpt lat="46.53231" lon="6.09735">
        <ele>1232.6</ele>
        <time>2021-08-18T12:01:47Z</time>
      </trkpt>
      <trkpt lat="46.5323" lon="6.09731">
        <ele>1232.7</ele>
        <time>2021-08-18T12:01:49Z</time>
      </trkpt>
      <trkpt lat="46.53227" lon="6.09727">
        <ele>1232.8</ele>
        <time>2021-08-18T12:01:50Z</time>
      </trkpt>
      <trkpt lat="46.53226" lon="6.09725">
        <ele>1232.9</ele>
        <time>2021-08-18T12:01:51Z</time>
      </trkpt>
      <trkpt lat="46.53225" lon="6.0972">
        <ele>1233.1</ele>
        <time>2021-08-18T12:01:52Z</time>
      </trkpt>
      <trkpt lat="46.53224" lon="6.09714">
        <ele>1233.2</ele>
        <time>2021-08-18T12:01:54Z</time>
      </trkpt>
      <trkpt lat="46.53224" lon="6.09707">
        <ele>1233.3</ele>
        <time>2021-08-18T12:01:55Z</time>
      </trkpt>
      <trkpt lat="46.53224" lon="6.09704">
        <ele>1233.4</ele>
        <time>2021-08-18T12:01:56Z</time>
      </trkpt>
      <trkpt lat="46.53225" lon="6.09703">
        <ele>1233.4</ele>
        <time>2021-08-18T12:01:57Z</time>
      </trkpt>
      <trkpt lat="46.53223" lon="6.09701">
        <ele>1233.5</ele>
        <time>2021-08-18T12:01:58Z</time>
      </trkpt>
      <trkpt lat="46.53222" lon="6.09698">
        <ele>1233.6</ele>
        <time>2021-08-18T12:02:00Z</time>
      </trkpt>
      <trkpt lat="46.53219" lon="6.09695">
        <ele>1233.7</ele>
        <time>2021-08-18T12:02:01Z</time>
      </trkpt>
      <trkpt lat="46.53218" lon="6.09695">
        <ele>1233.7</ele>
        <time>2021-08-18T12:02:02Z</time>
      </trkpt>
      <trkpt lat="46.53215" lon="6.09694">
        <ele>1233.8</ele>
        <time>2021-08-18T12:02:03Z</time>
      </trkpt>
      <trkpt lat="46.53214" lon="6.09692">
        <ele>1233.9</ele>
        <time>2021-08-18T12:02:04Z</time>
      </trkpt>
      <trkpt lat="46.53214" lon="6.0969">
        <ele>1233.9</ele>
        <time>2021-08-18T12:02:05Z</time>
      </trkpt>
      <trkpt lat="46.53213" lon="6.09686">
        <ele>1234</ele>
        <time>2021-08-18T12:02:06Z</time>
      </trkpt>
      <trkpt lat="46.53211" lon="6.09683">
        <ele>1234.1</ele>
        <time>2021-08-18T12:02:08Z</time>
      </trkpt>
      <trkpt lat="46.5321" lon="6.09681">
        <ele>1234.2</ele>
        <time>2021-08-18T12:02:09Z</time>
      </trkpt>
      <trkpt lat="46.5321" lon="6.09676">
        <ele>1234.3</ele>
        <time>2021-08-18T12:02:11Z</time>
      </trkpt>
      <trkpt lat="46.53212" lon="6.09671">
        <ele>1234.4</ele>
        <time>2021-08-18T12:02:13Z</time>
      </trkpt>
      <trkpt lat="46.53212" lon="6.0967">
        <ele>1234.5</ele>
        <time>2021-08-18T12:02:14Z</time>
      </trkpt>
      <trkpt lat="46.5321" lon="6.09666">
        <ele>1234.6</ele>
        <time>2021-08-18T12:02:15Z</time>
      </trkpt>
      <trkpt lat="46.53208" lon="6.09665">
        <ele>1234.7</ele>
        <time>2021-08-18T12:02:16Z</time>
      </trkpt>
      <trkpt lat="46.53205" lon="6.09664">
        <ele>1234.9</ele>
        <time>2021-08-18T12:02:17Z</time>
      </trkpt>
      <trkpt lat="46.53204" lon="6.09664">
        <ele>1234.9</ele>
        <time>2021-08-18T12:02:18Z</time>
      </trkpt>
      <trkpt lat="46.53202" lon="6.09666">
        <ele>1235</ele>
        <time>2021-08-18T12:02:20Z</time>
      </trkpt>
      <trkpt lat="46.53201" lon="6.09667">
        <ele>1235.1</ele>
        <time>2021-08-18T12:02:21Z</time>
      </trkpt>
      <trkpt lat="46.53197" lon="6.09665">
        <ele>1235.4</ele>
        <time>2021-08-18T12:02:23Z</time>
      </trkpt>
      <trkpt lat="46.53195" lon="6.09665">
        <ele>1235.4</ele>
        <time>2021-08-18T12:02:24Z</time>
      </trkpt>
      <trkpt lat="46.53194" lon="6.09664">
        <ele>1235.5</ele>
        <time>2021-08-18T12:02:25Z</time>
      </trkpt>
      <trkpt lat="46.53192" lon="6.09662">
        <ele>1235.7</ele>
        <time>2021-08-18T12:02:26Z</time>
      </trkpt>
      <trkpt lat="46.53191" lon="6.0966">
        <ele>1235.8</ele>
        <time>2021-08-18T12:02:27Z</time>
      </trkpt>
      <trkpt lat="46.5319" lon="6.09659">
        <ele>1235.9</ele>
        <time>2021-08-18T12:02:29Z</time>
      </trkpt>
      <trkpt lat="46.53189" lon="6.09657">
        <ele>1236</ele>
        <time>2021-08-18T12:02:30Z</time>
      </trkpt>
      <trkpt lat="46.53188" lon="6.09655">
        <ele>1236.1</ele>
        <time>2021-08-18T12:02:31Z</time>
      </trkpt>
      <trkpt lat="46.53186" lon="6.09652">
        <ele>1236.2</ele>
        <time>2021-08-18T12:02:32Z</time>
      </trkpt>
      <trkpt lat="46.53184" lon="6.0965">
        <ele>1236.4</ele>
        <time>2021-08-18T12:02:34Z</time>
      </trkpt>
      <trkpt lat="46.53183" lon="6.09647">
        <ele>1236.5</ele>
        <time>2021-08-18T12:02:35Z</time>
      </trkpt>
      <trkpt lat="46.53181" lon="6.09644">
        <ele>1236.7</ele>
        <time>2021-08-18T12:02:37Z</time>
      </trkpt>
      <trkpt lat="46.53178" lon="6.09642">
        <ele>1236.9</ele>
        <time>2021-08-18T12:02:38Z</time>
      </trkpt>
      <trkpt lat="46.53175" lon="6.0964">
        <ele>1237</ele>
        <time>2021-08-18T12:02:39Z</time>
      </trkpt>
      <trkpt lat="46.5317" lon="6.09636">
        <ele>1237.3</ele>
        <time>2021-08-18T12:02:40Z</time>
      </trkpt>
      <trkpt lat="46.53167" lon="6.09634">
        <ele>1237.4</ele>
        <time>2021-08-18T12:02:41Z</time>
      </trkpt>
      <trkpt lat="46.53164" lon="6.0963">
        <ele>1237.5</ele>
        <time>2021-08-18T12:02:43Z</time>
      </trkpt>
      <trkpt lat="46.53162" lon="6.09628">
        <ele>1237.5</ele>
        <time>2021-08-18T12:02:44Z</time>
      </trkpt>
      <trkpt lat="46.53158" lon="6.09625">
        <ele>1237.6</ele>
        <time>2021-08-18T12:02:45Z</time>
      </trkpt>
      <trkpt lat="46.53156" lon="6.09622">
        <ele>1237.6</ele>
        <time>2021-08-18T12:02:46Z</time>
      </trkpt>
      <trkpt lat="46.53153" lon="6.09619">
        <ele>1237.6</ele>
        <time>2021-08-18T12:02:48Z</time>
      </trkpt>
      <trkpt lat="46.53149" lon="6.09618">
        <ele>1237.7</ele>
        <time>2021-08-18T12:02:50Z</time>
      </trkpt>
      <trkpt lat="46.53146" lon="6.09617">
        <ele>1237.7</ele>
        <time>2021-08-18T12:02:51Z</time>
      </trkpt>
      <trkpt lat="46.53143" lon="6.09615">
        <ele>1237.7</ele>
        <time>2021-08-18T12:02:52Z</time>
      </trkpt>
      <trkpt lat="46.5314" lon="6.09614">
        <ele>1237.8</ele>
        <time>2021-08-18T12:02:54Z</time>
      </trkpt>
      <trkpt lat="46.53138" lon="6.09613">
        <ele>1237.8</ele>
        <time>2021-08-18T12:02:55Z</time>
      </trkpt>
      <trkpt lat="46.53135" lon="6.09611">
        <ele>1237.9</ele>
        <time>2021-08-18T12:02:56Z</time>
      </trkpt>
      <trkpt lat="46.53134" lon="6.0961">
        <ele>1237.9</ele>
        <time>2021-08-18T12:02:57Z</time>
      </trkpt>
      <trkpt lat="46.53134" lon="6.09605">
        <ele>1238</ele>
        <time>2021-08-18T12:02:58Z</time>
      </trkpt>
      <trkpt lat="46.53133" lon="6.09597">
        <ele>1238.1</ele>
        <time>2021-08-18T12:03:00Z</time>
      </trkpt>
      <trkpt lat="46.53132" lon="6.09591">
        <ele>1238.2</ele>
        <time>2021-08-18T12:03:02Z</time>
      </trkpt>
      <trkpt lat="46.53132" lon="6.09586">
        <ele>1238.3</ele>
        <time>2021-08-18T12:03:03Z</time>
      </trkpt>
      <trkpt lat="46.53131" lon="6.0958">
        <ele>1238.5</ele>
        <time>2021-08-18T12:03:04Z</time>
      </trkpt>
      <trkpt lat="46.53131" lon="6.09574">
        <ele>1238.6</ele>
        <time>2021-08-18T12:03:06Z</time>
      </trkpt>
      <trkpt lat="46.53129" lon="6.09572">
        <ele>1238.7</ele>
        <time>2021-08-18T12:03:07Z</time>
      </trkpt>
      <trkpt lat="46.53128" lon="6.09571">
        <ele>1238.7</ele>
        <time>2021-08-18T12:03:08Z</time>
      </trkpt>
      <trkpt lat="46.53128" lon="6.0957">
        <ele>1238.7</ele>
        <time>2021-08-18T12:03:09Z</time>
      </trkpt>
      <trkpt lat="46.53126" lon="6.09568">
        <ele>1238.8</ele>
        <time>2021-08-18T12:03:10Z</time>
      </trkpt>
      <trkpt lat="46.53126" lon="6.09565">
        <ele>1238.9</ele>
        <time>2021-08-18T12:03:12Z</time>
      </trkpt>
      <trkpt lat="46.53126" lon="6.09559">
        <ele>1239</ele>
        <time>2021-08-18T12:03:13Z</time>
      </trkpt>
      <trkpt lat="46.53126" lon="6.09556">
        <ele>1239.1</ele>
        <time>2021-08-18T12:03:15Z</time>
      </trkpt>
      <trkpt lat="46.53126" lon="6.09555">
        <ele>1239.1</ele>
        <time>2021-08-18T12:03:16Z</time>
      </trkpt>
      <trkpt lat="46.53126" lon="6.09554">
        <ele>1239.1</ele>
        <time>2021-08-18T12:03:17Z</time>
      </trkpt>
      <trkpt lat="46.53126" lon="6.09553">
        <ele>1239.2</ele>
        <time>2021-08-18T12:03:18Z</time>
      </trkpt>
      <trkpt lat="46.53126" lon="6.09552">
        <ele>1239.2</ele>
        <time>2021-08-18T12:03:19Z</time>
      </trkpt>
      <trkpt lat="46.53125" lon="6.0955">
        <ele>1239.2</ele>
        <time>2021-08-18T12:03:21Z</time>
      </trkpt>
      <trkpt lat="46.53124" lon="6.09547">
        <ele>1239.3</ele>
        <time>2021-08-18T12:03:22Z</time>
      </trkpt>
      <trkpt lat="46.53123" lon="6.09543">
        <ele>1239.4</ele>
        <time>2021-08-18T12:03:24Z</time>
      </trkpt>
      <trkpt lat="46.53119" lon="6.0954">
        <ele>1239.5</ele>
        <time>2021-08-18T12:03:25Z</time>
      </trkpt>
      <trkpt lat="46.53117" lon="6.09539">
        <ele>1239.6</ele>
        <time>2021-08-18T12:03:26Z</time>
      </trkpt>
      <trkpt lat="46.53114" lon="6.09538">
        <ele>1239.7</ele>
        <time>2021-08-18T12:03:27Z</time>
      </trkpt>
      <trkpt lat="46.53112" lon="6.09536">
        <ele>1239.8</ele>
        <time>2021-08-18T12:03:29Z</time>
      </trkpt>
      <trkpt lat="46.5311" lon="6.09535">
        <ele>1239.9</ele>
        <time>2021-08-18T12:03:30Z</time>
      </trkpt>
      <trkpt lat="46.5311" lon="6.0953">
        <ele>1240</ele>
        <time>2021-08-18T12:03:31Z</time>
      </trkpt>
      <trkpt lat="46.5311" lon="6.09528">
        <ele>1240.1</ele>
        <time>2021-08-18T12:03:32Z</time>
      </trkpt>
      <trkpt lat="46.5311" lon="6.09522">
        <ele>1240.2</ele>
        <time>2021-08-18T12:03:34Z</time>
      </trkpt>
      <trkpt lat="46.5311" lon="6.0952">
        <ele>1240.3</ele>
        <time>2021-08-18T12:03:35Z</time>
      </trkpt>
      <trkpt lat="46.53108" lon="6.09516">
        <ele>1240.4</ele>
        <time>2021-08-18T12:03:37Z</time>
      </trkpt>
      <trkpt lat="46.53106" lon="6.09515">
        <ele>1240.5</ele>
        <time>2021-08-18T12:03:38Z</time>
      </trkpt>
      <trkpt lat="46.53105" lon="6.09515">
        <ele>1240.6</ele>
        <time>2021-08-18T12:03:39Z</time>
      </trkpt>
      <trkpt lat="46.53103" lon="6.09514">
        <ele>1240.6</ele>
        <time>2021-08-18T12:03:40Z</time>
      </trkpt>
      <trkpt lat="46.53102" lon="6.09514">
        <ele>1240.7</ele>
        <time>2021-08-18T12:03:43Z</time>
      </trkpt>
      <trkpt lat="46.531" lon="6.09512">
        <ele>1240.8</ele>
        <time>2021-08-18T12:03:45Z</time>
      </trkpt>
      <trkpt lat="46.53099" lon="6.09507">
        <ele>1240.9</ele>
        <time>2021-08-18T12:03:46Z</time>
      </trkpt>
      <trkpt lat="46.53098" lon="6.09506">
        <ele>1241</ele>
        <time>2021-08-18T12:03:47Z</time>
      </trkpt>
      <trkpt lat="46.53096" lon="6.095">
        <ele>1241.2</ele>
        <time>2021-08-18T12:03:49Z</time>
      </trkpt>
      <trkpt lat="46.53096" lon="6.09498">
        <ele>1241.3</ele>
        <time>2021-08-18T12:03:50Z</time>
      </trkpt>
      <trkpt lat="46.53095" lon="6.09496">
        <ele>1241.4</ele>
        <time>2021-08-18T12:03:51Z</time>
      </trkpt>
      <trkpt lat="46.53095" lon="6.09491">
        <ele>1241.6</ele>
        <time>2021-08-18T12:03:52Z</time>
      </trkpt>
      <trkpt lat="46.53096" lon="6.09487">
        <ele>1241.8</ele>
        <time>2021-08-18T12:03:53Z</time>
      </trkpt>
      <trkpt lat="46.53097" lon="6.09485">
        <ele>1241.8</ele>
        <time>2021-08-18T12:03:54Z</time>
      </trkpt>
      <trkpt lat="46.53096" lon="6.09483">
        <ele>1241.9</ele>
        <time>2021-08-18T12:03:56Z</time>
      </trkpt>
      <trkpt lat="46.53095" lon="6.09481">
        <ele>1242</ele>
        <time>2021-08-18T12:03:57Z</time>
      </trkpt>
      <trkpt lat="46.53094" lon="6.0948">
        <ele>1242.1</ele>
        <time>2021-08-18T12:03:59Z</time>
      </trkpt>
      <trkpt lat="46.53093" lon="6.0948">
        <ele>1242.1</ele>
        <time>2021-08-18T12:04:00Z</time>
      </trkpt>
      <trkpt lat="46.53093" lon="6.09481">
        <ele>1242.1</ele>
        <time>2021-08-18T12:04:02Z</time>
      </trkpt>
      <trkpt lat="46.53092" lon="6.09481">
        <ele>1242.2</ele>
        <time>2021-08-18T12:04:03Z</time>
      </trkpt>
      <trkpt lat="46.53092" lon="6.09481">
        <ele>1242.2</ele>
        <time>2021-08-18T12:04:05Z</time>
      </trkpt>
      <trkpt lat="46.53091" lon="6.09481">
        <ele>1242.2</ele>
        <time>2021-08-18T12:04:06Z</time>
      </trkpt>
      <trkpt lat="46.53091" lon="6.09481">
        <ele>1242.3</ele>
        <time>2021-08-18T12:04:07Z</time>
      </trkpt>
      <trkpt lat="46.53074" lon="6.09473">
        <ele>1243.3</ele>
        <time>2021-08-18T12:04:21Z</time>
      </trkpt>
      <trkpt lat="46.53072" lon="6.0947">
        <ele>1243.5</ele>
        <time>2021-08-18T12:04:22Z</time>
      </trkpt>
      <trkpt lat="46.53069" lon="6.09468">
        <ele>1243.7</ele>
        <time>2021-08-18T12:04:23Z</time>
      </trkpt>
      <trkpt lat="46.53066" lon="6.09466">
        <ele>1244</ele>
        <time>2021-08-18T12:04:25Z</time>
      </trkpt>
      <trkpt lat="46.53063" lon="6.09465">
        <ele>1244.2</ele>
        <time>2021-08-18T12:04:26Z</time>
      </trkpt>
      <trkpt lat="46.5306" lon="6.09463">
        <ele>1244.4</ele>
        <time>2021-08-18T12:04:27Z</time>
      </trkpt>
      <trkpt lat="46.5306" lon="6.09461">
        <ele>1244.5</ele>
        <time>2021-08-18T12:04:29Z</time>
      </trkpt>
      <trkpt lat="46.53059" lon="6.0946">
        <ele>1244.6</ele>
        <time>2021-08-18T12:04:30Z</time>
      </trkpt>
      <trkpt lat="46.53058" lon="6.09459">
        <ele>1244.7</ele>
        <time>2021-08-18T12:04:31Z</time>
      </trkpt>
      <trkpt lat="46.53058" lon="6.09458">
        <ele>1244.7</ele>
        <time>2021-08-18T12:04:33Z</time>
      </trkpt>
      <trkpt lat="46.53058" lon="6.09458">
        <ele>1244.7</ele>
        <time>2021-08-18T12:04:34Z</time>
      </trkpt>
      <trkpt lat="46.53058" lon="6.09457">
        <ele>1244.7</ele>
        <time>2021-08-18T12:04:36Z</time>
      </trkpt>
      <trkpt lat="46.53057" lon="6.09457">
        <ele>1244.8</ele>
        <time>2021-08-18T12:04:37Z</time>
      </trkpt>
      <trkpt lat="46.53056" lon="6.09458">
        <ele>1244.9</ele>
        <time>2021-08-18T12:04:38Z</time>
      </trkpt>
      <trkpt lat="46.53055" lon="6.09458">
        <ele>1245</ele>
        <time>2021-08-18T12:04:40Z</time>
      </trkpt>
      <trkpt lat="46.53041" lon="6.09441">
        <ele>1246.4</ele>
        <time>2021-08-18T12:05:09Z</time>
      </trkpt>
      <trkpt lat="46.5304" lon="6.09438">
        <ele>1246.6</ele>
        <time>2021-08-18T12:05:11Z</time>
      </trkpt>
      <trkpt lat="46.53039" lon="6.09436">
        <ele>1246.7</ele>
        <time>2021-08-18T12:05:12Z</time>
      </trkpt>
      <trkpt lat="46.53035" lon="6.09435">
        <ele>1247</ele>
        <time>2021-08-18T12:05:14Z</time>
      </trkpt>
      <trkpt lat="46.53033" lon="6.09434">
        <ele>1247.3</ele>
        <time>2021-08-18T12:05:15Z</time>
      </trkpt>
      <trkpt lat="46.53029" lon="6.09434">
        <ele>1247.6</ele>
        <time>2021-08-18T12:05:17Z</time>
      </trkpt>
      <trkpt lat="46.53027" lon="6.09434">
        <ele>1247.8</ele>
        <time>2021-08-18T12:05:18Z</time>
      </trkpt>
      <trkpt lat="46.53026" lon="6.09434">
        <ele>1247.9</ele>
        <time>2021-08-18T12:05:19Z</time>
      </trkpt>
      <trkpt lat="46.53025" lon="6.09434">
        <ele>1248</ele>
        <time>2021-08-18T12:05:20Z</time>
      </trkpt>
      <trkpt lat="46.53023" lon="6.09435">
        <ele>1248.1</ele>
        <time>2021-08-18T12:05:22Z</time>
      </trkpt>
      <trkpt lat="46.53023" lon="6.09438">
        <ele>1248.3</ele>
        <time>2021-08-18T12:05:23Z</time>
      </trkpt>
      <trkpt lat="46.53023" lon="6.09439">
        <ele>1248.4</ele>
        <time>2021-08-18T12:05:24Z</time>
      </trkpt>
      <trkpt lat="46.53023" lon="6.0944">
        <ele>1248.5</ele>
        <time>2021-08-18T12:05:26Z</time>
      </trkpt>
      <trkpt lat="46.53022" lon="6.09441">
        <ele>1248.6</ele>
        <time>2021-08-18T12:05:27Z</time>
      </trkpt>
      <trkpt lat="46.53022" lon="6.09442">
        <ele>1248.6</ele>
        <time>2021-08-18T12:05:28Z</time>
      </trkpt>
      <trkpt lat="46.53021" lon="6.09442">
        <ele>1248.7</ele>
        <time>2021-08-18T12:05:30Z</time>
      </trkpt>
      <trkpt lat="46.5301" lon="6.09444">
        <ele>1249.7</ele>
        <time>2021-08-18T12:05:36Z</time>
      </trkpt>
      <trkpt lat="46.53004" lon="6.09445">
        <ele>1250.2</ele>
        <time>2021-08-18T12:05:37Z</time>
      </trkpt>
      <trkpt lat="46.52998" lon="6.09446">
        <ele>1250.6</ele>
        <time>2021-08-18T12:05:39Z</time>
      </trkpt>
      <trkpt lat="46.52993" lon="6.09446">
        <ele>1251</ele>
        <time>2021-08-18T12:05:40Z</time>
      </trkpt>
      <trkpt lat="46.52989" lon="6.09446">
        <ele>1251.3</ele>
        <time>2021-08-18T12:05:41Z</time>
      </trkpt>
      <trkpt lat="46.52987" lon="6.09443">
        <ele>1251.5</ele>
        <time>2021-08-18T12:05:43Z</time>
      </trkpt>
      <trkpt lat="46.52985" lon="6.09439">
        <ele>1251.7</ele>
        <time>2021-08-18T12:05:44Z</time>
      </trkpt>
      <trkpt lat="46.52983" lon="6.09434">
        <ele>1251.9</ele>
        <time>2021-08-18T12:05:45Z</time>
      </trkpt>
      <trkpt lat="46.52982" lon="6.0943">
        <ele>1252.1</ele>
        <time>2021-08-18T12:05:47Z</time>
      </trkpt>
      <trkpt lat="46.52981" lon="6.09425">
        <ele>1252.4</ele>
        <time>2021-08-18T12:05:48Z</time>
      </trkpt>
      <trkpt lat="46.5298" lon="6.09423">
        <ele>1252.5</ele>
        <time>2021-08-18T12:05:50Z</time>
      </trkpt>
      <trkpt lat="46.52979" lon="6.09422">
        <ele>1252.5</ele>
        <time>2021-08-18T12:05:51Z</time>
      </trkpt>
      <trkpt lat="46.52979" lon="6.09421">
        <ele>1252.6</ele>
        <time>2021-08-18T12:05:52Z</time>
      </trkpt>
      <trkpt lat="46.52977" lon="6.09419">
        <ele>1252.7</ele>
        <time>2021-08-18T12:05:53Z</time>
      </trkpt>
      <trkpt lat="46.52977" lon="6.09418">
        <ele>1252.8</ele>
        <time>2021-08-18T12:05:55Z</time>
      </trkpt>
      <trkpt lat="46.52977" lon="6.09417">
        <ele>1252.8</ele>
        <time>2021-08-18T12:05:56Z</time>
      </trkpt>
      <trkpt lat="46.52975" lon="6.09415">
        <ele>1253</ele>
        <time>2021-08-18T12:05:58Z</time>
      </trkpt>
      <trkpt lat="46.52972" lon="6.0941">
        <ele>1253.3</ele>
        <time>2021-08-18T12:06:00Z</time>
      </trkpt>
      <trkpt lat="46.52969" lon="6.0941">
        <ele>1253.5</ele>
        <time>2021-08-18T12:06:01Z</time>
      </trkpt>
      <trkpt lat="46.52966" lon="6.0941">
        <ele>1253.7</ele>
        <time>2021-08-18T12:06:02Z</time>
      </trkpt>
      <trkpt lat="46.52965" lon="6.0941">
        <ele>1253.7</ele>
        <time>2021-08-18T12:06:03Z</time>
      </trkpt>
      <trkpt lat="46.52961" lon="6.0941">
        <ele>1254.1</ele>
        <time>2021-08-18T12:06:05Z</time>
      </trkpt>
      <trkpt lat="46.5296" lon="6.09409">
        <ele>1254.1</ele>
        <time>2021-08-18T12:06:06Z</time>
      </trkpt>
      <trkpt lat="46.5296" lon="6.09407">
        <ele>1254.2</ele>
        <time>2021-08-18T12:06:07Z</time>
      </trkpt>
      <trkpt lat="46.52961" lon="6.09405">
        <ele>1254.3</ele>
        <time>2021-08-18T12:06:09Z</time>
      </trkpt>
      <trkpt lat="46.52961" lon="6.09403">
        <ele>1254.5</ele>
        <time>2021-08-18T12:06:10Z</time>
      </trkpt>
      <trkpt lat="46.52961" lon="6.09402">
        <ele>1254.5</ele>
        <time>2021-08-18T12:06:11Z</time>
      </trkpt>
      <trkpt lat="46.52853" lon="6.09203">
        <ele>1251.2</ele>
        <time>2021-08-18T12:07:09Z</time>
      </trkpt>
      <trkpt lat="46.52839" lon="6.09174">
        <ele>1250.7</ele>
        <time>2021-08-18T12:07:11Z</time>
      </trkpt>
      <trkpt lat="46.52833" lon="6.09163">
        <ele>1250.6</ele>
        <time>2021-08-18T12:07:12Z</time>
      </trkpt>
      <trkpt lat="46.52824" lon="6.09151">
        <ele>1250.5</ele>
        <time>2021-08-18T12:07:14Z</time>
      </trkpt>
      <trkpt lat="46.52811" lon="6.09134">
        <ele>1250.6</ele>
        <time>2021-08-18T12:07:16Z</time>
      </trkpt>
      <trkpt lat="46.52806" lon="6.09127">
        <ele>1250.6</ele>
        <time>2021-08-18T12:07:17Z</time>
      </trkpt>
      <trkpt lat="46.52799" lon="6.09115">
        <ele>1250.5</ele>
        <time>2021-08-18T12:07:19Z</time>
      </trkpt>
      <trkpt lat="46.52797" lon="6.09107">
        <ele>1250.5</ele>
        <time>2021-08-18T12:07:20Z</time>
      </trkpt>
      <trkpt lat="46.52791" lon="6.09092">
        <ele>1250.4</ele>
        <time>2021-08-18T12:07:22Z</time>
      </trkpt>
      <trkpt lat="46.52781" lon="6.09083">
        <ele>1250.1</ele>
        <time>2021-08-18T12:07:24Z</time>
      </trkpt>
      <trkpt lat="46.52771" lon="6.09074">
        <ele>1249.8</ele>
        <time>2021-08-18T12:07:26Z</time>
      </trkpt>
      <trkpt lat="46.5276" lon="6.09071">
        <ele>1249.2</ele>
        <time>2021-08-18T12:07:28Z</time>
      </trkpt>
      <trkpt lat="46.52755" lon="6.0907">
        <ele>1248.8</ele>
        <time>2021-08-18T12:07:29Z</time>
      </trkpt>
      <trkpt lat="46.52744" lon="6.09065">
        <ele>1247.9</ele>
        <time>2021-08-18T12:07:31Z</time>
      </trkpt>
      <trkpt lat="46.52739" lon="6.09061">
        <ele>1247.4</ele>
        <time>2021-08-18T12:07:32Z</time>
      </trkpt>
      <trkpt lat="46.52728" lon="6.09051">
        <ele>1246.2</ele>
        <time>2021-08-18T12:07:34Z</time>
      </trkpt>
      <trkpt lat="46.52714" lon="6.09037">
        <ele>1244.7</ele>
        <time>2021-08-18T12:07:36Z</time>
      </trkpt>
      <trkpt lat="46.52699" lon="6.09027">
        <ele>1243.2</ele>
        <time>2021-08-18T12:07:38Z</time>
      </trkpt>
      <trkpt lat="46.52682" lon="6.09015">
        <ele>1241.6</ele>
        <time>2021-08-18T12:07:40Z</time>
      </trkpt>
      <trkpt lat="46.52674" lon="6.09007">
        <ele>1240.8</ele>
        <time>2021-08-18T12:07:41Z</time>
      </trkpt>
      <trkpt lat="46.52665" lon="6.09">
        <ele>1240</ele>
        <time>2021-08-18T12:07:42Z</time>
      </trkpt>
      <trkpt lat="46.5265" lon="6.08985">
        <ele>1238.5</ele>
        <time>2021-08-18T12:07:44Z</time>
      </trkpt>
      <trkpt lat="46.52643" lon="6.08976">
        <ele>1237.8</ele>
        <time>2021-08-18T12:07:45Z</time>
      </trkpt>
      <trkpt lat="46.52631" lon="6.08965">
        <ele>1236.9</ele>
        <time>2021-08-18T12:07:47Z</time>
      </trkpt>
      <trkpt lat="46.52625" lon="6.0896">
        <ele>1236.6</ele>
        <time>2021-08-18T12:07:48Z</time>
      </trkpt>
      <trkpt lat="46.52616" lon="6.08946">
        <ele>1236.5</ele>
        <time>2021-08-18T12:07:50Z</time>
      </trkpt>
      <trkpt lat="46.52608" lon="6.08934">
        <ele>1237.5</ele>
        <time>2021-08-18T12:07:52Z</time>
      </trkpt>
      <trkpt lat="46.52605" lon="6.0893">
        <ele>1237.9</ele>
        <time>2021-08-18T12:07:53Z</time>
      </trkpt>
      <trkpt lat="46.52603" lon="6.08927">
        <ele>1238</ele>
        <time>2021-08-18T12:07:54Z</time>
      </trkpt>
      <trkpt lat="46.52599" lon="6.08922">
        <ele>1238.3</ele>
        <time>2021-08-18T12:07:56Z</time>
      </trkpt>
      <trkpt lat="46.52599" lon="6.0891">
        <ele>1238.6</ele>
        <time>2021-08-18T12:07:58Z</time>
      </trkpt>
      <trkpt lat="46.526" lon="6.08898">
        <ele>1238.8</ele>
        <time>2021-08-18T12:08:00Z</time>
      </trkpt>
      <trkpt lat="46.52598" lon="6.08888">
        <ele>1238.9</ele>
        <time>2021-08-18T12:08:02Z</time>
      </trkpt>
      <trkpt lat="46.52596" lon="6.08875">
        <ele>1239</ele>
        <time>2021-08-18T12:08:04Z</time>
      </trkpt>
      <trkpt lat="46.52592" lon="6.08856">
        <ele>1239</ele>
        <time>2021-08-18T12:08:14Z</time>
      </trkpt>
      <trkpt lat="46.52593" lon="6.08854">
        <ele>1239</ele>
        <time>2021-08-18T12:08:15Z</time>
      </trkpt>
      <trkpt lat="46.52594" lon="6.08848">
        <ele>1239</ele>
        <time>2021-08-18T12:08:17Z</time>
      </trkpt>
      <trkpt lat="46.52595" lon="6.08845">
        <ele>1239</ele>
        <time>2021-08-18T12:08:18Z</time>
      </trkpt>
      <trkpt lat="46.52597" lon="6.08839">
        <ele>1238.9</ele>
        <time>2021-08-18T12:08:20Z</time>
      </trkpt>
      <trkpt lat="46.52597" lon="6.08837">
        <ele>1238.9</ele>
        <time>2021-08-18T12:08:21Z</time>
      </trkpt>
      <trkpt lat="46.52596" lon="6.08833">
        <ele>1238.9</ele>
        <time>2021-08-18T12:08:23Z</time>
      </trkpt>
      <trkpt lat="46.52596" lon="6.08831">
        <ele>1238.8</ele>
        <time>2021-08-18T12:08:24Z</time>
      </trkpt>
      <trkpt lat="46.52594" lon="6.0883">
        <ele>1238.8</ele>
        <time>2021-08-18T12:08:25Z</time>
      </trkpt>
      <trkpt lat="46.52593" lon="6.08828">
        <ele>1238.8</ele>
        <time>2021-08-18T12:08:26Z</time>
      </trkpt>
      <trkpt lat="46.52589" lon="6.08825">
        <ele>1238.7</ele>
        <time>2021-08-18T12:08:28Z</time>
      </trkpt>
      <trkpt lat="46.52585" lon="6.08823">
        <ele>1238.7</ele>
        <time>2021-08-18T12:08:30Z</time>
      </trkpt>
      <trkpt lat="46.52578" lon="6.08822">
        <ele>1238.6</ele>
        <time>2021-08-18T12:08:32Z</time>
      </trkpt>
      <trkpt lat="46.52573" lon="6.08822">
        <ele>1238.6</ele>
        <time>2021-08-18T12:08:34Z</time>
      </trkpt>
      <trkpt lat="46.52571" lon="6.08821">
        <ele>1238.5</ele>
        <time>2021-08-18T12:08:35Z</time>
      </trkpt>
      <trkpt lat="46.52567" lon="6.08818">
        <ele>1238.5</ele>
        <time>2021-08-18T12:08:37Z</time>
      </trkpt>
      <trkpt lat="46.52563" lon="6.08811">
        <ele>1238.4</ele>
        <time>2021-08-18T12:08:39Z</time>
      </trkpt>
      <trkpt lat="46.52561" lon="6.08806">
        <ele>1238.4</ele>
        <time>2021-08-18T12:08:40Z</time>
      </trkpt>
      <trkpt lat="46.52559" lon="6.08804">
        <ele>1238.4</ele>
        <time>2021-08-18T12:08:41Z</time>
      </trkpt>
      <trkpt lat="46.52556" lon="6.08799">
        <ele>1238.4</ele>
        <time>2021-08-18T12:08:42Z</time>
      </trkpt>
      <trkpt lat="46.52553" lon="6.08794">
        <ele>1238.4</ele>
        <time>2021-08-18T12:08:44Z</time>
      </trkpt>
      <trkpt lat="46.5255" lon="6.08787">
        <ele>1238.5</ele>
        <time>2021-08-18T12:08:45Z</time>
      </trkpt>
      <trkpt lat="46.52547" lon="6.08783">
        <ele>1238.6</ele>
        <time>2021-08-18T12:08:46Z</time>
      </trkpt>
      <trkpt lat="46.52545" lon="6.08779">
        <ele>1238.7</ele>
        <time>2021-08-18T12:08:47Z</time>
      </trkpt>
      <trkpt lat="46.52542" lon="6.08775">
        <ele>1238.8</ele>
        <time>2021-08-18T12:08:49Z</time>
      </trkpt>
      <trkpt lat="46.5254" lon="6.0877">
        <ele>1239</ele>
        <time>2021-08-18T12:08:50Z</time>
      </trkpt>
      <trkpt lat="46.52537" lon="6.08765">
        <ele>1239.3</ele>
        <time>2021-08-18T12:08:51Z</time>
      </trkpt>
      <trkpt lat="46.52533" lon="6.0876">
        <ele>1239.6</ele>
        <time>2021-08-18T12:08:53Z</time>
      </trkpt>
      <trkpt lat="46.5253" lon="6.08757">
        <ele>1239.8</ele>
        <time>2021-08-18T12:08:54Z</time>
      </trkpt>
      <trkpt lat="46.52528" lon="6.08756">
        <ele>1240</ele>
        <time>2021-08-18T12:08:55Z</time>
      </trkpt>
      <trkpt lat="46.52525" lon="6.08754">
        <ele>1240.3</ele>
        <time>2021-08-18T12:08:57Z</time>
      </trkpt>
      <trkpt lat="46.52524" lon="6.08753">
        <ele>1240.4</ele>
        <time>2021-08-18T12:08:58Z</time>
      </trkpt>
      <trkpt lat="46.52527" lon="6.08746">
        <ele>1240.8</ele>
        <time>2021-08-18T12:09:00Z</time>
      </trkpt>
      <trkpt lat="46.52528" lon="6.08742">
        <ele>1241.1</ele>
        <time>2021-08-18T12:09:01Z</time>
      </trkpt>
      <trkpt lat="46.5253" lon="6.08734">
        <ele>1241.5</ele>
        <time>2021-08-18T12:09:02Z</time>
      </trkpt>
      <trkpt lat="46.5253" lon="6.08731">
        <ele>1241.7</ele>
        <time>2021-08-18T12:09:03Z</time>
      </trkpt>
      <trkpt lat="46.5253" lon="6.08729">
        <ele>1241.8</ele>
        <time>2021-08-18T12:09:04Z</time>
      </trkpt>
      <trkpt lat="46.52529" lon="6.08726">
        <ele>1242.1</ele>
        <time>2021-08-18T12:09:06Z</time>
      </trkpt>
      <trkpt lat="46.52528" lon="6.08723">
        <ele>1242.2</ele>
        <time>2021-08-18T12:09:07Z</time>
      </trkpt>
      <trkpt lat="46.52516" lon="6.08711">
        <ele>1243.7</ele>
        <time>2021-08-18T12:09:14Z</time>
      </trkpt>
      <trkpt lat="46.52512" lon="6.08706">
        <ele>1244.2</ele>
        <time>2021-08-18T12:09:16Z</time>
      </trkpt>
      <trkpt lat="46.52509" lon="6.08703">
        <ele>1244.6</ele>
        <time>2021-08-18T12:09:17Z</time>
      </trkpt>
      <trkpt lat="46.52505" lon="6.087">
        <ele>1245</ele>
        <time>2021-08-18T12:09:18Z</time>
      </trkpt>
      <trkpt lat="46.525" lon="6.08696">
        <ele>1245.4</ele>
        <time>2021-08-18T12:09:19Z</time>
      </trkpt>
      <trkpt lat="46.52496" lon="6.08692">
        <ele>1245.8</ele>
        <time>2021-08-18T12:09:21Z</time>
      </trkpt>
      <trkpt lat="46.52493" lon="6.08689">
        <ele>1246</ele>
        <time>2021-08-18T12:09:22Z</time>
      </trkpt>
      <trkpt lat="46.52491" lon="6.08688">
        <ele>1246.1</ele>
        <time>2021-08-18T12:09:23Z</time>
      </trkpt>
      <trkpt lat="46.52488" lon="6.08686">
        <ele>1246.2</ele>
        <time>2021-08-18T12:09:25Z</time>
      </trkpt>
      <trkpt lat="46.52486" lon="6.08684">
        <ele>1246.3</ele>
        <time>2021-08-18T12:09:26Z</time>
      </trkpt>
      <trkpt lat="46.52486" lon="6.08683">
        <ele>1246.4</ele>
        <time>2021-08-18T12:09:27Z</time>
      </trkpt>
      <trkpt lat="46.52485" lon="6.08682">
        <ele>1246.4</ele>
        <time>2021-08-18T12:09:28Z</time>
      </trkpt>
      <trkpt lat="46.52485" lon="6.08681">
        <ele>1246.4</ele>
        <time>2021-08-18T12:09:29Z</time>
      </trkpt>
      <trkpt lat="46.52485" lon="6.08679">
        <ele>1246.5</ele>
        <time>2021-08-18T12:09:30Z</time>
      </trkpt>
      <trkpt lat="46.52485" lon="6.08675">
        <ele>1246.6</ele>
        <time>2021-08-18T12:09:31Z</time>
      </trkpt>
      <trkpt lat="46.52485" lon="6.08672">
        <ele>1246.6</ele>
        <time>2021-08-18T12:09:33Z</time>
      </trkpt>
      <trkpt lat="46.52231" lon="6.08402">
        <ele>1247.1</ele>
        <time>2021-08-18T12:11:03Z</time>
      </trkpt>
      <trkpt lat="46.52224" lon="6.084">
        <ele>1246.8</ele>
        <time>2021-08-18T12:11:04Z</time>
      </trkpt>
      <trkpt lat="46.5222" lon="6.08397">
        <ele>1246.6</ele>
        <time>2021-08-18T12:11:05Z</time>
      </trkpt>
      <trkpt lat="46.52214" lon="6.08392">
        <ele>1246.4</ele>
        <time>2021-08-18T12:11:06Z</time>
      </trkpt>
      <trkpt lat="46.5221" lon="6.08386">
        <ele>1246.2</ele>
        <time>2021-08-18T12:11:07Z</time>
      </trkpt>
      <trkpt lat="46.52206" lon="6.0838">
        <ele>1246</ele>
        <time>2021-08-18T12:11:09Z</time>
      </trkpt>
      <trkpt lat="46.52202" lon="6.08374">
        <ele>1245.7</ele>
        <time>2021-08-18T12:11:10Z</time>
      </trkpt>
      <trkpt lat="46.522" lon="6.08371">
        <ele>1245.6</ele>
        <time>2021-08-18T12:11:12Z</time>
      </trkpt>
      <trkpt lat="46.52199" lon="6.08369">
        <ele>1245.5</ele>
        <time>2021-08-18T12:11:13Z</time>
      </trkpt>
      <trkpt lat="46.52198" lon="6.08368">
        <ele>1245.4</ele>
        <time>2021-08-18T12:11:14Z</time>
      </trkpt>
      <trkpt lat="46.52196" lon="6.08367">
        <ele>1245.3</ele>
        <time>2021-08-18T12:11:16Z</time>
      </trkpt>
      <trkpt lat="46.52194" lon="6.08365">
        <ele>1245.1</ele>
        <time>2021-08-18T12:11:17Z</time>
      </trkpt>
      <trkpt lat="46.52191" lon="6.08363">
        <ele>1244.9</ele>
        <time>2021-08-18T12:11:19Z</time>
      </trkpt>
      <trkpt lat="46.52188" lon="6.08362">
        <ele>1244.7</ele>
        <time>2021-08-18T12:11:20Z</time>
      </trkpt>
      <trkpt lat="46.52185" lon="6.08361">
        <ele>1244.6</ele>
        <time>2021-08-18T12:11:21Z</time>
      </trkpt>
      <trkpt lat="46.51975" lon="6.08032">
        <ele>1236</ele>
        <time>2021-08-18T12:12:16Z</time>
      </trkpt>
      <trkpt lat="46.51974" lon="6.08029">
        <ele>1236</ele>
        <time>2021-08-18T12:12:18Z</time>
      </trkpt>
      <trkpt lat="46.51973" lon="6.08028">
        <ele>1236</ele>
        <time>2021-08-18T12:12:19Z</time>
      </trkpt>
      <trkpt lat="46.51973" lon="6.08027">
        <ele>1236</ele>
        <time>2021-08-18T12:12:20Z</time>
      </trkpt>
      <trkpt lat="46.51972" lon="6.08026">
        <ele>1235.9</ele>
        <time>2021-08-18T12:12:21Z</time>
      </trkpt>
      <trkpt lat="46.51967" lon="6.08016">
        <ele>1235.8</ele>
        <time>2021-08-18T12:12:23Z</time>
      </trkpt>
      <trkpt lat="46.5196" lon="6.08002">
        <ele>1235.6</ele>
        <time>2021-08-18T12:12:25Z</time>
      </trkpt>
      <trkpt lat="46.51956" lon="6.07992">
        <ele>1235.5</ele>
        <time>2021-08-18T12:12:26Z</time>
      </trkpt>
      <trkpt lat="46.51952" lon="6.07982">
        <ele>1235.3</ele>
        <time>2021-08-18T12:12:27Z</time>
      </trkpt>
      <trkpt lat="46.51948" lon="6.07977">
        <ele>1235.3</ele>
        <time>2021-08-18T12:12:28Z</time>
      </trkpt>
      <trkpt lat="46.51943" lon="6.0797">
        <ele>1235.2</ele>
        <time>2021-08-18T12:12:30Z</time>
      </trkpt>
      <trkpt lat="46.51938" lon="6.07967">
        <ele>1235.2</ele>
        <time>2021-08-18T12:12:31Z</time>
      </trkpt>
      <trkpt lat="46.5193" lon="6.07964">
        <ele>1235.2</ele>
        <time>2021-08-18T12:12:33Z</time>
      </trkpt>
      <trkpt lat="46.51923" lon="6.07962">
        <ele>1235.3</ele>
        <time>2021-08-18T12:12:34Z</time>
      </trkpt>
      <trkpt lat="46.51919" lon="6.0796">
        <ele>1235.4</ele>
        <time>2021-08-18T12:12:35Z</time>
      </trkpt>
      <trkpt lat="46.51915" lon="6.07958">
        <ele>1235.4</ele>
        <time>2021-08-18T12:12:36Z</time>
      </trkpt>
      <trkpt lat="46.51912" lon="6.07955">
        <ele>1235.5</ele>
        <time>2021-08-18T12:12:37Z</time>
      </trkpt>
      <trkpt lat="46.51909" lon="6.07952">
        <ele>1235.6</ele>
        <time>2021-08-18T12:12:38Z</time>
      </trkpt>
      <trkpt lat="46.51905" lon="6.0795">
        <ele>1235.7</ele>
        <time>2021-08-18T12:12:40Z</time>
      </trkpt>
      <trkpt lat="46.51902" lon="6.07948">
        <ele>1235.8</ele>
        <time>2021-08-18T12:12:41Z</time>
      </trkpt>
      <trkpt lat="46.51901" lon="6.07947">
        <ele>1235.9</ele>
        <time>2021-08-18T12:12:42Z</time>
      </trkpt>
      <trkpt lat="46.519" lon="6.07945">
        <ele>1235.9</ele>
        <time>2021-08-18T12:12:43Z</time>
      </trkpt>
      <trkpt lat="46.51899" lon="6.07941">
        <ele>1236.1</ele>
        <time>2021-08-18T12:12:45Z</time>
      </trkpt>
      <trkpt lat="46.51899" lon="6.07938">
        <ele>1236.2</ele>
        <time>2021-08-18T12:12:46Z</time>
      </trkpt>
      <trkpt lat="46.51902" lon="6.07928">
        <ele>1236.6</ele>
        <time>2021-08-18T12:12:48Z</time>
      </trkpt>
      <trkpt lat="46.51903" lon="6.07921">
        <ele>1236.9</ele>
        <time>2021-08-18T12:12:50Z</time>
      </trkpt>
      <trkpt lat="46.51902" lon="6.07916">
        <ele>1237.2</ele>
        <time>2021-08-18T12:12:51Z</time>
      </trkpt>
      <trkpt lat="46.51902" lon="6.07914">
        <ele>1237.3</ele>
        <time>2021-08-18T12:12:52Z</time>
      </trkpt>
      <trkpt lat="46.51902" lon="6.07908">
        <ele>1237.7</ele>
        <time>2021-08-18T12:12:53Z</time>
      </trkpt>
      <trkpt lat="46.51902" lon="6.07906">
        <ele>1237.8</ele>
        <time>2021-08-18T12:12:54Z</time>
      </trkpt>
      <trkpt lat="46.51903" lon="6.07901">
        <ele>1238.1</ele>
        <time>2021-08-18T12:12:56Z</time>
      </trkpt>
      <trkpt lat="46.51903" lon="6.07894">
        <ele>1238.5</ele>
        <time>2021-08-18T12:12:57Z</time>
      </trkpt>
      <trkpt lat="46.51902" lon="6.0789">
        <ele>1238.8</ele>
        <time>2021-08-18T12:12:58Z</time>
      </trkpt>
      <trkpt lat="46.51902" lon="6.07885">
        <ele>1239</ele>
        <time>2021-08-18T12:13:00Z</time>
      </trkpt>
      <trkpt lat="46.51902" lon="6.07884">
        <ele>1239.1</ele>
        <time>2021-08-18T12:13:01Z</time>
      </trkpt>
      <trkpt lat="46.519" lon="6.0788">
        <ele>1239.4</ele>
        <time>2021-08-18T12:13:02Z</time>
      </trkpt>
      <trkpt lat="46.51899" lon="6.07879">
        <ele>1239.5</ele>
        <time>2021-08-18T12:13:03Z</time>
      </trkpt>
      <trkpt lat="46.51896" lon="6.0788">
        <ele>1239.7</ele>
        <time>2021-08-18T12:13:05Z</time>
      </trkpt>
      <trkpt lat="46.51895" lon="6.07881">
        <ele>1239.9</ele>
        <time>2021-08-18T12:13:06Z</time>
      </trkpt>
      <trkpt lat="46.51894" lon="6.07881">
        <ele>1239.9</ele>
        <time>2021-08-18T12:13:07Z</time>
      </trkpt>
      <trkpt lat="46.51893" lon="6.0788">
        <ele>1240</ele>
        <time>2021-08-18T12:13:08Z</time>
      </trkpt>
      <trkpt lat="46.51893" lon="6.07879">
        <ele>1240</ele>
        <time>2021-08-18T12:13:09Z</time>
      </trkpt>
      <trkpt lat="46.51893" lon="6.07877">
        <ele>1240.1</ele>
        <time>2021-08-18T12:13:11Z</time>
      </trkpt>
      <trkpt lat="46.51893" lon="6.07875">
        <ele>1240.2</ele>
        <time>2021-08-18T12:13:12Z</time>
      </trkpt>
      <trkpt lat="46.51894" lon="6.07874">
        <ele>1240.3</ele>
        <time>2021-08-18T12:13:13Z</time>
      </trkpt>
      <trkpt lat="46.51896" lon="6.07854">
        <ele>1241.3</ele>
        <time>2021-08-18T12:13:19Z</time>
      </trkpt>
      <trkpt lat="46.51896" lon="6.07848">
        <ele>1241.5</ele>
        <time>2021-08-18T12:13:20Z</time>
      </trkpt>
      <trkpt lat="46.51896" lon="6.07843">
        <ele>1241.7</ele>
        <time>2021-08-18T12:13:22Z</time>
      </trkpt>
      <trkpt lat="46.51896" lon="6.07839">
        <ele>1241.9</ele>
        <time>2021-08-18T12:13:23Z</time>
      </trkpt>
      <trkpt lat="46.51896" lon="6.07836">
        <ele>1242</ele>
        <time>2021-08-18T12:13:24Z</time>
      </trkpt>
      <trkpt lat="46.51895" lon="6.07832">
        <ele>1242.1</ele>
        <time>2021-08-18T12:13:26Z</time>
      </trkpt>
      <trkpt lat="46.51893" lon="6.0783">
        <ele>1242.2</ele>
        <time>2021-08-18T12:13:27Z</time>
      </trkpt>
      <trkpt lat="46.51892" lon="6.07829">
        <ele>1242.3</ele>
        <time>2021-08-18T12:13:28Z</time>
      </trkpt>
      <trkpt lat="46.51891" lon="6.07829">
        <ele>1242.3</ele>
        <time>2021-08-18T12:13:29Z</time>
      </trkpt>
      <trkpt lat="46.5189" lon="6.07828">
        <ele>1242.4</ele>
        <time>2021-08-18T12:13:30Z</time>
      </trkpt>
      <trkpt lat="46.51888" lon="6.07827">
        <ele>1242.5</ele>
        <time>2021-08-18T12:13:32Z</time>
      </trkpt>
      <trkpt lat="46.51887" lon="6.07826">
        <ele>1242.6</ele>
        <time>2021-08-18T12:13:33Z</time>
      </trkpt>
      <trkpt lat="46.51886" lon="6.07825">
        <ele>1242.6</ele>
        <time>2021-08-18T12:13:34Z</time>
      </trkpt>
      <trkpt lat="46.51885" lon="6.07825">
        <ele>1242.7</ele>
        <time>2021-08-18T12:13:35Z</time>
      </trkpt>
      <trkpt lat="46.51884" lon="6.07824">
        <ele>1242.7</ele>
        <time>2021-08-18T12:13:36Z</time>
      </trkpt>
      <trkpt lat="46.51849" lon="6.07819">
        <ele>1244.8</ele>
        <time>2021-08-18T12:13:49Z</time>
      </trkpt>
      <trkpt lat="46.51843" lon="6.07819">
        <ele>1245</ele>
        <time>2021-08-18T12:13:51Z</time>
      </trkpt>
      <trkpt lat="46.51839" lon="6.07819">
        <ele>1245.2</ele>
        <time>2021-08-18T12:13:52Z</time>
      </trkpt>
      <trkpt lat="46.51836" lon="6.07823">
        <ele>1245.3</ele>
        <time>2021-08-18T12:13:54Z</time>
      </trkpt>
      <trkpt lat="46.51832" lon="6.07825">
        <ele>1245.5</ele>
        <time>2021-08-18T12:13:56Z</time>
      </trkpt>
      <trkpt lat="46.51829" lon="6.07826">
        <ele>1245.7</ele>
        <time>2021-08-18T12:13:57Z</time>
      </trkpt>
      <trkpt lat="46.51826" lon="6.07829">
        <ele>1245.8</ele>
        <time>2021-08-18T12:13:58Z</time>
      </trkpt>
      <trkpt lat="46.51825" lon="6.0783">
        <ele>1245.9</ele>
        <time>2021-08-18T12:13:59Z</time>
      </trkpt>
      <trkpt lat="46.51823" lon="6.07832">
        <ele>1246</ele>
        <time>2021-08-18T12:14:00Z</time>
      </trkpt>
      <trkpt lat="46.51822" lon="6.07833">
        <ele>1246.1</ele>
        <time>2021-08-18T12:14:01Z</time>
      </trkpt>
      <trkpt lat="46.51819" lon="6.07835">
        <ele>1246.3</ele>
        <time>2021-08-18T12:14:02Z</time>
      </trkpt>
      <trkpt lat="46.51818" lon="6.07836">
        <ele>1246.3</ele>
        <time>2021-08-18T12:14:03Z</time>
      </trkpt>
      <trkpt lat="46.51816" lon="6.07842">
        <ele>1246.6</ele>
        <time>2021-08-18T12:14:05Z</time>
      </trkpt>
      <trkpt lat="46.51816" lon="6.07845">
        <ele>1246.7</ele>
        <time>2021-08-18T12:14:06Z</time>
      </trkpt>
      <trkpt lat="46.51815" lon="6.07847">
        <ele>1246.8</ele>
        <time>2021-08-18T12:14:07Z</time>
      </trkpt>
      <trkpt lat="46.51814" lon="6.0785">
        <ele>1246.9</ele>
        <time>2021-08-18T12:14:09Z</time>
      </trkpt>
      <trkpt lat="46.51815" lon="6.07851">
        <ele>1247</ele>
        <time>2021-08-18T12:14:10Z</time>
      </trkpt>
      <trkpt lat="46.51815" lon="6.07851">
        <ele>1247</ele>
        <time>2021-08-18T12:14:11Z</time>
      </trkpt>
      <trkpt lat="46.51815" lon="6.07851">
        <ele>1247</ele>
        <time>2021-08-18T12:14:12Z</time>
      </trkpt>
      <trkpt lat="46.51814" lon="6.07852">
        <ele>1247.1</ele>
        <time>2021-08-18T12:14:14Z</time>
      </trkpt>
      <trkpt lat="46.51811" lon="6.07857">
        <ele>1247.6</ele>
        <time>2021-08-18T12:14:16Z</time>
      </trkpt>
      <trkpt lat="46.51809" lon="6.07859">
        <ele>1247.7</ele>
        <time>2021-08-18T12:14:17Z</time>
      </trkpt>
      <trkpt lat="46.51808" lon="6.07861">
        <ele>1247.8</ele>
        <time>2021-08-18T12:14:18Z</time>
      </trkpt>
      <trkpt lat="46.51808" lon="6.07862">
        <ele>1247.8</ele>
        <time>2021-08-18T12:14:19Z</time>
      </trkpt>
      <trkpt lat="46.51807" lon="6.07863">
        <ele>1247.9</ele>
        <time>2021-08-18T12:14:20Z</time>
      </trkpt>
      <trkpt lat="46.51806" lon="6.07864">
        <ele>1248</ele>
        <time>2021-08-18T12:14:21Z</time>
      </trkpt>
      <trkpt lat="46.51803" lon="6.07866">
        <ele>1248.1</ele>
        <time>2021-08-18T12:14:23Z</time>
      </trkpt>
      <trkpt lat="46.51802" lon="6.07867">
        <ele>1248.2</ele>
        <time>2021-08-18T12:14:24Z</time>
      </trkpt>
      <trkpt lat="46.51798" lon="6.07866">
        <ele>1248.3</ele>
        <time>2021-08-18T12:14:25Z</time>
      </trkpt>
      <trkpt lat="46.51795" lon="6.07866">
        <ele>1248.5</ele>
        <time>2021-08-18T12:14:26Z</time>
      </trkpt>
      <trkpt lat="46.51794" lon="6.07866">
        <ele>1248.5</ele>
        <time>2021-08-18T12:14:27Z</time>
      </trkpt>
      <trkpt lat="46.51792" lon="6.07867">
        <ele>1248.6</ele>
        <time>2021-08-18T12:14:28Z</time>
      </trkpt>
      <trkpt lat="46.5179" lon="6.07869">
        <ele>1248.7</ele>
        <time>2021-08-18T12:14:30Z</time>
      </trkpt>
      <trkpt lat="46.51787" lon="6.07871">
        <ele>1248.8</ele>
        <time>2021-08-18T12:14:31Z</time>
      </trkpt>
      <trkpt lat="46.51783" lon="6.07874">
        <ele>1249</ele>
        <time>2021-08-18T12:14:33Z</time>
      </trkpt>
      <trkpt lat="46.51782" lon="6.07875">
        <ele>1249.1</ele>
        <time>2021-08-18T12:14:34Z</time>
      </trkpt>
      <trkpt lat="46.51781" lon="6.07875">
        <ele>1249.1</ele>
        <time>2021-08-18T12:14:35Z</time>
      </trkpt>
      <trkpt lat="46.5178" lon="6.07876">
        <ele>1249.2</ele>
        <time>2021-08-18T12:14:36Z</time>
      </trkpt>
      <trkpt lat="46.51781" lon="6.07879">
        <ele>1249.2</ele>
        <time>2021-08-18T12:14:37Z</time>
      </trkpt>
      <trkpt lat="46.51781" lon="6.0788">
        <ele>1249.3</ele>
        <time>2021-08-18T12:14:39Z</time>
      </trkpt>
      <trkpt lat="46.51781" lon="6.0788">
        <ele>1249.3</ele>
        <time>2021-08-18T12:14:41Z</time>
      </trkpt>
      <trkpt lat="46.51781" lon="6.0788">
        <ele>1249.3</ele>
        <time>2021-08-18T12:14:42Z</time>
      </trkpt>
      <trkpt lat="46.5178" lon="6.0788">
        <ele>1249.3</ele>
        <time>2021-08-18T12:14:43Z</time>
      </trkpt>
      <trkpt lat="46.51779" lon="6.0788">
        <ele>1249.3</ele>
        <time>2021-08-18T12:14:44Z</time>
      </trkpt>
      <trkpt lat="46.51777" lon="6.07881">
        <ele>1249.4</ele>
        <time>2021-08-18T12:14:46Z</time>
      </trkpt>
      <trkpt lat="46.51767" lon="6.07882">
        <ele>1249.8</ele>
        <time>2021-08-18T12:14:51Z</time>
      </trkpt>
      <trkpt lat="46.51764" lon="6.07882">
        <ele>1249.9</ele>
        <time>2021-08-18T12:14:52Z</time>
      </trkpt>
      <trkpt lat="46.5176" lon="6.07887">
        <ele>1250.1</ele>
        <time>2021-08-18T12:14:54Z</time>
      </trkpt>
      <trkpt lat="46.51757" lon="6.07889">
        <ele>1250.3</ele>
        <time>2021-08-18T12:14:55Z</time>
      </trkpt>
      <trkpt lat="46.51755" lon="6.07888">
        <ele>1250.4</ele>
        <time>2021-08-18T12:14:57Z</time>
      </trkpt>
      <trkpt lat="46.51754" lon="6.07888">
        <ele>1250.4</ele>
        <time>2021-08-18T12:14:58Z</time>
      </trkpt>
      <trkpt lat="46.51744" lon="6.07881">
        <ele>1251</ele>
        <time>2021-08-18T12:14:59Z</time>
      </trkpt>
      <trkpt lat="46.51736" lon="6.07873">
        <ele>1251.7</ele>
        <time>2021-08-18T12:15:01Z</time>
      </trkpt>
      <trkpt lat="46.51727" lon="6.07865">
        <ele>1252.5</ele>
        <time>2021-08-18T12:15:02Z</time>
      </trkpt>
      <trkpt lat="46.51719" lon="6.07857">
        <ele>1253.4</ele>
        <time>2021-08-18T12:15:04Z</time>
      </trkpt>
      <trkpt lat="46.5171" lon="6.07849">
        <ele>1254.4</ele>
        <time>2021-08-18T12:16:10Z</time>
      </trkpt>
      <trkpt lat="46.51702" lon="6.07841">
        <ele>1255.4</ele>
        <time>2021-08-18T12:16:11Z</time>
      </trkpt>
      <trkpt lat="46.51696" lon="6.07836">
        <ele>1256.2</ele>
        <time>2021-08-18T12:16:12Z</time>
      </trkpt>
      <trkpt lat="46.51689" lon="6.07829">
        <ele>1257.1</ele>
        <time>2021-08-18T12:16:14Z</time>
      </trkpt>
      <trkpt lat="46.51686" lon="6.07825">
        <ele>1257.6</ele>
        <time>2021-08-18T12:16:15Z</time>
      </trkpt>
      <trkpt lat="46.51685" lon="6.07821">
        <ele>1257.9</ele>
        <time>2021-08-18T12:16:16Z</time>
      </trkpt>
      <trkpt lat="46.51685" lon="6.0782">
        <ele>1258</ele>
        <time>2021-08-18T12:16:17Z</time>
      </trkpt>
      <trkpt lat="46.51685" lon="6.07817">
        <ele>1258.2</ele>
        <time>2021-08-18T12:16:18Z</time>
      </trkpt>
      <trkpt lat="46.51685" lon="6.07816">
        <ele>1258.3</ele>
        <time>2021-08-18T12:16:20Z</time>
      </trkpt>
      <trkpt lat="46.51684" lon="6.0782">
        <ele>1258.6</ele>
        <time>2021-08-18T12:16:21Z</time>
      </trkpt>
      <trkpt lat="46.51682" lon="6.07827">
        <ele>1259.1</ele>
        <time>2021-08-18T12:16:23Z</time>
      </trkpt>
      <trkpt lat="46.51681" lon="6.07831">
        <ele>1259.4</ele>
        <time>2021-08-18T12:16:24Z</time>
      </trkpt>
      <trkpt lat="46.51677" lon="6.07835">
        <ele>1259.9</ele>
        <time>2021-08-18T12:16:26Z</time>
      </trkpt>
      <trkpt lat="46.51674" lon="6.07835">
        <ele>1260.3</ele>
        <time>2021-08-18T12:16:27Z</time>
      </trkpt>
      <trkpt lat="46.51673" lon="6.07834">
        <ele>1260.4</ele>
        <time>2021-08-18T12:16:28Z</time>
      </trkpt>
      <trkpt lat="46.51669" lon="6.07832">
        <ele>1260.9</ele>
        <time>2021-08-18T12:16:29Z</time>
      </trkpt>
      <trkpt lat="46.51667" lon="6.0783">
        <ele>1261.2</ele>
        <time>2021-08-18T12:16:31Z</time>
      </trkpt>
      <trkpt lat="46.51666" lon="6.07828">
        <ele>1261.3</ele>
        <time>2021-08-18T12:16:32Z</time>
      </trkpt>
      <trkpt lat="46.51664" lon="6.07826">
        <ele>1261.7</ele>
        <time>2021-08-18T12:16:33Z</time>
      </trkpt>
      <trkpt lat="46.51662" lon="6.07825">
        <ele>1261.9</ele>
        <time>2021-08-18T12:16:34Z</time>
      </trkpt>
      <trkpt lat="46.51662" lon="6.07824">
        <ele>1262</ele>
        <time>2021-08-18T12:16:35Z</time>
      </trkpt>
      <trkpt lat="46.51662" lon="6.07823">
        <ele>1262</ele>
        <time>2021-08-18T12:16:36Z</time>
      </trkpt>
      <trkpt lat="46.51662" lon="6.07823">
        <ele>1262.1</ele>
        <time>2021-08-18T12:16:38Z</time>
      </trkpt>
      <trkpt lat="46.51662" lon="6.07823">
        <ele>1262.1</ele>
        <time>2021-08-18T12:16:39Z</time>
      </trkpt>
      <trkpt lat="46.51654" lon="6.07819">
        <ele>1263.1</ele>
        <time>2021-08-18T12:16:56Z</time>
      </trkpt>
      <trkpt lat="46.51652" lon="6.07819">
        <ele>1263.4</ele>
        <time>2021-08-18T12:16:57Z</time>
      </trkpt>
      <trkpt lat="46.51651" lon="6.07818">
        <ele>1263.5</ele>
        <time>2021-08-18T12:16:58Z</time>
      </trkpt>
      <trkpt lat="46.51649" lon="6.07816">
        <ele>1263.9</ele>
        <time>2021-08-18T12:17:00Z</time>
      </trkpt>
      <trkpt lat="46.51647" lon="6.07815">
        <ele>1264</ele>
        <time>2021-08-18T12:17:01Z</time>
      </trkpt>
      <trkpt lat="46.51646" lon="6.07814">
        <ele>1264.2</ele>
        <time>2021-08-18T12:17:02Z</time>
      </trkpt>
      <trkpt lat="46.51645" lon="6.07814">
        <ele>1264.4</ele>
        <time>2021-08-18T12:17:03Z</time>
      </trkpt>
      <trkpt lat="46.51645" lon="6.07813">
        <ele>1264.5</ele>
        <time>2021-08-18T12:17:05Z</time>
      </trkpt>
      <trkpt lat="46.51645" lon="6.07812">
        <ele>1264.5</ele>
        <time>2021-08-18T12:17:06Z</time>
      </trkpt>
      <trkpt lat="46.51647" lon="6.07812">
        <ele>1264.8</ele>
        <time>2021-08-18T12:17:07Z</time>
      </trkpt>
      <trkpt lat="46.51649" lon="6.07811">
        <ele>1265.1</ele>
        <time>2021-08-18T12:17:08Z</time>
      </trkpt>
      <trkpt lat="46.5165" lon="6.07811">
        <ele>1265.2</ele>
        <time>2021-08-18T12:17:10Z</time>
      </trkpt>
      <trkpt lat="46.5165" lon="6.0781">
        <ele>1265.3</ele>
        <time>2021-08-18T12:17:11Z</time>
      </trkpt>
      <trkpt lat="46.5165" lon="6.0781">
        <ele>1265.3</ele>
        <time>2021-08-18T12:17:12Z</time>
      </trkpt>
      <trkpt lat="46.5165" lon="6.0781">
        <ele>1265.3</ele>
        <time>2021-08-18T12:17:14Z</time>
      </trkpt>
      <trkpt lat="46.51649" lon="6.07811">
        <ele>1265.5</ele>
        <time>2021-08-18T12:17:15Z</time>
      </trkpt>
      <trkpt lat="46.51606" lon="6.07831">
        <ele>1269.7</ele>
        <time>2021-08-18T12:18:06Z</time>
      </trkpt>
      <trkpt lat="46.51606" lon="6.07835">
        <ele>1269.9</ele>
        <time>2021-08-18T12:18:07Z</time>
      </trkpt>
      <trkpt lat="46.51606" lon="6.07835">
        <ele>1269.9</ele>
        <time>2021-08-18T12:18:08Z</time>
      </trkpt>
      <trkpt lat="46.51605" lon="6.07835">
        <ele>1269.9</ele>
        <time>2021-08-18T12:18:10Z</time>
      </trkpt>
      <trkpt lat="46.51605" lon="6.07836">
        <ele>1269.9</ele>
        <time>2021-08-18T12:18:12Z</time>
      </trkpt>
      <trkpt lat="46.51605" lon="6.07837">
        <ele>1270</ele>
        <time>2021-08-18T12:18:13Z</time>
      </trkpt>
      <trkpt lat="46.51605" lon="6.07837">
        <ele>1270</ele>
        <time>2021-08-18T12:18:14Z</time>
      </trkpt>
      <trkpt lat="46.51605" lon="6.07838">
        <ele>1270</ele>
        <time>2021-08-18T12:18:15Z</time>
      </trkpt>
      <trkpt lat="46.51607" lon="6.07841">
        <ele>1270.1</ele>
        <time>2021-08-18T12:18:17Z</time>
      </trkpt>
      <trkpt lat="46.51608" lon="6.07843">
        <ele>1270.2</ele>
        <time>2021-08-18T12:18:18Z</time>
      </trkpt>
      <trkpt lat="46.5161" lon="6.07845">
        <ele>1270.3</ele>
        <time>2021-08-18T12:18:20Z</time>
      </trkpt>
      <trkpt lat="46.51611" lon="6.07846">
        <ele>1270.4</ele>
        <time>2021-08-18T12:18:21Z</time>
      </trkpt>
      <trkpt lat="46.51612" lon="6.07846">
        <ele>1270.4</ele>
        <time>2021-08-18T12:18:23Z</time>
      </trkpt>
      <trkpt lat="46.51612" lon="6.07847">
        <ele>1270.5</ele>
        <time>2021-08-18T12:18:24Z</time>
      </trkpt>
      <trkpt lat="46.51613" lon="6.07848">
        <ele>1270.5</ele>
        <time>2021-08-18T12:18:26Z</time>
      </trkpt>
      <trkpt lat="46.51613" lon="6.07848">
        <ele>1270.5</ele>
        <time>2021-08-18T12:18:27Z</time>
      </trkpt>
      <trkpt lat="46.51613" lon="6.07848">
        <ele>1270.5</ele>
        <time>2021-08-18T12:18:29Z</time>
      </trkpt>
      <trkpt lat="46.51614" lon="6.07849">
        <ele>1270.6</ele>
        <time>2021-08-18T12:18:30Z</time>
      </trkpt>
      <trkpt lat="46.51614" lon="6.07849">
        <ele>1270.6</ele>
        <time>2021-08-18T12:18:31Z</time>
      </trkpt>
      <trkpt lat="46.51614" lon="6.07849">
        <ele>1270.6</ele>
        <time>2021-08-18T12:18:32Z</time>
      </trkpt>
      <trkpt lat="46.51614" lon="6.0785">
        <ele>1270.6</ele>
        <time>2021-08-18T12:18:33Z</time>
      </trkpt>
      <trkpt lat="46.51614" lon="6.07854">
        <ele>1270.7</ele>
        <time>2021-08-18T12:18:35Z</time>
      </trkpt>
      <trkpt lat="46.51615" lon="6.07856">
        <ele>1270.8</ele>
        <time>2021-08-18T12:18:36Z</time>
      </trkpt>
      <trkpt lat="46.51614" lon="6.0786">
        <ele>1271</ele>
        <time>2021-08-18T12:18:37Z</time>
      </trkpt>
      <trkpt lat="46.51614" lon="6.07863">
        <ele>1271.1</ele>
        <time>2021-08-18T12:18:38Z</time>
      </trkpt>
      <trkpt lat="46.51613" lon="6.07866">
        <ele>1271.2</ele>
        <time>2021-08-18T12:18:39Z</time>
      </trkpt>
      <trkpt lat="46.51611" lon="6.0788">
        <ele>1271.8</ele>
        <time>2021-08-18T12:18:40Z</time>
      </trkpt>
      <trkpt lat="46.5161" lon="6.07884">
        <ele>1271.9</ele>
        <time>2021-08-18T12:18:41Z</time>
      </trkpt>
      <trkpt lat="46.5161" lon="6.07888">
        <ele>1272.1</ele>
        <time>2021-08-18T12:18:42Z</time>
      </trkpt>
      <trkpt lat="46.5161" lon="6.0789">
        <ele>1272.1</ele>
        <time>2021-08-18T12:18:43Z</time>
      </trkpt>
      <trkpt lat="46.51608" lon="6.07893">
        <ele>1272.2</ele>
        <time>2021-08-18T12:18:44Z</time>
      </trkpt>
      <trkpt lat="46.51607" lon="6.07896">
        <ele>1272.3</ele>
        <time>2021-08-18T12:18:46Z</time>
      </trkpt>
      <trkpt lat="46.51605" lon="6.07901">
        <ele>1272.4</ele>
        <time>2021-08-18T12:18:48Z</time>
      </trkpt>
      <trkpt lat="46.51604" lon="6.07903">
        <ele>1272.5</ele>
        <time>2021-08-18T12:18:49Z</time>
      </trkpt>
      <trkpt lat="46.51603" lon="6.07906">
        <ele>1272.5</ele>
        <time>2021-08-18T12:18:51Z</time>
      </trkpt>
      <trkpt lat="46.51602" lon="6.07909">
        <ele>1272.6</ele>
        <time>2021-08-18T12:18:52Z</time>
      </trkpt>
      <trkpt lat="46.51601" lon="6.0791">
        <ele>1272.6</ele>
        <time>2021-08-18T12:18:53Z</time>
      </trkpt>
      <trkpt lat="46.51599" lon="6.07913">
        <ele>1272.7</ele>
        <time>2021-08-18T12:18:55Z</time>
      </trkpt>
      <trkpt lat="46.51598" lon="6.07913">
        <ele>1272.7</ele>
        <time>2021-08-18T12:18:56Z</time>
      </trkpt>
      <trkpt lat="46.51597" lon="6.07914">
        <ele>1272.8</ele>
        <time>2021-08-18T12:18:57Z</time>
      </trkpt>
      <trkpt lat="46.51595" lon="6.07916">
        <ele>1272.8</ele>
        <time>2021-08-18T12:18:58Z</time>
      </trkpt>
      <trkpt lat="46.51594" lon="6.07919">
        <ele>1272.9</ele>
        <time>2021-08-18T12:18:59Z</time>
      </trkpt>
      <trkpt lat="46.51593" lon="6.07921">
        <ele>1272.9</ele>
        <time>2021-08-18T12:19:00Z</time>
      </trkpt>
      <trkpt lat="46.51594" lon="6.07924">
        <ele>1273</ele>
        <time>2021-08-18T12:19:02Z</time>
      </trkpt>
      <trkpt lat="46.51593" lon="6.07926">
        <ele>1273</ele>
        <time>2021-08-18T12:19:03Z</time>
      </trkpt>
      <trkpt lat="46.51593" lon="6.07927">
        <ele>1273</ele>
        <time>2021-08-18T12:19:05Z</time>
      </trkpt>
      <trkpt lat="46.51593" lon="6.07927">
        <ele>1273</ele>
        <time>2021-08-18T12:19:06Z</time>
      </trkpt>
      <trkpt lat="46.51592" lon="6.07928">
        <ele>1273.1</ele>
        <time>2021-08-18T12:19:07Z</time>
      </trkpt>
      <trkpt lat="46.51591" lon="6.07928">
        <ele>1273.1</ele>
        <time>2021-08-18T12:19:08Z</time>
      </trkpt>
      <trkpt lat="46.51582" lon="6.07936">
        <ele>1273.4</ele>
        <time>2021-08-18T12:19:09Z</time>
      </trkpt>
      <trkpt lat="46.51574" lon="6.07943">
        <ele>1273.6</ele>
        <time>2021-08-18T12:19:11Z</time>
      </trkpt>
      <trkpt lat="46.51566" lon="6.07951">
        <ele>1273.8</ele>
        <time>2021-08-18T12:19:12Z</time>
      </trkpt>
      <trkpt lat="46.51559" lon="6.07958">
        <ele>1273.9</ele>
        <time>2021-08-18T12:19:35Z</time>
      </trkpt>
      <trkpt lat="46.51551" lon="6.07965">
        <ele>1273.8</ele>
        <time>2021-08-18T12:19:36Z</time>
      </trkpt>
      <trkpt lat="46.51547" lon="6.07967">
        <ele>1273.7</ele>
        <time>2021-08-18T12:19:37Z</time>
      </trkpt>
      <trkpt lat="46.51542" lon="6.07969">
        <ele>1273.4</ele>
        <time>2021-08-18T12:19:39Z</time>
      </trkpt>
      <trkpt lat="46.5154" lon="6.0797">
        <ele>1273.4</ele>
        <time>2021-08-18T12:19:40Z</time>
      </trkpt>
      <trkpt lat="46.51533" lon="6.07971">
        <ele>1273</ele>
        <time>2021-08-18T12:19:42Z</time>
      </trkpt>
      <trkpt lat="46.51532" lon="6.07971">
        <ele>1273</ele>
        <time>2021-08-18T12:19:43Z</time>
      </trkpt>
      <trkpt lat="46.51531" lon="6.07969">
        <ele>1272.9</ele>
        <time>2021-08-18T12:19:44Z</time>
      </trkpt>
      <trkpt lat="46.51529" lon="6.07965">
        <ele>1272.8</ele>
        <time>2021-08-18T12:19:46Z</time>
      </trkpt>
      <trkpt lat="46.51515" lon="6.07946">
        <ele>1272.4</ele>
        <time>2021-08-18T12:19:47Z</time>
      </trkpt>
      <trkpt lat="46.51508" lon="6.07937">
        <ele>1272.5</ele>
        <time>2021-08-18T12:19:49Z</time>
      </trkpt>
      <trkpt lat="46.51334" lon="6.07734">
        <ele>1276.8</ele>
        <time>2021-08-18T12:20:57Z</time>
      </trkpt>
      <trkpt lat="46.51331" lon="6.07729">
        <ele>1276.8</ele>
        <time>2021-08-18T12:20:58Z</time>
      </trkpt>
      <trkpt lat="46.5133" lon="6.0772">
        <ele>1276.8</ele>
        <time>2021-08-18T12:20:59Z</time>
      </trkpt>
      <trkpt lat="46.51328" lon="6.07705">
        <ele>1276.8</ele>
        <time>2021-08-18T12:21:01Z</time>
      </trkpt>
      <trkpt lat="46.51327" lon="6.07693">
        <ele>1276.9</ele>
        <time>2021-08-18T12:21:02Z</time>
      </trkpt>
      <trkpt lat="46.51329" lon="6.07675">
        <ele>1276.9</ele>
        <time>2021-08-18T12:21:04Z</time>
      </trkpt>
      <trkpt lat="46.51329" lon="6.07661">
        <ele>1277</ele>
        <time>2021-08-18T12:21:05Z</time>
      </trkpt>
      <trkpt lat="46.51329" lon="6.07653">
        <ele>1277.1</ele>
        <time>2021-08-18T12:21:06Z</time>
      </trkpt>
      <trkpt lat="46.51328" lon="6.07649">
        <ele>1277.1</ele>
        <time>2021-08-18T12:21:07Z</time>
      </trkpt>
      <trkpt lat="46.51326" lon="6.07641">
        <ele>1277.1</ele>
        <time>2021-08-18T12:21:08Z</time>
      </trkpt>
      <trkpt lat="46.51326" lon="6.07638">
        <ele>1277.2</ele>
        <time>2021-08-18T12:21:10Z</time>
      </trkpt>
      <trkpt lat="46.51325" lon="6.07636">
        <ele>1277.2</ele>
        <time>2021-08-18T12:21:11Z</time>
      </trkpt>
      <trkpt lat="46.51324" lon="6.07633">
        <ele>1277.2</ele>
        <time>2021-08-18T12:21:13Z</time>
      </trkpt>
      <trkpt lat="46.51324" lon="6.07631">
        <ele>1277.2</ele>
        <time>2021-08-18T12:21:14Z</time>
      </trkpt>
      <trkpt lat="46.51322" lon="6.07629">
        <ele>1277.2</ele>
        <time>2021-08-18T12:21:15Z</time>
      </trkpt>
      <trkpt lat="46.51316" lon="6.07622">
        <ele>1277.2</ele>
        <time>2021-08-18T12:21:17Z</time>
      </trkpt>
      <trkpt lat="46.5131" lon="6.07621">
        <ele>1277.1</ele>
        <time>2021-08-18T12:21:18Z</time>
      </trkpt>
      <trkpt lat="46.51305" lon="6.07618">
        <ele>1277</ele>
        <time>2021-08-18T12:21:19Z</time>
      </trkpt>
      <trkpt lat="46.5129" lon="6.0762">
        <ele>1276.7</ele>
        <time>2021-08-18T12:21:20Z</time>
      </trkpt>
      <trkpt lat="46.51282" lon="6.07622">
        <ele>1276.3</ele>
        <time>2021-08-18T12:21:21Z</time>
      </trkpt>
      <trkpt lat="46.51275" lon="6.07624">
        <ele>1276</ele>
        <time>2021-08-18T12:21:22Z</time>
      </trkpt>
      <trkpt lat="46.51269" lon="6.07624">
        <ele>1275.7</ele>
        <time>2021-08-18T12:21:23Z</time>
      </trkpt>
      <trkpt lat="46.51255" lon="6.07619">
        <ele>1275.2</ele>
        <time>2021-08-18T12:21:25Z</time>
      </trkpt>
      <trkpt lat="46.51244" lon="6.07615">
        <ele>1275.2</ele>
        <time>2021-08-18T12:21:27Z</time>
      </trkpt>
      <trkpt lat="46.5124" lon="6.07615">
        <ele>1275.2</ele>
        <time>2021-08-18T12:21:28Z</time>
      </trkpt>
      <trkpt lat="46.51237" lon="6.07614">
        <ele>1275.3</ele>
        <time>2021-08-18T12:21:29Z</time>
      </trkpt>
      <trkpt lat="46.5123" lon="6.07611">
        <ele>1275.6</ele>
        <time>2021-08-18T12:21:31Z</time>
      </trkpt>
      <trkpt lat="46.51227" lon="6.07609">
        <ele>1275.7</ele>
        <time>2021-08-18T12:21:32Z</time>
      </trkpt>
      <trkpt lat="46.51224" lon="6.07608">
        <ele>1275.8</ele>
        <time>2021-08-18T12:21:34Z</time>
      </trkpt>
      <trkpt lat="46.51223" lon="6.07608">
        <ele>1275.9</ele>
        <time>2021-08-18T12:21:35Z</time>
      </trkpt>
      <trkpt lat="46.51221" lon="6.07607">
        <ele>1276</ele>
        <time>2021-08-18T12:21:36Z</time>
      </trkpt>
      <trkpt lat="46.51219" lon="6.07606">
        <ele>1276.6</ele>
        <time>2021-08-18T12:21:37Z</time>
      </trkpt>
      <trkpt lat="46.51104" lon="6.07204">
        <ele>1285.4</ele>
        <time>2021-08-18T12:22:56Z</time>
      </trkpt>
      <trkpt lat="46.51097" lon="6.07188">
        <ele>1281.8</ele>
        <time>2021-08-18T12:22:57Z</time>
      </trkpt>
      <trkpt lat="46.51086" lon="6.07162">
        <ele>1275.3</ele>
        <time>2021-08-18T12:22:59Z</time>
      </trkpt>
      <trkpt lat="46.5108" lon="6.07153">
        <ele>1274</ele>
        <time>2021-08-18T12:23:00Z</time>
      </trkpt>
      <trkpt lat="46.51074" lon="6.07144">
        <ele>1272.2</ele>
        <time>2021-08-18T12:23:01Z</time>
      </trkpt>
      <trkpt lat="46.51066" lon="6.07128">
        <ele>1269.4</ele>
        <time>2021-08-18T12:23:03Z</time>
      </trkpt>
      <trkpt lat="46.5106" lon="6.07129">
        <ele>1269.6</ele>
        <time>2021-08-18T12:23:04Z</time>
      </trkpt>
      <trkpt lat="46.51058" lon="6.07127">
        <ele>1269.2</ele>
        <time>2021-08-18T12:23:05Z</time>
      </trkpt>
      <trkpt lat="46.51055" lon="6.07124">
        <ele>1269.3</ele>
        <time>2021-08-18T12:23:06Z</time>
      </trkpt>
      <trkpt lat="46.51048" lon="6.0711">
        <ele>1267.5</ele>
        <time>2021-08-18T12:23:08Z</time>
      </trkpt>
      <trkpt lat="46.51042" lon="6.07099">
        <ele>1266.7</ele>
        <time>2021-08-18T12:23:10Z</time>
      </trkpt>
      <trkpt lat="46.51034" lon="6.07084">
        <ele>1266.2</ele>
        <time>2021-08-18T12:23:12Z</time>
      </trkpt>
      <trkpt lat="46.51028" lon="6.07075">
        <ele>1265.8</ele>
        <time>2021-08-18T12:23:13Z</time>
      </trkpt>
      <trkpt lat="46.50422" lon="6.06368">
        <ele>1239.3</ele>
        <time>2021-08-18T12:27:01Z</time>
      </trkpt>
      <trkpt lat="46.5042" lon="6.06372">
        <ele>1239.3</ele>
        <time>2021-08-18T12:27:02Z</time>
      </trkpt>
      <trkpt lat="46.50419" lon="6.06377">
        <ele>1239.3</ele>
        <time>2021-08-18T12:27:03Z</time>
      </trkpt>
      <trkpt lat="46.50417" lon="6.06382">
        <ele>1239.2</ele>
        <time>2021-08-18T12:27:04Z</time>
      </trkpt>
      <trkpt lat="46.50415" lon="6.06388">
        <ele>1239.1</ele>
        <time>2021-08-18T12:27:05Z</time>
      </trkpt>
      <trkpt lat="46.50412" lon="6.06393">
        <ele>1239</ele>
        <time>2021-08-18T12:27:06Z</time>
      </trkpt>
      <trkpt lat="46.50407" lon="6.06402">
        <ele>1238.9</ele>
        <time>2021-08-18T12:27:07Z</time>
      </trkpt>
      <trkpt lat="46.50402" lon="6.0641">
        <ele>1238.6</ele>
        <time>2021-08-18T12:27:09Z</time>
      </trkpt>
      <trkpt lat="46.50399" lon="6.06414">
        <ele>1238.5</ele>
        <time>2021-08-18T12:27:10Z</time>
      </trkpt>
      <trkpt lat="46.50398" lon="6.06418">
        <ele>1238.3</ele>
        <time>2021-08-18T12:27:11Z</time>
      </trkpt>
      <trkpt lat="46.50392" lon="6.06418">
        <ele>1238</ele>
        <time>2021-08-18T12:27:12Z</time>
      </trkpt>
      <trkpt lat="46.50383" lon="6.06412">
        <ele>1237.3</ele>
        <time>2021-08-18T12:27:14Z</time>
      </trkpt>
      <trkpt lat="46.50379" lon="6.06407">
        <ele>1237</ele>
        <time>2021-08-18T12:27:15Z</time>
      </trkpt>
      <trkpt lat="46.50378" lon="6.06406">
        <ele>1236.9</ele>
        <time>2021-08-18T12:27:17Z</time>
      </trkpt>
      <trkpt lat="46.50378" lon="6.06405">
        <ele>1236.8</ele>
        <time>2021-08-18T12:27:18Z</time>
      </trkpt>
      <trkpt lat="46.50377" lon="6.06404">
        <ele>1236.8</ele>
        <time>2021-08-18T12:27:19Z</time>
      </trkpt>
      <trkpt lat="46.50364" lon="6.06406">
        <ele>1235.9</ele>
        <time>2021-08-18T12:27:21Z</time>
      </trkpt>
      <trkpt lat="46.50352" lon="6.06408">
        <ele>1234.9</ele>
        <time>2021-08-18T12:27:22Z</time>
      </trkpt>
      <trkpt lat="46.50339" lon="6.06411">
        <ele>1234</ele>
        <time>2021-08-18T12:27:51Z</time>
      </trkpt>
      <trkpt lat="46.50326" lon="6.06414">
        <ele>1233.1</ele>
        <time>2021-08-18T12:27:53Z</time>
      </trkpt>
      <trkpt lat="46.50308" lon="6.06421">
        <ele>1232</ele>
        <time>2021-08-18T12:27:55Z</time>
      </trkpt>
      <trkpt lat="46.503" lon="6.06426">
        <ele>1231.7</ele>
        <time>2021-08-18T12:27:56Z</time>
      </trkpt>
      <trkpt lat="46.50292" lon="6.06431">
        <ele>1231.5</ele>
        <time>2021-08-18T12:27:57Z</time>
      </trkpt>
      <trkpt lat="46.50279" lon="6.06444">
        <ele>1231.4</ele>
        <time>2021-08-18T12:27:59Z</time>
      </trkpt>
      <trkpt lat="46.50274" lon="6.0645">
        <ele>1231.5</ele>
        <time>2021-08-18T12:28:00Z</time>
      </trkpt>
      <trkpt lat="46.50267" lon="6.06457">
        <ele>1231.6</ele>
        <time>2021-08-18T12:28:02Z</time>
      </trkpt>
      <trkpt lat="46.50267" lon="6.06452">
        <ele>1231.6</ele>
        <time>2021-08-18T12:28:04Z</time>
      </trkpt>
      <trkpt lat="46.50267" lon="6.06448">
        <ele>1231.6</ele>
        <time>2021-08-18T12:28:05Z</time>
      </trkpt>
      <trkpt lat="46.50269" lon="6.0644">
        <ele>1231.5</ele>
        <time>2021-08-18T12:28:06Z</time>
      </trkpt>
      <trkpt lat="46.50276" lon="6.06426">
        <ele>1231.4</ele>
        <time>2021-08-18T12:28:08Z</time>
      </trkpt>
      <trkpt lat="46.50276" lon="6.06421">
        <ele>1231.4</ele>
        <time>2021-08-18T12:28:09Z</time>
      </trkpt>
      <trkpt lat="46.50275" lon="6.06417">
        <ele>1231.3</ele>
        <time>2021-08-18T12:28:10Z</time>
      </trkpt>
      <trkpt lat="46.50274" lon="6.06415">
        <ele>1231.3</ele>
        <time>2021-08-18T12:28:11Z</time>
      </trkpt>
      <trkpt lat="46.50273" lon="6.06411">
        <ele>1231.3</ele>
        <time>2021-08-18T12:28:13Z</time>
      </trkpt>
      <trkpt lat="46.50271" lon="6.06407">
        <ele>1231.2</ele>
        <time>2021-08-18T12:28:14Z</time>
      </trkpt>
      <trkpt lat="46.50269" lon="6.06401">
        <ele>1231.1</ele>
        <time>2021-08-18T12:28:15Z</time>
      </trkpt>
      <trkpt lat="46.50269" lon="6.06399">
        <ele>1231</ele>
        <time>2021-08-18T12:28:16Z</time>
      </trkpt>
      <trkpt lat="46.50266" lon="6.0639">
        <ele>1230.8</ele>
        <time>2021-08-18T12:28:18Z</time>
      </trkpt>
      <trkpt lat="46.50262" lon="6.06377">
        <ele>1230.5</ele>
        <time>2021-08-18T12:28:19Z</time>
      </trkpt>
      <trkpt lat="46.50257" lon="6.06362">
        <ele>1230.1</ele>
        <time>2021-08-18T12:28:21Z</time>
      </trkpt>
      <trkpt lat="46.50255" lon="6.06356">
        <ele>1229.9</ele>
        <time>2021-08-18T12:28:22Z</time>
      </trkpt>
      <trkpt lat="46.50252" lon="6.06349">
        <ele>1229.7</ele>
        <time>2021-08-18T12:28:23Z</time>
      </trkpt>
      <trkpt lat="46.50248" lon="6.06335">
        <ele>1229.3</ele>
        <time>2021-08-18T12:28:25Z</time>
      </trkpt>
      <trkpt lat="46.50244" lon="6.06328">
        <ele>1229.2</ele>
        <time>2021-08-18T12:28:26Z</time>
      </trkpt>
      <trkpt lat="46.50241" lon="6.06316">
        <ele>1228.9</ele>
        <time>2021-08-18T12:28:28Z</time>
      </trkpt>
      <trkpt lat="46.5024" lon="6.0631">
        <ele>1228.8</ele>
        <time>2021-08-18T12:28:29Z</time>
      </trkpt>
      <trkpt lat="46.5024" lon="6.06294">
        <ele>1228.6</ele>
        <time>2021-08-18T12:28:31Z</time>
      </trkpt>
      <trkpt lat="46.50238" lon="6.06287">
        <ele>1228.5</ele>
        <time>2021-08-18T12:28:32Z</time>
      </trkpt>
      <trkpt lat="46.50236" lon="6.06274">
        <ele>1228.6</ele>
        <time>2021-08-18T12:28:34Z</time>
      </trkpt>
      <trkpt lat="46.50234" lon="6.06269">
        <ele>1228.7</ele>
        <time>2021-08-18T12:28:35Z</time>
      </trkpt>
      <trkpt lat="46.50233" lon="6.06265">
        <ele>1228.8</ele>
        <time>2021-08-18T12:28:37Z</time>
      </trkpt>
      <trkpt lat="46.50232" lon="6.06262">
        <ele>1228.9</ele>
        <time>2021-08-18T12:28:38Z</time>
      </trkpt>
      <trkpt lat="46.5023" lon="6.06254">
        <ele>1229.2</ele>
        <time>2021-08-18T12:28:40Z</time>
      </trkpt>
      <trkpt lat="46.5023" lon="6.06249">
        <ele>1229.3</ele>
        <time>2021-08-18T12:28:42Z</time>
      </trkpt>
      <trkpt lat="46.50229" lon="6.06247">
        <ele>1229.4</ele>
        <time>2021-08-18T12:28:43Z</time>
      </trkpt>
      <trkpt lat="46.50228" lon="6.06241">
        <ele>1229.6</ele>
        <time>2021-08-18T12:28:45Z</time>
      </trkpt>
      <trkpt lat="46.50138" lon="6.06121">
        <ele>1232.5</ele>
        <time>2021-08-18T12:29:57Z</time>
      </trkpt>
      <trkpt lat="46.50134" lon="6.06117">
        <ele>1232.4</ele>
        <time>2021-08-18T12:29:58Z</time>
      </trkpt>
      <trkpt lat="46.50127" lon="6.06109">
        <ele>1232.1</ele>
        <time>2021-08-18T12:29:59Z</time>
      </trkpt>
      <trkpt lat="46.50121" lon="6.06101">
        <ele>1231.8</ele>
        <time>2021-08-18T12:30:01Z</time>
      </trkpt>
      <trkpt lat="46.50119" lon="6.061">
        <ele>1231.8</ele>
        <time>2021-08-18T12:30:02Z</time>
      </trkpt>
      <trkpt lat="46.50109" lon="6.06094">
        <ele>1231.4</ele>
        <time>2021-08-18T12:30:04Z</time>
      </trkpt>
      <trkpt lat="46.50106" lon="6.06091">
        <ele>1231.2</ele>
        <time>2021-08-18T12:30:05Z</time>
      </trkpt>
      <trkpt lat="46.50105" lon="6.0609">
        <ele>1231.2</ele>
        <time>2021-08-18T12:30:06Z</time>
      </trkpt>
      <trkpt lat="46.50099" lon="6.06073">
        <ele>1230.5</ele>
        <time>2021-08-18T12:30:08Z</time>
      </trkpt>
      <trkpt lat="46.50092" lon="6.06053">
        <ele>1229.5</ele>
        <time>2021-08-18T12:30:10Z</time>
      </trkpt>
      <trkpt lat="46.50091" lon="6.06041">
        <ele>1228.9</ele>
        <time>2021-08-18T12:30:11Z</time>
      </trkpt>
      <trkpt lat="46.5009" lon="6.06032">
        <ele>1228.5</ele>
        <time>2021-08-18T12:30:12Z</time>
      </trkpt>
      <trkpt lat="46.50089" lon="6.06022">
        <ele>1228</ele>
        <time>2021-08-18T12:30:13Z</time>
      </trkpt>
      <trkpt lat="46.50087" lon="6.06017">
        <ele>1227.8</ele>
        <time>2021-08-18T12:30:14Z</time>
      </trkpt>
      <trkpt lat="46.50087" lon="6.06006">
        <ele>1227.4</ele>
        <time>2021-08-18T12:30:16Z</time>
      </trkpt>
      <trkpt lat="46.50087" lon="6.06">
        <ele>1227.1</ele>
        <time>2021-08-18T12:30:17Z</time>
      </trkpt>
      <trkpt lat="46.50088" lon="6.05992">
        <ele>1226.9</ele>
        <time>2021-08-18T12:30:18Z</time>
      </trkpt>
      <trkpt lat="46.50086" lon="6.05981">
        <ele>1226.5</ele>
        <time>2021-08-18T12:30:20Z</time>
      </trkpt>
      <trkpt lat="46.50085" lon="6.05973">
        <ele>1226.3</ele>
        <time>2021-08-18T12:30:21Z</time>
      </trkpt>
      <trkpt lat="46.50083" lon="6.05962">
        <ele>1226</ele>
        <time>2021-08-18T12:30:22Z</time>
      </trkpt>
      <trkpt lat="46.50077" lon="6.05952">
        <ele>1225.8</ele>
        <time>2021-08-18T12:30:23Z</time>
      </trkpt>
      <trkpt lat="46.50063" lon="6.05932">
        <ele>1225.1</ele>
        <time>2021-08-18T12:30:25Z</time>
      </trkpt>
      <trkpt lat="46.50057" lon="6.05924">
        <ele>1224.7</ele>
        <time>2021-08-18T12:30:26Z</time>
      </trkpt>
      <trkpt lat="46.50052" lon="6.05917">
        <ele>1224.1</ele>
        <time>2021-08-18T12:30:27Z</time>
      </trkpt>
      <trkpt lat="46.50048" lon="6.05912">
        <ele>1223.7</ele>
        <time>2021-08-18T12:30:28Z</time>
      </trkpt>
      <trkpt lat="46.50038" lon="6.05905">
        <ele>1222.5</ele>
        <time>2021-08-18T12:30:30Z</time>
      </trkpt>
      <trkpt lat="46.50033" lon="6.059">
        <ele>1221.7</ele>
        <time>2021-08-18T12:30:31Z</time>
      </trkpt>
      <trkpt lat="46.5002" lon="6.05885">
        <ele>1219.8</ele>
        <time>2021-08-18T12:30:33Z</time>
      </trkpt>
      <trkpt lat="46.50016" lon="6.05878">
        <ele>1219</ele>
        <time>2021-08-18T12:30:34Z</time>
      </trkpt>
      <trkpt lat="46.50013" lon="6.05871">
        <ele>1218.4</ele>
        <time>2021-08-18T12:30:35Z</time>
      </trkpt>
      <trkpt lat="46.50008" lon="6.05861">
        <ele>1217.5</ele>
        <time>2021-08-18T12:30:36Z</time>
      </trkpt>
      <trkpt lat="46.49996" lon="6.05834">
        <ele>1215.5</ele>
        <time>2021-08-18T12:30:38Z</time>
      </trkpt>
      <trkpt lat="46.4999" lon="6.05824">
        <ele>1214.9</ele>
        <time>2021-08-18T12:30:39Z</time>
      </trkpt>
      <trkpt lat="46.49985" lon="6.05815">
        <ele>1214.5</ele>
        <time>2021-08-18T12:30:40Z</time>
      </trkpt>
      <trkpt lat="46.49972" lon="6.05801">
        <ele>1213.9</ele>
        <time>2021-08-18T12:30:42Z</time>
      </trkpt>
      <trkpt lat="46.49962" lon="6.05793">
        <ele>1213.4</ele>
        <time>2021-08-18T12:30:44Z</time>
      </trkpt>
      <trkpt lat="46.49957" lon="6.05787">
        <ele>1213.2</ele>
        <time>2021-08-18T12:30:46Z</time>
      </trkpt>
      <trkpt lat="46.49955" lon="6.05786">
        <ele>1213.1</ele>
        <time>2021-08-18T12:30:47Z</time>
      </trkpt>
      <trkpt lat="46.49952" lon="6.05784">
        <ele>1212.9</ele>
        <time>2021-08-18T12:30:49Z</time>
      </trkpt>
      <trkpt lat="46.49951" lon="6.05782">
        <ele>1212.8</ele>
        <time>2021-08-18T12:30:50Z</time>
      </trkpt>
      <trkpt lat="46.49949" lon="6.05782">
        <ele>1212.7</ele>
        <time>2021-08-18T12:30:52Z</time>
      </trkpt>
      <trkpt lat="46.49947" lon="6.05781">
        <ele>1212.6</ele>
        <time>2021-08-18T12:30:53Z</time>
      </trkpt>
      <trkpt lat="46.49951" lon="6.05789">
        <ele>1212.2</ele>
        <time>2021-08-18T12:30:54Z</time>
      </trkpt>
      <trkpt lat="46.49957" lon="6.05796">
        <ele>1212.8</ele>
        <time>2021-08-18T12:30:56Z</time>
      </trkpt>
      <trkpt lat="46.49962" lon="6.05804">
        <ele>1213.3</ele>
        <time>2021-08-18T12:30:57Z</time>
      </trkpt>
      <trkpt lat="46.49967" lon="6.05811">
        <ele>1213.7</ele>
        <time>2021-08-18T12:30:59Z</time>
      </trkpt>
      <trkpt lat="46.49973" lon="6.05819">
        <ele>1214.1</ele>
        <time>2021-08-18T12:31:00Z</time>
      </trkpt>
      <trkpt lat="46.49978" lon="6.05826">
        <ele>1214.5</ele>
        <time>2021-08-18T12:31:40Z</time>
      </trkpt>
      <trkpt lat="46.49983" lon="6.05833">
        <ele>1214.9</ele>
        <time>2021-08-18T12:31:42Z</time>
      </trkpt>
      <trkpt lat="46.49988" lon="6.05841">
        <ele>1215.2</ele>
        <time>2021-08-18T12:31:43Z</time>
      </trkpt>
      <trkpt lat="46.4999" lon="6.05846">
        <ele>1215.3</ele>
        <time>2021-08-18T12:31:45Z</time>
      </trkpt>
      <trkpt lat="46.49989" lon="6.05846">
        <ele>1215.3</ele>
        <time>2021-08-18T12:31:46Z</time>
      </trkpt>
      <trkpt lat="46.49988" lon="6.05846">
        <ele>1215.3</ele>
        <time>2021-08-18T12:31:47Z</time>
      </trkpt>
      <trkpt lat="46.49984" lon="6.05844">
        <ele>1215.2</ele>
        <time>2021-08-18T12:31:49Z</time>
      </trkpt>
      <trkpt lat="46.49981" lon="6.05841">
        <ele>1215.1</ele>
        <time>2021-08-18T12:31:50Z</time>
      </trkpt>
      <trkpt lat="46.4998" lon="6.05841">
        <ele>1215.1</ele>
        <time>2021-08-18T12:31:51Z</time>
      </trkpt>
      <trkpt lat="46.49971" lon="6.05833">
        <ele>1214.8</ele>
        <time>2021-08-18T12:31:52Z</time>
      </trkpt>
      <trkpt lat="46.49961" lon="6.05825">
        <ele>1213.8</ele>
        <time>2021-08-18T12:31:53Z</time>
      </trkpt>
      <trkpt lat="46.49637" lon="6.05712">
        <ele>1202.4</ele>
        <time>2021-08-18T12:33:07Z</time>
      </trkpt>
      <trkpt lat="46.49635" lon="6.05711">
        <ele>1202.4</ele>
        <time>2021-08-18T12:33:08Z</time>
      </trkpt>
      <trkpt lat="46.4963" lon="6.05709">
        <ele>1202.3</ele>
        <time>2021-08-18T12:33:10Z</time>
      </trkpt>
      <trkpt lat="46.49626" lon="6.05701">
        <ele>1202.2</ele>
        <time>2021-08-18T12:33:11Z</time>
      </trkpt>
      <trkpt lat="46.4962" lon="6.05687">
        <ele>1201.7</ele>
        <time>2021-08-18T12:33:13Z</time>
      </trkpt>
      <trkpt lat="46.49615" lon="6.05676">
        <ele>1201.2</ele>
        <time>2021-08-18T12:33:14Z</time>
      </trkpt>
      <trkpt lat="46.49606" lon="6.05665">
        <ele>1200.5</ele>
        <time>2021-08-18T12:33:15Z</time>
      </trkpt>
      <trkpt lat="46.49597" lon="6.05657">
        <ele>1199.8</ele>
        <time>2021-08-18T12:33:17Z</time>
      </trkpt>
      <trkpt lat="46.49584" lon="6.05645">
        <ele>1198.5</ele>
        <time>2021-08-18T12:33:19Z</time>
      </trkpt>
      <trkpt lat="46.49577" lon="6.05641">
        <ele>1198.1</ele>
        <time>2021-08-18T12:33:20Z</time>
      </trkpt>
      <trkpt lat="46.49565" lon="6.05633">
        <ele>1197.3</ele>
        <time>2021-08-18T12:33:22Z</time>
      </trkpt>
      <trkpt lat="46.49561" lon="6.05633">
        <ele>1197</ele>
        <time>2021-08-18T12:33:24Z</time>
      </trkpt>
      <trkpt lat="46.49555" lon="6.05632">
        <ele>1196.7</ele>
        <time>2021-08-18T12:33:25Z</time>
      </trkpt>
      <trkpt lat="46.4955" lon="6.05629">
        <ele>1196.2</ele>
        <time>2021-08-18T12:33:27Z</time>
      </trkpt>
      <trkpt lat="46.49542" lon="6.05622">
        <ele>1195.2</ele>
        <time>2021-08-18T12:33:28Z</time>
      </trkpt>
      <trkpt lat="46.49537" lon="6.05619">
        <ele>1194.8</ele>
        <time>2021-08-18T12:33:30Z</time>
      </trkpt>
      <trkpt lat="46.49533" lon="6.05613">
        <ele>1194.3</ele>
        <time>2021-08-18T12:33:31Z</time>
      </trkpt>
      <trkpt lat="46.4953" lon="6.05606">
        <ele>1193.8</ele>
        <time>2021-08-18T12:33:33Z</time>
      </trkpt>
      <trkpt lat="46.49528" lon="6.05601">
        <ele>1193.5</ele>
        <time>2021-08-18T12:33:34Z</time>
      </trkpt>
      <trkpt lat="46.49514" lon="6.05583">
        <ele>1192.1</ele>
        <time>2021-08-18T12:33:36Z</time>
      </trkpt>
      <trkpt lat="46.49501" lon="6.05569">
        <ele>1191</ele>
        <time>2021-08-18T12:33:37Z</time>
      </trkpt>
      <trkpt lat="46.49488" lon="6.05555">
        <ele>1189.8</ele>
        <time>2021-08-18T12:33:39Z</time>
      </trkpt>
      <trkpt lat="46.49482" lon="6.05547">
        <ele>1189.2</ele>
        <time>2021-08-18T12:33:40Z</time>
      </trkpt>
      <trkpt lat="46.49477" lon="6.05541">
        <ele>1188.6</ele>
        <time>2021-08-18T12:33:41Z</time>
      </trkpt>
      <trkpt lat="46.49475" lon="6.05538">
        <ele>1188.2</ele>
        <time>2021-08-18T12:33:43Z</time>
      </trkpt>
      <trkpt lat="46.49472" lon="6.05534">
        <ele>1187.8</ele>
        <time>2021-08-18T12:33:44Z</time>
      </trkpt>
      <trkpt lat="46.49468" lon="6.05533">
        <ele>1187.3</ele>
        <time>2021-08-18T12:33:45Z</time>
      </trkpt>
      <trkpt lat="46.49464" lon="6.05531">
        <ele>1186.6</ele>
        <time>2021-08-18T12:33:46Z</time>
      </trkpt>
      <trkpt lat="46.49459" lon="6.0553">
        <ele>1186</ele>
        <time>2021-08-18T12:33:47Z</time>
      </trkpt>
      <trkpt lat="46.49454" lon="6.05529">
        <ele>1185.3</ele>
        <time>2021-08-18T12:33:49Z</time>
      </trkpt>
      <trkpt lat="46.49449" lon="6.05527">
        <ele>1184.6</ele>
        <time>2021-08-18T12:33:50Z</time>
      </trkpt>
      <trkpt lat="46.49442" lon="6.05523">
        <ele>1183.8</ele>
        <time>2021-08-18T12:33:51Z</time>
      </trkpt>
      <trkpt lat="46.49437" lon="6.05522">
        <ele>1183.3</ele>
        <time>2021-08-18T12:33:52Z</time>
      </trkpt>
      <trkpt lat="46.49433" lon="6.05521">
        <ele>1183.1</ele>
        <time>2021-08-18T12:33:54Z</time>
      </trkpt>
      <trkpt lat="46.49432" lon="6.0552">
        <ele>1183.1</ele>
        <time>2021-08-18T12:33:55Z</time>
      </trkpt>
      <trkpt lat="46.49427" lon="6.0552">
        <ele>1183</ele>
        <time>2021-08-18T12:33:57Z</time>
      </trkpt>
      <trkpt lat="46.49422" lon="6.05519">
        <ele>1182.8</ele>
        <time>2021-08-18T12:33:58Z</time>
      </trkpt>
      <trkpt lat="46.49419" lon="6.05517">
        <ele>1182.7</ele>
        <time>2021-08-18T12:34:00Z</time>
      </trkpt>
      <trkpt lat="46.49418" lon="6.05516">
        <ele>1182.7</ele>
        <time>2021-08-18T12:34:01Z</time>
      </trkpt>
      <trkpt lat="46.49415" lon="6.05513">
        <ele>1182.5</ele>
        <time>2021-08-18T12:34:02Z</time>
      </trkpt>
      <trkpt lat="46.49647" lon="6.04888">
        <ele>1085.5</ele>
        <time>2021-08-19T08:40:00Z</time>
      </trkpt>
      <trkpt lat="46.49647" lon="6.04888">
        <ele>1085.5</ele>
        <time>2021-08-19T08:40:00Z</time>
      </trkpt>
      <trkpt lat="46.49213" lon="6.0503">
        <ele>1130.7</ele>
        <time>2021-08-19T08:40:02Z</time>
      </trkpt>
      <trkpt lat="46.49218" lon="6.05042">
        <ele>1135.1</ele>
        <time>2021-08-19T08:40:03Z</time>
      </trkpt>
      <trkpt lat="46.49241" lon="6.05096">
        <ele>1150.7</ele>
        <time>2021-08-19T08:40:04Z</time>
      </trkpt>
      <trkpt lat="46.49252" lon="6.05121">
        <ele>1154</ele>
        <time>2021-08-19T08:40:05Z</time>
      </trkpt>
      <trkpt lat="46.49264" lon="6.05147">
        <ele>1154.5</ele>
        <time>2021-08-19T08:40:07Z</time>
      </trkpt>
      <trkpt lat="46.49266" lon="6.05154">
        <ele>1154.2</ele>
        <time>2021-08-19T08:40:08Z</time>
      </trkpt>
      <trkpt lat="46.49266" lon="6.0516">
        <ele>1154.1</ele>
        <time>2021-08-19T08:40:09Z</time>
      </trkpt>
      <trkpt lat="46.49264" lon="6.05166">
        <ele>1153.9</ele>
        <time>2021-08-19T08:40:11Z</time>
      </trkpt>
      <trkpt lat="46.49261" lon="6.05164">
        <ele>1153.7</ele>
        <time>2021-08-19T08:40:12Z</time>
      </trkpt>
      <trkpt lat="46.49259" lon="6.05162">
        <ele>1153.6</ele>
        <time>2021-08-19T08:40:14Z</time>
      </trkpt>
      <trkpt lat="46.49258" lon="6.05159">
        <ele>1153.5</ele>
        <time>2021-08-19T08:40:16Z</time>
      </trkpt>
      <trkpt lat="46.49257" lon="6.05158">
        <ele>1153.4</ele>
        <time>2021-08-19T08:40:17Z</time>
      </trkpt>
      <trkpt lat="46.49257" lon="6.05158">
        <ele>1153.4</ele>
        <time>2021-08-19T08:40:18Z</time>
      </trkpt>
      <trkpt lat="46.49257" lon="6.05158">
        <ele>1153.4</ele>
        <time>2021-08-19T08:40:20Z</time>
      </trkpt>
      <trkpt lat="46.49258" lon="6.05158">
        <ele>1153.3</ele>
        <time>2021-08-19T08:40:22Z</time>
      </trkpt>
      <trkpt lat="46.49259" lon="6.05158">
        <ele>1153.3</ele>
        <time>2021-08-19T08:40:23Z</time>
      </trkpt>
      <trkpt lat="46.49261" lon="6.05156">
        <ele>1153.2</ele>
        <time>2021-08-19T08:40:25Z</time>
      </trkpt>
      <trkpt lat="46.49261" lon="6.05157">
        <ele>1153.1</ele>
        <time>2021-08-19T08:40:26Z</time>
      </trkpt>
      <trkpt lat="46.4926" lon="6.05156">
        <ele>1153</ele>
        <time>2021-08-19T08:40:28Z</time>
      </trkpt>
      <trkpt lat="46.49261" lon="6.05153">
        <ele>1152.9</ele>
        <time>2021-08-19T08:40:29Z</time>
      </trkpt>
      <trkpt lat="46.49261" lon="6.05151">
        <ele>1152.8</ele>
        <time>2021-08-19T08:40:30Z</time>
      </trkpt>
      <trkpt lat="46.4926" lon="6.0515">
        <ele>1152.8</ele>
        <time>2021-08-19T08:40:31Z</time>
      </trkpt>
      <trkpt lat="46.4926" lon="6.0515">
        <ele>1152.7</ele>
        <time>2021-08-19T08:40:32Z</time>
      </trkpt>
      <trkpt lat="46.49259" lon="6.05149">
        <ele>1152.7</ele>
        <time>2021-08-19T08:40:34Z</time>
      </trkpt>
      <trkpt lat="46.49258" lon="6.05148">
        <ele>1152.6</ele>
        <time>2021-08-19T08:40:35Z</time>
      </trkpt>
      <trkpt lat="46.49257" lon="6.05148">
        <ele>1152.6</ele>
        <time>2021-08-19T08:40:36Z</time>
      </trkpt>
      <trkpt lat="46.49257" lon="6.05147">
        <ele>1152.5</ele>
        <time>2021-08-19T08:40:37Z</time>
      </trkpt>
      <trkpt lat="46.49255" lon="6.05146">
        <ele>1152.5</ele>
        <time>2021-08-19T08:40:38Z</time>
      </trkpt>
      <trkpt lat="46.49254" lon="6.05146">
        <ele>1152.4</ele>
        <time>2021-08-19T08:40:40Z</time>
      </trkpt>
      <trkpt lat="46.49252" lon="6.05145">
        <ele>1152.3</ele>
        <time>2021-08-19T08:40:41Z</time>
      </trkpt>
      <trkpt lat="46.49249" lon="6.05142">
        <ele>1152</ele>
        <time>2021-08-19T08:40:43Z</time>
      </trkpt>
      <trkpt lat="46.49229" lon="6.05143">
        <ele>1151.1</ele>
        <time>2021-08-19T08:40:44Z</time>
      </trkpt>
      <trkpt lat="46.49225" lon="6.05143">
        <ele>1151</ele>
        <time>2021-08-19T08:40:45Z</time>
      </trkpt>
      <trkpt lat="46.49214" lon="6.05136">
        <ele>1150.5</ele>
        <time>2021-08-19T08:40:47Z</time>
      </trkpt>
      <trkpt lat="46.49211" lon="6.05135">
        <ele>1150.4</ele>
        <time>2021-08-19T08:40:48Z</time>
      </trkpt>
      <trkpt lat="46.49209" lon="6.05135">
        <ele>1150.3</ele>
        <time>2021-08-19T08:40:49Z</time>
      </trkpt>
      <trkpt lat="46.49204" lon="6.05136">
        <ele>1150</ele>
        <time>2021-08-19T08:40:51Z</time>
      </trkpt>
      <trkpt lat="46.492" lon="6.05138">
        <ele>1149.8</ele>
        <time>2021-08-19T08:40:52Z</time>
      </trkpt>
      <trkpt lat="46.49194" lon="6.05139">
        <ele>1149.4</ele>
        <time>2021-08-19T08:40:54Z</time>
      </trkpt>
      <trkpt lat="46.4919" lon="6.0514">
        <ele>1149</ele>
        <time>2021-08-19T08:40:55Z</time>
      </trkpt>
      <trkpt lat="46.49187" lon="6.05141">
        <ele>1148.8</ele>
        <time>2021-08-19T08:40:57Z</time>
      </trkpt>
      <trkpt lat="46.49186" lon="6.05141">
        <ele>1148.7</ele>
        <time>2021-08-19T08:40:58Z</time>
      </trkpt>
      <trkpt lat="46.49185" lon="6.05146">
        <ele>1148.3</ele>
        <time>2021-08-19T08:40:59Z</time>
      </trkpt>
      <trkpt lat="46.49186" lon="6.05155">
        <ele>1147.7</ele>
        <time>2021-08-19T08:41:01Z</time>
      </trkpt>
      <trkpt lat="46.49189" lon="6.0516">
        <ele>1147.3</ele>
        <time>2021-08-19T08:41:02Z</time>
      </trkpt>
      <trkpt lat="46.49194" lon="6.05163">
        <ele>1146.7</ele>
        <time>2021-08-19T08:41:03Z</time>
      </trkpt>
      <trkpt lat="46.49191" lon="6.05157">
        <ele>1146.2</ele>
        <time>2021-08-19T08:41:05Z</time>
      </trkpt>
      <trkpt lat="46.49187" lon="6.05155">
        <ele>1145.8</ele>
        <time>2021-08-19T08:41:06Z</time>
      </trkpt>
      <trkpt lat="46.49184" lon="6.0516">
        <ele>1145.5</ele>
        <time>2021-08-19T08:41:07Z</time>
      </trkpt>
      <trkpt lat="46.49182" lon="6.05163">
        <ele>1145.2</ele>
        <time>2021-08-19T08:41:09Z</time>
      </trkpt>
      <trkpt lat="46.49181" lon="6.05166">
        <ele>1145</ele>
        <time>2021-08-19T08:41:10Z</time>
      </trkpt>
      <trkpt lat="46.49179" lon="6.05169">
        <ele>1144.8</ele>
        <time>2021-08-19T08:41:11Z</time>
      </trkpt>
      <trkpt lat="46.49174" lon="6.05181">
        <ele>1144.1</ele>
        <time>2021-08-19T08:41:13Z</time>
      </trkpt>
      <trkpt lat="46.49171" lon="6.05184">
        <ele>1143.9</ele>
        <time>2021-08-19T08:41:14Z</time>
      </trkpt>
      <trkpt lat="46.49129" lon="6.05227">
        <ele>1140.5</ele>
        <time>2021-08-19T08:41:27Z</time>
      </trkpt>
      <trkpt lat="46.49101" lon="6.05222">
        <ele>1139</ele>
        <time>2021-08-19T08:41:28Z</time>
      </trkpt>
      <trkpt lat="46.49095" lon="6.05222">
        <ele>1138.7</ele>
        <time>2021-08-19T08:41:30Z</time>
      </trkpt>
      <trkpt lat="46.49091" lon="6.05221">
        <ele>1138.4</ele>
        <time>2021-08-19T08:41:31Z</time>
      </trkpt>
      <trkpt lat="46.49088" lon="6.05224">
        <ele>1138.1</ele>
        <time>2021-08-19T08:41:33Z</time>
      </trkpt>
      <trkpt lat="46.49087" lon="6.05226">
        <ele>1138</ele>
        <time>2021-08-19T08:41:34Z</time>
      </trkpt>
      <trkpt lat="46.49086" lon="6.05231">
        <ele>1137.7</ele>
        <time>2021-08-19T08:41:35Z</time>
      </trkpt>
      <trkpt lat="46.49088" lon="6.05236">
        <ele>1137.4</ele>
        <time>2021-08-19T08:41:37Z</time>
      </trkpt>
      <trkpt lat="46.4909" lon="6.05238">
        <ele>1137.2</ele>
        <time>2021-08-19T08:41:38Z</time>
      </trkpt>
      <trkpt lat="46.49092" lon="6.05239">
        <ele>1137</ele>
        <time>2021-08-19T08:41:39Z</time>
      </trkpt>
      <trkpt lat="46.49093" lon="6.0524">
        <ele>1136.9</ele>
        <time>2021-08-19T08:41:40Z</time>
      </trkpt>
      <trkpt lat="46.49093" lon="6.05241">
        <ele>1136.9</ele>
        <time>2021-08-19T08:41:42Z</time>
      </trkpt>
      <trkpt lat="46.49093" lon="6.05242">
        <ele>1136.8</ele>
        <time>2021-08-19T08:41:43Z</time>
      </trkpt>
      <trkpt lat="46.49094" lon="6.05243">
        <ele>1136.7</ele>
        <time>2021-08-19T08:41:45Z</time>
      </trkpt>
      <trkpt lat="46.49093" lon="6.05244">
        <ele>1136.7</ele>
        <time>2021-08-19T08:41:46Z</time>
      </trkpt>
      <trkpt lat="46.49092" lon="6.0525">
        <ele>1136.3</ele>
        <time>2021-08-19T08:41:47Z</time>
      </trkpt>
      <trkpt lat="46.49092" lon="6.05255">
        <ele>1136</ele>
        <time>2021-08-19T08:41:50Z</time>
      </trkpt>
      <trkpt lat="46.49091" lon="6.0526">
        <ele>1135.6</ele>
        <time>2021-08-19T08:41:51Z</time>
      </trkpt>
      <trkpt lat="46.49087" lon="6.05274">
        <ele>1134.6</ele>
        <time>2021-08-19T08:41:56Z</time>
      </trkpt>
      <trkpt lat="46.49081" lon="6.05281">
        <ele>1133.8</ele>
        <time>2021-08-19T08:42:00Z</time>
      </trkpt>
      <trkpt lat="46.49072" lon="6.05279">
        <ele>1132.8</ele>
        <time>2021-08-19T08:42:03Z</time>
      </trkpt>
      <trkpt lat="46.49063" lon="6.05281">
        <ele>1131.6</ele>
        <time>2021-08-19T08:42:06Z</time>
      </trkpt>
      <trkpt lat="46.49056" lon="6.05284">
        <ele>1130.7</ele>
        <time>2021-08-19T08:42:07Z</time>
      </trkpt>
      <trkpt lat="46.49052" lon="6.05286">
        <ele>1130</ele>
        <time>2021-08-19T08:42:09Z</time>
      </trkpt>
      <trkpt lat="46.49048" lon="6.05288">
        <ele>1129.5</ele>
        <time>2021-08-19T08:42:10Z</time>
      </trkpt>
      <trkpt lat="46.49047" lon="6.0529">
        <ele>1129.2</ele>
        <time>2021-08-19T08:42:11Z</time>
      </trkpt>
      <trkpt lat="46.49046" lon="6.05292">
        <ele>1129</ele>
        <time>2021-08-19T08:42:13Z</time>
      </trkpt>
      <trkpt lat="46.49045" lon="6.05294">
        <ele>1128.7</ele>
        <time>2021-08-19T08:42:14Z</time>
      </trkpt>
      <trkpt lat="46.49045" lon="6.05295">
        <ele>1128.5</ele>
        <time>2021-08-19T08:42:15Z</time>
      </trkpt>
      <trkpt lat="46.49043" lon="6.053">
        <ele>1128</ele>
        <time>2021-08-19T08:42:17Z</time>
      </trkpt>
      <trkpt lat="46.49044" lon="6.05304">
        <ele>1127.6</ele>
        <time>2021-08-19T08:42:18Z</time>
      </trkpt>
      <trkpt lat="46.49048" lon="6.05306">
        <ele>1127</ele>
        <time>2021-08-19T08:42:19Z</time>
      </trkpt>
      <trkpt lat="46.49051" lon="6.05303">
        <ele>1126.6</ele>
        <time>2021-08-19T08:42:20Z</time>
      </trkpt>
      <trkpt lat="46.49049" lon="6.05297">
        <ele>1126.1</ele>
        <time>2021-08-19T08:42:22Z</time>
      </trkpt>
      <trkpt lat="46.49043" lon="6.05291">
        <ele>1125.4</ele>
        <time>2021-08-19T08:42:24Z</time>
      </trkpt>
      <trkpt lat="46.49038" lon="6.05287">
        <ele>1124.8</ele>
        <time>2021-08-19T08:42:25Z</time>
      </trkpt>
      <trkpt lat="46.49034" lon="6.05284">
        <ele>1124.1</ele>
        <time>2021-08-19T08:42:26Z</time>
      </trkpt>
      <trkpt lat="46.49031" lon="6.05279">
        <ele>1123.8</ele>
        <time>2021-08-19T08:42:27Z</time>
      </trkpt>
      <trkpt lat="46.49032" lon="6.05271">
        <ele>1123.4</ele>
        <time>2021-08-19T08:42:29Z</time>
      </trkpt>
      <trkpt lat="46.49028" lon="6.05267">
        <ele>1123</ele>
        <time>2021-08-19T08:42:30Z</time>
      </trkpt>
      <trkpt lat="46.49026" lon="6.05263">
        <ele>1122.7</ele>
        <time>2021-08-19T08:42:31Z</time>
      </trkpt>
      <trkpt lat="46.49024" lon="6.05258">
        <ele>1122.3</ele>
        <time>2021-08-19T08:42:32Z</time>
      </trkpt>
      <trkpt lat="46.49018" lon="6.05254">
        <ele>1121.7</ele>
        <time>2021-08-19T08:42:34Z</time>
      </trkpt>
      <trkpt lat="46.49016" lon="6.05252">
        <ele>1121.3</ele>
        <time>2021-08-19T08:42:35Z</time>
      </trkpt>
      <trkpt lat="46.49014" lon="6.05251">
        <ele>1121.2</ele>
        <time>2021-08-19T08:42:36Z</time>
      </trkpt>
      <trkpt lat="46.49005" lon="6.05248">
        <ele>1120.1</ele>
        <time>2021-08-19T08:42:38Z</time>
      </trkpt>
      <trkpt lat="46.48999" lon="6.05241">
        <ele>1119.3</ele>
        <time>2021-08-19T08:42:39Z</time>
      </trkpt>
      <trkpt lat="46.49" lon="6.05243">
        <ele>1119.1</ele>
        <time>2021-08-19T08:42:40Z</time>
      </trkpt>
      <trkpt lat="46.49002" lon="6.05238">
        <ele>1118.7</ele>
        <time>2021-08-19T08:42:42Z</time>
      </trkpt>
      <trkpt lat="46.48999" lon="6.05233">
        <ele>1118.1</ele>
        <time>2021-08-19T08:42:43Z</time>
      </trkpt>
      <trkpt lat="46.48995" lon="6.05232">
        <ele>1117.6</ele>
        <time>2021-08-19T08:42:44Z</time>
      </trkpt>
      <trkpt lat="46.48989" lon="6.0523">
        <ele>1116.8</ele>
        <time>2021-08-19T08:42:46Z</time>
      </trkpt>
      <trkpt lat="46.48987" lon="6.05228">
        <ele>1116.4</ele>
        <time>2021-08-19T08:42:47Z</time>
      </trkpt>
      <trkpt lat="46.48986" lon="6.05228">
        <ele>1116.3</ele>
        <time>2021-08-19T08:42:48Z</time>
      </trkpt>
      <trkpt lat="46.48983" lon="6.05228">
        <ele>1115.7</ele>
        <time>2021-08-19T08:42:50Z</time>
      </trkpt>
      <trkpt lat="46.48982" lon="6.05227">
        <ele>1115.6</ele>
        <time>2021-08-19T08:42:51Z</time>
      </trkpt>
      <trkpt lat="46.48983" lon="6.05226">
        <ele>1115.3</ele>
        <time>2021-08-19T08:42:52Z</time>
      </trkpt>
      <trkpt lat="46.48987" lon="6.05224">
        <ele>1114.6</ele>
        <time>2021-08-19T08:42:54Z</time>
      </trkpt>
      <trkpt lat="46.48987" lon="6.05224">
        <ele>1114.6</ele>
        <time>2021-08-19T08:42:55Z</time>
      </trkpt>
      <trkpt lat="46.48987" lon="6.05224">
        <ele>1114.5</ele>
        <time>2021-08-19T08:42:56Z</time>
      </trkpt>
      <trkpt lat="46.48988" lon="6.05225">
        <ele>1114.4</ele>
        <time>2021-08-19T08:42:57Z</time>
      </trkpt>
      <trkpt lat="46.48988" lon="6.05225">
        <ele>1114.4</ele>
        <time>2021-08-19T08:42:59Z</time>
      </trkpt>
      <trkpt lat="46.48987" lon="6.05223">
        <ele>1114.1</ele>
        <time>2021-08-19T08:43:00Z</time>
      </trkpt>
      <trkpt lat="46.48985" lon="6.0522">
        <ele>1113.6</ele>
        <time>2021-08-19T08:43:01Z</time>
      </trkpt>
      <trkpt lat="46.48983" lon="6.05216">
        <ele>1113.1</ele>
        <time>2021-08-19T08:43:04Z</time>
      </trkpt>
      <trkpt lat="46.48986" lon="6.05209">
        <ele>1112.2</ele>
        <time>2021-08-19T08:43:05Z</time>
      </trkpt>
      <trkpt lat="46.48989" lon="6.05198">
        <ele>1110.9</ele>
        <time>2021-08-19T08:43:07Z</time>
      </trkpt>
      <trkpt lat="46.48988" lon="6.05191">
        <ele>1110</ele>
        <time>2021-08-19T08:43:08Z</time>
      </trkpt>
      <trkpt lat="46.48984" lon="6.05184">
        <ele>1109</ele>
        <time>2021-08-19T08:43:10Z</time>
      </trkpt>
      <trkpt lat="46.48982" lon="6.05182">
        <ele>1108.5</ele>
        <time>2021-08-19T08:43:11Z</time>
      </trkpt>
      <trkpt lat="46.48977" lon="6.05177">
        <ele>1107.6</ele>
        <time>2021-08-19T08:43:12Z</time>
      </trkpt>
      <trkpt lat="46.48973" lon="6.0517">
        <ele>1106.5</ele>
        <time>2021-08-19T08:43:14Z</time>
      </trkpt>
      <trkpt lat="46.48971" lon="6.05167">
        <ele>1106</ele>
        <time>2021-08-19T08:43:15Z</time>
      </trkpt>
      <trkpt lat="46.48967" lon="6.05168">
        <ele>1105.3</ele>
        <time>2021-08-19T08:43:17Z</time>
      </trkpt>
      <trkpt lat="46.48968" lon="6.05163">
        <ele>1104.7</ele>
        <time>2021-08-19T08:43:18Z</time>
      </trkpt>
      <trkpt lat="46.4897" lon="6.05159">
        <ele>1104.2</ele>
        <time>2021-08-19T08:43:19Z</time>
      </trkpt>
      <trkpt lat="46.48972" lon="6.05156">
        <ele>1103.6</ele>
        <time>2021-08-19T08:43:21Z</time>
      </trkpt>
      <trkpt lat="46.48973" lon="6.05155">
        <ele>1103.4</ele>
        <time>2021-08-19T08:43:22Z</time>
      </trkpt>
      <trkpt lat="46.48974" lon="6.05152">
        <ele>1102.9</ele>
        <time>2021-08-19T08:43:23Z</time>
      </trkpt>
      <trkpt lat="46.48974" lon="6.05144">
        <ele>1102</ele>
        <time>2021-08-19T08:43:25Z</time>
      </trkpt>
      <trkpt lat="46.48974" lon="6.0514">
        <ele>1101.4</ele>
        <time>2021-08-19T08:43:26Z</time>
      </trkpt>
      <trkpt lat="46.48974" lon="6.05139">
        <ele>1101.2</ele>
        <time>2021-08-19T08:43:28Z</time>
      </trkpt>
      <trkpt lat="46.48975" lon="6.05138">
        <ele>1101.1</ele>
        <time>2021-08-19T08:43:29Z</time>
      </trkpt>
      <trkpt lat="46.48975" lon="6.05137">
        <ele>1101</ele>
        <time>2021-08-19T08:43:30Z</time>
      </trkpt>
      <trkpt lat="46.48974" lon="6.05137">
        <ele>1100.9</ele>
        <time>2021-08-19T08:43:31Z</time>
      </trkpt>
      <trkpt lat="46.48973" lon="6.05136">
        <ele>1100.6</ele>
        <time>2021-08-19T08:43:32Z</time>
      </trkpt>
      <trkpt lat="46.48971" lon="6.05135">
        <ele>1100.3</ele>
        <time>2021-08-19T08:43:33Z</time>
      </trkpt>
      <trkpt lat="46.4897" lon="6.05132">
        <ele>1099.8</ele>
        <time>2021-08-19T08:43:35Z</time>
      </trkpt>
      <trkpt lat="46.4897" lon="6.05132">
        <ele>1099.8</ele>
        <time>2021-08-19T08:43:35Z</time>
      </trkpt>
      <trkpt lat="46.48968" lon="6.05128">
        <ele>1099.1</ele>
        <time>2021-08-19T08:43:36Z</time>
      </trkpt>
      <trkpt lat="46.48968" lon="6.05127">
        <ele>1098.9</ele>
        <time>2021-08-19T08:43:37Z</time>
      </trkpt>
      <trkpt lat="46.48966" lon="6.05123">
        <ele>1098.2</ele>
        <time>2021-08-19T08:43:38Z</time>
      </trkpt>
      <trkpt lat="46.48965" lon="6.0512">
        <ele>1097.7</ele>
        <time>2021-08-19T08:43:39Z</time>
      </trkpt>
      <trkpt lat="46.48963" lon="6.05119">
        <ele>1097.3</ele>
        <time>2021-08-19T08:43:41Z</time>
      </trkpt>
      <trkpt lat="46.4896" lon="6.05117">
        <ele>1096.5</ele>
        <time>2021-08-19T08:43:43Z</time>
      </trkpt>
      <trkpt lat="46.48958" lon="6.05117">
        <ele>1096.2</ele>
        <time>2021-08-19T08:43:44Z</time>
      </trkpt>
      <trkpt lat="46.48956" lon="6.05115">
        <ele>1095.7</ele>
        <time>2021-08-19T08:43:46Z</time>
      </trkpt>
      <trkpt lat="46.48954" lon="6.05114">
        <ele>1095.2</ele>
        <time>2021-08-19T08:43:47Z</time>
      </trkpt>
      <trkpt lat="46.48953" lon="6.05113">
        <ele>1094.8</ele>
        <time>2021-08-19T08:43:49Z</time>
      </trkpt>
      <trkpt lat="46.48908" lon="6.05124">
        <ele>1084.6</ele>
        <time>2021-08-19T08:44:43Z</time>
      </trkpt>
      <trkpt lat="46.48908" lon="6.05122">
        <ele>1084.2</ele>
        <time>2021-08-19T08:44:44Z</time>
      </trkpt>
      <trkpt lat="46.48907" lon="6.05119">
        <ele>1083.8</ele>
        <time>2021-08-19T08:44:45Z</time>
      </trkpt>
      <trkpt lat="46.48907" lon="6.05116">
        <ele>1083.4</ele>
        <time>2021-08-19T08:44:46Z</time>
      </trkpt>
      <trkpt lat="46.48907" lon="6.05114">
        <ele>1083.2</ele>
        <time>2021-08-19T08:44:48Z</time>
      </trkpt>
      <trkpt lat="46.48907" lon="6.05114">
        <ele>1083.1</ele>
        <time>2021-08-19T08:44:49Z</time>
      </trkpt>
      <trkpt lat="46.48906" lon="6.05114">
        <ele>1083.1</ele>
        <time>2021-08-19T08:44:51Z</time>
      </trkpt>
      <trkpt lat="46.48906" lon="6.05114">
        <ele>1083.1</ele>
        <time>2021-08-19T08:44:53Z</time>
      </trkpt>
      <trkpt lat="46.48906" lon="6.05114">
        <ele>1083</ele>
        <time>2021-08-19T08:44:54Z</time>
      </trkpt>
      <trkpt lat="46.48906" lon="6.05114">
        <ele>1083</ele>
        <time>2021-08-19T08:44:55Z</time>
      </trkpt>
      <trkpt lat="46.48905" lon="6.05112">
        <ele>1082.6</ele>
        <time>2021-08-19T08:44:57Z</time>
      </trkpt>
      <trkpt lat="46.48904" lon="6.05111">
        <ele>1082.4</ele>
        <time>2021-08-19T08:44:58Z</time>
      </trkpt>
      <trkpt lat="46.48903" lon="6.05111">
        <ele>1082.2</ele>
        <time>2021-08-19T08:45:00Z</time>
      </trkpt>
      <trkpt lat="46.48903" lon="6.05111">
        <ele>1082.1</ele>
        <time>2021-08-19T08:45:01Z</time>
      </trkpt>
      <trkpt lat="46.48902" lon="6.0511">
        <ele>1082</ele>
        <time>2021-08-19T08:45:02Z</time>
      </trkpt>
      <trkpt lat="46.48902" lon="6.0511">
        <ele>1081.9</ele>
        <time>2021-08-19T08:45:04Z</time>
      </trkpt>
      <trkpt lat="46.48902" lon="6.0511">
        <ele>1081.9</ele>
        <time>2021-08-19T08:45:05Z</time>
      </trkpt>
      <trkpt lat="46.48901" lon="6.0511">
        <ele>1081.8</ele>
        <time>2021-08-19T08:45:06Z</time>
      </trkpt>
      <trkpt lat="46.489" lon="6.0511">
        <ele>1081.6</ele>
        <time>2021-08-19T08:45:08Z</time>
      </trkpt>
      <trkpt lat="46.48885" lon="6.05123">
        <ele>1080.8</ele>
        <time>2021-08-19T08:45:13Z</time>
      </trkpt>
      <trkpt lat="46.48879" lon="6.05135">
        <ele>1080.1</ele>
        <time>2021-08-19T08:45:14Z</time>
      </trkpt>
      <trkpt lat="46.48874" lon="6.05159">
        <ele>1078.9</ele>
        <time>2021-08-19T08:45:16Z</time>
      </trkpt>
      <trkpt lat="46.48873" lon="6.05171">
        <ele>1078.4</ele>
        <time>2021-08-19T08:45:17Z</time>
      </trkpt>
      <trkpt lat="46.48871" lon="6.05194">
        <ele>1077.3</ele>
        <time>2021-08-19T08:45:19Z</time>
      </trkpt>
      <trkpt lat="46.48872" lon="6.05218">
        <ele>1077.1</ele>
        <time>2021-08-19T08:45:21Z</time>
      </trkpt>
      <trkpt lat="46.48873" lon="6.0523">
        <ele>1077</ele>
        <time>2021-08-19T08:45:22Z</time>
      </trkpt>
      <trkpt lat="46.48876" lon="6.05241">
        <ele>1077</ele>
        <time>2021-08-19T08:45:23Z</time>
      </trkpt>
      <trkpt lat="46.4888" lon="6.05263">
        <ele>1077</ele>
        <time>2021-08-19T08:45:25Z</time>
      </trkpt>
      <trkpt lat="46.48881" lon="6.05272">
        <ele>1077.1</ele>
        <time>2021-08-19T08:45:26Z</time>
      </trkpt>
      <trkpt lat="46.48881" lon="6.05282">
        <ele>1077.2</ele>
        <time>2021-08-19T08:45:27Z</time>
      </trkpt>
      <trkpt lat="46.4888" lon="6.05299">
        <ele>1077.4</ele>
        <time>2021-08-19T08:45:29Z</time>
      </trkpt>
      <trkpt lat="46.48878" lon="6.05313">
        <ele>1077.6</ele>
        <time>2021-08-19T08:45:31Z</time>
      </trkpt>
      <trkpt lat="46.48876" lon="6.05327">
        <ele>1077.9</ele>
        <time>2021-08-19T08:45:33Z</time>
      </trkpt>
      <trkpt lat="46.48874" lon="6.05333">
        <ele>1078</ele>
        <time>2021-08-19T08:45:34Z</time>
      </trkpt>
      <trkpt lat="46.48871" lon="6.05342">
        <ele>1078.2</ele>
        <time>2021-08-19T08:45:36Z</time>
      </trkpt>
      <trkpt lat="46.48869" lon="6.05347">
        <ele>1078.3</ele>
        <time>2021-08-19T08:45:37Z</time>
      </trkpt>
      <trkpt lat="46.48865" lon="6.05358">
        <ele>1078.5</ele>
        <time>2021-08-19T08:45:39Z</time>
      </trkpt>
      <trkpt lat="46.48863" lon="6.05363">
        <ele>1078.7</ele>
        <time>2021-08-19T08:45:40Z</time>
      </trkpt>
      <trkpt lat="46.48861" lon="6.05368">
        <ele>1078.8</ele>
        <time>2021-08-19T08:45:41Z</time>
      </trkpt>
      <trkpt lat="46.4886" lon="6.05374">
        <ele>1078.9</ele>
        <time>2021-08-19T08:45:42Z</time>
      </trkpt>
      <trkpt lat="46.48856" lon="6.05375">
        <ele>1079.1</ele>
        <time>2021-08-19T08:45:44Z</time>
      </trkpt>
      <trkpt lat="46.48854" lon="6.05378">
        <ele>1079.2</ele>
        <time>2021-08-19T08:45:45Z</time>
      </trkpt>
      <trkpt lat="46.48853" lon="6.05385">
        <ele>1079.3</ele>
        <time>2021-08-19T08:45:46Z</time>
      </trkpt>
      <trkpt lat="46.48853" lon="6.05394">
        <ele>1079.5</ele>
        <time>2021-08-19T08:45:48Z</time>
      </trkpt>
      <trkpt lat="46.48851" lon="6.05401">
        <ele>1079.7</ele>
        <time>2021-08-19T08:45:49Z</time>
      </trkpt>
      <trkpt lat="46.48849" lon="6.0541">
        <ele>1080</ele>
        <time>2021-08-19T08:45:51Z</time>
      </trkpt>
      <trkpt lat="46.48849" lon="6.05415">
        <ele>1080.2</ele>
        <time>2021-08-19T08:45:52Z</time>
      </trkpt>
      <trkpt lat="46.48849" lon="6.05421">
        <ele>1080.4</ele>
        <time>2021-08-19T08:45:53Z</time>
      </trkpt>
      <trkpt lat="46.4885" lon="6.05425">
        <ele>1080.5</ele>
        <time>2021-08-19T08:45:54Z</time>
      </trkpt>
      <trkpt lat="46.4885" lon="6.0543">
        <ele>1080.7</ele>
        <time>2021-08-19T08:45:55Z</time>
      </trkpt>
      <trkpt lat="46.4885" lon="6.05434">
        <ele>1080.8</ele>
        <time>2021-08-19T08:45:56Z</time>
      </trkpt>
      <trkpt lat="46.48849" lon="6.05443">
        <ele>1081.1</ele>
        <time>2021-08-19T08:45:58Z</time>
      </trkpt>
      <trkpt lat="46.48848" lon="6.05446">
        <ele>1081.3</ele>
        <time>2021-08-19T08:45:59Z</time>
      </trkpt>
      <trkpt lat="46.48845" lon="6.05454">
        <ele>1081.6</ele>
        <time>2021-08-19T08:46:01Z</time>
      </trkpt>
      <trkpt lat="46.48843" lon="6.05459">
        <ele>1081.8</ele>
        <time>2021-08-19T08:46:02Z</time>
      </trkpt>
      <trkpt lat="46.48843" lon="6.05461">
        <ele>1081.8</ele>
        <time>2021-08-19T08:46:03Z</time>
      </trkpt>
      <trkpt lat="46.48842" lon="6.05465">
        <ele>1082</ele>
        <time>2021-08-19T08:46:05Z</time>
      </trkpt>
      <trkpt lat="46.48842" lon="6.05468">
        <ele>1082.1</ele>
        <time>2021-08-19T08:46:06Z</time>
      </trkpt>
      <trkpt lat="46.48841" lon="6.05472">
        <ele>1082.2</ele>
        <time>2021-08-19T08:46:08Z</time>
      </trkpt>
      <trkpt lat="46.48838" lon="6.05476">
        <ele>1082.4</ele>
        <time>2021-08-19T08:46:09Z</time>
      </trkpt>
      <trkpt lat="46.48837" lon="6.05478">
        <ele>1082.5</ele>
        <time>2021-08-19T08:46:10Z</time>
      </trkpt>
      <trkpt lat="46.48833" lon="6.05482">
        <ele>1082.7</ele>
        <time>2021-08-19T08:46:12Z</time>
      </trkpt>
      <trkpt lat="46.48829" lon="6.05488">
        <ele>1082.9</ele>
        <time>2021-08-19T08:46:14Z</time>
      </trkpt>
      <trkpt lat="46.48825" lon="6.05499">
        <ele>1083.2</ele>
        <time>2021-08-19T08:46:16Z</time>
      </trkpt>
      <trkpt lat="46.48824" lon="6.05504">
        <ele>1083.3</ele>
        <time>2021-08-19T08:46:17Z</time>
      </trkpt>
      <trkpt lat="46.48823" lon="6.05513">
        <ele>1083.4</ele>
        <time>2021-08-19T08:46:19Z</time>
      </trkpt>
      <trkpt lat="46.48824" lon="6.05519">
        <ele>1083.5</ele>
        <time>2021-08-19T08:46:20Z</time>
      </trkpt>
      <trkpt lat="46.48826" lon="6.05523">
        <ele>1083.6</ele>
        <time>2021-08-19T08:46:21Z</time>
      </trkpt>
      <trkpt lat="46.48829" lon="6.05527">
        <ele>1083.8</ele>
        <time>2021-08-19T08:46:23Z</time>
      </trkpt>
      <trkpt lat="46.48832" lon="6.0553">
        <ele>1083.9</ele>
        <time>2021-08-19T08:46:24Z</time>
      </trkpt>
      <trkpt lat="46.48836" lon="6.05535">
        <ele>1084.1</ele>
        <time>2021-08-19T08:46:26Z</time>
      </trkpt>
      <trkpt lat="46.48838" lon="6.05539">
        <ele>1084.2</ele>
        <time>2021-08-19T08:46:27Z</time>
      </trkpt>
      <trkpt lat="46.48838" lon="6.05541">
        <ele>1084.2</ele>
        <time>2021-08-19T08:46:28Z</time>
      </trkpt>
      <trkpt lat="46.48839" lon="6.05548">
        <ele>1084.4</ele>
        <time>2021-08-19T08:46:30Z</time>
      </trkpt>
      <trkpt lat="46.4884" lon="6.05557">
        <ele>1084.6</ele>
        <time>2021-08-19T08:46:32Z</time>
      </trkpt>
      <trkpt lat="46.48842" lon="6.05567">
        <ele>1084.8</ele>
        <time>2021-08-19T08:46:34Z</time>
      </trkpt>
      <trkpt lat="46.48845" lon="6.05577">
        <ele>1084.9</ele>
        <time>2021-08-19T08:46:36Z</time>
      </trkpt>
      <trkpt lat="46.48848" lon="6.05583">
        <ele>1085</ele>
        <time>2021-08-19T08:46:37Z</time>
      </trkpt>
      <trkpt lat="46.48849" lon="6.05588">
        <ele>1085.1</ele>
        <time>2021-08-19T08:46:38Z</time>
      </trkpt>
      <trkpt lat="46.4885" lon="6.05592">
        <ele>1085.1</ele>
        <time>2021-08-19T08:46:39Z</time>
      </trkpt>
      <trkpt lat="46.48851" lon="6.05599">
        <ele>1085.2</ele>
        <time>2021-08-19T08:46:40Z</time>
      </trkpt>
      <trkpt lat="46.48853" lon="6.05607">
        <ele>1085.3</ele>
        <time>2021-08-19T08:46:42Z</time>
      </trkpt>
      <trkpt lat="46.48853" lon="6.05616">
        <ele>1085.4</ele>
        <time>2021-08-19T08:46:44Z</time>
      </trkpt>
      <trkpt lat="46.48855" lon="6.05623">
        <ele>1085.4</ele>
        <time>2021-08-19T08:46:45Z</time>
      </trkpt>
      <trkpt lat="46.48858" lon="6.0563">
        <ele>1085.4</ele>
        <time>2021-08-19T08:46:47Z</time>
      </trkpt>
      <trkpt lat="46.48859" lon="6.05636">
        <ele>1085.5</ele>
        <time>2021-08-19T08:46:48Z</time>
      </trkpt>
      <trkpt lat="46.48859" lon="6.05647">
        <ele>1085.4</ele>
        <time>2021-08-19T08:46:50Z</time>
      </trkpt>
      <trkpt lat="46.48859" lon="6.05654">
        <ele>1085.4</ele>
        <time>2021-08-19T08:46:51Z</time>
      </trkpt>
      <trkpt lat="46.48859" lon="6.0566">
        <ele>1085.4</ele>
        <time>2021-08-19T08:46:53Z</time>
      </trkpt>
      <trkpt lat="46.48859" lon="6.05666">
        <ele>1085.3</ele>
        <time>2021-08-19T08:46:54Z</time>
      </trkpt>
      <trkpt lat="46.4886" lon="6.05672">
        <ele>1085.3</ele>
        <time>2021-08-19T08:46:55Z</time>
      </trkpt>
      <trkpt lat="46.4886" lon="6.05678">
        <ele>1085.2</ele>
        <time>2021-08-19T08:46:56Z</time>
      </trkpt>
      <trkpt lat="46.48861" lon="6.05684">
        <ele>1085.2</ele>
        <time>2021-08-19T08:46:57Z</time>
      </trkpt>
      <trkpt lat="46.48862" lon="6.05689">
        <ele>1085.1</ele>
        <time>2021-08-19T08:46:58Z</time>
      </trkpt>
      <trkpt lat="46.48864" lon="6.05699">
        <ele>1085.1</ele>
        <time>2021-08-19T08:47:00Z</time>
      </trkpt>
      <trkpt lat="46.48863" lon="6.05702">
        <ele>1085.1</ele>
        <time>2021-08-19T08:47:01Z</time>
      </trkpt>
      <trkpt lat="46.48859" lon="6.05706">
        <ele>1085.1</ele>
        <time>2021-08-19T08:47:03Z</time>
      </trkpt>
      <trkpt lat="46.48857" lon="6.05709">
        <ele>1085.1</ele>
        <time>2021-08-19T08:47:04Z</time>
      </trkpt>
      <trkpt lat="46.48857" lon="6.0571">
        <ele>1085.1</ele>
        <time>2021-08-19T08:47:06Z</time>
      </trkpt>
      <trkpt lat="46.48856" lon="6.05712">
        <ele>1085.1</ele>
        <time>2021-08-19T08:47:07Z</time>
      </trkpt>
      <trkpt lat="46.48855" lon="6.05713">
        <ele>1085.1</ele>
        <time>2021-08-19T08:47:08Z</time>
      </trkpt>
      <trkpt lat="46.48854" lon="6.05717">
        <ele>1085.1</ele>
        <time>2021-08-19T08:47:10Z</time>
      </trkpt>
      <trkpt lat="46.48854" lon="6.05723">
        <ele>1085.2</ele>
        <time>2021-08-19T08:47:11Z</time>
      </trkpt>
      <trkpt lat="46.48854" lon="6.05726">
        <ele>1085.3</ele>
        <time>2021-08-19T08:47:12Z</time>
      </trkpt>
      <trkpt lat="46.48855" lon="6.05732">
        <ele>1085.4</ele>
        <time>2021-08-19T08:47:14Z</time>
      </trkpt>
      <trkpt lat="46.48856" lon="6.05737">
        <ele>1085.5</ele>
        <time>2021-08-19T08:47:16Z</time>
      </trkpt>
      <trkpt lat="46.48857" lon="6.05738">
        <ele>1085.6</ele>
        <time>2021-08-19T08:47:17Z</time>
      </trkpt>
      <trkpt lat="46.48859" lon="6.05739">
        <ele>1085.7</ele>
        <time>2021-08-19T08:47:18Z</time>
      </trkpt>
      <trkpt lat="46.48859" lon="6.05741">
        <ele>1085.7</ele>
        <time>2021-08-19T08:47:19Z</time>
      </trkpt>
      <trkpt lat="46.48859" lon="6.05742">
        <ele>1085.8</ele>
        <time>2021-08-19T08:47:20Z</time>
      </trkpt>
      <trkpt lat="46.4886" lon="6.05745">
        <ele>1085.8</ele>
        <time>2021-08-19T08:47:22Z</time>
      </trkpt>
      <trkpt lat="46.48861" lon="6.05749">
        <ele>1085.9</ele>
        <time>2021-08-19T08:47:23Z</time>
      </trkpt>
      <trkpt lat="46.48861" lon="6.0575">
        <ele>1086</ele>
        <time>2021-08-19T08:47:24Z</time>
      </trkpt>
      <trkpt lat="46.48861" lon="6.05753">
        <ele>1086</ele>
        <time>2021-08-19T08:47:25Z</time>
      </trkpt>
      <trkpt lat="46.48863" lon="6.05757">
        <ele>1086.1</ele>
        <time>2021-08-19T08:47:27Z</time>
      </trkpt>
      <trkpt lat="46.48864" lon="6.0576">
        <ele>1086.2</ele>
        <time>2021-08-19T08:47:28Z</time>
      </trkpt>
      <trkpt lat="46.48866" lon="6.05766">
        <ele>1086.4</ele>
        <time>2021-08-19T08:47:29Z</time>
      </trkpt>
      <trkpt lat="46.48866" lon="6.05768">
        <ele>1086.4</ele>
        <time>2021-08-19T08:47:30Z</time>
      </trkpt>
      <trkpt lat="46.48867" lon="6.05773">
        <ele>1086.5</ele>
        <time>2021-08-19T08:47:32Z</time>
      </trkpt>
      <trkpt lat="46.48867" lon="6.05778">
        <ele>1086.6</ele>
        <time>2021-08-19T08:47:33Z</time>
      </trkpt>
      <trkpt lat="46.48866" lon="6.05781">
        <ele>1086.7</ele>
        <time>2021-08-19T08:47:34Z</time>
      </trkpt>
      <trkpt lat="46.48866" lon="6.05789">
        <ele>1086.8</ele>
        <time>2021-08-19T08:47:36Z</time>
      </trkpt>
      <trkpt lat="46.48866" lon="6.05794">
        <ele>1086.9</ele>
        <time>2021-08-19T08:47:37Z</time>
      </trkpt>
      <trkpt lat="46.48866" lon="6.05799">
        <ele>1087</ele>
        <time>2021-08-19T08:47:38Z</time>
      </trkpt>
      <trkpt lat="46.48867" lon="6.05806">
        <ele>1087.1</ele>
        <time>2021-08-19T08:47:40Z</time>
      </trkpt>
      <trkpt lat="46.48868" lon="6.05813">
        <ele>1087.2</ele>
        <time>2021-08-19T08:47:41Z</time>
      </trkpt>
      <trkpt lat="46.48868" lon="6.05819">
        <ele>1087.2</ele>
        <time>2021-08-19T08:47:43Z</time>
      </trkpt>
      <trkpt lat="46.48868" lon="6.05824">
        <ele>1087.2</ele>
        <time>2021-08-19T08:47:44Z</time>
      </trkpt>
      <trkpt lat="46.48868" lon="6.0583">
        <ele>1087.3</ele>
        <time>2021-08-19T08:47:45Z</time>
      </trkpt>
      <trkpt lat="46.48868" lon="6.05835">
        <ele>1087.3</ele>
        <time>2021-08-19T08:47:46Z</time>
      </trkpt>
      <trkpt lat="46.48869" lon="6.05844">
        <ele>1087.5</ele>
        <time>2021-08-19T08:47:48Z</time>
      </trkpt>
      <trkpt lat="46.4887" lon="6.05851">
        <ele>1087.7</ele>
        <time>2021-08-19T08:47:50Z</time>
      </trkpt>
      <trkpt lat="46.4887" lon="6.05855">
        <ele>1087.8</ele>
        <time>2021-08-19T08:47:51Z</time>
      </trkpt>
      <trkpt lat="46.4887" lon="6.05863">
        <ele>1087.9</ele>
        <time>2021-08-19T08:47:53Z</time>
      </trkpt>
      <trkpt lat="46.4887" lon="6.05868">
        <ele>1088</ele>
        <time>2021-08-19T08:47:54Z</time>
      </trkpt>
      <trkpt lat="46.48869" lon="6.05873">
        <ele>1088</ele>
        <time>2021-08-19T08:47:55Z</time>
      </trkpt>
      <trkpt lat="46.48868" lon="6.05884">
        <ele>1088</ele>
        <time>2021-08-19T08:47:57Z</time>
      </trkpt>
      <trkpt lat="46.48867" lon="6.0589">
        <ele>1088</ele>
        <time>2021-08-19T08:47:58Z</time>
      </trkpt>
      <trkpt lat="46.48865" lon="6.05899">
        <ele>1087.9</ele>
        <time>2021-08-19T08:48:00Z</time>
      </trkpt>
      <trkpt lat="46.48862" lon="6.05911">
        <ele>1087.7</ele>
        <time>2021-08-19T08:48:01Z</time>
      </trkpt>
      <trkpt lat="46.48859" lon="6.05918">
        <ele>1087.7</ele>
        <time>2021-08-19T08:48:02Z</time>
      </trkpt>
      <trkpt lat="46.48857" lon="6.05927">
        <ele>1087.7</ele>
        <time>2021-08-19T08:48:04Z</time>
      </trkpt>
      <trkpt lat="46.48854" lon="6.05935">
        <ele>1087.7</ele>
        <time>2021-08-19T08:48:05Z</time>
      </trkpt>
      <trkpt lat="46.48847" lon="6.05947">
        <ele>1087.7</ele>
        <time>2021-08-19T08:48:07Z</time>
      </trkpt>
      <trkpt lat="46.4884" lon="6.05958">
        <ele>1088</ele>
        <time>2021-08-19T08:48:09Z</time>
      </trkpt>
      <trkpt lat="46.48835" lon="6.0596">
        <ele>1088.2</ele>
        <time>2021-08-19T08:48:11Z</time>
      </trkpt>
      <trkpt lat="46.48832" lon="6.05967">
        <ele>1088.4</ele>
        <time>2021-08-19T08:48:12Z</time>
      </trkpt>
      <trkpt lat="46.48829" lon="6.05973">
        <ele>1088.5</ele>
        <time>2021-08-19T08:48:14Z</time>
      </trkpt>
      <trkpt lat="46.48826" lon="6.05981">
        <ele>1088.6</ele>
        <time>2021-08-19T08:48:15Z</time>
      </trkpt>
      <trkpt lat="46.48825" lon="6.05987">
        <ele>1088.6</ele>
        <time>2021-08-19T08:48:16Z</time>
      </trkpt>
      <trkpt lat="46.48823" lon="6.05993">
        <ele>1088.6</ele>
        <time>2021-08-19T08:48:17Z</time>
      </trkpt>
      <trkpt lat="46.48821" lon="6.05999">
        <ele>1088.5</ele>
        <time>2021-08-19T08:48:19Z</time>
      </trkpt>
      <trkpt lat="46.48819" lon="6.06008">
        <ele>1088.3</ele>
        <time>2021-08-19T08:48:20Z</time>
      </trkpt>
      <trkpt lat="46.48818" lon="6.06016">
        <ele>1088</ele>
        <time>2021-08-19T08:48:21Z</time>
      </trkpt>
      <trkpt lat="46.48816" lon="6.06023">
        <ele>1087.8</ele>
        <time>2021-08-19T08:48:22Z</time>
      </trkpt>
      <trkpt lat="46.48811" lon="6.06038">
        <ele>1087.2</ele>
        <time>2021-08-19T08:48:24Z</time>
      </trkpt>
      <trkpt lat="46.4881" lon="6.06047">
        <ele>1087</ele>
        <time>2021-08-19T08:48:25Z</time>
      </trkpt>
      <trkpt lat="46.48807" lon="6.06063">
        <ele>1086.6</ele>
        <time>2021-08-19T08:48:27Z</time>
      </trkpt>
      <trkpt lat="46.48806" lon="6.06072">
        <ele>1086.5</ele>
        <time>2021-08-19T08:48:28Z</time>
      </trkpt>
      <trkpt lat="46.48803" lon="6.06088">
        <ele>1086.4</ele>
        <time>2021-08-19T08:48:30Z</time>
      </trkpt>
      <trkpt lat="46.48802" lon="6.06096">
        <ele>1086.4</ele>
        <time>2021-08-19T08:48:31Z</time>
      </trkpt>
      <trkpt lat="46.488" lon="6.06114">
        <ele>1086.4</ele>
        <time>2021-08-19T08:48:33Z</time>
      </trkpt>
      <trkpt lat="46.48799" lon="6.06122">
        <ele>1086.5</ele>
        <time>2021-08-19T08:48:34Z</time>
      </trkpt>
      <trkpt lat="46.48798" lon="6.06131">
        <ele>1086.5</ele>
        <time>2021-08-19T08:48:35Z</time>
      </trkpt>
      <trkpt lat="46.48796" lon="6.06148">
        <ele>1086.6</ele>
        <time>2021-08-19T08:48:37Z</time>
      </trkpt>
      <trkpt lat="46.48794" lon="6.06165">
        <ele>1087</ele>
        <time>2021-08-19T08:48:39Z</time>
      </trkpt>
      <trkpt lat="46.48793" lon="6.06173">
        <ele>1087.2</ele>
        <time>2021-08-19T08:48:40Z</time>
      </trkpt>
      <trkpt lat="46.4879" lon="6.06187">
        <ele>1087.7</ele>
        <time>2021-08-19T08:48:42Z</time>
      </trkpt>
      <trkpt lat="46.48789" lon="6.06193">
        <ele>1088</ele>
        <time>2021-08-19T08:48:43Z</time>
      </trkpt>
      <trkpt lat="46.48786" lon="6.06203">
        <ele>1088.5</ele>
        <time>2021-08-19T08:48:45Z</time>
      </trkpt>
      <trkpt lat="46.48784" lon="6.06213">
        <ele>1089</ele>
        <time>2021-08-19T08:48:47Z</time>
      </trkpt>
      <trkpt lat="46.48783" lon="6.06218">
        <ele>1089.3</ele>
        <time>2021-08-19T08:48:48Z</time>
      </trkpt>
      <trkpt lat="46.48781" lon="6.06227">
        <ele>1089.8</ele>
        <time>2021-08-19T08:48:50Z</time>
      </trkpt>
      <trkpt lat="46.4878" lon="6.06231">
        <ele>1090</ele>
        <time>2021-08-19T08:48:51Z</time>
      </trkpt>
      <trkpt lat="46.48781" lon="6.06233">
        <ele>1090</ele>
        <time>2021-08-19T08:48:52Z</time>
      </trkpt>
      <trkpt lat="46.48777" lon="6.06238">
        <ele>1090.4</ele>
        <time>2021-08-19T08:48:54Z</time>
      </trkpt>
      <trkpt lat="46.48774" lon="6.06243">
        <ele>1090.7</ele>
        <time>2021-08-19T08:48:56Z</time>
      </trkpt>
      <trkpt lat="46.48772" lon="6.06248">
        <ele>1090.9</ele>
        <time>2021-08-19T08:48:58Z</time>
      </trkpt>
      <trkpt lat="46.48771" lon="6.06252">
        <ele>1091.1</ele>
        <time>2021-08-19T08:48:59Z</time>
      </trkpt>
      <trkpt lat="46.48769" lon="6.06258">
        <ele>1091.3</ele>
        <time>2021-08-19T08:49:01Z</time>
      </trkpt>
      <trkpt lat="46.48768" lon="6.0626">
        <ele>1091.3</ele>
        <time>2021-08-19T08:49:02Z</time>
      </trkpt>
      <trkpt lat="46.48767" lon="6.06264">
        <ele>1091.5</ele>
        <time>2021-08-19T08:49:03Z</time>
      </trkpt>
      <trkpt lat="46.48765" lon="6.0627">
        <ele>1091.7</ele>
        <time>2021-08-19T08:49:05Z</time>
      </trkpt>
      <trkpt lat="46.48764" lon="6.06277">
        <ele>1091.9</ele>
        <time>2021-08-19T08:49:07Z</time>
      </trkpt>
      <trkpt lat="46.48763" lon="6.06284">
        <ele>1092</ele>
        <time>2021-08-19T08:49:09Z</time>
      </trkpt>
      <trkpt lat="46.48762" lon="6.06288">
        <ele>1092.1</ele>
        <time>2021-08-19T08:49:10Z</time>
      </trkpt>
      <trkpt lat="46.48761" lon="6.0629">
        <ele>1092.2</ele>
        <time>2021-08-19T08:49:11Z</time>
      </trkpt>
      <trkpt lat="46.4876" lon="6.06293">
        <ele>1092.2</ele>
        <time>2021-08-19T08:49:12Z</time>
      </trkpt>
      <trkpt lat="46.48759" lon="6.06297">
        <ele>1092.3</ele>
        <time>2021-08-19T08:49:14Z</time>
      </trkpt>
      <trkpt lat="46.48757" lon="6.06302">
        <ele>1092.4</ele>
        <time>2021-08-19T08:49:15Z</time>
      </trkpt>
      <trkpt lat="46.48755" lon="6.06307">
        <ele>1092.5</ele>
        <time>2021-08-19T08:49:16Z</time>
      </trkpt>
      <trkpt lat="46.48754" lon="6.06309">
        <ele>1092.5</ele>
        <time>2021-08-19T08:49:17Z</time>
      </trkpt>
      <trkpt lat="46.48752" lon="6.06315">
        <ele>1092.7</ele>
        <time>2021-08-19T08:49:19Z</time>
      </trkpt>
      <trkpt lat="46.48751" lon="6.06318">
        <ele>1092.7</ele>
        <time>2021-08-19T08:49:20Z</time>
      </trkpt>
      <trkpt lat="46.48748" lon="6.06324">
        <ele>1092.9</ele>
        <time>2021-08-19T08:49:22Z</time>
      </trkpt>
      <trkpt lat="46.48744" lon="6.0633">
        <ele>1093</ele>
        <time>2021-08-19T08:49:24Z</time>
      </trkpt>
      <trkpt lat="46.48743" lon="6.06334">
        <ele>1093.1</ele>
        <time>2021-08-19T08:49:25Z</time>
      </trkpt>
      <trkpt lat="46.48741" lon="6.06342">
        <ele>1093.4</ele>
        <time>2021-08-19T08:49:27Z</time>
      </trkpt>
      <trkpt lat="46.4874" lon="6.06348">
        <ele>1093.7</ele>
        <time>2021-08-19T08:49:29Z</time>
      </trkpt>
      <trkpt lat="46.4874" lon="6.06353">
        <ele>1093.9</ele>
        <time>2021-08-19T08:49:30Z</time>
      </trkpt>
      <trkpt lat="46.48738" lon="6.06359">
        <ele>1094.2</ele>
        <time>2021-08-19T08:49:32Z</time>
      </trkpt>
      <trkpt lat="46.48737" lon="6.06362">
        <ele>1094.3</ele>
        <time>2021-08-19T08:49:33Z</time>
      </trkpt>
      <trkpt lat="46.48736" lon="6.06364">
        <ele>1094.4</ele>
        <time>2021-08-19T08:49:34Z</time>
      </trkpt>
      <trkpt lat="46.48734" lon="6.06369">
        <ele>1094.7</ele>
        <time>2021-08-19T08:49:36Z</time>
      </trkpt>
      <trkpt lat="46.48734" lon="6.06371">
        <ele>1094.8</ele>
        <time>2021-08-19T08:49:37Z</time>
      </trkpt>
      <trkpt lat="46.48734" lon="6.06373">
        <ele>1094.9</ele>
        <time>2021-08-19T08:49:38Z</time>
      </trkpt>
      <trkpt lat="46.48733" lon="6.06378">
        <ele>1095.2</ele>
        <time>2021-08-19T08:49:40Z</time>
      </trkpt>
      <trkpt lat="46.48733" lon="6.0638">
        <ele>1095.3</ele>
        <time>2021-08-19T08:49:41Z</time>
      </trkpt>
      <trkpt lat="46.4873" lon="6.06385">
        <ele>1095.6</ele>
        <time>2021-08-19T08:49:43Z</time>
      </trkpt>
      <trkpt lat="46.48729" lon="6.06389">
        <ele>1095.8</ele>
        <time>2021-08-19T08:49:45Z</time>
      </trkpt>
      <trkpt lat="46.48728" lon="6.06392">
        <ele>1096</ele>
        <time>2021-08-19T08:49:46Z</time>
      </trkpt>
      <trkpt lat="46.48729" lon="6.06396">
        <ele>1096.2</ele>
        <time>2021-08-19T08:49:48Z</time>
      </trkpt>
      <trkpt lat="46.4873" lon="6.06399">
        <ele>1096.3</ele>
        <time>2021-08-19T08:49:49Z</time>
      </trkpt>
      <trkpt lat="46.4873" lon="6.06402">
        <ele>1096.5</ele>
        <time>2021-08-19T08:49:51Z</time>
      </trkpt>
      <trkpt lat="46.48729" lon="6.06406">
        <ele>1096.8</ele>
        <time>2021-08-19T08:49:52Z</time>
      </trkpt>
      <trkpt lat="46.48728" lon="6.06408">
        <ele>1096.9</ele>
        <time>2021-08-19T08:49:53Z</time>
      </trkpt>
      <trkpt lat="46.48726" lon="6.06411">
        <ele>1097.1</ele>
        <time>2021-08-19T08:49:55Z</time>
      </trkpt>
      <trkpt lat="46.48726" lon="6.06413">
        <ele>1097.3</ele>
        <time>2021-08-19T08:49:56Z</time>
      </trkpt>
      <trkpt lat="46.48724" lon="6.06418">
        <ele>1097.6</ele>
        <time>2021-08-19T08:49:58Z</time>
      </trkpt>
      <trkpt lat="46.48723" lon="6.06423">
        <ele>1097.9</ele>
        <time>2021-08-19T08:49:59Z</time>
      </trkpt>
      <trkpt lat="46.48723" lon="6.06428">
        <ele>1098.3</ele>
        <time>2021-08-19T08:50:01Z</time>
      </trkpt>
      <trkpt lat="46.48722" lon="6.06432">
        <ele>1098.6</ele>
        <time>2021-08-19T08:50:02Z</time>
      </trkpt>
      <trkpt lat="46.48722" lon="6.06434">
        <ele>1098.7</ele>
        <time>2021-08-19T08:50:03Z</time>
      </trkpt>
      <trkpt lat="46.4872" lon="6.06437">
        <ele>1098.9</ele>
        <time>2021-08-19T08:50:04Z</time>
      </trkpt>
      <trkpt lat="46.48718" lon="6.0644">
        <ele>1099.2</ele>
        <time>2021-08-19T08:50:06Z</time>
      </trkpt>
      <trkpt lat="46.48717" lon="6.06443">
        <ele>1099.4</ele>
        <time>2021-08-19T08:50:07Z</time>
      </trkpt>
      <trkpt lat="46.48715" lon="6.06446">
        <ele>1099.9</ele>
        <time>2021-08-19T08:50:09Z</time>
      </trkpt>
      <trkpt lat="46.48713" lon="6.06448">
        <ele>1100.1</ele>
        <time>2021-08-19T08:50:10Z</time>
      </trkpt>
      <trkpt lat="46.48711" lon="6.0645">
        <ele>1100.3</ele>
        <time>2021-08-19T08:50:12Z</time>
      </trkpt>
      <trkpt lat="46.48709" lon="6.06452">
        <ele>1100.5</ele>
        <time>2021-08-19T08:50:13Z</time>
      </trkpt>
      <trkpt lat="46.48707" lon="6.06454">
        <ele>1100.7</ele>
        <time>2021-08-19T08:50:15Z</time>
      </trkpt>
      <trkpt lat="46.48706" lon="6.06456">
        <ele>1100.9</ele>
        <time>2021-08-19T08:50:16Z</time>
      </trkpt>
      <trkpt lat="46.48705" lon="6.06457">
        <ele>1101</ele>
        <time>2021-08-19T08:50:17Z</time>
      </trkpt>
      <trkpt lat="46.48704" lon="6.06459">
        <ele>1101.1</ele>
        <time>2021-08-19T08:50:19Z</time>
      </trkpt>
      <trkpt lat="46.48703" lon="6.06461">
        <ele>1101.2</ele>
        <time>2021-08-19T08:50:20Z</time>
      </trkpt>
      <trkpt lat="46.48701" lon="6.06463">
        <ele>1101.5</ele>
        <time>2021-08-19T08:50:21Z</time>
      </trkpt>
      <trkpt lat="46.487" lon="6.06464">
        <ele>1101.6</ele>
        <time>2021-08-19T08:50:22Z</time>
      </trkpt>
      <trkpt lat="46.487" lon="6.06465">
        <ele>1101.7</ele>
        <time>2021-08-19T08:50:23Z</time>
      </trkpt>
      <trkpt lat="46.48698" lon="6.06467">
        <ele>1101.8</ele>
        <time>2021-08-19T08:50:25Z</time>
      </trkpt>
      <trkpt lat="46.48697" lon="6.06468">
        <ele>1101.9</ele>
        <time>2021-08-19T08:50:26Z</time>
      </trkpt>
      <trkpt lat="46.48697" lon="6.06469">
        <ele>1102</ele>
        <time>2021-08-19T08:50:27Z</time>
      </trkpt>
      <trkpt lat="46.48696" lon="6.0647">
        <ele>1102.1</ele>
        <time>2021-08-19T08:50:28Z</time>
      </trkpt>
      <trkpt lat="46.48694" lon="6.06472">
        <ele>1102.3</ele>
        <time>2021-08-19T08:50:30Z</time>
      </trkpt>
      <trkpt lat="46.48694" lon="6.06472">
        <ele>1102.3</ele>
        <time>2021-08-19T08:50:31Z</time>
      </trkpt>
      <trkpt lat="46.48695" lon="6.06472">
        <ele>1102.3</ele>
        <time>2021-08-19T08:50:32Z</time>
      </trkpt>
      <trkpt lat="46.48694" lon="6.06472">
        <ele>1102.3</ele>
        <time>2021-08-19T08:50:34Z</time>
      </trkpt>
      <trkpt lat="46.48693" lon="6.06472">
        <ele>1102.4</ele>
        <time>2021-08-19T08:50:36Z</time>
      </trkpt>
      <trkpt lat="46.48693" lon="6.06472">
        <ele>1102.4</ele>
        <time>2021-08-19T08:50:37Z</time>
      </trkpt>
      <trkpt lat="46.48692" lon="6.06472">
        <ele>1102.6</ele>
        <time>2021-08-19T08:50:39Z</time>
      </trkpt>
      <trkpt lat="46.48683" lon="6.06477">
        <ele>1103.3</ele>
        <time>2021-08-19T08:50:44Z</time>
      </trkpt>
      <trkpt lat="46.4868" lon="6.06478">
        <ele>1103.5</ele>
        <time>2021-08-19T08:50:45Z</time>
      </trkpt>
      <trkpt lat="46.48679" lon="6.06479">
        <ele>1103.6</ele>
        <time>2021-08-19T08:50:46Z</time>
      </trkpt>
      <trkpt lat="46.48677" lon="6.06479">
        <ele>1103.7</ele>
        <time>2021-08-19T08:50:47Z</time>
      </trkpt>
      <trkpt lat="46.48675" lon="6.06479">
        <ele>1103.9</ele>
        <time>2021-08-19T08:50:48Z</time>
      </trkpt>
      <trkpt lat="46.48672" lon="6.06479">
        <ele>1104.1</ele>
        <time>2021-08-19T08:50:50Z</time>
      </trkpt>
      <trkpt lat="46.48669" lon="6.06478">
        <ele>1104.3</ele>
        <time>2021-08-19T08:50:51Z</time>
      </trkpt>
      <trkpt lat="46.48668" lon="6.06478">
        <ele>1104.4</ele>
        <time>2021-08-19T08:50:52Z</time>
      </trkpt>
      <trkpt lat="46.48664" lon="6.06474">
        <ele>1104.7</ele>
        <time>2021-08-19T08:50:54Z</time>
      </trkpt>
      <trkpt lat="46.48663" lon="6.06474">
        <ele>1104.7</ele>
        <time>2021-08-19T08:50:55Z</time>
      </trkpt>
      <trkpt lat="46.48662" lon="6.06474">
        <ele>1104.8</ele>
        <time>2021-08-19T08:50:56Z</time>
      </trkpt>
      <trkpt lat="46.48661" lon="6.06473">
        <ele>1104.9</ele>
        <time>2021-08-19T08:50:57Z</time>
      </trkpt>
      <trkpt lat="46.4866" lon="6.06471">
        <ele>1105</ele>
        <time>2021-08-19T08:50:59Z</time>
      </trkpt>
      <trkpt lat="46.48661" lon="6.06469">
        <ele>1105.1</ele>
        <time>2021-08-19T08:51:00Z</time>
      </trkpt>
      <trkpt lat="46.48663" lon="6.06467">
        <ele>1105.3</ele>
        <time>2021-08-19T08:51:02Z</time>
      </trkpt>
      <trkpt lat="46.48663" lon="6.06467">
        <ele>1105.3</ele>
        <time>2021-08-19T08:51:03Z</time>
      </trkpt>
      <trkpt lat="46.48663" lon="6.06467">
        <ele>1105.3</ele>
        <time>2021-08-19T08:51:05Z</time>
      </trkpt>
      <trkpt lat="46.48663" lon="6.06467">
        <ele>1105.3</ele>
        <time>2021-08-19T08:51:06Z</time>
      </trkpt>
      <trkpt lat="46.48663" lon="6.06467">
        <ele>1105.3</ele>
        <time>2021-08-19T08:51:08Z</time>
      </trkpt>
      <trkpt lat="46.48663" lon="6.06466">
        <ele>1105.3</ele>
        <time>2021-08-19T08:51:09Z</time>
      </trkpt>
      <trkpt lat="46.48659" lon="6.06472">
        <ele>1105.7</ele>
        <time>2021-08-19T08:51:40Z</time>
      </trkpt>
      <trkpt lat="46.48658" lon="6.06477">
        <ele>1105.9</ele>
        <time>2021-08-19T08:51:41Z</time>
      </trkpt>
      <trkpt lat="46.48657" lon="6.06481">
        <ele>1106.1</ele>
        <time>2021-08-19T08:51:42Z</time>
      </trkpt>
      <trkpt lat="46.48655" lon="6.06487">
        <ele>1106.5</ele>
        <time>2021-08-19T08:51:43Z</time>
      </trkpt>
      <trkpt lat="46.48654" lon="6.06498">
        <ele>1106.5</ele>
        <time>2021-08-19T08:51:45Z</time>
      </trkpt>
      <trkpt lat="46.48654" lon="6.06503">
        <ele>1106.5</ele>
        <time>2021-08-19T08:51:46Z</time>
      </trkpt>
      <trkpt lat="46.48653" lon="6.06512">
        <ele>1106.5</ele>
        <time>2021-08-19T08:51:48Z</time>
      </trkpt>
      <trkpt lat="46.48654" lon="6.0652">
        <ele>1106.4</ele>
        <time>2021-08-19T08:51:50Z</time>
      </trkpt>
      <trkpt lat="46.48654" lon="6.06523">
        <ele>1106.4</ele>
        <time>2021-08-19T08:51:51Z</time>
      </trkpt>
      <trkpt lat="46.48655" lon="6.06527">
        <ele>1106.7</ele>
        <time>2021-08-19T08:51:53Z</time>
      </trkpt>
      <trkpt lat="46.48655" lon="6.06529">
        <ele>1106.9</ele>
        <time>2021-08-19T08:51:54Z</time>
      </trkpt>
      <trkpt lat="46.48655" lon="6.06531">
        <ele>1107</ele>
        <time>2021-08-19T08:51:55Z</time>
      </trkpt>
      <trkpt lat="46.48653" lon="6.06533">
        <ele>1107.3</ele>
        <time>2021-08-19T08:51:57Z</time>
      </trkpt>
      <trkpt lat="46.48651" lon="6.06537">
        <ele>1107.6</ele>
        <time>2021-08-19T08:51:59Z</time>
      </trkpt>
      <trkpt lat="46.48649" lon="6.06541">
        <ele>1107.9</ele>
        <time>2021-08-19T08:52:00Z</time>
      </trkpt>
      <trkpt lat="46.48649" lon="6.06542">
        <ele>1108</ele>
        <time>2021-08-19T08:52:01Z</time>
      </trkpt>
      <trkpt lat="46.48648" lon="6.06545">
        <ele>1108.2</ele>
        <time>2021-08-19T08:52:02Z</time>
      </trkpt>
      <trkpt lat="46.48646" lon="6.06548">
        <ele>1108.5</ele>
        <time>2021-08-19T08:52:04Z</time>
      </trkpt>
      <trkpt lat="46.48644" lon="6.06551">
        <ele>1108.8</ele>
        <time>2021-08-19T08:52:05Z</time>
      </trkpt>
      <trkpt lat="46.48644" lon="6.06556">
        <ele>1109.1</ele>
        <time>2021-08-19T08:52:07Z</time>
      </trkpt>
      <trkpt lat="46.48644" lon="6.06561">
        <ele>1109.4</ele>
        <time>2021-08-19T08:52:09Z</time>
      </trkpt>
      <trkpt lat="46.48643" lon="6.06564">
        <ele>1109.5</ele>
        <time>2021-08-19T08:52:10Z</time>
      </trkpt>
      <trkpt lat="46.48643" lon="6.06569">
        <ele>1109.8</ele>
        <time>2021-08-19T08:52:12Z</time>
      </trkpt>
      <trkpt lat="46.48643" lon="6.06573">
        <ele>1109.9</ele>
        <time>2021-08-19T08:52:13Z</time>
      </trkpt>
      <trkpt lat="46.48644" lon="6.06577">
        <ele>1110.1</ele>
        <time>2021-08-19T08:52:14Z</time>
      </trkpt>
      <trkpt lat="46.48644" lon="6.0658">
        <ele>1110.2</ele>
        <time>2021-08-19T08:52:16Z</time>
      </trkpt>
      <trkpt lat="46.48644" lon="6.06583">
        <ele>1110.4</ele>
        <time>2021-08-19T08:52:17Z</time>
      </trkpt>
      <trkpt lat="46.48642" lon="6.06587">
        <ele>1110.6</ele>
        <time>2021-08-19T08:52:19Z</time>
      </trkpt>
      <trkpt lat="46.4864" lon="6.0659">
        <ele>1110.8</ele>
        <time>2021-08-19T08:52:20Z</time>
      </trkpt>
      <trkpt lat="46.48638" lon="6.06593">
        <ele>1111</ele>
        <time>2021-08-19T08:52:21Z</time>
      </trkpt>
      <trkpt lat="46.48637" lon="6.06598">
        <ele>1111.2</ele>
        <time>2021-08-19T08:52:23Z</time>
      </trkpt>
      <trkpt lat="46.48637" lon="6.06602">
        <ele>1111.4</ele>
        <time>2021-08-19T08:52:25Z</time>
      </trkpt>
      <trkpt lat="46.48638" lon="6.06606">
        <ele>1111.6</ele>
        <time>2021-08-19T08:52:26Z</time>
      </trkpt>
      <trkpt lat="46.48638" lon="6.0661">
        <ele>1111.8</ele>
        <time>2021-08-19T08:52:28Z</time>
      </trkpt>
      <trkpt lat="46.48637" lon="6.06614">
        <ele>1112.1</ele>
        <time>2021-08-19T08:52:29Z</time>
      </trkpt>
      <trkpt lat="46.48636" lon="6.06618">
        <ele>1112.4</ele>
        <time>2021-08-19T08:52:31Z</time>
      </trkpt>
      <trkpt lat="46.48636" lon="6.0662">
        <ele>1112.5</ele>
        <time>2021-08-19T08:52:32Z</time>
      </trkpt>
      <trkpt lat="46.48637" lon="6.06625">
        <ele>1112.7</ele>
        <time>2021-08-19T08:52:34Z</time>
      </trkpt>
      <trkpt lat="46.48636" lon="6.06626">
        <ele>1112.8</ele>
        <time>2021-08-19T08:52:35Z</time>
      </trkpt>
      <trkpt lat="46.48634" lon="6.06629">
        <ele>1113.1</ele>
        <time>2021-08-19T08:52:37Z</time>
      </trkpt>
      <trkpt lat="46.48632" lon="6.06632">
        <ele>1113.4</ele>
        <time>2021-08-19T08:52:38Z</time>
      </trkpt>
      <trkpt lat="46.48628" lon="6.06634">
        <ele>1113.6</ele>
        <time>2021-08-19T08:52:40Z</time>
      </trkpt>
      <trkpt lat="46.48625" lon="6.06637">
        <ele>1113.8</ele>
        <time>2021-08-19T08:52:42Z</time>
      </trkpt>
      <trkpt lat="46.48624" lon="6.06639">
        <ele>1113.9</ele>
        <time>2021-08-19T08:52:43Z</time>
      </trkpt>
      <trkpt lat="46.48624" lon="6.06642">
        <ele>1114</ele>
        <time>2021-08-19T08:52:44Z</time>
      </trkpt>
      <trkpt lat="46.48623" lon="6.06645">
        <ele>1114.1</ele>
        <time>2021-08-19T08:52:46Z</time>
      </trkpt>
      <trkpt lat="46.48625" lon="6.06643">
        <ele>1114.2</ele>
        <time>2021-08-19T08:52:47Z</time>
      </trkpt>
      <trkpt lat="46.48625" lon="6.06643">
        <ele>1114.2</ele>
        <time>2021-08-19T08:52:48Z</time>
      </trkpt>
      <trkpt lat="46.48625" lon="6.06644">
        <ele>1114.2</ele>
        <time>2021-08-19T08:52:49Z</time>
      </trkpt>
      <trkpt lat="46.48625" lon="6.06644">
        <ele>1114.3</ele>
        <time>2021-08-19T08:52:50Z</time>
      </trkpt>
      <trkpt lat="46.48625" lon="6.06644">
        <ele>1114.3</ele>
        <time>2021-08-19T08:52:51Z</time>
      </trkpt>
      <trkpt lat="46.48625" lon="6.06645">
        <ele>1114.3</ele>
        <time>2021-08-19T08:52:53Z</time>
      </trkpt>
      <trkpt lat="46.48625" lon="6.06645">
        <ele>1114.3</ele>
        <time>2021-08-19T08:52:54Z</time>
      </trkpt>
      <trkpt lat="46.48624" lon="6.06652">
        <ele>1114.5</ele>
        <time>2021-08-19T08:52:58Z</time>
      </trkpt>
      <trkpt lat="46.48624" lon="6.06657">
        <ele>1114.7</ele>
        <time>2021-08-19T08:52:59Z</time>
      </trkpt>
      <trkpt lat="46.48624" lon="6.06662">
        <ele>1114.9</ele>
        <time>2021-08-19T08:53:00Z</time>
      </trkpt>
      <trkpt lat="46.48624" lon="6.06668">
        <ele>1115.1</ele>
        <time>2021-08-19T08:53:01Z</time>
      </trkpt>
      <trkpt lat="46.48624" lon="6.06675">
        <ele>1115.5</ele>
        <time>2021-08-19T08:53:03Z</time>
      </trkpt>
      <trkpt lat="46.48624" lon="6.06681">
        <ele>1115.7</ele>
        <time>2021-08-19T08:53:04Z</time>
      </trkpt>
      <trkpt lat="46.48623" lon="6.06685">
        <ele>1115.9</ele>
        <time>2021-08-19T08:53:05Z</time>
      </trkpt>
      <trkpt lat="46.48621" lon="6.06692">
        <ele>1116.1</ele>
        <time>2021-08-19T08:53:07Z</time>
      </trkpt>
      <trkpt lat="46.48621" lon="6.06696">
        <ele>1116.3</ele>
        <time>2021-08-19T08:53:08Z</time>
      </trkpt>
      <trkpt lat="46.48621" lon="6.06698">
        <ele>1116.3</ele>
        <time>2021-08-19T08:53:09Z</time>
      </trkpt>
      <trkpt lat="46.48621" lon="6.06704">
        <ele>1116.5</ele>
        <time>2021-08-19T08:53:11Z</time>
      </trkpt>
      <trkpt lat="46.48621" lon="6.06706">
        <ele>1116.6</ele>
        <time>2021-08-19T08:53:12Z</time>
      </trkpt>
      <trkpt lat="46.4862" lon="6.06708">
        <ele>1116.6</ele>
        <time>2021-08-19T08:53:13Z</time>
      </trkpt>
      <trkpt lat="46.48619" lon="6.06711">
        <ele>1116.8</ele>
        <time>2021-08-19T08:53:14Z</time>
      </trkpt>
      <trkpt lat="46.48616" lon="6.06717">
        <ele>1117</ele>
        <time>2021-08-19T08:53:16Z</time>
      </trkpt>
      <trkpt lat="46.48614" lon="6.06721">
        <ele>1117.2</ele>
        <time>2021-08-19T08:53:18Z</time>
      </trkpt>
      <trkpt lat="46.48613" lon="6.06723">
        <ele>1117.3</ele>
        <time>2021-08-19T08:53:19Z</time>
      </trkpt>
      <trkpt lat="46.4861" lon="6.06728">
        <ele>1117.5</ele>
        <time>2021-08-19T08:53:21Z</time>
      </trkpt>
      <trkpt lat="46.48608" lon="6.06731">
        <ele>1117.7</ele>
        <time>2021-08-19T08:53:22Z</time>
      </trkpt>
      <trkpt lat="46.48603" lon="6.06735">
        <ele>1118</ele>
        <time>2021-08-19T08:53:24Z</time>
      </trkpt>
      <trkpt lat="46.48601" lon="6.06737">
        <ele>1118.1</ele>
        <time>2021-08-19T08:53:25Z</time>
      </trkpt>
      <trkpt lat="46.48599" lon="6.06741">
        <ele>1118.3</ele>
        <time>2021-08-19T08:53:26Z</time>
      </trkpt>
      <trkpt lat="46.48598" lon="6.06742">
        <ele>1118.4</ele>
        <time>2021-08-19T08:53:27Z</time>
      </trkpt>
      <trkpt lat="46.48597" lon="6.06745">
        <ele>1118.6</ele>
        <time>2021-08-19T08:53:28Z</time>
      </trkpt>
      <trkpt lat="46.48596" lon="6.06746">
        <ele>1118.7</ele>
        <time>2021-08-19T08:53:29Z</time>
      </trkpt>
      <trkpt lat="46.48593" lon="6.06749">
        <ele>1118.9</ele>
        <time>2021-08-19T08:53:30Z</time>
      </trkpt>
      <trkpt lat="46.48593" lon="6.0675">
        <ele>1119</ele>
        <time>2021-08-19T08:53:31Z</time>
      </trkpt>
      <trkpt lat="46.48591" lon="6.06751">
        <ele>1119.9</ele>
        <time>2021-08-19T08:53:32Z</time>
      </trkpt>
      <trkpt lat="46.4859" lon="6.06753">
        <ele>1119.9</ele>
        <time>2021-08-19T08:53:33Z</time>
      </trkpt>
      <trkpt lat="46.48589" lon="6.06754">
        <ele>1119.9</ele>
        <time>2021-08-19T08:53:34Z</time>
      </trkpt>
      <trkpt lat="46.48586" lon="6.06757">
        <ele>1119.9</ele>
        <time>2021-08-19T08:53:36Z</time>
      </trkpt>
      <trkpt lat="46.48585" lon="6.06758">
        <ele>1119.9</ele>
        <time>2021-08-19T08:53:38Z</time>
      </trkpt>
      <trkpt lat="46.48586" lon="6.06757">
        <ele>1119.9</ele>
        <time>2021-08-19T08:53:39Z</time>
      </trkpt>
      <trkpt lat="46.48586" lon="6.06757">
        <ele>1119.9</ele>
        <time>2021-08-19T08:53:40Z</time>
      </trkpt>
      <trkpt lat="46.48585" lon="6.06757">
        <ele>1119.9</ele>
        <time>2021-08-19T08:53:41Z</time>
      </trkpt>
      <trkpt lat="46.48585" lon="6.06757">
        <ele>1119.9</ele>
        <time>2021-08-19T08:53:42Z</time>
      </trkpt>
      <trkpt lat="46.48585" lon="6.06757">
        <ele>1119.9</ele>
        <time>2021-08-19T08:53:44Z</time>
      </trkpt>
      <trkpt lat="46.48585" lon="6.06757">
        <ele>1119.9</ele>
        <time>2021-08-19T08:53:45Z</time>
      </trkpt>
      <trkpt lat="46.48585" lon="6.06757">
        <ele>1119.9</ele>
        <time>2021-08-19T08:53:46Z</time>
      </trkpt>
      <trkpt lat="46.48578" lon="6.06744">
        <ele>1121.6</ele>
        <time>2021-08-19T08:53:55Z</time>
      </trkpt>
      <trkpt lat="46.48577" lon="6.06738">
        <ele>1121.8</ele>
        <time>2021-08-19T08:53:56Z</time>
      </trkpt>
      <trkpt lat="46.48576" lon="6.06732">
        <ele>1122.1</ele>
        <time>2021-08-19T08:53:57Z</time>
      </trkpt>
      <trkpt lat="46.48576" lon="6.06728">
        <ele>1122.2</ele>
        <time>2021-08-19T08:53:58Z</time>
      </trkpt>
      <trkpt lat="46.48576" lon="6.06722">
        <ele>1122.5</ele>
        <time>2021-08-19T08:54:00Z</time>
      </trkpt>
      <trkpt lat="46.48576" lon="6.06718">
        <ele>1122.6</ele>
        <time>2021-08-19T08:54:01Z</time>
      </trkpt>
      <trkpt lat="46.48574" lon="6.06712">
        <ele>1122.9</ele>
        <time>2021-08-19T08:54:03Z</time>
      </trkpt>
      <trkpt lat="46.48573" lon="6.06708">
        <ele>1123</ele>
        <time>2021-08-19T08:54:04Z</time>
      </trkpt>
      <trkpt lat="46.48573" lon="6.06702">
        <ele>1123.2</ele>
        <time>2021-08-19T08:54:06Z</time>
      </trkpt>
      <trkpt lat="46.48573" lon="6.067">
        <ele>1123.3</ele>
        <time>2021-08-19T08:54:07Z</time>
      </trkpt>
      <trkpt lat="46.48572" lon="6.06697">
        <ele>1123.4</ele>
        <time>2021-08-19T08:54:08Z</time>
      </trkpt>
      <trkpt lat="46.48571" lon="6.06692">
        <ele>1123.6</ele>
        <time>2021-08-19T08:54:10Z</time>
      </trkpt>
      <trkpt lat="46.4857" lon="6.06687">
        <ele>1123.8</ele>
        <time>2021-08-19T08:54:11Z</time>
      </trkpt>
      <trkpt lat="46.48569" lon="6.06686">
        <ele>1123.8</ele>
        <time>2021-08-19T08:54:12Z</time>
      </trkpt>
      <trkpt lat="46.48568" lon="6.06679">
        <ele>1124</ele>
        <time>2021-08-19T08:54:14Z</time>
      </trkpt>
      <trkpt lat="46.48566" lon="6.06673">
        <ele>1124.2</ele>
        <time>2021-08-19T08:54:16Z</time>
      </trkpt>
      <trkpt lat="46.48566" lon="6.0667">
        <ele>1124.3</ele>
        <time>2021-08-19T08:54:17Z</time>
      </trkpt>
      <trkpt lat="46.48565" lon="6.06668">
        <ele>1124.3</ele>
        <time>2021-08-19T08:54:18Z</time>
      </trkpt>
      <trkpt lat="46.48564" lon="6.06665">
        <ele>1124.4</ele>
        <time>2021-08-19T08:54:19Z</time>
      </trkpt>
      <trkpt lat="46.48563" lon="6.06662">
        <ele>1124.5</ele>
        <time>2021-08-19T08:54:21Z</time>
      </trkpt>
      <trkpt lat="46.48562" lon="6.06658">
        <ele>1124.6</ele>
        <time>2021-08-19T08:54:22Z</time>
      </trkpt>
      <trkpt lat="46.48561" lon="6.06656">
        <ele>1124.6</ele>
        <time>2021-08-19T08:54:23Z</time>
      </trkpt>
      <trkpt lat="46.48558" lon="6.06651">
        <ele>1124.7</ele>
        <time>2021-08-19T08:54:25Z</time>
      </trkpt>
      <trkpt lat="46.48557" lon="6.06647">
        <ele>1124.8</ele>
        <time>2021-08-19T08:54:27Z</time>
      </trkpt>
      <trkpt lat="46.48556" lon="6.06644">
        <ele>1124.8</ele>
        <time>2021-08-19T08:54:28Z</time>
      </trkpt>
      <trkpt lat="46.48554" lon="6.06639">
        <ele>1124.9</ele>
        <time>2021-08-19T08:54:30Z</time>
      </trkpt>
      <trkpt lat="46.48552" lon="6.06635">
        <ele>1125</ele>
        <time>2021-08-19T08:54:31Z</time>
      </trkpt>
      <trkpt lat="46.48552" lon="6.06633">
        <ele>1125.1</ele>
        <time>2021-08-19T08:54:32Z</time>
      </trkpt>
      <trkpt lat="46.4855" lon="6.06629">
        <ele>1125.2</ele>
        <time>2021-08-19T08:54:33Z</time>
      </trkpt>
      <trkpt lat="46.48549" lon="6.06627">
        <ele>1125.3</ele>
        <time>2021-08-19T08:54:34Z</time>
      </trkpt>
      <trkpt lat="46.48548" lon="6.0662">
        <ele>1125.4</ele>
        <time>2021-08-19T08:54:36Z</time>
      </trkpt>
      <trkpt lat="46.48547" lon="6.06616">
        <ele>1125.6</ele>
        <time>2021-08-19T08:54:38Z</time>
      </trkpt>
      <trkpt lat="46.48546" lon="6.06613">
        <ele>1125.6</ele>
        <time>2021-08-19T08:54:39Z</time>
      </trkpt>
      <trkpt lat="46.48545" lon="6.06609">
        <ele>1125.8</ele>
        <time>2021-08-19T08:54:41Z</time>
      </trkpt>
      <trkpt lat="46.48544" lon="6.06603">
        <ele>1126</ele>
        <time>2021-08-19T08:54:43Z</time>
      </trkpt>
      <trkpt lat="46.48542" lon="6.06599">
        <ele>1126.1</ele>
        <time>2021-08-19T08:54:44Z</time>
      </trkpt>
      <trkpt lat="46.48541" lon="6.06597">
        <ele>1126.2</ele>
        <time>2021-08-19T08:54:45Z</time>
      </trkpt>
      <trkpt lat="46.48539" lon="6.06593">
        <ele>1126.4</ele>
        <time>2021-08-19T08:54:47Z</time>
      </trkpt>
      <trkpt lat="46.48539" lon="6.0659">
        <ele>1126.5</ele>
        <time>2021-08-19T08:54:48Z</time>
      </trkpt>
      <trkpt lat="46.48538" lon="6.06586">
        <ele>1126.6</ele>
        <time>2021-08-19T08:54:50Z</time>
      </trkpt>
      <trkpt lat="46.48537" lon="6.06583">
        <ele>1126.7</ele>
        <time>2021-08-19T08:54:51Z</time>
      </trkpt>
      <trkpt lat="46.48537" lon="6.0658">
        <ele>1126.8</ele>
        <time>2021-08-19T08:54:53Z</time>
      </trkpt>
      <trkpt lat="46.48537" lon="6.06576">
        <ele>1126.9</ele>
        <time>2021-08-19T08:54:54Z</time>
      </trkpt>
      <trkpt lat="46.48537" lon="6.06573">
        <ele>1127.1</ele>
        <time>2021-08-19T08:54:56Z</time>
      </trkpt>
      <trkpt lat="46.48536" lon="6.06567">
        <ele>1127.2</ele>
        <time>2021-08-19T08:54:57Z</time>
      </trkpt>
      <trkpt lat="46.48536" lon="6.06566">
        <ele>1127.3</ele>
        <time>2021-08-19T08:54:58Z</time>
      </trkpt>
      <trkpt lat="46.48535" lon="6.0656">
        <ele>1127.5</ele>
        <time>2021-08-19T08:55:00Z</time>
      </trkpt>
      <trkpt lat="46.48536" lon="6.06556">
        <ele>1127.6</ele>
        <time>2021-08-19T08:55:01Z</time>
      </trkpt>
      <trkpt lat="46.48536" lon="6.06554">
        <ele>1127.7</ele>
        <time>2021-08-19T08:55:02Z</time>
      </trkpt>
      <trkpt lat="46.48536" lon="6.0655">
        <ele>1127.8</ele>
        <time>2021-08-19T08:55:04Z</time>
      </trkpt>
      <trkpt lat="46.48534" lon="6.06545">
        <ele>1127.9</ele>
        <time>2021-08-19T08:55:06Z</time>
      </trkpt>
      <trkpt lat="46.48532" lon="6.06541">
        <ele>1128.1</ele>
        <time>2021-08-19T08:55:07Z</time>
      </trkpt>
      <trkpt lat="46.48532" lon="6.0654">
        <ele>1128.1</ele>
        <time>2021-08-19T08:55:08Z</time>
      </trkpt>
      <trkpt lat="46.4853" lon="6.06535">
        <ele>1128.3</ele>
        <time>2021-08-19T08:55:10Z</time>
      </trkpt>
      <trkpt lat="46.48529" lon="6.06533">
        <ele>1128.3</ele>
        <time>2021-08-19T08:55:11Z</time>
      </trkpt>
      <trkpt lat="46.48528" lon="6.0653">
        <ele>1128.4</ele>
        <time>2021-08-19T08:55:12Z</time>
      </trkpt>
      <trkpt lat="46.48527" lon="6.06527">
        <ele>1128.5</ele>
        <time>2021-08-19T08:55:14Z</time>
      </trkpt>
      <trkpt lat="46.48526" lon="6.06524">
        <ele>1128.6</ele>
        <time>2021-08-19T08:55:15Z</time>
      </trkpt>
      <trkpt lat="46.48524" lon="6.06521">
        <ele>1128.6</ele>
        <time>2021-08-19T08:55:17Z</time>
      </trkpt>
      <trkpt lat="46.48522" lon="6.06516">
        <ele>1128.7</ele>
        <time>2021-08-19T08:55:18Z</time>
      </trkpt>
      <trkpt lat="46.48522" lon="6.06514">
        <ele>1128.8</ele>
        <time>2021-08-19T08:55:19Z</time>
      </trkpt>
      <trkpt lat="46.4852" lon="6.06512">
        <ele>1128.8</ele>
        <time>2021-08-19T08:55:20Z</time>
      </trkpt>
      <trkpt lat="46.48518" lon="6.06509">
        <ele>1128.8</ele>
        <time>2021-08-19T08:55:21Z</time>
      </trkpt>
      <trkpt lat="46.48516" lon="6.06507">
        <ele>1128.9</ele>
        <time>2021-08-19T08:55:23Z</time>
      </trkpt>
      <trkpt lat="46.48514" lon="6.06503">
        <ele>1128.9</ele>
        <time>2021-08-19T08:55:24Z</time>
      </trkpt>
      <trkpt lat="46.48512" lon="6.06501">
        <ele>1128.9</ele>
        <time>2021-08-19T08:55:25Z</time>
      </trkpt>
      <trkpt lat="46.4851" lon="6.06497">
        <ele>1128.9</ele>
        <time>2021-08-19T08:55:27Z</time>
      </trkpt>
      <trkpt lat="46.48508" lon="6.06492">
        <ele>1128.8</ele>
        <time>2021-08-19T08:55:28Z</time>
      </trkpt>
      <trkpt lat="46.48505" lon="6.06488">
        <ele>1128.7</ele>
        <time>2021-08-19T08:55:30Z</time>
      </trkpt>
      <trkpt lat="46.48503" lon="6.06484">
        <ele>1128.6</ele>
        <time>2021-08-19T08:55:31Z</time>
      </trkpt>
      <trkpt lat="46.48501" lon="6.06478">
        <ele>1128.5</ele>
        <time>2021-08-19T08:55:33Z</time>
      </trkpt>
      <trkpt lat="46.485" lon="6.06473">
        <ele>1128.3</ele>
        <time>2021-08-19T08:55:34Z</time>
      </trkpt>
      <trkpt lat="46.485" lon="6.06466">
        <ele>1128.1</ele>
        <time>2021-08-19T08:55:36Z</time>
      </trkpt>
      <trkpt lat="46.48499" lon="6.06461">
        <ele>1128</ele>
        <time>2021-08-19T08:55:37Z</time>
      </trkpt>
      <trkpt lat="46.48498" lon="6.06454">
        <ele>1127.8</ele>
        <time>2021-08-19T08:55:39Z</time>
      </trkpt>
      <trkpt lat="46.48495" lon="6.06445">
        <ele>1127.5</ele>
        <time>2021-08-19T08:55:40Z</time>
      </trkpt>
      <trkpt lat="46.4849" lon="6.06437">
        <ele>1127.3</ele>
        <time>2021-08-19T08:55:41Z</time>
      </trkpt>
      <trkpt lat="46.48487" lon="6.0643">
        <ele>1127.3</ele>
        <time>2021-08-19T08:55:42Z</time>
      </trkpt>
      <trkpt lat="46.4848" lon="6.06416">
        <ele>1127.3</ele>
        <time>2021-08-19T08:55:44Z</time>
      </trkpt>
      <trkpt lat="46.48477" lon="6.06409">
        <ele>1127.4</ele>
        <time>2021-08-19T08:55:45Z</time>
      </trkpt>
      <trkpt lat="46.48475" lon="6.06399">
        <ele>1127.6</ele>
        <time>2021-08-19T08:55:47Z</time>
      </trkpt>
      <trkpt lat="46.48477" lon="6.06395">
        <ele>1127.6</ele>
        <time>2021-08-19T08:55:48Z</time>
      </trkpt>
      <trkpt lat="46.48475" lon="6.06391">
        <ele>1127.7</ele>
        <time>2021-08-19T08:55:49Z</time>
      </trkpt>
      <trkpt lat="46.48472" lon="6.06385">
        <ele>1127.9</ele>
        <time>2021-08-19T08:55:51Z</time>
      </trkpt>
      <trkpt lat="46.4847" lon="6.0638">
        <ele>1128</ele>
        <time>2021-08-19T08:55:52Z</time>
      </trkpt>
      <trkpt lat="46.48468" lon="6.06374">
        <ele>1128.2</ele>
        <time>2021-08-19T08:55:54Z</time>
      </trkpt>
      <trkpt lat="46.48466" lon="6.06369">
        <ele>1128.3</ele>
        <time>2021-08-19T08:55:55Z</time>
      </trkpt>
      <trkpt lat="46.48465" lon="6.06367">
        <ele>1128.3</ele>
        <time>2021-08-19T08:55:56Z</time>
      </trkpt>
      <trkpt lat="46.48462" lon="6.06364">
        <ele>1128.4</ele>
        <time>2021-08-19T08:55:57Z</time>
      </trkpt>
      <trkpt lat="46.48458" lon="6.06361">
        <ele>1128.4</ele>
        <time>2021-08-19T08:55:59Z</time>
      </trkpt>
      <trkpt lat="46.48456" lon="6.06357">
        <ele>1128.4</ele>
        <time>2021-08-19T08:56:00Z</time>
      </trkpt>
      <trkpt lat="46.48453" lon="6.06352">
        <ele>1128.4</ele>
        <time>2021-08-19T08:56:01Z</time>
      </trkpt>
      <trkpt lat="46.48452" lon="6.06351">
        <ele>1128.4</ele>
        <time>2021-08-19T08:56:02Z</time>
      </trkpt>
      <trkpt lat="46.48449" lon="6.06345">
        <ele>1128.3</ele>
        <time>2021-08-19T08:56:04Z</time>
      </trkpt>
      <trkpt lat="46.48446" lon="6.06339">
        <ele>1128.3</ele>
        <time>2021-08-19T08:56:05Z</time>
      </trkpt>
      <trkpt lat="46.48444" lon="6.06335">
        <ele>1128.3</ele>
        <time>2021-08-19T08:56:06Z</time>
      </trkpt>
      <trkpt lat="46.48443" lon="6.06331">
        <ele>1128.3</ele>
        <time>2021-08-19T08:56:07Z</time>
      </trkpt>
      <trkpt lat="46.48441" lon="6.06322">
        <ele>1128.3</ele>
        <time>2021-08-19T08:56:09Z</time>
      </trkpt>
      <trkpt lat="46.48439" lon="6.06314">
        <ele>1128.3</ele>
        <time>2021-08-19T08:56:11Z</time>
      </trkpt>
      <trkpt lat="46.48438" lon="6.06308">
        <ele>1128.3</ele>
        <time>2021-08-19T08:56:12Z</time>
      </trkpt>
      <trkpt lat="46.48435" lon="6.063">
        <ele>1128.3</ele>
        <time>2021-08-19T08:56:14Z</time>
      </trkpt>
      <trkpt lat="46.48433" lon="6.06293">
        <ele>1128.3</ele>
        <time>2021-08-19T08:56:15Z</time>
      </trkpt>
      <trkpt lat="46.48432" lon="6.06289">
        <ele>1128.3</ele>
        <time>2021-08-19T08:56:16Z</time>
      </trkpt>
      <trkpt lat="46.4843" lon="6.06285">
        <ele>1128.3</ele>
        <time>2021-08-19T08:56:17Z</time>
      </trkpt>
      <trkpt lat="46.48428" lon="6.0628">
        <ele>1128.3</ele>
        <time>2021-08-19T08:56:18Z</time>
      </trkpt>
      <trkpt lat="46.48425" lon="6.06273">
        <ele>1128.1</ele>
        <time>2021-08-19T08:56:20Z</time>
      </trkpt>
      <trkpt lat="46.48422" lon="6.06268">
        <ele>1128</ele>
        <time>2021-08-19T08:56:21Z</time>
      </trkpt>
      <trkpt lat="46.48419" lon="6.06263">
        <ele>1127.8</ele>
        <time>2021-08-19T08:56:22Z</time>
      </trkpt>
      <trkpt lat="46.48417" lon="6.06256">
        <ele>1127.6</ele>
        <time>2021-08-19T08:56:23Z</time>
      </trkpt>
      <trkpt lat="46.48415" lon="6.06252">
        <ele>1127.4</ele>
        <time>2021-08-19T08:56:24Z</time>
      </trkpt>
      <trkpt lat="46.48414" lon="6.06245">
        <ele>1127.1</ele>
        <time>2021-08-19T08:56:26Z</time>
      </trkpt>
      <trkpt lat="46.48413" lon="6.06241">
        <ele>1126.8</ele>
        <time>2021-08-19T08:56:27Z</time>
      </trkpt>
      <trkpt lat="46.48412" lon="6.0624">
        <ele>1126.8</ele>
        <time>2021-08-19T08:56:28Z</time>
      </trkpt>
      <trkpt lat="46.48413" lon="6.06234">
        <ele>1126.5</ele>
        <time>2021-08-19T08:56:30Z</time>
      </trkpt>
      <trkpt lat="46.48413" lon="6.06229">
        <ele>1126.2</ele>
        <time>2021-08-19T08:56:31Z</time>
      </trkpt>
      <trkpt lat="46.48413" lon="6.06222">
        <ele>1125.9</ele>
        <time>2021-08-19T08:56:32Z</time>
      </trkpt>
      <trkpt lat="46.48413" lon="6.06217">
        <ele>1125.7</ele>
        <time>2021-08-19T08:56:33Z</time>
      </trkpt>
      <trkpt lat="46.48411" lon="6.06209">
        <ele>1125.4</ele>
        <time>2021-08-19T08:56:35Z</time>
      </trkpt>
      <trkpt lat="46.4841" lon="6.06202">
        <ele>1125.2</ele>
        <time>2021-08-19T08:56:36Z</time>
      </trkpt>
      <trkpt lat="46.48409" lon="6.06198">
        <ele>1125.2</ele>
        <time>2021-08-19T08:56:37Z</time>
      </trkpt>
      <trkpt lat="46.48408" lon="6.06194">
        <ele>1125.1</ele>
        <time>2021-08-19T08:56:38Z</time>
      </trkpt>
      <trkpt lat="46.48404" lon="6.06189">
        <ele>1125</ele>
        <time>2021-08-19T08:56:40Z</time>
      </trkpt>
      <trkpt lat="46.48402" lon="6.06185">
        <ele>1125</ele>
        <time>2021-08-19T08:56:41Z</time>
      </trkpt>
      <trkpt lat="46.48401" lon="6.06183">
        <ele>1125</ele>
        <time>2021-08-19T08:56:42Z</time>
      </trkpt>
      <trkpt lat="46.484" lon="6.06181">
        <ele>1125</ele>
        <time>2021-08-19T08:56:43Z</time>
      </trkpt>
      <trkpt lat="46.48399" lon="6.0618">
        <ele>1124.9</ele>
        <time>2021-08-19T08:56:44Z</time>
      </trkpt>
      <trkpt lat="46.48399" lon="6.06181">
        <ele>1124.9</ele>
        <time>2021-08-19T08:56:46Z</time>
      </trkpt>
      <trkpt lat="46.48399" lon="6.06181">
        <ele>1124.9</ele>
        <time>2021-08-19T08:56:48Z</time>
      </trkpt>
      <trkpt lat="46.48399" lon="6.06181">
        <ele>1124.9</ele>
        <time>2021-08-19T08:56:49Z</time>
      </trkpt>
      <trkpt lat="46.48399" lon="6.06181">
        <ele>1124.9</ele>
        <time>2021-08-19T08:56:51Z</time>
      </trkpt>
      <trkpt lat="46.48399" lon="6.06181">
        <ele>1124.9</ele>
        <time>2021-08-19T08:56:52Z</time>
      </trkpt>
      <trkpt lat="46.48399" lon="6.06181">
        <ele>1124.9</ele>
        <time>2021-08-19T08:56:53Z</time>
      </trkpt>
      <trkpt lat="46.48399" lon="6.06181">
        <ele>1124.9</ele>
        <time>2021-08-19T08:56:55Z</time>
      </trkpt>
      <trkpt lat="46.48394" lon="6.06171">
        <ele>1124.5</ele>
        <time>2021-08-19T08:57:30Z</time>
      </trkpt>
      <trkpt lat="46.48391" lon="6.06168">
        <ele>1124.1</ele>
        <time>2021-08-19T08:57:31Z</time>
      </trkpt>
      <trkpt lat="46.48389" lon="6.06164">
        <ele>1123.7</ele>
        <time>2021-08-19T08:57:32Z</time>
      </trkpt>
      <trkpt lat="46.48385" lon="6.06161">
        <ele>1123</ele>
        <time>2021-08-19T08:57:34Z</time>
      </trkpt>
      <trkpt lat="46.48382" lon="6.06159">
        <ele>1122.4</ele>
        <time>2021-08-19T08:57:35Z</time>
      </trkpt>
      <trkpt lat="46.4838" lon="6.06156">
        <ele>1121.8</ele>
        <time>2021-08-19T08:57:37Z</time>
      </trkpt>
      <trkpt lat="46.48377" lon="6.06153">
        <ele>1121.1</ele>
        <time>2021-08-19T08:57:38Z</time>
      </trkpt>
      <trkpt lat="46.48375" lon="6.06149">
        <ele>1120.2</ele>
        <time>2021-08-19T08:57:39Z</time>
      </trkpt>
      <trkpt lat="46.48372" lon="6.06143">
        <ele>1119.1</ele>
        <time>2021-08-19T08:57:40Z</time>
      </trkpt>
      <trkpt lat="46.48369" lon="6.06139">
        <ele>1118.3</ele>
        <time>2021-08-19T08:57:41Z</time>
      </trkpt>
      <trkpt lat="46.48364" lon="6.06129">
        <ele>1116.7</ele>
        <time>2021-08-19T08:57:43Z</time>
      </trkpt>
      <trkpt lat="46.4836" lon="6.06121">
        <ele>1115.4</ele>
        <time>2021-08-19T08:57:45Z</time>
      </trkpt>
      <trkpt lat="46.48358" lon="6.06117">
        <ele>1114.9</ele>
        <time>2021-08-19T08:57:46Z</time>
      </trkpt>
      <trkpt lat="46.48357" lon="6.06114">
        <ele>1114.6</ele>
        <time>2021-08-19T08:57:47Z</time>
      </trkpt>
      <trkpt lat="46.48354" lon="6.06112">
        <ele>1114.1</ele>
        <time>2021-08-19T08:57:49Z</time>
      </trkpt>
      <trkpt lat="46.48353" lon="6.06115">
        <ele>1113.8</ele>
        <time>2021-08-19T08:57:51Z</time>
      </trkpt>
      <trkpt lat="46.4835" lon="6.06117">
        <ele>1112.5</ele>
        <time>2021-08-19T08:57:53Z</time>
      </trkpt>
      <trkpt lat="46.48348" lon="6.06118">
        <ele>1112.6</ele>
        <time>2021-08-19T08:57:55Z</time>
      </trkpt>
      <trkpt lat="46.48345" lon="6.0612">
        <ele>1112.6</ele>
        <time>2021-08-19T08:57:57Z</time>
      </trkpt>
      <trkpt lat="46.48342" lon="6.06122">
        <ele>1112.7</ele>
        <time>2021-08-19T08:58:24Z</time>
      </trkpt>
      <trkpt lat="46.4834" lon="6.06123">
        <ele>1112.7</ele>
        <time>2021-08-19T08:58:25Z</time>
      </trkpt>
      <trkpt lat="46.48331" lon="6.06135">
        <ele>1112.8</ele>
        <time>2021-08-19T08:58:27Z</time>
      </trkpt>
      <trkpt lat="46.48322" lon="6.06144">
        <ele>1112.8</ele>
        <time>2021-08-19T08:58:29Z</time>
      </trkpt>
      <trkpt lat="46.48316" lon="6.06153">
        <ele>1112.9</ele>
        <time>2021-08-19T08:58:31Z</time>
      </trkpt>
      <trkpt lat="46.4831" lon="6.06161">
        <ele>1112.9</ele>
        <time>2021-08-19T08:58:33Z</time>
      </trkpt>
      <trkpt lat="46.48308" lon="6.06165">
        <ele>1112.9</ele>
        <time>2021-08-19T08:58:34Z</time>
      </trkpt>
      <trkpt lat="46.48302" lon="6.06173">
        <ele>1112.9</ele>
        <time>2021-08-19T08:58:36Z</time>
      </trkpt>
      <trkpt lat="46.483" lon="6.06176">
        <ele>1113</ele>
        <time>2021-08-19T08:58:37Z</time>
      </trkpt>
      <trkpt lat="46.48295" lon="6.06182">
        <ele>1113</ele>
        <time>2021-08-19T08:58:39Z</time>
      </trkpt>
      <trkpt lat="46.48293" lon="6.06184">
        <ele>1113.1</ele>
        <time>2021-08-19T08:58:40Z</time>
      </trkpt>
      <trkpt lat="46.4829" lon="6.06187">
        <ele>1113.1</ele>
        <time>2021-08-19T08:58:42Z</time>
      </trkpt>
      <trkpt lat="46.48288" lon="6.0619">
        <ele>1113.1</ele>
        <time>2021-08-19T08:58:43Z</time>
      </trkpt>
      <trkpt lat="46.48287" lon="6.06193">
        <ele>1113.2</ele>
        <time>2021-08-19T08:58:44Z</time>
      </trkpt>
      <trkpt lat="46.48285" lon="6.06196">
        <ele>1113.2</ele>
        <time>2021-08-19T08:58:46Z</time>
      </trkpt>
      <trkpt lat="46.48283" lon="6.06201">
        <ele>1113.2</ele>
        <time>2021-08-19T08:58:47Z</time>
      </trkpt>
      <trkpt lat="46.48282" lon="6.06202">
        <ele>1113.2</ele>
        <time>2021-08-19T08:58:48Z</time>
      </trkpt>
      <trkpt lat="46.48279" lon="6.06206">
        <ele>1113.2</ele>
        <time>2021-08-19T08:58:50Z</time>
      </trkpt>
      <trkpt lat="46.48276" lon="6.06209">
        <ele>1113.2</ele>
        <time>2021-08-19T08:58:51Z</time>
      </trkpt>
      <trkpt lat="46.48274" lon="6.0621">
        <ele>1113.2</ele>
        <time>2021-08-19T08:58:52Z</time>
      </trkpt>
      <trkpt lat="46.48272" lon="6.06213">
        <ele>1113.2</ele>
        <time>2021-08-19T08:58:54Z</time>
      </trkpt>
      <trkpt lat="46.48272" lon="6.06215">
        <ele>1113.2</ele>
        <time>2021-08-19T08:58:55Z</time>
      </trkpt>
      <trkpt lat="46.48273" lon="6.06219">
        <ele>1113.2</ele>
        <time>2021-08-19T08:58:57Z</time>
      </trkpt>
      <trkpt lat="46.48275" lon="6.06218">
        <ele>1113.2</ele>
        <time>2021-08-19T08:58:59Z</time>
      </trkpt>
      <trkpt lat="46.48275" lon="6.06218">
        <ele>1113.2</ele>
        <time>2021-08-19T08:59:01Z</time>
      </trkpt>
      <trkpt lat="46.48276" lon="6.06218">
        <ele>1113.2</ele>
        <time>2021-08-19T08:59:02Z</time>
      </trkpt>
      <trkpt lat="46.48276" lon="6.06216">
        <ele>1113.2</ele>
        <time>2021-08-19T08:59:04Z</time>
      </trkpt>
      <trkpt lat="46.48277" lon="6.06215">
        <ele>1113.2</ele>
        <time>2021-08-19T08:59:05Z</time>
      </trkpt>
      <trkpt lat="46.4828" lon="6.06212">
        <ele>1113.2</ele>
        <time>2021-08-19T08:59:08Z</time>
      </trkpt>
      <trkpt lat="46.4828" lon="6.06203">
        <ele>1113.2</ele>
        <time>2021-08-19T08:59:09Z</time>
      </trkpt>
      <trkpt lat="46.48279" lon="6.06192">
        <ele>1113.2</ele>
        <time>2021-08-19T08:59:11Z</time>
      </trkpt>
      <trkpt lat="46.48279" lon="6.06186">
        <ele>1113.2</ele>
        <time>2021-08-19T08:59:12Z</time>
      </trkpt>
      <trkpt lat="46.48282" lon="6.06177">
        <ele>1113.1</ele>
        <time>2021-08-19T08:59:14Z</time>
      </trkpt>
      <trkpt lat="46.48287" lon="6.06172">
        <ele>1113.5</ele>
        <time>2021-08-19T08:59:16Z</time>
      </trkpt>
      <trkpt lat="46.48293" lon="6.06164">
        <ele>1113.6</ele>
        <time>2021-08-19T08:59:18Z</time>
      </trkpt>
      <trkpt lat="46.48295" lon="6.06161">
        <ele>1113.7</ele>
        <time>2021-08-19T08:59:19Z</time>
      </trkpt>
      <trkpt lat="46.48294" lon="6.06155">
        <ele>1113.8</ele>
        <time>2021-08-19T08:59:20Z</time>
      </trkpt>
      <trkpt lat="46.48294" lon="6.06153">
        <ele>1113.8</ele>
        <time>2021-08-19T08:59:21Z</time>
      </trkpt>
      <trkpt lat="46.48291" lon="6.06148">
        <ele>1113.9</ele>
        <time>2021-08-19T08:59:23Z</time>
      </trkpt>
      <trkpt lat="46.48288" lon="6.06144">
        <ele>1114</ele>
        <time>2021-08-19T08:59:25Z</time>
      </trkpt>
      <trkpt lat="46.48287" lon="6.0614">
        <ele>1113.9</ele>
        <time>2021-08-19T08:59:27Z</time>
      </trkpt>
      <trkpt lat="46.48288" lon="6.06137">
        <ele>1113.9</ele>
        <time>2021-08-19T08:59:29Z</time>
      </trkpt>
      <trkpt lat="46.4829" lon="6.06133">
        <ele>1113.8</ele>
        <time>2021-08-19T08:59:31Z</time>
      </trkpt>
      <trkpt lat="46.4829" lon="6.06131">
        <ele>1113.8</ele>
        <time>2021-08-19T08:59:32Z</time>
      </trkpt>
      <trkpt lat="46.48289" lon="6.06126">
        <ele>1113.8</ele>
        <time>2021-08-19T08:59:34Z</time>
      </trkpt>
      <trkpt lat="46.48288" lon="6.06124">
        <ele>1113.8</ele>
        <time>2021-08-19T08:59:35Z</time>
      </trkpt>
      <trkpt lat="46.48288" lon="6.06122">
        <ele>1113.8</ele>
        <time>2021-08-19T08:59:36Z</time>
      </trkpt>
      <trkpt lat="46.48288" lon="6.06119">
        <ele>1113.8</ele>
        <time>2021-08-19T08:59:37Z</time>
      </trkpt>
      <trkpt lat="46.48289" lon="6.06117">
        <ele>1113.7</ele>
        <time>2021-08-19T08:59:39Z</time>
      </trkpt>
      <trkpt lat="46.48288" lon="6.06115">
        <ele>1113.7</ele>
        <time>2021-08-19T08:59:40Z</time>
      </trkpt>
      <trkpt lat="46.48283" lon="6.06112">
        <ele>1113.7</ele>
        <time>2021-08-19T08:59:42Z</time>
      </trkpt>
      <trkpt lat="46.48279" lon="6.06112">
        <ele>1113.7</ele>
        <time>2021-08-19T08:59:44Z</time>
      </trkpt>
      <trkpt lat="46.48279" lon="6.06113">
        <ele>1113.7</ele>
        <time>2021-08-19T08:59:45Z</time>
      </trkpt>
      <trkpt lat="46.48278" lon="6.06115">
        <ele>1113.6</ele>
        <time>2021-08-19T08:59:46Z</time>
      </trkpt>
      <trkpt lat="46.48276" lon="6.06118">
        <ele>1113.6</ele>
        <time>2021-08-19T08:59:48Z</time>
      </trkpt>
      <trkpt lat="46.48274" lon="6.06119">
        <ele>1113.6</ele>
        <time>2021-08-19T08:59:49Z</time>
      </trkpt>
      <trkpt lat="46.48273" lon="6.06119">
        <ele>1113.6</ele>
        <time>2021-08-19T08:59:51Z</time>
      </trkpt>
      <trkpt lat="46.48272" lon="6.0612">
        <ele>1113.6</ele>
        <time>2021-08-19T08:59:52Z</time>
      </trkpt>
      <trkpt lat="46.48271" lon="6.06121">
        <ele>1113.6</ele>
        <time>2021-08-19T08:59:54Z</time>
      </trkpt>
      <trkpt lat="46.4827" lon="6.06122">
        <ele>1113.6</ele>
        <time>2021-08-19T08:59:55Z</time>
      </trkpt>
      <trkpt lat="46.48266" lon="6.06124">
        <ele>1113.5</ele>
        <time>2021-08-19T08:59:56Z</time>
      </trkpt>
      <trkpt lat="46.48261" lon="6.06129">
        <ele>1113.5</ele>
        <time>2021-08-19T08:59:58Z</time>
      </trkpt>
      <trkpt lat="46.48258" lon="6.06132">
        <ele>1113.5</ele>
        <time>2021-08-19T08:59:59Z</time>
      </trkpt>
      <trkpt lat="46.48253" lon="6.0614">
        <ele>1113.6</ele>
        <time>2021-08-19T09:00:01Z</time>
      </trkpt>
      <trkpt lat="46.48248" lon="6.06146">
        <ele>1113.7</ele>
        <time>2021-08-19T09:00:02Z</time>
      </trkpt>
      <trkpt lat="46.48243" lon="6.06153">
        <ele>1113.9</ele>
        <time>2021-08-19T09:00:04Z</time>
      </trkpt>
      <trkpt lat="46.48238" lon="6.06161">
        <ele>1114</ele>
        <time>2021-08-19T09:00:06Z</time>
      </trkpt>
      <trkpt lat="46.48233" lon="6.06169">
        <ele>1114.1</ele>
        <time>2021-08-19T09:00:08Z</time>
      </trkpt>
      <trkpt lat="46.4823" lon="6.06174">
        <ele>1114.2</ele>
        <time>2021-08-19T09:00:10Z</time>
      </trkpt>
      <trkpt lat="46.48227" lon="6.06177">
        <ele>1114.3</ele>
        <time>2021-08-19T09:00:11Z</time>
      </trkpt>
      <trkpt lat="46.48225" lon="6.06181">
        <ele>1114.3</ele>
        <time>2021-08-19T09:00:13Z</time>
      </trkpt>
      <trkpt lat="46.48224" lon="6.06181">
        <ele>1114.3</ele>
        <time>2021-08-19T09:00:14Z</time>
      </trkpt>
      <trkpt lat="46.48223" lon="6.06183">
        <ele>1114.3</ele>
        <time>2021-08-19T09:00:15Z</time>
      </trkpt>
      <trkpt lat="46.4822" lon="6.06184">
        <ele>1114.2</ele>
        <time>2021-08-19T09:00:17Z</time>
      </trkpt>
      <trkpt lat="46.48218" lon="6.06183">
        <ele>1114.2</ele>
        <time>2021-08-19T09:00:18Z</time>
      </trkpt>
      <trkpt lat="46.48218" lon="6.06181">
        <ele>1114.2</ele>
        <time>2021-08-19T09:00:20Z</time>
      </trkpt>
      <trkpt lat="46.48219" lon="6.06174">
        <ele>1114.1</ele>
        <time>2021-08-19T09:00:22Z</time>
      </trkpt>
      <trkpt lat="46.48225" lon="6.06165">
        <ele>1114</ele>
        <time>2021-08-19T09:00:24Z</time>
      </trkpt>
      <trkpt lat="46.4823" lon="6.06158">
        <ele>1114</ele>
        <time>2021-08-19T09:00:25Z</time>
      </trkpt>
      <trkpt lat="46.48237" lon="6.06149">
        <ele>1113.8</ele>
        <time>2021-08-19T09:00:27Z</time>
      </trkpt>
      <trkpt lat="46.4824" lon="6.06145">
        <ele>1113.8</ele>
        <time>2021-08-19T09:00:28Z</time>
      </trkpt>
      <trkpt lat="46.48243" lon="6.0614">
        <ele>1113.7</ele>
        <time>2021-08-19T09:00:29Z</time>
      </trkpt>
      <trkpt lat="46.48246" lon="6.06135">
        <ele>1113.7</ele>
        <time>2021-08-19T09:00:30Z</time>
      </trkpt>
      <trkpt lat="46.48249" lon="6.06131">
        <ele>1113.6</ele>
        <time>2021-08-19T09:00:31Z</time>
      </trkpt>
      <trkpt lat="46.48256" lon="6.06125">
        <ele>1113.5</ele>
        <time>2021-08-19T09:00:33Z</time>
      </trkpt>
      <trkpt lat="46.48259" lon="6.06123">
        <ele>1113.4</ele>
        <time>2021-08-19T09:00:34Z</time>
      </trkpt>
      <trkpt lat="46.48263" lon="6.06121">
        <ele>1113.3</ele>
        <time>2021-08-19T09:00:35Z</time>
      </trkpt>
      <trkpt lat="46.4827" lon="6.06118">
        <ele>1113.2</ele>
        <time>2021-08-19T09:00:37Z</time>
      </trkpt>
      <trkpt lat="46.48275" lon="6.06114">
        <ele>1113.1</ele>
        <time>2021-08-19T09:00:39Z</time>
      </trkpt>
      <trkpt lat="46.4828" lon="6.06112">
        <ele>1113</ele>
        <time>2021-08-19T09:00:40Z</time>
      </trkpt>
      <trkpt lat="46.48282" lon="6.06111">
        <ele>1113</ele>
        <time>2021-08-19T09:00:41Z</time>
      </trkpt>
      <trkpt lat="46.48287" lon="6.06107">
        <ele>1112.9</ele>
        <time>2021-08-19T09:00:43Z</time>
      </trkpt>
      <trkpt lat="46.48288" lon="6.06105">
        <ele>1112.8</ele>
        <time>2021-08-19T09:00:45Z</time>
      </trkpt>
      <trkpt lat="46.48289" lon="6.061">
        <ele>1112.8</ele>
        <time>2021-08-19T09:00:47Z</time>
      </trkpt>
      <trkpt lat="46.48292" lon="6.06096">
        <ele>1112.7</ele>
        <time>2021-08-19T09:00:49Z</time>
      </trkpt>
      <trkpt lat="46.48292" lon="6.06095">
        <ele>1112.7</ele>
        <time>2021-08-19T09:00:50Z</time>
      </trkpt>
      <trkpt lat="46.48294" lon="6.06094">
        <ele>1112.7</ele>
        <time>2021-08-19T09:00:51Z</time>
      </trkpt>
      <trkpt lat="46.48298" lon="6.06091">
        <ele>1112.6</ele>
        <time>2021-08-19T09:00:53Z</time>
      </trkpt>
      <trkpt lat="46.48302" lon="6.06087">
        <ele>1112.5</ele>
        <time>2021-08-19T09:00:54Z</time>
      </trkpt>
      <trkpt lat="46.48306" lon="6.06084">
        <ele>1112.5</ele>
        <time>2021-08-19T09:00:56Z</time>
      </trkpt>
      <trkpt lat="46.48309" lon="6.0608">
        <ele>1112.4</ele>
        <time>2021-08-19T09:00:57Z</time>
      </trkpt>
      <trkpt lat="46.48314" lon="6.06074">
        <ele>1112.3</ele>
        <time>2021-08-19T09:00:58Z</time>
      </trkpt>
      <trkpt lat="46.48318" lon="6.06071">
        <ele>1112.2</ele>
        <time>2021-08-19T09:00:59Z</time>
      </trkpt>
      <trkpt lat="46.48325" lon="6.06063">
        <ele>1112.1</ele>
        <time>2021-08-19T09:01:01Z</time>
      </trkpt>
      <trkpt lat="46.48329" lon="6.06059">
        <ele>1112</ele>
        <time>2021-08-19T09:01:02Z</time>
      </trkpt>
      <trkpt lat="46.48335" lon="6.06062">
        <ele>1111.9</ele>
        <time>2021-08-19T09:01:04Z</time>
      </trkpt>
      <trkpt lat="46.48341" lon="6.06054">
        <ele>1111.8</ele>
        <time>2021-08-19T09:01:06Z</time>
      </trkpt>
      <trkpt lat="46.48343" lon="6.06051">
        <ele>1111.8</ele>
        <time>2021-08-19T09:01:07Z</time>
      </trkpt>
      <trkpt lat="46.48344" lon="6.06044">
        <ele>1111.7</ele>
        <time>2021-08-19T09:01:09Z</time>
      </trkpt>
      <trkpt lat="46.48345" lon="6.06042">
        <ele>1111.7</ele>
        <time>2021-08-19T09:01:10Z</time>
      </trkpt>
      <trkpt lat="46.48344" lon="6.06042">
        <ele>1111.7</ele>
        <time>2021-08-19T09:01:11Z</time>
      </trkpt>
      <trkpt lat="46.48343" lon="6.06041">
        <ele>1111.7</ele>
        <time>2021-08-19T09:01:12Z</time>
      </trkpt>
      <trkpt lat="46.48342" lon="6.06041">
        <ele>1111.7</ele>
        <time>2021-08-19T09:01:14Z</time>
      </trkpt>
      <trkpt lat="46.48342" lon="6.06041">
        <ele>1111.7</ele>
        <time>2021-08-19T09:01:15Z</time>
      </trkpt>
      <trkpt lat="46.48343" lon="6.06041">
        <ele>1111.7</ele>
        <time>2021-08-19T09:01:17Z</time>
      </trkpt>
      <trkpt lat="46.48344" lon="6.0604">
        <ele>1111.6</ele>
        <time>2021-08-19T09:01:18Z</time>
      </trkpt>
      <trkpt lat="46.48345" lon="6.0604">
        <ele>1111.6</ele>
        <time>2021-08-19T09:01:19Z</time>
      </trkpt>
      <trkpt lat="46.48355" lon="6.06038">
        <ele>1111.5</ele>
        <time>2021-08-19T09:01:24Z</time>
      </trkpt>
      <trkpt lat="46.48361" lon="6.06032">
        <ele>1111.3</ele>
        <time>2021-08-19T09:01:26Z</time>
      </trkpt>
      <trkpt lat="46.48364" lon="6.06027">
        <ele>1111.3</ele>
        <time>2021-08-19T09:01:27Z</time>
      </trkpt>
      <trkpt lat="46.48364" lon="6.0602">
        <ele>1112</ele>
        <time>2021-08-19T09:01:29Z</time>
      </trkpt>
      <trkpt lat="46.48364" lon="6.06017">
        <ele>1112</ele>
        <time>2021-08-19T09:01:30Z</time>
      </trkpt>
      <trkpt lat="46.48364" lon="6.06012">
        <ele>1112</ele>
        <time>2021-08-19T09:01:32Z</time>
      </trkpt>
      <trkpt lat="46.48363" lon="6.06007">
        <ele>1112.8</ele>
        <time>2021-08-19T09:01:33Z</time>
      </trkpt>
      <trkpt lat="46.48362" lon="6.06005">
        <ele>1112.9</ele>
        <time>2021-08-19T09:01:34Z</time>
      </trkpt>
      <trkpt lat="46.4836" lon="6.06">
        <ele>1113.1</ele>
        <time>2021-08-19T09:01:35Z</time>
      </trkpt>
      <trkpt lat="46.48359" lon="6.05996">
        <ele>1113.4</ele>
        <time>2021-08-19T09:01:36Z</time>
      </trkpt>
      <trkpt lat="46.48357" lon="6.05991">
        <ele>1113.7</ele>
        <time>2021-08-19T09:01:38Z</time>
      </trkpt>
      <trkpt lat="46.48355" lon="6.05987">
        <ele>1114</ele>
        <time>2021-08-19T09:01:40Z</time>
      </trkpt>
      <trkpt lat="46.48353" lon="6.05984">
        <ele>1114.3</ele>
        <time>2021-08-19T09:01:42Z</time>
      </trkpt>
      <trkpt lat="46.48353" lon="6.0598">
        <ele>1114.5</ele>
        <time>2021-08-19T09:01:43Z</time>
      </trkpt>
      <trkpt lat="46.4835" lon="6.05974">
        <ele>1114.9</ele>
        <time>2021-08-19T09:01:45Z</time>
      </trkpt>
      <trkpt lat="46.48349" lon="6.05973">
        <ele>1115.1</ele>
        <time>2021-08-19T09:01:46Z</time>
      </trkpt>
      <trkpt lat="46.48345" lon="6.05971">
        <ele>1115.5</ele>
        <time>2021-08-19T09:01:48Z</time>
      </trkpt>
      <trkpt lat="46.48342" lon="6.0597">
        <ele>1115.8</ele>
        <time>2021-08-19T09:01:49Z</time>
      </trkpt>
      <trkpt lat="46.4834" lon="6.05969">
        <ele>1116.1</ele>
        <time>2021-08-19T09:01:50Z</time>
      </trkpt>
      <trkpt lat="46.48336" lon="6.05969">
        <ele>1116.5</ele>
        <time>2021-08-19T09:01:52Z</time>
      </trkpt>
      <trkpt lat="46.48333" lon="6.05966">
        <ele>1116.9</ele>
        <time>2021-08-19T09:01:54Z</time>
      </trkpt>
      <trkpt lat="46.48332" lon="6.05962">
        <ele>1117.3</ele>
        <time>2021-08-19T09:01:55Z</time>
      </trkpt>
      <trkpt lat="46.48333" lon="6.05957">
        <ele>1117.7</ele>
        <time>2021-08-19T09:01:56Z</time>
      </trkpt>
      <trkpt lat="46.48333" lon="6.05956">
        <ele>1117.8</ele>
        <time>2021-08-19T09:01:57Z</time>
      </trkpt>
      <trkpt lat="46.48335" lon="6.05952">
        <ele>1118.2</ele>
        <time>2021-08-19T09:01:59Z</time>
      </trkpt>
      <trkpt lat="46.48335" lon="6.0595">
        <ele>1118.4</ele>
        <time>2021-08-19T09:02:00Z</time>
      </trkpt>
      <trkpt lat="46.48337" lon="6.05947">
        <ele>1118.7</ele>
        <time>2021-08-19T09:02:02Z</time>
      </trkpt>
      <trkpt lat="46.48337" lon="6.05947">
        <ele>1118.8</ele>
        <time>2021-08-19T09:02:03Z</time>
      </trkpt>
      <trkpt lat="46.48337" lon="6.05947">
        <ele>1118.8</ele>
        <time>2021-08-19T09:02:04Z</time>
      </trkpt>
      <trkpt lat="46.48337" lon="6.05946">
        <ele>1118.9</ele>
        <time>2021-08-19T09:02:05Z</time>
      </trkpt>
      <trkpt lat="46.48337" lon="6.05944">
        <ele>1119</ele>
        <time>2021-08-19T09:02:06Z</time>
      </trkpt>
      <trkpt lat="46.48336" lon="6.05943">
        <ele>1119.2</ele>
        <time>2021-08-19T09:02:08Z</time>
      </trkpt>
      <trkpt lat="46.48336" lon="6.0594">
        <ele>1119.4</ele>
        <time>2021-08-19T09:02:10Z</time>
      </trkpt>
      <trkpt lat="46.48335" lon="6.05938">
        <ele>1119.6</ele>
        <time>2021-08-19T09:02:11Z</time>
      </trkpt>
      <trkpt lat="46.48333" lon="6.05936">
        <ele>1120</ele>
        <time>2021-08-19T09:02:13Z</time>
      </trkpt>
      <trkpt lat="46.48332" lon="6.05936">
        <ele>1120.1</ele>
        <time>2021-08-19T09:02:17Z</time>
      </trkpt>
      <trkpt lat="46.48331" lon="6.05935">
        <ele>1120.3</ele>
        <time>2021-08-19T09:02:18Z</time>
      </trkpt>
      <trkpt lat="46.4833" lon="6.05935">
        <ele>1120.4</ele>
        <time>2021-08-19T09:02:20Z</time>
      </trkpt>
      <trkpt lat="46.48329" lon="6.05935">
        <ele>1120.5</ele>
        <time>2021-08-19T09:02:21Z</time>
      </trkpt>
      <trkpt lat="46.48328" lon="6.05934">
        <ele>1120.7</ele>
        <time>2021-08-19T09:02:22Z</time>
      </trkpt>
      <trkpt lat="46.48327" lon="6.05934">
        <ele>1120.8</ele>
        <time>2021-08-19T09:02:23Z</time>
      </trkpt>
      <trkpt lat="46.48326" lon="6.05934">
        <ele>1120.9</ele>
        <time>2021-08-19T09:02:25Z</time>
      </trkpt>
      <trkpt lat="46.48325" lon="6.05933">
        <ele>1121.1</ele>
        <time>2021-08-19T09:02:26Z</time>
      </trkpt>
      <trkpt lat="46.48324" lon="6.05933">
        <ele>1121.2</ele>
        <time>2021-08-19T09:02:27Z</time>
      </trkpt>
      <trkpt lat="46.48323" lon="6.05933">
        <ele>1121.3</ele>
        <time>2021-08-19T09:02:29Z</time>
      </trkpt>
      <trkpt lat="46.48322" lon="6.05932">
        <ele>1121.5</ele>
        <time>2021-08-19T09:02:30Z</time>
      </trkpt>
      <trkpt lat="46.48321" lon="6.05932">
        <ele>1121.6</ele>
        <time>2021-08-19T09:02:32Z</time>
      </trkpt>
      <trkpt lat="46.4832" lon="6.05931">
        <ele>1121.7</ele>
        <time>2021-08-19T09:02:33Z</time>
      </trkpt>
      <trkpt lat="46.48319" lon="6.05931">
        <ele>1121.9</ele>
        <time>2021-08-19T09:02:35Z</time>
      </trkpt>
      <trkpt lat="46.48318" lon="6.05931">
        <ele>1122</ele>
        <time>2021-08-19T09:02:36Z</time>
      </trkpt>
      <trkpt lat="46.48316" lon="6.05928">
        <ele>1122.3</ele>
        <time>2021-08-19T09:02:37Z</time>
      </trkpt>
      <trkpt lat="46.48312" lon="6.05923">
        <ele>1123.1</ele>
        <time>2021-08-19T09:02:39Z</time>
      </trkpt>
      <trkpt lat="46.48308" lon="6.05919">
        <ele>1125.2</ele>
        <time>2021-08-19T09:02:41Z</time>
      </trkpt>
      <trkpt lat="46.48306" lon="6.05915">
        <ele>1125.3</ele>
        <time>2021-08-19T09:02:42Z</time>
      </trkpt>
      <trkpt lat="46.48305" lon="6.05915">
        <ele>1125.3</ele>
        <time>2021-08-19T09:02:43Z</time>
      </trkpt>
      <trkpt lat="46.48301" lon="6.05908">
        <ele>1125.5</ele>
        <time>2021-08-19T09:02:45Z</time>
      </trkpt>
      <trkpt lat="46.48298" lon="6.059">
        <ele>1125.4</ele>
        <time>2021-08-19T09:02:47Z</time>
      </trkpt>
      <trkpt lat="46.48297" lon="6.05892">
        <ele>1125.6</ele>
        <time>2021-08-19T09:02:48Z</time>
      </trkpt>
      <trkpt lat="46.48295" lon="6.05884">
        <ele>1125.8</ele>
        <time>2021-08-19T09:02:49Z</time>
      </trkpt>
      <trkpt lat="46.48293" lon="6.05879">
        <ele>1125.9</ele>
        <time>2021-08-19T09:02:50Z</time>
      </trkpt>
      <trkpt lat="46.48291" lon="6.05872">
        <ele>1126</ele>
        <time>2021-08-19T09:02:52Z</time>
      </trkpt>
      <trkpt lat="46.4829" lon="6.05866">
        <ele>1126.2</ele>
        <time>2021-08-19T09:02:53Z</time>
      </trkpt>
      <trkpt lat="46.48291" lon="6.0586">
        <ele>1126.3</ele>
        <time>2021-08-19T09:02:54Z</time>
      </trkpt>
      <trkpt lat="46.48291" lon="6.05856">
        <ele>1126.4</ele>
        <time>2021-08-19T09:02:55Z</time>
      </trkpt>
      <trkpt lat="46.4829" lon="6.05848">
        <ele>1126.6</ele>
        <time>2021-08-19T09:02:57Z</time>
      </trkpt>
      <trkpt lat="46.4829" lon="6.05841">
        <ele>1126.8</ele>
        <time>2021-08-19T09:02:58Z</time>
      </trkpt>
      <trkpt lat="46.4829" lon="6.05835">
        <ele>1127</ele>
        <time>2021-08-19T09:02:59Z</time>
      </trkpt>
      <trkpt lat="46.48289" lon="6.05832">
        <ele>1127.1</ele>
        <time>2021-08-19T09:03:00Z</time>
      </trkpt>
      <trkpt lat="46.48288" lon="6.05826">
        <ele>1127.4</ele>
        <time>2021-08-19T09:03:02Z</time>
      </trkpt>
      <trkpt lat="46.48286" lon="6.05821">
        <ele>1127.6</ele>
        <time>2021-08-19T09:03:03Z</time>
      </trkpt>
      <trkpt lat="46.48284" lon="6.05815">
        <ele>1127.9</ele>
        <time>2021-08-19T09:03:05Z</time>
      </trkpt>
      <trkpt lat="46.48282" lon="6.05811">
        <ele>1128.1</ele>
        <time>2021-08-19T09:03:07Z</time>
      </trkpt>
      <trkpt lat="46.4828" lon="6.05809">
        <ele>1128.2</ele>
        <time>2021-08-19T09:03:08Z</time>
      </trkpt>
      <trkpt lat="46.48278" lon="6.05807">
        <ele>1128.4</ele>
        <time>2021-08-19T09:03:10Z</time>
      </trkpt>
      <trkpt lat="46.48276" lon="6.05805">
        <ele>1128.5</ele>
        <time>2021-08-19T09:03:11Z</time>
      </trkpt>
      <trkpt lat="46.48274" lon="6.05801">
        <ele>1128.7</ele>
        <time>2021-08-19T09:03:13Z</time>
      </trkpt>
      <trkpt lat="46.48273" lon="6.05797">
        <ele>1128.9</ele>
        <time>2021-08-19T09:03:14Z</time>
      </trkpt>
      <trkpt lat="46.48273" lon="6.05792">
        <ele>1129</ele>
        <time>2021-08-19T09:03:15Z</time>
      </trkpt>
      <trkpt lat="46.48273" lon="6.0579">
        <ele>1129</ele>
        <time>2021-08-19T09:03:16Z</time>
      </trkpt>
      <trkpt lat="46.48273" lon="6.05783">
        <ele>1129.1</ele>
        <time>2021-08-19T09:03:18Z</time>
      </trkpt>
      <trkpt lat="46.48274" lon="6.05778">
        <ele>1129.2</ele>
        <time>2021-08-19T09:03:19Z</time>
      </trkpt>
      <trkpt lat="46.48273" lon="6.0577">
        <ele>1129.3</ele>
        <time>2021-08-19T09:03:21Z</time>
      </trkpt>
      <trkpt lat="46.48273" lon="6.05768">
        <ele>1129.3</ele>
        <time>2021-08-19T09:03:22Z</time>
      </trkpt>
      <trkpt lat="46.48272" lon="6.05765">
        <ele>1129.3</ele>
        <time>2021-08-19T09:03:23Z</time>
      </trkpt>
      <trkpt lat="46.48272" lon="6.05761">
        <ele>1129.3</ele>
        <time>2021-08-19T09:03:25Z</time>
      </trkpt>
      <trkpt lat="46.48272" lon="6.05758">
        <ele>1129.4</ele>
        <time>2021-08-19T09:03:27Z</time>
      </trkpt>
      <trkpt lat="46.48272" lon="6.05756">
        <ele>1129.4</ele>
        <time>2021-08-19T09:03:28Z</time>
      </trkpt>
      <trkpt lat="46.48273" lon="6.05754">
        <ele>1129.4</ele>
        <time>2021-08-19T09:03:29Z</time>
      </trkpt>
      <trkpt lat="46.48274" lon="6.05749">
        <ele>1129.4</ele>
        <time>2021-08-19T09:03:31Z</time>
      </trkpt>
      <trkpt lat="46.48276" lon="6.05743">
        <ele>1129.3</ele>
        <time>2021-08-19T09:03:32Z</time>
      </trkpt>
      <trkpt lat="46.48279" lon="6.05738">
        <ele>1129.3</ele>
        <time>2021-08-19T09:03:33Z</time>
      </trkpt>
      <trkpt lat="46.48283" lon="6.0573">
        <ele>1128.9</ele>
        <time>2021-08-19T09:03:35Z</time>
      </trkpt>
      <trkpt lat="46.48285" lon="6.05726">
        <ele>1128.8</ele>
        <time>2021-08-19T09:03:36Z</time>
      </trkpt>
      <trkpt lat="46.48287" lon="6.05722">
        <ele>1128.7</ele>
        <time>2021-08-19T09:03:37Z</time>
      </trkpt>
      <trkpt lat="46.48291" lon="6.05716">
        <ele>1128.6</ele>
        <time>2021-08-19T09:03:39Z</time>
      </trkpt>
      <trkpt lat="46.48292" lon="6.05713">
        <ele>1128.5</ele>
        <time>2021-08-19T09:03:40Z</time>
      </trkpt>
      <trkpt lat="46.48294" lon="6.05705">
        <ele>1128.5</ele>
        <time>2021-08-19T09:03:42Z</time>
      </trkpt>
      <trkpt lat="46.48294" lon="6.057">
        <ele>1128.5</ele>
        <time>2021-08-19T09:03:43Z</time>
      </trkpt>
      <trkpt lat="46.48293" lon="6.05696">
        <ele>1128.6</ele>
        <time>2021-08-19T09:03:44Z</time>
      </trkpt>
      <trkpt lat="46.48291" lon="6.05691">
        <ele>1128.6</ele>
        <time>2021-08-19T09:03:46Z</time>
      </trkpt>
      <trkpt lat="46.48289" lon="6.05684">
        <ele>1128.7</ele>
        <time>2021-08-19T09:03:47Z</time>
      </trkpt>
      <trkpt lat="46.48288" lon="6.0568">
        <ele>1128.8</ele>
        <time>2021-08-19T09:03:48Z</time>
      </trkpt>
      <trkpt lat="46.48286" lon="6.05674">
        <ele>1128.8</ele>
        <time>2021-08-19T09:03:50Z</time>
      </trkpt>
      <trkpt lat="46.48286" lon="6.05667">
        <ele>1128.8</ele>
        <time>2021-08-19T09:03:51Z</time>
      </trkpt>
      <trkpt lat="46.48286" lon="6.05661">
        <ele>1128.7</ele>
        <time>2021-08-19T09:03:53Z</time>
      </trkpt>
      <trkpt lat="46.48287" lon="6.05656">
        <ele>1128.6</ele>
        <time>2021-08-19T09:03:54Z</time>
      </trkpt>
      <trkpt lat="46.48288" lon="6.0565">
        <ele>1128.5</ele>
        <time>2021-08-19T09:03:55Z</time>
      </trkpt>
      <trkpt lat="46.4829" lon="6.05645">
        <ele>1128.3</ele>
        <time>2021-08-19T09:03:56Z</time>
      </trkpt>
      <trkpt lat="46.48291" lon="6.05643">
        <ele>1128.2</ele>
        <time>2021-08-19T09:03:57Z</time>
      </trkpt>
      <trkpt lat="46.48296" lon="6.05639">
        <ele>1128</ele>
        <time>2021-08-19T09:03:59Z</time>
      </trkpt>
      <trkpt lat="46.48299" lon="6.05639">
        <ele>1127.9</ele>
        <time>2021-08-19T09:04:00Z</time>
      </trkpt>
      <trkpt lat="46.48304" lon="6.05635">
        <ele>1127.5</ele>
        <time>2021-08-19T09:04:02Z</time>
      </trkpt>
      <trkpt lat="46.48307" lon="6.05631">
        <ele>1127.3</ele>
        <time>2021-08-19T09:04:03Z</time>
      </trkpt>
      <trkpt lat="46.48309" lon="6.05628">
        <ele>1127.1</ele>
        <time>2021-08-19T09:04:05Z</time>
      </trkpt>
      <trkpt lat="46.4831" lon="6.05627">
        <ele>1127</ele>
        <time>2021-08-19T09:04:06Z</time>
      </trkpt>
      <trkpt lat="46.48313" lon="6.05624">
        <ele>1126.6</ele>
        <time>2021-08-19T09:04:07Z</time>
      </trkpt>
      <trkpt lat="46.48315" lon="6.05623">
        <ele>1126.5</ele>
        <time>2021-08-19T09:04:08Z</time>
      </trkpt>
      <trkpt lat="46.4832" lon="6.05618">
        <ele>1125.9</ele>
        <time>2021-08-19T09:04:10Z</time>
      </trkpt>
      <trkpt lat="46.48326" lon="6.05614">
        <ele>1125.2</ele>
        <time>2021-08-19T09:04:11Z</time>
      </trkpt>
      <trkpt lat="46.48334" lon="6.0561">
        <ele>1123.5</ele>
        <time>2021-08-19T09:04:12Z</time>
      </trkpt>
      <trkpt lat="46.48341" lon="6.05608">
        <ele>1122.1</ele>
        <time>2021-08-19T09:04:14Z</time>
      </trkpt>
      <trkpt lat="46.48349" lon="6.05608">
        <ele>1120.6</ele>
        <time>2021-08-19T09:04:15Z</time>
      </trkpt>
      <trkpt lat="46.48354" lon="6.0561">
        <ele>1120.3</ele>
        <time>2021-08-19T09:04:16Z</time>
      </trkpt>
      <trkpt lat="46.48361" lon="6.05616">
        <ele>1119.7</ele>
        <time>2021-08-19T09:04:17Z</time>
      </trkpt>
      <trkpt lat="46.48372" lon="6.05626">
        <ele>1118.8</ele>
        <time>2021-08-19T09:04:19Z</time>
      </trkpt>
      <trkpt lat="46.48385" lon="6.05637">
        <ele>1117.5</ele>
        <time>2021-08-19T09:04:21Z</time>
      </trkpt>
      <trkpt lat="46.4839" lon="6.05643">
        <ele>1117.2</ele>
        <time>2021-08-19T09:04:22Z</time>
      </trkpt>
      <trkpt lat="46.48401" lon="6.05654">
        <ele>1116.5</ele>
        <time>2021-08-19T09:04:24Z</time>
      </trkpt>
      <trkpt lat="46.48407" lon="6.05659">
        <ele>1116.1</ele>
        <time>2021-08-19T09:04:25Z</time>
      </trkpt>
      <trkpt lat="46.4842" lon="6.05668">
        <ele>1115.3</ele>
        <time>2021-08-19T09:04:27Z</time>
      </trkpt>
      <trkpt lat="46.48426" lon="6.05672">
        <ele>1114.9</ele>
        <time>2021-08-19T09:04:28Z</time>
      </trkpt>
      <trkpt lat="46.48437" lon="6.05681">
        <ele>1114</ele>
        <time>2021-08-19T09:04:30Z</time>
      </trkpt>
      <trkpt lat="46.48448" lon="6.05693">
        <ele>1113</ele>
        <time>2021-08-19T09:04:32Z</time>
      </trkpt>
      <trkpt lat="46.4846" lon="6.05706">
        <ele>1112.4</ele>
        <time>2021-08-19T09:04:34Z</time>
      </trkpt>
      <trkpt lat="46.48466" lon="6.05712">
        <ele>1112.1</ele>
        <time>2021-08-19T09:04:35Z</time>
      </trkpt>
      <trkpt lat="46.48471" lon="6.0572">
        <ele>1111.9</ele>
        <time>2021-08-19T09:04:36Z</time>
      </trkpt>
      <trkpt lat="46.48481" lon="6.05735">
        <ele>1111.5</ele>
        <time>2021-08-19T09:04:38Z</time>
      </trkpt>
      <trkpt lat="46.48485" lon="6.05743">
        <ele>1111.4</ele>
        <time>2021-08-19T09:04:39Z</time>
      </trkpt>
      <trkpt lat="46.48488" lon="6.0575">
        <ele>1111.3</ele>
        <time>2021-08-19T09:04:40Z</time>
      </trkpt>
      <trkpt lat="46.48491" lon="6.05758">
        <ele>1111.2</ele>
        <time>2021-08-19T09:04:41Z</time>
      </trkpt>
      <trkpt lat="46.48495" lon="6.05775">
        <ele>1110.9</ele>
        <time>2021-08-19T09:04:43Z</time>
      </trkpt>
      <trkpt lat="46.48497" lon="6.05784">
        <ele>1110.8</ele>
        <time>2021-08-19T09:04:44Z</time>
      </trkpt>
      <trkpt lat="46.48501" lon="6.05801">
        <ele>1110.4</ele>
        <time>2021-08-19T09:04:46Z</time>
      </trkpt>
      <trkpt lat="46.48504" lon="6.05808">
        <ele>1110.3</ele>
        <time>2021-08-19T09:04:47Z</time>
      </trkpt>
      <trkpt lat="46.48508" lon="6.05822">
        <ele>1109.9</ele>
        <time>2021-08-19T09:04:49Z</time>
      </trkpt>
      <trkpt lat="46.4851" lon="6.05828">
        <ele>1109.7</ele>
        <time>2021-08-19T09:04:50Z</time>
      </trkpt>
      <trkpt lat="46.48517" lon="6.05836">
        <ele>1109.4</ele>
        <time>2021-08-19T09:04:52Z</time>
      </trkpt>
      <trkpt lat="46.48521" lon="6.05841">
        <ele>1109.3</ele>
        <time>2021-08-19T09:04:53Z</time>
      </trkpt>
      <trkpt lat="46.48524" lon="6.05846">
        <ele>1109.1</ele>
        <time>2021-08-19T09:04:54Z</time>
      </trkpt>
      <trkpt lat="46.48528" lon="6.05854">
        <ele>1108.8</ele>
        <time>2021-08-19T09:04:56Z</time>
      </trkpt>
      <trkpt lat="46.48529" lon="6.0586">
        <ele>1108.7</ele>
        <time>2021-08-19T09:04:57Z</time>
      </trkpt>
      <trkpt lat="46.4853" lon="6.05861">
        <ele>1108.7</ele>
        <time>2021-08-19T09:04:58Z</time>
      </trkpt>
      <trkpt lat="46.48536" lon="6.05866">
        <ele>1108.4</ele>
        <time>2021-08-19T09:05:00Z</time>
      </trkpt>
      <trkpt lat="46.48542" lon="6.0587">
        <ele>1108.2</ele>
        <time>2021-08-19T09:05:02Z</time>
      </trkpt>
      <trkpt lat="46.48545" lon="6.05873">
        <ele>1108</ele>
        <time>2021-08-19T09:05:03Z</time>
      </trkpt>
      <trkpt lat="46.4855" lon="6.05872">
        <ele>1107.9</ele>
        <time>2021-08-19T09:05:04Z</time>
      </trkpt>
      <trkpt lat="46.48553" lon="6.05869">
        <ele>1107.7</ele>
        <time>2021-08-19T09:05:06Z</time>
      </trkpt>
      <trkpt lat="46.48556" lon="6.05863">
        <ele>1107.8</ele>
        <time>2021-08-19T09:05:07Z</time>
      </trkpt>
      <trkpt lat="46.48557" lon="6.05856">
        <ele>1107.9</ele>
        <time>2021-08-19T09:05:09Z</time>
      </trkpt>
      <trkpt lat="46.48557" lon="6.05854">
        <ele>1108</ele>
        <time>2021-08-19T09:05:10Z</time>
      </trkpt>
      <trkpt lat="46.48557" lon="6.05851">
        <ele>1108</ele>
        <time>2021-08-19T09:05:11Z</time>
      </trkpt>
      <trkpt lat="46.48558" lon="6.0585">
        <ele>1108.1</ele>
        <time>2021-08-19T09:05:12Z</time>
      </trkpt>
      <trkpt lat="46.48557" lon="6.0585">
        <ele>1108.1</ele>
        <time>2021-08-19T09:05:14Z</time>
      </trkpt>
      <trkpt lat="46.48557" lon="6.0585">
        <ele>1108.1</ele>
        <time>2021-08-19T09:05:16Z</time>
      </trkpt>
      <trkpt lat="46.48557" lon="6.0585">
        <ele>1108.1</ele>
        <time>2021-08-19T09:05:17Z</time>
      </trkpt>
      <trkpt lat="46.48557" lon="6.05851">
        <ele>1108.1</ele>
        <time>2021-08-19T09:05:18Z</time>
      </trkpt>
      <trkpt lat="46.48557" lon="6.05851">
        <ele>1108.1</ele>
        <time>2021-08-19T09:05:20Z</time>
      </trkpt>
      <trkpt lat="46.48557" lon="6.05851">
        <ele>1108.1</ele>
        <time>2021-08-19T09:05:21Z</time>
      </trkpt>
      <trkpt lat="46.48556" lon="6.0585">
        <ele>1108.1</ele>
        <time>2021-08-19T09:05:23Z</time>
      </trkpt>
      <trkpt lat="46.4855" lon="6.05856">
        <ele>1108.4</ele>
        <time>2021-08-19T09:05:31Z</time>
      </trkpt>
      <trkpt lat="46.48546" lon="6.05857">
        <ele>1108.5</ele>
        <time>2021-08-19T09:05:32Z</time>
      </trkpt>
      <trkpt lat="46.48543" lon="6.05857">
        <ele>1108.6</ele>
        <time>2021-08-19T09:05:33Z</time>
      </trkpt>
      <trkpt lat="46.48541" lon="6.05854">
        <ele>1108.7</ele>
        <time>2021-08-19T09:05:34Z</time>
      </trkpt>
      <trkpt lat="46.4854" lon="6.05854">
        <ele>1108.7</ele>
        <time>2021-08-19T09:05:35Z</time>
      </trkpt>
      <trkpt lat="46.48537" lon="6.05849">
        <ele>1108.9</ele>
        <time>2021-08-19T09:05:37Z</time>
      </trkpt>
      <trkpt lat="46.48532" lon="6.05843">
        <ele>1109.1</ele>
        <time>2021-08-19T09:05:39Z</time>
      </trkpt>
      <trkpt lat="46.48528" lon="6.05837">
        <ele>1109.3</ele>
        <time>2021-08-19T09:05:41Z</time>
      </trkpt>
      <trkpt lat="46.48523" lon="6.05833">
        <ele>1109.4</ele>
        <time>2021-08-19T09:05:43Z</time>
      </trkpt>
      <trkpt lat="46.48519" lon="6.05831">
        <ele>1109.6</ele>
        <time>2021-08-19T09:05:44Z</time>
      </trkpt>
      <trkpt lat="46.48517" lon="6.05829">
        <ele>1109.7</ele>
        <time>2021-08-19T09:05:45Z</time>
      </trkpt>
      <trkpt lat="46.48514" lon="6.05826">
        <ele>1109.8</ele>
        <time>2021-08-19T09:05:46Z</time>
      </trkpt>
      <trkpt lat="46.48513" lon="6.05824">
        <ele>1109.8</ele>
        <time>2021-08-19T09:05:47Z</time>
      </trkpt>
      <trkpt lat="46.4851" lon="6.05819">
        <ele>1110</ele>
        <time>2021-08-19T09:05:49Z</time>
      </trkpt>
      <trkpt lat="46.48509" lon="6.05816">
        <ele>1110</ele>
        <time>2021-08-19T09:05:50Z</time>
      </trkpt>
      <trkpt lat="46.48507" lon="6.0581">
        <ele>1110.2</ele>
        <time>2021-08-19T09:05:52Z</time>
      </trkpt>
      <trkpt lat="46.48507" lon="6.05807">
        <ele>1110.2</ele>
        <time>2021-08-19T09:05:53Z</time>
      </trkpt>
      <trkpt lat="46.48507" lon="6.05803">
        <ele>1110.3</ele>
        <time>2021-08-19T09:05:55Z</time>
      </trkpt>
      <trkpt lat="46.48507" lon="6.05798">
        <ele>1110.4</ele>
        <time>2021-08-19T09:05:56Z</time>
      </trkpt>
      <trkpt lat="46.48507" lon="6.05796">
        <ele>1110.5</ele>
        <time>2021-08-19T09:05:57Z</time>
      </trkpt>
      <trkpt lat="46.48505" lon="6.05792">
        <ele>1110.6</ele>
        <time>2021-08-19T09:05:58Z</time>
      </trkpt>
      <trkpt lat="46.48504" lon="6.0579">
        <ele>1110.6</ele>
        <time>2021-08-19T09:05:59Z</time>
      </trkpt>
      <trkpt lat="46.48501" lon="6.05786">
        <ele>1110.7</ele>
        <time>2021-08-19T09:06:01Z</time>
      </trkpt>
      <trkpt lat="46.485" lon="6.05783">
        <ele>1110.8</ele>
        <time>2021-08-19T09:06:02Z</time>
      </trkpt>
      <trkpt lat="46.48498" lon="6.05777">
        <ele>1110.9</ele>
        <time>2021-08-19T09:06:04Z</time>
      </trkpt>
      <trkpt lat="46.48497" lon="6.0577">
        <ele>1110.9</ele>
        <time>2021-08-19T09:06:06Z</time>
      </trkpt>
      <trkpt lat="46.48496" lon="6.05765">
        <ele>1111</ele>
        <time>2021-08-19T09:06:07Z</time>
      </trkpt>
      <trkpt lat="46.48496" lon="6.05763">
        <ele>1111</ele>
        <time>2021-08-19T09:06:08Z</time>
      </trkpt>
      <trkpt lat="46.48495" lon="6.05756">
        <ele>1111.1</ele>
        <time>2021-08-19T09:06:10Z</time>
      </trkpt>
      <trkpt lat="46.48494" lon="6.0575">
        <ele>1111.2</ele>
        <time>2021-08-19T09:06:11Z</time>
      </trkpt>
      <trkpt lat="46.48494" lon="6.05749">
        <ele>1111.2</ele>
        <time>2021-08-19T09:06:12Z</time>
      </trkpt>
      <trkpt lat="46.48493" lon="6.05745">
        <ele>1111.3</ele>
        <time>2021-08-19T09:06:13Z</time>
      </trkpt>
      <trkpt lat="46.4849" lon="6.05737">
        <ele>1111.4</ele>
        <time>2021-08-19T09:06:15Z</time>
      </trkpt>
      <trkpt lat="46.48488" lon="6.05733">
        <ele>1111.4</ele>
        <time>2021-08-19T09:06:16Z</time>
      </trkpt>
      <trkpt lat="46.48485" lon="6.05729">
        <ele>1111.5</ele>
        <time>2021-08-19T09:06:18Z</time>
      </trkpt>
      <trkpt lat="46.48485" lon="6.05725">
        <ele>1111.6</ele>
        <time>2021-08-19T09:06:19Z</time>
      </trkpt>
      <trkpt lat="46.48482" lon="6.0572">
        <ele>1111.7</ele>
        <time>2021-08-19T09:06:20Z</time>
      </trkpt>
      <trkpt lat="46.4848" lon="6.05715">
        <ele>1111.8</ele>
        <time>2021-08-19T09:06:21Z</time>
      </trkpt>
      <trkpt lat="46.48479" lon="6.05708">
        <ele>1111.9</ele>
        <time>2021-08-19T09:06:23Z</time>
      </trkpt>
      <trkpt lat="46.48478" lon="6.05706">
        <ele>1111.9</ele>
        <time>2021-08-19T09:06:24Z</time>
      </trkpt>
      <trkpt lat="46.48477" lon="6.05704">
        <ele>1112</ele>
        <time>2021-08-19T09:06:25Z</time>
      </trkpt>
      <trkpt lat="46.48476" lon="6.05699">
        <ele>1112</ele>
        <time>2021-08-19T09:06:26Z</time>
      </trkpt>
      <trkpt lat="46.48476" lon="6.05698">
        <ele>1112.1</ele>
        <time>2021-08-19T09:06:27Z</time>
      </trkpt>
      <trkpt lat="46.48474" lon="6.05695">
        <ele>1112.1</ele>
        <time>2021-08-19T09:06:28Z</time>
      </trkpt>
      <trkpt lat="46.48473" lon="6.05695">
        <ele>1112.2</ele>
        <time>2021-08-19T09:06:30Z</time>
      </trkpt>
      <trkpt lat="46.4847" lon="6.05695">
        <ele>1112.3</ele>
        <time>2021-08-19T09:06:31Z</time>
      </trkpt>
      <trkpt lat="46.48468" lon="6.05692">
        <ele>1112.4</ele>
        <time>2021-08-19T09:06:33Z</time>
      </trkpt>
      <trkpt lat="46.48467" lon="6.05691">
        <ele>1112.4</ele>
        <time>2021-08-19T09:06:34Z</time>
      </trkpt>
      <trkpt lat="46.48466" lon="6.05689">
        <ele>1112.5</ele>
        <time>2021-08-19T09:06:35Z</time>
      </trkpt>
      <trkpt lat="46.4846" lon="6.05685">
        <ele>1112.7</ele>
        <time>2021-08-19T09:06:37Z</time>
      </trkpt>
      <trkpt lat="46.48455" lon="6.05681">
        <ele>1112.9</ele>
        <time>2021-08-19T09:06:39Z</time>
      </trkpt>
      <trkpt lat="46.48453" lon="6.05676">
        <ele>1113.2</ele>
        <time>2021-08-19T09:06:41Z</time>
      </trkpt>
      <trkpt lat="46.48449" lon="6.05672">
        <ele>1113.5</ele>
        <time>2021-08-19T09:06:43Z</time>
      </trkpt>
      <trkpt lat="46.48446" lon="6.05668">
        <ele>1113.8</ele>
        <time>2021-08-19T09:06:44Z</time>
      </trkpt>
      <trkpt lat="46.48443" lon="6.05664">
        <ele>1114.1</ele>
        <time>2021-08-19T09:06:45Z</time>
      </trkpt>
      <trkpt lat="46.4844" lon="6.05659">
        <ele>1114.3</ele>
        <time>2021-08-19T09:06:47Z</time>
      </trkpt>
      <trkpt lat="46.4844" lon="6.05658">
        <ele>1114.4</ele>
        <time>2021-08-19T09:06:48Z</time>
      </trkpt>
      <trkpt lat="46.48437" lon="6.05655">
        <ele>1114.6</ele>
        <time>2021-08-19T09:06:49Z</time>
      </trkpt>
      <trkpt lat="46.48436" lon="6.05653">
        <ele>1114.7</ele>
        <time>2021-08-19T09:06:50Z</time>
      </trkpt>
      <trkpt lat="46.48431" lon="6.05651">
        <ele>1115.1</ele>
        <time>2021-08-19T09:06:52Z</time>
      </trkpt>
      <trkpt lat="46.48426" lon="6.05649">
        <ele>1115.4</ele>
        <time>2021-08-19T09:06:53Z</time>
      </trkpt>
      <trkpt lat="46.48419" lon="6.05648">
        <ele>1115.8</ele>
        <time>2021-08-19T09:06:55Z</time>
      </trkpt>
      <trkpt lat="46.48413" lon="6.05646">
        <ele>1116.1</ele>
        <time>2021-08-19T09:06:56Z</time>
      </trkpt>
      <trkpt lat="46.4841" lon="6.05645">
        <ele>1116.2</ele>
        <time>2021-08-19T09:06:57Z</time>
      </trkpt>
      <trkpt lat="46.48407" lon="6.05644">
        <ele>1116.4</ele>
        <time>2021-08-19T09:06:58Z</time>
      </trkpt>
      <trkpt lat="46.48405" lon="6.05643">
        <ele>1116.5</ele>
        <time>2021-08-19T09:06:59Z</time>
      </trkpt>
      <trkpt lat="46.48402" lon="6.05642">
        <ele>1116.7</ele>
        <time>2021-08-19T09:07:00Z</time>
      </trkpt>
      <trkpt lat="46.48398" lon="6.0564">
        <ele>1116.9</ele>
        <time>2021-08-19T09:07:01Z</time>
      </trkpt>
      <trkpt lat="46.48395" lon="6.05637">
        <ele>1117.1</ele>
        <time>2021-08-19T09:07:03Z</time>
      </trkpt>
      <trkpt lat="46.48393" lon="6.05636">
        <ele>1117.2</ele>
        <time>2021-08-19T09:07:04Z</time>
      </trkpt>
      <trkpt lat="46.48391" lon="6.05635">
        <ele>1117.3</ele>
        <time>2021-08-19T09:07:06Z</time>
      </trkpt>
      <trkpt lat="46.4839" lon="6.05633">
        <ele>1117.4</ele>
        <time>2021-08-19T09:07:07Z</time>
      </trkpt>
      <trkpt lat="46.48389" lon="6.05632">
        <ele>1117.4</ele>
        <time>2021-08-19T09:07:08Z</time>
      </trkpt>
      <trkpt lat="46.48387" lon="6.05631">
        <ele>1117.6</ele>
        <time>2021-08-19T09:07:09Z</time>
      </trkpt>
      <trkpt lat="46.48386" lon="6.05631">
        <ele>1117.6</ele>
        <time>2021-08-19T09:07:10Z</time>
      </trkpt>
      <trkpt lat="46.48386" lon="6.0563">
        <ele>1117.7</ele>
        <time>2021-08-19T09:07:11Z</time>
      </trkpt>
      <trkpt lat="46.48381" lon="6.05628">
        <ele>1118.1</ele>
        <time>2021-08-19T09:07:13Z</time>
      </trkpt>
      <trkpt lat="46.4838" lon="6.05627">
        <ele>1118.2</ele>
        <time>2021-08-19T09:07:14Z</time>
      </trkpt>
      <trkpt lat="46.48379" lon="6.05626">
        <ele>1118.3</ele>
        <time>2021-08-19T09:07:15Z</time>
      </trkpt>
      <trkpt lat="46.48375" lon="6.05624">
        <ele>1118.6</ele>
        <time>2021-08-19T09:07:17Z</time>
      </trkpt>
      <trkpt lat="46.48372" lon="6.05621">
        <ele>1118.9</ele>
        <time>2021-08-19T09:07:18Z</time>
      </trkpt>
      <trkpt lat="46.48372" lon="6.05621">
        <ele>1119</ele>
        <time>2021-08-19T09:07:19Z</time>
      </trkpt>
      <trkpt lat="46.48371" lon="6.05621">
        <ele>1118.9</ele>
        <time>2021-08-19T09:07:20Z</time>
      </trkpt>
      <trkpt lat="46.4837" lon="6.05621">
        <ele>1118.9</ele>
        <time>2021-08-19T09:07:21Z</time>
      </trkpt>
      <trkpt lat="46.48368" lon="6.05617">
        <ele>1118.6</ele>
        <time>2021-08-19T09:07:23Z</time>
      </trkpt>
      <trkpt lat="46.48365" lon="6.05612">
        <ele>1118.4</ele>
        <time>2021-08-19T09:07:24Z</time>
      </trkpt>
      <trkpt lat="46.48365" lon="6.05611">
        <ele>1118.3</ele>
        <time>2021-08-19T09:07:25Z</time>
      </trkpt>
      <trkpt lat="46.48362" lon="6.05605">
        <ele>1118</ele>
        <time>2021-08-19T09:07:27Z</time>
      </trkpt>
      <trkpt lat="46.48359" lon="6.056">
        <ele>1117.8</ele>
        <time>2021-08-19T09:07:28Z</time>
      </trkpt>
      <trkpt lat="46.48356" lon="6.05596">
        <ele>1117.5</ele>
        <time>2021-08-19T09:07:29Z</time>
      </trkpt>
      <trkpt lat="46.48352" lon="6.0559">
        <ele>1117.2</ele>
        <time>2021-08-19T09:07:31Z</time>
      </trkpt>
      <trkpt lat="46.48348" lon="6.05584">
        <ele>1116.9</ele>
        <time>2021-08-19T09:07:32Z</time>
      </trkpt>
      <trkpt lat="46.48345" lon="6.0558">
        <ele>1116.7</ele>
        <time>2021-08-19T09:07:33Z</time>
      </trkpt>
      <trkpt lat="46.48341" lon="6.05576">
        <ele>1116.4</ele>
        <time>2021-08-19T09:07:35Z</time>
      </trkpt>
      <trkpt lat="46.48338" lon="6.05572">
        <ele>1116.2</ele>
        <time>2021-08-19T09:07:36Z</time>
      </trkpt>
      <trkpt lat="46.48334" lon="6.05567">
        <ele>1115.8</ele>
        <time>2021-08-19T09:07:37Z</time>
      </trkpt>
      <trkpt lat="46.48332" lon="6.05563">
        <ele>1115.6</ele>
        <time>2021-08-19T09:07:38Z</time>
      </trkpt>
      <trkpt lat="46.48328" lon="6.05554">
        <ele>1114.9</ele>
        <time>2021-08-19T09:07:40Z</time>
      </trkpt>
      <trkpt lat="46.48326" lon="6.05549">
        <ele>1114.4</ele>
        <time>2021-08-19T09:07:41Z</time>
      </trkpt>
      <trkpt lat="46.48324" lon="6.05544">
        <ele>1113.9</ele>
        <time>2021-08-19T09:07:42Z</time>
      </trkpt>
      <trkpt lat="46.48323" lon="6.0554">
        <ele>1113.4</ele>
        <time>2021-08-19T09:07:43Z</time>
      </trkpt>
      <trkpt lat="46.48322" lon="6.05535">
        <ele>1113</ele>
        <time>2021-08-19T09:07:44Z</time>
      </trkpt>
      <trkpt lat="46.4832" lon="6.05529">
        <ele>1112.4</ele>
        <time>2021-08-19T09:07:46Z</time>
      </trkpt>
      <trkpt lat="46.48317" lon="6.05525">
        <ele>1111.8</ele>
        <time>2021-08-19T09:07:47Z</time>
      </trkpt>
      <trkpt lat="46.48315" lon="6.05519">
        <ele>1111.3</ele>
        <time>2021-08-19T09:07:48Z</time>
      </trkpt>
      <trkpt lat="46.48314" lon="6.05512">
        <ele>1110.9</ele>
        <time>2021-08-19T09:07:49Z</time>
      </trkpt>
      <trkpt lat="46.48314" lon="6.05504">
        <ele>1110.5</ele>
        <time>2021-08-19T09:07:50Z</time>
      </trkpt>
      <trkpt lat="46.48312" lon="6.05493">
        <ele>1110</ele>
        <time>2021-08-19T09:07:52Z</time>
      </trkpt>
      <trkpt lat="46.4831" lon="6.05479">
        <ele>1109.8</ele>
        <time>2021-08-19T09:07:53Z</time>
      </trkpt>
      <trkpt lat="46.48308" lon="6.05466">
        <ele>1109.8</ele>
        <time>2021-08-19T09:07:55Z</time>
      </trkpt>
      <trkpt lat="46.48302" lon="6.05461">
        <ele>1109.9</ele>
        <time>2021-08-19T09:07:57Z</time>
      </trkpt>
      <trkpt lat="46.48301" lon="6.05451">
        <ele>1110.1</ele>
        <time>2021-08-19T09:07:58Z</time>
      </trkpt>
      <trkpt lat="46.48299" lon="6.05446">
        <ele>1110.2</ele>
        <time>2021-08-19T09:07:59Z</time>
      </trkpt>
      <trkpt lat="46.48297" lon="6.05441">
        <ele>1110.3</ele>
        <time>2021-08-19T09:08:00Z</time>
      </trkpt>
      <trkpt lat="46.48296" lon="6.05437">
        <ele>1110.3</ele>
        <time>2021-08-19T09:08:01Z</time>
      </trkpt>
      <trkpt lat="46.48294" lon="6.05432">
        <ele>1110.4</ele>
        <time>2021-08-19T09:08:02Z</time>
      </trkpt>
      <trkpt lat="46.48292" lon="6.05427">
        <ele>1110.3</ele>
        <time>2021-08-19T09:08:03Z</time>
      </trkpt>
      <trkpt lat="46.48289" lon="6.05421">
        <ele>1110.3</ele>
        <time>2021-08-19T09:08:05Z</time>
      </trkpt>
      <trkpt lat="46.48286" lon="6.05416">
        <ele>1110.2</ele>
        <time>2021-08-19T09:08:06Z</time>
      </trkpt>
      <trkpt lat="46.48284" lon="6.05409">
        <ele>1110.1</ele>
        <time>2021-08-19T09:08:08Z</time>
      </trkpt>
      <trkpt lat="46.48284" lon="6.05404">
        <ele>1109.9</ele>
        <time>2021-08-19T09:08:09Z</time>
      </trkpt>
      <trkpt lat="46.48283" lon="6.05398">
        <ele>1109.8</ele>
        <time>2021-08-19T09:08:11Z</time>
      </trkpt>
      <trkpt lat="46.48281" lon="6.05395">
        <ele>1109.5</ele>
        <time>2021-08-19T09:08:12Z</time>
      </trkpt>
      <trkpt lat="46.4828" lon="6.05393">
        <ele>1109.5</ele>
        <time>2021-08-19T09:08:14Z</time>
      </trkpt>
      <trkpt lat="46.48282" lon="6.05396">
        <ele>1109.3</ele>
        <time>2021-08-19T09:08:16Z</time>
      </trkpt>
      <trkpt lat="46.48283" lon="6.05397">
        <ele>1109.3</ele>
        <time>2021-08-19T09:08:17Z</time>
      </trkpt>
      <trkpt lat="46.48283" lon="6.05397">
        <ele>1109.3</ele>
        <time>2021-08-19T09:08:18Z</time>
      </trkpt>
      <trkpt lat="46.48283" lon="6.05397">
        <ele>1109.3</ele>
        <time>2021-08-19T09:08:19Z</time>
      </trkpt>
      <trkpt lat="46.48283" lon="6.05397">
        <ele>1109.3</ele>
        <time>2021-08-19T09:08:21Z</time>
      </trkpt>
      <trkpt lat="46.48283" lon="6.05398">
        <ele>1109.3</ele>
        <time>2021-08-19T09:08:22Z</time>
      </trkpt>
      <trkpt lat="46.48284" lon="6.05382">
        <ele>1108.7</ele>
        <time>2021-08-19T09:08:37Z</time>
      </trkpt>
      <trkpt lat="46.48288" lon="6.05374">
        <ele>1108.2</ele>
        <time>2021-08-19T09:08:39Z</time>
      </trkpt>
      <trkpt lat="46.4829" lon="6.05371">
        <ele>1108</ele>
        <time>2021-08-19T09:08:40Z</time>
      </trkpt>
      <trkpt lat="46.48296" lon="6.05369">
        <ele>1107.5</ele>
        <time>2021-08-19T09:08:42Z</time>
      </trkpt>
      <trkpt lat="46.48299" lon="6.0537">
        <ele>1107.2</ele>
        <time>2021-08-19T09:08:43Z</time>
      </trkpt>
      <trkpt lat="46.483" lon="6.05371">
        <ele>1107.1</ele>
        <time>2021-08-19T09:08:44Z</time>
      </trkpt>
      <trkpt lat="46.48301" lon="6.05372">
        <ele>1107</ele>
        <time>2021-08-19T09:08:46Z</time>
      </trkpt>
      <trkpt lat="46.48302" lon="6.05372">
        <ele>1106.9</ele>
        <time>2021-08-19T09:08:47Z</time>
      </trkpt>
      <trkpt lat="46.48301" lon="6.0537">
        <ele>1106.8</ele>
        <time>2021-08-19T09:08:49Z</time>
      </trkpt>
      <trkpt lat="46.48302" lon="6.05369">
        <ele>1106.7</ele>
        <time>2021-08-19T09:08:50Z</time>
      </trkpt>
      <trkpt lat="46.48303" lon="6.05367">
        <ele>1106.5</ele>
        <time>2021-08-19T09:08:52Z</time>
      </trkpt>
      <trkpt lat="46.48305" lon="6.05365">
        <ele>1106.2</ele>
        <time>2021-08-19T09:08:53Z</time>
      </trkpt>
      <trkpt lat="46.48306" lon="6.05364">
        <ele>1106</ele>
        <time>2021-08-19T09:08:54Z</time>
      </trkpt>
      <trkpt lat="46.48308" lon="6.05361">
        <ele>1105.7</ele>
        <time>2021-08-19T09:08:56Z</time>
      </trkpt>
      <trkpt lat="46.48308" lon="6.05359">
        <ele>1105.6</ele>
        <time>2021-08-19T09:08:57Z</time>
      </trkpt>
      <trkpt lat="46.48311" lon="6.05293">
        <ele>1100.5</ele>
        <time>2021-08-19T09:09:24Z</time>
      </trkpt>
      <trkpt lat="46.48315" lon="6.05283">
        <ele>1099.7</ele>
        <time>2021-08-19T09:09:26Z</time>
      </trkpt>
      <trkpt lat="46.48316" lon="6.05278">
        <ele>1099.4</ele>
        <time>2021-08-19T09:09:27Z</time>
      </trkpt>
      <trkpt lat="46.4832" lon="6.0527">
        <ele>1098.6</ele>
        <time>2021-08-19T09:09:29Z</time>
      </trkpt>
      <trkpt lat="46.48322" lon="6.05262">
        <ele>1098</ele>
        <time>2021-08-19T09:09:30Z</time>
      </trkpt>
      <trkpt lat="46.48325" lon="6.05251">
        <ele>1097.1</ele>
        <time>2021-08-19T09:09:32Z</time>
      </trkpt>
      <trkpt lat="46.48327" lon="6.05245">
        <ele>1096.4</ele>
        <time>2021-08-19T09:09:33Z</time>
      </trkpt>
      <trkpt lat="46.48329" lon="6.05237">
        <ele>1095.6</ele>
        <time>2021-08-19T09:09:34Z</time>
      </trkpt>
      <trkpt lat="46.4833" lon="6.05224">
        <ele>1094.3</ele>
        <time>2021-08-19T09:09:36Z</time>
      </trkpt>
      <trkpt lat="46.4833" lon="6.05217">
        <ele>1093.6</ele>
        <time>2021-08-19T09:09:37Z</time>
      </trkpt>
      <trkpt lat="46.48329" lon="6.0521">
        <ele>1093.1</ele>
        <time>2021-08-19T09:09:38Z</time>
      </trkpt>
      <trkpt lat="46.48329" lon="6.05205">
        <ele>1092.6</ele>
        <time>2021-08-19T09:09:39Z</time>
      </trkpt>
      <trkpt lat="46.48326" lon="6.05198">
        <ele>1092</ele>
        <time>2021-08-19T09:09:41Z</time>
      </trkpt>
      <trkpt lat="46.48324" lon="6.05194">
        <ele>1091.6</ele>
        <time>2021-08-19T09:09:42Z</time>
      </trkpt>
      <trkpt lat="46.48322" lon="6.0519">
        <ele>1091.2</ele>
        <time>2021-08-19T09:09:43Z</time>
      </trkpt>
      <trkpt lat="46.4832" lon="6.05186">
        <ele>1090.8</ele>
        <time>2021-08-19T09:09:44Z</time>
      </trkpt>
      <trkpt lat="46.48319" lon="6.05185">
        <ele>1090.7</ele>
        <time>2021-08-19T09:09:45Z</time>
      </trkpt>
      <trkpt lat="46.48317" lon="6.0518">
        <ele>1090.1</ele>
        <time>2021-08-19T09:09:47Z</time>
      </trkpt>
      <trkpt lat="46.48316" lon="6.05176">
        <ele>1089.7</ele>
        <time>2021-08-19T09:09:48Z</time>
      </trkpt>
      <trkpt lat="46.48315" lon="6.05174">
        <ele>1089.5</ele>
        <time>2021-08-19T09:09:49Z</time>
      </trkpt>
      <trkpt lat="46.48316" lon="6.05173">
        <ele>1089.4</ele>
        <time>2021-08-19T09:09:50Z</time>
      </trkpt>
      <trkpt lat="46.48316" lon="6.05172">
        <ele>1089.3</ele>
        <time>2021-08-19T09:09:52Z</time>
      </trkpt>
      <trkpt lat="46.48317" lon="6.05172">
        <ele>1089.2</ele>
        <time>2021-08-19T09:09:53Z</time>
      </trkpt>
      <trkpt lat="46.48318" lon="6.05171">
        <ele>1089.1</ele>
        <time>2021-08-19T09:09:54Z</time>
      </trkpt>
      <trkpt lat="46.48318" lon="6.0517">
        <ele>1088.9</ele>
        <time>2021-08-19T09:09:55Z</time>
      </trkpt>
      <trkpt lat="46.4832" lon="6.05168">
        <ele>1088.6</ele>
        <time>2021-08-19T09:09:57Z</time>
      </trkpt>
      <trkpt lat="46.48321" lon="6.05166">
        <ele>1088.4</ele>
        <time>2021-08-19T09:09:58Z</time>
      </trkpt>
      <trkpt lat="46.48321" lon="6.05164">
        <ele>1088.1</ele>
        <time>2021-08-19T09:09:59Z</time>
      </trkpt>
      <trkpt lat="46.48321" lon="6.05161">
        <ele>1087.8</ele>
        <time>2021-08-19T09:10:01Z</time>
      </trkpt>
      <trkpt lat="46.48275" lon="6.05085">
        <ele>1082.6</ele>
        <time>2021-08-19T09:10:55Z</time>
      </trkpt>
      <trkpt lat="46.48266" lon="6.05072">
        <ele>1082.1</ele>
        <time>2021-08-19T09:10:57Z</time>
      </trkpt>
      <trkpt lat="46.48246" lon="6.05042">
        <ele>1079.9</ele>
        <time>2021-08-19T09:10:58Z</time>
      </trkpt>
      <trkpt lat="46.4824" lon="6.05034">
        <ele>1079</ele>
        <time>2021-08-19T09:11:00Z</time>
      </trkpt>
      <trkpt lat="46.48235" lon="6.05029">
        <ele>1078.4</ele>
        <time>2021-08-19T09:11:01Z</time>
      </trkpt>
      <trkpt lat="46.48231" lon="6.05024">
        <ele>1077.8</ele>
        <time>2021-08-19T09:11:02Z</time>
      </trkpt>
      <trkpt lat="46.48226" lon="6.0502">
        <ele>1077.3</ele>
        <time>2021-08-19T09:11:03Z</time>
      </trkpt>
      <trkpt lat="46.48221" lon="6.05013">
        <ele>1076.7</ele>
        <time>2021-08-19T09:11:05Z</time>
      </trkpt>
      <trkpt lat="46.4822" lon="6.05008">
        <ele>1076.4</ele>
        <time>2021-08-19T09:11:06Z</time>
      </trkpt>
      <trkpt lat="46.48216" lon="6.05003">
        <ele>1076</ele>
        <time>2021-08-19T09:11:08Z</time>
      </trkpt>
      <trkpt lat="46.48213" lon="6.05001">
        <ele>1075.9</ele>
        <time>2021-08-19T09:11:10Z</time>
      </trkpt>
      <trkpt lat="46.48211" lon="6.05001">
        <ele>1075.7</ele>
        <time>2021-08-19T09:11:11Z</time>
      </trkpt>
      <trkpt lat="46.48209" lon="6.05001">
        <ele>1075.7</ele>
        <time>2021-08-19T09:11:12Z</time>
      </trkpt>
      <trkpt lat="46.48205" lon="6.05001">
        <ele>1075.5</ele>
        <time>2021-08-19T09:11:13Z</time>
      </trkpt>
      <trkpt lat="46.48202" lon="6.04999">
        <ele>1075.3</ele>
        <time>2021-08-19T09:11:14Z</time>
      </trkpt>
      <trkpt lat="46.482" lon="6.04998">
        <ele>1075.1</ele>
        <time>2021-08-19T09:11:15Z</time>
      </trkpt>
      <trkpt lat="46.48198" lon="6.04995">
        <ele>1075</ele>
        <time>2021-08-19T09:11:16Z</time>
      </trkpt>
      <trkpt lat="46.48195" lon="6.04991">
        <ele>1074.7</ele>
        <time>2021-08-19T09:11:18Z</time>
      </trkpt>
      <trkpt lat="46.48192" lon="6.04987">
        <ele>1074.4</ele>
        <time>2021-08-19T09:11:19Z</time>
      </trkpt>
      <trkpt lat="46.48191" lon="6.04986">
        <ele>1074.4</ele>
        <time>2021-08-19T09:11:20Z</time>
      </trkpt>
      <trkpt lat="46.48191" lon="6.04985">
        <ele>1074.3</ele>
        <time>2021-08-19T09:11:21Z</time>
      </trkpt>
      <trkpt lat="46.48191" lon="6.04984">
        <ele>1074.2</ele>
        <time>2021-08-19T09:11:22Z</time>
      </trkpt>
      <trkpt lat="46.48191" lon="6.0498">
        <ele>1074</ele>
        <time>2021-08-19T09:11:24Z</time>
      </trkpt>
      <trkpt lat="46.48191" lon="6.04979">
        <ele>1073.9</ele>
        <time>2021-08-19T09:11:25Z</time>
      </trkpt>
      <trkpt lat="46.48192" lon="6.04977">
        <ele>1073.7</ele>
        <time>2021-08-19T09:11:27Z</time>
      </trkpt>
      <trkpt lat="46.48192" lon="6.04975">
        <ele>1073.6</ele>
        <time>2021-08-19T09:11:28Z</time>
      </trkpt>
      <trkpt lat="46.48193" lon="6.04973">
        <ele>1073.4</ele>
        <time>2021-08-19T09:11:29Z</time>
      </trkpt>
      <trkpt lat="46.48193" lon="6.04971">
        <ele>1073.3</ele>
        <time>2021-08-19T09:11:30Z</time>
      </trkpt>
      <trkpt lat="46.47927" lon="6.04668">
        <ele>1052.2</ele>
        <time>2021-08-19T09:12:51Z</time>
      </trkpt>
      <trkpt lat="46.47925" lon="6.04665">
        <ele>1052.1</ele>
        <time>2021-08-19T09:12:52Z</time>
      </trkpt>
      <trkpt lat="46.4792" lon="6.04663">
        <ele>1052</ele>
        <time>2021-08-19T09:12:53Z</time>
      </trkpt>
      <trkpt lat="46.47916" lon="6.04661">
        <ele>1052</ele>
        <time>2021-08-19T09:12:54Z</time>
      </trkpt>
      <trkpt lat="46.47911" lon="6.04661">
        <ele>1051.9</ele>
        <time>2021-08-19T09:12:55Z</time>
      </trkpt>
      <trkpt lat="46.47903" lon="6.04661">
        <ele>1051.8</ele>
        <time>2021-08-19T09:12:57Z</time>
      </trkpt>
      <trkpt lat="46.47896" lon="6.04662">
        <ele>1051.7</ele>
        <time>2021-08-19T09:12:58Z</time>
      </trkpt>
      <trkpt lat="46.4789" lon="6.04664">
        <ele>1051.6</ele>
        <time>2021-08-19T09:12:59Z</time>
      </trkpt>
      <trkpt lat="46.47882" lon="6.04667">
        <ele>1051.6</ele>
        <time>2021-08-19T09:13:01Z</time>
      </trkpt>
      <trkpt lat="46.47878" lon="6.0467">
        <ele>1051.6</ele>
        <time>2021-08-19T09:13:02Z</time>
      </trkpt>
      <trkpt lat="46.47873" lon="6.04676">
        <ele>1051.6</ele>
        <time>2021-08-19T09:13:03Z</time>
      </trkpt>
      <trkpt lat="46.47869" lon="6.0468">
        <ele>1051.6</ele>
        <time>2021-08-19T09:13:04Z</time>
      </trkpt>
      <trkpt lat="46.47865" lon="6.04683">
        <ele>1051.6</ele>
        <time>2021-08-19T09:13:05Z</time>
      </trkpt>
      <trkpt lat="46.47863" lon="6.04689">
        <ele>1051.6</ele>
        <time>2021-08-19T09:13:07Z</time>
      </trkpt>
      <trkpt lat="46.47857" lon="6.04698">
        <ele>1051.6</ele>
        <time>2021-08-19T09:13:08Z</time>
      </trkpt>
      <trkpt lat="46.47853" lon="6.047">
        <ele>1051.6</ele>
        <time>2021-08-19T09:13:09Z</time>
      </trkpt>
      <trkpt lat="46.4785" lon="6.047">
        <ele>1051.6</ele>
        <time>2021-08-19T09:13:10Z</time>
      </trkpt>
      <trkpt lat="46.47843" lon="6.04712">
        <ele>1051.6</ele>
        <time>2021-08-19T09:13:12Z</time>
      </trkpt>
      <trkpt lat="46.47839" lon="6.04718">
        <ele>1051.7</ele>
        <time>2021-08-19T09:13:13Z</time>
      </trkpt>
      <trkpt lat="46.47835" lon="6.04723">
        <ele>1051.7</ele>
        <time>2021-08-19T09:13:15Z</time>
      </trkpt>
      <trkpt lat="46.47829" lon="6.04732">
        <ele>1051.7</ele>
        <time>2021-08-19T09:13:17Z</time>
      </trkpt>
      <trkpt lat="46.47826" lon="6.04736">
        <ele>1051.7</ele>
        <time>2021-08-19T09:13:18Z</time>
      </trkpt>
      <trkpt lat="46.47822" lon="6.04739">
        <ele>1051.7</ele>
        <time>2021-08-19T09:13:19Z</time>
      </trkpt>
      <trkpt lat="46.47819" lon="6.04742">
        <ele>1051.7</ele>
        <time>2021-08-19T09:13:20Z</time>
      </trkpt>
      <trkpt lat="46.47813" lon="6.04747">
        <ele>1051.8</ele>
        <time>2021-08-19T09:13:22Z</time>
      </trkpt>
      <trkpt lat="46.47808" lon="6.0475">
        <ele>1051.8</ele>
        <time>2021-08-19T09:13:23Z</time>
      </trkpt>
      <trkpt lat="46.47799" lon="6.04753">
        <ele>1052</ele>
        <time>2021-08-19T09:13:25Z</time>
      </trkpt>
      <trkpt lat="46.47796" lon="6.04753">
        <ele>1052</ele>
        <time>2021-08-19T09:13:26Z</time>
      </trkpt>
      <trkpt lat="46.47791" lon="6.04754">
        <ele>1052</ele>
        <time>2021-08-19T09:13:27Z</time>
      </trkpt>
      <trkpt lat="46.47787" lon="6.04754">
        <ele>1052.1</ele>
        <time>2021-08-19T09:13:28Z</time>
      </trkpt>
      <trkpt lat="46.47782" lon="6.04752">
        <ele>1052.1</ele>
        <time>2021-08-19T09:13:30Z</time>
      </trkpt>
      <trkpt lat="46.47778" lon="6.04751">
        <ele>1052.1</ele>
        <time>2021-08-19T09:13:31Z</time>
      </trkpt>
      <trkpt lat="46.47776" lon="6.04749">
        <ele>1052.1</ele>
        <time>2021-08-19T09:13:32Z</time>
      </trkpt>
      <trkpt lat="46.47769" lon="6.04749">
        <ele>1052.2</ele>
        <time>2021-08-19T09:13:34Z</time>
      </trkpt>
      <trkpt lat="46.47764" lon="6.04748">
        <ele>1052.2</ele>
        <time>2021-08-19T09:13:36Z</time>
      </trkpt>
      <trkpt lat="46.47759" lon="6.04745">
        <ele>1052.2</ele>
        <time>2021-08-19T09:13:37Z</time>
      </trkpt>
      <trkpt lat="46.47755" lon="6.04742">
        <ele>1052.2</ele>
        <time>2021-08-19T09:13:39Z</time>
      </trkpt>
      <trkpt lat="46.47752" lon="6.0474">
        <ele>1052.2</ele>
        <time>2021-08-19T09:13:40Z</time>
      </trkpt>
      <trkpt lat="46.4775" lon="6.04739">
        <ele>1052.2</ele>
        <time>2021-08-19T09:13:41Z</time>
      </trkpt>
      <trkpt lat="46.47748" lon="6.04739">
        <ele>1052.2</ele>
        <time>2021-08-19T09:13:42Z</time>
      </trkpt>
      <trkpt lat="46.47745" lon="6.0474">
        <ele>1052.2</ele>
        <time>2021-08-19T09:13:44Z</time>
      </trkpt>
      <trkpt lat="46.47742" lon="6.0474">
        <ele>1052.2</ele>
        <time>2021-08-19T09:13:45Z</time>
      </trkpt>
      <trkpt lat="46.47741" lon="6.04741">
        <ele>1052.2</ele>
        <time>2021-08-19T09:13:46Z</time>
      </trkpt>
      <trkpt lat="46.4774" lon="6.04742">
        <ele>1052.2</ele>
        <time>2021-08-19T09:13:47Z</time>
      </trkpt>
      <trkpt lat="46.4774" lon="6.04743">
        <ele>1052.2</ele>
        <time>2021-08-19T09:13:48Z</time>
      </trkpt>
      <trkpt lat="46.47738" lon="6.04749">
        <ele>1052.2</ele>
        <time>2021-08-19T09:13:50Z</time>
      </trkpt>
      <trkpt lat="46.47734" lon="6.04758">
        <ele>1052.2</ele>
        <time>2021-08-19T09:13:51Z</time>
      </trkpt>
      <trkpt lat="46.47732" lon="6.04762">
        <ele>1052.2</ele>
        <time>2021-08-19T09:13:52Z</time>
      </trkpt>
      <trkpt lat="46.47731" lon="6.04763">
        <ele>1052.2</ele>
        <time>2021-08-19T09:13:53Z</time>
      </trkpt>
      <trkpt lat="46.47721" lon="6.04771">
        <ele>1052.1</ele>
        <time>2021-08-19T09:13:54Z</time>
      </trkpt>
      <trkpt lat="46.47707" lon="6.04783">
        <ele>1052</ele>
        <time>2021-08-19T09:13:56Z</time>
      </trkpt>
      <trkpt lat="46.4733" lon="6.05048">
        <ele>1053.9</ele>
        <time>2021-08-19T09:15:30Z</time>
      </trkpt>
      <trkpt lat="46.47325" lon="6.05048">
        <ele>1054</ele>
        <time>2021-08-19T09:15:31Z</time>
      </trkpt>
      <trkpt lat="46.47319" lon="6.05047">
        <ele>1054</ele>
        <time>2021-08-19T09:15:33Z</time>
      </trkpt>
      <trkpt lat="46.47312" lon="6.05047">
        <ele>1054</ele>
        <time>2021-08-19T09:15:34Z</time>
      </trkpt>
      <trkpt lat="46.47307" lon="6.05048">
        <ele>1054</ele>
        <time>2021-08-19T09:15:35Z</time>
      </trkpt>
      <trkpt lat="46.47297" lon="6.05051">
        <ele>1054</ele>
        <time>2021-08-19T09:15:36Z</time>
      </trkpt>
      <trkpt lat="46.47293" lon="6.05053">
        <ele>1054</ele>
        <time>2021-08-19T09:15:37Z</time>
      </trkpt>
      <trkpt lat="46.47289" lon="6.05055">
        <ele>1054</ele>
        <time>2021-08-19T09:15:38Z</time>
      </trkpt>
      <trkpt lat="46.47286" lon="6.05056">
        <ele>1053.9</ele>
        <time>2021-08-19T09:15:39Z</time>
      </trkpt>
      <trkpt lat="46.47278" lon="6.05057">
        <ele>1053.9</ele>
        <time>2021-08-19T09:15:41Z</time>
      </trkpt>
      <trkpt lat="46.47274" lon="6.05058">
        <ele>1053.9</ele>
        <time>2021-08-19T09:15:42Z</time>
      </trkpt>
      <trkpt lat="46.47272" lon="6.05059">
        <ele>1053.9</ele>
        <time>2021-08-19T09:15:43Z</time>
      </trkpt>
      <trkpt lat="46.47269" lon="6.0506">
        <ele>1054</ele>
        <time>2021-08-19T09:15:44Z</time>
      </trkpt>
      <trkpt lat="46.47266" lon="6.05062">
        <ele>1054</ele>
        <time>2021-08-19T09:15:45Z</time>
      </trkpt>
      <trkpt lat="46.47263" lon="6.05063">
        <ele>1054</ele>
        <time>2021-08-19T09:15:47Z</time>
      </trkpt>
      <trkpt lat="46.47245" lon="6.05071">
        <ele>1054.1</ele>
        <time>2021-08-19T09:15:52Z</time>
      </trkpt>
      <trkpt lat="46.47232" lon="6.05078">
        <ele>1054.1</ele>
        <time>2021-08-19T09:15:53Z</time>
      </trkpt>
      <trkpt lat="46.47228" lon="6.05081">
        <ele>1054.2</ele>
        <time>2021-08-19T09:15:55Z</time>
      </trkpt>
      <trkpt lat="46.47224" lon="6.05085">
        <ele>1054.2</ele>
        <time>2021-08-19T09:15:57Z</time>
      </trkpt>
      <trkpt lat="46.47219" lon="6.05088">
        <ele>1054.2</ele>
        <time>2021-08-19T09:15:59Z</time>
      </trkpt>
      <trkpt lat="46.47217" lon="6.05094">
        <ele>1054.2</ele>
        <time>2021-08-19T09:16:01Z</time>
      </trkpt>
      <trkpt lat="46.47216" lon="6.05097">
        <ele>1054.2</ele>
        <time>2021-08-19T09:16:02Z</time>
      </trkpt>
      <trkpt lat="46.47214" lon="6.05101">
        <ele>1054.2</ele>
        <time>2021-08-19T09:16:04Z</time>
      </trkpt>
      <trkpt lat="46.47213" lon="6.05103">
        <ele>1054.2</ele>
        <time>2021-08-19T09:16:05Z</time>
      </trkpt>
      <trkpt lat="46.47212" lon="6.05104">
        <ele>1054.2</ele>
        <time>2021-08-19T09:16:06Z</time>
      </trkpt>
      <trkpt lat="46.47211" lon="6.05105">
        <ele>1054.2</ele>
        <time>2021-08-19T09:16:07Z</time>
      </trkpt>
      <trkpt lat="46.47203" lon="6.05111">
        <ele>1054.3</ele>
        <time>2021-08-19T09:16:09Z</time>
      </trkpt>
      <trkpt lat="46.47194" lon="6.05117">
        <ele>1054.3</ele>
        <time>2021-08-19T09:16:10Z</time>
      </trkpt>
      <trkpt lat="46.47188" lon="6.05119">
        <ele>1054.3</ele>
        <time>2021-08-19T09:16:11Z</time>
      </trkpt>
      <trkpt lat="46.47181" lon="6.05118">
        <ele>1054.4</ele>
        <time>2021-08-19T09:16:12Z</time>
      </trkpt>
      <trkpt lat="46.47166" lon="6.05117">
        <ele>1054.5</ele>
        <time>2021-08-19T09:16:13Z</time>
      </trkpt>
      <trkpt lat="46.47162" lon="6.05118">
        <ele>1054.5</ele>
        <time>2021-08-19T09:16:15Z</time>
      </trkpt>
      <trkpt lat="46.47149" lon="6.05123">
        <ele>1054.5</ele>
        <time>2021-08-19T09:16:16Z</time>
      </trkpt>
      <trkpt lat="46.47136" lon="6.05131">
        <ele>1054.5</ele>
        <time>2021-08-19T09:16:17Z</time>
      </trkpt>
      <trkpt lat="46.47124" lon="6.05143">
        <ele>1054.4</ele>
        <time>2021-08-19T09:16:19Z</time>
      </trkpt>
      <trkpt lat="46.47119" lon="6.05147">
        <ele>1054.3</ele>
        <time>2021-08-19T09:16:21Z</time>
      </trkpt>
      <trkpt lat="46.47113" lon="6.05156">
        <ele>1054.2</ele>
        <time>2021-08-19T09:16:22Z</time>
      </trkpt>
      <trkpt lat="46.47107" lon="6.05164">
        <ele>1054.1</ele>
        <time>2021-08-19T09:16:23Z</time>
      </trkpt>
      <trkpt lat="46.47099" lon="6.05173">
        <ele>1053.9</ele>
        <time>2021-08-19T09:16:25Z</time>
      </trkpt>
      <trkpt lat="46.47089" lon="6.05178">
        <ele>1053.8</ele>
        <time>2021-08-19T09:16:27Z</time>
      </trkpt>
      <trkpt lat="46.47079" lon="6.05179">
        <ele>1053.5</ele>
        <time>2021-08-19T09:16:29Z</time>
      </trkpt>
      <trkpt lat="46.47074" lon="6.05179">
        <ele>1053.4</ele>
        <time>2021-08-19T09:16:30Z</time>
      </trkpt>
      <trkpt lat="46.47069" lon="6.05179">
        <ele>1053.3</ele>
        <time>2021-08-19T09:16:31Z</time>
      </trkpt>
      <trkpt lat="46.47063" lon="6.05178">
        <ele>1053.2</ele>
        <time>2021-08-19T09:16:33Z</time>
      </trkpt>
      <trkpt lat="46.47057" lon="6.05178">
        <ele>1053.1</ele>
        <time>2021-08-19T09:16:34Z</time>
      </trkpt>
      <trkpt lat="46.47052" lon="6.05177">
        <ele>1053</ele>
        <time>2021-08-19T09:16:35Z</time>
      </trkpt>
      <trkpt lat="46.47046" lon="6.05177">
        <ele>1052.9</ele>
        <time>2021-08-19T09:16:37Z</time>
      </trkpt>
      <trkpt lat="46.47038" lon="6.05175">
        <ele>1052.9</ele>
        <time>2021-08-19T09:16:38Z</time>
      </trkpt>
      <trkpt lat="46.47028" lon="6.05171">
        <ele>1052.7</ele>
        <time>2021-08-19T09:16:40Z</time>
      </trkpt>
      <trkpt lat="46.47019" lon="6.05167">
        <ele>1052.6</ele>
        <time>2021-08-19T09:16:42Z</time>
      </trkpt>
      <trkpt lat="46.47014" lon="6.05164">
        <ele>1052.6</ele>
        <time>2021-08-19T09:16:43Z</time>
      </trkpt>
      <trkpt lat="46.47003" lon="6.05161">
        <ele>1052.4</ele>
        <time>2021-08-19T09:16:45Z</time>
      </trkpt>
      <trkpt lat="46.46998" lon="6.0516">
        <ele>1052.3</ele>
        <time>2021-08-19T09:16:46Z</time>
      </trkpt>
      <trkpt lat="46.46992" lon="6.05158">
        <ele>1052.2</ele>
        <time>2021-08-19T09:16:47Z</time>
      </trkpt>
      <trkpt lat="46.46986" lon="6.05157">
        <ele>1052.2</ele>
        <time>2021-08-19T09:16:48Z</time>
      </trkpt>
      <trkpt lat="46.46981" lon="6.05155">
        <ele>1052.1</ele>
        <time>2021-08-19T09:16:49Z</time>
      </trkpt>
      <trkpt lat="46.4697" lon="6.0515">
        <ele>1051.9</ele>
        <time>2021-08-19T09:16:51Z</time>
      </trkpt>
      <trkpt lat="46.46958" lon="6.05147">
        <ele>1051.8</ele>
        <time>2021-08-19T09:16:53Z</time>
      </trkpt>
      <trkpt lat="46.46947" lon="6.05147">
        <ele>1051.7</ele>
        <time>2021-08-19T09:16:55Z</time>
      </trkpt>
      <trkpt lat="46.46936" lon="6.05145">
        <ele>1051.5</ele>
        <time>2021-08-19T09:16:57Z</time>
      </trkpt>
      <trkpt lat="46.46931" lon="6.05145">
        <ele>1051.4</ele>
        <time>2021-08-19T09:16:58Z</time>
      </trkpt>
      <trkpt lat="46.4692" lon="6.05148">
        <ele>1051.3</ele>
        <time>2021-08-19T09:17:00Z</time>
      </trkpt>
      <trkpt lat="46.4691" lon="6.05153">
        <ele>1051.1</ele>
        <time>2021-08-19T09:17:02Z</time>
      </trkpt>
      <trkpt lat="46.46901" lon="6.05152">
        <ele>1051</ele>
        <time>2021-08-19T09:17:04Z</time>
      </trkpt>
      <trkpt lat="46.46895" lon="6.05156">
        <ele>1050.9</ele>
        <time>2021-08-19T09:17:06Z</time>
      </trkpt>
      <trkpt lat="46.46891" lon="6.05158">
        <ele>1050.8</ele>
        <time>2021-08-19T09:17:07Z</time>
      </trkpt>
      <trkpt lat="46.46883" lon="6.05159">
        <ele>1050.7</ele>
        <time>2021-08-19T09:17:09Z</time>
      </trkpt>
      <trkpt lat="46.46876" lon="6.05163">
        <ele>1050.5</ele>
        <time>2021-08-19T09:17:11Z</time>
      </trkpt>
      <trkpt lat="46.46875" lon="6.05163">
        <ele>1050.5</ele>
        <time>2021-08-19T09:17:12Z</time>
      </trkpt>
      <trkpt lat="46.46867" lon="6.05168">
        <ele>1050.3</ele>
        <time>2021-08-19T09:17:14Z</time>
      </trkpt>
      <trkpt lat="46.46861" lon="6.0517">
        <ele>1050.2</ele>
        <time>2021-08-19T09:17:15Z</time>
      </trkpt>
      <trkpt lat="46.46847" lon="6.05175">
        <ele>1050</ele>
        <time>2021-08-19T09:17:17Z</time>
      </trkpt>
      <trkpt lat="46.46843" lon="6.05177">
        <ele>1050</ele>
        <time>2021-08-19T09:17:18Z</time>
      </trkpt>
      <trkpt lat="46.46837" lon="6.05174">
        <ele>1049.9</ele>
        <time>2021-08-19T09:17:20Z</time>
      </trkpt>
      <trkpt lat="46.46836" lon="6.0517">
        <ele>1049.9</ele>
        <time>2021-08-19T09:17:21Z</time>
      </trkpt>
      <trkpt lat="46.46827" lon="6.05183">
        <ele>1049.7</ele>
        <time>2021-08-19T09:17:22Z</time>
      </trkpt>
      <trkpt lat="46.46821" lon="6.05191">
        <ele>1049.6</ele>
        <time>2021-08-19T09:17:23Z</time>
      </trkpt>
      <trkpt lat="46.46811" lon="6.05199">
        <ele>1049.4</ele>
        <time>2021-08-19T09:17:25Z</time>
      </trkpt>
      <trkpt lat="46.468" lon="6.05203">
        <ele>1049.3</ele>
        <time>2021-08-19T09:17:27Z</time>
      </trkpt>
      <trkpt lat="46.46794" lon="6.05204">
        <ele>1049.3</ele>
        <time>2021-08-19T09:17:28Z</time>
      </trkpt>
      <trkpt lat="46.46789" lon="6.05206">
        <ele>1049.2</ele>
        <time>2021-08-19T09:17:29Z</time>
      </trkpt>
      <trkpt lat="46.46784" lon="6.05209">
        <ele>1049.2</ele>
        <time>2021-08-19T09:17:30Z</time>
      </trkpt>
      <trkpt lat="46.46779" lon="6.05211">
        <ele>1049.1</ele>
        <time>2021-08-19T09:17:31Z</time>
      </trkpt>
      <trkpt lat="46.46776" lon="6.05215">
        <ele>1049.1</ele>
        <time>2021-08-19T09:17:33Z</time>
      </trkpt>
      <trkpt lat="46.46773" lon="6.05217">
        <ele>1049.1</ele>
        <time>2021-08-19T09:17:34Z</time>
      </trkpt>
      <trkpt lat="46.46765" lon="6.05222">
        <ele>1049</ele>
        <time>2021-08-19T09:17:36Z</time>
      </trkpt>
      <trkpt lat="46.4676" lon="6.05224">
        <ele>1048.9</ele>
        <time>2021-08-19T09:17:38Z</time>
      </trkpt>
      <trkpt lat="46.46752" lon="6.05231">
        <ele>1048.8</ele>
        <time>2021-08-19T09:17:39Z</time>
      </trkpt>
      <trkpt lat="46.46744" lon="6.05237">
        <ele>1048.8</ele>
        <time>2021-08-19T09:17:40Z</time>
      </trkpt>
      <trkpt lat="46.46736" lon="6.05244">
        <ele>1048.7</ele>
        <time>2021-08-19T09:17:42Z</time>
      </trkpt>
      <trkpt lat="46.46755" lon="6.05142">
        <ele>1028.2</ele>
        <time>2021-08-19T09:19:43Z</time>
      </trkpt>
      <trkpt lat="46.46756" lon="6.05139">
        <ele>1028</ele>
        <time>2021-08-19T09:19:44Z</time>
      </trkpt>
      <trkpt lat="46.46757" lon="6.05137">
        <ele>1027.8</ele>
        <time>2021-08-19T09:19:46Z</time>
      </trkpt>
      <trkpt lat="46.46757" lon="6.05134">
        <ele>1027.5</ele>
        <time>2021-08-19T09:19:47Z</time>
      </trkpt>
      <trkpt lat="46.46757" lon="6.05133">
        <ele>1027.4</ele>
        <time>2021-08-19T09:19:49Z</time>
      </trkpt>
      <trkpt lat="46.46757" lon="6.05131">
        <ele>1027.3</ele>
        <time>2021-08-19T09:19:50Z</time>
      </trkpt>
      <trkpt lat="46.46756" lon="6.05128">
        <ele>1027</ele>
        <time>2021-08-19T09:19:51Z</time>
      </trkpt>
      <trkpt lat="46.46756" lon="6.05126">
        <ele>1026.8</ele>
        <time>2021-08-19T09:19:52Z</time>
      </trkpt>
      <trkpt lat="46.46755" lon="6.05124">
        <ele>1026.7</ele>
        <time>2021-08-19T09:19:53Z</time>
      </trkpt>
      <trkpt lat="46.46755" lon="6.05122">
        <ele>1026.5</ele>
        <time>2021-08-19T09:19:55Z</time>
      </trkpt>
      <trkpt lat="46.46678" lon="6.05136">
        <ele>1019.3</ele>
        <time>2021-08-19T09:20:22Z</time>
      </trkpt>
      <trkpt lat="46.46674" lon="6.05137">
        <ele>1018.9</ele>
        <time>2021-08-19T09:20:24Z</time>
      </trkpt>
      <trkpt lat="46.46671" lon="6.05137">
        <ele>1018.6</ele>
        <time>2021-08-19T09:20:25Z</time>
      </trkpt>
      <trkpt lat="46.46667" lon="6.05137">
        <ele>1018.2</ele>
        <time>2021-08-19T09:20:27Z</time>
      </trkpt>
      <trkpt lat="46.4666" lon="6.05136">
        <ele>1017.6</ele>
        <time>2021-08-19T09:20:28Z</time>
      </trkpt>
      <trkpt lat="46.46654" lon="6.05136">
        <ele>1017.1</ele>
        <time>2021-08-19T09:20:30Z</time>
      </trkpt>
      <trkpt lat="46.46651" lon="6.05137">
        <ele>1016.9</ele>
        <time>2021-08-19T09:20:31Z</time>
      </trkpt>
      <trkpt lat="46.46645" lon="6.05137">
        <ele>1016.4</ele>
        <time>2021-08-19T09:20:33Z</time>
      </trkpt>
      <trkpt lat="46.46639" lon="6.05139">
        <ele>1016</ele>
        <time>2021-08-19T09:20:34Z</time>
      </trkpt>
      <trkpt lat="46.46635" lon="6.0514">
        <ele>1015.7</ele>
        <time>2021-08-19T09:20:35Z</time>
      </trkpt>
      <trkpt lat="46.46629" lon="6.05142">
        <ele>1015.3</ele>
        <time>2021-08-19T09:20:37Z</time>
      </trkpt>
      <trkpt lat="46.46626" lon="6.05145">
        <ele>1015.1</ele>
        <time>2021-08-19T09:20:38Z</time>
      </trkpt>
      <trkpt lat="46.46622" lon="6.05148">
        <ele>1014.9</ele>
        <time>2021-08-19T09:20:39Z</time>
      </trkpt>
      <trkpt lat="46.46616" lon="6.05149">
        <ele>1014.6</ele>
        <time>2021-08-19T09:20:40Z</time>
      </trkpt>
      <trkpt lat="46.46611" lon="6.05149">
        <ele>1014.4</ele>
        <time>2021-08-19T09:20:41Z</time>
      </trkpt>
      <trkpt lat="46.46608" lon="6.05149">
        <ele>1014.3</ele>
        <time>2021-08-19T09:20:43Z</time>
      </trkpt>
      <trkpt lat="46.46605" lon="6.05149">
        <ele>1014.1</ele>
        <time>2021-08-19T09:20:44Z</time>
      </trkpt>
      <trkpt lat="46.46601" lon="6.05149">
        <ele>1013.9</ele>
        <time>2021-08-19T09:20:46Z</time>
      </trkpt>
      <trkpt lat="46.46597" lon="6.0515">
        <ele>1013.7</ele>
        <time>2021-08-19T09:20:47Z</time>
      </trkpt>
      <trkpt lat="46.46595" lon="6.0515">
        <ele>1013.6</ele>
        <time>2021-08-19T09:20:48Z</time>
      </trkpt>
      <trkpt lat="46.46592" lon="6.05151">
        <ele>1013.4</ele>
        <time>2021-08-19T09:20:50Z</time>
      </trkpt>
      <trkpt lat="46.46591" lon="6.05151">
        <ele>1013.3</ele>
        <time>2021-08-19T09:20:51Z</time>
      </trkpt>
      <trkpt lat="46.46526" lon="6.05195">
        <ele>1007</ele>
        <time>2021-08-19T09:30:29Z</time>
      </trkpt>
      <trkpt lat="46.46526" lon="6.05189">
        <ele>1007.4</ele>
        <time>2021-08-19T09:30:30Z</time>
      </trkpt>
      <trkpt lat="46.46527" lon="6.05188">
        <ele>1007.6</ele>
        <time>2021-08-19T09:30:32Z</time>
      </trkpt>
      <trkpt lat="46.46528" lon="6.05186">
        <ele>1007.7</ele>
        <time>2021-08-19T09:30:33Z</time>
      </trkpt>
      <trkpt lat="46.46528" lon="6.05185">
        <ele>1007.8</ele>
        <time>2021-08-19T09:30:34Z</time>
      </trkpt>
      <trkpt lat="46.4653" lon="6.05183">
        <ele>1008</ele>
        <time>2021-08-19T09:30:36Z</time>
      </trkpt>
      <trkpt lat="46.46535" lon="6.05182">
        <ele>1008.5</ele>
        <time>2021-08-19T09:30:38Z</time>
      </trkpt>
      <trkpt lat="46.46538" lon="6.05181">
        <ele>1008.8</ele>
        <time>2021-08-19T09:30:39Z</time>
      </trkpt>
      <trkpt lat="46.46539" lon="6.05181">
        <ele>1008.9</ele>
        <time>2021-08-19T09:30:40Z</time>
      </trkpt>
      <trkpt lat="46.46542" lon="6.05181">
        <ele>1009.1</ele>
        <time>2021-08-19T09:30:42Z</time>
      </trkpt>
      <trkpt lat="46.46544" lon="6.05181">
        <ele>1009.2</ele>
        <time>2021-08-19T09:30:43Z</time>
      </trkpt>
      <trkpt lat="46.46548" lon="6.05179">
        <ele>1009.5</ele>
        <time>2021-08-19T09:30:45Z</time>
      </trkpt>
      <trkpt lat="46.4655" lon="6.05178">
        <ele>1009.6</ele>
        <time>2021-08-19T09:30:46Z</time>
      </trkpt>
      <trkpt lat="46.46551" lon="6.05177">
        <ele>1009.6</ele>
        <time>2021-08-19T09:30:48Z</time>
      </trkpt>
      <trkpt lat="46.46552" lon="6.05176">
        <ele>1009.7</ele>
        <time>2021-08-19T09:30:49Z</time>
      </trkpt>
      <trkpt lat="46.46552" lon="6.05176">
        <ele>1009.7</ele>
        <time>2021-08-19T09:30:50Z</time>
      </trkpt>
      <trkpt lat="46.46553" lon="6.05176">
        <ele>1009.7</ele>
        <time>2021-08-19T09:30:51Z</time>
      </trkpt>
      <trkpt lat="46.46553" lon="6.05176">
        <ele>1009.7</ele>
        <time>2021-08-19T09:30:52Z</time>
      </trkpt>
      <trkpt lat="46.46553" lon="6.05175">
        <ele>1009.8</ele>
        <time>2021-08-19T09:30:54Z</time>
      </trkpt>
      <trkpt lat="46.46553" lon="6.05175">
        <ele>1009.8</ele>
        <time>2021-08-19T09:30:55Z</time>
      </trkpt>
      <trkpt lat="46.46525" lon="6.05152">
        <ele>1005.4</ele>
        <time>2021-08-19T09:34:04Z</time>
      </trkpt>
      <trkpt lat="46.46527" lon="6.05151">
        <ele>1005.6</ele>
        <time>2021-08-19T09:34:05Z</time>
      </trkpt>
      <trkpt lat="46.46531" lon="6.05147">
        <ele>1005.6</ele>
        <time>2021-08-19T09:34:07Z</time>
      </trkpt>
      <trkpt lat="46.46531" lon="6.05147">
        <ele>1005.6</ele>
        <time>2021-08-19T09:34:08Z</time>
      </trkpt>
      <trkpt lat="46.46533" lon="6.05142">
        <ele>1005.6</ele>
        <time>2021-08-19T09:34:10Z</time>
      </trkpt>
      <trkpt lat="46.46533" lon="6.0514">
        <ele>1007.1</ele>
        <time>2021-08-19T09:34:11Z</time>
      </trkpt>
      <trkpt lat="46.46535" lon="6.05138">
        <ele>1007.2</ele>
        <time>2021-08-19T09:34:12Z</time>
      </trkpt>
      <trkpt lat="46.46536" lon="6.05138">
        <ele>1007.3</ele>
        <time>2021-08-19T09:34:13Z</time>
      </trkpt>
      <trkpt lat="46.46536" lon="6.05137">
        <ele>1007.4</ele>
        <time>2021-08-19T09:34:15Z</time>
      </trkpt>
      <trkpt lat="46.46537" lon="6.05135">
        <ele>1007.5</ele>
        <time>2021-08-19T09:34:16Z</time>
      </trkpt>
      <trkpt lat="46.46537" lon="6.05135">
        <ele>1007.6</ele>
        <time>2021-08-19T09:34:18Z</time>
      </trkpt>
      <trkpt lat="46.46536" lon="6.05134">
        <ele>1007.6</ele>
        <time>2021-08-19T09:34:20Z</time>
      </trkpt>
      <trkpt lat="46.46536" lon="6.05134">
        <ele>1007.6</ele>
        <time>2021-08-19T09:34:21Z</time>
      </trkpt>
      <trkpt lat="46.46536" lon="6.05134">
        <ele>1007.6</ele>
        <time>2021-08-19T09:34:22Z</time>
      </trkpt>
      <trkpt lat="46.46536" lon="6.05134">
        <ele>1007.6</ele>
        <time>2021-08-19T09:34:23Z</time>
      </trkpt>
      <trkpt lat="46.46536" lon="6.05134">
        <ele>1007.6</ele>
        <time>2021-08-19T09:34:25Z</time>
      </trkpt>
      <trkpt lat="46.46509" lon="6.05025">
        <ele>1015.5</ele>
        <time>2021-08-19T09:36:46Z</time>
      </trkpt>
      <trkpt lat="46.46507" lon="6.05021">
        <ele>1015.9</ele>
        <time>2021-08-19T09:36:47Z</time>
      </trkpt>
      <trkpt lat="46.46502" lon="6.05015">
        <ele>1016.5</ele>
        <time>2021-08-19T09:36:49Z</time>
      </trkpt>
      <trkpt lat="46.46498" lon="6.0501">
        <ele>1017</ele>
        <time>2021-08-19T09:36:50Z</time>
      </trkpt>
      <trkpt lat="46.46496" lon="6.05007">
        <ele>1017.2</ele>
        <time>2021-08-19T09:36:51Z</time>
      </trkpt>
      <trkpt lat="46.46492" lon="6.05001">
        <ele>1018.2</ele>
        <time>2021-08-19T09:36:53Z</time>
      </trkpt>
      <trkpt lat="46.4649" lon="6.04997">
        <ele>1018.2</ele>
        <time>2021-08-19T09:36:55Z</time>
      </trkpt>
      <trkpt lat="46.46489" lon="6.04996">
        <ele>1018.1</ele>
        <time>2021-08-19T09:36:56Z</time>
      </trkpt>
      <trkpt lat="46.46489" lon="6.04993">
        <ele>1018</ele>
        <time>2021-08-19T09:36:57Z</time>
      </trkpt>
      <trkpt lat="46.46489" lon="6.04989">
        <ele>1017.8</ele>
        <time>2021-08-19T09:36:59Z</time>
      </trkpt>
      <trkpt lat="46.46488" lon="6.04987">
        <ele>1017.8</ele>
        <time>2021-08-19T09:37:00Z</time>
      </trkpt>
      <trkpt lat="46.46487" lon="6.04985">
        <ele>1022.5</ele>
        <time>2021-08-19T09:37:02Z</time>
      </trkpt>
      <trkpt lat="46.46485" lon="6.04983">
        <ele>1022.9</ele>
        <time>2021-08-19T09:37:03Z</time>
      </trkpt>
      <trkpt lat="46.46482" lon="6.0498">
        <ele>1023.3</ele>
        <time>2021-08-19T09:37:05Z</time>
      </trkpt>
      <trkpt lat="46.46482" lon="6.04979">
        <ele>1023.3</ele>
        <time>2021-08-19T09:37:06Z</time>
      </trkpt>
      <trkpt lat="46.46482" lon="6.04979">
        <ele>1023.3</ele>
        <time>2021-08-19T09:37:07Z</time>
      </trkpt>
      <trkpt lat="46.46483" lon="6.04979">
        <ele>1023.4</ele>
        <time>2021-08-19T09:37:08Z</time>
      </trkpt>
      <trkpt lat="46.46483" lon="6.04978">
        <ele>1023.4</ele>
        <time>2021-08-19T09:37:10Z</time>
      </trkpt>
      <trkpt lat="46.46484" lon="6.04978">
        <ele>1023.5</ele>
        <time>2021-08-19T09:37:11Z</time>
      </trkpt>
      <trkpt lat="46.46484" lon="6.04978">
        <ele>1023.5</ele>
        <time>2021-08-19T09:37:13Z</time>
      </trkpt>
      <trkpt lat="46.46484" lon="6.04977">
        <ele>1023.6</ele>
        <time>2021-08-19T09:37:14Z</time>
      </trkpt>
      <trkpt lat="46.46485" lon="6.04977">
        <ele>1023.6</ele>
        <time>2021-08-19T09:37:15Z</time>
      </trkpt>
      <trkpt lat="46.46485" lon="6.04977">
        <ele>1023.7</ele>
        <time>2021-08-19T09:37:16Z</time>
      </trkpt>
      <trkpt lat="46.46486" lon="6.04975">
        <ele>1023.8</ele>
        <time>2021-08-19T09:37:18Z</time>
      </trkpt>
      <trkpt lat="46.46487" lon="6.04973">
        <ele>1023.9</ele>
        <time>2021-08-19T09:37:19Z</time>
      </trkpt>
      <trkpt lat="46.46489" lon="6.04971">
        <ele>1024.2</ele>
        <time>2021-08-19T09:37:21Z</time>
      </trkpt>
      <trkpt lat="46.4649" lon="6.0497">
        <ele>1024.3</ele>
        <time>2021-08-19T09:37:22Z</time>
      </trkpt>
      <trkpt lat="46.46493" lon="6.04964">
        <ele>1024.7</ele>
        <time>2021-08-19T09:37:24Z</time>
      </trkpt>
      <trkpt lat="46.46496" lon="6.04959">
        <ele>1025.1</ele>
        <time>2021-08-19T09:37:26Z</time>
      </trkpt>
      <trkpt lat="46.46499" lon="6.04956">
        <ele>1025.4</ele>
        <time>2021-08-19T09:37:27Z</time>
      </trkpt>
      <trkpt lat="46.46502" lon="6.04951">
        <ele>1025.8</ele>
        <time>2021-08-19T09:37:29Z</time>
      </trkpt>
      <trkpt lat="46.46503" lon="6.04949">
        <ele>1025.9</ele>
        <time>2021-08-19T09:37:30Z</time>
      </trkpt>
      <trkpt lat="46.46504" lon="6.04947">
        <ele>1026.1</ele>
        <time>2021-08-19T09:37:31Z</time>
      </trkpt>
      <trkpt lat="46.46504" lon="6.04946">
        <ele>1026.2</ele>
        <time>2021-08-19T09:37:33Z</time>
      </trkpt>
      <trkpt lat="46.46504" lon="6.04947">
        <ele>1026.2</ele>
        <time>2021-08-19T09:37:34Z</time>
      </trkpt>
      <trkpt lat="46.46504" lon="6.04947">
        <ele>1026.2</ele>
        <time>2021-08-19T09:37:35Z</time>
      </trkpt>
      <trkpt lat="46.46504" lon="6.04947">
        <ele>1026.2</ele>
        <time>2021-08-19T09:37:36Z</time>
      </trkpt>
      <trkpt lat="46.46504" lon="6.04947">
        <ele>1026.2</ele>
        <time>2021-08-19T09:37:38Z</time>
      </trkpt>
      <trkpt lat="46.46504" lon="6.04947">
        <ele>1026.2</ele>
        <time>2021-08-19T09:37:39Z</time>
      </trkpt>
      <trkpt lat="46.46505" lon="6.04947">
        <ele>1026.3</ele>
        <time>2021-08-19T09:37:40Z</time>
      </trkpt>
      <trkpt lat="46.46506" lon="6.04947">
        <ele>1026.3</ele>
        <time>2021-08-19T09:37:42Z</time>
      </trkpt>
      <trkpt lat="46.46543" lon="6.04929">
        <ele>1031.5</ele>
        <time>2021-08-19T09:38:31Z</time>
      </trkpt>
      <trkpt lat="46.46547" lon="6.04926">
        <ele>1032.1</ele>
        <time>2021-08-19T09:38:32Z</time>
      </trkpt>
      <trkpt lat="46.46549" lon="6.04924">
        <ele>1032.5</ele>
        <time>2021-08-19T09:38:33Z</time>
      </trkpt>
      <trkpt lat="46.46549" lon="6.04922">
        <ele>1032.7</ele>
        <time>2021-08-19T09:38:34Z</time>
      </trkpt>
      <trkpt lat="46.46549" lon="6.04918">
        <ele>1033.1</ele>
        <time>2021-08-19T09:38:36Z</time>
      </trkpt>
      <trkpt lat="46.46549" lon="6.04916">
        <ele>1033.3</ele>
        <time>2021-08-19T09:38:37Z</time>
      </trkpt>
      <trkpt lat="46.4655" lon="6.04914">
        <ele>1033.5</ele>
        <time>2021-08-19T09:38:39Z</time>
      </trkpt>
      <trkpt lat="46.46551" lon="6.04913">
        <ele>1033.7</ele>
        <time>2021-08-19T09:38:40Z</time>
      </trkpt>
      <trkpt lat="46.46551" lon="6.04912">
        <ele>1033.8</ele>
        <time>2021-08-19T09:38:41Z</time>
      </trkpt>
      <trkpt lat="46.46551" lon="6.04912">
        <ele>1033.8</ele>
        <time>2021-08-19T09:38:43Z</time>
      </trkpt>
      <trkpt lat="46.46551" lon="6.04911">
        <ele>1033.9</ele>
        <time>2021-08-19T09:38:44Z</time>
      </trkpt>
      <trkpt lat="46.46551" lon="6.04911">
        <ele>1033.9</ele>
        <time>2021-08-19T09:38:45Z</time>
      </trkpt>
      <trkpt lat="46.46552" lon="6.04911">
        <ele>1033.9</ele>
        <time>2021-08-19T09:38:46Z</time>
      </trkpt>
      <trkpt lat="46.46552" lon="6.04911">
        <ele>1033.9</ele>
        <time>2021-08-19T09:38:48Z</time>
      </trkpt>
      <trkpt lat="46.46552" lon="6.0491">
        <ele>1034</ele>
        <time>2021-08-19T09:38:49Z</time>
      </trkpt>
      <trkpt lat="46.46597" lon="6.0485">
        <ele>1042.9</ele>
        <time>2021-08-19T09:40:13Z</time>
      </trkpt>
      <trkpt lat="46.466" lon="6.04844">
        <ele>1043.5</ele>
        <time>2021-08-19T09:40:15Z</time>
      </trkpt>
      <trkpt lat="46.46602" lon="6.04842">
        <ele>1043.8</ele>
        <time>2021-08-19T09:40:16Z</time>
      </trkpt>
      <trkpt lat="46.46605" lon="6.0484">
        <ele>1044.1</ele>
        <time>2021-08-19T09:40:18Z</time>
      </trkpt>
      <trkpt lat="46.46607" lon="6.0484">
        <ele>1044.3</ele>
        <time>2021-08-19T09:40:19Z</time>
      </trkpt>
      <trkpt lat="46.4661" lon="6.04838">
        <ele>1044.6</ele>
        <time>2021-08-19T09:40:21Z</time>
      </trkpt>
      <trkpt lat="46.46612" lon="6.04835">
        <ele>1044.8</ele>
        <time>2021-08-19T09:40:23Z</time>
      </trkpt>
      <trkpt lat="46.46614" lon="6.04831">
        <ele>1045</ele>
        <time>2021-08-19T09:40:25Z</time>
      </trkpt>
      <trkpt lat="46.46614" lon="6.04829">
        <ele>1045.1</ele>
        <time>2021-08-19T09:40:26Z</time>
      </trkpt>
      <trkpt lat="46.46613" lon="6.04829">
        <ele>1045.1</ele>
        <time>2021-08-19T09:40:28Z</time>
      </trkpt>
      <trkpt lat="46.46612" lon="6.04828">
        <ele>1045.1</ele>
        <time>2021-08-19T09:40:29Z</time>
      </trkpt>
      <trkpt lat="46.46612" lon="6.04828">
        <ele>1045.2</ele>
        <time>2021-08-19T09:40:31Z</time>
      </trkpt>
      <trkpt lat="46.46612" lon="6.04827">
        <ele>1045.2</ele>
        <time>2021-08-19T09:40:32Z</time>
      </trkpt>
      <trkpt lat="46.46612" lon="6.04827">
        <ele>1045.2</ele>
        <time>2021-08-19T09:40:33Z</time>
      </trkpt>
      <trkpt lat="46.46612" lon="6.04827">
        <ele>1045.2</ele>
        <time>2021-08-19T09:40:34Z</time>
      </trkpt>
      <trkpt lat="46.46612" lon="6.04827">
        <ele>1045.2</ele>
        <time>2021-08-19T09:40:36Z</time>
      </trkpt>
      <trkpt lat="46.4662" lon="6.04816">
        <ele>1045.3</ele>
        <time>2021-08-19T09:40:43Z</time>
      </trkpt>
      <trkpt lat="46.46626" lon="6.04809">
        <ele>1045.2</ele>
        <time>2021-08-19T09:40:45Z</time>
      </trkpt>
      <trkpt lat="46.46631" lon="6.04803">
        <ele>1045.2</ele>
        <time>2021-08-19T09:40:46Z</time>
      </trkpt>
      <trkpt lat="46.46635" lon="6.04798">
        <ele>1045.1</ele>
        <time>2021-08-19T09:40:47Z</time>
      </trkpt>
      <trkpt lat="46.4664" lon="6.04791">
        <ele>1045.2</ele>
        <time>2021-08-19T09:40:49Z</time>
      </trkpt>
      <trkpt lat="46.46642" lon="6.04788">
        <ele>1045.2</ele>
        <time>2021-08-19T09:40:50Z</time>
      </trkpt>
      <trkpt lat="46.46644" lon="6.04784">
        <ele>1045.3</ele>
        <time>2021-08-19T09:40:51Z</time>
      </trkpt>
      <trkpt lat="46.46647" lon="6.0478">
        <ele>1045.4</ele>
        <time>2021-08-19T09:40:52Z</time>
      </trkpt>
      <trkpt lat="46.4665" lon="6.04777">
        <ele>1045.5</ele>
        <time>2021-08-19T09:40:54Z</time>
      </trkpt>
      <trkpt lat="46.46652" lon="6.04773">
        <ele>1045.6</ele>
        <time>2021-08-19T09:40:55Z</time>
      </trkpt>
      <trkpt lat="46.46654" lon="6.0477">
        <ele>1045.6</ele>
        <time>2021-08-19T09:40:56Z</time>
      </trkpt>
      <trkpt lat="46.46658" lon="6.04764">
        <ele>1045.8</ele>
        <time>2021-08-19T09:40:58Z</time>
      </trkpt>
      <trkpt lat="46.46661" lon="6.0476">
        <ele>1045.9</ele>
        <time>2021-08-19T09:41:00Z</time>
      </trkpt>
      <trkpt lat="46.46665" lon="6.04756">
        <ele>1046.1</ele>
        <time>2021-08-19T09:41:01Z</time>
      </trkpt>
      <trkpt lat="46.46669" lon="6.04751">
        <ele>1046.3</ele>
        <time>2021-08-19T09:41:02Z</time>
      </trkpt>
      <trkpt lat="46.46675" lon="6.04744">
        <ele>1046.7</ele>
        <time>2021-08-19T09:41:04Z</time>
      </trkpt>
      <trkpt lat="46.46681" lon="6.04737">
        <ele>1047.1</ele>
        <time>2021-08-19T09:41:05Z</time>
      </trkpt>
      <trkpt lat="46.46685" lon="6.04733">
        <ele>1047.4</ele>
        <time>2021-08-19T09:41:06Z</time>
      </trkpt>
      <trkpt lat="46.46689" lon="6.04728">
        <ele>1047.7</ele>
        <time>2021-08-19T09:41:08Z</time>
      </trkpt>
      <trkpt lat="46.46691" lon="6.04724">
        <ele>1047.9</ele>
        <time>2021-08-19T09:41:09Z</time>
      </trkpt>
      <trkpt lat="46.46694" lon="6.0472">
        <ele>1048.1</ele>
        <time>2021-08-19T09:41:10Z</time>
      </trkpt>
      <trkpt lat="46.46696" lon="6.04718">
        <ele>1048.2</ele>
        <time>2021-08-19T09:41:11Z</time>
      </trkpt>
      <trkpt lat="46.46698" lon="6.04716">
        <ele>1048.2</ele>
        <time>2021-08-19T09:41:13Z</time>
      </trkpt>
      <trkpt lat="46.46702" lon="6.04713">
        <ele>1048.3</ele>
        <time>2021-08-19T09:41:14Z</time>
      </trkpt>
      <trkpt lat="46.46704" lon="6.04712">
        <ele>1048.4</ele>
        <time>2021-08-19T09:41:15Z</time>
      </trkpt>
      <trkpt lat="46.46706" lon="6.0471">
        <ele>1048.4</ele>
        <time>2021-08-19T09:41:16Z</time>
      </trkpt>
      <trkpt lat="46.46709" lon="6.04707">
        <ele>1048.4</ele>
        <time>2021-08-19T09:41:18Z</time>
      </trkpt>
      <trkpt lat="46.4671" lon="6.04703">
        <ele>1048.3</ele>
        <time>2021-08-19T09:41:19Z</time>
      </trkpt>
      <trkpt lat="46.46712" lon="6.04701">
        <ele>1048.3</ele>
        <time>2021-08-19T09:41:20Z</time>
      </trkpt>
      <trkpt lat="46.46713" lon="6.04696">
        <ele>1048.2</ele>
        <time>2021-08-19T09:41:22Z</time>
      </trkpt>
      <trkpt lat="46.46713" lon="6.04692">
        <ele>1048.1</ele>
        <time>2021-08-19T09:41:24Z</time>
      </trkpt>
      <trkpt lat="46.46713" lon="6.0469">
        <ele>1048</ele>
        <time>2021-08-19T09:41:25Z</time>
      </trkpt>
      <trkpt lat="46.46713" lon="6.04688">
        <ele>1047.9</ele>
        <time>2021-08-19T09:41:27Z</time>
      </trkpt>
      <trkpt lat="46.46712" lon="6.0469">
        <ele>1047.9</ele>
        <time>2021-08-19T09:41:28Z</time>
      </trkpt>
      <trkpt lat="46.46712" lon="6.04692">
        <ele>1047.8</ele>
        <time>2021-08-19T09:41:29Z</time>
      </trkpt>
      <trkpt lat="46.46712" lon="6.04692">
        <ele>1047.8</ele>
        <time>2021-08-19T09:41:30Z</time>
      </trkpt>
      <trkpt lat="46.46712" lon="6.04692">
        <ele>1047.8</ele>
        <time>2021-08-19T09:41:32Z</time>
      </trkpt>
      <trkpt lat="46.46711" lon="6.04691">
        <ele>1047.7</ele>
        <time>2021-08-19T09:41:33Z</time>
      </trkpt>
      <trkpt lat="46.4671" lon="6.0469">
        <ele>1047.6</ele>
        <time>2021-08-19T09:41:34Z</time>
      </trkpt>
      <trkpt lat="46.4671" lon="6.04688">
        <ele>1047.5</ele>
        <time>2021-08-19T09:41:36Z</time>
      </trkpt>
      <trkpt lat="46.46739" lon="6.04624">
        <ele>1045.8</ele>
        <time>2021-08-19T09:41:52Z</time>
      </trkpt>
      <trkpt lat="46.46741" lon="6.04619">
        <ele>1046.1</ele>
        <time>2021-08-19T09:41:53Z</time>
      </trkpt>
      <trkpt lat="46.46742" lon="6.04617">
        <ele>1046.2</ele>
        <time>2021-08-19T09:41:54Z</time>
      </trkpt>
      <trkpt lat="46.46743" lon="6.04613">
        <ele>1046.5</ele>
        <time>2021-08-19T09:41:56Z</time>
      </trkpt>
      <trkpt lat="46.46743" lon="6.04608">
        <ele>1046.9</ele>
        <time>2021-08-19T09:41:57Z</time>
      </trkpt>
      <trkpt lat="46.46744" lon="6.04606">
        <ele>1047</ele>
        <time>2021-08-19T09:41:58Z</time>
      </trkpt>
      <trkpt lat="46.46744" lon="6.04604">
        <ele>1047.2</ele>
        <time>2021-08-19T09:41:59Z</time>
      </trkpt>
      <trkpt lat="46.46746" lon="6.04601">
        <ele>1047.6</ele>
        <time>2021-08-19T09:42:01Z</time>
      </trkpt>
      <trkpt lat="46.46747" lon="6.04598">
        <ele>1047.9</ele>
        <time>2021-08-19T09:42:02Z</time>
      </trkpt>
      <trkpt lat="46.46749" lon="6.04595">
        <ele>1048.3</ele>
        <time>2021-08-19T09:42:04Z</time>
      </trkpt>
      <trkpt lat="46.46751" lon="6.04591">
        <ele>1048.9</ele>
        <time>2021-08-19T09:42:05Z</time>
      </trkpt>
      <trkpt lat="46.46751" lon="6.0459">
        <ele>1049</ele>
        <time>2021-08-19T09:42:06Z</time>
      </trkpt>
      <trkpt lat="46.46753" lon="6.04588">
        <ele>1049.3</ele>
        <time>2021-08-19T09:42:08Z</time>
      </trkpt>
      <trkpt lat="46.46754" lon="6.04586">
        <ele>1049.5</ele>
        <time>2021-08-19T09:42:09Z</time>
      </trkpt>
      <trkpt lat="46.46754" lon="6.04585">
        <ele>1049.7</ele>
        <time>2021-08-19T09:42:11Z</time>
      </trkpt>
      <trkpt lat="46.46754" lon="6.04585">
        <ele>1049.7</ele>
        <time>2021-08-19T09:42:12Z</time>
      </trkpt>
      <trkpt lat="46.46754" lon="6.04584">
        <ele>1049.8</ele>
        <time>2021-08-19T09:42:13Z</time>
      </trkpt>
      <trkpt lat="46.46755" lon="6.04584">
        <ele>1049.9</ele>
        <time>2021-08-19T09:42:15Z</time>
      </trkpt>
      <trkpt lat="46.46755" lon="6.04583">
        <ele>1050</ele>
        <time>2021-08-19T09:42:16Z</time>
      </trkpt>
      <trkpt lat="46.46756" lon="6.04583">
        <ele>1050.1</ele>
        <time>2021-08-19T09:42:17Z</time>
      </trkpt>
      <trkpt lat="46.46757" lon="6.04582">
        <ele>1050.3</ele>
        <time>2021-08-19T09:42:18Z</time>
      </trkpt>
      <trkpt lat="46.46758" lon="6.0458">
        <ele>1050.5</ele>
        <time>2021-08-19T09:42:20Z</time>
      </trkpt>
      <trkpt lat="46.46758" lon="6.04579">
        <ele>1050.7</ele>
        <time>2021-08-19T09:42:21Z</time>
      </trkpt>
      <trkpt lat="46.46757" lon="6.04576">
        <ele>1051</ele>
        <time>2021-08-19T09:42:23Z</time>
      </trkpt>
      <trkpt lat="46.46756" lon="6.04575">
        <ele>1051.1</ele>
        <time>2021-08-19T09:42:24Z</time>
      </trkpt>
      <trkpt lat="46.46756" lon="6.04574">
        <ele>1051.3</ele>
        <time>2021-08-19T09:42:26Z</time>
      </trkpt>
      <trkpt lat="46.46755" lon="6.04573">
        <ele>1051.4</ele>
        <time>2021-08-19T09:42:27Z</time>
      </trkpt>
      <trkpt lat="46.46755" lon="6.04573">
        <ele>1051.5</ele>
        <time>2021-08-19T09:42:28Z</time>
      </trkpt>
      <trkpt lat="46.46755" lon="6.04572">
        <ele>1051.5</ele>
        <time>2021-08-19T09:42:29Z</time>
      </trkpt>
      <trkpt lat="46.46755" lon="6.04572">
        <ele>1051.5</ele>
        <time>2021-08-19T09:42:30Z</time>
      </trkpt>
      <trkpt lat="46.46754" lon="6.04572">
        <ele>1051.6</ele>
        <time>2021-08-19T09:42:32Z</time>
      </trkpt>
      <trkpt lat="46.46754" lon="6.04572">
        <ele>1051.6</ele>
        <time>2021-08-19T09:42:33Z</time>
      </trkpt>
      <trkpt lat="46.46754" lon="6.04571">
        <ele>1051.6</ele>
        <time>2021-08-19T09:42:35Z</time>
      </trkpt>
      <trkpt lat="46.46754" lon="6.04571">
        <ele>1051.6</ele>
        <time>2021-08-19T09:42:36Z</time>
      </trkpt>
      <trkpt lat="46.46755" lon="6.0457">
        <ele>1051.7</ele>
        <time>2021-08-19T09:42:37Z</time>
      </trkpt>
      <trkpt lat="46.46755" lon="6.04569">
        <ele>1051.9</ele>
        <time>2021-08-19T09:42:38Z</time>
      </trkpt>
      <trkpt lat="46.46756" lon="6.04565">
        <ele>1052.3</ele>
        <time>2021-08-19T09:42:40Z</time>
      </trkpt>
      <trkpt lat="46.46756" lon="6.04563">
        <ele>1052.5</ele>
        <time>2021-08-19T09:42:41Z</time>
      </trkpt>
      <trkpt lat="46.46757" lon="6.04561">
        <ele>1052.7</ele>
        <time>2021-08-19T09:42:42Z</time>
      </trkpt>
      <trkpt lat="46.46758" lon="6.04559">
        <ele>1052.9</ele>
        <time>2021-08-19T09:42:44Z</time>
      </trkpt>
      <trkpt lat="46.46759" lon="6.04557">
        <ele>1053.1</ele>
        <time>2021-08-19T09:42:45Z</time>
      </trkpt>
      <trkpt lat="46.46759" lon="6.04556">
        <ele>1053.2</ele>
        <time>2021-08-19T09:42:46Z</time>
      </trkpt>
      <trkpt lat="46.4676" lon="6.04553">
        <ele>1053.5</ele>
        <time>2021-08-19T09:42:48Z</time>
      </trkpt>
      <trkpt lat="46.46761" lon="6.04552">
        <ele>1053.6</ele>
        <time>2021-08-19T09:42:49Z</time>
      </trkpt>
      <trkpt lat="46.46761" lon="6.04551">
        <ele>1053.7</ele>
        <time>2021-08-19T09:42:50Z</time>
      </trkpt>
      <trkpt lat="46.46761" lon="6.0455">
        <ele>1053.7</ele>
        <time>2021-08-19T09:42:51Z</time>
      </trkpt>
      <trkpt lat="46.46761" lon="6.04549">
        <ele>1053.8</ele>
        <time>2021-08-19T09:42:53Z</time>
      </trkpt>
      <trkpt lat="46.46761" lon="6.04549">
        <ele>1053.8</ele>
        <time>2021-08-19T09:42:54Z</time>
      </trkpt>
      <trkpt lat="46.46761" lon="6.04549">
        <ele>1053.8</ele>
        <time>2021-08-19T09:42:56Z</time>
      </trkpt>
      <trkpt lat="46.46761" lon="6.04549">
        <ele>1053.8</ele>
        <time>2021-08-19T09:42:57Z</time>
      </trkpt>
      <trkpt lat="46.46761" lon="6.04549">
        <ele>1053.8</ele>
        <time>2021-08-19T09:42:58Z</time>
      </trkpt>
      <trkpt lat="46.46762" lon="6.04549">
        <ele>1053.9</ele>
        <time>2021-08-19T09:42:59Z</time>
      </trkpt>
      <trkpt lat="46.46762" lon="6.04549">
        <ele>1053.9</ele>
        <time>2021-08-19T09:43:01Z</time>
      </trkpt>
      <trkpt lat="46.46762" lon="6.04549">
        <ele>1053.9</ele>
        <time>2021-08-19T09:43:02Z</time>
      </trkpt>
      <trkpt lat="46.46763" lon="6.04547">
        <ele>1054.1</ele>
        <time>2021-08-19T09:43:04Z</time>
      </trkpt>
      <trkpt lat="46.46764" lon="6.04545">
        <ele>1054.2</ele>
        <time>2021-08-19T09:43:05Z</time>
      </trkpt>
      <trkpt lat="46.46766" lon="6.04543">
        <ele>1054.5</ele>
        <time>2021-08-19T09:43:07Z</time>
      </trkpt>
      <trkpt lat="46.46767" lon="6.04541">
        <ele>1054.7</ele>
        <time>2021-08-19T09:43:08Z</time>
      </trkpt>
      <trkpt lat="46.46767" lon="6.0454">
        <ele>1054.8</ele>
        <time>2021-08-19T09:43:09Z</time>
      </trkpt>
      <trkpt lat="46.46768" lon="6.04539">
        <ele>1054.9</ele>
        <time>2021-08-19T09:43:10Z</time>
      </trkpt>
      <trkpt lat="46.4677" lon="6.04536">
        <ele>1055.3</ele>
        <time>2021-08-19T09:43:12Z</time>
      </trkpt>
      <trkpt lat="46.4677" lon="6.04535">
        <ele>1055.4</ele>
        <time>2021-08-19T09:43:13Z</time>
      </trkpt>
      <trkpt lat="46.46772" lon="6.04533">
        <ele>1055.6</ele>
        <time>2021-08-19T09:43:14Z</time>
      </trkpt>
      <trkpt lat="46.46772" lon="6.04532">
        <ele>1055.7</ele>
        <time>2021-08-19T09:43:15Z</time>
      </trkpt>
      <trkpt lat="46.46773" lon="6.04532">
        <ele>1055.7</ele>
        <time>2021-08-19T09:43:17Z</time>
      </trkpt>
      <trkpt lat="46.46773" lon="6.04531">
        <ele>1055.8</ele>
        <time>2021-08-19T09:43:18Z</time>
      </trkpt>
      <trkpt lat="46.46773" lon="6.04531">
        <ele>1055.9</ele>
        <time>2021-08-19T09:43:19Z</time>
      </trkpt>
      <trkpt lat="46.46774" lon="6.0453">
        <ele>1055.9</ele>
        <time>2021-08-19T09:43:20Z</time>
      </trkpt>
      <trkpt lat="46.46775" lon="6.04528">
        <ele>1056.1</ele>
        <time>2021-08-19T09:43:22Z</time>
      </trkpt>
      <trkpt lat="46.46776" lon="6.04527">
        <ele>1056.3</ele>
        <time>2021-08-19T09:43:23Z</time>
      </trkpt>
      <trkpt lat="46.46779" lon="6.04523">
        <ele>1056.7</ele>
        <time>2021-08-19T09:43:25Z</time>
      </trkpt>
      <trkpt lat="46.46781" lon="6.04519">
        <ele>1057.1</ele>
        <time>2021-08-19T09:43:26Z</time>
      </trkpt>
      <trkpt lat="46.46781" lon="6.04518">
        <ele>1057.2</ele>
        <time>2021-08-19T09:43:27Z</time>
      </trkpt>
      <trkpt lat="46.46781" lon="6.04517">
        <ele>1057.4</ele>
        <time>2021-08-19T09:43:28Z</time>
      </trkpt>
      <trkpt lat="46.46782" lon="6.04515">
        <ele>1057.6</ele>
        <time>2021-08-19T09:43:30Z</time>
      </trkpt>
      <trkpt lat="46.46783" lon="6.04513">
        <ele>1057.7</ele>
        <time>2021-08-19T09:43:31Z</time>
      </trkpt>
      <trkpt lat="46.46783" lon="6.04511">
        <ele>1057.9</ele>
        <time>2021-08-19T09:43:33Z</time>
      </trkpt>
      <trkpt lat="46.46782" lon="6.04508">
        <ele>1058.1</ele>
        <time>2021-08-19T09:43:34Z</time>
      </trkpt>
      <trkpt lat="46.46782" lon="6.04506">
        <ele>1058.3</ele>
        <time>2021-08-19T09:43:35Z</time>
      </trkpt>
      <trkpt lat="46.46781" lon="6.04503">
        <ele>1058.6</ele>
        <time>2021-08-19T09:43:37Z</time>
      </trkpt>
      <trkpt lat="46.46782" lon="6.04501">
        <ele>1058.7</ele>
        <time>2021-08-19T09:43:38Z</time>
      </trkpt>
      <trkpt lat="46.46783" lon="6.04498">
        <ele>1059</ele>
        <time>2021-08-19T09:43:39Z</time>
      </trkpt>
      <trkpt lat="46.46783" lon="6.04497">
        <ele>1059</ele>
        <time>2021-08-19T09:43:41Z</time>
      </trkpt>
      <trkpt lat="46.46784" lon="6.04496">
        <ele>1059.1</ele>
        <time>2021-08-19T09:43:42Z</time>
      </trkpt>
      <trkpt lat="46.46786" lon="6.04494">
        <ele>1059.4</ele>
        <time>2021-08-19T09:43:43Z</time>
      </trkpt>
      <trkpt lat="46.46787" lon="6.04493">
        <ele>1059.5</ele>
        <time>2021-08-19T09:43:44Z</time>
      </trkpt>
      <trkpt lat="46.46789" lon="6.04491">
        <ele>1059.8</ele>
        <time>2021-08-19T09:43:45Z</time>
      </trkpt>
      <trkpt lat="46.46791" lon="6.04488">
        <ele>1060.1</ele>
        <time>2021-08-19T09:43:47Z</time>
      </trkpt>
      <trkpt lat="46.46792" lon="6.04487">
        <ele>1060.2</ele>
        <time>2021-08-19T09:43:48Z</time>
      </trkpt>
      <trkpt lat="46.46793" lon="6.04486">
        <ele>1060.3</ele>
        <time>2021-08-19T09:43:49Z</time>
      </trkpt>
      <trkpt lat="46.46794" lon="6.04485">
        <ele>1060.4</ele>
        <time>2021-08-19T09:43:51Z</time>
      </trkpt>
      <trkpt lat="46.46795" lon="6.04485">
        <ele>1060.5</ele>
        <time>2021-08-19T09:43:52Z</time>
      </trkpt>
      <trkpt lat="46.46796" lon="6.04484">
        <ele>1060.6</ele>
        <time>2021-08-19T09:43:53Z</time>
      </trkpt>
      <trkpt lat="46.46798" lon="6.04482">
        <ele>1060.9</ele>
        <time>2021-08-19T09:43:55Z</time>
      </trkpt>
      <trkpt lat="46.468" lon="6.0448">
        <ele>1061</ele>
        <time>2021-08-19T09:43:56Z</time>
      </trkpt>
      <trkpt lat="46.46801" lon="6.04479">
        <ele>1061.2</ele>
        <time>2021-08-19T09:43:57Z</time>
      </trkpt>
      <trkpt lat="46.46802" lon="6.04478">
        <ele>1061.3</ele>
        <time>2021-08-19T09:43:59Z</time>
      </trkpt>
      <trkpt lat="46.46803" lon="6.04477">
        <ele>1061.4</ele>
        <time>2021-08-19T09:44:00Z</time>
      </trkpt>
      <trkpt lat="46.46803" lon="6.04477">
        <ele>1061.5</ele>
        <time>2021-08-19T09:44:01Z</time>
      </trkpt>
      <trkpt lat="46.46804" lon="6.04476">
        <ele>1061.6</ele>
        <time>2021-08-19T09:44:03Z</time>
      </trkpt>
      <trkpt lat="46.46804" lon="6.04476">
        <ele>1061.6</ele>
        <time>2021-08-19T09:44:04Z</time>
      </trkpt>
      <trkpt lat="46.46805" lon="6.04474">
        <ele>1061.7</ele>
        <time>2021-08-19T09:44:06Z</time>
      </trkpt>
      <trkpt lat="46.46805" lon="6.04473">
        <ele>1061.8</ele>
        <time>2021-08-19T09:44:07Z</time>
      </trkpt>
      <trkpt lat="46.46807" lon="6.04472">
        <ele>1062</ele>
        <time>2021-08-19T09:44:08Z</time>
      </trkpt>
      <trkpt lat="46.46807" lon="6.04471">
        <ele>1062.1</ele>
        <time>2021-08-19T09:44:09Z</time>
      </trkpt>
      <trkpt lat="46.46808" lon="6.0447">
        <ele>1062.2</ele>
        <time>2021-08-19T09:44:10Z</time>
      </trkpt>
      <trkpt lat="46.46808" lon="6.04467">
        <ele>1062.5</ele>
        <time>2021-08-19T09:44:11Z</time>
      </trkpt>
      <trkpt lat="46.46808" lon="6.04466">
        <ele>1062.6</ele>
        <time>2021-08-19T09:44:13Z</time>
      </trkpt>
      <trkpt lat="46.46808" lon="6.04464">
        <ele>1062.7</ele>
        <time>2021-08-19T09:44:14Z</time>
      </trkpt>
      <trkpt lat="46.46809" lon="6.04463">
        <ele>1062.8</ele>
        <time>2021-08-19T09:44:15Z</time>
      </trkpt>
      <trkpt lat="46.46808" lon="6.04462">
        <ele>1062.9</ele>
        <time>2021-08-19T09:44:17Z</time>
      </trkpt>
      <trkpt lat="46.46808" lon="6.0446">
        <ele>1063</ele>
        <time>2021-08-19T09:44:18Z</time>
      </trkpt>
      <trkpt lat="46.46808" lon="6.04459">
        <ele>1063.2</ele>
        <time>2021-08-19T09:44:19Z</time>
      </trkpt>
      <trkpt lat="46.46808" lon="6.04457">
        <ele>1063.3</ele>
        <time>2021-08-19T09:44:20Z</time>
      </trkpt>
      <trkpt lat="46.46808" lon="6.04456">
        <ele>1063.5</ele>
        <time>2021-08-19T09:44:21Z</time>
      </trkpt>
      <trkpt lat="46.46808" lon="6.04455">
        <ele>1063.5</ele>
        <time>2021-08-19T09:44:22Z</time>
      </trkpt>
      <trkpt lat="46.46807" lon="6.04455">
        <ele>1063.6</ele>
        <time>2021-08-19T09:44:24Z</time>
      </trkpt>
      <trkpt lat="46.46806" lon="6.04455">
        <ele>1063.8</ele>
        <time>2021-08-19T09:44:25Z</time>
      </trkpt>
      <trkpt lat="46.46805" lon="6.04455">
        <ele>1063.9</ele>
        <time>2021-08-19T09:44:27Z</time>
      </trkpt>
      <trkpt lat="46.46805" lon="6.04455">
        <ele>1064</ele>
        <time>2021-08-19T09:44:28Z</time>
      </trkpt>
      <trkpt lat="46.46804" lon="6.04455">
        <ele>1064.1</ele>
        <time>2021-08-19T09:44:30Z</time>
      </trkpt>
      <trkpt lat="46.46804" lon="6.04455">
        <ele>1064.1</ele>
        <time>2021-08-19T09:44:31Z</time>
      </trkpt>
      <trkpt lat="46.46804" lon="6.04455">
        <ele>1064.2</ele>
        <time>2021-08-19T09:44:32Z</time>
      </trkpt>
      <trkpt lat="46.46803" lon="6.04454">
        <ele>1064.3</ele>
        <time>2021-08-19T09:44:33Z</time>
      </trkpt>
      <trkpt lat="46.46802" lon="6.04454">
        <ele>1064.4</ele>
        <time>2021-08-19T09:44:34Z</time>
      </trkpt>
      <trkpt lat="46.46801" lon="6.04453">
        <ele>1064.7</ele>
        <time>2021-08-19T09:44:36Z</time>
      </trkpt>
      <trkpt lat="46.468" lon="6.04453">
        <ele>1064.8</ele>
        <time>2021-08-19T09:44:37Z</time>
      </trkpt>
      <trkpt lat="46.46799" lon="6.04453">
        <ele>1064.9</ele>
        <time>2021-08-19T09:44:39Z</time>
      </trkpt>
      <trkpt lat="46.468" lon="6.04452">
        <ele>1065</ele>
        <time>2021-08-19T09:44:40Z</time>
      </trkpt>
      <trkpt lat="46.468" lon="6.04451">
        <ele>1065.1</ele>
        <time>2021-08-19T09:44:41Z</time>
      </trkpt>
      <trkpt lat="46.46801" lon="6.04451">
        <ele>1065.2</ele>
        <time>2021-08-19T09:44:42Z</time>
      </trkpt>
      <trkpt lat="46.46801" lon="6.0445">
        <ele>1065.2</ele>
        <time>2021-08-19T09:44:43Z</time>
      </trkpt>
      <trkpt lat="46.46802" lon="6.0445">
        <ele>1065.4</ele>
        <time>2021-08-19T09:44:45Z</time>
      </trkpt>
      <trkpt lat="46.46802" lon="6.04449">
        <ele>1065.5</ele>
        <time>2021-08-19T09:44:46Z</time>
      </trkpt>
      <trkpt lat="46.46803" lon="6.04449">
        <ele>1065.6</ele>
        <time>2021-08-19T09:44:48Z</time>
      </trkpt>
      <trkpt lat="46.46803" lon="6.04449">
        <ele>1065.6</ele>
        <time>2021-08-19T09:44:50Z</time>
      </trkpt>
      <trkpt lat="46.46803" lon="6.04448">
        <ele>1065.6</ele>
        <time>2021-08-19T09:44:51Z</time>
      </trkpt>
      <trkpt lat="46.46803" lon="6.04448">
        <ele>1065.7</ele>
        <time>2021-08-19T09:44:52Z</time>
      </trkpt>
      <trkpt lat="46.46803" lon="6.04449">
        <ele>1065.7</ele>
        <time>2021-08-19T09:44:54Z</time>
      </trkpt>
      <trkpt lat="46.46803" lon="6.04449">
        <ele>1065.7</ele>
        <time>2021-08-19T09:44:56Z</time>
      </trkpt>
      <trkpt lat="46.46803" lon="6.04449">
        <ele>1065.7</ele>
        <time>2021-08-19T09:44:57Z</time>
      </trkpt>
      <trkpt lat="46.46803" lon="6.04449">
        <ele>1065.8</ele>
        <time>2021-08-19T09:44:59Z</time>
      </trkpt>
      <trkpt lat="46.46803" lon="6.04448">
        <ele>1065.8</ele>
        <time>2021-08-19T09:45:00Z</time>
      </trkpt>
      <trkpt lat="46.46803" lon="6.04448">
        <ele>1065.8</ele>
        <time>2021-08-19T09:45:01Z</time>
      </trkpt>
      <trkpt lat="46.46803" lon="6.04447">
        <ele>1065.9</ele>
        <time>2021-08-19T09:45:02Z</time>
      </trkpt>
      <trkpt lat="46.46802" lon="6.04445">
        <ele>1066.2</ele>
        <time>2021-08-19T09:45:03Z</time>
      </trkpt>
      <trkpt lat="46.46802" lon="6.04444">
        <ele>1066.4</ele>
        <time>2021-08-19T09:45:05Z</time>
      </trkpt>
      <trkpt lat="46.46801" lon="6.04443">
        <ele>1066.6</ele>
        <time>2021-08-19T09:45:06Z</time>
      </trkpt>
      <trkpt lat="46.468" lon="6.04441">
        <ele>1066.8</ele>
        <time>2021-08-19T09:45:07Z</time>
      </trkpt>
      <trkpt lat="46.46799" lon="6.0444">
        <ele>1067</ele>
        <time>2021-08-19T09:45:08Z</time>
      </trkpt>
      <trkpt lat="46.46798" lon="6.04439">
        <ele>1067.3</ele>
        <time>2021-08-19T09:45:10Z</time>
      </trkpt>
      <trkpt lat="46.46797" lon="6.04438">
        <ele>1067.4</ele>
        <time>2021-08-19T09:45:11Z</time>
      </trkpt>
      <trkpt lat="46.46797" lon="6.04437">
        <ele>1067.5</ele>
        <time>2021-08-19T09:45:12Z</time>
      </trkpt>
      <trkpt lat="46.46795" lon="6.04436">
        <ele>1067.8</ele>
        <time>2021-08-19T09:45:14Z</time>
      </trkpt>
      <trkpt lat="46.46794" lon="6.04435">
        <ele>1068</ele>
        <time>2021-08-19T09:45:15Z</time>
      </trkpt>
      <trkpt lat="46.46794" lon="6.04435">
        <ele>1068.2</ele>
        <time>2021-08-19T09:45:16Z</time>
      </trkpt>
      <trkpt lat="46.46792" lon="6.04434">
        <ele>1068.4</ele>
        <time>2021-08-19T09:45:18Z</time>
      </trkpt>
      <trkpt lat="46.46792" lon="6.04433">
        <ele>1069.5</ele>
        <time>2021-08-19T09:45:19Z</time>
      </trkpt>
      <trkpt lat="46.4679" lon="6.04433">
        <ele>1069.8</ele>
        <time>2021-08-19T09:45:20Z</time>
      </trkpt>
      <trkpt lat="46.46788" lon="6.04432">
        <ele>1070.5</ele>
        <time>2021-08-19T09:45:22Z</time>
      </trkpt>
      <trkpt lat="46.46785" lon="6.0443">
        <ele>1071.5</ele>
        <time>2021-08-19T09:45:23Z</time>
      </trkpt>
      <trkpt lat="46.46781" lon="6.0443">
        <ele>1072.3</ele>
        <time>2021-08-19T09:45:25Z</time>
      </trkpt>
      <trkpt lat="46.46778" lon="6.04429">
        <ele>1073</ele>
        <time>2021-08-19T09:45:26Z</time>
      </trkpt>
      <trkpt lat="46.46776" lon="6.04428">
        <ele>1073.6</ele>
        <time>2021-08-19T09:45:27Z</time>
      </trkpt>
      <trkpt lat="46.46772" lon="6.04426">
        <ele>1074.3</ele>
        <time>2021-08-19T09:45:29Z</time>
      </trkpt>
      <trkpt lat="46.46769" lon="6.04423">
        <ele>1075</ele>
        <time>2021-08-19T09:45:30Z</time>
      </trkpt>
      <trkpt lat="46.46768" lon="6.04422">
        <ele>1075.2</ele>
        <time>2021-08-19T09:45:31Z</time>
      </trkpt>
      <trkpt lat="46.46762" lon="6.04415">
        <ele>1076.3</ele>
        <time>2021-08-19T09:45:33Z</time>
      </trkpt>
      <trkpt lat="46.46757" lon="6.0441">
        <ele>1077.4</ele>
        <time>2021-08-19T09:45:34Z</time>
      </trkpt>
      <trkpt lat="46.46751" lon="6.04405">
        <ele>1078.6</ele>
        <time>2021-08-19T09:45:36Z</time>
      </trkpt>
      <trkpt lat="46.46746" lon="6.044">
        <ele>1080.2</ele>
        <time>2021-08-19T09:45:37Z</time>
      </trkpt>
      <trkpt lat="46.4674" lon="6.04396">
        <ele>1081.8</ele>
        <time>2021-08-19T09:45:38Z</time>
      </trkpt>
      <trkpt lat="46.46735" lon="6.04391">
        <ele>1083.6</ele>
        <time>2021-08-19T09:45:39Z</time>
      </trkpt>
      <trkpt lat="46.46729" lon="6.04386">
        <ele>1085.4</ele>
        <time>2021-08-19T09:45:41Z</time>
      </trkpt>
      <trkpt lat="46.46724" lon="6.04381">
        <ele>1086.9</ele>
        <time>2021-08-19T09:45:42Z</time>
      </trkpt>
      <trkpt lat="46.46718" lon="6.04376">
        <ele>1088.1</ele>
        <time>2021-08-19T09:45:44Z</time>
      </trkpt>
      <trkpt lat="46.46713" lon="6.04371">
        <ele>1089.1</ele>
        <time>2021-08-19T09:48:45Z</time>
      </trkpt>
      <trkpt lat="46.46708" lon="6.04366">
        <ele>1089.9</ele>
        <time>2021-08-19T09:48:46Z</time>
      </trkpt>
      <trkpt lat="46.46711" lon="6.04357">
        <ele>1090.6</ele>
        <time>2021-08-19T09:48:48Z</time>
      </trkpt>
      <trkpt lat="46.46713" lon="6.04349">
        <ele>1091</ele>
        <time>2021-08-19T09:48:50Z</time>
      </trkpt>
      <trkpt lat="46.46714" lon="6.04345">
        <ele>1091.1</ele>
        <time>2021-08-19T09:48:51Z</time>
      </trkpt>
      <trkpt lat="46.46715" lon="6.04341">
        <ele>1091.3</ele>
        <time>2021-08-19T09:48:52Z</time>
      </trkpt>
      <trkpt lat="46.46718" lon="6.04337">
        <ele>1091.5</ele>
        <time>2021-08-19T09:48:54Z</time>
      </trkpt>
      <trkpt lat="46.4672" lon="6.04334">
        <ele>1091.7</ele>
        <time>2021-08-19T09:48:55Z</time>
      </trkpt>
      <trkpt lat="46.46722" lon="6.0433">
        <ele>1091.9</ele>
        <time>2021-08-19T09:48:56Z</time>
      </trkpt>
      <trkpt lat="46.46723" lon="6.04329">
        <ele>1091.9</ele>
        <time>2021-08-19T09:48:57Z</time>
      </trkpt>
      <trkpt lat="46.46725" lon="6.04328">
        <ele>1092</ele>
        <time>2021-08-19T09:48:58Z</time>
      </trkpt>
      <trkpt lat="46.46726" lon="6.04326">
        <ele>1092.1</ele>
        <time>2021-08-19T09:48:59Z</time>
      </trkpt>
      <trkpt lat="46.46728" lon="6.04324">
        <ele>1092.3</ele>
        <time>2021-08-19T09:49:00Z</time>
      </trkpt>
      <trkpt lat="46.46729" lon="6.04322">
        <ele>1092.4</ele>
        <time>2021-08-19T09:49:02Z</time>
      </trkpt>
      <trkpt lat="46.4673" lon="6.0432">
        <ele>1092.5</ele>
        <time>2021-08-19T09:49:03Z</time>
      </trkpt>
      <trkpt lat="46.46731" lon="6.04319">
        <ele>1092.6</ele>
        <time>2021-08-19T09:49:04Z</time>
      </trkpt>
      <trkpt lat="46.46734" lon="6.04316">
        <ele>1092.8</ele>
        <time>2021-08-19T09:49:05Z</time>
      </trkpt>
      <trkpt lat="46.46734" lon="6.04315">
        <ele>1092.8</ele>
        <time>2021-08-19T09:49:06Z</time>
      </trkpt>
      <trkpt lat="46.46735" lon="6.04313">
        <ele>1092.9</ele>
        <time>2021-08-19T09:49:07Z</time>
      </trkpt>
      <trkpt lat="46.46735" lon="6.04311">
        <ele>1093</ele>
        <time>2021-08-19T09:49:08Z</time>
      </trkpt>
      <trkpt lat="46.46733" lon="6.04308">
        <ele>1093.2</ele>
        <time>2021-08-19T09:49:09Z</time>
      </trkpt>
      <trkpt lat="46.46731" lon="6.04307">
        <ele>1093.3</ele>
        <time>2021-08-19T09:49:10Z</time>
      </trkpt>
      <trkpt lat="46.4673" lon="6.04303">
        <ele>1093.5</ele>
        <time>2021-08-19T09:49:12Z</time>
      </trkpt>
      <trkpt lat="46.4673" lon="6.04301">
        <ele>1093.6</ele>
        <time>2021-08-19T09:49:13Z</time>
      </trkpt>
      <trkpt lat="46.46729" lon="6.04296">
        <ele>1093.8</ele>
        <time>2021-08-19T09:49:15Z</time>
      </trkpt>
      <trkpt lat="46.46727" lon="6.04291">
        <ele>1094.1</ele>
        <time>2021-08-19T09:49:16Z</time>
      </trkpt>
      <trkpt lat="46.46727" lon="6.04289">
        <ele>1094.2</ele>
        <time>2021-08-19T09:49:17Z</time>
      </trkpt>
      <trkpt lat="46.46727" lon="6.04285">
        <ele>1094.4</ele>
        <time>2021-08-19T09:49:18Z</time>
      </trkpt>
      <trkpt lat="46.46727" lon="6.0428">
        <ele>1094.6</ele>
        <time>2021-08-19T09:49:19Z</time>
      </trkpt>
      <trkpt lat="46.46727" lon="6.04276">
        <ele>1094.8</ele>
        <time>2021-08-19T09:49:20Z</time>
      </trkpt>
      <trkpt lat="46.46727" lon="6.04272">
        <ele>1094.9</ele>
        <time>2021-08-19T09:49:21Z</time>
      </trkpt>
      <trkpt lat="46.46727" lon="6.04265">
        <ele>1095.2</ele>
        <time>2021-08-19T09:49:23Z</time>
      </trkpt>
      <trkpt lat="46.46726" lon="6.04262">
        <ele>1095.3</ele>
        <time>2021-08-19T09:49:24Z</time>
      </trkpt>
      <trkpt lat="46.46725" lon="6.04256">
        <ele>1095.6</ele>
        <time>2021-08-19T09:49:26Z</time>
      </trkpt>
      <trkpt lat="46.46724" lon="6.04252">
        <ele>1095.7</ele>
        <time>2021-08-19T09:49:27Z</time>
      </trkpt>
      <trkpt lat="46.46722" lon="6.04248">
        <ele>1095.9</ele>
        <time>2021-08-19T09:49:28Z</time>
      </trkpt>
      <trkpt lat="46.46721" lon="6.04243">
        <ele>1096.1</ele>
        <time>2021-08-19T09:49:29Z</time>
      </trkpt>
      <trkpt lat="46.46719" lon="6.04239">
        <ele>1096.2</ele>
        <time>2021-08-19T09:49:30Z</time>
      </trkpt>
      <trkpt lat="46.46718" lon="6.04236">
        <ele>1096.3</ele>
        <time>2021-08-19T09:49:31Z</time>
      </trkpt>
      <trkpt lat="46.46717" lon="6.04232">
        <ele>1096.5</ele>
        <time>2021-08-19T09:49:32Z</time>
      </trkpt>
      <trkpt lat="46.46716" lon="6.04229">
        <ele>1096.6</ele>
        <time>2021-08-19T09:49:33Z</time>
      </trkpt>
      <trkpt lat="46.46714" lon="6.04222">
        <ele>1096.8</ele>
        <time>2021-08-19T09:49:35Z</time>
      </trkpt>
      <trkpt lat="46.46712" lon="6.04216">
        <ele>1096.9</ele>
        <time>2021-08-19T09:49:37Z</time>
      </trkpt>
      <trkpt lat="46.46709" lon="6.04211">
        <ele>1097.1</ele>
        <time>2021-08-19T09:49:38Z</time>
      </trkpt>
      <trkpt lat="46.46708" lon="6.0421">
        <ele>1097.2</ele>
        <time>2021-08-19T09:49:39Z</time>
      </trkpt>
      <trkpt lat="46.46706" lon="6.04207">
        <ele>1097.3</ele>
        <time>2021-08-19T09:49:41Z</time>
      </trkpt>
      <trkpt lat="46.46703" lon="6.04204">
        <ele>1097.4</ele>
        <time>2021-08-19T09:49:42Z</time>
      </trkpt>
      <trkpt lat="46.467" lon="6.04198">
        <ele>1097.5</ele>
        <time>2021-08-19T09:49:44Z</time>
      </trkpt>
      <trkpt lat="46.46699" lon="6.04196">
        <ele>1097.6</ele>
        <time>2021-08-19T09:49:45Z</time>
      </trkpt>
      <trkpt lat="46.46698" lon="6.04194">
        <ele>1097.6</ele>
        <time>2021-08-19T09:49:46Z</time>
      </trkpt>
      <trkpt lat="46.46698" lon="6.04191">
        <ele>1097.7</ele>
        <time>2021-08-19T09:49:48Z</time>
      </trkpt>
      <trkpt lat="46.46698" lon="6.0419">
        <ele>1097.7</ele>
        <time>2021-08-19T09:49:50Z</time>
      </trkpt>
      <trkpt lat="46.46698" lon="6.0419">
        <ele>1097.7</ele>
        <time>2021-08-19T09:49:51Z</time>
      </trkpt>
      <trkpt lat="46.46698" lon="6.0419">
        <ele>1097.7</ele>
        <time>2021-08-19T09:49:53Z</time>
      </trkpt>
      <trkpt lat="46.46698" lon="6.04191">
        <ele>1097.7</ele>
        <time>2021-08-19T09:49:55Z</time>
      </trkpt>
      <trkpt lat="46.46698" lon="6.04191">
        <ele>1097.7</ele>
        <time>2021-08-19T09:49:56Z</time>
      </trkpt>
      <trkpt lat="46.46691" lon="6.04181">
        <ele>1097.9</ele>
        <time>2021-08-19T09:50:33Z</time>
      </trkpt>
      <trkpt lat="46.46686" lon="6.04175">
        <ele>1098</ele>
        <time>2021-08-19T09:50:35Z</time>
      </trkpt>
      <trkpt lat="46.46681" lon="6.04169">
        <ele>1098</ele>
        <time>2021-08-19T09:50:36Z</time>
      </trkpt>
      <trkpt lat="46.46673" lon="6.04159">
        <ele>1097.9</ele>
        <time>2021-08-19T09:50:37Z</time>
      </trkpt>
      <trkpt lat="46.46668" lon="6.04151">
        <ele>1097.9</ele>
        <time>2021-08-19T09:50:39Z</time>
      </trkpt>
      <trkpt lat="46.46663" lon="6.04142">
        <ele>1097.8</ele>
        <time>2021-08-19T09:50:40Z</time>
      </trkpt>
      <trkpt lat="46.46657" lon="6.0413">
        <ele>1097.9</ele>
        <time>2021-08-19T09:50:42Z</time>
      </trkpt>
      <trkpt lat="46.4665" lon="6.04116">
        <ele>1098.4</ele>
        <time>2021-08-19T09:50:44Z</time>
      </trkpt>
      <trkpt lat="46.46645" lon="6.04106">
        <ele>1098.9</ele>
        <time>2021-08-19T09:50:46Z</time>
      </trkpt>
      <trkpt lat="46.46642" lon="6.04102">
        <ele>1099.2</ele>
        <time>2021-08-19T09:50:47Z</time>
      </trkpt>
      <trkpt lat="46.46638" lon="6.04096">
        <ele>1099.6</ele>
        <time>2021-08-19T09:50:48Z</time>
      </trkpt>
      <trkpt lat="46.46635" lon="6.04091">
        <ele>1100.1</ele>
        <time>2021-08-19T09:50:49Z</time>
      </trkpt>
      <trkpt lat="46.46632" lon="6.04086">
        <ele>1100.6</ele>
        <time>2021-08-19T09:50:51Z</time>
      </trkpt>
      <trkpt lat="46.46629" lon="6.04082">
        <ele>1101</ele>
        <time>2021-08-19T09:50:52Z</time>
      </trkpt>
      <trkpt lat="46.46626" lon="6.04078">
        <ele>1101.4</ele>
        <time>2021-08-19T09:50:53Z</time>
      </trkpt>
      <trkpt lat="46.46624" lon="6.04075">
        <ele>1101.7</ele>
        <time>2021-08-19T09:50:54Z</time>
      </trkpt>
      <trkpt lat="46.46621" lon="6.04071">
        <ele>1102.1</ele>
        <time>2021-08-19T09:50:56Z</time>
      </trkpt>
      <trkpt lat="46.4662" lon="6.04068">
        <ele>1102.3</ele>
        <time>2021-08-19T09:50:57Z</time>
      </trkpt>
      <trkpt lat="46.46617" lon="6.04065">
        <ele>1102.5</ele>
        <time>2021-08-19T09:50:59Z</time>
      </trkpt>
      <trkpt lat="46.46614" lon="6.04062">
        <ele>1102.8</ele>
        <time>2021-08-19T09:51:00Z</time>
      </trkpt>
      <trkpt lat="46.4661" lon="6.04057">
        <ele>1103</ele>
        <time>2021-08-19T09:51:02Z</time>
      </trkpt>
      <trkpt lat="46.46608" lon="6.04056">
        <ele>1103.1</ele>
        <time>2021-08-19T09:51:03Z</time>
      </trkpt>
      <trkpt lat="46.46606" lon="6.04054">
        <ele>1103.1</ele>
        <time>2021-08-19T09:51:04Z</time>
      </trkpt>
      <trkpt lat="46.46603" lon="6.04051">
        <ele>1103.2</ele>
        <time>2021-08-19T09:51:06Z</time>
      </trkpt>
      <trkpt lat="46.466" lon="6.04049">
        <ele>1103.3</ele>
        <time>2021-08-19T09:51:07Z</time>
      </trkpt>
      <trkpt lat="46.46597" lon="6.04045">
        <ele>1103.3</ele>
        <time>2021-08-19T09:51:08Z</time>
      </trkpt>
      <trkpt lat="46.46596" lon="6.04044">
        <ele>1103.3</ele>
        <time>2021-08-19T09:51:09Z</time>
      </trkpt>
      <trkpt lat="46.46594" lon="6.0404">
        <ele>1103.2</ele>
        <time>2021-08-19T09:51:10Z</time>
      </trkpt>
      <trkpt lat="46.46593" lon="6.04039">
        <ele>1103.2</ele>
        <time>2021-08-19T09:51:11Z</time>
      </trkpt>
      <trkpt lat="46.4659" lon="6.04036">
        <ele>1103.1</ele>
        <time>2021-08-19T09:51:12Z</time>
      </trkpt>
      <trkpt lat="46.46589" lon="6.04035">
        <ele>1103</ele>
        <time>2021-08-19T09:51:13Z</time>
      </trkpt>
      <trkpt lat="46.46587" lon="6.04032">
        <ele>1102.9</ele>
        <time>2021-08-19T09:51:15Z</time>
      </trkpt>
      <trkpt lat="46.46585" lon="6.0403">
        <ele>1102.8</ele>
        <time>2021-08-19T09:51:16Z</time>
      </trkpt>
      <trkpt lat="46.46582" lon="6.04025">
        <ele>1102.5</ele>
        <time>2021-08-19T09:51:17Z</time>
      </trkpt>
      <trkpt lat="46.46581" lon="6.04022">
        <ele>1102.4</ele>
        <time>2021-08-19T09:51:18Z</time>
      </trkpt>
      <trkpt lat="46.46577" lon="6.04018">
        <ele>1102</ele>
        <time>2021-08-19T09:51:20Z</time>
      </trkpt>
      <trkpt lat="46.46574" lon="6.04014">
        <ele>1101.7</ele>
        <time>2021-08-19T09:51:21Z</time>
      </trkpt>
      <trkpt lat="46.46566" lon="6.04003">
        <ele>1100.6</ele>
        <time>2021-08-19T09:51:23Z</time>
      </trkpt>
      <trkpt lat="46.46562" lon="6.03996">
        <ele>1099.9</ele>
        <time>2021-08-19T09:51:24Z</time>
      </trkpt>
      <trkpt lat="46.46552" lon="6.0398">
        <ele>1098.6</ele>
        <time>2021-08-19T09:51:26Z</time>
      </trkpt>
      <trkpt lat="46.46544" lon="6.0396">
        <ele>1097.9</ele>
        <time>2021-08-19T09:51:28Z</time>
      </trkpt>
      <trkpt lat="46.46537" lon="6.03941">
        <ele>1098</ele>
        <time>2021-08-19T09:51:30Z</time>
      </trkpt>
      <trkpt lat="46.46535" lon="6.03931">
        <ele>1098.3</ele>
        <time>2021-08-19T09:51:31Z</time>
      </trkpt>
      <trkpt lat="46.46534" lon="6.03922">
        <ele>1098.5</ele>
        <time>2021-08-19T09:51:32Z</time>
      </trkpt>
      <trkpt lat="46.46536" lon="6.03904">
        <ele>1099</ele>
        <time>2021-08-19T09:51:34Z</time>
      </trkpt>
      <trkpt lat="46.46537" lon="6.03896">
        <ele>1099.2</ele>
        <time>2021-08-19T09:51:35Z</time>
      </trkpt>
      <trkpt lat="46.46538" lon="6.03889">
        <ele>1099.3</ele>
        <time>2021-08-19T09:51:36Z</time>
      </trkpt>
      <trkpt lat="46.4654" lon="6.03874">
        <ele>1099.5</ele>
        <time>2021-08-19T09:51:38Z</time>
      </trkpt>
      <trkpt lat="46.4654" lon="6.03867">
        <ele>1099.6</ele>
        <time>2021-08-19T09:51:39Z</time>
      </trkpt>
      <trkpt lat="46.4654" lon="6.03853">
        <ele>1099.7</ele>
        <time>2021-08-19T09:51:41Z</time>
      </trkpt>
      <trkpt lat="46.46539" lon="6.03847">
        <ele>1099.8</ele>
        <time>2021-08-19T09:51:42Z</time>
      </trkpt>
      <trkpt lat="46.46537" lon="6.03835">
        <ele>1099.8</ele>
        <time>2021-08-19T09:51:44Z</time>
      </trkpt>
      <trkpt lat="46.46535" lon="6.03825">
        <ele>1099.8</ele>
        <time>2021-08-19T09:51:46Z</time>
      </trkpt>
      <trkpt lat="46.46532" lon="6.03815">
        <ele>1099.7</ele>
        <time>2021-08-19T09:51:48Z</time>
      </trkpt>
      <trkpt lat="46.4653" lon="6.03808">
        <ele>1099.6</ele>
        <time>2021-08-19T09:51:49Z</time>
      </trkpt>
      <trkpt lat="46.46527" lon="6.03798">
        <ele>1099.4</ele>
        <time>2021-08-19T09:51:51Z</time>
      </trkpt>
      <trkpt lat="46.46524" lon="6.03786">
        <ele>1099.1</ele>
        <time>2021-08-19T09:51:53Z</time>
      </trkpt>
      <trkpt lat="46.4652" lon="6.0378">
        <ele>1098.9</ele>
        <time>2021-08-19T09:51:54Z</time>
      </trkpt>
      <trkpt lat="46.46516" lon="6.03773">
        <ele>1098.7</ele>
        <time>2021-08-19T09:51:55Z</time>
      </trkpt>
      <trkpt lat="46.46512" lon="6.03767">
        <ele>1098.4</ele>
        <time>2021-08-19T09:51:56Z</time>
      </trkpt>
      <trkpt lat="46.46504" lon="6.03753">
        <ele>1097.9</ele>
        <time>2021-08-19T09:51:58Z</time>
      </trkpt>
      <trkpt lat="46.46501" lon="6.03746">
        <ele>1097.7</ele>
        <time>2021-08-19T09:51:59Z</time>
      </trkpt>
      <trkpt lat="46.46497" lon="6.03738">
        <ele>1097.4</ele>
        <time>2021-08-19T09:52:00Z</time>
      </trkpt>
      <trkpt lat="46.4649" lon="6.03723">
        <ele>1097</ele>
        <time>2021-08-19T09:52:02Z</time>
      </trkpt>
      <trkpt lat="46.46482" lon="6.03708">
        <ele>1096.5</ele>
        <time>2021-08-19T09:52:04Z</time>
      </trkpt>
      <trkpt lat="46.46478" lon="6.037">
        <ele>1096.4</ele>
        <time>2021-08-19T09:52:05Z</time>
      </trkpt>
      <trkpt lat="46.46472" lon="6.03684">
        <ele>1096.4</ele>
        <time>2021-08-19T09:52:07Z</time>
      </trkpt>
      <trkpt lat="46.46465" lon="6.03669">
        <ele>1096.6</ele>
        <time>2021-08-19T09:52:09Z</time>
      </trkpt>
      <trkpt lat="46.46458" lon="6.03655">
        <ele>1097</ele>
        <time>2021-08-19T09:52:11Z</time>
      </trkpt>
      <trkpt lat="46.46456" lon="6.03649">
        <ele>1097.2</ele>
        <time>2021-08-19T09:52:12Z</time>
      </trkpt>
      <trkpt lat="46.46453" lon="6.03642">
        <ele>1097.5</ele>
        <time>2021-08-19T09:52:13Z</time>
      </trkpt>
      <trkpt lat="46.4645" lon="6.03631">
        <ele>1098</ele>
        <time>2021-08-19T09:52:15Z</time>
      </trkpt>
      <trkpt lat="46.46449" lon="6.03625">
        <ele>1098.2</ele>
        <time>2021-08-19T09:52:16Z</time>
      </trkpt>
      <trkpt lat="46.46447" lon="6.03618">
        <ele>1098.6</ele>
        <time>2021-08-19T09:52:18Z</time>
      </trkpt>
      <trkpt lat="46.46447" lon="6.03613">
        <ele>1098.8</ele>
        <time>2021-08-19T09:52:19Z</time>
      </trkpt>
      <trkpt lat="46.46446" lon="6.03611">
        <ele>1098.9</ele>
        <time>2021-08-19T09:52:20Z</time>
      </trkpt>
      <trkpt lat="46.46443" lon="6.03604">
        <ele>1099.2</ele>
        <time>2021-08-19T09:52:22Z</time>
      </trkpt>
      <trkpt lat="46.46441" lon="6.03603">
        <ele>1099.4</ele>
        <time>2021-08-19T09:52:23Z</time>
      </trkpt>
      <trkpt lat="46.46438" lon="6.03598">
        <ele>1099.7</ele>
        <time>2021-08-19T09:52:25Z</time>
      </trkpt>
      <trkpt lat="46.46436" lon="6.03597">
        <ele>1099.8</ele>
        <time>2021-08-19T09:52:26Z</time>
      </trkpt>
      <trkpt lat="46.46435" lon="6.03596">
        <ele>1099.9</ele>
        <time>2021-08-19T09:52:27Z</time>
      </trkpt>
      <trkpt lat="46.46433" lon="6.03594">
        <ele>1100</ele>
        <time>2021-08-19T09:52:28Z</time>
      </trkpt>
      <trkpt lat="46.46431" lon="6.03592">
        <ele>1100.2</ele>
        <time>2021-08-19T09:52:30Z</time>
      </trkpt>
      <trkpt lat="46.46428" lon="6.03589">
        <ele>1100.4</ele>
        <time>2021-08-19T09:52:31Z</time>
      </trkpt>
      <trkpt lat="46.46427" lon="6.03588">
        <ele>1100.5</ele>
        <time>2021-08-19T09:52:32Z</time>
      </trkpt>
      <trkpt lat="46.46423" lon="6.03584">
        <ele>1100.9</ele>
        <time>2021-08-19T09:52:34Z</time>
      </trkpt>
      <trkpt lat="46.4642" lon="6.03582">
        <ele>1101.1</ele>
        <time>2021-08-19T09:52:35Z</time>
      </trkpt>
      <trkpt lat="46.46417" lon="6.03579">
        <ele>1101.4</ele>
        <time>2021-08-19T09:52:37Z</time>
      </trkpt>
      <trkpt lat="46.46416" lon="6.03578">
        <ele>1101.5</ele>
        <time>2021-08-19T09:52:38Z</time>
      </trkpt>
      <trkpt lat="46.46415" lon="6.03576">
        <ele>1101.6</ele>
        <time>2021-08-19T09:52:39Z</time>
      </trkpt>
      <trkpt lat="46.46414" lon="6.03572">
        <ele>1101.8</ele>
        <time>2021-08-19T09:52:40Z</time>
      </trkpt>
      <trkpt lat="46.46413" lon="6.0357">
        <ele>1101.9</ele>
        <time>2021-08-19T09:52:42Z</time>
      </trkpt>
      <trkpt lat="46.46413" lon="6.03568">
        <ele>1102</ele>
        <time>2021-08-19T09:52:43Z</time>
      </trkpt>
      <trkpt lat="46.46412" lon="6.03566">
        <ele>1102.1</ele>
        <time>2021-08-19T09:52:44Z</time>
      </trkpt>
      <trkpt lat="46.46412" lon="6.03564">
        <ele>1102.2</ele>
        <time>2021-08-19T09:52:45Z</time>
      </trkpt>
      <trkpt lat="46.46411" lon="6.03562">
        <ele>1102.4</ele>
        <time>2021-08-19T09:52:46Z</time>
      </trkpt>
      <trkpt lat="46.4641" lon="6.0356">
        <ele>1102.5</ele>
        <time>2021-08-19T09:52:47Z</time>
      </trkpt>
      <trkpt lat="46.4641" lon="6.03558">
        <ele>1102.6</ele>
        <time>2021-08-19T09:52:48Z</time>
      </trkpt>
      <trkpt lat="46.4641" lon="6.03556">
        <ele>1102.7</ele>
        <time>2021-08-19T09:52:49Z</time>
      </trkpt>
      <trkpt lat="46.46409" lon="6.03553">
        <ele>1102.9</ele>
        <time>2021-08-19T09:52:50Z</time>
      </trkpt>
      <trkpt lat="46.46408" lon="6.03551">
        <ele>1103</ele>
        <time>2021-08-19T09:52:51Z</time>
      </trkpt>
      <trkpt lat="46.46409" lon="6.03544">
        <ele>1103.3</ele>
        <time>2021-08-19T09:52:53Z</time>
      </trkpt>
      <trkpt lat="46.46409" lon="6.03543">
        <ele>1103.4</ele>
        <time>2021-08-19T09:52:55Z</time>
      </trkpt>
      <trkpt lat="46.4641" lon="6.03541">
        <ele>1103.5</ele>
        <time>2021-08-19T09:52:56Z</time>
      </trkpt>
      <trkpt lat="46.46411" lon="6.03538">
        <ele>1103.7</ele>
        <time>2021-08-19T09:52:57Z</time>
      </trkpt>
      <trkpt lat="46.4641" lon="6.03536">
        <ele>1103.8</ele>
        <time>2021-08-19T09:52:58Z</time>
      </trkpt>
      <trkpt lat="46.4641" lon="6.03534">
        <ele>1104</ele>
        <time>2021-08-19T09:52:59Z</time>
      </trkpt>
      <trkpt lat="46.46409" lon="6.03531">
        <ele>1104.2</ele>
        <time>2021-08-19T09:53:01Z</time>
      </trkpt>
      <trkpt lat="46.46408" lon="6.03529">
        <ele>1104.3</ele>
        <time>2021-08-19T09:53:03Z</time>
      </trkpt>
      <trkpt lat="46.46406" lon="6.03528">
        <ele>1104.5</ele>
        <time>2021-08-19T09:53:04Z</time>
      </trkpt>
      <trkpt lat="46.46405" lon="6.03525">
        <ele>1104.7</ele>
        <time>2021-08-19T09:53:06Z</time>
      </trkpt>
      <trkpt lat="46.46405" lon="6.03523">
        <ele>1104.8</ele>
        <time>2021-08-19T09:53:07Z</time>
      </trkpt>
      <trkpt lat="46.46404" lon="6.03521">
        <ele>1105</ele>
        <time>2021-08-19T09:53:08Z</time>
      </trkpt>
      <trkpt lat="46.46404" lon="6.0352">
        <ele>1105.1</ele>
        <time>2021-08-19T09:53:10Z</time>
      </trkpt>
      <trkpt lat="46.46404" lon="6.0352">
        <ele>1105.1</ele>
        <time>2021-08-19T09:53:11Z</time>
      </trkpt>
      <trkpt lat="46.46404" lon="6.03517">
        <ele>1105.2</ele>
        <time>2021-08-19T09:53:13Z</time>
      </trkpt>
      <trkpt lat="46.46404" lon="6.03515">
        <ele>1105.4</ele>
        <time>2021-08-19T09:53:14Z</time>
      </trkpt>
      <trkpt lat="46.46405" lon="6.03513">
        <ele>1105.6</ele>
        <time>2021-08-19T09:53:15Z</time>
      </trkpt>
      <trkpt lat="46.46406" lon="6.03505">
        <ele>1106.1</ele>
        <time>2021-08-19T09:53:17Z</time>
      </trkpt>
      <trkpt lat="46.46407" lon="6.03503">
        <ele>1106.3</ele>
        <time>2021-08-19T09:53:19Z</time>
      </trkpt>
      <trkpt lat="46.46407" lon="6.035">
        <ele>1106.5</ele>
        <time>2021-08-19T09:53:20Z</time>
      </trkpt>
      <trkpt lat="46.46407" lon="6.03498">
        <ele>1106.7</ele>
        <time>2021-08-19T09:53:21Z</time>
      </trkpt>
      <trkpt lat="46.46407" lon="6.03495">
        <ele>1106.9</ele>
        <time>2021-08-19T09:53:22Z</time>
      </trkpt>
      <trkpt lat="46.46407" lon="6.03491">
        <ele>1107.2</ele>
        <time>2021-08-19T09:53:24Z</time>
      </trkpt>
      <trkpt lat="46.46406" lon="6.03489">
        <ele>1107.4</ele>
        <time>2021-08-19T09:53:25Z</time>
      </trkpt>
      <trkpt lat="46.46406" lon="6.03486">
        <ele>1107.6</ele>
        <time>2021-08-19T09:53:27Z</time>
      </trkpt>
      <trkpt lat="46.46406" lon="6.03484">
        <ele>1107.7</ele>
        <time>2021-08-19T09:53:28Z</time>
      </trkpt>
      <trkpt lat="46.46406" lon="6.03483">
        <ele>1107.9</ele>
        <time>2021-08-19T09:53:29Z</time>
      </trkpt>
      <trkpt lat="46.46406" lon="6.03481">
        <ele>1108</ele>
        <time>2021-08-19T09:53:30Z</time>
      </trkpt>
      <trkpt lat="46.46406" lon="6.0348">
        <ele>1108.1</ele>
        <time>2021-08-19T09:53:32Z</time>
      </trkpt>
      <trkpt lat="46.46406" lon="6.03478">
        <ele>1108.2</ele>
        <time>2021-08-19T09:53:33Z</time>
      </trkpt>
      <trkpt lat="46.46406" lon="6.03476">
        <ele>1108.4</ele>
        <time>2021-08-19T09:53:34Z</time>
      </trkpt>
      <trkpt lat="46.46405" lon="6.03473">
        <ele>1108.6</ele>
        <time>2021-08-19T09:53:36Z</time>
      </trkpt>
      <trkpt lat="46.46405" lon="6.03471">
        <ele>1108.8</ele>
        <time>2021-08-19T09:53:37Z</time>
      </trkpt>
      <trkpt lat="46.46405" lon="6.03469">
        <ele>1109</ele>
        <time>2021-08-19T09:53:38Z</time>
      </trkpt>
      <trkpt lat="46.46404" lon="6.03465">
        <ele>1109.3</ele>
        <time>2021-08-19T09:53:40Z</time>
      </trkpt>
      <trkpt lat="46.46403" lon="6.03462">
        <ele>1109.5</ele>
        <time>2021-08-19T09:53:41Z</time>
      </trkpt>
      <trkpt lat="46.46403" lon="6.0346">
        <ele>1109.7</ele>
        <time>2021-08-19T09:53:42Z</time>
      </trkpt>
      <trkpt lat="46.46403" lon="6.03456">
        <ele>1110</ele>
        <time>2021-08-19T09:53:44Z</time>
      </trkpt>
      <trkpt lat="46.46404" lon="6.03451">
        <ele>1110.4</ele>
        <time>2021-08-19T09:53:46Z</time>
      </trkpt>
      <trkpt lat="46.46404" lon="6.03449">
        <ele>1110.6</ele>
        <time>2021-08-19T09:53:47Z</time>
      </trkpt>
      <trkpt lat="46.46405" lon="6.03447">
        <ele>1110.8</ele>
        <time>2021-08-19T09:53:48Z</time>
      </trkpt>
      <trkpt lat="46.46406" lon="6.03443">
        <ele>1111.1</ele>
        <time>2021-08-19T09:53:49Z</time>
      </trkpt>
      <trkpt lat="46.46407" lon="6.03441">
        <ele>1111.3</ele>
        <time>2021-08-19T09:53:51Z</time>
      </trkpt>
      <trkpt lat="46.46409" lon="6.03438">
        <ele>1111.6</ele>
        <time>2021-08-19T09:53:52Z</time>
      </trkpt>
      <trkpt lat="46.4641" lon="6.03435">
        <ele>1111.8</ele>
        <time>2021-08-19T09:53:54Z</time>
      </trkpt>
      <trkpt lat="46.4641" lon="6.03433">
        <ele>1111.9</ele>
        <time>2021-08-19T09:53:55Z</time>
      </trkpt>
      <trkpt lat="46.4641" lon="6.03431">
        <ele>1112.1</ele>
        <time>2021-08-19T09:53:56Z</time>
      </trkpt>
      <trkpt lat="46.4641" lon="6.03427">
        <ele>1112.4</ele>
        <time>2021-08-19T09:53:58Z</time>
      </trkpt>
      <trkpt lat="46.4641" lon="6.03424">
        <ele>1112.6</ele>
        <time>2021-08-19T09:53:59Z</time>
      </trkpt>
      <trkpt lat="46.4641" lon="6.03422">
        <ele>1112.7</ele>
        <time>2021-08-19T09:54:00Z</time>
      </trkpt>
      <trkpt lat="46.46409" lon="6.0342">
        <ele>1112.9</ele>
        <time>2021-08-19T09:54:01Z</time>
      </trkpt>
      <trkpt lat="46.46407" lon="6.03418">
        <ele>1113.2</ele>
        <time>2021-08-19T09:54:03Z</time>
      </trkpt>
      <trkpt lat="46.46405" lon="6.03416">
        <ele>1113.5</ele>
        <time>2021-08-19T09:54:04Z</time>
      </trkpt>
      <trkpt lat="46.46404" lon="6.03415">
        <ele>1113.6</ele>
        <time>2021-08-19T09:54:05Z</time>
      </trkpt>
      <trkpt lat="46.464" lon="6.03411">
        <ele>1113.9</ele>
        <time>2021-08-19T09:54:07Z</time>
      </trkpt>
      <trkpt lat="46.46399" lon="6.0341">
        <ele>1114</ele>
        <time>2021-08-19T09:54:08Z</time>
      </trkpt>
      <trkpt lat="46.46397" lon="6.03407">
        <ele>1114.3</ele>
        <time>2021-08-19T09:54:09Z</time>
      </trkpt>
      <trkpt lat="46.46396" lon="6.03406">
        <ele>1114.4</ele>
        <time>2021-08-19T09:54:10Z</time>
      </trkpt>
      <trkpt lat="46.46395" lon="6.03404">
        <ele>1114.5</ele>
        <time>2021-08-19T09:54:12Z</time>
      </trkpt>
      <trkpt lat="46.46394" lon="6.03402">
        <ele>1114.6</ele>
        <time>2021-08-19T09:54:13Z</time>
      </trkpt>
      <trkpt lat="46.46392" lon="6.03399">
        <ele>1114.8</ele>
        <time>2021-08-19T09:54:14Z</time>
      </trkpt>
      <trkpt lat="46.4639" lon="6.03395">
        <ele>1115.1</ele>
        <time>2021-08-19T09:54:16Z</time>
      </trkpt>
      <trkpt lat="46.46389" lon="6.03394">
        <ele>1115.1</ele>
        <time>2021-08-19T09:54:17Z</time>
      </trkpt>
      <trkpt lat="46.46387" lon="6.03391">
        <ele>1115.3</ele>
        <time>2021-08-19T09:54:18Z</time>
      </trkpt>
      <trkpt lat="46.46387" lon="6.0339">
        <ele>1115.4</ele>
        <time>2021-08-19T09:54:19Z</time>
      </trkpt>
      <trkpt lat="46.46385" lon="6.03387">
        <ele>1115.5</ele>
        <time>2021-08-19T09:54:20Z</time>
      </trkpt>
      <trkpt lat="46.46383" lon="6.03385">
        <ele>1115.6</ele>
        <time>2021-08-19T09:54:21Z</time>
      </trkpt>
      <trkpt lat="46.4638" lon="6.03383">
        <ele>1115.7</ele>
        <time>2021-08-19T09:54:23Z</time>
      </trkpt>
      <trkpt lat="46.46379" lon="6.03382">
        <ele>1115.8</ele>
        <time>2021-08-19T09:54:24Z</time>
      </trkpt>
      <trkpt lat="46.46376" lon="6.03379">
        <ele>1115.9</ele>
        <time>2021-08-19T09:54:26Z</time>
      </trkpt>
      <trkpt lat="46.46373" lon="6.03377">
        <ele>1116</ele>
        <time>2021-08-19T09:54:27Z</time>
      </trkpt>
      <trkpt lat="46.46372" lon="6.03376">
        <ele>1116</ele>
        <time>2021-08-19T09:54:28Z</time>
      </trkpt>
      <trkpt lat="46.46368" lon="6.03373">
        <ele>1116.2</ele>
        <time>2021-08-19T09:54:30Z</time>
      </trkpt>
      <trkpt lat="46.46367" lon="6.03371">
        <ele>1116.2</ele>
        <time>2021-08-19T09:54:31Z</time>
      </trkpt>
      <trkpt lat="46.46366" lon="6.0337">
        <ele>1116.3</ele>
        <time>2021-08-19T09:54:32Z</time>
      </trkpt>
      <trkpt lat="46.46364" lon="6.03366">
        <ele>1116.4</ele>
        <time>2021-08-19T09:54:34Z</time>
      </trkpt>
      <trkpt lat="46.46363" lon="6.03366">
        <ele>1116.4</ele>
        <time>2021-08-19T09:54:35Z</time>
      </trkpt>
      <trkpt lat="46.46361" lon="6.03364">
        <ele>1116.5</ele>
        <time>2021-08-19T09:54:36Z</time>
      </trkpt>
      <trkpt lat="46.46358" lon="6.0336">
        <ele>1116.6</ele>
        <time>2021-08-19T09:54:38Z</time>
      </trkpt>
      <trkpt lat="46.46354" lon="6.03356">
        <ele>1116.7</ele>
        <time>2021-08-19T09:54:39Z</time>
      </trkpt>
      <trkpt lat="46.46352" lon="6.03353">
        <ele>1116.8</ele>
        <time>2021-08-19T09:54:41Z</time>
      </trkpt>
      <trkpt lat="46.4635" lon="6.03351">
        <ele>1116.8</ele>
        <time>2021-08-19T09:54:42Z</time>
      </trkpt>
      <trkpt lat="46.46347" lon="6.03346">
        <ele>1116.9</ele>
        <time>2021-08-19T09:54:44Z</time>
      </trkpt>
      <trkpt lat="46.46345" lon="6.03343">
        <ele>1117</ele>
        <time>2021-08-19T09:54:45Z</time>
      </trkpt>
      <trkpt lat="46.46341" lon="6.03337">
        <ele>1117.2</ele>
        <time>2021-08-19T09:54:47Z</time>
      </trkpt>
      <trkpt lat="46.4634" lon="6.03333">
        <ele>1117.3</ele>
        <time>2021-08-19T09:54:48Z</time>
      </trkpt>
      <trkpt lat="46.46336" lon="6.03325">
        <ele>1117.5</ele>
        <time>2021-08-19T09:54:50Z</time>
      </trkpt>
      <trkpt lat="46.46334" lon="6.03321">
        <ele>1117.7</ele>
        <time>2021-08-19T09:54:51Z</time>
      </trkpt>
      <trkpt lat="46.4633" lon="6.03314">
        <ele>1117.9</ele>
        <time>2021-08-19T09:54:52Z</time>
      </trkpt>
      <trkpt lat="46.46328" lon="6.0331">
        <ele>1118</ele>
        <time>2021-08-19T09:54:54Z</time>
      </trkpt>
      <trkpt lat="46.46326" lon="6.03305">
        <ele>1118.2</ele>
        <time>2021-08-19T09:54:55Z</time>
      </trkpt>
      <trkpt lat="46.46325" lon="6.03303">
        <ele>1118.2</ele>
        <time>2021-08-19T09:54:56Z</time>
      </trkpt>
      <trkpt lat="46.46323" lon="6.03298">
        <ele>1118.4</ele>
        <time>2021-08-19T09:54:57Z</time>
      </trkpt>
      <trkpt lat="46.46322" lon="6.03293">
        <ele>1118.5</ele>
        <time>2021-08-19T09:54:59Z</time>
      </trkpt>
      <trkpt lat="46.4632" lon="6.03287">
        <ele>1118.7</ele>
        <time>2021-08-19T09:55:01Z</time>
      </trkpt>
      <trkpt lat="46.46319" lon="6.03282">
        <ele>1118.9</ele>
        <time>2021-08-19T09:55:02Z</time>
      </trkpt>
      <trkpt lat="46.46318" lon="6.0328">
        <ele>1119</ele>
        <time>2021-08-19T09:55:03Z</time>
      </trkpt>
      <trkpt lat="46.46316" lon="6.03273">
        <ele>1119.2</ele>
        <time>2021-08-19T09:55:05Z</time>
      </trkpt>
      <trkpt lat="46.46315" lon="6.0327">
        <ele>1119.3</ele>
        <time>2021-08-19T09:55:06Z</time>
      </trkpt>
      <trkpt lat="46.46314" lon="6.03267">
        <ele>1119.4</ele>
        <time>2021-08-19T09:55:07Z</time>
      </trkpt>
      <trkpt lat="46.46311" lon="6.03263">
        <ele>1119.5</ele>
        <time>2021-08-19T09:55:09Z</time>
      </trkpt>
      <trkpt lat="46.4631" lon="6.03262">
        <ele>1119.6</ele>
        <time>2021-08-19T09:55:10Z</time>
      </trkpt>
      <trkpt lat="46.46309" lon="6.03261">
        <ele>1119.7</ele>
        <time>2021-08-19T09:55:11Z</time>
      </trkpt>
      <trkpt lat="46.46307" lon="6.03258">
        <ele>1119.8</ele>
        <time>2021-08-19T09:55:12Z</time>
      </trkpt>
      <trkpt lat="46.46306" lon="6.03258">
        <ele>1119.8</ele>
        <time>2021-08-19T09:55:13Z</time>
      </trkpt>
      <trkpt lat="46.46303" lon="6.03255">
        <ele>1120</ele>
        <time>2021-08-19T09:55:15Z</time>
      </trkpt>
      <trkpt lat="46.46302" lon="6.03255">
        <ele>1120</ele>
        <time>2021-08-19T09:55:16Z</time>
      </trkpt>
      <trkpt lat="46.463" lon="6.03254">
        <ele>1120.1</ele>
        <time>2021-08-19T09:55:17Z</time>
      </trkpt>
      <trkpt lat="46.46298" lon="6.03254">
        <ele>1120.2</ele>
        <time>2021-08-19T09:55:19Z</time>
      </trkpt>
      <trkpt lat="46.46298" lon="6.03253">
        <ele>1120.2</ele>
        <time>2021-08-19T09:55:20Z</time>
      </trkpt>
      <trkpt lat="46.46297" lon="6.0325">
        <ele>1120.6</ele>
        <time>2021-08-19T09:55:22Z</time>
      </trkpt>
      <trkpt lat="46.46295" lon="6.03245">
        <ele>1120.6</ele>
        <time>2021-08-19T09:55:24Z</time>
      </trkpt>
      <trkpt lat="46.46294" lon="6.03238">
        <ele>1120.6</ele>
        <time>2021-08-19T09:55:26Z</time>
      </trkpt>
      <trkpt lat="46.46293" lon="6.03233">
        <ele>1120.7</ele>
        <time>2021-08-19T09:55:27Z</time>
      </trkpt>
      <trkpt lat="46.46291" lon="6.03227">
        <ele>1120.7</ele>
        <time>2021-08-19T09:55:28Z</time>
      </trkpt>
      <trkpt lat="46.46288" lon="6.03222">
        <ele>1120.7</ele>
        <time>2021-08-19T09:55:30Z</time>
      </trkpt>
      <trkpt lat="46.46286" lon="6.03218">
        <ele>1120.7</ele>
        <time>2021-08-19T09:55:31Z</time>
      </trkpt>
      <trkpt lat="46.46284" lon="6.03214">
        <ele>1120.7</ele>
        <time>2021-08-19T09:55:32Z</time>
      </trkpt>
      <trkpt lat="46.46282" lon="6.03209">
        <ele>1120.7</ele>
        <time>2021-08-19T09:55:33Z</time>
      </trkpt>
      <trkpt lat="46.46279" lon="6.03204">
        <ele>1120.6</ele>
        <time>2021-08-19T09:55:35Z</time>
      </trkpt>
      <trkpt lat="46.46278" lon="6.03199">
        <ele>1120.6</ele>
        <time>2021-08-19T09:55:36Z</time>
      </trkpt>
      <trkpt lat="46.46277" lon="6.03195">
        <ele>1120.5</ele>
        <time>2021-08-19T09:55:37Z</time>
      </trkpt>
      <trkpt lat="46.46275" lon="6.03191">
        <ele>1120.5</ele>
        <time>2021-08-19T09:55:38Z</time>
      </trkpt>
      <trkpt lat="46.46272" lon="6.03182">
        <ele>1120.3</ele>
        <time>2021-08-19T09:55:40Z</time>
      </trkpt>
      <trkpt lat="46.46271" lon="6.03177">
        <ele>1120.2</ele>
        <time>2021-08-19T09:55:41Z</time>
      </trkpt>
      <trkpt lat="46.46268" lon="6.03168">
        <ele>1120</ele>
        <time>2021-08-19T09:55:43Z</time>
      </trkpt>
      <trkpt lat="46.46266" lon="6.03163">
        <ele>1119.9</ele>
        <time>2021-08-19T09:55:44Z</time>
      </trkpt>
      <trkpt lat="46.46264" lon="6.03157">
        <ele>1119.7</ele>
        <time>2021-08-19T09:55:45Z</time>
      </trkpt>
      <trkpt lat="46.46262" lon="6.03147">
        <ele>1119.5</ele>
        <time>2021-08-19T09:55:47Z</time>
      </trkpt>
      <trkpt lat="46.4626" lon="6.03144">
        <ele>1119.4</ele>
        <time>2021-08-19T09:55:48Z</time>
      </trkpt>
      <trkpt lat="46.46258" lon="6.03141">
        <ele>1119.2</ele>
        <time>2021-08-19T09:55:50Z</time>
      </trkpt>
      <trkpt lat="46.46257" lon="6.03141">
        <ele>1119.2</ele>
        <time>2021-08-19T09:55:51Z</time>
      </trkpt>
      <trkpt lat="46.46257" lon="6.03139">
        <ele>1119.1</ele>
        <time>2021-08-19T09:55:53Z</time>
      </trkpt>
      <trkpt lat="46.46258" lon="6.03137">
        <ele>1119.1</ele>
        <time>2021-08-19T09:55:54Z</time>
      </trkpt>
      <trkpt lat="46.46258" lon="6.03135">
        <ele>1119</ele>
        <time>2021-08-19T09:55:55Z</time>
      </trkpt>
      <trkpt lat="46.46254" lon="6.03132">
        <ele>1118.8</ele>
        <time>2021-08-19T09:55:57Z</time>
      </trkpt>
      <trkpt lat="46.46252" lon="6.03131">
        <ele>1118.7</ele>
        <time>2021-08-19T09:55:58Z</time>
      </trkpt>
      <trkpt lat="46.46248" lon="6.03126">
        <ele>1118.5</ele>
        <time>2021-08-19T09:56:00Z</time>
      </trkpt>
      <trkpt lat="46.46242" lon="6.03119">
        <ele>1118.1</ele>
        <time>2021-08-19T09:56:02Z</time>
      </trkpt>
      <trkpt lat="46.46234" lon="6.03112">
        <ele>1117.8</ele>
        <time>2021-08-19T09:56:04Z</time>
      </trkpt>
      <trkpt lat="46.46229" lon="6.03105">
        <ele>1117.5</ele>
        <time>2021-08-19T09:56:05Z</time>
      </trkpt>
      <trkpt lat="46.46224" lon="6.03093">
        <ele>1117.2</ele>
        <time>2021-08-19T09:56:07Z</time>
      </trkpt>
      <trkpt lat="46.46222" lon="6.03086">
        <ele>1117</ele>
        <time>2021-08-19T09:56:08Z</time>
      </trkpt>
      <trkpt lat="46.46222" lon="6.03077">
        <ele>1116.8</ele>
        <time>2021-08-19T09:56:10Z</time>
      </trkpt>
      <trkpt lat="46.46222" lon="6.03073">
        <ele>1116.7</ele>
        <time>2021-08-19T09:56:11Z</time>
      </trkpt>
      <trkpt lat="46.46222" lon="6.03068">
        <ele>1116.6</ele>
        <time>2021-08-19T09:56:13Z</time>
      </trkpt>
      <trkpt lat="46.4622" lon="6.03067">
        <ele>1116.6</ele>
        <time>2021-08-19T09:56:14Z</time>
      </trkpt>
      <trkpt lat="46.46219" lon="6.03066">
        <ele>1116.6</ele>
        <time>2021-08-19T09:56:16Z</time>
      </trkpt>
      <trkpt lat="46.46218" lon="6.03065">
        <ele>1116.6</ele>
        <time>2021-08-19T09:56:17Z</time>
      </trkpt>
      <trkpt lat="46.46217" lon="6.03059">
        <ele>1116.5</ele>
        <time>2021-08-19T09:56:18Z</time>
      </trkpt>
      <trkpt lat="46.46215" lon="6.03056">
        <ele>1116.5</ele>
        <time>2021-08-19T09:56:19Z</time>
      </trkpt>
      <trkpt lat="46.46211" lon="6.03052">
        <ele>1116.4</ele>
        <time>2021-08-19T09:56:21Z</time>
      </trkpt>
      <trkpt lat="46.46209" lon="6.03048">
        <ele>1116.4</ele>
        <time>2021-08-19T09:56:22Z</time>
      </trkpt>
      <trkpt lat="46.46201" lon="6.03042">
        <ele>1116.3</ele>
        <time>2021-08-19T09:56:23Z</time>
      </trkpt>
      <trkpt lat="46.46197" lon="6.03039">
        <ele>1116.3</ele>
        <time>2021-08-19T09:56:24Z</time>
      </trkpt>
      <trkpt lat="46.46191" lon="6.03034">
        <ele>1116.2</ele>
        <time>2021-08-19T09:56:26Z</time>
      </trkpt>
      <trkpt lat="46.46184" lon="6.03027">
        <ele>1116.2</ele>
        <time>2021-08-19T09:56:27Z</time>
      </trkpt>
      <trkpt lat="46.46179" lon="6.03022">
        <ele>1116.2</ele>
        <time>2021-08-19T09:56:28Z</time>
      </trkpt>
      <trkpt lat="46.46175" lon="6.03018">
        <ele>1116.2</ele>
        <time>2021-08-19T09:56:29Z</time>
      </trkpt>
      <trkpt lat="46.46165" lon="6.03008">
        <ele>1116.3</ele>
        <time>2021-08-19T09:56:31Z</time>
      </trkpt>
      <trkpt lat="46.4616" lon="6.03004">
        <ele>1116.4</ele>
        <time>2021-08-19T09:56:32Z</time>
      </trkpt>
      <trkpt lat="46.46151" lon="6.02995">
        <ele>1116.6</ele>
        <time>2021-08-19T09:56:34Z</time>
      </trkpt>
      <trkpt lat="46.46147" lon="6.02992">
        <ele>1116.7</ele>
        <time>2021-08-19T09:56:35Z</time>
      </trkpt>
      <trkpt lat="46.46146" lon="6.02993">
        <ele>1116.7</ele>
        <time>2021-08-19T09:56:36Z</time>
      </trkpt>
      <trkpt lat="46.46144" lon="6.0299">
        <ele>1116.8</ele>
        <time>2021-08-19T09:56:37Z</time>
      </trkpt>
      <trkpt lat="46.46142" lon="6.02986">
        <ele>1116.9</ele>
        <time>2021-08-19T09:56:39Z</time>
      </trkpt>
      <trkpt lat="46.4614" lon="6.02982">
        <ele>1117.1</ele>
        <time>2021-08-19T09:56:40Z</time>
      </trkpt>
      <trkpt lat="46.46139" lon="6.02981">
        <ele>1117.1</ele>
        <time>2021-08-19T09:56:41Z</time>
      </trkpt>
      <trkpt lat="46.46136" lon="6.02979">
        <ele>1117.2</ele>
        <time>2021-08-19T09:56:43Z</time>
      </trkpt>
      <trkpt lat="46.46135" lon="6.02977">
        <ele>1117.2</ele>
        <time>2021-08-19T09:56:44Z</time>
      </trkpt>
      <trkpt lat="46.46133" lon="6.02973">
        <ele>1117.3</ele>
        <time>2021-08-19T09:56:46Z</time>
      </trkpt>
      <trkpt lat="46.4613" lon="6.02972">
        <ele>1117.4</ele>
        <time>2021-08-19T09:56:47Z</time>
      </trkpt>
      <trkpt lat="46.46125" lon="6.02969">
        <ele>1117.6</ele>
        <time>2021-08-19T09:56:49Z</time>
      </trkpt>
      <trkpt lat="46.46121" lon="6.02967">
        <ele>1117.7</ele>
        <time>2021-08-19T09:56:50Z</time>
      </trkpt>
      <trkpt lat="46.46117" lon="6.02963">
        <ele>1117.9</ele>
        <time>2021-08-19T09:56:51Z</time>
      </trkpt>
      <trkpt lat="46.46113" lon="6.0296">
        <ele>1118</ele>
        <time>2021-08-19T09:56:53Z</time>
      </trkpt>
      <trkpt lat="46.4611" lon="6.02957">
        <ele>1118.2</ele>
        <time>2021-08-19T09:56:54Z</time>
      </trkpt>
      <trkpt lat="46.46108" lon="6.02953">
        <ele>1118.3</ele>
        <time>2021-08-19T09:56:55Z</time>
      </trkpt>
      <trkpt lat="46.46105" lon="6.02949">
        <ele>1118.3</ele>
        <time>2021-08-19T09:56:56Z</time>
      </trkpt>
      <trkpt lat="46.461" lon="6.02943">
        <ele>1118.5</ele>
        <time>2021-08-19T09:56:58Z</time>
      </trkpt>
      <trkpt lat="46.46096" lon="6.02939">
        <ele>1118.6</ele>
        <time>2021-08-19T09:56:59Z</time>
      </trkpt>
      <trkpt lat="46.46093" lon="6.02935">
        <ele>1118.7</ele>
        <time>2021-08-19T09:57:00Z</time>
      </trkpt>
      <trkpt lat="46.46089" lon="6.02931">
        <ele>1118.7</ele>
        <time>2021-08-19T09:57:01Z</time>
      </trkpt>
      <trkpt lat="46.46086" lon="6.02927">
        <ele>1118.8</ele>
        <time>2021-08-19T09:57:02Z</time>
      </trkpt>
      <trkpt lat="46.46083" lon="6.02924">
        <ele>1118.9</ele>
        <time>2021-08-19T09:57:03Z</time>
      </trkpt>
      <trkpt lat="46.4608" lon="6.02921">
        <ele>1118.9</ele>
        <time>2021-08-19T09:57:05Z</time>
      </trkpt>
      <trkpt lat="46.46077" lon="6.02918">
        <ele>1119</ele>
        <time>2021-08-19T09:57:06Z</time>
      </trkpt>
      <trkpt lat="46.46073" lon="6.02917">
        <ele>1119</ele>
        <time>2021-08-19T09:57:07Z</time>
      </trkpt>
      <trkpt lat="46.46068" lon="6.02915">
        <ele>1119.1</ele>
        <time>2021-08-19T09:57:08Z</time>
      </trkpt>
      <trkpt lat="46.4606" lon="6.02911">
        <ele>1119.1</ele>
        <time>2021-08-19T09:57:10Z</time>
      </trkpt>
      <trkpt lat="46.46056" lon="6.0291">
        <ele>1119.1</ele>
        <time>2021-08-19T09:57:11Z</time>
      </trkpt>
      <trkpt lat="46.46052" lon="6.02908">
        <ele>1119</ele>
        <time>2021-08-19T09:57:12Z</time>
      </trkpt>
      <trkpt lat="46.46049" lon="6.0291">
        <ele>1119</ele>
        <time>2021-08-19T09:57:14Z</time>
      </trkpt>
      <trkpt lat="46.46048" lon="6.02911">
        <ele>1119</ele>
        <time>2021-08-19T09:57:15Z</time>
      </trkpt>
      <trkpt lat="46.46041" lon="6.02902">
        <ele>1119</ele>
        <time>2021-08-19T09:57:16Z</time>
      </trkpt>
      <trkpt lat="46.4603" lon="6.02887">
        <ele>1119</ele>
        <time>2021-08-19T09:57:18Z</time>
      </trkpt>
      <trkpt lat="46.46027" lon="6.02882">
        <ele>1119.1</ele>
        <time>2021-08-19T09:57:19Z</time>
      </trkpt>
      <trkpt lat="46.46019" lon="6.02875">
        <ele>1119.1</ele>
        <time>2021-08-19T09:57:21Z</time>
      </trkpt>
      <trkpt lat="46.46015" lon="6.02871">
        <ele>1119.1</ele>
        <time>2021-08-19T09:57:22Z</time>
      </trkpt>
      <trkpt lat="46.46012" lon="6.02867">
        <ele>1119.2</ele>
        <time>2021-08-19T09:57:23Z</time>
      </trkpt>
      <trkpt lat="46.46008" lon="6.02864">
        <ele>1119.3</ele>
        <time>2021-08-19T09:57:24Z</time>
      </trkpt>
      <trkpt lat="46.46005" lon="6.02861">
        <ele>1119.4</ele>
        <time>2021-08-19T09:57:25Z</time>
      </trkpt>
      <trkpt lat="46.46" lon="6.02858">
        <ele>1119.5</ele>
        <time>2021-08-19T09:57:26Z</time>
      </trkpt>
      <trkpt lat="46.45996" lon="6.02856">
        <ele>1119.7</ele>
        <time>2021-08-19T09:57:27Z</time>
      </trkpt>
      <trkpt lat="46.45988" lon="6.02853">
        <ele>1119.9</ele>
        <time>2021-08-19T09:57:29Z</time>
      </trkpt>
      <trkpt lat="46.45984" lon="6.02852">
        <ele>1120</ele>
        <time>2021-08-19T09:57:30Z</time>
      </trkpt>
      <trkpt lat="46.45979" lon="6.0285">
        <ele>1120.2</ele>
        <time>2021-08-19T09:57:31Z</time>
      </trkpt>
      <trkpt lat="46.45974" lon="6.02847">
        <ele>1120.4</ele>
        <time>2021-08-19T09:57:33Z</time>
      </trkpt>
      <trkpt lat="46.4597" lon="6.02845">
        <ele>1120.6</ele>
        <time>2021-08-19T09:57:34Z</time>
      </trkpt>
      <trkpt lat="46.45966" lon="6.02843">
        <ele>1120.7</ele>
        <time>2021-08-19T09:57:35Z</time>
      </trkpt>
      <trkpt lat="46.45961" lon="6.02839">
        <ele>1121</ele>
        <time>2021-08-19T09:57:37Z</time>
      </trkpt>
      <trkpt lat="46.45957" lon="6.02834">
        <ele>1121.2</ele>
        <time>2021-08-19T09:57:38Z</time>
      </trkpt>
      <trkpt lat="46.45954" lon="6.0283">
        <ele>1121.3</ele>
        <time>2021-08-19T09:57:40Z</time>
      </trkpt>
      <trkpt lat="46.45953" lon="6.02826">
        <ele>1121.4</ele>
        <time>2021-08-19T09:57:41Z</time>
      </trkpt>
      <trkpt lat="46.45951" lon="6.02822">
        <ele>1121.5</ele>
        <time>2021-08-19T09:57:42Z</time>
      </trkpt>
      <trkpt lat="46.45949" lon="6.02817">
        <ele>1121.7</ele>
        <time>2021-08-19T09:57:43Z</time>
      </trkpt>
      <trkpt lat="46.45948" lon="6.02812">
        <ele>1121.8</ele>
        <time>2021-08-19T09:57:44Z</time>
      </trkpt>
      <trkpt lat="46.45946" lon="6.02803">
        <ele>1121.9</ele>
        <time>2021-08-19T09:57:45Z</time>
      </trkpt>
      <trkpt lat="46.45944" lon="6.02797">
        <ele>1122</ele>
        <time>2021-08-19T09:57:47Z</time>
      </trkpt>
      <trkpt lat="46.45942" lon="6.02791">
        <ele>1122.1</ele>
        <time>2021-08-19T09:57:48Z</time>
      </trkpt>
      <trkpt lat="46.4594" lon="6.02786">
        <ele>1122.2</ele>
        <time>2021-08-19T09:57:49Z</time>
      </trkpt>
      <trkpt lat="46.45939" lon="6.02781">
        <ele>1122.2</ele>
        <time>2021-08-19T09:57:51Z</time>
      </trkpt>
      <trkpt lat="46.45936" lon="6.02776">
        <ele>1122.2</ele>
        <time>2021-08-19T09:57:52Z</time>
      </trkpt>
      <trkpt lat="46.45934" lon="6.02771">
        <ele>1122.2</ele>
        <time>2021-08-19T09:57:54Z</time>
      </trkpt>
      <trkpt lat="46.45932" lon="6.02764">
        <ele>1122.2</ele>
        <time>2021-08-19T09:57:56Z</time>
      </trkpt>
      <trkpt lat="46.45932" lon="6.0276">
        <ele>1122.1</ele>
        <time>2021-08-19T09:57:57Z</time>
      </trkpt>
      <trkpt lat="46.45931" lon="6.02754">
        <ele>1122.1</ele>
        <time>2021-08-19T09:57:58Z</time>
      </trkpt>
      <trkpt lat="46.45929" lon="6.0275">
        <ele>1122</ele>
        <time>2021-08-19T09:57:59Z</time>
      </trkpt>
      <trkpt lat="46.45926" lon="6.02745">
        <ele>1122</ele>
        <time>2021-08-19T09:58:01Z</time>
      </trkpt>
      <trkpt lat="46.45919" lon="6.02737">
        <ele>1121.8</ele>
        <time>2021-08-19T09:58:03Z</time>
      </trkpt>
      <trkpt lat="46.45911" lon="6.02733">
        <ele>1121.6</ele>
        <time>2021-08-19T09:58:04Z</time>
      </trkpt>
      <trkpt lat="46.45906" lon="6.02729">
        <ele>1121.5</ele>
        <time>2021-08-19T09:58:05Z</time>
      </trkpt>
      <trkpt lat="46.45901" lon="6.02724">
        <ele>1121.4</ele>
        <time>2021-08-19T09:58:06Z</time>
      </trkpt>
      <trkpt lat="46.45896" lon="6.02719">
        <ele>1121.4</ele>
        <time>2021-08-19T09:58:07Z</time>
      </trkpt>
      <trkpt lat="46.4589" lon="6.02714">
        <ele>1121.3</ele>
        <time>2021-08-19T09:58:08Z</time>
      </trkpt>
      <trkpt lat="46.45881" lon="6.02703">
        <ele>1121.2</ele>
        <time>2021-08-19T09:58:10Z</time>
      </trkpt>
      <trkpt lat="46.45872" lon="6.02691">
        <ele>1121.2</ele>
        <time>2021-08-19T09:58:12Z</time>
      </trkpt>
      <trkpt lat="46.45863" lon="6.0268">
        <ele>1121.2</ele>
        <time>2021-08-19T09:58:14Z</time>
      </trkpt>
      <trkpt lat="46.45859" lon="6.02674">
        <ele>1121.3</ele>
        <time>2021-08-19T09:58:15Z</time>
      </trkpt>
      <trkpt lat="46.45851" lon="6.02663">
        <ele>1121.4</ele>
        <time>2021-08-19T09:58:17Z</time>
      </trkpt>
      <trkpt lat="46.45848" lon="6.02656">
        <ele>1121.5</ele>
        <time>2021-08-19T09:58:18Z</time>
      </trkpt>
      <trkpt lat="46.45843" lon="6.02645">
        <ele>1121.7</ele>
        <time>2021-08-19T09:58:20Z</time>
      </trkpt>
      <trkpt lat="46.4584" lon="6.02639">
        <ele>1121.8</ele>
        <time>2021-08-19T09:58:21Z</time>
      </trkpt>
      <trkpt lat="46.45833" lon="6.0263">
        <ele>1122</ele>
        <time>2021-08-19T09:58:23Z</time>
      </trkpt>
      <trkpt lat="46.45831" lon="6.02626">
        <ele>1122.1</ele>
        <time>2021-08-19T09:58:24Z</time>
      </trkpt>
      <trkpt lat="46.45828" lon="6.02622">
        <ele>1122.2</ele>
        <time>2021-08-19T09:58:25Z</time>
      </trkpt>
      <trkpt lat="46.45822" lon="6.02612">
        <ele>1122.5</ele>
        <time>2021-08-19T09:58:27Z</time>
      </trkpt>
      <trkpt lat="46.45818" lon="6.0261">
        <ele>1122.6</ele>
        <time>2021-08-19T09:58:28Z</time>
      </trkpt>
      <trkpt lat="46.45815" lon="6.02608">
        <ele>1122.7</ele>
        <time>2021-08-19T09:58:29Z</time>
      </trkpt>
      <trkpt lat="46.45812" lon="6.02603">
        <ele>1122.9</ele>
        <time>2021-08-19T09:58:30Z</time>
      </trkpt>
      <trkpt lat="46.45808" lon="6.02597">
        <ele>1123.1</ele>
        <time>2021-08-19T09:58:31Z</time>
      </trkpt>
      <trkpt lat="46.45802" lon="6.0259">
        <ele>1123.4</ele>
        <time>2021-08-19T09:58:33Z</time>
      </trkpt>
      <trkpt lat="46.45797" lon="6.02583">
        <ele>1123.7</ele>
        <time>2021-08-19T09:58:34Z</time>
      </trkpt>
      <trkpt lat="46.45795" lon="6.02578">
        <ele>1123.9</ele>
        <time>2021-08-19T09:58:36Z</time>
      </trkpt>
      <trkpt lat="46.45791" lon="6.02575">
        <ele>1124.1</ele>
        <time>2021-08-19T09:58:37Z</time>
      </trkpt>
      <trkpt lat="46.45787" lon="6.02573">
        <ele>1124.3</ele>
        <time>2021-08-19T09:58:38Z</time>
      </trkpt>
      <trkpt lat="46.45783" lon="6.02571">
        <ele>1124.5</ele>
        <time>2021-08-19T09:58:39Z</time>
      </trkpt>
      <trkpt lat="46.45779" lon="6.02569">
        <ele>1124.7</ele>
        <time>2021-08-19T09:58:40Z</time>
      </trkpt>
      <trkpt lat="46.45776" lon="6.02568">
        <ele>1124.9</ele>
        <time>2021-08-19T09:58:42Z</time>
      </trkpt>
      <trkpt lat="46.4577" lon="6.02566">
        <ele>1125</ele>
        <time>2021-08-19T09:58:44Z</time>
      </trkpt>
      <trkpt lat="46.45768" lon="6.02565">
        <ele>1125</ele>
        <time>2021-08-19T09:58:45Z</time>
      </trkpt>
      <trkpt lat="46.45763" lon="6.02565">
        <ele>1125.1</ele>
        <time>2021-08-19T09:58:46Z</time>
      </trkpt>
      <trkpt lat="46.45761" lon="6.02565">
        <ele>1125.1</ele>
        <time>2021-08-19T09:58:47Z</time>
      </trkpt>
      <trkpt lat="46.45758" lon="6.02565">
        <ele>1125.1</ele>
        <time>2021-08-19T09:58:48Z</time>
      </trkpt>
      <trkpt lat="46.45755" lon="6.02565">
        <ele>1125.2</ele>
        <time>2021-08-19T09:58:50Z</time>
      </trkpt>
      <trkpt lat="46.45754" lon="6.02565">
        <ele>1125.3</ele>
        <time>2021-08-19T09:58:51Z</time>
      </trkpt>
      <trkpt lat="46.45749" lon="6.02564">
        <ele>1125.4</ele>
        <time>2021-08-19T09:58:53Z</time>
      </trkpt>
      <trkpt lat="46.45745" lon="6.02563">
        <ele>1125.6</ele>
        <time>2021-08-19T09:58:55Z</time>
      </trkpt>
      <trkpt lat="46.45741" lon="6.02562">
        <ele>1125.7</ele>
        <time>2021-08-19T09:58:56Z</time>
      </trkpt>
      <trkpt lat="46.4574" lon="6.02562">
        <ele>1125.7</ele>
        <time>2021-08-19T09:58:57Z</time>
      </trkpt>
      <trkpt lat="46.45737" lon="6.02562">
        <ele>1125.8</ele>
        <time>2021-08-19T09:58:58Z</time>
      </trkpt>
      <trkpt lat="46.45734" lon="6.02563">
        <ele>1125.9</ele>
        <time>2021-08-19T09:58:59Z</time>
      </trkpt>
      <trkpt lat="46.4573" lon="6.02561">
        <ele>1126</ele>
        <time>2021-08-19T09:59:01Z</time>
      </trkpt>
      <trkpt lat="46.45728" lon="6.02561">
        <ele>1126.1</ele>
        <time>2021-08-19T09:59:02Z</time>
      </trkpt>
      <trkpt lat="46.45725" lon="6.02559">
        <ele>1126.2</ele>
        <time>2021-08-19T09:59:03Z</time>
      </trkpt>
      <trkpt lat="46.45724" lon="6.02558">
        <ele>1126.2</ele>
        <time>2021-08-19T09:59:04Z</time>
      </trkpt>
      <trkpt lat="46.45721" lon="6.02555">
        <ele>1126.3</ele>
        <time>2021-08-19T09:59:06Z</time>
      </trkpt>
      <trkpt lat="46.45718" lon="6.02551">
        <ele>1126.4</ele>
        <time>2021-08-19T09:59:07Z</time>
      </trkpt>
      <trkpt lat="46.45714" lon="6.02547">
        <ele>1126.5</ele>
        <time>2021-08-19T09:59:09Z</time>
      </trkpt>
      <trkpt lat="46.45711" lon="6.02544">
        <ele>1126.6</ele>
        <time>2021-08-19T09:59:10Z</time>
      </trkpt>
      <trkpt lat="46.45709" lon="6.02541">
        <ele>1126.7</ele>
        <time>2021-08-19T09:59:12Z</time>
      </trkpt>
      <trkpt lat="46.45706" lon="6.02538">
        <ele>1126.8</ele>
        <time>2021-08-19T09:59:13Z</time>
      </trkpt>
      <trkpt lat="46.45704" lon="6.02536">
        <ele>1126.9</ele>
        <time>2021-08-19T09:59:14Z</time>
      </trkpt>
      <trkpt lat="46.45701" lon="6.02533">
        <ele>1127</ele>
        <time>2021-08-19T09:59:15Z</time>
      </trkpt>
      <trkpt lat="46.45698" lon="6.02531">
        <ele>1127</ele>
        <time>2021-08-19T09:59:16Z</time>
      </trkpt>
      <trkpt lat="46.45695" lon="6.02528">
        <ele>1127.1</ele>
        <time>2021-08-19T09:59:18Z</time>
      </trkpt>
      <trkpt lat="46.45691" lon="6.02526">
        <ele>1127.2</ele>
        <time>2021-08-19T09:59:19Z</time>
      </trkpt>
      <trkpt lat="46.45687" lon="6.02523">
        <ele>1127.3</ele>
        <time>2021-08-19T09:59:20Z</time>
      </trkpt>
      <trkpt lat="46.45686" lon="6.02523">
        <ele>1127.4</ele>
        <time>2021-08-19T09:59:21Z</time>
      </trkpt>
      <trkpt lat="46.45682" lon="6.02522">
        <ele>1127.5</ele>
        <time>2021-08-19T09:59:22Z</time>
      </trkpt>
      <trkpt lat="46.45679" lon="6.02522">
        <ele>1127.5</ele>
        <time>2021-08-19T09:59:24Z</time>
      </trkpt>
      <trkpt lat="46.45674" lon="6.02521">
        <ele>1127.7</ele>
        <time>2021-08-19T09:59:26Z</time>
      </trkpt>
      <trkpt lat="46.45671" lon="6.0252">
        <ele>1127.7</ele>
        <time>2021-08-19T09:59:27Z</time>
      </trkpt>
      <trkpt lat="46.45665" lon="6.02516">
        <ele>1127.9</ele>
        <time>2021-08-19T09:59:29Z</time>
      </trkpt>
      <trkpt lat="46.45659" lon="6.02514">
        <ele>1128</ele>
        <time>2021-08-19T09:59:31Z</time>
      </trkpt>
      <trkpt lat="46.45657" lon="6.02512">
        <ele>1128</ele>
        <time>2021-08-19T09:59:32Z</time>
      </trkpt>
      <trkpt lat="46.45651" lon="6.02509">
        <ele>1128.1</ele>
        <time>2021-08-19T09:59:34Z</time>
      </trkpt>
      <trkpt lat="46.45648" lon="6.02506">
        <ele>1128.2</ele>
        <time>2021-08-19T09:59:35Z</time>
      </trkpt>
      <trkpt lat="46.45644" lon="6.02503">
        <ele>1128.3</ele>
        <time>2021-08-19T09:59:37Z</time>
      </trkpt>
      <trkpt lat="46.4564" lon="6.025">
        <ele>1128.4</ele>
        <time>2021-08-19T09:59:39Z</time>
      </trkpt>
      <trkpt lat="46.45635" lon="6.02499">
        <ele>1128.5</ele>
        <time>2021-08-19T09:59:41Z</time>
      </trkpt>
      <trkpt lat="46.45632" lon="6.02498">
        <ele>1128.6</ele>
        <time>2021-08-19T09:59:42Z</time>
      </trkpt>
      <trkpt lat="46.45629" lon="6.02497">
        <ele>1128.6</ele>
        <time>2021-08-19T09:59:43Z</time>
      </trkpt>
      <trkpt lat="46.45626" lon="6.02495">
        <ele>1128.7</ele>
        <time>2021-08-19T09:59:44Z</time>
      </trkpt>
      <trkpt lat="46.45622" lon="6.02493">
        <ele>1128.9</ele>
        <time>2021-08-19T09:59:45Z</time>
      </trkpt>
      <trkpt lat="46.45618" lon="6.0249">
        <ele>1129</ele>
        <time>2021-08-19T09:59:46Z</time>
      </trkpt>
      <trkpt lat="46.45616" lon="6.02488">
        <ele>1129.1</ele>
        <time>2021-08-19T09:59:48Z</time>
      </trkpt>
      <trkpt lat="46.45614" lon="6.02485">
        <ele>1129.2</ele>
        <time>2021-08-19T09:59:49Z</time>
      </trkpt>
      <trkpt lat="46.45612" lon="6.02484">
        <ele>1129.3</ele>
        <time>2021-08-19T09:59:50Z</time>
      </trkpt>
      <trkpt lat="46.45609" lon="6.02481">
        <ele>1129.4</ele>
        <time>2021-08-19T09:59:52Z</time>
      </trkpt>
      <trkpt lat="46.45607" lon="6.02476">
        <ele>1129.5</ele>
        <time>2021-08-19T09:59:53Z</time>
      </trkpt>
      <trkpt lat="46.45606" lon="6.02472">
        <ele>1129.6</ele>
        <time>2021-08-19T09:59:54Z</time>
      </trkpt>
      <trkpt lat="46.45603" lon="6.02467">
        <ele>1129.8</ele>
        <time>2021-08-19T09:59:56Z</time>
      </trkpt>
      <trkpt lat="46.456" lon="6.02464">
        <ele>1130</ele>
        <time>2021-08-19T09:59:57Z</time>
      </trkpt>
      <trkpt lat="46.45599" lon="6.02462">
        <ele>1130</ele>
        <time>2021-08-19T09:59:58Z</time>
      </trkpt>
      <trkpt lat="46.45597" lon="6.02459">
        <ele>1130.1</ele>
        <time>2021-08-19T09:59:59Z</time>
      </trkpt>
      <trkpt lat="46.45596" lon="6.02457">
        <ele>1130.2</ele>
        <time>2021-08-19T10:00:01Z</time>
      </trkpt>
      <trkpt lat="46.45595" lon="6.02455">
        <ele>1130.3</ele>
        <time>2021-08-19T10:00:02Z</time>
      </trkpt>
      <trkpt lat="46.45594" lon="6.02453">
        <ele>1130.4</ele>
        <time>2021-08-19T10:00:03Z</time>
      </trkpt>
      <trkpt lat="46.45592" lon="6.0245">
        <ele>1130.6</ele>
        <time>2021-08-19T10:00:05Z</time>
      </trkpt>
      <trkpt lat="46.45591" lon="6.0245">
        <ele>1130.6</ele>
        <time>2021-08-19T10:00:06Z</time>
      </trkpt>
      <trkpt lat="46.45588" lon="6.0245">
        <ele>1130.7</ele>
        <time>2021-08-19T10:00:07Z</time>
      </trkpt>
      <trkpt lat="46.45587" lon="6.0245">
        <ele>1130.8</ele>
        <time>2021-08-19T10:00:08Z</time>
      </trkpt>
      <trkpt lat="46.45584" lon="6.02449">
        <ele>1131</ele>
        <time>2021-08-19T10:00:09Z</time>
      </trkpt>
      <trkpt lat="46.45581" lon="6.02449">
        <ele>1131.2</ele>
        <time>2021-08-19T10:00:10Z</time>
      </trkpt>
      <trkpt lat="46.45579" lon="6.02448">
        <ele>1131.3</ele>
        <time>2021-08-19T10:00:11Z</time>
      </trkpt>
      <trkpt lat="46.45576" lon="6.02445">
        <ele>1131.5</ele>
        <time>2021-08-19T10:00:13Z</time>
      </trkpt>
      <trkpt lat="46.45576" lon="6.02438">
        <ele>1131.8</ele>
        <time>2021-08-19T10:00:14Z</time>
      </trkpt>
      <trkpt lat="46.45577" lon="6.02426">
        <ele>1132.4</ele>
        <time>2021-08-19T10:00:15Z</time>
      </trkpt>
      <trkpt lat="46.45578" lon="6.02417">
        <ele>1132.9</ele>
        <time>2021-08-19T10:00:17Z</time>
      </trkpt>
      <trkpt lat="46.45578" lon="6.02412">
        <ele>1133.1</ele>
        <time>2021-08-19T10:00:18Z</time>
      </trkpt>
      <trkpt lat="46.45577" lon="6.0241">
        <ele>1133.2</ele>
        <time>2021-08-19T10:00:19Z</time>
      </trkpt>
      <trkpt lat="46.45576" lon="6.02409">
        <ele>1133.4</ele>
        <time>2021-08-19T10:00:21Z</time>
      </trkpt>
      <trkpt lat="46.45574" lon="6.02408">
        <ele>1133.5</ele>
        <time>2021-08-19T10:00:22Z</time>
      </trkpt>
      <trkpt lat="46.45572" lon="6.02408">
        <ele>1133.6</ele>
        <time>2021-08-19T10:00:24Z</time>
      </trkpt>
      <trkpt lat="46.45571" lon="6.02408">
        <ele>1133.7</ele>
        <time>2021-08-19T10:00:25Z</time>
      </trkpt>
      <trkpt lat="46.45567" lon="6.0241">
        <ele>1134.1</ele>
        <time>2021-08-19T10:00:27Z</time>
      </trkpt>
      <trkpt lat="46.45565" lon="6.0241">
        <ele>1134.2</ele>
        <time>2021-08-19T10:00:28Z</time>
      </trkpt>
      <trkpt lat="46.45563" lon="6.02409">
        <ele>1134.3</ele>
        <time>2021-08-19T10:00:30Z</time>
      </trkpt>
      <trkpt lat="46.45558" lon="6.0241">
        <ele>1134.7</ele>
        <time>2021-08-19T10:00:31Z</time>
      </trkpt>
      <trkpt lat="46.45551" lon="6.02412">
        <ele>1135.2</ele>
        <time>2021-08-19T10:00:33Z</time>
      </trkpt>
      <trkpt lat="46.45546" lon="6.02412">
        <ele>1135.5</ele>
        <time>2021-08-19T10:00:34Z</time>
      </trkpt>
      <trkpt lat="46.45542" lon="6.02411">
        <ele>1135.7</ele>
        <time>2021-08-19T10:00:35Z</time>
      </trkpt>
      <trkpt lat="46.45536" lon="6.02409">
        <ele>1136.1</ele>
        <time>2021-08-19T10:00:36Z</time>
      </trkpt>
      <trkpt lat="46.45533" lon="6.02408">
        <ele>1136.3</ele>
        <time>2021-08-19T10:00:37Z</time>
      </trkpt>
      <trkpt lat="46.45532" lon="6.02407">
        <ele>1136.4</ele>
        <time>2021-08-19T10:00:39Z</time>
      </trkpt>
      <trkpt lat="46.45532" lon="6.02405">
        <ele>1136.4</ele>
        <time>2021-08-19T10:00:40Z</time>
      </trkpt>
      <trkpt lat="46.45532" lon="6.02404">
        <ele>1136.5</ele>
        <time>2021-08-19T10:00:42Z</time>
      </trkpt>
      <trkpt lat="46.45531" lon="6.02403">
        <ele>1136.5</ele>
        <time>2021-08-19T10:00:43Z</time>
      </trkpt>
      <trkpt lat="46.4553" lon="6.02403">
        <ele>1136.6</ele>
        <time>2021-08-19T10:00:44Z</time>
      </trkpt>
      <trkpt lat="46.45529" lon="6.02403">
        <ele>1136.6</ele>
        <time>2021-08-19T10:00:45Z</time>
      </trkpt>
      <trkpt lat="46.45527" lon="6.02402">
        <ele>1136.7</ele>
        <time>2021-08-19T10:00:46Z</time>
      </trkpt>
      <trkpt lat="46.45526" lon="6.02403">
        <ele>1136.7</ele>
        <time>2021-08-19T10:00:48Z</time>
      </trkpt>
      <trkpt lat="46.45526" lon="6.02403">
        <ele>1136.8</ele>
        <time>2021-08-19T10:00:49Z</time>
      </trkpt>
      <trkpt lat="46.45526" lon="6.02403">
        <ele>1136.8</ele>
        <time>2021-08-19T10:00:50Z</time>
      </trkpt>
      <trkpt lat="46.45525" lon="6.02403">
        <ele>1136.8</ele>
        <time>2021-08-19T10:00:52Z</time>
      </trkpt>
      <trkpt lat="46.45524" lon="6.02404">
        <ele>1136.9</ele>
        <time>2021-08-19T10:00:54Z</time>
      </trkpt>
      <trkpt lat="46.45523" lon="6.02404">
        <ele>1136.9</ele>
        <time>2021-08-19T10:00:55Z</time>
      </trkpt>
      <trkpt lat="46.45522" lon="6.02404">
        <ele>1137</ele>
        <time>2021-08-19T10:00:57Z</time>
      </trkpt>
      <trkpt lat="46.45473" lon="6.0232">
        <ele>1140.4</ele>
        <time>2021-08-19T10:02:37Z</time>
      </trkpt>
      <trkpt lat="46.45469" lon="6.02315">
        <ele>1140.7</ele>
        <time>2021-08-19T10:02:38Z</time>
      </trkpt>
      <trkpt lat="46.45468" lon="6.02314">
        <ele>1140.7</ele>
        <time>2021-08-19T10:02:40Z</time>
      </trkpt>
      <trkpt lat="46.45468" lon="6.02313">
        <ele>1140.8</ele>
        <time>2021-08-19T10:02:41Z</time>
      </trkpt>
      <trkpt lat="46.45467" lon="6.02313">
        <ele>1140.8</ele>
        <time>2021-08-19T10:02:43Z</time>
      </trkpt>
      <trkpt lat="46.45467" lon="6.02312">
        <ele>1140.8</ele>
        <time>2021-08-19T10:02:44Z</time>
      </trkpt>
      <trkpt lat="46.45465" lon="6.02309">
        <ele>1141</ele>
        <time>2021-08-19T10:02:45Z</time>
      </trkpt>
      <trkpt lat="46.45464" lon="6.02309">
        <ele>1141</ele>
        <time>2021-08-19T10:02:46Z</time>
      </trkpt>
      <trkpt lat="46.45461" lon="6.02305">
        <ele>1141.2</ele>
        <time>2021-08-19T10:02:47Z</time>
      </trkpt>
      <trkpt lat="46.45457" lon="6.02301">
        <ele>1141.5</ele>
        <time>2021-08-19T10:02:49Z</time>
      </trkpt>
      <trkpt lat="46.45452" lon="6.02298">
        <ele>1141.7</ele>
        <time>2021-08-19T10:02:50Z</time>
      </trkpt>
      <trkpt lat="46.4545" lon="6.02297">
        <ele>1141.9</ele>
        <time>2021-08-19T10:02:51Z</time>
      </trkpt>
      <trkpt lat="46.45445" lon="6.02295">
        <ele>1142.2</ele>
        <time>2021-08-19T10:02:53Z</time>
      </trkpt>
      <trkpt lat="46.45443" lon="6.02294">
        <ele>1142.3</ele>
        <time>2021-08-19T10:02:54Z</time>
      </trkpt>
      <trkpt lat="46.45442" lon="6.02294">
        <ele>1142.3</ele>
        <time>2021-08-19T10:02:55Z</time>
      </trkpt>
      <trkpt lat="46.45438" lon="6.02292">
        <ele>1142.6</ele>
        <time>2021-08-19T10:02:57Z</time>
      </trkpt>
      <trkpt lat="46.45435" lon="6.0229">
        <ele>1142.8</ele>
        <time>2021-08-19T10:02:58Z</time>
      </trkpt>
      <trkpt lat="46.45432" lon="6.02289">
        <ele>1143</ele>
        <time>2021-08-19T10:02:59Z</time>
      </trkpt>
      <trkpt lat="46.45428" lon="6.02287">
        <ele>1143.2</ele>
        <time>2021-08-19T10:03:01Z</time>
      </trkpt>
      <trkpt lat="46.45424" lon="6.02283">
        <ele>1143.6</ele>
        <time>2021-08-19T10:03:03Z</time>
      </trkpt>
      <trkpt lat="46.4542" lon="6.02282">
        <ele>1143.9</ele>
        <time>2021-08-19T10:03:05Z</time>
      </trkpt>
      <trkpt lat="46.45417" lon="6.0228">
        <ele>1144.2</ele>
        <time>2021-08-19T10:03:06Z</time>
      </trkpt>
      <trkpt lat="46.45416" lon="6.0228">
        <ele>1144.3</ele>
        <time>2021-08-19T10:03:07Z</time>
      </trkpt>
      <trkpt lat="46.45412" lon="6.02277">
        <ele>1144.6</ele>
        <time>2021-08-19T10:03:09Z</time>
      </trkpt>
      <trkpt lat="46.45411" lon="6.02276">
        <ele>1144.7</ele>
        <time>2021-08-19T10:03:10Z</time>
      </trkpt>
      <trkpt lat="46.4541" lon="6.02274">
        <ele>1144.9</ele>
        <time>2021-08-19T10:03:11Z</time>
      </trkpt>
      <trkpt lat="46.45408" lon="6.02274">
        <ele>1145</ele>
        <time>2021-08-19T10:03:12Z</time>
      </trkpt>
      <trkpt lat="46.45406" lon="6.02274">
        <ele>1145.2</ele>
        <time>2021-08-19T10:03:13Z</time>
      </trkpt>
      <trkpt lat="46.45404" lon="6.02273">
        <ele>1145.4</ele>
        <time>2021-08-19T10:03:14Z</time>
      </trkpt>
      <trkpt lat="46.45402" lon="6.02271">
        <ele>1145.6</ele>
        <time>2021-08-19T10:03:16Z</time>
      </trkpt>
      <trkpt lat="46.45401" lon="6.02271">
        <ele>1145.7</ele>
        <time>2021-08-19T10:03:17Z</time>
      </trkpt>
      <trkpt lat="46.454" lon="6.02271">
        <ele>1145.8</ele>
        <time>2021-08-19T10:03:18Z</time>
      </trkpt>
      <trkpt lat="46.45399" lon="6.02269">
        <ele>1146</ele>
        <time>2021-08-19T10:03:20Z</time>
      </trkpt>
      <trkpt lat="46.45398" lon="6.02268">
        <ele>1146.1</ele>
        <time>2021-08-19T10:03:21Z</time>
      </trkpt>
      <trkpt lat="46.45397" lon="6.02268">
        <ele>1146.1</ele>
        <time>2021-08-19T10:03:22Z</time>
      </trkpt>
      <trkpt lat="46.45396" lon="6.02268">
        <ele>1146.2</ele>
        <time>2021-08-19T10:03:23Z</time>
      </trkpt>
      <trkpt lat="46.45393" lon="6.02268">
        <ele>1146.4</ele>
        <time>2021-08-19T10:03:24Z</time>
      </trkpt>
      <trkpt lat="46.45393" lon="6.02268">
        <ele>1146.5</ele>
        <time>2021-08-19T10:03:25Z</time>
      </trkpt>
      <trkpt lat="46.45392" lon="6.02268">
        <ele>1146.5</ele>
        <time>2021-08-19T10:03:26Z</time>
      </trkpt>
      <trkpt lat="46.45391" lon="6.02268">
        <ele>1146.6</ele>
        <time>2021-08-19T10:03:27Z</time>
      </trkpt>
      <trkpt lat="46.45391" lon="6.02268">
        <ele>1146.7</ele>
        <time>2021-08-19T10:03:29Z</time>
      </trkpt>
      <trkpt lat="46.4539" lon="6.02269">
        <ele>1146.7</ele>
        <time>2021-08-19T10:03:31Z</time>
      </trkpt>
      <trkpt lat="46.4539" lon="6.0227">
        <ele>1146.8</ele>
        <time>2021-08-19T10:03:33Z</time>
      </trkpt>
      <trkpt lat="46.45389" lon="6.0227">
        <ele>1146.8</ele>
        <time>2021-08-19T10:03:34Z</time>
      </trkpt>
      <trkpt lat="46.45388" lon="6.02275">
        <ele>1147.1</ele>
        <time>2021-08-19T10:03:35Z</time>
      </trkpt>
      <trkpt lat="46.45386" lon="6.0228">
        <ele>1147.5</ele>
        <time>2021-08-19T10:03:37Z</time>
      </trkpt>
      <trkpt lat="46.45385" lon="6.02284">
        <ele>1147.8</ele>
        <time>2021-08-19T10:03:45Z</time>
      </trkpt>
      <trkpt lat="46.45383" lon="6.02289">
        <ele>1148.1</ele>
        <time>2021-08-19T10:03:46Z</time>
      </trkpt>
      <trkpt lat="46.45382" lon="6.02294">
        <ele>1148.4</ele>
        <time>2021-08-19T10:03:47Z</time>
      </trkpt>
      <trkpt lat="46.45379" lon="6.02299">
        <ele>1148.8</ele>
        <time>2021-08-19T10:03:49Z</time>
      </trkpt>
      <trkpt lat="46.45377" lon="6.02304">
        <ele>1149.2</ele>
        <time>2021-08-19T10:03:51Z</time>
      </trkpt>
      <trkpt lat="46.45373" lon="6.02306">
        <ele>1149.6</ele>
        <time>2021-08-19T10:03:53Z</time>
      </trkpt>
      <trkpt lat="46.45369" lon="6.02304">
        <ele>1150</ele>
        <time>2021-08-19T10:03:54Z</time>
      </trkpt>
      <trkpt lat="46.45368" lon="6.02303">
        <ele>1150.1</ele>
        <time>2021-08-19T10:03:55Z</time>
      </trkpt>
      <trkpt lat="46.45367" lon="6.02304">
        <ele>1150.1</ele>
        <time>2021-08-19T10:03:57Z</time>
      </trkpt>
      <trkpt lat="46.45368" lon="6.02306">
        <ele>1150.3</ele>
        <time>2021-08-19T10:03:58Z</time>
      </trkpt>
      <trkpt lat="46.45368" lon="6.02308">
        <ele>1150.4</ele>
        <time>2021-08-19T10:03:59Z</time>
      </trkpt>
      <trkpt lat="46.45368" lon="6.0231">
        <ele>1150.5</ele>
        <time>2021-08-19T10:04:01Z</time>
      </trkpt>
      <trkpt lat="46.45368" lon="6.02313">
        <ele>1150.7</ele>
        <time>2021-08-19T10:04:02Z</time>
      </trkpt>
      <trkpt lat="46.45367" lon="6.02315">
        <ele>1150.9</ele>
        <time>2021-08-19T10:04:03Z</time>
      </trkpt>
      <trkpt lat="46.45366" lon="6.02317">
        <ele>1151</ele>
        <time>2021-08-19T10:04:05Z</time>
      </trkpt>
      <trkpt lat="46.45366" lon="6.02318">
        <ele>1151.1</ele>
        <time>2021-08-19T10:04:06Z</time>
      </trkpt>
      <trkpt lat="46.45366" lon="6.02319">
        <ele>1151.2</ele>
        <time>2021-08-19T10:04:07Z</time>
      </trkpt>
      <trkpt lat="46.45367" lon="6.0232">
        <ele>1151.3</ele>
        <time>2021-08-19T10:04:08Z</time>
      </trkpt>
      <trkpt lat="46.45367" lon="6.02322">
        <ele>1151.4</ele>
        <time>2021-08-19T10:04:10Z</time>
      </trkpt>
      <trkpt lat="46.45367" lon="6.02323">
        <ele>1151.5</ele>
        <time>2021-08-19T10:04:11Z</time>
      </trkpt>
      <trkpt lat="46.45367" lon="6.02325">
        <ele>1151.6</ele>
        <time>2021-08-19T10:04:12Z</time>
      </trkpt>
      <trkpt lat="46.45367" lon="6.02327">
        <ele>1151.7</ele>
        <time>2021-08-19T10:04:14Z</time>
      </trkpt>
      <trkpt lat="46.45367" lon="6.02329">
        <ele>1151.8</ele>
        <time>2021-08-19T10:04:15Z</time>
      </trkpt>
      <trkpt lat="46.45348" lon="6.02376">
        <ele>1155.2</ele>
        <time>2021-08-19T10:04:46Z</time>
      </trkpt>
      <trkpt lat="46.45346" lon="6.02377">
        <ele>1155.4</ele>
        <time>2021-08-19T10:04:47Z</time>
      </trkpt>
      <trkpt lat="46.45344" lon="6.02378">
        <ele>1155.6</ele>
        <time>2021-08-19T10:04:49Z</time>
      </trkpt>
      <trkpt lat="46.45342" lon="6.0238">
        <ele>1155.8</ele>
        <time>2021-08-19T10:04:50Z</time>
      </trkpt>
      <trkpt lat="46.4534" lon="6.0238">
        <ele>1156</ele>
        <time>2021-08-19T10:04:52Z</time>
      </trkpt>
      <trkpt lat="46.45329" lon="6.02378">
        <ele>1156.8</ele>
        <time>2021-08-19T10:04:54Z</time>
      </trkpt>
      <trkpt lat="46.45319" lon="6.02376">
        <ele>1157.7</ele>
        <time>2021-08-19T10:04:55Z</time>
      </trkpt>
      <trkpt lat="46.45316" lon="6.02376">
        <ele>1158</ele>
        <time>2021-08-19T10:04:57Z</time>
      </trkpt>
      <trkpt lat="46.45314" lon="6.02376">
        <ele>1158.1</ele>
        <time>2021-08-19T10:04:59Z</time>
      </trkpt>
      <trkpt lat="46.45313" lon="6.02377">
        <ele>1158.2</ele>
        <time>2021-08-19T10:05:00Z</time>
      </trkpt>
      <trkpt lat="46.45313" lon="6.02378">
        <ele>1158.3</ele>
        <time>2021-08-19T10:05:01Z</time>
      </trkpt>
      <trkpt lat="46.45313" lon="6.02381">
        <ele>1158.5</ele>
        <time>2021-08-19T10:05:02Z</time>
      </trkpt>
      <trkpt lat="46.45312" lon="6.02384">
        <ele>1158.6</ele>
        <time>2021-08-19T10:05:04Z</time>
      </trkpt>
      <trkpt lat="46.45312" lon="6.02385">
        <ele>1158.7</ele>
        <time>2021-08-19T10:05:05Z</time>
      </trkpt>
      <trkpt lat="46.45312" lon="6.02387">
        <ele>1158.8</ele>
        <time>2021-08-19T10:05:06Z</time>
      </trkpt>
      <trkpt lat="46.45311" lon="6.02389">
        <ele>1159</ele>
        <time>2021-08-19T10:05:08Z</time>
      </trkpt>
      <trkpt lat="46.45311" lon="6.02392">
        <ele>1159.1</ele>
        <time>2021-08-19T10:05:10Z</time>
      </trkpt>
      <trkpt lat="46.45311" lon="6.02393">
        <ele>1159.2</ele>
        <time>2021-08-19T10:05:11Z</time>
      </trkpt>
      <trkpt lat="46.45311" lon="6.02396">
        <ele>1159.4</ele>
        <time>2021-08-19T10:05:12Z</time>
      </trkpt>
      <trkpt lat="46.4531" lon="6.02402">
        <ele>1159.7</ele>
        <time>2021-08-19T10:05:14Z</time>
      </trkpt>
      <trkpt lat="46.45309" lon="6.02408">
        <ele>1160.1</ele>
        <time>2021-08-19T10:05:15Z</time>
      </trkpt>
      <trkpt lat="46.4531" lon="6.02413">
        <ele>1160.4</ele>
        <time>2021-08-19T10:05:16Z</time>
      </trkpt>
      <trkpt lat="46.45311" lon="6.0242">
        <ele>1160.8</ele>
        <time>2021-08-19T10:05:18Z</time>
      </trkpt>
      <trkpt lat="46.45311" lon="6.02425">
        <ele>1161</ele>
        <time>2021-08-19T10:05:19Z</time>
      </trkpt>
      <trkpt lat="46.45313" lon="6.02431">
        <ele>1161.5</ele>
        <time>2021-08-19T10:05:21Z</time>
      </trkpt>
      <trkpt lat="46.45316" lon="6.02435">
        <ele>1161.8</ele>
        <time>2021-08-19T10:05:23Z</time>
      </trkpt>
      <trkpt lat="46.45317" lon="6.02435">
        <ele>1161.9</ele>
        <time>2021-08-19T10:05:24Z</time>
      </trkpt>
      <trkpt lat="46.45317" lon="6.02436">
        <ele>1161.9</ele>
        <time>2021-08-19T10:05:25Z</time>
      </trkpt>
      <trkpt lat="46.45317" lon="6.02436">
        <ele>1162</ele>
        <time>2021-08-19T10:05:26Z</time>
      </trkpt>
      <trkpt lat="46.45318" lon="6.02438">
        <ele>1162.1</ele>
        <time>2021-08-19T10:05:28Z</time>
      </trkpt>
      <trkpt lat="46.45318" lon="6.0244">
        <ele>1162.2</ele>
        <time>2021-08-19T10:05:29Z</time>
      </trkpt>
      <trkpt lat="46.45318" lon="6.02441">
        <ele>1162.3</ele>
        <time>2021-08-19T10:05:30Z</time>
      </trkpt>
      <trkpt lat="46.45318" lon="6.02443">
        <ele>1162.4</ele>
        <time>2021-08-19T10:05:31Z</time>
      </trkpt>
      <trkpt lat="46.45313" lon="6.02459">
        <ele>1163.5</ele>
        <time>2021-08-19T10:05:41Z</time>
      </trkpt>
      <trkpt lat="46.45311" lon="6.02461">
        <ele>1163.6</ele>
        <time>2021-08-19T10:05:42Z</time>
      </trkpt>
      <trkpt lat="46.4531" lon="6.02464">
        <ele>1163.8</ele>
        <time>2021-08-19T10:05:44Z</time>
      </trkpt>
      <trkpt lat="46.45308" lon="6.02467">
        <ele>1164.1</ele>
        <time>2021-08-19T10:05:45Z</time>
      </trkpt>
      <trkpt lat="46.45304" lon="6.02472">
        <ele>1164.5</ele>
        <time>2021-08-19T10:05:47Z</time>
      </trkpt>
      <trkpt lat="46.45301" lon="6.02475">
        <ele>1164.9</ele>
        <time>2021-08-19T10:05:48Z</time>
      </trkpt>
      <trkpt lat="46.453" lon="6.02479">
        <ele>1165.1</ele>
        <time>2021-08-19T10:05:49Z</time>
      </trkpt>
      <trkpt lat="46.45299" lon="6.0248">
        <ele>1165.2</ele>
        <time>2021-08-19T10:05:50Z</time>
      </trkpt>
      <trkpt lat="46.45298" lon="6.02484">
        <ele>1165.5</ele>
        <time>2021-08-19T10:05:52Z</time>
      </trkpt>
      <trkpt lat="46.45298" lon="6.02486">
        <ele>1165.6</ele>
        <time>2021-08-19T10:05:53Z</time>
      </trkpt>
      <trkpt lat="46.45298" lon="6.02489">
        <ele>1165.8</ele>
        <time>2021-08-19T10:05:55Z</time>
      </trkpt>
      <trkpt lat="46.45298" lon="6.02492">
        <ele>1166</ele>
        <time>2021-08-19T10:05:56Z</time>
      </trkpt>
      <trkpt lat="46.45298" lon="6.02497">
        <ele>1166.3</ele>
        <time>2021-08-19T10:05:58Z</time>
      </trkpt>
      <trkpt lat="46.45299" lon="6.025">
        <ele>1166.5</ele>
        <time>2021-08-19T10:05:59Z</time>
      </trkpt>
      <trkpt lat="46.453" lon="6.02504">
        <ele>1166.8</ele>
        <time>2021-08-19T10:06:01Z</time>
      </trkpt>
      <trkpt lat="46.45301" lon="6.02506">
        <ele>1167</ele>
        <time>2021-08-19T10:06:02Z</time>
      </trkpt>
      <trkpt lat="46.45302" lon="6.02508">
        <ele>1167.1</ele>
        <time>2021-08-19T10:06:03Z</time>
      </trkpt>
      <trkpt lat="46.45301" lon="6.0251">
        <ele>1167.3</ele>
        <time>2021-08-19T10:06:04Z</time>
      </trkpt>
      <trkpt lat="46.45301" lon="6.02513">
        <ele>1167.5</ele>
        <time>2021-08-19T10:06:06Z</time>
      </trkpt>
      <trkpt lat="46.453" lon="6.02515">
        <ele>1167.6</ele>
        <time>2021-08-19T10:06:07Z</time>
      </trkpt>
      <trkpt lat="46.453" lon="6.02519">
        <ele>1167.8</ele>
        <time>2021-08-19T10:06:09Z</time>
      </trkpt>
      <trkpt lat="46.45301" lon="6.02521">
        <ele>1168</ele>
        <time>2021-08-19T10:06:10Z</time>
      </trkpt>
      <trkpt lat="46.45301" lon="6.02522">
        <ele>1168.1</ele>
        <time>2021-08-19T10:06:11Z</time>
      </trkpt>
      <trkpt lat="46.453" lon="6.02523">
        <ele>1168.1</ele>
        <time>2021-08-19T10:06:13Z</time>
      </trkpt>
      <trkpt lat="46.453" lon="6.02522">
        <ele>1168.1</ele>
        <time>2021-08-19T10:06:14Z</time>
      </trkpt>
      <trkpt lat="46.453" lon="6.02523">
        <ele>1168.1</ele>
        <time>2021-08-19T10:06:16Z</time>
      </trkpt>
      <trkpt lat="46.453" lon="6.02523">
        <ele>1168.2</ele>
        <time>2021-08-19T10:06:17Z</time>
      </trkpt>
      <trkpt lat="46.45298" lon="6.02525">
        <ele>1168.4</ele>
        <time>2021-08-19T10:06:18Z</time>
      </trkpt>
      <trkpt lat="46.45298" lon="6.02526">
        <ele>1168.5</ele>
        <time>2021-08-19T10:06:19Z</time>
      </trkpt>
      <trkpt lat="46.45297" lon="6.02527">
        <ele>1168.6</ele>
        <time>2021-08-19T10:06:20Z</time>
      </trkpt>
      <trkpt lat="46.45295" lon="6.02529">
        <ele>1168.8</ele>
        <time>2021-08-19T10:06:22Z</time>
      </trkpt>
      <trkpt lat="46.45282" lon="6.02545">
        <ele>1170.4</ele>
        <time>2021-08-19T10:06:35Z</time>
      </trkpt>
      <trkpt lat="46.45279" lon="6.02547">
        <ele>1170.6</ele>
        <time>2021-08-19T10:06:36Z</time>
      </trkpt>
      <trkpt lat="46.45279" lon="6.02548">
        <ele>1170.7</ele>
        <time>2021-08-19T10:06:37Z</time>
      </trkpt>
      <trkpt lat="46.45278" lon="6.02549">
        <ele>1170.8</ele>
        <time>2021-08-19T10:06:39Z</time>
      </trkpt>
      <trkpt lat="46.45277" lon="6.0255">
        <ele>1170.9</ele>
        <time>2021-08-19T10:06:40Z</time>
      </trkpt>
      <trkpt lat="46.45273" lon="6.02552">
        <ele>1171.3</ele>
        <time>2021-08-19T10:06:41Z</time>
      </trkpt>
      <trkpt lat="46.45272" lon="6.02553">
        <ele>1171.4</ele>
        <time>2021-08-19T10:06:42Z</time>
      </trkpt>
      <trkpt lat="46.45268" lon="6.02555">
        <ele>1171.8</ele>
        <time>2021-08-19T10:06:44Z</time>
      </trkpt>
      <trkpt lat="46.45266" lon="6.02556">
        <ele>1171.9</ele>
        <time>2021-08-19T10:06:46Z</time>
      </trkpt>
      <trkpt lat="46.45264" lon="6.02557">
        <ele>1172.2</ele>
        <time>2021-08-19T10:06:48Z</time>
      </trkpt>
      <trkpt lat="46.4526" lon="6.02559">
        <ele>1172.5</ele>
        <time>2021-08-19T10:06:49Z</time>
      </trkpt>
      <trkpt lat="46.45259" lon="6.02559">
        <ele>1172.6</ele>
        <time>2021-08-19T10:06:50Z</time>
      </trkpt>
      <trkpt lat="46.45256" lon="6.02562">
        <ele>1173</ele>
        <time>2021-08-19T10:06:52Z</time>
      </trkpt>
      <trkpt lat="46.45255" lon="6.02563">
        <ele>1173.1</ele>
        <time>2021-08-19T10:06:54Z</time>
      </trkpt>
      <trkpt lat="46.45253" lon="6.02564">
        <ele>1173.3</ele>
        <time>2021-08-19T10:06:55Z</time>
      </trkpt>
      <trkpt lat="46.45251" lon="6.02564">
        <ele>1173.5</ele>
        <time>2021-08-19T10:06:57Z</time>
      </trkpt>
      <trkpt lat="46.4525" lon="6.02565">
        <ele>1173.6</ele>
        <time>2021-08-19T10:06:59Z</time>
      </trkpt>
      <trkpt lat="46.45248" lon="6.02566">
        <ele>1173.8</ele>
        <time>2021-08-19T10:07:00Z</time>
      </trkpt>
      <trkpt lat="46.45246" lon="6.02566">
        <ele>1174</ele>
        <time>2021-08-19T10:07:02Z</time>
      </trkpt>
      <trkpt lat="46.45245" lon="6.02567">
        <ele>1174.1</ele>
        <time>2021-08-19T10:07:03Z</time>
      </trkpt>
      <trkpt lat="46.45243" lon="6.02568">
        <ele>1174.3</ele>
        <time>2021-08-19T10:07:04Z</time>
      </trkpt>
      <trkpt lat="46.45241" lon="6.02573">
        <ele>1174.7</ele>
        <time>2021-08-19T10:07:06Z</time>
      </trkpt>
      <trkpt lat="46.4524" lon="6.02576">
        <ele>1174.9</ele>
        <time>2021-08-19T10:07:07Z</time>
      </trkpt>
      <trkpt lat="46.45242" lon="6.0258">
        <ele>1175.2</ele>
        <time>2021-08-19T10:07:09Z</time>
      </trkpt>
      <trkpt lat="46.45244" lon="6.02584">
        <ele>1175.5</ele>
        <time>2021-08-19T10:07:10Z</time>
      </trkpt>
      <trkpt lat="46.45245" lon="6.02588">
        <ele>1175.7</ele>
        <time>2021-08-19T10:07:11Z</time>
      </trkpt>
      <trkpt lat="46.45246" lon="6.02589">
        <ele>1175.8</ele>
        <time>2021-08-19T10:07:12Z</time>
      </trkpt>
      <trkpt lat="46.45246" lon="6.02591">
        <ele>1176</ele>
        <time>2021-08-19T10:07:13Z</time>
      </trkpt>
      <trkpt lat="46.45246" lon="6.02594">
        <ele>1176.1</ele>
        <time>2021-08-19T10:07:15Z</time>
      </trkpt>
      <trkpt lat="46.45247" lon="6.02596">
        <ele>1176.2</ele>
        <time>2021-08-19T10:07:16Z</time>
      </trkpt>
      <trkpt lat="46.45247" lon="6.02598">
        <ele>1176.4</ele>
        <time>2021-08-19T10:07:17Z</time>
      </trkpt>
      <trkpt lat="46.45247" lon="6.02601">
        <ele>1176.6</ele>
        <time>2021-08-19T10:07:18Z</time>
      </trkpt>
      <trkpt lat="46.45247" lon="6.02605">
        <ele>1176.8</ele>
        <time>2021-08-19T10:07:20Z</time>
      </trkpt>
      <trkpt lat="46.45247" lon="6.02608">
        <ele>1177</ele>
        <time>2021-08-19T10:07:21Z</time>
      </trkpt>
      <trkpt lat="46.45247" lon="6.02609">
        <ele>1177.1</ele>
        <time>2021-08-19T10:07:22Z</time>
      </trkpt>
      <trkpt lat="46.45246" lon="6.0261">
        <ele>1177.1</ele>
        <time>2021-08-19T10:07:23Z</time>
      </trkpt>
      <trkpt lat="46.45246" lon="6.02612">
        <ele>1177.3</ele>
        <time>2021-08-19T10:07:25Z</time>
      </trkpt>
      <trkpt lat="46.45245" lon="6.02614">
        <ele>1177.4</ele>
        <time>2021-08-19T10:07:26Z</time>
      </trkpt>
      <trkpt lat="46.45244" lon="6.02615">
        <ele>1177.5</ele>
        <time>2021-08-19T10:07:27Z</time>
      </trkpt>
      <trkpt lat="46.45244" lon="6.02615">
        <ele>1177.5</ele>
        <time>2021-08-19T10:07:28Z</time>
      </trkpt>
      <trkpt lat="46.45244" lon="6.02616">
        <ele>1177.6</ele>
        <time>2021-08-19T10:07:29Z</time>
      </trkpt>
      <trkpt lat="46.45243" lon="6.02617">
        <ele>1177.7</ele>
        <time>2021-08-19T10:07:31Z</time>
      </trkpt>
      <trkpt lat="46.45243" lon="6.02618">
        <ele>1177.7</ele>
        <time>2021-08-19T10:07:32Z</time>
      </trkpt>
      <trkpt lat="46.45243" lon="6.0262">
        <ele>1177.8</ele>
        <time>2021-08-19T10:07:33Z</time>
      </trkpt>
      <trkpt lat="46.45243" lon="6.0262">
        <ele>1177.8</ele>
        <time>2021-08-19T10:07:35Z</time>
      </trkpt>
      <trkpt lat="46.45242" lon="6.02621">
        <ele>1177.9</ele>
        <time>2021-08-19T10:07:36Z</time>
      </trkpt>
      <trkpt lat="46.45242" lon="6.02622">
        <ele>1177.9</ele>
        <time>2021-08-19T10:07:37Z</time>
      </trkpt>
      <trkpt lat="46.45242" lon="6.02623">
        <ele>1178</ele>
        <time>2021-08-19T10:07:39Z</time>
      </trkpt>
      <trkpt lat="46.45242" lon="6.02623">
        <ele>1178</ele>
        <time>2021-08-19T10:07:40Z</time>
      </trkpt>
      <trkpt lat="46.45241" lon="6.02624">
        <ele>1178.1</ele>
        <time>2021-08-19T10:07:42Z</time>
      </trkpt>
      <trkpt lat="46.45241" lon="6.02625">
        <ele>1178.2</ele>
        <time>2021-08-19T10:07:43Z</time>
      </trkpt>
      <trkpt lat="46.4524" lon="6.02626">
        <ele>1178.2</ele>
        <time>2021-08-19T10:07:45Z</time>
      </trkpt>
      <trkpt lat="46.4524" lon="6.02627">
        <ele>1178.3</ele>
        <time>2021-08-19T10:07:47Z</time>
      </trkpt>
      <trkpt lat="46.45239" lon="6.02628">
        <ele>1178.4</ele>
        <time>2021-08-19T10:07:49Z</time>
      </trkpt>
      <trkpt lat="46.45238" lon="6.02628">
        <ele>1178.5</ele>
        <time>2021-08-19T10:07:50Z</time>
      </trkpt>
      <trkpt lat="46.45238" lon="6.02629">
        <ele>1178.5</ele>
        <time>2021-08-19T10:07:51Z</time>
      </trkpt>
      <trkpt lat="46.45237" lon="6.02629">
        <ele>1178.6</ele>
        <time>2021-08-19T10:07:52Z</time>
      </trkpt>
      <trkpt lat="46.45236" lon="6.0263">
        <ele>1178.7</ele>
        <time>2021-08-19T10:07:53Z</time>
      </trkpt>
      <trkpt lat="46.45234" lon="6.02632">
        <ele>1178.9</ele>
        <time>2021-08-19T10:07:55Z</time>
      </trkpt>
      <trkpt lat="46.45229" lon="6.02638">
        <ele>1179.5</ele>
        <time>2021-08-19T10:07:57Z</time>
      </trkpt>
      <trkpt lat="46.45228" lon="6.0264">
        <ele>1179.7</ele>
        <time>2021-08-19T10:07:58Z</time>
      </trkpt>
      <trkpt lat="46.45227" lon="6.02641">
        <ele>1179.8</ele>
        <time>2021-08-19T10:07:59Z</time>
      </trkpt>
      <trkpt lat="46.45227" lon="6.02645">
        <ele>1180</ele>
        <time>2021-08-19T10:08:00Z</time>
      </trkpt>
      <trkpt lat="46.45226" lon="6.02651">
        <ele>1180.4</ele>
        <time>2021-08-19T10:08:02Z</time>
      </trkpt>
      <trkpt lat="46.45226" lon="6.02654">
        <ele>1180.6</ele>
        <time>2021-08-19T10:08:03Z</time>
      </trkpt>
      <trkpt lat="46.45225" lon="6.02655">
        <ele>1180.7</ele>
        <time>2021-08-19T10:08:04Z</time>
      </trkpt>
      <trkpt lat="46.45224" lon="6.02657">
        <ele>1180.9</ele>
        <time>2021-08-19T10:08:06Z</time>
      </trkpt>
      <trkpt lat="46.45223" lon="6.02659">
        <ele>1181</ele>
        <time>2021-08-19T10:08:07Z</time>
      </trkpt>
      <trkpt lat="46.45222" lon="6.02661">
        <ele>1181.2</ele>
        <time>2021-08-19T10:08:08Z</time>
      </trkpt>
      <trkpt lat="46.45221" lon="6.02662">
        <ele>1181.3</ele>
        <time>2021-08-19T10:08:10Z</time>
      </trkpt>
      <trkpt lat="46.4522" lon="6.02663">
        <ele>1181.4</ele>
        <time>2021-08-19T10:08:11Z</time>
      </trkpt>
      <trkpt lat="46.45219" lon="6.02663">
        <ele>1181.5</ele>
        <time>2021-08-19T10:08:12Z</time>
      </trkpt>
      <trkpt lat="46.45218" lon="6.02664">
        <ele>1181.6</ele>
        <time>2021-08-19T10:08:13Z</time>
      </trkpt>
      <trkpt lat="46.45214" lon="6.02666">
        <ele>1182</ele>
        <time>2021-08-19T10:08:15Z</time>
      </trkpt>
      <trkpt lat="46.45212" lon="6.02668">
        <ele>1182.2</ele>
        <time>2021-08-19T10:08:16Z</time>
      </trkpt>
      <trkpt lat="46.45207" lon="6.02672">
        <ele>1182.6</ele>
        <time>2021-08-19T10:08:18Z</time>
      </trkpt>
      <trkpt lat="46.45206" lon="6.02675">
        <ele>1182.8</ele>
        <time>2021-08-19T10:08:19Z</time>
      </trkpt>
      <trkpt lat="46.45202" lon="6.02681">
        <ele>1183.3</ele>
        <time>2021-08-19T10:08:21Z</time>
      </trkpt>
      <trkpt lat="46.45196" lon="6.02684">
        <ele>1183.8</ele>
        <time>2021-08-19T10:08:22Z</time>
      </trkpt>
      <trkpt lat="46.45193" lon="6.02686">
        <ele>1184.1</ele>
        <time>2021-08-19T10:08:24Z</time>
      </trkpt>
      <trkpt lat="46.4519" lon="6.02688">
        <ele>1184.3</ele>
        <time>2021-08-19T10:08:25Z</time>
      </trkpt>
      <trkpt lat="46.45183" lon="6.02692">
        <ele>1184.8</ele>
        <time>2021-08-19T10:08:27Z</time>
      </trkpt>
      <trkpt lat="46.4518" lon="6.02694">
        <ele>1185.1</ele>
        <time>2021-08-19T10:08:28Z</time>
      </trkpt>
      <trkpt lat="46.45173" lon="6.02698">
        <ele>1185.5</ele>
        <time>2021-08-19T10:08:32Z</time>
      </trkpt>
      <trkpt lat="46.45175" lon="6.02701">
        <ele>1185.7</ele>
        <time>2021-08-19T10:08:33Z</time>
      </trkpt>
      <trkpt lat="46.45182" lon="6.02706">
        <ele>1186.1</ele>
        <time>2021-08-19T10:08:35Z</time>
      </trkpt>
      <trkpt lat="46.45183" lon="6.0271">
        <ele>1186.3</ele>
        <time>2021-08-19T10:08:36Z</time>
      </trkpt>
      <trkpt lat="46.45183" lon="6.02712">
        <ele>1186.4</ele>
        <time>2021-08-19T10:08:37Z</time>
      </trkpt>
      <trkpt lat="46.45178" lon="6.0273">
        <ele>1187.3</ele>
        <time>2021-08-19T10:08:39Z</time>
      </trkpt>
      <trkpt lat="46.45173" lon="6.02742">
        <ele>1188</ele>
        <time>2021-08-19T10:09:00Z</time>
      </trkpt>
      <trkpt lat="46.45168" lon="6.02755">
        <ele>1188.7</ele>
        <time>2021-08-19T10:09:01Z</time>
      </trkpt>
      <trkpt lat="46.45167" lon="6.02761">
        <ele>1189</ele>
        <time>2021-08-19T10:09:02Z</time>
      </trkpt>
      <trkpt lat="46.45166" lon="6.02765">
        <ele>1189.3</ele>
        <time>2021-08-19T10:09:04Z</time>
      </trkpt>
      <trkpt lat="46.45165" lon="6.02767">
        <ele>1189.4</ele>
        <time>2021-08-19T10:09:05Z</time>
      </trkpt>
      <trkpt lat="46.45162" lon="6.02772">
        <ele>1189.7</ele>
        <time>2021-08-19T10:09:06Z</time>
      </trkpt>
      <trkpt lat="46.45161" lon="6.02774">
        <ele>1190.1</ele>
        <time>2021-08-19T10:09:07Z</time>
      </trkpt>
      <trkpt lat="46.45159" lon="6.02777">
        <ele>1190.2</ele>
        <time>2021-08-19T10:09:09Z</time>
      </trkpt>
      <trkpt lat="46.45157" lon="6.02777">
        <ele>1190.3</ele>
        <time>2021-08-19T10:09:10Z</time>
      </trkpt>
      <trkpt lat="46.45154" lon="6.02777">
        <ele>1190.4</ele>
        <time>2021-08-19T10:09:12Z</time>
      </trkpt>
      <trkpt lat="46.45153" lon="6.02776">
        <ele>1190.4</ele>
        <time>2021-08-19T10:09:13Z</time>
      </trkpt>
      <trkpt lat="46.45154" lon="6.02776">
        <ele>1190.5</ele>
        <time>2021-08-19T10:09:15Z</time>
      </trkpt>
      <trkpt lat="46.45154" lon="6.02776">
        <ele>1190.5</ele>
        <time>2021-08-19T10:09:16Z</time>
      </trkpt>
      <trkpt lat="46.45154" lon="6.02777">
        <ele>1190.5</ele>
        <time>2021-08-19T10:09:18Z</time>
      </trkpt>
      <trkpt lat="46.45155" lon="6.02777">
        <ele>1190.5</ele>
        <time>2021-08-19T10:09:19Z</time>
      </trkpt>
      <trkpt lat="46.45155" lon="6.02778">
        <ele>1190.5</ele>
        <time>2021-08-19T10:09:20Z</time>
      </trkpt>
      <trkpt lat="46.45155" lon="6.02779">
        <ele>1190.6</ele>
        <time>2021-08-19T10:09:21Z</time>
      </trkpt>
      <trkpt lat="46.45155" lon="6.02779">
        <ele>1190.6</ele>
        <time>2021-08-19T10:09:23Z</time>
      </trkpt>
      <trkpt lat="46.45165" lon="6.02759">
        <ele>1191.2</ele>
        <time>2021-08-19T10:09:36Z</time>
      </trkpt>
      <trkpt lat="46.45167" lon="6.02756">
        <ele>1191.4</ele>
        <time>2021-08-19T10:09:37Z</time>
      </trkpt>
      <trkpt lat="46.45169" lon="6.02753">
        <ele>1191.5</ele>
        <time>2021-08-19T10:09:39Z</time>
      </trkpt>
      <trkpt lat="46.4517" lon="6.0275">
        <ele>1191.6</ele>
        <time>2021-08-19T10:09:40Z</time>
      </trkpt>
      <trkpt lat="46.45168" lon="6.02749">
        <ele>1191.7</ele>
        <time>2021-08-19T10:09:42Z</time>
      </trkpt>
      <trkpt lat="46.45166" lon="6.02749">
        <ele>1191.7</ele>
        <time>2021-08-19T10:09:43Z</time>
      </trkpt>
      <trkpt lat="46.45166" lon="6.02747">
        <ele>1191.8</ele>
        <time>2021-08-19T10:09:45Z</time>
      </trkpt>
      <trkpt lat="46.45166" lon="6.02747">
        <ele>1191.8</ele>
        <time>2021-08-19T10:09:46Z</time>
      </trkpt>
      <trkpt lat="46.45167" lon="6.02745">
        <ele>1191.8</ele>
        <time>2021-08-19T10:09:47Z</time>
      </trkpt>
      <trkpt lat="46.45168" lon="6.02744">
        <ele>1191.9</ele>
        <time>2021-08-19T10:09:49Z</time>
      </trkpt>
      <trkpt lat="46.4517" lon="6.0274">
        <ele>1192</ele>
        <time>2021-08-19T10:09:51Z</time>
      </trkpt>
      <trkpt lat="46.45178" lon="6.02724">
        <ele>1192.5</ele>
        <time>2021-08-19T10:09:58Z</time>
      </trkpt>
      <trkpt lat="46.45177" lon="6.02717">
        <ele>1192.6</ele>
        <time>2021-08-19T10:10:00Z</time>
      </trkpt>
      <trkpt lat="46.45175" lon="6.02713">
        <ele>1192.7</ele>
        <time>2021-08-19T10:10:01Z</time>
      </trkpt>
      <trkpt lat="46.4517" lon="6.02703">
        <ele>1192.9</ele>
        <time>2021-08-19T10:10:03Z</time>
      </trkpt>
      <trkpt lat="46.4517" lon="6.02698">
        <ele>1192.9</ele>
        <time>2021-08-19T10:10:04Z</time>
      </trkpt>
      <trkpt lat="46.45169" lon="6.02693">
        <ele>1193</ele>
        <time>2021-08-19T10:10:05Z</time>
      </trkpt>
      <trkpt lat="46.45168" lon="6.02681">
        <ele>1193.2</ele>
        <time>2021-08-19T10:10:06Z</time>
      </trkpt>
      <trkpt lat="46.45168" lon="6.02675">
        <ele>1193.3</ele>
        <time>2021-08-19T10:10:07Z</time>
      </trkpt>
      <trkpt lat="46.45166" lon="6.02666">
        <ele>1193.5</ele>
        <time>2021-08-19T10:10:09Z</time>
      </trkpt>
      <trkpt lat="46.45167" lon="6.02662">
        <ele>1193.6</ele>
        <time>2021-08-19T10:10:10Z</time>
      </trkpt>
      <trkpt lat="46.45169" lon="6.02657">
        <ele>1193.8</ele>
        <time>2021-08-19T10:10:11Z</time>
      </trkpt>
      <trkpt lat="46.45172" lon="6.02653">
        <ele>1193.9</ele>
        <time>2021-08-19T10:10:12Z</time>
      </trkpt>
      <trkpt lat="46.45175" lon="6.02647">
        <ele>1194.2</ele>
        <time>2021-08-19T10:10:13Z</time>
      </trkpt>
      <trkpt lat="46.4518" lon="6.02633">
        <ele>1194.9</ele>
        <time>2021-08-19T10:10:15Z</time>
      </trkpt>
      <trkpt lat="46.45182" lon="6.02621">
        <ele>1195.6</ele>
        <time>2021-08-19T10:10:16Z</time>
      </trkpt>
      <trkpt lat="46.45182" lon="6.02615">
        <ele>1196</ele>
        <time>2021-08-19T10:10:18Z</time>
      </trkpt>
      <trkpt lat="46.45181" lon="6.02611">
        <ele>1196.2</ele>
        <time>2021-08-19T10:10:19Z</time>
      </trkpt>
      <trkpt lat="46.45181" lon="6.0261">
        <ele>1196.3</ele>
        <time>2021-08-19T10:10:20Z</time>
      </trkpt>
      <trkpt lat="46.45178" lon="6.02608">
        <ele>1196.5</ele>
        <time>2021-08-19T10:10:22Z</time>
      </trkpt>
      <trkpt lat="46.45177" lon="6.02606">
        <ele>1196.6</ele>
        <time>2021-08-19T10:10:23Z</time>
      </trkpt>
      <trkpt lat="46.45177" lon="6.02607">
        <ele>1196.7</ele>
        <time>2021-08-19T10:10:25Z</time>
      </trkpt>
      <trkpt lat="46.45177" lon="6.02608">
        <ele>1196.8</ele>
        <time>2021-08-19T10:10:26Z</time>
      </trkpt>
      <trkpt lat="46.45176" lon="6.02608">
        <ele>1196.8</ele>
        <time>2021-08-19T10:10:27Z</time>
      </trkpt>
      <trkpt lat="46.45175" lon="6.02606">
        <ele>1196.9</ele>
        <time>2021-08-19T10:10:29Z</time>
      </trkpt>
      <trkpt lat="46.45174" lon="6.02604">
        <ele>1197.1</ele>
        <time>2021-08-19T10:10:30Z</time>
      </trkpt>
      <trkpt lat="46.45173" lon="6.02599">
        <ele>1197.2</ele>
        <time>2021-08-19T10:10:32Z</time>
      </trkpt>
      <trkpt lat="46.45171" lon="6.02591">
        <ele>1197.6</ele>
        <time>2021-08-19T10:10:34Z</time>
      </trkpt>
      <trkpt lat="46.45169" lon="6.02588">
        <ele>1197.7</ele>
        <time>2021-08-19T10:10:36Z</time>
      </trkpt>
      <trkpt lat="46.45165" lon="6.02582">
        <ele>1197.8</ele>
        <time>2021-08-19T10:10:38Z</time>
      </trkpt>
      <trkpt lat="46.45164" lon="6.02578">
        <ele>1197.9</ele>
        <time>2021-08-19T10:10:39Z</time>
      </trkpt>
      <trkpt lat="46.45163" lon="6.0257">
        <ele>1198</ele>
        <time>2021-08-19T10:10:41Z</time>
      </trkpt>
      <trkpt lat="46.45163" lon="6.02564">
        <ele>1198</ele>
        <time>2021-08-19T10:10:42Z</time>
      </trkpt>
      <trkpt lat="46.45162" lon="6.0255">
        <ele>1198.1</ele>
        <time>2021-08-19T10:10:43Z</time>
      </trkpt>
      <trkpt lat="46.45163" lon="6.02539">
        <ele>1198.1</ele>
        <time>2021-08-19T10:10:45Z</time>
      </trkpt>
      <trkpt lat="46.45164" lon="6.02533">
        <ele>1198.1</ele>
        <time>2021-08-19T10:10:46Z</time>
      </trkpt>
      <trkpt lat="46.45165" lon="6.02527">
        <ele>1198.1</ele>
        <time>2021-08-19T10:10:47Z</time>
      </trkpt>
      <trkpt lat="46.45166" lon="6.02522">
        <ele>1198</ele>
        <time>2021-08-19T10:10:48Z</time>
      </trkpt>
      <trkpt lat="46.45166" lon="6.02514">
        <ele>1198.1</ele>
        <time>2021-08-19T10:10:50Z</time>
      </trkpt>
      <trkpt lat="46.45166" lon="6.02509">
        <ele>1198.1</ele>
        <time>2021-08-19T10:10:51Z</time>
      </trkpt>
      <trkpt lat="46.45163" lon="6.02501">
        <ele>1198.1</ele>
        <time>2021-08-19T10:10:53Z</time>
      </trkpt>
      <trkpt lat="46.4516" lon="6.02496">
        <ele>1198.2</ele>
        <time>2021-08-19T10:10:54Z</time>
      </trkpt>
      <trkpt lat="46.45159" lon="6.02492">
        <ele>1198.2</ele>
        <time>2021-08-19T10:10:55Z</time>
      </trkpt>
      <trkpt lat="46.45155" lon="6.02482">
        <ele>1198.4</ele>
        <time>2021-08-19T10:10:57Z</time>
      </trkpt>
      <trkpt lat="46.45154" lon="6.02476">
        <ele>1198.5</ele>
        <time>2021-08-19T10:10:58Z</time>
      </trkpt>
      <trkpt lat="46.45151" lon="6.02467">
        <ele>1198.7</ele>
        <time>2021-08-19T10:11:00Z</time>
      </trkpt>
      <trkpt lat="46.4515" lon="6.02462">
        <ele>1198.8</ele>
        <time>2021-08-19T10:11:01Z</time>
      </trkpt>
      <trkpt lat="46.4515" lon="6.02453">
        <ele>1199.1</ele>
        <time>2021-08-19T10:11:03Z</time>
      </trkpt>
      <trkpt lat="46.45151" lon="6.02447">
        <ele>1199.3</ele>
        <time>2021-08-19T10:11:05Z</time>
      </trkpt>
      <trkpt lat="46.45153" lon="6.02443">
        <ele>1199.5</ele>
        <time>2021-08-19T10:11:06Z</time>
      </trkpt>
      <trkpt lat="46.45154" lon="6.0244">
        <ele>1199.6</ele>
        <time>2021-08-19T10:11:07Z</time>
      </trkpt>
      <trkpt lat="46.45153" lon="6.02438">
        <ele>1199.7</ele>
        <time>2021-08-19T10:11:08Z</time>
      </trkpt>
      <trkpt lat="46.45152" lon="6.02437">
        <ele>1199.8</ele>
        <time>2021-08-19T10:11:10Z</time>
      </trkpt>
      <trkpt lat="46.45151" lon="6.02434">
        <ele>1199.9</ele>
        <time>2021-08-19T10:11:12Z</time>
      </trkpt>
      <trkpt lat="46.45151" lon="6.02432">
        <ele>1200</ele>
        <time>2021-08-19T10:11:14Z</time>
      </trkpt>
      <trkpt lat="46.45152" lon="6.0243">
        <ele>1200.1</ele>
        <time>2021-08-19T10:11:16Z</time>
      </trkpt>
      <trkpt lat="46.45153" lon="6.02429">
        <ele>1200.2</ele>
        <time>2021-08-19T10:11:17Z</time>
      </trkpt>
      <trkpt lat="46.45137" lon="6.02369">
        <ele>1203.5</ele>
        <time>2021-08-19T10:11:52Z</time>
      </trkpt>
      <trkpt lat="46.4513" lon="6.0236">
        <ele>1203.9</ele>
        <time>2021-08-19T10:11:54Z</time>
      </trkpt>
      <trkpt lat="46.45127" lon="6.02355">
        <ele>1204.3</ele>
        <time>2021-08-19T10:11:55Z</time>
      </trkpt>
      <trkpt lat="46.45122" lon="6.02347">
        <ele>1204.9</ele>
        <time>2021-08-19T10:11:56Z</time>
      </trkpt>
      <trkpt lat="46.4512" lon="6.02343">
        <ele>1205.1</ele>
        <time>2021-08-19T10:11:58Z</time>
      </trkpt>
      <trkpt lat="46.4512" lon="6.02341">
        <ele>1205.2</ele>
        <time>2021-08-19T10:11:59Z</time>
      </trkpt>
      <trkpt lat="46.45121" lon="6.0234">
        <ele>1205.3</ele>
        <time>2021-08-19T10:12:00Z</time>
      </trkpt>
      <trkpt lat="46.45121" lon="6.02339">
        <ele>1205.4</ele>
        <time>2021-08-19T10:12:01Z</time>
      </trkpt>
      <trkpt lat="46.45121" lon="6.02337">
        <ele>1205.4</ele>
        <time>2021-08-19T10:12:02Z</time>
      </trkpt>
      <trkpt lat="46.45121" lon="6.02335">
        <ele>1205.6</ele>
        <time>2021-08-19T10:12:04Z</time>
      </trkpt>
      <trkpt lat="46.45121" lon="6.02333">
        <ele>1205.7</ele>
        <time>2021-08-19T10:12:05Z</time>
      </trkpt>
      <trkpt lat="46.45121" lon="6.02329">
        <ele>1205.9</ele>
        <time>2021-08-19T10:12:06Z</time>
      </trkpt>
      <trkpt lat="46.45121" lon="6.02321">
        <ele>1206.3</ele>
        <time>2021-08-19T10:12:10Z</time>
      </trkpt>
      <trkpt lat="46.45121" lon="6.02306">
        <ele>1207.1</ele>
        <time>2021-08-19T10:12:11Z</time>
      </trkpt>
      <trkpt lat="46.45122" lon="6.02296">
        <ele>1207.7</ele>
        <time>2021-08-19T10:12:12Z</time>
      </trkpt>
      <trkpt lat="46.45122" lon="6.02285">
        <ele>1208.4</ele>
        <time>2021-08-19T10:12:14Z</time>
      </trkpt>
      <trkpt lat="46.45123" lon="6.02282">
        <ele>1208.6</ele>
        <time>2021-08-19T10:12:15Z</time>
      </trkpt>
      <trkpt lat="46.45125" lon="6.02278">
        <ele>1208.9</ele>
        <time>2021-08-19T10:12:17Z</time>
      </trkpt>
      <trkpt lat="46.45125" lon="6.02277">
        <ele>1209</ele>
        <time>2021-08-19T10:12:18Z</time>
      </trkpt>
      <trkpt lat="46.45126" lon="6.02276">
        <ele>1209</ele>
        <time>2021-08-19T10:12:19Z</time>
      </trkpt>
      <trkpt lat="46.45127" lon="6.02275">
        <ele>1209.1</ele>
        <time>2021-08-19T10:12:20Z</time>
      </trkpt>
      <trkpt lat="46.45127" lon="6.02275">
        <ele>1209.2</ele>
        <time>2021-08-19T10:12:21Z</time>
      </trkpt>
      <trkpt lat="46.45128" lon="6.02275">
        <ele>1209.2</ele>
        <time>2021-08-19T10:12:22Z</time>
      </trkpt>
      <trkpt lat="46.45128" lon="6.02274">
        <ele>1209.3</ele>
        <time>2021-08-19T10:12:24Z</time>
      </trkpt>
      <trkpt lat="46.45127" lon="6.02269">
        <ele>1209.7</ele>
        <time>2021-08-19T10:12:30Z</time>
      </trkpt>
      <trkpt lat="46.45126" lon="6.02266">
        <ele>1209.9</ele>
        <time>2021-08-19T10:12:31Z</time>
      </trkpt>
      <trkpt lat="46.45124" lon="6.02262">
        <ele>1210.2</ele>
        <time>2021-08-19T10:12:33Z</time>
      </trkpt>
      <trkpt lat="46.45124" lon="6.02261">
        <ele>1210.2</ele>
        <time>2021-08-19T10:12:34Z</time>
      </trkpt>
      <trkpt lat="46.45123" lon="6.02257">
        <ele>1210.5</ele>
        <time>2021-08-19T10:12:36Z</time>
      </trkpt>
      <trkpt lat="46.45122" lon="6.02256">
        <ele>1210.6</ele>
        <time>2021-08-19T10:12:37Z</time>
      </trkpt>
      <trkpt lat="46.45121" lon="6.02254">
        <ele>1210.7</ele>
        <time>2021-08-19T10:12:38Z</time>
      </trkpt>
      <trkpt lat="46.45119" lon="6.02255">
        <ele>1210.9</ele>
        <time>2021-08-19T10:12:40Z</time>
      </trkpt>
      <trkpt lat="46.4512" lon="6.02257">
        <ele>1211</ele>
        <time>2021-08-19T10:12:41Z</time>
      </trkpt>
      <trkpt lat="46.45121" lon="6.02257">
        <ele>1211.1</ele>
        <time>2021-08-19T10:12:42Z</time>
      </trkpt>
      <trkpt lat="46.45121" lon="6.02259">
        <ele>1211.2</ele>
        <time>2021-08-19T10:12:44Z</time>
      </trkpt>
      <trkpt lat="46.45121" lon="6.02259">
        <ele>1211.2</ele>
        <time>2021-08-19T10:12:45Z</time>
      </trkpt>
      <trkpt lat="46.45121" lon="6.0226">
        <ele>1211.3</ele>
        <time>2021-08-19T10:12:46Z</time>
      </trkpt>
      <trkpt lat="46.45122" lon="6.0226">
        <ele>1211.3</ele>
        <time>2021-08-19T10:12:48Z</time>
      </trkpt>
      <trkpt lat="46.45014" lon="6.02005">
        <ele>1233.2</ele>
        <time>2021-08-19T10:16:17Z</time>
      </trkpt>
      <trkpt lat="46.45012" lon="6.02004">
        <ele>1233.4</ele>
        <time>2021-08-19T10:16:18Z</time>
      </trkpt>
      <trkpt lat="46.45011" lon="6.02003">
        <ele>1233.5</ele>
        <time>2021-08-19T10:16:19Z</time>
      </trkpt>
      <trkpt lat="46.4501" lon="6.02001">
        <ele>1233.6</ele>
        <time>2021-08-19T10:16:21Z</time>
      </trkpt>
      <trkpt lat="46.45009" lon="6.02">
        <ele>1233.8</ele>
        <time>2021-08-19T10:16:22Z</time>
      </trkpt>
      <trkpt lat="46.45009" lon="6.01999">
        <ele>1233.8</ele>
        <time>2021-08-19T10:16:23Z</time>
      </trkpt>
      <trkpt lat="46.45005" lon="6.01998">
        <ele>1234.2</ele>
        <time>2021-08-19T10:16:25Z</time>
      </trkpt>
      <trkpt lat="46.45004" lon="6.01997">
        <ele>1234.3</ele>
        <time>2021-08-19T10:16:26Z</time>
      </trkpt>
      <trkpt lat="46.44997" lon="6.01991">
        <ele>1235.1</ele>
        <time>2021-08-19T10:16:27Z</time>
      </trkpt>
      <trkpt lat="46.44991" lon="6.01985">
        <ele>1235.8</ele>
        <time>2021-08-19T10:16:28Z</time>
      </trkpt>
      <trkpt lat="46.44985" lon="6.01979">
        <ele>1236.5</ele>
        <time>2021-08-19T10:16:30Z</time>
      </trkpt>
      <trkpt lat="46.44979" lon="6.01973">
        <ele>1237.3</ele>
        <time>2021-08-19T10:16:32Z</time>
      </trkpt>
      <trkpt lat="46.44973" lon="6.01968">
        <ele>1238.3</ele>
        <time>2021-08-19T10:16:33Z</time>
      </trkpt>
      <trkpt lat="46.44966" lon="6.01962">
        <ele>1239.3</ele>
        <time>2021-08-19T10:16:34Z</time>
      </trkpt>
      <trkpt lat="46.4496" lon="6.01956">
        <ele>1240.3</ele>
        <time>2021-08-19T10:16:36Z</time>
      </trkpt>
      <trkpt lat="46.44954" lon="6.0195">
        <ele>1241.5</ele>
        <time>2021-08-19T10:17:50Z</time>
      </trkpt>
      <trkpt lat="46.44948" lon="6.01944">
        <ele>1242.5</ele>
        <time>2021-08-19T10:17:51Z</time>
      </trkpt>
      <trkpt lat="46.44944" lon="6.01938">
        <ele>1243.4</ele>
        <time>2021-08-19T10:17:53Z</time>
      </trkpt>
      <trkpt lat="46.44938" lon="6.01933">
        <ele>1244.3</ele>
        <time>2021-08-19T10:17:54Z</time>
      </trkpt>
      <trkpt lat="46.44934" lon="6.01928">
        <ele>1245.1</ele>
        <time>2021-08-19T10:17:56Z</time>
      </trkpt>
      <trkpt lat="46.44933" lon="6.01926">
        <ele>1245.3</ele>
        <time>2021-08-19T10:17:57Z</time>
      </trkpt>
      <trkpt lat="46.44932" lon="6.01924">
        <ele>1245.5</ele>
        <time>2021-08-19T10:17:58Z</time>
      </trkpt>
      <trkpt lat="46.44931" lon="6.01923">
        <ele>1245.7</ele>
        <time>2021-08-19T10:17:59Z</time>
      </trkpt>
      <trkpt lat="46.44926" lon="6.01923">
        <ele>1246.3</ele>
        <time>2021-08-19T10:18:01Z</time>
      </trkpt>
      <trkpt lat="46.44924" lon="6.01922">
        <ele>1246.6</ele>
        <time>2021-08-19T10:18:02Z</time>
      </trkpt>
      <trkpt lat="46.44926" lon="6.01921">
        <ele>1246.9</ele>
        <time>2021-08-19T10:18:04Z</time>
      </trkpt>
      <trkpt lat="46.44926" lon="6.0192">
        <ele>1247</ele>
        <time>2021-08-19T10:18:05Z</time>
      </trkpt>
      <trkpt lat="46.44926" lon="6.01919">
        <ele>1247.1</ele>
        <time>2021-08-19T10:18:06Z</time>
      </trkpt>
      <trkpt lat="46.44926" lon="6.01919">
        <ele>1247.1</ele>
        <time>2021-08-19T10:18:08Z</time>
      </trkpt>
      <trkpt lat="46.44926" lon="6.01918">
        <ele>1247.1</ele>
        <time>2021-08-19T10:18:09Z</time>
      </trkpt>
      <trkpt lat="46.44926" lon="6.01918">
        <ele>1247.2</ele>
        <time>2021-08-19T10:18:11Z</time>
      </trkpt>
      <trkpt lat="46.44922" lon="6.01891">
        <ele>1248.8</ele>
        <time>2021-08-19T10:18:37Z</time>
      </trkpt>
      <trkpt lat="46.4492" lon="6.01886">
        <ele>1249</ele>
        <time>2021-08-19T10:18:38Z</time>
      </trkpt>
      <trkpt lat="46.44918" lon="6.01882">
        <ele>1249.2</ele>
        <time>2021-08-19T10:18:39Z</time>
      </trkpt>
      <trkpt lat="46.44916" lon="6.01878">
        <ele>1249.3</ele>
        <time>2021-08-19T10:18:40Z</time>
      </trkpt>
      <trkpt lat="46.44914" lon="6.01872">
        <ele>1249.4</ele>
        <time>2021-08-19T10:18:41Z</time>
      </trkpt>
      <trkpt lat="46.44913" lon="6.01867">
        <ele>1249.4</ele>
        <time>2021-08-19T10:18:42Z</time>
      </trkpt>
      <trkpt lat="46.44911" lon="6.01862">
        <ele>1249.5</ele>
        <time>2021-08-19T10:18:44Z</time>
      </trkpt>
      <trkpt lat="46.44908" lon="6.01856">
        <ele>1249.5</ele>
        <time>2021-08-19T10:18:46Z</time>
      </trkpt>
      <trkpt lat="46.44902" lon="6.01851">
        <ele>1249.5</ele>
        <time>2021-08-19T10:18:48Z</time>
      </trkpt>
      <trkpt lat="46.44897" lon="6.0185">
        <ele>1249.4</ele>
        <time>2021-08-19T10:18:49Z</time>
      </trkpt>
      <trkpt lat="46.44889" lon="6.01849">
        <ele>1249.3</ele>
        <time>2021-08-19T10:18:50Z</time>
      </trkpt>
      <trkpt lat="46.44878" lon="6.01843">
        <ele>1249.1</ele>
        <time>2021-08-19T10:18:52Z</time>
      </trkpt>
      <trkpt lat="46.44875" lon="6.0184">
        <ele>1249</ele>
        <time>2021-08-19T10:18:53Z</time>
      </trkpt>
      <trkpt lat="46.44873" lon="6.0184">
        <ele>1249</ele>
        <time>2021-08-19T10:18:54Z</time>
      </trkpt>
      <trkpt lat="46.44868" lon="6.01837">
        <ele>1249</ele>
        <time>2021-08-19T10:18:56Z</time>
      </trkpt>
      <trkpt lat="46.44861" lon="6.01831">
        <ele>1249.1</ele>
        <time>2021-08-19T10:18:57Z</time>
      </trkpt>
      <trkpt lat="46.44855" lon="6.01826">
        <ele>1249.3</ele>
        <time>2021-08-19T10:18:59Z</time>
      </trkpt>
      <trkpt lat="46.44851" lon="6.01823">
        <ele>1249.4</ele>
        <time>2021-08-19T10:19:00Z</time>
      </trkpt>
      <trkpt lat="46.44843" lon="6.01818">
        <ele>1249.9</ele>
        <time>2021-08-19T10:19:02Z</time>
      </trkpt>
      <trkpt lat="46.44835" lon="6.01815">
        <ele>1250.4</ele>
        <time>2021-08-19T10:19:04Z</time>
      </trkpt>
      <trkpt lat="46.44833" lon="6.01815">
        <ele>1250.6</ele>
        <time>2021-08-19T10:19:05Z</time>
      </trkpt>
      <trkpt lat="46.44829" lon="6.01814">
        <ele>1250.8</ele>
        <time>2021-08-19T10:19:06Z</time>
      </trkpt>
      <trkpt lat="46.44829" lon="6.01813">
        <ele>1250.9</ele>
        <time>2021-08-19T10:19:07Z</time>
      </trkpt>
      <trkpt lat="46.44826" lon="6.01811">
        <ele>1251.1</ele>
        <time>2021-08-19T10:19:08Z</time>
      </trkpt>
      <trkpt lat="46.44825" lon="6.0181">
        <ele>1251.2</ele>
        <time>2021-08-19T10:19:09Z</time>
      </trkpt>
      <trkpt lat="46.44824" lon="6.01808">
        <ele>1251.3</ele>
        <time>2021-08-19T10:19:10Z</time>
      </trkpt>
      <trkpt lat="46.44824" lon="6.01807">
        <ele>1251.4</ele>
        <time>2021-08-19T10:19:11Z</time>
      </trkpt>
      <trkpt lat="46.44821" lon="6.01803">
        <ele>1251.7</ele>
        <time>2021-08-19T10:19:13Z</time>
      </trkpt>
      <trkpt lat="46.44819" lon="6.01801">
        <ele>1251.9</ele>
        <time>2021-08-19T10:19:14Z</time>
      </trkpt>
      <trkpt lat="46.44817" lon="6.018">
        <ele>1252</ele>
        <time>2021-08-19T10:19:16Z</time>
      </trkpt>
      <trkpt lat="46.44817" lon="6.01796">
        <ele>1252.2</ele>
        <time>2021-08-19T10:19:17Z</time>
      </trkpt>
      <trkpt lat="46.44818" lon="6.01793">
        <ele>1252.4</ele>
        <time>2021-08-19T10:19:18Z</time>
      </trkpt>
      <trkpt lat="46.44819" lon="6.01789">
        <ele>1252.6</ele>
        <time>2021-08-19T10:19:20Z</time>
      </trkpt>
      <trkpt lat="46.4482" lon="6.01783">
        <ele>1252.9</ele>
        <time>2021-08-19T10:19:21Z</time>
      </trkpt>
      <trkpt lat="46.44821" lon="6.01778">
        <ele>1253.1</ele>
        <time>2021-08-19T10:19:22Z</time>
      </trkpt>
      <trkpt lat="46.44821" lon="6.01773">
        <ele>1253.4</ele>
        <time>2021-08-19T10:19:23Z</time>
      </trkpt>
      <trkpt lat="46.44821" lon="6.01771">
        <ele>1253.5</ele>
        <time>2021-08-19T10:19:24Z</time>
      </trkpt>
      <trkpt lat="46.44821" lon="6.01766">
        <ele>1253.8</ele>
        <time>2021-08-19T10:19:26Z</time>
      </trkpt>
      <trkpt lat="46.44821" lon="6.01764">
        <ele>1253.9</ele>
        <time>2021-08-19T10:19:27Z</time>
      </trkpt>
      <trkpt lat="46.4482" lon="6.0176">
        <ele>1254.2</ele>
        <time>2021-08-19T10:19:29Z</time>
      </trkpt>
      <trkpt lat="46.4482" lon="6.01758">
        <ele>1254.3</ele>
        <time>2021-08-19T10:19:31Z</time>
      </trkpt>
      <trkpt lat="46.44819" lon="6.01755">
        <ele>1254.4</ele>
        <time>2021-08-19T10:19:33Z</time>
      </trkpt>
      <trkpt lat="46.44819" lon="6.01754">
        <ele>1254.6</ele>
        <time>2021-08-19T10:19:35Z</time>
      </trkpt>
      <trkpt lat="46.44818" lon="6.01748">
        <ele>1255</ele>
        <time>2021-08-19T10:19:37Z</time>
      </trkpt>
      <trkpt lat="46.44817" lon="6.01745">
        <ele>1255.3</ele>
        <time>2021-08-19T10:19:38Z</time>
      </trkpt>
      <trkpt lat="46.44816" lon="6.01742">
        <ele>1255.5</ele>
        <time>2021-08-19T10:19:39Z</time>
      </trkpt>
      <trkpt lat="46.44815" lon="6.01741">
        <ele>1255.6</ele>
        <time>2021-08-19T10:19:41Z</time>
      </trkpt>
      <trkpt lat="46.44813" lon="6.01738">
        <ele>1256.1</ele>
        <time>2021-08-19T10:19:43Z</time>
      </trkpt>
      <trkpt lat="46.44813" lon="6.01735">
        <ele>1256.4</ele>
        <time>2021-08-19T10:19:44Z</time>
      </trkpt>
      <trkpt lat="46.44815" lon="6.01729">
        <ele>1256.9</ele>
        <time>2021-08-19T10:19:46Z</time>
      </trkpt>
      <trkpt lat="46.44813" lon="6.01724">
        <ele>1257.4</ele>
        <time>2021-08-19T10:19:47Z</time>
      </trkpt>
      <trkpt lat="46.44813" lon="6.01722">
        <ele>1257.6</ele>
        <time>2021-08-19T10:19:48Z</time>
      </trkpt>
      <trkpt lat="46.44812" lon="6.0172">
        <ele>1257.9</ele>
        <time>2021-08-19T10:19:50Z</time>
      </trkpt>
      <trkpt lat="46.44811" lon="6.01719">
        <ele>1258</ele>
        <time>2021-08-19T10:19:52Z</time>
      </trkpt>
      <trkpt lat="46.4481" lon="6.01716">
        <ele>1258.3</ele>
        <time>2021-08-19T10:19:53Z</time>
      </trkpt>
      <trkpt lat="46.44809" lon="6.01715">
        <ele>1258.5</ele>
        <time>2021-08-19T10:19:54Z</time>
      </trkpt>
      <trkpt lat="46.44807" lon="6.0171">
        <ele>1259.1</ele>
        <time>2021-08-19T10:19:56Z</time>
      </trkpt>
      <trkpt lat="46.44806" lon="6.01709">
        <ele>1259.2</ele>
        <time>2021-08-19T10:19:57Z</time>
      </trkpt>
      <trkpt lat="46.44806" lon="6.01709">
        <ele>1259.3</ele>
        <time>2021-08-19T10:19:58Z</time>
      </trkpt>
      <trkpt lat="46.44806" lon="6.01709">
        <ele>1259.3</ele>
        <time>2021-08-19T10:19:59Z</time>
      </trkpt>
      <trkpt lat="46.44805" lon="6.01709">
        <ele>1259.3</ele>
        <time>2021-08-19T10:20:01Z</time>
      </trkpt>
      <trkpt lat="46.44805" lon="6.01708">
        <ele>1259.4</ele>
        <time>2021-08-19T10:20:02Z</time>
      </trkpt>
      <trkpt lat="46.44804" lon="6.01708">
        <ele>1259.5</ele>
        <time>2021-08-19T10:20:04Z</time>
      </trkpt>
      <trkpt lat="46.44803" lon="6.01707">
        <ele>1259.7</ele>
        <time>2021-08-19T10:20:05Z</time>
      </trkpt>
      <trkpt lat="46.44802" lon="6.01707">
        <ele>1259.8</ele>
        <time>2021-08-19T10:20:06Z</time>
      </trkpt>
      <trkpt lat="46.44802" lon="6.01707">
        <ele>1259.9</ele>
        <time>2021-08-19T10:20:07Z</time>
      </trkpt>
      <trkpt lat="46.44767" lon="6.01623">
        <ele>1265.4</ele>
        <time>2021-08-19T10:20:56Z</time>
      </trkpt>
      <trkpt lat="46.44762" lon="6.0162">
        <ele>1265.6</ele>
        <time>2021-08-19T10:20:57Z</time>
      </trkpt>
      <trkpt lat="46.4476" lon="6.01618">
        <ele>1265.7</ele>
        <time>2021-08-19T10:20:58Z</time>
      </trkpt>
      <trkpt lat="46.44758" lon="6.01615">
        <ele>1265.8</ele>
        <time>2021-08-19T10:21:00Z</time>
      </trkpt>
      <trkpt lat="46.44756" lon="6.01609">
        <ele>1265.9</ele>
        <time>2021-08-19T10:21:01Z</time>
      </trkpt>
      <trkpt lat="46.44755" lon="6.01607">
        <ele>1266</ele>
        <time>2021-08-19T10:21:02Z</time>
      </trkpt>
      <trkpt lat="46.44753" lon="6.01603">
        <ele>1266.1</ele>
        <time>2021-08-19T10:21:03Z</time>
      </trkpt>
      <trkpt lat="46.44751" lon="6.01598">
        <ele>1266.2</ele>
        <time>2021-08-19T10:21:04Z</time>
      </trkpt>
      <trkpt lat="46.4475" lon="6.01596">
        <ele>1266.2</ele>
        <time>2021-08-19T10:21:05Z</time>
      </trkpt>
      <trkpt lat="46.44749" lon="6.01591">
        <ele>1266.3</ele>
        <time>2021-08-19T10:21:07Z</time>
      </trkpt>
      <trkpt lat="46.44747" lon="6.01587">
        <ele>1266.4</ele>
        <time>2021-08-19T10:21:08Z</time>
      </trkpt>
      <trkpt lat="46.44744" lon="6.01584">
        <ele>1266.6</ele>
        <time>2021-08-19T10:21:09Z</time>
      </trkpt>
      <trkpt lat="46.44743" lon="6.01583">
        <ele>1266.6</ele>
        <time>2021-08-19T10:21:10Z</time>
      </trkpt>
      <trkpt lat="46.4474" lon="6.01579">
        <ele>1266.8</ele>
        <time>2021-08-19T10:21:12Z</time>
      </trkpt>
      <trkpt lat="46.44739" lon="6.01577">
        <ele>1266.8</ele>
        <time>2021-08-19T10:21:13Z</time>
      </trkpt>
      <trkpt lat="46.44737" lon="6.01572">
        <ele>1267</ele>
        <time>2021-08-19T10:21:15Z</time>
      </trkpt>
      <trkpt lat="46.44733" lon="6.01568">
        <ele>1267.2</ele>
        <time>2021-08-19T10:21:16Z</time>
      </trkpt>
      <trkpt lat="46.44732" lon="6.01566">
        <ele>1267.4</ele>
        <time>2021-08-19T10:21:17Z</time>
      </trkpt>
      <trkpt lat="46.44731" lon="6.01565">
        <ele>1267.4</ele>
        <time>2021-08-19T10:21:18Z</time>
      </trkpt>
      <trkpt lat="46.44727" lon="6.01565">
        <ele>1267.7</ele>
        <time>2021-08-19T10:21:20Z</time>
      </trkpt>
      <trkpt lat="46.44724" lon="6.01563">
        <ele>1267.9</ele>
        <time>2021-08-19T10:21:21Z</time>
      </trkpt>
      <trkpt lat="46.44723" lon="6.01563">
        <ele>1268</ele>
        <time>2021-08-19T10:21:22Z</time>
      </trkpt>
      <trkpt lat="46.44722" lon="6.01562">
        <ele>1268</ele>
        <time>2021-08-19T10:21:23Z</time>
      </trkpt>
      <trkpt lat="46.44721" lon="6.01562">
        <ele>1268.1</ele>
        <time>2021-08-19T10:21:24Z</time>
      </trkpt>
      <trkpt lat="46.4472" lon="6.01561">
        <ele>1268.2</ele>
        <time>2021-08-19T10:21:25Z</time>
      </trkpt>
      <trkpt lat="46.44717" lon="6.0156">
        <ele>1268.4</ele>
        <time>2021-08-19T10:21:27Z</time>
      </trkpt>
      <trkpt lat="46.44705" lon="6.01526">
        <ele>1270.1</ele>
        <time>2021-08-19T10:21:41Z</time>
      </trkpt>
      <trkpt lat="46.44703" lon="6.01518">
        <ele>1270.5</ele>
        <time>2021-08-19T10:21:43Z</time>
      </trkpt>
      <trkpt lat="46.44703" lon="6.01512">
        <ele>1270.7</ele>
        <time>2021-08-19T10:21:44Z</time>
      </trkpt>
      <trkpt lat="46.44703" lon="6.01505">
        <ele>1270.9</ele>
        <time>2021-08-19T10:21:45Z</time>
      </trkpt>
      <trkpt lat="46.44703" lon="6.01495">
        <ele>1271.3</ele>
        <time>2021-08-19T10:21:47Z</time>
      </trkpt>
      <trkpt lat="46.447" lon="6.01487">
        <ele>1271.6</ele>
        <time>2021-08-19T10:21:49Z</time>
      </trkpt>
      <trkpt lat="46.44699" lon="6.01481">
        <ele>1271.8</ele>
        <time>2021-08-19T10:21:50Z</time>
      </trkpt>
      <trkpt lat="46.44698" lon="6.01477">
        <ele>1272</ele>
        <time>2021-08-19T10:21:51Z</time>
      </trkpt>
      <trkpt lat="46.44696" lon="6.01469">
        <ele>1272.4</ele>
        <time>2021-08-19T10:21:53Z</time>
      </trkpt>
      <trkpt lat="46.44693" lon="6.01465">
        <ele>1272.6</ele>
        <time>2021-08-19T10:21:54Z</time>
      </trkpt>
      <trkpt lat="46.44692" lon="6.01463">
        <ele>1272.7</ele>
        <time>2021-08-19T10:21:55Z</time>
      </trkpt>
      <trkpt lat="46.44688" lon="6.0146">
        <ele>1272.9</ele>
        <time>2021-08-19T10:21:57Z</time>
      </trkpt>
      <trkpt lat="46.44686" lon="6.01457">
        <ele>1273.1</ele>
        <time>2021-08-19T10:21:58Z</time>
      </trkpt>
      <trkpt lat="46.44685" lon="6.01453">
        <ele>1273.3</ele>
        <time>2021-08-19T10:21:59Z</time>
      </trkpt>
      <trkpt lat="46.44684" lon="6.01446">
        <ele>1273.6</ele>
        <time>2021-08-19T10:22:01Z</time>
      </trkpt>
      <trkpt lat="46.44682" lon="6.01442">
        <ele>1273.7</ele>
        <time>2021-08-19T10:22:02Z</time>
      </trkpt>
      <trkpt lat="46.4468" lon="6.01436">
        <ele>1274</ele>
        <time>2021-08-19T10:22:04Z</time>
      </trkpt>
      <trkpt lat="46.44678" lon="6.01431">
        <ele>1274.1</ele>
        <time>2021-08-19T10:22:05Z</time>
      </trkpt>
      <trkpt lat="46.44678" lon="6.0143">
        <ele>1274.2</ele>
        <time>2021-08-19T10:22:06Z</time>
      </trkpt>
      <trkpt lat="46.44678" lon="6.01424">
        <ele>1274.3</ele>
        <time>2021-08-19T10:22:08Z</time>
      </trkpt>
      <trkpt lat="46.44679" lon="6.01419">
        <ele>1274.5</ele>
        <time>2021-08-19T10:22:09Z</time>
      </trkpt>
      <trkpt lat="46.4468" lon="6.01411">
        <ele>1274.7</ele>
        <time>2021-08-19T10:22:11Z</time>
      </trkpt>
      <trkpt lat="46.44679" lon="6.01401">
        <ele>1275</ele>
        <time>2021-08-19T10:22:13Z</time>
      </trkpt>
      <trkpt lat="46.44678" lon="6.01396">
        <ele>1275.1</ele>
        <time>2021-08-19T10:22:14Z</time>
      </trkpt>
      <trkpt lat="46.44677" lon="6.0139">
        <ele>1275.3</ele>
        <time>2021-08-19T10:22:15Z</time>
      </trkpt>
      <trkpt lat="46.44675" lon="6.01386">
        <ele>1275.4</ele>
        <time>2021-08-19T10:22:16Z</time>
      </trkpt>
      <trkpt lat="46.44673" lon="6.01379">
        <ele>1275.7</ele>
        <time>2021-08-19T10:22:18Z</time>
      </trkpt>
      <trkpt lat="46.44671" lon="6.01374">
        <ele>1275.9</ele>
        <time>2021-08-19T10:22:19Z</time>
      </trkpt>
      <trkpt lat="46.44668" lon="6.0137">
        <ele>1276.1</ele>
        <time>2021-08-19T10:22:21Z</time>
      </trkpt>
      <trkpt lat="46.44667" lon="6.01367">
        <ele>1276.2</ele>
        <time>2021-08-19T10:22:22Z</time>
      </trkpt>
      <trkpt lat="46.44666" lon="6.01363">
        <ele>1276.3</ele>
        <time>2021-08-19T10:22:24Z</time>
      </trkpt>
      <trkpt lat="46.44664" lon="6.01359">
        <ele>1276.4</ele>
        <time>2021-08-19T10:22:25Z</time>
      </trkpt>
      <trkpt lat="46.44663" lon="6.01358">
        <ele>1276.4</ele>
        <time>2021-08-19T10:22:26Z</time>
      </trkpt>
      <trkpt lat="46.44662" lon="6.01353">
        <ele>1276.5</ele>
        <time>2021-08-19T10:22:27Z</time>
      </trkpt>
      <trkpt lat="46.4466" lon="6.01351">
        <ele>1276.5</ele>
        <time>2021-08-19T10:22:28Z</time>
      </trkpt>
      <trkpt lat="46.44658" lon="6.01345">
        <ele>1276.5</ele>
        <time>2021-08-19T10:22:30Z</time>
      </trkpt>
      <trkpt lat="46.44659" lon="6.0134">
        <ele>1276.5</ele>
        <time>2021-08-19T10:22:32Z</time>
      </trkpt>
      <trkpt lat="46.44661" lon="6.01334">
        <ele>1276.4</ele>
        <time>2021-08-19T10:22:33Z</time>
      </trkpt>
      <trkpt lat="46.44661" lon="6.01331">
        <ele>1276.4</ele>
        <time>2021-08-19T10:22:34Z</time>
      </trkpt>
      <trkpt lat="46.44661" lon="6.01323">
        <ele>1276.3</ele>
        <time>2021-08-19T10:22:36Z</time>
      </trkpt>
      <trkpt lat="46.4466" lon="6.01318">
        <ele>1276.2</ele>
        <time>2021-08-19T10:22:37Z</time>
      </trkpt>
      <trkpt lat="46.4466" lon="6.0131">
        <ele>1276.1</ele>
        <time>2021-08-19T10:22:39Z</time>
      </trkpt>
      <trkpt lat="46.44659" lon="6.01303">
        <ele>1276</ele>
        <time>2021-08-19T10:22:40Z</time>
      </trkpt>
      <trkpt lat="46.44659" lon="6.01298">
        <ele>1275.9</ele>
        <time>2021-08-19T10:22:41Z</time>
      </trkpt>
      <trkpt lat="46.44658" lon="6.01293">
        <ele>1275.8</ele>
        <time>2021-08-19T10:22:42Z</time>
      </trkpt>
      <trkpt lat="46.44657" lon="6.01283">
        <ele>1275.7</ele>
        <time>2021-08-19T10:22:44Z</time>
      </trkpt>
      <trkpt lat="46.44657" lon="6.01275">
        <ele>1275.7</ele>
        <time>2021-08-19T10:22:45Z</time>
      </trkpt>
      <trkpt lat="46.44657" lon="6.01268">
        <ele>1275.7</ele>
        <time>2021-08-19T10:22:46Z</time>
      </trkpt>
      <trkpt lat="46.44656" lon="6.01262">
        <ele>1275.7</ele>
        <time>2021-08-19T10:22:47Z</time>
      </trkpt>
      <trkpt lat="46.44656" lon="6.01257">
        <ele>1275.7</ele>
        <time>2021-08-19T10:22:48Z</time>
      </trkpt>
      <trkpt lat="46.44655" lon="6.01251">
        <ele>1275.7</ele>
        <time>2021-08-19T10:22:49Z</time>
      </trkpt>
      <trkpt lat="46.44652" lon="6.01244">
        <ele>1275.7</ele>
        <time>2021-08-19T10:22:51Z</time>
      </trkpt>
      <trkpt lat="46.44649" lon="6.01239">
        <ele>1275.7</ele>
        <time>2021-08-19T10:22:52Z</time>
      </trkpt>
      <trkpt lat="46.44647" lon="6.01234">
        <ele>1275.8</ele>
        <time>2021-08-19T10:22:53Z</time>
      </trkpt>
      <trkpt lat="46.44645" lon="6.01229">
        <ele>1275.9</ele>
        <time>2021-08-19T10:22:54Z</time>
      </trkpt>
      <trkpt lat="46.44642" lon="6.01225">
        <ele>1275.9</ele>
        <time>2021-08-19T10:22:55Z</time>
      </trkpt>
      <trkpt lat="46.4464" lon="6.0122">
        <ele>1275.9</ele>
        <time>2021-08-19T10:22:56Z</time>
      </trkpt>
      <trkpt lat="46.44635" lon="6.01212">
        <ele>1276</ele>
        <time>2021-08-19T10:22:58Z</time>
      </trkpt>
      <trkpt lat="46.4463" lon="6.01207">
        <ele>1276.2</ele>
        <time>2021-08-19T10:22:59Z</time>
      </trkpt>
      <trkpt lat="46.44626" lon="6.01202">
        <ele>1276.3</ele>
        <time>2021-08-19T10:23:00Z</time>
      </trkpt>
      <trkpt lat="46.44621" lon="6.01196">
        <ele>1276.4</ele>
        <time>2021-08-19T10:23:02Z</time>
      </trkpt>
      <trkpt lat="46.44618" lon="6.01191">
        <ele>1276.5</ele>
        <time>2021-08-19T10:23:05Z</time>
      </trkpt>
      <trkpt lat="46.44614" lon="6.01187">
        <ele>1276.7</ele>
        <time>2021-08-19T10:23:07Z</time>
      </trkpt>
      <trkpt lat="46.44612" lon="6.01185">
        <ele>1276.8</ele>
        <time>2021-08-19T10:23:08Z</time>
      </trkpt>
      <trkpt lat="46.44611" lon="6.01184">
        <ele>1276.8</ele>
        <time>2021-08-19T10:23:09Z</time>
      </trkpt>
      <trkpt lat="46.44608" lon="6.0118">
        <ele>1277</ele>
        <time>2021-08-19T10:23:11Z</time>
      </trkpt>
      <trkpt lat="46.44606" lon="6.01176">
        <ele>1277.2</ele>
        <time>2021-08-19T10:23:12Z</time>
      </trkpt>
      <trkpt lat="46.44603" lon="6.01171">
        <ele>1277.5</ele>
        <time>2021-08-19T10:23:14Z</time>
      </trkpt>
      <trkpt lat="46.44601" lon="6.01168">
        <ele>1277.7</ele>
        <time>2021-08-19T10:23:16Z</time>
      </trkpt>
      <trkpt lat="46.44597" lon="6.01164">
        <ele>1278</ele>
        <time>2021-08-19T10:23:17Z</time>
      </trkpt>
      <trkpt lat="46.44593" lon="6.01159">
        <ele>1278.4</ele>
        <time>2021-08-19T10:23:19Z</time>
      </trkpt>
      <trkpt lat="46.4459" lon="6.01155">
        <ele>1278.8</ele>
        <time>2021-08-19T10:23:21Z</time>
      </trkpt>
      <trkpt lat="46.44587" lon="6.01151">
        <ele>1279.1</ele>
        <time>2021-08-19T10:23:23Z</time>
      </trkpt>
      <trkpt lat="46.44586" lon="6.0115">
        <ele>1279.2</ele>
        <time>2021-08-19T10:23:24Z</time>
      </trkpt>
      <trkpt lat="46.44583" lon="6.01148">
        <ele>1279.5</ele>
        <time>2021-08-19T10:23:25Z</time>
      </trkpt>
      <trkpt lat="46.44581" lon="6.01146">
        <ele>1279.7</ele>
        <time>2021-08-19T10:23:26Z</time>
      </trkpt>
      <trkpt lat="46.44578" lon="6.01145">
        <ele>1279.9</ele>
        <time>2021-08-19T10:23:28Z</time>
      </trkpt>
      <trkpt lat="46.44574" lon="6.01144">
        <ele>1280.2</ele>
        <time>2021-08-19T10:23:29Z</time>
      </trkpt>
      <trkpt lat="46.44569" lon="6.01142">
        <ele>1280.6</ele>
        <time>2021-08-19T10:23:31Z</time>
      </trkpt>
      <trkpt lat="46.44566" lon="6.0114">
        <ele>1280.8</ele>
        <time>2021-08-19T10:23:33Z</time>
      </trkpt>
      <trkpt lat="46.44562" lon="6.01137">
        <ele>1281.1</ele>
        <time>2021-08-19T10:23:35Z</time>
      </trkpt>
      <trkpt lat="46.44561" lon="6.01136">
        <ele>1281.2</ele>
        <time>2021-08-19T10:23:36Z</time>
      </trkpt>
      <trkpt lat="46.44559" lon="6.01136">
        <ele>1281.3</ele>
        <time>2021-08-19T10:23:37Z</time>
      </trkpt>
      <trkpt lat="46.44558" lon="6.01134">
        <ele>1281.4</ele>
        <time>2021-08-19T10:23:39Z</time>
      </trkpt>
      <trkpt lat="46.44557" lon="6.01133">
        <ele>1281.5</ele>
        <time>2021-08-19T10:23:40Z</time>
      </trkpt>
      <trkpt lat="46.44553" lon="6.0113">
        <ele>1281.7</ele>
        <time>2021-08-19T10:23:41Z</time>
      </trkpt>
      <trkpt lat="46.4455" lon="6.01127">
        <ele>1281.9</ele>
        <time>2021-08-19T10:23:42Z</time>
      </trkpt>
      <trkpt lat="46.44549" lon="6.01127">
        <ele>1282</ele>
        <time>2021-08-19T10:23:43Z</time>
      </trkpt>
      <trkpt lat="46.44545" lon="6.01125">
        <ele>1282.2</ele>
        <time>2021-08-19T10:23:45Z</time>
      </trkpt>
      <trkpt lat="46.44542" lon="6.01124">
        <ele>1282.4</ele>
        <time>2021-08-19T10:23:47Z</time>
      </trkpt>
      <trkpt lat="46.44539" lon="6.01122">
        <ele>1282.6</ele>
        <time>2021-08-19T10:23:49Z</time>
      </trkpt>
      <trkpt lat="46.44536" lon="6.01121">
        <ele>1282.7</ele>
        <time>2021-08-19T10:23:50Z</time>
      </trkpt>
      <trkpt lat="46.44532" lon="6.01119">
        <ele>1282.9</ele>
        <time>2021-08-19T10:23:52Z</time>
      </trkpt>
      <trkpt lat="46.44529" lon="6.01117">
        <ele>1283</ele>
        <time>2021-08-19T10:23:53Z</time>
      </trkpt>
      <trkpt lat="46.44527" lon="6.01116">
        <ele>1283.1</ele>
        <time>2021-08-19T10:23:54Z</time>
      </trkpt>
      <trkpt lat="46.44523" lon="6.01113">
        <ele>1283.3</ele>
        <time>2021-08-19T10:23:56Z</time>
      </trkpt>
      <trkpt lat="46.44521" lon="6.01109">
        <ele>1283.4</ele>
        <time>2021-08-19T10:23:57Z</time>
      </trkpt>
      <trkpt lat="46.44519" lon="6.01107">
        <ele>1283.4</ele>
        <time>2021-08-19T10:23:58Z</time>
      </trkpt>
      <trkpt lat="46.44516" lon="6.01102">
        <ele>1283.5</ele>
        <time>2021-08-19T10:24:00Z</time>
      </trkpt>
      <trkpt lat="46.44514" lon="6.01098">
        <ele>1283.6</ele>
        <time>2021-08-19T10:24:01Z</time>
      </trkpt>
      <trkpt lat="46.44512" lon="6.01095">
        <ele>1283.6</ele>
        <time>2021-08-19T10:24:02Z</time>
      </trkpt>
      <trkpt lat="46.44511" lon="6.01093">
        <ele>1283.6</ele>
        <time>2021-08-19T10:24:03Z</time>
      </trkpt>
      <trkpt lat="46.44508" lon="6.01089">
        <ele>1283.6</ele>
        <time>2021-08-19T10:24:05Z</time>
      </trkpt>
      <trkpt lat="46.44506" lon="6.01085">
        <ele>1283.6</ele>
        <time>2021-08-19T10:24:06Z</time>
      </trkpt>
      <trkpt lat="46.44505" lon="6.01085">
        <ele>1283.6</ele>
        <time>2021-08-19T10:24:07Z</time>
      </trkpt>
      <trkpt lat="46.44504" lon="6.01084">
        <ele>1283.6</ele>
        <time>2021-08-19T10:24:08Z</time>
      </trkpt>
      <trkpt lat="46.44501" lon="6.01082">
        <ele>1283.6</ele>
        <time>2021-08-19T10:24:10Z</time>
      </trkpt>
      <trkpt lat="46.445" lon="6.01081">
        <ele>1283.6</ele>
        <time>2021-08-19T10:24:11Z</time>
      </trkpt>
      <trkpt lat="46.44498" lon="6.0108">
        <ele>1283.6</ele>
        <time>2021-08-19T10:24:12Z</time>
      </trkpt>
      <trkpt lat="46.44497" lon="6.01077">
        <ele>1283.6</ele>
        <time>2021-08-19T10:24:14Z</time>
      </trkpt>
      <trkpt lat="46.44495" lon="6.01072">
        <ele>1283.6</ele>
        <time>2021-08-19T10:24:16Z</time>
      </trkpt>
      <trkpt lat="46.44493" lon="6.01068">
        <ele>1283.5</ele>
        <time>2021-08-19T10:24:17Z</time>
      </trkpt>
      <trkpt lat="46.44492" lon="6.01067">
        <ele>1283.5</ele>
        <time>2021-08-19T10:24:18Z</time>
      </trkpt>
      <trkpt lat="46.44489" lon="6.01061">
        <ele>1283.5</ele>
        <time>2021-08-19T10:24:20Z</time>
      </trkpt>
      <trkpt lat="46.44486" lon="6.01056">
        <ele>1283.5</ele>
        <time>2021-08-19T10:24:22Z</time>
      </trkpt>
      <trkpt lat="46.44483" lon="6.01052">
        <ele>1283.4</ele>
        <time>2021-08-19T10:24:23Z</time>
      </trkpt>
      <trkpt lat="46.44481" lon="6.01049">
        <ele>1283.4</ele>
        <time>2021-08-19T10:24:24Z</time>
      </trkpt>
      <trkpt lat="46.44478" lon="6.01046">
        <ele>1283.3</ele>
        <time>2021-08-19T10:24:25Z</time>
      </trkpt>
      <trkpt lat="46.44475" lon="6.01043">
        <ele>1283.3</ele>
        <time>2021-08-19T10:24:26Z</time>
      </trkpt>
      <trkpt lat="46.4447" lon="6.01037">
        <ele>1283.2</ele>
        <time>2021-08-19T10:24:28Z</time>
      </trkpt>
      <trkpt lat="46.44464" lon="6.01032">
        <ele>1283.2</ele>
        <time>2021-08-19T10:24:30Z</time>
      </trkpt>
      <trkpt lat="46.44457" lon="6.01028">
        <ele>1283.1</ele>
        <time>2021-08-19T10:24:32Z</time>
      </trkpt>
      <trkpt lat="46.44453" lon="6.01027">
        <ele>1283.1</ele>
        <time>2021-08-19T10:24:33Z</time>
      </trkpt>
      <trkpt lat="46.44447" lon="6.01024">
        <ele>1283</ele>
        <time>2021-08-19T10:24:35Z</time>
      </trkpt>
      <trkpt lat="46.44444" lon="6.01022">
        <ele>1282.9</ele>
        <time>2021-08-19T10:24:36Z</time>
      </trkpt>
      <trkpt lat="46.44439" lon="6.01019">
        <ele>1282.8</ele>
        <time>2021-08-19T10:24:38Z</time>
      </trkpt>
      <trkpt lat="46.44436" lon="6.01017">
        <ele>1282.7</ele>
        <time>2021-08-19T10:24:39Z</time>
      </trkpt>
      <trkpt lat="46.4443" lon="6.01015">
        <ele>1282.5</ele>
        <time>2021-08-19T10:24:40Z</time>
      </trkpt>
      <trkpt lat="46.44424" lon="6.0101">
        <ele>1282.2</ele>
        <time>2021-08-19T10:24:42Z</time>
      </trkpt>
      <trkpt lat="46.44416" lon="6.01006">
        <ele>1282</ele>
        <time>2021-08-19T10:24:44Z</time>
      </trkpt>
      <trkpt lat="46.44412" lon="6.01002">
        <ele>1281.8</ele>
        <time>2021-08-19T10:24:46Z</time>
      </trkpt>
      <trkpt lat="46.44407" lon="6.00998">
        <ele>1281.7</ele>
        <time>2021-08-19T10:24:47Z</time>
      </trkpt>
      <trkpt lat="46.44406" lon="6.00996">
        <ele>1281.7</ele>
        <time>2021-08-19T10:24:48Z</time>
      </trkpt>
      <trkpt lat="46.444" lon="6.00989">
        <ele>1281.6</ele>
        <time>2021-08-19T10:24:50Z</time>
      </trkpt>
      <trkpt lat="46.44393" lon="6.0098">
        <ele>1281.6</ele>
        <time>2021-08-19T10:24:52Z</time>
      </trkpt>
      <trkpt lat="46.44391" lon="6.00977">
        <ele>1281.6</ele>
        <time>2021-08-19T10:24:53Z</time>
      </trkpt>
      <trkpt lat="46.44388" lon="6.00974">
        <ele>1281.6</ele>
        <time>2021-08-19T10:24:55Z</time>
      </trkpt>
      <trkpt lat="46.44382" lon="6.00963">
        <ele>1281.6</ele>
        <time>2021-08-19T10:24:56Z</time>
      </trkpt>
      <trkpt lat="46.44353" lon="6.00917">
        <ele>1280.8</ele>
        <time>2021-08-19T10:25:03Z</time>
      </trkpt>
      <trkpt lat="46.4435" lon="6.00912">
        <ele>1280.7</ele>
        <time>2021-08-19T10:25:05Z</time>
      </trkpt>
      <trkpt lat="46.44346" lon="6.00908">
        <ele>1280.5</ele>
        <time>2021-08-19T10:25:06Z</time>
      </trkpt>
      <trkpt lat="46.4433" lon="6.00893">
        <ele>1279.6</ele>
        <time>2021-08-19T10:25:08Z</time>
      </trkpt>
      <trkpt lat="46.4432" lon="6.00883">
        <ele>1279.1</ele>
        <time>2021-08-19T10:25:10Z</time>
      </trkpt>
      <trkpt lat="46.44315" lon="6.00878">
        <ele>1278.8</ele>
        <time>2021-08-19T10:25:11Z</time>
      </trkpt>
      <trkpt lat="46.44311" lon="6.00872">
        <ele>1278.5</ele>
        <time>2021-08-19T10:25:12Z</time>
      </trkpt>
      <trkpt lat="46.44304" lon="6.0086">
        <ele>1278</ele>
        <time>2021-08-19T10:25:14Z</time>
      </trkpt>
      <trkpt lat="46.44295" lon="6.00852">
        <ele>1277.6</ele>
        <time>2021-08-19T10:25:16Z</time>
      </trkpt>
      <trkpt lat="46.44284" lon="6.00839">
        <ele>1277.2</ele>
        <time>2021-08-19T10:25:18Z</time>
      </trkpt>
      <trkpt lat="46.44271" lon="6.00826">
        <ele>1277</ele>
        <time>2021-08-19T10:25:20Z</time>
      </trkpt>
      <trkpt lat="46.44261" lon="6.00812">
        <ele>1277.2</ele>
        <time>2021-08-19T10:25:22Z</time>
      </trkpt>
      <trkpt lat="46.44254" lon="6.00798">
        <ele>1277.7</ele>
        <time>2021-08-19T10:25:24Z</time>
      </trkpt>
      <trkpt lat="46.44246" lon="6.00783">
        <ele>1278.2</ele>
        <time>2021-08-19T10:25:26Z</time>
      </trkpt>
      <trkpt lat="46.44242" lon="6.00777">
        <ele>1278.4</ele>
        <time>2021-08-19T10:25:27Z</time>
      </trkpt>
      <trkpt lat="46.44234" lon="6.00765">
        <ele>1278.7</ele>
        <time>2021-08-19T10:25:29Z</time>
      </trkpt>
      <trkpt lat="46.44231" lon="6.00758">
        <ele>1278.9</ele>
        <time>2021-08-19T10:25:30Z</time>
      </trkpt>
      <trkpt lat="46.44226" lon="6.00746">
        <ele>1279.2</ele>
        <time>2021-08-19T10:25:32Z</time>
      </trkpt>
      <trkpt lat="46.44222" lon="6.00734">
        <ele>1279.7</ele>
        <time>2021-08-19T10:25:34Z</time>
      </trkpt>
      <trkpt lat="46.44219" lon="6.00725">
        <ele>1280.1</ele>
        <time>2021-08-19T10:25:36Z</time>
      </trkpt>
      <trkpt lat="46.44219" lon="6.00714">
        <ele>1280.6</ele>
        <time>2021-08-19T10:25:38Z</time>
      </trkpt>
      <trkpt lat="46.44219" lon="6.00706">
        <ele>1281</ele>
        <time>2021-08-19T10:25:40Z</time>
      </trkpt>
      <trkpt lat="46.44218" lon="6.00702">
        <ele>1281.2</ele>
        <time>2021-08-19T10:25:41Z</time>
      </trkpt>
      <trkpt lat="46.44216" lon="6.007">
        <ele>1281.4</ele>
        <time>2021-08-19T10:25:42Z</time>
      </trkpt>
      <trkpt lat="46.44217" lon="6.00699">
        <ele>1281.5</ele>
        <time>2021-08-19T10:25:43Z</time>
      </trkpt>
      <trkpt lat="46.44216" lon="6.00696">
        <ele>1281.7</ele>
        <time>2021-08-19T10:25:45Z</time>
      </trkpt>
      <trkpt lat="46.44213" lon="6.00692">
        <ele>1281.9</ele>
        <time>2021-08-19T10:25:46Z</time>
      </trkpt>
      <trkpt lat="46.44212" lon="6.00691">
        <ele>1282</ele>
        <time>2021-08-19T10:25:47Z</time>
      </trkpt>
      <trkpt lat="46.44209" lon="6.00687">
        <ele>1282.2</ele>
        <time>2021-08-19T10:25:48Z</time>
      </trkpt>
      <trkpt lat="46.44206" lon="6.00685">
        <ele>1282.4</ele>
        <time>2021-08-19T10:25:49Z</time>
      </trkpt>
      <trkpt lat="46.44199" lon="6.00683">
        <ele>1282.6</ele>
        <time>2021-08-19T10:25:51Z</time>
      </trkpt>
      <trkpt lat="46.44196" lon="6.00682">
        <ele>1282.6</ele>
        <time>2021-08-19T10:25:52Z</time>
      </trkpt>
      <trkpt lat="46.44193" lon="6.0068">
        <ele>1282.7</ele>
        <time>2021-08-19T10:25:53Z</time>
      </trkpt>
      <trkpt lat="46.44189" lon="6.00678">
        <ele>1282.6</ele>
        <time>2021-08-19T10:25:54Z</time>
      </trkpt>
      <trkpt lat="46.44184" lon="6.00675">
        <ele>1282.5</ele>
        <time>2021-08-19T10:25:56Z</time>
      </trkpt>
      <trkpt lat="46.44181" lon="6.00672">
        <ele>1282.4</ele>
        <time>2021-08-19T10:25:58Z</time>
      </trkpt>
      <trkpt lat="46.44181" lon="6.0067">
        <ele>1282.4</ele>
        <time>2021-08-19T10:25:59Z</time>
      </trkpt>
      <trkpt lat="46.44179" lon="6.00668">
        <ele>1282.3</ele>
        <time>2021-08-19T10:26:00Z</time>
      </trkpt>
      <trkpt lat="46.44177" lon="6.00664">
        <ele>1282.1</ele>
        <time>2021-08-19T10:26:01Z</time>
      </trkpt>
      <trkpt lat="46.44176" lon="6.00662">
        <ele>1282</ele>
        <time>2021-08-19T10:26:02Z</time>
      </trkpt>
      <trkpt lat="46.44171" lon="6.00653">
        <ele>1281.5</ele>
        <time>2021-08-19T10:26:04Z</time>
      </trkpt>
      <trkpt lat="46.44169" lon="6.00649">
        <ele>1281.2</ele>
        <time>2021-08-19T10:26:05Z</time>
      </trkpt>
      <trkpt lat="46.44167" lon="6.00641">
        <ele>1280.7</ele>
        <time>2021-08-19T10:26:06Z</time>
      </trkpt>
      <trkpt lat="46.44161" lon="6.00626">
        <ele>1279.6</ele>
        <time>2021-08-19T10:26:08Z</time>
      </trkpt>
      <trkpt lat="46.44155" lon="6.00606">
        <ele>1278.2</ele>
        <time>2021-08-19T10:26:10Z</time>
      </trkpt>
      <trkpt lat="46.44153" lon="6.00596">
        <ele>1277.6</ele>
        <time>2021-08-19T10:26:11Z</time>
      </trkpt>
      <trkpt lat="46.44151" lon="6.00585">
        <ele>1276.9</ele>
        <time>2021-08-19T10:26:12Z</time>
      </trkpt>
      <trkpt lat="46.44144" lon="6.00564">
        <ele>1275.7</ele>
        <time>2021-08-19T10:26:14Z</time>
      </trkpt>
      <trkpt lat="46.4414" lon="6.00553">
        <ele>1275.2</ele>
        <time>2021-08-19T10:26:15Z</time>
      </trkpt>
      <trkpt lat="46.44132" lon="6.00532">
        <ele>1274.3</ele>
        <time>2021-08-19T10:26:17Z</time>
      </trkpt>
      <trkpt lat="46.44122" lon="6.00514">
        <ele>1273.8</ele>
        <time>2021-08-19T10:26:19Z</time>
      </trkpt>
      <trkpt lat="46.44117" lon="6.00505">
        <ele>1273.8</ele>
        <time>2021-08-19T10:26:20Z</time>
      </trkpt>
      <trkpt lat="46.44107" lon="6.0049">
        <ele>1273.7</ele>
        <time>2021-08-19T10:26:22Z</time>
      </trkpt>
      <trkpt lat="46.44102" lon="6.00483">
        <ele>1273.7</ele>
        <time>2021-08-19T10:26:23Z</time>
      </trkpt>
      <trkpt lat="46.44098" lon="6.00476">
        <ele>1273.7</ele>
        <time>2021-08-19T10:26:24Z</time>
      </trkpt>
      <trkpt lat="46.44089" lon="6.00459">
        <ele>1273.7</ele>
        <time>2021-08-19T10:26:26Z</time>
      </trkpt>
      <trkpt lat="46.44081" lon="6.00442">
        <ele>1273.9</ele>
        <time>2021-08-19T10:26:28Z</time>
      </trkpt>
      <trkpt lat="46.44076" lon="6.00434">
        <ele>1274.1</ele>
        <time>2021-08-19T10:26:29Z</time>
      </trkpt>
      <trkpt lat="46.44072" lon="6.00427">
        <ele>1274.4</ele>
        <time>2021-08-19T10:26:30Z</time>
      </trkpt>
      <trkpt lat="46.44063" lon="6.00415">
        <ele>1275.1</ele>
        <time>2021-08-19T10:26:32Z</time>
      </trkpt>
      <trkpt lat="46.44057" lon="6.00402">
        <ele>1276</ele>
        <time>2021-08-19T10:26:34Z</time>
      </trkpt>
      <trkpt lat="46.44051" lon="6.00391">
        <ele>1276.7</ele>
        <time>2021-08-19T10:26:36Z</time>
      </trkpt>
      <trkpt lat="46.44045" lon="6.00382">
        <ele>1277.3</ele>
        <time>2021-08-19T10:26:38Z</time>
      </trkpt>
      <trkpt lat="46.4404" lon="6.00377">
        <ele>1277.7</ele>
        <time>2021-08-19T10:26:40Z</time>
      </trkpt>
      <trkpt lat="46.44038" lon="6.00374">
        <ele>1277.8</ele>
        <time>2021-08-19T10:26:41Z</time>
      </trkpt>
      <trkpt lat="46.44036" lon="6.00371">
        <ele>1278</ele>
        <time>2021-08-19T10:26:42Z</time>
      </trkpt>
      <trkpt lat="46.44031" lon="6.00368">
        <ele>1278.3</ele>
        <time>2021-08-19T10:26:44Z</time>
      </trkpt>
      <trkpt lat="46.44028" lon="6.00366">
        <ele>1278.6</ele>
        <time>2021-08-19T10:26:45Z</time>
      </trkpt>
      <trkpt lat="46.44028" lon="6.00365">
        <ele>1278.6</ele>
        <time>2021-08-19T10:26:46Z</time>
      </trkpt>
      <trkpt lat="46.4403" lon="6.00362">
        <ele>1278.8</ele>
        <time>2021-08-19T10:26:47Z</time>
      </trkpt>
      <trkpt lat="46.4403" lon="6.0036">
        <ele>1278.9</ele>
        <time>2021-08-19T10:26:48Z</time>
      </trkpt>
      <trkpt lat="46.44026" lon="6.00355">
        <ele>1279.2</ele>
        <time>2021-08-19T10:26:50Z</time>
      </trkpt>
      <trkpt lat="46.44025" lon="6.00353">
        <ele>1279.5</ele>
        <time>2021-08-19T10:26:51Z</time>
      </trkpt>
      <trkpt lat="46.44024" lon="6.00352">
        <ele>1279.6</ele>
        <time>2021-08-19T10:26:52Z</time>
      </trkpt>
      <trkpt lat="46.44023" lon="6.00348">
        <ele>1279.8</ele>
        <time>2021-08-19T10:26:53Z</time>
      </trkpt>
      <trkpt lat="46.44023" lon="6.00346">
        <ele>1279.8</ele>
        <time>2021-08-19T10:26:55Z</time>
      </trkpt>
      <trkpt lat="46.44023" lon="6.00345">
        <ele>1279.9</ele>
        <time>2021-08-19T10:26:56Z</time>
      </trkpt>
      <trkpt lat="46.44022" lon="6.00339">
        <ele>1280.1</ele>
        <time>2021-08-19T10:26:57Z</time>
      </trkpt>
      <trkpt lat="46.44022" lon="6.00337">
        <ele>1280.1</ele>
        <time>2021-08-19T10:26:58Z</time>
      </trkpt>
      <trkpt lat="46.44021" lon="6.00334">
        <ele>1280.2</ele>
        <time>2021-08-19T10:26:59Z</time>
      </trkpt>
      <trkpt lat="46.44019" lon="6.00329">
        <ele>1280.4</ele>
        <time>2021-08-19T10:27:01Z</time>
      </trkpt>
      <trkpt lat="46.44018" lon="6.00325">
        <ele>1280.5</ele>
        <time>2021-08-19T10:27:02Z</time>
      </trkpt>
      <trkpt lat="46.44018" lon="6.00324">
        <ele>1280.6</ele>
        <time>2021-08-19T10:27:03Z</time>
      </trkpt>
      <trkpt lat="46.44016" lon="6.00317">
        <ele>1280.7</ele>
        <time>2021-08-19T10:27:05Z</time>
      </trkpt>
      <trkpt lat="46.44016" lon="6.00315">
        <ele>1280.7</ele>
        <time>2021-08-19T10:27:06Z</time>
      </trkpt>
      <trkpt lat="46.44015" lon="6.00313">
        <ele>1280.8</ele>
        <time>2021-08-19T10:27:07Z</time>
      </trkpt>
      <trkpt lat="46.44012" lon="6.00309">
        <ele>1280.9</ele>
        <time>2021-08-19T10:27:09Z</time>
      </trkpt>
      <trkpt lat="46.44009" lon="6.00304">
        <ele>1281</ele>
        <time>2021-08-19T10:27:10Z</time>
      </trkpt>
      <trkpt lat="46.44007" lon="6.00301">
        <ele>1281</ele>
        <time>2021-08-19T10:27:11Z</time>
      </trkpt>
      <trkpt lat="46.44002" lon="6.00294">
        <ele>1281.1</ele>
        <time>2021-08-19T10:27:13Z</time>
      </trkpt>
      <trkpt lat="46.43999" lon="6.00291">
        <ele>1281.2</ele>
        <time>2021-08-19T10:27:14Z</time>
      </trkpt>
      <trkpt lat="46.43996" lon="6.00286">
        <ele>1281.3</ele>
        <time>2021-08-19T10:27:16Z</time>
      </trkpt>
      <trkpt lat="46.43992" lon="6.0028">
        <ele>1281.4</ele>
        <time>2021-08-19T10:27:17Z</time>
      </trkpt>
      <trkpt lat="46.43989" lon="6.00278">
        <ele>1281.5</ele>
        <time>2021-08-19T10:27:18Z</time>
      </trkpt>
      <trkpt lat="46.43983" lon="6.00273">
        <ele>1281.7</ele>
        <time>2021-08-19T10:27:20Z</time>
      </trkpt>
      <trkpt lat="46.43979" lon="6.0027">
        <ele>1281.9</ele>
        <time>2021-08-19T10:27:22Z</time>
      </trkpt>
      <trkpt lat="46.43976" lon="6.00267">
        <ele>1282.1</ele>
        <time>2021-08-19T10:27:23Z</time>
      </trkpt>
      <trkpt lat="46.43974" lon="6.00264">
        <ele>1282.2</ele>
        <time>2021-08-19T10:27:24Z</time>
      </trkpt>
      <trkpt lat="46.43972" lon="6.0026">
        <ele>1282.4</ele>
        <time>2021-08-19T10:27:26Z</time>
      </trkpt>
      <trkpt lat="46.43969" lon="6.00257">
        <ele>1282.6</ele>
        <time>2021-08-19T10:27:27Z</time>
      </trkpt>
      <trkpt lat="46.43968" lon="6.00255">
        <ele>1282.7</ele>
        <time>2021-08-19T10:27:28Z</time>
      </trkpt>
      <trkpt lat="46.43965" lon="6.00252">
        <ele>1282.9</ele>
        <time>2021-08-19T10:27:30Z</time>
      </trkpt>
      <trkpt lat="46.43963" lon="6.00247">
        <ele>1283.1</ele>
        <time>2021-08-19T10:27:31Z</time>
      </trkpt>
      <trkpt lat="46.43963" lon="6.00246">
        <ele>1283.1</ele>
        <time>2021-08-19T10:27:32Z</time>
      </trkpt>
      <trkpt lat="46.43962" lon="6.00241">
        <ele>1283.3</ele>
        <time>2021-08-19T10:27:33Z</time>
      </trkpt>
      <trkpt lat="46.43961" lon="6.00234">
        <ele>1283.6</ele>
        <time>2021-08-19T10:27:35Z</time>
      </trkpt>
      <trkpt lat="46.43961" lon="6.00232">
        <ele>1283.7</ele>
        <time>2021-08-19T10:27:36Z</time>
      </trkpt>
      <trkpt lat="46.43961" lon="6.0023">
        <ele>1283.7</ele>
        <time>2021-08-19T10:27:37Z</time>
      </trkpt>
      <trkpt lat="46.43961" lon="6.00226">
        <ele>1283.9</ele>
        <time>2021-08-19T10:27:38Z</time>
      </trkpt>
      <trkpt lat="46.43961" lon="6.00224">
        <ele>1283.9</ele>
        <time>2021-08-19T10:27:39Z</time>
      </trkpt>
      <trkpt lat="46.43958" lon="6.0022">
        <ele>1284.1</ele>
        <time>2021-08-19T10:27:40Z</time>
      </trkpt>
      <trkpt lat="46.43957" lon="6.0022">
        <ele>1284.2</ele>
        <time>2021-08-19T10:27:41Z</time>
      </trkpt>
      <trkpt lat="46.43955" lon="6.00219">
        <ele>1284.2</ele>
        <time>2021-08-19T10:27:42Z</time>
      </trkpt>
      <trkpt lat="46.43953" lon="6.00217">
        <ele>1284.3</ele>
        <time>2021-08-19T10:27:44Z</time>
      </trkpt>
      <trkpt lat="46.4395" lon="6.00213">
        <ele>1284.5</ele>
        <time>2021-08-19T10:27:45Z</time>
      </trkpt>
      <trkpt lat="46.43948" lon="6.0021">
        <ele>1284.5</ele>
        <time>2021-08-19T10:27:46Z</time>
      </trkpt>
      <trkpt lat="46.43946" lon="6.00207">
        <ele>1284.6</ele>
        <time>2021-08-19T10:27:48Z</time>
      </trkpt>
      <trkpt lat="46.43943" lon="6.00204">
        <ele>1284.7</ele>
        <time>2021-08-19T10:27:49Z</time>
      </trkpt>
      <trkpt lat="46.43941" lon="6.00201">
        <ele>1284.8</ele>
        <time>2021-08-19T10:27:50Z</time>
      </trkpt>
      <trkpt lat="46.43938" lon="6.00196">
        <ele>1284.9</ele>
        <time>2021-08-19T10:27:51Z</time>
      </trkpt>
      <trkpt lat="46.43933" lon="6.00192">
        <ele>1284.9</ele>
        <time>2021-08-19T10:27:53Z</time>
      </trkpt>
      <trkpt lat="46.4393" lon="6.0019">
        <ele>1285</ele>
        <time>2021-08-19T10:27:54Z</time>
      </trkpt>
      <trkpt lat="46.43927" lon="6.00189">
        <ele>1285</ele>
        <time>2021-08-19T10:27:55Z</time>
      </trkpt>
      <trkpt lat="46.4392" lon="6.00184">
        <ele>1285.1</ele>
        <time>2021-08-19T10:27:57Z</time>
      </trkpt>
      <trkpt lat="46.43914" lon="6.00181">
        <ele>1285.2</ele>
        <time>2021-08-19T10:27:59Z</time>
      </trkpt>
      <trkpt lat="46.4391" lon="6.00179">
        <ele>1285.2</ele>
        <time>2021-08-19T10:28:00Z</time>
      </trkpt>
      <trkpt lat="46.43905" lon="6.00178">
        <ele>1285.3</ele>
        <time>2021-08-19T10:28:02Z</time>
      </trkpt>
      <trkpt lat="46.43901" lon="6.00175">
        <ele>1285.3</ele>
        <time>2021-08-19T10:28:03Z</time>
      </trkpt>
      <trkpt lat="46.43898" lon="6.00172">
        <ele>1285.3</ele>
        <time>2021-08-19T10:28:04Z</time>
      </trkpt>
      <trkpt lat="46.43895" lon="6.00169">
        <ele>1285.3</ele>
        <time>2021-08-19T10:28:05Z</time>
      </trkpt>
      <trkpt lat="46.43892" lon="6.00166">
        <ele>1285.2</ele>
        <time>2021-08-19T10:28:06Z</time>
      </trkpt>
      <trkpt lat="46.43889" lon="6.00163">
        <ele>1285.2</ele>
        <time>2021-08-19T10:28:07Z</time>
      </trkpt>
      <trkpt lat="46.43887" lon="6.0016">
        <ele>1285.2</ele>
        <time>2021-08-19T10:28:08Z</time>
      </trkpt>
      <trkpt lat="46.43882" lon="6.00154">
        <ele>1285</ele>
        <time>2021-08-19T10:28:10Z</time>
      </trkpt>
      <trkpt lat="46.43878" lon="6.00151">
        <ele>1284.9</ele>
        <time>2021-08-19T10:28:11Z</time>
      </trkpt>
      <trkpt lat="46.43874" lon="6.00147">
        <ele>1284.7</ele>
        <time>2021-08-19T10:28:12Z</time>
      </trkpt>
      <trkpt lat="46.43866" lon="6.00142">
        <ele>1284.4</ele>
        <time>2021-08-19T10:28:13Z</time>
      </trkpt>
      <trkpt lat="46.43855" lon="6.00134">
        <ele>1283.7</ele>
        <time>2021-08-19T10:28:15Z</time>
      </trkpt>
      <trkpt lat="46.43849" lon="6.0013">
        <ele>1283.4</ele>
        <time>2021-08-19T10:28:16Z</time>
      </trkpt>
      <trkpt lat="46.43844" lon="6.00126">
        <ele>1283</ele>
        <time>2021-08-19T10:28:17Z</time>
      </trkpt>
      <trkpt lat="46.43834" lon="6.00115">
        <ele>1282.3</ele>
        <time>2021-08-19T10:28:19Z</time>
      </trkpt>
      <trkpt lat="46.4383" lon="6.00108">
        <ele>1282</ele>
        <time>2021-08-19T10:28:20Z</time>
      </trkpt>
      <trkpt lat="46.43818" lon="6.00092">
        <ele>1281.4</ele>
        <time>2021-08-19T10:28:22Z</time>
      </trkpt>
      <trkpt lat="46.43813" lon="6.00084">
        <ele>1281.2</ele>
        <time>2021-08-19T10:28:23Z</time>
      </trkpt>
      <trkpt lat="46.43807" lon="6.00075">
        <ele>1281.1</ele>
        <time>2021-08-19T10:28:24Z</time>
      </trkpt>
      <trkpt lat="46.43796" lon="6.00059">
        <ele>1280.9</ele>
        <time>2021-08-19T10:28:26Z</time>
      </trkpt>
      <trkpt lat="46.43791" lon="6.00052">
        <ele>1280.8</ele>
        <time>2021-08-19T10:28:27Z</time>
      </trkpt>
      <trkpt lat="46.4378" lon="6.00035">
        <ele>1280.6</ele>
        <time>2021-08-19T10:28:29Z</time>
      </trkpt>
      <trkpt lat="46.43775" lon="6.00027">
        <ele>1280.5</ele>
        <time>2021-08-19T10:28:30Z</time>
      </trkpt>
      <trkpt lat="46.43765" lon="6.00013">
        <ele>1280.2</ele>
        <time>2021-08-19T10:28:32Z</time>
      </trkpt>
      <trkpt lat="46.43753" lon="6.00002">
        <ele>1279.9</ele>
        <time>2021-08-19T10:28:34Z</time>
      </trkpt>
      <trkpt lat="46.43741" lon="5.99991">
        <ele>1279.5</ele>
        <time>2021-08-19T10:28:36Z</time>
      </trkpt>
      <trkpt lat="46.43727" lon="5.99979">
        <ele>1279.1</ele>
        <time>2021-08-19T10:28:38Z</time>
      </trkpt>
      <trkpt lat="46.43713" lon="5.99968">
        <ele>1278.8</ele>
        <time>2021-08-19T10:28:40Z</time>
      </trkpt>
      <trkpt lat="46.437" lon="5.99956">
        <ele>1278.6</ele>
        <time>2021-08-19T10:28:42Z</time>
      </trkpt>
      <trkpt lat="46.43695" lon="5.99948">
        <ele>1278.5</ele>
        <time>2021-08-19T10:28:44Z</time>
      </trkpt>
      <trkpt lat="46.43691" lon="5.99943">
        <ele>1278.4</ele>
        <time>2021-08-19T10:28:45Z</time>
      </trkpt>
      <trkpt lat="46.4368" lon="5.99932">
        <ele>1278.2</ele>
        <time>2021-08-19T10:28:47Z</time>
      </trkpt>
      <trkpt lat="46.43674" lon="5.99926">
        <ele>1278.1</ele>
        <time>2021-08-19T10:28:48Z</time>
      </trkpt>
      <trkpt lat="46.43664" lon="5.99916">
        <ele>1278.1</ele>
        <time>2021-08-19T10:28:50Z</time>
      </trkpt>
      <trkpt lat="46.43663" lon="5.99916">
        <ele>1278.1</ele>
        <time>2021-08-19T10:28:52Z</time>
      </trkpt>
      <trkpt lat="46.43647" lon="5.9989">
        <ele>1278.4</ele>
        <time>2021-08-19T10:29:00Z</time>
      </trkpt>
      <trkpt lat="46.43648" lon="5.99887">
        <ele>1278.4</ele>
        <time>2021-08-19T10:29:01Z</time>
      </trkpt>
      <trkpt lat="46.43644" lon="5.99875">
        <ele>1278.6</ele>
        <time>2021-08-19T10:29:03Z</time>
      </trkpt>
      <trkpt lat="46.4364" lon="5.99863">
        <ele>1278.7</ele>
        <time>2021-08-19T10:29:05Z</time>
      </trkpt>
      <trkpt lat="46.43637" lon="5.99854">
        <ele>1278.7</ele>
        <time>2021-08-19T10:29:07Z</time>
      </trkpt>
      <trkpt lat="46.43636" lon="5.9985">
        <ele>1278.8</ele>
        <time>2021-08-19T10:29:08Z</time>
      </trkpt>
      <trkpt lat="46.43634" lon="5.99845">
        <ele>1278.8</ele>
        <time>2021-08-19T10:29:10Z</time>
      </trkpt>
      <trkpt lat="46.43634" lon="5.99843">
        <ele>1278.8</ele>
        <time>2021-08-19T10:29:11Z</time>
      </trkpt>
      <trkpt lat="46.43634" lon="5.99842">
        <ele>1278.8</ele>
        <time>2021-08-19T10:29:12Z</time>
      </trkpt>
      <trkpt lat="46.43634" lon="5.99842">
        <ele>1278.8</ele>
        <time>2021-08-19T10:29:13Z</time>
      </trkpt>
      <trkpt lat="46.43634" lon="5.99841">
        <ele>1278.8</ele>
        <time>2021-08-19T10:29:15Z</time>
      </trkpt>
      <trkpt lat="46.43634" lon="5.99841">
        <ele>1278.8</ele>
        <time>2021-08-19T10:29:17Z</time>
      </trkpt>
      <trkpt lat="46.43625" lon="5.99854">
        <ele>1278.9</ele>
        <time>2021-08-19T10:29:31Z</time>
      </trkpt>
      <trkpt lat="46.43622" lon="5.99858">
        <ele>1278.9</ele>
        <time>2021-08-19T10:29:32Z</time>
      </trkpt>
      <trkpt lat="46.43619" lon="5.99861">
        <ele>1279</ele>
        <time>2021-08-19T10:29:33Z</time>
      </trkpt>
      <trkpt lat="46.43614" lon="5.99865">
        <ele>1279.1</ele>
        <time>2021-08-19T10:29:35Z</time>
      </trkpt>
      <trkpt lat="46.43609" lon="5.99869">
        <ele>1279.2</ele>
        <time>2021-08-19T10:29:36Z</time>
      </trkpt>
      <trkpt lat="46.43603" lon="5.9987">
        <ele>1279.3</ele>
        <time>2021-08-19T10:29:38Z</time>
      </trkpt>
      <trkpt lat="46.436" lon="5.99871">
        <ele>1279.3</ele>
        <time>2021-08-19T10:29:39Z</time>
      </trkpt>
      <trkpt lat="46.43596" lon="5.99869">
        <ele>1279.4</ele>
        <time>2021-08-19T10:29:40Z</time>
      </trkpt>
      <trkpt lat="46.43593" lon="5.99867">
        <ele>1279.5</ele>
        <time>2021-08-19T10:29:41Z</time>
      </trkpt>
      <trkpt lat="46.4359" lon="5.99866">
        <ele>1279.4</ele>
        <time>2021-08-19T10:29:42Z</time>
      </trkpt>
      <trkpt lat="46.43583" lon="5.99863">
        <ele>1279.4</ele>
        <time>2021-08-19T10:29:44Z</time>
      </trkpt>
      <trkpt lat="46.43576" lon="5.99852">
        <ele>1279.2</ele>
        <time>2021-08-19T10:29:46Z</time>
      </trkpt>
      <trkpt lat="46.43572" lon="5.99845">
        <ele>1279.2</ele>
        <time>2021-08-19T10:29:48Z</time>
      </trkpt>
      <trkpt lat="46.4357" lon="5.9984">
        <ele>1279.2</ele>
        <time>2021-08-19T10:29:49Z</time>
      </trkpt>
      <trkpt lat="46.43569" lon="5.99838">
        <ele>1279.2</ele>
        <time>2021-08-19T10:29:50Z</time>
      </trkpt>
      <trkpt lat="46.43575" lon="5.99836">
        <ele>1279.2</ele>
        <time>2021-08-19T10:29:52Z</time>
      </trkpt>
      <trkpt lat="46.43576" lon="5.99835">
        <ele>1279.2</ele>
        <time>2021-08-19T10:29:53Z</time>
      </trkpt>
      <trkpt lat="46.43576" lon="5.99835">
        <ele>1279.2</ele>
        <time>2021-08-19T10:29:54Z</time>
      </trkpt>
      <trkpt lat="46.43577" lon="5.99835">
        <ele>1279.3</ele>
        <time>2021-08-19T10:29:55Z</time>
      </trkpt>
      <trkpt lat="46.43577" lon="5.99835">
        <ele>1279.3</ele>
        <time>2021-08-19T10:29:57Z</time>
      </trkpt>
      <trkpt lat="46.43577" lon="5.99835">
        <ele>1279.3</ele>
        <time>2021-08-19T10:29:59Z</time>
      </trkpt>
      <trkpt lat="46.43577" lon="5.99836">
        <ele>1279.3</ele>
        <time>2021-08-19T10:30:00Z</time>
      </trkpt>
      <trkpt lat="46.43567" lon="5.99843">
        <ele>1279.7</ele>
        <time>2021-08-19T10:30:12Z</time>
      </trkpt>
      <trkpt lat="46.43563" lon="5.99841">
        <ele>1279.9</ele>
        <time>2021-08-19T10:30:13Z</time>
      </trkpt>
      <trkpt lat="46.43557" lon="5.99839">
        <ele>1280.1</ele>
        <time>2021-08-19T10:30:15Z</time>
      </trkpt>
      <trkpt lat="46.43556" lon="5.99839">
        <ele>1280.2</ele>
        <time>2021-08-19T10:30:16Z</time>
      </trkpt>
      <trkpt lat="46.43556" lon="5.9984">
        <ele>1280.2</ele>
        <time>2021-08-19T10:30:17Z</time>
      </trkpt>
      <trkpt lat="46.43553" lon="5.99841">
        <ele>1280.3</ele>
        <time>2021-08-19T10:30:19Z</time>
      </trkpt>
      <trkpt lat="46.43552" lon="5.99842">
        <ele>1280.3</ele>
        <time>2021-08-19T10:30:20Z</time>
      </trkpt>
      <trkpt lat="46.43551" lon="5.99843">
        <ele>1280.4</ele>
        <time>2021-08-19T10:30:21Z</time>
      </trkpt>
      <trkpt lat="46.4355" lon="5.99844">
        <ele>1280.4</ele>
        <time>2021-08-19T10:30:22Z</time>
      </trkpt>
      <trkpt lat="46.43548" lon="5.99847">
        <ele>1280.4</ele>
        <time>2021-08-19T10:30:24Z</time>
      </trkpt>
      <trkpt lat="46.43545" lon="5.99849">
        <ele>1280.5</ele>
        <time>2021-08-19T10:30:25Z</time>
      </trkpt>
      <trkpt lat="46.43542" lon="5.99851">
        <ele>1280.6</ele>
        <time>2021-08-19T10:30:27Z</time>
      </trkpt>
      <trkpt lat="46.43538" lon="5.99851">
        <ele>1280.6</ele>
        <time>2021-08-19T10:30:28Z</time>
      </trkpt>
      <trkpt lat="46.43537" lon="5.99852">
        <ele>1280.6</ele>
        <time>2021-08-19T10:30:29Z</time>
      </trkpt>
      <trkpt lat="46.43534" lon="5.99852">
        <ele>1280.6</ele>
        <time>2021-08-19T10:30:30Z</time>
      </trkpt>
      <trkpt lat="46.4353" lon="5.99853">
        <ele>1280.7</ele>
        <time>2021-08-19T10:30:32Z</time>
      </trkpt>
      <trkpt lat="46.43527" lon="5.99856">
        <ele>1280.7</ele>
        <time>2021-08-19T10:30:33Z</time>
      </trkpt>
      <trkpt lat="46.43525" lon="5.99859">
        <ele>1280.8</ele>
        <time>2021-08-19T10:30:34Z</time>
      </trkpt>
      <trkpt lat="46.43524" lon="5.9986">
        <ele>1280.8</ele>
        <time>2021-08-19T10:30:35Z</time>
      </trkpt>
      <trkpt lat="46.43522" lon="5.99862">
        <ele>1280.9</ele>
        <time>2021-08-19T10:30:36Z</time>
      </trkpt>
      <trkpt lat="46.43518" lon="5.99865">
        <ele>1281</ele>
        <time>2021-08-19T10:30:38Z</time>
      </trkpt>
      <trkpt lat="46.43516" lon="5.99867">
        <ele>1281.1</ele>
        <time>2021-08-19T10:30:40Z</time>
      </trkpt>
      <trkpt lat="46.43514" lon="5.99868">
        <ele>1281.1</ele>
        <time>2021-08-19T10:30:41Z</time>
      </trkpt>
      <trkpt lat="46.43513" lon="5.99868">
        <ele>1281.2</ele>
        <time>2021-08-19T10:30:42Z</time>
      </trkpt>
      <trkpt lat="46.43511" lon="5.99868">
        <ele>1281.2</ele>
        <time>2021-08-19T10:30:43Z</time>
      </trkpt>
      <trkpt lat="46.43507" lon="5.9987">
        <ele>1281.4</ele>
        <time>2021-08-19T10:30:45Z</time>
      </trkpt>
      <trkpt lat="46.43503" lon="5.9987">
        <ele>1281.5</ele>
        <time>2021-08-19T10:30:46Z</time>
      </trkpt>
      <trkpt lat="46.43499" lon="5.99868">
        <ele>1281.7</ele>
        <time>2021-08-19T10:30:47Z</time>
      </trkpt>
      <trkpt lat="46.43496" lon="5.99866">
        <ele>1281.8</ele>
        <time>2021-08-19T10:30:48Z</time>
      </trkpt>
      <trkpt lat="46.4349" lon="5.99861">
        <ele>1282</ele>
        <time>2021-08-19T10:30:50Z</time>
      </trkpt>
      <trkpt lat="46.43488" lon="5.99855">
        <ele>1282.2</ele>
        <time>2021-08-19T10:30:51Z</time>
      </trkpt>
      <trkpt lat="46.43485" lon="5.99851">
        <ele>1282.3</ele>
        <time>2021-08-19T10:30:52Z</time>
      </trkpt>
      <trkpt lat="46.43484" lon="5.99849">
        <ele>1282.4</ele>
        <time>2021-08-19T10:30:53Z</time>
      </trkpt>
      <trkpt lat="46.43481" lon="5.99843">
        <ele>1282.5</ele>
        <time>2021-08-19T10:30:55Z</time>
      </trkpt>
      <trkpt lat="46.4348" lon="5.99838">
        <ele>1282.6</ele>
        <time>2021-08-19T10:30:56Z</time>
      </trkpt>
      <trkpt lat="46.43477" lon="5.99829">
        <ele>1282.8</ele>
        <time>2021-08-19T10:30:58Z</time>
      </trkpt>
      <trkpt lat="46.43475" lon="5.99826">
        <ele>1282.9</ele>
        <time>2021-08-19T10:30:59Z</time>
      </trkpt>
      <trkpt lat="46.43474" lon="5.99825">
        <ele>1282.9</ele>
        <time>2021-08-19T10:31:00Z</time>
      </trkpt>
      <trkpt lat="46.43472" lon="5.99823">
        <ele>1282.9</ele>
        <time>2021-08-19T10:31:02Z</time>
      </trkpt>
      <trkpt lat="46.43471" lon="5.99825">
        <ele>1283</ele>
        <time>2021-08-19T10:31:04Z</time>
      </trkpt>
      <trkpt lat="46.43469" lon="5.99826">
        <ele>1283</ele>
        <time>2021-08-19T10:31:05Z</time>
      </trkpt>
      <trkpt lat="46.43467" lon="5.99825">
        <ele>1283.1</ele>
        <time>2021-08-19T10:31:06Z</time>
      </trkpt>
      <trkpt lat="46.43464" lon="5.99822">
        <ele>1283.1</ele>
        <time>2021-08-19T10:31:08Z</time>
      </trkpt>
      <trkpt lat="46.43465" lon="5.99821">
        <ele>1283.2</ele>
        <time>2021-08-19T10:31:09Z</time>
      </trkpt>
      <trkpt lat="46.43467" lon="5.9982">
        <ele>1283.2</ele>
        <time>2021-08-19T10:31:10Z</time>
      </trkpt>
      <trkpt lat="46.43467" lon="5.99819">
        <ele>1283.2</ele>
        <time>2021-08-19T10:31:12Z</time>
      </trkpt>
      <trkpt lat="46.43467" lon="5.99819">
        <ele>1283.3</ele>
        <time>2021-08-19T10:31:13Z</time>
      </trkpt>
      <trkpt lat="46.43468" lon="5.99817">
        <ele>1283.3</ele>
        <time>2021-08-19T10:31:15Z</time>
      </trkpt>
      <trkpt lat="46.43468" lon="5.99814">
        <ele>1283.3</ele>
        <time>2021-08-19T10:31:17Z</time>
      </trkpt>
      <trkpt lat="46.43468" lon="5.99814">
        <ele>1283.4</ele>
        <time>2021-08-19T10:31:18Z</time>
      </trkpt>
      <trkpt lat="46.43465" lon="5.99813">
        <ele>1283.4</ele>
        <time>2021-08-19T10:31:20Z</time>
      </trkpt>
      <trkpt lat="46.43378" lon="5.99892">
        <ele>1292.3</ele>
        <time>2021-08-19T10:33:18Z</time>
      </trkpt>
      <trkpt lat="46.43377" lon="5.99893">
        <ele>1292.6</ele>
        <time>2021-08-19T10:33:19Z</time>
      </trkpt>
      <trkpt lat="46.43376" lon="5.99893">
        <ele>1292.7</ele>
        <time>2021-08-19T10:33:20Z</time>
      </trkpt>
      <trkpt lat="46.43376" lon="5.99893">
        <ele>1292.7</ele>
        <time>2021-08-19T10:33:22Z</time>
      </trkpt>
      <trkpt lat="46.43375" lon="5.99893">
        <ele>1292.8</ele>
        <time>2021-08-19T10:33:23Z</time>
      </trkpt>
      <trkpt lat="46.43375" lon="5.99894">
        <ele>1292.8</ele>
        <time>2021-08-19T10:33:24Z</time>
      </trkpt>
      <trkpt lat="46.43375" lon="5.99894">
        <ele>1292.8</ele>
        <time>2021-08-19T10:33:26Z</time>
      </trkpt>
      <trkpt lat="46.43375" lon="5.99894">
        <ele>1292.9</ele>
        <time>2021-08-19T10:33:27Z</time>
      </trkpt>
      <trkpt lat="46.43376" lon="5.99894">
        <ele>1292.9</ele>
        <time>2021-08-19T10:33:28Z</time>
      </trkpt>
      <trkpt lat="46.43376" lon="5.99894">
        <ele>1292.9</ele>
        <time>2021-08-19T10:33:29Z</time>
      </trkpt>
      <trkpt lat="46.43376" lon="5.99894">
        <ele>1293</ele>
        <time>2021-08-19T10:33:31Z</time>
      </trkpt>
      <trkpt lat="46.43377" lon="5.99895">
        <ele>1293.1</ele>
        <time>2021-08-19T10:33:32Z</time>
      </trkpt>
      <trkpt lat="46.43378" lon="5.99896">
        <ele>1293.3</ele>
        <time>2021-08-19T10:33:33Z</time>
      </trkpt>
      <trkpt lat="46.43379" lon="5.99897">
        <ele>1293.4</ele>
        <time>2021-08-19T10:33:35Z</time>
      </trkpt>
      <trkpt lat="46.4338" lon="5.99898">
        <ele>1293.6</ele>
        <time>2021-08-19T10:33:37Z</time>
      </trkpt>
      <trkpt lat="46.4338" lon="5.99898">
        <ele>1293.7</ele>
        <time>2021-08-19T10:33:38Z</time>
      </trkpt>
      <trkpt lat="46.4338" lon="5.99899">
        <ele>1293.7</ele>
        <time>2021-08-19T10:33:40Z</time>
      </trkpt>
      <trkpt lat="46.4338" lon="5.999">
        <ele>1293.8</ele>
        <time>2021-08-19T10:33:42Z</time>
      </trkpt>
      <trkpt lat="46.4338" lon="5.99902">
        <ele>1294.1</ele>
        <time>2021-08-19T10:33:43Z</time>
      </trkpt>
      <trkpt lat="46.4338" lon="5.99906">
        <ele>1294.5</ele>
        <time>2021-08-19T10:33:45Z</time>
      </trkpt>
      <trkpt lat="46.43379" lon="5.99909">
        <ele>1294.7</ele>
        <time>2021-08-19T10:33:46Z</time>
      </trkpt>
      <trkpt lat="46.43379" lon="5.99911">
        <ele>1294.9</ele>
        <time>2021-08-19T10:33:48Z</time>
      </trkpt>
      <trkpt lat="46.43378" lon="5.99912">
        <ele>1295</ele>
        <time>2021-08-19T10:33:49Z</time>
      </trkpt>
      <trkpt lat="46.43378" lon="5.99913">
        <ele>1295.1</ele>
        <time>2021-08-19T10:33:50Z</time>
      </trkpt>
      <trkpt lat="46.43377" lon="5.99914">
        <ele>1295.2</ele>
        <time>2021-08-19T10:33:52Z</time>
      </trkpt>
      <trkpt lat="46.43377" lon="5.99915">
        <ele>1295.3</ele>
        <time>2021-08-19T10:33:53Z</time>
      </trkpt>
      <trkpt lat="46.43377" lon="5.99915">
        <ele>1295.3</ele>
        <time>2021-08-19T10:33:54Z</time>
      </trkpt>
      <trkpt lat="46.43376" lon="5.99916">
        <ele>1295.4</ele>
        <time>2021-08-19T10:33:56Z</time>
      </trkpt>
      <trkpt lat="46.43376" lon="5.99916">
        <ele>1295.4</ele>
        <time>2021-08-19T10:33:57Z</time>
      </trkpt>
      <trkpt lat="46.43376" lon="5.99916">
        <ele>1295.5</ele>
        <time>2021-08-19T10:33:58Z</time>
      </trkpt>
      <trkpt lat="46.43376" lon="5.99917">
        <ele>1295.5</ele>
        <time>2021-08-19T10:34:00Z</time>
      </trkpt>
      <trkpt lat="46.43376" lon="5.99917">
        <ele>1295.5</ele>
        <time>2021-08-19T10:34:01Z</time>
      </trkpt>
      <trkpt lat="46.43376" lon="5.99919">
        <ele>1295.7</ele>
        <time>2021-08-19T10:34:03Z</time>
      </trkpt>
      <trkpt lat="46.43376" lon="5.99922">
        <ele>1295.9</ele>
        <time>2021-08-19T10:34:04Z</time>
      </trkpt>
      <trkpt lat="46.43375" lon="5.99925">
        <ele>1296.1</ele>
        <time>2021-08-19T10:34:06Z</time>
      </trkpt>
      <trkpt lat="46.43375" lon="5.99926">
        <ele>1296.2</ele>
        <time>2021-08-19T10:34:07Z</time>
      </trkpt>
      <trkpt lat="46.43375" lon="5.99928">
        <ele>1296.3</ele>
        <time>2021-08-19T10:34:09Z</time>
      </trkpt>
      <trkpt lat="46.43375" lon="5.99929">
        <ele>1296.3</ele>
        <time>2021-08-19T10:34:10Z</time>
      </trkpt>
      <trkpt lat="46.43374" lon="5.99931">
        <ele>1296.4</ele>
        <time>2021-08-19T10:34:11Z</time>
      </trkpt>
      <trkpt lat="46.43373" lon="5.99932">
        <ele>1296.6</ele>
        <time>2021-08-19T10:34:13Z</time>
      </trkpt>
      <trkpt lat="46.43373" lon="5.99933">
        <ele>1296.6</ele>
        <time>2021-08-19T10:34:14Z</time>
      </trkpt>
      <trkpt lat="46.43371" lon="5.99933">
        <ele>1296.7</ele>
        <time>2021-08-19T10:34:16Z</time>
      </trkpt>
      <trkpt lat="46.4337" lon="5.99933">
        <ele>1296.8</ele>
        <time>2021-08-19T10:34:17Z</time>
      </trkpt>
      <trkpt lat="46.43369" lon="5.99933">
        <ele>1296.9</ele>
        <time>2021-08-19T10:34:19Z</time>
      </trkpt>
      <trkpt lat="46.43368" lon="5.99933">
        <ele>1296.9</ele>
        <time>2021-08-19T10:34:20Z</time>
      </trkpt>
      <trkpt lat="46.43367" lon="5.99933">
        <ele>1297</ele>
        <time>2021-08-19T10:34:21Z</time>
      </trkpt>
      <trkpt lat="46.43364" lon="5.99932">
        <ele>1297.1</ele>
        <time>2021-08-19T10:34:23Z</time>
      </trkpt>
      <trkpt lat="46.43363" lon="5.99931">
        <ele>1297.2</ele>
        <time>2021-08-19T10:34:24Z</time>
      </trkpt>
      <trkpt lat="46.43362" lon="5.9993">
        <ele>1297.3</ele>
        <time>2021-08-19T10:34:25Z</time>
      </trkpt>
      <trkpt lat="46.43358" lon="5.99927">
        <ele>1297.4</ele>
        <time>2021-08-19T10:34:27Z</time>
      </trkpt>
      <trkpt lat="46.43355" lon="5.99925">
        <ele>1297.6</ele>
        <time>2021-08-19T10:34:28Z</time>
      </trkpt>
      <trkpt lat="46.43352" lon="5.99923">
        <ele>1297.7</ele>
        <time>2021-08-19T10:34:29Z</time>
      </trkpt>
      <trkpt lat="46.43352" lon="5.99923">
        <ele>1297.7</ele>
        <time>2021-08-19T10:34:30Z</time>
      </trkpt>
      <trkpt lat="46.43349" lon="5.9992">
        <ele>1297.8</ele>
        <time>2021-08-19T10:34:32Z</time>
      </trkpt>
      <trkpt lat="46.43349" lon="5.99919">
        <ele>1297.8</ele>
        <time>2021-08-19T10:34:34Z</time>
      </trkpt>
      <trkpt lat="46.4335" lon="5.99919">
        <ele>1297.8</ele>
        <time>2021-08-19T10:34:35Z</time>
      </trkpt>
      <trkpt lat="46.4335" lon="5.99919">
        <ele>1297.8</ele>
        <time>2021-08-19T10:34:36Z</time>
      </trkpt>
      <trkpt lat="46.4335" lon="5.99919">
        <ele>1297.8</ele>
        <time>2021-08-19T10:34:37Z</time>
      </trkpt>
      <trkpt lat="46.4335" lon="5.99918">
        <ele>1297.8</ele>
        <time>2021-08-19T10:34:38Z</time>
      </trkpt>
      <trkpt lat="46.4335" lon="5.99918">
        <ele>1297.8</ele>
        <time>2021-08-19T10:34:40Z</time>
      </trkpt>
      <trkpt lat="46.4335" lon="5.99918">
        <ele>1297.8</ele>
        <time>2021-08-19T10:34:41Z</time>
      </trkpt>
      <trkpt lat="46.43349" lon="5.99918">
        <ele>1297.9</ele>
        <time>2021-08-19T10:34:42Z</time>
      </trkpt>
      <trkpt lat="46.43343" lon="5.99913">
        <ele>1298</ele>
        <time>2021-08-19T10:34:47Z</time>
      </trkpt>
      <trkpt lat="46.43339" lon="5.99911">
        <ele>1298.1</ele>
        <time>2021-08-19T10:34:49Z</time>
      </trkpt>
      <trkpt lat="46.43338" lon="5.9991">
        <ele>1298.1</ele>
        <time>2021-08-19T10:34:50Z</time>
      </trkpt>
      <trkpt lat="46.43337" lon="5.99909">
        <ele>1298.1</ele>
        <time>2021-08-19T10:34:52Z</time>
      </trkpt>
      <trkpt lat="46.43337" lon="5.99909">
        <ele>1298.1</ele>
        <time>2021-08-19T10:34:53Z</time>
      </trkpt>
      <trkpt lat="46.43336" lon="5.99909">
        <ele>1298.1</ele>
        <time>2021-08-19T10:34:54Z</time>
      </trkpt>
      <trkpt lat="46.43336" lon="5.99909">
        <ele>1298.1</ele>
        <time>2021-08-19T10:34:55Z</time>
      </trkpt>
      <trkpt lat="46.43335" lon="5.99909">
        <ele>1298.1</ele>
        <time>2021-08-19T10:34:56Z</time>
      </trkpt>
      <trkpt lat="46.43335" lon="5.99909">
        <ele>1298.1</ele>
        <time>2021-08-19T10:34:58Z</time>
      </trkpt>
      <trkpt lat="46.43335" lon="5.99909">
        <ele>1298.1</ele>
        <time>2021-08-19T10:34:59Z</time>
      </trkpt>
      <trkpt lat="46.43335" lon="5.99909">
        <ele>1298.1</ele>
        <time>2021-08-19T10:35:01Z</time>
      </trkpt>
      <trkpt lat="46.43334" lon="5.99909">
        <ele>1298.1</ele>
        <time>2021-08-19T10:35:02Z</time>
      </trkpt>
      <trkpt lat="46.43334" lon="5.99908">
        <ele>1298.1</ele>
        <time>2021-08-19T10:35:03Z</time>
      </trkpt>
      <trkpt lat="46.43334" lon="5.99908">
        <ele>1298.1</ele>
        <time>2021-08-19T10:35:04Z</time>
      </trkpt>
      <trkpt lat="46.43334" lon="5.99909">
        <ele>1298.1</ele>
        <time>2021-08-19T10:35:05Z</time>
      </trkpt>
      <trkpt lat="46.43334" lon="5.99909">
        <ele>1298.1</ele>
        <time>2021-08-19T10:35:07Z</time>
      </trkpt>
      <trkpt lat="46.43334" lon="5.99909">
        <ele>1298.1</ele>
        <time>2021-08-19T10:35:08Z</time>
      </trkpt>
      <trkpt lat="46.43334" lon="5.99908">
        <ele>1298.1</ele>
        <time>2021-08-19T10:35:10Z</time>
      </trkpt>
      <trkpt lat="46.43334" lon="5.99908">
        <ele>1298.1</ele>
        <time>2021-08-19T10:35:11Z</time>
      </trkpt>
      <trkpt lat="46.43334" lon="5.99908">
        <ele>1298.1</ele>
        <time>2021-08-19T10:35:12Z</time>
      </trkpt>
      <trkpt lat="46.43334" lon="5.99908">
        <ele>1298.1</ele>
        <time>2021-08-19T10:35:14Z</time>
      </trkpt>
      <trkpt lat="46.43334" lon="5.99908">
        <ele>1298.1</ele>
        <time>2021-08-19T10:35:16Z</time>
      </trkpt>
      <trkpt lat="46.43334" lon="5.99908">
        <ele>1298.1</ele>
        <time>2021-08-19T10:35:17Z</time>
      </trkpt>
      <trkpt lat="46.43335" lon="5.99908">
        <ele>1298.1</ele>
        <time>2021-08-19T10:35:18Z</time>
      </trkpt>
      <trkpt lat="46.43335" lon="5.99909">
        <ele>1298.1</ele>
        <time>2021-08-19T10:35:20Z</time>
      </trkpt>
      <trkpt lat="46.43335" lon="5.99909">
        <ele>1298.1</ele>
        <time>2021-08-19T10:35:22Z</time>
      </trkpt>
      <trkpt lat="46.43335" lon="5.99909">
        <ele>1298.1</ele>
        <time>2021-08-19T10:35:23Z</time>
      </trkpt>
      <trkpt lat="46.43335" lon="5.99909">
        <ele>1298.1</ele>
        <time>2021-08-19T10:35:24Z</time>
      </trkpt>
      <trkpt lat="46.43335" lon="5.99909">
        <ele>1298.1</ele>
        <time>2021-08-19T10:35:25Z</time>
      </trkpt>
      <trkpt lat="46.43335" lon="5.99909">
        <ele>1298.1</ele>
        <time>2021-08-19T10:35:27Z</time>
      </trkpt>
      <trkpt lat="46.43334" lon="5.99908">
        <ele>1298.1</ele>
        <time>2021-08-19T10:35:29Z</time>
      </trkpt>
      <trkpt lat="46.43333" lon="5.99906">
        <ele>1298.1</ele>
        <time>2021-08-19T10:35:30Z</time>
      </trkpt>
      <trkpt lat="46.43331" lon="5.99902">
        <ele>1298.1</ele>
        <time>2021-08-19T10:35:32Z</time>
      </trkpt>
      <trkpt lat="46.43329" lon="5.99897">
        <ele>1298.1</ele>
        <time>2021-08-19T10:35:33Z</time>
      </trkpt>
      <trkpt lat="46.43328" lon="5.99895">
        <ele>1298.1</ele>
        <time>2021-08-19T10:35:34Z</time>
      </trkpt>
      <trkpt lat="46.43324" lon="5.99886">
        <ele>1298.2</ele>
        <time>2021-08-19T10:35:36Z</time>
      </trkpt>
      <trkpt lat="46.43322" lon="5.99883">
        <ele>1298.2</ele>
        <time>2021-08-19T10:35:37Z</time>
      </trkpt>
      <trkpt lat="46.4332" lon="5.99881">
        <ele>1298.2</ele>
        <time>2021-08-19T10:35:38Z</time>
      </trkpt>
      <trkpt lat="46.43317" lon="5.99879">
        <ele>1298.3</ele>
        <time>2021-08-19T10:35:40Z</time>
      </trkpt>
      <trkpt lat="46.43314" lon="5.99878">
        <ele>1298.3</ele>
        <time>2021-08-19T10:35:41Z</time>
      </trkpt>
      <trkpt lat="46.43313" lon="5.99877">
        <ele>1298.3</ele>
        <time>2021-08-19T10:35:42Z</time>
      </trkpt>
      <trkpt lat="46.43309" lon="5.99876">
        <ele>1298.4</ele>
        <time>2021-08-19T10:35:44Z</time>
      </trkpt>
      <trkpt lat="46.43306" lon="5.99876">
        <ele>1298.4</ele>
        <time>2021-08-19T10:35:45Z</time>
      </trkpt>
      <trkpt lat="46.43301" lon="5.99875">
        <ele>1298.5</ele>
        <time>2021-08-19T10:35:46Z</time>
      </trkpt>
      <trkpt lat="46.43298" lon="5.99874">
        <ele>1298.5</ele>
        <time>2021-08-19T10:35:47Z</time>
      </trkpt>
      <trkpt lat="46.43292" lon="5.9987">
        <ele>1298.6</ele>
        <time>2021-08-19T10:35:49Z</time>
      </trkpt>
      <trkpt lat="46.43289" lon="5.99868">
        <ele>1298.6</ele>
        <time>2021-08-19T10:35:50Z</time>
      </trkpt>
      <trkpt lat="46.43288" lon="5.99867">
        <ele>1298.6</ele>
        <time>2021-08-19T10:35:51Z</time>
      </trkpt>
      <trkpt lat="46.43284" lon="5.99865">
        <ele>1298.5</ele>
        <time>2021-08-19T10:35:53Z</time>
      </trkpt>
      <trkpt lat="46.43282" lon="5.99865">
        <ele>1298.5</ele>
        <time>2021-08-19T10:35:54Z</time>
      </trkpt>
      <trkpt lat="46.43282" lon="5.99863">
        <ele>1298.5</ele>
        <time>2021-08-19T10:35:55Z</time>
      </trkpt>
      <trkpt lat="46.43281" lon="5.99862">
        <ele>1298.5</ele>
        <time>2021-08-19T10:35:57Z</time>
      </trkpt>
      <trkpt lat="46.43281" lon="5.99862">
        <ele>1298.5</ele>
        <time>2021-08-19T10:35:58Z</time>
      </trkpt>
      <trkpt lat="46.43281" lon="5.99862">
        <ele>1298.5</ele>
        <time>2021-08-19T10:35:59Z</time>
      </trkpt>
      <trkpt lat="46.4328" lon="5.99862">
        <ele>1298.5</ele>
        <time>2021-08-19T10:36:00Z</time>
      </trkpt>
      <trkpt lat="46.43279" lon="5.99862">
        <ele>1298.5</ele>
        <time>2021-08-19T10:36:01Z</time>
      </trkpt>
      <trkpt lat="46.43278" lon="5.99862">
        <ele>1298.4</ele>
        <time>2021-08-19T10:36:02Z</time>
      </trkpt>
      <trkpt lat="46.43275" lon="5.9986">
        <ele>1298.4</ele>
        <time>2021-08-19T10:36:04Z</time>
      </trkpt>
      <trkpt lat="46.43271" lon="5.99858">
        <ele>1298.3</ele>
        <time>2021-08-19T10:36:06Z</time>
      </trkpt>
      <trkpt lat="46.43265" lon="5.99857">
        <ele>1298</ele>
        <time>2021-08-19T10:36:08Z</time>
      </trkpt>
      <trkpt lat="46.43261" lon="5.99856">
        <ele>1297.8</ele>
        <time>2021-08-19T10:36:09Z</time>
      </trkpt>
      <trkpt lat="46.43256" lon="5.99854">
        <ele>1297.4</ele>
        <time>2021-08-19T10:36:11Z</time>
      </trkpt>
      <trkpt lat="46.43252" lon="5.99852">
        <ele>1297.2</ele>
        <time>2021-08-19T10:36:12Z</time>
      </trkpt>
      <trkpt lat="46.43248" lon="5.9985">
        <ele>1296.8</ele>
        <time>2021-08-19T10:36:13Z</time>
      </trkpt>
      <trkpt lat="46.43245" lon="5.99847">
        <ele>1296.5</ele>
        <time>2021-08-19T10:36:14Z</time>
      </trkpt>
      <trkpt lat="46.43244" lon="5.99847">
        <ele>1296.4</ele>
        <time>2021-08-19T10:36:15Z</time>
      </trkpt>
      <trkpt lat="46.4324" lon="5.99845">
        <ele>1296</ele>
        <time>2021-08-19T10:36:17Z</time>
      </trkpt>
      <trkpt lat="46.43236" lon="5.99843">
        <ele>1295.6</ele>
        <time>2021-08-19T10:36:18Z</time>
      </trkpt>
      <trkpt lat="46.43232" lon="5.99841">
        <ele>1295.1</ele>
        <time>2021-08-19T10:36:20Z</time>
      </trkpt>
      <trkpt lat="46.43226" lon="5.99836">
        <ele>1294.7</ele>
        <time>2021-08-19T10:36:21Z</time>
      </trkpt>
      <trkpt lat="46.43223" lon="5.99833">
        <ele>1294.4</ele>
        <time>2021-08-19T10:36:22Z</time>
      </trkpt>
      <trkpt lat="46.4322" lon="5.99828">
        <ele>1294.1</ele>
        <time>2021-08-19T10:36:24Z</time>
      </trkpt>
      <trkpt lat="46.43216" lon="5.99823">
        <ele>1293.8</ele>
        <time>2021-08-19T10:36:25Z</time>
      </trkpt>
      <trkpt lat="46.43214" lon="5.99821">
        <ele>1293.7</ele>
        <time>2021-08-19T10:36:26Z</time>
      </trkpt>
      <trkpt lat="46.4321" lon="5.99819">
        <ele>1293.6</ele>
        <time>2021-08-19T10:36:28Z</time>
      </trkpt>
      <trkpt lat="46.43209" lon="5.99816">
        <ele>1293.6</ele>
        <time>2021-08-19T10:36:29Z</time>
      </trkpt>
      <trkpt lat="46.43207" lon="5.99812">
        <ele>1293.5</ele>
        <time>2021-08-19T10:36:31Z</time>
      </trkpt>
      <trkpt lat="46.43204" lon="5.99809">
        <ele>1293.5</ele>
        <time>2021-08-19T10:36:32Z</time>
      </trkpt>
      <trkpt lat="46.43202" lon="5.99805">
        <ele>1293.6</ele>
        <time>2021-08-19T10:36:33Z</time>
      </trkpt>
      <trkpt lat="46.43197" lon="5.998">
        <ele>1293.7</ele>
        <time>2021-08-19T10:36:35Z</time>
      </trkpt>
      <trkpt lat="46.43192" lon="5.99796">
        <ele>1293.9</ele>
        <time>2021-08-19T10:36:37Z</time>
      </trkpt>
      <trkpt lat="46.43188" lon="5.99796">
        <ele>1294</ele>
        <time>2021-08-19T10:36:39Z</time>
      </trkpt>
      <trkpt lat="46.43185" lon="5.99795">
        <ele>1294.2</ele>
        <time>2021-08-19T10:36:40Z</time>
      </trkpt>
      <trkpt lat="46.43182" lon="5.99792">
        <ele>1294.4</ele>
        <time>2021-08-19T10:36:41Z</time>
      </trkpt>
      <trkpt lat="46.43181" lon="5.99791">
        <ele>1294.5</ele>
        <time>2021-08-19T10:36:42Z</time>
      </trkpt>
      <trkpt lat="46.43178" lon="5.99789">
        <ele>1294.7</ele>
        <time>2021-08-19T10:36:43Z</time>
      </trkpt>
      <trkpt lat="46.43174" lon="5.99787">
        <ele>1295</ele>
        <time>2021-08-19T10:36:45Z</time>
      </trkpt>
      <trkpt lat="46.43172" lon="5.99785">
        <ele>1295.1</ele>
        <time>2021-08-19T10:36:46Z</time>
      </trkpt>
      <trkpt lat="46.43171" lon="5.99784">
        <ele>1295.2</ele>
        <time>2021-08-19T10:36:47Z</time>
      </trkpt>
      <trkpt lat="46.4317" lon="5.99783">
        <ele>1295.3</ele>
        <time>2021-08-19T10:36:48Z</time>
      </trkpt>
      <trkpt lat="46.4317" lon="5.99783">
        <ele>1295.4</ele>
        <time>2021-08-19T10:36:50Z</time>
      </trkpt>
      <trkpt lat="46.4317" lon="5.99783">
        <ele>1295.4</ele>
        <time>2021-08-19T10:36:52Z</time>
      </trkpt>
      <trkpt lat="46.43171" lon="5.99783">
        <ele>1295.4</ele>
        <time>2021-08-19T10:36:54Z</time>
      </trkpt>
      <trkpt lat="46.43171" lon="5.99783">
        <ele>1295.4</ele>
        <time>2021-08-19T10:36:55Z</time>
      </trkpt>
      <trkpt lat="46.4317" lon="5.99783">
        <ele>1295.4</ele>
        <time>2021-08-19T10:36:57Z</time>
      </trkpt>
      <trkpt lat="46.43138" lon="5.99868">
        <ele>1299.3</ele>
        <time>2021-08-19T10:39:32Z</time>
      </trkpt>
      <trkpt lat="46.43136" lon="5.99869">
        <ele>1299.5</ele>
        <time>2021-08-19T10:39:33Z</time>
      </trkpt>
      <trkpt lat="46.43134" lon="5.9987">
        <ele>1299.6</ele>
        <time>2021-08-19T10:39:35Z</time>
      </trkpt>
      <trkpt lat="46.43133" lon="5.99871">
        <ele>1299.7</ele>
        <time>2021-08-19T10:39:36Z</time>
      </trkpt>
      <trkpt lat="46.43133" lon="5.99871">
        <ele>1299.8</ele>
        <time>2021-08-19T10:39:37Z</time>
      </trkpt>
      <trkpt lat="46.43132" lon="5.99872">
        <ele>1299.8</ele>
        <time>2021-08-19T10:39:38Z</time>
      </trkpt>
      <trkpt lat="46.43132" lon="5.99872">
        <ele>1299.9</ele>
        <time>2021-08-19T10:39:39Z</time>
      </trkpt>
      <trkpt lat="46.43131" lon="5.99873">
        <ele>1299.9</ele>
        <time>2021-08-19T10:39:40Z</time>
      </trkpt>
      <trkpt lat="46.43131" lon="5.99873">
        <ele>1300</ele>
        <time>2021-08-19T10:39:42Z</time>
      </trkpt>
      <trkpt lat="46.4313" lon="5.99873">
        <ele>1300</ele>
        <time>2021-08-19T10:39:43Z</time>
      </trkpt>
      <trkpt lat="46.4313" lon="5.99873">
        <ele>1300.1</ele>
        <time>2021-08-19T10:39:44Z</time>
      </trkpt>
      <trkpt lat="46.43127" lon="5.99872">
        <ele>1300.4</ele>
        <time>2021-08-19T10:39:46Z</time>
      </trkpt>
      <trkpt lat="46.43124" lon="5.99871">
        <ele>1300.8</ele>
        <time>2021-08-19T10:39:48Z</time>
      </trkpt>
      <trkpt lat="46.43123" lon="5.9987">
        <ele>1300.9</ele>
        <time>2021-08-19T10:39:49Z</time>
      </trkpt>
      <trkpt lat="46.43121" lon="5.99869">
        <ele>1301.1</ele>
        <time>2021-08-19T10:39:51Z</time>
      </trkpt>
      <trkpt lat="46.43118" lon="5.99867">
        <ele>1301.5</ele>
        <time>2021-08-19T10:39:53Z</time>
      </trkpt>
      <trkpt lat="46.43116" lon="5.99868">
        <ele>1301.8</ele>
        <time>2021-08-19T10:39:54Z</time>
      </trkpt>
      <trkpt lat="46.43113" lon="5.9987">
        <ele>1302.1</ele>
        <time>2021-08-19T10:39:56Z</time>
      </trkpt>
      <trkpt lat="46.43112" lon="5.99872">
        <ele>1302.2</ele>
        <time>2021-08-19T10:39:57Z</time>
      </trkpt>
      <trkpt lat="46.43112" lon="5.99873">
        <ele>1302.3</ele>
        <time>2021-08-19T10:39:58Z</time>
      </trkpt>
      <trkpt lat="46.43113" lon="5.99873">
        <ele>1302.3</ele>
        <time>2021-08-19T10:39:59Z</time>
      </trkpt>
      <trkpt lat="46.43113" lon="5.99874">
        <ele>1302.4</ele>
        <time>2021-08-19T10:40:01Z</time>
      </trkpt>
      <trkpt lat="46.43113" lon="5.99874">
        <ele>1302.4</ele>
        <time>2021-08-19T10:40:02Z</time>
      </trkpt>
      <trkpt lat="46.43109" lon="5.99873">
        <ele>1302.7</ele>
        <time>2021-08-19T10:40:04Z</time>
      </trkpt>
      <trkpt lat="46.43106" lon="5.99871">
        <ele>1302.9</ele>
        <time>2021-08-19T10:40:05Z</time>
      </trkpt>
      <trkpt lat="46.43102" lon="5.99869">
        <ele>1303</ele>
        <time>2021-08-19T10:40:07Z</time>
      </trkpt>
      <trkpt lat="46.43098" lon="5.99867">
        <ele>1303.1</ele>
        <time>2021-08-19T10:40:28Z</time>
      </trkpt>
      <trkpt lat="46.43095" lon="5.99865">
        <ele>1303.1</ele>
        <time>2021-08-19T10:40:30Z</time>
      </trkpt>
      <trkpt lat="46.43091" lon="5.99863">
        <ele>1303.1</ele>
        <time>2021-08-19T10:40:31Z</time>
      </trkpt>
      <trkpt lat="46.43089" lon="5.99862">
        <ele>1303.1</ele>
        <time>2021-08-19T10:40:32Z</time>
      </trkpt>
      <trkpt lat="46.43087" lon="5.99861">
        <ele>1303</ele>
        <time>2021-08-19T10:40:34Z</time>
      </trkpt>
      <trkpt lat="46.43083" lon="5.9986">
        <ele>1302.9</ele>
        <time>2021-08-19T10:40:36Z</time>
      </trkpt>
      <trkpt lat="46.43083" lon="5.99861">
        <ele>1302.9</ele>
        <time>2021-08-19T10:40:37Z</time>
      </trkpt>
      <trkpt lat="46.43082" lon="5.99863">
        <ele>1302.8</ele>
        <time>2021-08-19T10:40:39Z</time>
      </trkpt>
      <trkpt lat="46.43082" lon="5.99864">
        <ele>1302.8</ele>
        <time>2021-08-19T10:40:40Z</time>
      </trkpt>
      <trkpt lat="46.43082" lon="5.99866">
        <ele>1302.7</ele>
        <time>2021-08-19T10:40:42Z</time>
      </trkpt>
      <trkpt lat="46.43081" lon="5.99867">
        <ele>1302.7</ele>
        <time>2021-08-19T10:40:44Z</time>
      </trkpt>
      <trkpt lat="46.43081" lon="5.99869">
        <ele>1302.6</ele>
        <time>2021-08-19T10:40:45Z</time>
      </trkpt>
      <trkpt lat="46.4308" lon="5.9987">
        <ele>1302.6</ele>
        <time>2021-08-19T10:40:46Z</time>
      </trkpt>
      <trkpt lat="46.4308" lon="5.99872">
        <ele>1302.5</ele>
        <time>2021-08-19T10:40:48Z</time>
      </trkpt>
      <trkpt lat="46.43079" lon="5.99874">
        <ele>1302.4</ele>
        <time>2021-08-19T10:40:50Z</time>
      </trkpt>
      <trkpt lat="46.43079" lon="5.99875">
        <ele>1302.4</ele>
        <time>2021-08-19T10:40:51Z</time>
      </trkpt>
      <trkpt lat="46.43078" lon="5.99877">
        <ele>1302.3</ele>
        <time>2021-08-19T10:40:53Z</time>
      </trkpt>
      <trkpt lat="46.43078" lon="5.99878">
        <ele>1302.2</ele>
        <time>2021-08-19T10:40:54Z</time>
      </trkpt>
      <trkpt lat="46.43077" lon="5.9988">
        <ele>1302.2</ele>
        <time>2021-08-19T10:40:55Z</time>
      </trkpt>
      <trkpt lat="46.43077" lon="5.99881">
        <ele>1302.1</ele>
        <time>2021-08-19T10:59:12Z</time>
      </trkpt>
      <trkpt lat="46.43076" lon="5.99883">
        <ele>1302</ele>
        <time>2021-08-19T10:59:13Z</time>
      </trkpt>
      <trkpt lat="46.43069" lon="5.99883">
        <ele>1301.5</ele>
        <time>2021-08-19T10:59:15Z</time>
      </trkpt>
      <trkpt lat="46.43064" lon="5.99886">
        <ele>1301.1</ele>
        <time>2021-08-19T10:59:17Z</time>
      </trkpt>
      <trkpt lat="46.4306" lon="5.9989">
        <ele>1300.6</ele>
        <time>2021-08-19T10:59:18Z</time>
      </trkpt>
      <trkpt lat="46.43057" lon="5.99893">
        <ele>1300.3</ele>
        <time>2021-08-19T10:59:19Z</time>
      </trkpt>
      <trkpt lat="46.4305" lon="5.99902">
        <ele>1299.5</ele>
        <time>2021-08-19T10:59:21Z</time>
      </trkpt>
      <trkpt lat="46.43047" lon="5.99904">
        <ele>1299.2</ele>
        <time>2021-08-19T10:59:22Z</time>
      </trkpt>
      <trkpt lat="46.43045" lon="5.99905">
        <ele>1299</ele>
        <time>2021-08-19T10:59:23Z</time>
      </trkpt>
      <trkpt lat="46.4304" lon="5.99909">
        <ele>1298.5</ele>
        <time>2021-08-19T10:59:25Z</time>
      </trkpt>
      <trkpt lat="46.43036" lon="5.99912">
        <ele>1298.2</ele>
        <time>2021-08-19T10:59:26Z</time>
      </trkpt>
      <trkpt lat="46.4303" lon="5.99916">
        <ele>1297.8</ele>
        <time>2021-08-19T10:59:27Z</time>
      </trkpt>
      <trkpt lat="46.43027" lon="5.99916">
        <ele>1297.7</ele>
        <time>2021-08-19T10:59:28Z</time>
      </trkpt>
      <trkpt lat="46.43026" lon="5.99916">
        <ele>1297.7</ele>
        <time>2021-08-19T10:59:29Z</time>
      </trkpt>
      <trkpt lat="46.43022" lon="5.99916">
        <ele>1297.5</ele>
        <time>2021-08-19T10:59:31Z</time>
      </trkpt>
      <trkpt lat="46.43017" lon="5.99913">
        <ele>1297.4</ele>
        <time>2021-08-19T10:59:32Z</time>
      </trkpt>
      <trkpt lat="46.43012" lon="5.9991">
        <ele>1297.3</ele>
        <time>2021-08-19T10:59:33Z</time>
      </trkpt>
      <trkpt lat="46.43004" lon="5.99904">
        <ele>1297.4</ele>
        <time>2021-08-19T10:59:35Z</time>
      </trkpt>
      <trkpt lat="46.43001" lon="5.99905">
        <ele>1297.4</ele>
        <time>2021-08-19T10:59:36Z</time>
      </trkpt>
      <trkpt lat="46.42996" lon="5.99906">
        <ele>1297.6</ele>
        <time>2021-08-19T10:59:38Z</time>
      </trkpt>
      <trkpt lat="46.42992" lon="5.99905">
        <ele>1297.8</ele>
        <time>2021-08-19T10:59:40Z</time>
      </trkpt>
      <trkpt lat="46.42991" lon="5.99905">
        <ele>1297.9</ele>
        <time>2021-08-19T10:59:42Z</time>
      </trkpt>
      <trkpt lat="46.42989" lon="5.99904">
        <ele>1298</ele>
        <time>2021-08-19T10:59:43Z</time>
      </trkpt>
      <trkpt lat="46.42987" lon="5.99903">
        <ele>1298.1</ele>
        <time>2021-08-19T10:59:44Z</time>
      </trkpt>
      <trkpt lat="46.42986" lon="5.99903">
        <ele>1298.2</ele>
        <time>2021-08-19T10:59:45Z</time>
      </trkpt>
      <trkpt lat="46.42984" lon="5.99904">
        <ele>1298.5</ele>
        <time>2021-08-19T10:59:47Z</time>
      </trkpt>
      <trkpt lat="46.42983" lon="5.99905">
        <ele>1298.6</ele>
        <time>2021-08-19T10:59:48Z</time>
      </trkpt>
      <trkpt lat="46.42983" lon="5.99907">
        <ele>1298.8</ele>
        <time>2021-08-19T10:59:50Z</time>
      </trkpt>
      <trkpt lat="46.42983" lon="5.99908">
        <ele>1298.8</ele>
        <time>2021-08-19T10:59:51Z</time>
      </trkpt>
      <trkpt lat="46.42983" lon="5.99908">
        <ele>1298.9</ele>
        <time>2021-08-19T10:59:52Z</time>
      </trkpt>
      <trkpt lat="46.42983" lon="5.99909">
        <ele>1298.9</ele>
        <time>2021-08-19T10:59:54Z</time>
      </trkpt>
      <trkpt lat="46.42982" lon="5.99909">
        <ele>1299</ele>
        <time>2021-08-19T10:59:55Z</time>
      </trkpt>
      <trkpt lat="46.42982" lon="5.99909">
        <ele>1299</ele>
        <time>2021-08-19T10:59:57Z</time>
      </trkpt>
      <trkpt lat="46.42982" lon="5.9991">
        <ele>1299</ele>
        <time>2021-08-19T10:59:59Z</time>
      </trkpt>
      <trkpt lat="46.42957" lon="5.99964">
        <ele>1306.3</ele>
        <time>2021-08-19T11:01:12Z</time>
      </trkpt>
      <trkpt lat="46.42956" lon="5.99966">
        <ele>1306.4</ele>
        <time>2021-08-19T11:01:13Z</time>
      </trkpt>
      <trkpt lat="46.42953" lon="5.9997">
        <ele>1306.5</ele>
        <time>2021-08-19T11:01:15Z</time>
      </trkpt>
      <trkpt lat="46.4295" lon="5.99974">
        <ele>1306.5</ele>
        <time>2021-08-19T11:01:16Z</time>
      </trkpt>
      <trkpt lat="46.42948" lon="5.99978">
        <ele>1306.5</ele>
        <time>2021-08-19T11:01:17Z</time>
      </trkpt>
      <trkpt lat="46.42944" lon="5.99982">
        <ele>1306.5</ele>
        <time>2021-08-19T11:01:18Z</time>
      </trkpt>
      <trkpt lat="46.42941" lon="5.99984">
        <ele>1306.4</ele>
        <time>2021-08-19T11:01:20Z</time>
      </trkpt>
      <trkpt lat="46.42937" lon="5.99986">
        <ele>1306.4</ele>
        <time>2021-08-19T11:01:21Z</time>
      </trkpt>
      <trkpt lat="46.42933" lon="5.99989">
        <ele>1306.5</ele>
        <time>2021-08-19T11:01:22Z</time>
      </trkpt>
      <trkpt lat="46.42931" lon="5.99991">
        <ele>1306.6</ele>
        <time>2021-08-19T11:01:23Z</time>
      </trkpt>
      <trkpt lat="46.42929" lon="5.99994">
        <ele>1306.7</ele>
        <time>2021-08-19T11:01:25Z</time>
      </trkpt>
      <trkpt lat="46.42929" lon="5.99995">
        <ele>1306.7</ele>
        <time>2021-08-19T11:01:26Z</time>
      </trkpt>
      <trkpt lat="46.4293" lon="5.99994">
        <ele>1306.8</ele>
        <time>2021-08-19T11:01:27Z</time>
      </trkpt>
      <trkpt lat="46.4293" lon="5.99994">
        <ele>1306.8</ele>
        <time>2021-08-19T11:01:28Z</time>
      </trkpt>
      <trkpt lat="46.4293" lon="5.99994">
        <ele>1306.8</ele>
        <time>2021-08-19T11:01:30Z</time>
      </trkpt>
      <trkpt lat="46.4293" lon="5.99994">
        <ele>1306.8</ele>
        <time>2021-08-19T11:01:31Z</time>
      </trkpt>
      <trkpt lat="46.4293" lon="5.99994">
        <ele>1306.8</ele>
        <time>2021-08-19T11:01:33Z</time>
      </trkpt>
      <trkpt lat="46.4293" lon="5.99994">
        <ele>1306.8</ele>
        <time>2021-08-19T11:01:34Z</time>
      </trkpt>
      <trkpt lat="46.4293" lon="5.99994">
        <ele>1306.9</ele>
        <time>2021-08-19T11:01:35Z</time>
      </trkpt>
      <trkpt lat="46.42912" lon="6.00004">
        <ele>1309.5</ele>
        <time>2021-08-19T11:02:05Z</time>
      </trkpt>
      <trkpt lat="46.42911" lon="6.00006">
        <ele>1309.8</ele>
        <time>2021-08-19T11:02:06Z</time>
      </trkpt>
      <trkpt lat="46.42909" lon="6.0001">
        <ele>1310.4</ele>
        <time>2021-08-19T11:02:08Z</time>
      </trkpt>
      <trkpt lat="46.42906" lon="6.00013">
        <ele>1311</ele>
        <time>2021-08-19T11:02:09Z</time>
      </trkpt>
      <trkpt lat="46.42906" lon="6.00014">
        <ele>1311.1</ele>
        <time>2021-08-19T11:02:10Z</time>
      </trkpt>
      <trkpt lat="46.429" lon="6.00019">
        <ele>1312</ele>
        <time>2021-08-19T11:02:12Z</time>
      </trkpt>
      <trkpt lat="46.42895" lon="6.00023">
        <ele>1312.5</ele>
        <time>2021-08-19T11:02:13Z</time>
      </trkpt>
      <trkpt lat="46.4289" lon="6.00027">
        <ele>1312.7</ele>
        <time>2021-08-19T11:02:15Z</time>
      </trkpt>
      <trkpt lat="46.42884" lon="6.0003">
        <ele>1312.7</ele>
        <time>2021-08-19T11:02:17Z</time>
      </trkpt>
      <trkpt lat="46.42879" lon="6.00034">
        <ele>1312.5</ele>
        <time>2021-08-19T11:02:18Z</time>
      </trkpt>
      <trkpt lat="46.42874" lon="6.00038">
        <ele>1312</ele>
        <time>2021-08-19T11:02:47Z</time>
      </trkpt>
      <trkpt lat="46.42869" lon="6.00042">
        <ele>1311.5</ele>
        <time>2021-08-19T11:02:48Z</time>
      </trkpt>
      <trkpt lat="46.42866" lon="6.00043">
        <ele>1311.1</ele>
        <time>2021-08-19T11:02:50Z</time>
      </trkpt>
      <trkpt lat="46.42865" lon="6.00044">
        <ele>1311</ele>
        <time>2021-08-19T11:02:51Z</time>
      </trkpt>
      <trkpt lat="46.42859" lon="6.00046">
        <ele>1310.3</ele>
        <time>2021-08-19T11:02:52Z</time>
      </trkpt>
      <trkpt lat="46.42857" lon="6.00048">
        <ele>1309.9</ele>
        <time>2021-08-19T11:02:53Z</time>
      </trkpt>
      <trkpt lat="46.42837" lon="6.00064">
        <ele>1306.9</ele>
        <time>2021-08-19T11:02:54Z</time>
      </trkpt>
      <trkpt lat="46.42832" lon="6.00069">
        <ele>1306.2</ele>
        <time>2021-08-19T11:02:56Z</time>
      </trkpt>
      <trkpt lat="46.42827" lon="6.00072">
        <ele>1305.7</ele>
        <time>2021-08-19T11:02:58Z</time>
      </trkpt>
      <trkpt lat="46.42824" lon="6.00075">
        <ele>1305.2</ele>
        <time>2021-08-19T11:02:59Z</time>
      </trkpt>
      <trkpt lat="46.42822" lon="6.00078">
        <ele>1304.9</ele>
        <time>2021-08-19T11:03:00Z</time>
      </trkpt>
      <trkpt lat="46.42818" lon="6.00083">
        <ele>1304.5</ele>
        <time>2021-08-19T11:03:02Z</time>
      </trkpt>
      <trkpt lat="46.42817" lon="6.00084">
        <ele>1304.3</ele>
        <time>2021-08-19T11:03:03Z</time>
      </trkpt>
      <trkpt lat="46.42816" lon="6.00086">
        <ele>1304.2</ele>
        <time>2021-08-19T11:03:05Z</time>
      </trkpt>
      <trkpt lat="46.42815" lon="6.00088">
        <ele>1304.1</ele>
        <time>2021-08-19T11:03:06Z</time>
      </trkpt>
      <trkpt lat="46.42814" lon="6.00089">
        <ele>1303.9</ele>
        <time>2021-08-19T11:03:07Z</time>
      </trkpt>
      <trkpt lat="46.42814" lon="6.00094">
        <ele>1303.7</ele>
        <time>2021-08-19T11:03:09Z</time>
      </trkpt>
      <trkpt lat="46.42816" lon="6.00099">
        <ele>1303.4</ele>
        <time>2021-08-19T11:03:10Z</time>
      </trkpt>
      <trkpt lat="46.42818" lon="6.00106">
        <ele>1303.1</ele>
        <time>2021-08-19T11:03:11Z</time>
      </trkpt>
      <trkpt lat="46.42819" lon="6.00114">
        <ele>1302.8</ele>
        <time>2021-08-19T11:03:13Z</time>
      </trkpt>
      <trkpt lat="46.42819" lon="6.00121">
        <ele>1302.5</ele>
        <time>2021-08-19T11:03:14Z</time>
      </trkpt>
      <trkpt lat="46.42817" lon="6.00129">
        <ele>1302.2</ele>
        <time>2021-08-19T11:03:15Z</time>
      </trkpt>
      <trkpt lat="46.42815" lon="6.00135">
        <ele>1302</ele>
        <time>2021-08-19T11:03:16Z</time>
      </trkpt>
      <trkpt lat="46.42811" lon="6.00143">
        <ele>1301.6</ele>
        <time>2021-08-19T11:03:18Z</time>
      </trkpt>
      <trkpt lat="46.42806" lon="6.00152">
        <ele>1301.1</ele>
        <time>2021-08-19T11:03:19Z</time>
      </trkpt>
      <trkpt lat="46.42802" lon="6.00156">
        <ele>1300.7</ele>
        <time>2021-08-19T11:03:20Z</time>
      </trkpt>
      <trkpt lat="46.42797" lon="6.00161">
        <ele>1300.1</ele>
        <time>2021-08-19T11:03:21Z</time>
      </trkpt>
      <trkpt lat="46.42789" lon="6.00166">
        <ele>1299.4</ele>
        <time>2021-08-19T11:03:23Z</time>
      </trkpt>
      <trkpt lat="46.42781" lon="6.00167">
        <ele>1298.5</ele>
        <time>2021-08-19T11:03:24Z</time>
      </trkpt>
      <trkpt lat="46.42774" lon="6.00167">
        <ele>1297.5</ele>
        <time>2021-08-19T11:03:26Z</time>
      </trkpt>
      <trkpt lat="46.4277" lon="6.00166">
        <ele>1296.8</ele>
        <time>2021-08-19T11:03:27Z</time>
      </trkpt>
      <trkpt lat="46.42765" lon="6.00165">
        <ele>1296</ele>
        <time>2021-08-19T11:03:28Z</time>
      </trkpt>
      <trkpt lat="46.42758" lon="6.00164">
        <ele>1294.8</ele>
        <time>2021-08-19T11:03:29Z</time>
      </trkpt>
      <trkpt lat="46.42752" lon="6.00162">
        <ele>1293.6</ele>
        <time>2021-08-19T11:03:31Z</time>
      </trkpt>
      <trkpt lat="46.42746" lon="6.00158">
        <ele>1292.4</ele>
        <time>2021-08-19T11:03:32Z</time>
      </trkpt>
      <trkpt lat="46.42741" lon="6.00152">
        <ele>1291.4</ele>
        <time>2021-08-19T11:03:33Z</time>
      </trkpt>
      <trkpt lat="46.42738" lon="6.00146">
        <ele>1290.7</ele>
        <time>2021-08-19T11:03:34Z</time>
      </trkpt>
      <trkpt lat="46.42736" lon="6.00137">
        <ele>1289.8</ele>
        <time>2021-08-19T11:03:36Z</time>
      </trkpt>
      <trkpt lat="46.42736" lon="6.00129">
        <ele>1289.2</ele>
        <time>2021-08-19T11:03:37Z</time>
      </trkpt>
      <trkpt lat="46.42736" lon="6.00121">
        <ele>1288.5</ele>
        <time>2021-08-19T11:03:38Z</time>
      </trkpt>
      <trkpt lat="46.42734" lon="6.00115">
        <ele>1288</ele>
        <time>2021-08-19T11:03:39Z</time>
      </trkpt>
      <trkpt lat="46.4273" lon="6.00109">
        <ele>1287.2</ele>
        <time>2021-08-19T11:03:41Z</time>
      </trkpt>
      <trkpt lat="46.42726" lon="6.00106">
        <ele>1286.5</ele>
        <time>2021-08-19T11:03:43Z</time>
      </trkpt>
      <trkpt lat="46.42721" lon="6.00106">
        <ele>1285.8</ele>
        <time>2021-08-19T11:03:44Z</time>
      </trkpt>
      <trkpt lat="46.42717" lon="6.00107">
        <ele>1285.2</ele>
        <time>2021-08-19T11:03:45Z</time>
      </trkpt>
      <trkpt lat="46.42713" lon="6.00109">
        <ele>1284.4</ele>
        <time>2021-08-19T11:03:46Z</time>
      </trkpt>
      <trkpt lat="46.42701" lon="6.00118">
        <ele>1282.2</ele>
        <time>2021-08-19T11:03:48Z</time>
      </trkpt>
      <trkpt lat="46.42696" lon="6.00123">
        <ele>1281.2</ele>
        <time>2021-08-19T11:03:49Z</time>
      </trkpt>
      <trkpt lat="46.42691" lon="6.00129">
        <ele>1280.3</ele>
        <time>2021-08-19T11:03:50Z</time>
      </trkpt>
      <trkpt lat="46.4268" lon="6.00141">
        <ele>1278.5</ele>
        <time>2021-08-19T11:03:52Z</time>
      </trkpt>
      <trkpt lat="46.42675" lon="6.00148">
        <ele>1277.8</ele>
        <time>2021-08-19T11:03:53Z</time>
      </trkpt>
      <trkpt lat="46.42672" lon="6.00156">
        <ele>1277.3</ele>
        <time>2021-08-19T11:03:54Z</time>
      </trkpt>
      <trkpt lat="46.42669" lon="6.00164">
        <ele>1276.9</ele>
        <time>2021-08-19T11:03:55Z</time>
      </trkpt>
      <trkpt lat="46.42667" lon="6.0017">
        <ele>1276.7</ele>
        <time>2021-08-19T11:03:56Z</time>
      </trkpt>
      <trkpt lat="46.42664" lon="6.00174">
        <ele>1276.5</ele>
        <time>2021-08-19T11:03:58Z</time>
      </trkpt>
      <trkpt lat="46.42663" lon="6.00178">
        <ele>1276.4</ele>
        <time>2021-08-19T11:03:59Z</time>
      </trkpt>
      <trkpt lat="46.42661" lon="6.00186">
        <ele>1276.2</ele>
        <time>2021-08-19T11:04:01Z</time>
      </trkpt>
      <trkpt lat="46.42661" lon="6.00191">
        <ele>1276.1</ele>
        <time>2021-08-19T11:04:02Z</time>
      </trkpt>
      <trkpt lat="46.42662" lon="6.00197">
        <ele>1276</ele>
        <time>2021-08-19T11:04:03Z</time>
      </trkpt>
      <trkpt lat="46.42662" lon="6.00205">
        <ele>1275.8</ele>
        <time>2021-08-19T11:04:04Z</time>
      </trkpt>
      <trkpt lat="46.42662" lon="6.0021">
        <ele>1275.7</ele>
        <time>2021-08-19T11:04:05Z</time>
      </trkpt>
      <trkpt lat="46.4266" lon="6.00216">
        <ele>1275.6</ele>
        <time>2021-08-19T11:04:07Z</time>
      </trkpt>
      <trkpt lat="46.42658" lon="6.00222">
        <ele>1275.5</ele>
        <time>2021-08-19T11:04:08Z</time>
      </trkpt>
      <trkpt lat="46.42655" lon="6.00231">
        <ele>1275.4</ele>
        <time>2021-08-19T11:04:10Z</time>
      </trkpt>
      <trkpt lat="46.42652" lon="6.00235">
        <ele>1275.4</ele>
        <time>2021-08-19T11:04:12Z</time>
      </trkpt>
      <trkpt lat="46.42651" lon="6.00238">
        <ele>1275.3</ele>
        <time>2021-08-19T11:04:13Z</time>
      </trkpt>
      <trkpt lat="46.4265" lon="6.0024">
        <ele>1275.3</ele>
        <time>2021-08-19T11:04:14Z</time>
      </trkpt>
      <trkpt lat="46.4265" lon="6.00242">
        <ele>1275.3</ele>
        <time>2021-08-19T11:04:15Z</time>
      </trkpt>
      <trkpt lat="46.4265" lon="6.00243">
        <ele>1275.3</ele>
        <time>2021-08-19T11:04:17Z</time>
      </trkpt>
      <trkpt lat="46.42649" lon="6.00245">
        <ele>1275.3</ele>
        <time>2021-08-19T11:04:18Z</time>
      </trkpt>
      <trkpt lat="46.42649" lon="6.00248">
        <ele>1275.3</ele>
        <time>2021-08-19T11:04:19Z</time>
      </trkpt>
      <trkpt lat="46.42648" lon="6.00253">
        <ele>1275.2</ele>
        <time>2021-08-19T11:04:21Z</time>
      </trkpt>
      <trkpt lat="46.42646" lon="6.00258">
        <ele>1275.2</ele>
        <time>2021-08-19T11:04:22Z</time>
      </trkpt>
      <trkpt lat="46.42645" lon="6.00264">
        <ele>1275.2</ele>
        <time>2021-08-19T11:04:23Z</time>
      </trkpt>
      <trkpt lat="46.42646" lon="6.0027">
        <ele>1275.1</ele>
        <time>2021-08-19T11:04:24Z</time>
      </trkpt>
      <trkpt lat="46.42645" lon="6.00274">
        <ele>1275.1</ele>
        <time>2021-08-19T11:04:25Z</time>
      </trkpt>
      <trkpt lat="46.42645" lon="6.00283">
        <ele>1275</ele>
        <time>2021-08-19T11:04:27Z</time>
      </trkpt>
      <trkpt lat="46.42644" lon="6.00289">
        <ele>1274.8</ele>
        <time>2021-08-19T11:04:28Z</time>
      </trkpt>
      <trkpt lat="46.42644" lon="6.00295">
        <ele>1274.7</ele>
        <time>2021-08-19T11:04:29Z</time>
      </trkpt>
      <trkpt lat="46.42643" lon="6.00299">
        <ele>1274.5</ele>
        <time>2021-08-19T11:04:30Z</time>
      </trkpt>
      <trkpt lat="46.42644" lon="6.00307">
        <ele>1274.2</ele>
        <time>2021-08-19T11:04:32Z</time>
      </trkpt>
      <trkpt lat="46.42645" lon="6.00315">
        <ele>1273.8</ele>
        <time>2021-08-19T11:04:33Z</time>
      </trkpt>
      <trkpt lat="46.42648" lon="6.00325">
        <ele>1273.2</ele>
        <time>2021-08-19T11:04:35Z</time>
      </trkpt>
      <trkpt lat="46.42648" lon="6.00333">
        <ele>1272.7</ele>
        <time>2021-08-19T11:04:36Z</time>
      </trkpt>
      <trkpt lat="46.42649" lon="6.0034">
        <ele>1272.2</ele>
        <time>2021-08-19T11:04:37Z</time>
      </trkpt>
      <trkpt lat="46.42648" lon="6.0035">
        <ele>1271.6</ele>
        <time>2021-08-19T11:04:39Z</time>
      </trkpt>
      <trkpt lat="46.42648" lon="6.00356">
        <ele>1271.1</ele>
        <time>2021-08-19T11:04:40Z</time>
      </trkpt>
      <trkpt lat="46.42647" lon="6.00363">
        <ele>1270.7</ele>
        <time>2021-08-19T11:04:41Z</time>
      </trkpt>
      <trkpt lat="46.42647" lon="6.0037">
        <ele>1270.2</ele>
        <time>2021-08-19T11:04:42Z</time>
      </trkpt>
      <trkpt lat="46.42646" lon="6.00379">
        <ele>1269.7</ele>
        <time>2021-08-19T11:04:44Z</time>
      </trkpt>
      <trkpt lat="46.42644" lon="6.00385">
        <ele>1269.2</ele>
        <time>2021-08-19T11:04:45Z</time>
      </trkpt>
      <trkpt lat="46.42641" lon="6.00391">
        <ele>1268.8</ele>
        <time>2021-08-19T11:04:46Z</time>
      </trkpt>
      <trkpt lat="46.4264" lon="6.004">
        <ele>1268.3</ele>
        <time>2021-08-19T11:04:48Z</time>
      </trkpt>
      <trkpt lat="46.42643" lon="6.00413">
        <ele>1267.5</ele>
        <time>2021-08-19T11:04:49Z</time>
      </trkpt>
      <trkpt lat="46.42645" lon="6.0042">
        <ele>1267</ele>
        <time>2021-08-19T11:04:50Z</time>
      </trkpt>
      <trkpt lat="46.42649" lon="6.00433">
        <ele>1266.4</ele>
        <time>2021-08-19T11:04:52Z</time>
      </trkpt>
      <trkpt lat="46.4265" lon="6.00439">
        <ele>1266.3</ele>
        <time>2021-08-19T11:04:53Z</time>
      </trkpt>
      <trkpt lat="46.42653" lon="6.00445">
        <ele>1266.2</ele>
        <time>2021-08-19T11:04:55Z</time>
      </trkpt>
      <trkpt lat="46.42655" lon="6.00456">
        <ele>1266.2</ele>
        <time>2021-08-19T11:04:56Z</time>
      </trkpt>
      <trkpt lat="46.42655" lon="6.00462">
        <ele>1266.3</ele>
        <time>2021-08-19T11:04:58Z</time>
      </trkpt>
      <trkpt lat="46.42656" lon="6.00468">
        <ele>1266.5</ele>
        <time>2021-08-19T11:04:59Z</time>
      </trkpt>
      <trkpt lat="46.42656" lon="6.00477">
        <ele>1266.9</ele>
        <time>2021-08-19T11:05:00Z</time>
      </trkpt>
      <trkpt lat="46.42653" lon="6.0048">
        <ele>1267.2</ele>
        <time>2021-08-19T11:05:02Z</time>
      </trkpt>
      <trkpt lat="46.42651" lon="6.00486">
        <ele>1267.7</ele>
        <time>2021-08-19T11:05:03Z</time>
      </trkpt>
      <trkpt lat="46.4265" lon="6.00491">
        <ele>1268.1</ele>
        <time>2021-08-19T11:05:04Z</time>
      </trkpt>
      <trkpt lat="46.42646" lon="6.00497">
        <ele>1268.6</ele>
        <time>2021-08-19T11:05:06Z</time>
      </trkpt>
      <trkpt lat="46.42643" lon="6.00498">
        <ele>1268.9</ele>
        <time>2021-08-19T11:05:07Z</time>
      </trkpt>
      <trkpt lat="46.42639" lon="6.00499">
        <ele>1269.3</ele>
        <time>2021-08-19T11:05:09Z</time>
      </trkpt>
      <trkpt lat="46.42636" lon="6.00501">
        <ele>1269.6</ele>
        <time>2021-08-19T11:05:10Z</time>
      </trkpt>
      <trkpt lat="46.42633" lon="6.00504">
        <ele>1269.9</ele>
        <time>2021-08-19T11:05:11Z</time>
      </trkpt>
      <trkpt lat="46.42632" lon="6.00505">
        <ele>1270</ele>
        <time>2021-08-19T11:05:12Z</time>
      </trkpt>
      <trkpt lat="46.42629" lon="6.00507">
        <ele>1270.4</ele>
        <time>2021-08-19T11:05:14Z</time>
      </trkpt>
      <trkpt lat="46.42628" lon="6.00507">
        <ele>1270.5</ele>
        <time>2021-08-19T11:05:15Z</time>
      </trkpt>
      <trkpt lat="46.42626" lon="6.0051">
        <ele>1270.7</ele>
        <time>2021-08-19T11:05:17Z</time>
      </trkpt>
      <trkpt lat="46.42627" lon="6.00512">
        <ele>1270.8</ele>
        <time>2021-08-19T11:05:19Z</time>
      </trkpt>
      <trkpt lat="46.42627" lon="6.00514">
        <ele>1271</ele>
        <time>2021-08-19T11:05:20Z</time>
      </trkpt>
      <trkpt lat="46.42627" lon="6.00515">
        <ele>1271</ele>
        <time>2021-08-19T11:05:21Z</time>
      </trkpt>
      <trkpt lat="46.42627" lon="6.00516">
        <ele>1271.1</ele>
        <time>2021-08-19T11:05:22Z</time>
      </trkpt>
      <trkpt lat="46.42626" lon="6.0052">
        <ele>1271.2</ele>
        <time>2021-08-19T11:05:24Z</time>
      </trkpt>
      <trkpt lat="46.42626" lon="6.00524">
        <ele>1271.4</ele>
        <time>2021-08-19T11:05:25Z</time>
      </trkpt>
      <trkpt lat="46.42624" lon="6.00529">
        <ele>1271.4</ele>
        <time>2021-08-19T11:05:26Z</time>
      </trkpt>
      <trkpt lat="46.42622" lon="6.00535">
        <ele>1271.3</ele>
        <time>2021-08-19T11:05:27Z</time>
      </trkpt>
      <trkpt lat="46.42619" lon="6.00546">
        <ele>1270.9</ele>
        <time>2021-08-19T11:05:28Z</time>
      </trkpt>
      <trkpt lat="46.42616" lon="6.00556">
        <ele>1270.3</ele>
        <time>2021-08-19T11:05:30Z</time>
      </trkpt>
      <trkpt lat="46.42612" lon="6.00565">
        <ele>1269.8</ele>
        <time>2021-08-19T11:05:31Z</time>
      </trkpt>
      <trkpt lat="46.4261" lon="6.00575">
        <ele>1269.3</ele>
        <time>2021-08-19T11:05:32Z</time>
      </trkpt>
      <trkpt lat="46.42608" lon="6.00582">
        <ele>1269</ele>
        <time>2021-08-19T11:05:34Z</time>
      </trkpt>
      <trkpt lat="46.42605" lon="6.00589">
        <ele>1269</ele>
        <time>2021-08-19T11:05:35Z</time>
      </trkpt>
      <trkpt lat="46.42603" lon="6.00593">
        <ele>1269</ele>
        <time>2021-08-19T11:05:36Z</time>
      </trkpt>
      <trkpt lat="46.42597" lon="6.00604">
        <ele>1269</ele>
        <time>2021-08-19T11:05:38Z</time>
      </trkpt>
      <trkpt lat="46.42595" lon="6.00609">
        <ele>1269.1</ele>
        <time>2021-08-19T11:05:39Z</time>
      </trkpt>
      <trkpt lat="46.42592" lon="6.0062">
        <ele>1269.3</ele>
        <time>2021-08-19T11:05:41Z</time>
      </trkpt>
      <trkpt lat="46.4259" lon="6.00631">
        <ele>1269.4</ele>
        <time>2021-08-19T11:05:43Z</time>
      </trkpt>
      <trkpt lat="46.42588" lon="6.00639">
        <ele>1269.6</ele>
        <time>2021-08-19T11:05:44Z</time>
      </trkpt>
      <trkpt lat="46.42585" lon="6.00645">
        <ele>1269.7</ele>
        <time>2021-08-19T11:05:45Z</time>
      </trkpt>
      <trkpt lat="46.42582" lon="6.00653">
        <ele>1269.8</ele>
        <time>2021-08-19T11:05:47Z</time>
      </trkpt>
      <trkpt lat="46.4258" lon="6.00658">
        <ele>1269.8</ele>
        <time>2021-08-19T11:05:48Z</time>
      </trkpt>
      <trkpt lat="46.42578" lon="6.00663">
        <ele>1269.8</ele>
        <time>2021-08-19T11:05:49Z</time>
      </trkpt>
      <trkpt lat="46.42577" lon="6.00667">
        <ele>1269.8</ele>
        <time>2021-08-19T11:05:51Z</time>
      </trkpt>
      <trkpt lat="46.42576" lon="6.00672">
        <ele>1269.7</ele>
        <time>2021-08-19T11:05:52Z</time>
      </trkpt>
      <trkpt lat="46.42574" lon="6.00677">
        <ele>1269.6</ele>
        <time>2021-08-19T11:05:53Z</time>
      </trkpt>
      <trkpt lat="46.42572" lon="6.00681">
        <ele>1269.5</ele>
        <time>2021-08-19T11:05:54Z</time>
      </trkpt>
      <trkpt lat="46.42569" lon="6.00686">
        <ele>1269.2</ele>
        <time>2021-08-19T11:05:55Z</time>
      </trkpt>
      <trkpt lat="46.42566" lon="6.00692">
        <ele>1268.9</ele>
        <time>2021-08-19T11:05:57Z</time>
      </trkpt>
      <trkpt lat="46.42562" lon="6.00699">
        <ele>1268.5</ele>
        <time>2021-08-19T11:05:58Z</time>
      </trkpt>
      <trkpt lat="46.4256" lon="6.00702">
        <ele>1268.2</ele>
        <time>2021-08-19T11:05:59Z</time>
      </trkpt>
      <trkpt lat="46.42557" lon="6.00704">
        <ele>1267.9</ele>
        <time>2021-08-19T11:06:00Z</time>
      </trkpt>
      <trkpt lat="46.42552" lon="6.00701">
        <ele>1267.4</ele>
        <time>2021-08-19T11:06:01Z</time>
      </trkpt>
      <trkpt lat="46.42546" lon="6.00696">
        <ele>1266.8</ele>
        <time>2021-08-19T11:06:03Z</time>
      </trkpt>
      <trkpt lat="46.42541" lon="6.00692">
        <ele>1266.4</ele>
        <time>2021-08-19T11:06:04Z</time>
      </trkpt>
      <trkpt lat="46.42533" lon="6.00683">
        <ele>1265.4</ele>
        <time>2021-08-19T11:06:05Z</time>
      </trkpt>
      <trkpt lat="46.42527" lon="6.00677">
        <ele>1264.7</ele>
        <time>2021-08-19T11:06:06Z</time>
      </trkpt>
      <trkpt lat="46.42518" lon="6.00665">
        <ele>1263.3</ele>
        <time>2021-08-19T11:06:08Z</time>
      </trkpt>
      <trkpt lat="46.42507" lon="6.00652">
        <ele>1261.8</ele>
        <time>2021-08-19T11:06:10Z</time>
      </trkpt>
      <trkpt lat="46.42492" lon="6.0064">
        <ele>1259.9</ele>
        <time>2021-08-19T11:06:12Z</time>
      </trkpt>
      <trkpt lat="46.42476" lon="6.00626">
        <ele>1257.8</ele>
        <time>2021-08-19T11:06:14Z</time>
      </trkpt>
      <trkpt lat="46.42457" lon="6.00612">
        <ele>1254.9</ele>
        <time>2021-08-19T11:06:16Z</time>
      </trkpt>
      <trkpt lat="46.42447" lon="6.00604">
        <ele>1253.2</ele>
        <time>2021-08-19T11:06:17Z</time>
      </trkpt>
      <trkpt lat="46.42426" lon="6.00587">
        <ele>1250.2</ele>
        <time>2021-08-19T11:06:19Z</time>
      </trkpt>
      <trkpt lat="46.42417" lon="6.0058">
        <ele>1249</ele>
        <time>2021-08-19T11:06:20Z</time>
      </trkpt>
      <trkpt lat="46.424" lon="6.00566">
        <ele>1246.8</ele>
        <time>2021-08-19T11:06:22Z</time>
      </trkpt>
      <trkpt lat="46.42378" lon="6.00545">
        <ele>1243.7</ele>
        <time>2021-08-19T11:06:24Z</time>
      </trkpt>
      <trkpt lat="46.42357" lon="6.00522">
        <ele>1241</ele>
        <time>2021-08-19T11:06:26Z</time>
      </trkpt>
      <trkpt lat="46.42338" lon="6.00504">
        <ele>1239.1</ele>
        <time>2021-08-19T11:06:28Z</time>
      </trkpt>
      <trkpt lat="46.42322" lon="6.00486">
        <ele>1237.6</ele>
        <time>2021-08-19T11:06:30Z</time>
      </trkpt>
      <trkpt lat="46.42314" lon="6.00477">
        <ele>1236.9</ele>
        <time>2021-08-19T11:06:31Z</time>
      </trkpt>
      <trkpt lat="46.42307" lon="6.0047">
        <ele>1236.3</ele>
        <time>2021-08-19T11:06:32Z</time>
      </trkpt>
      <trkpt lat="46.42294" lon="6.00461">
        <ele>1235.3</ele>
        <time>2021-08-19T11:06:34Z</time>
      </trkpt>
      <trkpt lat="46.42288" lon="6.00459">
        <ele>1234.9</ele>
        <time>2021-08-19T11:06:35Z</time>
      </trkpt>
      <trkpt lat="46.42284" lon="6.00459">
        <ele>1234.6</ele>
        <time>2021-08-19T11:06:36Z</time>
      </trkpt>
      <trkpt lat="46.42268" lon="6.00462">
        <ele>1233.5</ele>
        <time>2021-08-19T11:06:38Z</time>
      </trkpt>
      <trkpt lat="46.42265" lon="6.00464">
        <ele>1233.2</ele>
        <time>2021-08-19T11:06:39Z</time>
      </trkpt>
      <trkpt lat="46.4226" lon="6.00466">
        <ele>1232.8</ele>
        <time>2021-08-19T11:06:40Z</time>
      </trkpt>
      <trkpt lat="46.42252" lon="6.00474">
        <ele>1231.9</ele>
        <time>2021-08-19T11:06:42Z</time>
      </trkpt>
      <trkpt lat="46.42249" lon="6.00481">
        <ele>1231.3</ele>
        <time>2021-08-19T11:06:43Z</time>
      </trkpt>
      <trkpt lat="46.42248" lon="6.00484">
        <ele>1231.2</ele>
        <time>2021-08-19T11:06:44Z</time>
      </trkpt>
      <trkpt lat="46.42245" lon="6.00481">
        <ele>1231.2</ele>
        <time>2021-08-19T11:06:45Z</time>
      </trkpt>
      <trkpt lat="46.42247" lon="6.0049">
        <ele>1231.2</ele>
        <time>2021-08-19T11:06:47Z</time>
      </trkpt>
      <trkpt lat="46.42247" lon="6.00495">
        <ele>1231.2</ele>
        <time>2021-08-19T11:06:48Z</time>
      </trkpt>
      <trkpt lat="46.42256" lon="6.00533">
        <ele>1231</ele>
        <time>2021-08-19T11:06:50Z</time>
      </trkpt>
      <trkpt lat="46.42265" lon="6.00559">
        <ele>1230.7</ele>
        <time>2021-08-19T11:06:52Z</time>
      </trkpt>
      <trkpt lat="46.42265" lon="6.00567">
        <ele>1230.6</ele>
        <time>2021-08-19T11:06:53Z</time>
      </trkpt>
      <trkpt lat="46.42267" lon="6.00574">
        <ele>1230.5</ele>
        <time>2021-08-19T11:06:54Z</time>
      </trkpt>
      <trkpt lat="46.4227" lon="6.00585">
        <ele>1230.3</ele>
        <time>2021-08-19T11:06:55Z</time>
      </trkpt>
      <trkpt lat="46.42272" lon="6.00589">
        <ele>1230.3</ele>
        <time>2021-08-19T11:06:56Z</time>
      </trkpt>
      <trkpt lat="46.42274" lon="6.00593">
        <ele>1230.2</ele>
        <time>2021-08-19T11:06:58Z</time>
      </trkpt>
      <trkpt lat="46.42277" lon="6.00597">
        <ele>1230</ele>
        <time>2021-08-19T11:06:59Z</time>
      </trkpt>
      <trkpt lat="46.42291" lon="6.00617">
        <ele>1229.1</ele>
        <time>2021-08-19T11:07:01Z</time>
      </trkpt>
      <trkpt lat="46.42304" lon="6.00636">
        <ele>1227.9</ele>
        <time>2021-08-19T11:07:02Z</time>
      </trkpt>
      <trkpt lat="46.42317" lon="6.00654">
        <ele>1226.3</ele>
        <time>2021-08-19T11:07:05Z</time>
      </trkpt>
      <trkpt lat="46.42327" lon="6.00673">
        <ele>1224.7</ele>
        <time>2021-08-19T11:07:06Z</time>
      </trkpt>
      <trkpt lat="46.42339" lon="6.00701">
        <ele>1222.6</ele>
        <time>2021-08-19T11:07:08Z</time>
      </trkpt>
      <trkpt lat="46.42341" lon="6.00727">
        <ele>1220.6</ele>
        <time>2021-08-19T11:07:10Z</time>
      </trkpt>
      <trkpt lat="46.42341" lon="6.00741">
        <ele>1219.7</ele>
        <time>2021-08-19T11:07:11Z</time>
      </trkpt>
      <trkpt lat="46.42341" lon="6.00766">
        <ele>1218</ele>
        <time>2021-08-19T11:07:13Z</time>
      </trkpt>
      <trkpt lat="46.42341" lon="6.00779">
        <ele>1217.3</ele>
        <time>2021-08-19T11:07:14Z</time>
      </trkpt>
      <trkpt lat="46.42337" lon="6.00803">
        <ele>1215.9</ele>
        <time>2021-08-19T11:07:16Z</time>
      </trkpt>
      <trkpt lat="46.42332" lon="6.00823">
        <ele>1214.2</ele>
        <time>2021-08-19T11:07:18Z</time>
      </trkpt>
      <trkpt lat="46.42328" lon="6.00831">
        <ele>1213.8</ele>
        <time>2021-08-19T11:07:19Z</time>
      </trkpt>
      <trkpt lat="46.42325" lon="6.00837">
        <ele>1213.4</ele>
        <time>2021-08-19T11:07:20Z</time>
      </trkpt>
      <trkpt lat="46.42322" lon="6.00844">
        <ele>1213</ele>
        <time>2021-08-19T11:07:22Z</time>
      </trkpt>
      <trkpt lat="46.42321" lon="6.00845">
        <ele>1212.9</ele>
        <time>2021-08-19T11:07:23Z</time>
      </trkpt>
      <trkpt lat="46.42319" lon="6.00847">
        <ele>1212.7</ele>
        <time>2021-08-19T11:07:24Z</time>
      </trkpt>
      <trkpt lat="46.42317" lon="6.0085">
        <ele>1212.5</ele>
        <time>2021-08-19T11:07:26Z</time>
      </trkpt>
      <trkpt lat="46.42317" lon="6.00852">
        <ele>1212.4</ele>
        <time>2021-08-19T11:07:27Z</time>
      </trkpt>
      <trkpt lat="46.42316" lon="6.00853">
        <ele>1212.3</ele>
        <time>2021-08-19T11:07:29Z</time>
      </trkpt>
      <trkpt lat="46.42317" lon="6.00853">
        <ele>1212.3</ele>
        <time>2021-08-19T11:07:31Z</time>
      </trkpt>
      <trkpt lat="46.42317" lon="6.00853">
        <ele>1212.2</ele>
        <time>2021-08-19T11:07:32Z</time>
      </trkpt>
      <trkpt lat="46.42317" lon="6.00853">
        <ele>1212.2</ele>
        <time>2021-08-19T11:07:33Z</time>
      </trkpt>
      <trkpt lat="46.42317" lon="6.00853">
        <ele>1212.2</ele>
        <time>2021-08-19T11:07:34Z</time>
      </trkpt>
      <trkpt lat="46.42317" lon="6.00853">
        <ele>1212.2</ele>
        <time>2021-08-19T11:07:35Z</time>
      </trkpt>
      <trkpt lat="46.42317" lon="6.00853">
        <ele>1212.2</ele>
        <time>2021-08-19T11:07:36Z</time>
      </trkpt>
      <trkpt lat="46.42317" lon="6.00853">
        <ele>1212.2</ele>
        <time>2021-08-19T11:07:38Z</time>
      </trkpt>
      <trkpt lat="46.42316" lon="6.00854">
        <ele>1212.1</ele>
        <time>2021-08-19T11:07:40Z</time>
      </trkpt>
      <trkpt lat="46.42315" lon="6.00857">
        <ele>1211.9</ele>
        <time>2021-08-19T11:07:58Z</time>
      </trkpt>
      <trkpt lat="46.42317" lon="6.00857">
        <ele>1211.7</ele>
        <time>2021-08-19T11:07:59Z</time>
      </trkpt>
      <trkpt lat="46.42318" lon="6.00856">
        <ele>1211.6</ele>
        <time>2021-08-19T11:08:00Z</time>
      </trkpt>
      <trkpt lat="46.42319" lon="6.00854">
        <ele>1211.5</ele>
        <time>2021-08-19T11:08:02Z</time>
      </trkpt>
      <trkpt lat="46.42319" lon="6.00853">
        <ele>1211.4</ele>
        <time>2021-08-19T11:08:03Z</time>
      </trkpt>
      <trkpt lat="46.42319" lon="6.00852">
        <ele>1211.3</ele>
        <time>2021-08-19T11:08:05Z</time>
      </trkpt>
      <trkpt lat="46.42319" lon="6.00852">
        <ele>1211.3</ele>
        <time>2021-08-19T11:08:06Z</time>
      </trkpt>
      <trkpt lat="46.42319" lon="6.00852">
        <ele>1211.3</ele>
        <time>2021-08-19T11:08:08Z</time>
      </trkpt>
      <trkpt lat="46.42319" lon="6.00852">
        <ele>1211.3</ele>
        <time>2021-08-19T11:08:09Z</time>
      </trkpt>
      <trkpt lat="46.42317" lon="6.00855">
        <ele>1211.1</ele>
        <time>2021-08-19T11:08:11Z</time>
      </trkpt>
      <trkpt lat="46.4231" lon="6.00869">
        <ele>1208.8</ele>
        <time>2021-08-19T11:08:14Z</time>
      </trkpt>
      <trkpt lat="46.42303" lon="6.00886">
        <ele>1207.5</ele>
        <time>2021-08-19T11:08:16Z</time>
      </trkpt>
      <trkpt lat="46.42294" lon="6.00904">
        <ele>1207.6</ele>
        <time>2021-08-19T11:08:18Z</time>
      </trkpt>
      <trkpt lat="46.42288" lon="6.00922">
        <ele>1207.8</ele>
        <time>2021-08-19T11:08:20Z</time>
      </trkpt>
      <trkpt lat="46.42287" lon="6.00931">
        <ele>1207.9</ele>
        <time>2021-08-19T11:08:21Z</time>
      </trkpt>
      <trkpt lat="46.42286" lon="6.0094">
        <ele>1208</ele>
        <time>2021-08-19T11:08:22Z</time>
      </trkpt>
      <trkpt lat="46.42285" lon="6.00948">
        <ele>1208.2</ele>
        <time>2021-08-19T11:08:23Z</time>
      </trkpt>
      <trkpt lat="46.42285" lon="6.00955">
        <ele>1208.4</ele>
        <time>2021-08-19T11:08:24Z</time>
      </trkpt>
      <trkpt lat="46.42284" lon="6.00969">
        <ele>1208.8</ele>
        <time>2021-08-19T11:08:26Z</time>
      </trkpt>
      <trkpt lat="46.42286" lon="6.0098">
        <ele>1209.2</ele>
        <time>2021-08-19T11:08:28Z</time>
      </trkpt>
      <trkpt lat="46.42286" lon="6.00985">
        <ele>1209.3</ele>
        <time>2021-08-19T11:08:29Z</time>
      </trkpt>
      <trkpt lat="46.42287" lon="6.0099">
        <ele>1209.5</ele>
        <time>2021-08-19T11:08:30Z</time>
      </trkpt>
      <trkpt lat="46.4229" lon="6.01">
        <ele>1209.9</ele>
        <time>2021-08-19T11:08:32Z</time>
      </trkpt>
      <trkpt lat="46.42293" lon="6.01008">
        <ele>1210.1</ele>
        <time>2021-08-19T11:08:34Z</time>
      </trkpt>
      <trkpt lat="46.42294" lon="6.0101">
        <ele>1210.2</ele>
        <time>2021-08-19T11:08:35Z</time>
      </trkpt>
      <trkpt lat="46.42295" lon="6.01013">
        <ele>1210.2</ele>
        <time>2021-08-19T11:08:36Z</time>
      </trkpt>
      <trkpt lat="46.42301" lon="6.01015">
        <ele>1210.3</ele>
        <time>2021-08-19T11:08:38Z</time>
      </trkpt>
      <trkpt lat="46.42305" lon="6.01017">
        <ele>1210.4</ele>
        <time>2021-08-19T11:08:40Z</time>
      </trkpt>
      <trkpt lat="46.42306" lon="6.01018">
        <ele>1210.3</ele>
        <time>2021-08-19T11:08:42Z</time>
      </trkpt>
      <trkpt lat="46.42306" lon="6.01019">
        <ele>1210.3</ele>
        <time>2021-08-19T11:08:44Z</time>
      </trkpt>
      <trkpt lat="46.42305" lon="6.01022">
        <ele>1210.3</ele>
        <time>2021-08-19T11:08:46Z</time>
      </trkpt>
      <trkpt lat="46.42305" lon="6.01026">
        <ele>1210.2</ele>
        <time>2021-08-19T11:08:47Z</time>
      </trkpt>
      <trkpt lat="46.42303" lon="6.0104">
        <ele>1210</ele>
        <time>2021-08-19T11:08:49Z</time>
      </trkpt>
      <trkpt lat="46.42303" lon="6.01046">
        <ele>1209.9</ele>
        <time>2021-08-19T11:08:50Z</time>
      </trkpt>
      <trkpt lat="46.42307" lon="6.01058">
        <ele>1209.7</ele>
        <time>2021-08-19T11:08:52Z</time>
      </trkpt>
      <trkpt lat="46.42309" lon="6.01065">
        <ele>1209.6</ele>
        <time>2021-08-19T11:08:53Z</time>
      </trkpt>
      <trkpt lat="46.42313" lon="6.01079">
        <ele>1209.3</ele>
        <time>2021-08-19T11:08:55Z</time>
      </trkpt>
      <trkpt lat="46.42314" lon="6.01087">
        <ele>1209.1</ele>
        <time>2021-08-19T11:08:56Z</time>
      </trkpt>
      <trkpt lat="46.42313" lon="6.01103">
        <ele>1208.8</ele>
        <time>2021-08-19T11:08:58Z</time>
      </trkpt>
      <trkpt lat="46.42311" lon="6.01111">
        <ele>1208.6</ele>
        <time>2021-08-19T11:08:59Z</time>
      </trkpt>
      <trkpt lat="46.4231" lon="6.01117">
        <ele>1208.4</ele>
        <time>2021-08-19T11:09:00Z</time>
      </trkpt>
      <trkpt lat="46.42305" lon="6.01128">
        <ele>1208.1</ele>
        <time>2021-08-19T11:09:02Z</time>
      </trkpt>
      <trkpt lat="46.42302" lon="6.01135">
        <ele>1207.9</ele>
        <time>2021-08-19T11:09:03Z</time>
      </trkpt>
      <trkpt lat="46.42295" lon="6.01146">
        <ele>1207.5</ele>
        <time>2021-08-19T11:09:04Z</time>
      </trkpt>
      <trkpt lat="46.42291" lon="6.01143">
        <ele>1207.3</ele>
        <time>2021-08-19T11:09:06Z</time>
      </trkpt>
      <trkpt lat="46.42288" lon="6.01148">
        <ele>1207.2</ele>
        <time>2021-08-19T11:09:07Z</time>
      </trkpt>
      <trkpt lat="46.42284" lon="6.01154">
        <ele>1207</ele>
        <time>2021-08-19T11:09:08Z</time>
      </trkpt>
      <trkpt lat="46.42278" lon="6.01159">
        <ele>1206.9</ele>
        <time>2021-08-19T11:09:09Z</time>
      </trkpt>
      <trkpt lat="46.42274" lon="6.01163">
        <ele>1206.8</ele>
        <time>2021-08-19T11:09:10Z</time>
      </trkpt>
      <trkpt lat="46.42271" lon="6.01165">
        <ele>1206.7</ele>
        <time>2021-08-19T11:09:12Z</time>
      </trkpt>
      <trkpt lat="46.42265" lon="6.01167">
        <ele>1206.6</ele>
        <time>2021-08-19T11:09:14Z</time>
      </trkpt>
      <trkpt lat="46.42258" lon="6.01164">
        <ele>1206.6</ele>
        <time>2021-08-19T11:09:16Z</time>
      </trkpt>
      <trkpt lat="46.42254" lon="6.01162">
        <ele>1206.5</ele>
        <time>2021-08-19T11:09:17Z</time>
      </trkpt>
      <trkpt lat="46.42251" lon="6.01159">
        <ele>1206.5</ele>
        <time>2021-08-19T11:09:18Z</time>
      </trkpt>
      <trkpt lat="46.42244" lon="6.01153">
        <ele>1206.5</ele>
        <time>2021-08-19T11:09:20Z</time>
      </trkpt>
      <trkpt lat="46.42238" lon="6.01147">
        <ele>1206.5</ele>
        <time>2021-08-19T11:09:21Z</time>
      </trkpt>
      <trkpt lat="46.42232" lon="6.01141">
        <ele>1206.6</ele>
        <time>2021-08-19T11:09:23Z</time>
      </trkpt>
      <trkpt lat="46.42226" lon="6.01134">
        <ele>1206.6</ele>
        <time>2021-08-19T11:09:24Z</time>
      </trkpt>
      <trkpt lat="46.42222" lon="6.0113">
        <ele>1206.7</ele>
        <time>2021-08-19T11:09:25Z</time>
      </trkpt>
      <trkpt lat="46.42219" lon="6.01127">
        <ele>1206.7</ele>
        <time>2021-08-19T11:09:26Z</time>
      </trkpt>
      <trkpt lat="46.42216" lon="6.01125">
        <ele>1206.7</ele>
        <time>2021-08-19T11:09:27Z</time>
      </trkpt>
      <trkpt lat="46.42211" lon="6.01122">
        <ele>1206.9</ele>
        <time>2021-08-19T11:09:28Z</time>
      </trkpt>
      <trkpt lat="46.42205" lon="6.01119">
        <ele>1207.2</ele>
        <time>2021-08-19T11:09:30Z</time>
      </trkpt>
      <trkpt lat="46.42201" lon="6.01117">
        <ele>1207.4</ele>
        <time>2021-08-19T11:09:31Z</time>
      </trkpt>
      <trkpt lat="46.42197" lon="6.01114">
        <ele>1207.5</ele>
        <time>2021-08-19T11:09:32Z</time>
      </trkpt>
      <trkpt lat="46.42192" lon="6.01111">
        <ele>1207.6</ele>
        <time>2021-08-19T11:09:33Z</time>
      </trkpt>
      <trkpt lat="46.42186" lon="6.01108">
        <ele>1207.7</ele>
        <time>2021-08-19T11:09:35Z</time>
      </trkpt>
      <trkpt lat="46.42181" lon="6.01106">
        <ele>1207.7</ele>
        <time>2021-08-19T11:09:36Z</time>
      </trkpt>
      <trkpt lat="46.42177" lon="6.01104">
        <ele>1207.8</ele>
        <time>2021-08-19T11:09:37Z</time>
      </trkpt>
      <trkpt lat="46.42171" lon="6.01102">
        <ele>1207.8</ele>
        <time>2021-08-19T11:09:38Z</time>
      </trkpt>
      <trkpt lat="46.42165" lon="6.01099">
        <ele>1207.9</ele>
        <time>2021-08-19T11:09:39Z</time>
      </trkpt>
      <trkpt lat="46.42161" lon="6.01097">
        <ele>1207.9</ele>
        <time>2021-08-19T11:09:40Z</time>
      </trkpt>
      <trkpt lat="46.42157" lon="6.01094">
        <ele>1208</ele>
        <time>2021-08-19T11:09:41Z</time>
      </trkpt>
      <trkpt lat="46.42154" lon="6.01091">
        <ele>1208</ele>
        <time>2021-08-19T11:09:42Z</time>
      </trkpt>
      <trkpt lat="46.42152" lon="6.01088">
        <ele>1208</ele>
        <time>2021-08-19T11:09:43Z</time>
      </trkpt>
      <trkpt lat="46.42148" lon="6.01084">
        <ele>1208.1</ele>
        <time>2021-08-19T11:09:44Z</time>
      </trkpt>
      <trkpt lat="46.42147" lon="6.01083">
        <ele>1208.1</ele>
        <time>2021-08-19T11:09:45Z</time>
      </trkpt>
      <trkpt lat="46.42145" lon="6.01079">
        <ele>1208.1</ele>
        <time>2021-08-19T11:09:46Z</time>
      </trkpt>
      <trkpt lat="46.42142" lon="6.01073">
        <ele>1208.1</ele>
        <time>2021-08-19T11:09:48Z</time>
      </trkpt>
      <trkpt lat="46.42141" lon="6.01071">
        <ele>1208.1</ele>
        <time>2021-08-19T11:09:49Z</time>
      </trkpt>
      <trkpt lat="46.4214" lon="6.01068">
        <ele>1208.1</ele>
        <time>2021-08-19T11:09:50Z</time>
      </trkpt>
      <trkpt lat="46.42138" lon="6.01067">
        <ele>1208.1</ele>
        <time>2021-08-19T11:09:51Z</time>
      </trkpt>
      <trkpt lat="46.42134" lon="6.01066">
        <ele>1208.2</ele>
        <time>2021-08-19T11:09:52Z</time>
      </trkpt>
      <trkpt lat="46.42131" lon="6.01065">
        <ele>1208.2</ele>
        <time>2021-08-19T11:09:53Z</time>
      </trkpt>
      <trkpt lat="46.42127" lon="6.01063">
        <ele>1208.2</ele>
        <time>2021-08-19T11:09:54Z</time>
      </trkpt>
      <trkpt lat="46.42125" lon="6.01061">
        <ele>1208.2</ele>
        <time>2021-08-19T11:09:55Z</time>
      </trkpt>
      <trkpt lat="46.42122" lon="6.01057">
        <ele>1208.2</ele>
        <time>2021-08-19T11:09:56Z</time>
      </trkpt>
      <trkpt lat="46.4212" lon="6.01054">
        <ele>1208.2</ele>
        <time>2021-08-19T11:09:58Z</time>
      </trkpt>
      <trkpt lat="46.42118" lon="6.0105">
        <ele>1208.2</ele>
        <time>2021-08-19T11:09:59Z</time>
      </trkpt>
      <trkpt lat="46.42113" lon="6.01041">
        <ele>1208.1</ele>
        <time>2021-08-19T11:10:00Z</time>
      </trkpt>
      <trkpt lat="46.4211" lon="6.01035">
        <ele>1208.1</ele>
        <time>2021-08-19T11:10:02Z</time>
      </trkpt>
      <trkpt lat="46.42105" lon="6.01029">
        <ele>1208.1</ele>
        <time>2021-08-19T11:10:03Z</time>
      </trkpt>
      <trkpt lat="46.42102" lon="6.01025">
        <ele>1208.1</ele>
        <time>2021-08-19T11:10:04Z</time>
      </trkpt>
      <trkpt lat="46.42099" lon="6.01021">
        <ele>1208.1</ele>
        <time>2021-08-19T11:10:05Z</time>
      </trkpt>
      <trkpt lat="46.42095" lon="6.01017">
        <ele>1208.1</ele>
        <time>2021-08-19T11:10:07Z</time>
      </trkpt>
      <trkpt lat="46.42091" lon="6.01013">
        <ele>1208.1</ele>
        <time>2021-08-19T11:10:08Z</time>
      </trkpt>
      <trkpt lat="46.42086" lon="6.01009">
        <ele>1208.1</ele>
        <time>2021-08-19T11:10:09Z</time>
      </trkpt>
      <trkpt lat="46.42081" lon="6.01004">
        <ele>1208.1</ele>
        <time>2021-08-19T11:10:10Z</time>
      </trkpt>
      <trkpt lat="46.42077" lon="6.01">
        <ele>1208.1</ele>
        <time>2021-08-19T11:10:11Z</time>
      </trkpt>
      <trkpt lat="46.42074" lon="6.00997">
        <ele>1208.1</ele>
        <time>2021-08-19T11:10:12Z</time>
      </trkpt>
      <trkpt lat="46.4207" lon="6.00994">
        <ele>1208.1</ele>
        <time>2021-08-19T11:10:13Z</time>
      </trkpt>
      <trkpt lat="46.42066" lon="6.0099">
        <ele>1208.1</ele>
        <time>2021-08-19T11:10:14Z</time>
      </trkpt>
      <trkpt lat="46.42062" lon="6.00986">
        <ele>1208.1</ele>
        <time>2021-08-19T11:10:16Z</time>
      </trkpt>
      <trkpt lat="46.42057" lon="6.00983">
        <ele>1208</ele>
        <time>2021-08-19T11:10:17Z</time>
      </trkpt>
      <trkpt lat="46.42049" lon="6.00975">
        <ele>1207.9</ele>
        <time>2021-08-19T11:10:18Z</time>
      </trkpt>
      <trkpt lat="46.42046" lon="6.00971">
        <ele>1207.8</ele>
        <time>2021-08-19T11:10:19Z</time>
      </trkpt>
      <trkpt lat="46.4204" lon="6.00967">
        <ele>1207.6</ele>
        <time>2021-08-19T11:10:20Z</time>
      </trkpt>
      <trkpt lat="46.4203" lon="6.0096">
        <ele>1207.4</ele>
        <time>2021-08-19T11:10:22Z</time>
      </trkpt>
      <trkpt lat="46.42022" lon="6.0095">
        <ele>1207</ele>
        <time>2021-08-19T11:10:24Z</time>
      </trkpt>
      <trkpt lat="46.42018" lon="6.00945">
        <ele>1206.8</ele>
        <time>2021-08-19T11:10:25Z</time>
      </trkpt>
      <trkpt lat="46.42013" lon="6.00941">
        <ele>1206.6</ele>
        <time>2021-08-19T11:10:26Z</time>
      </trkpt>
      <trkpt lat="46.42004" lon="6.00933">
        <ele>1206.2</ele>
        <time>2021-08-19T11:10:28Z</time>
      </trkpt>
      <trkpt lat="46.42001" lon="6.00928">
        <ele>1205.9</ele>
        <time>2021-08-19T11:10:29Z</time>
      </trkpt>
      <trkpt lat="46.41997" lon="6.00923">
        <ele>1205.7</ele>
        <time>2021-08-19T11:10:30Z</time>
      </trkpt>
      <trkpt lat="46.41991" lon="6.00913">
        <ele>1205.3</ele>
        <time>2021-08-19T11:10:32Z</time>
      </trkpt>
      <trkpt lat="46.41984" lon="6.00901">
        <ele>1204.9</ele>
        <time>2021-08-19T11:10:34Z</time>
      </trkpt>
      <trkpt lat="46.4198" lon="6.00895">
        <ele>1204.6</ele>
        <time>2021-08-19T11:10:35Z</time>
      </trkpt>
      <trkpt lat="46.41973" lon="6.00883">
        <ele>1204.1</ele>
        <time>2021-08-19T11:10:37Z</time>
      </trkpt>
      <trkpt lat="46.41969" lon="6.00876">
        <ele>1203.8</ele>
        <time>2021-08-19T11:10:38Z</time>
      </trkpt>
      <trkpt lat="46.41961" lon="6.00863">
        <ele>1203.3</ele>
        <time>2021-08-19T11:10:40Z</time>
      </trkpt>
      <trkpt lat="46.41957" lon="6.00857">
        <ele>1203.1</ele>
        <time>2021-08-19T11:10:41Z</time>
      </trkpt>
      <trkpt lat="46.41954" lon="6.00852">
        <ele>1202.8</ele>
        <time>2021-08-19T11:10:42Z</time>
      </trkpt>
      <trkpt lat="46.41951" lon="6.00846">
        <ele>1202.7</ele>
        <time>2021-08-19T11:10:43Z</time>
      </trkpt>
      <trkpt lat="46.41949" lon="6.00839">
        <ele>1202.5</ele>
        <time>2021-08-19T11:10:44Z</time>
      </trkpt>
      <trkpt lat="46.41947" lon="6.00823">
        <ele>1202.1</ele>
        <time>2021-08-19T11:10:46Z</time>
      </trkpt>
      <trkpt lat="46.41947" lon="6.00814">
        <ele>1201.9</ele>
        <time>2021-08-19T11:10:47Z</time>
      </trkpt>
      <trkpt lat="46.41947" lon="6.00805">
        <ele>1201.7</ele>
        <time>2021-08-19T11:10:48Z</time>
      </trkpt>
      <trkpt lat="46.41948" lon="6.00787">
        <ele>1201.3</ele>
        <time>2021-08-19T11:10:50Z</time>
      </trkpt>
      <trkpt lat="46.41947" lon="6.0077">
        <ele>1201.1</ele>
        <time>2021-08-19T11:10:52Z</time>
      </trkpt>
      <trkpt lat="46.41947" lon="6.00762">
        <ele>1200.9</ele>
        <time>2021-08-19T11:10:53Z</time>
      </trkpt>
      <trkpt lat="46.41947" lon="6.00754">
        <ele>1200.8</ele>
        <time>2021-08-19T11:10:54Z</time>
      </trkpt>
      <trkpt lat="46.41944" lon="6.00739">
        <ele>1200.5</ele>
        <time>2021-08-19T11:10:56Z</time>
      </trkpt>
      <trkpt lat="46.41941" lon="6.00722">
        <ele>1200.2</ele>
        <time>2021-08-19T11:10:58Z</time>
      </trkpt>
      <trkpt lat="46.41937" lon="6.00706">
        <ele>1199.8</ele>
        <time>2021-08-19T11:11:00Z</time>
      </trkpt>
      <trkpt lat="46.41935" lon="6.00698">
        <ele>1199.6</ele>
        <time>2021-08-19T11:11:01Z</time>
      </trkpt>
      <trkpt lat="46.41933" lon="6.0069">
        <ele>1199.4</ele>
        <time>2021-08-19T11:11:02Z</time>
      </trkpt>
      <trkpt lat="46.41926" lon="6.00675">
        <ele>1199</ele>
        <time>2021-08-19T11:11:04Z</time>
      </trkpt>
      <trkpt lat="46.41924" lon="6.00666">
        <ele>1198.7</ele>
        <time>2021-08-19T11:11:05Z</time>
      </trkpt>
      <trkpt lat="46.41921" lon="6.00657">
        <ele>1198.4</ele>
        <time>2021-08-19T11:11:06Z</time>
      </trkpt>
      <trkpt lat="46.41914" lon="6.00642">
        <ele>1197.9</ele>
        <time>2021-08-19T11:11:08Z</time>
      </trkpt>
      <trkpt lat="46.41904" lon="6.00628">
        <ele>1197.4</ele>
        <time>2021-08-19T11:11:10Z</time>
      </trkpt>
      <trkpt lat="46.41894" lon="6.00615">
        <ele>1196.9</ele>
        <time>2021-08-19T11:11:12Z</time>
      </trkpt>
      <trkpt lat="46.41883" lon="6.00602">
        <ele>1196.3</ele>
        <time>2021-08-19T11:11:14Z</time>
      </trkpt>
      <trkpt lat="46.41872" lon="6.00589">
        <ele>1195.6</ele>
        <time>2021-08-19T11:11:16Z</time>
      </trkpt>
      <trkpt lat="46.41863" lon="6.00574">
        <ele>1194.9</ele>
        <time>2021-08-19T11:11:18Z</time>
      </trkpt>
      <trkpt lat="46.41859" lon="6.00567">
        <ele>1194.6</ele>
        <time>2021-08-19T11:11:19Z</time>
      </trkpt>
      <trkpt lat="46.41855" lon="6.0056">
        <ele>1194.4</ele>
        <time>2021-08-19T11:11:20Z</time>
      </trkpt>
      <trkpt lat="46.41847" lon="6.00547">
        <ele>1194</ele>
        <time>2021-08-19T11:11:22Z</time>
      </trkpt>
      <trkpt lat="46.41842" lon="6.00542">
        <ele>1193.8</ele>
        <time>2021-08-19T11:11:23Z</time>
      </trkpt>
      <trkpt lat="46.41837" lon="6.00537">
        <ele>1193.6</ele>
        <time>2021-08-19T11:11:24Z</time>
      </trkpt>
      <trkpt lat="46.41828" lon="6.00525">
        <ele>1193.2</ele>
        <time>2021-08-19T11:11:26Z</time>
      </trkpt>
      <trkpt lat="46.4182" lon="6.00513">
        <ele>1192.8</ele>
        <time>2021-08-19T11:11:28Z</time>
      </trkpt>
      <trkpt lat="46.41813" lon="6.005">
        <ele>1192.5</ele>
        <time>2021-08-19T11:11:30Z</time>
      </trkpt>
      <trkpt lat="46.4181" lon="6.00494">
        <ele>1192.4</ele>
        <time>2021-08-19T11:11:31Z</time>
      </trkpt>
      <trkpt lat="46.41807" lon="6.00487">
        <ele>1192.3</ele>
        <time>2021-08-19T11:11:32Z</time>
      </trkpt>
      <trkpt lat="46.41804" lon="6.00481">
        <ele>1192.2</ele>
        <time>2021-08-19T11:11:33Z</time>
      </trkpt>
      <trkpt lat="46.41799" lon="6.00469">
        <ele>1192.1</ele>
        <time>2021-08-19T11:11:35Z</time>
      </trkpt>
      <trkpt lat="46.41797" lon="6.00463">
        <ele>1192</ele>
        <time>2021-08-19T11:11:36Z</time>
      </trkpt>
      <trkpt lat="46.41792" lon="6.00452">
        <ele>1191.8</ele>
        <time>2021-08-19T11:11:38Z</time>
      </trkpt>
      <trkpt lat="46.4179" lon="6.00445">
        <ele>1191.7</ele>
        <time>2021-08-19T11:11:39Z</time>
      </trkpt>
      <trkpt lat="46.41786" lon="6.00431">
        <ele>1191.6</ele>
        <time>2021-08-19T11:11:41Z</time>
      </trkpt>
      <trkpt lat="46.41784" lon="6.00423">
        <ele>1191.5</ele>
        <time>2021-08-19T11:11:42Z</time>
      </trkpt>
      <trkpt lat="46.41781" lon="6.00409">
        <ele>1191.3</ele>
        <time>2021-08-19T11:11:44Z</time>
      </trkpt>
      <trkpt lat="46.41778" lon="6.00395">
        <ele>1191.1</ele>
        <time>2021-08-19T11:11:46Z</time>
      </trkpt>
      <trkpt lat="46.41777" lon="6.00389">
        <ele>1191</ele>
        <time>2021-08-19T11:11:47Z</time>
      </trkpt>
      <trkpt lat="46.41773" lon="6.00376">
        <ele>1190.8</ele>
        <time>2021-08-19T11:11:49Z</time>
      </trkpt>
      <trkpt lat="46.41771" lon="6.00369">
        <ele>1190.8</ele>
        <time>2021-08-19T11:11:50Z</time>
      </trkpt>
      <trkpt lat="46.41769" lon="6.0036">
        <ele>1190.7</ele>
        <time>2021-08-19T11:11:52Z</time>
      </trkpt>
      <trkpt lat="46.41767" lon="6.00353">
        <ele>1190.6</ele>
        <time>2021-08-19T11:11:53Z</time>
      </trkpt>
      <trkpt lat="46.41766" lon="6.00346">
        <ele>1190.6</ele>
        <time>2021-08-19T11:11:54Z</time>
      </trkpt>
      <trkpt lat="46.41765" lon="6.0033">
        <ele>1190.5</ele>
        <time>2021-08-19T11:11:56Z</time>
      </trkpt>
      <trkpt lat="46.41764" lon="6.00316">
        <ele>1190.5</ele>
        <time>2021-08-19T11:11:58Z</time>
      </trkpt>
      <trkpt lat="46.41764" lon="6.00301">
        <ele>1190.5</ele>
        <time>2021-08-19T11:12:00Z</time>
      </trkpt>
      <trkpt lat="46.41765" lon="6.00285">
        <ele>1190.3</ele>
        <time>2021-08-19T11:12:02Z</time>
      </trkpt>
      <trkpt lat="46.41769" lon="6.00275">
        <ele>1190.2</ele>
        <time>2021-08-19T11:12:04Z</time>
      </trkpt>
      <trkpt lat="46.41772" lon="6.00265">
        <ele>1190.2</ele>
        <time>2021-08-19T11:12:06Z</time>
      </trkpt>
      <trkpt lat="46.41772" lon="6.00259">
        <ele>1190.1</ele>
        <time>2021-08-19T11:12:07Z</time>
      </trkpt>
      <trkpt lat="46.41773" lon="6.00253">
        <ele>1190.1</ele>
        <time>2021-08-19T11:12:08Z</time>
      </trkpt>
      <trkpt lat="46.41776" lon="6.00247">
        <ele>1190.2</ele>
        <time>2021-08-19T11:12:09Z</time>
      </trkpt>
      <trkpt lat="46.41778" lon="6.00236">
        <ele>1190.2</ele>
        <time>2021-08-19T11:12:11Z</time>
      </trkpt>
      <trkpt lat="46.4178" lon="6.00231">
        <ele>1190.2</ele>
        <time>2021-08-19T11:12:12Z</time>
      </trkpt>
      <trkpt lat="46.41782" lon="6.00225">
        <ele>1190.3</ele>
        <time>2021-08-19T11:12:13Z</time>
      </trkpt>
      <trkpt lat="46.41783" lon="6.00218">
        <ele>1190.4</ele>
        <time>2021-08-19T11:12:15Z</time>
      </trkpt>
      <trkpt lat="46.41784" lon="6.00214">
        <ele>1190.4</ele>
        <time>2021-08-19T11:12:16Z</time>
      </trkpt>
      <trkpt lat="46.41785" lon="6.00207">
        <ele>1190.5</ele>
        <time>2021-08-19T11:12:18Z</time>
      </trkpt>
      <trkpt lat="46.41785" lon="6.00199">
        <ele>1190.6</ele>
        <time>2021-08-19T11:12:19Z</time>
      </trkpt>
      <trkpt lat="46.41785" lon="6.00195">
        <ele>1190.7</ele>
        <time>2021-08-19T11:12:21Z</time>
      </trkpt>
      <trkpt lat="46.41785" lon="6.00189">
        <ele>1190.7</ele>
        <time>2021-08-19T11:12:22Z</time>
      </trkpt>
      <trkpt lat="46.41785" lon="6.00184">
        <ele>1190.8</ele>
        <time>2021-08-19T11:12:23Z</time>
      </trkpt>
      <trkpt lat="46.41784" lon="6.00177">
        <ele>1190.9</ele>
        <time>2021-08-19T11:12:25Z</time>
      </trkpt>
      <trkpt lat="46.41784" lon="6.00174">
        <ele>1190.9</ele>
        <time>2021-08-19T11:12:26Z</time>
      </trkpt>
      <trkpt lat="46.41784" lon="6.00172">
        <ele>1190.9</ele>
        <time>2021-08-19T11:12:27Z</time>
      </trkpt>
      <trkpt lat="46.41785" lon="6.00168">
        <ele>1191</ele>
        <time>2021-08-19T11:12:29Z</time>
      </trkpt>
      <trkpt lat="46.41786" lon="6.00164">
        <ele>1191</ele>
        <time>2021-08-19T11:12:30Z</time>
      </trkpt>
      <trkpt lat="46.41789" lon="6.00158">
        <ele>1191.2</ele>
        <time>2021-08-19T11:12:32Z</time>
      </trkpt>
      <trkpt lat="46.4179" lon="6.00151">
        <ele>1191.3</ele>
        <time>2021-08-19T11:12:33Z</time>
      </trkpt>
      <trkpt lat="46.41789" lon="6.00145">
        <ele>1191.3</ele>
        <time>2021-08-19T11:12:35Z</time>
      </trkpt>
      <trkpt lat="46.41788" lon="6.00141">
        <ele>1191.4</ele>
        <time>2021-08-19T11:12:36Z</time>
      </trkpt>
      <trkpt lat="46.41788" lon="6.00139">
        <ele>1191.4</ele>
        <time>2021-08-19T11:12:37Z</time>
      </trkpt>
      <trkpt lat="46.41786" lon="6.00137">
        <ele>1191.4</ele>
        <time>2021-08-19T11:12:38Z</time>
      </trkpt>
      <trkpt lat="46.41783" lon="6.00134">
        <ele>1191.4</ele>
        <time>2021-08-19T11:12:40Z</time>
      </trkpt>
      <trkpt lat="46.4178" lon="6.00131">
        <ele>1191.4</ele>
        <time>2021-08-19T11:12:41Z</time>
      </trkpt>
      <trkpt lat="46.41779" lon="6.00129">
        <ele>1191.4</ele>
        <time>2021-08-19T11:12:42Z</time>
      </trkpt>
      <trkpt lat="46.41776" lon="6.00127">
        <ele>1191.4</ele>
        <time>2021-08-19T11:12:43Z</time>
      </trkpt>
      <trkpt lat="46.41774" lon="6.00125">
        <ele>1191.4</ele>
        <time>2021-08-19T11:12:44Z</time>
      </trkpt>
      <trkpt lat="46.4177" lon="6.00122">
        <ele>1191.3</ele>
        <time>2021-08-19T11:12:46Z</time>
      </trkpt>
      <trkpt lat="46.41768" lon="6.00119">
        <ele>1191.3</ele>
        <time>2021-08-19T11:12:47Z</time>
      </trkpt>
      <trkpt lat="46.41762" lon="6.00113">
        <ele>1191.2</ele>
        <time>2021-08-19T11:12:48Z</time>
      </trkpt>
      <trkpt lat="46.41755" lon="6.0011">
        <ele>1191.1</ele>
        <time>2021-08-19T11:12:50Z</time>
      </trkpt>
      <trkpt lat="46.4175" lon="6.00105">
        <ele>1191</ele>
        <time>2021-08-19T11:12:52Z</time>
      </trkpt>
      <trkpt lat="46.41747" lon="6.00101">
        <ele>1191</ele>
        <time>2021-08-19T11:12:53Z</time>
      </trkpt>
      <trkpt lat="46.41742" lon="6.00096">
        <ele>1190.9</ele>
        <time>2021-08-19T11:12:55Z</time>
      </trkpt>
      <trkpt lat="46.41738" lon="6.00094">
        <ele>1190.8</ele>
        <time>2021-08-19T11:12:56Z</time>
      </trkpt>
      <trkpt lat="46.41731" lon="6.00089">
        <ele>1190.7</ele>
        <time>2021-08-19T11:12:57Z</time>
      </trkpt>
      <trkpt lat="46.41727" lon="6.00085">
        <ele>1190.6</ele>
        <time>2021-08-19T11:12:59Z</time>
      </trkpt>
      <trkpt lat="46.41723" lon="6.00082">
        <ele>1190.5</ele>
        <time>2021-08-19T11:13:00Z</time>
      </trkpt>
      <trkpt lat="46.41713" lon="6.00072">
        <ele>1190.4</ele>
        <time>2021-08-19T11:13:02Z</time>
      </trkpt>
      <trkpt lat="46.41705" lon="6.00063">
        <ele>1190.2</ele>
        <time>2021-08-19T11:13:04Z</time>
      </trkpt>
      <trkpt lat="46.41701" lon="6.00059">
        <ele>1190.2</ele>
        <time>2021-08-19T11:13:05Z</time>
      </trkpt>
      <trkpt lat="46.41696" lon="6.00053">
        <ele>1190.1</ele>
        <time>2021-08-19T11:13:06Z</time>
      </trkpt>
      <trkpt lat="46.41692" lon="6.00048">
        <ele>1190</ele>
        <time>2021-08-19T11:13:07Z</time>
      </trkpt>
      <trkpt lat="46.41689" lon="6.00042">
        <ele>1189.9</ele>
        <time>2021-08-19T11:13:08Z</time>
      </trkpt>
      <trkpt lat="46.41682" lon="6.0003">
        <ele>1190.5</ele>
        <time>2021-08-19T11:13:10Z</time>
      </trkpt>
      <trkpt lat="46.41679" lon="6.00025">
        <ele>1190.8</ele>
        <time>2021-08-19T11:13:11Z</time>
      </trkpt>
      <trkpt lat="46.41676" lon="6.00016">
        <ele>1191.1</ele>
        <time>2021-08-19T11:13:12Z</time>
      </trkpt>
      <trkpt lat="46.41673" lon="6.00012">
        <ele>1191.4</ele>
        <time>2021-08-19T11:13:14Z</time>
      </trkpt>
      <trkpt lat="46.41669" lon="6.00009">
        <ele>1191.7</ele>
        <time>2021-08-19T11:13:15Z</time>
      </trkpt>
      <trkpt lat="46.41666" lon="6.00007">
        <ele>1191.9</ele>
        <time>2021-08-19T11:13:17Z</time>
      </trkpt>
      <trkpt lat="46.41662" lon="6.00005">
        <ele>1192.2</ele>
        <time>2021-08-19T11:13:18Z</time>
      </trkpt>
      <trkpt lat="46.41661" lon="6.00004">
        <ele>1192.3</ele>
        <time>2021-08-19T11:13:19Z</time>
      </trkpt>
      <trkpt lat="46.41657" lon="6">
        <ele>1192.6</ele>
        <time>2021-08-19T11:13:21Z</time>
      </trkpt>
      <trkpt lat="46.41653" lon="5.99995">
        <ele>1192.9</ele>
        <time>2021-08-19T11:13:22Z</time>
      </trkpt>
      <trkpt lat="46.4165" lon="5.9999">
        <ele>1193.1</ele>
        <time>2021-08-19T11:13:24Z</time>
      </trkpt>
      <trkpt lat="46.41649" lon="5.99986">
        <ele>1193.3</ele>
        <time>2021-08-19T11:13:26Z</time>
      </trkpt>
      <trkpt lat="46.41647" lon="5.99983">
        <ele>1193.4</ele>
        <time>2021-08-19T11:13:27Z</time>
      </trkpt>
      <trkpt lat="46.41644" lon="5.99979">
        <ele>1193.6</ele>
        <time>2021-08-19T11:13:28Z</time>
      </trkpt>
      <trkpt lat="46.41641" lon="5.99973">
        <ele>1193.9</ele>
        <time>2021-08-19T11:13:30Z</time>
      </trkpt>
      <trkpt lat="46.41639" lon="5.99969">
        <ele>1194.1</ele>
        <time>2021-08-19T11:13:31Z</time>
      </trkpt>
      <trkpt lat="46.41636" lon="5.99965">
        <ele>1194.3</ele>
        <time>2021-08-19T11:13:33Z</time>
      </trkpt>
      <trkpt lat="46.41633" lon="5.99959">
        <ele>1194.7</ele>
        <time>2021-08-19T11:13:34Z</time>
      </trkpt>
      <trkpt lat="46.41631" lon="5.99952">
        <ele>1195.1</ele>
        <time>2021-08-19T11:13:36Z</time>
      </trkpt>
      <trkpt lat="46.4163" lon="5.99947">
        <ele>1195.3</ele>
        <time>2021-08-19T11:13:37Z</time>
      </trkpt>
      <trkpt lat="46.41629" lon="5.99945">
        <ele>1195.4</ele>
        <time>2021-08-19T11:13:38Z</time>
      </trkpt>
      <trkpt lat="46.41628" lon="5.99942">
        <ele>1195.6</ele>
        <time>2021-08-19T11:13:39Z</time>
      </trkpt>
      <trkpt lat="46.41626" lon="5.99936">
        <ele>1196</ele>
        <time>2021-08-19T11:13:41Z</time>
      </trkpt>
      <trkpt lat="46.41622" lon="5.9993">
        <ele>1196.4</ele>
        <time>2021-08-19T11:13:43Z</time>
      </trkpt>
      <trkpt lat="46.41621" lon="5.99928">
        <ele>1196.6</ele>
        <time>2021-08-19T11:13:44Z</time>
      </trkpt>
      <trkpt lat="46.4162" lon="5.99926">
        <ele>1196.7</ele>
        <time>2021-08-19T11:13:45Z</time>
      </trkpt>
      <trkpt lat="46.41618" lon="5.99921">
        <ele>1197.1</ele>
        <time>2021-08-19T11:13:47Z</time>
      </trkpt>
      <trkpt lat="46.41616" lon="5.99917">
        <ele>1197.3</ele>
        <time>2021-08-19T11:13:48Z</time>
      </trkpt>
      <trkpt lat="46.41615" lon="5.99915">
        <ele>1197.4</ele>
        <time>2021-08-19T11:13:49Z</time>
      </trkpt>
      <trkpt lat="46.41614" lon="5.99913">
        <ele>1197.6</ele>
        <time>2021-08-19T11:13:50Z</time>
      </trkpt>
      <trkpt lat="46.41612" lon="5.99911">
        <ele>1197.8</ele>
        <time>2021-08-19T11:13:52Z</time>
      </trkpt>
      <trkpt lat="46.4161" lon="5.99907">
        <ele>1198.1</ele>
        <time>2021-08-19T11:13:53Z</time>
      </trkpt>
      <trkpt lat="46.41609" lon="5.99906">
        <ele>1198.2</ele>
        <time>2021-08-19T11:13:54Z</time>
      </trkpt>
      <trkpt lat="46.41606" lon="5.99905">
        <ele>1198.4</ele>
        <time>2021-08-19T11:13:55Z</time>
      </trkpt>
      <trkpt lat="46.41603" lon="5.99901">
        <ele>1198.7</ele>
        <time>2021-08-19T11:13:57Z</time>
      </trkpt>
      <trkpt lat="46.41602" lon="5.99896">
        <ele>1199</ele>
        <time>2021-08-19T11:13:58Z</time>
      </trkpt>
      <trkpt lat="46.41602" lon="5.99895">
        <ele>1199.1</ele>
        <time>2021-08-19T11:13:59Z</time>
      </trkpt>
      <trkpt lat="46.416" lon="5.9989">
        <ele>1199.3</ele>
        <time>2021-08-19T11:14:01Z</time>
      </trkpt>
      <trkpt lat="46.41599" lon="5.99885">
        <ele>1199.6</ele>
        <time>2021-08-19T11:14:02Z</time>
      </trkpt>
      <trkpt lat="46.41599" lon="5.99882">
        <ele>1199.8</ele>
        <time>2021-08-19T11:14:03Z</time>
      </trkpt>
      <trkpt lat="46.41598" lon="5.99877">
        <ele>1200</ele>
        <time>2021-08-19T11:14:05Z</time>
      </trkpt>
      <trkpt lat="46.41597" lon="5.99876">
        <ele>1200.1</ele>
        <time>2021-08-19T11:14:06Z</time>
      </trkpt>
      <trkpt lat="46.41595" lon="5.99872">
        <ele>1200.3</ele>
        <time>2021-08-19T11:14:07Z</time>
      </trkpt>
      <trkpt lat="46.41592" lon="5.99868">
        <ele>1200.6</ele>
        <time>2021-08-19T11:14:09Z</time>
      </trkpt>
      <trkpt lat="46.4159" lon="5.99866">
        <ele>1200.7</ele>
        <time>2021-08-19T11:14:10Z</time>
      </trkpt>
      <trkpt lat="46.41587" lon="5.99862">
        <ele>1200.9</ele>
        <time>2021-08-19T11:14:11Z</time>
      </trkpt>
      <trkpt lat="46.41586" lon="5.99861">
        <ele>1201</ele>
        <time>2021-08-19T11:14:12Z</time>
      </trkpt>
      <trkpt lat="46.41584" lon="5.99856">
        <ele>1201.1</ele>
        <time>2021-08-19T11:14:13Z</time>
      </trkpt>
      <trkpt lat="46.41583" lon="5.99855">
        <ele>1201.2</ele>
        <time>2021-08-19T11:14:14Z</time>
      </trkpt>
      <trkpt lat="46.4158" lon="5.99851">
        <ele>1201.3</ele>
        <time>2021-08-19T11:14:15Z</time>
      </trkpt>
      <trkpt lat="46.41578" lon="5.99848">
        <ele>1201.4</ele>
        <time>2021-08-19T11:14:16Z</time>
      </trkpt>
      <trkpt lat="46.41575" lon="5.99844">
        <ele>1201.6</ele>
        <time>2021-08-19T11:14:18Z</time>
      </trkpt>
      <trkpt lat="46.41572" lon="5.99842">
        <ele>1201.6</ele>
        <time>2021-08-19T11:14:19Z</time>
      </trkpt>
      <trkpt lat="46.4157" lon="5.99839">
        <ele>1201.7</ele>
        <time>2021-08-19T11:14:20Z</time>
      </trkpt>
      <trkpt lat="46.41567" lon="5.99835">
        <ele>1201.8</ele>
        <time>2021-08-19T11:14:21Z</time>
      </trkpt>
      <trkpt lat="46.41565" lon="5.99832">
        <ele>1201.9</ele>
        <time>2021-08-19T11:14:22Z</time>
      </trkpt>
      <trkpt lat="46.41563" lon="5.9983">
        <ele>1202</ele>
        <time>2021-08-19T11:14:23Z</time>
      </trkpt>
      <trkpt lat="46.41559" lon="5.99827">
        <ele>1202.1</ele>
        <time>2021-08-19T11:14:25Z</time>
      </trkpt>
      <trkpt lat="46.41556" lon="5.99825">
        <ele>1202.2</ele>
        <time>2021-08-19T11:14:26Z</time>
      </trkpt>
      <trkpt lat="46.41552" lon="5.99823">
        <ele>1202.3</ele>
        <time>2021-08-19T11:14:27Z</time>
      </trkpt>
      <trkpt lat="46.41547" lon="5.9982">
        <ele>1202.5</ele>
        <time>2021-08-19T11:14:29Z</time>
      </trkpt>
      <trkpt lat="46.41544" lon="5.99818">
        <ele>1202.6</ele>
        <time>2021-08-19T11:14:30Z</time>
      </trkpt>
      <trkpt lat="46.41541" lon="5.99816">
        <ele>1202.7</ele>
        <time>2021-08-19T11:14:31Z</time>
      </trkpt>
      <trkpt lat="46.41539" lon="5.99814">
        <ele>1202.8</ele>
        <time>2021-08-19T11:14:32Z</time>
      </trkpt>
      <trkpt lat="46.41537" lon="5.99813">
        <ele>1202.9</ele>
        <time>2021-08-19T11:14:33Z</time>
      </trkpt>
      <trkpt lat="46.41531" lon="5.99809">
        <ele>1203</ele>
        <time>2021-08-19T11:14:35Z</time>
      </trkpt>
      <trkpt lat="46.41529" lon="5.99805">
        <ele>1203.1</ele>
        <time>2021-08-19T11:14:36Z</time>
      </trkpt>
      <trkpt lat="46.41526" lon="5.99799">
        <ele>1203.2</ele>
        <time>2021-08-19T11:14:37Z</time>
      </trkpt>
      <trkpt lat="46.41522" lon="5.99794">
        <ele>1203.3</ele>
        <time>2021-08-19T11:14:39Z</time>
      </trkpt>
      <trkpt lat="46.41517" lon="5.9979">
        <ele>1203.3</ele>
        <time>2021-08-19T11:14:41Z</time>
      </trkpt>
      <trkpt lat="46.41515" lon="5.99786">
        <ele>1203.3</ele>
        <time>2021-08-19T11:14:42Z</time>
      </trkpt>
      <trkpt lat="46.41513" lon="5.99782">
        <ele>1203.2</ele>
        <time>2021-08-19T11:14:43Z</time>
      </trkpt>
      <trkpt lat="46.4151" lon="5.99778">
        <ele>1203.1</ele>
        <time>2021-08-19T11:14:45Z</time>
      </trkpt>
      <trkpt lat="46.41508" lon="5.99775">
        <ele>1203.1</ele>
        <time>2021-08-19T11:14:46Z</time>
      </trkpt>
      <trkpt lat="46.41505" lon="5.99771">
        <ele>1203</ele>
        <time>2021-08-19T11:14:47Z</time>
      </trkpt>
      <trkpt lat="46.415" lon="5.99766">
        <ele>1202.8</ele>
        <time>2021-08-19T11:14:49Z</time>
      </trkpt>
      <trkpt lat="46.41497" lon="5.99762">
        <ele>1202.7</ele>
        <time>2021-08-19T11:14:50Z</time>
      </trkpt>
      <trkpt lat="46.41492" lon="5.99754">
        <ele>1202.5</ele>
        <time>2021-08-19T11:14:52Z</time>
      </trkpt>
      <trkpt lat="46.4149" lon="5.99746">
        <ele>1202.3</ele>
        <time>2021-08-19T11:14:53Z</time>
      </trkpt>
      <trkpt lat="46.41488" lon="5.9974">
        <ele>1202.1</ele>
        <time>2021-08-19T11:14:54Z</time>
      </trkpt>
      <trkpt lat="46.41484" lon="5.99733">
        <ele>1201.9</ele>
        <time>2021-08-19T11:14:55Z</time>
      </trkpt>
      <trkpt lat="46.41481" lon="5.99728">
        <ele>1201.7</ele>
        <time>2021-08-19T11:14:56Z</time>
      </trkpt>
      <trkpt lat="46.41473" lon="5.99717">
        <ele>1201.4</ele>
        <time>2021-08-19T11:14:58Z</time>
      </trkpt>
      <trkpt lat="46.41466" lon="5.99707">
        <ele>1201</ele>
        <time>2021-08-19T11:15:00Z</time>
      </trkpt>
      <trkpt lat="46.4146" lon="5.99698">
        <ele>1200.7</ele>
        <time>2021-08-19T11:15:02Z</time>
      </trkpt>
      <trkpt lat="46.41452" lon="5.99686">
        <ele>1200.4</ele>
        <time>2021-08-19T11:15:04Z</time>
      </trkpt>
      <trkpt lat="46.41443" lon="5.99675">
        <ele>1200.1</ele>
        <time>2021-08-19T11:15:06Z</time>
      </trkpt>
      <trkpt lat="46.41439" lon="5.99668">
        <ele>1200</ele>
        <time>2021-08-19T11:15:07Z</time>
      </trkpt>
      <trkpt lat="46.41435" lon="5.99662">
        <ele>1199.9</ele>
        <time>2021-08-19T11:15:08Z</time>
      </trkpt>
      <trkpt lat="46.41426" lon="5.99651">
        <ele>1199.8</ele>
        <time>2021-08-19T11:15:10Z</time>
      </trkpt>
      <trkpt lat="46.41422" lon="5.99645">
        <ele>1199.8</ele>
        <time>2021-08-19T11:15:11Z</time>
      </trkpt>
      <trkpt lat="46.41414" lon="5.99634">
        <ele>1199.7</ele>
        <time>2021-08-19T11:15:13Z</time>
      </trkpt>
      <trkpt lat="46.4141" lon="5.99629">
        <ele>1199.7</ele>
        <time>2021-08-19T11:15:14Z</time>
      </trkpt>
      <trkpt lat="46.41403" lon="5.99618">
        <ele>1199.8</ele>
        <time>2021-08-19T11:15:16Z</time>
      </trkpt>
      <trkpt lat="46.41399" lon="5.99613">
        <ele>1199.8</ele>
        <time>2021-08-19T11:15:17Z</time>
      </trkpt>
      <trkpt lat="46.41396" lon="5.99607">
        <ele>1199.8</ele>
        <time>2021-08-19T11:15:18Z</time>
      </trkpt>
      <trkpt lat="46.41389" lon="5.99596">
        <ele>1199.9</ele>
        <time>2021-08-19T11:15:20Z</time>
      </trkpt>
      <trkpt lat="46.41384" lon="5.99586">
        <ele>1200</ele>
        <time>2021-08-19T11:15:22Z</time>
      </trkpt>
      <trkpt lat="46.41382" lon="5.99583">
        <ele>1200</ele>
        <time>2021-08-19T11:15:23Z</time>
      </trkpt>
      <trkpt lat="46.41376" lon="5.99575">
        <ele>1200.1</ele>
        <time>2021-08-19T11:15:25Z</time>
      </trkpt>
      <trkpt lat="46.41373" lon="5.99571">
        <ele>1200.2</ele>
        <time>2021-08-19T11:15:26Z</time>
      </trkpt>
      <trkpt lat="46.4137" lon="5.99567">
        <ele>1200.2</ele>
        <time>2021-08-19T11:15:27Z</time>
      </trkpt>
      <trkpt lat="46.41366" lon="5.99563">
        <ele>1200.2</ele>
        <time>2021-08-19T11:15:29Z</time>
      </trkpt>
      <trkpt lat="46.41363" lon="5.99558">
        <ele>1200.3</ele>
        <time>2021-08-19T11:15:31Z</time>
      </trkpt>
      <trkpt lat="46.41362" lon="5.99553">
        <ele>1200.3</ele>
        <time>2021-08-19T11:15:32Z</time>
      </trkpt>
      <trkpt lat="46.41361" lon="5.99552">
        <ele>1200.3</ele>
        <time>2021-08-19T11:15:33Z</time>
      </trkpt>
      <trkpt lat="46.41359" lon="5.99545">
        <ele>1200.3</ele>
        <time>2021-08-19T11:15:35Z</time>
      </trkpt>
      <trkpt lat="46.41356" lon="5.9954">
        <ele>1200.3</ele>
        <time>2021-08-19T11:15:37Z</time>
      </trkpt>
      <trkpt lat="46.41355" lon="5.99535">
        <ele>1200.3</ele>
        <time>2021-08-19T11:15:38Z</time>
      </trkpt>
      <trkpt lat="46.41353" lon="5.99528">
        <ele>1200.2</ele>
        <time>2021-08-19T11:15:40Z</time>
      </trkpt>
      <trkpt lat="46.41352" lon="5.99524">
        <ele>1200.2</ele>
        <time>2021-08-19T11:15:41Z</time>
      </trkpt>
      <trkpt lat="46.41351" lon="5.99521">
        <ele>1200.2</ele>
        <time>2021-08-19T11:15:42Z</time>
      </trkpt>
      <trkpt lat="46.41348" lon="5.99514">
        <ele>1200.2</ele>
        <time>2021-08-19T11:15:44Z</time>
      </trkpt>
      <trkpt lat="46.41346" lon="5.99509">
        <ele>1200.1</ele>
        <time>2021-08-19T11:15:46Z</time>
      </trkpt>
      <trkpt lat="46.41344" lon="5.99509">
        <ele>1200.1</ele>
        <time>2021-08-19T11:15:47Z</time>
      </trkpt>
      <trkpt lat="46.41343" lon="5.99509">
        <ele>1200.1</ele>
        <time>2021-08-19T11:15:48Z</time>
      </trkpt>
      <trkpt lat="46.41342" lon="5.99507">
        <ele>1200.1</ele>
        <time>2021-08-19T11:15:50Z</time>
      </trkpt>
      <trkpt lat="46.41341" lon="5.99505">
        <ele>1200</ele>
        <time>2021-08-19T11:15:52Z</time>
      </trkpt>
      <trkpt lat="46.4134" lon="5.99503">
        <ele>1200</ele>
        <time>2021-08-19T11:15:53Z</time>
      </trkpt>
      <trkpt lat="46.4134" lon="5.99501">
        <ele>1200</ele>
        <time>2021-08-19T11:15:54Z</time>
      </trkpt>
      <trkpt lat="46.41339" lon="5.99498">
        <ele>1200</ele>
        <time>2021-08-19T11:15:56Z</time>
      </trkpt>
      <trkpt lat="46.41338" lon="5.99496">
        <ele>1200</ele>
        <time>2021-08-19T11:15:57Z</time>
      </trkpt>
      <trkpt lat="46.41338" lon="5.99494">
        <ele>1199.9</ele>
        <time>2021-08-19T11:15:58Z</time>
      </trkpt>
      <trkpt lat="46.41337" lon="5.99492">
        <ele>1199.9</ele>
        <time>2021-08-19T11:17:01Z</time>
      </trkpt>
      <trkpt lat="46.41336" lon="5.9949">
        <ele>1199.9</ele>
        <time>2021-08-19T11:17:02Z</time>
      </trkpt>
      <trkpt lat="46.4133" lon="5.99477">
        <ele>1199.7</ele>
        <time>2021-08-19T11:17:04Z</time>
      </trkpt>
      <trkpt lat="46.41321" lon="5.99465">
        <ele>1199.5</ele>
        <time>2021-08-19T11:17:05Z</time>
      </trkpt>
      <trkpt lat="46.41317" lon="5.99463">
        <ele>1199.3</ele>
        <time>2021-08-19T11:17:06Z</time>
      </trkpt>
      <trkpt lat="46.41308" lon="5.99455">
        <ele>1199</ele>
        <time>2021-08-19T11:17:08Z</time>
      </trkpt>
      <trkpt lat="46.413" lon="5.99444">
        <ele>1198.6</ele>
        <time>2021-08-19T11:17:10Z</time>
      </trkpt>
      <trkpt lat="46.41295" lon="5.99438">
        <ele>1198.4</ele>
        <time>2021-08-19T11:17:11Z</time>
      </trkpt>
      <trkpt lat="46.4129" lon="5.99433">
        <ele>1198.2</ele>
        <time>2021-08-19T11:17:12Z</time>
      </trkpt>
      <trkpt lat="46.41281" lon="5.99422">
        <ele>1198</ele>
        <time>2021-08-19T11:17:14Z</time>
      </trkpt>
      <trkpt lat="46.41272" lon="5.99414">
        <ele>1197.9</ele>
        <time>2021-08-19T11:17:16Z</time>
      </trkpt>
      <trkpt lat="46.41268" lon="5.9941">
        <ele>1198</ele>
        <time>2021-08-19T11:17:17Z</time>
      </trkpt>
      <trkpt lat="46.41264" lon="5.99407">
        <ele>1198</ele>
        <time>2021-08-19T11:17:18Z</time>
      </trkpt>
      <trkpt lat="46.41257" lon="5.994">
        <ele>1198.1</ele>
        <time>2021-08-19T11:17:20Z</time>
      </trkpt>
      <trkpt lat="46.41252" lon="5.99393">
        <ele>1198.1</ele>
        <time>2021-08-19T11:17:22Z</time>
      </trkpt>
      <trkpt lat="46.41249" lon="5.99391">
        <ele>1198.1</ele>
        <time>2021-08-19T11:17:23Z</time>
      </trkpt>
      <trkpt lat="46.41242" lon="5.99389">
        <ele>1198</ele>
        <time>2021-08-19T11:17:25Z</time>
      </trkpt>
      <trkpt lat="46.41239" lon="5.99388">
        <ele>1198</ele>
        <time>2021-08-19T11:17:26Z</time>
      </trkpt>
      <trkpt lat="46.41234" lon="5.99385">
        <ele>1197.8</ele>
        <time>2021-08-19T11:17:28Z</time>
      </trkpt>
      <trkpt lat="46.41229" lon="5.99383">
        <ele>1197.5</ele>
        <time>2021-08-19T11:17:29Z</time>
      </trkpt>
      <trkpt lat="46.41225" lon="5.9938">
        <ele>1197.2</ele>
        <time>2021-08-19T11:17:30Z</time>
      </trkpt>
      <trkpt lat="46.41215" lon="5.99372">
        <ele>1196.4</ele>
        <time>2021-08-19T11:17:32Z</time>
      </trkpt>
      <trkpt lat="46.41204" lon="5.99364">
        <ele>1195.4</ele>
        <time>2021-08-19T11:17:34Z</time>
      </trkpt>
      <trkpt lat="46.41198" lon="5.9936">
        <ele>1194.8</ele>
        <time>2021-08-19T11:17:35Z</time>
      </trkpt>
      <trkpt lat="46.41193" lon="5.99357">
        <ele>1194.2</ele>
        <time>2021-08-19T11:17:36Z</time>
      </trkpt>
      <trkpt lat="46.41181" lon="5.99352">
        <ele>1192.9</ele>
        <time>2021-08-19T11:17:38Z</time>
      </trkpt>
      <trkpt lat="46.41175" lon="5.9935">
        <ele>1192.6</ele>
        <time>2021-08-19T11:17:39Z</time>
      </trkpt>
      <trkpt lat="46.41163" lon="5.99343">
        <ele>1190.8</ele>
        <time>2021-08-19T11:17:41Z</time>
      </trkpt>
      <trkpt lat="46.41157" lon="5.99339">
        <ele>1189.7</ele>
        <time>2021-08-19T11:17:42Z</time>
      </trkpt>
      <trkpt lat="46.41144" lon="5.99327">
        <ele>1188.4</ele>
        <time>2021-08-19T11:17:44Z</time>
      </trkpt>
      <trkpt lat="46.41133" lon="5.99315">
        <ele>1187.8</ele>
        <time>2021-08-19T11:17:46Z</time>
      </trkpt>
      <trkpt lat="46.4113" lon="5.993">
        <ele>1187.5</ele>
        <time>2021-08-19T11:17:48Z</time>
      </trkpt>
      <trkpt lat="46.41129" lon="5.99281">
        <ele>1186.7</ele>
        <time>2021-08-19T11:17:50Z</time>
      </trkpt>
      <trkpt lat="46.41127" lon="5.9926">
        <ele>1186</ele>
        <time>2021-08-19T11:17:52Z</time>
      </trkpt>
      <trkpt lat="46.41124" lon="5.9925">
        <ele>1185.7</ele>
        <time>2021-08-19T11:17:53Z</time>
      </trkpt>
      <trkpt lat="46.4112" lon="5.99242">
        <ele>1185.3</ele>
        <time>2021-08-19T11:17:54Z</time>
      </trkpt>
      <trkpt lat="46.4111" lon="5.99225">
        <ele>1184.5</ele>
        <time>2021-08-19T11:17:56Z</time>
      </trkpt>
      <trkpt lat="46.411" lon="5.99208">
        <ele>1183.7</ele>
        <time>2021-08-19T11:17:58Z</time>
      </trkpt>
      <trkpt lat="46.41096" lon="5.99199">
        <ele>1183.4</ele>
        <time>2021-08-19T11:17:59Z</time>
      </trkpt>
      <trkpt lat="46.41091" lon="5.99191">
        <ele>1183</ele>
        <time>2021-08-19T11:18:00Z</time>
      </trkpt>
      <trkpt lat="46.4108" lon="5.99181">
        <ele>1182.4</ele>
        <time>2021-08-19T11:18:02Z</time>
      </trkpt>
      <trkpt lat="46.41071" lon="5.99174">
        <ele>1181.9</ele>
        <time>2021-08-19T11:18:04Z</time>
      </trkpt>
      <trkpt lat="46.41069" lon="5.99172">
        <ele>1181.7</ele>
        <time>2021-08-19T11:18:05Z</time>
      </trkpt>
      <trkpt lat="46.41063" lon="5.99163">
        <ele>1181.3</ele>
        <time>2021-08-19T11:18:07Z</time>
      </trkpt>
      <trkpt lat="46.41061" lon="5.99159">
        <ele>1181.1</ele>
        <time>2021-08-19T11:18:08Z</time>
      </trkpt>
      <trkpt lat="46.41062" lon="5.99145">
        <ele>1181.1</ele>
        <time>2021-08-19T11:18:10Z</time>
      </trkpt>
      <trkpt lat="46.41065" lon="5.99133">
        <ele>1181.2</ele>
        <time>2021-08-19T11:18:11Z</time>
      </trkpt>
      <trkpt lat="46.41067" lon="5.99123">
        <ele>1181.3</ele>
        <time>2021-08-19T11:18:12Z</time>
      </trkpt>
      <trkpt lat="46.41069" lon="5.99106">
        <ele>1181.5</ele>
        <time>2021-08-19T11:18:14Z</time>
      </trkpt>
      <trkpt lat="46.41072" lon="5.9909">
        <ele>1181.7</ele>
        <time>2021-08-19T11:18:16Z</time>
      </trkpt>
      <trkpt lat="46.41072" lon="5.99082">
        <ele>1181.8</ele>
        <time>2021-08-19T11:18:17Z</time>
      </trkpt>
      <trkpt lat="46.41073" lon="5.99073">
        <ele>1181.9</ele>
        <time>2021-08-19T11:18:18Z</time>
      </trkpt>
      <trkpt lat="46.41074" lon="5.99055">
        <ele>1182.2</ele>
        <time>2021-08-19T11:18:20Z</time>
      </trkpt>
      <trkpt lat="46.41076" lon="5.99039">
        <ele>1182.6</ele>
        <time>2021-08-19T11:18:22Z</time>
      </trkpt>
      <trkpt lat="46.41076" lon="5.99032">
        <ele>1182.8</ele>
        <time>2021-08-19T11:18:23Z</time>
      </trkpt>
      <trkpt lat="46.41079" lon="5.99027">
        <ele>1183</ele>
        <time>2021-08-19T11:18:24Z</time>
      </trkpt>
      <trkpt lat="46.41074" lon="5.99016">
        <ele>1183.5</ele>
        <time>2021-08-19T11:18:26Z</time>
      </trkpt>
      <trkpt lat="46.41075" lon="5.99006">
        <ele>1183.9</ele>
        <time>2021-08-19T11:18:28Z</time>
      </trkpt>
      <trkpt lat="46.41076" lon="5.98997">
        <ele>1184.3</ele>
        <time>2021-08-19T11:18:30Z</time>
      </trkpt>
      <trkpt lat="46.41078" lon="5.98989">
        <ele>1184.8</ele>
        <time>2021-08-19T11:18:31Z</time>
      </trkpt>
      <trkpt lat="46.4108" lon="5.98982">
        <ele>1185.4</ele>
        <time>2021-08-19T11:18:33Z</time>
      </trkpt>
      <trkpt lat="46.41082" lon="5.98976">
        <ele>1185.8</ele>
        <time>2021-08-19T11:18:35Z</time>
      </trkpt>
      <trkpt lat="46.41082" lon="5.98975">
        <ele>1186</ele>
        <time>2021-08-19T11:18:36Z</time>
      </trkpt>
      <trkpt lat="46.41083" lon="5.98973">
        <ele>1186.1</ele>
        <time>2021-08-19T11:18:37Z</time>
      </trkpt>
      <trkpt lat="46.41082" lon="5.98972">
        <ele>1186.2</ele>
        <time>2021-08-19T11:18:38Z</time>
      </trkpt>
      <trkpt lat="46.41083" lon="5.9897">
        <ele>1186.3</ele>
        <time>2021-08-19T11:18:40Z</time>
      </trkpt>
      <trkpt lat="46.41084" lon="5.98968">
        <ele>1186.5</ele>
        <time>2021-08-19T11:18:41Z</time>
      </trkpt>
      <trkpt lat="46.41084" lon="5.98966">
        <ele>1186.8</ele>
        <time>2021-08-19T11:18:42Z</time>
      </trkpt>
      <trkpt lat="46.41084" lon="5.98965">
        <ele>1186.9</ele>
        <time>2021-08-19T11:18:43Z</time>
      </trkpt>
      <trkpt lat="46.41084" lon="5.98964">
        <ele>1186.9</ele>
        <time>2021-08-19T11:18:45Z</time>
      </trkpt>
      <trkpt lat="46.41084" lon="5.98963">
        <ele>1187</ele>
        <time>2021-08-19T11:18:46Z</time>
      </trkpt>
      <trkpt lat="46.41085" lon="5.9896">
        <ele>1187.3</ele>
        <time>2021-08-19T11:18:47Z</time>
      </trkpt>
      <trkpt lat="46.41085" lon="5.98958">
        <ele>1187.5</ele>
        <time>2021-08-19T11:18:49Z</time>
      </trkpt>
      <trkpt lat="46.41085" lon="5.98958">
        <ele>1187.6</ele>
        <time>2021-08-19T11:18:50Z</time>
      </trkpt>
      <trkpt lat="46.41085" lon="5.98958">
        <ele>1187.6</ele>
        <time>2021-08-19T11:18:51Z</time>
      </trkpt>
      <trkpt lat="46.41085" lon="5.98958">
        <ele>1187.6</ele>
        <time>2021-08-19T11:18:52Z</time>
      </trkpt>
      <trkpt lat="46.41085" lon="5.98958">
        <ele>1187.6</ele>
        <time>2021-08-19T11:18:54Z</time>
      </trkpt>
      <trkpt lat="46.41085" lon="5.98957">
        <ele>1187.7</ele>
        <time>2021-08-19T11:18:55Z</time>
      </trkpt>
      <trkpt lat="46.41084" lon="5.98956">
        <ele>1187.7</ele>
        <time>2021-08-19T11:18:57Z</time>
      </trkpt>
      <trkpt lat="46.41076" lon="5.98942">
        <ele>1188.5</ele>
        <time>2021-08-19T11:19:16Z</time>
      </trkpt>
      <trkpt lat="46.41073" lon="5.98941">
        <ele>1188.8</ele>
        <time>2021-08-19T11:19:17Z</time>
      </trkpt>
      <trkpt lat="46.41068" lon="5.98939">
        <ele>1189.2</ele>
        <time>2021-08-19T11:19:19Z</time>
      </trkpt>
      <trkpt lat="46.41065" lon="5.98938">
        <ele>1189.5</ele>
        <time>2021-08-19T11:19:20Z</time>
      </trkpt>
      <trkpt lat="46.4106" lon="5.98936">
        <ele>1189.9</ele>
        <time>2021-08-19T11:19:21Z</time>
      </trkpt>
      <trkpt lat="46.41057" lon="5.98934">
        <ele>1190.1</ele>
        <time>2021-08-19T11:19:22Z</time>
      </trkpt>
      <trkpt lat="46.41056" lon="5.98934">
        <ele>1190.2</ele>
        <time>2021-08-19T11:19:23Z</time>
      </trkpt>
      <trkpt lat="46.41052" lon="5.98932">
        <ele>1190.5</ele>
        <time>2021-08-19T11:19:25Z</time>
      </trkpt>
      <trkpt lat="46.4105" lon="5.98932">
        <ele>1190.6</ele>
        <time>2021-08-19T11:19:26Z</time>
      </trkpt>
      <trkpt lat="46.41047" lon="5.9893">
        <ele>1190.9</ele>
        <time>2021-08-19T11:19:28Z</time>
      </trkpt>
      <trkpt lat="46.41046" lon="5.98929">
        <ele>1191</ele>
        <time>2021-08-19T11:19:29Z</time>
      </trkpt>
      <trkpt lat="46.41044" lon="5.98926">
        <ele>1191.2</ele>
        <time>2021-08-19T11:19:31Z</time>
      </trkpt>
      <trkpt lat="46.41043" lon="5.98925">
        <ele>1191.3</ele>
        <time>2021-08-19T11:19:32Z</time>
      </trkpt>
      <trkpt lat="46.41042" lon="5.98923">
        <ele>1191.4</ele>
        <time>2021-08-19T11:19:33Z</time>
      </trkpt>
      <trkpt lat="46.41042" lon="5.98918">
        <ele>1191.7</ele>
        <time>2021-08-19T11:19:34Z</time>
      </trkpt>
      <trkpt lat="46.41041" lon="5.98917">
        <ele>1191.7</ele>
        <time>2021-08-19T11:19:35Z</time>
      </trkpt>
      <trkpt lat="46.4104" lon="5.98915">
        <ele>1191.9</ele>
        <time>2021-08-19T11:19:36Z</time>
      </trkpt>
      <trkpt lat="46.41039" lon="5.98913">
        <ele>1192</ele>
        <time>2021-08-19T11:19:37Z</time>
      </trkpt>
      <trkpt lat="46.41037" lon="5.98912">
        <ele>1192.2</ele>
        <time>2021-08-19T11:19:38Z</time>
      </trkpt>
      <trkpt lat="46.41036" lon="5.98909">
        <ele>1192.4</ele>
        <time>2021-08-19T11:19:40Z</time>
      </trkpt>
      <trkpt lat="46.41035" lon="5.98908">
        <ele>1192.5</ele>
        <time>2021-08-19T11:19:41Z</time>
      </trkpt>
      <trkpt lat="46.41034" lon="5.98907">
        <ele>1192.6</ele>
        <time>2021-08-19T11:19:42Z</time>
      </trkpt>
      <trkpt lat="46.41033" lon="5.98906">
        <ele>1192.7</ele>
        <time>2021-08-19T11:19:43Z</time>
      </trkpt>
      <trkpt lat="46.4103" lon="5.98905">
        <ele>1193</ele>
        <time>2021-08-19T11:19:45Z</time>
      </trkpt>
      <trkpt lat="46.41029" lon="5.98903">
        <ele>1193.2</ele>
        <time>2021-08-19T11:19:46Z</time>
      </trkpt>
      <trkpt lat="46.41028" lon="5.98901">
        <ele>1193.3</ele>
        <time>2021-08-19T11:19:47Z</time>
      </trkpt>
      <trkpt lat="46.41028" lon="5.98902">
        <ele>1193.3</ele>
        <time>2021-08-19T11:19:49Z</time>
      </trkpt>
      <trkpt lat="46.41028" lon="5.98901">
        <ele>1193.4</ele>
        <time>2021-08-19T11:19:50Z</time>
      </trkpt>
      <trkpt lat="46.41027" lon="5.98901">
        <ele>1193.4</ele>
        <time>2021-08-19T11:19:51Z</time>
      </trkpt>
      <trkpt lat="46.41027" lon="5.98901">
        <ele>1193.4</ele>
        <time>2021-08-19T11:19:52Z</time>
      </trkpt>
      <trkpt lat="46.41027" lon="5.989">
        <ele>1193.5</ele>
        <time>2021-08-19T11:19:54Z</time>
      </trkpt>
      <trkpt lat="46.41026" lon="5.98899">
        <ele>1193.7</ele>
        <time>2021-08-19T11:19:55Z</time>
      </trkpt>
      <trkpt lat="46.41026" lon="5.98897">
        <ele>1193.8</ele>
        <time>2021-08-19T11:19:56Z</time>
      </trkpt>
      <trkpt lat="46.41022" lon="5.98892">
        <ele>1194.4</ele>
        <time>2021-08-19T11:19:59Z</time>
      </trkpt>
      <trkpt lat="46.41021" lon="5.9889">
        <ele>1194.6</ele>
        <time>2021-08-19T11:20:00Z</time>
      </trkpt>
      <trkpt lat="46.4102" lon="5.98889">
        <ele>1194.9</ele>
        <time>2021-08-19T11:20:01Z</time>
      </trkpt>
      <trkpt lat="46.41017" lon="5.98885">
        <ele>1195.4</ele>
        <time>2021-08-19T11:20:03Z</time>
      </trkpt>
      <trkpt lat="46.41015" lon="5.98881">
        <ele>1195.8</ele>
        <time>2021-08-19T11:20:04Z</time>
      </trkpt>
      <trkpt lat="46.41015" lon="5.9888">
        <ele>1195.9</ele>
        <time>2021-08-19T11:20:05Z</time>
      </trkpt>
      <trkpt lat="46.41014" lon="5.98878">
        <ele>1196.2</ele>
        <time>2021-08-19T11:20:07Z</time>
      </trkpt>
      <trkpt lat="46.41013" lon="5.98876">
        <ele>1196.5</ele>
        <time>2021-08-19T11:20:08Z</time>
      </trkpt>
      <trkpt lat="46.41012" lon="5.98875">
        <ele>1196.6</ele>
        <time>2021-08-19T11:20:09Z</time>
      </trkpt>
      <trkpt lat="46.41012" lon="5.98874">
        <ele>1196.7</ele>
        <time>2021-08-19T11:20:11Z</time>
      </trkpt>
      <trkpt lat="46.41013" lon="5.98874">
        <ele>1196.7</ele>
        <time>2021-08-19T11:20:12Z</time>
      </trkpt>
      <trkpt lat="46.41013" lon="5.98874">
        <ele>1196.8</ele>
        <time>2021-08-19T11:20:13Z</time>
      </trkpt>
      <trkpt lat="46.41013" lon="5.98874">
        <ele>1196.8</ele>
        <time>2021-08-19T11:20:14Z</time>
      </trkpt>
      <trkpt lat="46.41012" lon="5.98871">
        <ele>1197.2</ele>
        <time>2021-08-19T11:20:16Z</time>
      </trkpt>
      <trkpt lat="46.41011" lon="5.98868">
        <ele>1197.5</ele>
        <time>2021-08-19T11:20:17Z</time>
      </trkpt>
      <trkpt lat="46.41011" lon="5.98867">
        <ele>1197.6</ele>
        <time>2021-08-19T11:20:18Z</time>
      </trkpt>
      <trkpt lat="46.4101" lon="5.98865">
        <ele>1197.8</ele>
        <time>2021-08-19T11:20:19Z</time>
      </trkpt>
      <trkpt lat="46.41009" lon="5.98863">
        <ele>1198.1</ele>
        <time>2021-08-19T11:20:21Z</time>
      </trkpt>
      <trkpt lat="46.41009" lon="5.98863">
        <ele>1198.2</ele>
        <time>2021-08-19T11:20:22Z</time>
      </trkpt>
      <trkpt lat="46.41008" lon="5.98862">
        <ele>1198.2</ele>
        <time>2021-08-19T11:20:23Z</time>
      </trkpt>
      <trkpt lat="46.41008" lon="5.98861">
        <ele>1198.4</ele>
        <time>2021-08-19T11:20:25Z</time>
      </trkpt>
      <trkpt lat="46.41007" lon="5.9886">
        <ele>1198.5</ele>
        <time>2021-08-19T11:20:26Z</time>
      </trkpt>
      <trkpt lat="46.41007" lon="5.9886">
        <ele>1198.6</ele>
        <time>2021-08-19T11:20:28Z</time>
      </trkpt>
      <trkpt lat="46.41006" lon="5.98859">
        <ele>1198.7</ele>
        <time>2021-08-19T11:20:29Z</time>
      </trkpt>
      <trkpt lat="46.41006" lon="5.98858">
        <ele>1198.8</ele>
        <time>2021-08-19T11:20:30Z</time>
      </trkpt>
      <trkpt lat="46.41004" lon="5.98858">
        <ele>1198.9</ele>
        <time>2021-08-19T11:20:31Z</time>
      </trkpt>
      <trkpt lat="46.40987" lon="5.98835">
        <ele>1201.5</ele>
        <time>2021-08-19T11:20:50Z</time>
      </trkpt>
      <trkpt lat="46.40985" lon="5.98832">
        <ele>1201.9</ele>
        <time>2021-08-19T11:20:51Z</time>
      </trkpt>
      <trkpt lat="46.40983" lon="5.98828">
        <ele>1202.2</ele>
        <time>2021-08-19T11:20:53Z</time>
      </trkpt>
      <trkpt lat="46.40982" lon="5.98827">
        <ele>1202.2</ele>
        <time>2021-08-19T11:20:54Z</time>
      </trkpt>
      <trkpt lat="46.40982" lon="5.98827">
        <ele>1202.3</ele>
        <time>2021-08-19T11:20:55Z</time>
      </trkpt>
      <trkpt lat="46.40982" lon="5.98827">
        <ele>1202.3</ele>
        <time>2021-08-19T11:20:56Z</time>
      </trkpt>
      <trkpt lat="46.40981" lon="5.98827">
        <ele>1202.3</ele>
        <time>2021-08-19T11:20:57Z</time>
      </trkpt>
      <trkpt lat="46.40981" lon="5.98827">
        <ele>1202.4</ele>
        <time>2021-08-19T11:20:58Z</time>
      </trkpt>
      <trkpt lat="46.40981" lon="5.98826">
        <ele>1202.4</ele>
        <time>2021-08-19T11:21:00Z</time>
      </trkpt>
      <trkpt lat="46.40979" lon="5.98825">
        <ele>1202.6</ele>
        <time>2021-08-19T11:21:02Z</time>
      </trkpt>
      <trkpt lat="46.40977" lon="5.98822">
        <ele>1202.8</ele>
        <time>2021-08-19T11:21:04Z</time>
      </trkpt>
      <trkpt lat="46.40973" lon="5.98814">
        <ele>1203.5</ele>
        <time>2021-08-19T11:21:08Z</time>
      </trkpt>
      <trkpt lat="46.40971" lon="5.98811">
        <ele>1203.8</ele>
        <time>2021-08-19T11:21:09Z</time>
      </trkpt>
      <trkpt lat="46.40969" lon="5.98806">
        <ele>1204.2</ele>
        <time>2021-08-19T11:21:11Z</time>
      </trkpt>
      <trkpt lat="46.40968" lon="5.98805">
        <ele>1204.2</ele>
        <time>2021-08-19T11:21:12Z</time>
      </trkpt>
      <trkpt lat="46.40968" lon="5.98804">
        <ele>1204.3</ele>
        <time>2021-08-19T11:21:13Z</time>
      </trkpt>
      <trkpt lat="46.40967" lon="5.98803">
        <ele>1204.4</ele>
        <time>2021-08-19T11:21:14Z</time>
      </trkpt>
      <trkpt lat="46.40966" lon="5.98799">
        <ele>1204.7</ele>
        <time>2021-08-19T11:21:15Z</time>
      </trkpt>
      <trkpt lat="46.40965" lon="5.98798">
        <ele>1204.8</ele>
        <time>2021-08-19T11:21:16Z</time>
      </trkpt>
      <trkpt lat="46.40964" lon="5.98796">
        <ele>1205</ele>
        <time>2021-08-19T11:21:18Z</time>
      </trkpt>
      <trkpt lat="46.40961" lon="5.98794">
        <ele>1205.3</ele>
        <time>2021-08-19T11:21:20Z</time>
      </trkpt>
      <trkpt lat="46.40959" lon="5.98791">
        <ele>1205.6</ele>
        <time>2021-08-19T11:21:22Z</time>
      </trkpt>
      <trkpt lat="46.40958" lon="5.9879">
        <ele>1205.7</ele>
        <time>2021-08-19T11:21:23Z</time>
      </trkpt>
      <trkpt lat="46.40957" lon="5.98789">
        <ele>1205.8</ele>
        <time>2021-08-19T11:21:24Z</time>
      </trkpt>
      <trkpt lat="46.40955" lon="5.98786">
        <ele>1206.1</ele>
        <time>2021-08-19T11:21:26Z</time>
      </trkpt>
      <trkpt lat="46.40954" lon="5.98784">
        <ele>1206.3</ele>
        <time>2021-08-19T11:21:27Z</time>
      </trkpt>
      <trkpt lat="46.40953" lon="5.98783">
        <ele>1206.4</ele>
        <time>2021-08-19T11:21:28Z</time>
      </trkpt>
      <trkpt lat="46.40953" lon="5.98783">
        <ele>1206.4</ele>
        <time>2021-08-19T11:21:30Z</time>
      </trkpt>
      <trkpt lat="46.40953" lon="5.98783">
        <ele>1206.4</ele>
        <time>2021-08-19T11:21:31Z</time>
      </trkpt>
      <trkpt lat="46.40953" lon="5.98783">
        <ele>1206.4</ele>
        <time>2021-08-19T11:21:32Z</time>
      </trkpt>
      <trkpt lat="46.40953" lon="5.98782">
        <ele>1206.4</ele>
        <time>2021-08-19T11:21:33Z</time>
      </trkpt>
      <trkpt lat="46.40953" lon="5.98782">
        <ele>1206.4</ele>
        <time>2021-08-19T11:21:34Z</time>
      </trkpt>
      <trkpt lat="46.40953" lon="5.98782">
        <ele>1206.5</ele>
        <time>2021-08-19T11:21:35Z</time>
      </trkpt>
      <trkpt lat="46.40953" lon="5.98781">
        <ele>1206.6</ele>
        <time>2021-08-19T11:21:37Z</time>
      </trkpt>
      <trkpt lat="46.4095" lon="5.98778">
        <ele>1206.9</ele>
        <time>2021-08-19T11:21:39Z</time>
      </trkpt>
      <trkpt lat="46.40946" lon="5.98775">
        <ele>1207.3</ele>
        <time>2021-08-19T11:21:41Z</time>
      </trkpt>
      <trkpt lat="46.40943" lon="5.98773">
        <ele>1207.6</ele>
        <time>2021-08-19T11:21:42Z</time>
      </trkpt>
      <trkpt lat="46.4094" lon="5.98771">
        <ele>1207.9</ele>
        <time>2021-08-19T11:21:43Z</time>
      </trkpt>
      <trkpt lat="46.40938" lon="5.98769">
        <ele>1208.1</ele>
        <time>2021-08-19T11:21:45Z</time>
      </trkpt>
      <trkpt lat="46.40937" lon="5.98767">
        <ele>1208.3</ele>
        <time>2021-08-19T11:21:46Z</time>
      </trkpt>
      <trkpt lat="46.40936" lon="5.98766">
        <ele>1208.4</ele>
        <time>2021-08-19T11:21:47Z</time>
      </trkpt>
      <trkpt lat="46.40936" lon="5.98765">
        <ele>1208.5</ele>
        <time>2021-08-19T11:21:48Z</time>
      </trkpt>
      <trkpt lat="46.40936" lon="5.98764">
        <ele>1208.5</ele>
        <time>2021-08-19T11:21:49Z</time>
      </trkpt>
      <trkpt lat="46.40936" lon="5.98763">
        <ele>1208.6</ele>
        <time>2021-08-19T11:21:50Z</time>
      </trkpt>
      <trkpt lat="46.40936" lon="5.98762">
        <ele>1208.6</ele>
        <time>2021-08-19T11:21:51Z</time>
      </trkpt>
      <trkpt lat="46.40936" lon="5.98762">
        <ele>1208.7</ele>
        <time>2021-08-19T11:21:52Z</time>
      </trkpt>
      <trkpt lat="46.40936" lon="5.98762">
        <ele>1208.7</ele>
        <time>2021-08-19T11:21:54Z</time>
      </trkpt>
      <trkpt lat="46.40891" lon="5.98732">
        <ele>1212.3</ele>
        <time>2021-08-19T11:22:35Z</time>
      </trkpt>
      <trkpt lat="46.40889" lon="5.98727">
        <ele>1212.5</ele>
        <time>2021-08-19T11:22:37Z</time>
      </trkpt>
      <trkpt lat="46.40888" lon="5.98723">
        <ele>1212.7</ele>
        <time>2021-08-19T11:22:38Z</time>
      </trkpt>
      <trkpt lat="46.40888" lon="5.9872">
        <ele>1212.8</ele>
        <time>2021-08-19T11:22:40Z</time>
      </trkpt>
      <trkpt lat="46.40888" lon="5.98719">
        <ele>1212.9</ele>
        <time>2021-08-19T11:22:41Z</time>
      </trkpt>
      <trkpt lat="46.40887" lon="5.98716">
        <ele>1213</ele>
        <time>2021-08-19T11:22:42Z</time>
      </trkpt>
      <trkpt lat="46.40885" lon="5.98711">
        <ele>1213.2</ele>
        <time>2021-08-19T11:22:44Z</time>
      </trkpt>
      <trkpt lat="46.40882" lon="5.98707">
        <ele>1213.5</ele>
        <time>2021-08-19T11:22:46Z</time>
      </trkpt>
      <trkpt lat="46.40881" lon="5.98705">
        <ele>1213.6</ele>
        <time>2021-08-19T11:22:47Z</time>
      </trkpt>
      <trkpt lat="46.4088" lon="5.98703">
        <ele>1213.7</ele>
        <time>2021-08-19T11:22:48Z</time>
      </trkpt>
      <trkpt lat="46.40878" lon="5.98701">
        <ele>1213.9</ele>
        <time>2021-08-19T11:22:49Z</time>
      </trkpt>
      <trkpt lat="46.40877" lon="5.987">
        <ele>1213.9</ele>
        <time>2021-08-19T11:22:50Z</time>
      </trkpt>
      <trkpt lat="46.40873" lon="5.98696">
        <ele>1214.2</ele>
        <time>2021-08-19T11:22:52Z</time>
      </trkpt>
      <trkpt lat="46.40872" lon="5.98694">
        <ele>1214.3</ele>
        <time>2021-08-19T11:22:53Z</time>
      </trkpt>
      <trkpt lat="46.40871" lon="5.98693">
        <ele>1214.4</ele>
        <time>2021-08-19T11:22:54Z</time>
      </trkpt>
      <trkpt lat="46.40869" lon="5.9869">
        <ele>1214.5</ele>
        <time>2021-08-19T11:22:55Z</time>
      </trkpt>
      <trkpt lat="46.40869" lon="5.98689">
        <ele>1214.5</ele>
        <time>2021-08-19T11:22:57Z</time>
      </trkpt>
      <trkpt lat="46.40868" lon="5.98688">
        <ele>1214.6</ele>
        <time>2021-08-19T11:22:58Z</time>
      </trkpt>
      <trkpt lat="46.40867" lon="5.98686">
        <ele>1214.7</ele>
        <time>2021-08-19T11:22:59Z</time>
      </trkpt>
      <trkpt lat="46.40866" lon="5.98686">
        <ele>1214.7</ele>
        <time>2021-08-19T11:23:00Z</time>
      </trkpt>
      <trkpt lat="46.40864" lon="5.98685">
        <ele>1214.8</ele>
        <time>2021-08-19T11:23:01Z</time>
      </trkpt>
      <trkpt lat="46.40863" lon="5.98685">
        <ele>1214.8</ele>
        <time>2021-08-19T11:23:02Z</time>
      </trkpt>
      <trkpt lat="46.40862" lon="5.98685">
        <ele>1214.8</ele>
        <time>2021-08-19T11:23:04Z</time>
      </trkpt>
      <trkpt lat="46.40861" lon="5.98685">
        <ele>1214.9</ele>
        <time>2021-08-19T11:23:05Z</time>
      </trkpt>
      <trkpt lat="46.40856" lon="5.98685">
        <ele>1215</ele>
        <time>2021-08-19T11:23:09Z</time>
      </trkpt>
      <trkpt lat="46.4085" lon="5.98684">
        <ele>1215.1</ele>
        <time>2021-08-19T11:23:11Z</time>
      </trkpt>
      <trkpt lat="46.40846" lon="5.98682">
        <ele>1215.3</ele>
        <time>2021-08-19T11:23:12Z</time>
      </trkpt>
      <trkpt lat="46.40841" lon="5.9868">
        <ele>1215.3</ele>
        <time>2021-08-19T11:23:13Z</time>
      </trkpt>
      <trkpt lat="46.40837" lon="5.98678">
        <ele>1215.3</ele>
        <time>2021-08-19T11:23:14Z</time>
      </trkpt>
      <trkpt lat="46.40831" lon="5.98673">
        <ele>1215.4</ele>
        <time>2021-08-19T11:23:16Z</time>
      </trkpt>
      <trkpt lat="46.40826" lon="5.98669">
        <ele>1215.5</ele>
        <time>2021-08-19T11:23:18Z</time>
      </trkpt>
      <trkpt lat="46.40824" lon="5.98665">
        <ele>1215.6</ele>
        <time>2021-08-19T11:23:19Z</time>
      </trkpt>
      <trkpt lat="46.40823" lon="5.9866">
        <ele>1215.7</ele>
        <time>2021-08-19T11:23:20Z</time>
      </trkpt>
      <trkpt lat="46.4082" lon="5.9865">
        <ele>1216</ele>
        <time>2021-08-19T11:23:22Z</time>
      </trkpt>
      <trkpt lat="46.4082" lon="5.98645">
        <ele>1216.2</ele>
        <time>2021-08-19T11:23:23Z</time>
      </trkpt>
      <trkpt lat="46.40818" lon="5.9864">
        <ele>1216.3</ele>
        <time>2021-08-19T11:23:24Z</time>
      </trkpt>
      <trkpt lat="46.40817" lon="5.98636">
        <ele>1216.5</ele>
        <time>2021-08-19T11:23:25Z</time>
      </trkpt>
      <trkpt lat="46.40815" lon="5.98632">
        <ele>1216.6</ele>
        <time>2021-08-19T11:23:26Z</time>
      </trkpt>
      <trkpt lat="46.40813" lon="5.98625">
        <ele>1216.9</ele>
        <time>2021-08-19T11:23:28Z</time>
      </trkpt>
      <trkpt lat="46.40809" lon="5.98618">
        <ele>1217.1</ele>
        <time>2021-08-19T11:23:29Z</time>
      </trkpt>
      <trkpt lat="46.40808" lon="5.98614">
        <ele>1217.2</ele>
        <time>2021-08-19T11:23:30Z</time>
      </trkpt>
      <trkpt lat="46.40806" lon="5.9861">
        <ele>1217.3</ele>
        <time>2021-08-19T11:23:31Z</time>
      </trkpt>
      <trkpt lat="46.40804" lon="5.98606">
        <ele>1217.5</ele>
        <time>2021-08-19T11:23:32Z</time>
      </trkpt>
      <trkpt lat="46.40803" lon="5.98601">
        <ele>1217.6</ele>
        <time>2021-08-19T11:23:33Z</time>
      </trkpt>
      <trkpt lat="46.40802" lon="5.98595">
        <ele>1217.7</ele>
        <time>2021-08-19T11:23:35Z</time>
      </trkpt>
      <trkpt lat="46.408" lon="5.98591">
        <ele>1217.8</ele>
        <time>2021-08-19T11:23:36Z</time>
      </trkpt>
      <trkpt lat="46.40799" lon="5.98585">
        <ele>1217.9</ele>
        <time>2021-08-19T11:23:38Z</time>
      </trkpt>
      <trkpt lat="46.40798" lon="5.98581">
        <ele>1218</ele>
        <time>2021-08-19T11:23:39Z</time>
      </trkpt>
      <trkpt lat="46.40798" lon="5.98577">
        <ele>1218</ele>
        <time>2021-08-19T11:23:41Z</time>
      </trkpt>
      <trkpt lat="46.40797" lon="5.98574">
        <ele>1218.1</ele>
        <time>2021-08-19T11:23:42Z</time>
      </trkpt>
      <trkpt lat="46.40795" lon="5.98568">
        <ele>1218.1</ele>
        <time>2021-08-19T11:23:44Z</time>
      </trkpt>
      <trkpt lat="46.40794" lon="5.98561">
        <ele>1218.2</ele>
        <time>2021-08-19T11:23:46Z</time>
      </trkpt>
      <trkpt lat="46.40793" lon="5.98557">
        <ele>1218.2</ele>
        <time>2021-08-19T11:23:47Z</time>
      </trkpt>
      <trkpt lat="46.40789" lon="5.98549">
        <ele>1218.2</ele>
        <time>2021-08-19T11:23:49Z</time>
      </trkpt>
      <trkpt lat="46.40787" lon="5.98546">
        <ele>1218.2</ele>
        <time>2021-08-19T11:23:50Z</time>
      </trkpt>
      <trkpt lat="46.40783" lon="5.98543">
        <ele>1218.2</ele>
        <time>2021-08-19T11:23:51Z</time>
      </trkpt>
      <trkpt lat="46.40782" lon="5.98542">
        <ele>1218.2</ele>
        <time>2021-08-19T11:23:52Z</time>
      </trkpt>
      <trkpt lat="46.40781" lon="5.98543">
        <ele>1218.2</ele>
        <time>2021-08-19T11:23:54Z</time>
      </trkpt>
      <trkpt lat="46.4078" lon="5.98542">
        <ele>1218.2</ele>
        <time>2021-08-19T11:23:55Z</time>
      </trkpt>
      <trkpt lat="46.40779" lon="5.9854">
        <ele>1218.2</ele>
        <time>2021-08-19T11:23:56Z</time>
      </trkpt>
      <trkpt lat="46.40778" lon="5.98539">
        <ele>1218.2</ele>
        <time>2021-08-19T11:23:57Z</time>
      </trkpt>
      <trkpt lat="46.40778" lon="5.98537">
        <ele>1218.2</ele>
        <time>2021-08-19T11:23:59Z</time>
      </trkpt>
      <trkpt lat="46.40779" lon="5.98535">
        <ele>1218.2</ele>
        <time>2021-08-19T11:24:00Z</time>
      </trkpt>
      <trkpt lat="46.40779" lon="5.98533">
        <ele>1218.2</ele>
        <time>2021-08-19T11:24:02Z</time>
      </trkpt>
      <trkpt lat="46.40779" lon="5.98528">
        <ele>1218.2</ele>
        <time>2021-08-19T11:24:03Z</time>
      </trkpt>
      <trkpt lat="46.40779" lon="5.98524">
        <ele>1218.2</ele>
        <time>2021-08-19T11:24:05Z</time>
      </trkpt>
      <trkpt lat="46.4078" lon="5.98519">
        <ele>1218.2</ele>
        <time>2021-08-19T11:24:06Z</time>
      </trkpt>
      <trkpt lat="46.40781" lon="5.98513">
        <ele>1218.2</ele>
        <time>2021-08-19T11:24:07Z</time>
      </trkpt>
      <trkpt lat="46.40781" lon="5.98511">
        <ele>1218.2</ele>
        <time>2021-08-19T11:24:08Z</time>
      </trkpt>
      <trkpt lat="46.40782" lon="5.98504">
        <ele>1218.2</ele>
        <time>2021-08-19T11:24:09Z</time>
      </trkpt>
      <trkpt lat="46.40783" lon="5.985">
        <ele>1218.2</ele>
        <time>2021-08-19T11:24:11Z</time>
      </trkpt>
      <trkpt lat="46.40784" lon="5.98497">
        <ele>1218.2</ele>
        <time>2021-08-19T11:24:12Z</time>
      </trkpt>
      <trkpt lat="46.40784" lon="5.98491">
        <ele>1218.2</ele>
        <time>2021-08-19T11:24:14Z</time>
      </trkpt>
      <trkpt lat="46.40782" lon="5.98484">
        <ele>1218.2</ele>
        <time>2021-08-19T11:24:15Z</time>
      </trkpt>
      <trkpt lat="46.4078" lon="5.98481">
        <ele>1218.2</ele>
        <time>2021-08-19T11:24:17Z</time>
      </trkpt>
      <trkpt lat="46.40777" lon="5.98475">
        <ele>1218.2</ele>
        <time>2021-08-19T11:24:19Z</time>
      </trkpt>
      <trkpt lat="46.40775" lon="5.9847">
        <ele>1218.2</ele>
        <time>2021-08-19T11:24:20Z</time>
      </trkpt>
      <trkpt lat="46.40771" lon="5.98465">
        <ele>1218.2</ele>
        <time>2021-08-19T11:24:22Z</time>
      </trkpt>
      <trkpt lat="46.40769" lon="5.98462">
        <ele>1218.2</ele>
        <time>2021-08-19T11:24:23Z</time>
      </trkpt>
      <trkpt lat="46.40769" lon="5.9846">
        <ele>1218.2</ele>
        <time>2021-08-19T11:24:24Z</time>
      </trkpt>
      <trkpt lat="46.40768" lon="5.98457">
        <ele>1218.2</ele>
        <time>2021-08-19T11:24:25Z</time>
      </trkpt>
      <trkpt lat="46.4077" lon="5.98456">
        <ele>1218.2</ele>
        <time>2021-08-19T11:24:27Z</time>
      </trkpt>
      <trkpt lat="46.4077" lon="5.98454">
        <ele>1218.2</ele>
        <time>2021-08-19T11:24:28Z</time>
      </trkpt>
      <trkpt lat="46.4077" lon="5.98453">
        <ele>1218.3</ele>
        <time>2021-08-19T11:24:30Z</time>
      </trkpt>
      <trkpt lat="46.4077" lon="5.98451">
        <ele>1218.3</ele>
        <time>2021-08-19T11:24:31Z</time>
      </trkpt>
      <trkpt lat="46.4077" lon="5.9845">
        <ele>1218.3</ele>
        <time>2021-08-19T11:24:32Z</time>
      </trkpt>
      <trkpt lat="46.4077" lon="5.98448">
        <ele>1218.3</ele>
        <time>2021-08-19T11:24:34Z</time>
      </trkpt>
      <trkpt lat="46.40724" lon="5.98387">
        <ele>1221.8</ele>
        <time>2021-08-19T11:24:59Z</time>
      </trkpt>
      <trkpt lat="46.40715" lon="5.98381">
        <ele>1222.7</ele>
        <time>2021-08-19T11:25:01Z</time>
      </trkpt>
      <trkpt lat="46.40708" lon="5.98376">
        <ele>1223.1</ele>
        <time>2021-08-19T11:25:02Z</time>
      </trkpt>
      <trkpt lat="46.40696" lon="5.9837">
        <ele>1223.6</ele>
        <time>2021-08-19T11:25:04Z</time>
      </trkpt>
      <trkpt lat="46.40689" lon="5.98365">
        <ele>1223.8</ele>
        <time>2021-08-19T11:25:06Z</time>
      </trkpt>
      <trkpt lat="46.40682" lon="5.98361">
        <ele>1223.9</ele>
        <time>2021-08-19T11:25:07Z</time>
      </trkpt>
      <trkpt lat="46.40679" lon="5.98359">
        <ele>1223.9</ele>
        <time>2021-08-19T11:25:08Z</time>
      </trkpt>
      <trkpt lat="46.40676" lon="5.98357">
        <ele>1223.9</ele>
        <time>2021-08-19T11:25:10Z</time>
      </trkpt>
      <trkpt lat="46.40673" lon="5.98355">
        <ele>1223.9</ele>
        <time>2021-08-19T11:25:11Z</time>
      </trkpt>
      <trkpt lat="46.40674" lon="5.98355">
        <ele>1223.9</ele>
        <time>2021-08-19T11:25:13Z</time>
      </trkpt>
      <trkpt lat="46.40674" lon="5.98355">
        <ele>1223.9</ele>
        <time>2021-08-19T11:25:15Z</time>
      </trkpt>
      <trkpt lat="46.40674" lon="5.98355">
        <ele>1223.9</ele>
        <time>2021-08-19T11:25:16Z</time>
      </trkpt>
      <trkpt lat="46.40673" lon="5.98354">
        <ele>1223.9</ele>
        <time>2021-08-19T11:25:18Z</time>
      </trkpt>
      <trkpt lat="46.40614" lon="5.98275">
        <ele>1219.7</ele>
        <time>2021-08-19T11:25:35Z</time>
      </trkpt>
      <trkpt lat="46.40599" lon="5.98253">
        <ele>1219.4</ele>
        <time>2021-08-19T11:25:37Z</time>
      </trkpt>
      <trkpt lat="46.40593" lon="5.98243">
        <ele>1219.5</ele>
        <time>2021-08-19T11:25:38Z</time>
      </trkpt>
      <trkpt lat="46.40581" lon="5.98224">
        <ele>1219.7</ele>
        <time>2021-08-19T11:25:39Z</time>
      </trkpt>
      <trkpt lat="46.40573" lon="5.98209">
        <ele>1219.6</ele>
        <time>2021-08-19T11:25:41Z</time>
      </trkpt>
      <trkpt lat="46.40572" lon="5.98201">
        <ele>1219.3</ele>
        <time>2021-08-19T11:25:42Z</time>
      </trkpt>
      <trkpt lat="46.40569" lon="5.98194">
        <ele>1219</ele>
        <time>2021-08-19T11:25:43Z</time>
      </trkpt>
      <trkpt lat="46.40566" lon="5.98179">
        <ele>1218.4</ele>
        <time>2021-08-19T11:25:45Z</time>
      </trkpt>
      <trkpt lat="46.40563" lon="5.98171">
        <ele>1218.1</ele>
        <time>2021-08-19T11:25:46Z</time>
      </trkpt>
      <trkpt lat="46.40561" lon="5.98165">
        <ele>1217.9</ele>
        <time>2021-08-19T11:25:47Z</time>
      </trkpt>
      <trkpt lat="46.40561" lon="5.98151">
        <ele>1217.5</ele>
        <time>2021-08-19T11:25:49Z</time>
      </trkpt>
      <trkpt lat="46.40565" lon="5.98142">
        <ele>1217.3</ele>
        <time>2021-08-19T11:25:51Z</time>
      </trkpt>
      <trkpt lat="46.40564" lon="5.98134">
        <ele>1217.1</ele>
        <time>2021-08-19T11:25:53Z</time>
      </trkpt>
      <trkpt lat="46.40564" lon="5.98134">
        <ele>1217.1</ele>
        <time>2021-08-19T11:25:55Z</time>
      </trkpt>
      <trkpt lat="46.40564" lon="5.98134">
        <ele>1217.1</ele>
        <time>2021-08-19T11:25:57Z</time>
      </trkpt>
      <trkpt lat="46.40427" lon="5.97947">
        <ele>1215.5</ele>
        <time>2021-08-19T11:27:45Z</time>
      </trkpt>
      <trkpt lat="46.4042" lon="5.97945">
        <ele>1215.4</ele>
        <time>2021-08-19T11:27:46Z</time>
      </trkpt>
      <trkpt lat="46.40416" lon="5.97936">
        <ele>1215.2</ele>
        <time>2021-08-19T11:27:47Z</time>
      </trkpt>
      <trkpt lat="46.40412" lon="5.97929">
        <ele>1215.1</ele>
        <time>2021-08-19T11:27:48Z</time>
      </trkpt>
      <trkpt lat="46.40405" lon="5.97919">
        <ele>1214.9</ele>
        <time>2021-08-19T11:27:50Z</time>
      </trkpt>
      <trkpt lat="46.404" lon="5.97913">
        <ele>1214.8</ele>
        <time>2021-08-19T11:27:51Z</time>
      </trkpt>
      <trkpt lat="46.40397" lon="5.97909">
        <ele>1214.8</ele>
        <time>2021-08-19T11:27:52Z</time>
      </trkpt>
      <trkpt lat="46.40394" lon="5.97905">
        <ele>1214.8</ele>
        <time>2021-08-19T11:27:54Z</time>
      </trkpt>
      <trkpt lat="46.40391" lon="5.97903">
        <ele>1214.8</ele>
        <time>2021-08-19T11:27:55Z</time>
      </trkpt>
      <trkpt lat="46.4039" lon="5.97902">
        <ele>1214.8</ele>
        <time>2021-08-19T11:27:56Z</time>
      </trkpt>
      <trkpt lat="46.40389" lon="5.979">
        <ele>1214.8</ele>
        <time>2021-08-19T11:27:57Z</time>
      </trkpt>
      <trkpt lat="46.40386" lon="5.97896">
        <ele>1214.9</ele>
        <time>2021-08-19T11:27:59Z</time>
      </trkpt>
      <trkpt lat="46.40384" lon="5.97894">
        <ele>1214.9</ele>
        <time>2021-08-19T11:28:00Z</time>
      </trkpt>
      <trkpt lat="46.40383" lon="5.97893">
        <ele>1214.9</ele>
        <time>2021-08-19T11:28:01Z</time>
      </trkpt>
      <trkpt lat="46.40381" lon="5.97892">
        <ele>1214.9</ele>
        <time>2021-08-19T11:28:02Z</time>
      </trkpt>
      <trkpt lat="46.40379" lon="5.97889">
        <ele>1214.9</ele>
        <time>2021-08-19T11:28:04Z</time>
      </trkpt>
      <trkpt lat="46.40255" lon="5.97759">
        <ele>1210.3</ele>
        <time>2021-08-19T11:28:29Z</time>
      </trkpt>
      <trkpt lat="46.40247" lon="5.97747">
        <ele>1209.3</ele>
        <time>2021-08-19T11:28:30Z</time>
      </trkpt>
      <trkpt lat="46.40242" lon="5.97736">
        <ele>1208.5</ele>
        <time>2021-08-19T11:28:31Z</time>
      </trkpt>
      <trkpt lat="46.40233" lon="5.97718">
        <ele>1207.6</ele>
        <time>2021-08-19T11:28:33Z</time>
      </trkpt>
      <trkpt lat="46.40223" lon="5.97703">
        <ele>1206.9</ele>
        <time>2021-08-19T11:28:35Z</time>
      </trkpt>
      <trkpt lat="46.40219" lon="5.97695">
        <ele>1206.5</ele>
        <time>2021-08-19T11:28:36Z</time>
      </trkpt>
      <trkpt lat="46.40215" lon="5.97689">
        <ele>1206.2</ele>
        <time>2021-08-19T11:28:37Z</time>
      </trkpt>
      <trkpt lat="46.40205" lon="5.97679">
        <ele>1205.4</ele>
        <time>2021-08-19T11:28:39Z</time>
      </trkpt>
      <trkpt lat="46.402" lon="5.97674">
        <ele>1205</ele>
        <time>2021-08-19T11:28:40Z</time>
      </trkpt>
      <trkpt lat="46.40195" lon="5.97669">
        <ele>1204.5</ele>
        <time>2021-08-19T11:28:41Z</time>
      </trkpt>
      <trkpt lat="46.40187" lon="5.97655">
        <ele>1203.6</ele>
        <time>2021-08-19T11:28:43Z</time>
      </trkpt>
      <trkpt lat="46.40179" lon="5.97639">
        <ele>1202.6</ele>
        <time>2021-08-19T11:28:45Z</time>
      </trkpt>
      <trkpt lat="46.40174" lon="5.97631">
        <ele>1202.2</ele>
        <time>2021-08-19T11:28:46Z</time>
      </trkpt>
      <trkpt lat="46.40171" lon="5.97623">
        <ele>1201.7</ele>
        <time>2021-08-19T11:28:47Z</time>
      </trkpt>
      <trkpt lat="46.40165" lon="5.97604">
        <ele>1200.6</ele>
        <time>2021-08-19T11:28:49Z</time>
      </trkpt>
      <trkpt lat="46.40159" lon="5.97583">
        <ele>1199.3</ele>
        <time>2021-08-19T11:28:51Z</time>
      </trkpt>
      <trkpt lat="46.4015" lon="5.97565">
        <ele>1198.2</ele>
        <time>2021-08-19T11:28:53Z</time>
      </trkpt>
      <trkpt lat="46.4014" lon="5.97549">
        <ele>1197.4</ele>
        <time>2021-08-19T11:28:55Z</time>
      </trkpt>
      <trkpt lat="46.40129" lon="5.97535">
        <ele>1196.5</ele>
        <time>2021-08-19T11:28:57Z</time>
      </trkpt>
      <trkpt lat="46.40124" lon="5.97528">
        <ele>1196.1</ele>
        <time>2021-08-19T11:28:58Z</time>
      </trkpt>
      <trkpt lat="46.40119" lon="5.97521">
        <ele>1195.7</ele>
        <time>2021-08-19T11:28:59Z</time>
      </trkpt>
      <trkpt lat="46.40108" lon="5.97506">
        <ele>1194.8</ele>
        <time>2021-08-19T11:29:01Z</time>
      </trkpt>
      <trkpt lat="46.40098" lon="5.97493">
        <ele>1194</ele>
        <time>2021-08-19T11:29:03Z</time>
      </trkpt>
      <trkpt lat="46.40093" lon="5.97486">
        <ele>1193.6</ele>
        <time>2021-08-19T11:29:04Z</time>
      </trkpt>
      <trkpt lat="46.40088" lon="5.97478">
        <ele>1193.2</ele>
        <time>2021-08-19T11:29:05Z</time>
      </trkpt>
      <trkpt lat="46.40082" lon="5.97471">
        <ele>1192.8</ele>
        <time>2021-08-19T11:29:06Z</time>
      </trkpt>
      <trkpt lat="46.40075" lon="5.97464">
        <ele>1192.4</ele>
        <time>2021-08-19T11:29:07Z</time>
      </trkpt>
      <trkpt lat="46.4006" lon="5.97455">
        <ele>1191.6</ele>
        <time>2021-08-19T11:29:09Z</time>
      </trkpt>
      <trkpt lat="46.40046" lon="5.97449">
        <ele>1191</ele>
        <time>2021-08-19T11:29:11Z</time>
      </trkpt>
      <trkpt lat="46.40035" lon="5.97438">
        <ele>1190.5</ele>
        <time>2021-08-19T11:29:13Z</time>
      </trkpt>
      <trkpt lat="46.4003" lon="5.97433">
        <ele>1190.2</ele>
        <time>2021-08-19T11:29:14Z</time>
      </trkpt>
      <trkpt lat="46.40024" lon="5.97427">
        <ele>1190</ele>
        <time>2021-08-19T11:29:15Z</time>
      </trkpt>
      <trkpt lat="46.40014" lon="5.97414">
        <ele>1189.5</ele>
        <time>2021-08-19T11:29:17Z</time>
      </trkpt>
      <trkpt lat="46.40003" lon="5.97402">
        <ele>1189</ele>
        <time>2021-08-19T11:29:19Z</time>
      </trkpt>
      <trkpt lat="46.39992" lon="5.9739">
        <ele>1188.5</ele>
        <time>2021-08-19T11:29:21Z</time>
      </trkpt>
      <trkpt lat="46.39988" lon="5.97384">
        <ele>1188.1</ele>
        <time>2021-08-19T11:29:22Z</time>
      </trkpt>
      <trkpt lat="46.39978" lon="5.97368">
        <ele>1187.4</ele>
        <time>2021-08-19T11:29:24Z</time>
      </trkpt>
      <trkpt lat="46.39973" lon="5.97361">
        <ele>1187.1</ele>
        <time>2021-08-19T11:29:25Z</time>
      </trkpt>
      <trkpt lat="46.39967" lon="5.97344">
        <ele>1186.6</ele>
        <time>2021-08-19T11:29:27Z</time>
      </trkpt>
      <trkpt lat="46.39962" lon="5.97327">
        <ele>1186.5</ele>
        <time>2021-08-19T11:29:29Z</time>
      </trkpt>
      <trkpt lat="46.39959" lon="5.9732">
        <ele>1186.6</ele>
        <time>2021-08-19T11:29:30Z</time>
      </trkpt>
      <trkpt lat="46.39954" lon="5.97315">
        <ele>1186.7</ele>
        <time>2021-08-19T11:29:31Z</time>
      </trkpt>
      <trkpt lat="46.39946" lon="5.97302">
        <ele>1186.9</ele>
        <time>2021-08-19T11:29:33Z</time>
      </trkpt>
      <trkpt lat="46.39941" lon="5.97286">
        <ele>1187.2</ele>
        <time>2021-08-19T11:29:35Z</time>
      </trkpt>
      <trkpt lat="46.39939" lon="5.9728">
        <ele>1187.2</ele>
        <time>2021-08-19T11:29:36Z</time>
      </trkpt>
      <trkpt lat="46.39936" lon="5.97276">
        <ele>1187.3</ele>
        <time>2021-08-19T11:29:37Z</time>
      </trkpt>
      <trkpt lat="46.39929" lon="5.97269">
        <ele>1187.4</ele>
        <time>2021-08-19T11:29:39Z</time>
      </trkpt>
      <trkpt lat="46.39925" lon="5.97266">
        <ele>1187.5</ele>
        <time>2021-08-19T11:29:40Z</time>
      </trkpt>
      <trkpt lat="46.39923" lon="5.97263">
        <ele>1187.5</ele>
        <time>2021-08-19T11:29:41Z</time>
      </trkpt>
      <trkpt lat="46.39918" lon="5.97253">
        <ele>1187.6</ele>
        <time>2021-08-19T11:29:43Z</time>
      </trkpt>
      <trkpt lat="46.39915" lon="5.97242">
        <ele>1187.7</ele>
        <time>2021-08-19T11:29:45Z</time>
      </trkpt>
      <trkpt lat="46.39913" lon="5.97237">
        <ele>1187.7</ele>
        <time>2021-08-19T11:29:46Z</time>
      </trkpt>
      <trkpt lat="46.39911" lon="5.97231">
        <ele>1187.8</ele>
        <time>2021-08-19T11:29:47Z</time>
      </trkpt>
      <trkpt lat="46.39904" lon="5.9722">
        <ele>1188</ele>
        <time>2021-08-19T11:29:49Z</time>
      </trkpt>
      <trkpt lat="46.399" lon="5.97209">
        <ele>1188.2</ele>
        <time>2021-08-19T11:29:51Z</time>
      </trkpt>
      <trkpt lat="46.39896" lon="5.97201">
        <ele>1188.4</ele>
        <time>2021-08-19T11:29:53Z</time>
      </trkpt>
      <trkpt lat="46.39893" lon="5.97194">
        <ele>1188.7</ele>
        <time>2021-08-19T11:29:55Z</time>
      </trkpt>
      <trkpt lat="46.3989" lon="5.97188">
        <ele>1188.9</ele>
        <time>2021-08-19T11:29:57Z</time>
      </trkpt>
      <trkpt lat="46.39888" lon="5.97184">
        <ele>1189.1</ele>
        <time>2021-08-19T11:29:58Z</time>
      </trkpt>
      <trkpt lat="46.39888" lon="5.97183">
        <ele>1189.2</ele>
        <time>2021-08-19T11:29:59Z</time>
      </trkpt>
      <trkpt lat="46.39887" lon="5.97181">
        <ele>1189.3</ele>
        <time>2021-08-19T11:30:01Z</time>
      </trkpt>
      <trkpt lat="46.39886" lon="5.9718">
        <ele>1189.3</ele>
        <time>2021-08-19T11:30:03Z</time>
      </trkpt>
      <trkpt lat="46.39883" lon="5.97178">
        <ele>1189.6</ele>
        <time>2021-08-19T11:30:05Z</time>
      </trkpt>
      <trkpt lat="46.39882" lon="5.97175">
        <ele>1189.8</ele>
        <time>2021-08-19T11:30:07Z</time>
      </trkpt>
      <trkpt lat="46.39881" lon="5.97171">
        <ele>1190</ele>
        <time>2021-08-19T11:30:09Z</time>
      </trkpt>
      <trkpt lat="46.3988" lon="5.97169">
        <ele>1190.1</ele>
        <time>2021-08-19T11:30:10Z</time>
      </trkpt>
      <trkpt lat="46.39879" lon="5.97167">
        <ele>1190.3</ele>
        <time>2021-08-19T11:30:12Z</time>
      </trkpt>
      <trkpt lat="46.39879" lon="5.97165">
        <ele>1190.4</ele>
        <time>2021-08-19T11:30:13Z</time>
      </trkpt>
      <trkpt lat="46.39878" lon="5.97163">
        <ele>1190.6</ele>
        <time>2021-08-19T11:30:14Z</time>
      </trkpt>
      <trkpt lat="46.39876" lon="5.97161">
        <ele>1190.7</ele>
        <time>2021-08-19T11:30:15Z</time>
      </trkpt>
      <trkpt lat="46.39874" lon="5.97154">
        <ele>1191.2</ele>
        <time>2021-08-19T11:30:17Z</time>
      </trkpt>
      <trkpt lat="46.39871" lon="5.97151">
        <ele>1191.5</ele>
        <time>2021-08-19T11:30:18Z</time>
      </trkpt>
      <trkpt lat="46.39869" lon="5.97148">
        <ele>1191.7</ele>
        <time>2021-08-19T11:30:19Z</time>
      </trkpt>
      <trkpt lat="46.39865" lon="5.97145">
        <ele>1192</ele>
        <time>2021-08-19T11:30:21Z</time>
      </trkpt>
      <trkpt lat="46.39862" lon="5.97144">
        <ele>1192.2</ele>
        <time>2021-08-19T11:30:22Z</time>
      </trkpt>
      <trkpt lat="46.3986" lon="5.97141">
        <ele>1192.4</ele>
        <time>2021-08-19T11:30:23Z</time>
      </trkpt>
      <trkpt lat="46.39858" lon="5.97138">
        <ele>1192.6</ele>
        <time>2021-08-19T11:30:25Z</time>
      </trkpt>
      <trkpt lat="46.39856" lon="5.97133">
        <ele>1192.8</ele>
        <time>2021-08-19T11:30:26Z</time>
      </trkpt>
      <trkpt lat="46.39854" lon="5.97128">
        <ele>1192.9</ele>
        <time>2021-08-19T11:30:28Z</time>
      </trkpt>
      <trkpt lat="46.39855" lon="5.97123">
        <ele>1193</ele>
        <time>2021-08-19T11:30:29Z</time>
      </trkpt>
      <trkpt lat="46.39855" lon="5.97118">
        <ele>1193.2</ele>
        <time>2021-08-19T11:30:30Z</time>
      </trkpt>
      <trkpt lat="46.39854" lon="5.97112">
        <ele>1193.2</ele>
        <time>2021-08-19T11:30:32Z</time>
      </trkpt>
      <trkpt lat="46.39851" lon="5.97107">
        <ele>1193.3</ele>
        <time>2021-08-19T11:30:33Z</time>
      </trkpt>
      <trkpt lat="46.39849" lon="5.97103">
        <ele>1193.3</ele>
        <time>2021-08-19T11:30:34Z</time>
      </trkpt>
      <trkpt lat="46.39847" lon="5.97099">
        <ele>1193.3</ele>
        <time>2021-08-19T11:30:35Z</time>
      </trkpt>
      <trkpt lat="46.39843" lon="5.97096">
        <ele>1193.3</ele>
        <time>2021-08-19T11:30:36Z</time>
      </trkpt>
      <trkpt lat="46.39839" lon="5.97093">
        <ele>1193.3</ele>
        <time>2021-08-19T11:30:37Z</time>
      </trkpt>
      <trkpt lat="46.39834" lon="5.97089">
        <ele>1193.2</ele>
        <time>2021-08-19T11:30:39Z</time>
      </trkpt>
      <trkpt lat="46.3983" lon="5.97086">
        <ele>1193.1</ele>
        <time>2021-08-19T11:30:40Z</time>
      </trkpt>
      <trkpt lat="46.39828" lon="5.97081">
        <ele>1192.9</ele>
        <time>2021-08-19T11:30:41Z</time>
      </trkpt>
      <trkpt lat="46.39825" lon="5.97075">
        <ele>1192.8</ele>
        <time>2021-08-19T11:30:43Z</time>
      </trkpt>
      <trkpt lat="46.39824" lon="5.9707">
        <ele>1192.6</ele>
        <time>2021-08-19T11:30:44Z</time>
      </trkpt>
      <trkpt lat="46.39822" lon="5.97067">
        <ele>1192.5</ele>
        <time>2021-08-19T11:30:45Z</time>
      </trkpt>
      <trkpt lat="46.39819" lon="5.97061">
        <ele>1192.3</ele>
        <time>2021-08-19T11:30:46Z</time>
      </trkpt>
      <trkpt lat="46.39816" lon="5.97057">
        <ele>1192.2</ele>
        <time>2021-08-19T11:30:47Z</time>
      </trkpt>
      <trkpt lat="46.39809" lon="5.9705">
        <ele>1191.8</ele>
        <time>2021-08-19T11:30:49Z</time>
      </trkpt>
      <trkpt lat="46.39805" lon="5.97046">
        <ele>1191.6</ele>
        <time>2021-08-19T11:30:50Z</time>
      </trkpt>
      <trkpt lat="46.39802" lon="5.97041">
        <ele>1191.4</ele>
        <time>2021-08-19T11:30:51Z</time>
      </trkpt>
      <trkpt lat="46.39798" lon="5.97034">
        <ele>1191.1</ele>
        <time>2021-08-19T11:30:52Z</time>
      </trkpt>
      <trkpt lat="46.39796" lon="5.97029">
        <ele>1190.9</ele>
        <time>2021-08-19T11:30:53Z</time>
      </trkpt>
      <trkpt lat="46.39791" lon="5.97016">
        <ele>1190.4</ele>
        <time>2021-08-19T11:30:55Z</time>
      </trkpt>
      <trkpt lat="46.39786" lon="5.97003">
        <ele>1189.9</ele>
        <time>2021-08-19T11:30:57Z</time>
      </trkpt>
      <trkpt lat="46.39778" lon="5.9699">
        <ele>1189.3</ele>
        <time>2021-08-19T11:30:59Z</time>
      </trkpt>
      <trkpt lat="46.39769" lon="5.96978">
        <ele>1188.7</ele>
        <time>2021-08-19T11:31:01Z</time>
      </trkpt>
      <trkpt lat="46.39764" lon="5.96974">
        <ele>1188.5</ele>
        <time>2021-08-19T11:31:02Z</time>
      </trkpt>
      <trkpt lat="46.39755" lon="5.96965">
        <ele>1187.9</ele>
        <time>2021-08-19T11:31:04Z</time>
      </trkpt>
      <trkpt lat="46.39748" lon="5.96955">
        <ele>1187.4</ele>
        <time>2021-08-19T11:31:06Z</time>
      </trkpt>
      <trkpt lat="46.39743" lon="5.96952">
        <ele>1187.2</ele>
        <time>2021-08-19T11:31:07Z</time>
      </trkpt>
      <trkpt lat="46.39734" lon="5.96947">
        <ele>1186.7</ele>
        <time>2021-08-19T11:31:09Z</time>
      </trkpt>
      <trkpt lat="46.39723" lon="5.96943">
        <ele>1186</ele>
        <time>2021-08-19T11:31:11Z</time>
      </trkpt>
      <trkpt lat="46.39714" lon="5.96936">
        <ele>1185.3</ele>
        <time>2021-08-19T11:31:13Z</time>
      </trkpt>
      <trkpt lat="46.39705" lon="5.96926">
        <ele>1184.5</ele>
        <time>2021-08-19T11:31:15Z</time>
      </trkpt>
      <trkpt lat="46.39701" lon="5.96921">
        <ele>1184.2</ele>
        <time>2021-08-19T11:31:16Z</time>
      </trkpt>
      <trkpt lat="46.39697" lon="5.96916">
        <ele>1183.8</ele>
        <time>2021-08-19T11:31:17Z</time>
      </trkpt>
      <trkpt lat="46.39689" lon="5.96903">
        <ele>1183.2</ele>
        <time>2021-08-19T11:31:19Z</time>
      </trkpt>
      <trkpt lat="46.39683" lon="5.96893">
        <ele>1182.7</ele>
        <time>2021-08-19T11:31:21Z</time>
      </trkpt>
      <trkpt lat="46.39681" lon="5.9689">
        <ele>1182.5</ele>
        <time>2021-08-19T11:31:22Z</time>
      </trkpt>
      <trkpt lat="46.39679" lon="5.96885">
        <ele>1182.3</ele>
        <time>2021-08-19T11:31:23Z</time>
      </trkpt>
      <trkpt lat="46.39676" lon="5.96877">
        <ele>1182</ele>
        <time>2021-08-19T11:31:25Z</time>
      </trkpt>
      <trkpt lat="46.39673" lon="5.96869">
        <ele>1181.7</ele>
        <time>2021-08-19T11:31:27Z</time>
      </trkpt>
      <trkpt lat="46.39671" lon="5.96864">
        <ele>1181.5</ele>
        <time>2021-08-19T11:31:28Z</time>
      </trkpt>
      <trkpt lat="46.39671" lon="5.96862">
        <ele>1180.3</ele>
        <time>2021-08-19T11:31:29Z</time>
      </trkpt>
      <trkpt lat="46.39671" lon="5.96859">
        <ele>1180.1</ele>
        <time>2021-08-19T11:31:31Z</time>
      </trkpt>
      <trkpt lat="46.39671" lon="5.96852">
        <ele>1179.3</ele>
        <time>2021-08-19T11:31:33Z</time>
      </trkpt>
      <trkpt lat="46.39672" lon="5.96842">
        <ele>1178.3</ele>
        <time>2021-08-19T11:31:35Z</time>
      </trkpt>
      <trkpt lat="46.39675" lon="5.96824">
        <ele>1176.3</ele>
        <time>2021-08-19T11:31:36Z</time>
      </trkpt>
      <trkpt lat="46.39676" lon="5.96815">
        <ele>1175.3</ele>
        <time>2021-08-19T11:31:37Z</time>
      </trkpt>
      <trkpt lat="46.39677" lon="5.96807">
        <ele>1174.3</ele>
        <time>2021-08-19T11:31:38Z</time>
      </trkpt>
      <trkpt lat="46.39679" lon="5.9679">
        <ele>1172.5</ele>
        <time>2021-08-19T11:31:40Z</time>
      </trkpt>
      <trkpt lat="46.39678" lon="5.9677">
        <ele>1170.6</ele>
        <time>2021-08-19T11:31:42Z</time>
      </trkpt>
      <trkpt lat="46.39678" lon="5.96757">
        <ele>1169.6</ele>
        <time>2021-08-19T11:31:43Z</time>
      </trkpt>
      <trkpt lat="46.39675" lon="5.96734">
        <ele>1168.1</ele>
        <time>2021-08-19T11:31:45Z</time>
      </trkpt>
      <trkpt lat="46.39672" lon="5.96724">
        <ele>1167.4</ele>
        <time>2021-08-19T11:31:46Z</time>
      </trkpt>
      <trkpt lat="46.39669" lon="5.96715">
        <ele>1166.8</ele>
        <time>2021-08-19T11:31:47Z</time>
      </trkpt>
      <trkpt lat="46.39662" lon="5.96696">
        <ele>1165.7</ele>
        <time>2021-08-19T11:31:49Z</time>
      </trkpt>
      <trkpt lat="46.39656" lon="5.96681">
        <ele>1165</ele>
        <time>2021-08-19T11:31:51Z</time>
      </trkpt>
      <trkpt lat="46.39652" lon="5.96672">
        <ele>1164.7</ele>
        <time>2021-08-19T11:31:53Z</time>
      </trkpt>
      <trkpt lat="46.39651" lon="5.96667">
        <ele>1164.6</ele>
        <time>2021-08-19T11:31:54Z</time>
      </trkpt>
      <trkpt lat="46.3965" lon="5.96658">
        <ele>1164.3</ele>
        <time>2021-08-19T11:31:55Z</time>
      </trkpt>
      <trkpt lat="46.39653" lon="5.96641">
        <ele>1163.7</ele>
        <time>2021-08-19T11:31:57Z</time>
      </trkpt>
      <trkpt lat="46.39657" lon="5.96627">
        <ele>1162.9</ele>
        <time>2021-08-19T11:31:59Z</time>
      </trkpt>
      <trkpt lat="46.39657" lon="5.96614">
        <ele>1162.2</ele>
        <time>2021-08-19T11:32:01Z</time>
      </trkpt>
      <trkpt lat="46.39656" lon="5.96604">
        <ele>1161.5</ele>
        <time>2021-08-19T11:32:03Z</time>
      </trkpt>
      <trkpt lat="46.39657" lon="5.96599">
        <ele>1161.1</ele>
        <time>2021-08-19T11:32:04Z</time>
      </trkpt>
      <trkpt lat="46.39658" lon="5.96594">
        <ele>1160.7</ele>
        <time>2021-08-19T11:32:05Z</time>
      </trkpt>
      <trkpt lat="46.39658" lon="5.96587">
        <ele>1160.1</ele>
        <time>2021-08-19T11:32:07Z</time>
      </trkpt>
      <trkpt lat="46.39658" lon="5.96586">
        <ele>1160</ele>
        <time>2021-08-19T11:32:09Z</time>
      </trkpt>
      <trkpt lat="46.39658" lon="5.96584">
        <ele>1159.9</ele>
        <time>2021-08-19T11:32:10Z</time>
      </trkpt>
      <trkpt lat="46.39658" lon="5.96584">
        <ele>1159.8</ele>
        <time>2021-08-19T11:32:11Z</time>
      </trkpt>
      <trkpt lat="46.39659" lon="5.96587">
        <ele>1159.4</ele>
        <time>2021-08-19T11:32:13Z</time>
      </trkpt>
      <trkpt lat="46.39659" lon="5.96588">
        <ele>1159.4</ele>
        <time>2021-08-19T11:32:14Z</time>
      </trkpt>
      <trkpt lat="46.39658" lon="5.96588">
        <ele>1159.3</ele>
        <time>2021-08-19T11:32:16Z</time>
      </trkpt>
      <trkpt lat="46.39657" lon="5.96589">
        <ele>1159.2</ele>
        <time>2021-08-19T11:32:18Z</time>
      </trkpt>
      <trkpt lat="46.39656" lon="5.9659">
        <ele>1158.9</ele>
        <time>2021-08-19T11:32:19Z</time>
      </trkpt>
      <trkpt lat="46.3965" lon="5.96594">
        <ele>1158.1</ele>
        <time>2021-08-19T11:32:21Z</time>
      </trkpt>
      <trkpt lat="46.39647" lon="5.96597">
        <ele>1156.8</ele>
        <time>2021-08-19T11:32:23Z</time>
      </trkpt>
      <trkpt lat="46.39643" lon="5.966">
        <ele>1156.8</ele>
        <time>2021-08-19T11:32:24Z</time>
      </trkpt>
      <trkpt lat="46.39639" lon="5.96603">
        <ele>1156.8</ele>
        <time>2021-08-19T11:32:26Z</time>
      </trkpt>
      <trkpt lat="46.39634" lon="5.96608">
        <ele>1156.8</ele>
        <time>2021-08-19T11:32:27Z</time>
      </trkpt>
      <trkpt lat="46.39629" lon="5.96613">
        <ele>1156.7</ele>
        <time>2021-08-19T11:32:28Z</time>
      </trkpt>
      <trkpt lat="46.39624" lon="5.96619">
        <ele>1156.6</ele>
        <time>2021-08-19T11:32:29Z</time>
      </trkpt>
      <trkpt lat="46.39609" lon="5.96632">
        <ele>1156.1</ele>
        <time>2021-08-19T11:32:31Z</time>
      </trkpt>
      <trkpt lat="46.39599" lon="5.96639">
        <ele>1155.8</ele>
        <time>2021-08-19T11:32:33Z</time>
      </trkpt>
      <trkpt lat="46.39594" lon="5.96642">
        <ele>1155.6</ele>
        <time>2021-08-19T11:32:34Z</time>
      </trkpt>
      <trkpt lat="46.39585" lon="5.96649">
        <ele>1155.2</ele>
        <time>2021-08-19T11:32:36Z</time>
      </trkpt>
      <trkpt lat="46.39581" lon="5.96652">
        <ele>1155.1</ele>
        <time>2021-08-19T11:32:37Z</time>
      </trkpt>
      <trkpt lat="46.39573" lon="5.96661">
        <ele>1154.6</ele>
        <time>2021-08-19T11:32:39Z</time>
      </trkpt>
      <trkpt lat="46.39565" lon="5.96667">
        <ele>1154.3</ele>
        <time>2021-08-19T11:32:41Z</time>
      </trkpt>
      <trkpt lat="46.39559" lon="5.96672">
        <ele>1154.1</ele>
        <time>2021-08-19T11:32:42Z</time>
      </trkpt>
      <trkpt lat="46.39553" lon="5.96676">
        <ele>1153.8</ele>
        <time>2021-08-19T11:32:43Z</time>
      </trkpt>
      <trkpt lat="46.39548" lon="5.9668">
        <ele>1153.6</ele>
        <time>2021-08-19T11:32:44Z</time>
      </trkpt>
      <trkpt lat="46.39537" lon="5.96687">
        <ele>1153.2</ele>
        <time>2021-08-19T11:32:46Z</time>
      </trkpt>
      <trkpt lat="46.39532" lon="5.96692">
        <ele>1153</ele>
        <time>2021-08-19T11:32:47Z</time>
      </trkpt>
      <trkpt lat="46.39521" lon="5.96704">
        <ele>1152.6</ele>
        <time>2021-08-19T11:32:49Z</time>
      </trkpt>
      <trkpt lat="46.39512" lon="5.96719">
        <ele>1152.1</ele>
        <time>2021-08-19T11:32:51Z</time>
      </trkpt>
      <trkpt lat="46.39509" lon="5.96726">
        <ele>1152</ele>
        <time>2021-08-19T11:32:52Z</time>
      </trkpt>
      <trkpt lat="46.39506" lon="5.96733">
        <ele>1151.9</ele>
        <time>2021-08-19T11:32:53Z</time>
      </trkpt>
      <trkpt lat="46.39498" lon="5.96745">
        <ele>1151.7</ele>
        <time>2021-08-19T11:32:55Z</time>
      </trkpt>
      <trkpt lat="46.39489" lon="5.96755">
        <ele>1151.5</ele>
        <time>2021-08-19T11:32:57Z</time>
      </trkpt>
      <trkpt lat="46.39486" lon="5.96759">
        <ele>1151.5</ele>
        <time>2021-08-19T11:32:58Z</time>
      </trkpt>
      <trkpt lat="46.39483" lon="5.96763">
        <ele>1151.4</ele>
        <time>2021-08-19T11:32:59Z</time>
      </trkpt>
      <trkpt lat="46.39478" lon="5.96773">
        <ele>1151.4</ele>
        <time>2021-08-19T11:33:01Z</time>
      </trkpt>
      <trkpt lat="46.39473" lon="5.96782">
        <ele>1151.3</ele>
        <time>2021-08-19T11:33:03Z</time>
      </trkpt>
      <trkpt lat="46.39467" lon="5.96788">
        <ele>1151.3</ele>
        <time>2021-08-19T11:33:05Z</time>
      </trkpt>
      <trkpt lat="46.39462" lon="5.9679">
        <ele>1151.3</ele>
        <time>2021-08-19T11:33:06Z</time>
      </trkpt>
      <trkpt lat="46.39458" lon="5.96793">
        <ele>1151.3</ele>
        <time>2021-08-19T11:33:07Z</time>
      </trkpt>
      <trkpt lat="46.39448" lon="5.96798">
        <ele>1151.3</ele>
        <time>2021-08-19T11:33:09Z</time>
      </trkpt>
      <trkpt lat="46.39437" lon="5.96804">
        <ele>1151.3</ele>
        <time>2021-08-19T11:33:11Z</time>
      </trkpt>
      <trkpt lat="46.39432" lon="5.96806">
        <ele>1151.3</ele>
        <time>2021-08-19T11:33:12Z</time>
      </trkpt>
      <trkpt lat="46.39428" lon="5.96807">
        <ele>1151.3</ele>
        <time>2021-08-19T11:33:13Z</time>
      </trkpt>
      <trkpt lat="46.39419" lon="5.96808">
        <ele>1151.4</ele>
        <time>2021-08-19T11:33:15Z</time>
      </trkpt>
      <trkpt lat="46.39414" lon="5.96809">
        <ele>1151.4</ele>
        <time>2021-08-19T11:33:16Z</time>
      </trkpt>
      <trkpt lat="46.39408" lon="5.9681">
        <ele>1151.5</ele>
        <time>2021-08-19T11:33:17Z</time>
      </trkpt>
      <trkpt lat="46.39402" lon="5.96811">
        <ele>1151.5</ele>
        <time>2021-08-19T11:33:19Z</time>
      </trkpt>
      <trkpt lat="46.39393" lon="5.9681">
        <ele>1151.5</ele>
        <time>2021-08-19T11:33:20Z</time>
      </trkpt>
      <trkpt lat="46.39385" lon="5.96812">
        <ele>1151.5</ele>
        <time>2021-08-19T11:33:22Z</time>
      </trkpt>
      <trkpt lat="46.39381" lon="5.96815">
        <ele>1151.5</ele>
        <time>2021-08-19T11:33:23Z</time>
      </trkpt>
      <trkpt lat="46.39373" lon="5.96818">
        <ele>1151.5</ele>
        <time>2021-08-19T11:33:25Z</time>
      </trkpt>
      <trkpt lat="46.3937" lon="5.96819">
        <ele>1151.5</ele>
        <time>2021-08-19T11:33:26Z</time>
      </trkpt>
      <trkpt lat="46.39363" lon="5.96821">
        <ele>1151.5</ele>
        <time>2021-08-19T11:33:28Z</time>
      </trkpt>
      <trkpt lat="46.39359" lon="5.96822">
        <ele>1151.5</ele>
        <time>2021-08-19T11:33:29Z</time>
      </trkpt>
      <trkpt lat="46.39351" lon="5.96825">
        <ele>1151.5</ele>
        <time>2021-08-19T11:33:31Z</time>
      </trkpt>
      <trkpt lat="46.39347" lon="5.96826">
        <ele>1151.5</ele>
        <time>2021-08-19T11:33:32Z</time>
      </trkpt>
      <trkpt lat="46.39338" lon="5.96831">
        <ele>1151.5</ele>
        <time>2021-08-19T11:33:34Z</time>
      </trkpt>
      <trkpt lat="46.39331" lon="5.96838">
        <ele>1151.5</ele>
        <time>2021-08-19T11:33:36Z</time>
      </trkpt>
      <trkpt lat="46.39328" lon="5.9684">
        <ele>1151.5</ele>
        <time>2021-08-19T11:33:37Z</time>
      </trkpt>
      <trkpt lat="46.39324" lon="5.96842">
        <ele>1151.5</ele>
        <time>2021-08-19T11:33:38Z</time>
      </trkpt>
      <trkpt lat="46.39318" lon="5.96843">
        <ele>1151.5</ele>
        <time>2021-08-19T11:33:40Z</time>
      </trkpt>
      <trkpt lat="46.39313" lon="5.96843">
        <ele>1151.5</ele>
        <time>2021-08-19T11:33:41Z</time>
      </trkpt>
      <trkpt lat="46.39308" lon="5.96843">
        <ele>1151.4</ele>
        <time>2021-08-19T11:33:42Z</time>
      </trkpt>
      <trkpt lat="46.39303" lon="5.96843">
        <ele>1151.3</ele>
        <time>2021-08-19T11:33:43Z</time>
      </trkpt>
      <trkpt lat="46.39298" lon="5.96843">
        <ele>1151.3</ele>
        <time>2021-08-19T11:33:44Z</time>
      </trkpt>
      <trkpt lat="46.39292" lon="5.96843">
        <ele>1151.1</ele>
        <time>2021-08-19T11:33:46Z</time>
      </trkpt>
      <trkpt lat="46.39287" lon="5.96843">
        <ele>1151</ele>
        <time>2021-08-19T11:33:47Z</time>
      </trkpt>
      <trkpt lat="46.39283" lon="5.96843">
        <ele>1151</ele>
        <time>2021-08-19T11:33:48Z</time>
      </trkpt>
      <trkpt lat="46.39276" lon="5.96841">
        <ele>1150.8</ele>
        <time>2021-08-19T11:33:50Z</time>
      </trkpt>
      <trkpt lat="46.3927" lon="5.96839">
        <ele>1150.7</ele>
        <time>2021-08-19T11:33:51Z</time>
      </trkpt>
      <trkpt lat="46.39261" lon="5.96837">
        <ele>1150.6</ele>
        <time>2021-08-19T11:33:53Z</time>
      </trkpt>
      <trkpt lat="46.39254" lon="5.96839">
        <ele>1150.5</ele>
        <time>2021-08-19T11:33:55Z</time>
      </trkpt>
      <trkpt lat="46.39248" lon="5.96839">
        <ele>1150.5</ele>
        <time>2021-08-19T11:33:56Z</time>
      </trkpt>
      <trkpt lat="46.39243" lon="5.96839">
        <ele>1150.6</ele>
        <time>2021-08-19T11:33:57Z</time>
      </trkpt>
      <trkpt lat="46.39239" lon="5.96839">
        <ele>1150.6</ele>
        <time>2021-08-19T11:33:58Z</time>
      </trkpt>
      <trkpt lat="46.39234" lon="5.96838">
        <ele>1150.7</ele>
        <time>2021-08-19T11:33:59Z</time>
      </trkpt>
      <trkpt lat="46.39227" lon="5.96837">
        <ele>1150.8</ele>
        <time>2021-08-19T11:34:01Z</time>
      </trkpt>
      <trkpt lat="46.39223" lon="5.96838">
        <ele>1150.9</ele>
        <time>2021-08-19T11:34:02Z</time>
      </trkpt>
      <trkpt lat="46.39217" lon="5.96839">
        <ele>1151</ele>
        <time>2021-08-19T11:34:03Z</time>
      </trkpt>
      <trkpt lat="46.39211" lon="5.96842">
        <ele>1151.1</ele>
        <time>2021-08-19T11:34:04Z</time>
      </trkpt>
      <trkpt lat="46.39199" lon="5.96846">
        <ele>1151.3</ele>
        <time>2021-08-19T11:34:06Z</time>
      </trkpt>
      <trkpt lat="46.39195" lon="5.96848">
        <ele>1151.4</ele>
        <time>2021-08-19T11:34:07Z</time>
      </trkpt>
      <trkpt lat="46.3919" lon="5.96849">
        <ele>1151.5</ele>
        <time>2021-08-19T11:34:09Z</time>
      </trkpt>
      <trkpt lat="46.39183" lon="5.96851">
        <ele>1151.7</ele>
        <time>2021-08-19T11:34:10Z</time>
      </trkpt>
      <trkpt lat="46.39178" lon="5.96852">
        <ele>1151.9</ele>
        <time>2021-08-19T11:34:11Z</time>
      </trkpt>
      <trkpt lat="46.39172" lon="5.96852">
        <ele>1152.3</ele>
        <time>2021-08-19T11:34:13Z</time>
      </trkpt>
      <trkpt lat="46.39165" lon="5.96853">
        <ele>1152.6</ele>
        <time>2021-08-19T11:34:15Z</time>
      </trkpt>
      <trkpt lat="46.3916" lon="5.96855">
        <ele>1153</ele>
        <time>2021-08-19T11:34:17Z</time>
      </trkpt>
      <trkpt lat="46.39157" lon="5.96854">
        <ele>1153.2</ele>
        <time>2021-08-19T11:34:19Z</time>
      </trkpt>
      <trkpt lat="46.39155" lon="5.96854">
        <ele>1153.3</ele>
        <time>2021-08-19T11:34:20Z</time>
      </trkpt>
      <trkpt lat="46.39154" lon="5.96854">
        <ele>1153.4</ele>
        <time>2021-08-19T11:34:21Z</time>
      </trkpt>
      <trkpt lat="46.39153" lon="5.96853">
        <ele>1153.5</ele>
        <time>2021-08-19T11:34:23Z</time>
      </trkpt>
      <trkpt lat="46.39152" lon="5.96854">
        <ele>1153.6</ele>
        <time>2021-08-19T11:34:24Z</time>
      </trkpt>
      <trkpt lat="46.3915" lon="5.96855">
        <ele>1153.7</ele>
        <time>2021-08-19T11:34:25Z</time>
      </trkpt>
      <trkpt lat="46.39149" lon="5.96855">
        <ele>1153.8</ele>
        <time>2021-08-19T11:34:26Z</time>
      </trkpt>
      <trkpt lat="46.39146" lon="5.96855">
        <ele>1154</ele>
        <time>2021-08-19T11:34:28Z</time>
      </trkpt>
      <trkpt lat="46.39145" lon="5.96854">
        <ele>1154.2</ele>
        <time>2021-08-19T11:34:30Z</time>
      </trkpt>
      <trkpt lat="46.39143" lon="5.96855">
        <ele>1154.3</ele>
        <time>2021-08-19T11:34:31Z</time>
      </trkpt>
      <trkpt lat="46.39139" lon="5.96856">
        <ele>1154.7</ele>
        <time>2021-08-19T11:34:33Z</time>
      </trkpt>
      <trkpt lat="46.39135" lon="5.96853">
        <ele>1155.1</ele>
        <time>2021-08-19T11:34:35Z</time>
      </trkpt>
      <trkpt lat="46.39133" lon="5.96852">
        <ele>1155.3</ele>
        <time>2021-08-19T11:34:37Z</time>
      </trkpt>
      <trkpt lat="46.3913" lon="5.96852">
        <ele>1155.6</ele>
        <time>2021-08-19T11:34:38Z</time>
      </trkpt>
      <trkpt lat="46.39128" lon="5.96854">
        <ele>1155.9</ele>
        <time>2021-08-19T11:34:40Z</time>
      </trkpt>
      <trkpt lat="46.39126" lon="5.96855">
        <ele>1156</ele>
        <time>2021-08-19T11:34:41Z</time>
      </trkpt>
      <trkpt lat="46.39122" lon="5.96855">
        <ele>1156.4</ele>
        <time>2021-08-19T11:34:42Z</time>
      </trkpt>
      <trkpt lat="46.39121" lon="5.96855">
        <ele>1156.6</ele>
        <time>2021-08-19T11:34:43Z</time>
      </trkpt>
      <trkpt lat="46.39116" lon="5.96854">
        <ele>1157.1</ele>
        <time>2021-08-19T11:34:45Z</time>
      </trkpt>
      <trkpt lat="46.39112" lon="5.96854">
        <ele>1157.4</ele>
        <time>2021-08-19T11:34:46Z</time>
      </trkpt>
      <trkpt lat="46.39111" lon="5.96854">
        <ele>1157.5</ele>
        <time>2021-08-19T11:34:47Z</time>
      </trkpt>
      <trkpt lat="46.39109" lon="5.96854">
        <ele>1157.7</ele>
        <time>2021-08-19T11:34:48Z</time>
      </trkpt>
      <trkpt lat="46.39108" lon="5.96855">
        <ele>1157.8</ele>
        <time>2021-08-19T11:34:49Z</time>
      </trkpt>
      <trkpt lat="46.39107" lon="5.96856">
        <ele>1157.9</ele>
        <time>2021-08-19T11:34:50Z</time>
      </trkpt>
      <trkpt lat="46.39106" lon="5.96855">
        <ele>1158</ele>
        <time>2021-08-19T11:34:51Z</time>
      </trkpt>
      <trkpt lat="46.39105" lon="5.96855">
        <ele>1158.1</ele>
        <time>2021-08-19T11:34:52Z</time>
      </trkpt>
      <trkpt lat="46.39104" lon="5.96855">
        <ele>1158.2</ele>
        <time>2021-08-19T11:34:53Z</time>
      </trkpt>
      <trkpt lat="46.39103" lon="5.96854">
        <ele>1158.3</ele>
        <time>2021-08-19T11:34:54Z</time>
      </trkpt>
      <trkpt lat="46.39102" lon="5.96853">
        <ele>1158.4</ele>
        <time>2021-08-19T11:34:55Z</time>
      </trkpt>
      <trkpt lat="46.391" lon="5.96852">
        <ele>1158.6</ele>
        <time>2021-08-19T11:34:57Z</time>
      </trkpt>
      <trkpt lat="46.391" lon="5.96851">
        <ele>1158.7</ele>
        <time>2021-08-19T11:34:58Z</time>
      </trkpt>
      <trkpt lat="46.39099" lon="5.9685">
        <ele>1158.7</ele>
        <time>2021-08-19T11:34:59Z</time>
      </trkpt>
      <trkpt lat="46.39096" lon="5.96845">
        <ele>1159.1</ele>
        <time>2021-08-19T11:35:01Z</time>
      </trkpt>
      <trkpt lat="46.39095" lon="5.96843">
        <ele>1159.2</ele>
        <time>2021-08-19T11:35:02Z</time>
      </trkpt>
      <trkpt lat="46.39094" lon="5.96841">
        <ele>1159.3</ele>
        <time>2021-08-19T11:35:03Z</time>
      </trkpt>
      <trkpt lat="46.39093" lon="5.96837">
        <ele>1159.5</ele>
        <time>2021-08-19T11:35:04Z</time>
      </trkpt>
      <trkpt lat="46.39093" lon="5.96836">
        <ele>1159.5</ele>
        <time>2021-08-19T11:35:05Z</time>
      </trkpt>
      <trkpt lat="46.39093" lon="5.96831">
        <ele>1159.7</ele>
        <time>2021-08-19T11:35:07Z</time>
      </trkpt>
      <trkpt lat="46.39092" lon="5.9683">
        <ele>1159.7</ele>
        <time>2021-08-19T11:35:08Z</time>
      </trkpt>
      <trkpt lat="46.3909" lon="5.96829">
        <ele>1159.9</ele>
        <time>2021-08-19T11:35:09Z</time>
      </trkpt>
      <trkpt lat="46.39089" lon="5.9683">
        <ele>1159.9</ele>
        <time>2021-08-19T11:35:10Z</time>
      </trkpt>
      <trkpt lat="46.39087" lon="5.96832">
        <ele>1160.1</ele>
        <time>2021-08-19T11:35:11Z</time>
      </trkpt>
      <trkpt lat="46.39086" lon="5.96832">
        <ele>1160.1</ele>
        <time>2021-08-19T11:35:13Z</time>
      </trkpt>
      <trkpt lat="46.39084" lon="5.96833">
        <ele>1160.2</ele>
        <time>2021-08-19T11:35:14Z</time>
      </trkpt>
      <trkpt lat="46.39083" lon="5.96834">
        <ele>1160.3</ele>
        <time>2021-08-19T11:35:15Z</time>
      </trkpt>
      <trkpt lat="46.39081" lon="5.96834">
        <ele>1160.4</ele>
        <time>2021-08-19T11:35:16Z</time>
      </trkpt>
      <trkpt lat="46.39077" lon="5.96835">
        <ele>1160.6</ele>
        <time>2021-08-19T11:35:18Z</time>
      </trkpt>
      <trkpt lat="46.39073" lon="5.96834">
        <ele>1160.7</ele>
        <time>2021-08-19T11:35:19Z</time>
      </trkpt>
      <trkpt lat="46.39071" lon="5.96834">
        <ele>1160.8</ele>
        <time>2021-08-19T11:35:20Z</time>
      </trkpt>
      <trkpt lat="46.39068" lon="5.96832">
        <ele>1161</ele>
        <time>2021-08-19T11:35:21Z</time>
      </trkpt>
      <trkpt lat="46.39067" lon="5.96832">
        <ele>1161.1</ele>
        <time>2021-08-19T11:35:22Z</time>
      </trkpt>
      <trkpt lat="46.39064" lon="5.96832">
        <ele>1161.3</ele>
        <time>2021-08-19T11:35:24Z</time>
      </trkpt>
      <trkpt lat="46.39061" lon="5.96833">
        <ele>1161.6</ele>
        <time>2021-08-19T11:35:25Z</time>
      </trkpt>
      <trkpt lat="46.3906" lon="5.96833">
        <ele>1161.6</ele>
        <time>2021-08-19T11:35:26Z</time>
      </trkpt>
      <trkpt lat="46.39058" lon="5.96832">
        <ele>1161.7</ele>
        <time>2021-08-19T11:35:27Z</time>
      </trkpt>
      <trkpt lat="46.39057" lon="5.96832">
        <ele>1161.8</ele>
        <time>2021-08-19T11:35:28Z</time>
      </trkpt>
      <trkpt lat="46.39054" lon="5.96832">
        <ele>1162</ele>
        <time>2021-08-19T11:35:30Z</time>
      </trkpt>
      <trkpt lat="46.39053" lon="5.96831">
        <ele>1162.1</ele>
        <time>2021-08-19T11:35:31Z</time>
      </trkpt>
      <trkpt lat="46.3905" lon="5.96831">
        <ele>1162.3</ele>
        <time>2021-08-19T11:35:33Z</time>
      </trkpt>
      <trkpt lat="46.39049" lon="5.96831">
        <ele>1162.4</ele>
        <time>2021-08-19T11:35:34Z</time>
      </trkpt>
      <trkpt lat="46.39045" lon="5.96831">
        <ele>1162.7</ele>
        <time>2021-08-19T11:35:36Z</time>
      </trkpt>
      <trkpt lat="46.39042" lon="5.96831">
        <ele>1163</ele>
        <time>2021-08-19T11:35:37Z</time>
      </trkpt>
      <trkpt lat="46.39038" lon="5.96831">
        <ele>1163.2</ele>
        <time>2021-08-19T11:35:39Z</time>
      </trkpt>
      <trkpt lat="46.39035" lon="5.96832">
        <ele>1163.5</ele>
        <time>2021-08-19T11:35:40Z</time>
      </trkpt>
      <trkpt lat="46.39031" lon="5.96834">
        <ele>1163.9</ele>
        <time>2021-08-19T11:35:42Z</time>
      </trkpt>
      <trkpt lat="46.39027" lon="5.96836">
        <ele>1164.2</ele>
        <time>2021-08-19T11:35:43Z</time>
      </trkpt>
      <trkpt lat="46.39023" lon="5.96837">
        <ele>1164.6</ele>
        <time>2021-08-19T11:35:45Z</time>
      </trkpt>
      <trkpt lat="46.39019" lon="5.96838">
        <ele>1165.1</ele>
        <time>2021-08-19T11:35:46Z</time>
      </trkpt>
      <trkpt lat="46.39015" lon="5.9684">
        <ele>1165.7</ele>
        <time>2021-08-19T11:35:48Z</time>
      </trkpt>
      <trkpt lat="46.39013" lon="5.96842">
        <ele>1165.9</ele>
        <time>2021-08-19T11:35:49Z</time>
      </trkpt>
      <trkpt lat="46.39011" lon="5.96844">
        <ele>1166.2</ele>
        <time>2021-08-19T11:35:51Z</time>
      </trkpt>
      <trkpt lat="46.39008" lon="5.96846">
        <ele>1166.6</ele>
        <time>2021-08-19T11:35:52Z</time>
      </trkpt>
      <trkpt lat="46.39007" lon="5.96847">
        <ele>1166.7</ele>
        <time>2021-08-19T11:35:53Z</time>
      </trkpt>
      <trkpt lat="46.39005" lon="5.96851">
        <ele>1167.2</ele>
        <time>2021-08-19T11:35:55Z</time>
      </trkpt>
      <trkpt lat="46.39005" lon="5.96852">
        <ele>1167.3</ele>
        <time>2021-08-19T11:35:56Z</time>
      </trkpt>
      <trkpt lat="46.39003" lon="5.96855">
        <ele>1167.5</ele>
        <time>2021-08-19T11:35:58Z</time>
      </trkpt>
      <trkpt lat="46.39003" lon="5.96856">
        <ele>1167.6</ele>
        <time>2021-08-19T11:35:59Z</time>
      </trkpt>
      <trkpt lat="46.39003" lon="5.96859">
        <ele>1167.9</ele>
        <time>2021-08-19T11:36:00Z</time>
      </trkpt>
      <trkpt lat="46.39003" lon="5.96862">
        <ele>1168.1</ele>
        <time>2021-08-19T11:36:02Z</time>
      </trkpt>
      <trkpt lat="46.39003" lon="5.96864">
        <ele>1168.2</ele>
        <time>2021-08-19T11:36:03Z</time>
      </trkpt>
      <trkpt lat="46.39003" lon="5.96866">
        <ele>1168.4</ele>
        <time>2021-08-19T11:36:04Z</time>
      </trkpt>
      <trkpt lat="46.39005" lon="5.9687">
        <ele>1168.7</ele>
        <time>2021-08-19T11:36:05Z</time>
      </trkpt>
      <trkpt lat="46.39007" lon="5.96876">
        <ele>1169</ele>
        <time>2021-08-19T11:36:07Z</time>
      </trkpt>
      <trkpt lat="46.39007" lon="5.96878">
        <ele>1169.2</ele>
        <time>2021-08-19T11:36:08Z</time>
      </trkpt>
      <trkpt lat="46.39006" lon="5.9688">
        <ele>1169.3</ele>
        <time>2021-08-19T11:36:10Z</time>
      </trkpt>
      <trkpt lat="46.39005" lon="5.96879">
        <ele>1169.4</ele>
        <time>2021-08-19T11:36:11Z</time>
      </trkpt>
      <trkpt lat="46.39002" lon="5.96881">
        <ele>1169.4</ele>
        <time>2021-08-19T11:36:13Z</time>
      </trkpt>
      <trkpt lat="46.38999" lon="5.9688">
        <ele>1169.7</ele>
        <time>2021-08-19T11:36:14Z</time>
      </trkpt>
      <trkpt lat="46.38996" lon="5.9688">
        <ele>1170</ele>
        <time>2021-08-19T11:36:15Z</time>
      </trkpt>
      <trkpt lat="46.38991" lon="5.96879">
        <ele>1170.4</ele>
        <time>2021-08-19T11:36:17Z</time>
      </trkpt>
      <trkpt lat="46.38988" lon="5.96878">
        <ele>1170.7</ele>
        <time>2021-08-19T11:36:18Z</time>
      </trkpt>
      <trkpt lat="46.38986" lon="5.96877">
        <ele>1170.9</ele>
        <time>2021-08-19T11:36:19Z</time>
      </trkpt>
      <trkpt lat="46.38984" lon="5.96879">
        <ele>1171.1</ele>
        <time>2021-08-19T11:36:21Z</time>
      </trkpt>
      <trkpt lat="46.38982" lon="5.96881">
        <ele>1171.3</ele>
        <time>2021-08-19T11:36:22Z</time>
      </trkpt>
      <trkpt lat="46.38982" lon="5.96883">
        <ele>1171.4</ele>
        <time>2021-08-19T11:36:23Z</time>
      </trkpt>
      <trkpt lat="46.38978" lon="5.96887">
        <ele>1171.8</ele>
        <time>2021-08-19T11:36:25Z</time>
      </trkpt>
      <trkpt lat="46.38977" lon="5.96888">
        <ele>1171.9</ele>
        <time>2021-08-19T11:36:27Z</time>
      </trkpt>
      <trkpt lat="46.38976" lon="5.96888">
        <ele>1172.1</ele>
        <time>2021-08-19T11:36:28Z</time>
      </trkpt>
      <trkpt lat="46.38973" lon="5.96886">
        <ele>1172.4</ele>
        <time>2021-08-19T11:36:30Z</time>
      </trkpt>
      <trkpt lat="46.38973" lon="5.96885">
        <ele>1172.4</ele>
        <time>2021-08-19T11:36:31Z</time>
      </trkpt>
      <trkpt lat="46.38972" lon="5.96884">
        <ele>1172.5</ele>
        <time>2021-08-19T11:36:33Z</time>
      </trkpt>
      <trkpt lat="46.38972" lon="5.96884">
        <ele>1172.6</ele>
        <time>2021-08-19T11:36:34Z</time>
      </trkpt>
      <trkpt lat="46.38971" lon="5.96884">
        <ele>1172.6</ele>
        <time>2021-08-19T11:36:36Z</time>
      </trkpt>
      <trkpt lat="46.38971" lon="5.96883">
        <ele>1172.7</ele>
        <time>2021-08-19T11:36:37Z</time>
      </trkpt>
      <trkpt lat="46.38971" lon="5.96883">
        <ele>1172.7</ele>
        <time>2021-08-19T11:36:39Z</time>
      </trkpt>
      <trkpt lat="46.38924" lon="5.96846">
        <ele>1182.5</ele>
        <time>2021-08-19T11:38:35Z</time>
      </trkpt>
      <trkpt lat="46.38917" lon="5.96839">
        <ele>1182.6</ele>
        <time>2021-08-19T11:38:37Z</time>
      </trkpt>
      <trkpt lat="46.38912" lon="5.96833">
        <ele>1182.6</ele>
        <time>2021-08-19T11:38:39Z</time>
      </trkpt>
      <trkpt lat="46.38908" lon="5.96829">
        <ele>1182.6</ele>
        <time>2021-08-19T11:38:40Z</time>
      </trkpt>
      <trkpt lat="46.38904" lon="5.96824">
        <ele>1182.6</ele>
        <time>2021-08-19T11:38:41Z</time>
      </trkpt>
      <trkpt lat="46.389" lon="5.96819">
        <ele>1182.7</ele>
        <time>2021-08-19T11:38:42Z</time>
      </trkpt>
      <trkpt lat="46.38897" lon="5.96815">
        <ele>1182.7</ele>
        <time>2021-08-19T11:38:43Z</time>
      </trkpt>
      <trkpt lat="46.38895" lon="5.96811">
        <ele>1182.8</ele>
        <time>2021-08-19T11:38:44Z</time>
      </trkpt>
      <trkpt lat="46.38892" lon="5.96804">
        <ele>1182.9</ele>
        <time>2021-08-19T11:38:46Z</time>
      </trkpt>
      <trkpt lat="46.38887" lon="5.96795">
        <ele>1183.2</ele>
        <time>2021-08-19T11:38:47Z</time>
      </trkpt>
      <trkpt lat="46.38885" lon="5.96791">
        <ele>1183.4</ele>
        <time>2021-08-19T11:38:48Z</time>
      </trkpt>
      <trkpt lat="46.38882" lon="5.96785">
        <ele>1183.6</ele>
        <time>2021-08-19T11:38:50Z</time>
      </trkpt>
      <trkpt lat="46.3888" lon="5.96782">
        <ele>1183.7</ele>
        <time>2021-08-19T11:38:51Z</time>
      </trkpt>
      <trkpt lat="46.38878" lon="5.96777">
        <ele>1183.9</ele>
        <time>2021-08-19T11:38:53Z</time>
      </trkpt>
      <trkpt lat="46.38877" lon="5.96775">
        <ele>1184</ele>
        <time>2021-08-19T11:38:54Z</time>
      </trkpt>
      <trkpt lat="46.38874" lon="5.96771">
        <ele>1184.2</ele>
        <time>2021-08-19T11:38:56Z</time>
      </trkpt>
      <trkpt lat="46.38873" lon="5.96769">
        <ele>1184.3</ele>
        <time>2021-08-19T11:38:57Z</time>
      </trkpt>
      <trkpt lat="46.38873" lon="5.96767">
        <ele>1184.4</ele>
        <time>2021-08-19T11:38:58Z</time>
      </trkpt>
      <trkpt lat="46.38872" lon="5.96762">
        <ele>1184.5</ele>
        <time>2021-08-19T11:39:00Z</time>
      </trkpt>
      <trkpt lat="46.38871" lon="5.96758">
        <ele>1184.6</ele>
        <time>2021-08-19T11:39:01Z</time>
      </trkpt>
      <trkpt lat="46.3887" lon="5.96753">
        <ele>1184.8</ele>
        <time>2021-08-19T11:39:03Z</time>
      </trkpt>
      <trkpt lat="46.38869" lon="5.96749">
        <ele>1184.8</ele>
        <time>2021-08-19T11:39:04Z</time>
      </trkpt>
      <trkpt lat="46.38869" lon="5.96747">
        <ele>1184.8</ele>
        <time>2021-08-19T11:39:05Z</time>
      </trkpt>
      <trkpt lat="46.38868" lon="5.96741">
        <ele>1184.9</ele>
        <time>2021-08-19T11:39:07Z</time>
      </trkpt>
      <trkpt lat="46.38868" lon="5.96739">
        <ele>1184.9</ele>
        <time>2021-08-19T11:39:08Z</time>
      </trkpt>
      <trkpt lat="46.38867" lon="5.96736">
        <ele>1184.9</ele>
        <time>2021-08-19T11:39:09Z</time>
      </trkpt>
      <trkpt lat="46.38867" lon="5.9673">
        <ele>1185</ele>
        <time>2021-08-19T11:39:10Z</time>
      </trkpt>
      <trkpt lat="46.38866" lon="5.96728">
        <ele>1185</ele>
        <time>2021-08-19T11:39:11Z</time>
      </trkpt>
      <trkpt lat="46.38866" lon="5.96724">
        <ele>1184.9</ele>
        <time>2021-08-19T11:39:12Z</time>
      </trkpt>
      <trkpt lat="46.38864" lon="5.96717">
        <ele>1184.9</ele>
        <time>2021-08-19T11:39:14Z</time>
      </trkpt>
      <trkpt lat="46.38863" lon="5.96708">
        <ele>1184.8</ele>
        <time>2021-08-19T11:39:16Z</time>
      </trkpt>
      <trkpt lat="46.38862" lon="5.96699">
        <ele>1184.7</ele>
        <time>2021-08-19T11:39:17Z</time>
      </trkpt>
      <trkpt lat="46.38862" lon="5.96694">
        <ele>1184.6</ele>
        <time>2021-08-19T11:39:18Z</time>
      </trkpt>
      <trkpt lat="46.38862" lon="5.96689">
        <ele>1184.5</ele>
        <time>2021-08-19T11:39:19Z</time>
      </trkpt>
      <trkpt lat="46.3886" lon="5.96682">
        <ele>1184.3</ele>
        <time>2021-08-19T11:39:21Z</time>
      </trkpt>
      <trkpt lat="46.38859" lon="5.96675">
        <ele>1184.1</ele>
        <time>2021-08-19T11:39:22Z</time>
      </trkpt>
      <trkpt lat="46.38857" lon="5.96668">
        <ele>1183.9</ele>
        <time>2021-08-19T11:39:23Z</time>
      </trkpt>
      <trkpt lat="46.38854" lon="5.96662">
        <ele>1183.6</ele>
        <time>2021-08-19T11:39:24Z</time>
      </trkpt>
      <trkpt lat="46.38853" lon="5.96655">
        <ele>1183.4</ele>
        <time>2021-08-19T11:39:25Z</time>
      </trkpt>
      <trkpt lat="46.38849" lon="5.9664">
        <ele>1182.7</ele>
        <time>2021-08-19T11:39:27Z</time>
      </trkpt>
      <trkpt lat="46.38846" lon="5.96632">
        <ele>1182.4</ele>
        <time>2021-08-19T11:39:28Z</time>
      </trkpt>
      <trkpt lat="46.38842" lon="5.96625">
        <ele>1181.7</ele>
        <time>2021-08-19T11:39:29Z</time>
      </trkpt>
      <trkpt lat="46.38835" lon="5.96613">
        <ele>1180.4</ele>
        <time>2021-08-19T11:39:31Z</time>
      </trkpt>
      <trkpt lat="46.38827" lon="5.96601">
        <ele>1179</ele>
        <time>2021-08-19T11:39:33Z</time>
      </trkpt>
      <trkpt lat="46.38823" lon="5.96595">
        <ele>1178.2</ele>
        <time>2021-08-19T11:39:34Z</time>
      </trkpt>
      <trkpt lat="46.38814" lon="5.96581">
        <ele>1176.5</ele>
        <time>2021-08-19T11:39:36Z</time>
      </trkpt>
      <trkpt lat="46.3881" lon="5.96573">
        <ele>1175.7</ele>
        <time>2021-08-19T11:39:37Z</time>
      </trkpt>
      <trkpt lat="46.38806" lon="5.96555">
        <ele>1174.2</ele>
        <time>2021-08-19T11:39:39Z</time>
      </trkpt>
      <trkpt lat="46.38803" lon="5.96547">
        <ele>1173.4</ele>
        <time>2021-08-19T11:39:40Z</time>
      </trkpt>
      <trkpt lat="46.38799" lon="5.96539">
        <ele>1172.5</ele>
        <time>2021-08-19T11:39:41Z</time>
      </trkpt>
      <trkpt lat="46.38789" lon="5.96526">
        <ele>1170.6</ele>
        <time>2021-08-19T11:39:43Z</time>
      </trkpt>
      <trkpt lat="46.38777" lon="5.96515">
        <ele>1168.5</ele>
        <time>2021-08-19T11:39:45Z</time>
      </trkpt>
      <trkpt lat="46.38772" lon="5.96509">
        <ele>1167.7</ele>
        <time>2021-08-19T11:39:46Z</time>
      </trkpt>
      <trkpt lat="46.38766" lon="5.96502">
        <ele>1166.8</ele>
        <time>2021-08-19T11:39:47Z</time>
      </trkpt>
      <trkpt lat="46.38755" lon="5.96489">
        <ele>1165.3</ele>
        <time>2021-08-19T11:39:49Z</time>
      </trkpt>
      <trkpt lat="46.38746" lon="5.96474">
        <ele>1164.1</ele>
        <time>2021-08-19T11:39:51Z</time>
      </trkpt>
      <trkpt lat="46.38735" lon="5.96456">
        <ele>1162.7</ele>
        <time>2021-08-19T11:39:53Z</time>
      </trkpt>
      <trkpt lat="46.3873" lon="5.96446">
        <ele>1162</ele>
        <time>2021-08-19T11:39:54Z</time>
      </trkpt>
      <trkpt lat="46.38724" lon="5.96436">
        <ele>1161.3</ele>
        <time>2021-08-19T11:39:55Z</time>
      </trkpt>
      <trkpt lat="46.38716" lon="5.96416">
        <ele>1160.5</ele>
        <time>2021-08-19T11:39:57Z</time>
      </trkpt>
      <trkpt lat="46.38711" lon="5.96406">
        <ele>1160.2</ele>
        <time>2021-08-19T11:39:58Z</time>
      </trkpt>
      <trkpt lat="46.38704" lon="5.96387">
        <ele>1159.6</ele>
        <time>2021-08-19T11:40:00Z</time>
      </trkpt>
      <trkpt lat="46.38699" lon="5.96378">
        <ele>1159.3</ele>
        <time>2021-08-19T11:40:01Z</time>
      </trkpt>
      <trkpt lat="46.3869" lon="5.96363">
        <ele>1158.3</ele>
        <time>2021-08-19T11:40:03Z</time>
      </trkpt>
      <trkpt lat="46.38685" lon="5.96355">
        <ele>1157.8</ele>
        <time>2021-08-19T11:40:04Z</time>
      </trkpt>
      <trkpt lat="46.38676" lon="5.96338">
        <ele>1156.9</ele>
        <time>2021-08-19T11:40:06Z</time>
      </trkpt>
      <trkpt lat="46.38671" lon="5.9633">
        <ele>1156.5</ele>
        <time>2021-08-19T11:40:07Z</time>
      </trkpt>
      <trkpt lat="46.38662" lon="5.96315">
        <ele>1156</ele>
        <time>2021-08-19T11:40:09Z</time>
      </trkpt>
      <trkpt lat="46.38651" lon="5.96303">
        <ele>1155.9</ele>
        <time>2021-08-19T11:40:11Z</time>
      </trkpt>
      <trkpt lat="46.38642" lon="5.96294">
        <ele>1156.1</ele>
        <time>2021-08-19T11:40:13Z</time>
      </trkpt>
      <trkpt lat="46.38635" lon="5.96285">
        <ele>1156.3</ele>
        <time>2021-08-19T11:40:15Z</time>
      </trkpt>
      <trkpt lat="46.38633" lon="5.9628">
        <ele>1156.4</ele>
        <time>2021-08-19T11:40:16Z</time>
      </trkpt>
      <trkpt lat="46.38626" lon="5.96268">
        <ele>1156.2</ele>
        <time>2021-08-19T11:40:18Z</time>
      </trkpt>
      <trkpt lat="46.38621" lon="5.96263">
        <ele>1156</ele>
        <time>2021-08-19T11:40:19Z</time>
      </trkpt>
      <trkpt lat="46.38609" lon="5.96253">
        <ele>1155.1</ele>
        <time>2021-08-19T11:40:21Z</time>
      </trkpt>
      <trkpt lat="46.386" lon="5.96243">
        <ele>1154</ele>
        <time>2021-08-19T11:40:23Z</time>
      </trkpt>
      <trkpt lat="46.38596" lon="5.96237">
        <ele>1153.3</ele>
        <time>2021-08-19T11:40:24Z</time>
      </trkpt>
      <trkpt lat="46.38591" lon="5.96231">
        <ele>1152.5</ele>
        <time>2021-08-19T11:40:25Z</time>
      </trkpt>
      <trkpt lat="46.3858" lon="5.96218">
        <ele>1150.6</ele>
        <time>2021-08-19T11:40:27Z</time>
      </trkpt>
      <trkpt lat="46.38575" lon="5.96212">
        <ele>1149.8</ele>
        <time>2021-08-19T11:40:28Z</time>
      </trkpt>
      <trkpt lat="46.3857" lon="5.96207">
        <ele>1149.1</ele>
        <time>2021-08-19T11:40:29Z</time>
      </trkpt>
      <trkpt lat="46.38566" lon="5.96205">
        <ele>1148.6</ele>
        <time>2021-08-19T11:40:30Z</time>
      </trkpt>
      <trkpt lat="46.38555" lon="5.96202">
        <ele>1147.3</ele>
        <time>2021-08-19T11:40:32Z</time>
      </trkpt>
      <trkpt lat="46.3855" lon="5.96201">
        <ele>1146.6</ele>
        <time>2021-08-19T11:40:33Z</time>
      </trkpt>
      <trkpt lat="46.38536" lon="5.96198">
        <ele>1144.9</ele>
        <time>2021-08-19T11:40:35Z</time>
      </trkpt>
      <trkpt lat="46.38528" lon="5.96195">
        <ele>1144</ele>
        <time>2021-08-19T11:40:36Z</time>
      </trkpt>
      <trkpt lat="46.38514" lon="5.96188">
        <ele>1142.1</ele>
        <time>2021-08-19T11:40:38Z</time>
      </trkpt>
      <trkpt lat="46.38503" lon="5.96179">
        <ele>1140.7</ele>
        <time>2021-08-19T11:40:40Z</time>
      </trkpt>
      <trkpt lat="46.38498" lon="5.96173">
        <ele>1140.2</ele>
        <time>2021-08-19T11:40:41Z</time>
      </trkpt>
      <trkpt lat="46.38487" lon="5.9616">
        <ele>1139.2</ele>
        <time>2021-08-19T11:40:43Z</time>
      </trkpt>
      <trkpt lat="46.38475" lon="5.96149">
        <ele>1138.5</ele>
        <time>2021-08-19T11:40:45Z</time>
      </trkpt>
      <trkpt lat="46.38468" lon="5.96146">
        <ele>1138.1</ele>
        <time>2021-08-19T11:40:46Z</time>
      </trkpt>
      <trkpt lat="46.38462" lon="5.96144">
        <ele>1137.6</ele>
        <time>2021-08-19T11:40:47Z</time>
      </trkpt>
      <trkpt lat="46.38447" lon="5.96145">
        <ele>1136.5</ele>
        <time>2021-08-19T11:40:49Z</time>
      </trkpt>
      <trkpt lat="46.38434" lon="5.96152">
        <ele>1135.2</ele>
        <time>2021-08-19T11:40:51Z</time>
      </trkpt>
      <trkpt lat="46.38428" lon="5.96155">
        <ele>1134.6</ele>
        <time>2021-08-19T11:40:52Z</time>
      </trkpt>
      <trkpt lat="46.38419" lon="5.96162">
        <ele>1133.6</ele>
        <time>2021-08-19T11:40:54Z</time>
      </trkpt>
      <trkpt lat="46.38415" lon="5.96164">
        <ele>1133.1</ele>
        <time>2021-08-19T11:40:55Z</time>
      </trkpt>
      <trkpt lat="46.38409" lon="5.96161">
        <ele>1130.2</ele>
        <time>2021-08-19T11:40:57Z</time>
      </trkpt>
      <trkpt lat="46.38408" lon="5.96156">
        <ele>1129.8</ele>
        <time>2021-08-19T11:40:58Z</time>
      </trkpt>
      <trkpt lat="46.38406" lon="5.9615">
        <ele>1129.2</ele>
        <time>2021-08-19T11:40:59Z</time>
      </trkpt>
      <trkpt lat="46.38405" lon="5.96137">
        <ele>1128.4</ele>
        <time>2021-08-19T11:41:01Z</time>
      </trkpt>
      <trkpt lat="46.38402" lon="5.96131">
        <ele>1127.9</ele>
        <time>2021-08-19T11:41:03Z</time>
      </trkpt>
      <trkpt lat="46.38401" lon="5.96126">
        <ele>1127.6</ele>
        <time>2021-08-19T11:41:04Z</time>
      </trkpt>
      <trkpt lat="46.38397" lon="5.96124">
        <ele>1126.8</ele>
        <time>2021-08-19T11:41:05Z</time>
      </trkpt>
      <trkpt lat="46.38391" lon="5.9612">
        <ele>1126.5</ele>
        <time>2021-08-19T11:41:07Z</time>
      </trkpt>
      <trkpt lat="46.38386" lon="5.96118">
        <ele>1126.2</ele>
        <time>2021-08-19T11:41:08Z</time>
      </trkpt>
      <trkpt lat="46.38383" lon="5.96117">
        <ele>1126.1</ele>
        <time>2021-08-19T11:41:09Z</time>
      </trkpt>
      <trkpt lat="46.3838" lon="5.96115">
        <ele>1126.1</ele>
        <time>2021-08-19T11:41:10Z</time>
      </trkpt>
      <trkpt lat="46.38379" lon="5.96115">
        <ele>1126</ele>
        <time>2021-08-19T11:41:11Z</time>
      </trkpt>
      <trkpt lat="46.38378" lon="5.96115">
        <ele>1126</ele>
        <time>2021-08-19T11:41:12Z</time>
      </trkpt>
      <trkpt lat="46.38379" lon="5.96114">
        <ele>1126</ele>
        <time>2021-08-19T11:41:13Z</time>
      </trkpt>
      <trkpt lat="46.38379" lon="5.96114">
        <ele>1126</ele>
        <time>2021-08-19T11:41:15Z</time>
      </trkpt>
      <trkpt lat="46.3838" lon="5.96114">
        <ele>1125.9</ele>
        <time>2021-08-19T11:41:16Z</time>
      </trkpt>
      <trkpt lat="46.38382" lon="5.96114">
        <ele>1125.9</ele>
        <time>2021-08-19T11:41:17Z</time>
      </trkpt>
      <trkpt lat="46.38383" lon="5.96115">
        <ele>1125.9</ele>
        <time>2021-08-19T11:41:18Z</time>
      </trkpt>
      <trkpt lat="46.38385" lon="5.96115">
        <ele>1125.9</ele>
        <time>2021-08-19T11:41:20Z</time>
      </trkpt>
      <trkpt lat="46.38386" lon="5.96115">
        <ele>1125.9</ele>
        <time>2021-08-19T11:41:21Z</time>
      </trkpt>
      <trkpt lat="46.38388" lon="5.96117">
        <ele>1125.9</ele>
        <time>2021-08-19T11:41:23Z</time>
      </trkpt>
      <trkpt lat="46.38394" lon="5.9611">
        <ele>1126.1</ele>
        <time>2021-08-19T11:41:26Z</time>
      </trkpt>
      <trkpt lat="46.38393" lon="5.96105">
        <ele>1126.2</ele>
        <time>2021-08-19T11:41:27Z</time>
      </trkpt>
      <trkpt lat="46.3839" lon="5.96099">
        <ele>1126.4</ele>
        <time>2021-08-19T11:41:28Z</time>
      </trkpt>
      <trkpt lat="46.38386" lon="5.96095">
        <ele>1126.6</ele>
        <time>2021-08-19T11:41:29Z</time>
      </trkpt>
      <trkpt lat="46.38383" lon="5.96091">
        <ele>1126.8</ele>
        <time>2021-08-19T11:41:31Z</time>
      </trkpt>
      <trkpt lat="46.3838" lon="5.96088">
        <ele>1126.9</ele>
        <time>2021-08-19T11:41:32Z</time>
      </trkpt>
      <trkpt lat="46.38377" lon="5.96085">
        <ele>1127.1</ele>
        <time>2021-08-19T11:41:33Z</time>
      </trkpt>
      <trkpt lat="46.38376" lon="5.96085">
        <ele>1127.1</ele>
        <time>2021-08-19T11:41:34Z</time>
      </trkpt>
      <trkpt lat="46.38373" lon="5.96086">
        <ele>1127.2</ele>
        <time>2021-08-19T11:41:36Z</time>
      </trkpt>
      <trkpt lat="46.38372" lon="5.96086">
        <ele>1127.2</ele>
        <time>2021-08-19T11:41:37Z</time>
      </trkpt>
      <trkpt lat="46.3837" lon="5.96086">
        <ele>1127.3</ele>
        <time>2021-08-19T11:41:38Z</time>
      </trkpt>
      <trkpt lat="46.3837" lon="5.96086">
        <ele>1127.3</ele>
        <time>2021-08-19T11:41:39Z</time>
      </trkpt>
      <trkpt lat="46.38369" lon="5.96085">
        <ele>1127.3</ele>
        <time>2021-08-19T11:41:40Z</time>
      </trkpt>
      <trkpt lat="46.38367" lon="5.96086">
        <ele>1127.4</ele>
        <time>2021-08-19T11:41:42Z</time>
      </trkpt>
      <trkpt lat="46.38364" lon="5.96086">
        <ele>1127.5</ele>
        <time>2021-08-19T11:41:43Z</time>
      </trkpt>
      <trkpt lat="46.38362" lon="5.96087">
        <ele>1127.6</ele>
        <time>2021-08-19T11:41:45Z</time>
      </trkpt>
      <trkpt lat="46.38359" lon="5.96086">
        <ele>1127.7</ele>
        <time>2021-08-19T11:41:46Z</time>
      </trkpt>
      <trkpt lat="46.38356" lon="5.96085">
        <ele>1127.8</ele>
        <time>2021-08-19T11:41:47Z</time>
      </trkpt>
      <trkpt lat="46.38353" lon="5.96083">
        <ele>1128</ele>
        <time>2021-08-19T11:41:48Z</time>
      </trkpt>
      <trkpt lat="46.38352" lon="5.96082">
        <ele>1128</ele>
        <time>2021-08-19T11:41:49Z</time>
      </trkpt>
      <trkpt lat="46.38346" lon="5.96081">
        <ele>1128.3</ele>
        <time>2021-08-19T11:41:51Z</time>
      </trkpt>
      <trkpt lat="46.38344" lon="5.9608">
        <ele>1128.5</ele>
        <time>2021-08-19T11:41:52Z</time>
      </trkpt>
      <trkpt lat="46.3834" lon="5.96079">
        <ele>1128.8</ele>
        <time>2021-08-19T11:41:54Z</time>
      </trkpt>
      <trkpt lat="46.38337" lon="5.96077">
        <ele>1129.1</ele>
        <time>2021-08-19T11:41:55Z</time>
      </trkpt>
      <trkpt lat="46.38336" lon="5.96076">
        <ele>1129.3</ele>
        <time>2021-08-19T11:41:56Z</time>
      </trkpt>
      <trkpt lat="46.38334" lon="5.96074">
        <ele>1129.5</ele>
        <time>2021-08-19T11:41:58Z</time>
      </trkpt>
      <trkpt lat="46.38331" lon="5.96072">
        <ele>1129.7</ele>
        <time>2021-08-19T11:41:59Z</time>
      </trkpt>
      <trkpt lat="46.3833" lon="5.96073">
        <ele>1129.9</ele>
        <time>2021-08-19T11:42:01Z</time>
      </trkpt>
      <trkpt lat="46.38329" lon="5.96073">
        <ele>1130</ele>
        <time>2021-08-19T11:42:02Z</time>
      </trkpt>
      <trkpt lat="46.38327" lon="5.96074">
        <ele>1130.2</ele>
        <time>2021-08-19T11:42:04Z</time>
      </trkpt>
      <trkpt lat="46.38326" lon="5.96074">
        <ele>1130.3</ele>
        <time>2021-08-19T11:42:05Z</time>
      </trkpt>
      <trkpt lat="46.38324" lon="5.96074">
        <ele>1130.5</ele>
        <time>2021-08-19T11:42:06Z</time>
      </trkpt>
      <trkpt lat="46.38324" lon="5.96075">
        <ele>1130.6</ele>
        <time>2021-08-19T11:42:07Z</time>
      </trkpt>
      <trkpt lat="46.38322" lon="5.96075">
        <ele>1130.8</ele>
        <time>2021-08-19T11:42:09Z</time>
      </trkpt>
      <trkpt lat="46.38326" lon="5.96069">
        <ele>1131.4</ele>
        <time>2021-08-19T11:42:58Z</time>
      </trkpt>
      <trkpt lat="46.38326" lon="5.96067">
        <ele>1131.6</ele>
        <time>2021-08-19T11:42:59Z</time>
      </trkpt>
      <trkpt lat="46.38326" lon="5.96063">
        <ele>1131.8</ele>
        <time>2021-08-19T11:43:01Z</time>
      </trkpt>
      <trkpt lat="46.38327" lon="5.9606">
        <ele>1132.1</ele>
        <time>2021-08-19T11:43:02Z</time>
      </trkpt>
      <trkpt lat="46.38329" lon="5.96054">
        <ele>1132.5</ele>
        <time>2021-08-19T11:43:04Z</time>
      </trkpt>
      <trkpt lat="46.3833" lon="5.9605">
        <ele>1132.8</ele>
        <time>2021-08-19T11:43:05Z</time>
      </trkpt>
      <trkpt lat="46.38331" lon="5.96045">
        <ele>1133.1</ele>
        <time>2021-08-19T11:43:06Z</time>
      </trkpt>
      <trkpt lat="46.38333" lon="5.9604">
        <ele>1133.5</ele>
        <time>2021-08-19T11:43:08Z</time>
      </trkpt>
      <trkpt lat="46.38334" lon="5.96038">
        <ele>1133.6</ele>
        <time>2021-08-19T11:43:09Z</time>
      </trkpt>
      <trkpt lat="46.38334" lon="5.96036">
        <ele>1133.8</ele>
        <time>2021-08-19T11:43:10Z</time>
      </trkpt>
      <trkpt lat="46.38335" lon="5.96033">
        <ele>1134</ele>
        <time>2021-08-19T11:43:12Z</time>
      </trkpt>
      <trkpt lat="46.38336" lon="5.96032">
        <ele>1134.1</ele>
        <time>2021-08-19T11:43:13Z</time>
      </trkpt>
      <trkpt lat="46.38336" lon="5.96031">
        <ele>1134.1</ele>
        <time>2021-08-19T11:43:14Z</time>
      </trkpt>
      <trkpt lat="46.38337" lon="5.96031">
        <ele>1134.2</ele>
        <time>2021-08-19T11:43:15Z</time>
      </trkpt>
      <trkpt lat="46.38337" lon="5.96031">
        <ele>1134.2</ele>
        <time>2021-08-19T11:43:16Z</time>
      </trkpt>
      <trkpt lat="46.38337" lon="5.9603">
        <ele>1134.2</ele>
        <time>2021-08-19T11:43:18Z</time>
      </trkpt>
      <trkpt lat="46.38338" lon="5.96029">
        <ele>1134.3</ele>
        <time>2021-08-19T11:43:19Z</time>
      </trkpt>
      <trkpt lat="46.38308" lon="5.95987">
        <ele>1137.5</ele>
        <time>2021-08-19T11:44:33Z</time>
      </trkpt>
      <trkpt lat="46.38307" lon="5.95984">
        <ele>1137.7</ele>
        <time>2021-08-19T11:44:34Z</time>
      </trkpt>
      <trkpt lat="46.38307" lon="5.95981">
        <ele>1137.8</ele>
        <time>2021-08-19T11:44:36Z</time>
      </trkpt>
      <trkpt lat="46.38307" lon="5.95979">
        <ele>1137.9</ele>
        <time>2021-08-19T11:44:37Z</time>
      </trkpt>
      <trkpt lat="46.38308" lon="5.95977">
        <ele>1138</ele>
        <time>2021-08-19T11:44:39Z</time>
      </trkpt>
      <trkpt lat="46.38308" lon="5.95976">
        <ele>1138</ele>
        <time>2021-08-19T11:44:40Z</time>
      </trkpt>
      <trkpt lat="46.38309" lon="5.95975">
        <ele>1138.1</ele>
        <time>2021-08-19T11:44:42Z</time>
      </trkpt>
      <trkpt lat="46.38309" lon="5.95974">
        <ele>1138.1</ele>
        <time>2021-08-19T11:44:44Z</time>
      </trkpt>
      <trkpt lat="46.38309" lon="5.95974">
        <ele>1138.1</ele>
        <time>2021-08-19T11:44:45Z</time>
      </trkpt>
      <trkpt lat="46.38309" lon="5.95973">
        <ele>1138.2</ele>
        <time>2021-08-19T11:44:46Z</time>
      </trkpt>
      <trkpt lat="46.3831" lon="5.95973">
        <ele>1138.2</ele>
        <time>2021-08-19T11:44:47Z</time>
      </trkpt>
      <trkpt lat="46.3831" lon="5.95973">
        <ele>1138.2</ele>
        <time>2021-08-19T11:44:48Z</time>
      </trkpt>
      <trkpt lat="46.3831" lon="5.95972">
        <ele>1138.2</ele>
        <time>2021-08-19T11:44:49Z</time>
      </trkpt>
      <trkpt lat="46.3831" lon="5.95972">
        <ele>1138.2</ele>
        <time>2021-08-19T11:44:51Z</time>
      </trkpt>
      <trkpt lat="46.3831" lon="5.95971">
        <ele>1138.3</ele>
        <time>2021-08-19T11:44:53Z</time>
      </trkpt>
      <trkpt lat="46.3831" lon="5.9597">
        <ele>1138.3</ele>
        <time>2021-08-19T11:44:54Z</time>
      </trkpt>
      <trkpt lat="46.38311" lon="5.95969">
        <ele>1138.4</ele>
        <time>2021-08-19T11:44:55Z</time>
      </trkpt>
      <trkpt lat="46.38311" lon="5.95967">
        <ele>1138.5</ele>
        <time>2021-08-19T11:44:57Z</time>
      </trkpt>
      <trkpt lat="46.38311" lon="5.95968">
        <ele>1138.5</ele>
        <time>2021-08-19T11:44:58Z</time>
      </trkpt>
      <trkpt lat="46.38311" lon="5.95968">
        <ele>1138.5</ele>
        <time>2021-08-19T11:45:00Z</time>
      </trkpt>
      <trkpt lat="46.38311" lon="5.95968">
        <ele>1138.5</ele>
        <time>2021-08-19T11:45:01Z</time>
      </trkpt>
      <trkpt lat="46.38311" lon="5.95968">
        <ele>1138.5</ele>
        <time>2021-08-19T11:45:02Z</time>
      </trkpt>
      <trkpt lat="46.38311" lon="5.95968">
        <ele>1138.6</ele>
        <time>2021-08-19T11:45:04Z</time>
      </trkpt>
      <trkpt lat="46.3831" lon="5.95968">
        <ele>1138.6</ele>
        <time>2021-08-19T11:45:05Z</time>
      </trkpt>
      <trkpt lat="46.3831" lon="5.95968">
        <ele>1138.6</ele>
        <time>2021-08-19T11:45:07Z</time>
      </trkpt>
      <trkpt lat="46.3831" lon="5.95968">
        <ele>1138.6</ele>
        <time>2021-08-19T11:45:08Z</time>
      </trkpt>
      <trkpt lat="46.3831" lon="5.95969">
        <ele>1138.6</ele>
        <time>2021-08-19T11:45:10Z</time>
      </trkpt>
      <trkpt lat="46.3831" lon="5.95969">
        <ele>1138.6</ele>
        <time>2021-08-19T11:45:11Z</time>
      </trkpt>
      <trkpt lat="46.3831" lon="5.95969">
        <ele>1138.6</ele>
        <time>2021-08-19T11:45:12Z</time>
      </trkpt>
      <trkpt lat="46.38309" lon="5.95969">
        <ele>1138.6</ele>
        <time>2021-08-19T11:45:14Z</time>
      </trkpt>
      <trkpt lat="46.38309" lon="5.95969">
        <ele>1138.7</ele>
        <time>2021-08-19T11:45:15Z</time>
      </trkpt>
      <trkpt lat="46.38308" lon="5.95971">
        <ele>1138.7</ele>
        <time>2021-08-19T11:45:17Z</time>
      </trkpt>
      <trkpt lat="46.38308" lon="5.95972">
        <ele>1138.8</ele>
        <time>2021-08-19T11:45:19Z</time>
      </trkpt>
      <trkpt lat="46.38307" lon="5.95973">
        <ele>1138.9</ele>
        <time>2021-08-19T11:45:20Z</time>
      </trkpt>
      <trkpt lat="46.38307" lon="5.95974">
        <ele>1138.9</ele>
        <time>2021-08-19T11:45:22Z</time>
      </trkpt>
      <trkpt lat="46.38307" lon="5.95974">
        <ele>1139</ele>
        <time>2021-08-19T11:45:23Z</time>
      </trkpt>
      <trkpt lat="46.38307" lon="5.95975">
        <ele>1139</ele>
        <time>2021-08-19T11:45:25Z</time>
      </trkpt>
      <trkpt lat="46.38307" lon="5.95973">
        <ele>1139.1</ele>
        <time>2021-08-19T11:45:27Z</time>
      </trkpt>
      <trkpt lat="46.38308" lon="5.9597">
        <ele>1139.3</ele>
        <time>2021-08-19T11:45:28Z</time>
      </trkpt>
      <trkpt lat="46.38309" lon="5.95968">
        <ele>1139.4</ele>
        <time>2021-08-19T11:45:29Z</time>
      </trkpt>
      <trkpt lat="46.38309" lon="5.95966">
        <ele>1139.5</ele>
        <time>2021-08-19T11:45:31Z</time>
      </trkpt>
      <trkpt lat="46.38309" lon="5.95964">
        <ele>1139.6</ele>
        <time>2021-08-19T11:45:33Z</time>
      </trkpt>
      <trkpt lat="46.38309" lon="5.95963">
        <ele>1139.7</ele>
        <time>2021-08-19T11:45:34Z</time>
      </trkpt>
      <trkpt lat="46.3831" lon="5.95961">
        <ele>1139.8</ele>
        <time>2021-08-19T11:45:36Z</time>
      </trkpt>
      <trkpt lat="46.3831" lon="5.9596">
        <ele>1139.8</ele>
        <time>2021-08-19T11:45:37Z</time>
      </trkpt>
      <trkpt lat="46.3831" lon="5.95959">
        <ele>1141.9</ele>
        <time>2021-08-19T11:45:39Z</time>
      </trkpt>
      <trkpt lat="46.38311" lon="5.95959">
        <ele>1142</ele>
        <time>2021-08-19T11:45:40Z</time>
      </trkpt>
      <trkpt lat="46.38311" lon="5.95958">
        <ele>1142</ele>
        <time>2021-08-19T11:45:41Z</time>
      </trkpt>
      <trkpt lat="46.38311" lon="5.95958">
        <ele>1142.1</ele>
        <time>2021-08-19T11:45:43Z</time>
      </trkpt>
      <trkpt lat="46.38311" lon="5.95957">
        <ele>1142.1</ele>
        <time>2021-08-19T11:45:44Z</time>
      </trkpt>
      <trkpt lat="46.38311" lon="5.95957">
        <ele>1142.2</ele>
        <time>2021-08-19T11:45:45Z</time>
      </trkpt>
      <trkpt lat="46.38312" lon="5.95957">
        <ele>1142.2</ele>
        <time>2021-08-19T11:45:47Z</time>
      </trkpt>
      <trkpt lat="46.38312" lon="5.95957">
        <ele>1142.3</ele>
        <time>2021-08-19T11:45:48Z</time>
      </trkpt>
      <trkpt lat="46.38311" lon="5.95957">
        <ele>1142.3</ele>
        <time>2021-08-19T11:45:50Z</time>
      </trkpt>
      <trkpt lat="46.3831" lon="5.95958">
        <ele>1142.6</ele>
        <time>2021-08-19T11:45:51Z</time>
      </trkpt>
      <trkpt lat="46.38309" lon="5.95959">
        <ele>1142.8</ele>
        <time>2021-08-19T11:45:52Z</time>
      </trkpt>
      <trkpt lat="46.38308" lon="5.9596">
        <ele>1143.1</ele>
        <time>2021-08-19T11:45:54Z</time>
      </trkpt>
      <trkpt lat="46.38307" lon="5.9596">
        <ele>1143.2</ele>
        <time>2021-08-19T11:45:55Z</time>
      </trkpt>
      <trkpt lat="46.38306" lon="5.9596">
        <ele>1143.3</ele>
        <time>2021-08-19T11:45:56Z</time>
      </trkpt>
      <trkpt lat="46.38305" lon="5.95961">
        <ele>1143.6</ele>
        <time>2021-08-19T11:45:58Z</time>
      </trkpt>
      <trkpt lat="46.38304" lon="5.95962">
        <ele>1143.8</ele>
        <time>2021-08-19T11:45:59Z</time>
      </trkpt>
      <trkpt lat="46.38303" lon="5.95962">
        <ele>1143.9</ele>
        <time>2021-08-19T11:46:01Z</time>
      </trkpt>
      <trkpt lat="46.38302" lon="5.95963">
        <ele>1144.1</ele>
        <time>2021-08-19T11:46:02Z</time>
      </trkpt>
      <trkpt lat="46.383" lon="5.95964">
        <ele>1144.5</ele>
        <time>2021-08-19T11:46:03Z</time>
      </trkpt>
      <trkpt lat="46.38298" lon="5.95964">
        <ele>1144.9</ele>
        <time>2021-08-19T11:46:05Z</time>
      </trkpt>
      <trkpt lat="46.38294" lon="5.95963">
        <ele>1145.7</ele>
        <time>2021-08-19T11:46:06Z</time>
      </trkpt>
      <trkpt lat="46.38291" lon="5.95961">
        <ele>1146.3</ele>
        <time>2021-08-19T11:46:07Z</time>
      </trkpt>
      <trkpt lat="46.38287" lon="5.9596">
        <ele>1146.9</ele>
        <time>2021-08-19T11:46:09Z</time>
      </trkpt>
      <trkpt lat="46.38284" lon="5.95959">
        <ele>1147.4</ele>
        <time>2021-08-19T11:46:10Z</time>
      </trkpt>
      <trkpt lat="46.3828" lon="5.95957">
        <ele>1148.1</ele>
        <time>2021-08-19T11:46:11Z</time>
      </trkpt>
      <trkpt lat="46.38278" lon="5.95956">
        <ele>1148.4</ele>
        <time>2021-08-19T11:46:13Z</time>
      </trkpt>
      <trkpt lat="46.38278" lon="5.95956">
        <ele>1148.5</ele>
        <time>2021-08-19T11:46:14Z</time>
      </trkpt>
      <trkpt lat="46.38278" lon="5.95956">
        <ele>1148.5</ele>
        <time>2021-08-19T11:46:15Z</time>
      </trkpt>
      <trkpt lat="46.38277" lon="5.95956">
        <ele>1148.6</ele>
        <time>2021-08-19T11:46:16Z</time>
      </trkpt>
      <trkpt lat="46.38277" lon="5.95955">
        <ele>1148.6</ele>
        <time>2021-08-19T11:46:18Z</time>
      </trkpt>
      <trkpt lat="46.38277" lon="5.95955">
        <ele>1148.7</ele>
        <time>2021-08-19T11:46:20Z</time>
      </trkpt>
      <trkpt lat="46.38277" lon="5.95955">
        <ele>1148.7</ele>
        <time>2021-08-19T11:46:21Z</time>
      </trkpt>
      <trkpt lat="46.38277" lon="5.95955">
        <ele>1148.7</ele>
        <time>2021-08-19T11:46:22Z</time>
      </trkpt>
      <trkpt lat="46.38277" lon="5.95955">
        <ele>1148.7</ele>
        <time>2021-08-19T11:46:23Z</time>
      </trkpt>
      <trkpt lat="46.38276" lon="5.95952">
        <ele>1149.1</ele>
        <time>2021-08-19T11:46:25Z</time>
      </trkpt>
      <trkpt lat="46.38274" lon="5.9595">
        <ele>1149.4</ele>
        <time>2021-08-19T11:46:26Z</time>
      </trkpt>
      <trkpt lat="46.38273" lon="5.95948">
        <ele>1149.6</ele>
        <time>2021-08-19T11:46:28Z</time>
      </trkpt>
      <trkpt lat="46.38272" lon="5.95946">
        <ele>1149.8</ele>
        <time>2021-08-19T11:46:29Z</time>
      </trkpt>
      <trkpt lat="46.38271" lon="5.95945">
        <ele>1150.1</ele>
        <time>2021-08-19T11:46:31Z</time>
      </trkpt>
      <trkpt lat="46.3827" lon="5.95943">
        <ele>1150.3</ele>
        <time>2021-08-19T11:46:33Z</time>
      </trkpt>
      <trkpt lat="46.3827" lon="5.95942">
        <ele>1150.4</ele>
        <time>2021-08-19T11:46:34Z</time>
      </trkpt>
      <trkpt lat="46.38269" lon="5.95942">
        <ele>1150.4</ele>
        <time>2021-08-19T11:46:35Z</time>
      </trkpt>
      <trkpt lat="46.38269" lon="5.95941">
        <ele>1150.5</ele>
        <time>2021-08-19T11:46:37Z</time>
      </trkpt>
      <trkpt lat="46.38269" lon="5.95941">
        <ele>1150.5</ele>
        <time>2021-08-19T11:46:38Z</time>
      </trkpt>
      <trkpt lat="46.38269" lon="5.95941">
        <ele>1150.5</ele>
        <time>2021-08-19T11:46:39Z</time>
      </trkpt>
      <trkpt lat="46.38269" lon="5.95941">
        <ele>1150.6</ele>
        <time>2021-08-19T11:46:41Z</time>
      </trkpt>
      <trkpt lat="46.38268" lon="5.9594">
        <ele>1150.6</ele>
        <time>2021-08-19T11:46:42Z</time>
      </trkpt>
      <trkpt lat="46.38268" lon="5.9594">
        <ele>1150.6</ele>
        <time>2021-08-19T11:46:44Z</time>
      </trkpt>
      <trkpt lat="46.38268" lon="5.9594">
        <ele>1150.6</ele>
        <time>2021-08-19T11:46:45Z</time>
      </trkpt>
      <trkpt lat="46.38268" lon="5.9594">
        <ele>1150.6</ele>
        <time>2021-08-19T11:46:46Z</time>
      </trkpt>
      <trkpt lat="46.38268" lon="5.9594">
        <ele>1150.7</ele>
        <time>2021-08-19T11:46:47Z</time>
      </trkpt>
      <trkpt lat="46.38268" lon="5.9594">
        <ele>1150.7</ele>
        <time>2021-08-19T11:46:49Z</time>
      </trkpt>
      <trkpt lat="46.38268" lon="5.9594">
        <ele>1150.7</ele>
        <time>2021-08-19T11:46:50Z</time>
      </trkpt>
      <trkpt lat="46.38268" lon="5.9594">
        <ele>1150.7</ele>
        <time>2021-08-19T11:46:52Z</time>
      </trkpt>
      <trkpt lat="46.38268" lon="5.9594">
        <ele>1150.7</ele>
        <time>2021-08-19T11:46:53Z</time>
      </trkpt>
      <trkpt lat="46.38268" lon="5.9594">
        <ele>1150.7</ele>
        <time>2021-08-19T11:46:55Z</time>
      </trkpt>
      <trkpt lat="46.38268" lon="5.9594">
        <ele>1150.7</ele>
        <time>2021-08-19T11:46:57Z</time>
      </trkpt>
      <trkpt lat="46.38269" lon="5.95939">
        <ele>1150.8</ele>
        <time>2021-08-19T11:46:58Z</time>
      </trkpt>
      <trkpt lat="46.3827" lon="5.95938">
        <ele>1151</ele>
        <time>2021-08-19T11:46:59Z</time>
      </trkpt>
      <trkpt lat="46.38272" lon="5.95936">
        <ele>1151.5</ele>
        <time>2021-08-19T11:47:01Z</time>
      </trkpt>
      <trkpt lat="46.38274" lon="5.95933">
        <ele>1151.8</ele>
        <time>2021-08-19T11:47:03Z</time>
      </trkpt>
      <trkpt lat="46.38275" lon="5.95932">
        <ele>1152.1</ele>
        <time>2021-08-19T11:47:05Z</time>
      </trkpt>
      <trkpt lat="46.38276" lon="5.9593">
        <ele>1152.2</ele>
        <time>2021-08-19T11:47:07Z</time>
      </trkpt>
      <trkpt lat="46.38276" lon="5.9593">
        <ele>1152.4</ele>
        <time>2021-08-19T11:47:09Z</time>
      </trkpt>
      <trkpt lat="46.38277" lon="5.95929">
        <ele>1152.4</ele>
        <time>2021-08-19T11:47:10Z</time>
      </trkpt>
      <trkpt lat="46.38277" lon="5.95929">
        <ele>1152.5</ele>
        <time>2021-08-19T11:47:12Z</time>
      </trkpt>
      <trkpt lat="46.38277" lon="5.95929">
        <ele>1152.5</ele>
        <time>2021-08-19T11:47:13Z</time>
      </trkpt>
      <trkpt lat="46.38278" lon="5.95928">
        <ele>1152.6</ele>
        <time>2021-08-19T11:47:15Z</time>
      </trkpt>
      <trkpt lat="46.38278" lon="5.95927">
        <ele>1152.7</ele>
        <time>2021-08-19T11:47:16Z</time>
      </trkpt>
      <trkpt lat="46.38278" lon="5.95926">
        <ele>1152.8</ele>
        <time>2021-08-19T11:47:17Z</time>
      </trkpt>
      <trkpt lat="46.38278" lon="5.95926">
        <ele>1152.9</ele>
        <time>2021-08-19T11:47:19Z</time>
      </trkpt>
      <trkpt lat="46.38278" lon="5.95925">
        <ele>1153</ele>
        <time>2021-08-19T11:47:21Z</time>
      </trkpt>
      <trkpt lat="46.38278" lon="5.95924">
        <ele>1153.1</ele>
        <time>2021-08-19T11:47:22Z</time>
      </trkpt>
      <trkpt lat="46.38279" lon="5.95923">
        <ele>1153.1</ele>
        <time>2021-08-19T11:47:23Z</time>
      </trkpt>
      <trkpt lat="46.38278" lon="5.9592">
        <ele>1153.5</ele>
        <time>2021-08-19T11:47:24Z</time>
      </trkpt>
      <trkpt lat="46.38278" lon="5.95918">
        <ele>1153.7</ele>
        <time>2021-08-19T11:47:26Z</time>
      </trkpt>
      <trkpt lat="46.38277" lon="5.95917">
        <ele>1153.8</ele>
        <time>2021-08-19T11:47:27Z</time>
      </trkpt>
      <trkpt lat="46.38277" lon="5.95915">
        <ele>1154</ele>
        <time>2021-08-19T11:47:28Z</time>
      </trkpt>
      <trkpt lat="46.38277" lon="5.95914">
        <ele>1154.1</ele>
        <time>2021-08-19T11:47:29Z</time>
      </trkpt>
      <trkpt lat="46.38274" lon="5.9591">
        <ele>1154.6</ele>
        <time>2021-08-19T11:47:31Z</time>
      </trkpt>
      <trkpt lat="46.38272" lon="5.95907">
        <ele>1155</ele>
        <time>2021-08-19T11:47:32Z</time>
      </trkpt>
      <trkpt lat="46.3827" lon="5.95902">
        <ele>1155.4</ele>
        <time>2021-08-19T11:47:33Z</time>
      </trkpt>
      <trkpt lat="46.38269" lon="5.95901">
        <ele>1155.5</ele>
        <time>2021-08-19T11:47:34Z</time>
      </trkpt>
      <trkpt lat="46.38267" lon="5.95897">
        <ele>1155.9</ele>
        <time>2021-08-19T11:47:36Z</time>
      </trkpt>
      <trkpt lat="46.38267" lon="5.95896">
        <ele>1156</ele>
        <time>2021-08-19T11:47:37Z</time>
      </trkpt>
      <trkpt lat="46.38266" lon="5.95894">
        <ele>1156.1</ele>
        <time>2021-08-19T11:47:39Z</time>
      </trkpt>
      <trkpt lat="46.38265" lon="5.95893">
        <ele>1156.2</ele>
        <time>2021-08-19T11:47:40Z</time>
      </trkpt>
      <trkpt lat="46.38265" lon="5.95893">
        <ele>1156.2</ele>
        <time>2021-08-19T11:47:41Z</time>
      </trkpt>
      <trkpt lat="46.38265" lon="5.95893">
        <ele>1156.3</ele>
        <time>2021-08-19T11:47:42Z</time>
      </trkpt>
      <trkpt lat="46.38264" lon="5.95892">
        <ele>1156.3</ele>
        <time>2021-08-19T11:47:44Z</time>
      </trkpt>
      <trkpt lat="46.38264" lon="5.95892">
        <ele>1156.3</ele>
        <time>2021-08-19T11:47:46Z</time>
      </trkpt>
      <trkpt lat="46.38264" lon="5.95892">
        <ele>1156.3</ele>
        <time>2021-08-19T11:47:47Z</time>
      </trkpt>
      <trkpt lat="46.38264" lon="5.95891">
        <ele>1156.4</ele>
        <time>2021-08-19T11:47:48Z</time>
      </trkpt>
      <trkpt lat="46.38265" lon="5.95888">
        <ele>1156.6</ele>
        <time>2021-08-19T11:47:49Z</time>
      </trkpt>
      <trkpt lat="46.38265" lon="5.95886">
        <ele>1156.7</ele>
        <time>2021-08-19T11:47:50Z</time>
      </trkpt>
      <trkpt lat="46.38265" lon="5.95883">
        <ele>1156.9</ele>
        <time>2021-08-19T11:47:52Z</time>
      </trkpt>
      <trkpt lat="46.38264" lon="5.95881">
        <ele>1157</ele>
        <time>2021-08-19T11:47:53Z</time>
      </trkpt>
      <trkpt lat="46.38264" lon="5.95879">
        <ele>1157.1</ele>
        <time>2021-08-19T11:47:55Z</time>
      </trkpt>
      <trkpt lat="46.38263" lon="5.95875">
        <ele>1157.4</ele>
        <time>2021-08-19T11:47:56Z</time>
      </trkpt>
      <trkpt lat="46.38263" lon="5.95871">
        <ele>1157.5</ele>
        <time>2021-08-19T11:47:57Z</time>
      </trkpt>
      <trkpt lat="46.38263" lon="5.95867">
        <ele>1157.8</ele>
        <time>2021-08-19T11:47:59Z</time>
      </trkpt>
      <trkpt lat="46.38263" lon="5.95863">
        <ele>1158</ele>
        <time>2021-08-19T11:48:00Z</time>
      </trkpt>
      <trkpt lat="46.38263" lon="5.95861">
        <ele>1158.1</ele>
        <time>2021-08-19T11:48:02Z</time>
      </trkpt>
      <trkpt lat="46.38263" lon="5.9586">
        <ele>1158.2</ele>
        <time>2021-08-19T11:48:03Z</time>
      </trkpt>
      <trkpt lat="46.38263" lon="5.95858">
        <ele>1158.2</ele>
        <time>2021-08-19T11:48:05Z</time>
      </trkpt>
      <trkpt lat="46.38263" lon="5.95856">
        <ele>1158.3</ele>
        <time>2021-08-19T11:48:06Z</time>
      </trkpt>
      <trkpt lat="46.38262" lon="5.95852">
        <ele>1158.6</ele>
        <time>2021-08-19T11:48:08Z</time>
      </trkpt>
      <trkpt lat="46.38262" lon="5.9585">
        <ele>1158.7</ele>
        <time>2021-08-19T11:48:09Z</time>
      </trkpt>
      <trkpt lat="46.38261" lon="5.95848">
        <ele>1158.8</ele>
        <time>2021-08-19T11:48:11Z</time>
      </trkpt>
      <trkpt lat="46.38261" lon="5.95846">
        <ele>1158.9</ele>
        <time>2021-08-19T11:48:12Z</time>
      </trkpt>
      <trkpt lat="46.38261" lon="5.95845">
        <ele>1159</ele>
        <time>2021-08-19T11:48:14Z</time>
      </trkpt>
      <trkpt lat="46.38261" lon="5.95844">
        <ele>1159</ele>
        <time>2021-08-19T11:48:15Z</time>
      </trkpt>
      <trkpt lat="46.3826" lon="5.95844">
        <ele>1159.1</ele>
        <time>2021-08-19T11:48:17Z</time>
      </trkpt>
      <trkpt lat="46.3826" lon="5.95843">
        <ele>1159.1</ele>
        <time>2021-08-19T11:48:18Z</time>
      </trkpt>
      <trkpt lat="46.3826" lon="5.95843">
        <ele>1159.1</ele>
        <time>2021-08-19T11:48:19Z</time>
      </trkpt>
      <trkpt lat="46.3826" lon="5.95843">
        <ele>1159.1</ele>
        <time>2021-08-19T11:48:21Z</time>
      </trkpt>
      <trkpt lat="46.3826" lon="5.95843">
        <ele>1159.2</ele>
        <time>2021-08-19T11:48:22Z</time>
      </trkpt>
      <trkpt lat="46.3826" lon="5.95842">
        <ele>1159.2</ele>
        <time>2021-08-19T11:48:23Z</time>
      </trkpt>
      <trkpt lat="46.3826" lon="5.95842">
        <ele>1159.2</ele>
        <time>2021-08-19T11:48:25Z</time>
      </trkpt>
      <trkpt lat="46.3826" lon="5.95842">
        <ele>1159.2</ele>
        <time>2021-08-19T11:48:26Z</time>
      </trkpt>
      <trkpt lat="46.3826" lon="5.95842">
        <ele>1159.2</ele>
        <time>2021-08-19T11:48:27Z</time>
      </trkpt>
      <trkpt lat="46.3826" lon="5.95842">
        <ele>1159.2</ele>
        <time>2021-08-19T11:48:29Z</time>
      </trkpt>
      <trkpt lat="46.38261" lon="5.95842">
        <ele>1159.3</ele>
        <time>2021-08-19T11:48:30Z</time>
      </trkpt>
      <trkpt lat="46.38262" lon="5.95841">
        <ele>1159.4</ele>
        <time>2021-08-19T11:48:32Z</time>
      </trkpt>
      <trkpt lat="46.38263" lon="5.9584">
        <ele>1159.5</ele>
        <time>2021-08-19T11:48:33Z</time>
      </trkpt>
      <trkpt lat="46.38264" lon="5.95839">
        <ele>1159.6</ele>
        <time>2021-08-19T11:48:35Z</time>
      </trkpt>
      <trkpt lat="46.38265" lon="5.95839">
        <ele>1159.7</ele>
        <time>2021-08-19T11:48:37Z</time>
      </trkpt>
      <trkpt lat="46.38265" lon="5.95838">
        <ele>1159.8</ele>
        <time>2021-08-19T11:48:38Z</time>
      </trkpt>
      <trkpt lat="46.38265" lon="5.95838">
        <ele>1159.8</ele>
        <time>2021-08-19T11:48:40Z</time>
      </trkpt>
      <trkpt lat="46.38266" lon="5.95838">
        <ele>1159.9</ele>
        <time>2021-08-19T11:48:41Z</time>
      </trkpt>
      <trkpt lat="46.38266" lon="5.95838">
        <ele>1159.9</ele>
        <time>2021-08-19T11:48:43Z</time>
      </trkpt>
      <trkpt lat="46.38266" lon="5.95837">
        <ele>1159.9</ele>
        <time>2021-08-19T11:48:44Z</time>
      </trkpt>
      <trkpt lat="46.38266" lon="5.95837">
        <ele>1159.9</ele>
        <time>2021-08-19T11:48:46Z</time>
      </trkpt>
      <trkpt lat="46.38265" lon="5.95835">
        <ele>1160.1</ele>
        <time>2021-08-19T11:48:47Z</time>
      </trkpt>
      <trkpt lat="46.38265" lon="5.95834">
        <ele>1160.2</ele>
        <time>2021-08-19T11:48:48Z</time>
      </trkpt>
      <trkpt lat="46.38264" lon="5.95831">
        <ele>1160.4</ele>
        <time>2021-08-19T11:48:49Z</time>
      </trkpt>
      <trkpt lat="46.38263" lon="5.95828">
        <ele>1160.7</ele>
        <time>2021-08-19T11:48:51Z</time>
      </trkpt>
      <trkpt lat="46.38262" lon="5.95825">
        <ele>1161</ele>
        <time>2021-08-19T11:48:52Z</time>
      </trkpt>
      <trkpt lat="46.38262" lon="5.95823">
        <ele>1161.2</ele>
        <time>2021-08-19T11:48:53Z</time>
      </trkpt>
      <trkpt lat="46.38262" lon="5.95822">
        <ele>1161.3</ele>
        <time>2021-08-19T11:48:54Z</time>
      </trkpt>
      <trkpt lat="46.38263" lon="5.95821">
        <ele>1161.4</ele>
        <time>2021-08-19T11:48:55Z</time>
      </trkpt>
      <trkpt lat="46.38263" lon="5.95819">
        <ele>1161.5</ele>
        <time>2021-08-19T11:48:57Z</time>
      </trkpt>
      <trkpt lat="46.38263" lon="5.95819">
        <ele>1161.5</ele>
        <time>2021-08-19T11:48:59Z</time>
      </trkpt>
      <trkpt lat="46.38262" lon="5.95818">
        <ele>1161.6</ele>
        <time>2021-08-19T11:49:00Z</time>
      </trkpt>
      <trkpt lat="46.38262" lon="5.95818">
        <ele>1161.6</ele>
        <time>2021-08-19T11:49:02Z</time>
      </trkpt>
      <trkpt lat="46.38262" lon="5.95817">
        <ele>1161.6</ele>
        <time>2021-08-19T11:49:03Z</time>
      </trkpt>
      <trkpt lat="46.38262" lon="5.95817">
        <ele>1161.7</ele>
        <time>2021-08-19T11:49:05Z</time>
      </trkpt>
      <trkpt lat="46.38262" lon="5.95817">
        <ele>1161.7</ele>
        <time>2021-08-19T11:49:07Z</time>
      </trkpt>
      <trkpt lat="46.38262" lon="5.95817">
        <ele>1161.7</ele>
        <time>2021-08-19T11:49:08Z</time>
      </trkpt>
      <trkpt lat="46.38262" lon="5.95817">
        <ele>1161.7</ele>
        <time>2021-08-19T11:49:09Z</time>
      </trkpt>
      <trkpt lat="46.38262" lon="5.95817">
        <ele>1161.7</ele>
        <time>2021-08-19T11:49:11Z</time>
      </trkpt>
      <trkpt lat="46.38262" lon="5.95817">
        <ele>1161.7</ele>
        <time>2021-08-19T11:49:13Z</time>
      </trkpt>
      <trkpt lat="46.38262" lon="5.95817">
        <ele>1161.8</ele>
        <time>2021-08-19T11:49:14Z</time>
      </trkpt>
      <trkpt lat="46.38262" lon="5.95817">
        <ele>1161.8</ele>
        <time>2021-08-19T11:49:16Z</time>
      </trkpt>
      <trkpt lat="46.38262" lon="5.95817">
        <ele>1161.8</ele>
        <time>2021-08-19T11:49:17Z</time>
      </trkpt>
      <trkpt lat="46.38262" lon="5.95817">
        <ele>1161.8</ele>
        <time>2021-08-19T11:49:19Z</time>
      </trkpt>
      <trkpt lat="46.38262" lon="5.95817">
        <ele>1161.8</ele>
        <time>2021-08-19T11:49:20Z</time>
      </trkpt>
      <trkpt lat="46.38262" lon="5.95817">
        <ele>1161.8</ele>
        <time>2021-08-19T11:49:21Z</time>
      </trkpt>
      <trkpt lat="46.38262" lon="5.95817">
        <ele>1161.8</ele>
        <time>2021-08-19T11:49:23Z</time>
      </trkpt>
      <trkpt lat="46.38263" lon="5.95815">
        <ele>1162</ele>
        <time>2021-08-19T11:49:24Z</time>
      </trkpt>
      <trkpt lat="46.38264" lon="5.95814">
        <ele>1162.2</ele>
        <time>2021-08-19T11:49:25Z</time>
      </trkpt>
      <trkpt lat="46.38265" lon="5.95812">
        <ele>1162.4</ele>
        <time>2021-08-19T11:49:27Z</time>
      </trkpt>
      <trkpt lat="46.38266" lon="5.95811">
        <ele>1162.5</ele>
        <time>2021-08-19T11:49:28Z</time>
      </trkpt>
      <trkpt lat="46.38267" lon="5.95809">
        <ele>1162.8</ele>
        <time>2021-08-19T11:49:30Z</time>
      </trkpt>
      <trkpt lat="46.38268" lon="5.95808">
        <ele>1162.9</ele>
        <time>2021-08-19T11:49:31Z</time>
      </trkpt>
      <trkpt lat="46.38269" lon="5.95807">
        <ele>1163.1</ele>
        <time>2021-08-19T11:49:33Z</time>
      </trkpt>
      <trkpt lat="46.38269" lon="5.95807">
        <ele>1163.1</ele>
        <time>2021-08-19T11:49:34Z</time>
      </trkpt>
      <trkpt lat="46.38269" lon="5.95806">
        <ele>1163.2</ele>
        <time>2021-08-19T11:49:35Z</time>
      </trkpt>
      <trkpt lat="46.3827" lon="5.95806">
        <ele>1163.2</ele>
        <time>2021-08-19T11:49:37Z</time>
      </trkpt>
      <trkpt lat="46.3827" lon="5.95805">
        <ele>1163.3</ele>
        <time>2021-08-19T11:49:39Z</time>
      </trkpt>
      <trkpt lat="46.3827" lon="5.95805">
        <ele>1163.3</ele>
        <time>2021-08-19T11:49:40Z</time>
      </trkpt>
      <trkpt lat="46.3827" lon="5.95804">
        <ele>1163.4</ele>
        <time>2021-08-19T11:49:41Z</time>
      </trkpt>
      <trkpt lat="46.3827" lon="5.95804">
        <ele>1163.4</ele>
        <time>2021-08-19T11:49:43Z</time>
      </trkpt>
      <trkpt lat="46.3827" lon="5.95804">
        <ele>1163.4</ele>
        <time>2021-08-19T11:49:44Z</time>
      </trkpt>
      <trkpt lat="46.3827" lon="5.95804">
        <ele>1163.4</ele>
        <time>2021-08-19T11:49:46Z</time>
      </trkpt>
      <trkpt lat="46.3827" lon="5.95803">
        <ele>1163.5</ele>
        <time>2021-08-19T11:49:47Z</time>
      </trkpt>
      <trkpt lat="46.3827" lon="5.95803">
        <ele>1163.5</ele>
        <time>2021-08-19T11:49:48Z</time>
      </trkpt>
      <trkpt lat="46.3827" lon="5.95801">
        <ele>1163.7</ele>
        <time>2021-08-19T11:49:50Z</time>
      </trkpt>
      <trkpt lat="46.38269" lon="5.95798">
        <ele>1164</ele>
        <time>2021-08-19T11:49:51Z</time>
      </trkpt>
      <trkpt lat="46.38269" lon="5.95794">
        <ele>1164.3</ele>
        <time>2021-08-19T11:49:53Z</time>
      </trkpt>
      <trkpt lat="46.38268" lon="5.95791">
        <ele>1164.7</ele>
        <time>2021-08-19T11:49:54Z</time>
      </trkpt>
      <trkpt lat="46.38267" lon="5.95787">
        <ele>1165</ele>
        <time>2021-08-19T11:49:56Z</time>
      </trkpt>
      <trkpt lat="46.38266" lon="5.95784">
        <ele>1165.3</ele>
        <time>2021-08-19T11:49:58Z</time>
      </trkpt>
      <trkpt lat="46.38266" lon="5.95782">
        <ele>1165.5</ele>
        <time>2021-08-19T11:49:59Z</time>
      </trkpt>
      <trkpt lat="46.38266" lon="5.95781">
        <ele>1165.7</ele>
        <time>2021-08-19T11:50:01Z</time>
      </trkpt>
      <trkpt lat="46.38266" lon="5.95778">
        <ele>1165.9</ele>
        <time>2021-08-19T11:50:03Z</time>
      </trkpt>
      <trkpt lat="46.38266" lon="5.95775">
        <ele>1166.2</ele>
        <time>2021-08-19T11:50:04Z</time>
      </trkpt>
      <trkpt lat="46.38266" lon="5.95771">
        <ele>1166.6</ele>
        <time>2021-08-19T11:50:06Z</time>
      </trkpt>
      <trkpt lat="46.38266" lon="5.95769">
        <ele>1166.8</ele>
        <time>2021-08-19T11:50:07Z</time>
      </trkpt>
      <trkpt lat="46.38266" lon="5.95768">
        <ele>1166.9</ele>
        <time>2021-08-19T11:50:08Z</time>
      </trkpt>
      <trkpt lat="46.38266" lon="5.95766">
        <ele>1167.1</ele>
        <time>2021-08-19T11:50:09Z</time>
      </trkpt>
      <trkpt lat="46.38267" lon="5.95766">
        <ele>1167.2</ele>
        <time>2021-08-19T11:50:10Z</time>
      </trkpt>
      <trkpt lat="46.38267" lon="5.95765">
        <ele>1167.3</ele>
        <time>2021-08-19T11:50:11Z</time>
      </trkpt>
      <trkpt lat="46.38267" lon="5.95764">
        <ele>1167.4</ele>
        <time>2021-08-19T11:50:13Z</time>
      </trkpt>
      <trkpt lat="46.38267" lon="5.95762">
        <ele>1167.5</ele>
        <time>2021-08-19T11:50:15Z</time>
      </trkpt>
      <trkpt lat="46.38267" lon="5.95762">
        <ele>1167.6</ele>
        <time>2021-08-19T11:50:16Z</time>
      </trkpt>
      <trkpt lat="46.38266" lon="5.95761">
        <ele>1167.8</ele>
        <time>2021-08-19T11:50:18Z</time>
      </trkpt>
      <trkpt lat="46.38266" lon="5.9576">
        <ele>1167.8</ele>
        <time>2021-08-19T11:50:19Z</time>
      </trkpt>
      <trkpt lat="46.38266" lon="5.95759">
        <ele>1167.9</ele>
        <time>2021-08-19T11:50:21Z</time>
      </trkpt>
      <trkpt lat="46.38266" lon="5.95758">
        <ele>1168</ele>
        <time>2021-08-19T11:50:23Z</time>
      </trkpt>
      <trkpt lat="46.38267" lon="5.95757">
        <ele>1168.2</ele>
        <time>2021-08-19T11:50:24Z</time>
      </trkpt>
      <trkpt lat="46.38268" lon="5.95755">
        <ele>1168.5</ele>
        <time>2021-08-19T11:50:25Z</time>
      </trkpt>
      <trkpt lat="46.3827" lon="5.9575">
        <ele>1169.1</ele>
        <time>2021-08-19T11:50:27Z</time>
      </trkpt>
      <trkpt lat="46.38272" lon="5.95747">
        <ele>1169.6</ele>
        <time>2021-08-19T11:50:29Z</time>
      </trkpt>
      <trkpt lat="46.38272" lon="5.95745">
        <ele>1169.8</ele>
        <time>2021-08-19T11:50:30Z</time>
      </trkpt>
      <trkpt lat="46.38273" lon="5.95744">
        <ele>1170</ele>
        <time>2021-08-19T11:50:31Z</time>
      </trkpt>
      <trkpt lat="46.38273" lon="5.95742">
        <ele>1170.2</ele>
        <time>2021-08-19T11:50:33Z</time>
      </trkpt>
      <trkpt lat="46.38272" lon="5.95741">
        <ele>1170.5</ele>
        <time>2021-08-19T11:50:34Z</time>
      </trkpt>
      <trkpt lat="46.3827" lon="5.95741">
        <ele>1170.7</ele>
        <time>2021-08-19T11:50:36Z</time>
      </trkpt>
      <trkpt lat="46.38269" lon="5.9574">
        <ele>1170.9</ele>
        <time>2021-08-19T11:50:37Z</time>
      </trkpt>
      <trkpt lat="46.38267" lon="5.95739">
        <ele>1171.3</ele>
        <time>2021-08-19T11:50:39Z</time>
      </trkpt>
      <trkpt lat="46.38265" lon="5.95738">
        <ele>1171.7</ele>
        <time>2021-08-19T11:50:41Z</time>
      </trkpt>
      <trkpt lat="46.38263" lon="5.95738">
        <ele>1172</ele>
        <time>2021-08-19T11:50:42Z</time>
      </trkpt>
      <trkpt lat="46.38262" lon="5.95738">
        <ele>1172.2</ele>
        <time>2021-08-19T11:50:43Z</time>
      </trkpt>
      <trkpt lat="46.38258" lon="5.95739">
        <ele>1172.9</ele>
        <time>2021-08-19T11:50:45Z</time>
      </trkpt>
      <trkpt lat="46.38256" lon="5.95741">
        <ele>1173.1</ele>
        <time>2021-08-19T11:50:46Z</time>
      </trkpt>
      <trkpt lat="46.38255" lon="5.95742">
        <ele>1173.3</ele>
        <time>2021-08-19T11:50:47Z</time>
      </trkpt>
      <trkpt lat="46.38253" lon="5.95744">
        <ele>1173.8</ele>
        <time>2021-08-19T11:50:49Z</time>
      </trkpt>
      <trkpt lat="46.38251" lon="5.95745">
        <ele>1174.1</ele>
        <time>2021-08-19T11:50:50Z</time>
      </trkpt>
      <trkpt lat="46.3825" lon="5.95745">
        <ele>1174.2</ele>
        <time>2021-08-19T11:50:51Z</time>
      </trkpt>
      <trkpt lat="46.3825" lon="5.95745">
        <ele>1174.3</ele>
        <time>2021-08-19T11:50:52Z</time>
      </trkpt>
      <trkpt lat="46.38248" lon="5.95747">
        <ele>1174.5</ele>
        <time>2021-08-19T11:50:54Z</time>
      </trkpt>
      <trkpt lat="46.38248" lon="5.95748">
        <ele>1174.6</ele>
        <time>2021-08-19T11:50:55Z</time>
      </trkpt>
      <trkpt lat="46.38247" lon="5.95749">
        <ele>1174.8</ele>
        <time>2021-08-19T11:50:57Z</time>
      </trkpt>
      <trkpt lat="46.38246" lon="5.9575">
        <ele>1174.9</ele>
        <time>2021-08-19T11:50:58Z</time>
      </trkpt>
      <trkpt lat="46.38213" lon="5.95808">
        <ele>1179.1</ele>
        <time>2021-08-19T11:52:06Z</time>
      </trkpt>
      <trkpt lat="46.3821" lon="5.95814">
        <ele>1179.3</ele>
        <time>2021-08-19T11:52:07Z</time>
      </trkpt>
      <trkpt lat="46.38205" lon="5.95819">
        <ele>1179.6</ele>
        <time>2021-08-19T11:52:08Z</time>
      </trkpt>
      <trkpt lat="46.38202" lon="5.95822">
        <ele>1179.8</ele>
        <time>2021-08-19T11:52:10Z</time>
      </trkpt>
      <trkpt lat="46.38199" lon="5.95825">
        <ele>1180</ele>
        <time>2021-08-19T11:52:11Z</time>
      </trkpt>
      <trkpt lat="46.38198" lon="5.95826">
        <ele>1180</ele>
        <time>2021-08-19T11:52:12Z</time>
      </trkpt>
      <trkpt lat="46.38196" lon="5.95827">
        <ele>1180.2</ele>
        <time>2021-08-19T11:52:13Z</time>
      </trkpt>
      <trkpt lat="46.38195" lon="5.95828">
        <ele>1180.2</ele>
        <time>2021-08-19T11:52:15Z</time>
      </trkpt>
      <trkpt lat="46.38195" lon="5.95828">
        <ele>1180.2</ele>
        <time>2021-08-19T11:52:16Z</time>
      </trkpt>
      <trkpt lat="46.38195" lon="5.95828">
        <ele>1180.2</ele>
        <time>2021-08-19T11:52:18Z</time>
      </trkpt>
      <trkpt lat="46.38195" lon="5.95828">
        <ele>1180.2</ele>
        <time>2021-08-19T11:52:19Z</time>
      </trkpt>
      <trkpt lat="46.38196" lon="5.95827">
        <ele>1180.3</ele>
        <time>2021-08-19T11:52:21Z</time>
      </trkpt>
      <trkpt lat="46.382" lon="5.95831">
        <ele>1180.5</ele>
        <time>2021-08-19T11:52:30Z</time>
      </trkpt>
      <trkpt lat="46.382" lon="5.95836">
        <ele>1180.7</ele>
        <time>2021-08-19T11:52:32Z</time>
      </trkpt>
      <trkpt lat="46.382" lon="5.9584">
        <ele>1180.8</ele>
        <time>2021-08-19T11:52:33Z</time>
      </trkpt>
      <trkpt lat="46.38199" lon="5.95844">
        <ele>1180.9</ele>
        <time>2021-08-19T11:52:34Z</time>
      </trkpt>
      <trkpt lat="46.38197" lon="5.95848">
        <ele>1181</ele>
        <time>2021-08-19T11:52:36Z</time>
      </trkpt>
      <trkpt lat="46.38195" lon="5.95851">
        <ele>1181.1</ele>
        <time>2021-08-19T11:52:37Z</time>
      </trkpt>
      <trkpt lat="46.38193" lon="5.95856">
        <ele>1181.1</ele>
        <time>2021-08-19T11:52:38Z</time>
      </trkpt>
      <trkpt lat="46.38192" lon="5.9586">
        <ele>1181</ele>
        <time>2021-08-19T11:52:39Z</time>
      </trkpt>
      <trkpt lat="46.38191" lon="5.95863">
        <ele>1180.9</ele>
        <time>2021-08-19T11:52:40Z</time>
      </trkpt>
      <trkpt lat="46.3819" lon="5.95868">
        <ele>1180.8</ele>
        <time>2021-08-19T11:52:41Z</time>
      </trkpt>
      <trkpt lat="46.38188" lon="5.95873">
        <ele>1180.7</ele>
        <time>2021-08-19T11:52:42Z</time>
      </trkpt>
      <trkpt lat="46.38185" lon="5.95879">
        <ele>1180.6</ele>
        <time>2021-08-19T11:52:44Z</time>
      </trkpt>
      <trkpt lat="46.38181" lon="5.95883">
        <ele>1180.4</ele>
        <time>2021-08-19T11:52:45Z</time>
      </trkpt>
      <trkpt lat="46.38178" lon="5.95886">
        <ele>1180.4</ele>
        <time>2021-08-19T11:52:46Z</time>
      </trkpt>
      <trkpt lat="46.38176" lon="5.9589">
        <ele>1180.4</ele>
        <time>2021-08-19T11:52:47Z</time>
      </trkpt>
      <trkpt lat="46.38171" lon="5.95895">
        <ele>1180.3</ele>
        <time>2021-08-19T11:52:49Z</time>
      </trkpt>
      <trkpt lat="46.38167" lon="5.95899">
        <ele>1180.2</ele>
        <time>2021-08-19T11:52:51Z</time>
      </trkpt>
      <trkpt lat="46.38164" lon="5.95901">
        <ele>1180.1</ele>
        <time>2021-08-19T11:52:52Z</time>
      </trkpt>
      <trkpt lat="46.3816" lon="5.95904">
        <ele>1179.9</ele>
        <time>2021-08-19T11:52:54Z</time>
      </trkpt>
      <trkpt lat="46.38158" lon="5.95907">
        <ele>1179.8</ele>
        <time>2021-08-19T11:52:55Z</time>
      </trkpt>
      <trkpt lat="46.38155" lon="5.9591">
        <ele>1179.7</ele>
        <time>2021-08-19T11:52:57Z</time>
      </trkpt>
      <trkpt lat="46.38153" lon="5.95912">
        <ele>1179.1</ele>
        <time>2021-08-19T11:52:58Z</time>
      </trkpt>
      <trkpt lat="46.38149" lon="5.95917">
        <ele>1179.1</ele>
        <time>2021-08-19T11:53:00Z</time>
      </trkpt>
      <trkpt lat="46.38145" lon="5.95919">
        <ele>1179.1</ele>
        <time>2021-08-19T11:53:02Z</time>
      </trkpt>
      <trkpt lat="46.38143" lon="5.9592">
        <ele>1179.1</ele>
        <time>2021-08-19T11:53:03Z</time>
      </trkpt>
      <trkpt lat="46.38141" lon="5.95924">
        <ele>1179.1</ele>
        <time>2021-08-19T11:53:05Z</time>
      </trkpt>
      <trkpt lat="46.3814" lon="5.95925">
        <ele>1179.1</ele>
        <time>2021-08-19T11:53:06Z</time>
      </trkpt>
      <trkpt lat="46.38139" lon="5.95925">
        <ele>1179.1</ele>
        <time>2021-08-19T11:53:07Z</time>
      </trkpt>
      <trkpt lat="46.38137" lon="5.95927">
        <ele>1179.1</ele>
        <time>2021-08-19T11:53:09Z</time>
      </trkpt>
      <trkpt lat="46.38135" lon="5.95934">
        <ele>1179</ele>
        <time>2021-08-19T11:53:11Z</time>
      </trkpt>
      <trkpt lat="46.38132" lon="5.95941">
        <ele>1179</ele>
        <time>2021-08-19T11:53:13Z</time>
      </trkpt>
      <trkpt lat="46.38129" lon="5.95947">
        <ele>1178.9</ele>
        <time>2021-08-19T11:53:14Z</time>
      </trkpt>
      <trkpt lat="46.38126" lon="5.95953">
        <ele>1178.8</ele>
        <time>2021-08-19T11:53:16Z</time>
      </trkpt>
      <trkpt lat="46.38123" lon="5.95959">
        <ele>1178.7</ele>
        <time>2021-08-19T11:53:17Z</time>
      </trkpt>
      <trkpt lat="46.3812" lon="5.95966">
        <ele>1178.5</ele>
        <time>2021-08-19T11:54:06Z</time>
      </trkpt>
      <trkpt lat="46.38117" lon="5.95972">
        <ele>1178.4</ele>
        <time>2021-08-19T11:54:07Z</time>
      </trkpt>
      <trkpt lat="46.38105" lon="5.95991">
        <ele>1177.9</ele>
        <time>2021-08-19T11:54:09Z</time>
      </trkpt>
      <trkpt lat="46.38102" lon="5.95997">
        <ele>1177.8</ele>
        <time>2021-08-19T11:54:10Z</time>
      </trkpt>
      <trkpt lat="46.38102" lon="5.96003">
        <ele>1177.7</ele>
        <time>2021-08-19T11:54:11Z</time>
      </trkpt>
      <trkpt lat="46.38102" lon="5.96005">
        <ele>1177.6</ele>
        <time>2021-08-19T11:54:12Z</time>
      </trkpt>
      <trkpt lat="46.38095" lon="5.96022">
        <ele>1177.3</ele>
        <time>2021-08-19T11:54:14Z</time>
      </trkpt>
      <trkpt lat="46.3809" lon="5.96038">
        <ele>1176.9</ele>
        <time>2021-08-19T11:54:16Z</time>
      </trkpt>
      <trkpt lat="46.38089" lon="5.96046">
        <ele>1176.8</ele>
        <time>2021-08-19T11:54:17Z</time>
      </trkpt>
      <trkpt lat="46.38088" lon="5.96061">
        <ele>1176.5</ele>
        <time>2021-08-19T11:54:19Z</time>
      </trkpt>
      <trkpt lat="46.38088" lon="5.9607">
        <ele>1176.4</ele>
        <time>2021-08-19T11:54:20Z</time>
      </trkpt>
      <trkpt lat="46.38088" lon="5.96089">
        <ele>1176.2</ele>
        <time>2021-08-19T11:54:22Z</time>
      </trkpt>
      <trkpt lat="46.38088" lon="5.96097">
        <ele>1176.2</ele>
        <time>2021-08-19T11:54:23Z</time>
      </trkpt>
      <trkpt lat="46.38087" lon="5.96112">
        <ele>1176.2</ele>
        <time>2021-08-19T11:54:25Z</time>
      </trkpt>
      <trkpt lat="46.38086" lon="5.96125">
        <ele>1176.2</ele>
        <time>2021-08-19T11:54:27Z</time>
      </trkpt>
      <trkpt lat="46.38084" lon="5.96142">
        <ele>1176.2</ele>
        <time>2021-08-19T11:54:29Z</time>
      </trkpt>
      <trkpt lat="46.38081" lon="5.96155">
        <ele>1176.2</ele>
        <time>2021-08-19T11:54:31Z</time>
      </trkpt>
      <trkpt lat="46.38075" lon="5.96163">
        <ele>1176.2</ele>
        <time>2021-08-19T11:54:33Z</time>
      </trkpt>
      <trkpt lat="46.38071" lon="5.96168">
        <ele>1176.2</ele>
        <time>2021-08-19T11:54:34Z</time>
      </trkpt>
      <trkpt lat="46.38068" lon="5.96174">
        <ele>1176.3</ele>
        <time>2021-08-19T11:54:35Z</time>
      </trkpt>
      <trkpt lat="46.38066" lon="5.96184">
        <ele>1176.3</ele>
        <time>2021-08-19T11:54:36Z</time>
      </trkpt>
      <trkpt lat="46.38063" lon="5.96191">
        <ele>1176.3</ele>
        <time>2021-08-19T11:54:37Z</time>
      </trkpt>
      <trkpt lat="46.38059" lon="5.96204">
        <ele>1176.4</ele>
        <time>2021-08-19T11:54:39Z</time>
      </trkpt>
      <trkpt lat="46.38056" lon="5.9621">
        <ele>1176.5</ele>
        <time>2021-08-19T11:54:40Z</time>
      </trkpt>
      <trkpt lat="46.3805" lon="5.96221">
        <ele>1176.5</ele>
        <time>2021-08-19T11:54:42Z</time>
      </trkpt>
      <trkpt lat="46.38048" lon="5.96225">
        <ele>1176.4</ele>
        <time>2021-08-19T11:54:43Z</time>
      </trkpt>
      <trkpt lat="46.38043" lon="5.96233">
        <ele>1176.3</ele>
        <time>2021-08-19T11:54:45Z</time>
      </trkpt>
      <trkpt lat="46.38041" lon="5.96237">
        <ele>1176.3</ele>
        <time>2021-08-19T11:54:46Z</time>
      </trkpt>
      <trkpt lat="46.38039" lon="5.9624">
        <ele>1176.2</ele>
        <time>2021-08-19T11:54:47Z</time>
      </trkpt>
      <trkpt lat="46.38036" lon="5.96246">
        <ele>1176</ele>
        <time>2021-08-19T11:54:49Z</time>
      </trkpt>
      <trkpt lat="46.38034" lon="5.96253">
        <ele>1175.8</ele>
        <time>2021-08-19T11:54:50Z</time>
      </trkpt>
      <trkpt lat="46.38029" lon="5.96267">
        <ele>1175.4</ele>
        <time>2021-08-19T11:54:52Z</time>
      </trkpt>
      <trkpt lat="46.38026" lon="5.96275">
        <ele>1175.1</ele>
        <time>2021-08-19T11:54:53Z</time>
      </trkpt>
      <trkpt lat="46.38023" lon="5.96283">
        <ele>1174.8</ele>
        <time>2021-08-19T11:54:54Z</time>
      </trkpt>
      <trkpt lat="46.3802" lon="5.96292">
        <ele>1174.6</ele>
        <time>2021-08-19T11:54:55Z</time>
      </trkpt>
      <trkpt lat="46.38014" lon="5.9631">
        <ele>1174.2</ele>
        <time>2021-08-19T11:54:57Z</time>
      </trkpt>
      <trkpt lat="46.3801" lon="5.96319">
        <ele>1174.1</ele>
        <time>2021-08-19T11:54:58Z</time>
      </trkpt>
      <trkpt lat="46.38004" lon="5.96337">
        <ele>1174</ele>
        <time>2021-08-19T11:55:00Z</time>
      </trkpt>
      <trkpt lat="46.38001" lon="5.96345">
        <ele>1174</ele>
        <time>2021-08-19T11:55:01Z</time>
      </trkpt>
      <trkpt lat="46.37996" lon="5.9636">
        <ele>1174</ele>
        <time>2021-08-19T11:55:03Z</time>
      </trkpt>
      <trkpt lat="46.37994" lon="5.96368">
        <ele>1174</ele>
        <time>2021-08-19T11:55:04Z</time>
      </trkpt>
      <trkpt lat="46.37991" lon="5.96375">
        <ele>1174</ele>
        <time>2021-08-19T11:55:05Z</time>
      </trkpt>
      <trkpt lat="46.37989" lon="5.96382">
        <ele>1174</ele>
        <time>2021-08-19T11:55:06Z</time>
      </trkpt>
      <trkpt lat="46.37986" lon="5.9639">
        <ele>1174</ele>
        <time>2021-08-19T11:55:07Z</time>
      </trkpt>
      <trkpt lat="46.37979" lon="5.96405">
        <ele>1174.1</ele>
        <time>2021-08-19T11:55:09Z</time>
      </trkpt>
      <trkpt lat="46.37976" lon="5.96411">
        <ele>1174.2</ele>
        <time>2021-08-19T11:55:10Z</time>
      </trkpt>
      <trkpt lat="46.37971" lon="5.96423">
        <ele>1174.3</ele>
        <time>2021-08-19T11:55:12Z</time>
      </trkpt>
      <trkpt lat="46.37969" lon="5.96428">
        <ele>1174.3</ele>
        <time>2021-08-19T11:55:13Z</time>
      </trkpt>
      <trkpt lat="46.37967" lon="5.96437">
        <ele>1174.4</ele>
        <time>2021-08-19T11:55:15Z</time>
      </trkpt>
      <trkpt lat="46.37964" lon="5.96447">
        <ele>1174.5</ele>
        <time>2021-08-19T11:55:17Z</time>
      </trkpt>
      <trkpt lat="46.37958" lon="5.96461">
        <ele>1174.5</ele>
        <time>2021-08-19T11:55:19Z</time>
      </trkpt>
      <trkpt lat="46.37953" lon="5.96471">
        <ele>1174.6</ele>
        <time>2021-08-19T11:55:21Z</time>
      </trkpt>
      <trkpt lat="46.37949" lon="5.9648">
        <ele>1174.6</ele>
        <time>2021-08-19T11:55:23Z</time>
      </trkpt>
      <trkpt lat="46.37947" lon="5.96486">
        <ele>1174.6</ele>
        <time>2021-08-19T11:55:24Z</time>
      </trkpt>
      <trkpt lat="46.37943" lon="5.96493">
        <ele>1174.6</ele>
        <time>2021-08-19T11:55:25Z</time>
      </trkpt>
      <trkpt lat="46.37941" lon="5.96499">
        <ele>1174.7</ele>
        <time>2021-08-19T11:55:26Z</time>
      </trkpt>
      <trkpt lat="46.37937" lon="5.96511">
        <ele>1174.8</ele>
        <time>2021-08-19T11:55:28Z</time>
      </trkpt>
      <trkpt lat="46.37934" lon="5.96516">
        <ele>1174.8</ele>
        <time>2021-08-19T11:55:29Z</time>
      </trkpt>
      <trkpt lat="46.37933" lon="5.9652">
        <ele>1174.9</ele>
        <time>2021-08-19T11:55:30Z</time>
      </trkpt>
      <trkpt lat="46.37931" lon="5.96527">
        <ele>1174.9</ele>
        <time>2021-08-19T11:55:31Z</time>
      </trkpt>
      <trkpt lat="46.37929" lon="5.96531">
        <ele>1175</ele>
        <time>2021-08-19T11:55:32Z</time>
      </trkpt>
      <trkpt lat="46.37925" lon="5.96536">
        <ele>1175.1</ele>
        <time>2021-08-19T11:55:34Z</time>
      </trkpt>
      <trkpt lat="46.37923" lon="5.96543">
        <ele>1175.1</ele>
        <time>2021-08-19T11:55:35Z</time>
      </trkpt>
      <trkpt lat="46.3792" lon="5.96552">
        <ele>1175.2</ele>
        <time>2021-08-19T11:55:36Z</time>
      </trkpt>
      <trkpt lat="46.37918" lon="5.96558">
        <ele>1175.3</ele>
        <time>2021-08-19T11:55:37Z</time>
      </trkpt>
      <trkpt lat="46.37915" lon="5.96565">
        <ele>1175.3</ele>
        <time>2021-08-19T11:55:39Z</time>
      </trkpt>
      <trkpt lat="46.37911" lon="5.9657">
        <ele>1175.3</ele>
        <time>2021-08-19T11:55:40Z</time>
      </trkpt>
      <trkpt lat="46.37908" lon="5.96574">
        <ele>1175.3</ele>
        <time>2021-08-19T11:55:41Z</time>
      </trkpt>
      <trkpt lat="46.37903" lon="5.96579">
        <ele>1175.2</ele>
        <time>2021-08-19T11:55:43Z</time>
      </trkpt>
      <trkpt lat="46.37899" lon="5.96582">
        <ele>1175.2</ele>
        <time>2021-08-19T11:55:44Z</time>
      </trkpt>
      <trkpt lat="46.37895" lon="5.96585">
        <ele>1175.1</ele>
        <time>2021-08-19T11:55:45Z</time>
      </trkpt>
      <trkpt lat="46.37891" lon="5.96588">
        <ele>1175</ele>
        <time>2021-08-19T11:55:46Z</time>
      </trkpt>
      <trkpt lat="46.37887" lon="5.96592">
        <ele>1174.9</ele>
        <time>2021-08-19T11:55:47Z</time>
      </trkpt>
      <trkpt lat="46.37883" lon="5.96596">
        <ele>1174.8</ele>
        <time>2021-08-19T11:55:48Z</time>
      </trkpt>
      <trkpt lat="46.37879" lon="5.966">
        <ele>1174.8</ele>
        <time>2021-08-19T11:55:49Z</time>
      </trkpt>
      <trkpt lat="46.37868" lon="5.96607">
        <ele>1174.7</ele>
        <time>2021-08-19T11:55:51Z</time>
      </trkpt>
      <trkpt lat="46.37862" lon="5.9661">
        <ele>1174.7</ele>
        <time>2021-08-19T11:55:52Z</time>
      </trkpt>
      <trkpt lat="46.37857" lon="5.96615">
        <ele>1174.7</ele>
        <time>2021-08-19T11:55:53Z</time>
      </trkpt>
      <trkpt lat="46.37847" lon="5.96622">
        <ele>1174.7</ele>
        <time>2021-08-19T11:55:55Z</time>
      </trkpt>
      <trkpt lat="46.37838" lon="5.9663">
        <ele>1174.8</ele>
        <time>2021-08-19T11:55:57Z</time>
      </trkpt>
      <trkpt lat="46.37834" lon="5.96633">
        <ele>1174.9</ele>
        <time>2021-08-19T11:55:58Z</time>
      </trkpt>
      <trkpt lat="46.3783" lon="5.96637">
        <ele>1174.9</ele>
        <time>2021-08-19T11:55:59Z</time>
      </trkpt>
      <trkpt lat="46.37822" lon="5.96644">
        <ele>1175</ele>
        <time>2021-08-19T11:56:01Z</time>
      </trkpt>
      <trkpt lat="46.37814" lon="5.96649">
        <ele>1175.2</ele>
        <time>2021-08-19T11:56:03Z</time>
      </trkpt>
      <trkpt lat="46.37807" lon="5.96655">
        <ele>1175.4</ele>
        <time>2021-08-19T11:56:05Z</time>
      </trkpt>
      <trkpt lat="46.37802" lon="5.9666">
        <ele>1175.6</ele>
        <time>2021-08-19T11:56:07Z</time>
      </trkpt>
      <trkpt lat="46.37798" lon="5.96665">
        <ele>1175.8</ele>
        <time>2021-08-19T11:56:09Z</time>
      </trkpt>
      <trkpt lat="46.37794" lon="5.96668">
        <ele>1175.9</ele>
        <time>2021-08-19T11:56:10Z</time>
      </trkpt>
      <trkpt lat="46.37792" lon="5.9667">
        <ele>1176</ele>
        <time>2021-08-19T11:56:11Z</time>
      </trkpt>
      <trkpt lat="46.37789" lon="5.96673">
        <ele>1176.1</ele>
        <time>2021-08-19T11:56:12Z</time>
      </trkpt>
      <trkpt lat="46.37787" lon="5.96676">
        <ele>1176.1</ele>
        <time>2021-08-19T11:56:14Z</time>
      </trkpt>
      <trkpt lat="46.37784" lon="5.96679">
        <ele>1176.2</ele>
        <time>2021-08-19T11:56:15Z</time>
      </trkpt>
      <trkpt lat="46.37782" lon="5.96681">
        <ele>1176.3</ele>
        <time>2021-08-19T11:56:16Z</time>
      </trkpt>
      <trkpt lat="46.37777" lon="5.96687">
        <ele>1176.4</ele>
        <time>2021-08-19T11:56:18Z</time>
      </trkpt>
      <trkpt lat="46.37771" lon="5.96692">
        <ele>1176.5</ele>
        <time>2021-08-19T11:56:20Z</time>
      </trkpt>
      <trkpt lat="46.37767" lon="5.96694">
        <ele>1176.5</ele>
        <time>2021-08-19T11:56:21Z</time>
      </trkpt>
      <trkpt lat="46.3776" lon="5.96699">
        <ele>1176.7</ele>
        <time>2021-08-19T11:56:23Z</time>
      </trkpt>
      <trkpt lat="46.37753" lon="5.96702">
        <ele>1176.8</ele>
        <time>2021-08-19T11:56:24Z</time>
      </trkpt>
      <trkpt lat="46.37748" lon="5.96705">
        <ele>1176.9</ele>
        <time>2021-08-19T11:56:26Z</time>
      </trkpt>
      <trkpt lat="46.37744" lon="5.96708">
        <ele>1176.9</ele>
        <time>2021-08-19T11:56:27Z</time>
      </trkpt>
      <trkpt lat="46.37739" lon="5.96712">
        <ele>1177</ele>
        <time>2021-08-19T11:56:29Z</time>
      </trkpt>
      <trkpt lat="46.37735" lon="5.96716">
        <ele>1177.1</ele>
        <time>2021-08-19T11:56:30Z</time>
      </trkpt>
      <trkpt lat="46.37732" lon="5.96718">
        <ele>1177.2</ele>
        <time>2021-08-19T11:56:31Z</time>
      </trkpt>
      <trkpt lat="46.37729" lon="5.96721">
        <ele>1177.3</ele>
        <time>2021-08-19T11:56:32Z</time>
      </trkpt>
      <trkpt lat="46.37725" lon="5.96724">
        <ele>1177.4</ele>
        <time>2021-08-19T11:56:34Z</time>
      </trkpt>
      <trkpt lat="46.37722" lon="5.96727">
        <ele>1177.5</ele>
        <time>2021-08-19T11:56:35Z</time>
      </trkpt>
      <trkpt lat="46.37718" lon="5.96729">
        <ele>1177.6</ele>
        <time>2021-08-19T11:56:36Z</time>
      </trkpt>
      <trkpt lat="46.37714" lon="5.96732">
        <ele>1177.7</ele>
        <time>2021-08-19T11:56:38Z</time>
      </trkpt>
      <trkpt lat="46.37711" lon="5.96732">
        <ele>1177.8</ele>
        <time>2021-08-19T11:56:39Z</time>
      </trkpt>
      <trkpt lat="46.37707" lon="5.96733">
        <ele>1177.9</ele>
        <time>2021-08-19T11:56:40Z</time>
      </trkpt>
      <trkpt lat="46.37705" lon="5.96734">
        <ele>1177.9</ele>
        <time>2021-08-19T11:56:41Z</time>
      </trkpt>
      <trkpt lat="46.37703" lon="5.96735">
        <ele>1178</ele>
        <time>2021-08-19T11:56:42Z</time>
      </trkpt>
      <trkpt lat="46.37699" lon="5.96737">
        <ele>1178</ele>
        <time>2021-08-19T11:56:44Z</time>
      </trkpt>
      <trkpt lat="46.37696" lon="5.9674">
        <ele>1178.1</ele>
        <time>2021-08-19T11:56:45Z</time>
      </trkpt>
      <trkpt lat="46.37693" lon="5.96743">
        <ele>1178.1</ele>
        <time>2021-08-19T11:56:46Z</time>
      </trkpt>
      <trkpt lat="46.37687" lon="5.9675">
        <ele>1178.1</ele>
        <time>2021-08-19T11:56:48Z</time>
      </trkpt>
      <trkpt lat="46.37687" lon="5.96754">
        <ele>1178.1</ele>
        <time>2021-08-19T11:56:49Z</time>
      </trkpt>
      <trkpt lat="46.37688" lon="5.9676">
        <ele>1178.1</ele>
        <time>2021-08-19T11:56:51Z</time>
      </trkpt>
      <trkpt lat="46.37688" lon="5.96765">
        <ele>1178</ele>
        <time>2021-08-19T11:56:52Z</time>
      </trkpt>
      <trkpt lat="46.37688" lon="5.96767">
        <ele>1178</ele>
        <time>2021-08-19T11:56:53Z</time>
      </trkpt>
      <trkpt lat="46.37691" lon="5.96769">
        <ele>1178</ele>
        <time>2021-08-19T11:56:55Z</time>
      </trkpt>
      <trkpt lat="46.37695" lon="5.96768">
        <ele>1178</ele>
        <time>2021-08-19T11:56:57Z</time>
      </trkpt>
      <trkpt lat="46.37698" lon="5.96767">
        <ele>1178</ele>
        <time>2021-08-19T11:56:58Z</time>
      </trkpt>
      <trkpt lat="46.37701" lon="5.96767">
        <ele>1178</ele>
        <time>2021-08-19T11:56:59Z</time>
      </trkpt>
      <trkpt lat="46.37704" lon="5.96767">
        <ele>1177.9</ele>
        <time>2021-08-19T11:57:01Z</time>
      </trkpt>
      <trkpt lat="46.37706" lon="5.96769">
        <ele>1177.9</ele>
        <time>2021-08-19T11:57:03Z</time>
      </trkpt>
      <trkpt lat="46.37706" lon="5.9677">
        <ele>1177.9</ele>
        <time>2021-08-19T11:57:04Z</time>
      </trkpt>
      <trkpt lat="46.37706" lon="5.96772">
        <ele>1177.9</ele>
        <time>2021-08-19T11:57:05Z</time>
      </trkpt>
      <trkpt lat="46.37706" lon="5.96773">
        <ele>1177.9</ele>
        <time>2021-08-19T11:57:07Z</time>
      </trkpt>
      <trkpt lat="46.37705" lon="5.96774">
        <ele>1177.9</ele>
        <time>2021-08-19T11:57:09Z</time>
      </trkpt>
      <trkpt lat="46.37705" lon="5.96774">
        <ele>1177.9</ele>
        <time>2021-08-19T11:57:10Z</time>
      </trkpt>
      <trkpt lat="46.37705" lon="5.96774">
        <ele>1177.9</ele>
        <time>2021-08-19T11:57:11Z</time>
      </trkpt>
      <trkpt lat="46.377" lon="5.96772">
        <ele>1177.8</ele>
        <time>2021-08-19T11:57:20Z</time>
      </trkpt>
      <trkpt lat="46.37693" lon="5.96777">
        <ele>1177.8</ele>
        <time>2021-08-19T11:57:22Z</time>
      </trkpt>
      <trkpt lat="46.37688" lon="5.96779">
        <ele>1177.7</ele>
        <time>2021-08-19T11:57:23Z</time>
      </trkpt>
      <trkpt lat="46.37679" lon="5.96785">
        <ele>1177.6</ele>
        <time>2021-08-19T11:57:25Z</time>
      </trkpt>
      <trkpt lat="46.37667" lon="5.96792">
        <ele>1177.5</ele>
        <time>2021-08-19T11:57:26Z</time>
      </trkpt>
      <trkpt lat="46.3766" lon="5.96801">
        <ele>1177.4</ele>
        <time>2021-08-19T11:57:28Z</time>
      </trkpt>
      <trkpt lat="46.3765" lon="5.96812">
        <ele>1177.3</ele>
        <time>2021-08-19T11:57:30Z</time>
      </trkpt>
      <trkpt lat="46.37645" lon="5.96817">
        <ele>1177.2</ele>
        <time>2021-08-19T11:57:31Z</time>
      </trkpt>
      <trkpt lat="46.37638" lon="5.96827">
        <ele>1177</ele>
        <time>2021-08-19T11:57:33Z</time>
      </trkpt>
      <trkpt lat="46.37635" lon="5.96832">
        <ele>1177</ele>
        <time>2021-08-19T11:57:34Z</time>
      </trkpt>
      <trkpt lat="46.37632" lon="5.96839">
        <ele>1176.9</ele>
        <time>2021-08-19T11:57:35Z</time>
      </trkpt>
      <trkpt lat="46.37625" lon="5.96851">
        <ele>1176.7</ele>
        <time>2021-08-19T11:57:37Z</time>
      </trkpt>
      <trkpt lat="46.37619" lon="5.96864">
        <ele>1176.5</ele>
        <time>2021-08-19T11:57:39Z</time>
      </trkpt>
      <trkpt lat="46.37616" lon="5.9687">
        <ele>1176.5</ele>
        <time>2021-08-19T11:57:40Z</time>
      </trkpt>
      <trkpt lat="46.37612" lon="5.96876">
        <ele>1176.5</ele>
        <time>2021-08-19T11:57:41Z</time>
      </trkpt>
      <trkpt lat="46.37606" lon="5.96887">
        <ele>1176.4</ele>
        <time>2021-08-19T11:57:43Z</time>
      </trkpt>
      <trkpt lat="46.376" lon="5.96898">
        <ele>1176.4</ele>
        <time>2021-08-19T11:57:45Z</time>
      </trkpt>
      <trkpt lat="46.37596" lon="5.96909">
        <ele>1176.3</ele>
        <time>2021-08-19T11:57:47Z</time>
      </trkpt>
      <trkpt lat="46.37594" lon="5.96914">
        <ele>1176.2</ele>
        <time>2021-08-19T11:57:48Z</time>
      </trkpt>
      <trkpt lat="46.3759" lon="5.96921">
        <ele>1176.1</ele>
        <time>2021-08-19T11:57:49Z</time>
      </trkpt>
      <trkpt lat="46.37587" lon="5.96928">
        <ele>1176</ele>
        <time>2021-08-19T11:57:51Z</time>
      </trkpt>
      <trkpt lat="46.37584" lon="5.96934">
        <ele>1176</ele>
        <time>2021-08-19T11:57:52Z</time>
      </trkpt>
      <trkpt lat="46.37583" lon="5.96936">
        <ele>1175.9</ele>
        <time>2021-08-19T11:57:53Z</time>
      </trkpt>
      <trkpt lat="46.37583" lon="5.9694">
        <ele>1175.9</ele>
        <time>2021-08-19T11:57:55Z</time>
      </trkpt>
      <trkpt lat="46.37584" lon="5.96942">
        <ele>1175.9</ele>
        <time>2021-08-19T11:57:56Z</time>
      </trkpt>
      <trkpt lat="46.37586" lon="5.96945">
        <ele>1175.9</ele>
        <time>2021-08-19T11:57:57Z</time>
      </trkpt>
      <trkpt lat="46.37588" lon="5.96947">
        <ele>1175.8</ele>
        <time>2021-08-19T11:57:59Z</time>
      </trkpt>
      <trkpt lat="46.37588" lon="5.96945">
        <ele>1175.8</ele>
        <time>2021-08-19T11:58:00Z</time>
      </trkpt>
      <trkpt lat="46.37588" lon="5.96944">
        <ele>1175.8</ele>
        <time>2021-08-19T11:58:02Z</time>
      </trkpt>
      <trkpt lat="46.37588" lon="5.96942">
        <ele>1175.8</ele>
        <time>2021-08-19T11:58:03Z</time>
      </trkpt>
      <trkpt lat="46.37588" lon="5.96943">
        <ele>1175.8</ele>
        <time>2021-08-19T11:58:05Z</time>
      </trkpt>
      <trkpt lat="46.37589" lon="5.96946">
        <ele>1175.8</ele>
        <time>2021-08-19T11:58:06Z</time>
      </trkpt>
      <trkpt lat="46.3759" lon="5.96948">
        <ele>1175.8</ele>
        <time>2021-08-19T11:58:07Z</time>
      </trkpt>
      <trkpt lat="46.37591" lon="5.9695">
        <ele>1175.7</ele>
        <time>2021-08-19T11:58:09Z</time>
      </trkpt>
      <trkpt lat="46.37592" lon="5.96952">
        <ele>1175.7</ele>
        <time>2021-08-19T11:58:42Z</time>
      </trkpt>
      <trkpt lat="46.37593" lon="5.96955">
        <ele>1175.7</ele>
        <time>2021-08-19T11:58:43Z</time>
      </trkpt>
      <trkpt lat="46.37587" lon="5.9697">
        <ele>1175.5</ele>
        <time>2021-08-19T11:58:44Z</time>
      </trkpt>
      <trkpt lat="46.37578" lon="5.9699">
        <ele>1175.2</ele>
        <time>2021-08-19T11:58:46Z</time>
      </trkpt>
      <trkpt lat="46.37574" lon="5.97">
        <ele>1175.1</ele>
        <time>2021-08-19T11:58:47Z</time>
      </trkpt>
      <trkpt lat="46.37568" lon="5.97019">
        <ele>1174.8</ele>
        <time>2021-08-19T11:58:48Z</time>
      </trkpt>
      <trkpt lat="46.37565" lon="5.97029">
        <ele>1174.7</ele>
        <time>2021-08-19T11:58:49Z</time>
      </trkpt>
      <trkpt lat="46.3756" lon="5.97045">
        <ele>1174.4</ele>
        <time>2021-08-19T11:58:51Z</time>
      </trkpt>
      <trkpt lat="46.37557" lon="5.97063">
        <ele>1174.1</ele>
        <time>2021-08-19T11:58:53Z</time>
      </trkpt>
      <trkpt lat="46.37555" lon="5.97081">
        <ele>1173.9</ele>
        <time>2021-08-19T11:58:55Z</time>
      </trkpt>
      <trkpt lat="46.37551" lon="5.97098">
        <ele>1173.6</ele>
        <time>2021-08-19T11:58:57Z</time>
      </trkpt>
      <trkpt lat="46.37549" lon="5.97107">
        <ele>1173.5</ele>
        <time>2021-08-19T11:58:58Z</time>
      </trkpt>
      <trkpt lat="46.37547" lon="5.97115">
        <ele>1173.5</ele>
        <time>2021-08-19T11:58:59Z</time>
      </trkpt>
      <trkpt lat="46.37543" lon="5.9713">
        <ele>1173.4</ele>
        <time>2021-08-19T11:59:01Z</time>
      </trkpt>
      <trkpt lat="46.37539" lon="5.97144">
        <ele>1173.3</ele>
        <time>2021-08-19T11:59:03Z</time>
      </trkpt>
      <trkpt lat="46.37538" lon="5.97151">
        <ele>1173.2</ele>
        <time>2021-08-19T11:59:04Z</time>
      </trkpt>
      <trkpt lat="46.37534" lon="5.97164">
        <ele>1173.1</ele>
        <time>2021-08-19T11:59:06Z</time>
      </trkpt>
      <trkpt lat="46.37532" lon="5.9717">
        <ele>1173.1</ele>
        <time>2021-08-19T11:59:07Z</time>
      </trkpt>
      <trkpt lat="46.37528" lon="5.97181">
        <ele>1173</ele>
        <time>2021-08-19T11:59:09Z</time>
      </trkpt>
      <trkpt lat="46.37524" lon="5.97194">
        <ele>1172.9</ele>
        <time>2021-08-19T11:59:11Z</time>
      </trkpt>
      <trkpt lat="46.37522" lon="5.972">
        <ele>1172.8</ele>
        <time>2021-08-19T11:59:12Z</time>
      </trkpt>
      <trkpt lat="46.37519" lon="5.97206">
        <ele>1172.8</ele>
        <time>2021-08-19T11:59:13Z</time>
      </trkpt>
      <trkpt lat="46.37512" lon="5.97219">
        <ele>1172.7</ele>
        <time>2021-08-19T11:59:15Z</time>
      </trkpt>
      <trkpt lat="46.37509" lon="5.97225">
        <ele>1172.7</ele>
        <time>2021-08-19T11:59:16Z</time>
      </trkpt>
      <trkpt lat="46.37505" lon="5.97231">
        <ele>1172.6</ele>
        <time>2021-08-19T11:59:17Z</time>
      </trkpt>
      <trkpt lat="46.37497" lon="5.97244">
        <ele>1172.5</ele>
        <time>2021-08-19T11:59:19Z</time>
      </trkpt>
      <trkpt lat="46.3749" lon="5.97258">
        <ele>1172.4</ele>
        <time>2021-08-19T11:59:21Z</time>
      </trkpt>
      <trkpt lat="46.37486" lon="5.97265">
        <ele>1172.4</ele>
        <time>2021-08-19T11:59:22Z</time>
      </trkpt>
      <trkpt lat="46.37482" lon="5.97272">
        <ele>1172.4</ele>
        <time>2021-08-19T11:59:23Z</time>
      </trkpt>
      <trkpt lat="46.37477" lon="5.97286">
        <ele>1172.4</ele>
        <time>2021-08-19T11:59:25Z</time>
      </trkpt>
      <trkpt lat="46.37473" lon="5.973">
        <ele>1172.5</ele>
        <time>2021-08-19T11:59:27Z</time>
      </trkpt>
      <trkpt lat="46.37471" lon="5.97307">
        <ele>1172.5</ele>
        <time>2021-08-19T11:59:28Z</time>
      </trkpt>
      <trkpt lat="46.37469" lon="5.97313">
        <ele>1172.5</ele>
        <time>2021-08-19T11:59:29Z</time>
      </trkpt>
      <trkpt lat="46.37469" lon="5.9732">
        <ele>1172.6</ele>
        <time>2021-08-19T11:59:30Z</time>
      </trkpt>
      <trkpt lat="46.37468" lon="5.97327">
        <ele>1172.7</ele>
        <time>2021-08-19T11:59:31Z</time>
      </trkpt>
      <trkpt lat="46.37466" lon="5.97341">
        <ele>1172.8</ele>
        <time>2021-08-19T11:59:33Z</time>
      </trkpt>
      <trkpt lat="46.37465" lon="5.9735">
        <ele>1172.9</ele>
        <time>2021-08-19T11:59:35Z</time>
      </trkpt>
      <trkpt lat="46.37464" lon="5.97356">
        <ele>1172.9</ele>
        <time>2021-08-19T11:59:36Z</time>
      </trkpt>
      <trkpt lat="46.37463" lon="5.97367">
        <ele>1172.9</ele>
        <time>2021-08-19T11:59:38Z</time>
      </trkpt>
      <trkpt lat="46.37462" lon="5.97375">
        <ele>1173</ele>
        <time>2021-08-19T11:59:40Z</time>
      </trkpt>
      <trkpt lat="46.37461" lon="5.9738">
        <ele>1173</ele>
        <time>2021-08-19T11:59:41Z</time>
      </trkpt>
      <trkpt lat="46.3746" lon="5.97386">
        <ele>1173</ele>
        <time>2021-08-19T11:59:42Z</time>
      </trkpt>
      <trkpt lat="46.37459" lon="5.97392">
        <ele>1173</ele>
        <time>2021-08-19T11:59:43Z</time>
      </trkpt>
      <trkpt lat="46.37458" lon="5.97399">
        <ele>1173</ele>
        <time>2021-08-19T11:59:45Z</time>
      </trkpt>
      <trkpt lat="46.37458" lon="5.97405">
        <ele>1173</ele>
        <time>2021-08-19T11:59:46Z</time>
      </trkpt>
      <trkpt lat="46.37458" lon="5.97412">
        <ele>1173</ele>
        <time>2021-08-19T11:59:47Z</time>
      </trkpt>
      <trkpt lat="46.37458" lon="5.97419">
        <ele>1172.9</ele>
        <time>2021-08-19T11:59:48Z</time>
      </trkpt>
      <trkpt lat="46.37458" lon="5.97425">
        <ele>1172.9</ele>
        <time>2021-08-19T11:59:49Z</time>
      </trkpt>
      <trkpt lat="46.37456" lon="5.97437">
        <ele>1172.8</ele>
        <time>2021-08-19T11:59:51Z</time>
      </trkpt>
      <trkpt lat="46.37455" lon="5.97443">
        <ele>1172.8</ele>
        <time>2021-08-19T11:59:52Z</time>
      </trkpt>
      <trkpt lat="46.37455" lon="5.97453">
        <ele>1172.7</ele>
        <time>2021-08-19T11:59:53Z</time>
      </trkpt>
      <trkpt lat="46.37455" lon="5.97467">
        <ele>1172.7</ele>
        <time>2021-08-19T11:59:55Z</time>
      </trkpt>
      <trkpt lat="46.37455" lon="5.97477">
        <ele>1172.6</ele>
        <time>2021-08-19T11:59:57Z</time>
      </trkpt>
      <trkpt lat="46.37454" lon="5.97486">
        <ele>1172.6</ele>
        <time>2021-08-19T11:59:58Z</time>
      </trkpt>
      <trkpt lat="46.37455" lon="5.97493">
        <ele>1172.6</ele>
        <time>2021-08-19T11:59:59Z</time>
      </trkpt>
      <trkpt lat="46.37453" lon="5.97498">
        <ele>1172.6</ele>
        <time>2021-08-19T12:00:00Z</time>
      </trkpt>
      <trkpt lat="46.37452" lon="5.97503">
        <ele>1172.6</ele>
        <time>2021-08-19T12:00:01Z</time>
      </trkpt>
      <trkpt lat="46.37451" lon="5.9751">
        <ele>1172.5</ele>
        <time>2021-08-19T12:00:02Z</time>
      </trkpt>
      <trkpt lat="46.37449" lon="5.97519">
        <ele>1172.5</ele>
        <time>2021-08-19T12:00:04Z</time>
      </trkpt>
      <trkpt lat="46.37448" lon="5.97527">
        <ele>1172.4</ele>
        <time>2021-08-19T12:00:06Z</time>
      </trkpt>
      <trkpt lat="46.37446" lon="5.97532">
        <ele>1172.4</ele>
        <time>2021-08-19T12:00:07Z</time>
      </trkpt>
      <trkpt lat="46.37445" lon="5.97537">
        <ele>1172.4</ele>
        <time>2021-08-19T12:00:08Z</time>
      </trkpt>
      <trkpt lat="46.37444" lon="5.97541">
        <ele>1172.3</ele>
        <time>2021-08-19T12:00:09Z</time>
      </trkpt>
      <trkpt lat="46.37444" lon="5.97546">
        <ele>1172.3</ele>
        <time>2021-08-19T12:00:10Z</time>
      </trkpt>
      <trkpt lat="46.37444" lon="5.97547">
        <ele>1172.3</ele>
        <time>2021-08-19T12:00:11Z</time>
      </trkpt>
      <trkpt lat="46.37442" lon="5.97549">
        <ele>1172.3</ele>
        <time>2021-08-19T12:00:13Z</time>
      </trkpt>
      <trkpt lat="46.37442" lon="5.9755">
        <ele>1172.3</ele>
        <time>2021-08-19T12:00:15Z</time>
      </trkpt>
      <trkpt lat="46.37442" lon="5.9755">
        <ele>1172.3</ele>
        <time>2021-08-19T12:00:16Z</time>
      </trkpt>
      <trkpt lat="46.37441" lon="5.97551">
        <ele>1172.3</ele>
        <time>2021-08-19T12:00:18Z</time>
      </trkpt>
      <trkpt lat="46.37441" lon="5.97551">
        <ele>1172.3</ele>
        <time>2021-08-19T12:00:19Z</time>
      </trkpt>
      <trkpt lat="46.3744" lon="5.97553">
        <ele>1172.2</ele>
        <time>2021-08-19T12:00:20Z</time>
      </trkpt>
      <trkpt lat="46.37437" lon="5.97558">
        <ele>1172.2</ele>
        <time>2021-08-19T12:00:22Z</time>
      </trkpt>
      <trkpt lat="46.37435" lon="5.97561">
        <ele>1172</ele>
        <time>2021-08-19T12:00:23Z</time>
      </trkpt>
      <trkpt lat="46.37433" lon="5.97566">
        <ele>1171.8</ele>
        <time>2021-08-19T12:00:25Z</time>
      </trkpt>
      <trkpt lat="46.37432" lon="5.97571">
        <ele>1171.6</ele>
        <time>2021-08-19T12:00:27Z</time>
      </trkpt>
      <trkpt lat="46.3743" lon="5.97572">
        <ele>1171.5</ele>
        <time>2021-08-19T12:00:28Z</time>
      </trkpt>
      <trkpt lat="46.37428" lon="5.97572">
        <ele>1171.4</ele>
        <time>2021-08-19T12:00:30Z</time>
      </trkpt>
      <trkpt lat="46.37425" lon="5.9757">
        <ele>1171.3</ele>
        <time>2021-08-19T12:00:31Z</time>
      </trkpt>
      <trkpt lat="46.37424" lon="5.97568">
        <ele>1171.2</ele>
        <time>2021-08-19T12:00:32Z</time>
      </trkpt>
      <trkpt lat="46.3742" lon="5.97567">
        <ele>1171</ele>
        <time>2021-08-19T12:00:34Z</time>
      </trkpt>
      <trkpt lat="46.37416" lon="5.97565">
        <ele>1170.8</ele>
        <time>2021-08-19T12:00:35Z</time>
      </trkpt>
      <trkpt lat="46.3741" lon="5.97558">
        <ele>1170.5</ele>
        <time>2021-08-19T12:00:37Z</time>
      </trkpt>
      <trkpt lat="46.37401" lon="5.97545">
        <ele>1170.1</ele>
        <time>2021-08-19T12:00:39Z</time>
      </trkpt>
      <trkpt lat="46.37397" lon="5.9754">
        <ele>1170</ele>
        <time>2021-08-19T12:00:40Z</time>
      </trkpt>
      <trkpt lat="46.3739" lon="5.97528">
        <ele>1169.8</ele>
        <time>2021-08-19T12:00:42Z</time>
      </trkpt>
      <trkpt lat="46.37386" lon="5.97522">
        <ele>1169.7</ele>
        <time>2021-08-19T12:00:43Z</time>
      </trkpt>
      <trkpt lat="46.37382" lon="5.97516">
        <ele>1169.6</ele>
        <time>2021-08-19T12:00:44Z</time>
      </trkpt>
      <trkpt lat="46.37378" lon="5.9751">
        <ele>1169.5</ele>
        <time>2021-08-19T12:00:45Z</time>
      </trkpt>
      <trkpt lat="46.37374" lon="5.97504">
        <ele>1169.4</ele>
        <time>2021-08-19T12:00:46Z</time>
      </trkpt>
      <trkpt lat="46.3737" lon="5.97498">
        <ele>1169.4</ele>
        <time>2021-08-19T12:00:47Z</time>
      </trkpt>
      <trkpt lat="46.37362" lon="5.97484">
        <ele>1169.2</ele>
        <time>2021-08-19T12:00:49Z</time>
      </trkpt>
      <trkpt lat="46.37359" lon="5.97476">
        <ele>1169.2</ele>
        <time>2021-08-19T12:00:50Z</time>
      </trkpt>
      <trkpt lat="46.37356" lon="5.97469">
        <ele>1169.1</ele>
        <time>2021-08-19T12:00:51Z</time>
      </trkpt>
      <trkpt lat="46.37352" lon="5.97461">
        <ele>1169</ele>
        <time>2021-08-19T12:00:52Z</time>
      </trkpt>
      <trkpt lat="46.3735" lon="5.97454">
        <ele>1169</ele>
        <time>2021-08-19T12:00:53Z</time>
      </trkpt>
      <trkpt lat="46.37345" lon="5.97436">
        <ele>1168.8</ele>
        <time>2021-08-19T12:00:55Z</time>
      </trkpt>
      <trkpt lat="46.37341" lon="5.97416">
        <ele>1168.6</ele>
        <time>2021-08-19T12:00:57Z</time>
      </trkpt>
      <trkpt lat="46.37337" lon="5.97398">
        <ele>1168.5</ele>
        <time>2021-08-19T12:00:59Z</time>
      </trkpt>
      <trkpt lat="46.37334" lon="5.9738">
        <ele>1168.4</ele>
        <time>2021-08-19T12:01:01Z</time>
      </trkpt>
      <trkpt lat="46.37331" lon="5.97362">
        <ele>1168.4</ele>
        <time>2021-08-19T12:01:03Z</time>
      </trkpt>
      <trkpt lat="46.37329" lon="5.97352">
        <ele>1168.4</ele>
        <time>2021-08-19T12:01:04Z</time>
      </trkpt>
      <trkpt lat="46.37323" lon="5.97335">
        <ele>1168.4</ele>
        <time>2021-08-19T12:01:06Z</time>
      </trkpt>
      <trkpt lat="46.37321" lon="5.97328">
        <ele>1168.4</ele>
        <time>2021-08-19T12:01:07Z</time>
      </trkpt>
      <trkpt lat="46.37314" lon="5.97314">
        <ele>1168.3</ele>
        <time>2021-08-19T12:01:09Z</time>
      </trkpt>
      <trkpt lat="46.37311" lon="5.97308">
        <ele>1168.4</ele>
        <time>2021-08-19T12:01:10Z</time>
      </trkpt>
      <trkpt lat="46.37307" lon="5.97302">
        <ele>1168.4</ele>
        <time>2021-08-19T12:01:11Z</time>
      </trkpt>
      <trkpt lat="46.37299" lon="5.97291">
        <ele>1168.6</ele>
        <time>2021-08-19T12:01:13Z</time>
      </trkpt>
      <trkpt lat="46.37291" lon="5.97283">
        <ele>1168.7</ele>
        <time>2021-08-19T12:01:15Z</time>
      </trkpt>
      <trkpt lat="46.37282" lon="5.97276">
        <ele>1168.9</ele>
        <time>2021-08-19T12:01:17Z</time>
      </trkpt>
      <trkpt lat="46.37275" lon="5.97269">
        <ele>1169.1</ele>
        <time>2021-08-19T12:01:19Z</time>
      </trkpt>
      <trkpt lat="46.37272" lon="5.97264">
        <ele>1169.2</ele>
        <time>2021-08-19T12:01:20Z</time>
      </trkpt>
      <trkpt lat="46.3727" lon="5.97262">
        <ele>1169.2</ele>
        <time>2021-08-19T12:01:21Z</time>
      </trkpt>
      <trkpt lat="46.37264" lon="5.97254">
        <ele>1169.4</ele>
        <time>2021-08-19T12:01:23Z</time>
      </trkpt>
      <trkpt lat="46.37257" lon="5.97246">
        <ele>1169.5</ele>
        <time>2021-08-19T12:01:25Z</time>
      </trkpt>
      <trkpt lat="46.37249" lon="5.97238">
        <ele>1169.7</ele>
        <time>2021-08-19T12:01:27Z</time>
      </trkpt>
      <trkpt lat="46.37244" lon="5.97233">
        <ele>1169.9</ele>
        <time>2021-08-19T12:01:29Z</time>
      </trkpt>
      <trkpt lat="46.37239" lon="5.97226">
        <ele>1170</ele>
        <time>2021-08-19T12:01:31Z</time>
      </trkpt>
      <trkpt lat="46.37236" lon="5.97222">
        <ele>1170.1</ele>
        <time>2021-08-19T12:01:32Z</time>
      </trkpt>
      <trkpt lat="46.37232" lon="5.97217">
        <ele>1170.2</ele>
        <time>2021-08-19T12:01:33Z</time>
      </trkpt>
      <trkpt lat="46.37226" lon="5.9721">
        <ele>1170.4</ele>
        <time>2021-08-19T12:01:35Z</time>
      </trkpt>
      <trkpt lat="46.37221" lon="5.97204">
        <ele>1170.5</ele>
        <time>2021-08-19T12:01:37Z</time>
      </trkpt>
      <trkpt lat="46.37219" lon="5.972">
        <ele>1170.6</ele>
        <time>2021-08-19T12:01:38Z</time>
      </trkpt>
      <trkpt lat="46.37216" lon="5.97195">
        <ele>1170.6</ele>
        <time>2021-08-19T12:01:39Z</time>
      </trkpt>
      <trkpt lat="46.37214" lon="5.97191">
        <ele>1170.7</ele>
        <time>2021-08-19T12:01:40Z</time>
      </trkpt>
      <trkpt lat="46.37212" lon="5.97186">
        <ele>1170.7</ele>
        <time>2021-08-19T12:01:42Z</time>
      </trkpt>
      <trkpt lat="46.37209" lon="5.97182">
        <ele>1170.8</ele>
        <time>2021-08-19T12:01:43Z</time>
      </trkpt>
      <trkpt lat="46.37206" lon="5.97177">
        <ele>1170.8</ele>
        <time>2021-08-19T12:01:44Z</time>
      </trkpt>
      <trkpt lat="46.37203" lon="5.97172">
        <ele>1170.8</ele>
        <time>2021-08-19T12:01:45Z</time>
      </trkpt>
      <trkpt lat="46.37199" lon="5.97167">
        <ele>1170.8</ele>
        <time>2021-08-19T12:01:47Z</time>
      </trkpt>
      <trkpt lat="46.37195" lon="5.97163">
        <ele>1170.8</ele>
        <time>2021-08-19T12:01:48Z</time>
      </trkpt>
      <trkpt lat="46.37192" lon="5.97159">
        <ele>1170.8</ele>
        <time>2021-08-19T12:01:49Z</time>
      </trkpt>
      <trkpt lat="46.37188" lon="5.97155">
        <ele>1170.8</ele>
        <time>2021-08-19T12:01:50Z</time>
      </trkpt>
      <trkpt lat="46.37182" lon="5.97148">
        <ele>1170.8</ele>
        <time>2021-08-19T12:01:52Z</time>
      </trkpt>
      <trkpt lat="46.37178" lon="5.97144">
        <ele>1170.8</ele>
        <time>2021-08-19T12:01:53Z</time>
      </trkpt>
      <trkpt lat="46.3717" lon="5.97136">
        <ele>1170.9</ele>
        <time>2021-08-19T12:01:55Z</time>
      </trkpt>
      <trkpt lat="46.37162" lon="5.97127">
        <ele>1170.9</ele>
        <time>2021-08-19T12:01:57Z</time>
      </trkpt>
      <trkpt lat="46.37158" lon="5.97129">
        <ele>1170.9</ele>
        <time>2021-08-19T12:01:58Z</time>
      </trkpt>
      <trkpt lat="46.37155" lon="5.97127">
        <ele>1171</ele>
        <time>2021-08-19T12:01:59Z</time>
      </trkpt>
      <trkpt lat="46.37152" lon="5.97122">
        <ele>1171</ele>
        <time>2021-08-19T12:02:00Z</time>
      </trkpt>
      <trkpt lat="46.37146" lon="5.97114">
        <ele>1171.1</ele>
        <time>2021-08-19T12:02:02Z</time>
      </trkpt>
      <trkpt lat="46.37143" lon="5.97108">
        <ele>1171.1</ele>
        <time>2021-08-19T12:02:03Z</time>
      </trkpt>
      <trkpt lat="46.37139" lon="5.97101">
        <ele>1171.2</ele>
        <time>2021-08-19T12:02:05Z</time>
      </trkpt>
      <trkpt lat="46.37136" lon="5.97096">
        <ele>1171.3</ele>
        <time>2021-08-19T12:02:06Z</time>
      </trkpt>
      <trkpt lat="46.37132" lon="5.97091">
        <ele>1171.4</ele>
        <time>2021-08-19T12:02:07Z</time>
      </trkpt>
      <trkpt lat="46.37129" lon="5.97086">
        <ele>1171.4</ele>
        <time>2021-08-19T12:02:08Z</time>
      </trkpt>
      <trkpt lat="46.37125" lon="5.9708">
        <ele>1171.5</ele>
        <time>2021-08-19T12:02:09Z</time>
      </trkpt>
      <trkpt lat="46.37123" lon="5.97075">
        <ele>1171.6</ele>
        <time>2021-08-19T12:02:10Z</time>
      </trkpt>
      <trkpt lat="46.37119" lon="5.97069">
        <ele>1171.7</ele>
        <time>2021-08-19T12:02:12Z</time>
      </trkpt>
      <trkpt lat="46.37115" lon="5.97063">
        <ele>1171.7</ele>
        <time>2021-08-19T12:02:14Z</time>
      </trkpt>
      <trkpt lat="46.37112" lon="5.97058">
        <ele>1171.8</ele>
        <time>2021-08-19T12:02:15Z</time>
      </trkpt>
      <trkpt lat="46.3711" lon="5.97056">
        <ele>1171.8</ele>
        <time>2021-08-19T12:02:16Z</time>
      </trkpt>
      <trkpt lat="46.37107" lon="5.97051">
        <ele>1171.8</ele>
        <time>2021-08-19T12:02:18Z</time>
      </trkpt>
      <trkpt lat="46.37104" lon="5.97049">
        <ele>1171.8</ele>
        <time>2021-08-19T12:02:19Z</time>
      </trkpt>
      <trkpt lat="46.37099" lon="5.97043">
        <ele>1171.9</ele>
        <time>2021-08-19T12:02:21Z</time>
      </trkpt>
      <trkpt lat="46.37097" lon="5.97039">
        <ele>1171.9</ele>
        <time>2021-08-19T12:02:22Z</time>
      </trkpt>
      <trkpt lat="46.37093" lon="5.97033">
        <ele>1171.9</ele>
        <time>2021-08-19T12:02:24Z</time>
      </trkpt>
      <trkpt lat="46.37091" lon="5.97029">
        <ele>1171.9</ele>
        <time>2021-08-19T12:02:25Z</time>
      </trkpt>
      <trkpt lat="46.37088" lon="5.97026">
        <ele>1171.9</ele>
        <time>2021-08-19T12:02:26Z</time>
      </trkpt>
      <trkpt lat="46.37083" lon="5.9702">
        <ele>1171.8</ele>
        <time>2021-08-19T12:02:28Z</time>
      </trkpt>
      <trkpt lat="46.3708" lon="5.97015">
        <ele>1171.8</ele>
        <time>2021-08-19T12:02:29Z</time>
      </trkpt>
      <trkpt lat="46.37078" lon="5.9701">
        <ele>1171.7</ele>
        <time>2021-08-19T12:02:30Z</time>
      </trkpt>
      <trkpt lat="46.37076" lon="5.97006">
        <ele>1171.7</ele>
        <time>2021-08-19T12:02:31Z</time>
      </trkpt>
      <trkpt lat="46.37074" lon="5.97001">
        <ele>1171.7</ele>
        <time>2021-08-19T12:02:33Z</time>
      </trkpt>
      <trkpt lat="46.37072" lon="5.96995">
        <ele>1171.6</ele>
        <time>2021-08-19T12:02:34Z</time>
      </trkpt>
      <trkpt lat="46.3707" lon="5.96991">
        <ele>1171.6</ele>
        <time>2021-08-19T12:02:35Z</time>
      </trkpt>
      <trkpt lat="46.37066" lon="5.96983">
        <ele>1171.5</ele>
        <time>2021-08-19T12:02:36Z</time>
      </trkpt>
      <trkpt lat="46.37063" lon="5.96976">
        <ele>1171.5</ele>
        <time>2021-08-19T12:02:38Z</time>
      </trkpt>
      <trkpt lat="46.37061" lon="5.9697">
        <ele>1171.5</ele>
        <time>2021-08-19T12:02:39Z</time>
      </trkpt>
      <trkpt lat="46.37057" lon="5.96963">
        <ele>1171.5</ele>
        <time>2021-08-19T12:02:41Z</time>
      </trkpt>
      <trkpt lat="46.37054" lon="5.96959">
        <ele>1171.5</ele>
        <time>2021-08-19T12:02:42Z</time>
      </trkpt>
      <trkpt lat="46.37052" lon="5.96955">
        <ele>1171.5</ele>
        <time>2021-08-19T12:02:43Z</time>
      </trkpt>
      <trkpt lat="46.3705" lon="5.96952">
        <ele>1171.4</ele>
        <time>2021-08-19T12:02:44Z</time>
      </trkpt>
      <trkpt lat="46.37047" lon="5.96946">
        <ele>1171.4</ele>
        <time>2021-08-19T12:02:46Z</time>
      </trkpt>
      <trkpt lat="46.37043" lon="5.9694">
        <ele>1171.4</ele>
        <time>2021-08-19T12:02:48Z</time>
      </trkpt>
      <trkpt lat="46.37039" lon="5.96936">
        <ele>1171.3</ele>
        <time>2021-08-19T12:02:49Z</time>
      </trkpt>
      <trkpt lat="46.37033" lon="5.96929">
        <ele>1171.3</ele>
        <time>2021-08-19T12:02:51Z</time>
      </trkpt>
      <trkpt lat="46.37029" lon="5.96925">
        <ele>1171.3</ele>
        <time>2021-08-19T12:02:52Z</time>
      </trkpt>
      <trkpt lat="46.37024" lon="5.9692">
        <ele>1171.2</ele>
        <time>2021-08-19T12:02:53Z</time>
      </trkpt>
      <trkpt lat="46.37019" lon="5.96915">
        <ele>1171.2</ele>
        <time>2021-08-19T12:02:55Z</time>
      </trkpt>
      <trkpt lat="46.37015" lon="5.96909">
        <ele>1171.1</ele>
        <time>2021-08-19T12:02:57Z</time>
      </trkpt>
      <trkpt lat="46.37012" lon="5.96906">
        <ele>1171.1</ele>
        <time>2021-08-19T12:02:58Z</time>
      </trkpt>
      <trkpt lat="46.37009" lon="5.96902">
        <ele>1171</ele>
        <time>2021-08-19T12:02:59Z</time>
      </trkpt>
      <trkpt lat="46.37005" lon="5.96898">
        <ele>1170.9</ele>
        <time>2021-08-19T12:03:00Z</time>
      </trkpt>
      <trkpt lat="46.37001" lon="5.96895">
        <ele>1170.8</ele>
        <time>2021-08-19T12:03:02Z</time>
      </trkpt>
      <trkpt lat="46.36996" lon="5.96891">
        <ele>1170.7</ele>
        <time>2021-08-19T12:03:03Z</time>
      </trkpt>
      <trkpt lat="46.36993" lon="5.96887">
        <ele>1170.6</ele>
        <time>2021-08-19T12:03:04Z</time>
      </trkpt>
      <trkpt lat="46.3699" lon="5.96883">
        <ele>1170.5</ele>
        <time>2021-08-19T12:03:06Z</time>
      </trkpt>
      <trkpt lat="46.36986" lon="5.96879">
        <ele>1170.4</ele>
        <time>2021-08-19T12:03:07Z</time>
      </trkpt>
      <trkpt lat="46.36982" lon="5.96874">
        <ele>1170.2</ele>
        <time>2021-08-19T12:03:08Z</time>
      </trkpt>
      <trkpt lat="46.36975" lon="5.96865">
        <ele>1169.8</ele>
        <time>2021-08-19T12:03:10Z</time>
      </trkpt>
      <trkpt lat="46.36971" lon="5.96861">
        <ele>1169.5</ele>
        <time>2021-08-19T12:03:11Z</time>
      </trkpt>
      <trkpt lat="46.36962" lon="5.96851">
        <ele>1168.8</ele>
        <time>2021-08-19T12:03:13Z</time>
      </trkpt>
      <trkpt lat="46.36957" lon="5.96846">
        <ele>1168.4</ele>
        <time>2021-08-19T12:03:14Z</time>
      </trkpt>
      <trkpt lat="46.36952" lon="5.96841">
        <ele>1167.9</ele>
        <time>2021-08-19T12:03:15Z</time>
      </trkpt>
      <trkpt lat="46.36941" lon="5.96828">
        <ele>1166.9</ele>
        <time>2021-08-19T12:03:17Z</time>
      </trkpt>
      <trkpt lat="46.36928" lon="5.96815">
        <ele>1165.7</ele>
        <time>2021-08-19T12:03:19Z</time>
      </trkpt>
      <trkpt lat="46.36921" lon="5.96809">
        <ele>1165.1</ele>
        <time>2021-08-19T12:03:20Z</time>
      </trkpt>
      <trkpt lat="46.36909" lon="5.96796">
        <ele>1164.1</ele>
        <time>2021-08-19T12:03:22Z</time>
      </trkpt>
      <trkpt lat="46.36902" lon="5.9679">
        <ele>1163.6</ele>
        <time>2021-08-19T12:03:23Z</time>
      </trkpt>
      <trkpt lat="46.36889" lon="5.96775">
        <ele>1162.7</ele>
        <time>2021-08-19T12:03:25Z</time>
      </trkpt>
      <trkpt lat="46.36877" lon="5.96756">
        <ele>1162</ele>
        <time>2021-08-19T12:03:27Z</time>
      </trkpt>
      <trkpt lat="46.36872" lon="5.96745">
        <ele>1161.8</ele>
        <time>2021-08-19T12:03:28Z</time>
      </trkpt>
      <trkpt lat="46.36868" lon="5.96734">
        <ele>1161.7</ele>
        <time>2021-08-19T12:03:29Z</time>
      </trkpt>
      <trkpt lat="46.36862" lon="5.96712">
        <ele>1161.5</ele>
        <time>2021-08-19T12:03:31Z</time>
      </trkpt>
      <trkpt lat="46.36858" lon="5.96691">
        <ele>1161.5</ele>
        <time>2021-08-19T12:03:33Z</time>
      </trkpt>
      <trkpt lat="46.36855" lon="5.9667">
        <ele>1161.5</ele>
        <time>2021-08-19T12:03:35Z</time>
      </trkpt>
      <trkpt lat="46.36853" lon="5.9666">
        <ele>1161.5</ele>
        <time>2021-08-19T12:03:36Z</time>
      </trkpt>
      <trkpt lat="46.36851" lon="5.9665">
        <ele>1161.5</ele>
        <time>2021-08-19T12:03:37Z</time>
      </trkpt>
      <trkpt lat="46.36847" lon="5.96633">
        <ele>1161.6</ele>
        <time>2021-08-19T12:03:39Z</time>
      </trkpt>
      <trkpt lat="46.36844" lon="5.96617">
        <ele>1161.6</ele>
        <time>2021-08-19T12:03:41Z</time>
      </trkpt>
      <trkpt lat="46.36841" lon="5.96601">
        <ele>1161.6</ele>
        <time>2021-08-19T12:03:43Z</time>
      </trkpt>
      <trkpt lat="46.36839" lon="5.96585">
        <ele>1161.7</ele>
        <time>2021-08-19T12:03:45Z</time>
      </trkpt>
      <trkpt lat="46.36836" lon="5.96569">
        <ele>1161.8</ele>
        <time>2021-08-19T12:03:47Z</time>
      </trkpt>
      <trkpt lat="46.36833" lon="5.96556">
        <ele>1161.9</ele>
        <time>2021-08-19T12:03:49Z</time>
      </trkpt>
      <trkpt lat="46.36829" lon="5.96543">
        <ele>1162</ele>
        <time>2021-08-19T12:03:51Z</time>
      </trkpt>
      <trkpt lat="46.36826" lon="5.96533">
        <ele>1162.1</ele>
        <time>2021-08-19T12:03:53Z</time>
      </trkpt>
      <trkpt lat="46.36823" lon="5.9652">
        <ele>1162.3</ele>
        <time>2021-08-19T12:03:55Z</time>
      </trkpt>
      <trkpt lat="46.36821" lon="5.96515">
        <ele>1162.4</ele>
        <time>2021-08-19T12:03:56Z</time>
      </trkpt>
      <trkpt lat="46.36818" lon="5.96506">
        <ele>1162.6</ele>
        <time>2021-08-19T12:03:58Z</time>
      </trkpt>
      <trkpt lat="46.36817" lon="5.96503">
        <ele>1162.7</ele>
        <time>2021-08-19T12:03:59Z</time>
      </trkpt>
      <trkpt lat="46.36814" lon="5.96497">
        <ele>1162.9</ele>
        <time>2021-08-19T12:04:01Z</time>
      </trkpt>
      <trkpt lat="46.36812" lon="5.96491">
        <ele>1163</ele>
        <time>2021-08-19T12:04:02Z</time>
      </trkpt>
      <trkpt lat="46.36812" lon="5.96486">
        <ele>1163.1</ele>
        <time>2021-08-19T12:04:03Z</time>
      </trkpt>
      <trkpt lat="46.36811" lon="5.9648">
        <ele>1163.3</ele>
        <time>2021-08-19T12:04:04Z</time>
      </trkpt>
      <trkpt lat="46.3681" lon="5.96474">
        <ele>1163.4</ele>
        <time>2021-08-19T12:04:06Z</time>
      </trkpt>
      <trkpt lat="46.36809" lon="5.96466">
        <ele>1163.6</ele>
        <time>2021-08-19T12:04:08Z</time>
      </trkpt>
      <trkpt lat="46.36808" lon="5.96458">
        <ele>1163.8</ele>
        <time>2021-08-19T12:04:10Z</time>
      </trkpt>
      <trkpt lat="46.36807" lon="5.96455">
        <ele>1163.9</ele>
        <time>2021-08-19T12:04:11Z</time>
      </trkpt>
      <trkpt lat="46.36806" lon="5.9645">
        <ele>1164</ele>
        <time>2021-08-19T12:04:13Z</time>
      </trkpt>
      <trkpt lat="46.36806" lon="5.96445">
        <ele>1164.1</ele>
        <time>2021-08-19T12:04:14Z</time>
      </trkpt>
      <trkpt lat="46.36805" lon="5.96444">
        <ele>1164.1</ele>
        <time>2021-08-19T12:04:15Z</time>
      </trkpt>
      <trkpt lat="46.36804" lon="5.96437">
        <ele>1164.3</ele>
        <time>2021-08-19T12:04:17Z</time>
      </trkpt>
      <trkpt lat="46.36804" lon="5.96434">
        <ele>1164.4</ele>
        <time>2021-08-19T12:04:18Z</time>
      </trkpt>
      <trkpt lat="46.36802" lon="5.96428">
        <ele>1164.5</ele>
        <time>2021-08-19T12:04:20Z</time>
      </trkpt>
      <trkpt lat="46.36801" lon="5.96424">
        <ele>1164.5</ele>
        <time>2021-08-19T12:04:21Z</time>
      </trkpt>
      <trkpt lat="46.368" lon="5.96421">
        <ele>1164.6</ele>
        <time>2021-08-19T12:04:22Z</time>
      </trkpt>
      <trkpt lat="46.36799" lon="5.96416">
        <ele>1164.6</ele>
        <time>2021-08-19T12:04:24Z</time>
      </trkpt>
      <trkpt lat="46.36798" lon="5.96411">
        <ele>1164.6</ele>
        <time>2021-08-19T12:04:25Z</time>
      </trkpt>
      <trkpt lat="46.36797" lon="5.96407">
        <ele>1164.7</ele>
        <time>2021-08-19T12:04:26Z</time>
      </trkpt>
      <trkpt lat="46.36796" lon="5.96401">
        <ele>1164.7</ele>
        <time>2021-08-19T12:04:28Z</time>
      </trkpt>
      <trkpt lat="46.36796" lon="5.96397">
        <ele>1164.8</ele>
        <time>2021-08-19T12:04:29Z</time>
      </trkpt>
      <trkpt lat="46.36797" lon="5.96388">
        <ele>1164.9</ele>
        <time>2021-08-19T12:04:31Z</time>
      </trkpt>
      <trkpt lat="46.36798" lon="5.96379">
        <ele>1164.9</ele>
        <time>2021-08-19T12:04:33Z</time>
      </trkpt>
      <trkpt lat="46.36799" lon="5.9637">
        <ele>1165.1</ele>
        <time>2021-08-19T12:04:35Z</time>
      </trkpt>
      <trkpt lat="46.36799" lon="5.96365">
        <ele>1165.2</ele>
        <time>2021-08-19T12:04:36Z</time>
      </trkpt>
      <trkpt lat="46.36799" lon="5.96361">
        <ele>1165.2</ele>
        <time>2021-08-19T12:04:37Z</time>
      </trkpt>
      <trkpt lat="46.36799" lon="5.96356">
        <ele>1165.3</ele>
        <time>2021-08-19T12:04:38Z</time>
      </trkpt>
      <trkpt lat="46.36797" lon="5.9635">
        <ele>1165.4</ele>
        <time>2021-08-19T12:04:40Z</time>
      </trkpt>
      <trkpt lat="46.36795" lon="5.96345">
        <ele>1165.5</ele>
        <time>2021-08-19T12:04:41Z</time>
      </trkpt>
      <trkpt lat="46.36794" lon="5.96341">
        <ele>1165.6</ele>
        <time>2021-08-19T12:04:42Z</time>
      </trkpt>
      <trkpt lat="46.36793" lon="5.96338">
        <ele>1165.7</ele>
        <time>2021-08-19T12:04:43Z</time>
      </trkpt>
      <trkpt lat="46.3679" lon="5.96333">
        <ele>1165.9</ele>
        <time>2021-08-19T12:04:45Z</time>
      </trkpt>
      <trkpt lat="46.36789" lon="5.96329">
        <ele>1166.1</ele>
        <time>2021-08-19T12:04:46Z</time>
      </trkpt>
      <trkpt lat="46.36787" lon="5.96325">
        <ele>1166.2</ele>
        <time>2021-08-19T12:04:47Z</time>
      </trkpt>
      <trkpt lat="46.36785" lon="5.96321">
        <ele>1166.4</ele>
        <time>2021-08-19T12:04:49Z</time>
      </trkpt>
      <trkpt lat="46.36784" lon="5.96317">
        <ele>1166.5</ele>
        <time>2021-08-19T12:04:50Z</time>
      </trkpt>
      <trkpt lat="46.36781" lon="5.96313">
        <ele>1166.8</ele>
        <time>2021-08-19T12:04:52Z</time>
      </trkpt>
      <trkpt lat="46.36778" lon="5.9631">
        <ele>1167</ele>
        <time>2021-08-19T12:04:53Z</time>
      </trkpt>
      <trkpt lat="46.36775" lon="5.96307">
        <ele>1167.2</ele>
        <time>2021-08-19T12:04:54Z</time>
      </trkpt>
      <trkpt lat="46.36772" lon="5.96303">
        <ele>1167.4</ele>
        <time>2021-08-19T12:04:56Z</time>
      </trkpt>
      <trkpt lat="46.36771" lon="5.96302">
        <ele>1167.5</ele>
        <time>2021-08-19T12:04:57Z</time>
      </trkpt>
      <trkpt lat="46.3677" lon="5.963">
        <ele>1167.6</ele>
        <time>2021-08-19T12:04:58Z</time>
      </trkpt>
      <trkpt lat="46.36768" lon="5.96298">
        <ele>1167.8</ele>
        <time>2021-08-19T12:04:59Z</time>
      </trkpt>
      <trkpt lat="46.36766" lon="5.96294">
        <ele>1168</ele>
        <time>2021-08-19T12:05:01Z</time>
      </trkpt>
      <trkpt lat="46.36764" lon="5.96289">
        <ele>1168.3</ele>
        <time>2021-08-19T12:05:02Z</time>
      </trkpt>
      <trkpt lat="46.36761" lon="5.96285">
        <ele>1168.5</ele>
        <time>2021-08-19T12:05:03Z</time>
      </trkpt>
      <trkpt lat="46.36761" lon="5.96284">
        <ele>1168.6</ele>
        <time>2021-08-19T12:05:04Z</time>
      </trkpt>
      <trkpt lat="46.3676" lon="5.96281">
        <ele>1168.7</ele>
        <time>2021-08-19T12:05:05Z</time>
      </trkpt>
      <trkpt lat="46.36757" lon="5.96278">
        <ele>1168.9</ele>
        <time>2021-08-19T12:05:07Z</time>
      </trkpt>
      <trkpt lat="46.36756" lon="5.96275">
        <ele>1169.1</ele>
        <time>2021-08-19T12:05:08Z</time>
      </trkpt>
      <trkpt lat="46.36755" lon="5.96273">
        <ele>1169.2</ele>
        <time>2021-08-19T12:05:09Z</time>
      </trkpt>
      <trkpt lat="46.36753" lon="5.96269">
        <ele>1169.4</ele>
        <time>2021-08-19T12:05:11Z</time>
      </trkpt>
      <trkpt lat="46.36752" lon="5.96268">
        <ele>1169.5</ele>
        <time>2021-08-19T12:05:12Z</time>
      </trkpt>
      <trkpt lat="46.36751" lon="5.96266">
        <ele>1169.6</ele>
        <time>2021-08-19T12:05:13Z</time>
      </trkpt>
      <trkpt lat="46.36749" lon="5.96262">
        <ele>1169.8</ele>
        <time>2021-08-19T12:05:15Z</time>
      </trkpt>
      <trkpt lat="46.36746" lon="5.96259">
        <ele>1170</ele>
        <time>2021-08-19T12:05:17Z</time>
      </trkpt>
      <trkpt lat="46.36743" lon="5.96255">
        <ele>1170.3</ele>
        <time>2021-08-19T12:05:19Z</time>
      </trkpt>
      <trkpt lat="46.36741" lon="5.96252">
        <ele>1170.5</ele>
        <time>2021-08-19T12:05:20Z</time>
      </trkpt>
      <trkpt lat="46.36739" lon="5.96249">
        <ele>1170.6</ele>
        <time>2021-08-19T12:05:21Z</time>
      </trkpt>
      <trkpt lat="46.36737" lon="5.96245">
        <ele>1170.9</ele>
        <time>2021-08-19T12:05:23Z</time>
      </trkpt>
      <trkpt lat="46.36737" lon="5.96241">
        <ele>1171</ele>
        <time>2021-08-19T12:05:24Z</time>
      </trkpt>
      <trkpt lat="46.36735" lon="5.96238">
        <ele>1171.2</ele>
        <time>2021-08-19T12:05:26Z</time>
      </trkpt>
      <trkpt lat="46.36733" lon="5.96233">
        <ele>1171.4</ele>
        <time>2021-08-19T12:05:27Z</time>
      </trkpt>
      <trkpt lat="46.36733" lon="5.96232">
        <ele>1171.5</ele>
        <time>2021-08-19T12:05:28Z</time>
      </trkpt>
      <trkpt lat="46.36731" lon="5.96227">
        <ele>1171.7</ele>
        <time>2021-08-19T12:05:30Z</time>
      </trkpt>
      <trkpt lat="46.36728" lon="5.96223">
        <ele>1172</ele>
        <time>2021-08-19T12:05:32Z</time>
      </trkpt>
      <trkpt lat="46.36726" lon="5.96217">
        <ele>1172.2</ele>
        <time>2021-08-19T12:05:34Z</time>
      </trkpt>
      <trkpt lat="46.36724" lon="5.96214">
        <ele>1172.5</ele>
        <time>2021-08-19T12:05:36Z</time>
      </trkpt>
      <trkpt lat="46.36723" lon="5.9621">
        <ele>1172.6</ele>
        <time>2021-08-19T12:05:38Z</time>
      </trkpt>
      <trkpt lat="46.36721" lon="5.96208">
        <ele>1172.8</ele>
        <time>2021-08-19T12:05:39Z</time>
      </trkpt>
      <trkpt lat="46.3672" lon="5.96207">
        <ele>1172.8</ele>
        <time>2021-08-19T12:05:40Z</time>
      </trkpt>
      <trkpt lat="46.36719" lon="5.96204">
        <ele>1173</ele>
        <time>2021-08-19T12:05:42Z</time>
      </trkpt>
      <trkpt lat="46.36717" lon="5.96199">
        <ele>1173.2</ele>
        <time>2021-08-19T12:05:44Z</time>
      </trkpt>
      <trkpt lat="46.36714" lon="5.96195">
        <ele>1173.5</ele>
        <time>2021-08-19T12:05:46Z</time>
      </trkpt>
      <trkpt lat="46.36712" lon="5.96192">
        <ele>1173.7</ele>
        <time>2021-08-19T12:05:47Z</time>
      </trkpt>
      <trkpt lat="46.3671" lon="5.96189">
        <ele>1173.9</ele>
        <time>2021-08-19T12:05:49Z</time>
      </trkpt>
      <trkpt lat="46.36708" lon="5.96188">
        <ele>1174</ele>
        <time>2021-08-19T12:05:50Z</time>
      </trkpt>
      <trkpt lat="46.36708" lon="5.96188">
        <ele>1174</ele>
        <time>2021-08-19T12:05:51Z</time>
      </trkpt>
      <trkpt lat="46.36707" lon="5.96187">
        <ele>1174</ele>
        <time>2021-08-19T12:05:52Z</time>
      </trkpt>
      <trkpt lat="46.36705" lon="5.96184">
        <ele>1174.3</ele>
        <time>2021-08-19T12:05:54Z</time>
      </trkpt>
      <trkpt lat="46.36704" lon="5.96184">
        <ele>1174.3</ele>
        <time>2021-08-19T12:05:55Z</time>
      </trkpt>
      <trkpt lat="46.36702" lon="5.96181">
        <ele>1174.5</ele>
        <time>2021-08-19T12:05:56Z</time>
      </trkpt>
      <trkpt lat="46.36701" lon="5.9618">
        <ele>1174.6</ele>
        <time>2021-08-19T12:05:57Z</time>
      </trkpt>
      <trkpt lat="46.36699" lon="5.96178">
        <ele>1174.7</ele>
        <time>2021-08-19T12:05:59Z</time>
      </trkpt>
      <trkpt lat="46.36696" lon="5.96176">
        <ele>1174.9</ele>
        <time>2021-08-19T12:06:00Z</time>
      </trkpt>
      <trkpt lat="46.36694" lon="5.96174">
        <ele>1175.1</ele>
        <time>2021-08-19T12:06:02Z</time>
      </trkpt>
      <trkpt lat="46.36692" lon="5.96172">
        <ele>1175.2</ele>
        <time>2021-08-19T12:06:03Z</time>
      </trkpt>
      <trkpt lat="46.36691" lon="5.9617">
        <ele>1175.4</ele>
        <time>2021-08-19T12:06:04Z</time>
      </trkpt>
      <trkpt lat="46.36688" lon="5.96167">
        <ele>1175.6</ele>
        <time>2021-08-19T12:06:06Z</time>
      </trkpt>
      <trkpt lat="46.36685" lon="5.96164">
        <ele>1175.8</ele>
        <time>2021-08-19T12:06:07Z</time>
      </trkpt>
      <trkpt lat="46.36681" lon="5.96162">
        <ele>1176.1</ele>
        <time>2021-08-19T12:06:09Z</time>
      </trkpt>
      <trkpt lat="46.3668" lon="5.96161">
        <ele>1176.1</ele>
        <time>2021-08-19T12:06:10Z</time>
      </trkpt>
      <trkpt lat="46.36679" lon="5.96161">
        <ele>1176.2</ele>
        <time>2021-08-19T12:06:11Z</time>
      </trkpt>
      <trkpt lat="46.36677" lon="5.9616">
        <ele>1176.3</ele>
        <time>2021-08-19T12:06:12Z</time>
      </trkpt>
      <trkpt lat="46.36675" lon="5.96157">
        <ele>1176.5</ele>
        <time>2021-08-19T12:06:14Z</time>
      </trkpt>
      <trkpt lat="46.36672" lon="5.96154">
        <ele>1176.7</ele>
        <time>2021-08-19T12:06:15Z</time>
      </trkpt>
      <trkpt lat="46.36672" lon="5.96153">
        <ele>1176.7</ele>
        <time>2021-08-19T12:06:16Z</time>
      </trkpt>
      <trkpt lat="46.36671" lon="5.96152">
        <ele>1176.8</ele>
        <time>2021-08-19T12:06:17Z</time>
      </trkpt>
      <trkpt lat="46.36669" lon="5.96149">
        <ele>1177</ele>
        <time>2021-08-19T12:06:19Z</time>
      </trkpt>
      <trkpt lat="46.36666" lon="5.96146">
        <ele>1177.2</ele>
        <time>2021-08-19T12:06:20Z</time>
      </trkpt>
      <trkpt lat="46.36665" lon="5.96145">
        <ele>1177.3</ele>
        <time>2021-08-19T12:06:21Z</time>
      </trkpt>
      <trkpt lat="46.36662" lon="5.96142">
        <ele>1177.5</ele>
        <time>2021-08-19T12:06:22Z</time>
      </trkpt>
      <trkpt lat="46.36661" lon="5.96141">
        <ele>1177.6</ele>
        <time>2021-08-19T12:06:23Z</time>
      </trkpt>
      <trkpt lat="46.36659" lon="5.96139">
        <ele>1177.7</ele>
        <time>2021-08-19T12:06:24Z</time>
      </trkpt>
      <trkpt lat="46.36656" lon="5.96136">
        <ele>1177.9</ele>
        <time>2021-08-19T12:06:26Z</time>
      </trkpt>
      <trkpt lat="46.36654" lon="5.96134">
        <ele>1178.1</ele>
        <time>2021-08-19T12:06:27Z</time>
      </trkpt>
      <trkpt lat="46.36651" lon="5.96132">
        <ele>1178.3</ele>
        <time>2021-08-19T12:06:28Z</time>
      </trkpt>
      <trkpt lat="46.3665" lon="5.96131">
        <ele>1178.3</ele>
        <time>2021-08-19T12:06:29Z</time>
      </trkpt>
      <trkpt lat="46.36649" lon="5.9613">
        <ele>1178.4</ele>
        <time>2021-08-19T12:06:30Z</time>
      </trkpt>
      <trkpt lat="46.36647" lon="5.96129">
        <ele>1178.6</ele>
        <time>2021-08-19T12:06:31Z</time>
      </trkpt>
      <trkpt lat="46.36645" lon="5.96126">
        <ele>1178.7</ele>
        <time>2021-08-19T12:06:32Z</time>
      </trkpt>
      <trkpt lat="46.36644" lon="5.96125">
        <ele>1178.8</ele>
        <time>2021-08-19T12:06:33Z</time>
      </trkpt>
      <trkpt lat="46.36642" lon="5.96122">
        <ele>1179</ele>
        <time>2021-08-19T12:06:35Z</time>
      </trkpt>
      <trkpt lat="46.3664" lon="5.96118">
        <ele>1179.2</ele>
        <time>2021-08-19T12:06:36Z</time>
      </trkpt>
      <trkpt lat="46.36639" lon="5.96116">
        <ele>1179.4</ele>
        <time>2021-08-19T12:06:37Z</time>
      </trkpt>
      <trkpt lat="46.36636" lon="5.96113">
        <ele>1179.6</ele>
        <time>2021-08-19T12:06:39Z</time>
      </trkpt>
      <trkpt lat="46.36634" lon="5.96109">
        <ele>1179.8</ele>
        <time>2021-08-19T12:06:40Z</time>
      </trkpt>
      <trkpt lat="46.36633" lon="5.96107">
        <ele>1179.9</ele>
        <time>2021-08-19T12:06:41Z</time>
      </trkpt>
      <trkpt lat="46.3663" lon="5.96105">
        <ele>1180.1</ele>
        <time>2021-08-19T12:06:43Z</time>
      </trkpt>
      <trkpt lat="46.36627" lon="5.96102">
        <ele>1180.4</ele>
        <time>2021-08-19T12:06:44Z</time>
      </trkpt>
      <trkpt lat="46.36624" lon="5.96099">
        <ele>1180.6</ele>
        <time>2021-08-19T12:06:46Z</time>
      </trkpt>
      <trkpt lat="46.3662" lon="5.96095">
        <ele>1180.9</ele>
        <time>2021-08-19T12:06:48Z</time>
      </trkpt>
      <trkpt lat="46.36617" lon="5.96092">
        <ele>1181.2</ele>
        <time>2021-08-19T12:06:50Z</time>
      </trkpt>
      <trkpt lat="46.36615" lon="5.96089">
        <ele>1181.4</ele>
        <time>2021-08-19T12:06:51Z</time>
      </trkpt>
      <trkpt lat="46.36612" lon="5.96086">
        <ele>1181.6</ele>
        <time>2021-08-19T12:06:52Z</time>
      </trkpt>
      <trkpt lat="46.36611" lon="5.96085">
        <ele>1181.7</ele>
        <time>2021-08-19T12:06:53Z</time>
      </trkpt>
      <trkpt lat="46.36609" lon="5.96081">
        <ele>1182</ele>
        <time>2021-08-19T12:06:55Z</time>
      </trkpt>
      <trkpt lat="46.36606" lon="5.96078">
        <ele>1182.2</ele>
        <time>2021-08-19T12:06:57Z</time>
      </trkpt>
      <trkpt lat="46.36604" lon="5.96074">
        <ele>1182.5</ele>
        <time>2021-08-19T12:06:59Z</time>
      </trkpt>
      <trkpt lat="46.36602" lon="5.96073">
        <ele>1182.6</ele>
        <time>2021-08-19T12:07:00Z</time>
      </trkpt>
      <trkpt lat="46.366" lon="5.96071">
        <ele>1182.8</ele>
        <time>2021-08-19T12:07:02Z</time>
      </trkpt>
      <trkpt lat="46.36597" lon="5.96068">
        <ele>1183</ele>
        <time>2021-08-19T12:07:03Z</time>
      </trkpt>
      <trkpt lat="46.36596" lon="5.96068">
        <ele>1183.1</ele>
        <time>2021-08-19T12:07:04Z</time>
      </trkpt>
      <trkpt lat="46.36594" lon="5.96066">
        <ele>1183.3</ele>
        <time>2021-08-19T12:07:05Z</time>
      </trkpt>
      <trkpt lat="46.36591" lon="5.96064">
        <ele>1183.5</ele>
        <time>2021-08-19T12:07:07Z</time>
      </trkpt>
      <trkpt lat="46.36588" lon="5.96063">
        <ele>1183.7</ele>
        <time>2021-08-19T12:07:08Z</time>
      </trkpt>
      <trkpt lat="46.36587" lon="5.96062">
        <ele>1183.8</ele>
        <time>2021-08-19T12:07:09Z</time>
      </trkpt>
      <trkpt lat="46.36584" lon="5.9606">
        <ele>1184</ele>
        <time>2021-08-19T12:07:10Z</time>
      </trkpt>
      <trkpt lat="46.36583" lon="5.9606">
        <ele>1184.1</ele>
        <time>2021-08-19T12:07:11Z</time>
      </trkpt>
      <trkpt lat="46.3658" lon="5.96058">
        <ele>1184.3</ele>
        <time>2021-08-19T12:07:12Z</time>
      </trkpt>
      <trkpt lat="46.36579" lon="5.96058">
        <ele>1184.4</ele>
        <time>2021-08-19T12:07:13Z</time>
      </trkpt>
      <trkpt lat="46.36577" lon="5.96056">
        <ele>1184.5</ele>
        <time>2021-08-19T12:07:14Z</time>
      </trkpt>
      <trkpt lat="46.36575" lon="5.96055">
        <ele>1184.7</ele>
        <time>2021-08-19T12:07:16Z</time>
      </trkpt>
      <trkpt lat="46.36573" lon="5.96055">
        <ele>1184.9</ele>
        <time>2021-08-19T12:07:17Z</time>
      </trkpt>
      <trkpt lat="46.3657" lon="5.96053">
        <ele>1185.1</ele>
        <time>2021-08-19T12:07:19Z</time>
      </trkpt>
      <trkpt lat="46.36567" lon="5.96051">
        <ele>1185.3</ele>
        <time>2021-08-19T12:07:20Z</time>
      </trkpt>
      <trkpt lat="46.36564" lon="5.9605">
        <ele>1185.4</ele>
        <time>2021-08-19T12:07:22Z</time>
      </trkpt>
      <trkpt lat="46.36563" lon="5.96049">
        <ele>1185.5</ele>
        <time>2021-08-19T12:07:23Z</time>
      </trkpt>
      <trkpt lat="46.36561" lon="5.96048">
        <ele>1185.7</ele>
        <time>2021-08-19T12:07:24Z</time>
      </trkpt>
      <trkpt lat="46.36558" lon="5.96047">
        <ele>1185.9</ele>
        <time>2021-08-19T12:07:26Z</time>
      </trkpt>
      <trkpt lat="46.36555" lon="5.96046">
        <ele>1186.1</ele>
        <time>2021-08-19T12:07:27Z</time>
      </trkpt>
      <trkpt lat="46.36552" lon="5.96044">
        <ele>1186.3</ele>
        <time>2021-08-19T12:07:29Z</time>
      </trkpt>
      <trkpt lat="46.36548" lon="5.96042">
        <ele>1186.5</ele>
        <time>2021-08-19T12:07:30Z</time>
      </trkpt>
      <trkpt lat="46.36547" lon="5.96041">
        <ele>1186.6</ele>
        <time>2021-08-19T12:07:31Z</time>
      </trkpt>
      <trkpt lat="46.36544" lon="5.96039">
        <ele>1186.8</ele>
        <time>2021-08-19T12:07:33Z</time>
      </trkpt>
      <trkpt lat="46.36543" lon="5.96038">
        <ele>1186.9</ele>
        <time>2021-08-19T12:07:34Z</time>
      </trkpt>
      <trkpt lat="46.3654" lon="5.96035">
        <ele>1187.2</ele>
        <time>2021-08-19T12:07:35Z</time>
      </trkpt>
      <trkpt lat="46.36539" lon="5.96034">
        <ele>1187.3</ele>
        <time>2021-08-19T12:07:36Z</time>
      </trkpt>
      <trkpt lat="46.36536" lon="5.9603">
        <ele>1187.8</ele>
        <time>2021-08-19T12:07:38Z</time>
      </trkpt>
      <trkpt lat="46.36533" lon="5.96028">
        <ele>1188.2</ele>
        <time>2021-08-19T12:07:39Z</time>
      </trkpt>
      <trkpt lat="46.36532" lon="5.96027">
        <ele>1188.3</ele>
        <time>2021-08-19T12:07:40Z</time>
      </trkpt>
      <trkpt lat="46.36532" lon="5.96025">
        <ele>1188.5</ele>
        <time>2021-08-19T12:07:41Z</time>
      </trkpt>
      <trkpt lat="46.36531" lon="5.96023">
        <ele>1188.7</ele>
        <time>2021-08-19T12:07:43Z</time>
      </trkpt>
      <trkpt lat="46.3653" lon="5.96021">
        <ele>1188.8</ele>
        <time>2021-08-19T12:07:44Z</time>
      </trkpt>
      <trkpt lat="46.3653" lon="5.9602">
        <ele>1189</ele>
        <time>2021-08-19T12:07:45Z</time>
      </trkpt>
      <trkpt lat="46.3653" lon="5.9602">
        <ele>1189</ele>
        <time>2021-08-19T12:07:46Z</time>
      </trkpt>
      <trkpt lat="46.36529" lon="5.9602">
        <ele>1189.2</ele>
        <time>2021-08-19T12:07:48Z</time>
      </trkpt>
      <trkpt lat="46.36527" lon="5.96021">
        <ele>1189.4</ele>
        <time>2021-08-19T12:07:49Z</time>
      </trkpt>
      <trkpt lat="46.36525" lon="5.9602">
        <ele>1189.6</ele>
        <time>2021-08-19T12:07:50Z</time>
      </trkpt>
      <trkpt lat="46.36524" lon="5.9602">
        <ele>1189.8</ele>
        <time>2021-08-19T12:07:52Z</time>
      </trkpt>
      <trkpt lat="46.36522" lon="5.96019">
        <ele>1190</ele>
        <time>2021-08-19T12:07:53Z</time>
      </trkpt>
      <trkpt lat="46.36521" lon="5.96019">
        <ele>1190.3</ele>
        <time>2021-08-19T12:07:54Z</time>
      </trkpt>
      <trkpt lat="46.36521" lon="5.96018">
        <ele>1190.3</ele>
        <time>2021-08-19T12:07:55Z</time>
      </trkpt>
      <trkpt lat="46.36521" lon="5.96018">
        <ele>1190.4</ele>
        <time>2021-08-19T12:07:57Z</time>
      </trkpt>
      <trkpt lat="46.36521" lon="5.96018">
        <ele>1190.4</ele>
        <time>2021-08-19T12:07:58Z</time>
      </trkpt>
      <trkpt lat="46.3652" lon="5.96018">
        <ele>1190.5</ele>
        <time>2021-08-19T12:07:59Z</time>
      </trkpt>
      <trkpt lat="46.36518" lon="5.96017">
        <ele>1190.8</ele>
        <time>2021-08-19T12:08:01Z</time>
      </trkpt>
      <trkpt lat="46.36517" lon="5.96017">
        <ele>1190.9</ele>
        <time>2021-08-19T12:08:02Z</time>
      </trkpt>
      <trkpt lat="46.36516" lon="5.96017">
        <ele>1191</ele>
        <time>2021-08-19T12:08:03Z</time>
      </trkpt>
      <trkpt lat="46.36515" lon="5.96017">
        <ele>1191.2</ele>
        <time>2021-08-19T12:08:04Z</time>
      </trkpt>
      <trkpt lat="46.36512" lon="5.96016">
        <ele>1191.5</ele>
        <time>2021-08-19T12:08:06Z</time>
      </trkpt>
      <trkpt lat="46.3651" lon="5.96015">
        <ele>1191.9</ele>
        <time>2021-08-19T12:08:08Z</time>
      </trkpt>
      <trkpt lat="46.36508" lon="5.96014">
        <ele>1192.1</ele>
        <time>2021-08-19T12:08:09Z</time>
      </trkpt>
      <trkpt lat="46.36442" lon="5.95929">
        <ele>1202.2</ele>
        <time>2021-08-19T12:10:12Z</time>
      </trkpt>
      <trkpt lat="46.36439" lon="5.95927">
        <ele>1202.6</ele>
        <time>2021-08-19T12:10:14Z</time>
      </trkpt>
      <trkpt lat="46.36439" lon="5.95927">
        <ele>1202.7</ele>
        <time>2021-08-19T12:10:15Z</time>
      </trkpt>
      <trkpt lat="46.36438" lon="5.95927">
        <ele>1202.8</ele>
        <time>2021-08-19T12:10:16Z</time>
      </trkpt>
      <trkpt lat="46.36437" lon="5.95926">
        <ele>1202.9</ele>
        <time>2021-08-19T12:10:18Z</time>
      </trkpt>
      <trkpt lat="46.36436" lon="5.95926">
        <ele>1203</ele>
        <time>2021-08-19T12:10:20Z</time>
      </trkpt>
      <trkpt lat="46.36435" lon="5.95925">
        <ele>1203.1</ele>
        <time>2021-08-19T12:10:21Z</time>
      </trkpt>
      <trkpt lat="46.36435" lon="5.95925">
        <ele>1203.1</ele>
        <time>2021-08-19T12:10:22Z</time>
      </trkpt>
      <trkpt lat="46.36435" lon="5.95925">
        <ele>1203.2</ele>
        <time>2021-08-19T12:10:24Z</time>
      </trkpt>
      <trkpt lat="46.36435" lon="5.95925">
        <ele>1203.2</ele>
        <time>2021-08-19T12:10:25Z</time>
      </trkpt>
      <trkpt lat="46.36435" lon="5.95924">
        <ele>1203.2</ele>
        <time>2021-08-19T12:10:26Z</time>
      </trkpt>
      <trkpt lat="46.36434" lon="5.95924">
        <ele>1203.3</ele>
        <time>2021-08-19T12:10:28Z</time>
      </trkpt>
      <trkpt lat="46.36434" lon="5.95922">
        <ele>1203.4</ele>
        <time>2021-08-19T12:10:29Z</time>
      </trkpt>
      <trkpt lat="46.36432" lon="5.95918">
        <ele>1203.7</ele>
        <time>2021-08-19T12:10:31Z</time>
      </trkpt>
      <trkpt lat="46.36432" lon="5.95917">
        <ele>1203.8</ele>
        <time>2021-08-19T12:10:32Z</time>
      </trkpt>
      <trkpt lat="46.3643" lon="5.95913">
        <ele>1204</ele>
        <time>2021-08-19T12:10:34Z</time>
      </trkpt>
      <trkpt lat="46.36429" lon="5.95909">
        <ele>1204.2</ele>
        <time>2021-08-19T12:10:35Z</time>
      </trkpt>
      <trkpt lat="46.36427" lon="5.95905">
        <ele>1204.4</ele>
        <time>2021-08-19T12:10:36Z</time>
      </trkpt>
      <trkpt lat="46.36425" lon="5.95898">
        <ele>1204.7</ele>
        <time>2021-08-19T12:10:38Z</time>
      </trkpt>
      <trkpt lat="46.36423" lon="5.95894">
        <ele>1204.9</ele>
        <time>2021-08-19T12:10:39Z</time>
      </trkpt>
      <trkpt lat="46.36421" lon="5.9589">
        <ele>1205</ele>
        <time>2021-08-19T12:10:41Z</time>
      </trkpt>
      <trkpt lat="46.36419" lon="5.95887">
        <ele>1205.2</ele>
        <time>2021-08-19T12:10:42Z</time>
      </trkpt>
      <trkpt lat="46.36417" lon="5.95884">
        <ele>1205.4</ele>
        <time>2021-08-19T12:10:43Z</time>
      </trkpt>
      <trkpt lat="46.36415" lon="5.95883">
        <ele>1205.5</ele>
        <time>2021-08-19T12:10:45Z</time>
      </trkpt>
      <trkpt lat="46.36414" lon="5.95883">
        <ele>1205.6</ele>
        <time>2021-08-19T12:10:46Z</time>
      </trkpt>
      <trkpt lat="46.36413" lon="5.95882">
        <ele>1205.6</ele>
        <time>2021-08-19T12:10:47Z</time>
      </trkpt>
      <trkpt lat="46.36413" lon="5.95882">
        <ele>1205.7</ele>
        <time>2021-08-19T12:10:48Z</time>
      </trkpt>
      <trkpt lat="46.36409" lon="5.9588">
        <ele>1206</ele>
        <time>2021-08-19T12:10:50Z</time>
      </trkpt>
      <trkpt lat="46.36406" lon="5.95879">
        <ele>1206.3</ele>
        <time>2021-08-19T12:10:52Z</time>
      </trkpt>
      <trkpt lat="46.36404" lon="5.95879">
        <ele>1206.5</ele>
        <time>2021-08-19T12:10:53Z</time>
      </trkpt>
      <trkpt lat="46.36403" lon="5.95879">
        <ele>1206.6</ele>
        <time>2021-08-19T12:10:57Z</time>
      </trkpt>
      <trkpt lat="46.36402" lon="5.95879">
        <ele>1206.7</ele>
        <time>2021-08-19T12:10:58Z</time>
      </trkpt>
      <trkpt lat="46.36402" lon="5.95878">
        <ele>1206.8</ele>
        <time>2021-08-19T12:10:59Z</time>
      </trkpt>
      <trkpt lat="46.36402" lon="5.95878">
        <ele>1206.8</ele>
        <time>2021-08-19T12:11:01Z</time>
      </trkpt>
      <trkpt lat="46.36401" lon="5.95878">
        <ele>1206.8</ele>
        <time>2021-08-19T12:11:02Z</time>
      </trkpt>
      <trkpt lat="46.36401" lon="5.95878">
        <ele>1206.8</ele>
        <time>2021-08-19T12:11:03Z</time>
      </trkpt>
      <trkpt lat="46.36401" lon="5.95877">
        <ele>1206.9</ele>
        <time>2021-08-19T12:11:05Z</time>
      </trkpt>
      <trkpt lat="46.364" lon="5.95876">
        <ele>1207</ele>
        <time>2021-08-19T12:11:06Z</time>
      </trkpt>
      <trkpt lat="46.36389" lon="5.95859">
        <ele>1208.9</ele>
        <time>2021-08-19T12:11:08Z</time>
      </trkpt>
      <trkpt lat="46.3638" lon="5.95843">
        <ele>1210.3</ele>
        <time>2021-08-19T12:12:02Z</time>
      </trkpt>
      <trkpt lat="46.36371" lon="5.95828">
        <ele>1211.3</ele>
        <time>2021-08-19T12:12:03Z</time>
      </trkpt>
      <trkpt lat="46.3637" lon="5.95823">
        <ele>1211.5</ele>
        <time>2021-08-19T12:12:04Z</time>
      </trkpt>
      <trkpt lat="46.3637" lon="5.95822">
        <ele>1211.6</ele>
        <time>2021-08-19T12:12:05Z</time>
      </trkpt>
      <trkpt lat="46.3637" lon="5.9582">
        <ele>1211.7</ele>
        <time>2021-08-19T12:12:06Z</time>
      </trkpt>
      <trkpt lat="46.3637" lon="5.95817">
        <ele>1211.8</ele>
        <time>2021-08-19T12:12:08Z</time>
      </trkpt>
      <trkpt lat="46.36371" lon="5.9581">
        <ele>1212.1</ele>
        <time>2021-08-19T12:12:09Z</time>
      </trkpt>
      <trkpt lat="46.36371" lon="5.95808">
        <ele>1212.2</ele>
        <time>2021-08-19T12:12:10Z</time>
      </trkpt>
      <trkpt lat="46.36371" lon="5.95805">
        <ele>1212.3</ele>
        <time>2021-08-19T12:12:11Z</time>
      </trkpt>
      <trkpt lat="46.36371" lon="5.95801">
        <ele>1212.5</ele>
        <time>2021-08-19T12:12:13Z</time>
      </trkpt>
      <trkpt lat="46.36371" lon="5.958">
        <ele>1212.5</ele>
        <time>2021-08-19T12:12:14Z</time>
      </trkpt>
      <trkpt lat="46.36371" lon="5.95795">
        <ele>1212.7</ele>
        <time>2021-08-19T12:12:16Z</time>
      </trkpt>
      <trkpt lat="46.36371" lon="5.95794">
        <ele>1212.8</ele>
        <time>2021-08-19T12:12:17Z</time>
      </trkpt>
      <trkpt lat="46.36371" lon="5.9579">
        <ele>1212.9</ele>
        <time>2021-08-19T12:12:18Z</time>
      </trkpt>
      <trkpt lat="46.36372" lon="5.95786">
        <ele>1213.1</ele>
        <time>2021-08-19T12:12:20Z</time>
      </trkpt>
      <trkpt lat="46.36373" lon="5.95783">
        <ele>1213.2</ele>
        <time>2021-08-19T12:12:21Z</time>
      </trkpt>
      <trkpt lat="46.36373" lon="5.95782">
        <ele>1213.3</ele>
        <time>2021-08-19T12:12:22Z</time>
      </trkpt>
      <trkpt lat="46.36373" lon="5.95781">
        <ele>1213.3</ele>
        <time>2021-08-19T12:12:23Z</time>
      </trkpt>
      <trkpt lat="46.36374" lon="5.95779">
        <ele>1213.4</ele>
        <time>2021-08-19T12:12:24Z</time>
      </trkpt>
      <trkpt lat="46.36375" lon="5.95775">
        <ele>1213.5</ele>
        <time>2021-08-19T12:12:26Z</time>
      </trkpt>
      <trkpt lat="46.36376" lon="5.95771">
        <ele>1213.5</ele>
        <time>2021-08-19T12:12:27Z</time>
      </trkpt>
      <trkpt lat="46.36377" lon="5.95767">
        <ele>1213.5</ele>
        <time>2021-08-19T12:12:29Z</time>
      </trkpt>
      <trkpt lat="46.36377" lon="5.95765">
        <ele>1213.5</ele>
        <time>2021-08-19T12:12:30Z</time>
      </trkpt>
      <trkpt lat="46.36378" lon="5.95762">
        <ele>1213.5</ele>
        <time>2021-08-19T12:12:32Z</time>
      </trkpt>
      <trkpt lat="46.36379" lon="5.95759">
        <ele>1213.4</ele>
        <time>2021-08-19T12:12:33Z</time>
      </trkpt>
      <trkpt lat="46.36379" lon="5.95758">
        <ele>1213.4</ele>
        <time>2021-08-19T12:12:34Z</time>
      </trkpt>
      <trkpt lat="46.3638" lon="5.95757">
        <ele>1213.4</ele>
        <time>2021-08-19T12:12:35Z</time>
      </trkpt>
      <trkpt lat="46.36381" lon="5.95754">
        <ele>1213.3</ele>
        <time>2021-08-19T12:12:36Z</time>
      </trkpt>
      <trkpt lat="46.36382" lon="5.95752">
        <ele>1213.2</ele>
        <time>2021-08-19T12:12:38Z</time>
      </trkpt>
      <trkpt lat="46.36383" lon="5.9575">
        <ele>1213.1</ele>
        <time>2021-08-19T12:12:39Z</time>
      </trkpt>
      <trkpt lat="46.36384" lon="5.95748">
        <ele>1213</ele>
        <time>2021-08-19T12:12:40Z</time>
      </trkpt>
      <trkpt lat="46.36386" lon="5.95743">
        <ele>1212.7</ele>
        <time>2021-08-19T12:12:42Z</time>
      </trkpt>
      <trkpt lat="46.36389" lon="5.95736">
        <ele>1212.3</ele>
        <time>2021-08-19T12:12:43Z</time>
      </trkpt>
      <trkpt lat="46.36393" lon="5.95727">
        <ele>1211.5</ele>
        <time>2021-08-19T12:12:44Z</time>
      </trkpt>
      <trkpt lat="46.36401" lon="5.95712">
        <ele>1210.3</ele>
        <time>2021-08-19T12:12:46Z</time>
      </trkpt>
      <trkpt lat="46.36404" lon="5.95702">
        <ele>1209.7</ele>
        <time>2021-08-19T12:12:47Z</time>
      </trkpt>
      <trkpt lat="46.36407" lon="5.95693">
        <ele>1209.4</ele>
        <time>2021-08-19T12:12:48Z</time>
      </trkpt>
      <trkpt lat="46.36415" lon="5.95675">
        <ele>1209.2</ele>
        <time>2021-08-19T12:12:50Z</time>
      </trkpt>
      <trkpt lat="46.36425" lon="5.95663">
        <ele>1209.7</ele>
        <time>2021-08-19T12:12:52Z</time>
      </trkpt>
      <trkpt lat="46.3643" lon="5.9566">
        <ele>1210.1</ele>
        <time>2021-08-19T12:12:53Z</time>
      </trkpt>
      <trkpt lat="46.36442" lon="5.95658">
        <ele>1211.2</ele>
        <time>2021-08-19T12:12:55Z</time>
      </trkpt>
      <trkpt lat="46.36446" lon="5.95657">
        <ele>1211.7</ele>
        <time>2021-08-19T12:12:56Z</time>
      </trkpt>
      <trkpt lat="46.36452" lon="5.95656">
        <ele>1212.4</ele>
        <time>2021-08-19T12:12:58Z</time>
      </trkpt>
      <trkpt lat="46.36455" lon="5.95654">
        <ele>1212.7</ele>
        <time>2021-08-19T12:12:59Z</time>
      </trkpt>
      <trkpt lat="46.36456" lon="5.95653">
        <ele>1212.9</ele>
        <time>2021-08-19T12:13:00Z</time>
      </trkpt>
      <trkpt lat="46.36457" lon="5.95649">
        <ele>1213.2</ele>
        <time>2021-08-19T12:13:02Z</time>
      </trkpt>
      <trkpt lat="46.36457" lon="5.95649">
        <ele>1213.2</ele>
        <time>2021-08-19T12:13:03Z</time>
      </trkpt>
      <trkpt lat="46.36455" lon="5.95643">
        <ele>1213.6</ele>
        <time>2021-08-19T12:13:05Z</time>
      </trkpt>
      <trkpt lat="46.36454" lon="5.95639">
        <ele>1213.9</ele>
        <time>2021-08-19T12:13:06Z</time>
      </trkpt>
      <trkpt lat="46.36452" lon="5.95636">
        <ele>1214.1</ele>
        <time>2021-08-19T12:13:08Z</time>
      </trkpt>
      <trkpt lat="46.3645" lon="5.95635">
        <ele>1214.3</ele>
        <time>2021-08-19T12:13:09Z</time>
      </trkpt>
      <trkpt lat="46.36449" lon="5.95633">
        <ele>1214.4</ele>
        <time>2021-08-19T12:13:10Z</time>
      </trkpt>
      <trkpt lat="46.36449" lon="5.95633">
        <ele>1214.4</ele>
        <time>2021-08-19T12:13:11Z</time>
      </trkpt>
      <trkpt lat="46.36449" lon="5.95631">
        <ele>1214.5</ele>
        <time>2021-08-19T12:13:13Z</time>
      </trkpt>
      <trkpt lat="46.36449" lon="5.95631">
        <ele>1214.5</ele>
        <time>2021-08-19T12:13:14Z</time>
      </trkpt>
      <trkpt lat="46.36449" lon="5.95631">
        <ele>1214.5</ele>
        <time>2021-08-19T12:13:15Z</time>
      </trkpt>
      <trkpt lat="46.36449" lon="5.9563">
        <ele>1214.6</ele>
        <time>2021-08-19T12:13:17Z</time>
      </trkpt>
      <trkpt lat="46.36448" lon="5.95629">
        <ele>1214.6</ele>
        <time>2021-08-19T12:13:18Z</time>
      </trkpt>
      <trkpt lat="46.36448" lon="5.95627">
        <ele>1214.7</ele>
        <time>2021-08-19T12:13:19Z</time>
      </trkpt>
      <trkpt lat="46.36439" lon="5.95618">
        <ele>1215.5</ele>
        <time>2021-08-19T12:13:28Z</time>
      </trkpt>
      <trkpt lat="46.36438" lon="5.95617">
        <ele>1215.7</ele>
        <time>2021-08-19T12:13:29Z</time>
      </trkpt>
      <trkpt lat="46.36436" lon="5.95616">
        <ele>1215.8</ele>
        <time>2021-08-19T12:13:30Z</time>
      </trkpt>
      <trkpt lat="46.36434" lon="5.95615">
        <ele>1215.9</ele>
        <time>2021-08-19T12:13:32Z</time>
      </trkpt>
      <trkpt lat="46.36434" lon="5.95615">
        <ele>1215.9</ele>
        <time>2021-08-19T12:13:33Z</time>
      </trkpt>
      <trkpt lat="46.36434" lon="5.95615">
        <ele>1216</ele>
        <time>2021-08-19T12:13:34Z</time>
      </trkpt>
      <trkpt lat="46.36434" lon="5.95614">
        <ele>1216</ele>
        <time>2021-08-19T12:13:35Z</time>
      </trkpt>
      <trkpt lat="46.36434" lon="5.95614">
        <ele>1216</ele>
        <time>2021-08-19T12:13:36Z</time>
      </trkpt>
      <trkpt lat="46.36432" lon="5.95613">
        <ele>1216.1</ele>
        <time>2021-08-19T12:13:38Z</time>
      </trkpt>
      <trkpt lat="46.36431" lon="5.95613">
        <ele>1216.2</ele>
        <time>2021-08-19T12:13:39Z</time>
      </trkpt>
      <trkpt lat="46.3643" lon="5.95613">
        <ele>1216.3</ele>
        <time>2021-08-19T12:13:41Z</time>
      </trkpt>
      <trkpt lat="46.36429" lon="5.95612">
        <ele>1216.4</ele>
        <time>2021-08-19T12:14:01Z</time>
      </trkpt>
      <trkpt lat="46.36428" lon="5.95612">
        <ele>1216.5</ele>
        <time>2021-08-19T12:14:02Z</time>
      </trkpt>
      <trkpt lat="46.36427" lon="5.95612">
        <ele>1216.5</ele>
        <time>2021-08-19T12:14:04Z</time>
      </trkpt>
      <trkpt lat="46.36426" lon="5.95611">
        <ele>1216.6</ele>
        <time>2021-08-19T12:14:05Z</time>
      </trkpt>
      <trkpt lat="46.36425" lon="5.95611">
        <ele>1216.7</ele>
        <time>2021-08-19T12:14:06Z</time>
      </trkpt>
      <trkpt lat="46.36423" lon="5.9561">
        <ele>1216.8</ele>
        <time>2021-08-19T12:14:09Z</time>
      </trkpt>
      <trkpt lat="46.36422" lon="5.9561">
        <ele>1216.9</ele>
        <time>2021-08-19T12:14:10Z</time>
      </trkpt>
      <trkpt lat="46.36421" lon="5.9561">
        <ele>1217</ele>
        <time>2021-08-19T12:14:12Z</time>
      </trkpt>
      <trkpt lat="46.3642" lon="5.95609">
        <ele>1217.1</ele>
        <time>2021-08-19T12:14:15Z</time>
      </trkpt>
      <trkpt lat="46.36419" lon="5.95609">
        <ele>1217.2</ele>
        <time>2021-08-19T12:14:16Z</time>
      </trkpt>
      <trkpt lat="46.36418" lon="5.95609">
        <ele>1217.3</ele>
        <time>2021-08-19T12:14:18Z</time>
      </trkpt>
      <trkpt lat="46.36417" lon="5.95608">
        <ele>1217.4</ele>
        <time>2021-08-19T12:14:20Z</time>
      </trkpt>
      <trkpt lat="46.36416" lon="5.95608">
        <ele>1217.5</ele>
        <time>2021-08-19T12:14:21Z</time>
      </trkpt>
      <trkpt lat="46.36415" lon="5.95608">
        <ele>1217.6</ele>
        <time>2021-08-19T12:14:22Z</time>
      </trkpt>
      <trkpt lat="46.36414" lon="5.95607">
        <ele>1217.7</ele>
        <time>2021-08-19T12:14:23Z</time>
      </trkpt>
      <trkpt lat="46.36413" lon="5.95607">
        <ele>1217.8</ele>
        <time>2021-08-19T12:14:24Z</time>
      </trkpt>
      <trkpt lat="46.36411" lon="5.95606">
        <ele>1217.9</ele>
        <time>2021-08-19T12:14:26Z</time>
      </trkpt>
      <trkpt lat="46.3641" lon="5.95606">
        <ele>1218</ele>
        <time>2021-08-19T12:14:27Z</time>
      </trkpt>
      <trkpt lat="46.36409" lon="5.95606">
        <ele>1218.1</ele>
        <time>2021-08-19T12:14:28Z</time>
      </trkpt>
      <trkpt lat="46.36408" lon="5.95605">
        <ele>1218.2</ele>
        <time>2021-08-19T12:14:30Z</time>
      </trkpt>
      <trkpt lat="46.36407" lon="5.95605">
        <ele>1218.3</ele>
        <time>2021-08-19T12:14:31Z</time>
      </trkpt>
      <trkpt lat="46.36406" lon="5.95605">
        <ele>1218.4</ele>
        <time>2021-08-19T12:14:32Z</time>
      </trkpt>
      <trkpt lat="46.36405" lon="5.95604">
        <ele>1218.5</ele>
        <time>2021-08-19T12:14:33Z</time>
      </trkpt>
      <trkpt lat="46.36404" lon="5.95604">
        <ele>1218.6</ele>
        <time>2021-08-19T12:14:35Z</time>
      </trkpt>
      <trkpt lat="46.36403" lon="5.95604">
        <ele>1218.7</ele>
        <time>2021-08-19T12:14:36Z</time>
      </trkpt>
      <trkpt lat="46.36402" lon="5.95603">
        <ele>1218.9</ele>
        <time>2021-08-19T12:14:37Z</time>
      </trkpt>
      <trkpt lat="46.36401" lon="5.95603">
        <ele>1219</ele>
        <time>2021-08-19T12:14:39Z</time>
      </trkpt>
      <trkpt lat="46.36399" lon="5.95603">
        <ele>1219.1</ele>
        <time>2021-08-19T12:14:40Z</time>
      </trkpt>
      <trkpt lat="46.36398" lon="5.95603">
        <ele>1219.3</ele>
        <time>2021-08-19T12:14:41Z</time>
      </trkpt>
      <trkpt lat="46.36396" lon="5.95603">
        <ele>1219.4</ele>
        <time>2021-08-19T12:14:42Z</time>
      </trkpt>
      <trkpt lat="46.36394" lon="5.95603">
        <ele>1219.7</ele>
        <time>2021-08-19T12:14:44Z</time>
      </trkpt>
      <trkpt lat="46.36393" lon="5.95603">
        <ele>1219.8</ele>
        <time>2021-08-19T12:14:45Z</time>
      </trkpt>
      <trkpt lat="46.36391" lon="5.95603">
        <ele>1220</ele>
        <time>2021-08-19T12:14:46Z</time>
      </trkpt>
      <trkpt lat="46.3639" lon="5.95603">
        <ele>1220.2</ele>
        <time>2021-08-19T12:14:47Z</time>
      </trkpt>
      <trkpt lat="46.36387" lon="5.95601">
        <ele>1220.6</ele>
        <time>2021-08-19T12:14:49Z</time>
      </trkpt>
      <trkpt lat="46.36383" lon="5.956">
        <ele>1220.9</ele>
        <time>2021-08-19T12:14:50Z</time>
      </trkpt>
      <trkpt lat="46.36381" lon="5.95599">
        <ele>1221.2</ele>
        <time>2021-08-19T12:14:51Z</time>
      </trkpt>
      <trkpt lat="46.36378" lon="5.95598">
        <ele>1221.5</ele>
        <time>2021-08-19T12:14:53Z</time>
      </trkpt>
      <trkpt lat="46.36378" lon="5.95598">
        <ele>1221.5</ele>
        <time>2021-08-19T12:14:54Z</time>
      </trkpt>
      <trkpt lat="46.36375" lon="5.95596">
        <ele>1221.8</ele>
        <time>2021-08-19T12:14:56Z</time>
      </trkpt>
      <trkpt lat="46.36375" lon="5.95595">
        <ele>1221.9</ele>
        <time>2021-08-19T12:14:57Z</time>
      </trkpt>
      <trkpt lat="46.36374" lon="5.95594">
        <ele>1222.1</ele>
        <time>2021-08-19T12:14:58Z</time>
      </trkpt>
      <trkpt lat="46.36371" lon="5.95594">
        <ele>1222.4</ele>
        <time>2021-08-19T12:15:00Z</time>
      </trkpt>
      <trkpt lat="46.36369" lon="5.95593">
        <ele>1222.6</ele>
        <time>2021-08-19T12:15:02Z</time>
      </trkpt>
      <trkpt lat="46.36368" lon="5.95593">
        <ele>1222.6</ele>
        <time>2021-08-19T12:15:04Z</time>
      </trkpt>
      <trkpt lat="46.36368" lon="5.95593">
        <ele>1222.7</ele>
        <time>2021-08-19T12:15:05Z</time>
      </trkpt>
      <trkpt lat="46.36367" lon="5.95593">
        <ele>1222.7</ele>
        <time>2021-08-19T12:15:07Z</time>
      </trkpt>
      <trkpt lat="46.36366" lon="5.95593">
        <ele>1222.8</ele>
        <time>2021-08-19T12:15:08Z</time>
      </trkpt>
      <trkpt lat="46.36365" lon="5.95592">
        <ele>1222.9</ele>
        <time>2021-08-19T12:15:10Z</time>
      </trkpt>
      <trkpt lat="46.36344" lon="5.95593">
        <ele>1224.5</ele>
        <time>2021-08-19T12:15:53Z</time>
      </trkpt>
      <trkpt lat="46.36341" lon="5.95593">
        <ele>1224.7</ele>
        <time>2021-08-19T12:15:54Z</time>
      </trkpt>
      <trkpt lat="46.36338" lon="5.95593">
        <ele>1224.9</ele>
        <time>2021-08-19T12:15:55Z</time>
      </trkpt>
      <trkpt lat="46.36337" lon="5.95593">
        <ele>1225</ele>
        <time>2021-08-19T12:15:56Z</time>
      </trkpt>
      <trkpt lat="46.36335" lon="5.95593">
        <ele>1225.1</ele>
        <time>2021-08-19T12:15:57Z</time>
      </trkpt>
      <trkpt lat="46.36333" lon="5.95593">
        <ele>1225.2</ele>
        <time>2021-08-19T12:15:59Z</time>
      </trkpt>
      <trkpt lat="46.36331" lon="5.95593">
        <ele>1225.3</ele>
        <time>2021-08-19T12:16:00Z</time>
      </trkpt>
      <trkpt lat="46.3633" lon="5.95593">
        <ele>1225.3</ele>
        <time>2021-08-19T12:16:01Z</time>
      </trkpt>
      <trkpt lat="46.3633" lon="5.95592">
        <ele>1225.4</ele>
        <time>2021-08-19T12:16:03Z</time>
      </trkpt>
      <trkpt lat="46.36329" lon="5.95592">
        <ele>1225.4</ele>
        <time>2021-08-19T12:16:04Z</time>
      </trkpt>
      <trkpt lat="46.36329" lon="5.95591">
        <ele>1225.4</ele>
        <time>2021-08-19T12:16:05Z</time>
      </trkpt>
      <trkpt lat="46.36328" lon="5.95591">
        <ele>1225.5</ele>
        <time>2021-08-19T12:16:07Z</time>
      </trkpt>
      <trkpt lat="46.36328" lon="5.9559">
        <ele>1225.5</ele>
        <time>2021-08-19T12:16:08Z</time>
      </trkpt>
      <trkpt lat="46.36326" lon="5.95588">
        <ele>1225.6</ele>
        <time>2021-08-19T12:16:10Z</time>
      </trkpt>
      <trkpt lat="46.3632" lon="5.95584">
        <ele>1225.9</ele>
        <time>2021-08-19T12:16:14Z</time>
      </trkpt>
      <trkpt lat="46.36318" lon="5.95582">
        <ele>1226.1</ele>
        <time>2021-08-19T12:16:15Z</time>
      </trkpt>
      <trkpt lat="46.36316" lon="5.9558">
        <ele>1226.2</ele>
        <time>2021-08-19T12:16:17Z</time>
      </trkpt>
      <trkpt lat="46.36314" lon="5.95579">
        <ele>1226.2</ele>
        <time>2021-08-19T12:16:18Z</time>
      </trkpt>
      <trkpt lat="46.36313" lon="5.95578">
        <ele>1226.3</ele>
        <time>2021-08-19T12:16:19Z</time>
      </trkpt>
      <trkpt lat="46.36311" lon="5.95577">
        <ele>1226.4</ele>
        <time>2021-08-19T12:16:20Z</time>
      </trkpt>
      <trkpt lat="46.36309" lon="5.95576">
        <ele>1226.4</ele>
        <time>2021-08-19T12:16:21Z</time>
      </trkpt>
      <trkpt lat="46.36308" lon="5.95575">
        <ele>1226.5</ele>
        <time>2021-08-19T12:16:22Z</time>
      </trkpt>
      <trkpt lat="46.36307" lon="5.95574">
        <ele>1226.6</ele>
        <time>2021-08-19T12:16:23Z</time>
      </trkpt>
      <trkpt lat="46.36304" lon="5.95572">
        <ele>1226.6</ele>
        <time>2021-08-19T12:16:25Z</time>
      </trkpt>
      <trkpt lat="46.36303" lon="5.95572">
        <ele>1226.7</ele>
        <time>2021-08-19T12:16:26Z</time>
      </trkpt>
      <trkpt lat="46.36301" lon="5.95571">
        <ele>1226.7</ele>
        <time>2021-08-19T12:16:27Z</time>
      </trkpt>
      <trkpt lat="46.36299" lon="5.95571">
        <ele>1226.8</ele>
        <time>2021-08-19T12:16:29Z</time>
      </trkpt>
      <trkpt lat="46.36299" lon="5.95571">
        <ele>1226.8</ele>
        <time>2021-08-19T12:16:30Z</time>
      </trkpt>
      <trkpt lat="46.36298" lon="5.95571">
        <ele>1226.8</ele>
        <time>2021-08-19T12:16:31Z</time>
      </trkpt>
      <trkpt lat="46.36297" lon="5.95571">
        <ele>1226.9</ele>
        <time>2021-08-19T12:16:32Z</time>
      </trkpt>
      <trkpt lat="46.36296" lon="5.95571">
        <ele>1226.9</ele>
        <time>2021-08-19T12:16:33Z</time>
      </trkpt>
      <trkpt lat="46.36296" lon="5.95571">
        <ele>1226.9</ele>
        <time>2021-08-19T12:16:35Z</time>
      </trkpt>
      <trkpt lat="46.36296" lon="5.95571">
        <ele>1226.9</ele>
        <time>2021-08-19T12:16:36Z</time>
      </trkpt>
      <trkpt lat="46.36296" lon="5.9557">
        <ele>1226.9</ele>
        <time>2021-08-19T12:16:38Z</time>
      </trkpt>
      <trkpt lat="46.36295" lon="5.9557">
        <ele>1226.9</ele>
        <time>2021-08-19T12:16:39Z</time>
      </trkpt>
      <trkpt lat="46.36295" lon="5.9557">
        <ele>1226.9</ele>
        <time>2021-08-19T12:16:41Z</time>
      </trkpt>
      <trkpt lat="46.36295" lon="5.9557">
        <ele>1226.9</ele>
        <time>2021-08-19T12:16:42Z</time>
      </trkpt>
      <trkpt lat="46.36295" lon="5.9557">
        <ele>1226.9</ele>
        <time>2021-08-19T12:16:43Z</time>
      </trkpt>
      <trkpt lat="46.36295" lon="5.9557">
        <ele>1226.9</ele>
        <time>2021-08-19T12:16:45Z</time>
      </trkpt>
      <trkpt lat="46.3628" lon="5.95573">
        <ele>1227.1</ele>
        <time>2021-08-19T12:16:52Z</time>
      </trkpt>
      <trkpt lat="46.36277" lon="5.95573">
        <ele>1227.1</ele>
        <time>2021-08-19T12:16:53Z</time>
      </trkpt>
      <trkpt lat="46.36271" lon="5.95573">
        <ele>1227.1</ele>
        <time>2021-08-19T12:16:54Z</time>
      </trkpt>
      <trkpt lat="46.36266" lon="5.95573">
        <ele>1227.1</ele>
        <time>2021-08-19T12:16:56Z</time>
      </trkpt>
      <trkpt lat="46.36262" lon="5.95572">
        <ele>1227.2</ele>
        <time>2021-08-19T12:16:57Z</time>
      </trkpt>
      <trkpt lat="46.36258" lon="5.95571">
        <ele>1227.2</ele>
        <time>2021-08-19T12:16:58Z</time>
      </trkpt>
      <trkpt lat="46.36254" lon="5.9557">
        <ele>1227.3</ele>
        <time>2021-08-19T12:16:59Z</time>
      </trkpt>
      <trkpt lat="46.3625" lon="5.95568">
        <ele>1227.3</ele>
        <time>2021-08-19T12:17:00Z</time>
      </trkpt>
      <trkpt lat="46.36249" lon="5.95567">
        <ele>1227.4</ele>
        <time>2021-08-19T12:17:01Z</time>
      </trkpt>
      <trkpt lat="46.36245" lon="5.95565">
        <ele>1227.4</ele>
        <time>2021-08-19T12:17:03Z</time>
      </trkpt>
      <trkpt lat="46.36243" lon="5.95564">
        <ele>1227.5</ele>
        <time>2021-08-19T12:17:04Z</time>
      </trkpt>
      <trkpt lat="46.3624" lon="5.95561">
        <ele>1227.5</ele>
        <time>2021-08-19T12:17:06Z</time>
      </trkpt>
      <trkpt lat="46.36237" lon="5.9556">
        <ele>1227.5</ele>
        <time>2021-08-19T12:17:07Z</time>
      </trkpt>
      <trkpt lat="46.36232" lon="5.95558">
        <ele>1227.6</ele>
        <time>2021-08-19T12:17:09Z</time>
      </trkpt>
      <trkpt lat="46.36227" lon="5.95554">
        <ele>1227.7</ele>
        <time>2021-08-19T12:17:11Z</time>
      </trkpt>
      <trkpt lat="46.36222" lon="5.95553">
        <ele>1227.7</ele>
        <time>2021-08-19T12:17:12Z</time>
      </trkpt>
      <trkpt lat="46.36218" lon="5.95552">
        <ele>1227.8</ele>
        <time>2021-08-19T12:17:13Z</time>
      </trkpt>
      <trkpt lat="46.36214" lon="5.9555">
        <ele>1227.9</ele>
        <time>2021-08-19T12:17:14Z</time>
      </trkpt>
      <trkpt lat="46.36211" lon="5.9555">
        <ele>1228</ele>
        <time>2021-08-19T12:17:15Z</time>
      </trkpt>
      <trkpt lat="46.36208" lon="5.95548">
        <ele>1228.1</ele>
        <time>2021-08-19T12:17:16Z</time>
      </trkpt>
      <trkpt lat="46.36203" lon="5.95546">
        <ele>1228.3</ele>
        <time>2021-08-19T12:17:18Z</time>
      </trkpt>
      <trkpt lat="46.36201" lon="5.95545">
        <ele>1228.3</ele>
        <time>2021-08-19T12:17:19Z</time>
      </trkpt>
      <trkpt lat="46.362" lon="5.95544">
        <ele>1228.4</ele>
        <time>2021-08-19T12:17:20Z</time>
      </trkpt>
      <trkpt lat="46.36197" lon="5.95542">
        <ele>1228.5</ele>
        <time>2021-08-19T12:17:21Z</time>
      </trkpt>
      <trkpt lat="46.36196" lon="5.95542">
        <ele>1228.5</ele>
        <time>2021-08-19T12:17:22Z</time>
      </trkpt>
      <trkpt lat="46.36193" lon="5.9554">
        <ele>1228.6</ele>
        <time>2021-08-19T12:17:24Z</time>
      </trkpt>
      <trkpt lat="46.36192" lon="5.9554">
        <ele>1228.6</ele>
        <time>2021-08-19T12:17:25Z</time>
      </trkpt>
      <trkpt lat="46.36189" lon="5.9554">
        <ele>1228.7</ele>
        <time>2021-08-19T12:17:26Z</time>
      </trkpt>
      <trkpt lat="46.36186" lon="5.95539">
        <ele>1228.8</ele>
        <time>2021-08-19T12:17:28Z</time>
      </trkpt>
      <trkpt lat="46.36181" lon="5.95539">
        <ele>1228.9</ele>
        <time>2021-08-19T12:17:29Z</time>
      </trkpt>
      <trkpt lat="46.3618" lon="5.95539">
        <ele>1229</ele>
        <time>2021-08-19T12:17:30Z</time>
      </trkpt>
      <trkpt lat="46.36177" lon="5.95538">
        <ele>1229.1</ele>
        <time>2021-08-19T12:17:32Z</time>
      </trkpt>
      <trkpt lat="46.36173" lon="5.95537">
        <ele>1229.2</ele>
        <time>2021-08-19T12:17:33Z</time>
      </trkpt>
      <trkpt lat="46.3617" lon="5.95537">
        <ele>1229.3</ele>
        <time>2021-08-19T12:17:35Z</time>
      </trkpt>
      <trkpt lat="46.36166" lon="5.95536">
        <ele>1229.4</ele>
        <time>2021-08-19T12:17:36Z</time>
      </trkpt>
      <trkpt lat="46.36162" lon="5.95535">
        <ele>1229.5</ele>
        <time>2021-08-19T12:17:37Z</time>
      </trkpt>
      <trkpt lat="46.36161" lon="5.95534">
        <ele>1229.6</ele>
        <time>2021-08-19T12:17:38Z</time>
      </trkpt>
      <trkpt lat="46.36157" lon="5.95533">
        <ele>1229.7</ele>
        <time>2021-08-19T12:17:40Z</time>
      </trkpt>
      <trkpt lat="46.36155" lon="5.95532">
        <ele>1229.7</ele>
        <time>2021-08-19T12:17:41Z</time>
      </trkpt>
      <trkpt lat="46.36154" lon="5.95532">
        <ele>1229.8</ele>
        <time>2021-08-19T12:17:42Z</time>
      </trkpt>
      <trkpt lat="46.36149" lon="5.9553">
        <ele>1230</ele>
        <time>2021-08-19T12:17:44Z</time>
      </trkpt>
      <trkpt lat="46.36148" lon="5.95529">
        <ele>1230</ele>
        <time>2021-08-19T12:17:45Z</time>
      </trkpt>
      <trkpt lat="46.36146" lon="5.95529">
        <ele>1230.1</ele>
        <time>2021-08-19T12:17:46Z</time>
      </trkpt>
      <trkpt lat="46.36143" lon="5.95529">
        <ele>1230.2</ele>
        <time>2021-08-19T12:17:47Z</time>
      </trkpt>
      <trkpt lat="46.36142" lon="5.95529">
        <ele>1230.2</ele>
        <time>2021-08-19T12:17:48Z</time>
      </trkpt>
      <trkpt lat="46.36138" lon="5.95529">
        <ele>1230.4</ele>
        <time>2021-08-19T12:17:49Z</time>
      </trkpt>
      <trkpt lat="46.36137" lon="5.95528">
        <ele>1230.5</ele>
        <time>2021-08-19T12:17:50Z</time>
      </trkpt>
      <trkpt lat="46.36134" lon="5.95527">
        <ele>1230.6</ele>
        <time>2021-08-19T12:17:51Z</time>
      </trkpt>
      <trkpt lat="46.3613" lon="5.95526">
        <ele>1230.8</ele>
        <time>2021-08-19T12:17:53Z</time>
      </trkpt>
      <trkpt lat="46.36128" lon="5.95522">
        <ele>1231</ele>
        <time>2021-08-19T12:17:54Z</time>
      </trkpt>
      <trkpt lat="46.36127" lon="5.95521">
        <ele>1231.1</ele>
        <time>2021-08-19T12:17:55Z</time>
      </trkpt>
      <trkpt lat="46.36126" lon="5.95519">
        <ele>1231.2</ele>
        <time>2021-08-19T12:17:56Z</time>
      </trkpt>
      <trkpt lat="46.36122" lon="5.95514">
        <ele>1231.5</ele>
        <time>2021-08-19T12:17:58Z</time>
      </trkpt>
      <trkpt lat="46.36118" lon="5.95511">
        <ele>1231.7</ele>
        <time>2021-08-19T12:18:00Z</time>
      </trkpt>
      <trkpt lat="46.36117" lon="5.95509">
        <ele>1231.8</ele>
        <time>2021-08-19T12:18:01Z</time>
      </trkpt>
      <trkpt lat="46.36116" lon="5.95509">
        <ele>1231.9</ele>
        <time>2021-08-19T12:18:03Z</time>
      </trkpt>
      <trkpt lat="46.36118" lon="5.95509">
        <ele>1232</ele>
        <time>2021-08-19T12:18:05Z</time>
      </trkpt>
      <trkpt lat="46.36118" lon="5.9551">
        <ele>1232</ele>
        <time>2021-08-19T12:18:06Z</time>
      </trkpt>
      <trkpt lat="46.36118" lon="5.9551">
        <ele>1232</ele>
        <time>2021-08-19T12:18:07Z</time>
      </trkpt>
      <trkpt lat="46.36117" lon="5.95509">
        <ele>1232.1</ele>
        <time>2021-08-19T12:18:08Z</time>
      </trkpt>
      <trkpt lat="46.36115" lon="5.95507">
        <ele>1232.2</ele>
        <time>2021-08-19T12:18:10Z</time>
      </trkpt>
      <trkpt lat="46.36113" lon="5.95504">
        <ele>1232.4</ele>
        <time>2021-08-19T12:18:11Z</time>
      </trkpt>
      <trkpt lat="46.36112" lon="5.95503">
        <ele>1232.5</ele>
        <time>2021-08-19T12:18:12Z</time>
      </trkpt>
      <trkpt lat="46.3611" lon="5.95501">
        <ele>1232.6</ele>
        <time>2021-08-19T12:18:13Z</time>
      </trkpt>
      <trkpt lat="46.36109" lon="5.955">
        <ele>1232.7</ele>
        <time>2021-08-19T12:18:14Z</time>
      </trkpt>
      <trkpt lat="46.36108" lon="5.95498">
        <ele>1232.8</ele>
        <time>2021-08-19T12:18:15Z</time>
      </trkpt>
      <trkpt lat="46.36106" lon="5.95497">
        <ele>1232.9</ele>
        <time>2021-08-19T12:18:16Z</time>
      </trkpt>
      <trkpt lat="46.36104" lon="5.95494">
        <ele>1233.1</ele>
        <time>2021-08-19T12:18:17Z</time>
      </trkpt>
      <trkpt lat="46.36104" lon="5.95493">
        <ele>1233.2</ele>
        <time>2021-08-19T12:18:18Z</time>
      </trkpt>
      <trkpt lat="46.36102" lon="5.9549">
        <ele>1233.4</ele>
        <time>2021-08-19T12:18:19Z</time>
      </trkpt>
      <trkpt lat="46.36101" lon="5.95488">
        <ele>1233.4</ele>
        <time>2021-08-19T12:18:20Z</time>
      </trkpt>
      <trkpt lat="46.361" lon="5.95484">
        <ele>1233.7</ele>
        <time>2021-08-19T12:18:22Z</time>
      </trkpt>
      <trkpt lat="46.36098" lon="5.95481">
        <ele>1233.9</ele>
        <time>2021-08-19T12:18:24Z</time>
      </trkpt>
      <trkpt lat="46.36095" lon="5.95478">
        <ele>1234.1</ele>
        <time>2021-08-19T12:18:25Z</time>
      </trkpt>
      <trkpt lat="46.36093" lon="5.95475">
        <ele>1234.3</ele>
        <time>2021-08-19T12:18:26Z</time>
      </trkpt>
      <trkpt lat="46.36091" lon="5.95472">
        <ele>1234.5</ele>
        <time>2021-08-19T12:18:27Z</time>
      </trkpt>
      <trkpt lat="46.36088" lon="5.95468">
        <ele>1234.7</ele>
        <time>2021-08-19T12:18:29Z</time>
      </trkpt>
      <trkpt lat="46.36087" lon="5.95467">
        <ele>1234.8</ele>
        <time>2021-08-19T12:18:30Z</time>
      </trkpt>
      <trkpt lat="46.36084" lon="5.95463">
        <ele>1235.1</ele>
        <time>2021-08-19T12:18:32Z</time>
      </trkpt>
      <trkpt lat="46.36081" lon="5.95458">
        <ele>1235.4</ele>
        <time>2021-08-19T12:18:34Z</time>
      </trkpt>
      <trkpt lat="46.36079" lon="5.95455">
        <ele>1235.6</ele>
        <time>2021-08-19T12:18:35Z</time>
      </trkpt>
      <trkpt lat="46.36078" lon="5.95454">
        <ele>1235.6</ele>
        <time>2021-08-19T12:18:36Z</time>
      </trkpt>
      <trkpt lat="46.36077" lon="5.95453">
        <ele>1235.7</ele>
        <time>2021-08-19T12:18:37Z</time>
      </trkpt>
      <trkpt lat="46.36076" lon="5.95451">
        <ele>1235.8</ele>
        <time>2021-08-19T12:18:38Z</time>
      </trkpt>
      <trkpt lat="46.36073" lon="5.95447">
        <ele>1236.1</ele>
        <time>2021-08-19T12:18:40Z</time>
      </trkpt>
      <trkpt lat="46.36072" lon="5.95445">
        <ele>1236.2</ele>
        <time>2021-08-19T12:18:41Z</time>
      </trkpt>
      <trkpt lat="46.36071" lon="5.95444">
        <ele>1236.3</ele>
        <time>2021-08-19T12:18:42Z</time>
      </trkpt>
      <trkpt lat="46.36069" lon="5.95442">
        <ele>1236.4</ele>
        <time>2021-08-19T12:18:43Z</time>
      </trkpt>
      <trkpt lat="46.36068" lon="5.95441">
        <ele>1236.5</ele>
        <time>2021-08-19T12:18:44Z</time>
      </trkpt>
      <trkpt lat="46.36065" lon="5.95436">
        <ele>1236.7</ele>
        <time>2021-08-19T12:18:46Z</time>
      </trkpt>
      <trkpt lat="46.36065" lon="5.95434">
        <ele>1236.7</ele>
        <time>2021-08-19T12:18:47Z</time>
      </trkpt>
      <trkpt lat="46.36064" lon="5.95432">
        <ele>1236.8</ele>
        <time>2021-08-19T12:18:48Z</time>
      </trkpt>
      <trkpt lat="46.36062" lon="5.95428">
        <ele>1237</ele>
        <time>2021-08-19T12:18:50Z</time>
      </trkpt>
      <trkpt lat="46.36061" lon="5.95427">
        <ele>1237</ele>
        <time>2021-08-19T12:18:51Z</time>
      </trkpt>
      <trkpt lat="46.3606" lon="5.95426">
        <ele>1237.1</ele>
        <time>2021-08-19T12:18:53Z</time>
      </trkpt>
      <trkpt lat="46.36058" lon="5.95425">
        <ele>1237.2</ele>
        <time>2021-08-19T12:18:54Z</time>
      </trkpt>
      <trkpt lat="46.36057" lon="5.95423">
        <ele>1237.2</ele>
        <time>2021-08-19T12:18:55Z</time>
      </trkpt>
      <trkpt lat="46.36055" lon="5.95422">
        <ele>1237.3</ele>
        <time>2021-08-19T12:18:56Z</time>
      </trkpt>
      <trkpt lat="46.36052" lon="5.95421">
        <ele>1237.5</ele>
        <time>2021-08-19T12:18:58Z</time>
      </trkpt>
      <trkpt lat="46.36048" lon="5.9542">
        <ele>1237.6</ele>
        <time>2021-08-19T12:19:00Z</time>
      </trkpt>
      <trkpt lat="46.36046" lon="5.95419">
        <ele>1237.7</ele>
        <time>2021-08-19T12:19:01Z</time>
      </trkpt>
      <trkpt lat="46.36045" lon="5.95419">
        <ele>1237.8</ele>
        <time>2021-08-19T12:19:02Z</time>
      </trkpt>
      <trkpt lat="46.36042" lon="5.95419">
        <ele>1238</ele>
        <time>2021-08-19T12:19:04Z</time>
      </trkpt>
      <trkpt lat="46.3604" lon="5.95418">
        <ele>1238.1</ele>
        <time>2021-08-19T12:19:05Z</time>
      </trkpt>
      <trkpt lat="46.36037" lon="5.9542">
        <ele>1238.2</ele>
        <time>2021-08-19T12:19:07Z</time>
      </trkpt>
      <trkpt lat="46.36035" lon="5.95418">
        <ele>1238.3</ele>
        <time>2021-08-19T12:19:08Z</time>
      </trkpt>
      <trkpt lat="46.36034" lon="5.95418">
        <ele>1238.4</ele>
        <time>2021-08-19T12:19:09Z</time>
      </trkpt>
      <trkpt lat="46.36029" lon="5.95416">
        <ele>1238.7</ele>
        <time>2021-08-19T12:19:11Z</time>
      </trkpt>
      <trkpt lat="46.36026" lon="5.95416">
        <ele>1238.9</ele>
        <time>2021-08-19T12:19:12Z</time>
      </trkpt>
      <trkpt lat="46.36025" lon="5.95416">
        <ele>1238.9</ele>
        <time>2021-08-19T12:19:13Z</time>
      </trkpt>
      <trkpt lat="46.36023" lon="5.95415">
        <ele>1239</ele>
        <time>2021-08-19T12:19:14Z</time>
      </trkpt>
      <trkpt lat="46.3602" lon="5.95414">
        <ele>1239.3</ele>
        <time>2021-08-19T12:19:16Z</time>
      </trkpt>
      <trkpt lat="46.36017" lon="5.95412">
        <ele>1239.5</ele>
        <time>2021-08-19T12:19:17Z</time>
      </trkpt>
      <trkpt lat="46.36014" lon="5.95412">
        <ele>1239.6</ele>
        <time>2021-08-19T12:19:18Z</time>
      </trkpt>
      <trkpt lat="46.36012" lon="5.95411">
        <ele>1239.8</ele>
        <time>2021-08-19T12:19:20Z</time>
      </trkpt>
      <trkpt lat="46.36009" lon="5.95409">
        <ele>1240</ele>
        <time>2021-08-19T12:19:21Z</time>
      </trkpt>
      <trkpt lat="46.36008" lon="5.95409">
        <ele>1240.1</ele>
        <time>2021-08-19T12:19:22Z</time>
      </trkpt>
      <trkpt lat="46.36005" lon="5.95407">
        <ele>1240.3</ele>
        <time>2021-08-19T12:19:23Z</time>
      </trkpt>
      <trkpt lat="46.36004" lon="5.95407">
        <ele>1240.4</ele>
        <time>2021-08-19T12:19:24Z</time>
      </trkpt>
      <trkpt lat="46.36001" lon="5.95407">
        <ele>1240.5</ele>
        <time>2021-08-19T12:19:26Z</time>
      </trkpt>
      <trkpt lat="46.36001" lon="5.95406">
        <ele>1240.6</ele>
        <time>2021-08-19T12:19:27Z</time>
      </trkpt>
      <trkpt lat="46.36" lon="5.95405">
        <ele>1240.6</ele>
        <time>2021-08-19T12:19:29Z</time>
      </trkpt>
      <trkpt lat="46.36" lon="5.95405">
        <ele>1240.7</ele>
        <time>2021-08-19T12:19:30Z</time>
      </trkpt>
      <trkpt lat="46.36" lon="5.95405">
        <ele>1240.7</ele>
        <time>2021-08-19T12:19:32Z</time>
      </trkpt>
      <trkpt lat="46.36" lon="5.95405">
        <ele>1240.7</ele>
        <time>2021-08-19T12:19:34Z</time>
      </trkpt>
      <trkpt lat="46.35956" lon="5.95289">
        <ele>1252.8</ele>
        <time>2021-08-19T12:22:37Z</time>
      </trkpt>
      <trkpt lat="46.35953" lon="5.95287">
        <ele>1253</ele>
        <time>2021-08-19T12:22:38Z</time>
      </trkpt>
      <trkpt lat="46.35952" lon="5.95285">
        <ele>1253.1</ele>
        <time>2021-08-19T12:22:40Z</time>
      </trkpt>
      <trkpt lat="46.35951" lon="5.95283">
        <ele>1253.2</ele>
        <time>2021-08-19T12:22:41Z</time>
      </trkpt>
      <trkpt lat="46.35949" lon="5.95282">
        <ele>1253.3</ele>
        <time>2021-08-19T12:22:43Z</time>
      </trkpt>
      <trkpt lat="46.35948" lon="5.95281">
        <ele>1253.4</ele>
        <time>2021-08-19T12:22:44Z</time>
      </trkpt>
      <trkpt lat="46.35946" lon="5.95279">
        <ele>1253.5</ele>
        <time>2021-08-19T12:22:46Z</time>
      </trkpt>
      <trkpt lat="46.35945" lon="5.95278">
        <ele>1253.5</ele>
        <time>2021-08-19T12:22:48Z</time>
      </trkpt>
      <trkpt lat="46.35944" lon="5.95276">
        <ele>1253.6</ele>
        <time>2021-08-19T12:22:50Z</time>
      </trkpt>
      <trkpt lat="46.35942" lon="5.95275">
        <ele>1253.7</ele>
        <time>2021-08-19T12:22:59Z</time>
      </trkpt>
      <trkpt lat="46.35941" lon="5.95273">
        <ele>1253.7</ele>
        <time>2021-08-19T12:23:00Z</time>
      </trkpt>
      <trkpt lat="46.35939" lon="5.95272">
        <ele>1253.8</ele>
        <time>2021-08-19T12:23:01Z</time>
      </trkpt>
      <trkpt lat="46.35937" lon="5.9527">
        <ele>1253.8</ele>
        <time>2021-08-19T12:23:02Z</time>
      </trkpt>
      <trkpt lat="46.35933" lon="5.95269">
        <ele>1253.9</ele>
        <time>2021-08-19T12:23:04Z</time>
      </trkpt>
      <trkpt lat="46.3593" lon="5.95269">
        <ele>1253.9</ele>
        <time>2021-08-19T12:23:05Z</time>
      </trkpt>
      <trkpt lat="46.35926" lon="5.95268">
        <ele>1253.9</ele>
        <time>2021-08-19T12:23:06Z</time>
      </trkpt>
      <trkpt lat="46.35921" lon="5.95267">
        <ele>1253.9</ele>
        <time>2021-08-19T12:23:07Z</time>
      </trkpt>
      <trkpt lat="46.35916" lon="5.95264">
        <ele>1253.8</ele>
        <time>2021-08-19T12:23:09Z</time>
      </trkpt>
      <trkpt lat="46.35914" lon="5.95262">
        <ele>1253.8</ele>
        <time>2021-08-19T12:23:10Z</time>
      </trkpt>
      <trkpt lat="46.35911" lon="5.9526">
        <ele>1253.8</ele>
        <time>2021-08-19T12:23:11Z</time>
      </trkpt>
      <trkpt lat="46.35907" lon="5.95257">
        <ele>1253.8</ele>
        <time>2021-08-19T12:23:13Z</time>
      </trkpt>
      <trkpt lat="46.35905" lon="5.95254">
        <ele>1253.9</ele>
        <time>2021-08-19T12:23:14Z</time>
      </trkpt>
      <trkpt lat="46.35903" lon="5.95251">
        <ele>1253.9</ele>
        <time>2021-08-19T12:23:15Z</time>
      </trkpt>
      <trkpt lat="46.35901" lon="5.9525">
        <ele>1253.9</ele>
        <time>2021-08-19T12:23:17Z</time>
      </trkpt>
      <trkpt lat="46.35897" lon="5.95248">
        <ele>1254</ele>
        <time>2021-08-19T12:23:18Z</time>
      </trkpt>
      <trkpt lat="46.35893" lon="5.95249">
        <ele>1254</ele>
        <time>2021-08-19T12:23:20Z</time>
      </trkpt>
      <trkpt lat="46.35891" lon="5.9525">
        <ele>1254.1</ele>
        <time>2021-08-19T12:23:21Z</time>
      </trkpt>
      <trkpt lat="46.35889" lon="5.9525">
        <ele>1254.1</ele>
        <time>2021-08-19T12:23:22Z</time>
      </trkpt>
      <trkpt lat="46.35886" lon="5.95247">
        <ele>1254.1</ele>
        <time>2021-08-19T12:23:24Z</time>
      </trkpt>
      <trkpt lat="46.35882" lon="5.95243">
        <ele>1254.2</ele>
        <time>2021-08-19T12:23:26Z</time>
      </trkpt>
      <trkpt lat="46.35879" lon="5.95241">
        <ele>1254.2</ele>
        <time>2021-08-19T12:23:27Z</time>
      </trkpt>
      <trkpt lat="46.35877" lon="5.95238">
        <ele>1254.3</ele>
        <time>2021-08-19T12:23:28Z</time>
      </trkpt>
      <trkpt lat="46.35876" lon="5.95238">
        <ele>1254.3</ele>
        <time>2021-08-19T12:23:29Z</time>
      </trkpt>
      <trkpt lat="46.35874" lon="5.95236">
        <ele>1254.3</ele>
        <time>2021-08-19T12:23:30Z</time>
      </trkpt>
      <trkpt lat="46.3587" lon="5.95235">
        <ele>1254.4</ele>
        <time>2021-08-19T12:23:32Z</time>
      </trkpt>
      <trkpt lat="46.35868" lon="5.95231">
        <ele>1254.5</ele>
        <time>2021-08-19T12:23:34Z</time>
      </trkpt>
      <trkpt lat="46.35866" lon="5.9523">
        <ele>1254.6</ele>
        <time>2021-08-19T12:23:35Z</time>
      </trkpt>
      <trkpt lat="46.35864" lon="5.95228">
        <ele>1254.8</ele>
        <time>2021-08-19T12:23:36Z</time>
      </trkpt>
      <trkpt lat="46.35861" lon="5.95225">
        <ele>1254.9</ele>
        <time>2021-08-19T12:23:38Z</time>
      </trkpt>
      <trkpt lat="46.3586" lon="5.95224">
        <ele>1255</ele>
        <time>2021-08-19T12:23:39Z</time>
      </trkpt>
      <trkpt lat="46.35858" lon="5.95223">
        <ele>1255.1</ele>
        <time>2021-08-19T12:23:40Z</time>
      </trkpt>
      <trkpt lat="46.35857" lon="5.95223">
        <ele>1255.2</ele>
        <time>2021-08-19T12:23:41Z</time>
      </trkpt>
      <trkpt lat="46.35856" lon="5.95223">
        <ele>1255.2</ele>
        <time>2021-08-19T12:23:42Z</time>
      </trkpt>
      <trkpt lat="46.35855" lon="5.95223">
        <ele>1255.3</ele>
        <time>2021-08-19T12:23:43Z</time>
      </trkpt>
      <trkpt lat="46.35853" lon="5.95226">
        <ele>1255.4</ele>
        <time>2021-08-19T12:23:45Z</time>
      </trkpt>
      <trkpt lat="46.3585" lon="5.95226">
        <ele>1255.5</ele>
        <time>2021-08-19T12:23:47Z</time>
      </trkpt>
      <trkpt lat="46.35849" lon="5.95225">
        <ele>1255.6</ele>
        <time>2021-08-19T12:23:48Z</time>
      </trkpt>
      <trkpt lat="46.35847" lon="5.95223">
        <ele>1255.6</ele>
        <time>2021-08-19T12:23:50Z</time>
      </trkpt>
      <trkpt lat="46.35845" lon="5.95221">
        <ele>1255.7</ele>
        <time>2021-08-19T12:23:51Z</time>
      </trkpt>
      <trkpt lat="46.35842" lon="5.9522">
        <ele>1255.6</ele>
        <time>2021-08-19T12:23:53Z</time>
      </trkpt>
      <trkpt lat="46.35837" lon="5.9522">
        <ele>1255.6</ele>
        <time>2021-08-19T12:23:54Z</time>
      </trkpt>
      <trkpt lat="46.35833" lon="5.95218">
        <ele>1255.3</ele>
        <time>2021-08-19T12:23:56Z</time>
      </trkpt>
      <trkpt lat="46.35824" lon="5.95215">
        <ele>1254.7</ele>
        <time>2021-08-19T12:23:57Z</time>
      </trkpt>
      <trkpt lat="46.3582" lon="5.95217">
        <ele>1254.3</ele>
        <time>2021-08-19T12:23:59Z</time>
      </trkpt>
      <trkpt lat="46.35815" lon="5.95214">
        <ele>1253.9</ele>
        <time>2021-08-19T12:24:00Z</time>
      </trkpt>
      <trkpt lat="46.3581" lon="5.95209">
        <ele>1253.5</ele>
        <time>2021-08-19T12:24:02Z</time>
      </trkpt>
      <trkpt lat="46.35807" lon="5.95206">
        <ele>1253.4</ele>
        <time>2021-08-19T12:24:03Z</time>
      </trkpt>
      <trkpt lat="46.35805" lon="5.95202">
        <ele>1253.2</ele>
        <time>2021-08-19T12:24:04Z</time>
      </trkpt>
      <trkpt lat="46.35804" lon="5.95201">
        <ele>1253.2</ele>
        <time>2021-08-19T12:24:05Z</time>
      </trkpt>
      <trkpt lat="46.35804" lon="5.952">
        <ele>1253.1</ele>
        <time>2021-08-19T12:24:06Z</time>
      </trkpt>
      <trkpt lat="46.35804" lon="5.95199">
        <ele>1253.1</ele>
        <time>2021-08-19T12:24:08Z</time>
      </trkpt>
      <trkpt lat="46.35804" lon="5.95199">
        <ele>1253.1</ele>
        <time>2021-08-19T12:24:10Z</time>
      </trkpt>
      <trkpt lat="46.35804" lon="5.95198">
        <ele>1253.1</ele>
        <time>2021-08-19T12:24:11Z</time>
      </trkpt>
      <trkpt lat="46.35804" lon="5.95198">
        <ele>1253.1</ele>
        <time>2021-08-19T12:24:12Z</time>
      </trkpt>
      <trkpt lat="46.35804" lon="5.95198">
        <ele>1253.1</ele>
        <time>2021-08-19T12:24:14Z</time>
      </trkpt>
      <trkpt lat="46.35804" lon="5.95198">
        <ele>1253.1</ele>
        <time>2021-08-19T12:24:16Z</time>
      </trkpt>
      <trkpt lat="46.35779" lon="5.95171">
        <ele>1253.9</ele>
        <time>2021-08-19T12:26:53Z</time>
      </trkpt>
      <trkpt lat="46.35777" lon="5.95168">
        <ele>1254.1</ele>
        <time>2021-08-19T12:26:54Z</time>
      </trkpt>
      <trkpt lat="46.35774" lon="5.95164">
        <ele>1254.3</ele>
        <time>2021-08-19T12:26:55Z</time>
      </trkpt>
      <trkpt lat="46.35772" lon="5.9516">
        <ele>1254.5</ele>
        <time>2021-08-19T12:26:56Z</time>
      </trkpt>
      <trkpt lat="46.3577" lon="5.95157">
        <ele>1254.6</ele>
        <time>2021-08-19T12:26:57Z</time>
      </trkpt>
      <trkpt lat="46.35767" lon="5.95155">
        <ele>1254.6</ele>
        <time>2021-08-19T12:26:58Z</time>
      </trkpt>
      <trkpt lat="46.35763" lon="5.95157">
        <ele>1254.7</ele>
        <time>2021-08-19T12:27:00Z</time>
      </trkpt>
      <trkpt lat="46.35758" lon="5.95162">
        <ele>1254.9</ele>
        <time>2021-08-19T12:27:01Z</time>
      </trkpt>
      <trkpt lat="46.35754" lon="5.95164">
        <ele>1254.9</ele>
        <time>2021-08-19T12:27:02Z</time>
      </trkpt>
      <trkpt lat="46.35751" lon="5.95165">
        <ele>1255</ele>
        <time>2021-08-19T12:27:03Z</time>
      </trkpt>
      <trkpt lat="46.3575" lon="5.95165">
        <ele>1255</ele>
        <time>2021-08-19T12:27:04Z</time>
      </trkpt>
      <trkpt lat="46.35747" lon="5.95162">
        <ele>1255.1</ele>
        <time>2021-08-19T12:27:06Z</time>
      </trkpt>
      <trkpt lat="46.35745" lon="5.95158">
        <ele>1255.1</ele>
        <time>2021-08-19T12:27:07Z</time>
      </trkpt>
      <trkpt lat="46.35743" lon="5.95153">
        <ele>1255.2</ele>
        <time>2021-08-19T12:27:08Z</time>
      </trkpt>
      <trkpt lat="46.35743" lon="5.95151">
        <ele>1255.3</ele>
        <time>2021-08-19T12:27:09Z</time>
      </trkpt>
      <trkpt lat="46.35741" lon="5.95145">
        <ele>1255.3</ele>
        <time>2021-08-19T12:27:10Z</time>
      </trkpt>
      <trkpt lat="46.3574" lon="5.9514">
        <ele>1255.4</ele>
        <time>2021-08-19T12:27:12Z</time>
      </trkpt>
      <trkpt lat="46.35738" lon="5.95134">
        <ele>1255.5</ele>
        <time>2021-08-19T12:27:14Z</time>
      </trkpt>
      <trkpt lat="46.35738" lon="5.95132">
        <ele>1255.5</ele>
        <time>2021-08-19T12:27:15Z</time>
      </trkpt>
      <trkpt lat="46.35737" lon="5.9513">
        <ele>1255.5</ele>
        <time>2021-08-19T12:27:16Z</time>
      </trkpt>
      <trkpt lat="46.35736" lon="5.95128">
        <ele>1255.5</ele>
        <time>2021-08-19T12:27:18Z</time>
      </trkpt>
      <trkpt lat="46.35735" lon="5.95126">
        <ele>1255.5</ele>
        <time>2021-08-19T12:27:19Z</time>
      </trkpt>
      <trkpt lat="46.35733" lon="5.95122">
        <ele>1255.6</ele>
        <time>2021-08-19T12:27:20Z</time>
      </trkpt>
      <trkpt lat="46.35731" lon="5.95119">
        <ele>1255.6</ele>
        <time>2021-08-19T12:27:21Z</time>
      </trkpt>
      <trkpt lat="46.3573" lon="5.95115">
        <ele>1255.6</ele>
        <time>2021-08-19T12:27:23Z</time>
      </trkpt>
      <trkpt lat="46.35728" lon="5.95112">
        <ele>1255.6</ele>
        <time>2021-08-19T12:27:24Z</time>
      </trkpt>
      <trkpt lat="46.35726" lon="5.95105">
        <ele>1255.6</ele>
        <time>2021-08-19T12:27:26Z</time>
      </trkpt>
      <trkpt lat="46.35725" lon="5.95105">
        <ele>1255.6</ele>
        <time>2021-08-19T12:27:27Z</time>
      </trkpt>
      <trkpt lat="46.35723" lon="5.9511">
        <ele>1255.6</ele>
        <time>2021-08-19T12:27:29Z</time>
      </trkpt>
      <trkpt lat="46.35719" lon="5.95114">
        <ele>1255.6</ele>
        <time>2021-08-19T12:27:30Z</time>
      </trkpt>
      <trkpt lat="46.35717" lon="5.95116">
        <ele>1255.6</ele>
        <time>2021-08-19T12:27:31Z</time>
      </trkpt>
      <trkpt lat="46.35715" lon="5.9512">
        <ele>1255.7</ele>
        <time>2021-08-19T12:27:33Z</time>
      </trkpt>
      <trkpt lat="46.35714" lon="5.95121">
        <ele>1255.7</ele>
        <time>2021-08-19T12:27:34Z</time>
      </trkpt>
      <trkpt lat="46.35713" lon="5.95122">
        <ele>1255.7</ele>
        <time>2021-08-19T12:27:35Z</time>
      </trkpt>
      <trkpt lat="46.35713" lon="5.95123">
        <ele>1255.8</ele>
        <time>2021-08-19T12:27:37Z</time>
      </trkpt>
      <trkpt lat="46.35713" lon="5.95123">
        <ele>1255.8</ele>
        <time>2021-08-19T12:27:38Z</time>
      </trkpt>
      <trkpt lat="46.35712" lon="5.95123">
        <ele>1255.8</ele>
        <time>2021-08-19T12:27:39Z</time>
      </trkpt>
      <trkpt lat="46.35712" lon="5.95124">
        <ele>1255.8</ele>
        <time>2021-08-19T12:27:41Z</time>
      </trkpt>
      <trkpt lat="46.35514" lon="5.94767">
        <ele>1290.6</ele>
        <time>2021-08-19T12:38:07Z</time>
      </trkpt>
      <trkpt lat="46.35512" lon="5.94763">
        <ele>1290.8</ele>
        <time>2021-08-19T12:38:08Z</time>
      </trkpt>
      <trkpt lat="46.3551" lon="5.94761">
        <ele>1290.9</ele>
        <time>2021-08-19T12:38:09Z</time>
      </trkpt>
      <trkpt lat="46.35507" lon="5.94758">
        <ele>1291</ele>
        <time>2021-08-19T12:38:11Z</time>
      </trkpt>
      <trkpt lat="46.35506" lon="5.94758">
        <ele>1291.1</ele>
        <time>2021-08-19T12:38:12Z</time>
      </trkpt>
      <trkpt lat="46.35504" lon="5.94756">
        <ele>1291.2</ele>
        <time>2021-08-19T12:38:13Z</time>
      </trkpt>
      <trkpt lat="46.35502" lon="5.94754">
        <ele>1291.2</ele>
        <time>2021-08-19T12:38:15Z</time>
      </trkpt>
      <trkpt lat="46.355" lon="5.94753">
        <ele>1291.3</ele>
        <time>2021-08-19T12:38:16Z</time>
      </trkpt>
      <trkpt lat="46.35499" lon="5.94752">
        <ele>1291.3</ele>
        <time>2021-08-19T12:38:17Z</time>
      </trkpt>
      <trkpt lat="46.35497" lon="5.94752">
        <ele>1291.4</ele>
        <time>2021-08-19T12:38:18Z</time>
      </trkpt>
      <trkpt lat="46.35496" lon="5.94751">
        <ele>1291.4</ele>
        <time>2021-08-19T12:38:19Z</time>
      </trkpt>
      <trkpt lat="46.35494" lon="5.94751">
        <ele>1291.4</ele>
        <time>2021-08-19T12:38:20Z</time>
      </trkpt>
      <trkpt lat="46.35492" lon="5.94749">
        <ele>1291.5</ele>
        <time>2021-08-19T12:38:22Z</time>
      </trkpt>
      <trkpt lat="46.35491" lon="5.94748">
        <ele>1291.5</ele>
        <time>2021-08-19T12:38:23Z</time>
      </trkpt>
      <trkpt lat="46.3549" lon="5.94746">
        <ele>1291.6</ele>
        <time>2021-08-19T12:38:25Z</time>
      </trkpt>
      <trkpt lat="46.35489" lon="5.94743">
        <ele>1291.7</ele>
        <time>2021-08-19T12:38:26Z</time>
      </trkpt>
      <trkpt lat="46.35488" lon="5.9474">
        <ele>1291.8</ele>
        <time>2021-08-19T12:38:28Z</time>
      </trkpt>
      <trkpt lat="46.35487" lon="5.94739">
        <ele>1291.8</ele>
        <time>2021-08-19T12:38:29Z</time>
      </trkpt>
      <trkpt lat="46.35485" lon="5.94737">
        <ele>1291.9</ele>
        <time>2021-08-19T12:38:30Z</time>
      </trkpt>
      <trkpt lat="46.35483" lon="5.94735">
        <ele>1292</ele>
        <time>2021-08-19T12:38:31Z</time>
      </trkpt>
      <trkpt lat="46.35482" lon="5.94734">
        <ele>1292.1</ele>
        <time>2021-08-19T12:38:32Z</time>
      </trkpt>
      <trkpt lat="46.35479" lon="5.94733">
        <ele>1292.3</ele>
        <time>2021-08-19T12:38:33Z</time>
      </trkpt>
      <trkpt lat="46.35478" lon="5.94732">
        <ele>1292.4</ele>
        <time>2021-08-19T12:38:34Z</time>
      </trkpt>
      <trkpt lat="46.35475" lon="5.9473">
        <ele>1292.6</ele>
        <time>2021-08-19T12:38:36Z</time>
      </trkpt>
      <trkpt lat="46.35474" lon="5.94729">
        <ele>1292.6</ele>
        <time>2021-08-19T12:38:37Z</time>
      </trkpt>
      <trkpt lat="46.35473" lon="5.94726">
        <ele>1292.8</ele>
        <time>2021-08-19T12:38:38Z</time>
      </trkpt>
      <trkpt lat="46.35472" lon="5.94724">
        <ele>1293</ele>
        <time>2021-08-19T12:38:40Z</time>
      </trkpt>
      <trkpt lat="46.3547" lon="5.94721">
        <ele>1293.1</ele>
        <time>2021-08-19T12:38:41Z</time>
      </trkpt>
      <trkpt lat="46.3547" lon="5.9472">
        <ele>1293.2</ele>
        <time>2021-08-19T12:38:42Z</time>
      </trkpt>
      <trkpt lat="46.35469" lon="5.94718">
        <ele>1293.3</ele>
        <time>2021-08-19T12:38:43Z</time>
      </trkpt>
      <trkpt lat="46.35467" lon="5.94717">
        <ele>1293.4</ele>
        <time>2021-08-19T12:38:44Z</time>
      </trkpt>
      <trkpt lat="46.35466" lon="5.94715">
        <ele>1293.5</ele>
        <time>2021-08-19T12:38:45Z</time>
      </trkpt>
      <trkpt lat="46.35466" lon="5.94712">
        <ele>1293.7</ele>
        <time>2021-08-19T12:38:47Z</time>
      </trkpt>
      <trkpt lat="46.35466" lon="5.94711">
        <ele>1293.7</ele>
        <time>2021-08-19T12:38:48Z</time>
      </trkpt>
      <trkpt lat="46.35466" lon="5.94709">
        <ele>1293.8</ele>
        <time>2021-08-19T12:38:49Z</time>
      </trkpt>
      <trkpt lat="46.35465" lon="5.94708">
        <ele>1293.9</ele>
        <time>2021-08-19T12:38:50Z</time>
      </trkpt>
      <trkpt lat="46.35465" lon="5.94707">
        <ele>1293.9</ele>
        <time>2021-08-19T12:38:51Z</time>
      </trkpt>
      <trkpt lat="46.35463" lon="5.94705">
        <ele>1294</ele>
        <time>2021-08-19T12:38:52Z</time>
      </trkpt>
      <trkpt lat="46.35462" lon="5.94702">
        <ele>1294.2</ele>
        <time>2021-08-19T12:38:53Z</time>
      </trkpt>
      <trkpt lat="46.3546" lon="5.94699">
        <ele>1294.3</ele>
        <time>2021-08-19T12:38:54Z</time>
      </trkpt>
      <trkpt lat="46.35458" lon="5.94697">
        <ele>1294.4</ele>
        <time>2021-08-19T12:38:56Z</time>
      </trkpt>
      <trkpt lat="46.35456" lon="5.94694">
        <ele>1294.5</ele>
        <time>2021-08-19T12:38:57Z</time>
      </trkpt>
      <trkpt lat="46.35455" lon="5.94691">
        <ele>1294.5</ele>
        <time>2021-08-19T12:38:59Z</time>
      </trkpt>
      <trkpt lat="46.35453" lon="5.94688">
        <ele>1294.5</ele>
        <time>2021-08-19T12:39:00Z</time>
      </trkpt>
      <trkpt lat="46.35451" lon="5.94686">
        <ele>1294.5</ele>
        <time>2021-08-19T12:39:34Z</time>
      </trkpt>
      <trkpt lat="46.35449" lon="5.94683">
        <ele>1294.5</ele>
        <time>2021-08-19T12:39:35Z</time>
      </trkpt>
      <trkpt lat="46.35447" lon="5.9468">
        <ele>1294.4</ele>
        <time>2021-08-19T12:39:36Z</time>
      </trkpt>
      <trkpt lat="46.35447" lon="5.94678">
        <ele>1294.4</ele>
        <time>2021-08-19T12:39:37Z</time>
      </trkpt>
      <trkpt lat="46.35447" lon="5.94668">
        <ele>1294.3</ele>
        <time>2021-08-19T12:39:39Z</time>
      </trkpt>
      <trkpt lat="46.35453" lon="5.94656">
        <ele>1294.5</ele>
        <time>2021-08-19T12:39:40Z</time>
      </trkpt>
      <trkpt lat="46.35459" lon="5.94646">
        <ele>1294.9</ele>
        <time>2021-08-19T12:39:41Z</time>
      </trkpt>
      <trkpt lat="46.35465" lon="5.94636">
        <ele>1295.5</ele>
        <time>2021-08-19T12:39:43Z</time>
      </trkpt>
      <trkpt lat="46.35471" lon="5.94627">
        <ele>1296</ele>
        <time>2021-08-19T12:39:44Z</time>
      </trkpt>
      <trkpt lat="46.35477" lon="5.94617">
        <ele>1296.6</ele>
        <time>2021-08-19T12:39:46Z</time>
      </trkpt>
      <trkpt lat="46.35484" lon="5.94607">
        <ele>1297.4</ele>
        <time>2021-08-19T12:41:32Z</time>
      </trkpt>
      <trkpt lat="46.3549" lon="5.94597">
        <ele>1298.2</ele>
        <time>2021-08-19T12:41:33Z</time>
      </trkpt>
      <trkpt lat="46.35491" lon="5.94592">
        <ele>1298.5</ele>
        <time>2021-08-19T12:41:34Z</time>
      </trkpt>
      <trkpt lat="46.35492" lon="5.9459">
        <ele>1298.6</ele>
        <time>2021-08-19T12:41:35Z</time>
      </trkpt>
      <trkpt lat="46.35491" lon="5.94588">
        <ele>1298.8</ele>
        <time>2021-08-19T12:41:36Z</time>
      </trkpt>
      <trkpt lat="46.35489" lon="5.94586">
        <ele>1299</ele>
        <time>2021-08-19T12:41:38Z</time>
      </trkpt>
      <trkpt lat="46.35488" lon="5.94584">
        <ele>1299.1</ele>
        <time>2021-08-19T12:41:39Z</time>
      </trkpt>
      <trkpt lat="46.35487" lon="5.94582">
        <ele>1299.2</ele>
        <time>2021-08-19T12:41:41Z</time>
      </trkpt>
      <trkpt lat="46.35487" lon="5.9458">
        <ele>1299.3</ele>
        <time>2021-08-19T12:41:42Z</time>
      </trkpt>
      <trkpt lat="46.35487" lon="5.94576">
        <ele>1299.4</ele>
        <time>2021-08-19T12:41:43Z</time>
      </trkpt>
      <trkpt lat="46.35488" lon="5.94571">
        <ele>1299.6</ele>
        <time>2021-08-19T12:41:45Z</time>
      </trkpt>
      <trkpt lat="46.3549" lon="5.94566">
        <ele>1299.8</ele>
        <time>2021-08-19T12:41:46Z</time>
      </trkpt>
      <trkpt lat="46.35491" lon="5.94564">
        <ele>1299.9</ele>
        <time>2021-08-19T12:41:47Z</time>
      </trkpt>
      <trkpt lat="46.35493" lon="5.94559">
        <ele>1300.1</ele>
        <time>2021-08-19T12:41:49Z</time>
      </trkpt>
      <trkpt lat="46.35494" lon="5.94558">
        <ele>1300.2</ele>
        <time>2021-08-19T12:41:50Z</time>
      </trkpt>
      <trkpt lat="46.35495" lon="5.94551">
        <ele>1300.4</ele>
        <time>2021-08-19T12:41:52Z</time>
      </trkpt>
      <trkpt lat="46.35497" lon="5.94549">
        <ele>1300.4</ele>
        <time>2021-08-19T12:41:53Z</time>
      </trkpt>
      <trkpt lat="46.35498" lon="5.94546">
        <ele>1300.5</ele>
        <time>2021-08-19T12:41:55Z</time>
      </trkpt>
      <trkpt lat="46.35499" lon="5.94541">
        <ele>1300.7</ele>
        <time>2021-08-19T12:41:56Z</time>
      </trkpt>
      <trkpt lat="46.355" lon="5.94539">
        <ele>1300.7</ele>
        <time>2021-08-19T12:41:57Z</time>
      </trkpt>
      <trkpt lat="46.355" lon="5.94537">
        <ele>1300.8</ele>
        <time>2021-08-19T12:41:59Z</time>
      </trkpt>
      <trkpt lat="46.35498" lon="5.94536">
        <ele>1300.8</ele>
        <time>2021-08-19T12:42:00Z</time>
      </trkpt>
      <trkpt lat="46.35497" lon="5.94534">
        <ele>1300.9</ele>
        <time>2021-08-19T12:42:01Z</time>
      </trkpt>
      <trkpt lat="46.35495" lon="5.94529">
        <ele>1301</ele>
        <time>2021-08-19T12:42:03Z</time>
      </trkpt>
      <trkpt lat="46.35495" lon="5.94527">
        <ele>1301</ele>
        <time>2021-08-19T12:42:04Z</time>
      </trkpt>
      <trkpt lat="46.35494" lon="5.94523">
        <ele>1301.1</ele>
        <time>2021-08-19T12:42:06Z</time>
      </trkpt>
      <trkpt lat="46.35494" lon="5.94521">
        <ele>1301.1</ele>
        <time>2021-08-19T12:42:07Z</time>
      </trkpt>
      <trkpt lat="46.35494" lon="5.94519">
        <ele>1301.1</ele>
        <time>2021-08-19T12:42:09Z</time>
      </trkpt>
      <trkpt lat="46.35495" lon="5.94518">
        <ele>1301.1</ele>
        <time>2021-08-19T12:42:10Z</time>
      </trkpt>
      <trkpt lat="46.35496" lon="5.94515">
        <ele>1301.1</ele>
        <time>2021-08-19T12:42:12Z</time>
      </trkpt>
      <trkpt lat="46.35498" lon="5.94511">
        <ele>1301.2</ele>
        <time>2021-08-19T12:42:13Z</time>
      </trkpt>
      <trkpt lat="46.35498" lon="5.94506">
        <ele>1301.2</ele>
        <time>2021-08-19T12:42:15Z</time>
      </trkpt>
      <trkpt lat="46.35498" lon="5.94504">
        <ele>1301.3</ele>
        <time>2021-08-19T12:42:16Z</time>
      </trkpt>
      <trkpt lat="46.35498" lon="5.94499">
        <ele>1301.3</ele>
        <time>2021-08-19T12:42:17Z</time>
      </trkpt>
      <trkpt lat="46.35498" lon="5.94498">
        <ele>1301.4</ele>
        <time>2021-08-19T12:42:18Z</time>
      </trkpt>
      <trkpt lat="46.35497" lon="5.94495">
        <ele>1301.4</ele>
        <time>2021-08-19T12:42:19Z</time>
      </trkpt>
      <trkpt lat="46.35495" lon="5.9449">
        <ele>1301.5</ele>
        <time>2021-08-19T12:42:21Z</time>
      </trkpt>
      <trkpt lat="46.35494" lon="5.94485">
        <ele>1301.7</ele>
        <time>2021-08-19T12:42:22Z</time>
      </trkpt>
      <trkpt lat="46.35494" lon="5.94482">
        <ele>1301.8</ele>
        <time>2021-08-19T12:42:23Z</time>
      </trkpt>
      <trkpt lat="46.35493" lon="5.94479">
        <ele>1301.9</ele>
        <time>2021-08-19T12:42:25Z</time>
      </trkpt>
      <trkpt lat="46.35491" lon="5.94476">
        <ele>1302</ele>
        <time>2021-08-19T12:42:26Z</time>
      </trkpt>
      <trkpt lat="46.35491" lon="5.94474">
        <ele>1302.1</ele>
        <time>2021-08-19T12:42:27Z</time>
      </trkpt>
      <trkpt lat="46.3549" lon="5.94472">
        <ele>1302.2</ele>
        <time>2021-08-19T12:42:29Z</time>
      </trkpt>
      <trkpt lat="46.35489" lon="5.9447">
        <ele>1302.3</ele>
        <time>2021-08-19T12:42:31Z</time>
      </trkpt>
      <trkpt lat="46.35488" lon="5.94468">
        <ele>1302.3</ele>
        <time>2021-08-19T12:42:32Z</time>
      </trkpt>
      <trkpt lat="46.35488" lon="5.94466">
        <ele>1302.4</ele>
        <time>2021-08-19T12:42:33Z</time>
      </trkpt>
      <trkpt lat="46.35486" lon="5.94465">
        <ele>1302.5</ele>
        <time>2021-08-19T12:42:34Z</time>
      </trkpt>
      <trkpt lat="46.35485" lon="5.94464">
        <ele>1302.6</ele>
        <time>2021-08-19T12:42:36Z</time>
      </trkpt>
      <trkpt lat="46.35483" lon="5.94463">
        <ele>1302.7</ele>
        <time>2021-08-19T12:42:37Z</time>
      </trkpt>
      <trkpt lat="46.35481" lon="5.94463">
        <ele>1302.8</ele>
        <time>2021-08-19T12:42:38Z</time>
      </trkpt>
      <trkpt lat="46.3548" lon="5.94464">
        <ele>1302.9</ele>
        <time>2021-08-19T12:42:40Z</time>
      </trkpt>
      <trkpt lat="46.35478" lon="5.94464">
        <ele>1303</ele>
        <time>2021-08-19T12:42:41Z</time>
      </trkpt>
      <trkpt lat="46.35477" lon="5.94465">
        <ele>1303</ele>
        <time>2021-08-19T12:42:42Z</time>
      </trkpt>
      <trkpt lat="46.35475" lon="5.94466">
        <ele>1303.1</ele>
        <time>2021-08-19T12:42:44Z</time>
      </trkpt>
      <trkpt lat="46.35474" lon="5.94467">
        <ele>1303.2</ele>
        <time>2021-08-19T12:42:46Z</time>
      </trkpt>
      <trkpt lat="46.35472" lon="5.94468">
        <ele>1303.2</ele>
        <time>2021-08-19T12:42:48Z</time>
      </trkpt>
      <trkpt lat="46.35471" lon="5.94468">
        <ele>1303.3</ele>
        <time>2021-08-19T12:43:38Z</time>
      </trkpt>
      <trkpt lat="46.35469" lon="5.94469">
        <ele>1303.3</ele>
        <time>2021-08-19T12:43:39Z</time>
      </trkpt>
      <trkpt lat="46.35468" lon="5.9447">
        <ele>1303.4</ele>
        <time>2021-08-19T12:43:40Z</time>
      </trkpt>
      <trkpt lat="46.35465" lon="5.94466">
        <ele>1303.4</ele>
        <time>2021-08-19T12:43:41Z</time>
      </trkpt>
      <trkpt lat="46.35464" lon="5.94465">
        <ele>1303.5</ele>
        <time>2021-08-19T12:43:42Z</time>
      </trkpt>
      <trkpt lat="46.3546" lon="5.94464">
        <ele>1303.5</ele>
        <time>2021-08-19T12:43:44Z</time>
      </trkpt>
      <trkpt lat="46.35457" lon="5.94466">
        <ele>1303.6</ele>
        <time>2021-08-19T12:43:45Z</time>
      </trkpt>
      <trkpt lat="46.35456" lon="5.94466">
        <ele>1303.6</ele>
        <time>2021-08-19T12:43:46Z</time>
      </trkpt>
      <trkpt lat="46.35455" lon="5.94465">
        <ele>1303.6</ele>
        <time>2021-08-19T12:43:47Z</time>
      </trkpt>
      <trkpt lat="46.35454" lon="5.94464">
        <ele>1303.6</ele>
        <time>2021-08-19T12:43:48Z</time>
      </trkpt>
      <trkpt lat="46.35454" lon="5.94464">
        <ele>1303.6</ele>
        <time>2021-08-19T12:43:49Z</time>
      </trkpt>
      <trkpt lat="46.35455" lon="5.94464">
        <ele>1303.6</ele>
        <time>2021-08-19T12:43:50Z</time>
      </trkpt>
      <trkpt lat="46.35456" lon="5.94463">
        <ele>1303.6</ele>
        <time>2021-08-19T12:43:52Z</time>
      </trkpt>
      <trkpt lat="46.35456" lon="5.94463">
        <ele>1303.6</ele>
        <time>2021-08-19T12:43:53Z</time>
      </trkpt>
      <trkpt lat="46.35456" lon="5.94463">
        <ele>1303.6</ele>
        <time>2021-08-19T12:43:55Z</time>
      </trkpt>
      <trkpt lat="46.35456" lon="5.94463">
        <ele>1303.6</ele>
        <time>2021-08-19T12:43:56Z</time>
      </trkpt>
      <trkpt lat="46.35455" lon="5.94463">
        <ele>1303.6</ele>
        <time>2021-08-19T12:43:58Z</time>
      </trkpt>
      <trkpt lat="46.3544" lon="5.94447">
        <ele>1303.6</ele>
        <time>2021-08-19T12:44:46Z</time>
      </trkpt>
      <trkpt lat="46.35437" lon="5.94444">
        <ele>1303.5</ele>
        <time>2021-08-19T12:44:47Z</time>
      </trkpt>
      <trkpt lat="46.35431" lon="5.94441">
        <ele>1303.4</ele>
        <time>2021-08-19T12:44:49Z</time>
      </trkpt>
      <trkpt lat="46.35425" lon="5.9444">
        <ele>1303.3</ele>
        <time>2021-08-19T12:44:51Z</time>
      </trkpt>
      <trkpt lat="46.35421" lon="5.94438">
        <ele>1303.3</ele>
        <time>2021-08-19T12:44:52Z</time>
      </trkpt>
      <trkpt lat="46.35416" lon="5.94437">
        <ele>1303.2</ele>
        <time>2021-08-19T12:44:53Z</time>
      </trkpt>
      <trkpt lat="46.3541" lon="5.94435">
        <ele>1303.1</ele>
        <time>2021-08-19T12:44:55Z</time>
      </trkpt>
      <trkpt lat="46.35406" lon="5.94435">
        <ele>1303</ele>
        <time>2021-08-19T12:44:56Z</time>
      </trkpt>
      <trkpt lat="46.35403" lon="5.94434">
        <ele>1303</ele>
        <time>2021-08-19T12:44:57Z</time>
      </trkpt>
      <trkpt lat="46.35398" lon="5.94433">
        <ele>1303</ele>
        <time>2021-08-19T12:44:59Z</time>
      </trkpt>
      <trkpt lat="46.35395" lon="5.94432">
        <ele>1303</ele>
        <time>2021-08-19T12:45:00Z</time>
      </trkpt>
      <trkpt lat="46.35393" lon="5.94432">
        <ele>1303</ele>
        <time>2021-08-19T12:45:02Z</time>
      </trkpt>
      <trkpt lat="46.3539" lon="5.94433">
        <ele>1303.1</ele>
        <time>2021-08-19T12:45:03Z</time>
      </trkpt>
      <trkpt lat="46.35387" lon="5.94435">
        <ele>1303.2</ele>
        <time>2021-08-19T12:45:04Z</time>
      </trkpt>
      <trkpt lat="46.35385" lon="5.94437">
        <ele>1303.2</ele>
        <time>2021-08-19T12:45:05Z</time>
      </trkpt>
      <trkpt lat="46.35382" lon="5.9444">
        <ele>1303.4</ele>
        <time>2021-08-19T12:45:07Z</time>
      </trkpt>
      <trkpt lat="46.35378" lon="5.94445">
        <ele>1303.7</ele>
        <time>2021-08-19T12:45:09Z</time>
      </trkpt>
      <trkpt lat="46.35374" lon="5.94446">
        <ele>1303.9</ele>
        <time>2021-08-19T12:45:11Z</time>
      </trkpt>
      <trkpt lat="46.3537" lon="5.94445">
        <ele>1304.1</ele>
        <time>2021-08-19T12:45:12Z</time>
      </trkpt>
      <trkpt lat="46.35367" lon="5.94442">
        <ele>1304.4</ele>
        <time>2021-08-19T12:45:14Z</time>
      </trkpt>
      <trkpt lat="46.35364" lon="5.9444">
        <ele>1304.6</ele>
        <time>2021-08-19T12:45:15Z</time>
      </trkpt>
      <trkpt lat="46.35361" lon="5.94437">
        <ele>1304.8</ele>
        <time>2021-08-19T12:45:16Z</time>
      </trkpt>
      <trkpt lat="46.35361" lon="5.94436">
        <ele>1304.9</ele>
        <time>2021-08-19T12:45:17Z</time>
      </trkpt>
      <trkpt lat="46.35359" lon="5.9443">
        <ele>1305.1</ele>
        <time>2021-08-19T12:45:19Z</time>
      </trkpt>
      <trkpt lat="46.35358" lon="5.94426">
        <ele>1305.2</ele>
        <time>2021-08-19T12:45:21Z</time>
      </trkpt>
      <trkpt lat="46.35357" lon="5.94425">
        <ele>1305.2</ele>
        <time>2021-08-19T12:45:22Z</time>
      </trkpt>
      <trkpt lat="46.35354" lon="5.94421">
        <ele>1305.4</ele>
        <time>2021-08-19T12:45:24Z</time>
      </trkpt>
      <trkpt lat="46.35352" lon="5.94417">
        <ele>1305.5</ele>
        <time>2021-08-19T12:45:25Z</time>
      </trkpt>
      <trkpt lat="46.35349" lon="5.94414">
        <ele>1305.5</ele>
        <time>2021-08-19T12:45:27Z</time>
      </trkpt>
      <trkpt lat="46.35346" lon="5.94411">
        <ele>1305.6</ele>
        <time>2021-08-19T12:45:28Z</time>
      </trkpt>
      <trkpt lat="46.35344" lon="5.94409">
        <ele>1305.6</ele>
        <time>2021-08-19T12:45:29Z</time>
      </trkpt>
      <trkpt lat="46.35341" lon="5.94406">
        <ele>1305.6</ele>
        <time>2021-08-19T12:45:30Z</time>
      </trkpt>
      <trkpt lat="46.35337" lon="5.94401">
        <ele>1305.6</ele>
        <time>2021-08-19T12:45:32Z</time>
      </trkpt>
      <trkpt lat="46.35336" lon="5.944">
        <ele>1305.6</ele>
        <time>2021-08-19T12:45:33Z</time>
      </trkpt>
      <trkpt lat="46.35334" lon="5.94398">
        <ele>1305.6</ele>
        <time>2021-08-19T12:45:34Z</time>
      </trkpt>
      <trkpt lat="46.35332" lon="5.94393">
        <ele>1305.7</ele>
        <time>2021-08-19T12:45:36Z</time>
      </trkpt>
      <trkpt lat="46.35328" lon="5.94388">
        <ele>1305.8</ele>
        <time>2021-08-19T12:45:37Z</time>
      </trkpt>
      <trkpt lat="46.35323" lon="5.94383">
        <ele>1305.9</ele>
        <time>2021-08-19T12:45:39Z</time>
      </trkpt>
      <trkpt lat="46.3532" lon="5.9438">
        <ele>1306</ele>
        <time>2021-08-19T12:45:40Z</time>
      </trkpt>
      <trkpt lat="46.35316" lon="5.94378">
        <ele>1306.1</ele>
        <time>2021-08-19T12:45:42Z</time>
      </trkpt>
      <trkpt lat="46.35314" lon="5.94377">
        <ele>1306.2</ele>
        <time>2021-08-19T12:45:43Z</time>
      </trkpt>
      <trkpt lat="46.35311" lon="5.94375">
        <ele>1306.3</ele>
        <time>2021-08-19T12:45:45Z</time>
      </trkpt>
      <trkpt lat="46.3531" lon="5.94371">
        <ele>1306.4</ele>
        <time>2021-08-19T12:45:46Z</time>
      </trkpt>
      <trkpt lat="46.35308" lon="5.94367">
        <ele>1306.5</ele>
        <time>2021-08-19T12:45:47Z</time>
      </trkpt>
      <trkpt lat="46.35307" lon="5.94364">
        <ele>1306.6</ele>
        <time>2021-08-19T12:45:48Z</time>
      </trkpt>
      <trkpt lat="46.35306" lon="5.9436">
        <ele>1306.7</ele>
        <time>2021-08-19T12:45:49Z</time>
      </trkpt>
      <trkpt lat="46.35305" lon="5.94355">
        <ele>1306.8</ele>
        <time>2021-08-19T12:45:51Z</time>
      </trkpt>
      <trkpt lat="46.35303" lon="5.94349">
        <ele>1306.9</ele>
        <time>2021-08-19T12:45:52Z</time>
      </trkpt>
      <trkpt lat="46.35302" lon="5.94339">
        <ele>1306.9</ele>
        <time>2021-08-19T12:45:54Z</time>
      </trkpt>
      <trkpt lat="46.353" lon="5.94334">
        <ele>1306.9</ele>
        <time>2021-08-19T12:45:56Z</time>
      </trkpt>
      <trkpt lat="46.35299" lon="5.9433">
        <ele>1306.8</ele>
        <time>2021-08-19T12:45:57Z</time>
      </trkpt>
      <trkpt lat="46.35298" lon="5.94327">
        <ele>1306.8</ele>
        <time>2021-08-19T12:45:58Z</time>
      </trkpt>
      <trkpt lat="46.35298" lon="5.94325">
        <ele>1306.7</ele>
        <time>2021-08-19T12:45:59Z</time>
      </trkpt>
      <trkpt lat="46.35295" lon="5.94321">
        <ele>1306.6</ele>
        <time>2021-08-19T12:46:01Z</time>
      </trkpt>
      <trkpt lat="46.35293" lon="5.94317">
        <ele>1306.5</ele>
        <time>2021-08-19T12:46:02Z</time>
      </trkpt>
      <trkpt lat="46.35291" lon="5.94313">
        <ele>1306.4</ele>
        <time>2021-08-19T12:46:03Z</time>
      </trkpt>
      <trkpt lat="46.35287" lon="5.94308">
        <ele>1306.3</ele>
        <time>2021-08-19T12:46:05Z</time>
      </trkpt>
      <trkpt lat="46.35284" lon="5.94305">
        <ele>1306.3</ele>
        <time>2021-08-19T12:46:06Z</time>
      </trkpt>
      <trkpt lat="46.35281" lon="5.943">
        <ele>1306.3</ele>
        <time>2021-08-19T12:46:08Z</time>
      </trkpt>
      <trkpt lat="46.35279" lon="5.94297">
        <ele>1306.3</ele>
        <time>2021-08-19T12:46:09Z</time>
      </trkpt>
      <trkpt lat="46.35277" lon="5.94294">
        <ele>1306.3</ele>
        <time>2021-08-19T12:46:10Z</time>
      </trkpt>
      <trkpt lat="46.35276" lon="5.94291">
        <ele>1306.3</ele>
        <time>2021-08-19T12:46:11Z</time>
      </trkpt>
      <trkpt lat="46.35271" lon="5.94286">
        <ele>1306.5</ele>
        <time>2021-08-19T12:46:13Z</time>
      </trkpt>
      <trkpt lat="46.35268" lon="5.94282">
        <ele>1306.7</ele>
        <time>2021-08-19T12:46:14Z</time>
      </trkpt>
      <trkpt lat="46.35266" lon="5.9428">
        <ele>1306.8</ele>
        <time>2021-08-19T12:46:15Z</time>
      </trkpt>
      <trkpt lat="46.35262" lon="5.94277">
        <ele>1307.1</ele>
        <time>2021-08-19T12:46:17Z</time>
      </trkpt>
      <trkpt lat="46.35259" lon="5.94275">
        <ele>1307.3</ele>
        <time>2021-08-19T12:46:18Z</time>
      </trkpt>
      <trkpt lat="46.35254" lon="5.94276">
        <ele>1307.6</ele>
        <time>2021-08-19T12:46:20Z</time>
      </trkpt>
      <trkpt lat="46.35253" lon="5.94276">
        <ele>1307.7</ele>
        <time>2021-08-19T12:46:21Z</time>
      </trkpt>
      <trkpt lat="46.35252" lon="5.94276">
        <ele>1307.8</ele>
        <time>2021-08-19T12:46:22Z</time>
      </trkpt>
      <trkpt lat="46.35251" lon="5.94277">
        <ele>1307.9</ele>
        <time>2021-08-19T12:46:23Z</time>
      </trkpt>
      <trkpt lat="46.3525" lon="5.94278">
        <ele>1307.9</ele>
        <time>2021-08-19T12:46:24Z</time>
      </trkpt>
      <trkpt lat="46.3525" lon="5.94278">
        <ele>1307.9</ele>
        <time>2021-08-19T12:46:25Z</time>
      </trkpt>
      <trkpt lat="46.3525" lon="5.94278">
        <ele>1308</ele>
        <time>2021-08-19T12:46:27Z</time>
      </trkpt>
      <trkpt lat="46.3525" lon="5.94279">
        <ele>1308</ele>
        <time>2021-08-19T12:46:29Z</time>
      </trkpt>
      <trkpt lat="46.3525" lon="5.94279">
        <ele>1308</ele>
        <time>2021-08-19T12:46:30Z</time>
      </trkpt>
      <trkpt lat="46.3522" lon="5.94279">
        <ele>1308.8</ele>
        <time>2021-08-19T12:47:49Z</time>
      </trkpt>
      <trkpt lat="46.35217" lon="5.94277">
        <ele>1308.8</ele>
        <time>2021-08-19T12:47:50Z</time>
      </trkpt>
      <trkpt lat="46.35214" lon="5.94274">
        <ele>1308.8</ele>
        <time>2021-08-19T12:47:51Z</time>
      </trkpt>
      <trkpt lat="46.35213" lon="5.94273">
        <ele>1308.8</ele>
        <time>2021-08-19T12:47:52Z</time>
      </trkpt>
      <trkpt lat="46.35211" lon="5.94272">
        <ele>1308.7</ele>
        <time>2021-08-19T12:47:53Z</time>
      </trkpt>
      <trkpt lat="46.3521" lon="5.9427">
        <ele>1308.7</ele>
        <time>2021-08-19T12:47:55Z</time>
      </trkpt>
      <trkpt lat="46.35208" lon="5.94266">
        <ele>1308.7</ele>
        <time>2021-08-19T12:47:57Z</time>
      </trkpt>
      <trkpt lat="46.35207" lon="5.94261">
        <ele>1308.7</ele>
        <time>2021-08-19T12:47:58Z</time>
      </trkpt>
      <trkpt lat="46.35204" lon="5.94255">
        <ele>1308.7</ele>
        <time>2021-08-19T12:48:00Z</time>
      </trkpt>
      <trkpt lat="46.35202" lon="5.9425">
        <ele>1308.7</ele>
        <time>2021-08-19T12:48:01Z</time>
      </trkpt>
      <trkpt lat="46.352" lon="5.94245">
        <ele>1308.8</ele>
        <time>2021-08-19T12:48:03Z</time>
      </trkpt>
      <trkpt lat="46.35199" lon="5.9424">
        <ele>1308.8</ele>
        <time>2021-08-19T12:48:04Z</time>
      </trkpt>
      <trkpt lat="46.35197" lon="5.94236">
        <ele>1308.9</ele>
        <time>2021-08-19T12:48:05Z</time>
      </trkpt>
      <trkpt lat="46.35194" lon="5.94233">
        <ele>1308.9</ele>
        <time>2021-08-19T12:48:07Z</time>
      </trkpt>
      <trkpt lat="46.35191" lon="5.94229">
        <ele>1308.9</ele>
        <time>2021-08-19T12:48:08Z</time>
      </trkpt>
      <trkpt lat="46.35191" lon="5.94227">
        <ele>1308.9</ele>
        <time>2021-08-19T12:48:09Z</time>
      </trkpt>
      <trkpt lat="46.35189" lon="5.94224">
        <ele>1308.9</ele>
        <time>2021-08-19T12:48:10Z</time>
      </trkpt>
      <trkpt lat="46.35186" lon="5.9422">
        <ele>1308.9</ele>
        <time>2021-08-19T12:48:12Z</time>
      </trkpt>
      <trkpt lat="46.35186" lon="5.94218">
        <ele>1308.9</ele>
        <time>2021-08-19T12:48:13Z</time>
      </trkpt>
      <trkpt lat="46.35185" lon="5.94216">
        <ele>1308.9</ele>
        <time>2021-08-19T12:48:14Z</time>
      </trkpt>
      <trkpt lat="46.35184" lon="5.94215">
        <ele>1308.8</ele>
        <time>2021-08-19T12:48:15Z</time>
      </trkpt>
      <trkpt lat="46.35183" lon="5.94213">
        <ele>1308.8</ele>
        <time>2021-08-19T12:48:16Z</time>
      </trkpt>
      <trkpt lat="46.35182" lon="5.94211">
        <ele>1308.8</ele>
        <time>2021-08-19T12:48:17Z</time>
      </trkpt>
      <trkpt lat="46.3518" lon="5.94208">
        <ele>1308.7</ele>
        <time>2021-08-19T12:48:19Z</time>
      </trkpt>
      <trkpt lat="46.35178" lon="5.94205">
        <ele>1308.6</ele>
        <time>2021-08-19T12:48:20Z</time>
      </trkpt>
      <trkpt lat="46.35176" lon="5.942">
        <ele>1308.5</ele>
        <time>2021-08-19T12:48:22Z</time>
      </trkpt>
      <trkpt lat="46.35175" lon="5.94196">
        <ele>1308.4</ele>
        <time>2021-08-19T12:48:23Z</time>
      </trkpt>
      <trkpt lat="46.35172" lon="5.94192">
        <ele>1308.2</ele>
        <time>2021-08-19T12:48:25Z</time>
      </trkpt>
      <trkpt lat="46.35169" lon="5.94187">
        <ele>1307.9</ele>
        <time>2021-08-19T12:48:26Z</time>
      </trkpt>
      <trkpt lat="46.35167" lon="5.9418">
        <ele>1307.5</ele>
        <time>2021-08-19T12:48:28Z</time>
      </trkpt>
      <trkpt lat="46.35165" lon="5.94174">
        <ele>1307.1</ele>
        <time>2021-08-19T12:48:29Z</time>
      </trkpt>
      <trkpt lat="46.35164" lon="5.94165">
        <ele>1306.4</ele>
        <time>2021-08-19T12:48:30Z</time>
      </trkpt>
      <trkpt lat="46.35162" lon="5.94149">
        <ele>1304.9</ele>
        <time>2021-08-19T12:48:32Z</time>
      </trkpt>
      <trkpt lat="46.3516" lon="5.94129">
        <ele>1303.5</ele>
        <time>2021-08-19T12:48:34Z</time>
      </trkpt>
      <trkpt lat="46.3516" lon="5.94118">
        <ele>1303</ele>
        <time>2021-08-19T12:48:35Z</time>
      </trkpt>
      <trkpt lat="46.3516" lon="5.94107">
        <ele>1302.6</ele>
        <time>2021-08-19T12:48:36Z</time>
      </trkpt>
      <trkpt lat="46.35161" lon="5.94095">
        <ele>1302.4</ele>
        <time>2021-08-19T12:48:37Z</time>
      </trkpt>
      <trkpt lat="46.35162" lon="5.94085">
        <ele>1302.2</ele>
        <time>2021-08-19T12:48:38Z</time>
      </trkpt>
      <trkpt lat="46.35164" lon="5.94068">
        <ele>1301.8</ele>
        <time>2021-08-19T12:48:40Z</time>
      </trkpt>
      <trkpt lat="46.35165" lon="5.94059">
        <ele>1301.5</ele>
        <time>2021-08-19T12:48:41Z</time>
      </trkpt>
      <trkpt lat="46.35166" lon="5.9404">
        <ele>1300.8</ele>
        <time>2021-08-19T12:48:43Z</time>
      </trkpt>
      <trkpt lat="46.35168" lon="5.94022">
        <ele>1300.1</ele>
        <time>2021-08-19T12:48:45Z</time>
      </trkpt>
      <trkpt lat="46.35168" lon="5.94013">
        <ele>1299.8</ele>
        <time>2021-08-19T12:48:46Z</time>
      </trkpt>
      <trkpt lat="46.35168" lon="5.94004">
        <ele>1299.4</ele>
        <time>2021-08-19T12:48:47Z</time>
      </trkpt>
      <trkpt lat="46.35168" lon="5.93986">
        <ele>1298.7</ele>
        <time>2021-08-19T12:48:49Z</time>
      </trkpt>
      <trkpt lat="46.35167" lon="5.93969">
        <ele>1298.2</ele>
        <time>2021-08-19T12:48:51Z</time>
      </trkpt>
      <trkpt lat="46.35165" lon="5.93961">
        <ele>1298</ele>
        <time>2021-08-19T12:48:52Z</time>
      </trkpt>
      <trkpt lat="46.35163" lon="5.93953">
        <ele>1297.8</ele>
        <time>2021-08-19T12:48:53Z</time>
      </trkpt>
      <trkpt lat="46.35159" lon="5.93939">
        <ele>1297.7</ele>
        <time>2021-08-19T12:48:55Z</time>
      </trkpt>
      <trkpt lat="46.35157" lon="5.93933">
        <ele>1297.7</ele>
        <time>2021-08-19T12:48:56Z</time>
      </trkpt>
      <trkpt lat="46.35155" lon="5.9393">
        <ele>1297.7</ele>
        <time>2021-08-19T12:48:57Z</time>
      </trkpt>
      <trkpt lat="46.3515" lon="5.93923">
        <ele>1297.7</ele>
        <time>2021-08-19T12:48:59Z</time>
      </trkpt>
      <trkpt lat="46.35145" lon="5.93919">
        <ele>1297.8</ele>
        <time>2021-08-19T12:49:01Z</time>
      </trkpt>
      <trkpt lat="46.3514" lon="5.93916">
        <ele>1298.1</ele>
        <time>2021-08-19T12:49:03Z</time>
      </trkpt>
      <trkpt lat="46.35138" lon="5.93915">
        <ele>1298.1</ele>
        <time>2021-08-19T12:49:04Z</time>
      </trkpt>
      <trkpt lat="46.35138" lon="5.93912">
        <ele>1298.1</ele>
        <time>2021-08-19T12:49:06Z</time>
      </trkpt>
      <trkpt lat="46.3514" lon="5.93908">
        <ele>1298.1</ele>
        <time>2021-08-19T12:49:07Z</time>
      </trkpt>
      <trkpt lat="46.35141" lon="5.93904">
        <ele>1298.1</ele>
        <time>2021-08-19T12:49:08Z</time>
      </trkpt>
      <trkpt lat="46.35141" lon="5.93899">
        <ele>1298.1</ele>
        <time>2021-08-19T12:49:10Z</time>
      </trkpt>
      <trkpt lat="46.3514" lon="5.93896">
        <ele>1298.1</ele>
        <time>2021-08-19T12:49:11Z</time>
      </trkpt>
      <trkpt lat="46.35138" lon="5.93892">
        <ele>1298.1</ele>
        <time>2021-08-19T12:49:13Z</time>
      </trkpt>
      <trkpt lat="46.35137" lon="5.93888">
        <ele>1298.2</ele>
        <time>2021-08-19T12:49:14Z</time>
      </trkpt>
      <trkpt lat="46.35135" lon="5.93885">
        <ele>1298.3</ele>
        <time>2021-08-19T12:49:15Z</time>
      </trkpt>
      <trkpt lat="46.35133" lon="5.93881">
        <ele>1298.5</ele>
        <time>2021-08-19T12:49:16Z</time>
      </trkpt>
      <trkpt lat="46.35132" lon="5.93877">
        <ele>1298.7</ele>
        <time>2021-08-19T12:49:18Z</time>
      </trkpt>
      <trkpt lat="46.35133" lon="5.93873">
        <ele>1299</ele>
        <time>2021-08-19T12:49:19Z</time>
      </trkpt>
      <trkpt lat="46.35133" lon="5.9387">
        <ele>1299.3</ele>
        <time>2021-08-19T12:49:20Z</time>
      </trkpt>
      <trkpt lat="46.35133" lon="5.93869">
        <ele>1299.3</ele>
        <time>2021-08-19T12:49:21Z</time>
      </trkpt>
      <trkpt lat="46.35134" lon="5.93869">
        <ele>1299.4</ele>
        <time>2021-08-19T12:49:23Z</time>
      </trkpt>
      <trkpt lat="46.35134" lon="5.93869">
        <ele>1299.4</ele>
        <time>2021-08-19T12:49:25Z</time>
      </trkpt>
      <trkpt lat="46.35134" lon="5.93868">
        <ele>1299.4</ele>
        <time>2021-08-19T12:49:27Z</time>
      </trkpt>
      <trkpt lat="46.35134" lon="5.93868">
        <ele>1299.5</ele>
        <time>2021-08-19T12:49:29Z</time>
      </trkpt>
      <trkpt lat="46.35125" lon="5.93829">
        <ele>1302.1</ele>
        <time>2021-08-19T12:50:40Z</time>
      </trkpt>
      <trkpt lat="46.35123" lon="5.93827">
        <ele>1302.2</ele>
        <time>2021-08-19T12:50:41Z</time>
      </trkpt>
      <trkpt lat="46.35122" lon="5.93825">
        <ele>1302.3</ele>
        <time>2021-08-19T12:50:42Z</time>
      </trkpt>
      <trkpt lat="46.35121" lon="5.93823">
        <ele>1302.4</ele>
        <time>2021-08-19T12:50:43Z</time>
      </trkpt>
      <trkpt lat="46.3512" lon="5.93822">
        <ele>1302.4</ele>
        <time>2021-08-19T12:50:45Z</time>
      </trkpt>
      <trkpt lat="46.3512" lon="5.93821">
        <ele>1302.5</ele>
        <time>2021-08-19T12:50:46Z</time>
      </trkpt>
      <trkpt lat="46.35119" lon="5.9382">
        <ele>1302.6</ele>
        <time>2021-08-19T12:50:47Z</time>
      </trkpt>
      <trkpt lat="46.35117" lon="5.93818">
        <ele>1302.7</ele>
        <time>2021-08-19T12:50:49Z</time>
      </trkpt>
      <trkpt lat="46.35117" lon="5.93816">
        <ele>1302.8</ele>
        <time>2021-08-19T12:50:50Z</time>
      </trkpt>
      <trkpt lat="46.35115" lon="5.93812">
        <ele>1303</ele>
        <time>2021-08-19T12:50:52Z</time>
      </trkpt>
      <trkpt lat="46.35115" lon="5.93811">
        <ele>1303</ele>
        <time>2021-08-19T12:50:53Z</time>
      </trkpt>
      <trkpt lat="46.35114" lon="5.93808">
        <ele>1303.2</ele>
        <time>2021-08-19T12:50:55Z</time>
      </trkpt>
      <trkpt lat="46.35113" lon="5.93807">
        <ele>1303.3</ele>
        <time>2021-08-19T12:50:57Z</time>
      </trkpt>
      <trkpt lat="46.35112" lon="5.93806">
        <ele>1303.3</ele>
        <time>2021-08-19T12:50:58Z</time>
      </trkpt>
      <trkpt lat="46.35112" lon="5.93805">
        <ele>1303.4</ele>
        <time>2021-08-19T12:50:59Z</time>
      </trkpt>
      <trkpt lat="46.35111" lon="5.93803">
        <ele>1303.5</ele>
        <time>2021-08-19T12:51:00Z</time>
      </trkpt>
      <trkpt lat="46.35109" lon="5.938">
        <ele>1303.7</ele>
        <time>2021-08-19T12:51:01Z</time>
      </trkpt>
      <trkpt lat="46.35108" lon="5.93799">
        <ele>1303.7</ele>
        <time>2021-08-19T12:51:03Z</time>
      </trkpt>
      <trkpt lat="46.35108" lon="5.93799">
        <ele>1303.8</ele>
        <time>2021-08-19T12:51:04Z</time>
      </trkpt>
      <trkpt lat="46.35107" lon="5.93798">
        <ele>1303.9</ele>
        <time>2021-08-19T12:51:05Z</time>
      </trkpt>
      <trkpt lat="46.35106" lon="5.93797">
        <ele>1303.9</ele>
        <time>2021-08-19T12:51:06Z</time>
      </trkpt>
      <trkpt lat="46.35106" lon="5.93796">
        <ele>1304</ele>
        <time>2021-08-19T12:51:07Z</time>
      </trkpt>
      <trkpt lat="46.35105" lon="5.93795">
        <ele>1304.1</ele>
        <time>2021-08-19T12:51:09Z</time>
      </trkpt>
      <trkpt lat="46.35104" lon="5.93792">
        <ele>1304.2</ele>
        <time>2021-08-19T12:51:10Z</time>
      </trkpt>
      <trkpt lat="46.35101" lon="5.93788">
        <ele>1304.6</ele>
        <time>2021-08-19T12:51:11Z</time>
      </trkpt>
      <trkpt lat="46.35101" lon="5.93787">
        <ele>1304.7</ele>
        <time>2021-08-19T12:51:12Z</time>
      </trkpt>
      <trkpt lat="46.35099" lon="5.93785">
        <ele>1304.9</ele>
        <time>2021-08-19T12:51:14Z</time>
      </trkpt>
      <trkpt lat="46.35099" lon="5.93784">
        <ele>1305</ele>
        <time>2021-08-19T12:51:15Z</time>
      </trkpt>
      <trkpt lat="46.35098" lon="5.93784">
        <ele>1305</ele>
        <time>2021-08-19T12:51:17Z</time>
      </trkpt>
      <trkpt lat="46.35098" lon="5.93783">
        <ele>1305.1</ele>
        <time>2021-08-19T12:51:19Z</time>
      </trkpt>
      <trkpt lat="46.35097" lon="5.93783">
        <ele>1305.1</ele>
        <time>2021-08-19T12:51:20Z</time>
      </trkpt>
      <trkpt lat="46.35097" lon="5.93783">
        <ele>1305.2</ele>
        <time>2021-08-19T12:51:21Z</time>
      </trkpt>
      <trkpt lat="46.35097" lon="5.93782">
        <ele>1305.2</ele>
        <time>2021-08-19T12:51:23Z</time>
      </trkpt>
      <trkpt lat="46.35097" lon="5.93782">
        <ele>1305.2</ele>
        <time>2021-08-19T12:51:24Z</time>
      </trkpt>
      <trkpt lat="46.35077" lon="5.93749">
        <ele>1308.8</ele>
        <time>2021-08-19T12:51:57Z</time>
      </trkpt>
      <trkpt lat="46.35076" lon="5.93747">
        <ele>1308.9</ele>
        <time>2021-08-19T12:51:58Z</time>
      </trkpt>
      <trkpt lat="46.35075" lon="5.93746">
        <ele>1309.1</ele>
        <time>2021-08-19T12:51:59Z</time>
      </trkpt>
      <trkpt lat="46.35075" lon="5.93745">
        <ele>1309.2</ele>
        <time>2021-08-19T12:52:00Z</time>
      </trkpt>
      <trkpt lat="46.35074" lon="5.93744">
        <ele>1309.3</ele>
        <time>2021-08-19T12:52:01Z</time>
      </trkpt>
      <trkpt lat="46.35074" lon="5.93743">
        <ele>1309.4</ele>
        <time>2021-08-19T12:52:03Z</time>
      </trkpt>
      <trkpt lat="46.35074" lon="5.93741">
        <ele>1309.5</ele>
        <time>2021-08-19T12:52:04Z</time>
      </trkpt>
      <trkpt lat="46.35074" lon="5.93741">
        <ele>1309.5</ele>
        <time>2021-08-19T12:52:05Z</time>
      </trkpt>
      <trkpt lat="46.35074" lon="5.9374">
        <ele>1309.6</ele>
        <time>2021-08-19T12:52:06Z</time>
      </trkpt>
      <trkpt lat="46.35073" lon="5.93739">
        <ele>1309.7</ele>
        <time>2021-08-19T12:52:08Z</time>
      </trkpt>
      <trkpt lat="46.35073" lon="5.93739">
        <ele>1309.7</ele>
        <time>2021-08-19T12:52:09Z</time>
      </trkpt>
      <trkpt lat="46.35073" lon="5.93738">
        <ele>1309.7</ele>
        <time>2021-08-19T12:52:10Z</time>
      </trkpt>
      <trkpt lat="46.35073" lon="5.93738">
        <ele>1309.7</ele>
        <time>2021-08-19T12:52:11Z</time>
      </trkpt>
      <trkpt lat="46.35073" lon="5.93738">
        <ele>1309.8</ele>
        <time>2021-08-19T12:52:12Z</time>
      </trkpt>
      <trkpt lat="46.35073" lon="5.93738">
        <ele>1309.8</ele>
        <time>2021-08-19T12:52:14Z</time>
      </trkpt>
      <trkpt lat="46.35067" lon="5.93714">
        <ele>1311.5</ele>
        <time>2021-08-19T12:52:28Z</time>
      </trkpt>
      <trkpt lat="46.35066" lon="5.93711">
        <ele>1311.7</ele>
        <time>2021-08-19T12:52:29Z</time>
      </trkpt>
      <trkpt lat="46.35066" lon="5.93707">
        <ele>1312</ele>
        <time>2021-08-19T12:52:31Z</time>
      </trkpt>
      <trkpt lat="46.35065" lon="5.93706">
        <ele>1312</ele>
        <time>2021-08-19T12:52:32Z</time>
      </trkpt>
      <trkpt lat="46.35065" lon="5.93706">
        <ele>1312.1</ele>
        <time>2021-08-19T12:52:34Z</time>
      </trkpt>
      <trkpt lat="46.35065" lon="5.93705">
        <ele>1312.1</ele>
        <time>2021-08-19T12:52:35Z</time>
      </trkpt>
      <trkpt lat="46.35065" lon="5.93704">
        <ele>1312.2</ele>
        <time>2021-08-19T12:52:36Z</time>
      </trkpt>
      <trkpt lat="46.35065" lon="5.93704">
        <ele>1312.2</ele>
        <time>2021-08-19T12:52:38Z</time>
      </trkpt>
      <trkpt lat="46.35065" lon="5.93704">
        <ele>1312.2</ele>
        <time>2021-08-19T12:52:39Z</time>
      </trkpt>
      <trkpt lat="46.35065" lon="5.93703">
        <ele>1312.3</ele>
        <time>2021-08-19T12:52:41Z</time>
      </trkpt>
      <trkpt lat="46.35063" lon="5.93641">
        <ele>1315.4</ele>
        <time>2021-08-19T12:54:11Z</time>
      </trkpt>
      <trkpt lat="46.35063" lon="5.93634">
        <ele>1315.2</ele>
        <time>2021-08-19T12:54:13Z</time>
      </trkpt>
      <trkpt lat="46.35063" lon="5.93628">
        <ele>1314.9</ele>
        <time>2021-08-19T12:54:14Z</time>
      </trkpt>
      <trkpt lat="46.35064" lon="5.93623">
        <ele>1314.6</ele>
        <time>2021-08-19T12:54:15Z</time>
      </trkpt>
      <trkpt lat="46.35064" lon="5.93621">
        <ele>1314.5</ele>
        <time>2021-08-19T12:54:16Z</time>
      </trkpt>
      <trkpt lat="46.35063" lon="5.93617">
        <ele>1314.2</ele>
        <time>2021-08-19T12:54:17Z</time>
      </trkpt>
      <trkpt lat="46.35061" lon="5.93611">
        <ele>1313.7</ele>
        <time>2021-08-19T12:54:19Z</time>
      </trkpt>
      <trkpt lat="46.35059" lon="5.93605">
        <ele>1313.2</ele>
        <time>2021-08-19T12:54:20Z</time>
      </trkpt>
      <trkpt lat="46.35057" lon="5.936">
        <ele>1312.7</ele>
        <time>2021-08-19T12:54:22Z</time>
      </trkpt>
      <trkpt lat="46.35055" lon="5.93597">
        <ele>1312.4</ele>
        <time>2021-08-19T12:54:23Z</time>
      </trkpt>
      <trkpt lat="46.35052" lon="5.93594">
        <ele>1312</ele>
        <time>2021-08-19T12:54:24Z</time>
      </trkpt>
      <trkpt lat="46.35048" lon="5.9359">
        <ele>1311.7</ele>
        <time>2021-08-19T12:54:26Z</time>
      </trkpt>
      <trkpt lat="46.35045" lon="5.93586">
        <ele>1311.4</ele>
        <time>2021-08-19T12:54:28Z</time>
      </trkpt>
      <trkpt lat="46.35042" lon="5.93584">
        <ele>1311.3</ele>
        <time>2021-08-19T12:54:29Z</time>
      </trkpt>
      <trkpt lat="46.3504" lon="5.9358">
        <ele>1311.1</ele>
        <time>2021-08-19T12:54:31Z</time>
      </trkpt>
      <trkpt lat="46.35039" lon="5.93578">
        <ele>1311</ele>
        <time>2021-08-19T12:54:32Z</time>
      </trkpt>
      <trkpt lat="46.35035" lon="5.93573">
        <ele>1310.9</ele>
        <time>2021-08-19T12:54:34Z</time>
      </trkpt>
      <trkpt lat="46.35034" lon="5.93571">
        <ele>1310.8</ele>
        <time>2021-08-19T12:54:35Z</time>
      </trkpt>
      <trkpt lat="46.35032" lon="5.93569">
        <ele>1310.8</ele>
        <time>2021-08-19T12:54:36Z</time>
      </trkpt>
      <trkpt lat="46.3503" lon="5.93567">
        <ele>1310.7</ele>
        <time>2021-08-19T12:54:37Z</time>
      </trkpt>
      <trkpt lat="46.35027" lon="5.93566">
        <ele>1310.7</ele>
        <time>2021-08-19T12:54:39Z</time>
      </trkpt>
      <trkpt lat="46.35023" lon="5.93561">
        <ele>1310.6</ele>
        <time>2021-08-19T12:54:41Z</time>
      </trkpt>
      <trkpt lat="46.35021" lon="5.9356">
        <ele>1310.5</ele>
        <time>2021-08-19T12:54:42Z</time>
      </trkpt>
      <trkpt lat="46.35019" lon="5.93558">
        <ele>1310.5</ele>
        <time>2021-08-19T12:54:43Z</time>
      </trkpt>
      <trkpt lat="46.35017" lon="5.93557">
        <ele>1310.5</ele>
        <time>2021-08-19T12:54:44Z</time>
      </trkpt>
      <trkpt lat="46.35016" lon="5.93554">
        <ele>1310.5</ele>
        <time>2021-08-19T12:54:46Z</time>
      </trkpt>
      <trkpt lat="46.35013" lon="5.93551">
        <ele>1310.5</ele>
        <time>2021-08-19T12:54:47Z</time>
      </trkpt>
      <trkpt lat="46.35012" lon="5.9355">
        <ele>1310.5</ele>
        <time>2021-08-19T12:54:48Z</time>
      </trkpt>
      <trkpt lat="46.35011" lon="5.93548">
        <ele>1310.5</ele>
        <time>2021-08-19T12:54:49Z</time>
      </trkpt>
      <trkpt lat="46.35009" lon="5.93545">
        <ele>1310.5</ele>
        <time>2021-08-19T12:54:51Z</time>
      </trkpt>
      <trkpt lat="46.35007" lon="5.93543">
        <ele>1310.5</ele>
        <time>2021-08-19T12:54:52Z</time>
      </trkpt>
      <trkpt lat="46.35004" lon="5.93541">
        <ele>1310.5</ele>
        <time>2021-08-19T12:54:54Z</time>
      </trkpt>
      <trkpt lat="46.35001" lon="5.93538">
        <ele>1310.5</ele>
        <time>2021-08-19T12:54:55Z</time>
      </trkpt>
      <trkpt lat="46.35" lon="5.93537">
        <ele>1310.5</ele>
        <time>2021-08-19T12:54:56Z</time>
      </trkpt>
      <trkpt lat="46.34999" lon="5.93534">
        <ele>1310.4</ele>
        <time>2021-08-19T12:54:57Z</time>
      </trkpt>
      <trkpt lat="46.34997" lon="5.93531">
        <ele>1310.4</ele>
        <time>2021-08-19T12:54:59Z</time>
      </trkpt>
      <trkpt lat="46.34995" lon="5.93528">
        <ele>1310.4</ele>
        <time>2021-08-19T12:55:00Z</time>
      </trkpt>
      <trkpt lat="46.34994" lon="5.93527">
        <ele>1310.4</ele>
        <time>2021-08-19T12:55:01Z</time>
      </trkpt>
      <trkpt lat="46.34992" lon="5.93524">
        <ele>1310.3</ele>
        <time>2021-08-19T12:55:02Z</time>
      </trkpt>
      <trkpt lat="46.34988" lon="5.9352">
        <ele>1310.2</ele>
        <time>2021-08-19T12:55:04Z</time>
      </trkpt>
      <trkpt lat="46.34987" lon="5.93518">
        <ele>1310.2</ele>
        <time>2021-08-19T12:55:05Z</time>
      </trkpt>
      <trkpt lat="46.34986" lon="5.93516">
        <ele>1310.1</ele>
        <time>2021-08-19T12:55:06Z</time>
      </trkpt>
      <trkpt lat="46.34983" lon="5.93513">
        <ele>1310</ele>
        <time>2021-08-19T12:55:07Z</time>
      </trkpt>
      <trkpt lat="46.34981" lon="5.93509">
        <ele>1309.9</ele>
        <time>2021-08-19T12:55:08Z</time>
      </trkpt>
      <trkpt lat="46.34978" lon="5.93505">
        <ele>1309.7</ele>
        <time>2021-08-19T12:55:09Z</time>
      </trkpt>
      <trkpt lat="46.34976" lon="5.93501">
        <ele>1309.5</ele>
        <time>2021-08-19T12:55:11Z</time>
      </trkpt>
      <trkpt lat="46.34972" lon="5.93496">
        <ele>1309.3</ele>
        <time>2021-08-19T12:55:12Z</time>
      </trkpt>
      <trkpt lat="46.3497" lon="5.93492">
        <ele>1309.1</ele>
        <time>2021-08-19T12:55:13Z</time>
      </trkpt>
      <trkpt lat="46.34967" lon="5.93487">
        <ele>1308.8</ele>
        <time>2021-08-19T12:55:15Z</time>
      </trkpt>
      <trkpt lat="46.34963" lon="5.93482">
        <ele>1308.4</ele>
        <time>2021-08-19T12:55:16Z</time>
      </trkpt>
      <trkpt lat="46.34959" lon="5.93479">
        <ele>1308.1</ele>
        <time>2021-08-19T12:55:18Z</time>
      </trkpt>
      <trkpt lat="46.34955" lon="5.93476">
        <ele>1307.7</ele>
        <time>2021-08-19T12:55:19Z</time>
      </trkpt>
      <trkpt lat="46.3495" lon="5.93474">
        <ele>1307.3</ele>
        <time>2021-08-19T12:55:20Z</time>
      </trkpt>
      <trkpt lat="46.34945" lon="5.93472">
        <ele>1307</ele>
        <time>2021-08-19T12:55:21Z</time>
      </trkpt>
      <trkpt lat="46.34941" lon="5.93469">
        <ele>1306.7</ele>
        <time>2021-08-19T12:55:22Z</time>
      </trkpt>
      <trkpt lat="46.34938" lon="5.93464">
        <ele>1306.5</ele>
        <time>2021-08-19T12:55:23Z</time>
      </trkpt>
      <trkpt lat="46.34934" lon="5.93461">
        <ele>1306.2</ele>
        <time>2021-08-19T12:55:24Z</time>
      </trkpt>
      <trkpt lat="46.3493" lon="5.93457">
        <ele>1306</ele>
        <time>2021-08-19T12:55:25Z</time>
      </trkpt>
      <trkpt lat="46.34927" lon="5.93454">
        <ele>1305.8</ele>
        <time>2021-08-19T12:55:26Z</time>
      </trkpt>
      <trkpt lat="46.34923" lon="5.9345">
        <ele>1305.6</ele>
        <time>2021-08-19T12:55:27Z</time>
      </trkpt>
      <trkpt lat="46.34918" lon="5.93446">
        <ele>1305.3</ele>
        <time>2021-08-19T12:55:29Z</time>
      </trkpt>
      <trkpt lat="46.34913" lon="5.93443">
        <ele>1305.1</ele>
        <time>2021-08-19T12:55:30Z</time>
      </trkpt>
      <trkpt lat="46.3491" lon="5.9344">
        <ele>1304.8</ele>
        <time>2021-08-19T12:55:31Z</time>
      </trkpt>
      <trkpt lat="46.34905" lon="5.93435">
        <ele>1304.6</ele>
        <time>2021-08-19T12:55:32Z</time>
      </trkpt>
      <trkpt lat="46.34901" lon="5.93431">
        <ele>1304.4</ele>
        <time>2021-08-19T12:55:34Z</time>
      </trkpt>
      <trkpt lat="46.34896" lon="5.93427">
        <ele>1304.1</ele>
        <time>2021-08-19T12:55:35Z</time>
      </trkpt>
      <trkpt lat="46.34892" lon="5.93424">
        <ele>1303.9</ele>
        <time>2021-08-19T12:55:36Z</time>
      </trkpt>
      <trkpt lat="46.34888" lon="5.93421">
        <ele>1303.8</ele>
        <time>2021-08-19T12:55:38Z</time>
      </trkpt>
      <trkpt lat="46.34883" lon="5.93418">
        <ele>1303.7</ele>
        <time>2021-08-19T12:55:39Z</time>
      </trkpt>
      <trkpt lat="46.3488" lon="5.93416">
        <ele>1303.6</ele>
        <time>2021-08-19T12:55:40Z</time>
      </trkpt>
      <trkpt lat="46.34877" lon="5.93414">
        <ele>1303.5</ele>
        <time>2021-08-19T12:55:41Z</time>
      </trkpt>
      <trkpt lat="46.34874" lon="5.93411">
        <ele>1303.4</ele>
        <time>2021-08-19T12:55:43Z</time>
      </trkpt>
      <trkpt lat="46.3487" lon="5.93409">
        <ele>1303.4</ele>
        <time>2021-08-19T12:55:44Z</time>
      </trkpt>
      <trkpt lat="46.34867" lon="5.93406">
        <ele>1303.4</ele>
        <time>2021-08-19T12:55:45Z</time>
      </trkpt>
      <trkpt lat="46.34862" lon="5.93403">
        <ele>1303.3</ele>
        <time>2021-08-19T12:55:47Z</time>
      </trkpt>
      <trkpt lat="46.34859" lon="5.93399">
        <ele>1303.3</ele>
        <time>2021-08-19T12:55:48Z</time>
      </trkpt>
      <trkpt lat="46.34856" lon="5.93397">
        <ele>1303.3</ele>
        <time>2021-08-19T12:55:50Z</time>
      </trkpt>
      <trkpt lat="46.34853" lon="5.93396">
        <ele>1303.2</ele>
        <time>2021-08-19T12:55:51Z</time>
      </trkpt>
      <trkpt lat="46.34851" lon="5.93395">
        <ele>1303.2</ele>
        <time>2021-08-19T12:55:52Z</time>
      </trkpt>
      <trkpt lat="46.34848" lon="5.93395">
        <ele>1303.2</ele>
        <time>2021-08-19T12:55:54Z</time>
      </trkpt>
      <trkpt lat="46.34845" lon="5.93394">
        <ele>1303.1</ele>
        <time>2021-08-19T12:55:55Z</time>
      </trkpt>
      <trkpt lat="46.34841" lon="5.93392">
        <ele>1303</ele>
        <time>2021-08-19T12:55:57Z</time>
      </trkpt>
      <trkpt lat="46.34837" lon="5.9339">
        <ele>1302.9</ele>
        <time>2021-08-19T12:55:58Z</time>
      </trkpt>
      <trkpt lat="46.34834" lon="5.93387">
        <ele>1302.8</ele>
        <time>2021-08-19T12:55:59Z</time>
      </trkpt>
      <trkpt lat="46.34831" lon="5.93385">
        <ele>1302.7</ele>
        <time>2021-08-19T12:56:00Z</time>
      </trkpt>
      <trkpt lat="46.34827" lon="5.93383">
        <ele>1302.6</ele>
        <time>2021-08-19T12:56:01Z</time>
      </trkpt>
      <trkpt lat="46.34821" lon="5.93378">
        <ele>1302.4</ele>
        <time>2021-08-19T12:56:03Z</time>
      </trkpt>
      <trkpt lat="46.34817" lon="5.93373">
        <ele>1302.3</ele>
        <time>2021-08-19T12:56:04Z</time>
      </trkpt>
      <trkpt lat="46.34813" lon="5.9337">
        <ele>1302.2</ele>
        <time>2021-08-19T12:56:05Z</time>
      </trkpt>
      <trkpt lat="46.34809" lon="5.93367">
        <ele>1302</ele>
        <time>2021-08-19T12:56:06Z</time>
      </trkpt>
      <trkpt lat="46.34804" lon="5.93363">
        <ele>1301.7</ele>
        <time>2021-08-19T12:56:08Z</time>
      </trkpt>
      <trkpt lat="46.348" lon="5.93359">
        <ele>1301.4</ele>
        <time>2021-08-19T12:56:09Z</time>
      </trkpt>
      <trkpt lat="46.34792" lon="5.93351">
        <ele>1300.9</ele>
        <time>2021-08-19T12:56:11Z</time>
      </trkpt>
      <trkpt lat="46.34788" lon="5.93346">
        <ele>1300.6</ele>
        <time>2021-08-19T12:56:12Z</time>
      </trkpt>
      <trkpt lat="46.34783" lon="5.93342">
        <ele>1300.3</ele>
        <time>2021-08-19T12:56:13Z</time>
      </trkpt>
      <trkpt lat="46.34773" lon="5.93334">
        <ele>1299.7</ele>
        <time>2021-08-19T12:56:15Z</time>
      </trkpt>
      <trkpt lat="46.34764" lon="5.93326">
        <ele>1299.2</ele>
        <time>2021-08-19T12:56:17Z</time>
      </trkpt>
      <trkpt lat="46.34754" lon="5.93319">
        <ele>1299.1</ele>
        <time>2021-08-19T12:56:19Z</time>
      </trkpt>
      <trkpt lat="46.34745" lon="5.93313">
        <ele>1299.2</ele>
        <time>2021-08-19T12:56:21Z</time>
      </trkpt>
      <trkpt lat="46.34738" lon="5.9331">
        <ele>1299.4</ele>
        <time>2021-08-19T12:56:23Z</time>
      </trkpt>
      <trkpt lat="46.34733" lon="5.93307">
        <ele>1299.4</ele>
        <time>2021-08-19T12:56:25Z</time>
      </trkpt>
      <trkpt lat="46.3473" lon="5.93305">
        <ele>1299.2</ele>
        <time>2021-08-19T12:56:27Z</time>
      </trkpt>
      <trkpt lat="46.34728" lon="5.93304">
        <ele>1299.2</ele>
        <time>2021-08-19T12:56:28Z</time>
      </trkpt>
      <trkpt lat="46.34726" lon="5.93304">
        <ele>1299.1</ele>
        <time>2021-08-19T12:56:29Z</time>
      </trkpt>
      <trkpt lat="46.34724" lon="5.93304">
        <ele>1299.1</ele>
        <time>2021-08-19T12:56:30Z</time>
      </trkpt>
      <trkpt lat="46.34721" lon="5.93304">
        <ele>1299</ele>
        <time>2021-08-19T12:56:31Z</time>
      </trkpt>
      <trkpt lat="46.34716" lon="5.93304">
        <ele>1298.8</ele>
        <time>2021-08-19T12:56:33Z</time>
      </trkpt>
      <trkpt lat="46.34712" lon="5.93303">
        <ele>1298.6</ele>
        <time>2021-08-19T12:56:34Z</time>
      </trkpt>
      <trkpt lat="46.34709" lon="5.93302">
        <ele>1298.4</ele>
        <time>2021-08-19T12:56:35Z</time>
      </trkpt>
      <trkpt lat="46.34705" lon="5.933">
        <ele>1298.2</ele>
        <time>2021-08-19T12:56:37Z</time>
      </trkpt>
      <trkpt lat="46.347" lon="5.93297">
        <ele>1298</ele>
        <time>2021-08-19T12:56:38Z</time>
      </trkpt>
      <trkpt lat="46.34696" lon="5.93293">
        <ele>1297.8</ele>
        <time>2021-08-19T12:56:40Z</time>
      </trkpt>
      <trkpt lat="46.34692" lon="5.93289">
        <ele>1297.6</ele>
        <time>2021-08-19T12:56:41Z</time>
      </trkpt>
      <trkpt lat="46.34687" lon="5.93283">
        <ele>1297.3</ele>
        <time>2021-08-19T12:56:42Z</time>
      </trkpt>
      <trkpt lat="46.34684" lon="5.9328">
        <ele>1297.1</ele>
        <time>2021-08-19T12:56:43Z</time>
      </trkpt>
      <trkpt lat="46.3468" lon="5.93277">
        <ele>1296.9</ele>
        <time>2021-08-19T12:56:45Z</time>
      </trkpt>
      <trkpt lat="46.34677" lon="5.93276">
        <ele>1296.8</ele>
        <time>2021-08-19T12:56:46Z</time>
      </trkpt>
      <trkpt lat="46.34672" lon="5.93275">
        <ele>1296.5</ele>
        <time>2021-08-19T12:56:47Z</time>
      </trkpt>
      <trkpt lat="46.34668" lon="5.93273">
        <ele>1296.4</ele>
        <time>2021-08-19T12:56:48Z</time>
      </trkpt>
      <trkpt lat="46.34666" lon="5.93271">
        <ele>1296.2</ele>
        <time>2021-08-19T12:56:50Z</time>
      </trkpt>
      <trkpt lat="46.34663" lon="5.93271">
        <ele>1296.1</ele>
        <time>2021-08-19T12:56:51Z</time>
      </trkpt>
      <trkpt lat="46.34659" lon="5.93269">
        <ele>1295.9</ele>
        <time>2021-08-19T12:56:53Z</time>
      </trkpt>
      <trkpt lat="46.34658" lon="5.93267">
        <ele>1295.8</ele>
        <time>2021-08-19T12:56:55Z</time>
      </trkpt>
      <trkpt lat="46.34656" lon="5.93265">
        <ele>1295.6</ele>
        <time>2021-08-19T12:56:57Z</time>
      </trkpt>
      <trkpt lat="46.34654" lon="5.93264">
        <ele>1295.5</ele>
        <time>2021-08-19T12:56:58Z</time>
      </trkpt>
      <trkpt lat="46.34653" lon="5.93262">
        <ele>1295.4</ele>
        <time>2021-08-19T12:56:59Z</time>
      </trkpt>
      <trkpt lat="46.34651" lon="5.9326">
        <ele>1295.3</ele>
        <time>2021-08-19T12:57:01Z</time>
      </trkpt>
      <trkpt lat="46.34649" lon="5.93259">
        <ele>1295.2</ele>
        <time>2021-08-19T12:57:03Z</time>
      </trkpt>
      <trkpt lat="46.34648" lon="5.93257">
        <ele>1295.1</ele>
        <time>2021-08-19T12:57:18Z</time>
      </trkpt>
      <trkpt lat="46.34646" lon="5.93256">
        <ele>1295</ele>
        <time>2021-08-19T12:57:19Z</time>
      </trkpt>
      <trkpt lat="46.3464" lon="5.93249">
        <ele>1294.8</ele>
        <time>2021-08-19T12:57:21Z</time>
      </trkpt>
      <trkpt lat="46.34636" lon="5.93244">
        <ele>1294.6</ele>
        <time>2021-08-19T12:57:22Z</time>
      </trkpt>
      <trkpt lat="46.34632" lon="5.93235">
        <ele>1294.3</ele>
        <time>2021-08-19T12:57:23Z</time>
      </trkpt>
      <trkpt lat="46.34629" lon="5.9323">
        <ele>1294.1</ele>
        <time>2021-08-19T12:57:25Z</time>
      </trkpt>
      <trkpt lat="46.34626" lon="5.93226">
        <ele>1293.8</ele>
        <time>2021-08-19T12:57:26Z</time>
      </trkpt>
      <trkpt lat="46.34625" lon="5.93224">
        <ele>1293.7</ele>
        <time>2021-08-19T12:57:27Z</time>
      </trkpt>
      <trkpt lat="46.34624" lon="5.93219">
        <ele>1293.4</ele>
        <time>2021-08-19T12:57:29Z</time>
      </trkpt>
      <trkpt lat="46.34623" lon="5.93218">
        <ele>1293.2</ele>
        <time>2021-08-19T12:57:30Z</time>
      </trkpt>
      <trkpt lat="46.34622" lon="5.93212">
        <ele>1292.8</ele>
        <time>2021-08-19T12:57:32Z</time>
      </trkpt>
      <trkpt lat="46.34616" lon="5.932">
        <ele>1291.6</ele>
        <time>2021-08-19T12:57:34Z</time>
      </trkpt>
      <trkpt lat="46.34612" lon="5.93194">
        <ele>1291</ele>
        <time>2021-08-19T12:57:35Z</time>
      </trkpt>
      <trkpt lat="46.34601" lon="5.93182">
        <ele>1289.7</ele>
        <time>2021-08-19T12:57:37Z</time>
      </trkpt>
      <trkpt lat="46.34589" lon="5.9317">
        <ele>1288.6</ele>
        <time>2021-08-19T12:57:39Z</time>
      </trkpt>
      <trkpt lat="46.34583" lon="5.93164">
        <ele>1288.1</ele>
        <time>2021-08-19T12:57:40Z</time>
      </trkpt>
      <trkpt lat="46.34576" lon="5.93158">
        <ele>1287.7</ele>
        <time>2021-08-19T12:57:41Z</time>
      </trkpt>
      <trkpt lat="46.34564" lon="5.93146">
        <ele>1287.2</ele>
        <time>2021-08-19T12:57:43Z</time>
      </trkpt>
      <trkpt lat="46.34553" lon="5.9314">
        <ele>1286.8</ele>
        <time>2021-08-19T12:57:45Z</time>
      </trkpt>
      <trkpt lat="46.34548" lon="5.93139">
        <ele>1286.5</ele>
        <time>2021-08-19T12:57:46Z</time>
      </trkpt>
      <trkpt lat="46.34544" lon="5.93138">
        <ele>1286.3</ele>
        <time>2021-08-19T12:57:47Z</time>
      </trkpt>
      <trkpt lat="46.3454" lon="5.93137">
        <ele>1286.1</ele>
        <time>2021-08-19T12:57:49Z</time>
      </trkpt>
      <trkpt lat="46.34538" lon="5.93133">
        <ele>1285.8</ele>
        <time>2021-08-19T12:57:51Z</time>
      </trkpt>
      <trkpt lat="46.34537" lon="5.93132">
        <ele>1285.8</ele>
        <time>2021-08-19T12:57:52Z</time>
      </trkpt>
      <trkpt lat="46.34534" lon="5.93123">
        <ele>1285.3</ele>
        <time>2021-08-19T12:57:54Z</time>
      </trkpt>
      <trkpt lat="46.3453" lon="5.93119">
        <ele>1285</ele>
        <time>2021-08-19T12:57:55Z</time>
      </trkpt>
      <trkpt lat="46.34526" lon="5.93117">
        <ele>1284.5</ele>
        <time>2021-08-19T12:57:57Z</time>
      </trkpt>
      <trkpt lat="46.3452" lon="5.93117">
        <ele>1283.9</ele>
        <time>2021-08-19T12:57:58Z</time>
      </trkpt>
      <trkpt lat="46.34514" lon="5.93114">
        <ele>1283.3</ele>
        <time>2021-08-19T12:57:59Z</time>
      </trkpt>
      <trkpt lat="46.34503" lon="5.93109">
        <ele>1282</ele>
        <time>2021-08-19T12:58:01Z</time>
      </trkpt>
      <trkpt lat="46.3449" lon="5.93103">
        <ele>1280.3</ele>
        <time>2021-08-19T12:58:03Z</time>
      </trkpt>
      <trkpt lat="46.34483" lon="5.931">
        <ele>1279.2</ele>
        <time>2021-08-19T12:58:04Z</time>
      </trkpt>
      <trkpt lat="46.34475" lon="5.93096">
        <ele>1278.1</ele>
        <time>2021-08-19T12:58:05Z</time>
      </trkpt>
      <trkpt lat="46.34461" lon="5.9309">
        <ele>1276.1</ele>
        <time>2021-08-19T12:58:07Z</time>
      </trkpt>
      <trkpt lat="46.3445" lon="5.93081">
        <ele>1274.7</ele>
        <time>2021-08-19T12:58:09Z</time>
      </trkpt>
      <trkpt lat="46.34447" lon="5.93075">
        <ele>1274.1</ele>
        <time>2021-08-19T12:58:10Z</time>
      </trkpt>
      <trkpt lat="46.34445" lon="5.93069">
        <ele>1273.6</ele>
        <time>2021-08-19T12:58:11Z</time>
      </trkpt>
      <trkpt lat="46.34444" lon="5.93064">
        <ele>1273.3</ele>
        <time>2021-08-19T12:58:13Z</time>
      </trkpt>
      <trkpt lat="46.34444" lon="5.93058">
        <ele>1273</ele>
        <time>2021-08-19T12:58:15Z</time>
      </trkpt>
      <trkpt lat="46.34443" lon="5.93051">
        <ele>1272.7</ele>
        <time>2021-08-19T12:58:17Z</time>
      </trkpt>
      <trkpt lat="46.34441" lon="5.93051">
        <ele>1272.7</ele>
        <time>2021-08-19T12:58:18Z</time>
      </trkpt>
      <trkpt lat="46.3444" lon="5.93045">
        <ele>1272.6</ele>
        <time>2021-08-19T12:58:20Z</time>
      </trkpt>
      <trkpt lat="46.3444" lon="5.93035">
        <ele>1272.7</ele>
        <time>2021-08-19T12:58:21Z</time>
      </trkpt>
      <trkpt lat="46.34439" lon="5.93029">
        <ele>1272.9</ele>
        <time>2021-08-19T12:58:23Z</time>
      </trkpt>
      <trkpt lat="46.34438" lon="5.93023">
        <ele>1273.1</ele>
        <time>2021-08-19T12:58:25Z</time>
      </trkpt>
      <trkpt lat="46.34437" lon="5.93018">
        <ele>1273.3</ele>
        <time>2021-08-19T12:58:26Z</time>
      </trkpt>
      <trkpt lat="46.34437" lon="5.93013">
        <ele>1273.5</ele>
        <time>2021-08-19T12:58:28Z</time>
      </trkpt>
      <trkpt lat="46.34437" lon="5.93012">
        <ele>1273.6</ele>
        <time>2021-08-19T12:58:29Z</time>
      </trkpt>
      <trkpt lat="46.34436" lon="5.9301">
        <ele>1273.7</ele>
        <time>2021-08-19T12:58:30Z</time>
      </trkpt>
      <trkpt lat="46.34435" lon="5.93007">
        <ele>1273.9</ele>
        <time>2021-08-19T12:58:32Z</time>
      </trkpt>
      <trkpt lat="46.34434" lon="5.93004">
        <ele>1274.1</ele>
        <time>2021-08-19T12:58:33Z</time>
      </trkpt>
      <trkpt lat="46.34432" lon="5.93">
        <ele>1274.4</ele>
        <time>2021-08-19T12:58:35Z</time>
      </trkpt>
      <trkpt lat="46.34431" lon="5.92999">
        <ele>1274.5</ele>
        <time>2021-08-19T12:58:36Z</time>
      </trkpt>
      <trkpt lat="46.3443" lon="5.92995">
        <ele>1274.8</ele>
        <time>2021-08-19T12:58:38Z</time>
      </trkpt>
      <trkpt lat="46.34429" lon="5.92991">
        <ele>1275.1</ele>
        <time>2021-08-19T12:58:40Z</time>
      </trkpt>
      <trkpt lat="46.34429" lon="5.92988">
        <ele>1275.4</ele>
        <time>2021-08-19T12:58:41Z</time>
      </trkpt>
      <trkpt lat="46.34429" lon="5.92985">
        <ele>1275.6</ele>
        <time>2021-08-19T12:58:43Z</time>
      </trkpt>
      <trkpt lat="46.34429" lon="5.9298">
        <ele>1276</ele>
        <time>2021-08-19T12:58:44Z</time>
      </trkpt>
      <trkpt lat="46.34429" lon="5.92978">
        <ele>1276.2</ele>
        <time>2021-08-19T12:58:46Z</time>
      </trkpt>
      <trkpt lat="46.34429" lon="5.92977">
        <ele>1276.3</ele>
        <time>2021-08-19T12:58:48Z</time>
      </trkpt>
      <trkpt lat="46.34429" lon="5.92977">
        <ele>1276.3</ele>
        <time>2021-08-19T12:58:49Z</time>
      </trkpt>
      <trkpt lat="46.34429" lon="5.92977">
        <ele>1276.3</ele>
        <time>2021-08-19T12:58:51Z</time>
      </trkpt>
      <trkpt lat="46.34429" lon="5.92977">
        <ele>1276.3</ele>
        <time>2021-08-19T12:58:52Z</time>
      </trkpt>
      <trkpt lat="46.34429" lon="5.92977">
        <ele>1276.3</ele>
        <time>2021-08-19T12:58:53Z</time>
      </trkpt>
      <trkpt lat="46.34429" lon="5.92977">
        <ele>1276.3</ele>
        <time>2021-08-19T12:58:55Z</time>
      </trkpt>
      <trkpt lat="46.34429" lon="5.92977">
        <ele>1276.3</ele>
        <time>2021-08-19T12:58:57Z</time>
      </trkpt>
      <trkpt lat="46.34427" lon="5.92882">
        <ele>1285.3</ele>
        <time>2021-08-19T13:01:28Z</time>
      </trkpt>
      <trkpt lat="46.34426" lon="5.92874">
        <ele>1285.3</ele>
        <time>2021-08-19T13:01:30Z</time>
      </trkpt>
      <trkpt lat="46.34426" lon="5.92869">
        <ele>1285.2</ele>
        <time>2021-08-19T13:01:32Z</time>
      </trkpt>
      <trkpt lat="46.34425" lon="5.92865">
        <ele>1285.1</ele>
        <time>2021-08-19T13:01:33Z</time>
      </trkpt>
      <trkpt lat="46.34422" lon="5.92857">
        <ele>1284.8</ele>
        <time>2021-08-19T13:01:34Z</time>
      </trkpt>
      <trkpt lat="46.34421" lon="5.92851">
        <ele>1284.5</ele>
        <time>2021-08-19T13:01:36Z</time>
      </trkpt>
      <trkpt lat="46.34419" lon="5.92844">
        <ele>1284.2</ele>
        <time>2021-08-19T13:01:37Z</time>
      </trkpt>
      <trkpt lat="46.34417" lon="5.9284">
        <ele>1284</ele>
        <time>2021-08-19T13:01:38Z</time>
      </trkpt>
      <trkpt lat="46.34414" lon="5.92834">
        <ele>1283.6</ele>
        <time>2021-08-19T13:01:40Z</time>
      </trkpt>
      <trkpt lat="46.34413" lon="5.92832">
        <ele>1283.5</ele>
        <time>2021-08-19T13:01:41Z</time>
      </trkpt>
      <trkpt lat="46.34412" lon="5.9283">
        <ele>1283.4</ele>
        <time>2021-08-19T13:01:42Z</time>
      </trkpt>
      <trkpt lat="46.34411" lon="5.92824">
        <ele>1282.7</ele>
        <time>2021-08-19T13:01:43Z</time>
      </trkpt>
      <trkpt lat="46.3441" lon="5.92822">
        <ele>1282.5</ele>
        <time>2021-08-19T13:01:44Z</time>
      </trkpt>
      <trkpt lat="46.34407" lon="5.92817">
        <ele>1282.1</ele>
        <time>2021-08-19T13:01:46Z</time>
      </trkpt>
      <trkpt lat="46.34405" lon="5.92814">
        <ele>1281.7</ele>
        <time>2021-08-19T13:01:47Z</time>
      </trkpt>
      <trkpt lat="46.344" lon="5.92809">
        <ele>1281.1</ele>
        <time>2021-08-19T13:01:48Z</time>
      </trkpt>
      <trkpt lat="46.34397" lon="5.92803">
        <ele>1280.6</ele>
        <time>2021-08-19T13:01:49Z</time>
      </trkpt>
      <trkpt lat="46.34394" lon="5.92797">
        <ele>1280</ele>
        <time>2021-08-19T13:01:51Z</time>
      </trkpt>
      <trkpt lat="46.34391" lon="5.92787">
        <ele>1279.1</ele>
        <time>2021-08-19T13:01:52Z</time>
      </trkpt>
      <trkpt lat="46.34388" lon="5.92778">
        <ele>1278.4</ele>
        <time>2021-08-19T13:01:53Z</time>
      </trkpt>
      <trkpt lat="46.34382" lon="5.9276">
        <ele>1276.8</ele>
        <time>2021-08-19T13:01:55Z</time>
      </trkpt>
      <trkpt lat="46.34372" lon="5.92742">
        <ele>1275</ele>
        <time>2021-08-19T13:01:57Z</time>
      </trkpt>
      <trkpt lat="46.34367" lon="5.92734">
        <ele>1274.2</ele>
        <time>2021-08-19T13:01:58Z</time>
      </trkpt>
      <trkpt lat="46.34355" lon="5.92724">
        <ele>1273</ele>
        <time>2021-08-19T13:02:00Z</time>
      </trkpt>
      <trkpt lat="46.34351" lon="5.9272">
        <ele>1272.7</ele>
        <time>2021-08-19T13:02:01Z</time>
      </trkpt>
      <trkpt lat="46.34345" lon="5.92714">
        <ele>1272.1</ele>
        <time>2021-08-19T13:02:03Z</time>
      </trkpt>
      <trkpt lat="46.34342" lon="5.92712">
        <ele>1271.9</ele>
        <time>2021-08-19T13:02:04Z</time>
      </trkpt>
      <trkpt lat="46.34342" lon="5.92706">
        <ele>1271.6</ele>
        <time>2021-08-19T13:02:05Z</time>
      </trkpt>
      <trkpt lat="46.34342" lon="5.92704">
        <ele>1271.5</ele>
        <time>2021-08-19T13:02:06Z</time>
      </trkpt>
      <trkpt lat="46.34347" lon="5.92699">
        <ele>1271</ele>
        <time>2021-08-19T13:02:08Z</time>
      </trkpt>
      <trkpt lat="46.34361" lon="5.92693">
        <ele>1269.3</ele>
        <time>2021-08-19T13:02:10Z</time>
      </trkpt>
      <trkpt lat="46.34369" lon="5.92691">
        <ele>1268.1</ele>
        <time>2021-08-19T13:02:11Z</time>
      </trkpt>
      <trkpt lat="46.34378" lon="5.9269">
        <ele>1266.9</ele>
        <time>2021-08-19T13:02:12Z</time>
      </trkpt>
      <trkpt lat="46.34386" lon="5.92689">
        <ele>1265.8</ele>
        <time>2021-08-19T13:02:13Z</time>
      </trkpt>
      <trkpt lat="46.344" lon="5.92689">
        <ele>1264.1</ele>
        <time>2021-08-19T13:02:15Z</time>
      </trkpt>
      <trkpt lat="46.34406" lon="5.92687">
        <ele>1263.5</ele>
        <time>2021-08-19T13:02:16Z</time>
      </trkpt>
      <trkpt lat="46.34411" lon="5.92682">
        <ele>1263</ele>
        <time>2021-08-19T13:02:17Z</time>
      </trkpt>
      <trkpt lat="46.34418" lon="5.92671">
        <ele>1262.2</ele>
        <time>2021-08-19T13:02:19Z</time>
      </trkpt>
      <trkpt lat="46.3442" lon="5.92663">
        <ele>1261.9</ele>
        <time>2021-08-19T13:02:21Z</time>
      </trkpt>
      <trkpt lat="46.34421" lon="5.9266">
        <ele>1261.7</ele>
        <time>2021-08-19T13:02:22Z</time>
      </trkpt>
      <trkpt lat="46.34423" lon="5.92654">
        <ele>1261.6</ele>
        <time>2021-08-19T13:02:24Z</time>
      </trkpt>
      <trkpt lat="46.34425" lon="5.9265">
        <ele>1261.6</ele>
        <time>2021-08-19T13:02:25Z</time>
      </trkpt>
      <trkpt lat="46.34425" lon="5.92648">
        <ele>1261.5</ele>
        <time>2021-08-19T13:02:26Z</time>
      </trkpt>
      <trkpt lat="46.34428" lon="5.92643">
        <ele>1261.6</ele>
        <time>2021-08-19T13:02:28Z</time>
      </trkpt>
      <trkpt lat="46.34426" lon="5.92639">
        <ele>1261.7</ele>
        <time>2021-08-19T13:02:30Z</time>
      </trkpt>
      <trkpt lat="46.34425" lon="5.92638">
        <ele>1261.7</ele>
        <time>2021-08-19T13:02:31Z</time>
      </trkpt>
      <trkpt lat="46.34422" lon="5.92635">
        <ele>1261.9</ele>
        <time>2021-08-19T13:02:33Z</time>
      </trkpt>
      <trkpt lat="46.34421" lon="5.92634">
        <ele>1261.9</ele>
        <time>2021-08-19T13:02:34Z</time>
      </trkpt>
      <trkpt lat="46.34419" lon="5.92633">
        <ele>1262</ele>
        <time>2021-08-19T13:02:35Z</time>
      </trkpt>
      <trkpt lat="46.34417" lon="5.92633">
        <ele>1262.1</ele>
        <time>2021-08-19T13:02:36Z</time>
      </trkpt>
      <trkpt lat="46.34415" lon="5.92633">
        <ele>1262.3</ele>
        <time>2021-08-19T13:02:38Z</time>
      </trkpt>
      <trkpt lat="46.34399" lon="5.92627">
        <ele>1263.4</ele>
        <time>2021-08-19T13:03:08Z</time>
      </trkpt>
      <trkpt lat="46.344" lon="5.92623">
        <ele>1263.8</ele>
        <time>2021-08-19T13:03:09Z</time>
      </trkpt>
      <trkpt lat="46.34401" lon="5.92617">
        <ele>1264</ele>
        <time>2021-08-19T13:03:11Z</time>
      </trkpt>
      <trkpt lat="46.34402" lon="5.92613">
        <ele>1264.1</ele>
        <time>2021-08-19T13:03:12Z</time>
      </trkpt>
      <trkpt lat="46.34403" lon="5.92609">
        <ele>1264.2</ele>
        <time>2021-08-19T13:03:13Z</time>
      </trkpt>
      <trkpt lat="46.34403" lon="5.92601">
        <ele>1264.5</ele>
        <time>2021-08-19T13:03:15Z</time>
      </trkpt>
      <trkpt lat="46.34403" lon="5.92596">
        <ele>1264.6</ele>
        <time>2021-08-19T13:03:16Z</time>
      </trkpt>
      <trkpt lat="46.34403" lon="5.92592">
        <ele>1264.7</ele>
        <time>2021-08-19T13:03:17Z</time>
      </trkpt>
      <trkpt lat="46.34403" lon="5.92587">
        <ele>1264.9</ele>
        <time>2021-08-19T13:03:18Z</time>
      </trkpt>
      <trkpt lat="46.34403" lon="5.9258">
        <ele>1265.1</ele>
        <time>2021-08-19T13:03:20Z</time>
      </trkpt>
      <trkpt lat="46.34405" lon="5.92573">
        <ele>1265.3</ele>
        <time>2021-08-19T13:03:21Z</time>
      </trkpt>
      <trkpt lat="46.34406" lon="5.92568">
        <ele>1265.4</ele>
        <time>2021-08-19T13:03:23Z</time>
      </trkpt>
      <trkpt lat="46.34406" lon="5.92566">
        <ele>1265.5</ele>
        <time>2021-08-19T13:03:24Z</time>
      </trkpt>
      <trkpt lat="46.34407" lon="5.92562">
        <ele>1265.6</ele>
        <time>2021-08-19T13:03:25Z</time>
      </trkpt>
      <trkpt lat="46.34407" lon="5.9256">
        <ele>1265.6</ele>
        <time>2021-08-19T13:03:26Z</time>
      </trkpt>
      <trkpt lat="46.34408" lon="5.92556">
        <ele>1265.7</ele>
        <time>2021-08-19T13:03:27Z</time>
      </trkpt>
      <trkpt lat="46.34408" lon="5.9255">
        <ele>1265.8</ele>
        <time>2021-08-19T13:03:29Z</time>
      </trkpt>
      <trkpt lat="46.34407" lon="5.92544">
        <ele>1266</ele>
        <time>2021-08-19T13:03:31Z</time>
      </trkpt>
      <trkpt lat="46.34407" lon="5.92542">
        <ele>1266</ele>
        <time>2021-08-19T13:03:32Z</time>
      </trkpt>
      <trkpt lat="46.34406" lon="5.9254">
        <ele>1266</ele>
        <time>2021-08-19T13:03:33Z</time>
      </trkpt>
      <trkpt lat="46.34407" lon="5.92535">
        <ele>1266.1</ele>
        <time>2021-08-19T13:03:34Z</time>
      </trkpt>
      <trkpt lat="46.34407" lon="5.92533">
        <ele>1266.1</ele>
        <time>2021-08-19T13:03:35Z</time>
      </trkpt>
      <trkpt lat="46.34407" lon="5.92528">
        <ele>1266.2</ele>
        <time>2021-08-19T13:03:36Z</time>
      </trkpt>
      <trkpt lat="46.34408" lon="5.92523">
        <ele>1266.2</ele>
        <time>2021-08-19T13:03:38Z</time>
      </trkpt>
      <trkpt lat="46.34409" lon="5.92519">
        <ele>1266.2</ele>
        <time>2021-08-19T13:03:39Z</time>
      </trkpt>
      <trkpt lat="46.34409" lon="5.92515">
        <ele>1266.2</ele>
        <time>2021-08-19T13:03:40Z</time>
      </trkpt>
      <trkpt lat="46.3441" lon="5.92512">
        <ele>1266.2</ele>
        <time>2021-08-19T13:03:41Z</time>
      </trkpt>
      <trkpt lat="46.34412" lon="5.92504">
        <ele>1266.2</ele>
        <time>2021-08-19T13:03:43Z</time>
      </trkpt>
      <trkpt lat="46.34415" lon="5.92496">
        <ele>1266.2</ele>
        <time>2021-08-19T13:03:44Z</time>
      </trkpt>
      <trkpt lat="46.34417" lon="5.92491">
        <ele>1266.1</ele>
        <time>2021-08-19T13:03:45Z</time>
      </trkpt>
      <trkpt lat="46.34419" lon="5.92486">
        <ele>1266.1</ele>
        <time>2021-08-19T13:03:47Z</time>
      </trkpt>
      <trkpt lat="46.34421" lon="5.92479">
        <ele>1266</ele>
        <time>2021-08-19T13:03:48Z</time>
      </trkpt>
      <trkpt lat="46.34424" lon="5.92473">
        <ele>1265.9</ele>
        <time>2021-08-19T13:03:50Z</time>
      </trkpt>
      <trkpt lat="46.34426" lon="5.92469">
        <ele>1265.9</ele>
        <time>2021-08-19T13:03:51Z</time>
      </trkpt>
      <trkpt lat="46.34427" lon="5.92464">
        <ele>1265.8</ele>
        <time>2021-08-19T13:03:52Z</time>
      </trkpt>
      <trkpt lat="46.3443" lon="5.92453">
        <ele>1265.7</ele>
        <time>2021-08-19T13:03:54Z</time>
      </trkpt>
      <trkpt lat="46.34434" lon="5.92444">
        <ele>1265.6</ele>
        <time>2021-08-19T13:03:55Z</time>
      </trkpt>
      <trkpt lat="46.34438" lon="5.92435">
        <ele>1265.5</ele>
        <time>2021-08-19T13:03:57Z</time>
      </trkpt>
      <trkpt lat="46.34443" lon="5.92426">
        <ele>1265.4</ele>
        <time>2021-08-19T13:03:59Z</time>
      </trkpt>
      <trkpt lat="46.3445" lon="5.92414">
        <ele>1265.2</ele>
        <time>2021-08-19T13:04:01Z</time>
      </trkpt>
      <trkpt lat="46.34456" lon="5.92401">
        <ele>1265.1</ele>
        <time>2021-08-19T13:04:03Z</time>
      </trkpt>
      <trkpt lat="46.34459" lon="5.92395">
        <ele>1265.1</ele>
        <time>2021-08-19T13:04:04Z</time>
      </trkpt>
      <trkpt lat="46.34461" lon="5.92389">
        <ele>1265</ele>
        <time>2021-08-19T13:04:05Z</time>
      </trkpt>
      <trkpt lat="46.34467" lon="5.92377">
        <ele>1265</ele>
        <time>2021-08-19T13:04:07Z</time>
      </trkpt>
      <trkpt lat="46.34473" lon="5.92364">
        <ele>1264.9</ele>
        <time>2021-08-19T13:04:09Z</time>
      </trkpt>
      <trkpt lat="46.34478" lon="5.92351">
        <ele>1264.8</ele>
        <time>2021-08-19T13:04:11Z</time>
      </trkpt>
      <trkpt lat="46.34483" lon="5.92338">
        <ele>1264.6</ele>
        <time>2021-08-19T13:04:13Z</time>
      </trkpt>
      <trkpt lat="46.34486" lon="5.92333">
        <ele>1264.6</ele>
        <time>2021-08-19T13:04:14Z</time>
      </trkpt>
      <trkpt lat="46.3449" lon="5.92328">
        <ele>1264.6</ele>
        <time>2021-08-19T13:04:15Z</time>
      </trkpt>
      <trkpt lat="46.34497" lon="5.92317">
        <ele>1264.5</ele>
        <time>2021-08-19T13:04:17Z</time>
      </trkpt>
      <trkpt lat="46.34501" lon="5.92309">
        <ele>1264.4</ele>
        <time>2021-08-19T13:04:19Z</time>
      </trkpt>
      <trkpt lat="46.34505" lon="5.923">
        <ele>1264.3</ele>
        <time>2021-08-19T13:04:21Z</time>
      </trkpt>
      <trkpt lat="46.34509" lon="5.92292">
        <ele>1264.2</ele>
        <time>2021-08-19T13:04:23Z</time>
      </trkpt>
      <trkpt lat="46.34511" lon="5.92286">
        <ele>1264.2</ele>
        <time>2021-08-19T13:04:24Z</time>
      </trkpt>
      <trkpt lat="46.34509" lon="5.92285">
        <ele>1264.1</ele>
        <time>2021-08-19T13:04:25Z</time>
      </trkpt>
      <trkpt lat="46.34512" lon="5.92278">
        <ele>1264</ele>
        <time>2021-08-19T13:04:27Z</time>
      </trkpt>
      <trkpt lat="46.34516" lon="5.92272">
        <ele>1263.8</ele>
        <time>2021-08-19T13:04:28Z</time>
      </trkpt>
      <trkpt lat="46.3452" lon="5.92266">
        <ele>1263.7</ele>
        <time>2021-08-19T13:04:29Z</time>
      </trkpt>
      <trkpt lat="46.34524" lon="5.92257">
        <ele>1263.4</ele>
        <time>2021-08-19T13:04:31Z</time>
      </trkpt>
      <trkpt lat="46.34527" lon="5.92248">
        <ele>1263.2</ele>
        <time>2021-08-19T13:04:33Z</time>
      </trkpt>
      <trkpt lat="46.3453" lon="5.92244">
        <ele>1263</ele>
        <time>2021-08-19T13:04:34Z</time>
      </trkpt>
      <trkpt lat="46.34533" lon="5.92243">
        <ele>1261.1</ele>
        <time>2021-08-19T13:04:36Z</time>
      </trkpt>
      <trkpt lat="46.34537" lon="5.92242">
        <ele>1260.7</ele>
        <time>2021-08-19T13:04:37Z</time>
      </trkpt>
      <trkpt lat="46.34542" lon="5.92242">
        <ele>1260.1</ele>
        <time>2021-08-19T13:04:38Z</time>
      </trkpt>
      <trkpt lat="46.34547" lon="5.92242">
        <ele>1259.5</ele>
        <time>2021-08-19T13:04:40Z</time>
      </trkpt>
      <trkpt lat="46.34551" lon="5.92242">
        <ele>1259</ele>
        <time>2021-08-19T13:04:41Z</time>
      </trkpt>
      <trkpt lat="46.34557" lon="5.92244">
        <ele>1258.4</ele>
        <time>2021-08-19T13:04:42Z</time>
      </trkpt>
      <trkpt lat="46.3456" lon="5.92246">
        <ele>1257.9</ele>
        <time>2021-08-19T13:04:44Z</time>
      </trkpt>
      <trkpt lat="46.34564" lon="5.92248">
        <ele>1257.4</ele>
        <time>2021-08-19T13:04:45Z</time>
      </trkpt>
      <trkpt lat="46.34566" lon="5.92248">
        <ele>1257.3</ele>
        <time>2021-08-19T13:04:46Z</time>
      </trkpt>
      <trkpt lat="46.34569" lon="5.9225">
        <ele>1256.8</ele>
        <time>2021-08-19T13:04:47Z</time>
      </trkpt>
      <trkpt lat="46.34573" lon="5.92252">
        <ele>1256.4</ele>
        <time>2021-08-19T13:04:49Z</time>
      </trkpt>
      <trkpt lat="46.34578" lon="5.92253">
        <ele>1255.9</ele>
        <time>2021-08-19T13:04:50Z</time>
      </trkpt>
      <trkpt lat="46.34584" lon="5.92254">
        <ele>1255.1</ele>
        <time>2021-08-19T13:04:52Z</time>
      </trkpt>
      <trkpt lat="46.34588" lon="5.92254">
        <ele>1254.6</ele>
        <time>2021-08-19T13:04:53Z</time>
      </trkpt>
      <trkpt lat="46.3459" lon="5.92252">
        <ele>1254.4</ele>
        <time>2021-08-19T13:04:54Z</time>
      </trkpt>
      <trkpt lat="46.34596" lon="5.92248">
        <ele>1253.6</ele>
        <time>2021-08-19T13:04:56Z</time>
      </trkpt>
      <trkpt lat="46.34603" lon="5.92238">
        <ele>1252.6</ele>
        <time>2021-08-19T13:04:57Z</time>
      </trkpt>
      <trkpt lat="46.34606" lon="5.92229">
        <ele>1251.8</ele>
        <time>2021-08-19T13:04:59Z</time>
      </trkpt>
      <trkpt lat="46.34609" lon="5.92204">
        <ele>1249.9</ele>
        <time>2021-08-19T13:05:01Z</time>
      </trkpt>
      <trkpt lat="46.34612" lon="5.92188">
        <ele>1248.8</ele>
        <time>2021-08-19T13:05:03Z</time>
      </trkpt>
      <trkpt lat="46.34614" lon="5.92181">
        <ele>1248.3</ele>
        <time>2021-08-19T13:05:04Z</time>
      </trkpt>
      <trkpt lat="46.34616" lon="5.92174">
        <ele>1247.8</ele>
        <time>2021-08-19T13:05:05Z</time>
      </trkpt>
      <trkpt lat="46.34619" lon="5.92167">
        <ele>1247.2</ele>
        <time>2021-08-19T13:05:07Z</time>
      </trkpt>
      <trkpt lat="46.34623" lon="5.9216">
        <ele>1246.4</ele>
        <time>2021-08-19T13:05:08Z</time>
      </trkpt>
      <trkpt lat="46.34629" lon="5.92153">
        <ele>1245.4</ele>
        <time>2021-08-19T13:05:09Z</time>
      </trkpt>
      <trkpt lat="46.34634" lon="5.92147">
        <ele>1244.4</ele>
        <time>2021-08-19T13:05:11Z</time>
      </trkpt>
      <trkpt lat="46.3464" lon="5.92141">
        <ele>1243.4</ele>
        <time>2021-08-19T13:05:12Z</time>
      </trkpt>
      <trkpt lat="46.34645" lon="5.92139">
        <ele>1242.7</ele>
        <time>2021-08-19T13:05:14Z</time>
      </trkpt>
      <trkpt lat="46.3465" lon="5.92137">
        <ele>1241.8</ele>
        <time>2021-08-19T13:05:15Z</time>
      </trkpt>
      <trkpt lat="46.34655" lon="5.92134">
        <ele>1240.9</ele>
        <time>2021-08-19T13:05:16Z</time>
      </trkpt>
      <trkpt lat="46.34659" lon="5.92131">
        <ele>1240.2</ele>
        <time>2021-08-19T13:05:18Z</time>
      </trkpt>
      <trkpt lat="46.34663" lon="5.9213">
        <ele>1239.7</ele>
        <time>2021-08-19T13:05:19Z</time>
      </trkpt>
      <trkpt lat="46.34666" lon="5.92131">
        <ele>1239.2</ele>
        <time>2021-08-19T13:05:21Z</time>
      </trkpt>
      <trkpt lat="46.34669" lon="5.92135">
        <ele>1238.5</ele>
        <time>2021-08-19T13:05:22Z</time>
      </trkpt>
      <trkpt lat="46.34672" lon="5.9214">
        <ele>1237.7</ele>
        <time>2021-08-19T13:05:23Z</time>
      </trkpt>
      <trkpt lat="46.34676" lon="5.92144">
        <ele>1236.9</ele>
        <time>2021-08-19T13:05:25Z</time>
      </trkpt>
      <trkpt lat="46.34682" lon="5.92148">
        <ele>1236</ele>
        <time>2021-08-19T13:05:26Z</time>
      </trkpt>
      <trkpt lat="46.34685" lon="5.92149">
        <ele>1235.6</ele>
        <time>2021-08-19T13:05:27Z</time>
      </trkpt>
      <trkpt lat="46.34688" lon="5.92151">
        <ele>1235.1</ele>
        <time>2021-08-19T13:05:29Z</time>
      </trkpt>
      <trkpt lat="46.34692" lon="5.92153">
        <ele>1234.6</ele>
        <time>2021-08-19T13:05:30Z</time>
      </trkpt>
      <trkpt lat="46.34696" lon="5.92155">
        <ele>1234</ele>
        <time>2021-08-19T13:05:31Z</time>
      </trkpt>
      <trkpt lat="46.34701" lon="5.92158">
        <ele>1233.3</ele>
        <time>2021-08-19T13:05:32Z</time>
      </trkpt>
      <trkpt lat="46.34706" lon="5.9216">
        <ele>1232.6</ele>
        <time>2021-08-19T13:05:33Z</time>
      </trkpt>
      <trkpt lat="46.34714" lon="5.9216">
        <ele>1231.6</ele>
        <time>2021-08-19T13:05:34Z</time>
      </trkpt>
      <trkpt lat="46.34727" lon="5.92146">
        <ele>1229.4</ele>
        <time>2021-08-19T13:05:36Z</time>
      </trkpt>
      <trkpt lat="46.34733" lon="5.92139">
        <ele>1228.3</ele>
        <time>2021-08-19T13:05:37Z</time>
      </trkpt>
      <trkpt lat="46.34743" lon="5.92124">
        <ele>1226.3</ele>
        <time>2021-08-19T13:05:39Z</time>
      </trkpt>
      <trkpt lat="46.34754" lon="5.92115">
        <ele>1224.7</ele>
        <time>2021-08-19T13:05:41Z</time>
      </trkpt>
      <trkpt lat="46.34759" lon="5.92112">
        <ele>1224</ele>
        <time>2021-08-19T13:05:42Z</time>
      </trkpt>
      <trkpt lat="46.34763" lon="5.92109">
        <ele>1223.4</ele>
        <time>2021-08-19T13:05:43Z</time>
      </trkpt>
      <trkpt lat="46.34771" lon="5.92106">
        <ele>1222.2</ele>
        <time>2021-08-19T13:05:44Z</time>
      </trkpt>
      <trkpt lat="46.34778" lon="5.92105">
        <ele>1221.3</ele>
        <time>2021-08-19T13:05:46Z</time>
      </trkpt>
      <trkpt lat="46.34785" lon="5.92103">
        <ele>1220.2</ele>
        <time>2021-08-19T13:05:47Z</time>
      </trkpt>
      <trkpt lat="46.34802" lon="5.92096">
        <ele>1218.1</ele>
        <time>2021-08-19T13:05:49Z</time>
      </trkpt>
      <trkpt lat="46.34818" lon="5.92088">
        <ele>1216.4</ele>
        <time>2021-08-19T13:05:51Z</time>
      </trkpt>
      <trkpt lat="46.34826" lon="5.92085">
        <ele>1215.8</ele>
        <time>2021-08-19T13:05:52Z</time>
      </trkpt>
      <trkpt lat="46.34833" lon="5.92083">
        <ele>1215.2</ele>
        <time>2021-08-19T13:05:53Z</time>
      </trkpt>
      <trkpt lat="46.34839" lon="5.9208">
        <ele>1214.7</ele>
        <time>2021-08-19T13:05:54Z</time>
      </trkpt>
      <trkpt lat="46.34845" lon="5.92079">
        <ele>1214.2</ele>
        <time>2021-08-19T13:05:55Z</time>
      </trkpt>
      <trkpt lat="46.34857" lon="5.9208">
        <ele>1213.1</ele>
        <time>2021-08-19T13:05:57Z</time>
      </trkpt>
      <trkpt lat="46.34864" lon="5.92083">
        <ele>1212.3</ele>
        <time>2021-08-19T13:05:58Z</time>
      </trkpt>
      <trkpt lat="46.34871" lon="5.92085">
        <ele>1211.4</ele>
        <time>2021-08-19T13:05:59Z</time>
      </trkpt>
      <trkpt lat="46.34879" lon="5.92086">
        <ele>1210.6</ele>
        <time>2021-08-19T13:06:00Z</time>
      </trkpt>
      <trkpt lat="46.34886" lon="5.92086">
        <ele>1210</ele>
        <time>2021-08-19T13:06:01Z</time>
      </trkpt>
      <trkpt lat="46.34893" lon="5.92085">
        <ele>1209.6</ele>
        <time>2021-08-19T13:06:03Z</time>
      </trkpt>
      <trkpt lat="46.34901" lon="5.92085">
        <ele>1209.1</ele>
        <time>2021-08-19T13:06:05Z</time>
      </trkpt>
      <trkpt lat="46.34904" lon="5.92085">
        <ele>1208.8</ele>
        <time>2021-08-19T13:06:06Z</time>
      </trkpt>
      <trkpt lat="46.34907" lon="5.92085">
        <ele>1208.8</ele>
        <time>2021-08-19T13:06:07Z</time>
      </trkpt>
      <trkpt lat="46.34908" lon="5.92085">
        <ele>1208.8</ele>
        <time>2021-08-19T13:06:08Z</time>
      </trkpt>
      <trkpt lat="46.34909" lon="5.92085">
        <ele>1208.8</ele>
        <time>2021-08-19T13:06:09Z</time>
      </trkpt>
      <trkpt lat="46.34913" lon="5.92085">
        <ele>1208.7</ele>
        <time>2021-08-19T13:06:11Z</time>
      </trkpt>
      <trkpt lat="46.34921" lon="5.92081">
        <ele>1208.5</ele>
        <time>2021-08-19T13:06:13Z</time>
      </trkpt>
      <trkpt lat="46.34925" lon="5.92078">
        <ele>1208.3</ele>
        <time>2021-08-19T13:06:14Z</time>
      </trkpt>
      <trkpt lat="46.3493" lon="5.92073">
        <ele>1207.9</ele>
        <time>2021-08-19T13:06:16Z</time>
      </trkpt>
      <trkpt lat="46.34936" lon="5.92071">
        <ele>1207.4</ele>
        <time>2021-08-19T13:06:17Z</time>
      </trkpt>
      <trkpt lat="46.3494" lon="5.92069">
        <ele>1207</ele>
        <time>2021-08-19T13:06:18Z</time>
      </trkpt>
      <trkpt lat="46.34945" lon="5.92068">
        <ele>1206.5</ele>
        <time>2021-08-19T13:06:20Z</time>
      </trkpt>
      <trkpt lat="46.34947" lon="5.92067">
        <ele>1206.3</ele>
        <time>2021-08-19T13:06:21Z</time>
      </trkpt>
      <trkpt lat="46.3495" lon="5.92065">
        <ele>1205.9</ele>
        <time>2021-08-19T13:06:23Z</time>
      </trkpt>
      <trkpt lat="46.34954" lon="5.92063">
        <ele>1205.5</ele>
        <time>2021-08-19T13:06:25Z</time>
      </trkpt>
      <trkpt lat="46.34957" lon="5.92061">
        <ele>1205.2</ele>
        <time>2021-08-19T13:06:27Z</time>
      </trkpt>
      <trkpt lat="46.3496" lon="5.92058">
        <ele>1204.9</ele>
        <time>2021-08-19T13:06:28Z</time>
      </trkpt>
      <trkpt lat="46.34963" lon="5.92058">
        <ele>1204.7</ele>
        <time>2021-08-19T13:06:30Z</time>
      </trkpt>
      <trkpt lat="46.35041" lon="5.92117">
        <ele>1203.6</ele>
        <time>2021-08-19T13:06:53Z</time>
      </trkpt>
      <trkpt lat="46.35053" lon="5.92123">
        <ele>1203.7</ele>
        <time>2021-08-19T13:06:54Z</time>
      </trkpt>
      <trkpt lat="46.35064" lon="5.92126">
        <ele>1203.6</ele>
        <time>2021-08-19T13:06:56Z</time>
      </trkpt>
      <trkpt lat="46.35075" lon="5.92127">
        <ele>1203.4</ele>
        <time>2021-08-19T13:06:57Z</time>
      </trkpt>
      <trkpt lat="46.35081" lon="5.92129">
        <ele>1203.3</ele>
        <time>2021-08-19T13:06:58Z</time>
      </trkpt>
      <trkpt lat="46.35086" lon="5.92129">
        <ele>1203.2</ele>
        <time>2021-08-19T13:06:59Z</time>
      </trkpt>
      <trkpt lat="46.35097" lon="5.92129">
        <ele>1202.6</ele>
        <time>2021-08-19T13:07:01Z</time>
      </trkpt>
      <trkpt lat="46.35113" lon="5.92126">
        <ele>1201.3</ele>
        <time>2021-08-19T13:07:03Z</time>
      </trkpt>
      <trkpt lat="46.35121" lon="5.92123">
        <ele>1200.3</ele>
        <time>2021-08-19T13:07:04Z</time>
      </trkpt>
      <trkpt lat="46.3513" lon="5.92118">
        <ele>1199.3</ele>
        <time>2021-08-19T13:07:05Z</time>
      </trkpt>
      <trkpt lat="46.35148" lon="5.92107">
        <ele>1197.6</ele>
        <time>2021-08-19T13:07:07Z</time>
      </trkpt>
      <trkpt lat="46.35165" lon="5.92097">
        <ele>1196.7</ele>
        <time>2021-08-19T13:07:09Z</time>
      </trkpt>
      <trkpt lat="46.35182" lon="5.92089">
        <ele>1196</ele>
        <time>2021-08-19T13:07:11Z</time>
      </trkpt>
      <trkpt lat="46.35199" lon="5.92083">
        <ele>1195.1</ele>
        <time>2021-08-19T13:07:13Z</time>
      </trkpt>
      <trkpt lat="46.35216" lon="5.92074">
        <ele>1194.6</ele>
        <time>2021-08-19T13:07:15Z</time>
      </trkpt>
      <trkpt lat="46.35223" lon="5.92069">
        <ele>1194.8</ele>
        <time>2021-08-19T13:07:16Z</time>
      </trkpt>
      <trkpt lat="46.35229" lon="5.92063">
        <ele>1195.2</ele>
        <time>2021-08-19T13:07:17Z</time>
      </trkpt>
      <trkpt lat="46.35239" lon="5.92053">
        <ele>1196</ele>
        <time>2021-08-19T13:07:19Z</time>
      </trkpt>
      <trkpt lat="46.35249" lon="5.92047">
        <ele>1196.4</ele>
        <time>2021-08-19T13:07:21Z</time>
      </trkpt>
      <trkpt lat="46.35259" lon="5.92043">
        <ele>1196.3</ele>
        <time>2021-08-19T13:07:23Z</time>
      </trkpt>
      <trkpt lat="46.3527" lon="5.92038">
        <ele>1196.5</ele>
        <time>2021-08-19T13:07:25Z</time>
      </trkpt>
      <trkpt lat="46.35277" lon="5.92035">
        <ele>1196.9</ele>
        <time>2021-08-19T13:07:27Z</time>
      </trkpt>
      <trkpt lat="46.35279" lon="5.92031">
        <ele>1197.1</ele>
        <time>2021-08-19T13:07:28Z</time>
      </trkpt>
      <trkpt lat="46.35282" lon="5.92028">
        <ele>1197.6</ele>
        <time>2021-08-19T13:07:29Z</time>
      </trkpt>
      <trkpt lat="46.35285" lon="5.92025">
        <ele>1197.9</ele>
        <time>2021-08-19T13:07:31Z</time>
      </trkpt>
      <trkpt lat="46.35285" lon="5.92017">
        <ele>1198.4</ele>
        <time>2021-08-19T13:07:33Z</time>
      </trkpt>
      <trkpt lat="46.35285" lon="5.9201">
        <ele>1198.8</ele>
        <time>2021-08-19T13:07:35Z</time>
      </trkpt>
      <trkpt lat="46.35284" lon="5.92003">
        <ele>1199.3</ele>
        <time>2021-08-19T13:07:36Z</time>
      </trkpt>
      <trkpt lat="46.35284" lon="5.91995">
        <ele>1199.7</ele>
        <time>2021-08-19T13:07:37Z</time>
      </trkpt>
      <trkpt lat="46.35283" lon="5.91988">
        <ele>1200.2</ele>
        <time>2021-08-19T13:07:39Z</time>
      </trkpt>
      <trkpt lat="46.35282" lon="5.91981">
        <ele>1200.7</ele>
        <time>2021-08-19T13:07:40Z</time>
      </trkpt>
      <trkpt lat="46.35282" lon="5.91974">
        <ele>1201</ele>
        <time>2021-08-19T13:07:41Z</time>
      </trkpt>
      <trkpt lat="46.35281" lon="5.91966">
        <ele>1201.4</ele>
        <time>2021-08-19T13:07:43Z</time>
      </trkpt>
      <trkpt lat="46.35281" lon="5.91959">
        <ele>1201.6</ele>
        <time>2021-08-19T13:07:44Z</time>
      </trkpt>
      <trkpt lat="46.3528" lon="5.91952">
        <ele>1201.8</ele>
        <time>2021-08-19T13:07:45Z</time>
      </trkpt>
      <trkpt lat="46.35279" lon="5.91944">
        <ele>1201.8</ele>
        <time>2021-08-19T13:08:53Z</time>
      </trkpt>
      <trkpt lat="46.35279" lon="5.91937">
        <ele>1201.9</ele>
        <time>2021-08-19T13:08:54Z</time>
      </trkpt>
      <trkpt lat="46.35278" lon="5.91925">
        <ele>1201.8</ele>
        <time>2021-08-19T13:08:56Z</time>
      </trkpt>
      <trkpt lat="46.35276" lon="5.9191">
        <ele>1201.7</ele>
        <time>2021-08-19T13:08:57Z</time>
      </trkpt>
      <trkpt lat="46.35275" lon="5.91901">
        <ele>1201.6</ele>
        <time>2021-08-19T13:08:59Z</time>
      </trkpt>
      <trkpt lat="46.35274" lon="5.9189">
        <ele>1201.5</ele>
        <time>2021-08-19T13:09:00Z</time>
      </trkpt>
      <trkpt lat="46.35274" lon="5.91886">
        <ele>1201.5</ele>
        <time>2021-08-19T13:09:02Z</time>
      </trkpt>
      <trkpt lat="46.35275" lon="5.91884">
        <ele>1201.5</ele>
        <time>2021-08-19T13:09:03Z</time>
      </trkpt>
      <trkpt lat="46.35276" lon="5.91882">
        <ele>1201.5</ele>
        <time>2021-08-19T13:09:05Z</time>
      </trkpt>
      <trkpt lat="46.35276" lon="5.91882">
        <ele>1201.5</ele>
        <time>2021-08-19T13:09:07Z</time>
      </trkpt>
      <trkpt lat="46.35277" lon="5.91883">
        <ele>1201.5</ele>
        <time>2021-08-19T13:09:08Z</time>
      </trkpt>
      <trkpt lat="46.35279" lon="5.9188">
        <ele>1201.5</ele>
        <time>2021-08-19T13:09:10Z</time>
      </trkpt>
      <trkpt lat="46.35279" lon="5.91877">
        <ele>1201.5</ele>
        <time>2021-08-19T13:09:11Z</time>
      </trkpt>
      <trkpt lat="46.35278" lon="5.91875">
        <ele>1201.5</ele>
        <time>2021-08-19T13:09:12Z</time>
      </trkpt>
      <trkpt lat="46.35277" lon="5.91874">
        <ele>1201.5</ele>
        <time>2021-08-19T13:09:13Z</time>
      </trkpt>
      <trkpt lat="46.35275" lon="5.91874">
        <ele>1201.5</ele>
        <time>2021-08-19T13:09:15Z</time>
      </trkpt>
      <trkpt lat="46.35274" lon="5.91875">
        <ele>1201.5</ele>
        <time>2021-08-19T13:09:16Z</time>
      </trkpt>
      <trkpt lat="46.35274" lon="5.91875">
        <ele>1201.5</ele>
        <time>2021-08-19T13:09:17Z</time>
      </trkpt>
      <trkpt lat="46.35274" lon="5.91875">
        <ele>1201.5</ele>
        <time>2021-08-19T13:09:18Z</time>
      </trkpt>
      <trkpt lat="46.35274" lon="5.91875">
        <ele>1201.5</ele>
        <time>2021-08-19T13:09:20Z</time>
      </trkpt>
      <trkpt lat="46.35274" lon="5.91874">
        <ele>1201.5</ele>
        <time>2021-08-19T13:09:21Z</time>
      </trkpt>
      <trkpt lat="46.35273" lon="5.91874">
        <ele>1201.5</ele>
        <time>2021-08-19T13:09:23Z</time>
      </trkpt>
      <trkpt lat="46.35268" lon="5.91868">
        <ele>1201.4</ele>
        <time>2021-08-19T13:09:30Z</time>
      </trkpt>
      <trkpt lat="46.35264" lon="5.91866">
        <ele>1201.4</ele>
        <time>2021-08-19T13:09:31Z</time>
      </trkpt>
      <trkpt lat="46.35261" lon="5.91865">
        <ele>1201.4</ele>
        <time>2021-08-19T13:09:33Z</time>
      </trkpt>
      <trkpt lat="46.35256" lon="5.91862">
        <ele>1201.3</ele>
        <time>2021-08-19T13:09:35Z</time>
      </trkpt>
      <trkpt lat="46.35255" lon="5.91861">
        <ele>1201.3</ele>
        <time>2021-08-19T13:09:36Z</time>
      </trkpt>
      <trkpt lat="46.35254" lon="5.9186">
        <ele>1201.3</ele>
        <time>2021-08-19T13:09:38Z</time>
      </trkpt>
      <trkpt lat="46.35253" lon="5.9186">
        <ele>1201.3</ele>
        <time>2021-08-19T13:09:39Z</time>
      </trkpt>
      <trkpt lat="46.3525" lon="5.91858">
        <ele>1201.3</ele>
        <time>2021-08-19T13:09:40Z</time>
      </trkpt>
      <trkpt lat="46.35249" lon="5.91857">
        <ele>1201.3</ele>
        <time>2021-08-19T13:09:41Z</time>
      </trkpt>
      <trkpt lat="46.35243" lon="5.91854">
        <ele>1201.2</ele>
        <time>2021-08-19T13:09:43Z</time>
      </trkpt>
      <trkpt lat="46.35241" lon="5.91852">
        <ele>1201.2</ele>
        <time>2021-08-19T13:09:44Z</time>
      </trkpt>
      <trkpt lat="46.35238" lon="5.9185">
        <ele>1201.2</ele>
        <time>2021-08-19T13:09:45Z</time>
      </trkpt>
      <trkpt lat="46.35232" lon="5.91849">
        <ele>1201.2</ele>
        <time>2021-08-19T13:09:47Z</time>
      </trkpt>
      <trkpt lat="46.35227" lon="5.91847">
        <ele>1201.2</ele>
        <time>2021-08-19T13:09:49Z</time>
      </trkpt>
      <trkpt lat="46.35223" lon="5.91846">
        <ele>1201.2</ele>
        <time>2021-08-19T13:09:50Z</time>
      </trkpt>
      <trkpt lat="46.3522" lon="5.91843">
        <ele>1201.2</ele>
        <time>2021-08-19T13:09:51Z</time>
      </trkpt>
      <trkpt lat="46.35218" lon="5.9184">
        <ele>1201.2</ele>
        <time>2021-08-19T13:09:52Z</time>
      </trkpt>
      <trkpt lat="46.35216" lon="5.91837">
        <ele>1201.2</ele>
        <time>2021-08-19T13:09:54Z</time>
      </trkpt>
      <trkpt lat="46.35214" lon="5.91835">
        <ele>1201.2</ele>
        <time>2021-08-19T13:09:55Z</time>
      </trkpt>
      <trkpt lat="46.35209" lon="5.91834">
        <ele>1201.2</ele>
        <time>2021-08-19T13:09:56Z</time>
      </trkpt>
      <trkpt lat="46.35204" lon="5.91831">
        <ele>1201.2</ele>
        <time>2021-08-19T13:09:58Z</time>
      </trkpt>
      <trkpt lat="46.35197" lon="5.91828">
        <ele>1201.2</ele>
        <time>2021-08-19T13:10:00Z</time>
      </trkpt>
      <trkpt lat="46.35195" lon="5.91826">
        <ele>1201.1</ele>
        <time>2021-08-19T13:10:01Z</time>
      </trkpt>
      <trkpt lat="46.35189" lon="5.91821">
        <ele>1201.1</ele>
        <time>2021-08-19T13:10:03Z</time>
      </trkpt>
      <trkpt lat="46.35183" lon="5.91816">
        <ele>1201.1</ele>
        <time>2021-08-19T13:10:05Z</time>
      </trkpt>
      <trkpt lat="46.3518" lon="5.91812">
        <ele>1201</ele>
        <time>2021-08-19T13:10:06Z</time>
      </trkpt>
      <trkpt lat="46.35177" lon="5.91809">
        <ele>1201</ele>
        <time>2021-08-19T13:10:07Z</time>
      </trkpt>
      <trkpt lat="46.35172" lon="5.91804">
        <ele>1200.9</ele>
        <time>2021-08-19T13:10:09Z</time>
      </trkpt>
      <trkpt lat="46.35168" lon="5.91797">
        <ele>1200.8</ele>
        <time>2021-08-19T13:10:11Z</time>
      </trkpt>
      <trkpt lat="46.35164" lon="5.91791">
        <ele>1200.8</ele>
        <time>2021-08-19T13:10:12Z</time>
      </trkpt>
      <trkpt lat="46.35161" lon="5.91785">
        <ele>1200.7</ele>
        <time>2021-08-19T13:10:14Z</time>
      </trkpt>
      <trkpt lat="46.35159" lon="5.91778">
        <ele>1200.7</ele>
        <time>2021-08-19T13:10:15Z</time>
      </trkpt>
      <trkpt lat="46.35158" lon="5.91773">
        <ele>1200.7</ele>
        <time>2021-08-19T13:10:16Z</time>
      </trkpt>
      <trkpt lat="46.35156" lon="5.91768">
        <ele>1200.7</ele>
        <time>2021-08-19T13:10:17Z</time>
      </trkpt>
      <trkpt lat="46.35155" lon="5.91764">
        <ele>1200.7</ele>
        <time>2021-08-19T13:10:18Z</time>
      </trkpt>
      <trkpt lat="46.35153" lon="5.91759">
        <ele>1200.7</ele>
        <time>2021-08-19T13:10:20Z</time>
      </trkpt>
      <trkpt lat="46.35151" lon="5.91754">
        <ele>1200.6</ele>
        <time>2021-08-19T13:10:21Z</time>
      </trkpt>
      <trkpt lat="46.35148" lon="5.91749">
        <ele>1200.6</ele>
        <time>2021-08-19T13:10:22Z</time>
      </trkpt>
      <trkpt lat="46.35144" lon="5.91738">
        <ele>1200.4</ele>
        <time>2021-08-19T13:10:24Z</time>
      </trkpt>
      <trkpt lat="46.35141" lon="5.91733">
        <ele>1200.3</ele>
        <time>2021-08-19T13:10:25Z</time>
      </trkpt>
      <trkpt lat="46.35137" lon="5.91726">
        <ele>1200.2</ele>
        <time>2021-08-19T13:10:27Z</time>
      </trkpt>
      <trkpt lat="46.35132" lon="5.9172">
        <ele>1200.1</ele>
        <time>2021-08-19T13:10:29Z</time>
      </trkpt>
      <trkpt lat="46.35129" lon="5.91717">
        <ele>1200</ele>
        <time>2021-08-19T13:10:30Z</time>
      </trkpt>
      <trkpt lat="46.35126" lon="5.91714">
        <ele>1200</ele>
        <time>2021-08-19T13:10:31Z</time>
      </trkpt>
      <trkpt lat="46.35121" lon="5.91708">
        <ele>1199.8</ele>
        <time>2021-08-19T13:10:33Z</time>
      </trkpt>
      <trkpt lat="46.35118" lon="5.91705">
        <ele>1199.8</ele>
        <time>2021-08-19T13:10:34Z</time>
      </trkpt>
      <trkpt lat="46.35111" lon="5.91701">
        <ele>1199.7</ele>
        <time>2021-08-19T13:10:36Z</time>
      </trkpt>
      <trkpt lat="46.35108" lon="5.91698">
        <ele>1199.7</ele>
        <time>2021-08-19T13:10:37Z</time>
      </trkpt>
      <trkpt lat="46.35103" lon="5.91693">
        <ele>1199.7</ele>
        <time>2021-08-19T13:10:39Z</time>
      </trkpt>
      <trkpt lat="46.351" lon="5.9169">
        <ele>1199.7</ele>
        <time>2021-08-19T13:10:40Z</time>
      </trkpt>
      <trkpt lat="46.35097" lon="5.91687">
        <ele>1199.7</ele>
        <time>2021-08-19T13:10:41Z</time>
      </trkpt>
      <trkpt lat="46.35088" lon="5.9168">
        <ele>1199.6</ele>
        <time>2021-08-19T13:10:43Z</time>
      </trkpt>
      <trkpt lat="46.35081" lon="5.91672">
        <ele>1199.6</ele>
        <time>2021-08-19T13:10:45Z</time>
      </trkpt>
      <trkpt lat="46.35077" lon="5.91669">
        <ele>1199.5</ele>
        <time>2021-08-19T13:10:46Z</time>
      </trkpt>
      <trkpt lat="46.35074" lon="5.91665">
        <ele>1199.4</ele>
        <time>2021-08-19T13:10:47Z</time>
      </trkpt>
      <trkpt lat="46.35064" lon="5.91654">
        <ele>1199.2</ele>
        <time>2021-08-19T13:10:49Z</time>
      </trkpt>
      <trkpt lat="46.35055" lon="5.91646">
        <ele>1199</ele>
        <time>2021-08-19T13:10:51Z</time>
      </trkpt>
      <trkpt lat="46.35046" lon="5.91638">
        <ele>1198.8</ele>
        <time>2021-08-19T13:10:53Z</time>
      </trkpt>
      <trkpt lat="46.35035" lon="5.9163">
        <ele>1198.5</ele>
        <time>2021-08-19T13:10:55Z</time>
      </trkpt>
      <trkpt lat="46.3503" lon="5.91626">
        <ele>1198.4</ele>
        <time>2021-08-19T13:10:56Z</time>
      </trkpt>
      <trkpt lat="46.35021" lon="5.91618">
        <ele>1198.3</ele>
        <time>2021-08-19T13:10:58Z</time>
      </trkpt>
      <trkpt lat="46.35017" lon="5.91613">
        <ele>1198.2</ele>
        <time>2021-08-19T13:10:59Z</time>
      </trkpt>
      <trkpt lat="46.35008" lon="5.91604">
        <ele>1197.9</ele>
        <time>2021-08-19T13:11:01Z</time>
      </trkpt>
      <trkpt lat="46.35004" lon="5.916">
        <ele>1197.8</ele>
        <time>2021-08-19T13:11:02Z</time>
      </trkpt>
      <trkpt lat="46.34995" lon="5.91592">
        <ele>1197.6</ele>
        <time>2021-08-19T13:11:04Z</time>
      </trkpt>
      <trkpt lat="46.3499" lon="5.91588">
        <ele>1197.4</ele>
        <time>2021-08-19T13:11:05Z</time>
      </trkpt>
      <trkpt lat="46.34982" lon="5.91579">
        <ele>1197.2</ele>
        <time>2021-08-19T13:11:07Z</time>
      </trkpt>
      <trkpt lat="46.34972" lon="5.9157">
        <ele>1197</ele>
        <time>2021-08-19T13:11:09Z</time>
      </trkpt>
      <trkpt lat="46.34968" lon="5.91566">
        <ele>1196.9</ele>
        <time>2021-08-19T13:11:10Z</time>
      </trkpt>
      <trkpt lat="46.34963" lon="5.91561">
        <ele>1196.9</ele>
        <time>2021-08-19T13:11:11Z</time>
      </trkpt>
      <trkpt lat="46.34954" lon="5.91552">
        <ele>1196.8</ele>
        <time>2021-08-19T13:11:13Z</time>
      </trkpt>
      <trkpt lat="46.34946" lon="5.91546">
        <ele>1196.8</ele>
        <time>2021-08-19T13:11:15Z</time>
      </trkpt>
      <trkpt lat="46.34943" lon="5.91544">
        <ele>1196.8</ele>
        <time>2021-08-19T13:11:16Z</time>
      </trkpt>
      <trkpt lat="46.34941" lon="5.91542">
        <ele>1196.8</ele>
        <time>2021-08-19T13:11:17Z</time>
      </trkpt>
      <trkpt lat="46.34937" lon="5.91541">
        <ele>1196.8</ele>
        <time>2021-08-19T13:11:18Z</time>
      </trkpt>
      <trkpt lat="46.34935" lon="5.9154">
        <ele>1196.7</ele>
        <time>2021-08-19T13:11:19Z</time>
      </trkpt>
      <trkpt lat="46.34932" lon="5.91538">
        <ele>1196.7</ele>
        <time>2021-08-19T13:11:21Z</time>
      </trkpt>
      <trkpt lat="46.34931" lon="5.91538">
        <ele>1196.7</ele>
        <time>2021-08-19T13:11:22Z</time>
      </trkpt>
      <trkpt lat="46.3493" lon="5.91539">
        <ele>1196.6</ele>
        <time>2021-08-19T13:11:23Z</time>
      </trkpt>
      <trkpt lat="46.34931" lon="5.91538">
        <ele>1196.6</ele>
        <time>2021-08-19T13:11:25Z</time>
      </trkpt>
      <trkpt lat="46.3493" lon="5.91536">
        <ele>1196.6</ele>
        <time>2021-08-19T13:11:26Z</time>
      </trkpt>
      <trkpt lat="46.3493" lon="5.91536">
        <ele>1196.6</ele>
        <time>2021-08-19T13:11:27Z</time>
      </trkpt>
      <trkpt lat="46.3493" lon="5.91536">
        <ele>1196.6</ele>
        <time>2021-08-19T13:11:29Z</time>
      </trkpt>
      <trkpt lat="46.3493" lon="5.91536">
        <ele>1196.6</ele>
        <time>2021-08-19T13:11:31Z</time>
      </trkpt>
      <trkpt lat="46.3493" lon="5.91536">
        <ele>1196.6</ele>
        <time>2021-08-19T13:11:32Z</time>
      </trkpt>
      <trkpt lat="46.34926" lon="5.91517">
        <ele>1195.9</ele>
        <time>2021-08-19T13:11:43Z</time>
      </trkpt>
      <trkpt lat="46.34927" lon="5.9151">
        <ele>1195.6</ele>
        <time>2021-08-19T13:11:44Z</time>
      </trkpt>
      <trkpt lat="46.34928" lon="5.91504">
        <ele>1195.3</ele>
        <time>2021-08-19T13:11:46Z</time>
      </trkpt>
      <trkpt lat="46.34929" lon="5.91501">
        <ele>1195.2</ele>
        <time>2021-08-19T13:11:47Z</time>
      </trkpt>
      <trkpt lat="46.34929" lon="5.915">
        <ele>1195.1</ele>
        <time>2021-08-19T13:11:49Z</time>
      </trkpt>
      <trkpt lat="46.34929" lon="5.91499">
        <ele>1195</ele>
        <time>2021-08-19T13:11:50Z</time>
      </trkpt>
      <trkpt lat="46.34928" lon="5.91498">
        <ele>1195</ele>
        <time>2021-08-19T13:11:51Z</time>
      </trkpt>
      <trkpt lat="46.34928" lon="5.91497">
        <ele>1194.9</ele>
        <time>2021-08-19T13:11:52Z</time>
      </trkpt>
      <trkpt lat="46.34928" lon="5.91496">
        <ele>1194.8</ele>
        <time>2021-08-19T13:11:53Z</time>
      </trkpt>
      <trkpt lat="46.34927" lon="5.91495">
        <ele>1194.8</ele>
        <time>2021-08-19T13:11:55Z</time>
      </trkpt>
      <trkpt lat="46.34927" lon="5.91494">
        <ele>1194.7</ele>
        <time>2021-08-19T13:12:32Z</time>
      </trkpt>
      <trkpt lat="46.34927" lon="5.91493">
        <ele>1194.6</ele>
        <time>2021-08-19T13:12:33Z</time>
      </trkpt>
      <trkpt lat="46.34927" lon="5.91492">
        <ele>1194.6</ele>
        <time>2021-08-19T13:12:34Z</time>
      </trkpt>
      <trkpt lat="46.34926" lon="5.91491">
        <ele>1194.5</ele>
        <time>2021-08-19T13:12:35Z</time>
      </trkpt>
      <trkpt lat="46.34923" lon="5.91489">
        <ele>1194.2</ele>
        <time>2021-08-19T13:12:37Z</time>
      </trkpt>
      <trkpt lat="46.34919" lon="5.91485">
        <ele>1193.7</ele>
        <time>2021-08-19T13:12:38Z</time>
      </trkpt>
      <trkpt lat="46.34916" lon="5.91484">
        <ele>1193.4</ele>
        <time>2021-08-19T13:12:39Z</time>
      </trkpt>
      <trkpt lat="46.34912" lon="5.91481">
        <ele>1193</ele>
        <time>2021-08-19T13:12:41Z</time>
      </trkpt>
      <trkpt lat="46.34911" lon="5.9148">
        <ele>1192.8</ele>
        <time>2021-08-19T13:12:42Z</time>
      </trkpt>
      <trkpt lat="46.34909" lon="5.91477">
        <ele>1192.6</ele>
        <time>2021-08-19T13:12:43Z</time>
      </trkpt>
      <trkpt lat="46.34908" lon="5.91474">
        <ele>1192.3</ele>
        <time>2021-08-19T13:12:45Z</time>
      </trkpt>
      <trkpt lat="46.34906" lon="5.91467">
        <ele>1191.8</ele>
        <time>2021-08-19T13:12:46Z</time>
      </trkpt>
      <trkpt lat="46.34904" lon="5.91461">
        <ele>1191.4</ele>
        <time>2021-08-19T13:12:47Z</time>
      </trkpt>
      <trkpt lat="46.34902" lon="5.91456">
        <ele>1191</ele>
        <time>2021-08-19T13:12:49Z</time>
      </trkpt>
      <trkpt lat="46.349" lon="5.91452">
        <ele>1190.7</ele>
        <time>2021-08-19T13:12:50Z</time>
      </trkpt>
      <trkpt lat="46.34898" lon="5.91447">
        <ele>1190.4</ele>
        <time>2021-08-19T13:12:51Z</time>
      </trkpt>
      <trkpt lat="46.34896" lon="5.91442">
        <ele>1190</ele>
        <time>2021-08-19T13:12:53Z</time>
      </trkpt>
      <trkpt lat="46.34894" lon="5.91437">
        <ele>1189.6</ele>
        <time>2021-08-19T13:12:54Z</time>
      </trkpt>
      <trkpt lat="46.34891" lon="5.91428">
        <ele>1188.9</ele>
        <time>2021-08-19T13:12:55Z</time>
      </trkpt>
      <trkpt lat="46.34886" lon="5.91414">
        <ele>1188</ele>
        <time>2021-08-19T13:12:57Z</time>
      </trkpt>
      <trkpt lat="46.34889" lon="5.91407">
        <ele>1187.6</ele>
        <time>2021-08-19T13:12:58Z</time>
      </trkpt>
      <trkpt lat="46.34889" lon="5.91399">
        <ele>1187.2</ele>
        <time>2021-08-19T13:12:59Z</time>
      </trkpt>
      <trkpt lat="46.34888" lon="5.91392">
        <ele>1186.8</ele>
        <time>2021-08-19T13:13:01Z</time>
      </trkpt>
      <trkpt lat="46.34888" lon="5.91383">
        <ele>1186.3</ele>
        <time>2021-08-19T13:13:02Z</time>
      </trkpt>
      <trkpt lat="46.34888" lon="5.91367">
        <ele>1185.6</ele>
        <time>2021-08-19T13:13:04Z</time>
      </trkpt>
      <trkpt lat="46.34887" lon="5.91358">
        <ele>1185.3</ele>
        <time>2021-08-19T13:13:05Z</time>
      </trkpt>
      <trkpt lat="46.34886" lon="5.91344">
        <ele>1185</ele>
        <time>2021-08-19T13:13:07Z</time>
      </trkpt>
      <trkpt lat="46.34882" lon="5.91337">
        <ele>1184.8</ele>
        <time>2021-08-19T13:13:08Z</time>
      </trkpt>
      <trkpt lat="46.34875" lon="5.91332">
        <ele>1184.5</ele>
        <time>2021-08-19T13:13:10Z</time>
      </trkpt>
      <trkpt lat="46.34871" lon="5.91325">
        <ele>1184.4</ele>
        <time>2021-08-19T13:13:11Z</time>
      </trkpt>
      <trkpt lat="46.34864" lon="5.91311">
        <ele>1184.2</ele>
        <time>2021-08-19T13:13:13Z</time>
      </trkpt>
      <trkpt lat="46.3486" lon="5.91301">
        <ele>1184.1</ele>
        <time>2021-08-19T13:13:15Z</time>
      </trkpt>
      <trkpt lat="46.34858" lon="5.91297">
        <ele>1184</ele>
        <time>2021-08-19T13:13:16Z</time>
      </trkpt>
      <trkpt lat="46.34856" lon="5.91294">
        <ele>1183.9</ele>
        <time>2021-08-19T13:13:18Z</time>
      </trkpt>
      <trkpt lat="46.34856" lon="5.91294">
        <ele>1183.9</ele>
        <time>2021-08-19T13:13:19Z</time>
      </trkpt>
      <trkpt lat="46.34856" lon="5.91298">
        <ele>1183.8</ele>
        <time>2021-08-19T13:13:20Z</time>
      </trkpt>
      <trkpt lat="46.34855" lon="5.91296">
        <ele>1183.7</ele>
        <time>2021-08-19T13:13:21Z</time>
      </trkpt>
      <trkpt lat="46.34853" lon="5.91292">
        <ele>1183.6</ele>
        <time>2021-08-19T13:13:23Z</time>
      </trkpt>
      <trkpt lat="46.34851" lon="5.91286">
        <ele>1183.4</ele>
        <time>2021-08-19T13:13:24Z</time>
      </trkpt>
      <trkpt lat="46.34848" lon="5.91281">
        <ele>1183.2</ele>
        <time>2021-08-19T13:13:25Z</time>
      </trkpt>
      <trkpt lat="46.34845" lon="5.91276">
        <ele>1183</ele>
        <time>2021-08-19T13:13:26Z</time>
      </trkpt>
      <trkpt lat="46.34843" lon="5.91269">
        <ele>1182.7</ele>
        <time>2021-08-19T13:13:27Z</time>
      </trkpt>
      <trkpt lat="46.34842" lon="5.91263">
        <ele>1182.5</ele>
        <time>2021-08-19T13:13:28Z</time>
      </trkpt>
      <trkpt lat="46.34841" lon="5.91257">
        <ele>1182.3</ele>
        <time>2021-08-19T13:13:30Z</time>
      </trkpt>
      <trkpt lat="46.34841" lon="5.91246">
        <ele>1182</ele>
        <time>2021-08-19T13:13:31Z</time>
      </trkpt>
      <trkpt lat="46.34841" lon="5.91239">
        <ele>1181.9</ele>
        <time>2021-08-19T13:13:33Z</time>
      </trkpt>
      <trkpt lat="46.3484" lon="5.91233">
        <ele>1181.7</ele>
        <time>2021-08-19T13:13:34Z</time>
      </trkpt>
      <trkpt lat="46.34838" lon="5.91228">
        <ele>1181.6</ele>
        <time>2021-08-19T13:13:35Z</time>
      </trkpt>
      <trkpt lat="46.34836" lon="5.9122">
        <ele>1181.5</ele>
        <time>2021-08-19T13:13:37Z</time>
      </trkpt>
      <trkpt lat="46.34834" lon="5.91214">
        <ele>1181.5</ele>
        <time>2021-08-19T13:13:38Z</time>
      </trkpt>
      <trkpt lat="46.34833" lon="5.91208">
        <ele>1181.4</ele>
        <time>2021-08-19T13:13:40Z</time>
      </trkpt>
      <trkpt lat="46.34832" lon="5.91204">
        <ele>1181.4</ele>
        <time>2021-08-19T13:13:41Z</time>
      </trkpt>
      <trkpt lat="46.3483" lon="5.91199">
        <ele>1181.4</ele>
        <time>2021-08-19T13:13:42Z</time>
      </trkpt>
      <trkpt lat="46.34829" lon="5.91196">
        <ele>1181.4</ele>
        <time>2021-08-19T13:13:44Z</time>
      </trkpt>
      <trkpt lat="46.34827" lon="5.91191">
        <ele>1181.4</ele>
        <time>2021-08-19T13:13:45Z</time>
      </trkpt>
      <trkpt lat="46.34824" lon="5.91187">
        <ele>1181.4</ele>
        <time>2021-08-19T13:13:46Z</time>
      </trkpt>
      <trkpt lat="46.34821" lon="5.9118">
        <ele>1181.4</ele>
        <time>2021-08-19T13:13:48Z</time>
      </trkpt>
      <trkpt lat="46.3482" lon="5.91176">
        <ele>1181.4</ele>
        <time>2021-08-19T13:13:49Z</time>
      </trkpt>
      <trkpt lat="46.34817" lon="5.91169">
        <ele>1181.4</ele>
        <time>2021-08-19T13:13:50Z</time>
      </trkpt>
      <trkpt lat="46.34816" lon="5.91165">
        <ele>1181.4</ele>
        <time>2021-08-19T13:13:51Z</time>
      </trkpt>
      <trkpt lat="46.34815" lon="5.91162">
        <ele>1181.4</ele>
        <time>2021-08-19T13:13:52Z</time>
      </trkpt>
      <trkpt lat="46.34813" lon="5.91158">
        <ele>1181.4</ele>
        <time>2021-08-19T13:13:54Z</time>
      </trkpt>
      <trkpt lat="46.34812" lon="5.91155">
        <ele>1181.5</ele>
        <time>2021-08-19T13:13:55Z</time>
      </trkpt>
      <trkpt lat="46.34808" lon="5.91149">
        <ele>1181.6</ele>
        <time>2021-08-19T13:13:57Z</time>
      </trkpt>
      <trkpt lat="46.34805" lon="5.91147">
        <ele>1181.8</ele>
        <time>2021-08-19T13:13:58Z</time>
      </trkpt>
      <trkpt lat="46.34803" lon="5.91145">
        <ele>1181.9</ele>
        <time>2021-08-19T13:14:00Z</time>
      </trkpt>
      <trkpt lat="46.34801" lon="5.91144">
        <ele>1182</ele>
        <time>2021-08-19T13:14:01Z</time>
      </trkpt>
      <trkpt lat="46.34801" lon="5.91144">
        <ele>1182</ele>
        <time>2021-08-19T13:14:03Z</time>
      </trkpt>
      <trkpt lat="46.348" lon="5.91144">
        <ele>1182.1</ele>
        <time>2021-08-19T13:14:04Z</time>
      </trkpt>
      <trkpt lat="46.348" lon="5.91145">
        <ele>1182.1</ele>
        <time>2021-08-19T13:14:05Z</time>
      </trkpt>
      <trkpt lat="46.348" lon="5.91145">
        <ele>1182.1</ele>
        <time>2021-08-19T13:14:06Z</time>
      </trkpt>
      <trkpt lat="46.348" lon="5.91145">
        <ele>1182.1</ele>
        <time>2021-08-19T13:14:07Z</time>
      </trkpt>
      <trkpt lat="46.348" lon="5.91145">
        <ele>1182.1</ele>
        <time>2021-08-19T13:14:09Z</time>
      </trkpt>
      <trkpt lat="46.348" lon="5.91145">
        <ele>1182.2</ele>
        <time>2021-08-19T13:14:10Z</time>
      </trkpt>
      <trkpt lat="46.348" lon="5.91146">
        <ele>1182.2</ele>
        <time>2021-08-19T13:14:11Z</time>
      </trkpt>
      <trkpt lat="46.34818" lon="5.91122">
        <ele>1184.9</ele>
        <time>2021-08-19T13:14:25Z</time>
      </trkpt>
      <trkpt lat="46.34821" lon="5.91117">
        <ele>1185.7</ele>
        <time>2021-08-19T13:14:27Z</time>
      </trkpt>
      <trkpt lat="46.34822" lon="5.91116">
        <ele>1185.8</ele>
        <time>2021-08-19T13:14:28Z</time>
      </trkpt>
      <trkpt lat="46.34822" lon="5.91114">
        <ele>1186</ele>
        <time>2021-08-19T13:14:29Z</time>
      </trkpt>
      <trkpt lat="46.34823" lon="5.91113">
        <ele>1186.1</ele>
        <time>2021-08-19T13:14:31Z</time>
      </trkpt>
      <trkpt lat="46.34823" lon="5.91112">
        <ele>1186.3</ele>
        <time>2021-08-19T13:14:32Z</time>
      </trkpt>
      <trkpt lat="46.34823" lon="5.91111">
        <ele>1186.3</ele>
        <time>2021-08-19T13:14:33Z</time>
      </trkpt>
      <trkpt lat="46.34822" lon="5.91111">
        <ele>1186.4</ele>
        <time>2021-08-19T13:14:34Z</time>
      </trkpt>
      <trkpt lat="46.34821" lon="5.9111">
        <ele>1186.7</ele>
        <time>2021-08-19T13:14:36Z</time>
      </trkpt>
      <trkpt lat="46.34819" lon="5.91109">
        <ele>1187</ele>
        <time>2021-08-19T13:14:37Z</time>
      </trkpt>
      <trkpt lat="46.34781" lon="5.90934">
        <ele>1199.6</ele>
        <time>2021-08-19T13:18:11Z</time>
      </trkpt>
      <trkpt lat="46.34776" lon="5.90931">
        <ele>1199.3</ele>
        <time>2021-08-19T13:18:12Z</time>
      </trkpt>
      <trkpt lat="46.3477" lon="5.90926">
        <ele>1199</ele>
        <time>2021-08-19T13:18:13Z</time>
      </trkpt>
      <trkpt lat="46.34763" lon="5.90916">
        <ele>1198.5</ele>
        <time>2021-08-19T13:18:15Z</time>
      </trkpt>
      <trkpt lat="46.3476" lon="5.90911">
        <ele>1198.3</ele>
        <time>2021-08-19T13:18:16Z</time>
      </trkpt>
      <trkpt lat="46.34758" lon="5.90907">
        <ele>1198.2</ele>
        <time>2021-08-19T13:18:17Z</time>
      </trkpt>
      <trkpt lat="46.34757" lon="5.90905">
        <ele>1198.1</ele>
        <time>2021-08-19T13:18:18Z</time>
      </trkpt>
      <trkpt lat="46.34753" lon="5.90903">
        <ele>1198</ele>
        <time>2021-08-19T13:18:20Z</time>
      </trkpt>
      <trkpt lat="46.34749" lon="5.90904">
        <ele>1198</ele>
        <time>2021-08-19T13:18:21Z</time>
      </trkpt>
      <trkpt lat="46.34747" lon="5.90904">
        <ele>1198</ele>
        <time>2021-08-19T13:18:22Z</time>
      </trkpt>
      <trkpt lat="46.34744" lon="5.90902">
        <ele>1198.1</ele>
        <time>2021-08-19T13:18:24Z</time>
      </trkpt>
      <trkpt lat="46.34741" lon="5.909">
        <ele>1198.2</ele>
        <time>2021-08-19T13:18:25Z</time>
      </trkpt>
      <trkpt lat="46.34737" lon="5.90896">
        <ele>1198.3</ele>
        <time>2021-08-19T13:18:26Z</time>
      </trkpt>
      <trkpt lat="46.34735" lon="5.90893">
        <ele>1198.4</ele>
        <time>2021-08-19T13:18:28Z</time>
      </trkpt>
      <trkpt lat="46.34735" lon="5.90892">
        <ele>1198.4</ele>
        <time>2021-08-19T13:18:29Z</time>
      </trkpt>
      <trkpt lat="46.34734" lon="5.9089">
        <ele>1198.4</ele>
        <time>2021-08-19T13:18:30Z</time>
      </trkpt>
      <trkpt lat="46.34732" lon="5.90885">
        <ele>1198.5</ele>
        <time>2021-08-19T13:18:32Z</time>
      </trkpt>
      <trkpt lat="46.34732" lon="5.9088">
        <ele>1198.5</ele>
        <time>2021-08-19T13:18:33Z</time>
      </trkpt>
      <trkpt lat="46.34732" lon="5.90878">
        <ele>1198.5</ele>
        <time>2021-08-19T13:18:34Z</time>
      </trkpt>
      <trkpt lat="46.34732" lon="5.90874">
        <ele>1198.6</ele>
        <time>2021-08-19T13:18:35Z</time>
      </trkpt>
      <trkpt lat="46.34732" lon="5.90872">
        <ele>1198.6</ele>
        <time>2021-08-19T13:18:36Z</time>
      </trkpt>
      <trkpt lat="46.34733" lon="5.90867">
        <ele>1198.5</ele>
        <time>2021-08-19T13:18:38Z</time>
      </trkpt>
      <trkpt lat="46.34733" lon="5.90866">
        <ele>1198.5</ele>
        <time>2021-08-19T13:18:39Z</time>
      </trkpt>
      <trkpt lat="46.34734" lon="5.90861">
        <ele>1198.5</ele>
        <time>2021-08-19T13:18:40Z</time>
      </trkpt>
      <trkpt lat="46.34735" lon="5.90858">
        <ele>1198.4</ele>
        <time>2021-08-19T13:18:41Z</time>
      </trkpt>
      <trkpt lat="46.34736" lon="5.90857">
        <ele>1198.4</ele>
        <time>2021-08-19T13:18:42Z</time>
      </trkpt>
      <trkpt lat="46.34738" lon="5.90854">
        <ele>1198.4</ele>
        <time>2021-08-19T13:18:44Z</time>
      </trkpt>
      <trkpt lat="46.34738" lon="5.90849">
        <ele>1198.3</ele>
        <time>2021-08-19T13:18:46Z</time>
      </trkpt>
      <trkpt lat="46.34738" lon="5.90845">
        <ele>1198.3</ele>
        <time>2021-08-19T13:18:47Z</time>
      </trkpt>
      <trkpt lat="46.34738" lon="5.90843">
        <ele>1198.3</ele>
        <time>2021-08-19T13:18:48Z</time>
      </trkpt>
      <trkpt lat="46.34738" lon="5.9084">
        <ele>1198.2</ele>
        <time>2021-08-19T13:18:49Z</time>
      </trkpt>
      <trkpt lat="46.34738" lon="5.90839">
        <ele>1198.2</ele>
        <time>2021-08-19T13:18:51Z</time>
      </trkpt>
      <trkpt lat="46.34738" lon="5.90834">
        <ele>1198.2</ele>
        <time>2021-08-19T13:18:53Z</time>
      </trkpt>
      <trkpt lat="46.34738" lon="5.9083">
        <ele>1198.1</ele>
        <time>2021-08-19T13:18:54Z</time>
      </trkpt>
      <trkpt lat="46.3474" lon="5.90824">
        <ele>1198</ele>
        <time>2021-08-19T13:18:56Z</time>
      </trkpt>
      <trkpt lat="46.3474" lon="5.90818">
        <ele>1197.9</ele>
        <time>2021-08-19T13:18:57Z</time>
      </trkpt>
      <trkpt lat="46.34741" lon="5.90814">
        <ele>1197.8</ele>
        <time>2021-08-19T13:18:58Z</time>
      </trkpt>
      <trkpt lat="46.3474" lon="5.90808">
        <ele>1197.7</ele>
        <time>2021-08-19T13:19:00Z</time>
      </trkpt>
      <trkpt lat="46.34741" lon="5.90803">
        <ele>1197.5</ele>
        <time>2021-08-19T13:19:01Z</time>
      </trkpt>
      <trkpt lat="46.34741" lon="5.90798">
        <ele>1197.4</ele>
        <time>2021-08-19T13:19:02Z</time>
      </trkpt>
      <trkpt lat="46.34742" lon="5.90793">
        <ele>1197.2</ele>
        <time>2021-08-19T13:19:03Z</time>
      </trkpt>
      <trkpt lat="46.34742" lon="5.90791">
        <ele>1197.1</ele>
        <time>2021-08-19T13:19:04Z</time>
      </trkpt>
      <trkpt lat="46.34743" lon="5.90788">
        <ele>1197</ele>
        <time>2021-08-19T13:19:05Z</time>
      </trkpt>
      <trkpt lat="46.34744" lon="5.90783">
        <ele>1196.7</ele>
        <time>2021-08-19T13:19:07Z</time>
      </trkpt>
      <trkpt lat="46.34746" lon="5.90779">
        <ele>1196.6</ele>
        <time>2021-08-19T13:19:08Z</time>
      </trkpt>
      <trkpt lat="46.34748" lon="5.90776">
        <ele>1196.4</ele>
        <time>2021-08-19T13:19:10Z</time>
      </trkpt>
      <trkpt lat="46.3475" lon="5.90769">
        <ele>1196.1</ele>
        <time>2021-08-19T13:19:12Z</time>
      </trkpt>
      <trkpt lat="46.34752" lon="5.90761">
        <ele>1195.8</ele>
        <time>2021-08-19T13:19:13Z</time>
      </trkpt>
      <trkpt lat="46.34752" lon="5.90753">
        <ele>1195.6</ele>
        <time>2021-08-19T13:19:15Z</time>
      </trkpt>
      <trkpt lat="46.34751" lon="5.90742">
        <ele>1195.4</ele>
        <time>2021-08-19T13:19:16Z</time>
      </trkpt>
      <trkpt lat="46.3475" lon="5.90735">
        <ele>1195.3</ele>
        <time>2021-08-19T13:19:18Z</time>
      </trkpt>
      <trkpt lat="46.3475" lon="5.90732">
        <ele>1195.3</ele>
        <time>2021-08-19T13:19:19Z</time>
      </trkpt>
      <trkpt lat="46.34749" lon="5.9073">
        <ele>1195.3</ele>
        <time>2021-08-19T13:19:20Z</time>
      </trkpt>
      <trkpt lat="46.34749" lon="5.90725">
        <ele>1195.2</ele>
        <time>2021-08-19T13:19:21Z</time>
      </trkpt>
      <trkpt lat="46.3475" lon="5.9072">
        <ele>1195.1</ele>
        <time>2021-08-19T13:19:23Z</time>
      </trkpt>
      <trkpt lat="46.3475" lon="5.90715">
        <ele>1195</ele>
        <time>2021-08-19T13:19:24Z</time>
      </trkpt>
      <trkpt lat="46.34754" lon="5.90705">
        <ele>1194.6</ele>
        <time>2021-08-19T13:19:25Z</time>
      </trkpt>
      <trkpt lat="46.3476" lon="5.90697">
        <ele>1194.2</ele>
        <time>2021-08-19T13:19:27Z</time>
      </trkpt>
      <trkpt lat="46.34765" lon="5.9069">
        <ele>1193.7</ele>
        <time>2021-08-19T13:19:29Z</time>
      </trkpt>
      <trkpt lat="46.34771" lon="5.90681">
        <ele>1192.9</ele>
        <time>2021-08-19T13:19:30Z</time>
      </trkpt>
      <trkpt lat="46.34778" lon="5.90675">
        <ele>1192.1</ele>
        <time>2021-08-19T13:19:32Z</time>
      </trkpt>
      <trkpt lat="46.34788" lon="5.90664">
        <ele>1190.9</ele>
        <time>2021-08-19T13:19:34Z</time>
      </trkpt>
      <trkpt lat="46.34793" lon="5.90657">
        <ele>1190.4</ele>
        <time>2021-08-19T13:19:35Z</time>
      </trkpt>
      <trkpt lat="46.348" lon="5.90642">
        <ele>1189.5</ele>
        <time>2021-08-19T13:19:37Z</time>
      </trkpt>
      <trkpt lat="46.34807" lon="5.90628">
        <ele>1188.6</ele>
        <time>2021-08-19T13:19:39Z</time>
      </trkpt>
      <trkpt lat="46.34814" lon="5.90612">
        <ele>1187.5</ele>
        <time>2021-08-19T13:19:41Z</time>
      </trkpt>
      <trkpt lat="46.34823" lon="5.90595">
        <ele>1186.2</ele>
        <time>2021-08-19T13:19:43Z</time>
      </trkpt>
      <trkpt lat="46.34831" lon="5.90578">
        <ele>1184.7</ele>
        <time>2021-08-19T13:19:45Z</time>
      </trkpt>
      <trkpt lat="46.34836" lon="5.90569">
        <ele>1184</ele>
        <time>2021-08-19T13:19:46Z</time>
      </trkpt>
      <trkpt lat="46.3484" lon="5.90559">
        <ele>1183.2</ele>
        <time>2021-08-19T13:19:47Z</time>
      </trkpt>
      <trkpt lat="46.34848" lon="5.90539">
        <ele>1181.8</ele>
        <time>2021-08-19T13:19:49Z</time>
      </trkpt>
      <trkpt lat="46.34852" lon="5.90522">
        <ele>1180.5</ele>
        <time>2021-08-19T13:19:51Z</time>
      </trkpt>
      <trkpt lat="46.34853" lon="5.90507">
        <ele>1179</ele>
        <time>2021-08-19T13:19:53Z</time>
      </trkpt>
      <trkpt lat="46.34847" lon="5.9049">
        <ele>1177.3</ele>
        <time>2021-08-19T13:19:55Z</time>
      </trkpt>
      <trkpt lat="46.3484" lon="5.90475">
        <ele>1175.8</ele>
        <time>2021-08-19T13:19:57Z</time>
      </trkpt>
      <trkpt lat="46.34837" lon="5.90466">
        <ele>1175.2</ele>
        <time>2021-08-19T13:19:58Z</time>
      </trkpt>
      <trkpt lat="46.34835" lon="5.90448">
        <ele>1174.4</ele>
        <time>2021-08-19T13:20:00Z</time>
      </trkpt>
      <trkpt lat="46.34835" lon="5.90439">
        <ele>1174.3</ele>
        <time>2021-08-19T13:20:01Z</time>
      </trkpt>
      <trkpt lat="46.34833" lon="5.90423">
        <ele>1174.2</ele>
        <time>2021-08-19T13:20:03Z</time>
      </trkpt>
      <trkpt lat="46.34833" lon="5.90409">
        <ele>1174</ele>
        <time>2021-08-19T13:20:05Z</time>
      </trkpt>
      <trkpt lat="46.34832" lon="5.90401">
        <ele>1174</ele>
        <time>2021-08-19T13:20:06Z</time>
      </trkpt>
      <trkpt lat="46.34831" lon="5.90394">
        <ele>1173.9</ele>
        <time>2021-08-19T13:20:07Z</time>
      </trkpt>
      <trkpt lat="46.34824" lon="5.9038">
        <ele>1173.7</ele>
        <time>2021-08-19T13:20:09Z</time>
      </trkpt>
      <trkpt lat="46.34819" lon="5.90373">
        <ele>1173.6</ele>
        <time>2021-08-19T13:20:11Z</time>
      </trkpt>
      <trkpt lat="46.34817" lon="5.90368">
        <ele>1173.6</ele>
        <time>2021-08-19T13:20:12Z</time>
      </trkpt>
      <trkpt lat="46.34815" lon="5.90363">
        <ele>1173.5</ele>
        <time>2021-08-19T13:20:13Z</time>
      </trkpt>
      <trkpt lat="46.3481" lon="5.90356">
        <ele>1173.4</ele>
        <time>2021-08-19T13:20:15Z</time>
      </trkpt>
      <trkpt lat="46.34805" lon="5.90348">
        <ele>1173.2</ele>
        <time>2021-08-19T13:20:17Z</time>
      </trkpt>
      <trkpt lat="46.34803" lon="5.90352">
        <ele>1173.1</ele>
        <time>2021-08-19T13:20:18Z</time>
      </trkpt>
      <trkpt lat="46.34799" lon="5.90345">
        <ele>1172.9</ele>
        <time>2021-08-19T13:20:19Z</time>
      </trkpt>
      <trkpt lat="46.34794" lon="5.90334">
        <ele>1172.7</ele>
        <time>2021-08-19T13:20:21Z</time>
      </trkpt>
      <trkpt lat="46.34792" lon="5.90326">
        <ele>1172.5</ele>
        <time>2021-08-19T13:20:22Z</time>
      </trkpt>
      <trkpt lat="46.34789" lon="5.90321">
        <ele>1172.4</ele>
        <time>2021-08-19T13:20:23Z</time>
      </trkpt>
      <trkpt lat="46.34787" lon="5.90317">
        <ele>1172.3</ele>
        <time>2021-08-19T13:20:24Z</time>
      </trkpt>
      <trkpt lat="46.34783" lon="5.90312">
        <ele>1172.2</ele>
        <time>2021-08-19T13:20:26Z</time>
      </trkpt>
      <trkpt lat="46.3478" lon="5.90307">
        <ele>1172.2</ele>
        <time>2021-08-19T13:20:28Z</time>
      </trkpt>
      <trkpt lat="46.34778" lon="5.90303">
        <ele>1172.1</ele>
        <time>2021-08-19T13:20:29Z</time>
      </trkpt>
      <trkpt lat="46.34776" lon="5.903">
        <ele>1172.1</ele>
        <time>2021-08-19T13:20:30Z</time>
      </trkpt>
      <trkpt lat="46.34774" lon="5.90296">
        <ele>1172</ele>
        <time>2021-08-19T13:20:31Z</time>
      </trkpt>
      <trkpt lat="46.34772" lon="5.90292">
        <ele>1172</ele>
        <time>2021-08-19T13:20:32Z</time>
      </trkpt>
      <trkpt lat="46.34771" lon="5.90289">
        <ele>1172</ele>
        <time>2021-08-19T13:20:33Z</time>
      </trkpt>
      <trkpt lat="46.3477" lon="5.90284">
        <ele>1171.9</ele>
        <time>2021-08-19T13:20:35Z</time>
      </trkpt>
      <trkpt lat="46.34768" lon="5.9028">
        <ele>1171.9</ele>
        <time>2021-08-19T13:20:36Z</time>
      </trkpt>
      <trkpt lat="46.34766" lon="5.90276">
        <ele>1171.9</ele>
        <time>2021-08-19T13:20:38Z</time>
      </trkpt>
      <trkpt lat="46.34765" lon="5.90276">
        <ele>1171.9</ele>
        <time>2021-08-19T13:20:39Z</time>
      </trkpt>
      <trkpt lat="46.34764" lon="5.9028">
        <ele>1171.8</ele>
        <time>2021-08-19T13:20:40Z</time>
      </trkpt>
      <trkpt lat="46.34764" lon="5.90281">
        <ele>1171.8</ele>
        <time>2021-08-19T13:20:41Z</time>
      </trkpt>
      <trkpt lat="46.34764" lon="5.90284">
        <ele>1171.8</ele>
        <time>2021-08-19T13:20:43Z</time>
      </trkpt>
      <trkpt lat="46.34764" lon="5.90285">
        <ele>1171.8</ele>
        <time>2021-08-19T13:20:44Z</time>
      </trkpt>
      <trkpt lat="46.34763" lon="5.90288">
        <ele>1171.8</ele>
        <time>2021-08-19T13:20:45Z</time>
      </trkpt>
      <trkpt lat="46.34762" lon="5.90289">
        <ele>1171.8</ele>
        <time>2021-08-19T13:20:48Z</time>
      </trkpt>
      <trkpt lat="46.34736" lon="5.90291">
        <ele>1171.7</ele>
        <time>2021-08-19T13:21:00Z</time>
      </trkpt>
      <trkpt lat="46.34735" lon="5.90287">
        <ele>1171.8</ele>
        <time>2021-08-19T13:21:01Z</time>
      </trkpt>
      <trkpt lat="46.34732" lon="5.90285">
        <ele>1171.9</ele>
        <time>2021-08-19T13:21:02Z</time>
      </trkpt>
      <trkpt lat="46.34727" lon="5.90284">
        <ele>1172.1</ele>
        <time>2021-08-19T13:21:04Z</time>
      </trkpt>
      <trkpt lat="46.34724" lon="5.90283">
        <ele>1172.2</ele>
        <time>2021-08-19T13:21:05Z</time>
      </trkpt>
      <trkpt lat="46.34719" lon="5.90282">
        <ele>1172.4</ele>
        <time>2021-08-19T13:21:06Z</time>
      </trkpt>
      <trkpt lat="46.34715" lon="5.90281">
        <ele>1172.6</ele>
        <time>2021-08-19T13:21:07Z</time>
      </trkpt>
      <trkpt lat="46.34715" lon="5.90279">
        <ele>1172.6</ele>
        <time>2021-08-19T13:21:08Z</time>
      </trkpt>
      <trkpt lat="46.34714" lon="5.90275">
        <ele>1172.7</ele>
        <time>2021-08-19T13:21:10Z</time>
      </trkpt>
      <trkpt lat="46.34713" lon="5.90274">
        <ele>1172.7</ele>
        <time>2021-08-19T13:21:11Z</time>
      </trkpt>
      <trkpt lat="46.34713" lon="5.90274">
        <ele>1172.7</ele>
        <time>2021-08-19T13:21:12Z</time>
      </trkpt>
      <trkpt lat="46.34712" lon="5.90275">
        <ele>1172.7</ele>
        <time>2021-08-19T13:21:13Z</time>
      </trkpt>
      <trkpt lat="46.34711" lon="5.90276">
        <ele>1172.8</ele>
        <time>2021-08-19T13:21:14Z</time>
      </trkpt>
      <trkpt lat="46.34711" lon="5.90277">
        <ele>1172.8</ele>
        <time>2021-08-19T13:21:16Z</time>
      </trkpt>
      <trkpt lat="46.34702" lon="5.90286">
        <ele>1172.8</ele>
        <time>2021-08-19T13:21:18Z</time>
      </trkpt>
      <trkpt lat="46.34696" lon="5.90291">
        <ele>1172.5</ele>
        <time>2021-08-19T13:21:19Z</time>
      </trkpt>
      <trkpt lat="46.34691" lon="5.90295">
        <ele>1172.3</ele>
        <time>2021-08-19T13:21:20Z</time>
      </trkpt>
      <trkpt lat="46.34685" lon="5.90303">
        <ele>1171.9</ele>
        <time>2021-08-19T13:21:21Z</time>
      </trkpt>
      <trkpt lat="46.34679" lon="5.90308">
        <ele>1171.5</ele>
        <time>2021-08-19T13:21:23Z</time>
      </trkpt>
      <trkpt lat="46.34671" lon="5.90312">
        <ele>1171.1</ele>
        <time>2021-08-19T13:21:24Z</time>
      </trkpt>
      <trkpt lat="46.34667" lon="5.90314">
        <ele>1170.9</ele>
        <time>2021-08-19T13:21:25Z</time>
      </trkpt>
      <trkpt lat="46.34659" lon="5.90313">
        <ele>1170.4</ele>
        <time>2021-08-19T13:21:27Z</time>
      </trkpt>
      <trkpt lat="46.34656" lon="5.90312">
        <ele>1170.3</ele>
        <time>2021-08-19T13:21:28Z</time>
      </trkpt>
      <trkpt lat="46.34652" lon="5.90313">
        <ele>1170</ele>
        <time>2021-08-19T13:21:30Z</time>
      </trkpt>
      <trkpt lat="46.34652" lon="5.90314">
        <ele>1170</ele>
        <time>2021-08-19T13:21:31Z</time>
      </trkpt>
      <trkpt lat="46.34651" lon="5.90314">
        <ele>1169.9</ele>
        <time>2021-08-19T13:21:33Z</time>
      </trkpt>
      <trkpt lat="46.34651" lon="5.90314">
        <ele>1169.9</ele>
        <time>2021-08-19T13:21:35Z</time>
      </trkpt>
      <trkpt lat="46.34651" lon="5.90314">
        <ele>1169.9</ele>
        <time>2021-08-19T13:21:36Z</time>
      </trkpt>
      <trkpt lat="46.3465" lon="5.90313">
        <ele>1169.9</ele>
        <time>2021-08-19T13:21:37Z</time>
      </trkpt>
      <trkpt lat="46.34649" lon="5.90313">
        <ele>1169.8</ele>
        <time>2021-08-19T13:21:38Z</time>
      </trkpt>
      <trkpt lat="46.34641" lon="5.90351">
        <ele>1168.2</ele>
        <time>2021-08-19T13:22:11Z</time>
      </trkpt>
      <trkpt lat="46.34637" lon="5.90362">
        <ele>1167.9</ele>
        <time>2021-08-19T13:22:13Z</time>
      </trkpt>
      <trkpt lat="46.34635" lon="5.90368">
        <ele>1167.8</ele>
        <time>2021-08-19T13:22:14Z</time>
      </trkpt>
      <trkpt lat="46.34631" lon="5.90373">
        <ele>1167.8</ele>
        <time>2021-08-19T13:22:15Z</time>
      </trkpt>
      <trkpt lat="46.34628" lon="5.9038">
        <ele>1167.9</ele>
        <time>2021-08-19T13:22:16Z</time>
      </trkpt>
      <trkpt lat="46.34626" lon="5.90386">
        <ele>1168</ele>
        <time>2021-08-19T13:22:18Z</time>
      </trkpt>
      <trkpt lat="46.34624" lon="5.90391">
        <ele>1168.2</ele>
        <time>2021-08-19T13:22:19Z</time>
      </trkpt>
      <trkpt lat="46.34623" lon="5.90396">
        <ele>1168.3</ele>
        <time>2021-08-19T13:22:20Z</time>
      </trkpt>
      <trkpt lat="46.34623" lon="5.90397">
        <ele>1168.4</ele>
        <time>2021-08-19T13:22:21Z</time>
      </trkpt>
      <trkpt lat="46.34624" lon="5.90401">
        <ele>1168.5</ele>
        <time>2021-08-19T13:22:23Z</time>
      </trkpt>
      <trkpt lat="46.34625" lon="5.90402">
        <ele>1168.6</ele>
        <time>2021-08-19T13:22:24Z</time>
      </trkpt>
      <trkpt lat="46.34625" lon="5.90404">
        <ele>1168.6</ele>
        <time>2021-08-19T13:22:25Z</time>
      </trkpt>
      <trkpt lat="46.34625" lon="5.90406">
        <ele>1168.7</ele>
        <time>2021-08-19T13:22:27Z</time>
      </trkpt>
      <trkpt lat="46.34625" lon="5.90408">
        <ele>1168.8</ele>
        <time>2021-08-19T13:22:28Z</time>
      </trkpt>
      <trkpt lat="46.34625" lon="5.90409">
        <ele>1168.8</ele>
        <time>2021-08-19T13:22:29Z</time>
      </trkpt>
      <trkpt lat="46.34626" lon="5.90409">
        <ele>1168.8</ele>
        <time>2021-08-19T13:22:30Z</time>
      </trkpt>
      <trkpt lat="46.34626" lon="5.90409">
        <ele>1168.9</ele>
        <time>2021-08-19T13:22:32Z</time>
      </trkpt>
      <trkpt lat="46.34625" lon="5.90409">
        <ele>1168.9</ele>
        <time>2021-08-19T13:22:33Z</time>
      </trkpt>
      <trkpt lat="46.34624" lon="5.90409">
        <ele>1169</ele>
        <time>2021-08-19T13:22:35Z</time>
      </trkpt>
      <trkpt lat="46.34622" lon="5.90409">
        <ele>1169.1</ele>
        <time>2021-08-19T13:22:37Z</time>
      </trkpt>
      <trkpt lat="46.34617" lon="5.9041">
        <ele>1169.4</ele>
        <time>2021-08-19T13:22:38Z</time>
      </trkpt>
      <trkpt lat="46.34614" lon="5.90412">
        <ele>1169.7</ele>
        <time>2021-08-19T13:22:46Z</time>
      </trkpt>
      <trkpt lat="46.3461" lon="5.90413">
        <ele>1169.9</ele>
        <time>2021-08-19T13:22:48Z</time>
      </trkpt>
      <trkpt lat="46.34606" lon="5.90415">
        <ele>1170.2</ele>
        <time>2021-08-19T13:22:49Z</time>
      </trkpt>
      <trkpt lat="46.34604" lon="5.90417">
        <ele>1170.4</ele>
        <time>2021-08-19T13:22:50Z</time>
      </trkpt>
      <trkpt lat="46.346" lon="5.90418">
        <ele>1170.7</ele>
        <time>2021-08-19T13:22:52Z</time>
      </trkpt>
      <trkpt lat="46.34599" lon="5.90419">
        <ele>1170.7</ele>
        <time>2021-08-19T13:22:53Z</time>
      </trkpt>
      <trkpt lat="46.34595" lon="5.90419">
        <ele>1171</ele>
        <time>2021-08-19T13:22:54Z</time>
      </trkpt>
      <trkpt lat="46.34594" lon="5.9042">
        <ele>1171.1</ele>
        <time>2021-08-19T13:22:56Z</time>
      </trkpt>
      <trkpt lat="46.34592" lon="5.9042">
        <ele>1171.2</ele>
        <time>2021-08-19T13:22:57Z</time>
      </trkpt>
      <trkpt lat="46.34591" lon="5.9042">
        <ele>1171.3</ele>
        <time>2021-08-19T13:22:58Z</time>
      </trkpt>
      <trkpt lat="46.3459" lon="5.90424">
        <ele>1171.5</ele>
        <time>2021-08-19T13:23:00Z</time>
      </trkpt>
      <trkpt lat="46.34589" lon="5.90425">
        <ele>1171.6</ele>
        <time>2021-08-19T13:23:01Z</time>
      </trkpt>
      <trkpt lat="46.34589" lon="5.90427">
        <ele>1171.7</ele>
        <time>2021-08-19T13:23:02Z</time>
      </trkpt>
      <trkpt lat="46.34589" lon="5.90428">
        <ele>1171.7</ele>
        <time>2021-08-19T13:23:04Z</time>
      </trkpt>
      <trkpt lat="46.34589" lon="5.90429">
        <ele>1171.8</ele>
        <time>2021-08-19T13:23:05Z</time>
      </trkpt>
      <trkpt lat="46.34588" lon="5.9043">
        <ele>1171.8</ele>
        <time>2021-08-19T13:23:06Z</time>
      </trkpt>
      <trkpt lat="46.34587" lon="5.90431">
        <ele>1171.9</ele>
        <time>2021-08-19T13:23:08Z</time>
      </trkpt>
      <trkpt lat="46.34561" lon="5.90433">
        <ele>1173.7</ele>
        <time>2021-08-19T13:23:22Z</time>
      </trkpt>
      <trkpt lat="46.34557" lon="5.90431">
        <ele>1173.9</ele>
        <time>2021-08-19T13:23:23Z</time>
      </trkpt>
      <trkpt lat="46.34552" lon="5.90427">
        <ele>1174.2</ele>
        <time>2021-08-19T13:23:25Z</time>
      </trkpt>
      <trkpt lat="46.34545" lon="5.90423">
        <ele>1174.5</ele>
        <time>2021-08-19T13:23:26Z</time>
      </trkpt>
      <trkpt lat="46.34541" lon="5.90421">
        <ele>1174.7</ele>
        <time>2021-08-19T13:23:28Z</time>
      </trkpt>
      <trkpt lat="46.34537" lon="5.90419">
        <ele>1174.9</ele>
        <time>2021-08-19T13:23:29Z</time>
      </trkpt>
      <trkpt lat="46.34535" lon="5.90418">
        <ele>1175</ele>
        <time>2021-08-19T13:23:30Z</time>
      </trkpt>
      <trkpt lat="46.34532" lon="5.90417">
        <ele>1175.1</ele>
        <time>2021-08-19T13:23:32Z</time>
      </trkpt>
      <trkpt lat="46.34532" lon="5.90416">
        <ele>1175.1</ele>
        <time>2021-08-19T13:23:33Z</time>
      </trkpt>
      <trkpt lat="46.34529" lon="5.90413">
        <ele>1175.2</ele>
        <time>2021-08-19T13:23:34Z</time>
      </trkpt>
      <trkpt lat="46.34528" lon="5.90411">
        <ele>1175.3</ele>
        <time>2021-08-19T13:23:36Z</time>
      </trkpt>
      <trkpt lat="46.34526" lon="5.90411">
        <ele>1175.3</ele>
        <time>2021-08-19T13:23:37Z</time>
      </trkpt>
      <trkpt lat="46.34524" lon="5.90409">
        <ele>1175.4</ele>
        <time>2021-08-19T13:23:38Z</time>
      </trkpt>
      <trkpt lat="46.34522" lon="5.90407">
        <ele>1175.4</ele>
        <time>2021-08-19T13:23:40Z</time>
      </trkpt>
      <trkpt lat="46.34519" lon="5.90405">
        <ele>1175.5</ele>
        <time>2021-08-19T13:23:41Z</time>
      </trkpt>
      <trkpt lat="46.34516" lon="5.90401">
        <ele>1175.6</ele>
        <time>2021-08-19T13:23:42Z</time>
      </trkpt>
      <trkpt lat="46.34515" lon="5.904">
        <ele>1175.6</ele>
        <time>2021-08-19T13:23:43Z</time>
      </trkpt>
      <trkpt lat="46.34514" lon="5.90398">
        <ele>1175.6</ele>
        <time>2021-08-19T13:23:44Z</time>
      </trkpt>
      <trkpt lat="46.34513" lon="5.90394">
        <ele>1175.6</ele>
        <time>2021-08-19T13:23:46Z</time>
      </trkpt>
      <trkpt lat="46.3451" lon="5.90391">
        <ele>1175.6</ele>
        <time>2021-08-19T13:23:47Z</time>
      </trkpt>
      <trkpt lat="46.34509" lon="5.9039">
        <ele>1175.6</ele>
        <time>2021-08-19T13:23:48Z</time>
      </trkpt>
      <trkpt lat="46.34505" lon="5.90388">
        <ele>1175.6</ele>
        <time>2021-08-19T13:23:49Z</time>
      </trkpt>
      <trkpt lat="46.34502" lon="5.90387">
        <ele>1175.6</ele>
        <time>2021-08-19T13:23:50Z</time>
      </trkpt>
      <trkpt lat="46.34498" lon="5.90385">
        <ele>1175.6</ele>
        <time>2021-08-19T13:23:52Z</time>
      </trkpt>
      <trkpt lat="46.34495" lon="5.90382">
        <ele>1175.5</ele>
        <time>2021-08-19T13:23:53Z</time>
      </trkpt>
      <trkpt lat="46.3449" lon="5.90378">
        <ele>1175.4</ele>
        <time>2021-08-19T13:23:54Z</time>
      </trkpt>
      <trkpt lat="46.34487" lon="5.90376">
        <ele>1175.4</ele>
        <time>2021-08-19T13:23:56Z</time>
      </trkpt>
      <trkpt lat="46.34481" lon="5.90373">
        <ele>1175.2</ele>
        <time>2021-08-19T13:23:58Z</time>
      </trkpt>
      <trkpt lat="46.34476" lon="5.9037">
        <ele>1175.1</ele>
        <time>2021-08-19T13:23:59Z</time>
      </trkpt>
      <trkpt lat="46.34472" lon="5.90367">
        <ele>1175</ele>
        <time>2021-08-19T13:24:01Z</time>
      </trkpt>
      <trkpt lat="46.34468" lon="5.90359">
        <ele>1174.9</ele>
        <time>2021-08-19T13:24:02Z</time>
      </trkpt>
      <trkpt lat="46.34464" lon="5.90352">
        <ele>1174.8</ele>
        <time>2021-08-19T13:24:04Z</time>
      </trkpt>
      <trkpt lat="46.3446" lon="5.90346">
        <ele>1174.7</ele>
        <time>2021-08-19T13:24:06Z</time>
      </trkpt>
      <trkpt lat="46.34458" lon="5.90341">
        <ele>1174.7</ele>
        <time>2021-08-19T13:24:07Z</time>
      </trkpt>
      <trkpt lat="46.34455" lon="5.90335">
        <ele>1174.7</ele>
        <time>2021-08-19T13:24:08Z</time>
      </trkpt>
      <trkpt lat="46.34453" lon="5.9033">
        <ele>1174.7</ele>
        <time>2021-08-19T13:24:10Z</time>
      </trkpt>
      <trkpt lat="46.34453" lon="5.90329">
        <ele>1174.7</ele>
        <time>2021-08-19T13:24:11Z</time>
      </trkpt>
      <trkpt lat="46.3445" lon="5.90327">
        <ele>1174.8</ele>
        <time>2021-08-19T13:24:13Z</time>
      </trkpt>
      <trkpt lat="46.34449" lon="5.90326">
        <ele>1174.8</ele>
        <time>2021-08-19T13:24:14Z</time>
      </trkpt>
      <trkpt lat="46.34447" lon="5.90325">
        <ele>1174.8</ele>
        <time>2021-08-19T13:24:15Z</time>
      </trkpt>
      <trkpt lat="46.34447" lon="5.90323">
        <ele>1174.8</ele>
        <time>2021-08-19T13:24:16Z</time>
      </trkpt>
      <trkpt lat="46.34447" lon="5.90318">
        <ele>1174.9</ele>
        <time>2021-08-19T13:24:18Z</time>
      </trkpt>
      <trkpt lat="46.34446" lon="5.90316">
        <ele>1174.9</ele>
        <time>2021-08-19T13:24:19Z</time>
      </trkpt>
      <trkpt lat="46.34446" lon="5.90312">
        <ele>1174.9</ele>
        <time>2021-08-19T13:24:22Z</time>
      </trkpt>
      <trkpt lat="46.34445" lon="5.9031">
        <ele>1175</ele>
        <time>2021-08-19T13:24:23Z</time>
      </trkpt>
      <trkpt lat="46.34442" lon="5.90305">
        <ele>1175</ele>
        <time>2021-08-19T13:24:25Z</time>
      </trkpt>
      <trkpt lat="46.3444" lon="5.90302">
        <ele>1175.1</ele>
        <time>2021-08-19T13:24:26Z</time>
      </trkpt>
      <trkpt lat="46.34437" lon="5.90301">
        <ele>1175.1</ele>
        <time>2021-08-19T13:24:28Z</time>
      </trkpt>
      <trkpt lat="46.34434" lon="5.90299">
        <ele>1175.1</ele>
        <time>2021-08-19T13:24:29Z</time>
      </trkpt>
      <trkpt lat="46.34433" lon="5.90298">
        <ele>1175.1</ele>
        <time>2021-08-19T13:24:30Z</time>
      </trkpt>
      <trkpt lat="46.34429" lon="5.90297">
        <ele>1175.1</ele>
        <time>2021-08-19T13:24:32Z</time>
      </trkpt>
      <trkpt lat="46.34427" lon="5.90296">
        <ele>1175</ele>
        <time>2021-08-19T13:24:33Z</time>
      </trkpt>
      <trkpt lat="46.34423" lon="5.90291">
        <ele>1175</ele>
        <time>2021-08-19T13:24:34Z</time>
      </trkpt>
      <trkpt lat="46.34419" lon="5.90287">
        <ele>1174.8</ele>
        <time>2021-08-19T13:24:35Z</time>
      </trkpt>
      <trkpt lat="46.34415" lon="5.90283">
        <ele>1174.7</ele>
        <time>2021-08-19T13:24:36Z</time>
      </trkpt>
      <trkpt lat="46.34411" lon="5.90278">
        <ele>1174.6</ele>
        <time>2021-08-19T13:24:37Z</time>
      </trkpt>
      <trkpt lat="46.34406" lon="5.90272">
        <ele>1174.4</ele>
        <time>2021-08-19T13:24:39Z</time>
      </trkpt>
      <trkpt lat="46.34403" lon="5.90268">
        <ele>1174.3</ele>
        <time>2021-08-19T13:24:40Z</time>
      </trkpt>
      <trkpt lat="46.34399" lon="5.90263">
        <ele>1174.1</ele>
        <time>2021-08-19T13:24:42Z</time>
      </trkpt>
      <trkpt lat="46.34395" lon="5.90261">
        <ele>1174.1</ele>
        <time>2021-08-19T13:24:43Z</time>
      </trkpt>
      <trkpt lat="46.34392" lon="5.90259">
        <ele>1174</ele>
        <time>2021-08-19T13:24:44Z</time>
      </trkpt>
      <trkpt lat="46.34389" lon="5.90257">
        <ele>1174</ele>
        <time>2021-08-19T13:24:45Z</time>
      </trkpt>
      <trkpt lat="46.34387" lon="5.90255">
        <ele>1173.9</ele>
        <time>2021-08-19T13:24:47Z</time>
      </trkpt>
      <trkpt lat="46.34385" lon="5.90251">
        <ele>1173.8</ele>
        <time>2021-08-19T13:24:48Z</time>
      </trkpt>
      <trkpt lat="46.34382" lon="5.90244">
        <ele>1173.7</ele>
        <time>2021-08-19T13:24:50Z</time>
      </trkpt>
      <trkpt lat="46.34381" lon="5.90236">
        <ele>1173.5</ele>
        <time>2021-08-19T13:24:51Z</time>
      </trkpt>
      <trkpt lat="46.3438" lon="5.90228">
        <ele>1173.3</ele>
        <time>2021-08-19T13:24:53Z</time>
      </trkpt>
      <trkpt lat="46.34379" lon="5.90221">
        <ele>1173.1</ele>
        <time>2021-08-19T13:24:54Z</time>
      </trkpt>
      <trkpt lat="46.34379" lon="5.90212">
        <ele>1172.7</ele>
        <time>2021-08-19T13:24:55Z</time>
      </trkpt>
      <trkpt lat="46.34381" lon="5.90197">
        <ele>1171.9</ele>
        <time>2021-08-19T13:24:57Z</time>
      </trkpt>
      <trkpt lat="46.34382" lon="5.90188">
        <ele>1171.3</ele>
        <time>2021-08-19T13:24:58Z</time>
      </trkpt>
      <trkpt lat="46.34385" lon="5.90178">
        <ele>1170.6</ele>
        <time>2021-08-19T13:24:59Z</time>
      </trkpt>
      <trkpt lat="46.34387" lon="5.90168">
        <ele>1170</ele>
        <time>2021-08-19T13:25:00Z</time>
      </trkpt>
      <trkpt lat="46.3439" lon="5.9015">
        <ele>1169</ele>
        <time>2021-08-19T13:25:02Z</time>
      </trkpt>
      <trkpt lat="46.3439" lon="5.90133">
        <ele>1168.3</ele>
        <time>2021-08-19T13:25:04Z</time>
      </trkpt>
      <trkpt lat="46.34389" lon="5.90115">
        <ele>1167.8</ele>
        <time>2021-08-19T13:25:06Z</time>
      </trkpt>
      <trkpt lat="46.34387" lon="5.90098">
        <ele>1167.4</ele>
        <time>2021-08-19T13:25:08Z</time>
      </trkpt>
      <trkpt lat="46.34384" lon="5.90091">
        <ele>1167.2</ele>
        <time>2021-08-19T13:25:09Z</time>
      </trkpt>
      <trkpt lat="46.3438" lon="5.90077">
        <ele>1167.1</ele>
        <time>2021-08-19T13:25:11Z</time>
      </trkpt>
      <trkpt lat="46.34377" lon="5.90071">
        <ele>1167</ele>
        <time>2021-08-19T13:25:12Z</time>
      </trkpt>
      <trkpt lat="46.34372" lon="5.90061">
        <ele>1166.9</ele>
        <time>2021-08-19T13:25:14Z</time>
      </trkpt>
      <trkpt lat="46.34367" lon="5.90051">
        <ele>1166.9</ele>
        <time>2021-08-19T13:25:16Z</time>
      </trkpt>
      <trkpt lat="46.34365" lon="5.90045">
        <ele>1166.9</ele>
        <time>2021-08-19T13:25:17Z</time>
      </trkpt>
      <trkpt lat="46.34363" lon="5.9004">
        <ele>1166.8</ele>
        <time>2021-08-19T13:25:18Z</time>
      </trkpt>
      <trkpt lat="46.34363" lon="5.9003">
        <ele>1166.6</ele>
        <time>2021-08-19T13:25:20Z</time>
      </trkpt>
      <trkpt lat="46.34362" lon="5.90024">
        <ele>1166.5</ele>
        <time>2021-08-19T13:25:21Z</time>
      </trkpt>
      <trkpt lat="46.34362" lon="5.90016">
        <ele>1166.2</ele>
        <time>2021-08-19T13:25:22Z</time>
      </trkpt>
      <trkpt lat="46.34361" lon="5.9001">
        <ele>1166</ele>
        <time>2021-08-19T13:25:24Z</time>
      </trkpt>
      <trkpt lat="46.3436" lon="5.90005">
        <ele>1165.8</ele>
        <time>2021-08-19T13:25:25Z</time>
      </trkpt>
      <trkpt lat="46.34359" lon="5.9">
        <ele>1165.5</ele>
        <time>2021-08-19T13:25:27Z</time>
      </trkpt>
      <trkpt lat="46.34356" lon="5.89996">
        <ele>1165.1</ele>
        <time>2021-08-19T13:25:28Z</time>
      </trkpt>
      <trkpt lat="46.34354" lon="5.89994">
        <ele>1164.9</ele>
        <time>2021-08-19T13:25:29Z</time>
      </trkpt>
      <trkpt lat="46.34352" lon="5.89991">
        <ele>1164.6</ele>
        <time>2021-08-19T13:25:30Z</time>
      </trkpt>
      <trkpt lat="46.34348" lon="5.89987">
        <ele>1164</ele>
        <time>2021-08-19T13:25:32Z</time>
      </trkpt>
      <trkpt lat="46.34345" lon="5.89986">
        <ele>1163.5</ele>
        <time>2021-08-19T13:25:33Z</time>
      </trkpt>
      <trkpt lat="46.34342" lon="5.89986">
        <ele>1163.1</ele>
        <time>2021-08-19T13:25:34Z</time>
      </trkpt>
      <trkpt lat="46.34341" lon="5.89987">
        <ele>1163</ele>
        <time>2021-08-19T13:25:35Z</time>
      </trkpt>
      <trkpt lat="46.34337" lon="5.89988">
        <ele>1162.4</ele>
        <time>2021-08-19T13:25:37Z</time>
      </trkpt>
      <trkpt lat="46.34333" lon="5.89986">
        <ele>1161.7</ele>
        <time>2021-08-19T13:25:38Z</time>
      </trkpt>
      <trkpt lat="46.34322" lon="5.89981">
        <ele>1160</ele>
        <time>2021-08-19T13:25:40Z</time>
      </trkpt>
      <trkpt lat="46.34317" lon="5.89978">
        <ele>1159.2</ele>
        <time>2021-08-19T13:25:41Z</time>
      </trkpt>
      <trkpt lat="46.34312" lon="5.89975">
        <ele>1158.5</ele>
        <time>2021-08-19T13:25:42Z</time>
      </trkpt>
      <trkpt lat="46.34301" lon="5.89967">
        <ele>1157.1</ele>
        <time>2021-08-19T13:25:44Z</time>
      </trkpt>
      <trkpt lat="46.34291" lon="5.8996">
        <ele>1156.1</ele>
        <time>2021-08-19T13:25:46Z</time>
      </trkpt>
      <trkpt lat="46.34285" lon="5.89958">
        <ele>1155.7</ele>
        <time>2021-08-19T13:25:47Z</time>
      </trkpt>
      <trkpt lat="46.34281" lon="5.89956">
        <ele>1155.3</ele>
        <time>2021-08-19T13:25:48Z</time>
      </trkpt>
      <trkpt lat="46.34276" lon="5.89951">
        <ele>1154.9</ele>
        <time>2021-08-19T13:25:49Z</time>
      </trkpt>
      <trkpt lat="46.34273" lon="5.89948">
        <ele>1154.6</ele>
        <time>2021-08-19T13:25:51Z</time>
      </trkpt>
      <trkpt lat="46.34269" lon="5.89947">
        <ele>1154.4</ele>
        <time>2021-08-19T13:25:52Z</time>
      </trkpt>
      <trkpt lat="46.34268" lon="5.89947">
        <ele>1154.3</ele>
        <time>2021-08-19T13:25:53Z</time>
      </trkpt>
      <trkpt lat="46.34266" lon="5.89949">
        <ele>1154.2</ele>
        <time>2021-08-19T13:25:54Z</time>
      </trkpt>
      <trkpt lat="46.34264" lon="5.89957">
        <ele>1152.8</ele>
        <time>2021-08-19T13:25:56Z</time>
      </trkpt>
      <trkpt lat="46.34265" lon="5.89968">
        <ele>1152.2</ele>
        <time>2021-08-19T13:25:58Z</time>
      </trkpt>
      <trkpt lat="46.34269" lon="5.8998">
        <ele>1151.3</ele>
        <time>2021-08-19T13:25:59Z</time>
      </trkpt>
      <trkpt lat="46.34273" lon="5.89998">
        <ele>1150.1</ele>
        <time>2021-08-19T13:26:01Z</time>
      </trkpt>
      <trkpt lat="46.34273" lon="5.90008">
        <ele>1149.6</ele>
        <time>2021-08-19T13:26:02Z</time>
      </trkpt>
      <trkpt lat="46.3427" lon="5.90026">
        <ele>1148.7</ele>
        <time>2021-08-19T13:26:04Z</time>
      </trkpt>
      <trkpt lat="46.34266" lon="5.90034">
        <ele>1148.2</ele>
        <time>2021-08-19T13:26:05Z</time>
      </trkpt>
      <trkpt lat="46.34261" lon="5.9004">
        <ele>1147.8</ele>
        <time>2021-08-19T13:26:06Z</time>
      </trkpt>
      <trkpt lat="46.34249" lon="5.90048">
        <ele>1147.2</ele>
        <time>2021-08-19T13:26:08Z</time>
      </trkpt>
      <trkpt lat="46.34233" lon="5.90048">
        <ele>1146.7</ele>
        <time>2021-08-19T13:26:10Z</time>
      </trkpt>
      <trkpt lat="46.34224" lon="5.90047">
        <ele>1146.5</ele>
        <time>2021-08-19T13:26:11Z</time>
      </trkpt>
      <trkpt lat="46.34215" lon="5.90047">
        <ele>1146.4</ele>
        <time>2021-08-19T13:26:12Z</time>
      </trkpt>
      <trkpt lat="46.34199" lon="5.90052">
        <ele>1146.2</ele>
        <time>2021-08-19T13:26:14Z</time>
      </trkpt>
      <trkpt lat="46.34185" lon="5.9006">
        <ele>1146</ele>
        <time>2021-08-19T13:26:16Z</time>
      </trkpt>
      <trkpt lat="46.34178" lon="5.90063">
        <ele>1145.9</ele>
        <time>2021-08-19T13:26:17Z</time>
      </trkpt>
      <trkpt lat="46.34165" lon="5.9007">
        <ele>1145.7</ele>
        <time>2021-08-19T13:26:19Z</time>
      </trkpt>
      <trkpt lat="46.34157" lon="5.90071">
        <ele>1145.6</ele>
        <time>2021-08-19T13:26:20Z</time>
      </trkpt>
      <trkpt lat="46.34142" lon="5.9007">
        <ele>1145.3</ele>
        <time>2021-08-19T13:26:22Z</time>
      </trkpt>
      <trkpt lat="46.34135" lon="5.90071">
        <ele>1145.1</ele>
        <time>2021-08-19T13:26:23Z</time>
      </trkpt>
      <trkpt lat="46.34127" lon="5.90073">
        <ele>1144.8</ele>
        <time>2021-08-19T13:26:24Z</time>
      </trkpt>
      <trkpt lat="46.34111" lon="5.90079">
        <ele>1144</ele>
        <time>2021-08-19T13:26:26Z</time>
      </trkpt>
      <trkpt lat="46.34097" lon="5.90087">
        <ele>1143.1</ele>
        <time>2021-08-19T13:26:28Z</time>
      </trkpt>
      <trkpt lat="46.34083" lon="5.90097">
        <ele>1142.6</ele>
        <time>2021-08-19T13:26:30Z</time>
      </trkpt>
      <trkpt lat="46.34077" lon="5.90102">
        <ele>1142.4</ele>
        <time>2021-08-19T13:26:31Z</time>
      </trkpt>
      <trkpt lat="46.3407" lon="5.90107">
        <ele>1142.4</ele>
        <time>2021-08-19T13:26:32Z</time>
      </trkpt>
      <trkpt lat="46.34058" lon="5.90115">
        <ele>1142.3</ele>
        <time>2021-08-19T13:26:34Z</time>
      </trkpt>
      <trkpt lat="46.34052" lon="5.9012">
        <ele>1142.3</ele>
        <time>2021-08-19T13:26:35Z</time>
      </trkpt>
      <trkpt lat="46.34041" lon="5.90132">
        <ele>1142.2</ele>
        <time>2021-08-19T13:26:37Z</time>
      </trkpt>
      <trkpt lat="46.34036" lon="5.90137">
        <ele>1142.1</ele>
        <time>2021-08-19T13:26:38Z</time>
      </trkpt>
      <trkpt lat="46.34026" lon="5.90148">
        <ele>1141.8</ele>
        <time>2021-08-19T13:26:40Z</time>
      </trkpt>
      <trkpt lat="46.34021" lon="5.90154">
        <ele>1141.7</ele>
        <time>2021-08-19T13:26:41Z</time>
      </trkpt>
      <trkpt lat="46.34017" lon="5.90159">
        <ele>1141.6</ele>
        <time>2021-08-19T13:26:42Z</time>
      </trkpt>
      <trkpt lat="46.3401" lon="5.90168">
        <ele>1141.5</ele>
        <time>2021-08-19T13:26:44Z</time>
      </trkpt>
      <trkpt lat="46.34002" lon="5.90174">
        <ele>1141.4</ele>
        <time>2021-08-19T13:26:46Z</time>
      </trkpt>
      <trkpt lat="46.33995" lon="5.90177">
        <ele>1141.4</ele>
        <time>2021-08-19T13:26:48Z</time>
      </trkpt>
      <trkpt lat="46.33989" lon="5.90179">
        <ele>1141.3</ele>
        <time>2021-08-19T13:26:50Z</time>
      </trkpt>
      <trkpt lat="46.33984" lon="5.9018">
        <ele>1141.3</ele>
        <time>2021-08-19T13:26:52Z</time>
      </trkpt>
      <trkpt lat="46.3398" lon="5.90182">
        <ele>1141.2</ele>
        <time>2021-08-19T13:26:54Z</time>
      </trkpt>
      <trkpt lat="46.3398" lon="5.90188">
        <ele>1141.2</ele>
        <time>2021-08-19T13:26:56Z</time>
      </trkpt>
      <trkpt lat="46.33978" lon="5.90188">
        <ele>1141.2</ele>
        <time>2021-08-19T13:26:57Z</time>
      </trkpt>
      <trkpt lat="46.33974" lon="5.90187">
        <ele>1141.1</ele>
        <time>2021-08-19T13:26:59Z</time>
      </trkpt>
      <trkpt lat="46.33969" lon="5.90186">
        <ele>1141.1</ele>
        <time>2021-08-19T13:27:01Z</time>
      </trkpt>
      <trkpt lat="46.33968" lon="5.90184">
        <ele>1141</ele>
        <time>2021-08-19T13:27:02Z</time>
      </trkpt>
      <trkpt lat="46.33964" lon="5.9018">
        <ele>1141</ele>
        <time>2021-08-19T13:27:04Z</time>
      </trkpt>
      <trkpt lat="46.33964" lon="5.90179">
        <ele>1140.9</ele>
        <time>2021-08-19T13:27:06Z</time>
      </trkpt>
      <trkpt lat="46.33963" lon="5.90178">
        <ele>1140.9</ele>
        <time>2021-08-19T13:27:08Z</time>
      </trkpt>
      <trkpt lat="46.33963" lon="5.90178">
        <ele>1140.9</ele>
        <time>2021-08-19T13:27:09Z</time>
      </trkpt>
      <trkpt lat="46.33961" lon="5.90177">
        <ele>1140.9</ele>
        <time>2021-08-19T13:27:11Z</time>
      </trkpt>
      <trkpt lat="46.33959" lon="5.90172">
        <ele>1140.8</ele>
        <time>2021-08-19T13:27:12Z</time>
      </trkpt>
      <trkpt lat="46.33958" lon="5.90161">
        <ele>1139.7</ele>
        <time>2021-08-19T13:27:14Z</time>
      </trkpt>
      <trkpt lat="46.33956" lon="5.90145">
        <ele>1139.6</ele>
        <time>2021-08-19T13:27:16Z</time>
      </trkpt>
      <trkpt lat="46.33953" lon="5.90137">
        <ele>1139.6</ele>
        <time>2021-08-19T13:27:17Z</time>
      </trkpt>
      <trkpt lat="46.33947" lon="5.9013">
        <ele>1139.2</ele>
        <time>2021-08-19T13:27:18Z</time>
      </trkpt>
      <trkpt lat="46.33936" lon="5.90124">
        <ele>1138.4</ele>
        <time>2021-08-19T13:27:20Z</time>
      </trkpt>
      <trkpt lat="46.33923" lon="5.90119">
        <ele>1137.6</ele>
        <time>2021-08-19T13:27:22Z</time>
      </trkpt>
      <trkpt lat="46.33916" lon="5.90115">
        <ele>1137.1</ele>
        <time>2021-08-19T13:27:23Z</time>
      </trkpt>
      <trkpt lat="46.33909" lon="5.9011">
        <ele>1136.7</ele>
        <time>2021-08-19T13:27:24Z</time>
      </trkpt>
      <trkpt lat="46.33897" lon="5.90096">
        <ele>1136</ele>
        <time>2021-08-19T13:27:26Z</time>
      </trkpt>
      <trkpt lat="46.33886" lon="5.90075">
        <ele>1135.3</ele>
        <time>2021-08-19T13:27:28Z</time>
      </trkpt>
      <trkpt lat="46.33882" lon="5.90062">
        <ele>1134.8</ele>
        <time>2021-08-19T13:27:29Z</time>
      </trkpt>
      <trkpt lat="46.33874" lon="5.90037">
        <ele>1134</ele>
        <time>2021-08-19T13:27:31Z</time>
      </trkpt>
      <trkpt lat="46.3387" lon="5.90025">
        <ele>1133.7</ele>
        <time>2021-08-19T13:27:32Z</time>
      </trkpt>
      <trkpt lat="46.33862" lon="5.90001">
        <ele>1133</ele>
        <time>2021-08-19T13:27:34Z</time>
      </trkpt>
      <trkpt lat="46.33858" lon="5.8999">
        <ele>1132.7</ele>
        <time>2021-08-19T13:27:35Z</time>
      </trkpt>
      <trkpt lat="46.33853" lon="5.8998">
        <ele>1132.5</ele>
        <time>2021-08-19T13:27:36Z</time>
      </trkpt>
      <trkpt lat="46.3384" lon="5.89966">
        <ele>1132.1</ele>
        <time>2021-08-19T13:27:38Z</time>
      </trkpt>
      <trkpt lat="46.33824" lon="5.89963">
        <ele>1131.8</ele>
        <time>2021-08-19T13:27:40Z</time>
      </trkpt>
      <trkpt lat="46.33817" lon="5.89963">
        <ele>1131.6</ele>
        <time>2021-08-19T13:27:41Z</time>
      </trkpt>
      <trkpt lat="46.3381" lon="5.89965">
        <ele>1131.4</ele>
        <time>2021-08-19T13:27:42Z</time>
      </trkpt>
      <trkpt lat="46.33795" lon="5.89974">
        <ele>1130.9</ele>
        <time>2021-08-19T13:27:44Z</time>
      </trkpt>
      <trkpt lat="46.3378" lon="5.89976">
        <ele>1130.5</ele>
        <time>2021-08-19T13:27:46Z</time>
      </trkpt>
      <trkpt lat="46.33768" lon="5.89966">
        <ele>1130.1</ele>
        <time>2021-08-19T13:27:48Z</time>
      </trkpt>
      <trkpt lat="46.3376" lon="5.89951">
        <ele>1129.5</ele>
        <time>2021-08-19T13:27:50Z</time>
      </trkpt>
      <trkpt lat="46.3375" lon="5.89937">
        <ele>1129</ele>
        <time>2021-08-19T13:27:52Z</time>
      </trkpt>
      <trkpt lat="46.33736" lon="5.89927">
        <ele>1128.5</ele>
        <time>2021-08-19T13:27:54Z</time>
      </trkpt>
      <trkpt lat="46.33722" lon="5.89924">
        <ele>1128.1</ele>
        <time>2021-08-19T13:27:56Z</time>
      </trkpt>
      <trkpt lat="46.33709" lon="5.8992">
        <ele>1127.7</ele>
        <time>2021-08-19T13:27:58Z</time>
      </trkpt>
      <trkpt lat="46.33697" lon="5.89912">
        <ele>1127.2</ele>
        <time>2021-08-19T13:28:00Z</time>
      </trkpt>
      <trkpt lat="46.33685" lon="5.899">
        <ele>1126.6</ele>
        <time>2021-08-19T13:28:02Z</time>
      </trkpt>
      <trkpt lat="46.3368" lon="5.89893">
        <ele>1126.3</ele>
        <time>2021-08-19T13:28:03Z</time>
      </trkpt>
      <trkpt lat="46.33671" lon="5.89877">
        <ele>1125.8</ele>
        <time>2021-08-19T13:28:05Z</time>
      </trkpt>
      <trkpt lat="46.33666" lon="5.89869">
        <ele>1125.6</ele>
        <time>2021-08-19T13:28:06Z</time>
      </trkpt>
      <trkpt lat="46.33656" lon="5.89856">
        <ele>1125.2</ele>
        <time>2021-08-19T13:28:08Z</time>
      </trkpt>
      <trkpt lat="46.33652" lon="5.89848">
        <ele>1125</ele>
        <time>2021-08-19T13:28:09Z</time>
      </trkpt>
      <trkpt lat="46.33649" lon="5.8984">
        <ele>1124.8</ele>
        <time>2021-08-19T13:28:10Z</time>
      </trkpt>
      <trkpt lat="46.33646" lon="5.8983">
        <ele>1124.5</ele>
        <time>2021-08-19T13:28:11Z</time>
      </trkpt>
      <trkpt lat="46.33643" lon="5.89821">
        <ele>1124.2</ele>
        <time>2021-08-19T13:28:12Z</time>
      </trkpt>
      <trkpt lat="46.33635" lon="5.89804">
        <ele>1123.8</ele>
        <time>2021-08-19T13:28:14Z</time>
      </trkpt>
      <trkpt lat="46.33627" lon="5.89787">
        <ele>1123.4</ele>
        <time>2021-08-19T13:28:16Z</time>
      </trkpt>
      <trkpt lat="46.33622" lon="5.89781">
        <ele>1123.2</ele>
        <time>2021-08-19T13:28:17Z</time>
      </trkpt>
      <trkpt lat="46.33609" lon="5.8977">
        <ele>1122.7</ele>
        <time>2021-08-19T13:28:19Z</time>
      </trkpt>
      <trkpt lat="46.33603" lon="5.89766">
        <ele>1122.5</ele>
        <time>2021-08-19T13:28:20Z</time>
      </trkpt>
      <trkpt lat="46.33588" lon="5.89765">
        <ele>1122.1</ele>
        <time>2021-08-19T13:28:22Z</time>
      </trkpt>
      <trkpt lat="46.33575" lon="5.8977">
        <ele>1121.7</ele>
        <time>2021-08-19T13:28:24Z</time>
      </trkpt>
      <trkpt lat="46.33562" lon="5.8978">
        <ele>1121.3</ele>
        <time>2021-08-19T13:28:26Z</time>
      </trkpt>
      <trkpt lat="46.33557" lon="5.89786">
        <ele>1121.2</ele>
        <time>2021-08-19T13:28:27Z</time>
      </trkpt>
      <trkpt lat="46.33546" lon="5.898">
        <ele>1120.8</ele>
        <time>2021-08-19T13:28:29Z</time>
      </trkpt>
      <trkpt lat="46.33536" lon="5.89816">
        <ele>1120.5</ele>
        <time>2021-08-19T13:28:31Z</time>
      </trkpt>
      <trkpt lat="46.33532" lon="5.89824">
        <ele>1120.3</ele>
        <time>2021-08-19T13:28:32Z</time>
      </trkpt>
      <trkpt lat="46.33522" lon="5.89841">
        <ele>1120</ele>
        <time>2021-08-19T13:28:34Z</time>
      </trkpt>
      <trkpt lat="46.33512" lon="5.89856">
        <ele>1119.8</ele>
        <time>2021-08-19T13:28:36Z</time>
      </trkpt>
      <trkpt lat="46.33507" lon="5.89863">
        <ele>1119.7</ele>
        <time>2021-08-19T13:28:37Z</time>
      </trkpt>
      <trkpt lat="46.33502" lon="5.89869">
        <ele>1119.6</ele>
        <time>2021-08-19T13:28:38Z</time>
      </trkpt>
      <trkpt lat="46.33492" lon="5.89884">
        <ele>1119.4</ele>
        <time>2021-08-19T13:28:40Z</time>
      </trkpt>
      <trkpt lat="46.33486" lon="5.89891">
        <ele>1119.3</ele>
        <time>2021-08-19T13:28:41Z</time>
      </trkpt>
      <trkpt lat="46.33475" lon="5.89905">
        <ele>1119.3</ele>
        <time>2021-08-19T13:28:43Z</time>
      </trkpt>
      <trkpt lat="46.33469" lon="5.8991">
        <ele>1119.2</ele>
        <time>2021-08-19T13:28:44Z</time>
      </trkpt>
      <trkpt lat="46.33458" lon="5.8992">
        <ele>1119.2</ele>
        <time>2021-08-19T13:28:46Z</time>
      </trkpt>
      <trkpt lat="46.33453" lon="5.89924">
        <ele>1119.2</ele>
        <time>2021-08-19T13:28:47Z</time>
      </trkpt>
      <trkpt lat="46.33448" lon="5.89927">
        <ele>1119.2</ele>
        <time>2021-08-19T13:28:48Z</time>
      </trkpt>
      <trkpt lat="46.33442" lon="5.89929">
        <ele>1119.2</ele>
        <time>2021-08-19T13:28:49Z</time>
      </trkpt>
      <trkpt lat="46.3343" lon="5.89935">
        <ele>1119.2</ele>
        <time>2021-08-19T13:28:51Z</time>
      </trkpt>
      <trkpt lat="46.3342" lon="5.89941">
        <ele>1119.2</ele>
        <time>2021-08-19T13:28:53Z</time>
      </trkpt>
      <trkpt lat="46.3341" lon="5.89948">
        <ele>1119.1</ele>
        <time>2021-08-19T13:28:55Z</time>
      </trkpt>
      <trkpt lat="46.33405" lon="5.89952">
        <ele>1119</ele>
        <time>2021-08-19T13:28:56Z</time>
      </trkpt>
      <trkpt lat="46.33395" lon="5.8996">
        <ele>1118.9</ele>
        <time>2021-08-19T13:28:58Z</time>
      </trkpt>
      <trkpt lat="46.33385" lon="5.8997">
        <ele>1118.7</ele>
        <time>2021-08-19T13:29:00Z</time>
      </trkpt>
      <trkpt lat="46.33381" lon="5.89975">
        <ele>1118.6</ele>
        <time>2021-08-19T13:29:01Z</time>
      </trkpt>
      <trkpt lat="46.33376" lon="5.89979">
        <ele>1118.5</ele>
        <time>2021-08-19T13:29:02Z</time>
      </trkpt>
      <trkpt lat="46.33366" lon="5.89991">
        <ele>1118.2</ele>
        <time>2021-08-19T13:29:04Z</time>
      </trkpt>
      <trkpt lat="46.33361" lon="5.89997">
        <ele>1118</ele>
        <time>2021-08-19T13:29:05Z</time>
      </trkpt>
      <trkpt lat="46.33356" lon="5.90004">
        <ele>1117.9</ele>
        <time>2021-08-19T13:29:06Z</time>
      </trkpt>
      <trkpt lat="46.33351" lon="5.90011">
        <ele>1117.7</ele>
        <time>2021-08-19T13:29:07Z</time>
      </trkpt>
      <trkpt lat="46.33346" lon="5.90018">
        <ele>1117.6</ele>
        <time>2021-08-19T13:29:08Z</time>
      </trkpt>
      <trkpt lat="46.33337" lon="5.90032">
        <ele>1117.4</ele>
        <time>2021-08-19T13:29:10Z</time>
      </trkpt>
      <trkpt lat="46.33332" lon="5.90038">
        <ele>1117.3</ele>
        <time>2021-08-19T13:29:11Z</time>
      </trkpt>
      <trkpt lat="46.33322" lon="5.90051">
        <ele>1117.2</ele>
        <time>2021-08-19T13:29:13Z</time>
      </trkpt>
      <trkpt lat="46.33318" lon="5.90057">
        <ele>1117.1</ele>
        <time>2021-08-19T13:29:14Z</time>
      </trkpt>
      <trkpt lat="46.33308" lon="5.90068">
        <ele>1117</ele>
        <time>2021-08-19T13:29:16Z</time>
      </trkpt>
      <trkpt lat="46.33303" lon="5.90074">
        <ele>1116.9</ele>
        <time>2021-08-19T13:29:17Z</time>
      </trkpt>
      <trkpt lat="46.33297" lon="5.90079">
        <ele>1116.9</ele>
        <time>2021-08-19T13:29:18Z</time>
      </trkpt>
      <trkpt lat="46.33286" lon="5.90089">
        <ele>1116.9</ele>
        <time>2021-08-19T13:29:20Z</time>
      </trkpt>
      <trkpt lat="46.33275" lon="5.90096">
        <ele>1116.9</ele>
        <time>2021-08-19T13:29:22Z</time>
      </trkpt>
      <trkpt lat="46.3327" lon="5.901">
        <ele>1116.8</ele>
        <time>2021-08-19T13:29:23Z</time>
      </trkpt>
      <trkpt lat="46.33261" lon="5.90109">
        <ele>1116.8</ele>
        <time>2021-08-19T13:29:25Z</time>
      </trkpt>
      <trkpt lat="46.33256" lon="5.90115">
        <ele>1116.8</ele>
        <time>2021-08-19T13:29:26Z</time>
      </trkpt>
      <trkpt lat="46.33248" lon="5.90127">
        <ele>1116.8</ele>
        <time>2021-08-19T13:29:28Z</time>
      </trkpt>
      <trkpt lat="46.33244" lon="5.90135">
        <ele>1116.8</ele>
        <time>2021-08-19T13:29:29Z</time>
      </trkpt>
      <trkpt lat="46.33241" lon="5.90142">
        <ele>1116.9</ele>
        <time>2021-08-19T13:29:30Z</time>
      </trkpt>
      <trkpt lat="46.33235" lon="5.90155">
        <ele>1117</ele>
        <time>2021-08-19T13:29:32Z</time>
      </trkpt>
      <trkpt lat="46.33232" lon="5.90161">
        <ele>1117.1</ele>
        <time>2021-08-19T13:29:33Z</time>
      </trkpt>
      <trkpt lat="46.33227" lon="5.90173">
        <ele>1117.2</ele>
        <time>2021-08-19T13:29:35Z</time>
      </trkpt>
      <trkpt lat="46.33225" lon="5.90179">
        <ele>1117.3</ele>
        <time>2021-08-19T13:29:36Z</time>
      </trkpt>
      <trkpt lat="46.33222" lon="5.90188">
        <ele>1117.4</ele>
        <time>2021-08-19T13:29:38Z</time>
      </trkpt>
      <trkpt lat="46.3322" lon="5.90197">
        <ele>1117.6</ele>
        <time>2021-08-19T13:29:40Z</time>
      </trkpt>
      <trkpt lat="46.33217" lon="5.90204">
        <ele>1117.7</ele>
        <time>2021-08-19T13:29:42Z</time>
      </trkpt>
      <trkpt lat="46.33214" lon="5.90211">
        <ele>1117.8</ele>
        <time>2021-08-19T13:29:43Z</time>
      </trkpt>
      <trkpt lat="46.33213" lon="5.90209">
        <ele>1117.9</ele>
        <time>2021-08-19T13:29:44Z</time>
      </trkpt>
      <trkpt lat="46.33213" lon="5.90216">
        <ele>1118</ele>
        <time>2021-08-19T13:29:45Z</time>
      </trkpt>
      <trkpt lat="46.33211" lon="5.90223">
        <ele>1118.1</ele>
        <time>2021-08-19T13:29:46Z</time>
      </trkpt>
      <trkpt lat="46.33209" lon="5.90228">
        <ele>1118.2</ele>
        <time>2021-08-19T13:29:48Z</time>
      </trkpt>
      <trkpt lat="46.33207" lon="5.90233">
        <ele>1118.2</ele>
        <time>2021-08-19T13:29:49Z</time>
      </trkpt>
      <trkpt lat="46.33205" lon="5.90237">
        <ele>1118.3</ele>
        <time>2021-08-19T13:29:50Z</time>
      </trkpt>
      <trkpt lat="46.33202" lon="5.90246">
        <ele>1118.5</ele>
        <time>2021-08-19T13:29:52Z</time>
      </trkpt>
      <trkpt lat="46.33199" lon="5.90251">
        <ele>1118.6</ele>
        <time>2021-08-19T13:29:53Z</time>
      </trkpt>
      <trkpt lat="46.33196" lon="5.90259">
        <ele>1118.7</ele>
        <time>2021-08-19T13:29:55Z</time>
      </trkpt>
      <trkpt lat="46.33195" lon="5.90263">
        <ele>1118.8</ele>
        <time>2021-08-19T13:29:56Z</time>
      </trkpt>
      <trkpt lat="46.33193" lon="5.90269">
        <ele>1118.9</ele>
        <time>2021-08-19T13:29:58Z</time>
      </trkpt>
      <trkpt lat="46.33192" lon="5.90272">
        <ele>1118.9</ele>
        <time>2021-08-19T13:29:59Z</time>
      </trkpt>
      <trkpt lat="46.3319" lon="5.9028">
        <ele>1119.1</ele>
        <time>2021-08-19T13:30:01Z</time>
      </trkpt>
      <trkpt lat="46.33189" lon="5.90286">
        <ele>1119.2</ele>
        <time>2021-08-19T13:30:02Z</time>
      </trkpt>
      <trkpt lat="46.33189" lon="5.90288">
        <ele>1119.2</ele>
        <time>2021-08-19T13:30:03Z</time>
      </trkpt>
      <trkpt lat="46.33187" lon="5.90295">
        <ele>1119.4</ele>
        <time>2021-08-19T13:30:05Z</time>
      </trkpt>
      <trkpt lat="46.33185" lon="5.90301">
        <ele>1119.5</ele>
        <time>2021-08-19T13:30:07Z</time>
      </trkpt>
      <trkpt lat="46.33184" lon="5.90306">
        <ele>1119.6</ele>
        <time>2021-08-19T13:30:08Z</time>
      </trkpt>
      <trkpt lat="46.33182" lon="5.9031">
        <ele>1119.7</ele>
        <time>2021-08-19T13:30:09Z</time>
      </trkpt>
      <trkpt lat="46.3318" lon="5.90315">
        <ele>1119.8</ele>
        <time>2021-08-19T13:30:11Z</time>
      </trkpt>
      <trkpt lat="46.33178" lon="5.90319">
        <ele>1119.9</ele>
        <time>2021-08-19T13:30:12Z</time>
      </trkpt>
      <trkpt lat="46.33176" lon="5.90325">
        <ele>1120</ele>
        <time>2021-08-19T13:30:14Z</time>
      </trkpt>
      <trkpt lat="46.33174" lon="5.90329">
        <ele>1120.1</ele>
        <time>2021-08-19T13:30:15Z</time>
      </trkpt>
      <trkpt lat="46.33172" lon="5.90332">
        <ele>1120.2</ele>
        <time>2021-08-19T13:30:16Z</time>
      </trkpt>
      <trkpt lat="46.33171" lon="5.90336">
        <ele>1120.2</ele>
        <time>2021-08-19T13:30:18Z</time>
      </trkpt>
      <trkpt lat="46.33169" lon="5.9034">
        <ele>1120.3</ele>
        <time>2021-08-19T13:30:19Z</time>
      </trkpt>
      <trkpt lat="46.33168" lon="5.90345">
        <ele>1120.4</ele>
        <time>2021-08-19T13:30:21Z</time>
      </trkpt>
      <trkpt lat="46.33167" lon="5.9035">
        <ele>1120.5</ele>
        <time>2021-08-19T13:30:22Z</time>
      </trkpt>
      <trkpt lat="46.33167" lon="5.90351">
        <ele>1120.5</ele>
        <time>2021-08-19T13:30:23Z</time>
      </trkpt>
      <trkpt lat="46.33166" lon="5.90355">
        <ele>1120.6</ele>
        <time>2021-08-19T13:30:24Z</time>
      </trkpt>
      <trkpt lat="46.33166" lon="5.90359">
        <ele>1120.7</ele>
        <time>2021-08-19T13:30:26Z</time>
      </trkpt>
      <trkpt lat="46.33164" lon="5.90361">
        <ele>1120.7</ele>
        <time>2021-08-19T13:30:27Z</time>
      </trkpt>
      <trkpt lat="46.33161" lon="5.90365">
        <ele>1120.9</ele>
        <time>2021-08-19T13:30:29Z</time>
      </trkpt>
      <trkpt lat="46.33159" lon="5.90371">
        <ele>1120.9</ele>
        <time>2021-08-19T13:30:31Z</time>
      </trkpt>
      <trkpt lat="46.33157" lon="5.90378">
        <ele>1120.9</ele>
        <time>2021-08-19T13:30:33Z</time>
      </trkpt>
      <trkpt lat="46.33156" lon="5.90382">
        <ele>1120.9</ele>
        <time>2021-08-19T13:30:34Z</time>
      </trkpt>
      <trkpt lat="46.33156" lon="5.90384">
        <ele>1120.9</ele>
        <time>2021-08-19T13:30:35Z</time>
      </trkpt>
      <trkpt lat="46.33154" lon="5.90387">
        <ele>1120.9</ele>
        <time>2021-08-19T13:30:37Z</time>
      </trkpt>
      <trkpt lat="46.33153" lon="5.90391">
        <ele>1120.9</ele>
        <time>2021-08-19T13:30:38Z</time>
      </trkpt>
      <trkpt lat="46.33153" lon="5.90395">
        <ele>1120.9</ele>
        <time>2021-08-19T13:30:40Z</time>
      </trkpt>
      <trkpt lat="46.3315" lon="5.904">
        <ele>1120.8</ele>
        <time>2021-08-19T13:30:42Z</time>
      </trkpt>
      <trkpt lat="46.33148" lon="5.90404">
        <ele>1120.8</ele>
        <time>2021-08-19T13:30:44Z</time>
      </trkpt>
      <trkpt lat="46.33144" lon="5.90406">
        <ele>1120.8</ele>
        <time>2021-08-19T13:30:45Z</time>
      </trkpt>
      <trkpt lat="46.33143" lon="5.90406">
        <ele>1120.8</ele>
        <time>2021-08-19T13:30:46Z</time>
      </trkpt>
      <trkpt lat="46.33139" lon="5.90406">
        <ele>1120.4</ele>
        <time>2021-08-19T13:30:48Z</time>
      </trkpt>
      <trkpt lat="46.33136" lon="5.90404">
        <ele>1120.3</ele>
        <time>2021-08-19T13:30:49Z</time>
      </trkpt>
      <trkpt lat="46.33132" lon="5.904">
        <ele>1120.3</ele>
        <time>2021-08-19T13:30:50Z</time>
      </trkpt>
      <trkpt lat="46.33128" lon="5.90396">
        <ele>1120.2</ele>
        <time>2021-08-19T13:30:52Z</time>
      </trkpt>
      <trkpt lat="46.33124" lon="5.90391">
        <ele>1120.1</ele>
        <time>2021-08-19T13:30:53Z</time>
      </trkpt>
      <trkpt lat="46.33118" lon="5.90387">
        <ele>1120</ele>
        <time>2021-08-19T13:30:55Z</time>
      </trkpt>
      <trkpt lat="46.33115" lon="5.90385">
        <ele>1120</ele>
        <time>2021-08-19T13:30:56Z</time>
      </trkpt>
      <trkpt lat="46.33108" lon="5.90378">
        <ele>1119.8</ele>
        <time>2021-08-19T13:30:58Z</time>
      </trkpt>
      <trkpt lat="46.33104" lon="5.90372">
        <ele>1119.7</ele>
        <time>2021-08-19T13:30:59Z</time>
      </trkpt>
      <trkpt lat="46.331" lon="5.90368">
        <ele>1119.6</ele>
        <time>2021-08-19T13:31:00Z</time>
      </trkpt>
      <trkpt lat="46.33092" lon="5.90359">
        <ele>1119.4</ele>
        <time>2021-08-19T13:31:02Z</time>
      </trkpt>
      <trkpt lat="46.33085" lon="5.9035">
        <ele>1119.3</ele>
        <time>2021-08-19T13:31:04Z</time>
      </trkpt>
      <trkpt lat="46.33078" lon="5.9034">
        <ele>1119.1</ele>
        <time>2021-08-19T13:31:06Z</time>
      </trkpt>
      <trkpt lat="46.33073" lon="5.90335">
        <ele>1119</ele>
        <time>2021-08-19T13:31:08Z</time>
      </trkpt>
      <trkpt lat="46.3307" lon="5.90333">
        <ele>1118.9</ele>
        <time>2021-08-19T13:31:09Z</time>
      </trkpt>
      <trkpt lat="46.33066" lon="5.90325">
        <ele>1118.8</ele>
        <time>2021-08-19T13:31:10Z</time>
      </trkpt>
      <trkpt lat="46.33062" lon="5.90319">
        <ele>1118.7</ele>
        <time>2021-08-19T13:31:11Z</time>
      </trkpt>
      <trkpt lat="46.33059" lon="5.90314">
        <ele>1118.6</ele>
        <time>2021-08-19T13:31:12Z</time>
      </trkpt>
      <trkpt lat="46.33055" lon="5.90309">
        <ele>1118.6</ele>
        <time>2021-08-19T13:31:13Z</time>
      </trkpt>
      <trkpt lat="46.3305" lon="5.90305">
        <ele>1118.5</ele>
        <time>2021-08-19T13:31:14Z</time>
      </trkpt>
      <trkpt lat="46.33041" lon="5.90296">
        <ele>1118.3</ele>
        <time>2021-08-19T13:31:16Z</time>
      </trkpt>
      <trkpt lat="46.33033" lon="5.90284">
        <ele>1118.2</ele>
        <time>2021-08-19T13:31:18Z</time>
      </trkpt>
      <trkpt lat="46.33024" lon="5.90272">
        <ele>1118.2</ele>
        <time>2021-08-19T13:31:20Z</time>
      </trkpt>
      <trkpt lat="46.33016" lon="5.90263">
        <ele>1118.1</ele>
        <time>2021-08-19T13:31:22Z</time>
      </trkpt>
      <trkpt lat="46.33009" lon="5.90253">
        <ele>1118.1</ele>
        <time>2021-08-19T13:31:24Z</time>
      </trkpt>
      <trkpt lat="46.33002" lon="5.90244">
        <ele>1118.1</ele>
        <time>2021-08-19T13:31:26Z</time>
      </trkpt>
      <trkpt lat="46.32996" lon="5.90235">
        <ele>1118.1</ele>
        <time>2021-08-19T13:31:28Z</time>
      </trkpt>
      <trkpt lat="46.32993" lon="5.90231">
        <ele>1118.1</ele>
        <time>2021-08-19T13:31:29Z</time>
      </trkpt>
      <trkpt lat="46.3299" lon="5.90227">
        <ele>1118.1</ele>
        <time>2021-08-19T13:31:30Z</time>
      </trkpt>
      <trkpt lat="46.32983" lon="5.90216">
        <ele>1118.2</ele>
        <time>2021-08-19T13:31:32Z</time>
      </trkpt>
      <trkpt lat="46.32981" lon="5.90213">
        <ele>1118.3</ele>
        <time>2021-08-19T13:31:33Z</time>
      </trkpt>
      <trkpt lat="46.32978" lon="5.90212">
        <ele>1118.3</ele>
        <time>2021-08-19T13:31:34Z</time>
      </trkpt>
      <trkpt lat="46.32974" lon="5.90207">
        <ele>1118.4</ele>
        <time>2021-08-19T13:31:35Z</time>
      </trkpt>
      <trkpt lat="46.3297" lon="5.902">
        <ele>1118.6</ele>
        <time>2021-08-19T13:31:37Z</time>
      </trkpt>
      <trkpt lat="46.32967" lon="5.90197">
        <ele>1118.7</ele>
        <time>2021-08-19T13:31:38Z</time>
      </trkpt>
      <trkpt lat="46.32962" lon="5.90192">
        <ele>1118.8</ele>
        <time>2021-08-19T13:31:39Z</time>
      </trkpt>
      <trkpt lat="46.32959" lon="5.90188">
        <ele>1118.9</ele>
        <time>2021-08-19T13:31:40Z</time>
      </trkpt>
      <trkpt lat="46.32956" lon="5.90185">
        <ele>1119</ele>
        <time>2021-08-19T13:31:41Z</time>
      </trkpt>
      <trkpt lat="46.32952" lon="5.90182">
        <ele>1119.1</ele>
        <time>2021-08-19T13:31:43Z</time>
      </trkpt>
      <trkpt lat="46.32948" lon="5.90179">
        <ele>1119.2</ele>
        <time>2021-08-19T13:31:44Z</time>
      </trkpt>
      <trkpt lat="46.32942" lon="5.90176">
        <ele>1119.3</ele>
        <time>2021-08-19T13:31:45Z</time>
      </trkpt>
      <trkpt lat="46.32936" lon="5.90171">
        <ele>1119.4</ele>
        <time>2021-08-19T13:31:47Z</time>
      </trkpt>
      <trkpt lat="46.32932" lon="5.90168">
        <ele>1119.4</ele>
        <time>2021-08-19T13:31:48Z</time>
      </trkpt>
      <trkpt lat="46.32925" lon="5.90165">
        <ele>1119.5</ele>
        <time>2021-08-19T13:31:49Z</time>
      </trkpt>
      <trkpt lat="46.32921" lon="5.90162">
        <ele>1119.6</ele>
        <time>2021-08-19T13:31:50Z</time>
      </trkpt>
      <trkpt lat="46.32916" lon="5.9016">
        <ele>1119.7</ele>
        <time>2021-08-19T13:31:52Z</time>
      </trkpt>
      <trkpt lat="46.32913" lon="5.90157">
        <ele>1119.7</ele>
        <time>2021-08-19T13:31:53Z</time>
      </trkpt>
      <trkpt lat="46.32907" lon="5.9015">
        <ele>1119.9</ele>
        <time>2021-08-19T13:31:55Z</time>
      </trkpt>
      <trkpt lat="46.32904" lon="5.90146">
        <ele>1119.9</ele>
        <time>2021-08-19T13:31:56Z</time>
      </trkpt>
      <trkpt lat="46.32901" lon="5.90141">
        <ele>1120</ele>
        <time>2021-08-19T13:31:57Z</time>
      </trkpt>
      <trkpt lat="46.32898" lon="5.90137">
        <ele>1120.1</ele>
        <time>2021-08-19T13:31:59Z</time>
      </trkpt>
      <trkpt lat="46.32895" lon="5.90135">
        <ele>1120.2</ele>
        <time>2021-08-19T13:32:00Z</time>
      </trkpt>
      <trkpt lat="46.32893" lon="5.90132">
        <ele>1120.3</ele>
        <time>2021-08-19T13:32:01Z</time>
      </trkpt>
      <trkpt lat="46.3289" lon="5.90128">
        <ele>1120.4</ele>
        <time>2021-08-19T13:32:02Z</time>
      </trkpt>
      <trkpt lat="46.32887" lon="5.90125">
        <ele>1120.5</ele>
        <time>2021-08-19T13:32:03Z</time>
      </trkpt>
      <trkpt lat="46.32884" lon="5.90122">
        <ele>1120.6</ele>
        <time>2021-08-19T13:32:04Z</time>
      </trkpt>
      <trkpt lat="46.32882" lon="5.90121">
        <ele>1120.6</ele>
        <time>2021-08-19T13:32:05Z</time>
      </trkpt>
      <trkpt lat="46.32878" lon="5.90119">
        <ele>1120.7</ele>
        <time>2021-08-19T13:32:07Z</time>
      </trkpt>
      <trkpt lat="46.32874" lon="5.90116">
        <ele>1120.8</ele>
        <time>2021-08-19T13:32:09Z</time>
      </trkpt>
      <trkpt lat="46.3287" lon="5.90112">
        <ele>1121</ele>
        <time>2021-08-19T13:32:10Z</time>
      </trkpt>
      <trkpt lat="46.32867" lon="5.90109">
        <ele>1121.1</ele>
        <time>2021-08-19T13:32:12Z</time>
      </trkpt>
      <trkpt lat="46.32864" lon="5.90107">
        <ele>1121.1</ele>
        <time>2021-08-19T13:32:13Z</time>
      </trkpt>
      <trkpt lat="46.32862" lon="5.90104">
        <ele>1121.2</ele>
        <time>2021-08-19T13:32:15Z</time>
      </trkpt>
      <trkpt lat="46.32857" lon="5.901">
        <ele>1121.4</ele>
        <time>2021-08-19T13:32:17Z</time>
      </trkpt>
      <trkpt lat="46.32853" lon="5.90095">
        <ele>1121.5</ele>
        <time>2021-08-19T13:32:19Z</time>
      </trkpt>
      <trkpt lat="46.32852" lon="5.90092">
        <ele>1121.6</ele>
        <time>2021-08-19T13:32:20Z</time>
      </trkpt>
      <trkpt lat="46.3285" lon="5.90088">
        <ele>1121.7</ele>
        <time>2021-08-19T13:32:22Z</time>
      </trkpt>
      <trkpt lat="46.32847" lon="5.90085">
        <ele>1121.8</ele>
        <time>2021-08-19T13:32:24Z</time>
      </trkpt>
      <trkpt lat="46.32844" lon="5.90084">
        <ele>1121.9</ele>
        <time>2021-08-19T13:32:25Z</time>
      </trkpt>
      <trkpt lat="46.32842" lon="5.90082">
        <ele>1122</ele>
        <time>2021-08-19T13:32:26Z</time>
      </trkpt>
      <trkpt lat="46.32839" lon="5.90078">
        <ele>1122.1</ele>
        <time>2021-08-19T13:32:28Z</time>
      </trkpt>
      <trkpt lat="46.32837" lon="5.90073">
        <ele>1122.2</ele>
        <time>2021-08-19T13:32:29Z</time>
      </trkpt>
      <trkpt lat="46.32837" lon="5.90072">
        <ele>1122.2</ele>
        <time>2021-08-19T13:32:30Z</time>
      </trkpt>
      <trkpt lat="46.32834" lon="5.90066">
        <ele>1122.3</ele>
        <time>2021-08-19T13:32:32Z</time>
      </trkpt>
      <trkpt lat="46.32832" lon="5.90064">
        <ele>1122.3</ele>
        <time>2021-08-19T13:32:33Z</time>
      </trkpt>
      <trkpt lat="46.32828" lon="5.90061">
        <ele>1122.4</ele>
        <time>2021-08-19T13:32:35Z</time>
      </trkpt>
      <trkpt lat="46.32825" lon="5.90059">
        <ele>1122.4</ele>
        <time>2021-08-19T13:32:36Z</time>
      </trkpt>
      <trkpt lat="46.32824" lon="5.90058">
        <ele>1122.4</ele>
        <time>2021-08-19T13:32:37Z</time>
      </trkpt>
      <trkpt lat="46.32821" lon="5.90056">
        <ele>1122.5</ele>
        <time>2021-08-19T13:32:38Z</time>
      </trkpt>
      <trkpt lat="46.32817" lon="5.90053">
        <ele>1122.6</ele>
        <time>2021-08-19T13:32:39Z</time>
      </trkpt>
      <trkpt lat="46.32813" lon="5.90049">
        <ele>1122.7</ele>
        <time>2021-08-19T13:32:41Z</time>
      </trkpt>
      <trkpt lat="46.3281" lon="5.90046">
        <ele>1122.7</ele>
        <time>2021-08-19T13:32:42Z</time>
      </trkpt>
      <trkpt lat="46.32806" lon="5.90042">
        <ele>1122.8</ele>
        <time>2021-08-19T13:32:43Z</time>
      </trkpt>
      <trkpt lat="46.32803" lon="5.90037">
        <ele>1122.9</ele>
        <time>2021-08-19T13:32:45Z</time>
      </trkpt>
      <trkpt lat="46.32799" lon="5.90034">
        <ele>1123</ele>
        <time>2021-08-19T13:32:46Z</time>
      </trkpt>
      <trkpt lat="46.32796" lon="5.90031">
        <ele>1123</ele>
        <time>2021-08-19T13:32:47Z</time>
      </trkpt>
      <trkpt lat="46.32793" lon="5.90027">
        <ele>1123.1</ele>
        <time>2021-08-19T13:32:49Z</time>
      </trkpt>
      <trkpt lat="46.32791" lon="5.90024">
        <ele>1123.1</ele>
        <time>2021-08-19T13:32:50Z</time>
      </trkpt>
      <trkpt lat="46.32789" lon="5.9002">
        <ele>1123.2</ele>
        <time>2021-08-19T13:32:51Z</time>
      </trkpt>
      <trkpt lat="46.32788" lon="5.90016">
        <ele>1123.2</ele>
        <time>2021-08-19T13:32:52Z</time>
      </trkpt>
      <trkpt lat="46.32787" lon="5.90013">
        <ele>1123.2</ele>
        <time>2021-08-19T13:32:53Z</time>
      </trkpt>
      <trkpt lat="46.32785" lon="5.90011">
        <ele>1123.3</ele>
        <time>2021-08-19T13:32:55Z</time>
      </trkpt>
      <trkpt lat="46.32783" lon="5.90007">
        <ele>1123.3</ele>
        <time>2021-08-19T13:32:56Z</time>
      </trkpt>
      <trkpt lat="46.3278" lon="5.90002">
        <ele>1123.4</ele>
        <time>2021-08-19T13:32:58Z</time>
      </trkpt>
      <trkpt lat="46.32777" lon="5.89999">
        <ele>1123.5</ele>
        <time>2021-08-19T13:32:59Z</time>
      </trkpt>
      <trkpt lat="46.32773" lon="5.89997">
        <ele>1123.6</ele>
        <time>2021-08-19T13:33:00Z</time>
      </trkpt>
      <trkpt lat="46.32769" lon="5.89994">
        <ele>1123.7</ele>
        <time>2021-08-19T13:33:02Z</time>
      </trkpt>
      <trkpt lat="46.32766" lon="5.89991">
        <ele>1123.8</ele>
        <time>2021-08-19T13:33:03Z</time>
      </trkpt>
      <trkpt lat="46.32765" lon="5.8999">
        <ele>1123.9</ele>
        <time>2021-08-19T13:33:04Z</time>
      </trkpt>
      <trkpt lat="46.32762" lon="5.89986">
        <ele>1124</ele>
        <time>2021-08-19T13:33:06Z</time>
      </trkpt>
      <trkpt lat="46.32759" lon="5.89984">
        <ele>1124.1</ele>
        <time>2021-08-19T13:33:07Z</time>
      </trkpt>
      <trkpt lat="46.32759" lon="5.89983">
        <ele>1124.1</ele>
        <time>2021-08-19T13:33:08Z</time>
      </trkpt>
      <trkpt lat="46.32756" lon="5.8998">
        <ele>1124.2</ele>
        <time>2021-08-19T13:33:10Z</time>
      </trkpt>
      <trkpt lat="46.32755" lon="5.89978">
        <ele>1124.3</ele>
        <time>2021-08-19T13:33:11Z</time>
      </trkpt>
      <trkpt lat="46.32754" lon="5.89976">
        <ele>1124.4</ele>
        <time>2021-08-19T13:33:12Z</time>
      </trkpt>
      <trkpt lat="46.32751" lon="5.89973">
        <ele>1124.5</ele>
        <time>2021-08-19T13:33:14Z</time>
      </trkpt>
      <trkpt lat="46.32749" lon="5.8997">
        <ele>1124.6</ele>
        <time>2021-08-19T13:33:15Z</time>
      </trkpt>
      <trkpt lat="46.32748" lon="5.89967">
        <ele>1124.7</ele>
        <time>2021-08-19T13:33:16Z</time>
      </trkpt>
      <trkpt lat="46.32746" lon="5.89964">
        <ele>1124.8</ele>
        <time>2021-08-19T13:33:18Z</time>
      </trkpt>
      <trkpt lat="46.32744" lon="5.89963">
        <ele>1124.9</ele>
        <time>2021-08-19T13:33:19Z</time>
      </trkpt>
      <trkpt lat="46.32742" lon="5.89962">
        <ele>1125</ele>
        <time>2021-08-19T13:33:20Z</time>
      </trkpt>
      <trkpt lat="46.32739" lon="5.89959">
        <ele>1125.2</ele>
        <time>2021-08-19T13:33:22Z</time>
      </trkpt>
      <trkpt lat="46.32738" lon="5.89958">
        <ele>1125.3</ele>
        <time>2021-08-19T13:33:23Z</time>
      </trkpt>
      <trkpt lat="46.32736" lon="5.89957">
        <ele>1125.3</ele>
        <time>2021-08-19T13:33:24Z</time>
      </trkpt>
      <trkpt lat="46.32734" lon="5.89954">
        <ele>1125.5</ele>
        <time>2021-08-19T13:33:26Z</time>
      </trkpt>
      <trkpt lat="46.32733" lon="5.89954">
        <ele>1125.5</ele>
        <time>2021-08-19T13:33:27Z</time>
      </trkpt>
      <trkpt lat="46.32731" lon="5.89951">
        <ele>1125.7</ele>
        <time>2021-08-19T13:33:29Z</time>
      </trkpt>
      <trkpt lat="46.32729" lon="5.89949">
        <ele>1125.8</ele>
        <time>2021-08-19T13:33:30Z</time>
      </trkpt>
      <trkpt lat="46.32725" lon="5.89948">
        <ele>1126</ele>
        <time>2021-08-19T13:33:32Z</time>
      </trkpt>
      <trkpt lat="46.32724" lon="5.89947">
        <ele>1126.1</ele>
        <time>2021-08-19T13:33:33Z</time>
      </trkpt>
      <trkpt lat="46.32722" lon="5.89946">
        <ele>1126.2</ele>
        <time>2021-08-19T13:33:34Z</time>
      </trkpt>
      <trkpt lat="46.32721" lon="5.89945">
        <ele>1126.2</ele>
        <time>2021-08-19T13:33:35Z</time>
      </trkpt>
      <trkpt lat="46.3272" lon="5.89943">
        <ele>1126.3</ele>
        <time>2021-08-19T13:33:37Z</time>
      </trkpt>
      <trkpt lat="46.32719" lon="5.89942">
        <ele>1126.4</ele>
        <time>2021-08-19T13:33:38Z</time>
      </trkpt>
      <trkpt lat="46.32716" lon="5.8994">
        <ele>1126.6</ele>
        <time>2021-08-19T13:33:40Z</time>
      </trkpt>
      <trkpt lat="46.32715" lon="5.89939">
        <ele>1126.6</ele>
        <time>2021-08-19T13:33:41Z</time>
      </trkpt>
      <trkpt lat="46.32714" lon="5.89938">
        <ele>1126.7</ele>
        <time>2021-08-19T13:33:42Z</time>
      </trkpt>
      <trkpt lat="46.32711" lon="5.89935">
        <ele>1126.9</ele>
        <time>2021-08-19T13:33:44Z</time>
      </trkpt>
      <trkpt lat="46.32708" lon="5.89934">
        <ele>1127.1</ele>
        <time>2021-08-19T13:33:45Z</time>
      </trkpt>
      <trkpt lat="46.32706" lon="5.89932">
        <ele>1127.1</ele>
        <time>2021-08-19T13:33:46Z</time>
      </trkpt>
      <trkpt lat="46.32703" lon="5.8993">
        <ele>1127.3</ele>
        <time>2021-08-19T13:33:48Z</time>
      </trkpt>
      <trkpt lat="46.327" lon="5.89927">
        <ele>1127.5</ele>
        <time>2021-08-19T13:33:49Z</time>
      </trkpt>
      <trkpt lat="46.32697" lon="5.89926">
        <ele>1127.8</ele>
        <time>2021-08-19T13:33:50Z</time>
      </trkpt>
      <trkpt lat="46.32696" lon="5.89925">
        <ele>1127.9</ele>
        <time>2021-08-19T13:33:51Z</time>
      </trkpt>
      <trkpt lat="46.32692" lon="5.89923">
        <ele>1128.1</ele>
        <time>2021-08-19T13:33:53Z</time>
      </trkpt>
      <trkpt lat="46.32689" lon="5.89921">
        <ele>1128.4</ele>
        <time>2021-08-19T13:33:54Z</time>
      </trkpt>
      <trkpt lat="46.32687" lon="5.8992">
        <ele>1128.5</ele>
        <time>2021-08-19T13:33:55Z</time>
      </trkpt>
      <trkpt lat="46.32685" lon="5.89919">
        <ele>1128.7</ele>
        <time>2021-08-19T13:33:57Z</time>
      </trkpt>
      <trkpt lat="46.32683" lon="5.89918">
        <ele>1128.8</ele>
        <time>2021-08-19T13:33:58Z</time>
      </trkpt>
      <trkpt lat="46.32682" lon="5.89917">
        <ele>1129</ele>
        <time>2021-08-19T13:33:59Z</time>
      </trkpt>
      <trkpt lat="46.3268" lon="5.89916">
        <ele>1129.1</ele>
        <time>2021-08-19T13:34:00Z</time>
      </trkpt>
      <trkpt lat="46.32675" lon="5.89914">
        <ele>1129.5</ele>
        <time>2021-08-19T13:34:02Z</time>
      </trkpt>
      <trkpt lat="46.32672" lon="5.89914">
        <ele>1129.7</ele>
        <time>2021-08-19T13:34:03Z</time>
      </trkpt>
      <trkpt lat="46.32671" lon="5.89914">
        <ele>1129.8</ele>
        <time>2021-08-19T13:34:04Z</time>
      </trkpt>
      <trkpt lat="46.3267" lon="5.89914">
        <ele>1129.9</ele>
        <time>2021-08-19T13:34:05Z</time>
      </trkpt>
      <trkpt lat="46.32667" lon="5.89915">
        <ele>1130.2</ele>
        <time>2021-08-19T13:34:07Z</time>
      </trkpt>
      <trkpt lat="46.32665" lon="5.89914">
        <ele>1130.3</ele>
        <time>2021-08-19T13:34:08Z</time>
      </trkpt>
      <trkpt lat="46.32664" lon="5.89915">
        <ele>1130.4</ele>
        <time>2021-08-19T13:34:09Z</time>
      </trkpt>
      <trkpt lat="46.32661" lon="5.89914">
        <ele>1130.7</ele>
        <time>2021-08-19T13:34:11Z</time>
      </trkpt>
      <trkpt lat="46.3266" lon="5.89913">
        <ele>1130.8</ele>
        <time>2021-08-19T13:34:12Z</time>
      </trkpt>
      <trkpt lat="46.32658" lon="5.89912">
        <ele>1131</ele>
        <time>2021-08-19T13:34:14Z</time>
      </trkpt>
      <trkpt lat="46.32656" lon="5.89911">
        <ele>1131.2</ele>
        <time>2021-08-19T13:34:15Z</time>
      </trkpt>
      <trkpt lat="46.32654" lon="5.8991">
        <ele>1131.3</ele>
        <time>2021-08-19T13:34:16Z</time>
      </trkpt>
      <trkpt lat="46.32652" lon="5.8991">
        <ele>1131.5</ele>
        <time>2021-08-19T13:34:18Z</time>
      </trkpt>
      <trkpt lat="46.32651" lon="5.89909">
        <ele>1131.6</ele>
        <time>2021-08-19T13:34:19Z</time>
      </trkpt>
      <trkpt lat="46.3265" lon="5.89907">
        <ele>1131.8</ele>
        <time>2021-08-19T13:34:20Z</time>
      </trkpt>
      <trkpt lat="46.32649" lon="5.89905">
        <ele>1132</ele>
        <time>2021-08-19T13:34:22Z</time>
      </trkpt>
      <trkpt lat="46.32647" lon="5.89904">
        <ele>1132.1</ele>
        <time>2021-08-19T13:34:23Z</time>
      </trkpt>
      <trkpt lat="46.32646" lon="5.89903">
        <ele>1132.3</ele>
        <time>2021-08-19T13:34:24Z</time>
      </trkpt>
      <trkpt lat="46.32645" lon="5.89903">
        <ele>1132.4</ele>
        <time>2021-08-19T13:34:26Z</time>
      </trkpt>
      <trkpt lat="46.32642" lon="5.89902">
        <ele>1132.6</ele>
        <time>2021-08-19T13:34:28Z</time>
      </trkpt>
      <trkpt lat="46.32641" lon="5.89901">
        <ele>1132.8</ele>
        <time>2021-08-19T13:34:29Z</time>
      </trkpt>
      <trkpt lat="46.3264" lon="5.89901">
        <ele>1132.9</ele>
        <time>2021-08-19T13:34:30Z</time>
      </trkpt>
      <trkpt lat="46.32636" lon="5.89899">
        <ele>1133.2</ele>
        <time>2021-08-19T13:34:32Z</time>
      </trkpt>
      <trkpt lat="46.32635" lon="5.89898">
        <ele>1133.4</ele>
        <time>2021-08-19T13:34:33Z</time>
      </trkpt>
      <trkpt lat="46.32634" lon="5.89898">
        <ele>1133.5</ele>
        <time>2021-08-19T13:34:34Z</time>
      </trkpt>
      <trkpt lat="46.32631" lon="5.89899">
        <ele>1133.7</ele>
        <time>2021-08-19T13:34:36Z</time>
      </trkpt>
      <trkpt lat="46.32629" lon="5.89898">
        <ele>1133.9</ele>
        <time>2021-08-19T13:34:37Z</time>
      </trkpt>
      <trkpt lat="46.32628" lon="5.89897">
        <ele>1134</ele>
        <time>2021-08-19T13:34:38Z</time>
      </trkpt>
      <trkpt lat="46.32627" lon="5.89896">
        <ele>1134.1</ele>
        <time>2021-08-19T13:34:39Z</time>
      </trkpt>
      <trkpt lat="46.32624" lon="5.89896">
        <ele>1134.4</ele>
        <time>2021-08-19T13:34:41Z</time>
      </trkpt>
      <trkpt lat="46.32623" lon="5.89896">
        <ele>1134.5</ele>
        <time>2021-08-19T13:34:42Z</time>
      </trkpt>
      <trkpt lat="46.32621" lon="5.89895">
        <ele>1134.7</ele>
        <time>2021-08-19T13:34:44Z</time>
      </trkpt>
      <trkpt lat="46.3262" lon="5.89895">
        <ele>1134.8</ele>
        <time>2021-08-19T13:34:46Z</time>
      </trkpt>
      <trkpt lat="46.32618" lon="5.89893">
        <ele>1135</ele>
        <time>2021-08-19T13:34:47Z</time>
      </trkpt>
      <trkpt lat="46.32615" lon="5.89891">
        <ele>1135.3</ele>
        <time>2021-08-19T13:34:49Z</time>
      </trkpt>
      <trkpt lat="46.32613" lon="5.8989">
        <ele>1135.5</ele>
        <time>2021-08-19T13:34:51Z</time>
      </trkpt>
      <trkpt lat="46.32609" lon="5.89887">
        <ele>1135.9</ele>
        <time>2021-08-19T13:34:53Z</time>
      </trkpt>
      <trkpt lat="46.32606" lon="5.89884">
        <ele>1136.2</ele>
        <time>2021-08-19T13:34:54Z</time>
      </trkpt>
      <trkpt lat="46.32605" lon="5.89883">
        <ele>1136.3</ele>
        <time>2021-08-19T13:34:55Z</time>
      </trkpt>
      <trkpt lat="46.32602" lon="5.89882">
        <ele>1136.6</ele>
        <time>2021-08-19T13:34:56Z</time>
      </trkpt>
      <trkpt lat="46.326" lon="5.8988">
        <ele>1136.7</ele>
        <time>2021-08-19T13:34:58Z</time>
      </trkpt>
      <trkpt lat="46.32599" lon="5.89879">
        <ele>1136.9</ele>
        <time>2021-08-19T13:34:59Z</time>
      </trkpt>
      <trkpt lat="46.32595" lon="5.89878">
        <ele>1137.2</ele>
        <time>2021-08-19T13:35:01Z</time>
      </trkpt>
      <trkpt lat="46.32591" lon="5.89876">
        <ele>1137.6</ele>
        <time>2021-08-19T13:35:03Z</time>
      </trkpt>
      <trkpt lat="46.32588" lon="5.89875">
        <ele>1137.9</ele>
        <time>2021-08-19T13:35:05Z</time>
      </trkpt>
      <trkpt lat="46.32584" lon="5.89873">
        <ele>1138.2</ele>
        <time>2021-08-19T13:35:07Z</time>
      </trkpt>
      <trkpt lat="46.32582" lon="5.89871">
        <ele>1138.5</ele>
        <time>2021-08-19T13:35:09Z</time>
      </trkpt>
      <trkpt lat="46.3258" lon="5.8987">
        <ele>1138.6</ele>
        <time>2021-08-19T13:35:10Z</time>
      </trkpt>
      <trkpt lat="46.32576" lon="5.89868">
        <ele>1139</ele>
        <time>2021-08-19T13:35:12Z</time>
      </trkpt>
      <trkpt lat="46.32573" lon="5.89867">
        <ele>1139.2</ele>
        <time>2021-08-19T13:35:13Z</time>
      </trkpt>
      <trkpt lat="46.32572" lon="5.89867">
        <ele>1139.3</ele>
        <time>2021-08-19T13:35:14Z</time>
      </trkpt>
      <trkpt lat="46.32567" lon="5.89866">
        <ele>1139.8</ele>
        <time>2021-08-19T13:35:16Z</time>
      </trkpt>
      <trkpt lat="46.32566" lon="5.89866">
        <ele>1139.9</ele>
        <time>2021-08-19T13:35:17Z</time>
      </trkpt>
      <trkpt lat="46.32564" lon="5.89866">
        <ele>1140</ele>
        <time>2021-08-19T13:35:18Z</time>
      </trkpt>
      <trkpt lat="46.32562" lon="5.89865">
        <ele>1140.2</ele>
        <time>2021-08-19T13:35:19Z</time>
      </trkpt>
      <trkpt lat="46.32561" lon="5.89864">
        <ele>1140.2</ele>
        <time>2021-08-19T13:35:20Z</time>
      </trkpt>
      <trkpt lat="46.32562" lon="5.89863">
        <ele>1140.3</ele>
        <time>2021-08-19T13:35:21Z</time>
      </trkpt>
      <trkpt lat="46.32562" lon="5.89862">
        <ele>1140.4</ele>
        <time>2021-08-19T13:35:23Z</time>
      </trkpt>
      <trkpt lat="46.32561" lon="5.89862">
        <ele>1140.4</ele>
        <time>2021-08-19T13:35:24Z</time>
      </trkpt>
      <trkpt lat="46.3256" lon="5.89862">
        <ele>1140.5</ele>
        <time>2021-08-19T13:35:25Z</time>
      </trkpt>
      <trkpt lat="46.32558" lon="5.89862">
        <ele>1140.7</ele>
        <time>2021-08-19T13:35:27Z</time>
      </trkpt>
      <trkpt lat="46.32556" lon="5.89861">
        <ele>1140.9</ele>
        <time>2021-08-19T13:35:29Z</time>
      </trkpt>
      <trkpt lat="46.3255" lon="5.89858">
        <ele>1141.4</ele>
        <time>2021-08-19T13:35:31Z</time>
      </trkpt>
      <trkpt lat="46.32545" lon="5.89854">
        <ele>1141.9</ele>
        <time>2021-08-19T13:35:33Z</time>
      </trkpt>
      <trkpt lat="46.32543" lon="5.89852">
        <ele>1142.1</ele>
        <time>2021-08-19T13:35:34Z</time>
      </trkpt>
      <trkpt lat="46.32541" lon="5.89848">
        <ele>1142.4</ele>
        <time>2021-08-19T13:35:36Z</time>
      </trkpt>
      <trkpt lat="46.32538" lon="5.89844">
        <ele>1142.7</ele>
        <time>2021-08-19T13:35:38Z</time>
      </trkpt>
      <trkpt lat="46.32536" lon="5.89841">
        <ele>1143</ele>
        <time>2021-08-19T13:35:40Z</time>
      </trkpt>
      <trkpt lat="46.32534" lon="5.89837">
        <ele>1143.2</ele>
        <time>2021-08-19T13:35:42Z</time>
      </trkpt>
      <trkpt lat="46.32534" lon="5.89835">
        <ele>1143.4</ele>
        <time>2021-08-19T13:35:43Z</time>
      </trkpt>
      <trkpt lat="46.32533" lon="5.89833">
        <ele>1143.5</ele>
        <time>2021-08-19T13:35:44Z</time>
      </trkpt>
      <trkpt lat="46.32532" lon="5.89832">
        <ele>1143.6</ele>
        <time>2021-08-19T13:35:46Z</time>
      </trkpt>
      <trkpt lat="46.32532" lon="5.89832">
        <ele>1143.6</ele>
        <time>2021-08-19T13:35:47Z</time>
      </trkpt>
      <trkpt lat="46.32531" lon="5.8983">
        <ele>1143.8</ele>
        <time>2021-08-19T13:35:48Z</time>
      </trkpt>
      <trkpt lat="46.32529" lon="5.89827">
        <ele>1144</ele>
        <time>2021-08-19T13:35:50Z</time>
      </trkpt>
      <trkpt lat="46.32527" lon="5.89824">
        <ele>1144.3</ele>
        <time>2021-08-19T13:35:51Z</time>
      </trkpt>
      <trkpt lat="46.32525" lon="5.89822">
        <ele>1144.5</ele>
        <time>2021-08-19T13:35:53Z</time>
      </trkpt>
      <trkpt lat="46.32522" lon="5.89819">
        <ele>1144.8</ele>
        <time>2021-08-19T13:35:55Z</time>
      </trkpt>
      <trkpt lat="46.32519" lon="5.89816">
        <ele>1145.1</ele>
        <time>2021-08-19T13:35:57Z</time>
      </trkpt>
      <trkpt lat="46.32518" lon="5.89813">
        <ele>1145.3</ele>
        <time>2021-08-19T13:35:58Z</time>
      </trkpt>
      <trkpt lat="46.32516" lon="5.89811">
        <ele>1145.5</ele>
        <time>2021-08-19T13:36:00Z</time>
      </trkpt>
      <trkpt lat="46.32515" lon="5.8981">
        <ele>1145.6</ele>
        <time>2021-08-19T13:36:01Z</time>
      </trkpt>
      <trkpt lat="46.32515" lon="5.8981">
        <ele>1145.6</ele>
        <time>2021-08-19T13:36:02Z</time>
      </trkpt>
      <trkpt lat="46.32515" lon="5.89809">
        <ele>1145.7</ele>
        <time>2021-08-19T13:36:03Z</time>
      </trkpt>
      <trkpt lat="46.32513" lon="5.89807">
        <ele>1145.9</ele>
        <time>2021-08-19T13:36:05Z</time>
      </trkpt>
      <trkpt lat="46.32512" lon="5.89806">
        <ele>1146</ele>
        <time>2021-08-19T13:36:06Z</time>
      </trkpt>
      <trkpt lat="46.32509" lon="5.89804">
        <ele>1146.2</ele>
        <time>2021-08-19T13:36:08Z</time>
      </trkpt>
      <trkpt lat="46.32509" lon="5.898">
        <ele>1146.5</ele>
        <time>2021-08-19T13:36:10Z</time>
      </trkpt>
      <trkpt lat="46.3251" lon="5.89797">
        <ele>1146.7</ele>
        <time>2021-08-19T13:36:12Z</time>
      </trkpt>
      <trkpt lat="46.32508" lon="5.89795">
        <ele>1146.9</ele>
        <time>2021-08-19T13:36:13Z</time>
      </trkpt>
      <trkpt lat="46.32506" lon="5.89794">
        <ele>1147</ele>
        <time>2021-08-19T13:36:14Z</time>
      </trkpt>
      <trkpt lat="46.32502" lon="5.89791">
        <ele>1147.4</ele>
        <time>2021-08-19T13:36:16Z</time>
      </trkpt>
      <trkpt lat="46.32501" lon="5.8979">
        <ele>1147.5</ele>
        <time>2021-08-19T13:36:17Z</time>
      </trkpt>
      <trkpt lat="46.325" lon="5.89788">
        <ele>1147.6</ele>
        <time>2021-08-19T13:36:18Z</time>
      </trkpt>
      <trkpt lat="46.32498" lon="5.89786">
        <ele>1147.8</ele>
        <time>2021-08-19T13:36:19Z</time>
      </trkpt>
      <trkpt lat="46.32497" lon="5.89782">
        <ele>1148</ele>
        <time>2021-08-19T13:36:21Z</time>
      </trkpt>
      <trkpt lat="46.32496" lon="5.89778">
        <ele>1148.3</ele>
        <time>2021-08-19T13:36:22Z</time>
      </trkpt>
      <trkpt lat="46.32493" lon="5.89775">
        <ele>1148.6</ele>
        <time>2021-08-19T13:36:24Z</time>
      </trkpt>
      <trkpt lat="46.32492" lon="5.89773">
        <ele>1148.7</ele>
        <time>2021-08-19T13:36:25Z</time>
      </trkpt>
      <trkpt lat="46.32491" lon="5.89772">
        <ele>1148.8</ele>
        <time>2021-08-19T13:36:26Z</time>
      </trkpt>
      <trkpt lat="46.32488" lon="5.89771">
        <ele>1149</ele>
        <time>2021-08-19T13:36:27Z</time>
      </trkpt>
      <trkpt lat="46.32485" lon="5.8977">
        <ele>1149.3</ele>
        <time>2021-08-19T13:36:29Z</time>
      </trkpt>
      <trkpt lat="46.32485" lon="5.8977">
        <ele>1149.3</ele>
        <time>2021-08-19T13:36:30Z</time>
      </trkpt>
      <trkpt lat="46.32485" lon="5.89769">
        <ele>1149.4</ele>
        <time>2021-08-19T13:36:32Z</time>
      </trkpt>
      <trkpt lat="46.32484" lon="5.89768">
        <ele>1149.4</ele>
        <time>2021-08-19T13:36:33Z</time>
      </trkpt>
      <trkpt lat="46.32483" lon="5.89767">
        <ele>1149.5</ele>
        <time>2021-08-19T13:36:34Z</time>
      </trkpt>
      <trkpt lat="46.32482" lon="5.89765">
        <ele>1149.7</ele>
        <time>2021-08-19T13:36:35Z</time>
      </trkpt>
      <trkpt lat="46.3248" lon="5.89762">
        <ele>1149.9</ele>
        <time>2021-08-19T13:36:37Z</time>
      </trkpt>
      <trkpt lat="46.32474" lon="5.89756">
        <ele>1150.5</ele>
        <time>2021-08-19T13:36:42Z</time>
      </trkpt>
      <trkpt lat="46.3247" lon="5.89751">
        <ele>1150.9</ele>
        <time>2021-08-19T13:36:44Z</time>
      </trkpt>
      <trkpt lat="46.32466" lon="5.89745">
        <ele>1151.3</ele>
        <time>2021-08-19T13:36:46Z</time>
      </trkpt>
      <trkpt lat="46.32464" lon="5.89741">
        <ele>1151.6</ele>
        <time>2021-08-19T13:36:47Z</time>
      </trkpt>
      <trkpt lat="46.32464" lon="5.89739">
        <ele>1151.7</ele>
        <time>2021-08-19T13:36:48Z</time>
      </trkpt>
      <trkpt lat="46.32462" lon="5.89735">
        <ele>1152</ele>
        <time>2021-08-19T13:36:50Z</time>
      </trkpt>
      <trkpt lat="46.3246" lon="5.89732">
        <ele>1152.2</ele>
        <time>2021-08-19T13:36:51Z</time>
      </trkpt>
      <trkpt lat="46.3246" lon="5.8973">
        <ele>1152.3</ele>
        <time>2021-08-19T13:36:53Z</time>
      </trkpt>
      <trkpt lat="46.32458" lon="5.89727">
        <ele>1152.5</ele>
        <time>2021-08-19T13:36:54Z</time>
      </trkpt>
      <trkpt lat="46.32457" lon="5.89724">
        <ele>1152.6</ele>
        <time>2021-08-19T13:36:56Z</time>
      </trkpt>
      <trkpt lat="46.32456" lon="5.89722">
        <ele>1152.7</ele>
        <time>2021-08-19T13:36:57Z</time>
      </trkpt>
      <trkpt lat="46.32456" lon="5.8972">
        <ele>1152.8</ele>
        <time>2021-08-19T13:36:58Z</time>
      </trkpt>
      <trkpt lat="46.32456" lon="5.89719">
        <ele>1152.9</ele>
        <time>2021-08-19T13:36:59Z</time>
      </trkpt>
      <trkpt lat="46.32456" lon="5.89714">
        <ele>1153</ele>
        <time>2021-08-19T13:37:00Z</time>
      </trkpt>
      <trkpt lat="46.32456" lon="5.89712">
        <ele>1153.1</ele>
        <time>2021-08-19T13:37:02Z</time>
      </trkpt>
      <trkpt lat="46.32456" lon="5.8971">
        <ele>1153.2</ele>
        <time>2021-08-19T13:37:03Z</time>
      </trkpt>
      <trkpt lat="46.32456" lon="5.89708">
        <ele>1153.3</ele>
        <time>2021-08-19T13:37:04Z</time>
      </trkpt>
      <trkpt lat="46.32457" lon="5.89706">
        <ele>1153.4</ele>
        <time>2021-08-19T13:37:05Z</time>
      </trkpt>
      <trkpt lat="46.32457" lon="5.89703">
        <ele>1153.4</ele>
        <time>2021-08-19T13:37:06Z</time>
      </trkpt>
      <trkpt lat="46.32457" lon="5.89698">
        <ele>1153.6</ele>
        <time>2021-08-19T13:37:08Z</time>
      </trkpt>
      <trkpt lat="46.32458" lon="5.89693">
        <ele>1153.8</ele>
        <time>2021-08-19T13:37:10Z</time>
      </trkpt>
      <trkpt lat="46.32458" lon="5.89691">
        <ele>1153.9</ele>
        <time>2021-08-19T13:37:11Z</time>
      </trkpt>
      <trkpt lat="46.32459" lon="5.89689">
        <ele>1153.9</ele>
        <time>2021-08-19T13:37:12Z</time>
      </trkpt>
      <trkpt lat="46.32459" lon="5.89686">
        <ele>1154</ele>
        <time>2021-08-19T13:37:14Z</time>
      </trkpt>
      <trkpt lat="46.32459" lon="5.89684">
        <ele>1154</ele>
        <time>2021-08-19T13:37:15Z</time>
      </trkpt>
      <trkpt lat="46.32459" lon="5.8968">
        <ele>1154.1</ele>
        <time>2021-08-19T13:37:16Z</time>
      </trkpt>
      <trkpt lat="46.3246" lon="5.89678">
        <ele>1154.2</ele>
        <time>2021-08-19T13:37:17Z</time>
      </trkpt>
      <trkpt lat="46.3246" lon="5.89675">
        <ele>1154.3</ele>
        <time>2021-08-19T13:37:18Z</time>
      </trkpt>
      <trkpt lat="46.32461" lon="5.89673">
        <ele>1154.3</ele>
        <time>2021-08-19T13:37:20Z</time>
      </trkpt>
      <trkpt lat="46.3246" lon="5.89671">
        <ele>1154.4</ele>
        <time>2021-08-19T13:37:21Z</time>
      </trkpt>
      <trkpt lat="46.3246" lon="5.89669">
        <ele>1154.4</ele>
        <time>2021-08-19T13:37:22Z</time>
      </trkpt>
      <trkpt lat="46.3246" lon="5.89666">
        <ele>1154.5</ele>
        <time>2021-08-19T13:37:23Z</time>
      </trkpt>
      <trkpt lat="46.32459" lon="5.89664">
        <ele>1154.5</ele>
        <time>2021-08-19T13:37:24Z</time>
      </trkpt>
      <trkpt lat="46.32457" lon="5.89661">
        <ele>1154.6</ele>
        <time>2021-08-19T13:37:26Z</time>
      </trkpt>
      <trkpt lat="46.32456" lon="5.89659">
        <ele>1154.6</ele>
        <time>2021-08-19T13:37:27Z</time>
      </trkpt>
      <trkpt lat="46.32455" lon="5.89656">
        <ele>1154.7</ele>
        <time>2021-08-19T13:37:28Z</time>
      </trkpt>
      <trkpt lat="46.32456" lon="5.89654">
        <ele>1154.7</ele>
        <time>2021-08-19T13:37:29Z</time>
      </trkpt>
      <trkpt lat="46.32457" lon="5.89652">
        <ele>1154.7</ele>
        <time>2021-08-19T13:37:30Z</time>
      </trkpt>
      <trkpt lat="46.32457" lon="5.89648">
        <ele>1154.8</ele>
        <time>2021-08-19T13:37:32Z</time>
      </trkpt>
      <trkpt lat="46.32458" lon="5.89641">
        <ele>1154.8</ele>
        <time>2021-08-19T13:37:34Z</time>
      </trkpt>
      <trkpt lat="46.32458" lon="5.89636">
        <ele>1154.9</ele>
        <time>2021-08-19T13:37:35Z</time>
      </trkpt>
      <trkpt lat="46.32459" lon="5.89634">
        <ele>1154.9</ele>
        <time>2021-08-19T13:37:36Z</time>
      </trkpt>
      <trkpt lat="46.32459" lon="5.89629">
        <ele>1154.9</ele>
        <time>2021-08-19T13:37:38Z</time>
      </trkpt>
      <trkpt lat="46.32459" lon="5.89623">
        <ele>1155</ele>
        <time>2021-08-19T13:37:39Z</time>
      </trkpt>
      <trkpt lat="46.32459" lon="5.89622">
        <ele>1155</ele>
        <time>2021-08-19T13:37:40Z</time>
      </trkpt>
      <trkpt lat="46.32458" lon="5.89617">
        <ele>1155</ele>
        <time>2021-08-19T13:37:42Z</time>
      </trkpt>
      <trkpt lat="46.32457" lon="5.89613">
        <ele>1155</ele>
        <time>2021-08-19T13:37:44Z</time>
      </trkpt>
      <trkpt lat="46.32457" lon="5.89611">
        <ele>1155</ele>
        <time>2021-08-19T13:37:45Z</time>
      </trkpt>
      <trkpt lat="46.32456" lon="5.89605">
        <ele>1155</ele>
        <time>2021-08-19T13:37:47Z</time>
      </trkpt>
      <trkpt lat="46.32456" lon="5.89603">
        <ele>1155</ele>
        <time>2021-08-19T13:37:48Z</time>
      </trkpt>
      <trkpt lat="46.32454" lon="5.89598">
        <ele>1155</ele>
        <time>2021-08-19T13:37:50Z</time>
      </trkpt>
      <trkpt lat="46.32453" lon="5.89594">
        <ele>1155</ele>
        <time>2021-08-19T13:37:51Z</time>
      </trkpt>
      <trkpt lat="46.32453" lon="5.8959">
        <ele>1155</ele>
        <time>2021-08-19T13:37:52Z</time>
      </trkpt>
      <trkpt lat="46.32453" lon="5.89589">
        <ele>1155</ele>
        <time>2021-08-19T13:37:53Z</time>
      </trkpt>
      <trkpt lat="46.32453" lon="5.89586">
        <ele>1155</ele>
        <time>2021-08-19T13:37:55Z</time>
      </trkpt>
      <trkpt lat="46.32453" lon="5.89584">
        <ele>1155</ele>
        <time>2021-08-19T13:37:56Z</time>
      </trkpt>
      <trkpt lat="46.32451" lon="5.89583">
        <ele>1155</ele>
        <time>2021-08-19T13:37:57Z</time>
      </trkpt>
      <trkpt lat="46.3245" lon="5.89583">
        <ele>1155</ele>
        <time>2021-08-19T13:37:58Z</time>
      </trkpt>
      <trkpt lat="46.32448" lon="5.89584">
        <ele>1155</ele>
        <time>2021-08-19T13:37:59Z</time>
      </trkpt>
      <trkpt lat="46.32444" lon="5.89587">
        <ele>1155</ele>
        <time>2021-08-19T13:38:01Z</time>
      </trkpt>
      <trkpt lat="46.32442" lon="5.89589">
        <ele>1155</ele>
        <time>2021-08-19T13:38:02Z</time>
      </trkpt>
      <trkpt lat="46.32439" lon="5.89595">
        <ele>1155</ele>
        <time>2021-08-19T13:38:04Z</time>
      </trkpt>
      <trkpt lat="46.32439" lon="5.89602">
        <ele>1155</ele>
        <time>2021-08-19T13:38:06Z</time>
      </trkpt>
      <trkpt lat="46.32438" lon="5.89609">
        <ele>1154.9</ele>
        <time>2021-08-19T13:38:08Z</time>
      </trkpt>
      <trkpt lat="46.32438" lon="5.89614">
        <ele>1154.9</ele>
        <time>2021-08-19T13:38:10Z</time>
      </trkpt>
      <trkpt lat="46.32438" lon="5.89614">
        <ele>1154.9</ele>
        <time>2021-08-19T13:38:11Z</time>
      </trkpt>
      <trkpt lat="46.32438" lon="5.89612">
        <ele>1154.9</ele>
        <time>2021-08-19T13:38:12Z</time>
      </trkpt>
      <trkpt lat="46.32438" lon="5.8961">
        <ele>1154.9</ele>
        <time>2021-08-19T13:38:14Z</time>
      </trkpt>
      <trkpt lat="46.32438" lon="5.89607">
        <ele>1154.9</ele>
        <time>2021-08-19T13:38:16Z</time>
      </trkpt>
      <trkpt lat="46.32439" lon="5.89605">
        <ele>1154.9</ele>
        <time>2021-08-19T13:38:17Z</time>
      </trkpt>
      <trkpt lat="46.32439" lon="5.89603">
        <ele>1154.9</ele>
        <time>2021-08-19T13:38:18Z</time>
      </trkpt>
      <trkpt lat="46.32439" lon="5.89601">
        <ele>1154.9</ele>
        <time>2021-08-19T13:38:20Z</time>
      </trkpt>
      <trkpt lat="46.32439" lon="5.89599">
        <ele>1154.8</ele>
        <time>2021-08-19T13:38:22Z</time>
      </trkpt>
      <trkpt lat="46.3244" lon="5.89596">
        <ele>1154.8</ele>
        <time>2021-08-19T13:38:34Z</time>
      </trkpt>
      <trkpt lat="46.3244" lon="5.89594">
        <ele>1154.8</ele>
        <time>2021-08-19T13:38:35Z</time>
      </trkpt>
      <trkpt lat="46.32441" lon="5.89588">
        <ele>1154.8</ele>
        <time>2021-08-19T13:38:36Z</time>
      </trkpt>
      <trkpt lat="46.32444" lon="5.8958">
        <ele>1154.7</ele>
        <time>2021-08-19T13:38:37Z</time>
      </trkpt>
      <trkpt lat="46.32447" lon="5.89572">
        <ele>1154.7</ele>
        <time>2021-08-19T13:38:39Z</time>
      </trkpt>
      <trkpt lat="46.32449" lon="5.89567">
        <ele>1154.7</ele>
        <time>2021-08-19T13:38:40Z</time>
      </trkpt>
      <trkpt lat="46.3245" lon="5.89562">
        <ele>1154.6</ele>
        <time>2021-08-19T13:38:41Z</time>
      </trkpt>
      <trkpt lat="46.32449" lon="5.89554">
        <ele>1154.6</ele>
        <time>2021-08-19T13:38:43Z</time>
      </trkpt>
      <trkpt lat="46.32447" lon="5.89544">
        <ele>1154.5</ele>
        <time>2021-08-19T13:38:45Z</time>
      </trkpt>
      <trkpt lat="46.32447" lon="5.89537">
        <ele>1154.5</ele>
        <time>2021-08-19T13:38:46Z</time>
      </trkpt>
      <trkpt lat="46.32447" lon="5.89531">
        <ele>1154.5</ele>
        <time>2021-08-19T13:38:47Z</time>
      </trkpt>
      <trkpt lat="46.32447" lon="5.89517">
        <ele>1154.4</ele>
        <time>2021-08-19T13:38:49Z</time>
      </trkpt>
      <trkpt lat="46.32447" lon="5.89511">
        <ele>1154.4</ele>
        <time>2021-08-19T13:38:50Z</time>
      </trkpt>
      <trkpt lat="46.3245" lon="5.89494">
        <ele>1154.4</ele>
        <time>2021-08-19T13:38:52Z</time>
      </trkpt>
      <trkpt lat="46.32452" lon="5.89487">
        <ele>1154.3</ele>
        <time>2021-08-19T13:38:53Z</time>
      </trkpt>
      <trkpt lat="46.32453" lon="5.89481">
        <ele>1154.3</ele>
        <time>2021-08-19T13:38:54Z</time>
      </trkpt>
      <trkpt lat="46.32456" lon="5.8947">
        <ele>1154.3</ele>
        <time>2021-08-19T13:38:56Z</time>
      </trkpt>
      <trkpt lat="46.32457" lon="5.89465">
        <ele>1154.3</ele>
        <time>2021-08-19T13:38:57Z</time>
      </trkpt>
      <trkpt lat="46.3246" lon="5.89454">
        <ele>1154.2</ele>
        <time>2021-08-19T13:38:59Z</time>
      </trkpt>
      <trkpt lat="46.32463" lon="5.89448">
        <ele>1154.2</ele>
        <time>2021-08-19T13:39:00Z</time>
      </trkpt>
      <trkpt lat="46.32466" lon="5.8944">
        <ele>1154.1</ele>
        <time>2021-08-19T13:39:01Z</time>
      </trkpt>
      <trkpt lat="46.32469" lon="5.89434">
        <ele>1154.1</ele>
        <time>2021-08-19T13:39:02Z</time>
      </trkpt>
      <trkpt lat="46.32472" lon="5.89427">
        <ele>1154</ele>
        <time>2021-08-19T13:39:04Z</time>
      </trkpt>
      <trkpt lat="46.32475" lon="5.8942">
        <ele>1153.9</ele>
        <time>2021-08-19T13:39:05Z</time>
      </trkpt>
      <trkpt lat="46.3248" lon="5.89413">
        <ele>1153.8</ele>
        <time>2021-08-19T13:39:06Z</time>
      </trkpt>
      <trkpt lat="46.32485" lon="5.89402">
        <ele>1153.7</ele>
        <time>2021-08-19T13:39:08Z</time>
      </trkpt>
      <trkpt lat="46.32488" lon="5.89393">
        <ele>1153.5</ele>
        <time>2021-08-19T13:39:10Z</time>
      </trkpt>
      <trkpt lat="46.32486" lon="5.89396">
        <ele>1153.5</ele>
        <time>2021-08-19T13:39:11Z</time>
      </trkpt>
      <trkpt lat="46.32489" lon="5.89393">
        <ele>1153.4</ele>
        <time>2021-08-19T13:39:12Z</time>
      </trkpt>
      <trkpt lat="46.32492" lon="5.89385">
        <ele>1153.2</ele>
        <time>2021-08-19T13:39:13Z</time>
      </trkpt>
      <trkpt lat="46.32496" lon="5.89374">
        <ele>1153</ele>
        <time>2021-08-19T13:39:15Z</time>
      </trkpt>
      <trkpt lat="46.32499" lon="5.89368">
        <ele>1152.8</ele>
        <time>2021-08-19T13:39:16Z</time>
      </trkpt>
      <trkpt lat="46.32503" lon="5.89362">
        <ele>1152.6</ele>
        <time>2021-08-19T13:39:17Z</time>
      </trkpt>
      <trkpt lat="46.32506" lon="5.89356">
        <ele>1152.4</ele>
        <time>2021-08-19T13:39:18Z</time>
      </trkpt>
      <trkpt lat="46.32508" lon="5.89351">
        <ele>1152.1</ele>
        <time>2021-08-19T13:39:19Z</time>
      </trkpt>
      <trkpt lat="46.32514" lon="5.89341">
        <ele>1151.5</ele>
        <time>2021-08-19T13:39:21Z</time>
      </trkpt>
      <trkpt lat="46.32516" lon="5.89336">
        <ele>1151.3</ele>
        <time>2021-08-19T13:39:22Z</time>
      </trkpt>
      <trkpt lat="46.32518" lon="5.89331">
        <ele>1151</ele>
        <time>2021-08-19T13:39:24Z</time>
      </trkpt>
      <trkpt lat="46.32526" lon="5.89317">
        <ele>1150.1</ele>
        <time>2021-08-19T13:39:25Z</time>
      </trkpt>
      <trkpt lat="46.3253" lon="5.89308">
        <ele>1149.7</ele>
        <time>2021-08-19T13:39:26Z</time>
      </trkpt>
      <trkpt lat="46.32535" lon="5.89287">
        <ele>1148.9</ele>
        <time>2021-08-19T13:39:28Z</time>
      </trkpt>
      <trkpt lat="46.32536" lon="5.89275">
        <ele>1148.5</ele>
        <time>2021-08-19T13:39:29Z</time>
      </trkpt>
      <trkpt lat="46.32535" lon="5.89263">
        <ele>1148.2</ele>
        <time>2021-08-19T13:39:30Z</time>
      </trkpt>
      <trkpt lat="46.32531" lon="5.89241">
        <ele>1147.5</ele>
        <time>2021-08-19T13:39:32Z</time>
      </trkpt>
      <trkpt lat="46.32528" lon="5.89219">
        <ele>1146.7</ele>
        <time>2021-08-19T13:39:34Z</time>
      </trkpt>
      <trkpt lat="46.32528" lon="5.89198">
        <ele>1146</ele>
        <time>2021-08-19T13:39:36Z</time>
      </trkpt>
      <trkpt lat="46.32528" lon="5.89177">
        <ele>1145.3</ele>
        <time>2021-08-19T13:39:38Z</time>
      </trkpt>
      <trkpt lat="46.32527" lon="5.89156">
        <ele>1144.6</ele>
        <time>2021-08-19T13:39:40Z</time>
      </trkpt>
      <trkpt lat="46.32527" lon="5.89136">
        <ele>1144</ele>
        <time>2021-08-19T13:39:42Z</time>
      </trkpt>
      <trkpt lat="46.32527" lon="5.89117">
        <ele>1143.8</ele>
        <time>2021-08-19T13:39:44Z</time>
      </trkpt>
      <trkpt lat="46.32528" lon="5.89107">
        <ele>1143.8</ele>
        <time>2021-08-19T13:39:45Z</time>
      </trkpt>
      <trkpt lat="46.3253" lon="5.89097">
        <ele>1143.9</ele>
        <time>2021-08-19T13:39:46Z</time>
      </trkpt>
      <trkpt lat="46.32535" lon="5.89079">
        <ele>1144.1</ele>
        <time>2021-08-19T13:39:48Z</time>
      </trkpt>
      <trkpt lat="46.32541" lon="5.89066">
        <ele>1144.4</ele>
        <time>2021-08-19T13:39:50Z</time>
      </trkpt>
      <trkpt lat="46.32548" lon="5.89054">
        <ele>1145.3</ele>
        <time>2021-08-19T13:39:52Z</time>
      </trkpt>
      <trkpt lat="46.32556" lon="5.89044">
        <ele>1145.7</ele>
        <time>2021-08-19T13:39:54Z</time>
      </trkpt>
      <trkpt lat="46.32558" lon="5.89041">
        <ele>1145.8</ele>
        <time>2021-08-19T13:39:55Z</time>
      </trkpt>
      <trkpt lat="46.32563" lon="5.89037">
        <ele>1146.1</ele>
        <time>2021-08-19T13:39:56Z</time>
      </trkpt>
      <trkpt lat="46.32569" lon="5.89033">
        <ele>1146.4</ele>
        <time>2021-08-19T13:39:58Z</time>
      </trkpt>
      <trkpt lat="46.32572" lon="5.8903">
        <ele>1146.6</ele>
        <time>2021-08-19T13:39:59Z</time>
      </trkpt>
      <trkpt lat="46.32573" lon="5.89029">
        <ele>1146.6</ele>
        <time>2021-08-19T13:40:00Z</time>
      </trkpt>
      <trkpt lat="46.32576" lon="5.89027">
        <ele>1146.8</ele>
        <time>2021-08-19T13:40:02Z</time>
      </trkpt>
      <trkpt lat="46.32577" lon="5.89025">
        <ele>1146.9</ele>
        <time>2021-08-19T13:40:03Z</time>
      </trkpt>
      <trkpt lat="46.32579" lon="5.89021">
        <ele>1147.1</ele>
        <time>2021-08-19T13:40:04Z</time>
      </trkpt>
      <trkpt lat="46.32581" lon="5.89019">
        <ele>1147.1</ele>
        <time>2021-08-19T13:40:06Z</time>
      </trkpt>
      <trkpt lat="46.32582" lon="5.89019">
        <ele>1147.2</ele>
        <time>2021-08-19T13:40:07Z</time>
      </trkpt>
      <trkpt lat="46.32585" lon="5.89017">
        <ele>1147.4</ele>
        <time>2021-08-19T13:40:09Z</time>
      </trkpt>
      <trkpt lat="46.32586" lon="5.89015">
        <ele>1147.4</ele>
        <time>2021-08-19T13:40:10Z</time>
      </trkpt>
      <trkpt lat="46.32587" lon="5.89015">
        <ele>1147.4</ele>
        <time>2021-08-19T13:40:11Z</time>
      </trkpt>
      <trkpt lat="46.32588" lon="5.89014">
        <ele>1147.5</ele>
        <time>2021-08-19T13:40:13Z</time>
      </trkpt>
      <trkpt lat="46.3259" lon="5.89016">
        <ele>1147.6</ele>
        <time>2021-08-19T13:40:15Z</time>
      </trkpt>
      <trkpt lat="46.32592" lon="5.89022">
        <ele>1147.8</ele>
        <time>2021-08-19T13:40:17Z</time>
      </trkpt>
      <trkpt lat="46.32594" lon="5.89025">
        <ele>1147.9</ele>
        <time>2021-08-19T13:40:19Z</time>
      </trkpt>
      <trkpt lat="46.32596" lon="5.89026">
        <ele>1148</ele>
        <time>2021-08-19T13:40:20Z</time>
      </trkpt>
      <trkpt lat="46.32601" lon="5.89026">
        <ele>1148.1</ele>
        <time>2021-08-19T13:40:22Z</time>
      </trkpt>
      <trkpt lat="46.32603" lon="5.89027">
        <ele>1148.1</ele>
        <time>2021-08-19T13:40:23Z</time>
      </trkpt>
      <trkpt lat="46.32604" lon="5.89028">
        <ele>1148.1</ele>
        <time>2021-08-19T13:40:24Z</time>
      </trkpt>
      <trkpt lat="46.32603" lon="5.89027">
        <ele>1148.1</ele>
        <time>2021-08-19T13:40:26Z</time>
      </trkpt>
      <trkpt lat="46.32602" lon="5.89027">
        <ele>1148.1</ele>
        <time>2021-08-19T13:40:28Z</time>
      </trkpt>
      <trkpt lat="46.32601" lon="5.89027">
        <ele>1148.1</ele>
        <time>2021-08-19T13:40:29Z</time>
      </trkpt>
      <trkpt lat="46.326" lon="5.89026">
        <ele>1148.1</ele>
        <time>2021-08-19T13:40:30Z</time>
      </trkpt>
      <trkpt lat="46.32599" lon="5.89025">
        <ele>1148.1</ele>
        <time>2021-08-19T13:40:32Z</time>
      </trkpt>
      <trkpt lat="46.32598" lon="5.89023">
        <ele>1148.1</ele>
        <time>2021-08-19T13:40:33Z</time>
      </trkpt>
      <trkpt lat="46.32593" lon="5.89005">
        <ele>1148.1</ele>
        <time>2021-08-19T13:41:43Z</time>
      </trkpt>
      <trkpt lat="46.32596" lon="5.89002">
        <ele>1148.1</ele>
        <time>2021-08-19T13:41:45Z</time>
      </trkpt>
      <trkpt lat="46.32598" lon="5.88994">
        <ele>1148.1</ele>
        <time>2021-08-19T13:41:46Z</time>
      </trkpt>
      <trkpt lat="46.326" lon="5.88988">
        <ele>1148</ele>
        <time>2021-08-19T13:41:47Z</time>
      </trkpt>
      <trkpt lat="46.32602" lon="5.88986">
        <ele>1147.9</ele>
        <time>2021-08-19T13:41:48Z</time>
      </trkpt>
      <trkpt lat="46.32604" lon="5.88985">
        <ele>1147.8</ele>
        <time>2021-08-19T13:41:49Z</time>
      </trkpt>
      <trkpt lat="46.32608" lon="5.88982">
        <ele>1147.7</ele>
        <time>2021-08-19T13:41:51Z</time>
      </trkpt>
      <trkpt lat="46.3261" lon="5.8898">
        <ele>1147.6</ele>
        <time>2021-08-19T13:41:53Z</time>
      </trkpt>
      <trkpt lat="46.32609" lon="5.88978">
        <ele>1147.5</ele>
        <time>2021-08-19T13:41:54Z</time>
      </trkpt>
      <trkpt lat="46.32609" lon="5.88978">
        <ele>1147.5</ele>
        <time>2021-08-19T13:41:55Z</time>
      </trkpt>
      <trkpt lat="46.3261" lon="5.88978">
        <ele>1147.5</ele>
        <time>2021-08-19T13:41:56Z</time>
      </trkpt>
      <trkpt lat="46.32612" lon="5.88979">
        <ele>1147.3</ele>
        <time>2021-08-19T13:41:58Z</time>
      </trkpt>
      <trkpt lat="46.32613" lon="5.88981">
        <ele>1147.3</ele>
        <time>2021-08-19T13:41:59Z</time>
      </trkpt>
      <trkpt lat="46.32613" lon="5.88982">
        <ele>1147.2</ele>
        <time>2021-08-19T13:42:01Z</time>
      </trkpt>
      <trkpt lat="46.32613" lon="5.88983">
        <ele>1147.2</ele>
        <time>2021-08-19T13:42:02Z</time>
      </trkpt>
      <trkpt lat="46.32613" lon="5.88983">
        <ele>1147.2</ele>
        <time>2021-08-19T13:42:04Z</time>
      </trkpt>
      <trkpt lat="46.32613" lon="5.88984">
        <ele>1147.2</ele>
        <time>2021-08-19T13:42:06Z</time>
      </trkpt>
      <trkpt lat="46.32613" lon="5.88984">
        <ele>1147.2</ele>
        <time>2021-08-19T13:42:07Z</time>
      </trkpt>
      <trkpt lat="46.32613" lon="5.88984">
        <ele>1147.2</ele>
        <time>2021-08-19T13:42:08Z</time>
      </trkpt>
      <trkpt lat="46.3261" lon="5.88984">
        <ele>1147</ele>
        <time>2021-08-19T13:43:58Z</time>
      </trkpt>
      <trkpt lat="46.3261" lon="5.88982">
        <ele>1146.9</ele>
        <time>2021-08-19T13:43:59Z</time>
      </trkpt>
      <trkpt lat="46.32612" lon="5.88972">
        <ele>1146.5</ele>
        <time>2021-08-19T13:44:01Z</time>
      </trkpt>
      <trkpt lat="46.32613" lon="5.88969">
        <ele>1146.3</ele>
        <time>2021-08-19T13:44:02Z</time>
      </trkpt>
      <trkpt lat="46.32616" lon="5.8896">
        <ele>1145.9</ele>
        <time>2021-08-19T13:44:04Z</time>
      </trkpt>
      <trkpt lat="46.32618" lon="5.88949">
        <ele>1145.4</ele>
        <time>2021-08-19T13:44:06Z</time>
      </trkpt>
      <trkpt lat="46.32627" lon="5.88934">
        <ele>1144.6</ele>
        <time>2021-08-19T13:44:07Z</time>
      </trkpt>
      <trkpt lat="46.32633" lon="5.88926">
        <ele>1144.1</ele>
        <time>2021-08-19T13:44:08Z</time>
      </trkpt>
      <trkpt lat="46.32645" lon="5.88915">
        <ele>1143.3</ele>
        <time>2021-08-19T13:44:10Z</time>
      </trkpt>
      <trkpt lat="46.3265" lon="5.88908">
        <ele>1143</ele>
        <time>2021-08-19T13:44:12Z</time>
      </trkpt>
      <trkpt lat="46.32654" lon="5.88905">
        <ele>1142.8</ele>
        <time>2021-08-19T13:44:13Z</time>
      </trkpt>
      <trkpt lat="46.32658" lon="5.88902">
        <ele>1142.6</ele>
        <time>2021-08-19T13:44:15Z</time>
      </trkpt>
      <trkpt lat="46.32661" lon="5.88892">
        <ele>1142.6</ele>
        <time>2021-08-19T13:44:17Z</time>
      </trkpt>
      <trkpt lat="46.32662" lon="5.88886">
        <ele>1142.1</ele>
        <time>2021-08-19T13:44:18Z</time>
      </trkpt>
      <trkpt lat="46.32664" lon="5.88877">
        <ele>1141.3</ele>
        <time>2021-08-19T13:44:19Z</time>
      </trkpt>
      <trkpt lat="46.32671" lon="5.88855">
        <ele>1138.7</ele>
        <time>2021-08-19T13:44:21Z</time>
      </trkpt>
      <trkpt lat="46.32681" lon="5.8883">
        <ele>1135.4</ele>
        <time>2021-08-19T13:44:23Z</time>
      </trkpt>
      <trkpt lat="46.32694" lon="5.88801">
        <ele>1132.3</ele>
        <time>2021-08-19T13:44:25Z</time>
      </trkpt>
      <trkpt lat="46.32701" lon="5.88786">
        <ele>1131.4</ele>
        <time>2021-08-19T13:44:26Z</time>
      </trkpt>
      <trkpt lat="46.32715" lon="5.88756">
        <ele>1130.6</ele>
        <time>2021-08-19T13:44:28Z</time>
      </trkpt>
      <trkpt lat="46.32723" lon="5.88743">
        <ele>1130.6</ele>
        <time>2021-08-19T13:44:29Z</time>
      </trkpt>
      <trkpt lat="46.3273" lon="5.88731">
        <ele>1130.9</ele>
        <time>2021-08-19T13:44:30Z</time>
      </trkpt>
      <trkpt lat="46.32746" lon="5.88709">
        <ele>1131.6</ele>
        <time>2021-08-19T13:44:32Z</time>
      </trkpt>
      <trkpt lat="46.32759" lon="5.88692">
        <ele>1132.6</ele>
        <time>2021-08-19T13:44:34Z</time>
      </trkpt>
      <trkpt lat="46.32764" lon="5.88683">
        <ele>1133.1</ele>
        <time>2021-08-19T13:44:35Z</time>
      </trkpt>
      <trkpt lat="46.32773" lon="5.88669">
        <ele>1134.1</ele>
        <time>2021-08-19T13:44:37Z</time>
      </trkpt>
      <trkpt lat="46.32777" lon="5.88663">
        <ele>1134.6</ele>
        <time>2021-08-19T13:44:38Z</time>
      </trkpt>
      <trkpt lat="46.32784" lon="5.88654">
        <ele>1135.5</ele>
        <time>2021-08-19T13:44:40Z</time>
      </trkpt>
      <trkpt lat="46.32786" lon="5.88651">
        <ele>1135.8</ele>
        <time>2021-08-19T13:44:41Z</time>
      </trkpt>
      <trkpt lat="46.3279" lon="5.88648">
        <ele>1136.2</ele>
        <time>2021-08-19T13:44:42Z</time>
      </trkpt>
      <trkpt lat="46.32791" lon="5.88646">
        <ele>1136.3</ele>
        <time>2021-08-19T13:44:43Z</time>
      </trkpt>
      <trkpt lat="46.32793" lon="5.88643">
        <ele>1136.6</ele>
        <time>2021-08-19T13:44:44Z</time>
      </trkpt>
      <trkpt lat="46.32797" lon="5.88638">
        <ele>1137.1</ele>
        <time>2021-08-19T13:44:46Z</time>
      </trkpt>
      <trkpt lat="46.32796" lon="5.88638">
        <ele>1137.2</ele>
        <time>2021-08-19T13:44:47Z</time>
      </trkpt>
      <trkpt lat="46.32799" lon="5.88637">
        <ele>1137.4</ele>
        <time>2021-08-19T13:44:48Z</time>
      </trkpt>
      <trkpt lat="46.32804" lon="5.88633">
        <ele>1137.9</ele>
        <time>2021-08-19T13:44:50Z</time>
      </trkpt>
      <trkpt lat="46.3281" lon="5.88629">
        <ele>1138.4</ele>
        <time>2021-08-19T13:44:52Z</time>
      </trkpt>
      <trkpt lat="46.32816" lon="5.88623">
        <ele>1138.9</ele>
        <time>2021-08-19T13:44:54Z</time>
      </trkpt>
      <trkpt lat="46.32818" lon="5.88621">
        <ele>1139.1</ele>
        <time>2021-08-19T13:44:55Z</time>
      </trkpt>
      <trkpt lat="46.3282" lon="5.88617">
        <ele>1139.3</ele>
        <time>2021-08-19T13:44:56Z</time>
      </trkpt>
      <trkpt lat="46.32821" lon="5.88616">
        <ele>1139.4</ele>
        <time>2021-08-19T13:44:57Z</time>
      </trkpt>
      <trkpt lat="46.32823" lon="5.88613">
        <ele>1139.6</ele>
        <time>2021-08-19T13:44:58Z</time>
      </trkpt>
      <trkpt lat="46.32823" lon="5.88612">
        <ele>1139.7</ele>
        <time>2021-08-19T13:44:59Z</time>
      </trkpt>
      <trkpt lat="46.32828" lon="5.88609">
        <ele>1140</ele>
        <time>2021-08-19T13:45:01Z</time>
      </trkpt>
      <trkpt lat="46.32829" lon="5.88608">
        <ele>1140.1</ele>
        <time>2021-08-19T13:45:02Z</time>
      </trkpt>
      <trkpt lat="46.3283" lon="5.88605">
        <ele>1140.3</ele>
        <time>2021-08-19T13:45:03Z</time>
      </trkpt>
      <trkpt lat="46.3283" lon="5.88602">
        <ele>1140.5</ele>
        <time>2021-08-19T13:45:04Z</time>
      </trkpt>
      <trkpt lat="46.3283" lon="5.886">
        <ele>1140.6</ele>
        <time>2021-08-19T13:45:05Z</time>
      </trkpt>
      <trkpt lat="46.32831" lon="5.88597">
        <ele>1140.7</ele>
        <time>2021-08-19T13:45:06Z</time>
      </trkpt>
      <trkpt lat="46.32831" lon="5.88596">
        <ele>1140.8</ele>
        <time>2021-08-19T13:45:07Z</time>
      </trkpt>
      <trkpt lat="46.32831" lon="5.88595">
        <ele>1140.9</ele>
        <time>2021-08-19T13:45:08Z</time>
      </trkpt>
      <trkpt lat="46.32831" lon="5.88593">
        <ele>1141</ele>
        <time>2021-08-19T13:45:10Z</time>
      </trkpt>
      <trkpt lat="46.32831" lon="5.88592">
        <ele>1141.1</ele>
        <time>2021-08-19T13:45:11Z</time>
      </trkpt>
      <trkpt lat="46.32831" lon="5.88589">
        <ele>1141.2</ele>
        <time>2021-08-19T13:45:12Z</time>
      </trkpt>
      <trkpt lat="46.32831" lon="5.88587">
        <ele>1141.3</ele>
        <time>2021-08-19T13:45:13Z</time>
      </trkpt>
      <trkpt lat="46.32832" lon="5.88585">
        <ele>1141.5</ele>
        <time>2021-08-19T13:45:15Z</time>
      </trkpt>
      <trkpt lat="46.32832" lon="5.88582">
        <ele>1141.6</ele>
        <time>2021-08-19T13:45:16Z</time>
      </trkpt>
      <trkpt lat="46.32833" lon="5.8858">
        <ele>1141.7</ele>
        <time>2021-08-19T13:45:17Z</time>
      </trkpt>
      <trkpt lat="46.32833" lon="5.88578">
        <ele>1141.8</ele>
        <time>2021-08-19T13:45:18Z</time>
      </trkpt>
      <trkpt lat="46.32834" lon="5.88577">
        <ele>1141.9</ele>
        <time>2021-08-19T13:45:19Z</time>
      </trkpt>
      <trkpt lat="46.32834" lon="5.88576">
        <ele>1142</ele>
        <time>2021-08-19T13:45:20Z</time>
      </trkpt>
      <trkpt lat="46.32832" lon="5.88577">
        <ele>1142.1</ele>
        <time>2021-08-19T13:45:21Z</time>
      </trkpt>
      <trkpt lat="46.32832" lon="5.88577">
        <ele>1142.2</ele>
        <time>2021-08-19T13:45:23Z</time>
      </trkpt>
      <trkpt lat="46.32832" lon="5.88575">
        <ele>1142.3</ele>
        <time>2021-08-19T13:45:24Z</time>
      </trkpt>
      <trkpt lat="46.32833" lon="5.8857">
        <ele>1142.5</ele>
        <time>2021-08-19T13:45:26Z</time>
      </trkpt>
      <trkpt lat="46.32834" lon="5.88566">
        <ele>1142.8</ele>
        <time>2021-08-19T13:45:27Z</time>
      </trkpt>
      <trkpt lat="46.32835" lon="5.88565">
        <ele>1142.9</ele>
        <time>2021-08-19T13:45:28Z</time>
      </trkpt>
      <trkpt lat="46.32835" lon="5.88561">
        <ele>1143.1</ele>
        <time>2021-08-19T13:45:29Z</time>
      </trkpt>
      <trkpt lat="46.32835" lon="5.8856">
        <ele>1143.2</ele>
        <time>2021-08-19T13:45:30Z</time>
      </trkpt>
      <trkpt lat="46.32834" lon="5.88558">
        <ele>1143.3</ele>
        <time>2021-08-19T13:45:31Z</time>
      </trkpt>
      <trkpt lat="46.32831" lon="5.88554">
        <ele>1143.6</ele>
        <time>2021-08-19T13:45:33Z</time>
      </trkpt>
      <trkpt lat="46.32829" lon="5.88551">
        <ele>1143.8</ele>
        <time>2021-08-19T13:45:34Z</time>
      </trkpt>
      <trkpt lat="46.32828" lon="5.8855">
        <ele>1143.9</ele>
        <time>2021-08-19T13:45:35Z</time>
      </trkpt>
      <trkpt lat="46.32826" lon="5.88549">
        <ele>1144.1</ele>
        <time>2021-08-19T13:45:37Z</time>
      </trkpt>
      <trkpt lat="46.32826" lon="5.8855">
        <ele>1144.1</ele>
        <time>2021-08-19T13:45:39Z</time>
      </trkpt>
      <trkpt lat="46.32825" lon="5.8855">
        <ele>1144.2</ele>
        <time>2021-08-19T13:45:40Z</time>
      </trkpt>
      <trkpt lat="46.32825" lon="5.88549">
        <ele>1144.2</ele>
        <time>2021-08-19T13:45:41Z</time>
      </trkpt>
      <trkpt lat="46.32824" lon="5.88548">
        <ele>1144.3</ele>
        <time>2021-08-19T13:45:42Z</time>
      </trkpt>
      <trkpt lat="46.32824" lon="5.88548">
        <ele>1144.3</ele>
        <time>2021-08-19T13:45:43Z</time>
      </trkpt>
      <trkpt lat="46.32823" lon="5.88548">
        <ele>1144.4</ele>
        <time>2021-08-19T13:45:44Z</time>
      </trkpt>
      <trkpt lat="46.32822" lon="5.88547">
        <ele>1144.4</ele>
        <time>2021-08-19T13:45:46Z</time>
      </trkpt>
      <trkpt lat="46.32822" lon="5.88546">
        <ele>1144.5</ele>
        <time>2021-08-19T13:45:47Z</time>
      </trkpt>
      <trkpt lat="46.32823" lon="5.88543">
        <ele>1144.7</ele>
        <time>2021-08-19T13:45:49Z</time>
      </trkpt>
      <trkpt lat="46.32823" lon="5.88542">
        <ele>1144.8</ele>
        <time>2021-08-19T13:45:50Z</time>
      </trkpt>
      <trkpt lat="46.32824" lon="5.88539">
        <ele>1144.9</ele>
        <time>2021-08-19T13:45:52Z</time>
      </trkpt>
      <trkpt lat="46.32842" lon="5.88504">
        <ele>1147.1</ele>
        <time>2021-08-19T13:46:10Z</time>
      </trkpt>
      <trkpt lat="46.32846" lon="5.88498">
        <ele>1147.4</ele>
        <time>2021-08-19T13:46:12Z</time>
      </trkpt>
      <trkpt lat="46.32849" lon="5.88495">
        <ele>1147.7</ele>
        <time>2021-08-19T13:46:13Z</time>
      </trkpt>
      <trkpt lat="46.32851" lon="5.88492">
        <ele>1147.9</ele>
        <time>2021-08-19T13:46:14Z</time>
      </trkpt>
      <trkpt lat="46.32854" lon="5.88488">
        <ele>1148.1</ele>
        <time>2021-08-19T13:46:16Z</time>
      </trkpt>
      <trkpt lat="46.32856" lon="5.88486">
        <ele>1148.3</ele>
        <time>2021-08-19T13:46:17Z</time>
      </trkpt>
      <trkpt lat="46.32859" lon="5.88481">
        <ele>1148.5</ele>
        <time>2021-08-19T13:46:19Z</time>
      </trkpt>
      <trkpt lat="46.3286" lon="5.8848">
        <ele>1148.6</ele>
        <time>2021-08-19T13:46:20Z</time>
      </trkpt>
      <trkpt lat="46.3286" lon="5.88478">
        <ele>1148.7</ele>
        <time>2021-08-19T13:46:21Z</time>
      </trkpt>
      <trkpt lat="46.32861" lon="5.88475">
        <ele>1148.8</ele>
        <time>2021-08-19T13:46:22Z</time>
      </trkpt>
      <trkpt lat="46.32862" lon="5.88474">
        <ele>1148.8</ele>
        <time>2021-08-19T13:46:23Z</time>
      </trkpt>
      <trkpt lat="46.32862" lon="5.88473">
        <ele>1148.9</ele>
        <time>2021-08-19T13:46:24Z</time>
      </trkpt>
      <trkpt lat="46.32863" lon="5.88472">
        <ele>1148.9</ele>
        <time>2021-08-19T13:46:25Z</time>
      </trkpt>
      <trkpt lat="46.32862" lon="5.88471">
        <ele>1149</ele>
        <time>2021-08-19T13:46:26Z</time>
      </trkpt>
      <trkpt lat="46.32863" lon="5.88469">
        <ele>1149</ele>
        <time>2021-08-19T13:46:27Z</time>
      </trkpt>
      <trkpt lat="46.32864" lon="5.88467">
        <ele>1149.2</ele>
        <time>2021-08-19T13:46:29Z</time>
      </trkpt>
      <trkpt lat="46.32865" lon="5.88464">
        <ele>1149.3</ele>
        <time>2021-08-19T13:46:30Z</time>
      </trkpt>
      <trkpt lat="46.32867" lon="5.88462">
        <ele>1149.4</ele>
        <time>2021-08-19T13:46:32Z</time>
      </trkpt>
      <trkpt lat="46.32867" lon="5.88459">
        <ele>1149.5</ele>
        <time>2021-08-19T13:46:34Z</time>
      </trkpt>
      <trkpt lat="46.32865" lon="5.88458">
        <ele>1149.7</ele>
        <time>2021-08-19T13:46:35Z</time>
      </trkpt>
      <trkpt lat="46.32865" lon="5.88457">
        <ele>1149.7</ele>
        <time>2021-08-19T13:46:37Z</time>
      </trkpt>
      <trkpt lat="46.32867" lon="5.88453">
        <ele>1149.9</ele>
        <time>2021-08-19T13:46:39Z</time>
      </trkpt>
      <trkpt lat="46.3287" lon="5.88449">
        <ele>1150.1</ele>
        <time>2021-08-19T13:46:41Z</time>
      </trkpt>
      <trkpt lat="46.32872" lon="5.88444">
        <ele>1150.4</ele>
        <time>2021-08-19T13:46:43Z</time>
      </trkpt>
      <trkpt lat="46.32873" lon="5.88442">
        <ele>1150.4</ele>
        <time>2021-08-19T13:46:44Z</time>
      </trkpt>
      <trkpt lat="46.32872" lon="5.88438">
        <ele>1150.6</ele>
        <time>2021-08-19T13:46:46Z</time>
      </trkpt>
      <trkpt lat="46.32872" lon="5.88435">
        <ele>1150.7</ele>
        <time>2021-08-19T13:46:47Z</time>
      </trkpt>
      <trkpt lat="46.32872" lon="5.88431">
        <ele>1150.9</ele>
        <time>2021-08-19T13:46:49Z</time>
      </trkpt>
      <trkpt lat="46.32869" lon="5.88426">
        <ele>1151.1</ele>
        <time>2021-08-19T13:46:51Z</time>
      </trkpt>
      <trkpt lat="46.32867" lon="5.88423">
        <ele>1151.3</ele>
        <time>2021-08-19T13:46:52Z</time>
      </trkpt>
      <trkpt lat="46.32864" lon="5.88419">
        <ele>1151.6</ele>
        <time>2021-08-19T13:46:54Z</time>
      </trkpt>
      <trkpt lat="46.32864" lon="5.88418">
        <ele>1151.7</ele>
        <time>2021-08-19T13:46:55Z</time>
      </trkpt>
      <trkpt lat="46.32863" lon="5.88416">
        <ele>1151.8</ele>
        <time>2021-08-19T13:46:56Z</time>
      </trkpt>
      <trkpt lat="46.32862" lon="5.88413">
        <ele>1152</ele>
        <time>2021-08-19T13:46:58Z</time>
      </trkpt>
      <trkpt lat="46.32861" lon="5.88411">
        <ele>1152.2</ele>
        <time>2021-08-19T13:46:59Z</time>
      </trkpt>
      <trkpt lat="46.3286" lon="5.8841">
        <ele>1152.3</ele>
        <time>2021-08-19T13:47:00Z</time>
      </trkpt>
      <trkpt lat="46.32859" lon="5.88406">
        <ele>1152.5</ele>
        <time>2021-08-19T13:47:02Z</time>
      </trkpt>
      <trkpt lat="46.32857" lon="5.88403">
        <ele>1152.7</ele>
        <time>2021-08-19T13:47:04Z</time>
      </trkpt>
      <trkpt lat="46.32856" lon="5.88402">
        <ele>1152.9</ele>
        <time>2021-08-19T13:47:05Z</time>
      </trkpt>
      <trkpt lat="46.32855" lon="5.88401">
        <ele>1153</ele>
        <time>2021-08-19T13:47:06Z</time>
      </trkpt>
      <trkpt lat="46.32853" lon="5.88398">
        <ele>1153.3</ele>
        <time>2021-08-19T13:47:08Z</time>
      </trkpt>
      <trkpt lat="46.32851" lon="5.88397">
        <ele>1153.4</ele>
        <time>2021-08-19T13:47:10Z</time>
      </trkpt>
      <trkpt lat="46.32851" lon="5.88397">
        <ele>1153.4</ele>
        <time>2021-08-19T13:47:11Z</time>
      </trkpt>
      <trkpt lat="46.32851" lon="5.88396">
        <ele>1153.5</ele>
        <time>2021-08-19T13:47:12Z</time>
      </trkpt>
      <trkpt lat="46.32849" lon="5.88394">
        <ele>1153.6</ele>
        <time>2021-08-19T13:47:14Z</time>
      </trkpt>
      <trkpt lat="46.32848" lon="5.88393">
        <ele>1153.8</ele>
        <time>2021-08-19T13:47:15Z</time>
      </trkpt>
      <trkpt lat="46.32846" lon="5.88391">
        <ele>1154</ele>
        <time>2021-08-19T13:47:17Z</time>
      </trkpt>
      <trkpt lat="46.32846" lon="5.88391">
        <ele>1154</ele>
        <time>2021-08-19T13:47:18Z</time>
      </trkpt>
      <trkpt lat="46.32845" lon="5.88391">
        <ele>1154.1</ele>
        <time>2021-08-19T13:47:20Z</time>
      </trkpt>
      <trkpt lat="46.32844" lon="5.8839">
        <ele>1154.2</ele>
        <time>2021-08-19T13:47:21Z</time>
      </trkpt>
      <trkpt lat="46.32842" lon="5.88389">
        <ele>1154.4</ele>
        <time>2021-08-19T13:47:22Z</time>
      </trkpt>
      <trkpt lat="46.32841" lon="5.88387">
        <ele>1154.5</ele>
        <time>2021-08-19T13:47:23Z</time>
      </trkpt>
      <trkpt lat="46.32839" lon="5.88382">
        <ele>1154.8</ele>
        <time>2021-08-19T13:47:25Z</time>
      </trkpt>
      <trkpt lat="46.32838" lon="5.8838">
        <ele>1154.9</ele>
        <time>2021-08-19T13:47:26Z</time>
      </trkpt>
      <trkpt lat="46.32838" lon="5.88378">
        <ele>1155</ele>
        <time>2021-08-19T13:47:27Z</time>
      </trkpt>
      <trkpt lat="46.32837" lon="5.88376">
        <ele>1155.2</ele>
        <time>2021-08-19T13:47:28Z</time>
      </trkpt>
      <trkpt lat="46.32836" lon="5.88373">
        <ele>1155.3</ele>
        <time>2021-08-19T13:47:30Z</time>
      </trkpt>
      <trkpt lat="46.32836" lon="5.88373">
        <ele>1155.3</ele>
        <time>2021-08-19T13:47:31Z</time>
      </trkpt>
      <trkpt lat="46.32836" lon="5.88373">
        <ele>1155.4</ele>
        <time>2021-08-19T13:47:32Z</time>
      </trkpt>
      <trkpt lat="46.32837" lon="5.88372">
        <ele>1155.4</ele>
        <time>2021-08-19T13:47:34Z</time>
      </trkpt>
      <trkpt lat="46.32837" lon="5.88372">
        <ele>1155.4</ele>
        <time>2021-08-19T13:47:35Z</time>
      </trkpt>
      <trkpt lat="46.32837" lon="5.88372">
        <ele>1155.4</ele>
        <time>2021-08-19T13:47:36Z</time>
      </trkpt>
      <trkpt lat="46.32837" lon="5.88371">
        <ele>1155.5</ele>
        <time>2021-08-19T13:47:37Z</time>
      </trkpt>
      <trkpt lat="46.32838" lon="5.8837">
        <ele>1155.5</ele>
        <time>2021-08-19T13:47:38Z</time>
      </trkpt>
      <trkpt lat="46.32838" lon="5.88368">
        <ele>1155.6</ele>
        <time>2021-08-19T13:47:40Z</time>
      </trkpt>
      <trkpt lat="46.32842" lon="5.8834">
        <ele>1156.8</ele>
        <time>2021-08-19T13:47:51Z</time>
      </trkpt>
      <trkpt lat="46.32845" lon="5.88332">
        <ele>1157.2</ele>
        <time>2021-08-19T13:47:53Z</time>
      </trkpt>
      <trkpt lat="46.32847" lon="5.88327">
        <ele>1157.5</ele>
        <time>2021-08-19T13:47:55Z</time>
      </trkpt>
      <trkpt lat="46.32848" lon="5.88324">
        <ele>1157.6</ele>
        <time>2021-08-19T13:47:56Z</time>
      </trkpt>
      <trkpt lat="46.32851" lon="5.88319">
        <ele>1157.9</ele>
        <time>2021-08-19T13:47:57Z</time>
      </trkpt>
      <trkpt lat="46.32854" lon="5.88316">
        <ele>1158.2</ele>
        <time>2021-08-19T13:47:59Z</time>
      </trkpt>
      <trkpt lat="46.32856" lon="5.88315">
        <ele>1158.3</ele>
        <time>2021-08-19T13:48:00Z</time>
      </trkpt>
      <trkpt lat="46.32857" lon="5.88314">
        <ele>1158.3</ele>
        <time>2021-08-19T13:48:01Z</time>
      </trkpt>
      <trkpt lat="46.32858" lon="5.88313">
        <ele>1158.5</ele>
        <time>2021-08-19T13:48:02Z</time>
      </trkpt>
      <trkpt lat="46.32859" lon="5.88312">
        <ele>1158.5</ele>
        <time>2021-08-19T13:48:03Z</time>
      </trkpt>
      <trkpt lat="46.3286" lon="5.88312">
        <ele>1158.6</ele>
        <time>2021-08-19T13:48:04Z</time>
      </trkpt>
      <trkpt lat="46.32862" lon="5.88312">
        <ele>1158.7</ele>
        <time>2021-08-19T13:48:05Z</time>
      </trkpt>
      <trkpt lat="46.32863" lon="5.88312">
        <ele>1158.8</ele>
        <time>2021-08-19T13:48:07Z</time>
      </trkpt>
      <trkpt lat="46.32864" lon="5.88312">
        <ele>1158.9</ele>
        <time>2021-08-19T13:48:08Z</time>
      </trkpt>
      <trkpt lat="46.32867" lon="5.88313">
        <ele>1159.1</ele>
        <time>2021-08-19T13:48:10Z</time>
      </trkpt>
      <trkpt lat="46.3293" lon="5.88317">
        <ele>1163.9</ele>
        <time>2021-08-19T13:48:58Z</time>
      </trkpt>
      <trkpt lat="46.32932" lon="5.88317">
        <ele>1164.1</ele>
        <time>2021-08-19T13:48:59Z</time>
      </trkpt>
      <trkpt lat="46.32937" lon="5.88316">
        <ele>1164.4</ele>
        <time>2021-08-19T13:49:01Z</time>
      </trkpt>
      <trkpt lat="46.32941" lon="5.88315">
        <ele>1164.8</ele>
        <time>2021-08-19T13:49:03Z</time>
      </trkpt>
      <trkpt lat="46.32943" lon="5.88314">
        <ele>1165</ele>
        <time>2021-08-19T13:49:04Z</time>
      </trkpt>
      <trkpt lat="46.32947" lon="5.88314">
        <ele>1165.3</ele>
        <time>2021-08-19T13:49:06Z</time>
      </trkpt>
      <trkpt lat="46.3295" lon="5.88315">
        <ele>1165.6</ele>
        <time>2021-08-19T13:49:07Z</time>
      </trkpt>
      <trkpt lat="46.32951" lon="5.88316">
        <ele>1165.7</ele>
        <time>2021-08-19T13:49:08Z</time>
      </trkpt>
      <trkpt lat="46.32953" lon="5.88316">
        <ele>1165.8</ele>
        <time>2021-08-19T13:49:09Z</time>
      </trkpt>
      <trkpt lat="46.32954" lon="5.88316">
        <ele>1166</ele>
        <time>2021-08-19T13:49:11Z</time>
      </trkpt>
      <trkpt lat="46.32955" lon="5.88317">
        <ele>1166.1</ele>
        <time>2021-08-19T13:49:12Z</time>
      </trkpt>
      <trkpt lat="46.32956" lon="5.88317">
        <ele>1166.2</ele>
        <time>2021-08-19T13:49:14Z</time>
      </trkpt>
      <trkpt lat="46.32957" lon="5.88317">
        <ele>1166.2</ele>
        <time>2021-08-19T13:49:15Z</time>
      </trkpt>
      <trkpt lat="46.32957" lon="5.88317">
        <ele>1166.2</ele>
        <time>2021-08-19T13:49:16Z</time>
      </trkpt>
      <trkpt lat="46.32957" lon="5.88317">
        <ele>1166.3</ele>
        <time>2021-08-19T13:49:17Z</time>
      </trkpt>
      <trkpt lat="46.32957" lon="5.88316">
        <ele>1166.3</ele>
        <time>2021-08-19T13:49:18Z</time>
      </trkpt>
      <trkpt lat="46.32958" lon="5.88316">
        <ele>1166.4</ele>
        <time>2021-08-19T13:49:19Z</time>
      </trkpt>
      <trkpt lat="46.3296" lon="5.88316">
        <ele>1166.5</ele>
        <time>2021-08-19T13:49:20Z</time>
      </trkpt>
      <trkpt lat="46.32963" lon="5.88317">
        <ele>1166.8</ele>
        <time>2021-08-19T13:49:21Z</time>
      </trkpt>
      <trkpt lat="46.32964" lon="5.88317">
        <ele>1166.9</ele>
        <time>2021-08-19T13:49:22Z</time>
      </trkpt>
      <trkpt lat="46.32966" lon="5.88317">
        <ele>1167</ele>
        <time>2021-08-19T13:49:23Z</time>
      </trkpt>
      <trkpt lat="46.32968" lon="5.88318">
        <ele>1167.2</ele>
        <time>2021-08-19T13:49:24Z</time>
      </trkpt>
      <trkpt lat="46.32971" lon="5.88318">
        <ele>1167.4</ele>
        <time>2021-08-19T13:49:26Z</time>
      </trkpt>
      <trkpt lat="46.32973" lon="5.88315">
        <ele>1167.6</ele>
        <time>2021-08-19T13:49:27Z</time>
      </trkpt>
      <trkpt lat="46.32976" lon="5.88314">
        <ele>1167.9</ele>
        <time>2021-08-19T13:49:29Z</time>
      </trkpt>
      <trkpt lat="46.32976" lon="5.88314">
        <ele>1167.9</ele>
        <time>2021-08-19T13:49:30Z</time>
      </trkpt>
      <trkpt lat="46.32978" lon="5.88313">
        <ele>1168.1</ele>
        <time>2021-08-19T13:49:31Z</time>
      </trkpt>
      <trkpt lat="46.3298" lon="5.88311">
        <ele>1168.2</ele>
        <time>2021-08-19T13:49:33Z</time>
      </trkpt>
      <trkpt lat="46.32981" lon="5.88309">
        <ele>1168.4</ele>
        <time>2021-08-19T13:49:34Z</time>
      </trkpt>
      <trkpt lat="46.32983" lon="5.88307">
        <ele>1168.6</ele>
        <time>2021-08-19T13:49:36Z</time>
      </trkpt>
      <trkpt lat="46.32983" lon="5.88306">
        <ele>1168.6</ele>
        <time>2021-08-19T13:49:37Z</time>
      </trkpt>
      <trkpt lat="46.32984" lon="5.88305">
        <ele>1168.7</ele>
        <time>2021-08-19T13:49:38Z</time>
      </trkpt>
      <trkpt lat="46.32986" lon="5.88305">
        <ele>1168.8</ele>
        <time>2021-08-19T13:49:39Z</time>
      </trkpt>
      <trkpt lat="46.32988" lon="5.88304">
        <ele>1169</ele>
        <time>2021-08-19T13:49:40Z</time>
      </trkpt>
      <trkpt lat="46.3299" lon="5.88304">
        <ele>1169.1</ele>
        <time>2021-08-19T13:49:42Z</time>
      </trkpt>
      <trkpt lat="46.32991" lon="5.88302">
        <ele>1169.3</ele>
        <time>2021-08-19T13:49:43Z</time>
      </trkpt>
      <trkpt lat="46.32993" lon="5.88302">
        <ele>1169.4</ele>
        <time>2021-08-19T13:49:44Z</time>
      </trkpt>
      <trkpt lat="46.32995" lon="5.883">
        <ele>1169.6</ele>
        <time>2021-08-19T13:49:45Z</time>
      </trkpt>
      <trkpt lat="46.32995" lon="5.883">
        <ele>1169.6</ele>
        <time>2021-08-19T13:49:46Z</time>
      </trkpt>
      <trkpt lat="46.32996" lon="5.88299">
        <ele>1169.7</ele>
        <time>2021-08-19T13:49:47Z</time>
      </trkpt>
      <trkpt lat="46.32998" lon="5.88299">
        <ele>1169.8</ele>
        <time>2021-08-19T13:49:49Z</time>
      </trkpt>
      <trkpt lat="46.32999" lon="5.88299">
        <ele>1169.9</ele>
        <time>2021-08-19T13:49:50Z</time>
      </trkpt>
      <trkpt lat="46.32999" lon="5.883">
        <ele>1169.9</ele>
        <time>2021-08-19T13:49:52Z</time>
      </trkpt>
      <trkpt lat="46.33002" lon="5.883">
        <ele>1170.1</ele>
        <time>2021-08-19T13:49:53Z</time>
      </trkpt>
      <trkpt lat="46.33004" lon="5.88299">
        <ele>1170.3</ele>
        <time>2021-08-19T13:49:54Z</time>
      </trkpt>
      <trkpt lat="46.33005" lon="5.88299">
        <ele>1170.4</ele>
        <time>2021-08-19T13:49:55Z</time>
      </trkpt>
      <trkpt lat="46.33008" lon="5.883">
        <ele>1170.7</ele>
        <time>2021-08-19T13:49:57Z</time>
      </trkpt>
      <trkpt lat="46.33009" lon="5.883">
        <ele>1170.7</ele>
        <time>2021-08-19T13:49:58Z</time>
      </trkpt>
      <trkpt lat="46.33012" lon="5.88302">
        <ele>1171</ele>
        <time>2021-08-19T13:49:59Z</time>
      </trkpt>
      <trkpt lat="46.33013" lon="5.88303">
        <ele>1171</ele>
        <time>2021-08-19T13:50:00Z</time>
      </trkpt>
      <trkpt lat="46.33015" lon="5.88303">
        <ele>1171.3</ele>
        <time>2021-08-19T13:50:02Z</time>
      </trkpt>
      <trkpt lat="46.33016" lon="5.88303">
        <ele>1171.3</ele>
        <time>2021-08-19T13:50:03Z</time>
      </trkpt>
      <trkpt lat="46.33016" lon="5.88303">
        <ele>1171.3</ele>
        <time>2021-08-19T13:50:05Z</time>
      </trkpt>
      <trkpt lat="46.33016" lon="5.88304">
        <ele>1171.4</ele>
        <time>2021-08-19T13:50:06Z</time>
      </trkpt>
      <trkpt lat="46.33017" lon="5.88304">
        <ele>1171.4</ele>
        <time>2021-08-19T13:50:07Z</time>
      </trkpt>
      <trkpt lat="46.33018" lon="5.88304">
        <ele>1171.5</ele>
        <time>2021-08-19T13:50:09Z</time>
      </trkpt>
      <trkpt lat="46.33019" lon="5.88305">
        <ele>1171.6</ele>
        <time>2021-08-19T13:50:10Z</time>
      </trkpt>
      <trkpt lat="46.3302" lon="5.88306">
        <ele>1171.7</ele>
        <time>2021-08-19T13:50:11Z</time>
      </trkpt>
      <trkpt lat="46.33021" lon="5.88307">
        <ele>1171.7</ele>
        <time>2021-08-19T13:50:12Z</time>
      </trkpt>
      <trkpt lat="46.33026" lon="5.88309">
        <ele>1172.2</ele>
        <time>2021-08-19T13:50:16Z</time>
      </trkpt>
      <trkpt lat="46.33031" lon="5.88309">
        <ele>1172.5</ele>
        <time>2021-08-19T13:50:18Z</time>
      </trkpt>
      <trkpt lat="46.33034" lon="5.88311">
        <ele>1172.9</ele>
        <time>2021-08-19T13:50:19Z</time>
      </trkpt>
      <trkpt lat="46.33037" lon="5.88313">
        <ele>1173.1</ele>
        <time>2021-08-19T13:50:21Z</time>
      </trkpt>
      <trkpt lat="46.3304" lon="5.88313">
        <ele>1173.3</ele>
        <time>2021-08-19T13:50:22Z</time>
      </trkpt>
      <trkpt lat="46.33043" lon="5.88314">
        <ele>1173.6</ele>
        <time>2021-08-19T13:50:23Z</time>
      </trkpt>
      <trkpt lat="46.33044" lon="5.88315">
        <ele>1173.7</ele>
        <time>2021-08-19T13:50:24Z</time>
      </trkpt>
      <trkpt lat="46.33047" lon="5.88316">
        <ele>1173.9</ele>
        <time>2021-08-19T13:50:25Z</time>
      </trkpt>
      <trkpt lat="46.33049" lon="5.88316">
        <ele>1174.1</ele>
        <time>2021-08-19T13:50:26Z</time>
      </trkpt>
      <trkpt lat="46.33052" lon="5.88319">
        <ele>1174.4</ele>
        <time>2021-08-19T13:50:28Z</time>
      </trkpt>
      <trkpt lat="46.33053" lon="5.8832">
        <ele>1174.5</ele>
        <time>2021-08-19T13:50:29Z</time>
      </trkpt>
      <trkpt lat="46.33056" lon="5.88321">
        <ele>1174.8</ele>
        <time>2021-08-19T13:50:30Z</time>
      </trkpt>
      <trkpt lat="46.33059" lon="5.88321">
        <ele>1175</ele>
        <time>2021-08-19T13:50:32Z</time>
      </trkpt>
      <trkpt lat="46.33061" lon="5.88322">
        <ele>1175.1</ele>
        <time>2021-08-19T13:50:33Z</time>
      </trkpt>
      <trkpt lat="46.33062" lon="5.88321">
        <ele>1175.3</ele>
        <time>2021-08-19T13:50:34Z</time>
      </trkpt>
      <trkpt lat="46.33066" lon="5.8832">
        <ele>1175.6</ele>
        <time>2021-08-19T13:50:36Z</time>
      </trkpt>
      <trkpt lat="46.33068" lon="5.8832">
        <ele>1175.7</ele>
        <time>2021-08-19T13:50:37Z</time>
      </trkpt>
      <trkpt lat="46.33071" lon="5.88319">
        <ele>1176</ele>
        <time>2021-08-19T13:50:39Z</time>
      </trkpt>
      <trkpt lat="46.33075" lon="5.88318">
        <ele>1176.4</ele>
        <time>2021-08-19T13:50:41Z</time>
      </trkpt>
      <trkpt lat="46.3308" lon="5.88316">
        <ele>1176.9</ele>
        <time>2021-08-19T13:50:43Z</time>
      </trkpt>
      <trkpt lat="46.33085" lon="5.88312">
        <ele>1177.3</ele>
        <time>2021-08-19T13:50:45Z</time>
      </trkpt>
      <trkpt lat="46.33087" lon="5.88309">
        <ele>1177.6</ele>
        <time>2021-08-19T13:50:46Z</time>
      </trkpt>
      <trkpt lat="46.3309" lon="5.88306">
        <ele>1177.8</ele>
        <time>2021-08-19T13:50:48Z</time>
      </trkpt>
      <trkpt lat="46.33092" lon="5.88305">
        <ele>1178</ele>
        <time>2021-08-19T13:50:49Z</time>
      </trkpt>
      <trkpt lat="46.33094" lon="5.88304">
        <ele>1178.2</ele>
        <time>2021-08-19T13:50:51Z</time>
      </trkpt>
      <trkpt lat="46.33095" lon="5.88301">
        <ele>1178.3</ele>
        <time>2021-08-19T13:50:52Z</time>
      </trkpt>
      <trkpt lat="46.33095" lon="5.88299">
        <ele>1178.5</ele>
        <time>2021-08-19T13:50:54Z</time>
      </trkpt>
      <trkpt lat="46.33096" lon="5.88297">
        <ele>1178.6</ele>
        <time>2021-08-19T13:50:55Z</time>
      </trkpt>
      <trkpt lat="46.33097" lon="5.88295">
        <ele>1178.7</ele>
        <time>2021-08-19T13:50:56Z</time>
      </trkpt>
      <trkpt lat="46.331" lon="5.88292">
        <ele>1179</ele>
        <time>2021-08-19T13:50:58Z</time>
      </trkpt>
      <trkpt lat="46.33101" lon="5.88291">
        <ele>1179.1</ele>
        <time>2021-08-19T13:50:59Z</time>
      </trkpt>
      <trkpt lat="46.33104" lon="5.88288">
        <ele>1179.4</ele>
        <time>2021-08-19T13:51:01Z</time>
      </trkpt>
      <trkpt lat="46.33105" lon="5.88288">
        <ele>1179.5</ele>
        <time>2021-08-19T13:51:02Z</time>
      </trkpt>
      <trkpt lat="46.33109" lon="5.88287">
        <ele>1179.7</ele>
        <time>2021-08-19T13:51:04Z</time>
      </trkpt>
      <trkpt lat="46.3311" lon="5.88287">
        <ele>1179.8</ele>
        <time>2021-08-19T13:51:05Z</time>
      </trkpt>
      <trkpt lat="46.33112" lon="5.88286">
        <ele>1180</ele>
        <time>2021-08-19T13:51:07Z</time>
      </trkpt>
      <trkpt lat="46.33114" lon="5.88284">
        <ele>1180.2</ele>
        <time>2021-08-19T13:51:09Z</time>
      </trkpt>
      <trkpt lat="46.33115" lon="5.88283">
        <ele>1180.2</ele>
        <time>2021-08-19T13:51:11Z</time>
      </trkpt>
      <trkpt lat="46.33116" lon="5.88283">
        <ele>1180.3</ele>
        <time>2021-08-19T13:51:12Z</time>
      </trkpt>
      <trkpt lat="46.33118" lon="5.88282">
        <ele>1180.4</ele>
        <time>2021-08-19T13:51:13Z</time>
      </trkpt>
      <trkpt lat="46.33121" lon="5.88281">
        <ele>1180.7</ele>
        <time>2021-08-19T13:51:15Z</time>
      </trkpt>
      <trkpt lat="46.33123" lon="5.88279">
        <ele>1180.9</ele>
        <time>2021-08-19T13:51:17Z</time>
      </trkpt>
      <trkpt lat="46.33124" lon="5.88279">
        <ele>1180.9</ele>
        <time>2021-08-19T13:51:18Z</time>
      </trkpt>
      <trkpt lat="46.33124" lon="5.88278">
        <ele>1181</ele>
        <time>2021-08-19T13:51:19Z</time>
      </trkpt>
      <trkpt lat="46.33127" lon="5.88275">
        <ele>1181.2</ele>
        <time>2021-08-19T13:51:21Z</time>
      </trkpt>
      <trkpt lat="46.33128" lon="5.88274">
        <ele>1181.3</ele>
        <time>2021-08-19T13:51:22Z</time>
      </trkpt>
      <trkpt lat="46.33128" lon="5.88271">
        <ele>1181.5</ele>
        <time>2021-08-19T13:51:24Z</time>
      </trkpt>
      <trkpt lat="46.33129" lon="5.8827">
        <ele>1181.5</ele>
        <time>2021-08-19T13:51:25Z</time>
      </trkpt>
      <trkpt lat="46.3313" lon="5.88268">
        <ele>1181.7</ele>
        <time>2021-08-19T13:51:27Z</time>
      </trkpt>
      <trkpt lat="46.33131" lon="5.88267">
        <ele>1181.8</ele>
        <time>2021-08-19T13:51:28Z</time>
      </trkpt>
      <trkpt lat="46.33132" lon="5.88267">
        <ele>1181.9</ele>
        <time>2021-08-19T13:51:29Z</time>
      </trkpt>
      <trkpt lat="46.33133" lon="5.88267">
        <ele>1182</ele>
        <time>2021-08-19T13:51:30Z</time>
      </trkpt>
      <trkpt lat="46.33134" lon="5.88266">
        <ele>1182</ele>
        <time>2021-08-19T13:51:31Z</time>
      </trkpt>
      <trkpt lat="46.33135" lon="5.88265">
        <ele>1182.2</ele>
        <time>2021-08-19T13:51:33Z</time>
      </trkpt>
      <trkpt lat="46.33136" lon="5.88265">
        <ele>1183.4</ele>
        <time>2021-08-19T13:51:34Z</time>
      </trkpt>
      <trkpt lat="46.33138" lon="5.88265">
        <ele>1183.5</ele>
        <time>2021-08-19T13:51:35Z</time>
      </trkpt>
      <trkpt lat="46.33139" lon="5.88264">
        <ele>1183.6</ele>
        <time>2021-08-19T13:51:36Z</time>
      </trkpt>
      <trkpt lat="46.3314" lon="5.88264">
        <ele>1183.6</ele>
        <time>2021-08-19T13:51:37Z</time>
      </trkpt>
      <trkpt lat="46.33151" lon="5.88254">
        <ele>1184.4</ele>
        <time>2021-08-19T13:51:46Z</time>
      </trkpt>
      <trkpt lat="46.33151" lon="5.88249">
        <ele>1184.5</ele>
        <time>2021-08-19T13:51:47Z</time>
      </trkpt>
      <trkpt lat="46.33154" lon="5.88245">
        <ele>1184.7</ele>
        <time>2021-08-19T13:51:49Z</time>
      </trkpt>
      <trkpt lat="46.33155" lon="5.88244">
        <ele>1184.8</ele>
        <time>2021-08-19T13:51:50Z</time>
      </trkpt>
      <trkpt lat="46.33154" lon="5.88242">
        <ele>1184.9</ele>
        <time>2021-08-19T13:51:52Z</time>
      </trkpt>
      <trkpt lat="46.33152" lon="5.88241">
        <ele>1185</ele>
        <time>2021-08-19T13:51:53Z</time>
      </trkpt>
      <trkpt lat="46.33149" lon="5.8824">
        <ele>1185.1</ele>
        <time>2021-08-19T13:51:54Z</time>
      </trkpt>
      <trkpt lat="46.33148" lon="5.8824">
        <ele>1185.2</ele>
        <time>2021-08-19T13:51:55Z</time>
      </trkpt>
      <trkpt lat="46.33145" lon="5.8824">
        <ele>1185.3</ele>
        <time>2021-08-19T13:51:57Z</time>
      </trkpt>
      <trkpt lat="46.33143" lon="5.88241">
        <ele>1185.4</ele>
        <time>2021-08-19T13:51:58Z</time>
      </trkpt>
      <trkpt lat="46.3314" lon="5.88243">
        <ele>1185.5</ele>
        <time>2021-08-19T13:52:00Z</time>
      </trkpt>
      <trkpt lat="46.33138" lon="5.88243">
        <ele>1185.6</ele>
        <time>2021-08-19T13:52:01Z</time>
      </trkpt>
      <trkpt lat="46.33134" lon="5.88242">
        <ele>1185.7</ele>
        <time>2021-08-19T13:52:03Z</time>
      </trkpt>
      <trkpt lat="46.33131" lon="5.88244">
        <ele>1185.8</ele>
        <time>2021-08-19T13:52:05Z</time>
      </trkpt>
      <trkpt lat="46.33129" lon="5.88244">
        <ele>1185.9</ele>
        <time>2021-08-19T13:52:06Z</time>
      </trkpt>
      <trkpt lat="46.33128" lon="5.88244">
        <ele>1185.9</ele>
        <time>2021-08-19T13:52:07Z</time>
      </trkpt>
      <trkpt lat="46.33125" lon="5.88243">
        <ele>1186</ele>
        <time>2021-08-19T13:52:09Z</time>
      </trkpt>
      <trkpt lat="46.33123" lon="5.88243">
        <ele>1186.1</ele>
        <time>2021-08-19T13:52:10Z</time>
      </trkpt>
      <trkpt lat="46.33122" lon="5.88241">
        <ele>1186.1</ele>
        <time>2021-08-19T13:52:11Z</time>
      </trkpt>
      <trkpt lat="46.33119" lon="5.88237">
        <ele>1186.2</ele>
        <time>2021-08-19T13:52:13Z</time>
      </trkpt>
      <trkpt lat="46.33117" lon="5.88235">
        <ele>1186.3</ele>
        <time>2021-08-19T13:52:15Z</time>
      </trkpt>
      <trkpt lat="46.33115" lon="5.88236">
        <ele>1186.4</ele>
        <time>2021-08-19T13:52:16Z</time>
      </trkpt>
      <trkpt lat="46.33113" lon="5.88236">
        <ele>1186.4</ele>
        <time>2021-08-19T13:52:18Z</time>
      </trkpt>
      <trkpt lat="46.33111" lon="5.88239">
        <ele>1186.5</ele>
        <time>2021-08-19T13:52:19Z</time>
      </trkpt>
      <trkpt lat="46.33109" lon="5.88237">
        <ele>1186.5</ele>
        <time>2021-08-19T13:52:21Z</time>
      </trkpt>
      <trkpt lat="46.33106" lon="5.88237">
        <ele>1186.6</ele>
        <time>2021-08-19T13:52:22Z</time>
      </trkpt>
      <trkpt lat="46.33105" lon="5.88237">
        <ele>1186.6</ele>
        <time>2021-08-19T13:52:23Z</time>
      </trkpt>
      <trkpt lat="46.33102" lon="5.88234">
        <ele>1186.7</ele>
        <time>2021-08-19T13:52:25Z</time>
      </trkpt>
      <trkpt lat="46.33101" lon="5.88233">
        <ele>1186.7</ele>
        <time>2021-08-19T13:52:26Z</time>
      </trkpt>
      <trkpt lat="46.33101" lon="5.88231">
        <ele>1186.8</ele>
        <time>2021-08-19T13:52:28Z</time>
      </trkpt>
      <trkpt lat="46.33101" lon="5.88231">
        <ele>1186.8</ele>
        <time>2021-08-19T13:52:30Z</time>
      </trkpt>
      <trkpt lat="46.33101" lon="5.88232">
        <ele>1186.8</ele>
        <time>2021-08-19T13:52:32Z</time>
      </trkpt>
      <trkpt lat="46.331" lon="5.88232">
        <ele>1186.8</ele>
        <time>2021-08-19T13:52:34Z</time>
      </trkpt>
      <trkpt lat="46.33099" lon="5.88231">
        <ele>1186.8</ele>
        <time>2021-08-19T13:52:36Z</time>
      </trkpt>
      <trkpt lat="46.33082" lon="5.88225">
        <ele>1187.2</ele>
        <time>2021-08-19T13:52:47Z</time>
      </trkpt>
      <trkpt lat="46.33077" lon="5.88228">
        <ele>1187.3</ele>
        <time>2021-08-19T13:52:49Z</time>
      </trkpt>
      <trkpt lat="46.33071" lon="5.88231">
        <ele>1187.4</ele>
        <time>2021-08-19T13:52:50Z</time>
      </trkpt>
      <trkpt lat="46.33068" lon="5.8823">
        <ele>1187.5</ele>
        <time>2021-08-19T13:52:51Z</time>
      </trkpt>
      <trkpt lat="46.33063" lon="5.88226">
        <ele>1187.6</ele>
        <time>2021-08-19T13:52:53Z</time>
      </trkpt>
      <trkpt lat="46.33061" lon="5.88222">
        <ele>1187.7</ele>
        <time>2021-08-19T13:52:54Z</time>
      </trkpt>
      <trkpt lat="46.33059" lon="5.8822">
        <ele>1187.3</ele>
        <time>2021-08-19T13:52:55Z</time>
      </trkpt>
      <trkpt lat="46.33055" lon="5.88215">
        <ele>1188.2</ele>
        <time>2021-08-19T13:52:57Z</time>
      </trkpt>
      <trkpt lat="46.33052" lon="5.88208">
        <ele>1188.5</ele>
        <time>2021-08-19T13:52:59Z</time>
      </trkpt>
      <trkpt lat="46.33053" lon="5.88202">
        <ele>1189</ele>
        <time>2021-08-19T13:53:01Z</time>
      </trkpt>
      <trkpt lat="46.33053" lon="5.88199">
        <ele>1189.5</ele>
        <time>2021-08-19T13:53:02Z</time>
      </trkpt>
      <trkpt lat="46.33054" lon="5.88198">
        <ele>1189.3</ele>
        <time>2021-08-19T13:53:03Z</time>
      </trkpt>
      <trkpt lat="46.33052" lon="5.88193">
        <ele>1190.5</ele>
        <time>2021-08-19T13:53:05Z</time>
      </trkpt>
      <trkpt lat="46.33052" lon="5.88186">
        <ele>1190.9</ele>
        <time>2021-08-19T13:53:06Z</time>
      </trkpt>
      <trkpt lat="46.33053" lon="5.88178">
        <ele>1191.9</ele>
        <time>2021-08-19T13:53:07Z</time>
      </trkpt>
      <trkpt lat="46.33053" lon="5.8816">
        <ele>1193.7</ele>
        <time>2021-08-19T13:53:09Z</time>
      </trkpt>
      <trkpt lat="46.33052" lon="5.88143">
        <ele>1194.4</ele>
        <time>2021-08-19T13:53:11Z</time>
      </trkpt>
      <trkpt lat="46.3305" lon="5.88135">
        <ele>1194.2</ele>
        <time>2021-08-19T13:53:12Z</time>
      </trkpt>
      <trkpt lat="46.3305" lon="5.88129">
        <ele>1193.9</ele>
        <time>2021-08-19T13:53:13Z</time>
      </trkpt>
      <trkpt lat="46.33048" lon="5.88123">
        <ele>1193.7</ele>
        <time>2021-08-19T13:53:15Z</time>
      </trkpt>
      <trkpt lat="46.33046" lon="5.8812">
        <ele>1193.5</ele>
        <time>2021-08-19T13:53:16Z</time>
      </trkpt>
      <trkpt lat="46.33043" lon="5.88116">
        <ele>1193.3</ele>
        <time>2021-08-19T13:53:17Z</time>
      </trkpt>
      <trkpt lat="46.33039" lon="5.88111">
        <ele>1193.1</ele>
        <time>2021-08-19T13:53:19Z</time>
      </trkpt>
      <trkpt lat="46.33037" lon="5.88106">
        <ele>1192.9</ele>
        <time>2021-08-19T13:53:20Z</time>
      </trkpt>
      <trkpt lat="46.33037" lon="5.88104">
        <ele>1192.8</ele>
        <time>2021-08-19T13:53:21Z</time>
      </trkpt>
      <trkpt lat="46.33036" lon="5.881">
        <ele>1192.6</ele>
        <time>2021-08-19T13:53:22Z</time>
      </trkpt>
      <trkpt lat="46.33035" lon="5.88096">
        <ele>1192.4</ele>
        <time>2021-08-19T13:53:23Z</time>
      </trkpt>
      <trkpt lat="46.33033" lon="5.88091">
        <ele>1192.2</ele>
        <time>2021-08-19T13:53:25Z</time>
      </trkpt>
      <trkpt lat="46.3303" lon="5.88087">
        <ele>1192</ele>
        <time>2021-08-19T13:53:26Z</time>
      </trkpt>
      <trkpt lat="46.33029" lon="5.88086">
        <ele>1191.8</ele>
        <time>2021-08-19T13:53:27Z</time>
      </trkpt>
      <trkpt lat="46.33025" lon="5.88083">
        <ele>1191.6</ele>
        <time>2021-08-19T13:53:28Z</time>
      </trkpt>
      <trkpt lat="46.33023" lon="5.88081">
        <ele>1191.4</ele>
        <time>2021-08-19T13:53:29Z</time>
      </trkpt>
      <trkpt lat="46.33017" lon="5.88076">
        <ele>1191.2</ele>
        <time>2021-08-19T13:53:31Z</time>
      </trkpt>
      <trkpt lat="46.3301" lon="5.88074">
        <ele>1191</ele>
        <time>2021-08-19T13:53:33Z</time>
      </trkpt>
      <trkpt lat="46.33005" lon="5.8807">
        <ele>1190.8</ele>
        <time>2021-08-19T13:53:34Z</time>
      </trkpt>
      <trkpt lat="46.33" lon="5.8807">
        <ele>1190.7</ele>
        <time>2021-08-19T13:53:35Z</time>
      </trkpt>
      <trkpt lat="46.32991" lon="5.88068">
        <ele>1190.7</ele>
        <time>2021-08-19T13:53:37Z</time>
      </trkpt>
      <trkpt lat="46.32987" lon="5.88065">
        <ele>1190.6</ele>
        <time>2021-08-19T13:53:38Z</time>
      </trkpt>
      <trkpt lat="46.32982" lon="5.88061">
        <ele>1190.5</ele>
        <time>2021-08-19T13:53:40Z</time>
      </trkpt>
      <trkpt lat="46.32979" lon="5.88058">
        <ele>1190.3</ele>
        <time>2021-08-19T13:53:41Z</time>
      </trkpt>
      <trkpt lat="46.32977" lon="5.88055">
        <ele>1190.2</ele>
        <time>2021-08-19T13:53:42Z</time>
      </trkpt>
      <trkpt lat="46.32975" lon="5.8805">
        <ele>1190</ele>
        <time>2021-08-19T13:53:43Z</time>
      </trkpt>
      <trkpt lat="46.32975" lon="5.88046">
        <ele>1190</ele>
        <time>2021-08-19T13:53:44Z</time>
      </trkpt>
      <trkpt lat="46.32974" lon="5.88041">
        <ele>1190</ele>
        <time>2021-08-19T13:53:45Z</time>
      </trkpt>
      <trkpt lat="46.32975" lon="5.88036">
        <ele>1190.1</ele>
        <time>2021-08-19T13:53:46Z</time>
      </trkpt>
      <trkpt lat="46.32978" lon="5.88031">
        <ele>1190.1</ele>
        <time>2021-08-19T13:53:48Z</time>
      </trkpt>
      <trkpt lat="46.32985" lon="5.88022">
        <ele>1190.3</ele>
        <time>2021-08-19T13:53:49Z</time>
      </trkpt>
      <trkpt lat="46.32991" lon="5.88011">
        <ele>1190.4</ele>
        <time>2021-08-19T13:53:51Z</time>
      </trkpt>
      <trkpt lat="46.32996" lon="5.88001">
        <ele>1190.7</ele>
        <time>2021-08-19T13:53:53Z</time>
      </trkpt>
      <trkpt lat="46.33" lon="5.87996">
        <ele>1190.8</ele>
        <time>2021-08-19T13:53:55Z</time>
      </trkpt>
      <trkpt lat="46.33003" lon="5.87989">
        <ele>1191</ele>
        <time>2021-08-19T13:53:56Z</time>
      </trkpt>
      <trkpt lat="46.33004" lon="5.87984">
        <ele>1191.1</ele>
        <time>2021-08-19T13:53:58Z</time>
      </trkpt>
      <trkpt lat="46.33006" lon="5.87976">
        <ele>1191.3</ele>
        <time>2021-08-19T13:53:59Z</time>
      </trkpt>
      <trkpt lat="46.33002" lon="5.87976">
        <ele>1191.4</ele>
        <time>2021-08-19T13:54:01Z</time>
      </trkpt>
      <trkpt lat="46.33" lon="5.87973">
        <ele>1191.6</ele>
        <time>2021-08-19T13:54:03Z</time>
      </trkpt>
      <trkpt lat="46.33" lon="5.8797">
        <ele>1191.6</ele>
        <time>2021-08-19T13:54:04Z</time>
      </trkpt>
      <trkpt lat="46.33" lon="5.87968">
        <ele>1191.7</ele>
        <time>2021-08-19T13:54:05Z</time>
      </trkpt>
      <trkpt lat="46.33" lon="5.87964">
        <ele>1191.9</ele>
        <time>2021-08-19T13:54:07Z</time>
      </trkpt>
      <trkpt lat="46.33" lon="5.87962">
        <ele>1191.9</ele>
        <time>2021-08-19T13:54:08Z</time>
      </trkpt>
      <trkpt lat="46.33" lon="5.87959">
        <ele>1192</ele>
        <time>2021-08-19T13:54:10Z</time>
      </trkpt>
      <trkpt lat="46.3294" lon="5.87906">
        <ele>1195.7</ele>
        <time>2021-08-19T13:54:48Z</time>
      </trkpt>
      <trkpt lat="46.32937" lon="5.87903">
        <ele>1195.8</ele>
        <time>2021-08-19T13:54:49Z</time>
      </trkpt>
      <trkpt lat="46.32934" lon="5.87899">
        <ele>1196</ele>
        <time>2021-08-19T13:54:51Z</time>
      </trkpt>
      <trkpt lat="46.32933" lon="5.87898">
        <ele>1196.1</ele>
        <time>2021-08-19T13:54:52Z</time>
      </trkpt>
      <trkpt lat="46.32931" lon="5.87894">
        <ele>1196.2</ele>
        <time>2021-08-19T13:54:54Z</time>
      </trkpt>
      <trkpt lat="46.32928" lon="5.8789">
        <ele>1196.4</ele>
        <time>2021-08-19T13:54:55Z</time>
      </trkpt>
      <trkpt lat="46.32925" lon="5.87887">
        <ele>1196.6</ele>
        <time>2021-08-19T13:54:57Z</time>
      </trkpt>
      <trkpt lat="46.32921" lon="5.87885">
        <ele>1196.8</ele>
        <time>2021-08-19T13:54:58Z</time>
      </trkpt>
      <trkpt lat="46.32915" lon="5.87881">
        <ele>1197.1</ele>
        <time>2021-08-19T13:55:00Z</time>
      </trkpt>
      <trkpt lat="46.3291" lon="5.8788">
        <ele>1197.3</ele>
        <time>2021-08-19T13:55:02Z</time>
      </trkpt>
      <trkpt lat="46.32905" lon="5.87881">
        <ele>1197.6</ele>
        <time>2021-08-19T13:55:03Z</time>
      </trkpt>
      <trkpt lat="46.32903" lon="5.87881">
        <ele>1197.7</ele>
        <time>2021-08-19T13:55:04Z</time>
      </trkpt>
      <trkpt lat="46.32902" lon="5.87881">
        <ele>1197.7</ele>
        <time>2021-08-19T13:55:05Z</time>
      </trkpt>
      <trkpt lat="46.32899" lon="5.87881">
        <ele>1197.9</ele>
        <time>2021-08-19T13:55:07Z</time>
      </trkpt>
      <trkpt lat="46.32896" lon="5.87881">
        <ele>1198.1</ele>
        <time>2021-08-19T13:55:09Z</time>
      </trkpt>
      <trkpt lat="46.32894" lon="5.87881">
        <ele>1198.2</ele>
        <time>2021-08-19T13:55:10Z</time>
      </trkpt>
      <trkpt lat="46.32892" lon="5.87881">
        <ele>1198.3</ele>
        <time>2021-08-19T13:55:12Z</time>
      </trkpt>
      <trkpt lat="46.32892" lon="5.87881">
        <ele>1198.3</ele>
        <time>2021-08-19T13:55:13Z</time>
      </trkpt>
      <trkpt lat="46.32891" lon="5.87881">
        <ele>1198.4</ele>
        <time>2021-08-19T13:55:15Z</time>
      </trkpt>
      <trkpt lat="46.3289" lon="5.87881">
        <ele>1198.4</ele>
        <time>2021-08-19T13:55:16Z</time>
      </trkpt>
      <trkpt lat="46.32888" lon="5.87881">
        <ele>1198.6</ele>
        <time>2021-08-19T13:55:18Z</time>
      </trkpt>
      <trkpt lat="46.32886" lon="5.87881">
        <ele>1198.7</ele>
        <time>2021-08-19T13:55:19Z</time>
      </trkpt>
      <trkpt lat="46.32885" lon="5.87881">
        <ele>1198.8</ele>
        <time>2021-08-19T13:55:21Z</time>
      </trkpt>
      <trkpt lat="46.32779" lon="5.87894">
        <ele>1205</ele>
        <time>2021-08-19T13:56:19Z</time>
      </trkpt>
      <trkpt lat="46.32766" lon="5.87889">
        <ele>1205.2</ele>
        <time>2021-08-19T13:56:21Z</time>
      </trkpt>
      <trkpt lat="46.32753" lon="5.87881">
        <ele>1204.9</ele>
        <time>2021-08-19T13:56:23Z</time>
      </trkpt>
      <trkpt lat="46.32742" lon="5.87873">
        <ele>1204.5</ele>
        <time>2021-08-19T13:56:25Z</time>
      </trkpt>
      <trkpt lat="46.32737" lon="5.87868">
        <ele>1204.3</ele>
        <time>2021-08-19T13:56:26Z</time>
      </trkpt>
      <trkpt lat="46.3273" lon="5.87859">
        <ele>1203.9</ele>
        <time>2021-08-19T13:56:28Z</time>
      </trkpt>
      <trkpt lat="46.32728" lon="5.87856">
        <ele>1203.8</ele>
        <time>2021-08-19T13:56:29Z</time>
      </trkpt>
      <trkpt lat="46.32727" lon="5.87852">
        <ele>1203.7</ele>
        <time>2021-08-19T13:56:31Z</time>
      </trkpt>
      <trkpt lat="46.32722" lon="5.87847">
        <ele>1203.6</ele>
        <time>2021-08-19T13:56:32Z</time>
      </trkpt>
      <trkpt lat="46.32716" lon="5.8784">
        <ele>1203.4</ele>
        <time>2021-08-19T13:56:33Z</time>
      </trkpt>
      <trkpt lat="46.32713" lon="5.87836">
        <ele>1203.4</ele>
        <time>2021-08-19T13:56:34Z</time>
      </trkpt>
      <trkpt lat="46.32708" lon="5.8783">
        <ele>1203.3</ele>
        <time>2021-08-19T13:56:36Z</time>
      </trkpt>
      <trkpt lat="46.32703" lon="5.87827">
        <ele>1203.3</ele>
        <time>2021-08-19T13:56:37Z</time>
      </trkpt>
      <trkpt lat="46.32697" lon="5.87822">
        <ele>1203.2</ele>
        <time>2021-08-19T13:56:39Z</time>
      </trkpt>
      <trkpt lat="46.3269" lon="5.87818">
        <ele>1203.2</ele>
        <time>2021-08-19T13:56:41Z</time>
      </trkpt>
      <trkpt lat="46.32686" lon="5.87818">
        <ele>1203.2</ele>
        <time>2021-08-19T13:56:42Z</time>
      </trkpt>
      <trkpt lat="46.32679" lon="5.8782">
        <ele>1203.2</ele>
        <time>2021-08-19T13:56:44Z</time>
      </trkpt>
      <trkpt lat="46.3267" lon="5.87822">
        <ele>1203.2</ele>
        <time>2021-08-19T13:56:45Z</time>
      </trkpt>
      <trkpt lat="46.32656" lon="5.87821">
        <ele>1203.2</ele>
        <time>2021-08-19T13:56:47Z</time>
      </trkpt>
      <trkpt lat="46.3265" lon="5.87821">
        <ele>1203.2</ele>
        <time>2021-08-19T13:56:48Z</time>
      </trkpt>
      <trkpt lat="46.32645" lon="5.8782">
        <ele>1203.2</ele>
        <time>2021-08-19T13:56:49Z</time>
      </trkpt>
      <trkpt lat="46.32634" lon="5.8782">
        <ele>1203.1</ele>
        <time>2021-08-19T13:56:51Z</time>
      </trkpt>
      <trkpt lat="46.32629" lon="5.87818">
        <ele>1203.1</ele>
        <time>2021-08-19T13:56:52Z</time>
      </trkpt>
      <trkpt lat="46.32625" lon="5.87817">
        <ele>1203.2</ele>
        <time>2021-08-19T13:56:53Z</time>
      </trkpt>
      <trkpt lat="46.32615" lon="5.87815">
        <ele>1203.3</ele>
        <time>2021-08-19T13:56:55Z</time>
      </trkpt>
      <trkpt lat="46.32607" lon="5.8781">
        <ele>1203.4</ele>
        <time>2021-08-19T13:56:57Z</time>
      </trkpt>
      <trkpt lat="46.32603" lon="5.87807">
        <ele>1203.4</ele>
        <time>2021-08-19T13:56:58Z</time>
      </trkpt>
      <trkpt lat="46.32598" lon="5.87804">
        <ele>1203.5</ele>
        <time>2021-08-19T13:56:59Z</time>
      </trkpt>
      <trkpt lat="46.32588" lon="5.87801">
        <ele>1203.5</ele>
        <time>2021-08-19T13:57:01Z</time>
      </trkpt>
      <trkpt lat="46.32581" lon="5.87797">
        <ele>1203.5</ele>
        <time>2021-08-19T13:57:03Z</time>
      </trkpt>
      <trkpt lat="46.32572" lon="5.87798">
        <ele>1203.5</ele>
        <time>2021-08-19T13:57:04Z</time>
      </trkpt>
      <trkpt lat="46.32565" lon="5.87799">
        <ele>1203.5</ele>
        <time>2021-08-19T13:57:05Z</time>
      </trkpt>
      <trkpt lat="46.32553" lon="5.87804">
        <ele>1203.4</ele>
        <time>2021-08-19T13:57:07Z</time>
      </trkpt>
      <trkpt lat="46.32543" lon="5.87815">
        <ele>1203.2</ele>
        <time>2021-08-19T13:57:09Z</time>
      </trkpt>
      <trkpt lat="46.32539" lon="5.87818">
        <ele>1203.2</ele>
        <time>2021-08-19T13:57:10Z</time>
      </trkpt>
      <trkpt lat="46.32537" lon="5.87821">
        <ele>1203.2</ele>
        <time>2021-08-19T13:57:11Z</time>
      </trkpt>
      <trkpt lat="46.32536" lon="5.87827">
        <ele>1203.2</ele>
        <time>2021-08-19T13:57:13Z</time>
      </trkpt>
      <trkpt lat="46.32534" lon="5.87831">
        <ele>1203.3</ele>
        <time>2021-08-19T13:57:14Z</time>
      </trkpt>
      <trkpt lat="46.32531" lon="5.87833">
        <ele>1203.3</ele>
        <time>2021-08-19T13:57:16Z</time>
      </trkpt>
      <trkpt lat="46.32529" lon="5.87836">
        <ele>1203.4</ele>
        <time>2021-08-19T13:57:17Z</time>
      </trkpt>
      <trkpt lat="46.32527" lon="5.8784">
        <ele>1203.5</ele>
        <time>2021-08-19T13:57:18Z</time>
      </trkpt>
      <trkpt lat="46.32524" lon="5.87842">
        <ele>1203.6</ele>
        <time>2021-08-19T13:57:19Z</time>
      </trkpt>
      <trkpt lat="46.32523" lon="5.87843">
        <ele>1203.7</ele>
        <time>2021-08-19T13:57:20Z</time>
      </trkpt>
      <trkpt lat="46.32522" lon="5.87843">
        <ele>1203.7</ele>
        <time>2021-08-19T13:57:22Z</time>
      </trkpt>
      <trkpt lat="46.32521" lon="5.87843">
        <ele>1203.8</ele>
        <time>2021-08-19T13:57:23Z</time>
      </trkpt>
      <trkpt lat="46.3252" lon="5.87844">
        <ele>1203.8</ele>
        <time>2021-08-19T13:57:24Z</time>
      </trkpt>
      <trkpt lat="46.32513" lon="5.87847">
        <ele>1204.1</ele>
        <time>2021-08-19T13:57:26Z</time>
      </trkpt>
      <trkpt lat="46.32509" lon="5.8785">
        <ele>1204.3</ele>
        <time>2021-08-19T13:57:28Z</time>
      </trkpt>
      <trkpt lat="46.32506" lon="5.87854">
        <ele>1204.4</ele>
        <time>2021-08-19T13:57:29Z</time>
      </trkpt>
      <trkpt lat="46.32502" lon="5.8786">
        <ele>1204.6</ele>
        <time>2021-08-19T13:57:31Z</time>
      </trkpt>
      <trkpt lat="46.32499" lon="5.87866">
        <ele>1204.7</ele>
        <time>2021-08-19T13:57:33Z</time>
      </trkpt>
      <trkpt lat="46.32498" lon="5.87869">
        <ele>1204.8</ele>
        <time>2021-08-19T13:57:34Z</time>
      </trkpt>
      <trkpt lat="46.32495" lon="5.8787">
        <ele>1204.8</ele>
        <time>2021-08-19T13:57:35Z</time>
      </trkpt>
      <trkpt lat="46.32492" lon="5.87872">
        <ele>1204.8</ele>
        <time>2021-08-19T13:57:36Z</time>
      </trkpt>
      <trkpt lat="46.3249" lon="5.87873">
        <ele>1204.9</ele>
        <time>2021-08-19T13:57:37Z</time>
      </trkpt>
      <trkpt lat="46.32488" lon="5.87876">
        <ele>1204.9</ele>
        <time>2021-08-19T13:57:39Z</time>
      </trkpt>
      <trkpt lat="46.32486" lon="5.87879">
        <ele>1204.9</ele>
        <time>2021-08-19T13:57:40Z</time>
      </trkpt>
      <trkpt lat="46.32481" lon="5.87883">
        <ele>1205</ele>
        <time>2021-08-19T13:57:41Z</time>
      </trkpt>
      <trkpt lat="46.32475" lon="5.87888">
        <ele>1205</ele>
        <time>2021-08-19T13:57:43Z</time>
      </trkpt>
      <trkpt lat="46.3247" lon="5.8789">
        <ele>1205.1</ele>
        <time>2021-08-19T13:57:45Z</time>
      </trkpt>
      <trkpt lat="46.32465" lon="5.87891">
        <ele>1205.2</ele>
        <time>2021-08-19T13:57:47Z</time>
      </trkpt>
      <trkpt lat="46.32462" lon="5.87892">
        <ele>1205.2</ele>
        <time>2021-08-19T13:57:48Z</time>
      </trkpt>
      <trkpt lat="46.32458" lon="5.87893">
        <ele>1205.3</ele>
        <time>2021-08-19T13:57:50Z</time>
      </trkpt>
      <trkpt lat="46.32454" lon="5.87894">
        <ele>1205.3</ele>
        <time>2021-08-19T13:57:52Z</time>
      </trkpt>
      <trkpt lat="46.3245" lon="5.87896">
        <ele>1205.4</ele>
        <time>2021-08-19T13:57:54Z</time>
      </trkpt>
      <trkpt lat="46.32447" lon="5.87898">
        <ele>1205.5</ele>
        <time>2021-08-19T13:57:55Z</time>
      </trkpt>
      <trkpt lat="46.32445" lon="5.87899">
        <ele>1205.6</ele>
        <time>2021-08-19T13:57:56Z</time>
      </trkpt>
      <trkpt lat="46.32443" lon="5.87901">
        <ele>1205.6</ele>
        <time>2021-08-19T13:57:58Z</time>
      </trkpt>
      <trkpt lat="46.3244" lon="5.87902">
        <ele>1205.7</ele>
        <time>2021-08-19T13:57:59Z</time>
      </trkpt>
      <trkpt lat="46.32435" lon="5.87905">
        <ele>1205.9</ele>
        <time>2021-08-19T13:58:01Z</time>
      </trkpt>
      <trkpt lat="46.32431" lon="5.87909">
        <ele>1206.1</ele>
        <time>2021-08-19T13:58:03Z</time>
      </trkpt>
      <trkpt lat="46.32428" lon="5.87911">
        <ele>1206.2</ele>
        <time>2021-08-19T13:58:04Z</time>
      </trkpt>
      <trkpt lat="46.32425" lon="5.87913">
        <ele>1206.3</ele>
        <time>2021-08-19T13:58:06Z</time>
      </trkpt>
      <trkpt lat="46.32423" lon="5.87913">
        <ele>1206.4</ele>
        <time>2021-08-19T13:58:07Z</time>
      </trkpt>
      <trkpt lat="46.32419" lon="5.87914">
        <ele>1206.6</ele>
        <time>2021-08-19T13:58:09Z</time>
      </trkpt>
      <trkpt lat="46.32416" lon="5.87914">
        <ele>1206.7</ele>
        <time>2021-08-19T13:58:10Z</time>
      </trkpt>
      <trkpt lat="46.32415" lon="5.87914">
        <ele>1206.8</ele>
        <time>2021-08-19T13:58:11Z</time>
      </trkpt>
      <trkpt lat="46.32413" lon="5.87913">
        <ele>1206.8</ele>
        <time>2021-08-19T13:58:12Z</time>
      </trkpt>
      <trkpt lat="46.3241" lon="5.87912">
        <ele>1207</ele>
        <time>2021-08-19T13:58:14Z</time>
      </trkpt>
      <trkpt lat="46.32408" lon="5.87912">
        <ele>1207</ele>
        <time>2021-08-19T13:58:15Z</time>
      </trkpt>
      <trkpt lat="46.32406" lon="5.87912">
        <ele>1207.1</ele>
        <time>2021-08-19T13:58:16Z</time>
      </trkpt>
      <trkpt lat="46.32404" lon="5.87911">
        <ele>1207.2</ele>
        <time>2021-08-19T13:58:17Z</time>
      </trkpt>
      <trkpt lat="46.32403" lon="5.8791">
        <ele>1207.2</ele>
        <time>2021-08-19T13:58:18Z</time>
      </trkpt>
      <trkpt lat="46.324" lon="5.87909">
        <ele>1207.3</ele>
        <time>2021-08-19T13:58:20Z</time>
      </trkpt>
      <trkpt lat="46.32397" lon="5.87907">
        <ele>1207.4</ele>
        <time>2021-08-19T13:58:21Z</time>
      </trkpt>
      <trkpt lat="46.32398" lon="5.87907">
        <ele>1207.4</ele>
        <time>2021-08-19T13:58:23Z</time>
      </trkpt>
      <trkpt lat="46.32398" lon="5.87907">
        <ele>1207.4</ele>
        <time>2021-08-19T13:58:24Z</time>
      </trkpt>
      <trkpt lat="46.32398" lon="5.87908">
        <ele>1207.4</ele>
        <time>2021-08-19T13:58:25Z</time>
      </trkpt>
      <trkpt lat="46.32398" lon="5.87908">
        <ele>1207.4</ele>
        <time>2021-08-19T13:58:27Z</time>
      </trkpt>
      <trkpt lat="46.32398" lon="5.87908">
        <ele>1207.4</ele>
        <time>2021-08-19T13:58:29Z</time>
      </trkpt>
      <trkpt lat="46.32398" lon="5.87908">
        <ele>1207.4</ele>
        <time>2021-08-19T13:58:30Z</time>
      </trkpt>
      <trkpt lat="46.32398" lon="5.87908">
        <ele>1207.4</ele>
        <time>2021-08-19T13:58:31Z</time>
      </trkpt>
      <trkpt lat="46.32375" lon="5.87901">
        <ele>1208.1</ele>
        <time>2021-08-19T13:59:00Z</time>
      </trkpt>
      <trkpt lat="46.32367" lon="5.87898">
        <ele>1208.2</ele>
        <time>2021-08-19T13:59:02Z</time>
      </trkpt>
      <trkpt lat="46.32361" lon="5.87897">
        <ele>1208.3</ele>
        <time>2021-08-19T13:59:03Z</time>
      </trkpt>
      <trkpt lat="46.32353" lon="5.87894">
        <ele>1208.3</ele>
        <time>2021-08-19T13:59:05Z</time>
      </trkpt>
      <trkpt lat="46.32346" lon="5.87889">
        <ele>1208.1</ele>
        <time>2021-08-19T13:59:07Z</time>
      </trkpt>
      <trkpt lat="46.32344" lon="5.87886">
        <ele>1208</ele>
        <time>2021-08-19T13:59:08Z</time>
      </trkpt>
      <trkpt lat="46.32342" lon="5.87882">
        <ele>1207.9</ele>
        <time>2021-08-19T13:59:10Z</time>
      </trkpt>
      <trkpt lat="46.3234" lon="5.87877">
        <ele>1207.8</ele>
        <time>2021-08-19T13:59:11Z</time>
      </trkpt>
      <trkpt lat="46.32339" lon="5.87875">
        <ele>1207.8</ele>
        <time>2021-08-19T13:59:12Z</time>
      </trkpt>
      <trkpt lat="46.32337" lon="5.87872">
        <ele>1207.7</ele>
        <time>2021-08-19T13:59:13Z</time>
      </trkpt>
      <trkpt lat="46.32334" lon="5.87868">
        <ele>1207.6</ele>
        <time>2021-08-19T13:59:15Z</time>
      </trkpt>
      <trkpt lat="46.32331" lon="5.87865">
        <ele>1207.5</ele>
        <time>2021-08-19T13:59:16Z</time>
      </trkpt>
      <trkpt lat="46.32329" lon="5.87862">
        <ele>1207.4</ele>
        <time>2021-08-19T13:59:17Z</time>
      </trkpt>
      <trkpt lat="46.32326" lon="5.8786">
        <ele>1207.4</ele>
        <time>2021-08-19T13:59:18Z</time>
      </trkpt>
      <trkpt lat="46.32323" lon="5.87857">
        <ele>1207.3</ele>
        <time>2021-08-19T13:59:19Z</time>
      </trkpt>
      <trkpt lat="46.32321" lon="5.87857">
        <ele>1207.3</ele>
        <time>2021-08-19T13:59:20Z</time>
      </trkpt>
      <trkpt lat="46.32317" lon="5.87855">
        <ele>1207.3</ele>
        <time>2021-08-19T13:59:22Z</time>
      </trkpt>
      <trkpt lat="46.32314" lon="5.87851">
        <ele>1207.2</ele>
        <time>2021-08-19T13:59:23Z</time>
      </trkpt>
      <trkpt lat="46.3231" lon="5.87844">
        <ele>1207</ele>
        <time>2021-08-19T13:59:25Z</time>
      </trkpt>
      <trkpt lat="46.32307" lon="5.8784">
        <ele>1206.9</ele>
        <time>2021-08-19T13:59:26Z</time>
      </trkpt>
      <trkpt lat="46.32305" lon="5.87836">
        <ele>1206.8</ele>
        <time>2021-08-19T13:59:27Z</time>
      </trkpt>
      <trkpt lat="46.32302" lon="5.87832">
        <ele>1206.7</ele>
        <time>2021-08-19T13:59:28Z</time>
      </trkpt>
      <trkpt lat="46.32297" lon="5.87827">
        <ele>1206.6</ele>
        <time>2021-08-19T13:59:30Z</time>
      </trkpt>
      <trkpt lat="46.32292" lon="5.87824">
        <ele>1206.5</ele>
        <time>2021-08-19T13:59:31Z</time>
      </trkpt>
      <trkpt lat="46.32287" lon="5.87822">
        <ele>1206.3</ele>
        <time>2021-08-19T13:59:32Z</time>
      </trkpt>
      <trkpt lat="46.32281" lon="5.87819">
        <ele>1206.2</ele>
        <time>2021-08-19T13:59:34Z</time>
      </trkpt>
      <trkpt lat="46.32276" lon="5.87816">
        <ele>1206</ele>
        <time>2021-08-19T13:59:35Z</time>
      </trkpt>
      <trkpt lat="46.3227" lon="5.87813">
        <ele>1205.8</ele>
        <time>2021-08-19T13:59:36Z</time>
      </trkpt>
      <trkpt lat="46.32261" lon="5.87808">
        <ele>1205.4</ele>
        <time>2021-08-19T13:59:38Z</time>
      </trkpt>
      <trkpt lat="46.32255" lon="5.87804">
        <ele>1205.2</ele>
        <time>2021-08-19T13:59:40Z</time>
      </trkpt>
      <trkpt lat="46.32249" lon="5.878">
        <ele>1204.9</ele>
        <time>2021-08-19T13:59:41Z</time>
      </trkpt>
      <trkpt lat="46.32246" lon="5.87794">
        <ele>1204.7</ele>
        <time>2021-08-19T13:59:43Z</time>
      </trkpt>
      <trkpt lat="46.32241" lon="5.87782">
        <ele>1204.3</ele>
        <time>2021-08-19T13:59:44Z</time>
      </trkpt>
      <trkpt lat="46.32234" lon="5.87773">
        <ele>1203.9</ele>
        <time>2021-08-19T13:59:46Z</time>
      </trkpt>
      <trkpt lat="46.3223" lon="5.87769">
        <ele>1203.7</ele>
        <time>2021-08-19T13:59:47Z</time>
      </trkpt>
      <trkpt lat="46.32226" lon="5.87766">
        <ele>1203.5</ele>
        <time>2021-08-19T13:59:48Z</time>
      </trkpt>
      <trkpt lat="46.32218" lon="5.87762">
        <ele>1203</ele>
        <time>2021-08-19T13:59:50Z</time>
      </trkpt>
      <trkpt lat="46.32213" lon="5.87757">
        <ele>1202.6</ele>
        <time>2021-08-19T13:59:52Z</time>
      </trkpt>
      <trkpt lat="46.32209" lon="5.8775">
        <ele>1202.2</ele>
        <time>2021-08-19T13:59:54Z</time>
      </trkpt>
      <trkpt lat="46.32207" lon="5.87747">
        <ele>1202</ele>
        <time>2021-08-19T13:59:55Z</time>
      </trkpt>
      <trkpt lat="46.32201" lon="5.87741">
        <ele>1201.5</ele>
        <time>2021-08-19T13:59:57Z</time>
      </trkpt>
      <trkpt lat="46.32196" lon="5.87739">
        <ele>1201.2</ele>
        <time>2021-08-19T13:59:58Z</time>
      </trkpt>
      <trkpt lat="46.32191" lon="5.87737">
        <ele>1200.9</ele>
        <time>2021-08-19T14:00:00Z</time>
      </trkpt>
      <trkpt lat="46.32188" lon="5.87737">
        <ele>1200.8</ele>
        <time>2021-08-19T14:00:01Z</time>
      </trkpt>
      <trkpt lat="46.32183" lon="5.87742">
        <ele>1200.6</ele>
        <time>2021-08-19T14:00:03Z</time>
      </trkpt>
      <trkpt lat="46.32182" lon="5.87745">
        <ele>1200.5</ele>
        <time>2021-08-19T14:00:04Z</time>
      </trkpt>
      <trkpt lat="46.32179" lon="5.87747">
        <ele>1200.4</ele>
        <time>2021-08-19T14:00:06Z</time>
      </trkpt>
      <trkpt lat="46.32178" lon="5.87746">
        <ele>1200.4</ele>
        <time>2021-08-19T14:00:07Z</time>
      </trkpt>
      <trkpt lat="46.32177" lon="5.87745">
        <ele>1200.4</ele>
        <time>2021-08-19T14:00:09Z</time>
      </trkpt>
      <trkpt lat="46.32176" lon="5.87745">
        <ele>1200.3</ele>
        <time>2021-08-19T14:00:10Z</time>
      </trkpt>
      <trkpt lat="46.32176" lon="5.87743">
        <ele>1200.3</ele>
        <time>2021-08-19T14:00:12Z</time>
      </trkpt>
      <trkpt lat="46.32146" lon="5.87716">
        <ele>1200</ele>
        <time>2021-08-19T14:00:39Z</time>
      </trkpt>
      <trkpt lat="46.32143" lon="5.8771">
        <ele>1200.1</ele>
        <time>2021-08-19T14:00:41Z</time>
      </trkpt>
      <trkpt lat="46.3214" lon="5.87703">
        <ele>1200.1</ele>
        <time>2021-08-19T14:00:42Z</time>
      </trkpt>
      <trkpt lat="46.32135" lon="5.87696">
        <ele>1200.2</ele>
        <time>2021-08-19T14:00:44Z</time>
      </trkpt>
      <trkpt lat="46.32129" lon="5.87689">
        <ele>1200.4</ele>
        <time>2021-08-19T14:00:45Z</time>
      </trkpt>
      <trkpt lat="46.3212" lon="5.87682">
        <ele>1200.7</ele>
        <time>2021-08-19T14:00:47Z</time>
      </trkpt>
      <trkpt lat="46.32113" lon="5.87679">
        <ele>1201.1</ele>
        <time>2021-08-19T14:00:48Z</time>
      </trkpt>
      <trkpt lat="46.32105" lon="5.87677">
        <ele>1201.6</ele>
        <time>2021-08-19T14:00:50Z</time>
      </trkpt>
      <trkpt lat="46.32102" lon="5.87675">
        <ele>1201.9</ele>
        <time>2021-08-19T14:00:51Z</time>
      </trkpt>
      <trkpt lat="46.32099" lon="5.87671">
        <ele>1202.2</ele>
        <time>2021-08-19T14:00:53Z</time>
      </trkpt>
      <trkpt lat="46.32099" lon="5.8767">
        <ele>1202.3</ele>
        <time>2021-08-19T14:00:54Z</time>
      </trkpt>
      <trkpt lat="46.32099" lon="5.87665">
        <ele>1202.6</ele>
        <time>2021-08-19T14:00:56Z</time>
      </trkpt>
      <trkpt lat="46.32098" lon="5.87663">
        <ele>1202.7</ele>
        <time>2021-08-19T14:00:57Z</time>
      </trkpt>
      <trkpt lat="46.32097" lon="5.8766">
        <ele>1202.9</ele>
        <time>2021-08-19T14:00:58Z</time>
      </trkpt>
      <trkpt lat="46.32092" lon="5.87651">
        <ele>1203.5</ele>
        <time>2021-08-19T14:01:00Z</time>
      </trkpt>
      <trkpt lat="46.32089" lon="5.87647">
        <ele>1203.8</ele>
        <time>2021-08-19T14:01:02Z</time>
      </trkpt>
      <trkpt lat="46.32086" lon="5.87645">
        <ele>1204</ele>
        <time>2021-08-19T14:01:03Z</time>
      </trkpt>
      <trkpt lat="46.32083" lon="5.87642">
        <ele>1204.3</ele>
        <time>2021-08-19T14:01:04Z</time>
      </trkpt>
      <trkpt lat="46.3208" lon="5.87641">
        <ele>1204.5</ele>
        <time>2021-08-19T14:01:06Z</time>
      </trkpt>
      <trkpt lat="46.3208" lon="5.8764">
        <ele>1204.5</ele>
        <time>2021-08-19T14:01:07Z</time>
      </trkpt>
      <trkpt lat="46.3208" lon="5.87639">
        <ele>1204.6</ele>
        <time>2021-08-19T14:01:08Z</time>
      </trkpt>
      <trkpt lat="46.32079" lon="5.87639">
        <ele>1204.6</ele>
        <time>2021-08-19T14:01:09Z</time>
      </trkpt>
      <trkpt lat="46.32078" lon="5.87638">
        <ele>1204.7</ele>
        <time>2021-08-19T14:01:11Z</time>
      </trkpt>
      <trkpt lat="46.32076" lon="5.87638">
        <ele>1204.8</ele>
        <time>2021-08-19T14:01:12Z</time>
      </trkpt>
      <trkpt lat="46.32072" lon="5.87638">
        <ele>1205.1</ele>
        <time>2021-08-19T14:01:14Z</time>
      </trkpt>
      <trkpt lat="46.31999" lon="5.8752">
        <ele>1209.3</ele>
        <time>2021-08-19T14:02:21Z</time>
      </trkpt>
      <trkpt lat="46.31988" lon="5.87521">
        <ele>1209.7</ele>
        <time>2021-08-19T14:02:22Z</time>
      </trkpt>
      <trkpt lat="46.31984" lon="5.87521">
        <ele>1209.9</ele>
        <time>2021-08-19T14:02:23Z</time>
      </trkpt>
      <trkpt lat="46.31981" lon="5.87521">
        <ele>1210</ele>
        <time>2021-08-19T14:02:25Z</time>
      </trkpt>
      <trkpt lat="46.31977" lon="5.87521">
        <ele>1210.1</ele>
        <time>2021-08-19T14:02:26Z</time>
      </trkpt>
      <trkpt lat="46.31977" lon="5.87521">
        <ele>1210.1</ele>
        <time>2021-08-19T14:02:27Z</time>
      </trkpt>
      <trkpt lat="46.31976" lon="5.8752">
        <ele>1210.2</ele>
        <time>2021-08-19T14:02:28Z</time>
      </trkpt>
      <trkpt lat="46.31975" lon="5.8752">
        <ele>1210.2</ele>
        <time>2021-08-19T14:02:29Z</time>
      </trkpt>
      <trkpt lat="46.31974" lon="5.87519">
        <ele>1210.2</ele>
        <time>2021-08-19T14:02:31Z</time>
      </trkpt>
      <trkpt lat="46.31972" lon="5.87519">
        <ele>1210.3</ele>
        <time>2021-08-19T14:02:32Z</time>
      </trkpt>
      <trkpt lat="46.31971" lon="5.87518">
        <ele>1210.3</ele>
        <time>2021-08-19T14:02:33Z</time>
      </trkpt>
      <trkpt lat="46.3197" lon="5.87517">
        <ele>1210.3</ele>
        <time>2021-08-19T14:02:34Z</time>
      </trkpt>
      <trkpt lat="46.3197" lon="5.87516">
        <ele>1210.4</ele>
        <time>2021-08-19T14:02:35Z</time>
      </trkpt>
      <trkpt lat="46.31954" lon="5.87497">
        <ele>1211</ele>
        <time>2021-08-19T14:02:48Z</time>
      </trkpt>
      <trkpt lat="46.31945" lon="5.87493">
        <ele>1211.2</ele>
        <time>2021-08-19T14:02:50Z</time>
      </trkpt>
      <trkpt lat="46.31936" lon="5.8749">
        <ele>1211.3</ele>
        <time>2021-08-19T14:02:52Z</time>
      </trkpt>
      <trkpt lat="46.3193" lon="5.8749">
        <ele>1211.4</ele>
        <time>2021-08-19T14:02:53Z</time>
      </trkpt>
      <trkpt lat="46.31924" lon="5.87489">
        <ele>1211.4</ele>
        <time>2021-08-19T14:02:54Z</time>
      </trkpt>
      <trkpt lat="46.31919" lon="5.87487">
        <ele>1211.3</ele>
        <time>2021-08-19T14:02:55Z</time>
      </trkpt>
      <trkpt lat="46.31912" lon="5.87485">
        <ele>1211.4</ele>
        <time>2021-08-19T14:02:56Z</time>
      </trkpt>
      <trkpt lat="46.31906" lon="5.87483">
        <ele>1211.4</ele>
        <time>2021-08-19T14:02:58Z</time>
      </trkpt>
      <trkpt lat="46.31901" lon="5.8748">
        <ele>1211.5</ele>
        <time>2021-08-19T14:02:59Z</time>
      </trkpt>
      <trkpt lat="46.31897" lon="5.87472">
        <ele>1211.7</ele>
        <time>2021-08-19T14:03:02Z</time>
      </trkpt>
      <trkpt lat="46.31899" lon="5.87467">
        <ele>1211.8</ele>
        <time>2021-08-19T14:03:03Z</time>
      </trkpt>
      <trkpt lat="46.31899" lon="5.87462">
        <ele>1211.9</ele>
        <time>2021-08-19T14:03:04Z</time>
      </trkpt>
      <trkpt lat="46.31899" lon="5.87459">
        <ele>1211.9</ele>
        <time>2021-08-19T14:03:05Z</time>
      </trkpt>
      <trkpt lat="46.31897" lon="5.87455">
        <ele>1212</ele>
        <time>2021-08-19T14:03:06Z</time>
      </trkpt>
      <trkpt lat="46.31897" lon="5.87454">
        <ele>1212.1</ele>
        <time>2021-08-19T14:03:07Z</time>
      </trkpt>
      <trkpt lat="46.31895" lon="5.87448">
        <ele>1212.2</ele>
        <time>2021-08-19T14:03:09Z</time>
      </trkpt>
      <trkpt lat="46.31895" lon="5.87445">
        <ele>1212.3</ele>
        <time>2021-08-19T14:03:10Z</time>
      </trkpt>
      <trkpt lat="46.31897" lon="5.87436">
        <ele>1212.5</ele>
        <time>2021-08-19T14:03:12Z</time>
      </trkpt>
      <trkpt lat="46.31896" lon="5.87432">
        <ele>1212.6</ele>
        <time>2021-08-19T14:03:13Z</time>
      </trkpt>
      <trkpt lat="46.31896" lon="5.8743">
        <ele>1212.6</ele>
        <time>2021-08-19T14:03:14Z</time>
      </trkpt>
      <trkpt lat="46.31895" lon="5.87428">
        <ele>1212.6</ele>
        <time>2021-08-19T14:03:15Z</time>
      </trkpt>
      <trkpt lat="46.31893" lon="5.87424">
        <ele>1212.7</ele>
        <time>2021-08-19T14:03:17Z</time>
      </trkpt>
      <trkpt lat="46.31893" lon="5.87424">
        <ele>1212.7</ele>
        <time>2021-08-19T14:03:17Z</time>
      </trkpt>
      <trkpt lat="46.3189" lon="5.87419">
        <ele>1212.8</ele>
        <time>2021-08-19T14:03:19Z</time>
      </trkpt>
      <trkpt lat="46.31887" lon="5.87414">
        <ele>1212.9</ele>
        <time>2021-08-19T14:03:20Z</time>
      </trkpt>
      <trkpt lat="46.31882" lon="5.87408">
        <ele>1212.9</ele>
        <time>2021-08-19T14:03:22Z</time>
      </trkpt>
      <trkpt lat="46.31878" lon="5.87407">
        <ele>1212.9</ele>
        <time>2021-08-19T14:03:23Z</time>
      </trkpt>
      <trkpt lat="46.31871" lon="5.87403">
        <ele>1212.8</ele>
        <time>2021-08-19T14:03:25Z</time>
      </trkpt>
      <trkpt lat="46.31864" lon="5.87395">
        <ele>1212.6</ele>
        <time>2021-08-19T14:03:27Z</time>
      </trkpt>
      <trkpt lat="46.3186" lon="5.87391">
        <ele>1212.4</ele>
        <time>2021-08-19T14:03:28Z</time>
      </trkpt>
      <trkpt lat="46.31855" lon="5.87387">
        <ele>1212.1</ele>
        <time>2021-08-19T14:03:29Z</time>
      </trkpt>
      <trkpt lat="46.31843" lon="5.87381">
        <ele>1211.4</ele>
        <time>2021-08-19T14:03:30Z</time>
      </trkpt>
      <trkpt lat="46.31836" lon="5.87374">
        <ele>1210.8</ele>
        <time>2021-08-19T14:03:32Z</time>
      </trkpt>
      <trkpt lat="46.31827" lon="5.87367">
        <ele>1210</ele>
        <time>2021-08-19T14:03:33Z</time>
      </trkpt>
      <trkpt lat="46.3182" lon="5.87363">
        <ele>1209.5</ele>
        <time>2021-08-19T14:03:34Z</time>
      </trkpt>
      <trkpt lat="46.3181" lon="5.87357">
        <ele>1208.8</ele>
        <time>2021-08-19T14:03:37Z</time>
      </trkpt>
      <trkpt lat="46.31807" lon="5.87354">
        <ele>1208.6</ele>
        <time>2021-08-19T14:03:38Z</time>
      </trkpt>
      <trkpt lat="46.31803" lon="5.87351">
        <ele>1208.4</ele>
        <time>2021-08-19T14:03:39Z</time>
      </trkpt>
      <trkpt lat="46.31798" lon="5.87349">
        <ele>1208.2</ele>
        <time>2021-08-19T14:03:40Z</time>
      </trkpt>
      <trkpt lat="46.31795" lon="5.87348">
        <ele>1208</ele>
        <time>2021-08-19T14:03:41Z</time>
      </trkpt>
      <trkpt lat="46.31791" lon="5.87347">
        <ele>1207.9</ele>
        <time>2021-08-19T14:03:42Z</time>
      </trkpt>
      <trkpt lat="46.31788" lon="5.87345">
        <ele>1207.8</ele>
        <time>2021-08-19T14:03:43Z</time>
      </trkpt>
      <trkpt lat="46.31786" lon="5.87342">
        <ele>1207.7</ele>
        <time>2021-08-19T14:03:45Z</time>
      </trkpt>
      <trkpt lat="46.31785" lon="5.8734">
        <ele>1207.7</ele>
        <time>2021-08-19T14:03:46Z</time>
      </trkpt>
      <trkpt lat="46.31783" lon="5.87339">
        <ele>1207.6</ele>
        <time>2021-08-19T14:03:48Z</time>
      </trkpt>
      <trkpt lat="46.3178" lon="5.87338">
        <ele>1207.6</ele>
        <time>2021-08-19T14:03:49Z</time>
      </trkpt>
      <trkpt lat="46.31777" lon="5.87335">
        <ele>1207.5</ele>
        <time>2021-08-19T14:03:50Z</time>
      </trkpt>
      <trkpt lat="46.31775" lon="5.87332">
        <ele>1207.5</ele>
        <time>2021-08-19T14:03:51Z</time>
      </trkpt>
      <trkpt lat="46.31772" lon="5.87328">
        <ele>1207.5</ele>
        <time>2021-08-19T14:03:53Z</time>
      </trkpt>
      <trkpt lat="46.31768" lon="5.87324">
        <ele>1207.4</ele>
        <time>2021-08-19T14:03:54Z</time>
      </trkpt>
      <trkpt lat="46.31761" lon="5.87317">
        <ele>1207.2</ele>
        <time>2021-08-19T14:03:56Z</time>
      </trkpt>
      <trkpt lat="46.31745" lon="5.87307">
        <ele>1206.8</ele>
        <time>2021-08-19T14:03:57Z</time>
      </trkpt>
      <trkpt lat="46.31738" lon="5.87304">
        <ele>1206.6</ele>
        <time>2021-08-19T14:03:58Z</time>
      </trkpt>
      <trkpt lat="46.31734" lon="5.87301">
        <ele>1206.6</ele>
        <time>2021-08-19T14:03:59Z</time>
      </trkpt>
      <trkpt lat="46.31728" lon="5.87298">
        <ele>1206.6</ele>
        <time>2021-08-19T14:04:01Z</time>
      </trkpt>
      <trkpt lat="46.31722" lon="5.87296">
        <ele>1206.7</ele>
        <time>2021-08-19T14:04:02Z</time>
      </trkpt>
      <trkpt lat="46.31715" lon="5.87296">
        <ele>1206.9</ele>
        <time>2021-08-19T14:04:04Z</time>
      </trkpt>
      <trkpt lat="46.31706" lon="5.87298">
        <ele>1207.4</ele>
        <time>2021-08-19T14:04:05Z</time>
      </trkpt>
      <trkpt lat="46.31702" lon="5.87298">
        <ele>1207.7</ele>
        <time>2021-08-19T14:04:07Z</time>
      </trkpt>
      <trkpt lat="46.31697" lon="5.87297">
        <ele>1208</ele>
        <time>2021-08-19T14:04:08Z</time>
      </trkpt>
      <trkpt lat="46.31694" lon="5.87296">
        <ele>1208.3</ele>
        <time>2021-08-19T14:04:09Z</time>
      </trkpt>
      <trkpt lat="46.31692" lon="5.87296">
        <ele>1208.5</ele>
        <time>2021-08-19T14:04:10Z</time>
      </trkpt>
      <trkpt lat="46.31691" lon="5.87295">
        <ele>1208.6</ele>
        <time>2021-08-19T14:04:11Z</time>
      </trkpt>
      <trkpt lat="46.31688" lon="5.87291">
        <ele>1209</ele>
        <time>2021-08-19T14:04:13Z</time>
      </trkpt>
      <trkpt lat="46.31687" lon="5.8729">
        <ele>1209</ele>
        <time>2021-08-19T14:04:14Z</time>
      </trkpt>
      <trkpt lat="46.31685" lon="5.87287">
        <ele>1209.2</ele>
        <time>2021-08-19T14:04:15Z</time>
      </trkpt>
      <trkpt lat="46.31684" lon="5.87286">
        <ele>1209.2</ele>
        <time>2021-08-19T14:04:16Z</time>
      </trkpt>
      <trkpt lat="46.31683" lon="5.87281">
        <ele>1209.5</ele>
        <time>2021-08-19T14:04:18Z</time>
      </trkpt>
      <trkpt lat="46.31683" lon="5.8728">
        <ele>1209.5</ele>
        <time>2021-08-19T14:04:19Z</time>
      </trkpt>
      <trkpt lat="46.31679" lon="5.87277">
        <ele>1209.8</ele>
        <time>2021-08-19T14:04:21Z</time>
      </trkpt>
      <trkpt lat="46.31678" lon="5.87276">
        <ele>1209.8</ele>
        <time>2021-08-19T14:04:23Z</time>
      </trkpt>
      <trkpt lat="46.31677" lon="5.87275">
        <ele>1209.9</ele>
        <time>2021-08-19T14:04:24Z</time>
      </trkpt>
      <trkpt lat="46.31678" lon="5.87274">
        <ele>1210</ele>
        <time>2021-08-19T14:04:26Z</time>
      </trkpt>
      <trkpt lat="46.31676" lon="5.87273">
        <ele>1210</ele>
        <time>2021-08-19T14:04:27Z</time>
      </trkpt>
      <trkpt lat="46.31675" lon="5.8727">
        <ele>1210.2</ele>
        <time>2021-08-19T14:04:29Z</time>
      </trkpt>
      <trkpt lat="46.31676" lon="5.87268">
        <ele>1210.2</ele>
        <time>2021-08-19T14:04:31Z</time>
      </trkpt>
      <trkpt lat="46.31676" lon="5.87267">
        <ele>1210.3</ele>
        <time>2021-08-19T14:04:32Z</time>
      </trkpt>
      <trkpt lat="46.31676" lon="5.87266">
        <ele>1210.3</ele>
        <time>2021-08-19T14:04:33Z</time>
      </trkpt>
      <trkpt lat="46.31674" lon="5.87264">
        <ele>1210.4</ele>
        <time>2021-08-19T14:04:35Z</time>
      </trkpt>
      <trkpt lat="46.31673" lon="5.8726">
        <ele>1210.5</ele>
        <time>2021-08-19T14:04:36Z</time>
      </trkpt>
      <trkpt lat="46.31673" lon="5.87258">
        <ele>1210.6</ele>
        <time>2021-08-19T14:04:37Z</time>
      </trkpt>
      <trkpt lat="46.31673" lon="5.87253">
        <ele>1210.7</ele>
        <time>2021-08-19T14:04:39Z</time>
      </trkpt>
      <trkpt lat="46.31674" lon="5.87251">
        <ele>1210.8</ele>
        <time>2021-08-19T14:04:40Z</time>
      </trkpt>
      <trkpt lat="46.31674" lon="5.8725">
        <ele>1210.8</ele>
        <time>2021-08-19T14:04:41Z</time>
      </trkpt>
      <trkpt lat="46.31672" lon="5.87247">
        <ele>1211</ele>
        <time>2021-08-19T14:04:43Z</time>
      </trkpt>
      <trkpt lat="46.3167" lon="5.87246">
        <ele>1211.1</ele>
        <time>2021-08-19T14:04:44Z</time>
      </trkpt>
      <trkpt lat="46.31667" lon="5.87245">
        <ele>1211.2</ele>
        <time>2021-08-19T14:04:46Z</time>
      </trkpt>
      <trkpt lat="46.31664" lon="5.87244">
        <ele>1211.3</ele>
        <time>2021-08-19T14:04:47Z</time>
      </trkpt>
      <trkpt lat="46.31663" lon="5.87244">
        <ele>1211.3</ele>
        <time>2021-08-19T14:04:48Z</time>
      </trkpt>
      <trkpt lat="46.3166" lon="5.87244">
        <ele>1211.3</ele>
        <time>2021-08-19T14:04:49Z</time>
      </trkpt>
      <trkpt lat="46.31657" lon="5.87245">
        <ele>1211.4</ele>
        <time>2021-08-19T14:04:51Z</time>
      </trkpt>
      <trkpt lat="46.31656" lon="5.87245">
        <ele>1211.4</ele>
        <time>2021-08-19T14:04:52Z</time>
      </trkpt>
      <trkpt lat="46.31654" lon="5.87244">
        <ele>1211.4</ele>
        <time>2021-08-19T14:04:54Z</time>
      </trkpt>
      <trkpt lat="46.31651" lon="5.87243">
        <ele>1211.4</ele>
        <time>2021-08-19T14:04:55Z</time>
      </trkpt>
      <trkpt lat="46.31648" lon="5.87242">
        <ele>1211.4</ele>
        <time>2021-08-19T14:04:57Z</time>
      </trkpt>
      <trkpt lat="46.31645" lon="5.8724">
        <ele>1211.3</ele>
        <time>2021-08-19T14:04:59Z</time>
      </trkpt>
      <trkpt lat="46.31641" lon="5.8724">
        <ele>1211.2</ele>
        <time>2021-08-19T14:05:01Z</time>
      </trkpt>
      <trkpt lat="46.31637" lon="5.8724">
        <ele>1211.1</ele>
        <time>2021-08-19T14:05:02Z</time>
      </trkpt>
      <trkpt lat="46.31636" lon="5.8724">
        <ele>1211.1</ele>
        <time>2021-08-19T14:05:03Z</time>
      </trkpt>
      <trkpt lat="46.31632" lon="5.87239">
        <ele>1211</ele>
        <time>2021-08-19T14:05:04Z</time>
      </trkpt>
      <trkpt lat="46.3163" lon="5.87238">
        <ele>1210.9</ele>
        <time>2021-08-19T14:05:05Z</time>
      </trkpt>
      <trkpt lat="46.31624" lon="5.87235">
        <ele>1210.6</ele>
        <time>2021-08-19T14:05:07Z</time>
      </trkpt>
      <trkpt lat="46.31619" lon="5.8723">
        <ele>1210.4</ele>
        <time>2021-08-19T14:05:09Z</time>
      </trkpt>
      <trkpt lat="46.31616" lon="5.87229">
        <ele>1210.3</ele>
        <time>2021-08-19T14:05:10Z</time>
      </trkpt>
      <trkpt lat="46.31611" lon="5.87226">
        <ele>1210.1</ele>
        <time>2021-08-19T14:05:11Z</time>
      </trkpt>
      <trkpt lat="46.31608" lon="5.87226">
        <ele>1209.9</ele>
        <time>2021-08-19T14:05:12Z</time>
      </trkpt>
      <trkpt lat="46.31605" lon="5.87226">
        <ele>1209.8</ele>
        <time>2021-08-19T14:05:13Z</time>
      </trkpt>
      <trkpt lat="46.31603" lon="5.87227">
        <ele>1209.7</ele>
        <time>2021-08-19T14:05:14Z</time>
      </trkpt>
      <trkpt lat="46.31601" lon="5.87229">
        <ele>1209.6</ele>
        <time>2021-08-19T14:05:16Z</time>
      </trkpt>
      <trkpt lat="46.31599" lon="5.87232">
        <ele>1209.5</ele>
        <time>2021-08-19T14:05:17Z</time>
      </trkpt>
      <trkpt lat="46.31596" lon="5.87235">
        <ele>1209.4</ele>
        <time>2021-08-19T14:05:18Z</time>
      </trkpt>
      <trkpt lat="46.31594" lon="5.87238">
        <ele>1209.3</ele>
        <time>2021-08-19T14:05:19Z</time>
      </trkpt>
      <trkpt lat="46.31591" lon="5.87243">
        <ele>1209.2</ele>
        <time>2021-08-19T14:05:21Z</time>
      </trkpt>
      <trkpt lat="46.3159" lon="5.87245">
        <ele>1209.2</ele>
        <time>2021-08-19T14:05:22Z</time>
      </trkpt>
      <trkpt lat="46.31589" lon="5.87246">
        <ele>1209.1</ele>
        <time>2021-08-19T14:05:23Z</time>
      </trkpt>
      <trkpt lat="46.31589" lon="5.87248">
        <ele>1209.1</ele>
        <time>2021-08-19T14:05:25Z</time>
      </trkpt>
      <trkpt lat="46.31587" lon="5.8725">
        <ele>1209.1</ele>
        <time>2021-08-19T14:05:26Z</time>
      </trkpt>
      <trkpt lat="46.31584" lon="5.87252">
        <ele>1209.1</ele>
        <time>2021-08-19T14:05:27Z</time>
      </trkpt>
      <trkpt lat="46.31582" lon="5.87253">
        <ele>1209.1</ele>
        <time>2021-08-19T14:05:29Z</time>
      </trkpt>
      <trkpt lat="46.31582" lon="5.87253">
        <ele>1209.1</ele>
        <time>2021-08-19T14:05:30Z</time>
      </trkpt>
      <trkpt lat="46.31583" lon="5.87254">
        <ele>1209.1</ele>
        <time>2021-08-19T14:05:31Z</time>
      </trkpt>
      <trkpt lat="46.31582" lon="5.87255">
        <ele>1209.1</ele>
        <time>2021-08-19T14:05:33Z</time>
      </trkpt>
      <trkpt lat="46.31582" lon="5.87256">
        <ele>1209.1</ele>
        <time>2021-08-19T14:05:34Z</time>
      </trkpt>
      <trkpt lat="46.31582" lon="5.87258">
        <ele>1209.1</ele>
        <time>2021-08-19T14:05:35Z</time>
      </trkpt>
      <trkpt lat="46.31578" lon="5.87266">
        <ele>1209.1</ele>
        <time>2021-08-19T14:05:37Z</time>
      </trkpt>
      <trkpt lat="46.31578" lon="5.87271">
        <ele>1209</ele>
        <time>2021-08-19T14:05:38Z</time>
      </trkpt>
      <trkpt lat="46.31577" lon="5.87279">
        <ele>1208.9</ele>
        <time>2021-08-19T14:05:40Z</time>
      </trkpt>
      <trkpt lat="46.31577" lon="5.87284">
        <ele>1208.8</ele>
        <time>2021-08-19T14:05:41Z</time>
      </trkpt>
      <trkpt lat="46.31574" lon="5.87289">
        <ele>1208.7</ele>
        <time>2021-08-19T14:05:43Z</time>
      </trkpt>
      <trkpt lat="46.31573" lon="5.8729">
        <ele>1208.6</ele>
        <time>2021-08-19T14:05:44Z</time>
      </trkpt>
      <trkpt lat="46.31571" lon="5.87291">
        <ele>1208.5</ele>
        <time>2021-08-19T14:05:45Z</time>
      </trkpt>
      <trkpt lat="46.31568" lon="5.87288">
        <ele>1208.4</ele>
        <time>2021-08-19T14:05:46Z</time>
      </trkpt>
      <trkpt lat="46.31567" lon="5.87287">
        <ele>1208.4</ele>
        <time>2021-08-19T14:05:47Z</time>
      </trkpt>
      <trkpt lat="46.31564" lon="5.87282">
        <ele>1208.4</ele>
        <time>2021-08-19T14:05:49Z</time>
      </trkpt>
      <trkpt lat="46.3156" lon="5.87276">
        <ele>1208</ele>
        <time>2021-08-19T14:05:50Z</time>
      </trkpt>
      <trkpt lat="46.31557" lon="5.87271">
        <ele>1207.7</ele>
        <time>2021-08-19T14:05:51Z</time>
      </trkpt>
      <trkpt lat="46.31553" lon="5.87264">
        <ele>1207.3</ele>
        <time>2021-08-19T14:05:52Z</time>
      </trkpt>
      <trkpt lat="46.31549" lon="5.87259">
        <ele>1207</ele>
        <time>2021-08-19T14:05:53Z</time>
      </trkpt>
      <trkpt lat="46.31544" lon="5.87252">
        <ele>1206.5</ele>
        <time>2021-08-19T14:05:55Z</time>
      </trkpt>
      <trkpt lat="46.31539" lon="5.87245">
        <ele>1205.9</ele>
        <time>2021-08-19T14:05:56Z</time>
      </trkpt>
      <trkpt lat="46.31535" lon="5.87238">
        <ele>1205.3</ele>
        <time>2021-08-19T14:05:58Z</time>
      </trkpt>
      <trkpt lat="46.31532" lon="5.87234">
        <ele>1205</ele>
        <time>2021-08-19T14:05:59Z</time>
      </trkpt>
      <trkpt lat="46.31529" lon="5.8723">
        <ele>1204.6</ele>
        <time>2021-08-19T14:06:00Z</time>
      </trkpt>
      <trkpt lat="46.31525" lon="5.87226">
        <ele>1204.1</ele>
        <time>2021-08-19T14:06:01Z</time>
      </trkpt>
      <trkpt lat="46.31521" lon="5.87221">
        <ele>1203.5</ele>
        <time>2021-08-19T14:06:03Z</time>
      </trkpt>
      <trkpt lat="46.31518" lon="5.87218">
        <ele>1203.1</ele>
        <time>2021-08-19T14:06:04Z</time>
      </trkpt>
      <trkpt lat="46.31512" lon="5.87212">
        <ele>1202.3</ele>
        <time>2021-08-19T14:06:06Z</time>
      </trkpt>
      <trkpt lat="46.31506" lon="5.87207">
        <ele>1201.5</ele>
        <time>2021-08-19T14:06:07Z</time>
      </trkpt>
      <trkpt lat="46.31501" lon="5.87203">
        <ele>1200.9</ele>
        <time>2021-08-19T14:06:08Z</time>
      </trkpt>
      <trkpt lat="46.31492" lon="5.87194">
        <ele>1199.8</ele>
        <time>2021-08-19T14:06:10Z</time>
      </trkpt>
      <trkpt lat="46.31489" lon="5.8719">
        <ele>1199.3</ele>
        <time>2021-08-19T14:06:11Z</time>
      </trkpt>
      <trkpt lat="46.31485" lon="5.87188">
        <ele>1198.9</ele>
        <time>2021-08-19T14:06:13Z</time>
      </trkpt>
      <trkpt lat="46.31482" lon="5.87185">
        <ele>1198.6</ele>
        <time>2021-08-19T14:06:14Z</time>
      </trkpt>
      <trkpt lat="46.3148" lon="5.87179">
        <ele>1198.2</ele>
        <time>2021-08-19T14:06:15Z</time>
      </trkpt>
      <trkpt lat="46.31474" lon="5.87172">
        <ele>1197.6</ele>
        <time>2021-08-19T14:06:17Z</time>
      </trkpt>
      <trkpt lat="46.31471" lon="5.87168">
        <ele>1197.2</ele>
        <time>2021-08-19T14:06:18Z</time>
      </trkpt>
      <trkpt lat="46.31467" lon="5.87162">
        <ele>1196.8</ele>
        <time>2021-08-19T14:06:19Z</time>
      </trkpt>
      <trkpt lat="46.31462" lon="5.87156">
        <ele>1196.2</ele>
        <time>2021-08-19T14:06:20Z</time>
      </trkpt>
      <trkpt lat="46.31452" lon="5.87148">
        <ele>1195.1</ele>
        <time>2021-08-19T14:06:22Z</time>
      </trkpt>
      <trkpt lat="46.31447" lon="5.87145">
        <ele>1194.4</ele>
        <time>2021-08-19T14:06:23Z</time>
      </trkpt>
      <trkpt lat="46.31442" lon="5.87141">
        <ele>1193.7</ele>
        <time>2021-08-19T14:06:24Z</time>
      </trkpt>
      <trkpt lat="46.31436" lon="5.87137">
        <ele>1192.9</ele>
        <time>2021-08-19T14:06:25Z</time>
      </trkpt>
      <trkpt lat="46.31424" lon="5.87129">
        <ele>1191.5</ele>
        <time>2021-08-19T14:06:27Z</time>
      </trkpt>
      <trkpt lat="46.31419" lon="5.87126">
        <ele>1190.9</ele>
        <time>2021-08-19T14:06:28Z</time>
      </trkpt>
      <trkpt lat="46.3141" lon="5.8712">
        <ele>1189.9</ele>
        <time>2021-08-19T14:06:30Z</time>
      </trkpt>
      <trkpt lat="46.31407" lon="5.87116">
        <ele>1189.5</ele>
        <time>2021-08-19T14:06:31Z</time>
      </trkpt>
      <trkpt lat="46.31403" lon="5.87107">
        <ele>1188.8</ele>
        <time>2021-08-19T14:06:33Z</time>
      </trkpt>
      <trkpt lat="46.314" lon="5.87101">
        <ele>1188.1</ele>
        <time>2021-08-19T14:06:34Z</time>
      </trkpt>
      <trkpt lat="46.31389" lon="5.87092">
        <ele>1186.8</ele>
        <time>2021-08-19T14:06:36Z</time>
      </trkpt>
      <trkpt lat="46.31383" lon="5.87088">
        <ele>1186.2</ele>
        <time>2021-08-19T14:06:37Z</time>
      </trkpt>
      <trkpt lat="46.31375" lon="5.87078">
        <ele>1185.6</ele>
        <time>2021-08-19T14:06:39Z</time>
      </trkpt>
      <trkpt lat="46.31376" lon="5.87079">
        <ele>1185.6</ele>
        <time>2021-08-19T14:06:41Z</time>
      </trkpt>
      <trkpt lat="46.31373" lon="5.87074">
        <ele>1185.5</ele>
        <time>2021-08-19T14:06:42Z</time>
      </trkpt>
      <trkpt lat="46.3137" lon="5.87066">
        <ele>1185.6</ele>
        <time>2021-08-19T14:06:43Z</time>
      </trkpt>
      <trkpt lat="46.31368" lon="5.87061">
        <ele>1185.8</ele>
        <time>2021-08-19T14:06:44Z</time>
      </trkpt>
      <trkpt lat="46.31366" lon="5.87057">
        <ele>1186</ele>
        <time>2021-08-19T14:06:45Z</time>
      </trkpt>
      <trkpt lat="46.31364" lon="5.8705">
        <ele>1186.3</ele>
        <time>2021-08-19T14:06:47Z</time>
      </trkpt>
      <trkpt lat="46.31363" lon="5.87044">
        <ele>1186.6</ele>
        <time>2021-08-19T14:06:49Z</time>
      </trkpt>
      <trkpt lat="46.31361" lon="5.87039">
        <ele>1186.9</ele>
        <time>2021-08-19T14:06:50Z</time>
      </trkpt>
      <trkpt lat="46.31359" lon="5.87033">
        <ele>1187.2</ele>
        <time>2021-08-19T14:06:52Z</time>
      </trkpt>
      <trkpt lat="46.31355" lon="5.87025">
        <ele>1187.7</ele>
        <time>2021-08-19T14:06:54Z</time>
      </trkpt>
      <trkpt lat="46.31352" lon="5.87023">
        <ele>1188</ele>
        <time>2021-08-19T14:06:56Z</time>
      </trkpt>
      <trkpt lat="46.31349" lon="5.8702">
        <ele>1188.3</ele>
        <time>2021-08-19T14:06:57Z</time>
      </trkpt>
      <trkpt lat="46.31348" lon="5.87019">
        <ele>1188.4</ele>
        <time>2021-08-19T14:06:58Z</time>
      </trkpt>
      <trkpt lat="46.31346" lon="5.87017">
        <ele>1188.5</ele>
        <time>2021-08-19T14:06:59Z</time>
      </trkpt>
      <trkpt lat="46.31345" lon="5.87015">
        <ele>1188.6</ele>
        <time>2021-08-19T14:07:00Z</time>
      </trkpt>
      <trkpt lat="46.31343" lon="5.87011">
        <ele>1188.8</ele>
        <time>2021-08-19T14:07:02Z</time>
      </trkpt>
      <trkpt lat="46.31343" lon="5.87009">
        <ele>1188.9</ele>
        <time>2021-08-19T14:07:03Z</time>
      </trkpt>
      <trkpt lat="46.31342" lon="5.87007">
        <ele>1189</ele>
        <time>2021-08-19T14:07:04Z</time>
      </trkpt>
      <trkpt lat="46.31343" lon="5.87004">
        <ele>1189.1</ele>
        <time>2021-08-19T14:07:06Z</time>
      </trkpt>
      <trkpt lat="46.31342" lon="5.87001">
        <ele>1189.2</ele>
        <time>2021-08-19T14:07:07Z</time>
      </trkpt>
      <trkpt lat="46.31342" lon="5.86999">
        <ele>1189.2</ele>
        <time>2021-08-19T14:07:08Z</time>
      </trkpt>
      <trkpt lat="46.3134" lon="5.86998">
        <ele>1189.3</ele>
        <time>2021-08-19T14:07:10Z</time>
      </trkpt>
      <trkpt lat="46.31339" lon="5.86997">
        <ele>1189.3</ele>
        <time>2021-08-19T14:07:11Z</time>
      </trkpt>
      <trkpt lat="46.31337" lon="5.86993">
        <ele>1189.4</ele>
        <time>2021-08-19T14:07:13Z</time>
      </trkpt>
      <trkpt lat="46.31336" lon="5.86991">
        <ele>1189.4</ele>
        <time>2021-08-19T14:07:14Z</time>
      </trkpt>
      <trkpt lat="46.31334" lon="5.86989">
        <ele>1189.5</ele>
        <time>2021-08-19T14:07:16Z</time>
      </trkpt>
      <trkpt lat="46.31331" lon="5.86985">
        <ele>1189.5</ele>
        <time>2021-08-19T14:07:18Z</time>
      </trkpt>
      <trkpt lat="46.31329" lon="5.86983">
        <ele>1189.5</ele>
        <time>2021-08-19T14:07:19Z</time>
      </trkpt>
      <trkpt lat="46.31326" lon="5.86981">
        <ele>1189.5</ele>
        <time>2021-08-19T14:07:20Z</time>
      </trkpt>
      <trkpt lat="46.31324" lon="5.8698">
        <ele>1189.5</ele>
        <time>2021-08-19T14:07:22Z</time>
      </trkpt>
      <trkpt lat="46.31323" lon="5.86978">
        <ele>1189.5</ele>
        <time>2021-08-19T14:07:23Z</time>
      </trkpt>
      <trkpt lat="46.31322" lon="5.86976">
        <ele>1189.5</ele>
        <time>2021-08-19T14:07:24Z</time>
      </trkpt>
      <trkpt lat="46.3132" lon="5.86976">
        <ele>1189.4</ele>
        <time>2021-08-19T14:07:25Z</time>
      </trkpt>
      <trkpt lat="46.31317" lon="5.86976">
        <ele>1189.4</ele>
        <time>2021-08-19T14:07:26Z</time>
      </trkpt>
      <trkpt lat="46.31316" lon="5.86977">
        <ele>1189.4</ele>
        <time>2021-08-19T14:07:27Z</time>
      </trkpt>
      <trkpt lat="46.31312" lon="5.86976">
        <ele>1189.2</ele>
        <time>2021-08-19T14:07:28Z</time>
      </trkpt>
      <trkpt lat="46.3131" lon="5.86975">
        <ele>1189.2</ele>
        <time>2021-08-19T14:07:29Z</time>
      </trkpt>
      <trkpt lat="46.31304" lon="5.86974">
        <ele>1188.8</ele>
        <time>2021-08-19T14:07:31Z</time>
      </trkpt>
      <trkpt lat="46.31298" lon="5.86972">
        <ele>1188.2</ele>
        <time>2021-08-19T14:07:32Z</time>
      </trkpt>
      <trkpt lat="46.31293" lon="5.86971">
        <ele>1187.6</ele>
        <time>2021-08-19T14:07:33Z</time>
      </trkpt>
      <trkpt lat="46.31288" lon="5.86968">
        <ele>1187</ele>
        <time>2021-08-19T14:07:34Z</time>
      </trkpt>
      <trkpt lat="46.31284" lon="5.86966">
        <ele>1186.4</ele>
        <time>2021-08-19T14:07:35Z</time>
      </trkpt>
      <trkpt lat="46.31278" lon="5.86963">
        <ele>1185.5</ele>
        <time>2021-08-19T14:07:37Z</time>
      </trkpt>
      <trkpt lat="46.31275" lon="5.8696">
        <ele>1184.9</ele>
        <time>2021-08-19T14:07:38Z</time>
      </trkpt>
      <trkpt lat="46.3127" lon="5.86954">
        <ele>1183.9</ele>
        <time>2021-08-19T14:07:40Z</time>
      </trkpt>
      <trkpt lat="46.31265" lon="5.86949">
        <ele>1183</ele>
        <time>2021-08-19T14:07:42Z</time>
      </trkpt>
      <trkpt lat="46.31261" lon="5.86943">
        <ele>1182.1</ele>
        <time>2021-08-19T14:07:43Z</time>
      </trkpt>
      <trkpt lat="46.31256" lon="5.86938">
        <ele>1181</ele>
        <time>2021-08-19T14:07:45Z</time>
      </trkpt>
      <trkpt lat="46.31252" lon="5.86933">
        <ele>1180</ele>
        <time>2021-08-19T14:07:47Z</time>
      </trkpt>
      <trkpt lat="46.31247" lon="5.86928">
        <ele>1178.9</ele>
        <time>2021-08-19T14:07:48Z</time>
      </trkpt>
      <trkpt lat="46.31243" lon="5.86922">
        <ele>1177.8</ele>
        <time>2021-08-19T14:08:40Z</time>
      </trkpt>
      <trkpt lat="46.31238" lon="5.86917">
        <ele>1176.7</ele>
        <time>2021-08-19T14:08:42Z</time>
      </trkpt>
      <trkpt lat="46.31225" lon="5.86901">
        <ele>1173.8</ele>
        <time>2021-08-19T14:08:44Z</time>
      </trkpt>
      <trkpt lat="46.31219" lon="5.86892">
        <ele>1172.6</ele>
        <time>2021-08-19T14:08:45Z</time>
      </trkpt>
      <trkpt lat="46.31212" lon="5.86883">
        <ele>1171.6</ele>
        <time>2021-08-19T14:08:46Z</time>
      </trkpt>
      <trkpt lat="46.31204" lon="5.86874">
        <ele>1170.7</ele>
        <time>2021-08-19T14:08:47Z</time>
      </trkpt>
      <trkpt lat="46.31189" lon="5.86858">
        <ele>1169.7</ele>
        <time>2021-08-19T14:08:49Z</time>
      </trkpt>
      <trkpt lat="46.31182" lon="5.86852">
        <ele>1169.6</ele>
        <time>2021-08-19T14:08:50Z</time>
      </trkpt>
      <trkpt lat="46.31171" lon="5.8684">
        <ele>1169.8</ele>
        <time>2021-08-19T14:08:52Z</time>
      </trkpt>
      <trkpt lat="46.31166" lon="5.86835">
        <ele>1170.1</ele>
        <time>2021-08-19T14:08:53Z</time>
      </trkpt>
      <trkpt lat="46.31157" lon="5.86827">
        <ele>1170.5</ele>
        <time>2021-08-19T14:08:55Z</time>
      </trkpt>
      <trkpt lat="46.3115" lon="5.86821">
        <ele>1170.9</ele>
        <time>2021-08-19T14:08:58Z</time>
      </trkpt>
      <trkpt lat="46.31142" lon="5.86815">
        <ele>1171.3</ele>
        <time>2021-08-19T14:08:59Z</time>
      </trkpt>
      <trkpt lat="46.31136" lon="5.86809">
        <ele>1171.6</ele>
        <time>2021-08-19T14:09:01Z</time>
      </trkpt>
      <trkpt lat="46.31131" lon="5.868">
        <ele>1171.9</ele>
        <time>2021-08-19T14:09:03Z</time>
      </trkpt>
      <trkpt lat="46.31131" lon="5.8679">
        <ele>1172.2</ele>
        <time>2021-08-19T14:09:05Z</time>
      </trkpt>
      <trkpt lat="46.31128" lon="5.86784">
        <ele>1172.4</ele>
        <time>2021-08-19T14:09:07Z</time>
      </trkpt>
      <trkpt lat="46.31126" lon="5.86783">
        <ele>1172.5</ele>
        <time>2021-08-19T14:09:09Z</time>
      </trkpt>
      <trkpt lat="46.31124" lon="5.86782">
        <ele>1172.6</ele>
        <time>2021-08-19T14:09:10Z</time>
      </trkpt>
      <trkpt lat="46.31123" lon="5.86782">
        <ele>1172.6</ele>
        <time>2021-08-19T14:09:11Z</time>
      </trkpt>
      <trkpt lat="46.31119" lon="5.86779">
        <ele>1172.8</ele>
        <time>2021-08-19T14:09:13Z</time>
      </trkpt>
      <trkpt lat="46.31115" lon="5.86777">
        <ele>1173</ele>
        <time>2021-08-19T14:09:14Z</time>
      </trkpt>
      <trkpt lat="46.31113" lon="5.86777">
        <ele>1173</ele>
        <time>2021-08-19T14:09:15Z</time>
      </trkpt>
      <trkpt lat="46.31112" lon="5.86776">
        <ele>1173.1</ele>
        <time>2021-08-19T14:09:16Z</time>
      </trkpt>
      <trkpt lat="46.3111" lon="5.86775">
        <ele>1173.2</ele>
        <time>2021-08-19T14:09:17Z</time>
      </trkpt>
      <trkpt lat="46.31107" lon="5.86771">
        <ele>1173.4</ele>
        <time>2021-08-19T14:09:19Z</time>
      </trkpt>
      <trkpt lat="46.31106" lon="5.86767">
        <ele>1173.5</ele>
        <time>2021-08-19T14:09:21Z</time>
      </trkpt>
      <trkpt lat="46.31105" lon="5.86766">
        <ele>1173.5</ele>
        <time>2021-08-19T14:09:22Z</time>
      </trkpt>
      <trkpt lat="46.31106" lon="5.8676">
        <ele>1173.6</ele>
        <time>2021-08-19T14:09:23Z</time>
      </trkpt>
      <trkpt lat="46.31105" lon="5.86759">
        <ele>1173.7</ele>
        <time>2021-08-19T14:09:24Z</time>
      </trkpt>
      <trkpt lat="46.31104" lon="5.86756">
        <ele>1173.8</ele>
        <time>2021-08-19T14:09:25Z</time>
      </trkpt>
      <trkpt lat="46.311" lon="5.86754">
        <ele>1173.8</ele>
        <time>2021-08-19T14:09:27Z</time>
      </trkpt>
      <trkpt lat="46.31096" lon="5.86751">
        <ele>1173.9</ele>
        <time>2021-08-19T14:09:28Z</time>
      </trkpt>
      <trkpt lat="46.31095" lon="5.8675">
        <ele>1173.9</ele>
        <time>2021-08-19T14:09:29Z</time>
      </trkpt>
      <trkpt lat="46.3109" lon="5.86747">
        <ele>1174</ele>
        <time>2021-08-19T14:09:31Z</time>
      </trkpt>
      <trkpt lat="46.31088" lon="5.86744">
        <ele>1174</ele>
        <time>2021-08-19T14:09:32Z</time>
      </trkpt>
      <trkpt lat="46.31085" lon="5.86742">
        <ele>1174</ele>
        <time>2021-08-19T14:09:33Z</time>
      </trkpt>
      <trkpt lat="46.31082" lon="5.86738">
        <ele>1174</ele>
        <time>2021-08-19T14:09:35Z</time>
      </trkpt>
      <trkpt lat="46.31079" lon="5.86736">
        <ele>1174</ele>
        <time>2021-08-19T14:09:36Z</time>
      </trkpt>
      <trkpt lat="46.31077" lon="5.86735">
        <ele>1174.1</ele>
        <time>2021-08-19T14:09:37Z</time>
      </trkpt>
      <trkpt lat="46.31073" lon="5.86732">
        <ele>1174.1</ele>
        <time>2021-08-19T14:09:39Z</time>
      </trkpt>
      <trkpt lat="46.31071" lon="5.8673">
        <ele>1174.1</ele>
        <time>2021-08-19T14:09:40Z</time>
      </trkpt>
      <trkpt lat="46.31067" lon="5.86727">
        <ele>1174.1</ele>
        <time>2021-08-19T14:09:42Z</time>
      </trkpt>
      <trkpt lat="46.31062" lon="5.86724">
        <ele>1174.2</ele>
        <time>2021-08-19T14:09:43Z</time>
      </trkpt>
      <trkpt lat="46.31055" lon="5.86721">
        <ele>1174.1</ele>
        <time>2021-08-19T14:09:45Z</time>
      </trkpt>
      <trkpt lat="46.31051" lon="5.86717">
        <ele>1174.1</ele>
        <time>2021-08-19T14:09:46Z</time>
      </trkpt>
      <trkpt lat="46.31046" lon="5.86715">
        <ele>1174</ele>
        <time>2021-08-19T14:09:48Z</time>
      </trkpt>
      <trkpt lat="46.3104" lon="5.86716">
        <ele>1173.9</ele>
        <time>2021-08-19T14:09:49Z</time>
      </trkpt>
      <trkpt lat="46.31036" lon="5.86717">
        <ele>1173.9</ele>
        <time>2021-08-19T14:09:50Z</time>
      </trkpt>
      <trkpt lat="46.31032" lon="5.86718">
        <ele>1174</ele>
        <time>2021-08-19T14:09:51Z</time>
      </trkpt>
      <trkpt lat="46.31029" lon="5.86719">
        <ele>1174</ele>
        <time>2021-08-19T14:09:52Z</time>
      </trkpt>
      <trkpt lat="46.31024" lon="5.86718">
        <ele>1174.1</ele>
        <time>2021-08-19T14:09:54Z</time>
      </trkpt>
      <trkpt lat="46.31021" lon="5.86719">
        <ele>1174.1</ele>
        <time>2021-08-19T14:09:55Z</time>
      </trkpt>
      <trkpt lat="46.31018" lon="5.8672">
        <ele>1174.1</ele>
        <time>2021-08-19T14:09:56Z</time>
      </trkpt>
      <trkpt lat="46.31015" lon="5.86722">
        <ele>1174.2</ele>
        <time>2021-08-19T14:09:57Z</time>
      </trkpt>
      <trkpt lat="46.31013" lon="5.86725">
        <ele>1174.2</ele>
        <time>2021-08-19T14:09:58Z</time>
      </trkpt>
      <trkpt lat="46.31007" lon="5.86726">
        <ele>1174.3</ele>
        <time>2021-08-19T14:10:00Z</time>
      </trkpt>
      <trkpt lat="46.31005" lon="5.86727">
        <ele>1174.3</ele>
        <time>2021-08-19T14:10:01Z</time>
      </trkpt>
      <trkpt lat="46.31" lon="5.86729">
        <ele>1174.3</ele>
        <time>2021-08-19T14:10:03Z</time>
      </trkpt>
      <trkpt lat="46.30996" lon="5.8673">
        <ele>1174.3</ele>
        <time>2021-08-19T14:10:04Z</time>
      </trkpt>
      <trkpt lat="46.30995" lon="5.8673">
        <ele>1174.3</ele>
        <time>2021-08-19T14:10:05Z</time>
      </trkpt>
      <trkpt lat="46.30989" lon="5.8673">
        <ele>1174.2</ele>
        <time>2021-08-19T14:10:07Z</time>
      </trkpt>
      <trkpt lat="46.30985" lon="5.86728">
        <ele>1174.2</ele>
        <time>2021-08-19T14:10:08Z</time>
      </trkpt>
      <trkpt lat="46.3098" lon="5.86726">
        <ele>1174.1</ele>
        <time>2021-08-19T14:10:09Z</time>
      </trkpt>
      <trkpt lat="46.30974" lon="5.86723">
        <ele>1174</ele>
        <time>2021-08-19T14:10:10Z</time>
      </trkpt>
      <trkpt lat="46.30969" lon="5.86721">
        <ele>1173.9</ele>
        <time>2021-08-19T14:10:11Z</time>
      </trkpt>
      <trkpt lat="46.3096" lon="5.86719">
        <ele>1173.8</ele>
        <time>2021-08-19T14:10:13Z</time>
      </trkpt>
      <trkpt lat="46.30954" lon="5.86715">
        <ele>1173.7</ele>
        <time>2021-08-19T14:10:14Z</time>
      </trkpt>
      <trkpt lat="46.3095" lon="5.86713">
        <ele>1173.7</ele>
        <time>2021-08-19T14:10:15Z</time>
      </trkpt>
      <trkpt lat="46.30946" lon="5.86712">
        <ele>1173.6</ele>
        <time>2021-08-19T14:10:17Z</time>
      </trkpt>
      <trkpt lat="46.30941" lon="5.86711">
        <ele>1173.5</ele>
        <time>2021-08-19T14:10:18Z</time>
      </trkpt>
      <trkpt lat="46.30938" lon="5.86708">
        <ele>1173.4</ele>
        <time>2021-08-19T14:10:19Z</time>
      </trkpt>
      <trkpt lat="46.30932" lon="5.86704">
        <ele>1173.2</ele>
        <time>2021-08-19T14:10:20Z</time>
      </trkpt>
      <trkpt lat="46.30924" lon="5.86696">
        <ele>1172.6</ele>
        <time>2021-08-19T14:10:22Z</time>
      </trkpt>
      <trkpt lat="46.30922" lon="5.8669">
        <ele>1172.3</ele>
        <time>2021-08-19T14:10:23Z</time>
      </trkpt>
      <trkpt lat="46.30917" lon="5.86676">
        <ele>1171.5</ele>
        <time>2021-08-19T14:10:25Z</time>
      </trkpt>
      <trkpt lat="46.30906" lon="5.86663">
        <ele>1170.6</ele>
        <time>2021-08-19T14:10:27Z</time>
      </trkpt>
      <trkpt lat="46.30895" lon="5.86655">
        <ele>1170</ele>
        <time>2021-08-19T14:10:29Z</time>
      </trkpt>
      <trkpt lat="46.30886" lon="5.86646">
        <ele>1169.7</ele>
        <time>2021-08-19T14:10:31Z</time>
      </trkpt>
      <trkpt lat="46.30878" lon="5.86635">
        <ele>1169.4</ele>
        <time>2021-08-19T14:10:33Z</time>
      </trkpt>
      <trkpt lat="46.30873" lon="5.86621">
        <ele>1169.2</ele>
        <time>2021-08-19T14:10:35Z</time>
      </trkpt>
      <trkpt lat="46.30867" lon="5.8661">
        <ele>1168.9</ele>
        <time>2021-08-19T14:10:37Z</time>
      </trkpt>
      <trkpt lat="46.30864" lon="5.86605">
        <ele>1168.8</ele>
        <time>2021-08-19T14:10:38Z</time>
      </trkpt>
      <trkpt lat="46.30861" lon="5.86599">
        <ele>1168.7</ele>
        <time>2021-08-19T14:10:39Z</time>
      </trkpt>
      <trkpt lat="46.30857" lon="5.86587">
        <ele>1168.4</ele>
        <time>2021-08-19T14:10:41Z</time>
      </trkpt>
      <trkpt lat="46.30853" lon="5.86582">
        <ele>1168.3</ele>
        <time>2021-08-19T14:10:42Z</time>
      </trkpt>
      <trkpt lat="46.30844" lon="5.86575">
        <ele>1167.9</ele>
        <time>2021-08-19T14:10:44Z</time>
      </trkpt>
      <trkpt lat="46.30833" lon="5.86569">
        <ele>1167.5</ele>
        <time>2021-08-19T14:10:46Z</time>
      </trkpt>
      <trkpt lat="46.30828" lon="5.86565">
        <ele>1167.4</ele>
        <time>2021-08-19T14:10:47Z</time>
      </trkpt>
      <trkpt lat="46.30819" lon="5.8656">
        <ele>1167.2</ele>
        <time>2021-08-19T14:10:49Z</time>
      </trkpt>
      <trkpt lat="46.30814" lon="5.86558">
        <ele>1167.2</ele>
        <time>2021-08-19T14:10:50Z</time>
      </trkpt>
      <trkpt lat="46.30804" lon="5.86557">
        <ele>1167.1</ele>
        <time>2021-08-19T14:10:52Z</time>
      </trkpt>
      <trkpt lat="46.30799" lon="5.86556">
        <ele>1167.1</ele>
        <time>2021-08-19T14:10:53Z</time>
      </trkpt>
      <trkpt lat="46.30795" lon="5.86553">
        <ele>1167.2</ele>
        <time>2021-08-19T14:10:55Z</time>
      </trkpt>
      <trkpt lat="46.30789" lon="5.8655">
        <ele>1167.3</ele>
        <time>2021-08-19T14:10:57Z</time>
      </trkpt>
      <trkpt lat="46.30787" lon="5.86548">
        <ele>1167.3</ele>
        <time>2021-08-19T14:10:58Z</time>
      </trkpt>
      <trkpt lat="46.30784" lon="5.86541">
        <ele>1167.5</ele>
        <time>2021-08-19T14:11:00Z</time>
      </trkpt>
      <trkpt lat="46.30783" lon="5.86537">
        <ele>1167.5</ele>
        <time>2021-08-19T14:11:01Z</time>
      </trkpt>
      <trkpt lat="46.30781" lon="5.86534">
        <ele>1167.6</ele>
        <time>2021-08-19T14:11:03Z</time>
      </trkpt>
      <trkpt lat="46.3078" lon="5.86529">
        <ele>1167.7</ele>
        <time>2021-08-19T14:11:04Z</time>
      </trkpt>
      <trkpt lat="46.30779" lon="5.86523">
        <ele>1167.8</ele>
        <time>2021-08-19T14:11:06Z</time>
      </trkpt>
      <trkpt lat="46.30777" lon="5.86519">
        <ele>1167.9</ele>
        <time>2021-08-19T14:11:07Z</time>
      </trkpt>
      <trkpt lat="46.30775" lon="5.86516">
        <ele>1168</ele>
        <time>2021-08-19T14:11:09Z</time>
      </trkpt>
      <trkpt lat="46.30772" lon="5.86511">
        <ele>1168.1</ele>
        <time>2021-08-19T14:11:10Z</time>
      </trkpt>
      <trkpt lat="46.3077" lon="5.86508">
        <ele>1168.2</ele>
        <time>2021-08-19T14:11:12Z</time>
      </trkpt>
      <trkpt lat="46.30766" lon="5.86506">
        <ele>1168.3</ele>
        <time>2021-08-19T14:11:13Z</time>
      </trkpt>
      <trkpt lat="46.30762" lon="5.86507">
        <ele>1168.5</ele>
        <time>2021-08-19T14:11:15Z</time>
      </trkpt>
      <trkpt lat="46.30758" lon="5.86506">
        <ele>1168.6</ele>
        <time>2021-08-19T14:11:16Z</time>
      </trkpt>
      <trkpt lat="46.30755" lon="5.86502">
        <ele>1168.7</ele>
        <time>2021-08-19T14:11:18Z</time>
      </trkpt>
      <trkpt lat="46.30755" lon="5.86502">
        <ele>1168.7</ele>
        <time>2021-08-19T14:11:19Z</time>
      </trkpt>
      <trkpt lat="46.30753" lon="5.865">
        <ele>1168.8</ele>
        <time>2021-08-19T14:11:20Z</time>
      </trkpt>
      <trkpt lat="46.30752" lon="5.86499">
        <ele>1168.8</ele>
        <time>2021-08-19T14:11:21Z</time>
      </trkpt>
      <trkpt lat="46.30751" lon="5.86497">
        <ele>1168.9</ele>
        <time>2021-08-19T14:11:22Z</time>
      </trkpt>
      <trkpt lat="46.3075" lon="5.86496">
        <ele>1169</ele>
        <time>2021-08-19T14:11:23Z</time>
      </trkpt>
      <trkpt lat="46.30748" lon="5.86493">
        <ele>1169.1</ele>
        <time>2021-08-19T14:11:25Z</time>
      </trkpt>
      <trkpt lat="46.30745" lon="5.86491">
        <ele>1169.3</ele>
        <time>2021-08-19T14:11:26Z</time>
      </trkpt>
      <trkpt lat="46.30742" lon="5.8649">
        <ele>1169.4</ele>
        <time>2021-08-19T14:11:27Z</time>
      </trkpt>
      <trkpt lat="46.3074" lon="5.86487">
        <ele>1169.6</ele>
        <time>2021-08-19T14:11:29Z</time>
      </trkpt>
      <trkpt lat="46.30738" lon="5.86483">
        <ele>1169.9</ele>
        <time>2021-08-19T14:11:30Z</time>
      </trkpt>
      <trkpt lat="46.30737" lon="5.86479">
        <ele>1170</ele>
        <time>2021-08-19T14:11:31Z</time>
      </trkpt>
      <trkpt lat="46.30737" lon="5.86475">
        <ele>1170.2</ele>
        <time>2021-08-19T14:11:32Z</time>
      </trkpt>
      <trkpt lat="46.30739" lon="5.86472">
        <ele>1170.5</ele>
        <time>2021-08-19T14:11:34Z</time>
      </trkpt>
      <trkpt lat="46.30741" lon="5.8647">
        <ele>1170.6</ele>
        <time>2021-08-19T14:11:35Z</time>
      </trkpt>
      <trkpt lat="46.30741" lon="5.86469">
        <ele>1170.6</ele>
        <time>2021-08-19T14:11:36Z</time>
      </trkpt>
      <trkpt lat="46.30741" lon="5.86469">
        <ele>1170.6</ele>
        <time>2021-08-19T14:11:37Z</time>
      </trkpt>
      <trkpt lat="46.30741" lon="5.86469">
        <ele>1170.7</ele>
        <time>2021-08-19T14:11:38Z</time>
      </trkpt>
      <trkpt lat="46.30741" lon="5.86468">
        <ele>1170.7</ele>
        <time>2021-08-19T14:11:40Z</time>
      </trkpt>
      <trkpt lat="46.30741" lon="5.86468">
        <ele>1170.7</ele>
        <time>2021-08-19T14:11:41Z</time>
      </trkpt>
      <trkpt lat="46.30752" lon="5.86432">
        <ele>1171.7</ele>
        <time>2021-08-19T14:12:19Z</time>
      </trkpt>
      <trkpt lat="46.30752" lon="5.86425">
        <ele>1171.7</ele>
        <time>2021-08-19T14:12:21Z</time>
      </trkpt>
      <trkpt lat="46.30752" lon="5.8642">
        <ele>1171.7</ele>
        <time>2021-08-19T14:12:22Z</time>
      </trkpt>
      <trkpt lat="46.30752" lon="5.86416">
        <ele>1171.6</ele>
        <time>2021-08-19T14:12:23Z</time>
      </trkpt>
      <trkpt lat="46.30752" lon="5.8641">
        <ele>1171.5</ele>
        <time>2021-08-19T14:12:24Z</time>
      </trkpt>
      <trkpt lat="46.30754" lon="5.86401">
        <ele>1171.4</ele>
        <time>2021-08-19T14:12:26Z</time>
      </trkpt>
      <trkpt lat="46.30755" lon="5.86395">
        <ele>1171.2</ele>
        <time>2021-08-19T14:12:27Z</time>
      </trkpt>
      <trkpt lat="46.30758" lon="5.86389">
        <ele>1171</ele>
        <time>2021-08-19T14:12:28Z</time>
      </trkpt>
      <trkpt lat="46.30757" lon="5.86388">
        <ele>1170.9</ele>
        <time>2021-08-19T14:12:29Z</time>
      </trkpt>
      <trkpt lat="46.30755" lon="5.86391">
        <ele>1170.8</ele>
        <time>2021-08-19T14:12:31Z</time>
      </trkpt>
      <trkpt lat="46.30754" lon="5.86392">
        <ele>1170.7</ele>
        <time>2021-08-19T14:12:32Z</time>
      </trkpt>
      <trkpt lat="46.30754" lon="5.86392">
        <ele>1170.7</ele>
        <time>2021-08-19T14:12:33Z</time>
      </trkpt>
      <trkpt lat="46.30753" lon="5.86392">
        <ele>1170.7</ele>
        <time>2021-08-19T14:12:35Z</time>
      </trkpt>
      <trkpt lat="46.30752" lon="5.86392">
        <ele>1170.6</ele>
        <time>2021-08-19T14:12:36Z</time>
      </trkpt>
      <trkpt lat="46.30751" lon="5.86392">
        <ele>1170.5</ele>
        <time>2021-08-19T14:12:37Z</time>
      </trkpt>
      <trkpt lat="46.30748" lon="5.86392">
        <ele>1170.3</ele>
        <time>2021-08-19T14:12:39Z</time>
      </trkpt>
      <trkpt lat="46.30743" lon="5.86389">
        <ele>1169.9</ele>
        <time>2021-08-19T14:12:41Z</time>
      </trkpt>
      <trkpt lat="46.30738" lon="5.8639">
        <ele>1169.5</ele>
        <time>2021-08-19T14:12:43Z</time>
      </trkpt>
      <trkpt lat="46.30733" lon="5.86393">
        <ele>1169.1</ele>
        <time>2021-08-19T14:12:44Z</time>
      </trkpt>
      <trkpt lat="46.30727" lon="5.86396">
        <ele>1168.6</ele>
        <time>2021-08-19T14:12:46Z</time>
      </trkpt>
      <trkpt lat="46.30724" lon="5.86397">
        <ele>1168.3</ele>
        <time>2021-08-19T14:12:47Z</time>
      </trkpt>
      <trkpt lat="46.3072" lon="5.864">
        <ele>1167.9</ele>
        <time>2021-08-19T14:12:48Z</time>
      </trkpt>
      <trkpt lat="46.30715" lon="5.86401">
        <ele>1167.5</ele>
        <time>2021-08-19T14:12:49Z</time>
      </trkpt>
      <trkpt lat="46.30709" lon="5.86402">
        <ele>1167.1</ele>
        <time>2021-08-19T14:12:51Z</time>
      </trkpt>
      <trkpt lat="46.30703" lon="5.86403">
        <ele>1166.7</ele>
        <time>2021-08-19T14:12:52Z</time>
      </trkpt>
      <trkpt lat="46.30698" lon="5.86403">
        <ele>1166.4</ele>
        <time>2021-08-19T14:12:53Z</time>
      </trkpt>
      <trkpt lat="46.30695" lon="5.86405">
        <ele>1166.1</ele>
        <time>2021-08-19T14:12:54Z</time>
      </trkpt>
      <trkpt lat="46.30691" lon="5.86405">
        <ele>1165.9</ele>
        <time>2021-08-19T14:12:56Z</time>
      </trkpt>
      <trkpt lat="46.30688" lon="5.86405">
        <ele>1165.7</ele>
        <time>2021-08-19T14:12:57Z</time>
      </trkpt>
      <trkpt lat="46.30687" lon="5.86404">
        <ele>1165.6</ele>
        <time>2021-08-19T14:12:58Z</time>
      </trkpt>
      <trkpt lat="46.30682" lon="5.86402">
        <ele>1165.3</ele>
        <time>2021-08-19T14:13:00Z</time>
      </trkpt>
      <trkpt lat="46.30679" lon="5.864">
        <ele>1165.1</ele>
        <time>2021-08-19T14:13:01Z</time>
      </trkpt>
      <trkpt lat="46.30673" lon="5.86399">
        <ele>1164.6</ele>
        <time>2021-08-19T14:13:03Z</time>
      </trkpt>
      <trkpt lat="46.30667" lon="5.86398">
        <ele>1164.2</ele>
        <time>2021-08-19T14:13:04Z</time>
      </trkpt>
      <trkpt lat="46.30662" lon="5.86396">
        <ele>1163.7</ele>
        <time>2021-08-19T14:13:06Z</time>
      </trkpt>
      <trkpt lat="46.30657" lon="5.86392">
        <ele>1163.2</ele>
        <time>2021-08-19T14:13:07Z</time>
      </trkpt>
      <trkpt lat="46.30653" lon="5.86388">
        <ele>1162.7</ele>
        <time>2021-08-19T14:13:08Z</time>
      </trkpt>
      <trkpt lat="46.30648" lon="5.86385">
        <ele>1162.2</ele>
        <time>2021-08-19T14:13:10Z</time>
      </trkpt>
      <trkpt lat="46.30644" lon="5.86383">
        <ele>1161.7</ele>
        <time>2021-08-19T14:13:11Z</time>
      </trkpt>
      <trkpt lat="46.30637" lon="5.8638">
        <ele>1160.8</ele>
        <time>2021-08-19T14:13:12Z</time>
      </trkpt>
      <trkpt lat="46.30631" lon="5.86379">
        <ele>1160.2</ele>
        <time>2021-08-19T14:13:14Z</time>
      </trkpt>
      <trkpt lat="46.30619" lon="5.86375">
        <ele>1158.8</ele>
        <time>2021-08-19T14:13:15Z</time>
      </trkpt>
      <trkpt lat="46.30612" lon="5.86374">
        <ele>1158.1</ele>
        <time>2021-08-19T14:13:16Z</time>
      </trkpt>
      <trkpt lat="46.30605" lon="5.86371">
        <ele>1157.4</ele>
        <time>2021-08-19T14:13:17Z</time>
      </trkpt>
      <trkpt lat="46.30592" lon="5.86365">
        <ele>1156.2</ele>
        <time>2021-08-19T14:13:19Z</time>
      </trkpt>
      <trkpt lat="46.30582" lon="5.8636">
        <ele>1155.3</ele>
        <time>2021-08-19T14:13:21Z</time>
      </trkpt>
      <trkpt lat="46.30576" lon="5.86357">
        <ele>1154.9</ele>
        <time>2021-08-19T14:13:22Z</time>
      </trkpt>
      <trkpt lat="46.30571" lon="5.86355">
        <ele>1154.4</ele>
        <time>2021-08-19T14:13:23Z</time>
      </trkpt>
      <trkpt lat="46.30563" lon="5.86353">
        <ele>1153.8</ele>
        <time>2021-08-19T14:13:25Z</time>
      </trkpt>
      <trkpt lat="46.30556" lon="5.8635">
        <ele>1153.1</ele>
        <time>2021-08-19T14:13:27Z</time>
      </trkpt>
      <trkpt lat="46.3055" lon="5.86346">
        <ele>1152.4</ele>
        <time>2021-08-19T14:13:29Z</time>
      </trkpt>
      <trkpt lat="46.30547" lon="5.86343">
        <ele>1152</ele>
        <time>2021-08-19T14:13:31Z</time>
      </trkpt>
      <trkpt lat="46.30547" lon="5.86344">
        <ele>1151.9</ele>
        <time>2021-08-19T14:13:32Z</time>
      </trkpt>
      <trkpt lat="46.30545" lon="5.8634">
        <ele>1151.5</ele>
        <time>2021-08-19T14:13:33Z</time>
      </trkpt>
      <trkpt lat="46.30541" lon="5.86338">
        <ele>1151.1</ele>
        <time>2021-08-19T14:13:34Z</time>
      </trkpt>
      <trkpt lat="46.30538" lon="5.86337">
        <ele>1150.7</ele>
        <time>2021-08-19T14:13:36Z</time>
      </trkpt>
      <trkpt lat="46.30535" lon="5.86336">
        <ele>1150.2</ele>
        <time>2021-08-19T14:13:37Z</time>
      </trkpt>
      <trkpt lat="46.30531" lon="5.86333">
        <ele>1149.5</ele>
        <time>2021-08-19T14:13:38Z</time>
      </trkpt>
      <trkpt lat="46.30527" lon="5.8633">
        <ele>1148.8</ele>
        <time>2021-08-19T14:13:40Z</time>
      </trkpt>
      <trkpt lat="46.30524" lon="5.86327">
        <ele>1148.2</ele>
        <time>2021-08-19T14:13:41Z</time>
      </trkpt>
      <trkpt lat="46.3052" lon="5.86324">
        <ele>1147.6</ele>
        <time>2021-08-19T14:13:42Z</time>
      </trkpt>
      <trkpt lat="46.30517" lon="5.86321">
        <ele>1147</ele>
        <time>2021-08-19T14:13:43Z</time>
      </trkpt>
      <trkpt lat="46.30512" lon="5.86316">
        <ele>1146</ele>
        <time>2021-08-19T14:13:45Z</time>
      </trkpt>
      <trkpt lat="46.30508" lon="5.86312">
        <ele>1145.3</ele>
        <time>2021-08-19T14:13:46Z</time>
      </trkpt>
      <trkpt lat="46.30504" lon="5.86307">
        <ele>1144.5</ele>
        <time>2021-08-19T14:13:48Z</time>
      </trkpt>
      <trkpt lat="46.305" lon="5.86301">
        <ele>1143.6</ele>
        <time>2021-08-19T14:13:49Z</time>
      </trkpt>
      <trkpt lat="46.30496" lon="5.86298">
        <ele>1143</ele>
        <time>2021-08-19T14:13:50Z</time>
      </trkpt>
      <trkpt lat="46.30493" lon="5.86294">
        <ele>1142.4</ele>
        <time>2021-08-19T14:13:51Z</time>
      </trkpt>
      <trkpt lat="46.3049" lon="5.8629">
        <ele>1141.8</ele>
        <time>2021-08-19T14:13:53Z</time>
      </trkpt>
      <trkpt lat="46.30485" lon="5.86285">
        <ele>1140.9</ele>
        <time>2021-08-19T14:13:54Z</time>
      </trkpt>
      <trkpt lat="46.30483" lon="5.86282">
        <ele>1140.5</ele>
        <time>2021-08-19T14:13:55Z</time>
      </trkpt>
      <trkpt lat="46.3048" lon="5.86281">
        <ele>1139.9</ele>
        <time>2021-08-19T14:13:57Z</time>
      </trkpt>
      <trkpt lat="46.30475" lon="5.86281">
        <ele>1139.2</ele>
        <time>2021-08-19T14:13:58Z</time>
      </trkpt>
      <trkpt lat="46.30472" lon="5.8628">
        <ele>1138.8</ele>
        <time>2021-08-19T14:13:59Z</time>
      </trkpt>
      <trkpt lat="46.30469" lon="5.8628">
        <ele>1138.2</ele>
        <time>2021-08-19T14:14:00Z</time>
      </trkpt>
      <trkpt lat="46.30466" lon="5.86282">
        <ele>1137.6</ele>
        <time>2021-08-19T14:14:01Z</time>
      </trkpt>
      <trkpt lat="46.30465" lon="5.86283">
        <ele>1137.4</ele>
        <time>2021-08-19T14:14:02Z</time>
      </trkpt>
      <trkpt lat="46.30462" lon="5.86288">
        <ele>1136.7</ele>
        <time>2021-08-19T14:14:04Z</time>
      </trkpt>
      <trkpt lat="46.30461" lon="5.8629">
        <ele>1136.4</ele>
        <time>2021-08-19T14:14:05Z</time>
      </trkpt>
      <trkpt lat="46.3046" lon="5.86292">
        <ele>1136.2</ele>
        <time>2021-08-19T14:14:06Z</time>
      </trkpt>
      <trkpt lat="46.30457" lon="5.86296">
        <ele>1135.5</ele>
        <time>2021-08-19T14:14:08Z</time>
      </trkpt>
      <trkpt lat="46.30456" lon="5.86298">
        <ele>1135.3</ele>
        <time>2021-08-19T14:14:09Z</time>
      </trkpt>
      <trkpt lat="46.30454" lon="5.86303">
        <ele>1134.5</ele>
        <time>2021-08-19T14:14:11Z</time>
      </trkpt>
      <trkpt lat="46.30453" lon="5.86305">
        <ele>1134.3</ele>
        <time>2021-08-19T14:14:12Z</time>
      </trkpt>
      <trkpt lat="46.30452" lon="5.86306">
        <ele>1133.1</ele>
        <time>2021-08-19T14:14:13Z</time>
      </trkpt>
      <trkpt lat="46.30449" lon="5.8631">
        <ele>1132.8</ele>
        <time>2021-08-19T14:14:15Z</time>
      </trkpt>
      <trkpt lat="46.30449" lon="5.86311">
        <ele>1131.6</ele>
        <time>2021-08-19T14:14:16Z</time>
      </trkpt>
      <trkpt lat="46.30447" lon="5.86313">
        <ele>1131.3</ele>
        <time>2021-08-19T14:14:17Z</time>
      </trkpt>
      <trkpt lat="46.30445" lon="5.86315">
        <ele>1130</ele>
        <time>2021-08-19T14:14:19Z</time>
      </trkpt>
      <trkpt lat="46.30441" lon="5.86316">
        <ele>1128.6</ele>
        <time>2021-08-19T14:14:20Z</time>
      </trkpt>
      <trkpt lat="46.3044" lon="5.86316">
        <ele>1128.4</ele>
        <time>2021-08-19T14:14:21Z</time>
      </trkpt>
      <trkpt lat="46.30437" lon="5.86313">
        <ele>1125.9</ele>
        <time>2021-08-19T14:14:23Z</time>
      </trkpt>
      <trkpt lat="46.30434" lon="5.86308">
        <ele>1125.8</ele>
        <time>2021-08-19T14:14:25Z</time>
      </trkpt>
      <trkpt lat="46.30432" lon="5.86306">
        <ele>1125.7</ele>
        <time>2021-08-19T14:14:26Z</time>
      </trkpt>
      <trkpt lat="46.30431" lon="5.86306">
        <ele>1125.7</ele>
        <time>2021-08-19T14:14:28Z</time>
      </trkpt>
      <trkpt lat="46.30431" lon="5.86306">
        <ele>1125.7</ele>
        <time>2021-08-19T14:14:29Z</time>
      </trkpt>
      <trkpt lat="46.30431" lon="5.86306">
        <ele>1125.7</ele>
        <time>2021-08-19T14:14:31Z</time>
      </trkpt>
      <trkpt lat="46.30431" lon="5.86306">
        <ele>1125.7</ele>
        <time>2021-08-19T14:14:33Z</time>
      </trkpt>
      <trkpt lat="46.30431" lon="5.86306">
        <ele>1125.7</ele>
        <time>2021-08-19T14:14:34Z</time>
      </trkpt>
      <trkpt lat="46.30431" lon="5.86306">
        <ele>1125.7</ele>
        <time>2021-08-19T14:14:35Z</time>
      </trkpt>
      <trkpt lat="46.30431" lon="5.86306">
        <ele>1125.7</ele>
        <time>2021-08-19T14:14:37Z</time>
      </trkpt>
      <trkpt lat="46.3043" lon="5.86275">
        <ele>1124.9</ele>
        <time>2021-08-19T14:15:28Z</time>
      </trkpt>
      <trkpt lat="46.30431" lon="5.86265">
        <ele>1124.6</ele>
        <time>2021-08-19T14:15:30Z</time>
      </trkpt>
      <trkpt lat="46.30432" lon="5.86253">
        <ele>1124</ele>
        <time>2021-08-19T14:15:31Z</time>
      </trkpt>
      <trkpt lat="46.30431" lon="5.86241">
        <ele>1123.4</ele>
        <time>2021-08-19T14:15:33Z</time>
      </trkpt>
      <trkpt lat="46.3043" lon="5.86232">
        <ele>1122.9</ele>
        <time>2021-08-19T14:15:34Z</time>
      </trkpt>
      <trkpt lat="46.30427" lon="5.86227">
        <ele>1122.6</ele>
        <time>2021-08-19T14:15:35Z</time>
      </trkpt>
      <trkpt lat="46.30422" lon="5.8622">
        <ele>1122.2</ele>
        <time>2021-08-19T14:15:36Z</time>
      </trkpt>
      <trkpt lat="46.30417" lon="5.86216">
        <ele>1122</ele>
        <time>2021-08-19T14:15:37Z</time>
      </trkpt>
      <trkpt lat="46.30407" lon="5.86211">
        <ele>1121.9</ele>
        <time>2021-08-19T14:15:39Z</time>
      </trkpt>
      <trkpt lat="46.30402" lon="5.86209">
        <ele>1122</ele>
        <time>2021-08-19T14:15:40Z</time>
      </trkpt>
      <trkpt lat="46.30397" lon="5.86206">
        <ele>1122.2</ele>
        <time>2021-08-19T14:15:41Z</time>
      </trkpt>
      <trkpt lat="46.30388" lon="5.86203">
        <ele>1122.8</ele>
        <time>2021-08-19T14:15:43Z</time>
      </trkpt>
      <trkpt lat="46.30385" lon="5.86203">
        <ele>1123</ele>
        <time>2021-08-19T14:15:45Z</time>
      </trkpt>
      <trkpt lat="46.30383" lon="5.86205">
        <ele>1123.3</ele>
        <time>2021-08-19T14:15:46Z</time>
      </trkpt>
      <trkpt lat="46.30381" lon="5.86208">
        <ele>1123.5</ele>
        <time>2021-08-19T14:15:47Z</time>
      </trkpt>
      <trkpt lat="46.30379" lon="5.86212">
        <ele>1123.8</ele>
        <time>2021-08-19T14:15:49Z</time>
      </trkpt>
      <trkpt lat="46.30377" lon="5.86213">
        <ele>1124.1</ele>
        <time>2021-08-19T14:15:51Z</time>
      </trkpt>
      <trkpt lat="46.30376" lon="5.86213">
        <ele>1124.2</ele>
        <time>2021-08-19T14:15:52Z</time>
      </trkpt>
      <trkpt lat="46.30374" lon="5.86214">
        <ele>1124.3</ele>
        <time>2021-08-19T14:15:53Z</time>
      </trkpt>
      <trkpt lat="46.30372" lon="5.86216">
        <ele>1124.6</ele>
        <time>2021-08-19T14:15:55Z</time>
      </trkpt>
      <trkpt lat="46.30371" lon="5.86218">
        <ele>1124.7</ele>
        <time>2021-08-19T14:15:56Z</time>
      </trkpt>
      <trkpt lat="46.3037" lon="5.8622">
        <ele>1124.9</ele>
        <time>2021-08-19T14:15:57Z</time>
      </trkpt>
      <trkpt lat="46.30369" lon="5.86222">
        <ele>1125</ele>
        <time>2021-08-19T14:15:58Z</time>
      </trkpt>
      <trkpt lat="46.30368" lon="5.86224">
        <ele>1125.2</ele>
        <time>2021-08-19T14:15:59Z</time>
      </trkpt>
      <trkpt lat="46.30367" lon="5.86226">
        <ele>1125.3</ele>
        <time>2021-08-19T14:16:01Z</time>
      </trkpt>
      <trkpt lat="46.30366" lon="5.86227">
        <ele>1125.5</ele>
        <time>2021-08-19T14:16:02Z</time>
      </trkpt>
      <trkpt lat="46.30366" lon="5.86228">
        <ele>1125.6</ele>
        <time>2021-08-19T14:16:03Z</time>
      </trkpt>
      <trkpt lat="46.30365" lon="5.8623">
        <ele>1125.7</ele>
        <time>2021-08-19T14:16:04Z</time>
      </trkpt>
      <trkpt lat="46.30364" lon="5.86231">
        <ele>1125.8</ele>
        <time>2021-08-19T14:16:05Z</time>
      </trkpt>
      <trkpt lat="46.30362" lon="5.86231">
        <ele>1126</ele>
        <time>2021-08-19T14:16:06Z</time>
      </trkpt>
      <trkpt lat="46.30361" lon="5.86231">
        <ele>1126.1</ele>
        <time>2021-08-19T14:16:07Z</time>
      </trkpt>
      <trkpt lat="46.30358" lon="5.86231">
        <ele>1126.5</ele>
        <time>2021-08-19T14:16:09Z</time>
      </trkpt>
      <trkpt lat="46.30357" lon="5.86231">
        <ele>1126.6</ele>
        <time>2021-08-19T14:16:10Z</time>
      </trkpt>
      <trkpt lat="46.30355" lon="5.86233">
        <ele>1127</ele>
        <time>2021-08-19T14:16:12Z</time>
      </trkpt>
      <trkpt lat="46.30354" lon="5.86233">
        <ele>1127.1</ele>
        <time>2021-08-19T14:16:13Z</time>
      </trkpt>
      <trkpt lat="46.30352" lon="5.86233">
        <ele>1127.3</ele>
        <time>2021-08-19T14:16:14Z</time>
      </trkpt>
      <trkpt lat="46.30351" lon="5.86233">
        <ele>1127.4</ele>
        <time>2021-08-19T14:16:15Z</time>
      </trkpt>
      <trkpt lat="46.30349" lon="5.86232">
        <ele>1127.7</ele>
        <time>2021-08-19T14:16:16Z</time>
      </trkpt>
      <trkpt lat="46.30347" lon="5.86232">
        <ele>1127.9</ele>
        <time>2021-08-19T14:16:17Z</time>
      </trkpt>
      <trkpt lat="46.30343" lon="5.8623">
        <ele>1128.5</ele>
        <time>2021-08-19T14:16:19Z</time>
      </trkpt>
      <trkpt lat="46.30342" lon="5.86229">
        <ele>1128.7</ele>
        <time>2021-08-19T14:16:20Z</time>
      </trkpt>
      <trkpt lat="46.30341" lon="5.86228">
        <ele>1128.8</ele>
        <time>2021-08-19T14:16:21Z</time>
      </trkpt>
      <trkpt lat="46.30339" lon="5.86227">
        <ele>1129</ele>
        <time>2021-08-19T14:16:22Z</time>
      </trkpt>
      <trkpt lat="46.30339" lon="5.86227">
        <ele>1129.1</ele>
        <time>2021-08-19T14:16:23Z</time>
      </trkpt>
      <trkpt lat="46.30338" lon="5.86227">
        <ele>1129.1</ele>
        <time>2021-08-19T14:16:25Z</time>
      </trkpt>
      <trkpt lat="46.30338" lon="5.86227">
        <ele>1129.2</ele>
        <time>2021-08-19T14:16:26Z</time>
      </trkpt>
      <trkpt lat="46.30336" lon="5.86226">
        <ele>1129.5</ele>
        <time>2021-08-19T14:16:27Z</time>
      </trkpt>
      <trkpt lat="46.30335" lon="5.86226">
        <ele>1129.6</ele>
        <time>2021-08-19T14:16:28Z</time>
      </trkpt>
      <trkpt lat="46.30334" lon="5.86226">
        <ele>1129.6</ele>
        <time>2021-08-19T14:16:29Z</time>
      </trkpt>
      <trkpt lat="46.30334" lon="5.86226">
        <ele>1129.7</ele>
        <time>2021-08-19T14:16:31Z</time>
      </trkpt>
      <trkpt lat="46.30333" lon="5.86226">
        <ele>1129.8</ele>
        <time>2021-08-19T14:16:32Z</time>
      </trkpt>
      <trkpt lat="46.30333" lon="5.86225">
        <ele>1129.8</ele>
        <time>2021-08-19T14:16:34Z</time>
      </trkpt>
      <trkpt lat="46.30333" lon="5.86225">
        <ele>1129.8</ele>
        <time>2021-08-19T14:16:35Z</time>
      </trkpt>
      <trkpt lat="46.30333" lon="5.86225">
        <ele>1129.9</ele>
        <time>2021-08-19T14:16:37Z</time>
      </trkpt>
      <trkpt lat="46.30317" lon="5.8621">
        <ele>1131.9</ele>
        <time>2021-08-19T14:16:58Z</time>
      </trkpt>
      <trkpt lat="46.30315" lon="5.86207">
        <ele>1132.2</ele>
        <time>2021-08-19T14:16:59Z</time>
      </trkpt>
      <trkpt lat="46.30313" lon="5.86204">
        <ele>1132.5</ele>
        <time>2021-08-19T14:17:00Z</time>
      </trkpt>
      <trkpt lat="46.30312" lon="5.86203">
        <ele>1132.6</ele>
        <time>2021-08-19T14:17:01Z</time>
      </trkpt>
      <trkpt lat="46.3031" lon="5.86201">
        <ele>1132.8</ele>
        <time>2021-08-19T14:17:02Z</time>
      </trkpt>
      <trkpt lat="46.30308" lon="5.86199">
        <ele>1133.1</ele>
        <time>2021-08-19T14:17:04Z</time>
      </trkpt>
      <trkpt lat="46.30306" lon="5.86196">
        <ele>1133.4</ele>
        <time>2021-08-19T14:17:06Z</time>
      </trkpt>
      <trkpt lat="46.30305" lon="5.86195">
        <ele>1133.5</ele>
        <time>2021-08-19T14:17:07Z</time>
      </trkpt>
      <trkpt lat="46.30304" lon="5.86192">
        <ele>1133.7</ele>
        <time>2021-08-19T14:17:09Z</time>
      </trkpt>
      <trkpt lat="46.30303" lon="5.86191">
        <ele>1133.8</ele>
        <time>2021-08-19T14:17:10Z</time>
      </trkpt>
      <trkpt lat="46.30303" lon="5.8619">
        <ele>1133.9</ele>
        <time>2021-08-19T14:17:11Z</time>
      </trkpt>
      <trkpt lat="46.30302" lon="5.86189">
        <ele>1134</ele>
        <time>2021-08-19T14:17:12Z</time>
      </trkpt>
      <trkpt lat="46.30301" lon="5.86188">
        <ele>1134.1</ele>
        <time>2021-08-19T14:17:13Z</time>
      </trkpt>
      <trkpt lat="46.303" lon="5.86187">
        <ele>1134.3</ele>
        <time>2021-08-19T14:17:15Z</time>
      </trkpt>
      <trkpt lat="46.303" lon="5.86186">
        <ele>1134.3</ele>
        <time>2021-08-19T14:17:16Z</time>
      </trkpt>
      <trkpt lat="46.30299" lon="5.86185">
        <ele>1134.4</ele>
        <time>2021-08-19T14:17:17Z</time>
      </trkpt>
      <trkpt lat="46.30298" lon="5.86184">
        <ele>1134.6</ele>
        <time>2021-08-19T14:17:18Z</time>
      </trkpt>
      <trkpt lat="46.30296" lon="5.86183">
        <ele>1134.7</ele>
        <time>2021-08-19T14:17:19Z</time>
      </trkpt>
      <trkpt lat="46.30294" lon="5.86181">
        <ele>1135</ele>
        <time>2021-08-19T14:17:21Z</time>
      </trkpt>
      <trkpt lat="46.30292" lon="5.86179">
        <ele>1135.3</ele>
        <time>2021-08-19T14:17:22Z</time>
      </trkpt>
      <trkpt lat="46.30291" lon="5.86178">
        <ele>1135.4</ele>
        <time>2021-08-19T14:17:23Z</time>
      </trkpt>
      <trkpt lat="46.30286" lon="5.86175">
        <ele>1136</ele>
        <time>2021-08-19T14:17:25Z</time>
      </trkpt>
      <trkpt lat="46.30285" lon="5.86173">
        <ele>1136.2</ele>
        <time>2021-08-19T14:17:26Z</time>
      </trkpt>
      <trkpt lat="46.30284" lon="5.86172">
        <ele>1136.4</ele>
        <time>2021-08-19T14:17:27Z</time>
      </trkpt>
      <trkpt lat="46.30281" lon="5.86169">
        <ele>1136.7</ele>
        <time>2021-08-19T14:17:29Z</time>
      </trkpt>
      <trkpt lat="46.30281" lon="5.86169">
        <ele>1136.8</ele>
        <time>2021-08-19T14:17:30Z</time>
      </trkpt>
      <trkpt lat="46.3028" lon="5.86168">
        <ele>1136.9</ele>
        <time>2021-08-19T14:17:31Z</time>
      </trkpt>
      <trkpt lat="46.30279" lon="5.86167">
        <ele>1137.1</ele>
        <time>2021-08-19T14:17:33Z</time>
      </trkpt>
      <trkpt lat="46.30278" lon="5.86167">
        <ele>1137.2</ele>
        <time>2021-08-19T14:17:34Z</time>
      </trkpt>
      <trkpt lat="46.30278" lon="5.86167">
        <ele>1137.2</ele>
        <time>2021-08-19T14:17:35Z</time>
      </trkpt>
      <trkpt lat="46.30276" lon="5.86167">
        <ele>1137.4</ele>
        <time>2021-08-19T14:17:37Z</time>
      </trkpt>
      <trkpt lat="46.30275" lon="5.86168">
        <ele>1137.5</ele>
        <time>2021-08-19T14:17:38Z</time>
      </trkpt>
      <trkpt lat="46.30275" lon="5.86168">
        <ele>1137.5</ele>
        <time>2021-08-19T14:17:39Z</time>
      </trkpt>
      <trkpt lat="46.30275" lon="5.86169">
        <ele>1137.6</ele>
        <time>2021-08-19T14:17:40Z</time>
      </trkpt>
      <trkpt lat="46.30274" lon="5.86169">
        <ele>1137.7</ele>
        <time>2021-08-19T14:17:41Z</time>
      </trkpt>
      <trkpt lat="46.30273" lon="5.8617">
        <ele>1137.8</ele>
        <time>2021-08-19T14:17:43Z</time>
      </trkpt>
      <trkpt lat="46.30273" lon="5.8617">
        <ele>1137.9</ele>
        <time>2021-08-19T14:17:44Z</time>
      </trkpt>
      <trkpt lat="46.30271" lon="5.86172">
        <ele>1138.2</ele>
        <time>2021-08-19T14:17:45Z</time>
      </trkpt>
      <trkpt lat="46.30269" lon="5.86174">
        <ele>1138.4</ele>
        <time>2021-08-19T14:17:46Z</time>
      </trkpt>
      <trkpt lat="46.30268" lon="5.86176">
        <ele>1138.6</ele>
        <time>2021-08-19T14:17:47Z</time>
      </trkpt>
      <trkpt lat="46.30267" lon="5.86178">
        <ele>1138.9</ele>
        <time>2021-08-19T14:17:53Z</time>
      </trkpt>
      <trkpt lat="46.30265" lon="5.8618">
        <ele>1139.1</ele>
        <time>2021-08-19T14:17:55Z</time>
      </trkpt>
      <trkpt lat="46.30264" lon="5.86181">
        <ele>1139.3</ele>
        <time>2021-08-19T14:17:56Z</time>
      </trkpt>
      <trkpt lat="46.30262" lon="5.86183">
        <ele>1139.4</ele>
        <time>2021-08-19T14:17:57Z</time>
      </trkpt>
      <trkpt lat="46.3026" lon="5.86188">
        <ele>1139.8</ele>
        <time>2021-08-19T14:17:58Z</time>
      </trkpt>
      <trkpt lat="46.3026" lon="5.86189">
        <ele>1139.9</ele>
        <time>2021-08-19T14:17:59Z</time>
      </trkpt>
      <trkpt lat="46.30257" lon="5.86195">
        <ele>1140.4</ele>
        <time>2021-08-19T14:18:01Z</time>
      </trkpt>
      <trkpt lat="46.30256" lon="5.86197">
        <ele>1140.6</ele>
        <time>2021-08-19T14:18:02Z</time>
      </trkpt>
      <trkpt lat="46.30255" lon="5.86198">
        <ele>1140.7</ele>
        <time>2021-08-19T14:18:03Z</time>
      </trkpt>
      <trkpt lat="46.30254" lon="5.862">
        <ele>1140.9</ele>
        <time>2021-08-19T14:18:04Z</time>
      </trkpt>
      <trkpt lat="46.30253" lon="5.86202">
        <ele>1141.1</ele>
        <time>2021-08-19T14:18:05Z</time>
      </trkpt>
      <trkpt lat="46.30251" lon="5.86205">
        <ele>1141.4</ele>
        <time>2021-08-19T14:18:06Z</time>
      </trkpt>
      <trkpt lat="46.3025" lon="5.86206">
        <ele>1141.5</ele>
        <time>2021-08-19T14:18:07Z</time>
      </trkpt>
      <trkpt lat="46.30249" lon="5.86209">
        <ele>1141.7</ele>
        <time>2021-08-19T14:18:08Z</time>
      </trkpt>
      <trkpt lat="46.30247" lon="5.86213">
        <ele>1142</ele>
        <time>2021-08-19T14:18:10Z</time>
      </trkpt>
      <trkpt lat="46.30247" lon="5.86215">
        <ele>1142.2</ele>
        <time>2021-08-19T14:18:12Z</time>
      </trkpt>
      <trkpt lat="46.30246" lon="5.86217">
        <ele>1142.3</ele>
        <time>2021-08-19T14:18:13Z</time>
      </trkpt>
      <trkpt lat="46.30245" lon="5.86218">
        <ele>1142.4</ele>
        <time>2021-08-19T14:18:14Z</time>
      </trkpt>
      <trkpt lat="46.30243" lon="5.86219">
        <ele>1142.6</ele>
        <time>2021-08-19T14:18:15Z</time>
      </trkpt>
      <trkpt lat="46.30242" lon="5.8622">
        <ele>1142.7</ele>
        <time>2021-08-19T14:18:16Z</time>
      </trkpt>
      <trkpt lat="46.30241" lon="5.86221">
        <ele>1142.8</ele>
        <time>2021-08-19T14:18:17Z</time>
      </trkpt>
      <trkpt lat="46.30241" lon="5.86222">
        <ele>1142.9</ele>
        <time>2021-08-19T14:18:18Z</time>
      </trkpt>
      <trkpt lat="46.30239" lon="5.86222">
        <ele>1143</ele>
        <time>2021-08-19T14:18:19Z</time>
      </trkpt>
      <trkpt lat="46.30238" lon="5.86222">
        <ele>1143.1</ele>
        <time>2021-08-19T14:18:21Z</time>
      </trkpt>
      <trkpt lat="46.30238" lon="5.86222">
        <ele>1143.2</ele>
        <time>2021-08-19T14:18:22Z</time>
      </trkpt>
      <trkpt lat="46.30237" lon="5.86222">
        <ele>1143.3</ele>
        <time>2021-08-19T14:18:23Z</time>
      </trkpt>
      <trkpt lat="46.30235" lon="5.86222">
        <ele>1143.4</ele>
        <time>2021-08-19T14:18:24Z</time>
      </trkpt>
      <trkpt lat="46.30233" lon="5.86223">
        <ele>1143.6</ele>
        <time>2021-08-19T14:18:25Z</time>
      </trkpt>
      <trkpt lat="46.3023" lon="5.86222">
        <ele>1143.9</ele>
        <time>2021-08-19T14:18:27Z</time>
      </trkpt>
      <trkpt lat="46.30229" lon="5.86222">
        <ele>1144</ele>
        <time>2021-08-19T14:18:28Z</time>
      </trkpt>
      <trkpt lat="46.30227" lon="5.86222">
        <ele>1144.1</ele>
        <time>2021-08-19T14:18:29Z</time>
      </trkpt>
      <trkpt lat="46.30225" lon="5.86222">
        <ele>1144.4</ele>
        <time>2021-08-19T14:18:31Z</time>
      </trkpt>
      <trkpt lat="46.30224" lon="5.86222">
        <ele>1144.5</ele>
        <time>2021-08-19T14:18:32Z</time>
      </trkpt>
      <trkpt lat="46.30224" lon="5.86222">
        <ele>1144.5</ele>
        <time>2021-08-19T14:18:34Z</time>
      </trkpt>
      <trkpt lat="46.30221" lon="5.86222">
        <ele>1144.7</ele>
        <time>2021-08-19T14:18:36Z</time>
      </trkpt>
      <trkpt lat="46.3022" lon="5.86221">
        <ele>1144.9</ele>
        <time>2021-08-19T14:18:37Z</time>
      </trkpt>
      <trkpt lat="46.30218" lon="5.86219">
        <ele>1145.1</ele>
        <time>2021-08-19T14:18:39Z</time>
      </trkpt>
      <trkpt lat="46.30215" lon="5.86216">
        <ele>1145.4</ele>
        <time>2021-08-19T14:18:40Z</time>
      </trkpt>
      <trkpt lat="46.30215" lon="5.86216">
        <ele>1145.5</ele>
        <time>2021-08-19T14:18:41Z</time>
      </trkpt>
      <trkpt lat="46.30212" lon="5.86214">
        <ele>1145.8</ele>
        <time>2021-08-19T14:18:42Z</time>
      </trkpt>
      <trkpt lat="46.30211" lon="5.86213">
        <ele>1145.9</ele>
        <time>2021-08-19T14:18:43Z</time>
      </trkpt>
      <trkpt lat="46.30209" lon="5.8621">
        <ele>1146.2</ele>
        <time>2021-08-19T14:18:45Z</time>
      </trkpt>
      <trkpt lat="46.30207" lon="5.86209">
        <ele>1146.3</ele>
        <time>2021-08-19T14:18:46Z</time>
      </trkpt>
      <trkpt lat="46.30206" lon="5.86208">
        <ele>1146.4</ele>
        <time>2021-08-19T14:18:47Z</time>
      </trkpt>
      <trkpt lat="46.30203" lon="5.86205">
        <ele>1146.7</ele>
        <time>2021-08-19T14:18:49Z</time>
      </trkpt>
      <trkpt lat="46.30202" lon="5.86203">
        <ele>1146.8</ele>
        <time>2021-08-19T14:18:50Z</time>
      </trkpt>
      <trkpt lat="46.30198" lon="5.86199">
        <ele>1147.2</ele>
        <time>2021-08-19T14:18:52Z</time>
      </trkpt>
      <trkpt lat="46.30197" lon="5.86198">
        <ele>1147.3</ele>
        <time>2021-08-19T14:18:53Z</time>
      </trkpt>
      <trkpt lat="46.30194" lon="5.86196">
        <ele>1147.5</ele>
        <time>2021-08-19T14:18:55Z</time>
      </trkpt>
      <trkpt lat="46.30192" lon="5.86194">
        <ele>1147.7</ele>
        <time>2021-08-19T14:18:56Z</time>
      </trkpt>
      <trkpt lat="46.3019" lon="5.8619">
        <ele>1147.9</ele>
        <time>2021-08-19T14:18:58Z</time>
      </trkpt>
      <trkpt lat="46.3019" lon="5.86188">
        <ele>1148</ele>
        <time>2021-08-19T14:18:59Z</time>
      </trkpt>
      <trkpt lat="46.30189" lon="5.86187">
        <ele>1148.1</ele>
        <time>2021-08-19T14:19:00Z</time>
      </trkpt>
      <trkpt lat="46.30189" lon="5.86185">
        <ele>1148.2</ele>
        <time>2021-08-19T14:19:02Z</time>
      </trkpt>
      <trkpt lat="46.30188" lon="5.86183">
        <ele>1148.4</ele>
        <time>2021-08-19T14:19:03Z</time>
      </trkpt>
      <trkpt lat="46.30187" lon="5.86182">
        <ele>1148.5</ele>
        <time>2021-08-19T14:19:04Z</time>
      </trkpt>
      <trkpt lat="46.30186" lon="5.8618">
        <ele>1148.6</ele>
        <time>2021-08-19T14:19:05Z</time>
      </trkpt>
      <trkpt lat="46.30185" lon="5.86179">
        <ele>1148.7</ele>
        <time>2021-08-19T14:19:06Z</time>
      </trkpt>
      <trkpt lat="46.30184" lon="5.86177">
        <ele>1148.8</ele>
        <time>2021-08-19T14:19:07Z</time>
      </trkpt>
      <trkpt lat="46.30183" lon="5.86174">
        <ele>1149</ele>
        <time>2021-08-19T14:19:09Z</time>
      </trkpt>
      <trkpt lat="46.30182" lon="5.86172">
        <ele>1149.1</ele>
        <time>2021-08-19T14:19:10Z</time>
      </trkpt>
      <trkpt lat="46.30182" lon="5.8617">
        <ele>1149.3</ele>
        <time>2021-08-19T14:19:11Z</time>
      </trkpt>
      <trkpt lat="46.30182" lon="5.86168">
        <ele>1149.4</ele>
        <time>2021-08-19T14:19:12Z</time>
      </trkpt>
      <trkpt lat="46.30183" lon="5.86166">
        <ele>1149.6</ele>
        <time>2021-08-19T14:19:13Z</time>
      </trkpt>
      <trkpt lat="46.30183" lon="5.86162">
        <ele>1149.8</ele>
        <time>2021-08-19T14:19:15Z</time>
      </trkpt>
      <trkpt lat="46.30182" lon="5.86159">
        <ele>1150</ele>
        <time>2021-08-19T14:19:16Z</time>
      </trkpt>
      <trkpt lat="46.30182" lon="5.86157">
        <ele>1150.1</ele>
        <time>2021-08-19T14:19:17Z</time>
      </trkpt>
      <trkpt lat="46.30181" lon="5.86153">
        <ele>1150.3</ele>
        <time>2021-08-19T14:19:18Z</time>
      </trkpt>
      <trkpt lat="46.30181" lon="5.86152">
        <ele>1150.4</ele>
        <time>2021-08-19T14:19:19Z</time>
      </trkpt>
      <trkpt lat="46.30181" lon="5.86149">
        <ele>1150.5</ele>
        <time>2021-08-19T14:19:20Z</time>
      </trkpt>
      <trkpt lat="46.3018" lon="5.86146">
        <ele>1150.8</ele>
        <time>2021-08-19T14:19:22Z</time>
      </trkpt>
      <trkpt lat="46.30179" lon="5.86145">
        <ele>1150.9</ele>
        <time>2021-08-19T14:19:23Z</time>
      </trkpt>
      <trkpt lat="46.30177" lon="5.86141">
        <ele>1151.1</ele>
        <time>2021-08-19T14:19:25Z</time>
      </trkpt>
      <trkpt lat="46.30174" lon="5.86136">
        <ele>1151.5</ele>
        <time>2021-08-19T14:19:27Z</time>
      </trkpt>
      <trkpt lat="46.30173" lon="5.86134">
        <ele>1151.7</ele>
        <time>2021-08-19T14:19:28Z</time>
      </trkpt>
      <trkpt lat="46.30173" lon="5.86132">
        <ele>1151.8</ele>
        <time>2021-08-19T14:19:29Z</time>
      </trkpt>
      <trkpt lat="46.3017" lon="5.86126">
        <ele>1152.2</ele>
        <time>2021-08-19T14:19:31Z</time>
      </trkpt>
      <trkpt lat="46.30169" lon="5.86124">
        <ele>1152.3</ele>
        <time>2021-08-19T14:19:33Z</time>
      </trkpt>
      <trkpt lat="46.30168" lon="5.86122">
        <ele>1152.4</ele>
        <time>2021-08-19T14:19:34Z</time>
      </trkpt>
      <trkpt lat="46.30165" lon="5.8612">
        <ele>1152.8</ele>
        <time>2021-08-19T14:19:35Z</time>
      </trkpt>
      <trkpt lat="46.30163" lon="5.86117">
        <ele>1153</ele>
        <time>2021-08-19T14:19:37Z</time>
      </trkpt>
      <trkpt lat="46.30161" lon="5.86114">
        <ele>1153.3</ele>
        <time>2021-08-19T14:19:39Z</time>
      </trkpt>
      <trkpt lat="46.30157" lon="5.86112">
        <ele>1153.8</ele>
        <time>2021-08-19T14:19:41Z</time>
      </trkpt>
      <trkpt lat="46.30155" lon="5.86112">
        <ele>1154</ele>
        <time>2021-08-19T14:19:42Z</time>
      </trkpt>
      <trkpt lat="46.30153" lon="5.86112">
        <ele>1154.2</ele>
        <time>2021-08-19T14:19:44Z</time>
      </trkpt>
      <trkpt lat="46.30151" lon="5.86112">
        <ele>1154.3</ele>
        <time>2021-08-19T14:19:45Z</time>
      </trkpt>
      <trkpt lat="46.30151" lon="5.86113">
        <ele>1154.4</ele>
        <time>2021-08-19T14:19:46Z</time>
      </trkpt>
      <trkpt lat="46.30151" lon="5.86113">
        <ele>1154.4</ele>
        <time>2021-08-19T14:19:47Z</time>
      </trkpt>
      <trkpt lat="46.3015" lon="5.86113">
        <ele>1154.4</ele>
        <time>2021-08-19T14:19:48Z</time>
      </trkpt>
      <trkpt lat="46.3015" lon="5.86113">
        <ele>1154.5</ele>
        <time>2021-08-19T14:19:50Z</time>
      </trkpt>
      <trkpt lat="46.30148" lon="5.86113">
        <ele>1154.6</ele>
        <time>2021-08-19T14:19:51Z</time>
      </trkpt>
      <trkpt lat="46.30147" lon="5.86113">
        <ele>1154.8</ele>
        <time>2021-08-19T14:19:52Z</time>
      </trkpt>
      <trkpt lat="46.30146" lon="5.86114">
        <ele>1154.9</ele>
        <time>2021-08-19T14:19:54Z</time>
      </trkpt>
      <trkpt lat="46.30145" lon="5.86114">
        <ele>1155.1</ele>
        <time>2021-08-19T14:19:55Z</time>
      </trkpt>
      <trkpt lat="46.30118" lon="5.86161">
        <ele>1160.1</ele>
        <time>2021-08-19T14:21:41Z</time>
      </trkpt>
      <trkpt lat="46.30118" lon="5.86164">
        <ele>1160.4</ele>
        <time>2021-08-19T14:21:42Z</time>
      </trkpt>
      <trkpt lat="46.30116" lon="5.86169">
        <ele>1160.8</ele>
        <time>2021-08-19T14:21:44Z</time>
      </trkpt>
      <trkpt lat="46.30113" lon="5.86174">
        <ele>1161.3</ele>
        <time>2021-08-19T14:21:45Z</time>
      </trkpt>
      <trkpt lat="46.30111" lon="5.86178">
        <ele>1161.6</ele>
        <time>2021-08-19T14:21:46Z</time>
      </trkpt>
      <trkpt lat="46.3011" lon="5.8618">
        <ele>1161.8</ele>
        <time>2021-08-19T14:21:47Z</time>
      </trkpt>
      <trkpt lat="46.30109" lon="5.86182">
        <ele>1162</ele>
        <time>2021-08-19T14:21:48Z</time>
      </trkpt>
      <trkpt lat="46.30106" lon="5.86182">
        <ele>1162.3</ele>
        <time>2021-08-19T14:21:50Z</time>
      </trkpt>
      <trkpt lat="46.30105" lon="5.86182">
        <ele>1162.3</ele>
        <time>2021-08-19T14:21:51Z</time>
      </trkpt>
      <trkpt lat="46.30103" lon="5.86182">
        <ele>1162.5</ele>
        <time>2021-08-19T14:21:52Z</time>
      </trkpt>
      <trkpt lat="46.30103" lon="5.86181">
        <ele>1162.6</ele>
        <time>2021-08-19T14:21:53Z</time>
      </trkpt>
      <trkpt lat="46.30103" lon="5.86177">
        <ele>1162.8</ele>
        <time>2021-08-19T14:21:55Z</time>
      </trkpt>
      <trkpt lat="46.30101" lon="5.86178">
        <ele>1162.9</ele>
        <time>2021-08-19T14:21:56Z</time>
      </trkpt>
      <trkpt lat="46.30101" lon="5.86178">
        <ele>1163</ele>
        <time>2021-08-19T14:21:57Z</time>
      </trkpt>
      <trkpt lat="46.301" lon="5.86178">
        <ele>1163</ele>
        <time>2021-08-19T14:21:59Z</time>
      </trkpt>
      <trkpt lat="46.301" lon="5.86178">
        <ele>1163</ele>
        <time>2021-08-19T14:22:00Z</time>
      </trkpt>
      <trkpt lat="46.301" lon="5.86179">
        <ele>1163</ele>
        <time>2021-08-19T14:22:01Z</time>
      </trkpt>
      <trkpt lat="46.301" lon="5.86179">
        <ele>1163.1</ele>
        <time>2021-08-19T14:22:03Z</time>
      </trkpt>
      <trkpt lat="46.30099" lon="5.8618">
        <ele>1163.1</ele>
        <time>2021-08-19T14:22:04Z</time>
      </trkpt>
      <trkpt lat="46.30099" lon="5.8618">
        <ele>1163.2</ele>
        <time>2021-08-19T14:22:05Z</time>
      </trkpt>
      <trkpt lat="46.30099" lon="5.86181">
        <ele>1163.2</ele>
        <time>2021-08-19T14:22:06Z</time>
      </trkpt>
      <trkpt lat="46.30098" lon="5.86182">
        <ele>1163.3</ele>
        <time>2021-08-19T14:22:08Z</time>
      </trkpt>
      <trkpt lat="46.30092" lon="5.86187">
        <ele>1163.9</ele>
        <time>2021-08-19T14:22:14Z</time>
      </trkpt>
      <trkpt lat="46.30091" lon="5.86188">
        <ele>1164</ele>
        <time>2021-08-19T14:22:15Z</time>
      </trkpt>
      <trkpt lat="46.30089" lon="5.8619">
        <ele>1164.1</ele>
        <time>2021-08-19T14:22:16Z</time>
      </trkpt>
      <trkpt lat="46.30088" lon="5.86191">
        <ele>1164.3</ele>
        <time>2021-08-19T14:22:18Z</time>
      </trkpt>
      <trkpt lat="46.30087" lon="5.86191">
        <ele>1164.3</ele>
        <time>2021-08-19T14:22:19Z</time>
      </trkpt>
      <trkpt lat="46.30086" lon="5.86191">
        <ele>1164.4</ele>
        <time>2021-08-19T14:22:21Z</time>
      </trkpt>
      <trkpt lat="46.30086" lon="5.86192">
        <ele>1164.4</ele>
        <time>2021-08-19T14:22:22Z</time>
      </trkpt>
      <trkpt lat="46.30086" lon="5.86192">
        <ele>1164.4</ele>
        <time>2021-08-19T14:22:24Z</time>
      </trkpt>
      <trkpt lat="46.30086" lon="5.86192">
        <ele>1164.4</ele>
        <time>2021-08-19T14:22:26Z</time>
      </trkpt>
      <trkpt lat="46.30086" lon="5.86192">
        <ele>1164.4</ele>
        <time>2021-08-19T14:22:28Z</time>
      </trkpt>
      <trkpt lat="46.30086" lon="5.86192">
        <ele>1164.4</ele>
        <time>2021-08-19T14:22:29Z</time>
      </trkpt>
      <trkpt lat="46.30086" lon="5.86192">
        <ele>1164.5</ele>
        <time>2021-08-19T14:22:31Z</time>
      </trkpt>
      <trkpt lat="46.30085" lon="5.86193">
        <ele>1164.5</ele>
        <time>2021-08-19T14:22:32Z</time>
      </trkpt>
      <trkpt lat="46.30081" lon="5.86196">
        <ele>1164.9</ele>
        <time>2021-08-19T14:22:37Z</time>
      </trkpt>
      <trkpt lat="46.30078" lon="5.86197">
        <ele>1165.1</ele>
        <time>2021-08-19T14:22:38Z</time>
      </trkpt>
      <trkpt lat="46.30076" lon="5.86198">
        <ele>1165.2</ele>
        <time>2021-08-19T14:22:39Z</time>
      </trkpt>
      <trkpt lat="46.30075" lon="5.86199">
        <ele>1165.3</ele>
        <time>2021-08-19T14:22:40Z</time>
      </trkpt>
      <trkpt lat="46.30072" lon="5.86201">
        <ele>1165.4</ele>
        <time>2021-08-19T14:22:41Z</time>
      </trkpt>
      <trkpt lat="46.30072" lon="5.86202">
        <ele>1165.5</ele>
        <time>2021-08-19T14:22:42Z</time>
      </trkpt>
      <trkpt lat="46.3007" lon="5.86203">
        <ele>1165.6</ele>
        <time>2021-08-19T14:22:43Z</time>
      </trkpt>
      <trkpt lat="46.30068" lon="5.86206">
        <ele>1165.7</ele>
        <time>2021-08-19T14:22:45Z</time>
      </trkpt>
      <trkpt lat="46.30066" lon="5.86207">
        <ele>1165.8</ele>
        <time>2021-08-19T14:22:46Z</time>
      </trkpt>
      <trkpt lat="46.30065" lon="5.86207">
        <ele>1165.9</ele>
        <time>2021-08-19T14:22:47Z</time>
      </trkpt>
      <trkpt lat="46.30064" lon="5.86207">
        <ele>1165.9</ele>
        <time>2021-08-19T14:22:48Z</time>
      </trkpt>
      <trkpt lat="46.30063" lon="5.86207">
        <ele>1166</ele>
        <time>2021-08-19T14:22:49Z</time>
      </trkpt>
      <trkpt lat="46.30061" lon="5.86207">
        <ele>1166.1</ele>
        <time>2021-08-19T14:22:50Z</time>
      </trkpt>
      <trkpt lat="46.3006" lon="5.86207">
        <ele>1166.2</ele>
        <time>2021-08-19T14:22:52Z</time>
      </trkpt>
      <trkpt lat="46.30058" lon="5.86208">
        <ele>1166.3</ele>
        <time>2021-08-19T14:22:53Z</time>
      </trkpt>
      <trkpt lat="46.30056" lon="5.8621">
        <ele>1166.4</ele>
        <time>2021-08-19T14:22:55Z</time>
      </trkpt>
      <trkpt lat="46.30055" lon="5.86212">
        <ele>1166.5</ele>
        <time>2021-08-19T14:22:56Z</time>
      </trkpt>
      <trkpt lat="46.30054" lon="5.86213">
        <ele>1166.6</ele>
        <time>2021-08-19T14:22:57Z</time>
      </trkpt>
      <trkpt lat="46.30052" lon="5.86216">
        <ele>1166.7</ele>
        <time>2021-08-19T14:22:59Z</time>
      </trkpt>
      <trkpt lat="46.30051" lon="5.86218">
        <ele>1166.8</ele>
        <time>2021-08-19T14:23:00Z</time>
      </trkpt>
      <trkpt lat="46.3005" lon="5.86219">
        <ele>1166.9</ele>
        <time>2021-08-19T14:23:01Z</time>
      </trkpt>
      <trkpt lat="46.30048" lon="5.86221">
        <ele>1167</ele>
        <time>2021-08-19T14:23:03Z</time>
      </trkpt>
      <trkpt lat="46.30047" lon="5.86223">
        <ele>1167.1</ele>
        <time>2021-08-19T14:23:04Z</time>
      </trkpt>
      <trkpt lat="46.30046" lon="5.86225">
        <ele>1167.2</ele>
        <time>2021-08-19T14:23:05Z</time>
      </trkpt>
      <trkpt lat="46.30045" lon="5.86229">
        <ele>1167.4</ele>
        <time>2021-08-19T14:23:07Z</time>
      </trkpt>
      <trkpt lat="46.30043" lon="5.86231">
        <ele>1167.6</ele>
        <time>2021-08-19T14:23:08Z</time>
      </trkpt>
      <trkpt lat="46.30042" lon="5.86232">
        <ele>1167.6</ele>
        <time>2021-08-19T14:23:09Z</time>
      </trkpt>
      <trkpt lat="46.30042" lon="5.86233">
        <ele>1167.7</ele>
        <time>2021-08-19T14:23:10Z</time>
      </trkpt>
      <trkpt lat="46.3004" lon="5.86234">
        <ele>1167.7</ele>
        <time>2021-08-19T14:23:11Z</time>
      </trkpt>
      <trkpt lat="46.30038" lon="5.86237">
        <ele>1168</ele>
        <time>2021-08-19T14:23:13Z</time>
      </trkpt>
      <trkpt lat="46.30036" lon="5.86238">
        <ele>1168.1</ele>
        <time>2021-08-19T14:23:14Z</time>
      </trkpt>
      <trkpt lat="46.30035" lon="5.86239">
        <ele>1168.1</ele>
        <time>2021-08-19T14:23:15Z</time>
      </trkpt>
      <trkpt lat="46.30033" lon="5.86241">
        <ele>1168.3</ele>
        <time>2021-08-19T14:23:16Z</time>
      </trkpt>
      <trkpt lat="46.30031" lon="5.86241">
        <ele>1168.4</ele>
        <time>2021-08-19T14:23:18Z</time>
      </trkpt>
      <trkpt lat="46.30028" lon="5.86242">
        <ele>1168.5</ele>
        <time>2021-08-19T14:23:19Z</time>
      </trkpt>
      <trkpt lat="46.30026" lon="5.86242">
        <ele>1168.7</ele>
        <time>2021-08-19T14:23:21Z</time>
      </trkpt>
      <trkpt lat="46.30023" lon="5.86245">
        <ele>1168.8</ele>
        <time>2021-08-19T14:23:23Z</time>
      </trkpt>
      <trkpt lat="46.30022" lon="5.86245">
        <ele>1168.9</ele>
        <time>2021-08-19T14:23:24Z</time>
      </trkpt>
      <trkpt lat="46.3002" lon="5.86247">
        <ele>1169</ele>
        <time>2021-08-19T14:23:26Z</time>
      </trkpt>
      <trkpt lat="46.30017" lon="5.86248">
        <ele>1169.2</ele>
        <time>2021-08-19T14:23:28Z</time>
      </trkpt>
      <trkpt lat="46.30015" lon="5.8625">
        <ele>1169.3</ele>
        <time>2021-08-19T14:23:29Z</time>
      </trkpt>
      <trkpt lat="46.30013" lon="5.86252">
        <ele>1169.4</ele>
        <time>2021-08-19T14:23:31Z</time>
      </trkpt>
      <trkpt lat="46.30011" lon="5.86254">
        <ele>1169.5</ele>
        <time>2021-08-19T14:23:32Z</time>
      </trkpt>
      <trkpt lat="46.30008" lon="5.86256">
        <ele>1169.7</ele>
        <time>2021-08-19T14:23:34Z</time>
      </trkpt>
      <trkpt lat="46.30007" lon="5.86259">
        <ele>1169.8</ele>
        <time>2021-08-19T14:23:35Z</time>
      </trkpt>
      <trkpt lat="46.30003" lon="5.86261">
        <ele>1170</ele>
        <time>2021-08-19T14:23:37Z</time>
      </trkpt>
      <trkpt lat="46.30002" lon="5.86262">
        <ele>1170</ele>
        <time>2021-08-19T14:23:38Z</time>
      </trkpt>
      <trkpt lat="46.3" lon="5.86263">
        <ele>1170.1</ele>
        <time>2021-08-19T14:23:39Z</time>
      </trkpt>
      <trkpt lat="46.29998" lon="5.86263">
        <ele>1170.2</ele>
        <time>2021-08-19T14:23:40Z</time>
      </trkpt>
      <trkpt lat="46.29997" lon="5.86263">
        <ele>1170.3</ele>
        <time>2021-08-19T14:23:41Z</time>
      </trkpt>
      <trkpt lat="46.29994" lon="5.86265">
        <ele>1170.4</ele>
        <time>2021-08-19T14:23:43Z</time>
      </trkpt>
      <trkpt lat="46.29994" lon="5.86266">
        <ele>1170.5</ele>
        <time>2021-08-19T14:23:44Z</time>
      </trkpt>
      <trkpt lat="46.29992" lon="5.86269">
        <ele>1170.6</ele>
        <time>2021-08-19T14:23:45Z</time>
      </trkpt>
      <trkpt lat="46.29991" lon="5.8627">
        <ele>1170.6</ele>
        <time>2021-08-19T14:23:46Z</time>
      </trkpt>
      <trkpt lat="46.29989" lon="5.86272">
        <ele>1170.8</ele>
        <time>2021-08-19T14:23:47Z</time>
      </trkpt>
      <trkpt lat="46.29989" lon="5.86273">
        <ele>1170.8</ele>
        <time>2021-08-19T14:23:48Z</time>
      </trkpt>
      <trkpt lat="46.29988" lon="5.86274">
        <ele>1170.8</ele>
        <time>2021-08-19T14:23:49Z</time>
      </trkpt>
      <trkpt lat="46.29985" lon="5.86279">
        <ele>1171.1</ele>
        <time>2021-08-19T14:23:51Z</time>
      </trkpt>
      <trkpt lat="46.29984" lon="5.86281">
        <ele>1171.1</ele>
        <time>2021-08-19T14:23:52Z</time>
      </trkpt>
      <trkpt lat="46.29984" lon="5.86282">
        <ele>1171.2</ele>
        <time>2021-08-19T14:23:53Z</time>
      </trkpt>
      <trkpt lat="46.29982" lon="5.86287">
        <ele>1171.4</ele>
        <time>2021-08-19T14:23:54Z</time>
      </trkpt>
      <trkpt lat="46.29982" lon="5.86288">
        <ele>1171.4</ele>
        <time>2021-08-19T14:23:55Z</time>
      </trkpt>
      <trkpt lat="46.29981" lon="5.86292">
        <ele>1171.5</ele>
        <time>2021-08-19T14:23:56Z</time>
      </trkpt>
      <trkpt lat="46.2998" lon="5.86293">
        <ele>1171.6</ele>
        <time>2021-08-19T14:23:57Z</time>
      </trkpt>
      <trkpt lat="46.29978" lon="5.86295">
        <ele>1171.7</ele>
        <time>2021-08-19T14:23:59Z</time>
      </trkpt>
      <trkpt lat="46.29977" lon="5.86298">
        <ele>1171.8</ele>
        <time>2021-08-19T14:24:00Z</time>
      </trkpt>
      <trkpt lat="46.29976" lon="5.86299">
        <ele>1171.9</ele>
        <time>2021-08-19T14:24:01Z</time>
      </trkpt>
      <trkpt lat="46.29972" lon="5.86301">
        <ele>1172</ele>
        <time>2021-08-19T14:24:03Z</time>
      </trkpt>
      <trkpt lat="46.29972" lon="5.86302">
        <ele>1172.1</ele>
        <time>2021-08-19T14:24:04Z</time>
      </trkpt>
      <trkpt lat="46.2997" lon="5.86303">
        <ele>1172.2</ele>
        <time>2021-08-19T14:24:05Z</time>
      </trkpt>
      <trkpt lat="46.29967" lon="5.86303">
        <ele>1172.3</ele>
        <time>2021-08-19T14:24:07Z</time>
      </trkpt>
      <trkpt lat="46.29965" lon="5.86304">
        <ele>1172.4</ele>
        <time>2021-08-19T14:24:08Z</time>
      </trkpt>
      <trkpt lat="46.29964" lon="5.86305">
        <ele>1172.4</ele>
        <time>2021-08-19T14:24:09Z</time>
      </trkpt>
      <trkpt lat="46.29959" lon="5.86305">
        <ele>1172.7</ele>
        <time>2021-08-19T14:24:11Z</time>
      </trkpt>
      <trkpt lat="46.29957" lon="5.86305">
        <ele>1172.7</ele>
        <time>2021-08-19T14:24:12Z</time>
      </trkpt>
      <trkpt lat="46.29955" lon="5.86305">
        <ele>1172.8</ele>
        <time>2021-08-19T14:24:13Z</time>
      </trkpt>
      <trkpt lat="46.29951" lon="5.86307">
        <ele>1173</ele>
        <time>2021-08-19T14:24:15Z</time>
      </trkpt>
      <trkpt lat="46.2995" lon="5.86309">
        <ele>1173.1</ele>
        <time>2021-08-19T14:24:16Z</time>
      </trkpt>
      <trkpt lat="46.29949" lon="5.8631">
        <ele>1173.1</ele>
        <time>2021-08-19T14:24:17Z</time>
      </trkpt>
      <trkpt lat="46.29949" lon="5.86311">
        <ele>1173.2</ele>
        <time>2021-08-19T14:24:18Z</time>
      </trkpt>
      <trkpt lat="46.29948" lon="5.86312">
        <ele>1173.2</ele>
        <time>2021-08-19T14:24:19Z</time>
      </trkpt>
      <trkpt lat="46.29945" lon="5.86314">
        <ele>1173.3</ele>
        <time>2021-08-19T14:24:21Z</time>
      </trkpt>
      <trkpt lat="46.29944" lon="5.86316">
        <ele>1173.4</ele>
        <time>2021-08-19T14:24:22Z</time>
      </trkpt>
      <trkpt lat="46.29943" lon="5.86317">
        <ele>1173.5</ele>
        <time>2021-08-19T14:24:23Z</time>
      </trkpt>
      <trkpt lat="46.29941" lon="5.86321">
        <ele>1173.6</ele>
        <time>2021-08-19T14:24:24Z</time>
      </trkpt>
      <trkpt lat="46.2994" lon="5.86322">
        <ele>1173.7</ele>
        <time>2021-08-19T14:24:25Z</time>
      </trkpt>
      <trkpt lat="46.29936" lon="5.86324">
        <ele>1173.9</ele>
        <time>2021-08-19T14:24:27Z</time>
      </trkpt>
      <trkpt lat="46.29934" lon="5.86327">
        <ele>1174</ele>
        <time>2021-08-19T14:24:28Z</time>
      </trkpt>
      <trkpt lat="46.29933" lon="5.86328">
        <ele>1174.1</ele>
        <time>2021-08-19T14:24:29Z</time>
      </trkpt>
      <trkpt lat="46.2993" lon="5.8633">
        <ele>1174.3</ele>
        <time>2021-08-19T14:24:31Z</time>
      </trkpt>
      <trkpt lat="46.29928" lon="5.86332">
        <ele>1174.4</ele>
        <time>2021-08-19T14:24:32Z</time>
      </trkpt>
      <trkpt lat="46.29926" lon="5.86336">
        <ele>1174.6</ele>
        <time>2021-08-19T14:24:34Z</time>
      </trkpt>
      <trkpt lat="46.29923" lon="5.8634">
        <ele>1174.8</ele>
        <time>2021-08-19T14:24:35Z</time>
      </trkpt>
      <trkpt lat="46.29922" lon="5.86341">
        <ele>1174.9</ele>
        <time>2021-08-19T14:24:36Z</time>
      </trkpt>
      <trkpt lat="46.29919" lon="5.86344">
        <ele>1175.1</ele>
        <time>2021-08-19T14:24:37Z</time>
      </trkpt>
      <trkpt lat="46.29918" lon="5.86346">
        <ele>1175.2</ele>
        <time>2021-08-19T14:24:38Z</time>
      </trkpt>
      <trkpt lat="46.29916" lon="5.8635">
        <ele>1175.4</ele>
        <time>2021-08-19T14:24:40Z</time>
      </trkpt>
      <trkpt lat="46.29913" lon="5.86354">
        <ele>1175.6</ele>
        <time>2021-08-19T14:24:41Z</time>
      </trkpt>
      <trkpt lat="46.29912" lon="5.86355">
        <ele>1175.7</ele>
        <time>2021-08-19T14:24:42Z</time>
      </trkpt>
      <trkpt lat="46.29909" lon="5.86356">
        <ele>1175.8</ele>
        <time>2021-08-19T14:24:43Z</time>
      </trkpt>
      <trkpt lat="46.29906" lon="5.86359">
        <ele>1176</ele>
        <time>2021-08-19T14:24:44Z</time>
      </trkpt>
      <trkpt lat="46.29902" lon="5.86363">
        <ele>1176.2</ele>
        <time>2021-08-19T14:24:46Z</time>
      </trkpt>
      <trkpt lat="46.299" lon="5.86365">
        <ele>1176.3</ele>
        <time>2021-08-19T14:24:47Z</time>
      </trkpt>
      <trkpt lat="46.29899" lon="5.86367">
        <ele>1176.4</ele>
        <time>2021-08-19T14:24:48Z</time>
      </trkpt>
      <trkpt lat="46.29897" lon="5.86369">
        <ele>1176.5</ele>
        <time>2021-08-19T14:24:49Z</time>
      </trkpt>
      <trkpt lat="46.29895" lon="5.86373">
        <ele>1176.7</ele>
        <time>2021-08-19T14:24:51Z</time>
      </trkpt>
      <trkpt lat="46.29894" lon="5.86374">
        <ele>1176.7</ele>
        <time>2021-08-19T14:24:52Z</time>
      </trkpt>
      <trkpt lat="46.29892" lon="5.86376">
        <ele>1176.8</ele>
        <time>2021-08-19T14:24:53Z</time>
      </trkpt>
      <trkpt lat="46.29891" lon="5.86377">
        <ele>1176.9</ele>
        <time>2021-08-19T14:24:54Z</time>
      </trkpt>
      <trkpt lat="46.2989" lon="5.86379">
        <ele>1177</ele>
        <time>2021-08-19T14:24:55Z</time>
      </trkpt>
      <trkpt lat="46.29886" lon="5.86381">
        <ele>1177.1</ele>
        <time>2021-08-19T14:24:57Z</time>
      </trkpt>
      <trkpt lat="46.29883" lon="5.86385">
        <ele>1177.3</ele>
        <time>2021-08-19T14:24:59Z</time>
      </trkpt>
      <trkpt lat="46.29882" lon="5.86388">
        <ele>1177.4</ele>
        <time>2021-08-19T14:25:00Z</time>
      </trkpt>
      <trkpt lat="46.2988" lon="5.86389">
        <ele>1177.5</ele>
        <time>2021-08-19T14:25:01Z</time>
      </trkpt>
      <trkpt lat="46.29877" lon="5.8639">
        <ele>1177.7</ele>
        <time>2021-08-19T14:25:03Z</time>
      </trkpt>
      <trkpt lat="46.29873" lon="5.8639">
        <ele>1177.9</ele>
        <time>2021-08-19T14:25:04Z</time>
      </trkpt>
      <trkpt lat="46.29871" lon="5.8639">
        <ele>1178</ele>
        <time>2021-08-19T14:25:05Z</time>
      </trkpt>
      <trkpt lat="46.2987" lon="5.8639">
        <ele>1178</ele>
        <time>2021-08-19T14:25:06Z</time>
      </trkpt>
      <trkpt lat="46.29871" lon="5.86392">
        <ele>1178.1</ele>
        <time>2021-08-19T14:25:08Z</time>
      </trkpt>
      <trkpt lat="46.29871" lon="5.86393">
        <ele>1178.2</ele>
        <time>2021-08-19T14:25:09Z</time>
      </trkpt>
      <trkpt lat="46.29871" lon="5.86395">
        <ele>1178.2</ele>
        <time>2021-08-19T14:25:10Z</time>
      </trkpt>
      <trkpt lat="46.2987" lon="5.86396">
        <ele>1178.3</ele>
        <time>2021-08-19T14:25:11Z</time>
      </trkpt>
      <trkpt lat="46.29869" lon="5.86398">
        <ele>1178.4</ele>
        <time>2021-08-19T14:25:13Z</time>
      </trkpt>
      <trkpt lat="46.29867" lon="5.864">
        <ele>1178.5</ele>
        <time>2021-08-19T14:25:14Z</time>
      </trkpt>
      <trkpt lat="46.29866" lon="5.864">
        <ele>1178.6</ele>
        <time>2021-08-19T14:25:15Z</time>
      </trkpt>
      <trkpt lat="46.29864" lon="5.864">
        <ele>1178.7</ele>
        <time>2021-08-19T14:25:16Z</time>
      </trkpt>
      <trkpt lat="46.29862" lon="5.86398">
        <ele>1178.8</ele>
        <time>2021-08-19T14:25:18Z</time>
      </trkpt>
      <trkpt lat="46.29859" lon="5.86395">
        <ele>1179</ele>
        <time>2021-08-19T14:25:19Z</time>
      </trkpt>
      <trkpt lat="46.29856" lon="5.86391">
        <ele>1179.2</ele>
        <time>2021-08-19T14:25:21Z</time>
      </trkpt>
      <trkpt lat="46.29854" lon="5.86386">
        <ele>1179.4</ele>
        <time>2021-08-19T14:25:23Z</time>
      </trkpt>
      <trkpt lat="46.29854" lon="5.8638">
        <ele>1179.6</ele>
        <time>2021-08-19T14:25:25Z</time>
      </trkpt>
      <trkpt lat="46.29852" lon="5.86376">
        <ele>1179.8</ele>
        <time>2021-08-19T14:25:27Z</time>
      </trkpt>
      <trkpt lat="46.29848" lon="5.86372">
        <ele>1180</ele>
        <time>2021-08-19T14:25:29Z</time>
      </trkpt>
      <trkpt lat="46.29844" lon="5.8637">
        <ele>1180.1</ele>
        <time>2021-08-19T14:25:30Z</time>
      </trkpt>
      <trkpt lat="46.29843" lon="5.86369">
        <ele>1180.1</ele>
        <time>2021-08-19T14:25:31Z</time>
      </trkpt>
      <trkpt lat="46.2984" lon="5.86369">
        <ele>1180.2</ele>
        <time>2021-08-19T14:25:32Z</time>
      </trkpt>
      <trkpt lat="46.29835" lon="5.86366">
        <ele>1180.4</ele>
        <time>2021-08-19T14:25:34Z</time>
      </trkpt>
      <trkpt lat="46.2983" lon="5.86363">
        <ele>1180.6</ele>
        <time>2021-08-19T14:25:36Z</time>
      </trkpt>
      <trkpt lat="46.29824" lon="5.86361">
        <ele>1180.7</ele>
        <time>2021-08-19T14:25:38Z</time>
      </trkpt>
      <trkpt lat="46.29821" lon="5.86361">
        <ele>1180.8</ele>
        <time>2021-08-19T14:25:39Z</time>
      </trkpt>
      <trkpt lat="46.29817" lon="5.8636">
        <ele>1181</ele>
        <time>2021-08-19T14:25:40Z</time>
      </trkpt>
      <trkpt lat="46.29813" lon="5.86361">
        <ele>1181.1</ele>
        <time>2021-08-19T14:25:42Z</time>
      </trkpt>
      <trkpt lat="46.29809" lon="5.86361">
        <ele>1181.2</ele>
        <time>2021-08-19T14:25:43Z</time>
      </trkpt>
      <trkpt lat="46.29808" lon="5.86361">
        <ele>1181.3</ele>
        <time>2021-08-19T14:25:44Z</time>
      </trkpt>
      <trkpt lat="46.29804" lon="5.8636">
        <ele>1181.4</ele>
        <time>2021-08-19T14:25:45Z</time>
      </trkpt>
      <trkpt lat="46.29803" lon="5.86359">
        <ele>1181.5</ele>
        <time>2021-08-19T14:25:46Z</time>
      </trkpt>
      <trkpt lat="46.29801" lon="5.86358">
        <ele>1181.6</ele>
        <time>2021-08-19T14:25:47Z</time>
      </trkpt>
      <trkpt lat="46.29799" lon="5.86356">
        <ele>1181.7</ele>
        <time>2021-08-19T14:25:49Z</time>
      </trkpt>
      <trkpt lat="46.29796" lon="5.86355">
        <ele>1181.9</ele>
        <time>2021-08-19T14:25:50Z</time>
      </trkpt>
      <trkpt lat="46.29793" lon="5.86353">
        <ele>1182</ele>
        <time>2021-08-19T14:25:52Z</time>
      </trkpt>
      <trkpt lat="46.29791" lon="5.86351">
        <ele>1182.2</ele>
        <time>2021-08-19T14:25:53Z</time>
      </trkpt>
      <trkpt lat="46.29789" lon="5.86349">
        <ele>1182.3</ele>
        <time>2021-08-19T14:25:54Z</time>
      </trkpt>
      <trkpt lat="46.29788" lon="5.86347">
        <ele>1182.4</ele>
        <time>2021-08-19T14:25:55Z</time>
      </trkpt>
      <trkpt lat="46.29786" lon="5.86345">
        <ele>1182.5</ele>
        <time>2021-08-19T14:25:57Z</time>
      </trkpt>
      <trkpt lat="46.29784" lon="5.86343">
        <ele>1182.7</ele>
        <time>2021-08-19T14:25:58Z</time>
      </trkpt>
      <trkpt lat="46.29782" lon="5.86342">
        <ele>1182.8</ele>
        <time>2021-08-19T14:25:59Z</time>
      </trkpt>
      <trkpt lat="46.2978" lon="5.8634">
        <ele>1182.9</ele>
        <time>2021-08-19T14:26:01Z</time>
      </trkpt>
      <trkpt lat="46.29778" lon="5.86338">
        <ele>1183.1</ele>
        <time>2021-08-19T14:26:17Z</time>
      </trkpt>
      <trkpt lat="46.29777" lon="5.86336">
        <ele>1183.2</ele>
        <time>2021-08-19T14:26:19Z</time>
      </trkpt>
      <trkpt lat="46.29775" lon="5.86334">
        <ele>1183.3</ele>
        <time>2021-08-19T14:26:20Z</time>
      </trkpt>
      <trkpt lat="46.29773" lon="5.86332">
        <ele>1183.4</ele>
        <time>2021-08-19T14:26:21Z</time>
      </trkpt>
      <trkpt lat="46.29772" lon="5.8633">
        <ele>1183.5</ele>
        <time>2021-08-19T14:26:23Z</time>
      </trkpt>
      <trkpt lat="46.29771" lon="5.86328">
        <ele>1183.6</ele>
        <time>2021-08-19T14:26:24Z</time>
      </trkpt>
      <trkpt lat="46.29767" lon="5.86323">
        <ele>1183.9</ele>
        <time>2021-08-19T14:26:26Z</time>
      </trkpt>
      <trkpt lat="46.29765" lon="5.8632">
        <ele>1184.1</ele>
        <time>2021-08-19T14:26:27Z</time>
      </trkpt>
      <trkpt lat="46.29762" lon="5.86317">
        <ele>1184.2</ele>
        <time>2021-08-19T14:26:28Z</time>
      </trkpt>
      <trkpt lat="46.2976" lon="5.86315">
        <ele>1184.3</ele>
        <time>2021-08-19T14:26:29Z</time>
      </trkpt>
      <trkpt lat="46.29753" lon="5.86312">
        <ele>1184.7</ele>
        <time>2021-08-19T14:26:31Z</time>
      </trkpt>
      <trkpt lat="46.29751" lon="5.86311">
        <ele>1184.8</ele>
        <time>2021-08-19T14:26:33Z</time>
      </trkpt>
      <trkpt lat="46.2975" lon="5.8631">
        <ele>1184.8</ele>
        <time>2021-08-19T14:26:34Z</time>
      </trkpt>
      <trkpt lat="46.29749" lon="5.8631">
        <ele>1184.8</ele>
        <time>2021-08-19T14:26:35Z</time>
      </trkpt>
      <trkpt lat="46.29744" lon="5.86306">
        <ele>1185.1</ele>
        <time>2021-08-19T14:26:37Z</time>
      </trkpt>
      <trkpt lat="46.29741" lon="5.86304">
        <ele>1185.2</ele>
        <time>2021-08-19T14:26:39Z</time>
      </trkpt>
      <trkpt lat="46.29739" lon="5.86303">
        <ele>1185.3</ele>
        <time>2021-08-19T14:26:40Z</time>
      </trkpt>
      <trkpt lat="46.29736" lon="5.86301">
        <ele>1185.4</ele>
        <time>2021-08-19T14:26:41Z</time>
      </trkpt>
      <trkpt lat="46.29732" lon="5.86299">
        <ele>1185.6</ele>
        <time>2021-08-19T14:26:42Z</time>
      </trkpt>
      <trkpt lat="46.29731" lon="5.86299">
        <ele>1185.6</ele>
        <time>2021-08-19T14:26:43Z</time>
      </trkpt>
      <trkpt lat="46.29727" lon="5.86295">
        <ele>1185.8</ele>
        <time>2021-08-19T14:26:45Z</time>
      </trkpt>
      <trkpt lat="46.29725" lon="5.86294">
        <ele>1185.9</ele>
        <time>2021-08-19T14:26:46Z</time>
      </trkpt>
      <trkpt lat="46.29724" lon="5.86292">
        <ele>1186</ele>
        <time>2021-08-19T14:26:47Z</time>
      </trkpt>
      <trkpt lat="46.29723" lon="5.86289">
        <ele>1186.1</ele>
        <time>2021-08-19T14:26:48Z</time>
      </trkpt>
      <trkpt lat="46.29722" lon="5.86288">
        <ele>1186.1</ele>
        <time>2021-08-19T14:26:49Z</time>
      </trkpt>
      <trkpt lat="46.29721" lon="5.86283">
        <ele>1186.3</ele>
        <time>2021-08-19T14:26:51Z</time>
      </trkpt>
      <trkpt lat="46.2972" lon="5.86282">
        <ele>1186.3</ele>
        <time>2021-08-19T14:26:52Z</time>
      </trkpt>
      <trkpt lat="46.29718" lon="5.8628">
        <ele>1186.4</ele>
        <time>2021-08-19T14:26:53Z</time>
      </trkpt>
      <trkpt lat="46.29717" lon="5.86275">
        <ele>1186.4</ele>
        <time>2021-08-19T14:26:55Z</time>
      </trkpt>
      <trkpt lat="46.29717" lon="5.86269">
        <ele>1186.4</ele>
        <time>2021-08-19T14:26:56Z</time>
      </trkpt>
      <trkpt lat="46.29719" lon="5.86261">
        <ele>1186.4</ele>
        <time>2021-08-19T14:26:58Z</time>
      </trkpt>
      <trkpt lat="46.29719" lon="5.86256">
        <ele>1186.4</ele>
        <time>2021-08-19T14:26:59Z</time>
      </trkpt>
      <trkpt lat="46.2972" lon="5.8625">
        <ele>1186.4</ele>
        <time>2021-08-19T14:27:01Z</time>
      </trkpt>
      <trkpt lat="46.2972" lon="5.86244">
        <ele>1186.4</ele>
        <time>2021-08-19T14:27:02Z</time>
      </trkpt>
      <trkpt lat="46.2972" lon="5.86243">
        <ele>1186.4</ele>
        <time>2021-08-19T14:27:03Z</time>
      </trkpt>
      <trkpt lat="46.29721" lon="5.86238">
        <ele>1186.4</ele>
        <time>2021-08-19T14:27:04Z</time>
      </trkpt>
      <trkpt lat="46.29721" lon="5.86234">
        <ele>1186.3</ele>
        <time>2021-08-19T14:27:05Z</time>
      </trkpt>
      <trkpt lat="46.29722" lon="5.86228">
        <ele>1186.3</ele>
        <time>2021-08-19T14:27:07Z</time>
      </trkpt>
      <trkpt lat="46.29721" lon="5.86224">
        <ele>1186.3</ele>
        <time>2021-08-19T14:27:08Z</time>
      </trkpt>
      <trkpt lat="46.2972" lon="5.86217">
        <ele>1186.2</ele>
        <time>2021-08-19T14:27:09Z</time>
      </trkpt>
      <trkpt lat="46.2972" lon="5.8621">
        <ele>1186.2</ele>
        <time>2021-08-19T14:27:11Z</time>
      </trkpt>
      <trkpt lat="46.2972" lon="5.86204">
        <ele>1186.2</ele>
        <time>2021-08-19T14:27:12Z</time>
      </trkpt>
      <trkpt lat="46.2972" lon="5.86197">
        <ele>1186.1</ele>
        <time>2021-08-19T14:27:13Z</time>
      </trkpt>
      <trkpt lat="46.29721" lon="5.86186">
        <ele>1186</ele>
        <time>2021-08-19T14:27:15Z</time>
      </trkpt>
      <trkpt lat="46.29721" lon="5.86174">
        <ele>1185.8</ele>
        <time>2021-08-19T14:27:17Z</time>
      </trkpt>
      <trkpt lat="46.29721" lon="5.86163">
        <ele>1185.6</ele>
        <time>2021-08-19T14:27:19Z</time>
      </trkpt>
      <trkpt lat="46.29721" lon="5.86151">
        <ele>1185.2</ele>
        <time>2021-08-19T14:27:21Z</time>
      </trkpt>
      <trkpt lat="46.29721" lon="5.86139">
        <ele>1184.8</ele>
        <time>2021-08-19T14:27:23Z</time>
      </trkpt>
      <trkpt lat="46.29721" lon="5.86132">
        <ele>1184.6</ele>
        <time>2021-08-19T14:27:24Z</time>
      </trkpt>
      <trkpt lat="46.29722" lon="5.86121">
        <ele>1184.2</ele>
        <time>2021-08-19T14:27:25Z</time>
      </trkpt>
      <trkpt lat="46.29724" lon="5.86106">
        <ele>1183.5</ele>
        <time>2021-08-19T14:27:27Z</time>
      </trkpt>
      <trkpt lat="46.29725" lon="5.86098">
        <ele>1183.2</ele>
        <time>2021-08-19T14:27:28Z</time>
      </trkpt>
      <trkpt lat="46.29727" lon="5.8609">
        <ele>1182.8</ele>
        <time>2021-08-19T14:27:29Z</time>
      </trkpt>
      <trkpt lat="46.29731" lon="5.86074">
        <ele>1181.8</ele>
        <time>2021-08-19T14:27:31Z</time>
      </trkpt>
      <trkpt lat="46.29735" lon="5.86064">
        <ele>1181.3</ele>
        <time>2021-08-19T14:27:32Z</time>
      </trkpt>
      <trkpt lat="46.29743" lon="5.86045">
        <ele>1180.1</ele>
        <time>2021-08-19T14:27:34Z</time>
      </trkpt>
      <trkpt lat="46.29746" lon="5.86036">
        <ele>1179.5</ele>
        <time>2021-08-19T14:27:35Z</time>
      </trkpt>
      <trkpt lat="46.2975" lon="5.86026">
        <ele>1179</ele>
        <time>2021-08-19T14:27:36Z</time>
      </trkpt>
      <trkpt lat="46.29754" lon="5.86017">
        <ele>1178.4</ele>
        <time>2021-08-19T14:27:37Z</time>
      </trkpt>
      <trkpt lat="46.2976" lon="5.85998">
        <ele>1177.3</ele>
        <time>2021-08-19T14:27:39Z</time>
      </trkpt>
      <trkpt lat="46.29764" lon="5.85988">
        <ele>1176.8</ele>
        <time>2021-08-19T14:27:40Z</time>
      </trkpt>
      <trkpt lat="46.29767" lon="5.85978">
        <ele>1176.2</ele>
        <time>2021-08-19T14:27:41Z</time>
      </trkpt>
      <trkpt lat="46.29774" lon="5.85956">
        <ele>1175.1</ele>
        <time>2021-08-19T14:27:43Z</time>
      </trkpt>
      <trkpt lat="46.29781" lon="5.85935">
        <ele>1173.9</ele>
        <time>2021-08-19T14:27:45Z</time>
      </trkpt>
      <trkpt lat="46.29784" lon="5.85924">
        <ele>1173.3</ele>
        <time>2021-08-19T14:27:46Z</time>
      </trkpt>
      <trkpt lat="46.29788" lon="5.85913">
        <ele>1172.7</ele>
        <time>2021-08-19T14:27:47Z</time>
      </trkpt>
      <trkpt lat="46.29796" lon="5.8589">
        <ele>1171.3</ele>
        <time>2021-08-19T14:27:49Z</time>
      </trkpt>
      <trkpt lat="46.29803" lon="5.85866">
        <ele>1169.9</ele>
        <time>2021-08-19T14:27:51Z</time>
      </trkpt>
      <trkpt lat="46.29807" lon="5.85855">
        <ele>1169.4</ele>
        <time>2021-08-19T14:27:52Z</time>
      </trkpt>
      <trkpt lat="46.2981" lon="5.85844">
        <ele>1168.8</ele>
        <time>2021-08-19T14:27:53Z</time>
      </trkpt>
      <trkpt lat="46.29817" lon="5.85821">
        <ele>1167.6</ele>
        <time>2021-08-19T14:27:55Z</time>
      </trkpt>
      <trkpt lat="46.29823" lon="5.85798">
        <ele>1166.4</ele>
        <time>2021-08-19T14:27:57Z</time>
      </trkpt>
      <trkpt lat="46.29824" lon="5.85786">
        <ele>1165.8</ele>
        <time>2021-08-19T14:27:58Z</time>
      </trkpt>
      <trkpt lat="46.29825" lon="5.85774">
        <ele>1165.3</ele>
        <time>2021-08-19T14:27:59Z</time>
      </trkpt>
      <trkpt lat="46.29828" lon="5.85749">
        <ele>1164.2</ele>
        <time>2021-08-19T14:28:01Z</time>
      </trkpt>
      <trkpt lat="46.29829" lon="5.85724">
        <ele>1163.7</ele>
        <time>2021-08-19T14:28:03Z</time>
      </trkpt>
      <trkpt lat="46.29829" lon="5.8571">
        <ele>1163.4</ele>
        <time>2021-08-19T14:28:04Z</time>
      </trkpt>
      <trkpt lat="46.29829" lon="5.85696">
        <ele>1163.2</ele>
        <time>2021-08-19T14:28:05Z</time>
      </trkpt>
      <trkpt lat="46.29829" lon="5.85682">
        <ele>1163</ele>
        <time>2021-08-19T14:28:06Z</time>
      </trkpt>
      <trkpt lat="46.29828" lon="5.85668">
        <ele>1163</ele>
        <time>2021-08-19T14:28:07Z</time>
      </trkpt>
      <trkpt lat="46.29825" lon="5.85644">
        <ele>1162.8</ele>
        <time>2021-08-19T14:28:09Z</time>
      </trkpt>
      <trkpt lat="46.29824" lon="5.85631">
        <ele>1162.7</ele>
        <time>2021-08-19T14:28:10Z</time>
      </trkpt>
      <trkpt lat="46.29823" lon="5.85619">
        <ele>1162.7</ele>
        <time>2021-08-19T14:28:11Z</time>
      </trkpt>
      <trkpt lat="46.2982" lon="5.85609">
        <ele>1162.7</ele>
        <time>2021-08-19T14:28:12Z</time>
      </trkpt>
      <trkpt lat="46.29817" lon="5.856">
        <ele>1162.6</ele>
        <time>2021-08-19T14:28:13Z</time>
      </trkpt>
      <trkpt lat="46.29809" lon="5.85584">
        <ele>1162.8</ele>
        <time>2021-08-19T14:28:15Z</time>
      </trkpt>
      <trkpt lat="46.29798" lon="5.85573">
        <ele>1163.2</ele>
        <time>2021-08-19T14:28:17Z</time>
      </trkpt>
      <trkpt lat="46.29786" lon="5.85572">
        <ele>1163.5</ele>
        <time>2021-08-19T14:28:19Z</time>
      </trkpt>
      <trkpt lat="46.29773" lon="5.85575">
        <ele>1164</ele>
        <time>2021-08-19T14:28:21Z</time>
      </trkpt>
      <trkpt lat="46.29765" lon="5.85576">
        <ele>1164.2</ele>
        <time>2021-08-19T14:28:22Z</time>
      </trkpt>
      <trkpt lat="46.29758" lon="5.85577">
        <ele>1164.5</ele>
        <time>2021-08-19T14:28:23Z</time>
      </trkpt>
      <trkpt lat="46.29746" lon="5.8558">
        <ele>1164.9</ele>
        <time>2021-08-19T14:28:25Z</time>
      </trkpt>
      <trkpt lat="46.29735" lon="5.85582">
        <ele>1165.3</ele>
        <time>2021-08-19T14:28:27Z</time>
      </trkpt>
      <trkpt lat="46.29728" lon="5.85581">
        <ele>1165.6</ele>
        <time>2021-08-19T14:28:29Z</time>
      </trkpt>
      <trkpt lat="46.29721" lon="5.85579">
        <ele>1165.9</ele>
        <time>2021-08-19T14:28:31Z</time>
      </trkpt>
      <trkpt lat="46.29717" lon="5.85578">
        <ele>1166</ele>
        <time>2021-08-19T14:28:32Z</time>
      </trkpt>
      <trkpt lat="46.29712" lon="5.85576">
        <ele>1166.2</ele>
        <time>2021-08-19T14:28:34Z</time>
      </trkpt>
      <trkpt lat="46.2971" lon="5.85574">
        <ele>1166.3</ele>
        <time>2021-08-19T14:28:35Z</time>
      </trkpt>
      <trkpt lat="46.29707" lon="5.85573">
        <ele>1166.5</ele>
        <time>2021-08-19T14:28:36Z</time>
      </trkpt>
      <trkpt lat="46.29704" lon="5.85573">
        <ele>1166.6</ele>
        <time>2021-08-19T14:28:37Z</time>
      </trkpt>
      <trkpt lat="46.297" lon="5.85572">
        <ele>1166.7</ele>
        <time>2021-08-19T14:28:38Z</time>
      </trkpt>
      <trkpt lat="46.29699" lon="5.85571">
        <ele>1166.8</ele>
        <time>2021-08-19T14:28:39Z</time>
      </trkpt>
      <trkpt lat="46.29694" lon="5.8557">
        <ele>1166.9</ele>
        <time>2021-08-19T14:28:41Z</time>
      </trkpt>
      <trkpt lat="46.29691" lon="5.85569">
        <ele>1166.9</ele>
        <time>2021-08-19T14:28:42Z</time>
      </trkpt>
      <trkpt lat="46.2969" lon="5.85569">
        <ele>1167</ele>
        <time>2021-08-19T14:28:43Z</time>
      </trkpt>
      <trkpt lat="46.29686" lon="5.85569">
        <ele>1167.1</ele>
        <time>2021-08-19T14:28:45Z</time>
      </trkpt>
      <trkpt lat="46.29685" lon="5.85569">
        <ele>1167.1</ele>
        <time>2021-08-19T14:28:46Z</time>
      </trkpt>
      <trkpt lat="46.29681" lon="5.85569">
        <ele>1167.2</ele>
        <time>2021-08-19T14:28:47Z</time>
      </trkpt>
      <trkpt lat="46.2968" lon="5.85569">
        <ele>1167.2</ele>
        <time>2021-08-19T14:28:48Z</time>
      </trkpt>
      <trkpt lat="46.29675" lon="5.85568">
        <ele>1167.4</ele>
        <time>2021-08-19T14:28:50Z</time>
      </trkpt>
      <trkpt lat="46.29672" lon="5.85568">
        <ele>1167.5</ele>
        <time>2021-08-19T14:28:51Z</time>
      </trkpt>
      <trkpt lat="46.29671" lon="5.85568">
        <ele>1167.5</ele>
        <time>2021-08-19T14:28:52Z</time>
      </trkpt>
      <trkpt lat="46.29669" lon="5.85567">
        <ele>1167.6</ele>
        <time>2021-08-19T14:28:53Z</time>
      </trkpt>
      <trkpt lat="46.29666" lon="5.85566">
        <ele>1167.7</ele>
        <time>2021-08-19T14:28:55Z</time>
      </trkpt>
      <trkpt lat="46.29662" lon="5.85565">
        <ele>1167.8</ele>
        <time>2021-08-19T14:28:56Z</time>
      </trkpt>
      <trkpt lat="46.29661" lon="5.85565">
        <ele>1167.9</ele>
        <time>2021-08-19T14:28:57Z</time>
      </trkpt>
      <trkpt lat="46.29657" lon="5.85564">
        <ele>1168</ele>
        <time>2021-08-19T14:28:58Z</time>
      </trkpt>
      <trkpt lat="46.29653" lon="5.85563">
        <ele>1168.2</ele>
        <time>2021-08-19T14:29:00Z</time>
      </trkpt>
      <trkpt lat="46.29651" lon="5.85562">
        <ele>1168.2</ele>
        <time>2021-08-19T14:29:01Z</time>
      </trkpt>
      <trkpt lat="46.2965" lon="5.85562">
        <ele>1168.3</ele>
        <time>2021-08-19T14:29:02Z</time>
      </trkpt>
      <trkpt lat="46.29647" lon="5.85561">
        <ele>1168.4</ele>
        <time>2021-08-19T14:29:03Z</time>
      </trkpt>
      <trkpt lat="46.29646" lon="5.8556">
        <ele>1168.4</ele>
        <time>2021-08-19T14:29:04Z</time>
      </trkpt>
      <trkpt lat="46.29643" lon="5.85559">
        <ele>1168.5</ele>
        <time>2021-08-19T14:29:05Z</time>
      </trkpt>
      <trkpt lat="46.2964" lon="5.85558">
        <ele>1168.6</ele>
        <time>2021-08-19T14:29:07Z</time>
      </trkpt>
      <trkpt lat="46.29636" lon="5.85557">
        <ele>1168.7</ele>
        <time>2021-08-19T14:29:08Z</time>
      </trkpt>
      <trkpt lat="46.29631" lon="5.85557">
        <ele>1168.8</ele>
        <time>2021-08-19T14:29:09Z</time>
      </trkpt>
      <trkpt lat="46.29628" lon="5.85557">
        <ele>1168.9</ele>
        <time>2021-08-19T14:29:10Z</time>
      </trkpt>
      <trkpt lat="46.29627" lon="5.85557">
        <ele>1169</ele>
        <time>2021-08-19T14:29:11Z</time>
      </trkpt>
      <trkpt lat="46.29622" lon="5.85557">
        <ele>1169.2</ele>
        <time>2021-08-19T14:29:13Z</time>
      </trkpt>
      <trkpt lat="46.29618" lon="5.85558">
        <ele>1169.3</ele>
        <time>2021-08-19T14:29:14Z</time>
      </trkpt>
      <trkpt lat="46.29611" lon="5.85556">
        <ele>1169.5</ele>
        <time>2021-08-19T14:29:16Z</time>
      </trkpt>
      <trkpt lat="46.29608" lon="5.85555">
        <ele>1169.7</ele>
        <time>2021-08-19T14:29:17Z</time>
      </trkpt>
      <trkpt lat="46.29602" lon="5.85553">
        <ele>1169.9</ele>
        <time>2021-08-19T14:29:19Z</time>
      </trkpt>
      <trkpt lat="46.296" lon="5.85551">
        <ele>1170</ele>
        <time>2021-08-19T14:29:20Z</time>
      </trkpt>
      <trkpt lat="46.29595" lon="5.85552">
        <ele>1170.2</ele>
        <time>2021-08-19T14:29:22Z</time>
      </trkpt>
      <trkpt lat="46.29593" lon="5.85553">
        <ele>1170.3</ele>
        <time>2021-08-19T14:29:23Z</time>
      </trkpt>
      <trkpt lat="46.2959" lon="5.85554">
        <ele>1170.4</ele>
        <time>2021-08-19T14:29:24Z</time>
      </trkpt>
      <trkpt lat="46.29585" lon="5.85553">
        <ele>1170.6</ele>
        <time>2021-08-19T14:29:26Z</time>
      </trkpt>
      <trkpt lat="46.2958" lon="5.85552">
        <ele>1170.7</ele>
        <time>2021-08-19T14:29:28Z</time>
      </trkpt>
      <trkpt lat="46.29577" lon="5.85551">
        <ele>1170.8</ele>
        <time>2021-08-19T14:29:29Z</time>
      </trkpt>
      <trkpt lat="46.29575" lon="5.8555">
        <ele>1170.9</ele>
        <time>2021-08-19T14:29:30Z</time>
      </trkpt>
      <trkpt lat="46.29571" lon="5.85546">
        <ele>1171</ele>
        <time>2021-08-19T14:29:32Z</time>
      </trkpt>
      <trkpt lat="46.2957" lon="5.85544">
        <ele>1171.1</ele>
        <time>2021-08-19T14:29:33Z</time>
      </trkpt>
      <trkpt lat="46.29567" lon="5.85541">
        <ele>1171.1</ele>
        <time>2021-08-19T14:29:35Z</time>
      </trkpt>
      <trkpt lat="46.29563" lon="5.8554">
        <ele>1171.2</ele>
        <time>2021-08-19T14:29:36Z</time>
      </trkpt>
      <trkpt lat="46.29561" lon="5.85539">
        <ele>1171.3</ele>
        <time>2021-08-19T14:29:37Z</time>
      </trkpt>
      <trkpt lat="46.2956" lon="5.85538">
        <ele>1171.3</ele>
        <time>2021-08-19T14:29:38Z</time>
      </trkpt>
      <trkpt lat="46.29557" lon="5.85537">
        <ele>1171.3</ele>
        <time>2021-08-19T14:29:40Z</time>
      </trkpt>
      <trkpt lat="46.29554" lon="5.85534">
        <ele>1171.4</ele>
        <time>2021-08-19T14:29:41Z</time>
      </trkpt>
      <trkpt lat="46.29548" lon="5.85529">
        <ele>1171.5</ele>
        <time>2021-08-19T14:29:43Z</time>
      </trkpt>
      <trkpt lat="46.29543" lon="5.85525">
        <ele>1171.6</ele>
        <time>2021-08-19T14:29:45Z</time>
      </trkpt>
      <trkpt lat="46.2954" lon="5.85523">
        <ele>1171.6</ele>
        <time>2021-08-19T14:29:46Z</time>
      </trkpt>
      <trkpt lat="46.29536" lon="5.85519">
        <ele>1171.7</ele>
        <time>2021-08-19T14:29:47Z</time>
      </trkpt>
      <trkpt lat="46.29533" lon="5.85515">
        <ele>1171.7</ele>
        <time>2021-08-19T14:29:48Z</time>
      </trkpt>
      <trkpt lat="46.29531" lon="5.85511">
        <ele>1171.7</ele>
        <time>2021-08-19T14:29:49Z</time>
      </trkpt>
      <trkpt lat="46.29528" lon="5.85506">
        <ele>1171.7</ele>
        <time>2021-08-19T14:29:50Z</time>
      </trkpt>
      <trkpt lat="46.29526" lon="5.85502">
        <ele>1171.8</ele>
        <time>2021-08-19T14:29:51Z</time>
      </trkpt>
      <trkpt lat="46.2952" lon="5.85496">
        <ele>1171.8</ele>
        <time>2021-08-19T14:29:53Z</time>
      </trkpt>
      <trkpt lat="46.29513" lon="5.8549">
        <ele>1171.8</ele>
        <time>2021-08-19T14:29:54Z</time>
      </trkpt>
      <trkpt lat="46.29509" lon="5.85485">
        <ele>1171.7</ele>
        <time>2021-08-19T14:29:55Z</time>
      </trkpt>
      <trkpt lat="46.29502" lon="5.8548">
        <ele>1171.6</ele>
        <time>2021-08-19T14:29:57Z</time>
      </trkpt>
      <trkpt lat="46.29499" lon="5.8548">
        <ele>1171.6</ele>
        <time>2021-08-19T14:29:58Z</time>
      </trkpt>
      <trkpt lat="46.29496" lon="5.85475">
        <ele>1171.5</ele>
        <time>2021-08-19T14:29:59Z</time>
      </trkpt>
      <trkpt lat="46.29492" lon="5.85468">
        <ele>1171.5</ele>
        <time>2021-08-19T14:30:00Z</time>
      </trkpt>
      <trkpt lat="46.29489" lon="5.85463">
        <ele>1171.4</ele>
        <time>2021-08-19T14:30:01Z</time>
      </trkpt>
      <trkpt lat="46.2948" lon="5.85451">
        <ele>1171.2</ele>
        <time>2021-08-19T14:30:03Z</time>
      </trkpt>
      <trkpt lat="46.29477" lon="5.85448">
        <ele>1171.2</ele>
        <time>2021-08-19T14:30:04Z</time>
      </trkpt>
      <trkpt lat="46.29473" lon="5.85444">
        <ele>1171.1</ele>
        <time>2021-08-19T14:30:05Z</time>
      </trkpt>
      <trkpt lat="46.29464" lon="5.85435">
        <ele>1171</ele>
        <time>2021-08-19T14:30:07Z</time>
      </trkpt>
      <trkpt lat="46.29456" lon="5.85424">
        <ele>1170.9</ele>
        <time>2021-08-19T14:30:09Z</time>
      </trkpt>
      <trkpt lat="46.29452" lon="5.85419">
        <ele>1170.9</ele>
        <time>2021-08-19T14:30:10Z</time>
      </trkpt>
      <trkpt lat="46.29449" lon="5.85414">
        <ele>1170.8</ele>
        <time>2021-08-19T14:30:11Z</time>
      </trkpt>
      <trkpt lat="46.2944" lon="5.85404">
        <ele>1170.7</ele>
        <time>2021-08-19T14:30:13Z</time>
      </trkpt>
      <trkpt lat="46.29431" lon="5.85395">
        <ele>1170.5</ele>
        <time>2021-08-19T14:30:15Z</time>
      </trkpt>
      <trkpt lat="46.29427" lon="5.8539">
        <ele>1170.4</ele>
        <time>2021-08-19T14:30:16Z</time>
      </trkpt>
      <trkpt lat="46.29417" lon="5.85383">
        <ele>1170.2</ele>
        <time>2021-08-19T14:30:18Z</time>
      </trkpt>
      <trkpt lat="46.29412" lon="5.8538">
        <ele>1170.1</ele>
        <time>2021-08-19T14:30:19Z</time>
      </trkpt>
      <trkpt lat="46.29402" lon="5.85376">
        <ele>1170</ele>
        <time>2021-08-19T14:30:21Z</time>
      </trkpt>
      <trkpt lat="46.29397" lon="5.85373">
        <ele>1169.9</ele>
        <time>2021-08-19T14:30:22Z</time>
      </trkpt>
      <trkpt lat="46.29392" lon="5.85371">
        <ele>1169.8</ele>
        <time>2021-08-19T14:30:23Z</time>
      </trkpt>
      <trkpt lat="46.29381" lon="5.85366">
        <ele>1169.7</ele>
        <time>2021-08-19T14:30:25Z</time>
      </trkpt>
      <trkpt lat="46.2937" lon="5.85361">
        <ele>1169.5</ele>
        <time>2021-08-19T14:30:27Z</time>
      </trkpt>
      <trkpt lat="46.29365" lon="5.85359">
        <ele>1169.4</ele>
        <time>2021-08-19T14:30:28Z</time>
      </trkpt>
      <trkpt lat="46.2936" lon="5.85356">
        <ele>1169.3</ele>
        <time>2021-08-19T14:30:29Z</time>
      </trkpt>
      <trkpt lat="46.2935" lon="5.8535">
        <ele>1169.1</ele>
        <time>2021-08-19T14:30:31Z</time>
      </trkpt>
      <trkpt lat="46.2934" lon="5.85345">
        <ele>1168.9</ele>
        <time>2021-08-19T14:30:33Z</time>
      </trkpt>
      <trkpt lat="46.29331" lon="5.8534">
        <ele>1168.8</ele>
        <time>2021-08-19T14:30:35Z</time>
      </trkpt>
      <trkpt lat="46.29326" lon="5.85338">
        <ele>1168.7</ele>
        <time>2021-08-19T14:30:36Z</time>
      </trkpt>
      <trkpt lat="46.29322" lon="5.85335">
        <ele>1168.6</ele>
        <time>2021-08-19T14:30:37Z</time>
      </trkpt>
      <trkpt lat="46.29311" lon="5.85329">
        <ele>1168.3</ele>
        <time>2021-08-19T14:30:39Z</time>
      </trkpt>
      <trkpt lat="46.29306" lon="5.85325">
        <ele>1168.2</ele>
        <time>2021-08-19T14:30:40Z</time>
      </trkpt>
      <trkpt lat="46.293" lon="5.8532">
        <ele>1168.1</ele>
        <time>2021-08-19T14:30:41Z</time>
      </trkpt>
      <trkpt lat="46.29291" lon="5.85311">
        <ele>1167.9</ele>
        <time>2021-08-19T14:30:43Z</time>
      </trkpt>
      <trkpt lat="46.29282" lon="5.85301">
        <ele>1167.8</ele>
        <time>2021-08-19T14:30:45Z</time>
      </trkpt>
      <trkpt lat="46.29277" lon="5.85296">
        <ele>1167.7</ele>
        <time>2021-08-19T14:30:46Z</time>
      </trkpt>
      <trkpt lat="46.29267" lon="5.85287">
        <ele>1167.5</ele>
        <time>2021-08-19T14:30:48Z</time>
      </trkpt>
      <trkpt lat="46.29263" lon="5.85283">
        <ele>1167.4</ele>
        <time>2021-08-19T14:30:49Z</time>
      </trkpt>
      <trkpt lat="46.29253" lon="5.85274">
        <ele>1167.2</ele>
        <time>2021-08-19T14:30:51Z</time>
      </trkpt>
      <trkpt lat="46.29248" lon="5.8527">
        <ele>1167.1</ele>
        <time>2021-08-19T14:30:52Z</time>
      </trkpt>
      <trkpt lat="46.29243" lon="5.85265">
        <ele>1167</ele>
        <time>2021-08-19T14:30:53Z</time>
      </trkpt>
      <trkpt lat="46.29232" lon="5.85257">
        <ele>1166.8</ele>
        <time>2021-08-19T14:30:55Z</time>
      </trkpt>
      <trkpt lat="46.29222" lon="5.85247">
        <ele>1166.6</ele>
        <time>2021-08-19T14:30:57Z</time>
      </trkpt>
      <trkpt lat="46.29216" lon="5.85243">
        <ele>1166.5</ele>
        <time>2021-08-19T14:30:58Z</time>
      </trkpt>
      <trkpt lat="46.29211" lon="5.85238">
        <ele>1166.5</ele>
        <time>2021-08-19T14:30:59Z</time>
      </trkpt>
      <trkpt lat="46.29201" lon="5.8523">
        <ele>1166.4</ele>
        <time>2021-08-19T14:31:01Z</time>
      </trkpt>
      <trkpt lat="46.29191" lon="5.85224">
        <ele>1166.3</ele>
        <time>2021-08-19T14:31:03Z</time>
      </trkpt>
      <trkpt lat="46.29185" lon="5.85221">
        <ele>1166.3</ele>
        <time>2021-08-19T14:31:04Z</time>
      </trkpt>
      <trkpt lat="46.29179" lon="5.85219">
        <ele>1166.3</ele>
        <time>2021-08-19T14:31:05Z</time>
      </trkpt>
      <trkpt lat="46.29169" lon="5.85214">
        <ele>1166.3</ele>
        <time>2021-08-19T14:31:07Z</time>
      </trkpt>
      <trkpt lat="46.2916" lon="5.85208">
        <ele>1166.3</ele>
        <time>2021-08-19T14:31:09Z</time>
      </trkpt>
      <trkpt lat="46.29151" lon="5.85202">
        <ele>1166.4</ele>
        <time>2021-08-19T14:31:11Z</time>
      </trkpt>
      <trkpt lat="46.29142" lon="5.85195">
        <ele>1166.4</ele>
        <time>2021-08-19T14:31:13Z</time>
      </trkpt>
      <trkpt lat="46.29136" lon="5.85189">
        <ele>1166.5</ele>
        <time>2021-08-19T14:31:15Z</time>
      </trkpt>
      <trkpt lat="46.29133" lon="5.85186">
        <ele>1166.5</ele>
        <time>2021-08-19T14:31:16Z</time>
      </trkpt>
      <trkpt lat="46.29129" lon="5.85185">
        <ele>1166.5</ele>
        <time>2021-08-19T14:31:17Z</time>
      </trkpt>
      <trkpt lat="46.2912" lon="5.8518">
        <ele>1166.6</ele>
        <time>2021-08-19T14:31:19Z</time>
      </trkpt>
      <trkpt lat="46.29116" lon="5.85178">
        <ele>1166.6</ele>
        <time>2021-08-19T14:31:20Z</time>
      </trkpt>
      <trkpt lat="46.29113" lon="5.85172">
        <ele>1166.6</ele>
        <time>2021-08-19T14:31:22Z</time>
      </trkpt>
      <trkpt lat="46.2911" lon="5.85171">
        <ele>1166.7</ele>
        <time>2021-08-19T14:31:23Z</time>
      </trkpt>
      <trkpt lat="46.29096" lon="5.85172">
        <ele>1166.8</ele>
        <time>2021-08-19T14:31:24Z</time>
      </trkpt>
      <trkpt lat="46.29091" lon="5.85171">
        <ele>1166.8</ele>
        <time>2021-08-19T14:31:25Z</time>
      </trkpt>
      <trkpt lat="46.29083" lon="5.85174">
        <ele>1166.9</ele>
        <time>2021-08-19T14:31:27Z</time>
      </trkpt>
      <trkpt lat="46.2908" lon="5.85172">
        <ele>1167</ele>
        <time>2021-08-19T14:31:28Z</time>
      </trkpt>
      <trkpt lat="46.29075" lon="5.85169">
        <ele>1167</ele>
        <time>2021-08-19T14:31:30Z</time>
      </trkpt>
      <trkpt lat="46.29071" lon="5.85168">
        <ele>1167.1</ele>
        <time>2021-08-19T14:31:31Z</time>
      </trkpt>
      <trkpt lat="46.29065" lon="5.85166">
        <ele>1167.2</ele>
        <time>2021-08-19T14:31:32Z</time>
      </trkpt>
      <trkpt lat="46.29061" lon="5.85166">
        <ele>1167.2</ele>
        <time>2021-08-19T14:31:33Z</time>
      </trkpt>
      <trkpt lat="46.29056" lon="5.85166">
        <ele>1167.3</ele>
        <time>2021-08-19T14:31:35Z</time>
      </trkpt>
      <trkpt lat="46.29051" lon="5.85166">
        <ele>1167.3</ele>
        <time>2021-08-19T14:31:36Z</time>
      </trkpt>
      <trkpt lat="46.29048" lon="5.85165">
        <ele>1167.4</ele>
        <time>2021-08-19T14:31:37Z</time>
      </trkpt>
      <trkpt lat="46.29044" lon="5.85165">
        <ele>1167.4</ele>
        <time>2021-08-19T14:31:38Z</time>
      </trkpt>
      <trkpt lat="46.29039" lon="5.85166">
        <ele>1167.5</ele>
        <time>2021-08-19T14:31:39Z</time>
      </trkpt>
      <trkpt lat="46.29035" lon="5.85167">
        <ele>1167.5</ele>
        <time>2021-08-19T14:31:40Z</time>
      </trkpt>
      <trkpt lat="46.29028" lon="5.85169">
        <ele>1167.6</ele>
        <time>2021-08-19T14:31:42Z</time>
      </trkpt>
      <trkpt lat="46.2902" lon="5.85168">
        <ele>1167.6</ele>
        <time>2021-08-19T14:31:44Z</time>
      </trkpt>
      <trkpt lat="46.29015" lon="5.85168">
        <ele>1167.7</ele>
        <time>2021-08-19T14:31:45Z</time>
      </trkpt>
      <trkpt lat="46.29011" lon="5.85167">
        <ele>1167.7</ele>
        <time>2021-08-19T14:31:46Z</time>
      </trkpt>
      <trkpt lat="46.29006" lon="5.85166">
        <ele>1167.8</ele>
        <time>2021-08-19T14:31:47Z</time>
      </trkpt>
      <trkpt lat="46.29002" lon="5.85165">
        <ele>1167.8</ele>
        <time>2021-08-19T14:31:48Z</time>
      </trkpt>
      <trkpt lat="46.28998" lon="5.85166">
        <ele>1167.8</ele>
        <time>2021-08-19T14:31:49Z</time>
      </trkpt>
      <trkpt lat="46.28993" lon="5.85167">
        <ele>1167.9</ele>
        <time>2021-08-19T14:31:51Z</time>
      </trkpt>
      <trkpt lat="46.28988" lon="5.85168">
        <ele>1168</ele>
        <time>2021-08-19T14:31:52Z</time>
      </trkpt>
      <trkpt lat="46.28981" lon="5.85168">
        <ele>1168</ele>
        <time>2021-08-19T14:31:54Z</time>
      </trkpt>
      <trkpt lat="46.28978" lon="5.85167">
        <ele>1168.1</ele>
        <time>2021-08-19T14:31:55Z</time>
      </trkpt>
      <trkpt lat="46.28974" lon="5.85167">
        <ele>1168.1</ele>
        <time>2021-08-19T14:31:56Z</time>
      </trkpt>
      <trkpt lat="46.28968" lon="5.85167">
        <ele>1168.2</ele>
        <time>2021-08-19T14:31:58Z</time>
      </trkpt>
      <trkpt lat="46.28964" lon="5.85166">
        <ele>1168.3</ele>
        <time>2021-08-19T14:31:59Z</time>
      </trkpt>
      <trkpt lat="46.28961" lon="5.85166">
        <ele>1168.4</ele>
        <time>2021-08-19T14:32:00Z</time>
      </trkpt>
      <trkpt lat="46.28956" lon="5.85165">
        <ele>1168.5</ele>
        <time>2021-08-19T14:32:02Z</time>
      </trkpt>
      <trkpt lat="46.28952" lon="5.85164">
        <ele>1168.5</ele>
        <time>2021-08-19T14:32:03Z</time>
      </trkpt>
      <trkpt lat="46.28949" lon="5.85164">
        <ele>1168.6</ele>
        <time>2021-08-19T14:32:04Z</time>
      </trkpt>
      <trkpt lat="46.28944" lon="5.85163">
        <ele>1168.7</ele>
        <time>2021-08-19T14:32:05Z</time>
      </trkpt>
      <trkpt lat="46.2894" lon="5.85162">
        <ele>1168.8</ele>
        <time>2021-08-19T14:32:07Z</time>
      </trkpt>
      <trkpt lat="46.28936" lon="5.85162">
        <ele>1168.9</ele>
        <time>2021-08-19T14:32:09Z</time>
      </trkpt>
      <trkpt lat="46.2893" lon="5.8516">
        <ele>1169</ele>
        <time>2021-08-19T14:32:10Z</time>
      </trkpt>
      <trkpt lat="46.28924" lon="5.85158">
        <ele>1169.2</ele>
        <time>2021-08-19T14:32:12Z</time>
      </trkpt>
      <trkpt lat="46.28921" lon="5.85157">
        <ele>1169.3</ele>
        <time>2021-08-19T14:32:13Z</time>
      </trkpt>
      <trkpt lat="46.28918" lon="5.85156">
        <ele>1169.4</ele>
        <time>2021-08-19T14:32:14Z</time>
      </trkpt>
      <trkpt lat="46.28914" lon="5.85155">
        <ele>1169.5</ele>
        <time>2021-08-19T14:32:16Z</time>
      </trkpt>
      <trkpt lat="46.28909" lon="5.85153">
        <ele>1169.6</ele>
        <time>2021-08-19T14:32:17Z</time>
      </trkpt>
      <trkpt lat="46.28906" lon="5.85152">
        <ele>1169.6</ele>
        <time>2021-08-19T14:32:18Z</time>
      </trkpt>
      <trkpt lat="46.28903" lon="5.85151">
        <ele>1169.7</ele>
        <time>2021-08-19T14:32:19Z</time>
      </trkpt>
      <trkpt lat="46.289" lon="5.8515">
        <ele>1169.8</ele>
        <time>2021-08-19T14:32:21Z</time>
      </trkpt>
      <trkpt lat="46.28897" lon="5.85149">
        <ele>1169.8</ele>
        <time>2021-08-19T14:32:22Z</time>
      </trkpt>
      <trkpt lat="46.28893" lon="5.85148">
        <ele>1169.9</ele>
        <time>2021-08-19T14:32:23Z</time>
      </trkpt>
      <trkpt lat="46.28889" lon="5.85146">
        <ele>1170</ele>
        <time>2021-08-19T14:32:24Z</time>
      </trkpt>
      <trkpt lat="46.28886" lon="5.85145">
        <ele>1170.1</ele>
        <time>2021-08-19T14:32:25Z</time>
      </trkpt>
      <trkpt lat="46.28882" lon="5.85142">
        <ele>1170.2</ele>
        <time>2021-08-19T14:32:27Z</time>
      </trkpt>
      <trkpt lat="46.28877" lon="5.85139">
        <ele>1170.3</ele>
        <time>2021-08-19T14:32:28Z</time>
      </trkpt>
      <trkpt lat="46.28874" lon="5.85136">
        <ele>1170.4</ele>
        <time>2021-08-19T14:32:29Z</time>
      </trkpt>
      <trkpt lat="46.28868" lon="5.85133">
        <ele>1170.5</ele>
        <time>2021-08-19T14:32:31Z</time>
      </trkpt>
      <trkpt lat="46.28863" lon="5.8513">
        <ele>1170.6</ele>
        <time>2021-08-19T14:32:32Z</time>
      </trkpt>
      <trkpt lat="46.28858" lon="5.85128">
        <ele>1170.7</ele>
        <time>2021-08-19T14:32:34Z</time>
      </trkpt>
      <trkpt lat="46.28854" lon="5.85124">
        <ele>1170.8</ele>
        <time>2021-08-19T14:32:35Z</time>
      </trkpt>
      <trkpt lat="46.28849" lon="5.85121">
        <ele>1170.8</ele>
        <time>2021-08-19T14:32:37Z</time>
      </trkpt>
      <trkpt lat="46.28843" lon="5.85117">
        <ele>1170.9</ele>
        <time>2021-08-19T14:32:38Z</time>
      </trkpt>
      <trkpt lat="46.28836" lon="5.85112">
        <ele>1170.9</ele>
        <time>2021-08-19T14:32:40Z</time>
      </trkpt>
      <trkpt lat="46.28833" lon="5.85107">
        <ele>1171</ele>
        <time>2021-08-19T14:32:41Z</time>
      </trkpt>
      <trkpt lat="46.2883" lon="5.85102">
        <ele>1171</ele>
        <time>2021-08-19T14:32:42Z</time>
      </trkpt>
      <trkpt lat="46.28827" lon="5.851">
        <ele>1171.1</ele>
        <time>2021-08-19T14:32:43Z</time>
      </trkpt>
      <trkpt lat="46.28824" lon="5.85096">
        <ele>1171.1</ele>
        <time>2021-08-19T14:32:45Z</time>
      </trkpt>
      <trkpt lat="46.2882" lon="5.85088">
        <ele>1171.2</ele>
        <time>2021-08-19T14:32:46Z</time>
      </trkpt>
      <trkpt lat="46.28815" lon="5.85079">
        <ele>1171.3</ele>
        <time>2021-08-19T14:32:48Z</time>
      </trkpt>
      <trkpt lat="46.28812" lon="5.85069">
        <ele>1171.4</ele>
        <time>2021-08-19T14:32:50Z</time>
      </trkpt>
      <trkpt lat="46.2881" lon="5.85062">
        <ele>1171.5</ele>
        <time>2021-08-19T14:32:52Z</time>
      </trkpt>
      <trkpt lat="46.28807" lon="5.85057">
        <ele>1171.6</ele>
        <time>2021-08-19T14:32:53Z</time>
      </trkpt>
      <trkpt lat="46.28805" lon="5.85054">
        <ele>1171.6</ele>
        <time>2021-08-19T14:32:54Z</time>
      </trkpt>
      <trkpt lat="46.28801" lon="5.85052">
        <ele>1171.7</ele>
        <time>2021-08-19T14:32:55Z</time>
      </trkpt>
      <trkpt lat="46.28798" lon="5.85049">
        <ele>1171.7</ele>
        <time>2021-08-19T14:32:56Z</time>
      </trkpt>
      <trkpt lat="46.28794" lon="5.85046">
        <ele>1171.8</ele>
        <time>2021-08-19T14:32:57Z</time>
      </trkpt>
      <trkpt lat="46.28792" lon="5.85042">
        <ele>1171.8</ele>
        <time>2021-08-19T14:32:58Z</time>
      </trkpt>
      <trkpt lat="46.28789" lon="5.85037">
        <ele>1171.8</ele>
        <time>2021-08-19T14:32:59Z</time>
      </trkpt>
      <trkpt lat="46.28787" lon="5.85032">
        <ele>1171.8</ele>
        <time>2021-08-19T14:33:00Z</time>
      </trkpt>
      <trkpt lat="46.28783" lon="5.85022">
        <ele>1171.8</ele>
        <time>2021-08-19T14:33:02Z</time>
      </trkpt>
      <trkpt lat="46.28779" lon="5.85017">
        <ele>1171.7</ele>
        <time>2021-08-19T14:33:04Z</time>
      </trkpt>
      <trkpt lat="46.28775" lon="5.85012">
        <ele>1171.6</ele>
        <time>2021-08-19T14:33:05Z</time>
      </trkpt>
      <trkpt lat="46.28769" lon="5.85001">
        <ele>1171.4</ele>
        <time>2021-08-19T14:33:07Z</time>
      </trkpt>
      <trkpt lat="46.28763" lon="5.84989">
        <ele>1171.1</ele>
        <time>2021-08-19T14:33:09Z</time>
      </trkpt>
      <trkpt lat="46.2876" lon="5.84982">
        <ele>1171</ele>
        <time>2021-08-19T14:33:10Z</time>
      </trkpt>
      <trkpt lat="46.28756" lon="5.84976">
        <ele>1170.8</ele>
        <time>2021-08-19T14:33:11Z</time>
      </trkpt>
      <trkpt lat="46.28748" lon="5.84967">
        <ele>1170.5</ele>
        <time>2021-08-19T14:33:13Z</time>
      </trkpt>
      <trkpt lat="46.28739" lon="5.84957">
        <ele>1170.2</ele>
        <time>2021-08-19T14:33:15Z</time>
      </trkpt>
      <trkpt lat="46.28734" lon="5.84952">
        <ele>1170</ele>
        <time>2021-08-19T14:33:16Z</time>
      </trkpt>
      <trkpt lat="46.2873" lon="5.84947">
        <ele>1169.8</ele>
        <time>2021-08-19T14:33:17Z</time>
      </trkpt>
      <trkpt lat="46.2872" lon="5.84938">
        <ele>1169.3</ele>
        <time>2021-08-19T14:33:19Z</time>
      </trkpt>
      <trkpt lat="46.2871" lon="5.84928">
        <ele>1168.9</ele>
        <time>2021-08-19T14:33:21Z</time>
      </trkpt>
      <trkpt lat="46.28705" lon="5.84923">
        <ele>1168.7</ele>
        <time>2021-08-19T14:33:22Z</time>
      </trkpt>
      <trkpt lat="46.287" lon="5.84917">
        <ele>1168.3</ele>
        <time>2021-08-19T14:33:23Z</time>
      </trkpt>
      <trkpt lat="46.28688" lon="5.84907">
        <ele>1167.6</ele>
        <time>2021-08-19T14:33:25Z</time>
      </trkpt>
      <trkpt lat="46.28678" lon="5.84896">
        <ele>1166.9</ele>
        <time>2021-08-19T14:33:27Z</time>
      </trkpt>
      <trkpt lat="46.28673" lon="5.84891">
        <ele>1166.6</ele>
        <time>2021-08-19T14:33:28Z</time>
      </trkpt>
      <trkpt lat="46.28668" lon="5.84886">
        <ele>1166.3</ele>
        <time>2021-08-19T14:33:29Z</time>
      </trkpt>
      <trkpt lat="46.28663" lon="5.84881">
        <ele>1166</ele>
        <time>2021-08-19T14:33:30Z</time>
      </trkpt>
      <trkpt lat="46.28659" lon="5.84876">
        <ele>1165.7</ele>
        <time>2021-08-19T14:33:31Z</time>
      </trkpt>
      <trkpt lat="46.28653" lon="5.84866">
        <ele>1165.4</ele>
        <time>2021-08-19T14:33:33Z</time>
      </trkpt>
      <trkpt lat="46.2865" lon="5.8486">
        <ele>1165.2</ele>
        <time>2021-08-19T14:33:34Z</time>
      </trkpt>
      <trkpt lat="46.28647" lon="5.84856">
        <ele>1165.1</ele>
        <time>2021-08-19T14:33:35Z</time>
      </trkpt>
      <trkpt lat="46.2864" lon="5.84852">
        <ele>1164.8</ele>
        <time>2021-08-19T14:33:37Z</time>
      </trkpt>
      <trkpt lat="46.28633" lon="5.84847">
        <ele>1164.5</ele>
        <time>2021-08-19T14:33:39Z</time>
      </trkpt>
      <trkpt lat="46.28626" lon="5.84841">
        <ele>1164.3</ele>
        <time>2021-08-19T14:33:41Z</time>
      </trkpt>
      <trkpt lat="46.28619" lon="5.84833">
        <ele>1164</ele>
        <time>2021-08-19T14:33:43Z</time>
      </trkpt>
      <trkpt lat="46.28613" lon="5.84821">
        <ele>1163.5</ele>
        <time>2021-08-19T14:33:45Z</time>
      </trkpt>
      <trkpt lat="46.28611" lon="5.84814">
        <ele>1163.3</ele>
        <time>2021-08-19T14:33:46Z</time>
      </trkpt>
      <trkpt lat="46.28608" lon="5.84808">
        <ele>1163</ele>
        <time>2021-08-19T14:33:47Z</time>
      </trkpt>
      <trkpt lat="46.28599" lon="5.84797">
        <ele>1162.4</ele>
        <time>2021-08-19T14:33:49Z</time>
      </trkpt>
      <trkpt lat="46.28593" lon="5.84792">
        <ele>1162.2</ele>
        <time>2021-08-19T14:33:50Z</time>
      </trkpt>
      <trkpt lat="46.28581" lon="5.84786">
        <ele>1161.7</ele>
        <time>2021-08-19T14:33:52Z</time>
      </trkpt>
      <trkpt lat="46.28575" lon="5.84784">
        <ele>1161.5</ele>
        <time>2021-08-19T14:33:53Z</time>
      </trkpt>
      <trkpt lat="46.28563" lon="5.8478">
        <ele>1161.4</ele>
        <time>2021-08-19T14:33:55Z</time>
      </trkpt>
      <trkpt lat="46.28552" lon="5.84774">
        <ele>1161.3</ele>
        <time>2021-08-19T14:33:57Z</time>
      </trkpt>
      <trkpt lat="46.28546" lon="5.8477">
        <ele>1161.2</ele>
        <time>2021-08-19T14:33:58Z</time>
      </trkpt>
      <trkpt lat="46.28539" lon="5.84766">
        <ele>1161.2</ele>
        <time>2021-08-19T14:33:59Z</time>
      </trkpt>
      <trkpt lat="46.28526" lon="5.8476">
        <ele>1161.3</ele>
        <time>2021-08-19T14:34:01Z</time>
      </trkpt>
      <trkpt lat="46.28515" lon="5.84754">
        <ele>1161.6</ele>
        <time>2021-08-19T14:34:03Z</time>
      </trkpt>
      <trkpt lat="46.2851" lon="5.84752">
        <ele>1161.7</ele>
        <time>2021-08-19T14:34:04Z</time>
      </trkpt>
      <trkpt lat="46.28505" lon="5.84751">
        <ele>1161.8</ele>
        <time>2021-08-19T14:34:05Z</time>
      </trkpt>
      <trkpt lat="46.28497" lon="5.8475">
        <ele>1162</ele>
        <time>2021-08-19T14:34:08Z</time>
      </trkpt>
      <trkpt lat="46.28492" lon="5.84747">
        <ele>1162.1</ele>
        <time>2021-08-19T14:34:09Z</time>
      </trkpt>
      <trkpt lat="46.28488" lon="5.84746">
        <ele>1162.2</ele>
        <time>2021-08-19T14:34:10Z</time>
      </trkpt>
      <trkpt lat="46.28482" lon="5.84744">
        <ele>1162.3</ele>
        <time>2021-08-19T14:34:12Z</time>
      </trkpt>
      <trkpt lat="46.28477" lon="5.84742">
        <ele>1162.4</ele>
        <time>2021-08-19T14:34:14Z</time>
      </trkpt>
      <trkpt lat="46.2847" lon="5.84741">
        <ele>1162.6</ele>
        <time>2021-08-19T14:34:15Z</time>
      </trkpt>
      <trkpt lat="46.28466" lon="5.8474">
        <ele>1162.7</ele>
        <time>2021-08-19T14:34:16Z</time>
      </trkpt>
      <trkpt lat="46.28463" lon="5.84739">
        <ele>1162.8</ele>
        <time>2021-08-19T14:34:17Z</time>
      </trkpt>
      <trkpt lat="46.2846" lon="5.84737">
        <ele>1162.9</ele>
        <time>2021-08-19T14:34:18Z</time>
      </trkpt>
      <trkpt lat="46.28454" lon="5.84734">
        <ele>1163</ele>
        <time>2021-08-19T14:34:20Z</time>
      </trkpt>
      <trkpt lat="46.2845" lon="5.84732">
        <ele>1163.1</ele>
        <time>2021-08-19T14:34:21Z</time>
      </trkpt>
      <trkpt lat="46.28445" lon="5.84729">
        <ele>1163.3</ele>
        <time>2021-08-19T14:34:22Z</time>
      </trkpt>
      <trkpt lat="46.28441" lon="5.84724">
        <ele>1163.4</ele>
        <time>2021-08-19T14:34:24Z</time>
      </trkpt>
      <trkpt lat="46.2844" lon="5.84722">
        <ele>1163.4</ele>
        <time>2021-08-19T14:34:25Z</time>
      </trkpt>
      <trkpt lat="46.28442" lon="5.84719">
        <ele>1163.4</ele>
        <time>2021-08-19T14:34:27Z</time>
      </trkpt>
      <trkpt lat="46.28443" lon="5.84718">
        <ele>1163.4</ele>
        <time>2021-08-19T14:34:28Z</time>
      </trkpt>
      <trkpt lat="46.28442" lon="5.84717">
        <ele>1163.4</ele>
        <time>2021-08-19T14:34:29Z</time>
      </trkpt>
      <trkpt lat="46.2844" lon="5.84715">
        <ele>1163.4</ele>
        <time>2021-08-19T14:34:31Z</time>
      </trkpt>
      <trkpt lat="46.28438" lon="5.84712">
        <ele>1163.4</ele>
        <time>2021-08-19T14:34:33Z</time>
      </trkpt>
      <trkpt lat="46.28438" lon="5.84711">
        <ele>1163.4</ele>
        <time>2021-08-19T14:34:34Z</time>
      </trkpt>
      <trkpt lat="46.28438" lon="5.84711">
        <ele>1163.6</ele>
        <time>2021-08-19T14:34:35Z</time>
      </trkpt>
      <trkpt lat="46.28438" lon="5.84711">
        <ele>1163.6</ele>
        <time>2021-08-19T14:34:37Z</time>
      </trkpt>
      <trkpt lat="46.28438" lon="5.84711">
        <ele>1163.6</ele>
        <time>2021-08-19T14:34:39Z</time>
      </trkpt>
      <trkpt lat="46.28438" lon="5.84711">
        <ele>1163.6</ele>
        <time>2021-08-19T14:34:40Z</time>
      </trkpt>
      <trkpt lat="46.28438" lon="5.84711">
        <ele>1163.6</ele>
        <time>2021-08-19T14:34:42Z</time>
      </trkpt>
      <trkpt lat="46.28443" lon="5.84712">
        <ele>1163.6</ele>
        <time>2021-08-19T14:35:56Z</time>
      </trkpt>
      <trkpt lat="46.28441" lon="5.84715">
        <ele>1163.6</ele>
        <time>2021-08-19T14:35:58Z</time>
      </trkpt>
      <trkpt lat="46.28439" lon="5.84716">
        <ele>1163.7</ele>
        <time>2021-08-19T14:36:01Z</time>
      </trkpt>
      <trkpt lat="46.28436" lon="5.84717">
        <ele>1163.7</ele>
        <time>2021-08-19T14:36:05Z</time>
      </trkpt>
      <trkpt lat="46.28436" lon="5.84717">
        <ele>1163.7</ele>
        <time>2021-08-19T14:36:06Z</time>
      </trkpt>
      <trkpt lat="46.28435" lon="5.84717">
        <ele>1163.7</ele>
        <time>2021-08-19T14:36:07Z</time>
      </trkpt>
      <trkpt lat="46.28433" lon="5.84719">
        <ele>1163.7</ele>
        <time>2021-08-19T14:36:09Z</time>
      </trkpt>
      <trkpt lat="46.28432" lon="5.84719">
        <ele>1163.7</ele>
        <time>2021-08-19T14:36:10Z</time>
      </trkpt>
      <trkpt lat="46.28432" lon="5.84719">
        <ele>1163.7</ele>
        <time>2021-08-19T14:36:11Z</time>
      </trkpt>
      <trkpt lat="46.28432" lon="5.84718">
        <ele>1163.7</ele>
        <time>2021-08-19T14:36:13Z</time>
      </trkpt>
      <trkpt lat="46.28432" lon="5.84717">
        <ele>1163.7</ele>
        <time>2021-08-19T14:36:14Z</time>
      </trkpt>
      <trkpt lat="46.28432" lon="5.84715">
        <ele>1163.7</ele>
        <time>2021-08-19T14:36:15Z</time>
      </trkpt>
      <trkpt lat="46.28433" lon="5.84714">
        <ele>1163.7</ele>
        <time>2021-08-19T14:36:16Z</time>
      </trkpt>
      <trkpt lat="46.28434" lon="5.84713">
        <ele>1163.7</ele>
        <time>2021-08-19T14:36:17Z</time>
      </trkpt>
      <trkpt lat="46.28435" lon="5.84713">
        <ele>1163.7</ele>
        <time>2021-08-19T14:36:20Z</time>
      </trkpt>
      <trkpt lat="46.28433" lon="5.84719">
        <ele>1163.8</ele>
        <time>2021-08-19T14:36:26Z</time>
      </trkpt>
      <trkpt lat="46.28433" lon="5.84721">
        <ele>1163.8</ele>
        <time>2021-08-19T14:36:33Z</time>
      </trkpt>
      <trkpt lat="46.28423" lon="5.84734">
        <ele>1163.9</ele>
        <time>2021-08-19T14:36:39Z</time>
      </trkpt>
      <trkpt lat="46.28416" lon="5.84743">
        <ele>1163.9</ele>
        <time>2021-08-19T14:36:45Z</time>
      </trkpt>
      <trkpt lat="46.28416" lon="5.84742">
        <ele>1163.9</ele>
        <time>2021-08-19T14:36:51Z</time>
      </trkpt>
      <trkpt lat="46.28416" lon="5.84741">
        <ele>1163.9</ele>
        <time>2021-08-19T14:36:58Z</time>
      </trkpt>
      <trkpt lat="46.28416" lon="5.8474">
        <ele>1163.9</ele>
        <time>2021-08-19T14:36:59Z</time>
      </trkpt>
      <trkpt lat="46.28416" lon="5.84739">
        <ele>1163.9</ele>
        <time>2021-08-19T14:37:00Z</time>
      </trkpt>
      <trkpt lat="46.28416" lon="5.84738">
        <ele>1163.9</ele>
        <time>2021-08-19T14:37:01Z</time>
      </trkpt>
      <trkpt lat="46.28417" lon="5.84737">
        <ele>1163.9</ele>
        <time>2021-08-19T14:37:02Z</time>
      </trkpt>
      <trkpt lat="46.28416" lon="5.84731">
        <ele>1164</ele>
        <time>2021-08-19T14:37:04Z</time>
      </trkpt>
      <trkpt lat="46.28416" lon="5.84727">
        <ele>1164</ele>
        <time>2021-08-19T14:37:05Z</time>
      </trkpt>
      <trkpt lat="46.28416" lon="5.84725">
        <ele>1163.9</ele>
        <time>2021-08-19T14:37:06Z</time>
      </trkpt>
      <trkpt lat="46.28417" lon="5.84716">
        <ele>1163.9</ele>
        <time>2021-08-19T14:37:08Z</time>
      </trkpt>
      <trkpt lat="46.28415" lon="5.8471">
        <ele>1163.9</ele>
        <time>2021-08-19T14:37:09Z</time>
      </trkpt>
      <trkpt lat="46.28411" lon="5.84706">
        <ele>1163.8</ele>
        <time>2021-08-19T14:37:11Z</time>
      </trkpt>
      <trkpt lat="46.28405" lon="5.84756">
        <ele>1163.6</ele>
        <time>2021-08-19T14:39:07Z</time>
      </trkpt>
      <trkpt lat="46.28403" lon="5.84765">
        <ele>1163.5</ele>
        <time>2021-08-19T14:39:09Z</time>
      </trkpt>
      <trkpt lat="46.28403" lon="5.84771">
        <ele>1163.5</ele>
        <time>2021-08-19T14:39:10Z</time>
      </trkpt>
      <trkpt lat="46.28402" lon="5.84775">
        <ele>1163.4</ele>
        <time>2021-08-19T14:39:11Z</time>
      </trkpt>
      <trkpt lat="46.28402" lon="5.84782">
        <ele>1163.4</ele>
        <time>2021-08-19T14:39:13Z</time>
      </trkpt>
      <trkpt lat="46.28402" lon="5.84785">
        <ele>1163.3</ele>
        <time>2021-08-19T14:39:14Z</time>
      </trkpt>
      <trkpt lat="46.28402" lon="5.84787">
        <ele>1163.3</ele>
        <time>2021-08-19T14:39:15Z</time>
      </trkpt>
      <trkpt lat="46.28401" lon="5.84791">
        <ele>1163.3</ele>
        <time>2021-08-19T14:39:17Z</time>
      </trkpt>
      <trkpt lat="46.28401" lon="5.84793">
        <ele>1163.3</ele>
        <time>2021-08-19T14:39:18Z</time>
      </trkpt>
      <trkpt lat="46.28401" lon="5.84794">
        <ele>1163.2</ele>
        <time>2021-08-19T14:39:19Z</time>
      </trkpt>
      <trkpt lat="46.28401" lon="5.84793">
        <ele>1163.2</ele>
        <time>2021-08-19T14:39:20Z</time>
      </trkpt>
      <trkpt lat="46.28401" lon="5.84792">
        <ele>1163.2</ele>
        <time>2021-08-19T14:39:22Z</time>
      </trkpt>
      <trkpt lat="46.28402" lon="5.84792">
        <ele>1163.2</ele>
        <time>2021-08-19T14:39:23Z</time>
      </trkpt>
      <trkpt lat="46.28402" lon="5.84791">
        <ele>1163.2</ele>
        <time>2021-08-19T14:39:24Z</time>
      </trkpt>
      <trkpt lat="46.28402" lon="5.8479">
        <ele>1163.2</ele>
        <time>2021-08-19T14:39:26Z</time>
      </trkpt>
      <trkpt lat="46.28403" lon="5.8479">
        <ele>1163.2</ele>
        <time>2021-08-19T14:39:27Z</time>
      </trkpt>
      <trkpt lat="46.28403" lon="5.84789">
        <ele>1163.2</ele>
        <time>2021-08-19T14:39:29Z</time>
      </trkpt>
      <trkpt lat="46.28403" lon="5.84788">
        <ele>1163.2</ele>
        <time>2021-08-19T14:39:31Z</time>
      </trkpt>
      <trkpt lat="46.28403" lon="5.84787">
        <ele>1163.2</ele>
        <time>2021-08-19T14:39:43Z</time>
      </trkpt>
      <trkpt lat="46.28404" lon="5.84787">
        <ele>1163.2</ele>
        <time>2021-08-19T14:39:44Z</time>
      </trkpt>
      <trkpt lat="46.28404" lon="5.84786">
        <ele>1163.2</ele>
        <time>2021-08-19T14:39:46Z</time>
      </trkpt>
      <trkpt lat="46.28404" lon="5.84785">
        <ele>1163.2</ele>
        <time>2021-08-19T14:39:47Z</time>
      </trkpt>
      <trkpt lat="46.28405" lon="5.84785">
        <ele>1163.1</ele>
        <time>2021-08-19T14:39:48Z</time>
      </trkpt>
      <trkpt lat="46.28406" lon="5.8478">
        <ele>1163.1</ele>
        <time>2021-08-19T14:39:50Z</time>
      </trkpt>
      <trkpt lat="46.28406" lon="5.84779">
        <ele>1163.1</ele>
        <time>2021-08-19T14:39:51Z</time>
      </trkpt>
      <trkpt lat="46.28407" lon="5.84778">
        <ele>1163.1</ele>
        <time>2021-08-19T14:39:52Z</time>
      </trkpt>
      <trkpt lat="46.28407" lon="5.84778">
        <ele>1163.1</ele>
        <time>2021-08-19T14:39:53Z</time>
      </trkpt>
      <trkpt lat="46.28407" lon="5.84778">
        <ele>1163.1</ele>
        <time>2021-08-19T14:39:55Z</time>
      </trkpt>
      <trkpt lat="46.28408" lon="5.84777">
        <ele>1163.1</ele>
        <time>2021-08-19T14:39:56Z</time>
      </trkpt>
      <trkpt lat="46.28409" lon="5.84775">
        <ele>1163.1</ele>
        <time>2021-08-19T14:39:57Z</time>
      </trkpt>
      <trkpt lat="46.28409" lon="5.84774">
        <ele>1163.2</ele>
        <time>2021-08-19T14:39:58Z</time>
      </trkpt>
      <trkpt lat="46.2841" lon="5.84772">
        <ele>1163.2</ele>
        <time>2021-08-19T14:39:59Z</time>
      </trkpt>
      <trkpt lat="46.28411" lon="5.84769">
        <ele>1163.3</ele>
        <time>2021-08-19T14:40:01Z</time>
      </trkpt>
      <trkpt lat="46.28413" lon="5.84763">
        <ele>1163.4</ele>
        <time>2021-08-19T14:40:04Z</time>
      </trkpt>
      <trkpt lat="46.28415" lon="5.84759">
        <ele>1163.5</ele>
        <time>2021-08-19T14:40:05Z</time>
      </trkpt>
      <trkpt lat="46.28416" lon="5.84757">
        <ele>1163.5</ele>
        <time>2021-08-19T14:40:06Z</time>
      </trkpt>
      <trkpt lat="46.28417" lon="5.84755">
        <ele>1163.5</ele>
        <time>2021-08-19T14:40:08Z</time>
      </trkpt>
      <trkpt lat="46.28418" lon="5.84754">
        <ele>1163.6</ele>
        <time>2021-08-19T14:40:09Z</time>
      </trkpt>
      <trkpt lat="46.28418" lon="5.84754">
        <ele>1163.6</ele>
        <time>2021-08-19T14:40:10Z</time>
      </trkpt>
      <trkpt lat="46.28418" lon="5.84754">
        <ele>1163.6</ele>
        <time>2021-08-19T14:40:12Z</time>
      </trkpt>
      <trkpt lat="46.28418" lon="5.84754">
        <ele>1163.6</ele>
        <time>2021-08-19T14:40:13Z</time>
      </trkpt>
      <trkpt lat="46.28418" lon="5.84754">
        <ele>1163.6</ele>
        <time>2021-08-19T14:40:14Z</time>
      </trkpt>
      <trkpt lat="46.28419" lon="5.84754">
        <ele>1163.6</ele>
        <time>2021-08-19T14:40:16Z</time>
      </trkpt>
      <trkpt lat="46.28419" lon="5.84754">
        <ele>1163.6</ele>
        <time>2021-08-19T14:40:17Z</time>
      </trkpt>
      <trkpt lat="46.2842" lon="5.84753">
        <ele>1163.6</ele>
        <time>2021-08-19T14:40:18Z</time>
      </trkpt>
      <trkpt lat="46.28415" lon="5.84713">
        <ele>1164.1</ele>
        <time>2021-08-19T14:42:38Z</time>
      </trkpt>
      <trkpt lat="46.28412" lon="5.84712">
        <ele>1164.2</ele>
        <time>2021-08-19T14:42:39Z</time>
      </trkpt>
      <trkpt lat="46.28409" lon="5.84711">
        <ele>1164.2</ele>
        <time>2021-08-19T14:42:40Z</time>
      </trkpt>
      <trkpt lat="46.28405" lon="5.8471">
        <ele>1164.4</ele>
        <time>2021-08-19T14:42:42Z</time>
      </trkpt>
      <trkpt lat="46.28401" lon="5.84707">
        <ele>1164.5</ele>
        <time>2021-08-19T14:42:44Z</time>
      </trkpt>
      <trkpt lat="46.28398" lon="5.84704">
        <ele>1164.6</ele>
        <time>2021-08-19T14:42:45Z</time>
      </trkpt>
      <trkpt lat="46.28397" lon="5.84701">
        <ele>1164.6</ele>
        <time>2021-08-19T14:42:46Z</time>
      </trkpt>
      <trkpt lat="46.28394" lon="5.84697">
        <ele>1164.7</ele>
        <time>2021-08-19T14:42:48Z</time>
      </trkpt>
      <trkpt lat="46.28392" lon="5.84694">
        <ele>1164.7</ele>
        <time>2021-08-19T14:42:50Z</time>
      </trkpt>
      <trkpt lat="46.28391" lon="5.84693">
        <ele>1164.8</ele>
        <time>2021-08-19T14:42:51Z</time>
      </trkpt>
      <trkpt lat="46.28388" lon="5.84693">
        <ele>1164.8</ele>
        <time>2021-08-19T14:42:53Z</time>
      </trkpt>
      <trkpt lat="46.28387" lon="5.84694">
        <ele>1164.8</ele>
        <time>2021-08-19T14:42:55Z</time>
      </trkpt>
      <trkpt lat="46.28385" lon="5.84693">
        <ele>1164.8</ele>
        <time>2021-08-19T14:42:56Z</time>
      </trkpt>
      <trkpt lat="46.28384" lon="5.84693">
        <ele>1164.8</ele>
        <time>2021-08-19T14:42:57Z</time>
      </trkpt>
      <trkpt lat="46.28384" lon="5.84693">
        <ele>1164.8</ele>
        <time>2021-08-19T14:42:59Z</time>
      </trkpt>
      <trkpt lat="46.28384" lon="5.84691">
        <ele>1164.8</ele>
        <time>2021-08-19T14:43:00Z</time>
      </trkpt>
      <trkpt lat="46.28383" lon="5.84691">
        <ele>1164.8</ele>
        <time>2021-08-19T14:43:01Z</time>
      </trkpt>
      <trkpt lat="46.2838" lon="5.84692">
        <ele>1164.8</ele>
        <time>2021-08-19T14:43:03Z</time>
      </trkpt>
      <trkpt lat="46.28379" lon="5.84691">
        <ele>1164.8</ele>
        <time>2021-08-19T14:43:04Z</time>
      </trkpt>
      <trkpt lat="46.28378" lon="5.84691">
        <ele>1164.8</ele>
        <time>2021-08-19T14:43:05Z</time>
      </trkpt>
      <trkpt lat="46.28377" lon="5.8469">
        <ele>1164.8</ele>
        <time>2021-08-19T14:43:06Z</time>
      </trkpt>
      <trkpt lat="46.28376" lon="5.84689">
        <ele>1164.8</ele>
        <time>2021-08-19T14:43:08Z</time>
      </trkpt>
      <trkpt lat="46.28376" lon="5.84686">
        <ele>1164.8</ele>
        <time>2021-08-19T14:43:09Z</time>
      </trkpt>
      <trkpt lat="46.28377" lon="5.84685">
        <ele>1164.8</ele>
        <time>2021-08-19T14:43:10Z</time>
      </trkpt>
      <trkpt lat="46.28377" lon="5.84685">
        <ele>1164.8</ele>
        <time>2021-08-19T14:43:11Z</time>
      </trkpt>
      <trkpt lat="46.28381" lon="5.84685">
        <ele>1164.8</ele>
        <time>2021-08-19T14:43:13Z</time>
      </trkpt>
      <trkpt lat="46.28384" lon="5.84685">
        <ele>1164.8</ele>
        <time>2021-08-19T14:43:15Z</time>
      </trkpt>
      <trkpt lat="46.28388" lon="5.84685">
        <ele>1164.8</ele>
        <time>2021-08-19T14:43:16Z</time>
      </trkpt>
      <trkpt lat="46.28389" lon="5.84685">
        <ele>1164.8</ele>
        <time>2021-08-19T14:43:17Z</time>
      </trkpt>
      <trkpt lat="46.28391" lon="5.84687">
        <ele>1164.8</ele>
        <time>2021-08-19T14:43:19Z</time>
      </trkpt>
      <trkpt lat="46.28392" lon="5.84688">
        <ele>1164.8</ele>
        <time>2021-08-19T14:43:20Z</time>
      </trkpt>
      <trkpt lat="46.28396" lon="5.8469">
        <ele>1164.8</ele>
        <time>2021-08-19T14:43:22Z</time>
      </trkpt>
      <trkpt lat="46.28398" lon="5.84698">
        <ele>1164.8</ele>
        <time>2021-08-19T14:43:24Z</time>
      </trkpt>
      <trkpt lat="46.28399" lon="5.84701">
        <ele>1164.8</ele>
        <time>2021-08-19T14:43:25Z</time>
      </trkpt>
      <trkpt lat="46.284" lon="5.84704">
        <ele>1164.8</ele>
        <time>2021-08-19T14:43:27Z</time>
      </trkpt>
      <trkpt lat="46.28401" lon="5.84706">
        <ele>1164.9</ele>
        <time>2021-08-19T14:43:29Z</time>
      </trkpt>
      <trkpt lat="46.28402" lon="5.84706">
        <ele>1164.9</ele>
        <time>2021-08-19T14:43:30Z</time>
      </trkpt>
      <trkpt lat="46.28403" lon="5.84705">
        <ele>1164.9</ele>
        <time>2021-08-19T14:43:31Z</time>
      </trkpt>
      <trkpt lat="46.28402" lon="5.84701">
        <ele>1164.9</ele>
        <time>2021-08-19T14:43:33Z</time>
      </trkpt>
      <trkpt lat="46.28399" lon="5.84699">
        <ele>1164.9</ele>
        <time>2021-08-19T14:43:34Z</time>
      </trkpt>
      <trkpt lat="46.28396" lon="5.847">
        <ele>1164.9</ele>
        <time>2021-08-19T14:43:35Z</time>
      </trkpt>
      <trkpt lat="46.28392" lon="5.84702">
        <ele>1164.9</ele>
        <time>2021-08-19T14:43:37Z</time>
      </trkpt>
      <trkpt lat="46.28388" lon="5.84703">
        <ele>1164.9</ele>
        <time>2021-08-19T14:43:38Z</time>
      </trkpt>
      <trkpt lat="46.28385" lon="5.84703">
        <ele>1164.9</ele>
        <time>2021-08-19T14:43:39Z</time>
      </trkpt>
      <trkpt lat="46.28381" lon="5.84704">
        <ele>1164.9</ele>
        <time>2021-08-19T14:43:40Z</time>
      </trkpt>
      <trkpt lat="46.28377" lon="5.84704">
        <ele>1164.9</ele>
        <time>2021-08-19T14:43:42Z</time>
      </trkpt>
      <trkpt lat="46.28372" lon="5.84705">
        <ele>1165</ele>
        <time>2021-08-19T14:43:43Z</time>
      </trkpt>
      <trkpt lat="46.2837" lon="5.84706">
        <ele>1165</ele>
        <time>2021-08-19T14:43:44Z</time>
      </trkpt>
      <trkpt lat="46.28366" lon="5.84706">
        <ele>1165</ele>
        <time>2021-08-19T14:43:46Z</time>
      </trkpt>
      <trkpt lat="46.28363" lon="5.84706">
        <ele>1165</ele>
        <time>2021-08-19T14:43:47Z</time>
      </trkpt>
      <trkpt lat="46.28364" lon="5.847">
        <ele>1165</ele>
        <time>2021-08-19T14:43:49Z</time>
      </trkpt>
      <trkpt lat="46.28364" lon="5.8469">
        <ele>1165</ele>
        <time>2021-08-19T14:43:50Z</time>
      </trkpt>
      <trkpt lat="46.28365" lon="5.84682">
        <ele>1165</ele>
        <time>2021-08-19T14:43:52Z</time>
      </trkpt>
      <trkpt lat="46.28364" lon="5.84673">
        <ele>1165</ele>
        <time>2021-08-19T14:43:53Z</time>
      </trkpt>
      <trkpt lat="46.2836" lon="5.84663">
        <ele>1164.9</ele>
        <time>2021-08-19T14:43:55Z</time>
      </trkpt>
      <trkpt lat="46.28356" lon="5.84656">
        <ele>1164.9</ele>
        <time>2021-08-19T14:43:57Z</time>
      </trkpt>
      <trkpt lat="46.28353" lon="5.84655">
        <ele>1164.9</ele>
        <time>2021-08-19T14:43:58Z</time>
      </trkpt>
      <trkpt lat="46.2835" lon="5.84655">
        <ele>1164.9</ele>
        <time>2021-08-19T14:43:59Z</time>
      </trkpt>
      <trkpt lat="46.28345" lon="5.84656">
        <ele>1164.8</ele>
        <time>2021-08-19T14:44:01Z</time>
      </trkpt>
      <trkpt lat="46.28341" lon="5.84656">
        <ele>1164.7</ele>
        <time>2021-08-19T14:44:02Z</time>
      </trkpt>
      <trkpt lat="46.2834" lon="5.84655">
        <ele>1164.7</ele>
        <time>2021-08-19T14:44:03Z</time>
      </trkpt>
      <trkpt lat="46.28336" lon="5.8466">
        <ele>1164.7</ele>
        <time>2021-08-19T14:44:05Z</time>
      </trkpt>
      <trkpt lat="46.28335" lon="5.84661">
        <ele>1164.6</ele>
        <time>2021-08-19T14:44:06Z</time>
      </trkpt>
      <trkpt lat="46.28335" lon="5.84661">
        <ele>1164.6</ele>
        <time>2021-08-19T14:44:07Z</time>
      </trkpt>
      <trkpt lat="46.28335" lon="5.84661">
        <ele>1164.6</ele>
        <time>2021-08-19T14:44:09Z</time>
      </trkpt>
      <trkpt lat="46.28335" lon="5.84662">
        <ele>1164.6</ele>
        <time>2021-08-19T14:44:11Z</time>
      </trkpt>
      <trkpt lat="46.28335" lon="5.84662">
        <ele>1164.6</ele>
        <time>2021-08-19T14:44:12Z</time>
      </trkpt>
      <trkpt lat="46.28328" lon="5.84664">
        <ele>1164.5</ele>
        <time>2021-08-19T14:44:42Z</time>
      </trkpt>
      <trkpt lat="46.28313" lon="5.8466">
        <ele>1164.2</ele>
        <time>2021-08-19T14:44:44Z</time>
      </trkpt>
      <trkpt lat="46.28296" lon="5.84657">
        <ele>1163.6</ele>
        <time>2021-08-19T14:44:45Z</time>
      </trkpt>
      <trkpt lat="46.28289" lon="5.84655">
        <ele>1163.4</ele>
        <time>2021-08-19T14:44:46Z</time>
      </trkpt>
      <trkpt lat="46.28276" lon="5.8465">
        <ele>1162.8</ele>
        <time>2021-08-19T14:44:48Z</time>
      </trkpt>
      <trkpt lat="46.28269" lon="5.84646">
        <ele>1162.5</ele>
        <time>2021-08-19T14:44:49Z</time>
      </trkpt>
      <trkpt lat="46.28257" lon="5.84638">
        <ele>1161.9</ele>
        <time>2021-08-19T14:44:51Z</time>
      </trkpt>
      <trkpt lat="46.2825" lon="5.84633">
        <ele>1161.6</ele>
        <time>2021-08-19T14:44:52Z</time>
      </trkpt>
      <trkpt lat="46.28245" lon="5.84628">
        <ele>1161.3</ele>
        <time>2021-08-19T14:44:53Z</time>
      </trkpt>
      <trkpt lat="46.28233" lon="5.84615">
        <ele>1160.8</ele>
        <time>2021-08-19T14:44:55Z</time>
      </trkpt>
      <trkpt lat="46.28221" lon="5.846">
        <ele>1160.4</ele>
        <time>2021-08-19T14:44:57Z</time>
      </trkpt>
      <trkpt lat="46.28215" lon="5.84593">
        <ele>1160.2</ele>
        <time>2021-08-19T14:44:58Z</time>
      </trkpt>
      <trkpt lat="46.28209" lon="5.84585">
        <ele>1160</ele>
        <time>2021-08-19T14:44:59Z</time>
      </trkpt>
      <trkpt lat="46.28194" lon="5.84574">
        <ele>1159.6</ele>
        <time>2021-08-19T14:45:01Z</time>
      </trkpt>
      <trkpt lat="46.28178" lon="5.84565">
        <ele>1159.4</ele>
        <time>2021-08-19T14:45:03Z</time>
      </trkpt>
      <trkpt lat="46.2817" lon="5.84563">
        <ele>1159.4</ele>
        <time>2021-08-19T14:45:04Z</time>
      </trkpt>
      <trkpt lat="46.28162" lon="5.84561">
        <ele>1159.3</ele>
        <time>2021-08-19T14:45:05Z</time>
      </trkpt>
      <trkpt lat="46.28154" lon="5.8456">
        <ele>1159.4</ele>
        <time>2021-08-19T14:45:06Z</time>
      </trkpt>
      <trkpt lat="46.28146" lon="5.84559">
        <ele>1159.5</ele>
        <time>2021-08-19T14:45:07Z</time>
      </trkpt>
      <trkpt lat="46.28131" lon="5.84559">
        <ele>1159.8</ele>
        <time>2021-08-19T14:45:09Z</time>
      </trkpt>
      <trkpt lat="46.28124" lon="5.84558">
        <ele>1160</ele>
        <time>2021-08-19T14:45:10Z</time>
      </trkpt>
      <trkpt lat="46.28112" lon="5.84558">
        <ele>1160.3</ele>
        <time>2021-08-19T14:45:12Z</time>
      </trkpt>
      <trkpt lat="46.28107" lon="5.84558">
        <ele>1160.5</ele>
        <time>2021-08-19T14:45:14Z</time>
      </trkpt>
      <trkpt lat="46.28097" lon="5.84557">
        <ele>1160.7</ele>
        <time>2021-08-19T14:45:15Z</time>
      </trkpt>
      <trkpt lat="46.2809" lon="5.84555">
        <ele>1160.9</ele>
        <time>2021-08-19T14:45:17Z</time>
      </trkpt>
      <trkpt lat="46.28082" lon="5.8455">
        <ele>1161.1</ele>
        <time>2021-08-19T14:45:19Z</time>
      </trkpt>
      <trkpt lat="46.28077" lon="5.84545">
        <ele>1161.3</ele>
        <time>2021-08-19T14:45:21Z</time>
      </trkpt>
      <trkpt lat="46.2807" lon="5.84538">
        <ele>1161.5</ele>
        <time>2021-08-19T14:45:23Z</time>
      </trkpt>
      <trkpt lat="46.28067" lon="5.84537">
        <ele>1161.6</ele>
        <time>2021-08-19T14:45:25Z</time>
      </trkpt>
      <trkpt lat="46.28066" lon="5.84536">
        <ele>1161.7</ele>
        <time>2021-08-19T14:45:26Z</time>
      </trkpt>
      <trkpt lat="46.28065" lon="5.8453">
        <ele>1161.7</ele>
        <time>2021-08-19T14:45:27Z</time>
      </trkpt>
      <trkpt lat="46.28065" lon="5.84526">
        <ele>1161.8</ele>
        <time>2021-08-19T14:45:28Z</time>
      </trkpt>
      <trkpt lat="46.28063" lon="5.84522">
        <ele>1161.9</ele>
        <time>2021-08-19T14:45:29Z</time>
      </trkpt>
      <trkpt lat="46.28059" lon="5.8452">
        <ele>1162</ele>
        <time>2021-08-19T14:45:31Z</time>
      </trkpt>
      <trkpt lat="46.28057" lon="5.84521">
        <ele>1162</ele>
        <time>2021-08-19T14:45:33Z</time>
      </trkpt>
      <trkpt lat="46.28054" lon="5.84524">
        <ele>1162</ele>
        <time>2021-08-19T14:45:34Z</time>
      </trkpt>
      <trkpt lat="46.28051" lon="5.84528">
        <ele>1162</ele>
        <time>2021-08-19T14:45:36Z</time>
      </trkpt>
      <trkpt lat="46.28049" lon="5.8453">
        <ele>1162</ele>
        <time>2021-08-19T14:45:37Z</time>
      </trkpt>
      <trkpt lat="46.28046" lon="5.84533">
        <ele>1162</ele>
        <time>2021-08-19T14:45:39Z</time>
      </trkpt>
      <trkpt lat="46.28042" lon="5.84534">
        <ele>1161.9</ele>
        <time>2021-08-19T14:45:40Z</time>
      </trkpt>
      <trkpt lat="46.2804" lon="5.84535">
        <ele>1161.9</ele>
        <time>2021-08-19T14:45:41Z</time>
      </trkpt>
      <trkpt lat="46.28035" lon="5.84535">
        <ele>1161.8</ele>
        <time>2021-08-19T14:45:43Z</time>
      </trkpt>
      <trkpt lat="46.28031" lon="5.84535">
        <ele>1161.8</ele>
        <time>2021-08-19T14:45:44Z</time>
      </trkpt>
      <trkpt lat="46.28027" lon="5.84535">
        <ele>1161.7</ele>
        <time>2021-08-19T14:45:45Z</time>
      </trkpt>
      <trkpt lat="46.28023" lon="5.84536">
        <ele>1161.5</ele>
        <time>2021-08-19T14:45:46Z</time>
      </trkpt>
      <trkpt lat="46.2802" lon="5.84537">
        <ele>1161.4</ele>
        <time>2021-08-19T14:45:47Z</time>
      </trkpt>
      <trkpt lat="46.28013" lon="5.84541">
        <ele>1161</ele>
        <time>2021-08-19T14:45:49Z</time>
      </trkpt>
      <trkpt lat="46.28008" lon="5.84544">
        <ele>1160.6</ele>
        <time>2021-08-19T14:45:51Z</time>
      </trkpt>
      <trkpt lat="46.28" lon="5.84554">
        <ele>1160</ele>
        <time>2021-08-19T14:45:52Z</time>
      </trkpt>
      <trkpt lat="46.27996" lon="5.8456">
        <ele>1159.6</ele>
        <time>2021-08-19T14:45:53Z</time>
      </trkpt>
      <trkpt lat="46.27987" lon="5.84572">
        <ele>1158.8</ele>
        <time>2021-08-19T14:45:55Z</time>
      </trkpt>
      <trkpt lat="46.27983" lon="5.84577">
        <ele>1158.4</ele>
        <time>2021-08-19T14:45:56Z</time>
      </trkpt>
      <trkpt lat="46.27973" lon="5.8459">
        <ele>1157.5</ele>
        <time>2021-08-19T14:45:58Z</time>
      </trkpt>
      <trkpt lat="46.27967" lon="5.84596">
        <ele>1156.9</ele>
        <time>2021-08-19T14:45:59Z</time>
      </trkpt>
      <trkpt lat="46.27955" lon="5.84609">
        <ele>1155.8</ele>
        <time>2021-08-19T14:46:01Z</time>
      </trkpt>
      <trkpt lat="46.27943" lon="5.84622">
        <ele>1154.7</ele>
        <time>2021-08-19T14:46:03Z</time>
      </trkpt>
      <trkpt lat="46.27937" lon="5.84629">
        <ele>1154.1</ele>
        <time>2021-08-19T14:46:04Z</time>
      </trkpt>
      <trkpt lat="46.27931" lon="5.84636">
        <ele>1153.5</ele>
        <time>2021-08-19T14:46:05Z</time>
      </trkpt>
      <trkpt lat="46.27916" lon="5.84649">
        <ele>1152.3</ele>
        <time>2021-08-19T14:46:07Z</time>
      </trkpt>
      <trkpt lat="46.27901" lon="5.8466">
        <ele>1151.2</ele>
        <time>2021-08-19T14:46:09Z</time>
      </trkpt>
      <trkpt lat="46.27892" lon="5.84664">
        <ele>1150.6</ele>
        <time>2021-08-19T14:46:10Z</time>
      </trkpt>
      <trkpt lat="46.27884" lon="5.84669">
        <ele>1150.1</ele>
        <time>2021-08-19T14:46:11Z</time>
      </trkpt>
      <trkpt lat="46.27876" lon="5.84674">
        <ele>1149.5</ele>
        <time>2021-08-19T14:46:12Z</time>
      </trkpt>
      <trkpt lat="46.27868" lon="5.8468">
        <ele>1148.9</ele>
        <time>2021-08-19T14:46:13Z</time>
      </trkpt>
      <trkpt lat="46.27852" lon="5.84693">
        <ele>1147.9</ele>
        <time>2021-08-19T14:46:15Z</time>
      </trkpt>
      <trkpt lat="46.27836" lon="5.84706">
        <ele>1146.7</ele>
        <time>2021-08-19T14:46:17Z</time>
      </trkpt>
      <trkpt lat="46.27821" lon="5.84721">
        <ele>1145.4</ele>
        <time>2021-08-19T14:46:19Z</time>
      </trkpt>
      <trkpt lat="46.27806" lon="5.84734">
        <ele>1144</ele>
        <time>2021-08-19T14:46:21Z</time>
      </trkpt>
      <trkpt lat="46.27797" lon="5.84739">
        <ele>1143.4</ele>
        <time>2021-08-19T14:46:22Z</time>
      </trkpt>
      <trkpt lat="46.27789" lon="5.84743">
        <ele>1142.7</ele>
        <time>2021-08-19T14:46:23Z</time>
      </trkpt>
      <trkpt lat="46.27771" lon="5.84751">
        <ele>1141.5</ele>
        <time>2021-08-19T14:46:25Z</time>
      </trkpt>
      <trkpt lat="46.27752" lon="5.84758">
        <ele>1140.2</ele>
        <time>2021-08-19T14:46:27Z</time>
      </trkpt>
      <trkpt lat="46.27742" lon="5.84761">
        <ele>1139.5</ele>
        <time>2021-08-19T14:46:28Z</time>
      </trkpt>
      <trkpt lat="46.27733" lon="5.84765">
        <ele>1138.8</ele>
        <time>2021-08-19T14:46:29Z</time>
      </trkpt>
      <trkpt lat="46.27712" lon="5.8477">
        <ele>1137.4</ele>
        <time>2021-08-19T14:46:31Z</time>
      </trkpt>
      <trkpt lat="46.27691" lon="5.84775">
        <ele>1135.9</ele>
        <time>2021-08-19T14:46:33Z</time>
      </trkpt>
      <trkpt lat="46.2768" lon="5.84777">
        <ele>1135.2</ele>
        <time>2021-08-19T14:46:34Z</time>
      </trkpt>
      <trkpt lat="46.27669" lon="5.84779">
        <ele>1134.5</ele>
        <time>2021-08-19T14:46:35Z</time>
      </trkpt>
      <trkpt lat="46.27649" lon="5.84782">
        <ele>1133.2</ele>
        <time>2021-08-19T14:46:37Z</time>
      </trkpt>
      <trkpt lat="46.27628" lon="5.84782">
        <ele>1131.9</ele>
        <time>2021-08-19T14:46:39Z</time>
      </trkpt>
      <trkpt lat="46.27617" lon="5.84782">
        <ele>1131.2</ele>
        <time>2021-08-19T14:46:40Z</time>
      </trkpt>
      <trkpt lat="46.27607" lon="5.8478">
        <ele>1130.5</ele>
        <time>2021-08-19T14:46:41Z</time>
      </trkpt>
      <trkpt lat="46.27597" lon="5.84779">
        <ele>1129.8</ele>
        <time>2021-08-19T14:46:42Z</time>
      </trkpt>
      <trkpt lat="46.27586" lon="5.84776">
        <ele>1129.1</ele>
        <time>2021-08-19T14:46:43Z</time>
      </trkpt>
      <trkpt lat="46.27565" lon="5.84771">
        <ele>1127.6</ele>
        <time>2021-08-19T14:46:45Z</time>
      </trkpt>
      <trkpt lat="46.27554" lon="5.84769">
        <ele>1126.9</ele>
        <time>2021-08-19T14:46:46Z</time>
      </trkpt>
      <trkpt lat="46.27543" lon="5.84766">
        <ele>1126.2</ele>
        <time>2021-08-19T14:46:47Z</time>
      </trkpt>
      <trkpt lat="46.27532" lon="5.84764">
        <ele>1125.5</ele>
        <time>2021-08-19T14:46:48Z</time>
      </trkpt>
      <trkpt lat="46.27522" lon="5.84762">
        <ele>1124.9</ele>
        <time>2021-08-19T14:46:49Z</time>
      </trkpt>
      <trkpt lat="46.275" lon="5.84759">
        <ele>1124</ele>
        <time>2021-08-19T14:46:51Z</time>
      </trkpt>
      <trkpt lat="46.27489" lon="5.84758">
        <ele>1123.5</ele>
        <time>2021-08-19T14:46:52Z</time>
      </trkpt>
      <trkpt lat="46.27479" lon="5.84756">
        <ele>1123.1</ele>
        <time>2021-08-19T14:46:53Z</time>
      </trkpt>
      <trkpt lat="46.27462" lon="5.84753">
        <ele>1122.4</ele>
        <time>2021-08-19T14:46:55Z</time>
      </trkpt>
      <trkpt lat="46.27445" lon="5.84751">
        <ele>1121.8</ele>
        <time>2021-08-19T14:46:57Z</time>
      </trkpt>
      <trkpt lat="46.27438" lon="5.8475">
        <ele>1121.8</ele>
        <time>2021-08-19T14:46:58Z</time>
      </trkpt>
      <trkpt lat="46.27426" lon="5.84747">
        <ele>1121.7</ele>
        <time>2021-08-19T14:47:00Z</time>
      </trkpt>
      <trkpt lat="46.27423" lon="5.84744">
        <ele>1121.7</ele>
        <time>2021-08-19T14:47:01Z</time>
      </trkpt>
      <trkpt lat="46.2742" lon="5.84742">
        <ele>1121.7</ele>
        <time>2021-08-19T14:47:02Z</time>
      </trkpt>
      <trkpt lat="46.27418" lon="5.8474">
        <ele>1121.7</ele>
        <time>2021-08-19T14:47:04Z</time>
      </trkpt>
      <trkpt lat="46.27419" lon="5.8474">
        <ele>1121.7</ele>
        <time>2021-08-19T14:47:05Z</time>
      </trkpt>
      <trkpt lat="46.27419" lon="5.84741">
        <ele>1121.7</ele>
        <time>2021-08-19T14:47:06Z</time>
      </trkpt>
      <trkpt lat="46.2742" lon="5.84742">
        <ele>1121.7</ele>
        <time>2021-08-19T14:47:08Z</time>
      </trkpt>
      <trkpt lat="46.2742" lon="5.84742">
        <ele>1121.7</ele>
        <time>2021-08-19T14:47:09Z</time>
      </trkpt>
      <trkpt lat="46.2742" lon="5.84742">
        <ele>1121.7</ele>
        <time>2021-08-19T14:47:11Z</time>
      </trkpt>
      <trkpt lat="46.2742" lon="5.84742">
        <ele>1121.7</ele>
        <time>2021-08-19T14:47:13Z</time>
      </trkpt>
      <trkpt lat="46.2742" lon="5.84742">
        <ele>1121.7</ele>
        <time>2021-08-19T14:47:15Z</time>
      </trkpt>
      <trkpt lat="46.27392" lon="5.8476">
        <ele>1120.8</ele>
        <time>2021-08-19T14:48:25Z</time>
      </trkpt>
      <trkpt lat="46.2738" lon="5.84759">
        <ele>1120.4</ele>
        <time>2021-08-19T14:48:27Z</time>
      </trkpt>
      <trkpt lat="46.27373" lon="5.84759">
        <ele>1120.1</ele>
        <time>2021-08-19T14:48:28Z</time>
      </trkpt>
      <trkpt lat="46.27367" lon="5.8476">
        <ele>1119.9</ele>
        <time>2021-08-19T14:48:29Z</time>
      </trkpt>
      <trkpt lat="46.27357" lon="5.8476">
        <ele>1119.4</ele>
        <time>2021-08-19T14:48:30Z</time>
      </trkpt>
      <trkpt lat="46.27351" lon="5.84759">
        <ele>1119.2</ele>
        <time>2021-08-19T14:48:31Z</time>
      </trkpt>
      <trkpt lat="46.2734" lon="5.84758">
        <ele>1118.6</ele>
        <time>2021-08-19T14:48:33Z</time>
      </trkpt>
      <trkpt lat="46.27328" lon="5.84756">
        <ele>1118</ele>
        <time>2021-08-19T14:48:35Z</time>
      </trkpt>
      <trkpt lat="46.27316" lon="5.8475">
        <ele>1117.3</ele>
        <time>2021-08-19T14:48:37Z</time>
      </trkpt>
      <trkpt lat="46.27302" lon="5.84743">
        <ele>1116.4</ele>
        <time>2021-08-19T14:48:39Z</time>
      </trkpt>
      <trkpt lat="46.27296" lon="5.84738">
        <ele>1115.9</ele>
        <time>2021-08-19T14:48:40Z</time>
      </trkpt>
      <trkpt lat="46.2729" lon="5.84732">
        <ele>1115.4</ele>
        <time>2021-08-19T14:48:41Z</time>
      </trkpt>
      <trkpt lat="46.27283" lon="5.84725">
        <ele>1115</ele>
        <time>2021-08-19T14:48:42Z</time>
      </trkpt>
      <trkpt lat="46.27276" lon="5.84718">
        <ele>1114.5</ele>
        <time>2021-08-19T14:48:43Z</time>
      </trkpt>
      <trkpt lat="46.27262" lon="5.84704">
        <ele>1113.5</ele>
        <time>2021-08-19T14:48:45Z</time>
      </trkpt>
      <trkpt lat="46.27248" lon="5.84692">
        <ele>1112.4</ele>
        <time>2021-08-19T14:48:47Z</time>
      </trkpt>
      <trkpt lat="46.27241" lon="5.84687">
        <ele>1111.9</ele>
        <time>2021-08-19T14:48:48Z</time>
      </trkpt>
      <trkpt lat="46.27232" lon="5.84682">
        <ele>1111.2</ele>
        <time>2021-08-19T14:48:49Z</time>
      </trkpt>
      <trkpt lat="46.27215" lon="5.84673">
        <ele>1109.9</ele>
        <time>2021-08-19T14:48:51Z</time>
      </trkpt>
      <trkpt lat="46.27205" lon="5.84669">
        <ele>1109.2</ele>
        <time>2021-08-19T14:48:52Z</time>
      </trkpt>
      <trkpt lat="46.27196" lon="5.84664">
        <ele>1108.5</ele>
        <time>2021-08-19T14:48:53Z</time>
      </trkpt>
      <trkpt lat="46.27177" lon="5.84655">
        <ele>1107.2</ele>
        <time>2021-08-19T14:48:55Z</time>
      </trkpt>
      <trkpt lat="46.27157" lon="5.84647">
        <ele>1105.8</ele>
        <time>2021-08-19T14:48:57Z</time>
      </trkpt>
      <trkpt lat="46.27147" lon="5.84642">
        <ele>1105.4</ele>
        <time>2021-08-19T14:48:58Z</time>
      </trkpt>
      <trkpt lat="46.27137" lon="5.84638">
        <ele>1105.4</ele>
        <time>2021-08-19T14:48:59Z</time>
      </trkpt>
      <trkpt lat="46.27117" lon="5.84631">
        <ele>1104.2</ele>
        <time>2021-08-19T14:49:01Z</time>
      </trkpt>
      <trkpt lat="46.27096" lon="5.84626">
        <ele>1102.8</ele>
        <time>2021-08-19T14:49:03Z</time>
      </trkpt>
      <trkpt lat="46.27077" lon="5.84621">
        <ele>1101.6</ele>
        <time>2021-08-19T14:49:05Z</time>
      </trkpt>
      <trkpt lat="46.27057" lon="5.84616">
        <ele>1100.6</ele>
        <time>2021-08-19T14:49:07Z</time>
      </trkpt>
      <trkpt lat="46.27038" lon="5.84611">
        <ele>1099.6</ele>
        <time>2021-08-19T14:49:09Z</time>
      </trkpt>
      <trkpt lat="46.27019" lon="5.84605">
        <ele>1098.7</ele>
        <time>2021-08-19T14:49:11Z</time>
      </trkpt>
      <trkpt lat="46.27002" lon="5.84597">
        <ele>1097.9</ele>
        <time>2021-08-19T14:49:13Z</time>
      </trkpt>
      <trkpt lat="46.26985" lon="5.84588">
        <ele>1097.2</ele>
        <time>2021-08-19T14:49:15Z</time>
      </trkpt>
      <trkpt lat="46.26977" lon="5.84582">
        <ele>1097</ele>
        <time>2021-08-19T14:49:16Z</time>
      </trkpt>
      <trkpt lat="46.26961" lon="5.84572">
        <ele>1096.5</ele>
        <time>2021-08-19T14:49:18Z</time>
      </trkpt>
      <trkpt lat="46.26953" lon="5.84568">
        <ele>1096.3</ele>
        <time>2021-08-19T14:49:19Z</time>
      </trkpt>
      <trkpt lat="46.26938" lon="5.8456">
        <ele>1095.8</ele>
        <time>2021-08-19T14:49:21Z</time>
      </trkpt>
      <trkpt lat="46.2693" lon="5.84557">
        <ele>1095.7</ele>
        <time>2021-08-19T14:49:22Z</time>
      </trkpt>
      <trkpt lat="46.26922" lon="5.84554">
        <ele>1095.5</ele>
        <time>2021-08-19T14:49:23Z</time>
      </trkpt>
      <trkpt lat="46.26907" lon="5.84548">
        <ele>1095.1</ele>
        <time>2021-08-19T14:49:25Z</time>
      </trkpt>
      <trkpt lat="46.26891" lon="5.84543">
        <ele>1094.7</ele>
        <time>2021-08-19T14:49:27Z</time>
      </trkpt>
      <trkpt lat="46.26875" lon="5.84537">
        <ele>1094.2</ele>
        <time>2021-08-19T14:49:29Z</time>
      </trkpt>
      <trkpt lat="46.2686" lon="5.8453">
        <ele>1093.7</ele>
        <time>2021-08-19T14:49:31Z</time>
      </trkpt>
      <trkpt lat="46.26846" lon="5.84523">
        <ele>1093.3</ele>
        <time>2021-08-19T14:49:33Z</time>
      </trkpt>
      <trkpt lat="46.26839" lon="5.84519">
        <ele>1093</ele>
        <time>2021-08-19T14:49:34Z</time>
      </trkpt>
      <trkpt lat="46.26831" lon="5.84514">
        <ele>1092.8</ele>
        <time>2021-08-19T14:49:35Z</time>
      </trkpt>
      <trkpt lat="46.26817" lon="5.84505">
        <ele>1092.3</ele>
        <time>2021-08-19T14:49:37Z</time>
      </trkpt>
      <trkpt lat="46.26804" lon="5.84494">
        <ele>1091.9</ele>
        <time>2021-08-19T14:49:39Z</time>
      </trkpt>
      <trkpt lat="46.26797" lon="5.8449">
        <ele>1091.7</ele>
        <time>2021-08-19T14:49:40Z</time>
      </trkpt>
      <trkpt lat="46.2679" lon="5.84485">
        <ele>1091.5</ele>
        <time>2021-08-19T14:49:41Z</time>
      </trkpt>
      <trkpt lat="46.26774" lon="5.84475">
        <ele>1091.1</ele>
        <time>2021-08-19T14:49:43Z</time>
      </trkpt>
      <trkpt lat="46.26758" lon="5.84463">
        <ele>1090.7</ele>
        <time>2021-08-19T14:49:45Z</time>
      </trkpt>
      <trkpt lat="46.26751" lon="5.84456">
        <ele>1090.5</ele>
        <time>2021-08-19T14:49:46Z</time>
      </trkpt>
      <trkpt lat="46.26745" lon="5.8445">
        <ele>1090.3</ele>
        <time>2021-08-19T14:49:47Z</time>
      </trkpt>
      <trkpt lat="46.26732" lon="5.84435">
        <ele>1090</ele>
        <time>2021-08-19T14:49:49Z</time>
      </trkpt>
      <trkpt lat="46.26719" lon="5.84418">
        <ele>1089.7</ele>
        <time>2021-08-19T14:49:51Z</time>
      </trkpt>
      <trkpt lat="46.26704" lon="5.84405">
        <ele>1089.6</ele>
        <time>2021-08-19T14:49:53Z</time>
      </trkpt>
      <trkpt lat="46.26689" lon="5.84397">
        <ele>1089.6</ele>
        <time>2021-08-19T14:49:55Z</time>
      </trkpt>
      <trkpt lat="46.26673" lon="5.84391">
        <ele>1089.7</ele>
        <time>2021-08-19T14:49:57Z</time>
      </trkpt>
      <trkpt lat="46.26665" lon="5.84388">
        <ele>1089.8</ele>
        <time>2021-08-19T14:49:58Z</time>
      </trkpt>
      <trkpt lat="46.26658" lon="5.84385">
        <ele>1089.9</ele>
        <time>2021-08-19T14:49:59Z</time>
      </trkpt>
      <trkpt lat="46.26645" lon="5.84381">
        <ele>1090</ele>
        <time>2021-08-19T14:50:01Z</time>
      </trkpt>
      <trkpt lat="46.26633" lon="5.84377">
        <ele>1090.2</ele>
        <time>2021-08-19T14:50:03Z</time>
      </trkpt>
      <trkpt lat="46.26623" lon="5.84373">
        <ele>1090.4</ele>
        <time>2021-08-19T14:50:05Z</time>
      </trkpt>
      <trkpt lat="46.26614" lon="5.84369">
        <ele>1090.5</ele>
        <time>2021-08-19T14:50:07Z</time>
      </trkpt>
      <trkpt lat="46.26604" lon="5.84366">
        <ele>1090.5</ele>
        <time>2021-08-19T14:50:09Z</time>
      </trkpt>
      <trkpt lat="46.26599" lon="5.84364">
        <ele>1090.5</ele>
        <time>2021-08-19T14:50:10Z</time>
      </trkpt>
      <trkpt lat="46.26591" lon="5.84362">
        <ele>1090.5</ele>
        <time>2021-08-19T14:50:12Z</time>
      </trkpt>
      <trkpt lat="46.26587" lon="5.8436">
        <ele>1090.4</ele>
        <time>2021-08-19T14:50:13Z</time>
      </trkpt>
      <trkpt lat="46.2658" lon="5.84358">
        <ele>1090.3</ele>
        <time>2021-08-19T14:50:15Z</time>
      </trkpt>
      <trkpt lat="46.26576" lon="5.84356">
        <ele>1090.3</ele>
        <time>2021-08-19T14:50:16Z</time>
      </trkpt>
      <trkpt lat="46.2657" lon="5.84353">
        <ele>1090.1</ele>
        <time>2021-08-19T14:50:18Z</time>
      </trkpt>
      <trkpt lat="46.26568" lon="5.84353">
        <ele>1090.1</ele>
        <time>2021-08-19T14:50:19Z</time>
      </trkpt>
      <trkpt lat="46.26563" lon="5.84351">
        <ele>1089.9</ele>
        <time>2021-08-19T14:50:21Z</time>
      </trkpt>
      <trkpt lat="46.26559" lon="5.84349">
        <ele>1089.8</ele>
        <time>2021-08-19T14:50:22Z</time>
      </trkpt>
      <trkpt lat="46.26557" lon="5.84347">
        <ele>1089.7</ele>
        <time>2021-08-19T14:50:23Z</time>
      </trkpt>
      <trkpt lat="46.26553" lon="5.84345">
        <ele>1089.5</ele>
        <time>2021-08-19T14:50:24Z</time>
      </trkpt>
      <trkpt lat="46.26549" lon="5.84342">
        <ele>1089.3</ele>
        <time>2021-08-19T14:50:25Z</time>
      </trkpt>
      <trkpt lat="46.26541" lon="5.84338">
        <ele>1088.9</ele>
        <time>2021-08-19T14:50:27Z</time>
      </trkpt>
      <trkpt lat="46.26537" lon="5.84333">
        <ele>1088.7</ele>
        <time>2021-08-19T14:50:28Z</time>
      </trkpt>
      <trkpt lat="46.26529" lon="5.84327">
        <ele>1088.2</ele>
        <time>2021-08-19T14:50:30Z</time>
      </trkpt>
      <trkpt lat="46.26526" lon="5.84327">
        <ele>1088</ele>
        <time>2021-08-19T14:50:31Z</time>
      </trkpt>
      <trkpt lat="46.26521" lon="5.84328">
        <ele>1087.8</ele>
        <time>2021-08-19T14:50:33Z</time>
      </trkpt>
      <trkpt lat="46.26512" lon="5.84316">
        <ele>1087.1</ele>
        <time>2021-08-19T14:50:34Z</time>
      </trkpt>
      <trkpt lat="46.26504" lon="5.84307">
        <ele>1086.6</ele>
        <time>2021-08-19T14:50:36Z</time>
      </trkpt>
      <trkpt lat="46.26499" lon="5.84304">
        <ele>1086.3</ele>
        <time>2021-08-19T14:50:37Z</time>
      </trkpt>
      <trkpt lat="46.2649" lon="5.843">
        <ele>1085.9</ele>
        <time>2021-08-19T14:50:39Z</time>
      </trkpt>
      <trkpt lat="46.26486" lon="5.84298">
        <ele>1085.7</ele>
        <time>2021-08-19T14:50:40Z</time>
      </trkpt>
      <trkpt lat="46.26486" lon="5.84296">
        <ele>1085.7</ele>
        <time>2021-08-19T14:50:41Z</time>
      </trkpt>
      <trkpt lat="46.26478" lon="5.84293">
        <ele>1085.5</ele>
        <time>2021-08-19T14:50:43Z</time>
      </trkpt>
      <trkpt lat="46.26473" lon="5.84292">
        <ele>1085.4</ele>
        <time>2021-08-19T14:50:45Z</time>
      </trkpt>
      <trkpt lat="46.26469" lon="5.84291">
        <ele>1085.3</ele>
        <time>2021-08-19T14:50:46Z</time>
      </trkpt>
      <trkpt lat="46.26464" lon="5.84291">
        <ele>1085.2</ele>
        <time>2021-08-19T14:50:48Z</time>
      </trkpt>
      <trkpt lat="46.2646" lon="5.84291">
        <ele>1085.1</ele>
        <time>2021-08-19T14:50:49Z</time>
      </trkpt>
      <trkpt lat="46.26459" lon="5.84291">
        <ele>1085</ele>
        <time>2021-08-19T14:50:50Z</time>
      </trkpt>
      <trkpt lat="46.26455" lon="5.84291">
        <ele>1084.9</ele>
        <time>2021-08-19T14:50:52Z</time>
      </trkpt>
      <trkpt lat="46.26449" lon="5.84291">
        <ele>1084.7</ele>
        <time>2021-08-19T14:50:53Z</time>
      </trkpt>
      <trkpt lat="46.26443" lon="5.84292">
        <ele>1084.5</ele>
        <time>2021-08-19T14:50:54Z</time>
      </trkpt>
      <trkpt lat="46.26438" lon="5.84296">
        <ele>1084.3</ele>
        <time>2021-08-19T14:50:55Z</time>
      </trkpt>
      <trkpt lat="46.26429" lon="5.84306">
        <ele>1083.8</ele>
        <time>2021-08-19T14:50:57Z</time>
      </trkpt>
      <trkpt lat="46.26425" lon="5.84312">
        <ele>1083.5</ele>
        <time>2021-08-19T14:50:58Z</time>
      </trkpt>
      <trkpt lat="46.26421" lon="5.84318">
        <ele>1083.3</ele>
        <time>2021-08-19T14:50:59Z</time>
      </trkpt>
      <trkpt lat="46.26413" lon="5.84334">
        <ele>1082.6</ele>
        <time>2021-08-19T14:51:01Z</time>
      </trkpt>
      <trkpt lat="46.26404" lon="5.8435">
        <ele>1082</ele>
        <time>2021-08-19T14:51:03Z</time>
      </trkpt>
      <trkpt lat="46.26398" lon="5.84359">
        <ele>1081.7</ele>
        <time>2021-08-19T14:51:04Z</time>
      </trkpt>
      <trkpt lat="46.26392" lon="5.84367">
        <ele>1081.4</ele>
        <time>2021-08-19T14:51:05Z</time>
      </trkpt>
      <trkpt lat="46.26379" lon="5.84381">
        <ele>1080.8</ele>
        <time>2021-08-19T14:51:07Z</time>
      </trkpt>
      <trkpt lat="46.26365" lon="5.84394">
        <ele>1080.1</ele>
        <time>2021-08-19T14:51:09Z</time>
      </trkpt>
      <trkpt lat="46.2635" lon="5.84408">
        <ele>1079.4</ele>
        <time>2021-08-19T14:51:11Z</time>
      </trkpt>
      <trkpt lat="46.26334" lon="5.84419">
        <ele>1078.9</ele>
        <time>2021-08-19T14:51:13Z</time>
      </trkpt>
      <trkpt lat="46.26316" lon="5.84426">
        <ele>1078.7</ele>
        <time>2021-08-19T14:51:15Z</time>
      </trkpt>
      <trkpt lat="46.26307" lon="5.84428">
        <ele>1078.7</ele>
        <time>2021-08-19T14:51:16Z</time>
      </trkpt>
      <trkpt lat="46.26298" lon="5.84428">
        <ele>1078.7</ele>
        <time>2021-08-19T14:51:17Z</time>
      </trkpt>
      <trkpt lat="46.26289" lon="5.84429">
        <ele>1078.6</ele>
        <time>2021-08-19T14:51:18Z</time>
      </trkpt>
      <trkpt lat="46.26281" lon="5.84429">
        <ele>1078.6</ele>
        <time>2021-08-19T14:51:19Z</time>
      </trkpt>
      <trkpt lat="46.26266" lon="5.84417">
        <ele>1078.5</ele>
        <time>2021-08-19T14:51:21Z</time>
      </trkpt>
      <trkpt lat="46.26257" lon="5.8441">
        <ele>1078.5</ele>
        <time>2021-08-19T14:51:22Z</time>
      </trkpt>
      <trkpt lat="46.26249" lon="5.84405">
        <ele>1078.7</ele>
        <time>2021-08-19T14:51:23Z</time>
      </trkpt>
      <trkpt lat="46.26236" lon="5.84395">
        <ele>1079.1</ele>
        <time>2021-08-19T14:51:25Z</time>
      </trkpt>
      <trkpt lat="46.26223" lon="5.84385">
        <ele>1079.7</ele>
        <time>2021-08-19T14:51:27Z</time>
      </trkpt>
      <trkpt lat="46.26218" lon="5.84381">
        <ele>1079.9</ele>
        <time>2021-08-19T14:51:28Z</time>
      </trkpt>
      <trkpt lat="46.26209" lon="5.84373">
        <ele>1080.3</ele>
        <time>2021-08-19T14:51:30Z</time>
      </trkpt>
      <trkpt lat="46.26204" lon="5.84369">
        <ele>1080.6</ele>
        <time>2021-08-19T14:51:31Z</time>
      </trkpt>
      <trkpt lat="46.262" lon="5.84364">
        <ele>1080.8</ele>
        <time>2021-08-19T14:51:32Z</time>
      </trkpt>
      <trkpt lat="46.26192" lon="5.84355">
        <ele>1081.1</ele>
        <time>2021-08-19T14:51:34Z</time>
      </trkpt>
      <trkpt lat="46.26188" lon="5.84351">
        <ele>1081.3</ele>
        <time>2021-08-19T14:51:35Z</time>
      </trkpt>
      <trkpt lat="46.26178" lon="5.84344">
        <ele>1081.8</ele>
        <time>2021-08-19T14:51:37Z</time>
      </trkpt>
      <trkpt lat="46.26169" lon="5.84336">
        <ele>1082.2</ele>
        <time>2021-08-19T14:51:39Z</time>
      </trkpt>
      <trkpt lat="46.2616" lon="5.8433">
        <ele>1082.5</ele>
        <time>2021-08-19T14:51:41Z</time>
      </trkpt>
      <trkpt lat="46.26153" lon="5.84324">
        <ele>1082.8</ele>
        <time>2021-08-19T14:51:43Z</time>
      </trkpt>
      <trkpt lat="46.26148" lon="5.84317">
        <ele>1083</ele>
        <time>2021-08-19T14:51:45Z</time>
      </trkpt>
      <trkpt lat="46.26145" lon="5.84313">
        <ele>1083.1</ele>
        <time>2021-08-19T14:51:46Z</time>
      </trkpt>
      <trkpt lat="46.26141" lon="5.84309">
        <ele>1083.3</ele>
        <time>2021-08-19T14:51:48Z</time>
      </trkpt>
      <trkpt lat="46.26134" lon="5.84304">
        <ele>1083.5</ele>
        <time>2021-08-19T14:51:49Z</time>
      </trkpt>
      <trkpt lat="46.2613" lon="5.84302">
        <ele>1083.6</ele>
        <time>2021-08-19T14:51:50Z</time>
      </trkpt>
      <trkpt lat="46.26122" lon="5.84295">
        <ele>1083.8</ele>
        <time>2021-08-19T14:51:52Z</time>
      </trkpt>
      <trkpt lat="46.26119" lon="5.84292">
        <ele>1083.8</ele>
        <time>2021-08-19T14:51:53Z</time>
      </trkpt>
      <trkpt lat="46.26115" lon="5.8429">
        <ele>1083.9</ele>
        <time>2021-08-19T14:51:54Z</time>
      </trkpt>
      <trkpt lat="46.26114" lon="5.8429">
        <ele>1083.9</ele>
        <time>2021-08-19T14:51:56Z</time>
      </trkpt>
      <trkpt lat="46.26112" lon="5.84289">
        <ele>1083.9</ele>
        <time>2021-08-19T14:51:58Z</time>
      </trkpt>
      <trkpt lat="46.2611" lon="5.84287">
        <ele>1083.9</ele>
        <time>2021-08-19T14:51:59Z</time>
      </trkpt>
      <trkpt lat="46.26109" lon="5.84286">
        <ele>1084</ele>
        <time>2021-08-19T14:52:00Z</time>
      </trkpt>
      <trkpt lat="46.26106" lon="5.84283">
        <ele>1084</ele>
        <time>2021-08-19T14:52:01Z</time>
      </trkpt>
      <trkpt lat="46.26103" lon="5.84281">
        <ele>1084</ele>
        <time>2021-08-19T14:52:02Z</time>
      </trkpt>
      <trkpt lat="46.26102" lon="5.84279">
        <ele>1084.1</ele>
        <time>2021-08-19T14:52:04Z</time>
      </trkpt>
      <trkpt lat="46.261" lon="5.84278">
        <ele>1084.1</ele>
        <time>2021-08-19T14:52:05Z</time>
      </trkpt>
      <trkpt lat="46.26098" lon="5.84277">
        <ele>1084.1</ele>
        <time>2021-08-19T14:52:06Z</time>
      </trkpt>
      <trkpt lat="46.26097" lon="5.84276">
        <ele>1084.1</ele>
        <time>2021-08-19T14:52:07Z</time>
      </trkpt>
      <trkpt lat="46.26094" lon="5.84273">
        <ele>1084.2</ele>
        <time>2021-08-19T14:52:08Z</time>
      </trkpt>
      <trkpt lat="46.26084" lon="5.84267">
        <ele>1084.3</ele>
        <time>2021-08-19T14:52:09Z</time>
      </trkpt>
      <trkpt lat="46.26077" lon="5.84263">
        <ele>1084.3</ele>
        <time>2021-08-19T14:52:10Z</time>
      </trkpt>
      <trkpt lat="46.26072" lon="5.8426">
        <ele>1084.3</ele>
        <time>2021-08-19T14:52:12Z</time>
      </trkpt>
      <trkpt lat="46.26072" lon="5.8426">
        <ele>1084.3</ele>
        <time>2021-08-19T14:52:12Z</time>
      </trkpt>
      <trkpt lat="46.26068" lon="5.84257">
        <ele>1084.4</ele>
        <time>2021-08-19T14:52:13Z</time>
      </trkpt>
      <trkpt lat="46.26064" lon="5.84253">
        <ele>1084.4</ele>
        <time>2021-08-19T14:52:14Z</time>
      </trkpt>
      <trkpt lat="46.2606" lon="5.84249">
        <ele>1084.4</ele>
        <time>2021-08-19T14:52:15Z</time>
      </trkpt>
      <trkpt lat="46.26055" lon="5.84244">
        <ele>1084.5</ele>
        <time>2021-08-19T14:52:17Z</time>
      </trkpt>
      <trkpt lat="46.26051" lon="5.84241">
        <ele>1084.5</ele>
        <time>2021-08-19T14:52:18Z</time>
      </trkpt>
      <trkpt lat="46.26045" lon="5.84238">
        <ele>1084.6</ele>
        <time>2021-08-19T14:52:19Z</time>
      </trkpt>
      <trkpt lat="46.26039" lon="5.84235">
        <ele>1084.7</ele>
        <time>2021-08-19T14:52:20Z</time>
      </trkpt>
      <trkpt lat="46.26033" lon="5.84232">
        <ele>1084.8</ele>
        <time>2021-08-19T14:52:21Z</time>
      </trkpt>
      <trkpt lat="46.26026" lon="5.84229">
        <ele>1084.9</ele>
        <time>2021-08-19T14:52:22Z</time>
      </trkpt>
      <trkpt lat="46.26017" lon="5.84224">
        <ele>1085.2</ele>
        <time>2021-08-19T14:52:24Z</time>
      </trkpt>
      <trkpt lat="46.26011" lon="5.8422">
        <ele>1085.3</ele>
        <time>2021-08-19T14:52:25Z</time>
      </trkpt>
      <trkpt lat="46.26002" lon="5.84216">
        <ele>1085.5</ele>
        <time>2021-08-19T14:52:27Z</time>
      </trkpt>
      <trkpt lat="46.25997" lon="5.84213">
        <ele>1085.6</ele>
        <time>2021-08-19T14:52:28Z</time>
      </trkpt>
      <trkpt lat="46.25992" lon="5.8421">
        <ele>1085.7</ele>
        <time>2021-08-19T14:52:30Z</time>
      </trkpt>
      <trkpt lat="46.25986" lon="5.84204">
        <ele>1085.8</ele>
        <time>2021-08-19T14:52:31Z</time>
      </trkpt>
      <trkpt lat="46.25978" lon="5.84198">
        <ele>1085.9</ele>
        <time>2021-08-19T14:52:33Z</time>
      </trkpt>
      <trkpt lat="46.25974" lon="5.84196">
        <ele>1086</ele>
        <time>2021-08-19T14:52:34Z</time>
      </trkpt>
      <trkpt lat="46.25968" lon="5.84192">
        <ele>1086.1</ele>
        <time>2021-08-19T14:52:36Z</time>
      </trkpt>
      <trkpt lat="46.25965" lon="5.84189">
        <ele>1086.2</ele>
        <time>2021-08-19T14:52:37Z</time>
      </trkpt>
      <trkpt lat="46.25962" lon="5.84186">
        <ele>1086.2</ele>
        <time>2021-08-19T14:52:38Z</time>
      </trkpt>
      <trkpt lat="46.2596" lon="5.84181">
        <ele>1086.3</ele>
        <time>2021-08-19T14:52:39Z</time>
      </trkpt>
      <trkpt lat="46.25958" lon="5.84178">
        <ele>1086.3</ele>
        <time>2021-08-19T14:52:40Z</time>
      </trkpt>
      <trkpt lat="46.25954" lon="5.84174">
        <ele>1086.4</ele>
        <time>2021-08-19T14:52:42Z</time>
      </trkpt>
      <trkpt lat="46.25951" lon="5.84171">
        <ele>1086.5</ele>
        <time>2021-08-19T14:52:43Z</time>
      </trkpt>
      <trkpt lat="46.25948" lon="5.84167">
        <ele>1086.5</ele>
        <time>2021-08-19T14:52:45Z</time>
      </trkpt>
      <trkpt lat="46.25946" lon="5.84163">
        <ele>1086.6</ele>
        <time>2021-08-19T14:52:46Z</time>
      </trkpt>
      <trkpt lat="46.25943" lon="5.8416">
        <ele>1086.6</ele>
        <time>2021-08-19T14:52:47Z</time>
      </trkpt>
      <trkpt lat="46.2594" lon="5.84157">
        <ele>1086.7</ele>
        <time>2021-08-19T14:52:49Z</time>
      </trkpt>
      <trkpt lat="46.25937" lon="5.84154">
        <ele>1086.7</ele>
        <time>2021-08-19T14:52:50Z</time>
      </trkpt>
      <trkpt lat="46.25933" lon="5.8415">
        <ele>1086.7</ele>
        <time>2021-08-19T14:52:51Z</time>
      </trkpt>
      <trkpt lat="46.25931" lon="5.84147">
        <ele>1086.7</ele>
        <time>2021-08-19T14:52:52Z</time>
      </trkpt>
      <trkpt lat="46.2593" lon="5.84144">
        <ele>1086.7</ele>
        <time>2021-08-19T14:52:53Z</time>
      </trkpt>
      <trkpt lat="46.25928" lon="5.8414">
        <ele>1086.7</ele>
        <time>2021-08-19T14:52:55Z</time>
      </trkpt>
      <trkpt lat="46.25925" lon="5.84135">
        <ele>1086.7</ele>
        <time>2021-08-19T14:52:56Z</time>
      </trkpt>
      <trkpt lat="46.25923" lon="5.84132">
        <ele>1086.7</ele>
        <time>2021-08-19T14:52:57Z</time>
      </trkpt>
      <trkpt lat="46.2592" lon="5.84129">
        <ele>1086.7</ele>
        <time>2021-08-19T14:52:58Z</time>
      </trkpt>
      <trkpt lat="46.25919" lon="5.84128">
        <ele>1086.7</ele>
        <time>2021-08-19T14:52:59Z</time>
      </trkpt>
      <trkpt lat="46.25914" lon="5.84125">
        <ele>1086.6</ele>
        <time>2021-08-19T14:53:01Z</time>
      </trkpt>
      <trkpt lat="46.25911" lon="5.84123">
        <ele>1086.6</ele>
        <time>2021-08-19T14:53:02Z</time>
      </trkpt>
      <trkpt lat="46.25908" lon="5.8412">
        <ele>1086.6</ele>
        <time>2021-08-19T14:53:04Z</time>
      </trkpt>
      <trkpt lat="46.25903" lon="5.84114">
        <ele>1086.5</ele>
        <time>2021-08-19T14:53:05Z</time>
      </trkpt>
      <trkpt lat="46.25901" lon="5.84111">
        <ele>1086.5</ele>
        <time>2021-08-19T14:53:06Z</time>
      </trkpt>
      <trkpt lat="46.25898" lon="5.84108">
        <ele>1086.4</ele>
        <time>2021-08-19T14:53:07Z</time>
      </trkpt>
      <trkpt lat="46.25893" lon="5.84102">
        <ele>1086.3</ele>
        <time>2021-08-19T14:53:09Z</time>
      </trkpt>
      <trkpt lat="46.2589" lon="5.84099">
        <ele>1086.3</ele>
        <time>2021-08-19T14:53:10Z</time>
      </trkpt>
      <trkpt lat="46.25887" lon="5.84097">
        <ele>1086.2</ele>
        <time>2021-08-19T14:53:11Z</time>
      </trkpt>
      <trkpt lat="46.25879" lon="5.84093">
        <ele>1086</ele>
        <time>2021-08-19T14:53:13Z</time>
      </trkpt>
      <trkpt lat="46.25871" lon="5.84087">
        <ele>1085.8</ele>
        <time>2021-08-19T14:53:15Z</time>
      </trkpt>
      <trkpt lat="46.25867" lon="5.84084">
        <ele>1085.6</ele>
        <time>2021-08-19T14:53:16Z</time>
      </trkpt>
      <trkpt lat="46.25863" lon="5.8408">
        <ele>1085.4</ele>
        <time>2021-08-19T14:53:17Z</time>
      </trkpt>
      <trkpt lat="46.25856" lon="5.84075">
        <ele>1085.1</ele>
        <time>2021-08-19T14:53:19Z</time>
      </trkpt>
      <trkpt lat="46.25849" lon="5.8407">
        <ele>1084.7</ele>
        <time>2021-08-19T14:53:20Z</time>
      </trkpt>
      <trkpt lat="46.2584" lon="5.84063">
        <ele>1084.2</ele>
        <time>2021-08-19T14:53:22Z</time>
      </trkpt>
      <trkpt lat="46.25835" lon="5.84059">
        <ele>1083.9</ele>
        <time>2021-08-19T14:53:23Z</time>
      </trkpt>
      <trkpt lat="46.25826" lon="5.8405">
        <ele>1083.5</ele>
        <time>2021-08-19T14:53:25Z</time>
      </trkpt>
      <trkpt lat="46.25816" lon="5.84038">
        <ele>1082.8</ele>
        <time>2021-08-19T14:53:27Z</time>
      </trkpt>
      <trkpt lat="46.25812" lon="5.84031">
        <ele>1082.5</ele>
        <time>2021-08-19T14:53:28Z</time>
      </trkpt>
      <trkpt lat="46.25807" lon="5.84024">
        <ele>1082.1</ele>
        <time>2021-08-19T14:53:29Z</time>
      </trkpt>
      <trkpt lat="46.25803" lon="5.84017">
        <ele>1081.7</ele>
        <time>2021-08-19T14:53:30Z</time>
      </trkpt>
      <trkpt lat="46.25798" lon="5.84011">
        <ele>1081.4</ele>
        <time>2021-08-19T14:53:31Z</time>
      </trkpt>
      <trkpt lat="46.25789" lon="5.84002">
        <ele>1080.7</ele>
        <time>2021-08-19T14:53:33Z</time>
      </trkpt>
      <trkpt lat="46.25781" lon="5.83995">
        <ele>1080.1</ele>
        <time>2021-08-19T14:53:35Z</time>
      </trkpt>
      <trkpt lat="46.25773" lon="5.83991">
        <ele>1079.5</ele>
        <time>2021-08-19T14:53:37Z</time>
      </trkpt>
      <trkpt lat="46.25763" lon="5.83991">
        <ele>1078.8</ele>
        <time>2021-08-19T14:53:39Z</time>
      </trkpt>
      <trkpt lat="46.25758" lon="5.83991">
        <ele>1078.4</ele>
        <time>2021-08-19T14:53:40Z</time>
      </trkpt>
      <trkpt lat="46.25752" lon="5.83992">
        <ele>1078</ele>
        <time>2021-08-19T14:53:41Z</time>
      </trkpt>
      <trkpt lat="46.25747" lon="5.83992">
        <ele>1077.6</ele>
        <time>2021-08-19T14:53:42Z</time>
      </trkpt>
      <trkpt lat="46.25742" lon="5.83993">
        <ele>1077.2</ele>
        <time>2021-08-19T14:53:43Z</time>
      </trkpt>
      <trkpt lat="46.2573" lon="5.83992">
        <ele>1076.3</ele>
        <time>2021-08-19T14:53:45Z</time>
      </trkpt>
      <trkpt lat="46.25719" lon="5.83988">
        <ele>1075.4</ele>
        <time>2021-08-19T14:53:47Z</time>
      </trkpt>
      <trkpt lat="46.25712" lon="5.83985">
        <ele>1074.7</ele>
        <time>2021-08-19T14:53:49Z</time>
      </trkpt>
      <trkpt lat="46.25706" lon="5.83984">
        <ele>1074.3</ele>
        <time>2021-08-19T14:53:50Z</time>
      </trkpt>
      <trkpt lat="46.25697" lon="5.83982">
        <ele>1073.7</ele>
        <time>2021-08-19T14:53:52Z</time>
      </trkpt>
      <trkpt lat="46.25692" lon="5.83981">
        <ele>1073.3</ele>
        <time>2021-08-19T14:53:53Z</time>
      </trkpt>
      <trkpt lat="46.25688" lon="5.83979">
        <ele>1073.1</ele>
        <time>2021-08-19T14:53:54Z</time>
      </trkpt>
      <trkpt lat="46.25683" lon="5.83978">
        <ele>1072.8</ele>
        <time>2021-08-19T14:53:55Z</time>
      </trkpt>
      <trkpt lat="46.25674" lon="5.83977">
        <ele>1072.3</ele>
        <time>2021-08-19T14:53:57Z</time>
      </trkpt>
      <trkpt lat="46.25669" lon="5.83977">
        <ele>1072.1</ele>
        <time>2021-08-19T14:53:58Z</time>
      </trkpt>
      <trkpt lat="46.25664" lon="5.83977">
        <ele>1071.9</ele>
        <time>2021-08-19T14:53:59Z</time>
      </trkpt>
      <trkpt lat="46.25653" lon="5.83976">
        <ele>1071.3</ele>
        <time>2021-08-19T14:54:01Z</time>
      </trkpt>
      <trkpt lat="46.25641" lon="5.83974">
        <ele>1070.7</ele>
        <time>2021-08-19T14:54:03Z</time>
      </trkpt>
      <trkpt lat="46.25635" lon="5.83973">
        <ele>1070.3</ele>
        <time>2021-08-19T14:54:04Z</time>
      </trkpt>
      <trkpt lat="46.25622" lon="5.8397">
        <ele>1069.6</ele>
        <time>2021-08-19T14:54:06Z</time>
      </trkpt>
      <trkpt lat="46.25616" lon="5.83968">
        <ele>1069.2</ele>
        <time>2021-08-19T14:54:07Z</time>
      </trkpt>
      <trkpt lat="46.25603" lon="5.83963">
        <ele>1068.6</ele>
        <time>2021-08-19T14:54:09Z</time>
      </trkpt>
      <trkpt lat="46.25597" lon="5.83959">
        <ele>1068.3</ele>
        <time>2021-08-19T14:54:10Z</time>
      </trkpt>
      <trkpt lat="46.25591" lon="5.83954">
        <ele>1068</ele>
        <time>2021-08-19T14:54:11Z</time>
      </trkpt>
      <trkpt lat="46.2558" lon="5.83945">
        <ele>1067.5</ele>
        <time>2021-08-19T14:54:13Z</time>
      </trkpt>
      <trkpt lat="46.25567" lon="5.83936">
        <ele>1067.1</ele>
        <time>2021-08-19T14:54:15Z</time>
      </trkpt>
      <trkpt lat="46.25561" lon="5.83933">
        <ele>1066.9</ele>
        <time>2021-08-19T14:54:16Z</time>
      </trkpt>
      <trkpt lat="46.25555" lon="5.83931">
        <ele>1066.7</ele>
        <time>2021-08-19T14:54:17Z</time>
      </trkpt>
      <trkpt lat="46.25548" lon="5.83929">
        <ele>1066.5</ele>
        <time>2021-08-19T14:54:18Z</time>
      </trkpt>
      <trkpt lat="46.25542" lon="5.83928">
        <ele>1066.3</ele>
        <time>2021-08-19T14:54:19Z</time>
      </trkpt>
      <trkpt lat="46.25529" lon="5.83928">
        <ele>1065.8</ele>
        <time>2021-08-19T14:54:21Z</time>
      </trkpt>
      <trkpt lat="46.25523" lon="5.83928">
        <ele>1065.5</ele>
        <time>2021-08-19T14:54:22Z</time>
      </trkpt>
      <trkpt lat="46.25516" lon="5.83927">
        <ele>1065.2</ele>
        <time>2021-08-19T14:54:23Z</time>
      </trkpt>
      <trkpt lat="46.25509" lon="5.83925">
        <ele>1064.9</ele>
        <time>2021-08-19T14:54:24Z</time>
      </trkpt>
      <trkpt lat="46.25502" lon="5.83924">
        <ele>1064.6</ele>
        <time>2021-08-19T14:54:25Z</time>
      </trkpt>
      <trkpt lat="46.25489" lon="5.8392">
        <ele>1064.1</ele>
        <time>2021-08-19T14:54:27Z</time>
      </trkpt>
      <trkpt lat="46.25482" lon="5.83917">
        <ele>1063.8</ele>
        <time>2021-08-19T14:54:28Z</time>
      </trkpt>
      <trkpt lat="46.25476" lon="5.83915">
        <ele>1063.6</ele>
        <time>2021-08-19T14:54:29Z</time>
      </trkpt>
      <trkpt lat="46.2547" lon="5.83913">
        <ele>1063.4</ele>
        <time>2021-08-19T14:54:30Z</time>
      </trkpt>
      <trkpt lat="46.25463" lon="5.83911">
        <ele>1063.2</ele>
        <time>2021-08-19T14:54:31Z</time>
      </trkpt>
      <trkpt lat="46.25451" lon="5.83908">
        <ele>1062.8</ele>
        <time>2021-08-19T14:54:33Z</time>
      </trkpt>
      <trkpt lat="46.25444" lon="5.83907">
        <ele>1062.6</ele>
        <time>2021-08-19T14:54:34Z</time>
      </trkpt>
      <trkpt lat="46.25438" lon="5.83907">
        <ele>1062.3</ele>
        <time>2021-08-19T14:54:35Z</time>
      </trkpt>
      <trkpt lat="46.25431" lon="5.83908">
        <ele>1062.1</ele>
        <time>2021-08-19T14:54:36Z</time>
      </trkpt>
      <trkpt lat="46.25424" lon="5.83909">
        <ele>1061.8</ele>
        <time>2021-08-19T14:54:37Z</time>
      </trkpt>
      <trkpt lat="46.25411" lon="5.83912">
        <ele>1061.3</ele>
        <time>2021-08-19T14:54:39Z</time>
      </trkpt>
      <trkpt lat="46.25404" lon="5.83914">
        <ele>1061.1</ele>
        <time>2021-08-19T14:54:40Z</time>
      </trkpt>
      <trkpt lat="46.25397" lon="5.83917">
        <ele>1060.9</ele>
        <time>2021-08-19T14:54:41Z</time>
      </trkpt>
      <trkpt lat="46.25384" lon="5.8392">
        <ele>1060.6</ele>
        <time>2021-08-19T14:54:43Z</time>
      </trkpt>
      <trkpt lat="46.25371" lon="5.8392">
        <ele>1060.5</ele>
        <time>2021-08-19T14:54:45Z</time>
      </trkpt>
      <trkpt lat="46.25365" lon="5.83919">
        <ele>1060.5</ele>
        <time>2021-08-19T14:54:46Z</time>
      </trkpt>
      <trkpt lat="46.25353" lon="5.83916">
        <ele>1060.6</ele>
        <time>2021-08-19T14:54:48Z</time>
      </trkpt>
      <trkpt lat="46.25347" lon="5.83915">
        <ele>1060.7</ele>
        <time>2021-08-19T14:54:49Z</time>
      </trkpt>
      <trkpt lat="46.25338" lon="5.83912">
        <ele>1060.8</ele>
        <time>2021-08-19T14:54:51Z</time>
      </trkpt>
      <trkpt lat="46.25329" lon="5.8391">
        <ele>1060.9</ele>
        <time>2021-08-19T14:54:53Z</time>
      </trkpt>
      <trkpt lat="46.25326" lon="5.83907">
        <ele>1061</ele>
        <time>2021-08-19T14:54:54Z</time>
      </trkpt>
      <trkpt lat="46.25321" lon="5.83905">
        <ele>1061</ele>
        <time>2021-08-19T14:54:55Z</time>
      </trkpt>
      <trkpt lat="46.25319" lon="5.83904">
        <ele>1061.1</ele>
        <time>2021-08-19T14:54:56Z</time>
      </trkpt>
      <trkpt lat="46.25311" lon="5.83902">
        <ele>1061.2</ele>
        <time>2021-08-19T14:54:58Z</time>
      </trkpt>
      <trkpt lat="46.25303" lon="5.83902">
        <ele>1061.3</ele>
        <time>2021-08-19T14:55:00Z</time>
      </trkpt>
      <trkpt lat="46.25295" lon="5.83902">
        <ele>1061.3</ele>
        <time>2021-08-19T14:55:01Z</time>
      </trkpt>
      <trkpt lat="46.25296" lon="5.83897">
        <ele>1061.3</ele>
        <time>2021-08-19T14:55:03Z</time>
      </trkpt>
      <trkpt lat="46.25294" lon="5.83899">
        <ele>1061.3</ele>
        <time>2021-08-19T14:55:04Z</time>
      </trkpt>
      <trkpt lat="46.2529" lon="5.83906">
        <ele>1061.3</ele>
        <time>2021-08-19T14:55:06Z</time>
      </trkpt>
      <trkpt lat="46.25289" lon="5.83911">
        <ele>1061.3</ele>
        <time>2021-08-19T14:55:07Z</time>
      </trkpt>
      <trkpt lat="46.25288" lon="5.83916">
        <ele>1061.3</ele>
        <time>2021-08-19T14:55:08Z</time>
      </trkpt>
      <trkpt lat="46.25285" lon="5.83925">
        <ele>1061.2</ele>
        <time>2021-08-19T14:55:10Z</time>
      </trkpt>
      <trkpt lat="46.25284" lon="5.8393">
        <ele>1061.1</ele>
        <time>2021-08-19T14:55:11Z</time>
      </trkpt>
      <trkpt lat="46.25282" lon="5.83933">
        <ele>1061.1</ele>
        <time>2021-08-19T14:55:12Z</time>
      </trkpt>
      <trkpt lat="46.25278" lon="5.83936">
        <ele>1061</ele>
        <time>2021-08-19T14:55:14Z</time>
      </trkpt>
      <trkpt lat="46.25274" lon="5.83938">
        <ele>1060.9</ele>
        <time>2021-08-19T14:55:15Z</time>
      </trkpt>
      <trkpt lat="46.25271" lon="5.83941">
        <ele>1060.8</ele>
        <time>2021-08-19T14:55:16Z</time>
      </trkpt>
      <trkpt lat="46.25265" lon="5.83945">
        <ele>1060.7</ele>
        <time>2021-08-19T14:55:18Z</time>
      </trkpt>
      <trkpt lat="46.25261" lon="5.83948">
        <ele>1060.6</ele>
        <time>2021-08-19T14:55:19Z</time>
      </trkpt>
      <trkpt lat="46.25257" lon="5.8395">
        <ele>1060.5</ele>
        <time>2021-08-19T14:55:20Z</time>
      </trkpt>
      <trkpt lat="46.25252" lon="5.83951">
        <ele>1060.3</ele>
        <time>2021-08-19T14:55:21Z</time>
      </trkpt>
      <trkpt lat="46.25249" lon="5.83952">
        <ele>1060.2</ele>
        <time>2021-08-19T14:55:22Z</time>
      </trkpt>
      <trkpt lat="46.25242" lon="5.8395">
        <ele>1059.9</ele>
        <time>2021-08-19T14:55:24Z</time>
      </trkpt>
      <trkpt lat="46.2524" lon="5.83947">
        <ele>1059.8</ele>
        <time>2021-08-19T14:55:25Z</time>
      </trkpt>
      <trkpt lat="46.25235" lon="5.83936">
        <ele>1059.3</ele>
        <time>2021-08-19T14:55:27Z</time>
      </trkpt>
      <trkpt lat="46.25227" lon="5.8392">
        <ele>1058.5</ele>
        <time>2021-08-19T14:55:28Z</time>
      </trkpt>
      <trkpt lat="46.25215" lon="5.83905">
        <ele>1057.7</ele>
        <time>2021-08-19T14:55:30Z</time>
      </trkpt>
      <trkpt lat="46.25209" lon="5.83898">
        <ele>1057.3</ele>
        <time>2021-08-19T14:55:31Z</time>
      </trkpt>
      <trkpt lat="46.25195" lon="5.83886">
        <ele>1056.7</ele>
        <time>2021-08-19T14:55:33Z</time>
      </trkpt>
      <trkpt lat="46.25188" lon="5.83879">
        <ele>1056.6</ele>
        <time>2021-08-19T14:55:34Z</time>
      </trkpt>
      <trkpt lat="46.25177" lon="5.83869">
        <ele>1056.7</ele>
        <time>2021-08-19T14:55:36Z</time>
      </trkpt>
      <trkpt lat="46.25172" lon="5.83864">
        <ele>1056.8</ele>
        <time>2021-08-19T14:55:37Z</time>
      </trkpt>
      <trkpt lat="46.25163" lon="5.83857">
        <ele>1057.1</ele>
        <time>2021-08-19T14:55:39Z</time>
      </trkpt>
      <trkpt lat="46.25158" lon="5.83853">
        <ele>1057.2</ele>
        <time>2021-08-19T14:55:40Z</time>
      </trkpt>
      <trkpt lat="46.25148" lon="5.83848">
        <ele>1057.5</ele>
        <time>2021-08-19T14:55:42Z</time>
      </trkpt>
      <trkpt lat="46.25144" lon="5.83847">
        <ele>1057.7</ele>
        <time>2021-08-19T14:55:43Z</time>
      </trkpt>
      <trkpt lat="46.25136" lon="5.83845">
        <ele>1057.8</ele>
        <time>2021-08-19T14:55:45Z</time>
      </trkpt>
      <trkpt lat="46.25132" lon="5.83842">
        <ele>1057.9</ele>
        <time>2021-08-19T14:55:46Z</time>
      </trkpt>
      <trkpt lat="46.25131" lon="5.83841">
        <ele>1057.9</ele>
        <time>2021-08-19T14:55:47Z</time>
      </trkpt>
      <trkpt lat="46.25126" lon="5.83835">
        <ele>1057.9</ele>
        <time>2021-08-19T14:55:49Z</time>
      </trkpt>
      <trkpt lat="46.25118" lon="5.8383">
        <ele>1057.9</ele>
        <time>2021-08-19T14:55:51Z</time>
      </trkpt>
      <trkpt lat="46.25112" lon="5.83835">
        <ele>1057.7</ele>
        <time>2021-08-19T14:55:52Z</time>
      </trkpt>
      <trkpt lat="46.25108" lon="5.83833">
        <ele>1057.7</ele>
        <time>2021-08-19T14:55:53Z</time>
      </trkpt>
      <trkpt lat="46.25102" lon="5.83824">
        <ele>1057.5</ele>
        <time>2021-08-19T14:55:55Z</time>
      </trkpt>
      <trkpt lat="46.25098" lon="5.8382">
        <ele>1057.3</ele>
        <time>2021-08-19T14:55:56Z</time>
      </trkpt>
      <trkpt lat="46.25095" lon="5.83812">
        <ele>1057.2</ele>
        <time>2021-08-19T14:55:57Z</time>
      </trkpt>
      <trkpt lat="46.25091" lon="5.83808">
        <ele>1057</ele>
        <time>2021-08-19T14:55:58Z</time>
      </trkpt>
      <trkpt lat="46.25087" lon="5.83804">
        <ele>1056.8</ele>
        <time>2021-08-19T14:55:59Z</time>
      </trkpt>
      <trkpt lat="46.25077" lon="5.83795">
        <ele>1056.5</ele>
        <time>2021-08-19T14:56:01Z</time>
      </trkpt>
      <trkpt lat="46.25065" lon="5.83787">
        <ele>1056.1</ele>
        <time>2021-08-19T14:56:03Z</time>
      </trkpt>
      <trkpt lat="46.25059" lon="5.83782">
        <ele>1056</ele>
        <time>2021-08-19T14:56:04Z</time>
      </trkpt>
      <trkpt lat="46.25054" lon="5.83778">
        <ele>1056.1</ele>
        <time>2021-08-19T14:56:05Z</time>
      </trkpt>
      <trkpt lat="46.25048" lon="5.83774">
        <ele>1056.1</ele>
        <time>2021-08-19T14:56:06Z</time>
      </trkpt>
      <trkpt lat="46.25043" lon="5.83771">
        <ele>1056.2</ele>
        <time>2021-08-19T14:56:07Z</time>
      </trkpt>
      <trkpt lat="46.25033" lon="5.83766">
        <ele>1056.4</ele>
        <time>2021-08-19T14:56:09Z</time>
      </trkpt>
      <trkpt lat="46.25028" lon="5.83762">
        <ele>1056.5</ele>
        <time>2021-08-19T14:56:10Z</time>
      </trkpt>
      <trkpt lat="46.25024" lon="5.83759">
        <ele>1056.6</ele>
        <time>2021-08-19T14:56:11Z</time>
      </trkpt>
      <trkpt lat="46.25016" lon="5.83753">
        <ele>1056.8</ele>
        <time>2021-08-19T14:56:13Z</time>
      </trkpt>
      <trkpt lat="46.25011" lon="5.83748">
        <ele>1057</ele>
        <time>2021-08-19T14:56:15Z</time>
      </trkpt>
      <trkpt lat="46.25004" lon="5.83744">
        <ele>1057.2</ele>
        <time>2021-08-19T14:56:17Z</time>
      </trkpt>
      <trkpt lat="46.25" lon="5.8374">
        <ele>1057.3</ele>
        <time>2021-08-19T14:56:19Z</time>
      </trkpt>
      <trkpt lat="46.25002" lon="5.83736">
        <ele>1057.4</ele>
        <time>2021-08-19T14:56:21Z</time>
      </trkpt>
      <trkpt lat="46.24997" lon="5.8373">
        <ele>1057.6</ele>
        <time>2021-08-19T14:56:23Z</time>
      </trkpt>
      <trkpt lat="46.24995" lon="5.83727">
        <ele>1057.7</ele>
        <time>2021-08-19T14:56:24Z</time>
      </trkpt>
      <trkpt lat="46.24993" lon="5.83722">
        <ele>1057.8</ele>
        <time>2021-08-19T14:56:25Z</time>
      </trkpt>
      <trkpt lat="46.24991" lon="5.8372">
        <ele>1057.9</ele>
        <time>2021-08-19T14:56:26Z</time>
      </trkpt>
      <trkpt lat="46.2499" lon="5.83718">
        <ele>1057.9</ele>
        <time>2021-08-19T14:56:27Z</time>
      </trkpt>
      <trkpt lat="46.24988" lon="5.83717">
        <ele>1058.1</ele>
        <time>2021-08-19T14:56:29Z</time>
      </trkpt>
      <trkpt lat="46.24985" lon="5.83713">
        <ele>1058.3</ele>
        <time>2021-08-19T14:56:30Z</time>
      </trkpt>
      <trkpt lat="46.24985" lon="5.83711">
        <ele>1058.4</ele>
        <time>2021-08-19T14:56:31Z</time>
      </trkpt>
      <trkpt lat="46.24982" lon="5.83708">
        <ele>1058.6</ele>
        <time>2021-08-19T14:56:32Z</time>
      </trkpt>
      <trkpt lat="46.24982" lon="5.83707">
        <ele>1058.6</ele>
        <time>2021-08-19T14:56:33Z</time>
      </trkpt>
      <trkpt lat="46.2498" lon="5.83703">
        <ele>1058.9</ele>
        <time>2021-08-19T14:56:34Z</time>
      </trkpt>
      <trkpt lat="46.24979" lon="5.83701">
        <ele>1058.9</ele>
        <time>2021-08-19T14:56:35Z</time>
      </trkpt>
      <trkpt lat="46.24977" lon="5.83698">
        <ele>1059.1</ele>
        <time>2021-08-19T14:56:36Z</time>
      </trkpt>
      <trkpt lat="46.24975" lon="5.83696">
        <ele>1059.3</ele>
        <time>2021-08-19T14:56:38Z</time>
      </trkpt>
      <trkpt lat="46.24972" lon="5.83692">
        <ele>1059.5</ele>
        <time>2021-08-19T14:56:39Z</time>
      </trkpt>
      <trkpt lat="46.24969" lon="5.83689">
        <ele>1059.7</ele>
        <time>2021-08-19T14:56:40Z</time>
      </trkpt>
      <trkpt lat="46.24968" lon="5.83689">
        <ele>1059.8</ele>
        <time>2021-08-19T14:56:41Z</time>
      </trkpt>
      <trkpt lat="46.24963" lon="5.83685">
        <ele>1060.1</ele>
        <time>2021-08-19T14:56:43Z</time>
      </trkpt>
      <trkpt lat="46.24958" lon="5.8368">
        <ele>1060.5</ele>
        <time>2021-08-19T14:56:45Z</time>
      </trkpt>
      <trkpt lat="46.24955" lon="5.83677">
        <ele>1060.7</ele>
        <time>2021-08-19T14:56:46Z</time>
      </trkpt>
      <trkpt lat="46.24953" lon="5.83673">
        <ele>1060.9</ele>
        <time>2021-08-19T14:56:47Z</time>
      </trkpt>
      <trkpt lat="46.2495" lon="5.8367">
        <ele>1061.1</ele>
        <time>2021-08-19T14:56:49Z</time>
      </trkpt>
      <trkpt lat="46.24949" lon="5.83668">
        <ele>1061.2</ele>
        <time>2021-08-19T14:56:50Z</time>
      </trkpt>
      <trkpt lat="46.24947" lon="5.83666">
        <ele>1061.3</ele>
        <time>2021-08-19T14:56:51Z</time>
      </trkpt>
      <trkpt lat="46.24943" lon="5.83663">
        <ele>1061.6</ele>
        <time>2021-08-19T14:56:53Z</time>
      </trkpt>
      <trkpt lat="46.2494" lon="5.83659">
        <ele>1061.8</ele>
        <time>2021-08-19T14:56:54Z</time>
      </trkpt>
      <trkpt lat="46.24939" lon="5.83658">
        <ele>1061.8</ele>
        <time>2021-08-19T14:56:55Z</time>
      </trkpt>
      <trkpt lat="46.24935" lon="5.83654">
        <ele>1062.1</ele>
        <time>2021-08-19T14:56:57Z</time>
      </trkpt>
      <trkpt lat="46.24933" lon="5.83652">
        <ele>1062.2</ele>
        <time>2021-08-19T14:56:58Z</time>
      </trkpt>
      <trkpt lat="46.2493" lon="5.83648">
        <ele>1062.5</ele>
        <time>2021-08-19T14:57:00Z</time>
      </trkpt>
      <trkpt lat="46.24928" lon="5.83646">
        <ele>1062.6</ele>
        <time>2021-08-19T14:57:01Z</time>
      </trkpt>
      <trkpt lat="46.24927" lon="5.83645">
        <ele>1062.6</ele>
        <time>2021-08-19T14:57:02Z</time>
      </trkpt>
      <trkpt lat="46.24923" lon="5.83642">
        <ele>1062.9</ele>
        <time>2021-08-19T14:57:03Z</time>
      </trkpt>
      <trkpt lat="46.24922" lon="5.83641">
        <ele>1062.9</ele>
        <time>2021-08-19T14:57:04Z</time>
      </trkpt>
      <trkpt lat="46.24919" lon="5.83637">
        <ele>1063.2</ele>
        <time>2021-08-19T14:57:06Z</time>
      </trkpt>
      <trkpt lat="46.24917" lon="5.83634">
        <ele>1063.3</ele>
        <time>2021-08-19T14:57:07Z</time>
      </trkpt>
      <trkpt lat="46.24913" lon="5.8363">
        <ele>1063.6</ele>
        <time>2021-08-19T14:57:09Z</time>
      </trkpt>
      <trkpt lat="46.24911" lon="5.83628">
        <ele>1063.7</ele>
        <time>2021-08-19T14:57:10Z</time>
      </trkpt>
      <trkpt lat="46.24908" lon="5.83624">
        <ele>1063.9</ele>
        <time>2021-08-19T14:57:11Z</time>
      </trkpt>
      <trkpt lat="46.24905" lon="5.83618">
        <ele>1064.2</ele>
        <time>2021-08-19T14:57:13Z</time>
      </trkpt>
      <trkpt lat="46.24903" lon="5.83614">
        <ele>1064.4</ele>
        <time>2021-08-19T14:57:14Z</time>
      </trkpt>
      <trkpt lat="46.24901" lon="5.83611">
        <ele>1064.5</ele>
        <time>2021-08-19T14:57:15Z</time>
      </trkpt>
      <trkpt lat="46.24899" lon="5.83607">
        <ele>1064.7</ele>
        <time>2021-08-19T14:57:17Z</time>
      </trkpt>
      <trkpt lat="46.24898" lon="5.83606">
        <ele>1064.8</ele>
        <time>2021-08-19T14:57:18Z</time>
      </trkpt>
      <trkpt lat="46.24896" lon="5.83604">
        <ele>1064.9</ele>
        <time>2021-08-19T14:57:19Z</time>
      </trkpt>
      <trkpt lat="46.24893" lon="5.836">
        <ele>1065.1</ele>
        <time>2021-08-19T14:57:21Z</time>
      </trkpt>
      <trkpt lat="46.24891" lon="5.83598">
        <ele>1065.3</ele>
        <time>2021-08-19T14:57:22Z</time>
      </trkpt>
      <trkpt lat="46.24888" lon="5.83594">
        <ele>1065.5</ele>
        <time>2021-08-19T14:57:24Z</time>
      </trkpt>
      <trkpt lat="46.24886" lon="5.83591">
        <ele>1065.6</ele>
        <time>2021-08-19T14:57:25Z</time>
      </trkpt>
      <trkpt lat="46.24881" lon="5.83585">
        <ele>1065.9</ele>
        <time>2021-08-19T14:57:27Z</time>
      </trkpt>
      <trkpt lat="46.24878" lon="5.83581">
        <ele>1066.1</ele>
        <time>2021-08-19T14:57:28Z</time>
      </trkpt>
      <trkpt lat="46.24875" lon="5.83579">
        <ele>1066.3</ele>
        <time>2021-08-19T14:57:29Z</time>
      </trkpt>
      <trkpt lat="46.24874" lon="5.83578">
        <ele>1066.3</ele>
        <time>2021-08-19T14:57:30Z</time>
      </trkpt>
      <trkpt lat="46.24871" lon="5.83576">
        <ele>1066.4</ele>
        <time>2021-08-19T14:57:32Z</time>
      </trkpt>
      <trkpt lat="46.24869" lon="5.83575">
        <ele>1066.5</ele>
        <time>2021-08-19T14:57:33Z</time>
      </trkpt>
      <trkpt lat="46.24867" lon="5.83572">
        <ele>1066.6</ele>
        <time>2021-08-19T14:57:35Z</time>
      </trkpt>
      <trkpt lat="46.24865" lon="5.83572">
        <ele>1066.7</ele>
        <time>2021-08-19T14:57:36Z</time>
      </trkpt>
      <trkpt lat="46.24863" lon="5.8357">
        <ele>1066.8</ele>
        <time>2021-08-19T14:57:37Z</time>
      </trkpt>
      <trkpt lat="46.2486" lon="5.83568">
        <ele>1066.9</ele>
        <time>2021-08-19T14:57:39Z</time>
      </trkpt>
      <trkpt lat="46.24857" lon="5.83566">
        <ele>1067</ele>
        <time>2021-08-19T14:57:40Z</time>
      </trkpt>
      <trkpt lat="46.24854" lon="5.83564">
        <ele>1067.1</ele>
        <time>2021-08-19T14:57:41Z</time>
      </trkpt>
      <trkpt lat="46.24851" lon="5.83563">
        <ele>1067.2</ele>
        <time>2021-08-19T14:57:42Z</time>
      </trkpt>
      <trkpt lat="46.24847" lon="5.83562">
        <ele>1067.3</ele>
        <time>2021-08-19T14:57:43Z</time>
      </trkpt>
      <trkpt lat="46.24846" lon="5.83561">
        <ele>1067.3</ele>
        <time>2021-08-19T14:57:44Z</time>
      </trkpt>
      <trkpt lat="46.24842" lon="5.83563">
        <ele>1067.4</ele>
        <time>2021-08-19T14:57:46Z</time>
      </trkpt>
      <trkpt lat="46.24841" lon="5.83563">
        <ele>1067.4</ele>
        <time>2021-08-19T14:57:47Z</time>
      </trkpt>
      <trkpt lat="46.2484" lon="5.83562">
        <ele>1067.4</ele>
        <time>2021-08-19T14:57:48Z</time>
      </trkpt>
      <trkpt lat="46.24838" lon="5.83563">
        <ele>1067.5</ele>
        <time>2021-08-19T14:57:49Z</time>
      </trkpt>
      <trkpt lat="46.24836" lon="5.83563">
        <ele>1067.5</ele>
        <time>2021-08-19T14:57:51Z</time>
      </trkpt>
      <trkpt lat="46.24832" lon="5.83562">
        <ele>1067.5</ele>
        <time>2021-08-19T14:57:53Z</time>
      </trkpt>
      <trkpt lat="46.24827" lon="5.8356">
        <ele>1067.6</ele>
        <time>2021-08-19T14:57:54Z</time>
      </trkpt>
      <trkpt lat="46.24825" lon="5.8356">
        <ele>1067.6</ele>
        <time>2021-08-19T14:57:55Z</time>
      </trkpt>
      <trkpt lat="46.24819" lon="5.83557">
        <ele>1067.6</ele>
        <time>2021-08-19T14:57:57Z</time>
      </trkpt>
      <trkpt lat="46.24815" lon="5.83557">
        <ele>1067.7</ele>
        <time>2021-08-19T14:57:58Z</time>
      </trkpt>
      <trkpt lat="46.24809" lon="5.83556">
        <ele>1067.7</ele>
        <time>2021-08-19T14:58:00Z</time>
      </trkpt>
      <trkpt lat="46.24806" lon="5.83556">
        <ele>1067.8</ele>
        <time>2021-08-19T14:58:01Z</time>
      </trkpt>
      <trkpt lat="46.24803" lon="5.83556">
        <ele>1067.8</ele>
        <time>2021-08-19T14:58:02Z</time>
      </trkpt>
      <trkpt lat="46.248" lon="5.83555">
        <ele>1067.8</ele>
        <time>2021-08-19T14:58:03Z</time>
      </trkpt>
      <trkpt lat="46.24798" lon="5.83555">
        <ele>1067.9</ele>
        <time>2021-08-19T14:58:04Z</time>
      </trkpt>
      <trkpt lat="46.24796" lon="5.83555">
        <ele>1067.9</ele>
        <time>2021-08-19T14:58:05Z</time>
      </trkpt>
      <trkpt lat="46.24793" lon="5.83553">
        <ele>1067.9</ele>
        <time>2021-08-19T14:58:07Z</time>
      </trkpt>
      <trkpt lat="46.2479" lon="5.83551">
        <ele>1068</ele>
        <time>2021-08-19T14:58:08Z</time>
      </trkpt>
      <trkpt lat="46.24787" lon="5.83548">
        <ele>1068</ele>
        <time>2021-08-19T14:58:09Z</time>
      </trkpt>
      <trkpt lat="46.24784" lon="5.83545">
        <ele>1068.1</ele>
        <time>2021-08-19T14:58:10Z</time>
      </trkpt>
      <trkpt lat="46.24783" lon="5.83544">
        <ele>1068.1</ele>
        <time>2021-08-19T14:58:11Z</time>
      </trkpt>
      <trkpt lat="46.24778" lon="5.83539">
        <ele>1068.3</ele>
        <time>2021-08-19T14:58:13Z</time>
      </trkpt>
      <trkpt lat="46.24773" lon="5.83536">
        <ele>1068.4</ele>
        <time>2021-08-19T14:58:14Z</time>
      </trkpt>
      <trkpt lat="46.24769" lon="5.83533">
        <ele>1068.5</ele>
        <time>2021-08-19T14:58:16Z</time>
      </trkpt>
      <trkpt lat="46.24766" lon="5.8353">
        <ele>1068.6</ele>
        <time>2021-08-19T14:58:17Z</time>
      </trkpt>
      <trkpt lat="46.24764" lon="5.83528">
        <ele>1068.7</ele>
        <time>2021-08-19T14:58:18Z</time>
      </trkpt>
      <trkpt lat="46.2476" lon="5.83525">
        <ele>1068.8</ele>
        <time>2021-08-19T14:58:19Z</time>
      </trkpt>
      <trkpt lat="46.24756" lon="5.83522">
        <ele>1068.9</ele>
        <time>2021-08-19T14:58:20Z</time>
      </trkpt>
      <trkpt lat="46.24752" lon="5.83519">
        <ele>1069.1</ele>
        <time>2021-08-19T14:58:21Z</time>
      </trkpt>
      <trkpt lat="46.24747" lon="5.83516">
        <ele>1069.3</ele>
        <time>2021-08-19T14:58:23Z</time>
      </trkpt>
      <trkpt lat="46.24742" lon="5.83512">
        <ele>1069.5</ele>
        <time>2021-08-19T14:58:25Z</time>
      </trkpt>
      <trkpt lat="46.24738" lon="5.83508">
        <ele>1069.7</ele>
        <time>2021-08-19T14:58:26Z</time>
      </trkpt>
      <trkpt lat="46.24735" lon="5.83507">
        <ele>1069.8</ele>
        <time>2021-08-19T14:58:27Z</time>
      </trkpt>
      <trkpt lat="46.24732" lon="5.83504">
        <ele>1069.9</ele>
        <time>2021-08-19T14:58:28Z</time>
      </trkpt>
      <trkpt lat="46.24729" lon="5.83503">
        <ele>1070.1</ele>
        <time>2021-08-19T14:58:29Z</time>
      </trkpt>
      <trkpt lat="46.24723" lon="5.83501">
        <ele>1070.3</ele>
        <time>2021-08-19T14:58:31Z</time>
      </trkpt>
      <trkpt lat="46.24719" lon="5.83499">
        <ele>1070.5</ele>
        <time>2021-08-19T14:58:32Z</time>
      </trkpt>
      <trkpt lat="46.24716" lon="5.83496">
        <ele>1070.7</ele>
        <time>2021-08-19T14:58:33Z</time>
      </trkpt>
      <trkpt lat="46.24712" lon="5.83495">
        <ele>1070.9</ele>
        <time>2021-08-19T14:58:34Z</time>
      </trkpt>
      <trkpt lat="46.24705" lon="5.83494">
        <ele>1071.3</ele>
        <time>2021-08-19T14:58:36Z</time>
      </trkpt>
      <trkpt lat="46.24702" lon="5.83495">
        <ele>1071.4</ele>
        <time>2021-08-19T14:58:37Z</time>
      </trkpt>
      <trkpt lat="46.24699" lon="5.83495">
        <ele>1071.6</ele>
        <time>2021-08-19T14:58:39Z</time>
      </trkpt>
      <trkpt lat="46.24698" lon="5.83494">
        <ele>1071.7</ele>
        <time>2021-08-19T14:58:40Z</time>
      </trkpt>
      <trkpt lat="46.24697" lon="5.83492">
        <ele>1071.8</ele>
        <time>2021-08-19T14:58:42Z</time>
      </trkpt>
      <trkpt lat="46.24696" lon="5.8349">
        <ele>1071.8</ele>
        <time>2021-08-19T14:58:43Z</time>
      </trkpt>
      <trkpt lat="46.24694" lon="5.83488">
        <ele>1072</ele>
        <time>2021-08-19T14:58:45Z</time>
      </trkpt>
      <trkpt lat="46.2469" lon="5.83486">
        <ele>1072.1</ele>
        <time>2021-08-19T14:58:46Z</time>
      </trkpt>
      <trkpt lat="46.24688" lon="5.83484">
        <ele>1072.3</ele>
        <time>2021-08-19T14:58:47Z</time>
      </trkpt>
      <trkpt lat="46.24683" lon="5.83481">
        <ele>1072.5</ele>
        <time>2021-08-19T14:58:49Z</time>
      </trkpt>
      <trkpt lat="46.24679" lon="5.83479">
        <ele>1072.7</ele>
        <time>2021-08-19T14:58:51Z</time>
      </trkpt>
      <trkpt lat="46.24677" lon="5.83478">
        <ele>1072.7</ele>
        <time>2021-08-19T14:58:52Z</time>
      </trkpt>
      <trkpt lat="46.24676" lon="5.83477">
        <ele>1072.8</ele>
        <time>2021-08-19T14:58:53Z</time>
      </trkpt>
      <trkpt lat="46.24674" lon="5.83477">
        <ele>1072.9</ele>
        <time>2021-08-19T14:58:54Z</time>
      </trkpt>
      <trkpt lat="46.24674" lon="5.83478">
        <ele>1072.9</ele>
        <time>2021-08-19T14:58:55Z</time>
      </trkpt>
      <trkpt lat="46.24671" lon="5.83478">
        <ele>1073</ele>
        <time>2021-08-19T14:58:57Z</time>
      </trkpt>
      <trkpt lat="46.2467" lon="5.83478">
        <ele>1073</ele>
        <time>2021-08-19T14:58:58Z</time>
      </trkpt>
      <trkpt lat="46.24666" lon="5.83474">
        <ele>1073.2</ele>
        <time>2021-08-19T14:59:00Z</time>
      </trkpt>
      <trkpt lat="46.24664" lon="5.83471">
        <ele>1073.3</ele>
        <time>2021-08-19T14:59:02Z</time>
      </trkpt>
      <trkpt lat="46.24661" lon="5.83469">
        <ele>1073.4</ele>
        <time>2021-08-19T14:59:04Z</time>
      </trkpt>
      <trkpt lat="46.2465" lon="5.83471">
        <ele>1073.8</ele>
        <time>2021-08-19T14:59:11Z</time>
      </trkpt>
      <trkpt lat="46.24647" lon="5.8347">
        <ele>1073.8</ele>
        <time>2021-08-19T14:59:12Z</time>
      </trkpt>
      <trkpt lat="46.24645" lon="5.8347">
        <ele>1073.9</ele>
        <time>2021-08-19T14:59:14Z</time>
      </trkpt>
      <trkpt lat="46.24642" lon="5.83468">
        <ele>1074</ele>
        <time>2021-08-19T14:59:15Z</time>
      </trkpt>
      <trkpt lat="46.2464" lon="5.83466">
        <ele>1074.1</ele>
        <time>2021-08-19T14:59:16Z</time>
      </trkpt>
      <trkpt lat="46.24637" lon="5.83462">
        <ele>1074.3</ele>
        <time>2021-08-19T14:59:18Z</time>
      </trkpt>
      <trkpt lat="46.24632" lon="5.83459">
        <ele>1074.5</ele>
        <time>2021-08-19T14:59:19Z</time>
      </trkpt>
      <trkpt lat="46.24627" lon="5.83455">
        <ele>1074.8</ele>
        <time>2021-08-19T14:59:20Z</time>
      </trkpt>
      <trkpt lat="46.24624" lon="5.83452">
        <ele>1075</ele>
        <time>2021-08-19T14:59:22Z</time>
      </trkpt>
      <trkpt lat="46.24622" lon="5.83449">
        <ele>1075.1</ele>
        <time>2021-08-19T14:59:23Z</time>
      </trkpt>
      <trkpt lat="46.24619" lon="5.83447">
        <ele>1075.3</ele>
        <time>2021-08-19T14:59:24Z</time>
      </trkpt>
      <trkpt lat="46.24616" lon="5.83445">
        <ele>1075.4</ele>
        <time>2021-08-19T14:59:25Z</time>
      </trkpt>
      <trkpt lat="46.24614" lon="5.83441">
        <ele>1075.6</ele>
        <time>2021-08-19T14:59:27Z</time>
      </trkpt>
      <trkpt lat="46.24613" lon="5.83439">
        <ele>1075.7</ele>
        <time>2021-08-19T14:59:28Z</time>
      </trkpt>
      <trkpt lat="46.24611" lon="5.83435">
        <ele>1075.9</ele>
        <time>2021-08-19T14:59:29Z</time>
      </trkpt>
      <trkpt lat="46.2461" lon="5.83434">
        <ele>1075.9</ele>
        <time>2021-08-19T14:59:30Z</time>
      </trkpt>
      <trkpt lat="46.24606" lon="5.83431">
        <ele>1076.1</ele>
        <time>2021-08-19T14:59:32Z</time>
      </trkpt>
      <trkpt lat="46.24605" lon="5.8343">
        <ele>1076.2</ele>
        <time>2021-08-19T14:59:34Z</time>
      </trkpt>
      <trkpt lat="46.24604" lon="5.83428">
        <ele>1076.3</ele>
        <time>2021-08-19T14:59:36Z</time>
      </trkpt>
      <trkpt lat="46.24602" lon="5.83427">
        <ele>1076.4</ele>
        <time>2021-08-19T14:59:38Z</time>
      </trkpt>
      <trkpt lat="46.24601" lon="5.83426">
        <ele>1076.4</ele>
        <time>2021-08-19T14:59:40Z</time>
      </trkpt>
      <trkpt lat="46.246" lon="5.83425">
        <ele>1076.5</ele>
        <time>2021-08-19T14:59:42Z</time>
      </trkpt>
      <trkpt lat="46.24599" lon="5.83423">
        <ele>1076.6</ele>
        <time>2021-08-19T14:59:43Z</time>
      </trkpt>
      <trkpt lat="46.24593" lon="5.83421">
        <ele>1076.9</ele>
        <time>2021-08-19T14:59:45Z</time>
      </trkpt>
      <trkpt lat="46.2459" lon="5.8342">
        <ele>1077</ele>
        <time>2021-08-19T14:59:46Z</time>
      </trkpt>
      <trkpt lat="46.24582" lon="5.83417">
        <ele>1077.4</ele>
        <time>2021-08-19T14:59:48Z</time>
      </trkpt>
      <trkpt lat="46.24577" lon="5.83415">
        <ele>1077.7</ele>
        <time>2021-08-19T14:59:49Z</time>
      </trkpt>
      <trkpt lat="46.24571" lon="5.83413">
        <ele>1077.9</ele>
        <time>2021-08-19T14:59:51Z</time>
      </trkpt>
      <trkpt lat="46.24567" lon="5.8341">
        <ele>1078.1</ele>
        <time>2021-08-19T14:59:52Z</time>
      </trkpt>
      <trkpt lat="46.24561" lon="5.83406">
        <ele>1078.4</ele>
        <time>2021-08-19T14:59:53Z</time>
      </trkpt>
      <trkpt lat="46.24554" lon="5.83405">
        <ele>1078.7</ele>
        <time>2021-08-19T14:59:55Z</time>
      </trkpt>
      <trkpt lat="46.24551" lon="5.83403">
        <ele>1078.8</ele>
        <time>2021-08-19T14:59:56Z</time>
      </trkpt>
      <trkpt lat="46.2455" lon="5.83402">
        <ele>1078.8</ele>
        <time>2021-08-19T14:59:57Z</time>
      </trkpt>
      <trkpt lat="46.24545" lon="5.83399">
        <ele>1079.1</ele>
        <time>2021-08-19T14:59:58Z</time>
      </trkpt>
      <trkpt lat="46.24542" lon="5.83397">
        <ele>1079.2</ele>
        <time>2021-08-19T15:00:00Z</time>
      </trkpt>
      <trkpt lat="46.24539" lon="5.83397">
        <ele>1079.3</ele>
        <time>2021-08-19T15:00:02Z</time>
      </trkpt>
      <trkpt lat="46.24538" lon="5.83397">
        <ele>1079.4</ele>
        <time>2021-08-19T15:00:03Z</time>
      </trkpt>
      <trkpt lat="46.24535" lon="5.83397">
        <ele>1079.5</ele>
        <time>2021-08-19T15:00:05Z</time>
      </trkpt>
      <trkpt lat="46.24533" lon="5.83395">
        <ele>1079.6</ele>
        <time>2021-08-19T15:00:06Z</time>
      </trkpt>
      <trkpt lat="46.24529" lon="5.83393">
        <ele>1079.8</ele>
        <time>2021-08-19T15:00:08Z</time>
      </trkpt>
      <trkpt lat="46.24527" lon="5.8339">
        <ele>1079.9</ele>
        <time>2021-08-19T15:00:09Z</time>
      </trkpt>
      <trkpt lat="46.24526" lon="5.83388">
        <ele>1080</ele>
        <time>2021-08-19T15:00:10Z</time>
      </trkpt>
      <trkpt lat="46.24525" lon="5.83387">
        <ele>1080</ele>
        <time>2021-08-19T15:00:11Z</time>
      </trkpt>
      <trkpt lat="46.24525" lon="5.83387">
        <ele>1080</ele>
        <time>2021-08-19T15:00:12Z</time>
      </trkpt>
      <trkpt lat="46.24525" lon="5.83386">
        <ele>1080.1</ele>
        <time>2021-08-19T15:00:14Z</time>
      </trkpt>
      <trkpt lat="46.24524" lon="5.83386">
        <ele>1080.1</ele>
        <time>2021-08-19T15:00:15Z</time>
      </trkpt>
      <trkpt lat="46.24524" lon="5.83386">
        <ele>1080.1</ele>
        <time>2021-08-19T15:00:16Z</time>
      </trkpt>
      <trkpt lat="46.24523" lon="5.83384">
        <ele>1080.2</ele>
        <time>2021-08-19T15:00:18Z</time>
      </trkpt>
      <trkpt lat="46.24396" lon="5.83374">
        <ele>1086</ele>
        <time>2021-08-19T15:01:14Z</time>
      </trkpt>
      <trkpt lat="46.24387" lon="5.83359">
        <ele>1086.6</ele>
        <time>2021-08-19T15:01:16Z</time>
      </trkpt>
      <trkpt lat="46.24378" lon="5.83347">
        <ele>1087.1</ele>
        <time>2021-08-19T15:01:17Z</time>
      </trkpt>
      <trkpt lat="46.24372" lon="5.83344">
        <ele>1087.3</ele>
        <time>2021-08-19T15:01:19Z</time>
      </trkpt>
      <trkpt lat="46.24369" lon="5.83346">
        <ele>1087.4</ele>
        <time>2021-08-19T15:01:21Z</time>
      </trkpt>
      <trkpt lat="46.24367" lon="5.8335">
        <ele>1087.6</ele>
        <time>2021-08-19T15:01:22Z</time>
      </trkpt>
      <trkpt lat="46.24364" lon="5.83353">
        <ele>1087.7</ele>
        <time>2021-08-19T15:01:23Z</time>
      </trkpt>
      <trkpt lat="46.2436" lon="5.83356">
        <ele>1087.9</ele>
        <time>2021-08-19T15:01:25Z</time>
      </trkpt>
      <trkpt lat="46.24358" lon="5.83357">
        <ele>1087.9</ele>
        <time>2021-08-19T15:01:26Z</time>
      </trkpt>
      <trkpt lat="46.24357" lon="5.83358">
        <ele>1088</ele>
        <time>2021-08-19T15:01:27Z</time>
      </trkpt>
      <trkpt lat="46.24355" lon="5.83359">
        <ele>1088.1</ele>
        <time>2021-08-19T15:01:29Z</time>
      </trkpt>
      <trkpt lat="46.2435" lon="5.83362">
        <ele>1088.3</ele>
        <time>2021-08-19T15:01:31Z</time>
      </trkpt>
      <trkpt lat="46.24348" lon="5.83362">
        <ele>1088.4</ele>
        <time>2021-08-19T15:01:32Z</time>
      </trkpt>
      <trkpt lat="46.24344" lon="5.83363">
        <ele>1088.5</ele>
        <time>2021-08-19T15:01:34Z</time>
      </trkpt>
      <trkpt lat="46.2434" lon="5.83361">
        <ele>1088.7</ele>
        <time>2021-08-19T15:01:36Z</time>
      </trkpt>
      <trkpt lat="46.24337" lon="5.83362">
        <ele>1088.8</ele>
        <time>2021-08-19T15:01:37Z</time>
      </trkpt>
      <trkpt lat="46.24334" lon="5.83361">
        <ele>1088.9</ele>
        <time>2021-08-19T15:01:39Z</time>
      </trkpt>
      <trkpt lat="46.24331" lon="5.83362">
        <ele>1089.1</ele>
        <time>2021-08-19T15:01:40Z</time>
      </trkpt>
      <trkpt lat="46.24328" lon="5.83362">
        <ele>1089.2</ele>
        <time>2021-08-19T15:01:41Z</time>
      </trkpt>
      <trkpt lat="46.24325" lon="5.83363">
        <ele>1089.4</ele>
        <time>2021-08-19T15:01:43Z</time>
      </trkpt>
      <trkpt lat="46.24324" lon="5.83363">
        <ele>1089.4</ele>
        <time>2021-08-19T15:01:44Z</time>
      </trkpt>
      <trkpt lat="46.24323" lon="5.83363">
        <ele>1089.5</ele>
        <time>2021-08-19T15:01:45Z</time>
      </trkpt>
      <trkpt lat="46.24321" lon="5.83364">
        <ele>1089.6</ele>
        <time>2021-08-19T15:01:46Z</time>
      </trkpt>
      <trkpt lat="46.24319" lon="5.83365">
        <ele>1089.7</ele>
        <time>2021-08-19T15:01:48Z</time>
      </trkpt>
      <trkpt lat="46.24317" lon="5.83368">
        <ele>1089.8</ele>
        <time>2021-08-19T15:01:49Z</time>
      </trkpt>
      <trkpt lat="46.24305" lon="5.83382">
        <ele>1090.7</ele>
        <time>2021-08-19T15:01:50Z</time>
      </trkpt>
      <trkpt lat="46.24305" lon="5.83383">
        <ele>1090.7</ele>
        <time>2021-08-19T15:01:51Z</time>
      </trkpt>
      <trkpt lat="46.24201" lon="5.8334">
        <ele>1095.6</ele>
        <time>2021-08-19T15:02:49Z</time>
      </trkpt>
      <trkpt lat="46.24198" lon="5.83333">
        <ele>1095.9</ele>
        <time>2021-08-19T15:02:51Z</time>
      </trkpt>
      <trkpt lat="46.24195" lon="5.83326">
        <ele>1096.2</ele>
        <time>2021-08-19T15:02:52Z</time>
      </trkpt>
      <trkpt lat="46.24192" lon="5.83314">
        <ele>1096.7</ele>
        <time>2021-08-19T15:02:54Z</time>
      </trkpt>
      <trkpt lat="46.24188" lon="5.83305">
        <ele>1097</ele>
        <time>2021-08-19T15:02:56Z</time>
      </trkpt>
      <trkpt lat="46.24185" lon="5.83299">
        <ele>1097.2</ele>
        <time>2021-08-19T15:02:57Z</time>
      </trkpt>
      <trkpt lat="46.24183" lon="5.83293">
        <ele>1097.4</ele>
        <time>2021-08-19T15:02:58Z</time>
      </trkpt>
      <trkpt lat="46.2418" lon="5.83286">
        <ele>1097.6</ele>
        <time>2021-08-19T15:02:59Z</time>
      </trkpt>
      <trkpt lat="46.24177" lon="5.83281">
        <ele>1097.8</ele>
        <time>2021-08-19T15:03:01Z</time>
      </trkpt>
      <trkpt lat="46.24172" lon="5.83272">
        <ele>1098.1</ele>
        <time>2021-08-19T15:03:03Z</time>
      </trkpt>
      <trkpt lat="46.24169" lon="5.83263">
        <ele>1098.4</ele>
        <time>2021-08-19T15:03:05Z</time>
      </trkpt>
      <trkpt lat="46.24165" lon="5.83259">
        <ele>1098.6</ele>
        <time>2021-08-19T15:03:07Z</time>
      </trkpt>
      <trkpt lat="46.24161" lon="5.83258">
        <ele>1098.7</ele>
        <time>2021-08-19T15:03:08Z</time>
      </trkpt>
      <trkpt lat="46.24158" lon="5.83256">
        <ele>1098.8</ele>
        <time>2021-08-19T15:03:09Z</time>
      </trkpt>
      <trkpt lat="46.24154" lon="5.83255">
        <ele>1099</ele>
        <time>2021-08-19T15:03:11Z</time>
      </trkpt>
      <trkpt lat="46.24151" lon="5.83254">
        <ele>1099.2</ele>
        <time>2021-08-19T15:03:12Z</time>
      </trkpt>
      <trkpt lat="46.2415" lon="5.83254">
        <ele>1099.2</ele>
        <time>2021-08-19T15:03:13Z</time>
      </trkpt>
      <trkpt lat="46.24147" lon="5.83256">
        <ele>1099.3</ele>
        <time>2021-08-19T15:03:15Z</time>
      </trkpt>
      <trkpt lat="46.24144" lon="5.83258">
        <ele>1099.5</ele>
        <time>2021-08-19T15:03:16Z</time>
      </trkpt>
      <trkpt lat="46.24143" lon="5.83258">
        <ele>1099.6</ele>
        <time>2021-08-19T15:03:17Z</time>
      </trkpt>
      <trkpt lat="46.2414" lon="5.83261">
        <ele>1099.7</ele>
        <time>2021-08-19T15:03:18Z</time>
      </trkpt>
      <trkpt lat="46.24137" lon="5.83263">
        <ele>1099.9</ele>
        <time>2021-08-19T15:03:19Z</time>
      </trkpt>
      <trkpt lat="46.24136" lon="5.83264">
        <ele>1100</ele>
        <time>2021-08-19T15:03:20Z</time>
      </trkpt>
      <trkpt lat="46.24131" lon="5.83265">
        <ele>1100.3</ele>
        <time>2021-08-19T15:03:22Z</time>
      </trkpt>
      <trkpt lat="46.2413" lon="5.83266">
        <ele>1100.4</ele>
        <time>2021-08-19T15:03:23Z</time>
      </trkpt>
      <trkpt lat="46.24128" lon="5.83266">
        <ele>1100.5</ele>
        <time>2021-08-19T15:03:24Z</time>
      </trkpt>
      <trkpt lat="46.24127" lon="5.83267">
        <ele>1100.6</ele>
        <time>2021-08-19T15:03:26Z</time>
      </trkpt>
      <trkpt lat="46.24125" lon="5.83268">
        <ele>1100.7</ele>
        <time>2021-08-19T15:03:27Z</time>
      </trkpt>
      <trkpt lat="46.24123" lon="5.83272">
        <ele>1101</ele>
        <time>2021-08-19T15:03:28Z</time>
      </trkpt>
      <trkpt lat="46.24122" lon="5.83274">
        <ele>1101.1</ele>
        <time>2021-08-19T15:03:29Z</time>
      </trkpt>
      <trkpt lat="46.24119" lon="5.83278">
        <ele>1101.3</ele>
        <time>2021-08-19T15:03:31Z</time>
      </trkpt>
      <trkpt lat="46.24116" lon="5.83282">
        <ele>1101.6</ele>
        <time>2021-08-19T15:03:32Z</time>
      </trkpt>
      <trkpt lat="46.24113" lon="5.83286">
        <ele>1101.9</ele>
        <time>2021-08-19T15:03:33Z</time>
      </trkpt>
      <trkpt lat="46.2411" lon="5.83291">
        <ele>1102.2</ele>
        <time>2021-08-19T15:03:35Z</time>
      </trkpt>
      <trkpt lat="46.24109" lon="5.83293">
        <ele>1102.4</ele>
        <time>2021-08-19T15:03:36Z</time>
      </trkpt>
      <trkpt lat="46.24109" lon="5.83294">
        <ele>1102.4</ele>
        <time>2021-08-19T15:03:37Z</time>
      </trkpt>
      <trkpt lat="46.24109" lon="5.83292">
        <ele>1102.5</ele>
        <time>2021-08-19T15:03:39Z</time>
      </trkpt>
      <trkpt lat="46.24109" lon="5.8329">
        <ele>1102.6</ele>
        <time>2021-08-19T15:03:41Z</time>
      </trkpt>
      <trkpt lat="46.24109" lon="5.8329">
        <ele>1102.6</ele>
        <time>2021-08-19T15:03:42Z</time>
      </trkpt>
      <trkpt lat="46.24109" lon="5.83289">
        <ele>1102.6</ele>
        <time>2021-08-19T15:03:43Z</time>
      </trkpt>
      <trkpt lat="46.24109" lon="5.83289">
        <ele>1102.6</ele>
        <time>2021-08-19T15:03:45Z</time>
      </trkpt>
      <trkpt lat="46.24108" lon="5.83289">
        <ele>1102.6</ele>
        <time>2021-08-19T15:03:46Z</time>
      </trkpt>
      <trkpt lat="46.24108" lon="5.83289">
        <ele>1102.7</ele>
        <time>2021-08-19T15:03:47Z</time>
      </trkpt>
      <trkpt lat="46.24082" lon="5.83227">
        <ele>1105.6</ele>
        <time>2021-08-19T15:04:03Z</time>
      </trkpt>
      <trkpt lat="46.24079" lon="5.83221">
        <ele>1105.8</ele>
        <time>2021-08-19T15:04:05Z</time>
      </trkpt>
      <trkpt lat="46.24077" lon="5.83217">
        <ele>1106</ele>
        <time>2021-08-19T15:04:06Z</time>
      </trkpt>
      <trkpt lat="46.24074" lon="5.83213">
        <ele>1106.2</ele>
        <time>2021-08-19T15:04:07Z</time>
      </trkpt>
      <trkpt lat="46.24069" lon="5.83204">
        <ele>1106.7</ele>
        <time>2021-08-19T15:04:09Z</time>
      </trkpt>
      <trkpt lat="46.24065" lon="5.83199">
        <ele>1107</ele>
        <time>2021-08-19T15:04:10Z</time>
      </trkpt>
      <trkpt lat="46.24062" lon="5.83194">
        <ele>1107.3</ele>
        <time>2021-08-19T15:04:11Z</time>
      </trkpt>
      <trkpt lat="46.24057" lon="5.83186">
        <ele>1107.6</ele>
        <time>2021-08-19T15:04:13Z</time>
      </trkpt>
      <trkpt lat="46.24054" lon="5.83181">
        <ele>1107.9</ele>
        <time>2021-08-19T15:04:14Z</time>
      </trkpt>
      <trkpt lat="46.24049" lon="5.83175">
        <ele>1108.2</ele>
        <time>2021-08-19T15:04:15Z</time>
      </trkpt>
      <trkpt lat="46.24046" lon="5.83171">
        <ele>1108.4</ele>
        <time>2021-08-19T15:04:16Z</time>
      </trkpt>
      <trkpt lat="46.24042" lon="5.83166">
        <ele>1108.6</ele>
        <time>2021-08-19T15:04:17Z</time>
      </trkpt>
      <trkpt lat="46.24037" lon="5.83158">
        <ele>1109</ele>
        <time>2021-08-19T15:04:19Z</time>
      </trkpt>
      <trkpt lat="46.24032" lon="5.83148">
        <ele>1109.3</ele>
        <time>2021-08-19T15:04:21Z</time>
      </trkpt>
      <trkpt lat="46.2403" lon="5.83143">
        <ele>1109.5</ele>
        <time>2021-08-19T15:04:22Z</time>
      </trkpt>
      <trkpt lat="46.24028" lon="5.83134">
        <ele>1109.7</ele>
        <time>2021-08-19T15:04:24Z</time>
      </trkpt>
      <trkpt lat="46.24026" lon="5.8313">
        <ele>1109.8</ele>
        <time>2021-08-19T15:04:25Z</time>
      </trkpt>
      <trkpt lat="46.24026" lon="5.83129">
        <ele>1109.8</ele>
        <time>2021-08-19T15:04:26Z</time>
      </trkpt>
      <trkpt lat="46.24025" lon="5.83125">
        <ele>1110</ele>
        <time>2021-08-19T15:04:28Z</time>
      </trkpt>
      <trkpt lat="46.24024" lon="5.83121">
        <ele>1110.1</ele>
        <time>2021-08-19T15:04:29Z</time>
      </trkpt>
      <trkpt lat="46.24023" lon="5.83114">
        <ele>1110.2</ele>
        <time>2021-08-19T15:04:31Z</time>
      </trkpt>
      <trkpt lat="46.24021" lon="5.83105">
        <ele>1110.5</ele>
        <time>2021-08-19T15:04:33Z</time>
      </trkpt>
      <trkpt lat="46.24019" lon="5.83101">
        <ele>1110.6</ele>
        <time>2021-08-19T15:04:34Z</time>
      </trkpt>
      <trkpt lat="46.24017" lon="5.83096">
        <ele>1110.8</ele>
        <time>2021-08-19T15:04:35Z</time>
      </trkpt>
      <trkpt lat="46.24016" lon="5.83091">
        <ele>1110.9</ele>
        <time>2021-08-19T15:04:36Z</time>
      </trkpt>
      <trkpt lat="46.24015" lon="5.83086">
        <ele>1111.1</ele>
        <time>2021-08-19T15:04:37Z</time>
      </trkpt>
      <trkpt lat="46.24012" lon="5.83078">
        <ele>1111.3</ele>
        <time>2021-08-19T15:04:39Z</time>
      </trkpt>
      <trkpt lat="46.2401" lon="5.83072">
        <ele>1111.6</ele>
        <time>2021-08-19T15:04:40Z</time>
      </trkpt>
      <trkpt lat="46.24007" lon="5.83065">
        <ele>1111.8</ele>
        <time>2021-08-19T15:04:42Z</time>
      </trkpt>
      <trkpt lat="46.24004" lon="5.83059">
        <ele>1112.1</ele>
        <time>2021-08-19T15:04:43Z</time>
      </trkpt>
      <trkpt lat="46.24002" lon="5.83054">
        <ele>1112.3</ele>
        <time>2021-08-19T15:04:45Z</time>
      </trkpt>
      <trkpt lat="46.24003" lon="5.8305">
        <ele>1112.4</ele>
        <time>2021-08-19T15:04:46Z</time>
      </trkpt>
      <trkpt lat="46.24004" lon="5.83046">
        <ele>1112.5</ele>
        <time>2021-08-19T15:04:47Z</time>
      </trkpt>
      <trkpt lat="46.24004" lon="5.83045">
        <ele>1112.6</ele>
        <time>2021-08-19T15:04:48Z</time>
      </trkpt>
      <trkpt lat="46.24003" lon="5.83042">
        <ele>1112.7</ele>
        <time>2021-08-19T15:04:49Z</time>
      </trkpt>
      <trkpt lat="46.24002" lon="5.83034">
        <ele>1112.9</ele>
        <time>2021-08-19T15:04:51Z</time>
      </trkpt>
      <trkpt lat="46.24001" lon="5.8303">
        <ele>1113</ele>
        <time>2021-08-19T15:04:52Z</time>
      </trkpt>
      <trkpt lat="46.24" lon="5.8303">
        <ele>1113.1</ele>
        <time>2021-08-19T15:04:53Z</time>
      </trkpt>
      <trkpt lat="46.23999" lon="5.83025">
        <ele>1113.2</ele>
        <time>2021-08-19T15:04:54Z</time>
      </trkpt>
      <trkpt lat="46.23999" lon="5.83024">
        <ele>1113.3</ele>
        <time>2021-08-19T15:04:55Z</time>
      </trkpt>
      <trkpt lat="46.23997" lon="5.83018">
        <ele>1113.5</ele>
        <time>2021-08-19T15:04:57Z</time>
      </trkpt>
      <trkpt lat="46.23996" lon="5.83013">
        <ele>1113.7</ele>
        <time>2021-08-19T15:04:58Z</time>
      </trkpt>
      <trkpt lat="46.23996" lon="5.83011">
        <ele>1113.7</ele>
        <time>2021-08-19T15:04:59Z</time>
      </trkpt>
      <trkpt lat="46.23993" lon="5.83002">
        <ele>1114.1</ele>
        <time>2021-08-19T15:05:01Z</time>
      </trkpt>
      <trkpt lat="46.2399" lon="5.82997">
        <ele>1114.3</ele>
        <time>2021-08-19T15:05:02Z</time>
      </trkpt>
      <trkpt lat="46.23987" lon="5.8299">
        <ele>1114.5</ele>
        <time>2021-08-19T15:05:04Z</time>
      </trkpt>
      <trkpt lat="46.23985" lon="5.82984">
        <ele>1114.8</ele>
        <time>2021-08-19T15:05:05Z</time>
      </trkpt>
      <trkpt lat="46.23983" lon="5.82981">
        <ele>1114.9</ele>
        <time>2021-08-19T15:05:06Z</time>
      </trkpt>
      <trkpt lat="46.2398" lon="5.82975">
        <ele>1115.2</ele>
        <time>2021-08-19T15:05:08Z</time>
      </trkpt>
      <trkpt lat="46.23979" lon="5.82973">
        <ele>1115.3</ele>
        <time>2021-08-19T15:05:09Z</time>
      </trkpt>
      <trkpt lat="46.23978" lon="5.8297">
        <ele>1115.4</ele>
        <time>2021-08-19T15:05:10Z</time>
      </trkpt>
      <trkpt lat="46.23977" lon="5.82967">
        <ele>1115.5</ele>
        <time>2021-08-19T15:05:11Z</time>
      </trkpt>
      <trkpt lat="46.23976" lon="5.82965">
        <ele>1115.6</ele>
        <time>2021-08-19T15:05:13Z</time>
      </trkpt>
      <trkpt lat="46.23975" lon="5.8296">
        <ele>1115.8</ele>
        <time>2021-08-19T15:05:14Z</time>
      </trkpt>
      <trkpt lat="46.23975" lon="5.82958">
        <ele>1115.8</ele>
        <time>2021-08-19T15:05:15Z</time>
      </trkpt>
      <trkpt lat="46.23975" lon="5.82956">
        <ele>1115.9</ele>
        <time>2021-08-19T15:05:16Z</time>
      </trkpt>
      <trkpt lat="46.23973" lon="5.82952">
        <ele>1116.1</ele>
        <time>2021-08-19T15:05:18Z</time>
      </trkpt>
      <trkpt lat="46.23972" lon="5.82947">
        <ele>1116.3</ele>
        <time>2021-08-19T15:05:19Z</time>
      </trkpt>
      <trkpt lat="46.23971" lon="5.82945">
        <ele>1116.4</ele>
        <time>2021-08-19T15:05:20Z</time>
      </trkpt>
      <trkpt lat="46.2397" lon="5.82939">
        <ele>1116.6</ele>
        <time>2021-08-19T15:05:22Z</time>
      </trkpt>
      <trkpt lat="46.23969" lon="5.82935">
        <ele>1116.8</ele>
        <time>2021-08-19T15:05:23Z</time>
      </trkpt>
      <trkpt lat="46.23966" lon="5.82931">
        <ele>1117</ele>
        <time>2021-08-19T15:05:24Z</time>
      </trkpt>
      <trkpt lat="46.23964" lon="5.82928">
        <ele>1117.2</ele>
        <time>2021-08-19T15:05:25Z</time>
      </trkpt>
      <trkpt lat="46.2396" lon="5.82922">
        <ele>1117.4</ele>
        <time>2021-08-19T15:05:27Z</time>
      </trkpt>
      <trkpt lat="46.23958" lon="5.82919">
        <ele>1117.6</ele>
        <time>2021-08-19T15:05:28Z</time>
      </trkpt>
      <trkpt lat="46.23956" lon="5.82916">
        <ele>1117.8</ele>
        <time>2021-08-19T15:05:29Z</time>
      </trkpt>
      <trkpt lat="46.23952" lon="5.82911">
        <ele>1118</ele>
        <time>2021-08-19T15:05:31Z</time>
      </trkpt>
      <trkpt lat="46.23949" lon="5.82907">
        <ele>1118.2</ele>
        <time>2021-08-19T15:05:33Z</time>
      </trkpt>
      <trkpt lat="46.23948" lon="5.82905">
        <ele>1118.3</ele>
        <time>2021-08-19T15:05:35Z</time>
      </trkpt>
      <trkpt lat="46.23947" lon="5.82904">
        <ele>1118.4</ele>
        <time>2021-08-19T15:05:36Z</time>
      </trkpt>
      <trkpt lat="46.23945" lon="5.82903">
        <ele>1118.5</ele>
        <time>2021-08-19T15:05:37Z</time>
      </trkpt>
      <trkpt lat="46.23944" lon="5.829">
        <ele>1118.6</ele>
        <time>2021-08-19T15:05:39Z</time>
      </trkpt>
      <trkpt lat="46.23941" lon="5.82895">
        <ele>1118.8</ele>
        <time>2021-08-19T15:05:40Z</time>
      </trkpt>
      <trkpt lat="46.2394" lon="5.82893">
        <ele>1118.9</ele>
        <time>2021-08-19T15:05:41Z</time>
      </trkpt>
      <trkpt lat="46.23936" lon="5.82887">
        <ele>1119.1</ele>
        <time>2021-08-19T15:05:43Z</time>
      </trkpt>
      <trkpt lat="46.23933" lon="5.82882">
        <ele>1119.3</ele>
        <time>2021-08-19T15:05:44Z</time>
      </trkpt>
      <trkpt lat="46.23931" lon="5.82878">
        <ele>1119.5</ele>
        <time>2021-08-19T15:05:45Z</time>
      </trkpt>
      <trkpt lat="46.23928" lon="5.8287">
        <ele>1119.8</ele>
        <time>2021-08-19T15:05:47Z</time>
      </trkpt>
      <trkpt lat="46.23926" lon="5.82862">
        <ele>1120.1</ele>
        <time>2021-08-19T15:05:49Z</time>
      </trkpt>
      <trkpt lat="46.23924" lon="5.82857">
        <ele>1120.2</ele>
        <time>2021-08-19T15:05:50Z</time>
      </trkpt>
      <trkpt lat="46.23923" lon="5.82853">
        <ele>1120.4</ele>
        <time>2021-08-19T15:05:51Z</time>
      </trkpt>
      <trkpt lat="46.23921" lon="5.82847">
        <ele>1120.6</ele>
        <time>2021-08-19T15:05:53Z</time>
      </trkpt>
      <trkpt lat="46.2392" lon="5.82843">
        <ele>1120.8</ele>
        <time>2021-08-19T15:05:54Z</time>
      </trkpt>
      <trkpt lat="46.23919" lon="5.82837">
        <ele>1121</ele>
        <time>2021-08-19T15:05:56Z</time>
      </trkpt>
      <trkpt lat="46.23918" lon="5.82833">
        <ele>1121.2</ele>
        <time>2021-08-19T15:05:57Z</time>
      </trkpt>
      <trkpt lat="46.23917" lon="5.82823">
        <ele>1121.6</ele>
        <time>2021-08-19T15:05:59Z</time>
      </trkpt>
      <trkpt lat="46.23915" lon="5.82819">
        <ele>1121.7</ele>
        <time>2021-08-19T15:06:00Z</time>
      </trkpt>
      <trkpt lat="46.23913" lon="5.82813">
        <ele>1122</ele>
        <time>2021-08-19T15:06:02Z</time>
      </trkpt>
      <trkpt lat="46.23913" lon="5.82811">
        <ele>1122.1</ele>
        <time>2021-08-19T15:06:03Z</time>
      </trkpt>
      <trkpt lat="46.23912" lon="5.82809">
        <ele>1122.2</ele>
        <time>2021-08-19T15:06:04Z</time>
      </trkpt>
      <trkpt lat="46.23912" lon="5.82808">
        <ele>1122.2</ele>
        <time>2021-08-19T15:06:05Z</time>
      </trkpt>
      <trkpt lat="46.23912" lon="5.82806">
        <ele>1122.2</ele>
        <time>2021-08-19T15:06:06Z</time>
      </trkpt>
      <trkpt lat="46.23911" lon="5.82805">
        <ele>1122.3</ele>
        <time>2021-08-19T15:06:07Z</time>
      </trkpt>
      <trkpt lat="46.23911" lon="5.82803">
        <ele>1122.4</ele>
        <time>2021-08-19T15:06:09Z</time>
      </trkpt>
      <trkpt lat="46.2391" lon="5.828">
        <ele>1122.5</ele>
        <time>2021-08-19T15:06:11Z</time>
      </trkpt>
      <trkpt lat="46.23909" lon="5.82692">
        <ele>1126.6</ele>
        <time>2021-08-19T15:06:48Z</time>
      </trkpt>
      <trkpt lat="46.23905" lon="5.82686">
        <ele>1126.9</ele>
        <time>2021-08-19T15:06:49Z</time>
      </trkpt>
      <trkpt lat="46.23901" lon="5.8268">
        <ele>1127.2</ele>
        <time>2021-08-19T15:06:51Z</time>
      </trkpt>
      <trkpt lat="46.23895" lon="5.82674">
        <ele>1127.6</ele>
        <time>2021-08-19T15:06:52Z</time>
      </trkpt>
      <trkpt lat="46.23889" lon="5.82666">
        <ele>1128.1</ele>
        <time>2021-08-19T15:06:53Z</time>
      </trkpt>
      <trkpt lat="46.23882" lon="5.82657">
        <ele>1128.6</ele>
        <time>2021-08-19T15:06:55Z</time>
      </trkpt>
      <trkpt lat="46.23878" lon="5.82653">
        <ele>1128.8</ele>
        <time>2021-08-19T15:06:56Z</time>
      </trkpt>
      <trkpt lat="46.23875" lon="5.8265">
        <ele>1129.1</ele>
        <time>2021-08-19T15:06:57Z</time>
      </trkpt>
      <trkpt lat="46.2387" lon="5.82648">
        <ele>1129.3</ele>
        <time>2021-08-19T15:06:59Z</time>
      </trkpt>
      <trkpt lat="46.23869" lon="5.82651">
        <ele>1129.5</ele>
        <time>2021-08-19T15:07:00Z</time>
      </trkpt>
      <trkpt lat="46.23868" lon="5.82653">
        <ele>1129.5</ele>
        <time>2021-08-19T15:07:01Z</time>
      </trkpt>
      <trkpt lat="46.23868" lon="5.82654">
        <ele>1129.6</ele>
        <time>2021-08-19T15:07:02Z</time>
      </trkpt>
      <trkpt lat="46.23868" lon="5.82656">
        <ele>1129.7</ele>
        <time>2021-08-19T15:07:04Z</time>
      </trkpt>
      <trkpt lat="46.23867" lon="5.82659">
        <ele>1129.8</ele>
        <time>2021-08-19T15:07:05Z</time>
      </trkpt>
      <trkpt lat="46.23866" lon="5.82659">
        <ele>1129.9</ele>
        <time>2021-08-19T15:07:06Z</time>
      </trkpt>
      <trkpt lat="46.23865" lon="5.8266">
        <ele>1129.9</ele>
        <time>2021-08-19T15:07:08Z</time>
      </trkpt>
      <trkpt lat="46.23865" lon="5.8266">
        <ele>1129.9</ele>
        <time>2021-08-19T15:07:09Z</time>
      </trkpt>
      <trkpt lat="46.23864" lon="5.8266">
        <ele>1130</ele>
        <time>2021-08-19T15:07:10Z</time>
      </trkpt>
      <trkpt lat="46.23864" lon="5.8266">
        <ele>1130</ele>
        <time>2021-08-19T15:07:12Z</time>
      </trkpt>
      <trkpt lat="46.23849" lon="5.82656">
        <ele>1130.8</ele>
        <time>2021-08-19T15:07:21Z</time>
      </trkpt>
      <trkpt lat="46.23848" lon="5.82647">
        <ele>1131.2</ele>
        <time>2021-08-19T15:07:23Z</time>
      </trkpt>
      <trkpt lat="46.23846" lon="5.8264">
        <ele>1131.5</ele>
        <time>2021-08-19T15:07:24Z</time>
      </trkpt>
      <trkpt lat="46.23844" lon="5.82636">
        <ele>1131.7</ele>
        <time>2021-08-19T15:07:25Z</time>
      </trkpt>
      <trkpt lat="46.23842" lon="5.82632">
        <ele>1131.9</ele>
        <time>2021-08-19T15:07:26Z</time>
      </trkpt>
      <trkpt lat="46.23838" lon="5.82626">
        <ele>1132.3</ele>
        <time>2021-08-19T15:07:28Z</time>
      </trkpt>
      <trkpt lat="46.23836" lon="5.82622">
        <ele>1132.5</ele>
        <time>2021-08-19T15:07:29Z</time>
      </trkpt>
      <trkpt lat="46.23832" lon="5.82619">
        <ele>1132.7</ele>
        <time>2021-08-19T15:07:30Z</time>
      </trkpt>
      <trkpt lat="46.23829" lon="5.82616">
        <ele>1132.9</ele>
        <time>2021-08-19T15:07:31Z</time>
      </trkpt>
      <trkpt lat="46.23826" lon="5.82614">
        <ele>1133.2</ele>
        <time>2021-08-19T15:07:32Z</time>
      </trkpt>
      <trkpt lat="46.23822" lon="5.82611">
        <ele>1133.4</ele>
        <time>2021-08-19T15:07:33Z</time>
      </trkpt>
      <trkpt lat="46.23818" lon="5.82608">
        <ele>1133.6</ele>
        <time>2021-08-19T15:07:35Z</time>
      </trkpt>
      <trkpt lat="46.23815" lon="5.82606">
        <ele>1133.8</ele>
        <time>2021-08-19T15:07:36Z</time>
      </trkpt>
      <trkpt lat="46.23812" lon="5.82604">
        <ele>1134</ele>
        <time>2021-08-19T15:07:37Z</time>
      </trkpt>
      <trkpt lat="46.23809" lon="5.826">
        <ele>1134.2</ele>
        <time>2021-08-19T15:07:39Z</time>
      </trkpt>
      <trkpt lat="46.23807" lon="5.82596">
        <ele>1134.4</ele>
        <time>2021-08-19T15:07:40Z</time>
      </trkpt>
      <trkpt lat="46.23807" lon="5.82594">
        <ele>1134.5</ele>
        <time>2021-08-19T15:07:41Z</time>
      </trkpt>
      <trkpt lat="46.23809" lon="5.8259">
        <ele>1134.7</ele>
        <time>2021-08-19T15:07:43Z</time>
      </trkpt>
      <trkpt lat="46.2381" lon="5.82588">
        <ele>1134.8</ele>
        <time>2021-08-19T15:07:45Z</time>
      </trkpt>
      <trkpt lat="46.2381" lon="5.82587">
        <ele>1134.8</ele>
        <time>2021-08-19T15:07:46Z</time>
      </trkpt>
      <trkpt lat="46.2381" lon="5.82587">
        <ele>1134.8</ele>
        <time>2021-08-19T15:07:48Z</time>
      </trkpt>
      <trkpt lat="46.23809" lon="5.82586">
        <ele>1134.8</ele>
        <time>2021-08-19T15:07:49Z</time>
      </trkpt>
      <trkpt lat="46.23808" lon="5.82584">
        <ele>1134.9</ele>
        <time>2021-08-19T15:07:51Z</time>
      </trkpt>
      <trkpt lat="46.23758" lon="5.82525">
        <ele>1139.3</ele>
        <time>2021-08-19T15:08:43Z</time>
      </trkpt>
      <trkpt lat="46.23754" lon="5.82521">
        <ele>1139.6</ele>
        <time>2021-08-19T15:08:45Z</time>
      </trkpt>
      <trkpt lat="46.23753" lon="5.8252">
        <ele>1139.7</ele>
        <time>2021-08-19T15:08:46Z</time>
      </trkpt>
      <trkpt lat="46.23752" lon="5.82519">
        <ele>1139.9</ele>
        <time>2021-08-19T15:08:48Z</time>
      </trkpt>
      <trkpt lat="46.23751" lon="5.82518">
        <ele>1140</ele>
        <time>2021-08-19T15:08:50Z</time>
      </trkpt>
      <trkpt lat="46.2375" lon="5.82517">
        <ele>1140.1</ele>
        <time>2021-08-19T15:08:51Z</time>
      </trkpt>
      <trkpt lat="46.23749" lon="5.82516">
        <ele>1140.2</ele>
        <time>2021-08-19T15:08:52Z</time>
      </trkpt>
      <trkpt lat="46.23747" lon="5.82513">
        <ele>1140.4</ele>
        <time>2021-08-19T15:08:54Z</time>
      </trkpt>
      <trkpt lat="46.23745" lon="5.8251">
        <ele>1140.6</ele>
        <time>2021-08-19T15:08:56Z</time>
      </trkpt>
      <trkpt lat="46.23745" lon="5.82509">
        <ele>1140.7</ele>
        <time>2021-08-19T15:08:57Z</time>
      </trkpt>
      <trkpt lat="46.23744" lon="5.82507">
        <ele>1140.9</ele>
        <time>2021-08-19T15:08:59Z</time>
      </trkpt>
      <trkpt lat="46.23743" lon="5.82507">
        <ele>1141</ele>
        <time>2021-08-19T15:09:00Z</time>
      </trkpt>
      <trkpt lat="46.2374" lon="5.82506">
        <ele>1141.1</ele>
        <time>2021-08-19T15:09:02Z</time>
      </trkpt>
      <trkpt lat="46.23739" lon="5.82505">
        <ele>1141.2</ele>
        <time>2021-08-19T15:09:03Z</time>
      </trkpt>
      <trkpt lat="46.23738" lon="5.82505">
        <ele>1141.3</ele>
        <time>2021-08-19T15:09:04Z</time>
      </trkpt>
      <trkpt lat="46.23737" lon="5.82505">
        <ele>1141.4</ele>
        <time>2021-08-19T15:09:05Z</time>
      </trkpt>
      <trkpt lat="46.23736" lon="5.82504">
        <ele>1141.4</ele>
        <time>2021-08-19T15:09:06Z</time>
      </trkpt>
      <trkpt lat="46.23735" lon="5.82503">
        <ele>1141.5</ele>
        <time>2021-08-19T15:09:08Z</time>
      </trkpt>
      <trkpt lat="46.23734" lon="5.82503">
        <ele>1141.6</ele>
        <time>2021-08-19T15:09:09Z</time>
      </trkpt>
      <trkpt lat="46.23733" lon="5.82502">
        <ele>1141.7</ele>
        <time>2021-08-19T15:09:11Z</time>
      </trkpt>
      <trkpt lat="46.23733" lon="5.82502">
        <ele>1141.7</ele>
        <time>2021-08-19T15:09:13Z</time>
      </trkpt>
      <trkpt lat="46.23732" lon="5.82501">
        <ele>1141.8</ele>
        <time>2021-08-19T15:09:14Z</time>
      </trkpt>
      <trkpt lat="46.23732" lon="5.82499">
        <ele>1141.8</ele>
        <time>2021-08-19T15:09:15Z</time>
      </trkpt>
      <trkpt lat="46.23732" lon="5.82497">
        <ele>1141.9</ele>
        <time>2021-08-19T15:09:16Z</time>
      </trkpt>
      <trkpt lat="46.23731" lon="5.82495">
        <ele>1142.1</ele>
        <time>2021-08-19T15:09:18Z</time>
      </trkpt>
      <trkpt lat="46.2373" lon="5.82492">
        <ele>1142.2</ele>
        <time>2021-08-19T15:09:20Z</time>
      </trkpt>
      <trkpt lat="46.23729" lon="5.8249">
        <ele>1142.3</ele>
        <time>2021-08-19T15:09:21Z</time>
      </trkpt>
      <trkpt lat="46.23728" lon="5.82488">
        <ele>1142.4</ele>
        <time>2021-08-19T15:09:22Z</time>
      </trkpt>
      <trkpt lat="46.23727" lon="5.82484">
        <ele>1142.7</ele>
        <time>2021-08-19T15:09:24Z</time>
      </trkpt>
      <trkpt lat="46.23726" lon="5.82479">
        <ele>1142.9</ele>
        <time>2021-08-19T15:09:26Z</time>
      </trkpt>
      <trkpt lat="46.23726" lon="5.82477">
        <ele>1143</ele>
        <time>2021-08-19T15:09:27Z</time>
      </trkpt>
      <trkpt lat="46.23726" lon="5.82474">
        <ele>1143.2</ele>
        <time>2021-08-19T15:09:29Z</time>
      </trkpt>
      <trkpt lat="46.23724" lon="5.82468">
        <ele>1143.5</ele>
        <time>2021-08-19T15:09:31Z</time>
      </trkpt>
      <trkpt lat="46.23722" lon="5.82465">
        <ele>1143.7</ele>
        <time>2021-08-19T15:09:32Z</time>
      </trkpt>
      <trkpt lat="46.23721" lon="5.82464">
        <ele>1143.8</ele>
        <time>2021-08-19T15:09:33Z</time>
      </trkpt>
      <trkpt lat="46.2372" lon="5.82462">
        <ele>1143.9</ele>
        <time>2021-08-19T15:09:34Z</time>
      </trkpt>
      <trkpt lat="46.23719" lon="5.82461">
        <ele>1144.1</ele>
        <time>2021-08-19T15:09:35Z</time>
      </trkpt>
      <trkpt lat="46.23716" lon="5.82457">
        <ele>1144.4</ele>
        <time>2021-08-19T15:09:37Z</time>
      </trkpt>
      <trkpt lat="46.23715" lon="5.82455">
        <ele>1144.5</ele>
        <time>2021-08-19T15:09:38Z</time>
      </trkpt>
      <trkpt lat="46.23715" lon="5.82454">
        <ele>1144.6</ele>
        <time>2021-08-19T15:09:39Z</time>
      </trkpt>
      <trkpt lat="46.23711" lon="5.82451">
        <ele>1144.9</ele>
        <time>2021-08-19T15:09:41Z</time>
      </trkpt>
      <trkpt lat="46.23709" lon="5.8245">
        <ele>1145</ele>
        <time>2021-08-19T15:09:42Z</time>
      </trkpt>
      <trkpt lat="46.23708" lon="5.8245">
        <ele>1145.1</ele>
        <time>2021-08-19T15:09:43Z</time>
      </trkpt>
      <trkpt lat="46.23705" lon="5.8245">
        <ele>1145.3</ele>
        <time>2021-08-19T15:09:44Z</time>
      </trkpt>
      <trkpt lat="46.23704" lon="5.82448">
        <ele>1145.4</ele>
        <time>2021-08-19T15:09:46Z</time>
      </trkpt>
      <trkpt lat="46.23701" lon="5.82445">
        <ele>1145.7</ele>
        <time>2021-08-19T15:09:47Z</time>
      </trkpt>
      <trkpt lat="46.23699" lon="5.82442">
        <ele>1145.8</ele>
        <time>2021-08-19T15:09:48Z</time>
      </trkpt>
      <trkpt lat="46.23697" lon="5.82439">
        <ele>1146</ele>
        <time>2021-08-19T15:09:49Z</time>
      </trkpt>
      <trkpt lat="46.23696" lon="5.82436">
        <ele>1146.2</ele>
        <time>2021-08-19T15:09:51Z</time>
      </trkpt>
      <trkpt lat="46.23694" lon="5.82433">
        <ele>1146.4</ele>
        <time>2021-08-19T15:09:52Z</time>
      </trkpt>
      <trkpt lat="46.23692" lon="5.82431">
        <ele>1146.5</ele>
        <time>2021-08-19T15:09:53Z</time>
      </trkpt>
      <trkpt lat="46.2369" lon="5.82428">
        <ele>1146.7</ele>
        <time>2021-08-19T15:09:54Z</time>
      </trkpt>
      <trkpt lat="46.23688" lon="5.82425">
        <ele>1146.9</ele>
        <time>2021-08-19T15:09:56Z</time>
      </trkpt>
      <trkpt lat="46.23687" lon="5.82422">
        <ele>1147</ele>
        <time>2021-08-19T15:10:41Z</time>
      </trkpt>
      <trkpt lat="46.23685" lon="5.82419">
        <ele>1147.2</ele>
        <time>2021-08-19T15:10:42Z</time>
      </trkpt>
      <trkpt lat="46.23683" lon="5.82416">
        <ele>1147.3</ele>
        <time>2021-08-19T15:10:43Z</time>
      </trkpt>
      <trkpt lat="46.23681" lon="5.82412">
        <ele>1147.5</ele>
        <time>2021-08-19T15:10:45Z</time>
      </trkpt>
      <trkpt lat="46.23678" lon="5.82408">
        <ele>1147.7</ele>
        <time>2021-08-19T15:10:46Z</time>
      </trkpt>
      <trkpt lat="46.23678" lon="5.82407">
        <ele>1147.7</ele>
        <time>2021-08-19T15:10:47Z</time>
      </trkpt>
      <trkpt lat="46.23674" lon="5.82405">
        <ele>1148</ele>
        <time>2021-08-19T15:10:49Z</time>
      </trkpt>
      <trkpt lat="46.23672" lon="5.82404">
        <ele>1148</ele>
        <time>2021-08-19T15:10:50Z</time>
      </trkpt>
      <trkpt lat="46.23669" lon="5.82402">
        <ele>1148.2</ele>
        <time>2021-08-19T15:10:52Z</time>
      </trkpt>
      <trkpt lat="46.23667" lon="5.82399">
        <ele>1148.4</ele>
        <time>2021-08-19T15:10:53Z</time>
      </trkpt>
      <trkpt lat="46.23666" lon="5.82398">
        <ele>1148.4</ele>
        <time>2021-08-19T15:10:54Z</time>
      </trkpt>
      <trkpt lat="46.23664" lon="5.82396">
        <ele>1148.6</ele>
        <time>2021-08-19T15:10:55Z</time>
      </trkpt>
      <trkpt lat="46.23662" lon="5.82394">
        <ele>1148.6</ele>
        <time>2021-08-19T15:10:56Z</time>
      </trkpt>
      <trkpt lat="46.23661" lon="5.82394">
        <ele>1148.7</ele>
        <time>2021-08-19T15:10:57Z</time>
      </trkpt>
      <trkpt lat="46.23659" lon="5.82391">
        <ele>1148.8</ele>
        <time>2021-08-19T15:10:59Z</time>
      </trkpt>
      <trkpt lat="46.23659" lon="5.82385">
        <ele>1149</ele>
        <time>2021-08-19T15:11:00Z</time>
      </trkpt>
      <trkpt lat="46.23659" lon="5.82379">
        <ele>1149.3</ele>
        <time>2021-08-19T15:11:02Z</time>
      </trkpt>
      <trkpt lat="46.2366" lon="5.82373">
        <ele>1149.4</ele>
        <time>2021-08-19T15:11:04Z</time>
      </trkpt>
      <trkpt lat="46.2366" lon="5.82366">
        <ele>1149.7</ele>
        <time>2021-08-19T15:11:06Z</time>
      </trkpt>
      <trkpt lat="46.23661" lon="5.82361">
        <ele>1149.9</ele>
        <time>2021-08-19T15:11:07Z</time>
      </trkpt>
      <trkpt lat="46.23661" lon="5.82356">
        <ele>1150.1</ele>
        <time>2021-08-19T15:11:08Z</time>
      </trkpt>
      <trkpt lat="46.23662" lon="5.82351">
        <ele>1150.3</ele>
        <time>2021-08-19T15:11:09Z</time>
      </trkpt>
      <trkpt lat="46.23663" lon="5.8235">
        <ele>1150.4</ele>
        <time>2021-08-19T15:11:10Z</time>
      </trkpt>
      <trkpt lat="46.23664" lon="5.82346">
        <ele>1150.6</ele>
        <time>2021-08-19T15:11:12Z</time>
      </trkpt>
      <trkpt lat="46.23664" lon="5.82347">
        <ele>1150.6</ele>
        <time>2021-08-19T15:11:13Z</time>
      </trkpt>
      <trkpt lat="46.23665" lon="5.82348">
        <ele>1150.7</ele>
        <time>2021-08-19T15:11:14Z</time>
      </trkpt>
      <trkpt lat="46.23666" lon="5.82348">
        <ele>1150.7</ele>
        <time>2021-08-19T15:11:15Z</time>
      </trkpt>
      <trkpt lat="46.23666" lon="5.82348">
        <ele>1150.7</ele>
        <time>2021-08-19T15:11:16Z</time>
      </trkpt>
      <trkpt lat="46.23666" lon="5.82348">
        <ele>1150.7</ele>
        <time>2021-08-19T15:11:18Z</time>
      </trkpt>
      <trkpt lat="46.23665" lon="5.82347">
        <ele>1150.8</ele>
        <time>2021-08-19T15:11:19Z</time>
      </trkpt>
      <trkpt lat="46.23665" lon="5.82346">
        <ele>1150.8</ele>
        <time>2021-08-19T15:11:20Z</time>
      </trkpt>
      <trkpt lat="46.23664" lon="5.82323">
        <ele>1152</ele>
        <time>2021-08-19T15:11:29Z</time>
      </trkpt>
      <trkpt lat="46.23665" lon="5.82318">
        <ele>1152.2</ele>
        <time>2021-08-19T15:11:30Z</time>
      </trkpt>
      <trkpt lat="46.23665" lon="5.82314">
        <ele>1152.4</ele>
        <time>2021-08-19T15:11:32Z</time>
      </trkpt>
      <trkpt lat="46.23666" lon="5.82309">
        <ele>1152.7</ele>
        <time>2021-08-19T15:11:33Z</time>
      </trkpt>
      <trkpt lat="46.23666" lon="5.82306">
        <ele>1152.9</ele>
        <time>2021-08-19T15:11:34Z</time>
      </trkpt>
      <trkpt lat="46.23665" lon="5.82301">
        <ele>1153.1</ele>
        <time>2021-08-19T15:11:36Z</time>
      </trkpt>
      <trkpt lat="46.23665" lon="5.823">
        <ele>1153.2</ele>
        <time>2021-08-19T15:11:37Z</time>
      </trkpt>
      <trkpt lat="46.23664" lon="5.82297">
        <ele>1153.3</ele>
        <time>2021-08-19T15:11:38Z</time>
      </trkpt>
      <trkpt lat="46.23663" lon="5.82294">
        <ele>1153.5</ele>
        <time>2021-08-19T15:11:40Z</time>
      </trkpt>
      <trkpt lat="46.23664" lon="5.82288">
        <ele>1153.8</ele>
        <time>2021-08-19T15:11:42Z</time>
      </trkpt>
      <trkpt lat="46.23665" lon="5.82282">
        <ele>1154.1</ele>
        <time>2021-08-19T15:11:43Z</time>
      </trkpt>
      <trkpt lat="46.23665" lon="5.8228">
        <ele>1154.2</ele>
        <time>2021-08-19T15:11:44Z</time>
      </trkpt>
      <trkpt lat="46.23666" lon="5.82275">
        <ele>1154.5</ele>
        <time>2021-08-19T15:11:45Z</time>
      </trkpt>
      <trkpt lat="46.23666" lon="5.8227">
        <ele>1154.7</ele>
        <time>2021-08-19T15:11:46Z</time>
      </trkpt>
      <trkpt lat="46.23666" lon="5.82265">
        <ele>1154.9</ele>
        <time>2021-08-19T15:11:47Z</time>
      </trkpt>
      <trkpt lat="46.23667" lon="5.82261">
        <ele>1155.1</ele>
        <time>2021-08-19T15:11:48Z</time>
      </trkpt>
      <trkpt lat="46.23668" lon="5.82256">
        <ele>1155.4</ele>
        <time>2021-08-19T15:11:50Z</time>
      </trkpt>
      <trkpt lat="46.2367" lon="5.82251">
        <ele>1155.7</ele>
        <time>2021-08-19T15:11:51Z</time>
      </trkpt>
      <trkpt lat="46.23671" lon="5.82247">
        <ele>1155.9</ele>
        <time>2021-08-19T15:11:52Z</time>
      </trkpt>
      <trkpt lat="46.23671" lon="5.8224">
        <ele>1156.2</ele>
        <time>2021-08-19T15:11:54Z</time>
      </trkpt>
      <trkpt lat="46.23671" lon="5.82233">
        <ele>1156.4</ele>
        <time>2021-08-19T15:11:56Z</time>
      </trkpt>
      <trkpt lat="46.23672" lon="5.82228">
        <ele>1156.7</ele>
        <time>2021-08-19T15:11:57Z</time>
      </trkpt>
      <trkpt lat="46.23672" lon="5.82227">
        <ele>1156.7</ele>
        <time>2021-08-19T15:11:58Z</time>
      </trkpt>
      <trkpt lat="46.23673" lon="5.82221">
        <ele>1157</ele>
        <time>2021-08-19T15:12:00Z</time>
      </trkpt>
      <trkpt lat="46.23675" lon="5.82215">
        <ele>1157.2</ele>
        <time>2021-08-19T15:12:02Z</time>
      </trkpt>
      <trkpt lat="46.23676" lon="5.82212">
        <ele>1157.4</ele>
        <time>2021-08-19T15:12:03Z</time>
      </trkpt>
      <trkpt lat="46.23677" lon="5.82205">
        <ele>1157.6</ele>
        <time>2021-08-19T15:12:05Z</time>
      </trkpt>
      <trkpt lat="46.23677" lon="5.82202">
        <ele>1157.7</ele>
        <time>2021-08-19T15:12:06Z</time>
      </trkpt>
      <trkpt lat="46.23678" lon="5.82197">
        <ele>1157.9</ele>
        <time>2021-08-19T15:12:08Z</time>
      </trkpt>
      <trkpt lat="46.23681" lon="5.8219">
        <ele>1158.2</ele>
        <time>2021-08-19T15:12:10Z</time>
      </trkpt>
      <trkpt lat="46.23682" lon="5.82186">
        <ele>1158.4</ele>
        <time>2021-08-19T15:12:11Z</time>
      </trkpt>
      <trkpt lat="46.23684" lon="5.82182">
        <ele>1158.6</ele>
        <time>2021-08-19T15:12:12Z</time>
      </trkpt>
      <trkpt lat="46.23688" lon="5.82176">
        <ele>1158.8</ele>
        <time>2021-08-19T15:12:14Z</time>
      </trkpt>
      <trkpt lat="46.23689" lon="5.82171">
        <ele>1159</ele>
        <time>2021-08-19T15:12:15Z</time>
      </trkpt>
      <trkpt lat="46.2369" lon="5.8217">
        <ele>1159</ele>
        <time>2021-08-19T15:12:16Z</time>
      </trkpt>
      <trkpt lat="46.23692" lon="5.82163">
        <ele>1159.2</ele>
        <time>2021-08-19T15:12:18Z</time>
      </trkpt>
      <trkpt lat="46.23693" lon="5.82156">
        <ele>1159.4</ele>
        <time>2021-08-19T15:12:20Z</time>
      </trkpt>
      <trkpt lat="46.23694" lon="5.82147">
        <ele>1159.6</ele>
        <time>2021-08-19T15:12:22Z</time>
      </trkpt>
      <trkpt lat="46.23693" lon="5.8214">
        <ele>1159.8</ele>
        <time>2021-08-19T15:12:24Z</time>
      </trkpt>
      <trkpt lat="46.23689" lon="5.82136">
        <ele>1159.9</ele>
        <time>2021-08-19T15:12:26Z</time>
      </trkpt>
      <trkpt lat="46.23686" lon="5.82135">
        <ele>1160</ele>
        <time>2021-08-19T15:12:27Z</time>
      </trkpt>
      <trkpt lat="46.23683" lon="5.82132">
        <ele>1160.1</ele>
        <time>2021-08-19T15:12:28Z</time>
      </trkpt>
      <trkpt lat="46.23682" lon="5.82131">
        <ele>1160.2</ele>
        <time>2021-08-19T15:12:29Z</time>
      </trkpt>
      <trkpt lat="46.2368" lon="5.8213">
        <ele>1160.2</ele>
        <time>2021-08-19T15:12:30Z</time>
      </trkpt>
      <trkpt lat="46.23674" lon="5.82127">
        <ele>1160.4</ele>
        <time>2021-08-19T15:12:32Z</time>
      </trkpt>
      <trkpt lat="46.23671" lon="5.82125">
        <ele>1160.5</ele>
        <time>2021-08-19T15:12:33Z</time>
      </trkpt>
      <trkpt lat="46.23664" lon="5.82121">
        <ele>1160.7</ele>
        <time>2021-08-19T15:12:35Z</time>
      </trkpt>
      <trkpt lat="46.23661" lon="5.82119">
        <ele>1160.8</ele>
        <time>2021-08-19T15:12:36Z</time>
      </trkpt>
      <trkpt lat="46.23658" lon="5.82116">
        <ele>1160.9</ele>
        <time>2021-08-19T15:12:37Z</time>
      </trkpt>
      <trkpt lat="46.23655" lon="5.82114">
        <ele>1160.9</ele>
        <time>2021-08-19T15:12:38Z</time>
      </trkpt>
      <trkpt lat="46.23652" lon="5.82109">
        <ele>1161</ele>
        <time>2021-08-19T15:12:39Z</time>
      </trkpt>
      <trkpt lat="46.23649" lon="5.82106">
        <ele>1161.1</ele>
        <time>2021-08-19T15:12:40Z</time>
      </trkpt>
      <trkpt lat="46.23645" lon="5.821">
        <ele>1161.1</ele>
        <time>2021-08-19T15:12:42Z</time>
      </trkpt>
      <trkpt lat="46.23641" lon="5.82096">
        <ele>1161.2</ele>
        <time>2021-08-19T15:12:43Z</time>
      </trkpt>
      <trkpt lat="46.23639" lon="5.82091">
        <ele>1161.3</ele>
        <time>2021-08-19T15:12:44Z</time>
      </trkpt>
      <trkpt lat="46.23635" lon="5.82083">
        <ele>1161.4</ele>
        <time>2021-08-19T15:12:46Z</time>
      </trkpt>
      <trkpt lat="46.23634" lon="5.82076">
        <ele>1161.4</ele>
        <time>2021-08-19T15:12:48Z</time>
      </trkpt>
      <trkpt lat="46.23635" lon="5.82072">
        <ele>1161.5</ele>
        <time>2021-08-19T15:12:49Z</time>
      </trkpt>
      <trkpt lat="46.23635" lon="5.82067">
        <ele>1161.5</ele>
        <time>2021-08-19T15:12:50Z</time>
      </trkpt>
      <trkpt lat="46.23636" lon="5.82058">
        <ele>1161.6</ele>
        <time>2021-08-19T15:12:52Z</time>
      </trkpt>
      <trkpt lat="46.23635" lon="5.8205">
        <ele>1161.7</ele>
        <time>2021-08-19T15:12:54Z</time>
      </trkpt>
      <trkpt lat="46.23635" lon="5.82043">
        <ele>1161.8</ele>
        <time>2021-08-19T15:12:56Z</time>
      </trkpt>
      <trkpt lat="46.23634" lon="5.82039">
        <ele>1161.8</ele>
        <time>2021-08-19T15:12:57Z</time>
      </trkpt>
      <trkpt lat="46.23633" lon="5.8203">
        <ele>1162</ele>
        <time>2021-08-19T15:12:59Z</time>
      </trkpt>
      <trkpt lat="46.23633" lon="5.82025">
        <ele>1162</ele>
        <time>2021-08-19T15:13:00Z</time>
      </trkpt>
      <trkpt lat="46.23633" lon="5.82018">
        <ele>1162.2</ele>
        <time>2021-08-19T15:13:02Z</time>
      </trkpt>
      <trkpt lat="46.23633" lon="5.82014">
        <ele>1162.3</ele>
        <time>2021-08-19T15:13:03Z</time>
      </trkpt>
      <trkpt lat="46.23633" lon="5.8201">
        <ele>1162.4</ele>
        <time>2021-08-19T15:13:04Z</time>
      </trkpt>
      <trkpt lat="46.23633" lon="5.82004">
        <ele>1162.5</ele>
        <time>2021-08-19T15:13:06Z</time>
      </trkpt>
      <trkpt lat="46.23635" lon="5.81997">
        <ele>1162.7</ele>
        <time>2021-08-19T15:13:08Z</time>
      </trkpt>
      <trkpt lat="46.23637" lon="5.81992">
        <ele>1162.9</ele>
        <time>2021-08-19T15:13:09Z</time>
      </trkpt>
      <trkpt lat="46.2364" lon="5.81986">
        <ele>1163.1</ele>
        <time>2021-08-19T15:13:11Z</time>
      </trkpt>
      <trkpt lat="46.23641" lon="5.81982">
        <ele>1163.2</ele>
        <time>2021-08-19T15:13:12Z</time>
      </trkpt>
      <trkpt lat="46.2364" lon="5.81974">
        <ele>1163.3</ele>
        <time>2021-08-19T15:13:14Z</time>
      </trkpt>
      <trkpt lat="46.23639" lon="5.81971">
        <ele>1163.4</ele>
        <time>2021-08-19T15:13:15Z</time>
      </trkpt>
      <trkpt lat="46.23639" lon="5.81966">
        <ele>1163.5</ele>
        <time>2021-08-19T15:13:17Z</time>
      </trkpt>
      <trkpt lat="46.23641" lon="5.81961">
        <ele>1163.6</ele>
        <time>2021-08-19T15:13:18Z</time>
      </trkpt>
      <trkpt lat="46.23641" lon="5.81957">
        <ele>1163.7</ele>
        <time>2021-08-19T15:13:19Z</time>
      </trkpt>
      <trkpt lat="46.23642" lon="5.81955">
        <ele>1163.8</ele>
        <time>2021-08-19T15:13:20Z</time>
      </trkpt>
      <trkpt lat="46.23643" lon="5.81949">
        <ele>1163.9</ele>
        <time>2021-08-19T15:13:21Z</time>
      </trkpt>
      <trkpt lat="46.23643" lon="5.81945">
        <ele>1164</ele>
        <time>2021-08-19T15:13:22Z</time>
      </trkpt>
      <trkpt lat="46.23645" lon="5.8194">
        <ele>1164.2</ele>
        <time>2021-08-19T15:13:24Z</time>
      </trkpt>
      <trkpt lat="46.23647" lon="5.81929">
        <ele>1164.5</ele>
        <time>2021-08-19T15:13:26Z</time>
      </trkpt>
      <trkpt lat="46.23649" lon="5.81921">
        <ele>1164.7</ele>
        <time>2021-08-19T15:13:28Z</time>
      </trkpt>
      <trkpt lat="46.2365" lon="5.81914">
        <ele>1164.9</ele>
        <time>2021-08-19T15:13:30Z</time>
      </trkpt>
      <trkpt lat="46.23651" lon="5.81909">
        <ele>1165</ele>
        <time>2021-08-19T15:13:31Z</time>
      </trkpt>
      <trkpt lat="46.23651" lon="5.81903">
        <ele>1165.2</ele>
        <time>2021-08-19T15:13:32Z</time>
      </trkpt>
      <trkpt lat="46.23651" lon="5.81898">
        <ele>1165.3</ele>
        <time>2021-08-19T15:13:34Z</time>
      </trkpt>
      <trkpt lat="46.23651" lon="5.81891">
        <ele>1165.5</ele>
        <time>2021-08-19T15:13:35Z</time>
      </trkpt>
      <trkpt lat="46.2365" lon="5.81883">
        <ele>1165.7</ele>
        <time>2021-08-19T15:13:37Z</time>
      </trkpt>
      <trkpt lat="46.23647" lon="5.81876">
        <ele>1165.8</ele>
        <time>2021-08-19T15:13:39Z</time>
      </trkpt>
      <trkpt lat="46.23646" lon="5.81873">
        <ele>1165.9</ele>
        <time>2021-08-19T15:13:40Z</time>
      </trkpt>
      <trkpt lat="46.23643" lon="5.81866">
        <ele>1166</ele>
        <time>2021-08-19T15:13:42Z</time>
      </trkpt>
      <trkpt lat="46.2364" lon="5.81862">
        <ele>1166.2</ele>
        <time>2021-08-19T15:13:44Z</time>
      </trkpt>
      <trkpt lat="46.23638" lon="5.81861">
        <ele>1166.2</ele>
        <time>2021-08-19T15:13:45Z</time>
      </trkpt>
      <trkpt lat="46.23635" lon="5.81861">
        <ele>1166.3</ele>
        <time>2021-08-19T15:13:47Z</time>
      </trkpt>
      <trkpt lat="46.23634" lon="5.81861">
        <ele>1166.3</ele>
        <time>2021-08-19T15:13:48Z</time>
      </trkpt>
      <trkpt lat="46.23634" lon="5.81861">
        <ele>1166.3</ele>
        <time>2021-08-19T15:13:49Z</time>
      </trkpt>
      <trkpt lat="46.23633" lon="5.81862">
        <ele>1166.3</ele>
        <time>2021-08-19T15:13:50Z</time>
      </trkpt>
      <trkpt lat="46.23633" lon="5.81862">
        <ele>1166.3</ele>
        <time>2021-08-19T15:13:51Z</time>
      </trkpt>
      <trkpt lat="46.23633" lon="5.81862">
        <ele>1166.3</ele>
        <time>2021-08-19T15:13:52Z</time>
      </trkpt>
      <trkpt lat="46.23632" lon="5.8186">
        <ele>1166.4</ele>
        <time>2021-08-19T15:13:53Z</time>
      </trkpt>
      <trkpt lat="46.23622" lon="5.81837">
        <ele>1166.6</ele>
        <time>2021-08-19T15:13:54Z</time>
      </trkpt>
      <trkpt lat="46.23613" lon="5.81815">
        <ele>1166.7</ele>
        <time>2021-08-19T15:13:56Z</time>
      </trkpt>
      <trkpt lat="46.23613" lon="5.81815">
        <ele>1166.6</ele>
        <time>2021-08-19T15:13:56Z</time>
      </trkpt>
      <trkpt lat="46.23606" lon="5.81797">
        <ele>1165.5</ele>
        <time>2021-08-19T15:13:57Z</time>
      </trkpt>
      <trkpt lat="46.23598" lon="5.81769">
        <ele>1164.7</ele>
        <time>2021-08-19T15:13:59Z</time>
      </trkpt>
      <trkpt lat="46.23595" lon="5.81757">
        <ele>1164.2</ele>
        <time>2021-08-19T15:14:00Z</time>
      </trkpt>
      <trkpt lat="46.23587" lon="5.81729">
        <ele>1163.1</ele>
        <time>2021-08-19T15:14:02Z</time>
      </trkpt>
      <trkpt lat="46.23583" lon="5.81714">
        <ele>1162.6</ele>
        <time>2021-08-19T15:14:03Z</time>
      </trkpt>
      <trkpt lat="46.23574" lon="5.81692">
        <ele>1161.8</ele>
        <time>2021-08-19T15:14:05Z</time>
      </trkpt>
      <trkpt lat="46.2357" lon="5.81684">
        <ele>1161.4</ele>
        <time>2021-08-19T15:14:06Z</time>
      </trkpt>
      <trkpt lat="46.23558" lon="5.81672">
        <ele>1160.6</ele>
        <time>2021-08-19T15:14:08Z</time>
      </trkpt>
      <trkpt lat="46.23544" lon="5.81662">
        <ele>1159.8</ele>
        <time>2021-08-19T15:14:10Z</time>
      </trkpt>
      <trkpt lat="46.23531" lon="5.8165">
        <ele>1159</ele>
        <time>2021-08-19T15:14:12Z</time>
      </trkpt>
      <trkpt lat="46.23526" lon="5.81645">
        <ele>1158.6</ele>
        <time>2021-08-19T15:14:13Z</time>
      </trkpt>
      <trkpt lat="46.2352" lon="5.81639">
        <ele>1158.3</ele>
        <time>2021-08-19T15:14:14Z</time>
      </trkpt>
      <trkpt lat="46.23507" lon="5.81627">
        <ele>1157.5</ele>
        <time>2021-08-19T15:14:16Z</time>
      </trkpt>
      <trkpt lat="46.23496" lon="5.81613">
        <ele>1156.8</ele>
        <time>2021-08-19T15:14:18Z</time>
      </trkpt>
      <trkpt lat="46.23488" lon="5.81596">
        <ele>1156.1</ele>
        <time>2021-08-19T15:14:20Z</time>
      </trkpt>
      <trkpt lat="46.23479" lon="5.81578">
        <ele>1155.5</ele>
        <time>2021-08-19T15:14:22Z</time>
      </trkpt>
      <trkpt lat="46.23474" lon="5.81569">
        <ele>1155.2</ele>
        <time>2021-08-19T15:14:23Z</time>
      </trkpt>
      <trkpt lat="46.23468" lon="5.81561">
        <ele>1154.9</ele>
        <time>2021-08-19T15:14:24Z</time>
      </trkpt>
      <trkpt lat="46.23458" lon="5.81542">
        <ele>1154.5</ele>
        <time>2021-08-19T15:14:26Z</time>
      </trkpt>
      <trkpt lat="46.23453" lon="5.81533">
        <ele>1154.5</ele>
        <time>2021-08-19T15:14:27Z</time>
      </trkpt>
      <trkpt lat="46.23447" lon="5.81514">
        <ele>1154.5</ele>
        <time>2021-08-19T15:14:29Z</time>
      </trkpt>
      <trkpt lat="46.23445" lon="5.81505">
        <ele>1154.6</ele>
        <time>2021-08-19T15:14:30Z</time>
      </trkpt>
      <trkpt lat="46.23442" lon="5.81485">
        <ele>1155</ele>
        <time>2021-08-19T15:14:32Z</time>
      </trkpt>
      <trkpt lat="46.23439" lon="5.81465">
        <ele>1155.6</ele>
        <time>2021-08-19T15:14:34Z</time>
      </trkpt>
      <trkpt lat="46.23438" lon="5.81454">
        <ele>1155.9</ele>
        <time>2021-08-19T15:14:35Z</time>
      </trkpt>
      <trkpt lat="46.23439" lon="5.81444">
        <ele>1156.1</ele>
        <time>2021-08-19T15:14:36Z</time>
      </trkpt>
      <trkpt lat="46.23442" lon="5.81424">
        <ele>1156.6</ele>
        <time>2021-08-19T15:14:38Z</time>
      </trkpt>
      <trkpt lat="46.23444" lon="5.81414">
        <ele>1156.8</ele>
        <time>2021-08-19T15:14:39Z</time>
      </trkpt>
      <trkpt lat="46.23445" lon="5.81395">
        <ele>1157.3</ele>
        <time>2021-08-19T15:14:41Z</time>
      </trkpt>
      <trkpt lat="46.23446" lon="5.81386">
        <ele>1157.5</ele>
        <time>2021-08-19T15:14:42Z</time>
      </trkpt>
      <trkpt lat="46.23448" lon="5.81374">
        <ele>1157.9</ele>
        <time>2021-08-19T15:14:44Z</time>
      </trkpt>
      <trkpt lat="46.23446" lon="5.81364">
        <ele>1158.2</ele>
        <time>2021-08-19T15:14:46Z</time>
      </trkpt>
      <trkpt lat="46.23441" lon="5.81361">
        <ele>1158.4</ele>
        <time>2021-08-19T15:14:48Z</time>
      </trkpt>
      <trkpt lat="46.23439" lon="5.81361">
        <ele>1158.5</ele>
        <time>2021-08-19T15:14:49Z</time>
      </trkpt>
      <trkpt lat="46.23436" lon="5.81355">
        <ele>1158.7</ele>
        <time>2021-08-19T15:14:51Z</time>
      </trkpt>
      <trkpt lat="46.23433" lon="5.81346">
        <ele>1158.9</ele>
        <time>2021-08-19T15:14:53Z</time>
      </trkpt>
      <trkpt lat="46.23432" lon="5.81342">
        <ele>1159</ele>
        <time>2021-08-19T15:14:54Z</time>
      </trkpt>
      <trkpt lat="46.23426" lon="5.81332">
        <ele>1159.3</ele>
        <time>2021-08-19T15:14:56Z</time>
      </trkpt>
      <trkpt lat="46.23417" lon="5.81328">
        <ele>1159.7</ele>
        <time>2021-08-19T15:14:58Z</time>
      </trkpt>
      <trkpt lat="46.23412" lon="5.81328">
        <ele>1159.9</ele>
        <time>2021-08-19T15:14:59Z</time>
      </trkpt>
      <trkpt lat="46.23408" lon="5.81328">
        <ele>1160</ele>
        <time>2021-08-19T15:15:00Z</time>
      </trkpt>
      <trkpt lat="46.23401" lon="5.81326">
        <ele>1160.2</ele>
        <time>2021-08-19T15:15:02Z</time>
      </trkpt>
      <trkpt lat="46.23398" lon="5.81325">
        <ele>1160.2</ele>
        <time>2021-08-19T15:15:03Z</time>
      </trkpt>
      <trkpt lat="46.23395" lon="5.81316">
        <ele>1160.4</ele>
        <time>2021-08-19T15:15:05Z</time>
      </trkpt>
      <trkpt lat="46.23397" lon="5.81308">
        <ele>1160.5</ele>
        <time>2021-08-19T15:15:06Z</time>
      </trkpt>
      <trkpt lat="46.23397" lon="5.81298">
        <ele>1160.6</ele>
        <time>2021-08-19T15:15:08Z</time>
      </trkpt>
      <trkpt lat="46.23396" lon="5.81295">
        <ele>1160.7</ele>
        <time>2021-08-19T15:15:09Z</time>
      </trkpt>
      <trkpt lat="46.23395" lon="5.81291">
        <ele>1160.7</ele>
        <time>2021-08-19T15:15:10Z</time>
      </trkpt>
      <trkpt lat="46.23394" lon="5.81287">
        <ele>1160.8</ele>
        <time>2021-08-19T15:15:12Z</time>
      </trkpt>
      <trkpt lat="46.23393" lon="5.81285">
        <ele>1160.8</ele>
        <time>2021-08-19T15:15:13Z</time>
      </trkpt>
      <trkpt lat="46.2339" lon="5.81279">
        <ele>1160.9</ele>
        <time>2021-08-19T15:15:14Z</time>
      </trkpt>
      <trkpt lat="46.23387" lon="5.81275">
        <ele>1161</ele>
        <time>2021-08-19T15:15:15Z</time>
      </trkpt>
      <trkpt lat="46.23384" lon="5.81269">
        <ele>1161.1</ele>
        <time>2021-08-19T15:15:16Z</time>
      </trkpt>
      <trkpt lat="46.23379" lon="5.81265">
        <ele>1161.2</ele>
        <time>2021-08-19T15:15:18Z</time>
      </trkpt>
      <trkpt lat="46.23376" lon="5.81262">
        <ele>1161.3</ele>
        <time>2021-08-19T15:15:19Z</time>
      </trkpt>
      <trkpt lat="46.23373" lon="5.81259">
        <ele>1161.4</ele>
        <time>2021-08-19T15:15:20Z</time>
      </trkpt>
      <trkpt lat="46.2337" lon="5.81258">
        <ele>1161.5</ele>
        <time>2021-08-19T15:15:21Z</time>
      </trkpt>
      <trkpt lat="46.23367" lon="5.81256">
        <ele>1161.6</ele>
        <time>2021-08-19T15:15:22Z</time>
      </trkpt>
      <trkpt lat="46.23364" lon="5.81254">
        <ele>1161.7</ele>
        <time>2021-08-19T15:15:23Z</time>
      </trkpt>
      <trkpt lat="46.23362" lon="5.81252">
        <ele>1161.8</ele>
        <time>2021-08-19T15:15:24Z</time>
      </trkpt>
      <trkpt lat="46.23361" lon="5.81251">
        <ele>1161.8</ele>
        <time>2021-08-19T15:15:25Z</time>
      </trkpt>
      <trkpt lat="46.23355" lon="5.8125">
        <ele>1161.9</ele>
        <time>2021-08-19T15:15:27Z</time>
      </trkpt>
      <trkpt lat="46.23352" lon="5.81249">
        <ele>1162</ele>
        <time>2021-08-19T15:15:28Z</time>
      </trkpt>
      <trkpt lat="46.23348" lon="5.81249">
        <ele>1162.1</ele>
        <time>2021-08-19T15:15:29Z</time>
      </trkpt>
      <trkpt lat="46.23345" lon="5.81248">
        <ele>1162.2</ele>
        <time>2021-08-19T15:15:30Z</time>
      </trkpt>
      <trkpt lat="46.23341" lon="5.81248">
        <ele>1162.4</ele>
        <time>2021-08-19T15:15:31Z</time>
      </trkpt>
      <trkpt lat="46.23336" lon="5.8125">
        <ele>1162.5</ele>
        <time>2021-08-19T15:15:33Z</time>
      </trkpt>
      <trkpt lat="46.23333" lon="5.81251">
        <ele>1162.6</ele>
        <time>2021-08-19T15:15:34Z</time>
      </trkpt>
      <trkpt lat="46.2333" lon="5.8125">
        <ele>1162.6</ele>
        <time>2021-08-19T15:15:35Z</time>
      </trkpt>
      <trkpt lat="46.23328" lon="5.81251">
        <ele>1162.7</ele>
        <time>2021-08-19T15:15:36Z</time>
      </trkpt>
      <trkpt lat="46.23326" lon="5.8125">
        <ele>1162.7</ele>
        <time>2021-08-19T15:15:37Z</time>
      </trkpt>
      <trkpt lat="46.23325" lon="5.8125">
        <ele>1162.7</ele>
        <time>2021-08-19T15:15:38Z</time>
      </trkpt>
      <trkpt lat="46.23325" lon="5.81249">
        <ele>1162.8</ele>
        <time>2021-08-19T15:15:39Z</time>
      </trkpt>
      <trkpt lat="46.23325" lon="5.81248">
        <ele>1162.8</ele>
        <time>2021-08-19T15:15:41Z</time>
      </trkpt>
      <trkpt lat="46.23325" lon="5.81248">
        <ele>1162.8</ele>
        <time>2021-08-19T15:15:43Z</time>
      </trkpt>
      <trkpt lat="46.23325" lon="5.81248">
        <ele>1162.8</ele>
        <time>2021-08-19T15:15:44Z</time>
      </trkpt>
      <trkpt lat="46.23325" lon="5.81245">
        <ele>1162.8</ele>
        <time>2021-08-19T15:15:46Z</time>
      </trkpt>
      <trkpt lat="46.23325" lon="5.81243">
        <ele>1162.9</ele>
        <time>2021-08-19T15:15:47Z</time>
      </trkpt>
      <trkpt lat="46.23324" lon="5.81241">
        <ele>1162.9</ele>
        <time>2021-08-19T15:15:49Z</time>
      </trkpt>
      <trkpt lat="46.23326" lon="5.81207">
        <ele>1163.4</ele>
        <time>2021-08-19T15:15:52Z</time>
      </trkpt>
      <trkpt lat="46.23328" lon="5.81194">
        <ele>1163.6</ele>
        <time>2021-08-19T15:15:54Z</time>
      </trkpt>
      <trkpt lat="46.23329" lon="5.8118">
        <ele>1163.7</ele>
        <time>2021-08-19T15:15:56Z</time>
      </trkpt>
      <trkpt lat="46.23328" lon="5.81172">
        <ele>1163.8</ele>
        <time>2021-08-19T15:15:57Z</time>
      </trkpt>
      <trkpt lat="46.23326" lon="5.81159">
        <ele>1164</ele>
        <time>2021-08-19T15:15:59Z</time>
      </trkpt>
      <trkpt lat="46.23325" lon="5.81154">
        <ele>1164</ele>
        <time>2021-08-19T15:16:00Z</time>
      </trkpt>
      <trkpt lat="46.23324" lon="5.81146">
        <ele>1164.2</ele>
        <time>2021-08-19T15:16:02Z</time>
      </trkpt>
      <trkpt lat="46.23324" lon="5.81141">
        <ele>1164.2</ele>
        <time>2021-08-19T15:16:04Z</time>
      </trkpt>
      <trkpt lat="46.23324" lon="5.81136">
        <ele>1164.3</ele>
        <time>2021-08-19T15:16:05Z</time>
      </trkpt>
      <trkpt lat="46.23324" lon="5.81135">
        <ele>1164.3</ele>
        <time>2021-08-19T15:16:06Z</time>
      </trkpt>
      <trkpt lat="46.23322" lon="5.8113">
        <ele>1164.4</ele>
        <time>2021-08-19T15:16:07Z</time>
      </trkpt>
      <trkpt lat="46.23321" lon="5.81125">
        <ele>1164.5</ele>
        <time>2021-08-19T15:16:09Z</time>
      </trkpt>
      <trkpt lat="46.23321" lon="5.81122">
        <ele>1164.6</ele>
        <time>2021-08-19T15:16:10Z</time>
      </trkpt>
      <trkpt lat="46.23321" lon="5.8112">
        <ele>1164.6</ele>
        <time>2021-08-19T15:16:11Z</time>
      </trkpt>
      <trkpt lat="46.23321" lon="5.81118">
        <ele>1164.7</ele>
        <time>2021-08-19T15:16:12Z</time>
      </trkpt>
      <trkpt lat="46.23319" lon="5.81114">
        <ele>1164.8</ele>
        <time>2021-08-19T15:16:14Z</time>
      </trkpt>
      <trkpt lat="46.23316" lon="5.81109">
        <ele>1164.9</ele>
        <time>2021-08-19T15:16:15Z</time>
      </trkpt>
      <trkpt lat="46.23314" lon="5.81105">
        <ele>1165</ele>
        <time>2021-08-19T15:16:16Z</time>
      </trkpt>
      <trkpt lat="46.23311" lon="5.81099">
        <ele>1165.2</ele>
        <time>2021-08-19T15:16:18Z</time>
      </trkpt>
      <trkpt lat="46.2331" lon="5.81095">
        <ele>1165.3</ele>
        <time>2021-08-19T15:16:19Z</time>
      </trkpt>
      <trkpt lat="46.23308" lon="5.8109">
        <ele>1165.4</ele>
        <time>2021-08-19T15:16:20Z</time>
      </trkpt>
      <trkpt lat="46.23306" lon="5.81085">
        <ele>1165.5</ele>
        <time>2021-08-19T15:16:21Z</time>
      </trkpt>
      <trkpt lat="46.23304" lon="5.81082">
        <ele>1165.6</ele>
        <time>2021-08-19T15:16:22Z</time>
      </trkpt>
      <trkpt lat="46.23303" lon="5.81078">
        <ele>1165.7</ele>
        <time>2021-08-19T15:16:23Z</time>
      </trkpt>
      <trkpt lat="46.23301" lon="5.81072">
        <ele>1165.8</ele>
        <time>2021-08-19T15:16:24Z</time>
      </trkpt>
      <trkpt lat="46.23297" lon="5.81065">
        <ele>1165.9</ele>
        <time>2021-08-19T15:16:26Z</time>
      </trkpt>
      <trkpt lat="46.23295" lon="5.8106">
        <ele>1166</ele>
        <time>2021-08-19T15:16:27Z</time>
      </trkpt>
      <trkpt lat="46.23293" lon="5.81056">
        <ele>1166.1</ele>
        <time>2021-08-19T15:16:28Z</time>
      </trkpt>
      <trkpt lat="46.23291" lon="5.8105">
        <ele>1166.2</ele>
        <time>2021-08-19T15:16:30Z</time>
      </trkpt>
      <trkpt lat="46.23289" lon="5.81042">
        <ele>1166.3</ele>
        <time>2021-08-19T15:16:31Z</time>
      </trkpt>
      <trkpt lat="46.23287" lon="5.81037">
        <ele>1166.3</ele>
        <time>2021-08-19T15:16:32Z</time>
      </trkpt>
      <trkpt lat="46.23284" lon="5.8103">
        <ele>1166.5</ele>
        <time>2021-08-19T15:16:34Z</time>
      </trkpt>
      <trkpt lat="46.23282" lon="5.81025">
        <ele>1166.6</ele>
        <time>2021-08-19T15:16:35Z</time>
      </trkpt>
      <trkpt lat="46.23281" lon="5.81022">
        <ele>1166.6</ele>
        <time>2021-08-19T15:16:36Z</time>
      </trkpt>
      <trkpt lat="46.23281" lon="5.8102">
        <ele>1166.7</ele>
        <time>2021-08-19T15:16:38Z</time>
      </trkpt>
      <trkpt lat="46.23282" lon="5.81016">
        <ele>1166.8</ele>
        <time>2021-08-19T15:16:39Z</time>
      </trkpt>
      <trkpt lat="46.23282" lon="5.81011">
        <ele>1166.9</ele>
        <time>2021-08-19T15:16:41Z</time>
      </trkpt>
      <trkpt lat="46.23282" lon="5.81009">
        <ele>1166.9</ele>
        <time>2021-08-19T15:16:42Z</time>
      </trkpt>
      <trkpt lat="46.23283" lon="5.81005">
        <ele>1167</ele>
        <time>2021-08-19T15:16:43Z</time>
      </trkpt>
      <trkpt lat="46.23284" lon="5.81003">
        <ele>1167.1</ele>
        <time>2021-08-19T15:16:44Z</time>
      </trkpt>
      <trkpt lat="46.23286" lon="5.80999">
        <ele>1167.2</ele>
        <time>2021-08-19T15:16:45Z</time>
      </trkpt>
      <trkpt lat="46.23287" lon="5.80998">
        <ele>1167.3</ele>
        <time>2021-08-19T15:16:46Z</time>
      </trkpt>
      <trkpt lat="46.23292" lon="5.80996">
        <ele>1167.5</ele>
        <time>2021-08-19T15:16:48Z</time>
      </trkpt>
      <trkpt lat="46.23296" lon="5.80995">
        <ele>1167.6</ele>
        <time>2021-08-19T15:16:50Z</time>
      </trkpt>
      <trkpt lat="46.23298" lon="5.80993">
        <ele>1167.7</ele>
        <time>2021-08-19T15:16:51Z</time>
      </trkpt>
      <trkpt lat="46.23299" lon="5.80993">
        <ele>1167.7</ele>
        <time>2021-08-19T15:16:52Z</time>
      </trkpt>
      <trkpt lat="46.23299" lon="5.80993">
        <ele>1167.7</ele>
        <time>2021-08-19T15:16:53Z</time>
      </trkpt>
      <trkpt lat="46.23301" lon="5.80992">
        <ele>1167.8</ele>
        <time>2021-08-19T15:16:54Z</time>
      </trkpt>
      <trkpt lat="46.23305" lon="5.80989">
        <ele>1167.9</ele>
        <time>2021-08-19T15:16:56Z</time>
      </trkpt>
      <trkpt lat="46.23309" lon="5.80986">
        <ele>1168.1</ele>
        <time>2021-08-19T15:16:58Z</time>
      </trkpt>
      <trkpt lat="46.23314" lon="5.80982">
        <ele>1168.2</ele>
        <time>2021-08-19T15:17:00Z</time>
      </trkpt>
      <trkpt lat="46.23313" lon="5.80978">
        <ele>1168.3</ele>
        <time>2021-08-19T15:17:01Z</time>
      </trkpt>
      <trkpt lat="46.23312" lon="5.80976">
        <ele>1168.3</ele>
        <time>2021-08-19T15:17:02Z</time>
      </trkpt>
      <trkpt lat="46.2331" lon="5.80975">
        <ele>1168.4</ele>
        <time>2021-08-19T15:17:03Z</time>
      </trkpt>
      <trkpt lat="46.23308" lon="5.80972">
        <ele>1168.4</ele>
        <time>2021-08-19T15:17:05Z</time>
      </trkpt>
      <trkpt lat="46.23308" lon="5.80968">
        <ele>1168.5</ele>
        <time>2021-08-19T15:17:06Z</time>
      </trkpt>
      <trkpt lat="46.23308" lon="5.80964">
        <ele>1168.6</ele>
        <time>2021-08-19T15:17:08Z</time>
      </trkpt>
      <trkpt lat="46.23308" lon="5.80963">
        <ele>1168.6</ele>
        <time>2021-08-19T15:17:09Z</time>
      </trkpt>
      <trkpt lat="46.23307" lon="5.80961">
        <ele>1168.7</ele>
        <time>2021-08-19T15:17:10Z</time>
      </trkpt>
      <trkpt lat="46.23307" lon="5.80959">
        <ele>1168.7</ele>
        <time>2021-08-19T15:17:12Z</time>
      </trkpt>
      <trkpt lat="46.23307" lon="5.80957">
        <ele>1168.8</ele>
        <time>2021-08-19T15:17:13Z</time>
      </trkpt>
      <trkpt lat="46.23307" lon="5.80956">
        <ele>1168.8</ele>
        <time>2021-08-19T15:17:15Z</time>
      </trkpt>
      <trkpt lat="46.23307" lon="5.80954">
        <ele>1168.9</ele>
        <time>2021-08-19T15:17:17Z</time>
      </trkpt>
      <trkpt lat="46.23307" lon="5.80953">
        <ele>1168.9</ele>
        <time>2021-08-19T15:17:18Z</time>
      </trkpt>
      <trkpt lat="46.23307" lon="5.80953">
        <ele>1168.9</ele>
        <time>2021-08-19T15:17:19Z</time>
      </trkpt>
      <trkpt lat="46.23307" lon="5.80952">
        <ele>1168.9</ele>
        <time>2021-08-19T15:17:21Z</time>
      </trkpt>
      <trkpt lat="46.23307" lon="5.80931">
        <ele>1169.9</ele>
        <time>2021-08-19T15:17:40Z</time>
      </trkpt>
      <trkpt lat="46.23309" lon="5.80928">
        <ele>1170.1</ele>
        <time>2021-08-19T15:17:41Z</time>
      </trkpt>
      <trkpt lat="46.23309" lon="5.80923">
        <ele>1170.4</ele>
        <time>2021-08-19T15:17:43Z</time>
      </trkpt>
      <trkpt lat="46.23307" lon="5.8092">
        <ele>1170.6</ele>
        <time>2021-08-19T15:17:45Z</time>
      </trkpt>
      <trkpt lat="46.23305" lon="5.80918">
        <ele>1170.8</ele>
        <time>2021-08-19T15:17:47Z</time>
      </trkpt>
      <trkpt lat="46.233" lon="5.80919">
        <ele>1171.2</ele>
        <time>2021-08-19T15:17:49Z</time>
      </trkpt>
      <trkpt lat="46.23296" lon="5.80921">
        <ele>1171.5</ele>
        <time>2021-08-19T15:17:51Z</time>
      </trkpt>
      <trkpt lat="46.23294" lon="5.80919">
        <ele>1171.6</ele>
        <time>2021-08-19T15:17:52Z</time>
      </trkpt>
      <trkpt lat="46.23293" lon="5.80917">
        <ele>1171.7</ele>
        <time>2021-08-19T15:17:54Z</time>
      </trkpt>
      <trkpt lat="46.23292" lon="5.80915">
        <ele>1171.8</ele>
        <time>2021-08-19T15:17:55Z</time>
      </trkpt>
      <trkpt lat="46.23291" lon="5.80914">
        <ele>1171.9</ele>
        <time>2021-08-19T15:17:56Z</time>
      </trkpt>
      <trkpt lat="46.23288" lon="5.80908">
        <ele>1172.2</ele>
        <time>2021-08-19T15:17:58Z</time>
      </trkpt>
      <trkpt lat="46.23288" lon="5.80905">
        <ele>1172.3</ele>
        <time>2021-08-19T15:17:59Z</time>
      </trkpt>
      <trkpt lat="46.23287" lon="5.80896">
        <ele>1172.7</ele>
        <time>2021-08-19T15:18:01Z</time>
      </trkpt>
      <trkpt lat="46.23285" lon="5.80891">
        <ele>1172.8</ele>
        <time>2021-08-19T15:18:02Z</time>
      </trkpt>
      <trkpt lat="46.23284" lon="5.80891">
        <ele>1172.9</ele>
        <time>2021-08-19T15:18:03Z</time>
      </trkpt>
      <trkpt lat="46.23278" lon="5.80888">
        <ele>1173.2</ele>
        <time>2021-08-19T15:18:05Z</time>
      </trkpt>
      <trkpt lat="46.23276" lon="5.80884">
        <ele>1173.4</ele>
        <time>2021-08-19T15:18:06Z</time>
      </trkpt>
      <trkpt lat="46.23276" lon="5.80882">
        <ele>1173.4</ele>
        <time>2021-08-19T15:18:07Z</time>
      </trkpt>
      <trkpt lat="46.23275" lon="5.8088">
        <ele>1173.5</ele>
        <time>2021-08-19T15:18:08Z</time>
      </trkpt>
      <trkpt lat="46.23273" lon="5.80877">
        <ele>1173.7</ele>
        <time>2021-08-19T15:18:10Z</time>
      </trkpt>
      <trkpt lat="46.23271" lon="5.80875">
        <ele>1173.8</ele>
        <time>2021-08-19T15:18:11Z</time>
      </trkpt>
      <trkpt lat="46.2327" lon="5.80874">
        <ele>1173.9</ele>
        <time>2021-08-19T15:18:12Z</time>
      </trkpt>
      <trkpt lat="46.23267" lon="5.80873">
        <ele>1174.1</ele>
        <time>2021-08-19T15:18:14Z</time>
      </trkpt>
      <trkpt lat="46.23266" lon="5.80872">
        <ele>1174.1</ele>
        <time>2021-08-19T15:18:16Z</time>
      </trkpt>
      <trkpt lat="46.23265" lon="5.80871">
        <ele>1174.2</ele>
        <time>2021-08-19T15:18:17Z</time>
      </trkpt>
      <trkpt lat="46.23263" lon="5.80868">
        <ele>1174.4</ele>
        <time>2021-08-19T15:18:19Z</time>
      </trkpt>
      <trkpt lat="46.23263" lon="5.80866">
        <ele>1174.4</ele>
        <time>2021-08-19T15:18:20Z</time>
      </trkpt>
      <trkpt lat="46.23263" lon="5.8086">
        <ele>1174.9</ele>
        <time>2021-08-19T15:18:22Z</time>
      </trkpt>
      <trkpt lat="46.23264" lon="5.80857">
        <ele>1175.1</ele>
        <time>2021-08-19T15:18:23Z</time>
      </trkpt>
      <trkpt lat="46.23265" lon="5.80853">
        <ele>1175.3</ele>
        <time>2021-08-19T15:18:25Z</time>
      </trkpt>
      <trkpt lat="46.23266" lon="5.80848">
        <ele>1175.5</ele>
        <time>2021-08-19T15:18:26Z</time>
      </trkpt>
      <trkpt lat="46.23267" lon="5.80846">
        <ele>1175.6</ele>
        <time>2021-08-19T15:18:27Z</time>
      </trkpt>
      <trkpt lat="46.23267" lon="5.80844">
        <ele>1175.7</ele>
        <time>2021-08-19T15:18:28Z</time>
      </trkpt>
      <trkpt lat="46.2327" lon="5.8084">
        <ele>1175.9</ele>
        <time>2021-08-19T15:18:30Z</time>
      </trkpt>
      <trkpt lat="46.23271" lon="5.8084">
        <ele>1176</ele>
        <time>2021-08-19T15:18:31Z</time>
      </trkpt>
      <trkpt lat="46.23271" lon="5.80839">
        <ele>1176</ele>
        <time>2021-08-19T15:18:33Z</time>
      </trkpt>
      <trkpt lat="46.23271" lon="5.80838">
        <ele>1176.1</ele>
        <time>2021-08-19T15:18:34Z</time>
      </trkpt>
      <trkpt lat="46.23271" lon="5.80834">
        <ele>1176.2</ele>
        <time>2021-08-19T15:18:36Z</time>
      </trkpt>
      <trkpt lat="46.2327" lon="5.80832">
        <ele>1176.4</ele>
        <time>2021-08-19T15:18:37Z</time>
      </trkpt>
      <trkpt lat="46.23268" lon="5.80829">
        <ele>1176.5</ele>
        <time>2021-08-19T15:18:39Z</time>
      </trkpt>
      <trkpt lat="46.23267" lon="5.80829">
        <ele>1176.6</ele>
        <time>2021-08-19T15:18:40Z</time>
      </trkpt>
      <trkpt lat="46.23268" lon="5.80827">
        <ele>1176.7</ele>
        <time>2021-08-19T15:18:41Z</time>
      </trkpt>
      <trkpt lat="46.23273" lon="5.80825">
        <ele>1177</ele>
        <time>2021-08-19T15:18:43Z</time>
      </trkpt>
      <trkpt lat="46.23277" lon="5.80823">
        <ele>1177.2</ele>
        <time>2021-08-19T15:18:45Z</time>
      </trkpt>
      <trkpt lat="46.23279" lon="5.80821">
        <ele>1177.4</ele>
        <time>2021-08-19T15:18:47Z</time>
      </trkpt>
      <trkpt lat="46.2328" lon="5.80819">
        <ele>1177.5</ele>
        <time>2021-08-19T15:18:48Z</time>
      </trkpt>
      <trkpt lat="46.23282" lon="5.80816">
        <ele>1177.7</ele>
        <time>2021-08-19T15:18:50Z</time>
      </trkpt>
      <trkpt lat="46.23283" lon="5.80814">
        <ele>1177.8</ele>
        <time>2021-08-19T15:18:51Z</time>
      </trkpt>
      <trkpt lat="46.23285" lon="5.80811">
        <ele>1178</ele>
        <time>2021-08-19T15:18:53Z</time>
      </trkpt>
      <trkpt lat="46.23286" lon="5.8081">
        <ele>1178</ele>
        <time>2021-08-19T15:18:54Z</time>
      </trkpt>
      <trkpt lat="46.23288" lon="5.80807">
        <ele>1178.2</ele>
        <time>2021-08-19T15:18:56Z</time>
      </trkpt>
      <trkpt lat="46.23288" lon="5.80803">
        <ele>1178.3</ele>
        <time>2021-08-19T15:18:58Z</time>
      </trkpt>
      <trkpt lat="46.23287" lon="5.80802">
        <ele>1178.4</ele>
        <time>2021-08-19T15:18:59Z</time>
      </trkpt>
      <trkpt lat="46.23287" lon="5.808">
        <ele>1178.5</ele>
        <time>2021-08-19T15:19:00Z</time>
      </trkpt>
      <trkpt lat="46.23287" lon="5.80798">
        <ele>1178.5</ele>
        <time>2021-08-19T15:19:01Z</time>
      </trkpt>
      <trkpt lat="46.23287" lon="5.80796">
        <ele>1178.6</ele>
        <time>2021-08-19T15:19:02Z</time>
      </trkpt>
      <trkpt lat="46.23288" lon="5.80794">
        <ele>1178.7</ele>
        <time>2021-08-19T15:19:04Z</time>
      </trkpt>
      <trkpt lat="46.23288" lon="5.80794">
        <ele>1178.7</ele>
        <time>2021-08-19T15:19:05Z</time>
      </trkpt>
      <trkpt lat="46.23288" lon="5.80793">
        <ele>1178.7</ele>
        <time>2021-08-19T15:19:07Z</time>
      </trkpt>
      <trkpt lat="46.23288" lon="5.80793">
        <ele>1178.7</ele>
        <time>2021-08-19T15:19:09Z</time>
      </trkpt>
      <trkpt lat="46.23288" lon="5.80793">
        <ele>1178.7</ele>
        <time>2021-08-19T15:19:11Z</time>
      </trkpt>
      <trkpt lat="46.23288" lon="5.80793">
        <ele>1178.7</ele>
        <time>2021-08-19T15:19:12Z</time>
      </trkpt>
      <trkpt lat="46.23297" lon="5.80741">
        <ele>1181</ele>
        <time>2021-08-19T15:19:39Z</time>
      </trkpt>
      <trkpt lat="46.23297" lon="5.80737">
        <ele>1181.2</ele>
        <time>2021-08-19T15:19:41Z</time>
      </trkpt>
      <trkpt lat="46.23298" lon="5.80737">
        <ele>1181.2</ele>
        <time>2021-08-19T15:19:42Z</time>
      </trkpt>
      <trkpt lat="46.23299" lon="5.80736">
        <ele>1181.3</ele>
        <time>2021-08-19T15:19:44Z</time>
      </trkpt>
      <trkpt lat="46.23299" lon="5.80735">
        <ele>1181.4</ele>
        <time>2021-08-19T15:19:45Z</time>
      </trkpt>
      <trkpt lat="46.233" lon="5.80732">
        <ele>1181.5</ele>
        <time>2021-08-19T15:19:46Z</time>
      </trkpt>
      <trkpt lat="46.23301" lon="5.80731">
        <ele>1181.6</ele>
        <time>2021-08-19T15:19:47Z</time>
      </trkpt>
      <trkpt lat="46.23301" lon="5.80729">
        <ele>1181.6</ele>
        <time>2021-08-19T15:19:48Z</time>
      </trkpt>
      <trkpt lat="46.233" lon="5.80727">
        <ele>1181.7</ele>
        <time>2021-08-19T15:19:49Z</time>
      </trkpt>
      <trkpt lat="46.23301" lon="5.80723">
        <ele>1181.9</ele>
        <time>2021-08-19T15:19:51Z</time>
      </trkpt>
      <trkpt lat="46.23301" lon="5.80721">
        <ele>1182</ele>
        <time>2021-08-19T15:19:52Z</time>
      </trkpt>
      <trkpt lat="46.23314" lon="5.80709">
        <ele>1182.9</ele>
        <time>2021-08-19T15:20:06Z</time>
      </trkpt>
      <trkpt lat="46.23318" lon="5.80708">
        <ele>1183.2</ele>
        <time>2021-08-19T15:20:08Z</time>
      </trkpt>
      <trkpt lat="46.23322" lon="5.80708">
        <ele>1183.4</ele>
        <time>2021-08-19T15:20:09Z</time>
      </trkpt>
      <trkpt lat="46.23323" lon="5.80708">
        <ele>1183.5</ele>
        <time>2021-08-19T15:20:10Z</time>
      </trkpt>
      <trkpt lat="46.23324" lon="5.80707">
        <ele>1183.6</ele>
        <time>2021-08-19T15:20:12Z</time>
      </trkpt>
      <trkpt lat="46.23325" lon="5.80705">
        <ele>1183.6</ele>
        <time>2021-08-19T15:20:14Z</time>
      </trkpt>
      <trkpt lat="46.23325" lon="5.80703">
        <ele>1183.7</ele>
        <time>2021-08-19T15:20:15Z</time>
      </trkpt>
      <trkpt lat="46.23325" lon="5.80701">
        <ele>1183.8</ele>
        <time>2021-08-19T15:20:17Z</time>
      </trkpt>
      <trkpt lat="46.23327" lon="5.80699">
        <ele>1183.9</ele>
        <time>2021-08-19T15:20:19Z</time>
      </trkpt>
      <trkpt lat="46.23327" lon="5.80698">
        <ele>1184</ele>
        <time>2021-08-19T15:20:21Z</time>
      </trkpt>
      <trkpt lat="46.23327" lon="5.80697">
        <ele>1184</ele>
        <time>2021-08-19T15:20:22Z</time>
      </trkpt>
      <trkpt lat="46.23328" lon="5.80693">
        <ele>1184.2</ele>
        <time>2021-08-19T15:20:24Z</time>
      </trkpt>
      <trkpt lat="46.23329" lon="5.80691">
        <ele>1184.3</ele>
        <time>2021-08-19T15:20:25Z</time>
      </trkpt>
      <trkpt lat="46.23332" lon="5.80687">
        <ele>1184.5</ele>
        <time>2021-08-19T15:20:27Z</time>
      </trkpt>
      <trkpt lat="46.23332" lon="5.80684">
        <ele>1184.6</ele>
        <time>2021-08-19T15:20:29Z</time>
      </trkpt>
      <trkpt lat="46.23352" lon="5.80661">
        <ele>1186</ele>
        <time>2021-08-19T15:20:53Z</time>
      </trkpt>
      <trkpt lat="46.23355" lon="5.80659">
        <ele>1186.2</ele>
        <time>2021-08-19T15:20:55Z</time>
      </trkpt>
      <trkpt lat="46.23359" lon="5.80657">
        <ele>1186.4</ele>
        <time>2021-08-19T15:20:56Z</time>
      </trkpt>
      <trkpt lat="46.23361" lon="5.80655">
        <ele>1186.6</ele>
        <time>2021-08-19T15:20:57Z</time>
      </trkpt>
      <trkpt lat="46.23363" lon="5.80651">
        <ele>1186.7</ele>
        <time>2021-08-19T15:20:58Z</time>
      </trkpt>
      <trkpt lat="46.23364" lon="5.80649">
        <ele>1186.8</ele>
        <time>2021-08-19T15:20:59Z</time>
      </trkpt>
      <trkpt lat="46.23364" lon="5.80645">
        <ele>1186.9</ele>
        <time>2021-08-19T15:21:00Z</time>
      </trkpt>
      <trkpt lat="46.23364" lon="5.80643">
        <ele>1186.9</ele>
        <time>2021-08-19T15:21:01Z</time>
      </trkpt>
      <trkpt lat="46.23363" lon="5.80641">
        <ele>1187</ele>
        <time>2021-08-19T15:21:02Z</time>
      </trkpt>
      <trkpt lat="46.23361" lon="5.80636">
        <ele>1187.2</ele>
        <time>2021-08-19T15:21:04Z</time>
      </trkpt>
      <trkpt lat="46.23361" lon="5.80631">
        <ele>1187.3</ele>
        <time>2021-08-19T15:21:05Z</time>
      </trkpt>
      <trkpt lat="46.23361" lon="5.8063">
        <ele>1187.4</ele>
        <time>2021-08-19T15:21:06Z</time>
      </trkpt>
      <trkpt lat="46.23361" lon="5.80628">
        <ele>1187.4</ele>
        <time>2021-08-19T15:21:07Z</time>
      </trkpt>
      <trkpt lat="46.23362" lon="5.80626">
        <ele>1187.5</ele>
        <time>2021-08-19T15:21:08Z</time>
      </trkpt>
      <trkpt lat="46.23363" lon="5.80622">
        <ele>1187.6</ele>
        <time>2021-08-19T15:21:10Z</time>
      </trkpt>
      <trkpt lat="46.23363" lon="5.8062">
        <ele>1187.7</ele>
        <time>2021-08-19T15:21:11Z</time>
      </trkpt>
      <trkpt lat="46.23364" lon="5.80616">
        <ele>1187.8</ele>
        <time>2021-08-19T15:21:12Z</time>
      </trkpt>
      <trkpt lat="46.23364" lon="5.80614">
        <ele>1187.8</ele>
        <time>2021-08-19T15:21:13Z</time>
      </trkpt>
      <trkpt lat="46.23363" lon="5.80609">
        <ele>1188</ele>
        <time>2021-08-19T15:21:14Z</time>
      </trkpt>
      <trkpt lat="46.23363" lon="5.80607">
        <ele>1188</ele>
        <time>2021-08-19T15:21:15Z</time>
      </trkpt>
      <trkpt lat="46.23363" lon="5.80602">
        <ele>1188.1</ele>
        <time>2021-08-19T15:21:16Z</time>
      </trkpt>
      <trkpt lat="46.23363" lon="5.80598">
        <ele>1188.2</ele>
        <time>2021-08-19T15:21:17Z</time>
      </trkpt>
      <trkpt lat="46.23363" lon="5.80594">
        <ele>1188.3</ele>
        <time>2021-08-19T15:21:19Z</time>
      </trkpt>
      <trkpt lat="46.23363" lon="5.80591">
        <ele>1188.4</ele>
        <time>2021-08-19T15:21:20Z</time>
      </trkpt>
      <trkpt lat="46.23363" lon="5.80589">
        <ele>1188.4</ele>
        <time>2021-08-19T15:21:21Z</time>
      </trkpt>
      <trkpt lat="46.23363" lon="5.80588">
        <ele>1188.4</ele>
        <time>2021-08-19T15:21:22Z</time>
      </trkpt>
      <trkpt lat="46.23363" lon="5.80588">
        <ele>1188.4</ele>
        <time>2021-08-19T15:21:23Z</time>
      </trkpt>
      <trkpt lat="46.23363" lon="5.80587">
        <ele>1188.4</ele>
        <time>2021-08-19T15:21:24Z</time>
      </trkpt>
      <trkpt lat="46.23362" lon="5.80587">
        <ele>1188.5</ele>
        <time>2021-08-19T15:21:25Z</time>
      </trkpt>
      <trkpt lat="46.23362" lon="5.80587">
        <ele>1188.5</ele>
        <time>2021-08-19T15:21:26Z</time>
      </trkpt>
      <trkpt lat="46.23362" lon="5.80587">
        <ele>1188.5</ele>
        <time>2021-08-19T15:21:28Z</time>
      </trkpt>
      <trkpt lat="46.23362" lon="5.80587">
        <ele>1188.5</ele>
        <time>2021-08-19T15:21:30Z</time>
      </trkpt>
      <trkpt lat="46.23362" lon="5.80587">
        <ele>1188.5</ele>
        <time>2021-08-19T15:21:31Z</time>
      </trkpt>
      <trkpt lat="46.23362" lon="5.80587">
        <ele>1188.5</ele>
        <time>2021-08-19T15:21:33Z</time>
      </trkpt>
      <trkpt lat="46.23361" lon="5.80587">
        <ele>1188.5</ele>
        <time>2021-08-19T15:21:34Z</time>
      </trkpt>
      <trkpt lat="46.23358" lon="5.80508">
        <ele>1189.7</ele>
        <time>2021-08-19T15:21:59Z</time>
      </trkpt>
      <trkpt lat="46.23358" lon="5.80502">
        <ele>1189.8</ele>
        <time>2021-08-19T15:22:00Z</time>
      </trkpt>
      <trkpt lat="46.23358" lon="5.80498">
        <ele>1189.9</ele>
        <time>2021-08-19T15:22:01Z</time>
      </trkpt>
      <trkpt lat="46.23357" lon="5.80496">
        <ele>1190</ele>
        <time>2021-08-19T15:22:02Z</time>
      </trkpt>
      <trkpt lat="46.23355" lon="5.80492">
        <ele>1190.1</ele>
        <time>2021-08-19T15:22:04Z</time>
      </trkpt>
      <trkpt lat="46.23354" lon="5.80486">
        <ele>1190.2</ele>
        <time>2021-08-19T15:22:06Z</time>
      </trkpt>
      <trkpt lat="46.23355" lon="5.80481">
        <ele>1190.4</ele>
        <time>2021-08-19T15:22:08Z</time>
      </trkpt>
      <trkpt lat="46.23354" lon="5.80479">
        <ele>1190.4</ele>
        <time>2021-08-19T15:22:09Z</time>
      </trkpt>
      <trkpt lat="46.23355" lon="5.80477">
        <ele>1190.5</ele>
        <time>2021-08-19T15:22:10Z</time>
      </trkpt>
      <trkpt lat="46.23358" lon="5.80473">
        <ele>1190.6</ele>
        <time>2021-08-19T15:22:12Z</time>
      </trkpt>
      <trkpt lat="46.23361" lon="5.8047">
        <ele>1190.8</ele>
        <time>2021-08-19T15:22:13Z</time>
      </trkpt>
      <trkpt lat="46.23364" lon="5.80469">
        <ele>1190.9</ele>
        <time>2021-08-19T15:22:15Z</time>
      </trkpt>
      <trkpt lat="46.23367" lon="5.80467">
        <ele>1191.1</ele>
        <time>2021-08-19T15:22:16Z</time>
      </trkpt>
      <trkpt lat="46.2337" lon="5.80465">
        <ele>1191.2</ele>
        <time>2021-08-19T15:22:17Z</time>
      </trkpt>
      <trkpt lat="46.23371" lon="5.80464">
        <ele>1191.3</ele>
        <time>2021-08-19T15:22:18Z</time>
      </trkpt>
      <trkpt lat="46.23374" lon="5.80464">
        <ele>1191.4</ele>
        <time>2021-08-19T15:22:19Z</time>
      </trkpt>
      <trkpt lat="46.23377" lon="5.8046">
        <ele>1191.6</ele>
        <time>2021-08-19T15:22:21Z</time>
      </trkpt>
      <trkpt lat="46.23379" lon="5.80457">
        <ele>1191.7</ele>
        <time>2021-08-19T15:22:22Z</time>
      </trkpt>
      <trkpt lat="46.23381" lon="5.80454">
        <ele>1191.9</ele>
        <time>2021-08-19T15:22:24Z</time>
      </trkpt>
      <trkpt lat="46.23383" lon="5.80452">
        <ele>1192</ele>
        <time>2021-08-19T15:22:25Z</time>
      </trkpt>
      <trkpt lat="46.23386" lon="5.80446">
        <ele>1192.2</ele>
        <time>2021-08-19T15:22:27Z</time>
      </trkpt>
      <trkpt lat="46.23388" lon="5.80442">
        <ele>1192.3</ele>
        <time>2021-08-19T15:22:28Z</time>
      </trkpt>
      <trkpt lat="46.23388" lon="5.80441">
        <ele>1192.3</ele>
        <time>2021-08-19T15:22:29Z</time>
      </trkpt>
      <trkpt lat="46.23388" lon="5.80439">
        <ele>1192.4</ele>
        <time>2021-08-19T15:22:30Z</time>
      </trkpt>
      <trkpt lat="46.2339" lon="5.80435">
        <ele>1192.5</ele>
        <time>2021-08-19T15:22:32Z</time>
      </trkpt>
      <trkpt lat="46.23394" lon="5.80434">
        <ele>1192.6</ele>
        <time>2021-08-19T15:22:34Z</time>
      </trkpt>
      <trkpt lat="46.23397" lon="5.80433">
        <ele>1192.7</ele>
        <time>2021-08-19T15:22:35Z</time>
      </trkpt>
      <trkpt lat="46.23399" lon="5.8043">
        <ele>1192.8</ele>
        <time>2021-08-19T15:22:36Z</time>
      </trkpt>
      <trkpt lat="46.23399" lon="5.80425">
        <ele>1192.9</ele>
        <time>2021-08-19T15:22:38Z</time>
      </trkpt>
      <trkpt lat="46.23397" lon="5.80418">
        <ele>1192.9</ele>
        <time>2021-08-19T15:22:39Z</time>
      </trkpt>
      <trkpt lat="46.23394" lon="5.80415">
        <ele>1192.9</ele>
        <time>2021-08-19T15:22:40Z</time>
      </trkpt>
      <trkpt lat="46.23393" lon="5.8041">
        <ele>1192.9</ele>
        <time>2021-08-19T15:22:41Z</time>
      </trkpt>
      <trkpt lat="46.23393" lon="5.80407">
        <ele>1192.9</ele>
        <time>2021-08-19T15:22:42Z</time>
      </trkpt>
      <trkpt lat="46.23391" lon="5.80394">
        <ele>1192.8</ele>
        <time>2021-08-19T15:22:44Z</time>
      </trkpt>
      <trkpt lat="46.23389" lon="5.80384">
        <ele>1192.7</ele>
        <time>2021-08-19T15:22:46Z</time>
      </trkpt>
      <trkpt lat="46.23389" lon="5.80374">
        <ele>1192.5</ele>
        <time>2021-08-19T15:22:48Z</time>
      </trkpt>
      <trkpt lat="46.23388" lon="5.80364">
        <ele>1192.3</ele>
        <time>2021-08-19T15:22:50Z</time>
      </trkpt>
      <trkpt lat="46.23387" lon="5.80355">
        <ele>1192.1</ele>
        <time>2021-08-19T15:22:51Z</time>
      </trkpt>
      <trkpt lat="46.23388" lon="5.80349">
        <ele>1192</ele>
        <time>2021-08-19T15:22:52Z</time>
      </trkpt>
      <trkpt lat="46.23391" lon="5.80338">
        <ele>1191.8</ele>
        <time>2021-08-19T15:22:54Z</time>
      </trkpt>
      <trkpt lat="46.23395" lon="5.80331">
        <ele>1191.5</ele>
        <time>2021-08-19T15:22:55Z</time>
      </trkpt>
      <trkpt lat="46.23398" lon="5.80326">
        <ele>1191.4</ele>
        <time>2021-08-19T15:22:56Z</time>
      </trkpt>
      <trkpt lat="46.23402" lon="5.80321">
        <ele>1191.3</ele>
        <time>2021-08-19T15:22:57Z</time>
      </trkpt>
      <trkpt lat="46.23408" lon="5.8031">
        <ele>1190.9</ele>
        <time>2021-08-19T15:22:59Z</time>
      </trkpt>
      <trkpt lat="46.2341" lon="5.80304">
        <ele>1190.8</ele>
        <time>2021-08-19T15:23:00Z</time>
      </trkpt>
      <trkpt lat="46.23415" lon="5.80292">
        <ele>1190.5</ele>
        <time>2021-08-19T15:23:02Z</time>
      </trkpt>
      <trkpt lat="46.23417" lon="5.80287">
        <ele>1190.3</ele>
        <time>2021-08-19T15:23:03Z</time>
      </trkpt>
      <trkpt lat="46.23419" lon="5.80281">
        <ele>1190.1</ele>
        <time>2021-08-19T15:23:04Z</time>
      </trkpt>
      <trkpt lat="46.23423" lon="5.80265">
        <ele>1189.6</ele>
        <time>2021-08-19T15:23:06Z</time>
      </trkpt>
      <trkpt lat="46.23427" lon="5.80253">
        <ele>1189.2</ele>
        <time>2021-08-19T15:23:08Z</time>
      </trkpt>
      <trkpt lat="46.23427" lon="5.80249">
        <ele>1189.1</ele>
        <time>2021-08-19T15:23:09Z</time>
      </trkpt>
      <trkpt lat="46.23429" lon="5.80244">
        <ele>1188.8</ele>
        <time>2021-08-19T15:23:10Z</time>
      </trkpt>
      <trkpt lat="46.23433" lon="5.80232">
        <ele>1188.3</ele>
        <time>2021-08-19T15:23:12Z</time>
      </trkpt>
      <trkpt lat="46.23438" lon="5.8022">
        <ele>1187.7</ele>
        <time>2021-08-19T15:23:14Z</time>
      </trkpt>
      <trkpt lat="46.23439" lon="5.80212">
        <ele>1187.3</ele>
        <time>2021-08-19T15:23:15Z</time>
      </trkpt>
      <trkpt lat="46.23441" lon="5.80202">
        <ele>1186.7</ele>
        <time>2021-08-19T15:23:16Z</time>
      </trkpt>
      <trkpt lat="46.23442" lon="5.80181">
        <ele>1185.5</ele>
        <time>2021-08-19T15:23:18Z</time>
      </trkpt>
      <trkpt lat="46.23442" lon="5.80155">
        <ele>1183.9</ele>
        <time>2021-08-19T15:23:20Z</time>
      </trkpt>
      <trkpt lat="46.23441" lon="5.80142">
        <ele>1183</ele>
        <time>2021-08-19T15:23:21Z</time>
      </trkpt>
      <trkpt lat="46.23439" lon="5.80127">
        <ele>1182.2</ele>
        <time>2021-08-19T15:23:22Z</time>
      </trkpt>
      <trkpt lat="46.23438" lon="5.80113">
        <ele>1181.3</ele>
        <time>2021-08-19T15:23:23Z</time>
      </trkpt>
      <trkpt lat="46.23435" lon="5.80098">
        <ele>1180.4</ele>
        <time>2021-08-19T15:23:24Z</time>
      </trkpt>
      <trkpt lat="46.2343" lon="5.8007">
        <ele>1178.6</ele>
        <time>2021-08-19T15:23:26Z</time>
      </trkpt>
      <trkpt lat="46.23429" lon="5.80057">
        <ele>1177.7</ele>
        <time>2021-08-19T15:23:27Z</time>
      </trkpt>
      <trkpt lat="46.23428" lon="5.80042">
        <ele>1176.9</ele>
        <time>2021-08-19T15:23:28Z</time>
      </trkpt>
      <trkpt lat="46.23427" lon="5.80028">
        <ele>1176.1</ele>
        <time>2021-08-19T15:23:29Z</time>
      </trkpt>
      <trkpt lat="46.23427" lon="5.80015">
        <ele>1175.3</ele>
        <time>2021-08-19T15:23:30Z</time>
      </trkpt>
      <trkpt lat="46.23425" lon="5.79988">
        <ele>1173.7</ele>
        <time>2021-08-19T15:23:32Z</time>
      </trkpt>
      <trkpt lat="46.23421" lon="5.7996">
        <ele>1172</ele>
        <time>2021-08-19T15:23:34Z</time>
      </trkpt>
      <trkpt lat="46.23418" lon="5.79931">
        <ele>1170.4</ele>
        <time>2021-08-19T15:23:36Z</time>
      </trkpt>
      <trkpt lat="46.23418" lon="5.79902">
        <ele>1168.8</ele>
        <time>2021-08-19T15:23:38Z</time>
      </trkpt>
      <trkpt lat="46.23419" lon="5.79887">
        <ele>1168</ele>
        <time>2021-08-19T15:23:39Z</time>
      </trkpt>
      <trkpt lat="46.23422" lon="5.79857">
        <ele>1166.1</ele>
        <time>2021-08-19T15:23:41Z</time>
      </trkpt>
      <trkpt lat="46.23423" lon="5.79842">
        <ele>1165.2</ele>
        <time>2021-08-19T15:23:42Z</time>
      </trkpt>
      <trkpt lat="46.23423" lon="5.7981">
        <ele>1166.8</ele>
        <time>2021-08-19T15:23:44Z</time>
      </trkpt>
      <trkpt lat="46.23423" lon="5.79794">
        <ele>1166.9</ele>
        <time>2021-08-19T15:23:45Z</time>
      </trkpt>
      <trkpt lat="46.23423" lon="5.79777">
        <ele>1166.5</ele>
        <time>2021-08-19T15:23:46Z</time>
      </trkpt>
      <trkpt lat="46.23423" lon="5.79745">
        <ele>1165.4</ele>
        <time>2021-08-19T15:23:48Z</time>
      </trkpt>
      <trkpt lat="46.23425" lon="5.7971">
        <ele>1163.2</ele>
        <time>2021-08-19T15:23:50Z</time>
      </trkpt>
      <trkpt lat="46.23424" lon="5.79674">
        <ele>1161.6</ele>
        <time>2021-08-19T15:23:52Z</time>
      </trkpt>
      <trkpt lat="46.23428" lon="5.79638">
        <ele>1158.9</ele>
        <time>2021-08-19T15:23:54Z</time>
      </trkpt>
      <trkpt lat="46.23432" lon="5.79606">
        <ele>1157.7</ele>
        <time>2021-08-19T15:23:56Z</time>
      </trkpt>
      <trkpt lat="46.23432" lon="5.7959">
        <ele>1157.6</ele>
        <time>2021-08-19T15:23:57Z</time>
      </trkpt>
      <trkpt lat="46.23429" lon="5.79575">
        <ele>1158.9</ele>
        <time>2021-08-19T15:23:58Z</time>
      </trkpt>
      <trkpt lat="46.23418" lon="5.79554">
        <ele>1159.7</ele>
        <time>2021-08-19T15:24:00Z</time>
      </trkpt>
      <trkpt lat="46.23412" lon="5.79546">
        <ele>1158.1</ele>
        <time>2021-08-19T15:24:01Z</time>
      </trkpt>
      <trkpt lat="46.23395" lon="5.79536">
        <ele>1155</ele>
        <time>2021-08-19T15:24:03Z</time>
      </trkpt>
      <trkpt lat="46.23384" lon="5.79524">
        <ele>1153.9</ele>
        <time>2021-08-19T15:24:05Z</time>
      </trkpt>
      <trkpt lat="46.23378" lon="5.79519">
        <ele>1153.4</ele>
        <time>2021-08-19T15:24:06Z</time>
      </trkpt>
      <trkpt lat="46.23372" lon="5.79513">
        <ele>1152.9</ele>
        <time>2021-08-19T15:24:07Z</time>
      </trkpt>
      <trkpt lat="46.23358" lon="5.79504">
        <ele>1153.4</ele>
        <time>2021-08-19T15:24:09Z</time>
      </trkpt>
      <trkpt lat="46.23345" lon="5.79495">
        <ele>1153.9</ele>
        <time>2021-08-19T15:24:11Z</time>
      </trkpt>
      <trkpt lat="46.23339" lon="5.79489">
        <ele>1154.2</ele>
        <time>2021-08-19T15:24:12Z</time>
      </trkpt>
      <trkpt lat="46.23328" lon="5.79477">
        <ele>1154.9</ele>
        <time>2021-08-19T15:24:14Z</time>
      </trkpt>
      <trkpt lat="46.23316" lon="5.79464">
        <ele>1154.5</ele>
        <time>2021-08-19T15:24:16Z</time>
      </trkpt>
      <trkpt lat="46.2331" lon="5.79457">
        <ele>1154.3</ele>
        <time>2021-08-19T15:24:17Z</time>
      </trkpt>
      <trkpt lat="46.23304" lon="5.79451">
        <ele>1154</ele>
        <time>2021-08-19T15:24:18Z</time>
      </trkpt>
      <trkpt lat="46.23293" lon="5.79441">
        <ele>1153.5</ele>
        <time>2021-08-19T15:24:20Z</time>
      </trkpt>
      <trkpt lat="46.23287" lon="5.79435">
        <ele>1153.3</ele>
        <time>2021-08-19T15:24:21Z</time>
      </trkpt>
      <trkpt lat="46.23279" lon="5.79423">
        <ele>1153.1</ele>
        <time>2021-08-19T15:24:23Z</time>
      </trkpt>
      <trkpt lat="46.23278" lon="5.7942">
        <ele>1153</ele>
        <time>2021-08-19T15:24:24Z</time>
      </trkpt>
      <trkpt lat="46.23274" lon="5.79409">
        <ele>1152.9</ele>
        <time>2021-08-19T15:24:26Z</time>
      </trkpt>
      <trkpt lat="46.23268" lon="5.79394">
        <ele>1152.8</ele>
        <time>2021-08-19T15:24:28Z</time>
      </trkpt>
      <trkpt lat="46.23261" lon="5.79378">
        <ele>1152.8</ele>
        <time>2021-08-19T15:24:30Z</time>
      </trkpt>
      <trkpt lat="46.23254" lon="5.79363">
        <ele>1152.8</ele>
        <time>2021-08-19T15:24:32Z</time>
      </trkpt>
      <trkpt lat="46.23221" lon="5.79181">
        <ele>1150.7</ele>
        <time>2021-08-19T15:25:04Z</time>
      </trkpt>
      <trkpt lat="46.23241" lon="5.79148">
        <ele>1150</ele>
        <time>2021-08-19T15:25:06Z</time>
      </trkpt>
      <trkpt lat="46.23252" lon="5.79135">
        <ele>1150.2</ele>
        <time>2021-08-19T15:25:07Z</time>
      </trkpt>
      <trkpt lat="46.23272" lon="5.79119">
        <ele>1151.2</ele>
        <time>2021-08-19T15:25:09Z</time>
      </trkpt>
      <trkpt lat="46.23286" lon="5.79107">
        <ele>1152.1</ele>
        <time>2021-08-19T15:25:11Z</time>
      </trkpt>
      <trkpt lat="46.23289" lon="5.79104">
        <ele>1152.3</ele>
        <time>2021-08-19T15:25:12Z</time>
      </trkpt>
      <trkpt lat="46.23289" lon="5.79103">
        <ele>1152.3</ele>
        <time>2021-08-19T15:25:13Z</time>
      </trkpt>
      <trkpt lat="46.2329" lon="5.79102">
        <ele>1152.3</ele>
        <time>2021-08-19T15:25:15Z</time>
      </trkpt>
      <trkpt lat="46.23292" lon="5.791">
        <ele>1152.5</ele>
        <time>2021-08-19T15:25:16Z</time>
      </trkpt>
      <trkpt lat="46.23295" lon="5.79096">
        <ele>1152.7</ele>
        <time>2021-08-19T15:25:18Z</time>
      </trkpt>
      <trkpt lat="46.23297" lon="5.79092">
        <ele>1152.8</ele>
        <time>2021-08-19T15:25:19Z</time>
      </trkpt>
      <trkpt lat="46.23297" lon="5.7909">
        <ele>1152.9</ele>
        <time>2021-08-19T15:25:20Z</time>
      </trkpt>
      <trkpt lat="46.23299" lon="5.79087">
        <ele>1153.1</ele>
        <time>2021-08-19T15:25:22Z</time>
      </trkpt>
      <trkpt lat="46.233" lon="5.79073">
        <ele>1153.5</ele>
        <time>2021-08-19T15:25:25Z</time>
      </trkpt>
      <trkpt lat="46.23302" lon="5.79069">
        <ele>1153.7</ele>
        <time>2021-08-19T15:25:26Z</time>
      </trkpt>
      <trkpt lat="46.23303" lon="5.79066">
        <ele>1153.8</ele>
        <time>2021-08-19T15:25:27Z</time>
      </trkpt>
      <trkpt lat="46.23305" lon="5.79061">
        <ele>1154</ele>
        <time>2021-08-19T15:25:28Z</time>
      </trkpt>
      <trkpt lat="46.23305" lon="5.7906">
        <ele>1154</ele>
        <time>2021-08-19T15:25:29Z</time>
      </trkpt>
      <trkpt lat="46.23306" lon="5.79056">
        <ele>1154.1</ele>
        <time>2021-08-19T15:25:30Z</time>
      </trkpt>
      <trkpt lat="46.23306" lon="5.79055">
        <ele>1154.2</ele>
        <time>2021-08-19T15:25:31Z</time>
      </trkpt>
      <trkpt lat="46.23307" lon="5.79052">
        <ele>1154.3</ele>
        <time>2021-08-19T15:25:32Z</time>
      </trkpt>
      <trkpt lat="46.23307" lon="5.7905">
        <ele>1154.4</ele>
        <time>2021-08-19T15:25:33Z</time>
      </trkpt>
      <trkpt lat="46.23309" lon="5.79049">
        <ele>1154.4</ele>
        <time>2021-08-19T15:25:34Z</time>
      </trkpt>
      <trkpt lat="46.23311" lon="5.79047">
        <ele>1154.6</ele>
        <time>2021-08-19T15:25:36Z</time>
      </trkpt>
      <trkpt lat="46.23313" lon="5.79048">
        <ele>1154.7</ele>
        <time>2021-08-19T15:25:37Z</time>
      </trkpt>
      <trkpt lat="46.23315" lon="5.79048">
        <ele>1154.7</ele>
        <time>2021-08-19T15:25:38Z</time>
      </trkpt>
      <trkpt lat="46.23316" lon="5.79047">
        <ele>1154.8</ele>
        <time>2021-08-19T15:25:40Z</time>
      </trkpt>
      <trkpt lat="46.23319" lon="5.79044">
        <ele>1155</ele>
        <time>2021-08-19T15:25:42Z</time>
      </trkpt>
      <trkpt lat="46.2332" lon="5.79042">
        <ele>1155.1</ele>
        <time>2021-08-19T15:25:43Z</time>
      </trkpt>
      <trkpt lat="46.23321" lon="5.79041">
        <ele>1155.2</ele>
        <time>2021-08-19T15:25:44Z</time>
      </trkpt>
      <trkpt lat="46.23321" lon="5.79039">
        <ele>1155.3</ele>
        <time>2021-08-19T15:25:45Z</time>
      </trkpt>
      <trkpt lat="46.23323" lon="5.79039">
        <ele>1155.4</ele>
        <time>2021-08-19T15:25:46Z</time>
      </trkpt>
      <trkpt lat="46.23324" lon="5.79038">
        <ele>1155.5</ele>
        <time>2021-08-19T15:25:47Z</time>
      </trkpt>
      <trkpt lat="46.23326" lon="5.79038">
        <ele>1155.6</ele>
        <time>2021-08-19T15:25:48Z</time>
      </trkpt>
      <trkpt lat="46.23329" lon="5.79036">
        <ele>1155.8</ele>
        <time>2021-08-19T15:25:50Z</time>
      </trkpt>
      <trkpt lat="46.23333" lon="5.79032">
        <ele>1156.2</ele>
        <time>2021-08-19T15:25:51Z</time>
      </trkpt>
      <trkpt lat="46.23334" lon="5.7903">
        <ele>1156.3</ele>
        <time>2021-08-19T15:25:52Z</time>
      </trkpt>
      <trkpt lat="46.23335" lon="5.79026">
        <ele>1156.5</ele>
        <time>2021-08-19T15:25:53Z</time>
      </trkpt>
      <trkpt lat="46.23336" lon="5.79021">
        <ele>1156.8</ele>
        <time>2021-08-19T15:25:54Z</time>
      </trkpt>
      <trkpt lat="46.23337" lon="5.79017">
        <ele>1157</ele>
        <time>2021-08-19T15:25:55Z</time>
      </trkpt>
      <trkpt lat="46.23339" lon="5.79013">
        <ele>1157.2</ele>
        <time>2021-08-19T15:25:56Z</time>
      </trkpt>
      <trkpt lat="46.2334" lon="5.7901">
        <ele>1157.4</ele>
        <time>2021-08-19T15:25:57Z</time>
      </trkpt>
      <trkpt lat="46.23341" lon="5.79007">
        <ele>1157.6</ele>
        <time>2021-08-19T15:25:59Z</time>
      </trkpt>
      <trkpt lat="46.23343" lon="5.79003">
        <ele>1157.7</ele>
        <time>2021-08-19T15:26:00Z</time>
      </trkpt>
      <trkpt lat="46.23345" lon="5.78998">
        <ele>1158</ele>
        <time>2021-08-19T15:26:01Z</time>
      </trkpt>
      <trkpt lat="46.23346" lon="5.78996">
        <ele>1158.1</ele>
        <time>2021-08-19T15:26:02Z</time>
      </trkpt>
      <trkpt lat="46.23349" lon="5.78992">
        <ele>1158.3</ele>
        <time>2021-08-19T15:26:03Z</time>
      </trkpt>
      <trkpt lat="46.23353" lon="5.78986">
        <ele>1158.7</ele>
        <time>2021-08-19T15:26:04Z</time>
      </trkpt>
      <trkpt lat="46.23358" lon="5.78982">
        <ele>1159</ele>
        <time>2021-08-19T15:26:06Z</time>
      </trkpt>
      <trkpt lat="46.23362" lon="5.7898">
        <ele>1159.2</ele>
        <time>2021-08-19T15:26:08Z</time>
      </trkpt>
      <trkpt lat="46.23365" lon="5.78978">
        <ele>1159.3</ele>
        <time>2021-08-19T15:26:09Z</time>
      </trkpt>
      <trkpt lat="46.23369" lon="5.78976">
        <ele>1159.4</ele>
        <time>2021-08-19T15:26:10Z</time>
      </trkpt>
      <trkpt lat="46.23372" lon="5.78975">
        <ele>1159.6</ele>
        <time>2021-08-19T15:26:12Z</time>
      </trkpt>
      <trkpt lat="46.23375" lon="5.78972">
        <ele>1159.7</ele>
        <time>2021-08-19T15:26:13Z</time>
      </trkpt>
      <trkpt lat="46.23378" lon="5.78968">
        <ele>1159.8</ele>
        <time>2021-08-19T15:26:15Z</time>
      </trkpt>
      <trkpt lat="46.2338" lon="5.78965">
        <ele>1159.9</ele>
        <time>2021-08-19T15:26:16Z</time>
      </trkpt>
      <trkpt lat="46.23381" lon="5.7896">
        <ele>1160</ele>
        <time>2021-08-19T15:26:18Z</time>
      </trkpt>
      <trkpt lat="46.23384" lon="5.78955">
        <ele>1160.2</ele>
        <time>2021-08-19T15:26:20Z</time>
      </trkpt>
      <trkpt lat="46.23389" lon="5.7895">
        <ele>1160.3</ele>
        <time>2021-08-19T15:26:22Z</time>
      </trkpt>
      <trkpt lat="46.23393" lon="5.78944">
        <ele>1160.5</ele>
        <time>2021-08-19T15:26:24Z</time>
      </trkpt>
      <trkpt lat="46.23398" lon="5.78938">
        <ele>1160.6</ele>
        <time>2021-08-19T15:26:25Z</time>
      </trkpt>
      <trkpt lat="46.23402" lon="5.78935">
        <ele>1160.7</ele>
        <time>2021-08-19T15:26:27Z</time>
      </trkpt>
      <trkpt lat="46.23405" lon="5.78931">
        <ele>1160.7</ele>
        <time>2021-08-19T15:26:28Z</time>
      </trkpt>
      <trkpt lat="46.23406" lon="5.78926">
        <ele>1160.8</ele>
        <time>2021-08-19T15:26:29Z</time>
      </trkpt>
      <trkpt lat="46.23408" lon="5.78924">
        <ele>1160.8</ele>
        <time>2021-08-19T15:26:30Z</time>
      </trkpt>
      <trkpt lat="46.23411" lon="5.78919">
        <ele>1160.8</ele>
        <time>2021-08-19T15:26:32Z</time>
      </trkpt>
      <trkpt lat="46.23412" lon="5.78918">
        <ele>1160.8</ele>
        <time>2021-08-19T15:26:33Z</time>
      </trkpt>
      <trkpt lat="46.23413" lon="5.78915">
        <ele>1160.8</ele>
        <time>2021-08-19T15:26:34Z</time>
      </trkpt>
      <trkpt lat="46.23415" lon="5.78908">
        <ele>1160.8</ele>
        <time>2021-08-19T15:26:36Z</time>
      </trkpt>
      <trkpt lat="46.23417" lon="5.78902">
        <ele>1160.8</ele>
        <time>2021-08-19T15:26:37Z</time>
      </trkpt>
      <trkpt lat="46.23418" lon="5.78897">
        <ele>1160.7</ele>
        <time>2021-08-19T15:26:39Z</time>
      </trkpt>
      <trkpt lat="46.2342" lon="5.78892">
        <ele>1160.7</ele>
        <time>2021-08-19T15:26:40Z</time>
      </trkpt>
      <trkpt lat="46.23422" lon="5.78888">
        <ele>1160.6</ele>
        <time>2021-08-19T15:26:41Z</time>
      </trkpt>
      <trkpt lat="46.23423" lon="5.78884">
        <ele>1160.6</ele>
        <time>2021-08-19T15:26:43Z</time>
      </trkpt>
      <trkpt lat="46.23424" lon="5.7888">
        <ele>1160.5</ele>
        <time>2021-08-19T15:26:44Z</time>
      </trkpt>
      <trkpt lat="46.23425" lon="5.78876">
        <ele>1160.5</ele>
        <time>2021-08-19T15:26:45Z</time>
      </trkpt>
      <trkpt lat="46.23425" lon="5.78868">
        <ele>1160.5</ele>
        <time>2021-08-19T15:26:47Z</time>
      </trkpt>
      <trkpt lat="46.23426" lon="5.78863">
        <ele>1160.4</ele>
        <time>2021-08-19T15:26:48Z</time>
      </trkpt>
      <trkpt lat="46.23428" lon="5.78856">
        <ele>1160.3</ele>
        <time>2021-08-19T15:26:49Z</time>
      </trkpt>
      <trkpt lat="46.23429" lon="5.7885">
        <ele>1160.2</ele>
        <time>2021-08-19T15:26:50Z</time>
      </trkpt>
      <trkpt lat="46.2343" lon="5.78845">
        <ele>1160.1</ele>
        <time>2021-08-19T15:26:52Z</time>
      </trkpt>
      <trkpt lat="46.2343" lon="5.7884">
        <ele>1160.1</ele>
        <time>2021-08-19T15:26:53Z</time>
      </trkpt>
      <trkpt lat="46.2343" lon="5.78834">
        <ele>1160</ele>
        <time>2021-08-19T15:26:54Z</time>
      </trkpt>
      <trkpt lat="46.23423" lon="5.7882">
        <ele>1159.7</ele>
        <time>2021-08-19T15:26:56Z</time>
      </trkpt>
      <trkpt lat="46.2342" lon="5.78813">
        <ele>1159.5</ele>
        <time>2021-08-19T15:26:57Z</time>
      </trkpt>
      <trkpt lat="46.23416" lon="5.78805">
        <ele>1159.1</ele>
        <time>2021-08-19T15:26:58Z</time>
      </trkpt>
      <trkpt lat="46.23413" lon="5.78797">
        <ele>1158.8</ele>
        <time>2021-08-19T15:26:59Z</time>
      </trkpt>
      <trkpt lat="46.23411" lon="5.78789">
        <ele>1158.3</ele>
        <time>2021-08-19T15:27:00Z</time>
      </trkpt>
      <trkpt lat="46.23409" lon="5.7878">
        <ele>1157.8</ele>
        <time>2021-08-19T15:27:01Z</time>
      </trkpt>
      <trkpt lat="46.23406" lon="5.78762">
        <ele>1156.7</ele>
        <time>2021-08-19T15:27:03Z</time>
      </trkpt>
      <trkpt lat="46.23404" lon="5.78753">
        <ele>1156.1</ele>
        <time>2021-08-19T15:27:04Z</time>
      </trkpt>
      <trkpt lat="46.23395" lon="5.78737">
        <ele>1154.9</ele>
        <time>2021-08-19T15:27:06Z</time>
      </trkpt>
      <trkpt lat="46.23386" lon="5.78723">
        <ele>1153.6</ele>
        <time>2021-08-19T15:27:08Z</time>
      </trkpt>
      <trkpt lat="46.23381" lon="5.78716">
        <ele>1152.8</ele>
        <time>2021-08-19T15:27:09Z</time>
      </trkpt>
      <trkpt lat="46.23376" lon="5.78708">
        <ele>1152</ele>
        <time>2021-08-19T15:27:10Z</time>
      </trkpt>
      <trkpt lat="46.23372" lon="5.78699">
        <ele>1151.1</ele>
        <time>2021-08-19T15:27:11Z</time>
      </trkpt>
      <trkpt lat="46.23367" lon="5.78689">
        <ele>1150.2</ele>
        <time>2021-08-19T15:27:12Z</time>
      </trkpt>
      <trkpt lat="46.23359" lon="5.78669">
        <ele>1148.6</ele>
        <time>2021-08-19T15:27:14Z</time>
      </trkpt>
      <trkpt lat="46.23356" lon="5.78659">
        <ele>1147.9</ele>
        <time>2021-08-19T15:27:15Z</time>
      </trkpt>
      <trkpt lat="46.23355" lon="5.78647">
        <ele>1147.2</ele>
        <time>2021-08-19T15:27:16Z</time>
      </trkpt>
      <trkpt lat="46.2335" lon="5.78621">
        <ele>1145.6</ele>
        <time>2021-08-19T15:27:18Z</time>
      </trkpt>
      <trkpt lat="46.23345" lon="5.78597">
        <ele>1144</ele>
        <time>2021-08-19T15:27:20Z</time>
      </trkpt>
      <trkpt lat="46.23341" lon="5.78586">
        <ele>1143.1</ele>
        <time>2021-08-19T15:27:21Z</time>
      </trkpt>
      <trkpt lat="46.23336" lon="5.78574">
        <ele>1142.2</ele>
        <time>2021-08-19T15:27:22Z</time>
      </trkpt>
      <trkpt lat="46.23331" lon="5.78562">
        <ele>1141.2</ele>
        <time>2021-08-19T15:27:23Z</time>
      </trkpt>
      <trkpt lat="46.23325" lon="5.7855">
        <ele>1140.1</ele>
        <time>2021-08-19T15:27:24Z</time>
      </trkpt>
      <trkpt lat="46.23314" lon="5.78526">
        <ele>1137.9</ele>
        <time>2021-08-19T15:27:26Z</time>
      </trkpt>
      <trkpt lat="46.23307" lon="5.78498">
        <ele>1135.8</ele>
        <time>2021-08-19T15:27:28Z</time>
      </trkpt>
      <trkpt lat="46.23302" lon="5.78467">
        <ele>1134.8</ele>
        <time>2021-08-19T15:27:30Z</time>
      </trkpt>
      <trkpt lat="46.2329" lon="5.78441">
        <ele>1133.4</ele>
        <time>2021-08-19T15:27:34Z</time>
      </trkpt>
      <trkpt lat="46.23276" lon="5.7842">
        <ele>1131.7</ele>
        <time>2021-08-19T15:27:36Z</time>
      </trkpt>
      <trkpt lat="46.2327" lon="5.7841">
        <ele>1130.8</ele>
        <time>2021-08-19T15:27:37Z</time>
      </trkpt>
      <trkpt lat="46.23254" lon="5.78395">
        <ele>1129.2</ele>
        <time>2021-08-19T15:27:39Z</time>
      </trkpt>
      <trkpt lat="46.23233" lon="5.78382">
        <ele>1127.4</ele>
        <time>2021-08-19T15:27:41Z</time>
      </trkpt>
      <trkpt lat="46.23213" lon="5.78366">
        <ele>1125.7</ele>
        <time>2021-08-19T15:27:43Z</time>
      </trkpt>
      <trkpt lat="46.23202" lon="5.78358">
        <ele>1124.7</ele>
        <time>2021-08-19T15:27:44Z</time>
      </trkpt>
      <trkpt lat="46.2318" lon="5.7834">
        <ele>1123</ele>
        <time>2021-08-19T15:27:46Z</time>
      </trkpt>
      <trkpt lat="46.23161" lon="5.78317">
        <ele>1121.3</ele>
        <time>2021-08-19T15:27:48Z</time>
      </trkpt>
      <trkpt lat="46.23141" lon="5.78293">
        <ele>1119.6</ele>
        <time>2021-08-19T15:27:50Z</time>
      </trkpt>
      <trkpt lat="46.23122" lon="5.78275">
        <ele>1118.2</ele>
        <time>2021-08-19T15:27:52Z</time>
      </trkpt>
      <trkpt lat="46.23106" lon="5.78271">
        <ele>1117.1</ele>
        <time>2021-08-19T15:27:54Z</time>
      </trkpt>
      <trkpt lat="46.23098" lon="5.78271">
        <ele>1116.6</ele>
        <time>2021-08-19T15:27:55Z</time>
      </trkpt>
      <trkpt lat="46.23091" lon="5.7827">
        <ele>1116.1</ele>
        <time>2021-08-19T15:27:56Z</time>
      </trkpt>
      <trkpt lat="46.23076" lon="5.78261">
        <ele>1114.9</ele>
        <time>2021-08-19T15:27:58Z</time>
      </trkpt>
      <trkpt lat="46.23068" lon="5.78264">
        <ele>1114.4</ele>
        <time>2021-08-19T15:27:59Z</time>
      </trkpt>
      <trkpt lat="46.23052" lon="5.7826">
        <ele>1113.2</ele>
        <time>2021-08-19T15:28:01Z</time>
      </trkpt>
      <trkpt lat="46.23044" lon="5.78255">
        <ele>1112.5</ele>
        <time>2021-08-19T15:28:02Z</time>
      </trkpt>
      <trkpt lat="46.23026" lon="5.78242">
        <ele>1111.1</ele>
        <time>2021-08-19T15:28:04Z</time>
      </trkpt>
      <trkpt lat="46.23017" lon="5.78239">
        <ele>1110.5</ele>
        <time>2021-08-19T15:28:05Z</time>
      </trkpt>
      <trkpt lat="46.22999" lon="5.78231">
        <ele>1109.1</ele>
        <time>2021-08-19T15:28:07Z</time>
      </trkpt>
      <trkpt lat="46.22989" lon="5.78224">
        <ele>1108.4</ele>
        <time>2021-08-19T15:28:08Z</time>
      </trkpt>
      <trkpt lat="46.2298" lon="5.78216">
        <ele>1107.7</ele>
        <time>2021-08-19T15:28:09Z</time>
      </trkpt>
      <trkpt lat="46.2296" lon="5.78196">
        <ele>1105.9</ele>
        <time>2021-08-19T15:28:11Z</time>
      </trkpt>
      <trkpt lat="46.2295" lon="5.78183">
        <ele>1104.9</ele>
        <time>2021-08-19T15:28:12Z</time>
      </trkpt>
      <trkpt lat="46.22927" lon="5.78165">
        <ele>1103</ele>
        <time>2021-08-19T15:28:14Z</time>
      </trkpt>
      <trkpt lat="46.22902" lon="5.78153">
        <ele>1101.1</ele>
        <time>2021-08-19T15:28:16Z</time>
      </trkpt>
      <trkpt lat="46.22891" lon="5.78148">
        <ele>1100.2</ele>
        <time>2021-08-19T15:28:17Z</time>
      </trkpt>
      <trkpt lat="46.22868" lon="5.78139">
        <ele>1098.6</ele>
        <time>2021-08-19T15:28:19Z</time>
      </trkpt>
      <trkpt lat="46.22857" lon="5.78133">
        <ele>1097.7</ele>
        <time>2021-08-19T15:28:20Z</time>
      </trkpt>
      <trkpt lat="46.22837" lon="5.78121">
        <ele>1096.1</ele>
        <time>2021-08-19T15:28:22Z</time>
      </trkpt>
      <trkpt lat="46.22827" lon="5.78117">
        <ele>1095.4</ele>
        <time>2021-08-19T15:28:23Z</time>
      </trkpt>
      <trkpt lat="46.22817" lon="5.78114">
        <ele>1094.7</ele>
        <time>2021-08-19T15:28:24Z</time>
      </trkpt>
      <trkpt lat="46.22808" lon="5.78111">
        <ele>1094.1</ele>
        <time>2021-08-19T15:28:25Z</time>
      </trkpt>
      <trkpt lat="46.22798" lon="5.78107">
        <ele>1093.4</ele>
        <time>2021-08-19T15:28:26Z</time>
      </trkpt>
      <trkpt lat="46.22779" lon="5.78096">
        <ele>1092</ele>
        <time>2021-08-19T15:28:28Z</time>
      </trkpt>
      <trkpt lat="46.22771" lon="5.7809">
        <ele>1091.3</ele>
        <time>2021-08-19T15:28:29Z</time>
      </trkpt>
      <trkpt lat="46.22756" lon="5.78077">
        <ele>1090.2</ele>
        <time>2021-08-19T15:28:31Z</time>
      </trkpt>
      <trkpt lat="46.22748" lon="5.78075">
        <ele>1089.7</ele>
        <time>2021-08-19T15:28:32Z</time>
      </trkpt>
      <trkpt lat="46.22733" lon="5.78069">
        <ele>1088.7</ele>
        <time>2021-08-19T15:28:34Z</time>
      </trkpt>
      <trkpt lat="46.22719" lon="5.78061">
        <ele>1087.7</ele>
        <time>2021-08-19T15:28:36Z</time>
      </trkpt>
      <trkpt lat="46.22713" lon="5.78055">
        <ele>1087.1</ele>
        <time>2021-08-19T15:28:37Z</time>
      </trkpt>
      <trkpt lat="46.22706" lon="5.78048">
        <ele>1086.4</ele>
        <time>2021-08-19T15:28:38Z</time>
      </trkpt>
      <trkpt lat="46.22692" lon="5.78023">
        <ele>1084.9</ele>
        <time>2021-08-19T15:28:40Z</time>
      </trkpt>
      <trkpt lat="46.22673" lon="5.77981">
        <ele>1082.5</ele>
        <time>2021-08-19T15:28:42Z</time>
      </trkpt>
      <trkpt lat="46.22654" lon="5.77948">
        <ele>1079.7</ele>
        <time>2021-08-19T15:28:44Z</time>
      </trkpt>
      <trkpt lat="46.22644" lon="5.7794">
        <ele>1078.6</ele>
        <time>2021-08-19T15:28:45Z</time>
      </trkpt>
      <trkpt lat="46.22626" lon="5.77929">
        <ele>1076.7</ele>
        <time>2021-08-19T15:28:47Z</time>
      </trkpt>
      <trkpt lat="46.22612" lon="5.7792">
        <ele>1075.1</ele>
        <time>2021-08-19T15:28:49Z</time>
      </trkpt>
      <trkpt lat="46.22607" lon="5.77917">
        <ele>1074.5</ele>
        <time>2021-08-19T15:28:50Z</time>
      </trkpt>
      <trkpt lat="46.22606" lon="5.77916">
        <ele>1074.4</ele>
        <time>2021-08-19T15:28:52Z</time>
      </trkpt>
      <trkpt lat="46.22608" lon="5.77919">
        <ele>1074.1</ele>
        <time>2021-08-19T15:28:53Z</time>
      </trkpt>
      <trkpt lat="46.22609" lon="5.77921">
        <ele>1074</ele>
        <time>2021-08-19T15:28:54Z</time>
      </trkpt>
      <trkpt lat="46.22611" lon="5.77927">
        <ele>1073.5</ele>
        <time>2021-08-19T15:28:56Z</time>
      </trkpt>
      <trkpt lat="46.22612" lon="5.77932">
        <ele>1073.2</ele>
        <time>2021-08-19T15:28:58Z</time>
      </trkpt>
      <trkpt lat="46.22612" lon="5.77932">
        <ele>1073.2</ele>
        <time>2021-08-19T15:28:59Z</time>
      </trkpt>
      <trkpt lat="46.22612" lon="5.77933">
        <ele>1073.1</ele>
        <time>2021-08-19T15:29:00Z</time>
      </trkpt>
      <trkpt lat="46.22612" lon="5.77933">
        <ele>1073.1</ele>
        <time>2021-08-19T15:29:02Z</time>
      </trkpt>
      <trkpt lat="46.22612" lon="5.77932">
        <ele>1073.1</ele>
        <time>2021-08-19T15:29:03Z</time>
      </trkpt>
      <trkpt lat="46.22612" lon="5.77932">
        <ele>1073.1</ele>
        <time>2021-08-19T15:29:05Z</time>
      </trkpt>
      <trkpt lat="46.22504" lon="5.77959">
        <ele>1062.7</ele>
        <time>2021-08-19T15:31:13Z</time>
      </trkpt>
      <trkpt lat="46.22489" lon="5.77958">
        <ele>1061.3</ele>
        <time>2021-08-19T15:31:14Z</time>
      </trkpt>
      <trkpt lat="46.2246" lon="5.77959">
        <ele>1058.7</ele>
        <time>2021-08-19T15:31:16Z</time>
      </trkpt>
      <trkpt lat="46.22447" lon="5.7796">
        <ele>1057.7</ele>
        <time>2021-08-19T15:31:17Z</time>
      </trkpt>
      <trkpt lat="46.22436" lon="5.77959">
        <ele>1056.7</ele>
        <time>2021-08-19T15:31:18Z</time>
      </trkpt>
      <trkpt lat="46.22412" lon="5.77944">
        <ele>1054.5</ele>
        <time>2021-08-19T15:31:20Z</time>
      </trkpt>
      <trkpt lat="46.224" lon="5.77932">
        <ele>1053.3</ele>
        <time>2021-08-19T15:31:21Z</time>
      </trkpt>
      <trkpt lat="46.2238" lon="5.7792">
        <ele>1051.5</ele>
        <time>2021-08-19T15:31:23Z</time>
      </trkpt>
      <trkpt lat="46.22372" lon="5.77916">
        <ele>1050.8</ele>
        <time>2021-08-19T15:31:24Z</time>
      </trkpt>
      <trkpt lat="46.22364" lon="5.77913">
        <ele>1050.1</ele>
        <time>2021-08-19T15:31:25Z</time>
      </trkpt>
      <trkpt lat="46.22358" lon="5.7791">
        <ele>1049.5</ele>
        <time>2021-08-19T15:31:26Z</time>
      </trkpt>
      <trkpt lat="46.22343" lon="5.77906">
        <ele>1048.2</ele>
        <time>2021-08-19T15:31:28Z</time>
      </trkpt>
      <trkpt lat="46.2233" lon="5.77891">
        <ele>1046.7</ele>
        <time>2021-08-19T15:31:30Z</time>
      </trkpt>
      <trkpt lat="46.2232" lon="5.77872">
        <ele>1045.2</ele>
        <time>2021-08-19T15:31:32Z</time>
      </trkpt>
      <trkpt lat="46.22317" lon="5.77853">
        <ele>1044.1</ele>
        <time>2021-08-19T15:31:34Z</time>
      </trkpt>
      <trkpt lat="46.22317" lon="5.77842">
        <ele>1043.4</ele>
        <time>2021-08-19T15:31:35Z</time>
      </trkpt>
      <trkpt lat="46.2232" lon="5.7783">
        <ele>1042.6</ele>
        <time>2021-08-19T15:31:36Z</time>
      </trkpt>
      <trkpt lat="46.22325" lon="5.77818">
        <ele>1041.8</ele>
        <time>2021-08-19T15:31:37Z</time>
      </trkpt>
      <trkpt lat="46.22331" lon="5.77807">
        <ele>1041</ele>
        <time>2021-08-19T15:31:38Z</time>
      </trkpt>
      <trkpt lat="46.22345" lon="5.77791">
        <ele>1039.4</ele>
        <time>2021-08-19T15:31:40Z</time>
      </trkpt>
      <trkpt lat="46.22359" lon="5.77785">
        <ele>1038.1</ele>
        <time>2021-08-19T15:31:42Z</time>
      </trkpt>
      <trkpt lat="46.22368" lon="5.77783">
        <ele>1037.3</ele>
        <time>2021-08-19T15:31:43Z</time>
      </trkpt>
      <trkpt lat="46.22377" lon="5.7778">
        <ele>1036.4</ele>
        <time>2021-08-19T15:31:44Z</time>
      </trkpt>
      <trkpt lat="46.22397" lon="5.77768">
        <ele>1034.5</ele>
        <time>2021-08-19T15:31:46Z</time>
      </trkpt>
      <trkpt lat="46.22413" lon="5.7775">
        <ele>1032.6</ele>
        <time>2021-08-19T15:31:48Z</time>
      </trkpt>
      <trkpt lat="46.22419" lon="5.77737">
        <ele>1031.8</ele>
        <time>2021-08-19T15:31:49Z</time>
      </trkpt>
      <trkpt lat="46.22426" lon="5.7771">
        <ele>1030.1</ele>
        <time>2021-08-19T15:31:51Z</time>
      </trkpt>
      <trkpt lat="46.22431" lon="5.77683">
        <ele>1028.5</ele>
        <time>2021-08-19T15:31:53Z</time>
      </trkpt>
      <trkpt lat="46.22435" lon="5.77659">
        <ele>1027</ele>
        <time>2021-08-19T15:31:55Z</time>
      </trkpt>
      <trkpt lat="46.22438" lon="5.77649">
        <ele>1026.4</ele>
        <time>2021-08-19T15:31:56Z</time>
      </trkpt>
      <trkpt lat="46.22444" lon="5.77634">
        <ele>1025.3</ele>
        <time>2021-08-19T15:31:58Z</time>
      </trkpt>
      <trkpt lat="46.22449" lon="5.77627">
        <ele>1024.7</ele>
        <time>2021-08-19T15:31:59Z</time>
      </trkpt>
      <trkpt lat="46.22455" lon="5.77622">
        <ele>1024.1</ele>
        <time>2021-08-19T15:32:00Z</time>
      </trkpt>
      <trkpt lat="46.2247" lon="5.77615">
        <ele>1022.6</ele>
        <time>2021-08-19T15:32:02Z</time>
      </trkpt>
      <trkpt lat="46.22485" lon="5.77608">
        <ele>1021.2</ele>
        <time>2021-08-19T15:32:04Z</time>
      </trkpt>
      <trkpt lat="46.22493" lon="5.77604">
        <ele>1020.4</ele>
        <time>2021-08-19T15:32:05Z</time>
      </trkpt>
      <trkpt lat="46.22501" lon="5.77599">
        <ele>1019.7</ele>
        <time>2021-08-19T15:32:06Z</time>
      </trkpt>
      <trkpt lat="46.22508" lon="5.77592">
        <ele>1018.9</ele>
        <time>2021-08-19T15:32:07Z</time>
      </trkpt>
      <trkpt lat="46.22516" lon="5.77585">
        <ele>1018.1</ele>
        <time>2021-08-19T15:32:08Z</time>
      </trkpt>
      <trkpt lat="46.22532" lon="5.7757">
        <ele>1016.5</ele>
        <time>2021-08-19T15:32:10Z</time>
      </trkpt>
      <trkpt lat="46.22541" lon="5.77564">
        <ele>1015.7</ele>
        <time>2021-08-19T15:32:11Z</time>
      </trkpt>
      <trkpt lat="46.2255" lon="5.77558">
        <ele>1014.9</ele>
        <time>2021-08-19T15:32:12Z</time>
      </trkpt>
      <trkpt lat="46.22568" lon="5.77548">
        <ele>1013.3</ele>
        <time>2021-08-19T15:32:14Z</time>
      </trkpt>
      <trkpt lat="46.22583" lon="5.77534">
        <ele>1012.1</ele>
        <time>2021-08-19T15:32:16Z</time>
      </trkpt>
      <trkpt lat="46.22589" lon="5.77527">
        <ele>1011.6</ele>
        <time>2021-08-19T15:32:17Z</time>
      </trkpt>
      <trkpt lat="46.22595" lon="5.7752">
        <ele>1011.2</ele>
        <time>2021-08-19T15:32:18Z</time>
      </trkpt>
      <trkpt lat="46.22605" lon="5.77511">
        <ele>1010.5</ele>
        <time>2021-08-19T15:32:20Z</time>
      </trkpt>
      <trkpt lat="46.22614" lon="5.775">
        <ele>1009.8</ele>
        <time>2021-08-19T15:32:22Z</time>
      </trkpt>
      <trkpt lat="46.22617" lon="5.77493">
        <ele>1009.5</ele>
        <time>2021-08-19T15:32:23Z</time>
      </trkpt>
      <trkpt lat="46.22623" lon="5.77479">
        <ele>1009</ele>
        <time>2021-08-19T15:32:25Z</time>
      </trkpt>
      <trkpt lat="46.22625" lon="5.77467">
        <ele>1008.7</ele>
        <time>2021-08-19T15:32:27Z</time>
      </trkpt>
      <trkpt lat="46.22625" lon="5.7746">
        <ele>1008.5</ele>
        <time>2021-08-19T15:32:28Z</time>
      </trkpt>
      <trkpt lat="46.22623" lon="5.77448">
        <ele>1008.1</ele>
        <time>2021-08-19T15:32:30Z</time>
      </trkpt>
      <trkpt lat="46.22623" lon="5.77438">
        <ele>1007.8</ele>
        <time>2021-08-19T15:32:32Z</time>
      </trkpt>
      <trkpt lat="46.22624" lon="5.77433">
        <ele>1007.8</ele>
        <time>2021-08-19T15:32:33Z</time>
      </trkpt>
      <trkpt lat="46.22629" lon="5.77425">
        <ele>1006.9</ele>
        <time>2021-08-19T15:32:35Z</time>
      </trkpt>
      <trkpt lat="46.22634" lon="5.77414">
        <ele>1006.1</ele>
        <time>2021-08-19T15:32:37Z</time>
      </trkpt>
      <trkpt lat="46.22636" lon="5.7741">
        <ele>1005.8</ele>
        <time>2021-08-19T15:32:38Z</time>
      </trkpt>
      <trkpt lat="46.22639" lon="5.77399">
        <ele>1005.2</ele>
        <time>2021-08-19T15:32:40Z</time>
      </trkpt>
      <trkpt lat="46.22639" lon="5.77395">
        <ele>1005</ele>
        <time>2021-08-19T15:32:41Z</time>
      </trkpt>
      <trkpt lat="46.2264" lon="5.77388">
        <ele>1004.8</ele>
        <time>2021-08-19T15:32:43Z</time>
      </trkpt>
      <trkpt lat="46.2264" lon="5.77384">
        <ele>1004.6</ele>
        <time>2021-08-19T15:32:45Z</time>
      </trkpt>
      <trkpt lat="46.22637" lon="5.77379">
        <ele>1004.4</ele>
        <time>2021-08-19T15:32:47Z</time>
      </trkpt>
      <trkpt lat="46.22632" lon="5.77379">
        <ele>1004.6</ele>
        <time>2021-08-19T15:32:49Z</time>
      </trkpt>
      <trkpt lat="46.22629" lon="5.77379">
        <ele>1004.7</ele>
        <time>2021-08-19T15:32:50Z</time>
      </trkpt>
      <trkpt lat="46.22624" lon="5.7738">
        <ele>1004.9</ele>
        <time>2021-08-19T15:32:52Z</time>
      </trkpt>
      <trkpt lat="46.22619" lon="5.77381">
        <ele>1005.1</ele>
        <time>2021-08-19T15:32:54Z</time>
      </trkpt>
      <trkpt lat="46.22615" lon="5.77381">
        <ele>1005.2</ele>
        <time>2021-08-19T15:32:56Z</time>
      </trkpt>
      <trkpt lat="46.2261" lon="5.77382">
        <ele>1005.4</ele>
        <time>2021-08-19T15:32:58Z</time>
      </trkpt>
      <trkpt lat="46.22608" lon="5.77382">
        <ele>1005.5</ele>
        <time>2021-08-19T15:32:59Z</time>
      </trkpt>
      <trkpt lat="46.22605" lon="5.77382">
        <ele>1005.6</ele>
        <time>2021-08-19T15:33:00Z</time>
      </trkpt>
      <trkpt lat="46.22599" lon="5.77384">
        <ele>1005.8</ele>
        <time>2021-08-19T15:33:02Z</time>
      </trkpt>
      <trkpt lat="46.22596" lon="5.77384">
        <ele>1005.9</ele>
        <time>2021-08-19T15:33:03Z</time>
      </trkpt>
      <trkpt lat="46.22594" lon="5.77383">
        <ele>1005.9</ele>
        <time>2021-08-19T15:33:04Z</time>
      </trkpt>
      <trkpt lat="46.22588" lon="5.77383">
        <ele>1006.1</ele>
        <time>2021-08-19T15:33:06Z</time>
      </trkpt>
      <trkpt lat="46.22583" lon="5.77382">
        <ele>1006.3</ele>
        <time>2021-08-19T15:33:08Z</time>
      </trkpt>
      <trkpt lat="46.22577" lon="5.77381">
        <ele>1006.3</ele>
        <time>2021-08-19T15:33:10Z</time>
      </trkpt>
      <trkpt lat="46.22574" lon="5.7738">
        <ele>1006.3</ele>
        <time>2021-08-19T15:33:11Z</time>
      </trkpt>
      <trkpt lat="46.22569" lon="5.77379">
        <ele>1006.4</ele>
        <time>2021-08-19T15:33:13Z</time>
      </trkpt>
      <trkpt lat="46.22567" lon="5.77378">
        <ele>1006.3</ele>
        <time>2021-08-19T15:33:14Z</time>
      </trkpt>
      <trkpt lat="46.22561" lon="5.77375">
        <ele>1006.3</ele>
        <time>2021-08-19T15:33:16Z</time>
      </trkpt>
      <trkpt lat="46.22557" lon="5.77375">
        <ele>1006.2</ele>
        <time>2021-08-19T15:33:17Z</time>
      </trkpt>
      <trkpt lat="46.22556" lon="5.77375">
        <ele>1006.1</ele>
        <time>2021-08-19T15:33:18Z</time>
      </trkpt>
      <trkpt lat="46.22551" lon="5.77374">
        <ele>1006</ele>
        <time>2021-08-19T15:33:20Z</time>
      </trkpt>
      <trkpt lat="46.22545" lon="5.77374">
        <ele>1005.8</ele>
        <time>2021-08-19T15:33:22Z</time>
      </trkpt>
      <trkpt lat="46.22542" lon="5.77375">
        <ele>1005.6</ele>
        <time>2021-08-19T15:33:23Z</time>
      </trkpt>
      <trkpt lat="46.22537" lon="5.77377">
        <ele>1005.4</ele>
        <time>2021-08-19T15:33:25Z</time>
      </trkpt>
      <trkpt lat="46.22533" lon="5.77381">
        <ele>1005.2</ele>
        <time>2021-08-19T15:33:26Z</time>
      </trkpt>
      <trkpt lat="46.22529" lon="5.77383">
        <ele>1004.9</ele>
        <time>2021-08-19T15:33:28Z</time>
      </trkpt>
      <trkpt lat="46.2252" lon="5.77386">
        <ele>1004.4</ele>
        <time>2021-08-19T15:33:29Z</time>
      </trkpt>
      <trkpt lat="46.22511" lon="5.77392">
        <ele>1003.8</ele>
        <time>2021-08-19T15:33:31Z</time>
      </trkpt>
      <trkpt lat="46.22506" lon="5.77395">
        <ele>1003.5</ele>
        <time>2021-08-19T15:33:32Z</time>
      </trkpt>
      <trkpt lat="46.22495" lon="5.77401">
        <ele>1002.8</ele>
        <time>2021-08-19T15:33:34Z</time>
      </trkpt>
      <trkpt lat="46.22488" lon="5.77403">
        <ele>1002.3</ele>
        <time>2021-08-19T15:33:35Z</time>
      </trkpt>
      <trkpt lat="46.2248" lon="5.77406">
        <ele>1001.9</ele>
        <time>2021-08-19T15:33:36Z</time>
      </trkpt>
      <trkpt lat="46.22465" lon="5.77416">
        <ele>1001.1</ele>
        <time>2021-08-19T15:33:38Z</time>
      </trkpt>
      <trkpt lat="46.22453" lon="5.77425">
        <ele>1000.5</ele>
        <time>2021-08-19T15:33:40Z</time>
      </trkpt>
      <trkpt lat="46.22443" lon="5.77435">
        <ele>1000.1</ele>
        <time>2021-08-19T15:33:42Z</time>
      </trkpt>
      <trkpt lat="46.22433" lon="5.77444">
        <ele>999.7</ele>
        <time>2021-08-19T15:33:44Z</time>
      </trkpt>
      <trkpt lat="46.22423" lon="5.77453">
        <ele>999.4</ele>
        <time>2021-08-19T15:33:46Z</time>
      </trkpt>
      <trkpt lat="46.22418" lon="5.77456">
        <ele>999.3</ele>
        <time>2021-08-19T15:33:47Z</time>
      </trkpt>
      <trkpt lat="46.22414" lon="5.77459">
        <ele>999.3</ele>
        <time>2021-08-19T15:33:48Z</time>
      </trkpt>
      <trkpt lat="46.22406" lon="5.77465">
        <ele>999.1</ele>
        <time>2021-08-19T15:33:50Z</time>
      </trkpt>
      <trkpt lat="46.22398" lon="5.7747">
        <ele>998.5</ele>
        <time>2021-08-19T15:33:52Z</time>
      </trkpt>
      <trkpt lat="46.22397" lon="5.7747">
        <ele>998.4</ele>
        <time>2021-08-19T15:33:54Z</time>
      </trkpt>
      <trkpt lat="46.22395" lon="5.77471">
        <ele>998.3</ele>
        <time>2021-08-19T15:33:55Z</time>
      </trkpt>
      <trkpt lat="46.22394" lon="5.77472">
        <ele>998.2</ele>
        <time>2021-08-19T15:33:56Z</time>
      </trkpt>
      <trkpt lat="46.22385" lon="5.77475">
        <ele>997.7</ele>
        <time>2021-08-19T15:33:58Z</time>
      </trkpt>
      <trkpt lat="46.22381" lon="5.77476">
        <ele>997.5</ele>
        <time>2021-08-19T15:33:59Z</time>
      </trkpt>
      <trkpt lat="46.22375" lon="5.77475">
        <ele>997.1</ele>
        <time>2021-08-19T15:34:00Z</time>
      </trkpt>
      <trkpt lat="46.22372" lon="5.77475">
        <ele>996.9</ele>
        <time>2021-08-19T15:34:02Z</time>
      </trkpt>
      <trkpt lat="46.22363" lon="5.77475">
        <ele>996.6</ele>
        <time>2021-08-19T15:34:03Z</time>
      </trkpt>
      <trkpt lat="46.22343" lon="5.77477">
        <ele>995.9</ele>
        <time>2021-08-19T15:34:05Z</time>
      </trkpt>
      <trkpt lat="46.22343" lon="5.77477">
        <ele>995.9</ele>
        <time>2021-08-19T15:34:05Z</time>
      </trkpt>
      <trkpt lat="46.22335" lon="5.77478">
        <ele>995.7</ele>
        <time>2021-08-19T15:34:07Z</time>
      </trkpt>
      <trkpt lat="46.22319" lon="5.77484">
        <ele>995.5</ele>
        <time>2021-08-19T15:34:08Z</time>
      </trkpt>
      <trkpt lat="46.2231" lon="5.77491">
        <ele>995.4</ele>
        <time>2021-08-19T15:34:10Z</time>
      </trkpt>
      <trkpt lat="46.22306" lon="5.77491">
        <ele>995.4</ele>
        <time>2021-08-19T15:34:12Z</time>
      </trkpt>
      <trkpt lat="46.22304" lon="5.7749">
        <ele>995.3</ele>
        <time>2021-08-19T15:34:13Z</time>
      </trkpt>
      <trkpt lat="46.22302" lon="5.77489">
        <ele>995.3</ele>
        <time>2021-08-19T15:34:15Z</time>
      </trkpt>
      <trkpt lat="46.22296" lon="5.77481">
        <ele>995.3</ele>
        <time>2021-08-19T15:34:16Z</time>
      </trkpt>
      <trkpt lat="46.22289" lon="5.77472">
        <ele>995.1</ele>
        <time>2021-08-19T15:34:17Z</time>
      </trkpt>
      <trkpt lat="46.22283" lon="5.77462">
        <ele>994.7</ele>
        <time>2021-08-19T15:34:18Z</time>
      </trkpt>
      <trkpt lat="46.22279" lon="5.77455">
        <ele>994.4</ele>
        <time>2021-08-19T15:34:19Z</time>
      </trkpt>
      <trkpt lat="46.22276" lon="5.77449">
        <ele>994.1</ele>
        <time>2021-08-19T15:34:21Z</time>
      </trkpt>
      <trkpt lat="46.22272" lon="5.77436">
        <ele>993.7</ele>
        <time>2021-08-19T15:34:22Z</time>
      </trkpt>
      <trkpt lat="46.22269" lon="5.77425">
        <ele>993.6</ele>
        <time>2021-08-19T15:34:24Z</time>
      </trkpt>
      <trkpt lat="46.22266" lon="5.77413">
        <ele>993.4</ele>
        <time>2021-08-19T15:34:25Z</time>
      </trkpt>
      <trkpt lat="46.22263" lon="5.77402">
        <ele>992.8</ele>
        <time>2021-08-19T15:34:27Z</time>
      </trkpt>
      <trkpt lat="46.22262" lon="5.77399">
        <ele>992.6</ele>
        <time>2021-08-19T15:34:28Z</time>
      </trkpt>
      <trkpt lat="46.2226" lon="5.77394">
        <ele>992.3</ele>
        <time>2021-08-19T15:34:30Z</time>
      </trkpt>
      <trkpt lat="46.2226" lon="5.77392">
        <ele>992.2</ele>
        <time>2021-08-19T15:34:31Z</time>
      </trkpt>
      <trkpt lat="46.22256" lon="5.77381">
        <ele>991.5</ele>
        <time>2021-08-19T15:34:33Z</time>
      </trkpt>
      <trkpt lat="46.22251" lon="5.77369">
        <ele>990.6</ele>
        <time>2021-08-19T15:34:34Z</time>
      </trkpt>
      <trkpt lat="46.22248" lon="5.7736">
        <ele>990</ele>
        <time>2021-08-19T15:34:35Z</time>
      </trkpt>
      <trkpt lat="46.22243" lon="5.77291">
        <ele>985.7</ele>
        <time>2021-08-19T15:34:36Z</time>
      </trkpt>
      <trkpt lat="46.22245" lon="5.77264">
        <ele>984</ele>
        <time>2021-08-19T15:34:38Z</time>
      </trkpt>
      <trkpt lat="46.22259" lon="5.77226">
        <ele>981.5</ele>
        <time>2021-08-19T15:34:40Z</time>
      </trkpt>
      <trkpt lat="46.22265" lon="5.77213">
        <ele>980.6</ele>
        <time>2021-08-19T15:34:41Z</time>
      </trkpt>
      <trkpt lat="46.22272" lon="5.77204">
        <ele>979.8</ele>
        <time>2021-08-19T15:34:42Z</time>
      </trkpt>
      <trkpt lat="46.22286" lon="5.77196">
        <ele>978.7</ele>
        <time>2021-08-19T15:34:44Z</time>
      </trkpt>
      <trkpt lat="46.22299" lon="5.77183">
        <ele>977.8</ele>
        <time>2021-08-19T15:34:46Z</time>
      </trkpt>
      <trkpt lat="46.2231" lon="5.77168">
        <ele>976.2</ele>
        <time>2021-08-19T15:34:48Z</time>
      </trkpt>
      <trkpt lat="46.2232" lon="5.77152">
        <ele>975.9</ele>
        <time>2021-08-19T15:34:50Z</time>
      </trkpt>
      <trkpt lat="46.22327" lon="5.77144">
        <ele>975.8</ele>
        <time>2021-08-19T15:34:52Z</time>
      </trkpt>
      <trkpt lat="46.22331" lon="5.77141">
        <ele>975.7</ele>
        <time>2021-08-19T15:34:54Z</time>
      </trkpt>
      <trkpt lat="46.22331" lon="5.7714">
        <ele>975.7</ele>
        <time>2021-08-19T15:34:55Z</time>
      </trkpt>
      <trkpt lat="46.22328" lon="5.77141">
        <ele>975.6</ele>
        <time>2021-08-19T15:34:57Z</time>
      </trkpt>
      <trkpt lat="46.22327" lon="5.77142">
        <ele>975.5</ele>
        <time>2021-08-19T15:34:59Z</time>
      </trkpt>
      <trkpt lat="46.22326" lon="5.77143">
        <ele>975.5</ele>
        <time>2021-08-19T15:35:01Z</time>
      </trkpt>
      <trkpt lat="46.22325" lon="5.77144">
        <ele>975.4</ele>
        <time>2021-08-19T15:35:02Z</time>
      </trkpt>
      <trkpt lat="46.22322" lon="5.77148">
        <ele>975.2</ele>
        <time>2021-08-19T15:35:04Z</time>
      </trkpt>
      <trkpt lat="46.22312" lon="5.77164">
        <ele>974.8</ele>
        <time>2021-08-19T15:35:08Z</time>
      </trkpt>
      <trkpt lat="46.22307" lon="5.77167">
        <ele>974.8</ele>
        <time>2021-08-19T15:35:10Z</time>
      </trkpt>
      <trkpt lat="46.223" lon="5.77168">
        <ele>974.8</ele>
        <time>2021-08-19T15:35:11Z</time>
      </trkpt>
      <trkpt lat="46.22289" lon="5.77167">
        <ele>975</ele>
        <time>2021-08-19T15:35:13Z</time>
      </trkpt>
      <trkpt lat="46.22283" lon="5.77165">
        <ele>975.2</ele>
        <time>2021-08-19T15:35:14Z</time>
      </trkpt>
      <trkpt lat="46.22277" lon="5.7716">
        <ele>975.5</ele>
        <time>2021-08-19T15:35:16Z</time>
      </trkpt>
      <trkpt lat="46.22271" lon="5.77153">
        <ele>975.9</ele>
        <time>2021-08-19T15:35:17Z</time>
      </trkpt>
      <trkpt lat="46.22268" lon="5.77149">
        <ele>976</ele>
        <time>2021-08-19T15:35:18Z</time>
      </trkpt>
      <trkpt lat="46.22266" lon="5.77146">
        <ele>976.2</ele>
        <time>2021-08-19T15:35:19Z</time>
      </trkpt>
      <trkpt lat="46.22264" lon="5.77143">
        <ele>976.3</ele>
        <time>2021-08-19T15:35:20Z</time>
      </trkpt>
      <trkpt lat="46.22259" lon="5.77137">
        <ele>976.6</ele>
        <time>2021-08-19T15:35:22Z</time>
      </trkpt>
      <trkpt lat="46.22257" lon="5.77134">
        <ele>976.7</ele>
        <time>2021-08-19T15:35:23Z</time>
      </trkpt>
      <trkpt lat="46.22253" lon="5.7713">
        <ele>976.9</ele>
        <time>2021-08-19T15:35:25Z</time>
      </trkpt>
      <trkpt lat="46.22248" lon="5.77125">
        <ele>977.2</ele>
        <time>2021-08-19T15:35:27Z</time>
      </trkpt>
      <trkpt lat="46.22242" lon="5.77121">
        <ele>977.4</ele>
        <time>2021-08-19T15:35:29Z</time>
      </trkpt>
      <trkpt lat="46.22239" lon="5.77119">
        <ele>977.5</ele>
        <time>2021-08-19T15:35:30Z</time>
      </trkpt>
      <trkpt lat="46.22234" lon="5.77116">
        <ele>977.6</ele>
        <time>2021-08-19T15:35:32Z</time>
      </trkpt>
      <trkpt lat="46.22229" lon="5.77112">
        <ele>977.8</ele>
        <time>2021-08-19T15:35:34Z</time>
      </trkpt>
      <trkpt lat="46.22226" lon="5.77109">
        <ele>977.8</ele>
        <time>2021-08-19T15:35:35Z</time>
      </trkpt>
      <trkpt lat="46.22222" lon="5.77103">
        <ele>977.9</ele>
        <time>2021-08-19T15:35:37Z</time>
      </trkpt>
      <trkpt lat="46.2222" lon="5.771">
        <ele>977.9</ele>
        <time>2021-08-19T15:35:38Z</time>
      </trkpt>
      <trkpt lat="46.22215" lon="5.77096">
        <ele>977.9</ele>
        <time>2021-08-19T15:35:40Z</time>
      </trkpt>
      <trkpt lat="46.22213" lon="5.77094">
        <ele>977.8</ele>
        <time>2021-08-19T15:35:41Z</time>
      </trkpt>
      <trkpt lat="46.22206" lon="5.7709">
        <ele>977.7</ele>
        <time>2021-08-19T15:35:43Z</time>
      </trkpt>
      <trkpt lat="46.22202" lon="5.77088">
        <ele>977.6</ele>
        <time>2021-08-19T15:35:44Z</time>
      </trkpt>
      <trkpt lat="46.22193" lon="5.77089">
        <ele>977.3</ele>
        <time>2021-08-19T15:35:46Z</time>
      </trkpt>
      <trkpt lat="46.22188" lon="5.77089">
        <ele>977.1</ele>
        <time>2021-08-19T15:35:47Z</time>
      </trkpt>
      <trkpt lat="46.22178" lon="5.77091">
        <ele>976.7</ele>
        <time>2021-08-19T15:35:49Z</time>
      </trkpt>
      <trkpt lat="46.22171" lon="5.77092">
        <ele>976.5</ele>
        <time>2021-08-19T15:35:50Z</time>
      </trkpt>
      <trkpt lat="46.2216" lon="5.77091">
        <ele>976.2</ele>
        <time>2021-08-19T15:35:52Z</time>
      </trkpt>
      <trkpt lat="46.22155" lon="5.77091">
        <ele>976.1</ele>
        <time>2021-08-19T15:35:53Z</time>
      </trkpt>
      <trkpt lat="46.22145" lon="5.77092">
        <ele>976</ele>
        <time>2021-08-19T15:35:55Z</time>
      </trkpt>
      <trkpt lat="46.22139" lon="5.77092">
        <ele>976</ele>
        <time>2021-08-19T15:35:56Z</time>
      </trkpt>
      <trkpt lat="46.22135" lon="5.77093">
        <ele>976</ele>
        <time>2021-08-19T15:35:57Z</time>
      </trkpt>
      <trkpt lat="46.22127" lon="5.77092">
        <ele>976</ele>
        <time>2021-08-19T15:35:59Z</time>
      </trkpt>
      <trkpt lat="46.22122" lon="5.77093">
        <ele>976.1</ele>
        <time>2021-08-19T15:36:00Z</time>
      </trkpt>
      <trkpt lat="46.22119" lon="5.77093">
        <ele>976.1</ele>
        <time>2021-08-19T15:36:01Z</time>
      </trkpt>
      <trkpt lat="46.22115" lon="5.77092">
        <ele>976.2</ele>
        <time>2021-08-19T15:36:03Z</time>
      </trkpt>
      <trkpt lat="46.22109" lon="5.77093">
        <ele>976.3</ele>
        <time>2021-08-19T15:36:04Z</time>
      </trkpt>
      <trkpt lat="46.22103" lon="5.77093">
        <ele>976.5</ele>
        <time>2021-08-19T15:36:05Z</time>
      </trkpt>
      <trkpt lat="46.22099" lon="5.77092">
        <ele>976.6</ele>
        <time>2021-08-19T15:36:06Z</time>
      </trkpt>
      <trkpt lat="46.2209" lon="5.77089">
        <ele>976.8</ele>
        <time>2021-08-19T15:36:08Z</time>
      </trkpt>
      <trkpt lat="46.22083" lon="5.77085">
        <ele>977</ele>
        <time>2021-08-19T15:36:10Z</time>
      </trkpt>
      <trkpt lat="46.22077" lon="5.77087">
        <ele>977.1</ele>
        <time>2021-08-19T15:36:12Z</time>
      </trkpt>
      <trkpt lat="46.22073" lon="5.77089">
        <ele>977.2</ele>
        <time>2021-08-19T15:36:13Z</time>
      </trkpt>
      <trkpt lat="46.22067" lon="5.77089">
        <ele>977.4</ele>
        <time>2021-08-19T15:36:15Z</time>
      </trkpt>
      <trkpt lat="46.22062" lon="5.77085">
        <ele>977.5</ele>
        <time>2021-08-19T15:36:17Z</time>
      </trkpt>
      <trkpt lat="46.22059" lon="5.7708">
        <ele>977.6</ele>
        <time>2021-08-19T15:36:19Z</time>
      </trkpt>
      <trkpt lat="46.22057" lon="5.77076">
        <ele>977.7</ele>
        <time>2021-08-19T15:36:20Z</time>
      </trkpt>
      <trkpt lat="46.22055" lon="5.77071">
        <ele>977.8</ele>
        <time>2021-08-19T15:36:21Z</time>
      </trkpt>
      <trkpt lat="46.22053" lon="5.77066">
        <ele>977.9</ele>
        <time>2021-08-19T15:36:22Z</time>
      </trkpt>
      <trkpt lat="46.2205" lon="5.77058">
        <ele>978.1</ele>
        <time>2021-08-19T15:36:24Z</time>
      </trkpt>
      <trkpt lat="46.22045" lon="5.77049">
        <ele>978.4</ele>
        <time>2021-08-19T15:36:26Z</time>
      </trkpt>
      <trkpt lat="46.22041" lon="5.77046">
        <ele>978.5</ele>
        <time>2021-08-19T15:36:27Z</time>
      </trkpt>
      <trkpt lat="46.22039" lon="5.7704">
        <ele>978.8</ele>
        <time>2021-08-19T15:36:29Z</time>
      </trkpt>
      <trkpt lat="46.22038" lon="5.77037">
        <ele>978.8</ele>
        <time>2021-08-19T15:36:30Z</time>
      </trkpt>
      <trkpt lat="46.22039" lon="5.77036">
        <ele>978.9</ele>
        <time>2021-08-19T15:36:31Z</time>
      </trkpt>
      <trkpt lat="46.2204" lon="5.77035">
        <ele>978.9</ele>
        <time>2021-08-19T15:36:33Z</time>
      </trkpt>
      <trkpt lat="46.22042" lon="5.77032">
        <ele>979.1</ele>
        <time>2021-08-19T15:36:35Z</time>
      </trkpt>
      <trkpt lat="46.22044" lon="5.7703">
        <ele>979.2</ele>
        <time>2021-08-19T15:36:37Z</time>
      </trkpt>
      <trkpt lat="46.2207" lon="5.77019">
        <ele>980.7</ele>
        <time>2021-08-19T15:36:43Z</time>
      </trkpt>
      <trkpt lat="46.22074" lon="5.77015">
        <ele>981</ele>
        <time>2021-08-19T15:36:44Z</time>
      </trkpt>
      <trkpt lat="46.22081" lon="5.77007">
        <ele>981.5</ele>
        <time>2021-08-19T15:36:46Z</time>
      </trkpt>
      <trkpt lat="46.22085" lon="5.77002">
        <ele>981.8</ele>
        <time>2021-08-19T15:36:47Z</time>
      </trkpt>
      <trkpt lat="46.2209" lon="5.76996">
        <ele>982.2</ele>
        <time>2021-08-19T15:36:49Z</time>
      </trkpt>
      <trkpt lat="46.22092" lon="5.76994">
        <ele>982.3</ele>
        <time>2021-08-19T15:36:50Z</time>
      </trkpt>
      <trkpt lat="46.22094" lon="5.76994">
        <ele>982.5</ele>
        <time>2021-08-19T15:36:52Z</time>
      </trkpt>
      <trkpt lat="46.22094" lon="5.76989">
        <ele>982.6</ele>
        <time>2021-08-19T15:36:53Z</time>
      </trkpt>
      <trkpt lat="46.22094" lon="5.76986">
        <ele>982.8</ele>
        <time>2021-08-19T15:36:54Z</time>
      </trkpt>
      <trkpt lat="46.22093" lon="5.7698">
        <ele>983</ele>
        <time>2021-08-19T15:36:56Z</time>
      </trkpt>
      <trkpt lat="46.22093" lon="5.76977">
        <ele>983.1</ele>
        <time>2021-08-19T15:36:57Z</time>
      </trkpt>
      <trkpt lat="46.22092" lon="5.76973">
        <ele>983.3</ele>
        <time>2021-08-19T15:36:58Z</time>
      </trkpt>
      <trkpt lat="46.22092" lon="5.76972">
        <ele>983.4</ele>
        <time>2021-08-19T15:36:59Z</time>
      </trkpt>
      <trkpt lat="46.22092" lon="5.76968">
        <ele>983.5</ele>
        <time>2021-08-19T15:37:00Z</time>
      </trkpt>
      <trkpt lat="46.22091" lon="5.76961">
        <ele>983.8</ele>
        <time>2021-08-19T15:37:02Z</time>
      </trkpt>
      <trkpt lat="46.2209" lon="5.76956">
        <ele>984.1</ele>
        <time>2021-08-19T15:37:04Z</time>
      </trkpt>
      <trkpt lat="46.2209" lon="5.76956">
        <ele>984.1</ele>
        <time>2021-08-19T15:37:04Z</time>
      </trkpt>
      <trkpt lat="46.22088" lon="5.76952">
        <ele>984.3</ele>
        <time>2021-08-19T15:37:05Z</time>
      </trkpt>
      <trkpt lat="46.22085" lon="5.76947">
        <ele>984.6</ele>
        <time>2021-08-19T15:37:07Z</time>
      </trkpt>
      <trkpt lat="46.22083" lon="5.76943">
        <ele>984.9</ele>
        <time>2021-08-19T15:37:08Z</time>
      </trkpt>
      <trkpt lat="46.22081" lon="5.7694">
        <ele>985.1</ele>
        <time>2021-08-19T15:37:09Z</time>
      </trkpt>
      <trkpt lat="46.22079" lon="5.76938">
        <ele>985.3</ele>
        <time>2021-08-19T15:37:11Z</time>
      </trkpt>
      <trkpt lat="46.22078" lon="5.76937">
        <ele>985.3</ele>
        <time>2021-08-19T15:37:12Z</time>
      </trkpt>
      <trkpt lat="46.22079" lon="5.76938">
        <ele>985.4</ele>
        <time>2021-08-19T15:37:13Z</time>
      </trkpt>
      <trkpt lat="46.22083" lon="5.7694">
        <ele>985.7</ele>
        <time>2021-08-19T15:37:15Z</time>
      </trkpt>
      <trkpt lat="46.22086" lon="5.76937">
        <ele>986</ele>
        <time>2021-08-19T15:37:16Z</time>
      </trkpt>
      <trkpt lat="46.22088" lon="5.76934">
        <ele>986.2</ele>
        <time>2021-08-19T15:37:17Z</time>
      </trkpt>
      <trkpt lat="46.22091" lon="5.76931">
        <ele>986.5</ele>
        <time>2021-08-19T15:37:19Z</time>
      </trkpt>
      <trkpt lat="46.22094" lon="5.76928">
        <ele>986.7</ele>
        <time>2021-08-19T15:37:20Z</time>
      </trkpt>
      <trkpt lat="46.22096" lon="5.76925">
        <ele>986.9</ele>
        <time>2021-08-19T15:37:22Z</time>
      </trkpt>
      <trkpt lat="46.22099" lon="5.76922">
        <ele>987.2</ele>
        <time>2021-08-19T15:37:46Z</time>
      </trkpt>
      <trkpt lat="46.22101" lon="5.76919">
        <ele>987.4</ele>
        <time>2021-08-19T15:37:47Z</time>
      </trkpt>
      <trkpt lat="46.22104" lon="5.76916">
        <ele>987.7</ele>
        <time>2021-08-19T15:37:48Z</time>
      </trkpt>
      <trkpt lat="46.22105" lon="5.76911">
        <ele>988</ele>
        <time>2021-08-19T15:37:50Z</time>
      </trkpt>
      <trkpt lat="46.22106" lon="5.76909">
        <ele>988.2</ele>
        <time>2021-08-19T15:37:51Z</time>
      </trkpt>
      <trkpt lat="46.22107" lon="5.76907">
        <ele>988.3</ele>
        <time>2021-08-19T15:37:52Z</time>
      </trkpt>
      <trkpt lat="46.22107" lon="5.76906">
        <ele>988.4</ele>
        <time>2021-08-19T15:37:53Z</time>
      </trkpt>
      <trkpt lat="46.22107" lon="5.76904">
        <ele>988.4</ele>
        <time>2021-08-19T15:37:55Z</time>
      </trkpt>
      <trkpt lat="46.22108" lon="5.76903">
        <ele>988.5</ele>
        <time>2021-08-19T15:37:56Z</time>
      </trkpt>
      <trkpt lat="46.22108" lon="5.76902">
        <ele>988.6</ele>
        <time>2021-08-19T15:37:57Z</time>
      </trkpt>
      <trkpt lat="46.22108" lon="5.76901">
        <ele>988.7</ele>
        <time>2021-08-19T15:37:59Z</time>
      </trkpt>
      <trkpt lat="46.22107" lon="5.76899">
        <ele>988.8</ele>
        <time>2021-08-19T15:38:00Z</time>
      </trkpt>
      <trkpt lat="46.22106" lon="5.76897">
        <ele>988.9</ele>
        <time>2021-08-19T15:38:02Z</time>
      </trkpt>
      <trkpt lat="46.22082" lon="5.76805">
        <ele>994.6</ele>
        <time>2021-08-19T15:39:21Z</time>
      </trkpt>
      <trkpt lat="46.2208" lon="5.76803">
        <ele>994.7</ele>
        <time>2021-08-19T15:39:22Z</time>
      </trkpt>
      <trkpt lat="46.22077" lon="5.76799">
        <ele>994.8</ele>
        <time>2021-08-19T15:39:24Z</time>
      </trkpt>
      <trkpt lat="46.22075" lon="5.76794">
        <ele>994.8</ele>
        <time>2021-08-19T15:39:25Z</time>
      </trkpt>
      <trkpt lat="46.22073" lon="5.76787">
        <ele>994.8</ele>
        <time>2021-08-19T15:39:27Z</time>
      </trkpt>
      <trkpt lat="46.22071" lon="5.76783">
        <ele>994.9</ele>
        <time>2021-08-19T15:39:28Z</time>
      </trkpt>
      <trkpt lat="46.22068" lon="5.76777">
        <ele>994.9</ele>
        <time>2021-08-19T15:39:30Z</time>
      </trkpt>
      <trkpt lat="46.22063" lon="5.76772">
        <ele>995</ele>
        <time>2021-08-19T15:39:31Z</time>
      </trkpt>
      <trkpt lat="46.22061" lon="5.76769">
        <ele>995</ele>
        <time>2021-08-19T15:39:32Z</time>
      </trkpt>
      <trkpt lat="46.22058" lon="5.76767">
        <ele>995.1</ele>
        <time>2021-08-19T15:39:33Z</time>
      </trkpt>
      <trkpt lat="46.22054" lon="5.76765">
        <ele>995.2</ele>
        <time>2021-08-19T15:39:34Z</time>
      </trkpt>
      <trkpt lat="46.22052" lon="5.76763">
        <ele>995.2</ele>
        <time>2021-08-19T15:39:35Z</time>
      </trkpt>
      <trkpt lat="46.22047" lon="5.7676">
        <ele>995.3</ele>
        <time>2021-08-19T15:39:37Z</time>
      </trkpt>
      <trkpt lat="46.22046" lon="5.7676">
        <ele>995.4</ele>
        <time>2021-08-19T15:39:38Z</time>
      </trkpt>
      <trkpt lat="46.22043" lon="5.76757">
        <ele>995.4</ele>
        <time>2021-08-19T15:39:40Z</time>
      </trkpt>
      <trkpt lat="46.22041" lon="5.76755">
        <ele>995.5</ele>
        <time>2021-08-19T15:39:41Z</time>
      </trkpt>
      <trkpt lat="46.2204" lon="5.76754">
        <ele>995.6</ele>
        <time>2021-08-19T15:39:42Z</time>
      </trkpt>
      <trkpt lat="46.22035" lon="5.76753">
        <ele>995.7</ele>
        <time>2021-08-19T15:39:44Z</time>
      </trkpt>
      <trkpt lat="46.22033" lon="5.76753">
        <ele>995.8</ele>
        <time>2021-08-19T15:39:45Z</time>
      </trkpt>
      <trkpt lat="46.22032" lon="5.76752">
        <ele>995.8</ele>
        <time>2021-08-19T15:39:46Z</time>
      </trkpt>
      <trkpt lat="46.22027" lon="5.7675">
        <ele>996</ele>
        <time>2021-08-19T15:39:48Z</time>
      </trkpt>
      <trkpt lat="46.22022" lon="5.76747">
        <ele>996.1</ele>
        <time>2021-08-19T15:39:50Z</time>
      </trkpt>
      <trkpt lat="46.22016" lon="5.76745">
        <ele>996.3</ele>
        <time>2021-08-19T15:39:52Z</time>
      </trkpt>
      <trkpt lat="46.22013" lon="5.76741">
        <ele>996.4</ele>
        <time>2021-08-19T15:39:54Z</time>
      </trkpt>
      <trkpt lat="46.2201" lon="5.76739">
        <ele>996.4</ele>
        <time>2021-08-19T15:39:55Z</time>
      </trkpt>
      <trkpt lat="46.22007" lon="5.76739">
        <ele>996.5</ele>
        <time>2021-08-19T15:39:56Z</time>
      </trkpt>
      <trkpt lat="46.22004" lon="5.76738">
        <ele>996.6</ele>
        <time>2021-08-19T15:39:58Z</time>
      </trkpt>
      <trkpt lat="46.22001" lon="5.76737">
        <ele>996.6</ele>
        <time>2021-08-19T15:39:59Z</time>
      </trkpt>
      <trkpt lat="46.21998" lon="5.76735">
        <ele>996.7</ele>
        <time>2021-08-19T15:40:00Z</time>
      </trkpt>
      <trkpt lat="46.21996" lon="5.76734">
        <ele>996.7</ele>
        <time>2021-08-19T15:40:01Z</time>
      </trkpt>
      <trkpt lat="46.21995" lon="5.76733">
        <ele>996.8</ele>
        <time>2021-08-19T15:40:02Z</time>
      </trkpt>
      <trkpt lat="46.21994" lon="5.76729">
        <ele>996.8</ele>
        <time>2021-08-19T15:40:04Z</time>
      </trkpt>
      <trkpt lat="46.21993" lon="5.76727">
        <ele>996.8</ele>
        <time>2021-08-19T15:40:05Z</time>
      </trkpt>
      <trkpt lat="46.21993" lon="5.76722">
        <ele>996.9</ele>
        <time>2021-08-19T15:40:07Z</time>
      </trkpt>
      <trkpt lat="46.21992" lon="5.76717">
        <ele>996.9</ele>
        <time>2021-08-19T15:40:08Z</time>
      </trkpt>
      <trkpt lat="46.21991" lon="5.76715">
        <ele>997</ele>
        <time>2021-08-19T15:40:09Z</time>
      </trkpt>
      <trkpt lat="46.2199" lon="5.76711">
        <ele>997</ele>
        <time>2021-08-19T15:40:10Z</time>
      </trkpt>
      <trkpt lat="46.21987" lon="5.76703">
        <ele>997.1</ele>
        <time>2021-08-19T15:40:12Z</time>
      </trkpt>
      <trkpt lat="46.21985" lon="5.76694">
        <ele>997.3</ele>
        <time>2021-08-19T15:40:14Z</time>
      </trkpt>
      <trkpt lat="46.21983" lon="5.76688">
        <ele>997.4</ele>
        <time>2021-08-19T15:40:15Z</time>
      </trkpt>
      <trkpt lat="46.21982" lon="5.76683">
        <ele>997.6</ele>
        <time>2021-08-19T15:40:16Z</time>
      </trkpt>
      <trkpt lat="46.2198" lon="5.76675">
        <ele>997.8</ele>
        <time>2021-08-19T15:40:18Z</time>
      </trkpt>
      <trkpt lat="46.21979" lon="5.76671">
        <ele>997.9</ele>
        <time>2021-08-19T15:40:19Z</time>
      </trkpt>
      <trkpt lat="46.21977" lon="5.76666">
        <ele>998.1</ele>
        <time>2021-08-19T15:40:20Z</time>
      </trkpt>
      <trkpt lat="46.21975" lon="5.76658">
        <ele>998.3</ele>
        <time>2021-08-19T15:40:22Z</time>
      </trkpt>
      <trkpt lat="46.21974" lon="5.76653">
        <ele>998.5</ele>
        <time>2021-08-19T15:40:23Z</time>
      </trkpt>
      <trkpt lat="46.21972" lon="5.76648">
        <ele>998.7</ele>
        <time>2021-08-19T15:40:24Z</time>
      </trkpt>
      <trkpt lat="46.21971" lon="5.76645">
        <ele>998.8</ele>
        <time>2021-08-19T15:40:25Z</time>
      </trkpt>
      <trkpt lat="46.21969" lon="5.76642">
        <ele>998.9</ele>
        <time>2021-08-19T15:40:26Z</time>
      </trkpt>
      <trkpt lat="46.21966" lon="5.76636">
        <ele>999.2</ele>
        <time>2021-08-19T15:40:28Z</time>
      </trkpt>
      <trkpt lat="46.21965" lon="5.76633">
        <ele>999.4</ele>
        <time>2021-08-19T15:40:29Z</time>
      </trkpt>
      <trkpt lat="46.21962" lon="5.76627">
        <ele>999.7</ele>
        <time>2021-08-19T15:40:31Z</time>
      </trkpt>
      <trkpt lat="46.21959" lon="5.76621">
        <ele>1000</ele>
        <time>2021-08-19T15:40:33Z</time>
      </trkpt>
      <trkpt lat="46.21956" lon="5.76615">
        <ele>1000.4</ele>
        <time>2021-08-19T15:40:34Z</time>
      </trkpt>
      <trkpt lat="46.21954" lon="5.76611">
        <ele>1000.6</ele>
        <time>2021-08-19T15:40:35Z</time>
      </trkpt>
      <trkpt lat="46.21952" lon="5.76605">
        <ele>1000.9</ele>
        <time>2021-08-19T15:40:37Z</time>
      </trkpt>
      <trkpt lat="46.2195" lon="5.76598">
        <ele>1001.2</ele>
        <time>2021-08-19T15:40:38Z</time>
      </trkpt>
      <trkpt lat="46.21948" lon="5.76591">
        <ele>1001.4</ele>
        <time>2021-08-19T15:40:40Z</time>
      </trkpt>
      <trkpt lat="46.21946" lon="5.76587">
        <ele>1001.5</ele>
        <time>2021-08-19T15:40:41Z</time>
      </trkpt>
      <trkpt lat="46.21945" lon="5.76584">
        <ele>1001.6</ele>
        <time>2021-08-19T15:40:42Z</time>
      </trkpt>
      <trkpt lat="46.21943" lon="5.7658">
        <ele>1001.7</ele>
        <time>2021-08-19T15:40:43Z</time>
      </trkpt>
      <trkpt lat="46.21942" lon="5.76573">
        <ele>1001.7</ele>
        <time>2021-08-19T15:40:44Z</time>
      </trkpt>
      <trkpt lat="46.2194" lon="5.76566">
        <ele>1001.8</ele>
        <time>2021-08-19T15:40:46Z</time>
      </trkpt>
      <trkpt lat="46.21937" lon="5.7656">
        <ele>1001.7</ele>
        <time>2021-08-19T15:40:47Z</time>
      </trkpt>
      <trkpt lat="46.21936" lon="5.76554">
        <ele>1001.7</ele>
        <time>2021-08-19T15:40:48Z</time>
      </trkpt>
      <trkpt lat="46.21932" lon="5.76546">
        <ele>1001.6</ele>
        <time>2021-08-19T15:40:50Z</time>
      </trkpt>
      <trkpt lat="46.2193" lon="5.76542">
        <ele>1001.5</ele>
        <time>2021-08-19T15:40:51Z</time>
      </trkpt>
      <trkpt lat="46.21928" lon="5.76537">
        <ele>1001.5</ele>
        <time>2021-08-19T15:40:53Z</time>
      </trkpt>
      <trkpt lat="46.21924" lon="5.76534">
        <ele>1001.4</ele>
        <time>2021-08-19T15:40:54Z</time>
      </trkpt>
      <trkpt lat="46.21921" lon="5.76533">
        <ele>1001.4</ele>
        <time>2021-08-19T15:40:55Z</time>
      </trkpt>
      <trkpt lat="46.21916" lon="5.76528">
        <ele>1001.3</ele>
        <time>2021-08-19T15:40:56Z</time>
      </trkpt>
      <trkpt lat="46.21911" lon="5.76522">
        <ele>1001.2</ele>
        <time>2021-08-19T15:40:58Z</time>
      </trkpt>
      <trkpt lat="46.21906" lon="5.76516">
        <ele>1001.1</ele>
        <time>2021-08-19T15:40:59Z</time>
      </trkpt>
      <trkpt lat="46.21902" lon="5.7651">
        <ele>1001</ele>
        <time>2021-08-19T15:41:00Z</time>
      </trkpt>
      <trkpt lat="46.21899" lon="5.76506">
        <ele>1001</ele>
        <time>2021-08-19T15:41:01Z</time>
      </trkpt>
      <trkpt lat="46.21893" lon="5.765">
        <ele>1001</ele>
        <time>2021-08-19T15:41:03Z</time>
      </trkpt>
      <trkpt lat="46.21889" lon="5.76495">
        <ele>1001.1</ele>
        <time>2021-08-19T15:41:04Z</time>
      </trkpt>
      <trkpt lat="46.21886" lon="5.76491">
        <ele>1001.1</ele>
        <time>2021-08-19T15:41:05Z</time>
      </trkpt>
      <trkpt lat="46.2188" lon="5.76483">
        <ele>1001.2</ele>
        <time>2021-08-19T15:41:07Z</time>
      </trkpt>
      <trkpt lat="46.21872" lon="5.76476">
        <ele>1001.2</ele>
        <time>2021-08-19T15:41:09Z</time>
      </trkpt>
      <trkpt lat="46.21865" lon="5.7647">
        <ele>1001.2</ele>
        <time>2021-08-19T15:41:11Z</time>
      </trkpt>
      <trkpt lat="46.21861" lon="5.76464">
        <ele>1001.1</ele>
        <time>2021-08-19T15:41:12Z</time>
      </trkpt>
      <trkpt lat="46.21858" lon="5.76461">
        <ele>1001</ele>
        <time>2021-08-19T15:41:13Z</time>
      </trkpt>
      <trkpt lat="46.21854" lon="5.76457">
        <ele>1000.9</ele>
        <time>2021-08-19T15:41:14Z</time>
      </trkpt>
      <trkpt lat="46.21848" lon="5.76449">
        <ele>1000.7</ele>
        <time>2021-08-19T15:41:16Z</time>
      </trkpt>
      <trkpt lat="46.21844" lon="5.76441">
        <ele>1000.4</ele>
        <time>2021-08-19T15:41:17Z</time>
      </trkpt>
      <trkpt lat="46.21835" lon="5.76431">
        <ele>1000</ele>
        <time>2021-08-19T15:41:19Z</time>
      </trkpt>
      <trkpt lat="46.21831" lon="5.76426">
        <ele>999.7</ele>
        <time>2021-08-19T15:41:20Z</time>
      </trkpt>
      <trkpt lat="46.21821" lon="5.76413">
        <ele>999.2</ele>
        <time>2021-08-19T15:41:22Z</time>
      </trkpt>
      <trkpt lat="46.21809" lon="5.764">
        <ele>998.8</ele>
        <time>2021-08-19T15:41:24Z</time>
      </trkpt>
      <trkpt lat="46.21802" lon="5.76394">
        <ele>998.5</ele>
        <time>2021-08-19T15:41:25Z</time>
      </trkpt>
      <trkpt lat="46.21795" lon="5.76387">
        <ele>998.3</ele>
        <time>2021-08-19T15:41:26Z</time>
      </trkpt>
      <trkpt lat="46.2178" lon="5.76374">
        <ele>997.8</ele>
        <time>2021-08-19T15:41:28Z</time>
      </trkpt>
      <trkpt lat="46.21773" lon="5.76367">
        <ele>997.5</ele>
        <time>2021-08-19T15:41:29Z</time>
      </trkpt>
      <trkpt lat="46.2176" lon="5.76356">
        <ele>996.9</ele>
        <time>2021-08-19T15:41:31Z</time>
      </trkpt>
      <trkpt lat="46.21752" lon="5.76353">
        <ele>996.6</ele>
        <time>2021-08-19T15:41:32Z</time>
      </trkpt>
      <trkpt lat="46.21737" lon="5.76347">
        <ele>995.9</ele>
        <time>2021-08-19T15:41:34Z</time>
      </trkpt>
      <trkpt lat="46.21729" lon="5.76342">
        <ele>995.5</ele>
        <time>2021-08-19T15:41:35Z</time>
      </trkpt>
      <trkpt lat="46.21714" lon="5.76336">
        <ele>994.9</ele>
        <time>2021-08-19T15:41:37Z</time>
      </trkpt>
      <trkpt lat="46.21705" lon="5.76335">
        <ele>994.7</ele>
        <time>2021-08-19T15:41:38Z</time>
      </trkpt>
      <trkpt lat="46.21689" lon="5.76331">
        <ele>994.4</ele>
        <time>2021-08-19T15:41:40Z</time>
      </trkpt>
      <trkpt lat="46.21683" lon="5.7633">
        <ele>994.4</ele>
        <time>2021-08-19T15:41:41Z</time>
      </trkpt>
      <trkpt lat="46.21677" lon="5.76328">
        <ele>994.4</ele>
        <time>2021-08-19T15:41:42Z</time>
      </trkpt>
      <trkpt lat="46.21666" lon="5.76329">
        <ele>994.4</ele>
        <time>2021-08-19T15:41:44Z</time>
      </trkpt>
      <trkpt lat="46.21654" lon="5.76333">
        <ele>994.7</ele>
        <time>2021-08-19T15:41:46Z</time>
      </trkpt>
      <trkpt lat="46.21642" lon="5.76337">
        <ele>995.2</ele>
        <time>2021-08-19T15:41:48Z</time>
      </trkpt>
      <trkpt lat="46.21637" lon="5.76338">
        <ele>995.5</ele>
        <time>2021-08-19T15:41:49Z</time>
      </trkpt>
      <trkpt lat="46.21631" lon="5.76338">
        <ele>995.9</ele>
        <time>2021-08-19T15:41:50Z</time>
      </trkpt>
      <trkpt lat="46.21622" lon="5.76337">
        <ele>996.6</ele>
        <time>2021-08-19T15:41:52Z</time>
      </trkpt>
      <trkpt lat="46.21613" lon="5.76338">
        <ele>997.3</ele>
        <time>2021-08-19T15:41:54Z</time>
      </trkpt>
      <trkpt lat="46.21609" lon="5.76337">
        <ele>997.5</ele>
        <time>2021-08-19T15:41:55Z</time>
      </trkpt>
      <trkpt lat="46.21607" lon="5.76338">
        <ele>997.7</ele>
        <time>2021-08-19T15:41:56Z</time>
      </trkpt>
      <trkpt lat="46.21606" lon="5.76338">
        <ele>997.7</ele>
        <time>2021-08-19T15:41:58Z</time>
      </trkpt>
      <trkpt lat="46.21605" lon="5.76339">
        <ele>997.8</ele>
        <time>2021-08-19T15:41:59Z</time>
      </trkpt>
      <trkpt lat="46.21604" lon="5.7634">
        <ele>997.9</ele>
        <time>2021-08-19T15:42:00Z</time>
      </trkpt>
      <trkpt lat="46.21603" lon="5.76341">
        <ele>998</ele>
        <time>2021-08-19T15:42:02Z</time>
      </trkpt>
      <trkpt lat="46.21602" lon="5.76341">
        <ele>998.1</ele>
        <time>2021-08-19T15:42:03Z</time>
      </trkpt>
      <trkpt lat="46.21602" lon="5.76342">
        <ele>998.1</ele>
        <time>2021-08-19T15:42:05Z</time>
      </trkpt>
      <trkpt lat="46.216" lon="5.76345">
        <ele>998.3</ele>
        <time>2021-08-19T15:42:07Z</time>
      </trkpt>
      <trkpt lat="46.21596" lon="5.76348">
        <ele>998.6</ele>
        <time>2021-08-19T15:42:10Z</time>
      </trkpt>
      <trkpt lat="46.21593" lon="5.76352">
        <ele>998.9</ele>
        <time>2021-08-19T15:42:11Z</time>
      </trkpt>
      <trkpt lat="46.21587" lon="5.76355">
        <ele>999.2</ele>
        <time>2021-08-19T15:42:13Z</time>
      </trkpt>
      <trkpt lat="46.21582" lon="5.76358">
        <ele>999.6</ele>
        <time>2021-08-19T15:42:15Z</time>
      </trkpt>
      <trkpt lat="46.21579" lon="5.76359">
        <ele>999.8</ele>
        <time>2021-08-19T15:42:16Z</time>
      </trkpt>
      <trkpt lat="46.21576" lon="5.7636">
        <ele>1000</ele>
        <time>2021-08-19T15:42:18Z</time>
      </trkpt>
      <trkpt lat="46.21573" lon="5.76361">
        <ele>1000.2</ele>
        <time>2021-08-19T15:42:19Z</time>
      </trkpt>
      <trkpt lat="46.21568" lon="5.76363">
        <ele>1000.4</ele>
        <time>2021-08-19T15:42:21Z</time>
      </trkpt>
      <trkpt lat="46.21565" lon="5.76364">
        <ele>1000.6</ele>
        <time>2021-08-19T15:42:22Z</time>
      </trkpt>
      <trkpt lat="46.21561" lon="5.76366">
        <ele>1000.8</ele>
        <time>2021-08-19T15:42:23Z</time>
      </trkpt>
      <trkpt lat="46.21558" lon="5.76368">
        <ele>1001</ele>
        <time>2021-08-19T15:42:25Z</time>
      </trkpt>
      <trkpt lat="46.21554" lon="5.76369">
        <ele>1001.1</ele>
        <time>2021-08-19T15:42:26Z</time>
      </trkpt>
      <trkpt lat="46.21549" lon="5.7637">
        <ele>1001.3</ele>
        <time>2021-08-19T15:42:28Z</time>
      </trkpt>
      <trkpt lat="46.21546" lon="5.76371">
        <ele>1001.4</ele>
        <time>2021-08-19T15:42:29Z</time>
      </trkpt>
      <trkpt lat="46.21542" lon="5.76371">
        <ele>1001.4</ele>
        <time>2021-08-19T15:42:30Z</time>
      </trkpt>
      <trkpt lat="46.21538" lon="5.76371">
        <ele>1001.5</ele>
        <time>2021-08-19T15:42:31Z</time>
      </trkpt>
      <trkpt lat="46.21533" lon="5.76368">
        <ele>1001.5</ele>
        <time>2021-08-19T15:42:33Z</time>
      </trkpt>
      <trkpt lat="46.21526" lon="5.76368">
        <ele>1001.6</ele>
        <time>2021-08-19T15:42:34Z</time>
      </trkpt>
      <trkpt lat="46.21517" lon="5.76369">
        <ele>1001.7</ele>
        <time>2021-08-19T15:42:36Z</time>
      </trkpt>
      <trkpt lat="46.21509" lon="5.76368">
        <ele>1001.8</ele>
        <time>2021-08-19T15:42:38Z</time>
      </trkpt>
      <trkpt lat="46.21505" lon="5.76368">
        <ele>1001.8</ele>
        <time>2021-08-19T15:42:39Z</time>
      </trkpt>
      <trkpt lat="46.21502" lon="5.76369">
        <ele>1001.8</ele>
        <time>2021-08-19T15:42:40Z</time>
      </trkpt>
      <trkpt lat="46.21499" lon="5.76369">
        <ele>1001.9</ele>
        <time>2021-08-19T15:42:41Z</time>
      </trkpt>
      <trkpt lat="46.21495" lon="5.76369">
        <ele>1002</ele>
        <time>2021-08-19T15:42:42Z</time>
      </trkpt>
      <trkpt lat="46.2149" lon="5.76368">
        <ele>1002.1</ele>
        <time>2021-08-19T15:42:43Z</time>
      </trkpt>
      <trkpt lat="46.21486" lon="5.76368">
        <ele>1002.1</ele>
        <time>2021-08-19T15:42:44Z</time>
      </trkpt>
      <trkpt lat="46.21482" lon="5.7637">
        <ele>1002.3</ele>
        <time>2021-08-19T15:42:46Z</time>
      </trkpt>
      <trkpt lat="46.21477" lon="5.76373">
        <ele>1002.4</ele>
        <time>2021-08-19T15:42:47Z</time>
      </trkpt>
      <trkpt lat="46.21473" lon="5.76373">
        <ele>1002.5</ele>
        <time>2021-08-19T15:42:49Z</time>
      </trkpt>
      <trkpt lat="46.21469" lon="5.76372">
        <ele>1002.6</ele>
        <time>2021-08-19T15:42:50Z</time>
      </trkpt>
      <trkpt lat="46.21465" lon="5.76371">
        <ele>1002.7</ele>
        <time>2021-08-19T15:42:51Z</time>
      </trkpt>
      <trkpt lat="46.21462" lon="5.76372">
        <ele>1002.8</ele>
        <time>2021-08-19T15:42:52Z</time>
      </trkpt>
      <trkpt lat="46.21458" lon="5.76375">
        <ele>1003</ele>
        <time>2021-08-19T15:42:54Z</time>
      </trkpt>
      <trkpt lat="46.21456" lon="5.76377">
        <ele>1003</ele>
        <time>2021-08-19T15:42:55Z</time>
      </trkpt>
      <trkpt lat="46.21455" lon="5.76378">
        <ele>1003.1</ele>
        <time>2021-08-19T15:42:56Z</time>
      </trkpt>
      <trkpt lat="46.21452" lon="5.76381">
        <ele>1003.3</ele>
        <time>2021-08-19T15:42:57Z</time>
      </trkpt>
      <trkpt lat="46.21449" lon="5.76384">
        <ele>1003.4</ele>
        <time>2021-08-19T15:42:58Z</time>
      </trkpt>
      <trkpt lat="46.21448" lon="5.76386">
        <ele>1003.5</ele>
        <time>2021-08-19T15:42:59Z</time>
      </trkpt>
      <trkpt lat="46.21445" lon="5.76389">
        <ele>1003.8</ele>
        <time>2021-08-19T15:43:01Z</time>
      </trkpt>
      <trkpt lat="46.21443" lon="5.76391">
        <ele>1003.9</ele>
        <time>2021-08-19T15:43:02Z</time>
      </trkpt>
      <trkpt lat="46.21441" lon="5.76392">
        <ele>1004</ele>
        <time>2021-08-19T15:43:04Z</time>
      </trkpt>
      <trkpt lat="46.21441" lon="5.76393">
        <ele>1004.1</ele>
        <time>2021-08-19T15:43:05Z</time>
      </trkpt>
      <trkpt lat="46.2144" lon="5.76393">
        <ele>1004.1</ele>
        <time>2021-08-19T15:43:07Z</time>
      </trkpt>
      <trkpt lat="46.2144" lon="5.76393">
        <ele>1004.2</ele>
        <time>2021-08-19T15:43:08Z</time>
      </trkpt>
      <trkpt lat="46.21439" lon="5.76393">
        <ele>1004.2</ele>
        <time>2021-08-19T15:43:09Z</time>
      </trkpt>
      <trkpt lat="46.21439" lon="5.76393">
        <ele>1004.2</ele>
        <time>2021-08-19T15:43:10Z</time>
      </trkpt>
      <trkpt lat="46.21438" lon="5.76394">
        <ele>1004.3</ele>
        <time>2021-08-19T15:43:12Z</time>
      </trkpt>
      <trkpt lat="46.2139" lon="5.76447">
        <ele>1010.6</ele>
        <time>2021-08-19T15:44:19Z</time>
      </trkpt>
      <trkpt lat="46.21388" lon="5.76448">
        <ele>1010.8</ele>
        <time>2021-08-19T15:44:20Z</time>
      </trkpt>
      <trkpt lat="46.21385" lon="5.76452">
        <ele>1011.1</ele>
        <time>2021-08-19T15:44:22Z</time>
      </trkpt>
      <trkpt lat="46.21384" lon="5.76453">
        <ele>1011.2</ele>
        <time>2021-08-19T15:44:23Z</time>
      </trkpt>
      <trkpt lat="46.21384" lon="5.76455">
        <ele>1011.3</ele>
        <time>2021-08-19T15:44:24Z</time>
      </trkpt>
      <trkpt lat="46.21383" lon="5.76457">
        <ele>1011.5</ele>
        <time>2021-08-19T15:44:25Z</time>
      </trkpt>
      <trkpt lat="46.21382" lon="5.7646">
        <ele>1011.7</ele>
        <time>2021-08-19T15:44:27Z</time>
      </trkpt>
      <trkpt lat="46.21381" lon="5.76461">
        <ele>1011.9</ele>
        <time>2021-08-19T15:44:28Z</time>
      </trkpt>
      <trkpt lat="46.2138" lon="5.76463">
        <ele>1012</ele>
        <time>2021-08-19T15:44:29Z</time>
      </trkpt>
      <trkpt lat="46.21379" lon="5.76465">
        <ele>1012.2</ele>
        <time>2021-08-19T15:44:30Z</time>
      </trkpt>
      <trkpt lat="46.21377" lon="5.76468">
        <ele>1012.6</ele>
        <time>2021-08-19T15:44:31Z</time>
      </trkpt>
      <trkpt lat="46.21377" lon="5.76469">
        <ele>1012.6</ele>
        <time>2021-08-19T15:44:32Z</time>
      </trkpt>
      <trkpt lat="46.21377" lon="5.76471">
        <ele>1012.8</ele>
        <time>2021-08-19T15:44:34Z</time>
      </trkpt>
      <trkpt lat="46.21376" lon="5.76474">
        <ele>1013.1</ele>
        <time>2021-08-19T15:44:35Z</time>
      </trkpt>
      <trkpt lat="46.21376" lon="5.76475">
        <ele>1013.2</ele>
        <time>2021-08-19T15:44:36Z</time>
      </trkpt>
      <trkpt lat="46.21376" lon="5.76475">
        <ele>1013.3</ele>
        <time>2021-08-19T15:44:37Z</time>
      </trkpt>
      <trkpt lat="46.21375" lon="5.76475">
        <ele>1013.3</ele>
        <time>2021-08-19T15:44:39Z</time>
      </trkpt>
      <trkpt lat="46.21375" lon="5.76476">
        <ele>1013.4</ele>
        <time>2021-08-19T15:44:40Z</time>
      </trkpt>
      <trkpt lat="46.21375" lon="5.76477">
        <ele>1013.5</ele>
        <time>2021-08-19T15:44:41Z</time>
      </trkpt>
      <trkpt lat="46.21374" lon="5.76478">
        <ele>1013.6</ele>
        <time>2021-08-19T15:44:42Z</time>
      </trkpt>
      <trkpt lat="46.21371" lon="5.7648">
        <ele>1014</ele>
        <time>2021-08-19T15:44:43Z</time>
      </trkpt>
      <trkpt lat="46.21369" lon="5.7648">
        <ele>1014.3</ele>
        <time>2021-08-19T15:44:44Z</time>
      </trkpt>
      <trkpt lat="46.21367" lon="5.7648">
        <ele>1014.6</ele>
        <time>2021-08-19T15:44:49Z</time>
      </trkpt>
      <trkpt lat="46.21366" lon="5.7648">
        <ele>1014.8</ele>
        <time>2021-08-19T15:44:50Z</time>
      </trkpt>
      <trkpt lat="46.21364" lon="5.7648">
        <ele>1015</ele>
        <time>2021-08-19T15:44:51Z</time>
      </trkpt>
      <trkpt lat="46.21361" lon="5.7648">
        <ele>1015.3</ele>
        <time>2021-08-19T15:44:53Z</time>
      </trkpt>
      <trkpt lat="46.21361" lon="5.7648">
        <ele>1015.4</ele>
        <time>2021-08-19T15:44:54Z</time>
      </trkpt>
      <trkpt lat="46.21358" lon="5.76482">
        <ele>1015.7</ele>
        <time>2021-08-19T15:44:55Z</time>
      </trkpt>
      <trkpt lat="46.21357" lon="5.76482">
        <ele>1015.8</ele>
        <time>2021-08-19T15:44:56Z</time>
      </trkpt>
      <trkpt lat="46.21354" lon="5.76487">
        <ele>1016.2</ele>
        <time>2021-08-19T15:44:58Z</time>
      </trkpt>
      <trkpt lat="46.21352" lon="5.76492">
        <ele>1016.5</ele>
        <time>2021-08-19T15:45:00Z</time>
      </trkpt>
      <trkpt lat="46.21352" lon="5.76499">
        <ele>1016.7</ele>
        <time>2021-08-19T15:45:01Z</time>
      </trkpt>
      <trkpt lat="46.21352" lon="5.76502">
        <ele>1016.9</ele>
        <time>2021-08-19T15:45:02Z</time>
      </trkpt>
      <trkpt lat="46.21351" lon="5.76508">
        <ele>1017.1</ele>
        <time>2021-08-19T15:45:04Z</time>
      </trkpt>
      <trkpt lat="46.21351" lon="5.76513">
        <ele>1017.3</ele>
        <time>2021-08-19T15:45:05Z</time>
      </trkpt>
      <trkpt lat="46.2135" lon="5.76518">
        <ele>1017.5</ele>
        <time>2021-08-19T15:45:07Z</time>
      </trkpt>
      <trkpt lat="46.21348" lon="5.76524">
        <ele>1017.7</ele>
        <time>2021-08-19T15:45:08Z</time>
      </trkpt>
      <trkpt lat="46.21348" lon="5.7653">
        <ele>1017.8</ele>
        <time>2021-08-19T15:45:09Z</time>
      </trkpt>
      <trkpt lat="46.21348" lon="5.76534">
        <ele>1017.9</ele>
        <time>2021-08-19T15:45:10Z</time>
      </trkpt>
      <trkpt lat="46.21347" lon="5.76539">
        <ele>1018.1</ele>
        <time>2021-08-19T15:45:12Z</time>
      </trkpt>
      <trkpt lat="46.21347" lon="5.76541">
        <ele>1018.1</ele>
        <time>2021-08-19T15:45:13Z</time>
      </trkpt>
      <trkpt lat="46.21346" lon="5.76543">
        <ele>1018.2</ele>
        <time>2021-08-19T15:45:14Z</time>
      </trkpt>
      <trkpt lat="46.21345" lon="5.76546">
        <ele>1018.3</ele>
        <time>2021-08-19T15:45:16Z</time>
      </trkpt>
      <trkpt lat="46.21343" lon="5.76549">
        <ele>1018.4</ele>
        <time>2021-08-19T15:45:17Z</time>
      </trkpt>
      <trkpt lat="46.21342" lon="5.76551">
        <ele>1018.4</ele>
        <time>2021-08-19T15:45:18Z</time>
      </trkpt>
      <trkpt lat="46.21339" lon="5.76554">
        <ele>1018.5</ele>
        <time>2021-08-19T15:45:19Z</time>
      </trkpt>
      <trkpt lat="46.21338" lon="5.76555">
        <ele>1018.6</ele>
        <time>2021-08-19T15:45:20Z</time>
      </trkpt>
      <trkpt lat="46.21336" lon="5.76557">
        <ele>1018.6</ele>
        <time>2021-08-19T15:45:22Z</time>
      </trkpt>
      <trkpt lat="46.21334" lon="5.76558">
        <ele>1018.7</ele>
        <time>2021-08-19T15:45:23Z</time>
      </trkpt>
      <trkpt lat="46.21332" lon="5.76562">
        <ele>1018.8</ele>
        <time>2021-08-19T15:45:25Z</time>
      </trkpt>
      <trkpt lat="46.21329" lon="5.76565">
        <ele>1018.9</ele>
        <time>2021-08-19T15:45:26Z</time>
      </trkpt>
      <trkpt lat="46.21325" lon="5.76567">
        <ele>1018.9</ele>
        <time>2021-08-19T15:45:28Z</time>
      </trkpt>
      <trkpt lat="46.21321" lon="5.7657">
        <ele>1018.9</ele>
        <time>2021-08-19T15:45:29Z</time>
      </trkpt>
      <trkpt lat="46.21316" lon="5.76576">
        <ele>1018.8</ele>
        <time>2021-08-19T15:45:31Z</time>
      </trkpt>
      <trkpt lat="46.21312" lon="5.76585">
        <ele>1018.5</ele>
        <time>2021-08-19T15:45:32Z</time>
      </trkpt>
      <trkpt lat="46.21309" lon="5.7659">
        <ele>1018.2</ele>
        <time>2021-08-19T15:45:33Z</time>
      </trkpt>
      <trkpt lat="46.21308" lon="5.76598">
        <ele>1017.9</ele>
        <time>2021-08-19T15:45:34Z</time>
      </trkpt>
      <trkpt lat="46.21308" lon="5.76604">
        <ele>1017.5</ele>
        <time>2021-08-19T15:45:35Z</time>
      </trkpt>
      <trkpt lat="46.21307" lon="5.76609">
        <ele>1017.2</ele>
        <time>2021-08-19T15:45:36Z</time>
      </trkpt>
      <trkpt lat="46.21307" lon="5.76616">
        <ele>1016.8</ele>
        <time>2021-08-19T15:45:38Z</time>
      </trkpt>
      <trkpt lat="46.21306" lon="5.76634">
        <ele>1015.6</ele>
        <time>2021-08-19T15:45:39Z</time>
      </trkpt>
      <trkpt lat="46.21307" lon="5.76648">
        <ele>1014.7</ele>
        <time>2021-08-19T15:45:40Z</time>
      </trkpt>
      <trkpt lat="46.21309" lon="5.76662">
        <ele>1013.8</ele>
        <time>2021-08-19T15:45:41Z</time>
      </trkpt>
      <trkpt lat="46.21313" lon="5.76689">
        <ele>1012.4</ele>
        <time>2021-08-19T15:45:43Z</time>
      </trkpt>
      <trkpt lat="46.21316" lon="5.76704">
        <ele>1011.7</ele>
        <time>2021-08-19T15:45:44Z</time>
      </trkpt>
      <trkpt lat="46.21321" lon="5.76731">
        <ele>1010.4</ele>
        <time>2021-08-19T15:45:46Z</time>
      </trkpt>
      <trkpt lat="46.21321" lon="5.76744">
        <ele>1009.8</ele>
        <time>2021-08-19T15:45:47Z</time>
      </trkpt>
      <trkpt lat="46.21322" lon="5.76756">
        <ele>1009.3</ele>
        <time>2021-08-19T15:45:48Z</time>
      </trkpt>
      <trkpt lat="46.2132" lon="5.7677">
        <ele>1008.6</ele>
        <time>2021-08-19T15:45:50Z</time>
      </trkpt>
      <trkpt lat="46.21318" lon="5.7677">
        <ele>1008.4</ele>
        <time>2021-08-19T15:45:52Z</time>
      </trkpt>
      <trkpt lat="46.21315" lon="5.7678">
        <ele>1007.9</ele>
        <time>2021-08-19T15:45:54Z</time>
      </trkpt>
      <trkpt lat="46.21312" lon="5.76786">
        <ele>1007.7</ele>
        <time>2021-08-19T15:45:56Z</time>
      </trkpt>
      <trkpt lat="46.21312" lon="5.76786">
        <ele>1007.7</ele>
        <time>2021-08-19T15:45:58Z</time>
      </trkpt>
      <trkpt lat="46.21312" lon="5.76786">
        <ele>1007.6</ele>
        <time>2021-08-19T15:45:59Z</time>
      </trkpt>
      <trkpt lat="46.21311" lon="5.76786">
        <ele>1007.6</ele>
        <time>2021-08-19T15:46:00Z</time>
      </trkpt>
      <trkpt lat="46.21309" lon="5.76787">
        <ele>1007.5</ele>
        <time>2021-08-19T15:46:01Z</time>
      </trkpt>
      <trkpt lat="46.21303" lon="5.76784">
        <ele>1007.1</ele>
        <time>2021-08-19T15:46:03Z</time>
      </trkpt>
      <trkpt lat="46.213" lon="5.76782">
        <ele>1006.9</ele>
        <time>2021-08-19T15:46:04Z</time>
      </trkpt>
      <trkpt lat="46.21295" lon="5.76778">
        <ele>1006.5</ele>
        <time>2021-08-19T15:46:06Z</time>
      </trkpt>
      <trkpt lat="46.2129" lon="5.76775">
        <ele>1006.2</ele>
        <time>2021-08-19T15:46:07Z</time>
      </trkpt>
      <trkpt lat="46.21281" lon="5.7677">
        <ele>1005.6</ele>
        <time>2021-08-19T15:46:08Z</time>
      </trkpt>
      <trkpt lat="46.21275" lon="5.76768">
        <ele>1005.2</ele>
        <time>2021-08-19T15:46:09Z</time>
      </trkpt>
      <trkpt lat="46.21266" lon="5.76765">
        <ele>1004.4</ele>
        <time>2021-08-19T15:46:11Z</time>
      </trkpt>
      <trkpt lat="46.21259" lon="5.76762">
        <ele>1003.8</ele>
        <time>2021-08-19T15:46:12Z</time>
      </trkpt>
      <trkpt lat="46.21253" lon="5.7676">
        <ele>1003.1</ele>
        <time>2021-08-19T15:46:13Z</time>
      </trkpt>
      <trkpt lat="46.21245" lon="5.76761">
        <ele>1002.4</ele>
        <time>2021-08-19T15:46:14Z</time>
      </trkpt>
      <trkpt lat="46.21231" lon="5.76757">
        <ele>1000.8</ele>
        <time>2021-08-19T15:46:15Z</time>
      </trkpt>
      <trkpt lat="46.2122" lon="5.76758">
        <ele>999.3</ele>
        <time>2021-08-19T15:46:17Z</time>
      </trkpt>
      <trkpt lat="46.21215" lon="5.76763">
        <ele>998.4</ele>
        <time>2021-08-19T15:46:19Z</time>
      </trkpt>
      <trkpt lat="46.2121" lon="5.76767">
        <ele>997.6</ele>
        <time>2021-08-19T15:46:20Z</time>
      </trkpt>
      <trkpt lat="46.21204" lon="5.76772">
        <ele>996.8</ele>
        <time>2021-08-19T15:46:21Z</time>
      </trkpt>
      <trkpt lat="46.21198" lon="5.76783">
        <ele>995.4</ele>
        <time>2021-08-19T15:46:22Z</time>
      </trkpt>
      <trkpt lat="46.21193" lon="5.76789">
        <ele>994.4</ele>
        <time>2021-08-19T15:46:23Z</time>
      </trkpt>
      <trkpt lat="46.21188" lon="5.76795">
        <ele>993.5</ele>
        <time>2021-08-19T15:46:24Z</time>
      </trkpt>
      <trkpt lat="46.21184" lon="5.76801">
        <ele>992.8</ele>
        <time>2021-08-19T15:46:25Z</time>
      </trkpt>
      <trkpt lat="46.2118" lon="5.76807">
        <ele>992.1</ele>
        <time>2021-08-19T15:46:26Z</time>
      </trkpt>
      <trkpt lat="46.21173" lon="5.76827">
        <ele>990.3</ele>
        <time>2021-08-19T15:46:28Z</time>
      </trkpt>
      <trkpt lat="46.21171" lon="5.76838">
        <ele>989.3</ele>
        <time>2021-08-19T15:46:29Z</time>
      </trkpt>
      <trkpt lat="46.21169" lon="5.76849">
        <ele>988.4</ele>
        <time>2021-08-19T15:46:30Z</time>
      </trkpt>
      <trkpt lat="46.21167" lon="5.76875">
        <ele>986.2</ele>
        <time>2021-08-19T15:46:32Z</time>
      </trkpt>
      <trkpt lat="46.21166" lon="5.76905">
        <ele>983.6</ele>
        <time>2021-08-19T15:46:34Z</time>
      </trkpt>
      <trkpt lat="46.21164" lon="5.76919">
        <ele>982.3</ele>
        <time>2021-08-19T15:46:35Z</time>
      </trkpt>
      <trkpt lat="46.21161" lon="5.76944">
        <ele>980.4</ele>
        <time>2021-08-19T15:46:37Z</time>
      </trkpt>
      <trkpt lat="46.21159" lon="5.76954">
        <ele>979.6</ele>
        <time>2021-08-19T15:46:38Z</time>
      </trkpt>
      <trkpt lat="46.21152" lon="5.76972">
        <ele>978.3</ele>
        <time>2021-08-19T15:46:40Z</time>
      </trkpt>
      <trkpt lat="46.21147" lon="5.76985">
        <ele>977.4</ele>
        <time>2021-08-19T15:46:42Z</time>
      </trkpt>
      <trkpt lat="46.21145" lon="5.76991">
        <ele>977</ele>
        <time>2021-08-19T15:46:44Z</time>
      </trkpt>
      <trkpt lat="46.21139" lon="5.76985">
        <ele>976.3</ele>
        <time>2021-08-19T15:46:46Z</time>
      </trkpt>
      <trkpt lat="46.21135" lon="5.76985">
        <ele>976</ele>
        <time>2021-08-19T15:46:47Z</time>
      </trkpt>
      <trkpt lat="46.21124" lon="5.76988">
        <ele>975</ele>
        <time>2021-08-19T15:46:49Z</time>
      </trkpt>
      <trkpt lat="46.21108" lon="5.76999">
        <ele>973.4</ele>
        <time>2021-08-19T15:46:51Z</time>
      </trkpt>
      <trkpt lat="46.21105" lon="5.77002">
        <ele>973.1</ele>
        <time>2021-08-19T15:46:53Z</time>
      </trkpt>
      <trkpt lat="46.21104" lon="5.77003">
        <ele>973</ele>
        <time>2021-08-19T15:46:54Z</time>
      </trkpt>
      <trkpt lat="46.21066" lon="5.77034">
        <ele>969.5</ele>
        <time>2021-08-19T15:47:01Z</time>
      </trkpt>
      <trkpt lat="46.21059" lon="5.77038">
        <ele>969.4</ele>
        <time>2021-08-19T15:47:03Z</time>
      </trkpt>
      <trkpt lat="46.21043" lon="5.7705">
        <ele>969.2</ele>
        <time>2021-08-19T15:47:04Z</time>
      </trkpt>
      <trkpt lat="46.21032" lon="5.77059">
        <ele>969</ele>
        <time>2021-08-19T15:47:06Z</time>
      </trkpt>
      <trkpt lat="46.21023" lon="5.77065">
        <ele>968.8</ele>
        <time>2021-08-19T15:47:08Z</time>
      </trkpt>
      <trkpt lat="46.21019" lon="5.77069">
        <ele>968.8</ele>
        <time>2021-08-19T15:47:10Z</time>
      </trkpt>
      <trkpt lat="46.21014" lon="5.7708">
        <ele>968.6</ele>
        <time>2021-08-19T15:47:11Z</time>
      </trkpt>
      <trkpt lat="46.21011" lon="5.77086">
        <ele>968.5</ele>
        <time>2021-08-19T15:47:12Z</time>
      </trkpt>
      <trkpt lat="46.21003" lon="5.77096">
        <ele>968.3</ele>
        <time>2021-08-19T15:47:14Z</time>
      </trkpt>
      <trkpt lat="46.20996" lon="5.77106">
        <ele>968.2</ele>
        <time>2021-08-19T15:47:16Z</time>
      </trkpt>
      <trkpt lat="46.20993" lon="5.77112">
        <ele>968.1</ele>
        <time>2021-08-19T15:47:17Z</time>
      </trkpt>
      <trkpt lat="46.2099" lon="5.77118">
        <ele>968</ele>
        <time>2021-08-19T15:47:18Z</time>
      </trkpt>
      <trkpt lat="46.20983" lon="5.77131">
        <ele>967.9</ele>
        <time>2021-08-19T15:47:20Z</time>
      </trkpt>
      <trkpt lat="46.20977" lon="5.77145">
        <ele>967.8</ele>
        <time>2021-08-19T15:47:22Z</time>
      </trkpt>
      <trkpt lat="46.20974" lon="5.77151">
        <ele>967.7</ele>
        <time>2021-08-19T15:47:23Z</time>
      </trkpt>
      <trkpt lat="46.20972" lon="5.77158">
        <ele>967.7</ele>
        <time>2021-08-19T15:47:24Z</time>
      </trkpt>
      <trkpt lat="46.20969" lon="5.77165">
        <ele>967.6</ele>
        <time>2021-08-19T15:47:25Z</time>
      </trkpt>
      <trkpt lat="46.20967" lon="5.77172">
        <ele>967.6</ele>
        <time>2021-08-19T15:47:26Z</time>
      </trkpt>
      <trkpt lat="46.20963" lon="5.77186">
        <ele>967.5</ele>
        <time>2021-08-19T15:47:28Z</time>
      </trkpt>
      <trkpt lat="46.2096" lon="5.77201">
        <ele>967.4</ele>
        <time>2021-08-19T15:47:30Z</time>
      </trkpt>
      <trkpt lat="46.20957" lon="5.77217">
        <ele>967.4</ele>
        <time>2021-08-19T15:47:32Z</time>
      </trkpt>
      <trkpt lat="46.20953" lon="5.77232">
        <ele>967.3</ele>
        <time>2021-08-19T15:47:34Z</time>
      </trkpt>
      <trkpt lat="46.2095" lon="5.77238">
        <ele>967.3</ele>
        <time>2021-08-19T15:47:35Z</time>
      </trkpt>
      <trkpt lat="46.20945" lon="5.77252">
        <ele>967.3</ele>
        <time>2021-08-19T15:47:37Z</time>
      </trkpt>
      <trkpt lat="46.20942" lon="5.77259">
        <ele>967.3</ele>
        <time>2021-08-19T15:47:38Z</time>
      </trkpt>
      <trkpt lat="46.20939" lon="5.77266">
        <ele>967.3</ele>
        <time>2021-08-19T15:47:39Z</time>
      </trkpt>
      <trkpt lat="46.20935" lon="5.77278">
        <ele>967.2</ele>
        <time>2021-08-19T15:47:41Z</time>
      </trkpt>
      <trkpt lat="46.20933" lon="5.77284">
        <ele>967.2</ele>
        <time>2021-08-19T15:47:42Z</time>
      </trkpt>
      <trkpt lat="46.20928" lon="5.77295">
        <ele>967.1</ele>
        <time>2021-08-19T15:47:44Z</time>
      </trkpt>
      <trkpt lat="46.20923" lon="5.77306">
        <ele>967.1</ele>
        <time>2021-08-19T15:47:46Z</time>
      </trkpt>
      <trkpt lat="46.20914" lon="5.77312">
        <ele>967</ele>
        <time>2021-08-19T15:47:48Z</time>
      </trkpt>
      <trkpt lat="46.20905" lon="5.77317">
        <ele>967</ele>
        <time>2021-08-19T15:47:50Z</time>
      </trkpt>
      <trkpt lat="46.20895" lon="5.77317">
        <ele>966.9</ele>
        <time>2021-08-19T15:47:52Z</time>
      </trkpt>
      <trkpt lat="46.20889" lon="5.77315">
        <ele>966.9</ele>
        <time>2021-08-19T15:47:53Z</time>
      </trkpt>
      <trkpt lat="46.20883" lon="5.77312">
        <ele>966.9</ele>
        <time>2021-08-19T15:47:54Z</time>
      </trkpt>
      <trkpt lat="46.20879" lon="5.7731">
        <ele>966.9</ele>
        <time>2021-08-19T15:47:55Z</time>
      </trkpt>
      <trkpt lat="46.20874" lon="5.77307">
        <ele>966.9</ele>
        <time>2021-08-19T15:47:56Z</time>
      </trkpt>
      <trkpt lat="46.20864" lon="5.77297">
        <ele>967.1</ele>
        <time>2021-08-19T15:47:58Z</time>
      </trkpt>
      <trkpt lat="46.2086" lon="5.77293">
        <ele>967.2</ele>
        <time>2021-08-19T15:47:59Z</time>
      </trkpt>
      <trkpt lat="46.20855" lon="5.77284">
        <ele>967.5</ele>
        <time>2021-08-19T15:48:01Z</time>
      </trkpt>
      <trkpt lat="46.20851" lon="5.77279">
        <ele>967.7</ele>
        <time>2021-08-19T15:48:02Z</time>
      </trkpt>
      <trkpt lat="46.20845" lon="5.77271">
        <ele>968.1</ele>
        <time>2021-08-19T15:48:04Z</time>
      </trkpt>
      <trkpt lat="46.20842" lon="5.77268">
        <ele>968.3</ele>
        <time>2021-08-19T15:48:05Z</time>
      </trkpt>
      <trkpt lat="46.20842" lon="5.77267">
        <ele>968.3</ele>
        <time>2021-08-19T15:48:07Z</time>
      </trkpt>
      <trkpt lat="46.20841" lon="5.77266">
        <ele>968.4</ele>
        <time>2021-08-19T15:48:08Z</time>
      </trkpt>
      <trkpt lat="46.20835" lon="5.7726">
        <ele>968.8</ele>
        <time>2021-08-19T15:48:11Z</time>
      </trkpt>
      <trkpt lat="46.20834" lon="5.77258">
        <ele>968.9</ele>
        <time>2021-08-19T15:48:12Z</time>
      </trkpt>
      <trkpt lat="46.20833" lon="5.77257">
        <ele>969</ele>
        <time>2021-08-19T15:48:14Z</time>
      </trkpt>
      <trkpt lat="46.20832" lon="5.77258">
        <ele>969</ele>
        <time>2021-08-19T15:48:15Z</time>
      </trkpt>
      <trkpt lat="46.20829" lon="5.77258">
        <ele>969.2</ele>
        <time>2021-08-19T15:48:17Z</time>
      </trkpt>
      <trkpt lat="46.20825" lon="5.77259">
        <ele>969.4</ele>
        <time>2021-08-19T15:48:19Z</time>
      </trkpt>
      <trkpt lat="46.2082" lon="5.77259">
        <ele>969.7</ele>
        <time>2021-08-19T15:48:20Z</time>
      </trkpt>
      <trkpt lat="46.20817" lon="5.7726">
        <ele>969.9</ele>
        <time>2021-08-19T15:48:21Z</time>
      </trkpt>
      <trkpt lat="46.20812" lon="5.77262">
        <ele>970.1</ele>
        <time>2021-08-19T15:48:23Z</time>
      </trkpt>
      <trkpt lat="46.20809" lon="5.77264">
        <ele>970.3</ele>
        <time>2021-08-19T15:48:25Z</time>
      </trkpt>
      <trkpt lat="46.20806" lon="5.77265">
        <ele>970.5</ele>
        <time>2021-08-19T15:48:26Z</time>
      </trkpt>
      <trkpt lat="46.20802" lon="5.77269">
        <ele>970.7</ele>
        <time>2021-08-19T15:48:27Z</time>
      </trkpt>
      <trkpt lat="46.208" lon="5.77272">
        <ele>970.9</ele>
        <time>2021-08-19T15:48:28Z</time>
      </trkpt>
      <trkpt lat="46.20798" lon="5.77275">
        <ele>971</ele>
        <time>2021-08-19T15:48:30Z</time>
      </trkpt>
      <trkpt lat="46.20795" lon="5.7728">
        <ele>971.3</ele>
        <time>2021-08-19T15:48:31Z</time>
      </trkpt>
      <trkpt lat="46.20793" lon="5.77283">
        <ele>971.4</ele>
        <time>2021-08-19T15:48:32Z</time>
      </trkpt>
      <trkpt lat="46.20791" lon="5.77286">
        <ele>971.6</ele>
        <time>2021-08-19T15:48:33Z</time>
      </trkpt>
      <trkpt lat="46.20788" lon="5.77292">
        <ele>971.8</ele>
        <time>2021-08-19T15:48:35Z</time>
      </trkpt>
      <trkpt lat="46.20785" lon="5.77298">
        <ele>972</ele>
        <time>2021-08-19T15:48:36Z</time>
      </trkpt>
      <trkpt lat="46.20782" lon="5.77304">
        <ele>972.1</ele>
        <time>2021-08-19T15:48:37Z</time>
      </trkpt>
      <trkpt lat="46.2078" lon="5.7731">
        <ele>972.2</ele>
        <time>2021-08-19T15:48:38Z</time>
      </trkpt>
      <trkpt lat="46.20777" lon="5.77318">
        <ele>972.2</ele>
        <time>2021-08-19T15:48:40Z</time>
      </trkpt>
      <trkpt lat="46.20771" lon="5.7733">
        <ele>972.1</ele>
        <time>2021-08-19T15:48:42Z</time>
      </trkpt>
      <trkpt lat="46.20768" lon="5.77336">
        <ele>972</ele>
        <time>2021-08-19T15:48:43Z</time>
      </trkpt>
      <trkpt lat="46.20765" lon="5.77341">
        <ele>971.9</ele>
        <time>2021-08-19T15:48:44Z</time>
      </trkpt>
      <trkpt lat="46.20758" lon="5.77354">
        <ele>971.7</ele>
        <time>2021-08-19T15:48:46Z</time>
      </trkpt>
      <trkpt lat="46.20751" lon="5.77367">
        <ele>971.4</ele>
        <time>2021-08-19T15:48:48Z</time>
      </trkpt>
      <trkpt lat="46.20743" lon="5.77382">
        <ele>971.1</ele>
        <time>2021-08-19T15:48:50Z</time>
      </trkpt>
      <trkpt lat="46.20736" lon="5.77397">
        <ele>970.7</ele>
        <time>2021-08-19T15:48:52Z</time>
      </trkpt>
      <trkpt lat="46.20727" lon="5.77409">
        <ele>970.3</ele>
        <time>2021-08-19T15:48:54Z</time>
      </trkpt>
      <trkpt lat="46.20719" lon="5.77421">
        <ele>969.9</ele>
        <time>2021-08-19T15:48:56Z</time>
      </trkpt>
      <trkpt lat="46.20708" lon="5.77429">
        <ele>969.5</ele>
        <time>2021-08-19T15:48:58Z</time>
      </trkpt>
      <trkpt lat="46.20701" lon="5.7743">
        <ele>969.3</ele>
        <time>2021-08-19T15:48:59Z</time>
      </trkpt>
      <trkpt lat="46.20692" lon="5.77429">
        <ele>968.9</ele>
        <time>2021-08-19T15:49:01Z</time>
      </trkpt>
      <trkpt lat="46.20684" lon="5.77426">
        <ele>968.7</ele>
        <time>2021-08-19T15:49:02Z</time>
      </trkpt>
      <trkpt lat="46.20669" lon="5.77424">
        <ele>968.7</ele>
        <time>2021-08-19T15:49:04Z</time>
      </trkpt>
      <trkpt lat="46.20665" lon="5.77425">
        <ele>968.7</ele>
        <time>2021-08-19T15:49:05Z</time>
      </trkpt>
      <trkpt lat="46.20663" lon="5.77427">
        <ele>968.7</ele>
        <time>2021-08-19T15:49:06Z</time>
      </trkpt>
      <trkpt lat="46.20662" lon="5.77428">
        <ele>968.7</ele>
        <time>2021-08-19T15:49:07Z</time>
      </trkpt>
      <trkpt lat="46.20662" lon="5.77429">
        <ele>968.7</ele>
        <time>2021-08-19T15:49:08Z</time>
      </trkpt>
      <trkpt lat="46.20661" lon="5.77435">
        <ele>968.8</ele>
        <time>2021-08-19T15:49:10Z</time>
      </trkpt>
      <trkpt lat="46.20662" lon="5.77438">
        <ele>968.8</ele>
        <time>2021-08-19T15:49:12Z</time>
      </trkpt>
      <trkpt lat="46.20662" lon="5.77438">
        <ele>968.8</ele>
        <time>2021-08-19T15:49:13Z</time>
      </trkpt>
      <trkpt lat="46.20661" lon="5.77437">
        <ele>968.9</ele>
        <time>2021-08-19T15:49:15Z</time>
      </trkpt>
      <trkpt lat="46.20661" lon="5.77436">
        <ele>968.9</ele>
        <time>2021-08-19T15:49:16Z</time>
      </trkpt>
      <trkpt lat="46.20661" lon="5.77434">
        <ele>968.9</ele>
        <time>2021-08-19T15:49:17Z</time>
      </trkpt>
      <trkpt lat="46.20662" lon="5.77431">
        <ele>969</ele>
        <time>2021-08-19T15:49:18Z</time>
      </trkpt>
      <trkpt lat="46.20661" lon="5.77426">
        <ele>969.1</ele>
        <time>2021-08-19T15:49:20Z</time>
      </trkpt>
      <trkpt lat="46.20657" lon="5.77416">
        <ele>970.6</ele>
        <time>2021-08-19T15:49:21Z</time>
      </trkpt>
      <trkpt lat="46.20655" lon="5.77407">
        <ele>971.4</ele>
        <time>2021-08-19T15:49:23Z</time>
      </trkpt>
      <trkpt lat="46.20654" lon="5.77403">
        <ele>971.7</ele>
        <time>2021-08-19T15:49:24Z</time>
      </trkpt>
      <trkpt lat="46.20653" lon="5.774">
        <ele>972</ele>
        <time>2021-08-19T15:49:25Z</time>
      </trkpt>
      <trkpt lat="46.20653" lon="5.77398">
        <ele>972.2</ele>
        <time>2021-08-19T15:49:26Z</time>
      </trkpt>
      <trkpt lat="46.20652" lon="5.77393">
        <ele>972.7</ele>
        <time>2021-08-19T15:49:29Z</time>
      </trkpt>
      <trkpt lat="46.20633" lon="5.7739">
        <ele>975.2</ele>
        <time>2021-08-19T15:49:56Z</time>
      </trkpt>
      <trkpt lat="46.20631" lon="5.77394">
        <ele>975.7</ele>
        <time>2021-08-19T15:49:57Z</time>
      </trkpt>
      <trkpt lat="46.20629" lon="5.77398">
        <ele>976.1</ele>
        <time>2021-08-19T15:49:59Z</time>
      </trkpt>
      <trkpt lat="46.20628" lon="5.77402">
        <ele>976.5</ele>
        <time>2021-08-19T15:50:00Z</time>
      </trkpt>
      <trkpt lat="46.20626" lon="5.77406">
        <ele>976.9</ele>
        <time>2021-08-19T15:50:01Z</time>
      </trkpt>
      <trkpt lat="46.20626" lon="5.77407">
        <ele>977</ele>
        <time>2021-08-19T15:50:02Z</time>
      </trkpt>
      <trkpt lat="46.20625" lon="5.77408">
        <ele>977.2</ele>
        <time>2021-08-19T15:50:03Z</time>
      </trkpt>
      <trkpt lat="46.20625" lon="5.77408">
        <ele>977.2</ele>
        <time>2021-08-19T15:50:04Z</time>
      </trkpt>
      <trkpt lat="46.20625" lon="5.77403">
        <ele>977.7</ele>
        <time>2021-08-19T15:50:06Z</time>
      </trkpt>
      <trkpt lat="46.20625" lon="5.77403">
        <ele>977.7</ele>
        <time>2021-08-19T15:50:07Z</time>
      </trkpt>
      <trkpt lat="46.20625" lon="5.77403">
        <ele>977.7</ele>
        <time>2021-08-19T15:50:09Z</time>
      </trkpt>
      <trkpt lat="46.20625" lon="5.77403">
        <ele>977.7</ele>
        <time>2021-08-19T15:50:11Z</time>
      </trkpt>
      <trkpt lat="46.20625" lon="5.77403">
        <ele>977.7</ele>
        <time>2021-08-19T15:50:12Z</time>
      </trkpt>
      <trkpt lat="46.20625" lon="5.77403">
        <ele>977.8</ele>
        <time>2021-08-19T15:50:14Z</time>
      </trkpt>
      <trkpt lat="46.20606" lon="5.77407">
        <ele>980.1</ele>
        <time>2021-08-19T15:50:25Z</time>
      </trkpt>
      <trkpt lat="46.20601" lon="5.77406">
        <ele>980.7</ele>
        <time>2021-08-19T15:50:27Z</time>
      </trkpt>
      <trkpt lat="46.20598" lon="5.77405">
        <ele>981.1</ele>
        <time>2021-08-19T15:50:28Z</time>
      </trkpt>
      <trkpt lat="46.20594" lon="5.77405">
        <ele>981.6</ele>
        <time>2021-08-19T15:50:29Z</time>
      </trkpt>
      <trkpt lat="46.20589" lon="5.77403">
        <ele>982.3</ele>
        <time>2021-08-19T15:50:31Z</time>
      </trkpt>
      <trkpt lat="46.20586" lon="5.77401">
        <ele>982.7</ele>
        <time>2021-08-19T15:50:32Z</time>
      </trkpt>
      <trkpt lat="46.20582" lon="5.77398">
        <ele>983.1</ele>
        <time>2021-08-19T15:50:33Z</time>
      </trkpt>
      <trkpt lat="46.20578" lon="5.77396">
        <ele>983.6</ele>
        <time>2021-08-19T15:50:35Z</time>
      </trkpt>
      <trkpt lat="46.20575" lon="5.77395">
        <ele>984</ele>
        <time>2021-08-19T15:50:36Z</time>
      </trkpt>
      <trkpt lat="46.2057" lon="5.77396">
        <ele>984.4</ele>
        <time>2021-08-19T15:50:38Z</time>
      </trkpt>
      <trkpt lat="46.20566" lon="5.77397">
        <ele>984.8</ele>
        <time>2021-08-19T15:50:39Z</time>
      </trkpt>
      <trkpt lat="46.20565" lon="5.77397">
        <ele>984.9</ele>
        <time>2021-08-19T15:50:40Z</time>
      </trkpt>
      <trkpt lat="46.20563" lon="5.77397">
        <ele>985</ele>
        <time>2021-08-19T15:50:41Z</time>
      </trkpt>
      <trkpt lat="46.20562" lon="5.774">
        <ele>985.1</ele>
        <time>2021-08-19T15:50:42Z</time>
      </trkpt>
      <trkpt lat="46.20562" lon="5.77402">
        <ele>985.2</ele>
        <time>2021-08-19T15:50:43Z</time>
      </trkpt>
      <trkpt lat="46.20562" lon="5.77403">
        <ele>985.3</ele>
        <time>2021-08-19T15:50:45Z</time>
      </trkpt>
      <trkpt lat="46.20561" lon="5.77402">
        <ele>985.3</ele>
        <time>2021-08-19T15:50:46Z</time>
      </trkpt>
      <trkpt lat="46.2056" lon="5.774">
        <ele>985.4</ele>
        <time>2021-08-19T15:50:47Z</time>
      </trkpt>
      <trkpt lat="46.20558" lon="5.77396">
        <ele>985.6</ele>
        <time>2021-08-19T15:50:49Z</time>
      </trkpt>
      <trkpt lat="46.20557" lon="5.77389">
        <ele>985.8</ele>
        <time>2021-08-19T15:50:50Z</time>
      </trkpt>
      <trkpt lat="46.20557" lon="5.77387">
        <ele>985.9</ele>
        <time>2021-08-19T15:50:51Z</time>
      </trkpt>
      <trkpt lat="46.20556" lon="5.77381">
        <ele>986.1</ele>
        <time>2021-08-19T15:50:52Z</time>
      </trkpt>
      <trkpt lat="46.20555" lon="5.77374">
        <ele>986.3</ele>
        <time>2021-08-19T15:50:54Z</time>
      </trkpt>
      <trkpt lat="46.20555" lon="5.77368">
        <ele>986.4</ele>
        <time>2021-08-19T15:50:55Z</time>
      </trkpt>
      <trkpt lat="46.20555" lon="5.77364">
        <ele>986.6</ele>
        <time>2021-08-19T15:50:56Z</time>
      </trkpt>
      <trkpt lat="46.20555" lon="5.77359">
        <ele>986.7</ele>
        <time>2021-08-19T15:50:57Z</time>
      </trkpt>
      <trkpt lat="46.20555" lon="5.77355">
        <ele>986.8</ele>
        <time>2021-08-19T15:50:59Z</time>
      </trkpt>
      <trkpt lat="46.20554" lon="5.77348">
        <ele>987.1</ele>
        <time>2021-08-19T15:51:00Z</time>
      </trkpt>
      <trkpt lat="46.20553" lon="5.77343">
        <ele>987.3</ele>
        <time>2021-08-19T15:51:02Z</time>
      </trkpt>
      <trkpt lat="46.20552" lon="5.77341">
        <ele>987.4</ele>
        <time>2021-08-19T15:51:03Z</time>
      </trkpt>
      <trkpt lat="46.20551" lon="5.77338">
        <ele>987.5</ele>
        <time>2021-08-19T15:51:04Z</time>
      </trkpt>
      <trkpt lat="46.20552" lon="5.77332">
        <ele>987.8</ele>
        <time>2021-08-19T15:51:06Z</time>
      </trkpt>
      <trkpt lat="46.20554" lon="5.77329">
        <ele>987.9</ele>
        <time>2021-08-19T15:51:07Z</time>
      </trkpt>
      <trkpt lat="46.20557" lon="5.77325">
        <ele>988.2</ele>
        <time>2021-08-19T15:51:08Z</time>
      </trkpt>
      <trkpt lat="46.20558" lon="5.77323">
        <ele>988.4</ele>
        <time>2021-08-19T15:51:09Z</time>
      </trkpt>
      <trkpt lat="46.2056" lon="5.77319">
        <ele>988.6</ele>
        <time>2021-08-19T15:51:11Z</time>
      </trkpt>
      <trkpt lat="46.20562" lon="5.77314">
        <ele>988.9</ele>
        <time>2021-08-19T15:51:12Z</time>
      </trkpt>
      <trkpt lat="46.20562" lon="5.77312">
        <ele>989</ele>
        <time>2021-08-19T15:51:13Z</time>
      </trkpt>
      <trkpt lat="46.20564" lon="5.77307">
        <ele>989.3</ele>
        <time>2021-08-19T15:51:15Z</time>
      </trkpt>
      <trkpt lat="46.20566" lon="5.77304">
        <ele>989.6</ele>
        <time>2021-08-19T15:51:16Z</time>
      </trkpt>
      <trkpt lat="46.20569" lon="5.773">
        <ele>989.9</ele>
        <time>2021-08-19T15:51:18Z</time>
      </trkpt>
      <trkpt lat="46.20573" lon="5.773">
        <ele>990.2</ele>
        <time>2021-08-19T15:51:19Z</time>
      </trkpt>
      <trkpt lat="46.20574" lon="5.773">
        <ele>990.3</ele>
        <time>2021-08-19T15:51:20Z</time>
      </trkpt>
      <trkpt lat="46.20576" lon="5.77299">
        <ele>990.5</ele>
        <time>2021-08-19T15:51:21Z</time>
      </trkpt>
      <trkpt lat="46.20578" lon="5.77297">
        <ele>990.7</ele>
        <time>2021-08-19T15:51:23Z</time>
      </trkpt>
      <trkpt lat="46.2058" lon="5.77298">
        <ele>990.9</ele>
        <time>2021-08-19T15:51:25Z</time>
      </trkpt>
      <trkpt lat="46.20582" lon="5.77295">
        <ele>991.1</ele>
        <time>2021-08-19T15:51:26Z</time>
      </trkpt>
      <trkpt lat="46.20585" lon="5.77292">
        <ele>991.4</ele>
        <time>2021-08-19T15:51:27Z</time>
      </trkpt>
      <trkpt lat="46.20587" lon="5.77288">
        <ele>991.7</ele>
        <time>2021-08-19T15:51:28Z</time>
      </trkpt>
      <trkpt lat="46.20589" lon="5.77285">
        <ele>992</ele>
        <time>2021-08-19T15:51:29Z</time>
      </trkpt>
      <trkpt lat="46.20592" lon="5.77282">
        <ele>992.3</ele>
        <time>2021-08-19T15:51:30Z</time>
      </trkpt>
      <trkpt lat="46.20594" lon="5.77279">
        <ele>992.6</ele>
        <time>2021-08-19T15:51:32Z</time>
      </trkpt>
      <trkpt lat="46.20597" lon="5.77275">
        <ele>992.9</ele>
        <time>2021-08-19T15:51:34Z</time>
      </trkpt>
      <trkpt lat="46.20599" lon="5.77272">
        <ele>993.2</ele>
        <time>2021-08-19T15:52:04Z</time>
      </trkpt>
      <trkpt lat="46.20601" lon="5.77269">
        <ele>993.5</ele>
        <time>2021-08-19T15:52:05Z</time>
      </trkpt>
      <trkpt lat="46.20604" lon="5.77266">
        <ele>993.8</ele>
        <time>2021-08-19T15:52:06Z</time>
      </trkpt>
      <trkpt lat="46.20605" lon="5.77259">
        <ele>994.2</ele>
        <time>2021-08-19T15:52:08Z</time>
      </trkpt>
      <trkpt lat="46.20608" lon="5.77253">
        <ele>994.6</ele>
        <time>2021-08-19T15:52:09Z</time>
      </trkpt>
      <trkpt lat="46.20609" lon="5.77249">
        <ele>994.8</ele>
        <time>2021-08-19T15:52:11Z</time>
      </trkpt>
      <trkpt lat="46.20609" lon="5.77244">
        <ele>995.1</ele>
        <time>2021-08-19T15:52:12Z</time>
      </trkpt>
      <trkpt lat="46.2061" lon="5.77242">
        <ele>995.3</ele>
        <time>2021-08-19T15:52:14Z</time>
      </trkpt>
      <trkpt lat="46.20613" lon="5.77237">
        <ele>995.6</ele>
        <time>2021-08-19T15:52:16Z</time>
      </trkpt>
      <trkpt lat="46.20616" lon="5.77235">
        <ele>995.9</ele>
        <time>2021-08-19T15:52:17Z</time>
      </trkpt>
      <trkpt lat="46.20616" lon="5.77234">
        <ele>996</ele>
        <time>2021-08-19T15:52:18Z</time>
      </trkpt>
      <trkpt lat="46.20618" lon="5.77232">
        <ele>996.1</ele>
        <time>2021-08-19T15:52:19Z</time>
      </trkpt>
      <trkpt lat="46.20619" lon="5.7723">
        <ele>996.2</ele>
        <time>2021-08-19T15:52:20Z</time>
      </trkpt>
      <trkpt lat="46.20619" lon="5.77227">
        <ele>996.4</ele>
        <time>2021-08-19T15:52:21Z</time>
      </trkpt>
      <trkpt lat="46.20619" lon="5.77224">
        <ele>996.6</ele>
        <time>2021-08-19T15:52:23Z</time>
      </trkpt>
      <trkpt lat="46.20619" lon="5.7722">
        <ele>996.8</ele>
        <time>2021-08-19T15:52:24Z</time>
      </trkpt>
      <trkpt lat="46.20619" lon="5.77219">
        <ele>996.9</ele>
        <time>2021-08-19T15:52:25Z</time>
      </trkpt>
      <trkpt lat="46.20619" lon="5.77217">
        <ele>997</ele>
        <time>2021-08-19T15:52:27Z</time>
      </trkpt>
      <trkpt lat="46.20618" lon="5.77216">
        <ele>997.1</ele>
        <time>2021-08-19T15:52:28Z</time>
      </trkpt>
      <trkpt lat="46.20618" lon="5.77213">
        <ele>997.3</ele>
        <time>2021-08-19T15:52:30Z</time>
      </trkpt>
      <trkpt lat="46.20618" lon="5.77211">
        <ele>997.4</ele>
        <time>2021-08-19T15:52:31Z</time>
      </trkpt>
      <trkpt lat="46.20618" lon="5.77209">
        <ele>997.6</ele>
        <time>2021-08-19T15:52:32Z</time>
      </trkpt>
      <trkpt lat="46.2062" lon="5.77205">
        <ele>997.8</ele>
        <time>2021-08-19T15:52:33Z</time>
      </trkpt>
      <trkpt lat="46.2062" lon="5.77204">
        <ele>997.9</ele>
        <time>2021-08-19T15:52:34Z</time>
      </trkpt>
      <trkpt lat="46.20621" lon="5.77202">
        <ele>998</ele>
        <time>2021-08-19T15:52:36Z</time>
      </trkpt>
      <trkpt lat="46.20621" lon="5.77201">
        <ele>998.1</ele>
        <time>2021-08-19T15:52:37Z</time>
      </trkpt>
      <trkpt lat="46.20622" lon="5.772">
        <ele>998.1</ele>
        <time>2021-08-19T15:52:38Z</time>
      </trkpt>
      <trkpt lat="46.20622" lon="5.772">
        <ele>998.2</ele>
        <time>2021-08-19T15:52:40Z</time>
      </trkpt>
      <trkpt lat="46.20623" lon="5.772">
        <ele>998.2</ele>
        <time>2021-08-19T15:52:41Z</time>
      </trkpt>
      <trkpt lat="46.20623" lon="5.77201">
        <ele>998.3</ele>
        <time>2021-08-19T15:52:42Z</time>
      </trkpt>
      <trkpt lat="46.20624" lon="5.77201">
        <ele>998.4</ele>
        <time>2021-08-19T15:52:43Z</time>
      </trkpt>
      <trkpt lat="46.20625" lon="5.77201">
        <ele>998.4</ele>
        <time>2021-08-19T15:52:45Z</time>
      </trkpt>
      <trkpt lat="46.20625" lon="5.772">
        <ele>998.5</ele>
        <time>2021-08-19T15:52:46Z</time>
      </trkpt>
      <trkpt lat="46.20626" lon="5.77199">
        <ele>998.5</ele>
        <time>2021-08-19T15:52:47Z</time>
      </trkpt>
      <trkpt lat="46.20626" lon="5.77199">
        <ele>998.6</ele>
        <time>2021-08-19T15:52:48Z</time>
      </trkpt>
      <trkpt lat="46.20626" lon="5.77198">
        <ele>998.6</ele>
        <time>2021-08-19T15:52:49Z</time>
      </trkpt>
      <trkpt lat="46.20626" lon="5.77197">
        <ele>998.7</ele>
        <time>2021-08-19T15:52:51Z</time>
      </trkpt>
      <trkpt lat="46.20627" lon="5.77197">
        <ele>998.7</ele>
        <time>2021-08-19T15:52:52Z</time>
      </trkpt>
      <trkpt lat="46.20627" lon="5.77193">
        <ele>999</ele>
        <time>2021-08-19T15:52:53Z</time>
      </trkpt>
      <trkpt lat="46.20635" lon="5.77169">
        <ele>1000.5</ele>
        <time>2021-08-19T15:53:04Z</time>
      </trkpt>
      <trkpt lat="46.20637" lon="5.77165">
        <ele>1000.8</ele>
        <time>2021-08-19T15:53:05Z</time>
      </trkpt>
      <trkpt lat="46.20638" lon="5.77162">
        <ele>1001</ele>
        <time>2021-08-19T15:53:06Z</time>
      </trkpt>
      <trkpt lat="46.20639" lon="5.77159">
        <ele>1001.2</ele>
        <time>2021-08-19T15:53:08Z</time>
      </trkpt>
      <trkpt lat="46.20641" lon="5.77156">
        <ele>1001.4</ele>
        <time>2021-08-19T15:53:09Z</time>
      </trkpt>
      <trkpt lat="46.20645" lon="5.77153">
        <ele>1001.8</ele>
        <time>2021-08-19T15:53:10Z</time>
      </trkpt>
      <trkpt lat="46.20646" lon="5.77152">
        <ele>1001.9</ele>
        <time>2021-08-19T15:53:11Z</time>
      </trkpt>
      <trkpt lat="46.20649" lon="5.77148">
        <ele>1002.2</ele>
        <time>2021-08-19T15:53:13Z</time>
      </trkpt>
      <trkpt lat="46.20649" lon="5.77146">
        <ele>1002.4</ele>
        <time>2021-08-19T15:53:14Z</time>
      </trkpt>
      <trkpt lat="46.20648" lon="5.77142">
        <ele>1002.6</ele>
        <time>2021-08-19T15:53:16Z</time>
      </trkpt>
      <trkpt lat="46.20645" lon="5.77138">
        <ele>1002.9</ele>
        <time>2021-08-19T15:53:17Z</time>
      </trkpt>
      <trkpt lat="46.20645" lon="5.77137">
        <ele>1003</ele>
        <time>2021-08-19T15:53:18Z</time>
      </trkpt>
      <trkpt lat="46.20644" lon="5.77135">
        <ele>1003.1</ele>
        <time>2021-08-19T15:53:19Z</time>
      </trkpt>
      <trkpt lat="46.20644" lon="5.77133">
        <ele>1003.3</ele>
        <time>2021-08-19T15:53:21Z</time>
      </trkpt>
      <trkpt lat="46.20643" lon="5.77132">
        <ele>1003.4</ele>
        <time>2021-08-19T15:53:23Z</time>
      </trkpt>
      <trkpt lat="46.20643" lon="5.77129">
        <ele>1003.5</ele>
        <time>2021-08-19T15:53:24Z</time>
      </trkpt>
      <trkpt lat="46.20644" lon="5.77125">
        <ele>1003.8</ele>
        <time>2021-08-19T15:53:26Z</time>
      </trkpt>
      <trkpt lat="46.20644" lon="5.77122">
        <ele>1004</ele>
        <time>2021-08-19T15:53:28Z</time>
      </trkpt>
      <trkpt lat="46.20646" lon="5.77119">
        <ele>1004.2</ele>
        <time>2021-08-19T15:53:30Z</time>
      </trkpt>
      <trkpt lat="46.20647" lon="5.77119">
        <ele>1004.4</ele>
        <time>2021-08-19T15:53:31Z</time>
      </trkpt>
      <trkpt lat="46.20648" lon="5.77119">
        <ele>1004.4</ele>
        <time>2021-08-19T15:53:32Z</time>
      </trkpt>
      <trkpt lat="46.20647" lon="5.77118">
        <ele>1004.5</ele>
        <time>2021-08-19T15:53:33Z</time>
      </trkpt>
      <trkpt lat="46.20647" lon="5.77117">
        <ele>1004.5</ele>
        <time>2021-08-19T15:53:35Z</time>
      </trkpt>
      <trkpt lat="46.20647" lon="5.77117">
        <ele>1004.5</ele>
        <time>2021-08-19T15:53:36Z</time>
      </trkpt>
      <trkpt lat="46.20647" lon="5.77116">
        <ele>1004.6</ele>
        <time>2021-08-19T15:53:38Z</time>
      </trkpt>
      <trkpt lat="46.20647" lon="5.77115">
        <ele>1004.7</ele>
        <time>2021-08-19T15:53:39Z</time>
      </trkpt>
      <trkpt lat="46.20647" lon="5.77114">
        <ele>1004.7</ele>
        <time>2021-08-19T15:53:40Z</time>
      </trkpt>
      <trkpt lat="46.20648" lon="5.77098">
        <ele>1005.7</ele>
        <time>2021-08-19T15:53:47Z</time>
      </trkpt>
      <trkpt lat="46.20648" lon="5.77095">
        <ele>1005.9</ele>
        <time>2021-08-19T15:53:48Z</time>
      </trkpt>
      <trkpt lat="46.20647" lon="5.77089">
        <ele>1006.3</ele>
        <time>2021-08-19T15:53:50Z</time>
      </trkpt>
      <trkpt lat="46.20646" lon="5.77084">
        <ele>1006.6</ele>
        <time>2021-08-19T15:53:51Z</time>
      </trkpt>
      <trkpt lat="46.20646" lon="5.77082">
        <ele>1006.8</ele>
        <time>2021-08-19T15:53:52Z</time>
      </trkpt>
      <trkpt lat="46.20646" lon="5.77078">
        <ele>1007</ele>
        <time>2021-08-19T15:53:53Z</time>
      </trkpt>
      <trkpt lat="46.20646" lon="5.77072">
        <ele>1007.4</ele>
        <time>2021-08-19T15:53:54Z</time>
      </trkpt>
      <trkpt lat="46.20646" lon="5.7707">
        <ele>1007.5</ele>
        <time>2021-08-19T15:53:55Z</time>
      </trkpt>
      <trkpt lat="46.20645" lon="5.77066">
        <ele>1007.7</ele>
        <time>2021-08-19T15:53:57Z</time>
      </trkpt>
      <trkpt lat="46.20645" lon="5.77062">
        <ele>1008</ele>
        <time>2021-08-19T15:53:58Z</time>
      </trkpt>
      <trkpt lat="46.20645" lon="5.77058">
        <ele>1008.1</ele>
        <time>2021-08-19T15:53:59Z</time>
      </trkpt>
      <trkpt lat="46.20646" lon="5.77055">
        <ele>1008.3</ele>
        <time>2021-08-19T15:54:01Z</time>
      </trkpt>
      <trkpt lat="46.20646" lon="5.77052">
        <ele>1008.5</ele>
        <time>2021-08-19T15:54:02Z</time>
      </trkpt>
      <trkpt lat="46.20648" lon="5.77048">
        <ele>1008.7</ele>
        <time>2021-08-19T15:54:04Z</time>
      </trkpt>
      <trkpt lat="46.20649" lon="5.77046">
        <ele>1008.8</ele>
        <time>2021-08-19T15:54:06Z</time>
      </trkpt>
      <trkpt lat="46.20649" lon="5.77045">
        <ele>1008.9</ele>
        <time>2021-08-19T15:54:07Z</time>
      </trkpt>
      <trkpt lat="46.20649" lon="5.77044">
        <ele>1009</ele>
        <time>2021-08-19T15:54:08Z</time>
      </trkpt>
      <trkpt lat="46.20649" lon="5.77041">
        <ele>1009.1</ele>
        <time>2021-08-19T15:54:10Z</time>
      </trkpt>
      <trkpt lat="46.20649" lon="5.77038">
        <ele>1009.2</ele>
        <time>2021-08-19T15:54:11Z</time>
      </trkpt>
      <trkpt lat="46.2065" lon="5.77036">
        <ele>1009.3</ele>
        <time>2021-08-19T15:54:12Z</time>
      </trkpt>
      <trkpt lat="46.2065" lon="5.77035">
        <ele>1009.4</ele>
        <time>2021-08-19T15:54:13Z</time>
      </trkpt>
      <trkpt lat="46.20651" lon="5.77034">
        <ele>1009.5</ele>
        <time>2021-08-19T15:54:14Z</time>
      </trkpt>
      <trkpt lat="46.20652" lon="5.77032">
        <ele>1009.6</ele>
        <time>2021-08-19T15:54:15Z</time>
      </trkpt>
      <trkpt lat="46.20653" lon="5.7703">
        <ele>1009.7</ele>
        <time>2021-08-19T15:54:17Z</time>
      </trkpt>
      <trkpt lat="46.20653" lon="5.77028">
        <ele>1009.8</ele>
        <time>2021-08-19T15:54:18Z</time>
      </trkpt>
      <trkpt lat="46.20653" lon="5.77027">
        <ele>1009.8</ele>
        <time>2021-08-19T15:54:19Z</time>
      </trkpt>
      <trkpt lat="46.20653" lon="5.77026">
        <ele>1009.9</ele>
        <time>2021-08-19T15:54:20Z</time>
      </trkpt>
      <trkpt lat="46.20652" lon="5.77024">
        <ele>1010</ele>
        <time>2021-08-19T15:54:21Z</time>
      </trkpt>
      <trkpt lat="46.20651" lon="5.77024">
        <ele>1010</ele>
        <time>2021-08-19T15:54:22Z</time>
      </trkpt>
      <trkpt lat="46.20651" lon="5.77023">
        <ele>1010.1</ele>
        <time>2021-08-19T15:54:24Z</time>
      </trkpt>
      <trkpt lat="46.20651" lon="5.77023">
        <ele>1010.1</ele>
        <time>2021-08-19T15:54:25Z</time>
      </trkpt>
      <trkpt lat="46.20591" lon="5.76913">
        <ele>1017.8</ele>
        <time>2021-08-19T15:56:06Z</time>
      </trkpt>
      <trkpt lat="46.20588" lon="5.76907">
        <ele>1018.1</ele>
        <time>2021-08-19T15:56:07Z</time>
      </trkpt>
      <trkpt lat="46.20584" lon="5.76903">
        <ele>1018.4</ele>
        <time>2021-08-19T15:56:09Z</time>
      </trkpt>
      <trkpt lat="46.20582" lon="5.76901">
        <ele>1018.6</ele>
        <time>2021-08-19T15:56:10Z</time>
      </trkpt>
      <trkpt lat="46.2058" lon="5.769">
        <ele>1018.7</ele>
        <time>2021-08-19T15:56:11Z</time>
      </trkpt>
      <trkpt lat="46.20577" lon="5.76898">
        <ele>1019</ele>
        <time>2021-08-19T15:56:12Z</time>
      </trkpt>
      <trkpt lat="46.20576" lon="5.76897">
        <ele>1019</ele>
        <time>2021-08-19T15:56:13Z</time>
      </trkpt>
      <trkpt lat="46.20575" lon="5.76896">
        <ele>1019.2</ele>
        <time>2021-08-19T15:56:14Z</time>
      </trkpt>
      <trkpt lat="46.20574" lon="5.76894">
        <ele>1019.3</ele>
        <time>2021-08-19T15:56:15Z</time>
      </trkpt>
      <trkpt lat="46.20572" lon="5.76889">
        <ele>1019.5</ele>
        <time>2021-08-19T15:56:16Z</time>
      </trkpt>
      <trkpt lat="46.20572" lon="5.76888">
        <ele>1019.6</ele>
        <time>2021-08-19T15:56:17Z</time>
      </trkpt>
      <trkpt lat="46.20571" lon="5.76886">
        <ele>1019.7</ele>
        <time>2021-08-19T15:56:18Z</time>
      </trkpt>
      <trkpt lat="46.20567" lon="5.76882">
        <ele>1020</ele>
        <time>2021-08-19T15:56:20Z</time>
      </trkpt>
      <trkpt lat="46.20566" lon="5.7688">
        <ele>1020.2</ele>
        <time>2021-08-19T15:56:21Z</time>
      </trkpt>
      <trkpt lat="46.20566" lon="5.7688">
        <ele>1020.2</ele>
        <time>2021-08-19T15:56:23Z</time>
      </trkpt>
      <trkpt lat="46.20565" lon="5.7688">
        <ele>1020.3</ele>
        <time>2021-08-19T15:56:24Z</time>
      </trkpt>
      <trkpt lat="46.20563" lon="5.7688">
        <ele>1020.4</ele>
        <time>2021-08-19T15:56:25Z</time>
      </trkpt>
      <trkpt lat="46.20563" lon="5.76879">
        <ele>1020.4</ele>
        <time>2021-08-19T15:56:26Z</time>
      </trkpt>
      <trkpt lat="46.2056" lon="5.76879">
        <ele>1020.6</ele>
        <time>2021-08-19T15:56:28Z</time>
      </trkpt>
      <trkpt lat="46.20558" lon="5.76877">
        <ele>1020.7</ele>
        <time>2021-08-19T15:56:29Z</time>
      </trkpt>
      <trkpt lat="46.20557" lon="5.76876">
        <ele>1020.8</ele>
        <time>2021-08-19T15:56:30Z</time>
      </trkpt>
      <trkpt lat="46.20555" lon="5.76873">
        <ele>1021</ele>
        <time>2021-08-19T15:56:31Z</time>
      </trkpt>
      <trkpt lat="46.20552" lon="5.76871">
        <ele>1021.2</ele>
        <time>2021-08-19T15:56:32Z</time>
      </trkpt>
      <trkpt lat="46.20551" lon="5.7687">
        <ele>1021.2</ele>
        <time>2021-08-19T15:56:33Z</time>
      </trkpt>
      <trkpt lat="46.2055" lon="5.76869">
        <ele>1021.3</ele>
        <time>2021-08-19T15:56:35Z</time>
      </trkpt>
      <trkpt lat="46.20549" lon="5.76867">
        <ele>1021.4</ele>
        <time>2021-08-19T15:56:36Z</time>
      </trkpt>
      <trkpt lat="46.20538" lon="5.76855">
        <ele>1022</ele>
        <time>2021-08-19T15:56:42Z</time>
      </trkpt>
      <trkpt lat="46.20538" lon="5.76854">
        <ele>1022.1</ele>
        <time>2021-08-19T15:56:43Z</time>
      </trkpt>
      <trkpt lat="46.20537" lon="5.76853">
        <ele>1022.2</ele>
        <time>2021-08-19T15:56:45Z</time>
      </trkpt>
      <trkpt lat="46.20537" lon="5.76852">
        <ele>1022.2</ele>
        <time>2021-08-19T15:56:46Z</time>
      </trkpt>
      <trkpt lat="46.20536" lon="5.76851">
        <ele>1022.2</ele>
        <time>2021-08-19T15:56:47Z</time>
      </trkpt>
      <trkpt lat="46.20535" lon="5.76851">
        <ele>1022.2</ele>
        <time>2021-08-19T15:56:48Z</time>
      </trkpt>
      <trkpt lat="46.20535" lon="5.76851">
        <ele>1022.3</ele>
        <time>2021-08-19T15:56:49Z</time>
      </trkpt>
      <trkpt lat="46.20534" lon="5.7685">
        <ele>1022.3</ele>
        <time>2021-08-19T15:56:51Z</time>
      </trkpt>
      <trkpt lat="46.20534" lon="5.7685">
        <ele>1022.3</ele>
        <time>2021-08-19T15:56:52Z</time>
      </trkpt>
      <trkpt lat="46.20533" lon="5.7685">
        <ele>1022.4</ele>
        <time>2021-08-19T15:56:53Z</time>
      </trkpt>
      <trkpt lat="46.2052" lon="5.76841">
        <ele>1023.2</ele>
        <time>2021-08-19T15:57:04Z</time>
      </trkpt>
      <trkpt lat="46.20518" lon="5.76837">
        <ele>1023.3</ele>
        <time>2021-08-19T15:57:05Z</time>
      </trkpt>
      <trkpt lat="46.20515" lon="5.76834">
        <ele>1023.6</ele>
        <time>2021-08-19T15:57:07Z</time>
      </trkpt>
      <trkpt lat="46.20513" lon="5.76833">
        <ele>1023.7</ele>
        <time>2021-08-19T15:57:08Z</time>
      </trkpt>
      <trkpt lat="46.20512" lon="5.76832">
        <ele>1023.8</ele>
        <time>2021-08-19T15:57:09Z</time>
      </trkpt>
      <trkpt lat="46.20511" lon="5.76832">
        <ele>1023.9</ele>
        <time>2021-08-19T15:57:11Z</time>
      </trkpt>
      <trkpt lat="46.20511" lon="5.76832">
        <ele>1023.9</ele>
        <time>2021-08-19T15:57:12Z</time>
      </trkpt>
      <trkpt lat="46.2051" lon="5.76832">
        <ele>1023.9</ele>
        <time>2021-08-19T15:57:13Z</time>
      </trkpt>
      <trkpt lat="46.20509" lon="5.76831">
        <ele>1024</ele>
        <time>2021-08-19T15:57:14Z</time>
      </trkpt>
      <trkpt lat="46.20507" lon="5.7683">
        <ele>1024.1</ele>
        <time>2021-08-19T15:57:15Z</time>
      </trkpt>
      <trkpt lat="46.20506" lon="5.76829">
        <ele>1024.2</ele>
        <time>2021-08-19T15:57:17Z</time>
      </trkpt>
      <trkpt lat="46.20505" lon="5.76828">
        <ele>1024.3</ele>
        <time>2021-08-19T15:57:18Z</time>
      </trkpt>
      <trkpt lat="46.20504" lon="5.76828">
        <ele>1024.4</ele>
        <time>2021-08-19T15:57:19Z</time>
      </trkpt>
      <trkpt lat="46.20504" lon="5.76827">
        <ele>1024.4</ele>
        <time>2021-08-19T15:57:21Z</time>
      </trkpt>
      <trkpt lat="46.20471" lon="5.7676">
        <ele>1027.3</ele>
        <time>2021-08-19T15:58:09Z</time>
      </trkpt>
      <trkpt lat="46.20469" lon="5.76756">
        <ele>1027.4</ele>
        <time>2021-08-19T15:58:10Z</time>
      </trkpt>
      <trkpt lat="46.20465" lon="5.76753">
        <ele>1027.5</ele>
        <time>2021-08-19T15:58:11Z</time>
      </trkpt>
      <trkpt lat="46.20461" lon="5.76752">
        <ele>1027.5</ele>
        <time>2021-08-19T15:58:12Z</time>
      </trkpt>
      <trkpt lat="46.20458" lon="5.7675">
        <ele>1027.5</ele>
        <time>2021-08-19T15:58:13Z</time>
      </trkpt>
      <trkpt lat="46.20453" lon="5.76749">
        <ele>1027.5</ele>
        <time>2021-08-19T15:58:15Z</time>
      </trkpt>
      <trkpt lat="46.20448" lon="5.76746">
        <ele>1027.4</ele>
        <time>2021-08-19T15:58:17Z</time>
      </trkpt>
      <trkpt lat="46.20443" lon="5.76743">
        <ele>1027.4</ele>
        <time>2021-08-19T15:58:18Z</time>
      </trkpt>
      <trkpt lat="46.20438" lon="5.76739">
        <ele>1027.3</ele>
        <time>2021-08-19T15:58:20Z</time>
      </trkpt>
      <trkpt lat="46.20433" lon="5.76737">
        <ele>1027.1</ele>
        <time>2021-08-19T15:58:21Z</time>
      </trkpt>
      <trkpt lat="46.2043" lon="5.76735">
        <ele>1027</ele>
        <time>2021-08-19T15:58:22Z</time>
      </trkpt>
      <trkpt lat="46.20425" lon="5.76733">
        <ele>1026.9</ele>
        <time>2021-08-19T15:58:24Z</time>
      </trkpt>
      <trkpt lat="46.20418" lon="5.76728">
        <ele>1026.7</ele>
        <time>2021-08-19T15:58:25Z</time>
      </trkpt>
      <trkpt lat="46.20413" lon="5.76725">
        <ele>1026.6</ele>
        <time>2021-08-19T15:58:26Z</time>
      </trkpt>
      <trkpt lat="46.20401" lon="5.7672">
        <ele>1026.5</ele>
        <time>2021-08-19T15:58:28Z</time>
      </trkpt>
      <trkpt lat="46.20396" lon="5.76719">
        <ele>1026.5</ele>
        <time>2021-08-19T15:58:29Z</time>
      </trkpt>
      <trkpt lat="46.2039" lon="5.76717">
        <ele>1026.6</ele>
        <time>2021-08-19T15:58:30Z</time>
      </trkpt>
      <trkpt lat="46.20383" lon="5.76715">
        <ele>1026.7</ele>
        <time>2021-08-19T15:58:32Z</time>
      </trkpt>
      <trkpt lat="46.20375" lon="5.76712">
        <ele>1026.8</ele>
        <time>2021-08-19T15:58:33Z</time>
      </trkpt>
      <trkpt lat="46.20372" lon="5.76712">
        <ele>1026.9</ele>
        <time>2021-08-19T15:58:35Z</time>
      </trkpt>
      <trkpt lat="46.20369" lon="5.76714">
        <ele>1027</ele>
        <time>2021-08-19T15:58:36Z</time>
      </trkpt>
      <trkpt lat="46.20365" lon="5.76715">
        <ele>1027.1</ele>
        <time>2021-08-19T15:58:37Z</time>
      </trkpt>
      <trkpt lat="46.20362" lon="5.76714">
        <ele>1027.2</ele>
        <time>2021-08-19T15:58:39Z</time>
      </trkpt>
      <trkpt lat="46.20361" lon="5.76714">
        <ele>1027.3</ele>
        <time>2021-08-19T15:58:40Z</time>
      </trkpt>
      <trkpt lat="46.20358" lon="5.76712">
        <ele>1027.4</ele>
        <time>2021-08-19T15:58:42Z</time>
      </trkpt>
      <trkpt lat="46.20357" lon="5.76712">
        <ele>1027.4</ele>
        <time>2021-08-19T15:58:43Z</time>
      </trkpt>
      <trkpt lat="46.20294" lon="5.7664">
        <ele>1029.6</ele>
        <time>2021-08-19T15:59:26Z</time>
      </trkpt>
      <trkpt lat="46.20289" lon="5.76632">
        <ele>1029.4</ele>
        <time>2021-08-19T15:59:27Z</time>
      </trkpt>
      <trkpt lat="46.20287" lon="5.76628">
        <ele>1029.3</ele>
        <time>2021-08-19T15:59:28Z</time>
      </trkpt>
      <trkpt lat="46.20286" lon="5.76627">
        <ele>1029.3</ele>
        <time>2021-08-19T15:59:29Z</time>
      </trkpt>
      <trkpt lat="46.20284" lon="5.76624">
        <ele>1029.2</ele>
        <time>2021-08-19T15:59:30Z</time>
      </trkpt>
      <trkpt lat="46.20283" lon="5.76621">
        <ele>1029.1</ele>
        <time>2021-08-19T15:59:32Z</time>
      </trkpt>
      <trkpt lat="46.2028" lon="5.76613">
        <ele>1028.8</ele>
        <time>2021-08-19T15:59:33Z</time>
      </trkpt>
      <trkpt lat="46.20278" lon="5.76608">
        <ele>1028.7</ele>
        <time>2021-08-19T15:59:34Z</time>
      </trkpt>
      <trkpt lat="46.20277" lon="5.76605">
        <ele>1028.6</ele>
        <time>2021-08-19T15:59:35Z</time>
      </trkpt>
      <trkpt lat="46.20275" lon="5.76598">
        <ele>1028.4</ele>
        <time>2021-08-19T15:59:37Z</time>
      </trkpt>
      <trkpt lat="46.20032" lon="5.76348">
        <ele>1026.1</ele>
        <time>2021-08-19T16:01:34Z</time>
      </trkpt>
      <trkpt lat="46.20008" lon="5.76336">
        <ele>1021.2</ele>
        <time>2021-08-19T16:01:36Z</time>
      </trkpt>
      <trkpt lat="46.1999" lon="5.7633">
        <ele>1017.5</ele>
        <time>2021-08-19T16:01:38Z</time>
      </trkpt>
      <trkpt lat="46.19979" lon="5.76326">
        <ele>1015.4</ele>
        <time>2021-08-19T16:01:39Z</time>
      </trkpt>
      <trkpt lat="46.1997" lon="5.76321">
        <ele>1013.8</ele>
        <time>2021-08-19T16:01:41Z</time>
      </trkpt>
      <trkpt lat="46.19966" lon="5.76319">
        <ele>1013</ele>
        <time>2021-08-19T16:01:42Z</time>
      </trkpt>
      <trkpt lat="46.19962" lon="5.76316">
        <ele>1012.2</ele>
        <time>2021-08-19T16:01:44Z</time>
      </trkpt>
      <trkpt lat="46.19958" lon="5.76314">
        <ele>1011.4</ele>
        <time>2021-08-19T16:01:45Z</time>
      </trkpt>
      <trkpt lat="46.19946" lon="5.76309">
        <ele>1009.2</ele>
        <time>2021-08-19T16:01:46Z</time>
      </trkpt>
      <trkpt lat="46.19931" lon="5.76301">
        <ele>1006.1</ele>
        <time>2021-08-19T16:01:47Z</time>
      </trkpt>
      <trkpt lat="46.19926" lon="5.76297">
        <ele>1004.9</ele>
        <time>2021-08-19T16:01:48Z</time>
      </trkpt>
      <trkpt lat="46.1992" lon="5.76293">
        <ele>1003.5</ele>
        <time>2021-08-19T16:01:50Z</time>
      </trkpt>
      <trkpt lat="46.19915" lon="5.76289">
        <ele>1002.5</ele>
        <time>2021-08-19T16:01:51Z</time>
      </trkpt>
      <trkpt lat="46.19456" lon="5.757">
        <ele>912.5</ele>
        <time>2021-08-19T16:03:11Z</time>
      </trkpt>
      <trkpt lat="46.19451" lon="5.75693">
        <ele>911.9</ele>
        <time>2021-08-19T16:03:12Z</time>
      </trkpt>
      <trkpt lat="46.19448" lon="5.75688">
        <ele>911.5</ele>
        <time>2021-08-19T16:03:14Z</time>
      </trkpt>
      <trkpt lat="46.19439" lon="5.75681">
        <ele>910.7</ele>
        <time>2021-08-19T16:03:16Z</time>
      </trkpt>
      <trkpt lat="46.19419" lon="5.75671">
        <ele>908.9</ele>
        <time>2021-08-19T16:03:18Z</time>
      </trkpt>
      <trkpt lat="46.194" lon="5.75658">
        <ele>906.9</ele>
        <time>2021-08-19T16:03:20Z</time>
      </trkpt>
      <trkpt lat="46.19383" lon="5.75639">
        <ele>904.1</ele>
        <time>2021-08-19T16:03:22Z</time>
      </trkpt>
      <trkpt lat="46.19358" lon="5.75625">
        <ele>900.1</ele>
        <time>2021-08-19T16:03:24Z</time>
      </trkpt>
      <trkpt lat="46.19348" lon="5.75621">
        <ele>898.5</ele>
        <time>2021-08-19T16:03:25Z</time>
      </trkpt>
      <trkpt lat="46.19337" lon="5.75616">
        <ele>897</ele>
        <time>2021-08-19T16:03:26Z</time>
      </trkpt>
      <trkpt lat="46.19327" lon="5.75612">
        <ele>895.5</ele>
        <time>2021-08-19T16:03:28Z</time>
      </trkpt>
      <trkpt lat="46.19319" lon="5.75606">
        <ele>894.2</ele>
        <time>2021-08-19T16:03:29Z</time>
      </trkpt>
      <trkpt lat="46.19312" lon="5.756">
        <ele>893</ele>
        <time>2021-08-19T16:03:30Z</time>
      </trkpt>
      <trkpt lat="46.19305" lon="5.75594">
        <ele>891.8</ele>
        <time>2021-08-19T16:03:31Z</time>
      </trkpt>
      <trkpt lat="46.19301" lon="5.75592">
        <ele>891.2</ele>
        <time>2021-08-19T16:03:32Z</time>
      </trkpt>
      <trkpt lat="46.19304" lon="5.75593">
        <ele>890.7</ele>
        <time>2021-08-19T16:03:34Z</time>
      </trkpt>
      <trkpt lat="46.19305" lon="5.75592">
        <ele>890.7</ele>
        <time>2021-08-19T16:03:35Z</time>
      </trkpt>
      <trkpt lat="46.19304" lon="5.75588">
        <ele>890.3</ele>
        <time>2021-08-19T16:03:36Z</time>
      </trkpt>
      <trkpt lat="46.19304" lon="5.75585">
        <ele>890</ele>
        <time>2021-08-19T16:03:38Z</time>
      </trkpt>
      <trkpt lat="46.19304" lon="5.75581">
        <ele>889.5</ele>
        <time>2021-08-19T16:03:40Z</time>
      </trkpt>
      <trkpt lat="46.19303" lon="5.75576">
        <ele>888.9</ele>
        <time>2021-08-19T16:03:41Z</time>
      </trkpt>
      <trkpt lat="46.19179" lon="5.75496">
        <ele>868.5</ele>
        <time>2021-08-19T16:03:54Z</time>
      </trkpt>
      <trkpt lat="46.19126" lon="5.7547">
        <ele>862.4</ele>
        <time>2021-08-19T16:03:56Z</time>
      </trkpt>
      <trkpt lat="46.1911" lon="5.75464">
        <ele>860.3</ele>
        <time>2021-08-19T16:03:57Z</time>
      </trkpt>
      <trkpt lat="46.19091" lon="5.75453">
        <ele>857.7</ele>
        <time>2021-08-19T16:03:59Z</time>
      </trkpt>
      <trkpt lat="46.19083" lon="5.75446">
        <ele>856.7</ele>
        <time>2021-08-19T16:04:00Z</time>
      </trkpt>
      <trkpt lat="46.19069" lon="5.75426">
        <ele>854.3</ele>
        <time>2021-08-19T16:04:02Z</time>
      </trkpt>
      <trkpt lat="46.19055" lon="5.75403">
        <ele>850.8</ele>
        <time>2021-08-19T16:04:04Z</time>
      </trkpt>
      <trkpt lat="46.1905" lon="5.75392">
        <ele>849.1</ele>
        <time>2021-08-19T16:04:05Z</time>
      </trkpt>
      <trkpt lat="46.19042" lon="5.75375">
        <ele>846.3</ele>
        <time>2021-08-19T16:04:07Z</time>
      </trkpt>
      <trkpt lat="46.1903" lon="5.75355">
        <ele>843.3</ele>
        <time>2021-08-19T16:04:09Z</time>
      </trkpt>
      <trkpt lat="46.19021" lon="5.75344">
        <ele>841.9</ele>
        <time>2021-08-19T16:04:10Z</time>
      </trkpt>
      <trkpt lat="46.19004" lon="5.75319">
        <ele>839.4</ele>
        <time>2021-08-19T16:04:12Z</time>
      </trkpt>
      <trkpt lat="46.18995" lon="5.75308">
        <ele>838.1</ele>
        <time>2021-08-19T16:04:13Z</time>
      </trkpt>
      <trkpt lat="46.18987" lon="5.75296">
        <ele>836.9</ele>
        <time>2021-08-19T16:04:14Z</time>
      </trkpt>
      <trkpt lat="46.18973" lon="5.75279">
        <ele>835</ele>
        <time>2021-08-19T16:04:16Z</time>
      </trkpt>
      <trkpt lat="46.18967" lon="5.75272">
        <ele>834.1</ele>
        <time>2021-08-19T16:04:17Z</time>
      </trkpt>
      <trkpt lat="46.18961" lon="5.75265">
        <ele>833.3</ele>
        <time>2021-08-19T16:04:18Z</time>
      </trkpt>
      <trkpt lat="46.18948" lon="5.75254">
        <ele>832.1</ele>
        <time>2021-08-19T16:04:20Z</time>
      </trkpt>
      <trkpt lat="46.18935" lon="5.75248">
        <ele>831</ele>
        <time>2021-08-19T16:04:22Z</time>
      </trkpt>
      <trkpt lat="46.18929" lon="5.75246">
        <ele>830.5</ele>
        <time>2021-08-19T16:04:23Z</time>
      </trkpt>
      <trkpt lat="46.18922" lon="5.75244">
        <ele>829.9</ele>
        <time>2021-08-19T16:04:24Z</time>
      </trkpt>
      <trkpt lat="46.18915" lon="5.75242">
        <ele>829.2</ele>
        <time>2021-08-19T16:04:25Z</time>
      </trkpt>
      <trkpt lat="46.18907" lon="5.7524">
        <ele>828.3</ele>
        <time>2021-08-19T16:04:26Z</time>
      </trkpt>
      <trkpt lat="46.18899" lon="5.75234">
        <ele>827.2</ele>
        <time>2021-08-19T16:04:27Z</time>
      </trkpt>
      <trkpt lat="46.18885" lon="5.75226">
        <ele>825.2</ele>
        <time>2021-08-19T16:04:29Z</time>
      </trkpt>
      <trkpt lat="46.18879" lon="5.75222">
        <ele>824.1</ele>
        <time>2021-08-19T16:04:30Z</time>
      </trkpt>
      <trkpt lat="46.18868" lon="5.75213">
        <ele>821.8</ele>
        <time>2021-08-19T16:04:32Z</time>
      </trkpt>
      <trkpt lat="46.18857" lon="5.75198">
        <ele>818.7</ele>
        <time>2021-08-19T16:04:34Z</time>
      </trkpt>
      <trkpt lat="46.18852" lon="5.75185">
        <ele>816.6</ele>
        <time>2021-08-19T16:04:35Z</time>
      </trkpt>
      <trkpt lat="46.18847" lon="5.75171">
        <ele>814.4</ele>
        <time>2021-08-19T16:04:36Z</time>
      </trkpt>
      <trkpt lat="46.18835" lon="5.75144">
        <ele>809.9</ele>
        <time>2021-08-19T16:04:38Z</time>
      </trkpt>
      <trkpt lat="46.1883" lon="5.75131">
        <ele>807.9</ele>
        <time>2021-08-19T16:04:39Z</time>
      </trkpt>
      <trkpt lat="46.18819" lon="5.7511">
        <ele>804.3</ele>
        <time>2021-08-19T16:04:41Z</time>
      </trkpt>
      <trkpt lat="46.1881" lon="5.75099">
        <ele>802</ele>
        <time>2021-08-19T16:04:43Z</time>
      </trkpt>
      <trkpt lat="46.18807" lon="5.75096">
        <ele>801.2</ele>
        <time>2021-08-19T16:04:45Z</time>
      </trkpt>
      <trkpt lat="46.18807" lon="5.75094">
        <ele>801</ele>
        <time>2021-08-19T16:04:46Z</time>
      </trkpt>
      <trkpt lat="46.18806" lon="5.75092">
        <ele>800.6</ele>
        <time>2021-08-19T16:04:47Z</time>
      </trkpt>
      <trkpt lat="46.188" lon="5.75076">
        <ele>798.1</ele>
        <time>2021-08-19T16:04:49Z</time>
      </trkpt>
      <trkpt lat="46.18793" lon="5.75063">
        <ele>795.9</ele>
        <time>2021-08-19T16:04:51Z</time>
      </trkpt>
      <trkpt lat="46.18786" lon="5.7505">
        <ele>793.8</ele>
        <time>2021-08-19T16:04:52Z</time>
      </trkpt>
      <trkpt lat="46.18779" lon="5.75037">
        <ele>791.8</ele>
        <time>2021-08-19T16:04:54Z</time>
      </trkpt>
      <trkpt lat="46.18771" lon="5.75024">
        <ele>789.8</ele>
        <time>2021-08-19T16:06:11Z</time>
      </trkpt>
      <trkpt lat="46.18764" lon="5.75011">
        <ele>788</ele>
        <time>2021-08-19T16:06:13Z</time>
      </trkpt>
      <trkpt lat="46.18748" lon="5.74987">
        <ele>783.8</ele>
        <time>2021-08-19T16:06:15Z</time>
      </trkpt>
      <trkpt lat="46.18739" lon="5.74968">
        <ele>780.9</ele>
        <time>2021-08-19T16:06:17Z</time>
      </trkpt>
      <trkpt lat="46.18735" lon="5.74959">
        <ele>779.3</ele>
        <time>2021-08-19T16:06:18Z</time>
      </trkpt>
      <trkpt lat="46.1873" lon="5.7495">
        <ele>778</ele>
        <time>2021-08-19T16:06:19Z</time>
      </trkpt>
      <trkpt lat="46.18724" lon="5.74932">
        <ele>775.7</ele>
        <time>2021-08-19T16:06:21Z</time>
      </trkpt>
      <trkpt lat="46.18719" lon="5.74925">
        <ele>774.7</ele>
        <time>2021-08-19T16:06:22Z</time>
      </trkpt>
      <trkpt lat="46.18712" lon="5.74917">
        <ele>773.4</ele>
        <time>2021-08-19T16:06:24Z</time>
      </trkpt>
      <trkpt lat="46.18704" lon="5.74908">
        <ele>772</ele>
        <time>2021-08-19T16:06:26Z</time>
      </trkpt>
      <trkpt lat="46.18694" lon="5.74895">
        <ele>770</ele>
        <time>2021-08-19T16:06:28Z</time>
      </trkpt>
      <trkpt lat="46.18688" lon="5.7489">
        <ele>769.1</ele>
        <time>2021-08-19T16:06:29Z</time>
      </trkpt>
      <trkpt lat="46.18685" lon="5.74889">
        <ele>768.6</ele>
        <time>2021-08-19T16:06:30Z</time>
      </trkpt>
      <trkpt lat="46.1864" lon="5.74869">
        <ele>763</ele>
        <time>2021-08-19T16:06:32Z</time>
      </trkpt>
      <trkpt lat="46.1862" lon="5.74859">
        <ele>758.8</ele>
        <time>2021-08-19T16:06:34Z</time>
      </trkpt>
      <trkpt lat="46.18588" lon="5.74835">
        <ele>750.6</ele>
        <time>2021-08-19T16:06:36Z</time>
      </trkpt>
      <trkpt lat="46.18563" lon="5.74814">
        <ele>744.6</ele>
        <time>2021-08-19T16:06:38Z</time>
      </trkpt>
      <trkpt lat="46.18552" lon="5.74805">
        <ele>741.9</ele>
        <time>2021-08-19T16:06:39Z</time>
      </trkpt>
      <trkpt lat="46.18541" lon="5.74794">
        <ele>739.1</ele>
        <time>2021-08-19T16:06:40Z</time>
      </trkpt>
      <trkpt lat="46.18532" lon="5.74782">
        <ele>736.3</ele>
        <time>2021-08-19T16:06:41Z</time>
      </trkpt>
      <trkpt lat="46.18518" lon="5.74755">
        <ele>729.3</ele>
        <time>2021-08-19T16:06:43Z</time>
      </trkpt>
      <trkpt lat="46.18513" lon="5.74741">
        <ele>738.2</ele>
        <time>2021-08-19T16:06:44Z</time>
      </trkpt>
      <trkpt lat="46.18506" lon="5.74719">
        <ele>735.4</ele>
        <time>2021-08-19T16:06:46Z</time>
      </trkpt>
      <trkpt lat="46.18501" lon="5.74704">
        <ele>733.6</ele>
        <time>2021-08-19T16:06:48Z</time>
      </trkpt>
      <trkpt lat="46.18501" lon="5.74698">
        <ele>732.9</ele>
        <time>2021-08-19T16:06:50Z</time>
      </trkpt>
      <trkpt lat="46.18499" lon="5.74694">
        <ele>732.4</ele>
        <time>2021-08-19T16:06:52Z</time>
      </trkpt>
      <trkpt lat="46.18497" lon="5.74692">
        <ele>731.9</ele>
        <time>2021-08-19T16:06:53Z</time>
      </trkpt>
      <trkpt lat="46.18493" lon="5.74686">
        <ele>731</ele>
        <time>2021-08-19T16:06:54Z</time>
      </trkpt>
      <trkpt lat="46.18489" lon="5.74681">
        <ele>730.2</ele>
        <time>2021-08-19T16:06:55Z</time>
      </trkpt>
      <trkpt lat="46.18479" lon="5.74669">
        <ele>728.1</ele>
        <time>2021-08-19T16:06:56Z</time>
      </trkpt>
      <trkpt lat="46.18463" lon="5.74647">
        <ele>724.5</ele>
        <time>2021-08-19T16:06:58Z</time>
      </trkpt>
      <trkpt lat="46.18445" lon="5.7463">
        <ele>721.2</ele>
        <time>2021-08-19T16:07:00Z</time>
      </trkpt>
      <trkpt lat="46.18428" lon="5.74617">
        <ele>719.6</ele>
        <time>2021-08-19T16:07:02Z</time>
      </trkpt>
      <trkpt lat="46.18415" lon="5.74609">
        <ele>717.2</ele>
        <time>2021-08-19T16:07:04Z</time>
      </trkpt>
      <trkpt lat="46.18406" lon="5.74607">
        <ele>715.6</ele>
        <time>2021-08-19T16:07:06Z</time>
      </trkpt>
      <trkpt lat="46.18402" lon="5.74607">
        <ele>715</ele>
        <time>2021-08-19T16:07:07Z</time>
      </trkpt>
      <trkpt lat="46.18398" lon="5.74607">
        <ele>714.3</ele>
        <time>2021-08-19T16:07:08Z</time>
      </trkpt>
      <trkpt lat="46.1839" lon="5.7461">
        <ele>713.1</ele>
        <time>2021-08-19T16:07:10Z</time>
      </trkpt>
      <trkpt lat="46.18386" lon="5.74612">
        <ele>712.5</ele>
        <time>2021-08-19T16:07:11Z</time>
      </trkpt>
      <trkpt lat="46.18373" lon="5.74613">
        <ele>711.1</ele>
        <time>2021-08-19T16:07:13Z</time>
      </trkpt>
      <trkpt lat="46.18359" lon="5.74618">
        <ele>709</ele>
        <time>2021-08-19T16:07:15Z</time>
      </trkpt>
      <trkpt lat="46.18348" lon="5.74636">
        <ele>705.4</ele>
        <time>2021-08-19T16:07:17Z</time>
      </trkpt>
      <trkpt lat="46.18337" lon="5.74645">
        <ele>702.4</ele>
        <time>2021-08-19T16:07:19Z</time>
      </trkpt>
      <trkpt lat="46.18332" lon="5.74649">
        <ele>701.1</ele>
        <time>2021-08-19T16:07:20Z</time>
      </trkpt>
      <trkpt lat="46.18327" lon="5.74651">
        <ele>700</ele>
        <time>2021-08-19T16:07:21Z</time>
      </trkpt>
      <trkpt lat="46.1832" lon="5.74654">
        <ele>698.3</ele>
        <time>2021-08-19T16:07:23Z</time>
      </trkpt>
      <trkpt lat="46.1832" lon="5.7465">
        <ele>697.8</ele>
        <time>2021-08-19T16:07:24Z</time>
      </trkpt>
      <trkpt lat="46.18326" lon="5.74639">
        <ele>695.8</ele>
        <time>2021-08-19T16:07:26Z</time>
      </trkpt>
      <trkpt lat="46.18326" lon="5.74623">
        <ele>693.4</ele>
        <time>2021-08-19T16:07:28Z</time>
      </trkpt>
      <trkpt lat="46.18325" lon="5.74619">
        <ele>692.8</ele>
        <time>2021-08-19T16:07:29Z</time>
      </trkpt>
      <trkpt lat="46.18323" lon="5.74603">
        <ele>690.6</ele>
        <time>2021-08-19T16:07:31Z</time>
      </trkpt>
      <trkpt lat="46.18325" lon="5.74599">
        <ele>690</ele>
        <time>2021-08-19T16:07:32Z</time>
      </trkpt>
      <trkpt lat="46.18322" lon="5.74598">
        <ele>689.4</ele>
        <time>2021-08-19T16:07:33Z</time>
      </trkpt>
      <trkpt lat="46.18319" lon="5.74591">
        <ele>688.5</ele>
        <time>2021-08-19T16:07:34Z</time>
      </trkpt>
      <trkpt lat="46.18318" lon="5.74586">
        <ele>687.8</ele>
        <time>2021-08-19T16:07:35Z</time>
      </trkpt>
      <trkpt lat="46.18318" lon="5.74579">
        <ele>687</ele>
        <time>2021-08-19T16:07:36Z</time>
      </trkpt>
      <trkpt lat="46.18317" lon="5.74572">
        <ele>686.1</ele>
        <time>2021-08-19T16:07:38Z</time>
      </trkpt>
      <trkpt lat="46.18317" lon="5.74566">
        <ele>685.5</ele>
        <time>2021-08-19T16:07:39Z</time>
      </trkpt>
      <trkpt lat="46.18317" lon="5.74556">
        <ele>684.4</ele>
        <time>2021-08-19T16:07:40Z</time>
      </trkpt>
      <trkpt lat="46.18318" lon="5.7455">
        <ele>683.7</ele>
        <time>2021-08-19T16:07:42Z</time>
      </trkpt>
      <trkpt lat="46.1832" lon="5.7454">
        <ele>682.5</ele>
        <time>2021-08-19T16:07:44Z</time>
      </trkpt>
      <trkpt lat="46.1832" lon="5.74534">
        <ele>681.9</ele>
        <time>2021-08-19T16:07:45Z</time>
      </trkpt>
      <trkpt lat="46.1832" lon="5.74529">
        <ele>681.4</ele>
        <time>2021-08-19T16:07:46Z</time>
      </trkpt>
      <trkpt lat="46.18319" lon="5.74524">
        <ele>680.9</ele>
        <time>2021-08-19T16:07:47Z</time>
      </trkpt>
      <trkpt lat="46.18319" lon="5.74516">
        <ele>680.2</ele>
        <time>2021-08-19T16:07:49Z</time>
      </trkpt>
      <trkpt lat="46.18318" lon="5.7451">
        <ele>679.6</ele>
        <time>2021-08-19T16:07:50Z</time>
      </trkpt>
      <trkpt lat="46.18317" lon="5.74503">
        <ele>678.9</ele>
        <time>2021-08-19T16:07:51Z</time>
      </trkpt>
      <trkpt lat="46.18318" lon="5.74496">
        <ele>678.3</ele>
        <time>2021-08-19T16:07:52Z</time>
      </trkpt>
      <trkpt lat="46.1832" lon="5.74491">
        <ele>677.6</ele>
        <time>2021-08-19T16:07:53Z</time>
      </trkpt>
      <trkpt lat="46.18324" lon="5.74483">
        <ele>676.7</ele>
        <time>2021-08-19T16:07:55Z</time>
      </trkpt>
      <trkpt lat="46.18328" lon="5.74476">
        <ele>675.9</ele>
        <time>2021-08-19T16:07:56Z</time>
      </trkpt>
      <trkpt lat="46.18334" lon="5.74463">
        <ele>674.3</ele>
        <time>2021-08-19T16:07:58Z</time>
      </trkpt>
      <trkpt lat="46.18338" lon="5.74456">
        <ele>673.4</ele>
        <time>2021-08-19T16:07:59Z</time>
      </trkpt>
      <trkpt lat="46.18343" lon="5.74448">
        <ele>672.3</ele>
        <time>2021-08-19T16:08:00Z</time>
      </trkpt>
      <trkpt lat="46.1836" lon="5.74432">
        <ele>668.8</ele>
        <time>2021-08-19T16:08:02Z</time>
      </trkpt>
      <trkpt lat="46.18368" lon="5.74424">
        <ele>667.1</ele>
        <time>2021-08-19T16:08:03Z</time>
      </trkpt>
      <trkpt lat="46.18381" lon="5.74418">
        <ele>664.7</ele>
        <time>2021-08-19T16:08:05Z</time>
      </trkpt>
      <trkpt lat="46.18391" lon="5.74413">
        <ele>662.6</ele>
        <time>2021-08-19T16:08:06Z</time>
      </trkpt>
      <trkpt lat="46.18398" lon="5.7441">
        <ele>661.2</ele>
        <time>2021-08-19T16:08:07Z</time>
      </trkpt>
      <trkpt lat="46.18427" lon="5.74403">
        <ele>657</ele>
        <time>2021-08-19T16:08:09Z</time>
      </trkpt>
      <trkpt lat="46.18437" lon="5.74401">
        <ele>655.8</ele>
        <time>2021-08-19T16:08:11Z</time>
      </trkpt>
      <trkpt lat="46.18443" lon="5.744">
        <ele>655.1</ele>
        <time>2021-08-19T16:08:12Z</time>
      </trkpt>
      <trkpt lat="46.18447" lon="5.74402">
        <ele>654.7</ele>
        <time>2021-08-19T16:08:13Z</time>
      </trkpt>
      <trkpt lat="46.18448" lon="5.74402">
        <ele>654.5</ele>
        <time>2021-08-19T16:08:14Z</time>
      </trkpt>
      <trkpt lat="46.18452" lon="5.74404">
        <ele>654.1</ele>
        <time>2021-08-19T16:08:15Z</time>
      </trkpt>
      <trkpt lat="46.18457" lon="5.74405">
        <ele>653.5</ele>
        <time>2021-08-19T16:08:17Z</time>
      </trkpt>
      <trkpt lat="46.1846" lon="5.74405">
        <ele>653.1</ele>
        <time>2021-08-19T16:08:18Z</time>
      </trkpt>
      <trkpt lat="46.18474" lon="5.74405">
        <ele>650.9</ele>
        <time>2021-08-19T16:08:19Z</time>
      </trkpt>
      <trkpt lat="46.18485" lon="5.74405">
        <ele>648.9</ele>
        <time>2021-08-19T16:08:20Z</time>
      </trkpt>
      <trkpt lat="46.18489" lon="5.74406">
        <ele>648.1</ele>
        <time>2021-08-19T16:08:22Z</time>
      </trkpt>
      <trkpt lat="46.18539" lon="5.74265">
        <ele>619.5</ele>
        <time>2021-08-19T16:08:56Z</time>
      </trkpt>
      <trkpt lat="46.1853" lon="5.74252">
        <ele>616.9</ele>
        <time>2021-08-19T16:08:58Z</time>
      </trkpt>
      <trkpt lat="46.18526" lon="5.74251">
        <ele>616.1</ele>
        <time>2021-08-19T16:08:59Z</time>
      </trkpt>
      <trkpt lat="46.18525" lon="5.7425">
        <ele>615.8</ele>
        <time>2021-08-19T16:09:00Z</time>
      </trkpt>
      <trkpt lat="46.18523" lon="5.74248">
        <ele>615.2</ele>
        <time>2021-08-19T16:09:02Z</time>
      </trkpt>
      <trkpt lat="46.18521" lon="5.74247">
        <ele>614.9</ele>
        <time>2021-08-19T16:09:03Z</time>
      </trkpt>
      <trkpt lat="46.18518" lon="5.74245">
        <ele>614.2</ele>
        <time>2021-08-19T16:09:05Z</time>
      </trkpt>
      <trkpt lat="46.18515" lon="5.74244">
        <ele>613.6</ele>
        <time>2021-08-19T16:09:06Z</time>
      </trkpt>
      <trkpt lat="46.18513" lon="5.74244">
        <ele>613.2</ele>
        <time>2021-08-19T16:09:08Z</time>
      </trkpt>
      <trkpt lat="46.18511" lon="5.74244">
        <ele>612.8</ele>
        <time>2021-08-19T16:09:09Z</time>
      </trkpt>
      <trkpt lat="46.18509" lon="5.74241">
        <ele>612.2</ele>
        <time>2021-08-19T16:09:11Z</time>
      </trkpt>
      <trkpt lat="46.18492" lon="5.74251">
        <ele>608.1</ele>
        <time>2021-08-19T16:09:12Z</time>
      </trkpt>
      <trkpt lat="46.18487" lon="5.74254">
        <ele>606.8</ele>
        <time>2021-08-19T16:09:13Z</time>
      </trkpt>
      <trkpt lat="46.18483" lon="5.74257">
        <ele>605.9</ele>
        <time>2021-08-19T16:09:14Z</time>
      </trkpt>
      <trkpt lat="46.18479" lon="5.7426">
        <ele>604.7</ele>
        <time>2021-08-19T16:09:16Z</time>
      </trkpt>
      <trkpt lat="46.18477" lon="5.74262">
        <ele>604.1</ele>
        <time>2021-08-19T16:09:17Z</time>
      </trkpt>
      <trkpt lat="46.18474" lon="5.74263">
        <ele>603.6</ele>
        <time>2021-08-19T16:09:18Z</time>
      </trkpt>
      <trkpt lat="46.18472" lon="5.74264">
        <ele>603</ele>
        <time>2021-08-19T16:09:19Z</time>
      </trkpt>
      <trkpt lat="46.18462" lon="5.74267">
        <ele>600.8</ele>
        <time>2021-08-19T16:09:20Z</time>
      </trkpt>
      <trkpt lat="46.18454" lon="5.74266">
        <ele>598.9</ele>
        <time>2021-08-19T16:09:21Z</time>
      </trkpt>
      <trkpt lat="46.18446" lon="5.74264">
        <ele>597.3</ele>
        <time>2021-08-19T16:09:23Z</time>
      </trkpt>
      <trkpt lat="46.18442" lon="5.74263">
        <ele>596.5</ele>
        <time>2021-08-19T16:09:24Z</time>
      </trkpt>
      <trkpt lat="46.18438" lon="5.74262">
        <ele>595.8</ele>
        <time>2021-08-19T16:09:25Z</time>
      </trkpt>
      <trkpt lat="46.18436" lon="5.74261">
        <ele>595.4</ele>
        <time>2021-08-19T16:09:26Z</time>
      </trkpt>
      <trkpt lat="46.1843" lon="5.74259">
        <ele>594.3</ele>
        <time>2021-08-19T16:09:28Z</time>
      </trkpt>
      <trkpt lat="46.18424" lon="5.74256">
        <ele>593.3</ele>
        <time>2021-08-19T16:09:30Z</time>
      </trkpt>
      <trkpt lat="46.1841" lon="5.7425">
        <ele>591</ele>
        <time>2021-08-19T16:09:31Z</time>
      </trkpt>
      <trkpt lat="46.18402" lon="5.74246">
        <ele>589.6</ele>
        <time>2021-08-19T16:09:32Z</time>
      </trkpt>
      <trkpt lat="46.18388" lon="5.74236">
        <ele>586.6</ele>
        <time>2021-08-19T16:09:34Z</time>
      </trkpt>
      <trkpt lat="46.18381" lon="5.7423">
        <ele>585</ele>
        <time>2021-08-19T16:09:35Z</time>
      </trkpt>
      <trkpt lat="46.18374" lon="5.74223">
        <ele>583.2</ele>
        <time>2021-08-19T16:09:36Z</time>
      </trkpt>
      <trkpt lat="46.18361" lon="5.74213">
        <ele>579.9</ele>
        <time>2021-08-19T16:09:38Z</time>
      </trkpt>
      <trkpt lat="46.18354" lon="5.74208">
        <ele>578.3</ele>
        <time>2021-08-19T16:09:39Z</time>
      </trkpt>
      <trkpt lat="46.18344" lon="5.742">
        <ele>575.9</ele>
        <time>2021-08-19T16:09:41Z</time>
      </trkpt>
      <trkpt lat="46.18342" lon="5.74202">
        <ele>575.3</ele>
        <time>2021-08-19T16:09:42Z</time>
      </trkpt>
      <trkpt lat="46.18327" lon="5.74188">
        <ele>572.2</ele>
        <time>2021-08-19T16:09:44Z</time>
      </trkpt>
      <trkpt lat="46.1832" lon="5.74184">
        <ele>571.3</ele>
        <time>2021-08-19T16:09:45Z</time>
      </trkpt>
      <trkpt lat="46.18309" lon="5.74181">
        <ele>570.4</ele>
        <time>2021-08-19T16:09:47Z</time>
      </trkpt>
      <trkpt lat="46.18295" lon="5.74176">
        <ele>568.7</ele>
        <time>2021-08-19T16:09:49Z</time>
      </trkpt>
      <trkpt lat="46.18281" lon="5.74173">
        <ele>567.3</ele>
        <time>2021-08-19T16:09:51Z</time>
      </trkpt>
      <trkpt lat="46.18266" lon="5.7417">
        <ele>565.9</ele>
        <time>2021-08-19T16:09:53Z</time>
      </trkpt>
      <trkpt lat="46.18259" lon="5.74169">
        <ele>565.1</ele>
        <time>2021-08-19T16:09:54Z</time>
      </trkpt>
      <trkpt lat="46.18246" lon="5.74165">
        <ele>563.6</ele>
        <time>2021-08-19T16:09:56Z</time>
      </trkpt>
      <trkpt lat="46.18234" lon="5.74162">
        <ele>561.9</ele>
        <time>2021-08-19T16:09:58Z</time>
      </trkpt>
      <trkpt lat="46.18223" lon="5.74156">
        <ele>560.2</ele>
        <time>2021-08-19T16:10:00Z</time>
      </trkpt>
      <trkpt lat="46.18217" lon="5.74152">
        <ele>559.3</ele>
        <time>2021-08-19T16:10:01Z</time>
      </trkpt>
      <trkpt lat="46.18212" lon="5.74145">
        <ele>558.4</ele>
        <time>2021-08-19T16:10:02Z</time>
      </trkpt>
      <trkpt lat="46.18197" lon="5.7413">
        <ele>556.6</ele>
        <time>2021-08-19T16:10:04Z</time>
      </trkpt>
      <trkpt lat="46.18182" lon="5.74117">
        <ele>555.3</ele>
        <time>2021-08-19T16:10:06Z</time>
      </trkpt>
      <trkpt lat="46.18169" lon="5.74111">
        <ele>554.6</ele>
        <time>2021-08-19T16:10:08Z</time>
      </trkpt>
      <trkpt lat="46.18162" lon="5.74103">
        <ele>552.5</ele>
        <time>2021-08-19T16:10:10Z</time>
      </trkpt>
      <trkpt lat="46.18159" lon="5.74098">
        <ele>551.4</ele>
        <time>2021-08-19T16:10:11Z</time>
      </trkpt>
      <trkpt lat="46.18156" lon="5.74093">
        <ele>550.3</ele>
        <time>2021-08-19T16:10:12Z</time>
      </trkpt>
      <trkpt lat="46.18154" lon="5.74088">
        <ele>549.4</ele>
        <time>2021-08-19T16:10:13Z</time>
      </trkpt>
      <trkpt lat="46.18151" lon="5.74071">
        <ele>546.3</ele>
        <time>2021-08-19T16:10:15Z</time>
      </trkpt>
      <trkpt lat="46.18151" lon="5.74056">
        <ele>543.7</ele>
        <time>2021-08-19T16:10:17Z</time>
      </trkpt>
      <trkpt lat="46.18151" lon="5.74051">
        <ele>542.7</ele>
        <time>2021-08-19T16:10:18Z</time>
      </trkpt>
      <trkpt lat="46.18153" lon="5.74037">
        <ele>540.4</ele>
        <time>2021-08-19T16:10:20Z</time>
      </trkpt>
      <trkpt lat="46.18154" lon="5.74028">
        <ele>538.7</ele>
        <time>2021-08-19T16:10:22Z</time>
      </trkpt>
      <trkpt lat="46.18155" lon="5.7402">
        <ele>537.2</ele>
        <time>2021-08-19T16:10:23Z</time>
      </trkpt>
      <trkpt lat="46.18157" lon="5.74012">
        <ele>535.8</ele>
        <time>2021-08-19T16:10:24Z</time>
      </trkpt>
      <trkpt lat="46.18163" lon="5.73997">
        <ele>532.9</ele>
        <time>2021-08-19T16:10:26Z</time>
      </trkpt>
      <trkpt lat="46.18164" lon="5.73989">
        <ele>531.5</ele>
        <time>2021-08-19T16:10:28Z</time>
      </trkpt>
      <trkpt lat="46.18165" lon="5.73982">
        <ele>530.2</ele>
        <time>2021-08-19T16:10:29Z</time>
      </trkpt>
      <trkpt lat="46.18166" lon="5.73977">
        <ele>529.2</ele>
        <time>2021-08-19T16:10:30Z</time>
      </trkpt>
      <trkpt lat="46.18167" lon="5.73976">
        <ele>529</ele>
        <time>2021-08-19T16:10:32Z</time>
      </trkpt>
      <trkpt lat="46.18169" lon="5.73973">
        <ele>528.2</ele>
        <time>2021-08-19T16:10:33Z</time>
      </trkpt>
      <trkpt lat="46.18169" lon="5.73972">
        <ele>527.9</ele>
        <time>2021-08-19T16:10:34Z</time>
      </trkpt>
      <trkpt lat="46.1817" lon="5.7397">
        <ele>527.5</ele>
        <time>2021-08-19T16:10:35Z</time>
      </trkpt>
      <trkpt lat="46.1817" lon="5.73968">
        <ele>527.1</ele>
        <time>2021-08-19T16:10:37Z</time>
      </trkpt>
      <trkpt lat="46.1817" lon="5.73964">
        <ele>526.5</ele>
        <time>2021-08-19T16:10:39Z</time>
      </trkpt>
      <trkpt lat="46.18169" lon="5.73961">
        <ele>525.8</ele>
        <time>2021-08-19T16:10:40Z</time>
      </trkpt>
      <trkpt lat="46.18281" lon="5.73933">
        <ele>510.4</ele>
        <time>2021-08-19T16:11:02Z</time>
      </trkpt>
      <trkpt lat="46.18284" lon="5.73934">
        <ele>510.2</ele>
        <time>2021-08-19T16:11:03Z</time>
      </trkpt>
      <trkpt lat="46.18295" lon="5.73939">
        <ele>509.8</ele>
        <time>2021-08-19T16:11:04Z</time>
      </trkpt>
      <trkpt lat="46.18301" lon="5.73942">
        <ele>509.6</ele>
        <time>2021-08-19T16:11:05Z</time>
      </trkpt>
      <trkpt lat="46.18314" lon="5.73945">
        <ele>509.4</ele>
        <time>2021-08-19T16:11:07Z</time>
      </trkpt>
      <trkpt lat="46.18324" lon="5.73947">
        <ele>509.3</ele>
        <time>2021-08-19T16:11:09Z</time>
      </trkpt>
      <trkpt lat="46.18331" lon="5.73948">
        <ele>509.2</ele>
        <time>2021-08-19T16:11:10Z</time>
      </trkpt>
      <trkpt lat="46.18335" lon="5.73948">
        <ele>509.1</ele>
        <time>2021-08-19T16:11:12Z</time>
      </trkpt>
      <trkpt lat="46.18339" lon="5.7395">
        <ele>509</ele>
        <time>2021-08-19T16:11:14Z</time>
      </trkpt>
      <trkpt lat="46.1834" lon="5.73951">
        <ele>508.9</ele>
        <time>2021-08-19T16:11:15Z</time>
      </trkpt>
      <trkpt lat="46.1834" lon="5.73951">
        <ele>508.9</ele>
        <time>2021-08-19T16:11:16Z</time>
      </trkpt>
      <trkpt lat="46.18341" lon="5.73952">
        <ele>508.8</ele>
        <time>2021-08-19T16:11:18Z</time>
      </trkpt>
      <trkpt lat="46.18343" lon="5.73953">
        <ele>508.7</ele>
        <time>2021-08-19T16:11:20Z</time>
      </trkpt>
      <trkpt lat="46.18343" lon="5.73953">
        <ele>508.7</ele>
        <time>2021-08-19T16:11:21Z</time>
      </trkpt>
      <trkpt lat="46.18343" lon="5.73954">
        <ele>508.7</ele>
        <time>2021-08-19T16:11:22Z</time>
      </trkpt>
      <trkpt lat="46.18343" lon="5.73955">
        <ele>508.7</ele>
        <time>2021-08-19T16:11:23Z</time>
      </trkpt>
      <trkpt lat="46.18342" lon="5.73955">
        <ele>508</ele>
        <time>2021-08-19T16:11:24Z</time>
      </trkpt>
      <trkpt lat="46.18342" lon="5.73957">
        <ele>508</ele>
        <time>2021-08-19T16:11:25Z</time>
      </trkpt>
      <trkpt lat="46.18342" lon="5.73957">
        <ele>508</ele>
        <time>2021-08-19T16:11:27Z</time>
      </trkpt>
      <trkpt lat="46.18343" lon="5.73958">
        <ele>508</ele>
        <time>2021-08-19T16:11:29Z</time>
      </trkpt>
      <trkpt lat="46.18343" lon="5.73959">
        <ele>507.9</ele>
        <time>2021-08-19T16:11:30Z</time>
      </trkpt>
      <trkpt lat="46.18344" lon="5.73961">
        <ele>507.9</ele>
        <time>2021-08-19T16:11:32Z</time>
      </trkpt>
      <trkpt lat="46.18345" lon="5.73962">
        <ele>507.8</ele>
        <time>2021-08-19T16:11:33Z</time>
      </trkpt>
      <trkpt lat="46.18347" lon="5.73965">
        <ele>507.7</ele>
        <time>2021-08-19T16:11:35Z</time>
      </trkpt>
      <trkpt lat="46.18341" lon="5.73959">
        <ele>507.4</ele>
        <time>2021-08-19T16:11:37Z</time>
      </trkpt>
      <trkpt lat="46.18335" lon="5.73955">
        <ele>507.1</ele>
        <time>2021-08-19T16:11:39Z</time>
      </trkpt>
      <trkpt lat="46.18329" lon="5.7395">
        <ele>506.9</ele>
        <time>2021-08-19T16:11:40Z</time>
      </trkpt>
      <trkpt lat="46.18324" lon="5.73945">
        <ele>506.6</ele>
        <time>2021-08-19T16:11:42Z</time>
      </trkpt>
      <trkpt lat="46.18315" lon="5.7394">
        <ele>506.3</ele>
        <time>2021-08-19T16:11:44Z</time>
      </trkpt>
      <trkpt lat="46.1831" lon="5.73938">
        <ele>506</ele>
        <time>2021-08-19T16:11:45Z</time>
      </trkpt>
      <trkpt lat="46.18298" lon="5.73932">
        <ele>505.6</ele>
        <time>2021-08-19T16:11:47Z</time>
      </trkpt>
      <trkpt lat="46.18291" lon="5.73927">
        <ele>505.4</ele>
        <time>2021-08-19T16:11:48Z</time>
      </trkpt>
      <trkpt lat="46.18276" lon="5.73906">
        <ele>504.8</ele>
        <time>2021-08-19T16:11:50Z</time>
      </trkpt>
      <trkpt lat="46.18272" lon="5.73897">
        <ele>502.7</ele>
        <time>2021-08-19T16:11:51Z</time>
      </trkpt>
      <trkpt lat="46.18269" lon="5.73869">
        <ele>498.8</ele>
        <time>2021-08-19T16:11:53Z</time>
      </trkpt>
      <trkpt lat="46.18265" lon="5.73843">
        <ele>502</ele>
        <time>2021-08-19T16:11:55Z</time>
      </trkpt>
      <trkpt lat="46.18262" lon="5.7383">
        <ele>503.1</ele>
        <time>2021-08-19T16:11:56Z</time>
      </trkpt>
      <trkpt lat="46.1826" lon="5.73819">
        <ele>504.3</ele>
        <time>2021-08-19T16:11:57Z</time>
      </trkpt>
      <trkpt lat="46.18254" lon="5.73796">
        <ele>508</ele>
        <time>2021-08-19T16:11:59Z</time>
      </trkpt>
      <trkpt lat="46.18252" lon="5.73785">
        <ele>510.6</ele>
        <time>2021-08-19T16:12:00Z</time>
      </trkpt>
      <trkpt lat="46.18249" lon="5.7378">
        <ele>511</ele>
        <time>2021-08-19T16:12:02Z</time>
      </trkpt>
      <trkpt lat="46.18248" lon="5.73777">
        <ele>511.5</ele>
        <time>2021-08-19T16:12:04Z</time>
      </trkpt>
      <trkpt lat="46.18247" lon="5.73775">
        <ele>510.7</ele>
        <time>2021-08-19T16:12:05Z</time>
      </trkpt>
      <trkpt lat="46.18246" lon="5.73774">
        <ele>511.2</ele>
        <time>2021-08-19T16:12:06Z</time>
      </trkpt>
      <trkpt lat="46.18244" lon="5.73772">
        <ele>510.3</ele>
        <time>2021-08-19T16:12:07Z</time>
      </trkpt>
      <trkpt lat="46.18243" lon="5.7377">
        <ele>509.5</ele>
        <time>2021-08-19T16:12:09Z</time>
      </trkpt>
      <trkpt lat="46.18243" lon="5.73769">
        <ele>510</ele>
        <time>2021-08-19T16:12:10Z</time>
      </trkpt>
      <trkpt lat="46.18231" lon="5.73721">
        <ele>524.3</ele>
        <time>2021-08-19T16:12:46Z</time>
      </trkpt>
      <trkpt lat="46.1823" lon="5.73721">
        <ele>524.3</ele>
        <time>2021-08-19T16:12:47Z</time>
      </trkpt>
      <trkpt lat="46.18229" lon="5.73721">
        <ele>524.2</ele>
        <time>2021-08-19T16:12:48Z</time>
      </trkpt>
      <trkpt lat="46.18227" lon="5.73721">
        <ele>524.1</ele>
        <time>2021-08-19T16:12:49Z</time>
      </trkpt>
      <trkpt lat="46.18226" lon="5.73721">
        <ele>524.1</ele>
        <time>2021-08-19T16:12:51Z</time>
      </trkpt>
      <trkpt lat="46.18225" lon="5.7372">
        <ele>524</ele>
        <time>2021-08-19T16:12:52Z</time>
      </trkpt>
      <trkpt lat="46.18224" lon="5.7372">
        <ele>523.9</ele>
        <time>2021-08-19T16:12:53Z</time>
      </trkpt>
      <trkpt lat="46.18223" lon="5.7372">
        <ele>523.9</ele>
        <time>2021-08-19T16:12:55Z</time>
      </trkpt>
      <trkpt lat="46.18222" lon="5.7372">
        <ele>523.8</ele>
        <time>2021-08-19T16:12:56Z</time>
      </trkpt>
      <trkpt lat="46.18208" lon="5.73725">
        <ele>523</ele>
        <time>2021-08-19T16:12:58Z</time>
      </trkpt>
      <trkpt lat="46.18174" lon="5.73738">
        <ele>521.4</ele>
        <time>2021-08-19T16:12:59Z</time>
      </trkpt>
      <trkpt lat="46.18159" lon="5.73744">
        <ele>520.7</ele>
        <time>2021-08-19T16:13:00Z</time>
      </trkpt>
      <trkpt lat="46.18115" lon="5.73763">
        <ele>518.9</ele>
        <time>2021-08-19T16:13:01Z</time>
      </trkpt>
      <trkpt lat="46.18102" lon="5.73769">
        <ele>518.4</ele>
        <time>2021-08-19T16:13:02Z</time>
      </trkpt>
      <trkpt lat="46.18088" lon="5.73779">
        <ele>517.8</ele>
        <time>2021-08-19T16:13:03Z</time>
      </trkpt>
      <trkpt lat="46.18074" lon="5.73788">
        <ele>517.3</ele>
        <time>2021-08-19T16:13:04Z</time>
      </trkpt>
      <trkpt lat="46.18067" lon="5.73793">
        <ele>517</ele>
        <time>2021-08-19T16:13:06Z</time>
      </trkpt>
      <trkpt lat="46.18064" lon="5.73794">
        <ele>516.8</ele>
        <time>2021-08-19T16:13:07Z</time>
      </trkpt>
      <trkpt lat="46.18061" lon="5.73796">
        <ele>516.7</ele>
        <time>2021-08-19T16:13:08Z</time>
      </trkpt>
      <trkpt lat="46.1806" lon="5.73796">
        <ele>516.7</ele>
        <time>2021-08-19T16:13:09Z</time>
      </trkpt>
      <trkpt lat="46.18049" lon="5.73801">
        <ele>516.2</ele>
        <time>2021-08-19T16:13:11Z</time>
      </trkpt>
      <trkpt lat="46.18041" lon="5.73805">
        <ele>515.9</ele>
        <time>2021-08-19T16:13:12Z</time>
      </trkpt>
      <trkpt lat="46.18036" lon="5.73807">
        <ele>515.7</ele>
        <time>2021-08-19T16:13:13Z</time>
      </trkpt>
      <trkpt lat="46.18033" lon="5.73808">
        <ele>515.6</ele>
        <time>2021-08-19T16:13:15Z</time>
      </trkpt>
      <trkpt lat="46.18032" lon="5.73808">
        <ele>515.6</ele>
        <time>2021-08-19T16:13:16Z</time>
      </trkpt>
      <trkpt lat="46.18028" lon="5.73806">
        <ele>515.4</ele>
        <time>2021-08-19T16:13:18Z</time>
      </trkpt>
      <trkpt lat="46.18023" lon="5.73806">
        <ele>515.2</ele>
        <time>2021-08-19T16:13:19Z</time>
      </trkpt>
      <trkpt lat="46.18019" lon="5.73807">
        <ele>515.1</ele>
        <time>2021-08-19T16:13:20Z</time>
      </trkpt>
      <trkpt lat="46.18008" lon="5.73808">
        <ele>514.8</ele>
        <time>2021-08-19T16:13:22Z</time>
      </trkpt>
      <trkpt lat="46.17998" lon="5.73808">
        <ele>514.5</ele>
        <time>2021-08-19T16:13:25Z</time>
      </trkpt>
      <trkpt lat="46.17997" lon="5.73808">
        <ele>514.5</ele>
        <time>2021-08-19T16:13:26Z</time>
      </trkpt>
      <trkpt lat="46.17995" lon="5.73808">
        <ele>514.4</ele>
        <time>2021-08-19T16:13:27Z</time>
      </trkpt>
      <trkpt lat="46.17993" lon="5.73808">
        <ele>514.4</ele>
        <time>2021-08-19T16:13:28Z</time>
      </trkpt>
      <trkpt lat="46.17992" lon="5.73808">
        <ele>514.4</ele>
        <time>2021-08-19T16:13:29Z</time>
      </trkpt>
      <trkpt lat="46.17992" lon="5.73808">
        <ele>514.3</ele>
        <time>2021-08-19T16:13:30Z</time>
      </trkpt>
      <trkpt lat="46.17989" lon="5.73809">
        <ele>514.3</ele>
        <time>2021-08-19T16:13:31Z</time>
      </trkpt>
      <trkpt lat="46.17987" lon="5.73809">
        <ele>514.2</ele>
        <time>2021-08-19T16:13:32Z</time>
      </trkpt>
      <trkpt lat="46.17984" lon="5.73809">
        <ele>514.2</ele>
        <time>2021-08-19T16:13:34Z</time>
      </trkpt>
      <trkpt lat="46.17982" lon="5.73809">
        <ele>514.2</ele>
        <time>2021-08-19T16:13:36Z</time>
      </trkpt>
      <trkpt lat="46.1798" lon="5.7381">
        <ele>514.1</ele>
        <time>2021-08-19T16:13:37Z</time>
      </trkpt>
      <trkpt lat="46.17973" lon="5.73811">
        <ele>514</ele>
        <time>2021-08-19T16:13:38Z</time>
      </trkpt>
      <trkpt lat="46.17967" lon="5.73811">
        <ele>513.9</ele>
        <time>2021-08-19T16:13:39Z</time>
      </trkpt>
      <trkpt lat="46.17962" lon="5.73811">
        <ele>513.9</ele>
        <time>2021-08-19T16:13:40Z</time>
      </trkpt>
      <trkpt lat="46.17957" lon="5.73813">
        <ele>513.8</ele>
        <time>2021-08-19T16:13:41Z</time>
      </trkpt>
      <trkpt lat="46.17953" lon="5.73813">
        <ele>513.8</ele>
        <time>2021-08-19T16:13:43Z</time>
      </trkpt>
      <trkpt lat="46.17949" lon="5.73813">
        <ele>513.7</ele>
        <time>2021-08-19T16:13:44Z</time>
      </trkpt>
      <trkpt lat="46.17944" lon="5.73814">
        <ele>513.7</ele>
        <time>2021-08-19T16:13:45Z</time>
      </trkpt>
      <trkpt lat="46.17941" lon="5.73816">
        <ele>513.7</ele>
        <time>2021-08-19T16:13:46Z</time>
      </trkpt>
      <trkpt lat="46.17936" lon="5.73819">
        <ele>513.7</ele>
        <time>2021-08-19T16:13:48Z</time>
      </trkpt>
      <trkpt lat="46.17933" lon="5.73822">
        <ele>513.7</ele>
        <time>2021-08-19T16:13:49Z</time>
      </trkpt>
      <trkpt lat="46.1793" lon="5.73823">
        <ele>513.7</ele>
        <time>2021-08-19T16:13:50Z</time>
      </trkpt>
      <trkpt lat="46.17926" lon="5.73824">
        <ele>513.7</ele>
        <time>2021-08-19T16:13:51Z</time>
      </trkpt>
      <trkpt lat="46.17923" lon="5.73825">
        <ele>513.7</ele>
        <time>2021-08-19T16:13:52Z</time>
      </trkpt>
      <trkpt lat="46.17918" lon="5.73827">
        <ele>513.7</ele>
        <time>2021-08-19T16:13:53Z</time>
      </trkpt>
      <trkpt lat="46.17911" lon="5.7383">
        <ele>513.7</ele>
        <time>2021-08-19T16:13:55Z</time>
      </trkpt>
      <trkpt lat="46.17907" lon="5.73831">
        <ele>513.7</ele>
        <time>2021-08-19T16:13:57Z</time>
      </trkpt>
      <trkpt lat="46.17904" lon="5.73832">
        <ele>513.7</ele>
        <time>2021-08-19T16:13:58Z</time>
      </trkpt>
      <trkpt lat="46.17899" lon="5.73833">
        <ele>513.7</ele>
        <time>2021-08-19T16:13:59Z</time>
      </trkpt>
      <trkpt lat="46.17895" lon="5.73834">
        <ele>513.6</ele>
        <time>2021-08-19T16:14:01Z</time>
      </trkpt>
      <trkpt lat="46.17892" lon="5.73834">
        <ele>513.6</ele>
        <time>2021-08-19T16:14:02Z</time>
      </trkpt>
      <trkpt lat="46.17885" lon="5.73837">
        <ele>513.5</ele>
        <time>2021-08-19T16:14:03Z</time>
      </trkpt>
      <trkpt lat="46.1788" lon="5.7384">
        <ele>513.5</ele>
        <time>2021-08-19T16:14:05Z</time>
      </trkpt>
      <trkpt lat="46.17875" lon="5.7384">
        <ele>513.5</ele>
        <time>2021-08-19T16:14:07Z</time>
      </trkpt>
      <trkpt lat="46.1787" lon="5.7384">
        <ele>513.4</ele>
        <time>2021-08-19T16:14:08Z</time>
      </trkpt>
      <trkpt lat="46.17865" lon="5.73841">
        <ele>513.4</ele>
        <time>2021-08-19T16:14:09Z</time>
      </trkpt>
      <trkpt lat="46.1786" lon="5.73842">
        <ele>513.4</ele>
        <time>2021-08-19T16:14:10Z</time>
      </trkpt>
      <trkpt lat="46.17856" lon="5.73843">
        <ele>513.3</ele>
        <time>2021-08-19T16:14:12Z</time>
      </trkpt>
      <trkpt lat="46.17853" lon="5.73845">
        <ele>513.3</ele>
        <time>2021-08-19T16:14:13Z</time>
      </trkpt>
      <trkpt lat="46.17853" lon="5.73845">
        <ele>513.3</ele>
        <time>2021-08-19T16:14:14Z</time>
      </trkpt>
      <trkpt lat="46.1785" lon="5.73848">
        <ele>513.3</ele>
        <time>2021-08-19T16:14:16Z</time>
      </trkpt>
      <trkpt lat="46.17847" lon="5.73853">
        <ele>513.3</ele>
        <time>2021-08-19T16:14:17Z</time>
      </trkpt>
      <trkpt lat="46.17842" lon="5.7386">
        <ele>513.3</ele>
        <time>2021-08-19T16:14:19Z</time>
      </trkpt>
      <trkpt lat="46.17839" lon="5.73864">
        <ele>513.3</ele>
        <time>2021-08-19T16:14:20Z</time>
      </trkpt>
      <trkpt lat="46.17835" lon="5.73865">
        <ele>513.3</ele>
        <time>2021-08-19T16:14:22Z</time>
      </trkpt>
      <trkpt lat="46.17828" lon="5.73866">
        <ele>513.3</ele>
        <time>2021-08-19T16:14:24Z</time>
      </trkpt>
      <trkpt lat="46.17824" lon="5.73864">
        <ele>513.2</ele>
        <time>2021-08-19T16:14:25Z</time>
      </trkpt>
      <trkpt lat="46.1782" lon="5.73863">
        <ele>513.2</ele>
        <time>2021-08-19T16:14:26Z</time>
      </trkpt>
      <trkpt lat="46.17816" lon="5.73861">
        <ele>513.2</ele>
        <time>2021-08-19T16:14:28Z</time>
      </trkpt>
      <trkpt lat="46.17811" lon="5.73854">
        <ele>513.1</ele>
        <time>2021-08-19T16:14:30Z</time>
      </trkpt>
      <trkpt lat="46.17808" lon="5.73845">
        <ele>513.1</ele>
        <time>2021-08-19T16:14:32Z</time>
      </trkpt>
      <trkpt lat="46.17804" lon="5.73835">
        <ele>513.3</ele>
        <time>2021-08-19T16:14:34Z</time>
      </trkpt>
      <trkpt lat="46.17801" lon="5.73824">
        <ele>513.9</ele>
        <time>2021-08-19T16:14:36Z</time>
      </trkpt>
      <trkpt lat="46.17799" lon="5.73819">
        <ele>514.1</ele>
        <time>2021-08-19T16:14:37Z</time>
      </trkpt>
      <trkpt lat="46.17799" lon="5.73814">
        <ele>514.3</ele>
        <time>2021-08-19T16:14:38Z</time>
      </trkpt>
      <trkpt lat="46.17799" lon="5.73808">
        <ele>514.6</ele>
        <time>2021-08-19T16:14:39Z</time>
      </trkpt>
      <trkpt lat="46.17799" lon="5.73804">
        <ele>514.8</ele>
        <time>2021-08-19T16:14:41Z</time>
      </trkpt>
      <trkpt lat="46.178" lon="5.73799">
        <ele>515.1</ele>
        <time>2021-08-19T16:14:43Z</time>
      </trkpt>
      <trkpt lat="46.17801" lon="5.73794">
        <ele>515.3</ele>
        <time>2021-08-19T16:14:44Z</time>
      </trkpt>
      <trkpt lat="46.178" lon="5.7379">
        <ele>515.5</ele>
        <time>2021-08-19T16:14:46Z</time>
      </trkpt>
      <trkpt lat="46.178" lon="5.73787">
        <ele>515.7</ele>
        <time>2021-08-19T16:14:47Z</time>
      </trkpt>
      <trkpt lat="46.17801" lon="5.73782">
        <ele>515.9</ele>
        <time>2021-08-19T16:14:49Z</time>
      </trkpt>
      <trkpt lat="46.17801" lon="5.73778">
        <ele>515.9</ele>
        <time>2021-08-19T16:14:50Z</time>
      </trkpt>
      <trkpt lat="46.178" lon="5.73774">
        <ele>516</ele>
        <time>2021-08-19T16:14:52Z</time>
      </trkpt>
      <trkpt lat="46.17799" lon="5.73768">
        <ele>516.1</ele>
        <time>2021-08-19T16:14:54Z</time>
      </trkpt>
      <trkpt lat="46.17797" lon="5.73763">
        <ele>516.2</ele>
        <time>2021-08-19T16:14:56Z</time>
      </trkpt>
      <trkpt lat="46.17796" lon="5.73762">
        <ele>516.2</ele>
        <time>2021-08-19T16:14:57Z</time>
      </trkpt>
      <trkpt lat="46.17794" lon="5.73761">
        <ele>516.3</ele>
        <time>2021-08-19T16:14:59Z</time>
      </trkpt>
      <trkpt lat="46.17792" lon="5.73761">
        <ele>516.3</ele>
        <time>2021-08-19T16:15:01Z</time>
      </trkpt>
      <trkpt lat="46.17792" lon="5.73761">
        <ele>516.3</ele>
        <time>2021-08-19T16:15:03Z</time>
      </trkpt>
      <trkpt lat="46.17792" lon="5.73761">
        <ele>516.3</ele>
        <time>2021-08-19T16:15:04Z</time>
      </trkpt>
      <trkpt lat="46.17792" lon="5.73759">
        <ele>516.4</ele>
        <time>2021-08-19T16:15:06Z</time>
      </trkpt>
      <trkpt lat="46.17792" lon="5.7375">
        <ele>516.5</ele>
        <time>2021-08-19T16:15:13Z</time>
      </trkpt>
      <trkpt lat="46.17793" lon="5.73744">
        <ele>516.6</ele>
        <time>2021-08-19T16:15:14Z</time>
      </trkpt>
      <trkpt lat="46.17798" lon="5.73732">
        <ele>516.9</ele>
        <time>2021-08-19T16:15:16Z</time>
      </trkpt>
      <trkpt lat="46.17802" lon="5.73724">
        <ele>517</ele>
        <time>2021-08-19T16:15:17Z</time>
      </trkpt>
      <trkpt lat="46.17804" lon="5.7372">
        <ele>517.1</ele>
        <time>2021-08-19T16:15:18Z</time>
      </trkpt>
      <trkpt lat="46.17805" lon="5.73718">
        <ele>517.1</ele>
        <time>2021-08-19T16:15:19Z</time>
      </trkpt>
      <trkpt lat="46.17808" lon="5.73723">
        <ele>517.2</ele>
        <time>2021-08-19T16:15:21Z</time>
      </trkpt>
      <trkpt lat="46.17811" lon="5.73733">
        <ele>517</ele>
        <time>2021-08-19T16:15:23Z</time>
      </trkpt>
      <trkpt lat="46.17811" lon="5.73741">
        <ele>516.8</ele>
        <time>2021-08-19T16:15:25Z</time>
      </trkpt>
      <trkpt lat="46.17813" lon="5.73746">
        <ele>516.7</ele>
        <time>2021-08-19T16:15:26Z</time>
      </trkpt>
      <trkpt lat="46.17819" lon="5.73755">
        <ele>516.4</ele>
        <time>2021-08-19T16:15:28Z</time>
      </trkpt>
      <trkpt lat="46.17821" lon="5.73759">
        <ele>516.2</ele>
        <time>2021-08-19T16:15:29Z</time>
      </trkpt>
      <trkpt lat="46.17824" lon="5.73764">
        <ele>516.1</ele>
        <time>2021-08-19T16:15:30Z</time>
      </trkpt>
      <trkpt lat="46.17826" lon="5.73769">
        <ele>516</ele>
        <time>2021-08-19T16:15:31Z</time>
      </trkpt>
      <trkpt lat="46.17829" lon="5.7378">
        <ele>515.9</ele>
        <time>2021-08-19T16:15:33Z</time>
      </trkpt>
      <trkpt lat="46.17829" lon="5.73785">
        <ele>515.9</ele>
        <time>2021-08-19T16:15:34Z</time>
      </trkpt>
      <trkpt lat="46.17829" lon="5.73788">
        <ele>515.7</ele>
        <time>2021-08-19T16:15:35Z</time>
      </trkpt>
      <trkpt lat="46.17828" lon="5.73797">
        <ele>515.3</ele>
        <time>2021-08-19T16:15:36Z</time>
      </trkpt>
      <trkpt lat="46.17826" lon="5.73804">
        <ele>514.9</ele>
        <time>2021-08-19T16:15:38Z</time>
      </trkpt>
      <trkpt lat="46.17826" lon="5.7381">
        <ele>514.5</ele>
        <time>2021-08-19T16:15:39Z</time>
      </trkpt>
      <trkpt lat="46.17824" lon="5.73822">
        <ele>513.9</ele>
        <time>2021-08-19T16:15:41Z</time>
      </trkpt>
      <trkpt lat="46.17823" lon="5.73828">
        <ele>513.7</ele>
        <time>2021-08-19T16:15:42Z</time>
      </trkpt>
      <trkpt lat="46.17822" lon="5.73834">
        <ele>513.3</ele>
        <time>2021-08-19T16:15:43Z</time>
      </trkpt>
      <trkpt lat="46.17819" lon="5.73839">
        <ele>513.1</ele>
        <time>2021-08-19T16:15:45Z</time>
      </trkpt>
      <trkpt lat="46.17818" lon="5.73839">
        <ele>513.1</ele>
        <time>2021-08-19T16:15:46Z</time>
      </trkpt>
      <trkpt lat="46.17817" lon="5.73839">
        <ele>513.1</ele>
        <time>2021-08-19T16:15:47Z</time>
      </trkpt>
      <trkpt lat="46.17816" lon="5.73839">
        <ele>513.2</ele>
        <time>2021-08-19T16:15:48Z</time>
      </trkpt>
      <trkpt lat="46.17813" lon="5.73835">
        <ele>513.5</ele>
        <time>2021-08-19T16:15:49Z</time>
      </trkpt>
      <trkpt lat="46.17812" lon="5.73829">
        <ele>513.8</ele>
        <time>2021-08-19T16:15:51Z</time>
      </trkpt>
      <trkpt lat="46.17812" lon="5.73826">
        <ele>513.9</ele>
        <time>2021-08-19T16:15:52Z</time>
      </trkpt>
      <trkpt lat="46.17815" lon="5.73821">
        <ele>514.1</ele>
        <time>2021-08-19T16:15:53Z</time>
      </trkpt>
      <trkpt lat="46.17818" lon="5.73807">
        <ele>514.9</ele>
        <time>2021-08-19T16:15:55Z</time>
      </trkpt>
      <trkpt lat="46.17818" lon="5.73788">
        <ele>515.8</ele>
        <time>2021-08-19T16:15:56Z</time>
      </trkpt>
      <trkpt lat="46.17817" lon="5.73774">
        <ele>516</ele>
        <time>2021-08-19T16:15:58Z</time>
      </trkpt>
      <trkpt lat="46.17816" lon="5.73763">
        <ele>516.2</ele>
        <time>2021-08-19T16:16:00Z</time>
      </trkpt>
      <trkpt lat="46.17815" lon="5.73759">
        <ele>516.3</ele>
        <time>2021-08-19T16:16:01Z</time>
      </trkpt>
      <trkpt lat="46.17813" lon="5.73754">
        <ele>516.4</ele>
        <time>2021-08-19T16:16:02Z</time>
      </trkpt>
      <trkpt lat="46.17809" lon="5.73749">
        <ele>516.6</ele>
        <time>2021-08-19T16:16:04Z</time>
      </trkpt>
      <trkpt lat="46.17807" lon="5.73745">
        <ele>516.7</ele>
        <time>2021-08-19T16:16:05Z</time>
      </trkpt>
      <trkpt lat="46.17806" lon="5.73741">
        <ele>516.8</ele>
        <time>2021-08-19T16:16:06Z</time>
      </trkpt>
      <trkpt lat="46.17806" lon="5.7374">
        <ele>516.9</ele>
        <time>2021-08-19T16:16:08Z</time>
      </trkpt>
      <trkpt lat="46.17805" lon="5.73739">
        <ele>516.9</ele>
        <time>2021-08-19T16:16:09Z</time>
      </trkpt>
      <trkpt lat="46.17805" lon="5.73735">
        <ele>517</ele>
        <time>2021-08-19T16:16:11Z</time>
      </trkpt>
      <trkpt lat="46.17806" lon="5.73732">
        <ele>517</ele>
        <time>2021-08-19T16:16:13Z</time>
      </trkpt>
      <trkpt lat="46.17806" lon="5.7373">
        <ele>517.1</ele>
        <time>2021-08-19T16:16:14Z</time>
      </trkpt>
      <trkpt lat="46.17806" lon="5.73726">
        <ele>517.2</ele>
        <time>2021-08-19T16:16:15Z</time>
      </trkpt>
      <trkpt lat="46.17806" lon="5.73724">
        <ele>517.2</ele>
        <time>2021-08-19T16:16:17Z</time>
      </trkpt>
      <trkpt lat="46.17673" lon="5.73422">
        <ele>511.1</ele>
        <time>2021-08-19T16:17:17Z</time>
      </trkpt>
      <trkpt lat="46.17664" lon="5.73408">
        <ele>510.8</ele>
        <time>2021-08-19T16:17:18Z</time>
      </trkpt>
      <trkpt lat="46.17651" lon="5.73384">
        <ele>510.4</ele>
        <time>2021-08-19T16:17:20Z</time>
      </trkpt>
      <trkpt lat="46.1764" lon="5.7337">
        <ele>510.3</ele>
        <time>2021-08-19T16:17:22Z</time>
      </trkpt>
      <trkpt lat="46.17644" lon="5.7338">
        <ele>510.3</ele>
        <time>2021-08-19T16:17:24Z</time>
      </trkpt>
      <trkpt lat="46.17652" lon="5.73392">
        <ele>510.3</ele>
        <time>2021-08-19T16:17:25Z</time>
      </trkpt>
      <trkpt lat="46.17626" lon="5.73352">
        <ele>509.2</ele>
        <time>2021-08-19T16:17:27Z</time>
      </trkpt>
      <trkpt lat="46.17618" lon="5.73331">
        <ele>508.2</ele>
        <time>2021-08-19T16:17:29Z</time>
      </trkpt>
      <trkpt lat="46.17616" lon="5.73323">
        <ele>507.9</ele>
        <time>2021-08-19T16:17:30Z</time>
      </trkpt>
      <trkpt lat="46.17612" lon="5.73315">
        <ele>507.5</ele>
        <time>2021-08-19T16:17:31Z</time>
      </trkpt>
      <trkpt lat="46.17605" lon="5.73303">
        <ele>507</ele>
        <time>2021-08-19T16:17:33Z</time>
      </trkpt>
      <trkpt lat="46.17602" lon="5.73296">
        <ele>506.7</ele>
        <time>2021-08-19T16:17:34Z</time>
      </trkpt>
      <trkpt lat="46.17596" lon="5.73282">
        <ele>506.4</ele>
        <time>2021-08-19T16:17:36Z</time>
      </trkpt>
      <trkpt lat="46.17588" lon="5.73271">
        <ele>506.1</ele>
        <time>2021-08-19T16:17:38Z</time>
      </trkpt>
      <trkpt lat="46.17583" lon="5.73266">
        <ele>506</ele>
        <time>2021-08-19T16:17:39Z</time>
      </trkpt>
      <trkpt lat="46.17573" lon="5.73257">
        <ele>505.8</ele>
        <time>2021-08-19T16:17:41Z</time>
      </trkpt>
      <trkpt lat="46.17567" lon="5.73254">
        <ele>505.6</ele>
        <time>2021-08-19T16:17:42Z</time>
      </trkpt>
      <trkpt lat="46.17557" lon="5.73247">
        <ele>505.5</ele>
        <time>2021-08-19T16:17:44Z</time>
      </trkpt>
      <trkpt lat="46.17551" lon="5.73242">
        <ele>505.4</ele>
        <time>2021-08-19T16:17:45Z</time>
      </trkpt>
      <trkpt lat="46.17541" lon="5.73232">
        <ele>505.2</ele>
        <time>2021-08-19T16:17:47Z</time>
      </trkpt>
      <trkpt lat="46.17532" lon="5.73225">
        <ele>505.1</ele>
        <time>2021-08-19T16:17:49Z</time>
      </trkpt>
      <trkpt lat="46.17528" lon="5.73222">
        <ele>505.1</ele>
        <time>2021-08-19T16:17:50Z</time>
      </trkpt>
      <trkpt lat="46.17524" lon="5.7322">
        <ele>505.1</ele>
        <time>2021-08-19T16:17:51Z</time>
      </trkpt>
      <trkpt lat="46.17516" lon="5.73216">
        <ele>505.1</ele>
        <time>2021-08-19T16:17:53Z</time>
      </trkpt>
      <trkpt lat="46.1751" lon="5.73209">
        <ele>505.2</ele>
        <time>2021-08-19T16:17:55Z</time>
      </trkpt>
      <trkpt lat="46.17507" lon="5.73204">
        <ele>505.2</ele>
        <time>2021-08-19T16:17:56Z</time>
      </trkpt>
      <trkpt lat="46.175" lon="5.73195">
        <ele>505.3</ele>
        <time>2021-08-19T16:17:58Z</time>
      </trkpt>
      <trkpt lat="46.17491" lon="5.73183">
        <ele>505.5</ele>
        <time>2021-08-19T16:18:00Z</time>
      </trkpt>
      <trkpt lat="46.17488" lon="5.73179">
        <ele>505.6</ele>
        <time>2021-08-19T16:18:01Z</time>
      </trkpt>
      <trkpt lat="46.17484" lon="5.73175">
        <ele>505.7</ele>
        <time>2021-08-19T16:18:02Z</time>
      </trkpt>
      <trkpt lat="46.17478" lon="5.7317">
        <ele>505.8</ele>
        <time>2021-08-19T16:18:04Z</time>
      </trkpt>
      <trkpt lat="46.17474" lon="5.73165">
        <ele>505.9</ele>
        <time>2021-08-19T16:18:05Z</time>
      </trkpt>
      <trkpt lat="46.17469" lon="5.73157">
        <ele>506</ele>
        <time>2021-08-19T16:18:07Z</time>
      </trkpt>
      <trkpt lat="46.17466" lon="5.73154">
        <ele>506</ele>
        <time>2021-08-19T16:18:08Z</time>
      </trkpt>
      <trkpt lat="46.17463" lon="5.73149">
        <ele>506.1</ele>
        <time>2021-08-19T16:18:09Z</time>
      </trkpt>
      <trkpt lat="46.17458" lon="5.73141">
        <ele>506.2</ele>
        <time>2021-08-19T16:18:10Z</time>
      </trkpt>
      <trkpt lat="46.17455" lon="5.73138">
        <ele>506.2</ele>
        <time>2021-08-19T16:18:12Z</time>
      </trkpt>
      <trkpt lat="46.17453" lon="5.73134">
        <ele>506.2</ele>
        <time>2021-08-19T16:18:13Z</time>
      </trkpt>
      <trkpt lat="46.17451" lon="5.73129">
        <ele>506.3</ele>
        <time>2021-08-19T16:18:14Z</time>
      </trkpt>
      <trkpt lat="46.1745" lon="5.73123">
        <ele>506.3</ele>
        <time>2021-08-19T16:18:15Z</time>
      </trkpt>
      <trkpt lat="46.17445" lon="5.73117">
        <ele>506.4</ele>
        <time>2021-08-19T16:18:17Z</time>
      </trkpt>
      <trkpt lat="46.17443" lon="5.73113">
        <ele>506.5</ele>
        <time>2021-08-19T16:18:18Z</time>
      </trkpt>
      <trkpt lat="46.1744" lon="5.73107">
        <ele>506.5</ele>
        <time>2021-08-19T16:18:19Z</time>
      </trkpt>
      <trkpt lat="46.17438" lon="5.73103">
        <ele>506.6</ele>
        <time>2021-08-19T16:18:20Z</time>
      </trkpt>
      <trkpt lat="46.17435" lon="5.73099">
        <ele>506.7</ele>
        <time>2021-08-19T16:18:21Z</time>
      </trkpt>
      <trkpt lat="46.17431" lon="5.73095">
        <ele>506.7</ele>
        <time>2021-08-19T16:18:22Z</time>
      </trkpt>
      <trkpt lat="46.17429" lon="5.73091">
        <ele>506.8</ele>
        <time>2021-08-19T16:18:23Z</time>
      </trkpt>
      <trkpt lat="46.17426" lon="5.73087">
        <ele>506.9</ele>
        <time>2021-08-19T16:18:24Z</time>
      </trkpt>
      <trkpt lat="46.17424" lon="5.73084">
        <ele>506.9</ele>
        <time>2021-08-19T16:18:25Z</time>
      </trkpt>
      <trkpt lat="46.17419" lon="5.73077">
        <ele>507.1</ele>
        <time>2021-08-19T16:18:27Z</time>
      </trkpt>
      <trkpt lat="46.17416" lon="5.73073">
        <ele>507.2</ele>
        <time>2021-08-19T16:18:29Z</time>
      </trkpt>
      <trkpt lat="46.17414" lon="5.73069">
        <ele>507.3</ele>
        <time>2021-08-19T16:18:30Z</time>
      </trkpt>
      <trkpt lat="46.17411" lon="5.73063">
        <ele>507.4</ele>
        <time>2021-08-19T16:18:31Z</time>
      </trkpt>
      <trkpt lat="46.17408" lon="5.73058">
        <ele>507.5</ele>
        <time>2021-08-19T16:18:32Z</time>
      </trkpt>
      <trkpt lat="46.17405" lon="5.7305">
        <ele>507.8</ele>
        <time>2021-08-19T16:18:33Z</time>
      </trkpt>
      <trkpt lat="46.17403" lon="5.73045">
        <ele>507.9</ele>
        <time>2021-08-19T16:18:34Z</time>
      </trkpt>
      <trkpt lat="46.17399" lon="5.73039">
        <ele>508.2</ele>
        <time>2021-08-19T16:18:35Z</time>
      </trkpt>
      <trkpt lat="46.17396" lon="5.73035">
        <ele>508.3</ele>
        <time>2021-08-19T16:18:37Z</time>
      </trkpt>
      <trkpt lat="46.17393" lon="5.73031">
        <ele>508.5</ele>
        <time>2021-08-19T16:18:38Z</time>
      </trkpt>
      <trkpt lat="46.17388" lon="5.73027">
        <ele>508.8</ele>
        <time>2021-08-19T16:18:39Z</time>
      </trkpt>
      <trkpt lat="46.17385" lon="5.73022">
        <ele>509</ele>
        <time>2021-08-19T16:18:40Z</time>
      </trkpt>
      <trkpt lat="46.17382" lon="5.73018">
        <ele>509.2</ele>
        <time>2021-08-19T16:18:41Z</time>
      </trkpt>
      <trkpt lat="46.17378" lon="5.73015">
        <ele>509.3</ele>
        <time>2021-08-19T16:18:43Z</time>
      </trkpt>
      <trkpt lat="46.17375" lon="5.73013">
        <ele>509.4</ele>
        <time>2021-08-19T16:18:44Z</time>
      </trkpt>
      <trkpt lat="46.17372" lon="5.73009">
        <ele>509.6</ele>
        <time>2021-08-19T16:18:45Z</time>
      </trkpt>
      <trkpt lat="46.17369" lon="5.73007">
        <ele>509.7</ele>
        <time>2021-08-19T16:18:46Z</time>
      </trkpt>
      <trkpt lat="46.17366" lon="5.73004">
        <ele>509.8</ele>
        <time>2021-08-19T16:18:47Z</time>
      </trkpt>
      <trkpt lat="46.17363" lon="5.72999">
        <ele>509.9</ele>
        <time>2021-08-19T16:18:48Z</time>
      </trkpt>
      <trkpt lat="46.1736" lon="5.72993">
        <ele>510</ele>
        <time>2021-08-19T16:18:50Z</time>
      </trkpt>
      <trkpt lat="46.17357" lon="5.72988">
        <ele>510</ele>
        <time>2021-08-19T16:18:52Z</time>
      </trkpt>
      <trkpt lat="46.17355" lon="5.72982">
        <ele>510.1</ele>
        <time>2021-08-19T16:18:53Z</time>
      </trkpt>
      <trkpt lat="46.17354" lon="5.72977">
        <ele>510.2</ele>
        <time>2021-08-19T16:18:54Z</time>
      </trkpt>
      <trkpt lat="46.17352" lon="5.72971">
        <ele>510.2</ele>
        <time>2021-08-19T16:18:55Z</time>
      </trkpt>
      <trkpt lat="46.17351" lon="5.72967">
        <ele>510.3</ele>
        <time>2021-08-19T16:18:56Z</time>
      </trkpt>
      <trkpt lat="46.1735" lon="5.72962">
        <ele>510.4</ele>
        <time>2021-08-19T16:18:57Z</time>
      </trkpt>
      <trkpt lat="46.17348" lon="5.72955">
        <ele>510.5</ele>
        <time>2021-08-19T16:18:58Z</time>
      </trkpt>
      <trkpt lat="46.17347" lon="5.72949">
        <ele>510.6</ele>
        <time>2021-08-19T16:18:59Z</time>
      </trkpt>
      <trkpt lat="46.17344" lon="5.72941">
        <ele>510.7</ele>
        <time>2021-08-19T16:19:01Z</time>
      </trkpt>
      <trkpt lat="46.17342" lon="5.72938">
        <ele>510.8</ele>
        <time>2021-08-19T16:19:02Z</time>
      </trkpt>
      <trkpt lat="46.17339" lon="5.72934">
        <ele>510.9</ele>
        <time>2021-08-19T16:19:03Z</time>
      </trkpt>
      <trkpt lat="46.17335" lon="5.72929">
        <ele>511</ele>
        <time>2021-08-19T16:19:04Z</time>
      </trkpt>
      <trkpt lat="46.17333" lon="5.72926">
        <ele>511.1</ele>
        <time>2021-08-19T16:19:05Z</time>
      </trkpt>
      <trkpt lat="46.17331" lon="5.72924">
        <ele>511.2</ele>
        <time>2021-08-19T16:19:06Z</time>
      </trkpt>
      <trkpt lat="46.17327" lon="5.72921">
        <ele>511.3</ele>
        <time>2021-08-19T16:19:08Z</time>
      </trkpt>
      <trkpt lat="46.17326" lon="5.72921">
        <ele>511.3</ele>
        <time>2021-08-19T16:19:09Z</time>
      </trkpt>
      <trkpt lat="46.17324" lon="5.72921">
        <ele>511.4</ele>
        <time>2021-08-19T16:19:10Z</time>
      </trkpt>
      <trkpt lat="46.17322" lon="5.72918">
        <ele>511.5</ele>
        <time>2021-08-19T16:19:12Z</time>
      </trkpt>
      <trkpt lat="46.17321" lon="5.72914">
        <ele>511.6</ele>
        <time>2021-08-19T16:19:13Z</time>
      </trkpt>
      <trkpt lat="46.1732" lon="5.72906">
        <ele>511.8</ele>
        <time>2021-08-19T16:19:14Z</time>
      </trkpt>
      <trkpt lat="46.1732" lon="5.72901">
        <ele>511.9</ele>
        <time>2021-08-19T16:19:16Z</time>
      </trkpt>
      <trkpt lat="46.17318" lon="5.72894">
        <ele>512.1</ele>
        <time>2021-08-19T16:19:18Z</time>
      </trkpt>
      <trkpt lat="46.17316" lon="5.72892">
        <ele>512.2</ele>
        <time>2021-08-19T16:19:19Z</time>
      </trkpt>
      <trkpt lat="46.17311" lon="5.72887">
        <ele>512.4</ele>
        <time>2021-08-19T16:19:21Z</time>
      </trkpt>
      <trkpt lat="46.17308" lon="5.72886">
        <ele>512.3</ele>
        <time>2021-08-19T16:19:22Z</time>
      </trkpt>
      <trkpt lat="46.17307" lon="5.72886">
        <ele>512.3</ele>
        <time>2021-08-19T16:19:23Z</time>
      </trkpt>
      <trkpt lat="46.17305" lon="5.72887">
        <ele>512.2</ele>
        <time>2021-08-19T16:19:25Z</time>
      </trkpt>
      <trkpt lat="46.17304" lon="5.72889">
        <ele>512.2</ele>
        <time>2021-08-19T16:19:26Z</time>
      </trkpt>
      <trkpt lat="46.17304" lon="5.72891">
        <ele>512.2</ele>
        <time>2021-08-19T16:19:27Z</time>
      </trkpt>
      <trkpt lat="46.17303" lon="5.72891">
        <ele>512.2</ele>
        <time>2021-08-19T16:19:29Z</time>
      </trkpt>
      <trkpt lat="46.17303" lon="5.72891">
        <ele>512.1</ele>
        <time>2021-08-19T16:19:30Z</time>
      </trkpt>
      <trkpt lat="46.17303" lon="5.72891">
        <ele>512.1</ele>
        <time>2021-08-19T16:19:31Z</time>
      </trkpt>
      <trkpt lat="46.17303" lon="5.72892">
        <ele>512.1</ele>
        <time>2021-08-19T16:19:33Z</time>
      </trkpt>
      <trkpt lat="46.17304" lon="5.72892">
        <ele>512.1</ele>
        <time>2021-08-19T16:19:34Z</time>
      </trkpt>
      <trkpt lat="46.17304" lon="5.72891">
        <ele>512.1</ele>
        <time>2021-08-19T16:19:35Z</time>
      </trkpt>
      <trkpt lat="46.17288" lon="5.72892">
        <ele>511.8</ele>
        <time>2021-08-19T16:20:12Z</time>
      </trkpt>
      <trkpt lat="46.1728" lon="5.72907">
        <ele>511.5</ele>
        <time>2021-08-19T16:20:14Z</time>
      </trkpt>
      <trkpt lat="46.17275" lon="5.7292">
        <ele>511.4</ele>
        <time>2021-08-19T16:20:16Z</time>
      </trkpt>
      <trkpt lat="46.17273" lon="5.72927">
        <ele>511.3</ele>
        <time>2021-08-19T16:20:17Z</time>
      </trkpt>
      <trkpt lat="46.17266" lon="5.72937">
        <ele>511.1</ele>
        <time>2021-08-19T16:20:19Z</time>
      </trkpt>
      <trkpt lat="46.17259" lon="5.72945">
        <ele>511.7</ele>
        <time>2021-08-19T16:20:21Z</time>
      </trkpt>
      <trkpt lat="46.17252" lon="5.72948">
        <ele>512.1</ele>
        <time>2021-08-19T16:20:23Z</time>
      </trkpt>
      <trkpt lat="46.17247" lon="5.72948">
        <ele>512.3</ele>
        <time>2021-08-19T16:20:24Z</time>
      </trkpt>
      <trkpt lat="46.17243" lon="5.72948">
        <ele>512.6</ele>
        <time>2021-08-19T16:20:25Z</time>
      </trkpt>
      <trkpt lat="46.17241" lon="5.72948">
        <ele>512.6</ele>
        <time>2021-08-19T16:20:26Z</time>
      </trkpt>
      <trkpt lat="46.17239" lon="5.72948">
        <ele>512.8</ele>
        <time>2021-08-19T16:20:27Z</time>
      </trkpt>
      <trkpt lat="46.17237" lon="5.72946">
        <ele>512.9</ele>
        <time>2021-08-19T16:20:29Z</time>
      </trkpt>
      <trkpt lat="46.17234" lon="5.72943">
        <ele>513.2</ele>
        <time>2021-08-19T16:20:31Z</time>
      </trkpt>
      <trkpt lat="46.17232" lon="5.72941">
        <ele>513.4</ele>
        <time>2021-08-19T16:20:32Z</time>
      </trkpt>
      <trkpt lat="46.17229" lon="5.72938">
        <ele>513.6</ele>
        <time>2021-08-19T16:20:33Z</time>
      </trkpt>
      <trkpt lat="46.17228" lon="5.72937">
        <ele>513.7</ele>
        <time>2021-08-19T16:20:34Z</time>
      </trkpt>
      <trkpt lat="46.17226" lon="5.72933">
        <ele>513.9</ele>
        <time>2021-08-19T16:20:35Z</time>
      </trkpt>
      <trkpt lat="46.17224" lon="5.7293">
        <ele>514.1</ele>
        <time>2021-08-19T16:20:37Z</time>
      </trkpt>
      <trkpt lat="46.17223" lon="5.72929">
        <ele>514.2</ele>
        <time>2021-08-19T16:20:39Z</time>
      </trkpt>
      <trkpt lat="46.17221" lon="5.72929">
        <ele>514.3</ele>
        <time>2021-08-19T16:20:40Z</time>
      </trkpt>
      <trkpt lat="46.17218" lon="5.72928">
        <ele>514.5</ele>
        <time>2021-08-19T16:20:41Z</time>
      </trkpt>
      <trkpt lat="46.17217" lon="5.72928">
        <ele>514.5</ele>
        <time>2021-08-19T16:20:43Z</time>
      </trkpt>
      <trkpt lat="46.17216" lon="5.72927">
        <ele>514.6</ele>
        <time>2021-08-19T16:20:44Z</time>
      </trkpt>
      <trkpt lat="46.17214" lon="5.72927">
        <ele>514.7</ele>
        <time>2021-08-19T16:20:46Z</time>
      </trkpt>
      <trkpt lat="46.17214" lon="5.72926">
        <ele>514.8</ele>
        <time>2021-08-19T16:20:47Z</time>
      </trkpt>
      <trkpt lat="46.17213" lon="5.72926">
        <ele>514.8</ele>
        <time>2021-08-19T16:20:48Z</time>
      </trkpt>
      <trkpt lat="46.17213" lon="5.72925">
        <ele>514.8</ele>
        <time>2021-08-19T16:20:49Z</time>
      </trkpt>
      <trkpt lat="46.17211" lon="5.72924">
        <ele>515</ele>
        <time>2021-08-19T16:20:51Z</time>
      </trkpt>
      <trkpt lat="46.17207" lon="5.72929">
        <ele>515.3</ele>
        <time>2021-08-19T16:21:06Z</time>
      </trkpt>
      <trkpt lat="46.17205" lon="5.72929">
        <ele>515.5</ele>
        <time>2021-08-19T16:21:07Z</time>
      </trkpt>
      <trkpt lat="46.17201" lon="5.72929">
        <ele>515.7</ele>
        <time>2021-08-19T16:21:08Z</time>
      </trkpt>
      <trkpt lat="46.17196" lon="5.72926">
        <ele>516</ele>
        <time>2021-08-19T16:21:10Z</time>
      </trkpt>
      <trkpt lat="46.17193" lon="5.72923">
        <ele>516.3</ele>
        <time>2021-08-19T16:21:11Z</time>
      </trkpt>
      <trkpt lat="46.17192" lon="5.72923">
        <ele>516.3</ele>
        <time>2021-08-19T16:21:12Z</time>
      </trkpt>
      <trkpt lat="46.17192" lon="5.72922">
        <ele>516.4</ele>
        <time>2021-08-19T16:21:13Z</time>
      </trkpt>
      <trkpt lat="46.17192" lon="5.72922">
        <ele>516.4</ele>
        <time>2021-08-19T16:21:14Z</time>
      </trkpt>
      <trkpt lat="46.17191" lon="5.72921">
        <ele>516.4</ele>
        <time>2021-08-19T16:21:15Z</time>
      </trkpt>
      <trkpt lat="46.1719" lon="5.72921">
        <ele>516.5</ele>
        <time>2021-08-19T16:21:16Z</time>
      </trkpt>
      <trkpt lat="46.17189" lon="5.7292">
        <ele>516.5</ele>
        <time>2021-08-19T16:21:18Z</time>
      </trkpt>
      <trkpt lat="46.17144" lon="5.72895">
        <ele>519.8</ele>
        <time>2021-08-19T16:21:43Z</time>
      </trkpt>
      <trkpt lat="46.17144" lon="5.72891">
        <ele>520</ele>
        <time>2021-08-19T16:21:44Z</time>
      </trkpt>
      <trkpt lat="46.17143" lon="5.72886">
        <ele>520.2</ele>
        <time>2021-08-19T16:21:46Z</time>
      </trkpt>
      <trkpt lat="46.17143" lon="5.72882">
        <ele>520.4</ele>
        <time>2021-08-19T16:21:47Z</time>
      </trkpt>
      <trkpt lat="46.17142" lon="5.72875">
        <ele>520.8</ele>
        <time>2021-08-19T16:21:49Z</time>
      </trkpt>
      <trkpt lat="46.17142" lon="5.72871">
        <ele>521</ele>
        <time>2021-08-19T16:21:50Z</time>
      </trkpt>
      <trkpt lat="46.17142" lon="5.72866">
        <ele>521.2</ele>
        <time>2021-08-19T16:21:51Z</time>
      </trkpt>
      <trkpt lat="46.17143" lon="5.72864">
        <ele>521.3</ele>
        <time>2021-08-19T16:21:52Z</time>
      </trkpt>
      <trkpt lat="46.17143" lon="5.72858">
        <ele>521.6</ele>
        <time>2021-08-19T16:21:54Z</time>
      </trkpt>
      <trkpt lat="46.17143" lon="5.72856">
        <ele>521.7</ele>
        <time>2021-08-19T16:21:55Z</time>
      </trkpt>
      <trkpt lat="46.17143" lon="5.72853">
        <ele>521.8</ele>
        <time>2021-08-19T16:21:57Z</time>
      </trkpt>
      <trkpt lat="46.17143" lon="5.72852">
        <ele>521.9</ele>
        <time>2021-08-19T16:21:58Z</time>
      </trkpt>
      <trkpt lat="46.17143" lon="5.72851">
        <ele>522</ele>
        <time>2021-08-19T16:21:59Z</time>
      </trkpt>
      <trkpt lat="46.17143" lon="5.72851">
        <ele>522</ele>
        <time>2021-08-19T16:22:00Z</time>
      </trkpt>
      <trkpt lat="46.17143" lon="5.72849">
        <ele>522.1</ele>
        <time>2021-08-19T16:22:02Z</time>
      </trkpt>
      <trkpt lat="46.17143" lon="5.72847">
        <ele>522.2</ele>
        <time>2021-08-19T16:22:03Z</time>
      </trkpt>
      <trkpt lat="46.17139" lon="5.72842">
        <ele>522.5</ele>
        <time>2021-08-19T16:22:05Z</time>
      </trkpt>
      <trkpt lat="46.17137" lon="5.72841">
        <ele>522.7</ele>
        <time>2021-08-19T16:22:06Z</time>
      </trkpt>
      <trkpt lat="46.17134" lon="5.7284">
        <ele>523</ele>
        <time>2021-08-19T16:22:07Z</time>
      </trkpt>
      <trkpt lat="46.17126" lon="5.72839">
        <ele>523.6</ele>
        <time>2021-08-19T16:22:08Z</time>
      </trkpt>
      <trkpt lat="46.1712" lon="5.72837">
        <ele>524</ele>
        <time>2021-08-19T16:22:10Z</time>
      </trkpt>
      <trkpt lat="46.17119" lon="5.72836">
        <ele>524.1</ele>
        <time>2021-08-19T16:22:11Z</time>
      </trkpt>
      <trkpt lat="46.17118" lon="5.72833">
        <ele>524.3</ele>
        <time>2021-08-19T16:22:13Z</time>
      </trkpt>
      <trkpt lat="46.17118" lon="5.72829">
        <ele>524.5</ele>
        <time>2021-08-19T16:22:15Z</time>
      </trkpt>
      <trkpt lat="46.17119" lon="5.72829">
        <ele>524.5</ele>
        <time>2021-08-19T16:22:16Z</time>
      </trkpt>
      <trkpt lat="46.1712" lon="5.72825">
        <ele>524.8</ele>
        <time>2021-08-19T16:22:18Z</time>
      </trkpt>
      <trkpt lat="46.17121" lon="5.72822">
        <ele>524.9</ele>
        <time>2021-08-19T16:22:19Z</time>
      </trkpt>
      <trkpt lat="46.17122" lon="5.72818">
        <ele>525.1</ele>
        <time>2021-08-19T16:22:21Z</time>
      </trkpt>
      <trkpt lat="46.17122" lon="5.72814">
        <ele>525.3</ele>
        <time>2021-08-19T16:22:22Z</time>
      </trkpt>
      <trkpt lat="46.17122" lon="5.72814">
        <ele>525.3</ele>
        <time>2021-08-19T16:22:23Z</time>
      </trkpt>
      <trkpt lat="46.17121" lon="5.7281">
        <ele>525.5</ele>
        <time>2021-08-19T16:22:25Z</time>
      </trkpt>
      <trkpt lat="46.17121" lon="5.72809">
        <ele>525.6</ele>
        <time>2021-08-19T16:22:26Z</time>
      </trkpt>
      <trkpt lat="46.1712" lon="5.72807">
        <ele>525.7</ele>
        <time>2021-08-19T16:22:27Z</time>
      </trkpt>
      <trkpt lat="46.17119" lon="5.72803">
        <ele>525.9</ele>
        <time>2021-08-19T16:22:29Z</time>
      </trkpt>
      <trkpt lat="46.17116" lon="5.72801">
        <ele>526.1</ele>
        <time>2021-08-19T16:22:30Z</time>
      </trkpt>
      <trkpt lat="46.17113" lon="5.72799">
        <ele>526.3</ele>
        <time>2021-08-19T16:22:31Z</time>
      </trkpt>
      <trkpt lat="46.17106" lon="5.72796">
        <ele>526.8</ele>
        <time>2021-08-19T16:22:33Z</time>
      </trkpt>
      <trkpt lat="46.17103" lon="5.72795">
        <ele>527</ele>
        <time>2021-08-19T16:22:34Z</time>
      </trkpt>
      <trkpt lat="46.171" lon="5.72793">
        <ele>527.2</ele>
        <time>2021-08-19T16:22:35Z</time>
      </trkpt>
      <trkpt lat="46.17099" lon="5.72793">
        <ele>527.3</ele>
        <time>2021-08-19T16:22:36Z</time>
      </trkpt>
      <trkpt lat="46.17095" lon="5.72792">
        <ele>527.5</ele>
        <time>2021-08-19T16:22:37Z</time>
      </trkpt>
      <trkpt lat="46.17095" lon="5.72792">
        <ele>527.5</ele>
        <time>2021-08-19T16:22:38Z</time>
      </trkpt>
      <trkpt lat="46.17093" lon="5.7279">
        <ele>527.6</ele>
        <time>2021-08-19T16:22:40Z</time>
      </trkpt>
      <trkpt lat="46.17091" lon="5.72788">
        <ele>527.8</ele>
        <time>2021-08-19T16:22:42Z</time>
      </trkpt>
      <trkpt lat="46.17089" lon="5.72784">
        <ele>528</ele>
        <time>2021-08-19T16:22:44Z</time>
      </trkpt>
      <trkpt lat="46.17087" lon="5.72782">
        <ele>528.1</ele>
        <time>2021-08-19T16:22:46Z</time>
      </trkpt>
      <trkpt lat="46.17087" lon="5.72781">
        <ele>528.2</ele>
        <time>2021-08-19T16:22:47Z</time>
      </trkpt>
      <trkpt lat="46.17087" lon="5.72781">
        <ele>528.2</ele>
        <time>2021-08-19T16:22:49Z</time>
      </trkpt>
      <trkpt lat="46.17086" lon="5.7278">
        <ele>528.2</ele>
        <time>2021-08-19T16:22:50Z</time>
      </trkpt>
      <trkpt lat="46.17084" lon="5.72778">
        <ele>528.4</ele>
        <time>2021-08-19T16:22:51Z</time>
      </trkpt>
      <trkpt lat="46.17082" lon="5.72777">
        <ele>528.5</ele>
        <time>2021-08-19T16:22:53Z</time>
      </trkpt>
      <trkpt lat="46.17081" lon="5.72776">
        <ele>528.6</ele>
        <time>2021-08-19T16:22:54Z</time>
      </trkpt>
      <trkpt lat="46.17081" lon="5.72776">
        <ele>528.6</ele>
        <time>2021-08-19T16:22:54Z</time>
      </trkpt>
      <trkpt lat="46.17077" lon="5.72774">
        <ele>528.8</ele>
        <time>2021-08-19T16:22:55Z</time>
      </trkpt>
      <trkpt lat="46.17072" lon="5.72772">
        <ele>529.1</ele>
        <time>2021-08-19T16:22:57Z</time>
      </trkpt>
      <trkpt lat="46.1707" lon="5.72771">
        <ele>529.2</ele>
        <time>2021-08-19T16:22:58Z</time>
      </trkpt>
      <trkpt lat="46.17068" lon="5.72771">
        <ele>529.3</ele>
        <time>2021-08-19T16:22:59Z</time>
      </trkpt>
      <trkpt lat="46.17066" lon="5.7277">
        <ele>529.4</ele>
        <time>2021-08-19T16:23:00Z</time>
      </trkpt>
      <trkpt lat="46.17064" lon="5.72768">
        <ele>529.6</ele>
        <time>2021-08-19T16:23:02Z</time>
      </trkpt>
      <trkpt lat="46.17061" lon="5.72764">
        <ele>529.8</ele>
        <time>2021-08-19T16:23:03Z</time>
      </trkpt>
      <trkpt lat="46.17059" lon="5.72762">
        <ele>529.9</ele>
        <time>2021-08-19T16:23:04Z</time>
      </trkpt>
      <trkpt lat="46.17058" lon="5.7276">
        <ele>530</ele>
        <time>2021-08-19T16:23:05Z</time>
      </trkpt>
      <trkpt lat="46.17058" lon="5.72758">
        <ele>530.1</ele>
        <time>2021-08-19T16:23:07Z</time>
      </trkpt>
      <trkpt lat="46.17057" lon="5.72754">
        <ele>530.3</ele>
        <time>2021-08-19T16:23:08Z</time>
      </trkpt>
      <trkpt lat="46.17055" lon="5.72751">
        <ele>530.5</ele>
        <time>2021-08-19T16:23:10Z</time>
      </trkpt>
      <trkpt lat="46.17054" lon="5.72747">
        <ele>530.6</ele>
        <time>2021-08-19T16:23:12Z</time>
      </trkpt>
      <trkpt lat="46.17055" lon="5.72744">
        <ele>530.8</ele>
        <time>2021-08-19T16:23:14Z</time>
      </trkpt>
      <trkpt lat="46.17056" lon="5.72743">
        <ele>530.8</ele>
        <time>2021-08-19T16:23:15Z</time>
      </trkpt>
      <trkpt lat="46.17056" lon="5.72742">
        <ele>530.9</ele>
        <time>2021-08-19T16:23:16Z</time>
      </trkpt>
      <trkpt lat="46.17055" lon="5.72739">
        <ele>531</ele>
        <time>2021-08-19T16:23:17Z</time>
      </trkpt>
      <trkpt lat="46.17054" lon="5.72735">
        <ele>531.2</ele>
        <time>2021-08-19T16:23:19Z</time>
      </trkpt>
      <trkpt lat="46.17053" lon="5.72734">
        <ele>531.2</ele>
        <time>2021-08-19T16:23:20Z</time>
      </trkpt>
      <trkpt lat="46.17053" lon="5.7273">
        <ele>531.4</ele>
        <time>2021-08-19T16:23:21Z</time>
      </trkpt>
      <trkpt lat="46.17053" lon="5.72728">
        <ele>531.5</ele>
        <time>2021-08-19T16:23:22Z</time>
      </trkpt>
      <trkpt lat="46.17053" lon="5.72726">
        <ele>531.6</ele>
        <time>2021-08-19T16:23:23Z</time>
      </trkpt>
      <trkpt lat="46.17053" lon="5.72725">
        <ele>531.7</ele>
        <time>2021-08-19T16:23:24Z</time>
      </trkpt>
      <trkpt lat="46.17052" lon="5.72724">
        <ele>531.7</ele>
        <time>2021-08-19T16:23:26Z</time>
      </trkpt>
      <trkpt lat="46.17049" lon="5.7272">
        <ele>531.7</ele>
        <time>2021-08-19T16:23:27Z</time>
      </trkpt>
      <trkpt lat="46.17047" lon="5.72718">
        <ele>531.6</ele>
        <time>2021-08-19T16:23:29Z</time>
      </trkpt>
      <trkpt lat="46.17044" lon="5.72715">
        <ele>531.8</ele>
        <time>2021-08-19T16:23:31Z</time>
      </trkpt>
      <trkpt lat="46.17041" lon="5.72712">
        <ele>532.1</ele>
        <time>2021-08-19T16:23:33Z</time>
      </trkpt>
      <trkpt lat="46.17038" lon="5.72709">
        <ele>532.2</ele>
        <time>2021-08-19T16:23:34Z</time>
      </trkpt>
      <trkpt lat="46.17035" lon="5.72707">
        <ele>532.4</ele>
        <time>2021-08-19T16:23:35Z</time>
      </trkpt>
      <trkpt lat="46.17032" lon="5.72706">
        <ele>532.6</ele>
        <time>2021-08-19T16:23:37Z</time>
      </trkpt>
      <trkpt lat="46.17028" lon="5.72704">
        <ele>532.8</ele>
        <time>2021-08-19T16:23:38Z</time>
      </trkpt>
      <trkpt lat="46.17024" lon="5.72703">
        <ele>533</ele>
        <time>2021-08-19T16:23:40Z</time>
      </trkpt>
      <trkpt lat="46.17022" lon="5.72701">
        <ele>533.2</ele>
        <time>2021-08-19T16:23:41Z</time>
      </trkpt>
      <trkpt lat="46.17021" lon="5.72701">
        <ele>533.3</ele>
        <time>2021-08-19T16:23:42Z</time>
      </trkpt>
      <trkpt lat="46.17021" lon="5.72699">
        <ele>533.3</ele>
        <time>2021-08-19T16:23:43Z</time>
      </trkpt>
      <trkpt lat="46.17021" lon="5.72694">
        <ele>533.5</ele>
        <time>2021-08-19T16:23:45Z</time>
      </trkpt>
      <trkpt lat="46.17023" lon="5.72691">
        <ele>533.7</ele>
        <time>2021-08-19T16:23:46Z</time>
      </trkpt>
      <trkpt lat="46.17024" lon="5.7269">
        <ele>533.8</ele>
        <time>2021-08-19T16:23:47Z</time>
      </trkpt>
      <trkpt lat="46.17025" lon="5.72688">
        <ele>533.9</ele>
        <time>2021-08-19T16:23:49Z</time>
      </trkpt>
      <trkpt lat="46.17025" lon="5.72686">
        <ele>534</ele>
        <time>2021-08-19T16:23:50Z</time>
      </trkpt>
      <trkpt lat="46.17024" lon="5.72682">
        <ele>534.2</ele>
        <time>2021-08-19T16:23:52Z</time>
      </trkpt>
      <trkpt lat="46.17024" lon="5.72682">
        <ele>534.2</ele>
        <time>2021-08-19T16:23:53Z</time>
      </trkpt>
      <trkpt lat="46.17023" lon="5.72679">
        <ele>534.3</ele>
        <time>2021-08-19T16:23:54Z</time>
      </trkpt>
      <trkpt lat="46.17022" lon="5.72678">
        <ele>534.4</ele>
        <time>2021-08-19T16:23:56Z</time>
      </trkpt>
      <trkpt lat="46.17021" lon="5.72677">
        <ele>534.5</ele>
        <time>2021-08-19T16:23:57Z</time>
      </trkpt>
      <trkpt lat="46.17017" lon="5.72676">
        <ele>534.8</ele>
        <time>2021-08-19T16:23:58Z</time>
      </trkpt>
      <trkpt lat="46.17011" lon="5.72675">
        <ele>535.1</ele>
        <time>2021-08-19T16:24:00Z</time>
      </trkpt>
      <trkpt lat="46.17006" lon="5.72675">
        <ele>535.4</ele>
        <time>2021-08-19T16:24:01Z</time>
      </trkpt>
      <trkpt lat="46.17002" lon="5.72674">
        <ele>535.7</ele>
        <time>2021-08-19T16:24:03Z</time>
      </trkpt>
      <trkpt lat="46.16997" lon="5.72674">
        <ele>536</ele>
        <time>2021-08-19T16:24:05Z</time>
      </trkpt>
      <trkpt lat="46.16993" lon="5.72675">
        <ele>536.3</ele>
        <time>2021-08-19T16:24:06Z</time>
      </trkpt>
      <trkpt lat="46.16988" lon="5.72674">
        <ele>536.5</ele>
        <time>2021-08-19T16:24:07Z</time>
      </trkpt>
      <trkpt lat="46.16982" lon="5.72674">
        <ele>536.9</ele>
        <time>2021-08-19T16:24:09Z</time>
      </trkpt>
      <trkpt lat="46.16979" lon="5.72675">
        <ele>537</ele>
        <time>2021-08-19T16:24:10Z</time>
      </trkpt>
      <trkpt lat="46.16974" lon="5.72677">
        <ele>537.3</ele>
        <time>2021-08-19T16:24:12Z</time>
      </trkpt>
      <trkpt lat="46.16972" lon="5.72677">
        <ele>537.4</ele>
        <time>2021-08-19T16:24:13Z</time>
      </trkpt>
      <trkpt lat="46.16968" lon="5.72677">
        <ele>537.5</ele>
        <time>2021-08-19T16:24:15Z</time>
      </trkpt>
      <trkpt lat="46.16968" lon="5.72677">
        <ele>537.5</ele>
        <time>2021-08-19T16:24:16Z</time>
      </trkpt>
      <trkpt lat="46.16971" lon="5.72674">
        <ele>537.6</ele>
        <time>2021-08-19T16:24:18Z</time>
      </trkpt>
      <trkpt lat="46.16972" lon="5.72674">
        <ele>537.7</ele>
        <time>2021-08-19T16:24:19Z</time>
      </trkpt>
      <trkpt lat="46.16973" lon="5.72674">
        <ele>537.7</ele>
        <time>2021-08-19T16:24:21Z</time>
      </trkpt>
      <trkpt lat="46.16972" lon="5.72674">
        <ele>537.7</ele>
        <time>2021-08-19T16:24:23Z</time>
      </trkpt>
      <trkpt lat="46.16972" lon="5.72675">
        <ele>537.7</ele>
        <time>2021-08-19T16:24:24Z</time>
      </trkpt>
      <trkpt lat="46.16972" lon="5.72678">
        <ele>537.8</ele>
        <time>2021-08-19T16:24:26Z</time>
      </trkpt>
      <trkpt lat="46.16987" lon="5.72713">
        <ele>538.9</ele>
        <time>2021-08-19T16:24:49Z</time>
      </trkpt>
      <trkpt lat="46.16988" lon="5.72719">
        <ele>539</ele>
        <time>2021-08-19T16:24:50Z</time>
      </trkpt>
      <trkpt lat="46.1699" lon="5.72725">
        <ele>539.2</ele>
        <time>2021-08-19T16:24:51Z</time>
      </trkpt>
      <trkpt lat="46.16993" lon="5.72735">
        <ele>539.5</ele>
        <time>2021-08-19T16:24:52Z</time>
      </trkpt>
      <trkpt lat="46.16997" lon="5.72745">
        <ele>539.8</ele>
        <time>2021-08-19T16:24:54Z</time>
      </trkpt>
      <trkpt lat="46.16999" lon="5.72751">
        <ele>539.9</ele>
        <time>2021-08-19T16:24:55Z</time>
      </trkpt>
      <trkpt lat="46.17002" lon="5.72758">
        <ele>540.1</ele>
        <time>2021-08-19T16:24:56Z</time>
      </trkpt>
      <trkpt lat="46.17004" lon="5.72764">
        <ele>540.3</ele>
        <time>2021-08-19T16:24:58Z</time>
      </trkpt>
      <trkpt lat="46.17006" lon="5.7277">
        <ele>540.5</ele>
        <time>2021-08-19T16:24:59Z</time>
      </trkpt>
      <trkpt lat="46.17006" lon="5.72772">
        <ele>540.5</ele>
        <time>2021-08-19T16:25:00Z</time>
      </trkpt>
      <trkpt lat="46.17008" lon="5.72777">
        <ele>540.7</ele>
        <time>2021-08-19T16:25:02Z</time>
      </trkpt>
      <trkpt lat="46.1701" lon="5.7278">
        <ele>540.9</ele>
        <time>2021-08-19T16:25:03Z</time>
      </trkpt>
      <trkpt lat="46.17012" lon="5.72785">
        <ele>541</ele>
        <time>2021-08-19T16:25:04Z</time>
      </trkpt>
      <trkpt lat="46.17014" lon="5.72791">
        <ele>541.2</ele>
        <time>2021-08-19T16:25:06Z</time>
      </trkpt>
      <trkpt lat="46.17014" lon="5.72793">
        <ele>541.3</ele>
        <time>2021-08-19T16:25:07Z</time>
      </trkpt>
      <trkpt lat="46.17015" lon="5.72796">
        <ele>541.4</ele>
        <time>2021-08-19T16:25:08Z</time>
      </trkpt>
      <trkpt lat="46.17015" lon="5.72799">
        <ele>541.5</ele>
        <time>2021-08-19T16:25:10Z</time>
      </trkpt>
      <trkpt lat="46.17016" lon="5.72801">
        <ele>541.5</ele>
        <time>2021-08-19T16:25:11Z</time>
      </trkpt>
      <trkpt lat="46.17017" lon="5.72805">
        <ele>541.7</ele>
        <time>2021-08-19T16:25:13Z</time>
      </trkpt>
      <trkpt lat="46.17016" lon="5.72806">
        <ele>541.7</ele>
        <time>2021-08-19T16:25:15Z</time>
      </trkpt>
      <trkpt lat="46.17016" lon="5.72808">
        <ele>541.8</ele>
        <time>2021-08-19T16:25:16Z</time>
      </trkpt>
      <trkpt lat="46.17015" lon="5.72809">
        <ele>541.8</ele>
        <time>2021-08-19T16:25:18Z</time>
      </trkpt>
      <trkpt lat="46.17015" lon="5.7281">
        <ele>541.9</ele>
        <time>2021-08-19T16:25:19Z</time>
      </trkpt>
      <trkpt lat="46.17015" lon="5.72817">
        <ele>542.1</ele>
        <time>2021-08-19T16:25:21Z</time>
      </trkpt>
      <trkpt lat="46.17015" lon="5.72819">
        <ele>542.1</ele>
        <time>2021-08-19T16:25:22Z</time>
      </trkpt>
      <trkpt lat="46.17016" lon="5.72821">
        <ele>542.2</ele>
        <time>2021-08-19T16:25:23Z</time>
      </trkpt>
      <trkpt lat="46.17017" lon="5.72823">
        <ele>542.5</ele>
        <time>2021-08-19T16:25:24Z</time>
      </trkpt>
      <trkpt lat="46.17018" lon="5.72825">
        <ele>542.5</ele>
        <time>2021-08-19T16:25:26Z</time>
      </trkpt>
      <trkpt lat="46.17018" lon="5.72824">
        <ele>542.6</ele>
        <time>2021-08-19T16:25:27Z</time>
      </trkpt>
      <trkpt lat="46.17018" lon="5.72824">
        <ele>542.6</ele>
        <time>2021-08-19T16:25:28Z</time>
      </trkpt>
      <trkpt lat="46.17018" lon="5.72824">
        <ele>542.7</ele>
        <time>2021-08-19T16:25:29Z</time>
      </trkpt>
      <trkpt lat="46.17018" lon="5.72824">
        <ele>542.7</ele>
        <time>2021-08-19T16:25:31Z</time>
      </trkpt>
      <trkpt lat="46.17019" lon="5.72824">
        <ele>542.7</ele>
        <time>2021-08-19T16:25:32Z</time>
      </trkpt>
      <trkpt lat="46.17019" lon="5.72825">
        <ele>542.7</ele>
        <time>2021-08-19T16:25:34Z</time>
      </trkpt>
      <trkpt lat="46.17037" lon="5.72868">
        <ele>545.1</ele>
        <time>2021-08-19T16:26:32Z</time>
      </trkpt>
      <trkpt lat="46.17036" lon="5.72872">
        <ele>545.2</ele>
        <time>2021-08-19T16:26:33Z</time>
      </trkpt>
      <trkpt lat="46.17035" lon="5.72874">
        <ele>545.4</ele>
        <time>2021-08-19T16:26:35Z</time>
      </trkpt>
      <trkpt lat="46.17035" lon="5.72876">
        <ele>545.5</ele>
        <time>2021-08-19T16:26:36Z</time>
      </trkpt>
      <trkpt lat="46.17034" lon="5.72878">
        <ele>545.5</ele>
        <time>2021-08-19T16:26:37Z</time>
      </trkpt>
      <trkpt lat="46.17034" lon="5.7288">
        <ele>545.7</ele>
        <time>2021-08-19T16:26:38Z</time>
      </trkpt>
      <trkpt lat="46.17034" lon="5.72882">
        <ele>545.7</ele>
        <time>2021-08-19T16:26:39Z</time>
      </trkpt>
      <trkpt lat="46.17034" lon="5.72883">
        <ele>545.8</ele>
        <time>2021-08-19T16:26:40Z</time>
      </trkpt>
      <trkpt lat="46.17035" lon="5.72884">
        <ele>545.9</ele>
        <time>2021-08-19T16:26:42Z</time>
      </trkpt>
      <trkpt lat="46.17035" lon="5.72886">
        <ele>545.9</ele>
        <time>2021-08-19T16:26:43Z</time>
      </trkpt>
      <trkpt lat="46.17035" lon="5.72887">
        <ele>546</ele>
        <time>2021-08-19T16:26:44Z</time>
      </trkpt>
      <trkpt lat="46.17036" lon="5.72892">
        <ele>546.2</ele>
        <time>2021-08-19T16:26:46Z</time>
      </trkpt>
      <trkpt lat="46.17037" lon="5.72894">
        <ele>546.3</ele>
        <time>2021-08-19T16:26:47Z</time>
      </trkpt>
      <trkpt lat="46.17037" lon="5.72895">
        <ele>546.3</ele>
        <time>2021-08-19T16:26:48Z</time>
      </trkpt>
      <trkpt lat="46.17037" lon="5.72897">
        <ele>546.4</ele>
        <time>2021-08-19T16:26:50Z</time>
      </trkpt>
      <trkpt lat="46.17037" lon="5.72898">
        <ele>546.5</ele>
        <time>2021-08-19T16:26:51Z</time>
      </trkpt>
      <trkpt lat="46.17037" lon="5.729">
        <ele>546.6</ele>
        <time>2021-08-19T16:26:53Z</time>
      </trkpt>
      <trkpt lat="46.17038" lon="5.72902">
        <ele>546.6</ele>
        <time>2021-08-19T16:26:54Z</time>
      </trkpt>
      <trkpt lat="46.17039" lon="5.72903">
        <ele>546.7</ele>
        <time>2021-08-19T16:26:56Z</time>
      </trkpt>
      <trkpt lat="46.17039" lon="5.72904">
        <ele>546.8</ele>
        <time>2021-08-19T16:26:57Z</time>
      </trkpt>
      <trkpt lat="46.1704" lon="5.72906">
        <ele>546.8</ele>
        <time>2021-08-19T16:26:58Z</time>
      </trkpt>
      <trkpt lat="46.1704" lon="5.72906">
        <ele>546.9</ele>
        <time>2021-08-19T16:27:00Z</time>
      </trkpt>
      <trkpt lat="46.1704" lon="5.72907">
        <ele>546.9</ele>
        <time>2021-08-19T16:27:01Z</time>
      </trkpt>
      <trkpt lat="46.1704" lon="5.72907">
        <ele>546.9</ele>
        <time>2021-08-19T16:27:02Z</time>
      </trkpt>
      <trkpt lat="46.17041" lon="5.72909">
        <ele>547</ele>
        <time>2021-08-19T16:27:03Z</time>
      </trkpt>
      <trkpt lat="46.17042" lon="5.72911">
        <ele>547.1</ele>
        <time>2021-08-19T16:27:05Z</time>
      </trkpt>
      <trkpt lat="46.17043" lon="5.72913">
        <ele>547.2</ele>
        <time>2021-08-19T16:27:06Z</time>
      </trkpt>
      <trkpt lat="46.17044" lon="5.72914">
        <ele>547.3</ele>
        <time>2021-08-19T16:27:07Z</time>
      </trkpt>
      <trkpt lat="46.17045" lon="5.72917">
        <ele>547.5</ele>
        <time>2021-08-19T16:27:08Z</time>
      </trkpt>
      <trkpt lat="46.17046" lon="5.72919">
        <ele>547.6</ele>
        <time>2021-08-19T16:27:09Z</time>
      </trkpt>
      <trkpt lat="46.17047" lon="5.72921">
        <ele>547.7</ele>
        <time>2021-08-19T16:27:10Z</time>
      </trkpt>
      <trkpt lat="46.17048" lon="5.72923">
        <ele>547.8</ele>
        <time>2021-08-19T16:27:12Z</time>
      </trkpt>
      <trkpt lat="46.17048" lon="5.72925">
        <ele>547.9</ele>
        <time>2021-08-19T16:27:13Z</time>
      </trkpt>
      <trkpt lat="46.17049" lon="5.72929">
        <ele>548</ele>
        <time>2021-08-19T16:27:14Z</time>
      </trkpt>
      <trkpt lat="46.17049" lon="5.7293">
        <ele>548.1</ele>
        <time>2021-08-19T16:27:15Z</time>
      </trkpt>
      <trkpt lat="46.17049" lon="5.72933">
        <ele>548.2</ele>
        <time>2021-08-19T16:27:16Z</time>
      </trkpt>
      <trkpt lat="46.17048" lon="5.72935">
        <ele>548.3</ele>
        <time>2021-08-19T16:27:17Z</time>
      </trkpt>
      <trkpt lat="46.17048" lon="5.72937">
        <ele>548.4</ele>
        <time>2021-08-19T16:27:18Z</time>
      </trkpt>
      <trkpt lat="46.17048" lon="5.72939">
        <ele>548.5</ele>
        <time>2021-08-19T16:27:19Z</time>
      </trkpt>
      <trkpt lat="46.17048" lon="5.7294">
        <ele>548.5</ele>
        <time>2021-08-19T16:27:20Z</time>
      </trkpt>
      <trkpt lat="46.1705" lon="5.72944">
        <ele>548.7</ele>
        <time>2021-08-19T16:27:22Z</time>
      </trkpt>
      <trkpt lat="46.1705" lon="5.72945">
        <ele>548.8</ele>
        <time>2021-08-19T16:27:23Z</time>
      </trkpt>
      <trkpt lat="46.17051" lon="5.72948">
        <ele>548.9</ele>
        <time>2021-08-19T16:27:25Z</time>
      </trkpt>
      <trkpt lat="46.17051" lon="5.72949">
        <ele>549</ele>
        <time>2021-08-19T16:27:26Z</time>
      </trkpt>
      <trkpt lat="46.17053" lon="5.72953">
        <ele>549.2</ele>
        <time>2021-08-19T16:27:27Z</time>
      </trkpt>
      <trkpt lat="46.17053" lon="5.72954">
        <ele>549.2</ele>
        <time>2021-08-19T16:27:28Z</time>
      </trkpt>
      <trkpt lat="46.17055" lon="5.72956">
        <ele>549.4</ele>
        <time>2021-08-19T16:27:29Z</time>
      </trkpt>
      <trkpt lat="46.17056" lon="5.72958">
        <ele>549.5</ele>
        <time>2021-08-19T16:27:31Z</time>
      </trkpt>
      <trkpt lat="46.17059" lon="5.7296">
        <ele>549.7</ele>
        <time>2021-08-19T16:27:33Z</time>
      </trkpt>
      <trkpt lat="46.17061" lon="5.72963">
        <ele>549.9</ele>
        <time>2021-08-19T16:27:35Z</time>
      </trkpt>
      <trkpt lat="46.17063" lon="5.72966">
        <ele>550</ele>
        <time>2021-08-19T16:27:36Z</time>
      </trkpt>
      <trkpt lat="46.17064" lon="5.72966">
        <ele>550.1</ele>
        <time>2021-08-19T16:27:37Z</time>
      </trkpt>
      <trkpt lat="46.17065" lon="5.72968">
        <ele>550.2</ele>
        <time>2021-08-19T16:27:39Z</time>
      </trkpt>
      <trkpt lat="46.17066" lon="5.72968">
        <ele>550.3</ele>
        <time>2021-08-19T16:27:40Z</time>
      </trkpt>
      <trkpt lat="46.17066" lon="5.72969">
        <ele>550.3</ele>
        <time>2021-08-19T16:27:42Z</time>
      </trkpt>
      <trkpt lat="46.17067" lon="5.7297">
        <ele>550.3</ele>
        <time>2021-08-19T16:27:43Z</time>
      </trkpt>
      <trkpt lat="46.17067" lon="5.7297">
        <ele>550.4</ele>
        <time>2021-08-19T16:27:44Z</time>
      </trkpt>
      <trkpt lat="46.17069" lon="5.72971">
        <ele>550.5</ele>
        <time>2021-08-19T16:27:45Z</time>
      </trkpt>
      <trkpt lat="46.17073" lon="5.7298">
        <ele>551</ele>
        <time>2021-08-19T16:27:51Z</time>
      </trkpt>
      <trkpt lat="46.17075" lon="5.72986">
        <ele>551.3</ele>
        <time>2021-08-19T16:27:53Z</time>
      </trkpt>
      <trkpt lat="46.17076" lon="5.72989">
        <ele>551.5</ele>
        <time>2021-08-19T16:27:54Z</time>
      </trkpt>
      <trkpt lat="46.17078" lon="5.72995">
        <ele>551.8</ele>
        <time>2021-08-19T16:27:56Z</time>
      </trkpt>
      <trkpt lat="46.17078" lon="5.73001">
        <ele>552.1</ele>
        <time>2021-08-19T16:27:58Z</time>
      </trkpt>
      <trkpt lat="46.17079" lon="5.73003">
        <ele>552.2</ele>
        <time>2021-08-19T16:27:59Z</time>
      </trkpt>
      <trkpt lat="46.17079" lon="5.73005">
        <ele>552.3</ele>
        <time>2021-08-19T16:28:00Z</time>
      </trkpt>
      <trkpt lat="46.1708" lon="5.73006">
        <ele>552.4</ele>
        <time>2021-08-19T16:28:01Z</time>
      </trkpt>
      <trkpt lat="46.1708" lon="5.73007">
        <ele>552.4</ele>
        <time>2021-08-19T16:28:03Z</time>
      </trkpt>
      <trkpt lat="46.17079" lon="5.73008">
        <ele>552.5</ele>
        <time>2021-08-19T16:28:04Z</time>
      </trkpt>
      <trkpt lat="46.17078" lon="5.73009">
        <ele>552.6</ele>
        <time>2021-08-19T16:28:05Z</time>
      </trkpt>
      <trkpt lat="46.17078" lon="5.7301">
        <ele>552.6</ele>
        <time>2021-08-19T16:28:06Z</time>
      </trkpt>
      <trkpt lat="46.17078" lon="5.7301">
        <ele>552.7</ele>
        <time>2021-08-19T16:28:07Z</time>
      </trkpt>
      <trkpt lat="46.17078" lon="5.73011">
        <ele>552.7</ele>
        <time>2021-08-19T16:28:09Z</time>
      </trkpt>
      <trkpt lat="46.17078" lon="5.73013">
        <ele>552.8</ele>
        <time>2021-08-19T16:28:10Z</time>
      </trkpt>
      <trkpt lat="46.17078" lon="5.73014">
        <ele>552.9</ele>
        <time>2021-08-19T16:28:12Z</time>
      </trkpt>
      <trkpt lat="46.17081" lon="5.73033">
        <ele>553.8</ele>
        <time>2021-08-19T16:28:20Z</time>
      </trkpt>
      <trkpt lat="46.17083" lon="5.73037">
        <ele>554</ele>
        <time>2021-08-19T16:28:22Z</time>
      </trkpt>
      <trkpt lat="46.17086" lon="5.73039">
        <ele>554.2</ele>
        <time>2021-08-19T16:28:23Z</time>
      </trkpt>
      <trkpt lat="46.17087" lon="5.7304">
        <ele>554.3</ele>
        <time>2021-08-19T16:28:24Z</time>
      </trkpt>
      <trkpt lat="46.17089" lon="5.73042">
        <ele>554.6</ele>
        <time>2021-08-19T16:28:25Z</time>
      </trkpt>
      <trkpt lat="46.17094" lon="5.73043">
        <ele>554.8</ele>
        <time>2021-08-19T16:28:27Z</time>
      </trkpt>
      <trkpt lat="46.17095" lon="5.73043">
        <ele>555</ele>
        <time>2021-08-19T16:28:28Z</time>
      </trkpt>
      <trkpt lat="46.17097" lon="5.73042">
        <ele>555.1</ele>
        <time>2021-08-19T16:28:29Z</time>
      </trkpt>
      <trkpt lat="46.17099" lon="5.73043">
        <ele>555.2</ele>
        <time>2021-08-19T16:28:30Z</time>
      </trkpt>
      <trkpt lat="46.171" lon="5.73044">
        <ele>555.3</ele>
        <time>2021-08-19T16:28:31Z</time>
      </trkpt>
      <trkpt lat="46.17102" lon="5.73045">
        <ele>555.4</ele>
        <time>2021-08-19T16:28:32Z</time>
      </trkpt>
      <trkpt lat="46.17103" lon="5.73046">
        <ele>555.5</ele>
        <time>2021-08-19T16:28:33Z</time>
      </trkpt>
      <trkpt lat="46.17106" lon="5.73047">
        <ele>555.7</ele>
        <time>2021-08-19T16:28:35Z</time>
      </trkpt>
      <trkpt lat="46.17108" lon="5.73048">
        <ele>555.8</ele>
        <time>2021-08-19T16:28:36Z</time>
      </trkpt>
      <trkpt lat="46.17109" lon="5.73048">
        <ele>555.9</ele>
        <time>2021-08-19T16:28:37Z</time>
      </trkpt>
      <trkpt lat="46.1711" lon="5.73049">
        <ele>556</ele>
        <time>2021-08-19T16:28:38Z</time>
      </trkpt>
      <trkpt lat="46.1711" lon="5.73049">
        <ele>556</ele>
        <time>2021-08-19T16:28:39Z</time>
      </trkpt>
      <trkpt lat="46.17111" lon="5.73049">
        <ele>556</ele>
        <time>2021-08-19T16:28:40Z</time>
      </trkpt>
      <trkpt lat="46.17112" lon="5.73049">
        <ele>556.1</ele>
        <time>2021-08-19T16:28:42Z</time>
      </trkpt>
      <trkpt lat="46.17112" lon="5.73049">
        <ele>556.1</ele>
        <time>2021-08-19T16:28:43Z</time>
      </trkpt>
      <trkpt lat="46.17113" lon="5.7305">
        <ele>556.2</ele>
        <time>2021-08-19T16:28:44Z</time>
      </trkpt>
      <trkpt lat="46.17114" lon="5.73049">
        <ele>556.3</ele>
        <time>2021-08-19T16:28:45Z</time>
      </trkpt>
      <trkpt lat="46.17116" lon="5.73049">
        <ele>556.4</ele>
        <time>2021-08-19T16:28:47Z</time>
      </trkpt>
      <trkpt lat="46.17118" lon="5.7305">
        <ele>556.5</ele>
        <time>2021-08-19T16:28:48Z</time>
      </trkpt>
      <trkpt lat="46.17119" lon="5.73052">
        <ele>556.6</ele>
        <time>2021-08-19T16:28:49Z</time>
      </trkpt>
      <trkpt lat="46.17119" lon="5.73054">
        <ele>556.7</ele>
        <time>2021-08-19T16:28:50Z</time>
      </trkpt>
      <trkpt lat="46.1712" lon="5.73056">
        <ele>556.8</ele>
        <time>2021-08-19T16:28:52Z</time>
      </trkpt>
      <trkpt lat="46.17119" lon="5.7306">
        <ele>557</ele>
        <time>2021-08-19T16:28:53Z</time>
      </trkpt>
      <trkpt lat="46.1712" lon="5.7306">
        <ele>557</ele>
        <time>2021-08-19T16:28:55Z</time>
      </trkpt>
      <trkpt lat="46.1712" lon="5.7306">
        <ele>557.1</ele>
        <time>2021-08-19T16:28:56Z</time>
      </trkpt>
      <trkpt lat="46.17121" lon="5.73061">
        <ele>557.2</ele>
        <time>2021-08-19T16:28:57Z</time>
      </trkpt>
      <trkpt lat="46.17122" lon="5.73062">
        <ele>557.3</ele>
        <time>2021-08-19T16:28:58Z</time>
      </trkpt>
      <trkpt lat="46.17123" lon="5.73065">
        <ele>557.4</ele>
        <time>2021-08-19T16:29:00Z</time>
      </trkpt>
      <trkpt lat="46.17124" lon="5.73066">
        <ele>557.5</ele>
        <time>2021-08-19T16:29:01Z</time>
      </trkpt>
      <trkpt lat="46.17124" lon="5.73067">
        <ele>557.6</ele>
        <time>2021-08-19T16:29:02Z</time>
      </trkpt>
      <trkpt lat="46.17124" lon="5.73069">
        <ele>557.7</ele>
        <time>2021-08-19T16:29:03Z</time>
      </trkpt>
      <trkpt lat="46.17125" lon="5.73071">
        <ele>557.8</ele>
        <time>2021-08-19T16:29:05Z</time>
      </trkpt>
      <trkpt lat="46.17127" lon="5.73077">
        <ele>558.1</ele>
        <time>2021-08-19T16:29:07Z</time>
      </trkpt>
      <trkpt lat="46.17127" lon="5.73077">
        <ele>558.1</ele>
        <time>2021-08-19T16:29:07Z</time>
      </trkpt>
      <trkpt lat="46.17127" lon="5.73083">
        <ele>558.3</ele>
        <time>2021-08-19T16:29:08Z</time>
      </trkpt>
      <trkpt lat="46.17127" lon="5.73085">
        <ele>558.4</ele>
        <time>2021-08-19T16:29:09Z</time>
      </trkpt>
      <trkpt lat="46.17127" lon="5.73089">
        <ele>558.6</ele>
        <time>2021-08-19T16:29:10Z</time>
      </trkpt>
      <trkpt lat="46.17127" lon="5.73093">
        <ele>558.8</ele>
        <time>2021-08-19T16:29:12Z</time>
      </trkpt>
      <trkpt lat="46.17127" lon="5.73099">
        <ele>559</ele>
        <time>2021-08-19T16:29:13Z</time>
      </trkpt>
      <trkpt lat="46.17126" lon="5.73103">
        <ele>559.2</ele>
        <time>2021-08-19T16:29:14Z</time>
      </trkpt>
      <trkpt lat="46.17126" lon="5.73104">
        <ele>559.3</ele>
        <time>2021-08-19T16:29:15Z</time>
      </trkpt>
      <trkpt lat="46.17126" lon="5.73107">
        <ele>559.4</ele>
        <time>2021-08-19T16:29:17Z</time>
      </trkpt>
      <trkpt lat="46.17126" lon="5.73111">
        <ele>559.6</ele>
        <time>2021-08-19T16:29:19Z</time>
      </trkpt>
      <trkpt lat="46.17126" lon="5.73112">
        <ele>559.6</ele>
        <time>2021-08-19T16:29:20Z</time>
      </trkpt>
      <trkpt lat="46.17125" lon="5.73112">
        <ele>559.7</ele>
        <time>2021-08-19T16:29:22Z</time>
      </trkpt>
      <trkpt lat="46.17125" lon="5.73113">
        <ele>559.7</ele>
        <time>2021-08-19T16:29:23Z</time>
      </trkpt>
      <trkpt lat="46.17126" lon="5.73115">
        <ele>559.8</ele>
        <time>2021-08-19T16:29:25Z</time>
      </trkpt>
      <trkpt lat="46.17127" lon="5.73115">
        <ele>559.9</ele>
        <time>2021-08-19T16:29:26Z</time>
      </trkpt>
      <trkpt lat="46.1713" lon="5.73118">
        <ele>560.1</ele>
        <time>2021-08-19T16:29:27Z</time>
      </trkpt>
      <trkpt lat="46.1713" lon="5.73119">
        <ele>560.2</ele>
        <time>2021-08-19T16:29:29Z</time>
      </trkpt>
      <trkpt lat="46.17131" lon="5.73121">
        <ele>560.3</ele>
        <time>2021-08-19T16:29:31Z</time>
      </trkpt>
      <trkpt lat="46.17132" lon="5.73122">
        <ele>560.4</ele>
        <time>2021-08-19T16:29:32Z</time>
      </trkpt>
      <trkpt lat="46.17135" lon="5.73126">
        <ele>560.6</ele>
        <time>2021-08-19T16:29:33Z</time>
      </trkpt>
      <trkpt lat="46.17136" lon="5.73127">
        <ele>560.7</ele>
        <time>2021-08-19T16:29:34Z</time>
      </trkpt>
      <trkpt lat="46.17138" lon="5.73129">
        <ele>560.9</ele>
        <time>2021-08-19T16:29:35Z</time>
      </trkpt>
      <trkpt lat="46.1714" lon="5.73133">
        <ele>561.1</ele>
        <time>2021-08-19T16:29:37Z</time>
      </trkpt>
      <trkpt lat="46.17144" lon="5.73137">
        <ele>561.4</ele>
        <time>2021-08-19T16:29:38Z</time>
      </trkpt>
      <trkpt lat="46.17146" lon="5.73143">
        <ele>561.8</ele>
        <time>2021-08-19T16:29:39Z</time>
      </trkpt>
      <trkpt lat="46.17147" lon="5.73146">
        <ele>562</ele>
        <time>2021-08-19T16:29:40Z</time>
      </trkpt>
      <trkpt lat="46.1715" lon="5.73147">
        <ele>562.2</ele>
        <time>2021-08-19T16:29:42Z</time>
      </trkpt>
      <trkpt lat="46.17154" lon="5.73147">
        <ele>562.6</ele>
        <time>2021-08-19T16:29:44Z</time>
      </trkpt>
      <trkpt lat="46.17155" lon="5.73147">
        <ele>562.7</ele>
        <time>2021-08-19T16:29:45Z</time>
      </trkpt>
      <trkpt lat="46.17155" lon="5.73148">
        <ele>562.7</ele>
        <time>2021-08-19T16:29:46Z</time>
      </trkpt>
      <trkpt lat="46.17154" lon="5.73149">
        <ele>562.8</ele>
        <time>2021-08-19T16:29:47Z</time>
      </trkpt>
      <trkpt lat="46.17154" lon="5.73151">
        <ele>562.9</ele>
        <time>2021-08-19T16:29:48Z</time>
      </trkpt>
      <trkpt lat="46.17156" lon="5.73154">
        <ele>563.2</ele>
        <time>2021-08-19T16:29:50Z</time>
      </trkpt>
      <trkpt lat="46.17156" lon="5.73155">
        <ele>563.3</ele>
        <time>2021-08-19T16:29:51Z</time>
      </trkpt>
      <trkpt lat="46.17156" lon="5.73158">
        <ele>563.4</ele>
        <time>2021-08-19T16:29:52Z</time>
      </trkpt>
      <trkpt lat="46.17156" lon="5.7316">
        <ele>563.6</ele>
        <time>2021-08-19T16:29:53Z</time>
      </trkpt>
      <trkpt lat="46.17157" lon="5.73164">
        <ele>563.8</ele>
        <time>2021-08-19T16:29:55Z</time>
      </trkpt>
      <trkpt lat="46.17158" lon="5.73166">
        <ele>564</ele>
        <time>2021-08-19T16:29:56Z</time>
      </trkpt>
      <trkpt lat="46.17159" lon="5.73168">
        <ele>564.1</ele>
        <time>2021-08-19T16:29:57Z</time>
      </trkpt>
      <trkpt lat="46.17159" lon="5.7317">
        <ele>564.3</ele>
        <time>2021-08-19T16:29:59Z</time>
      </trkpt>
      <trkpt lat="46.17159" lon="5.73172">
        <ele>564.4</ele>
        <time>2021-08-19T16:30:00Z</time>
      </trkpt>
      <trkpt lat="46.1716" lon="5.73174">
        <ele>564.5</ele>
        <time>2021-08-19T16:30:01Z</time>
      </trkpt>
      <trkpt lat="46.1716" lon="5.73175">
        <ele>564.5</ele>
        <time>2021-08-19T16:30:02Z</time>
      </trkpt>
      <trkpt lat="46.1716" lon="5.73176">
        <ele>564.6</ele>
        <time>2021-08-19T16:30:03Z</time>
      </trkpt>
      <trkpt lat="46.17159" lon="5.73176">
        <ele>564.6</ele>
        <time>2021-08-19T16:30:04Z</time>
      </trkpt>
      <trkpt lat="46.17159" lon="5.73178">
        <ele>564.8</ele>
        <time>2021-08-19T16:30:06Z</time>
      </trkpt>
      <trkpt lat="46.17159" lon="5.73179">
        <ele>564.9</ele>
        <time>2021-08-19T16:30:07Z</time>
      </trkpt>
      <trkpt lat="46.17157" lon="5.7318">
        <ele>565</ele>
        <time>2021-08-19T16:30:08Z</time>
      </trkpt>
      <trkpt lat="46.17157" lon="5.7318">
        <ele>565</ele>
        <time>2021-08-19T16:30:10Z</time>
      </trkpt>
      <trkpt lat="46.17157" lon="5.7318">
        <ele>565</ele>
        <time>2021-08-19T16:30:11Z</time>
      </trkpt>
      <trkpt lat="46.17156" lon="5.7318">
        <ele>565.1</ele>
        <time>2021-08-19T16:30:12Z</time>
      </trkpt>
      <trkpt lat="46.17156" lon="5.7318">
        <ele>565.1</ele>
        <time>2021-08-19T16:30:13Z</time>
      </trkpt>
      <trkpt lat="46.17156" lon="5.73182">
        <ele>565.2</ele>
        <time>2021-08-19T16:30:14Z</time>
      </trkpt>
      <trkpt lat="46.17157" lon="5.73183">
        <ele>565.3</ele>
        <time>2021-08-19T16:30:16Z</time>
      </trkpt>
      <trkpt lat="46.17157" lon="5.73185">
        <ele>565.3</ele>
        <time>2021-08-19T16:30:17Z</time>
      </trkpt>
      <trkpt lat="46.17158" lon="5.73187">
        <ele>565.5</ele>
        <time>2021-08-19T16:30:18Z</time>
      </trkpt>
      <trkpt lat="46.17158" lon="5.73189">
        <ele>565.6</ele>
        <time>2021-08-19T16:30:19Z</time>
      </trkpt>
      <trkpt lat="46.17158" lon="5.7319">
        <ele>565.7</ele>
        <time>2021-08-19T16:30:20Z</time>
      </trkpt>
      <trkpt lat="46.17159" lon="5.73191">
        <ele>565.7</ele>
        <time>2021-08-19T16:30:21Z</time>
      </trkpt>
      <trkpt lat="46.17159" lon="5.73193">
        <ele>565.8</ele>
        <time>2021-08-19T16:30:22Z</time>
      </trkpt>
      <trkpt lat="46.17162" lon="5.732">
        <ele>566.2</ele>
        <time>2021-08-19T16:30:25Z</time>
      </trkpt>
      <trkpt lat="46.17165" lon="5.73208">
        <ele>566.7</ele>
        <time>2021-08-19T16:30:27Z</time>
      </trkpt>
      <trkpt lat="46.17168" lon="5.73213">
        <ele>567</ele>
        <time>2021-08-19T16:30:29Z</time>
      </trkpt>
      <trkpt lat="46.1717" lon="5.73215">
        <ele>567.1</ele>
        <time>2021-08-19T16:30:30Z</time>
      </trkpt>
      <trkpt lat="46.17171" lon="5.73216">
        <ele>567.3</ele>
        <time>2021-08-19T16:30:31Z</time>
      </trkpt>
      <trkpt lat="46.17174" lon="5.73221">
        <ele>567.6</ele>
        <time>2021-08-19T16:30:33Z</time>
      </trkpt>
      <trkpt lat="46.17178" lon="5.73224">
        <ele>567.9</ele>
        <time>2021-08-19T16:30:35Z</time>
      </trkpt>
      <trkpt lat="46.17179" lon="5.73227">
        <ele>568</ele>
        <time>2021-08-19T16:30:36Z</time>
      </trkpt>
      <trkpt lat="46.1718" lon="5.7323">
        <ele>568.2</ele>
        <time>2021-08-19T16:30:38Z</time>
      </trkpt>
      <trkpt lat="46.17182" lon="5.73234">
        <ele>568.4</ele>
        <time>2021-08-19T16:30:39Z</time>
      </trkpt>
      <trkpt lat="46.17183" lon="5.73235">
        <ele>568.5</ele>
        <time>2021-08-19T16:30:40Z</time>
      </trkpt>
      <trkpt lat="46.17185" lon="5.73238">
        <ele>568.7</ele>
        <time>2021-08-19T16:30:41Z</time>
      </trkpt>
      <trkpt lat="46.17186" lon="5.73239">
        <ele>568.8</ele>
        <time>2021-08-19T16:30:42Z</time>
      </trkpt>
      <trkpt lat="46.17188" lon="5.73241">
        <ele>568.9</ele>
        <time>2021-08-19T16:30:44Z</time>
      </trkpt>
      <trkpt lat="46.17189" lon="5.73242">
        <ele>569</ele>
        <time>2021-08-19T16:30:45Z</time>
      </trkpt>
      <trkpt lat="46.17191" lon="5.73245">
        <ele>569.2</ele>
        <time>2021-08-19T16:30:46Z</time>
      </trkpt>
      <trkpt lat="46.17192" lon="5.73246">
        <ele>569.3</ele>
        <time>2021-08-19T16:30:47Z</time>
      </trkpt>
      <trkpt lat="46.17195" lon="5.73246">
        <ele>569.5</ele>
        <time>2021-08-19T16:30:48Z</time>
      </trkpt>
      <trkpt lat="46.17198" lon="5.73248">
        <ele>569.7</ele>
        <time>2021-08-19T16:30:50Z</time>
      </trkpt>
      <trkpt lat="46.17203" lon="5.73249">
        <ele>570.1</ele>
        <time>2021-08-19T16:30:51Z</time>
      </trkpt>
      <trkpt lat="46.17207" lon="5.7325">
        <ele>570.3</ele>
        <time>2021-08-19T16:30:52Z</time>
      </trkpt>
      <trkpt lat="46.1721" lon="5.73251">
        <ele>570.6</ele>
        <time>2021-08-19T16:30:53Z</time>
      </trkpt>
      <trkpt lat="46.17213" lon="5.73252">
        <ele>570.8</ele>
        <time>2021-08-19T16:30:54Z</time>
      </trkpt>
      <trkpt lat="46.17217" lon="5.73252">
        <ele>571.1</ele>
        <time>2021-08-19T16:30:55Z</time>
      </trkpt>
      <trkpt lat="46.17221" lon="5.73253">
        <ele>571.4</ele>
        <time>2021-08-19T16:30:57Z</time>
      </trkpt>
      <trkpt lat="46.17221" lon="5.73254">
        <ele>571.4</ele>
        <time>2021-08-19T16:30:58Z</time>
      </trkpt>
      <trkpt lat="46.17221" lon="5.73254">
        <ele>571.4</ele>
        <time>2021-08-19T16:30:59Z</time>
      </trkpt>
      <trkpt lat="46.17221" lon="5.73256">
        <ele>571.5</ele>
        <time>2021-08-19T16:31:01Z</time>
      </trkpt>
      <trkpt lat="46.17222" lon="5.73261">
        <ele>571.8</ele>
        <time>2021-08-19T16:31:03Z</time>
      </trkpt>
      <trkpt lat="46.17222" lon="5.73264">
        <ele>571.9</ele>
        <time>2021-08-19T16:31:04Z</time>
      </trkpt>
      <trkpt lat="46.17223" lon="5.73266">
        <ele>572</ele>
        <time>2021-08-19T16:31:06Z</time>
      </trkpt>
      <trkpt lat="46.17223" lon="5.73269">
        <ele>572.1</ele>
        <time>2021-08-19T16:31:07Z</time>
      </trkpt>
      <trkpt lat="46.17223" lon="5.7327">
        <ele>572.2</ele>
        <time>2021-08-19T16:31:08Z</time>
      </trkpt>
      <trkpt lat="46.17223" lon="5.73271">
        <ele>572.2</ele>
        <time>2021-08-19T16:31:09Z</time>
      </trkpt>
      <trkpt lat="46.17223" lon="5.73272">
        <ele>572.3</ele>
        <time>2021-08-19T16:31:10Z</time>
      </trkpt>
      <trkpt lat="46.17226" lon="5.73278">
        <ele>572.6</ele>
        <time>2021-08-19T16:31:12Z</time>
      </trkpt>
      <trkpt lat="46.17226" lon="5.73281">
        <ele>572.8</ele>
        <time>2021-08-19T16:31:13Z</time>
      </trkpt>
      <trkpt lat="46.17228" lon="5.73287">
        <ele>573.1</ele>
        <time>2021-08-19T16:31:14Z</time>
      </trkpt>
      <trkpt lat="46.17228" lon="5.73289">
        <ele>573.2</ele>
        <time>2021-08-19T16:31:15Z</time>
      </trkpt>
      <trkpt lat="46.1723" lon="5.73295">
        <ele>573.5</ele>
        <time>2021-08-19T16:31:17Z</time>
      </trkpt>
      <trkpt lat="46.1723" lon="5.733">
        <ele>573.8</ele>
        <time>2021-08-19T16:31:18Z</time>
      </trkpt>
      <trkpt lat="46.1723" lon="5.73302">
        <ele>573.8</ele>
        <time>2021-08-19T16:31:19Z</time>
      </trkpt>
      <trkpt lat="46.17231" lon="5.73306">
        <ele>574.1</ele>
        <time>2021-08-19T16:31:21Z</time>
      </trkpt>
      <trkpt lat="46.17232" lon="5.73308">
        <ele>574.2</ele>
        <time>2021-08-19T16:31:22Z</time>
      </trkpt>
      <trkpt lat="46.17231" lon="5.73308">
        <ele>574.2</ele>
        <time>2021-08-19T16:31:23Z</time>
      </trkpt>
      <trkpt lat="46.17231" lon="5.73309">
        <ele>574.2</ele>
        <time>2021-08-19T16:31:24Z</time>
      </trkpt>
      <trkpt lat="46.17231" lon="5.7331">
        <ele>574.3</ele>
        <time>2021-08-19T16:31:25Z</time>
      </trkpt>
      <trkpt lat="46.17231" lon="5.73317">
        <ele>574.6</ele>
        <time>2021-08-19T16:31:27Z</time>
      </trkpt>
      <trkpt lat="46.17231" lon="5.73318">
        <ele>574.7</ele>
        <time>2021-08-19T16:31:28Z</time>
      </trkpt>
      <trkpt lat="46.17232" lon="5.7332">
        <ele>574.8</ele>
        <time>2021-08-19T16:31:29Z</time>
      </trkpt>
      <trkpt lat="46.17232" lon="5.73322">
        <ele>574.9</ele>
        <time>2021-08-19T16:31:31Z</time>
      </trkpt>
      <trkpt lat="46.17233" lon="5.73325">
        <ele>575.1</ele>
        <time>2021-08-19T16:31:32Z</time>
      </trkpt>
      <trkpt lat="46.17234" lon="5.73326">
        <ele>575.2</ele>
        <time>2021-08-19T16:31:33Z</time>
      </trkpt>
      <trkpt lat="46.17234" lon="5.73328">
        <ele>575.2</ele>
        <time>2021-08-19T16:31:35Z</time>
      </trkpt>
      <trkpt lat="46.17342" lon="5.7357">
        <ele>588.6</ele>
        <time>2021-08-19T16:33:52Z</time>
      </trkpt>
      <trkpt lat="46.17344" lon="5.73572">
        <ele>588.7</ele>
        <time>2021-08-19T16:33:53Z</time>
      </trkpt>
      <trkpt lat="46.17348" lon="5.73574">
        <ele>588.9</ele>
        <time>2021-08-19T16:33:55Z</time>
      </trkpt>
      <trkpt lat="46.17349" lon="5.73576">
        <ele>589</ele>
        <time>2021-08-19T16:33:56Z</time>
      </trkpt>
      <trkpt lat="46.1735" lon="5.73577">
        <ele>589.2</ele>
        <time>2021-08-19T16:33:58Z</time>
      </trkpt>
      <trkpt lat="46.17352" lon="5.73581">
        <ele>589.3</ele>
        <time>2021-08-19T16:33:59Z</time>
      </trkpt>
      <trkpt lat="46.17352" lon="5.73582">
        <ele>589.4</ele>
        <time>2021-08-19T16:34:00Z</time>
      </trkpt>
      <trkpt lat="46.17355" lon="5.73588">
        <ele>589.7</ele>
        <time>2021-08-19T16:34:01Z</time>
      </trkpt>
      <trkpt lat="46.17357" lon="5.7359">
        <ele>589.9</ele>
        <time>2021-08-19T16:34:03Z</time>
      </trkpt>
      <trkpt lat="46.17359" lon="5.73593">
        <ele>590</ele>
        <time>2021-08-19T16:34:04Z</time>
      </trkpt>
      <trkpt lat="46.1736" lon="5.73595">
        <ele>590.1</ele>
        <time>2021-08-19T16:34:05Z</time>
      </trkpt>
      <trkpt lat="46.17362" lon="5.73597">
        <ele>590.3</ele>
        <time>2021-08-19T16:34:07Z</time>
      </trkpt>
      <trkpt lat="46.17363" lon="5.73599">
        <ele>590.4</ele>
        <time>2021-08-19T16:34:09Z</time>
      </trkpt>
      <trkpt lat="46.17364" lon="5.736">
        <ele>590.5</ele>
        <time>2021-08-19T16:34:10Z</time>
      </trkpt>
      <trkpt lat="46.17364" lon="5.73601">
        <ele>590.5</ele>
        <time>2021-08-19T16:34:11Z</time>
      </trkpt>
      <trkpt lat="46.17365" lon="5.73604">
        <ele>590.7</ele>
        <time>2021-08-19T16:34:12Z</time>
      </trkpt>
      <trkpt lat="46.17368" lon="5.73606">
        <ele>590.9</ele>
        <time>2021-08-19T16:34:13Z</time>
      </trkpt>
      <trkpt lat="46.17369" lon="5.73608">
        <ele>591</ele>
        <time>2021-08-19T16:34:14Z</time>
      </trkpt>
      <trkpt lat="46.17371" lon="5.73611">
        <ele>591.2</ele>
        <time>2021-08-19T16:34:15Z</time>
      </trkpt>
      <trkpt lat="46.17374" lon="5.73613">
        <ele>591.4</ele>
        <time>2021-08-19T16:34:17Z</time>
      </trkpt>
      <trkpt lat="46.17376" lon="5.73617">
        <ele>591.7</ele>
        <time>2021-08-19T16:34:18Z</time>
      </trkpt>
      <trkpt lat="46.17378" lon="5.7362">
        <ele>591.9</ele>
        <time>2021-08-19T16:34:20Z</time>
      </trkpt>
      <trkpt lat="46.1738" lon="5.73626">
        <ele>592.3</ele>
        <time>2021-08-19T16:34:22Z</time>
      </trkpt>
      <trkpt lat="46.17383" lon="5.73632">
        <ele>592.6</ele>
        <time>2021-08-19T16:34:23Z</time>
      </trkpt>
      <trkpt lat="46.17384" lon="5.73636">
        <ele>592.9</ele>
        <time>2021-08-19T16:34:25Z</time>
      </trkpt>
      <trkpt lat="46.17384" lon="5.73637">
        <ele>592.9</ele>
        <time>2021-08-19T16:34:26Z</time>
      </trkpt>
      <trkpt lat="46.17386" lon="5.7364">
        <ele>593.1</ele>
        <time>2021-08-19T16:34:27Z</time>
      </trkpt>
      <trkpt lat="46.17388" lon="5.73642">
        <ele>593.3</ele>
        <time>2021-08-19T16:34:29Z</time>
      </trkpt>
      <trkpt lat="46.17389" lon="5.73644">
        <ele>593.4</ele>
        <time>2021-08-19T16:34:30Z</time>
      </trkpt>
      <trkpt lat="46.17391" lon="5.73647">
        <ele>593.6</ele>
        <time>2021-08-19T16:34:32Z</time>
      </trkpt>
      <trkpt lat="46.17391" lon="5.73652">
        <ele>593.9</ele>
        <time>2021-08-19T16:34:34Z</time>
      </trkpt>
      <trkpt lat="46.17391" lon="5.73653">
        <ele>593.9</ele>
        <time>2021-08-19T16:34:35Z</time>
      </trkpt>
      <trkpt lat="46.17391" lon="5.73655">
        <ele>594</ele>
        <time>2021-08-19T16:34:36Z</time>
      </trkpt>
      <trkpt lat="46.17392" lon="5.73658">
        <ele>594.2</ele>
        <time>2021-08-19T16:34:38Z</time>
      </trkpt>
      <trkpt lat="46.17392" lon="5.73661">
        <ele>594.3</ele>
        <time>2021-08-19T16:34:40Z</time>
      </trkpt>
      <trkpt lat="46.17392" lon="5.73662">
        <ele>594.4</ele>
        <time>2021-08-19T16:34:41Z</time>
      </trkpt>
      <trkpt lat="46.17393" lon="5.73664">
        <ele>594.5</ele>
        <time>2021-08-19T16:34:42Z</time>
      </trkpt>
      <trkpt lat="46.17393" lon="5.73666">
        <ele>594.6</ele>
        <time>2021-08-19T16:34:43Z</time>
      </trkpt>
      <trkpt lat="46.17393" lon="5.73669">
        <ele>594.7</ele>
        <time>2021-08-19T16:34:45Z</time>
      </trkpt>
      <trkpt lat="46.17393" lon="5.73673">
        <ele>594.9</ele>
        <time>2021-08-19T16:34:46Z</time>
      </trkpt>
      <trkpt lat="46.17392" lon="5.73674">
        <ele>595</ele>
        <time>2021-08-19T16:34:47Z</time>
      </trkpt>
      <trkpt lat="46.17392" lon="5.73676">
        <ele>595.1</ele>
        <time>2021-08-19T16:34:48Z</time>
      </trkpt>
      <trkpt lat="46.17391" lon="5.73678">
        <ele>595.1</ele>
        <time>2021-08-19T16:34:49Z</time>
      </trkpt>
      <trkpt lat="46.17392" lon="5.7368">
        <ele>595.3</ele>
        <time>2021-08-19T16:34:51Z</time>
      </trkpt>
      <trkpt lat="46.17392" lon="5.73685">
        <ele>595.5</ele>
        <time>2021-08-19T16:34:52Z</time>
      </trkpt>
      <trkpt lat="46.17392" lon="5.73686">
        <ele>595.5</ele>
        <time>2021-08-19T16:34:53Z</time>
      </trkpt>
      <trkpt lat="46.17391" lon="5.7369">
        <ele>595.7</ele>
        <time>2021-08-19T16:34:54Z</time>
      </trkpt>
      <trkpt lat="46.1739" lon="5.73691">
        <ele>595.8</ele>
        <time>2021-08-19T16:34:55Z</time>
      </trkpt>
      <trkpt lat="46.17387" lon="5.73695">
        <ele>596.1</ele>
        <time>2021-08-19T16:34:57Z</time>
      </trkpt>
      <trkpt lat="46.17386" lon="5.73696">
        <ele>596.2</ele>
        <time>2021-08-19T16:34:58Z</time>
      </trkpt>
      <trkpt lat="46.17383" lon="5.73699">
        <ele>596.4</ele>
        <time>2021-08-19T16:34:59Z</time>
      </trkpt>
      <trkpt lat="46.17382" lon="5.737">
        <ele>596.5</ele>
        <time>2021-08-19T16:35:00Z</time>
      </trkpt>
      <trkpt lat="46.1738" lon="5.73701">
        <ele>596.6</ele>
        <time>2021-08-19T16:35:02Z</time>
      </trkpt>
      <trkpt lat="46.17379" lon="5.73702">
        <ele>596.7</ele>
        <time>2021-08-19T16:35:03Z</time>
      </trkpt>
      <trkpt lat="46.17378" lon="5.73702">
        <ele>596.7</ele>
        <time>2021-08-19T16:35:04Z</time>
      </trkpt>
      <trkpt lat="46.17376" lon="5.73704">
        <ele>596.9</ele>
        <time>2021-08-19T16:35:06Z</time>
      </trkpt>
      <trkpt lat="46.17375" lon="5.73704">
        <ele>596.9</ele>
        <time>2021-08-19T16:35:08Z</time>
      </trkpt>
      <trkpt lat="46.17374" lon="5.73705">
        <ele>597</ele>
        <time>2021-08-19T16:35:09Z</time>
      </trkpt>
      <trkpt lat="46.17373" lon="5.73706">
        <ele>597.1</ele>
        <time>2021-08-19T16:35:10Z</time>
      </trkpt>
      <trkpt lat="46.17372" lon="5.73707">
        <ele>597.2</ele>
        <time>2021-08-19T16:35:11Z</time>
      </trkpt>
      <trkpt lat="46.17366" lon="5.73704">
        <ele>597.6</ele>
        <time>2021-08-19T16:35:12Z</time>
      </trkpt>
      <trkpt lat="46.17363" lon="5.73701">
        <ele>597.8</ele>
        <time>2021-08-19T16:35:14Z</time>
      </trkpt>
      <trkpt lat="46.17359" lon="5.73697">
        <ele>598.1</ele>
        <time>2021-08-19T16:35:38Z</time>
      </trkpt>
      <trkpt lat="46.17356" lon="5.73694">
        <ele>598.4</ele>
        <time>2021-08-19T16:35:39Z</time>
      </trkpt>
      <trkpt lat="46.17352" lon="5.73691">
        <ele>598.7</ele>
        <time>2021-08-19T16:35:40Z</time>
      </trkpt>
      <trkpt lat="46.17351" lon="5.73685">
        <ele>599</ele>
        <time>2021-08-19T16:35:42Z</time>
      </trkpt>
      <trkpt lat="46.17351" lon="5.73678">
        <ele>599.3</ele>
        <time>2021-08-19T16:35:44Z</time>
      </trkpt>
      <trkpt lat="46.17351" lon="5.73676">
        <ele>599.4</ele>
        <time>2021-08-19T16:35:46Z</time>
      </trkpt>
      <trkpt lat="46.17351" lon="5.73674">
        <ele>599.5</ele>
        <time>2021-08-19T16:35:47Z</time>
      </trkpt>
      <trkpt lat="46.17351" lon="5.73672">
        <ele>599.6</ele>
        <time>2021-08-19T16:35:49Z</time>
      </trkpt>
      <trkpt lat="46.17351" lon="5.73671">
        <ele>599.7</ele>
        <time>2021-08-19T16:35:50Z</time>
      </trkpt>
      <trkpt lat="46.17351" lon="5.73669">
        <ele>599.8</ele>
        <time>2021-08-19T16:35:51Z</time>
      </trkpt>
      <trkpt lat="46.1735" lon="5.73668">
        <ele>599.8</ele>
        <time>2021-08-19T16:35:52Z</time>
      </trkpt>
      <trkpt lat="46.17304" lon="5.73641">
        <ele>603.1</ele>
        <time>2021-08-19T16:36:37Z</time>
      </trkpt>
      <trkpt lat="46.17304" lon="5.73638">
        <ele>603.2</ele>
        <time>2021-08-19T16:36:38Z</time>
      </trkpt>
      <trkpt lat="46.17303" lon="5.73638">
        <ele>603.3</ele>
        <time>2021-08-19T16:36:40Z</time>
      </trkpt>
      <trkpt lat="46.17302" lon="5.73637">
        <ele>603.4</ele>
        <time>2021-08-19T16:36:41Z</time>
      </trkpt>
      <trkpt lat="46.17298" lon="5.73633">
        <ele>603.7</ele>
        <time>2021-08-19T16:36:43Z</time>
      </trkpt>
      <trkpt lat="46.17294" lon="5.73631">
        <ele>603.9</ele>
        <time>2021-08-19T16:36:45Z</time>
      </trkpt>
      <trkpt lat="46.1729" lon="5.73628">
        <ele>604.3</ele>
        <time>2021-08-19T16:36:46Z</time>
      </trkpt>
      <trkpt lat="46.17286" lon="5.73627">
        <ele>604.5</ele>
        <time>2021-08-19T16:36:47Z</time>
      </trkpt>
      <trkpt lat="46.17284" lon="5.73624">
        <ele>604.7</ele>
        <time>2021-08-19T16:36:48Z</time>
      </trkpt>
      <trkpt lat="46.17285" lon="5.73623">
        <ele>604.7</ele>
        <time>2021-08-19T16:36:50Z</time>
      </trkpt>
      <trkpt lat="46.17285" lon="5.73621">
        <ele>604.8</ele>
        <time>2021-08-19T16:36:51Z</time>
      </trkpt>
      <trkpt lat="46.17285" lon="5.7362">
        <ele>604.9</ele>
        <time>2021-08-19T16:36:52Z</time>
      </trkpt>
      <trkpt lat="46.17285" lon="5.73618">
        <ele>604.9</ele>
        <time>2021-08-19T16:36:53Z</time>
      </trkpt>
      <trkpt lat="46.17285" lon="5.73617">
        <ele>605</ele>
        <time>2021-08-19T16:36:54Z</time>
      </trkpt>
      <trkpt lat="46.17285" lon="5.73615">
        <ele>605.1</ele>
        <time>2021-08-19T16:36:55Z</time>
      </trkpt>
      <trkpt lat="46.17285" lon="5.73615">
        <ele>605.1</ele>
        <time>2021-08-19T16:36:57Z</time>
      </trkpt>
      <trkpt lat="46.17258" lon="5.73616">
        <ele>606.7</ele>
        <time>2021-08-19T16:37:14Z</time>
      </trkpt>
      <trkpt lat="46.17254" lon="5.73619">
        <ele>606.9</ele>
        <time>2021-08-19T16:37:16Z</time>
      </trkpt>
      <trkpt lat="46.17252" lon="5.73622">
        <ele>607.1</ele>
        <time>2021-08-19T16:37:17Z</time>
      </trkpt>
      <trkpt lat="46.1725" lon="5.73626">
        <ele>607.3</ele>
        <time>2021-08-19T16:37:18Z</time>
      </trkpt>
      <trkpt lat="46.17249" lon="5.73626">
        <ele>607.4</ele>
        <time>2021-08-19T16:37:19Z</time>
      </trkpt>
      <trkpt lat="46.17249" lon="5.73626">
        <ele>607.4</ele>
        <time>2021-08-19T16:37:21Z</time>
      </trkpt>
      <trkpt lat="46.17248" lon="5.73626">
        <ele>607.4</ele>
        <time>2021-08-19T16:37:23Z</time>
      </trkpt>
      <trkpt lat="46.17248" lon="5.73625">
        <ele>607.4</ele>
        <time>2021-08-19T16:37:25Z</time>
      </trkpt>
      <trkpt lat="46.17247" lon="5.73625">
        <ele>607.5</ele>
        <time>2021-08-19T16:37:26Z</time>
      </trkpt>
      <trkpt lat="46.17247" lon="5.73625">
        <ele>607.5</ele>
        <time>2021-08-19T16:37:28Z</time>
      </trkpt>
      <trkpt lat="46.17246" lon="5.73624">
        <ele>607.5</ele>
        <time>2021-08-19T16:37:29Z</time>
      </trkpt>
      <trkpt lat="46.17246" lon="5.73623">
        <ele>607.6</ele>
        <time>2021-08-19T16:37:31Z</time>
      </trkpt>
      <trkpt lat="46.17245" lon="5.73621">
        <ele>607.7</ele>
        <time>2021-08-19T16:37:32Z</time>
      </trkpt>
      <trkpt lat="46.17245" lon="5.7362">
        <ele>607.7</ele>
        <time>2021-08-19T16:37:33Z</time>
      </trkpt>
      <trkpt lat="46.17243" lon="5.73618">
        <ele>607.9</ele>
        <time>2021-08-19T16:37:35Z</time>
      </trkpt>
      <trkpt lat="46.17242" lon="5.73617">
        <ele>608</ele>
        <time>2021-08-19T16:37:36Z</time>
      </trkpt>
      <trkpt lat="46.17241" lon="5.73615">
        <ele>608</ele>
        <time>2021-08-19T16:37:37Z</time>
      </trkpt>
      <trkpt lat="46.17241" lon="5.73614">
        <ele>608.1</ele>
        <time>2021-08-19T16:37:38Z</time>
      </trkpt>
      <trkpt lat="46.1724" lon="5.73613">
        <ele>608.2</ele>
        <time>2021-08-19T16:37:40Z</time>
      </trkpt>
      <trkpt lat="46.17237" lon="5.73609">
        <ele>608.4</ele>
        <time>2021-08-19T16:37:42Z</time>
      </trkpt>
      <trkpt lat="46.17236" lon="5.73608">
        <ele>608.5</ele>
        <time>2021-08-19T16:37:43Z</time>
      </trkpt>
      <trkpt lat="46.17235" lon="5.73607">
        <ele>608.6</ele>
        <time>2021-08-19T16:37:44Z</time>
      </trkpt>
      <trkpt lat="46.17235" lon="5.73606">
        <ele>608.6</ele>
        <time>2021-08-19T16:37:45Z</time>
      </trkpt>
      <trkpt lat="46.17231" lon="5.73604">
        <ele>608.9</ele>
        <time>2021-08-19T16:37:46Z</time>
      </trkpt>
      <trkpt lat="46.17228" lon="5.73602">
        <ele>609.1</ele>
        <time>2021-08-19T16:37:47Z</time>
      </trkpt>
      <trkpt lat="46.17226" lon="5.736">
        <ele>609.3</ele>
        <time>2021-08-19T16:37:48Z</time>
      </trkpt>
      <trkpt lat="46.17223" lon="5.73599">
        <ele>609.5</ele>
        <time>2021-08-19T16:37:50Z</time>
      </trkpt>
      <trkpt lat="46.17221" lon="5.73596">
        <ele>609.7</ele>
        <time>2021-08-19T16:37:51Z</time>
      </trkpt>
      <trkpt lat="46.17218" lon="5.73594">
        <ele>609.9</ele>
        <time>2021-08-19T16:37:53Z</time>
      </trkpt>
      <trkpt lat="46.17215" lon="5.7359">
        <ele>610.2</ele>
        <time>2021-08-19T16:37:54Z</time>
      </trkpt>
      <trkpt lat="46.17214" lon="5.73588">
        <ele>610.3</ele>
        <time>2021-08-19T16:37:55Z</time>
      </trkpt>
      <trkpt lat="46.17212" lon="5.73587">
        <ele>610.4</ele>
        <time>2021-08-19T16:37:56Z</time>
      </trkpt>
      <trkpt lat="46.17211" lon="5.73585">
        <ele>610.6</ele>
        <time>2021-08-19T16:37:58Z</time>
      </trkpt>
      <trkpt lat="46.1721" lon="5.73583">
        <ele>611</ele>
        <time>2021-08-19T16:37:59Z</time>
      </trkpt>
      <trkpt lat="46.17209" lon="5.73582">
        <ele>610.8</ele>
        <time>2021-08-19T16:38:01Z</time>
      </trkpt>
      <trkpt lat="46.17207" lon="5.73581">
        <ele>610.7</ele>
        <time>2021-08-19T16:38:02Z</time>
      </trkpt>
      <trkpt lat="46.17207" lon="5.7359">
        <ele>612.3</ele>
        <time>2021-08-19T16:38:03Z</time>
      </trkpt>
      <trkpt lat="46.17207" lon="5.736">
        <ele>613.4</ele>
        <time>2021-08-19T16:39:08Z</time>
      </trkpt>
      <trkpt lat="46.17207" lon="5.7361">
        <ele>614.4</ele>
        <time>2021-08-19T16:39:09Z</time>
      </trkpt>
      <trkpt lat="46.17207" lon="5.7362">
        <ele>616</ele>
        <time>2021-08-19T16:39:10Z</time>
      </trkpt>
      <trkpt lat="46.1721" lon="5.73623">
        <ele>616.2</ele>
        <time>2021-08-19T16:39:11Z</time>
      </trkpt>
      <trkpt lat="46.17211" lon="5.73624">
        <ele>616.2</ele>
        <time>2021-08-19T16:39:12Z</time>
      </trkpt>
      <trkpt lat="46.17215" lon="5.73627">
        <ele>616.4</ele>
        <time>2021-08-19T16:39:14Z</time>
      </trkpt>
      <trkpt lat="46.17216" lon="5.73626">
        <ele>616.5</ele>
        <time>2021-08-19T16:39:16Z</time>
      </trkpt>
      <trkpt lat="46.17217" lon="5.73626">
        <ele>616.5</ele>
        <time>2021-08-19T16:39:17Z</time>
      </trkpt>
      <trkpt lat="46.17218" lon="5.73626">
        <ele>616.6</ele>
        <time>2021-08-19T16:39:18Z</time>
      </trkpt>
      <trkpt lat="46.1722" lon="5.73629">
        <ele>616.7</ele>
        <time>2021-08-19T16:39:19Z</time>
      </trkpt>
      <trkpt lat="46.17221" lon="5.73631">
        <ele>616.8</ele>
        <time>2021-08-19T16:39:21Z</time>
      </trkpt>
      <trkpt lat="46.17222" lon="5.73632">
        <ele>616.9</ele>
        <time>2021-08-19T16:39:22Z</time>
      </trkpt>
      <trkpt lat="46.17224" lon="5.73634">
        <ele>617</ele>
        <time>2021-08-19T16:39:23Z</time>
      </trkpt>
      <trkpt lat="46.17224" lon="5.73636">
        <ele>617</ele>
        <time>2021-08-19T16:39:25Z</time>
      </trkpt>
      <trkpt lat="46.17224" lon="5.73636">
        <ele>617.1</ele>
        <time>2021-08-19T16:39:27Z</time>
      </trkpt>
      <trkpt lat="46.17224" lon="5.73636">
        <ele>617.1</ele>
        <time>2021-08-19T16:39:28Z</time>
      </trkpt>
      <trkpt lat="46.17224" lon="5.73636">
        <ele>617.1</ele>
        <time>2021-08-19T16:39:29Z</time>
      </trkpt>
      <trkpt lat="46.17224" lon="5.73636">
        <ele>617.1</ele>
        <time>2021-08-19T16:39:30Z</time>
      </trkpt>
      <trkpt lat="46.17224" lon="5.73636">
        <ele>617.1</ele>
        <time>2021-08-19T16:39:31Z</time>
      </trkpt>
      <trkpt lat="46.17224" lon="5.73636">
        <ele>617.1</ele>
        <time>2021-08-19T16:39:32Z</time>
      </trkpt>
      <trkpt lat="46.17224" lon="5.73636">
        <ele>617.1</ele>
        <time>2021-08-19T16:39:34Z</time>
      </trkpt>
      <trkpt lat="46.17224" lon="5.73636">
        <ele>617.1</ele>
        <time>2021-08-19T16:39:35Z</time>
      </trkpt>
      <trkpt lat="46.17223" lon="5.73637">
        <ele>617.1</ele>
        <time>2021-08-19T16:39:36Z</time>
      </trkpt>
      <trkpt lat="46.17223" lon="5.73639">
        <ele>617.2</ele>
        <time>2021-08-19T16:39:38Z</time>
      </trkpt>
      <trkpt lat="46.17217" lon="5.7371">
        <ele>619.9</ele>
        <time>2021-08-19T16:40:11Z</time>
      </trkpt>
      <trkpt lat="46.17209" lon="5.7372">
        <ele>620.5</ele>
        <time>2021-08-19T16:40:13Z</time>
      </trkpt>
      <trkpt lat="46.17205" lon="5.73725">
        <ele>620.8</ele>
        <time>2021-08-19T16:40:15Z</time>
      </trkpt>
      <trkpt lat="46.17207" lon="5.7373">
        <ele>621</ele>
        <time>2021-08-19T16:40:17Z</time>
      </trkpt>
      <trkpt lat="46.17208" lon="5.73733">
        <ele>621.2</ele>
        <time>2021-08-19T16:40:18Z</time>
      </trkpt>
      <trkpt lat="46.17208" lon="5.73735">
        <ele>621.2</ele>
        <time>2021-08-19T16:40:19Z</time>
      </trkpt>
      <trkpt lat="46.17214" lon="5.73739">
        <ele>621.6</ele>
        <time>2021-08-19T16:40:22Z</time>
      </trkpt>
      <trkpt lat="46.17216" lon="5.73739">
        <ele>621.8</ele>
        <time>2021-08-19T16:40:23Z</time>
      </trkpt>
      <trkpt lat="46.1722" lon="5.73739">
        <ele>622</ele>
        <time>2021-08-19T16:40:25Z</time>
      </trkpt>
      <trkpt lat="46.17222" lon="5.73741">
        <ele>622.1</ele>
        <time>2021-08-19T16:40:26Z</time>
      </trkpt>
      <trkpt lat="46.17223" lon="5.73742">
        <ele>622.2</ele>
        <time>2021-08-19T16:40:27Z</time>
      </trkpt>
      <trkpt lat="46.17227" lon="5.73744">
        <ele>622.4</ele>
        <time>2021-08-19T16:40:29Z</time>
      </trkpt>
      <trkpt lat="46.17229" lon="5.73744">
        <ele>622.5</ele>
        <time>2021-08-19T16:40:30Z</time>
      </trkpt>
      <trkpt lat="46.17235" lon="5.73744">
        <ele>622.9</ele>
        <time>2021-08-19T16:40:31Z</time>
      </trkpt>
      <trkpt lat="46.17237" lon="5.73743">
        <ele>623</ele>
        <time>2021-08-19T16:40:32Z</time>
      </trkpt>
      <trkpt lat="46.17241" lon="5.73743">
        <ele>623.2</ele>
        <time>2021-08-19T16:40:34Z</time>
      </trkpt>
      <trkpt lat="46.17243" lon="5.73743">
        <ele>623.3</ele>
        <time>2021-08-19T16:40:35Z</time>
      </trkpt>
      <trkpt lat="46.17244" lon="5.73744">
        <ele>623.4</ele>
        <time>2021-08-19T16:40:36Z</time>
      </trkpt>
      <trkpt lat="46.17244" lon="5.73744">
        <ele>623.4</ele>
        <time>2021-08-19T16:40:37Z</time>
      </trkpt>
      <trkpt lat="46.17245" lon="5.73744">
        <ele>623.4</ele>
        <time>2021-08-19T16:40:39Z</time>
      </trkpt>
      <trkpt lat="46.17246" lon="5.73744">
        <ele>623.5</ele>
        <time>2021-08-19T16:40:40Z</time>
      </trkpt>
      <trkpt lat="46.17246" lon="5.73744">
        <ele>623.5</ele>
        <time>2021-08-19T16:40:41Z</time>
      </trkpt>
      <trkpt lat="46.17258" lon="5.7375">
        <ele>624.2</ele>
        <time>2021-08-19T16:40:52Z</time>
      </trkpt>
      <trkpt lat="46.1726" lon="5.73751">
        <ele>624.3</ele>
        <time>2021-08-19T16:40:53Z</time>
      </trkpt>
      <trkpt lat="46.17262" lon="5.73752">
        <ele>624.4</ele>
        <time>2021-08-19T16:40:54Z</time>
      </trkpt>
      <trkpt lat="46.17263" lon="5.73753">
        <ele>624.5</ele>
        <time>2021-08-19T16:40:55Z</time>
      </trkpt>
      <trkpt lat="46.17264" lon="5.73754">
        <ele>624.6</ele>
        <time>2021-08-19T16:40:56Z</time>
      </trkpt>
      <trkpt lat="46.17268" lon="5.73757">
        <ele>624.8</ele>
        <time>2021-08-19T16:40:58Z</time>
      </trkpt>
      <trkpt lat="46.17269" lon="5.73758">
        <ele>624.9</ele>
        <time>2021-08-19T16:40:59Z</time>
      </trkpt>
      <trkpt lat="46.17278" lon="5.73761">
        <ele>625.4</ele>
        <time>2021-08-19T16:41:01Z</time>
      </trkpt>
      <trkpt lat="46.17289" lon="5.73763">
        <ele>626</ele>
        <time>2021-08-19T16:41:02Z</time>
      </trkpt>
      <trkpt lat="46.17297" lon="5.73764">
        <ele>626.4</ele>
        <time>2021-08-19T16:41:03Z</time>
      </trkpt>
      <trkpt lat="46.17301" lon="5.73765">
        <ele>626.6</ele>
        <time>2021-08-19T16:41:05Z</time>
      </trkpt>
      <trkpt lat="46.17302" lon="5.73766">
        <ele>626.7</ele>
        <time>2021-08-19T16:41:06Z</time>
      </trkpt>
      <trkpt lat="46.17302" lon="5.73767">
        <ele>626.8</ele>
        <time>2021-08-19T16:41:07Z</time>
      </trkpt>
      <trkpt lat="46.17302" lon="5.73767">
        <ele>626.8</ele>
        <time>2021-08-19T16:41:08Z</time>
      </trkpt>
      <trkpt lat="46.17302" lon="5.73768">
        <ele>626.8</ele>
        <time>2021-08-19T16:41:09Z</time>
      </trkpt>
      <trkpt lat="46.17303" lon="5.73769">
        <ele>626.9</ele>
        <time>2021-08-19T16:41:11Z</time>
      </trkpt>
      <trkpt lat="46.17304" lon="5.7377">
        <ele>626.9</ele>
        <time>2021-08-19T16:41:12Z</time>
      </trkpt>
      <trkpt lat="46.17305" lon="5.73771">
        <ele>627</ele>
        <time>2021-08-19T16:41:13Z</time>
      </trkpt>
      <trkpt lat="46.17306" lon="5.73774">
        <ele>627.1</ele>
        <time>2021-08-19T16:41:15Z</time>
      </trkpt>
      <trkpt lat="46.17307" lon="5.73775">
        <ele>627.2</ele>
        <time>2021-08-19T16:41:16Z</time>
      </trkpt>
      <trkpt lat="46.17308" lon="5.73776">
        <ele>627.3</ele>
        <time>2021-08-19T16:41:17Z</time>
      </trkpt>
      <trkpt lat="46.17311" lon="5.73778">
        <ele>627.4</ele>
        <time>2021-08-19T16:41:18Z</time>
      </trkpt>
      <trkpt lat="46.17314" lon="5.7378">
        <ele>627.6</ele>
        <time>2021-08-19T16:41:19Z</time>
      </trkpt>
      <trkpt lat="46.17316" lon="5.73785">
        <ele>627.8</ele>
        <time>2021-08-19T16:41:21Z</time>
      </trkpt>
      <trkpt lat="46.17316" lon="5.73787">
        <ele>627.9</ele>
        <time>2021-08-19T16:41:23Z</time>
      </trkpt>
      <trkpt lat="46.17316" lon="5.7379">
        <ele>628</ele>
        <time>2021-08-19T16:41:24Z</time>
      </trkpt>
      <trkpt lat="46.17317" lon="5.73792">
        <ele>628.1</ele>
        <time>2021-08-19T16:41:25Z</time>
      </trkpt>
      <trkpt lat="46.17316" lon="5.73796">
        <ele>628.2</ele>
        <time>2021-08-19T16:41:26Z</time>
      </trkpt>
      <trkpt lat="46.17316" lon="5.73797">
        <ele>628.3</ele>
        <time>2021-08-19T16:41:27Z</time>
      </trkpt>
      <trkpt lat="46.17315" lon="5.73799">
        <ele>628.3</ele>
        <time>2021-08-19T16:41:28Z</time>
      </trkpt>
      <trkpt lat="46.17312" lon="5.73802">
        <ele>628.5</ele>
        <time>2021-08-19T16:41:30Z</time>
      </trkpt>
      <trkpt lat="46.17306" lon="5.73807">
        <ele>628.8</ele>
        <time>2021-08-19T16:41:31Z</time>
      </trkpt>
      <trkpt lat="46.17303" lon="5.7381">
        <ele>629</ele>
        <time>2021-08-19T16:41:32Z</time>
      </trkpt>
      <trkpt lat="46.173" lon="5.73813">
        <ele>629.2</ele>
        <time>2021-08-19T16:41:33Z</time>
      </trkpt>
      <trkpt lat="46.17297" lon="5.73817">
        <ele>629.4</ele>
        <time>2021-08-19T16:41:34Z</time>
      </trkpt>
      <trkpt lat="46.17294" lon="5.7382">
        <ele>629.6</ele>
        <time>2021-08-19T16:41:35Z</time>
      </trkpt>
      <trkpt lat="46.17291" lon="5.73822">
        <ele>629.7</ele>
        <time>2021-08-19T16:41:36Z</time>
      </trkpt>
      <trkpt lat="46.17285" lon="5.73825">
        <ele>630</ele>
        <time>2021-08-19T16:41:38Z</time>
      </trkpt>
      <trkpt lat="46.17282" lon="5.73827">
        <ele>630.1</ele>
        <time>2021-08-19T16:41:39Z</time>
      </trkpt>
      <trkpt lat="46.17279" lon="5.73829">
        <ele>630.3</ele>
        <time>2021-08-19T16:41:40Z</time>
      </trkpt>
      <trkpt lat="46.17275" lon="5.73833">
        <ele>630.5</ele>
        <time>2021-08-19T16:41:42Z</time>
      </trkpt>
      <trkpt lat="46.17269" lon="5.73837">
        <ele>630.8</ele>
        <time>2021-08-19T16:41:43Z</time>
      </trkpt>
      <trkpt lat="46.17266" lon="5.7384">
        <ele>631</ele>
        <time>2021-08-19T16:41:44Z</time>
      </trkpt>
      <trkpt lat="46.17263" lon="5.73843">
        <ele>631.2</ele>
        <time>2021-08-19T16:41:46Z</time>
      </trkpt>
      <trkpt lat="46.1726" lon="5.73847">
        <ele>631.4</ele>
        <time>2021-08-19T16:41:47Z</time>
      </trkpt>
      <trkpt lat="46.17258" lon="5.7385">
        <ele>631.6</ele>
        <time>2021-08-19T16:41:48Z</time>
      </trkpt>
      <trkpt lat="46.17258" lon="5.73851">
        <ele>631.6</ele>
        <time>2021-08-19T16:41:49Z</time>
      </trkpt>
      <trkpt lat="46.17257" lon="5.73853">
        <ele>631.7</ele>
        <time>2021-08-19T16:41:50Z</time>
      </trkpt>
      <trkpt lat="46.17257" lon="5.73855">
        <ele>631.8</ele>
        <time>2021-08-19T16:41:51Z</time>
      </trkpt>
      <trkpt lat="46.17257" lon="5.73857">
        <ele>631.9</ele>
        <time>2021-08-19T16:41:52Z</time>
      </trkpt>
      <trkpt lat="46.17257" lon="5.7386">
        <ele>631.9</ele>
        <time>2021-08-19T16:41:54Z</time>
      </trkpt>
      <trkpt lat="46.17257" lon="5.73862">
        <ele>632</ele>
        <time>2021-08-19T16:41:55Z</time>
      </trkpt>
      <trkpt lat="46.17257" lon="5.73864">
        <ele>632.1</ele>
        <time>2021-08-19T16:41:56Z</time>
      </trkpt>
      <trkpt lat="46.17256" lon="5.73866">
        <ele>632.2</ele>
        <time>2021-08-19T16:41:57Z</time>
      </trkpt>
      <trkpt lat="46.17256" lon="5.73869">
        <ele>632.3</ele>
        <time>2021-08-19T16:41:58Z</time>
      </trkpt>
      <trkpt lat="46.17256" lon="5.73872">
        <ele>632.4</ele>
        <time>2021-08-19T16:41:59Z</time>
      </trkpt>
      <trkpt lat="46.17255" lon="5.73874">
        <ele>632.5</ele>
        <time>2021-08-19T16:42:01Z</time>
      </trkpt>
      <trkpt lat="46.17253" lon="5.73879">
        <ele>632.6</ele>
        <time>2021-08-19T16:42:02Z</time>
      </trkpt>
      <trkpt lat="46.17253" lon="5.7388">
        <ele>632.7</ele>
        <time>2021-08-19T16:42:03Z</time>
      </trkpt>
      <trkpt lat="46.17252" lon="5.73883">
        <ele>632.8</ele>
        <time>2021-08-19T16:42:04Z</time>
      </trkpt>
      <trkpt lat="46.17252" lon="5.73885">
        <ele>632.8</ele>
        <time>2021-08-19T16:42:05Z</time>
      </trkpt>
      <trkpt lat="46.17251" lon="5.73886">
        <ele>632.9</ele>
        <time>2021-08-19T16:42:06Z</time>
      </trkpt>
      <trkpt lat="46.17251" lon="5.73887">
        <ele>632.9</ele>
        <time>2021-08-19T16:42:08Z</time>
      </trkpt>
      <trkpt lat="46.17251" lon="5.73888">
        <ele>633</ele>
        <time>2021-08-19T16:42:09Z</time>
      </trkpt>
      <trkpt lat="46.17251" lon="5.73888">
        <ele>633</ele>
        <time>2021-08-19T16:42:11Z</time>
      </trkpt>
      <trkpt lat="46.17251" lon="5.73887">
        <ele>633</ele>
        <time>2021-08-19T16:42:12Z</time>
      </trkpt>
      <trkpt lat="46.17251" lon="5.73887">
        <ele>633</ele>
        <time>2021-08-19T16:42:14Z</time>
      </trkpt>
      <trkpt lat="46.17251" lon="5.73887">
        <ele>633</ele>
        <time>2021-08-19T16:42:15Z</time>
      </trkpt>
      <trkpt lat="46.17252" lon="5.73887">
        <ele>633</ele>
        <time>2021-08-19T16:42:16Z</time>
      </trkpt>
      <trkpt lat="46.17252" lon="5.73889">
        <ele>633.1</ele>
        <time>2021-08-19T16:42:17Z</time>
      </trkpt>
      <trkpt lat="46.17254" lon="5.73895">
        <ele>633.3</ele>
        <time>2021-08-19T16:42:19Z</time>
      </trkpt>
      <trkpt lat="46.17254" lon="5.73896">
        <ele>633.4</ele>
        <time>2021-08-19T16:42:20Z</time>
      </trkpt>
      <trkpt lat="46.17255" lon="5.73898">
        <ele>633.5</ele>
        <time>2021-08-19T16:42:21Z</time>
      </trkpt>
      <trkpt lat="46.17255" lon="5.739">
        <ele>633.5</ele>
        <time>2021-08-19T16:42:22Z</time>
      </trkpt>
      <trkpt lat="46.17256" lon="5.73905">
        <ele>633.7</ele>
        <time>2021-08-19T16:42:24Z</time>
      </trkpt>
      <trkpt lat="46.17256" lon="5.73911">
        <ele>633.9</ele>
        <time>2021-08-19T16:42:25Z</time>
      </trkpt>
      <trkpt lat="46.17255" lon="5.73913">
        <ele>634</ele>
        <time>2021-08-19T16:42:26Z</time>
      </trkpt>
      <trkpt lat="46.17254" lon="5.73919">
        <ele>634.2</ele>
        <time>2021-08-19T16:42:27Z</time>
      </trkpt>
      <trkpt lat="46.17253" lon="5.73923">
        <ele>634.4</ele>
        <time>2021-08-19T16:42:28Z</time>
      </trkpt>
      <trkpt lat="46.17251" lon="5.73927">
        <ele>634.6</ele>
        <time>2021-08-19T16:42:29Z</time>
      </trkpt>
      <trkpt lat="46.17249" lon="5.73931">
        <ele>634.8</ele>
        <time>2021-08-19T16:42:30Z</time>
      </trkpt>
      <trkpt lat="46.1725" lon="5.73935">
        <ele>635</ele>
        <time>2021-08-19T16:42:32Z</time>
      </trkpt>
      <trkpt lat="46.1725" lon="5.73937">
        <ele>635.1</ele>
        <time>2021-08-19T16:42:33Z</time>
      </trkpt>
      <trkpt lat="46.17252" lon="5.73939">
        <ele>635.2</ele>
        <time>2021-08-19T16:42:34Z</time>
      </trkpt>
      <trkpt lat="46.17253" lon="5.7394">
        <ele>635.3</ele>
        <time>2021-08-19T16:42:35Z</time>
      </trkpt>
      <trkpt lat="46.17254" lon="5.73941">
        <ele>635.4</ele>
        <time>2021-08-19T16:42:36Z</time>
      </trkpt>
      <trkpt lat="46.17254" lon="5.73943">
        <ele>635.4</ele>
        <time>2021-08-19T16:42:37Z</time>
      </trkpt>
      <trkpt lat="46.17254" lon="5.73945">
        <ele>635.5</ele>
        <time>2021-08-19T16:42:38Z</time>
      </trkpt>
      <trkpt lat="46.17255" lon="5.73948">
        <ele>635.7</ele>
        <time>2021-08-19T16:42:39Z</time>
      </trkpt>
      <trkpt lat="46.17256" lon="5.7395">
        <ele>635.8</ele>
        <time>2021-08-19T16:42:41Z</time>
      </trkpt>
      <trkpt lat="46.17257" lon="5.73952">
        <ele>635.9</ele>
        <time>2021-08-19T16:42:42Z</time>
      </trkpt>
      <trkpt lat="46.1726" lon="5.73955">
        <ele>636.1</ele>
        <time>2021-08-19T16:42:43Z</time>
      </trkpt>
      <trkpt lat="46.17265" lon="5.73958">
        <ele>636.4</ele>
        <time>2021-08-19T16:42:44Z</time>
      </trkpt>
      <trkpt lat="46.17267" lon="5.7396">
        <ele>636.6</ele>
        <time>2021-08-19T16:42:46Z</time>
      </trkpt>
      <trkpt lat="46.1727" lon="5.73962">
        <ele>636.8</ele>
        <time>2021-08-19T16:42:47Z</time>
      </trkpt>
      <trkpt lat="46.17272" lon="5.73964">
        <ele>637</ele>
        <time>2021-08-19T16:42:48Z</time>
      </trkpt>
      <trkpt lat="46.17282" lon="5.7397">
        <ele>637.6</ele>
        <time>2021-08-19T16:42:49Z</time>
      </trkpt>
      <trkpt lat="46.17288" lon="5.73974">
        <ele>637.9</ele>
        <time>2021-08-19T16:42:50Z</time>
      </trkpt>
      <trkpt lat="46.17292" lon="5.73975">
        <ele>638.1</ele>
        <time>2021-08-19T16:42:51Z</time>
      </trkpt>
      <trkpt lat="46.17297" lon="5.73976">
        <ele>638.4</ele>
        <time>2021-08-19T16:42:53Z</time>
      </trkpt>
      <trkpt lat="46.173" lon="5.73976">
        <ele>638.6</ele>
        <time>2021-08-19T16:42:54Z</time>
      </trkpt>
      <trkpt lat="46.17304" lon="5.73977">
        <ele>638.8</ele>
        <time>2021-08-19T16:42:55Z</time>
      </trkpt>
      <trkpt lat="46.17304" lon="5.73977">
        <ele>638.8</ele>
        <time>2021-08-19T16:42:57Z</time>
      </trkpt>
      <trkpt lat="46.17304" lon="5.73978">
        <ele>638.9</ele>
        <time>2021-08-19T16:42:58Z</time>
      </trkpt>
      <trkpt lat="46.17304" lon="5.73979">
        <ele>638.9</ele>
        <time>2021-08-19T16:42:59Z</time>
      </trkpt>
      <trkpt lat="46.17303" lon="5.73979">
        <ele>638.9</ele>
        <time>2021-08-19T16:43:00Z</time>
      </trkpt>
      <trkpt lat="46.17303" lon="5.7398">
        <ele>638.9</ele>
        <time>2021-08-19T16:43:02Z</time>
      </trkpt>
      <trkpt lat="46.17303" lon="5.7398">
        <ele>639</ele>
        <time>2021-08-19T16:43:04Z</time>
      </trkpt>
      <trkpt lat="46.17303" lon="5.73981">
        <ele>639</ele>
        <time>2021-08-19T16:43:05Z</time>
      </trkpt>
      <trkpt lat="46.17303" lon="5.73981">
        <ele>639</ele>
        <time>2021-08-19T16:43:06Z</time>
      </trkpt>
      <trkpt lat="46.17303" lon="5.73982">
        <ele>639</ele>
        <time>2021-08-19T16:43:08Z</time>
      </trkpt>
      <trkpt lat="46.17304" lon="5.73985">
        <ele>639.1</ele>
        <time>2021-08-19T16:43:09Z</time>
      </trkpt>
      <trkpt lat="46.17305" lon="5.73987">
        <ele>639.2</ele>
        <time>2021-08-19T16:43:11Z</time>
      </trkpt>
      <trkpt lat="46.17323" lon="5.74024">
        <ele>641</ele>
        <time>2021-08-19T16:43:49Z</time>
      </trkpt>
      <trkpt lat="46.17324" lon="5.74027">
        <ele>641.1</ele>
        <time>2021-08-19T16:43:50Z</time>
      </trkpt>
      <trkpt lat="46.17323" lon="5.74029">
        <ele>641.1</ele>
        <time>2021-08-19T16:43:52Z</time>
      </trkpt>
      <trkpt lat="46.17323" lon="5.7403">
        <ele>641.2</ele>
        <time>2021-08-19T16:43:53Z</time>
      </trkpt>
      <trkpt lat="46.17323" lon="5.7403">
        <ele>641.2</ele>
        <time>2021-08-19T16:43:54Z</time>
      </trkpt>
      <trkpt lat="46.17322" lon="5.7403">
        <ele>641.2</ele>
        <time>2021-08-19T16:43:55Z</time>
      </trkpt>
      <trkpt lat="46.17322" lon="5.74031">
        <ele>641.2</ele>
        <time>2021-08-19T16:43:57Z</time>
      </trkpt>
      <trkpt lat="46.17322" lon="5.74031">
        <ele>641.2</ele>
        <time>2021-08-19T16:43:58Z</time>
      </trkpt>
      <trkpt lat="46.17322" lon="5.74031">
        <ele>641.2</ele>
        <time>2021-08-19T16:43:59Z</time>
      </trkpt>
      <trkpt lat="46.17322" lon="5.74031">
        <ele>641.2</ele>
        <time>2021-08-19T16:44:01Z</time>
      </trkpt>
      <trkpt lat="46.17322" lon="5.74032">
        <ele>641.3</ele>
        <time>2021-08-19T16:44:02Z</time>
      </trkpt>
      <trkpt lat="46.17315" lon="5.74066">
        <ele>642.7</ele>
        <time>2021-08-19T16:44:18Z</time>
      </trkpt>
      <trkpt lat="46.17314" lon="5.74069">
        <ele>642.8</ele>
        <time>2021-08-19T16:44:19Z</time>
      </trkpt>
      <trkpt lat="46.17313" lon="5.74074">
        <ele>643</ele>
        <time>2021-08-19T16:44:21Z</time>
      </trkpt>
      <trkpt lat="46.17312" lon="5.74076">
        <ele>643.1</ele>
        <time>2021-08-19T16:44:22Z</time>
      </trkpt>
      <trkpt lat="46.17313" lon="5.74077">
        <ele>643.2</ele>
        <time>2021-08-19T16:44:23Z</time>
      </trkpt>
      <trkpt lat="46.17314" lon="5.74078">
        <ele>643.2</ele>
        <time>2021-08-19T16:44:24Z</time>
      </trkpt>
      <trkpt lat="46.17313" lon="5.74079">
        <ele>643.3</ele>
        <time>2021-08-19T16:44:26Z</time>
      </trkpt>
      <trkpt lat="46.17312" lon="5.7408">
        <ele>643.3</ele>
        <time>2021-08-19T16:44:27Z</time>
      </trkpt>
      <trkpt lat="46.17312" lon="5.74081">
        <ele>643.4</ele>
        <time>2021-08-19T16:44:28Z</time>
      </trkpt>
      <trkpt lat="46.17312" lon="5.74081">
        <ele>643.4</ele>
        <time>2021-08-19T16:44:29Z</time>
      </trkpt>
      <trkpt lat="46.17314" lon="5.74097">
        <ele>644.1</ele>
        <time>2021-08-19T16:44:30Z</time>
      </trkpt>
      <trkpt lat="46.17314" lon="5.7411">
        <ele>644.6</ele>
        <time>2021-08-19T16:44:32Z</time>
      </trkpt>
      <trkpt lat="46.17315" lon="5.74123">
        <ele>645.2</ele>
        <time>2021-08-19T16:44:34Z</time>
      </trkpt>
      <trkpt lat="46.17315" lon="5.74136">
        <ele>645.8</ele>
        <time>2021-08-19T16:45:29Z</time>
      </trkpt>
      <trkpt lat="46.17316" lon="5.74149">
        <ele>646.4</ele>
        <time>2021-08-19T16:45:31Z</time>
      </trkpt>
      <trkpt lat="46.17317" lon="5.74161">
        <ele>646.9</ele>
        <time>2021-08-19T16:45:32Z</time>
      </trkpt>
      <trkpt lat="46.17317" lon="5.74164">
        <ele>646.9</ele>
        <time>2021-08-19T16:45:33Z</time>
      </trkpt>
      <trkpt lat="46.17317" lon="5.74164">
        <ele>647</ele>
        <time>2021-08-19T16:45:35Z</time>
      </trkpt>
      <trkpt lat="46.17318" lon="5.74165">
        <ele>647</ele>
        <time>2021-08-19T16:45:36Z</time>
      </trkpt>
      <trkpt lat="46.17318" lon="5.74165">
        <ele>647</ele>
        <time>2021-08-19T16:45:37Z</time>
      </trkpt>
      <trkpt lat="46.17318" lon="5.74165">
        <ele>647</ele>
        <time>2021-08-19T16:45:38Z</time>
      </trkpt>
      <trkpt lat="46.17318" lon="5.74165">
        <ele>647</ele>
        <time>2021-08-19T16:45:39Z</time>
      </trkpt>
      <trkpt lat="46.17318" lon="5.74166">
        <ele>647.1</ele>
        <time>2021-08-19T16:45:40Z</time>
      </trkpt>
      <trkpt lat="46.17318" lon="5.74166">
        <ele>647.1</ele>
        <time>2021-08-19T16:45:42Z</time>
      </trkpt>
      <trkpt lat="46.17318" lon="5.74166">
        <ele>647.1</ele>
        <time>2021-08-19T16:45:43Z</time>
      </trkpt>
      <trkpt lat="46.17318" lon="5.74166">
        <ele>647.1</ele>
        <time>2021-08-19T16:45:44Z</time>
      </trkpt>
      <trkpt lat="46.17317" lon="5.74167">
        <ele>647.2</ele>
        <time>2021-08-19T16:45:45Z</time>
      </trkpt>
      <trkpt lat="46.17255" lon="5.74183">
        <ele>650</ele>
        <time>2021-08-19T16:46:49Z</time>
      </trkpt>
      <trkpt lat="46.17252" lon="5.74182">
        <ele>650.2</ele>
        <time>2021-08-19T16:46:50Z</time>
      </trkpt>
      <trkpt lat="46.1725" lon="5.74181">
        <ele>650.3</ele>
        <time>2021-08-19T16:46:51Z</time>
      </trkpt>
      <trkpt lat="46.17247" lon="5.74181">
        <ele>650.4</ele>
        <time>2021-08-19T16:46:53Z</time>
      </trkpt>
      <trkpt lat="46.17245" lon="5.74185">
        <ele>650.5</ele>
        <time>2021-08-19T16:46:54Z</time>
      </trkpt>
      <trkpt lat="46.17245" lon="5.74188">
        <ele>650.6</ele>
        <time>2021-08-19T16:46:56Z</time>
      </trkpt>
      <trkpt lat="46.17244" lon="5.7419">
        <ele>650.7</ele>
        <time>2021-08-19T16:46:57Z</time>
      </trkpt>
      <trkpt lat="46.17244" lon="5.74192">
        <ele>650.7</ele>
        <time>2021-08-19T16:46:59Z</time>
      </trkpt>
      <trkpt lat="46.17243" lon="5.74194">
        <ele>650.8</ele>
        <time>2021-08-19T16:47:00Z</time>
      </trkpt>
      <trkpt lat="46.17242" lon="5.74196">
        <ele>650.9</ele>
        <time>2021-08-19T16:47:01Z</time>
      </trkpt>
      <trkpt lat="46.17244" lon="5.74206">
        <ele>651.2</ele>
        <time>2021-08-19T16:47:03Z</time>
      </trkpt>
      <trkpt lat="46.17244" lon="5.74209">
        <ele>651.3</ele>
        <time>2021-08-19T16:47:05Z</time>
      </trkpt>
      <trkpt lat="46.17243" lon="5.7421">
        <ele>651.3</ele>
        <time>2021-08-19T16:47:06Z</time>
      </trkpt>
      <trkpt lat="46.1724" lon="5.74211">
        <ele>651.5</ele>
        <time>2021-08-19T16:47:07Z</time>
      </trkpt>
      <trkpt lat="46.17239" lon="5.74211">
        <ele>651.5</ele>
        <time>2021-08-19T16:47:08Z</time>
      </trkpt>
      <trkpt lat="46.17236" lon="5.74212">
        <ele>651.6</ele>
        <time>2021-08-19T16:47:09Z</time>
      </trkpt>
      <trkpt lat="46.17235" lon="5.74212">
        <ele>651.7</ele>
        <time>2021-08-19T16:47:10Z</time>
      </trkpt>
      <trkpt lat="46.17232" lon="5.74213">
        <ele>651.8</ele>
        <time>2021-08-19T16:47:11Z</time>
      </trkpt>
      <trkpt lat="46.17228" lon="5.74214">
        <ele>652</ele>
        <time>2021-08-19T16:47:13Z</time>
      </trkpt>
      <trkpt lat="46.17225" lon="5.74215">
        <ele>652.1</ele>
        <time>2021-08-19T16:47:14Z</time>
      </trkpt>
      <trkpt lat="46.17221" lon="5.74216">
        <ele>652.3</ele>
        <time>2021-08-19T16:47:15Z</time>
      </trkpt>
      <trkpt lat="46.17218" lon="5.74219">
        <ele>652.5</ele>
        <time>2021-08-19T16:47:17Z</time>
      </trkpt>
      <trkpt lat="46.17215" lon="5.74222">
        <ele>652.6</ele>
        <time>2021-08-19T16:47:18Z</time>
      </trkpt>
      <trkpt lat="46.17214" lon="5.74223">
        <ele>652.7</ele>
        <time>2021-08-19T16:47:19Z</time>
      </trkpt>
      <trkpt lat="46.17212" lon="5.74226">
        <ele>652.9</ele>
        <time>2021-08-19T16:47:20Z</time>
      </trkpt>
      <trkpt lat="46.17209" lon="5.74227">
        <ele>653</ele>
        <time>2021-08-19T16:47:22Z</time>
      </trkpt>
      <trkpt lat="46.17205" lon="5.74229">
        <ele>653.2</ele>
        <time>2021-08-19T16:47:23Z</time>
      </trkpt>
      <trkpt lat="46.17204" lon="5.74231">
        <ele>653.3</ele>
        <time>2021-08-19T16:47:24Z</time>
      </trkpt>
      <trkpt lat="46.17203" lon="5.74234">
        <ele>653.4</ele>
        <time>2021-08-19T16:47:26Z</time>
      </trkpt>
      <trkpt lat="46.17204" lon="5.74238">
        <ele>653.6</ele>
        <time>2021-08-19T16:47:27Z</time>
      </trkpt>
      <trkpt lat="46.17204" lon="5.74239">
        <ele>653.6</ele>
        <time>2021-08-19T16:47:28Z</time>
      </trkpt>
      <trkpt lat="46.17204" lon="5.7424">
        <ele>653.6</ele>
        <time>2021-08-19T16:47:29Z</time>
      </trkpt>
      <trkpt lat="46.17204" lon="5.7424">
        <ele>653.7</ele>
        <time>2021-08-19T16:47:31Z</time>
      </trkpt>
      <trkpt lat="46.17204" lon="5.7424">
        <ele>653.7</ele>
        <time>2021-08-19T16:47:32Z</time>
      </trkpt>
      <trkpt lat="46.17204" lon="5.7424">
        <ele>653.7</ele>
        <time>2021-08-19T16:47:34Z</time>
      </trkpt>
      <trkpt lat="46.17204" lon="5.74241">
        <ele>653.7</ele>
        <time>2021-08-19T16:47:35Z</time>
      </trkpt>
      <trkpt lat="46.17204" lon="5.74241">
        <ele>653.7</ele>
        <time>2021-08-19T16:47:37Z</time>
      </trkpt>
      <trkpt lat="46.17158" lon="5.74211">
        <ele>656.6</ele>
        <time>2021-08-19T16:48:10Z</time>
      </trkpt>
      <trkpt lat="46.17156" lon="5.74207">
        <ele>656.8</ele>
        <time>2021-08-19T16:48:12Z</time>
      </trkpt>
      <trkpt lat="46.17144" lon="5.74182">
        <ele>657.9</ele>
        <time>2021-08-19T16:48:14Z</time>
      </trkpt>
      <trkpt lat="46.17135" lon="5.74162">
        <ele>658.8</ele>
        <time>2021-08-19T16:48:16Z</time>
      </trkpt>
      <trkpt lat="46.17133" lon="5.74158">
        <ele>659</ele>
        <time>2021-08-19T16:48:17Z</time>
      </trkpt>
      <trkpt lat="46.17132" lon="5.74154">
        <ele>659.2</ele>
        <time>2021-08-19T16:48:18Z</time>
      </trkpt>
      <trkpt lat="46.17131" lon="5.74153">
        <ele>659.2</ele>
        <time>2021-08-19T16:48:19Z</time>
      </trkpt>
      <trkpt lat="46.17126" lon="5.74142">
        <ele>659.8</ele>
        <time>2021-08-19T16:48:21Z</time>
      </trkpt>
      <trkpt lat="46.17118" lon="5.74122">
        <ele>660.7</ele>
        <time>2021-08-19T16:48:23Z</time>
      </trkpt>
      <trkpt lat="46.17116" lon="5.74119">
        <ele>660.9</ele>
        <time>2021-08-19T16:48:24Z</time>
      </trkpt>
      <trkpt lat="46.17115" lon="5.74114">
        <ele>661.1</ele>
        <time>2021-08-19T16:48:25Z</time>
      </trkpt>
      <trkpt lat="46.17114" lon="5.74112">
        <ele>661.2</ele>
        <time>2021-08-19T16:48:26Z</time>
      </trkpt>
      <trkpt lat="46.17113" lon="5.74107">
        <ele>661.4</ele>
        <time>2021-08-19T16:48:28Z</time>
      </trkpt>
      <trkpt lat="46.17111" lon="5.74106">
        <ele>661.5</ele>
        <time>2021-08-19T16:48:29Z</time>
      </trkpt>
      <trkpt lat="46.171" lon="5.7409">
        <ele>662.3</ele>
        <time>2021-08-19T16:48:31Z</time>
      </trkpt>
      <trkpt lat="46.17097" lon="5.74086">
        <ele>662.5</ele>
        <time>2021-08-19T16:48:32Z</time>
      </trkpt>
      <trkpt lat="46.17095" lon="5.74084">
        <ele>662.7</ele>
        <time>2021-08-19T16:48:33Z</time>
      </trkpt>
      <trkpt lat="46.17092" lon="5.74079">
        <ele>662.9</ele>
        <time>2021-08-19T16:48:35Z</time>
      </trkpt>
      <trkpt lat="46.1709" lon="5.74077">
        <ele>663</ele>
        <time>2021-08-19T16:48:36Z</time>
      </trkpt>
      <trkpt lat="46.17089" lon="5.74077">
        <ele>663.1</ele>
        <time>2021-08-19T16:48:37Z</time>
      </trkpt>
      <trkpt lat="46.17087" lon="5.74076">
        <ele>663.2</ele>
        <time>2021-08-19T16:48:39Z</time>
      </trkpt>
      <trkpt lat="46.17086" lon="5.74075">
        <ele>663.2</ele>
        <time>2021-08-19T16:48:40Z</time>
      </trkpt>
      <trkpt lat="46.17083" lon="5.74073">
        <ele>663.4</ele>
        <time>2021-08-19T16:48:41Z</time>
      </trkpt>
      <trkpt lat="46.1708" lon="5.74068">
        <ele>663.6</ele>
        <time>2021-08-19T16:48:43Z</time>
      </trkpt>
      <trkpt lat="46.17078" lon="5.74065">
        <ele>663.8</ele>
        <time>2021-08-19T16:48:44Z</time>
      </trkpt>
      <trkpt lat="46.17078" lon="5.74064">
        <ele>663.8</ele>
        <time>2021-08-19T16:48:45Z</time>
      </trkpt>
      <trkpt lat="46.17076" lon="5.74061">
        <ele>663.9</ele>
        <time>2021-08-19T16:48:46Z</time>
      </trkpt>
      <trkpt lat="46.17075" lon="5.74059">
        <ele>664</ele>
        <time>2021-08-19T16:48:47Z</time>
      </trkpt>
      <trkpt lat="46.17075" lon="5.74056">
        <ele>664.1</ele>
        <time>2021-08-19T16:48:48Z</time>
      </trkpt>
      <trkpt lat="46.17074" lon="5.74054">
        <ele>664.2</ele>
        <time>2021-08-19T16:48:50Z</time>
      </trkpt>
      <trkpt lat="46.17073" lon="5.74052">
        <ele>664.3</ele>
        <time>2021-08-19T16:48:51Z</time>
      </trkpt>
      <trkpt lat="46.17072" lon="5.7405">
        <ele>664.4</ele>
        <time>2021-08-19T16:48:53Z</time>
      </trkpt>
      <trkpt lat="46.17071" lon="5.74047">
        <ele>664.5</ele>
        <time>2021-08-19T16:48:54Z</time>
      </trkpt>
      <trkpt lat="46.17067" lon="5.74036">
        <ele>665</ele>
        <time>2021-08-19T16:48:55Z</time>
      </trkpt>
      <trkpt lat="46.17066" lon="5.74032">
        <ele>665.1</ele>
        <time>2021-08-19T16:48:57Z</time>
      </trkpt>
      <trkpt lat="46.17065" lon="5.7403">
        <ele>665.2</ele>
        <time>2021-08-19T16:48:58Z</time>
      </trkpt>
      <trkpt lat="46.17064" lon="5.74026">
        <ele>665.4</ele>
        <time>2021-08-19T16:49:00Z</time>
      </trkpt>
      <trkpt lat="46.17062" lon="5.74023">
        <ele>665.5</ele>
        <time>2021-08-19T16:49:01Z</time>
      </trkpt>
      <trkpt lat="46.17062" lon="5.74022">
        <ele>665.5</ele>
        <time>2021-08-19T16:49:03Z</time>
      </trkpt>
      <trkpt lat="46.17061" lon="5.7402">
        <ele>665.6</ele>
        <time>2021-08-19T16:49:04Z</time>
      </trkpt>
      <trkpt lat="46.17061" lon="5.74019">
        <ele>665.6</ele>
        <time>2021-08-19T16:49:05Z</time>
      </trkpt>
      <trkpt lat="46.1706" lon="5.74018">
        <ele>665.7</ele>
        <time>2021-08-19T16:49:06Z</time>
      </trkpt>
      <trkpt lat="46.1706" lon="5.74017">
        <ele>665.7</ele>
        <time>2021-08-19T16:49:07Z</time>
      </trkpt>
      <trkpt lat="46.1706" lon="5.74015">
        <ele>665.8</ele>
        <time>2021-08-19T16:49:09Z</time>
      </trkpt>
      <trkpt lat="46.17059" lon="5.74014">
        <ele>665.9</ele>
        <time>2021-08-19T16:49:10Z</time>
      </trkpt>
      <trkpt lat="46.17058" lon="5.74012">
        <ele>666</ele>
        <time>2021-08-19T16:49:11Z</time>
      </trkpt>
      <trkpt lat="46.17057" lon="5.74011">
        <ele>666</ele>
        <time>2021-08-19T16:49:12Z</time>
      </trkpt>
      <trkpt lat="46.17057" lon="5.7401">
        <ele>666</ele>
        <time>2021-08-19T16:49:14Z</time>
      </trkpt>
      <trkpt lat="46.17056" lon="5.74009">
        <ele>666.1</ele>
        <time>2021-08-19T16:49:15Z</time>
      </trkpt>
      <trkpt lat="46.17054" lon="5.74007">
        <ele>666.2</ele>
        <time>2021-08-19T16:49:16Z</time>
      </trkpt>
      <trkpt lat="46.17053" lon="5.74007">
        <ele>666.3</ele>
        <time>2021-08-19T16:49:17Z</time>
      </trkpt>
      <trkpt lat="46.17045" lon="5.74002">
        <ele>666.7</ele>
        <time>2021-08-19T16:49:19Z</time>
      </trkpt>
      <trkpt lat="46.17042" lon="5.74">
        <ele>666.9</ele>
        <time>2021-08-19T16:49:20Z</time>
      </trkpt>
      <trkpt lat="46.17039" lon="5.73998">
        <ele>667.1</ele>
        <time>2021-08-19T16:49:22Z</time>
      </trkpt>
      <trkpt lat="46.17037" lon="5.73997">
        <ele>667.2</ele>
        <time>2021-08-19T16:49:24Z</time>
      </trkpt>
      <trkpt lat="46.17037" lon="5.73998">
        <ele>667.2</ele>
        <time>2021-08-19T16:49:25Z</time>
      </trkpt>
      <trkpt lat="46.17037" lon="5.73998">
        <ele>667.2</ele>
        <time>2021-08-19T16:49:26Z</time>
      </trkpt>
      <trkpt lat="46.17036" lon="5.73998">
        <ele>667.2</ele>
        <time>2021-08-19T16:49:28Z</time>
      </trkpt>
      <trkpt lat="46.17036" lon="5.73998">
        <ele>667.3</ele>
        <time>2021-08-19T16:49:30Z</time>
      </trkpt>
      <trkpt lat="46.17035" lon="5.73998">
        <ele>667.3</ele>
        <time>2021-08-19T16:49:31Z</time>
      </trkpt>
      <trkpt lat="46.17034" lon="5.73997">
        <ele>667.4</ele>
        <time>2021-08-19T16:49:32Z</time>
      </trkpt>
      <trkpt lat="46.17033" lon="5.73995">
        <ele>667.5</ele>
        <time>2021-08-19T16:49:33Z</time>
      </trkpt>
      <trkpt lat="46.17031" lon="5.73992">
        <ele>667.6</ele>
        <time>2021-08-19T16:49:34Z</time>
      </trkpt>
      <trkpt lat="46.1703" lon="5.73991">
        <ele>667.7</ele>
        <time>2021-08-19T16:49:35Z</time>
      </trkpt>
      <trkpt lat="46.17029" lon="5.73988">
        <ele>667.8</ele>
        <time>2021-08-19T16:49:36Z</time>
      </trkpt>
      <trkpt lat="46.17027" lon="5.73986">
        <ele>667.9</ele>
        <time>2021-08-19T16:49:38Z</time>
      </trkpt>
      <trkpt lat="46.17025" lon="5.7398">
        <ele>668.2</ele>
        <time>2021-08-19T16:49:39Z</time>
      </trkpt>
      <trkpt lat="46.17023" lon="5.73975">
        <ele>668.4</ele>
        <time>2021-08-19T16:49:40Z</time>
      </trkpt>
      <trkpt lat="46.17022" lon="5.73969">
        <ele>668.5</ele>
        <time>2021-08-19T16:49:41Z</time>
      </trkpt>
      <trkpt lat="46.17019" lon="5.73959">
        <ele>668.9</ele>
        <time>2021-08-19T16:49:42Z</time>
      </trkpt>
      <trkpt lat="46.17018" lon="5.73954">
        <ele>669.1</ele>
        <time>2021-08-19T16:49:44Z</time>
      </trkpt>
      <trkpt lat="46.17016" lon="5.7395">
        <ele>669.2</ele>
        <time>2021-08-19T16:49:46Z</time>
      </trkpt>
      <trkpt lat="46.17015" lon="5.73949">
        <ele>669.3</ele>
        <time>2021-08-19T16:49:47Z</time>
      </trkpt>
      <trkpt lat="46.17015" lon="5.73947">
        <ele>669.3</ele>
        <time>2021-08-19T16:49:49Z</time>
      </trkpt>
      <trkpt lat="46.17015" lon="5.73947">
        <ele>669.3</ele>
        <time>2021-08-19T16:49:50Z</time>
      </trkpt>
      <trkpt lat="46.17014" lon="5.73947">
        <ele>669.4</ele>
        <time>2021-08-19T16:49:52Z</time>
      </trkpt>
      <trkpt lat="46.17014" lon="5.73946">
        <ele>669.4</ele>
        <time>2021-08-19T16:49:53Z</time>
      </trkpt>
      <trkpt lat="46.17014" lon="5.73946">
        <ele>669.4</ele>
        <time>2021-08-19T16:49:54Z</time>
      </trkpt>
      <trkpt lat="46.17014" lon="5.73947">
        <ele>669.4</ele>
        <time>2021-08-19T16:49:55Z</time>
      </trkpt>
      <trkpt lat="46.17013" lon="5.73949">
        <ele>669.5</ele>
        <time>2021-08-19T16:49:56Z</time>
      </trkpt>
      <trkpt lat="46.17013" lon="5.7395">
        <ele>669.5</ele>
        <time>2021-08-19T16:49:57Z</time>
      </trkpt>
      <trkpt lat="46.17013" lon="5.73951">
        <ele>669.6</ele>
        <time>2021-08-19T16:49:58Z</time>
      </trkpt>
      <trkpt lat="46.17013" lon="5.73953">
        <ele>669.6</ele>
        <time>2021-08-19T16:50:00Z</time>
      </trkpt>
      <trkpt lat="46.17012" lon="5.73955">
        <ele>669.7</ele>
        <time>2021-08-19T16:50:01Z</time>
      </trkpt>
      <trkpt lat="46.17012" lon="5.73956">
        <ele>669.7</ele>
        <time>2021-08-19T16:50:03Z</time>
      </trkpt>
      <trkpt lat="46.17011" lon="5.73956">
        <ele>669.8</ele>
        <time>2021-08-19T16:50:04Z</time>
      </trkpt>
      <trkpt lat="46.1701" lon="5.73957">
        <ele>669.8</ele>
        <time>2021-08-19T16:50:06Z</time>
      </trkpt>
      <trkpt lat="46.17009" lon="5.73957">
        <ele>669.9</ele>
        <time>2021-08-19T16:50:07Z</time>
      </trkpt>
      <trkpt lat="46.17008" lon="5.73957">
        <ele>669.9</ele>
        <time>2021-08-19T16:50:09Z</time>
      </trkpt>
      <trkpt lat="46.17007" lon="5.73957">
        <ele>669.9</ele>
        <time>2021-08-19T16:50:10Z</time>
      </trkpt>
      <trkpt lat="46.17007" lon="5.73956">
        <ele>670</ele>
        <time>2021-08-19T16:50:11Z</time>
      </trkpt>
      <trkpt lat="46.17002" lon="5.73954">
        <ele>670.2</ele>
        <time>2021-08-19T16:50:13Z</time>
      </trkpt>
      <trkpt lat="46.16997" lon="5.7395">
        <ele>670.5</ele>
        <time>2021-08-19T16:50:14Z</time>
      </trkpt>
      <trkpt lat="46.16994" lon="5.73947">
        <ele>670.7</ele>
        <time>2021-08-19T16:50:15Z</time>
      </trkpt>
      <trkpt lat="46.16992" lon="5.73945">
        <ele>670.9</ele>
        <time>2021-08-19T16:50:16Z</time>
      </trkpt>
      <trkpt lat="46.16989" lon="5.73943">
        <ele>671.1</ele>
        <time>2021-08-19T16:50:17Z</time>
      </trkpt>
      <trkpt lat="46.16988" lon="5.73942">
        <ele>671.2</ele>
        <time>2021-08-19T16:50:19Z</time>
      </trkpt>
      <trkpt lat="46.16987" lon="5.73941">
        <ele>671.2</ele>
        <time>2021-08-19T16:50:20Z</time>
      </trkpt>
      <trkpt lat="46.16976" lon="5.73931">
        <ele>672</ele>
        <time>2021-08-19T16:50:21Z</time>
      </trkpt>
      <trkpt lat="46.16973" lon="5.73928">
        <ele>672.2</ele>
        <time>2021-08-19T16:50:23Z</time>
      </trkpt>
      <trkpt lat="46.16971" lon="5.73924">
        <ele>672.3</ele>
        <time>2021-08-19T16:50:24Z</time>
      </trkpt>
      <trkpt lat="46.16969" lon="5.73919">
        <ele>672.6</ele>
        <time>2021-08-19T16:50:25Z</time>
      </trkpt>
      <trkpt lat="46.16968" lon="5.73914">
        <ele>672.8</ele>
        <time>2021-08-19T16:50:26Z</time>
      </trkpt>
      <trkpt lat="46.16967" lon="5.73909">
        <ele>672.9</ele>
        <time>2021-08-19T16:50:27Z</time>
      </trkpt>
      <trkpt lat="46.16966" lon="5.73904">
        <ele>673.2</ele>
        <time>2021-08-19T16:50:29Z</time>
      </trkpt>
      <trkpt lat="46.16965" lon="5.73903">
        <ele>673.2</ele>
        <time>2021-08-19T16:50:30Z</time>
      </trkpt>
      <trkpt lat="46.16965" lon="5.73902">
        <ele>673.2</ele>
        <time>2021-08-19T16:50:31Z</time>
      </trkpt>
      <trkpt lat="46.16965" lon="5.739">
        <ele>673.3</ele>
        <time>2021-08-19T16:50:32Z</time>
      </trkpt>
      <trkpt lat="46.16965" lon="5.73886">
        <ele>673.9</ele>
        <time>2021-08-19T16:50:33Z</time>
      </trkpt>
      <trkpt lat="46.16965" lon="5.73876">
        <ele>674.3</ele>
        <time>2021-08-19T16:50:34Z</time>
      </trkpt>
      <trkpt lat="46.16965" lon="5.73871">
        <ele>674.5</ele>
        <time>2021-08-19T16:50:36Z</time>
      </trkpt>
      <trkpt lat="46.16966" lon="5.7387">
        <ele>674.6</ele>
        <time>2021-08-19T16:50:37Z</time>
      </trkpt>
      <trkpt lat="46.16966" lon="5.73867">
        <ele>674.7</ele>
        <time>2021-08-19T16:50:39Z</time>
      </trkpt>
      <trkpt lat="46.16966" lon="5.73865">
        <ele>674.8</ele>
        <time>2021-08-19T16:50:40Z</time>
      </trkpt>
      <trkpt lat="46.16966" lon="5.73864">
        <ele>674.8</ele>
        <time>2021-08-19T16:50:42Z</time>
      </trkpt>
      <trkpt lat="46.16966" lon="5.73862">
        <ele>674.9</ele>
        <time>2021-08-19T16:50:43Z</time>
      </trkpt>
      <trkpt lat="46.16966" lon="5.73856">
        <ele>675.1</ele>
        <time>2021-08-19T16:50:45Z</time>
      </trkpt>
      <trkpt lat="46.16965" lon="5.73853">
        <ele>675.3</ele>
        <time>2021-08-19T16:50:46Z</time>
      </trkpt>
      <trkpt lat="46.16966" lon="5.73849">
        <ele>675.5</ele>
        <time>2021-08-19T16:50:48Z</time>
      </trkpt>
      <trkpt lat="46.16967" lon="5.73848">
        <ele>675.5</ele>
        <time>2021-08-19T16:50:50Z</time>
      </trkpt>
      <trkpt lat="46.16967" lon="5.73848">
        <ele>675.5</ele>
        <time>2021-08-19T16:50:51Z</time>
      </trkpt>
      <trkpt lat="46.16966" lon="5.73846">
        <ele>675.6</ele>
        <time>2021-08-19T16:50:52Z</time>
      </trkpt>
      <trkpt lat="46.16965" lon="5.73845">
        <ele>675.6</ele>
        <time>2021-08-19T16:50:53Z</time>
      </trkpt>
      <trkpt lat="46.16965" lon="5.73843">
        <ele>675.7</ele>
        <time>2021-08-19T16:50:54Z</time>
      </trkpt>
      <trkpt lat="46.16963" lon="5.73839">
        <ele>675.9</ele>
        <time>2021-08-19T16:50:56Z</time>
      </trkpt>
      <trkpt lat="46.16961" lon="5.73836">
        <ele>676.1</ele>
        <time>2021-08-19T16:50:57Z</time>
      </trkpt>
      <trkpt lat="46.16961" lon="5.73835">
        <ele>676.1</ele>
        <time>2021-08-19T16:50:58Z</time>
      </trkpt>
      <trkpt lat="46.16959" lon="5.73834">
        <ele>676.2</ele>
        <time>2021-08-19T16:50:59Z</time>
      </trkpt>
      <trkpt lat="46.16959" lon="5.73833">
        <ele>676.2</ele>
        <time>2021-08-19T16:51:01Z</time>
      </trkpt>
      <trkpt lat="46.16958" lon="5.73832">
        <ele>676.3</ele>
        <time>2021-08-19T16:51:02Z</time>
      </trkpt>
      <trkpt lat="46.16957" lon="5.7383">
        <ele>676.4</ele>
        <time>2021-08-19T16:51:03Z</time>
      </trkpt>
      <trkpt lat="46.16955" lon="5.73829">
        <ele>676.5</ele>
        <time>2021-08-19T16:51:05Z</time>
      </trkpt>
      <trkpt lat="46.16953" lon="5.73826">
        <ele>676.7</ele>
        <time>2021-08-19T16:51:07Z</time>
      </trkpt>
      <trkpt lat="46.16918" lon="5.73782">
        <ele>679.2</ele>
        <time>2021-08-19T16:51:25Z</time>
      </trkpt>
      <trkpt lat="46.16915" lon="5.73779">
        <ele>679.4</ele>
        <time>2021-08-19T16:51:27Z</time>
      </trkpt>
      <trkpt lat="46.16914" lon="5.73778">
        <ele>679.4</ele>
        <time>2021-08-19T16:51:29Z</time>
      </trkpt>
      <trkpt lat="46.16914" lon="5.73776">
        <ele>679.5</ele>
        <time>2021-08-19T16:51:30Z</time>
      </trkpt>
      <trkpt lat="46.16911" lon="5.73771">
        <ele>679.7</ele>
        <time>2021-08-19T16:51:32Z</time>
      </trkpt>
      <trkpt lat="46.1691" lon="5.73767">
        <ele>679.8</ele>
        <time>2021-08-19T16:51:33Z</time>
      </trkpt>
      <trkpt lat="46.16909" lon="5.73761">
        <ele>680</ele>
        <time>2021-08-19T16:51:35Z</time>
      </trkpt>
      <trkpt lat="46.16908" lon="5.73758">
        <ele>680.2</ele>
        <time>2021-08-19T16:51:36Z</time>
      </trkpt>
      <trkpt lat="46.16907" lon="5.73756">
        <ele>680.2</ele>
        <time>2021-08-19T16:51:38Z</time>
      </trkpt>
      <trkpt lat="46.16907" lon="5.73753">
        <ele>680.3</ele>
        <time>2021-08-19T16:51:39Z</time>
      </trkpt>
      <trkpt lat="46.16906" lon="5.73748">
        <ele>680.5</ele>
        <time>2021-08-19T16:51:41Z</time>
      </trkpt>
      <trkpt lat="46.16905" lon="5.73746">
        <ele>680.5</ele>
        <time>2021-08-19T16:51:42Z</time>
      </trkpt>
      <trkpt lat="46.16905" lon="5.73746">
        <ele>680.5</ele>
        <time>2021-08-19T16:51:42Z</time>
      </trkpt>
      <trkpt lat="46.16902" lon="5.73739">
        <ele>680.8</ele>
        <time>2021-08-19T16:51:44Z</time>
      </trkpt>
      <trkpt lat="46.16901" lon="5.73735">
        <ele>680.9</ele>
        <time>2021-08-19T16:51:45Z</time>
      </trkpt>
      <trkpt lat="46.169" lon="5.73732">
        <ele>681.1</ele>
        <time>2021-08-19T16:51:46Z</time>
      </trkpt>
      <trkpt lat="46.16898" lon="5.73729">
        <ele>681.2</ele>
        <time>2021-08-19T16:51:47Z</time>
      </trkpt>
      <trkpt lat="46.16894" lon="5.73723">
        <ele>681.5</ele>
        <time>2021-08-19T16:51:49Z</time>
      </trkpt>
      <trkpt lat="46.16891" lon="5.73718">
        <ele>681.7</ele>
        <time>2021-08-19T16:51:51Z</time>
      </trkpt>
      <trkpt lat="46.16889" lon="5.73713">
        <ele>681.9</ele>
        <time>2021-08-19T16:51:53Z</time>
      </trkpt>
      <trkpt lat="46.1689" lon="5.73712">
        <ele>682</ele>
        <time>2021-08-19T16:51:54Z</time>
      </trkpt>
      <trkpt lat="46.1689" lon="5.73711">
        <ele>682.1</ele>
        <time>2021-08-19T16:51:56Z</time>
      </trkpt>
      <trkpt lat="46.1689" lon="5.7371">
        <ele>682.1</ele>
        <time>2021-08-19T16:51:57Z</time>
      </trkpt>
      <trkpt lat="46.16891" lon="5.73708">
        <ele>682.2</ele>
        <time>2021-08-19T16:51:59Z</time>
      </trkpt>
      <trkpt lat="46.16891" lon="5.73707">
        <ele>682.2</ele>
        <time>2021-08-19T16:52:00Z</time>
      </trkpt>
      <trkpt lat="46.16891" lon="5.73706">
        <ele>682.3</ele>
        <time>2021-08-19T16:52:01Z</time>
      </trkpt>
      <trkpt lat="46.16892" lon="5.73705">
        <ele>682.3</ele>
        <time>2021-08-19T16:52:02Z</time>
      </trkpt>
      <trkpt lat="46.16893" lon="5.73704">
        <ele>682.4</ele>
        <time>2021-08-19T16:52:03Z</time>
      </trkpt>
      <trkpt lat="46.16893" lon="5.73704">
        <ele>682.4</ele>
        <time>2021-08-19T16:52:05Z</time>
      </trkpt>
      <trkpt lat="46.16893" lon="5.73704">
        <ele>682.4</ele>
        <time>2021-08-19T16:52:06Z</time>
      </trkpt>
      <trkpt lat="46.16893" lon="5.73703">
        <ele>682.4</ele>
        <time>2021-08-19T16:52:08Z</time>
      </trkpt>
      <trkpt lat="46.16893" lon="5.73701">
        <ele>682.5</ele>
        <time>2021-08-19T16:52:09Z</time>
      </trkpt>
      <trkpt lat="46.16893" lon="5.73699">
        <ele>682.6</ele>
        <time>2021-08-19T16:52:10Z</time>
      </trkpt>
      <trkpt lat="46.16892" lon="5.7369">
        <ele>683</ele>
        <time>2021-08-19T16:52:15Z</time>
      </trkpt>
      <trkpt lat="46.16891" lon="5.73682">
        <ele>683.3</ele>
        <time>2021-08-19T16:52:17Z</time>
      </trkpt>
      <trkpt lat="46.1689" lon="5.73675">
        <ele>683.7</ele>
        <time>2021-08-19T16:52:19Z</time>
      </trkpt>
      <trkpt lat="46.16889" lon="5.73666">
        <ele>684</ele>
        <time>2021-08-19T16:52:20Z</time>
      </trkpt>
      <trkpt lat="46.16888" lon="5.73662">
        <ele>684.2</ele>
        <time>2021-08-19T16:52:22Z</time>
      </trkpt>
      <trkpt lat="46.16885" lon="5.73655">
        <ele>684.5</ele>
        <time>2021-08-19T16:52:24Z</time>
      </trkpt>
      <trkpt lat="46.16885" lon="5.73649">
        <ele>684.7</ele>
        <time>2021-08-19T16:52:26Z</time>
      </trkpt>
      <trkpt lat="46.16884" lon="5.73644">
        <ele>684.9</ele>
        <time>2021-08-19T16:52:28Z</time>
      </trkpt>
      <trkpt lat="46.16884" lon="5.7364">
        <ele>685.1</ele>
        <time>2021-08-19T16:52:29Z</time>
      </trkpt>
      <trkpt lat="46.16884" lon="5.73637">
        <ele>685.2</ele>
        <time>2021-08-19T16:52:31Z</time>
      </trkpt>
      <trkpt lat="46.16884" lon="5.73635">
        <ele>685.2</ele>
        <time>2021-08-19T16:52:32Z</time>
      </trkpt>
      <trkpt lat="46.16885" lon="5.73634">
        <ele>685.3</ele>
        <time>2021-08-19T16:52:33Z</time>
      </trkpt>
      <trkpt lat="46.16885" lon="5.73632">
        <ele>685.3</ele>
        <time>2021-08-19T16:52:35Z</time>
      </trkpt>
      <trkpt lat="46.16884" lon="5.73628">
        <ele>685.4</ele>
        <time>2021-08-19T16:52:37Z</time>
      </trkpt>
      <trkpt lat="46.16883" lon="5.73623">
        <ele>685.6</ele>
        <time>2021-08-19T16:52:38Z</time>
      </trkpt>
      <trkpt lat="46.16882" lon="5.73619">
        <ele>685.8</ele>
        <time>2021-08-19T16:52:41Z</time>
      </trkpt>
      <trkpt lat="46.16881" lon="5.73615">
        <ele>685.9</ele>
        <time>2021-08-19T16:52:42Z</time>
      </trkpt>
      <trkpt lat="46.16881" lon="5.73611">
        <ele>686</ele>
        <time>2021-08-19T16:52:44Z</time>
      </trkpt>
      <trkpt lat="46.16882" lon="5.7361">
        <ele>686</ele>
        <time>2021-08-19T16:52:45Z</time>
      </trkpt>
      <trkpt lat="46.16882" lon="5.73605">
        <ele>686.2</ele>
        <time>2021-08-19T16:52:46Z</time>
      </trkpt>
      <trkpt lat="46.16883" lon="5.73604">
        <ele>686.2</ele>
        <time>2021-08-19T16:52:47Z</time>
      </trkpt>
      <trkpt lat="46.16882" lon="5.73602">
        <ele>686.3</ele>
        <time>2021-08-19T16:52:48Z</time>
      </trkpt>
      <trkpt lat="46.16881" lon="5.73598">
        <ele>686.4</ele>
        <time>2021-08-19T16:52:50Z</time>
      </trkpt>
      <trkpt lat="46.1688" lon="5.73594">
        <ele>686.5</ele>
        <time>2021-08-19T16:52:51Z</time>
      </trkpt>
      <trkpt lat="46.16879" lon="5.73591">
        <ele>686.5</ele>
        <time>2021-08-19T16:52:52Z</time>
      </trkpt>
      <trkpt lat="46.16879" lon="5.73587">
        <ele>686.6</ele>
        <time>2021-08-19T16:52:54Z</time>
      </trkpt>
      <trkpt lat="46.16877" lon="5.73581">
        <ele>686.8</ele>
        <time>2021-08-19T16:52:55Z</time>
      </trkpt>
      <trkpt lat="46.16876" lon="5.73577">
        <ele>686.9</ele>
        <time>2021-08-19T16:52:57Z</time>
      </trkpt>
      <trkpt lat="46.16876" lon="5.73573">
        <ele>687</ele>
        <time>2021-08-19T16:52:58Z</time>
      </trkpt>
      <trkpt lat="46.16873" lon="5.73566">
        <ele>687.1</ele>
        <time>2021-08-19T16:53:00Z</time>
      </trkpt>
      <trkpt lat="46.16871" lon="5.73563">
        <ele>687.2</ele>
        <time>2021-08-19T16:53:01Z</time>
      </trkpt>
      <trkpt lat="46.16867" lon="5.73559">
        <ele>687.4</ele>
        <time>2021-08-19T16:53:02Z</time>
      </trkpt>
      <trkpt lat="46.16865" lon="5.73552">
        <ele>687.5</ele>
        <time>2021-08-19T16:53:04Z</time>
      </trkpt>
      <trkpt lat="46.16865" lon="5.7355">
        <ele>687.6</ele>
        <time>2021-08-19T16:53:05Z</time>
      </trkpt>
      <trkpt lat="46.16864" lon="5.73547">
        <ele>687.6</ele>
        <time>2021-08-19T16:53:06Z</time>
      </trkpt>
      <trkpt lat="46.16861" lon="5.73541">
        <ele>687.8</ele>
        <time>2021-08-19T16:53:08Z</time>
      </trkpt>
      <trkpt lat="46.1686" lon="5.7354">
        <ele>687.8</ele>
        <time>2021-08-19T16:53:10Z</time>
      </trkpt>
      <trkpt lat="46.16859" lon="5.73538">
        <ele>687.9</ele>
        <time>2021-08-19T16:53:11Z</time>
      </trkpt>
      <trkpt lat="46.16855" lon="5.73536">
        <ele>688</ele>
        <time>2021-08-19T16:53:13Z</time>
      </trkpt>
      <trkpt lat="46.16851" lon="5.73534">
        <ele>688.2</ele>
        <time>2021-08-19T16:53:15Z</time>
      </trkpt>
      <trkpt lat="46.16847" lon="5.73533">
        <ele>688.3</ele>
        <time>2021-08-19T16:53:16Z</time>
      </trkpt>
      <trkpt lat="46.16843" lon="5.73534">
        <ele>688.5</ele>
        <time>2021-08-19T16:53:18Z</time>
      </trkpt>
      <trkpt lat="46.16841" lon="5.73535">
        <ele>688.6</ele>
        <time>2021-08-19T16:53:20Z</time>
      </trkpt>
      <trkpt lat="46.1684" lon="5.73535">
        <ele>688.6</ele>
        <time>2021-08-19T16:53:21Z</time>
      </trkpt>
      <trkpt lat="46.16839" lon="5.73534">
        <ele>688.7</ele>
        <time>2021-08-19T16:53:23Z</time>
      </trkpt>
      <trkpt lat="46.16838" lon="5.73532">
        <ele>688.7</ele>
        <time>2021-08-19T16:53:24Z</time>
      </trkpt>
      <trkpt lat="46.16839" lon="5.73531">
        <ele>688.8</ele>
        <time>2021-08-19T16:53:26Z</time>
      </trkpt>
      <trkpt lat="46.16839" lon="5.7353">
        <ele>688.8</ele>
        <time>2021-08-19T16:53:27Z</time>
      </trkpt>
      <trkpt lat="46.16839" lon="5.7353">
        <ele>688.8</ele>
        <time>2021-08-19T16:53:29Z</time>
      </trkpt>
      <trkpt lat="46.16839" lon="5.73529">
        <ele>688.8</ele>
        <time>2021-08-19T16:53:30Z</time>
      </trkpt>
      <trkpt lat="46.16839" lon="5.73533">
        <ele>689</ele>
        <time>2021-08-19T16:53:32Z</time>
      </trkpt>
      <trkpt lat="46.16838" lon="5.73535">
        <ele>689</ele>
        <time>2021-08-19T16:53:34Z</time>
      </trkpt>
      <trkpt lat="46.16795" lon="5.73377">
        <ele>695</ele>
        <time>2021-08-19T16:54:52Z</time>
      </trkpt>
      <trkpt lat="46.16795" lon="5.73372">
        <ele>695.2</ele>
        <time>2021-08-19T16:54:53Z</time>
      </trkpt>
      <trkpt lat="46.16795" lon="5.73365">
        <ele>695.4</ele>
        <time>2021-08-19T16:54:54Z</time>
      </trkpt>
      <trkpt lat="46.16795" lon="5.73363">
        <ele>695.5</ele>
        <time>2021-08-19T16:54:55Z</time>
      </trkpt>
      <trkpt lat="46.16794" lon="5.73357">
        <ele>695.7</ele>
        <time>2021-08-19T16:54:56Z</time>
      </trkpt>
      <trkpt lat="46.16793" lon="5.73351">
        <ele>696</ele>
        <time>2021-08-19T16:54:58Z</time>
      </trkpt>
      <trkpt lat="46.16792" lon="5.73346">
        <ele>696.1</ele>
        <time>2021-08-19T16:54:59Z</time>
      </trkpt>
      <trkpt lat="46.16791" lon="5.73343">
        <ele>696.2</ele>
        <time>2021-08-19T16:55:00Z</time>
      </trkpt>
      <trkpt lat="46.1679" lon="5.73341">
        <ele>696.4</ele>
        <time>2021-08-19T16:55:02Z</time>
      </trkpt>
      <trkpt lat="46.16788" lon="5.73338">
        <ele>696.5</ele>
        <time>2021-08-19T16:55:03Z</time>
      </trkpt>
      <trkpt lat="46.16787" lon="5.73337">
        <ele>696.6</ele>
        <time>2021-08-19T16:55:04Z</time>
      </trkpt>
      <trkpt lat="46.16785" lon="5.73335">
        <ele>696.7</ele>
        <time>2021-08-19T16:55:05Z</time>
      </trkpt>
      <trkpt lat="46.16784" lon="5.73334">
        <ele>696.8</ele>
        <time>2021-08-19T16:55:06Z</time>
      </trkpt>
      <trkpt lat="46.1678" lon="5.73329">
        <ele>697.1</ele>
        <time>2021-08-19T16:55:08Z</time>
      </trkpt>
      <trkpt lat="46.16775" lon="5.73325">
        <ele>697.3</ele>
        <time>2021-08-19T16:55:10Z</time>
      </trkpt>
      <trkpt lat="46.16774" lon="5.73323">
        <ele>697.4</ele>
        <time>2021-08-19T16:55:11Z</time>
      </trkpt>
      <trkpt lat="46.16773" lon="5.73318">
        <ele>697.6</ele>
        <time>2021-08-19T16:55:13Z</time>
      </trkpt>
      <trkpt lat="46.16773" lon="5.73315">
        <ele>697.7</ele>
        <time>2021-08-19T16:55:15Z</time>
      </trkpt>
      <trkpt lat="46.16773" lon="5.73314">
        <ele>697.7</ele>
        <time>2021-08-19T16:55:16Z</time>
      </trkpt>
      <trkpt lat="46.16772" lon="5.73314">
        <ele>697.8</ele>
        <time>2021-08-19T16:55:17Z</time>
      </trkpt>
      <trkpt lat="46.16771" lon="5.73314">
        <ele>697.8</ele>
        <time>2021-08-19T16:55:18Z</time>
      </trkpt>
      <trkpt lat="46.16771" lon="5.73314">
        <ele>697.8</ele>
        <time>2021-08-19T16:55:19Z</time>
      </trkpt>
      <trkpt lat="46.16771" lon="5.73314">
        <ele>697.8</ele>
        <time>2021-08-19T16:55:20Z</time>
      </trkpt>
      <trkpt lat="46.16771" lon="5.73314">
        <ele>697.8</ele>
        <time>2021-08-19T16:55:22Z</time>
      </trkpt>
      <trkpt lat="46.16722" lon="5.73237">
        <ele>701.4</ele>
        <time>2021-08-19T16:56:28Z</time>
      </trkpt>
      <trkpt lat="46.16721" lon="5.73233">
        <ele>701.6</ele>
        <time>2021-08-19T16:56:29Z</time>
      </trkpt>
      <trkpt lat="46.1672" lon="5.73229">
        <ele>701.8</ele>
        <time>2021-08-19T16:56:30Z</time>
      </trkpt>
      <trkpt lat="46.16718" lon="5.7322">
        <ele>702.1</ele>
        <time>2021-08-19T16:56:32Z</time>
      </trkpt>
      <trkpt lat="46.16716" lon="5.73215">
        <ele>702.4</ele>
        <time>2021-08-19T16:56:34Z</time>
      </trkpt>
      <trkpt lat="46.16718" lon="5.7321">
        <ele>702.6</ele>
        <time>2021-08-19T16:56:35Z</time>
      </trkpt>
      <trkpt lat="46.16718" lon="5.73208">
        <ele>702.7</ele>
        <time>2021-08-19T16:56:36Z</time>
      </trkpt>
      <trkpt lat="46.16719" lon="5.73202">
        <ele>702.9</ele>
        <time>2021-08-19T16:56:37Z</time>
      </trkpt>
      <trkpt lat="46.16719" lon="5.732">
        <ele>702.9</ele>
        <time>2021-08-19T16:56:38Z</time>
      </trkpt>
      <trkpt lat="46.16717" lon="5.73195">
        <ele>703.2</ele>
        <time>2021-08-19T16:56:40Z</time>
      </trkpt>
      <trkpt lat="46.16716" lon="5.73193">
        <ele>703.2</ele>
        <time>2021-08-19T16:56:41Z</time>
      </trkpt>
      <trkpt lat="46.16715" lon="5.73192">
        <ele>703.3</ele>
        <time>2021-08-19T16:56:42Z</time>
      </trkpt>
      <trkpt lat="46.16715" lon="5.7319">
        <ele>703.4</ele>
        <time>2021-08-19T16:56:43Z</time>
      </trkpt>
      <trkpt lat="46.16713" lon="5.73187">
        <ele>703.5</ele>
        <time>2021-08-19T16:56:45Z</time>
      </trkpt>
      <trkpt lat="46.16712" lon="5.73185">
        <ele>703.6</ele>
        <time>2021-08-19T16:56:46Z</time>
      </trkpt>
      <trkpt lat="46.16712" lon="5.73184">
        <ele>703.7</ele>
        <time>2021-08-19T16:56:47Z</time>
      </trkpt>
      <trkpt lat="46.16711" lon="5.73183">
        <ele>703.7</ele>
        <time>2021-08-19T16:56:48Z</time>
      </trkpt>
      <trkpt lat="46.16711" lon="5.73182">
        <ele>703.8</ele>
        <time>2021-08-19T16:56:49Z</time>
      </trkpt>
      <trkpt lat="46.16709" lon="5.73179">
        <ele>703.9</ele>
        <time>2021-08-19T16:56:51Z</time>
      </trkpt>
      <trkpt lat="46.16708" lon="5.73177">
        <ele>704</ele>
        <time>2021-08-19T16:56:52Z</time>
      </trkpt>
      <trkpt lat="46.16568" lon="5.72649">
        <ele>727.8</ele>
        <time>2021-08-19T17:00:58Z</time>
      </trkpt>
      <trkpt lat="46.16567" lon="5.72647">
        <ele>727.9</ele>
        <time>2021-08-19T17:00:59Z</time>
      </trkpt>
      <trkpt lat="46.16566" lon="5.72646">
        <ele>728</ele>
        <time>2021-08-19T17:01:01Z</time>
      </trkpt>
      <trkpt lat="46.16565" lon="5.72644">
        <ele>728.1</ele>
        <time>2021-08-19T17:01:02Z</time>
      </trkpt>
      <trkpt lat="46.16566" lon="5.72641">
        <ele>728.2</ele>
        <time>2021-08-19T17:01:03Z</time>
      </trkpt>
      <trkpt lat="46.16567" lon="5.72635">
        <ele>728.5</ele>
        <time>2021-08-19T17:01:05Z</time>
      </trkpt>
      <trkpt lat="46.16568" lon="5.72633">
        <ele>728.6</ele>
        <time>2021-08-19T17:01:06Z</time>
      </trkpt>
      <trkpt lat="46.16568" lon="5.72631">
        <ele>728.7</ele>
        <time>2021-08-19T17:01:07Z</time>
      </trkpt>
      <trkpt lat="46.16567" lon="5.72628">
        <ele>728.8</ele>
        <time>2021-08-19T17:01:08Z</time>
      </trkpt>
      <trkpt lat="46.16567" lon="5.72625">
        <ele>728.9</ele>
        <time>2021-08-19T17:01:10Z</time>
      </trkpt>
      <trkpt lat="46.16567" lon="5.72623">
        <ele>729</ele>
        <time>2021-08-19T17:01:11Z</time>
      </trkpt>
      <trkpt lat="46.16568" lon="5.72622">
        <ele>729.1</ele>
        <time>2021-08-19T17:01:12Z</time>
      </trkpt>
      <trkpt lat="46.16568" lon="5.72621">
        <ele>729.1</ele>
        <time>2021-08-19T17:01:13Z</time>
      </trkpt>
      <trkpt lat="46.16568" lon="5.72622">
        <ele>729.1</ele>
        <time>2021-08-19T17:01:14Z</time>
      </trkpt>
      <trkpt lat="46.16568" lon="5.72622">
        <ele>729.1</ele>
        <time>2021-08-19T17:01:16Z</time>
      </trkpt>
      <trkpt lat="46.16568" lon="5.72622">
        <ele>729.2</ele>
        <time>2021-08-19T17:01:17Z</time>
      </trkpt>
      <trkpt lat="46.16568" lon="5.72624">
        <ele>729.2</ele>
        <time>2021-08-19T17:01:18Z</time>
      </trkpt>
      <trkpt lat="46.16568" lon="5.72624">
        <ele>729.2</ele>
        <time>2021-08-19T17:01:19Z</time>
      </trkpt>
      <trkpt lat="46.16567" lon="5.72624">
        <ele>729.3</ele>
        <time>2021-08-19T17:01:20Z</time>
      </trkpt>
      <trkpt lat="46.16566" lon="5.72625">
        <ele>729.3</ele>
        <time>2021-08-19T17:01:21Z</time>
      </trkpt>
      <trkpt lat="46.16565" lon="5.72624">
        <ele>729.4</ele>
        <time>2021-08-19T17:01:23Z</time>
      </trkpt>
      <trkpt lat="46.16563" lon="5.72623">
        <ele>729.5</ele>
        <time>2021-08-19T17:01:24Z</time>
      </trkpt>
      <trkpt lat="46.16561" lon="5.72622">
        <ele>729.6</ele>
        <time>2021-08-19T17:01:25Z</time>
      </trkpt>
      <trkpt lat="46.1656" lon="5.72621">
        <ele>729.7</ele>
        <time>2021-08-19T17:01:26Z</time>
      </trkpt>
      <trkpt lat="46.16559" lon="5.72619">
        <ele>729.8</ele>
        <time>2021-08-19T17:01:27Z</time>
      </trkpt>
      <trkpt lat="46.16558" lon="5.72618">
        <ele>729.9</ele>
        <time>2021-08-19T17:01:29Z</time>
      </trkpt>
      <trkpt lat="46.16557" lon="5.72618">
        <ele>730</ele>
        <time>2021-08-19T17:01:30Z</time>
      </trkpt>
      <trkpt lat="46.1652" lon="5.72558">
        <ele>733</ele>
        <time>2021-08-19T17:02:12Z</time>
      </trkpt>
      <trkpt lat="46.16518" lon="5.72555">
        <ele>733.1</ele>
        <time>2021-08-19T17:02:13Z</time>
      </trkpt>
      <trkpt lat="46.16516" lon="5.72552">
        <ele>733.3</ele>
        <time>2021-08-19T17:02:14Z</time>
      </trkpt>
      <trkpt lat="46.16513" lon="5.7255">
        <ele>733.5</ele>
        <time>2021-08-19T17:02:16Z</time>
      </trkpt>
      <trkpt lat="46.16511" lon="5.72549">
        <ele>733.6</ele>
        <time>2021-08-19T17:02:17Z</time>
      </trkpt>
      <trkpt lat="46.16511" lon="5.72549">
        <ele>733.7</ele>
        <time>2021-08-19T17:02:18Z</time>
      </trkpt>
      <trkpt lat="46.1651" lon="5.72549">
        <ele>733.7</ele>
        <time>2021-08-19T17:02:19Z</time>
      </trkpt>
      <trkpt lat="46.1651" lon="5.72548">
        <ele>733.7</ele>
        <time>2021-08-19T17:02:20Z</time>
      </trkpt>
      <trkpt lat="46.1651" lon="5.72547">
        <ele>733.7</ele>
        <time>2021-08-19T17:02:21Z</time>
      </trkpt>
      <trkpt lat="46.1651" lon="5.72546">
        <ele>733.8</ele>
        <time>2021-08-19T17:02:23Z</time>
      </trkpt>
      <trkpt lat="46.1651" lon="5.72545">
        <ele>733.8</ele>
        <time>2021-08-19T17:02:24Z</time>
      </trkpt>
      <trkpt lat="46.1651" lon="5.72542">
        <ele>734</ele>
        <time>2021-08-19T17:02:25Z</time>
      </trkpt>
      <trkpt lat="46.1651" lon="5.7254">
        <ele>734</ele>
        <time>2021-08-19T17:02:26Z</time>
      </trkpt>
      <trkpt lat="46.1651" lon="5.72539">
        <ele>734.1</ele>
        <time>2021-08-19T17:02:27Z</time>
      </trkpt>
      <trkpt lat="46.1651" lon="5.72537">
        <ele>734.2</ele>
        <time>2021-08-19T17:02:28Z</time>
      </trkpt>
      <trkpt lat="46.16431" lon="5.72328">
        <ele>744.3</ele>
        <time>2021-08-19T17:04:01Z</time>
      </trkpt>
      <trkpt lat="46.1643" lon="5.72324">
        <ele>744.5</ele>
        <time>2021-08-19T17:04:02Z</time>
      </trkpt>
      <trkpt lat="46.16426" lon="5.72317">
        <ele>744.8</ele>
        <time>2021-08-19T17:04:04Z</time>
      </trkpt>
      <trkpt lat="46.16424" lon="5.72313">
        <ele>745</ele>
        <time>2021-08-19T17:04:05Z</time>
      </trkpt>
      <trkpt lat="46.16423" lon="5.72311">
        <ele>745</ele>
        <time>2021-08-19T17:04:06Z</time>
      </trkpt>
      <trkpt lat="46.1642" lon="5.72306">
        <ele>745.3</ele>
        <time>2021-08-19T17:04:08Z</time>
      </trkpt>
      <trkpt lat="46.16419" lon="5.72304">
        <ele>745.4</ele>
        <time>2021-08-19T17:04:09Z</time>
      </trkpt>
      <trkpt lat="46.16418" lon="5.72298">
        <ele>745.6</ele>
        <time>2021-08-19T17:04:11Z</time>
      </trkpt>
      <trkpt lat="46.16418" lon="5.72292">
        <ele>745.9</ele>
        <time>2021-08-19T17:04:13Z</time>
      </trkpt>
      <trkpt lat="46.1642" lon="5.72287">
        <ele>746.1</ele>
        <time>2021-08-19T17:04:14Z</time>
      </trkpt>
      <trkpt lat="46.1642" lon="5.72285">
        <ele>746.1</ele>
        <time>2021-08-19T17:04:15Z</time>
      </trkpt>
      <trkpt lat="46.16421" lon="5.72282">
        <ele>746.3</ele>
        <time>2021-08-19T17:04:16Z</time>
      </trkpt>
      <trkpt lat="46.16424" lon="5.72276">
        <ele>746.5</ele>
        <time>2021-08-19T17:04:18Z</time>
      </trkpt>
      <trkpt lat="46.16426" lon="5.72272">
        <ele>746.7</ele>
        <time>2021-08-19T17:04:19Z</time>
      </trkpt>
      <trkpt lat="46.16428" lon="5.72265">
        <ele>747</ele>
        <time>2021-08-19T17:04:21Z</time>
      </trkpt>
      <trkpt lat="46.16428" lon="5.72265">
        <ele>747</ele>
        <time>2021-08-19T17:04:22Z</time>
      </trkpt>
      <trkpt lat="46.16425" lon="5.72263">
        <ele>747.2</ele>
        <time>2021-08-19T17:04:24Z</time>
      </trkpt>
      <trkpt lat="46.16422" lon="5.72263">
        <ele>747.3</ele>
        <time>2021-08-19T17:04:25Z</time>
      </trkpt>
      <trkpt lat="46.16417" lon="5.72263">
        <ele>747.6</ele>
        <time>2021-08-19T17:04:27Z</time>
      </trkpt>
      <trkpt lat="46.16415" lon="5.72262">
        <ele>747.7</ele>
        <time>2021-08-19T17:04:28Z</time>
      </trkpt>
      <trkpt lat="46.16412" lon="5.72259">
        <ele>747.9</ele>
        <time>2021-08-19T17:04:30Z</time>
      </trkpt>
      <trkpt lat="46.16411" lon="5.72258">
        <ele>748</ele>
        <time>2021-08-19T17:04:31Z</time>
      </trkpt>
      <trkpt lat="46.1641" lon="5.72257">
        <ele>748</ele>
        <time>2021-08-19T17:04:32Z</time>
      </trkpt>
      <trkpt lat="46.16406" lon="5.72253">
        <ele>748.3</ele>
        <time>2021-08-19T17:04:34Z</time>
      </trkpt>
      <trkpt lat="46.16405" lon="5.72251">
        <ele>748.4</ele>
        <time>2021-08-19T17:04:35Z</time>
      </trkpt>
      <trkpt lat="46.16404" lon="5.7225">
        <ele>748.4</ele>
        <time>2021-08-19T17:04:36Z</time>
      </trkpt>
      <trkpt lat="46.164" lon="5.72245">
        <ele>748.7</ele>
        <time>2021-08-19T17:04:38Z</time>
      </trkpt>
      <trkpt lat="46.16398" lon="5.72243">
        <ele>748.8</ele>
        <time>2021-08-19T17:04:39Z</time>
      </trkpt>
      <trkpt lat="46.16397" lon="5.72241">
        <ele>748.9</ele>
        <time>2021-08-19T17:04:40Z</time>
      </trkpt>
      <trkpt lat="46.16394" lon="5.72236">
        <ele>749.2</ele>
        <time>2021-08-19T17:04:42Z</time>
      </trkpt>
      <trkpt lat="46.1639" lon="5.7223">
        <ele>749.5</ele>
        <time>2021-08-19T17:04:44Z</time>
      </trkpt>
      <trkpt lat="46.16388" lon="5.72226">
        <ele>749.7</ele>
        <time>2021-08-19T17:04:45Z</time>
      </trkpt>
      <trkpt lat="46.16383" lon="5.7222">
        <ele>750</ele>
        <time>2021-08-19T17:04:46Z</time>
      </trkpt>
      <trkpt lat="46.16382" lon="5.72217">
        <ele>750.2</ele>
        <time>2021-08-19T17:04:48Z</time>
      </trkpt>
      <trkpt lat="46.16381" lon="5.72212">
        <ele>750.4</ele>
        <time>2021-08-19T17:04:49Z</time>
      </trkpt>
      <trkpt lat="46.1638" lon="5.72209">
        <ele>750.5</ele>
        <time>2021-08-19T17:04:50Z</time>
      </trkpt>
      <trkpt lat="46.1638" lon="5.72208">
        <ele>750.5</ele>
        <time>2021-08-19T17:04:52Z</time>
      </trkpt>
      <trkpt lat="46.16379" lon="5.72204">
        <ele>750.7</ele>
        <time>2021-08-19T17:04:54Z</time>
      </trkpt>
      <trkpt lat="46.16377" lon="5.722">
        <ele>750.9</ele>
        <time>2021-08-19T17:04:56Z</time>
      </trkpt>
      <trkpt lat="46.16376" lon="5.72197">
        <ele>751</ele>
        <time>2021-08-19T17:04:58Z</time>
      </trkpt>
      <trkpt lat="46.16375" lon="5.72195">
        <ele>751.1</ele>
        <time>2021-08-19T17:04:59Z</time>
      </trkpt>
      <trkpt lat="46.16373" lon="5.72192">
        <ele>751.2</ele>
        <time>2021-08-19T17:05:00Z</time>
      </trkpt>
      <trkpt lat="46.16372" lon="5.72188">
        <ele>751.4</ele>
        <time>2021-08-19T17:05:02Z</time>
      </trkpt>
      <trkpt lat="46.1637" lon="5.72185">
        <ele>751.5</ele>
        <time>2021-08-19T17:05:03Z</time>
      </trkpt>
      <trkpt lat="46.16367" lon="5.72181">
        <ele>751.7</ele>
        <time>2021-08-19T17:05:05Z</time>
      </trkpt>
      <trkpt lat="46.16366" lon="5.72179">
        <ele>751.8</ele>
        <time>2021-08-19T17:05:06Z</time>
      </trkpt>
      <trkpt lat="46.16365" lon="5.72177">
        <ele>751.9</ele>
        <time>2021-08-19T17:05:07Z</time>
      </trkpt>
      <trkpt lat="46.16363" lon="5.72174">
        <ele>752</ele>
        <time>2021-08-19T17:05:09Z</time>
      </trkpt>
      <trkpt lat="46.16361" lon="5.7217">
        <ele>752.2</ele>
        <time>2021-08-19T17:05:10Z</time>
      </trkpt>
      <trkpt lat="46.1636" lon="5.72169">
        <ele>752.2</ele>
        <time>2021-08-19T17:05:11Z</time>
      </trkpt>
      <trkpt lat="46.16358" lon="5.72163">
        <ele>752.5</ele>
        <time>2021-08-19T17:05:12Z</time>
      </trkpt>
      <trkpt lat="46.16357" lon="5.72161">
        <ele>752.6</ele>
        <time>2021-08-19T17:05:13Z</time>
      </trkpt>
      <trkpt lat="46.16354" lon="5.72157">
        <ele>752.8</ele>
        <time>2021-08-19T17:05:15Z</time>
      </trkpt>
      <trkpt lat="46.16353" lon="5.72157">
        <ele>752.8</ele>
        <time>2021-08-19T17:05:16Z</time>
      </trkpt>
      <trkpt lat="46.16353" lon="5.72157">
        <ele>752.8</ele>
        <time>2021-08-19T17:05:17Z</time>
      </trkpt>
      <trkpt lat="46.16352" lon="5.72157">
        <ele>752.9</ele>
        <time>2021-08-19T17:05:19Z</time>
      </trkpt>
      <trkpt lat="46.16351" lon="5.72157">
        <ele>752.9</ele>
        <time>2021-08-19T17:05:20Z</time>
      </trkpt>
      <trkpt lat="46.1635" lon="5.72156">
        <ele>753</ele>
        <time>2021-08-19T17:05:22Z</time>
      </trkpt>
      <trkpt lat="46.16348" lon="5.72154">
        <ele>753.1</ele>
        <time>2021-08-19T17:05:23Z</time>
      </trkpt>
      <trkpt lat="46.16345" lon="5.7215">
        <ele>753.3</ele>
        <time>2021-08-19T17:05:25Z</time>
      </trkpt>
      <trkpt lat="46.16345" lon="5.72148">
        <ele>753.4</ele>
        <time>2021-08-19T17:05:26Z</time>
      </trkpt>
      <trkpt lat="46.16341" lon="5.72145">
        <ele>753.6</ele>
        <time>2021-08-19T17:05:28Z</time>
      </trkpt>
      <trkpt lat="46.16339" lon="5.72144">
        <ele>753.7</ele>
        <time>2021-08-19T17:05:29Z</time>
      </trkpt>
      <trkpt lat="46.16337" lon="5.72144">
        <ele>753.8</ele>
        <time>2021-08-19T17:05:31Z</time>
      </trkpt>
      <trkpt lat="46.16335" lon="5.72142">
        <ele>753.9</ele>
        <time>2021-08-19T17:05:32Z</time>
      </trkpt>
      <trkpt lat="46.16334" lon="5.7214">
        <ele>754</ele>
        <time>2021-08-19T17:05:33Z</time>
      </trkpt>
      <trkpt lat="46.16332" lon="5.72137">
        <ele>754.2</ele>
        <time>2021-08-19T17:05:34Z</time>
      </trkpt>
      <trkpt lat="46.16331" lon="5.72136">
        <ele>754.2</ele>
        <time>2021-08-19T17:05:35Z</time>
      </trkpt>
      <trkpt lat="46.16329" lon="5.72133">
        <ele>754.4</ele>
        <time>2021-08-19T17:05:37Z</time>
      </trkpt>
      <trkpt lat="46.16329" lon="5.72132">
        <ele>754.4</ele>
        <time>2021-08-19T17:05:38Z</time>
      </trkpt>
      <trkpt lat="46.1633" lon="5.72131">
        <ele>754.5</ele>
        <time>2021-08-19T17:05:40Z</time>
      </trkpt>
      <trkpt lat="46.1633" lon="5.7213">
        <ele>754.5</ele>
        <time>2021-08-19T17:05:41Z</time>
      </trkpt>
      <trkpt lat="46.16329" lon="5.72128">
        <ele>754.6</ele>
        <time>2021-08-19T17:05:42Z</time>
      </trkpt>
      <trkpt lat="46.16328" lon="5.72126">
        <ele>754.7</ele>
        <time>2021-08-19T17:05:44Z</time>
      </trkpt>
      <trkpt lat="46.16326" lon="5.72121">
        <ele>754.9</ele>
        <time>2021-08-19T17:05:46Z</time>
      </trkpt>
      <trkpt lat="46.16325" lon="5.7212">
        <ele>754.9</ele>
        <time>2021-08-19T17:05:47Z</time>
      </trkpt>
      <trkpt lat="46.16324" lon="5.72117">
        <ele>755.1</ele>
        <time>2021-08-19T17:05:48Z</time>
      </trkpt>
      <trkpt lat="46.16322" lon="5.72113">
        <ele>755.2</ele>
        <time>2021-08-19T17:05:49Z</time>
      </trkpt>
      <trkpt lat="46.1632" lon="5.7211">
        <ele>755.4</ele>
        <time>2021-08-19T17:05:50Z</time>
      </trkpt>
      <trkpt lat="46.16317" lon="5.72108">
        <ele>755.6</ele>
        <time>2021-08-19T17:05:52Z</time>
      </trkpt>
      <trkpt lat="46.16315" lon="5.72109">
        <ele>755.7</ele>
        <time>2021-08-19T17:05:53Z</time>
      </trkpt>
      <trkpt lat="46.16314" lon="5.7211">
        <ele>755.8</ele>
        <time>2021-08-19T17:05:54Z</time>
      </trkpt>
      <trkpt lat="46.16312" lon="5.72111">
        <ele>755.8</ele>
        <time>2021-08-19T17:05:56Z</time>
      </trkpt>
      <trkpt lat="46.1631" lon="5.7211">
        <ele>755.9</ele>
        <time>2021-08-19T17:05:57Z</time>
      </trkpt>
      <trkpt lat="46.16309" lon="5.72109">
        <ele>756</ele>
        <time>2021-08-19T17:05:59Z</time>
      </trkpt>
      <trkpt lat="46.16307" lon="5.72106">
        <ele>756.2</ele>
        <time>2021-08-19T17:06:01Z</time>
      </trkpt>
      <trkpt lat="46.16305" lon="5.72104">
        <ele>756.3</ele>
        <time>2021-08-19T17:06:02Z</time>
      </trkpt>
      <trkpt lat="46.16293" lon="5.72072">
        <ele>757.6</ele>
        <time>2021-08-19T17:06:17Z</time>
      </trkpt>
      <trkpt lat="46.16291" lon="5.72069">
        <ele>757.7</ele>
        <time>2021-08-19T17:06:18Z</time>
      </trkpt>
      <trkpt lat="46.1629" lon="5.72066">
        <ele>757.9</ele>
        <time>2021-08-19T17:06:20Z</time>
      </trkpt>
      <trkpt lat="46.1629" lon="5.72064">
        <ele>757.9</ele>
        <time>2021-08-19T17:06:22Z</time>
      </trkpt>
      <trkpt lat="46.1629" lon="5.72064">
        <ele>757.9</ele>
        <time>2021-08-19T17:06:23Z</time>
      </trkpt>
      <trkpt lat="46.16289" lon="5.72063">
        <ele>758</ele>
        <time>2021-08-19T17:06:24Z</time>
      </trkpt>
      <trkpt lat="46.16289" lon="5.72062">
        <ele>758</ele>
        <time>2021-08-19T17:06:27Z</time>
      </trkpt>
      <trkpt lat="46.16289" lon="5.72062">
        <ele>758</ele>
        <time>2021-08-19T17:06:29Z</time>
      </trkpt>
      <trkpt lat="46.16255" lon="5.72035">
        <ele>760.1</ele>
        <time>2021-08-19T17:07:31Z</time>
      </trkpt>
      <trkpt lat="46.16252" lon="5.72032">
        <ele>760.4</ele>
        <time>2021-08-19T17:07:33Z</time>
      </trkpt>
      <trkpt lat="46.16251" lon="5.72031">
        <ele>760.5</ele>
        <time>2021-08-19T17:07:34Z</time>
      </trkpt>
      <trkpt lat="46.1625" lon="5.72031">
        <ele>760.5</ele>
        <time>2021-08-19T17:07:35Z</time>
      </trkpt>
      <trkpt lat="46.16249" lon="5.72031">
        <ele>760.6</ele>
        <time>2021-08-19T17:07:36Z</time>
      </trkpt>
      <trkpt lat="46.16248" lon="5.72031">
        <ele>760.6</ele>
        <time>2021-08-19T17:07:38Z</time>
      </trkpt>
      <trkpt lat="46.16247" lon="5.72031">
        <ele>760.7</ele>
        <time>2021-08-19T17:07:40Z</time>
      </trkpt>
      <trkpt lat="46.16246" lon="5.72031">
        <ele>760.7</ele>
        <time>2021-08-19T17:07:41Z</time>
      </trkpt>
      <trkpt lat="46.16245" lon="5.72031">
        <ele>760.8</ele>
        <time>2021-08-19T17:07:42Z</time>
      </trkpt>
      <trkpt lat="46.16245" lon="5.72031">
        <ele>760.8</ele>
        <time>2021-08-19T17:07:44Z</time>
      </trkpt>
      <trkpt lat="46.16244" lon="5.72031">
        <ele>760.9</ele>
        <time>2021-08-19T17:07:45Z</time>
      </trkpt>
      <trkpt lat="46.16241" lon="5.7203">
        <ele>761</ele>
        <time>2021-08-19T17:07:47Z</time>
      </trkpt>
      <trkpt lat="46.1624" lon="5.72029">
        <ele>761.1</ele>
        <time>2021-08-19T17:07:48Z</time>
      </trkpt>
      <trkpt lat="46.16239" lon="5.72029">
        <ele>761.2</ele>
        <time>2021-08-19T17:07:50Z</time>
      </trkpt>
      <trkpt lat="46.16237" lon="5.72028">
        <ele>761.3</ele>
        <time>2021-08-19T17:07:51Z</time>
      </trkpt>
      <trkpt lat="46.16236" lon="5.72027">
        <ele>761.3</ele>
        <time>2021-08-19T17:07:52Z</time>
      </trkpt>
      <trkpt lat="46.16234" lon="5.72025">
        <ele>761.5</ele>
        <time>2021-08-19T17:07:53Z</time>
      </trkpt>
      <trkpt lat="46.16233" lon="5.72024">
        <ele>761.5</ele>
        <time>2021-08-19T17:07:54Z</time>
      </trkpt>
      <trkpt lat="46.16231" lon="5.72022">
        <ele>761.7</ele>
        <time>2021-08-19T17:07:56Z</time>
      </trkpt>
      <trkpt lat="46.16229" lon="5.7202">
        <ele>761.8</ele>
        <time>2021-08-19T17:07:57Z</time>
      </trkpt>
      <trkpt lat="46.16228" lon="5.72019">
        <ele>761.9</ele>
        <time>2021-08-19T17:07:58Z</time>
      </trkpt>
      <trkpt lat="46.16226" lon="5.72016">
        <ele>762.1</ele>
        <time>2021-08-19T17:07:59Z</time>
      </trkpt>
      <trkpt lat="46.16225" lon="5.72014">
        <ele>762.2</ele>
        <time>2021-08-19T17:08:02Z</time>
      </trkpt>
      <trkpt lat="46.16224" lon="5.72012">
        <ele>762.3</ele>
        <time>2021-08-19T17:08:04Z</time>
      </trkpt>
      <trkpt lat="46.16222" lon="5.7201">
        <ele>762.4</ele>
        <time>2021-08-19T17:08:05Z</time>
      </trkpt>
      <trkpt lat="46.16222" lon="5.7201">
        <ele>762.4</ele>
        <time>2021-08-19T17:08:07Z</time>
      </trkpt>
      <trkpt lat="46.16221" lon="5.72009">
        <ele>762.5</ele>
        <time>2021-08-19T17:08:08Z</time>
      </trkpt>
      <trkpt lat="46.16219" lon="5.72008">
        <ele>762.6</ele>
        <time>2021-08-19T17:08:10Z</time>
      </trkpt>
      <trkpt lat="46.16217" lon="5.72006">
        <ele>762.7</ele>
        <time>2021-08-19T17:08:11Z</time>
      </trkpt>
      <trkpt lat="46.16217" lon="5.72005">
        <ele>762.7</ele>
        <time>2021-08-19T17:08:12Z</time>
      </trkpt>
      <trkpt lat="46.16214" lon="5.72003">
        <ele>762.9</ele>
        <time>2021-08-19T17:08:14Z</time>
      </trkpt>
      <trkpt lat="46.16212" lon="5.71999">
        <ele>763</ele>
        <time>2021-08-19T17:08:16Z</time>
      </trkpt>
      <trkpt lat="46.16212" lon="5.71998">
        <ele>763.1</ele>
        <time>2021-08-19T17:08:17Z</time>
      </trkpt>
      <trkpt lat="46.16211" lon="5.71996">
        <ele>763.2</ele>
        <time>2021-08-19T17:08:18Z</time>
      </trkpt>
      <trkpt lat="46.16211" lon="5.71995">
        <ele>763.2</ele>
        <time>2021-08-19T17:08:19Z</time>
      </trkpt>
      <trkpt lat="46.1621" lon="5.71993">
        <ele>763.3</ele>
        <time>2021-08-19T17:08:20Z</time>
      </trkpt>
      <trkpt lat="46.16209" lon="5.71991">
        <ele>763.4</ele>
        <time>2021-08-19T17:08:22Z</time>
      </trkpt>
      <trkpt lat="46.16208" lon="5.7199">
        <ele>763.5</ele>
        <time>2021-08-19T17:08:23Z</time>
      </trkpt>
      <trkpt lat="46.16207" lon="5.71989">
        <ele>763.5</ele>
        <time>2021-08-19T17:08:24Z</time>
      </trkpt>
      <trkpt lat="46.16206" lon="5.71988">
        <ele>763.6</ele>
        <time>2021-08-19T17:08:25Z</time>
      </trkpt>
      <trkpt lat="46.16204" lon="5.71988">
        <ele>763.7</ele>
        <time>2021-08-19T17:08:26Z</time>
      </trkpt>
      <trkpt lat="46.16194" lon="5.71987">
        <ele>764.2</ele>
        <time>2021-08-19T17:08:28Z</time>
      </trkpt>
      <trkpt lat="46.1618" lon="5.71985">
        <ele>764.9</ele>
        <time>2021-08-19T17:08:29Z</time>
      </trkpt>
      <trkpt lat="46.16177" lon="5.71987">
        <ele>765.1</ele>
        <time>2021-08-19T17:08:31Z</time>
      </trkpt>
      <trkpt lat="46.16176" lon="5.71986">
        <ele>765.1</ele>
        <time>2021-08-19T17:08:32Z</time>
      </trkpt>
      <trkpt lat="46.16173" lon="5.71983">
        <ele>765.4</ele>
        <time>2021-08-19T17:08:34Z</time>
      </trkpt>
      <trkpt lat="46.16172" lon="5.71982">
        <ele>765.4</ele>
        <time>2021-08-19T17:08:35Z</time>
      </trkpt>
      <trkpt lat="46.16171" lon="5.71981">
        <ele>765.5</ele>
        <time>2021-08-19T17:08:36Z</time>
      </trkpt>
      <trkpt lat="46.1617" lon="5.7198">
        <ele>765.5</ele>
        <time>2021-08-19T17:08:37Z</time>
      </trkpt>
      <trkpt lat="46.16169" lon="5.71979">
        <ele>765.6</ele>
        <time>2021-08-19T17:08:39Z</time>
      </trkpt>
      <trkpt lat="46.16168" lon="5.71978">
        <ele>765.7</ele>
        <time>2021-08-19T17:08:40Z</time>
      </trkpt>
      <trkpt lat="46.16167" lon="5.71978">
        <ele>765.7</ele>
        <time>2021-08-19T17:08:41Z</time>
      </trkpt>
      <trkpt lat="46.16164" lon="5.71976">
        <ele>765.9</ele>
        <time>2021-08-19T17:08:42Z</time>
      </trkpt>
      <trkpt lat="46.16162" lon="5.71976">
        <ele>766</ele>
        <time>2021-08-19T17:08:43Z</time>
      </trkpt>
      <trkpt lat="46.16161" lon="5.71976">
        <ele>766.1</ele>
        <time>2021-08-19T17:08:44Z</time>
      </trkpt>
      <trkpt lat="46.1616" lon="5.71974">
        <ele>766.1</ele>
        <time>2021-08-19T17:08:45Z</time>
      </trkpt>
      <trkpt lat="46.16158" lon="5.71974">
        <ele>766.2</ele>
        <time>2021-08-19T17:08:46Z</time>
      </trkpt>
      <trkpt lat="46.16157" lon="5.71973">
        <ele>766.3</ele>
        <time>2021-08-19T17:08:48Z</time>
      </trkpt>
      <trkpt lat="46.16155" lon="5.71973">
        <ele>766.4</ele>
        <time>2021-08-19T17:08:49Z</time>
      </trkpt>
      <trkpt lat="46.16153" lon="5.71971">
        <ele>766.6</ele>
        <time>2021-08-19T17:08:50Z</time>
      </trkpt>
      <trkpt lat="46.16151" lon="5.71969">
        <ele>766.6</ele>
        <time>2021-08-19T17:08:51Z</time>
      </trkpt>
      <trkpt lat="46.1615" lon="5.71968">
        <ele>766.7</ele>
        <time>2021-08-19T17:08:52Z</time>
      </trkpt>
      <trkpt lat="46.1615" lon="5.71967">
        <ele>766.8</ele>
        <time>2021-08-19T17:08:53Z</time>
      </trkpt>
      <trkpt lat="46.16149" lon="5.71967">
        <ele>766.8</ele>
        <time>2021-08-19T17:08:54Z</time>
      </trkpt>
      <trkpt lat="46.16148" lon="5.71966">
        <ele>766.8</ele>
        <time>2021-08-19T17:08:55Z</time>
      </trkpt>
      <trkpt lat="46.16148" lon="5.71966">
        <ele>766.9</ele>
        <time>2021-08-19T17:08:56Z</time>
      </trkpt>
      <trkpt lat="46.16147" lon="5.71965">
        <ele>766.9</ele>
        <time>2021-08-19T17:08:58Z</time>
      </trkpt>
      <trkpt lat="46.16147" lon="5.71965">
        <ele>766.9</ele>
        <time>2021-08-19T17:08:59Z</time>
      </trkpt>
      <trkpt lat="46.16146" lon="5.71964">
        <ele>767</ele>
        <time>2021-08-19T17:09:00Z</time>
      </trkpt>
      <trkpt lat="46.16146" lon="5.71963">
        <ele>767</ele>
        <time>2021-08-19T17:09:01Z</time>
      </trkpt>
      <trkpt lat="46.16144" lon="5.71962">
        <ele>767.1</ele>
        <time>2021-08-19T17:09:02Z</time>
      </trkpt>
      <trkpt lat="46.16143" lon="5.71961">
        <ele>767.2</ele>
        <time>2021-08-19T17:09:03Z</time>
      </trkpt>
      <trkpt lat="46.1614" lon="5.71958">
        <ele>767.4</ele>
        <time>2021-08-19T17:09:04Z</time>
      </trkpt>
      <trkpt lat="46.1614" lon="5.71958">
        <ele>767.4</ele>
        <time>2021-08-19T17:09:05Z</time>
      </trkpt>
      <trkpt lat="46.16138" lon="5.71957">
        <ele>767.5</ele>
        <time>2021-08-19T17:09:07Z</time>
      </trkpt>
      <trkpt lat="46.16134" lon="5.71957">
        <ele>767.7</ele>
        <time>2021-08-19T17:09:09Z</time>
      </trkpt>
      <trkpt lat="46.16132" lon="5.71957">
        <ele>767.8</ele>
        <time>2021-08-19T17:09:10Z</time>
      </trkpt>
      <trkpt lat="46.16131" lon="5.71957">
        <ele>767.8</ele>
        <time>2021-08-19T17:09:11Z</time>
      </trkpt>
      <trkpt lat="46.16131" lon="5.71957">
        <ele>767.9</ele>
        <time>2021-08-19T17:09:13Z</time>
      </trkpt>
      <trkpt lat="46.16131" lon="5.71958">
        <ele>767.9</ele>
        <time>2021-08-19T17:09:14Z</time>
      </trkpt>
      <trkpt lat="46.16129" lon="5.7196">
        <ele>768</ele>
        <time>2021-08-19T17:09:16Z</time>
      </trkpt>
      <trkpt lat="46.16126" lon="5.71963">
        <ele>768.2</ele>
        <time>2021-08-19T17:09:18Z</time>
      </trkpt>
      <trkpt lat="46.16126" lon="5.71965">
        <ele>768.3</ele>
        <time>2021-08-19T17:09:19Z</time>
      </trkpt>
      <trkpt lat="46.16124" lon="5.71965">
        <ele>768.4</ele>
        <time>2021-08-19T17:09:20Z</time>
      </trkpt>
      <trkpt lat="46.16122" lon="5.71962">
        <ele>768.6</ele>
        <time>2021-08-19T17:09:22Z</time>
      </trkpt>
      <trkpt lat="46.16122" lon="5.71962">
        <ele>768.6</ele>
        <time>2021-08-19T17:09:23Z</time>
      </trkpt>
      <trkpt lat="46.16121" lon="5.7196">
        <ele>768.7</ele>
        <time>2021-08-19T17:09:24Z</time>
      </trkpt>
      <trkpt lat="46.1612" lon="5.71958">
        <ele>768.8</ele>
        <time>2021-08-19T17:09:25Z</time>
      </trkpt>
      <trkpt lat="46.16117" lon="5.71956">
        <ele>768.9</ele>
        <time>2021-08-19T17:09:27Z</time>
      </trkpt>
      <trkpt lat="46.16116" lon="5.71956">
        <ele>769</ele>
        <time>2021-08-19T17:09:28Z</time>
      </trkpt>
      <trkpt lat="46.16113" lon="5.71954">
        <ele>769.2</ele>
        <time>2021-08-19T17:09:30Z</time>
      </trkpt>
      <trkpt lat="46.16112" lon="5.71953">
        <ele>769.2</ele>
        <time>2021-08-19T17:09:31Z</time>
      </trkpt>
      <trkpt lat="46.1611" lon="5.71953">
        <ele>769.4</ele>
        <time>2021-08-19T17:09:32Z</time>
      </trkpt>
      <trkpt lat="46.16107" lon="5.71951">
        <ele>769.6</ele>
        <time>2021-08-19T17:09:34Z</time>
      </trkpt>
      <trkpt lat="46.16106" lon="5.7195">
        <ele>769.7</ele>
        <time>2021-08-19T17:09:35Z</time>
      </trkpt>
      <trkpt lat="46.16104" lon="5.71949">
        <ele>769.8</ele>
        <time>2021-08-19T17:09:36Z</time>
      </trkpt>
      <trkpt lat="46.16103" lon="5.7195">
        <ele>769.9</ele>
        <time>2021-08-19T17:09:37Z</time>
      </trkpt>
      <trkpt lat="46.16102" lon="5.71951">
        <ele>769.9</ele>
        <time>2021-08-19T17:09:38Z</time>
      </trkpt>
      <trkpt lat="46.16102" lon="5.71952">
        <ele>770</ele>
        <time>2021-08-19T17:09:40Z</time>
      </trkpt>
      <trkpt lat="46.16101" lon="5.71953">
        <ele>770</ele>
        <time>2021-08-19T17:09:41Z</time>
      </trkpt>
      <trkpt lat="46.16101" lon="5.71953">
        <ele>770</ele>
        <time>2021-08-19T17:09:42Z</time>
      </trkpt>
      <trkpt lat="46.161" lon="5.71955">
        <ele>770.1</ele>
        <time>2021-08-19T17:09:43Z</time>
      </trkpt>
      <trkpt lat="46.16098" lon="5.71956">
        <ele>770.2</ele>
        <time>2021-08-19T17:09:44Z</time>
      </trkpt>
      <trkpt lat="46.16097" lon="5.71957">
        <ele>770.3</ele>
        <time>2021-08-19T17:09:46Z</time>
      </trkpt>
      <trkpt lat="46.16097" lon="5.71957">
        <ele>770.3</ele>
        <time>2021-08-19T17:09:47Z</time>
      </trkpt>
      <trkpt lat="46.16056" lon="5.71944">
        <ele>772.7</ele>
        <time>2021-08-19T17:10:35Z</time>
      </trkpt>
      <trkpt lat="46.16053" lon="5.71941">
        <ele>773</ele>
        <time>2021-08-19T17:10:36Z</time>
      </trkpt>
      <trkpt lat="46.16045" lon="5.71931">
        <ele>773.5</ele>
        <time>2021-08-19T17:10:38Z</time>
      </trkpt>
      <trkpt lat="46.16041" lon="5.71928">
        <ele>773.8</ele>
        <time>2021-08-19T17:10:39Z</time>
      </trkpt>
      <trkpt lat="46.16035" lon="5.71922">
        <ele>774.1</ele>
        <time>2021-08-19T17:10:41Z</time>
      </trkpt>
      <trkpt lat="46.16033" lon="5.71919">
        <ele>774.3</ele>
        <time>2021-08-19T17:10:42Z</time>
      </trkpt>
      <trkpt lat="46.16031" lon="5.71913">
        <ele>774.6</ele>
        <time>2021-08-19T17:10:44Z</time>
      </trkpt>
      <trkpt lat="46.16028" lon="5.71908">
        <ele>774.8</ele>
        <time>2021-08-19T17:10:45Z</time>
      </trkpt>
      <trkpt lat="46.16026" lon="5.71907">
        <ele>774.9</ele>
        <time>2021-08-19T17:10:46Z</time>
      </trkpt>
      <trkpt lat="46.16022" lon="5.71904">
        <ele>775.1</ele>
        <time>2021-08-19T17:10:47Z</time>
      </trkpt>
      <trkpt lat="46.1602" lon="5.71902">
        <ele>775.3</ele>
        <time>2021-08-19T17:10:49Z</time>
      </trkpt>
      <trkpt lat="46.16018" lon="5.71899">
        <ele>775.4</ele>
        <time>2021-08-19T17:10:50Z</time>
      </trkpt>
      <trkpt lat="46.16015" lon="5.71895">
        <ele>775.6</ele>
        <time>2021-08-19T17:10:52Z</time>
      </trkpt>
      <trkpt lat="46.16013" lon="5.71891">
        <ele>775.8</ele>
        <time>2021-08-19T17:10:53Z</time>
      </trkpt>
      <trkpt lat="46.16011" lon="5.71888">
        <ele>776</ele>
        <time>2021-08-19T17:10:54Z</time>
      </trkpt>
      <trkpt lat="46.1601" lon="5.71883">
        <ele>776.1</ele>
        <time>2021-08-19T17:10:56Z</time>
      </trkpt>
      <trkpt lat="46.16009" lon="5.71882">
        <ele>776.2</ele>
        <time>2021-08-19T17:10:57Z</time>
      </trkpt>
      <trkpt lat="46.16008" lon="5.71882">
        <ele>776.3</ele>
        <time>2021-08-19T17:10:58Z</time>
      </trkpt>
      <trkpt lat="46.16005" lon="5.7188">
        <ele>776.4</ele>
        <time>2021-08-19T17:11:00Z</time>
      </trkpt>
      <trkpt lat="46.16002" lon="5.7188">
        <ele>776.6</ele>
        <time>2021-08-19T17:11:01Z</time>
      </trkpt>
      <trkpt lat="46.16002" lon="5.71879">
        <ele>776.6</ele>
        <time>2021-08-19T17:11:02Z</time>
      </trkpt>
      <trkpt lat="46.16002" lon="5.71879">
        <ele>776.6</ele>
        <time>2021-08-19T17:11:03Z</time>
      </trkpt>
      <trkpt lat="46.16002" lon="5.71878">
        <ele>776.6</ele>
        <time>2021-08-19T17:11:05Z</time>
      </trkpt>
      <trkpt lat="46.16001" lon="5.71878">
        <ele>776.6</ele>
        <time>2021-08-19T17:11:06Z</time>
      </trkpt>
      <trkpt lat="46.16" lon="5.71878">
        <ele>776.7</ele>
        <time>2021-08-19T17:11:07Z</time>
      </trkpt>
      <trkpt lat="46.15998" lon="5.71879">
        <ele>776.8</ele>
        <time>2021-08-19T17:11:08Z</time>
      </trkpt>
      <trkpt lat="46.15993" lon="5.71879">
        <ele>777.1</ele>
        <time>2021-08-19T17:11:10Z</time>
      </trkpt>
      <trkpt lat="46.15991" lon="5.71879">
        <ele>777.2</ele>
        <time>2021-08-19T17:11:12Z</time>
      </trkpt>
      <trkpt lat="46.15989" lon="5.71878">
        <ele>777.3</ele>
        <time>2021-08-19T17:11:13Z</time>
      </trkpt>
      <trkpt lat="46.15985" lon="5.71876">
        <ele>777.5</ele>
        <time>2021-08-19T17:11:15Z</time>
      </trkpt>
      <trkpt lat="46.15982" lon="5.71875">
        <ele>777.7</ele>
        <time>2021-08-19T17:11:16Z</time>
      </trkpt>
      <trkpt lat="46.15979" lon="5.71873">
        <ele>777.8</ele>
        <time>2021-08-19T17:11:17Z</time>
      </trkpt>
      <trkpt lat="46.15978" lon="5.71873">
        <ele>777.9</ele>
        <time>2021-08-19T17:11:18Z</time>
      </trkpt>
      <trkpt lat="46.15978" lon="5.71879">
        <ele>778.1</ele>
        <time>2021-08-19T17:11:20Z</time>
      </trkpt>
      <trkpt lat="46.15979" lon="5.71882">
        <ele>778.2</ele>
        <time>2021-08-19T17:11:21Z</time>
      </trkpt>
      <trkpt lat="46.15979" lon="5.71885">
        <ele>778.4</ele>
        <time>2021-08-19T17:11:23Z</time>
      </trkpt>
      <trkpt lat="46.15978" lon="5.71886">
        <ele>778.4</ele>
        <time>2021-08-19T17:11:24Z</time>
      </trkpt>
      <trkpt lat="46.15975" lon="5.71884">
        <ele>778.6</ele>
        <time>2021-08-19T17:11:26Z</time>
      </trkpt>
      <trkpt lat="46.15974" lon="5.71883">
        <ele>778.6</ele>
        <time>2021-08-19T17:11:27Z</time>
      </trkpt>
      <trkpt lat="46.15973" lon="5.71882">
        <ele>778.7</ele>
        <time>2021-08-19T17:11:28Z</time>
      </trkpt>
      <trkpt lat="46.15966" lon="5.71876">
        <ele>779.1</ele>
        <time>2021-08-19T17:11:33Z</time>
      </trkpt>
      <trkpt lat="46.15963" lon="5.7187">
        <ele>779.4</ele>
        <time>2021-08-19T17:11:34Z</time>
      </trkpt>
      <trkpt lat="46.15959" lon="5.71865">
        <ele>779.6</ele>
        <time>2021-08-19T17:11:35Z</time>
      </trkpt>
      <trkpt lat="46.15956" lon="5.7186">
        <ele>779.8</ele>
        <time>2021-08-19T17:11:36Z</time>
      </trkpt>
      <trkpt lat="46.15954" lon="5.71855">
        <ele>780</ele>
        <time>2021-08-19T17:11:37Z</time>
      </trkpt>
      <trkpt lat="46.1595" lon="5.71851">
        <ele>780.3</ele>
        <time>2021-08-19T17:11:39Z</time>
      </trkpt>
      <trkpt lat="46.15949" lon="5.71849">
        <ele>780.4</ele>
        <time>2021-08-19T17:11:40Z</time>
      </trkpt>
      <trkpt lat="46.15948" lon="5.71848">
        <ele>780.4</ele>
        <time>2021-08-19T17:11:41Z</time>
      </trkpt>
      <trkpt lat="46.15947" lon="5.71847">
        <ele>780.5</ele>
        <time>2021-08-19T17:11:42Z</time>
      </trkpt>
      <trkpt lat="46.15945" lon="5.71846">
        <ele>780.6</ele>
        <time>2021-08-19T17:11:43Z</time>
      </trkpt>
      <trkpt lat="46.15944" lon="5.71846">
        <ele>780.6</ele>
        <time>2021-08-19T17:11:45Z</time>
      </trkpt>
      <trkpt lat="46.15944" lon="5.71845">
        <ele>780.7</ele>
        <time>2021-08-19T17:11:46Z</time>
      </trkpt>
      <trkpt lat="46.15922" lon="5.71815">
        <ele>782.3</ele>
        <time>2021-08-19T17:12:04Z</time>
      </trkpt>
      <trkpt lat="46.15919" lon="5.71811">
        <ele>782.5</ele>
        <time>2021-08-19T17:12:06Z</time>
      </trkpt>
      <trkpt lat="46.15916" lon="5.71809">
        <ele>782.7</ele>
        <time>2021-08-19T17:12:07Z</time>
      </trkpt>
      <trkpt lat="46.15915" lon="5.71809">
        <ele>782.7</ele>
        <time>2021-08-19T17:12:08Z</time>
      </trkpt>
      <trkpt lat="46.15913" lon="5.71808">
        <ele>782.8</ele>
        <time>2021-08-19T17:12:10Z</time>
      </trkpt>
      <trkpt lat="46.15912" lon="5.71808">
        <ele>782.9</ele>
        <time>2021-08-19T17:12:11Z</time>
      </trkpt>
      <trkpt lat="46.15909" lon="5.71803">
        <ele>783.1</ele>
        <time>2021-08-19T17:12:13Z</time>
      </trkpt>
      <trkpt lat="46.15907" lon="5.718">
        <ele>783.3</ele>
        <time>2021-08-19T17:12:14Z</time>
      </trkpt>
      <trkpt lat="46.15904" lon="5.71795">
        <ele>783.6</ele>
        <time>2021-08-19T17:12:16Z</time>
      </trkpt>
      <trkpt lat="46.15902" lon="5.71791">
        <ele>783.7</ele>
        <time>2021-08-19T17:12:17Z</time>
      </trkpt>
      <trkpt lat="46.15902" lon="5.7179">
        <ele>783.8</ele>
        <time>2021-08-19T17:12:18Z</time>
      </trkpt>
      <trkpt lat="46.15899" lon="5.71788">
        <ele>784</ele>
        <time>2021-08-19T17:12:19Z</time>
      </trkpt>
      <trkpt lat="46.15898" lon="5.71787">
        <ele>784</ele>
        <time>2021-08-19T17:12:20Z</time>
      </trkpt>
      <trkpt lat="46.15897" lon="5.71788">
        <ele>784.1</ele>
        <time>2021-08-19T17:12:22Z</time>
      </trkpt>
      <trkpt lat="46.15895" lon="5.71788">
        <ele>784.2</ele>
        <time>2021-08-19T17:12:24Z</time>
      </trkpt>
      <trkpt lat="46.15893" lon="5.71788">
        <ele>784.3</ele>
        <time>2021-08-19T17:12:25Z</time>
      </trkpt>
      <trkpt lat="46.15892" lon="5.71788">
        <ele>784.4</ele>
        <time>2021-08-19T17:12:26Z</time>
      </trkpt>
      <trkpt lat="46.15889" lon="5.71786">
        <ele>784.6</ele>
        <time>2021-08-19T17:12:28Z</time>
      </trkpt>
      <trkpt lat="46.15886" lon="5.71787">
        <ele>784.7</ele>
        <time>2021-08-19T17:12:29Z</time>
      </trkpt>
      <trkpt lat="46.15882" lon="5.71789">
        <ele>784.9</ele>
        <time>2021-08-19T17:12:31Z</time>
      </trkpt>
      <trkpt lat="46.15881" lon="5.71791">
        <ele>785</ele>
        <time>2021-08-19T17:12:32Z</time>
      </trkpt>
      <trkpt lat="46.15876" lon="5.71792">
        <ele>785.3</ele>
        <time>2021-08-19T17:12:34Z</time>
      </trkpt>
      <trkpt lat="46.15873" lon="5.71791">
        <ele>785.4</ele>
        <time>2021-08-19T17:12:35Z</time>
      </trkpt>
      <trkpt lat="46.15872" lon="5.71791">
        <ele>785.5</ele>
        <time>2021-08-19T17:12:36Z</time>
      </trkpt>
      <trkpt lat="46.15868" lon="5.71786">
        <ele>785.8</ele>
        <time>2021-08-19T17:12:37Z</time>
      </trkpt>
      <trkpt lat="46.15866" lon="5.71783">
        <ele>785.9</ele>
        <time>2021-08-19T17:12:38Z</time>
      </trkpt>
      <trkpt lat="46.15863" lon="5.7178">
        <ele>786.1</ele>
        <time>2021-08-19T17:12:39Z</time>
      </trkpt>
      <trkpt lat="46.1586" lon="5.71777">
        <ele>786.3</ele>
        <time>2021-08-19T17:12:41Z</time>
      </trkpt>
      <trkpt lat="46.15858" lon="5.71774">
        <ele>786.5</ele>
        <time>2021-08-19T17:12:42Z</time>
      </trkpt>
      <trkpt lat="46.15855" lon="5.7177">
        <ele>786.7</ele>
        <time>2021-08-19T17:12:43Z</time>
      </trkpt>
      <trkpt lat="46.15853" lon="5.71769">
        <ele>786.8</ele>
        <time>2021-08-19T17:12:44Z</time>
      </trkpt>
      <trkpt lat="46.1585" lon="5.71766">
        <ele>787</ele>
        <time>2021-08-19T17:12:46Z</time>
      </trkpt>
      <trkpt lat="46.15846" lon="5.71763">
        <ele>787.3</ele>
        <time>2021-08-19T17:12:47Z</time>
      </trkpt>
      <trkpt lat="46.15843" lon="5.71761">
        <ele>787.5</ele>
        <time>2021-08-19T17:12:49Z</time>
      </trkpt>
      <trkpt lat="46.1584" lon="5.7176">
        <ele>787.6</ele>
        <time>2021-08-19T17:12:50Z</time>
      </trkpt>
      <trkpt lat="46.15839" lon="5.71759">
        <ele>787.7</ele>
        <time>2021-08-19T17:12:51Z</time>
      </trkpt>
      <trkpt lat="46.15836" lon="5.71757">
        <ele>787.8</ele>
        <time>2021-08-19T17:12:52Z</time>
      </trkpt>
      <trkpt lat="46.15833" lon="5.71756">
        <ele>788</ele>
        <time>2021-08-19T17:12:54Z</time>
      </trkpt>
      <trkpt lat="46.15828" lon="5.71752">
        <ele>788.3</ele>
        <time>2021-08-19T17:12:55Z</time>
      </trkpt>
      <trkpt lat="46.15826" lon="5.7175">
        <ele>788.4</ele>
        <time>2021-08-19T17:12:56Z</time>
      </trkpt>
      <trkpt lat="46.15823" lon="5.71747">
        <ele>788.5</ele>
        <time>2021-08-19T17:12:58Z</time>
      </trkpt>
      <trkpt lat="46.15822" lon="5.71744">
        <ele>788.7</ele>
        <time>2021-08-19T17:13:00Z</time>
      </trkpt>
      <trkpt lat="46.15822" lon="5.71744">
        <ele>788.7</ele>
        <time>2021-08-19T17:13:02Z</time>
      </trkpt>
      <trkpt lat="46.15822" lon="5.71744">
        <ele>788.7</ele>
        <time>2021-08-19T17:13:03Z</time>
      </trkpt>
      <trkpt lat="46.15821" lon="5.71744">
        <ele>788.7</ele>
        <time>2021-08-19T17:13:05Z</time>
      </trkpt>
      <trkpt lat="46.15821" lon="5.71744">
        <ele>788.7</ele>
        <time>2021-08-19T17:13:06Z</time>
      </trkpt>
      <trkpt lat="46.15821" lon="5.71744">
        <ele>788.8</ele>
        <time>2021-08-19T17:13:07Z</time>
      </trkpt>
      <trkpt lat="46.15821" lon="5.71745">
        <ele>788.8</ele>
        <time>2021-08-19T17:13:09Z</time>
      </trkpt>
      <trkpt lat="46.15821" lon="5.71746">
        <ele>788.8</ele>
        <time>2021-08-19T17:13:10Z</time>
      </trkpt>
      <trkpt lat="46.15821" lon="5.71747">
        <ele>788.8</ele>
        <time>2021-08-19T17:13:11Z</time>
      </trkpt>
      <trkpt lat="46.1582" lon="5.71747">
        <ele>788.9</ele>
        <time>2021-08-19T17:13:12Z</time>
      </trkpt>
      <trkpt lat="46.1582" lon="5.71747">
        <ele>788.9</ele>
        <time>2021-08-19T17:13:14Z</time>
      </trkpt>
      <trkpt lat="46.15819" lon="5.71748">
        <ele>788.9</ele>
        <time>2021-08-19T17:13:15Z</time>
      </trkpt>
      <trkpt lat="46.15775" lon="5.71751">
        <ele>790.6</ele>
        <time>2021-08-19T17:13:41Z</time>
      </trkpt>
      <trkpt lat="46.15771" lon="5.71751">
        <ele>790.7</ele>
        <time>2021-08-19T17:13:42Z</time>
      </trkpt>
      <trkpt lat="46.15766" lon="5.71748">
        <ele>790.8</ele>
        <time>2021-08-19T17:13:43Z</time>
      </trkpt>
      <trkpt lat="46.15762" lon="5.71746">
        <ele>790.8</ele>
        <time>2021-08-19T17:13:44Z</time>
      </trkpt>
      <trkpt lat="46.15758" lon="5.71742">
        <ele>790.9</ele>
        <time>2021-08-19T17:13:46Z</time>
      </trkpt>
      <trkpt lat="46.15754" lon="5.71739">
        <ele>791</ele>
        <time>2021-08-19T17:13:47Z</time>
      </trkpt>
      <trkpt lat="46.15748" lon="5.71737">
        <ele>791.1</ele>
        <time>2021-08-19T17:13:49Z</time>
      </trkpt>
      <trkpt lat="46.15745" lon="5.71735">
        <ele>791.1</ele>
        <time>2021-08-19T17:13:50Z</time>
      </trkpt>
      <trkpt lat="46.15741" lon="5.71733">
        <ele>791.2</ele>
        <time>2021-08-19T17:13:51Z</time>
      </trkpt>
      <trkpt lat="46.15736" lon="5.71728">
        <ele>791.3</ele>
        <time>2021-08-19T17:13:52Z</time>
      </trkpt>
      <trkpt lat="46.15732" lon="5.71725">
        <ele>791.3</ele>
        <time>2021-08-19T17:13:54Z</time>
      </trkpt>
      <trkpt lat="46.15725" lon="5.71718">
        <ele>791.5</ele>
        <time>2021-08-19T17:13:56Z</time>
      </trkpt>
      <trkpt lat="46.1572" lon="5.71713">
        <ele>791.6</ele>
        <time>2021-08-19T17:13:57Z</time>
      </trkpt>
      <trkpt lat="46.15715" lon="5.71708">
        <ele>791.7</ele>
        <time>2021-08-19T17:13:59Z</time>
      </trkpt>
      <trkpt lat="46.15712" lon="5.71705">
        <ele>791.8</ele>
        <time>2021-08-19T17:14:00Z</time>
      </trkpt>
      <trkpt lat="46.15708" lon="5.717">
        <ele>791.9</ele>
        <time>2021-08-19T17:14:01Z</time>
      </trkpt>
      <trkpt lat="46.15705" lon="5.71696">
        <ele>792</ele>
        <time>2021-08-19T17:14:02Z</time>
      </trkpt>
      <trkpt lat="46.15701" lon="5.71693">
        <ele>792.1</ele>
        <time>2021-08-19T17:14:04Z</time>
      </trkpt>
      <trkpt lat="46.15699" lon="5.71692">
        <ele>792.2</ele>
        <time>2021-08-19T17:14:05Z</time>
      </trkpt>
      <trkpt lat="46.15696" lon="5.71687">
        <ele>792.4</ele>
        <time>2021-08-19T17:14:07Z</time>
      </trkpt>
      <trkpt lat="46.15692" lon="5.71684">
        <ele>792.5</ele>
        <time>2021-08-19T17:14:09Z</time>
      </trkpt>
      <trkpt lat="46.15689" lon="5.71682">
        <ele>792.7</ele>
        <time>2021-08-19T17:14:10Z</time>
      </trkpt>
      <trkpt lat="46.15686" lon="5.71678">
        <ele>792.8</ele>
        <time>2021-08-19T17:14:11Z</time>
      </trkpt>
      <trkpt lat="46.15683" lon="5.71679">
        <ele>792.9</ele>
        <time>2021-08-19T17:14:13Z</time>
      </trkpt>
      <trkpt lat="46.15682" lon="5.71679">
        <ele>793</ele>
        <time>2021-08-19T17:14:14Z</time>
      </trkpt>
      <trkpt lat="46.1568" lon="5.71681">
        <ele>793.1</ele>
        <time>2021-08-19T17:14:15Z</time>
      </trkpt>
      <trkpt lat="46.15678" lon="5.71683">
        <ele>793.2</ele>
        <time>2021-08-19T17:14:17Z</time>
      </trkpt>
      <trkpt lat="46.15676" lon="5.71684">
        <ele>793.3</ele>
        <time>2021-08-19T17:14:18Z</time>
      </trkpt>
      <trkpt lat="46.15672" lon="5.71685">
        <ele>793.6</ele>
        <time>2021-08-19T17:14:20Z</time>
      </trkpt>
      <trkpt lat="46.1567" lon="5.71682">
        <ele>793.7</ele>
        <time>2021-08-19T17:14:21Z</time>
      </trkpt>
      <trkpt lat="46.15666" lon="5.71674">
        <ele>794.1</ele>
        <time>2021-08-19T17:14:23Z</time>
      </trkpt>
      <trkpt lat="46.15665" lon="5.7167">
        <ele>794.3</ele>
        <time>2021-08-19T17:14:24Z</time>
      </trkpt>
      <trkpt lat="46.1566" lon="5.71662">
        <ele>794.7</ele>
        <time>2021-08-19T17:14:26Z</time>
      </trkpt>
      <trkpt lat="46.15658" lon="5.71657">
        <ele>795</ele>
        <time>2021-08-19T17:14:27Z</time>
      </trkpt>
      <trkpt lat="46.15656" lon="5.71653">
        <ele>795.2</ele>
        <time>2021-08-19T17:14:28Z</time>
      </trkpt>
      <trkpt lat="46.15654" lon="5.71649">
        <ele>795.5</ele>
        <time>2021-08-19T17:14:29Z</time>
      </trkpt>
      <trkpt lat="46.15653" lon="5.71648">
        <ele>795.5</ele>
        <time>2021-08-19T17:14:30Z</time>
      </trkpt>
      <trkpt lat="46.15652" lon="5.71645">
        <ele>795.7</ele>
        <time>2021-08-19T17:14:31Z</time>
      </trkpt>
      <trkpt lat="46.15651" lon="5.71642">
        <ele>795.8</ele>
        <time>2021-08-19T17:14:33Z</time>
      </trkpt>
      <trkpt lat="46.15648" lon="5.71638">
        <ele>796.1</ele>
        <time>2021-08-19T17:14:35Z</time>
      </trkpt>
      <trkpt lat="46.15647" lon="5.71636">
        <ele>796.2</ele>
        <time>2021-08-19T17:14:36Z</time>
      </trkpt>
      <trkpt lat="46.15642" lon="5.71631">
        <ele>796.6</ele>
        <time>2021-08-19T17:14:38Z</time>
      </trkpt>
      <trkpt lat="46.1564" lon="5.71628">
        <ele>796.8</ele>
        <time>2021-08-19T17:14:39Z</time>
      </trkpt>
      <trkpt lat="46.15639" lon="5.71625">
        <ele>796.9</ele>
        <time>2021-08-19T17:14:41Z</time>
      </trkpt>
      <trkpt lat="46.15638" lon="5.71624">
        <ele>797</ele>
        <time>2021-08-19T17:14:42Z</time>
      </trkpt>
      <trkpt lat="46.15636" lon="5.71621">
        <ele>797.2</ele>
        <time>2021-08-19T17:14:44Z</time>
      </trkpt>
      <trkpt lat="46.15633" lon="5.71618">
        <ele>797.5</ele>
        <time>2021-08-19T17:14:45Z</time>
      </trkpt>
      <trkpt lat="46.1563" lon="5.71615">
        <ele>797.7</ele>
        <time>2021-08-19T17:14:47Z</time>
      </trkpt>
      <trkpt lat="46.15627" lon="5.71612">
        <ele>797.9</ele>
        <time>2021-08-19T17:14:49Z</time>
      </trkpt>
      <trkpt lat="46.15624" lon="5.71609">
        <ele>798.2</ele>
        <time>2021-08-19T17:14:50Z</time>
      </trkpt>
      <trkpt lat="46.15621" lon="5.71606">
        <ele>798.4</ele>
        <time>2021-08-19T17:14:51Z</time>
      </trkpt>
      <trkpt lat="46.15618" lon="5.71603">
        <ele>798.7</ele>
        <time>2021-08-19T17:15:22Z</time>
      </trkpt>
      <trkpt lat="46.15615" lon="5.716">
        <ele>798.9</ele>
        <time>2021-08-19T17:15:23Z</time>
      </trkpt>
      <trkpt lat="46.15612" lon="5.71597">
        <ele>799.1</ele>
        <time>2021-08-19T17:15:24Z</time>
      </trkpt>
      <trkpt lat="46.15609" lon="5.71593">
        <ele>799.4</ele>
        <time>2021-08-19T17:15:26Z</time>
      </trkpt>
      <trkpt lat="46.15608" lon="5.71589">
        <ele>799.6</ele>
        <time>2021-08-19T17:15:27Z</time>
      </trkpt>
      <trkpt lat="46.15607" lon="5.71586">
        <ele>799.7</ele>
        <time>2021-08-19T17:15:28Z</time>
      </trkpt>
      <trkpt lat="46.15607" lon="5.71585">
        <ele>799.8</ele>
        <time>2021-08-19T17:15:30Z</time>
      </trkpt>
      <trkpt lat="46.15606" lon="5.71584">
        <ele>799.9</ele>
        <time>2021-08-19T17:15:31Z</time>
      </trkpt>
      <trkpt lat="46.15605" lon="5.71583">
        <ele>799.9</ele>
        <time>2021-08-19T17:15:32Z</time>
      </trkpt>
      <trkpt lat="46.15605" lon="5.71582">
        <ele>800</ele>
        <time>2021-08-19T17:15:33Z</time>
      </trkpt>
      <trkpt lat="46.15605" lon="5.71581">
        <ele>800</ele>
        <time>2021-08-19T17:15:34Z</time>
      </trkpt>
      <trkpt lat="46.15604" lon="5.71579">
        <ele>800.1</ele>
        <time>2021-08-19T17:15:35Z</time>
      </trkpt>
      <trkpt lat="46.15603" lon="5.71577">
        <ele>800.3</ele>
        <time>2021-08-19T17:15:37Z</time>
      </trkpt>
      <trkpt lat="46.15602" lon="5.71574">
        <ele>800.4</ele>
        <time>2021-08-19T17:15:38Z</time>
      </trkpt>
      <trkpt lat="46.156" lon="5.7157">
        <ele>800.6</ele>
        <time>2021-08-19T17:15:40Z</time>
      </trkpt>
      <trkpt lat="46.156" lon="5.71568">
        <ele>800.7</ele>
        <time>2021-08-19T17:15:41Z</time>
      </trkpt>
      <trkpt lat="46.156" lon="5.71564">
        <ele>800.9</ele>
        <time>2021-08-19T17:15:42Z</time>
      </trkpt>
      <trkpt lat="46.156" lon="5.7156">
        <ele>801.1</ele>
        <time>2021-08-19T17:15:44Z</time>
      </trkpt>
      <trkpt lat="46.15599" lon="5.71559">
        <ele>801.2</ele>
        <time>2021-08-19T17:15:46Z</time>
      </trkpt>
      <trkpt lat="46.15598" lon="5.71558">
        <ele>801.3</ele>
        <time>2021-08-19T17:15:47Z</time>
      </trkpt>
      <trkpt lat="46.15597" lon="5.71556">
        <ele>801.4</ele>
        <time>2021-08-19T17:15:48Z</time>
      </trkpt>
      <trkpt lat="46.15596" lon="5.71555">
        <ele>801.4</ele>
        <time>2021-08-19T17:15:49Z</time>
      </trkpt>
      <trkpt lat="46.15593" lon="5.71552">
        <ele>801.7</ele>
        <time>2021-08-19T17:15:51Z</time>
      </trkpt>
      <trkpt lat="46.15592" lon="5.7155">
        <ele>801.8</ele>
        <time>2021-08-19T17:15:52Z</time>
      </trkpt>
      <trkpt lat="46.15591" lon="5.71548">
        <ele>802</ele>
        <time>2021-08-19T17:15:54Z</time>
      </trkpt>
      <trkpt lat="46.1559" lon="5.71546">
        <ele>802.1</ele>
        <time>2021-08-19T17:15:55Z</time>
      </trkpt>
      <trkpt lat="46.15589" lon="5.71543">
        <ele>802.2</ele>
        <time>2021-08-19T17:15:56Z</time>
      </trkpt>
      <trkpt lat="46.15587" lon="5.71538">
        <ele>802.5</ele>
        <time>2021-08-19T17:15:57Z</time>
      </trkpt>
      <trkpt lat="46.15586" lon="5.71537">
        <ele>802.6</ele>
        <time>2021-08-19T17:15:59Z</time>
      </trkpt>
      <trkpt lat="46.15585" lon="5.71535">
        <ele>802.7</ele>
        <time>2021-08-19T17:16:00Z</time>
      </trkpt>
      <trkpt lat="46.15584" lon="5.71534">
        <ele>802.8</ele>
        <time>2021-08-19T17:16:02Z</time>
      </trkpt>
      <trkpt lat="46.15584" lon="5.71534">
        <ele>802.9</ele>
        <time>2021-08-19T17:16:03Z</time>
      </trkpt>
      <trkpt lat="46.15583" lon="5.71533">
        <ele>802.9</ele>
        <time>2021-08-19T17:16:05Z</time>
      </trkpt>
      <trkpt lat="46.15583" lon="5.71532">
        <ele>803</ele>
        <time>2021-08-19T17:16:06Z</time>
      </trkpt>
      <trkpt lat="46.15582" lon="5.71531">
        <ele>803</ele>
        <time>2021-08-19T17:16:08Z</time>
      </trkpt>
      <trkpt lat="46.15581" lon="5.7153">
        <ele>803.1</ele>
        <time>2021-08-19T17:16:10Z</time>
      </trkpt>
      <trkpt lat="46.15572" lon="5.7152">
        <ele>803.9</ele>
        <time>2021-08-19T17:16:21Z</time>
      </trkpt>
      <trkpt lat="46.15568" lon="5.71515">
        <ele>804.2</ele>
        <time>2021-08-19T17:16:23Z</time>
      </trkpt>
      <trkpt lat="46.15566" lon="5.71515">
        <ele>804.4</ele>
        <time>2021-08-19T17:16:24Z</time>
      </trkpt>
      <trkpt lat="46.15565" lon="5.71514">
        <ele>804.5</ele>
        <time>2021-08-19T17:16:25Z</time>
      </trkpt>
      <trkpt lat="46.15561" lon="5.71512">
        <ele>804.7</ele>
        <time>2021-08-19T17:16:26Z</time>
      </trkpt>
      <trkpt lat="46.1556" lon="5.7151">
        <ele>804.9</ele>
        <time>2021-08-19T17:16:28Z</time>
      </trkpt>
      <trkpt lat="46.15559" lon="5.7151">
        <ele>804.9</ele>
        <time>2021-08-19T17:16:29Z</time>
      </trkpt>
      <trkpt lat="46.15558" lon="5.71509">
        <ele>805</ele>
        <time>2021-08-19T17:16:30Z</time>
      </trkpt>
      <trkpt lat="46.15557" lon="5.71507">
        <ele>805</ele>
        <time>2021-08-19T17:16:31Z</time>
      </trkpt>
      <trkpt lat="46.15556" lon="5.71504">
        <ele>805.2</ele>
        <time>2021-08-19T17:16:33Z</time>
      </trkpt>
      <trkpt lat="46.15555" lon="5.71504">
        <ele>805.3</ele>
        <time>2021-08-19T17:16:34Z</time>
      </trkpt>
      <trkpt lat="46.15553" lon="5.71503">
        <ele>805.4</ele>
        <time>2021-08-19T17:16:35Z</time>
      </trkpt>
      <trkpt lat="46.15553" lon="5.71502">
        <ele>805.4</ele>
        <time>2021-08-19T17:16:36Z</time>
      </trkpt>
      <trkpt lat="46.15553" lon="5.71502">
        <ele>805.4</ele>
        <time>2021-08-19T17:16:37Z</time>
      </trkpt>
      <trkpt lat="46.15551" lon="5.71501">
        <ele>805.6</ele>
        <time>2021-08-19T17:16:39Z</time>
      </trkpt>
      <trkpt lat="46.1555" lon="5.715">
        <ele>805.6</ele>
        <time>2021-08-19T17:16:40Z</time>
      </trkpt>
      <trkpt lat="46.15548" lon="5.71499">
        <ele>805.8</ele>
        <time>2021-08-19T17:16:41Z</time>
      </trkpt>
      <trkpt lat="46.15545" lon="5.71499">
        <ele>806</ele>
        <time>2021-08-19T17:16:43Z</time>
      </trkpt>
      <trkpt lat="46.15543" lon="5.71499">
        <ele>806.1</ele>
        <time>2021-08-19T17:16:44Z</time>
      </trkpt>
      <trkpt lat="46.15543" lon="5.71499">
        <ele>806.1</ele>
        <time>2021-08-19T17:16:46Z</time>
      </trkpt>
      <trkpt lat="46.15543" lon="5.71499">
        <ele>806.1</ele>
        <time>2021-08-19T17:16:47Z</time>
      </trkpt>
      <trkpt lat="46.15543" lon="5.71499">
        <ele>806.2</ele>
        <time>2021-08-19T17:16:48Z</time>
      </trkpt>
      <trkpt lat="46.15542" lon="5.71499">
        <ele>806.2</ele>
        <time>2021-08-19T17:16:49Z</time>
      </trkpt>
      <trkpt lat="46.15542" lon="5.715">
        <ele>806.2</ele>
        <time>2021-08-19T17:16:50Z</time>
      </trkpt>
      <trkpt lat="46.15541" lon="5.715">
        <ele>806.3</ele>
        <time>2021-08-19T17:16:52Z</time>
      </trkpt>
      <trkpt lat="46.15541" lon="5.715">
        <ele>806.3</ele>
        <time>2021-08-19T17:16:53Z</time>
      </trkpt>
      <trkpt lat="46.15527" lon="5.71496">
        <ele>807.3</ele>
        <time>2021-08-19T17:17:08Z</time>
      </trkpt>
      <trkpt lat="46.15524" lon="5.71494">
        <ele>807.5</ele>
        <time>2021-08-19T17:17:09Z</time>
      </trkpt>
      <trkpt lat="46.15521" lon="5.71492">
        <ele>807.7</ele>
        <time>2021-08-19T17:17:10Z</time>
      </trkpt>
      <trkpt lat="46.1552" lon="5.71491">
        <ele>807.9</ele>
        <time>2021-08-19T17:17:11Z</time>
      </trkpt>
      <trkpt lat="46.15518" lon="5.71489">
        <ele>808</ele>
        <time>2021-08-19T17:17:13Z</time>
      </trkpt>
      <trkpt lat="46.15514" lon="5.71485">
        <ele>808.4</ele>
        <time>2021-08-19T17:17:14Z</time>
      </trkpt>
      <trkpt lat="46.15511" lon="5.71482">
        <ele>808.7</ele>
        <time>2021-08-19T17:17:16Z</time>
      </trkpt>
      <trkpt lat="46.15507" lon="5.71479">
        <ele>809</ele>
        <time>2021-08-19T17:17:17Z</time>
      </trkpt>
      <trkpt lat="46.15504" lon="5.71476">
        <ele>809.3</ele>
        <time>2021-08-19T17:17:18Z</time>
      </trkpt>
      <trkpt lat="46.155" lon="5.71473">
        <ele>809.6</ele>
        <time>2021-08-19T17:17:20Z</time>
      </trkpt>
      <trkpt lat="46.15497" lon="5.7147">
        <ele>809.9</ele>
        <time>2021-08-19T17:17:47Z</time>
      </trkpt>
      <trkpt lat="46.15493" lon="5.71467">
        <ele>810.2</ele>
        <time>2021-08-19T17:17:49Z</time>
      </trkpt>
      <trkpt lat="46.1549" lon="5.71464">
        <ele>810.6</ele>
        <time>2021-08-19T17:17:50Z</time>
      </trkpt>
      <trkpt lat="46.15488" lon="5.7146">
        <ele>810.8</ele>
        <time>2021-08-19T17:17:51Z</time>
      </trkpt>
      <trkpt lat="46.15487" lon="5.71459">
        <ele>810.9</ele>
        <time>2021-08-19T17:17:52Z</time>
      </trkpt>
      <trkpt lat="46.15486" lon="5.71457">
        <ele>811</ele>
        <time>2021-08-19T17:17:53Z</time>
      </trkpt>
      <trkpt lat="46.15484" lon="5.71457">
        <ele>811.2</ele>
        <time>2021-08-19T17:17:55Z</time>
      </trkpt>
      <trkpt lat="46.15483" lon="5.71456">
        <ele>811.3</ele>
        <time>2021-08-19T17:17:56Z</time>
      </trkpt>
      <trkpt lat="46.15481" lon="5.71456">
        <ele>811.4</ele>
        <time>2021-08-19T17:17:57Z</time>
      </trkpt>
      <trkpt lat="46.1548" lon="5.71455">
        <ele>811.5</ele>
        <time>2021-08-19T17:17:58Z</time>
      </trkpt>
      <trkpt lat="46.15478" lon="5.71455">
        <ele>811.7</ele>
        <time>2021-08-19T17:17:59Z</time>
      </trkpt>
      <trkpt lat="46.15477" lon="5.71454">
        <ele>811.8</ele>
        <time>2021-08-19T17:18:01Z</time>
      </trkpt>
      <trkpt lat="46.15475" lon="5.71453">
        <ele>811.9</ele>
        <time>2021-08-19T17:18:02Z</time>
      </trkpt>
      <trkpt lat="46.15474" lon="5.71453">
        <ele>812</ele>
        <time>2021-08-19T17:18:03Z</time>
      </trkpt>
      <trkpt lat="46.15472" lon="5.71452">
        <ele>812.2</ele>
        <time>2021-08-19T17:18:05Z</time>
      </trkpt>
      <trkpt lat="46.15471" lon="5.71452">
        <ele>812.3</ele>
        <time>2021-08-19T17:18:06Z</time>
      </trkpt>
      <trkpt lat="46.15469" lon="5.71451">
        <ele>812.4</ele>
        <time>2021-08-19T17:18:16Z</time>
      </trkpt>
      <trkpt lat="46.15468" lon="5.71451">
        <ele>812.6</ele>
        <time>2021-08-19T17:18:17Z</time>
      </trkpt>
      <trkpt lat="46.15466" lon="5.7145">
        <ele>812.7</ele>
        <time>2021-08-19T17:18:18Z</time>
      </trkpt>
      <trkpt lat="46.1546" lon="5.71452">
        <ele>813.1</ele>
        <time>2021-08-19T17:18:19Z</time>
      </trkpt>
      <trkpt lat="46.15459" lon="5.71452">
        <ele>813.3</ele>
        <time>2021-08-19T17:18:20Z</time>
      </trkpt>
      <trkpt lat="46.15458" lon="5.71452">
        <ele>813.3</ele>
        <time>2021-08-19T17:18:21Z</time>
      </trkpt>
      <trkpt lat="46.15457" lon="5.71452">
        <ele>813.4</ele>
        <time>2021-08-19T17:18:23Z</time>
      </trkpt>
      <trkpt lat="46.15457" lon="5.71452">
        <ele>813.4</ele>
        <time>2021-08-19T17:18:24Z</time>
      </trkpt>
      <trkpt lat="46.15455" lon="5.71451">
        <ele>813.6</ele>
        <time>2021-08-19T17:18:25Z</time>
      </trkpt>
      <trkpt lat="46.15453" lon="5.71445">
        <ele>813.9</ele>
        <time>2021-08-19T17:18:27Z</time>
      </trkpt>
      <trkpt lat="46.15452" lon="5.71439">
        <ele>814.2</ele>
        <time>2021-08-19T17:18:28Z</time>
      </trkpt>
      <trkpt lat="46.15452" lon="5.71434">
        <ele>814.3</ele>
        <time>2021-08-19T17:18:29Z</time>
      </trkpt>
      <trkpt lat="46.15452" lon="5.71432">
        <ele>814.5</ele>
        <time>2021-08-19T17:18:31Z</time>
      </trkpt>
      <trkpt lat="46.15453" lon="5.71429">
        <ele>814.6</ele>
        <time>2021-08-19T17:18:32Z</time>
      </trkpt>
      <trkpt lat="46.15453" lon="5.71427">
        <ele>814.7</ele>
        <time>2021-08-19T17:18:34Z</time>
      </trkpt>
      <trkpt lat="46.15453" lon="5.71425">
        <ele>814.8</ele>
        <time>2021-08-19T17:18:35Z</time>
      </trkpt>
      <trkpt lat="46.15449" lon="5.71416">
        <ele>815.3</ele>
        <time>2021-08-19T17:18:37Z</time>
      </trkpt>
      <trkpt lat="46.15445" lon="5.7141">
        <ele>815.7</ele>
        <time>2021-08-19T17:18:39Z</time>
      </trkpt>
      <trkpt lat="46.15441" lon="5.71403">
        <ele>816.1</ele>
        <time>2021-08-19T17:18:40Z</time>
      </trkpt>
      <trkpt lat="46.15437" lon="5.71396">
        <ele>816.5</ele>
        <time>2021-08-19T17:18:41Z</time>
      </trkpt>
      <trkpt lat="46.15433" lon="5.71389">
        <ele>816.9</ele>
        <time>2021-08-19T17:19:50Z</time>
      </trkpt>
      <trkpt lat="46.15429" lon="5.71383">
        <ele>817.3</ele>
        <time>2021-08-19T17:19:51Z</time>
      </trkpt>
      <trkpt lat="46.15425" lon="5.71376">
        <ele>817.7</ele>
        <time>2021-08-19T17:19:52Z</time>
      </trkpt>
      <trkpt lat="46.15425" lon="5.71374">
        <ele>817.8</ele>
        <time>2021-08-19T17:19:53Z</time>
      </trkpt>
      <trkpt lat="46.15424" lon="5.71373">
        <ele>817.9</ele>
        <time>2021-08-19T17:19:55Z</time>
      </trkpt>
      <trkpt lat="46.15424" lon="5.71372">
        <ele>817.9</ele>
        <time>2021-08-19T17:19:56Z</time>
      </trkpt>
      <trkpt lat="46.15422" lon="5.71369">
        <ele>818.1</ele>
        <time>2021-08-19T17:19:57Z</time>
      </trkpt>
      <trkpt lat="46.15422" lon="5.71369">
        <ele>818.1</ele>
        <time>2021-08-19T17:19:58Z</time>
      </trkpt>
      <trkpt lat="46.15421" lon="5.71368">
        <ele>818.2</ele>
        <time>2021-08-19T17:19:59Z</time>
      </trkpt>
      <trkpt lat="46.15416" lon="5.71362">
        <ele>818.5</ele>
        <time>2021-08-19T17:20:01Z</time>
      </trkpt>
      <trkpt lat="46.15412" lon="5.71358">
        <ele>818.8</ele>
        <time>2021-08-19T17:20:02Z</time>
      </trkpt>
      <trkpt lat="46.15407" lon="5.71354">
        <ele>819.1</ele>
        <time>2021-08-19T17:20:03Z</time>
      </trkpt>
      <trkpt lat="46.15403" lon="5.7135">
        <ele>819.4</ele>
        <time>2021-08-19T17:21:10Z</time>
      </trkpt>
      <trkpt lat="46.15398" lon="5.71346">
        <ele>819.6</ele>
        <time>2021-08-19T17:21:11Z</time>
      </trkpt>
      <trkpt lat="46.15394" lon="5.71342">
        <ele>819.9</ele>
        <time>2021-08-19T17:21:12Z</time>
      </trkpt>
      <trkpt lat="46.15392" lon="5.71341">
        <ele>820</ele>
        <time>2021-08-19T17:21:14Z</time>
      </trkpt>
      <trkpt lat="46.15391" lon="5.7134">
        <ele>820.1</ele>
        <time>2021-08-19T17:21:15Z</time>
      </trkpt>
      <trkpt lat="46.1539" lon="5.7134">
        <ele>820.1</ele>
        <time>2021-08-19T17:21:16Z</time>
      </trkpt>
      <trkpt lat="46.15388" lon="5.71338">
        <ele>820.2</ele>
        <time>2021-08-19T17:21:18Z</time>
      </trkpt>
      <trkpt lat="46.15387" lon="5.71338">
        <ele>820.3</ele>
        <time>2021-08-19T17:21:19Z</time>
      </trkpt>
      <trkpt lat="46.15386" lon="5.71338">
        <ele>820.3</ele>
        <time>2021-08-19T17:21:21Z</time>
      </trkpt>
      <trkpt lat="46.15385" lon="5.71338">
        <ele>820.4</ele>
        <time>2021-08-19T17:21:22Z</time>
      </trkpt>
      <trkpt lat="46.15384" lon="5.71338">
        <ele>820.4</ele>
        <time>2021-08-19T17:21:23Z</time>
      </trkpt>
      <trkpt lat="46.15383" lon="5.71339">
        <ele>820.4</ele>
        <time>2021-08-19T17:21:24Z</time>
      </trkpt>
      <trkpt lat="46.15382" lon="5.7134">
        <ele>820.5</ele>
        <time>2021-08-19T17:21:25Z</time>
      </trkpt>
      <trkpt lat="46.15381" lon="5.71341">
        <ele>820.6</ele>
        <time>2021-08-19T17:21:27Z</time>
      </trkpt>
      <trkpt lat="46.1538" lon="5.71341">
        <ele>820.6</ele>
        <time>2021-08-19T17:21:28Z</time>
      </trkpt>
      <trkpt lat="46.15378" lon="5.71342">
        <ele>820.7</ele>
        <time>2021-08-19T17:21:30Z</time>
      </trkpt>
      <trkpt lat="46.15376" lon="5.71342">
        <ele>820.8</ele>
        <time>2021-08-19T17:21:31Z</time>
      </trkpt>
      <trkpt lat="46.15375" lon="5.7134">
        <ele>820.9</ele>
        <time>2021-08-19T17:21:33Z</time>
      </trkpt>
      <trkpt lat="46.15374" lon="5.71338">
        <ele>821</ele>
        <time>2021-08-19T17:21:35Z</time>
      </trkpt>
      <trkpt lat="46.15375" lon="5.71337">
        <ele>821</ele>
        <time>2021-08-19T17:21:36Z</time>
      </trkpt>
      <trkpt lat="46.15375" lon="5.71336">
        <ele>821.1</ele>
        <time>2021-08-19T17:21:37Z</time>
      </trkpt>
      <trkpt lat="46.15374" lon="5.71331">
        <ele>821.2</ele>
        <time>2021-08-19T17:21:39Z</time>
      </trkpt>
      <trkpt lat="46.15374" lon="5.7133">
        <ele>821.3</ele>
        <time>2021-08-19T17:21:40Z</time>
      </trkpt>
      <trkpt lat="46.15372" lon="5.71326">
        <ele>821.4</ele>
        <time>2021-08-19T17:21:42Z</time>
      </trkpt>
      <trkpt lat="46.15371" lon="5.71325">
        <ele>821.5</ele>
        <time>2021-08-19T17:21:43Z</time>
      </trkpt>
      <trkpt lat="46.15369" lon="5.71323">
        <ele>821.6</ele>
        <time>2021-08-19T17:21:45Z</time>
      </trkpt>
      <trkpt lat="46.15366" lon="5.71324">
        <ele>821.8</ele>
        <time>2021-08-19T17:21:46Z</time>
      </trkpt>
      <trkpt lat="46.1536" lon="5.71326">
        <ele>822.1</ele>
        <time>2021-08-19T17:21:48Z</time>
      </trkpt>
      <trkpt lat="46.15356" lon="5.71329">
        <ele>822.3</ele>
        <time>2021-08-19T17:21:49Z</time>
      </trkpt>
      <trkpt lat="46.15354" lon="5.7133">
        <ele>822.4</ele>
        <time>2021-08-19T17:21:50Z</time>
      </trkpt>
      <trkpt lat="46.15351" lon="5.71327">
        <ele>822.6</ele>
        <time>2021-08-19T17:21:52Z</time>
      </trkpt>
      <trkpt lat="46.15349" lon="5.71327">
        <ele>822.7</ele>
        <time>2021-08-19T17:21:53Z</time>
      </trkpt>
      <trkpt lat="46.15346" lon="5.71327">
        <ele>822.9</ele>
        <time>2021-08-19T17:21:54Z</time>
      </trkpt>
      <trkpt lat="46.15344" lon="5.71327">
        <ele>822.9</ele>
        <time>2021-08-19T17:21:55Z</time>
      </trkpt>
      <trkpt lat="46.15343" lon="5.71327">
        <ele>823</ele>
        <time>2021-08-19T17:21:56Z</time>
      </trkpt>
      <trkpt lat="46.15342" lon="5.71328">
        <ele>823.1</ele>
        <time>2021-08-19T17:21:57Z</time>
      </trkpt>
      <trkpt lat="46.15341" lon="5.71328">
        <ele>823.1</ele>
        <time>2021-08-19T17:21:58Z</time>
      </trkpt>
      <trkpt lat="46.15342" lon="5.71328">
        <ele>823.1</ele>
        <time>2021-08-19T17:22:00Z</time>
      </trkpt>
      <trkpt lat="46.15342" lon="5.71328">
        <ele>823.2</ele>
        <time>2021-08-19T17:22:02Z</time>
      </trkpt>
      <trkpt lat="46.15342" lon="5.71328">
        <ele>823.2</ele>
        <time>2021-08-19T17:22:03Z</time>
      </trkpt>
      <trkpt lat="46.15341" lon="5.71326">
        <ele>823.2</ele>
        <time>2021-08-19T17:22:04Z</time>
      </trkpt>
      <trkpt lat="46.15341" lon="5.71325">
        <ele>823.3</ele>
        <time>2021-08-19T17:22:05Z</time>
      </trkpt>
      <trkpt lat="46.1534" lon="5.71324">
        <ele>823.3</ele>
        <time>2021-08-19T17:22:06Z</time>
      </trkpt>
      <trkpt lat="46.1534" lon="5.71323">
        <ele>823.4</ele>
        <time>2021-08-19T17:22:08Z</time>
      </trkpt>
      <trkpt lat="46.1533" lon="5.71318">
        <ele>824</ele>
        <time>2021-08-19T17:22:16Z</time>
      </trkpt>
      <trkpt lat="46.15326" lon="5.71317">
        <ele>824.3</ele>
        <time>2021-08-19T17:22:17Z</time>
      </trkpt>
      <trkpt lat="46.15321" lon="5.71317">
        <ele>824.6</ele>
        <time>2021-08-19T17:22:18Z</time>
      </trkpt>
      <trkpt lat="46.15317" lon="5.71317">
        <ele>824.9</ele>
        <time>2021-08-19T17:22:19Z</time>
      </trkpt>
      <trkpt lat="46.15313" lon="5.71316">
        <ele>825.2</ele>
        <time>2021-08-19T17:22:21Z</time>
      </trkpt>
      <trkpt lat="46.1531" lon="5.71315">
        <ele>825.3</ele>
        <time>2021-08-19T17:22:22Z</time>
      </trkpt>
      <trkpt lat="46.15307" lon="5.71315">
        <ele>825.6</ele>
        <time>2021-08-19T17:22:23Z</time>
      </trkpt>
      <trkpt lat="46.15305" lon="5.71315">
        <ele>825.7</ele>
        <time>2021-08-19T17:22:24Z</time>
      </trkpt>
      <trkpt lat="46.15302" lon="5.71315">
        <ele>825.9</ele>
        <time>2021-08-19T17:22:26Z</time>
      </trkpt>
      <trkpt lat="46.15299" lon="5.71313">
        <ele>826.1</ele>
        <time>2021-08-19T17:22:27Z</time>
      </trkpt>
      <trkpt lat="46.15296" lon="5.71313">
        <ele>826.3</ele>
        <time>2021-08-19T17:22:28Z</time>
      </trkpt>
      <trkpt lat="46.15293" lon="5.71312">
        <ele>826.6</ele>
        <time>2021-08-19T17:22:29Z</time>
      </trkpt>
      <trkpt lat="46.15289" lon="5.71311">
        <ele>826.8</ele>
        <time>2021-08-19T17:22:30Z</time>
      </trkpt>
      <trkpt lat="46.15286" lon="5.71309">
        <ele>827.1</ele>
        <time>2021-08-19T17:22:31Z</time>
      </trkpt>
      <trkpt lat="46.15283" lon="5.71307">
        <ele>827.3</ele>
        <time>2021-08-19T17:22:32Z</time>
      </trkpt>
      <trkpt lat="46.1528" lon="5.71306">
        <ele>827.5</ele>
        <time>2021-08-19T17:22:33Z</time>
      </trkpt>
      <trkpt lat="46.15277" lon="5.71305">
        <ele>827.8</ele>
        <time>2021-08-19T17:22:35Z</time>
      </trkpt>
      <trkpt lat="46.15275" lon="5.71304">
        <ele>828</ele>
        <time>2021-08-19T17:22:36Z</time>
      </trkpt>
      <trkpt lat="46.15273" lon="5.71303">
        <ele>828.1</ele>
        <time>2021-08-19T17:22:38Z</time>
      </trkpt>
      <trkpt lat="46.15269" lon="5.71303">
        <ele>828.4</ele>
        <time>2021-08-19T17:22:39Z</time>
      </trkpt>
      <trkpt lat="46.15266" lon="5.71303">
        <ele>828.6</ele>
        <time>2021-08-19T17:22:40Z</time>
      </trkpt>
      <trkpt lat="46.15264" lon="5.71303">
        <ele>828.8</ele>
        <time>2021-08-19T17:22:41Z</time>
      </trkpt>
      <trkpt lat="46.15261" lon="5.71303">
        <ele>829</ele>
        <time>2021-08-19T17:22:42Z</time>
      </trkpt>
      <trkpt lat="46.15259" lon="5.71303">
        <ele>829.2</ele>
        <time>2021-08-19T17:22:44Z</time>
      </trkpt>
      <trkpt lat="46.15256" lon="5.71303">
        <ele>829.4</ele>
        <time>2021-08-19T17:22:45Z</time>
      </trkpt>
      <trkpt lat="46.15253" lon="5.71303">
        <ele>829.7</ele>
        <time>2021-08-19T17:22:46Z</time>
      </trkpt>
      <trkpt lat="46.15251" lon="5.71303">
        <ele>829.9</ele>
        <time>2021-08-19T17:23:19Z</time>
      </trkpt>
      <trkpt lat="46.15248" lon="5.71303">
        <ele>830.1</ele>
        <time>2021-08-19T17:23:20Z</time>
      </trkpt>
      <trkpt lat="46.15245" lon="5.71304">
        <ele>830.3</ele>
        <time>2021-08-19T17:23:22Z</time>
      </trkpt>
      <trkpt lat="46.15243" lon="5.71304">
        <ele>830.5</ele>
        <time>2021-08-19T17:23:23Z</time>
      </trkpt>
      <trkpt lat="46.1524" lon="5.71304">
        <ele>830.7</ele>
        <time>2021-08-19T17:23:25Z</time>
      </trkpt>
      <trkpt lat="46.15238" lon="5.71304">
        <ele>831</ele>
        <time>2021-08-19T17:23:26Z</time>
      </trkpt>
      <trkpt lat="46.15234" lon="5.71305">
        <ele>831.3</ele>
        <time>2021-08-19T17:23:27Z</time>
      </trkpt>
      <trkpt lat="46.15233" lon="5.71305">
        <ele>831.3</ele>
        <time>2021-08-19T17:23:28Z</time>
      </trkpt>
      <trkpt lat="46.15232" lon="5.71305">
        <ele>831.4</ele>
        <time>2021-08-19T17:23:29Z</time>
      </trkpt>
      <trkpt lat="46.15231" lon="5.71306">
        <ele>831.5</ele>
        <time>2021-08-19T17:23:31Z</time>
      </trkpt>
      <trkpt lat="46.1523" lon="5.71306">
        <ele>831.6</ele>
        <time>2021-08-19T17:23:32Z</time>
      </trkpt>
      <trkpt lat="46.15228" lon="5.71306">
        <ele>831.7</ele>
        <time>2021-08-19T17:23:33Z</time>
      </trkpt>
      <trkpt lat="46.15227" lon="5.71306">
        <ele>831.8</ele>
        <time>2021-08-19T17:23:35Z</time>
      </trkpt>
      <trkpt lat="46.15226" lon="5.71306">
        <ele>831.9</ele>
        <time>2021-08-19T17:23:36Z</time>
      </trkpt>
      <trkpt lat="46.15225" lon="5.71306">
        <ele>832</ele>
        <time>2021-08-19T17:23:38Z</time>
      </trkpt>
      <trkpt lat="46.15199" lon="5.71326">
        <ele>834.7</ele>
        <time>2021-08-19T17:24:01Z</time>
      </trkpt>
      <trkpt lat="46.15196" lon="5.71327">
        <ele>834.9</ele>
        <time>2021-08-19T17:24:02Z</time>
      </trkpt>
      <trkpt lat="46.15193" lon="5.71327">
        <ele>835.1</ele>
        <time>2021-08-19T17:24:04Z</time>
      </trkpt>
      <trkpt lat="46.15191" lon="5.71329">
        <ele>835.3</ele>
        <time>2021-08-19T17:24:05Z</time>
      </trkpt>
      <trkpt lat="46.1519" lon="5.7133">
        <ele>835.4</ele>
        <time>2021-08-19T17:24:07Z</time>
      </trkpt>
      <trkpt lat="46.15189" lon="5.71332">
        <ele>835.6</ele>
        <time>2021-08-19T17:24:08Z</time>
      </trkpt>
      <trkpt lat="46.15188" lon="5.71332">
        <ele>835.6</ele>
        <time>2021-08-19T17:24:09Z</time>
      </trkpt>
      <trkpt lat="46.15188" lon="5.71333">
        <ele>835.7</ele>
        <time>2021-08-19T17:24:10Z</time>
      </trkpt>
      <trkpt lat="46.15185" lon="5.71332">
        <ele>835.8</ele>
        <time>2021-08-19T17:24:12Z</time>
      </trkpt>
      <trkpt lat="46.15183" lon="5.71332">
        <ele>835.9</ele>
        <time>2021-08-19T17:24:13Z</time>
      </trkpt>
      <trkpt lat="46.15181" lon="5.71331">
        <ele>836</ele>
        <time>2021-08-19T17:24:15Z</time>
      </trkpt>
      <trkpt lat="46.15179" lon="5.7133">
        <ele>836.1</ele>
        <time>2021-08-19T17:24:17Z</time>
      </trkpt>
      <trkpt lat="46.15177" lon="5.71329">
        <ele>836.3</ele>
        <time>2021-08-19T17:24:18Z</time>
      </trkpt>
      <trkpt lat="46.15175" lon="5.71329">
        <ele>836.3</ele>
        <time>2021-08-19T17:24:19Z</time>
      </trkpt>
      <trkpt lat="46.15173" lon="5.71328">
        <ele>836.4</ele>
        <time>2021-08-19T17:24:21Z</time>
      </trkpt>
      <trkpt lat="46.15171" lon="5.71327">
        <ele>836.5</ele>
        <time>2021-08-19T17:24:27Z</time>
      </trkpt>
      <trkpt lat="46.15169" lon="5.71326">
        <ele>836.6</ele>
        <time>2021-08-19T17:24:28Z</time>
      </trkpt>
      <trkpt lat="46.15165" lon="5.71322">
        <ele>836.8</ele>
        <time>2021-08-19T17:24:30Z</time>
      </trkpt>
      <trkpt lat="46.15163" lon="5.71319">
        <ele>836.9</ele>
        <time>2021-08-19T17:24:31Z</time>
      </trkpt>
      <trkpt lat="46.15159" lon="5.71316">
        <ele>837</ele>
        <time>2021-08-19T17:24:33Z</time>
      </trkpt>
      <trkpt lat="46.15158" lon="5.71315">
        <ele>837.1</ele>
        <time>2021-08-19T17:24:34Z</time>
      </trkpt>
      <trkpt lat="46.15156" lon="5.71313">
        <ele>837.1</ele>
        <time>2021-08-19T17:24:35Z</time>
      </trkpt>
      <trkpt lat="46.15154" lon="5.71309">
        <ele>837.2</ele>
        <time>2021-08-19T17:24:37Z</time>
      </trkpt>
      <trkpt lat="46.15151" lon="5.71308">
        <ele>837.3</ele>
        <time>2021-08-19T17:24:39Z</time>
      </trkpt>
      <trkpt lat="46.15147" lon="5.71307">
        <ele>837.4</ele>
        <time>2021-08-19T17:24:40Z</time>
      </trkpt>
      <trkpt lat="46.15144" lon="5.71304">
        <ele>837.5</ele>
        <time>2021-08-19T17:24:42Z</time>
      </trkpt>
      <trkpt lat="46.15142" lon="5.713">
        <ele>837.6</ele>
        <time>2021-08-19T17:24:43Z</time>
      </trkpt>
      <trkpt lat="46.15141" lon="5.71295">
        <ele>837.7</ele>
        <time>2021-08-19T17:24:45Z</time>
      </trkpt>
      <trkpt lat="46.15139" lon="5.71289">
        <ele>837.8</ele>
        <time>2021-08-19T17:24:46Z</time>
      </trkpt>
      <trkpt lat="46.15138" lon="5.71283">
        <ele>837.9</ele>
        <time>2021-08-19T17:24:48Z</time>
      </trkpt>
      <trkpt lat="46.15137" lon="5.71279">
        <ele>838</ele>
        <time>2021-08-19T17:24:49Z</time>
      </trkpt>
      <trkpt lat="46.15136" lon="5.71272">
        <ele>838.2</ele>
        <time>2021-08-19T17:24:50Z</time>
      </trkpt>
      <trkpt lat="46.15135" lon="5.71268">
        <ele>838.2</ele>
        <time>2021-08-19T17:24:51Z</time>
      </trkpt>
      <trkpt lat="46.15134" lon="5.71263">
        <ele>838.3</ele>
        <time>2021-08-19T17:24:52Z</time>
      </trkpt>
      <trkpt lat="46.15133" lon="5.71258">
        <ele>838.3</ele>
        <time>2021-08-19T17:24:54Z</time>
      </trkpt>
      <trkpt lat="46.15132" lon="5.71251">
        <ele>838.4</ele>
        <time>2021-08-19T17:24:55Z</time>
      </trkpt>
      <trkpt lat="46.15129" lon="5.71244">
        <ele>838.5</ele>
        <time>2021-08-19T17:24:57Z</time>
      </trkpt>
      <trkpt lat="46.15129" lon="5.71242">
        <ele>838.5</ele>
        <time>2021-08-19T17:24:58Z</time>
      </trkpt>
      <trkpt lat="46.15128" lon="5.7124">
        <ele>838.6</ele>
        <time>2021-08-19T17:24:59Z</time>
      </trkpt>
      <trkpt lat="46.15125" lon="5.71233">
        <ele>838.7</ele>
        <time>2021-08-19T17:25:01Z</time>
      </trkpt>
      <trkpt lat="46.15123" lon="5.71229">
        <ele>838.7</ele>
        <time>2021-08-19T17:25:02Z</time>
      </trkpt>
      <trkpt lat="46.1512" lon="5.71223">
        <ele>838.8</ele>
        <time>2021-08-19T17:25:03Z</time>
      </trkpt>
      <trkpt lat="46.15116" lon="5.71218">
        <ele>838.9</ele>
        <time>2021-08-19T17:25:05Z</time>
      </trkpt>
      <trkpt lat="46.15113" lon="5.71211">
        <ele>839</ele>
        <time>2021-08-19T17:25:06Z</time>
      </trkpt>
      <trkpt lat="46.15112" lon="5.71205">
        <ele>839.1</ele>
        <time>2021-08-19T17:25:08Z</time>
      </trkpt>
      <trkpt lat="46.15111" lon="5.712">
        <ele>839.1</ele>
        <time>2021-08-19T17:25:09Z</time>
      </trkpt>
      <trkpt lat="46.1511" lon="5.71196">
        <ele>839.2</ele>
        <time>2021-08-19T17:25:10Z</time>
      </trkpt>
      <trkpt lat="46.15109" lon="5.71192">
        <ele>839.3</ele>
        <time>2021-08-19T17:25:11Z</time>
      </trkpt>
      <trkpt lat="46.15107" lon="5.71188">
        <ele>839.3</ele>
        <time>2021-08-19T17:25:12Z</time>
      </trkpt>
      <trkpt lat="46.15104" lon="5.7118">
        <ele>839.5</ele>
        <time>2021-08-19T17:25:14Z</time>
      </trkpt>
      <trkpt lat="46.15103" lon="5.71177">
        <ele>839.5</ele>
        <time>2021-08-19T17:25:15Z</time>
      </trkpt>
      <trkpt lat="46.15101" lon="5.71172">
        <ele>839.6</ele>
        <time>2021-08-19T17:25:16Z</time>
      </trkpt>
      <trkpt lat="46.15101" lon="5.71171">
        <ele>839.6</ele>
        <time>2021-08-19T17:25:17Z</time>
      </trkpt>
      <trkpt lat="46.151" lon="5.71167">
        <ele>839.7</ele>
        <time>2021-08-19T17:25:18Z</time>
      </trkpt>
      <trkpt lat="46.15098" lon="5.7116">
        <ele>839.8</ele>
        <time>2021-08-19T17:25:20Z</time>
      </trkpt>
      <trkpt lat="46.15098" lon="5.71157">
        <ele>839.8</ele>
        <time>2021-08-19T17:25:21Z</time>
      </trkpt>
      <trkpt lat="46.15096" lon="5.71152">
        <ele>839.9</ele>
        <time>2021-08-19T17:25:22Z</time>
      </trkpt>
      <trkpt lat="46.15095" lon="5.71148">
        <ele>840</ele>
        <time>2021-08-19T17:25:23Z</time>
      </trkpt>
      <trkpt lat="46.15093" lon="5.71143">
        <ele>840.1</ele>
        <time>2021-08-19T17:25:24Z</time>
      </trkpt>
      <trkpt lat="46.15093" lon="5.71141">
        <ele>840.1</ele>
        <time>2021-08-19T17:25:25Z</time>
      </trkpt>
      <trkpt lat="46.15092" lon="5.71136">
        <ele>840.2</ele>
        <time>2021-08-19T17:25:26Z</time>
      </trkpt>
      <trkpt lat="46.15092" lon="5.71134">
        <ele>840.3</ele>
        <time>2021-08-19T17:25:27Z</time>
      </trkpt>
      <trkpt lat="46.1509" lon="5.71131">
        <ele>840.3</ele>
        <time>2021-08-19T17:25:28Z</time>
      </trkpt>
      <trkpt lat="46.15088" lon="5.71125">
        <ele>840.5</ele>
        <time>2021-08-19T17:25:30Z</time>
      </trkpt>
      <trkpt lat="46.15087" lon="5.71123">
        <ele>840.5</ele>
        <time>2021-08-19T17:25:31Z</time>
      </trkpt>
      <trkpt lat="46.15086" lon="5.7112">
        <ele>840.6</ele>
        <time>2021-08-19T17:25:32Z</time>
      </trkpt>
      <trkpt lat="46.15085" lon="5.71114">
        <ele>840.7</ele>
        <time>2021-08-19T17:25:34Z</time>
      </trkpt>
      <trkpt lat="46.15083" lon="5.71107">
        <ele>840.9</ele>
        <time>2021-08-19T17:25:36Z</time>
      </trkpt>
      <trkpt lat="46.15081" lon="5.71101">
        <ele>841</ele>
        <time>2021-08-19T17:25:38Z</time>
      </trkpt>
      <trkpt lat="46.15079" lon="5.71096">
        <ele>841.2</ele>
        <time>2021-08-19T17:25:39Z</time>
      </trkpt>
      <trkpt lat="46.15078" lon="5.71095">
        <ele>841.2</ele>
        <time>2021-08-19T17:25:40Z</time>
      </trkpt>
      <trkpt lat="46.15076" lon="5.71092">
        <ele>841.3</ele>
        <time>2021-08-19T17:25:41Z</time>
      </trkpt>
      <trkpt lat="46.15076" lon="5.71088">
        <ele>841.4</ele>
        <time>2021-08-19T17:25:42Z</time>
      </trkpt>
      <trkpt lat="46.15075" lon="5.7108">
        <ele>841.5</ele>
        <time>2021-08-19T17:25:44Z</time>
      </trkpt>
      <trkpt lat="46.15073" lon="5.71073">
        <ele>841.7</ele>
        <time>2021-08-19T17:25:46Z</time>
      </trkpt>
      <trkpt lat="46.15071" lon="5.71068">
        <ele>841.8</ele>
        <time>2021-08-19T17:25:47Z</time>
      </trkpt>
      <trkpt lat="46.1507" lon="5.71066">
        <ele>841.9</ele>
        <time>2021-08-19T17:25:48Z</time>
      </trkpt>
      <trkpt lat="46.15068" lon="5.71062">
        <ele>842</ele>
        <time>2021-08-19T17:25:49Z</time>
      </trkpt>
      <trkpt lat="46.15067" lon="5.71058">
        <ele>842.1</ele>
        <time>2021-08-19T17:25:50Z</time>
      </trkpt>
      <trkpt lat="46.15066" lon="5.71056">
        <ele>842.2</ele>
        <time>2021-08-19T17:25:51Z</time>
      </trkpt>
      <trkpt lat="46.15065" lon="5.71051">
        <ele>842.3</ele>
        <time>2021-08-19T17:25:52Z</time>
      </trkpt>
      <trkpt lat="46.15064" lon="5.7105">
        <ele>842.4</ele>
        <time>2021-08-19T17:25:53Z</time>
      </trkpt>
      <trkpt lat="46.15062" lon="5.71047">
        <ele>842.5</ele>
        <time>2021-08-19T17:25:54Z</time>
      </trkpt>
      <trkpt lat="46.1506" lon="5.71043">
        <ele>842.6</ele>
        <time>2021-08-19T17:25:56Z</time>
      </trkpt>
      <trkpt lat="46.15058" lon="5.71037">
        <ele>842.8</ele>
        <time>2021-08-19T17:25:57Z</time>
      </trkpt>
      <trkpt lat="46.15055" lon="5.71033">
        <ele>842.9</ele>
        <time>2021-08-19T17:25:59Z</time>
      </trkpt>
      <trkpt lat="46.15052" lon="5.71028">
        <ele>843.1</ele>
        <time>2021-08-19T17:26:00Z</time>
      </trkpt>
      <trkpt lat="46.15051" lon="5.71025">
        <ele>843.2</ele>
        <time>2021-08-19T17:26:01Z</time>
      </trkpt>
      <trkpt lat="46.15049" lon="5.71021">
        <ele>843.3</ele>
        <time>2021-08-19T17:26:03Z</time>
      </trkpt>
      <trkpt lat="46.15048" lon="5.71016">
        <ele>843.4</ele>
        <time>2021-08-19T17:26:04Z</time>
      </trkpt>
      <trkpt lat="46.15048" lon="5.71015">
        <ele>843.5</ele>
        <time>2021-08-19T17:26:05Z</time>
      </trkpt>
      <trkpt lat="46.15046" lon="5.7101">
        <ele>843.6</ele>
        <time>2021-08-19T17:26:06Z</time>
      </trkpt>
      <trkpt lat="46.15045" lon="5.71009">
        <ele>843.7</ele>
        <time>2021-08-19T17:26:07Z</time>
      </trkpt>
      <trkpt lat="46.15043" lon="5.71004">
        <ele>843.8</ele>
        <time>2021-08-19T17:26:08Z</time>
      </trkpt>
      <trkpt lat="46.15041" lon="5.70999">
        <ele>844</ele>
        <time>2021-08-19T17:26:10Z</time>
      </trkpt>
      <trkpt lat="46.15038" lon="5.70995">
        <ele>844.2</ele>
        <time>2021-08-19T17:26:11Z</time>
      </trkpt>
      <trkpt lat="46.15035" lon="5.70992">
        <ele>844.3</ele>
        <time>2021-08-19T17:26:12Z</time>
      </trkpt>
      <trkpt lat="46.15032" lon="5.70988">
        <ele>844.5</ele>
        <time>2021-08-19T17:26:13Z</time>
      </trkpt>
      <trkpt lat="46.1503" lon="5.70984">
        <ele>844.7</ele>
        <time>2021-08-19T17:26:15Z</time>
      </trkpt>
      <trkpt lat="46.15028" lon="5.70981">
        <ele>844.8</ele>
        <time>2021-08-19T17:26:16Z</time>
      </trkpt>
      <trkpt lat="46.15025" lon="5.70975">
        <ele>845</ele>
        <time>2021-08-19T17:26:18Z</time>
      </trkpt>
      <trkpt lat="46.15024" lon="5.70971">
        <ele>845.1</ele>
        <time>2021-08-19T17:26:19Z</time>
      </trkpt>
      <trkpt lat="46.15024" lon="5.7097">
        <ele>845.2</ele>
        <time>2021-08-19T17:26:20Z</time>
      </trkpt>
      <trkpt lat="46.1502" lon="5.70964">
        <ele>845.4</ele>
        <time>2021-08-19T17:26:22Z</time>
      </trkpt>
      <trkpt lat="46.15017" lon="5.70961">
        <ele>845.6</ele>
        <time>2021-08-19T17:26:23Z</time>
      </trkpt>
      <trkpt lat="46.15013" lon="5.70957">
        <ele>845.8</ele>
        <time>2021-08-19T17:26:24Z</time>
      </trkpt>
      <trkpt lat="46.15009" lon="5.70952">
        <ele>846</ele>
        <time>2021-08-19T17:26:25Z</time>
      </trkpt>
      <trkpt lat="46.15007" lon="5.70948">
        <ele>846.2</ele>
        <time>2021-08-19T17:26:26Z</time>
      </trkpt>
      <trkpt lat="46.15006" lon="5.70943">
        <ele>846.3</ele>
        <time>2021-08-19T17:26:27Z</time>
      </trkpt>
      <trkpt lat="46.15006" lon="5.70942">
        <ele>846.3</ele>
        <time>2021-08-19T17:26:28Z</time>
      </trkpt>
      <trkpt lat="46.15006" lon="5.70939">
        <ele>846.4</ele>
        <time>2021-08-19T17:26:29Z</time>
      </trkpt>
      <trkpt lat="46.15006" lon="5.70935">
        <ele>846.5</ele>
        <time>2021-08-19T17:26:31Z</time>
      </trkpt>
      <trkpt lat="46.15006" lon="5.70932">
        <ele>846.6</ele>
        <time>2021-08-19T17:26:32Z</time>
      </trkpt>
      <trkpt lat="46.15007" lon="5.70928">
        <ele>846.7</ele>
        <time>2021-08-19T17:26:34Z</time>
      </trkpt>
      <trkpt lat="46.15006" lon="5.70926">
        <ele>846.8</ele>
        <time>2021-08-19T17:26:35Z</time>
      </trkpt>
      <trkpt lat="46.15006" lon="5.70923">
        <ele>846.8</ele>
        <time>2021-08-19T17:26:36Z</time>
      </trkpt>
      <trkpt lat="46.15005" lon="5.70921">
        <ele>846.9</ele>
        <time>2021-08-19T17:26:38Z</time>
      </trkpt>
      <trkpt lat="46.15005" lon="5.70919">
        <ele>846.9</ele>
        <time>2021-08-19T17:26:39Z</time>
      </trkpt>
      <trkpt lat="46.15004" lon="5.70918">
        <ele>847</ele>
        <time>2021-08-19T17:26:40Z</time>
      </trkpt>
      <trkpt lat="46.15003" lon="5.70914">
        <ele>847.1</ele>
        <time>2021-08-19T17:26:41Z</time>
      </trkpt>
      <trkpt lat="46.15001" lon="5.70909">
        <ele>847.2</ele>
        <time>2021-08-19T17:26:43Z</time>
      </trkpt>
      <trkpt lat="46.15" lon="5.70907">
        <ele>847.2</ele>
        <time>2021-08-19T17:26:44Z</time>
      </trkpt>
      <trkpt lat="46.14999" lon="5.70901">
        <ele>847.4</ele>
        <time>2021-08-19T17:26:45Z</time>
      </trkpt>
      <trkpt lat="46.14998" lon="5.70899">
        <ele>847.4</ele>
        <time>2021-08-19T17:26:46Z</time>
      </trkpt>
      <trkpt lat="46.14997" lon="5.70894">
        <ele>847.6</ele>
        <time>2021-08-19T17:26:47Z</time>
      </trkpt>
      <trkpt lat="46.14997" lon="5.70892">
        <ele>847.6</ele>
        <time>2021-08-19T17:26:48Z</time>
      </trkpt>
      <trkpt lat="46.14995" lon="5.7089">
        <ele>847.7</ele>
        <time>2021-08-19T17:26:49Z</time>
      </trkpt>
      <trkpt lat="46.14994" lon="5.70886">
        <ele>847.8</ele>
        <time>2021-08-19T17:26:51Z</time>
      </trkpt>
      <trkpt lat="46.14993" lon="5.7088">
        <ele>847.9</ele>
        <time>2021-08-19T17:26:52Z</time>
      </trkpt>
      <trkpt lat="46.14992" lon="5.70877">
        <ele>848</ele>
        <time>2021-08-19T17:26:53Z</time>
      </trkpt>
      <trkpt lat="46.1499" lon="5.70872">
        <ele>848.1</ele>
        <time>2021-08-19T17:26:55Z</time>
      </trkpt>
      <trkpt lat="46.14989" lon="5.70871">
        <ele>848.1</ele>
        <time>2021-08-19T17:26:56Z</time>
      </trkpt>
      <trkpt lat="46.14987" lon="5.70867">
        <ele>848.2</ele>
        <time>2021-08-19T17:26:57Z</time>
      </trkpt>
      <trkpt lat="46.14985" lon="5.70862">
        <ele>848.3</ele>
        <time>2021-08-19T17:26:59Z</time>
      </trkpt>
      <trkpt lat="46.14985" lon="5.70861">
        <ele>848.4</ele>
        <time>2021-08-19T17:27:00Z</time>
      </trkpt>
      <trkpt lat="46.14983" lon="5.70857">
        <ele>848.5</ele>
        <time>2021-08-19T17:27:01Z</time>
      </trkpt>
      <trkpt lat="46.14981" lon="5.70853">
        <ele>848.6</ele>
        <time>2021-08-19T17:27:03Z</time>
      </trkpt>
      <trkpt lat="46.14979" lon="5.70847">
        <ele>848.7</ele>
        <time>2021-08-19T17:27:04Z</time>
      </trkpt>
      <trkpt lat="46.14979" lon="5.70845">
        <ele>848.7</ele>
        <time>2021-08-19T17:27:05Z</time>
      </trkpt>
      <trkpt lat="46.14977" lon="5.70842">
        <ele>848.8</ele>
        <time>2021-08-19T17:27:06Z</time>
      </trkpt>
      <trkpt lat="46.14975" lon="5.70839">
        <ele>848.9</ele>
        <time>2021-08-19T17:27:08Z</time>
      </trkpt>
      <trkpt lat="46.14974" lon="5.70833">
        <ele>849</ele>
        <time>2021-08-19T17:27:10Z</time>
      </trkpt>
      <trkpt lat="46.14973" lon="5.70828">
        <ele>849.1</ele>
        <time>2021-08-19T17:27:11Z</time>
      </trkpt>
      <trkpt lat="46.14973" lon="5.70826">
        <ele>849.1</ele>
        <time>2021-08-19T17:27:12Z</time>
      </trkpt>
      <trkpt lat="46.14971" lon="5.70822">
        <ele>849.2</ele>
        <time>2021-08-19T17:27:13Z</time>
      </trkpt>
      <trkpt lat="46.1497" lon="5.7082">
        <ele>849.2</ele>
        <time>2021-08-19T17:27:14Z</time>
      </trkpt>
      <trkpt lat="46.14969" lon="5.70816">
        <ele>849.3</ele>
        <time>2021-08-19T17:27:16Z</time>
      </trkpt>
      <trkpt lat="46.14968" lon="5.70812">
        <ele>849.4</ele>
        <time>2021-08-19T17:27:17Z</time>
      </trkpt>
      <trkpt lat="46.14966" lon="5.70806">
        <ele>849.5</ele>
        <time>2021-08-19T17:27:18Z</time>
      </trkpt>
      <trkpt lat="46.14965" lon="5.70803">
        <ele>849.5</ele>
        <time>2021-08-19T17:27:19Z</time>
      </trkpt>
      <trkpt lat="46.14963" lon="5.70799">
        <ele>849.6</ele>
        <time>2021-08-19T17:27:21Z</time>
      </trkpt>
      <trkpt lat="46.14963" lon="5.70798">
        <ele>849.7</ele>
        <time>2021-08-19T17:27:22Z</time>
      </trkpt>
      <trkpt lat="46.14962" lon="5.70796">
        <ele>849.7</ele>
        <time>2021-08-19T17:27:23Z</time>
      </trkpt>
      <trkpt lat="46.14962" lon="5.70794">
        <ele>849.7</ele>
        <time>2021-08-19T17:27:24Z</time>
      </trkpt>
      <trkpt lat="46.14962" lon="5.70789">
        <ele>849.8</ele>
        <time>2021-08-19T17:27:25Z</time>
      </trkpt>
      <trkpt lat="46.14961" lon="5.70784">
        <ele>849.9</ele>
        <time>2021-08-19T17:27:27Z</time>
      </trkpt>
      <trkpt lat="46.1496" lon="5.70782">
        <ele>850</ele>
        <time>2021-08-19T17:27:28Z</time>
      </trkpt>
      <trkpt lat="46.1496" lon="5.70776">
        <ele>850.1</ele>
        <time>2021-08-19T17:27:30Z</time>
      </trkpt>
      <trkpt lat="46.14959" lon="5.70771">
        <ele>850.2</ele>
        <time>2021-08-19T17:27:31Z</time>
      </trkpt>
      <trkpt lat="46.14959" lon="5.70769">
        <ele>850.2</ele>
        <time>2021-08-19T17:27:32Z</time>
      </trkpt>
      <trkpt lat="46.1496" lon="5.70764">
        <ele>850.3</ele>
        <time>2021-08-19T17:27:33Z</time>
      </trkpt>
      <trkpt lat="46.14958" lon="5.70757">
        <ele>850.4</ele>
        <time>2021-08-19T17:27:35Z</time>
      </trkpt>
      <trkpt lat="46.14958" lon="5.70754">
        <ele>850.5</ele>
        <time>2021-08-19T17:27:36Z</time>
      </trkpt>
      <trkpt lat="46.14957" lon="5.7075">
        <ele>850.6</ele>
        <time>2021-08-19T17:27:37Z</time>
      </trkpt>
      <trkpt lat="46.14956" lon="5.70746">
        <ele>850.7</ele>
        <time>2021-08-19T17:27:38Z</time>
      </trkpt>
      <trkpt lat="46.14955" lon="5.7074">
        <ele>850.8</ele>
        <time>2021-08-19T17:27:40Z</time>
      </trkpt>
      <trkpt lat="46.14954" lon="5.70738">
        <ele>850.8</ele>
        <time>2021-08-19T17:27:41Z</time>
      </trkpt>
      <trkpt lat="46.14954" lon="5.70736">
        <ele>850.9</ele>
        <time>2021-08-19T17:27:42Z</time>
      </trkpt>
      <trkpt lat="46.14952" lon="5.70731">
        <ele>851</ele>
        <time>2021-08-19T17:27:43Z</time>
      </trkpt>
      <trkpt lat="46.14951" lon="5.70727">
        <ele>851.1</ele>
        <time>2021-08-19T17:27:44Z</time>
      </trkpt>
      <trkpt lat="46.1495" lon="5.70723">
        <ele>851.2</ele>
        <time>2021-08-19T17:27:46Z</time>
      </trkpt>
      <trkpt lat="46.14948" lon="5.70718">
        <ele>851.3</ele>
        <time>2021-08-19T17:27:48Z</time>
      </trkpt>
      <trkpt lat="46.14946" lon="5.70711">
        <ele>851.4</ele>
        <time>2021-08-19T17:27:50Z</time>
      </trkpt>
      <trkpt lat="46.14944" lon="5.70707">
        <ele>851.6</ele>
        <time>2021-08-19T17:27:51Z</time>
      </trkpt>
      <trkpt lat="46.14943" lon="5.70705">
        <ele>851.6</ele>
        <time>2021-08-19T17:27:52Z</time>
      </trkpt>
      <trkpt lat="46.1494" lon="5.70701">
        <ele>851.7</ele>
        <time>2021-08-19T17:27:53Z</time>
      </trkpt>
      <trkpt lat="46.14939" lon="5.70697">
        <ele>851.8</ele>
        <time>2021-08-19T17:27:55Z</time>
      </trkpt>
      <trkpt lat="46.14939" lon="5.70693">
        <ele>851.9</ele>
        <time>2021-08-19T17:27:56Z</time>
      </trkpt>
      <trkpt lat="46.14938" lon="5.70687">
        <ele>852</ele>
        <time>2021-08-19T17:27:58Z</time>
      </trkpt>
      <trkpt lat="46.14937" lon="5.70681">
        <ele>852.1</ele>
        <time>2021-08-19T17:28:00Z</time>
      </trkpt>
      <trkpt lat="46.14937" lon="5.70677">
        <ele>852.2</ele>
        <time>2021-08-19T17:28:01Z</time>
      </trkpt>
      <trkpt lat="46.14937" lon="5.70673">
        <ele>852.3</ele>
        <time>2021-08-19T17:28:02Z</time>
      </trkpt>
      <trkpt lat="46.14936" lon="5.70671">
        <ele>852.3</ele>
        <time>2021-08-19T17:28:04Z</time>
      </trkpt>
      <trkpt lat="46.14936" lon="5.70669">
        <ele>852.4</ele>
        <time>2021-08-19T17:28:05Z</time>
      </trkpt>
      <trkpt lat="46.14935" lon="5.70667">
        <ele>852.4</ele>
        <time>2021-08-19T17:28:06Z</time>
      </trkpt>
      <trkpt lat="46.14934" lon="5.70662">
        <ele>852.5</ele>
        <time>2021-08-19T17:28:07Z</time>
      </trkpt>
      <trkpt lat="46.14932" lon="5.70658">
        <ele>852.6</ele>
        <time>2021-08-19T17:28:09Z</time>
      </trkpt>
      <trkpt lat="46.14929" lon="5.70655">
        <ele>852.7</ele>
        <time>2021-08-19T17:28:10Z</time>
      </trkpt>
      <trkpt lat="46.14927" lon="5.70651">
        <ele>852.8</ele>
        <time>2021-08-19T17:28:12Z</time>
      </trkpt>
      <trkpt lat="46.14925" lon="5.70646">
        <ele>852.9</ele>
        <time>2021-08-19T17:28:13Z</time>
      </trkpt>
      <trkpt lat="46.14923" lon="5.70641">
        <ele>853</ele>
        <time>2021-08-19T17:28:15Z</time>
      </trkpt>
      <trkpt lat="46.14922" lon="5.70639">
        <ele>853</ele>
        <time>2021-08-19T17:28:16Z</time>
      </trkpt>
      <trkpt lat="46.14921" lon="5.70634">
        <ele>853.1</ele>
        <time>2021-08-19T17:28:18Z</time>
      </trkpt>
      <trkpt lat="46.1492" lon="5.70629">
        <ele>853.2</ele>
        <time>2021-08-19T17:28:19Z</time>
      </trkpt>
      <trkpt lat="46.14917" lon="5.70622">
        <ele>853.4</ele>
        <time>2021-08-19T17:28:21Z</time>
      </trkpt>
      <trkpt lat="46.14915" lon="5.70618">
        <ele>853.5</ele>
        <time>2021-08-19T17:28:23Z</time>
      </trkpt>
      <trkpt lat="46.14915" lon="5.70616">
        <ele>853.5</ele>
        <time>2021-08-19T17:28:24Z</time>
      </trkpt>
      <trkpt lat="46.14913" lon="5.70615">
        <ele>853.6</ele>
        <time>2021-08-19T17:28:26Z</time>
      </trkpt>
      <trkpt lat="46.14912" lon="5.70614">
        <ele>853.6</ele>
        <time>2021-08-19T17:28:27Z</time>
      </trkpt>
      <trkpt lat="46.14911" lon="5.7061">
        <ele>853.7</ele>
        <time>2021-08-19T17:28:29Z</time>
      </trkpt>
      <trkpt lat="46.1491" lon="5.70608">
        <ele>853.7</ele>
        <time>2021-08-19T17:28:30Z</time>
      </trkpt>
      <trkpt lat="46.14908" lon="5.70603">
        <ele>853.8</ele>
        <time>2021-08-19T17:28:32Z</time>
      </trkpt>
      <trkpt lat="46.14905" lon="5.70598">
        <ele>854</ele>
        <time>2021-08-19T17:28:33Z</time>
      </trkpt>
      <trkpt lat="46.149" lon="5.70594">
        <ele>854.1</ele>
        <time>2021-08-19T17:28:35Z</time>
      </trkpt>
      <trkpt lat="46.14897" lon="5.70593">
        <ele>854.2</ele>
        <time>2021-08-19T17:28:36Z</time>
      </trkpt>
      <trkpt lat="46.14894" lon="5.70591">
        <ele>854.3</ele>
        <time>2021-08-19T17:28:38Z</time>
      </trkpt>
      <trkpt lat="46.14894" lon="5.7059">
        <ele>854.3</ele>
        <time>2021-08-19T17:28:39Z</time>
      </trkpt>
      <trkpt lat="46.14891" lon="5.70585">
        <ele>854.4</ele>
        <time>2021-08-19T17:28:41Z</time>
      </trkpt>
      <trkpt lat="46.14889" lon="5.70581">
        <ele>854.5</ele>
        <time>2021-08-19T17:28:42Z</time>
      </trkpt>
      <trkpt lat="46.14889" lon="5.70575">
        <ele>854.6</ele>
        <time>2021-08-19T17:28:44Z</time>
      </trkpt>
      <trkpt lat="46.14888" lon="5.70571">
        <ele>854.7</ele>
        <time>2021-08-19T17:28:45Z</time>
      </trkpt>
      <trkpt lat="46.14885" lon="5.70568">
        <ele>854.8</ele>
        <time>2021-08-19T17:28:46Z</time>
      </trkpt>
      <trkpt lat="46.14884" lon="5.70567">
        <ele>854.8</ele>
        <time>2021-08-19T17:28:47Z</time>
      </trkpt>
      <trkpt lat="46.14883" lon="5.70563">
        <ele>854.9</ele>
        <time>2021-08-19T17:28:48Z</time>
      </trkpt>
      <trkpt lat="46.14882" lon="5.70559">
        <ele>855</ele>
        <time>2021-08-19T17:28:50Z</time>
      </trkpt>
      <trkpt lat="46.14879" lon="5.70551">
        <ele>855.2</ele>
        <time>2021-08-19T17:28:52Z</time>
      </trkpt>
      <trkpt lat="46.14877" lon="5.70547">
        <ele>855.3</ele>
        <time>2021-08-19T17:28:53Z</time>
      </trkpt>
      <trkpt lat="46.14874" lon="5.70542">
        <ele>855.4</ele>
        <time>2021-08-19T17:28:54Z</time>
      </trkpt>
      <trkpt lat="46.14872" lon="5.70539">
        <ele>855.5</ele>
        <time>2021-08-19T17:28:55Z</time>
      </trkpt>
      <trkpt lat="46.14871" lon="5.70535">
        <ele>855.5</ele>
        <time>2021-08-19T17:28:56Z</time>
      </trkpt>
      <trkpt lat="46.1487" lon="5.70531">
        <ele>855.6</ele>
        <time>2021-08-19T17:28:57Z</time>
      </trkpt>
      <trkpt lat="46.14867" lon="5.70525">
        <ele>855.8</ele>
        <time>2021-08-19T17:28:59Z</time>
      </trkpt>
      <trkpt lat="46.14866" lon="5.70522">
        <ele>855.9</ele>
        <time>2021-08-19T17:29:00Z</time>
      </trkpt>
      <trkpt lat="46.14865" lon="5.70514">
        <ele>856</ele>
        <time>2021-08-19T17:29:02Z</time>
      </trkpt>
      <trkpt lat="46.14865" lon="5.70509">
        <ele>856.1</ele>
        <time>2021-08-19T17:29:04Z</time>
      </trkpt>
      <trkpt lat="46.14865" lon="5.70507">
        <ele>856.2</ele>
        <time>2021-08-19T17:29:05Z</time>
      </trkpt>
      <trkpt lat="46.14864" lon="5.70503">
        <ele>856.3</ele>
        <time>2021-08-19T17:29:06Z</time>
      </trkpt>
      <trkpt lat="46.14862" lon="5.70498">
        <ele>856.4</ele>
        <time>2021-08-19T17:29:08Z</time>
      </trkpt>
      <trkpt lat="46.14861" lon="5.70493">
        <ele>856.5</ele>
        <time>2021-08-19T17:29:09Z</time>
      </trkpt>
      <trkpt lat="46.1486" lon="5.70489">
        <ele>856.6</ele>
        <time>2021-08-19T17:29:11Z</time>
      </trkpt>
      <trkpt lat="46.1486" lon="5.70484">
        <ele>856.7</ele>
        <time>2021-08-19T17:29:12Z</time>
      </trkpt>
      <trkpt lat="46.14859" lon="5.7048">
        <ele>856.8</ele>
        <time>2021-08-19T17:29:13Z</time>
      </trkpt>
      <trkpt lat="46.14858" lon="5.70477">
        <ele>856.8</ele>
        <time>2021-08-19T17:29:14Z</time>
      </trkpt>
      <trkpt lat="46.14857" lon="5.70474">
        <ele>856.9</ele>
        <time>2021-08-19T17:29:16Z</time>
      </trkpt>
      <trkpt lat="46.14855" lon="5.7047">
        <ele>857</ele>
        <time>2021-08-19T17:29:18Z</time>
      </trkpt>
      <trkpt lat="46.14853" lon="5.70465">
        <ele>857.1</ele>
        <time>2021-08-19T17:29:19Z</time>
      </trkpt>
      <trkpt lat="46.14852" lon="5.70463">
        <ele>857.2</ele>
        <time>2021-08-19T17:29:20Z</time>
      </trkpt>
      <trkpt lat="46.14851" lon="5.70459">
        <ele>857.3</ele>
        <time>2021-08-19T17:29:22Z</time>
      </trkpt>
      <trkpt lat="46.1485" lon="5.70453">
        <ele>857.5</ele>
        <time>2021-08-19T17:29:23Z</time>
      </trkpt>
      <trkpt lat="46.1485" lon="5.7045">
        <ele>857.5</ele>
        <time>2021-08-19T17:29:24Z</time>
      </trkpt>
      <trkpt lat="46.14849" lon="5.70446">
        <ele>857.6</ele>
        <time>2021-08-19T17:29:25Z</time>
      </trkpt>
      <trkpt lat="46.14847" lon="5.70439">
        <ele>857.8</ele>
        <time>2021-08-19T17:29:27Z</time>
      </trkpt>
      <trkpt lat="46.14845" lon="5.70432">
        <ele>858</ele>
        <time>2021-08-19T17:29:29Z</time>
      </trkpt>
      <trkpt lat="46.14845" lon="5.7043">
        <ele>858</ele>
        <time>2021-08-19T17:29:30Z</time>
      </trkpt>
      <trkpt lat="46.14844" lon="5.70428">
        <ele>858.1</ele>
        <time>2021-08-19T17:29:31Z</time>
      </trkpt>
      <trkpt lat="46.14843" lon="5.70423">
        <ele>858.2</ele>
        <time>2021-08-19T17:29:32Z</time>
      </trkpt>
      <trkpt lat="46.14841" lon="5.70419">
        <ele>858.3</ele>
        <time>2021-08-19T17:29:34Z</time>
      </trkpt>
      <trkpt lat="46.1484" lon="5.70417">
        <ele>858.4</ele>
        <time>2021-08-19T17:29:35Z</time>
      </trkpt>
      <trkpt lat="46.14838" lon="5.70412">
        <ele>858.5</ele>
        <time>2021-08-19T17:29:37Z</time>
      </trkpt>
      <trkpt lat="46.14837" lon="5.7041">
        <ele>858.6</ele>
        <time>2021-08-19T17:29:38Z</time>
      </trkpt>
      <trkpt lat="46.14837" lon="5.70408">
        <ele>858.7</ele>
        <time>2021-08-19T17:29:39Z</time>
      </trkpt>
      <trkpt lat="46.14836" lon="5.70407">
        <ele>858.7</ele>
        <time>2021-08-19T17:29:40Z</time>
      </trkpt>
      <trkpt lat="46.14835" lon="5.70402">
        <ele>858.9</ele>
        <time>2021-08-19T17:29:42Z</time>
      </trkpt>
      <trkpt lat="46.14831" lon="5.70398">
        <ele>859.1</ele>
        <time>2021-08-19T17:29:44Z</time>
      </trkpt>
      <trkpt lat="46.1483" lon="5.70398">
        <ele>859.1</ele>
        <time>2021-08-19T17:29:45Z</time>
      </trkpt>
      <trkpt lat="46.14828" lon="5.70397">
        <ele>859.2</ele>
        <time>2021-08-19T17:29:46Z</time>
      </trkpt>
      <trkpt lat="46.14826" lon="5.70397">
        <ele>859.3</ele>
        <time>2021-08-19T17:29:47Z</time>
      </trkpt>
      <trkpt lat="46.14824" lon="5.70399">
        <ele>859.4</ele>
        <time>2021-08-19T17:29:49Z</time>
      </trkpt>
      <trkpt lat="46.14823" lon="5.70402">
        <ele>859.5</ele>
        <time>2021-08-19T17:29:51Z</time>
      </trkpt>
      <trkpt lat="46.14824" lon="5.70403">
        <ele>859.5</ele>
        <time>2021-08-19T17:29:52Z</time>
      </trkpt>
      <trkpt lat="46.14824" lon="5.70403">
        <ele>859.5</ele>
        <time>2021-08-19T17:29:53Z</time>
      </trkpt>
      <trkpt lat="46.14824" lon="5.70403">
        <ele>859.5</ele>
        <time>2021-08-19T17:29:54Z</time>
      </trkpt>
      <trkpt lat="46.14824" lon="5.70402">
        <ele>859.5</ele>
        <time>2021-08-19T17:29:55Z</time>
      </trkpt>
      <trkpt lat="46.14824" lon="5.70402">
        <ele>859.6</ele>
        <time>2021-08-19T17:29:56Z</time>
      </trkpt>
      <trkpt lat="46.14824" lon="5.70401">
        <ele>859.6</ele>
        <time>2021-08-19T17:29:58Z</time>
      </trkpt>
      <trkpt lat="46.14823" lon="5.70401">
        <ele>859.6</ele>
        <time>2021-08-19T17:29:59Z</time>
      </trkpt>
      <trkpt lat="46.14821" lon="5.70392">
        <ele>859.9</ele>
        <time>2021-08-19T17:30:07Z</time>
      </trkpt>
      <trkpt lat="46.14822" lon="5.70389">
        <ele>860</ele>
        <time>2021-08-19T17:30:09Z</time>
      </trkpt>
      <trkpt lat="46.14822" lon="5.70387">
        <ele>860.1</ele>
        <time>2021-08-19T17:30:10Z</time>
      </trkpt>
      <trkpt lat="46.14821" lon="5.70383">
        <ele>860.2</ele>
        <time>2021-08-19T17:30:11Z</time>
      </trkpt>
      <trkpt lat="46.14821" lon="5.70381">
        <ele>860.3</ele>
        <time>2021-08-19T17:30:12Z</time>
      </trkpt>
      <trkpt lat="46.1482" lon="5.70376">
        <ele>860.4</ele>
        <time>2021-08-19T17:30:14Z</time>
      </trkpt>
      <trkpt lat="46.1482" lon="5.70375">
        <ele>860.5</ele>
        <time>2021-08-19T17:30:15Z</time>
      </trkpt>
      <trkpt lat="46.14818" lon="5.7037">
        <ele>860.7</ele>
        <time>2021-08-19T17:30:16Z</time>
      </trkpt>
      <trkpt lat="46.14817" lon="5.70366">
        <ele>860.8</ele>
        <time>2021-08-19T17:30:18Z</time>
      </trkpt>
      <trkpt lat="46.14815" lon="5.70362">
        <ele>861</ele>
        <time>2021-08-19T17:30:19Z</time>
      </trkpt>
      <trkpt lat="46.14811" lon="5.70355">
        <ele>861.3</ele>
        <time>2021-08-19T17:30:21Z</time>
      </trkpt>
      <trkpt lat="46.14809" lon="5.70351">
        <ele>861.4</ele>
        <time>2021-08-19T17:30:22Z</time>
      </trkpt>
      <trkpt lat="46.14809" lon="5.70348">
        <ele>861.5</ele>
        <time>2021-08-19T17:30:23Z</time>
      </trkpt>
      <trkpt lat="46.14808" lon="5.70345">
        <ele>861.7</ele>
        <time>2021-08-19T17:30:25Z</time>
      </trkpt>
      <trkpt lat="46.14807" lon="5.70342">
        <ele>861.8</ele>
        <time>2021-08-19T17:30:26Z</time>
      </trkpt>
      <trkpt lat="46.14804" lon="5.7034">
        <ele>861.9</ele>
        <time>2021-08-19T17:30:27Z</time>
      </trkpt>
      <trkpt lat="46.14802" lon="5.70339">
        <ele>862</ele>
        <time>2021-08-19T17:30:29Z</time>
      </trkpt>
      <trkpt lat="46.14802" lon="5.70338">
        <ele>862.1</ele>
        <time>2021-08-19T17:30:30Z</time>
      </trkpt>
      <trkpt lat="46.14801" lon="5.70334">
        <ele>862.2</ele>
        <time>2021-08-19T17:30:31Z</time>
      </trkpt>
      <trkpt lat="46.14801" lon="5.70333">
        <ele>862.3</ele>
        <time>2021-08-19T17:30:32Z</time>
      </trkpt>
      <trkpt lat="46.148" lon="5.70331">
        <ele>862.3</ele>
        <time>2021-08-19T17:30:34Z</time>
      </trkpt>
      <trkpt lat="46.14799" lon="5.70328">
        <ele>862.4</ele>
        <time>2021-08-19T17:30:36Z</time>
      </trkpt>
      <trkpt lat="46.14798" lon="5.70326">
        <ele>862.5</ele>
        <time>2021-08-19T17:30:37Z</time>
      </trkpt>
      <trkpt lat="46.14799" lon="5.70324">
        <ele>862.6</ele>
        <time>2021-08-19T17:30:38Z</time>
      </trkpt>
      <trkpt lat="46.14798" lon="5.70322">
        <ele>862.7</ele>
        <time>2021-08-19T17:30:40Z</time>
      </trkpt>
      <trkpt lat="46.14797" lon="5.7032">
        <ele>862.8</ele>
        <time>2021-08-19T17:30:41Z</time>
      </trkpt>
      <trkpt lat="46.14796" lon="5.70319">
        <ele>862.8</ele>
        <time>2021-08-19T17:30:42Z</time>
      </trkpt>
      <trkpt lat="46.14795" lon="5.70317">
        <ele>862.9</ele>
        <time>2021-08-19T17:30:43Z</time>
      </trkpt>
      <trkpt lat="46.14794" lon="5.70315">
        <ele>863</ele>
        <time>2021-08-19T17:30:44Z</time>
      </trkpt>
      <trkpt lat="46.14793" lon="5.70312">
        <ele>863.1</ele>
        <time>2021-08-19T17:30:45Z</time>
      </trkpt>
      <trkpt lat="46.14792" lon="5.70309">
        <ele>863.2</ele>
        <time>2021-08-19T17:30:47Z</time>
      </trkpt>
      <trkpt lat="46.14791" lon="5.70307">
        <ele>863.3</ele>
        <time>2021-08-19T17:30:48Z</time>
      </trkpt>
      <trkpt lat="46.14791" lon="5.70305">
        <ele>863.4</ele>
        <time>2021-08-19T17:30:49Z</time>
      </trkpt>
      <trkpt lat="46.1479" lon="5.70303">
        <ele>863.5</ele>
        <time>2021-08-19T17:30:51Z</time>
      </trkpt>
      <trkpt lat="46.1479" lon="5.70301">
        <ele>863.6</ele>
        <time>2021-08-19T17:30:52Z</time>
      </trkpt>
      <trkpt lat="46.14789" lon="5.703">
        <ele>863.6</ele>
        <time>2021-08-19T17:30:53Z</time>
      </trkpt>
      <trkpt lat="46.1479" lon="5.703">
        <ele>863.6</ele>
        <time>2021-08-19T17:30:54Z</time>
      </trkpt>
      <trkpt lat="46.1479" lon="5.703">
        <ele>863.6</ele>
        <time>2021-08-19T17:30:55Z</time>
      </trkpt>
      <trkpt lat="46.14789" lon="5.70299">
        <ele>863.7</ele>
        <time>2021-08-19T17:30:56Z</time>
      </trkpt>
      <trkpt lat="46.14788" lon="5.70296">
        <ele>863.8</ele>
        <time>2021-08-19T17:30:57Z</time>
      </trkpt>
      <trkpt lat="46.14787" lon="5.70293">
        <ele>863.9</ele>
        <time>2021-08-19T17:30:58Z</time>
      </trkpt>
      <trkpt lat="46.14786" lon="5.70291">
        <ele>864.1</ele>
        <time>2021-08-19T17:31:00Z</time>
      </trkpt>
      <trkpt lat="46.14785" lon="5.70288">
        <ele>864.2</ele>
        <time>2021-08-19T17:31:01Z</time>
      </trkpt>
      <trkpt lat="46.14784" lon="5.70285">
        <ele>864.3</ele>
        <time>2021-08-19T17:31:03Z</time>
      </trkpt>
      <trkpt lat="46.14783" lon="5.70283">
        <ele>864.4</ele>
        <time>2021-08-19T17:31:11Z</time>
      </trkpt>
      <trkpt lat="46.14782" lon="5.7028">
        <ele>864.5</ele>
        <time>2021-08-19T17:31:13Z</time>
      </trkpt>
      <trkpt lat="46.14781" lon="5.70278">
        <ele>864.6</ele>
        <time>2021-08-19T17:31:14Z</time>
      </trkpt>
      <trkpt lat="46.1478" lon="5.70275">
        <ele>864.7</ele>
        <time>2021-08-19T17:31:15Z</time>
      </trkpt>
      <trkpt lat="46.1478" lon="5.70273">
        <ele>864.8</ele>
        <time>2021-08-19T17:31:16Z</time>
      </trkpt>
      <trkpt lat="46.1478" lon="5.7027">
        <ele>864.9</ele>
        <time>2021-08-19T17:31:18Z</time>
      </trkpt>
      <trkpt lat="46.14779" lon="5.70269">
        <ele>865</ele>
        <time>2021-08-19T17:31:19Z</time>
      </trkpt>
      <trkpt lat="46.14779" lon="5.70267">
        <ele>865.1</ele>
        <time>2021-08-19T17:31:20Z</time>
      </trkpt>
      <trkpt lat="46.14778" lon="5.70265">
        <ele>865.2</ele>
        <time>2021-08-19T17:31:22Z</time>
      </trkpt>
      <trkpt lat="46.14777" lon="5.70262">
        <ele>865.3</ele>
        <time>2021-08-19T17:31:23Z</time>
      </trkpt>
      <trkpt lat="46.14776" lon="5.70261">
        <ele>865.4</ele>
        <time>2021-08-19T17:31:24Z</time>
      </trkpt>
      <trkpt lat="46.14776" lon="5.70259">
        <ele>865.4</ele>
        <time>2021-08-19T17:31:25Z</time>
      </trkpt>
      <trkpt lat="46.14775" lon="5.70257">
        <ele>865.5</ele>
        <time>2021-08-19T17:31:27Z</time>
      </trkpt>
      <trkpt lat="46.14775" lon="5.70255">
        <ele>865.6</ele>
        <time>2021-08-19T17:31:28Z</time>
      </trkpt>
      <trkpt lat="46.14775" lon="5.70252">
        <ele>865.7</ele>
        <time>2021-08-19T17:31:30Z</time>
      </trkpt>
      <trkpt lat="46.14775" lon="5.70251">
        <ele>865.8</ele>
        <time>2021-08-19T17:31:31Z</time>
      </trkpt>
      <trkpt lat="46.14775" lon="5.70249">
        <ele>865.9</ele>
        <time>2021-08-19T17:31:33Z</time>
      </trkpt>
      <trkpt lat="46.14774" lon="5.70244">
        <ele>866</ele>
        <time>2021-08-19T17:31:35Z</time>
      </trkpt>
      <trkpt lat="46.14773" lon="5.70241">
        <ele>866.2</ele>
        <time>2021-08-19T17:31:36Z</time>
      </trkpt>
      <trkpt lat="46.14772" lon="5.70238">
        <ele>866.3</ele>
        <time>2021-08-19T17:31:38Z</time>
      </trkpt>
      <trkpt lat="46.14772" lon="5.70238">
        <ele>866.3</ele>
        <time>2021-08-19T17:31:39Z</time>
      </trkpt>
      <trkpt lat="46.14772" lon="5.70237">
        <ele>866.3</ele>
        <time>2021-08-19T17:31:40Z</time>
      </trkpt>
      <trkpt lat="46.14772" lon="5.70237">
        <ele>866.4</ele>
        <time>2021-08-19T17:31:42Z</time>
      </trkpt>
      <trkpt lat="46.14772" lon="5.70237">
        <ele>866.4</ele>
        <time>2021-08-19T17:31:44Z</time>
      </trkpt>
      <trkpt lat="46.14772" lon="5.70236">
        <ele>866.4</ele>
        <time>2021-08-19T17:31:45Z</time>
      </trkpt>
      <trkpt lat="46.14771" lon="5.70236">
        <ele>866.4</ele>
        <time>2021-08-19T17:31:47Z</time>
      </trkpt>
      <trkpt lat="46.14771" lon="5.70235">
        <ele>866.5</ele>
        <time>2021-08-19T17:31:48Z</time>
      </trkpt>
      <trkpt lat="46.1477" lon="5.70234">
        <ele>866.5</ele>
        <time>2021-08-19T17:31:49Z</time>
      </trkpt>
      <trkpt lat="46.14769" lon="5.7023">
        <ele>866.7</ele>
        <time>2021-08-19T17:31:51Z</time>
      </trkpt>
      <trkpt lat="46.14768" lon="5.70224">
        <ele>866.9</ele>
        <time>2021-08-19T17:31:53Z</time>
      </trkpt>
      <trkpt lat="46.14766" lon="5.70221">
        <ele>867.1</ele>
        <time>2021-08-19T17:31:54Z</time>
      </trkpt>
      <trkpt lat="46.14763" lon="5.70215">
        <ele>867.3</ele>
        <time>2021-08-19T17:31:55Z</time>
      </trkpt>
      <trkpt lat="46.14762" lon="5.70212">
        <ele>867.5</ele>
        <time>2021-08-19T17:31:56Z</time>
      </trkpt>
      <trkpt lat="46.1476" lon="5.70206">
        <ele>867.7</ele>
        <time>2021-08-19T17:31:58Z</time>
      </trkpt>
      <trkpt lat="46.14759" lon="5.70203">
        <ele>867.8</ele>
        <time>2021-08-19T17:31:59Z</time>
      </trkpt>
      <trkpt lat="46.14756" lon="5.70198">
        <ele>868.1</ele>
        <time>2021-08-19T17:32:01Z</time>
      </trkpt>
      <trkpt lat="46.14754" lon="5.70194">
        <ele>868.3</ele>
        <time>2021-08-19T17:32:02Z</time>
      </trkpt>
      <trkpt lat="46.14753" lon="5.70192">
        <ele>868.4</ele>
        <time>2021-08-19T17:32:03Z</time>
      </trkpt>
      <trkpt lat="46.14752" lon="5.70188">
        <ele>868.5</ele>
        <time>2021-08-19T17:32:04Z</time>
      </trkpt>
      <trkpt lat="46.14752" lon="5.70187">
        <ele>868.6</ele>
        <time>2021-08-19T17:32:05Z</time>
      </trkpt>
      <trkpt lat="46.14751" lon="5.70182">
        <ele>868.7</ele>
        <time>2021-08-19T17:32:06Z</time>
      </trkpt>
      <trkpt lat="46.14751" lon="5.70181">
        <ele>868.8</ele>
        <time>2021-08-19T17:32:07Z</time>
      </trkpt>
      <trkpt lat="46.14749" lon="5.70177">
        <ele>869</ele>
        <time>2021-08-19T17:32:08Z</time>
      </trkpt>
      <trkpt lat="46.14747" lon="5.70172">
        <ele>869.2</ele>
        <time>2021-08-19T17:32:10Z</time>
      </trkpt>
      <trkpt lat="46.14747" lon="5.70171">
        <ele>869.2</ele>
        <time>2021-08-19T17:32:11Z</time>
      </trkpt>
      <trkpt lat="46.14746" lon="5.70169">
        <ele>869.3</ele>
        <time>2021-08-19T17:32:12Z</time>
      </trkpt>
      <trkpt lat="46.14745" lon="5.70166">
        <ele>869.4</ele>
        <time>2021-08-19T17:32:14Z</time>
      </trkpt>
      <trkpt lat="46.14743" lon="5.70162">
        <ele>869.6</ele>
        <time>2021-08-19T17:32:15Z</time>
      </trkpt>
      <trkpt lat="46.1474" lon="5.70158">
        <ele>869.8</ele>
        <time>2021-08-19T17:32:16Z</time>
      </trkpt>
      <trkpt lat="46.14739" lon="5.70157">
        <ele>869.9</ele>
        <time>2021-08-19T17:32:17Z</time>
      </trkpt>
      <trkpt lat="46.14738" lon="5.70154">
        <ele>870</ele>
        <time>2021-08-19T17:32:18Z</time>
      </trkpt>
      <trkpt lat="46.14738" lon="5.7015">
        <ele>870.2</ele>
        <time>2021-08-19T17:32:20Z</time>
      </trkpt>
      <trkpt lat="46.14736" lon="5.70145">
        <ele>870.4</ele>
        <time>2021-08-19T17:32:21Z</time>
      </trkpt>
      <trkpt lat="46.14736" lon="5.70141">
        <ele>870.5</ele>
        <time>2021-08-19T17:32:23Z</time>
      </trkpt>
      <trkpt lat="46.14735" lon="5.70137">
        <ele>870.7</ele>
        <time>2021-08-19T17:32:24Z</time>
      </trkpt>
      <trkpt lat="46.14734" lon="5.70132">
        <ele>870.9</ele>
        <time>2021-08-19T17:32:25Z</time>
      </trkpt>
      <trkpt lat="46.14733" lon="5.70131">
        <ele>870.9</ele>
        <time>2021-08-19T17:32:26Z</time>
      </trkpt>
      <trkpt lat="46.14733" lon="5.70129">
        <ele>871</ele>
        <time>2021-08-19T17:32:27Z</time>
      </trkpt>
      <trkpt lat="46.14733" lon="5.70125">
        <ele>871.2</ele>
        <time>2021-08-19T17:32:29Z</time>
      </trkpt>
      <trkpt lat="46.14733" lon="5.70121">
        <ele>871.3</ele>
        <time>2021-08-19T17:32:30Z</time>
      </trkpt>
      <trkpt lat="46.14733" lon="5.70119">
        <ele>871.4</ele>
        <time>2021-08-19T17:32:31Z</time>
      </trkpt>
      <trkpt lat="46.14734" lon="5.70115">
        <ele>871.6</ele>
        <time>2021-08-19T17:32:32Z</time>
      </trkpt>
      <trkpt lat="46.14735" lon="5.70108">
        <ele>871.8</ele>
        <time>2021-08-19T17:32:34Z</time>
      </trkpt>
      <trkpt lat="46.14733" lon="5.70102">
        <ele>872.1</ele>
        <time>2021-08-19T17:32:36Z</time>
      </trkpt>
      <trkpt lat="46.14732" lon="5.70095">
        <ele>872.4</ele>
        <time>2021-08-19T17:32:38Z</time>
      </trkpt>
      <trkpt lat="46.14728" lon="5.70092">
        <ele>872.7</ele>
        <time>2021-08-19T17:32:39Z</time>
      </trkpt>
      <trkpt lat="46.14725" lon="5.70091">
        <ele>872.8</ele>
        <time>2021-08-19T17:32:40Z</time>
      </trkpt>
      <trkpt lat="46.14722" lon="5.7009">
        <ele>873</ele>
        <time>2021-08-19T17:32:41Z</time>
      </trkpt>
      <trkpt lat="46.1472" lon="5.70087">
        <ele>873.2</ele>
        <time>2021-08-19T17:32:42Z</time>
      </trkpt>
      <trkpt lat="46.14719" lon="5.70086">
        <ele>873.3</ele>
        <time>2021-08-19T17:32:43Z</time>
      </trkpt>
      <trkpt lat="46.14717" lon="5.70083">
        <ele>873.5</ele>
        <time>2021-08-19T17:32:44Z</time>
      </trkpt>
      <trkpt lat="46.14717" lon="5.70083">
        <ele>873.5</ele>
        <time>2021-08-19T17:32:45Z</time>
      </trkpt>
      <trkpt lat="46.14716" lon="5.70081">
        <ele>873.6</ele>
        <time>2021-08-19T17:32:46Z</time>
      </trkpt>
      <trkpt lat="46.14715" lon="5.70079">
        <ele>873.7</ele>
        <time>2021-08-19T17:32:47Z</time>
      </trkpt>
      <trkpt lat="46.14715" lon="5.70077">
        <ele>873.8</ele>
        <time>2021-08-19T17:32:49Z</time>
      </trkpt>
      <trkpt lat="46.14714" lon="5.70075">
        <ele>873.9</ele>
        <time>2021-08-19T17:32:50Z</time>
      </trkpt>
      <trkpt lat="46.14714" lon="5.70073">
        <ele>874</ele>
        <time>2021-08-19T17:32:51Z</time>
      </trkpt>
      <trkpt lat="46.14713" lon="5.70071">
        <ele>874.1</ele>
        <time>2021-08-19T17:32:52Z</time>
      </trkpt>
      <trkpt lat="46.1471" lon="5.70067">
        <ele>874.3</ele>
        <time>2021-08-19T17:32:53Z</time>
      </trkpt>
      <trkpt lat="46.1471" lon="5.70066">
        <ele>874.4</ele>
        <time>2021-08-19T17:32:54Z</time>
      </trkpt>
      <trkpt lat="46.14708" lon="5.70062">
        <ele>874.6</ele>
        <time>2021-08-19T17:32:55Z</time>
      </trkpt>
      <trkpt lat="46.14705" lon="5.70058">
        <ele>874.9</ele>
        <time>2021-08-19T17:32:57Z</time>
      </trkpt>
      <trkpt lat="46.14705" lon="5.70056">
        <ele>875</ele>
        <time>2021-08-19T17:32:58Z</time>
      </trkpt>
      <trkpt lat="46.14704" lon="5.70054">
        <ele>875.1</ele>
        <time>2021-08-19T17:32:59Z</time>
      </trkpt>
      <trkpt lat="46.14703" lon="5.70053">
        <ele>875.2</ele>
        <time>2021-08-19T17:33:00Z</time>
      </trkpt>
      <trkpt lat="46.14702" lon="5.70051">
        <ele>875.3</ele>
        <time>2021-08-19T17:33:01Z</time>
      </trkpt>
      <trkpt lat="46.14701" lon="5.70048">
        <ele>875.4</ele>
        <time>2021-08-19T17:33:02Z</time>
      </trkpt>
      <trkpt lat="46.14701" lon="5.70045">
        <ele>875.5</ele>
        <time>2021-08-19T17:33:03Z</time>
      </trkpt>
      <trkpt lat="46.14701" lon="5.70043">
        <ele>875.6</ele>
        <time>2021-08-19T17:33:04Z</time>
      </trkpt>
      <trkpt lat="46.14701" lon="5.7004">
        <ele>875.7</ele>
        <time>2021-08-19T17:33:05Z</time>
      </trkpt>
      <trkpt lat="46.14701" lon="5.70038">
        <ele>875.8</ele>
        <time>2021-08-19T17:33:06Z</time>
      </trkpt>
      <trkpt lat="46.14701" lon="5.70036">
        <ele>875.9</ele>
        <time>2021-08-19T17:33:07Z</time>
      </trkpt>
      <trkpt lat="46.14701" lon="5.70034">
        <ele>876</ele>
        <time>2021-08-19T17:33:08Z</time>
      </trkpt>
      <trkpt lat="46.147" lon="5.7003">
        <ele>876.2</ele>
        <time>2021-08-19T17:33:10Z</time>
      </trkpt>
      <trkpt lat="46.147" lon="5.70029">
        <ele>876.2</ele>
        <time>2021-08-19T17:33:11Z</time>
      </trkpt>
      <trkpt lat="46.14699" lon="5.70023">
        <ele>876.5</ele>
        <time>2021-08-19T17:33:13Z</time>
      </trkpt>
      <trkpt lat="46.14697" lon="5.70019">
        <ele>876.7</ele>
        <time>2021-08-19T17:33:15Z</time>
      </trkpt>
      <trkpt lat="46.14694" lon="5.70016">
        <ele>876.9</ele>
        <time>2021-08-19T17:33:16Z</time>
      </trkpt>
      <trkpt lat="46.14692" lon="5.70011">
        <ele>877.1</ele>
        <time>2021-08-19T17:33:17Z</time>
      </trkpt>
      <trkpt lat="46.14691" lon="5.7001">
        <ele>877.2</ele>
        <time>2021-08-19T17:33:18Z</time>
      </trkpt>
      <trkpt lat="46.14689" lon="5.70006">
        <ele>877.5</ele>
        <time>2021-08-19T17:33:19Z</time>
      </trkpt>
      <trkpt lat="46.14688" lon="5.70005">
        <ele>877.6</ele>
        <time>2021-08-19T17:33:20Z</time>
      </trkpt>
      <trkpt lat="46.14686" lon="5.7">
        <ele>877.8</ele>
        <time>2021-08-19T17:33:21Z</time>
      </trkpt>
      <trkpt lat="46.14686" lon="5.69999">
        <ele>877.9</ele>
        <time>2021-08-19T17:33:22Z</time>
      </trkpt>
      <trkpt lat="46.14685" lon="5.69994">
        <ele>878.2</ele>
        <time>2021-08-19T17:33:23Z</time>
      </trkpt>
      <trkpt lat="46.14685" lon="5.69992">
        <ele>878.2</ele>
        <time>2021-08-19T17:33:24Z</time>
      </trkpt>
      <trkpt lat="46.14684" lon="5.69988">
        <ele>878.5</ele>
        <time>2021-08-19T17:33:25Z</time>
      </trkpt>
      <trkpt lat="46.14683" lon="5.69987">
        <ele>878.5</ele>
        <time>2021-08-19T17:33:26Z</time>
      </trkpt>
      <trkpt lat="46.14681" lon="5.69983">
        <ele>878.8</ele>
        <time>2021-08-19T17:33:27Z</time>
      </trkpt>
      <trkpt lat="46.14681" lon="5.69982">
        <ele>878.8</ele>
        <time>2021-08-19T17:33:28Z</time>
      </trkpt>
      <trkpt lat="46.1468" lon="5.6998">
        <ele>878.9</ele>
        <time>2021-08-19T17:33:29Z</time>
      </trkpt>
      <trkpt lat="46.1468" lon="5.69978">
        <ele>879</ele>
        <time>2021-08-19T17:33:31Z</time>
      </trkpt>
      <trkpt lat="46.14679" lon="5.69976">
        <ele>879.1</ele>
        <time>2021-08-19T17:33:32Z</time>
      </trkpt>
      <trkpt lat="46.14675" lon="5.69973">
        <ele>879.4</ele>
        <time>2021-08-19T17:33:34Z</time>
      </trkpt>
      <trkpt lat="46.14672" lon="5.6997">
        <ele>879.7</ele>
        <time>2021-08-19T17:33:35Z</time>
      </trkpt>
      <trkpt lat="46.14671" lon="5.69969">
        <ele>879.7</ele>
        <time>2021-08-19T17:33:36Z</time>
      </trkpt>
      <trkpt lat="46.1467" lon="5.69966">
        <ele>879.9</ele>
        <time>2021-08-19T17:33:37Z</time>
      </trkpt>
      <trkpt lat="46.14669" lon="5.69965">
        <ele>880</ele>
        <time>2021-08-19T17:33:38Z</time>
      </trkpt>
      <trkpt lat="46.14668" lon="5.69962">
        <ele>880.1</ele>
        <time>2021-08-19T17:33:39Z</time>
      </trkpt>
      <trkpt lat="46.14666" lon="5.69959">
        <ele>880.3</ele>
        <time>2021-08-19T17:33:41Z</time>
      </trkpt>
      <trkpt lat="46.14664" lon="5.69956">
        <ele>880.5</ele>
        <time>2021-08-19T17:33:42Z</time>
      </trkpt>
      <trkpt lat="46.14663" lon="5.69955">
        <ele>880.6</ele>
        <time>2021-08-19T17:33:43Z</time>
      </trkpt>
      <trkpt lat="46.14662" lon="5.69952">
        <ele>880.7</ele>
        <time>2021-08-19T17:33:44Z</time>
      </trkpt>
      <trkpt lat="46.14661" lon="5.6995">
        <ele>880.8</ele>
        <time>2021-08-19T17:33:45Z</time>
      </trkpt>
      <trkpt lat="46.14659" lon="5.69948">
        <ele>880.9</ele>
        <time>2021-08-19T17:33:47Z</time>
      </trkpt>
      <trkpt lat="46.14656" lon="5.69945">
        <ele>881.1</ele>
        <time>2021-08-19T17:33:48Z</time>
      </trkpt>
      <trkpt lat="46.14654" lon="5.69941">
        <ele>881.3</ele>
        <time>2021-08-19T17:33:50Z</time>
      </trkpt>
      <trkpt lat="46.14651" lon="5.69935">
        <ele>881.6</ele>
        <time>2021-08-19T17:33:52Z</time>
      </trkpt>
      <trkpt lat="46.14649" lon="5.6993">
        <ele>881.8</ele>
        <time>2021-08-19T17:33:53Z</time>
      </trkpt>
      <trkpt lat="46.14646" lon="5.69925">
        <ele>882</ele>
        <time>2021-08-19T17:33:55Z</time>
      </trkpt>
      <trkpt lat="46.14643" lon="5.6992">
        <ele>882.2</ele>
        <time>2021-08-19T17:33:57Z</time>
      </trkpt>
      <trkpt lat="46.14641" lon="5.69915">
        <ele>882.4</ele>
        <time>2021-08-19T17:33:59Z</time>
      </trkpt>
      <trkpt lat="46.1464" lon="5.69914">
        <ele>882.5</ele>
        <time>2021-08-19T17:34:00Z</time>
      </trkpt>
      <trkpt lat="46.14639" lon="5.69913">
        <ele>882.5</ele>
        <time>2021-08-19T17:34:01Z</time>
      </trkpt>
      <trkpt lat="46.14637" lon="5.69908">
        <ele>882.7</ele>
        <time>2021-08-19T17:34:02Z</time>
      </trkpt>
      <trkpt lat="46.14637" lon="5.69907">
        <ele>882.7</ele>
        <time>2021-08-19T17:34:03Z</time>
      </trkpt>
      <trkpt lat="46.14635" lon="5.69902">
        <ele>882.8</ele>
        <time>2021-08-19T17:34:05Z</time>
      </trkpt>
      <trkpt lat="46.14635" lon="5.69901">
        <ele>882.9</ele>
        <time>2021-08-19T17:34:06Z</time>
      </trkpt>
      <trkpt lat="46.14634" lon="5.69897">
        <ele>883</ele>
        <time>2021-08-19T17:34:07Z</time>
      </trkpt>
      <trkpt lat="46.14634" lon="5.69896">
        <ele>883</ele>
        <time>2021-08-19T17:34:08Z</time>
      </trkpt>
      <trkpt lat="46.14633" lon="5.69894">
        <ele>883.1</ele>
        <time>2021-08-19T17:34:09Z</time>
      </trkpt>
      <trkpt lat="46.14632" lon="5.69891">
        <ele>883.2</ele>
        <time>2021-08-19T17:34:11Z</time>
      </trkpt>
      <trkpt lat="46.14631" lon="5.6989">
        <ele>883.3</ele>
        <time>2021-08-19T17:34:12Z</time>
      </trkpt>
      <trkpt lat="46.14629" lon="5.69888">
        <ele>883.3</ele>
        <time>2021-08-19T17:34:13Z</time>
      </trkpt>
      <trkpt lat="46.14625" lon="5.69883">
        <ele>883.6</ele>
        <time>2021-08-19T17:34:15Z</time>
      </trkpt>
      <trkpt lat="46.14624" lon="5.69882">
        <ele>883.6</ele>
        <time>2021-08-19T17:34:17Z</time>
      </trkpt>
      <trkpt lat="46.14622" lon="5.6988">
        <ele>883.7</ele>
        <time>2021-08-19T17:34:18Z</time>
      </trkpt>
      <trkpt lat="46.14621" lon="5.69878">
        <ele>883.8</ele>
        <time>2021-08-19T17:34:19Z</time>
      </trkpt>
      <trkpt lat="46.14618" lon="5.69875">
        <ele>884</ele>
        <time>2021-08-19T17:34:21Z</time>
      </trkpt>
      <trkpt lat="46.14615" lon="5.69872">
        <ele>884.1</ele>
        <time>2021-08-19T17:34:22Z</time>
      </trkpt>
      <trkpt lat="46.14612" lon="5.69868">
        <ele>884.3</ele>
        <time>2021-08-19T17:34:24Z</time>
      </trkpt>
      <trkpt lat="46.14611" lon="5.69868">
        <ele>884.3</ele>
        <time>2021-08-19T17:34:25Z</time>
      </trkpt>
      <trkpt lat="46.14609" lon="5.69865">
        <ele>884.5</ele>
        <time>2021-08-19T17:34:26Z</time>
      </trkpt>
      <trkpt lat="46.14608" lon="5.69864">
        <ele>884.5</ele>
        <time>2021-08-19T17:34:27Z</time>
      </trkpt>
      <trkpt lat="46.14606" lon="5.69861">
        <ele>884.7</ele>
        <time>2021-08-19T17:34:28Z</time>
      </trkpt>
      <trkpt lat="46.14605" lon="5.6986">
        <ele>884.7</ele>
        <time>2021-08-19T17:34:29Z</time>
      </trkpt>
      <trkpt lat="46.14603" lon="5.69857">
        <ele>884.8</ele>
        <time>2021-08-19T17:34:30Z</time>
      </trkpt>
      <trkpt lat="46.14603" lon="5.69856">
        <ele>884.9</ele>
        <time>2021-08-19T17:34:31Z</time>
      </trkpt>
      <trkpt lat="46.146" lon="5.6985">
        <ele>885.1</ele>
        <time>2021-08-19T17:34:33Z</time>
      </trkpt>
      <trkpt lat="46.14599" lon="5.69848">
        <ele>885.1</ele>
        <time>2021-08-19T17:34:34Z</time>
      </trkpt>
      <trkpt lat="46.14599" lon="5.69846">
        <ele>885.2</ele>
        <time>2021-08-19T17:34:35Z</time>
      </trkpt>
      <trkpt lat="46.14597" lon="5.69842">
        <ele>885.4</ele>
        <time>2021-08-19T17:34:36Z</time>
      </trkpt>
      <trkpt lat="46.14596" lon="5.69841">
        <ele>885.4</ele>
        <time>2021-08-19T17:34:37Z</time>
      </trkpt>
      <trkpt lat="46.14594" lon="5.69837">
        <ele>885.5</ele>
        <time>2021-08-19T17:34:38Z</time>
      </trkpt>
      <trkpt lat="46.14591" lon="5.69832">
        <ele>885.8</ele>
        <time>2021-08-19T17:34:40Z</time>
      </trkpt>
      <trkpt lat="46.14589" lon="5.69829">
        <ele>885.9</ele>
        <time>2021-08-19T17:34:41Z</time>
      </trkpt>
      <trkpt lat="46.14588" lon="5.69827">
        <ele>886</ele>
        <time>2021-08-19T17:34:42Z</time>
      </trkpt>
      <trkpt lat="46.14586" lon="5.69824">
        <ele>886.1</ele>
        <time>2021-08-19T17:34:44Z</time>
      </trkpt>
      <trkpt lat="46.14585" lon="5.69819">
        <ele>886.2</ele>
        <time>2021-08-19T17:34:45Z</time>
      </trkpt>
      <trkpt lat="46.14584" lon="5.69812">
        <ele>886.4</ele>
        <time>2021-08-19T17:34:47Z</time>
      </trkpt>
      <trkpt lat="46.14583" lon="5.69809">
        <ele>886.6</ele>
        <time>2021-08-19T17:34:48Z</time>
      </trkpt>
      <trkpt lat="46.14582" lon="5.69805">
        <ele>886.7</ele>
        <time>2021-08-19T17:34:49Z</time>
      </trkpt>
      <trkpt lat="46.14581" lon="5.698">
        <ele>886.8</ele>
        <time>2021-08-19T17:34:51Z</time>
      </trkpt>
      <trkpt lat="46.1458" lon="5.69798">
        <ele>886.9</ele>
        <time>2021-08-19T17:34:52Z</time>
      </trkpt>
      <trkpt lat="46.14579" lon="5.69794">
        <ele>887</ele>
        <time>2021-08-19T17:34:53Z</time>
      </trkpt>
      <trkpt lat="46.14579" lon="5.69793">
        <ele>887.1</ele>
        <time>2021-08-19T17:34:54Z</time>
      </trkpt>
      <trkpt lat="46.14577" lon="5.69789">
        <ele>887.2</ele>
        <time>2021-08-19T17:34:55Z</time>
      </trkpt>
      <trkpt lat="46.14576" lon="5.69788">
        <ele>887.2</ele>
        <time>2021-08-19T17:34:56Z</time>
      </trkpt>
      <trkpt lat="46.14574" lon="5.69785">
        <ele>887.3</ele>
        <time>2021-08-19T17:34:57Z</time>
      </trkpt>
      <trkpt lat="46.14572" lon="5.69779">
        <ele>887.5</ele>
        <time>2021-08-19T17:34:59Z</time>
      </trkpt>
      <trkpt lat="46.14571" lon="5.69777">
        <ele>887.6</ele>
        <time>2021-08-19T17:35:00Z</time>
      </trkpt>
      <trkpt lat="46.1457" lon="5.69775">
        <ele>887.6</ele>
        <time>2021-08-19T17:35:01Z</time>
      </trkpt>
      <trkpt lat="46.14569" lon="5.69771">
        <ele>887.7</ele>
        <time>2021-08-19T17:35:02Z</time>
      </trkpt>
      <trkpt lat="46.14569" lon="5.6977">
        <ele>887.8</ele>
        <time>2021-08-19T17:35:03Z</time>
      </trkpt>
      <trkpt lat="46.14566" lon="5.69766">
        <ele>887.9</ele>
        <time>2021-08-19T17:35:05Z</time>
      </trkpt>
      <trkpt lat="46.14565" lon="5.69765">
        <ele>887.9</ele>
        <time>2021-08-19T17:35:06Z</time>
      </trkpt>
      <trkpt lat="46.14564" lon="5.69763">
        <ele>888</ele>
        <time>2021-08-19T17:35:07Z</time>
      </trkpt>
      <trkpt lat="46.14561" lon="5.69759">
        <ele>888.1</ele>
        <time>2021-08-19T17:35:08Z</time>
      </trkpt>
      <trkpt lat="46.1456" lon="5.69756">
        <ele>888.2</ele>
        <time>2021-08-19T17:35:09Z</time>
      </trkpt>
      <trkpt lat="46.14559" lon="5.69753">
        <ele>888.3</ele>
        <time>2021-08-19T17:35:11Z</time>
      </trkpt>
      <trkpt lat="46.14555" lon="5.69748">
        <ele>888.4</ele>
        <time>2021-08-19T17:35:13Z</time>
      </trkpt>
      <trkpt lat="46.14551" lon="5.69744">
        <ele>888.6</ele>
        <time>2021-08-19T17:35:14Z</time>
      </trkpt>
      <trkpt lat="46.1455" lon="5.69743">
        <ele>888.6</ele>
        <time>2021-08-19T17:35:15Z</time>
      </trkpt>
      <trkpt lat="46.14546" lon="5.6974">
        <ele>888.7</ele>
        <time>2021-08-19T17:35:16Z</time>
      </trkpt>
      <trkpt lat="46.14544" lon="5.69739">
        <ele>888.8</ele>
        <time>2021-08-19T17:35:17Z</time>
      </trkpt>
      <trkpt lat="46.14542" lon="5.69737">
        <ele>888.9</ele>
        <time>2021-08-19T17:35:18Z</time>
      </trkpt>
      <trkpt lat="46.14539" lon="5.69736">
        <ele>889</ele>
        <time>2021-08-19T17:35:20Z</time>
      </trkpt>
      <trkpt lat="46.14536" lon="5.69736">
        <ele>889.1</ele>
        <time>2021-08-19T17:35:21Z</time>
      </trkpt>
      <trkpt lat="46.1453" lon="5.69734">
        <ele>889.2</ele>
        <time>2021-08-19T17:35:23Z</time>
      </trkpt>
      <trkpt lat="46.14526" lon="5.69732">
        <ele>889.4</ele>
        <time>2021-08-19T17:35:24Z</time>
      </trkpt>
      <trkpt lat="46.14524" lon="5.69732">
        <ele>889.4</ele>
        <time>2021-08-19T17:35:25Z</time>
      </trkpt>
      <trkpt lat="46.14521" lon="5.69729">
        <ele>889.5</ele>
        <time>2021-08-19T17:35:26Z</time>
      </trkpt>
      <trkpt lat="46.14521" lon="5.69727">
        <ele>889.6</ele>
        <time>2021-08-19T17:35:27Z</time>
      </trkpt>
      <trkpt lat="46.14519" lon="5.69724">
        <ele>889.7</ele>
        <time>2021-08-19T17:35:28Z</time>
      </trkpt>
      <trkpt lat="46.14514" lon="5.69719">
        <ele>889.9</ele>
        <time>2021-08-19T17:35:30Z</time>
      </trkpt>
      <trkpt lat="46.14512" lon="5.69717">
        <ele>890</ele>
        <time>2021-08-19T17:35:31Z</time>
      </trkpt>
      <trkpt lat="46.14509" lon="5.69711">
        <ele>890.2</ele>
        <time>2021-08-19T17:35:33Z</time>
      </trkpt>
      <trkpt lat="46.14508" lon="5.69708">
        <ele>890.4</ele>
        <time>2021-08-19T17:35:35Z</time>
      </trkpt>
      <trkpt lat="46.14506" lon="5.69704">
        <ele>890.5</ele>
        <time>2021-08-19T17:35:36Z</time>
      </trkpt>
      <trkpt lat="46.14505" lon="5.69699">
        <ele>890.7</ele>
        <time>2021-08-19T17:35:37Z</time>
      </trkpt>
      <trkpt lat="46.14504" lon="5.69694">
        <ele>890.9</ele>
        <time>2021-08-19T17:35:38Z</time>
      </trkpt>
      <trkpt lat="46.14503" lon="5.69692">
        <ele>890.9</ele>
        <time>2021-08-19T17:35:39Z</time>
      </trkpt>
      <trkpt lat="46.14502" lon="5.69689">
        <ele>891.1</ele>
        <time>2021-08-19T17:35:41Z</time>
      </trkpt>
      <trkpt lat="46.14499" lon="5.69684">
        <ele>891.3</ele>
        <time>2021-08-19T17:35:43Z</time>
      </trkpt>
      <trkpt lat="46.14498" lon="5.69679">
        <ele>891.4</ele>
        <time>2021-08-19T17:35:44Z</time>
      </trkpt>
      <trkpt lat="46.14498" lon="5.69678">
        <ele>891.5</ele>
        <time>2021-08-19T17:35:45Z</time>
      </trkpt>
      <trkpt lat="46.14497" lon="5.69673">
        <ele>891.6</ele>
        <time>2021-08-19T17:35:46Z</time>
      </trkpt>
      <trkpt lat="46.14496" lon="5.69668">
        <ele>891.8</ele>
        <time>2021-08-19T17:35:48Z</time>
      </trkpt>
      <trkpt lat="46.14495" lon="5.69665">
        <ele>891.9</ele>
        <time>2021-08-19T17:35:49Z</time>
      </trkpt>
      <trkpt lat="46.14493" lon="5.69662">
        <ele>892.1</ele>
        <time>2021-08-19T17:35:51Z</time>
      </trkpt>
      <trkpt lat="46.14491" lon="5.69656">
        <ele>892.3</ele>
        <time>2021-08-19T17:35:53Z</time>
      </trkpt>
      <trkpt lat="46.1449" lon="5.69655">
        <ele>892.4</ele>
        <time>2021-08-19T17:35:54Z</time>
      </trkpt>
      <trkpt lat="46.14489" lon="5.69654">
        <ele>892.4</ele>
        <time>2021-08-19T17:35:56Z</time>
      </trkpt>
      <trkpt lat="46.14489" lon="5.69653">
        <ele>892.5</ele>
        <time>2021-08-19T17:35:58Z</time>
      </trkpt>
      <trkpt lat="46.14488" lon="5.69651">
        <ele>892.5</ele>
        <time>2021-08-19T17:35:59Z</time>
      </trkpt>
      <trkpt lat="46.14487" lon="5.6965">
        <ele>892.6</ele>
        <time>2021-08-19T17:36:01Z</time>
      </trkpt>
      <trkpt lat="46.14487" lon="5.69649">
        <ele>892.6</ele>
        <time>2021-08-19T17:36:02Z</time>
      </trkpt>
      <trkpt lat="46.14486" lon="5.69648">
        <ele>892.6</ele>
        <time>2021-08-19T17:36:04Z</time>
      </trkpt>
      <trkpt lat="46.14485" lon="5.69646">
        <ele>892.7</ele>
        <time>2021-08-19T17:36:47Z</time>
      </trkpt>
      <trkpt lat="46.14485" lon="5.69645">
        <ele>892.7</ele>
        <time>2021-08-19T17:36:48Z</time>
      </trkpt>
      <trkpt lat="46.14477" lon="5.69632">
        <ele>893.2</ele>
        <time>2021-08-19T17:36:50Z</time>
      </trkpt>
      <trkpt lat="46.14472" lon="5.69618">
        <ele>893.5</ele>
        <time>2021-08-19T17:36:52Z</time>
      </trkpt>
      <trkpt lat="46.14467" lon="5.69606">
        <ele>893.7</ele>
        <time>2021-08-19T17:36:54Z</time>
      </trkpt>
      <trkpt lat="46.14465" lon="5.69594">
        <ele>893.8</ele>
        <time>2021-08-19T17:36:56Z</time>
      </trkpt>
      <trkpt lat="46.14463" lon="5.69589">
        <ele>893.8</ele>
        <time>2021-08-19T17:36:57Z</time>
      </trkpt>
      <trkpt lat="46.14462" lon="5.69584">
        <ele>893.8</ele>
        <time>2021-08-19T17:36:58Z</time>
      </trkpt>
      <trkpt lat="46.14461" lon="5.69577">
        <ele>893.8</ele>
        <time>2021-08-19T17:36:59Z</time>
      </trkpt>
      <trkpt lat="46.14461" lon="5.6957">
        <ele>893.7</ele>
        <time>2021-08-19T17:37:00Z</time>
      </trkpt>
      <trkpt lat="46.14461" lon="5.69563">
        <ele>893.7</ele>
        <time>2021-08-19T17:37:01Z</time>
      </trkpt>
      <trkpt lat="46.14462" lon="5.69556">
        <ele>893.6</ele>
        <time>2021-08-19T17:37:02Z</time>
      </trkpt>
      <trkpt lat="46.1446" lon="5.69543">
        <ele>893.3</ele>
        <time>2021-08-19T17:37:04Z</time>
      </trkpt>
      <trkpt lat="46.14457" lon="5.69529">
        <ele>892.9</ele>
        <time>2021-08-19T17:37:06Z</time>
      </trkpt>
      <trkpt lat="46.14449" lon="5.69515">
        <ele>892.4</ele>
        <time>2021-08-19T17:37:08Z</time>
      </trkpt>
      <trkpt lat="46.1444" lon="5.69504">
        <ele>891.9</ele>
        <time>2021-08-19T17:37:10Z</time>
      </trkpt>
      <trkpt lat="46.14433" lon="5.69492">
        <ele>891.4</ele>
        <time>2021-08-19T17:37:12Z</time>
      </trkpt>
      <trkpt lat="46.14429" lon="5.69479">
        <ele>890.8</ele>
        <time>2021-08-19T17:37:14Z</time>
      </trkpt>
      <trkpt lat="46.14427" lon="5.69471">
        <ele>890.4</ele>
        <time>2021-08-19T17:37:15Z</time>
      </trkpt>
      <trkpt lat="46.14423" lon="5.69454">
        <ele>889.6</ele>
        <time>2021-08-19T17:37:17Z</time>
      </trkpt>
      <trkpt lat="46.14422" lon="5.69445">
        <ele>889.1</ele>
        <time>2021-08-19T17:37:18Z</time>
      </trkpt>
      <trkpt lat="46.14421" lon="5.69424">
        <ele>888.2</ele>
        <time>2021-08-19T17:37:20Z</time>
      </trkpt>
      <trkpt lat="46.14422" lon="5.69401">
        <ele>887.2</ele>
        <time>2021-08-19T17:37:22Z</time>
      </trkpt>
      <trkpt lat="46.14422" lon="5.6939">
        <ele>886.6</ele>
        <time>2021-08-19T17:37:23Z</time>
      </trkpt>
      <trkpt lat="46.14421" lon="5.69367">
        <ele>885.6</ele>
        <time>2021-08-19T17:37:25Z</time>
      </trkpt>
      <trkpt lat="46.14421" lon="5.69355">
        <ele>885.3</ele>
        <time>2021-08-19T17:37:26Z</time>
      </trkpt>
      <trkpt lat="46.14419" lon="5.69334">
        <ele>884.5</ele>
        <time>2021-08-19T17:37:28Z</time>
      </trkpt>
      <trkpt lat="46.14417" lon="5.69325">
        <ele>884.2</ele>
        <time>2021-08-19T17:37:29Z</time>
      </trkpt>
      <trkpt lat="46.14414" lon="5.69315">
        <ele>883.8</ele>
        <time>2021-08-19T17:37:30Z</time>
      </trkpt>
      <trkpt lat="46.1441" lon="5.69305">
        <ele>883.5</ele>
        <time>2021-08-19T17:37:31Z</time>
      </trkpt>
      <trkpt lat="46.14402" lon="5.69286">
        <ele>882.8</ele>
        <time>2021-08-19T17:37:33Z</time>
      </trkpt>
      <trkpt lat="46.14399" lon="5.69276">
        <ele>882.5</ele>
        <time>2021-08-19T17:37:34Z</time>
      </trkpt>
      <trkpt lat="46.14392" lon="5.69258">
        <ele>881.9</ele>
        <time>2021-08-19T17:37:36Z</time>
      </trkpt>
      <trkpt lat="46.14387" lon="5.69249">
        <ele>881.5</ele>
        <time>2021-08-19T17:37:37Z</time>
      </trkpt>
      <trkpt lat="46.1438" lon="5.69232">
        <ele>880.9</ele>
        <time>2021-08-19T17:37:39Z</time>
      </trkpt>
      <trkpt lat="46.14373" lon="5.69216">
        <ele>880.3</ele>
        <time>2021-08-19T17:37:41Z</time>
      </trkpt>
      <trkpt lat="46.1437" lon="5.69207">
        <ele>879.9</ele>
        <time>2021-08-19T17:37:42Z</time>
      </trkpt>
      <trkpt lat="46.14364" lon="5.6919">
        <ele>879.3</ele>
        <time>2021-08-19T17:37:44Z</time>
      </trkpt>
      <trkpt lat="46.14357" lon="5.69172">
        <ele>878.7</ele>
        <time>2021-08-19T17:37:46Z</time>
      </trkpt>
      <trkpt lat="46.14351" lon="5.69155">
        <ele>878</ele>
        <time>2021-08-19T17:37:48Z</time>
      </trkpt>
      <trkpt lat="46.14344" lon="5.69138">
        <ele>877.4</ele>
        <time>2021-08-19T17:37:50Z</time>
      </trkpt>
      <trkpt lat="46.14341" lon="5.69129">
        <ele>877.1</ele>
        <time>2021-08-19T17:37:51Z</time>
      </trkpt>
      <trkpt lat="46.14333" lon="5.6911">
        <ele>876.4</ele>
        <time>2021-08-19T17:37:53Z</time>
      </trkpt>
      <trkpt lat="46.14329" lon="5.69101">
        <ele>876.1</ele>
        <time>2021-08-19T17:37:54Z</time>
      </trkpt>
      <trkpt lat="46.14325" lon="5.69091">
        <ele>875.7</ele>
        <time>2021-08-19T17:37:55Z</time>
      </trkpt>
      <trkpt lat="46.1432" lon="5.69082">
        <ele>875.4</ele>
        <time>2021-08-19T17:37:56Z</time>
      </trkpt>
      <trkpt lat="46.14312" lon="5.69062">
        <ele>874.7</ele>
        <time>2021-08-19T17:37:58Z</time>
      </trkpt>
      <trkpt lat="46.14305" lon="5.69043">
        <ele>874</ele>
        <time>2021-08-19T17:38:00Z</time>
      </trkpt>
      <trkpt lat="46.14298" lon="5.69026">
        <ele>873.4</ele>
        <time>2021-08-19T17:38:02Z</time>
      </trkpt>
      <trkpt lat="46.14288" lon="5.69012">
        <ele>872.8</ele>
        <time>2021-08-19T17:38:04Z</time>
      </trkpt>
      <trkpt lat="46.14282" lon="5.69006">
        <ele>872.5</ele>
        <time>2021-08-19T17:38:05Z</time>
      </trkpt>
      <trkpt lat="46.14278" lon="5.69">
        <ele>872.2</ele>
        <time>2021-08-19T17:38:06Z</time>
      </trkpt>
      <trkpt lat="46.1427" lon="5.68988">
        <ele>871.8</ele>
        <time>2021-08-19T17:38:08Z</time>
      </trkpt>
      <trkpt lat="46.14265" lon="5.68974">
        <ele>871.3</ele>
        <time>2021-08-19T17:38:10Z</time>
      </trkpt>
      <trkpt lat="46.14262" lon="5.68967">
        <ele>871</ele>
        <time>2021-08-19T17:38:11Z</time>
      </trkpt>
      <trkpt lat="46.14255" lon="5.68949">
        <ele>870.3</ele>
        <time>2021-08-19T17:38:13Z</time>
      </trkpt>
      <trkpt lat="46.14252" lon="5.68939">
        <ele>870</ele>
        <time>2021-08-19T17:38:14Z</time>
      </trkpt>
      <trkpt lat="46.14246" lon="5.68917">
        <ele>869.3</ele>
        <time>2021-08-19T17:38:16Z</time>
      </trkpt>
      <trkpt lat="46.14243" lon="5.68905">
        <ele>868.9</ele>
        <time>2021-08-19T17:38:17Z</time>
      </trkpt>
      <trkpt lat="46.1424" lon="5.68892">
        <ele>868.5</ele>
        <time>2021-08-19T17:38:18Z</time>
      </trkpt>
      <trkpt lat="46.14237" lon="5.68879">
        <ele>868.1</ele>
        <time>2021-08-19T17:38:19Z</time>
      </trkpt>
      <trkpt lat="46.14228" lon="5.68857">
        <ele>867.3</ele>
        <time>2021-08-19T17:38:21Z</time>
      </trkpt>
      <trkpt lat="46.14222" lon="5.68848">
        <ele>867</ele>
        <time>2021-08-19T17:38:22Z</time>
      </trkpt>
      <trkpt lat="46.1421" lon="5.68835">
        <ele>866.4</ele>
        <time>2021-08-19T17:38:24Z</time>
      </trkpt>
      <trkpt lat="46.14196" lon="5.68829">
        <ele>865.8</ele>
        <time>2021-08-19T17:38:26Z</time>
      </trkpt>
      <trkpt lat="46.1418" lon="5.68825">
        <ele>865.2</ele>
        <time>2021-08-19T17:38:28Z</time>
      </trkpt>
      <trkpt lat="46.14166" lon="5.68825">
        <ele>864.7</ele>
        <time>2021-08-19T17:38:30Z</time>
      </trkpt>
      <trkpt lat="46.14152" lon="5.68828">
        <ele>864.1</ele>
        <time>2021-08-19T17:38:32Z</time>
      </trkpt>
      <trkpt lat="46.14138" lon="5.68835">
        <ele>863.6</ele>
        <time>2021-08-19T17:38:34Z</time>
      </trkpt>
      <trkpt lat="46.14124" lon="5.68838">
        <ele>863</ele>
        <time>2021-08-19T17:38:36Z</time>
      </trkpt>
      <trkpt lat="46.14109" lon="5.68842">
        <ele>862.5</ele>
        <time>2021-08-19T17:38:38Z</time>
      </trkpt>
      <trkpt lat="46.14093" lon="5.68845">
        <ele>862</ele>
        <time>2021-08-19T17:38:40Z</time>
      </trkpt>
      <trkpt lat="46.14087" lon="5.68845">
        <ele>861.8</ele>
        <time>2021-08-19T17:38:41Z</time>
      </trkpt>
      <trkpt lat="46.14082" lon="5.68844">
        <ele>861.6</ele>
        <time>2021-08-19T17:38:42Z</time>
      </trkpt>
      <trkpt lat="46.14081" lon="5.68835">
        <ele>861.5</ele>
        <time>2021-08-19T17:38:44Z</time>
      </trkpt>
      <trkpt lat="46.14084" lon="5.68821">
        <ele>861.2</ele>
        <time>2021-08-19T17:38:46Z</time>
      </trkpt>
      <trkpt lat="46.14087" lon="5.688">
        <ele>860.8</ele>
        <time>2021-08-19T17:38:48Z</time>
      </trkpt>
      <trkpt lat="46.14087" lon="5.68776">
        <ele>860.4</ele>
        <time>2021-08-19T17:38:49Z</time>
      </trkpt>
      <trkpt lat="46.14087" lon="5.68771">
        <ele>860.3</ele>
        <time>2021-08-19T17:38:50Z</time>
      </trkpt>
      <trkpt lat="46.14244" lon="5.68681">
        <ele>859.6</ele>
        <time>2021-08-19T17:39:18Z</time>
      </trkpt>
      <trkpt lat="46.14252" lon="5.68676">
        <ele>859.8</ele>
        <time>2021-08-19T17:39:20Z</time>
      </trkpt>
      <trkpt lat="46.14257" lon="5.68674">
        <ele>859.9</ele>
        <time>2021-08-19T17:39:21Z</time>
      </trkpt>
      <trkpt lat="46.14265" lon="5.68668">
        <ele>860.1</ele>
        <time>2021-08-19T17:39:22Z</time>
      </trkpt>
      <trkpt lat="46.1427" lon="5.68664">
        <ele>860.2</ele>
        <time>2021-08-19T17:39:23Z</time>
      </trkpt>
      <trkpt lat="46.14276" lon="5.68657">
        <ele>860.4</ele>
        <time>2021-08-19T17:39:25Z</time>
      </trkpt>
      <trkpt lat="46.14275" lon="5.68652">
        <ele>860.5</ele>
        <time>2021-08-19T17:39:26Z</time>
      </trkpt>
      <trkpt lat="46.1428" lon="5.68645">
        <ele>860.6</ele>
        <time>2021-08-19T17:39:28Z</time>
      </trkpt>
      <trkpt lat="46.14282" lon="5.6864">
        <ele>860.8</ele>
        <time>2021-08-19T17:39:29Z</time>
      </trkpt>
      <trkpt lat="46.14288" lon="5.68629">
        <ele>861</ele>
        <time>2021-08-19T17:39:31Z</time>
      </trkpt>
      <trkpt lat="46.14292" lon="5.68617">
        <ele>861.3</ele>
        <time>2021-08-19T17:39:33Z</time>
      </trkpt>
      <trkpt lat="46.14293" lon="5.68609">
        <ele>861.4</ele>
        <time>2021-08-19T17:39:34Z</time>
      </trkpt>
      <trkpt lat="46.14294" lon="5.68601">
        <ele>861.5</ele>
        <time>2021-08-19T17:39:35Z</time>
      </trkpt>
      <trkpt lat="46.14294" lon="5.68593">
        <ele>861.6</ele>
        <time>2021-08-19T17:39:37Z</time>
      </trkpt>
      <trkpt lat="46.14294" lon="5.68589">
        <ele>861.7</ele>
        <time>2021-08-19T17:39:38Z</time>
      </trkpt>
      <trkpt lat="46.14292" lon="5.68581">
        <ele>861.8</ele>
        <time>2021-08-19T17:39:40Z</time>
      </trkpt>
      <trkpt lat="46.14291" lon="5.68577">
        <ele>861.9</ele>
        <time>2021-08-19T17:39:41Z</time>
      </trkpt>
      <trkpt lat="46.14288" lon="5.68574">
        <ele>861.9</ele>
        <time>2021-08-19T17:39:42Z</time>
      </trkpt>
      <trkpt lat="46.14285" lon="5.68568">
        <ele>862</ele>
        <time>2021-08-19T17:39:43Z</time>
      </trkpt>
      <trkpt lat="46.14283" lon="5.68562">
        <ele>862.1</ele>
        <time>2021-08-19T17:39:45Z</time>
      </trkpt>
      <trkpt lat="46.14281" lon="5.68557">
        <ele>862.1</ele>
        <time>2021-08-19T17:39:46Z</time>
      </trkpt>
      <trkpt lat="46.1428" lon="5.68548">
        <ele>862.1</ele>
        <time>2021-08-19T17:39:48Z</time>
      </trkpt>
      <trkpt lat="46.14279" lon="5.68542">
        <ele>862</ele>
        <time>2021-08-19T17:39:49Z</time>
      </trkpt>
      <trkpt lat="46.14279" lon="5.68536">
        <ele>861.9</ele>
        <time>2021-08-19T17:39:50Z</time>
      </trkpt>
      <trkpt lat="46.14279" lon="5.68524">
        <ele>861.7</ele>
        <time>2021-08-19T17:39:52Z</time>
      </trkpt>
      <trkpt lat="46.14279" lon="5.68518">
        <ele>861.6</ele>
        <time>2021-08-19T17:39:53Z</time>
      </trkpt>
      <trkpt lat="46.1428" lon="5.68512">
        <ele>861.5</ele>
        <time>2021-08-19T17:39:54Z</time>
      </trkpt>
      <trkpt lat="46.14281" lon="5.68506">
        <ele>861.4</ele>
        <time>2021-08-19T17:39:55Z</time>
      </trkpt>
      <trkpt lat="46.14282" lon="5.68499">
        <ele>861.2</ele>
        <time>2021-08-19T17:39:56Z</time>
      </trkpt>
      <trkpt lat="46.14283" lon="5.68491">
        <ele>861.1</ele>
        <time>2021-08-19T17:39:57Z</time>
      </trkpt>
      <trkpt lat="46.14283" lon="5.68477">
        <ele>860.8</ele>
        <time>2021-08-19T17:39:59Z</time>
      </trkpt>
      <trkpt lat="46.14284" lon="5.68469">
        <ele>860.7</ele>
        <time>2021-08-19T17:40:00Z</time>
      </trkpt>
      <trkpt lat="46.14287" lon="5.68453">
        <ele>860.4</ele>
        <time>2021-08-19T17:40:02Z</time>
      </trkpt>
      <trkpt lat="46.1429" lon="5.68445">
        <ele>860.3</ele>
        <time>2021-08-19T17:40:03Z</time>
      </trkpt>
      <trkpt lat="46.14295" lon="5.68438">
        <ele>860.2</ele>
        <time>2021-08-19T17:40:04Z</time>
      </trkpt>
      <trkpt lat="46.14299" lon="5.68432">
        <ele>860.2</ele>
        <time>2021-08-19T17:40:05Z</time>
      </trkpt>
      <trkpt lat="46.14304" lon="5.68427">
        <ele>860.2</ele>
        <time>2021-08-19T17:40:06Z</time>
      </trkpt>
      <trkpt lat="46.14313" lon="5.68419">
        <ele>860.2</ele>
        <time>2021-08-19T17:40:08Z</time>
      </trkpt>
      <trkpt lat="46.14327" lon="5.68415">
        <ele>860.2</ele>
        <time>2021-08-19T17:40:10Z</time>
      </trkpt>
      <trkpt lat="46.14333" lon="5.68415">
        <ele>860.3</ele>
        <time>2021-08-19T17:40:11Z</time>
      </trkpt>
      <trkpt lat="46.14343" lon="5.6842">
        <ele>860.3</ele>
        <time>2021-08-19T17:40:13Z</time>
      </trkpt>
      <trkpt lat="46.14347" lon="5.68422">
        <ele>860.3</ele>
        <time>2021-08-19T17:40:14Z</time>
      </trkpt>
      <trkpt lat="46.14355" lon="5.68428">
        <ele>860.2</ele>
        <time>2021-08-19T17:40:16Z</time>
      </trkpt>
      <trkpt lat="46.14359" lon="5.68433">
        <ele>860.1</ele>
        <time>2021-08-19T17:40:17Z</time>
      </trkpt>
      <trkpt lat="46.14366" lon="5.68444">
        <ele>859.9</ele>
        <time>2021-08-19T17:40:19Z</time>
      </trkpt>
      <trkpt lat="46.1437" lon="5.68444">
        <ele>859.7</ele>
        <time>2021-08-19T17:40:20Z</time>
      </trkpt>
      <trkpt lat="46.14377" lon="5.68457">
        <ele>859.3</ele>
        <time>2021-08-19T17:40:22Z</time>
      </trkpt>
      <trkpt lat="46.1438" lon="5.68464">
        <ele>859</ele>
        <time>2021-08-19T17:40:23Z</time>
      </trkpt>
      <trkpt lat="46.14393" lon="5.68472">
        <ele>858.2</ele>
        <time>2021-08-19T17:40:25Z</time>
      </trkpt>
      <trkpt lat="46.14406" lon="5.68476">
        <ele>857.4</ele>
        <time>2021-08-19T17:40:27Z</time>
      </trkpt>
      <trkpt lat="46.14412" lon="5.68477">
        <ele>857</ele>
        <time>2021-08-19T17:40:28Z</time>
      </trkpt>
      <trkpt lat="46.14418" lon="5.68478">
        <ele>856.7</ele>
        <time>2021-08-19T17:40:29Z</time>
      </trkpt>
      <trkpt lat="46.14431" lon="5.68481">
        <ele>856.1</ele>
        <time>2021-08-19T17:40:31Z</time>
      </trkpt>
      <trkpt lat="46.14443" lon="5.68485">
        <ele>855.8</ele>
        <time>2021-08-19T17:40:33Z</time>
      </trkpt>
      <trkpt lat="46.14448" lon="5.68486">
        <ele>855.7</ele>
        <time>2021-08-19T17:40:34Z</time>
      </trkpt>
      <trkpt lat="46.14455" lon="5.68487">
        <ele>855.6</ele>
        <time>2021-08-19T17:40:35Z</time>
      </trkpt>
      <trkpt lat="46.14467" lon="5.68487">
        <ele>855.4</ele>
        <time>2021-08-19T17:40:37Z</time>
      </trkpt>
      <trkpt lat="46.14474" lon="5.68486">
        <ele>855.4</ele>
        <time>2021-08-19T17:40:38Z</time>
      </trkpt>
      <trkpt lat="46.14488" lon="5.68483">
        <ele>855.3</ele>
        <time>2021-08-19T17:40:40Z</time>
      </trkpt>
      <trkpt lat="46.145" lon="5.68478">
        <ele>855.4</ele>
        <time>2021-08-19T17:40:42Z</time>
      </trkpt>
      <trkpt lat="46.14506" lon="5.68476">
        <ele>855.4</ele>
        <time>2021-08-19T17:40:43Z</time>
      </trkpt>
      <trkpt lat="46.14517" lon="5.68472">
        <ele>855.6</ele>
        <time>2021-08-19T17:40:45Z</time>
      </trkpt>
      <trkpt lat="46.14523" lon="5.68469">
        <ele>855.6</ele>
        <time>2021-08-19T17:40:46Z</time>
      </trkpt>
      <trkpt lat="46.14527" lon="5.68466">
        <ele>855.6</ele>
        <time>2021-08-19T17:40:47Z</time>
      </trkpt>
      <trkpt lat="46.14535" lon="5.68459">
        <ele>855.7</ele>
        <time>2021-08-19T17:40:49Z</time>
      </trkpt>
      <trkpt lat="46.14539" lon="5.68456">
        <ele>855.8</ele>
        <time>2021-08-19T17:40:50Z</time>
      </trkpt>
      <trkpt lat="46.14543" lon="5.68448">
        <ele>855.9</ele>
        <time>2021-08-19T17:40:52Z</time>
      </trkpt>
      <trkpt lat="46.14543" lon="5.68443">
        <ele>855.9</ele>
        <time>2021-08-19T17:40:53Z</time>
      </trkpt>
      <trkpt lat="46.14546" lon="5.68435">
        <ele>856.1</ele>
        <time>2021-08-19T17:40:55Z</time>
      </trkpt>
      <trkpt lat="46.14549" lon="5.68431">
        <ele>856.2</ele>
        <time>2021-08-19T17:40:56Z</time>
      </trkpt>
      <trkpt lat="46.14555" lon="5.68424">
        <ele>856.4</ele>
        <time>2021-08-19T17:40:58Z</time>
      </trkpt>
      <trkpt lat="46.14556" lon="5.68427">
        <ele>856.4</ele>
        <time>2021-08-19T17:40:59Z</time>
      </trkpt>
      <trkpt lat="46.14559" lon="5.68425">
        <ele>856.5</ele>
        <time>2021-08-19T17:41:01Z</time>
      </trkpt>
      <trkpt lat="46.14566" lon="5.68415">
        <ele>856.7</ele>
        <time>2021-08-19T17:41:03Z</time>
      </trkpt>
      <trkpt lat="46.14569" lon="5.68409">
        <ele>856.8</ele>
        <time>2021-08-19T17:41:04Z</time>
      </trkpt>
      <trkpt lat="46.14571" lon="5.68398">
        <ele>856.9</ele>
        <time>2021-08-19T17:41:06Z</time>
      </trkpt>
      <trkpt lat="46.14571" lon="5.68393">
        <ele>857</ele>
        <time>2021-08-19T17:41:07Z</time>
      </trkpt>
      <trkpt lat="46.14567" lon="5.68386">
        <ele>857</ele>
        <time>2021-08-19T17:41:09Z</time>
      </trkpt>
      <trkpt lat="46.14565" lon="5.68383">
        <ele>857</ele>
        <time>2021-08-19T17:41:10Z</time>
      </trkpt>
      <trkpt lat="46.14564" lon="5.68379">
        <ele>857</ele>
        <time>2021-08-19T17:41:11Z</time>
      </trkpt>
      <trkpt lat="46.14565" lon="5.68377">
        <ele>857</ele>
        <time>2021-08-19T17:41:12Z</time>
      </trkpt>
      <trkpt lat="46.14567" lon="5.68376">
        <ele>857</ele>
        <time>2021-08-19T17:41:13Z</time>
      </trkpt>
      <trkpt lat="46.14572" lon="5.68373">
        <ele>856.9</ele>
        <time>2021-08-19T17:41:15Z</time>
      </trkpt>
      <trkpt lat="46.14577" lon="5.68369">
        <ele>856.8</ele>
        <time>2021-08-19T17:41:17Z</time>
      </trkpt>
      <trkpt lat="46.14581" lon="5.68367">
        <ele>856.7</ele>
        <time>2021-08-19T17:41:18Z</time>
      </trkpt>
      <trkpt lat="46.14587" lon="5.68362">
        <ele>856.6</ele>
        <time>2021-08-19T17:41:20Z</time>
      </trkpt>
      <trkpt lat="46.14591" lon="5.68355">
        <ele>856.4</ele>
        <time>2021-08-19T17:41:22Z</time>
      </trkpt>
      <trkpt lat="46.14594" lon="5.68351">
        <ele>856.3</ele>
        <time>2021-08-19T17:41:23Z</time>
      </trkpt>
      <trkpt lat="46.14595" lon="5.68348">
        <ele>856.3</ele>
        <time>2021-08-19T17:41:24Z</time>
      </trkpt>
      <trkpt lat="46.14597" lon="5.68344">
        <ele>856.2</ele>
        <time>2021-08-19T17:41:26Z</time>
      </trkpt>
      <trkpt lat="46.146" lon="5.68339">
        <ele>856.1</ele>
        <time>2021-08-19T17:41:28Z</time>
      </trkpt>
      <trkpt lat="46.14606" lon="5.68332">
        <ele>856</ele>
        <time>2021-08-19T17:41:30Z</time>
      </trkpt>
      <trkpt lat="46.14608" lon="5.68327">
        <ele>855.9</ele>
        <time>2021-08-19T17:41:31Z</time>
      </trkpt>
      <trkpt lat="46.14611" lon="5.68322">
        <ele>855.7</ele>
        <time>2021-08-19T17:41:32Z</time>
      </trkpt>
      <trkpt lat="46.14614" lon="5.68316">
        <ele>855.6</ele>
        <time>2021-08-19T17:41:34Z</time>
      </trkpt>
      <trkpt lat="46.14618" lon="5.6831">
        <ele>855.4</ele>
        <time>2021-08-19T17:41:35Z</time>
      </trkpt>
      <trkpt lat="46.1462" lon="5.68307">
        <ele>855.2</ele>
        <time>2021-08-19T17:41:36Z</time>
      </trkpt>
      <trkpt lat="46.14623" lon="5.68302">
        <ele>855</ele>
        <time>2021-08-19T17:41:37Z</time>
      </trkpt>
      <trkpt lat="46.14625" lon="5.68298">
        <ele>854.8</ele>
        <time>2021-08-19T17:41:38Z</time>
      </trkpt>
      <trkpt lat="46.14627" lon="5.6829">
        <ele>854.6</ele>
        <time>2021-08-19T17:41:40Z</time>
      </trkpt>
      <trkpt lat="46.14629" lon="5.68285">
        <ele>854.3</ele>
        <time>2021-08-19T17:41:42Z</time>
      </trkpt>
      <trkpt lat="46.14635" lon="5.68274">
        <ele>853.9</ele>
        <time>2021-08-19T17:41:44Z</time>
      </trkpt>
      <trkpt lat="46.1464" lon="5.68262">
        <ele>853.4</ele>
        <time>2021-08-19T17:41:46Z</time>
      </trkpt>
      <trkpt lat="46.14642" lon="5.68259">
        <ele>853.3</ele>
        <time>2021-08-19T17:41:47Z</time>
      </trkpt>
      <trkpt lat="46.14643" lon="5.68258">
        <ele>853.2</ele>
        <time>2021-08-19T17:41:48Z</time>
      </trkpt>
      <trkpt lat="46.14644" lon="5.68256">
        <ele>853.2</ele>
        <time>2021-08-19T17:41:50Z</time>
      </trkpt>
      <trkpt lat="46.14645" lon="5.68256">
        <ele>853.1</ele>
        <time>2021-08-19T17:41:51Z</time>
      </trkpt>
      <trkpt lat="46.14646" lon="5.68256">
        <ele>853.1</ele>
        <time>2021-08-19T17:41:52Z</time>
      </trkpt>
      <trkpt lat="46.14646" lon="5.68257">
        <ele>853</ele>
        <time>2021-08-19T17:41:53Z</time>
      </trkpt>
      <trkpt lat="46.14646" lon="5.68259">
        <ele>853</ele>
        <time>2021-08-19T17:41:54Z</time>
      </trkpt>
      <trkpt lat="46.14645" lon="5.68261">
        <ele>852.9</ele>
        <time>2021-08-19T17:41:55Z</time>
      </trkpt>
      <trkpt lat="46.14644" lon="5.68261">
        <ele>852.9</ele>
        <time>2021-08-19T17:41:56Z</time>
      </trkpt>
      <trkpt lat="46.14643" lon="5.6826">
        <ele>852.9</ele>
        <time>2021-08-19T17:41:58Z</time>
      </trkpt>
      <trkpt lat="46.14641" lon="5.68259">
        <ele>852.8</ele>
        <time>2021-08-19T17:42:00Z</time>
      </trkpt>
      <trkpt lat="46.14645" lon="5.68259">
        <ele>852.6</ele>
        <time>2021-08-19T17:42:01Z</time>
      </trkpt>
      <trkpt lat="46.1465" lon="5.68261">
        <ele>852.4</ele>
        <time>2021-08-19T17:42:02Z</time>
      </trkpt>
      <trkpt lat="46.14652" lon="5.68262">
        <ele>852.4</ele>
        <time>2021-08-19T17:42:04Z</time>
      </trkpt>
      <trkpt lat="46.14655" lon="5.68261">
        <ele>852.4</ele>
        <time>2021-08-19T17:42:06Z</time>
      </trkpt>
      <trkpt lat="46.14654" lon="5.6826">
        <ele>852.4</ele>
        <time>2021-08-19T17:42:07Z</time>
      </trkpt>
      <trkpt lat="46.14652" lon="5.6826">
        <ele>852.4</ele>
        <time>2021-08-19T17:42:08Z</time>
      </trkpt>
      <trkpt lat="46.14651" lon="5.68259">
        <ele>852.5</ele>
        <time>2021-08-19T17:42:09Z</time>
      </trkpt>
      <trkpt lat="46.14649" lon="5.68258">
        <ele>852.5</ele>
        <time>2021-08-19T17:42:11Z</time>
      </trkpt>
      <trkpt lat="46.14648" lon="5.68258">
        <ele>852.5</ele>
        <time>2021-08-19T17:42:12Z</time>
      </trkpt>
      <trkpt lat="46.14646" lon="5.68257">
        <ele>852.5</ele>
        <time>2021-08-19T17:42:13Z</time>
      </trkpt>
      <trkpt lat="46.14645" lon="5.68257">
        <ele>852.5</ele>
        <time>2021-08-19T17:44:18Z</time>
      </trkpt>
      <trkpt lat="46.14643" lon="5.68256">
        <ele>852.5</ele>
        <time>2021-08-19T17:44:20Z</time>
      </trkpt>
      <trkpt lat="46.14642" lon="5.68256">
        <ele>852.5</ele>
        <time>2021-08-19T17:44:21Z</time>
      </trkpt>
      <trkpt lat="46.14643" lon="5.68252">
        <ele>852.5</ele>
        <time>2021-08-19T17:44:22Z</time>
      </trkpt>
      <trkpt lat="46.14643" lon="5.6825">
        <ele>852.5</ele>
        <time>2021-08-19T17:44:23Z</time>
      </trkpt>
      <trkpt lat="46.14643" lon="5.68249">
        <ele>852.5</ele>
        <time>2021-08-19T17:44:24Z</time>
      </trkpt>
      <trkpt lat="46.14643" lon="5.68247">
        <ele>852.5</ele>
        <time>2021-08-19T17:44:25Z</time>
      </trkpt>
      <trkpt lat="46.14643" lon="5.68245">
        <ele>852.6</ele>
        <time>2021-08-19T17:44:27Z</time>
      </trkpt>
      <trkpt lat="46.14639" lon="5.68236">
        <ele>852.6</ele>
        <time>2021-08-19T17:44:29Z</time>
      </trkpt>
      <trkpt lat="46.14635" lon="5.68229">
        <ele>852.6</ele>
        <time>2021-08-19T17:44:30Z</time>
      </trkpt>
      <trkpt lat="46.14632" lon="5.68222">
        <ele>852.7</ele>
        <time>2021-08-19T17:50:33Z</time>
      </trkpt>
      <trkpt lat="46.14628" lon="5.68215">
        <ele>852.7</ele>
        <time>2021-08-19T17:50:34Z</time>
      </trkpt>
      <trkpt lat="46.14624" lon="5.68217">
        <ele>852.8</ele>
        <time>2021-08-19T17:50:35Z</time>
      </trkpt>
      <trkpt lat="46.1461" lon="5.68223">
        <ele>852.9</ele>
        <time>2021-08-19T17:50:37Z</time>
      </trkpt>
      <trkpt lat="46.14607" lon="5.68224">
        <ele>852.9</ele>
        <time>2021-08-19T17:50:39Z</time>
      </trkpt>
      <trkpt lat="46.14607" lon="5.68224">
        <ele>852.9</ele>
        <time>2021-08-19T17:50:40Z</time>
      </trkpt>
      <trkpt lat="46.14606" lon="5.68224">
        <ele>852.9</ele>
        <time>2021-08-19T17:50:42Z</time>
      </trkpt>
      <trkpt lat="46.14601" lon="5.68225">
        <ele>852.9</ele>
        <time>2021-08-19T17:50:44Z</time>
      </trkpt>
      <trkpt lat="46.146" lon="5.68225">
        <ele>852.9</ele>
        <time>2021-08-19T17:50:46Z</time>
      </trkpt>
      <trkpt lat="46.14601" lon="5.68226">
        <ele>852.9</ele>
        <time>2021-08-19T17:50:48Z</time>
      </trkpt>
      <trkpt lat="46.14601" lon="5.68226">
        <ele>852.9</ele>
        <time>2021-08-19T17:50:49Z</time>
      </trkpt>
      <trkpt lat="46.14601" lon="5.68226">
        <ele>852.9</ele>
        <time>2021-08-19T17:50:50Z</time>
      </trkpt>
      <trkpt lat="46.14601" lon="5.68226">
        <ele>852.9</ele>
        <time>2021-08-19T17:50:52Z</time>
      </trkpt>
      <trkpt lat="46.14601" lon="5.68226">
        <ele>852.9</ele>
        <time>2021-08-19T17:50:54Z</time>
      </trkpt>
      <trkpt lat="46.14604" lon="5.68225">
        <ele>853</ele>
        <time>2021-08-19T17:50:56Z</time>
      </trkpt>
      <trkpt lat="46.14606" lon="5.68222">
        <ele>853</ele>
        <time>2021-08-19T17:50:58Z</time>
      </trkpt>
      <trkpt lat="46.14606" lon="5.68222">
        <ele>853</ele>
        <time>2021-08-19T17:50:59Z</time>
      </trkpt>
      <trkpt lat="46.14607" lon="5.68222">
        <ele>853</ele>
        <time>2021-08-19T17:51:00Z</time>
      </trkpt>
      <trkpt lat="46.14606" lon="5.68223">
        <ele>853</ele>
        <time>2021-08-19T17:51:02Z</time>
      </trkpt>
      <trkpt lat="46.14605" lon="5.68224">
        <ele>853</ele>
        <time>2021-08-19T17:51:03Z</time>
      </trkpt>
      <trkpt lat="46.14605" lon="5.68224">
        <ele>853</ele>
        <time>2021-08-19T17:51:04Z</time>
      </trkpt>
      <trkpt lat="46.14606" lon="5.68224">
        <ele>853</ele>
        <time>2021-08-19T17:51:06Z</time>
      </trkpt>
      <trkpt lat="46.14606" lon="5.68224">
        <ele>853</ele>
        <time>2021-08-19T17:51:07Z</time>
      </trkpt>
      <trkpt lat="46.14606" lon="5.68224">
        <ele>853</ele>
        <time>2021-08-19T17:51:08Z</time>
      </trkpt>
      <trkpt lat="46.14607" lon="5.68224">
        <ele>853</ele>
        <time>2021-08-19T17:51:09Z</time>
      </trkpt>
      <trkpt lat="46.14607" lon="5.68224">
        <ele>853</ele>
        <time>2021-08-19T17:51:11Z</time>
      </trkpt>
      <trkpt lat="46.14607" lon="5.68224">
        <ele>853</ele>
        <time>2021-08-19T17:51:12Z</time>
      </trkpt>
      <trkpt lat="46.14607" lon="5.68224">
        <ele>853</ele>
        <time>2021-08-19T17:51:13Z</time>
      </trkpt>
      <trkpt lat="46.14608" lon="5.68224">
        <ele>853</ele>
        <time>2021-08-19T17:51:15Z</time>
      </trkpt>
      <trkpt lat="46.14608" lon="5.68223">
        <ele>853</ele>
        <time>2021-08-19T17:51:17Z</time>
      </trkpt>
      <trkpt lat="46.14609" lon="5.68223">
        <ele>853.1</ele>
        <time>2021-08-19T17:51:18Z</time>
      </trkpt>
      <trkpt lat="46.14616" lon="5.68219">
        <ele>853.1</ele>
        <time>2021-08-19T17:51:19Z</time>
      </trkpt>
      <trkpt lat="46.14622" lon="5.68215">
        <ele>853.2</ele>
        <time>2021-08-19T17:51:21Z</time>
      </trkpt>
      <trkpt lat="46.14626" lon="5.68213">
        <ele>853.2</ele>
        <time>2021-08-19T17:51:23Z</time>
      </trkpt>
      <trkpt lat="46.14626" lon="5.68213">
        <ele>853.2</ele>
        <time>2021-08-19T17:51:24Z</time>
      </trkpt>
      <trkpt lat="46.14627" lon="5.68213">
        <ele>853.2</ele>
        <time>2021-08-19T17:51:26Z</time>
      </trkpt>
      <trkpt lat="46.14627" lon="5.68213">
        <ele>853.2</ele>
        <time>2021-08-19T17:51:27Z</time>
      </trkpt>
      <trkpt lat="46.14627" lon="5.68213">
        <ele>853.2</ele>
        <time>2021-08-19T17:51:29Z</time>
      </trkpt>
      <trkpt lat="46.14627" lon="5.68213">
        <ele>853.2</ele>
        <time>2021-08-19T17:51:30Z</time>
      </trkpt>
      <trkpt lat="46.14627" lon="5.68213">
        <ele>853.2</ele>
        <time>2021-08-19T17:51:32Z</time>
      </trkpt>
      <trkpt lat="46.14627" lon="5.68213">
        <ele>853.2</ele>
        <time>2021-08-19T17:51:33Z</time>
      </trkpt>
      <trkpt lat="46.14627" lon="5.68213">
        <ele>853.2</ele>
        <time>2021-08-19T17:51:35Z</time>
      </trkpt>
      <trkpt lat="46.14627" lon="5.68213">
        <ele>853.2</ele>
        <time>2021-08-19T17:51:36Z</time>
      </trkpt>
      <trkpt lat="46.14627" lon="5.68213">
        <ele>853.2</ele>
        <time>2021-08-19T17:51:38Z</time>
      </trkpt>
      <trkpt lat="46.14627" lon="5.68213">
        <ele>853.2</ele>
        <time>2021-08-19T17:51:39Z</time>
      </trkpt>
      <trkpt lat="46.14627" lon="5.68213">
        <ele>853.2</ele>
        <time>2021-08-19T17:51:41Z</time>
      </trkpt>
      <trkpt lat="46.14627" lon="5.68213">
        <ele>853.2</ele>
        <time>2021-08-19T17:51:42Z</time>
      </trkpt>
      <trkpt lat="46.14627" lon="5.68213">
        <ele>853.2</ele>
        <time>2021-08-19T17:51:44Z</time>
      </trkpt>
      <trkpt lat="46.14627" lon="5.68213">
        <ele>853.2</ele>
        <time>2021-08-19T17:51:45Z</time>
      </trkpt>
      <trkpt lat="46.14627" lon="5.68213">
        <ele>853.2</ele>
        <time>2021-08-19T17:51:47Z</time>
      </trkpt>
      <trkpt lat="46.14627" lon="5.68214">
        <ele>853.3</ele>
        <time>2021-08-19T17:51:48Z</time>
      </trkpt>
      <trkpt lat="46.14627" lon="5.68215">
        <ele>853.3</ele>
        <time>2021-08-19T17:51:50Z</time>
      </trkpt>
      <trkpt lat="46.14628" lon="5.68215">
        <ele>853.3</ele>
        <time>2021-08-19T17:51:51Z</time>
      </trkpt>
      <trkpt lat="46.14628" lon="5.68215">
        <ele>853.3</ele>
        <time>2021-08-19T17:51:52Z</time>
      </trkpt>
      <trkpt lat="46.14628" lon="5.68216">
        <ele>853.3</ele>
        <time>2021-08-19T17:51:53Z</time>
      </trkpt>
      <trkpt lat="46.14629" lon="5.68215">
        <ele>853.3</ele>
        <time>2021-08-19T17:51:55Z</time>
      </trkpt>
      <trkpt lat="46.14632" lon="5.6821">
        <ele>853.3</ele>
        <time>2021-08-19T17:51:57Z</time>
      </trkpt>
      <trkpt lat="46.14636" lon="5.68204">
        <ele>853.4</ele>
        <time>2021-08-19T17:51:58Z</time>
      </trkpt>
      <trkpt lat="46.14638" lon="5.68201">
        <ele>853.4</ele>
        <time>2021-08-19T17:52:00Z</time>
      </trkpt>
      <trkpt lat="46.14639" lon="5.68201">
        <ele>853.4</ele>
        <time>2021-08-19T17:52:01Z</time>
      </trkpt>
      <trkpt lat="46.14639" lon="5.68201">
        <ele>853.4</ele>
        <time>2021-08-19T17:52:03Z</time>
      </trkpt>
      <trkpt lat="46.1464" lon="5.68201">
        <ele>853.4</ele>
        <time>2021-08-19T17:52:04Z</time>
      </trkpt>
      <trkpt lat="46.14641" lon="5.68201">
        <ele>853.4</ele>
        <time>2021-08-19T17:52:05Z</time>
      </trkpt>
      <trkpt lat="46.14641" lon="5.68201">
        <ele>853.4</ele>
        <time>2021-08-19T17:52:06Z</time>
      </trkpt>
      <trkpt lat="46.14644" lon="5.68205">
        <ele>853.5</ele>
        <time>2021-08-19T17:52:08Z</time>
      </trkpt>
      <trkpt lat="46.14643" lon="5.68207">
        <ele>853.5</ele>
        <time>2021-08-19T17:52:09Z</time>
      </trkpt>
      <trkpt lat="46.14643" lon="5.68208">
        <ele>853.5</ele>
        <time>2021-08-19T17:52:10Z</time>
      </trkpt>
      <trkpt lat="46.14642" lon="5.68209">
        <ele>853.5</ele>
        <time>2021-08-19T17:52:11Z</time>
      </trkpt>
      <trkpt lat="46.14643" lon="5.68211">
        <ele>853.5</ele>
        <time>2021-08-19T17:52:13Z</time>
      </trkpt>
      <trkpt lat="46.14642" lon="5.68211">
        <ele>853.5</ele>
        <time>2021-08-19T17:52:15Z</time>
      </trkpt>
      <trkpt lat="46.14641" lon="5.68211">
        <ele>853.5</ele>
        <time>2021-08-19T17:52:16Z</time>
      </trkpt>
      <trkpt lat="46.14639" lon="5.6821">
        <ele>853.6</ele>
        <time>2021-08-19T17:52:18Z</time>
      </trkpt>
      <trkpt lat="46.14639" lon="5.6821">
        <ele>853.6</ele>
        <time>2021-08-19T17:52:19Z</time>
      </trkpt>
      <trkpt lat="46.14639" lon="5.6821">
        <ele>853.6</ele>
        <time>2021-08-19T17:52:21Z</time>
      </trkpt>
      <trkpt lat="46.14639" lon="5.6821">
        <ele>853.6</ele>
        <time>2021-08-19T17:52:22Z</time>
      </trkpt>
      <trkpt lat="46.14639" lon="5.6821">
        <ele>853.6</ele>
        <time>2021-08-19T17:52:23Z</time>
      </trkpt>
      <trkpt lat="46.14639" lon="5.6821">
        <ele>853.6</ele>
        <time>2021-08-19T17:52:25Z</time>
      </trkpt>
      <trkpt lat="46.14639" lon="5.6821">
        <ele>853.6</ele>
        <time>2021-08-19T17:52:26Z</time>
      </trkpt>
      <trkpt lat="46.14639" lon="5.6821">
        <ele>853.6</ele>
        <time>2021-08-19T17:52:28Z</time>
      </trkpt>
      <trkpt lat="46.14639" lon="5.68209">
        <ele>853.6</ele>
        <time>2021-08-19T17:52:29Z</time>
      </trkpt>
      <trkpt lat="46.1464" lon="5.68206">
        <ele>853.6</ele>
        <time>2021-08-19T17:52:31Z</time>
      </trkpt>
      <trkpt lat="46.14642" lon="5.68203">
        <ele>853.6</ele>
        <time>2021-08-19T17:52:33Z</time>
      </trkpt>
      <trkpt lat="46.14642" lon="5.68203">
        <ele>853.6</ele>
        <time>2021-08-19T17:52:34Z</time>
      </trkpt>
      <trkpt lat="46.14641" lon="5.68202">
        <ele>853.6</ele>
        <time>2021-08-19T17:52:36Z</time>
      </trkpt>
      <trkpt lat="46.14641" lon="5.68201">
        <ele>853.7</ele>
        <time>2021-08-19T17:52:37Z</time>
      </trkpt>
      <trkpt lat="46.1464" lon="5.68201">
        <ele>853.7</ele>
        <time>2021-08-19T17:52:39Z</time>
      </trkpt>
      <trkpt lat="46.14639" lon="5.68201">
        <ele>853.7</ele>
        <time>2021-08-19T17:52:41Z</time>
      </trkpt>
      <trkpt lat="46.14638" lon="5.682">
        <ele>853.7</ele>
        <time>2021-08-19T17:52:42Z</time>
      </trkpt>
      <trkpt lat="46.14631" lon="5.68199">
        <ele>853.8</ele>
        <time>2021-08-19T17:52:44Z</time>
      </trkpt>
      <trkpt lat="46.14631" lon="5.68199">
        <ele>853.8</ele>
        <time>2021-08-19T17:52:45Z</time>
      </trkpt>
      <trkpt lat="46.14631" lon="5.682">
        <ele>853.8</ele>
        <time>2021-08-19T17:52:47Z</time>
      </trkpt>
      <trkpt lat="46.14631" lon="5.682">
        <ele>853.8</ele>
        <time>2021-08-19T17:52:48Z</time>
      </trkpt>
      <trkpt lat="46.14631" lon="5.68201">
        <ele>853.8</ele>
        <time>2021-08-19T17:52:50Z</time>
      </trkpt>
      <trkpt lat="46.14631" lon="5.68201">
        <ele>853.8</ele>
        <time>2021-08-19T17:52:51Z</time>
      </trkpt>
      <trkpt lat="46.14623" lon="5.68191">
        <ele>853.9</ele>
        <time>2021-08-19T17:52:53Z</time>
      </trkpt>
      <trkpt lat="46.14623" lon="5.68192">
        <ele>853.9</ele>
        <time>2021-08-19T17:52:54Z</time>
      </trkpt>
      <trkpt lat="46.14622" lon="5.68193">
        <ele>853.9</ele>
        <time>2021-08-19T17:52:55Z</time>
      </trkpt>
      <trkpt lat="46.14622" lon="5.68194">
        <ele>853.9</ele>
        <time>2021-08-19T17:52:57Z</time>
      </trkpt>
      <trkpt lat="46.14621" lon="5.68194">
        <ele>853.9</ele>
        <time>2021-08-19T17:52:58Z</time>
      </trkpt>
      <trkpt lat="46.14621" lon="5.68195">
        <ele>853.9</ele>
        <time>2021-08-19T17:53:00Z</time>
      </trkpt>
      <trkpt lat="46.1462" lon="5.68196">
        <ele>853.9</ele>
        <time>2021-08-19T17:53:01Z</time>
      </trkpt>
      <trkpt lat="46.14618" lon="5.682">
        <ele>854</ele>
        <time>2021-08-19T17:53:02Z</time>
      </trkpt>
      <trkpt lat="46.14616" lon="5.68205">
        <ele>854</ele>
        <time>2021-08-19T17:53:04Z</time>
      </trkpt>
      <trkpt lat="46.14616" lon="5.68207">
        <ele>854</ele>
        <time>2021-08-19T17:53:06Z</time>
      </trkpt>
      <trkpt lat="46.14616" lon="5.68207">
        <ele>854</ele>
        <time>2021-08-19T17:53:07Z</time>
      </trkpt>
      <trkpt lat="46.14616" lon="5.68207">
        <ele>854</ele>
        <time>2021-08-19T17:53:08Z</time>
      </trkpt>
      <trkpt lat="46.14616" lon="5.68207">
        <ele>854</ele>
        <time>2021-08-19T17:53:09Z</time>
      </trkpt>
      <trkpt lat="46.14616" lon="5.68208">
        <ele>854</ele>
        <time>2021-08-19T17:53:11Z</time>
      </trkpt>
      <trkpt lat="46.14616" lon="5.68208">
        <ele>854</ele>
        <time>2021-08-19T17:53:13Z</time>
      </trkpt>
      <trkpt lat="46.14616" lon="5.68208">
        <ele>854</ele>
        <time>2021-08-19T17:53:14Z</time>
      </trkpt>
      <trkpt lat="46.14616" lon="5.68208">
        <ele>854</ele>
        <time>2021-08-19T17:53:15Z</time>
      </trkpt>
      <trkpt lat="46.14616" lon="5.68208">
        <ele>854</ele>
        <time>2021-08-19T17:53:17Z</time>
      </trkpt>
      <trkpt lat="46.14616" lon="5.68208">
        <ele>854</ele>
        <time>2021-08-19T17:53:18Z</time>
      </trkpt>
      <trkpt lat="46.14616" lon="5.68208">
        <ele>854</ele>
        <time>2021-08-19T17:53:20Z</time>
      </trkpt>
      <trkpt lat="46.14616" lon="5.68208">
        <ele>854</ele>
        <time>2021-08-19T17:53:21Z</time>
      </trkpt>
      <trkpt lat="46.14616" lon="5.68208">
        <ele>854</ele>
        <time>2021-08-19T17:53:22Z</time>
      </trkpt>
      <trkpt lat="46.14618" lon="5.68211">
        <ele>854.1</ele>
        <time>2021-08-19T17:53:24Z</time>
      </trkpt>
      <trkpt lat="46.14619" lon="5.68214">
        <ele>854.1</ele>
        <time>2021-08-19T17:53:25Z</time>
      </trkpt>
      <trkpt lat="46.14619" lon="5.68215">
        <ele>854.1</ele>
        <time>2021-08-19T17:53:26Z</time>
      </trkpt>
      <trkpt lat="46.14618" lon="5.68217">
        <ele>854.1</ele>
        <time>2021-08-19T17:53:28Z</time>
      </trkpt>
      <trkpt lat="46.14618" lon="5.68218">
        <ele>854.1</ele>
        <time>2021-08-19T17:53:29Z</time>
      </trkpt>
      <trkpt lat="46.14618" lon="5.68218">
        <ele>854.1</ele>
        <time>2021-08-19T17:53:31Z</time>
      </trkpt>
      <trkpt lat="46.1462" lon="5.68217">
        <ele>854.2</ele>
        <time>2021-08-19T17:53:32Z</time>
      </trkpt>
      <trkpt lat="46.14622" lon="5.68215">
        <ele>854.2</ele>
        <time>2021-08-19T17:53:34Z</time>
      </trkpt>
      <trkpt lat="46.14622" lon="5.68215">
        <ele>854.2</ele>
        <time>2021-08-19T17:53:35Z</time>
      </trkpt>
      <trkpt lat="46.14622" lon="5.68215">
        <ele>854.2</ele>
        <time>2021-08-19T17:53:36Z</time>
      </trkpt>
      <trkpt lat="46.14622" lon="5.68215">
        <ele>854.2</ele>
        <time>2021-08-19T17:53:38Z</time>
      </trkpt>
      <trkpt lat="46.14622" lon="5.68215">
        <ele>854.2</ele>
        <time>2021-08-19T17:53:39Z</time>
      </trkpt>
      <trkpt lat="46.14625" lon="5.68212">
        <ele>854.2</ele>
        <time>2021-08-19T17:53:40Z</time>
      </trkpt>
      <trkpt lat="46.14627" lon="5.6821">
        <ele>854.3</ele>
        <time>2021-08-19T17:53:41Z</time>
      </trkpt>
      <trkpt lat="46.14628" lon="5.68208">
        <ele>854.3</ele>
        <time>2021-08-19T17:53:43Z</time>
      </trkpt>
      <trkpt lat="46.14628" lon="5.68208">
        <ele>854.3</ele>
        <time>2021-08-19T17:53:44Z</time>
      </trkpt>
      <trkpt lat="46.14627" lon="5.68209">
        <ele>854.3</ele>
        <time>2021-08-19T17:53:45Z</time>
      </trkpt>
      <trkpt lat="46.14626" lon="5.68209">
        <ele>854.3</ele>
        <time>2021-08-19T17:53:47Z</time>
      </trkpt>
      <trkpt lat="46.14626" lon="5.68209">
        <ele>854.3</ele>
        <time>2021-08-19T17:53:49Z</time>
      </trkpt>
      <trkpt lat="46.14625" lon="5.68209">
        <ele>854.3</ele>
        <time>2021-08-19T17:53:51Z</time>
      </trkpt>
      <trkpt lat="46.14624" lon="5.6821">
        <ele>854.3</ele>
        <time>2021-08-19T17:53:52Z</time>
      </trkpt>
      <trkpt lat="46.14623" lon="5.6821">
        <ele>854.3</ele>
        <time>2021-08-19T17:53:54Z</time>
      </trkpt>
      <trkpt lat="46.14622" lon="5.6821">
        <ele>854.4</ele>
        <time>2021-08-19T17:53:56Z</time>
      </trkpt>
      <trkpt lat="46.14622" lon="5.6821">
        <ele>854.4</ele>
        <time>2021-08-19T17:53:57Z</time>
      </trkpt>
      <trkpt lat="46.14621" lon="5.68211">
        <ele>854.4</ele>
        <time>2021-08-19T17:53:58Z</time>
      </trkpt>
      <trkpt lat="46.14619" lon="5.68209">
        <ele>854.4</ele>
        <time>2021-08-19T17:53:59Z</time>
      </trkpt>
      <trkpt lat="46.14618" lon="5.68208">
        <ele>854.4</ele>
        <time>2021-08-19T17:54:00Z</time>
      </trkpt>
      <trkpt lat="46.14618" lon="5.68207">
        <ele>854.4</ele>
        <time>2021-08-19T17:54:01Z</time>
      </trkpt>
      <trkpt lat="46.14619" lon="5.68206">
        <ele>854.4</ele>
        <time>2021-08-19T17:54:03Z</time>
      </trkpt>
      <trkpt lat="46.14619" lon="5.68206">
        <ele>854.4</ele>
        <time>2021-08-19T17:54:04Z</time>
      </trkpt>
      <trkpt lat="46.14619" lon="5.68206">
        <ele>854.4</ele>
        <time>2021-08-19T17:54:05Z</time>
      </trkpt>
      <trkpt lat="46.14619" lon="5.68206">
        <ele>854.4</ele>
        <time>2021-08-19T17:54:07Z</time>
      </trkpt>
      <trkpt lat="46.14619" lon="5.68206">
        <ele>854.4</ele>
        <time>2021-08-19T17:54:09Z</time>
      </trkpt>
      <trkpt lat="46.14619" lon="5.68206">
        <ele>854.4</ele>
        <time>2021-08-19T17:54:10Z</time>
      </trkpt>
      <trkpt lat="46.14619" lon="5.68206">
        <ele>854.4</ele>
        <time>2021-08-19T17:54:12Z</time>
      </trkpt>
      <trkpt lat="46.14619" lon="5.68206">
        <ele>854.4</ele>
        <time>2021-08-19T17:54:14Z</time>
      </trkpt>
      <trkpt lat="46.14619" lon="5.68206">
        <ele>854.4</ele>
        <time>2021-08-19T17:54:15Z</time>
      </trkpt>
      <trkpt lat="46.14619" lon="5.68206">
        <ele>854.4</ele>
        <time>2021-08-19T17:54:16Z</time>
      </trkpt>
      <trkpt lat="46.1462" lon="5.68204">
        <ele>854.4</ele>
        <time>2021-08-19T17:54:18Z</time>
      </trkpt>
      <trkpt lat="46.1462" lon="5.68201">
        <ele>854.5</ele>
        <time>2021-08-19T17:54:19Z</time>
      </trkpt>
      <trkpt lat="46.14619" lon="5.68197">
        <ele>854.5</ele>
        <time>2021-08-19T17:54:21Z</time>
      </trkpt>
      <trkpt lat="46.14619" lon="5.68198">
        <ele>854.5</ele>
        <time>2021-08-19T17:54:22Z</time>
      </trkpt>
      <trkpt lat="46.14619" lon="5.68198">
        <ele>854.5</ele>
        <time>2021-08-19T17:54:23Z</time>
      </trkpt>
      <trkpt lat="46.1462" lon="5.68198">
        <ele>854.5</ele>
        <time>2021-08-19T17:54:24Z</time>
      </trkpt>
      <trkpt lat="46.1462" lon="5.68198">
        <ele>854.5</ele>
        <time>2021-08-19T17:54:27Z</time>
      </trkpt>
      <trkpt lat="46.1462" lon="5.68199">
        <ele>854.5</ele>
        <time>2021-08-19T17:54:28Z</time>
      </trkpt>
      <trkpt lat="46.1462" lon="5.68199">
        <ele>854.5</ele>
        <time>2021-08-19T17:54:29Z</time>
      </trkpt>
      <trkpt lat="46.1462" lon="5.682">
        <ele>854.5</ele>
        <time>2021-08-19T17:54:30Z</time>
      </trkpt>
      <trkpt lat="46.14621" lon="5.682">
        <ele>854.5</ele>
        <time>2021-08-19T17:54:32Z</time>
      </trkpt>
      <trkpt lat="46.14624" lon="5.68189">
        <ele>854.6</ele>
        <time>2021-08-19T17:54:34Z</time>
      </trkpt>
      <trkpt lat="46.14625" lon="5.68188">
        <ele>854.6</ele>
        <time>2021-08-19T17:54:35Z</time>
      </trkpt>
      <trkpt lat="46.14625" lon="5.68188">
        <ele>854.6</ele>
        <time>2021-08-19T17:54:37Z</time>
      </trkpt>
      <trkpt lat="46.14627" lon="5.68187">
        <ele>854.7</ele>
        <time>2021-08-19T17:54:39Z</time>
      </trkpt>
      <trkpt lat="46.14627" lon="5.68187">
        <ele>854.7</ele>
        <time>2021-08-19T17:54:41Z</time>
      </trkpt>
      <trkpt lat="46.14627" lon="5.68187">
        <ele>854.7</ele>
        <time>2021-08-19T17:54:43Z</time>
      </trkpt>
      <trkpt lat="46.14627" lon="5.68187">
        <ele>854.7</ele>
        <time>2021-08-19T17:54:44Z</time>
      </trkpt>
      <trkpt lat="46.14627" lon="5.68187">
        <ele>854.7</ele>
        <time>2021-08-19T17:54:46Z</time>
      </trkpt>
      <trkpt lat="46.14627" lon="5.68188">
        <ele>854.7</ele>
        <time>2021-08-19T17:54:47Z</time>
      </trkpt>
      <trkpt lat="46.14627" lon="5.68188">
        <ele>854.7</ele>
        <time>2021-08-19T17:54:48Z</time>
      </trkpt>
      <trkpt lat="46.14627" lon="5.68188">
        <ele>854.7</ele>
        <time>2021-08-19T17:54:52Z</time>
      </trkpt>
      <trkpt lat="46.14628" lon="5.6819">
        <ele>854.7</ele>
        <time>2021-08-19T17:54:53Z</time>
      </trkpt>
      <trkpt lat="46.14628" lon="5.68191">
        <ele>854.7</ele>
        <time>2021-08-19T17:54:55Z</time>
      </trkpt>
      <trkpt lat="46.14628" lon="5.68193">
        <ele>854.7</ele>
        <time>2021-08-19T17:54:57Z</time>
      </trkpt>
      <trkpt lat="46.14629" lon="5.68194">
        <ele>854.7</ele>
        <time>2021-08-19T17:54:58Z</time>
      </trkpt>
      <trkpt lat="46.1463" lon="5.68198">
        <ele>854.7</ele>
        <time>2021-08-19T17:55:00Z</time>
      </trkpt>
      <trkpt lat="46.14631" lon="5.68199">
        <ele>854.8</ele>
        <time>2021-08-19T17:55:01Z</time>
      </trkpt>
      <trkpt lat="46.14631" lon="5.68201">
        <ele>854.8</ele>
        <time>2021-08-19T17:55:02Z</time>
      </trkpt>
      <trkpt lat="46.14632" lon="5.68204">
        <ele>854.8</ele>
        <time>2021-08-19T17:55:04Z</time>
      </trkpt>
      <trkpt lat="46.14629" lon="5.68201">
        <ele>854.8</ele>
        <time>2021-08-19T17:55:05Z</time>
      </trkpt>
      <trkpt lat="46.14627" lon="5.68198">
        <ele>854.9</ele>
        <time>2021-08-19T17:55:06Z</time>
      </trkpt>
      <trkpt lat="46.14625" lon="5.68195">
        <ele>854.9</ele>
        <time>2021-08-19T17:55:08Z</time>
      </trkpt>
      <trkpt lat="46.14623" lon="5.68192">
        <ele>854.9</ele>
        <time>2021-08-19T17:55:10Z</time>
      </trkpt>
      <trkpt lat="46.14621" lon="5.6819">
        <ele>855</ele>
        <time>2021-08-19T17:55:12Z</time>
      </trkpt>
      <trkpt lat="46.14621" lon="5.68198">
        <ele>855</ele>
        <time>2021-08-19T17:55:14Z</time>
      </trkpt>
      <trkpt lat="46.14619" lon="5.68205">
        <ele>855.1</ele>
        <time>2021-08-19T17:55:15Z</time>
      </trkpt>
      <trkpt lat="46.1462" lon="5.68214">
        <ele>855.1</ele>
        <time>2021-08-19T17:55:17Z</time>
      </trkpt>
      <trkpt lat="46.13988" lon="5.65865">
        <ele>938.8</ele>
        <time>2021-08-20T08:17:41Z</time>
      </trkpt>
      <trkpt lat="46.13988" lon="5.65865">
        <ele>938.8</ele>
        <time>2021-08-20T08:17:41Z</time>
      </trkpt>
      <trkpt lat="46.13991" lon="5.65872">
        <ele>938.7</ele>
        <time>2021-08-20T08:17:43Z</time>
      </trkpt>
      <trkpt lat="46.13994" lon="5.65878">
        <ele>938.7</ele>
        <time>2021-08-20T08:17:48Z</time>
      </trkpt>
      <trkpt lat="46.13997" lon="5.65884">
        <ele>938.7</ele>
        <time>2021-08-20T08:17:49Z</time>
      </trkpt>
      <trkpt lat="46.14" lon="5.65891">
        <ele>938.6</ele>
        <time>2021-08-20T08:17:50Z</time>
      </trkpt>
      <trkpt lat="46.13997" lon="5.65896">
        <ele>938.6</ele>
        <time>2021-08-20T08:17:52Z</time>
      </trkpt>
      <trkpt lat="46.13999" lon="5.65897">
        <ele>938.6</ele>
        <time>2021-08-20T08:17:53Z</time>
      </trkpt>
      <trkpt lat="46.14" lon="5.65898">
        <ele>938.6</ele>
        <time>2021-08-20T08:17:54Z</time>
      </trkpt>
      <trkpt lat="46.14001" lon="5.65898">
        <ele>938.6</ele>
        <time>2021-08-20T08:17:55Z</time>
      </trkpt>
      <trkpt lat="46.14001" lon="5.65896">
        <ele>938.6</ele>
        <time>2021-08-20T08:17:57Z</time>
      </trkpt>
      <trkpt lat="46.14001" lon="5.65895">
        <ele>938.6</ele>
        <time>2021-08-20T08:17:58Z</time>
      </trkpt>
      <trkpt lat="46.14001" lon="5.65893">
        <ele>938.6</ele>
        <time>2021-08-20T08:18:00Z</time>
      </trkpt>
      <trkpt lat="46.14002" lon="5.65888">
        <ele>938.6</ele>
        <time>2021-08-20T08:18:02Z</time>
      </trkpt>
      <trkpt lat="46.14003" lon="5.65886">
        <ele>938.5</ele>
        <time>2021-08-20T08:18:03Z</time>
      </trkpt>
      <trkpt lat="46.14003" lon="5.65885">
        <ele>938.5</ele>
        <time>2021-08-20T08:18:04Z</time>
      </trkpt>
      <trkpt lat="46.14004" lon="5.65881">
        <ele>938.5</ele>
        <time>2021-08-20T08:18:06Z</time>
      </trkpt>
      <trkpt lat="46.14003" lon="5.65878">
        <ele>938.5</ele>
        <time>2021-08-20T08:18:07Z</time>
      </trkpt>
      <trkpt lat="46.14003" lon="5.65875">
        <ele>938.5</ele>
        <time>2021-08-20T08:18:09Z</time>
      </trkpt>
      <trkpt lat="46.14003" lon="5.65871">
        <ele>938.5</ele>
        <time>2021-08-20T08:18:11Z</time>
      </trkpt>
      <trkpt lat="46.14004" lon="5.6587">
        <ele>938.5</ele>
        <time>2021-08-20T08:18:12Z</time>
      </trkpt>
      <trkpt lat="46.14005" lon="5.65869">
        <ele>938.5</ele>
        <time>2021-08-20T08:18:14Z</time>
      </trkpt>
      <trkpt lat="46.14006" lon="5.65869">
        <ele>938.5</ele>
        <time>2021-08-20T08:18:15Z</time>
      </trkpt>
      <trkpt lat="46.14007" lon="5.65868">
        <ele>938.5</ele>
        <time>2021-08-20T08:18:17Z</time>
      </trkpt>
      <trkpt lat="46.14007" lon="5.65868">
        <ele>938.5</ele>
        <time>2021-08-20T08:18:19Z</time>
      </trkpt>
      <trkpt lat="46.14006" lon="5.65867">
        <ele>938.5</ele>
        <time>2021-08-20T08:18:21Z</time>
      </trkpt>
      <trkpt lat="46.14005" lon="5.65867">
        <ele>938.5</ele>
        <time>2021-08-20T08:18:22Z</time>
      </trkpt>
      <trkpt lat="46.14005" lon="5.65869">
        <ele>938.5</ele>
        <time>2021-08-20T08:18:24Z</time>
      </trkpt>
      <trkpt lat="46.14005" lon="5.65871">
        <ele>938.5</ele>
        <time>2021-08-20T08:18:25Z</time>
      </trkpt>
      <trkpt lat="46.14005" lon="5.65873">
        <ele>938.5</ele>
        <time>2021-08-20T08:18:27Z</time>
      </trkpt>
      <trkpt lat="46.14005" lon="5.65875">
        <ele>938.5</ele>
        <time>2021-08-20T08:18:28Z</time>
      </trkpt>
      <trkpt lat="46.14005" lon="5.65877">
        <ele>938.5</ele>
        <time>2021-08-20T08:18:30Z</time>
      </trkpt>
      <trkpt lat="46.14005" lon="5.65878">
        <ele>938.5</ele>
        <time>2021-08-20T08:18:32Z</time>
      </trkpt>
      <trkpt lat="46.14004" lon="5.65878">
        <ele>938.5</ele>
        <time>2021-08-20T08:18:34Z</time>
      </trkpt>
      <trkpt lat="46.14006" lon="5.65879">
        <ele>938.5</ele>
        <time>2021-08-20T08:18:35Z</time>
      </trkpt>
      <trkpt lat="46.14006" lon="5.65879">
        <ele>938.5</ele>
        <time>2021-08-20T08:18:36Z</time>
      </trkpt>
      <trkpt lat="46.14004" lon="5.65877">
        <ele>938.4</ele>
        <time>2021-08-20T08:18:38Z</time>
      </trkpt>
      <trkpt lat="46.14004" lon="5.65877">
        <ele>938.4</ele>
        <time>2021-08-20T08:18:40Z</time>
      </trkpt>
      <trkpt lat="46.14004" lon="5.65875">
        <ele>938.4</ele>
        <time>2021-08-20T08:18:41Z</time>
      </trkpt>
      <trkpt lat="46.14004" lon="5.65875">
        <ele>938.4</ele>
        <time>2021-08-20T08:18:42Z</time>
      </trkpt>
      <trkpt lat="46.14004" lon="5.65875">
        <ele>938.4</ele>
        <time>2021-08-20T08:18:43Z</time>
      </trkpt>
      <trkpt lat="46.14006" lon="5.65875">
        <ele>938.4</ele>
        <time>2021-08-20T08:18:45Z</time>
      </trkpt>
      <trkpt lat="46.14007" lon="5.65875">
        <ele>938.4</ele>
        <time>2021-08-20T08:18:46Z</time>
      </trkpt>
      <trkpt lat="46.14007" lon="5.65874">
        <ele>938.4</ele>
        <time>2021-08-20T08:18:48Z</time>
      </trkpt>
      <trkpt lat="46.14007" lon="5.65878">
        <ele>938.4</ele>
        <time>2021-08-20T08:18:50Z</time>
      </trkpt>
      <trkpt lat="46.14006" lon="5.6588">
        <ele>938.4</ele>
        <time>2021-08-20T08:18:52Z</time>
      </trkpt>
      <trkpt lat="46.14007" lon="5.6588">
        <ele>938.4</ele>
        <time>2021-08-20T08:18:53Z</time>
      </trkpt>
      <trkpt lat="46.14007" lon="5.6588">
        <ele>938.4</ele>
        <time>2021-08-20T08:18:54Z</time>
      </trkpt>
      <trkpt lat="46.14007" lon="5.6588">
        <ele>938.4</ele>
        <time>2021-08-20T08:18:55Z</time>
      </trkpt>
      <trkpt lat="46.14007" lon="5.65882">
        <ele>938.4</ele>
        <time>2021-08-20T08:18:57Z</time>
      </trkpt>
      <trkpt lat="46.14008" lon="5.65884">
        <ele>938.4</ele>
        <time>2021-08-20T08:18:58Z</time>
      </trkpt>
      <trkpt lat="46.14007" lon="5.65884">
        <ele>938.4</ele>
        <time>2021-08-20T08:18:59Z</time>
      </trkpt>
      <trkpt lat="46.14007" lon="5.65883">
        <ele>938.4</ele>
        <time>2021-08-20T08:19:01Z</time>
      </trkpt>
      <trkpt lat="46.14006" lon="5.65883">
        <ele>938.4</ele>
        <time>2021-08-20T08:19:02Z</time>
      </trkpt>
      <trkpt lat="46.14006" lon="5.65883">
        <ele>938.4</ele>
        <time>2021-08-20T08:19:04Z</time>
      </trkpt>
      <trkpt lat="46.14005" lon="5.65885">
        <ele>938.4</ele>
        <time>2021-08-20T08:19:06Z</time>
      </trkpt>
      <trkpt lat="46.14005" lon="5.65886">
        <ele>938.4</ele>
        <time>2021-08-20T08:19:07Z</time>
      </trkpt>
      <trkpt lat="46.14005" lon="5.65886">
        <ele>938.4</ele>
        <time>2021-08-20T08:19:08Z</time>
      </trkpt>
      <trkpt lat="46.14005" lon="5.6589">
        <ele>938.4</ele>
        <time>2021-08-20T08:19:10Z</time>
      </trkpt>
      <trkpt lat="46.14004" lon="5.65892">
        <ele>938.4</ele>
        <time>2021-08-20T08:19:12Z</time>
      </trkpt>
      <trkpt lat="46.14003" lon="5.65893">
        <ele>938.4</ele>
        <time>2021-08-20T08:19:13Z</time>
      </trkpt>
      <trkpt lat="46.14001" lon="5.65894">
        <ele>938.4</ele>
        <time>2021-08-20T08:19:14Z</time>
      </trkpt>
      <trkpt lat="46.14" lon="5.65895">
        <ele>938.4</ele>
        <time>2021-08-20T08:19:16Z</time>
      </trkpt>
      <trkpt lat="46.14" lon="5.65895">
        <ele>938.4</ele>
        <time>2021-08-20T08:19:17Z</time>
      </trkpt>
      <trkpt lat="46.14" lon="5.65895">
        <ele>938.4</ele>
        <time>2021-08-20T08:19:18Z</time>
      </trkpt>
      <trkpt lat="46.13999" lon="5.65895">
        <ele>938.4</ele>
        <time>2021-08-20T08:19:20Z</time>
      </trkpt>
      <trkpt lat="46.13999" lon="5.65895">
        <ele>938.4</ele>
        <time>2021-08-20T08:19:21Z</time>
      </trkpt>
      <trkpt lat="46.14" lon="5.65894">
        <ele>938.3</ele>
        <time>2021-08-20T08:19:22Z</time>
      </trkpt>
      <trkpt lat="46.14" lon="5.65894">
        <ele>938.3</ele>
        <time>2021-08-20T08:19:23Z</time>
      </trkpt>
      <trkpt lat="46.14" lon="5.65894">
        <ele>938.3</ele>
        <time>2021-08-20T08:19:24Z</time>
      </trkpt>
      <trkpt lat="46.14" lon="5.65893">
        <ele>938.3</ele>
        <time>2021-08-20T08:19:26Z</time>
      </trkpt>
      <trkpt lat="46.14" lon="5.65893">
        <ele>938.3</ele>
        <time>2021-08-20T08:19:27Z</time>
      </trkpt>
      <trkpt lat="46.14" lon="5.65893">
        <ele>938.3</ele>
        <time>2021-08-20T08:19:29Z</time>
      </trkpt>
      <trkpt lat="46.13999" lon="5.65893">
        <ele>938.3</ele>
        <time>2021-08-20T08:19:30Z</time>
      </trkpt>
      <trkpt lat="46.14" lon="5.65893">
        <ele>938.3</ele>
        <time>2021-08-20T08:19:32Z</time>
      </trkpt>
      <trkpt lat="46.14" lon="5.65892">
        <ele>938.3</ele>
        <time>2021-08-20T08:19:33Z</time>
      </trkpt>
      <trkpt lat="46.14" lon="5.65892">
        <ele>938.3</ele>
        <time>2021-08-20T08:19:35Z</time>
      </trkpt>
      <trkpt lat="46.14" lon="5.65892">
        <ele>938.3</ele>
        <time>2021-08-20T08:19:36Z</time>
      </trkpt>
      <trkpt lat="46.14" lon="5.65892">
        <ele>938.3</ele>
        <time>2021-08-20T08:19:38Z</time>
      </trkpt>
      <trkpt lat="46.14" lon="5.65892">
        <ele>938.3</ele>
        <time>2021-08-20T08:19:39Z</time>
      </trkpt>
      <trkpt lat="46.14" lon="5.65892">
        <ele>938.3</ele>
        <time>2021-08-20T08:19:40Z</time>
      </trkpt>
      <trkpt lat="46.14" lon="5.65892">
        <ele>938.3</ele>
        <time>2021-08-20T08:19:41Z</time>
      </trkpt>
      <trkpt lat="46.14" lon="5.65892">
        <ele>938.3</ele>
        <time>2021-08-20T08:19:42Z</time>
      </trkpt>
      <trkpt lat="46.13999" lon="5.65891">
        <ele>938.3</ele>
        <time>2021-08-20T08:19:44Z</time>
      </trkpt>
      <trkpt lat="46.13999" lon="5.65884">
        <ele>938.3</ele>
        <time>2021-08-20T08:20:29Z</time>
      </trkpt>
      <trkpt lat="46.14001" lon="5.65885">
        <ele>938.3</ele>
        <time>2021-08-20T08:20:31Z</time>
      </trkpt>
      <trkpt lat="46.14002" lon="5.65886">
        <ele>938.3</ele>
        <time>2021-08-20T08:20:32Z</time>
      </trkpt>
      <trkpt lat="46.14003" lon="5.65888">
        <ele>938.3</ele>
        <time>2021-08-20T08:20:34Z</time>
      </trkpt>
      <trkpt lat="46.14003" lon="5.65888">
        <ele>938.3</ele>
        <time>2021-08-20T08:20:35Z</time>
      </trkpt>
      <trkpt lat="46.14003" lon="5.65888">
        <ele>938.3</ele>
        <time>2021-08-20T08:20:37Z</time>
      </trkpt>
      <trkpt lat="46.14003" lon="5.65888">
        <ele>938.3</ele>
        <time>2021-08-20T08:20:39Z</time>
      </trkpt>
      <trkpt lat="46.14003" lon="5.65888">
        <ele>938.3</ele>
        <time>2021-08-20T08:20:40Z</time>
      </trkpt>
      <trkpt lat="46.14003" lon="5.65888">
        <ele>938.3</ele>
        <time>2021-08-20T08:20:41Z</time>
      </trkpt>
      <trkpt lat="46.14003" lon="5.65888">
        <ele>938.3</ele>
        <time>2021-08-20T08:20:43Z</time>
      </trkpt>
      <trkpt lat="46.14003" lon="5.65888">
        <ele>938.3</ele>
        <time>2021-08-20T08:20:44Z</time>
      </trkpt>
      <trkpt lat="46.14003" lon="5.65888">
        <ele>938.3</ele>
        <time>2021-08-20T08:20:45Z</time>
      </trkpt>
      <trkpt lat="46.14004" lon="5.65888">
        <ele>938.3</ele>
        <time>2021-08-20T08:20:47Z</time>
      </trkpt>
      <trkpt lat="46.13926" lon="5.65903">
        <ele>938.9</ele>
        <time>2021-08-20T08:25:37Z</time>
      </trkpt>
      <trkpt lat="46.13918" lon="5.65908">
        <ele>939</ele>
        <time>2021-08-20T08:25:39Z</time>
      </trkpt>
      <trkpt lat="46.13912" lon="5.65916">
        <ele>939.1</ele>
        <time>2021-08-20T08:25:40Z</time>
      </trkpt>
      <trkpt lat="46.13908" lon="5.65919">
        <ele>939.2</ele>
        <time>2021-08-20T08:25:41Z</time>
      </trkpt>
      <trkpt lat="46.13901" lon="5.65924">
        <ele>939.3</ele>
        <time>2021-08-20T08:25:43Z</time>
      </trkpt>
      <trkpt lat="46.13896" lon="5.65926">
        <ele>939.3</ele>
        <time>2021-08-20T08:25:44Z</time>
      </trkpt>
      <trkpt lat="46.13892" lon="5.65924">
        <ele>939.3</ele>
        <time>2021-08-20T08:25:45Z</time>
      </trkpt>
      <trkpt lat="46.13885" lon="5.65924">
        <ele>939.4</ele>
        <time>2021-08-20T08:25:47Z</time>
      </trkpt>
      <trkpt lat="46.1388" lon="5.65923">
        <ele>939.4</ele>
        <time>2021-08-20T08:25:48Z</time>
      </trkpt>
      <trkpt lat="46.13877" lon="5.65923">
        <ele>939.3</ele>
        <time>2021-08-20T08:25:49Z</time>
      </trkpt>
      <trkpt lat="46.13873" lon="5.65922">
        <ele>939.3</ele>
        <time>2021-08-20T08:25:51Z</time>
      </trkpt>
      <trkpt lat="46.1387" lon="5.65921">
        <ele>939.2</ele>
        <time>2021-08-20T08:25:52Z</time>
      </trkpt>
      <trkpt lat="46.13869" lon="5.65922">
        <ele>939.2</ele>
        <time>2021-08-20T08:25:54Z</time>
      </trkpt>
      <trkpt lat="46.13868" lon="5.65924">
        <ele>939.2</ele>
        <time>2021-08-20T08:25:55Z</time>
      </trkpt>
      <trkpt lat="46.13867" lon="5.65925">
        <ele>939.2</ele>
        <time>2021-08-20T08:25:56Z</time>
      </trkpt>
      <trkpt lat="46.13866" lon="5.65927">
        <ele>939.1</ele>
        <time>2021-08-20T08:25:57Z</time>
      </trkpt>
      <trkpt lat="46.13866" lon="5.65927">
        <ele>939.1</ele>
        <time>2021-08-20T08:25:58Z</time>
      </trkpt>
      <trkpt lat="46.13866" lon="5.65929">
        <ele>939.1</ele>
        <time>2021-08-20T08:25:59Z</time>
      </trkpt>
      <trkpt lat="46.13865" lon="5.6593">
        <ele>939</ele>
        <time>2021-08-20T08:26:00Z</time>
      </trkpt>
      <trkpt lat="46.13864" lon="5.65931">
        <ele>940.2</ele>
        <time>2021-08-20T08:26:01Z</time>
      </trkpt>
      <trkpt lat="46.13864" lon="5.65932">
        <ele>940.2</ele>
        <time>2021-08-20T08:26:03Z</time>
      </trkpt>
      <trkpt lat="46.13864" lon="5.65932">
        <ele>940.3</ele>
        <time>2021-08-20T08:26:04Z</time>
      </trkpt>
      <trkpt lat="46.13862" lon="5.65933">
        <ele>940.4</ele>
        <time>2021-08-20T08:26:05Z</time>
      </trkpt>
      <trkpt lat="46.13861" lon="5.65934">
        <ele>940.4</ele>
        <time>2021-08-20T08:26:06Z</time>
      </trkpt>
      <trkpt lat="46.1386" lon="5.65935">
        <ele>940.5</ele>
        <time>2021-08-20T08:26:07Z</time>
      </trkpt>
      <trkpt lat="46.13858" lon="5.65936">
        <ele>940.5</ele>
        <time>2021-08-20T08:26:08Z</time>
      </trkpt>
      <trkpt lat="46.13856" lon="5.65939">
        <ele>940.6</ele>
        <time>2021-08-20T08:26:09Z</time>
      </trkpt>
      <trkpt lat="46.13854" lon="5.65942">
        <ele>940.7</ele>
        <time>2021-08-20T08:26:10Z</time>
      </trkpt>
      <trkpt lat="46.13853" lon="5.65943">
        <ele>940.7</ele>
        <time>2021-08-20T08:26:11Z</time>
      </trkpt>
      <trkpt lat="46.13852" lon="5.65946">
        <ele>940.7</ele>
        <time>2021-08-20T08:26:13Z</time>
      </trkpt>
      <trkpt lat="46.1385" lon="5.65949">
        <ele>940.7</ele>
        <time>2021-08-20T08:26:15Z</time>
      </trkpt>
      <trkpt lat="46.13848" lon="5.65951">
        <ele>940.7</ele>
        <time>2021-08-20T08:26:16Z</time>
      </trkpt>
      <trkpt lat="46.13847" lon="5.65952">
        <ele>940.7</ele>
        <time>2021-08-20T08:26:17Z</time>
      </trkpt>
      <trkpt lat="46.13846" lon="5.65953">
        <ele>940.7</ele>
        <time>2021-08-20T08:26:18Z</time>
      </trkpt>
      <trkpt lat="46.13846" lon="5.65958">
        <ele>940.7</ele>
        <time>2021-08-20T08:26:20Z</time>
      </trkpt>
      <trkpt lat="46.13846" lon="5.65962">
        <ele>940.6</ele>
        <time>2021-08-20T08:26:21Z</time>
      </trkpt>
      <trkpt lat="46.13847" lon="5.65968">
        <ele>940.5</ele>
        <time>2021-08-20T08:26:23Z</time>
      </trkpt>
      <trkpt lat="46.13848" lon="5.65973">
        <ele>940.3</ele>
        <time>2021-08-20T08:26:24Z</time>
      </trkpt>
      <trkpt lat="46.13849" lon="5.65978">
        <ele>940</ele>
        <time>2021-08-20T08:26:25Z</time>
      </trkpt>
      <trkpt lat="46.1385" lon="5.65984">
        <ele>939.7</ele>
        <time>2021-08-20T08:26:26Z</time>
      </trkpt>
      <trkpt lat="46.1385" lon="5.65992">
        <ele>939.4</ele>
        <time>2021-08-20T08:26:27Z</time>
      </trkpt>
      <trkpt lat="46.1385" lon="5.65999">
        <ele>939.1</ele>
        <time>2021-08-20T08:26:29Z</time>
      </trkpt>
      <trkpt lat="46.13847" lon="5.66005">
        <ele>938.7</ele>
        <time>2021-08-20T08:26:30Z</time>
      </trkpt>
      <trkpt lat="46.13844" lon="5.66011">
        <ele>938.4</ele>
        <time>2021-08-20T08:26:31Z</time>
      </trkpt>
      <trkpt lat="46.13842" lon="5.66015">
        <ele>938.2</ele>
        <time>2021-08-20T08:26:32Z</time>
      </trkpt>
      <trkpt lat="46.13841" lon="5.66018">
        <ele>938</ele>
        <time>2021-08-20T08:26:34Z</time>
      </trkpt>
      <trkpt lat="46.13838" lon="5.66022">
        <ele>937.8</ele>
        <time>2021-08-20T08:26:36Z</time>
      </trkpt>
      <trkpt lat="46.13837" lon="5.66024">
        <ele>937.7</ele>
        <time>2021-08-20T08:26:37Z</time>
      </trkpt>
      <trkpt lat="46.13837" lon="5.66026">
        <ele>937.6</ele>
        <time>2021-08-20T08:26:39Z</time>
      </trkpt>
      <trkpt lat="46.1384" lon="5.66027">
        <ele>937.4</ele>
        <time>2021-08-20T08:26:41Z</time>
      </trkpt>
      <trkpt lat="46.1384" lon="5.66027">
        <ele>937.4</ele>
        <time>2021-08-20T08:26:42Z</time>
      </trkpt>
      <trkpt lat="46.13841" lon="5.66028">
        <ele>937.3</ele>
        <time>2021-08-20T08:26:44Z</time>
      </trkpt>
      <trkpt lat="46.13841" lon="5.66028">
        <ele>937.3</ele>
        <time>2021-08-20T08:26:45Z</time>
      </trkpt>
      <trkpt lat="46.13842" lon="5.66029">
        <ele>937.2</ele>
        <time>2021-08-20T08:26:46Z</time>
      </trkpt>
      <trkpt lat="46.13842" lon="5.66031">
        <ele>937.1</ele>
        <time>2021-08-20T08:26:48Z</time>
      </trkpt>
      <trkpt lat="46.1382" lon="5.66092">
        <ele>933.5</ele>
        <time>2021-08-20T08:26:57Z</time>
      </trkpt>
      <trkpt lat="46.13816" lon="5.66109">
        <ele>932.6</ele>
        <time>2021-08-20T08:26:58Z</time>
      </trkpt>
      <trkpt lat="46.13811" lon="5.66124">
        <ele>931.9</ele>
        <time>2021-08-20T08:26:59Z</time>
      </trkpt>
      <trkpt lat="46.13803" lon="5.6615">
        <ele>930.4</ele>
        <time>2021-08-20T08:27:01Z</time>
      </trkpt>
      <trkpt lat="46.13794" lon="5.6617">
        <ele>929.3</ele>
        <time>2021-08-20T08:27:03Z</time>
      </trkpt>
      <trkpt lat="46.13789" lon="5.6618">
        <ele>928.7</ele>
        <time>2021-08-20T08:27:04Z</time>
      </trkpt>
      <trkpt lat="46.13784" lon="5.66189">
        <ele>928.1</ele>
        <time>2021-08-20T08:27:05Z</time>
      </trkpt>
      <trkpt lat="46.13782" lon="5.66199">
        <ele>927.5</ele>
        <time>2021-08-20T08:27:06Z</time>
      </trkpt>
      <trkpt lat="46.13781" lon="5.66209">
        <ele>926.9</ele>
        <time>2021-08-20T08:27:07Z</time>
      </trkpt>
      <trkpt lat="46.13789" lon="5.66231">
        <ele>924.7</ele>
        <time>2021-08-20T08:27:09Z</time>
      </trkpt>
      <trkpt lat="46.13793" lon="5.66243">
        <ele>924.6</ele>
        <time>2021-08-20T08:27:10Z</time>
      </trkpt>
      <trkpt lat="46.13796" lon="5.66256">
        <ele>924.8</ele>
        <time>2021-08-20T08:27:11Z</time>
      </trkpt>
      <trkpt lat="46.13801" lon="5.66279">
        <ele>925.3</ele>
        <time>2021-08-20T08:27:13Z</time>
      </trkpt>
      <trkpt lat="46.13802" lon="5.6629">
        <ele>925.6</ele>
        <time>2021-08-20T08:27:14Z</time>
      </trkpt>
      <trkpt lat="46.13802" lon="5.6631">
        <ele>926.1</ele>
        <time>2021-08-20T08:27:16Z</time>
      </trkpt>
      <trkpt lat="46.13801" lon="5.66319">
        <ele>926.3</ele>
        <time>2021-08-20T08:27:17Z</time>
      </trkpt>
      <trkpt lat="46.138" lon="5.66334">
        <ele>926.7</ele>
        <time>2021-08-20T08:27:19Z</time>
      </trkpt>
      <trkpt lat="46.138" lon="5.66341">
        <ele>926.9</ele>
        <time>2021-08-20T08:27:20Z</time>
      </trkpt>
      <trkpt lat="46.13799" lon="5.66355">
        <ele>927.3</ele>
        <time>2021-08-20T08:27:22Z</time>
      </trkpt>
      <trkpt lat="46.13798" lon="5.66366">
        <ele>927.6</ele>
        <time>2021-08-20T08:27:24Z</time>
      </trkpt>
      <trkpt lat="46.13796" lon="5.66378">
        <ele>927.9</ele>
        <time>2021-08-20T08:27:26Z</time>
      </trkpt>
      <trkpt lat="46.13794" lon="5.66388">
        <ele>928.3</ele>
        <time>2021-08-20T08:27:28Z</time>
      </trkpt>
      <trkpt lat="46.13793" lon="5.66399">
        <ele>928.6</ele>
        <time>2021-08-20T08:27:29Z</time>
      </trkpt>
      <trkpt lat="46.13792" lon="5.66401">
        <ele>928.6</ele>
        <time>2021-08-20T08:27:30Z</time>
      </trkpt>
      <trkpt lat="46.13791" lon="5.66407">
        <ele>928.8</ele>
        <time>2021-08-20T08:27:32Z</time>
      </trkpt>
      <trkpt lat="46.1379" lon="5.66411">
        <ele>929</ele>
        <time>2021-08-20T08:27:33Z</time>
      </trkpt>
      <trkpt lat="46.13789" lon="5.66417">
        <ele>929.2</ele>
        <time>2021-08-20T08:27:34Z</time>
      </trkpt>
      <trkpt lat="46.13788" lon="5.66422">
        <ele>929.3</ele>
        <time>2021-08-20T08:27:36Z</time>
      </trkpt>
      <trkpt lat="46.13786" lon="5.66428">
        <ele>929.5</ele>
        <time>2021-08-20T08:27:37Z</time>
      </trkpt>
      <trkpt lat="46.13785" lon="5.66433">
        <ele>929.7</ele>
        <time>2021-08-20T08:27:38Z</time>
      </trkpt>
      <trkpt lat="46.13784" lon="5.6644">
        <ele>929.9</ele>
        <time>2021-08-20T08:27:40Z</time>
      </trkpt>
      <trkpt lat="46.13782" lon="5.66445">
        <ele>930.1</ele>
        <time>2021-08-20T08:27:41Z</time>
      </trkpt>
      <trkpt lat="46.13782" lon="5.6645">
        <ele>930.3</ele>
        <time>2021-08-20T08:27:43Z</time>
      </trkpt>
      <trkpt lat="46.13781" lon="5.66453">
        <ele>930.4</ele>
        <time>2021-08-20T08:27:44Z</time>
      </trkpt>
      <trkpt lat="46.13779" lon="5.66456">
        <ele>930.5</ele>
        <time>2021-08-20T08:27:45Z</time>
      </trkpt>
      <trkpt lat="46.13777" lon="5.66461">
        <ele>930.7</ele>
        <time>2021-08-20T08:27:47Z</time>
      </trkpt>
      <trkpt lat="46.13775" lon="5.66466">
        <ele>930.9</ele>
        <time>2021-08-20T08:27:48Z</time>
      </trkpt>
      <trkpt lat="46.13774" lon="5.66468">
        <ele>930.9</ele>
        <time>2021-08-20T08:27:49Z</time>
      </trkpt>
      <trkpt lat="46.13773" lon="5.66473">
        <ele>931.1</ele>
        <time>2021-08-20T08:27:50Z</time>
      </trkpt>
      <trkpt lat="46.13772" lon="5.66479">
        <ele>931.3</ele>
        <time>2021-08-20T08:27:52Z</time>
      </trkpt>
      <trkpt lat="46.13772" lon="5.66484">
        <ele>931.4</ele>
        <time>2021-08-20T08:27:53Z</time>
      </trkpt>
      <trkpt lat="46.13773" lon="5.66491">
        <ele>931.7</ele>
        <time>2021-08-20T08:27:55Z</time>
      </trkpt>
      <trkpt lat="46.13774" lon="5.66494">
        <ele>931.7</ele>
        <time>2021-08-20T08:27:56Z</time>
      </trkpt>
      <trkpt lat="46.13775" lon="5.66497">
        <ele>931.8</ele>
        <time>2021-08-20T08:27:57Z</time>
      </trkpt>
      <trkpt lat="46.13775" lon="5.66502">
        <ele>932</ele>
        <time>2021-08-20T08:27:58Z</time>
      </trkpt>
      <trkpt lat="46.13775" lon="5.66503">
        <ele>932</ele>
        <time>2021-08-20T08:27:59Z</time>
      </trkpt>
      <trkpt lat="46.13774" lon="5.66506">
        <ele>932.1</ele>
        <time>2021-08-20T08:28:00Z</time>
      </trkpt>
      <trkpt lat="46.13773" lon="5.66509">
        <ele>932.2</ele>
        <time>2021-08-20T08:28:02Z</time>
      </trkpt>
      <trkpt lat="46.13773" lon="5.66513">
        <ele>932.3</ele>
        <time>2021-08-20T08:28:03Z</time>
      </trkpt>
      <trkpt lat="46.13773" lon="5.66516">
        <ele>932.4</ele>
        <time>2021-08-20T08:28:04Z</time>
      </trkpt>
      <trkpt lat="46.13772" lon="5.66518">
        <ele>932.5</ele>
        <time>2021-08-20T08:28:05Z</time>
      </trkpt>
      <trkpt lat="46.13772" lon="5.66523">
        <ele>932.6</ele>
        <time>2021-08-20T08:28:06Z</time>
      </trkpt>
      <trkpt lat="46.13772" lon="5.66525">
        <ele>932.7</ele>
        <time>2021-08-20T08:28:07Z</time>
      </trkpt>
      <trkpt lat="46.1377" lon="5.6653">
        <ele>932.9</ele>
        <time>2021-08-20T08:28:09Z</time>
      </trkpt>
      <trkpt lat="46.1377" lon="5.66532">
        <ele>932.9</ele>
        <time>2021-08-20T08:28:10Z</time>
      </trkpt>
      <trkpt lat="46.13769" lon="5.66537">
        <ele>933.1</ele>
        <time>2021-08-20T08:28:11Z</time>
      </trkpt>
      <trkpt lat="46.13769" lon="5.66539">
        <ele>933.2</ele>
        <time>2021-08-20T08:28:12Z</time>
      </trkpt>
      <trkpt lat="46.13767" lon="5.66546">
        <ele>933.4</ele>
        <time>2021-08-20T08:28:14Z</time>
      </trkpt>
      <trkpt lat="46.13766" lon="5.66549">
        <ele>933.5</ele>
        <time>2021-08-20T08:28:15Z</time>
      </trkpt>
      <trkpt lat="46.13765" lon="5.66552">
        <ele>933.5</ele>
        <time>2021-08-20T08:28:16Z</time>
      </trkpt>
      <trkpt lat="46.13762" lon="5.66557">
        <ele>933.7</ele>
        <time>2021-08-20T08:28:17Z</time>
      </trkpt>
      <trkpt lat="46.1376" lon="5.66561">
        <ele>933.9</ele>
        <time>2021-08-20T08:28:19Z</time>
      </trkpt>
      <trkpt lat="46.13759" lon="5.66566">
        <ele>934</ele>
        <time>2021-08-20T08:28:20Z</time>
      </trkpt>
      <trkpt lat="46.13759" lon="5.66567">
        <ele>934</ele>
        <time>2021-08-20T08:28:21Z</time>
      </trkpt>
      <trkpt lat="46.13757" lon="5.66571">
        <ele>934.2</ele>
        <time>2021-08-20T08:28:22Z</time>
      </trkpt>
      <trkpt lat="46.13756" lon="5.66573">
        <ele>934.2</ele>
        <time>2021-08-20T08:28:23Z</time>
      </trkpt>
      <trkpt lat="46.13755" lon="5.66575">
        <ele>934.3</ele>
        <time>2021-08-20T08:28:24Z</time>
      </trkpt>
      <trkpt lat="46.13752" lon="5.66581">
        <ele>934.5</ele>
        <time>2021-08-20T08:28:26Z</time>
      </trkpt>
      <trkpt lat="46.13752" lon="5.66585">
        <ele>934.7</ele>
        <time>2021-08-20T08:28:27Z</time>
      </trkpt>
      <trkpt lat="46.13751" lon="5.6659">
        <ele>934.8</ele>
        <time>2021-08-20T08:28:28Z</time>
      </trkpt>
      <trkpt lat="46.1375" lon="5.66592">
        <ele>934.9</ele>
        <time>2021-08-20T08:28:29Z</time>
      </trkpt>
      <trkpt lat="46.13749" lon="5.66598">
        <ele>935.1</ele>
        <time>2021-08-20T08:28:31Z</time>
      </trkpt>
      <trkpt lat="46.13748" lon="5.666">
        <ele>935.1</ele>
        <time>2021-08-20T08:28:32Z</time>
      </trkpt>
      <trkpt lat="46.13747" lon="5.66607">
        <ele>935.4</ele>
        <time>2021-08-20T08:28:34Z</time>
      </trkpt>
      <trkpt lat="46.13747" lon="5.66608">
        <ele>935.4</ele>
        <time>2021-08-20T08:28:35Z</time>
      </trkpt>
      <trkpt lat="46.13746" lon="5.6661">
        <ele>935.5</ele>
        <time>2021-08-20T08:28:36Z</time>
      </trkpt>
      <trkpt lat="46.13745" lon="5.66616">
        <ele>935.7</ele>
        <time>2021-08-20T08:28:38Z</time>
      </trkpt>
      <trkpt lat="46.13744" lon="5.66623">
        <ele>935.9</ele>
        <time>2021-08-20T08:28:40Z</time>
      </trkpt>
      <trkpt lat="46.13743" lon="5.66627">
        <ele>936</ele>
        <time>2021-08-20T08:28:42Z</time>
      </trkpt>
      <trkpt lat="46.13743" lon="5.66631">
        <ele>936.2</ele>
        <time>2021-08-20T08:28:43Z</time>
      </trkpt>
      <trkpt lat="46.13742" lon="5.66635">
        <ele>936.3</ele>
        <time>2021-08-20T08:28:44Z</time>
      </trkpt>
      <trkpt lat="46.13741" lon="5.66636">
        <ele>936.4</ele>
        <time>2021-08-20T08:28:45Z</time>
      </trkpt>
      <trkpt lat="46.13741" lon="5.6664">
        <ele>936.5</ele>
        <time>2021-08-20T08:28:47Z</time>
      </trkpt>
      <trkpt lat="46.13741" lon="5.66642">
        <ele>936.6</ele>
        <time>2021-08-20T08:28:48Z</time>
      </trkpt>
      <trkpt lat="46.13741" lon="5.66644">
        <ele>936.6</ele>
        <time>2021-08-20T08:28:49Z</time>
      </trkpt>
      <trkpt lat="46.13741" lon="5.66647">
        <ele>936.7</ele>
        <time>2021-08-20T08:28:50Z</time>
      </trkpt>
      <trkpt lat="46.13741" lon="5.66652">
        <ele>936.9</ele>
        <time>2021-08-20T08:28:51Z</time>
      </trkpt>
      <trkpt lat="46.13742" lon="5.66654">
        <ele>937</ele>
        <time>2021-08-20T08:28:52Z</time>
      </trkpt>
      <trkpt lat="46.13741" lon="5.66658">
        <ele>937.2</ele>
        <time>2021-08-20T08:28:54Z</time>
      </trkpt>
      <trkpt lat="46.13741" lon="5.6666">
        <ele>937.2</ele>
        <time>2021-08-20T08:28:55Z</time>
      </trkpt>
      <trkpt lat="46.1374" lon="5.66665">
        <ele>937.4</ele>
        <time>2021-08-20T08:28:56Z</time>
      </trkpt>
      <trkpt lat="46.1374" lon="5.66667">
        <ele>937.5</ele>
        <time>2021-08-20T08:28:57Z</time>
      </trkpt>
      <trkpt lat="46.1374" lon="5.66668">
        <ele>937.5</ele>
        <time>2021-08-20T08:28:58Z</time>
      </trkpt>
      <trkpt lat="46.1374" lon="5.66669">
        <ele>937.6</ele>
        <time>2021-08-20T08:28:59Z</time>
      </trkpt>
      <trkpt lat="46.1374" lon="5.66673">
        <ele>937.7</ele>
        <time>2021-08-20T08:29:01Z</time>
      </trkpt>
      <trkpt lat="46.1374" lon="5.66674">
        <ele>937.8</ele>
        <time>2021-08-20T08:29:02Z</time>
      </trkpt>
      <trkpt lat="46.1374" lon="5.66678">
        <ele>937.9</ele>
        <time>2021-08-20T08:29:03Z</time>
      </trkpt>
      <trkpt lat="46.1374" lon="5.66682">
        <ele>938</ele>
        <time>2021-08-20T08:29:05Z</time>
      </trkpt>
      <trkpt lat="46.1374" lon="5.66683">
        <ele>938.1</ele>
        <time>2021-08-20T08:29:06Z</time>
      </trkpt>
      <trkpt lat="46.13741" lon="5.66687">
        <ele>938.2</ele>
        <time>2021-08-20T08:29:07Z</time>
      </trkpt>
      <trkpt lat="46.1374" lon="5.66691">
        <ele>938.4</ele>
        <time>2021-08-20T08:29:09Z</time>
      </trkpt>
      <trkpt lat="46.13739" lon="5.66695">
        <ele>938.5</ele>
        <time>2021-08-20T08:29:10Z</time>
      </trkpt>
      <trkpt lat="46.13738" lon="5.667">
        <ele>938.7</ele>
        <time>2021-08-20T08:29:12Z</time>
      </trkpt>
      <trkpt lat="46.13737" lon="5.66703">
        <ele>938.8</ele>
        <time>2021-08-20T08:29:13Z</time>
      </trkpt>
      <trkpt lat="46.13737" lon="5.66705">
        <ele>938.9</ele>
        <time>2021-08-20T08:29:15Z</time>
      </trkpt>
      <trkpt lat="46.13735" lon="5.66709">
        <ele>939.1</ele>
        <time>2021-08-20T08:29:16Z</time>
      </trkpt>
      <trkpt lat="46.13734" lon="5.6671">
        <ele>939.1</ele>
        <time>2021-08-20T08:29:17Z</time>
      </trkpt>
      <trkpt lat="46.13733" lon="5.66716">
        <ele>939.3</ele>
        <time>2021-08-20T08:29:19Z</time>
      </trkpt>
      <trkpt lat="46.13733" lon="5.66721">
        <ele>939.5</ele>
        <time>2021-08-20T08:29:20Z</time>
      </trkpt>
      <trkpt lat="46.13733" lon="5.66723">
        <ele>939.6</ele>
        <time>2021-08-20T08:29:21Z</time>
      </trkpt>
      <trkpt lat="46.13731" lon="5.66729">
        <ele>939.8</ele>
        <time>2021-08-20T08:29:23Z</time>
      </trkpt>
      <trkpt lat="46.1373" lon="5.66731">
        <ele>939.9</ele>
        <time>2021-08-20T08:29:24Z</time>
      </trkpt>
      <trkpt lat="46.1373" lon="5.66733">
        <ele>940</ele>
        <time>2021-08-20T08:29:25Z</time>
      </trkpt>
      <trkpt lat="46.1373" lon="5.66738">
        <ele>940.1</ele>
        <time>2021-08-20T08:29:27Z</time>
      </trkpt>
      <trkpt lat="46.1373" lon="5.6674">
        <ele>940.2</ele>
        <time>2021-08-20T08:29:28Z</time>
      </trkpt>
      <trkpt lat="46.13731" lon="5.66743">
        <ele>940.3</ele>
        <time>2021-08-20T08:29:29Z</time>
      </trkpt>
      <trkpt lat="46.13732" lon="5.66745">
        <ele>940.4</ele>
        <time>2021-08-20T08:29:30Z</time>
      </trkpt>
      <trkpt lat="46.13731" lon="5.66748">
        <ele>940.5</ele>
        <time>2021-08-20T08:29:31Z</time>
      </trkpt>
      <trkpt lat="46.1373" lon="5.66749">
        <ele>940.5</ele>
        <time>2021-08-20T08:29:32Z</time>
      </trkpt>
      <trkpt lat="46.1373" lon="5.66751">
        <ele>940.6</ele>
        <time>2021-08-20T08:29:33Z</time>
      </trkpt>
      <trkpt lat="46.13729" lon="5.66754">
        <ele>940.7</ele>
        <time>2021-08-20T08:29:34Z</time>
      </trkpt>
      <trkpt lat="46.13727" lon="5.6676">
        <ele>940.9</ele>
        <time>2021-08-20T08:29:36Z</time>
      </trkpt>
      <trkpt lat="46.13727" lon="5.66762">
        <ele>941</ele>
        <time>2021-08-20T08:29:37Z</time>
      </trkpt>
      <trkpt lat="46.13726" lon="5.66764">
        <ele>941.1</ele>
        <time>2021-08-20T08:29:38Z</time>
      </trkpt>
      <trkpt lat="46.13725" lon="5.66769">
        <ele>941.3</ele>
        <time>2021-08-20T08:29:39Z</time>
      </trkpt>
      <trkpt lat="46.13724" lon="5.6677">
        <ele>941.3</ele>
        <time>2021-08-20T08:29:40Z</time>
      </trkpt>
      <trkpt lat="46.13724" lon="5.66772">
        <ele>941.4</ele>
        <time>2021-08-20T08:29:41Z</time>
      </trkpt>
      <trkpt lat="46.13722" lon="5.66774">
        <ele>941.5</ele>
        <time>2021-08-20T08:29:42Z</time>
      </trkpt>
      <trkpt lat="46.13722" lon="5.66775">
        <ele>941.5</ele>
        <time>2021-08-20T08:29:44Z</time>
      </trkpt>
      <trkpt lat="46.1372" lon="5.66776">
        <ele>941.6</ele>
        <time>2021-08-20T08:29:45Z</time>
      </trkpt>
      <trkpt lat="46.13719" lon="5.66779">
        <ele>941.7</ele>
        <time>2021-08-20T08:29:46Z</time>
      </trkpt>
      <trkpt lat="46.13719" lon="5.6678">
        <ele>941.8</ele>
        <time>2021-08-20T08:29:47Z</time>
      </trkpt>
      <trkpt lat="46.13719" lon="5.66781">
        <ele>941.8</ele>
        <time>2021-08-20T08:29:48Z</time>
      </trkpt>
      <trkpt lat="46.13718" lon="5.66785">
        <ele>942</ele>
        <time>2021-08-20T08:29:49Z</time>
      </trkpt>
      <trkpt lat="46.13717" lon="5.66787">
        <ele>942</ele>
        <time>2021-08-20T08:29:50Z</time>
      </trkpt>
      <trkpt lat="46.13716" lon="5.66793">
        <ele>942.3</ele>
        <time>2021-08-20T08:29:52Z</time>
      </trkpt>
      <trkpt lat="46.13715" lon="5.66795">
        <ele>942.3</ele>
        <time>2021-08-20T08:29:53Z</time>
      </trkpt>
      <trkpt lat="46.13715" lon="5.66798">
        <ele>942.4</ele>
        <time>2021-08-20T08:29:54Z</time>
      </trkpt>
      <trkpt lat="46.13714" lon="5.66801">
        <ele>942.6</ele>
        <time>2021-08-20T08:29:55Z</time>
      </trkpt>
      <trkpt lat="46.13712" lon="5.66806">
        <ele>942.8</ele>
        <time>2021-08-20T08:29:57Z</time>
      </trkpt>
      <trkpt lat="46.13709" lon="5.66811">
        <ele>943</ele>
        <time>2021-08-20T08:29:58Z</time>
      </trkpt>
      <trkpt lat="46.13709" lon="5.66812">
        <ele>943</ele>
        <time>2021-08-20T08:29:59Z</time>
      </trkpt>
      <trkpt lat="46.13707" lon="5.66814">
        <ele>943.1</ele>
        <time>2021-08-20T08:30:00Z</time>
      </trkpt>
      <trkpt lat="46.13706" lon="5.66819">
        <ele>943.3</ele>
        <time>2021-08-20T08:30:02Z</time>
      </trkpt>
      <trkpt lat="46.13705" lon="5.66821">
        <ele>943.4</ele>
        <time>2021-08-20T08:30:03Z</time>
      </trkpt>
      <trkpt lat="46.13703" lon="5.66825">
        <ele>943.6</ele>
        <time>2021-08-20T08:30:05Z</time>
      </trkpt>
      <trkpt lat="46.13702" lon="5.66828">
        <ele>943.7</ele>
        <time>2021-08-20T08:30:06Z</time>
      </trkpt>
      <trkpt lat="46.13702" lon="5.66832">
        <ele>943.8</ele>
        <time>2021-08-20T08:30:08Z</time>
      </trkpt>
      <trkpt lat="46.13701" lon="5.66836">
        <ele>944</ele>
        <time>2021-08-20T08:30:09Z</time>
      </trkpt>
      <trkpt lat="46.13701" lon="5.66837">
        <ele>944</ele>
        <time>2021-08-20T08:30:10Z</time>
      </trkpt>
      <trkpt lat="46.13699" lon="5.66841">
        <ele>944.2</ele>
        <time>2021-08-20T08:30:11Z</time>
      </trkpt>
      <trkpt lat="46.13698" lon="5.66846">
        <ele>944.3</ele>
        <time>2021-08-20T08:30:13Z</time>
      </trkpt>
      <trkpt lat="46.13697" lon="5.66847">
        <ele>944.4</ele>
        <time>2021-08-20T08:30:14Z</time>
      </trkpt>
      <trkpt lat="46.13695" lon="5.66849">
        <ele>944.5</ele>
        <time>2021-08-20T08:30:16Z</time>
      </trkpt>
      <trkpt lat="46.13692" lon="5.66848">
        <ele>944.6</ele>
        <time>2021-08-20T08:30:18Z</time>
      </trkpt>
      <trkpt lat="46.1369" lon="5.66848">
        <ele>944.7</ele>
        <time>2021-08-20T08:30:19Z</time>
      </trkpt>
      <trkpt lat="46.13689" lon="5.66848">
        <ele>944.6</ele>
        <time>2021-08-20T08:30:20Z</time>
      </trkpt>
      <trkpt lat="46.13688" lon="5.6685">
        <ele>944.5</ele>
        <time>2021-08-20T08:30:22Z</time>
      </trkpt>
      <trkpt lat="46.13688" lon="5.66851">
        <ele>944.5</ele>
        <time>2021-08-20T08:30:23Z</time>
      </trkpt>
      <trkpt lat="46.13688" lon="5.66853">
        <ele>944.5</ele>
        <time>2021-08-20T08:30:25Z</time>
      </trkpt>
      <trkpt lat="46.13688" lon="5.66854">
        <ele>944.5</ele>
        <time>2021-08-20T08:30:27Z</time>
      </trkpt>
      <trkpt lat="46.13688" lon="5.66854">
        <ele>944.5</ele>
        <time>2021-08-20T08:30:28Z</time>
      </trkpt>
      <trkpt lat="46.13688" lon="5.66854">
        <ele>944.5</ele>
        <time>2021-08-20T08:30:30Z</time>
      </trkpt>
      <trkpt lat="46.13687" lon="5.66863">
        <ele>944.4</ele>
        <time>2021-08-20T08:31:21Z</time>
      </trkpt>
      <trkpt lat="46.13684" lon="5.66872">
        <ele>944.4</ele>
        <time>2021-08-20T08:31:23Z</time>
      </trkpt>
      <trkpt lat="46.13683" lon="5.66877">
        <ele>944.4</ele>
        <time>2021-08-20T08:31:24Z</time>
      </trkpt>
      <trkpt lat="46.1368" lon="5.66883">
        <ele>944.4</ele>
        <time>2021-08-20T08:31:25Z</time>
      </trkpt>
      <trkpt lat="46.13678" lon="5.66887">
        <ele>944.4</ele>
        <time>2021-08-20T08:31:27Z</time>
      </trkpt>
      <trkpt lat="46.13677" lon="5.66892">
        <ele>944.4</ele>
        <time>2021-08-20T08:31:28Z</time>
      </trkpt>
      <trkpt lat="46.13675" lon="5.66898">
        <ele>944.4</ele>
        <time>2021-08-20T08:31:29Z</time>
      </trkpt>
      <trkpt lat="46.13675" lon="5.669">
        <ele>944.4</ele>
        <time>2021-08-20T08:31:30Z</time>
      </trkpt>
      <trkpt lat="46.13674" lon="5.66905">
        <ele>944.4</ele>
        <time>2021-08-20T08:31:31Z</time>
      </trkpt>
      <trkpt lat="46.13672" lon="5.6691">
        <ele>944.4</ele>
        <time>2021-08-20T08:31:33Z</time>
      </trkpt>
      <trkpt lat="46.1367" lon="5.66917">
        <ele>944.4</ele>
        <time>2021-08-20T08:31:35Z</time>
      </trkpt>
      <trkpt lat="46.13669" lon="5.66923">
        <ele>944.4</ele>
        <time>2021-08-20T08:31:36Z</time>
      </trkpt>
      <trkpt lat="46.13668" lon="5.6693">
        <ele>944.4</ele>
        <time>2021-08-20T08:31:37Z</time>
      </trkpt>
      <trkpt lat="46.13668" lon="5.66936">
        <ele>944.4</ele>
        <time>2021-08-20T08:31:39Z</time>
      </trkpt>
      <trkpt lat="46.13667" lon="5.6694">
        <ele>944.5</ele>
        <time>2021-08-20T08:31:40Z</time>
      </trkpt>
      <trkpt lat="46.13666" lon="5.66947">
        <ele>944.5</ele>
        <time>2021-08-20T08:31:42Z</time>
      </trkpt>
      <trkpt lat="46.13665" lon="5.66952">
        <ele>944.5</ele>
        <time>2021-08-20T08:31:43Z</time>
      </trkpt>
      <trkpt lat="46.13664" lon="5.66959">
        <ele>944.6</ele>
        <time>2021-08-20T08:31:45Z</time>
      </trkpt>
      <trkpt lat="46.13663" lon="5.66965">
        <ele>944.6</ele>
        <time>2021-08-20T08:31:46Z</time>
      </trkpt>
      <trkpt lat="46.13661" lon="5.6697">
        <ele>944.6</ele>
        <time>2021-08-20T08:31:48Z</time>
      </trkpt>
      <trkpt lat="46.1366" lon="5.66976">
        <ele>944.7</ele>
        <time>2021-08-20T08:31:49Z</time>
      </trkpt>
      <trkpt lat="46.13659" lon="5.66979">
        <ele>944.7</ele>
        <time>2021-08-20T08:31:50Z</time>
      </trkpt>
      <trkpt lat="46.13659" lon="5.66985">
        <ele>944.7</ele>
        <time>2021-08-20T08:31:51Z</time>
      </trkpt>
      <trkpt lat="46.13659" lon="5.6699">
        <ele>944.8</ele>
        <time>2021-08-20T08:31:53Z</time>
      </trkpt>
      <trkpt lat="46.13658" lon="5.66994">
        <ele>944.8</ele>
        <time>2021-08-20T08:31:54Z</time>
      </trkpt>
      <trkpt lat="46.13656" lon="5.66999">
        <ele>944.8</ele>
        <time>2021-08-20T08:31:56Z</time>
      </trkpt>
      <trkpt lat="46.13654" lon="5.67005">
        <ele>944.9</ele>
        <time>2021-08-20T08:31:57Z</time>
      </trkpt>
      <trkpt lat="46.13653" lon="5.67008">
        <ele>944.9</ele>
        <time>2021-08-20T08:31:58Z</time>
      </trkpt>
      <trkpt lat="46.13652" lon="5.67011">
        <ele>944.9</ele>
        <time>2021-08-20T08:31:59Z</time>
      </trkpt>
      <trkpt lat="46.13651" lon="5.67016">
        <ele>945</ele>
        <time>2021-08-20T08:32:01Z</time>
      </trkpt>
      <trkpt lat="46.1365" lon="5.6702">
        <ele>945</ele>
        <time>2021-08-20T08:32:02Z</time>
      </trkpt>
      <trkpt lat="46.13649" lon="5.67025">
        <ele>945.1</ele>
        <time>2021-08-20T08:32:03Z</time>
      </trkpt>
      <trkpt lat="46.13647" lon="5.67032">
        <ele>945.1</ele>
        <time>2021-08-20T08:32:05Z</time>
      </trkpt>
      <trkpt lat="46.13647" lon="5.67036">
        <ele>945.2</ele>
        <time>2021-08-20T08:32:06Z</time>
      </trkpt>
      <trkpt lat="46.13646" lon="5.67044">
        <ele>945.3</ele>
        <time>2021-08-20T08:32:08Z</time>
      </trkpt>
      <trkpt lat="46.13646" lon="5.67048">
        <ele>945.4</ele>
        <time>2021-08-20T08:32:09Z</time>
      </trkpt>
      <trkpt lat="46.13645" lon="5.67055">
        <ele>945.5</ele>
        <time>2021-08-20T08:32:11Z</time>
      </trkpt>
      <trkpt lat="46.13645" lon="5.6706">
        <ele>945.6</ele>
        <time>2021-08-20T08:32:12Z</time>
      </trkpt>
      <trkpt lat="46.13645" lon="5.67067">
        <ele>945.8</ele>
        <time>2021-08-20T08:32:14Z</time>
      </trkpt>
      <trkpt lat="46.13646" lon="5.67073">
        <ele>945.9</ele>
        <time>2021-08-20T08:32:15Z</time>
      </trkpt>
      <trkpt lat="46.13646" lon="5.67076">
        <ele>946</ele>
        <time>2021-08-20T08:32:16Z</time>
      </trkpt>
      <trkpt lat="46.13646" lon="5.67082">
        <ele>946.1</ele>
        <time>2021-08-20T08:32:18Z</time>
      </trkpt>
      <trkpt lat="46.13646" lon="5.67087">
        <ele>946.2</ele>
        <time>2021-08-20T08:32:19Z</time>
      </trkpt>
      <trkpt lat="46.13645" lon="5.67091">
        <ele>946.3</ele>
        <time>2021-08-20T08:32:20Z</time>
      </trkpt>
      <trkpt lat="46.13645" lon="5.67095">
        <ele>946.4</ele>
        <time>2021-08-20T08:32:22Z</time>
      </trkpt>
      <trkpt lat="46.13645" lon="5.67101">
        <ele>946.5</ele>
        <time>2021-08-20T08:32:23Z</time>
      </trkpt>
      <trkpt lat="46.13645" lon="5.67104">
        <ele>946.6</ele>
        <time>2021-08-20T08:32:24Z</time>
      </trkpt>
      <trkpt lat="46.13645" lon="5.6711">
        <ele>946.7</ele>
        <time>2021-08-20T08:32:25Z</time>
      </trkpt>
      <trkpt lat="46.13644" lon="5.67116">
        <ele>946.8</ele>
        <time>2021-08-20T08:32:27Z</time>
      </trkpt>
      <trkpt lat="46.13644" lon="5.6712">
        <ele>946.9</ele>
        <time>2021-08-20T08:32:28Z</time>
      </trkpt>
      <trkpt lat="46.13643" lon="5.67124">
        <ele>947</ele>
        <time>2021-08-20T08:32:29Z</time>
      </trkpt>
      <trkpt lat="46.13643" lon="5.67128">
        <ele>947</ele>
        <time>2021-08-20T08:32:30Z</time>
      </trkpt>
      <trkpt lat="46.13642" lon="5.67135">
        <ele>947.2</ele>
        <time>2021-08-20T08:32:32Z</time>
      </trkpt>
      <trkpt lat="46.13642" lon="5.6714">
        <ele>947.3</ele>
        <time>2021-08-20T08:32:33Z</time>
      </trkpt>
      <trkpt lat="46.13642" lon="5.67146">
        <ele>947.4</ele>
        <time>2021-08-20T08:32:35Z</time>
      </trkpt>
      <trkpt lat="46.13641" lon="5.6715">
        <ele>947.5</ele>
        <time>2021-08-20T08:32:36Z</time>
      </trkpt>
      <trkpt lat="46.1364" lon="5.67154">
        <ele>947.6</ele>
        <time>2021-08-20T08:32:37Z</time>
      </trkpt>
      <trkpt lat="46.1364" lon="5.67158">
        <ele>947.6</ele>
        <time>2021-08-20T08:32:38Z</time>
      </trkpt>
      <trkpt lat="46.13639" lon="5.67165">
        <ele>947.8</ele>
        <time>2021-08-20T08:32:40Z</time>
      </trkpt>
      <trkpt lat="46.13639" lon="5.6717">
        <ele>947.9</ele>
        <time>2021-08-20T08:32:41Z</time>
      </trkpt>
      <trkpt lat="46.13639" lon="5.67176">
        <ele>948</ele>
        <time>2021-08-20T08:32:43Z</time>
      </trkpt>
      <trkpt lat="46.13639" lon="5.67181">
        <ele>948</ele>
        <time>2021-08-20T08:32:44Z</time>
      </trkpt>
      <trkpt lat="46.13639" lon="5.67184">
        <ele>948.1</ele>
        <time>2021-08-20T08:32:45Z</time>
      </trkpt>
      <trkpt lat="46.13638" lon="5.6719">
        <ele>948.2</ele>
        <time>2021-08-20T08:32:47Z</time>
      </trkpt>
      <trkpt lat="46.13638" lon="5.67195">
        <ele>948.3</ele>
        <time>2021-08-20T08:32:48Z</time>
      </trkpt>
      <trkpt lat="46.13638" lon="5.67202">
        <ele>948.3</ele>
        <time>2021-08-20T08:32:50Z</time>
      </trkpt>
      <trkpt lat="46.13637" lon="5.67206">
        <ele>948.4</ele>
        <time>2021-08-20T08:32:51Z</time>
      </trkpt>
      <trkpt lat="46.13637" lon="5.67211">
        <ele>948.5</ele>
        <time>2021-08-20T08:32:52Z</time>
      </trkpt>
      <trkpt lat="46.13637" lon="5.67215">
        <ele>948.6</ele>
        <time>2021-08-20T08:32:53Z</time>
      </trkpt>
      <trkpt lat="46.13637" lon="5.67219">
        <ele>948.7</ele>
        <time>2021-08-20T08:32:54Z</time>
      </trkpt>
      <trkpt lat="46.13637" lon="5.67224">
        <ele>948.8</ele>
        <time>2021-08-20T08:32:55Z</time>
      </trkpt>
      <trkpt lat="46.13636" lon="5.67228">
        <ele>948.8</ele>
        <time>2021-08-20T08:32:57Z</time>
      </trkpt>
      <trkpt lat="46.13636" lon="5.67234">
        <ele>949</ele>
        <time>2021-08-20T08:32:59Z</time>
      </trkpt>
      <trkpt lat="46.13635" lon="5.67239">
        <ele>949.1</ele>
        <time>2021-08-20T08:33:00Z</time>
      </trkpt>
      <trkpt lat="46.13635" lon="5.67241">
        <ele>949.1</ele>
        <time>2021-08-20T08:33:01Z</time>
      </trkpt>
      <trkpt lat="46.13636" lon="5.67248">
        <ele>949.3</ele>
        <time>2021-08-20T08:33:03Z</time>
      </trkpt>
      <trkpt lat="46.13637" lon="5.67253">
        <ele>949.4</ele>
        <time>2021-08-20T08:33:04Z</time>
      </trkpt>
      <trkpt lat="46.13637" lon="5.67257">
        <ele>949.5</ele>
        <time>2021-08-20T08:33:06Z</time>
      </trkpt>
      <trkpt lat="46.13637" lon="5.67261">
        <ele>949.6</ele>
        <time>2021-08-20T08:33:07Z</time>
      </trkpt>
      <trkpt lat="46.13638" lon="5.67267">
        <ele>949.7</ele>
        <time>2021-08-20T08:33:08Z</time>
      </trkpt>
      <trkpt lat="46.13638" lon="5.67274">
        <ele>949.9</ele>
        <time>2021-08-20T08:33:10Z</time>
      </trkpt>
      <trkpt lat="46.13638" lon="5.67277">
        <ele>950</ele>
        <time>2021-08-20T08:33:11Z</time>
      </trkpt>
      <trkpt lat="46.13639" lon="5.67279">
        <ele>950</ele>
        <time>2021-08-20T08:33:12Z</time>
      </trkpt>
      <trkpt lat="46.13639" lon="5.67283">
        <ele>950.1</ele>
        <time>2021-08-20T08:33:13Z</time>
      </trkpt>
      <trkpt lat="46.1364" lon="5.67289">
        <ele>950.2</ele>
        <time>2021-08-20T08:33:15Z</time>
      </trkpt>
      <trkpt lat="46.1364" lon="5.67296">
        <ele>950.3</ele>
        <time>2021-08-20T08:33:16Z</time>
      </trkpt>
      <trkpt lat="46.13641" lon="5.67299">
        <ele>950.4</ele>
        <time>2021-08-20T08:33:17Z</time>
      </trkpt>
      <trkpt lat="46.13642" lon="5.67305">
        <ele>950.5</ele>
        <time>2021-08-20T08:33:18Z</time>
      </trkpt>
      <trkpt lat="46.13643" lon="5.67307">
        <ele>950.6</ele>
        <time>2021-08-20T08:33:19Z</time>
      </trkpt>
      <trkpt lat="46.13643" lon="5.67314">
        <ele>950.7</ele>
        <time>2021-08-20T08:33:21Z</time>
      </trkpt>
      <trkpt lat="46.13643" lon="5.67316">
        <ele>950.8</ele>
        <time>2021-08-20T08:33:22Z</time>
      </trkpt>
      <trkpt lat="46.13643" lon="5.67318">
        <ele>950.8</ele>
        <time>2021-08-20T08:33:23Z</time>
      </trkpt>
      <trkpt lat="46.13644" lon="5.67323">
        <ele>950.9</ele>
        <time>2021-08-20T08:33:24Z</time>
      </trkpt>
      <trkpt lat="46.13644" lon="5.67326">
        <ele>951</ele>
        <time>2021-08-20T08:33:25Z</time>
      </trkpt>
      <trkpt lat="46.13645" lon="5.67332">
        <ele>951.1</ele>
        <time>2021-08-20T08:33:27Z</time>
      </trkpt>
      <trkpt lat="46.13645" lon="5.67336">
        <ele>951.2</ele>
        <time>2021-08-20T08:33:28Z</time>
      </trkpt>
      <trkpt lat="46.13646" lon="5.67342">
        <ele>951.3</ele>
        <time>2021-08-20T08:33:29Z</time>
      </trkpt>
      <trkpt lat="46.13646" lon="5.67345">
        <ele>951.3</ele>
        <time>2021-08-20T08:33:30Z</time>
      </trkpt>
      <trkpt lat="46.13647" lon="5.67353">
        <ele>951.5</ele>
        <time>2021-08-20T08:33:32Z</time>
      </trkpt>
      <trkpt lat="46.13648" lon="5.67359">
        <ele>951.6</ele>
        <time>2021-08-20T08:33:34Z</time>
      </trkpt>
      <trkpt lat="46.13648" lon="5.67365">
        <ele>951.7</ele>
        <time>2021-08-20T08:33:35Z</time>
      </trkpt>
      <trkpt lat="46.13649" lon="5.67373">
        <ele>951.9</ele>
        <time>2021-08-20T08:33:37Z</time>
      </trkpt>
      <trkpt lat="46.1365" lon="5.67378">
        <ele>952</ele>
        <time>2021-08-20T08:33:38Z</time>
      </trkpt>
      <trkpt lat="46.1365" lon="5.67384">
        <ele>952</ele>
        <time>2021-08-20T08:33:39Z</time>
      </trkpt>
      <trkpt lat="46.13649" lon="5.6739">
        <ele>952.1</ele>
        <time>2021-08-20T08:33:41Z</time>
      </trkpt>
      <trkpt lat="46.13649" lon="5.67393">
        <ele>952.2</ele>
        <time>2021-08-20T08:33:42Z</time>
      </trkpt>
      <trkpt lat="46.13648" lon="5.67399">
        <ele>952.3</ele>
        <time>2021-08-20T08:33:44Z</time>
      </trkpt>
      <trkpt lat="46.13647" lon="5.67405">
        <ele>952.3</ele>
        <time>2021-08-20T08:33:45Z</time>
      </trkpt>
      <trkpt lat="46.13645" lon="5.67411">
        <ele>952.4</ele>
        <time>2021-08-20T08:33:47Z</time>
      </trkpt>
      <trkpt lat="46.13643" lon="5.67416">
        <ele>952.5</ele>
        <time>2021-08-20T08:33:48Z</time>
      </trkpt>
      <trkpt lat="46.1364" lon="5.6742">
        <ele>952.6</ele>
        <time>2021-08-20T08:33:50Z</time>
      </trkpt>
      <trkpt lat="46.13636" lon="5.67423">
        <ele>952.6</ele>
        <time>2021-08-20T08:33:51Z</time>
      </trkpt>
      <trkpt lat="46.13634" lon="5.67426">
        <ele>952.6</ele>
        <time>2021-08-20T08:33:52Z</time>
      </trkpt>
      <trkpt lat="46.1363" lon="5.67431">
        <ele>952.7</ele>
        <time>2021-08-20T08:33:54Z</time>
      </trkpt>
      <trkpt lat="46.13626" lon="5.67436">
        <ele>952.7</ele>
        <time>2021-08-20T08:33:55Z</time>
      </trkpt>
      <trkpt lat="46.13622" lon="5.67441">
        <ele>952.8</ele>
        <time>2021-08-20T08:33:57Z</time>
      </trkpt>
      <trkpt lat="46.13619" lon="5.67444">
        <ele>952.8</ele>
        <time>2021-08-20T08:33:58Z</time>
      </trkpt>
      <trkpt lat="46.13617" lon="5.67447">
        <ele>952.8</ele>
        <time>2021-08-20T08:33:59Z</time>
      </trkpt>
      <trkpt lat="46.13613" lon="5.67453">
        <ele>952.9</ele>
        <time>2021-08-20T08:34:01Z</time>
      </trkpt>
      <trkpt lat="46.13609" lon="5.6746">
        <ele>953</ele>
        <time>2021-08-20T08:34:03Z</time>
      </trkpt>
      <trkpt lat="46.13606" lon="5.67465">
        <ele>953.1</ele>
        <time>2021-08-20T08:34:04Z</time>
      </trkpt>
      <trkpt lat="46.13603" lon="5.67471">
        <ele>953.1</ele>
        <time>2021-08-20T08:34:06Z</time>
      </trkpt>
      <trkpt lat="46.136" lon="5.67476">
        <ele>953.2</ele>
        <time>2021-08-20T08:34:07Z</time>
      </trkpt>
      <trkpt lat="46.13599" lon="5.6748">
        <ele>953.3</ele>
        <time>2021-08-20T08:34:08Z</time>
      </trkpt>
      <trkpt lat="46.13597" lon="5.67486">
        <ele>953.4</ele>
        <time>2021-08-20T08:34:10Z</time>
      </trkpt>
      <trkpt lat="46.13596" lon="5.67492">
        <ele>953.5</ele>
        <time>2021-08-20T08:34:11Z</time>
      </trkpt>
      <trkpt lat="46.13595" lon="5.67496">
        <ele>953.6</ele>
        <time>2021-08-20T08:34:12Z</time>
      </trkpt>
      <trkpt lat="46.13594" lon="5.67497">
        <ele>953.6</ele>
        <time>2021-08-20T08:34:13Z</time>
      </trkpt>
      <trkpt lat="46.13592" lon="5.67503">
        <ele>953.8</ele>
        <time>2021-08-20T08:34:14Z</time>
      </trkpt>
      <trkpt lat="46.13592" lon="5.67505">
        <ele>953.8</ele>
        <time>2021-08-20T08:34:15Z</time>
      </trkpt>
      <trkpt lat="46.1359" lon="5.6751">
        <ele>953.9</ele>
        <time>2021-08-20T08:34:17Z</time>
      </trkpt>
      <trkpt lat="46.13589" lon="5.67513">
        <ele>954</ele>
        <time>2021-08-20T08:34:18Z</time>
      </trkpt>
      <trkpt lat="46.13587" lon="5.67516">
        <ele>954</ele>
        <time>2021-08-20T08:34:19Z</time>
      </trkpt>
      <trkpt lat="46.13586" lon="5.67519">
        <ele>954.1</ele>
        <time>2021-08-20T08:34:20Z</time>
      </trkpt>
      <trkpt lat="46.13584" lon="5.67524">
        <ele>954.2</ele>
        <time>2021-08-20T08:34:22Z</time>
      </trkpt>
      <trkpt lat="46.13583" lon="5.67528">
        <ele>954.3</ele>
        <time>2021-08-20T08:34:23Z</time>
      </trkpt>
      <trkpt lat="46.13581" lon="5.67532">
        <ele>954.3</ele>
        <time>2021-08-20T08:34:24Z</time>
      </trkpt>
      <trkpt lat="46.13581" lon="5.67533">
        <ele>954.4</ele>
        <time>2021-08-20T08:34:25Z</time>
      </trkpt>
      <trkpt lat="46.13579" lon="5.67538">
        <ele>954.4</ele>
        <time>2021-08-20T08:34:26Z</time>
      </trkpt>
      <trkpt lat="46.13578" lon="5.6754">
        <ele>954.5</ele>
        <time>2021-08-20T08:34:27Z</time>
      </trkpt>
      <trkpt lat="46.13575" lon="5.67546">
        <ele>954.6</ele>
        <time>2021-08-20T08:34:28Z</time>
      </trkpt>
      <trkpt lat="46.13573" lon="5.67551">
        <ele>954.6</ele>
        <time>2021-08-20T08:34:30Z</time>
      </trkpt>
      <trkpt lat="46.13573" lon="5.67555">
        <ele>954.7</ele>
        <time>2021-08-20T08:34:31Z</time>
      </trkpt>
      <trkpt lat="46.13571" lon="5.67558">
        <ele>954.7</ele>
        <time>2021-08-20T08:34:32Z</time>
      </trkpt>
      <trkpt lat="46.13569" lon="5.67563">
        <ele>954.7</ele>
        <time>2021-08-20T08:34:34Z</time>
      </trkpt>
      <trkpt lat="46.13567" lon="5.67568">
        <ele>954.7</ele>
        <time>2021-08-20T08:34:35Z</time>
      </trkpt>
      <trkpt lat="46.13564" lon="5.67575">
        <ele>954.6</ele>
        <time>2021-08-20T08:34:36Z</time>
      </trkpt>
      <trkpt lat="46.13561" lon="5.67579">
        <ele>954.5</ele>
        <time>2021-08-20T08:34:38Z</time>
      </trkpt>
      <trkpt lat="46.13559" lon="5.67582">
        <ele>954.5</ele>
        <time>2021-08-20T08:34:39Z</time>
      </trkpt>
      <trkpt lat="46.13556" lon="5.67586">
        <ele>954.4</ele>
        <time>2021-08-20T08:34:40Z</time>
      </trkpt>
      <trkpt lat="46.13551" lon="5.67591">
        <ele>954.2</ele>
        <time>2021-08-20T08:34:42Z</time>
      </trkpt>
      <trkpt lat="46.13548" lon="5.67593">
        <ele>954.1</ele>
        <time>2021-08-20T08:34:43Z</time>
      </trkpt>
      <trkpt lat="46.13543" lon="5.67596">
        <ele>953.9</ele>
        <time>2021-08-20T08:34:45Z</time>
      </trkpt>
      <trkpt lat="46.13538" lon="5.67597">
        <ele>953.7</ele>
        <time>2021-08-20T08:34:46Z</time>
      </trkpt>
      <trkpt lat="46.13533" lon="5.67599">
        <ele>953.5</ele>
        <time>2021-08-20T08:34:47Z</time>
      </trkpt>
      <trkpt lat="46.13529" lon="5.67602">
        <ele>953.4</ele>
        <time>2021-08-20T08:34:49Z</time>
      </trkpt>
      <trkpt lat="46.13526" lon="5.67607">
        <ele>953.2</ele>
        <time>2021-08-20T08:34:50Z</time>
      </trkpt>
      <trkpt lat="46.13522" lon="5.67615">
        <ele>953.1</ele>
        <time>2021-08-20T08:34:52Z</time>
      </trkpt>
      <trkpt lat="46.13521" lon="5.67623">
        <ele>953.1</ele>
        <time>2021-08-20T08:34:53Z</time>
      </trkpt>
      <trkpt lat="46.1352" lon="5.67629">
        <ele>953.1</ele>
        <time>2021-08-20T08:34:54Z</time>
      </trkpt>
      <trkpt lat="46.1352" lon="5.67638">
        <ele>953.1</ele>
        <time>2021-08-20T08:34:55Z</time>
      </trkpt>
      <trkpt lat="46.13519" lon="5.67645">
        <ele>953.2</ele>
        <time>2021-08-20T08:34:57Z</time>
      </trkpt>
      <trkpt lat="46.13521" lon="5.67657">
        <ele>953.5</ele>
        <time>2021-08-20T08:34:59Z</time>
      </trkpt>
      <trkpt lat="46.13522" lon="5.67661">
        <ele>953.6</ele>
        <time>2021-08-20T08:35:00Z</time>
      </trkpt>
      <trkpt lat="46.13524" lon="5.67672">
        <ele>953.9</ele>
        <time>2021-08-20T08:35:02Z</time>
      </trkpt>
      <trkpt lat="46.13526" lon="5.67678">
        <ele>954.1</ele>
        <time>2021-08-20T08:35:03Z</time>
      </trkpt>
      <trkpt lat="46.13529" lon="5.67687">
        <ele>954.5</ele>
        <time>2021-08-20T08:35:04Z</time>
      </trkpt>
      <trkpt lat="46.13531" lon="5.67693">
        <ele>954.7</ele>
        <time>2021-08-20T08:35:05Z</time>
      </trkpt>
      <trkpt lat="46.13533" lon="5.67697">
        <ele>954.9</ele>
        <time>2021-08-20T08:35:07Z</time>
      </trkpt>
      <trkpt lat="46.13536" lon="5.677">
        <ele>955.1</ele>
        <time>2021-08-20T08:35:08Z</time>
      </trkpt>
      <trkpt lat="46.1354" lon="5.67704">
        <ele>955.4</ele>
        <time>2021-08-20T08:35:09Z</time>
      </trkpt>
      <trkpt lat="46.13543" lon="5.67706">
        <ele>955.5</ele>
        <time>2021-08-20T08:35:10Z</time>
      </trkpt>
      <trkpt lat="46.13546" lon="5.67707">
        <ele>955.7</ele>
        <time>2021-08-20T08:35:11Z</time>
      </trkpt>
      <trkpt lat="46.1355" lon="5.67709">
        <ele>955.8</ele>
        <time>2021-08-20T08:35:12Z</time>
      </trkpt>
      <trkpt lat="46.13552" lon="5.67711">
        <ele>955.9</ele>
        <time>2021-08-20T08:35:14Z</time>
      </trkpt>
      <trkpt lat="46.13554" lon="5.67713">
        <ele>956</ele>
        <time>2021-08-20T08:35:15Z</time>
      </trkpt>
      <trkpt lat="46.13557" lon="5.67715">
        <ele>956</ele>
        <time>2021-08-20T08:35:16Z</time>
      </trkpt>
      <trkpt lat="46.13558" lon="5.67715">
        <ele>956.1</ele>
        <time>2021-08-20T08:35:17Z</time>
      </trkpt>
      <trkpt lat="46.1356" lon="5.67717">
        <ele>956.1</ele>
        <time>2021-08-20T08:35:18Z</time>
      </trkpt>
      <trkpt lat="46.13561" lon="5.67718">
        <ele>956.2</ele>
        <time>2021-08-20T08:35:19Z</time>
      </trkpt>
      <trkpt lat="46.13563" lon="5.6772">
        <ele>956.2</ele>
        <time>2021-08-20T08:35:20Z</time>
      </trkpt>
      <trkpt lat="46.13565" lon="5.67724">
        <ele>956.3</ele>
        <time>2021-08-20T08:35:22Z</time>
      </trkpt>
      <trkpt lat="46.13565" lon="5.67726">
        <ele>956.3</ele>
        <time>2021-08-20T08:35:23Z</time>
      </trkpt>
      <trkpt lat="46.13566" lon="5.67726">
        <ele>956.4</ele>
        <time>2021-08-20T08:35:24Z</time>
      </trkpt>
      <trkpt lat="46.13568" lon="5.67728">
        <ele>956.4</ele>
        <time>2021-08-20T08:35:25Z</time>
      </trkpt>
      <trkpt lat="46.13571" lon="5.67731">
        <ele>956.5</ele>
        <time>2021-08-20T08:35:27Z</time>
      </trkpt>
      <trkpt lat="46.13572" lon="5.67732">
        <ele>956.6</ele>
        <time>2021-08-20T08:35:28Z</time>
      </trkpt>
      <trkpt lat="46.13575" lon="5.67737">
        <ele>956.7</ele>
        <time>2021-08-20T08:35:30Z</time>
      </trkpt>
      <trkpt lat="46.13576" lon="5.67739">
        <ele>956.8</ele>
        <time>2021-08-20T08:35:31Z</time>
      </trkpt>
      <trkpt lat="46.13578" lon="5.67743">
        <ele>957</ele>
        <time>2021-08-20T08:35:33Z</time>
      </trkpt>
      <trkpt lat="46.13581" lon="5.67748">
        <ele>957.2</ele>
        <time>2021-08-20T08:35:34Z</time>
      </trkpt>
      <trkpt lat="46.13581" lon="5.6775">
        <ele>957.3</ele>
        <time>2021-08-20T08:35:36Z</time>
      </trkpt>
      <trkpt lat="46.13581" lon="5.67753">
        <ele>957.3</ele>
        <time>2021-08-20T08:35:37Z</time>
      </trkpt>
      <trkpt lat="46.13581" lon="5.67758">
        <ele>957.5</ele>
        <time>2021-08-20T08:35:39Z</time>
      </trkpt>
      <trkpt lat="46.13581" lon="5.67759">
        <ele>957.6</ele>
        <time>2021-08-20T08:35:40Z</time>
      </trkpt>
      <trkpt lat="46.1358" lon="5.67764">
        <ele>957.7</ele>
        <time>2021-08-20T08:35:41Z</time>
      </trkpt>
      <trkpt lat="46.1358" lon="5.67765">
        <ele>957.8</ele>
        <time>2021-08-20T08:35:42Z</time>
      </trkpt>
      <trkpt lat="46.13583" lon="5.67769">
        <ele>958.1</ele>
        <time>2021-08-20T08:35:43Z</time>
      </trkpt>
      <trkpt lat="46.13584" lon="5.67771">
        <ele>958.1</ele>
        <time>2021-08-20T08:35:44Z</time>
      </trkpt>
      <trkpt lat="46.13586" lon="5.67775">
        <ele>958.4</ele>
        <time>2021-08-20T08:35:46Z</time>
      </trkpt>
      <trkpt lat="46.13587" lon="5.67776">
        <ele>958.4</ele>
        <time>2021-08-20T08:35:47Z</time>
      </trkpt>
      <trkpt lat="46.13589" lon="5.67781">
        <ele>958.7</ele>
        <time>2021-08-20T08:35:48Z</time>
      </trkpt>
      <trkpt lat="46.1359" lon="5.67783">
        <ele>958.8</ele>
        <time>2021-08-20T08:35:49Z</time>
      </trkpt>
      <trkpt lat="46.13591" lon="5.67787">
        <ele>959</ele>
        <time>2021-08-20T08:35:51Z</time>
      </trkpt>
      <trkpt lat="46.13592" lon="5.67789">
        <ele>959.2</ele>
        <time>2021-08-20T08:35:52Z</time>
      </trkpt>
      <trkpt lat="46.13593" lon="5.67791">
        <ele>959.2</ele>
        <time>2021-08-20T08:35:53Z</time>
      </trkpt>
      <trkpt lat="46.13594" lon="5.67795">
        <ele>959.5</ele>
        <time>2021-08-20T08:35:54Z</time>
      </trkpt>
      <trkpt lat="46.13595" lon="5.67798">
        <ele>959.6</ele>
        <time>2021-08-20T08:35:55Z</time>
      </trkpt>
      <trkpt lat="46.13596" lon="5.67802">
        <ele>959.8</ele>
        <time>2021-08-20T08:35:56Z</time>
      </trkpt>
      <trkpt lat="46.13597" lon="5.67806">
        <ele>960</ele>
        <time>2021-08-20T08:35:57Z</time>
      </trkpt>
      <trkpt lat="46.13598" lon="5.6781">
        <ele>960.2</ele>
        <time>2021-08-20T08:35:58Z</time>
      </trkpt>
      <trkpt lat="46.13599" lon="5.67814">
        <ele>960.4</ele>
        <time>2021-08-20T08:36:00Z</time>
      </trkpt>
      <trkpt lat="46.136" lon="5.67818">
        <ele>960.6</ele>
        <time>2021-08-20T08:36:01Z</time>
      </trkpt>
      <trkpt lat="46.13601" lon="5.67821">
        <ele>960.8</ele>
        <time>2021-08-20T08:36:03Z</time>
      </trkpt>
      <trkpt lat="46.13602" lon="5.67825">
        <ele>961</ele>
        <time>2021-08-20T08:36:20Z</time>
      </trkpt>
      <trkpt lat="46.13603" lon="5.67829">
        <ele>961.2</ele>
        <time>2021-08-20T08:36:21Z</time>
      </trkpt>
      <trkpt lat="46.13604" lon="5.67833">
        <ele>961.4</ele>
        <time>2021-08-20T08:36:22Z</time>
      </trkpt>
      <trkpt lat="46.13605" lon="5.67833">
        <ele>961.5</ele>
        <time>2021-08-20T08:36:23Z</time>
      </trkpt>
      <trkpt lat="46.1361" lon="5.67835">
        <ele>961.8</ele>
        <time>2021-08-20T08:36:25Z</time>
      </trkpt>
      <trkpt lat="46.13611" lon="5.67835">
        <ele>961.9</ele>
        <time>2021-08-20T08:36:27Z</time>
      </trkpt>
      <trkpt lat="46.13611" lon="5.67836">
        <ele>961.9</ele>
        <time>2021-08-20T08:36:28Z</time>
      </trkpt>
      <trkpt lat="46.13611" lon="5.67836">
        <ele>961.9</ele>
        <time>2021-08-20T08:36:30Z</time>
      </trkpt>
      <trkpt lat="46.13613" lon="5.67836">
        <ele>962</ele>
        <time>2021-08-20T08:36:31Z</time>
      </trkpt>
      <trkpt lat="46.13614" lon="5.67837">
        <ele>962.1</ele>
        <time>2021-08-20T08:36:32Z</time>
      </trkpt>
      <trkpt lat="46.13615" lon="5.67838">
        <ele>962.2</ele>
        <time>2021-08-20T08:36:33Z</time>
      </trkpt>
      <trkpt lat="46.13639" lon="5.67872">
        <ele>964.6</ele>
        <time>2021-08-20T08:36:50Z</time>
      </trkpt>
      <trkpt lat="46.13641" lon="5.67876">
        <ele>964.8</ele>
        <time>2021-08-20T08:36:51Z</time>
      </trkpt>
      <trkpt lat="46.13641" lon="5.67877">
        <ele>964.9</ele>
        <time>2021-08-20T08:36:53Z</time>
      </trkpt>
      <trkpt lat="46.13642" lon="5.67877">
        <ele>964.9</ele>
        <time>2021-08-20T08:36:54Z</time>
      </trkpt>
      <trkpt lat="46.13644" lon="5.67876">
        <ele>965.1</ele>
        <time>2021-08-20T08:36:55Z</time>
      </trkpt>
      <trkpt lat="46.13645" lon="5.67875">
        <ele>965.2</ele>
        <time>2021-08-20T08:36:57Z</time>
      </trkpt>
      <trkpt lat="46.13647" lon="5.67874">
        <ele>965.3</ele>
        <time>2021-08-20T08:36:59Z</time>
      </trkpt>
      <trkpt lat="46.13649" lon="5.67875">
        <ele>965.4</ele>
        <time>2021-08-20T08:37:01Z</time>
      </trkpt>
      <trkpt lat="46.1365" lon="5.67876">
        <ele>965.5</ele>
        <time>2021-08-20T08:37:02Z</time>
      </trkpt>
      <trkpt lat="46.13651" lon="5.67878">
        <ele>965.6</ele>
        <time>2021-08-20T08:37:03Z</time>
      </trkpt>
      <trkpt lat="46.13652" lon="5.67879">
        <ele>965.7</ele>
        <time>2021-08-20T08:37:05Z</time>
      </trkpt>
      <trkpt lat="46.13653" lon="5.67881">
        <ele>965.8</ele>
        <time>2021-08-20T08:37:06Z</time>
      </trkpt>
      <trkpt lat="46.13654" lon="5.67882">
        <ele>965.9</ele>
        <time>2021-08-20T08:37:08Z</time>
      </trkpt>
      <trkpt lat="46.13655" lon="5.67883">
        <ele>966</ele>
        <time>2021-08-20T08:37:09Z</time>
      </trkpt>
      <trkpt lat="46.13655" lon="5.67883">
        <ele>966.1</ele>
        <time>2021-08-20T08:37:11Z</time>
      </trkpt>
      <trkpt lat="46.13656" lon="5.67884">
        <ele>966.1</ele>
        <time>2021-08-20T08:37:12Z</time>
      </trkpt>
      <trkpt lat="46.13658" lon="5.67885">
        <ele>966.3</ele>
        <time>2021-08-20T08:37:13Z</time>
      </trkpt>
      <trkpt lat="46.13659" lon="5.67887">
        <ele>966.4</ele>
        <time>2021-08-20T08:37:15Z</time>
      </trkpt>
      <trkpt lat="46.1366" lon="5.67889">
        <ele>966.6</ele>
        <time>2021-08-20T08:37:17Z</time>
      </trkpt>
      <trkpt lat="46.13661" lon="5.67891">
        <ele>966.7</ele>
        <time>2021-08-20T08:37:19Z</time>
      </trkpt>
      <trkpt lat="46.13662" lon="5.67892">
        <ele>966.8</ele>
        <time>2021-08-20T08:37:20Z</time>
      </trkpt>
      <trkpt lat="46.13663" lon="5.67893">
        <ele>966.9</ele>
        <time>2021-08-20T08:37:21Z</time>
      </trkpt>
      <trkpt lat="46.13663" lon="5.67894">
        <ele>966.9</ele>
        <time>2021-08-20T08:37:22Z</time>
      </trkpt>
      <trkpt lat="46.13663" lon="5.67896">
        <ele>967</ele>
        <time>2021-08-20T08:37:23Z</time>
      </trkpt>
      <trkpt lat="46.13663" lon="5.67898">
        <ele>967.1</ele>
        <time>2021-08-20T08:37:24Z</time>
      </trkpt>
      <trkpt lat="46.13663" lon="5.679">
        <ele>967.3</ele>
        <time>2021-08-20T08:37:26Z</time>
      </trkpt>
      <trkpt lat="46.13663" lon="5.67903">
        <ele>967.5</ele>
        <time>2021-08-20T08:37:27Z</time>
      </trkpt>
      <trkpt lat="46.13663" lon="5.67904">
        <ele>967.5</ele>
        <time>2021-08-20T08:37:29Z</time>
      </trkpt>
      <trkpt lat="46.13663" lon="5.67905">
        <ele>967.6</ele>
        <time>2021-08-20T08:37:30Z</time>
      </trkpt>
      <trkpt lat="46.13662" lon="5.67906">
        <ele>967.6</ele>
        <time>2021-08-20T08:37:31Z</time>
      </trkpt>
      <trkpt lat="46.13663" lon="5.67908">
        <ele>967.8</ele>
        <time>2021-08-20T08:37:33Z</time>
      </trkpt>
      <trkpt lat="46.13664" lon="5.67909">
        <ele>967.9</ele>
        <time>2021-08-20T08:37:34Z</time>
      </trkpt>
      <trkpt lat="46.13664" lon="5.67911">
        <ele>968</ele>
        <time>2021-08-20T08:37:35Z</time>
      </trkpt>
      <trkpt lat="46.13666" lon="5.67913">
        <ele>968.2</ele>
        <time>2021-08-20T08:37:36Z</time>
      </trkpt>
      <trkpt lat="46.13667" lon="5.67914">
        <ele>968.3</ele>
        <time>2021-08-20T08:37:37Z</time>
      </trkpt>
      <trkpt lat="46.13669" lon="5.67917">
        <ele>968.5</ele>
        <time>2021-08-20T08:37:39Z</time>
      </trkpt>
      <trkpt lat="46.13671" lon="5.67922">
        <ele>968.8</ele>
        <time>2021-08-20T08:37:41Z</time>
      </trkpt>
      <trkpt lat="46.13672" lon="5.67926">
        <ele>969.1</ele>
        <time>2021-08-20T08:37:42Z</time>
      </trkpt>
      <trkpt lat="46.13673" lon="5.67928">
        <ele>969.2</ele>
        <time>2021-08-20T08:37:43Z</time>
      </trkpt>
      <trkpt lat="46.13674" lon="5.67932">
        <ele>969.5</ele>
        <time>2021-08-20T08:37:45Z</time>
      </trkpt>
      <trkpt lat="46.13675" lon="5.67936">
        <ele>969.7</ele>
        <time>2021-08-20T08:37:46Z</time>
      </trkpt>
      <trkpt lat="46.13676" lon="5.67939">
        <ele>969.8</ele>
        <time>2021-08-20T08:37:47Z</time>
      </trkpt>
      <trkpt lat="46.13676" lon="5.67942">
        <ele>970</ele>
        <time>2021-08-20T08:37:49Z</time>
      </trkpt>
      <trkpt lat="46.13676" lon="5.67944">
        <ele>970.1</ele>
        <time>2021-08-20T08:37:50Z</time>
      </trkpt>
      <trkpt lat="46.13674" lon="5.67948">
        <ele>970.3</ele>
        <time>2021-08-20T08:37:52Z</time>
      </trkpt>
      <trkpt lat="46.13674" lon="5.6795">
        <ele>970.4</ele>
        <time>2021-08-20T08:37:53Z</time>
      </trkpt>
      <trkpt lat="46.13673" lon="5.67952">
        <ele>970.5</ele>
        <time>2021-08-20T08:37:54Z</time>
      </trkpt>
      <trkpt lat="46.13673" lon="5.67957">
        <ele>970.7</ele>
        <time>2021-08-20T08:37:55Z</time>
      </trkpt>
      <trkpt lat="46.13673" lon="5.67958">
        <ele>970.8</ele>
        <time>2021-08-20T08:37:56Z</time>
      </trkpt>
      <trkpt lat="46.13672" lon="5.67961">
        <ele>970.9</ele>
        <time>2021-08-20T08:37:57Z</time>
      </trkpt>
      <trkpt lat="46.13672" lon="5.67965">
        <ele>971.1</ele>
        <time>2021-08-20T08:37:59Z</time>
      </trkpt>
      <trkpt lat="46.13672" lon="5.67969">
        <ele>971.3</ele>
        <time>2021-08-20T08:38:00Z</time>
      </trkpt>
      <trkpt lat="46.13671" lon="5.67977">
        <ele>971.7</ele>
        <time>2021-08-20T08:38:02Z</time>
      </trkpt>
      <trkpt lat="46.13669" lon="5.67983">
        <ele>972</ele>
        <time>2021-08-20T08:38:03Z</time>
      </trkpt>
      <trkpt lat="46.13668" lon="5.67985">
        <ele>972.1</ele>
        <time>2021-08-20T08:38:04Z</time>
      </trkpt>
      <trkpt lat="46.13668" lon="5.67988">
        <ele>972.2</ele>
        <time>2021-08-20T08:38:05Z</time>
      </trkpt>
      <trkpt lat="46.13667" lon="5.67995">
        <ele>972.6</ele>
        <time>2021-08-20T08:38:07Z</time>
      </trkpt>
      <trkpt lat="46.13666" lon="5.67999">
        <ele>972.8</ele>
        <time>2021-08-20T08:38:08Z</time>
      </trkpt>
      <trkpt lat="46.13666" lon="5.68">
        <ele>972.9</ele>
        <time>2021-08-20T08:38:09Z</time>
      </trkpt>
      <trkpt lat="46.13666" lon="5.68002">
        <ele>973</ele>
        <time>2021-08-20T08:38:11Z</time>
      </trkpt>
      <trkpt lat="46.13667" lon="5.68003">
        <ele>973.1</ele>
        <time>2021-08-20T08:38:12Z</time>
      </trkpt>
      <trkpt lat="46.13667" lon="5.68005">
        <ele>973.2</ele>
        <time>2021-08-20T08:38:13Z</time>
      </trkpt>
      <trkpt lat="46.13668" lon="5.6801">
        <ele>973.4</ele>
        <time>2021-08-20T08:38:15Z</time>
      </trkpt>
      <trkpt lat="46.13669" lon="5.68015">
        <ele>973.7</ele>
        <time>2021-08-20T08:38:16Z</time>
      </trkpt>
      <trkpt lat="46.1367" lon="5.68016">
        <ele>973.8</ele>
        <time>2021-08-20T08:38:17Z</time>
      </trkpt>
      <trkpt lat="46.13671" lon="5.6802">
        <ele>974</ele>
        <time>2021-08-20T08:38:18Z</time>
      </trkpt>
      <trkpt lat="46.13672" lon="5.68024">
        <ele>974.2</ele>
        <time>2021-08-20T08:38:20Z</time>
      </trkpt>
      <trkpt lat="46.13674" lon="5.68027">
        <ele>974.4</ele>
        <time>2021-08-20T08:38:21Z</time>
      </trkpt>
      <trkpt lat="46.13676" lon="5.6803">
        <ele>974.6</ele>
        <time>2021-08-20T08:38:23Z</time>
      </trkpt>
      <trkpt lat="46.13678" lon="5.68031">
        <ele>974.7</ele>
        <time>2021-08-20T08:38:24Z</time>
      </trkpt>
      <trkpt lat="46.13679" lon="5.68031">
        <ele>974.8</ele>
        <time>2021-08-20T08:38:25Z</time>
      </trkpt>
      <trkpt lat="46.1368" lon="5.68032">
        <ele>974.8</ele>
        <time>2021-08-20T08:38:26Z</time>
      </trkpt>
      <trkpt lat="46.13682" lon="5.68034">
        <ele>975</ele>
        <time>2021-08-20T08:38:28Z</time>
      </trkpt>
      <trkpt lat="46.13684" lon="5.68036">
        <ele>975.1</ele>
        <time>2021-08-20T08:38:29Z</time>
      </trkpt>
      <trkpt lat="46.13686" lon="5.68038">
        <ele>975.3</ele>
        <time>2021-08-20T08:38:31Z</time>
      </trkpt>
      <trkpt lat="46.13688" lon="5.6804">
        <ele>975.4</ele>
        <time>2021-08-20T08:38:32Z</time>
      </trkpt>
      <trkpt lat="46.13689" lon="5.68041">
        <ele>975.5</ele>
        <time>2021-08-20T08:38:33Z</time>
      </trkpt>
      <trkpt lat="46.13695" lon="5.68047">
        <ele>975.9</ele>
        <time>2021-08-20T08:38:36Z</time>
      </trkpt>
      <trkpt lat="46.13697" lon="5.68049">
        <ele>976.1</ele>
        <time>2021-08-20T08:38:38Z</time>
      </trkpt>
      <trkpt lat="46.13698" lon="5.6805">
        <ele>976.2</ele>
        <time>2021-08-20T08:38:39Z</time>
      </trkpt>
      <trkpt lat="46.13697" lon="5.68051">
        <ele>976.3</ele>
        <time>2021-08-20T08:38:40Z</time>
      </trkpt>
      <trkpt lat="46.13695" lon="5.68052">
        <ele>976.4</ele>
        <time>2021-08-20T08:38:41Z</time>
      </trkpt>
      <trkpt lat="46.13695" lon="5.68052">
        <ele>976.4</ele>
        <time>2021-08-20T08:38:42Z</time>
      </trkpt>
      <trkpt lat="46.13695" lon="5.68053">
        <ele>976.5</ele>
        <time>2021-08-20T08:38:44Z</time>
      </trkpt>
      <trkpt lat="46.13695" lon="5.68053">
        <ele>976.5</ele>
        <time>2021-08-20T08:38:45Z</time>
      </trkpt>
      <trkpt lat="46.13694" lon="5.68055">
        <ele>976.6</ele>
        <time>2021-08-20T08:38:47Z</time>
      </trkpt>
      <trkpt lat="46.13694" lon="5.68056">
        <ele>976.6</ele>
        <time>2021-08-20T08:38:48Z</time>
      </trkpt>
      <trkpt lat="46.13693" lon="5.68059">
        <ele>976.8</ele>
        <time>2021-08-20T08:38:50Z</time>
      </trkpt>
      <trkpt lat="46.13691" lon="5.681">
        <ele>979</ele>
        <time>2021-08-20T08:39:12Z</time>
      </trkpt>
      <trkpt lat="46.13692" lon="5.68104">
        <ele>979.2</ele>
        <time>2021-08-20T08:39:13Z</time>
      </trkpt>
      <trkpt lat="46.13692" lon="5.68105">
        <ele>979.3</ele>
        <time>2021-08-20T08:39:14Z</time>
      </trkpt>
      <trkpt lat="46.13691" lon="5.68107">
        <ele>979.4</ele>
        <time>2021-08-20T08:39:16Z</time>
      </trkpt>
      <trkpt lat="46.13691" lon="5.68109">
        <ele>979.5</ele>
        <time>2021-08-20T08:39:18Z</time>
      </trkpt>
      <trkpt lat="46.13691" lon="5.6811">
        <ele>979.5</ele>
        <time>2021-08-20T08:39:19Z</time>
      </trkpt>
      <trkpt lat="46.13691" lon="5.68111">
        <ele>979.6</ele>
        <time>2021-08-20T08:39:20Z</time>
      </trkpt>
      <trkpt lat="46.13691" lon="5.68112">
        <ele>979.6</ele>
        <time>2021-08-20T08:39:21Z</time>
      </trkpt>
      <trkpt lat="46.1369" lon="5.68114">
        <ele>979.7</ele>
        <time>2021-08-20T08:39:22Z</time>
      </trkpt>
      <trkpt lat="46.13689" lon="5.6812">
        <ele>980.1</ele>
        <time>2021-08-20T08:39:24Z</time>
      </trkpt>
      <trkpt lat="46.13688" lon="5.68121">
        <ele>980.2</ele>
        <time>2021-08-20T08:39:26Z</time>
      </trkpt>
      <trkpt lat="46.13688" lon="5.68123">
        <ele>980.3</ele>
        <time>2021-08-20T08:39:27Z</time>
      </trkpt>
      <trkpt lat="46.13687" lon="5.68124">
        <ele>980.4</ele>
        <time>2021-08-20T08:39:28Z</time>
      </trkpt>
      <trkpt lat="46.13686" lon="5.68125">
        <ele>980.5</ele>
        <time>2021-08-20T08:39:30Z</time>
      </trkpt>
      <trkpt lat="46.13686" lon="5.68126">
        <ele>980.5</ele>
        <time>2021-08-20T08:39:32Z</time>
      </trkpt>
      <trkpt lat="46.13686" lon="5.68127">
        <ele>980.6</ele>
        <time>2021-08-20T08:39:33Z</time>
      </trkpt>
      <trkpt lat="46.13687" lon="5.68128">
        <ele>980.6</ele>
        <time>2021-08-20T08:39:35Z</time>
      </trkpt>
      <trkpt lat="46.13688" lon="5.68128">
        <ele>980.7</ele>
        <time>2021-08-20T08:39:37Z</time>
      </trkpt>
      <trkpt lat="46.13689" lon="5.68128">
        <ele>980.8</ele>
        <time>2021-08-20T08:39:39Z</time>
      </trkpt>
      <trkpt lat="46.1369" lon="5.68128">
        <ele>980.9</ele>
        <time>2021-08-20T08:39:41Z</time>
      </trkpt>
      <trkpt lat="46.13691" lon="5.68128">
        <ele>980.9</ele>
        <time>2021-08-20T08:39:42Z</time>
      </trkpt>
      <trkpt lat="46.13692" lon="5.68127">
        <ele>981</ele>
        <time>2021-08-20T08:39:43Z</time>
      </trkpt>
      <trkpt lat="46.13693" lon="5.68127">
        <ele>981.1</ele>
        <time>2021-08-20T08:39:44Z</time>
      </trkpt>
      <trkpt lat="46.13694" lon="5.68127">
        <ele>981.2</ele>
        <time>2021-08-20T08:39:46Z</time>
      </trkpt>
      <trkpt lat="46.13695" lon="5.68127">
        <ele>981.3</ele>
        <time>2021-08-20T08:39:47Z</time>
      </trkpt>
      <trkpt lat="46.13702" lon="5.68129">
        <ele>981.9</ele>
        <time>2021-08-20T08:39:49Z</time>
      </trkpt>
      <trkpt lat="46.13705" lon="5.68131">
        <ele>982.1</ele>
        <time>2021-08-20T08:39:50Z</time>
      </trkpt>
      <trkpt lat="46.13705" lon="5.68132">
        <ele>982.2</ele>
        <time>2021-08-20T08:39:51Z</time>
      </trkpt>
      <trkpt lat="46.13706" lon="5.68133">
        <ele>982.2</ele>
        <time>2021-08-20T08:39:52Z</time>
      </trkpt>
      <trkpt lat="46.13706" lon="5.68135">
        <ele>982.3</ele>
        <time>2021-08-20T08:39:54Z</time>
      </trkpt>
      <trkpt lat="46.13706" lon="5.68136">
        <ele>982.4</ele>
        <time>2021-08-20T08:39:55Z</time>
      </trkpt>
      <trkpt lat="46.13705" lon="5.68137">
        <ele>982.4</ele>
        <time>2021-08-20T08:39:56Z</time>
      </trkpt>
      <trkpt lat="46.13705" lon="5.6814">
        <ele>982.6</ele>
        <time>2021-08-20T08:39:58Z</time>
      </trkpt>
      <trkpt lat="46.13704" lon="5.68141">
        <ele>982.6</ele>
        <time>2021-08-20T08:39:59Z</time>
      </trkpt>
      <trkpt lat="46.13704" lon="5.68142">
        <ele>982.7</ele>
        <time>2021-08-20T08:40:00Z</time>
      </trkpt>
      <trkpt lat="46.13704" lon="5.68143">
        <ele>982.8</ele>
        <time>2021-08-20T08:40:02Z</time>
      </trkpt>
      <trkpt lat="46.13704" lon="5.68144">
        <ele>982.8</ele>
        <time>2021-08-20T08:40:03Z</time>
      </trkpt>
      <trkpt lat="46.13704" lon="5.68147">
        <ele>982.9</ele>
        <time>2021-08-20T08:40:05Z</time>
      </trkpt>
      <trkpt lat="46.13702" lon="5.68151">
        <ele>983.1</ele>
        <time>2021-08-20T08:40:06Z</time>
      </trkpt>
      <trkpt lat="46.13701" lon="5.68153">
        <ele>983.3</ele>
        <time>2021-08-20T08:40:07Z</time>
      </trkpt>
      <trkpt lat="46.137" lon="5.68155">
        <ele>983.4</ele>
        <time>2021-08-20T08:40:08Z</time>
      </trkpt>
      <trkpt lat="46.13699" lon="5.68158">
        <ele>983.5</ele>
        <time>2021-08-20T08:40:10Z</time>
      </trkpt>
      <trkpt lat="46.13698" lon="5.6816">
        <ele>983.6</ele>
        <time>2021-08-20T08:40:11Z</time>
      </trkpt>
      <trkpt lat="46.13698" lon="5.68161">
        <ele>983.7</ele>
        <time>2021-08-20T08:40:13Z</time>
      </trkpt>
      <trkpt lat="46.13697" lon="5.68162">
        <ele>983.8</ele>
        <time>2021-08-20T08:40:14Z</time>
      </trkpt>
      <trkpt lat="46.13697" lon="5.68163">
        <ele>983.8</ele>
        <time>2021-08-20T08:40:15Z</time>
      </trkpt>
      <trkpt lat="46.13697" lon="5.68164">
        <ele>983.9</ele>
        <time>2021-08-20T08:40:17Z</time>
      </trkpt>
      <trkpt lat="46.13697" lon="5.68165">
        <ele>983.9</ele>
        <time>2021-08-20T08:40:19Z</time>
      </trkpt>
      <trkpt lat="46.13696" lon="5.68166">
        <ele>984</ele>
        <time>2021-08-20T08:40:20Z</time>
      </trkpt>
      <trkpt lat="46.13696" lon="5.68167">
        <ele>984</ele>
        <time>2021-08-20T08:40:21Z</time>
      </trkpt>
      <trkpt lat="46.13697" lon="5.68172">
        <ele>984.2</ele>
        <time>2021-08-20T08:40:23Z</time>
      </trkpt>
      <trkpt lat="46.13697" lon="5.68173">
        <ele>984.3</ele>
        <time>2021-08-20T08:40:24Z</time>
      </trkpt>
      <trkpt lat="46.13698" lon="5.68178">
        <ele>984.5</ele>
        <time>2021-08-20T08:40:26Z</time>
      </trkpt>
      <trkpt lat="46.137" lon="5.68181">
        <ele>984.8</ele>
        <time>2021-08-20T08:40:28Z</time>
      </trkpt>
      <trkpt lat="46.13702" lon="5.68185">
        <ele>985</ele>
        <time>2021-08-20T08:40:29Z</time>
      </trkpt>
      <trkpt lat="46.13704" lon="5.68187">
        <ele>985.2</ele>
        <time>2021-08-20T08:40:31Z</time>
      </trkpt>
      <trkpt lat="46.13706" lon="5.6819">
        <ele>985.4</ele>
        <time>2021-08-20T08:40:32Z</time>
      </trkpt>
      <trkpt lat="46.13707" lon="5.68192">
        <ele>985.6</ele>
        <time>2021-08-20T08:40:33Z</time>
      </trkpt>
      <trkpt lat="46.13709" lon="5.68194">
        <ele>985.7</ele>
        <time>2021-08-20T08:40:35Z</time>
      </trkpt>
      <trkpt lat="46.13713" lon="5.68195">
        <ele>986</ele>
        <time>2021-08-20T08:40:36Z</time>
      </trkpt>
      <trkpt lat="46.13716" lon="5.68196">
        <ele>986.3</ele>
        <time>2021-08-20T08:40:37Z</time>
      </trkpt>
      <trkpt lat="46.13716" lon="5.68197">
        <ele>986.4</ele>
        <time>2021-08-20T08:40:38Z</time>
      </trkpt>
      <trkpt lat="46.13719" lon="5.682">
        <ele>986.6</ele>
        <time>2021-08-20T08:40:40Z</time>
      </trkpt>
      <trkpt lat="46.1372" lon="5.68201">
        <ele>986.7</ele>
        <time>2021-08-20T08:40:41Z</time>
      </trkpt>
      <trkpt lat="46.13722" lon="5.68204">
        <ele>986.9</ele>
        <time>2021-08-20T08:40:42Z</time>
      </trkpt>
      <trkpt lat="46.13724" lon="5.68208">
        <ele>987.2</ele>
        <time>2021-08-20T08:40:44Z</time>
      </trkpt>
      <trkpt lat="46.13725" lon="5.68212">
        <ele>987.4</ele>
        <time>2021-08-20T08:40:45Z</time>
      </trkpt>
      <trkpt lat="46.13725" lon="5.68213">
        <ele>987.5</ele>
        <time>2021-08-20T08:40:46Z</time>
      </trkpt>
      <trkpt lat="46.13723" lon="5.68217">
        <ele>987.7</ele>
        <time>2021-08-20T08:40:47Z</time>
      </trkpt>
      <trkpt lat="46.13723" lon="5.68218">
        <ele>987.7</ele>
        <time>2021-08-20T08:40:48Z</time>
      </trkpt>
      <trkpt lat="46.13718" lon="5.68228">
        <ele>988.3</ele>
        <time>2021-08-20T08:40:49Z</time>
      </trkpt>
      <trkpt lat="46.13714" lon="5.68235">
        <ele>988.8</ele>
        <time>2021-08-20T08:40:51Z</time>
      </trkpt>
      <trkpt lat="46.13711" lon="5.6824">
        <ele>989.1</ele>
        <time>2021-08-20T08:40:52Z</time>
      </trkpt>
      <trkpt lat="46.13711" lon="5.68243">
        <ele>989.2</ele>
        <time>2021-08-20T08:40:53Z</time>
      </trkpt>
      <trkpt lat="46.13711" lon="5.68245">
        <ele>989.3</ele>
        <time>2021-08-20T08:40:55Z</time>
      </trkpt>
      <trkpt lat="46.13711" lon="5.68246">
        <ele>989.4</ele>
        <time>2021-08-20T08:40:56Z</time>
      </trkpt>
      <trkpt lat="46.13712" lon="5.68247">
        <ele>989.4</ele>
        <time>2021-08-20T08:40:57Z</time>
      </trkpt>
      <trkpt lat="46.13712" lon="5.68248">
        <ele>989.5</ele>
        <time>2021-08-20T08:40:58Z</time>
      </trkpt>
      <trkpt lat="46.13713" lon="5.68249">
        <ele>989.6</ele>
        <time>2021-08-20T08:40:59Z</time>
      </trkpt>
      <trkpt lat="46.13746" lon="5.68408">
        <ele>995.3</ele>
        <time>2021-08-20T08:42:48Z</time>
      </trkpt>
      <trkpt lat="46.13742" lon="5.68411">
        <ele>995.1</ele>
        <time>2021-08-20T08:42:50Z</time>
      </trkpt>
      <trkpt lat="46.13737" lon="5.68413">
        <ele>994.8</ele>
        <time>2021-08-20T08:42:51Z</time>
      </trkpt>
      <trkpt lat="46.13731" lon="5.68413">
        <ele>994.5</ele>
        <time>2021-08-20T08:42:53Z</time>
      </trkpt>
      <trkpt lat="46.13724" lon="5.68413">
        <ele>994.2</ele>
        <time>2021-08-20T08:42:55Z</time>
      </trkpt>
      <trkpt lat="46.13719" lon="5.68414">
        <ele>993.9</ele>
        <time>2021-08-20T08:42:56Z</time>
      </trkpt>
      <trkpt lat="46.13713" lon="5.68415">
        <ele>993.6</ele>
        <time>2021-08-20T08:42:57Z</time>
      </trkpt>
      <trkpt lat="46.13709" lon="5.68415">
        <ele>993.3</ele>
        <time>2021-08-20T08:42:58Z</time>
      </trkpt>
      <trkpt lat="46.13704" lon="5.68415">
        <ele>993.1</ele>
        <time>2021-08-20T08:43:00Z</time>
      </trkpt>
      <trkpt lat="46.13701" lon="5.68413">
        <ele>992.9</ele>
        <time>2021-08-20T08:43:01Z</time>
      </trkpt>
      <trkpt lat="46.13693" lon="5.68411">
        <ele>992.6</ele>
        <time>2021-08-20T08:43:03Z</time>
      </trkpt>
      <trkpt lat="46.13689" lon="5.68409">
        <ele>992.4</ele>
        <time>2021-08-20T08:43:04Z</time>
      </trkpt>
      <trkpt lat="46.13685" lon="5.68406">
        <ele>992.2</ele>
        <time>2021-08-20T08:43:05Z</time>
      </trkpt>
      <trkpt lat="46.13681" lon="5.68402">
        <ele>992</ele>
        <time>2021-08-20T08:43:06Z</time>
      </trkpt>
      <trkpt lat="46.13677" lon="5.68396">
        <ele>991.7</ele>
        <time>2021-08-20T08:43:07Z</time>
      </trkpt>
      <trkpt lat="46.13672" lon="5.6839">
        <ele>991.3</ele>
        <time>2021-08-20T08:43:09Z</time>
      </trkpt>
      <trkpt lat="46.13665" lon="5.68388">
        <ele>990.9</ele>
        <time>2021-08-20T08:43:10Z</time>
      </trkpt>
      <trkpt lat="46.13654" lon="5.6838">
        <ele>990.2</ele>
        <time>2021-08-20T08:43:12Z</time>
      </trkpt>
      <trkpt lat="46.13642" lon="5.68372">
        <ele>989.6</ele>
        <time>2021-08-20T08:43:14Z</time>
      </trkpt>
      <trkpt lat="46.13633" lon="5.68365">
        <ele>989.1</ele>
        <time>2021-08-20T08:43:16Z</time>
      </trkpt>
      <trkpt lat="46.13627" lon="5.68361">
        <ele>988.8</ele>
        <time>2021-08-20T08:43:17Z</time>
      </trkpt>
      <trkpt lat="46.13623" lon="5.68358">
        <ele>988.6</ele>
        <time>2021-08-20T08:43:19Z</time>
      </trkpt>
      <trkpt lat="46.1362" lon="5.68355">
        <ele>988.4</ele>
        <time>2021-08-20T08:43:20Z</time>
      </trkpt>
      <trkpt lat="46.13616" lon="5.68352">
        <ele>988.2</ele>
        <time>2021-08-20T08:43:21Z</time>
      </trkpt>
      <trkpt lat="46.13613" lon="5.68351">
        <ele>988</ele>
        <time>2021-08-20T08:43:23Z</time>
      </trkpt>
      <trkpt lat="46.13611" lon="5.68349">
        <ele>987.9</ele>
        <time>2021-08-20T08:43:24Z</time>
      </trkpt>
      <trkpt lat="46.13609" lon="5.68348">
        <ele>987.8</ele>
        <time>2021-08-20T08:43:25Z</time>
      </trkpt>
      <trkpt lat="46.13604" lon="5.68343">
        <ele>987.5</ele>
        <time>2021-08-20T08:43:27Z</time>
      </trkpt>
      <trkpt lat="46.136" lon="5.68338">
        <ele>987.2</ele>
        <time>2021-08-20T08:43:29Z</time>
      </trkpt>
      <trkpt lat="46.13595" lon="5.68332">
        <ele>986.9</ele>
        <time>2021-08-20T08:43:31Z</time>
      </trkpt>
      <trkpt lat="46.13591" lon="5.68327">
        <ele>986.6</ele>
        <time>2021-08-20T08:43:32Z</time>
      </trkpt>
      <trkpt lat="46.13587" lon="5.68322">
        <ele>986.4</ele>
        <time>2021-08-20T08:43:34Z</time>
      </trkpt>
      <trkpt lat="46.13583" lon="5.68317">
        <ele>986</ele>
        <time>2021-08-20T08:43:36Z</time>
      </trkpt>
      <trkpt lat="46.13579" lon="5.68311">
        <ele>985.8</ele>
        <time>2021-08-20T08:45:21Z</time>
      </trkpt>
      <trkpt lat="46.13575" lon="5.68306">
        <ele>985.6</ele>
        <time>2021-08-20T08:45:22Z</time>
      </trkpt>
      <trkpt lat="46.13567" lon="5.68303">
        <ele>985.3</ele>
        <time>2021-08-20T08:45:23Z</time>
      </trkpt>
      <trkpt lat="46.13559" lon="5.68298">
        <ele>985</ele>
        <time>2021-08-20T08:45:25Z</time>
      </trkpt>
      <trkpt lat="46.13551" lon="5.68294">
        <ele>984.7</ele>
        <time>2021-08-20T08:45:26Z</time>
      </trkpt>
      <trkpt lat="46.13547" lon="5.68291">
        <ele>984.5</ele>
        <time>2021-08-20T08:45:27Z</time>
      </trkpt>
      <trkpt lat="46.13542" lon="5.68288">
        <ele>984.3</ele>
        <time>2021-08-20T08:45:28Z</time>
      </trkpt>
      <trkpt lat="46.13536" lon="5.68286">
        <ele>984.1</ele>
        <time>2021-08-20T08:45:30Z</time>
      </trkpt>
      <trkpt lat="46.13528" lon="5.68287">
        <ele>983.8</ele>
        <time>2021-08-20T08:45:31Z</time>
      </trkpt>
      <trkpt lat="46.13524" lon="5.68287">
        <ele>983.6</ele>
        <time>2021-08-20T08:45:33Z</time>
      </trkpt>
      <trkpt lat="46.13519" lon="5.68285">
        <ele>983.3</ele>
        <time>2021-08-20T08:45:34Z</time>
      </trkpt>
      <trkpt lat="46.13516" lon="5.68283">
        <ele>983.2</ele>
        <time>2021-08-20T08:45:35Z</time>
      </trkpt>
      <trkpt lat="46.13514" lon="5.6828">
        <ele>983.1</ele>
        <time>2021-08-20T08:45:36Z</time>
      </trkpt>
      <trkpt lat="46.1351" lon="5.68273">
        <ele>982.8</ele>
        <time>2021-08-20T08:45:37Z</time>
      </trkpt>
      <trkpt lat="46.13509" lon="5.68262">
        <ele>982.4</ele>
        <time>2021-08-20T08:45:39Z</time>
      </trkpt>
      <trkpt lat="46.13507" lon="5.68255">
        <ele>982.2</ele>
        <time>2021-08-20T08:45:40Z</time>
      </trkpt>
      <trkpt lat="46.13505" lon="5.68249">
        <ele>982</ele>
        <time>2021-08-20T08:45:41Z</time>
      </trkpt>
      <trkpt lat="46.13499" lon="5.68239">
        <ele>981.6</ele>
        <time>2021-08-20T08:45:43Z</time>
      </trkpt>
      <trkpt lat="46.13495" lon="5.68232">
        <ele>981.3</ele>
        <time>2021-08-20T08:45:44Z</time>
      </trkpt>
      <trkpt lat="46.13488" lon="5.68221">
        <ele>980.9</ele>
        <time>2021-08-20T08:45:46Z</time>
      </trkpt>
      <trkpt lat="46.13485" lon="5.6822">
        <ele>980.8</ele>
        <time>2021-08-20T08:45:47Z</time>
      </trkpt>
      <trkpt lat="46.13481" lon="5.68215">
        <ele>980.6</ele>
        <time>2021-08-20T08:45:48Z</time>
      </trkpt>
      <trkpt lat="46.13477" lon="5.68211">
        <ele>980.4</ele>
        <time>2021-08-20T08:45:49Z</time>
      </trkpt>
      <trkpt lat="46.13474" lon="5.68207">
        <ele>980.2</ele>
        <time>2021-08-20T08:45:50Z</time>
      </trkpt>
      <trkpt lat="46.1347" lon="5.68201">
        <ele>980</ele>
        <time>2021-08-20T08:45:51Z</time>
      </trkpt>
      <trkpt lat="46.13466" lon="5.68193">
        <ele>979.8</ele>
        <time>2021-08-20T08:45:53Z</time>
      </trkpt>
      <trkpt lat="46.13459" lon="5.68179">
        <ele>979.4</ele>
        <time>2021-08-20T08:45:55Z</time>
      </trkpt>
      <trkpt lat="46.13455" lon="5.68171">
        <ele>979.1</ele>
        <time>2021-08-20T08:45:57Z</time>
      </trkpt>
      <trkpt lat="46.13452" lon="5.68167">
        <ele>979</ele>
        <time>2021-08-20T08:45:58Z</time>
      </trkpt>
      <trkpt lat="46.13449" lon="5.68162">
        <ele>978.7</ele>
        <time>2021-08-20T08:45:59Z</time>
      </trkpt>
      <trkpt lat="46.13445" lon="5.68158">
        <ele>978.5</ele>
        <time>2021-08-20T08:46:01Z</time>
      </trkpt>
      <trkpt lat="46.13441" lon="5.68157">
        <ele>978.4</ele>
        <time>2021-08-20T08:46:02Z</time>
      </trkpt>
      <trkpt lat="46.13438" lon="5.68157">
        <ele>978.2</ele>
        <time>2021-08-20T08:46:03Z</time>
      </trkpt>
      <trkpt lat="46.13437" lon="5.68157">
        <ele>978.2</ele>
        <time>2021-08-20T08:46:04Z</time>
      </trkpt>
      <trkpt lat="46.13434" lon="5.68155">
        <ele>978</ele>
        <time>2021-08-20T08:46:05Z</time>
      </trkpt>
      <trkpt lat="46.13427" lon="5.68152">
        <ele>977.7</ele>
        <time>2021-08-20T08:46:07Z</time>
      </trkpt>
      <trkpt lat="46.1342" lon="5.68147">
        <ele>977.3</ele>
        <time>2021-08-20T08:46:08Z</time>
      </trkpt>
      <trkpt lat="46.1341" lon="5.68137">
        <ele>976.8</ele>
        <time>2021-08-20T08:46:10Z</time>
      </trkpt>
      <trkpt lat="46.13405" lon="5.68133">
        <ele>976.6</ele>
        <time>2021-08-20T08:46:11Z</time>
      </trkpt>
      <trkpt lat="46.13402" lon="5.68129">
        <ele>976.5</ele>
        <time>2021-08-20T08:46:12Z</time>
      </trkpt>
      <trkpt lat="46.13401" lon="5.68127">
        <ele>976.4</ele>
        <time>2021-08-20T08:46:14Z</time>
      </trkpt>
      <trkpt lat="46.13398" lon="5.68125">
        <ele>976.3</ele>
        <time>2021-08-20T08:46:15Z</time>
      </trkpt>
      <trkpt lat="46.13394" lon="5.68122">
        <ele>976.1</ele>
        <time>2021-08-20T08:46:16Z</time>
      </trkpt>
      <trkpt lat="46.13389" lon="5.68118">
        <ele>975.9</ele>
        <time>2021-08-20T08:46:17Z</time>
      </trkpt>
      <trkpt lat="46.13385" lon="5.68116">
        <ele>975.7</ele>
        <time>2021-08-20T08:46:19Z</time>
      </trkpt>
      <trkpt lat="46.1338" lon="5.68112">
        <ele>975.4</ele>
        <time>2021-08-20T08:46:20Z</time>
      </trkpt>
      <trkpt lat="46.13375" lon="5.68108">
        <ele>975.2</ele>
        <time>2021-08-20T08:46:22Z</time>
      </trkpt>
      <trkpt lat="46.13374" lon="5.68104">
        <ele>975.1</ele>
        <time>2021-08-20T08:46:23Z</time>
      </trkpt>
      <trkpt lat="46.13373" lon="5.68103">
        <ele>975</ele>
        <time>2021-08-20T08:46:24Z</time>
      </trkpt>
      <trkpt lat="46.13369" lon="5.68101">
        <ele>974.8</ele>
        <time>2021-08-20T08:46:25Z</time>
      </trkpt>
      <trkpt lat="46.13363" lon="5.68101">
        <ele>974.5</ele>
        <time>2021-08-20T08:46:27Z</time>
      </trkpt>
      <trkpt lat="46.1336" lon="5.681">
        <ele>974.4</ele>
        <time>2021-08-20T08:46:28Z</time>
      </trkpt>
      <trkpt lat="46.13356" lon="5.68098">
        <ele>974.2</ele>
        <time>2021-08-20T08:46:29Z</time>
      </trkpt>
      <trkpt lat="46.13355" lon="5.68098">
        <ele>974.1</ele>
        <time>2021-08-20T08:46:30Z</time>
      </trkpt>
      <trkpt lat="46.13218" lon="5.67972">
        <ele>977</ele>
        <time>2021-08-20T08:47:20Z</time>
      </trkpt>
      <trkpt lat="46.13216" lon="5.67968">
        <ele>977.2</ele>
        <time>2021-08-20T08:47:21Z</time>
      </trkpt>
      <trkpt lat="46.13215" lon="5.67966">
        <ele>977.3</ele>
        <time>2021-08-20T08:47:23Z</time>
      </trkpt>
      <trkpt lat="46.13214" lon="5.67965">
        <ele>977.3</ele>
        <time>2021-08-20T08:47:24Z</time>
      </trkpt>
      <trkpt lat="46.13214" lon="5.67965">
        <ele>977.3</ele>
        <time>2021-08-20T08:47:25Z</time>
      </trkpt>
      <trkpt lat="46.13211" lon="5.67963">
        <ele>977.5</ele>
        <time>2021-08-20T08:47:26Z</time>
      </trkpt>
      <trkpt lat="46.13208" lon="5.67962">
        <ele>977.6</ele>
        <time>2021-08-20T08:47:27Z</time>
      </trkpt>
      <trkpt lat="46.13206" lon="5.67962">
        <ele>977.7</ele>
        <time>2021-08-20T08:47:28Z</time>
      </trkpt>
      <trkpt lat="46.13205" lon="5.67961">
        <ele>977.7</ele>
        <time>2021-08-20T08:47:29Z</time>
      </trkpt>
      <trkpt lat="46.132" lon="5.67959">
        <ele>977.9</ele>
        <time>2021-08-20T08:47:31Z</time>
      </trkpt>
      <trkpt lat="46.13198" lon="5.67958">
        <ele>978</ele>
        <time>2021-08-20T08:47:32Z</time>
      </trkpt>
      <trkpt lat="46.13191" lon="5.67953">
        <ele>978.4</ele>
        <time>2021-08-20T08:47:33Z</time>
      </trkpt>
      <trkpt lat="46.13188" lon="5.6795">
        <ele>978.5</ele>
        <time>2021-08-20T08:47:35Z</time>
      </trkpt>
      <trkpt lat="46.13184" lon="5.67947">
        <ele>978.7</ele>
        <time>2021-08-20T08:47:36Z</time>
      </trkpt>
      <trkpt lat="46.13181" lon="5.67946">
        <ele>978.8</ele>
        <time>2021-08-20T08:47:37Z</time>
      </trkpt>
      <trkpt lat="46.13177" lon="5.67944">
        <ele>979.1</ele>
        <time>2021-08-20T08:47:38Z</time>
      </trkpt>
      <trkpt lat="46.13173" lon="5.67944">
        <ele>979.2</ele>
        <time>2021-08-20T08:47:39Z</time>
      </trkpt>
      <trkpt lat="46.13169" lon="5.67945">
        <ele>979.4</ele>
        <time>2021-08-20T08:47:41Z</time>
      </trkpt>
      <trkpt lat="46.13166" lon="5.67945">
        <ele>979.5</ele>
        <time>2021-08-20T08:47:42Z</time>
      </trkpt>
      <trkpt lat="46.13164" lon="5.67946">
        <ele>979.6</ele>
        <time>2021-08-20T08:47:43Z</time>
      </trkpt>
      <trkpt lat="46.13163" lon="5.67946">
        <ele>979.6</ele>
        <time>2021-08-20T08:47:44Z</time>
      </trkpt>
      <trkpt lat="46.13162" lon="5.67946">
        <ele>979.7</ele>
        <time>2021-08-20T08:47:46Z</time>
      </trkpt>
      <trkpt lat="46.13161" lon="5.67945">
        <ele>979.7</ele>
        <time>2021-08-20T08:47:47Z</time>
      </trkpt>
      <trkpt lat="46.13162" lon="5.67946">
        <ele>979.8</ele>
        <time>2021-08-20T08:47:48Z</time>
      </trkpt>
      <trkpt lat="46.13163" lon="5.67947">
        <ele>979.8</ele>
        <time>2021-08-20T08:47:49Z</time>
      </trkpt>
      <trkpt lat="46.13165" lon="5.67949">
        <ele>980</ele>
        <time>2021-08-20T08:47:51Z</time>
      </trkpt>
      <trkpt lat="46.13166" lon="5.67949">
        <ele>980</ele>
        <time>2021-08-20T08:47:52Z</time>
      </trkpt>
      <trkpt lat="46.13166" lon="5.67949">
        <ele>980</ele>
        <time>2021-08-20T08:47:53Z</time>
      </trkpt>
      <trkpt lat="46.13162" lon="5.67949">
        <ele>980.2</ele>
        <time>2021-08-20T08:47:55Z</time>
      </trkpt>
      <trkpt lat="46.13158" lon="5.6795">
        <ele>980.3</ele>
        <time>2021-08-20T08:47:56Z</time>
      </trkpt>
      <trkpt lat="46.13155" lon="5.6795">
        <ele>980.5</ele>
        <time>2021-08-20T08:47:57Z</time>
      </trkpt>
      <trkpt lat="46.13152" lon="5.6795">
        <ele>980.6</ele>
        <time>2021-08-20T08:47:59Z</time>
      </trkpt>
      <trkpt lat="46.13151" lon="5.67949">
        <ele>980.6</ele>
        <time>2021-08-20T08:48:00Z</time>
      </trkpt>
      <trkpt lat="46.13148" lon="5.67948">
        <ele>980.8</ele>
        <time>2021-08-20T08:48:01Z</time>
      </trkpt>
      <trkpt lat="46.13145" lon="5.67946">
        <ele>980.9</ele>
        <time>2021-08-20T08:48:03Z</time>
      </trkpt>
      <trkpt lat="46.13143" lon="5.67945">
        <ele>981</ele>
        <time>2021-08-20T08:48:04Z</time>
      </trkpt>
      <trkpt lat="46.13142" lon="5.67944">
        <ele>981.1</ele>
        <time>2021-08-20T08:48:05Z</time>
      </trkpt>
      <trkpt lat="46.13138" lon="5.67941">
        <ele>981.2</ele>
        <time>2021-08-20T08:48:07Z</time>
      </trkpt>
      <trkpt lat="46.13133" lon="5.67934">
        <ele>981.5</ele>
        <time>2021-08-20T08:48:09Z</time>
      </trkpt>
      <trkpt lat="46.1313" lon="5.67928">
        <ele>981.8</ele>
        <time>2021-08-20T08:48:10Z</time>
      </trkpt>
      <trkpt lat="46.13129" lon="5.67924">
        <ele>981.9</ele>
        <time>2021-08-20T08:48:11Z</time>
      </trkpt>
      <trkpt lat="46.13128" lon="5.67923">
        <ele>981.9</ele>
        <time>2021-08-20T08:48:12Z</time>
      </trkpt>
      <trkpt lat="46.13126" lon="5.6792">
        <ele>982</ele>
        <time>2021-08-20T08:48:14Z</time>
      </trkpt>
      <trkpt lat="46.13126" lon="5.67919">
        <ele>982.1</ele>
        <time>2021-08-20T08:48:15Z</time>
      </trkpt>
      <trkpt lat="46.13125" lon="5.67918">
        <ele>982.1</ele>
        <time>2021-08-20T08:48:16Z</time>
      </trkpt>
      <trkpt lat="46.13124" lon="5.67916">
        <ele>982.2</ele>
        <time>2021-08-20T08:48:17Z</time>
      </trkpt>
      <trkpt lat="46.13121" lon="5.67912">
        <ele>982.4</ele>
        <time>2021-08-20T08:48:19Z</time>
      </trkpt>
      <trkpt lat="46.1312" lon="5.6791">
        <ele>982.4</ele>
        <time>2021-08-20T08:48:21Z</time>
      </trkpt>
      <trkpt lat="46.13119" lon="5.6791">
        <ele>982.5</ele>
        <time>2021-08-20T08:48:22Z</time>
      </trkpt>
      <trkpt lat="46.13119" lon="5.67909">
        <ele>982.5</ele>
        <time>2021-08-20T08:48:23Z</time>
      </trkpt>
      <trkpt lat="46.13116" lon="5.67908">
        <ele>982.6</ele>
        <time>2021-08-20T08:48:24Z</time>
      </trkpt>
      <trkpt lat="46.13115" lon="5.67908">
        <ele>982.6</ele>
        <time>2021-08-20T08:48:25Z</time>
      </trkpt>
      <trkpt lat="46.13114" lon="5.67908">
        <ele>982.7</ele>
        <time>2021-08-20T08:48:26Z</time>
      </trkpt>
      <trkpt lat="46.13114" lon="5.67908">
        <ele>982.7</ele>
        <time>2021-08-20T08:48:27Z</time>
      </trkpt>
      <trkpt lat="46.13112" lon="5.67908">
        <ele>982.7</ele>
        <time>2021-08-20T08:48:28Z</time>
      </trkpt>
      <trkpt lat="46.13111" lon="5.67908">
        <ele>982.8</ele>
        <time>2021-08-20T08:48:29Z</time>
      </trkpt>
      <trkpt lat="46.13108" lon="5.67909">
        <ele>982.9</ele>
        <time>2021-08-20T08:48:31Z</time>
      </trkpt>
      <trkpt lat="46.13105" lon="5.67909">
        <ele>983.1</ele>
        <time>2021-08-20T08:48:32Z</time>
      </trkpt>
      <trkpt lat="46.13103" lon="5.6791">
        <ele>983.2</ele>
        <time>2021-08-20T08:48:33Z</time>
      </trkpt>
      <trkpt lat="46.13097" lon="5.6791">
        <ele>983.4</ele>
        <time>2021-08-20T08:48:35Z</time>
      </trkpt>
      <trkpt lat="46.13095" lon="5.6791">
        <ele>983.5</ele>
        <time>2021-08-20T08:48:36Z</time>
      </trkpt>
      <trkpt lat="46.13092" lon="5.6791">
        <ele>983.6</ele>
        <time>2021-08-20T08:48:38Z</time>
      </trkpt>
      <trkpt lat="46.13091" lon="5.6791">
        <ele>983.6</ele>
        <time>2021-08-20T08:48:39Z</time>
      </trkpt>
      <trkpt lat="46.13091" lon="5.6791">
        <ele>983.6</ele>
        <time>2021-08-20T08:48:40Z</time>
      </trkpt>
      <trkpt lat="46.13091" lon="5.67909">
        <ele>983.6</ele>
        <time>2021-08-20T08:48:41Z</time>
      </trkpt>
      <trkpt lat="46.13091" lon="5.67909">
        <ele>983.7</ele>
        <time>2021-08-20T08:48:42Z</time>
      </trkpt>
      <trkpt lat="46.13091" lon="5.67909">
        <ele>983.7</ele>
        <time>2021-08-20T08:48:43Z</time>
      </trkpt>
      <trkpt lat="46.13014" lon="5.67888">
        <ele>986.6</ele>
        <time>2021-08-20T08:49:25Z</time>
      </trkpt>
      <trkpt lat="46.13007" lon="5.67887">
        <ele>986.9</ele>
        <time>2021-08-20T08:49:27Z</time>
      </trkpt>
      <trkpt lat="46.13005" lon="5.67885">
        <ele>987</ele>
        <time>2021-08-20T08:49:28Z</time>
      </trkpt>
      <trkpt lat="46.13002" lon="5.67881">
        <ele>987.2</ele>
        <time>2021-08-20T08:49:29Z</time>
      </trkpt>
      <trkpt lat="46.12999" lon="5.67877">
        <ele>987.3</ele>
        <time>2021-08-20T08:49:31Z</time>
      </trkpt>
      <trkpt lat="46.12997" lon="5.67874">
        <ele>987.4</ele>
        <time>2021-08-20T08:49:32Z</time>
      </trkpt>
      <trkpt lat="46.12995" lon="5.67871">
        <ele>987.6</ele>
        <time>2021-08-20T08:49:34Z</time>
      </trkpt>
      <trkpt lat="46.12992" lon="5.6787">
        <ele>987.7</ele>
        <time>2021-08-20T08:49:35Z</time>
      </trkpt>
      <trkpt lat="46.12989" lon="5.67868">
        <ele>987.8</ele>
        <time>2021-08-20T08:49:37Z</time>
      </trkpt>
      <trkpt lat="46.12988" lon="5.67863">
        <ele>987.9</ele>
        <time>2021-08-20T08:49:38Z</time>
      </trkpt>
      <trkpt lat="46.12987" lon="5.67861">
        <ele>988</ele>
        <time>2021-08-20T08:49:39Z</time>
      </trkpt>
      <trkpt lat="46.12987" lon="5.6786">
        <ele>988</ele>
        <time>2021-08-20T08:49:40Z</time>
      </trkpt>
      <trkpt lat="46.12987" lon="5.6786">
        <ele>988</ele>
        <time>2021-08-20T08:49:41Z</time>
      </trkpt>
      <trkpt lat="46.12987" lon="5.67859">
        <ele>988</ele>
        <time>2021-08-20T08:49:42Z</time>
      </trkpt>
      <trkpt lat="46.12987" lon="5.67859">
        <ele>988</ele>
        <time>2021-08-20T08:49:43Z</time>
      </trkpt>
      <trkpt lat="46.12986" lon="5.67859">
        <ele>988</ele>
        <time>2021-08-20T08:49:44Z</time>
      </trkpt>
      <trkpt lat="46.12985" lon="5.67858">
        <ele>988.1</ele>
        <time>2021-08-20T08:49:45Z</time>
      </trkpt>
      <trkpt lat="46.12979" lon="5.6785">
        <ele>988.4</ele>
        <time>2021-08-20T08:49:49Z</time>
      </trkpt>
      <trkpt lat="46.12976" lon="5.67847">
        <ele>988.6</ele>
        <time>2021-08-20T08:49:51Z</time>
      </trkpt>
      <trkpt lat="46.12974" lon="5.67845">
        <ele>988.7</ele>
        <time>2021-08-20T08:49:52Z</time>
      </trkpt>
      <trkpt lat="46.12973" lon="5.67844">
        <ele>988.7</ele>
        <time>2021-08-20T08:49:53Z</time>
      </trkpt>
      <trkpt lat="46.12971" lon="5.67844">
        <ele>988.8</ele>
        <time>2021-08-20T08:49:55Z</time>
      </trkpt>
      <trkpt lat="46.1297" lon="5.67844">
        <ele>988.9</ele>
        <time>2021-08-20T08:49:56Z</time>
      </trkpt>
      <trkpt lat="46.12968" lon="5.67844">
        <ele>988.9</ele>
        <time>2021-08-20T08:49:57Z</time>
      </trkpt>
      <trkpt lat="46.12967" lon="5.67844">
        <ele>989</ele>
        <time>2021-08-20T08:49:58Z</time>
      </trkpt>
      <trkpt lat="46.12965" lon="5.67845">
        <ele>989.1</ele>
        <time>2021-08-20T08:49:59Z</time>
      </trkpt>
      <trkpt lat="46.12964" lon="5.67846">
        <ele>989.1</ele>
        <time>2021-08-20T08:50:01Z</time>
      </trkpt>
      <trkpt lat="46.12875" lon="5.67866">
        <ele>994</ele>
        <time>2021-08-20T08:51:45Z</time>
      </trkpt>
      <trkpt lat="46.12877" lon="5.67866">
        <ele>994.1</ele>
        <time>2021-08-20T08:51:46Z</time>
      </trkpt>
      <trkpt lat="46.12878" lon="5.67866">
        <ele>994.1</ele>
        <time>2021-08-20T08:51:48Z</time>
      </trkpt>
      <trkpt lat="46.12878" lon="5.67866">
        <ele>994.2</ele>
        <time>2021-08-20T08:51:49Z</time>
      </trkpt>
      <trkpt lat="46.12879" lon="5.67867">
        <ele>994.2</ele>
        <time>2021-08-20T08:51:50Z</time>
      </trkpt>
      <trkpt lat="46.12878" lon="5.67868">
        <ele>994.3</ele>
        <time>2021-08-20T08:51:52Z</time>
      </trkpt>
      <trkpt lat="46.12877" lon="5.67868">
        <ele>994.3</ele>
        <time>2021-08-20T08:51:53Z</time>
      </trkpt>
      <trkpt lat="46.12876" lon="5.67869">
        <ele>994.4</ele>
        <time>2021-08-20T08:51:54Z</time>
      </trkpt>
      <trkpt lat="46.12875" lon="5.67869">
        <ele>994.4</ele>
        <time>2021-08-20T08:51:55Z</time>
      </trkpt>
      <trkpt lat="46.12874" lon="5.67869">
        <ele>994.5</ele>
        <time>2021-08-20T08:51:56Z</time>
      </trkpt>
      <trkpt lat="46.12873" lon="5.67869">
        <ele>994.6</ele>
        <time>2021-08-20T08:51:57Z</time>
      </trkpt>
      <trkpt lat="46.12871" lon="5.6787">
        <ele>994.7</ele>
        <time>2021-08-20T08:51:58Z</time>
      </trkpt>
      <trkpt lat="46.1287" lon="5.6787">
        <ele>994.8</ele>
        <time>2021-08-20T08:51:59Z</time>
      </trkpt>
      <trkpt lat="46.1287" lon="5.6787">
        <ele>994.8</ele>
        <time>2021-08-20T08:52:01Z</time>
      </trkpt>
      <trkpt lat="46.12869" lon="5.6787">
        <ele>994.8</ele>
        <time>2021-08-20T08:52:02Z</time>
      </trkpt>
      <trkpt lat="46.12865" lon="5.67869">
        <ele>995</ele>
        <time>2021-08-20T08:52:04Z</time>
      </trkpt>
      <trkpt lat="46.12862" lon="5.67867">
        <ele>995.2</ele>
        <time>2021-08-20T08:52:05Z</time>
      </trkpt>
      <trkpt lat="46.12856" lon="5.67867">
        <ele>995.6</ele>
        <time>2021-08-20T08:52:07Z</time>
      </trkpt>
      <trkpt lat="46.12851" lon="5.6787">
        <ele>996.7</ele>
        <time>2021-08-20T08:52:08Z</time>
      </trkpt>
      <trkpt lat="46.12848" lon="5.67873">
        <ele>997</ele>
        <time>2021-08-20T08:52:09Z</time>
      </trkpt>
      <trkpt lat="46.12847" lon="5.67873">
        <ele>997.6</ele>
        <time>2021-08-20T08:52:11Z</time>
      </trkpt>
      <trkpt lat="46.12845" lon="5.67874">
        <ele>997.8</ele>
        <time>2021-08-20T08:52:13Z</time>
      </trkpt>
      <trkpt lat="46.12841" lon="5.67875">
        <ele>998</ele>
        <time>2021-08-20T08:52:15Z</time>
      </trkpt>
      <trkpt lat="46.12839" lon="5.67902">
        <ele>1001.3</ele>
        <time>2021-08-20T08:53:01Z</time>
      </trkpt>
      <trkpt lat="46.12843" lon="5.67908">
        <ele>1001.4</ele>
        <time>2021-08-20T08:53:03Z</time>
      </trkpt>
      <trkpt lat="46.12845" lon="5.67911">
        <ele>1001.4</ele>
        <time>2021-08-20T08:53:04Z</time>
      </trkpt>
      <trkpt lat="46.12849" lon="5.67914">
        <ele>1001.5</ele>
        <time>2021-08-20T08:53:05Z</time>
      </trkpt>
      <trkpt lat="46.1285" lon="5.67914">
        <ele>1001.5</ele>
        <time>2021-08-20T08:53:07Z</time>
      </trkpt>
      <trkpt lat="46.12851" lon="5.67914">
        <ele>1001.5</ele>
        <time>2021-08-20T08:53:08Z</time>
      </trkpt>
      <trkpt lat="46.12852" lon="5.67915">
        <ele>1001.5</ele>
        <time>2021-08-20T08:53:10Z</time>
      </trkpt>
      <trkpt lat="46.12853" lon="5.67917">
        <ele>1001.6</ele>
        <time>2021-08-20T08:53:12Z</time>
      </trkpt>
      <trkpt lat="46.12853" lon="5.67918">
        <ele>1001.6</ele>
        <time>2021-08-20T08:53:13Z</time>
      </trkpt>
      <trkpt lat="46.12852" lon="5.67918">
        <ele>1001.6</ele>
        <time>2021-08-20T08:53:14Z</time>
      </trkpt>
      <trkpt lat="46.1304" lon="5.68019">
        <ele>1004.6</ele>
        <time>2021-08-20T08:55:01Z</time>
      </trkpt>
      <trkpt lat="46.13046" lon="5.68025">
        <ele>1004.7</ele>
        <time>2021-08-20T08:55:03Z</time>
      </trkpt>
      <trkpt lat="46.13051" lon="5.68031">
        <ele>1004.7</ele>
        <time>2021-08-20T08:55:04Z</time>
      </trkpt>
      <trkpt lat="46.13054" lon="5.68034">
        <ele>1004.8</ele>
        <time>2021-08-20T08:55:05Z</time>
      </trkpt>
      <trkpt lat="46.13059" lon="5.68039">
        <ele>1004.8</ele>
        <time>2021-08-20T08:55:06Z</time>
      </trkpt>
      <trkpt lat="46.13063" lon="5.68042">
        <ele>1004.8</ele>
        <time>2021-08-20T08:55:08Z</time>
      </trkpt>
      <trkpt lat="46.13064" lon="5.68042">
        <ele>1004.8</ele>
        <time>2021-08-20T08:55:09Z</time>
      </trkpt>
      <trkpt lat="46.13065" lon="5.68043">
        <ele>1004.8</ele>
        <time>2021-08-20T08:55:10Z</time>
      </trkpt>
      <trkpt lat="46.13068" lon="5.68043">
        <ele>1004.8</ele>
        <time>2021-08-20T08:55:12Z</time>
      </trkpt>
      <trkpt lat="46.13069" lon="5.68043">
        <ele>1004.8</ele>
        <time>2021-08-20T08:55:13Z</time>
      </trkpt>
      <trkpt lat="46.13133" lon="5.6809">
        <ele>1003.2</ele>
        <time>2021-08-20T08:55:37Z</time>
      </trkpt>
      <trkpt lat="46.13138" lon="5.68093">
        <ele>1003</ele>
        <time>2021-08-20T08:55:38Z</time>
      </trkpt>
      <trkpt lat="46.13143" lon="5.68095">
        <ele>1002.8</ele>
        <time>2021-08-20T08:55:39Z</time>
      </trkpt>
      <trkpt lat="46.1315" lon="5.68097">
        <ele>1002.6</ele>
        <time>2021-08-20T08:55:40Z</time>
      </trkpt>
      <trkpt lat="46.13158" lon="5.68101">
        <ele>1002.3</ele>
        <time>2021-08-20T08:55:42Z</time>
      </trkpt>
      <trkpt lat="46.13163" lon="5.68102">
        <ele>1002.1</ele>
        <time>2021-08-20T08:55:43Z</time>
      </trkpt>
      <trkpt lat="46.13165" lon="5.68104">
        <ele>1002</ele>
        <time>2021-08-20T08:55:44Z</time>
      </trkpt>
      <trkpt lat="46.1317" lon="5.68109">
        <ele>1001.8</ele>
        <time>2021-08-20T08:55:46Z</time>
      </trkpt>
      <trkpt lat="46.13172" lon="5.68111">
        <ele>1001.7</ele>
        <time>2021-08-20T08:55:47Z</time>
      </trkpt>
      <trkpt lat="46.13176" lon="5.68115">
        <ele>1001.6</ele>
        <time>2021-08-20T08:55:49Z</time>
      </trkpt>
      <trkpt lat="46.13187" lon="5.68123">
        <ele>1001.2</ele>
        <time>2021-08-20T08:55:50Z</time>
      </trkpt>
      <trkpt lat="46.13201" lon="5.68134">
        <ele>1000.6</ele>
        <time>2021-08-20T08:55:51Z</time>
      </trkpt>
      <trkpt lat="46.13208" lon="5.68138">
        <ele>1000.4</ele>
        <time>2021-08-20T08:55:52Z</time>
      </trkpt>
      <trkpt lat="46.13221" lon="5.68142">
        <ele>999.9</ele>
        <time>2021-08-20T08:55:54Z</time>
      </trkpt>
      <trkpt lat="46.13222" lon="5.68143">
        <ele>999.9</ele>
        <time>2021-08-20T08:55:55Z</time>
      </trkpt>
      <trkpt lat="46.13228" lon="5.68145">
        <ele>999.7</ele>
        <time>2021-08-20T08:55:57Z</time>
      </trkpt>
      <trkpt lat="46.13234" lon="5.68147">
        <ele>999.4</ele>
        <time>2021-08-20T08:55:58Z</time>
      </trkpt>
      <trkpt lat="46.13239" lon="5.68149">
        <ele>999.2</ele>
        <time>2021-08-20T08:55:59Z</time>
      </trkpt>
      <trkpt lat="46.13243" lon="5.68152">
        <ele>999</ele>
        <time>2021-08-20T08:56:00Z</time>
      </trkpt>
      <trkpt lat="46.13246" lon="5.68154">
        <ele>998.9</ele>
        <time>2021-08-20T08:56:02Z</time>
      </trkpt>
      <trkpt lat="46.13245" lon="5.68155">
        <ele>998.9</ele>
        <time>2021-08-20T08:56:03Z</time>
      </trkpt>
      <trkpt lat="46.13246" lon="5.68157">
        <ele>998.9</ele>
        <time>2021-08-20T08:56:04Z</time>
      </trkpt>
      <trkpt lat="46.13247" lon="5.68158">
        <ele>998.8</ele>
        <time>2021-08-20T08:56:05Z</time>
      </trkpt>
      <trkpt lat="46.1325" lon="5.68162">
        <ele>998.7</ele>
        <time>2021-08-20T08:56:07Z</time>
      </trkpt>
      <trkpt lat="46.13251" lon="5.68165">
        <ele>998.6</ele>
        <time>2021-08-20T08:56:08Z</time>
      </trkpt>
      <trkpt lat="46.13253" lon="5.68172">
        <ele>998.4</ele>
        <time>2021-08-20T08:56:09Z</time>
      </trkpt>
      <trkpt lat="46.13265" lon="5.68193">
        <ele>997.6</ele>
        <time>2021-08-20T08:56:11Z</time>
      </trkpt>
      <trkpt lat="46.13267" lon="5.682">
        <ele>997.4</ele>
        <time>2021-08-20T08:56:12Z</time>
      </trkpt>
      <trkpt lat="46.13269" lon="5.68204">
        <ele>997.3</ele>
        <time>2021-08-20T08:56:13Z</time>
      </trkpt>
      <trkpt lat="46.13271" lon="5.68211">
        <ele>997.1</ele>
        <time>2021-08-20T08:56:14Z</time>
      </trkpt>
      <trkpt lat="46.13272" lon="5.68215">
        <ele>997</ele>
        <time>2021-08-20T08:56:15Z</time>
      </trkpt>
      <trkpt lat="46.13274" lon="5.68222">
        <ele>996.8</ele>
        <time>2021-08-20T08:56:16Z</time>
      </trkpt>
      <trkpt lat="46.13276" lon="5.68229">
        <ele>996.6</ele>
        <time>2021-08-20T08:56:18Z</time>
      </trkpt>
      <trkpt lat="46.13279" lon="5.68237">
        <ele>996.3</ele>
        <time>2021-08-20T08:56:19Z</time>
      </trkpt>
      <trkpt lat="46.13281" lon="5.68243">
        <ele>996.1</ele>
        <time>2021-08-20T08:56:20Z</time>
      </trkpt>
      <trkpt lat="46.13284" lon="5.68248">
        <ele>996</ele>
        <time>2021-08-20T08:56:21Z</time>
      </trkpt>
      <trkpt lat="46.13288" lon="5.68253">
        <ele>995.7</ele>
        <time>2021-08-20T08:56:23Z</time>
      </trkpt>
      <trkpt lat="46.13293" lon="5.68262">
        <ele>995.4</ele>
        <time>2021-08-20T08:56:25Z</time>
      </trkpt>
      <trkpt lat="46.13297" lon="5.68267">
        <ele>995.3</ele>
        <time>2021-08-20T08:56:26Z</time>
      </trkpt>
      <trkpt lat="46.13301" lon="5.68273">
        <ele>995.1</ele>
        <time>2021-08-20T08:56:27Z</time>
      </trkpt>
      <trkpt lat="46.13304" lon="5.68278">
        <ele>995</ele>
        <time>2021-08-20T08:56:28Z</time>
      </trkpt>
      <trkpt lat="46.13309" lon="5.6829">
        <ele>994.9</ele>
        <time>2021-08-20T08:56:30Z</time>
      </trkpt>
      <trkpt lat="46.13311" lon="5.68295">
        <ele>994.8</ele>
        <time>2021-08-20T08:56:31Z</time>
      </trkpt>
      <trkpt lat="46.13311" lon="5.68301">
        <ele>994.8</ele>
        <time>2021-08-20T08:56:32Z</time>
      </trkpt>
      <trkpt lat="46.13312" lon="5.68306">
        <ele>994.8</ele>
        <time>2021-08-20T08:56:33Z</time>
      </trkpt>
      <trkpt lat="46.13316" lon="5.68316">
        <ele>994.7</ele>
        <time>2021-08-20T08:56:34Z</time>
      </trkpt>
      <trkpt lat="46.13318" lon="5.68331">
        <ele>994.6</ele>
        <time>2021-08-20T08:56:36Z</time>
      </trkpt>
      <trkpt lat="46.13319" lon="5.68338">
        <ele>994.6</ele>
        <time>2021-08-20T08:56:37Z</time>
      </trkpt>
      <trkpt lat="46.13318" lon="5.68344">
        <ele>994.5</ele>
        <time>2021-08-20T08:56:38Z</time>
      </trkpt>
      <trkpt lat="46.13317" lon="5.68349">
        <ele>994.5</ele>
        <time>2021-08-20T08:56:40Z</time>
      </trkpt>
      <trkpt lat="46.13318" lon="5.68355">
        <ele>994.5</ele>
        <time>2021-08-20T08:56:41Z</time>
      </trkpt>
      <trkpt lat="46.13319" lon="5.6836">
        <ele>994.4</ele>
        <time>2021-08-20T08:56:43Z</time>
      </trkpt>
      <trkpt lat="46.13323" lon="5.68368">
        <ele>994.4</ele>
        <time>2021-08-20T08:56:44Z</time>
      </trkpt>
      <trkpt lat="46.13325" lon="5.68377">
        <ele>994.3</ele>
        <time>2021-08-20T08:56:46Z</time>
      </trkpt>
      <trkpt lat="46.13323" lon="5.68384">
        <ele>994.3</ele>
        <time>2021-08-20T08:56:47Z</time>
      </trkpt>
      <trkpt lat="46.13321" lon="5.6839">
        <ele>994.3</ele>
        <time>2021-08-20T08:56:49Z</time>
      </trkpt>
      <trkpt lat="46.13318" lon="5.68394">
        <ele>994.3</ele>
        <time>2021-08-20T08:56:50Z</time>
      </trkpt>
      <trkpt lat="46.13313" lon="5.68398">
        <ele>994.3</ele>
        <time>2021-08-20T08:56:51Z</time>
      </trkpt>
      <trkpt lat="46.13312" lon="5.684">
        <ele>994.3</ele>
        <time>2021-08-20T08:56:52Z</time>
      </trkpt>
      <trkpt lat="46.13312" lon="5.68401">
        <ele>994.3</ele>
        <time>2021-08-20T08:56:54Z</time>
      </trkpt>
      <trkpt lat="46.13308" lon="5.68413">
        <ele>994.3</ele>
        <time>2021-08-20T08:56:56Z</time>
      </trkpt>
      <trkpt lat="46.13302" lon="5.68424">
        <ele>994.2</ele>
        <time>2021-08-20T08:56:58Z</time>
      </trkpt>
      <trkpt lat="46.13299" lon="5.68431">
        <ele>994.2</ele>
        <time>2021-08-20T08:56:59Z</time>
      </trkpt>
      <trkpt lat="46.13299" lon="5.68435">
        <ele>994.2</ele>
        <time>2021-08-20T08:57:00Z</time>
      </trkpt>
      <trkpt lat="46.13297" lon="5.68456">
        <ele>994.2</ele>
        <time>2021-08-20T08:57:01Z</time>
      </trkpt>
      <trkpt lat="46.13296" lon="5.68461">
        <ele>994.2</ele>
        <time>2021-08-20T08:57:03Z</time>
      </trkpt>
      <trkpt lat="46.13296" lon="5.68465">
        <ele>994.2</ele>
        <time>2021-08-20T08:57:04Z</time>
      </trkpt>
      <trkpt lat="46.13297" lon="5.68468">
        <ele>994.2</ele>
        <time>2021-08-20T08:57:05Z</time>
      </trkpt>
      <trkpt lat="46.13299" lon="5.68473">
        <ele>994.2</ele>
        <time>2021-08-20T08:57:07Z</time>
      </trkpt>
      <trkpt lat="46.133" lon="5.68476">
        <ele>994.2</ele>
        <time>2021-08-20T08:57:08Z</time>
      </trkpt>
      <trkpt lat="46.13323" lon="5.68532">
        <ele>994.6</ele>
        <time>2021-08-20T08:57:23Z</time>
      </trkpt>
      <trkpt lat="46.13323" lon="5.68539">
        <ele>994.7</ele>
        <time>2021-08-20T08:57:25Z</time>
      </trkpt>
      <trkpt lat="46.13325" lon="5.68545">
        <ele>994.7</ele>
        <time>2021-08-20T08:57:26Z</time>
      </trkpt>
      <trkpt lat="46.13327" lon="5.68551">
        <ele>994.8</ele>
        <time>2021-08-20T08:57:27Z</time>
      </trkpt>
      <trkpt lat="46.1333" lon="5.68558">
        <ele>994.9</ele>
        <time>2021-08-20T08:57:28Z</time>
      </trkpt>
      <trkpt lat="46.13335" lon="5.68562">
        <ele>995</ele>
        <time>2021-08-20T08:57:30Z</time>
      </trkpt>
      <trkpt lat="46.13341" lon="5.68565">
        <ele>995</ele>
        <time>2021-08-20T08:57:31Z</time>
      </trkpt>
      <trkpt lat="46.1335" lon="5.68568">
        <ele>995.1</ele>
        <time>2021-08-20T08:57:32Z</time>
      </trkpt>
      <trkpt lat="46.13356" lon="5.6857">
        <ele>995.1</ele>
        <time>2021-08-20T08:57:33Z</time>
      </trkpt>
      <trkpt lat="46.13362" lon="5.68573">
        <ele>995.1</ele>
        <time>2021-08-20T08:57:35Z</time>
      </trkpt>
      <trkpt lat="46.13366" lon="5.68577">
        <ele>995.2</ele>
        <time>2021-08-20T08:57:36Z</time>
      </trkpt>
      <trkpt lat="46.13369" lon="5.68582">
        <ele>995.2</ele>
        <time>2021-08-20T08:57:38Z</time>
      </trkpt>
      <trkpt lat="46.13368" lon="5.68593">
        <ele>995.3</ele>
        <time>2021-08-20T08:57:39Z</time>
      </trkpt>
      <trkpt lat="46.13366" lon="5.686">
        <ele>995.3</ele>
        <time>2021-08-20T08:57:41Z</time>
      </trkpt>
      <trkpt lat="46.13365" lon="5.68604">
        <ele>995.5</ele>
        <time>2021-08-20T08:57:42Z</time>
      </trkpt>
      <trkpt lat="46.13363" lon="5.68609">
        <ele>995.8</ele>
        <time>2021-08-20T08:57:44Z</time>
      </trkpt>
      <trkpt lat="46.13363" lon="5.68611">
        <ele>995.9</ele>
        <time>2021-08-20T08:57:45Z</time>
      </trkpt>
      <trkpt lat="46.13362" lon="5.68613">
        <ele>996</ele>
        <time>2021-08-20T08:57:46Z</time>
      </trkpt>
      <trkpt lat="46.13363" lon="5.68641">
        <ele>997.2</ele>
        <time>2021-08-20T08:57:59Z</time>
      </trkpt>
      <trkpt lat="46.13365" lon="5.68645">
        <ele>997.4</ele>
        <time>2021-08-20T08:58:00Z</time>
      </trkpt>
      <trkpt lat="46.13368" lon="5.68648">
        <ele>997.6</ele>
        <time>2021-08-20T08:58:01Z</time>
      </trkpt>
      <trkpt lat="46.13371" lon="5.68651">
        <ele>997.7</ele>
        <time>2021-08-20T08:58:03Z</time>
      </trkpt>
      <trkpt lat="46.13371" lon="5.68652">
        <ele>997.7</ele>
        <time>2021-08-20T08:58:04Z</time>
      </trkpt>
      <trkpt lat="46.13371" lon="5.68655">
        <ele>997.8</ele>
        <time>2021-08-20T08:58:05Z</time>
      </trkpt>
      <trkpt lat="46.13372" lon="5.6866">
        <ele>997.8</ele>
        <time>2021-08-20T08:58:07Z</time>
      </trkpt>
      <trkpt lat="46.13372" lon="5.68661">
        <ele>997.8</ele>
        <time>2021-08-20T08:58:08Z</time>
      </trkpt>
      <trkpt lat="46.13374" lon="5.68665">
        <ele>997.9</ele>
        <time>2021-08-20T08:58:09Z</time>
      </trkpt>
      <trkpt lat="46.13375" lon="5.68669">
        <ele>997.9</ele>
        <time>2021-08-20T08:58:11Z</time>
      </trkpt>
      <trkpt lat="46.13376" lon="5.6867">
        <ele>997.9</ele>
        <time>2021-08-20T08:58:12Z</time>
      </trkpt>
      <trkpt lat="46.13379" lon="5.68675">
        <ele>997.9</ele>
        <time>2021-08-20T08:58:13Z</time>
      </trkpt>
      <trkpt lat="46.13385" lon="5.68682">
        <ele>997.9</ele>
        <time>2021-08-20T08:58:15Z</time>
      </trkpt>
      <trkpt lat="46.13388" lon="5.68686">
        <ele>997.9</ele>
        <time>2021-08-20T08:58:16Z</time>
      </trkpt>
      <trkpt lat="46.13393" lon="5.68691">
        <ele>997.9</ele>
        <time>2021-08-20T08:58:17Z</time>
      </trkpt>
      <trkpt lat="46.13398" lon="5.68696">
        <ele>997.9</ele>
        <time>2021-08-20T08:58:19Z</time>
      </trkpt>
      <trkpt lat="46.134" lon="5.68702">
        <ele>998</ele>
        <time>2021-08-20T08:58:20Z</time>
      </trkpt>
      <trkpt lat="46.134" lon="5.68708">
        <ele>998</ele>
        <time>2021-08-20T08:58:22Z</time>
      </trkpt>
      <trkpt lat="46.134" lon="5.68713">
        <ele>998.1</ele>
        <time>2021-08-20T08:58:24Z</time>
      </trkpt>
      <trkpt lat="46.13402" lon="5.68721">
        <ele>998.2</ele>
        <time>2021-08-20T08:58:26Z</time>
      </trkpt>
      <trkpt lat="46.13402" lon="5.68723">
        <ele>998.3</ele>
        <time>2021-08-20T08:58:27Z</time>
      </trkpt>
      <trkpt lat="46.13402" lon="5.68724">
        <ele>998.3</ele>
        <time>2021-08-20T08:58:28Z</time>
      </trkpt>
      <trkpt lat="46.13403" lon="5.68727">
        <ele>998.4</ele>
        <time>2021-08-20T08:58:30Z</time>
      </trkpt>
      <trkpt lat="46.13404" lon="5.68729">
        <ele>998.4</ele>
        <time>2021-08-20T08:58:31Z</time>
      </trkpt>
      <trkpt lat="46.13404" lon="5.6873">
        <ele>998.5</ele>
        <time>2021-08-20T08:58:32Z</time>
      </trkpt>
      <trkpt lat="46.13393" lon="5.68726">
        <ele>999</ele>
        <time>2021-08-20T08:58:43Z</time>
      </trkpt>
      <trkpt lat="46.1339" lon="5.68724">
        <ele>999.2</ele>
        <time>2021-08-20T08:58:44Z</time>
      </trkpt>
      <trkpt lat="46.13387" lon="5.68723">
        <ele>999.4</ele>
        <time>2021-08-20T08:58:45Z</time>
      </trkpt>
      <trkpt lat="46.13382" lon="5.68721">
        <ele>999.7</ele>
        <time>2021-08-20T08:58:47Z</time>
      </trkpt>
      <trkpt lat="46.13379" lon="5.68721">
        <ele>1000</ele>
        <time>2021-08-20T08:58:48Z</time>
      </trkpt>
      <trkpt lat="46.13377" lon="5.68721">
        <ele>1000.1</ele>
        <time>2021-08-20T08:58:49Z</time>
      </trkpt>
      <trkpt lat="46.13377" lon="5.68722">
        <ele>1000.2</ele>
        <time>2021-08-20T08:58:51Z</time>
      </trkpt>
      <trkpt lat="46.13377" lon="5.68723">
        <ele>1000.2</ele>
        <time>2021-08-20T08:58:52Z</time>
      </trkpt>
      <trkpt lat="46.13376" lon="5.68724">
        <ele>1000.3</ele>
        <time>2021-08-20T08:58:53Z</time>
      </trkpt>
      <trkpt lat="46.13375" lon="5.68724">
        <ele>1000.3</ele>
        <time>2021-08-20T08:58:54Z</time>
      </trkpt>
      <trkpt lat="46.1323" lon="5.6846">
        <ele>1017.6</ele>
        <time>2021-08-20T09:02:03Z</time>
      </trkpt>
      <trkpt lat="46.13228" lon="5.68456">
        <ele>1017.8</ele>
        <time>2021-08-20T09:02:04Z</time>
      </trkpt>
      <trkpt lat="46.13226" lon="5.68453">
        <ele>1018</ele>
        <time>2021-08-20T09:02:06Z</time>
      </trkpt>
      <trkpt lat="46.13226" lon="5.68452">
        <ele>1018.1</ele>
        <time>2021-08-20T09:02:07Z</time>
      </trkpt>
      <trkpt lat="46.13226" lon="5.68449">
        <ele>1018.2</ele>
        <time>2021-08-20T09:02:08Z</time>
      </trkpt>
      <trkpt lat="46.13225" lon="5.68448">
        <ele>1018.3</ele>
        <time>2021-08-20T09:02:10Z</time>
      </trkpt>
      <trkpt lat="46.13225" lon="5.68448">
        <ele>1018.3</ele>
        <time>2021-08-20T09:02:11Z</time>
      </trkpt>
      <trkpt lat="46.13225" lon="5.68447">
        <ele>1018.3</ele>
        <time>2021-08-20T09:02:12Z</time>
      </trkpt>
      <trkpt lat="46.13225" lon="5.68447">
        <ele>1018.3</ele>
        <time>2021-08-20T09:02:14Z</time>
      </trkpt>
      <trkpt lat="46.13225" lon="5.68447">
        <ele>1018.3</ele>
        <time>2021-08-20T09:02:15Z</time>
      </trkpt>
      <trkpt lat="46.13224" lon="5.68447">
        <ele>1018.3</ele>
        <time>2021-08-20T09:02:16Z</time>
      </trkpt>
      <trkpt lat="46.13206" lon="5.68443">
        <ele>1019.6</ele>
        <time>2021-08-20T09:02:29Z</time>
      </trkpt>
      <trkpt lat="46.13201" lon="5.68442">
        <ele>1019.9</ele>
        <time>2021-08-20T09:02:31Z</time>
      </trkpt>
      <trkpt lat="46.13194" lon="5.68438">
        <ele>1020.4</ele>
        <time>2021-08-20T09:02:33Z</time>
      </trkpt>
      <trkpt lat="46.13192" lon="5.68436">
        <ele>1020.6</ele>
        <time>2021-08-20T09:02:34Z</time>
      </trkpt>
      <trkpt lat="46.13191" lon="5.68436">
        <ele>1020.6</ele>
        <time>2021-08-20T09:02:35Z</time>
      </trkpt>
      <trkpt lat="46.13191" lon="5.68436">
        <ele>1020.6</ele>
        <time>2021-08-20T09:02:36Z</time>
      </trkpt>
      <trkpt lat="46.13191" lon="5.68436">
        <ele>1020.7</ele>
        <time>2021-08-20T09:02:38Z</time>
      </trkpt>
      <trkpt lat="46.13191" lon="5.68436">
        <ele>1020.7</ele>
        <time>2021-08-20T09:02:40Z</time>
      </trkpt>
      <trkpt lat="46.13189" lon="5.68436">
        <ele>1020.8</ele>
        <time>2021-08-20T09:02:41Z</time>
      </trkpt>
      <trkpt lat="46.13186" lon="5.68436">
        <ele>1021</ele>
        <time>2021-08-20T09:02:43Z</time>
      </trkpt>
      <trkpt lat="46.13173" lon="5.68434">
        <ele>1022</ele>
        <time>2021-08-20T09:02:53Z</time>
      </trkpt>
      <trkpt lat="46.13171" lon="5.68434">
        <ele>1022.1</ele>
        <time>2021-08-20T09:02:54Z</time>
      </trkpt>
      <trkpt lat="46.13169" lon="5.68433">
        <ele>1022.2</ele>
        <time>2021-08-20T09:02:55Z</time>
      </trkpt>
      <trkpt lat="46.13167" lon="5.68432">
        <ele>1022.3</ele>
        <time>2021-08-20T09:02:56Z</time>
      </trkpt>
      <trkpt lat="46.13164" lon="5.68431">
        <ele>1022.6</ele>
        <time>2021-08-20T09:02:58Z</time>
      </trkpt>
      <trkpt lat="46.13162" lon="5.68431">
        <ele>1022.7</ele>
        <time>2021-08-20T09:02:59Z</time>
      </trkpt>
      <trkpt lat="46.13161" lon="5.6843">
        <ele>1022.8</ele>
        <time>2021-08-20T09:03:01Z</time>
      </trkpt>
      <trkpt lat="46.13157" lon="5.68429">
        <ele>1023</ele>
        <time>2021-08-20T09:03:03Z</time>
      </trkpt>
      <trkpt lat="46.13153" lon="5.68428">
        <ele>1023.3</ele>
        <time>2021-08-20T09:03:05Z</time>
      </trkpt>
      <trkpt lat="46.13151" lon="5.68427">
        <ele>1023.5</ele>
        <time>2021-08-20T09:03:07Z</time>
      </trkpt>
      <trkpt lat="46.13148" lon="5.68427">
        <ele>1023.7</ele>
        <time>2021-08-20T09:03:09Z</time>
      </trkpt>
      <trkpt lat="46.13144" lon="5.68426">
        <ele>1023.9</ele>
        <time>2021-08-20T09:03:11Z</time>
      </trkpt>
      <trkpt lat="46.13142" lon="5.68424">
        <ele>1024.1</ele>
        <time>2021-08-20T09:03:12Z</time>
      </trkpt>
      <trkpt lat="46.13141" lon="5.68422">
        <ele>1024.2</ele>
        <time>2021-08-20T09:03:14Z</time>
      </trkpt>
      <trkpt lat="46.1314" lon="5.68421">
        <ele>1024.3</ele>
        <time>2021-08-20T09:03:15Z</time>
      </trkpt>
      <trkpt lat="46.13139" lon="5.6842">
        <ele>1024.4</ele>
        <time>2021-08-20T09:03:17Z</time>
      </trkpt>
      <trkpt lat="46.13138" lon="5.68419">
        <ele>1024.5</ele>
        <time>2021-08-20T09:03:18Z</time>
      </trkpt>
      <trkpt lat="46.13138" lon="5.68417">
        <ele>1024.6</ele>
        <time>2021-08-20T09:03:19Z</time>
      </trkpt>
      <trkpt lat="46.13137" lon="5.68416">
        <ele>1024.6</ele>
        <time>2021-08-20T09:03:20Z</time>
      </trkpt>
      <trkpt lat="46.13136" lon="5.68414">
        <ele>1024.8</ele>
        <time>2021-08-20T09:03:22Z</time>
      </trkpt>
      <trkpt lat="46.13136" lon="5.68414">
        <ele>1024.8</ele>
        <time>2021-08-20T09:03:23Z</time>
      </trkpt>
      <trkpt lat="46.13136" lon="5.68414">
        <ele>1024.8</ele>
        <time>2021-08-20T09:03:25Z</time>
      </trkpt>
      <trkpt lat="46.13136" lon="5.68414">
        <ele>1024.8</ele>
        <time>2021-08-20T09:03:26Z</time>
      </trkpt>
      <trkpt lat="46.13136" lon="5.68414">
        <ele>1024.8</ele>
        <time>2021-08-20T09:03:27Z</time>
      </trkpt>
      <trkpt lat="46.13136" lon="5.68413">
        <ele>1024.8</ele>
        <time>2021-08-20T09:03:29Z</time>
      </trkpt>
      <trkpt lat="46.13135" lon="5.68412">
        <ele>1024.9</ele>
        <time>2021-08-20T09:03:31Z</time>
      </trkpt>
      <trkpt lat="46.13134" lon="5.68411">
        <ele>1025</ele>
        <time>2021-08-20T09:03:32Z</time>
      </trkpt>
      <trkpt lat="46.13124" lon="5.68402">
        <ele>1025.9</ele>
        <time>2021-08-20T09:03:40Z</time>
      </trkpt>
      <trkpt lat="46.1312" lon="5.68398">
        <ele>1026.2</ele>
        <time>2021-08-20T09:03:42Z</time>
      </trkpt>
      <trkpt lat="46.13119" lon="5.68398">
        <ele>1026.3</ele>
        <time>2021-08-20T09:03:43Z</time>
      </trkpt>
      <trkpt lat="46.13116" lon="5.68396">
        <ele>1026.5</ele>
        <time>2021-08-20T09:03:45Z</time>
      </trkpt>
      <trkpt lat="46.13113" lon="5.68394">
        <ele>1026.7</ele>
        <time>2021-08-20T09:03:46Z</time>
      </trkpt>
      <trkpt lat="46.13108" lon="5.68392">
        <ele>1027.1</ele>
        <time>2021-08-20T09:03:48Z</time>
      </trkpt>
      <trkpt lat="46.13107" lon="5.68391">
        <ele>1027.2</ele>
        <time>2021-08-20T09:03:49Z</time>
      </trkpt>
      <trkpt lat="46.13103" lon="5.68393">
        <ele>1027.4</ele>
        <time>2021-08-20T09:03:51Z</time>
      </trkpt>
      <trkpt lat="46.13103" lon="5.68393">
        <ele>1027.5</ele>
        <time>2021-08-20T09:03:53Z</time>
      </trkpt>
      <trkpt lat="46.13102" lon="5.68392">
        <ele>1027.6</ele>
        <time>2021-08-20T09:03:55Z</time>
      </trkpt>
      <trkpt lat="46.13101" lon="5.68391">
        <ele>1027.6</ele>
        <time>2021-08-20T09:03:57Z</time>
      </trkpt>
      <trkpt lat="46.131" lon="5.68389">
        <ele>1027.7</ele>
        <time>2021-08-20T09:03:59Z</time>
      </trkpt>
      <trkpt lat="46.13092" lon="5.68379">
        <ele>1028.5</ele>
        <time>2021-08-20T09:04:07Z</time>
      </trkpt>
      <trkpt lat="46.13087" lon="5.68375">
        <ele>1028.8</ele>
        <time>2021-08-20T09:04:10Z</time>
      </trkpt>
      <trkpt lat="46.13086" lon="5.68375">
        <ele>1028.9</ele>
        <time>2021-08-20T09:04:11Z</time>
      </trkpt>
      <trkpt lat="46.13086" lon="5.68374">
        <ele>1028.9</ele>
        <time>2021-08-20T09:04:12Z</time>
      </trkpt>
      <trkpt lat="46.13084" lon="5.68373">
        <ele>1029.1</ele>
        <time>2021-08-20T09:04:14Z</time>
      </trkpt>
      <trkpt lat="46.13081" lon="5.68372">
        <ele>1029.3</ele>
        <time>2021-08-20T09:04:16Z</time>
      </trkpt>
      <trkpt lat="46.13079" lon="5.68371">
        <ele>1029.4</ele>
        <time>2021-08-20T09:04:17Z</time>
      </trkpt>
      <trkpt lat="46.13078" lon="5.6837">
        <ele>1029.5</ele>
        <time>2021-08-20T09:04:18Z</time>
      </trkpt>
      <trkpt lat="46.13075" lon="5.68369">
        <ele>1029.6</ele>
        <time>2021-08-20T09:04:20Z</time>
      </trkpt>
      <trkpt lat="46.13074" lon="5.68368">
        <ele>1029.8</ele>
        <time>2021-08-20T09:04:22Z</time>
      </trkpt>
      <trkpt lat="46.13072" lon="5.68367">
        <ele>1029.9</ele>
        <time>2021-08-20T09:04:24Z</time>
      </trkpt>
      <trkpt lat="46.13069" lon="5.68366">
        <ele>1030.1</ele>
        <time>2021-08-20T09:04:25Z</time>
      </trkpt>
      <trkpt lat="46.13067" lon="5.68365">
        <ele>1030.2</ele>
        <time>2021-08-20T09:04:26Z</time>
      </trkpt>
      <trkpt lat="46.13064" lon="5.68364">
        <ele>1030.5</ele>
        <time>2021-08-20T09:04:28Z</time>
      </trkpt>
      <trkpt lat="46.13063" lon="5.68364">
        <ele>1030.6</ele>
        <time>2021-08-20T09:04:29Z</time>
      </trkpt>
      <trkpt lat="46.13061" lon="5.68364">
        <ele>1030.7</ele>
        <time>2021-08-20T09:04:30Z</time>
      </trkpt>
      <trkpt lat="46.13059" lon="5.68364">
        <ele>1030.8</ele>
        <time>2021-08-20T09:04:31Z</time>
      </trkpt>
      <trkpt lat="46.13057" lon="5.68363">
        <ele>1030.9</ele>
        <time>2021-08-20T09:04:33Z</time>
      </trkpt>
      <trkpt lat="46.13055" lon="5.68362">
        <ele>1031.1</ele>
        <time>2021-08-20T09:04:34Z</time>
      </trkpt>
      <trkpt lat="46.13053" lon="5.68362">
        <ele>1031.2</ele>
        <time>2021-08-20T09:04:35Z</time>
      </trkpt>
      <trkpt lat="46.13052" lon="5.68362">
        <ele>1031.3</ele>
        <time>2021-08-20T09:04:36Z</time>
      </trkpt>
      <trkpt lat="46.13049" lon="5.68361">
        <ele>1031.4</ele>
        <time>2021-08-20T09:04:37Z</time>
      </trkpt>
      <trkpt lat="46.13048" lon="5.6836">
        <ele>1031.5</ele>
        <time>2021-08-20T09:04:38Z</time>
      </trkpt>
      <trkpt lat="46.13048" lon="5.68359">
        <ele>1031.6</ele>
        <time>2021-08-20T09:04:40Z</time>
      </trkpt>
      <trkpt lat="46.13047" lon="5.68358">
        <ele>1031.7</ele>
        <time>2021-08-20T09:04:41Z</time>
      </trkpt>
      <trkpt lat="46.13046" lon="5.68357">
        <ele>1031.7</ele>
        <time>2021-08-20T09:04:43Z</time>
      </trkpt>
      <trkpt lat="46.13048" lon="5.68356">
        <ele>1031.9</ele>
        <time>2021-08-20T09:04:44Z</time>
      </trkpt>
      <trkpt lat="46.13049" lon="5.68356">
        <ele>1031.9</ele>
        <time>2021-08-20T09:04:45Z</time>
      </trkpt>
      <trkpt lat="46.13048" lon="5.68355">
        <ele>1032</ele>
        <time>2021-08-20T09:04:46Z</time>
      </trkpt>
      <trkpt lat="46.13047" lon="5.68355">
        <ele>1032.1</ele>
        <time>2021-08-20T09:04:47Z</time>
      </trkpt>
      <trkpt lat="46.13046" lon="5.68355">
        <ele>1032.2</ele>
        <time>2021-08-20T09:04:48Z</time>
      </trkpt>
      <trkpt lat="46.13045" lon="5.68354">
        <ele>1032.3</ele>
        <time>2021-08-20T09:04:49Z</time>
      </trkpt>
      <trkpt lat="46.13041" lon="5.68351">
        <ele>1032.6</ele>
        <time>2021-08-20T09:04:51Z</time>
      </trkpt>
      <trkpt lat="46.1304" lon="5.68351">
        <ele>1032.6</ele>
        <time>2021-08-20T09:04:52Z</time>
      </trkpt>
      <trkpt lat="46.13041" lon="5.6835">
        <ele>1032.7</ele>
        <time>2021-08-20T09:04:53Z</time>
      </trkpt>
      <trkpt lat="46.13041" lon="5.6835">
        <ele>1032.7</ele>
        <time>2021-08-20T09:04:55Z</time>
      </trkpt>
      <trkpt lat="46.13041" lon="5.68349">
        <ele>1032.7</ele>
        <time>2021-08-20T09:04:56Z</time>
      </trkpt>
      <trkpt lat="46.13041" lon="5.68348">
        <ele>1032.8</ele>
        <time>2021-08-20T09:04:58Z</time>
      </trkpt>
      <trkpt lat="46.1304" lon="5.68348">
        <ele>1032.8</ele>
        <time>2021-08-20T09:04:59Z</time>
      </trkpt>
      <trkpt lat="46.1304" lon="5.68348">
        <ele>1032.8</ele>
        <time>2021-08-20T09:05:01Z</time>
      </trkpt>
      <trkpt lat="46.12988" lon="5.68311">
        <ele>1037.3</ele>
        <time>2021-08-20T09:05:45Z</time>
      </trkpt>
      <trkpt lat="46.12984" lon="5.68311">
        <ele>1037.6</ele>
        <time>2021-08-20T09:05:47Z</time>
      </trkpt>
      <trkpt lat="46.12981" lon="5.68312">
        <ele>1037.7</ele>
        <time>2021-08-20T09:05:48Z</time>
      </trkpt>
      <trkpt lat="46.12978" lon="5.68311">
        <ele>1037.9</ele>
        <time>2021-08-20T09:05:49Z</time>
      </trkpt>
      <trkpt lat="46.12974" lon="5.68311">
        <ele>1038.1</ele>
        <time>2021-08-20T09:05:50Z</time>
      </trkpt>
      <trkpt lat="46.12971" lon="5.68311">
        <ele>1038.4</ele>
        <time>2021-08-20T09:05:51Z</time>
      </trkpt>
      <trkpt lat="46.12969" lon="5.6831">
        <ele>1038.5</ele>
        <time>2021-08-20T09:05:52Z</time>
      </trkpt>
      <trkpt lat="46.12968" lon="5.6831">
        <ele>1038.5</ele>
        <time>2021-08-20T09:05:54Z</time>
      </trkpt>
      <trkpt lat="46.12967" lon="5.68309">
        <ele>1038.6</ele>
        <time>2021-08-20T09:05:55Z</time>
      </trkpt>
      <trkpt lat="46.12966" lon="5.68309">
        <ele>1038.7</ele>
        <time>2021-08-20T09:05:56Z</time>
      </trkpt>
      <trkpt lat="46.12965" lon="5.68309">
        <ele>1038.7</ele>
        <time>2021-08-20T09:05:57Z</time>
      </trkpt>
      <trkpt lat="46.12962" lon="5.68309">
        <ele>1038.9</ele>
        <time>2021-08-20T09:06:00Z</time>
      </trkpt>
      <trkpt lat="46.12939" lon="5.68313">
        <ele>1040.4</ele>
        <time>2021-08-20T09:06:12Z</time>
      </trkpt>
      <trkpt lat="46.12935" lon="5.68316">
        <ele>1040.7</ele>
        <time>2021-08-20T09:06:14Z</time>
      </trkpt>
      <trkpt lat="46.12931" lon="5.68317">
        <ele>1041</ele>
        <time>2021-08-20T09:06:15Z</time>
      </trkpt>
      <trkpt lat="46.12928" lon="5.68318">
        <ele>1041.2</ele>
        <time>2021-08-20T09:06:16Z</time>
      </trkpt>
      <trkpt lat="46.12927" lon="5.68318">
        <ele>1041.3</ele>
        <time>2021-08-20T09:06:17Z</time>
      </trkpt>
      <trkpt lat="46.12923" lon="5.68319">
        <ele>1041.6</ele>
        <time>2021-08-20T09:06:18Z</time>
      </trkpt>
      <trkpt lat="46.12922" lon="5.68319">
        <ele>1041.7</ele>
        <time>2021-08-20T09:06:19Z</time>
      </trkpt>
      <trkpt lat="46.12919" lon="5.68319">
        <ele>1042</ele>
        <time>2021-08-20T09:06:20Z</time>
      </trkpt>
      <trkpt lat="46.12916" lon="5.6832">
        <ele>1042.3</ele>
        <time>2021-08-20T09:06:22Z</time>
      </trkpt>
      <trkpt lat="46.12915" lon="5.68321">
        <ele>1042.4</ele>
        <time>2021-08-20T09:06:23Z</time>
      </trkpt>
      <trkpt lat="46.12913" lon="5.68324">
        <ele>1042.6</ele>
        <time>2021-08-20T09:06:24Z</time>
      </trkpt>
      <trkpt lat="46.1291" lon="5.68326">
        <ele>1042.9</ele>
        <time>2021-08-20T09:06:26Z</time>
      </trkpt>
      <trkpt lat="46.12907" lon="5.68328">
        <ele>1043.1</ele>
        <time>2021-08-20T09:06:28Z</time>
      </trkpt>
      <trkpt lat="46.12906" lon="5.68329">
        <ele>1043.3</ele>
        <time>2021-08-20T09:06:30Z</time>
      </trkpt>
      <trkpt lat="46.12903" lon="5.6833">
        <ele>1043.5</ele>
        <time>2021-08-20T09:06:32Z</time>
      </trkpt>
      <trkpt lat="46.12901" lon="5.6833">
        <ele>1043.6</ele>
        <time>2021-08-20T09:06:33Z</time>
      </trkpt>
      <trkpt lat="46.129" lon="5.6833">
        <ele>1043.7</ele>
        <time>2021-08-20T09:06:35Z</time>
      </trkpt>
      <trkpt lat="46.129" lon="5.6833">
        <ele>1043.8</ele>
        <time>2021-08-20T09:06:36Z</time>
      </trkpt>
      <trkpt lat="46.129" lon="5.68332">
        <ele>1043.8</ele>
        <time>2021-08-20T09:06:38Z</time>
      </trkpt>
      <trkpt lat="46.12899" lon="5.68332">
        <ele>1043.9</ele>
        <time>2021-08-20T09:06:40Z</time>
      </trkpt>
      <trkpt lat="46.12898" lon="5.68331">
        <ele>1044</ele>
        <time>2021-08-20T09:06:42Z</time>
      </trkpt>
      <trkpt lat="46.12822" lon="5.68407">
        <ele>1060.2</ele>
        <time>2021-08-20T09:09:32Z</time>
      </trkpt>
      <trkpt lat="46.12825" lon="5.68407">
        <ele>1059.2</ele>
        <time>2021-08-20T09:09:33Z</time>
      </trkpt>
      <trkpt lat="46.12828" lon="5.68407">
        <ele>1058.1</ele>
        <time>2021-08-20T09:09:35Z</time>
      </trkpt>
      <trkpt lat="46.12832" lon="5.68407">
        <ele>1056.9</ele>
        <time>2021-08-20T09:09:36Z</time>
      </trkpt>
      <trkpt lat="46.12841" lon="5.68407">
        <ele>1057.1</ele>
        <time>2021-08-20T09:09:38Z</time>
      </trkpt>
      <trkpt lat="46.12849" lon="5.68406">
        <ele>1057.2</ele>
        <time>2021-08-20T09:09:39Z</time>
      </trkpt>
      <trkpt lat="46.12855" lon="5.68407">
        <ele>1057.3</ele>
        <time>2021-08-20T09:09:40Z</time>
      </trkpt>
      <trkpt lat="46.12862" lon="5.68407">
        <ele>1057.4</ele>
        <time>2021-08-20T09:09:42Z</time>
      </trkpt>
      <trkpt lat="46.12868" lon="5.68407">
        <ele>1057.6</ele>
        <time>2021-08-20T09:09:44Z</time>
      </trkpt>
      <trkpt lat="46.12872" lon="5.68409">
        <ele>1057.6</ele>
        <time>2021-08-20T09:09:45Z</time>
      </trkpt>
      <trkpt lat="46.12876" lon="5.68409">
        <ele>1057.7</ele>
        <time>2021-08-20T09:09:46Z</time>
      </trkpt>
      <trkpt lat="46.1288" lon="5.68409">
        <ele>1057.9</ele>
        <time>2021-08-20T09:09:47Z</time>
      </trkpt>
      <trkpt lat="46.12883" lon="5.68408">
        <ele>1058</ele>
        <time>2021-08-20T09:09:48Z</time>
      </trkpt>
      <trkpt lat="46.12884" lon="5.68409">
        <ele>1058</ele>
        <time>2021-08-20T09:09:49Z</time>
      </trkpt>
      <trkpt lat="46.12887" lon="5.68409">
        <ele>1058.1</ele>
        <time>2021-08-20T09:09:50Z</time>
      </trkpt>
      <trkpt lat="46.12891" lon="5.68408">
        <ele>1058.3</ele>
        <time>2021-08-20T09:09:51Z</time>
      </trkpt>
      <trkpt lat="46.12894" lon="5.68409">
        <ele>1058.4</ele>
        <time>2021-08-20T09:09:53Z</time>
      </trkpt>
      <trkpt lat="46.12898" lon="5.68409">
        <ele>1058.6</ele>
        <time>2021-08-20T09:09:54Z</time>
      </trkpt>
      <trkpt lat="46.12901" lon="5.68408">
        <ele>1058.8</ele>
        <time>2021-08-20T09:09:55Z</time>
      </trkpt>
      <trkpt lat="46.12906" lon="5.68408">
        <ele>1059</ele>
        <time>2021-08-20T09:09:57Z</time>
      </trkpt>
      <trkpt lat="46.12911" lon="5.68406">
        <ele>1059.3</ele>
        <time>2021-08-20T09:09:58Z</time>
      </trkpt>
      <trkpt lat="46.12913" lon="5.68406">
        <ele>1059.4</ele>
        <time>2021-08-20T09:09:59Z</time>
      </trkpt>
      <trkpt lat="46.12914" lon="5.68407">
        <ele>1059.6</ele>
        <time>2021-08-20T09:10:00Z</time>
      </trkpt>
      <trkpt lat="46.12913" lon="5.68406">
        <ele>1059.7</ele>
        <time>2021-08-20T09:10:01Z</time>
      </trkpt>
      <trkpt lat="46.12911" lon="5.68405">
        <ele>1059.8</ele>
        <time>2021-08-20T09:10:02Z</time>
      </trkpt>
      <trkpt lat="46.12909" lon="5.68405">
        <ele>1059.9</ele>
        <time>2021-08-20T09:10:03Z</time>
      </trkpt>
      <trkpt lat="46.12908" lon="5.68405">
        <ele>1060</ele>
        <time>2021-08-20T09:10:04Z</time>
      </trkpt>
      <trkpt lat="46.12908" lon="5.68405">
        <ele>1060</ele>
        <time>2021-08-20T09:10:05Z</time>
      </trkpt>
      <trkpt lat="46.12907" lon="5.68406">
        <ele>1060</ele>
        <time>2021-08-20T09:10:07Z</time>
      </trkpt>
      <trkpt lat="46.12907" lon="5.68406">
        <ele>1060.1</ele>
        <time>2021-08-20T09:10:08Z</time>
      </trkpt>
      <trkpt lat="46.12907" lon="5.68408">
        <ele>1060.2</ele>
        <time>2021-08-20T09:10:09Z</time>
      </trkpt>
      <trkpt lat="46.12907" lon="5.68413">
        <ele>1060.4</ele>
        <time>2021-08-20T09:10:10Z</time>
      </trkpt>
      <trkpt lat="46.12907" lon="5.68416">
        <ele>1060.6</ele>
        <time>2021-08-20T09:10:13Z</time>
      </trkpt>
      <trkpt lat="46.12907" lon="5.6842">
        <ele>1060.8</ele>
        <time>2021-08-20T09:10:14Z</time>
      </trkpt>
      <trkpt lat="46.12907" lon="5.68423">
        <ele>1061</ele>
        <time>2021-08-20T09:10:15Z</time>
      </trkpt>
      <trkpt lat="46.12907" lon="5.68428">
        <ele>1061.2</ele>
        <time>2021-08-20T09:10:16Z</time>
      </trkpt>
      <trkpt lat="46.12907" lon="5.6843">
        <ele>1061.3</ele>
        <time>2021-08-20T09:10:17Z</time>
      </trkpt>
      <trkpt lat="46.12906" lon="5.68432">
        <ele>1061.4</ele>
        <time>2021-08-20T09:10:18Z</time>
      </trkpt>
      <trkpt lat="46.12904" lon="5.68432">
        <ele>1061.6</ele>
        <time>2021-08-20T09:10:19Z</time>
      </trkpt>
      <trkpt lat="46.12904" lon="5.68432">
        <ele>1061.6</ele>
        <time>2021-08-20T09:10:21Z</time>
      </trkpt>
      <trkpt lat="46.12903" lon="5.68431">
        <ele>1061.7</ele>
        <time>2021-08-20T09:10:22Z</time>
      </trkpt>
      <trkpt lat="46.12903" lon="5.68431">
        <ele>1061.7</ele>
        <time>2021-08-20T09:10:24Z</time>
      </trkpt>
      <trkpt lat="46.12902" lon="5.68431">
        <ele>1061.8</ele>
        <time>2021-08-20T09:10:25Z</time>
      </trkpt>
      <trkpt lat="46.12899" lon="5.68432">
        <ele>1062</ele>
        <time>2021-08-20T09:10:27Z</time>
      </trkpt>
      <trkpt lat="46.12895" lon="5.68435">
        <ele>1062.4</ele>
        <time>2021-08-20T09:10:30Z</time>
      </trkpt>
      <trkpt lat="46.1289" lon="5.6844">
        <ele>1062.8</ele>
        <time>2021-08-20T09:10:32Z</time>
      </trkpt>
      <trkpt lat="46.12885" lon="5.68445">
        <ele>1063.2</ele>
        <time>2021-08-20T09:10:34Z</time>
      </trkpt>
      <trkpt lat="46.12883" lon="5.68448">
        <ele>1063.5</ele>
        <time>2021-08-20T09:10:35Z</time>
      </trkpt>
      <trkpt lat="46.12882" lon="5.68448">
        <ele>1063.6</ele>
        <time>2021-08-20T09:10:36Z</time>
      </trkpt>
      <trkpt lat="46.1288" lon="5.68451">
        <ele>1063.8</ele>
        <time>2021-08-20T09:10:38Z</time>
      </trkpt>
      <trkpt lat="46.1288" lon="5.68452">
        <ele>1063.8</ele>
        <time>2021-08-20T09:10:39Z</time>
      </trkpt>
      <trkpt lat="46.1288" lon="5.68453">
        <ele>1063.9</ele>
        <time>2021-08-20T09:10:40Z</time>
      </trkpt>
      <trkpt lat="46.1288" lon="5.68453">
        <ele>1063.9</ele>
        <time>2021-08-20T09:10:41Z</time>
      </trkpt>
      <trkpt lat="46.12881" lon="5.68453">
        <ele>1064</ele>
        <time>2021-08-20T09:10:42Z</time>
      </trkpt>
      <trkpt lat="46.12881" lon="5.68453">
        <ele>1064</ele>
        <time>2021-08-20T09:10:43Z</time>
      </trkpt>
      <trkpt lat="46.12881" lon="5.68453">
        <ele>1064</ele>
        <time>2021-08-20T09:10:44Z</time>
      </trkpt>
      <trkpt lat="46.1288" lon="5.68457">
        <ele>1064.2</ele>
        <time>2021-08-20T09:10:46Z</time>
      </trkpt>
      <trkpt lat="46.1288" lon="5.68459">
        <ele>1064.3</ele>
        <time>2021-08-20T09:10:47Z</time>
      </trkpt>
      <trkpt lat="46.12879" lon="5.68461">
        <ele>1064.4</ele>
        <time>2021-08-20T09:10:48Z</time>
      </trkpt>
      <trkpt lat="46.12876" lon="5.68462">
        <ele>1064.6</ele>
        <time>2021-08-20T09:10:50Z</time>
      </trkpt>
      <trkpt lat="46.12874" lon="5.6846">
        <ele>1064.9</ele>
        <time>2021-08-20T09:10:52Z</time>
      </trkpt>
      <trkpt lat="46.12873" lon="5.68458">
        <ele>1064.9</ele>
        <time>2021-08-20T09:10:53Z</time>
      </trkpt>
      <trkpt lat="46.12873" lon="5.68455">
        <ele>1065.1</ele>
        <time>2021-08-20T09:10:55Z</time>
      </trkpt>
      <trkpt lat="46.12871" lon="5.68455">
        <ele>1065.2</ele>
        <time>2021-08-20T09:10:56Z</time>
      </trkpt>
      <trkpt lat="46.1287" lon="5.68454">
        <ele>1065.3</ele>
        <time>2021-08-20T09:10:57Z</time>
      </trkpt>
      <trkpt lat="46.1287" lon="5.68454">
        <ele>1065.3</ele>
        <time>2021-08-20T09:10:58Z</time>
      </trkpt>
      <trkpt lat="46.1287" lon="5.68454">
        <ele>1065.3</ele>
        <time>2021-08-20T09:10:59Z</time>
      </trkpt>
      <trkpt lat="46.1287" lon="5.68454">
        <ele>1065.3</ele>
        <time>2021-08-20T09:11:01Z</time>
      </trkpt>
      <trkpt lat="46.1287" lon="5.68454">
        <ele>1065.4</ele>
        <time>2021-08-20T09:11:02Z</time>
      </trkpt>
      <trkpt lat="46.1287" lon="5.68454">
        <ele>1065.3</ele>
        <time>2021-08-20T09:11:03Z</time>
      </trkpt>
      <trkpt lat="46.1287" lon="5.68454">
        <ele>1065.3</ele>
        <time>2021-08-20T09:11:05Z</time>
      </trkpt>
      <trkpt lat="46.12869" lon="5.68455">
        <ele>1065.3</ele>
        <time>2021-08-20T09:11:06Z</time>
      </trkpt>
      <trkpt lat="46.12853" lon="5.68453">
        <ele>1066.5</ele>
        <time>2021-08-20T09:11:15Z</time>
      </trkpt>
      <trkpt lat="46.1285" lon="5.68451">
        <ele>1066.8</ele>
        <time>2021-08-20T09:11:16Z</time>
      </trkpt>
      <trkpt lat="46.12849" lon="5.6845">
        <ele>1066.8</ele>
        <time>2021-08-20T09:11:17Z</time>
      </trkpt>
      <trkpt lat="46.12849" lon="5.6845">
        <ele>1066.9</ele>
        <time>2021-08-20T09:11:18Z</time>
      </trkpt>
      <trkpt lat="46.12848" lon="5.68449">
        <ele>1067</ele>
        <time>2021-08-20T09:11:19Z</time>
      </trkpt>
      <trkpt lat="46.12847" lon="5.68446">
        <ele>1067.1</ele>
        <time>2021-08-20T09:11:21Z</time>
      </trkpt>
      <trkpt lat="46.12847" lon="5.68445">
        <ele>1067.2</ele>
        <time>2021-08-20T09:11:22Z</time>
      </trkpt>
      <trkpt lat="46.12847" lon="5.68445">
        <ele>1067.2</ele>
        <time>2021-08-20T09:11:23Z</time>
      </trkpt>
      <trkpt lat="46.12847" lon="5.68444">
        <ele>1067.3</ele>
        <time>2021-08-20T09:11:24Z</time>
      </trkpt>
      <trkpt lat="46.12847" lon="5.68443">
        <ele>1067.3</ele>
        <time>2021-08-20T09:11:25Z</time>
      </trkpt>
      <trkpt lat="46.12848" lon="5.68441">
        <ele>1067.4</ele>
        <time>2021-08-20T09:11:27Z</time>
      </trkpt>
      <trkpt lat="46.12841" lon="5.68442">
        <ele>1068</ele>
        <time>2021-08-20T09:11:40Z</time>
      </trkpt>
      <trkpt lat="46.12838" lon="5.68443">
        <ele>1068.2</ele>
        <time>2021-08-20T09:11:41Z</time>
      </trkpt>
      <trkpt lat="46.12834" lon="5.68447">
        <ele>1068.5</ele>
        <time>2021-08-20T09:11:43Z</time>
      </trkpt>
      <trkpt lat="46.12832" lon="5.68448">
        <ele>1068.7</ele>
        <time>2021-08-20T09:11:44Z</time>
      </trkpt>
      <trkpt lat="46.12831" lon="5.68449">
        <ele>1068.8</ele>
        <time>2021-08-20T09:11:45Z</time>
      </trkpt>
      <trkpt lat="46.12828" lon="5.68453">
        <ele>1069</ele>
        <time>2021-08-20T09:11:46Z</time>
      </trkpt>
      <trkpt lat="46.12825" lon="5.68455">
        <ele>1069.3</ele>
        <time>2021-08-20T09:11:48Z</time>
      </trkpt>
      <trkpt lat="46.12824" lon="5.68457">
        <ele>1069.4</ele>
        <time>2021-08-20T09:11:49Z</time>
      </trkpt>
      <trkpt lat="46.12823" lon="5.68459">
        <ele>1069.5</ele>
        <time>2021-08-20T09:11:50Z</time>
      </trkpt>
      <trkpt lat="46.12822" lon="5.6846">
        <ele>1069.6</ele>
        <time>2021-08-20T09:11:51Z</time>
      </trkpt>
      <trkpt lat="46.12819" lon="5.68462">
        <ele>1069.8</ele>
        <time>2021-08-20T09:11:53Z</time>
      </trkpt>
      <trkpt lat="46.12815" lon="5.68464">
        <ele>1070</ele>
        <time>2021-08-20T09:11:55Z</time>
      </trkpt>
      <trkpt lat="46.12812" lon="5.68463">
        <ele>1070.2</ele>
        <time>2021-08-20T09:11:56Z</time>
      </trkpt>
      <trkpt lat="46.1281" lon="5.68463">
        <ele>1070.4</ele>
        <time>2021-08-20T09:11:57Z</time>
      </trkpt>
      <trkpt lat="46.12806" lon="5.68465">
        <ele>1070.6</ele>
        <time>2021-08-20T09:11:59Z</time>
      </trkpt>
      <trkpt lat="46.12805" lon="5.68465">
        <ele>1070.7</ele>
        <time>2021-08-20T09:12:01Z</time>
      </trkpt>
      <trkpt lat="46.12805" lon="5.68465">
        <ele>1070.7</ele>
        <time>2021-08-20T09:12:02Z</time>
      </trkpt>
      <trkpt lat="46.12803" lon="5.68465">
        <ele>1070.9</ele>
        <time>2021-08-20T09:12:04Z</time>
      </trkpt>
      <trkpt lat="46.128" lon="5.68466">
        <ele>1071.1</ele>
        <time>2021-08-20T09:12:05Z</time>
      </trkpt>
      <trkpt lat="46.12799" lon="5.68466">
        <ele>1071.1</ele>
        <time>2021-08-20T09:12:06Z</time>
      </trkpt>
      <trkpt lat="46.12796" lon="5.68465">
        <ele>1071.3</ele>
        <time>2021-08-20T09:12:08Z</time>
      </trkpt>
      <trkpt lat="46.12794" lon="5.68465">
        <ele>1071.5</ele>
        <time>2021-08-20T09:12:09Z</time>
      </trkpt>
      <trkpt lat="46.12792" lon="5.68465">
        <ele>1071.6</ele>
        <time>2021-08-20T09:12:11Z</time>
      </trkpt>
      <trkpt lat="46.12791" lon="5.68465">
        <ele>1071.7</ele>
        <time>2021-08-20T09:12:12Z</time>
      </trkpt>
      <trkpt lat="46.1279" lon="5.68464">
        <ele>1071.7</ele>
        <time>2021-08-20T09:12:13Z</time>
      </trkpt>
      <trkpt lat="46.12789" lon="5.68464">
        <ele>1071.8</ele>
        <time>2021-08-20T09:12:15Z</time>
      </trkpt>
      <trkpt lat="46.12787" lon="5.68464">
        <ele>1072</ele>
        <time>2021-08-20T09:12:16Z</time>
      </trkpt>
      <trkpt lat="46.12785" lon="5.68464">
        <ele>1072.1</ele>
        <time>2021-08-20T09:12:18Z</time>
      </trkpt>
      <trkpt lat="46.12761" lon="5.68465">
        <ele>1073.5</ele>
        <time>2021-08-20T09:12:31Z</time>
      </trkpt>
      <trkpt lat="46.12758" lon="5.68465">
        <ele>1073.7</ele>
        <time>2021-08-20T09:12:32Z</time>
      </trkpt>
      <trkpt lat="46.12755" lon="5.68466">
        <ele>1073.9</ele>
        <time>2021-08-20T09:12:33Z</time>
      </trkpt>
      <trkpt lat="46.12754" lon="5.68466">
        <ele>1074</ele>
        <time>2021-08-20T09:12:34Z</time>
      </trkpt>
      <trkpt lat="46.12753" lon="5.68467">
        <ele>1074.1</ele>
        <time>2021-08-20T09:12:36Z</time>
      </trkpt>
      <trkpt lat="46.12752" lon="5.68467">
        <ele>1074.1</ele>
        <time>2021-08-20T09:12:37Z</time>
      </trkpt>
      <trkpt lat="46.12751" lon="5.68468">
        <ele>1074.1</ele>
        <time>2021-08-20T09:12:38Z</time>
      </trkpt>
      <trkpt lat="46.12751" lon="5.68468">
        <ele>1074.2</ele>
        <time>2021-08-20T09:12:39Z</time>
      </trkpt>
      <trkpt lat="46.1275" lon="5.68468">
        <ele>1074.2</ele>
        <time>2021-08-20T09:12:41Z</time>
      </trkpt>
      <trkpt lat="46.12749" lon="5.68469">
        <ele>1074.3</ele>
        <time>2021-08-20T09:12:42Z</time>
      </trkpt>
      <trkpt lat="46.12738" lon="5.68471">
        <ele>1075</ele>
        <time>2021-08-20T09:12:48Z</time>
      </trkpt>
      <trkpt lat="46.12735" lon="5.68468">
        <ele>1075.2</ele>
        <time>2021-08-20T09:12:49Z</time>
      </trkpt>
      <trkpt lat="46.12732" lon="5.68467">
        <ele>1075.3</ele>
        <time>2021-08-20T09:12:50Z</time>
      </trkpt>
      <trkpt lat="46.12728" lon="5.68467">
        <ele>1075.6</ele>
        <time>2021-08-20T09:12:52Z</time>
      </trkpt>
      <trkpt lat="46.12726" lon="5.68467">
        <ele>1075.7</ele>
        <time>2021-08-20T09:12:53Z</time>
      </trkpt>
      <trkpt lat="46.12725" lon="5.68466">
        <ele>1075.8</ele>
        <time>2021-08-20T09:12:54Z</time>
      </trkpt>
      <trkpt lat="46.12723" lon="5.68466">
        <ele>1075.9</ele>
        <time>2021-08-20T09:12:56Z</time>
      </trkpt>
      <trkpt lat="46.12721" lon="5.68467">
        <ele>1076.1</ele>
        <time>2021-08-20T09:12:58Z</time>
      </trkpt>
      <trkpt lat="46.1272" lon="5.68468">
        <ele>1076.1</ele>
        <time>2021-08-20T09:13:00Z</time>
      </trkpt>
      <trkpt lat="46.12719" lon="5.6847">
        <ele>1076.3</ele>
        <time>2021-08-20T09:13:02Z</time>
      </trkpt>
      <trkpt lat="46.1271" lon="5.68475">
        <ele>1076.9</ele>
        <time>2021-08-20T09:13:08Z</time>
      </trkpt>
      <trkpt lat="46.12708" lon="5.68475">
        <ele>1077.1</ele>
        <time>2021-08-20T09:13:09Z</time>
      </trkpt>
      <trkpt lat="46.12706" lon="5.68474">
        <ele>1077.2</ele>
        <time>2021-08-20T09:13:11Z</time>
      </trkpt>
      <trkpt lat="46.12703" lon="5.68472">
        <ele>1077.5</ele>
        <time>2021-08-20T09:13:12Z</time>
      </trkpt>
      <trkpt lat="46.12698" lon="5.68469">
        <ele>1077.8</ele>
        <time>2021-08-20T09:13:14Z</time>
      </trkpt>
      <trkpt lat="46.12695" lon="5.68468">
        <ele>1078</ele>
        <time>2021-08-20T09:13:15Z</time>
      </trkpt>
      <trkpt lat="46.12695" lon="5.68468">
        <ele>1078.1</ele>
        <time>2021-08-20T09:13:17Z</time>
      </trkpt>
      <trkpt lat="46.12694" lon="5.68469">
        <ele>1078.1</ele>
        <time>2021-08-20T09:13:19Z</time>
      </trkpt>
      <trkpt lat="46.12693" lon="5.6847">
        <ele>1078.2</ele>
        <time>2021-08-20T09:13:20Z</time>
      </trkpt>
      <trkpt lat="46.12693" lon="5.6847">
        <ele>1078.2</ele>
        <time>2021-08-20T09:13:22Z</time>
      </trkpt>
      <trkpt lat="46.12634" lon="5.68493">
        <ele>1082.5</ele>
        <time>2021-08-20T09:15:48Z</time>
      </trkpt>
      <trkpt lat="46.1263" lon="5.68492">
        <ele>1082.8</ele>
        <time>2021-08-20T09:15:50Z</time>
      </trkpt>
      <trkpt lat="46.12618" lon="5.68492">
        <ele>1083.6</ele>
        <time>2021-08-20T09:15:52Z</time>
      </trkpt>
      <trkpt lat="46.12615" lon="5.6849">
        <ele>1083.8</ele>
        <time>2021-08-20T09:15:53Z</time>
      </trkpt>
      <trkpt lat="46.1261" lon="5.68488">
        <ele>1084.1</ele>
        <time>2021-08-20T09:15:54Z</time>
      </trkpt>
      <trkpt lat="46.12608" lon="5.68486">
        <ele>1084.2</ele>
        <time>2021-08-20T09:15:55Z</time>
      </trkpt>
      <trkpt lat="46.12606" lon="5.68486">
        <ele>1084.4</ele>
        <time>2021-08-20T09:15:56Z</time>
      </trkpt>
      <trkpt lat="46.12606" lon="5.68486">
        <ele>1084.4</ele>
        <time>2021-08-20T09:15:58Z</time>
      </trkpt>
      <trkpt lat="46.12607" lon="5.68486">
        <ele>1084.5</ele>
        <time>2021-08-20T09:16:00Z</time>
      </trkpt>
      <trkpt lat="46.12607" lon="5.68487">
        <ele>1084.5</ele>
        <time>2021-08-20T09:16:01Z</time>
      </trkpt>
      <trkpt lat="46.12609" lon="5.68488">
        <ele>1084.6</ele>
        <time>2021-08-20T09:16:02Z</time>
      </trkpt>
      <trkpt lat="46.12611" lon="5.6849">
        <ele>1084.8</ele>
        <time>2021-08-20T09:16:04Z</time>
      </trkpt>
      <trkpt lat="46.12612" lon="5.6849">
        <ele>1084.8</ele>
        <time>2021-08-20T09:16:05Z</time>
      </trkpt>
      <trkpt lat="46.12612" lon="5.68491">
        <ele>1084.9</ele>
        <time>2021-08-20T09:16:06Z</time>
      </trkpt>
      <trkpt lat="46.1247" lon="5.68477">
        <ele>1092.5</ele>
        <time>2021-08-20T09:18:19Z</time>
      </trkpt>
      <trkpt lat="46.12466" lon="5.68476">
        <ele>1092.7</ele>
        <time>2021-08-20T09:18:20Z</time>
      </trkpt>
      <trkpt lat="46.12463" lon="5.68474">
        <ele>1092.9</ele>
        <time>2021-08-20T09:18:22Z</time>
      </trkpt>
      <trkpt lat="46.12458" lon="5.68472">
        <ele>1093.1</ele>
        <time>2021-08-20T09:18:23Z</time>
      </trkpt>
      <trkpt lat="46.12455" lon="5.68471">
        <ele>1093.3</ele>
        <time>2021-08-20T09:18:24Z</time>
      </trkpt>
      <trkpt lat="46.12445" lon="5.68472">
        <ele>1093.8</ele>
        <time>2021-08-20T09:18:25Z</time>
      </trkpt>
      <trkpt lat="46.12433" lon="5.68473">
        <ele>1094.4</ele>
        <time>2021-08-20T09:18:26Z</time>
      </trkpt>
      <trkpt lat="46.12428" lon="5.68474">
        <ele>1094.7</ele>
        <time>2021-08-20T09:18:27Z</time>
      </trkpt>
      <trkpt lat="46.12427" lon="5.68474">
        <ele>1094.7</ele>
        <time>2021-08-20T09:18:28Z</time>
      </trkpt>
      <trkpt lat="46.12426" lon="5.68474">
        <ele>1094.8</ele>
        <time>2021-08-20T09:18:30Z</time>
      </trkpt>
      <trkpt lat="46.12425" lon="5.68474">
        <ele>1094.8</ele>
        <time>2021-08-20T09:18:31Z</time>
      </trkpt>
      <trkpt lat="46.12424" lon="5.68475">
        <ele>1094.9</ele>
        <time>2021-08-20T09:18:33Z</time>
      </trkpt>
      <trkpt lat="46.12423" lon="5.68475">
        <ele>1094.9</ele>
        <time>2021-08-20T09:18:34Z</time>
      </trkpt>
      <trkpt lat="46.123" lon="5.68468">
        <ele>1101.3</ele>
        <time>2021-08-20T09:20:18Z</time>
      </trkpt>
      <trkpt lat="46.12297" lon="5.68466">
        <ele>1101.5</ele>
        <time>2021-08-20T09:20:19Z</time>
      </trkpt>
      <trkpt lat="46.12295" lon="5.68466">
        <ele>1101.6</ele>
        <time>2021-08-20T09:20:20Z</time>
      </trkpt>
      <trkpt lat="46.12291" lon="5.68465">
        <ele>1101.8</ele>
        <time>2021-08-20T09:20:22Z</time>
      </trkpt>
      <trkpt lat="46.12289" lon="5.68464">
        <ele>1101.9</ele>
        <time>2021-08-20T09:20:23Z</time>
      </trkpt>
      <trkpt lat="46.12288" lon="5.68464">
        <ele>1102</ele>
        <time>2021-08-20T09:20:24Z</time>
      </trkpt>
      <trkpt lat="46.12288" lon="5.68465">
        <ele>1102</ele>
        <time>2021-08-20T09:20:25Z</time>
      </trkpt>
      <trkpt lat="46.12287" lon="5.68465">
        <ele>1102.1</ele>
        <time>2021-08-20T09:20:26Z</time>
      </trkpt>
      <trkpt lat="46.12286" lon="5.68466">
        <ele>1102.1</ele>
        <time>2021-08-20T09:20:27Z</time>
      </trkpt>
      <trkpt lat="46.12286" lon="5.68467">
        <ele>1102.2</ele>
        <time>2021-08-20T09:20:28Z</time>
      </trkpt>
      <trkpt lat="46.12284" lon="5.68469">
        <ele>1102.3</ele>
        <time>2021-08-20T09:20:30Z</time>
      </trkpt>
      <trkpt lat="46.12283" lon="5.6847">
        <ele>1102.3</ele>
        <time>2021-08-20T09:20:31Z</time>
      </trkpt>
      <trkpt lat="46.12283" lon="5.6847">
        <ele>1102.4</ele>
        <time>2021-08-20T09:20:32Z</time>
      </trkpt>
      <trkpt lat="46.12279" lon="5.68472">
        <ele>1102.6</ele>
        <time>2021-08-20T09:20:33Z</time>
      </trkpt>
      <trkpt lat="46.12276" lon="5.68474">
        <ele>1102.8</ele>
        <time>2021-08-20T09:20:34Z</time>
      </trkpt>
      <trkpt lat="46.12275" lon="5.68474">
        <ele>1102.9</ele>
        <time>2021-08-20T09:20:35Z</time>
      </trkpt>
      <trkpt lat="46.12272" lon="5.68475">
        <ele>1103.1</ele>
        <time>2021-08-20T09:20:36Z</time>
      </trkpt>
      <trkpt lat="46.12271" lon="5.68476">
        <ele>1103.1</ele>
        <time>2021-08-20T09:20:37Z</time>
      </trkpt>
      <trkpt lat="46.12268" lon="5.68475">
        <ele>1103.3</ele>
        <time>2021-08-20T09:20:38Z</time>
      </trkpt>
      <trkpt lat="46.12267" lon="5.68474">
        <ele>1103.4</ele>
        <time>2021-08-20T09:20:39Z</time>
      </trkpt>
      <trkpt lat="46.12265" lon="5.68474">
        <ele>1103.5</ele>
        <time>2021-08-20T09:20:40Z</time>
      </trkpt>
      <trkpt lat="46.12263" lon="5.68473">
        <ele>1103.6</ele>
        <time>2021-08-20T09:20:41Z</time>
      </trkpt>
      <trkpt lat="46.12262" lon="5.68472">
        <ele>1103.7</ele>
        <time>2021-08-20T09:20:43Z</time>
      </trkpt>
      <trkpt lat="46.1226" lon="5.68467">
        <ele>1103.9</ele>
        <time>2021-08-20T09:20:45Z</time>
      </trkpt>
      <trkpt lat="46.12261" lon="5.68467">
        <ele>1104</ele>
        <time>2021-08-20T09:20:46Z</time>
      </trkpt>
      <trkpt lat="46.12261" lon="5.68466">
        <ele>1104</ele>
        <time>2021-08-20T09:20:48Z</time>
      </trkpt>
      <trkpt lat="46.12261" lon="5.68466">
        <ele>1104</ele>
        <time>2021-08-20T09:20:50Z</time>
      </trkpt>
      <trkpt lat="46.12261" lon="5.68466">
        <ele>1104</ele>
        <time>2021-08-20T09:20:51Z</time>
      </trkpt>
      <trkpt lat="46.12261" lon="5.68466">
        <ele>1104.1</ele>
        <time>2021-08-20T09:20:52Z</time>
      </trkpt>
      <trkpt lat="46.1226" lon="5.68467">
        <ele>1104.1</ele>
        <time>2021-08-20T09:20:53Z</time>
      </trkpt>
      <trkpt lat="46.12248" lon="5.68465">
        <ele>1104.9</ele>
        <time>2021-08-20T09:21:00Z</time>
      </trkpt>
      <trkpt lat="46.12246" lon="5.68466">
        <ele>1105</ele>
        <time>2021-08-20T09:21:01Z</time>
      </trkpt>
      <trkpt lat="46.12245" lon="5.68467">
        <ele>1105.1</ele>
        <time>2021-08-20T09:21:03Z</time>
      </trkpt>
      <trkpt lat="46.12244" lon="5.68467">
        <ele>1105.2</ele>
        <time>2021-08-20T09:21:04Z</time>
      </trkpt>
      <trkpt lat="46.12242" lon="5.68467">
        <ele>1105.3</ele>
        <time>2021-08-20T09:21:05Z</time>
      </trkpt>
      <trkpt lat="46.1224" lon="5.68466">
        <ele>1105.4</ele>
        <time>2021-08-20T09:21:07Z</time>
      </trkpt>
      <trkpt lat="46.12238" lon="5.68465">
        <ele>1105.6</ele>
        <time>2021-08-20T09:21:08Z</time>
      </trkpt>
      <trkpt lat="46.12237" lon="5.68465">
        <ele>1105.6</ele>
        <time>2021-08-20T09:21:09Z</time>
      </trkpt>
      <trkpt lat="46.12236" lon="5.68465">
        <ele>1105.7</ele>
        <time>2021-08-20T09:21:10Z</time>
      </trkpt>
      <trkpt lat="46.12235" lon="5.68464">
        <ele>1105.7</ele>
        <time>2021-08-20T09:21:11Z</time>
      </trkpt>
      <trkpt lat="46.12235" lon="5.68464">
        <ele>1105.7</ele>
        <time>2021-08-20T09:21:13Z</time>
      </trkpt>
      <trkpt lat="46.12234" lon="5.68464">
        <ele>1105.8</ele>
        <time>2021-08-20T09:21:14Z</time>
      </trkpt>
      <trkpt lat="46.12234" lon="5.68464">
        <ele>1105.8</ele>
        <time>2021-08-20T09:21:15Z</time>
      </trkpt>
      <trkpt lat="46.12233" lon="5.68464">
        <ele>1105.8</ele>
        <time>2021-08-20T09:21:16Z</time>
      </trkpt>
      <trkpt lat="46.12233" lon="5.68464">
        <ele>1105.8</ele>
        <time>2021-08-20T09:21:17Z</time>
      </trkpt>
      <trkpt lat="46.12233" lon="5.68464">
        <ele>1105.9</ele>
        <time>2021-08-20T09:21:19Z</time>
      </trkpt>
      <trkpt lat="46.12232" lon="5.68464">
        <ele>1105.9</ele>
        <time>2021-08-20T09:21:20Z</time>
      </trkpt>
      <trkpt lat="46.12232" lon="5.68463">
        <ele>1105.9</ele>
        <time>2021-08-20T09:21:21Z</time>
      </trkpt>
      <trkpt lat="46.12232" lon="5.68463">
        <ele>1105.9</ele>
        <time>2021-08-20T09:21:22Z</time>
      </trkpt>
      <trkpt lat="46.12232" lon="5.68463">
        <ele>1105.9</ele>
        <time>2021-08-20T09:21:24Z</time>
      </trkpt>
      <trkpt lat="46.12231" lon="5.68464">
        <ele>1106</ele>
        <time>2021-08-20T09:21:25Z</time>
      </trkpt>
      <trkpt lat="46.12229" lon="5.68466">
        <ele>1106.1</ele>
        <time>2021-08-20T09:21:26Z</time>
      </trkpt>
      <trkpt lat="46.12228" lon="5.68467">
        <ele>1106.2</ele>
        <time>2021-08-20T09:21:27Z</time>
      </trkpt>
      <trkpt lat="46.12227" lon="5.68468">
        <ele>1106.2</ele>
        <time>2021-08-20T09:21:28Z</time>
      </trkpt>
      <trkpt lat="46.12226" lon="5.68469">
        <ele>1106.3</ele>
        <time>2021-08-20T09:21:29Z</time>
      </trkpt>
      <trkpt lat="46.12225" lon="5.6847">
        <ele>1106.4</ele>
        <time>2021-08-20T09:21:30Z</time>
      </trkpt>
      <trkpt lat="46.12225" lon="5.68471">
        <ele>1106.4</ele>
        <time>2021-08-20T09:21:31Z</time>
      </trkpt>
      <trkpt lat="46.12223" lon="5.68473">
        <ele>1106.6</ele>
        <time>2021-08-20T09:21:33Z</time>
      </trkpt>
      <trkpt lat="46.12221" lon="5.68476">
        <ele>1106.7</ele>
        <time>2021-08-20T09:21:34Z</time>
      </trkpt>
      <trkpt lat="46.1222" lon="5.68478">
        <ele>1106.8</ele>
        <time>2021-08-20T09:21:36Z</time>
      </trkpt>
      <trkpt lat="46.12216" lon="5.6848">
        <ele>1107.1</ele>
        <time>2021-08-20T09:21:38Z</time>
      </trkpt>
      <trkpt lat="46.12212" lon="5.68482">
        <ele>1107.4</ele>
        <time>2021-08-20T09:21:39Z</time>
      </trkpt>
      <trkpt lat="46.12209" lon="5.68483">
        <ele>1107.6</ele>
        <time>2021-08-20T09:21:40Z</time>
      </trkpt>
      <trkpt lat="46.12204" lon="5.68482">
        <ele>1107.9</ele>
        <time>2021-08-20T09:21:42Z</time>
      </trkpt>
      <trkpt lat="46.12202" lon="5.6848">
        <ele>1108</ele>
        <time>2021-08-20T09:21:44Z</time>
      </trkpt>
      <trkpt lat="46.12202" lon="5.68479">
        <ele>1108.1</ele>
        <time>2021-08-20T09:21:45Z</time>
      </trkpt>
      <trkpt lat="46.12202" lon="5.68478">
        <ele>1108.1</ele>
        <time>2021-08-20T09:21:46Z</time>
      </trkpt>
      <trkpt lat="46.12202" lon="5.68477">
        <ele>1108.2</ele>
        <time>2021-08-20T09:21:47Z</time>
      </trkpt>
      <trkpt lat="46.12202" lon="5.68477">
        <ele>1108.2</ele>
        <time>2021-08-20T09:21:48Z</time>
      </trkpt>
      <trkpt lat="46.12202" lon="5.68476">
        <ele>1108.2</ele>
        <time>2021-08-20T09:21:49Z</time>
      </trkpt>
      <trkpt lat="46.12202" lon="5.68476">
        <ele>1108.2</ele>
        <time>2021-08-20T09:21:50Z</time>
      </trkpt>
      <trkpt lat="46.12202" lon="5.68476">
        <ele>1108.2</ele>
        <time>2021-08-20T09:21:51Z</time>
      </trkpt>
      <trkpt lat="46.12202" lon="5.68476">
        <ele>1108.2</ele>
        <time>2021-08-20T09:21:52Z</time>
      </trkpt>
      <trkpt lat="46.12178" lon="5.68499">
        <ele>1110.3</ele>
        <time>2021-08-20T09:22:36Z</time>
      </trkpt>
      <trkpt lat="46.12177" lon="5.685">
        <ele>1110.5</ele>
        <time>2021-08-20T09:22:37Z</time>
      </trkpt>
      <trkpt lat="46.12175" lon="5.68501">
        <ele>1110.7</ele>
        <time>2021-08-20T09:22:38Z</time>
      </trkpt>
      <trkpt lat="46.12174" lon="5.68503">
        <ele>1110.8</ele>
        <time>2021-08-20T09:22:39Z</time>
      </trkpt>
      <trkpt lat="46.12173" lon="5.68504">
        <ele>1111</ele>
        <time>2021-08-20T09:22:40Z</time>
      </trkpt>
      <trkpt lat="46.12172" lon="5.68504">
        <ele>1111.1</ele>
        <time>2021-08-20T09:22:42Z</time>
      </trkpt>
      <trkpt lat="46.12171" lon="5.68505">
        <ele>1111.2</ele>
        <time>2021-08-20T09:22:43Z</time>
      </trkpt>
      <trkpt lat="46.1217" lon="5.68506">
        <ele>1111.3</ele>
        <time>2021-08-20T09:22:44Z</time>
      </trkpt>
      <trkpt lat="46.12169" lon="5.68506">
        <ele>1111.4</ele>
        <time>2021-08-20T09:22:45Z</time>
      </trkpt>
      <trkpt lat="46.12166" lon="5.68508">
        <ele>1111.6</ele>
        <time>2021-08-20T09:22:47Z</time>
      </trkpt>
      <trkpt lat="46.12165" lon="5.68508">
        <ele>1111.8</ele>
        <time>2021-08-20T09:22:48Z</time>
      </trkpt>
      <trkpt lat="46.1216" lon="5.6851">
        <ele>1112.2</ele>
        <time>2021-08-20T09:22:49Z</time>
      </trkpt>
      <trkpt lat="46.12157" lon="5.6851">
        <ele>1112.6</ele>
        <time>2021-08-20T09:22:50Z</time>
      </trkpt>
      <trkpt lat="46.12153" lon="5.68509">
        <ele>1112.9</ele>
        <time>2021-08-20T09:22:52Z</time>
      </trkpt>
      <trkpt lat="46.12148" lon="5.68511">
        <ele>1113.3</ele>
        <time>2021-08-20T09:22:53Z</time>
      </trkpt>
      <trkpt lat="46.12145" lon="5.68513">
        <ele>1113.6</ele>
        <time>2021-08-20T09:22:54Z</time>
      </trkpt>
      <trkpt lat="46.12142" lon="5.68515">
        <ele>1113.8</ele>
        <time>2021-08-20T09:22:55Z</time>
      </trkpt>
      <trkpt lat="46.12139" lon="5.68515">
        <ele>1114.1</ele>
        <time>2021-08-20T09:22:56Z</time>
      </trkpt>
      <trkpt lat="46.12139" lon="5.68515">
        <ele>1114.2</ele>
        <time>2021-08-20T09:22:57Z</time>
      </trkpt>
      <trkpt lat="46.12135" lon="5.68513">
        <ele>1114.5</ele>
        <time>2021-08-20T09:22:58Z</time>
      </trkpt>
      <trkpt lat="46.12134" lon="5.68512">
        <ele>1114.6</ele>
        <time>2021-08-20T09:22:59Z</time>
      </trkpt>
      <trkpt lat="46.12133" lon="5.68511">
        <ele>1114.7</ele>
        <time>2021-08-20T09:23:00Z</time>
      </trkpt>
      <trkpt lat="46.12131" lon="5.6851">
        <ele>1114.9</ele>
        <time>2021-08-20T09:23:01Z</time>
      </trkpt>
      <trkpt lat="46.1213" lon="5.6851">
        <ele>1115</ele>
        <time>2021-08-20T09:23:02Z</time>
      </trkpt>
      <trkpt lat="46.12128" lon="5.6851">
        <ele>1115.1</ele>
        <time>2021-08-20T09:23:03Z</time>
      </trkpt>
      <trkpt lat="46.12126" lon="5.6851">
        <ele>1115.3</ele>
        <time>2021-08-20T09:23:05Z</time>
      </trkpt>
      <trkpt lat="46.12124" lon="5.6851">
        <ele>1115.5</ele>
        <time>2021-08-20T09:23:07Z</time>
      </trkpt>
      <trkpt lat="46.12119" lon="5.6851">
        <ele>1115.9</ele>
        <time>2021-08-20T09:23:09Z</time>
      </trkpt>
      <trkpt lat="46.12118" lon="5.6851">
        <ele>1116</ele>
        <time>2021-08-20T09:23:10Z</time>
      </trkpt>
      <trkpt lat="46.12116" lon="5.6851">
        <ele>1116.1</ele>
        <time>2021-08-20T09:23:11Z</time>
      </trkpt>
      <trkpt lat="46.12115" lon="5.6851">
        <ele>1116.2</ele>
        <time>2021-08-20T09:23:12Z</time>
      </trkpt>
      <trkpt lat="46.12115" lon="5.6851">
        <ele>1116.3</ele>
        <time>2021-08-20T09:23:13Z</time>
      </trkpt>
      <trkpt lat="46.12114" lon="5.6851">
        <ele>1116.4</ele>
        <time>2021-08-20T09:23:14Z</time>
      </trkpt>
      <trkpt lat="46.12113" lon="5.6851">
        <ele>1116.5</ele>
        <time>2021-08-20T09:23:15Z</time>
      </trkpt>
      <trkpt lat="46.12112" lon="5.6851">
        <ele>1116.6</ele>
        <time>2021-08-20T09:23:16Z</time>
      </trkpt>
      <trkpt lat="46.1211" lon="5.6851">
        <ele>1116.7</ele>
        <time>2021-08-20T09:23:17Z</time>
      </trkpt>
      <trkpt lat="46.12109" lon="5.6851">
        <ele>1116.8</ele>
        <time>2021-08-20T09:23:18Z</time>
      </trkpt>
      <trkpt lat="46.12107" lon="5.68509">
        <ele>1116.9</ele>
        <time>2021-08-20T09:23:20Z</time>
      </trkpt>
      <trkpt lat="46.12085" lon="5.68508">
        <ele>1119</ele>
        <time>2021-08-20T09:23:39Z</time>
      </trkpt>
      <trkpt lat="46.12081" lon="5.68509">
        <ele>1119.3</ele>
        <time>2021-08-20T09:23:41Z</time>
      </trkpt>
      <trkpt lat="46.12078" lon="5.6851">
        <ele>1119.6</ele>
        <time>2021-08-20T09:23:42Z</time>
      </trkpt>
      <trkpt lat="46.12074" lon="5.68512">
        <ele>1120</ele>
        <time>2021-08-20T09:23:43Z</time>
      </trkpt>
      <trkpt lat="46.12072" lon="5.68512">
        <ele>1120.2</ele>
        <time>2021-08-20T09:23:45Z</time>
      </trkpt>
      <trkpt lat="46.12071" lon="5.68512">
        <ele>1120.3</ele>
        <time>2021-08-20T09:23:46Z</time>
      </trkpt>
      <trkpt lat="46.12068" lon="5.68511">
        <ele>1120.5</ele>
        <time>2021-08-20T09:23:49Z</time>
      </trkpt>
      <trkpt lat="46.12067" lon="5.6851">
        <ele>1120.6</ele>
        <time>2021-08-20T09:23:50Z</time>
      </trkpt>
      <trkpt lat="46.12064" lon="5.68508">
        <ele>1120.9</ele>
        <time>2021-08-20T09:23:52Z</time>
      </trkpt>
      <trkpt lat="46.12059" lon="5.68506">
        <ele>1121.3</ele>
        <time>2021-08-20T09:23:54Z</time>
      </trkpt>
      <trkpt lat="46.12055" lon="5.68504">
        <ele>1121.7</ele>
        <time>2021-08-20T09:23:55Z</time>
      </trkpt>
      <trkpt lat="46.12053" lon="5.68502">
        <ele>1121.9</ele>
        <time>2021-08-20T09:23:56Z</time>
      </trkpt>
      <trkpt lat="46.12052" lon="5.68501">
        <ele>1122</ele>
        <time>2021-08-20T09:23:57Z</time>
      </trkpt>
      <trkpt lat="46.1205" lon="5.685">
        <ele>1122.1</ele>
        <time>2021-08-20T09:23:59Z</time>
      </trkpt>
      <trkpt lat="46.12047" lon="5.68498">
        <ele>1122.4</ele>
        <time>2021-08-20T09:24:01Z</time>
      </trkpt>
      <trkpt lat="46.12046" lon="5.68498">
        <ele>1122.5</ele>
        <time>2021-08-20T09:24:02Z</time>
      </trkpt>
      <trkpt lat="46.12043" lon="5.68497">
        <ele>1122.7</ele>
        <time>2021-08-20T09:24:04Z</time>
      </trkpt>
      <trkpt lat="46.12042" lon="5.68497">
        <ele>1122.9</ele>
        <time>2021-08-20T09:24:05Z</time>
      </trkpt>
      <trkpt lat="46.12026" lon="5.68511">
        <ele>1124.3</ele>
        <time>2021-08-20T09:24:16Z</time>
      </trkpt>
      <trkpt lat="46.12025" lon="5.68513">
        <ele>1124.4</ele>
        <time>2021-08-20T09:24:17Z</time>
      </trkpt>
      <trkpt lat="46.12023" lon="5.68513">
        <ele>1124.6</ele>
        <time>2021-08-20T09:24:18Z</time>
      </trkpt>
      <trkpt lat="46.1202" lon="5.68514">
        <ele>1124.8</ele>
        <time>2021-08-20T09:24:20Z</time>
      </trkpt>
      <trkpt lat="46.12017" lon="5.68514">
        <ele>1125</ele>
        <time>2021-08-20T09:24:21Z</time>
      </trkpt>
      <trkpt lat="46.12015" lon="5.68513">
        <ele>1125.2</ele>
        <time>2021-08-20T09:24:22Z</time>
      </trkpt>
      <trkpt lat="46.12013" lon="5.68511">
        <ele>1125.5</ele>
        <time>2021-08-20T09:24:24Z</time>
      </trkpt>
      <trkpt lat="46.12009" lon="5.68507">
        <ele>1125.8</ele>
        <time>2021-08-20T09:24:25Z</time>
      </trkpt>
      <trkpt lat="46.12007" lon="5.68505">
        <ele>1126</ele>
        <time>2021-08-20T09:24:26Z</time>
      </trkpt>
      <trkpt lat="46.12004" lon="5.68502">
        <ele>1126.3</ele>
        <time>2021-08-20T09:24:27Z</time>
      </trkpt>
      <trkpt lat="46.12003" lon="5.68502">
        <ele>1126.4</ele>
        <time>2021-08-20T09:24:28Z</time>
      </trkpt>
      <trkpt lat="46.12001" lon="5.68501">
        <ele>1126.6</ele>
        <time>2021-08-20T09:24:30Z</time>
      </trkpt>
      <trkpt lat="46.11999" lon="5.68502">
        <ele>1126.7</ele>
        <time>2021-08-20T09:24:31Z</time>
      </trkpt>
      <trkpt lat="46.11998" lon="5.68503">
        <ele>1126.8</ele>
        <time>2021-08-20T09:24:32Z</time>
      </trkpt>
      <trkpt lat="46.11998" lon="5.68504">
        <ele>1126.9</ele>
        <time>2021-08-20T09:24:33Z</time>
      </trkpt>
      <trkpt lat="46.11998" lon="5.68504">
        <ele>1126.9</ele>
        <time>2021-08-20T09:24:35Z</time>
      </trkpt>
      <trkpt lat="46.11998" lon="5.68504">
        <ele>1126.9</ele>
        <time>2021-08-20T09:24:36Z</time>
      </trkpt>
      <trkpt lat="46.11998" lon="5.68505">
        <ele>1127</ele>
        <time>2021-08-20T09:24:37Z</time>
      </trkpt>
      <trkpt lat="46.11997" lon="5.68505">
        <ele>1127</ele>
        <time>2021-08-20T09:24:38Z</time>
      </trkpt>
      <trkpt lat="46.11997" lon="5.68505">
        <ele>1127</ele>
        <time>2021-08-20T09:24:39Z</time>
      </trkpt>
      <trkpt lat="46.11997" lon="5.68505">
        <ele>1127</ele>
        <time>2021-08-20T09:24:40Z</time>
      </trkpt>
      <trkpt lat="46.11997" lon="5.68505">
        <ele>1127</ele>
        <time>2021-08-20T09:24:42Z</time>
      </trkpt>
      <trkpt lat="46.11922" lon="5.68448">
        <ele>1133.8</ele>
        <time>2021-08-20T09:28:53Z</time>
      </trkpt>
      <trkpt lat="46.11917" lon="5.68442">
        <ele>1134.4</ele>
        <time>2021-08-20T09:28:54Z</time>
      </trkpt>
      <trkpt lat="46.11912" lon="5.68435">
        <ele>1135</ele>
        <time>2021-08-20T09:28:56Z</time>
      </trkpt>
      <trkpt lat="46.1191" lon="5.68433">
        <ele>1135.2</ele>
        <time>2021-08-20T09:28:57Z</time>
      </trkpt>
      <trkpt lat="46.11909" lon="5.68432">
        <ele>1135.3</ele>
        <time>2021-08-20T09:28:59Z</time>
      </trkpt>
      <trkpt lat="46.11908" lon="5.68431">
        <ele>1135.4</ele>
        <time>2021-08-20T09:29:00Z</time>
      </trkpt>
      <trkpt lat="46.11905" lon="5.68427">
        <ele>1135.6</ele>
        <time>2021-08-20T09:29:02Z</time>
      </trkpt>
      <trkpt lat="46.11901" lon="5.68421">
        <ele>1136</ele>
        <time>2021-08-20T09:29:04Z</time>
      </trkpt>
      <trkpt lat="46.11899" lon="5.68417">
        <ele>1136.3</ele>
        <time>2021-08-20T09:29:06Z</time>
      </trkpt>
      <trkpt lat="46.11898" lon="5.68415">
        <ele>1136.4</ele>
        <time>2021-08-20T09:29:08Z</time>
      </trkpt>
      <trkpt lat="46.11898" lon="5.68412">
        <ele>1136.5</ele>
        <time>2021-08-20T09:29:10Z</time>
      </trkpt>
      <trkpt lat="46.11898" lon="5.68412">
        <ele>1136.5</ele>
        <time>2021-08-20T09:29:12Z</time>
      </trkpt>
      <trkpt lat="46.11898" lon="5.68409">
        <ele>1136.6</ele>
        <time>2021-08-20T09:29:13Z</time>
      </trkpt>
      <trkpt lat="46.11898" lon="5.68406">
        <ele>1136.8</ele>
        <time>2021-08-20T09:29:15Z</time>
      </trkpt>
      <trkpt lat="46.11898" lon="5.68402">
        <ele>1136.9</ele>
        <time>2021-08-20T09:29:16Z</time>
      </trkpt>
      <trkpt lat="46.11898" lon="5.68398">
        <ele>1137.1</ele>
        <time>2021-08-20T09:29:18Z</time>
      </trkpt>
      <trkpt lat="46.11897" lon="5.68394">
        <ele>1137.3</ele>
        <time>2021-08-20T09:29:19Z</time>
      </trkpt>
      <trkpt lat="46.11896" lon="5.68395">
        <ele>1137.3</ele>
        <time>2021-08-20T09:29:21Z</time>
      </trkpt>
      <trkpt lat="46.11896" lon="5.68395">
        <ele>1137.4</ele>
        <time>2021-08-20T09:29:23Z</time>
      </trkpt>
      <trkpt lat="46.11895" lon="5.68395">
        <ele>1137.4</ele>
        <time>2021-08-20T09:29:24Z</time>
      </trkpt>
      <trkpt lat="46.11895" lon="5.68395">
        <ele>1137.4</ele>
        <time>2021-08-20T09:29:25Z</time>
      </trkpt>
      <trkpt lat="46.11894" lon="5.68395">
        <ele>1137.5</ele>
        <time>2021-08-20T09:29:26Z</time>
      </trkpt>
      <trkpt lat="46.11893" lon="5.68393">
        <ele>1137.5</ele>
        <time>2021-08-20T09:29:27Z</time>
      </trkpt>
      <trkpt lat="46.11893" lon="5.68392">
        <ele>1137.6</ele>
        <time>2021-08-20T09:29:29Z</time>
      </trkpt>
      <trkpt lat="46.11886" lon="5.68374">
        <ele>1138.4</ele>
        <time>2021-08-20T09:29:40Z</time>
      </trkpt>
      <trkpt lat="46.11884" lon="5.68373">
        <ele>1138.5</ele>
        <time>2021-08-20T09:29:41Z</time>
      </trkpt>
      <trkpt lat="46.11883" lon="5.68372">
        <ele>1138.6</ele>
        <time>2021-08-20T09:29:42Z</time>
      </trkpt>
      <trkpt lat="46.1188" lon="5.6837">
        <ele>1138.8</ele>
        <time>2021-08-20T09:29:44Z</time>
      </trkpt>
      <trkpt lat="46.11873" lon="5.68366">
        <ele>1139.1</ele>
        <time>2021-08-20T09:29:45Z</time>
      </trkpt>
      <trkpt lat="46.11871" lon="5.68364">
        <ele>1139.2</ele>
        <time>2021-08-20T09:29:46Z</time>
      </trkpt>
      <trkpt lat="46.11869" lon="5.68363">
        <ele>1139.3</ele>
        <time>2021-08-20T09:29:48Z</time>
      </trkpt>
      <trkpt lat="46.11869" lon="5.68363">
        <ele>1139.3</ele>
        <time>2021-08-20T09:29:49Z</time>
      </trkpt>
      <trkpt lat="46.11868" lon="5.68362">
        <ele>1139.4</ele>
        <time>2021-08-20T09:29:52Z</time>
      </trkpt>
      <trkpt lat="46.11867" lon="5.68362">
        <ele>1139.4</ele>
        <time>2021-08-20T09:29:53Z</time>
      </trkpt>
      <trkpt lat="46.11865" lon="5.68362">
        <ele>1139.4</ele>
        <time>2021-08-20T09:29:54Z</time>
      </trkpt>
      <trkpt lat="46.11861" lon="5.68363">
        <ele>1139.5</ele>
        <time>2021-08-20T09:29:55Z</time>
      </trkpt>
      <trkpt lat="46.1186" lon="5.68363">
        <ele>1139.5</ele>
        <time>2021-08-20T09:29:56Z</time>
      </trkpt>
      <trkpt lat="46.11858" lon="5.68364">
        <ele>1139.6</ele>
        <time>2021-08-20T09:29:58Z</time>
      </trkpt>
      <trkpt lat="46.11856" lon="5.68367">
        <ele>1139.6</ele>
        <time>2021-08-20T09:29:59Z</time>
      </trkpt>
      <trkpt lat="46.11854" lon="5.6837">
        <ele>1139.6</ele>
        <time>2021-08-20T09:30:00Z</time>
      </trkpt>
      <trkpt lat="46.11853" lon="5.68375">
        <ele>1139.6</ele>
        <time>2021-08-20T09:30:02Z</time>
      </trkpt>
      <trkpt lat="46.11851" lon="5.6838">
        <ele>1139.5</ele>
        <time>2021-08-20T09:30:03Z</time>
      </trkpt>
      <trkpt lat="46.11845" lon="5.68396">
        <ele>1139.2</ele>
        <time>2021-08-20T09:30:04Z</time>
      </trkpt>
      <trkpt lat="46.11843" lon="5.68402">
        <ele>1139</ele>
        <time>2021-08-20T09:30:05Z</time>
      </trkpt>
      <trkpt lat="46.11837" lon="5.6842">
        <ele>1138.5</ele>
        <time>2021-08-20T09:30:07Z</time>
      </trkpt>
      <trkpt lat="46.11835" lon="5.68427">
        <ele>1138.3</ele>
        <time>2021-08-20T09:30:08Z</time>
      </trkpt>
      <trkpt lat="46.1183" lon="5.68442">
        <ele>1137.9</ele>
        <time>2021-08-20T09:30:10Z</time>
      </trkpt>
      <trkpt lat="46.11826" lon="5.68455">
        <ele>1137.6</ele>
        <time>2021-08-20T09:30:12Z</time>
      </trkpt>
      <trkpt lat="46.11826" lon="5.68461">
        <ele>1137.5</ele>
        <time>2021-08-20T09:30:13Z</time>
      </trkpt>
      <trkpt lat="46.11822" lon="5.68467">
        <ele>1137.4</ele>
        <time>2021-08-20T09:30:14Z</time>
      </trkpt>
      <trkpt lat="46.1182" lon="5.68471">
        <ele>1137.3</ele>
        <time>2021-08-20T09:30:16Z</time>
      </trkpt>
      <trkpt lat="46.11819" lon="5.68472">
        <ele>1137.3</ele>
        <time>2021-08-20T09:30:17Z</time>
      </trkpt>
      <trkpt lat="46.11811" lon="5.68485">
        <ele>1136.9</ele>
        <time>2021-08-20T09:30:18Z</time>
      </trkpt>
      <trkpt lat="46.11798" lon="5.68502">
        <ele>1136.4</ele>
        <time>2021-08-20T09:30:20Z</time>
      </trkpt>
      <trkpt lat="46.11788" lon="5.68519">
        <ele>1136</ele>
        <time>2021-08-20T09:30:22Z</time>
      </trkpt>
      <trkpt lat="46.11784" lon="5.68525">
        <ele>1135.8</ele>
        <time>2021-08-20T09:30:23Z</time>
      </trkpt>
      <trkpt lat="46.11777" lon="5.68537">
        <ele>1135.5</ele>
        <time>2021-08-20T09:30:25Z</time>
      </trkpt>
      <trkpt lat="46.11774" lon="5.68544">
        <ele>1135.4</ele>
        <time>2021-08-20T09:30:26Z</time>
      </trkpt>
      <trkpt lat="46.11766" lon="5.68554">
        <ele>1135.2</ele>
        <time>2021-08-20T09:30:28Z</time>
      </trkpt>
      <trkpt lat="46.1176" lon="5.68566">
        <ele>1135</ele>
        <time>2021-08-20T09:30:30Z</time>
      </trkpt>
      <trkpt lat="46.11754" lon="5.68576">
        <ele>1134.9</ele>
        <time>2021-08-20T09:30:32Z</time>
      </trkpt>
      <trkpt lat="46.11749" lon="5.68587">
        <ele>1134.8</ele>
        <time>2021-08-20T09:30:34Z</time>
      </trkpt>
      <trkpt lat="46.11743" lon="5.68597">
        <ele>1134.7</ele>
        <time>2021-08-20T09:30:36Z</time>
      </trkpt>
      <trkpt lat="46.1174" lon="5.68601">
        <ele>1134.6</ele>
        <time>2021-08-20T09:30:37Z</time>
      </trkpt>
      <trkpt lat="46.11738" lon="5.68606">
        <ele>1134.6</ele>
        <time>2021-08-20T09:30:38Z</time>
      </trkpt>
      <trkpt lat="46.11733" lon="5.68616">
        <ele>1134.5</ele>
        <time>2021-08-20T09:30:40Z</time>
      </trkpt>
      <trkpt lat="46.1173" lon="5.68621">
        <ele>1134.4</ele>
        <time>2021-08-20T09:30:41Z</time>
      </trkpt>
      <trkpt lat="46.11725" lon="5.6863">
        <ele>1134.3</ele>
        <time>2021-08-20T09:30:43Z</time>
      </trkpt>
      <trkpt lat="46.11722" lon="5.68634">
        <ele>1134.2</ele>
        <time>2021-08-20T09:30:44Z</time>
      </trkpt>
      <trkpt lat="46.11716" lon="5.68643">
        <ele>1134</ele>
        <time>2021-08-20T09:30:46Z</time>
      </trkpt>
      <trkpt lat="46.1171" lon="5.68649">
        <ele>1133.9</ele>
        <time>2021-08-20T09:30:47Z</time>
      </trkpt>
      <trkpt lat="46.11706" lon="5.68653">
        <ele>1133.7</ele>
        <time>2021-08-20T09:30:49Z</time>
      </trkpt>
      <trkpt lat="46.11702" lon="5.68656">
        <ele>1133.6</ele>
        <time>2021-08-20T09:30:50Z</time>
      </trkpt>
      <trkpt lat="46.11694" lon="5.68666">
        <ele>1133.3</ele>
        <time>2021-08-20T09:30:52Z</time>
      </trkpt>
      <trkpt lat="46.11687" lon="5.68676">
        <ele>1133.1</ele>
        <time>2021-08-20T09:30:54Z</time>
      </trkpt>
      <trkpt lat="46.11679" lon="5.68685">
        <ele>1132.9</ele>
        <time>2021-08-20T09:30:56Z</time>
      </trkpt>
      <trkpt lat="46.11671" lon="5.68695">
        <ele>1132.7</ele>
        <time>2021-08-20T09:30:58Z</time>
      </trkpt>
      <trkpt lat="46.11666" lon="5.68706">
        <ele>1132.5</ele>
        <time>2021-08-20T09:31:00Z</time>
      </trkpt>
      <trkpt lat="46.1166" lon="5.68717">
        <ele>1132.4</ele>
        <time>2021-08-20T09:31:02Z</time>
      </trkpt>
      <trkpt lat="46.11657" lon="5.68726">
        <ele>1132.2</ele>
        <time>2021-08-20T09:31:04Z</time>
      </trkpt>
      <trkpt lat="46.11655" lon="5.68734">
        <ele>1132.1</ele>
        <time>2021-08-20T09:31:05Z</time>
      </trkpt>
      <trkpt lat="46.11652" lon="5.6874">
        <ele>1132</ele>
        <time>2021-08-20T09:31:06Z</time>
      </trkpt>
      <trkpt lat="46.11647" lon="5.68746">
        <ele>1131.9</ele>
        <time>2021-08-20T09:31:07Z</time>
      </trkpt>
      <trkpt lat="46.11645" lon="5.68748">
        <ele>1131.9</ele>
        <time>2021-08-20T09:31:08Z</time>
      </trkpt>
      <trkpt lat="46.11641" lon="5.6875">
        <ele>1132</ele>
        <time>2021-08-20T09:31:10Z</time>
      </trkpt>
      <trkpt lat="46.11635" lon="5.68755">
        <ele>1131.9</ele>
        <time>2021-08-20T09:31:11Z</time>
      </trkpt>
      <trkpt lat="46.11633" lon="5.68759">
        <ele>1131.8</ele>
        <time>2021-08-20T09:31:13Z</time>
      </trkpt>
      <trkpt lat="46.11632" lon="5.68766">
        <ele>1131.7</ele>
        <time>2021-08-20T09:31:14Z</time>
      </trkpt>
      <trkpt lat="46.11632" lon="5.68772">
        <ele>1131.7</ele>
        <time>2021-08-20T09:31:16Z</time>
      </trkpt>
      <trkpt lat="46.11634" lon="5.68778">
        <ele>1131.6</ele>
        <time>2021-08-20T09:31:17Z</time>
      </trkpt>
      <trkpt lat="46.11635" lon="5.68784">
        <ele>1131.5</ele>
        <time>2021-08-20T09:31:18Z</time>
      </trkpt>
      <trkpt lat="46.11636" lon="5.68791">
        <ele>1131.5</ele>
        <time>2021-08-20T09:31:20Z</time>
      </trkpt>
      <trkpt lat="46.11635" lon="5.68798">
        <ele>1131.4</ele>
        <time>2021-08-20T09:31:22Z</time>
      </trkpt>
      <trkpt lat="46.11634" lon="5.68806">
        <ele>1131.3</ele>
        <time>2021-08-20T09:31:23Z</time>
      </trkpt>
      <trkpt lat="46.11633" lon="5.68814">
        <ele>1131.3</ele>
        <time>2021-08-20T09:31:24Z</time>
      </trkpt>
      <trkpt lat="46.11631" lon="5.68821">
        <ele>1131.2</ele>
        <time>2021-08-20T09:31:25Z</time>
      </trkpt>
      <trkpt lat="46.1163" lon="5.68827">
        <ele>1131.1</ele>
        <time>2021-08-20T09:31:27Z</time>
      </trkpt>
      <trkpt lat="46.11626" lon="5.68834">
        <ele>1131</ele>
        <time>2021-08-20T09:31:28Z</time>
      </trkpt>
      <trkpt lat="46.11622" lon="5.6884">
        <ele>1131</ele>
        <time>2021-08-20T09:31:29Z</time>
      </trkpt>
      <trkpt lat="46.11615" lon="5.68844">
        <ele>1130.9</ele>
        <time>2021-08-20T09:31:31Z</time>
      </trkpt>
      <trkpt lat="46.11603" lon="5.68844">
        <ele>1130.8</ele>
        <time>2021-08-20T09:31:33Z</time>
      </trkpt>
      <trkpt lat="46.11595" lon="5.68851">
        <ele>1130.8</ele>
        <time>2021-08-20T09:31:35Z</time>
      </trkpt>
      <trkpt lat="46.11588" lon="5.68856">
        <ele>1130.9</ele>
        <time>2021-08-20T09:31:37Z</time>
      </trkpt>
      <trkpt lat="46.11584" lon="5.68859">
        <ele>1130.9</ele>
        <time>2021-08-20T09:31:38Z</time>
      </trkpt>
      <trkpt lat="46.11576" lon="5.68864">
        <ele>1131</ele>
        <time>2021-08-20T09:31:40Z</time>
      </trkpt>
      <trkpt lat="46.11569" lon="5.68869">
        <ele>1131.1</ele>
        <time>2021-08-20T09:31:42Z</time>
      </trkpt>
      <trkpt lat="46.11567" lon="5.68873">
        <ele>1131.2</ele>
        <time>2021-08-20T09:31:43Z</time>
      </trkpt>
      <trkpt lat="46.11562" lon="5.68877">
        <ele>1131.3</ele>
        <time>2021-08-20T09:31:44Z</time>
      </trkpt>
      <trkpt lat="46.11559" lon="5.68881">
        <ele>1131.3</ele>
        <time>2021-08-20T09:31:45Z</time>
      </trkpt>
      <trkpt lat="46.11558" lon="5.68886">
        <ele>1131.4</ele>
        <time>2021-08-20T09:31:46Z</time>
      </trkpt>
      <trkpt lat="46.11556" lon="5.6889">
        <ele>1131.4</ele>
        <time>2021-08-20T09:31:47Z</time>
      </trkpt>
      <trkpt lat="46.11554" lon="5.68899">
        <ele>1131.5</ele>
        <time>2021-08-20T09:31:49Z</time>
      </trkpt>
      <trkpt lat="46.11552" lon="5.68905">
        <ele>1131.5</ele>
        <time>2021-08-20T09:31:50Z</time>
      </trkpt>
      <trkpt lat="46.11553" lon="5.68909">
        <ele>1131.6</ele>
        <time>2021-08-20T09:31:52Z</time>
      </trkpt>
      <trkpt lat="46.11553" lon="5.6891">
        <ele>1131.6</ele>
        <time>2021-08-20T09:31:53Z</time>
      </trkpt>
      <trkpt lat="46.11552" lon="5.68916">
        <ele>1131.6</ele>
        <time>2021-08-20T09:31:54Z</time>
      </trkpt>
      <trkpt lat="46.11553" lon="5.68921">
        <ele>1131.7</ele>
        <time>2021-08-20T09:31:55Z</time>
      </trkpt>
      <trkpt lat="46.11554" lon="5.68926">
        <ele>1131.7</ele>
        <time>2021-08-20T09:31:57Z</time>
      </trkpt>
      <trkpt lat="46.11556" lon="5.6893">
        <ele>1131.7</ele>
        <time>2021-08-20T09:31:58Z</time>
      </trkpt>
      <trkpt lat="46.11557" lon="5.68932">
        <ele>1131.7</ele>
        <time>2021-08-20T09:31:59Z</time>
      </trkpt>
      <trkpt lat="46.11559" lon="5.68935">
        <ele>1131.8</ele>
        <time>2021-08-20T09:32:01Z</time>
      </trkpt>
      <trkpt lat="46.1156" lon="5.68937">
        <ele>1131.8</ele>
        <time>2021-08-20T09:32:02Z</time>
      </trkpt>
      <trkpt lat="46.11563" lon="5.68942">
        <ele>1131.8</ele>
        <time>2021-08-20T09:32:04Z</time>
      </trkpt>
      <trkpt lat="46.11564" lon="5.68943">
        <ele>1131.8</ele>
        <time>2021-08-20T09:32:05Z</time>
      </trkpt>
      <trkpt lat="46.11563" lon="5.68944">
        <ele>1131.8</ele>
        <time>2021-08-20T09:32:07Z</time>
      </trkpt>
      <trkpt lat="46.11561" lon="5.68948">
        <ele>1131.8</ele>
        <time>2021-08-20T09:32:09Z</time>
      </trkpt>
      <trkpt lat="46.1156" lon="5.68949">
        <ele>1131.9</ele>
        <time>2021-08-20T09:32:10Z</time>
      </trkpt>
      <trkpt lat="46.11553" lon="5.68956">
        <ele>1131.9</ele>
        <time>2021-08-20T09:32:12Z</time>
      </trkpt>
      <trkpt lat="46.11552" lon="5.68957">
        <ele>1131.9</ele>
        <time>2021-08-20T09:32:13Z</time>
      </trkpt>
      <trkpt lat="46.11551" lon="5.68964">
        <ele>1132</ele>
        <time>2021-08-20T09:32:15Z</time>
      </trkpt>
      <trkpt lat="46.11552" lon="5.68972">
        <ele>1132</ele>
        <time>2021-08-20T09:32:17Z</time>
      </trkpt>
      <trkpt lat="46.11553" lon="5.68981">
        <ele>1132</ele>
        <time>2021-08-20T09:32:19Z</time>
      </trkpt>
      <trkpt lat="46.11553" lon="5.68989">
        <ele>1132.1</ele>
        <time>2021-08-20T09:32:20Z</time>
      </trkpt>
      <trkpt lat="46.11555" lon="5.68998">
        <ele>1132.1</ele>
        <time>2021-08-20T09:32:22Z</time>
      </trkpt>
      <trkpt lat="46.11558" lon="5.68999">
        <ele>1132.2</ele>
        <time>2021-08-20T09:32:23Z</time>
      </trkpt>
      <trkpt lat="46.11559" lon="5.68999">
        <ele>1132.2</ele>
        <time>2021-08-20T09:32:24Z</time>
      </trkpt>
      <trkpt lat="46.11567" lon="5.69">
        <ele>1132.2</ele>
        <time>2021-08-20T09:32:25Z</time>
      </trkpt>
      <trkpt lat="46.11568" lon="5.69001">
        <ele>1132.3</ele>
        <time>2021-08-20T09:32:26Z</time>
      </trkpt>
      <trkpt lat="46.11568" lon="5.69003">
        <ele>1132.3</ele>
        <time>2021-08-20T09:32:28Z</time>
      </trkpt>
      <trkpt lat="46.11568" lon="5.69008">
        <ele>1132.3</ele>
        <time>2021-08-20T09:32:29Z</time>
      </trkpt>
      <trkpt lat="46.1157" lon="5.69014">
        <ele>1132.4</ele>
        <time>2021-08-20T09:32:30Z</time>
      </trkpt>
      <trkpt lat="46.1157" lon="5.69016">
        <ele>1132.4</ele>
        <time>2021-08-20T09:32:31Z</time>
      </trkpt>
      <trkpt lat="46.1157" lon="5.69023">
        <ele>1132.4</ele>
        <time>2021-08-20T09:32:33Z</time>
      </trkpt>
      <trkpt lat="46.1157" lon="5.69031">
        <ele>1132.5</ele>
        <time>2021-08-20T09:32:34Z</time>
      </trkpt>
      <trkpt lat="46.11569" lon="5.69038">
        <ele>1132.5</ele>
        <time>2021-08-20T09:32:35Z</time>
      </trkpt>
      <trkpt lat="46.11567" lon="5.69042">
        <ele>1132.6</ele>
        <time>2021-08-20T09:32:36Z</time>
      </trkpt>
      <trkpt lat="46.11566" lon="5.69047">
        <ele>1132.6</ele>
        <time>2021-08-20T09:32:37Z</time>
      </trkpt>
      <trkpt lat="46.11563" lon="5.69055">
        <ele>1132.7</ele>
        <time>2021-08-20T09:32:39Z</time>
      </trkpt>
      <trkpt lat="46.11562" lon="5.69061">
        <ele>1132.8</ele>
        <time>2021-08-20T09:32:40Z</time>
      </trkpt>
      <trkpt lat="46.11559" lon="5.69067">
        <ele>1132.8</ele>
        <time>2021-08-20T09:32:41Z</time>
      </trkpt>
      <trkpt lat="46.11556" lon="5.69071">
        <ele>1132.9</ele>
        <time>2021-08-20T09:32:42Z</time>
      </trkpt>
      <trkpt lat="46.11554" lon="5.69077">
        <ele>1133</ele>
        <time>2021-08-20T09:32:44Z</time>
      </trkpt>
      <trkpt lat="46.11552" lon="5.69083">
        <ele>1133.1</ele>
        <time>2021-08-20T09:32:45Z</time>
      </trkpt>
      <trkpt lat="46.11551" lon="5.69088">
        <ele>1133.2</ele>
        <time>2021-08-20T09:32:46Z</time>
      </trkpt>
      <trkpt lat="46.1155" lon="5.6909">
        <ele>1133.3</ele>
        <time>2021-08-20T09:32:47Z</time>
      </trkpt>
      <trkpt lat="46.11547" lon="5.69094">
        <ele>1133.4</ele>
        <time>2021-08-20T09:32:49Z</time>
      </trkpt>
      <trkpt lat="46.11543" lon="5.69096">
        <ele>1133.6</ele>
        <time>2021-08-20T09:32:50Z</time>
      </trkpt>
      <trkpt lat="46.11536" lon="5.69098">
        <ele>1133.8</ele>
        <time>2021-08-20T09:32:52Z</time>
      </trkpt>
      <trkpt lat="46.11532" lon="5.69099">
        <ele>1134.1</ele>
        <time>2021-08-20T09:32:53Z</time>
      </trkpt>
      <trkpt lat="46.11528" lon="5.69099">
        <ele>1134.2</ele>
        <time>2021-08-20T09:32:54Z</time>
      </trkpt>
      <trkpt lat="46.11525" lon="5.69099">
        <ele>1134.4</ele>
        <time>2021-08-20T09:32:55Z</time>
      </trkpt>
      <trkpt lat="46.11522" lon="5.69097">
        <ele>1134.6</ele>
        <time>2021-08-20T09:32:57Z</time>
      </trkpt>
      <trkpt lat="46.11519" lon="5.69095">
        <ele>1134.8</ele>
        <time>2021-08-20T09:32:58Z</time>
      </trkpt>
      <trkpt lat="46.11516" lon="5.69092">
        <ele>1135</ele>
        <time>2021-08-20T09:32:59Z</time>
      </trkpt>
      <trkpt lat="46.11515" lon="5.69091">
        <ele>1135.1</ele>
        <time>2021-08-20T09:33:00Z</time>
      </trkpt>
      <trkpt lat="46.11513" lon="5.6909">
        <ele>1135.2</ele>
        <time>2021-08-20T09:33:01Z</time>
      </trkpt>
      <trkpt lat="46.1151" lon="5.69092">
        <ele>1135.4</ele>
        <time>2021-08-20T09:33:03Z</time>
      </trkpt>
      <trkpt lat="46.11509" lon="5.69093">
        <ele>1135.4</ele>
        <time>2021-08-20T09:33:05Z</time>
      </trkpt>
      <trkpt lat="46.11508" lon="5.69094">
        <ele>1135.5</ele>
        <time>2021-08-20T09:33:07Z</time>
      </trkpt>
      <trkpt lat="46.11506" lon="5.69096">
        <ele>1135.6</ele>
        <time>2021-08-20T09:33:09Z</time>
      </trkpt>
      <trkpt lat="46.11504" lon="5.69097">
        <ele>1135.7</ele>
        <time>2021-08-20T09:33:10Z</time>
      </trkpt>
      <trkpt lat="46.11487" lon="5.69098">
        <ele>1136.7</ele>
        <time>2021-08-20T09:33:19Z</time>
      </trkpt>
      <trkpt lat="46.11484" lon="5.691">
        <ele>1136.8</ele>
        <time>2021-08-20T09:33:20Z</time>
      </trkpt>
      <trkpt lat="46.1148" lon="5.69103">
        <ele>1137.1</ele>
        <time>2021-08-20T09:33:22Z</time>
      </trkpt>
      <trkpt lat="46.11478" lon="5.69105">
        <ele>1137.2</ele>
        <time>2021-08-20T09:33:23Z</time>
      </trkpt>
      <trkpt lat="46.11477" lon="5.69106">
        <ele>1137.3</ele>
        <time>2021-08-20T09:33:24Z</time>
      </trkpt>
      <trkpt lat="46.11476" lon="5.69109">
        <ele>1137.4</ele>
        <time>2021-08-20T09:33:25Z</time>
      </trkpt>
      <trkpt lat="46.11475" lon="5.6911">
        <ele>1137.5</ele>
        <time>2021-08-20T09:33:26Z</time>
      </trkpt>
      <trkpt lat="46.11475" lon="5.69111">
        <ele>1137.5</ele>
        <time>2021-08-20T09:33:27Z</time>
      </trkpt>
      <trkpt lat="46.11473" lon="5.69112">
        <ele>1137.6</ele>
        <time>2021-08-20T09:33:29Z</time>
      </trkpt>
      <trkpt lat="46.11472" lon="5.69111">
        <ele>1137.7</ele>
        <time>2021-08-20T09:33:30Z</time>
      </trkpt>
      <trkpt lat="46.11472" lon="5.69111">
        <ele>1137.7</ele>
        <time>2021-08-20T09:33:31Z</time>
      </trkpt>
      <trkpt lat="46.11471" lon="5.69112">
        <ele>1137.7</ele>
        <time>2021-08-20T09:33:33Z</time>
      </trkpt>
      <trkpt lat="46.11447" lon="5.69135">
        <ele>1139.7</ele>
        <time>2021-08-20T09:33:57Z</time>
      </trkpt>
      <trkpt lat="46.11444" lon="5.69137">
        <ele>1139.9</ele>
        <time>2021-08-20T09:33:58Z</time>
      </trkpt>
      <trkpt lat="46.1144" lon="5.6914">
        <ele>1140.2</ele>
        <time>2021-08-20T09:33:59Z</time>
      </trkpt>
      <trkpt lat="46.11438" lon="5.69142">
        <ele>1140.4</ele>
        <time>2021-08-20T09:34:00Z</time>
      </trkpt>
      <trkpt lat="46.11437" lon="5.69143">
        <ele>1140.5</ele>
        <time>2021-08-20T09:34:01Z</time>
      </trkpt>
      <trkpt lat="46.11437" lon="5.69145">
        <ele>1140.6</ele>
        <time>2021-08-20T09:34:03Z</time>
      </trkpt>
      <trkpt lat="46.11438" lon="5.69145">
        <ele>1140.6</ele>
        <time>2021-08-20T09:34:04Z</time>
      </trkpt>
      <trkpt lat="46.11438" lon="5.69145">
        <ele>1140.7</ele>
        <time>2021-08-20T09:34:05Z</time>
      </trkpt>
      <trkpt lat="46.11438" lon="5.69146">
        <ele>1140.7</ele>
        <time>2021-08-20T09:34:06Z</time>
      </trkpt>
      <trkpt lat="46.11438" lon="5.69146">
        <ele>1140.7</ele>
        <time>2021-08-20T09:34:07Z</time>
      </trkpt>
      <trkpt lat="46.11438" lon="5.69146">
        <ele>1140.7</ele>
        <time>2021-08-20T09:34:08Z</time>
      </trkpt>
      <trkpt lat="46.11438" lon="5.69145">
        <ele>1140.7</ele>
        <time>2021-08-20T09:34:09Z</time>
      </trkpt>
      <trkpt lat="46.11438" lon="5.69145">
        <ele>1140.8</ele>
        <time>2021-08-20T09:34:10Z</time>
      </trkpt>
      <trkpt lat="46.11437" lon="5.69145">
        <ele>1140.8</ele>
        <time>2021-08-20T09:34:11Z</time>
      </trkpt>
      <trkpt lat="46.11427" lon="5.6914">
        <ele>1141.6</ele>
        <time>2021-08-20T09:34:25Z</time>
      </trkpt>
      <trkpt lat="46.11424" lon="5.69144">
        <ele>1141.8</ele>
        <time>2021-08-20T09:34:27Z</time>
      </trkpt>
      <trkpt lat="46.11424" lon="5.69145">
        <ele>1141.9</ele>
        <time>2021-08-20T09:34:28Z</time>
      </trkpt>
      <trkpt lat="46.11422" lon="5.69147">
        <ele>1142.1</ele>
        <time>2021-08-20T09:34:29Z</time>
      </trkpt>
      <trkpt lat="46.11421" lon="5.69149">
        <ele>1142.2</ele>
        <time>2021-08-20T09:34:31Z</time>
      </trkpt>
      <trkpt lat="46.1142" lon="5.6915">
        <ele>1142.3</ele>
        <time>2021-08-20T09:34:32Z</time>
      </trkpt>
      <trkpt lat="46.11419" lon="5.6915">
        <ele>1142.4</ele>
        <time>2021-08-20T09:34:33Z</time>
      </trkpt>
      <trkpt lat="46.11418" lon="5.6915">
        <ele>1142.4</ele>
        <time>2021-08-20T09:34:35Z</time>
      </trkpt>
      <trkpt lat="46.11418" lon="5.69151">
        <ele>1142.5</ele>
        <time>2021-08-20T09:34:36Z</time>
      </trkpt>
      <trkpt lat="46.11417" lon="5.69151">
        <ele>1142.6</ele>
        <time>2021-08-20T09:34:37Z</time>
      </trkpt>
      <trkpt lat="46.11416" lon="5.69152">
        <ele>1142.6</ele>
        <time>2021-08-20T09:34:38Z</time>
      </trkpt>
      <trkpt lat="46.11416" lon="5.69152">
        <ele>1142.7</ele>
        <time>2021-08-20T09:34:39Z</time>
      </trkpt>
      <trkpt lat="46.11347" lon="5.6921">
        <ele>1148.6</ele>
        <time>2021-08-20T09:35:41Z</time>
      </trkpt>
      <trkpt lat="46.11344" lon="5.69213">
        <ele>1148.8</ele>
        <time>2021-08-20T09:35:42Z</time>
      </trkpt>
      <trkpt lat="46.11343" lon="5.69213">
        <ele>1148.9</ele>
        <time>2021-08-20T09:35:43Z</time>
      </trkpt>
      <trkpt lat="46.1134" lon="5.69216">
        <ele>1149.1</ele>
        <time>2021-08-20T09:35:45Z</time>
      </trkpt>
      <trkpt lat="46.11339" lon="5.69222">
        <ele>1149.4</ele>
        <time>2021-08-20T09:35:47Z</time>
      </trkpt>
      <trkpt lat="46.11338" lon="5.69225">
        <ele>1149.5</ele>
        <time>2021-08-20T09:35:48Z</time>
      </trkpt>
      <trkpt lat="46.11339" lon="5.69226">
        <ele>1149.6</ele>
        <time>2021-08-20T09:35:49Z</time>
      </trkpt>
      <trkpt lat="46.1134" lon="5.69228">
        <ele>1149.6</ele>
        <time>2021-08-20T09:35:50Z</time>
      </trkpt>
      <trkpt lat="46.1134" lon="5.69229">
        <ele>1149.7</ele>
        <time>2021-08-20T09:35:52Z</time>
      </trkpt>
      <trkpt lat="46.1134" lon="5.6923">
        <ele>1149.7</ele>
        <time>2021-08-20T09:35:53Z</time>
      </trkpt>
      <trkpt lat="46.11341" lon="5.69231">
        <ele>1149.8</ele>
        <time>2021-08-20T09:35:54Z</time>
      </trkpt>
      <trkpt lat="46.11341" lon="5.69232">
        <ele>1149.8</ele>
        <time>2021-08-20T09:35:55Z</time>
      </trkpt>
      <trkpt lat="46.11341" lon="5.69235">
        <ele>1149.9</ele>
        <time>2021-08-20T09:35:57Z</time>
      </trkpt>
      <trkpt lat="46.11341" lon="5.69236">
        <ele>1150</ele>
        <time>2021-08-20T09:35:58Z</time>
      </trkpt>
      <trkpt lat="46.11327" lon="5.69304">
        <ele>1152.2</ele>
        <time>2021-08-20T09:37:28Z</time>
      </trkpt>
      <trkpt lat="46.11326" lon="5.69306">
        <ele>1152.3</ele>
        <time>2021-08-20T09:37:29Z</time>
      </trkpt>
      <trkpt lat="46.11325" lon="5.69308">
        <ele>1152.4</ele>
        <time>2021-08-20T09:37:31Z</time>
      </trkpt>
      <trkpt lat="46.11324" lon="5.69312">
        <ele>1152.5</ele>
        <time>2021-08-20T09:37:32Z</time>
      </trkpt>
      <trkpt lat="46.11324" lon="5.69313">
        <ele>1152.5</ele>
        <time>2021-08-20T09:37:33Z</time>
      </trkpt>
      <trkpt lat="46.11323" lon="5.69316">
        <ele>1152.6</ele>
        <time>2021-08-20T09:37:35Z</time>
      </trkpt>
      <trkpt lat="46.11324" lon="5.69318">
        <ele>1152.6</ele>
        <time>2021-08-20T09:37:36Z</time>
      </trkpt>
      <trkpt lat="46.11324" lon="5.69321">
        <ele>1152.7</ele>
        <time>2021-08-20T09:37:38Z</time>
      </trkpt>
      <trkpt lat="46.11324" lon="5.69322">
        <ele>1152.7</ele>
        <time>2021-08-20T09:37:39Z</time>
      </trkpt>
      <trkpt lat="46.11324" lon="5.69324">
        <ele>1152.8</ele>
        <time>2021-08-20T09:37:40Z</time>
      </trkpt>
      <trkpt lat="46.11323" lon="5.69327">
        <ele>1152.8</ele>
        <time>2021-08-20T09:37:41Z</time>
      </trkpt>
      <trkpt lat="46.11323" lon="5.69329">
        <ele>1152.9</ele>
        <time>2021-08-20T09:37:43Z</time>
      </trkpt>
      <trkpt lat="46.11323" lon="5.69331">
        <ele>1152.9</ele>
        <time>2021-08-20T09:37:44Z</time>
      </trkpt>
      <trkpt lat="46.11323" lon="5.69333">
        <ele>1153</ele>
        <time>2021-08-20T09:37:45Z</time>
      </trkpt>
      <trkpt lat="46.11323" lon="5.69335">
        <ele>1153</ele>
        <time>2021-08-20T09:37:46Z</time>
      </trkpt>
      <trkpt lat="46.11323" lon="5.6934">
        <ele>1153.1</ele>
        <time>2021-08-20T09:37:47Z</time>
      </trkpt>
      <trkpt lat="46.11323" lon="5.69342">
        <ele>1153.2</ele>
        <time>2021-08-20T09:37:48Z</time>
      </trkpt>
      <trkpt lat="46.11323" lon="5.69347">
        <ele>1153.3</ele>
        <time>2021-08-20T09:37:49Z</time>
      </trkpt>
      <trkpt lat="46.11322" lon="5.69352">
        <ele>1153.4</ele>
        <time>2021-08-20T09:37:50Z</time>
      </trkpt>
      <trkpt lat="46.11322" lon="5.69356">
        <ele>1153.5</ele>
        <time>2021-08-20T09:37:51Z</time>
      </trkpt>
      <trkpt lat="46.11322" lon="5.69361">
        <ele>1153.7</ele>
        <time>2021-08-20T09:37:52Z</time>
      </trkpt>
      <trkpt lat="46.11322" lon="5.69362">
        <ele>1153.7</ele>
        <time>2021-08-20T09:37:53Z</time>
      </trkpt>
      <trkpt lat="46.11323" lon="5.69366">
        <ele>1153.8</ele>
        <time>2021-08-20T09:37:54Z</time>
      </trkpt>
      <trkpt lat="46.11323" lon="5.6937">
        <ele>1153.9</ele>
        <time>2021-08-20T09:37:56Z</time>
      </trkpt>
      <trkpt lat="46.11323" lon="5.69373">
        <ele>1153.9</ele>
        <time>2021-08-20T09:37:57Z</time>
      </trkpt>
      <trkpt lat="46.11323" lon="5.69377">
        <ele>1154</ele>
        <time>2021-08-20T09:37:59Z</time>
      </trkpt>
      <trkpt lat="46.11323" lon="5.6938">
        <ele>1154.1</ele>
        <time>2021-08-20T09:38:00Z</time>
      </trkpt>
      <trkpt lat="46.11322" lon="5.69382">
        <ele>1154.1</ele>
        <time>2021-08-20T09:38:01Z</time>
      </trkpt>
      <trkpt lat="46.11321" lon="5.69385">
        <ele>1154.2</ele>
        <time>2021-08-20T09:38:02Z</time>
      </trkpt>
      <trkpt lat="46.11321" lon="5.69387">
        <ele>1154.2</ele>
        <time>2021-08-20T09:38:03Z</time>
      </trkpt>
      <trkpt lat="46.1132" lon="5.6939">
        <ele>1154.3</ele>
        <time>2021-08-20T09:38:04Z</time>
      </trkpt>
      <trkpt lat="46.11321" lon="5.69391">
        <ele>1154.4</ele>
        <time>2021-08-20T09:38:05Z</time>
      </trkpt>
      <trkpt lat="46.11321" lon="5.69392">
        <ele>1154.4</ele>
        <time>2021-08-20T09:38:06Z</time>
      </trkpt>
      <trkpt lat="46.11321" lon="5.69394">
        <ele>1154.4</ele>
        <time>2021-08-20T09:38:07Z</time>
      </trkpt>
      <trkpt lat="46.1132" lon="5.69397">
        <ele>1154.5</ele>
        <time>2021-08-20T09:38:08Z</time>
      </trkpt>
      <trkpt lat="46.11319" lon="5.69401">
        <ele>1154.6</ele>
        <time>2021-08-20T09:38:09Z</time>
      </trkpt>
      <trkpt lat="46.11319" lon="5.69402">
        <ele>1154.6</ele>
        <time>2021-08-20T09:38:10Z</time>
      </trkpt>
      <trkpt lat="46.11318" lon="5.69406">
        <ele>1154.7</ele>
        <time>2021-08-20T09:38:11Z</time>
      </trkpt>
      <trkpt lat="46.11318" lon="5.69408">
        <ele>1154.7</ele>
        <time>2021-08-20T09:38:12Z</time>
      </trkpt>
      <trkpt lat="46.11318" lon="5.6941">
        <ele>1154.7</ele>
        <time>2021-08-20T09:38:13Z</time>
      </trkpt>
      <trkpt lat="46.11315" lon="5.69414">
        <ele>1154.8</ele>
        <time>2021-08-20T09:38:15Z</time>
      </trkpt>
      <trkpt lat="46.11313" lon="5.69417">
        <ele>1154.8</ele>
        <time>2021-08-20T09:38:16Z</time>
      </trkpt>
      <trkpt lat="46.11313" lon="5.69418">
        <ele>1154.8</ele>
        <time>2021-08-20T09:38:17Z</time>
      </trkpt>
      <trkpt lat="46.1131" lon="5.6942">
        <ele>1154.8</ele>
        <time>2021-08-20T09:38:19Z</time>
      </trkpt>
      <trkpt lat="46.11307" lon="5.69423">
        <ele>1154.8</ele>
        <time>2021-08-20T09:38:20Z</time>
      </trkpt>
      <trkpt lat="46.11305" lon="5.69428">
        <ele>1154.8</ele>
        <time>2021-08-20T09:38:21Z</time>
      </trkpt>
      <trkpt lat="46.11305" lon="5.6943">
        <ele>1154.8</ele>
        <time>2021-08-20T09:38:22Z</time>
      </trkpt>
      <trkpt lat="46.11303" lon="5.69435">
        <ele>1154.7</ele>
        <time>2021-08-20T09:38:23Z</time>
      </trkpt>
      <trkpt lat="46.11302" lon="5.69436">
        <ele>1154.7</ele>
        <time>2021-08-20T09:38:24Z</time>
      </trkpt>
      <trkpt lat="46.11301" lon="5.69437">
        <ele>1154.7</ele>
        <time>2021-08-20T09:38:25Z</time>
      </trkpt>
      <trkpt lat="46.11298" lon="5.69437">
        <ele>1154.6</ele>
        <time>2021-08-20T09:38:27Z</time>
      </trkpt>
      <trkpt lat="46.11295" lon="5.69438">
        <ele>1154.5</ele>
        <time>2021-08-20T09:38:28Z</time>
      </trkpt>
      <trkpt lat="46.11294" lon="5.69439">
        <ele>1154.5</ele>
        <time>2021-08-20T09:38:29Z</time>
      </trkpt>
      <trkpt lat="46.11291" lon="5.69442">
        <ele>1154.3</ele>
        <time>2021-08-20T09:38:31Z</time>
      </trkpt>
      <trkpt lat="46.11288" lon="5.69443">
        <ele>1154.2</ele>
        <time>2021-08-20T09:38:32Z</time>
      </trkpt>
      <trkpt lat="46.11284" lon="5.69444">
        <ele>1154</ele>
        <time>2021-08-20T09:38:34Z</time>
      </trkpt>
      <trkpt lat="46.11278" lon="5.69447">
        <ele>1153.7</ele>
        <time>2021-08-20T09:38:36Z</time>
      </trkpt>
      <trkpt lat="46.11275" lon="5.69448">
        <ele>1153.5</ele>
        <time>2021-08-20T09:38:37Z</time>
      </trkpt>
      <trkpt lat="46.11268" lon="5.6945">
        <ele>1153.2</ele>
        <time>2021-08-20T09:38:39Z</time>
      </trkpt>
      <trkpt lat="46.11263" lon="5.69452">
        <ele>1152.8</ele>
        <time>2021-08-20T09:38:40Z</time>
      </trkpt>
      <trkpt lat="46.11255" lon="5.69455">
        <ele>1152.3</ele>
        <time>2021-08-20T09:38:41Z</time>
      </trkpt>
      <trkpt lat="46.11249" lon="5.69458">
        <ele>1151.9</ele>
        <time>2021-08-20T09:38:42Z</time>
      </trkpt>
      <trkpt lat="46.11244" lon="5.6946">
        <ele>1151.6</ele>
        <time>2021-08-20T09:38:43Z</time>
      </trkpt>
      <trkpt lat="46.11235" lon="5.69465">
        <ele>1150.9</ele>
        <time>2021-08-20T09:38:45Z</time>
      </trkpt>
      <trkpt lat="46.11225" lon="5.6947">
        <ele>1150.2</ele>
        <time>2021-08-20T09:38:47Z</time>
      </trkpt>
      <trkpt lat="46.11212" lon="5.69476">
        <ele>1149.3</ele>
        <time>2021-08-20T09:38:49Z</time>
      </trkpt>
      <trkpt lat="46.11199" lon="5.69481">
        <ele>1148.4</ele>
        <time>2021-08-20T09:38:51Z</time>
      </trkpt>
      <trkpt lat="46.11192" lon="5.69483">
        <ele>1148</ele>
        <time>2021-08-20T09:38:52Z</time>
      </trkpt>
      <trkpt lat="46.11186" lon="5.69487">
        <ele>1147.6</ele>
        <time>2021-08-20T09:38:53Z</time>
      </trkpt>
      <trkpt lat="46.11179" lon="5.6949">
        <ele>1147.1</ele>
        <time>2021-08-20T09:38:54Z</time>
      </trkpt>
      <trkpt lat="46.11173" lon="5.69493">
        <ele>1146.7</ele>
        <time>2021-08-20T09:38:55Z</time>
      </trkpt>
      <trkpt lat="46.1116" lon="5.69499">
        <ele>1145.9</ele>
        <time>2021-08-20T09:38:57Z</time>
      </trkpt>
      <trkpt lat="46.11154" lon="5.69501">
        <ele>1145.5</ele>
        <time>2021-08-20T09:38:58Z</time>
      </trkpt>
      <trkpt lat="46.1114" lon="5.69505">
        <ele>1144.7</ele>
        <time>2021-08-20T09:39:00Z</time>
      </trkpt>
      <trkpt lat="46.11133" lon="5.69507">
        <ele>1144.3</ele>
        <time>2021-08-20T09:39:01Z</time>
      </trkpt>
      <trkpt lat="46.1112" lon="5.69512">
        <ele>1143.5</ele>
        <time>2021-08-20T09:39:03Z</time>
      </trkpt>
      <trkpt lat="46.11114" lon="5.69515">
        <ele>1143.2</ele>
        <time>2021-08-20T09:39:04Z</time>
      </trkpt>
      <trkpt lat="46.11107" lon="5.69518">
        <ele>1142.9</ele>
        <time>2021-08-20T09:39:05Z</time>
      </trkpt>
      <trkpt lat="46.11101" lon="5.69522">
        <ele>1142.5</ele>
        <time>2021-08-20T09:39:06Z</time>
      </trkpt>
      <trkpt lat="46.11095" lon="5.69525">
        <ele>1142.2</ele>
        <time>2021-08-20T09:39:07Z</time>
      </trkpt>
      <trkpt lat="46.1109" lon="5.69528">
        <ele>1141.9</ele>
        <time>2021-08-20T09:39:08Z</time>
      </trkpt>
      <trkpt lat="46.11079" lon="5.69535">
        <ele>1141.3</ele>
        <time>2021-08-20T09:39:10Z</time>
      </trkpt>
      <trkpt lat="46.11067" lon="5.69539">
        <ele>1140.7</ele>
        <time>2021-08-20T09:39:12Z</time>
      </trkpt>
      <trkpt lat="46.11061" lon="5.69541">
        <ele>1140.5</ele>
        <time>2021-08-20T09:39:13Z</time>
      </trkpt>
      <trkpt lat="46.11049" lon="5.69545">
        <ele>1140</ele>
        <time>2021-08-20T09:39:15Z</time>
      </trkpt>
      <trkpt lat="46.11043" lon="5.69546">
        <ele>1139.7</ele>
        <time>2021-08-20T09:39:16Z</time>
      </trkpt>
      <trkpt lat="46.11029" lon="5.69549">
        <ele>1139.3</ele>
        <time>2021-08-20T09:39:18Z</time>
      </trkpt>
      <trkpt lat="46.11022" lon="5.6955">
        <ele>1139.1</ele>
        <time>2021-08-20T09:39:19Z</time>
      </trkpt>
      <trkpt lat="46.11008" lon="5.69552">
        <ele>1138.4</ele>
        <time>2021-08-20T09:39:21Z</time>
      </trkpt>
      <trkpt lat="46.11001" lon="5.69552">
        <ele>1138</ele>
        <time>2021-08-20T09:39:22Z</time>
      </trkpt>
      <trkpt lat="46.10994" lon="5.69552">
        <ele>1137.6</ele>
        <time>2021-08-20T09:39:23Z</time>
      </trkpt>
      <trkpt lat="46.1098" lon="5.69548">
        <ele>1136.7</ele>
        <time>2021-08-20T09:39:25Z</time>
      </trkpt>
      <trkpt lat="46.10973" lon="5.69546">
        <ele>1136.3</ele>
        <time>2021-08-20T09:39:26Z</time>
      </trkpt>
      <trkpt lat="46.10959" lon="5.69544">
        <ele>1135.5</ele>
        <time>2021-08-20T09:39:28Z</time>
      </trkpt>
      <trkpt lat="46.10952" lon="5.69543">
        <ele>1135.2</ele>
        <time>2021-08-20T09:39:29Z</time>
      </trkpt>
      <trkpt lat="46.10939" lon="5.6954">
        <ele>1134.5</ele>
        <time>2021-08-20T09:39:31Z</time>
      </trkpt>
      <trkpt lat="46.10927" lon="5.69536">
        <ele>1133.9</ele>
        <time>2021-08-20T09:39:33Z</time>
      </trkpt>
      <trkpt lat="46.10921" lon="5.69534">
        <ele>1133.6</ele>
        <time>2021-08-20T09:39:34Z</time>
      </trkpt>
      <trkpt lat="46.10908" lon="5.69531">
        <ele>1133.2</ele>
        <time>2021-08-20T09:39:36Z</time>
      </trkpt>
      <trkpt lat="46.10902" lon="5.69529">
        <ele>1133</ele>
        <time>2021-08-20T09:39:37Z</time>
      </trkpt>
      <trkpt lat="46.10889" lon="5.69527">
        <ele>1132.8</ele>
        <time>2021-08-20T09:39:39Z</time>
      </trkpt>
      <trkpt lat="46.10882" lon="5.69529">
        <ele>1132.6</ele>
        <time>2021-08-20T09:39:40Z</time>
      </trkpt>
      <trkpt lat="46.1087" lon="5.69538">
        <ele>1132.3</ele>
        <time>2021-08-20T09:39:42Z</time>
      </trkpt>
      <trkpt lat="46.10864" lon="5.69543">
        <ele>1132.3</ele>
        <time>2021-08-20T09:39:43Z</time>
      </trkpt>
      <trkpt lat="46.10855" lon="5.69552">
        <ele>1132.3</ele>
        <time>2021-08-20T09:39:45Z</time>
      </trkpt>
      <trkpt lat="46.10852" lon="5.69558">
        <ele>1132.4</ele>
        <time>2021-08-20T09:39:46Z</time>
      </trkpt>
      <trkpt lat="46.1085" lon="5.69564">
        <ele>1132.4</ele>
        <time>2021-08-20T09:39:47Z</time>
      </trkpt>
      <trkpt lat="46.1085" lon="5.69568">
        <ele>1132.4</ele>
        <time>2021-08-20T09:39:48Z</time>
      </trkpt>
      <trkpt lat="46.10851" lon="5.69573">
        <ele>1132.4</ele>
        <time>2021-08-20T09:39:49Z</time>
      </trkpt>
      <trkpt lat="46.10851" lon="5.69585">
        <ele>1132.5</ele>
        <time>2021-08-20T09:39:51Z</time>
      </trkpt>
      <trkpt lat="46.10851" lon="5.6959">
        <ele>1132.6</ele>
        <time>2021-08-20T09:39:52Z</time>
      </trkpt>
      <trkpt lat="46.10851" lon="5.696">
        <ele>1132.7</ele>
        <time>2021-08-20T09:39:54Z</time>
      </trkpt>
      <trkpt lat="46.1085" lon="5.69608">
        <ele>1132.8</ele>
        <time>2021-08-20T09:39:56Z</time>
      </trkpt>
      <trkpt lat="46.10849" lon="5.69613">
        <ele>1132.8</ele>
        <time>2021-08-20T09:39:57Z</time>
      </trkpt>
      <trkpt lat="46.10849" lon="5.69618">
        <ele>1132.9</ele>
        <time>2021-08-20T09:39:58Z</time>
      </trkpt>
      <trkpt lat="46.10849" lon="5.69622">
        <ele>1133</ele>
        <time>2021-08-20T09:39:59Z</time>
      </trkpt>
      <trkpt lat="46.1085" lon="5.69627">
        <ele>1133</ele>
        <time>2021-08-20T09:40:00Z</time>
      </trkpt>
      <trkpt lat="46.10851" lon="5.69632">
        <ele>1133.1</ele>
        <time>2021-08-20T09:40:01Z</time>
      </trkpt>
      <trkpt lat="46.10854" lon="5.69639">
        <ele>1133.2</ele>
        <time>2021-08-20T09:40:03Z</time>
      </trkpt>
      <trkpt lat="46.10857" lon="5.69644">
        <ele>1133.3</ele>
        <time>2021-08-20T09:40:04Z</time>
      </trkpt>
      <trkpt lat="46.10859" lon="5.6965">
        <ele>1133.5</ele>
        <time>2021-08-20T09:40:05Z</time>
      </trkpt>
      <trkpt lat="46.10859" lon="5.69655">
        <ele>1133.6</ele>
        <time>2021-08-20T09:40:06Z</time>
      </trkpt>
      <trkpt lat="46.10859" lon="5.69662">
        <ele>1133.7</ele>
        <time>2021-08-20T09:40:07Z</time>
      </trkpt>
      <trkpt lat="46.10858" lon="5.69666">
        <ele>1133.8</ele>
        <time>2021-08-20T09:40:08Z</time>
      </trkpt>
      <trkpt lat="46.10858" lon="5.69671">
        <ele>1133.9</ele>
        <time>2021-08-20T09:40:10Z</time>
      </trkpt>
      <trkpt lat="46.10857" lon="5.69674">
        <ele>1134</ele>
        <time>2021-08-20T09:40:11Z</time>
      </trkpt>
      <trkpt lat="46.10857" lon="5.69679">
        <ele>1134.1</ele>
        <time>2021-08-20T09:40:12Z</time>
      </trkpt>
      <trkpt lat="46.10857" lon="5.69681">
        <ele>1134.1</ele>
        <time>2021-08-20T09:40:13Z</time>
      </trkpt>
      <trkpt lat="46.10857" lon="5.69684">
        <ele>1134.2</ele>
        <time>2021-08-20T09:40:14Z</time>
      </trkpt>
      <trkpt lat="46.10856" lon="5.69686">
        <ele>1134.2</ele>
        <time>2021-08-20T09:40:15Z</time>
      </trkpt>
      <trkpt lat="46.10856" lon="5.69688">
        <ele>1134.3</ele>
        <time>2021-08-20T09:40:16Z</time>
      </trkpt>
      <trkpt lat="46.10854" lon="5.69691">
        <ele>1134.4</ele>
        <time>2021-08-20T09:40:18Z</time>
      </trkpt>
      <trkpt lat="46.10853" lon="5.69692">
        <ele>1134.5</ele>
        <time>2021-08-20T09:40:19Z</time>
      </trkpt>
      <trkpt lat="46.10852" lon="5.69694">
        <ele>1134.5</ele>
        <time>2021-08-20T09:40:20Z</time>
      </trkpt>
      <trkpt lat="46.1085" lon="5.69699">
        <ele>1134.7</ele>
        <time>2021-08-20T09:40:22Z</time>
      </trkpt>
      <trkpt lat="46.10847" lon="5.69703">
        <ele>1134.9</ele>
        <time>2021-08-20T09:40:23Z</time>
      </trkpt>
      <trkpt lat="46.10844" lon="5.69709">
        <ele>1135.1</ele>
        <time>2021-08-20T09:40:24Z</time>
      </trkpt>
      <trkpt lat="46.10843" lon="5.69716">
        <ele>1135.3</ele>
        <time>2021-08-20T09:40:26Z</time>
      </trkpt>
      <trkpt lat="46.10843" lon="5.69721">
        <ele>1135.5</ele>
        <time>2021-08-20T09:40:27Z</time>
      </trkpt>
      <trkpt lat="46.10844" lon="5.69722">
        <ele>1135.6</ele>
        <time>2021-08-20T09:40:28Z</time>
      </trkpt>
      <trkpt lat="46.10844" lon="5.69723">
        <ele>1135.6</ele>
        <time>2021-08-20T09:40:29Z</time>
      </trkpt>
      <trkpt lat="46.10845" lon="5.69724">
        <ele>1135.7</ele>
        <time>2021-08-20T09:40:31Z</time>
      </trkpt>
      <trkpt lat="46.10846" lon="5.69725">
        <ele>1135.7</ele>
        <time>2021-08-20T09:40:33Z</time>
      </trkpt>
      <trkpt lat="46.10846" lon="5.69726">
        <ele>1135.8</ele>
        <time>2021-08-20T09:40:35Z</time>
      </trkpt>
      <trkpt lat="46.10847" lon="5.69727">
        <ele>1135.8</ele>
        <time>2021-08-20T09:40:36Z</time>
      </trkpt>
      <trkpt lat="46.10847" lon="5.69728">
        <ele>1135.9</ele>
        <time>2021-08-20T09:40:37Z</time>
      </trkpt>
      <trkpt lat="46.1086" lon="5.6974">
        <ele>1136.7</ele>
        <time>2021-08-20T09:40:45Z</time>
      </trkpt>
      <trkpt lat="46.10862" lon="5.69742">
        <ele>1136.9</ele>
        <time>2021-08-20T09:40:46Z</time>
      </trkpt>
      <trkpt lat="46.10869" lon="5.69747">
        <ele>1137.3</ele>
        <time>2021-08-20T09:40:48Z</time>
      </trkpt>
      <trkpt lat="46.10878" lon="5.69753">
        <ele>1137.9</ele>
        <time>2021-08-20T09:40:50Z</time>
      </trkpt>
      <trkpt lat="46.1088" lon="5.69754">
        <ele>1138</ele>
        <time>2021-08-20T09:40:51Z</time>
      </trkpt>
      <trkpt lat="46.10883" lon="5.69755">
        <ele>1138.2</ele>
        <time>2021-08-20T09:40:52Z</time>
      </trkpt>
      <trkpt lat="46.10884" lon="5.69756">
        <ele>1138.3</ele>
        <time>2021-08-20T09:40:53Z</time>
      </trkpt>
      <trkpt lat="46.10885" lon="5.69757">
        <ele>1138.4</ele>
        <time>2021-08-20T09:40:54Z</time>
      </trkpt>
      <trkpt lat="46.10889" lon="5.69758">
        <ele>1138.6</ele>
        <time>2021-08-20T09:40:56Z</time>
      </trkpt>
      <trkpt lat="46.10897" lon="5.69776">
        <ele>1139.5</ele>
        <time>2021-08-20T09:41:08Z</time>
      </trkpt>
      <trkpt lat="46.10897" lon="5.69778">
        <ele>1139.5</ele>
        <time>2021-08-20T09:41:09Z</time>
      </trkpt>
      <trkpt lat="46.10897" lon="5.6978">
        <ele>1139.6</ele>
        <time>2021-08-20T09:41:10Z</time>
      </trkpt>
      <trkpt lat="46.10897" lon="5.69783">
        <ele>1139.7</ele>
        <time>2021-08-20T09:41:11Z</time>
      </trkpt>
      <trkpt lat="46.10895" lon="5.6979">
        <ele>1140.1</ele>
        <time>2021-08-20T09:41:13Z</time>
      </trkpt>
      <trkpt lat="46.10895" lon="5.69793">
        <ele>1140.2</ele>
        <time>2021-08-20T09:41:14Z</time>
      </trkpt>
      <trkpt lat="46.10893" lon="5.69797">
        <ele>1140.4</ele>
        <time>2021-08-20T09:41:16Z</time>
      </trkpt>
      <trkpt lat="46.10891" lon="5.69801">
        <ele>1140.5</ele>
        <time>2021-08-20T09:41:17Z</time>
      </trkpt>
      <trkpt lat="46.1089" lon="5.69802">
        <ele>1140.6</ele>
        <time>2021-08-20T09:41:18Z</time>
      </trkpt>
      <trkpt lat="46.10889" lon="5.69805">
        <ele>1140.7</ele>
        <time>2021-08-20T09:41:19Z</time>
      </trkpt>
      <trkpt lat="46.10889" lon="5.69806">
        <ele>1140.8</ele>
        <time>2021-08-20T09:41:20Z</time>
      </trkpt>
      <trkpt lat="46.10888" lon="5.69808">
        <ele>1140.8</ele>
        <time>2021-08-20T09:41:21Z</time>
      </trkpt>
      <trkpt lat="46.10887" lon="5.69811">
        <ele>1140.9</ele>
        <time>2021-08-20T09:41:22Z</time>
      </trkpt>
      <trkpt lat="46.10887" lon="5.69815">
        <ele>1141.1</ele>
        <time>2021-08-20T09:41:24Z</time>
      </trkpt>
      <trkpt lat="46.10887" lon="5.6982">
        <ele>1141.2</ele>
        <time>2021-08-20T09:41:25Z</time>
      </trkpt>
      <trkpt lat="46.10887" lon="5.69825">
        <ele>1141.4</ele>
        <time>2021-08-20T09:41:27Z</time>
      </trkpt>
      <trkpt lat="46.10887" lon="5.69831">
        <ele>1141.6</ele>
        <time>2021-08-20T09:41:29Z</time>
      </trkpt>
      <trkpt lat="46.10888" lon="5.69835">
        <ele>1141.7</ele>
        <time>2021-08-20T09:41:31Z</time>
      </trkpt>
      <trkpt lat="46.10888" lon="5.69838">
        <ele>1141.8</ele>
        <time>2021-08-20T09:41:32Z</time>
      </trkpt>
      <trkpt lat="46.10887" lon="5.69842">
        <ele>1141.9</ele>
        <time>2021-08-20T09:41:34Z</time>
      </trkpt>
      <trkpt lat="46.10888" lon="5.69846">
        <ele>1142</ele>
        <time>2021-08-20T09:41:35Z</time>
      </trkpt>
      <trkpt lat="46.10888" lon="5.69848">
        <ele>1142.1</ele>
        <time>2021-08-20T09:41:36Z</time>
      </trkpt>
      <trkpt lat="46.10888" lon="5.69851">
        <ele>1142.2</ele>
        <time>2021-08-20T09:41:37Z</time>
      </trkpt>
      <trkpt lat="46.10889" lon="5.69856">
        <ele>1142.3</ele>
        <time>2021-08-20T09:41:39Z</time>
      </trkpt>
      <trkpt lat="46.10889" lon="5.69857">
        <ele>1142.4</ele>
        <time>2021-08-20T09:41:40Z</time>
      </trkpt>
      <trkpt lat="46.1089" lon="5.69861">
        <ele>1142.5</ele>
        <time>2021-08-20T09:41:41Z</time>
      </trkpt>
      <trkpt lat="46.10891" lon="5.69866">
        <ele>1142.6</ele>
        <time>2021-08-20T09:41:43Z</time>
      </trkpt>
      <trkpt lat="46.10892" lon="5.69871">
        <ele>1142.7</ele>
        <time>2021-08-20T09:41:44Z</time>
      </trkpt>
      <trkpt lat="46.10892" lon="5.69872">
        <ele>1142.8</ele>
        <time>2021-08-20T09:41:45Z</time>
      </trkpt>
      <trkpt lat="46.10892" lon="5.69876">
        <ele>1142.9</ele>
        <time>2021-08-20T09:41:47Z</time>
      </trkpt>
      <trkpt lat="46.10894" lon="5.6988">
        <ele>1143</ele>
        <time>2021-08-20T09:41:49Z</time>
      </trkpt>
      <trkpt lat="46.10896" lon="5.69883">
        <ele>1143.1</ele>
        <time>2021-08-20T09:41:51Z</time>
      </trkpt>
      <trkpt lat="46.10898" lon="5.69886">
        <ele>1143.2</ele>
        <time>2021-08-20T09:41:52Z</time>
      </trkpt>
      <trkpt lat="46.10902" lon="5.69889">
        <ele>1143.4</ele>
        <time>2021-08-20T09:41:54Z</time>
      </trkpt>
      <trkpt lat="46.10907" lon="5.6989">
        <ele>1143.6</ele>
        <time>2021-08-20T09:41:56Z</time>
      </trkpt>
      <trkpt lat="46.10912" lon="5.6989">
        <ele>1143.8</ele>
        <time>2021-08-20T09:41:57Z</time>
      </trkpt>
      <trkpt lat="46.10915" lon="5.6989">
        <ele>1144</ele>
        <time>2021-08-20T09:41:58Z</time>
      </trkpt>
      <trkpt lat="46.10917" lon="5.6989">
        <ele>1144.1</ele>
        <time>2021-08-20T09:41:59Z</time>
      </trkpt>
      <trkpt lat="46.10922" lon="5.69888">
        <ele>1144.3</ele>
        <time>2021-08-20T09:42:01Z</time>
      </trkpt>
      <trkpt lat="46.10925" lon="5.69887">
        <ele>1144.4</ele>
        <time>2021-08-20T09:42:02Z</time>
      </trkpt>
      <trkpt lat="46.10926" lon="5.69887">
        <ele>1144.4</ele>
        <time>2021-08-20T09:42:03Z</time>
      </trkpt>
      <trkpt lat="46.10929" lon="5.69887">
        <ele>1144.6</ele>
        <time>2021-08-20T09:42:05Z</time>
      </trkpt>
      <trkpt lat="46.1093" lon="5.6989">
        <ele>1144.7</ele>
        <time>2021-08-20T09:42:06Z</time>
      </trkpt>
      <trkpt lat="46.10931" lon="5.69893">
        <ele>1144.8</ele>
        <time>2021-08-20T09:42:07Z</time>
      </trkpt>
      <trkpt lat="46.10931" lon="5.69897">
        <ele>1144.9</ele>
        <time>2021-08-20T09:42:08Z</time>
      </trkpt>
      <trkpt lat="46.10932" lon="5.699">
        <ele>1145</ele>
        <time>2021-08-20T09:42:09Z</time>
      </trkpt>
      <trkpt lat="46.10932" lon="5.69903">
        <ele>1145.1</ele>
        <time>2021-08-20T09:42:10Z</time>
      </trkpt>
      <trkpt lat="46.10932" lon="5.69907">
        <ele>1145.2</ele>
        <time>2021-08-20T09:42:11Z</time>
      </trkpt>
      <trkpt lat="46.10933" lon="5.6991">
        <ele>1145.3</ele>
        <time>2021-08-20T09:42:21Z</time>
      </trkpt>
      <trkpt lat="46.10933" lon="5.69914">
        <ele>1145.4</ele>
        <time>2021-08-20T09:42:22Z</time>
      </trkpt>
      <trkpt lat="46.10935" lon="5.69922">
        <ele>1145.6</ele>
        <time>2021-08-20T09:42:24Z</time>
      </trkpt>
      <trkpt lat="46.10935" lon="5.69927">
        <ele>1145.7</ele>
        <time>2021-08-20T09:42:25Z</time>
      </trkpt>
      <trkpt lat="46.10938" lon="5.69935">
        <ele>1146</ele>
        <time>2021-08-20T09:42:26Z</time>
      </trkpt>
      <trkpt lat="46.10939" lon="5.69937">
        <ele>1146</ele>
        <time>2021-08-20T09:42:27Z</time>
      </trkpt>
      <trkpt lat="46.1094" lon="5.69938">
        <ele>1146.1</ele>
        <time>2021-08-20T09:42:29Z</time>
      </trkpt>
      <trkpt lat="46.10942" lon="5.69938">
        <ele>1146.1</ele>
        <time>2021-08-20T09:42:30Z</time>
      </trkpt>
      <trkpt lat="46.10943" lon="5.69939">
        <ele>1146.2</ele>
        <time>2021-08-20T09:42:31Z</time>
      </trkpt>
      <trkpt lat="46.10944" lon="5.6994">
        <ele>1146.2</ele>
        <time>2021-08-20T09:42:33Z</time>
      </trkpt>
      <trkpt lat="46.10945" lon="5.69941">
        <ele>1146.3</ele>
        <time>2021-08-20T09:42:34Z</time>
      </trkpt>
      <trkpt lat="46.10945" lon="5.69942">
        <ele>1146.3</ele>
        <time>2021-08-20T09:42:35Z</time>
      </trkpt>
      <trkpt lat="46.10935" lon="5.69997">
        <ele>1148</ele>
        <time>2021-08-20T09:43:00Z</time>
      </trkpt>
      <trkpt lat="46.10932" lon="5.70002">
        <ele>1148.2</ele>
        <time>2021-08-20T09:43:01Z</time>
      </trkpt>
      <trkpt lat="46.10928" lon="5.7001">
        <ele>1148.6</ele>
        <time>2021-08-20T09:43:03Z</time>
      </trkpt>
      <trkpt lat="46.10925" lon="5.70012">
        <ele>1148.7</ele>
        <time>2021-08-20T09:43:04Z</time>
      </trkpt>
      <trkpt lat="46.1092" lon="5.70015">
        <ele>1149</ele>
        <time>2021-08-20T09:43:06Z</time>
      </trkpt>
      <trkpt lat="46.10919" lon="5.70016">
        <ele>1149.1</ele>
        <time>2021-08-20T09:43:07Z</time>
      </trkpt>
      <trkpt lat="46.10917" lon="5.70017">
        <ele>1149.2</ele>
        <time>2021-08-20T09:43:08Z</time>
      </trkpt>
      <trkpt lat="46.10914" lon="5.7002">
        <ele>1149.3</ele>
        <time>2021-08-20T09:43:09Z</time>
      </trkpt>
      <trkpt lat="46.10911" lon="5.70023">
        <ele>1149.5</ele>
        <time>2021-08-20T09:43:11Z</time>
      </trkpt>
      <trkpt lat="46.10908" lon="5.70024">
        <ele>1149.7</ele>
        <time>2021-08-20T09:43:12Z</time>
      </trkpt>
      <trkpt lat="46.10907" lon="5.70025">
        <ele>1149.7</ele>
        <time>2021-08-20T09:43:13Z</time>
      </trkpt>
      <trkpt lat="46.10904" lon="5.70025">
        <ele>1149.9</ele>
        <time>2021-08-20T09:43:15Z</time>
      </trkpt>
      <trkpt lat="46.10901" lon="5.70024">
        <ele>1150</ele>
        <time>2021-08-20T09:43:16Z</time>
      </trkpt>
      <trkpt lat="46.10899" lon="5.70023">
        <ele>1150.1</ele>
        <time>2021-08-20T09:43:17Z</time>
      </trkpt>
      <trkpt lat="46.10897" lon="5.70022">
        <ele>1150.2</ele>
        <time>2021-08-20T09:43:19Z</time>
      </trkpt>
      <trkpt lat="46.10896" lon="5.7002">
        <ele>1150.3</ele>
        <time>2021-08-20T09:43:20Z</time>
      </trkpt>
      <trkpt lat="46.10895" lon="5.70018">
        <ele>1150.3</ele>
        <time>2021-08-20T09:43:21Z</time>
      </trkpt>
      <trkpt lat="46.10896" lon="5.70018">
        <ele>1150.4</ele>
        <time>2021-08-20T09:43:23Z</time>
      </trkpt>
      <trkpt lat="46.10894" lon="5.70017">
        <ele>1150.4</ele>
        <time>2021-08-20T09:43:24Z</time>
      </trkpt>
      <trkpt lat="46.10894" lon="5.70016">
        <ele>1150.5</ele>
        <time>2021-08-20T09:43:25Z</time>
      </trkpt>
      <trkpt lat="46.10894" lon="5.70016">
        <ele>1150.5</ele>
        <time>2021-08-20T09:43:26Z</time>
      </trkpt>
      <trkpt lat="46.10894" lon="5.70017">
        <ele>1150.5</ele>
        <time>2021-08-20T09:43:27Z</time>
      </trkpt>
      <trkpt lat="46.10894" lon="5.70017">
        <ele>1150.5</ele>
        <time>2021-08-20T09:43:29Z</time>
      </trkpt>
      <trkpt lat="46.10893" lon="5.70017">
        <ele>1150.5</ele>
        <time>2021-08-20T09:43:30Z</time>
      </trkpt>
      <trkpt lat="46.10893" lon="5.70017">
        <ele>1150.5</ele>
        <time>2021-08-20T09:43:31Z</time>
      </trkpt>
      <trkpt lat="46.10892" lon="5.70017">
        <ele>1150.6</ele>
        <time>2021-08-20T09:43:32Z</time>
      </trkpt>
      <trkpt lat="46.10891" lon="5.70018">
        <ele>1150.6</ele>
        <time>2021-08-20T09:43:33Z</time>
      </trkpt>
      <trkpt lat="46.1089" lon="5.7002">
        <ele>1150.7</ele>
        <time>2021-08-20T09:43:35Z</time>
      </trkpt>
      <trkpt lat="46.10826" lon="5.70019">
        <ele>1152.9</ele>
        <time>2021-08-20T09:45:49Z</time>
      </trkpt>
      <trkpt lat="46.10823" lon="5.7002">
        <ele>1153</ele>
        <time>2021-08-20T09:45:50Z</time>
      </trkpt>
      <trkpt lat="46.10815" lon="5.70022">
        <ele>1153.3</ele>
        <time>2021-08-20T09:45:52Z</time>
      </trkpt>
      <trkpt lat="46.10808" lon="5.70026">
        <ele>1153.6</ele>
        <time>2021-08-20T09:45:54Z</time>
      </trkpt>
      <trkpt lat="46.10803" lon="5.70028">
        <ele>1153.8</ele>
        <time>2021-08-20T09:45:55Z</time>
      </trkpt>
      <trkpt lat="46.10799" lon="5.7003">
        <ele>1153.9</ele>
        <time>2021-08-20T09:45:56Z</time>
      </trkpt>
      <trkpt lat="46.10794" lon="5.70032">
        <ele>1154.1</ele>
        <time>2021-08-20T09:45:58Z</time>
      </trkpt>
      <trkpt lat="46.10789" lon="5.70034">
        <ele>1154.2</ele>
        <time>2021-08-20T09:46:00Z</time>
      </trkpt>
      <trkpt lat="46.10786" lon="5.70036">
        <ele>1154.3</ele>
        <time>2021-08-20T09:46:01Z</time>
      </trkpt>
      <trkpt lat="46.10784" lon="5.70038">
        <ele>1154.4</ele>
        <time>2021-08-20T09:46:02Z</time>
      </trkpt>
      <trkpt lat="46.10781" lon="5.70041">
        <ele>1154.5</ele>
        <time>2021-08-20T09:46:04Z</time>
      </trkpt>
      <trkpt lat="46.10779" lon="5.70045">
        <ele>1154.5</ele>
        <time>2021-08-20T09:46:05Z</time>
      </trkpt>
      <trkpt lat="46.10779" lon="5.70046">
        <ele>1154.5</ele>
        <time>2021-08-20T09:46:06Z</time>
      </trkpt>
      <trkpt lat="46.1078" lon="5.70046">
        <ele>1154.6</ele>
        <time>2021-08-20T09:46:07Z</time>
      </trkpt>
      <trkpt lat="46.1078" lon="5.70046">
        <ele>1154.6</ele>
        <time>2021-08-20T09:46:09Z</time>
      </trkpt>
      <trkpt lat="46.1078" lon="5.70047">
        <ele>1154.6</ele>
        <time>2021-08-20T09:46:10Z</time>
      </trkpt>
      <trkpt lat="46.10779" lon="5.70047">
        <ele>1154.6</ele>
        <time>2021-08-20T09:46:12Z</time>
      </trkpt>
      <trkpt lat="46.10777" lon="5.70048">
        <ele>1154.6</ele>
        <time>2021-08-20T09:46:13Z</time>
      </trkpt>
      <trkpt lat="46.10772" lon="5.70047">
        <ele>1154.7</ele>
        <time>2021-08-20T09:46:14Z</time>
      </trkpt>
      <trkpt lat="46.10765" lon="5.70046">
        <ele>1154.8</ele>
        <time>2021-08-20T09:46:16Z</time>
      </trkpt>
      <trkpt lat="46.10761" lon="5.70046">
        <ele>1154.9</ele>
        <time>2021-08-20T09:46:17Z</time>
      </trkpt>
      <trkpt lat="46.10755" lon="5.70046">
        <ele>1155</ele>
        <time>2021-08-20T09:46:19Z</time>
      </trkpt>
      <trkpt lat="46.10752" lon="5.70046">
        <ele>1155.1</ele>
        <time>2021-08-20T09:46:20Z</time>
      </trkpt>
      <trkpt lat="46.1075" lon="5.70046">
        <ele>1155.1</ele>
        <time>2021-08-20T09:46:21Z</time>
      </trkpt>
      <trkpt lat="46.10748" lon="5.70044">
        <ele>1155.2</ele>
        <time>2021-08-20T09:46:23Z</time>
      </trkpt>
      <trkpt lat="46.10745" lon="5.70043">
        <ele>1155.2</ele>
        <time>2021-08-20T09:46:24Z</time>
      </trkpt>
      <trkpt lat="46.10742" lon="5.7004">
        <ele>1155.3</ele>
        <time>2021-08-20T09:46:25Z</time>
      </trkpt>
      <trkpt lat="46.1074" lon="5.70036">
        <ele>1155.3</ele>
        <time>2021-08-20T09:46:27Z</time>
      </trkpt>
      <trkpt lat="46.10738" lon="5.70031">
        <ele>1155.4</ele>
        <time>2021-08-20T09:46:29Z</time>
      </trkpt>
      <trkpt lat="46.10738" lon="5.70028">
        <ele>1155.4</ele>
        <time>2021-08-20T09:46:30Z</time>
      </trkpt>
      <trkpt lat="46.10738" lon="5.70024">
        <ele>1155.5</ele>
        <time>2021-08-20T09:46:32Z</time>
      </trkpt>
      <trkpt lat="46.10738" lon="5.70022">
        <ele>1155.5</ele>
        <time>2021-08-20T09:46:33Z</time>
      </trkpt>
      <trkpt lat="46.10738" lon="5.70022">
        <ele>1155.5</ele>
        <time>2021-08-20T09:46:35Z</time>
      </trkpt>
      <trkpt lat="46.10738" lon="5.70021">
        <ele>1155.5</ele>
        <time>2021-08-20T09:46:36Z</time>
      </trkpt>
      <trkpt lat="46.10737" lon="5.70021">
        <ele>1155.5</ele>
        <time>2021-08-20T09:46:37Z</time>
      </trkpt>
      <trkpt lat="46.10729" lon="5.70018">
        <ele>1155.7</ele>
        <time>2021-08-20T09:46:46Z</time>
      </trkpt>
      <trkpt lat="46.10726" lon="5.70016">
        <ele>1155.8</ele>
        <time>2021-08-20T09:46:47Z</time>
      </trkpt>
      <trkpt lat="46.10722" lon="5.70014">
        <ele>1155.8</ele>
        <time>2021-08-20T09:46:48Z</time>
      </trkpt>
      <trkpt lat="46.10716" lon="5.70012">
        <ele>1155.9</ele>
        <time>2021-08-20T09:46:50Z</time>
      </trkpt>
      <trkpt lat="46.10713" lon="5.7001">
        <ele>1156</ele>
        <time>2021-08-20T09:46:51Z</time>
      </trkpt>
      <trkpt lat="46.10706" lon="5.70005">
        <ele>1156.2</ele>
        <time>2021-08-20T09:46:53Z</time>
      </trkpt>
      <trkpt lat="46.10702" lon="5.70003">
        <ele>1156.2</ele>
        <time>2021-08-20T09:46:54Z</time>
      </trkpt>
      <trkpt lat="46.10698" lon="5.7">
        <ele>1156.3</ele>
        <time>2021-08-20T09:46:56Z</time>
      </trkpt>
      <trkpt lat="46.10696" lon="5.69999">
        <ele>1156.3</ele>
        <time>2021-08-20T09:46:57Z</time>
      </trkpt>
      <trkpt lat="46.10694" lon="5.69997">
        <ele>1156.4</ele>
        <time>2021-08-20T09:46:59Z</time>
      </trkpt>
      <trkpt lat="46.1069" lon="5.69996">
        <ele>1156.5</ele>
        <time>2021-08-20T09:47:00Z</time>
      </trkpt>
      <trkpt lat="46.10686" lon="5.69993">
        <ele>1156.5</ele>
        <time>2021-08-20T09:47:02Z</time>
      </trkpt>
      <trkpt lat="46.10683" lon="5.69992">
        <ele>1156.6</ele>
        <time>2021-08-20T09:47:03Z</time>
      </trkpt>
      <trkpt lat="46.10678" lon="5.69992">
        <ele>1156.7</ele>
        <time>2021-08-20T09:47:05Z</time>
      </trkpt>
      <trkpt lat="46.10674" lon="5.69992">
        <ele>1156.8</ele>
        <time>2021-08-20T09:47:06Z</time>
      </trkpt>
      <trkpt lat="46.10673" lon="5.69992">
        <ele>1156.8</ele>
        <time>2021-08-20T09:47:07Z</time>
      </trkpt>
      <trkpt lat="46.10667" lon="5.6999">
        <ele>1157</ele>
        <time>2021-08-20T09:47:09Z</time>
      </trkpt>
      <trkpt lat="46.10662" lon="5.6999">
        <ele>1157.1</ele>
        <time>2021-08-20T09:47:10Z</time>
      </trkpt>
      <trkpt lat="46.10658" lon="5.6999">
        <ele>1157.2</ele>
        <time>2021-08-20T09:47:11Z</time>
      </trkpt>
      <trkpt lat="46.10655" lon="5.69991">
        <ele>1157.3</ele>
        <time>2021-08-20T09:47:12Z</time>
      </trkpt>
      <trkpt lat="46.1065" lon="5.69992">
        <ele>1157.4</ele>
        <time>2021-08-20T09:47:14Z</time>
      </trkpt>
      <trkpt lat="46.10648" lon="5.69994">
        <ele>1157.5</ele>
        <time>2021-08-20T09:47:15Z</time>
      </trkpt>
      <trkpt lat="46.10647" lon="5.69995">
        <ele>1157.5</ele>
        <time>2021-08-20T09:47:16Z</time>
      </trkpt>
      <trkpt lat="46.10646" lon="5.69996">
        <ele>1157.6</ele>
        <time>2021-08-20T09:47:18Z</time>
      </trkpt>
      <trkpt lat="46.10645" lon="5.69998">
        <ele>1157.6</ele>
        <time>2021-08-20T09:47:19Z</time>
      </trkpt>
      <trkpt lat="46.10637" lon="5.70002">
        <ele>1157.9</ele>
        <time>2021-08-20T09:47:23Z</time>
      </trkpt>
      <trkpt lat="46.10633" lon="5.70003">
        <ele>1158</ele>
        <time>2021-08-20T09:47:24Z</time>
      </trkpt>
      <trkpt lat="46.1063" lon="5.70006">
        <ele>1158.1</ele>
        <time>2021-08-20T09:47:25Z</time>
      </trkpt>
      <trkpt lat="46.10627" lon="5.70007">
        <ele>1158.2</ele>
        <time>2021-08-20T09:47:26Z</time>
      </trkpt>
      <trkpt lat="46.10626" lon="5.7001">
        <ele>1158.3</ele>
        <time>2021-08-20T09:47:28Z</time>
      </trkpt>
      <trkpt lat="46.10626" lon="5.70013">
        <ele>1158.3</ele>
        <time>2021-08-20T09:47:30Z</time>
      </trkpt>
      <trkpt lat="46.10628" lon="5.70016">
        <ele>1158.4</ele>
        <time>2021-08-20T09:47:32Z</time>
      </trkpt>
      <trkpt lat="46.10628" lon="5.70018">
        <ele>1158.5</ele>
        <time>2021-08-20T09:47:33Z</time>
      </trkpt>
      <trkpt lat="46.10629" lon="5.70019">
        <ele>1158.5</ele>
        <time>2021-08-20T09:47:35Z</time>
      </trkpt>
      <trkpt lat="46.10609" lon="5.70019">
        <ele>1159.2</ele>
        <time>2021-08-20T09:47:47Z</time>
      </trkpt>
      <trkpt lat="46.10604" lon="5.70019">
        <ele>1159.3</ele>
        <time>2021-08-20T09:47:49Z</time>
      </trkpt>
      <trkpt lat="46.106" lon="5.70019">
        <ele>1159.5</ele>
        <time>2021-08-20T09:47:50Z</time>
      </trkpt>
      <trkpt lat="46.10596" lon="5.70018">
        <ele>1159.6</ele>
        <time>2021-08-20T09:47:51Z</time>
      </trkpt>
      <trkpt lat="46.10594" lon="5.70019">
        <ele>1159.6</ele>
        <time>2021-08-20T09:47:52Z</time>
      </trkpt>
      <trkpt lat="46.1059" lon="5.70022">
        <ele>1159.8</ele>
        <time>2021-08-20T09:47:54Z</time>
      </trkpt>
      <trkpt lat="46.10589" lon="5.70024">
        <ele>1159.8</ele>
        <time>2021-08-20T09:47:55Z</time>
      </trkpt>
      <trkpt lat="46.10588" lon="5.70025">
        <ele>1159.8</ele>
        <time>2021-08-20T09:47:56Z</time>
      </trkpt>
      <trkpt lat="46.10587" lon="5.70028">
        <ele>1159.9</ele>
        <time>2021-08-20T09:47:58Z</time>
      </trkpt>
      <trkpt lat="46.10587" lon="5.70029">
        <ele>1159.9</ele>
        <time>2021-08-20T09:47:59Z</time>
      </trkpt>
      <trkpt lat="46.10587" lon="5.70031">
        <ele>1159.9</ele>
        <time>2021-08-20T09:48:00Z</time>
      </trkpt>
      <trkpt lat="46.1057" lon="5.70037">
        <ele>1160.2</ele>
        <time>2021-08-20T09:48:07Z</time>
      </trkpt>
      <trkpt lat="46.10566" lon="5.70039">
        <ele>1160.3</ele>
        <time>2021-08-20T09:48:08Z</time>
      </trkpt>
      <trkpt lat="46.10558" lon="5.70041">
        <ele>1160.4</ele>
        <time>2021-08-20T09:48:10Z</time>
      </trkpt>
      <trkpt lat="46.10548" lon="5.70043">
        <ele>1160.6</ele>
        <time>2021-08-20T09:48:11Z</time>
      </trkpt>
      <trkpt lat="46.10541" lon="5.70044">
        <ele>1160.7</ele>
        <time>2021-08-20T09:48:13Z</time>
      </trkpt>
      <trkpt lat="46.10532" lon="5.70046">
        <ele>1160.8</ele>
        <time>2021-08-20T09:48:14Z</time>
      </trkpt>
      <trkpt lat="46.1052" lon="5.70047">
        <ele>1161</ele>
        <time>2021-08-20T09:48:16Z</time>
      </trkpt>
      <trkpt lat="46.10509" lon="5.70047">
        <ele>1161.2</ele>
        <time>2021-08-20T09:48:18Z</time>
      </trkpt>
      <trkpt lat="46.10503" lon="5.70047">
        <ele>1161.3</ele>
        <time>2021-08-20T09:48:19Z</time>
      </trkpt>
      <trkpt lat="46.10494" lon="5.70045">
        <ele>1161.5</ele>
        <time>2021-08-20T09:48:21Z</time>
      </trkpt>
      <trkpt lat="46.10486" lon="5.70045">
        <ele>1161.6</ele>
        <time>2021-08-20T09:48:23Z</time>
      </trkpt>
      <trkpt lat="46.10482" lon="5.70044">
        <ele>1161.7</ele>
        <time>2021-08-20T09:48:24Z</time>
      </trkpt>
      <trkpt lat="46.10481" lon="5.70044">
        <ele>1161.8</ele>
        <time>2021-08-20T09:48:25Z</time>
      </trkpt>
      <trkpt lat="46.10481" lon="5.70043">
        <ele>1161.8</ele>
        <time>2021-08-20T09:48:26Z</time>
      </trkpt>
      <trkpt lat="46.10479" lon="5.7004">
        <ele>1161.8</ele>
        <time>2021-08-20T09:48:28Z</time>
      </trkpt>
      <trkpt lat="46.10477" lon="5.70037">
        <ele>1161.9</ele>
        <time>2021-08-20T09:48:29Z</time>
      </trkpt>
      <trkpt lat="46.10476" lon="5.70037">
        <ele>1161.9</ele>
        <time>2021-08-20T09:48:30Z</time>
      </trkpt>
      <trkpt lat="46.10475" lon="5.70035">
        <ele>1162</ele>
        <time>2021-08-20T09:48:31Z</time>
      </trkpt>
      <trkpt lat="46.10472" lon="5.70033">
        <ele>1162</ele>
        <time>2021-08-20T09:48:33Z</time>
      </trkpt>
      <trkpt lat="46.10466" lon="5.70029">
        <ele>1162.2</ele>
        <time>2021-08-20T09:48:35Z</time>
      </trkpt>
      <trkpt lat="46.10427" lon="5.70033">
        <ele>1162.8</ele>
        <time>2021-08-20T09:49:00Z</time>
      </trkpt>
      <trkpt lat="46.10425" lon="5.70038">
        <ele>1162.9</ele>
        <time>2021-08-20T09:49:01Z</time>
      </trkpt>
      <trkpt lat="46.10422" lon="5.70044">
        <ele>1163.1</ele>
        <time>2021-08-20T09:49:02Z</time>
      </trkpt>
      <trkpt lat="46.10417" lon="5.70055">
        <ele>1163.3</ele>
        <time>2021-08-20T09:49:04Z</time>
      </trkpt>
      <trkpt lat="46.10413" lon="5.70065">
        <ele>1163.6</ele>
        <time>2021-08-20T09:49:06Z</time>
      </trkpt>
      <trkpt lat="46.1041" lon="5.70073">
        <ele>1163.7</ele>
        <time>2021-08-20T09:49:07Z</time>
      </trkpt>
      <trkpt lat="46.10408" lon="5.70078">
        <ele>1163.8</ele>
        <time>2021-08-20T09:49:08Z</time>
      </trkpt>
      <trkpt lat="46.10407" lon="5.70085">
        <ele>1163.9</ele>
        <time>2021-08-20T09:49:10Z</time>
      </trkpt>
      <trkpt lat="46.10406" lon="5.7009">
        <ele>1164</ele>
        <time>2021-08-20T09:49:11Z</time>
      </trkpt>
      <trkpt lat="46.10406" lon="5.70095">
        <ele>1164.1</ele>
        <time>2021-08-20T09:49:12Z</time>
      </trkpt>
      <trkpt lat="46.10406" lon="5.70097">
        <ele>1164.1</ele>
        <time>2021-08-20T09:49:13Z</time>
      </trkpt>
      <trkpt lat="46.10405" lon="5.70102">
        <ele>1164.2</ele>
        <time>2021-08-20T09:49:14Z</time>
      </trkpt>
      <trkpt lat="46.10404" lon="5.70104">
        <ele>1164.2</ele>
        <time>2021-08-20T09:49:15Z</time>
      </trkpt>
      <trkpt lat="46.10404" lon="5.70109">
        <ele>1164.3</ele>
        <time>2021-08-20T09:49:16Z</time>
      </trkpt>
      <trkpt lat="46.10403" lon="5.70114">
        <ele>1164.4</ele>
        <time>2021-08-20T09:49:17Z</time>
      </trkpt>
      <trkpt lat="46.10401" lon="5.70119">
        <ele>1164.4</ele>
        <time>2021-08-20T09:49:18Z</time>
      </trkpt>
      <trkpt lat="46.104" lon="5.70127">
        <ele>1164.5</ele>
        <time>2021-08-20T09:49:20Z</time>
      </trkpt>
      <trkpt lat="46.104" lon="5.70133">
        <ele>1164.6</ele>
        <time>2021-08-20T09:49:21Z</time>
      </trkpt>
      <trkpt lat="46.10401" lon="5.70139">
        <ele>1164.7</ele>
        <time>2021-08-20T09:49:22Z</time>
      </trkpt>
      <trkpt lat="46.10401" lon="5.70143">
        <ele>1164.7</ele>
        <time>2021-08-20T09:49:23Z</time>
      </trkpt>
      <trkpt lat="46.10402" lon="5.7015">
        <ele>1164.9</ele>
        <time>2021-08-20T09:49:25Z</time>
      </trkpt>
      <trkpt lat="46.10401" lon="5.70156">
        <ele>1165</ele>
        <time>2021-08-20T09:49:26Z</time>
      </trkpt>
      <trkpt lat="46.104" lon="5.7016">
        <ele>1165.1</ele>
        <time>2021-08-20T09:49:27Z</time>
      </trkpt>
      <trkpt lat="46.104" lon="5.70163">
        <ele>1165.1</ele>
        <time>2021-08-20T09:49:28Z</time>
      </trkpt>
      <trkpt lat="46.10399" lon="5.7017">
        <ele>1165.3</ele>
        <time>2021-08-20T09:49:30Z</time>
      </trkpt>
      <trkpt lat="46.10398" lon="5.70174">
        <ele>1165.4</ele>
        <time>2021-08-20T09:49:31Z</time>
      </trkpt>
      <trkpt lat="46.10398" lon="5.70176">
        <ele>1165.4</ele>
        <time>2021-08-20T09:49:32Z</time>
      </trkpt>
      <trkpt lat="46.10399" lon="5.70181">
        <ele>1165.6</ele>
        <time>2021-08-20T09:49:34Z</time>
      </trkpt>
      <trkpt lat="46.10399" lon="5.70186">
        <ele>1165.7</ele>
        <time>2021-08-20T09:49:35Z</time>
      </trkpt>
      <trkpt lat="46.10399" lon="5.7019">
        <ele>1165.8</ele>
        <time>2021-08-20T09:49:36Z</time>
      </trkpt>
      <trkpt lat="46.10399" lon="5.70194">
        <ele>1165.9</ele>
        <time>2021-08-20T09:49:38Z</time>
      </trkpt>
      <trkpt lat="46.10399" lon="5.702">
        <ele>1166.1</ele>
        <time>2021-08-20T09:49:39Z</time>
      </trkpt>
      <trkpt lat="46.10399" lon="5.70201">
        <ele>1166.1</ele>
        <time>2021-08-20T09:49:40Z</time>
      </trkpt>
      <trkpt lat="46.10399" lon="5.70207">
        <ele>1166.3</ele>
        <time>2021-08-20T09:49:42Z</time>
      </trkpt>
      <trkpt lat="46.10399" lon="5.70211">
        <ele>1166.4</ele>
        <time>2021-08-20T09:49:43Z</time>
      </trkpt>
      <trkpt lat="46.10399" lon="5.70215">
        <ele>1166.5</ele>
        <time>2021-08-20T09:49:44Z</time>
      </trkpt>
      <trkpt lat="46.10399" lon="5.7022">
        <ele>1166.7</ele>
        <time>2021-08-20T09:49:46Z</time>
      </trkpt>
      <trkpt lat="46.104" lon="5.70224">
        <ele>1166.8</ele>
        <time>2021-08-20T09:49:47Z</time>
      </trkpt>
      <trkpt lat="46.10401" lon="5.70227">
        <ele>1166.9</ele>
        <time>2021-08-20T09:49:48Z</time>
      </trkpt>
      <trkpt lat="46.10401" lon="5.70232">
        <ele>1167</ele>
        <time>2021-08-20T09:49:50Z</time>
      </trkpt>
      <trkpt lat="46.10401" lon="5.70236">
        <ele>1167.1</ele>
        <time>2021-08-20T09:49:51Z</time>
      </trkpt>
      <trkpt lat="46.10401" lon="5.70243">
        <ele>1167.3</ele>
        <time>2021-08-20T09:49:53Z</time>
      </trkpt>
      <trkpt lat="46.10401" lon="5.70245">
        <ele>1167.4</ele>
        <time>2021-08-20T09:49:54Z</time>
      </trkpt>
      <trkpt lat="46.10401" lon="5.70248">
        <ele>1167.5</ele>
        <time>2021-08-20T09:49:55Z</time>
      </trkpt>
      <trkpt lat="46.10401" lon="5.70251">
        <ele>1167.6</ele>
        <time>2021-08-20T09:49:56Z</time>
      </trkpt>
      <trkpt lat="46.104" lon="5.70255">
        <ele>1167.7</ele>
        <time>2021-08-20T09:49:58Z</time>
      </trkpt>
      <trkpt lat="46.10399" lon="5.70259">
        <ele>1167.8</ele>
        <time>2021-08-20T09:49:59Z</time>
      </trkpt>
      <trkpt lat="46.10399" lon="5.7026">
        <ele>1167.9</ele>
        <time>2021-08-20T09:50:00Z</time>
      </trkpt>
      <trkpt lat="46.10397" lon="5.70265">
        <ele>1168.1</ele>
        <time>2021-08-20T09:50:01Z</time>
      </trkpt>
      <trkpt lat="46.10397" lon="5.70268">
        <ele>1168.2</ele>
        <time>2021-08-20T09:50:02Z</time>
      </trkpt>
      <trkpt lat="46.10396" lon="5.70274">
        <ele>1168.4</ele>
        <time>2021-08-20T09:50:04Z</time>
      </trkpt>
      <trkpt lat="46.10396" lon="5.70276">
        <ele>1168.5</ele>
        <time>2021-08-20T09:50:05Z</time>
      </trkpt>
      <trkpt lat="46.10396" lon="5.70279">
        <ele>1168.6</ele>
        <time>2021-08-20T09:50:06Z</time>
      </trkpt>
      <trkpt lat="46.10397" lon="5.70283">
        <ele>1168.7</ele>
        <time>2021-08-20T09:50:08Z</time>
      </trkpt>
      <trkpt lat="46.10397" lon="5.70287">
        <ele>1168.9</ele>
        <time>2021-08-20T09:50:10Z</time>
      </trkpt>
      <trkpt lat="46.10397" lon="5.7029">
        <ele>1169.1</ele>
        <time>2021-08-20T09:50:12Z</time>
      </trkpt>
      <trkpt lat="46.10397" lon="5.70292">
        <ele>1169.1</ele>
        <time>2021-08-20T09:50:13Z</time>
      </trkpt>
      <trkpt lat="46.10398" lon="5.70296">
        <ele>1169.3</ele>
        <time>2021-08-20T09:50:14Z</time>
      </trkpt>
      <trkpt lat="46.10398" lon="5.70298">
        <ele>1169.4</ele>
        <time>2021-08-20T09:50:16Z</time>
      </trkpt>
      <trkpt lat="46.10399" lon="5.703">
        <ele>1169.5</ele>
        <time>2021-08-20T09:50:17Z</time>
      </trkpt>
      <trkpt lat="46.104" lon="5.70302">
        <ele>1169.6</ele>
        <time>2021-08-20T09:50:18Z</time>
      </trkpt>
      <trkpt lat="46.10401" lon="5.70308">
        <ele>1169.8</ele>
        <time>2021-08-20T09:50:20Z</time>
      </trkpt>
      <trkpt lat="46.10401" lon="5.7031">
        <ele>1169.9</ele>
        <time>2021-08-20T09:50:22Z</time>
      </trkpt>
      <trkpt lat="46.10401" lon="5.70311">
        <ele>1170</ele>
        <time>2021-08-20T09:50:24Z</time>
      </trkpt>
      <trkpt lat="46.10401" lon="5.70313">
        <ele>1170.1</ele>
        <time>2021-08-20T09:50:26Z</time>
      </trkpt>
      <trkpt lat="46.10401" lon="5.70315">
        <ele>1170.1</ele>
        <time>2021-08-20T09:50:27Z</time>
      </trkpt>
      <trkpt lat="46.10401" lon="5.70317">
        <ele>1170.2</ele>
        <time>2021-08-20T09:50:29Z</time>
      </trkpt>
      <trkpt lat="46.10401" lon="5.70319">
        <ele>1170.3</ele>
        <time>2021-08-20T09:50:30Z</time>
      </trkpt>
      <trkpt lat="46.10401" lon="5.7032">
        <ele>1170.4</ele>
        <time>2021-08-20T09:50:32Z</time>
      </trkpt>
      <trkpt lat="46.10401" lon="5.70322">
        <ele>1170.4</ele>
        <time>2021-08-20T09:50:33Z</time>
      </trkpt>
      <trkpt lat="46.104" lon="5.70323">
        <ele>1170.5</ele>
        <time>2021-08-20T09:50:34Z</time>
      </trkpt>
      <trkpt lat="46.10396" lon="5.70353">
        <ele>1171.6</ele>
        <time>2021-08-20T09:50:45Z</time>
      </trkpt>
      <trkpt lat="46.10397" lon="5.7036">
        <ele>1171.9</ele>
        <time>2021-08-20T09:50:47Z</time>
      </trkpt>
      <trkpt lat="46.104" lon="5.70367">
        <ele>1172.1</ele>
        <time>2021-08-20T09:50:48Z</time>
      </trkpt>
      <trkpt lat="46.10404" lon="5.70375">
        <ele>1172.4</ele>
        <time>2021-08-20T09:50:50Z</time>
      </trkpt>
      <trkpt lat="46.10406" lon="5.70383">
        <ele>1172.7</ele>
        <time>2021-08-20T09:50:52Z</time>
      </trkpt>
      <trkpt lat="46.10407" lon="5.70389">
        <ele>1172.9</ele>
        <time>2021-08-20T09:50:53Z</time>
      </trkpt>
      <trkpt lat="46.10409" lon="5.70399">
        <ele>1173.1</ele>
        <time>2021-08-20T09:50:55Z</time>
      </trkpt>
      <trkpt lat="46.10409" lon="5.70409">
        <ele>1173.4</ele>
        <time>2021-08-20T09:50:57Z</time>
      </trkpt>
      <trkpt lat="46.10409" lon="5.70417">
        <ele>1173.5</ele>
        <time>2021-08-20T09:50:59Z</time>
      </trkpt>
      <trkpt lat="46.1041" lon="5.70422">
        <ele>1173.7</ele>
        <time>2021-08-20T09:51:00Z</time>
      </trkpt>
      <trkpt lat="46.10411" lon="5.70424">
        <ele>1173.7</ele>
        <time>2021-08-20T09:51:01Z</time>
      </trkpt>
      <trkpt lat="46.10412" lon="5.70427">
        <ele>1173.8</ele>
        <time>2021-08-20T09:51:02Z</time>
      </trkpt>
      <trkpt lat="46.10416" lon="5.7043">
        <ele>1173.9</ele>
        <time>2021-08-20T09:51:04Z</time>
      </trkpt>
      <trkpt lat="46.10417" lon="5.70431">
        <ele>1173.9</ele>
        <time>2021-08-20T09:51:05Z</time>
      </trkpt>
      <trkpt lat="46.10417" lon="5.70433">
        <ele>1174</ele>
        <time>2021-08-20T09:51:06Z</time>
      </trkpt>
      <trkpt lat="46.10418" lon="5.70435">
        <ele>1174</ele>
        <time>2021-08-20T09:51:07Z</time>
      </trkpt>
      <trkpt lat="46.10419" lon="5.70437">
        <ele>1174.1</ele>
        <time>2021-08-20T09:51:09Z</time>
      </trkpt>
      <trkpt lat="46.1042" lon="5.70439">
        <ele>1174.1</ele>
        <time>2021-08-20T09:51:10Z</time>
      </trkpt>
      <trkpt lat="46.1042" lon="5.70441">
        <ele>1174.1</ele>
        <time>2021-08-20T09:51:11Z</time>
      </trkpt>
      <trkpt lat="46.1042" lon="5.70443">
        <ele>1174.2</ele>
        <time>2021-08-20T09:51:12Z</time>
      </trkpt>
      <trkpt lat="46.10418" lon="5.70448">
        <ele>1174.2</ele>
        <time>2021-08-20T09:51:14Z</time>
      </trkpt>
      <trkpt lat="46.10419" lon="5.70453">
        <ele>1174.3</ele>
        <time>2021-08-20T09:51:16Z</time>
      </trkpt>
      <trkpt lat="46.10421" lon="5.70458">
        <ele>1174.3</ele>
        <time>2021-08-20T09:51:18Z</time>
      </trkpt>
      <trkpt lat="46.10423" lon="5.70461">
        <ele>1174.4</ele>
        <time>2021-08-20T09:51:19Z</time>
      </trkpt>
      <trkpt lat="46.10425" lon="5.70464">
        <ele>1174.4</ele>
        <time>2021-08-20T09:51:20Z</time>
      </trkpt>
      <trkpt lat="46.10429" lon="5.70469">
        <ele>1174.5</ele>
        <time>2021-08-20T09:51:22Z</time>
      </trkpt>
      <trkpt lat="46.10433" lon="5.70473">
        <ele>1174.5</ele>
        <time>2021-08-20T09:51:24Z</time>
      </trkpt>
      <trkpt lat="46.10436" lon="5.70477">
        <ele>1174.6</ele>
        <time>2021-08-20T09:51:25Z</time>
      </trkpt>
      <trkpt lat="46.10438" lon="5.70479">
        <ele>1174.6</ele>
        <time>2021-08-20T09:51:26Z</time>
      </trkpt>
      <trkpt lat="46.10442" lon="5.70481">
        <ele>1174.7</ele>
        <time>2021-08-20T09:51:27Z</time>
      </trkpt>
      <trkpt lat="46.10445" lon="5.70482">
        <ele>1174.7</ele>
        <time>2021-08-20T09:51:28Z</time>
      </trkpt>
      <trkpt lat="46.10452" lon="5.70484">
        <ele>1174.8</ele>
        <time>2021-08-20T09:51:30Z</time>
      </trkpt>
      <trkpt lat="46.10457" lon="5.70485">
        <ele>1174.9</ele>
        <time>2021-08-20T09:51:31Z</time>
      </trkpt>
      <trkpt lat="46.10461" lon="5.70487">
        <ele>1175</ele>
        <time>2021-08-20T09:51:33Z</time>
      </trkpt>
      <trkpt lat="46.10465" lon="5.70489">
        <ele>1175</ele>
        <time>2021-08-20T09:51:34Z</time>
      </trkpt>
      <trkpt lat="46.10467" lon="5.7049">
        <ele>1175</ele>
        <time>2021-08-20T09:51:35Z</time>
      </trkpt>
      <trkpt lat="46.10473" lon="5.7049">
        <ele>1175.1</ele>
        <time>2021-08-20T09:51:37Z</time>
      </trkpt>
      <trkpt lat="46.1048" lon="5.70491">
        <ele>1175.1</ele>
        <time>2021-08-20T09:51:39Z</time>
      </trkpt>
      <trkpt lat="46.10484" lon="5.70491">
        <ele>1175.2</ele>
        <time>2021-08-20T09:51:40Z</time>
      </trkpt>
      <trkpt lat="46.10487" lon="5.70491">
        <ele>1175.2</ele>
        <time>2021-08-20T09:51:42Z</time>
      </trkpt>
      <trkpt lat="46.10491" lon="5.70491">
        <ele>1175.3</ele>
        <time>2021-08-20T09:51:43Z</time>
      </trkpt>
      <trkpt lat="46.10496" lon="5.70492">
        <ele>1175.3</ele>
        <time>2021-08-20T09:51:45Z</time>
      </trkpt>
      <trkpt lat="46.10499" lon="5.70493">
        <ele>1175.3</ele>
        <time>2021-08-20T09:51:46Z</time>
      </trkpt>
      <trkpt lat="46.10503" lon="5.70494">
        <ele>1175.4</ele>
        <time>2021-08-20T09:51:47Z</time>
      </trkpt>
      <trkpt lat="46.10506" lon="5.70494">
        <ele>1175.4</ele>
        <time>2021-08-20T09:51:48Z</time>
      </trkpt>
      <trkpt lat="46.10509" lon="5.70494">
        <ele>1175.4</ele>
        <time>2021-08-20T09:51:49Z</time>
      </trkpt>
      <trkpt lat="46.10513" lon="5.70496">
        <ele>1175.5</ele>
        <time>2021-08-20T09:51:51Z</time>
      </trkpt>
      <trkpt lat="46.10517" lon="5.70497">
        <ele>1175.5</ele>
        <time>2021-08-20T09:51:52Z</time>
      </trkpt>
      <trkpt lat="46.10518" lon="5.70497">
        <ele>1175.6</ele>
        <time>2021-08-20T09:51:53Z</time>
      </trkpt>
      <trkpt lat="46.10522" lon="5.70498">
        <ele>1175.6</ele>
        <time>2021-08-20T09:51:54Z</time>
      </trkpt>
      <trkpt lat="46.10526" lon="5.705">
        <ele>1175.7</ele>
        <time>2021-08-20T09:51:56Z</time>
      </trkpt>
      <trkpt lat="46.10529" lon="5.70501">
        <ele>1175.7</ele>
        <time>2021-08-20T09:51:57Z</time>
      </trkpt>
      <trkpt lat="46.10532" lon="5.70502">
        <ele>1175.8</ele>
        <time>2021-08-20T09:51:58Z</time>
      </trkpt>
      <trkpt lat="46.10535" lon="5.70504">
        <ele>1175.8</ele>
        <time>2021-08-20T09:51:59Z</time>
      </trkpt>
      <trkpt lat="46.10539" lon="5.70506">
        <ele>1175.9</ele>
        <time>2021-08-20T09:52:00Z</time>
      </trkpt>
      <trkpt lat="46.10543" lon="5.70508">
        <ele>1176</ele>
        <time>2021-08-20T09:52:01Z</time>
      </trkpt>
      <trkpt lat="46.10546" lon="5.7051">
        <ele>1176</ele>
        <time>2021-08-20T09:52:02Z</time>
      </trkpt>
      <trkpt lat="46.1055" lon="5.70511">
        <ele>1176.1</ele>
        <time>2021-08-20T09:52:04Z</time>
      </trkpt>
      <trkpt lat="46.10553" lon="5.70512">
        <ele>1176.1</ele>
        <time>2021-08-20T09:52:05Z</time>
      </trkpt>
      <trkpt lat="46.10554" lon="5.70512">
        <ele>1176.2</ele>
        <time>2021-08-20T09:52:06Z</time>
      </trkpt>
      <trkpt lat="46.10557" lon="5.70514">
        <ele>1176.2</ele>
        <time>2021-08-20T09:52:07Z</time>
      </trkpt>
      <trkpt lat="46.1056" lon="5.70515">
        <ele>1176.3</ele>
        <time>2021-08-20T09:52:08Z</time>
      </trkpt>
      <trkpt lat="46.10563" lon="5.70518">
        <ele>1176.4</ele>
        <time>2021-08-20T09:52:09Z</time>
      </trkpt>
      <trkpt lat="46.10566" lon="5.7052">
        <ele>1176.4</ele>
        <time>2021-08-20T09:52:10Z</time>
      </trkpt>
      <trkpt lat="46.1057" lon="5.70523">
        <ele>1176.5</ele>
        <time>2021-08-20T09:52:11Z</time>
      </trkpt>
      <trkpt lat="46.10573" lon="5.70525">
        <ele>1176.6</ele>
        <time>2021-08-20T09:52:12Z</time>
      </trkpt>
      <trkpt lat="46.10576" lon="5.70527">
        <ele>1176.7</ele>
        <time>2021-08-20T09:52:13Z</time>
      </trkpt>
      <trkpt lat="46.10579" lon="5.70529">
        <ele>1176.8</ele>
        <time>2021-08-20T09:52:14Z</time>
      </trkpt>
      <trkpt lat="46.10584" lon="5.7053">
        <ele>1176.9</ele>
        <time>2021-08-20T09:52:16Z</time>
      </trkpt>
      <trkpt lat="46.10589" lon="5.7053">
        <ele>1177</ele>
        <time>2021-08-20T09:52:17Z</time>
      </trkpt>
      <trkpt lat="46.10592" lon="5.7053">
        <ele>1177.1</ele>
        <time>2021-08-20T09:52:18Z</time>
      </trkpt>
      <trkpt lat="46.10596" lon="5.70531">
        <ele>1177.2</ele>
        <time>2021-08-20T09:52:19Z</time>
      </trkpt>
      <trkpt lat="46.10598" lon="5.70533">
        <ele>1177.2</ele>
        <time>2021-08-20T09:52:20Z</time>
      </trkpt>
      <trkpt lat="46.10601" lon="5.70535">
        <ele>1177.3</ele>
        <time>2021-08-20T09:52:21Z</time>
      </trkpt>
      <trkpt lat="46.10602" lon="5.70536">
        <ele>1177.3</ele>
        <time>2021-08-20T09:52:22Z</time>
      </trkpt>
      <trkpt lat="46.10604" lon="5.7054">
        <ele>1177.4</ele>
        <time>2021-08-20T09:52:23Z</time>
      </trkpt>
      <trkpt lat="46.10606" lon="5.70544">
        <ele>1177.4</ele>
        <time>2021-08-20T09:52:25Z</time>
      </trkpt>
      <trkpt lat="46.10609" lon="5.70547">
        <ele>1177.5</ele>
        <time>2021-08-20T09:52:26Z</time>
      </trkpt>
      <trkpt lat="46.10612" lon="5.7055">
        <ele>1177.5</ele>
        <time>2021-08-20T09:52:27Z</time>
      </trkpt>
      <trkpt lat="46.10613" lon="5.70552">
        <ele>1177.5</ele>
        <time>2021-08-20T09:52:28Z</time>
      </trkpt>
      <trkpt lat="46.10616" lon="5.70556">
        <ele>1177.6</ele>
        <time>2021-08-20T09:52:30Z</time>
      </trkpt>
      <trkpt lat="46.10619" lon="5.70559">
        <ele>1177.6</ele>
        <time>2021-08-20T09:52:31Z</time>
      </trkpt>
      <trkpt lat="46.10622" lon="5.70563">
        <ele>1177.7</ele>
        <time>2021-08-20T09:52:32Z</time>
      </trkpt>
      <trkpt lat="46.10626" lon="5.70567">
        <ele>1177.7</ele>
        <time>2021-08-20T09:52:34Z</time>
      </trkpt>
      <trkpt lat="46.1063" lon="5.70571">
        <ele>1177.8</ele>
        <time>2021-08-20T09:52:35Z</time>
      </trkpt>
      <trkpt lat="46.10633" lon="5.70575">
        <ele>1177.8</ele>
        <time>2021-08-20T09:52:36Z</time>
      </trkpt>
      <trkpt lat="46.10636" lon="5.70582">
        <ele>1177.9</ele>
        <time>2021-08-20T09:52:38Z</time>
      </trkpt>
      <trkpt lat="46.10638" lon="5.70589">
        <ele>1177.9</ele>
        <time>2021-08-20T09:52:39Z</time>
      </trkpt>
      <trkpt lat="46.10639" lon="5.70598">
        <ele>1178</ele>
        <time>2021-08-20T09:52:41Z</time>
      </trkpt>
      <trkpt lat="46.10638" lon="5.70606">
        <ele>1178.1</ele>
        <time>2021-08-20T09:52:43Z</time>
      </trkpt>
      <trkpt lat="46.10637" lon="5.70615">
        <ele>1178.2</ele>
        <time>2021-08-20T09:52:44Z</time>
      </trkpt>
      <trkpt lat="46.10635" lon="5.70621">
        <ele>1178.3</ele>
        <time>2021-08-20T09:52:46Z</time>
      </trkpt>
      <trkpt lat="46.10634" lon="5.70626">
        <ele>1178.4</ele>
        <time>2021-08-20T09:52:47Z</time>
      </trkpt>
      <trkpt lat="46.10633" lon="5.70631">
        <ele>1178.4</ele>
        <time>2021-08-20T09:52:48Z</time>
      </trkpt>
      <trkpt lat="46.10631" lon="5.70636">
        <ele>1178.5</ele>
        <time>2021-08-20T09:52:49Z</time>
      </trkpt>
      <trkpt lat="46.1063" lon="5.70641">
        <ele>1178.6</ele>
        <time>2021-08-20T09:52:50Z</time>
      </trkpt>
      <trkpt lat="46.10628" lon="5.70646">
        <ele>1178.7</ele>
        <time>2021-08-20T09:52:51Z</time>
      </trkpt>
      <trkpt lat="46.10626" lon="5.70651">
        <ele>1178.8</ele>
        <time>2021-08-20T09:52:52Z</time>
      </trkpt>
      <trkpt lat="46.10624" lon="5.70658">
        <ele>1179</ele>
        <time>2021-08-20T09:52:53Z</time>
      </trkpt>
      <trkpt lat="46.10623" lon="5.70664">
        <ele>1179.1</ele>
        <time>2021-08-20T09:52:55Z</time>
      </trkpt>
      <trkpt lat="46.10621" lon="5.70669">
        <ele>1179.1</ele>
        <time>2021-08-20T09:52:56Z</time>
      </trkpt>
      <trkpt lat="46.1062" lon="5.70671">
        <ele>1179.2</ele>
        <time>2021-08-20T09:52:57Z</time>
      </trkpt>
      <trkpt lat="46.10619" lon="5.70675">
        <ele>1179.2</ele>
        <time>2021-08-20T09:52:58Z</time>
      </trkpt>
      <trkpt lat="46.10615" lon="5.70681">
        <ele>1179.3</ele>
        <time>2021-08-20T09:53:00Z</time>
      </trkpt>
      <trkpt lat="46.10614" lon="5.70683">
        <ele>1179.3</ele>
        <time>2021-08-20T09:53:01Z</time>
      </trkpt>
      <trkpt lat="46.10612" lon="5.70684">
        <ele>1179.4</ele>
        <time>2021-08-20T09:53:03Z</time>
      </trkpt>
      <trkpt lat="46.10611" lon="5.70687">
        <ele>1179.4</ele>
        <time>2021-08-20T09:53:05Z</time>
      </trkpt>
      <trkpt lat="46.10611" lon="5.7069">
        <ele>1179.4</ele>
        <time>2021-08-20T09:53:07Z</time>
      </trkpt>
      <trkpt lat="46.10611" lon="5.70693">
        <ele>1179.4</ele>
        <time>2021-08-20T09:53:08Z</time>
      </trkpt>
      <trkpt lat="46.10611" lon="5.70695">
        <ele>1179.5</ele>
        <time>2021-08-20T09:53:10Z</time>
      </trkpt>
      <trkpt lat="46.10611" lon="5.70698">
        <ele>1179.5</ele>
        <time>2021-08-20T09:53:12Z</time>
      </trkpt>
      <trkpt lat="46.1061" lon="5.70701">
        <ele>1179.5</ele>
        <time>2021-08-20T09:54:37Z</time>
      </trkpt>
      <trkpt lat="46.1061" lon="5.70703">
        <ele>1179.5</ele>
        <time>2021-08-20T09:54:38Z</time>
      </trkpt>
      <trkpt lat="46.10611" lon="5.70714">
        <ele>1179.6</ele>
        <time>2021-08-20T09:54:40Z</time>
      </trkpt>
      <trkpt lat="46.10611" lon="5.70723">
        <ele>1179.7</ele>
        <time>2021-08-20T09:54:41Z</time>
      </trkpt>
      <trkpt lat="46.10612" lon="5.70731">
        <ele>1179.8</ele>
        <time>2021-08-20T09:54:42Z</time>
      </trkpt>
      <trkpt lat="46.10613" lon="5.7074">
        <ele>1179.9</ele>
        <time>2021-08-20T09:54:44Z</time>
      </trkpt>
      <trkpt lat="46.10614" lon="5.70747">
        <ele>1180</ele>
        <time>2021-08-20T09:54:45Z</time>
      </trkpt>
      <trkpt lat="46.10616" lon="5.70753">
        <ele>1180.1</ele>
        <time>2021-08-20T09:54:47Z</time>
      </trkpt>
      <trkpt lat="46.10616" lon="5.70758">
        <ele>1180.1</ele>
        <time>2021-08-20T09:54:48Z</time>
      </trkpt>
      <trkpt lat="46.10617" lon="5.70764">
        <ele>1180.2</ele>
        <time>2021-08-20T09:54:49Z</time>
      </trkpt>
      <trkpt lat="46.10617" lon="5.70765">
        <ele>1180.2</ele>
        <time>2021-08-20T09:54:50Z</time>
      </trkpt>
      <trkpt lat="46.10618" lon="5.7077">
        <ele>1180.2</ele>
        <time>2021-08-20T09:54:52Z</time>
      </trkpt>
      <trkpt lat="46.10618" lon="5.70774">
        <ele>1180.3</ele>
        <time>2021-08-20T09:54:53Z</time>
      </trkpt>
      <trkpt lat="46.10619" lon="5.70778">
        <ele>1180.3</ele>
        <time>2021-08-20T09:54:54Z</time>
      </trkpt>
      <trkpt lat="46.10622" lon="5.70784">
        <ele>1180.4</ele>
        <time>2021-08-20T09:54:56Z</time>
      </trkpt>
      <trkpt lat="46.10623" lon="5.70786">
        <ele>1180.4</ele>
        <time>2021-08-20T09:54:57Z</time>
      </trkpt>
      <trkpt lat="46.10624" lon="5.70788">
        <ele>1180.5</ele>
        <time>2021-08-20T09:54:58Z</time>
      </trkpt>
      <trkpt lat="46.10626" lon="5.70791">
        <ele>1180.5</ele>
        <time>2021-08-20T09:54:59Z</time>
      </trkpt>
      <trkpt lat="46.10629" lon="5.70794">
        <ele>1180.5</ele>
        <time>2021-08-20T09:55:00Z</time>
      </trkpt>
      <trkpt lat="46.1063" lon="5.70795">
        <ele>1180.5</ele>
        <time>2021-08-20T09:55:01Z</time>
      </trkpt>
      <trkpt lat="46.10632" lon="5.70801">
        <ele>1180.6</ele>
        <time>2021-08-20T09:55:03Z</time>
      </trkpt>
      <trkpt lat="46.10633" lon="5.70805">
        <ele>1180.6</ele>
        <time>2021-08-20T09:55:04Z</time>
      </trkpt>
      <trkpt lat="46.10636" lon="5.70808">
        <ele>1180.6</ele>
        <time>2021-08-20T09:55:05Z</time>
      </trkpt>
      <trkpt lat="46.10637" lon="5.70811">
        <ele>1180.6</ele>
        <time>2021-08-20T09:55:06Z</time>
      </trkpt>
      <trkpt lat="46.10638" lon="5.70816">
        <ele>1180.6</ele>
        <time>2021-08-20T09:55:07Z</time>
      </trkpt>
      <trkpt lat="46.1064" lon="5.70826">
        <ele>1180.7</ele>
        <time>2021-08-20T09:55:09Z</time>
      </trkpt>
      <trkpt lat="46.10641" lon="5.70833">
        <ele>1180.7</ele>
        <time>2021-08-20T09:55:10Z</time>
      </trkpt>
      <trkpt lat="46.10641" lon="5.70838">
        <ele>1180.7</ele>
        <time>2021-08-20T09:55:11Z</time>
      </trkpt>
      <trkpt lat="46.1064" lon="5.70844">
        <ele>1180.7</ele>
        <time>2021-08-20T09:55:12Z</time>
      </trkpt>
      <trkpt lat="46.10638" lon="5.70852">
        <ele>1180.7</ele>
        <time>2021-08-20T09:55:14Z</time>
      </trkpt>
      <trkpt lat="46.10635" lon="5.70859">
        <ele>1180.8</ele>
        <time>2021-08-20T09:55:15Z</time>
      </trkpt>
      <trkpt lat="46.10632" lon="5.70865">
        <ele>1180.8</ele>
        <time>2021-08-20T09:55:17Z</time>
      </trkpt>
      <trkpt lat="46.10629" lon="5.7087">
        <ele>1180.8</ele>
        <time>2021-08-20T09:55:18Z</time>
      </trkpt>
      <trkpt lat="46.10626" lon="5.70873">
        <ele>1180.9</ele>
        <time>2021-08-20T09:55:19Z</time>
      </trkpt>
      <trkpt lat="46.10621" lon="5.70878">
        <ele>1180.9</ele>
        <time>2021-08-20T09:55:20Z</time>
      </trkpt>
      <trkpt lat="46.10618" lon="5.70882">
        <ele>1181</ele>
        <time>2021-08-20T09:55:21Z</time>
      </trkpt>
      <trkpt lat="46.10613" lon="5.70886">
        <ele>1181</ele>
        <time>2021-08-20T09:55:23Z</time>
      </trkpt>
      <trkpt lat="46.10608" lon="5.70888">
        <ele>1181.1</ele>
        <time>2021-08-20T09:55:24Z</time>
      </trkpt>
      <trkpt lat="46.10605" lon="5.7089">
        <ele>1181.1</ele>
        <time>2021-08-20T09:55:25Z</time>
      </trkpt>
      <trkpt lat="46.10601" lon="5.70892">
        <ele>1181.1</ele>
        <time>2021-08-20T09:55:26Z</time>
      </trkpt>
      <trkpt lat="46.10596" lon="5.70894">
        <ele>1181.2</ele>
        <time>2021-08-20T09:55:28Z</time>
      </trkpt>
      <trkpt lat="46.1059" lon="5.70897">
        <ele>1181.2</ele>
        <time>2021-08-20T09:55:30Z</time>
      </trkpt>
      <trkpt lat="46.10585" lon="5.709">
        <ele>1181.3</ele>
        <time>2021-08-20T09:55:31Z</time>
      </trkpt>
      <trkpt lat="46.10581" lon="5.70902">
        <ele>1181.3</ele>
        <time>2021-08-20T09:55:32Z</time>
      </trkpt>
      <trkpt lat="46.10576" lon="5.70905">
        <ele>1181.3</ele>
        <time>2021-08-20T09:55:34Z</time>
      </trkpt>
      <trkpt lat="46.1057" lon="5.70907">
        <ele>1181.4</ele>
        <time>2021-08-20T09:55:35Z</time>
      </trkpt>
      <trkpt lat="46.10567" lon="5.70908">
        <ele>1181.4</ele>
        <time>2021-08-20T09:55:36Z</time>
      </trkpt>
      <trkpt lat="46.10563" lon="5.70911">
        <ele>1181.4</ele>
        <time>2021-08-20T09:55:38Z</time>
      </trkpt>
      <trkpt lat="46.10561" lon="5.70914">
        <ele>1181.4</ele>
        <time>2021-08-20T09:55:39Z</time>
      </trkpt>
      <trkpt lat="46.1056" lon="5.70915">
        <ele>1181.4</ele>
        <time>2021-08-20T09:55:40Z</time>
      </trkpt>
      <trkpt lat="46.10558" lon="5.70919">
        <ele>1181.4</ele>
        <time>2021-08-20T09:55:41Z</time>
      </trkpt>
      <trkpt lat="46.10558" lon="5.7092">
        <ele>1181.4</ele>
        <time>2021-08-20T09:55:42Z</time>
      </trkpt>
      <trkpt lat="46.10553" lon="5.70922">
        <ele>1181.4</ele>
        <time>2021-08-20T09:55:44Z</time>
      </trkpt>
      <trkpt lat="46.10547" lon="5.70925">
        <ele>1181.4</ele>
        <time>2021-08-20T09:55:46Z</time>
      </trkpt>
      <trkpt lat="46.10542" lon="5.70926">
        <ele>1181.4</ele>
        <time>2021-08-20T09:55:47Z</time>
      </trkpt>
      <trkpt lat="46.10532" lon="5.70928">
        <ele>1181.4</ele>
        <time>2021-08-20T09:55:48Z</time>
      </trkpt>
      <trkpt lat="46.10527" lon="5.70929">
        <ele>1181.4</ele>
        <time>2021-08-20T09:55:49Z</time>
      </trkpt>
      <trkpt lat="46.10521" lon="5.70934">
        <ele>1181.4</ele>
        <time>2021-08-20T09:55:51Z</time>
      </trkpt>
      <trkpt lat="46.10516" lon="5.70936">
        <ele>1181.4</ele>
        <time>2021-08-20T09:55:52Z</time>
      </trkpt>
      <trkpt lat="46.10509" lon="5.70938">
        <ele>1181.4</ele>
        <time>2021-08-20T09:55:53Z</time>
      </trkpt>
      <trkpt lat="46.10503" lon="5.70943">
        <ele>1181.4</ele>
        <time>2021-08-20T09:55:55Z</time>
      </trkpt>
      <trkpt lat="46.10497" lon="5.70947">
        <ele>1181.4</ele>
        <time>2021-08-20T09:55:56Z</time>
      </trkpt>
      <trkpt lat="46.1049" lon="5.70951">
        <ele>1181.4</ele>
        <time>2021-08-20T09:55:58Z</time>
      </trkpt>
      <trkpt lat="46.10487" lon="5.70955">
        <ele>1181.4</ele>
        <time>2021-08-20T09:55:59Z</time>
      </trkpt>
      <trkpt lat="46.10484" lon="5.7096">
        <ele>1181.4</ele>
        <time>2021-08-20T09:56:00Z</time>
      </trkpt>
      <trkpt lat="46.10479" lon="5.7097">
        <ele>1181.4</ele>
        <time>2021-08-20T09:56:02Z</time>
      </trkpt>
      <trkpt lat="46.10477" lon="5.7098">
        <ele>1181.4</ele>
        <time>2021-08-20T09:56:04Z</time>
      </trkpt>
      <trkpt lat="46.10477" lon="5.70987">
        <ele>1181.4</ele>
        <time>2021-08-20T09:56:05Z</time>
      </trkpt>
      <trkpt lat="46.10478" lon="5.71001">
        <ele>1181.3</ele>
        <time>2021-08-20T09:56:07Z</time>
      </trkpt>
      <trkpt lat="46.10481" lon="5.71009">
        <ele>1181.2</ele>
        <time>2021-08-20T09:56:09Z</time>
      </trkpt>
      <trkpt lat="46.10485" lon="5.71011">
        <ele>1181.2</ele>
        <time>2021-08-20T09:56:10Z</time>
      </trkpt>
      <trkpt lat="46.10487" lon="5.71015">
        <ele>1181.1</ele>
        <time>2021-08-20T09:56:11Z</time>
      </trkpt>
      <trkpt lat="46.10496" lon="5.71022">
        <ele>1181.1</ele>
        <time>2021-08-20T09:56:13Z</time>
      </trkpt>
      <trkpt lat="46.10507" lon="5.71029">
        <ele>1181</ele>
        <time>2021-08-20T09:56:15Z</time>
      </trkpt>
      <trkpt lat="46.10512" lon="5.71032">
        <ele>1181</ele>
        <time>2021-08-20T09:56:16Z</time>
      </trkpt>
      <trkpt lat="46.10516" lon="5.71035">
        <ele>1181</ele>
        <time>2021-08-20T09:56:17Z</time>
      </trkpt>
      <trkpt lat="46.10528" lon="5.71041">
        <ele>1181</ele>
        <time>2021-08-20T09:56:19Z</time>
      </trkpt>
      <trkpt lat="46.10537" lon="5.71046">
        <ele>1180.9</ele>
        <time>2021-08-20T09:56:21Z</time>
      </trkpt>
      <trkpt lat="46.10545" lon="5.71053">
        <ele>1180.9</ele>
        <time>2021-08-20T09:56:23Z</time>
      </trkpt>
      <trkpt lat="46.10548" lon="5.71056">
        <ele>1180.9</ele>
        <time>2021-08-20T09:56:24Z</time>
      </trkpt>
      <trkpt lat="46.10556" lon="5.71062">
        <ele>1180.8</ele>
        <time>2021-08-20T09:56:26Z</time>
      </trkpt>
      <trkpt lat="46.1056" lon="5.71064">
        <ele>1180.8</ele>
        <time>2021-08-20T09:56:27Z</time>
      </trkpt>
      <trkpt lat="46.10563" lon="5.71068">
        <ele>1180.8</ele>
        <time>2021-08-20T09:56:28Z</time>
      </trkpt>
      <trkpt lat="46.1057" lon="5.71077">
        <ele>1180.7</ele>
        <time>2021-08-20T09:56:30Z</time>
      </trkpt>
      <trkpt lat="46.10577" lon="5.71085">
        <ele>1180.6</ele>
        <time>2021-08-20T09:56:32Z</time>
      </trkpt>
      <trkpt lat="46.10586" lon="5.71093">
        <ele>1180.5</ele>
        <time>2021-08-20T09:56:34Z</time>
      </trkpt>
      <trkpt lat="46.10591" lon="5.71097">
        <ele>1180.4</ele>
        <time>2021-08-20T09:56:35Z</time>
      </trkpt>
      <trkpt lat="46.10595" lon="5.71101">
        <ele>1180.3</ele>
        <time>2021-08-20T09:56:36Z</time>
      </trkpt>
      <trkpt lat="46.10599" lon="5.71104">
        <ele>1180.3</ele>
        <time>2021-08-20T09:56:37Z</time>
      </trkpt>
      <trkpt lat="46.10606" lon="5.71111">
        <ele>1180.1</ele>
        <time>2021-08-20T09:56:39Z</time>
      </trkpt>
      <trkpt lat="46.10614" lon="5.71119">
        <ele>1180</ele>
        <time>2021-08-20T09:56:41Z</time>
      </trkpt>
      <trkpt lat="46.10619" lon="5.7113">
        <ele>1179.8</ele>
        <time>2021-08-20T09:56:43Z</time>
      </trkpt>
      <trkpt lat="46.10625" lon="5.71143">
        <ele>1179.6</ele>
        <time>2021-08-20T09:56:45Z</time>
      </trkpt>
      <trkpt lat="46.10627" lon="5.71149">
        <ele>1179.4</ele>
        <time>2021-08-20T09:56:46Z</time>
      </trkpt>
      <trkpt lat="46.10629" lon="5.71157">
        <ele>1179.3</ele>
        <time>2021-08-20T09:56:47Z</time>
      </trkpt>
      <trkpt lat="46.10627" lon="5.71176">
        <ele>1179</ele>
        <time>2021-08-20T09:56:49Z</time>
      </trkpt>
      <trkpt lat="46.10617" lon="5.71199">
        <ele>1178.5</ele>
        <time>2021-08-20T09:56:51Z</time>
      </trkpt>
      <trkpt lat="46.10612" lon="5.71211">
        <ele>1178.3</ele>
        <time>2021-08-20T09:56:52Z</time>
      </trkpt>
      <trkpt lat="46.10603" lon="5.71236">
        <ele>1178.1</ele>
        <time>2021-08-20T09:56:54Z</time>
      </trkpt>
      <trkpt lat="46.106" lon="5.71248">
        <ele>1178</ele>
        <time>2021-08-20T09:56:55Z</time>
      </trkpt>
      <trkpt lat="46.106" lon="5.71264">
        <ele>1177.7</ele>
        <time>2021-08-20T09:56:57Z</time>
      </trkpt>
      <trkpt lat="46.10601" lon="5.71267">
        <ele>1177.7</ele>
        <time>2021-08-20T09:56:58Z</time>
      </trkpt>
      <trkpt lat="46.10601" lon="5.71269">
        <ele>1177.7</ele>
        <time>2021-08-20T09:56:59Z</time>
      </trkpt>
      <trkpt lat="46.10602" lon="5.71274">
        <ele>1177.6</ele>
        <time>2021-08-20T09:57:00Z</time>
      </trkpt>
      <trkpt lat="46.10602" lon="5.71285">
        <ele>1177.4</ele>
        <time>2021-08-20T09:57:02Z</time>
      </trkpt>
      <trkpt lat="46.10603" lon="5.71301">
        <ele>1177.1</ele>
        <time>2021-08-20T09:57:04Z</time>
      </trkpt>
      <trkpt lat="46.10612" lon="5.71316">
        <ele>1176.8</ele>
        <time>2021-08-20T09:57:06Z</time>
      </trkpt>
      <trkpt lat="46.10617" lon="5.71322">
        <ele>1176.7</ele>
        <time>2021-08-20T09:57:07Z</time>
      </trkpt>
      <trkpt lat="46.1063" lon="5.71332">
        <ele>1176.4</ele>
        <time>2021-08-20T09:57:09Z</time>
      </trkpt>
      <trkpt lat="46.10638" lon="5.71335">
        <ele>1176.2</ele>
        <time>2021-08-20T09:57:10Z</time>
      </trkpt>
      <trkpt lat="46.10645" lon="5.7134">
        <ele>1176.1</ele>
        <time>2021-08-20T09:57:11Z</time>
      </trkpt>
      <trkpt lat="46.10659" lon="5.71347">
        <ele>1175.8</ele>
        <time>2021-08-20T09:57:13Z</time>
      </trkpt>
      <trkpt lat="46.10673" lon="5.7135">
        <ele>1175.5</ele>
        <time>2021-08-20T09:57:15Z</time>
      </trkpt>
      <trkpt lat="46.10678" lon="5.71352">
        <ele>1175.4</ele>
        <time>2021-08-20T09:57:16Z</time>
      </trkpt>
      <trkpt lat="46.10688" lon="5.71358">
        <ele>1175.2</ele>
        <time>2021-08-20T09:57:18Z</time>
      </trkpt>
      <trkpt lat="46.10691" lon="5.71363">
        <ele>1175.1</ele>
        <time>2021-08-20T09:57:19Z</time>
      </trkpt>
      <trkpt lat="46.10698" lon="5.71374">
        <ele>1175.1</ele>
        <time>2021-08-20T09:57:21Z</time>
      </trkpt>
      <trkpt lat="46.10701" lon="5.71379">
        <ele>1175.1</ele>
        <time>2021-08-20T09:57:22Z</time>
      </trkpt>
      <trkpt lat="46.10703" lon="5.71386">
        <ele>1175.1</ele>
        <time>2021-08-20T09:57:23Z</time>
      </trkpt>
      <trkpt lat="46.10703" lon="5.71396">
        <ele>1175.1</ele>
        <time>2021-08-20T09:57:25Z</time>
      </trkpt>
      <trkpt lat="46.10705" lon="5.71407">
        <ele>1175.1</ele>
        <time>2021-08-20T09:57:27Z</time>
      </trkpt>
      <trkpt lat="46.10706" lon="5.71413">
        <ele>1175.1</ele>
        <time>2021-08-20T09:57:28Z</time>
      </trkpt>
      <trkpt lat="46.10707" lon="5.7142">
        <ele>1175.1</ele>
        <time>2021-08-20T09:57:29Z</time>
      </trkpt>
      <trkpt lat="46.10706" lon="5.71436">
        <ele>1175.1</ele>
        <time>2021-08-20T09:57:31Z</time>
      </trkpt>
      <trkpt lat="46.10702" lon="5.71456">
        <ele>1175.1</ele>
        <time>2021-08-20T09:57:33Z</time>
      </trkpt>
      <trkpt lat="46.107" lon="5.71467">
        <ele>1175</ele>
        <time>2021-08-20T09:57:34Z</time>
      </trkpt>
      <trkpt lat="46.10698" lon="5.71478">
        <ele>1175</ele>
        <time>2021-08-20T09:57:35Z</time>
      </trkpt>
      <trkpt lat="46.10695" lon="5.715">
        <ele>1174.8</ele>
        <time>2021-08-20T09:57:37Z</time>
      </trkpt>
      <trkpt lat="46.10691" lon="5.71519">
        <ele>1174.6</ele>
        <time>2021-08-20T09:57:39Z</time>
      </trkpt>
      <trkpt lat="46.1069" lon="5.71528">
        <ele>1174.5</ele>
        <time>2021-08-20T09:57:40Z</time>
      </trkpt>
      <trkpt lat="46.10689" lon="5.71537">
        <ele>1174.5</ele>
        <time>2021-08-20T09:57:41Z</time>
      </trkpt>
      <trkpt lat="46.10686" lon="5.71554">
        <ele>1174.4</ele>
        <time>2021-08-20T09:57:43Z</time>
      </trkpt>
      <trkpt lat="46.10684" lon="5.71568">
        <ele>1174.3</ele>
        <time>2021-08-20T09:57:45Z</time>
      </trkpt>
      <trkpt lat="46.10686" lon="5.71575">
        <ele>1174.2</ele>
        <time>2021-08-20T09:57:46Z</time>
      </trkpt>
      <trkpt lat="46.10688" lon="5.71581">
        <ele>1174.2</ele>
        <time>2021-08-20T09:57:47Z</time>
      </trkpt>
      <trkpt lat="46.10693" lon="5.71592">
        <ele>1174</ele>
        <time>2021-08-20T09:57:49Z</time>
      </trkpt>
      <trkpt lat="46.10698" lon="5.71604">
        <ele>1173.9</ele>
        <time>2021-08-20T09:57:51Z</time>
      </trkpt>
      <trkpt lat="46.10703" lon="5.71615">
        <ele>1173.8</ele>
        <time>2021-08-20T09:57:53Z</time>
      </trkpt>
      <trkpt lat="46.10706" lon="5.7162">
        <ele>1173.8</ele>
        <time>2021-08-20T09:57:54Z</time>
      </trkpt>
      <trkpt lat="46.10713" lon="5.71629">
        <ele>1173.7</ele>
        <time>2021-08-20T09:57:56Z</time>
      </trkpt>
      <trkpt lat="46.10715" lon="5.71633">
        <ele>1173.7</ele>
        <time>2021-08-20T09:57:58Z</time>
      </trkpt>
      <trkpt lat="46.10716" lon="5.71634">
        <ele>1173.7</ele>
        <time>2021-08-20T09:57:59Z</time>
      </trkpt>
      <trkpt lat="46.10722" lon="5.7164">
        <ele>1173.6</ele>
        <time>2021-08-20T09:58:00Z</time>
      </trkpt>
      <trkpt lat="46.10725" lon="5.71644">
        <ele>1173.6</ele>
        <time>2021-08-20T09:58:01Z</time>
      </trkpt>
      <trkpt lat="46.10728" lon="5.71648">
        <ele>1173.5</ele>
        <time>2021-08-20T09:58:02Z</time>
      </trkpt>
      <trkpt lat="46.10731" lon="5.71652">
        <ele>1173.5</ele>
        <time>2021-08-20T09:58:04Z</time>
      </trkpt>
      <trkpt lat="46.10735" lon="5.71654">
        <ele>1173.5</ele>
        <time>2021-08-20T09:58:05Z</time>
      </trkpt>
      <trkpt lat="46.10741" lon="5.71656">
        <ele>1173.5</ele>
        <time>2021-08-20T09:58:06Z</time>
      </trkpt>
      <trkpt lat="46.10746" lon="5.71657">
        <ele>1173.4</ele>
        <time>2021-08-20T09:58:07Z</time>
      </trkpt>
      <trkpt lat="46.10751" lon="5.7166">
        <ele>1173.4</ele>
        <time>2021-08-20T09:58:09Z</time>
      </trkpt>
      <trkpt lat="46.10754" lon="5.71662">
        <ele>1173.4</ele>
        <time>2021-08-20T09:58:10Z</time>
      </trkpt>
      <trkpt lat="46.10758" lon="5.71664">
        <ele>1173.3</ele>
        <time>2021-08-20T09:58:11Z</time>
      </trkpt>
      <trkpt lat="46.10759" lon="5.71665">
        <ele>1173.3</ele>
        <time>2021-08-20T09:58:12Z</time>
      </trkpt>
      <trkpt lat="46.10761" lon="5.71668">
        <ele>1173.3</ele>
        <time>2021-08-20T09:58:14Z</time>
      </trkpt>
      <trkpt lat="46.10761" lon="5.71669">
        <ele>1173.3</ele>
        <time>2021-08-20T09:58:15Z</time>
      </trkpt>
      <trkpt lat="46.1076" lon="5.71676">
        <ele>1173.2</ele>
        <time>2021-08-20T09:58:16Z</time>
      </trkpt>
      <trkpt lat="46.1076" lon="5.71678">
        <ele>1173.2</ele>
        <time>2021-08-20T09:58:17Z</time>
      </trkpt>
      <trkpt lat="46.10762" lon="5.71679">
        <ele>1173.1</ele>
        <time>2021-08-20T09:58:18Z</time>
      </trkpt>
      <trkpt lat="46.10766" lon="5.71681">
        <ele>1173.1</ele>
        <time>2021-08-20T09:58:20Z</time>
      </trkpt>
      <trkpt lat="46.10768" lon="5.71684">
        <ele>1173</ele>
        <time>2021-08-20T09:58:21Z</time>
      </trkpt>
      <trkpt lat="46.1077" lon="5.71686">
        <ele>1173</ele>
        <time>2021-08-20T09:58:22Z</time>
      </trkpt>
      <trkpt lat="46.10772" lon="5.71689">
        <ele>1172.9</ele>
        <time>2021-08-20T09:58:24Z</time>
      </trkpt>
      <trkpt lat="46.10785" lon="5.71706">
        <ele>1172.5</ele>
        <time>2021-08-20T09:58:29Z</time>
      </trkpt>
      <trkpt lat="46.10825" lon="5.71731">
        <ele>1171.4</ele>
        <time>2021-08-20T09:58:31Z</time>
      </trkpt>
      <trkpt lat="46.10849" lon="5.71738">
        <ele>1170.9</ele>
        <time>2021-08-20T09:58:33Z</time>
      </trkpt>
      <trkpt lat="46.1086" lon="5.7174">
        <ele>1170.7</ele>
        <time>2021-08-20T09:58:34Z</time>
      </trkpt>
      <trkpt lat="46.10869" lon="5.71739">
        <ele>1170.6</ele>
        <time>2021-08-20T09:58:35Z</time>
      </trkpt>
      <trkpt lat="46.10886" lon="5.71736">
        <ele>1170.4</ele>
        <time>2021-08-20T09:58:37Z</time>
      </trkpt>
      <trkpt lat="46.10904" lon="5.71729">
        <ele>1170.2</ele>
        <time>2021-08-20T09:58:39Z</time>
      </trkpt>
      <trkpt lat="46.10913" lon="5.71726">
        <ele>1170.2</ele>
        <time>2021-08-20T09:58:40Z</time>
      </trkpt>
      <trkpt lat="46.10921" lon="5.71726">
        <ele>1170.2</ele>
        <time>2021-08-20T09:58:41Z</time>
      </trkpt>
      <trkpt lat="46.10934" lon="5.71727">
        <ele>1170.3</ele>
        <time>2021-08-20T09:58:43Z</time>
      </trkpt>
      <trkpt lat="46.10945" lon="5.71732">
        <ele>1170.3</ele>
        <time>2021-08-20T09:58:45Z</time>
      </trkpt>
      <trkpt lat="46.10949" lon="5.71735">
        <ele>1170.3</ele>
        <time>2021-08-20T09:58:46Z</time>
      </trkpt>
      <trkpt lat="46.10953" lon="5.71738">
        <ele>1170.3</ele>
        <time>2021-08-20T09:58:47Z</time>
      </trkpt>
      <trkpt lat="46.10957" lon="5.71741">
        <ele>1170.3</ele>
        <time>2021-08-20T09:58:48Z</time>
      </trkpt>
      <trkpt lat="46.10959" lon="5.71743">
        <ele>1170.3</ele>
        <time>2021-08-20T09:58:49Z</time>
      </trkpt>
      <trkpt lat="46.10965" lon="5.71749">
        <ele>1170.3</ele>
        <time>2021-08-20T09:58:51Z</time>
      </trkpt>
      <trkpt lat="46.10971" lon="5.71754">
        <ele>1170.3</ele>
        <time>2021-08-20T09:58:53Z</time>
      </trkpt>
      <trkpt lat="46.10977" lon="5.71757">
        <ele>1170.3</ele>
        <time>2021-08-20T09:58:55Z</time>
      </trkpt>
      <trkpt lat="46.10982" lon="5.7176">
        <ele>1170.3</ele>
        <time>2021-08-20T09:58:56Z</time>
      </trkpt>
      <trkpt lat="46.10987" lon="5.71765">
        <ele>1170.3</ele>
        <time>2021-08-20T09:58:58Z</time>
      </trkpt>
      <trkpt lat="46.10992" lon="5.71771">
        <ele>1170.3</ele>
        <time>2021-08-20T09:59:00Z</time>
      </trkpt>
      <trkpt lat="46.11004" lon="5.71777">
        <ele>1170.2</ele>
        <time>2021-08-20T09:59:01Z</time>
      </trkpt>
      <trkpt lat="46.1101" lon="5.71782">
        <ele>1170.2</ele>
        <time>2021-08-20T09:59:02Z</time>
      </trkpt>
      <trkpt lat="46.11021" lon="5.71789">
        <ele>1170.1</ele>
        <time>2021-08-20T09:59:04Z</time>
      </trkpt>
      <trkpt lat="46.11029" lon="5.71798">
        <ele>1170.1</ele>
        <time>2021-08-20T09:59:06Z</time>
      </trkpt>
      <trkpt lat="46.11033" lon="5.71799">
        <ele>1170.1</ele>
        <time>2021-08-20T09:59:07Z</time>
      </trkpt>
      <trkpt lat="46.11043" lon="5.71801">
        <ele>1170.1</ele>
        <time>2021-08-20T09:59:09Z</time>
      </trkpt>
      <trkpt lat="46.11048" lon="5.71802">
        <ele>1170.1</ele>
        <time>2021-08-20T09:59:10Z</time>
      </trkpt>
      <trkpt lat="46.11059" lon="5.71802">
        <ele>1170</ele>
        <time>2021-08-20T09:59:12Z</time>
      </trkpt>
      <trkpt lat="46.11066" lon="5.71799">
        <ele>1170</ele>
        <time>2021-08-20T09:59:13Z</time>
      </trkpt>
      <trkpt lat="46.11082" lon="5.71796">
        <ele>1169.9</ele>
        <time>2021-08-20T09:59:15Z</time>
      </trkpt>
      <trkpt lat="46.11096" lon="5.71803">
        <ele>1169.8</ele>
        <time>2021-08-20T09:59:17Z</time>
      </trkpt>
      <trkpt lat="46.11099" lon="5.71807">
        <ele>1169.8</ele>
        <time>2021-08-20T09:59:18Z</time>
      </trkpt>
      <trkpt lat="46.111" lon="5.71807">
        <ele>1169.8</ele>
        <time>2021-08-20T09:59:19Z</time>
      </trkpt>
      <trkpt lat="46.11108" lon="5.71815">
        <ele>1169.7</ele>
        <time>2021-08-20T09:59:21Z</time>
      </trkpt>
      <trkpt lat="46.1111" lon="5.71825">
        <ele>1169.7</ele>
        <time>2021-08-20T09:59:22Z</time>
      </trkpt>
      <trkpt lat="46.11113" lon="5.71836">
        <ele>1169.8</ele>
        <time>2021-08-20T09:59:24Z</time>
      </trkpt>
      <trkpt lat="46.11117" lon="5.71846">
        <ele>1169.8</ele>
        <time>2021-08-20T09:59:26Z</time>
      </trkpt>
      <trkpt lat="46.11118" lon="5.71852">
        <ele>1169.9</ele>
        <time>2021-08-20T09:59:27Z</time>
      </trkpt>
      <trkpt lat="46.11123" lon="5.71861">
        <ele>1169.9</ele>
        <time>2021-08-20T09:59:30Z</time>
      </trkpt>
      <trkpt lat="46.11125" lon="5.71865">
        <ele>1170</ele>
        <time>2021-08-20T09:59:31Z</time>
      </trkpt>
      <trkpt lat="46.11127" lon="5.71873">
        <ele>1170</ele>
        <time>2021-08-20T09:59:32Z</time>
      </trkpt>
      <trkpt lat="46.11129" lon="5.71883">
        <ele>1170.1</ele>
        <time>2021-08-20T09:59:33Z</time>
      </trkpt>
      <trkpt lat="46.1113" lon="5.71897">
        <ele>1170.1</ele>
        <time>2021-08-20T09:59:35Z</time>
      </trkpt>
      <trkpt lat="46.1113" lon="5.71904">
        <ele>1170.2</ele>
        <time>2021-08-20T09:59:36Z</time>
      </trkpt>
      <trkpt lat="46.11128" lon="5.71911">
        <ele>1170.2</ele>
        <time>2021-08-20T09:59:37Z</time>
      </trkpt>
      <trkpt lat="46.11127" lon="5.71917">
        <ele>1170.2</ele>
        <time>2021-08-20T09:59:38Z</time>
      </trkpt>
      <trkpt lat="46.11126" lon="5.71924">
        <ele>1170.3</ele>
        <time>2021-08-20T09:59:40Z</time>
      </trkpt>
      <trkpt lat="46.11125" lon="5.71928">
        <ele>1170.3</ele>
        <time>2021-08-20T09:59:41Z</time>
      </trkpt>
      <trkpt lat="46.11124" lon="5.7193">
        <ele>1170.3</ele>
        <time>2021-08-20T09:59:42Z</time>
      </trkpt>
      <trkpt lat="46.11124" lon="5.71934">
        <ele>1170.3</ele>
        <time>2021-08-20T09:59:43Z</time>
      </trkpt>
      <trkpt lat="46.11125" lon="5.71935">
        <ele>1170.3</ele>
        <time>2021-08-20T09:59:44Z</time>
      </trkpt>
      <trkpt lat="46.11128" lon="5.71939">
        <ele>1170.4</ele>
        <time>2021-08-20T09:59:46Z</time>
      </trkpt>
      <trkpt lat="46.1113" lon="5.7194">
        <ele>1170.4</ele>
        <time>2021-08-20T09:59:47Z</time>
      </trkpt>
      <trkpt lat="46.11131" lon="5.71941">
        <ele>1170.4</ele>
        <time>2021-08-20T09:59:48Z</time>
      </trkpt>
      <trkpt lat="46.11133" lon="5.71942">
        <ele>1170.4</ele>
        <time>2021-08-20T09:59:49Z</time>
      </trkpt>
      <trkpt lat="46.11133" lon="5.71942">
        <ele>1170.4</ele>
        <time>2021-08-20T09:59:50Z</time>
      </trkpt>
      <trkpt lat="46.11283" lon="5.72041">
        <ele>1170.6</ele>
        <time>2021-08-20T10:00:28Z</time>
      </trkpt>
      <trkpt lat="46.11285" lon="5.72048">
        <ele>1170.6</ele>
        <time>2021-08-20T10:00:29Z</time>
      </trkpt>
      <trkpt lat="46.11286" lon="5.72056">
        <ele>1170.7</ele>
        <time>2021-08-20T10:00:30Z</time>
      </trkpt>
      <trkpt lat="46.11288" lon="5.72064">
        <ele>1170.7</ele>
        <time>2021-08-20T10:00:31Z</time>
      </trkpt>
      <trkpt lat="46.1129" lon="5.72073">
        <ele>1170.8</ele>
        <time>2021-08-20T10:00:32Z</time>
      </trkpt>
      <trkpt lat="46.11292" lon="5.72081">
        <ele>1170.8</ele>
        <time>2021-08-20T10:00:33Z</time>
      </trkpt>
      <trkpt lat="46.11295" lon="5.72089">
        <ele>1170.8</ele>
        <time>2021-08-20T10:00:34Z</time>
      </trkpt>
      <trkpt lat="46.11297" lon="5.72095">
        <ele>1170.9</ele>
        <time>2021-08-20T10:00:35Z</time>
      </trkpt>
      <trkpt lat="46.11303" lon="5.72106">
        <ele>1170.9</ele>
        <time>2021-08-20T10:00:37Z</time>
      </trkpt>
      <trkpt lat="46.11306" lon="5.72109">
        <ele>1170.9</ele>
        <time>2021-08-20T10:00:38Z</time>
      </trkpt>
      <trkpt lat="46.11309" lon="5.72117">
        <ele>1170.9</ele>
        <time>2021-08-20T10:00:40Z</time>
      </trkpt>
      <trkpt lat="46.1131" lon="5.72122">
        <ele>1170.9</ele>
        <time>2021-08-20T10:00:41Z</time>
      </trkpt>
      <trkpt lat="46.11312" lon="5.72128">
        <ele>1170.9</ele>
        <time>2021-08-20T10:00:42Z</time>
      </trkpt>
      <trkpt lat="46.11314" lon="5.72132">
        <ele>1170.9</ele>
        <time>2021-08-20T10:00:43Z</time>
      </trkpt>
      <trkpt lat="46.11316" lon="5.7214">
        <ele>1170.8</ele>
        <time>2021-08-20T10:00:44Z</time>
      </trkpt>
      <trkpt lat="46.11317" lon="5.72145">
        <ele>1170.7</ele>
        <time>2021-08-20T10:00:45Z</time>
      </trkpt>
      <trkpt lat="46.11318" lon="5.72151">
        <ele>1170.6</ele>
        <time>2021-08-20T10:00:46Z</time>
      </trkpt>
      <trkpt lat="46.11318" lon="5.72157">
        <ele>1170.6</ele>
        <time>2021-08-20T10:00:47Z</time>
      </trkpt>
      <trkpt lat="46.1132" lon="5.72167">
        <ele>1170.6</ele>
        <time>2021-08-20T10:00:49Z</time>
      </trkpt>
      <trkpt lat="46.11321" lon="5.72173">
        <ele>1170.6</ele>
        <time>2021-08-20T10:00:50Z</time>
      </trkpt>
      <trkpt lat="46.11324" lon="5.72177">
        <ele>1170.6</ele>
        <time>2021-08-20T10:00:51Z</time>
      </trkpt>
      <trkpt lat="46.11328" lon="5.7218">
        <ele>1170.6</ele>
        <time>2021-08-20T10:00:52Z</time>
      </trkpt>
      <trkpt lat="46.11333" lon="5.72181">
        <ele>1170.6</ele>
        <time>2021-08-20T10:00:53Z</time>
      </trkpt>
      <trkpt lat="46.1134" lon="5.72183">
        <ele>1170.6</ele>
        <time>2021-08-20T10:00:55Z</time>
      </trkpt>
      <trkpt lat="46.11346" lon="5.72186">
        <ele>1170.7</ele>
        <time>2021-08-20T10:00:56Z</time>
      </trkpt>
      <trkpt lat="46.11351" lon="5.72188">
        <ele>1170.7</ele>
        <time>2021-08-20T10:00:57Z</time>
      </trkpt>
      <trkpt lat="46.11356" lon="5.72191">
        <ele>1170.7</ele>
        <time>2021-08-20T10:00:58Z</time>
      </trkpt>
      <trkpt lat="46.11359" lon="5.72195">
        <ele>1170.7</ele>
        <time>2021-08-20T10:00:59Z</time>
      </trkpt>
      <trkpt lat="46.11361" lon="5.72198">
        <ele>1170.7</ele>
        <time>2021-08-20T10:01:00Z</time>
      </trkpt>
      <trkpt lat="46.11364" lon="5.72202">
        <ele>1170.8</ele>
        <time>2021-08-20T10:01:02Z</time>
      </trkpt>
      <trkpt lat="46.11366" lon="5.72207">
        <ele>1170.8</ele>
        <time>2021-08-20T10:01:03Z</time>
      </trkpt>
      <trkpt lat="46.1137" lon="5.72213">
        <ele>1170.8</ele>
        <time>2021-08-20T10:01:05Z</time>
      </trkpt>
      <trkpt lat="46.11377" lon="5.72221">
        <ele>1170.8</ele>
        <time>2021-08-20T10:01:07Z</time>
      </trkpt>
      <trkpt lat="46.11383" lon="5.72222">
        <ele>1170.9</ele>
        <time>2021-08-20T10:01:08Z</time>
      </trkpt>
      <trkpt lat="46.11402" lon="5.72222">
        <ele>1170.9</ele>
        <time>2021-08-20T10:01:09Z</time>
      </trkpt>
      <trkpt lat="46.11413" lon="5.72223">
        <ele>1170.9</ele>
        <time>2021-08-20T10:01:10Z</time>
      </trkpt>
      <trkpt lat="46.11419" lon="5.72225">
        <ele>1170.9</ele>
        <time>2021-08-20T10:01:11Z</time>
      </trkpt>
      <trkpt lat="46.11422" lon="5.72227">
        <ele>1170.9</ele>
        <time>2021-08-20T10:01:12Z</time>
      </trkpt>
      <trkpt lat="46.11424" lon="5.7223">
        <ele>1170.9</ele>
        <time>2021-08-20T10:01:14Z</time>
      </trkpt>
      <trkpt lat="46.11426" lon="5.72234">
        <ele>1170.9</ele>
        <time>2021-08-20T10:01:15Z</time>
      </trkpt>
      <trkpt lat="46.11427" lon="5.72239">
        <ele>1170.9</ele>
        <time>2021-08-20T10:01:17Z</time>
      </trkpt>
      <trkpt lat="46.11413" lon="5.7229">
        <ele>1171</ele>
        <time>2021-08-20T10:01:31Z</time>
      </trkpt>
      <trkpt lat="46.11414" lon="5.72297">
        <ele>1171</ele>
        <time>2021-08-20T10:01:32Z</time>
      </trkpt>
      <trkpt lat="46.11419" lon="5.72309">
        <ele>1171.1</ele>
        <time>2021-08-20T10:01:34Z</time>
      </trkpt>
      <trkpt lat="46.11422" lon="5.72322">
        <ele>1171.1</ele>
        <time>2021-08-20T10:01:36Z</time>
      </trkpt>
      <trkpt lat="46.11424" lon="5.72331">
        <ele>1171.1</ele>
        <time>2021-08-20T10:01:37Z</time>
      </trkpt>
      <trkpt lat="46.11425" lon="5.72338">
        <ele>1171.1</ele>
        <time>2021-08-20T10:01:38Z</time>
      </trkpt>
      <trkpt lat="46.11427" lon="5.72349">
        <ele>1171.1</ele>
        <time>2021-08-20T10:01:40Z</time>
      </trkpt>
      <trkpt lat="46.1143" lon="5.72361">
        <ele>1171.1</ele>
        <time>2021-08-20T10:01:41Z</time>
      </trkpt>
      <trkpt lat="46.11435" lon="5.72369">
        <ele>1171.1</ele>
        <time>2021-08-20T10:01:42Z</time>
      </trkpt>
      <trkpt lat="46.1144" lon="5.72376">
        <ele>1171.1</ele>
        <time>2021-08-20T10:01:44Z</time>
      </trkpt>
      <trkpt lat="46.11444" lon="5.72381">
        <ele>1171.1</ele>
        <time>2021-08-20T10:01:45Z</time>
      </trkpt>
      <trkpt lat="46.11449" lon="5.72387">
        <ele>1171.1</ele>
        <time>2021-08-20T10:01:46Z</time>
      </trkpt>
      <trkpt lat="46.11455" lon="5.72392">
        <ele>1171.1</ele>
        <time>2021-08-20T10:01:48Z</time>
      </trkpt>
      <trkpt lat="46.11459" lon="5.72396">
        <ele>1171.2</ele>
        <time>2021-08-20T10:01:49Z</time>
      </trkpt>
      <trkpt lat="46.11463" lon="5.72399">
        <ele>1171.2</ele>
        <time>2021-08-20T10:01:50Z</time>
      </trkpt>
      <trkpt lat="46.11465" lon="5.72401">
        <ele>1171.2</ele>
        <time>2021-08-20T10:01:51Z</time>
      </trkpt>
      <trkpt lat="46.11467" lon="5.72403">
        <ele>1171.2</ele>
        <time>2021-08-20T10:01:52Z</time>
      </trkpt>
      <trkpt lat="46.11469" lon="5.72404">
        <ele>1171.2</ele>
        <time>2021-08-20T10:01:53Z</time>
      </trkpt>
      <trkpt lat="46.11473" lon="5.72408">
        <ele>1171.2</ele>
        <time>2021-08-20T10:01:55Z</time>
      </trkpt>
      <trkpt lat="46.11476" lon="5.72412">
        <ele>1171.2</ele>
        <time>2021-08-20T10:01:56Z</time>
      </trkpt>
      <trkpt lat="46.11478" lon="5.72417">
        <ele>1171.3</ele>
        <time>2021-08-20T10:01:57Z</time>
      </trkpt>
      <trkpt lat="46.1148" lon="5.72421">
        <ele>1171.3</ele>
        <time>2021-08-20T10:01:58Z</time>
      </trkpt>
      <trkpt lat="46.11484" lon="5.72432">
        <ele>1171.3</ele>
        <time>2021-08-20T10:02:00Z</time>
      </trkpt>
      <trkpt lat="46.11483" lon="5.72442">
        <ele>1171.4</ele>
        <time>2021-08-20T10:02:02Z</time>
      </trkpt>
      <trkpt lat="46.11482" lon="5.72447">
        <ele>1171.4</ele>
        <time>2021-08-20T10:02:03Z</time>
      </trkpt>
      <trkpt lat="46.1148" lon="5.72455">
        <ele>1171.4</ele>
        <time>2021-08-20T10:02:04Z</time>
      </trkpt>
      <trkpt lat="46.11479" lon="5.72464">
        <ele>1171.4</ele>
        <time>2021-08-20T10:02:06Z</time>
      </trkpt>
      <trkpt lat="46.11478" lon="5.72471">
        <ele>1171.4</ele>
        <time>2021-08-20T10:02:07Z</time>
      </trkpt>
      <trkpt lat="46.1148" lon="5.7248">
        <ele>1171.4</ele>
        <time>2021-08-20T10:02:09Z</time>
      </trkpt>
      <trkpt lat="46.11485" lon="5.72486">
        <ele>1171.4</ele>
        <time>2021-08-20T10:02:11Z</time>
      </trkpt>
      <trkpt lat="46.11489" lon="5.72493">
        <ele>1171.4</ele>
        <time>2021-08-20T10:02:12Z</time>
      </trkpt>
      <trkpt lat="46.1149" lon="5.72497">
        <ele>1171.5</ele>
        <time>2021-08-20T10:02:13Z</time>
      </trkpt>
      <trkpt lat="46.11491" lon="5.72502">
        <ele>1171.5</ele>
        <time>2021-08-20T10:02:14Z</time>
      </trkpt>
      <trkpt lat="46.11491" lon="5.72504">
        <ele>1171.5</ele>
        <time>2021-08-20T10:02:15Z</time>
      </trkpt>
      <trkpt lat="46.11493" lon="5.72511">
        <ele>1171.5</ele>
        <time>2021-08-20T10:02:16Z</time>
      </trkpt>
      <trkpt lat="46.11493" lon="5.72514">
        <ele>1171.5</ele>
        <time>2021-08-20T10:02:17Z</time>
      </trkpt>
      <trkpt lat="46.11496" lon="5.7252">
        <ele>1171.5</ele>
        <time>2021-08-20T10:02:18Z</time>
      </trkpt>
      <trkpt lat="46.11499" lon="5.72528">
        <ele>1171.5</ele>
        <time>2021-08-20T10:02:19Z</time>
      </trkpt>
      <trkpt lat="46.11501" lon="5.72535">
        <ele>1171.5</ele>
        <time>2021-08-20T10:02:20Z</time>
      </trkpt>
      <trkpt lat="46.11503" lon="5.72542">
        <ele>1171.6</ele>
        <time>2021-08-20T10:02:21Z</time>
      </trkpt>
      <trkpt lat="46.11503" lon="5.72548">
        <ele>1171.6</ele>
        <time>2021-08-20T10:02:22Z</time>
      </trkpt>
      <trkpt lat="46.11502" lon="5.72557">
        <ele>1171.6</ele>
        <time>2021-08-20T10:02:24Z</time>
      </trkpt>
      <trkpt lat="46.11502" lon="5.72563">
        <ele>1171.6</ele>
        <time>2021-08-20T10:02:25Z</time>
      </trkpt>
      <trkpt lat="46.11501" lon="5.72571">
        <ele>1171.6</ele>
        <time>2021-08-20T10:02:27Z</time>
      </trkpt>
      <trkpt lat="46.115" lon="5.72575">
        <ele>1171.6</ele>
        <time>2021-08-20T10:02:28Z</time>
      </trkpt>
      <trkpt lat="46.11501" lon="5.7258">
        <ele>1171.6</ele>
        <time>2021-08-20T10:02:29Z</time>
      </trkpt>
      <trkpt lat="46.115" lon="5.72588">
        <ele>1171.6</ele>
        <time>2021-08-20T10:02:31Z</time>
      </trkpt>
      <trkpt lat="46.11498" lon="5.72594">
        <ele>1171.7</ele>
        <time>2021-08-20T10:02:32Z</time>
      </trkpt>
      <trkpt lat="46.11496" lon="5.726">
        <ele>1171.7</ele>
        <time>2021-08-20T10:02:34Z</time>
      </trkpt>
      <trkpt lat="46.11494" lon="5.72608">
        <ele>1171.7</ele>
        <time>2021-08-20T10:02:35Z</time>
      </trkpt>
      <trkpt lat="46.11492" lon="5.72617">
        <ele>1171.8</ele>
        <time>2021-08-20T10:02:37Z</time>
      </trkpt>
      <trkpt lat="46.11489" lon="5.72627">
        <ele>1171.8</ele>
        <time>2021-08-20T10:02:39Z</time>
      </trkpt>
      <trkpt lat="46.11488" lon="5.72632">
        <ele>1171.8</ele>
        <time>2021-08-20T10:02:40Z</time>
      </trkpt>
      <trkpt lat="46.11486" lon="5.72637">
        <ele>1171.8</ele>
        <time>2021-08-20T10:02:41Z</time>
      </trkpt>
      <trkpt lat="46.11483" lon="5.72644">
        <ele>1171.8</ele>
        <time>2021-08-20T10:02:43Z</time>
      </trkpt>
      <trkpt lat="46.11482" lon="5.72649">
        <ele>1171.8</ele>
        <time>2021-08-20T10:02:44Z</time>
      </trkpt>
      <trkpt lat="46.1148" lon="5.72654">
        <ele>1171.8</ele>
        <time>2021-08-20T10:02:45Z</time>
      </trkpt>
      <trkpt lat="46.11478" lon="5.72661">
        <ele>1171.7</ele>
        <time>2021-08-20T10:02:46Z</time>
      </trkpt>
      <trkpt lat="46.11477" lon="5.72667">
        <ele>1171.8</ele>
        <time>2021-08-20T10:02:47Z</time>
      </trkpt>
      <trkpt lat="46.11475" lon="5.72673">
        <ele>1171.8</ele>
        <time>2021-08-20T10:02:48Z</time>
      </trkpt>
      <trkpt lat="46.11471" lon="5.72681">
        <ele>1171.8</ele>
        <time>2021-08-20T10:02:50Z</time>
      </trkpt>
      <trkpt lat="46.11469" lon="5.72685">
        <ele>1171.8</ele>
        <time>2021-08-20T10:02:51Z</time>
      </trkpt>
      <trkpt lat="46.11465" lon="5.72691">
        <ele>1171.8</ele>
        <time>2021-08-20T10:02:52Z</time>
      </trkpt>
      <trkpt lat="46.11463" lon="5.72695">
        <ele>1171.8</ele>
        <time>2021-08-20T10:02:53Z</time>
      </trkpt>
      <trkpt lat="46.1146" lon="5.72699">
        <ele>1171.8</ele>
        <time>2021-08-20T10:02:54Z</time>
      </trkpt>
      <trkpt lat="46.11456" lon="5.72707">
        <ele>1171.9</ele>
        <time>2021-08-20T10:02:56Z</time>
      </trkpt>
      <trkpt lat="46.11453" lon="5.7271">
        <ele>1171.9</ele>
        <time>2021-08-20T10:02:57Z</time>
      </trkpt>
      <trkpt lat="46.11448" lon="5.72717">
        <ele>1171.9</ele>
        <time>2021-08-20T10:02:59Z</time>
      </trkpt>
      <trkpt lat="46.11445" lon="5.72719">
        <ele>1171.9</ele>
        <time>2021-08-20T10:03:00Z</time>
      </trkpt>
      <trkpt lat="46.11441" lon="5.72721">
        <ele>1172</ele>
        <time>2021-08-20T10:03:02Z</time>
      </trkpt>
      <trkpt lat="46.11438" lon="5.72724">
        <ele>1172</ele>
        <time>2021-08-20T10:03:03Z</time>
      </trkpt>
      <trkpt lat="46.11435" lon="5.72728">
        <ele>1172</ele>
        <time>2021-08-20T10:03:04Z</time>
      </trkpt>
      <trkpt lat="46.11433" lon="5.72731">
        <ele>1172</ele>
        <time>2021-08-20T10:03:05Z</time>
      </trkpt>
      <trkpt lat="46.1143" lon="5.72734">
        <ele>1172.1</ele>
        <time>2021-08-20T10:03:07Z</time>
      </trkpt>
      <trkpt lat="46.11428" lon="5.72739">
        <ele>1172.1</ele>
        <time>2021-08-20T10:03:08Z</time>
      </trkpt>
      <trkpt lat="46.11428" lon="5.72741">
        <ele>1172.1</ele>
        <time>2021-08-20T10:03:09Z</time>
      </trkpt>
      <trkpt lat="46.11426" lon="5.72744">
        <ele>1172.1</ele>
        <time>2021-08-20T10:03:10Z</time>
      </trkpt>
      <trkpt lat="46.11424" lon="5.7275">
        <ele>1172.2</ele>
        <time>2021-08-20T10:03:12Z</time>
      </trkpt>
      <trkpt lat="46.1142" lon="5.72754">
        <ele>1172.2</ele>
        <time>2021-08-20T10:03:14Z</time>
      </trkpt>
      <trkpt lat="46.11416" lon="5.72757">
        <ele>1172.3</ele>
        <time>2021-08-20T10:03:16Z</time>
      </trkpt>
      <trkpt lat="46.11413" lon="5.72759">
        <ele>1172.3</ele>
        <time>2021-08-20T10:03:17Z</time>
      </trkpt>
      <trkpt lat="46.11406" lon="5.72764">
        <ele>1172.4</ele>
        <time>2021-08-20T10:03:19Z</time>
      </trkpt>
      <trkpt lat="46.11403" lon="5.72767">
        <ele>1172.5</ele>
        <time>2021-08-20T10:03:20Z</time>
      </trkpt>
      <trkpt lat="46.114" lon="5.72769">
        <ele>1172.6</ele>
        <time>2021-08-20T10:03:21Z</time>
      </trkpt>
      <trkpt lat="46.11395" lon="5.72775">
        <ele>1172.7</ele>
        <time>2021-08-20T10:03:23Z</time>
      </trkpt>
      <trkpt lat="46.11389" lon="5.7278">
        <ele>1172.8</ele>
        <time>2021-08-20T10:03:25Z</time>
      </trkpt>
      <trkpt lat="46.11387" lon="5.72785">
        <ele>1172.9</ele>
        <time>2021-08-20T10:03:26Z</time>
      </trkpt>
      <trkpt lat="46.11385" lon="5.72787">
        <ele>1173</ele>
        <time>2021-08-20T10:03:27Z</time>
      </trkpt>
      <trkpt lat="46.11382" lon="5.72791">
        <ele>1173.1</ele>
        <time>2021-08-20T10:03:29Z</time>
      </trkpt>
      <trkpt lat="46.1138" lon="5.72794">
        <ele>1173.1</ele>
        <time>2021-08-20T10:03:30Z</time>
      </trkpt>
      <trkpt lat="46.11376" lon="5.72797">
        <ele>1173.2</ele>
        <time>2021-08-20T10:03:32Z</time>
      </trkpt>
      <trkpt lat="46.11375" lon="5.72798">
        <ele>1173.3</ele>
        <time>2021-08-20T10:03:33Z</time>
      </trkpt>
      <trkpt lat="46.11374" lon="5.72799">
        <ele>1173.3</ele>
        <time>2021-08-20T10:03:34Z</time>
      </trkpt>
      <trkpt lat="46.11372" lon="5.72801">
        <ele>1173.3</ele>
        <time>2021-08-20T10:03:35Z</time>
      </trkpt>
      <trkpt lat="46.1137" lon="5.72805">
        <ele>1173.4</ele>
        <time>2021-08-20T10:03:37Z</time>
      </trkpt>
      <trkpt lat="46.11368" lon="5.72809">
        <ele>1173.5</ele>
        <time>2021-08-20T10:03:38Z</time>
      </trkpt>
      <trkpt lat="46.11368" lon="5.72811">
        <ele>1173.5</ele>
        <time>2021-08-20T10:03:39Z</time>
      </trkpt>
      <trkpt lat="46.11367" lon="5.72815">
        <ele>1173.6</ele>
        <time>2021-08-20T10:03:41Z</time>
      </trkpt>
      <trkpt lat="46.11367" lon="5.72817">
        <ele>1173.6</ele>
        <time>2021-08-20T10:03:42Z</time>
      </trkpt>
      <trkpt lat="46.11367" lon="5.72819">
        <ele>1173.6</ele>
        <time>2021-08-20T10:03:43Z</time>
      </trkpt>
      <trkpt lat="46.11368" lon="5.72823">
        <ele>1173.7</ele>
        <time>2021-08-20T10:03:45Z</time>
      </trkpt>
      <trkpt lat="46.11369" lon="5.72827">
        <ele>1173.7</ele>
        <time>2021-08-20T10:03:46Z</time>
      </trkpt>
      <trkpt lat="46.11369" lon="5.72828">
        <ele>1173.7</ele>
        <time>2021-08-20T10:03:47Z</time>
      </trkpt>
      <trkpt lat="46.11369" lon="5.72829">
        <ele>1173.8</ele>
        <time>2021-08-20T10:03:48Z</time>
      </trkpt>
      <trkpt lat="46.11368" lon="5.72829">
        <ele>1173.8</ele>
        <time>2021-08-20T10:03:49Z</time>
      </trkpt>
      <trkpt lat="46.11368" lon="5.7283">
        <ele>1173.8</ele>
        <time>2021-08-20T10:03:50Z</time>
      </trkpt>
      <trkpt lat="46.11368" lon="5.7283">
        <ele>1173.8</ele>
        <time>2021-08-20T10:03:52Z</time>
      </trkpt>
      <trkpt lat="46.11367" lon="5.7283">
        <ele>1173.8</ele>
        <time>2021-08-20T10:03:53Z</time>
      </trkpt>
      <trkpt lat="46.11367" lon="5.7283">
        <ele>1173.8</ele>
        <time>2021-08-20T10:03:55Z</time>
      </trkpt>
      <trkpt lat="46.11366" lon="5.72831">
        <ele>1173.8</ele>
        <time>2021-08-20T10:03:57Z</time>
      </trkpt>
      <trkpt lat="46.11366" lon="5.72831">
        <ele>1173.8</ele>
        <time>2021-08-20T10:03:58Z</time>
      </trkpt>
      <trkpt lat="46.11365" lon="5.72831">
        <ele>1173.8</ele>
        <time>2021-08-20T10:04:00Z</time>
      </trkpt>
      <trkpt lat="46.11365" lon="5.72831">
        <ele>1173.8</ele>
        <time>2021-08-20T10:05:29Z</time>
      </trkpt>
      <trkpt lat="46.11365" lon="5.72831">
        <ele>1173.8</ele>
        <time>2021-08-20T10:05:36Z</time>
      </trkpt>
      <trkpt lat="46.11364" lon="5.72832">
        <ele>1173.9</ele>
        <time>2021-08-20T10:05:42Z</time>
      </trkpt>
      <trkpt lat="46.11364" lon="5.72832">
        <ele>1173.9</ele>
        <time>2021-08-20T10:05:49Z</time>
      </trkpt>
      <trkpt lat="46.11363" lon="5.72832">
        <ele>1173.9</ele>
        <time>2021-08-20T10:05:55Z</time>
      </trkpt>
      <trkpt lat="46.11363" lon="5.72832">
        <ele>1173.9</ele>
        <time>2021-08-20T10:29:18Z</time>
      </trkpt>
      <trkpt lat="46.11362" lon="5.72832">
        <ele>1173.9</ele>
        <time>2021-08-20T10:29:19Z</time>
      </trkpt>
      <trkpt lat="46.11355" lon="5.72837">
        <ele>1174</ele>
        <time>2021-08-20T10:29:21Z</time>
      </trkpt>
      <trkpt lat="46.11352" lon="5.7284">
        <ele>1174.1</ele>
        <time>2021-08-20T10:29:22Z</time>
      </trkpt>
      <trkpt lat="46.11344" lon="5.72846">
        <ele>1174.2</ele>
        <time>2021-08-20T10:29:24Z</time>
      </trkpt>
      <trkpt lat="46.1134" lon="5.7285">
        <ele>1174.3</ele>
        <time>2021-08-20T10:29:26Z</time>
      </trkpt>
      <trkpt lat="46.11337" lon="5.72855">
        <ele>1174.4</ele>
        <time>2021-08-20T10:29:27Z</time>
      </trkpt>
      <trkpt lat="46.11336" lon="5.72858">
        <ele>1174.4</ele>
        <time>2021-08-20T10:29:28Z</time>
      </trkpt>
      <trkpt lat="46.11333" lon="5.72863">
        <ele>1174.5</ele>
        <time>2021-08-20T10:29:30Z</time>
      </trkpt>
      <trkpt lat="46.1133" lon="5.72868">
        <ele>1174.6</ele>
        <time>2021-08-20T10:29:32Z</time>
      </trkpt>
      <trkpt lat="46.11328" lon="5.72872">
        <ele>1174.6</ele>
        <time>2021-08-20T10:29:33Z</time>
      </trkpt>
      <trkpt lat="46.11326" lon="5.72876">
        <ele>1174.7</ele>
        <time>2021-08-20T10:29:34Z</time>
      </trkpt>
      <trkpt lat="46.11324" lon="5.7288">
        <ele>1174.7</ele>
        <time>2021-08-20T10:29:35Z</time>
      </trkpt>
      <trkpt lat="46.11322" lon="5.72884">
        <ele>1174.8</ele>
        <time>2021-08-20T10:29:36Z</time>
      </trkpt>
      <trkpt lat="46.11317" lon="5.72888">
        <ele>1174.9</ele>
        <time>2021-08-20T10:29:38Z</time>
      </trkpt>
      <trkpt lat="46.11314" lon="5.72892">
        <ele>1175</ele>
        <time>2021-08-20T10:29:39Z</time>
      </trkpt>
      <trkpt lat="46.11309" lon="5.72897">
        <ele>1175.1</ele>
        <time>2021-08-20T10:29:41Z</time>
      </trkpt>
      <trkpt lat="46.11307" lon="5.72901">
        <ele>1175.2</ele>
        <time>2021-08-20T10:29:42Z</time>
      </trkpt>
      <trkpt lat="46.11303" lon="5.72906">
        <ele>1175.3</ele>
        <time>2021-08-20T10:29:44Z</time>
      </trkpt>
      <trkpt lat="46.113" lon="5.72911">
        <ele>1175.4</ele>
        <time>2021-08-20T10:29:45Z</time>
      </trkpt>
      <trkpt lat="46.11298" lon="5.72915">
        <ele>1175.4</ele>
        <time>2021-08-20T10:29:46Z</time>
      </trkpt>
      <trkpt lat="46.11295" lon="5.7292">
        <ele>1175.5</ele>
        <time>2021-08-20T10:29:48Z</time>
      </trkpt>
      <trkpt lat="46.11292" lon="5.72926">
        <ele>1175.6</ele>
        <time>2021-08-20T10:29:49Z</time>
      </trkpt>
      <trkpt lat="46.11291" lon="5.72929">
        <ele>1175.7</ele>
        <time>2021-08-20T10:29:50Z</time>
      </trkpt>
      <trkpt lat="46.11288" lon="5.72937">
        <ele>1175.8</ele>
        <time>2021-08-20T10:29:52Z</time>
      </trkpt>
      <trkpt lat="46.11285" lon="5.72943">
        <ele>1175.9</ele>
        <time>2021-08-20T10:29:53Z</time>
      </trkpt>
      <trkpt lat="46.1128" lon="5.72951">
        <ele>1176</ele>
        <time>2021-08-20T10:29:55Z</time>
      </trkpt>
      <trkpt lat="46.11277" lon="5.72954">
        <ele>1176.1</ele>
        <time>2021-08-20T10:29:56Z</time>
      </trkpt>
      <trkpt lat="46.11272" lon="5.7296">
        <ele>1176.2</ele>
        <time>2021-08-20T10:29:58Z</time>
      </trkpt>
      <trkpt lat="46.1127" lon="5.72965">
        <ele>1176.3</ele>
        <time>2021-08-20T10:29:59Z</time>
      </trkpt>
      <trkpt lat="46.11268" lon="5.72969">
        <ele>1176.3</ele>
        <time>2021-08-20T10:30:00Z</time>
      </trkpt>
      <trkpt lat="46.11265" lon="5.72975">
        <ele>1176.5</ele>
        <time>2021-08-20T10:30:02Z</time>
      </trkpt>
      <trkpt lat="46.11262" lon="5.7298">
        <ele>1176.6</ele>
        <time>2021-08-20T10:30:03Z</time>
      </trkpt>
      <trkpt lat="46.11261" lon="5.72981">
        <ele>1176.6</ele>
        <time>2021-08-20T10:30:04Z</time>
      </trkpt>
      <trkpt lat="46.1126" lon="5.72985">
        <ele>1176.7</ele>
        <time>2021-08-20T10:30:05Z</time>
      </trkpt>
      <trkpt lat="46.11257" lon="5.72988">
        <ele>1176.8</ele>
        <time>2021-08-20T10:30:06Z</time>
      </trkpt>
      <trkpt lat="46.11254" lon="5.72991">
        <ele>1176.9</ele>
        <time>2021-08-20T10:30:07Z</time>
      </trkpt>
      <trkpt lat="46.11253" lon="5.72992">
        <ele>1176.9</ele>
        <time>2021-08-20T10:30:08Z</time>
      </trkpt>
      <trkpt lat="46.1125" lon="5.72995">
        <ele>1177</ele>
        <time>2021-08-20T10:30:10Z</time>
      </trkpt>
      <trkpt lat="46.11245" lon="5.72999">
        <ele>1177.1</ele>
        <time>2021-08-20T10:30:12Z</time>
      </trkpt>
      <trkpt lat="46.11244" lon="5.73">
        <ele>1177.2</ele>
        <time>2021-08-20T10:30:13Z</time>
      </trkpt>
      <trkpt lat="46.11241" lon="5.73004">
        <ele>1177.2</ele>
        <time>2021-08-20T10:30:15Z</time>
      </trkpt>
      <trkpt lat="46.11239" lon="5.73008">
        <ele>1177.3</ele>
        <time>2021-08-20T10:30:16Z</time>
      </trkpt>
      <trkpt lat="46.11238" lon="5.73009">
        <ele>1177.3</ele>
        <time>2021-08-20T10:30:17Z</time>
      </trkpt>
      <trkpt lat="46.11235" lon="5.73012">
        <ele>1177.4</ele>
        <time>2021-08-20T10:30:19Z</time>
      </trkpt>
      <trkpt lat="46.11232" lon="5.73016">
        <ele>1177.4</ele>
        <time>2021-08-20T10:30:20Z</time>
      </trkpt>
      <trkpt lat="46.11229" lon="5.73018">
        <ele>1177.5</ele>
        <time>2021-08-20T10:30:21Z</time>
      </trkpt>
      <trkpt lat="46.11226" lon="5.73023">
        <ele>1177.5</ele>
        <time>2021-08-20T10:30:22Z</time>
      </trkpt>
      <trkpt lat="46.11225" lon="5.73025">
        <ele>1177.5</ele>
        <time>2021-08-20T10:30:23Z</time>
      </trkpt>
      <trkpt lat="46.11224" lon="5.73028">
        <ele>1177.6</ele>
        <time>2021-08-20T10:30:24Z</time>
      </trkpt>
      <trkpt lat="46.11222" lon="5.73033">
        <ele>1177.6</ele>
        <time>2021-08-20T10:30:26Z</time>
      </trkpt>
      <trkpt lat="46.11219" lon="5.73038">
        <ele>1177.7</ele>
        <time>2021-08-20T10:30:27Z</time>
      </trkpt>
      <trkpt lat="46.11218" lon="5.73041">
        <ele>1177.7</ele>
        <time>2021-08-20T10:30:28Z</time>
      </trkpt>
      <trkpt lat="46.11216" lon="5.73044">
        <ele>1177.7</ele>
        <time>2021-08-20T10:30:29Z</time>
      </trkpt>
      <trkpt lat="46.11214" lon="5.73048">
        <ele>1177.7</ele>
        <time>2021-08-20T10:30:30Z</time>
      </trkpt>
      <trkpt lat="46.11212" lon="5.73053">
        <ele>1177.7</ele>
        <time>2021-08-20T10:30:32Z</time>
      </trkpt>
      <trkpt lat="46.11211" lon="5.73057">
        <ele>1177.7</ele>
        <time>2021-08-20T10:30:33Z</time>
      </trkpt>
      <trkpt lat="46.11209" lon="5.73061">
        <ele>1177.7</ele>
        <time>2021-08-20T10:30:34Z</time>
      </trkpt>
      <trkpt lat="46.11207" lon="5.73066">
        <ele>1177.6</ele>
        <time>2021-08-20T10:30:35Z</time>
      </trkpt>
      <trkpt lat="46.11206" lon="5.7307">
        <ele>1177.6</ele>
        <time>2021-08-20T10:30:36Z</time>
      </trkpt>
      <trkpt lat="46.11205" lon="5.73079">
        <ele>1177.4</ele>
        <time>2021-08-20T10:30:38Z</time>
      </trkpt>
      <trkpt lat="46.11204" lon="5.73095">
        <ele>1176.9</ele>
        <time>2021-08-20T10:30:40Z</time>
      </trkpt>
      <trkpt lat="46.11202" lon="5.73111">
        <ele>1176.4</ele>
        <time>2021-08-20T10:30:42Z</time>
      </trkpt>
      <trkpt lat="46.112" lon="5.73127">
        <ele>1175.8</ele>
        <time>2021-08-20T10:30:44Z</time>
      </trkpt>
      <trkpt lat="46.11196" lon="5.73144">
        <ele>1175.1</ele>
        <time>2021-08-20T10:30:46Z</time>
      </trkpt>
      <trkpt lat="46.11191" lon="5.73162">
        <ele>1174.4</ele>
        <time>2021-08-20T10:30:48Z</time>
      </trkpt>
      <trkpt lat="46.11187" lon="5.73179">
        <ele>1173.8</ele>
        <time>2021-08-20T10:30:50Z</time>
      </trkpt>
      <trkpt lat="46.11183" lon="5.73198">
        <ele>1173.1</ele>
        <time>2021-08-20T10:30:52Z</time>
      </trkpt>
      <trkpt lat="46.1118" lon="5.73207">
        <ele>1172.7</ele>
        <time>2021-08-20T10:30:53Z</time>
      </trkpt>
      <trkpt lat="46.11179" lon="5.73217">
        <ele>1172.2</ele>
        <time>2021-08-20T10:30:54Z</time>
      </trkpt>
      <trkpt lat="46.11177" lon="5.73227">
        <ele>1171.8</ele>
        <time>2021-08-20T10:30:55Z</time>
      </trkpt>
      <trkpt lat="46.11176" lon="5.73237">
        <ele>1171.4</ele>
        <time>2021-08-20T10:30:56Z</time>
      </trkpt>
      <trkpt lat="46.11172" lon="5.73257">
        <ele>1170.8</ele>
        <time>2021-08-20T10:30:58Z</time>
      </trkpt>
      <trkpt lat="46.11168" lon="5.73278">
        <ele>1170.1</ele>
        <time>2021-08-20T10:31:00Z</time>
      </trkpt>
      <trkpt lat="46.11165" lon="5.73288">
        <ele>1169.9</ele>
        <time>2021-08-20T10:31:01Z</time>
      </trkpt>
      <trkpt lat="46.11161" lon="5.73309">
        <ele>1169.4</ele>
        <time>2021-08-20T10:31:03Z</time>
      </trkpt>
      <trkpt lat="46.11159" lon="5.73319">
        <ele>1169.1</ele>
        <time>2021-08-20T10:31:04Z</time>
      </trkpt>
      <trkpt lat="46.11155" lon="5.73338">
        <ele>1168.8</ele>
        <time>2021-08-20T10:31:06Z</time>
      </trkpt>
      <trkpt lat="46.11152" lon="5.73356">
        <ele>1168.5</ele>
        <time>2021-08-20T10:31:08Z</time>
      </trkpt>
      <trkpt lat="46.11149" lon="5.73371">
        <ele>1168.4</ele>
        <time>2021-08-20T10:31:10Z</time>
      </trkpt>
      <trkpt lat="46.11146" lon="5.73386">
        <ele>1168.2</ele>
        <time>2021-08-20T10:31:12Z</time>
      </trkpt>
      <trkpt lat="46.11142" lon="5.734">
        <ele>1168</ele>
        <time>2021-08-20T10:31:14Z</time>
      </trkpt>
      <trkpt lat="46.1114" lon="5.73407">
        <ele>1167.9</ele>
        <time>2021-08-20T10:31:15Z</time>
      </trkpt>
      <trkpt lat="46.11138" lon="5.73414">
        <ele>1167.7</ele>
        <time>2021-08-20T10:31:16Z</time>
      </trkpt>
      <trkpt lat="46.11135" lon="5.73428">
        <ele>1167.5</ele>
        <time>2021-08-20T10:31:18Z</time>
      </trkpt>
      <trkpt lat="46.11134" lon="5.73441">
        <ele>1167.3</ele>
        <time>2021-08-20T10:31:20Z</time>
      </trkpt>
      <trkpt lat="46.11135" lon="5.73456">
        <ele>1167</ele>
        <time>2021-08-20T10:31:22Z</time>
      </trkpt>
      <trkpt lat="46.11135" lon="5.73463">
        <ele>1166.9</ele>
        <time>2021-08-20T10:31:23Z</time>
      </trkpt>
      <trkpt lat="46.11137" lon="5.7347">
        <ele>1166.8</ele>
        <time>2021-08-20T10:31:24Z</time>
      </trkpt>
      <trkpt lat="46.11139" lon="5.73483">
        <ele>1166.6</ele>
        <time>2021-08-20T10:31:26Z</time>
      </trkpt>
      <trkpt lat="46.11142" lon="5.73495">
        <ele>1166.5</ele>
        <time>2021-08-20T10:31:28Z</time>
      </trkpt>
      <trkpt lat="46.11144" lon="5.73501">
        <ele>1166.4</ele>
        <time>2021-08-20T10:31:29Z</time>
      </trkpt>
      <trkpt lat="46.11146" lon="5.73507">
        <ele>1166.4</ele>
        <time>2021-08-20T10:31:30Z</time>
      </trkpt>
      <trkpt lat="46.1115" lon="5.7352">
        <ele>1166.3</ele>
        <time>2021-08-20T10:31:32Z</time>
      </trkpt>
      <trkpt lat="46.11152" lon="5.73531">
        <ele>1166.3</ele>
        <time>2021-08-20T10:31:34Z</time>
      </trkpt>
      <trkpt lat="46.11153" lon="5.73536">
        <ele>1166.2</ele>
        <time>2021-08-20T10:31:35Z</time>
      </trkpt>
      <trkpt lat="46.11153" lon="5.73542">
        <ele>1166.2</ele>
        <time>2021-08-20T10:31:36Z</time>
      </trkpt>
      <trkpt lat="46.11153" lon="5.73546">
        <ele>1166.1</ele>
        <time>2021-08-20T10:31:37Z</time>
      </trkpt>
      <trkpt lat="46.11152" lon="5.73551">
        <ele>1166.1</ele>
        <time>2021-08-20T10:31:38Z</time>
      </trkpt>
      <trkpt lat="46.11149" lon="5.73559">
        <ele>1167.5</ele>
        <time>2021-08-20T10:31:40Z</time>
      </trkpt>
      <trkpt lat="46.11146" lon="5.73563">
        <ele>1168.3</ele>
        <time>2021-08-20T10:31:41Z</time>
      </trkpt>
      <trkpt lat="46.11143" lon="5.73564">
        <ele>1168.7</ele>
        <time>2021-08-20T10:31:42Z</time>
      </trkpt>
      <trkpt lat="46.11136" lon="5.73561">
        <ele>1170.2</ele>
        <time>2021-08-20T10:31:44Z</time>
      </trkpt>
      <trkpt lat="46.11127" lon="5.73555">
        <ele>1171.9</ele>
        <time>2021-08-20T10:31:46Z</time>
      </trkpt>
      <trkpt lat="46.11119" lon="5.7355">
        <ele>1173.5</ele>
        <time>2021-08-20T10:31:48Z</time>
      </trkpt>
      <trkpt lat="46.11112" lon="5.73549">
        <ele>1174.7</ele>
        <time>2021-08-20T10:31:50Z</time>
      </trkpt>
      <trkpt lat="46.11107" lon="5.7355">
        <ele>1175.7</ele>
        <time>2021-08-20T10:31:52Z</time>
      </trkpt>
      <trkpt lat="46.11104" lon="5.73551">
        <ele>1175.6</ele>
        <time>2021-08-20T10:31:53Z</time>
      </trkpt>
      <trkpt lat="46.111" lon="5.73551">
        <ele>1175.5</ele>
        <time>2021-08-20T10:31:54Z</time>
      </trkpt>
      <trkpt lat="46.11099" lon="5.73551">
        <ele>1175.4</ele>
        <time>2021-08-20T10:31:55Z</time>
      </trkpt>
      <trkpt lat="46.11097" lon="5.7355">
        <ele>1175.4</ele>
        <time>2021-08-20T10:31:56Z</time>
      </trkpt>
      <trkpt lat="46.11096" lon="5.7355">
        <ele>1175.3</ele>
        <time>2021-08-20T10:31:58Z</time>
      </trkpt>
      <trkpt lat="46.11096" lon="5.73549">
        <ele>1175.3</ele>
        <time>2021-08-20T10:32:00Z</time>
      </trkpt>
      <trkpt lat="46.11095" lon="5.73549">
        <ele>1175.3</ele>
        <time>2021-08-20T10:32:02Z</time>
      </trkpt>
      <trkpt lat="46.11095" lon="5.73549">
        <ele>1175.3</ele>
        <time>2021-08-20T10:32:04Z</time>
      </trkpt>
      <trkpt lat="46.11095" lon="5.73549">
        <ele>1175.3</ele>
        <time>2021-08-20T10:32:06Z</time>
      </trkpt>
      <trkpt lat="46.11077" lon="5.73545">
        <ele>1174.4</ele>
        <time>2021-08-20T10:32:52Z</time>
      </trkpt>
      <trkpt lat="46.11069" lon="5.73544">
        <ele>1174</ele>
        <time>2021-08-20T10:32:54Z</time>
      </trkpt>
      <trkpt lat="46.11062" lon="5.73544">
        <ele>1173.7</ele>
        <time>2021-08-20T10:32:55Z</time>
      </trkpt>
      <trkpt lat="46.11054" lon="5.73545">
        <ele>1173.5</ele>
        <time>2021-08-20T10:32:56Z</time>
      </trkpt>
      <trkpt lat="46.11044" lon="5.73546">
        <ele>1173.3</ele>
        <time>2021-08-20T10:32:58Z</time>
      </trkpt>
      <trkpt lat="46.11034" lon="5.73545">
        <ele>1173.2</ele>
        <time>2021-08-20T10:33:00Z</time>
      </trkpt>
      <trkpt lat="46.11029" lon="5.73544">
        <ele>1173.1</ele>
        <time>2021-08-20T10:33:01Z</time>
      </trkpt>
      <trkpt lat="46.11022" lon="5.73542">
        <ele>1173.1</ele>
        <time>2021-08-20T10:33:03Z</time>
      </trkpt>
      <trkpt lat="46.11018" lon="5.7354">
        <ele>1173.1</ele>
        <time>2021-08-20T10:33:04Z</time>
      </trkpt>
      <trkpt lat="46.11013" lon="5.73539">
        <ele>1173.1</ele>
        <time>2021-08-20T10:33:06Z</time>
      </trkpt>
      <trkpt lat="46.1101" lon="5.73538">
        <ele>1173.1</ele>
        <time>2021-08-20T10:33:07Z</time>
      </trkpt>
      <trkpt lat="46.11007" lon="5.73537">
        <ele>1173.1</ele>
        <time>2021-08-20T10:33:08Z</time>
      </trkpt>
      <trkpt lat="46.11004" lon="5.73537">
        <ele>1173.1</ele>
        <time>2021-08-20T10:33:10Z</time>
      </trkpt>
      <trkpt lat="46.11001" lon="5.73536">
        <ele>1173.1</ele>
        <time>2021-08-20T10:33:11Z</time>
      </trkpt>
      <trkpt lat="46.10998" lon="5.73535">
        <ele>1173.1</ele>
        <time>2021-08-20T10:33:12Z</time>
      </trkpt>
      <trkpt lat="46.10995" lon="5.73534">
        <ele>1173.1</ele>
        <time>2021-08-20T10:33:14Z</time>
      </trkpt>
      <trkpt lat="46.10991" lon="5.73534">
        <ele>1173.1</ele>
        <time>2021-08-20T10:33:16Z</time>
      </trkpt>
      <trkpt lat="46.10988" lon="5.73534">
        <ele>1173</ele>
        <time>2021-08-20T10:33:17Z</time>
      </trkpt>
      <trkpt lat="46.10985" lon="5.73533">
        <ele>1173</ele>
        <time>2021-08-20T10:33:19Z</time>
      </trkpt>
      <trkpt lat="46.10981" lon="5.73533">
        <ele>1173</ele>
        <time>2021-08-20T10:33:20Z</time>
      </trkpt>
      <trkpt lat="46.10978" lon="5.73533">
        <ele>1173</ele>
        <time>2021-08-20T10:33:22Z</time>
      </trkpt>
      <trkpt lat="46.10974" lon="5.73532">
        <ele>1172.9</ele>
        <time>2021-08-20T10:34:54Z</time>
      </trkpt>
      <trkpt lat="46.10971" lon="5.73532">
        <ele>1172.9</ele>
        <time>2021-08-20T10:34:55Z</time>
      </trkpt>
      <trkpt lat="46.10966" lon="5.73529">
        <ele>1172.8</ele>
        <time>2021-08-20T10:34:56Z</time>
      </trkpt>
      <trkpt lat="46.10959" lon="5.73527">
        <ele>1172.8</ele>
        <time>2021-08-20T10:34:58Z</time>
      </trkpt>
      <trkpt lat="46.10953" lon="5.73527">
        <ele>1172.7</ele>
        <time>2021-08-20T10:34:59Z</time>
      </trkpt>
      <trkpt lat="46.10949" lon="5.73527">
        <ele>1172.7</ele>
        <time>2021-08-20T10:35:00Z</time>
      </trkpt>
      <trkpt lat="46.10946" lon="5.73527">
        <ele>1172.7</ele>
        <time>2021-08-20T10:35:01Z</time>
      </trkpt>
      <trkpt lat="46.10941" lon="5.73526">
        <ele>1172.7</ele>
        <time>2021-08-20T10:35:03Z</time>
      </trkpt>
      <trkpt lat="46.10938" lon="5.73524">
        <ele>1172.7</ele>
        <time>2021-08-20T10:35:04Z</time>
      </trkpt>
      <trkpt lat="46.10934" lon="5.73522">
        <ele>1172.7</ele>
        <time>2021-08-20T10:35:05Z</time>
      </trkpt>
      <trkpt lat="46.10931" lon="5.73521">
        <ele>1172.7</ele>
        <time>2021-08-20T10:35:06Z</time>
      </trkpt>
      <trkpt lat="46.10928" lon="5.73519">
        <ele>1172.7</ele>
        <time>2021-08-20T10:35:07Z</time>
      </trkpt>
      <trkpt lat="46.10925" lon="5.73516">
        <ele>1172.7</ele>
        <time>2021-08-20T10:35:08Z</time>
      </trkpt>
      <trkpt lat="46.10922" lon="5.73511">
        <ele>1172.6</ele>
        <time>2021-08-20T10:35:09Z</time>
      </trkpt>
      <trkpt lat="46.10919" lon="5.73506">
        <ele>1172.6</ele>
        <time>2021-08-20T10:35:11Z</time>
      </trkpt>
      <trkpt lat="46.10915" lon="5.73504">
        <ele>1172.6</ele>
        <time>2021-08-20T10:35:12Z</time>
      </trkpt>
      <trkpt lat="46.10908" lon="5.73498">
        <ele>1172.6</ele>
        <time>2021-08-20T10:35:14Z</time>
      </trkpt>
      <trkpt lat="46.10905" lon="5.73496">
        <ele>1172.7</ele>
        <time>2021-08-20T10:35:15Z</time>
      </trkpt>
      <trkpt lat="46.10903" lon="5.73495">
        <ele>1172.7</ele>
        <time>2021-08-20T10:35:16Z</time>
      </trkpt>
      <trkpt lat="46.10898" lon="5.73493">
        <ele>1172.8</ele>
        <time>2021-08-20T10:35:18Z</time>
      </trkpt>
      <trkpt lat="46.10896" lon="5.73492">
        <ele>1172.9</ele>
        <time>2021-08-20T10:35:19Z</time>
      </trkpt>
      <trkpt lat="46.1086" lon="5.73454">
        <ele>1174.3</ele>
        <time>2021-08-20T10:35:47Z</time>
      </trkpt>
      <trkpt lat="46.10851" lon="5.73453">
        <ele>1174.6</ele>
        <time>2021-08-20T10:35:49Z</time>
      </trkpt>
      <trkpt lat="46.10847" lon="5.73453">
        <ele>1174.8</ele>
        <time>2021-08-20T10:35:51Z</time>
      </trkpt>
      <trkpt lat="46.10843" lon="5.73452">
        <ele>1175</ele>
        <time>2021-08-20T10:35:52Z</time>
      </trkpt>
      <trkpt lat="46.1084" lon="5.73451">
        <ele>1175.2</ele>
        <time>2021-08-20T10:35:53Z</time>
      </trkpt>
      <trkpt lat="46.10836" lon="5.73451">
        <ele>1175.3</ele>
        <time>2021-08-20T10:35:55Z</time>
      </trkpt>
      <trkpt lat="46.10832" lon="5.7345">
        <ele>1175.6</ele>
        <time>2021-08-20T10:35:56Z</time>
      </trkpt>
      <trkpt lat="46.10828" lon="5.7345">
        <ele>1175.8</ele>
        <time>2021-08-20T10:35:57Z</time>
      </trkpt>
      <trkpt lat="46.10825" lon="5.73449">
        <ele>1175.9</ele>
        <time>2021-08-20T10:35:58Z</time>
      </trkpt>
      <trkpt lat="46.10821" lon="5.73449">
        <ele>1176.1</ele>
        <time>2021-08-20T10:35:59Z</time>
      </trkpt>
      <trkpt lat="46.10817" lon="5.73449">
        <ele>1176.3</ele>
        <time>2021-08-20T10:36:00Z</time>
      </trkpt>
      <trkpt lat="46.10813" lon="5.73451">
        <ele>1176.6</ele>
        <time>2021-08-20T10:36:02Z</time>
      </trkpt>
      <trkpt lat="46.10811" lon="5.73452">
        <ele>1176.7</ele>
        <time>2021-08-20T10:36:03Z</time>
      </trkpt>
      <trkpt lat="46.1081" lon="5.73452">
        <ele>1176.8</ele>
        <time>2021-08-20T10:36:04Z</time>
      </trkpt>
      <trkpt lat="46.10807" lon="5.73452">
        <ele>1177</ele>
        <time>2021-08-20T10:36:06Z</time>
      </trkpt>
      <trkpt lat="46.10806" lon="5.73451">
        <ele>1177.1</ele>
        <time>2021-08-20T10:36:07Z</time>
      </trkpt>
      <trkpt lat="46.10804" lon="5.73447">
        <ele>1177.4</ele>
        <time>2021-08-20T10:36:08Z</time>
      </trkpt>
      <trkpt lat="46.108" lon="5.73442">
        <ele>1177.8</ele>
        <time>2021-08-20T10:36:09Z</time>
      </trkpt>
      <trkpt lat="46.10798" lon="5.73439">
        <ele>1178</ele>
        <time>2021-08-20T10:36:11Z</time>
      </trkpt>
      <trkpt lat="46.10797" lon="5.73438">
        <ele>1178.1</ele>
        <time>2021-08-20T10:36:12Z</time>
      </trkpt>
      <trkpt lat="46.10796" lon="5.73437">
        <ele>1178.2</ele>
        <time>2021-08-20T10:36:13Z</time>
      </trkpt>
      <trkpt lat="46.10794" lon="5.73437">
        <ele>1178.4</ele>
        <time>2021-08-20T10:36:15Z</time>
      </trkpt>
      <trkpt lat="46.10791" lon="5.73437">
        <ele>1178.6</ele>
        <time>2021-08-20T10:36:16Z</time>
      </trkpt>
      <trkpt lat="46.1079" lon="5.73436">
        <ele>1178.8</ele>
        <time>2021-08-20T10:36:17Z</time>
      </trkpt>
      <trkpt lat="46.10755" lon="5.73446">
        <ele>1181.7</ele>
        <time>2021-08-20T10:36:40Z</time>
      </trkpt>
      <trkpt lat="46.10753" lon="5.73449">
        <ele>1181.9</ele>
        <time>2021-08-20T10:36:41Z</time>
      </trkpt>
      <trkpt lat="46.10752" lon="5.73451">
        <ele>1182.1</ele>
        <time>2021-08-20T10:36:42Z</time>
      </trkpt>
      <trkpt lat="46.1075" lon="5.73454">
        <ele>1182.3</ele>
        <time>2021-08-20T10:36:44Z</time>
      </trkpt>
      <trkpt lat="46.10747" lon="5.73458">
        <ele>1182.5</ele>
        <time>2021-08-20T10:36:45Z</time>
      </trkpt>
      <trkpt lat="46.10746" lon="5.7346">
        <ele>1182.6</ele>
        <time>2021-08-20T10:36:46Z</time>
      </trkpt>
      <trkpt lat="46.10744" lon="5.73462">
        <ele>1182.7</ele>
        <time>2021-08-20T10:36:47Z</time>
      </trkpt>
      <trkpt lat="46.10741" lon="5.73467">
        <ele>1182.8</ele>
        <time>2021-08-20T10:36:49Z</time>
      </trkpt>
      <trkpt lat="46.10739" lon="5.73471">
        <ele>1182.8</ele>
        <time>2021-08-20T10:36:50Z</time>
      </trkpt>
      <trkpt lat="46.10738" lon="5.73475">
        <ele>1182.9</ele>
        <time>2021-08-20T10:36:51Z</time>
      </trkpt>
      <trkpt lat="46.10737" lon="5.73479">
        <ele>1182.9</ele>
        <time>2021-08-20T10:36:52Z</time>
      </trkpt>
      <trkpt lat="46.10736" lon="5.73484">
        <ele>1183</ele>
        <time>2021-08-20T10:36:53Z</time>
      </trkpt>
      <trkpt lat="46.10734" lon="5.7349">
        <ele>1183</ele>
        <time>2021-08-20T10:36:55Z</time>
      </trkpt>
      <trkpt lat="46.10733" lon="5.73492">
        <ele>1183.1</ele>
        <time>2021-08-20T10:36:56Z</time>
      </trkpt>
      <trkpt lat="46.10731" lon="5.73496">
        <ele>1183.1</ele>
        <time>2021-08-20T10:36:58Z</time>
      </trkpt>
      <trkpt lat="46.10728" lon="5.73499">
        <ele>1183.1</ele>
        <time>2021-08-20T10:36:59Z</time>
      </trkpt>
      <trkpt lat="46.10726" lon="5.735">
        <ele>1183.1</ele>
        <time>2021-08-20T10:37:00Z</time>
      </trkpt>
      <trkpt lat="46.10723" lon="5.73503">
        <ele>1183.2</ele>
        <time>2021-08-20T10:37:02Z</time>
      </trkpt>
      <trkpt lat="46.10722" lon="5.73503">
        <ele>1183.2</ele>
        <time>2021-08-20T10:37:03Z</time>
      </trkpt>
      <trkpt lat="46.10721" lon="5.73504">
        <ele>1183.2</ele>
        <time>2021-08-20T10:37:04Z</time>
      </trkpt>
      <trkpt lat="46.1072" lon="5.73509">
        <ele>1183.2</ele>
        <time>2021-08-20T10:37:06Z</time>
      </trkpt>
      <trkpt lat="46.10719" lon="5.73514">
        <ele>1183.2</ele>
        <time>2021-08-20T10:37:07Z</time>
      </trkpt>
      <trkpt lat="46.10719" lon="5.73518">
        <ele>1183.2</ele>
        <time>2021-08-20T10:37:08Z</time>
      </trkpt>
      <trkpt lat="46.1072" lon="5.73523">
        <ele>1183.2</ele>
        <time>2021-08-20T10:37:10Z</time>
      </trkpt>
      <trkpt lat="46.10724" lon="5.73527">
        <ele>1183.3</ele>
        <time>2021-08-20T10:37:12Z</time>
      </trkpt>
      <trkpt lat="46.10729" lon="5.73527">
        <ele>1183.3</ele>
        <time>2021-08-20T10:37:14Z</time>
      </trkpt>
      <trkpt lat="46.10731" lon="5.73527">
        <ele>1183.3</ele>
        <time>2021-08-20T10:37:15Z</time>
      </trkpt>
      <trkpt lat="46.10733" lon="5.73527">
        <ele>1183.3</ele>
        <time>2021-08-20T10:37:17Z</time>
      </trkpt>
      <trkpt lat="46.10734" lon="5.73527">
        <ele>1183.3</ele>
        <time>2021-08-20T10:37:18Z</time>
      </trkpt>
      <trkpt lat="46.10735" lon="5.73527">
        <ele>1183.3</ele>
        <time>2021-08-20T10:37:19Z</time>
      </trkpt>
      <trkpt lat="46.10736" lon="5.73528">
        <ele>1183.3</ele>
        <time>2021-08-20T10:37:21Z</time>
      </trkpt>
      <trkpt lat="46.10736" lon="5.73529">
        <ele>1183.3</ele>
        <time>2021-08-20T10:37:23Z</time>
      </trkpt>
      <trkpt lat="46.108" lon="5.73762">
        <ele>1205.1</ele>
        <time>2021-08-20T10:41:24Z</time>
      </trkpt>
      <trkpt lat="46.10797" lon="5.73766">
        <ele>1205.5</ele>
        <time>2021-08-20T10:41:26Z</time>
      </trkpt>
      <trkpt lat="46.10795" lon="5.7377">
        <ele>1205.9</ele>
        <time>2021-08-20T10:41:27Z</time>
      </trkpt>
      <trkpt lat="46.10794" lon="5.73771">
        <ele>1206</ele>
        <time>2021-08-20T10:41:28Z</time>
      </trkpt>
      <trkpt lat="46.10792" lon="5.73775">
        <ele>1206.3</ele>
        <time>2021-08-20T10:41:29Z</time>
      </trkpt>
      <trkpt lat="46.10789" lon="5.73779">
        <ele>1206.6</ele>
        <time>2021-08-20T10:41:31Z</time>
      </trkpt>
      <trkpt lat="46.10788" lon="5.73779">
        <ele>1206.6</ele>
        <time>2021-08-20T10:41:32Z</time>
      </trkpt>
      <trkpt lat="46.10787" lon="5.73785">
        <ele>1206.8</ele>
        <time>2021-08-20T10:41:34Z</time>
      </trkpt>
      <trkpt lat="46.10785" lon="5.73791">
        <ele>1206.8</ele>
        <time>2021-08-20T10:41:36Z</time>
      </trkpt>
      <trkpt lat="46.10783" lon="5.73795">
        <ele>1206.7</ele>
        <time>2021-08-20T10:41:38Z</time>
      </trkpt>
      <trkpt lat="46.10782" lon="5.73802">
        <ele>1206.5</ele>
        <time>2021-08-20T10:41:40Z</time>
      </trkpt>
      <trkpt lat="46.10781" lon="5.7381">
        <ele>1206</ele>
        <time>2021-08-20T10:41:42Z</time>
      </trkpt>
      <trkpt lat="46.10779" lon="5.73815">
        <ele>1205.7</ele>
        <time>2021-08-20T10:41:44Z</time>
      </trkpt>
      <trkpt lat="46.10778" lon="5.73817">
        <ele>1205.6</ele>
        <time>2021-08-20T10:41:45Z</time>
      </trkpt>
      <trkpt lat="46.10778" lon="5.73818">
        <ele>1205.5</ele>
        <time>2021-08-20T10:41:46Z</time>
      </trkpt>
      <trkpt lat="46.10777" lon="5.73819">
        <ele>1205.4</ele>
        <time>2021-08-20T10:41:48Z</time>
      </trkpt>
      <trkpt lat="46.10765" lon="5.73824">
        <ele>1204.8</ele>
        <time>2021-08-20T10:41:49Z</time>
      </trkpt>
      <trkpt lat="46.10754" lon="5.73828">
        <ele>1204.5</ele>
        <time>2021-08-20T10:41:50Z</time>
      </trkpt>
      <trkpt lat="46.10744" lon="5.73832">
        <ele>1203.5</ele>
        <time>2021-08-20T10:41:52Z</time>
      </trkpt>
      <trkpt lat="46.10726" lon="5.73838">
        <ele>1202.6</ele>
        <time>2021-08-20T10:41:54Z</time>
      </trkpt>
      <trkpt lat="46.10719" lon="5.73843">
        <ele>1202.6</ele>
        <time>2021-08-20T10:41:56Z</time>
      </trkpt>
      <trkpt lat="46.10714" lon="5.73844">
        <ele>1202.7</ele>
        <time>2021-08-20T10:41:57Z</time>
      </trkpt>
      <trkpt lat="46.10707" lon="5.73845">
        <ele>1203.1</ele>
        <time>2021-08-20T10:41:58Z</time>
      </trkpt>
      <trkpt lat="46.10701" lon="5.73845">
        <ele>1203.4</ele>
        <time>2021-08-20T10:41:59Z</time>
      </trkpt>
      <trkpt lat="46.10696" lon="5.73845">
        <ele>1203.8</ele>
        <time>2021-08-20T10:42:00Z</time>
      </trkpt>
      <trkpt lat="46.10691" lon="5.73846">
        <ele>1204.1</ele>
        <time>2021-08-20T10:42:01Z</time>
      </trkpt>
      <trkpt lat="46.10687" lon="5.73847">
        <ele>1204.3</ele>
        <time>2021-08-20T10:42:02Z</time>
      </trkpt>
      <trkpt lat="46.10682" lon="5.73847">
        <ele>1204.6</ele>
        <time>2021-08-20T10:42:04Z</time>
      </trkpt>
      <trkpt lat="46.10678" lon="5.73846">
        <ele>1204.8</ele>
        <time>2021-08-20T10:42:05Z</time>
      </trkpt>
      <trkpt lat="46.10673" lon="5.73846">
        <ele>1205</ele>
        <time>2021-08-20T10:42:06Z</time>
      </trkpt>
      <trkpt lat="46.10668" lon="5.73846">
        <ele>1205.1</ele>
        <time>2021-08-20T10:42:07Z</time>
      </trkpt>
      <trkpt lat="46.10663" lon="5.73847">
        <ele>1205.3</ele>
        <time>2021-08-20T10:42:08Z</time>
      </trkpt>
      <trkpt lat="46.10659" lon="5.73848">
        <ele>1205.4</ele>
        <time>2021-08-20T10:42:10Z</time>
      </trkpt>
      <trkpt lat="46.10655" lon="5.73849">
        <ele>1205.7</ele>
        <time>2021-08-20T10:42:11Z</time>
      </trkpt>
      <trkpt lat="46.1065" lon="5.73852">
        <ele>1206</ele>
        <time>2021-08-20T10:42:13Z</time>
      </trkpt>
      <trkpt lat="46.10647" lon="5.73854">
        <ele>1206.2</ele>
        <time>2021-08-20T10:42:14Z</time>
      </trkpt>
      <trkpt lat="46.10644" lon="5.73856">
        <ele>1206.5</ele>
        <time>2021-08-20T10:42:16Z</time>
      </trkpt>
      <trkpt lat="46.10641" lon="5.73856">
        <ele>1206.7</ele>
        <time>2021-08-20T10:42:17Z</time>
      </trkpt>
      <trkpt lat="46.10639" lon="5.73858">
        <ele>1207</ele>
        <time>2021-08-20T10:42:18Z</time>
      </trkpt>
      <trkpt lat="46.10637" lon="5.73859">
        <ele>1207.1</ele>
        <time>2021-08-20T10:42:19Z</time>
      </trkpt>
      <trkpt lat="46.10635" lon="5.7386">
        <ele>1207.3</ele>
        <time>2021-08-20T10:42:20Z</time>
      </trkpt>
      <trkpt lat="46.10625" lon="5.73863">
        <ele>1208.5</ele>
        <time>2021-08-20T10:42:22Z</time>
      </trkpt>
      <trkpt lat="46.10623" lon="5.73864">
        <ele>1208.7</ele>
        <time>2021-08-20T10:42:24Z</time>
      </trkpt>
      <trkpt lat="46.10622" lon="5.73864">
        <ele>1208.8</ele>
        <time>2021-08-20T10:42:25Z</time>
      </trkpt>
      <trkpt lat="46.10623" lon="5.73862">
        <ele>1208.9</ele>
        <time>2021-08-20T10:42:27Z</time>
      </trkpt>
      <trkpt lat="46.10526" lon="5.73924">
        <ele>1218.1</ele>
        <time>2021-08-20T10:44:44Z</time>
      </trkpt>
      <trkpt lat="46.10518" lon="5.73926">
        <ele>1218.1</ele>
        <time>2021-08-20T10:44:46Z</time>
      </trkpt>
      <trkpt lat="46.1051" lon="5.73927">
        <ele>1218</ele>
        <time>2021-08-20T10:44:48Z</time>
      </trkpt>
      <trkpt lat="46.10505" lon="5.73925">
        <ele>1218</ele>
        <time>2021-08-20T10:44:49Z</time>
      </trkpt>
      <trkpt lat="46.10502" lon="5.73924">
        <ele>1218.1</ele>
        <time>2021-08-20T10:44:50Z</time>
      </trkpt>
      <trkpt lat="46.10497" lon="5.73922">
        <ele>1218.1</ele>
        <time>2021-08-20T10:44:52Z</time>
      </trkpt>
      <trkpt lat="46.10492" lon="5.73919">
        <ele>1218.1</ele>
        <time>2021-08-20T10:44:53Z</time>
      </trkpt>
      <trkpt lat="46.10488" lon="5.73917">
        <ele>1218.1</ele>
        <time>2021-08-20T10:44:55Z</time>
      </trkpt>
      <trkpt lat="46.10484" lon="5.73913">
        <ele>1218.1</ele>
        <time>2021-08-20T10:44:56Z</time>
      </trkpt>
      <trkpt lat="46.10477" lon="5.73907">
        <ele>1218.2</ele>
        <time>2021-08-20T10:44:58Z</time>
      </trkpt>
      <trkpt lat="46.10469" lon="5.73903">
        <ele>1218.2</ele>
        <time>2021-08-20T10:45:00Z</time>
      </trkpt>
      <trkpt lat="46.10464" lon="5.73902">
        <ele>1218.2</ele>
        <time>2021-08-20T10:45:01Z</time>
      </trkpt>
      <trkpt lat="46.10459" lon="5.73902">
        <ele>1218.3</ele>
        <time>2021-08-20T10:45:03Z</time>
      </trkpt>
      <trkpt lat="46.10456" lon="5.73902">
        <ele>1218.3</ele>
        <time>2021-08-20T10:45:04Z</time>
      </trkpt>
      <trkpt lat="46.10453" lon="5.73903">
        <ele>1218.3</ele>
        <time>2021-08-20T10:45:05Z</time>
      </trkpt>
      <trkpt lat="46.10451" lon="5.73905">
        <ele>1218.3</ele>
        <time>2021-08-20T10:45:06Z</time>
      </trkpt>
      <trkpt lat="46.10446" lon="5.73905">
        <ele>1218.3</ele>
        <time>2021-08-20T10:45:08Z</time>
      </trkpt>
      <trkpt lat="46.10442" lon="5.73904">
        <ele>1218.3</ele>
        <time>2021-08-20T10:45:09Z</time>
      </trkpt>
      <trkpt lat="46.10437" lon="5.73904">
        <ele>1218.4</ele>
        <time>2021-08-20T10:45:11Z</time>
      </trkpt>
      <trkpt lat="46.10434" lon="5.73904">
        <ele>1218.4</ele>
        <time>2021-08-20T10:45:12Z</time>
      </trkpt>
      <trkpt lat="46.1043" lon="5.73902">
        <ele>1218.4</ele>
        <time>2021-08-20T10:45:14Z</time>
      </trkpt>
      <trkpt lat="46.10428" lon="5.73902">
        <ele>1218.4</ele>
        <time>2021-08-20T10:45:15Z</time>
      </trkpt>
      <trkpt lat="46.10425" lon="5.73902">
        <ele>1218.4</ele>
        <time>2021-08-20T10:45:17Z</time>
      </trkpt>
      <trkpt lat="46.10422" lon="5.73904">
        <ele>1218.5</ele>
        <time>2021-08-20T10:45:18Z</time>
      </trkpt>
      <trkpt lat="46.10422" lon="5.73904">
        <ele>1218.5</ele>
        <time>2021-08-20T10:45:19Z</time>
      </trkpt>
      <trkpt lat="46.10422" lon="5.73906">
        <ele>1218.5</ele>
        <time>2021-08-20T10:45:21Z</time>
      </trkpt>
      <trkpt lat="46.10422" lon="5.73907">
        <ele>1218.5</ele>
        <time>2021-08-20T10:45:22Z</time>
      </trkpt>
      <trkpt lat="46.10419" lon="5.73906">
        <ele>1218.5</ele>
        <time>2021-08-20T10:45:24Z</time>
      </trkpt>
      <trkpt lat="46.10415" lon="5.73906">
        <ele>1218.6</ele>
        <time>2021-08-20T10:45:25Z</time>
      </trkpt>
      <trkpt lat="46.1041" lon="5.73903">
        <ele>1218.6</ele>
        <time>2021-08-20T10:45:26Z</time>
      </trkpt>
      <trkpt lat="46.10405" lon="5.73898">
        <ele>1218.8</ele>
        <time>2021-08-20T10:45:28Z</time>
      </trkpt>
      <trkpt lat="46.10402" lon="5.73896">
        <ele>1218.9</ele>
        <time>2021-08-20T10:45:29Z</time>
      </trkpt>
      <trkpt lat="46.10399" lon="5.73894">
        <ele>1218.9</ele>
        <time>2021-08-20T10:45:30Z</time>
      </trkpt>
      <trkpt lat="46.10396" lon="5.73892">
        <ele>1219</ele>
        <time>2021-08-20T10:45:31Z</time>
      </trkpt>
      <trkpt lat="46.10392" lon="5.73889">
        <ele>1219.1</ele>
        <time>2021-08-20T10:45:33Z</time>
      </trkpt>
      <trkpt lat="46.10387" lon="5.73889">
        <ele>1219.3</ele>
        <time>2021-08-20T10:45:34Z</time>
      </trkpt>
      <trkpt lat="46.10382" lon="5.73887">
        <ele>1219.4</ele>
        <time>2021-08-20T10:45:36Z</time>
      </trkpt>
      <trkpt lat="46.10378" lon="5.73884">
        <ele>1219.6</ele>
        <time>2021-08-20T10:45:37Z</time>
      </trkpt>
      <trkpt lat="46.10376" lon="5.73883">
        <ele>1219.7</ele>
        <time>2021-08-20T10:45:38Z</time>
      </trkpt>
      <trkpt lat="46.10373" lon="5.7388">
        <ele>1219.8</ele>
        <time>2021-08-20T10:45:40Z</time>
      </trkpt>
      <trkpt lat="46.10372" lon="5.73878">
        <ele>1219.8</ele>
        <time>2021-08-20T10:45:41Z</time>
      </trkpt>
      <trkpt lat="46.1037" lon="5.73878">
        <ele>1219.9</ele>
        <time>2021-08-20T10:45:42Z</time>
      </trkpt>
      <trkpt lat="46.10367" lon="5.73877">
        <ele>1220</ele>
        <time>2021-08-20T10:45:44Z</time>
      </trkpt>
      <trkpt lat="46.10368" lon="5.73874">
        <ele>1220.1</ele>
        <time>2021-08-20T10:45:46Z</time>
      </trkpt>
      <trkpt lat="46.10369" lon="5.73872">
        <ele>1220.1</ele>
        <time>2021-08-20T10:45:47Z</time>
      </trkpt>
      <trkpt lat="46.10369" lon="5.73871">
        <ele>1220.2</ele>
        <time>2021-08-20T10:45:49Z</time>
      </trkpt>
      <trkpt lat="46.10368" lon="5.73871">
        <ele>1220.2</ele>
        <time>2021-08-20T10:45:50Z</time>
      </trkpt>
      <trkpt lat="46.10368" lon="5.7387">
        <ele>1220.2</ele>
        <time>2021-08-20T10:45:51Z</time>
      </trkpt>
      <trkpt lat="46.10367" lon="5.73869">
        <ele>1220.2</ele>
        <time>2021-08-20T10:45:52Z</time>
      </trkpt>
      <trkpt lat="46.10332" lon="5.73838">
        <ele>1221.9</ele>
        <time>2021-08-20T10:46:08Z</time>
      </trkpt>
      <trkpt lat="46.10327" lon="5.73837">
        <ele>1222.1</ele>
        <time>2021-08-20T10:46:09Z</time>
      </trkpt>
      <trkpt lat="46.10321" lon="5.73836">
        <ele>1222.3</ele>
        <time>2021-08-20T10:46:10Z</time>
      </trkpt>
      <trkpt lat="46.10317" lon="5.73836">
        <ele>1222.5</ele>
        <time>2021-08-20T10:46:11Z</time>
      </trkpt>
      <trkpt lat="46.10313" lon="5.73836">
        <ele>1222.7</ele>
        <time>2021-08-20T10:46:12Z</time>
      </trkpt>
      <trkpt lat="46.10309" lon="5.73835">
        <ele>1222.9</ele>
        <time>2021-08-20T10:46:13Z</time>
      </trkpt>
      <trkpt lat="46.10305" lon="5.73834">
        <ele>1223.1</ele>
        <time>2021-08-20T10:46:14Z</time>
      </trkpt>
      <trkpt lat="46.10301" lon="5.73832">
        <ele>1223.3</ele>
        <time>2021-08-20T10:46:15Z</time>
      </trkpt>
      <trkpt lat="46.10299" lon="5.7383">
        <ele>1223.5</ele>
        <time>2021-08-20T10:46:16Z</time>
      </trkpt>
      <trkpt lat="46.10295" lon="5.73826">
        <ele>1223.7</ele>
        <time>2021-08-20T10:46:18Z</time>
      </trkpt>
      <trkpt lat="46.10293" lon="5.73822">
        <ele>1223.9</ele>
        <time>2021-08-20T10:46:19Z</time>
      </trkpt>
      <trkpt lat="46.10292" lon="5.73821">
        <ele>1224</ele>
        <time>2021-08-20T10:46:20Z</time>
      </trkpt>
      <trkpt lat="46.1029" lon="5.73818">
        <ele>1224.2</ele>
        <time>2021-08-20T10:46:21Z</time>
      </trkpt>
      <trkpt lat="46.10288" lon="5.73816">
        <ele>1224.3</ele>
        <time>2021-08-20T10:46:22Z</time>
      </trkpt>
      <trkpt lat="46.10283" lon="5.73813">
        <ele>1224.7</ele>
        <time>2021-08-20T10:46:24Z</time>
      </trkpt>
      <trkpt lat="46.1028" lon="5.73812">
        <ele>1224.9</ele>
        <time>2021-08-20T10:46:25Z</time>
      </trkpt>
      <trkpt lat="46.10278" lon="5.73812">
        <ele>1225</ele>
        <time>2021-08-20T10:46:26Z</time>
      </trkpt>
      <trkpt lat="46.10275" lon="5.73811">
        <ele>1225.2</ele>
        <time>2021-08-20T10:46:28Z</time>
      </trkpt>
      <trkpt lat="46.10276" lon="5.73813">
        <ele>1225.2</ele>
        <time>2021-08-20T10:46:29Z</time>
      </trkpt>
      <trkpt lat="46.10276" lon="5.73816">
        <ele>1225.4</ele>
        <time>2021-08-20T10:46:30Z</time>
      </trkpt>
      <trkpt lat="46.10276" lon="5.73818">
        <ele>1225.5</ele>
        <time>2021-08-20T10:46:31Z</time>
      </trkpt>
      <trkpt lat="46.10276" lon="5.73819">
        <ele>1225.5</ele>
        <time>2021-08-20T10:46:32Z</time>
      </trkpt>
      <trkpt lat="46.10276" lon="5.7382">
        <ele>1225.6</ele>
        <time>2021-08-20T10:46:34Z</time>
      </trkpt>
      <trkpt lat="46.10276" lon="5.7382">
        <ele>1225.6</ele>
        <time>2021-08-20T10:46:35Z</time>
      </trkpt>
      <trkpt lat="46.10276" lon="5.73821">
        <ele>1225.6</ele>
        <time>2021-08-20T10:46:36Z</time>
      </trkpt>
      <trkpt lat="46.10276" lon="5.73821">
        <ele>1225.6</ele>
        <time>2021-08-20T10:46:37Z</time>
      </trkpt>
      <trkpt lat="46.10275" lon="5.73821">
        <ele>1225.7</ele>
        <time>2021-08-20T10:46:38Z</time>
      </trkpt>
      <trkpt lat="46.10194" lon="5.73801">
        <ele>1231.4</ele>
        <time>2021-08-20T10:47:49Z</time>
      </trkpt>
      <trkpt lat="46.1019" lon="5.73797">
        <ele>1231.5</ele>
        <time>2021-08-20T10:47:51Z</time>
      </trkpt>
      <trkpt lat="46.10188" lon="5.73794">
        <ele>1231.6</ele>
        <time>2021-08-20T10:47:52Z</time>
      </trkpt>
      <trkpt lat="46.10184" lon="5.73789">
        <ele>1231.6</ele>
        <time>2021-08-20T10:47:53Z</time>
      </trkpt>
      <trkpt lat="46.1018" lon="5.73783">
        <ele>1231.7</ele>
        <time>2021-08-20T10:47:55Z</time>
      </trkpt>
      <trkpt lat="46.10177" lon="5.73778">
        <ele>1231.7</ele>
        <time>2021-08-20T10:47:56Z</time>
      </trkpt>
      <trkpt lat="46.10173" lon="5.73773">
        <ele>1231.8</ele>
        <time>2021-08-20T10:47:57Z</time>
      </trkpt>
      <trkpt lat="46.1017" lon="5.73769">
        <ele>1231.8</ele>
        <time>2021-08-20T10:47:58Z</time>
      </trkpt>
      <trkpt lat="46.10166" lon="5.73764">
        <ele>1231.9</ele>
        <time>2021-08-20T10:47:59Z</time>
      </trkpt>
      <trkpt lat="46.10163" lon="5.7376">
        <ele>1231.9</ele>
        <time>2021-08-20T10:48:00Z</time>
      </trkpt>
      <trkpt lat="46.10159" lon="5.73756">
        <ele>1232</ele>
        <time>2021-08-20T10:48:01Z</time>
      </trkpt>
      <trkpt lat="46.10156" lon="5.73756">
        <ele>1232.1</ele>
        <time>2021-08-20T10:48:03Z</time>
      </trkpt>
      <trkpt lat="46.10153" lon="5.73757">
        <ele>1232.1</ele>
        <time>2021-08-20T10:48:04Z</time>
      </trkpt>
      <trkpt lat="46.10151" lon="5.73757">
        <ele>1232.1</ele>
        <time>2021-08-20T10:48:05Z</time>
      </trkpt>
      <trkpt lat="46.10148" lon="5.73757">
        <ele>1232.2</ele>
        <time>2021-08-20T10:48:07Z</time>
      </trkpt>
      <trkpt lat="46.10146" lon="5.73756">
        <ele>1232.2</ele>
        <time>2021-08-20T10:48:08Z</time>
      </trkpt>
      <trkpt lat="46.10145" lon="5.73756">
        <ele>1232.2</ele>
        <time>2021-08-20T10:48:09Z</time>
      </trkpt>
      <trkpt lat="46.10143" lon="5.73755">
        <ele>1232.2</ele>
        <time>2021-08-20T10:48:11Z</time>
      </trkpt>
      <trkpt lat="46.10106" lon="5.73735">
        <ele>1232.5</ele>
        <time>2021-08-20T10:48:23Z</time>
      </trkpt>
      <trkpt lat="46.10099" lon="5.73732">
        <ele>1232.5</ele>
        <time>2021-08-20T10:48:24Z</time>
      </trkpt>
      <trkpt lat="46.10094" lon="5.73729">
        <ele>1232.5</ele>
        <time>2021-08-20T10:48:25Z</time>
      </trkpt>
      <trkpt lat="46.10087" lon="5.73725">
        <ele>1232.5</ele>
        <time>2021-08-20T10:48:26Z</time>
      </trkpt>
      <trkpt lat="46.10081" lon="5.73722">
        <ele>1232.5</ele>
        <time>2021-08-20T10:48:28Z</time>
      </trkpt>
      <trkpt lat="46.10075" lon="5.73718">
        <ele>1232.6</ele>
        <time>2021-08-20T10:48:29Z</time>
      </trkpt>
      <trkpt lat="46.10066" lon="5.73716">
        <ele>1232.6</ele>
        <time>2021-08-20T10:48:30Z</time>
      </trkpt>
      <trkpt lat="46.10058" lon="5.73715">
        <ele>1232.7</ele>
        <time>2021-08-20T10:48:32Z</time>
      </trkpt>
      <trkpt lat="46.10053" lon="5.73714">
        <ele>1232.7</ele>
        <time>2021-08-20T10:48:33Z</time>
      </trkpt>
      <trkpt lat="46.10048" lon="5.73713">
        <ele>1232.8</ele>
        <time>2021-08-20T10:48:34Z</time>
      </trkpt>
      <trkpt lat="46.10041" lon="5.7371">
        <ele>1232.9</ele>
        <time>2021-08-20T10:48:36Z</time>
      </trkpt>
      <trkpt lat="46.10037" lon="5.73709">
        <ele>1232.9</ele>
        <time>2021-08-20T10:48:37Z</time>
      </trkpt>
      <trkpt lat="46.10036" lon="5.73707">
        <ele>1233</ele>
        <time>2021-08-20T10:48:38Z</time>
      </trkpt>
      <trkpt lat="46.10037" lon="5.73702">
        <ele>1233</ele>
        <time>2021-08-20T10:48:40Z</time>
      </trkpt>
      <trkpt lat="46.10038" lon="5.73698">
        <ele>1233.1</ele>
        <time>2021-08-20T10:48:41Z</time>
      </trkpt>
      <trkpt lat="46.10038" lon="5.73697">
        <ele>1233.1</ele>
        <time>2021-08-20T10:48:42Z</time>
      </trkpt>
      <trkpt lat="46.10039" lon="5.73696">
        <ele>1233.1</ele>
        <time>2021-08-20T10:48:43Z</time>
      </trkpt>
      <trkpt lat="46.10039" lon="5.73694">
        <ele>1233.1</ele>
        <time>2021-08-20T10:48:44Z</time>
      </trkpt>
      <trkpt lat="46.1004" lon="5.73692">
        <ele>1233.2</ele>
        <time>2021-08-20T10:48:45Z</time>
      </trkpt>
      <trkpt lat="46.10042" lon="5.7369">
        <ele>1233.2</ele>
        <time>2021-08-20T10:48:47Z</time>
      </trkpt>
      <trkpt lat="46.10012" lon="5.7368">
        <ele>1233.7</ele>
        <time>2021-08-20T10:49:01Z</time>
      </trkpt>
      <trkpt lat="46.10007" lon="5.73679">
        <ele>1233.8</ele>
        <time>2021-08-20T10:49:02Z</time>
      </trkpt>
      <trkpt lat="46.1" lon="5.73676">
        <ele>1233.8</ele>
        <time>2021-08-20T10:49:03Z</time>
      </trkpt>
      <trkpt lat="46.09992" lon="5.73674">
        <ele>1233.8</ele>
        <time>2021-08-20T10:49:05Z</time>
      </trkpt>
      <trkpt lat="46.09986" lon="5.73672">
        <ele>1233.7</ele>
        <time>2021-08-20T10:49:06Z</time>
      </trkpt>
      <trkpt lat="46.09976" lon="5.73669">
        <ele>1233.6</ele>
        <time>2021-08-20T10:49:07Z</time>
      </trkpt>
      <trkpt lat="46.09967" lon="5.73667">
        <ele>1233.4</ele>
        <time>2021-08-20T10:49:09Z</time>
      </trkpt>
      <trkpt lat="46.09959" lon="5.73663">
        <ele>1233.2</ele>
        <time>2021-08-20T10:49:10Z</time>
      </trkpt>
      <trkpt lat="46.09946" lon="5.73658">
        <ele>1232.8</ele>
        <time>2021-08-20T10:49:12Z</time>
      </trkpt>
      <trkpt lat="46.09932" lon="5.73654">
        <ele>1232.4</ele>
        <time>2021-08-20T10:49:13Z</time>
      </trkpt>
      <trkpt lat="46.09924" lon="5.73651">
        <ele>1232.2</ele>
        <time>2021-08-20T10:49:15Z</time>
      </trkpt>
      <trkpt lat="46.09916" lon="5.73649">
        <ele>1232.1</ele>
        <time>2021-08-20T10:49:16Z</time>
      </trkpt>
      <trkpt lat="46.0991" lon="5.73645">
        <ele>1232</ele>
        <time>2021-08-20T10:49:18Z</time>
      </trkpt>
      <trkpt lat="46.09904" lon="5.73641">
        <ele>1232</ele>
        <time>2021-08-20T10:49:19Z</time>
      </trkpt>
      <trkpt lat="46.099" lon="5.73637">
        <ele>1231.9</ele>
        <time>2021-08-20T10:49:20Z</time>
      </trkpt>
      <trkpt lat="46.09896" lon="5.73634">
        <ele>1231.9</ele>
        <time>2021-08-20T10:49:21Z</time>
      </trkpt>
      <trkpt lat="46.09893" lon="5.73631">
        <ele>1231.9</ele>
        <time>2021-08-20T10:49:22Z</time>
      </trkpt>
      <trkpt lat="46.09891" lon="5.73628">
        <ele>1231.9</ele>
        <time>2021-08-20T10:49:24Z</time>
      </trkpt>
      <trkpt lat="46.09889" lon="5.73626">
        <ele>1232</ele>
        <time>2021-08-20T10:49:25Z</time>
      </trkpt>
      <trkpt lat="46.09888" lon="5.73625">
        <ele>1232</ele>
        <time>2021-08-20T10:49:26Z</time>
      </trkpt>
      <trkpt lat="46.09888" lon="5.73625">
        <ele>1232</ele>
        <time>2021-08-20T10:49:27Z</time>
      </trkpt>
      <trkpt lat="46.09888" lon="5.73625">
        <ele>1232</ele>
        <time>2021-08-20T10:49:28Z</time>
      </trkpt>
      <trkpt lat="46.09888" lon="5.73625">
        <ele>1232</ele>
        <time>2021-08-20T10:49:30Z</time>
      </trkpt>
      <trkpt lat="46.09888" lon="5.73625">
        <ele>1232</ele>
        <time>2021-08-20T10:49:31Z</time>
      </trkpt>
      <trkpt lat="46.09888" lon="5.73625">
        <ele>1232</ele>
        <time>2021-08-20T10:49:32Z</time>
      </trkpt>
      <trkpt lat="46.09888" lon="5.73625">
        <ele>1232</ele>
        <time>2021-08-20T10:49:33Z</time>
      </trkpt>
      <trkpt lat="46.0989" lon="5.73625">
        <ele>1232</ele>
        <time>2021-08-20T10:49:34Z</time>
      </trkpt>
      <trkpt lat="46.09891" lon="5.73626">
        <ele>1232</ele>
        <time>2021-08-20T10:49:36Z</time>
      </trkpt>
      <trkpt lat="46.09724" lon="5.73582">
        <ele>1236.1</ele>
        <time>2021-08-20T10:50:36Z</time>
      </trkpt>
      <trkpt lat="46.09712" lon="5.73581">
        <ele>1235.9</ele>
        <time>2021-08-20T10:50:39Z</time>
      </trkpt>
      <trkpt lat="46.09704" lon="5.73581">
        <ele>1235.7</ele>
        <time>2021-08-20T10:50:40Z</time>
      </trkpt>
      <trkpt lat="46.09697" lon="5.73581">
        <ele>1235.6</ele>
        <time>2021-08-20T10:50:41Z</time>
      </trkpt>
      <trkpt lat="46.09691" lon="5.73582">
        <ele>1235.4</ele>
        <time>2021-08-20T10:50:43Z</time>
      </trkpt>
      <trkpt lat="46.09687" lon="5.73582">
        <ele>1235.3</ele>
        <time>2021-08-20T10:50:44Z</time>
      </trkpt>
      <trkpt lat="46.0968" lon="5.73583">
        <ele>1235.2</ele>
        <time>2021-08-20T10:50:45Z</time>
      </trkpt>
      <trkpt lat="46.09662" lon="5.73576">
        <ele>1235</ele>
        <time>2021-08-20T10:50:47Z</time>
      </trkpt>
      <trkpt lat="46.09655" lon="5.73572">
        <ele>1234.9</ele>
        <time>2021-08-20T10:50:48Z</time>
      </trkpt>
      <trkpt lat="46.09649" lon="5.73571">
        <ele>1234.9</ele>
        <time>2021-08-20T10:50:49Z</time>
      </trkpt>
      <trkpt lat="46.09644" lon="5.73569">
        <ele>1234.8</ele>
        <time>2021-08-20T10:50:50Z</time>
      </trkpt>
      <trkpt lat="46.09634" lon="5.73566">
        <ele>1234.8</ele>
        <time>2021-08-20T10:50:52Z</time>
      </trkpt>
      <trkpt lat="46.09625" lon="5.73564">
        <ele>1234.7</ele>
        <time>2021-08-20T10:50:54Z</time>
      </trkpt>
      <trkpt lat="46.09619" lon="5.73559">
        <ele>1234.7</ele>
        <time>2021-08-20T10:50:55Z</time>
      </trkpt>
      <trkpt lat="46.09615" lon="5.73558">
        <ele>1234.7</ele>
        <time>2021-08-20T10:50:56Z</time>
      </trkpt>
      <trkpt lat="46.09615" lon="5.73554">
        <ele>1234.7</ele>
        <time>2021-08-20T10:50:57Z</time>
      </trkpt>
      <trkpt lat="46.0961" lon="5.73549">
        <ele>1234.7</ele>
        <time>2021-08-20T10:50:59Z</time>
      </trkpt>
      <trkpt lat="46.09604" lon="5.7354">
        <ele>1234.7</ele>
        <time>2021-08-20T10:51:01Z</time>
      </trkpt>
      <trkpt lat="46.0959" lon="5.73525">
        <ele>1234.7</ele>
        <time>2021-08-20T10:51:03Z</time>
      </trkpt>
      <trkpt lat="46.09585" lon="5.7352">
        <ele>1234.7</ele>
        <time>2021-08-20T10:51:04Z</time>
      </trkpt>
      <trkpt lat="46.0958" lon="5.73515">
        <ele>1234.7</ele>
        <time>2021-08-20T10:51:05Z</time>
      </trkpt>
      <trkpt lat="46.09582" lon="5.73512">
        <ele>1234.7</ele>
        <time>2021-08-20T10:51:06Z</time>
      </trkpt>
      <trkpt lat="46.09579" lon="5.73505">
        <ele>1234.7</ele>
        <time>2021-08-20T10:51:07Z</time>
      </trkpt>
      <trkpt lat="46.09573" lon="5.735">
        <ele>1234.8</ele>
        <time>2021-08-20T10:51:09Z</time>
      </trkpt>
      <trkpt lat="46.09569" lon="5.73495">
        <ele>1234.9</ele>
        <time>2021-08-20T10:51:11Z</time>
      </trkpt>
      <trkpt lat="46.09567" lon="5.73491">
        <ele>1234.9</ele>
        <time>2021-08-20T10:51:12Z</time>
      </trkpt>
      <trkpt lat="46.09566" lon="5.73488">
        <ele>1235</ele>
        <time>2021-08-20T10:51:14Z</time>
      </trkpt>
      <trkpt lat="46.09567" lon="5.73487">
        <ele>1235</ele>
        <time>2021-08-20T10:51:15Z</time>
      </trkpt>
      <trkpt lat="46.09572" lon="5.73484">
        <ele>1235.2</ele>
        <time>2021-08-20T10:51:16Z</time>
      </trkpt>
      <trkpt lat="46.09576" lon="5.73483">
        <ele>1235.3</ele>
        <time>2021-08-20T10:51:17Z</time>
      </trkpt>
      <trkpt lat="46.09584" lon="5.73481">
        <ele>1235.6</ele>
        <time>2021-08-20T10:51:18Z</time>
      </trkpt>
      <trkpt lat="46.09588" lon="5.73479">
        <ele>1235.7</ele>
        <time>2021-08-20T10:51:19Z</time>
      </trkpt>
      <trkpt lat="46.0959" lon="5.73475">
        <ele>1235.8</ele>
        <time>2021-08-20T10:51:21Z</time>
      </trkpt>
      <trkpt lat="46.09591" lon="5.73474">
        <ele>1235.9</ele>
        <time>2021-08-20T10:51:22Z</time>
      </trkpt>
      <trkpt lat="46.09591" lon="5.73474">
        <ele>1235.9</ele>
        <time>2021-08-20T10:51:22Z</time>
      </trkpt>
      <trkpt lat="46.09591" lon="5.73471">
        <ele>1236</ele>
        <time>2021-08-20T10:51:23Z</time>
      </trkpt>
      <trkpt lat="46.09592" lon="5.73471">
        <ele>1236</ele>
        <time>2021-08-20T10:51:25Z</time>
      </trkpt>
      <trkpt lat="46.09592" lon="5.7347">
        <ele>1236</ele>
        <time>2021-08-20T10:51:26Z</time>
      </trkpt>
      <trkpt lat="46.09592" lon="5.73469">
        <ele>1236.1</ele>
        <time>2021-08-20T10:51:28Z</time>
      </trkpt>
      <trkpt lat="46.09591" lon="5.73468">
        <ele>1236.1</ele>
        <time>2021-08-20T10:51:30Z</time>
      </trkpt>
      <trkpt lat="46.09591" lon="5.73467">
        <ele>1236.2</ele>
        <time>2021-08-20T10:51:31Z</time>
      </trkpt>
      <trkpt lat="46.0959" lon="5.73467">
        <ele>1236.2</ele>
        <time>2021-08-20T10:51:32Z</time>
      </trkpt>
      <trkpt lat="46.09587" lon="5.73466">
        <ele>1236.3</ele>
        <time>2021-08-20T10:51:34Z</time>
      </trkpt>
      <trkpt lat="46.09586" lon="5.73466">
        <ele>1236.4</ele>
        <time>2021-08-20T10:51:35Z</time>
      </trkpt>
      <trkpt lat="46.09583" lon="5.73464">
        <ele>1236.5</ele>
        <time>2021-08-20T10:51:36Z</time>
      </trkpt>
      <trkpt lat="46.09581" lon="5.73464">
        <ele>1236.6</ele>
        <time>2021-08-20T10:51:37Z</time>
      </trkpt>
      <trkpt lat="46.09579" lon="5.73463">
        <ele>1236.7</ele>
        <time>2021-08-20T10:51:38Z</time>
      </trkpt>
      <trkpt lat="46.09573" lon="5.7346">
        <ele>1237.1</ele>
        <time>2021-08-20T10:51:39Z</time>
      </trkpt>
      <trkpt lat="46.09569" lon="5.73459">
        <ele>1237.4</ele>
        <time>2021-08-20T10:51:40Z</time>
      </trkpt>
      <trkpt lat="46.09563" lon="5.73457">
        <ele>1237.7</ele>
        <time>2021-08-20T10:51:41Z</time>
      </trkpt>
      <trkpt lat="46.09551" lon="5.73454">
        <ele>1238.4</ele>
        <time>2021-08-20T10:51:43Z</time>
      </trkpt>
      <trkpt lat="46.09543" lon="5.7345">
        <ele>1238.8</ele>
        <time>2021-08-20T10:51:44Z</time>
      </trkpt>
      <trkpt lat="46.09531" lon="5.73443">
        <ele>1239.4</ele>
        <time>2021-08-20T10:51:46Z</time>
      </trkpt>
      <trkpt lat="46.09524" lon="5.73438">
        <ele>1239.8</ele>
        <time>2021-08-20T10:51:47Z</time>
      </trkpt>
      <trkpt lat="46.09517" lon="5.73432">
        <ele>1240</ele>
        <time>2021-08-20T10:51:49Z</time>
      </trkpt>
      <trkpt lat="46.09514" lon="5.7343">
        <ele>1240.1</ele>
        <time>2021-08-20T10:51:50Z</time>
      </trkpt>
      <trkpt lat="46.09511" lon="5.73428">
        <ele>1240.2</ele>
        <time>2021-08-20T10:51:51Z</time>
      </trkpt>
      <trkpt lat="46.09508" lon="5.73425">
        <ele>1240.4</ele>
        <time>2021-08-20T10:51:52Z</time>
      </trkpt>
      <trkpt lat="46.09506" lon="5.73423">
        <ele>1240.5</ele>
        <time>2021-08-20T10:51:53Z</time>
      </trkpt>
      <trkpt lat="46.09503" lon="5.73423">
        <ele>1240.9</ele>
        <time>2021-08-20T10:51:54Z</time>
      </trkpt>
      <trkpt lat="46.09502" lon="5.73423">
        <ele>1241</ele>
        <time>2021-08-20T10:51:55Z</time>
      </trkpt>
      <trkpt lat="46.095" lon="5.73427">
        <ele>1241.2</ele>
        <time>2021-08-20T10:51:57Z</time>
      </trkpt>
      <trkpt lat="46.09497" lon="5.73429">
        <ele>1241.4</ele>
        <time>2021-08-20T10:51:58Z</time>
      </trkpt>
      <trkpt lat="46.09494" lon="5.73432">
        <ele>1241.6</ele>
        <time>2021-08-20T10:52:00Z</time>
      </trkpt>
      <trkpt lat="46.09492" lon="5.73432">
        <ele>1241.7</ele>
        <time>2021-08-20T10:52:01Z</time>
      </trkpt>
      <trkpt lat="46.0949" lon="5.73432">
        <ele>1241.9</ele>
        <time>2021-08-20T10:52:03Z</time>
      </trkpt>
      <trkpt lat="46.09489" lon="5.73432">
        <ele>1241.9</ele>
        <time>2021-08-20T10:52:04Z</time>
      </trkpt>
      <trkpt lat="46.09487" lon="5.73431">
        <ele>1242</ele>
        <time>2021-08-20T10:52:06Z</time>
      </trkpt>
      <trkpt lat="46.09486" lon="5.7343">
        <ele>1242.1</ele>
        <time>2021-08-20T10:52:07Z</time>
      </trkpt>
      <trkpt lat="46.09485" lon="5.7343">
        <ele>1242.1</ele>
        <time>2021-08-20T10:52:08Z</time>
      </trkpt>
      <trkpt lat="46.09485" lon="5.73429">
        <ele>1242.2</ele>
        <time>2021-08-20T10:52:10Z</time>
      </trkpt>
      <trkpt lat="46.09484" lon="5.73427">
        <ele>1242.3</ele>
        <time>2021-08-20T10:52:11Z</time>
      </trkpt>
      <trkpt lat="46.09482" lon="5.73425">
        <ele>1242.4</ele>
        <time>2021-08-20T10:52:12Z</time>
      </trkpt>
      <trkpt lat="46.09482" lon="5.73424">
        <ele>1242.5</ele>
        <time>2021-08-20T10:52:14Z</time>
      </trkpt>
      <trkpt lat="46.09483" lon="5.73423">
        <ele>1242.5</ele>
        <time>2021-08-20T10:52:15Z</time>
      </trkpt>
      <trkpt lat="46.09483" lon="5.7342">
        <ele>1242.6</ele>
        <time>2021-08-20T10:52:16Z</time>
      </trkpt>
      <trkpt lat="46.09482" lon="5.73418">
        <ele>1242.7</ele>
        <time>2021-08-20T10:52:18Z</time>
      </trkpt>
      <trkpt lat="46.09481" lon="5.73416">
        <ele>1242.7</ele>
        <time>2021-08-20T10:52:19Z</time>
      </trkpt>
      <trkpt lat="46.09479" lon="5.73413">
        <ele>1242.9</ele>
        <time>2021-08-20T10:52:21Z</time>
      </trkpt>
      <trkpt lat="46.09478" lon="5.73412">
        <ele>1242.9</ele>
        <time>2021-08-20T10:52:22Z</time>
      </trkpt>
      <trkpt lat="46.09474" lon="5.73409">
        <ele>1243.1</ele>
        <time>2021-08-20T10:52:24Z</time>
      </trkpt>
      <trkpt lat="46.09472" lon="5.73406">
        <ele>1243.2</ele>
        <time>2021-08-20T10:52:26Z</time>
      </trkpt>
      <trkpt lat="46.09469" lon="5.73408">
        <ele>1243.3</ele>
        <time>2021-08-20T10:52:27Z</time>
      </trkpt>
      <trkpt lat="46.09469" lon="5.73409">
        <ele>1243.4</ele>
        <time>2021-08-20T10:52:29Z</time>
      </trkpt>
      <trkpt lat="46.09467" lon="5.73409">
        <ele>1243.4</ele>
        <time>2021-08-20T10:52:31Z</time>
      </trkpt>
      <trkpt lat="46.09466" lon="5.73409">
        <ele>1243.5</ele>
        <time>2021-08-20T10:52:33Z</time>
      </trkpt>
      <trkpt lat="46.09465" lon="5.73409">
        <ele>1243.5</ele>
        <time>2021-08-20T10:52:35Z</time>
      </trkpt>
      <trkpt lat="46.09409" lon="5.73388">
        <ele>1245</ele>
        <time>2021-08-20T10:53:15Z</time>
      </trkpt>
      <trkpt lat="46.09406" lon="5.73386">
        <ele>1245.1</ele>
        <time>2021-08-20T10:53:17Z</time>
      </trkpt>
      <trkpt lat="46.09401" lon="5.73385">
        <ele>1245.2</ele>
        <time>2021-08-20T10:53:18Z</time>
      </trkpt>
      <trkpt lat="46.09396" lon="5.73383">
        <ele>1245.3</ele>
        <time>2021-08-20T10:53:19Z</time>
      </trkpt>
      <trkpt lat="46.0939" lon="5.73382">
        <ele>1245.4</ele>
        <time>2021-08-20T10:53:21Z</time>
      </trkpt>
      <trkpt lat="46.09386" lon="5.73382">
        <ele>1245.5</ele>
        <time>2021-08-20T10:53:22Z</time>
      </trkpt>
      <trkpt lat="46.09383" lon="5.73382">
        <ele>1245.5</ele>
        <time>2021-08-20T10:53:23Z</time>
      </trkpt>
      <trkpt lat="46.09377" lon="5.7338">
        <ele>1245.7</ele>
        <time>2021-08-20T10:53:25Z</time>
      </trkpt>
      <trkpt lat="46.09375" lon="5.73379">
        <ele>1245.8</ele>
        <time>2021-08-20T10:53:26Z</time>
      </trkpt>
      <trkpt lat="46.09374" lon="5.73378">
        <ele>1245.8</ele>
        <time>2021-08-20T10:53:28Z</time>
      </trkpt>
      <trkpt lat="46.09373" lon="5.73377">
        <ele>1245.8</ele>
        <time>2021-08-20T10:53:29Z</time>
      </trkpt>
      <trkpt lat="46.09372" lon="5.73377">
        <ele>1245.8</ele>
        <time>2021-08-20T10:53:30Z</time>
      </trkpt>
      <trkpt lat="46.09371" lon="5.73376">
        <ele>1245.9</ele>
        <time>2021-08-20T10:53:31Z</time>
      </trkpt>
      <trkpt lat="46.09369" lon="5.73374">
        <ele>1245.9</ele>
        <time>2021-08-20T10:53:33Z</time>
      </trkpt>
      <trkpt lat="46.09349" lon="5.73341">
        <ele>1246.7</ele>
        <time>2021-08-20T10:53:39Z</time>
      </trkpt>
      <trkpt lat="46.09345" lon="5.73337">
        <ele>1246.8</ele>
        <time>2021-08-20T10:53:40Z</time>
      </trkpt>
      <trkpt lat="46.09341" lon="5.73332">
        <ele>1247</ele>
        <time>2021-08-20T10:53:41Z</time>
      </trkpt>
      <trkpt lat="46.09337" lon="5.73329">
        <ele>1247.1</ele>
        <time>2021-08-20T10:53:42Z</time>
      </trkpt>
      <trkpt lat="46.09335" lon="5.73327">
        <ele>1247.1</ele>
        <time>2021-08-20T10:53:43Z</time>
      </trkpt>
      <trkpt lat="46.09331" lon="5.73323">
        <ele>1247.2</ele>
        <time>2021-08-20T10:53:44Z</time>
      </trkpt>
      <trkpt lat="46.09327" lon="5.73319">
        <ele>1247.4</ele>
        <time>2021-08-20T10:53:46Z</time>
      </trkpt>
      <trkpt lat="46.09323" lon="5.73313">
        <ele>1247.5</ele>
        <time>2021-08-20T10:53:47Z</time>
      </trkpt>
      <trkpt lat="46.09319" lon="5.73307">
        <ele>1247.7</ele>
        <time>2021-08-20T10:53:49Z</time>
      </trkpt>
      <trkpt lat="46.09318" lon="5.73304">
        <ele>1247.7</ele>
        <time>2021-08-20T10:53:50Z</time>
      </trkpt>
      <trkpt lat="46.09316" lon="5.733">
        <ele>1247.8</ele>
        <time>2021-08-20T10:53:51Z</time>
      </trkpt>
      <trkpt lat="46.09314" lon="5.73296">
        <ele>1247.9</ele>
        <time>2021-08-20T10:53:52Z</time>
      </trkpt>
      <trkpt lat="46.09311" lon="5.73293">
        <ele>1248</ele>
        <time>2021-08-20T10:53:54Z</time>
      </trkpt>
      <trkpt lat="46.0931" lon="5.73292">
        <ele>1248</ele>
        <time>2021-08-20T10:53:55Z</time>
      </trkpt>
      <trkpt lat="46.09307" lon="5.7329">
        <ele>1248.1</ele>
        <time>2021-08-20T10:53:56Z</time>
      </trkpt>
      <trkpt lat="46.09307" lon="5.73289">
        <ele>1248.1</ele>
        <time>2021-08-20T10:53:57Z</time>
      </trkpt>
      <trkpt lat="46.09303" lon="5.73289">
        <ele>1248.2</ele>
        <time>2021-08-20T10:53:59Z</time>
      </trkpt>
      <trkpt lat="46.09301" lon="5.73289">
        <ele>1248.3</ele>
        <time>2021-08-20T10:54:00Z</time>
      </trkpt>
      <trkpt lat="46.09298" lon="5.73289">
        <ele>1248.3</ele>
        <time>2021-08-20T10:54:01Z</time>
      </trkpt>
      <trkpt lat="46.09297" lon="5.73291">
        <ele>1248.4</ele>
        <time>2021-08-20T10:54:02Z</time>
      </trkpt>
      <trkpt lat="46.09297" lon="5.73294">
        <ele>1248.4</ele>
        <time>2021-08-20T10:54:04Z</time>
      </trkpt>
      <trkpt lat="46.09298" lon="5.73296">
        <ele>1248.5</ele>
        <time>2021-08-20T10:54:05Z</time>
      </trkpt>
      <trkpt lat="46.09298" lon="5.73298">
        <ele>1248.5</ele>
        <time>2021-08-20T10:54:06Z</time>
      </trkpt>
      <trkpt lat="46.09297" lon="5.73299">
        <ele>1248.5</ele>
        <time>2021-08-20T10:54:08Z</time>
      </trkpt>
      <trkpt lat="46.09297" lon="5.733">
        <ele>1248.5</ele>
        <time>2021-08-20T10:54:10Z</time>
      </trkpt>
      <trkpt lat="46.09296" lon="5.733">
        <ele>1248.5</ele>
        <time>2021-08-20T10:54:11Z</time>
      </trkpt>
      <trkpt lat="46.0929" lon="5.73303">
        <ele>1248.7</ele>
        <time>2021-08-20T10:54:12Z</time>
      </trkpt>
      <trkpt lat="46.09285" lon="5.73307">
        <ele>1248.8</ele>
        <time>2021-08-20T10:54:20Z</time>
      </trkpt>
      <trkpt lat="46.0928" lon="5.7331">
        <ele>1248.8</ele>
        <time>2021-08-20T10:54:21Z</time>
      </trkpt>
      <trkpt lat="46.09273" lon="5.73313">
        <ele>1248.8</ele>
        <time>2021-08-20T10:54:23Z</time>
      </trkpt>
      <trkpt lat="46.09268" lon="5.73314">
        <ele>1248.8</ele>
        <time>2021-08-20T10:54:24Z</time>
      </trkpt>
      <trkpt lat="46.0926" lon="5.73315">
        <ele>1248.6</ele>
        <time>2021-08-20T10:54:25Z</time>
      </trkpt>
      <trkpt lat="46.09254" lon="5.73317">
        <ele>1248.5</ele>
        <time>2021-08-20T10:54:27Z</time>
      </trkpt>
      <trkpt lat="46.09249" lon="5.73317">
        <ele>1248.4</ele>
        <time>2021-08-20T10:54:28Z</time>
      </trkpt>
      <trkpt lat="46.09245" lon="5.73316">
        <ele>1248.3</ele>
        <time>2021-08-20T10:54:29Z</time>
      </trkpt>
      <trkpt lat="46.0924" lon="5.73315">
        <ele>1248.2</ele>
        <time>2021-08-20T10:54:30Z</time>
      </trkpt>
      <trkpt lat="46.09232" lon="5.73316">
        <ele>1248</ele>
        <time>2021-08-20T10:54:31Z</time>
      </trkpt>
      <trkpt lat="46.09227" lon="5.73315">
        <ele>1247.9</ele>
        <time>2021-08-20T10:54:33Z</time>
      </trkpt>
      <trkpt lat="46.09215" lon="5.73313">
        <ele>1247.7</ele>
        <time>2021-08-20T10:54:35Z</time>
      </trkpt>
      <trkpt lat="46.0921" lon="5.73311">
        <ele>1247.6</ele>
        <time>2021-08-20T10:54:36Z</time>
      </trkpt>
      <trkpt lat="46.09202" lon="5.73307">
        <ele>1247.6</ele>
        <time>2021-08-20T10:54:37Z</time>
      </trkpt>
      <trkpt lat="46.09195" lon="5.73304">
        <ele>1247.6</ele>
        <time>2021-08-20T10:54:39Z</time>
      </trkpt>
      <trkpt lat="46.09184" lon="5.73301">
        <ele>1247.6</ele>
        <time>2021-08-20T10:54:41Z</time>
      </trkpt>
      <trkpt lat="46.09179" lon="5.733">
        <ele>1247.7</ele>
        <time>2021-08-20T10:54:42Z</time>
      </trkpt>
      <trkpt lat="46.09172" lon="5.73299">
        <ele>1247.8</ele>
        <time>2021-08-20T10:54:43Z</time>
      </trkpt>
      <trkpt lat="46.09163" lon="5.73295">
        <ele>1247.9</ele>
        <time>2021-08-20T10:54:45Z</time>
      </trkpt>
      <trkpt lat="46.09154" lon="5.73292">
        <ele>1248.2</ele>
        <time>2021-08-20T10:54:47Z</time>
      </trkpt>
      <trkpt lat="46.09147" lon="5.73291">
        <ele>1248.5</ele>
        <time>2021-08-20T10:54:49Z</time>
      </trkpt>
      <trkpt lat="46.09143" lon="5.7329">
        <ele>1248.6</ele>
        <time>2021-08-20T10:54:50Z</time>
      </trkpt>
      <trkpt lat="46.0914" lon="5.73288">
        <ele>1248.8</ele>
        <time>2021-08-20T10:54:51Z</time>
      </trkpt>
      <trkpt lat="46.09137" lon="5.73286">
        <ele>1249</ele>
        <time>2021-08-20T10:54:52Z</time>
      </trkpt>
      <trkpt lat="46.09134" lon="5.73285">
        <ele>1249.1</ele>
        <time>2021-08-20T10:54:53Z</time>
      </trkpt>
      <trkpt lat="46.09131" lon="5.73283">
        <ele>1249.2</ele>
        <time>2021-08-20T10:54:54Z</time>
      </trkpt>
      <trkpt lat="46.09128" lon="5.73281">
        <ele>1249.4</ele>
        <time>2021-08-20T10:54:55Z</time>
      </trkpt>
      <trkpt lat="46.09126" lon="5.7328">
        <ele>1249.5</ele>
        <time>2021-08-20T10:54:57Z</time>
      </trkpt>
      <trkpt lat="46.09125" lon="5.7328">
        <ele>1249.6</ele>
        <time>2021-08-20T10:54:58Z</time>
      </trkpt>
      <trkpt lat="46.09125" lon="5.73279">
        <ele>1249.6</ele>
        <time>2021-08-20T10:55:00Z</time>
      </trkpt>
      <trkpt lat="46.09124" lon="5.73279">
        <ele>1249.6</ele>
        <time>2021-08-20T10:55:02Z</time>
      </trkpt>
      <trkpt lat="46.09124" lon="5.73279">
        <ele>1249.7</ele>
        <time>2021-08-20T10:55:03Z</time>
      </trkpt>
      <trkpt lat="46.09123" lon="5.73279">
        <ele>1249.7</ele>
        <time>2021-08-20T10:55:05Z</time>
      </trkpt>
      <trkpt lat="46.09123" lon="5.73279">
        <ele>1249.7</ele>
        <time>2021-08-20T10:55:06Z</time>
      </trkpt>
      <trkpt lat="46.09123" lon="5.73279">
        <ele>1249.7</ele>
        <time>2021-08-20T10:55:07Z</time>
      </trkpt>
      <trkpt lat="46.091" lon="5.73265">
        <ele>1251.1</ele>
        <time>2021-08-20T10:55:35Z</time>
      </trkpt>
      <trkpt lat="46.09098" lon="5.73264">
        <ele>1251.3</ele>
        <time>2021-08-20T10:55:36Z</time>
      </trkpt>
      <trkpt lat="46.09095" lon="5.73262">
        <ele>1251.5</ele>
        <time>2021-08-20T10:55:38Z</time>
      </trkpt>
      <trkpt lat="46.09094" lon="5.73261">
        <ele>1251.6</ele>
        <time>2021-08-20T10:55:39Z</time>
      </trkpt>
      <trkpt lat="46.09093" lon="5.7326">
        <ele>1251.7</ele>
        <time>2021-08-20T10:55:40Z</time>
      </trkpt>
      <trkpt lat="46.09091" lon="5.73259">
        <ele>1251.8</ele>
        <time>2021-08-20T10:55:42Z</time>
      </trkpt>
      <trkpt lat="46.0909" lon="5.73259">
        <ele>1251.9</ele>
        <time>2021-08-20T10:55:43Z</time>
      </trkpt>
      <trkpt lat="46.09088" lon="5.73261">
        <ele>1252</ele>
        <time>2021-08-20T10:55:44Z</time>
      </trkpt>
      <trkpt lat="46.09088" lon="5.73262">
        <ele>1252.1</ele>
        <time>2021-08-20T10:55:45Z</time>
      </trkpt>
      <trkpt lat="46.09087" lon="5.73264">
        <ele>1252.2</ele>
        <time>2021-08-20T10:55:47Z</time>
      </trkpt>
      <trkpt lat="46.09087" lon="5.73264">
        <ele>1252.2</ele>
        <time>2021-08-20T10:55:48Z</time>
      </trkpt>
      <trkpt lat="46.09087" lon="5.73264">
        <ele>1252.2</ele>
        <time>2021-08-20T10:55:50Z</time>
      </trkpt>
      <trkpt lat="46.09087" lon="5.73264">
        <ele>1252.3</ele>
        <time>2021-08-20T10:55:51Z</time>
      </trkpt>
      <trkpt lat="46.09087" lon="5.73264">
        <ele>1252.3</ele>
        <time>2021-08-20T10:55:53Z</time>
      </trkpt>
      <trkpt lat="46.0908" lon="5.73252">
        <ele>1253.1</ele>
        <time>2021-08-20T10:56:22Z</time>
      </trkpt>
      <trkpt lat="46.09077" lon="5.73252">
        <ele>1253.4</ele>
        <time>2021-08-20T10:56:24Z</time>
      </trkpt>
      <trkpt lat="46.09076" lon="5.73252">
        <ele>1253.5</ele>
        <time>2021-08-20T10:56:25Z</time>
      </trkpt>
      <trkpt lat="46.09074" lon="5.73252">
        <ele>1253.7</ele>
        <time>2021-08-20T10:56:26Z</time>
      </trkpt>
      <trkpt lat="46.09072" lon="5.73252">
        <ele>1253.9</ele>
        <time>2021-08-20T10:56:28Z</time>
      </trkpt>
      <trkpt lat="46.09071" lon="5.73252">
        <ele>1254</ele>
        <time>2021-08-20T10:56:29Z</time>
      </trkpt>
      <trkpt lat="46.09068" lon="5.73251">
        <ele>1254.3</ele>
        <time>2021-08-20T10:56:30Z</time>
      </trkpt>
      <trkpt lat="46.09067" lon="5.73251">
        <ele>1254.4</ele>
        <time>2021-08-20T10:56:31Z</time>
      </trkpt>
      <trkpt lat="46.09066" lon="5.73251">
        <ele>1254.4</ele>
        <time>2021-08-20T10:56:33Z</time>
      </trkpt>
      <trkpt lat="46.09065" lon="5.7325">
        <ele>1254.6</ele>
        <time>2021-08-20T10:56:34Z</time>
      </trkpt>
      <trkpt lat="46.09064" lon="5.73249">
        <ele>1254.7</ele>
        <time>2021-08-20T10:56:35Z</time>
      </trkpt>
      <trkpt lat="46.09062" lon="5.73248">
        <ele>1254.9</ele>
        <time>2021-08-20T10:56:36Z</time>
      </trkpt>
      <trkpt lat="46.0906" lon="5.73247">
        <ele>1255</ele>
        <time>2021-08-20T10:56:37Z</time>
      </trkpt>
      <trkpt lat="46.09058" lon="5.73246">
        <ele>1255.3</ele>
        <time>2021-08-20T10:56:39Z</time>
      </trkpt>
      <trkpt lat="46.09057" lon="5.73246">
        <ele>1255.4</ele>
        <time>2021-08-20T10:56:40Z</time>
      </trkpt>
      <trkpt lat="46.09056" lon="5.73246">
        <ele>1255.4</ele>
        <time>2021-08-20T10:56:42Z</time>
      </trkpt>
      <trkpt lat="46.09056" lon="5.73246">
        <ele>1255.5</ele>
        <time>2021-08-20T10:56:43Z</time>
      </trkpt>
      <trkpt lat="46.09053" lon="5.73246">
        <ele>1255.7</ele>
        <time>2021-08-20T10:56:45Z</time>
      </trkpt>
      <trkpt lat="46.0905" lon="5.73246">
        <ele>1256</ele>
        <time>2021-08-20T10:56:46Z</time>
      </trkpt>
      <trkpt lat="46.09049" lon="5.73246">
        <ele>1256.1</ele>
        <time>2021-08-20T10:56:47Z</time>
      </trkpt>
      <trkpt lat="46.09048" lon="5.73246">
        <ele>1256.1</ele>
        <time>2021-08-20T10:56:48Z</time>
      </trkpt>
      <trkpt lat="46.09048" lon="5.73246">
        <ele>1256.2</ele>
        <time>2021-08-20T10:56:50Z</time>
      </trkpt>
      <trkpt lat="46.09047" lon="5.73246">
        <ele>1256.2</ele>
        <time>2021-08-20T10:56:51Z</time>
      </trkpt>
      <trkpt lat="46.09047" lon="5.73246">
        <ele>1256.3</ele>
        <time>2021-08-20T10:56:52Z</time>
      </trkpt>
      <trkpt lat="46.09047" lon="5.73246">
        <ele>1256.3</ele>
        <time>2021-08-20T10:56:53Z</time>
      </trkpt>
      <trkpt lat="46.09047" lon="5.73246">
        <ele>1256.3</ele>
        <time>2021-08-20T10:56:54Z</time>
      </trkpt>
      <trkpt lat="46.09046" lon="5.73246">
        <ele>1256.3</ele>
        <time>2021-08-20T10:56:56Z</time>
      </trkpt>
      <trkpt lat="46.09045" lon="5.73246">
        <ele>1256.5</ele>
        <time>2021-08-20T10:56:57Z</time>
      </trkpt>
      <trkpt lat="46.09043" lon="5.73246">
        <ele>1256.6</ele>
        <time>2021-08-20T10:56:58Z</time>
      </trkpt>
      <trkpt lat="46.09042" lon="5.73245">
        <ele>1256.7</ele>
        <time>2021-08-20T10:56:59Z</time>
      </trkpt>
      <trkpt lat="46.09041" lon="5.73244">
        <ele>1256.8</ele>
        <time>2021-08-20T10:57:00Z</time>
      </trkpt>
      <trkpt lat="46.0904" lon="5.73243">
        <ele>1256.9</ele>
        <time>2021-08-20T10:57:01Z</time>
      </trkpt>
      <trkpt lat="46.09039" lon="5.73243">
        <ele>1257</ele>
        <time>2021-08-20T10:57:03Z</time>
      </trkpt>
      <trkpt lat="46.09034" lon="5.73241">
        <ele>1257.4</ele>
        <time>2021-08-20T10:57:06Z</time>
      </trkpt>
      <trkpt lat="46.09031" lon="5.73241">
        <ele>1257.6</ele>
        <time>2021-08-20T10:57:07Z</time>
      </trkpt>
      <trkpt lat="46.0903" lon="5.7324">
        <ele>1257.7</ele>
        <time>2021-08-20T10:57:09Z</time>
      </trkpt>
      <trkpt lat="46.09027" lon="5.7324">
        <ele>1257.9</ele>
        <time>2021-08-20T10:57:10Z</time>
      </trkpt>
      <trkpt lat="46.09025" lon="5.73239">
        <ele>1258.1</ele>
        <time>2021-08-20T10:57:12Z</time>
      </trkpt>
      <trkpt lat="46.09024" lon="5.73239">
        <ele>1258.2</ele>
        <time>2021-08-20T10:57:13Z</time>
      </trkpt>
      <trkpt lat="46.09022" lon="5.73238">
        <ele>1258.4</ele>
        <time>2021-08-20T10:57:14Z</time>
      </trkpt>
      <trkpt lat="46.0902" lon="5.73237">
        <ele>1258.5</ele>
        <time>2021-08-20T10:57:16Z</time>
      </trkpt>
      <trkpt lat="46.09019" lon="5.73236">
        <ele>1258.6</ele>
        <time>2021-08-20T10:57:17Z</time>
      </trkpt>
      <trkpt lat="46.09019" lon="5.73235">
        <ele>1258.6</ele>
        <time>2021-08-20T10:57:18Z</time>
      </trkpt>
      <trkpt lat="46.09018" lon="5.73235">
        <ele>1258.6</ele>
        <time>2021-08-20T10:57:19Z</time>
      </trkpt>
      <trkpt lat="46.09018" lon="5.73235">
        <ele>1258.7</ele>
        <time>2021-08-20T10:57:20Z</time>
      </trkpt>
      <trkpt lat="46.09017" lon="5.73235">
        <ele>1258.8</ele>
        <time>2021-08-20T10:57:22Z</time>
      </trkpt>
      <trkpt lat="46.09016" lon="5.73234">
        <ele>1258.8</ele>
        <time>2021-08-20T10:57:23Z</time>
      </trkpt>
      <trkpt lat="46.09015" lon="5.73235">
        <ele>1258.9</ele>
        <time>2021-08-20T10:57:24Z</time>
      </trkpt>
      <trkpt lat="46.09014" lon="5.73234">
        <ele>1258.9</ele>
        <time>2021-08-20T10:57:25Z</time>
      </trkpt>
      <trkpt lat="46.09014" lon="5.73234">
        <ele>1259</ele>
        <time>2021-08-20T10:57:26Z</time>
      </trkpt>
      <trkpt lat="46.09013" lon="5.73234">
        <ele>1259</ele>
        <time>2021-08-20T10:57:28Z</time>
      </trkpt>
      <trkpt lat="46.09011" lon="5.73234">
        <ele>1259.1</ele>
        <time>2021-08-20T10:57:29Z</time>
      </trkpt>
      <trkpt lat="46.0901" lon="5.73234">
        <ele>1259.2</ele>
        <time>2021-08-20T10:57:31Z</time>
      </trkpt>
      <trkpt lat="46.09008" lon="5.73234">
        <ele>1259.3</ele>
        <time>2021-08-20T10:57:32Z</time>
      </trkpt>
      <trkpt lat="46.09007" lon="5.73233">
        <ele>1259.4</ele>
        <time>2021-08-20T10:57:33Z</time>
      </trkpt>
      <trkpt lat="46.09005" lon="5.73233">
        <ele>1259.5</ele>
        <time>2021-08-20T10:57:35Z</time>
      </trkpt>
      <trkpt lat="46.08988" lon="5.73234">
        <ele>1260.2</ele>
        <time>2021-08-20T10:57:48Z</time>
      </trkpt>
      <trkpt lat="46.08985" lon="5.73234">
        <ele>1260.3</ele>
        <time>2021-08-20T10:57:49Z</time>
      </trkpt>
      <trkpt lat="46.08982" lon="5.73233">
        <ele>1260.3</ele>
        <time>2021-08-20T10:57:50Z</time>
      </trkpt>
      <trkpt lat="46.08977" lon="5.73233">
        <ele>1260.4</ele>
        <time>2021-08-20T10:57:51Z</time>
      </trkpt>
      <trkpt lat="46.08972" lon="5.73233">
        <ele>1260.4</ele>
        <time>2021-08-20T10:57:52Z</time>
      </trkpt>
      <trkpt lat="46.08967" lon="5.73233">
        <ele>1260.4</ele>
        <time>2021-08-20T10:57:54Z</time>
      </trkpt>
      <trkpt lat="46.08963" lon="5.73233">
        <ele>1260.4</ele>
        <time>2021-08-20T10:57:55Z</time>
      </trkpt>
      <trkpt lat="46.08962" lon="5.73233">
        <ele>1260.3</ele>
        <time>2021-08-20T10:57:56Z</time>
      </trkpt>
      <trkpt lat="46.08956" lon="5.73232">
        <ele>1260.3</ele>
        <time>2021-08-20T10:57:58Z</time>
      </trkpt>
      <trkpt lat="46.08952" lon="5.73231">
        <ele>1260.2</ele>
        <time>2021-08-20T10:57:59Z</time>
      </trkpt>
      <trkpt lat="46.08946" lon="5.7323">
        <ele>1260.2</ele>
        <time>2021-08-20T10:58:00Z</time>
      </trkpt>
      <trkpt lat="46.08941" lon="5.7323">
        <ele>1260.1</ele>
        <time>2021-08-20T10:58:02Z</time>
      </trkpt>
      <trkpt lat="46.08935" lon="5.73229">
        <ele>1260.1</ele>
        <time>2021-08-20T10:58:03Z</time>
      </trkpt>
      <trkpt lat="46.08931" lon="5.73228">
        <ele>1260</ele>
        <time>2021-08-20T10:58:05Z</time>
      </trkpt>
      <trkpt lat="46.08927" lon="5.73226">
        <ele>1260</ele>
        <time>2021-08-20T10:58:06Z</time>
      </trkpt>
      <trkpt lat="46.0892" lon="5.73224">
        <ele>1259.9</ele>
        <time>2021-08-20T10:58:07Z</time>
      </trkpt>
      <trkpt lat="46.08916" lon="5.73224">
        <ele>1259.8</ele>
        <time>2021-08-20T10:58:09Z</time>
      </trkpt>
      <trkpt lat="46.08912" lon="5.73224">
        <ele>1259.8</ele>
        <time>2021-08-20T10:58:10Z</time>
      </trkpt>
      <trkpt lat="46.08904" lon="5.73222">
        <ele>1259.6</ele>
        <time>2021-08-20T10:58:12Z</time>
      </trkpt>
      <trkpt lat="46.08899" lon="5.73221">
        <ele>1259.6</ele>
        <time>2021-08-20T10:58:13Z</time>
      </trkpt>
      <trkpt lat="46.08894" lon="5.7322">
        <ele>1259.5</ele>
        <time>2021-08-20T10:58:14Z</time>
      </trkpt>
      <trkpt lat="46.0889" lon="5.73218">
        <ele>1259.4</ele>
        <time>2021-08-20T10:58:16Z</time>
      </trkpt>
      <trkpt lat="46.08887" lon="5.73217">
        <ele>1259.4</ele>
        <time>2021-08-20T10:58:17Z</time>
      </trkpt>
      <trkpt lat="46.08879" lon="5.73216">
        <ele>1259.3</ele>
        <time>2021-08-20T10:58:19Z</time>
      </trkpt>
      <trkpt lat="46.08874" lon="5.73214">
        <ele>1259.2</ele>
        <time>2021-08-20T10:58:20Z</time>
      </trkpt>
      <trkpt lat="46.0887" lon="5.73213">
        <ele>1259.2</ele>
        <time>2021-08-20T10:58:21Z</time>
      </trkpt>
      <trkpt lat="46.08863" lon="5.73209">
        <ele>1259.1</ele>
        <time>2021-08-20T10:58:23Z</time>
      </trkpt>
      <trkpt lat="46.08858" lon="5.73208">
        <ele>1259</ele>
        <time>2021-08-20T10:58:24Z</time>
      </trkpt>
      <trkpt lat="46.0885" lon="5.73208">
        <ele>1258.9</ele>
        <time>2021-08-20T10:58:26Z</time>
      </trkpt>
      <trkpt lat="46.08845" lon="5.73208">
        <ele>1258.9</ele>
        <time>2021-08-20T10:58:27Z</time>
      </trkpt>
      <trkpt lat="46.0884" lon="5.73206">
        <ele>1258.8</ele>
        <time>2021-08-20T10:58:28Z</time>
      </trkpt>
      <trkpt lat="46.08834" lon="5.73204">
        <ele>1258.7</ele>
        <time>2021-08-20T10:58:30Z</time>
      </trkpt>
      <trkpt lat="46.08831" lon="5.73202">
        <ele>1258.7</ele>
        <time>2021-08-20T10:58:31Z</time>
      </trkpt>
      <trkpt lat="46.08827" lon="5.732">
        <ele>1258.6</ele>
        <time>2021-08-20T10:58:32Z</time>
      </trkpt>
      <trkpt lat="46.0882" lon="5.73199">
        <ele>1258.5</ele>
        <time>2021-08-20T10:58:33Z</time>
      </trkpt>
      <trkpt lat="46.08816" lon="5.73198">
        <ele>1258.4</ele>
        <time>2021-08-20T10:58:35Z</time>
      </trkpt>
      <trkpt lat="46.08813" lon="5.73196">
        <ele>1258.3</ele>
        <time>2021-08-20T10:58:36Z</time>
      </trkpt>
      <trkpt lat="46.08806" lon="5.73194">
        <ele>1258.3</ele>
        <time>2021-08-20T10:58:38Z</time>
      </trkpt>
      <trkpt lat="46.08802" lon="5.73194">
        <ele>1258.3</ele>
        <time>2021-08-20T10:58:39Z</time>
      </trkpt>
      <trkpt lat="46.08796" lon="5.73192">
        <ele>1258.3</ele>
        <time>2021-08-20T10:58:40Z</time>
      </trkpt>
      <trkpt lat="46.08789" lon="5.7319">
        <ele>1258.2</ele>
        <time>2021-08-20T10:58:42Z</time>
      </trkpt>
      <trkpt lat="46.08785" lon="5.73189">
        <ele>1258.2</ele>
        <time>2021-08-20T10:58:43Z</time>
      </trkpt>
      <trkpt lat="46.08779" lon="5.73189">
        <ele>1258.2</ele>
        <time>2021-08-20T10:58:44Z</time>
      </trkpt>
      <trkpt lat="46.08772" lon="5.73186">
        <ele>1258.1</ele>
        <time>2021-08-20T10:58:46Z</time>
      </trkpt>
      <trkpt lat="46.08767" lon="5.73184">
        <ele>1257.9</ele>
        <time>2021-08-20T10:58:47Z</time>
      </trkpt>
      <trkpt lat="46.08762" lon="5.73183">
        <ele>1257.8</ele>
        <time>2021-08-20T10:58:48Z</time>
      </trkpt>
      <trkpt lat="46.08757" lon="5.73182">
        <ele>1257.7</ele>
        <time>2021-08-20T10:58:49Z</time>
      </trkpt>
      <trkpt lat="46.08753" lon="5.7318">
        <ele>1257.6</ele>
        <time>2021-08-20T10:58:50Z</time>
      </trkpt>
      <trkpt lat="46.08748" lon="5.73178">
        <ele>1257.5</ele>
        <time>2021-08-20T10:58:51Z</time>
      </trkpt>
      <trkpt lat="46.0874" lon="5.73176">
        <ele>1257.5</ele>
        <time>2021-08-20T10:58:53Z</time>
      </trkpt>
      <trkpt lat="46.08735" lon="5.73174">
        <ele>1257.5</ele>
        <time>2021-08-20T10:58:54Z</time>
      </trkpt>
      <trkpt lat="46.08733" lon="5.73172">
        <ele>1257.5</ele>
        <time>2021-08-20T10:58:55Z</time>
      </trkpt>
      <trkpt lat="46.08726" lon="5.73171">
        <ele>1257.5</ele>
        <time>2021-08-20T10:58:57Z</time>
      </trkpt>
      <trkpt lat="46.08719" lon="5.7317">
        <ele>1257.5</ele>
        <time>2021-08-20T10:58:58Z</time>
      </trkpt>
      <trkpt lat="46.08715" lon="5.7317">
        <ele>1257.6</ele>
        <time>2021-08-20T10:58:59Z</time>
      </trkpt>
      <trkpt lat="46.0871" lon="5.7317">
        <ele>1257.6</ele>
        <time>2021-08-20T10:59:00Z</time>
      </trkpt>
      <trkpt lat="46.08705" lon="5.73169">
        <ele>1257.6</ele>
        <time>2021-08-20T10:59:02Z</time>
      </trkpt>
      <trkpt lat="46.08701" lon="5.73167">
        <ele>1257.7</ele>
        <time>2021-08-20T10:59:03Z</time>
      </trkpt>
      <trkpt lat="46.08696" lon="5.73166">
        <ele>1257.8</ele>
        <time>2021-08-20T10:59:04Z</time>
      </trkpt>
      <trkpt lat="46.08692" lon="5.73164">
        <ele>1257.8</ele>
        <time>2021-08-20T10:59:06Z</time>
      </trkpt>
      <trkpt lat="46.0869" lon="5.73163">
        <ele>1257.8</ele>
        <time>2021-08-20T10:59:07Z</time>
      </trkpt>
      <trkpt lat="46.08685" lon="5.73161">
        <ele>1257.9</ele>
        <time>2021-08-20T10:59:08Z</time>
      </trkpt>
      <trkpt lat="46.0868" lon="5.73161">
        <ele>1258</ele>
        <time>2021-08-20T10:59:10Z</time>
      </trkpt>
      <trkpt lat="46.08677" lon="5.73161">
        <ele>1258.1</ele>
        <time>2021-08-20T10:59:12Z</time>
      </trkpt>
      <trkpt lat="46.08673" lon="5.73162">
        <ele>1258.1</ele>
        <time>2021-08-20T10:59:13Z</time>
      </trkpt>
      <trkpt lat="46.0867" lon="5.73162">
        <ele>1258.2</ele>
        <time>2021-08-20T10:59:15Z</time>
      </trkpt>
      <trkpt lat="46.08666" lon="5.73161">
        <ele>1258.3</ele>
        <time>2021-08-20T10:59:16Z</time>
      </trkpt>
      <trkpt lat="46.08662" lon="5.7316">
        <ele>1258.4</ele>
        <time>2021-08-20T10:59:18Z</time>
      </trkpt>
      <trkpt lat="46.08658" lon="5.7316">
        <ele>1258.6</ele>
        <time>2021-08-20T10:59:19Z</time>
      </trkpt>
      <trkpt lat="46.08655" lon="5.7316">
        <ele>1258.7</ele>
        <time>2021-08-20T10:59:20Z</time>
      </trkpt>
      <trkpt lat="46.08648" lon="5.73157">
        <ele>1259</ele>
        <time>2021-08-20T10:59:23Z</time>
      </trkpt>
      <trkpt lat="46.08644" lon="5.73155">
        <ele>1259.1</ele>
        <time>2021-08-20T10:59:24Z</time>
      </trkpt>
      <trkpt lat="46.0864" lon="5.73155">
        <ele>1259.4</ele>
        <time>2021-08-20T10:59:26Z</time>
      </trkpt>
      <trkpt lat="46.08638" lon="5.73155">
        <ele>1259.5</ele>
        <time>2021-08-20T10:59:27Z</time>
      </trkpt>
      <trkpt lat="46.08636" lon="5.73155">
        <ele>1259.6</ele>
        <time>2021-08-20T10:59:28Z</time>
      </trkpt>
      <trkpt lat="46.08633" lon="5.73154">
        <ele>1259.7</ele>
        <time>2021-08-20T10:59:29Z</time>
      </trkpt>
      <trkpt lat="46.0863" lon="5.73153">
        <ele>1259.9</ele>
        <time>2021-08-20T10:59:30Z</time>
      </trkpt>
      <trkpt lat="46.08625" lon="5.73153">
        <ele>1260.1</ele>
        <time>2021-08-20T10:59:32Z</time>
      </trkpt>
      <trkpt lat="46.08622" lon="5.73152">
        <ele>1260.2</ele>
        <time>2021-08-20T10:59:34Z</time>
      </trkpt>
      <trkpt lat="46.0862" lon="5.73151">
        <ele>1260.3</ele>
        <time>2021-08-20T10:59:36Z</time>
      </trkpt>
      <trkpt lat="46.08617" lon="5.73148">
        <ele>1260.5</ele>
        <time>2021-08-20T10:59:38Z</time>
      </trkpt>
      <trkpt lat="46.08616" lon="5.73148">
        <ele>1260.5</ele>
        <time>2021-08-20T10:59:39Z</time>
      </trkpt>
      <trkpt lat="46.08614" lon="5.73147">
        <ele>1260.6</ele>
        <time>2021-08-20T10:59:40Z</time>
      </trkpt>
      <trkpt lat="46.08612" lon="5.73146">
        <ele>1260.7</ele>
        <time>2021-08-20T10:59:41Z</time>
      </trkpt>
      <trkpt lat="46.0861" lon="5.73145">
        <ele>1260.8</ele>
        <time>2021-08-20T10:59:43Z</time>
      </trkpt>
      <trkpt lat="46.08609" lon="5.73144">
        <ele>1260.9</ele>
        <time>2021-08-20T10:59:44Z</time>
      </trkpt>
      <trkpt lat="46.08607" lon="5.73142">
        <ele>1261</ele>
        <time>2021-08-20T10:59:46Z</time>
      </trkpt>
      <trkpt lat="46.08606" lon="5.73142">
        <ele>1261</ele>
        <time>2021-08-20T10:59:47Z</time>
      </trkpt>
      <trkpt lat="46.08604" lon="5.73141">
        <ele>1261.1</ele>
        <time>2021-08-20T10:59:48Z</time>
      </trkpt>
      <trkpt lat="46.08601" lon="5.73139">
        <ele>1261.2</ele>
        <time>2021-08-20T10:59:50Z</time>
      </trkpt>
      <trkpt lat="46.08599" lon="5.73137">
        <ele>1261.3</ele>
        <time>2021-08-20T10:59:51Z</time>
      </trkpt>
      <trkpt lat="46.08596" lon="5.73136">
        <ele>1261.4</ele>
        <time>2021-08-20T10:59:52Z</time>
      </trkpt>
      <trkpt lat="46.08593" lon="5.73136">
        <ele>1261.6</ele>
        <time>2021-08-20T10:59:54Z</time>
      </trkpt>
      <trkpt lat="46.08591" lon="5.73136">
        <ele>1261.7</ele>
        <time>2021-08-20T10:59:55Z</time>
      </trkpt>
      <trkpt lat="46.0859" lon="5.73137">
        <ele>1261.7</ele>
        <time>2021-08-20T10:59:57Z</time>
      </trkpt>
      <trkpt lat="46.08586" lon="5.73139">
        <ele>1261.9</ele>
        <time>2021-08-20T10:59:58Z</time>
      </trkpt>
      <trkpt lat="46.08582" lon="5.7314">
        <ele>1262.1</ele>
        <time>2021-08-20T11:00:00Z</time>
      </trkpt>
      <trkpt lat="46.0858" lon="5.73141">
        <ele>1262.1</ele>
        <time>2021-08-20T11:00:01Z</time>
      </trkpt>
      <trkpt lat="46.08579" lon="5.73141">
        <ele>1262.2</ele>
        <time>2021-08-20T11:00:03Z</time>
      </trkpt>
      <trkpt lat="46.08578" lon="5.73141">
        <ele>1262.3</ele>
        <time>2021-08-20T11:00:05Z</time>
      </trkpt>
      <trkpt lat="46.08576" lon="5.73142">
        <ele>1262.3</ele>
        <time>2021-08-20T11:00:06Z</time>
      </trkpt>
      <trkpt lat="46.08574" lon="5.73143">
        <ele>1262.4</ele>
        <time>2021-08-20T11:00:07Z</time>
      </trkpt>
      <trkpt lat="46.08571" lon="5.73143">
        <ele>1262.5</ele>
        <time>2021-08-20T11:00:08Z</time>
      </trkpt>
      <trkpt lat="46.08567" lon="5.73143">
        <ele>1262.7</ele>
        <time>2021-08-20T11:00:10Z</time>
      </trkpt>
      <trkpt lat="46.08565" lon="5.73143">
        <ele>1262.8</ele>
        <time>2021-08-20T11:00:11Z</time>
      </trkpt>
      <trkpt lat="46.08564" lon="5.73143">
        <ele>1262.8</ele>
        <time>2021-08-20T11:00:12Z</time>
      </trkpt>
      <trkpt lat="46.0856" lon="5.73144">
        <ele>1262.9</ele>
        <time>2021-08-20T11:00:13Z</time>
      </trkpt>
      <trkpt lat="46.08559" lon="5.73144">
        <ele>1263</ele>
        <time>2021-08-20T11:00:14Z</time>
      </trkpt>
      <trkpt lat="46.08556" lon="5.73143">
        <ele>1263.1</ele>
        <time>2021-08-20T11:00:16Z</time>
      </trkpt>
      <trkpt lat="46.08555" lon="5.73143">
        <ele>1263.2</ele>
        <time>2021-08-20T11:00:17Z</time>
      </trkpt>
      <trkpt lat="46.08551" lon="5.73143">
        <ele>1263.3</ele>
        <time>2021-08-20T11:00:19Z</time>
      </trkpt>
      <trkpt lat="46.08548" lon="5.73141">
        <ele>1263.4</ele>
        <time>2021-08-20T11:00:20Z</time>
      </trkpt>
      <trkpt lat="46.08545" lon="5.73141">
        <ele>1263.5</ele>
        <time>2021-08-20T11:00:22Z</time>
      </trkpt>
      <trkpt lat="46.08542" lon="5.7314">
        <ele>1263.6</ele>
        <time>2021-08-20T11:00:23Z</time>
      </trkpt>
      <trkpt lat="46.08541" lon="5.73139">
        <ele>1263.6</ele>
        <time>2021-08-20T11:00:24Z</time>
      </trkpt>
      <trkpt lat="46.08538" lon="5.73139">
        <ele>1263.7</ele>
        <time>2021-08-20T11:00:26Z</time>
      </trkpt>
      <trkpt lat="46.08535" lon="5.73138">
        <ele>1263.8</ele>
        <time>2021-08-20T11:00:27Z</time>
      </trkpt>
      <trkpt lat="46.08534" lon="5.73138">
        <ele>1263.8</ele>
        <time>2021-08-20T11:00:28Z</time>
      </trkpt>
      <trkpt lat="46.08533" lon="5.73137">
        <ele>1263.9</ele>
        <time>2021-08-20T11:00:29Z</time>
      </trkpt>
      <trkpt lat="46.08532" lon="5.73136">
        <ele>1263.9</ele>
        <time>2021-08-20T11:00:30Z</time>
      </trkpt>
      <trkpt lat="46.08529" lon="5.73135">
        <ele>1264</ele>
        <time>2021-08-20T11:00:32Z</time>
      </trkpt>
      <trkpt lat="46.08526" lon="5.73135">
        <ele>1264</ele>
        <time>2021-08-20T11:00:33Z</time>
      </trkpt>
      <trkpt lat="46.08523" lon="5.73134">
        <ele>1264.1</ele>
        <time>2021-08-20T11:00:35Z</time>
      </trkpt>
      <trkpt lat="46.08519" lon="5.73133">
        <ele>1264.2</ele>
        <time>2021-08-20T11:00:37Z</time>
      </trkpt>
      <trkpt lat="46.08516" lon="5.73132">
        <ele>1264.2</ele>
        <time>2021-08-20T11:00:38Z</time>
      </trkpt>
      <trkpt lat="46.08512" lon="5.73132">
        <ele>1264.3</ele>
        <time>2021-08-20T11:00:40Z</time>
      </trkpt>
      <trkpt lat="46.08509" lon="5.73131">
        <ele>1264.4</ele>
        <time>2021-08-20T11:00:41Z</time>
      </trkpt>
      <trkpt lat="46.08507" lon="5.73132">
        <ele>1264.4</ele>
        <time>2021-08-20T11:00:43Z</time>
      </trkpt>
      <trkpt lat="46.08504" lon="5.73132">
        <ele>1264.5</ele>
        <time>2021-08-20T11:00:44Z</time>
      </trkpt>
      <trkpt lat="46.085" lon="5.73132">
        <ele>1264.6</ele>
        <time>2021-08-20T11:00:46Z</time>
      </trkpt>
      <trkpt lat="46.08495" lon="5.73134">
        <ele>1264.7</ele>
        <time>2021-08-20T11:00:48Z</time>
      </trkpt>
      <trkpt lat="46.08492" lon="5.73134">
        <ele>1264.7</ele>
        <time>2021-08-20T11:00:49Z</time>
      </trkpt>
      <trkpt lat="46.08489" lon="5.73134">
        <ele>1264.7</ele>
        <time>2021-08-20T11:00:50Z</time>
      </trkpt>
      <trkpt lat="46.08484" lon="5.73133">
        <ele>1264.8</ele>
        <time>2021-08-20T11:00:52Z</time>
      </trkpt>
      <trkpt lat="46.08481" lon="5.73131">
        <ele>1264.9</ele>
        <time>2021-08-20T11:00:53Z</time>
      </trkpt>
      <trkpt lat="46.0848" lon="5.73131">
        <ele>1264.9</ele>
        <time>2021-08-20T11:00:54Z</time>
      </trkpt>
      <trkpt lat="46.08475" lon="5.73132">
        <ele>1265</ele>
        <time>2021-08-20T11:00:56Z</time>
      </trkpt>
      <trkpt lat="46.08472" lon="5.73132">
        <ele>1265</ele>
        <time>2021-08-20T11:00:57Z</time>
      </trkpt>
      <trkpt lat="46.08469" lon="5.73133">
        <ele>1265.1</ele>
        <time>2021-08-20T11:00:58Z</time>
      </trkpt>
      <trkpt lat="46.08464" lon="5.73134">
        <ele>1265.2</ele>
        <time>2021-08-20T11:01:00Z</time>
      </trkpt>
      <trkpt lat="46.08459" lon="5.73134">
        <ele>1265.2</ele>
        <time>2021-08-20T11:01:01Z</time>
      </trkpt>
      <trkpt lat="46.08456" lon="5.73134">
        <ele>1265.3</ele>
        <time>2021-08-20T11:01:02Z</time>
      </trkpt>
      <trkpt lat="46.08452" lon="5.73135">
        <ele>1265.3</ele>
        <time>2021-08-20T11:01:04Z</time>
      </trkpt>
      <trkpt lat="46.0845" lon="5.73134">
        <ele>1265.4</ele>
        <time>2021-08-20T11:01:05Z</time>
      </trkpt>
      <trkpt lat="46.08449" lon="5.73134">
        <ele>1265.4</ele>
        <time>2021-08-20T11:01:06Z</time>
      </trkpt>
      <trkpt lat="46.08445" lon="5.73133">
        <ele>1265.4</ele>
        <time>2021-08-20T11:01:07Z</time>
      </trkpt>
      <trkpt lat="46.08443" lon="5.73132">
        <ele>1265.4</ele>
        <time>2021-08-20T11:01:08Z</time>
      </trkpt>
      <trkpt lat="46.0844" lon="5.73132">
        <ele>1265.4</ele>
        <time>2021-08-20T11:01:09Z</time>
      </trkpt>
      <trkpt lat="46.08435" lon="5.73133">
        <ele>1265.5</ele>
        <time>2021-08-20T11:01:11Z</time>
      </trkpt>
      <trkpt lat="46.08431" lon="5.73133">
        <ele>1265.5</ele>
        <time>2021-08-20T11:01:12Z</time>
      </trkpt>
      <trkpt lat="46.08427" lon="5.73134">
        <ele>1265.4</ele>
        <time>2021-08-20T11:01:13Z</time>
      </trkpt>
      <trkpt lat="46.08423" lon="5.73135">
        <ele>1265.4</ele>
        <time>2021-08-20T11:01:15Z</time>
      </trkpt>
      <trkpt lat="46.08419" lon="5.73136">
        <ele>1265.4</ele>
        <time>2021-08-20T11:01:16Z</time>
      </trkpt>
      <trkpt lat="46.08413" lon="5.73137">
        <ele>1265.4</ele>
        <time>2021-08-20T11:01:18Z</time>
      </trkpt>
      <trkpt lat="46.0841" lon="5.73138">
        <ele>1265.4</ele>
        <time>2021-08-20T11:01:19Z</time>
      </trkpt>
      <trkpt lat="46.08407" lon="5.7314">
        <ele>1265.4</ele>
        <time>2021-08-20T11:01:20Z</time>
      </trkpt>
      <trkpt lat="46.08403" lon="5.73141">
        <ele>1265.4</ele>
        <time>2021-08-20T11:01:22Z</time>
      </trkpt>
      <trkpt lat="46.084" lon="5.7314">
        <ele>1265.5</ele>
        <time>2021-08-20T11:01:23Z</time>
      </trkpt>
      <trkpt lat="46.08396" lon="5.73139">
        <ele>1265.5</ele>
        <time>2021-08-20T11:01:25Z</time>
      </trkpt>
      <trkpt lat="46.08393" lon="5.73139">
        <ele>1265.6</ele>
        <time>2021-08-20T11:01:26Z</time>
      </trkpt>
      <trkpt lat="46.08389" lon="5.7314">
        <ele>1265.6</ele>
        <time>2021-08-20T11:01:28Z</time>
      </trkpt>
      <trkpt lat="46.08387" lon="5.73141">
        <ele>1265.7</ele>
        <time>2021-08-20T11:01:29Z</time>
      </trkpt>
      <trkpt lat="46.08386" lon="5.73141">
        <ele>1265.7</ele>
        <time>2021-08-20T11:01:30Z</time>
      </trkpt>
      <trkpt lat="46.08382" lon="5.73142">
        <ele>1265.7</ele>
        <time>2021-08-20T11:01:31Z</time>
      </trkpt>
      <trkpt lat="46.08381" lon="5.73142">
        <ele>1265.7</ele>
        <time>2021-08-20T11:01:32Z</time>
      </trkpt>
      <trkpt lat="46.08376" lon="5.73144">
        <ele>1265.8</ele>
        <time>2021-08-20T11:01:34Z</time>
      </trkpt>
      <trkpt lat="46.08371" lon="5.73145">
        <ele>1265.8</ele>
        <time>2021-08-20T11:01:36Z</time>
      </trkpt>
      <trkpt lat="46.08366" lon="5.73145">
        <ele>1265.8</ele>
        <time>2021-08-20T11:01:38Z</time>
      </trkpt>
      <trkpt lat="46.08363" lon="5.73144">
        <ele>1265.9</ele>
        <time>2021-08-20T11:01:39Z</time>
      </trkpt>
      <trkpt lat="46.08359" lon="5.73143">
        <ele>1265.9</ele>
        <time>2021-08-20T11:01:41Z</time>
      </trkpt>
      <trkpt lat="46.08355" lon="5.73143">
        <ele>1265.9</ele>
        <time>2021-08-20T11:01:42Z</time>
      </trkpt>
      <trkpt lat="46.08351" lon="5.73142">
        <ele>1266</ele>
        <time>2021-08-20T11:01:44Z</time>
      </trkpt>
      <trkpt lat="46.08347" lon="5.73142">
        <ele>1266</ele>
        <time>2021-08-20T11:01:46Z</time>
      </trkpt>
      <trkpt lat="46.08346" lon="5.73142">
        <ele>1266.1</ele>
        <time>2021-08-20T11:01:47Z</time>
      </trkpt>
      <trkpt lat="46.08343" lon="5.73141">
        <ele>1266.2</ele>
        <time>2021-08-20T11:01:48Z</time>
      </trkpt>
      <trkpt lat="46.08341" lon="5.7314">
        <ele>1266.2</ele>
        <time>2021-08-20T11:01:50Z</time>
      </trkpt>
      <trkpt lat="46.08337" lon="5.73141">
        <ele>1266.4</ele>
        <time>2021-08-20T11:01:51Z</time>
      </trkpt>
      <trkpt lat="46.08334" lon="5.73142">
        <ele>1266.5</ele>
        <time>2021-08-20T11:01:52Z</time>
      </trkpt>
      <trkpt lat="46.0833" lon="5.73141">
        <ele>1266.6</ele>
        <time>2021-08-20T11:01:54Z</time>
      </trkpt>
      <trkpt lat="46.08327" lon="5.73142">
        <ele>1266.7</ele>
        <time>2021-08-20T11:01:56Z</time>
      </trkpt>
      <trkpt lat="46.08323" lon="5.73141">
        <ele>1266.9</ele>
        <time>2021-08-20T11:01:57Z</time>
      </trkpt>
      <trkpt lat="46.08321" lon="5.7314">
        <ele>1266.9</ele>
        <time>2021-08-20T11:01:58Z</time>
      </trkpt>
      <trkpt lat="46.08316" lon="5.73139">
        <ele>1267.1</ele>
        <time>2021-08-20T11:02:00Z</time>
      </trkpt>
      <trkpt lat="46.08311" lon="5.73139">
        <ele>1267.3</ele>
        <time>2021-08-20T11:02:02Z</time>
      </trkpt>
      <trkpt lat="46.08309" lon="5.73139">
        <ele>1267.4</ele>
        <time>2021-08-20T11:02:03Z</time>
      </trkpt>
      <trkpt lat="46.08304" lon="5.73139">
        <ele>1267.5</ele>
        <time>2021-08-20T11:02:05Z</time>
      </trkpt>
      <trkpt lat="46.083" lon="5.73139">
        <ele>1267.6</ele>
        <time>2021-08-20T11:02:06Z</time>
      </trkpt>
      <trkpt lat="46.08296" lon="5.73141">
        <ele>1267.6</ele>
        <time>2021-08-20T11:02:08Z</time>
      </trkpt>
      <trkpt lat="46.08293" lon="5.73142">
        <ele>1267.7</ele>
        <time>2021-08-20T11:02:09Z</time>
      </trkpt>
      <trkpt lat="46.08288" lon="5.73143">
        <ele>1267.7</ele>
        <time>2021-08-20T11:02:10Z</time>
      </trkpt>
      <trkpt lat="46.08283" lon="5.73143">
        <ele>1267.8</ele>
        <time>2021-08-20T11:02:11Z</time>
      </trkpt>
      <trkpt lat="46.08273" lon="5.73144">
        <ele>1267.8</ele>
        <time>2021-08-20T11:02:13Z</time>
      </trkpt>
      <trkpt lat="46.08268" lon="5.73148">
        <ele>1267.8</ele>
        <time>2021-08-20T11:02:15Z</time>
      </trkpt>
      <trkpt lat="46.08263" lon="5.73144">
        <ele>1267.8</ele>
        <time>2021-08-20T11:02:16Z</time>
      </trkpt>
      <trkpt lat="46.08258" lon="5.73141">
        <ele>1267.7</ele>
        <time>2021-08-20T11:02:17Z</time>
      </trkpt>
      <trkpt lat="46.08247" lon="5.7314">
        <ele>1267.4</ele>
        <time>2021-08-20T11:02:18Z</time>
      </trkpt>
      <trkpt lat="46.08234" lon="5.73139">
        <ele>1267</ele>
        <time>2021-08-20T11:02:20Z</time>
      </trkpt>
      <trkpt lat="46.08222" lon="5.73138">
        <ele>1266.7</ele>
        <time>2021-08-20T11:02:22Z</time>
      </trkpt>
      <trkpt lat="46.08211" lon="5.73139">
        <ele>1266.4</ele>
        <time>2021-08-20T11:02:24Z</time>
      </trkpt>
      <trkpt lat="46.08201" lon="5.7314">
        <ele>1266.1</ele>
        <time>2021-08-20T11:02:26Z</time>
      </trkpt>
      <trkpt lat="46.0819" lon="5.73141">
        <ele>1265.7</ele>
        <time>2021-08-20T11:02:28Z</time>
      </trkpt>
      <trkpt lat="46.08179" lon="5.73139">
        <ele>1265.4</ele>
        <time>2021-08-20T11:02:30Z</time>
      </trkpt>
      <trkpt lat="46.08174" lon="5.7314">
        <ele>1265.2</ele>
        <time>2021-08-20T11:02:31Z</time>
      </trkpt>
      <trkpt lat="46.08169" lon="5.7314">
        <ele>1265</ele>
        <time>2021-08-20T11:02:32Z</time>
      </trkpt>
      <trkpt lat="46.08158" lon="5.73144">
        <ele>1264.5</ele>
        <time>2021-08-20T11:02:34Z</time>
      </trkpt>
      <trkpt lat="46.08153" lon="5.73145">
        <ele>1264.2</ele>
        <time>2021-08-20T11:02:35Z</time>
      </trkpt>
      <trkpt lat="46.08147" lon="5.73146">
        <ele>1263.9</ele>
        <time>2021-08-20T11:02:36Z</time>
      </trkpt>
      <trkpt lat="46.08137" lon="5.73146">
        <ele>1263.5</ele>
        <time>2021-08-20T11:02:38Z</time>
      </trkpt>
      <trkpt lat="46.08127" lon="5.73145">
        <ele>1263.1</ele>
        <time>2021-08-20T11:02:40Z</time>
      </trkpt>
      <trkpt lat="46.08116" lon="5.73146">
        <ele>1262.7</ele>
        <time>2021-08-20T11:02:42Z</time>
      </trkpt>
      <trkpt lat="46.08106" lon="5.73146">
        <ele>1262.3</ele>
        <time>2021-08-20T11:02:44Z</time>
      </trkpt>
      <trkpt lat="46.08096" lon="5.73146">
        <ele>1262</ele>
        <time>2021-08-20T11:02:46Z</time>
      </trkpt>
      <trkpt lat="46.08089" lon="5.73147">
        <ele>1261.8</ele>
        <time>2021-08-20T11:02:48Z</time>
      </trkpt>
      <trkpt lat="46.08081" lon="5.73146">
        <ele>1261.5</ele>
        <time>2021-08-20T11:02:50Z</time>
      </trkpt>
      <trkpt lat="46.08073" lon="5.73143">
        <ele>1261.1</ele>
        <time>2021-08-20T11:02:52Z</time>
      </trkpt>
      <trkpt lat="46.08069" lon="5.73141">
        <ele>1260.9</ele>
        <time>2021-08-20T11:02:53Z</time>
      </trkpt>
      <trkpt lat="46.08067" lon="5.73142">
        <ele>1260.8</ele>
        <time>2021-08-20T11:02:55Z</time>
      </trkpt>
      <trkpt lat="46.08064" lon="5.73142">
        <ele>1260.7</ele>
        <time>2021-08-20T11:02:56Z</time>
      </trkpt>
      <trkpt lat="46.08053" lon="5.73134">
        <ele>1260.3</ele>
        <time>2021-08-20T11:02:57Z</time>
      </trkpt>
      <trkpt lat="46.08048" lon="5.73131">
        <ele>1260.1</ele>
        <time>2021-08-20T11:02:58Z</time>
      </trkpt>
      <trkpt lat="46.08036" lon="5.73125">
        <ele>1259.8</ele>
        <time>2021-08-20T11:03:00Z</time>
      </trkpt>
      <trkpt lat="46.08026" lon="5.7312">
        <ele>1259.4</ele>
        <time>2021-08-20T11:03:02Z</time>
      </trkpt>
      <trkpt lat="46.08015" lon="5.73116">
        <ele>1259.1</ele>
        <time>2021-08-20T11:03:04Z</time>
      </trkpt>
      <trkpt lat="46.0801" lon="5.73113">
        <ele>1258.9</ele>
        <time>2021-08-20T11:03:05Z</time>
      </trkpt>
      <trkpt lat="46.08004" lon="5.73111">
        <ele>1258.7</ele>
        <time>2021-08-20T11:03:06Z</time>
      </trkpt>
      <trkpt lat="46.07993" lon="5.73106">
        <ele>1258.4</ele>
        <time>2021-08-20T11:03:08Z</time>
      </trkpt>
      <trkpt lat="46.07983" lon="5.73101">
        <ele>1257.8</ele>
        <time>2021-08-20T11:03:10Z</time>
      </trkpt>
      <trkpt lat="46.07979" lon="5.73098">
        <ele>1257.5</ele>
        <time>2021-08-20T11:03:11Z</time>
      </trkpt>
      <trkpt lat="46.07969" lon="5.73093">
        <ele>1256.6</ele>
        <time>2021-08-20T11:03:13Z</time>
      </trkpt>
      <trkpt lat="46.07964" lon="5.7309">
        <ele>1256.1</ele>
        <time>2021-08-20T11:03:14Z</time>
      </trkpt>
      <trkpt lat="46.07958" lon="5.73086">
        <ele>1255.6</ele>
        <time>2021-08-20T11:03:15Z</time>
      </trkpt>
      <trkpt lat="46.07947" lon="5.73078">
        <ele>1254.5</ele>
        <time>2021-08-20T11:03:17Z</time>
      </trkpt>
      <trkpt lat="46.07935" lon="5.73071">
        <ele>1253.5</ele>
        <time>2021-08-20T11:03:19Z</time>
      </trkpt>
      <trkpt lat="46.07929" lon="5.73067">
        <ele>1252.9</ele>
        <time>2021-08-20T11:03:20Z</time>
      </trkpt>
      <trkpt lat="46.07915" lon="5.73059">
        <ele>1251.9</ele>
        <time>2021-08-20T11:03:22Z</time>
      </trkpt>
      <trkpt lat="46.07901" lon="5.73051">
        <ele>1250.9</ele>
        <time>2021-08-20T11:03:24Z</time>
      </trkpt>
      <trkpt lat="46.07894" lon="5.73045">
        <ele>1250.3</ele>
        <time>2021-08-20T11:03:25Z</time>
      </trkpt>
      <trkpt lat="46.07888" lon="5.73038">
        <ele>1249.8</ele>
        <time>2021-08-20T11:03:26Z</time>
      </trkpt>
      <trkpt lat="46.07878" lon="5.73022">
        <ele>1248.9</ele>
        <time>2021-08-20T11:03:28Z</time>
      </trkpt>
      <trkpt lat="46.07874" lon="5.73013">
        <ele>1248.6</ele>
        <time>2021-08-20T11:03:29Z</time>
      </trkpt>
      <trkpt lat="46.07871" lon="5.73004">
        <ele>1248.3</ele>
        <time>2021-08-20T11:03:30Z</time>
      </trkpt>
      <trkpt lat="46.07866" lon="5.72986">
        <ele>1247.9</ele>
        <time>2021-08-20T11:03:32Z</time>
      </trkpt>
      <trkpt lat="46.07861" lon="5.72968">
        <ele>1247.7</ele>
        <time>2021-08-20T11:03:34Z</time>
      </trkpt>
      <trkpt lat="46.07858" lon="5.7296">
        <ele>1247.5</ele>
        <time>2021-08-20T11:03:35Z</time>
      </trkpt>
      <trkpt lat="46.07855" lon="5.72952">
        <ele>1247.4</ele>
        <time>2021-08-20T11:03:36Z</time>
      </trkpt>
      <trkpt lat="46.07848" lon="5.72938">
        <ele>1247</ele>
        <time>2021-08-20T11:03:38Z</time>
      </trkpt>
      <trkpt lat="46.07843" lon="5.72925">
        <ele>1246.6</ele>
        <time>2021-08-20T11:03:40Z</time>
      </trkpt>
      <trkpt lat="46.0784" lon="5.72919">
        <ele>1246.4</ele>
        <time>2021-08-20T11:03:41Z</time>
      </trkpt>
      <trkpt lat="46.07839" lon="5.72916">
        <ele>1246.2</ele>
        <time>2021-08-20T11:03:42Z</time>
      </trkpt>
      <trkpt lat="46.07836" lon="5.72908">
        <ele>1245.9</ele>
        <time>2021-08-20T11:03:44Z</time>
      </trkpt>
      <trkpt lat="46.07834" lon="5.72903">
        <ele>1245.7</ele>
        <time>2021-08-20T11:03:46Z</time>
      </trkpt>
      <trkpt lat="46.07831" lon="5.72901">
        <ele>1245.5</ele>
        <time>2021-08-20T11:03:48Z</time>
      </trkpt>
      <trkpt lat="46.07829" lon="5.729">
        <ele>1245.4</ele>
        <time>2021-08-20T11:03:50Z</time>
      </trkpt>
      <trkpt lat="46.07827" lon="5.72899">
        <ele>1245.2</ele>
        <time>2021-08-20T11:03:52Z</time>
      </trkpt>
      <trkpt lat="46.07824" lon="5.72897">
        <ele>1245.1</ele>
        <time>2021-08-20T11:03:53Z</time>
      </trkpt>
      <trkpt lat="46.07822" lon="5.72896">
        <ele>1244.9</ele>
        <time>2021-08-20T11:03:55Z</time>
      </trkpt>
      <trkpt lat="46.0782" lon="5.72895">
        <ele>1244.8</ele>
        <time>2021-08-20T11:03:57Z</time>
      </trkpt>
      <trkpt lat="46.07817" lon="5.72893">
        <ele>1244.6</ele>
        <time>2021-08-20T11:05:08Z</time>
      </trkpt>
      <trkpt lat="46.07815" lon="5.72892">
        <ele>1244.5</ele>
        <time>2021-08-20T11:05:09Z</time>
      </trkpt>
      <trkpt lat="46.0781" lon="5.7289">
        <ele>1244.1</ele>
        <time>2021-08-20T11:05:10Z</time>
      </trkpt>
      <trkpt lat="46.07804" lon="5.72886">
        <ele>1243.7</ele>
        <time>2021-08-20T11:05:12Z</time>
      </trkpt>
      <trkpt lat="46.07798" lon="5.72883">
        <ele>1243.2</ele>
        <time>2021-08-20T11:05:13Z</time>
      </trkpt>
      <trkpt lat="46.07794" lon="5.72881">
        <ele>1242.8</ele>
        <time>2021-08-20T11:05:14Z</time>
      </trkpt>
      <trkpt lat="46.07786" lon="5.72875">
        <ele>1242.2</ele>
        <time>2021-08-20T11:05:16Z</time>
      </trkpt>
      <trkpt lat="46.0778" lon="5.72869">
        <ele>1241.6</ele>
        <time>2021-08-20T11:05:17Z</time>
      </trkpt>
      <trkpt lat="46.07771" lon="5.72862">
        <ele>1240.8</ele>
        <time>2021-08-20T11:05:19Z</time>
      </trkpt>
      <trkpt lat="46.07765" lon="5.7286">
        <ele>1240.4</ele>
        <time>2021-08-20T11:05:20Z</time>
      </trkpt>
      <trkpt lat="46.07753" lon="5.72856">
        <ele>1239.3</ele>
        <time>2021-08-20T11:05:22Z</time>
      </trkpt>
      <trkpt lat="46.07747" lon="5.72854">
        <ele>1238.8</ele>
        <time>2021-08-20T11:05:23Z</time>
      </trkpt>
      <trkpt lat="46.07733" lon="5.72851">
        <ele>1237.7</ele>
        <time>2021-08-20T11:05:25Z</time>
      </trkpt>
      <trkpt lat="46.07726" lon="5.72848">
        <ele>1237.2</ele>
        <time>2021-08-20T11:05:26Z</time>
      </trkpt>
      <trkpt lat="46.07712" lon="5.72844">
        <ele>1236.3</ele>
        <time>2021-08-20T11:05:28Z</time>
      </trkpt>
      <trkpt lat="46.07698" lon="5.7284">
        <ele>1235.4</ele>
        <time>2021-08-20T11:05:30Z</time>
      </trkpt>
      <trkpt lat="46.07685" lon="5.72836">
        <ele>1234.9</ele>
        <time>2021-08-20T11:05:32Z</time>
      </trkpt>
      <trkpt lat="46.07671" lon="5.72833">
        <ele>1234.5</ele>
        <time>2021-08-20T11:05:34Z</time>
      </trkpt>
      <trkpt lat="46.07659" lon="5.72832">
        <ele>1234.3</ele>
        <time>2021-08-20T11:05:36Z</time>
      </trkpt>
      <trkpt lat="46.0765" lon="5.72833">
        <ele>1234.2</ele>
        <time>2021-08-20T11:05:38Z</time>
      </trkpt>
      <trkpt lat="46.07649" lon="5.72836">
        <ele>1234.2</ele>
        <time>2021-08-20T11:05:40Z</time>
      </trkpt>
      <trkpt lat="46.07648" lon="5.72838">
        <ele>1234.2</ele>
        <time>2021-08-20T11:05:41Z</time>
      </trkpt>
      <trkpt lat="46.07648" lon="5.72838">
        <ele>1234.2</ele>
        <time>2021-08-20T11:05:43Z</time>
      </trkpt>
      <trkpt lat="46.07649" lon="5.72838">
        <ele>1234.2</ele>
        <time>2021-08-20T11:05:45Z</time>
      </trkpt>
      <trkpt lat="46.0765" lon="5.72837">
        <ele>1234.2</ele>
        <time>2021-08-20T11:05:46Z</time>
      </trkpt>
      <trkpt lat="46.07654" lon="5.72837">
        <ele>1234.1</ele>
        <time>2021-08-20T11:05:48Z</time>
      </trkpt>
      <trkpt lat="46.07656" lon="5.72835">
        <ele>1234.1</ele>
        <time>2021-08-20T11:05:50Z</time>
      </trkpt>
      <trkpt lat="46.07657" lon="5.72834">
        <ele>1234.1</ele>
        <time>2021-08-20T11:05:51Z</time>
      </trkpt>
      <trkpt lat="46.07658" lon="5.72832">
        <ele>1234.1</ele>
        <time>2021-08-20T11:05:53Z</time>
      </trkpt>
      <trkpt lat="46.07659" lon="5.72832">
        <ele>1234.1</ele>
        <time>2021-08-20T11:05:54Z</time>
      </trkpt>
      <trkpt lat="46.0766" lon="5.72832">
        <ele>1234</ele>
        <time>2021-08-20T11:05:56Z</time>
      </trkpt>
      <trkpt lat="46.07661" lon="5.72832">
        <ele>1234.1</ele>
        <time>2021-08-20T11:05:57Z</time>
      </trkpt>
      <trkpt lat="46.07661" lon="5.72832">
        <ele>1234.1</ele>
        <time>2021-08-20T11:05:58Z</time>
      </trkpt>
      <trkpt lat="46.07663" lon="5.72832">
        <ele>1234.1</ele>
        <time>2021-08-20T11:05:59Z</time>
      </trkpt>
      <trkpt lat="46.07663" lon="5.72832">
        <ele>1234.1</ele>
        <time>2021-08-20T11:06:00Z</time>
      </trkpt>
      <trkpt lat="46.07663" lon="5.72816">
        <ele>1234.1</ele>
        <time>2021-08-20T11:06:11Z</time>
      </trkpt>
      <trkpt lat="46.07662" lon="5.72813">
        <ele>1234.1</ele>
        <time>2021-08-20T11:06:13Z</time>
      </trkpt>
      <trkpt lat="46.07661" lon="5.72811">
        <ele>1234.1</ele>
        <time>2021-08-20T11:06:14Z</time>
      </trkpt>
      <trkpt lat="46.0766" lon="5.72808">
        <ele>1234.1</ele>
        <time>2021-08-20T11:06:16Z</time>
      </trkpt>
      <trkpt lat="46.0766" lon="5.72807">
        <ele>1234.2</ele>
        <time>2021-08-20T11:06:17Z</time>
      </trkpt>
      <trkpt lat="46.07659" lon="5.72806">
        <ele>1234.2</ele>
        <time>2021-08-20T11:06:18Z</time>
      </trkpt>
      <trkpt lat="46.07658" lon="5.72805">
        <ele>1234.2</ele>
        <time>2021-08-20T11:06:20Z</time>
      </trkpt>
      <trkpt lat="46.07658" lon="5.72805">
        <ele>1234.2</ele>
        <time>2021-08-20T11:06:21Z</time>
      </trkpt>
      <trkpt lat="46.07658" lon="5.72804">
        <ele>1234.2</ele>
        <time>2021-08-20T11:06:23Z</time>
      </trkpt>
      <trkpt lat="46.07657" lon="5.72804">
        <ele>1234.2</ele>
        <time>2021-08-20T11:06:24Z</time>
      </trkpt>
      <trkpt lat="46.07657" lon="5.72804">
        <ele>1234.2</ele>
        <time>2021-08-20T11:06:25Z</time>
      </trkpt>
      <trkpt lat="46.07657" lon="5.72804">
        <ele>1234.2</ele>
        <time>2021-08-20T11:06:27Z</time>
      </trkpt>
      <trkpt lat="46.07657" lon="5.72804">
        <ele>1234.2</ele>
        <time>2021-08-20T11:06:28Z</time>
      </trkpt>
      <trkpt lat="46.07657" lon="5.72804">
        <ele>1234.2</ele>
        <time>2021-08-20T11:06:29Z</time>
      </trkpt>
      <trkpt lat="46.07656" lon="5.72804">
        <ele>1234.2</ele>
        <time>2021-08-20T11:06:30Z</time>
      </trkpt>
      <trkpt lat="46.07656" lon="5.72803">
        <ele>1234.2</ele>
        <time>2021-08-20T11:06:32Z</time>
      </trkpt>
      <trkpt lat="46.07656" lon="5.72803">
        <ele>1234.2</ele>
        <time>2021-08-20T11:06:33Z</time>
      </trkpt>
      <trkpt lat="46.07655" lon="5.72802">
        <ele>1234.2</ele>
        <time>2021-08-20T11:06:35Z</time>
      </trkpt>
      <trkpt lat="46.07655" lon="5.72801">
        <ele>1234.2</ele>
        <time>2021-08-20T11:06:36Z</time>
      </trkpt>
      <trkpt lat="46.07654" lon="5.728">
        <ele>1234.2</ele>
        <time>2021-08-20T11:06:38Z</time>
      </trkpt>
      <trkpt lat="46.07653" lon="5.72799">
        <ele>1234.2</ele>
        <time>2021-08-20T11:06:39Z</time>
      </trkpt>
      <trkpt lat="46.07652" lon="5.72798">
        <ele>1234.2</ele>
        <time>2021-08-20T11:06:40Z</time>
      </trkpt>
      <trkpt lat="46.07651" lon="5.72797">
        <ele>1234.2</ele>
        <time>2021-08-20T11:06:42Z</time>
      </trkpt>
      <trkpt lat="46.0765" lon="5.72796">
        <ele>1234.2</ele>
        <time>2021-08-20T11:06:44Z</time>
      </trkpt>
      <trkpt lat="46.0765" lon="5.72796">
        <ele>1234.2</ele>
        <time>2021-08-20T11:06:45Z</time>
      </trkpt>
      <trkpt lat="46.07649" lon="5.72795">
        <ele>1234.2</ele>
        <time>2021-08-20T11:06:46Z</time>
      </trkpt>
      <trkpt lat="46.07647" lon="5.72792">
        <ele>1234.2</ele>
        <time>2021-08-20T11:06:48Z</time>
      </trkpt>
      <trkpt lat="46.07645" lon="5.7279">
        <ele>1234.2</ele>
        <time>2021-08-20T11:06:50Z</time>
      </trkpt>
      <trkpt lat="46.07642" lon="5.72788">
        <ele>1234.2</ele>
        <time>2021-08-20T11:06:51Z</time>
      </trkpt>
      <trkpt lat="46.07641" lon="5.72788">
        <ele>1234.2</ele>
        <time>2021-08-20T11:06:52Z</time>
      </trkpt>
      <trkpt lat="46.0764" lon="5.72786">
        <ele>1234.2</ele>
        <time>2021-08-20T11:06:53Z</time>
      </trkpt>
      <trkpt lat="46.07637" lon="5.72785">
        <ele>1234.2</ele>
        <time>2021-08-20T11:06:55Z</time>
      </trkpt>
      <trkpt lat="46.07634" lon="5.72783">
        <ele>1234.2</ele>
        <time>2021-08-20T11:06:56Z</time>
      </trkpt>
      <trkpt lat="46.07631" lon="5.72781">
        <ele>1234.2</ele>
        <time>2021-08-20T11:06:58Z</time>
      </trkpt>
      <trkpt lat="46.07628" lon="5.7278">
        <ele>1234.2</ele>
        <time>2021-08-20T11:06:59Z</time>
      </trkpt>
      <trkpt lat="46.07626" lon="5.72778">
        <ele>1234.2</ele>
        <time>2021-08-20T11:07:00Z</time>
      </trkpt>
      <trkpt lat="46.07623" lon="5.72777">
        <ele>1234.2</ele>
        <time>2021-08-20T11:07:02Z</time>
      </trkpt>
      <trkpt lat="46.07621" lon="5.72775">
        <ele>1234.2</ele>
        <time>2021-08-20T11:07:04Z</time>
      </trkpt>
      <trkpt lat="46.07618" lon="5.72773">
        <ele>1234.3</ele>
        <time>2021-08-20T11:07:56Z</time>
      </trkpt>
      <trkpt lat="46.07615" lon="5.72772">
        <ele>1234.3</ele>
        <time>2021-08-20T11:07:57Z</time>
      </trkpt>
      <trkpt lat="46.07613" lon="5.7277">
        <ele>1234.3</ele>
        <time>2021-08-20T11:07:58Z</time>
      </trkpt>
      <trkpt lat="46.07609" lon="5.72771">
        <ele>1234.4</ele>
        <time>2021-08-20T11:08:00Z</time>
      </trkpt>
      <trkpt lat="46.07607" lon="5.72771">
        <ele>1234.5</ele>
        <time>2021-08-20T11:08:02Z</time>
      </trkpt>
      <trkpt lat="46.07605" lon="5.72771">
        <ele>1234.5</ele>
        <time>2021-08-20T11:08:03Z</time>
      </trkpt>
      <trkpt lat="46.07604" lon="5.72772">
        <ele>1234.6</ele>
        <time>2021-08-20T11:08:04Z</time>
      </trkpt>
      <trkpt lat="46.07603" lon="5.72772">
        <ele>1234.6</ele>
        <time>2021-08-20T11:08:06Z</time>
      </trkpt>
      <trkpt lat="46.07602" lon="5.72773">
        <ele>1234.6</ele>
        <time>2021-08-20T11:08:07Z</time>
      </trkpt>
      <trkpt lat="46.07602" lon="5.72772">
        <ele>1234.7</ele>
        <time>2021-08-20T11:08:08Z</time>
      </trkpt>
      <trkpt lat="46.07602" lon="5.72772">
        <ele>1234.7</ele>
        <time>2021-08-20T11:08:10Z</time>
      </trkpt>
      <trkpt lat="46.07602" lon="5.72772">
        <ele>1234.7</ele>
        <time>2021-08-20T11:08:12Z</time>
      </trkpt>
      <trkpt lat="46.07602" lon="5.72772">
        <ele>1234.7</ele>
        <time>2021-08-20T11:08:13Z</time>
      </trkpt>
      <trkpt lat="46.07602" lon="5.72772">
        <ele>1234.7</ele>
        <time>2021-08-20T11:08:14Z</time>
      </trkpt>
      <trkpt lat="46.07603" lon="5.72772">
        <ele>1234.7</ele>
        <time>2021-08-20T11:08:16Z</time>
      </trkpt>
      <trkpt lat="46.07603" lon="5.72772">
        <ele>1234.7</ele>
        <time>2021-08-20T11:08:19Z</time>
      </trkpt>
      <trkpt lat="46.07589" lon="5.72774">
        <ele>1235.4</ele>
        <time>2021-08-20T11:08:44Z</time>
      </trkpt>
      <trkpt lat="46.07584" lon="5.72776">
        <ele>1235.7</ele>
        <time>2021-08-20T11:08:46Z</time>
      </trkpt>
      <trkpt lat="46.07581" lon="5.72776">
        <ele>1235.9</ele>
        <time>2021-08-20T11:08:47Z</time>
      </trkpt>
      <trkpt lat="46.07578" lon="5.72777">
        <ele>1236.1</ele>
        <time>2021-08-20T11:08:48Z</time>
      </trkpt>
      <trkpt lat="46.07577" lon="5.72778">
        <ele>1236.2</ele>
        <time>2021-08-20T11:08:49Z</time>
      </trkpt>
      <trkpt lat="46.07575" lon="5.7278">
        <ele>1236.4</ele>
        <time>2021-08-20T11:08:50Z</time>
      </trkpt>
      <trkpt lat="46.07574" lon="5.7278">
        <ele>1236.5</ele>
        <time>2021-08-20T11:08:52Z</time>
      </trkpt>
      <trkpt lat="46.07573" lon="5.72781">
        <ele>1236.5</ele>
        <time>2021-08-20T11:08:53Z</time>
      </trkpt>
      <trkpt lat="46.07573" lon="5.72781">
        <ele>1236.6</ele>
        <time>2021-08-20T11:08:54Z</time>
      </trkpt>
      <trkpt lat="46.07572" lon="5.72782">
        <ele>1236.6</ele>
        <time>2021-08-20T11:08:55Z</time>
      </trkpt>
      <trkpt lat="46.07571" lon="5.72782">
        <ele>1236.6</ele>
        <time>2021-08-20T11:08:56Z</time>
      </trkpt>
      <trkpt lat="46.07568" lon="5.72784">
        <ele>1236.9</ele>
        <time>2021-08-20T11:08:58Z</time>
      </trkpt>
      <trkpt lat="46.07566" lon="5.72785">
        <ele>1237.1</ele>
        <time>2021-08-20T11:08:59Z</time>
      </trkpt>
      <trkpt lat="46.07563" lon="5.72786">
        <ele>1237.3</ele>
        <time>2021-08-20T11:09:01Z</time>
      </trkpt>
      <trkpt lat="46.07561" lon="5.72786">
        <ele>1237.5</ele>
        <time>2021-08-20T11:09:02Z</time>
      </trkpt>
      <trkpt lat="46.0756" lon="5.72786">
        <ele>1237.6</ele>
        <time>2021-08-20T11:09:04Z</time>
      </trkpt>
      <trkpt lat="46.07559" lon="5.72786">
        <ele>1237.7</ele>
        <time>2021-08-20T11:09:05Z</time>
      </trkpt>
      <trkpt lat="46.07556" lon="5.72788">
        <ele>1238</ele>
        <time>2021-08-20T11:09:07Z</time>
      </trkpt>
      <trkpt lat="46.07555" lon="5.72788">
        <ele>1237.9</ele>
        <time>2021-08-20T11:09:08Z</time>
      </trkpt>
      <trkpt lat="46.07552" lon="5.72789">
        <ele>1238.3</ele>
        <time>2021-08-20T11:09:09Z</time>
      </trkpt>
      <trkpt lat="46.07551" lon="5.72789">
        <ele>1238.4</ele>
        <time>2021-08-20T11:09:10Z</time>
      </trkpt>
      <trkpt lat="46.07547" lon="5.72789">
        <ele>1238.8</ele>
        <time>2021-08-20T11:09:12Z</time>
      </trkpt>
      <trkpt lat="46.07546" lon="5.7279">
        <ele>1238.9</ele>
        <time>2021-08-20T11:09:13Z</time>
      </trkpt>
      <trkpt lat="46.07545" lon="5.72791">
        <ele>1239</ele>
        <time>2021-08-20T11:09:14Z</time>
      </trkpt>
      <trkpt lat="46.07544" lon="5.72793">
        <ele>1239.2</ele>
        <time>2021-08-20T11:09:16Z</time>
      </trkpt>
      <trkpt lat="46.07544" lon="5.72794">
        <ele>1239.3</ele>
        <time>2021-08-20T11:09:17Z</time>
      </trkpt>
      <trkpt lat="46.07544" lon="5.72795">
        <ele>1239.4</ele>
        <time>2021-08-20T11:09:18Z</time>
      </trkpt>
      <trkpt lat="46.07544" lon="5.72795">
        <ele>1239.4</ele>
        <time>2021-08-20T11:09:20Z</time>
      </trkpt>
      <trkpt lat="46.07544" lon="5.72795">
        <ele>1239.3</ele>
        <time>2021-08-20T11:09:21Z</time>
      </trkpt>
      <trkpt lat="46.07544" lon="5.72795">
        <ele>1239.3</ele>
        <time>2021-08-20T11:09:23Z</time>
      </trkpt>
      <trkpt lat="46.07544" lon="5.72796">
        <ele>1239.3</ele>
        <time>2021-08-20T11:09:24Z</time>
      </trkpt>
      <trkpt lat="46.07544" lon="5.72796">
        <ele>1239.4</ele>
        <time>2021-08-20T11:09:26Z</time>
      </trkpt>
      <trkpt lat="46.07509" lon="5.72798">
        <ele>1243.5</ele>
        <time>2021-08-20T11:10:17Z</time>
      </trkpt>
      <trkpt lat="46.07507" lon="5.72798">
        <ele>1243.6</ele>
        <time>2021-08-20T11:10:18Z</time>
      </trkpt>
      <trkpt lat="46.07506" lon="5.72798">
        <ele>1243.8</ele>
        <time>2021-08-20T11:10:20Z</time>
      </trkpt>
      <trkpt lat="46.07505" lon="5.72798">
        <ele>1243.9</ele>
        <time>2021-08-20T11:10:21Z</time>
      </trkpt>
      <trkpt lat="46.07505" lon="5.72798">
        <ele>1244</ele>
        <time>2021-08-20T11:10:23Z</time>
      </trkpt>
      <trkpt lat="46.07504" lon="5.72798">
        <ele>1243.9</ele>
        <time>2021-08-20T11:10:24Z</time>
      </trkpt>
      <trkpt lat="46.07504" lon="5.72798">
        <ele>1244</ele>
        <time>2021-08-20T11:10:26Z</time>
      </trkpt>
      <trkpt lat="46.07504" lon="5.72798">
        <ele>1244</ele>
        <time>2021-08-20T11:10:28Z</time>
      </trkpt>
      <trkpt lat="46.07503" lon="5.72798">
        <ele>1244</ele>
        <time>2021-08-20T11:10:29Z</time>
      </trkpt>
      <trkpt lat="46.07503" lon="5.72798">
        <ele>1243.9</ele>
        <time>2021-08-20T11:10:31Z</time>
      </trkpt>
      <trkpt lat="46.07388" lon="5.72813">
        <ele>1261.4</ele>
        <time>2021-08-20T11:13:48Z</time>
      </trkpt>
      <trkpt lat="46.07385" lon="5.72813">
        <ele>1261.9</ele>
        <time>2021-08-20T11:13:50Z</time>
      </trkpt>
      <trkpt lat="46.07383" lon="5.72813">
        <ele>1262.1</ele>
        <time>2021-08-20T11:13:51Z</time>
      </trkpt>
      <trkpt lat="46.0738" lon="5.72813">
        <ele>1262.4</ele>
        <time>2021-08-20T11:13:53Z</time>
      </trkpt>
      <trkpt lat="46.07378" lon="5.72814">
        <ele>1262.7</ele>
        <time>2021-08-20T11:13:54Z</time>
      </trkpt>
      <trkpt lat="46.07377" lon="5.72815">
        <ele>1262.8</ele>
        <time>2021-08-20T11:13:55Z</time>
      </trkpt>
      <trkpt lat="46.07372" lon="5.72818">
        <ele>1263.5</ele>
        <time>2021-08-20T11:13:56Z</time>
      </trkpt>
      <trkpt lat="46.07368" lon="5.7282">
        <ele>1264.1</ele>
        <time>2021-08-20T11:13:58Z</time>
      </trkpt>
      <trkpt lat="46.07364" lon="5.72822">
        <ele>1264.5</ele>
        <time>2021-08-20T11:13:59Z</time>
      </trkpt>
      <trkpt lat="46.0736" lon="5.72825">
        <ele>1265</ele>
        <time>2021-08-20T11:14:00Z</time>
      </trkpt>
      <trkpt lat="46.07356" lon="5.72827">
        <ele>1265.5</ele>
        <time>2021-08-20T11:14:01Z</time>
      </trkpt>
      <trkpt lat="46.07351" lon="5.72829">
        <ele>1265.9</ele>
        <time>2021-08-20T11:14:03Z</time>
      </trkpt>
      <trkpt lat="46.07347" lon="5.72831">
        <ele>1266.3</ele>
        <time>2021-08-20T11:14:04Z</time>
      </trkpt>
      <trkpt lat="46.07343" lon="5.72834">
        <ele>1266.7</ele>
        <time>2021-08-20T11:14:05Z</time>
      </trkpt>
      <trkpt lat="46.07339" lon="5.72836">
        <ele>1267</ele>
        <time>2021-08-20T11:14:07Z</time>
      </trkpt>
      <trkpt lat="46.07335" lon="5.72838">
        <ele>1267.3</ele>
        <time>2021-08-20T11:15:52Z</time>
      </trkpt>
      <trkpt lat="46.07331" lon="5.7284">
        <ele>1267.7</ele>
        <time>2021-08-20T11:15:53Z</time>
      </trkpt>
      <trkpt lat="46.07328" lon="5.72841">
        <ele>1267.9</ele>
        <time>2021-08-20T11:15:54Z</time>
      </trkpt>
      <trkpt lat="46.07325" lon="5.7284">
        <ele>1268.2</ele>
        <time>2021-08-20T11:15:56Z</time>
      </trkpt>
      <trkpt lat="46.07323" lon="5.7284">
        <ele>1268.3</ele>
        <time>2021-08-20T11:15:57Z</time>
      </trkpt>
      <trkpt lat="46.07323" lon="5.72839">
        <ele>1268.3</ele>
        <time>2021-08-20T11:15:58Z</time>
      </trkpt>
      <trkpt lat="46.07323" lon="5.72839">
        <ele>1268.3</ele>
        <time>2021-08-20T11:15:59Z</time>
      </trkpt>
      <trkpt lat="46.07322" lon="5.72839">
        <ele>1268.3</ele>
        <time>2021-08-20T11:16:00Z</time>
      </trkpt>
      <trkpt lat="46.07321" lon="5.72839">
        <ele>1268.4</ele>
        <time>2021-08-20T11:16:02Z</time>
      </trkpt>
      <trkpt lat="46.0732" lon="5.72839">
        <ele>1268.4</ele>
        <time>2021-08-20T11:16:03Z</time>
      </trkpt>
      <trkpt lat="46.07319" lon="5.72838">
        <ele>1268.4</ele>
        <time>2021-08-20T11:16:04Z</time>
      </trkpt>
      <trkpt lat="46.07315" lon="5.72837">
        <ele>1268.9</ele>
        <time>2021-08-20T11:16:07Z</time>
      </trkpt>
      <trkpt lat="46.07312" lon="5.72836">
        <ele>1269</ele>
        <time>2021-08-20T11:16:09Z</time>
      </trkpt>
      <trkpt lat="46.07309" lon="5.72835">
        <ele>1269.2</ele>
        <time>2021-08-20T11:16:10Z</time>
      </trkpt>
      <trkpt lat="46.07308" lon="5.72834">
        <ele>1269.3</ele>
        <time>2021-08-20T11:16:11Z</time>
      </trkpt>
      <trkpt lat="46.07307" lon="5.72833">
        <ele>1269.3</ele>
        <time>2021-08-20T11:16:12Z</time>
      </trkpt>
      <trkpt lat="46.07306" lon="5.72832">
        <ele>1269.3</ele>
        <time>2021-08-20T11:16:14Z</time>
      </trkpt>
      <trkpt lat="46.07303" lon="5.7283">
        <ele>1269.5</ele>
        <time>2021-08-20T11:16:16Z</time>
      </trkpt>
      <trkpt lat="46.07301" lon="5.72829">
        <ele>1269.6</ele>
        <time>2021-08-20T11:16:17Z</time>
      </trkpt>
      <trkpt lat="46.073" lon="5.72829">
        <ele>1269.6</ele>
        <time>2021-08-20T11:16:18Z</time>
      </trkpt>
      <trkpt lat="46.073" lon="5.72829">
        <ele>1269.6</ele>
        <time>2021-08-20T11:16:19Z</time>
      </trkpt>
      <trkpt lat="46.07298" lon="5.72828">
        <ele>1269.7</ele>
        <time>2021-08-20T11:16:20Z</time>
      </trkpt>
      <trkpt lat="46.07297" lon="5.72828">
        <ele>1269.7</ele>
        <time>2021-08-20T11:16:22Z</time>
      </trkpt>
      <trkpt lat="46.07296" lon="5.72827">
        <ele>1269.8</ele>
        <time>2021-08-20T11:16:23Z</time>
      </trkpt>
      <trkpt lat="46.07294" lon="5.72827">
        <ele>1269.8</ele>
        <time>2021-08-20T11:16:24Z</time>
      </trkpt>
      <trkpt lat="46.07293" lon="5.72827">
        <ele>1269.9</ele>
        <time>2021-08-20T11:16:25Z</time>
      </trkpt>
      <trkpt lat="46.07292" lon="5.72827">
        <ele>1269.9</ele>
        <time>2021-08-20T11:16:26Z</time>
      </trkpt>
      <trkpt lat="46.07289" lon="5.72827">
        <ele>1270</ele>
        <time>2021-08-20T11:16:28Z</time>
      </trkpt>
      <trkpt lat="46.07288" lon="5.72827">
        <ele>1270.1</ele>
        <time>2021-08-20T11:16:29Z</time>
      </trkpt>
      <trkpt lat="46.07287" lon="5.72827">
        <ele>1270.1</ele>
        <time>2021-08-20T11:16:30Z</time>
      </trkpt>
      <trkpt lat="46.07285" lon="5.72827">
        <ele>1270.3</ele>
        <time>2021-08-20T11:16:32Z</time>
      </trkpt>
      <trkpt lat="46.07283" lon="5.72828">
        <ele>1270.2</ele>
        <time>2021-08-20T11:16:34Z</time>
      </trkpt>
      <trkpt lat="46.07283" lon="5.72828">
        <ele>1270.3</ele>
        <time>2021-08-20T11:16:35Z</time>
      </trkpt>
      <trkpt lat="46.07282" lon="5.72827">
        <ele>1270.3</ele>
        <time>2021-08-20T11:16:36Z</time>
      </trkpt>
      <trkpt lat="46.07282" lon="5.72827">
        <ele>1270.3</ele>
        <time>2021-08-20T11:16:38Z</time>
      </trkpt>
      <trkpt lat="46.07282" lon="5.72827">
        <ele>1270.2</ele>
        <time>2021-08-20T11:16:40Z</time>
      </trkpt>
      <trkpt lat="46.07282" lon="5.72827">
        <ele>1270.2</ele>
        <time>2021-08-20T11:16:41Z</time>
      </trkpt>
      <trkpt lat="46.07282" lon="5.72827">
        <ele>1270.3</ele>
        <time>2021-08-20T11:16:42Z</time>
      </trkpt>
      <trkpt lat="46.07281" lon="5.72827">
        <ele>1270.3</ele>
        <time>2021-08-20T11:16:44Z</time>
      </trkpt>
      <trkpt lat="46.0728" lon="5.72827">
        <ele>1270.2</ele>
        <time>2021-08-20T11:16:45Z</time>
      </trkpt>
      <trkpt lat="46.07279" lon="5.72827">
        <ele>1270.3</ele>
        <time>2021-08-20T11:16:46Z</time>
      </trkpt>
      <trkpt lat="46.07278" lon="5.72827">
        <ele>1270.3</ele>
        <time>2021-08-20T11:16:47Z</time>
      </trkpt>
      <trkpt lat="46.07278" lon="5.72827">
        <ele>1270.4</ele>
        <time>2021-08-20T11:16:48Z</time>
      </trkpt>
      <trkpt lat="46.07273" lon="5.72826">
        <ele>1270.5</ele>
        <time>2021-08-20T11:16:51Z</time>
      </trkpt>
      <trkpt lat="46.07271" lon="5.72826">
        <ele>1270.7</ele>
        <time>2021-08-20T11:16:52Z</time>
      </trkpt>
      <trkpt lat="46.07267" lon="5.72826">
        <ele>1270.9</ele>
        <time>2021-08-20T11:16:54Z</time>
      </trkpt>
      <trkpt lat="46.07264" lon="5.72826">
        <ele>1271</ele>
        <time>2021-08-20T11:16:55Z</time>
      </trkpt>
      <trkpt lat="46.07263" lon="5.72826">
        <ele>1271.1</ele>
        <time>2021-08-20T11:16:56Z</time>
      </trkpt>
      <trkpt lat="46.07259" lon="5.72826">
        <ele>1271.3</ele>
        <time>2021-08-20T11:16:58Z</time>
      </trkpt>
      <trkpt lat="46.07257" lon="5.72826">
        <ele>1271.4</ele>
        <time>2021-08-20T11:16:59Z</time>
      </trkpt>
      <trkpt lat="46.07256" lon="5.72827">
        <ele>1271.4</ele>
        <time>2021-08-20T11:17:00Z</time>
      </trkpt>
      <trkpt lat="46.07253" lon="5.72829">
        <ele>1271.6</ele>
        <time>2021-08-20T11:17:02Z</time>
      </trkpt>
      <trkpt lat="46.07252" lon="5.7283">
        <ele>1271.7</ele>
        <time>2021-08-20T11:17:03Z</time>
      </trkpt>
      <trkpt lat="46.07249" lon="5.72833">
        <ele>1271.9</ele>
        <time>2021-08-20T11:17:04Z</time>
      </trkpt>
      <trkpt lat="46.07247" lon="5.72835">
        <ele>1271.9</ele>
        <time>2021-08-20T11:17:05Z</time>
      </trkpt>
      <trkpt lat="46.07244" lon="5.72839">
        <ele>1272.1</ele>
        <time>2021-08-20T11:17:07Z</time>
      </trkpt>
      <trkpt lat="46.0724" lon="5.72842">
        <ele>1272.3</ele>
        <time>2021-08-20T11:17:09Z</time>
      </trkpt>
      <trkpt lat="46.07238" lon="5.72845">
        <ele>1272.4</ele>
        <time>2021-08-20T11:17:10Z</time>
      </trkpt>
      <trkpt lat="46.07237" lon="5.72846">
        <ele>1272.5</ele>
        <time>2021-08-20T11:17:11Z</time>
      </trkpt>
      <trkpt lat="46.07235" lon="5.72849">
        <ele>1272.5</ele>
        <time>2021-08-20T11:17:13Z</time>
      </trkpt>
      <trkpt lat="46.07232" lon="5.72852">
        <ele>1272.6</ele>
        <time>2021-08-20T11:17:14Z</time>
      </trkpt>
      <trkpt lat="46.0723" lon="5.72855">
        <ele>1272.7</ele>
        <time>2021-08-20T11:17:16Z</time>
      </trkpt>
      <trkpt lat="46.0723" lon="5.72857">
        <ele>1272.8</ele>
        <time>2021-08-20T11:17:17Z</time>
      </trkpt>
      <trkpt lat="46.07228" lon="5.7286">
        <ele>1272.8</ele>
        <time>2021-08-20T11:17:19Z</time>
      </trkpt>
      <trkpt lat="46.07227" lon="5.72864">
        <ele>1272.9</ele>
        <time>2021-08-20T11:17:20Z</time>
      </trkpt>
      <trkpt lat="46.07227" lon="5.72866">
        <ele>1272.9</ele>
        <time>2021-08-20T11:17:21Z</time>
      </trkpt>
      <trkpt lat="46.07226" lon="5.72869">
        <ele>1273</ele>
        <time>2021-08-20T11:17:22Z</time>
      </trkpt>
      <trkpt lat="46.07225" lon="5.72876">
        <ele>1273.1</ele>
        <time>2021-08-20T11:17:24Z</time>
      </trkpt>
      <trkpt lat="46.07225" lon="5.72878">
        <ele>1273.1</ele>
        <time>2021-08-20T11:17:25Z</time>
      </trkpt>
      <trkpt lat="46.07225" lon="5.72881">
        <ele>1273.2</ele>
        <time>2021-08-20T11:17:26Z</time>
      </trkpt>
      <trkpt lat="46.07223" lon="5.72885">
        <ele>1273.2</ele>
        <time>2021-08-20T11:17:28Z</time>
      </trkpt>
      <trkpt lat="46.07223" lon="5.7289">
        <ele>1273.3</ele>
        <time>2021-08-20T11:17:29Z</time>
      </trkpt>
      <trkpt lat="46.07222" lon="5.72895">
        <ele>1273.3</ele>
        <time>2021-08-20T11:17:31Z</time>
      </trkpt>
      <trkpt lat="46.0722" lon="5.72901">
        <ele>1273.3</ele>
        <time>2021-08-20T11:17:32Z</time>
      </trkpt>
      <trkpt lat="46.07217" lon="5.72907">
        <ele>1273.4</ele>
        <time>2021-08-20T11:17:33Z</time>
      </trkpt>
      <trkpt lat="46.07215" lon="5.72912">
        <ele>1273.4</ele>
        <time>2021-08-20T11:17:34Z</time>
      </trkpt>
      <trkpt lat="46.07211" lon="5.72919">
        <ele>1273.5</ele>
        <time>2021-08-20T11:17:36Z</time>
      </trkpt>
      <trkpt lat="46.07209" lon="5.72922">
        <ele>1273.5</ele>
        <time>2021-08-20T11:17:37Z</time>
      </trkpt>
      <trkpt lat="46.07208" lon="5.72925">
        <ele>1273.5</ele>
        <time>2021-08-20T11:17:38Z</time>
      </trkpt>
      <trkpt lat="46.07206" lon="5.72927">
        <ele>1273.5</ele>
        <time>2021-08-20T11:17:40Z</time>
      </trkpt>
      <trkpt lat="46.07205" lon="5.72929">
        <ele>1273.5</ele>
        <time>2021-08-20T11:17:41Z</time>
      </trkpt>
      <trkpt lat="46.07204" lon="5.7293">
        <ele>1273.6</ele>
        <time>2021-08-20T11:17:42Z</time>
      </trkpt>
      <trkpt lat="46.07203" lon="5.72929">
        <ele>1273.6</ele>
        <time>2021-08-20T11:17:43Z</time>
      </trkpt>
      <trkpt lat="46.07201" lon="5.7293">
        <ele>1273.6</ele>
        <time>2021-08-20T11:17:44Z</time>
      </trkpt>
      <trkpt lat="46.07201" lon="5.7293">
        <ele>1273.6</ele>
        <time>2021-08-20T11:17:46Z</time>
      </trkpt>
      <trkpt lat="46.07201" lon="5.72931">
        <ele>1273.6</ele>
        <time>2021-08-20T11:17:47Z</time>
      </trkpt>
      <trkpt lat="46.07201" lon="5.72931">
        <ele>1273.6</ele>
        <time>2021-08-20T11:17:48Z</time>
      </trkpt>
      <trkpt lat="46.07201" lon="5.72932">
        <ele>1273.6</ele>
        <time>2021-08-20T11:17:49Z</time>
      </trkpt>
      <trkpt lat="46.072" lon="5.72932">
        <ele>1273.6</ele>
        <time>2021-08-20T11:17:51Z</time>
      </trkpt>
      <trkpt lat="46.072" lon="5.72932">
        <ele>1273.6</ele>
        <time>2021-08-20T11:17:53Z</time>
      </trkpt>
      <trkpt lat="46.072" lon="5.72932">
        <ele>1273.6</ele>
        <time>2021-08-20T11:17:55Z</time>
      </trkpt>
      <trkpt lat="46.07181" lon="5.72939">
        <ele>1273.3</ele>
        <time>2021-08-20T11:18:33Z</time>
      </trkpt>
      <trkpt lat="46.07179" lon="5.72941">
        <ele>1273.3</ele>
        <time>2021-08-20T11:18:34Z</time>
      </trkpt>
      <trkpt lat="46.07177" lon="5.72942">
        <ele>1273.2</ele>
        <time>2021-08-20T11:18:36Z</time>
      </trkpt>
      <trkpt lat="46.07174" lon="5.72943">
        <ele>1273.2</ele>
        <time>2021-08-20T11:18:37Z</time>
      </trkpt>
      <trkpt lat="46.07172" lon="5.72944">
        <ele>1273.1</ele>
        <time>2021-08-20T11:18:38Z</time>
      </trkpt>
      <trkpt lat="46.07171" lon="5.72945">
        <ele>1273.1</ele>
        <time>2021-08-20T11:18:39Z</time>
      </trkpt>
      <trkpt lat="46.0717" lon="5.72945">
        <ele>1273.1</ele>
        <time>2021-08-20T11:18:41Z</time>
      </trkpt>
      <trkpt lat="46.07169" lon="5.72945">
        <ele>1273.1</ele>
        <time>2021-08-20T11:18:42Z</time>
      </trkpt>
      <trkpt lat="46.07168" lon="5.72946">
        <ele>1273.1</ele>
        <time>2021-08-20T11:18:43Z</time>
      </trkpt>
      <trkpt lat="46.07166" lon="5.72946">
        <ele>1273.1</ele>
        <time>2021-08-20T11:18:45Z</time>
      </trkpt>
      <trkpt lat="46.07164" lon="5.72946">
        <ele>1273.1</ele>
        <time>2021-08-20T11:18:46Z</time>
      </trkpt>
      <trkpt lat="46.07163" lon="5.72946">
        <ele>1273.1</ele>
        <time>2021-08-20T11:18:47Z</time>
      </trkpt>
      <trkpt lat="46.07162" lon="5.72946">
        <ele>1273.1</ele>
        <time>2021-08-20T11:18:48Z</time>
      </trkpt>
      <trkpt lat="46.07161" lon="5.72946">
        <ele>1273.2</ele>
        <time>2021-08-20T11:18:49Z</time>
      </trkpt>
      <trkpt lat="46.07161" lon="5.72945">
        <ele>1273.2</ele>
        <time>2021-08-20T11:18:50Z</time>
      </trkpt>
      <trkpt lat="46.07161" lon="5.72945">
        <ele>1273.2</ele>
        <time>2021-08-20T11:18:52Z</time>
      </trkpt>
      <trkpt lat="46.0716" lon="5.72945">
        <ele>1273.2</ele>
        <time>2021-08-20T11:18:53Z</time>
      </trkpt>
      <trkpt lat="46.0716" lon="5.72945">
        <ele>1273.2</ele>
        <time>2021-08-20T11:18:54Z</time>
      </trkpt>
      <trkpt lat="46.0716" lon="5.72945">
        <ele>1273.2</ele>
        <time>2021-08-20T11:18:56Z</time>
      </trkpt>
      <trkpt lat="46.07159" lon="5.72946">
        <ele>1273.2</ele>
        <time>2021-08-20T11:18:57Z</time>
      </trkpt>
      <trkpt lat="46.07156" lon="5.72948">
        <ele>1273.3</ele>
        <time>2021-08-20T11:18:58Z</time>
      </trkpt>
      <trkpt lat="46.07153" lon="5.72949">
        <ele>1273.4</ele>
        <time>2021-08-20T11:19:03Z</time>
      </trkpt>
      <trkpt lat="46.07151" lon="5.72951">
        <ele>1273.5</ele>
        <time>2021-08-20T11:19:04Z</time>
      </trkpt>
      <trkpt lat="46.07148" lon="5.72952">
        <ele>1273.7</ele>
        <time>2021-08-20T11:19:05Z</time>
      </trkpt>
      <trkpt lat="46.07146" lon="5.72955">
        <ele>1273.8</ele>
        <time>2021-08-20T11:19:07Z</time>
      </trkpt>
      <trkpt lat="46.07145" lon="5.72955">
        <ele>1273.9</ele>
        <time>2021-08-20T11:19:08Z</time>
      </trkpt>
      <trkpt lat="46.07142" lon="5.72961">
        <ele>1274.2</ele>
        <time>2021-08-20T11:19:09Z</time>
      </trkpt>
      <trkpt lat="46.0714" lon="5.72966">
        <ele>1274.5</ele>
        <time>2021-08-20T11:19:11Z</time>
      </trkpt>
      <trkpt lat="46.07137" lon="5.72972">
        <ele>1274.9</ele>
        <time>2021-08-20T11:19:12Z</time>
      </trkpt>
      <trkpt lat="46.07135" lon="5.72977">
        <ele>1275.3</ele>
        <time>2021-08-20T11:19:14Z</time>
      </trkpt>
      <trkpt lat="46.07132" lon="5.72983">
        <ele>1275.6</ele>
        <time>2021-08-20T11:19:16Z</time>
      </trkpt>
      <trkpt lat="46.0713" lon="5.72988">
        <ele>1276.1</ele>
        <time>2021-08-20T11:19:17Z</time>
      </trkpt>
      <trkpt lat="46.07127" lon="5.72993">
        <ele>1276.5</ele>
        <time>2021-08-20T11:19:19Z</time>
      </trkpt>
      <trkpt lat="46.07125" lon="5.72999">
        <ele>1276.9</ele>
        <time>2021-08-20T11:19:20Z</time>
      </trkpt>
      <trkpt lat="46.07122" lon="5.73004">
        <ele>1277.2</ele>
        <time>2021-08-20T11:19:22Z</time>
      </trkpt>
      <trkpt lat="46.0712" lon="5.7301">
        <ele>1277.6</ele>
        <time>2021-08-20T11:20:46Z</time>
      </trkpt>
      <trkpt lat="46.07117" lon="5.73015">
        <ele>1278</ele>
        <time>2021-08-20T11:20:47Z</time>
      </trkpt>
      <trkpt lat="46.07114" lon="5.7302">
        <ele>1278.4</ele>
        <time>2021-08-20T11:20:48Z</time>
      </trkpt>
      <trkpt lat="46.07112" lon="5.73024">
        <ele>1278.6</ele>
        <time>2021-08-20T11:20:49Z</time>
      </trkpt>
      <trkpt lat="46.0711" lon="5.73029">
        <ele>1279</ele>
        <time>2021-08-20T11:20:51Z</time>
      </trkpt>
      <trkpt lat="46.07108" lon="5.73034">
        <ele>1279.3</ele>
        <time>2021-08-20T11:20:52Z</time>
      </trkpt>
      <trkpt lat="46.07103" lon="5.73039">
        <ele>1280</ele>
        <time>2021-08-20T11:20:54Z</time>
      </trkpt>
      <trkpt lat="46.071" lon="5.7304">
        <ele>1280.4</ele>
        <time>2021-08-20T11:20:55Z</time>
      </trkpt>
      <trkpt lat="46.07097" lon="5.7304">
        <ele>1280.8</ele>
        <time>2021-08-20T11:20:56Z</time>
      </trkpt>
      <trkpt lat="46.07092" lon="5.73042">
        <ele>1281.6</ele>
        <time>2021-08-20T11:20:58Z</time>
      </trkpt>
      <trkpt lat="46.07089" lon="5.73042">
        <ele>1282.2</ele>
        <time>2021-08-20T11:20:59Z</time>
      </trkpt>
      <trkpt lat="46.07089" lon="5.73041">
        <ele>1282.4</ele>
        <time>2021-08-20T11:21:00Z</time>
      </trkpt>
      <trkpt lat="46.07087" lon="5.73039">
        <ele>1282.7</ele>
        <time>2021-08-20T11:21:02Z</time>
      </trkpt>
      <trkpt lat="46.07086" lon="5.73037">
        <ele>1283</ele>
        <time>2021-08-20T11:21:04Z</time>
      </trkpt>
      <trkpt lat="46.07085" lon="5.73037">
        <ele>1283.1</ele>
        <time>2021-08-20T11:21:05Z</time>
      </trkpt>
      <trkpt lat="46.07084" lon="5.73039">
        <ele>1283.4</ele>
        <time>2021-08-20T11:21:07Z</time>
      </trkpt>
      <trkpt lat="46.07081" lon="5.73041">
        <ele>1284</ele>
        <time>2021-08-20T11:21:08Z</time>
      </trkpt>
      <trkpt lat="46.07077" lon="5.73045">
        <ele>1284.7</ele>
        <time>2021-08-20T11:21:09Z</time>
      </trkpt>
      <trkpt lat="46.07071" lon="5.7305">
        <ele>1285.4</ele>
        <time>2021-08-20T11:21:11Z</time>
      </trkpt>
      <trkpt lat="46.07067" lon="5.73055">
        <ele>1285.7</ele>
        <time>2021-08-20T11:21:12Z</time>
      </trkpt>
      <trkpt lat="46.07065" lon="5.7306">
        <ele>1285.8</ele>
        <time>2021-08-20T11:21:13Z</time>
      </trkpt>
      <trkpt lat="46.07065" lon="5.73061">
        <ele>1285.8</ele>
        <time>2021-08-20T11:21:14Z</time>
      </trkpt>
      <trkpt lat="46.07065" lon="5.73062">
        <ele>1285.8</ele>
        <time>2021-08-20T11:21:15Z</time>
      </trkpt>
      <trkpt lat="46.07066" lon="5.73067">
        <ele>1285.8</ele>
        <time>2021-08-20T11:21:17Z</time>
      </trkpt>
      <trkpt lat="46.07067" lon="5.73071">
        <ele>1285.8</ele>
        <time>2021-08-20T11:21:18Z</time>
      </trkpt>
      <trkpt lat="46.07068" lon="5.73075">
        <ele>1285.8</ele>
        <time>2021-08-20T11:21:19Z</time>
      </trkpt>
      <trkpt lat="46.07068" lon="5.73077">
        <ele>1285.7</ele>
        <time>2021-08-20T11:21:20Z</time>
      </trkpt>
      <trkpt lat="46.07067" lon="5.73079">
        <ele>1285.7</ele>
        <time>2021-08-20T11:21:22Z</time>
      </trkpt>
      <trkpt lat="46.07067" lon="5.73079">
        <ele>1285.7</ele>
        <time>2021-08-20T11:21:23Z</time>
      </trkpt>
      <trkpt lat="46.07062" lon="5.73079">
        <ele>1285.6</ele>
        <time>2021-08-20T11:21:24Z</time>
      </trkpt>
      <trkpt lat="46.07057" lon="5.73079">
        <ele>1285.5</ele>
        <time>2021-08-20T11:21:31Z</time>
      </trkpt>
      <trkpt lat="46.07053" lon="5.73079">
        <ele>1285.5</ele>
        <time>2021-08-20T11:21:32Z</time>
      </trkpt>
      <trkpt lat="46.07044" lon="5.73074">
        <ele>1285.5</ele>
        <time>2021-08-20T11:21:34Z</time>
      </trkpt>
      <trkpt lat="46.0704" lon="5.73071">
        <ele>1285.6</ele>
        <time>2021-08-20T11:21:35Z</time>
      </trkpt>
      <trkpt lat="46.07036" lon="5.73067">
        <ele>1285.7</ele>
        <time>2021-08-20T11:21:36Z</time>
      </trkpt>
      <trkpt lat="46.07033" lon="5.73064">
        <ele>1285.7</ele>
        <time>2021-08-20T11:21:37Z</time>
      </trkpt>
      <trkpt lat="46.07029" lon="5.73056">
        <ele>1285.8</ele>
        <time>2021-08-20T11:21:39Z</time>
      </trkpt>
      <trkpt lat="46.07025" lon="5.73048">
        <ele>1285.8</ele>
        <time>2021-08-20T11:21:40Z</time>
      </trkpt>
      <trkpt lat="46.07021" lon="5.73041">
        <ele>1285.9</ele>
        <time>2021-08-20T11:21:42Z</time>
      </trkpt>
      <trkpt lat="46.07019" lon="5.73037">
        <ele>1285.9</ele>
        <time>2021-08-20T11:21:43Z</time>
      </trkpt>
      <trkpt lat="46.07018" lon="5.73034">
        <ele>1285.9</ele>
        <time>2021-08-20T11:21:44Z</time>
      </trkpt>
      <trkpt lat="46.07018" lon="5.73034">
        <ele>1285.9</ele>
        <time>2021-08-20T11:21:45Z</time>
      </trkpt>
      <trkpt lat="46.07017" lon="5.73036">
        <ele>1285.8</ele>
        <time>2021-08-20T11:21:47Z</time>
      </trkpt>
      <trkpt lat="46.07016" lon="5.73037">
        <ele>1285.8</ele>
        <time>2021-08-20T11:21:48Z</time>
      </trkpt>
      <trkpt lat="46.07016" lon="5.73037">
        <ele>1285.8</ele>
        <time>2021-08-20T11:21:49Z</time>
      </trkpt>
      <trkpt lat="46.07016" lon="5.73037">
        <ele>1285.8</ele>
        <time>2021-08-20T11:21:50Z</time>
      </trkpt>
      <trkpt lat="46.07016" lon="5.73038">
        <ele>1285.8</ele>
        <time>2021-08-20T11:21:52Z</time>
      </trkpt>
      <trkpt lat="46.07015" lon="5.73038">
        <ele>1285.8</ele>
        <time>2021-08-20T11:21:53Z</time>
      </trkpt>
      <trkpt lat="46.0701" lon="5.73048">
        <ele>1285.7</ele>
        <time>2021-08-20T11:22:00Z</time>
      </trkpt>
      <trkpt lat="46.07008" lon="5.73049">
        <ele>1285.6</ele>
        <time>2021-08-20T11:22:01Z</time>
      </trkpt>
      <trkpt lat="46.07006" lon="5.73049">
        <ele>1285.6</ele>
        <time>2021-08-20T11:22:02Z</time>
      </trkpt>
      <trkpt lat="46.07005" lon="5.7305">
        <ele>1285.5</ele>
        <time>2021-08-20T11:22:04Z</time>
      </trkpt>
      <trkpt lat="46.07003" lon="5.7305">
        <ele>1285.5</ele>
        <time>2021-08-20T11:22:05Z</time>
      </trkpt>
      <trkpt lat="46.07002" lon="5.7305">
        <ele>1285.4</ele>
        <time>2021-08-20T11:22:06Z</time>
      </trkpt>
      <trkpt lat="46.07" lon="5.73049">
        <ele>1285.3</ele>
        <time>2021-08-20T11:22:08Z</time>
      </trkpt>
      <trkpt lat="46.06998" lon="5.73048">
        <ele>1285.3</ele>
        <time>2021-08-20T11:22:10Z</time>
      </trkpt>
      <trkpt lat="46.06992" lon="5.73049">
        <ele>1285.1</ele>
        <time>2021-08-20T11:22:12Z</time>
      </trkpt>
      <trkpt lat="46.0697" lon="5.73059">
        <ele>1285.1</ele>
        <time>2021-08-20T11:22:20Z</time>
      </trkpt>
      <trkpt lat="46.06963" lon="5.73061">
        <ele>1285.4</ele>
        <time>2021-08-20T11:22:22Z</time>
      </trkpt>
      <trkpt lat="46.0696" lon="5.73063">
        <ele>1285.5</ele>
        <time>2021-08-20T11:22:23Z</time>
      </trkpt>
      <trkpt lat="46.06959" lon="5.73064">
        <ele>1285.6</ele>
        <time>2021-08-20T11:22:24Z</time>
      </trkpt>
      <trkpt lat="46.06956" lon="5.73068">
        <ele>1285.8</ele>
        <time>2021-08-20T11:22:26Z</time>
      </trkpt>
      <trkpt lat="46.06954" lon="5.73071">
        <ele>1286</ele>
        <time>2021-08-20T11:22:27Z</time>
      </trkpt>
      <trkpt lat="46.06953" lon="5.73072">
        <ele>1286.1</ele>
        <time>2021-08-20T11:22:28Z</time>
      </trkpt>
      <trkpt lat="46.06948" lon="5.73075">
        <ele>1286.4</ele>
        <time>2021-08-20T11:22:29Z</time>
      </trkpt>
      <trkpt lat="46.06943" lon="5.73078">
        <ele>1286.7</ele>
        <time>2021-08-20T11:22:30Z</time>
      </trkpt>
      <trkpt lat="46.06935" lon="5.73091">
        <ele>1287.4</ele>
        <time>2021-08-20T11:22:32Z</time>
      </trkpt>
      <trkpt lat="46.06926" lon="5.73099">
        <ele>1287.6</ele>
        <time>2021-08-20T11:22:35Z</time>
      </trkpt>
      <trkpt lat="46.06926" lon="5.73101">
        <ele>1287.6</ele>
        <time>2021-08-20T11:22:36Z</time>
      </trkpt>
      <trkpt lat="46.06924" lon="5.73103">
        <ele>1287.6</ele>
        <time>2021-08-20T11:22:37Z</time>
      </trkpt>
      <trkpt lat="46.06923" lon="5.73104">
        <ele>1287.6</ele>
        <time>2021-08-20T11:22:38Z</time>
      </trkpt>
      <trkpt lat="46.06919" lon="5.73111">
        <ele>1287.7</ele>
        <time>2021-08-20T11:22:40Z</time>
      </trkpt>
      <trkpt lat="46.06918" lon="5.7311">
        <ele>1287.7</ele>
        <time>2021-08-20T11:22:41Z</time>
      </trkpt>
      <trkpt lat="46.06918" lon="5.73109">
        <ele>1287.7</ele>
        <time>2021-08-20T11:22:42Z</time>
      </trkpt>
      <trkpt lat="46.06918" lon="5.73108">
        <ele>1287.7</ele>
        <time>2021-08-20T11:22:44Z</time>
      </trkpt>
      <trkpt lat="46.06946" lon="5.73031">
        <ele>1288.2</ele>
        <time>2021-08-20T11:24:05Z</time>
      </trkpt>
      <trkpt lat="46.06947" lon="5.73031">
        <ele>1288.3</ele>
        <time>2021-08-20T11:24:06Z</time>
      </trkpt>
      <trkpt lat="46.06949" lon="5.7303">
        <ele>1288.4</ele>
        <time>2021-08-20T11:24:08Z</time>
      </trkpt>
      <trkpt lat="46.06953" lon="5.73032">
        <ele>1288.6</ele>
        <time>2021-08-20T11:24:10Z</time>
      </trkpt>
      <trkpt lat="46.06954" lon="5.73032">
        <ele>1288.7</ele>
        <time>2021-08-20T11:24:11Z</time>
      </trkpt>
      <trkpt lat="46.06954" lon="5.73029">
        <ele>1288.9</ele>
        <time>2021-08-20T11:24:13Z</time>
      </trkpt>
      <trkpt lat="46.06953" lon="5.73028">
        <ele>1289</ele>
        <time>2021-08-20T11:24:14Z</time>
      </trkpt>
      <trkpt lat="46.06952" lon="5.73025">
        <ele>1289.2</ele>
        <time>2021-08-20T11:24:16Z</time>
      </trkpt>
      <trkpt lat="46.06951" lon="5.73024">
        <ele>1289.2</ele>
        <time>2021-08-20T11:24:17Z</time>
      </trkpt>
      <trkpt lat="46.06951" lon="5.73024">
        <ele>1289.3</ele>
        <time>2021-08-20T11:24:18Z</time>
      </trkpt>
      <trkpt lat="46.06951" lon="5.73023">
        <ele>1289.3</ele>
        <time>2021-08-20T11:24:20Z</time>
      </trkpt>
      <trkpt lat="46.06952" lon="5.73024">
        <ele>1289.3</ele>
        <time>2021-08-20T11:24:22Z</time>
      </trkpt>
      <trkpt lat="46.06906" lon="5.7296">
        <ele>1296</ele>
        <time>2021-08-20T11:25:36Z</time>
      </trkpt>
      <trkpt lat="46.06904" lon="5.72959">
        <ele>1296.2</ele>
        <time>2021-08-20T11:25:37Z</time>
      </trkpt>
      <trkpt lat="46.06902" lon="5.72958">
        <ele>1296.4</ele>
        <time>2021-08-20T11:25:38Z</time>
      </trkpt>
      <trkpt lat="46.06901" lon="5.72957">
        <ele>1296.5</ele>
        <time>2021-08-20T11:25:40Z</time>
      </trkpt>
      <trkpt lat="46.06901" lon="5.72957">
        <ele>1296.5</ele>
        <time>2021-08-20T11:25:41Z</time>
      </trkpt>
      <trkpt lat="46.06901" lon="5.72957">
        <ele>1296.5</ele>
        <time>2021-08-20T11:25:42Z</time>
      </trkpt>
      <trkpt lat="46.069" lon="5.72957">
        <ele>1296.6</ele>
        <time>2021-08-20T11:25:44Z</time>
      </trkpt>
      <trkpt lat="46.069" lon="5.72958">
        <ele>1296.6</ele>
        <time>2021-08-20T11:25:46Z</time>
      </trkpt>
      <trkpt lat="46.06899" lon="5.72959">
        <ele>1296.7</ele>
        <time>2021-08-20T11:25:47Z</time>
      </trkpt>
      <trkpt lat="46.06899" lon="5.7296">
        <ele>1296.8</ele>
        <time>2021-08-20T11:25:49Z</time>
      </trkpt>
      <trkpt lat="46.06784" lon="5.72894">
        <ele>1305.7</ele>
        <time>2021-08-20T11:29:45Z</time>
      </trkpt>
      <trkpt lat="46.06781" lon="5.72896">
        <ele>1305.8</ele>
        <time>2021-08-20T11:29:46Z</time>
      </trkpt>
      <trkpt lat="46.06779" lon="5.72898">
        <ele>1305.9</ele>
        <time>2021-08-20T11:29:47Z</time>
      </trkpt>
      <trkpt lat="46.06776" lon="5.72899">
        <ele>1306</ele>
        <time>2021-08-20T11:29:49Z</time>
      </trkpt>
      <trkpt lat="46.06774" lon="5.72898">
        <ele>1306.1</ele>
        <time>2021-08-20T11:29:50Z</time>
      </trkpt>
      <trkpt lat="46.06773" lon="5.72898">
        <ele>1306.1</ele>
        <time>2021-08-20T11:29:51Z</time>
      </trkpt>
      <trkpt lat="46.06771" lon="5.72897">
        <ele>1306.1</ele>
        <time>2021-08-20T11:29:52Z</time>
      </trkpt>
      <trkpt lat="46.0677" lon="5.72897">
        <ele>1306.2</ele>
        <time>2021-08-20T11:29:54Z</time>
      </trkpt>
      <trkpt lat="46.06769" lon="5.72897">
        <ele>1306.2</ele>
        <time>2021-08-20T11:29:55Z</time>
      </trkpt>
      <trkpt lat="46.06768" lon="5.72897">
        <ele>1306.3</ele>
        <time>2021-08-20T11:29:57Z</time>
      </trkpt>
      <trkpt lat="46.06767" lon="5.72897">
        <ele>1306.3</ele>
        <time>2021-08-20T11:29:58Z</time>
      </trkpt>
      <trkpt lat="46.06766" lon="5.72897">
        <ele>1306.3</ele>
        <time>2021-08-20T11:29:59Z</time>
      </trkpt>
      <trkpt lat="46.06766" lon="5.72897">
        <ele>1306.4</ele>
        <time>2021-08-20T11:30:00Z</time>
      </trkpt>
      <trkpt lat="46.06766" lon="5.72897">
        <ele>1306.4</ele>
        <time>2021-08-20T11:30:01Z</time>
      </trkpt>
      <trkpt lat="46.06765" lon="5.72898">
        <ele>1306.4</ele>
        <time>2021-08-20T11:30:02Z</time>
      </trkpt>
      <trkpt lat="46.06765" lon="5.72898">
        <ele>1306.4</ele>
        <time>2021-08-20T11:30:03Z</time>
      </trkpt>
      <trkpt lat="46.06764" lon="5.72898">
        <ele>1306.4</ele>
        <time>2021-08-20T11:30:05Z</time>
      </trkpt>
      <trkpt lat="46.06764" lon="5.72898">
        <ele>1306.5</ele>
        <time>2021-08-20T11:30:06Z</time>
      </trkpt>
      <trkpt lat="46.06763" lon="5.72898">
        <ele>1306.5</ele>
        <time>2021-08-20T11:30:08Z</time>
      </trkpt>
      <trkpt lat="46.06763" lon="5.72898">
        <ele>1306.5</ele>
        <time>2021-08-20T11:30:09Z</time>
      </trkpt>
      <trkpt lat="46.06763" lon="5.72899">
        <ele>1306.5</ele>
        <time>2021-08-20T11:30:10Z</time>
      </trkpt>
      <trkpt lat="46.06762" lon="5.72899">
        <ele>1306.5</ele>
        <time>2021-08-20T11:30:12Z</time>
      </trkpt>
      <trkpt lat="46.06762" lon="5.72899">
        <ele>1306.6</ele>
        <time>2021-08-20T11:30:14Z</time>
      </trkpt>
      <trkpt lat="46.06761" lon="5.72899">
        <ele>1306.6</ele>
        <time>2021-08-20T11:30:15Z</time>
      </trkpt>
      <trkpt lat="46.06759" lon="5.72902">
        <ele>1306.8</ele>
        <time>2021-08-20T11:30:17Z</time>
      </trkpt>
      <trkpt lat="46.06758" lon="5.72903">
        <ele>1306.9</ele>
        <time>2021-08-20T11:30:18Z</time>
      </trkpt>
      <trkpt lat="46.06755" lon="5.72907">
        <ele>1307.2</ele>
        <time>2021-08-20T11:30:19Z</time>
      </trkpt>
      <trkpt lat="46.06752" lon="5.72911">
        <ele>1307.6</ele>
        <time>2021-08-20T11:30:21Z</time>
      </trkpt>
      <trkpt lat="46.06751" lon="5.72912">
        <ele>1307.8</ele>
        <time>2021-08-20T11:30:22Z</time>
      </trkpt>
      <trkpt lat="46.0675" lon="5.72916">
        <ele>1308.1</ele>
        <time>2021-08-20T11:30:24Z</time>
      </trkpt>
      <trkpt lat="46.0675" lon="5.72917">
        <ele>1308.2</ele>
        <time>2021-08-20T11:30:25Z</time>
      </trkpt>
      <trkpt lat="46.06749" lon="5.72917">
        <ele>1308.3</ele>
        <time>2021-08-20T11:30:26Z</time>
      </trkpt>
      <trkpt lat="46.06748" lon="5.72917">
        <ele>1308.4</ele>
        <time>2021-08-20T11:30:28Z</time>
      </trkpt>
      <trkpt lat="46.06748" lon="5.72916">
        <ele>1308.5</ele>
        <time>2021-08-20T11:30:30Z</time>
      </trkpt>
      <trkpt lat="46.06748" lon="5.72914">
        <ele>1308.7</ele>
        <time>2021-08-20T11:30:32Z</time>
      </trkpt>
      <trkpt lat="46.06748" lon="5.72913">
        <ele>1308.8</ele>
        <time>2021-08-20T11:30:34Z</time>
      </trkpt>
      <trkpt lat="46.06748" lon="5.72912">
        <ele>1308.9</ele>
        <time>2021-08-20T11:30:35Z</time>
      </trkpt>
      <trkpt lat="46.06748" lon="5.72911">
        <ele>1309</ele>
        <time>2021-08-20T11:30:37Z</time>
      </trkpt>
      <trkpt lat="46.06748" lon="5.72908">
        <ele>1309.2</ele>
        <time>2021-08-20T11:30:39Z</time>
      </trkpt>
      <trkpt lat="46.06747" lon="5.72906">
        <ele>1309.5</ele>
        <time>2021-08-20T11:30:40Z</time>
      </trkpt>
      <trkpt lat="46.06747" lon="5.72904">
        <ele>1309.6</ele>
        <time>2021-08-20T11:30:42Z</time>
      </trkpt>
      <trkpt lat="46.06746" lon="5.72901">
        <ele>1309.9</ele>
        <time>2021-08-20T11:30:43Z</time>
      </trkpt>
      <trkpt lat="46.06746" lon="5.72898">
        <ele>1310.2</ele>
        <time>2021-08-20T11:30:45Z</time>
      </trkpt>
      <trkpt lat="46.06745" lon="5.72894">
        <ele>1310.6</ele>
        <time>2021-08-20T11:30:46Z</time>
      </trkpt>
      <trkpt lat="46.06745" lon="5.72893">
        <ele>1310.7</ele>
        <time>2021-08-20T11:30:47Z</time>
      </trkpt>
      <trkpt lat="46.06745" lon="5.7289">
        <ele>1310.9</ele>
        <time>2021-08-20T11:30:49Z</time>
      </trkpt>
      <trkpt lat="46.06745" lon="5.72887">
        <ele>1311.1</ele>
        <time>2021-08-20T11:30:50Z</time>
      </trkpt>
      <trkpt lat="46.06744" lon="5.72884">
        <ele>1311.4</ele>
        <time>2021-08-20T11:30:51Z</time>
      </trkpt>
      <trkpt lat="46.06744" lon="5.72882">
        <ele>1311.5</ele>
        <time>2021-08-20T11:30:53Z</time>
      </trkpt>
      <trkpt lat="46.06744" lon="5.7288">
        <ele>1311.6</ele>
        <time>2021-08-20T11:30:54Z</time>
      </trkpt>
      <trkpt lat="46.06744" lon="5.72879">
        <ele>1311.7</ele>
        <time>2021-08-20T11:30:56Z</time>
      </trkpt>
      <trkpt lat="46.06744" lon="5.72877">
        <ele>1311.8</ele>
        <time>2021-08-20T11:30:57Z</time>
      </trkpt>
      <trkpt lat="46.06742" lon="5.72876">
        <ele>1311.9</ele>
        <time>2021-08-20T11:30:58Z</time>
      </trkpt>
      <trkpt lat="46.06741" lon="5.72875">
        <ele>1312</ele>
        <time>2021-08-20T11:31:00Z</time>
      </trkpt>
      <trkpt lat="46.06739" lon="5.72874">
        <ele>1312.2</ele>
        <time>2021-08-20T11:31:01Z</time>
      </trkpt>
      <trkpt lat="46.06738" lon="5.72873">
        <ele>1312.3</ele>
        <time>2021-08-20T11:31:03Z</time>
      </trkpt>
      <trkpt lat="46.06738" lon="5.72873">
        <ele>1312.3</ele>
        <time>2021-08-20T11:31:04Z</time>
      </trkpt>
      <trkpt lat="46.06737" lon="5.72873">
        <ele>1312.3</ele>
        <time>2021-08-20T11:31:05Z</time>
      </trkpt>
      <trkpt lat="46.06737" lon="5.72873">
        <ele>1312.4</ele>
        <time>2021-08-20T11:31:06Z</time>
      </trkpt>
      <trkpt lat="46.06736" lon="5.72873">
        <ele>1312.4</ele>
        <time>2021-08-20T11:31:07Z</time>
      </trkpt>
      <trkpt lat="46.06736" lon="5.72873">
        <ele>1312.4</ele>
        <time>2021-08-20T11:31:09Z</time>
      </trkpt>
      <trkpt lat="46.06736" lon="5.72873">
        <ele>1312.4</ele>
        <time>2021-08-20T11:31:10Z</time>
      </trkpt>
      <trkpt lat="46.06735" lon="5.72873">
        <ele>1312.4</ele>
        <time>2021-08-20T11:31:12Z</time>
      </trkpt>
      <trkpt lat="46.06733" lon="5.72873">
        <ele>1312.5</ele>
        <time>2021-08-20T11:31:14Z</time>
      </trkpt>
      <trkpt lat="46.06731" lon="5.72872">
        <ele>1312.7</ele>
        <time>2021-08-20T11:31:16Z</time>
      </trkpt>
      <trkpt lat="46.06729" lon="5.72872">
        <ele>1312.8</ele>
        <time>2021-08-20T11:31:18Z</time>
      </trkpt>
      <trkpt lat="46.06727" lon="5.72871">
        <ele>1312.9</ele>
        <time>2021-08-20T11:31:20Z</time>
      </trkpt>
      <trkpt lat="46.06725" lon="5.72869">
        <ele>1313</ele>
        <time>2021-08-20T11:31:22Z</time>
      </trkpt>
      <trkpt lat="46.0672" lon="5.72866">
        <ele>1313.2</ele>
        <time>2021-08-20T11:31:24Z</time>
      </trkpt>
      <trkpt lat="46.06719" lon="5.72865">
        <ele>1313.3</ele>
        <time>2021-08-20T11:31:26Z</time>
      </trkpt>
      <trkpt lat="46.06718" lon="5.72865">
        <ele>1313.3</ele>
        <time>2021-08-20T11:31:28Z</time>
      </trkpt>
      <trkpt lat="46.06718" lon="5.72865">
        <ele>1313.3</ele>
        <time>2021-08-20T11:31:29Z</time>
      </trkpt>
      <trkpt lat="46.06718" lon="5.72865">
        <ele>1313.3</ele>
        <time>2021-08-20T11:31:31Z</time>
      </trkpt>
      <trkpt lat="46.06718" lon="5.72865">
        <ele>1313.3</ele>
        <time>2021-08-20T11:31:32Z</time>
      </trkpt>
      <trkpt lat="46.06718" lon="5.72865">
        <ele>1313.3</ele>
        <time>2021-08-20T11:31:34Z</time>
      </trkpt>
      <trkpt lat="46.06718" lon="5.72865">
        <ele>1313.3</ele>
        <time>2021-08-20T11:31:36Z</time>
      </trkpt>
      <trkpt lat="46.06718" lon="5.72865">
        <ele>1313.3</ele>
        <time>2021-08-20T11:31:37Z</time>
      </trkpt>
      <trkpt lat="46.06718" lon="5.72865">
        <ele>1313.3</ele>
        <time>2021-08-20T11:31:39Z</time>
      </trkpt>
      <trkpt lat="46.06718" lon="5.72865">
        <ele>1313.3</ele>
        <time>2021-08-20T11:31:40Z</time>
      </trkpt>
      <trkpt lat="46.06718" lon="5.72865">
        <ele>1313.3</ele>
        <time>2021-08-20T11:31:42Z</time>
      </trkpt>
      <trkpt lat="46.06718" lon="5.72865">
        <ele>1313.3</ele>
        <time>2021-08-20T11:31:43Z</time>
      </trkpt>
      <trkpt lat="46.06718" lon="5.72867">
        <ele>1313.4</ele>
        <time>2021-08-20T11:31:44Z</time>
      </trkpt>
      <trkpt lat="46.0672" lon="5.72878">
        <ele>1313.7</ele>
        <time>2021-08-20T11:31:46Z</time>
      </trkpt>
      <trkpt lat="46.0672" lon="5.72882">
        <ele>1313.9</ele>
        <time>2021-08-20T11:31:47Z</time>
      </trkpt>
      <trkpt lat="46.0672" lon="5.72886">
        <ele>1314</ele>
        <time>2021-08-20T11:31:49Z</time>
      </trkpt>
      <trkpt lat="46.06719" lon="5.72887">
        <ele>1314.1</ele>
        <time>2021-08-20T11:31:51Z</time>
      </trkpt>
      <trkpt lat="46.06718" lon="5.72889">
        <ele>1314.1</ele>
        <time>2021-08-20T11:31:52Z</time>
      </trkpt>
      <trkpt lat="46.06718" lon="5.7289">
        <ele>1314.2</ele>
        <time>2021-08-20T11:31:54Z</time>
      </trkpt>
      <trkpt lat="46.06717" lon="5.72891">
        <ele>1314.3</ele>
        <time>2021-08-20T11:31:55Z</time>
      </trkpt>
      <trkpt lat="46.06716" lon="5.72892">
        <ele>1314.4</ele>
        <time>2021-08-20T11:31:56Z</time>
      </trkpt>
      <trkpt lat="46.06716" lon="5.72893">
        <ele>1314.4</ele>
        <time>2021-08-20T11:31:58Z</time>
      </trkpt>
      <trkpt lat="46.06715" lon="5.72893">
        <ele>1314.5</ele>
        <time>2021-08-20T11:31:59Z</time>
      </trkpt>
      <trkpt lat="46.06715" lon="5.72893">
        <ele>1314.5</ele>
        <time>2021-08-20T11:32:00Z</time>
      </trkpt>
      <trkpt lat="46.06715" lon="5.72893">
        <ele>1314.5</ele>
        <time>2021-08-20T11:32:01Z</time>
      </trkpt>
      <trkpt lat="46.06714" lon="5.72893">
        <ele>1314.5</ele>
        <time>2021-08-20T11:32:02Z</time>
      </trkpt>
      <trkpt lat="46.06714" lon="5.72893">
        <ele>1314.6</ele>
        <time>2021-08-20T11:32:04Z</time>
      </trkpt>
      <trkpt lat="46.06714" lon="5.72893">
        <ele>1314.6</ele>
        <time>2021-08-20T11:32:05Z</time>
      </trkpt>
      <trkpt lat="46.06714" lon="5.72893">
        <ele>1314.6</ele>
        <time>2021-08-20T11:32:07Z</time>
      </trkpt>
      <trkpt lat="46.06714" lon="5.72893">
        <ele>1314.6</ele>
        <time>2021-08-20T11:32:08Z</time>
      </trkpt>
      <trkpt lat="46.06714" lon="5.72893">
        <ele>1314.6</ele>
        <time>2021-08-20T11:32:09Z</time>
      </trkpt>
      <trkpt lat="46.06713" lon="5.72893">
        <ele>1314.6</ele>
        <time>2021-08-20T11:32:11Z</time>
      </trkpt>
      <trkpt lat="46.06713" lon="5.72892">
        <ele>1314.7</ele>
        <time>2021-08-20T11:32:12Z</time>
      </trkpt>
      <trkpt lat="46.06711" lon="5.72889">
        <ele>1314.9</ele>
        <time>2021-08-20T11:32:14Z</time>
      </trkpt>
      <trkpt lat="46.0671" lon="5.72888">
        <ele>1315.1</ele>
        <time>2021-08-20T11:32:16Z</time>
      </trkpt>
      <trkpt lat="46.06708" lon="5.72886">
        <ele>1315.3</ele>
        <time>2021-08-20T11:32:17Z</time>
      </trkpt>
      <trkpt lat="46.06705" lon="5.72885">
        <ele>1315.6</ele>
        <time>2021-08-20T11:32:18Z</time>
      </trkpt>
      <trkpt lat="46.06703" lon="5.72883">
        <ele>1315.9</ele>
        <time>2021-08-20T11:32:19Z</time>
      </trkpt>
      <trkpt lat="46.06702" lon="5.72881">
        <ele>1316.1</ele>
        <time>2021-08-20T11:32:21Z</time>
      </trkpt>
      <trkpt lat="46.067" lon="5.72879">
        <ele>1316.4</ele>
        <time>2021-08-20T11:32:23Z</time>
      </trkpt>
      <trkpt lat="46.06698" lon="5.72877">
        <ele>1316.6</ele>
        <time>2021-08-20T11:32:25Z</time>
      </trkpt>
      <trkpt lat="46.06695" lon="5.72876">
        <ele>1317</ele>
        <time>2021-08-20T11:32:26Z</time>
      </trkpt>
      <trkpt lat="46.06694" lon="5.72876">
        <ele>1317.1</ele>
        <time>2021-08-20T11:32:27Z</time>
      </trkpt>
      <trkpt lat="46.06691" lon="5.72875">
        <ele>1317.5</ele>
        <time>2021-08-20T11:32:29Z</time>
      </trkpt>
      <trkpt lat="46.0669" lon="5.72875">
        <ele>1317.5</ele>
        <time>2021-08-20T11:32:30Z</time>
      </trkpt>
      <trkpt lat="46.06689" lon="5.72874">
        <ele>1317.7</ele>
        <time>2021-08-20T11:32:31Z</time>
      </trkpt>
      <trkpt lat="46.06687" lon="5.72874">
        <ele>1317.8</ele>
        <time>2021-08-20T11:32:32Z</time>
      </trkpt>
      <trkpt lat="46.06684" lon="5.72874">
        <ele>1318.2</ele>
        <time>2021-08-20T11:32:34Z</time>
      </trkpt>
      <trkpt lat="46.0668" lon="5.72876">
        <ele>1318.6</ele>
        <time>2021-08-20T11:32:35Z</time>
      </trkpt>
      <trkpt lat="46.06675" lon="5.72879">
        <ele>1318.9</ele>
        <time>2021-08-20T11:32:37Z</time>
      </trkpt>
      <trkpt lat="46.06673" lon="5.72879">
        <ele>1319.1</ele>
        <time>2021-08-20T11:32:38Z</time>
      </trkpt>
      <trkpt lat="46.06673" lon="5.72878">
        <ele>1319.1</ele>
        <time>2021-08-20T11:32:39Z</time>
      </trkpt>
      <trkpt lat="46.0667" lon="5.72876">
        <ele>1319.2</ele>
        <time>2021-08-20T11:32:41Z</time>
      </trkpt>
      <trkpt lat="46.06669" lon="5.72876">
        <ele>1319.3</ele>
        <time>2021-08-20T11:32:42Z</time>
      </trkpt>
      <trkpt lat="46.06669" lon="5.72874">
        <ele>1319.3</ele>
        <time>2021-08-20T11:32:43Z</time>
      </trkpt>
      <trkpt lat="46.06668" lon="5.72874">
        <ele>1319.3</ele>
        <time>2021-08-20T11:32:45Z</time>
      </trkpt>
      <trkpt lat="46.06668" lon="5.72874">
        <ele>1319.3</ele>
        <time>2021-08-20T11:32:46Z</time>
      </trkpt>
      <trkpt lat="46.06668" lon="5.72873">
        <ele>1319.4</ele>
        <time>2021-08-20T11:32:47Z</time>
      </trkpt>
      <trkpt lat="46.06668" lon="5.72872">
        <ele>1319.4</ele>
        <time>2021-08-20T11:32:49Z</time>
      </trkpt>
      <trkpt lat="46.06668" lon="5.72872">
        <ele>1319.4</ele>
        <time>2021-08-20T11:32:50Z</time>
      </trkpt>
      <trkpt lat="46.06668" lon="5.72872">
        <ele>1319.4</ele>
        <time>2021-08-20T11:32:52Z</time>
      </trkpt>
      <trkpt lat="46.06668" lon="5.72872">
        <ele>1319.4</ele>
        <time>2021-08-20T11:32:53Z</time>
      </trkpt>
      <trkpt lat="46.06668" lon="5.72872">
        <ele>1319.4</ele>
        <time>2021-08-20T11:32:55Z</time>
      </trkpt>
      <trkpt lat="46.06668" lon="5.72872">
        <ele>1319.4</ele>
        <time>2021-08-20T11:32:57Z</time>
      </trkpt>
      <trkpt lat="46.06668" lon="5.72871">
        <ele>1319.4</ele>
        <time>2021-08-20T11:32:58Z</time>
      </trkpt>
      <trkpt lat="46.06668" lon="5.72868">
        <ele>1319.4</ele>
        <time>2021-08-20T11:33:00Z</time>
      </trkpt>
      <trkpt lat="46.06622" lon="5.7286">
        <ele>1320</ele>
        <time>2021-08-20T11:34:03Z</time>
      </trkpt>
      <trkpt lat="46.06618" lon="5.72859">
        <ele>1320.1</ele>
        <time>2021-08-20T11:34:04Z</time>
      </trkpt>
      <trkpt lat="46.06612" lon="5.72859">
        <ele>1320.2</ele>
        <time>2021-08-20T11:34:05Z</time>
      </trkpt>
      <trkpt lat="46.06607" lon="5.72859">
        <ele>1320.4</ele>
        <time>2021-08-20T11:34:07Z</time>
      </trkpt>
      <trkpt lat="46.06602" lon="5.72861">
        <ele>1320.6</ele>
        <time>2021-08-20T11:34:08Z</time>
      </trkpt>
      <trkpt lat="46.06596" lon="5.72861">
        <ele>1320.9</ele>
        <time>2021-08-20T11:34:10Z</time>
      </trkpt>
      <trkpt lat="46.06593" lon="5.72862">
        <ele>1321</ele>
        <time>2021-08-20T11:34:11Z</time>
      </trkpt>
      <trkpt lat="46.06587" lon="5.72865">
        <ele>1321.3</ele>
        <time>2021-08-20T11:34:13Z</time>
      </trkpt>
      <trkpt lat="46.06582" lon="5.72867">
        <ele>1321.4</ele>
        <time>2021-08-20T11:34:14Z</time>
      </trkpt>
      <trkpt lat="46.06578" lon="5.72872">
        <ele>1321.6</ele>
        <time>2021-08-20T11:34:15Z</time>
      </trkpt>
      <trkpt lat="46.06573" lon="5.72872">
        <ele>1321.6</ele>
        <time>2021-08-20T11:34:17Z</time>
      </trkpt>
      <trkpt lat="46.0657" lon="5.72872">
        <ele>1321.6</ele>
        <time>2021-08-20T11:34:19Z</time>
      </trkpt>
      <trkpt lat="46.06567" lon="5.72873">
        <ele>1321.5</ele>
        <time>2021-08-20T11:34:20Z</time>
      </trkpt>
      <trkpt lat="46.06565" lon="5.72874">
        <ele>1321.5</ele>
        <time>2021-08-20T11:34:21Z</time>
      </trkpt>
      <trkpt lat="46.06564" lon="5.72877">
        <ele>1321.4</ele>
        <time>2021-08-20T11:34:23Z</time>
      </trkpt>
      <trkpt lat="46.06561" lon="5.7288">
        <ele>1321.3</ele>
        <time>2021-08-20T11:34:24Z</time>
      </trkpt>
      <trkpt lat="46.06558" lon="5.72883">
        <ele>1321.2</ele>
        <time>2021-08-20T11:34:25Z</time>
      </trkpt>
      <trkpt lat="46.06557" lon="5.72883">
        <ele>1321.2</ele>
        <time>2021-08-20T11:34:26Z</time>
      </trkpt>
      <trkpt lat="46.06555" lon="5.72885">
        <ele>1321.1</ele>
        <time>2021-08-20T11:34:27Z</time>
      </trkpt>
      <trkpt lat="46.06551" lon="5.72886">
        <ele>1321</ele>
        <time>2021-08-20T11:34:29Z</time>
      </trkpt>
      <trkpt lat="46.06548" lon="5.72887">
        <ele>1320.9</ele>
        <time>2021-08-20T11:34:30Z</time>
      </trkpt>
      <trkpt lat="46.06546" lon="5.72887">
        <ele>1320.8</ele>
        <time>2021-08-20T11:34:31Z</time>
      </trkpt>
      <trkpt lat="46.06546" lon="5.72887">
        <ele>1320.8</ele>
        <time>2021-08-20T11:34:33Z</time>
      </trkpt>
      <trkpt lat="46.06545" lon="5.72885">
        <ele>1320.8</ele>
        <time>2021-08-20T11:34:34Z</time>
      </trkpt>
      <trkpt lat="46.06545" lon="5.72885">
        <ele>1320.8</ele>
        <time>2021-08-20T11:34:36Z</time>
      </trkpt>
      <trkpt lat="46.06545" lon="5.72885">
        <ele>1320.8</ele>
        <time>2021-08-20T11:34:37Z</time>
      </trkpt>
      <trkpt lat="46.06544" lon="5.72885">
        <ele>1320.8</ele>
        <time>2021-08-20T11:34:38Z</time>
      </trkpt>
      <trkpt lat="46.06544" lon="5.72885">
        <ele>1320.8</ele>
        <time>2021-08-20T11:34:40Z</time>
      </trkpt>
      <trkpt lat="46.06522" lon="5.72891">
        <ele>1320.8</ele>
        <time>2021-08-20T11:34:58Z</time>
      </trkpt>
      <trkpt lat="46.06518" lon="5.72893">
        <ele>1320.8</ele>
        <time>2021-08-20T11:34:59Z</time>
      </trkpt>
      <trkpt lat="46.06515" lon="5.72896">
        <ele>1320.9</ele>
        <time>2021-08-20T11:35:00Z</time>
      </trkpt>
      <trkpt lat="46.06512" lon="5.72899">
        <ele>1320.9</ele>
        <time>2021-08-20T11:35:02Z</time>
      </trkpt>
      <trkpt lat="46.06507" lon="5.72906">
        <ele>1321.1</ele>
        <time>2021-08-20T11:35:04Z</time>
      </trkpt>
      <trkpt lat="46.06505" lon="5.72909">
        <ele>1321.1</ele>
        <time>2021-08-20T11:35:05Z</time>
      </trkpt>
      <trkpt lat="46.06503" lon="5.72911">
        <ele>1321.1</ele>
        <time>2021-08-20T11:35:06Z</time>
      </trkpt>
      <trkpt lat="46.06502" lon="5.72912">
        <ele>1321.1</ele>
        <time>2021-08-20T11:35:08Z</time>
      </trkpt>
      <trkpt lat="46.065" lon="5.72913">
        <ele>1321.1</ele>
        <time>2021-08-20T11:35:09Z</time>
      </trkpt>
      <trkpt lat="46.06499" lon="5.72913">
        <ele>1321.1</ele>
        <time>2021-08-20T11:35:11Z</time>
      </trkpt>
      <trkpt lat="46.06496" lon="5.72911">
        <ele>1321.1</ele>
        <time>2021-08-20T11:35:13Z</time>
      </trkpt>
      <trkpt lat="46.06493" lon="5.7291">
        <ele>1321.1</ele>
        <time>2021-08-20T11:35:14Z</time>
      </trkpt>
      <trkpt lat="46.0647" lon="5.729">
        <ele>1321</ele>
        <time>2021-08-20T11:35:17Z</time>
      </trkpt>
      <trkpt lat="46.06461" lon="5.72898">
        <ele>1321</ele>
        <time>2021-08-20T11:35:19Z</time>
      </trkpt>
      <trkpt lat="46.06456" lon="5.72895">
        <ele>1321.1</ele>
        <time>2021-08-20T11:35:20Z</time>
      </trkpt>
      <trkpt lat="46.06451" lon="5.72891">
        <ele>1321.1</ele>
        <time>2021-08-20T11:35:21Z</time>
      </trkpt>
      <trkpt lat="46.06446" lon="5.72889">
        <ele>1321.2</ele>
        <time>2021-08-20T11:35:22Z</time>
      </trkpt>
      <trkpt lat="46.06441" lon="5.72887">
        <ele>1321.4</ele>
        <time>2021-08-20T11:35:23Z</time>
      </trkpt>
      <trkpt lat="46.06436" lon="5.72886">
        <ele>1321.6</ele>
        <time>2021-08-20T11:35:25Z</time>
      </trkpt>
      <trkpt lat="46.06432" lon="5.72885">
        <ele>1321.7</ele>
        <time>2021-08-20T11:35:26Z</time>
      </trkpt>
      <trkpt lat="46.06425" lon="5.72885">
        <ele>1322</ele>
        <time>2021-08-20T11:35:28Z</time>
      </trkpt>
      <trkpt lat="46.06423" lon="5.72886">
        <ele>1322.1</ele>
        <time>2021-08-20T11:35:29Z</time>
      </trkpt>
      <trkpt lat="46.06421" lon="5.72881">
        <ele>1322.4</ele>
        <time>2021-08-20T11:35:31Z</time>
      </trkpt>
      <trkpt lat="46.06419" lon="5.72877">
        <ele>1322.5</ele>
        <time>2021-08-20T11:35:32Z</time>
      </trkpt>
      <trkpt lat="46.06418" lon="5.72876">
        <ele>1322.6</ele>
        <time>2021-08-20T11:35:33Z</time>
      </trkpt>
      <trkpt lat="46.06417" lon="5.72874">
        <ele>1322.7</ele>
        <time>2021-08-20T11:35:34Z</time>
      </trkpt>
      <trkpt lat="46.06416" lon="5.72873">
        <ele>1322.7</ele>
        <time>2021-08-20T11:35:35Z</time>
      </trkpt>
      <trkpt lat="46.06415" lon="5.72872">
        <ele>1322.8</ele>
        <time>2021-08-20T11:35:37Z</time>
      </trkpt>
      <trkpt lat="46.06413" lon="5.72871">
        <ele>1322.9</ele>
        <time>2021-08-20T11:35:38Z</time>
      </trkpt>
      <trkpt lat="46.06241" lon="5.72825">
        <ele>1335.4</ele>
        <time>2021-08-20T11:38:34Z</time>
      </trkpt>
      <trkpt lat="46.06239" lon="5.72822">
        <ele>1335.7</ele>
        <time>2021-08-20T11:38:35Z</time>
      </trkpt>
      <trkpt lat="46.06235" lon="5.72813">
        <ele>1336.2</ele>
        <time>2021-08-20T11:38:37Z</time>
      </trkpt>
      <trkpt lat="46.06232" lon="5.7281">
        <ele>1336.4</ele>
        <time>2021-08-20T11:38:38Z</time>
      </trkpt>
      <trkpt lat="46.06229" lon="5.72809">
        <ele>1336.5</ele>
        <time>2021-08-20T11:38:40Z</time>
      </trkpt>
      <trkpt lat="46.06227" lon="5.7281">
        <ele>1336.6</ele>
        <time>2021-08-20T11:38:41Z</time>
      </trkpt>
      <trkpt lat="46.06227" lon="5.72812">
        <ele>1336.7</ele>
        <time>2021-08-20T11:38:42Z</time>
      </trkpt>
      <trkpt lat="46.06227" lon="5.72817">
        <ele>1336.9</ele>
        <time>2021-08-20T11:38:44Z</time>
      </trkpt>
      <trkpt lat="46.06226" lon="5.72818">
        <ele>1336.9</ele>
        <time>2021-08-20T11:38:45Z</time>
      </trkpt>
      <trkpt lat="46.06227" lon="5.72818">
        <ele>1336.9</ele>
        <time>2021-08-20T11:38:46Z</time>
      </trkpt>
      <trkpt lat="46.06227" lon="5.72819">
        <ele>1336.9</ele>
        <time>2021-08-20T11:38:47Z</time>
      </trkpt>
      <trkpt lat="46.06227" lon="5.72819">
        <ele>1337</ele>
        <time>2021-08-20T11:38:50Z</time>
      </trkpt>
      <trkpt lat="46.06227" lon="5.72819">
        <ele>1337</ele>
        <time>2021-08-20T11:38:51Z</time>
      </trkpt>
      <trkpt lat="46.06227" lon="5.72819">
        <ele>1337</ele>
        <time>2021-08-20T11:38:53Z</time>
      </trkpt>
      <trkpt lat="46.06227" lon="5.72819">
        <ele>1337</ele>
        <time>2021-08-20T11:38:54Z</time>
      </trkpt>
      <trkpt lat="46.06177" lon="5.72812">
        <ele>1338.5</ele>
        <time>2021-08-20T11:39:38Z</time>
      </trkpt>
      <trkpt lat="46.06175" lon="5.7281">
        <ele>1338.5</ele>
        <time>2021-08-20T11:39:40Z</time>
      </trkpt>
      <trkpt lat="46.06175" lon="5.72808">
        <ele>1338.5</ele>
        <time>2021-08-20T11:39:41Z</time>
      </trkpt>
      <trkpt lat="46.06174" lon="5.72806">
        <ele>1338.5</ele>
        <time>2021-08-20T11:39:42Z</time>
      </trkpt>
      <trkpt lat="46.06174" lon="5.72805">
        <ele>1338.6</ele>
        <time>2021-08-20T11:39:43Z</time>
      </trkpt>
      <trkpt lat="46.06174" lon="5.72804">
        <ele>1338.6</ele>
        <time>2021-08-20T11:39:45Z</time>
      </trkpt>
      <trkpt lat="46.06173" lon="5.72803">
        <ele>1338.6</ele>
        <time>2021-08-20T11:39:46Z</time>
      </trkpt>
      <trkpt lat="46.06173" lon="5.72802">
        <ele>1338.6</ele>
        <time>2021-08-20T11:39:47Z</time>
      </trkpt>
      <trkpt lat="46.06173" lon="5.72802">
        <ele>1338.6</ele>
        <time>2021-08-20T11:39:48Z</time>
      </trkpt>
      <trkpt lat="46.06173" lon="5.72801">
        <ele>1338.6</ele>
        <time>2021-08-20T11:39:49Z</time>
      </trkpt>
      <trkpt lat="46.06173" lon="5.728">
        <ele>1338.6</ele>
        <time>2021-08-20T11:39:51Z</time>
      </trkpt>
      <trkpt lat="46.06173" lon="5.728">
        <ele>1338.6</ele>
        <time>2021-08-20T11:39:52Z</time>
      </trkpt>
      <trkpt lat="46.06173" lon="5.72799">
        <ele>1338.6</ele>
        <time>2021-08-20T11:39:53Z</time>
      </trkpt>
      <trkpt lat="46.06172" lon="5.72798">
        <ele>1338.6</ele>
        <time>2021-08-20T11:39:54Z</time>
      </trkpt>
      <trkpt lat="46.06172" lon="5.72798">
        <ele>1338.6</ele>
        <time>2021-08-20T11:39:55Z</time>
      </trkpt>
      <trkpt lat="46.06172" lon="5.72797">
        <ele>1338.6</ele>
        <time>2021-08-20T11:39:57Z</time>
      </trkpt>
      <trkpt lat="46.06172" lon="5.72796">
        <ele>1338.7</ele>
        <time>2021-08-20T11:39:58Z</time>
      </trkpt>
      <trkpt lat="46.06171" lon="5.72795">
        <ele>1338.7</ele>
        <time>2021-08-20T11:39:59Z</time>
      </trkpt>
      <trkpt lat="46.06169" lon="5.72794">
        <ele>1338.7</ele>
        <time>2021-08-20T11:40:00Z</time>
      </trkpt>
      <trkpt lat="46.06166" lon="5.72793">
        <ele>1338.7</ele>
        <time>2021-08-20T11:40:02Z</time>
      </trkpt>
      <trkpt lat="46.06161" lon="5.72793">
        <ele>1338.8</ele>
        <time>2021-08-20T11:40:03Z</time>
      </trkpt>
      <trkpt lat="46.06155" lon="5.72792">
        <ele>1338.8</ele>
        <time>2021-08-20T11:40:05Z</time>
      </trkpt>
      <trkpt lat="46.06152" lon="5.72795">
        <ele>1338.9</ele>
        <time>2021-08-20T11:40:07Z</time>
      </trkpt>
      <trkpt lat="46.06153" lon="5.728">
        <ele>1338.9</ele>
        <time>2021-08-20T11:40:08Z</time>
      </trkpt>
      <trkpt lat="46.06154" lon="5.72806">
        <ele>1338.9</ele>
        <time>2021-08-20T11:40:09Z</time>
      </trkpt>
      <trkpt lat="46.06142" lon="5.72804">
        <ele>1339.1</ele>
        <time>2021-08-20T11:40:11Z</time>
      </trkpt>
      <trkpt lat="46.06131" lon="5.728">
        <ele>1339.5</ele>
        <time>2021-08-20T11:40:12Z</time>
      </trkpt>
      <trkpt lat="46.0612" lon="5.72797">
        <ele>1340.4</ele>
        <time>2021-08-20T11:40:15Z</time>
      </trkpt>
      <trkpt lat="46.06109" lon="5.72794">
        <ele>1341.6</ele>
        <time>2021-08-20T11:41:08Z</time>
      </trkpt>
      <trkpt lat="46.06097" lon="5.72791">
        <ele>1342.7</ele>
        <time>2021-08-20T11:41:09Z</time>
      </trkpt>
      <trkpt lat="46.06094" lon="5.72794">
        <ele>1343</ele>
        <time>2021-08-20T11:41:11Z</time>
      </trkpt>
      <trkpt lat="46.06086" lon="5.72799">
        <ele>1343.2</ele>
        <time>2021-08-20T11:41:12Z</time>
      </trkpt>
      <trkpt lat="46.06082" lon="5.72802">
        <ele>1343.3</ele>
        <time>2021-08-20T11:41:13Z</time>
      </trkpt>
      <trkpt lat="46.06077" lon="5.72805">
        <ele>1343.4</ele>
        <time>2021-08-20T11:41:15Z</time>
      </trkpt>
      <trkpt lat="46.06074" lon="5.72808">
        <ele>1343.4</ele>
        <time>2021-08-20T11:41:16Z</time>
      </trkpt>
      <trkpt lat="46.06071" lon="5.7281">
        <ele>1343.4</ele>
        <time>2021-08-20T11:41:17Z</time>
      </trkpt>
      <trkpt lat="46.06068" lon="5.72814">
        <ele>1343.4</ele>
        <time>2021-08-20T11:41:18Z</time>
      </trkpt>
      <trkpt lat="46.06066" lon="5.72818">
        <ele>1343.3</ele>
        <time>2021-08-20T11:41:19Z</time>
      </trkpt>
      <trkpt lat="46.06066" lon="5.72819">
        <ele>1343.3</ele>
        <time>2021-08-20T11:41:20Z</time>
      </trkpt>
      <trkpt lat="46.06063" lon="5.72821">
        <ele>1343.3</ele>
        <time>2021-08-20T11:41:22Z</time>
      </trkpt>
      <trkpt lat="46.0606" lon="5.72823">
        <ele>1343.3</ele>
        <time>2021-08-20T11:41:23Z</time>
      </trkpt>
      <trkpt lat="46.06057" lon="5.72825">
        <ele>1343.3</ele>
        <time>2021-08-20T11:41:25Z</time>
      </trkpt>
      <trkpt lat="46.06056" lon="5.72825">
        <ele>1343.3</ele>
        <time>2021-08-20T11:41:26Z</time>
      </trkpt>
      <trkpt lat="46.06055" lon="5.72825">
        <ele>1343.3</ele>
        <time>2021-08-20T11:41:27Z</time>
      </trkpt>
      <trkpt lat="46.06053" lon="5.72824">
        <ele>1343.4</ele>
        <time>2021-08-20T11:41:29Z</time>
      </trkpt>
      <trkpt lat="46.06043" lon="5.72812">
        <ele>1343.3</ele>
        <time>2021-08-20T11:41:36Z</time>
      </trkpt>
      <trkpt lat="46.06037" lon="5.72811">
        <ele>1343.2</ele>
        <time>2021-08-20T11:41:37Z</time>
      </trkpt>
      <trkpt lat="46.06029" lon="5.72808">
        <ele>1342.9</ele>
        <time>2021-08-20T11:41:39Z</time>
      </trkpt>
      <trkpt lat="46.06021" lon="5.72801">
        <ele>1342.5</ele>
        <time>2021-08-20T11:41:40Z</time>
      </trkpt>
      <trkpt lat="46.06005" lon="5.72789">
        <ele>1341.2</ele>
        <time>2021-08-20T11:41:42Z</time>
      </trkpt>
      <trkpt lat="46.05999" lon="5.72784">
        <ele>1340.7</ele>
        <time>2021-08-20T11:41:43Z</time>
      </trkpt>
      <trkpt lat="46.05994" lon="5.72782">
        <ele>1340.6</ele>
        <time>2021-08-20T11:41:44Z</time>
      </trkpt>
      <trkpt lat="46.0599" lon="5.72783">
        <ele>1340.6</ele>
        <time>2021-08-20T11:41:46Z</time>
      </trkpt>
      <trkpt lat="46.05986" lon="5.72786">
        <ele>1340.5</ele>
        <time>2021-08-20T11:41:48Z</time>
      </trkpt>
      <trkpt lat="46.0598" lon="5.72788">
        <ele>1340.5</ele>
        <time>2021-08-20T11:41:49Z</time>
      </trkpt>
      <trkpt lat="46.05974" lon="5.72788">
        <ele>1340.5</ele>
        <time>2021-08-20T11:41:50Z</time>
      </trkpt>
      <trkpt lat="46.05969" lon="5.72789">
        <ele>1340.6</ele>
        <time>2021-08-20T11:41:52Z</time>
      </trkpt>
      <trkpt lat="46.05964" lon="5.72789">
        <ele>1340.7</ele>
        <time>2021-08-20T11:41:54Z</time>
      </trkpt>
      <trkpt lat="46.05958" lon="5.7279">
        <ele>1340.9</ele>
        <time>2021-08-20T11:41:56Z</time>
      </trkpt>
      <trkpt lat="46.05953" lon="5.72791">
        <ele>1341</ele>
        <time>2021-08-20T11:41:58Z</time>
      </trkpt>
      <trkpt lat="46.05948" lon="5.72791">
        <ele>1341.2</ele>
        <time>2021-08-20T11:42:36Z</time>
      </trkpt>
      <trkpt lat="46.05943" lon="5.72792">
        <ele>1341.4</ele>
        <time>2021-08-20T11:42:37Z</time>
      </trkpt>
      <trkpt lat="46.05937" lon="5.72793">
        <ele>1341.5</ele>
        <time>2021-08-20T11:42:38Z</time>
      </trkpt>
      <trkpt lat="46.05936" lon="5.72793">
        <ele>1341.6</ele>
        <time>2021-08-20T11:42:40Z</time>
      </trkpt>
      <trkpt lat="46.05935" lon="5.72794">
        <ele>1341.5</ele>
        <time>2021-08-20T11:42:41Z</time>
      </trkpt>
      <trkpt lat="46.05934" lon="5.72795">
        <ele>1341.5</ele>
        <time>2021-08-20T11:42:42Z</time>
      </trkpt>
      <trkpt lat="46.05934" lon="5.72796">
        <ele>1341.5</ele>
        <time>2021-08-20T11:42:44Z</time>
      </trkpt>
      <trkpt lat="46.05933" lon="5.72796">
        <ele>1341.4</ele>
        <time>2021-08-20T11:42:45Z</time>
      </trkpt>
      <trkpt lat="46.05932" lon="5.72795">
        <ele>1341.4</ele>
        <time>2021-08-20T11:42:47Z</time>
      </trkpt>
      <trkpt lat="46.0593" lon="5.72793">
        <ele>1341.3</ele>
        <time>2021-08-20T11:42:49Z</time>
      </trkpt>
      <trkpt lat="46.0582" lon="5.72608">
        <ele>1325.2</ele>
        <time>2021-08-20T11:45:09Z</time>
      </trkpt>
      <trkpt lat="46.05816" lon="5.72607">
        <ele>1324.7</ele>
        <time>2021-08-20T11:45:10Z</time>
      </trkpt>
      <trkpt lat="46.05812" lon="5.72605">
        <ele>1324.2</ele>
        <time>2021-08-20T11:45:11Z</time>
      </trkpt>
      <trkpt lat="46.05806" lon="5.72603">
        <ele>1323.4</ele>
        <time>2021-08-20T11:45:12Z</time>
      </trkpt>
      <trkpt lat="46.05798" lon="5.726">
        <ele>1322.3</ele>
        <time>2021-08-20T11:45:13Z</time>
      </trkpt>
      <trkpt lat="46.05792" lon="5.726">
        <ele>1321.7</ele>
        <time>2021-08-20T11:45:15Z</time>
      </trkpt>
      <trkpt lat="46.05784" lon="5.72602">
        <ele>1320.8</ele>
        <time>2021-08-20T11:45:17Z</time>
      </trkpt>
      <trkpt lat="46.05782" lon="5.72602">
        <ele>1320.6</ele>
        <time>2021-08-20T11:45:18Z</time>
      </trkpt>
      <trkpt lat="46.05781" lon="5.726">
        <ele>1320.4</ele>
        <time>2021-08-20T11:45:19Z</time>
      </trkpt>
      <trkpt lat="46.05779" lon="5.72592">
        <ele>1319.8</ele>
        <time>2021-08-20T11:45:21Z</time>
      </trkpt>
      <trkpt lat="46.05777" lon="5.72588">
        <ele>1319.5</ele>
        <time>2021-08-20T11:45:22Z</time>
      </trkpt>
      <trkpt lat="46.05777" lon="5.72588">
        <ele>1319.4</ele>
        <time>2021-08-20T11:45:23Z</time>
      </trkpt>
      <trkpt lat="46.05776" lon="5.72586">
        <ele>1319.2</ele>
        <time>2021-08-20T11:45:25Z</time>
      </trkpt>
      <trkpt lat="46.05774" lon="5.72584">
        <ele>1319</ele>
        <time>2021-08-20T11:45:27Z</time>
      </trkpt>
      <trkpt lat="46.0577" lon="5.72582">
        <ele>1318.6</ele>
        <time>2021-08-20T11:45:29Z</time>
      </trkpt>
      <trkpt lat="46.05767" lon="5.72579">
        <ele>1318.1</ele>
        <time>2021-08-20T11:45:30Z</time>
      </trkpt>
      <trkpt lat="46.05763" lon="5.72574">
        <ele>1317.5</ele>
        <time>2021-08-20T11:45:32Z</time>
      </trkpt>
      <trkpt lat="46.05759" lon="5.7257">
        <ele>1316.9</ele>
        <time>2021-08-20T11:45:33Z</time>
      </trkpt>
      <trkpt lat="46.05754" lon="5.72563">
        <ele>1316.2</ele>
        <time>2021-08-20T11:45:35Z</time>
      </trkpt>
      <trkpt lat="46.05749" lon="5.72554">
        <ele>1315.5</ele>
        <time>2021-08-20T11:45:36Z</time>
      </trkpt>
      <trkpt lat="46.05745" lon="5.72546">
        <ele>1315.1</ele>
        <time>2021-08-20T11:45:38Z</time>
      </trkpt>
      <trkpt lat="46.05744" lon="5.7254">
        <ele>1315</ele>
        <time>2021-08-20T11:45:39Z</time>
      </trkpt>
      <trkpt lat="46.05742" lon="5.72536">
        <ele>1314.9</ele>
        <time>2021-08-20T11:45:40Z</time>
      </trkpt>
      <trkpt lat="46.0574" lon="5.72532">
        <ele>1314.9</ele>
        <time>2021-08-20T11:45:41Z</time>
      </trkpt>
      <trkpt lat="46.05738" lon="5.72529">
        <ele>1314.9</ele>
        <time>2021-08-20T11:45:42Z</time>
      </trkpt>
      <trkpt lat="46.05736" lon="5.72527">
        <ele>1314.9</ele>
        <time>2021-08-20T11:45:43Z</time>
      </trkpt>
      <trkpt lat="46.05731" lon="5.72523">
        <ele>1315</ele>
        <time>2021-08-20T11:45:45Z</time>
      </trkpt>
      <trkpt lat="46.05729" lon="5.7252">
        <ele>1315</ele>
        <time>2021-08-20T11:45:47Z</time>
      </trkpt>
      <trkpt lat="46.05725" lon="5.72514">
        <ele>1314.9</ele>
        <time>2021-08-20T11:45:48Z</time>
      </trkpt>
      <trkpt lat="46.05724" lon="5.7251">
        <ele>1314.9</ele>
        <time>2021-08-20T11:45:49Z</time>
      </trkpt>
      <trkpt lat="46.0572" lon="5.72503">
        <ele>1314.7</ele>
        <time>2021-08-20T11:45:51Z</time>
      </trkpt>
      <trkpt lat="46.05716" lon="5.725">
        <ele>1314.5</ele>
        <time>2021-08-20T11:45:53Z</time>
      </trkpt>
      <trkpt lat="46.05713" lon="5.72499">
        <ele>1314.3</ele>
        <time>2021-08-20T11:45:54Z</time>
      </trkpt>
      <trkpt lat="46.0571" lon="5.725">
        <ele>1314.1</ele>
        <time>2021-08-20T11:45:56Z</time>
      </trkpt>
      <trkpt lat="46.0571" lon="5.725">
        <ele>1314</ele>
        <time>2021-08-20T11:45:57Z</time>
      </trkpt>
      <trkpt lat="46.05706" lon="5.72501">
        <ele>1313.7</ele>
        <time>2021-08-20T11:45:59Z</time>
      </trkpt>
      <trkpt lat="46.05703" lon="5.72501">
        <ele>1313.6</ele>
        <time>2021-08-20T11:46:00Z</time>
      </trkpt>
      <trkpt lat="46.05698" lon="5.72502">
        <ele>1313.2</ele>
        <time>2021-08-20T11:46:02Z</time>
      </trkpt>
      <trkpt lat="46.05695" lon="5.72503">
        <ele>1313.1</ele>
        <time>2021-08-20T11:46:03Z</time>
      </trkpt>
      <trkpt lat="46.05689" lon="5.72504">
        <ele>1312.8</ele>
        <time>2021-08-20T11:46:05Z</time>
      </trkpt>
      <trkpt lat="46.05684" lon="5.725">
        <ele>1312.7</ele>
        <time>2021-08-20T11:46:06Z</time>
      </trkpt>
      <trkpt lat="46.05677" lon="5.72494">
        <ele>1312.5</ele>
        <time>2021-08-20T11:46:07Z</time>
      </trkpt>
      <trkpt lat="46.05672" lon="5.72489">
        <ele>1312.4</ele>
        <time>2021-08-20T11:46:08Z</time>
      </trkpt>
      <trkpt lat="46.05666" lon="5.72481">
        <ele>1312.3</ele>
        <time>2021-08-20T11:46:10Z</time>
      </trkpt>
      <trkpt lat="46.05659" lon="5.72474">
        <ele>1312.2</ele>
        <time>2021-08-20T11:46:11Z</time>
      </trkpt>
      <trkpt lat="46.05655" lon="5.72471">
        <ele>1312.2</ele>
        <time>2021-08-20T11:46:12Z</time>
      </trkpt>
      <trkpt lat="46.0565" lon="5.72467">
        <ele>1312.2</ele>
        <time>2021-08-20T11:46:14Z</time>
      </trkpt>
      <trkpt lat="46.05645" lon="5.72464">
        <ele>1312.1</ele>
        <time>2021-08-20T11:46:15Z</time>
      </trkpt>
      <trkpt lat="46.05641" lon="5.72459">
        <ele>1312</ele>
        <time>2021-08-20T11:46:16Z</time>
      </trkpt>
      <trkpt lat="46.05636" lon="5.72454">
        <ele>1311.8</ele>
        <time>2021-08-20T11:46:18Z</time>
      </trkpt>
      <trkpt lat="46.05631" lon="5.72444">
        <ele>1311.4</ele>
        <time>2021-08-20T11:46:19Z</time>
      </trkpt>
      <trkpt lat="46.05627" lon="5.72438">
        <ele>1310.9</ele>
        <time>2021-08-20T11:46:20Z</time>
      </trkpt>
      <trkpt lat="46.05624" lon="5.72432">
        <ele>1310.4</ele>
        <time>2021-08-20T11:46:21Z</time>
      </trkpt>
      <trkpt lat="46.05621" lon="5.72422">
        <ele>1309.7</ele>
        <time>2021-08-20T11:46:23Z</time>
      </trkpt>
      <trkpt lat="46.05618" lon="5.72415">
        <ele>1309.3</ele>
        <time>2021-08-20T11:46:24Z</time>
      </trkpt>
      <trkpt lat="46.05612" lon="5.72397">
        <ele>1308.7</ele>
        <time>2021-08-20T11:46:25Z</time>
      </trkpt>
      <trkpt lat="46.0561" lon="5.72391">
        <ele>1308.7</ele>
        <time>2021-08-20T11:46:27Z</time>
      </trkpt>
      <trkpt lat="46.05608" lon="5.72389">
        <ele>1308.7</ele>
        <time>2021-08-20T11:46:28Z</time>
      </trkpt>
      <trkpt lat="46.05604" lon="5.72387">
        <ele>1308.7</ele>
        <time>2021-08-20T11:46:30Z</time>
      </trkpt>
      <trkpt lat="46.05589" lon="5.7234">
        <ele>1307.9</ele>
        <time>2021-08-20T11:47:28Z</time>
      </trkpt>
      <trkpt lat="46.05585" lon="5.72337">
        <ele>1307.6</ele>
        <time>2021-08-20T11:47:29Z</time>
      </trkpt>
      <trkpt lat="46.05579" lon="5.7233">
        <ele>1306.9</ele>
        <time>2021-08-20T11:47:31Z</time>
      </trkpt>
      <trkpt lat="46.05575" lon="5.72325">
        <ele>1306.5</ele>
        <time>2021-08-20T11:47:32Z</time>
      </trkpt>
      <trkpt lat="46.05569" lon="5.72317">
        <ele>1305.8</ele>
        <time>2021-08-20T11:47:33Z</time>
      </trkpt>
      <trkpt lat="46.05565" lon="5.72312">
        <ele>1305.5</ele>
        <time>2021-08-20T11:47:34Z</time>
      </trkpt>
      <trkpt lat="46.05559" lon="5.72307">
        <ele>1305.3</ele>
        <time>2021-08-20T11:47:36Z</time>
      </trkpt>
      <trkpt lat="46.05553" lon="5.72302">
        <ele>1305.3</ele>
        <time>2021-08-20T11:47:37Z</time>
      </trkpt>
      <trkpt lat="46.05548" lon="5.723">
        <ele>1305.5</ele>
        <time>2021-08-20T11:47:38Z</time>
      </trkpt>
      <trkpt lat="46.05544" lon="5.723">
        <ele>1305.7</ele>
        <time>2021-08-20T11:47:40Z</time>
      </trkpt>
      <trkpt lat="46.05536" lon="5.72301">
        <ele>1306.2</ele>
        <time>2021-08-20T11:47:42Z</time>
      </trkpt>
      <trkpt lat="46.05532" lon="5.723">
        <ele>1306.4</ele>
        <time>2021-08-20T11:47:43Z</time>
      </trkpt>
      <trkpt lat="46.0553" lon="5.72298">
        <ele>1306.6</ele>
        <time>2021-08-20T11:47:44Z</time>
      </trkpt>
      <trkpt lat="46.05529" lon="5.72299">
        <ele>1306.7</ele>
        <time>2021-08-20T11:47:46Z</time>
      </trkpt>
      <trkpt lat="46.05528" lon="5.72304">
        <ele>1307</ele>
        <time>2021-08-20T11:47:48Z</time>
      </trkpt>
      <trkpt lat="46.05527" lon="5.72305">
        <ele>1307</ele>
        <time>2021-08-20T11:47:50Z</time>
      </trkpt>
      <trkpt lat="46.05526" lon="5.72308">
        <ele>1307.1</ele>
        <time>2021-08-20T11:47:52Z</time>
      </trkpt>
      <trkpt lat="46.05526" lon="5.72309">
        <ele>1307.2</ele>
        <time>2021-08-20T11:47:53Z</time>
      </trkpt>
      <trkpt lat="46.05526" lon="5.7231">
        <ele>1307.2</ele>
        <time>2021-08-20T11:47:54Z</time>
      </trkpt>
      <trkpt lat="46.05525" lon="5.72311">
        <ele>1307.2</ele>
        <time>2021-08-20T11:47:56Z</time>
      </trkpt>
      <trkpt lat="46.05524" lon="5.72311">
        <ele>1307.2</ele>
        <time>2021-08-20T11:47:57Z</time>
      </trkpt>
      <trkpt lat="46.05523" lon="5.72311">
        <ele>1307.2</ele>
        <time>2021-08-20T11:47:59Z</time>
      </trkpt>
      <trkpt lat="46.05491" lon="5.72279">
        <ele>1305.3</ele>
        <time>2021-08-20T11:49:04Z</time>
      </trkpt>
      <trkpt lat="46.05487" lon="5.72275">
        <ele>1305.1</ele>
        <time>2021-08-20T11:49:06Z</time>
      </trkpt>
      <trkpt lat="46.05483" lon="5.72272">
        <ele>1305.1</ele>
        <time>2021-08-20T11:49:07Z</time>
      </trkpt>
      <trkpt lat="46.05482" lon="5.72271">
        <ele>1305.1</ele>
        <time>2021-08-20T11:49:08Z</time>
      </trkpt>
      <trkpt lat="46.05477" lon="5.72266">
        <ele>1305.1</ele>
        <time>2021-08-20T11:49:10Z</time>
      </trkpt>
      <trkpt lat="46.05474" lon="5.72263">
        <ele>1305.1</ele>
        <time>2021-08-20T11:49:11Z</time>
      </trkpt>
      <trkpt lat="46.05472" lon="5.72261">
        <ele>1305.2</ele>
        <time>2021-08-20T11:49:12Z</time>
      </trkpt>
      <trkpt lat="46.05469" lon="5.7226">
        <ele>1305.3</ele>
        <time>2021-08-20T11:49:13Z</time>
      </trkpt>
      <trkpt lat="46.05466" lon="5.72257">
        <ele>1305.4</ele>
        <time>2021-08-20T11:49:15Z</time>
      </trkpt>
      <trkpt lat="46.05463" lon="5.72251">
        <ele>1305.8</ele>
        <time>2021-08-20T11:49:17Z</time>
      </trkpt>
      <trkpt lat="46.05461" lon="5.72251">
        <ele>1306</ele>
        <time>2021-08-20T11:49:18Z</time>
      </trkpt>
      <trkpt lat="46.05457" lon="5.72252">
        <ele>1306.4</ele>
        <time>2021-08-20T11:49:20Z</time>
      </trkpt>
      <trkpt lat="46.05453" lon="5.72249">
        <ele>1307</ele>
        <time>2021-08-20T11:49:22Z</time>
      </trkpt>
      <trkpt lat="46.05452" lon="5.72248">
        <ele>1307.2</ele>
        <time>2021-08-20T11:49:23Z</time>
      </trkpt>
      <trkpt lat="46.0545" lon="5.72247">
        <ele>1307.4</ele>
        <time>2021-08-20T11:49:24Z</time>
      </trkpt>
      <trkpt lat="46.05451" lon="5.72248">
        <ele>1307.5</ele>
        <time>2021-08-20T11:49:26Z</time>
      </trkpt>
      <trkpt lat="46.0545" lon="5.72251">
        <ele>1307.8</ele>
        <time>2021-08-20T11:49:27Z</time>
      </trkpt>
      <trkpt lat="46.0545" lon="5.72252">
        <ele>1308</ele>
        <time>2021-08-20T11:49:28Z</time>
      </trkpt>
      <trkpt lat="46.05449" lon="5.72253">
        <ele>1308.1</ele>
        <time>2021-08-20T11:49:29Z</time>
      </trkpt>
      <trkpt lat="46.05449" lon="5.72252">
        <ele>1308.2</ele>
        <time>2021-08-20T11:49:30Z</time>
      </trkpt>
      <trkpt lat="46.05448" lon="5.72251">
        <ele>1308.3</ele>
        <time>2021-08-20T11:49:32Z</time>
      </trkpt>
      <trkpt lat="46.05447" lon="5.72251">
        <ele>1308.5</ele>
        <time>2021-08-20T11:49:33Z</time>
      </trkpt>
      <trkpt lat="46.05437" lon="5.72264">
        <ele>1310.2</ele>
        <time>2021-08-20T11:49:54Z</time>
      </trkpt>
      <trkpt lat="46.05435" lon="5.72273">
        <ele>1310.7</ele>
        <time>2021-08-20T11:49:56Z</time>
      </trkpt>
      <trkpt lat="46.05433" lon="5.72277">
        <ele>1311</ele>
        <time>2021-08-20T11:49:57Z</time>
      </trkpt>
      <trkpt lat="46.0543" lon="5.72285">
        <ele>1311.4</ele>
        <time>2021-08-20T11:49:59Z</time>
      </trkpt>
      <trkpt lat="46.05425" lon="5.72299">
        <ele>1312.1</ele>
        <time>2021-08-20T11:50:00Z</time>
      </trkpt>
      <trkpt lat="46.05423" lon="5.72308">
        <ele>1312.5</ele>
        <time>2021-08-20T11:50:02Z</time>
      </trkpt>
      <trkpt lat="46.05422" lon="5.7231">
        <ele>1312.7</ele>
        <time>2021-08-20T11:50:04Z</time>
      </trkpt>
      <trkpt lat="46.05422" lon="5.7231">
        <ele>1312.7</ele>
        <time>2021-08-20T11:50:05Z</time>
      </trkpt>
      <trkpt lat="46.05423" lon="5.72311">
        <ele>1312.7</ele>
        <time>2021-08-20T11:50:06Z</time>
      </trkpt>
      <trkpt lat="46.05423" lon="5.72311">
        <ele>1312.8</ele>
        <time>2021-08-20T11:50:07Z</time>
      </trkpt>
      <trkpt lat="46.05423" lon="5.72311">
        <ele>1312.8</ele>
        <time>2021-08-20T11:50:08Z</time>
      </trkpt>
      <trkpt lat="46.05422" lon="5.72311">
        <ele>1312.8</ele>
        <time>2021-08-20T11:50:10Z</time>
      </trkpt>
      <trkpt lat="46.05422" lon="5.72313">
        <ele>1312.9</ele>
        <time>2021-08-20T11:50:11Z</time>
      </trkpt>
      <trkpt lat="46.05421" lon="5.72314">
        <ele>1313.1</ele>
        <time>2021-08-20T11:50:13Z</time>
      </trkpt>
      <trkpt lat="46.0542" lon="5.72316">
        <ele>1313.2</ele>
        <time>2021-08-20T11:50:14Z</time>
      </trkpt>
      <trkpt lat="46.05411" lon="5.72321">
        <ele>1314.1</ele>
        <time>2021-08-20T11:50:21Z</time>
      </trkpt>
      <trkpt lat="46.0541" lon="5.72322">
        <ele>1314.3</ele>
        <time>2021-08-20T11:50:23Z</time>
      </trkpt>
      <trkpt lat="46.05408" lon="5.72322">
        <ele>1314.5</ele>
        <time>2021-08-20T11:50:24Z</time>
      </trkpt>
      <trkpt lat="46.05408" lon="5.72322">
        <ele>1314.5</ele>
        <time>2021-08-20T11:50:25Z</time>
      </trkpt>
      <trkpt lat="46.05407" lon="5.72322">
        <ele>1314.6</ele>
        <time>2021-08-20T11:50:27Z</time>
      </trkpt>
      <trkpt lat="46.05407" lon="5.72322">
        <ele>1314.6</ele>
        <time>2021-08-20T11:50:28Z</time>
      </trkpt>
      <trkpt lat="46.05406" lon="5.72323">
        <ele>1314.7</ele>
        <time>2021-08-20T11:50:29Z</time>
      </trkpt>
      <trkpt lat="46.05405" lon="5.72325">
        <ele>1314.9</ele>
        <time>2021-08-20T11:50:31Z</time>
      </trkpt>
      <trkpt lat="46.05404" lon="5.72327">
        <ele>1315.1</ele>
        <time>2021-08-20T11:50:32Z</time>
      </trkpt>
      <trkpt lat="46.05403" lon="5.72329">
        <ele>1315.3</ele>
        <time>2021-08-20T11:50:35Z</time>
      </trkpt>
      <trkpt lat="46.05403" lon="5.7233">
        <ele>1315.4</ele>
        <time>2021-08-20T11:50:36Z</time>
      </trkpt>
      <trkpt lat="46.05403" lon="5.72331">
        <ele>1315.5</ele>
        <time>2021-08-20T11:50:37Z</time>
      </trkpt>
      <trkpt lat="46.05402" lon="5.72332">
        <ele>1315.6</ele>
        <time>2021-08-20T11:50:39Z</time>
      </trkpt>
      <trkpt lat="46.05402" lon="5.72333">
        <ele>1315.7</ele>
        <time>2021-08-20T11:50:40Z</time>
      </trkpt>
      <trkpt lat="46.054" lon="5.72335">
        <ele>1315.9</ele>
        <time>2021-08-20T11:50:41Z</time>
      </trkpt>
      <trkpt lat="46.054" lon="5.72336">
        <ele>1316</ele>
        <time>2021-08-20T11:50:42Z</time>
      </trkpt>
      <trkpt lat="46.05399" lon="5.72337">
        <ele>1316.1</ele>
        <time>2021-08-20T11:50:43Z</time>
      </trkpt>
      <trkpt lat="46.05397" lon="5.72339">
        <ele>1316.4</ele>
        <time>2021-08-20T11:50:44Z</time>
      </trkpt>
      <trkpt lat="46.05392" lon="5.72342">
        <ele>1316.9</ele>
        <time>2021-08-20T11:50:46Z</time>
      </trkpt>
      <trkpt lat="46.05388" lon="5.72347">
        <ele>1317.4</ele>
        <time>2021-08-20T11:50:47Z</time>
      </trkpt>
      <trkpt lat="46.05384" lon="5.72351">
        <ele>1317.7</ele>
        <time>2021-08-20T11:50:48Z</time>
      </trkpt>
      <trkpt lat="46.0538" lon="5.72355">
        <ele>1317.9</ele>
        <time>2021-08-20T11:50:49Z</time>
      </trkpt>
      <trkpt lat="46.05375" lon="5.7236">
        <ele>1318.1</ele>
        <time>2021-08-20T11:50:50Z</time>
      </trkpt>
      <trkpt lat="46.05372" lon="5.72367">
        <ele>1318.2</ele>
        <time>2021-08-20T11:50:52Z</time>
      </trkpt>
      <trkpt lat="46.05372" lon="5.72368">
        <ele>1318.2</ele>
        <time>2021-08-20T11:50:54Z</time>
      </trkpt>
      <trkpt lat="46.05371" lon="5.72371">
        <ele>1318.2</ele>
        <time>2021-08-20T11:50:55Z</time>
      </trkpt>
      <trkpt lat="46.05371" lon="5.72374">
        <ele>1318.3</ele>
        <time>2021-08-20T11:50:57Z</time>
      </trkpt>
      <trkpt lat="46.05371" lon="5.72375">
        <ele>1318.3</ele>
        <time>2021-08-20T11:50:58Z</time>
      </trkpt>
      <trkpt lat="46.05371" lon="5.72377">
        <ele>1318.4</ele>
        <time>2021-08-20T11:50:59Z</time>
      </trkpt>
      <trkpt lat="46.0537" lon="5.72382">
        <ele>1318.5</ele>
        <time>2021-08-20T11:51:00Z</time>
      </trkpt>
      <trkpt lat="46.05362" lon="5.72393">
        <ele>1318.8</ele>
        <time>2021-08-20T11:51:02Z</time>
      </trkpt>
      <trkpt lat="46.05354" lon="5.72399">
        <ele>1318.9</ele>
        <time>2021-08-20T11:51:25Z</time>
      </trkpt>
      <trkpt lat="46.05347" lon="5.72405">
        <ele>1318.9</ele>
        <time>2021-08-20T11:51:27Z</time>
      </trkpt>
      <trkpt lat="46.0534" lon="5.72412">
        <ele>1318.9</ele>
        <time>2021-08-20T11:51:28Z</time>
      </trkpt>
      <trkpt lat="46.05339" lon="5.72416">
        <ele>1318.8</ele>
        <time>2021-08-20T11:51:29Z</time>
      </trkpt>
      <trkpt lat="46.05338" lon="5.7242">
        <ele>1318.7</ele>
        <time>2021-08-20T11:51:31Z</time>
      </trkpt>
      <trkpt lat="46.05337" lon="5.7242">
        <ele>1318.7</ele>
        <time>2021-08-20T11:51:32Z</time>
      </trkpt>
      <trkpt lat="46.05332" lon="5.72422">
        <ele>1318.4</ele>
        <time>2021-08-20T11:51:34Z</time>
      </trkpt>
      <trkpt lat="46.0533" lon="5.72422">
        <ele>1318.3</ele>
        <time>2021-08-20T11:51:35Z</time>
      </trkpt>
      <trkpt lat="46.05329" lon="5.7242">
        <ele>1318.2</ele>
        <time>2021-08-20T11:51:36Z</time>
      </trkpt>
      <trkpt lat="46.05328" lon="5.72419">
        <ele>1318.1</ele>
        <time>2021-08-20T11:51:37Z</time>
      </trkpt>
      <trkpt lat="46.05328" lon="5.72417">
        <ele>1317.9</ele>
        <time>2021-08-20T11:51:39Z</time>
      </trkpt>
      <trkpt lat="46.05333" lon="5.72477">
        <ele>1310.3</ele>
        <time>2021-08-20T11:52:43Z</time>
      </trkpt>
      <trkpt lat="46.05333" lon="5.72482">
        <ele>1309.8</ele>
        <time>2021-08-20T11:52:45Z</time>
      </trkpt>
      <trkpt lat="46.05334" lon="5.72488">
        <ele>1309.2</ele>
        <time>2021-08-20T11:52:46Z</time>
      </trkpt>
      <trkpt lat="46.05335" lon="5.7249">
        <ele>1309</ele>
        <time>2021-08-20T11:52:47Z</time>
      </trkpt>
      <trkpt lat="46.05335" lon="5.72495">
        <ele>1308.4</ele>
        <time>2021-08-20T11:52:48Z</time>
      </trkpt>
      <trkpt lat="46.05334" lon="5.72498">
        <ele>1308.1</ele>
        <time>2021-08-20T11:52:49Z</time>
      </trkpt>
      <trkpt lat="46.05332" lon="5.72506">
        <ele>1307.2</ele>
        <time>2021-08-20T11:52:50Z</time>
      </trkpt>
      <trkpt lat="46.0533" lon="5.72515">
        <ele>1306.3</ele>
        <time>2021-08-20T11:52:52Z</time>
      </trkpt>
      <trkpt lat="46.05327" lon="5.72522">
        <ele>1305.6</ele>
        <time>2021-08-20T11:52:53Z</time>
      </trkpt>
      <trkpt lat="46.05324" lon="5.72526">
        <ele>1305</ele>
        <time>2021-08-20T11:52:54Z</time>
      </trkpt>
      <trkpt lat="46.0532" lon="5.7253">
        <ele>1304.5</ele>
        <time>2021-08-20T11:52:55Z</time>
      </trkpt>
      <trkpt lat="46.05315" lon="5.72534">
        <ele>1303.7</ele>
        <time>2021-08-20T11:52:57Z</time>
      </trkpt>
      <trkpt lat="46.05311" lon="5.72535">
        <ele>1303.1</ele>
        <time>2021-08-20T11:52:58Z</time>
      </trkpt>
      <trkpt lat="46.05297" lon="5.72536">
        <ele>1301.3</ele>
        <time>2021-08-20T11:53:00Z</time>
      </trkpt>
      <trkpt lat="46.05283" lon="5.72539">
        <ele>1299.3</ele>
        <time>2021-08-20T11:53:02Z</time>
      </trkpt>
      <trkpt lat="46.0527" lon="5.72544">
        <ele>1298.6</ele>
        <time>2021-08-20T11:53:04Z</time>
      </trkpt>
      <trkpt lat="46.05258" lon="5.72551">
        <ele>1298</ele>
        <time>2021-08-20T11:53:06Z</time>
      </trkpt>
      <trkpt lat="46.05246" lon="5.72556">
        <ele>1297.4</ele>
        <time>2021-08-20T11:53:08Z</time>
      </trkpt>
      <trkpt lat="46.05241" lon="5.72558">
        <ele>1297.2</ele>
        <time>2021-08-20T11:53:09Z</time>
      </trkpt>
      <trkpt lat="46.05236" lon="5.72559">
        <ele>1297</ele>
        <time>2021-08-20T11:53:10Z</time>
      </trkpt>
      <trkpt lat="46.05227" lon="5.72561">
        <ele>1296.7</ele>
        <time>2021-08-20T11:53:12Z</time>
      </trkpt>
      <trkpt lat="46.05221" lon="5.72563">
        <ele>1296.5</ele>
        <time>2021-08-20T11:53:14Z</time>
      </trkpt>
      <trkpt lat="46.0521" lon="5.72565">
        <ele>1296.2</ele>
        <time>2021-08-20T11:53:16Z</time>
      </trkpt>
      <trkpt lat="46.05198" lon="5.72561">
        <ele>1295.4</ele>
        <time>2021-08-20T11:53:18Z</time>
      </trkpt>
      <trkpt lat="46.05186" lon="5.72555">
        <ele>1294.5</ele>
        <time>2021-08-20T11:53:20Z</time>
      </trkpt>
      <trkpt lat="46.05172" lon="5.72545">
        <ele>1293.1</ele>
        <time>2021-08-20T11:53:22Z</time>
      </trkpt>
      <trkpt lat="46.05165" lon="5.72542">
        <ele>1292.4</ele>
        <time>2021-08-20T11:53:23Z</time>
      </trkpt>
      <trkpt lat="46.05151" lon="5.72537">
        <ele>1290.8</ele>
        <time>2021-08-20T11:53:25Z</time>
      </trkpt>
      <trkpt lat="46.05143" lon="5.72534">
        <ele>1290</ele>
        <time>2021-08-20T11:53:26Z</time>
      </trkpt>
      <trkpt lat="46.05127" lon="5.72528">
        <ele>1288.5</ele>
        <time>2021-08-20T11:53:28Z</time>
      </trkpt>
      <trkpt lat="46.0511" lon="5.72524">
        <ele>1287.3</ele>
        <time>2021-08-20T11:53:30Z</time>
      </trkpt>
      <trkpt lat="46.05102" lon="5.72523">
        <ele>1286.8</ele>
        <time>2021-08-20T11:53:31Z</time>
      </trkpt>
      <trkpt lat="46.05094" lon="5.72521">
        <ele>1286.5</ele>
        <time>2021-08-20T11:53:32Z</time>
      </trkpt>
      <trkpt lat="46.0508" lon="5.72518">
        <ele>1286.1</ele>
        <time>2021-08-20T11:53:34Z</time>
      </trkpt>
      <trkpt lat="46.05074" lon="5.72517">
        <ele>1286</ele>
        <time>2021-08-20T11:53:35Z</time>
      </trkpt>
      <trkpt lat="46.05068" lon="5.72517">
        <ele>1286</ele>
        <time>2021-08-20T11:53:36Z</time>
      </trkpt>
      <trkpt lat="46.05056" lon="5.72517">
        <ele>1285.9</ele>
        <time>2021-08-20T11:53:38Z</time>
      </trkpt>
      <trkpt lat="46.05045" lon="5.72516">
        <ele>1285.9</ele>
        <time>2021-08-20T11:53:40Z</time>
      </trkpt>
      <trkpt lat="46.05034" lon="5.72515">
        <ele>1285.7</ele>
        <time>2021-08-20T11:53:42Z</time>
      </trkpt>
      <trkpt lat="46.05024" lon="5.72515">
        <ele>1285.5</ele>
        <time>2021-08-20T11:53:44Z</time>
      </trkpt>
      <trkpt lat="46.05013" lon="5.72516">
        <ele>1285.1</ele>
        <time>2021-08-20T11:53:46Z</time>
      </trkpt>
      <trkpt lat="46.05006" lon="5.72515">
        <ele>1284.7</ele>
        <time>2021-08-20T11:53:47Z</time>
      </trkpt>
      <trkpt lat="46.04992" lon="5.72515">
        <ele>1283.6</ele>
        <time>2021-08-20T11:53:49Z</time>
      </trkpt>
      <trkpt lat="46.04985" lon="5.72515">
        <ele>1283</ele>
        <time>2021-08-20T11:53:50Z</time>
      </trkpt>
      <trkpt lat="46.04971" lon="5.72515">
        <ele>1282.1</ele>
        <time>2021-08-20T11:53:52Z</time>
      </trkpt>
      <trkpt lat="46.04965" lon="5.72515">
        <ele>1281.7</ele>
        <time>2021-08-20T11:53:53Z</time>
      </trkpt>
      <trkpt lat="46.04951" lon="5.72512">
        <ele>1281.2</ele>
        <time>2021-08-20T11:53:55Z</time>
      </trkpt>
      <trkpt lat="46.04944" lon="5.72511">
        <ele>1281</ele>
        <time>2021-08-20T11:53:56Z</time>
      </trkpt>
      <trkpt lat="46.04933" lon="5.72506">
        <ele>1280.6</ele>
        <time>2021-08-20T11:53:58Z</time>
      </trkpt>
      <trkpt lat="46.04923" lon="5.72499">
        <ele>1280.4</ele>
        <time>2021-08-20T11:54:00Z</time>
      </trkpt>
      <trkpt lat="46.04914" lon="5.72491">
        <ele>1280.3</ele>
        <time>2021-08-20T11:54:02Z</time>
      </trkpt>
      <trkpt lat="46.04911" lon="5.72489">
        <ele>1280.3</ele>
        <time>2021-08-20T11:54:03Z</time>
      </trkpt>
      <trkpt lat="46.04902" lon="5.72481">
        <ele>1279.9</ele>
        <time>2021-08-20T11:54:05Z</time>
      </trkpt>
      <trkpt lat="46.04897" lon="5.72478">
        <ele>1279.7</ele>
        <time>2021-08-20T11:54:06Z</time>
      </trkpt>
      <trkpt lat="46.04887" lon="5.72473">
        <ele>1278.9</ele>
        <time>2021-08-20T11:54:08Z</time>
      </trkpt>
      <trkpt lat="46.04875" lon="5.72466">
        <ele>1277.8</ele>
        <time>2021-08-20T11:54:10Z</time>
      </trkpt>
      <trkpt lat="46.04868" lon="5.72463">
        <ele>1277.1</ele>
        <time>2021-08-20T11:54:11Z</time>
      </trkpt>
      <trkpt lat="46.04853" lon="5.72452">
        <ele>1275.5</ele>
        <time>2021-08-20T11:54:13Z</time>
      </trkpt>
      <trkpt lat="46.04845" lon="5.72445">
        <ele>1274.6</ele>
        <time>2021-08-20T11:54:14Z</time>
      </trkpt>
      <trkpt lat="46.04829" lon="5.72436">
        <ele>1273</ele>
        <time>2021-08-20T11:54:16Z</time>
      </trkpt>
      <trkpt lat="46.04821" lon="5.72431">
        <ele>1272.5</ele>
        <time>2021-08-20T11:54:17Z</time>
      </trkpt>
      <trkpt lat="46.04814" lon="5.72429">
        <ele>1272.2</ele>
        <time>2021-08-20T11:54:18Z</time>
      </trkpt>
      <trkpt lat="46.04808" lon="5.72426">
        <ele>1271.9</ele>
        <time>2021-08-20T11:54:20Z</time>
      </trkpt>
      <trkpt lat="46.04796" lon="5.72421">
        <ele>1271.3</ele>
        <time>2021-08-20T11:54:22Z</time>
      </trkpt>
      <trkpt lat="46.04789" lon="5.72418">
        <ele>1271</ele>
        <time>2021-08-20T11:54:23Z</time>
      </trkpt>
      <trkpt lat="46.04775" lon="5.72415">
        <ele>1270.4</ele>
        <time>2021-08-20T11:54:25Z</time>
      </trkpt>
      <trkpt lat="46.04766" lon="5.72414">
        <ele>1270.1</ele>
        <time>2021-08-20T11:54:26Z</time>
      </trkpt>
      <trkpt lat="46.04747" lon="5.72415">
        <ele>1269.5</ele>
        <time>2021-08-20T11:54:28Z</time>
      </trkpt>
      <trkpt lat="46.04734" lon="5.72416">
        <ele>1269.4</ele>
        <time>2021-08-20T11:54:30Z</time>
      </trkpt>
      <trkpt lat="46.04728" lon="5.72415">
        <ele>1269.4</ele>
        <time>2021-08-20T11:54:31Z</time>
      </trkpt>
      <trkpt lat="46.04717" lon="5.72411">
        <ele>1269.6</ele>
        <time>2021-08-20T11:54:33Z</time>
      </trkpt>
      <trkpt lat="46.04711" lon="5.72409">
        <ele>1269.7</ele>
        <time>2021-08-20T11:54:34Z</time>
      </trkpt>
      <trkpt lat="46.04701" lon="5.72405">
        <ele>1269.7</ele>
        <time>2021-08-20T11:54:36Z</time>
      </trkpt>
      <trkpt lat="46.04691" lon="5.72405">
        <ele>1269.6</ele>
        <time>2021-08-20T11:54:38Z</time>
      </trkpt>
      <trkpt lat="46.04682" lon="5.72404">
        <ele>1269.5</ele>
        <time>2021-08-20T11:54:40Z</time>
      </trkpt>
      <trkpt lat="46.04675" lon="5.724">
        <ele>1269.3</ele>
        <time>2021-08-20T11:54:42Z</time>
      </trkpt>
      <trkpt lat="46.04667" lon="5.72393">
        <ele>1269.2</ele>
        <time>2021-08-20T11:54:44Z</time>
      </trkpt>
      <trkpt lat="46.0466" lon="5.72389">
        <ele>1268.8</ele>
        <time>2021-08-20T11:54:46Z</time>
      </trkpt>
      <trkpt lat="46.04652" lon="5.72384">
        <ele>1268.3</ele>
        <time>2021-08-20T11:54:48Z</time>
      </trkpt>
      <trkpt lat="46.04645" lon="5.72383">
        <ele>1267.5</ele>
        <time>2021-08-20T11:54:50Z</time>
      </trkpt>
      <trkpt lat="46.04641" lon="5.72386">
        <ele>1267</ele>
        <time>2021-08-20T11:54:52Z</time>
      </trkpt>
      <trkpt lat="46.04636" lon="5.72389">
        <ele>1266.3</ele>
        <time>2021-08-20T11:54:54Z</time>
      </trkpt>
      <trkpt lat="46.04629" lon="5.72393">
        <ele>1265.4</ele>
        <time>2021-08-20T11:54:56Z</time>
      </trkpt>
      <trkpt lat="46.04624" lon="5.72396">
        <ele>1264.8</ele>
        <time>2021-08-20T11:54:57Z</time>
      </trkpt>
      <trkpt lat="46.04615" lon="5.72403">
        <ele>1263.6</ele>
        <time>2021-08-20T11:54:59Z</time>
      </trkpt>
      <trkpt lat="46.04612" lon="5.72406">
        <ele>1263.1</ele>
        <time>2021-08-20T11:55:00Z</time>
      </trkpt>
      <trkpt lat="46.0461" lon="5.7241">
        <ele>1262.6</ele>
        <time>2021-08-20T11:55:02Z</time>
      </trkpt>
      <trkpt lat="46.04605" lon="5.72411">
        <ele>1261.8</ele>
        <time>2021-08-20T11:55:04Z</time>
      </trkpt>
      <trkpt lat="46.04601" lon="5.72411">
        <ele>1261.3</ele>
        <time>2021-08-20T11:55:05Z</time>
      </trkpt>
      <trkpt lat="46.04597" lon="5.72413">
        <ele>1260.6</ele>
        <time>2021-08-20T11:55:06Z</time>
      </trkpt>
      <trkpt lat="46.04587" lon="5.72415">
        <ele>1259</ele>
        <time>2021-08-20T11:55:08Z</time>
      </trkpt>
      <trkpt lat="46.04579" lon="5.72413">
        <ele>1257.4</ele>
        <time>2021-08-20T11:55:10Z</time>
      </trkpt>
      <trkpt lat="46.04541" lon="5.72404">
        <ele>1250.3</ele>
        <time>2021-08-20T11:55:18Z</time>
      </trkpt>
      <trkpt lat="46.04532" lon="5.72402">
        <ele>1248.5</ele>
        <time>2021-08-20T11:55:20Z</time>
      </trkpt>
      <trkpt lat="46.04523" lon="5.72393">
        <ele>1246.6</ele>
        <time>2021-08-20T11:55:22Z</time>
      </trkpt>
      <trkpt lat="46.04514" lon="5.72383">
        <ele>1244.5</ele>
        <time>2021-08-20T11:55:24Z</time>
      </trkpt>
      <trkpt lat="46.04511" lon="5.7238">
        <ele>1243.8</ele>
        <time>2021-08-20T11:55:25Z</time>
      </trkpt>
      <trkpt lat="46.04504" lon="5.72374">
        <ele>1242.3</ele>
        <time>2021-08-20T11:55:27Z</time>
      </trkpt>
      <trkpt lat="46.04501" lon="5.7237">
        <ele>1241.5</ele>
        <time>2021-08-20T11:55:28Z</time>
      </trkpt>
      <trkpt lat="46.04498" lon="5.72367">
        <ele>1240.8</ele>
        <time>2021-08-20T11:55:29Z</time>
      </trkpt>
      <trkpt lat="46.04496" lon="5.72365">
        <ele>1240.4</ele>
        <time>2021-08-20T11:55:31Z</time>
      </trkpt>
      <trkpt lat="46.04495" lon="5.72364">
        <ele>1240.1</ele>
        <time>2021-08-20T11:55:32Z</time>
      </trkpt>
      <trkpt lat="46.04486" lon="5.72358">
        <ele>1238.4</ele>
        <time>2021-08-20T11:55:33Z</time>
      </trkpt>
      <trkpt lat="46.04472" lon="5.72349">
        <ele>1235.9</ele>
        <time>2021-08-20T11:55:35Z</time>
      </trkpt>
      <trkpt lat="46.04462" lon="5.72342">
        <ele>1234.2</ele>
        <time>2021-08-20T11:55:36Z</time>
      </trkpt>
      <trkpt lat="46.04453" lon="5.7234">
        <ele>1232.8</ele>
        <time>2021-08-20T11:55:37Z</time>
      </trkpt>
      <trkpt lat="46.04445" lon="5.7234">
        <ele>1231.7</ele>
        <time>2021-08-20T11:55:39Z</time>
      </trkpt>
      <trkpt lat="46.04443" lon="5.72339">
        <ele>1231.5</ele>
        <time>2021-08-20T11:55:40Z</time>
      </trkpt>
      <trkpt lat="46.04443" lon="5.72339">
        <ele>1231.3</ele>
        <time>2021-08-20T11:55:41Z</time>
      </trkpt>
      <trkpt lat="46.04443" lon="5.72338">
        <ele>1231.3</ele>
        <time>2021-08-20T11:55:42Z</time>
      </trkpt>
      <trkpt lat="46.04424" lon="5.72331">
        <ele>1228.4</ele>
        <time>2021-08-20T11:55:43Z</time>
      </trkpt>
      <trkpt lat="46.04402" lon="5.7232">
        <ele>1224.5</ele>
        <time>2021-08-20T11:55:45Z</time>
      </trkpt>
      <trkpt lat="46.04392" lon="5.72316">
        <ele>1222.7</ele>
        <time>2021-08-20T11:55:46Z</time>
      </trkpt>
      <trkpt lat="46.04384" lon="5.72313">
        <ele>1221.1</ele>
        <time>2021-08-20T11:55:47Z</time>
      </trkpt>
      <trkpt lat="46.04377" lon="5.72309">
        <ele>1219.5</ele>
        <time>2021-08-20T11:55:48Z</time>
      </trkpt>
      <trkpt lat="46.04364" lon="5.72297">
        <ele>1216.5</ele>
        <time>2021-08-20T11:55:50Z</time>
      </trkpt>
      <trkpt lat="46.0435" lon="5.72281">
        <ele>1213.6</ele>
        <time>2021-08-20T11:55:52Z</time>
      </trkpt>
      <trkpt lat="46.04336" lon="5.72264">
        <ele>1210.7</ele>
        <time>2021-08-20T11:55:54Z</time>
      </trkpt>
      <trkpt lat="46.04324" lon="5.72251">
        <ele>1208.8</ele>
        <time>2021-08-20T11:55:56Z</time>
      </trkpt>
      <trkpt lat="46.04312" lon="5.72241">
        <ele>1207.1</ele>
        <time>2021-08-20T11:55:58Z</time>
      </trkpt>
      <trkpt lat="46.043" lon="5.7223">
        <ele>1205.4</ele>
        <time>2021-08-20T11:56:00Z</time>
      </trkpt>
      <trkpt lat="46.04293" lon="5.72224">
        <ele>1204.7</ele>
        <time>2021-08-20T11:56:01Z</time>
      </trkpt>
      <trkpt lat="46.04287" lon="5.72217">
        <ele>1204</ele>
        <time>2021-08-20T11:56:02Z</time>
      </trkpt>
      <trkpt lat="46.04276" lon="5.72198">
        <ele>1202.9</ele>
        <time>2021-08-20T11:56:04Z</time>
      </trkpt>
      <trkpt lat="46.04266" lon="5.72178">
        <ele>1202.3</ele>
        <time>2021-08-20T11:56:06Z</time>
      </trkpt>
      <trkpt lat="46.04255" lon="5.72165">
        <ele>1202.1</ele>
        <time>2021-08-20T11:56:08Z</time>
      </trkpt>
      <trkpt lat="46.04251" lon="5.72155">
        <ele>1201.9</ele>
        <time>2021-08-20T11:56:10Z</time>
      </trkpt>
      <trkpt lat="46.04253" lon="5.72152">
        <ele>1201.8</ele>
        <time>2021-08-20T11:56:11Z</time>
      </trkpt>
      <trkpt lat="46.04253" lon="5.72146">
        <ele>1201.7</ele>
        <time>2021-08-20T11:56:12Z</time>
      </trkpt>
      <trkpt lat="46.04254" lon="5.72129">
        <ele>1201.1</ele>
        <time>2021-08-20T11:56:14Z</time>
      </trkpt>
      <trkpt lat="46.04258" lon="5.72124">
        <ele>1202.5</ele>
        <time>2021-08-20T11:56:16Z</time>
      </trkpt>
      <trkpt lat="46.04261" lon="5.72126">
        <ele>1202.6</ele>
        <time>2021-08-20T11:56:17Z</time>
      </trkpt>
      <trkpt lat="46.04265" lon="5.72128">
        <ele>1202.5</ele>
        <time>2021-08-20T11:56:18Z</time>
      </trkpt>
      <trkpt lat="46.04267" lon="5.7213">
        <ele>1202.5</ele>
        <time>2021-08-20T11:56:20Z</time>
      </trkpt>
      <trkpt lat="46.04268" lon="5.7213">
        <ele>1202.5</ele>
        <time>2021-08-20T11:56:21Z</time>
      </trkpt>
      <trkpt lat="46.04267" lon="5.72133">
        <ele>1202.4</ele>
        <time>2021-08-20T11:56:22Z</time>
      </trkpt>
      <trkpt lat="46.04265" lon="5.72136">
        <ele>1202.3</ele>
        <time>2021-08-20T11:56:23Z</time>
      </trkpt>
      <trkpt lat="46.04264" lon="5.72139">
        <ele>1202.2</ele>
        <time>2021-08-20T11:56:24Z</time>
      </trkpt>
      <trkpt lat="46.04263" lon="5.72142">
        <ele>1202.1</ele>
        <time>2021-08-20T11:56:25Z</time>
      </trkpt>
      <trkpt lat="46.04261" lon="5.72145">
        <ele>1201.9</ele>
        <time>2021-08-20T11:56:27Z</time>
      </trkpt>
      <trkpt lat="46.0426" lon="5.72148">
        <ele>1201.8</ele>
        <time>2021-08-20T11:57:27Z</time>
      </trkpt>
      <trkpt lat="46.04259" lon="5.72151">
        <ele>1201.7</ele>
        <time>2021-08-20T11:57:28Z</time>
      </trkpt>
      <trkpt lat="46.04256" lon="5.72156">
        <ele>1201.5</ele>
        <time>2021-08-20T11:57:30Z</time>
      </trkpt>
      <trkpt lat="46.04247" lon="5.72169">
        <ele>1200.9</ele>
        <time>2021-08-20T11:57:32Z</time>
      </trkpt>
      <trkpt lat="46.0424" lon="5.72179">
        <ele>1200.6</ele>
        <time>2021-08-20T11:57:34Z</time>
      </trkpt>
      <trkpt lat="46.04237" lon="5.72181">
        <ele>1200.4</ele>
        <time>2021-08-20T11:57:35Z</time>
      </trkpt>
      <trkpt lat="46.04234" lon="5.72188">
        <ele>1200.2</ele>
        <time>2021-08-20T11:57:37Z</time>
      </trkpt>
      <trkpt lat="46.04231" lon="5.72197">
        <ele>1199.9</ele>
        <time>2021-08-20T11:57:38Z</time>
      </trkpt>
      <trkpt lat="46.04227" lon="5.72204">
        <ele>1199.7</ele>
        <time>2021-08-20T11:57:40Z</time>
      </trkpt>
      <trkpt lat="46.04225" lon="5.72207">
        <ele>1199.6</ele>
        <time>2021-08-20T11:57:41Z</time>
      </trkpt>
      <trkpt lat="46.04221" lon="5.72212">
        <ele>1199.5</ele>
        <time>2021-08-20T11:57:42Z</time>
      </trkpt>
      <trkpt lat="46.04217" lon="5.72217">
        <ele>1199.4</ele>
        <time>2021-08-20T11:57:44Z</time>
      </trkpt>
      <trkpt lat="46.04213" lon="5.72222">
        <ele>1199.3</ele>
        <time>2021-08-20T11:57:45Z</time>
      </trkpt>
      <trkpt lat="46.0421" lon="5.72226">
        <ele>1199.3</ele>
        <time>2021-08-20T11:57:46Z</time>
      </trkpt>
      <trkpt lat="46.04208" lon="5.7223">
        <ele>1199.2</ele>
        <time>2021-08-20T11:57:48Z</time>
      </trkpt>
      <trkpt lat="46.04206" lon="5.72237">
        <ele>1199.2</ele>
        <time>2021-08-20T11:57:49Z</time>
      </trkpt>
      <trkpt lat="46.04203" lon="5.72241">
        <ele>1199.2</ele>
        <time>2021-08-20T11:57:51Z</time>
      </trkpt>
      <trkpt lat="46.042" lon="5.72245">
        <ele>1199.2</ele>
        <time>2021-08-20T11:57:52Z</time>
      </trkpt>
      <trkpt lat="46.04198" lon="5.72249">
        <ele>1199.1</ele>
        <time>2021-08-20T11:57:53Z</time>
      </trkpt>
      <trkpt lat="46.04195" lon="5.72254">
        <ele>1199.1</ele>
        <time>2021-08-20T11:57:54Z</time>
      </trkpt>
      <trkpt lat="46.04192" lon="5.72259">
        <ele>1198.9</ele>
        <time>2021-08-20T11:57:55Z</time>
      </trkpt>
      <trkpt lat="46.04188" lon="5.72263">
        <ele>1198.8</ele>
        <time>2021-08-20T11:57:56Z</time>
      </trkpt>
      <trkpt lat="46.04182" lon="5.72268">
        <ele>1198.5</ele>
        <time>2021-08-20T11:57:58Z</time>
      </trkpt>
      <trkpt lat="46.0418" lon="5.72274">
        <ele>1198.3</ele>
        <time>2021-08-20T11:57:59Z</time>
      </trkpt>
      <trkpt lat="46.04178" lon="5.72276">
        <ele>1198.2</ele>
        <time>2021-08-20T11:58:00Z</time>
      </trkpt>
      <trkpt lat="46.04168" lon="5.7228">
        <ele>1197.7</ele>
        <time>2021-08-20T11:58:02Z</time>
      </trkpt>
      <trkpt lat="46.04159" lon="5.72286">
        <ele>1197.3</ele>
        <time>2021-08-20T11:58:03Z</time>
      </trkpt>
      <trkpt lat="46.04153" lon="5.7229">
        <ele>1197.1</ele>
        <time>2021-08-20T11:58:05Z</time>
      </trkpt>
      <trkpt lat="46.04148" lon="5.72291">
        <ele>1197</ele>
        <time>2021-08-20T11:58:07Z</time>
      </trkpt>
      <trkpt lat="46.04143" lon="5.72293">
        <ele>1196.9</ele>
        <time>2021-08-20T11:58:08Z</time>
      </trkpt>
      <trkpt lat="46.04138" lon="5.72293">
        <ele>1196.8</ele>
        <time>2021-08-20T11:58:09Z</time>
      </trkpt>
      <trkpt lat="46.04134" lon="5.72294">
        <ele>1196.7</ele>
        <time>2021-08-20T11:58:10Z</time>
      </trkpt>
      <trkpt lat="46.04124" lon="5.7229">
        <ele>1196.5</ele>
        <time>2021-08-20T11:58:12Z</time>
      </trkpt>
      <trkpt lat="46.04112" lon="5.72289">
        <ele>1196.2</ele>
        <time>2021-08-20T11:58:14Z</time>
      </trkpt>
      <trkpt lat="46.04104" lon="5.7229">
        <ele>1196</ele>
        <time>2021-08-20T11:58:15Z</time>
      </trkpt>
      <trkpt lat="46.04097" lon="5.7229">
        <ele>1195.7</ele>
        <time>2021-08-20T11:58:17Z</time>
      </trkpt>
      <trkpt lat="46.04091" lon="5.72292">
        <ele>1195.5</ele>
        <time>2021-08-20T11:58:18Z</time>
      </trkpt>
      <trkpt lat="46.04085" lon="5.72294">
        <ele>1195.2</ele>
        <time>2021-08-20T11:58:19Z</time>
      </trkpt>
      <trkpt lat="46.0408" lon="5.72296">
        <ele>1194.9</ele>
        <time>2021-08-20T11:58:20Z</time>
      </trkpt>
      <trkpt lat="46.04068" lon="5.72299">
        <ele>1194.1</ele>
        <time>2021-08-20T11:58:22Z</time>
      </trkpt>
      <trkpt lat="46.04062" lon="5.723">
        <ele>1193.6</ele>
        <time>2021-08-20T11:58:23Z</time>
      </trkpt>
      <trkpt lat="46.04055" lon="5.723">
        <ele>1193.1</ele>
        <time>2021-08-20T11:58:24Z</time>
      </trkpt>
      <trkpt lat="46.04049" lon="5.72302">
        <ele>1192.8</ele>
        <time>2021-08-20T11:58:25Z</time>
      </trkpt>
      <trkpt lat="46.04044" lon="5.72303">
        <ele>1192.5</ele>
        <time>2021-08-20T11:58:26Z</time>
      </trkpt>
      <trkpt lat="46.04032" lon="5.72304">
        <ele>1192</ele>
        <time>2021-08-20T11:58:28Z</time>
      </trkpt>
      <trkpt lat="46.0402" lon="5.72301">
        <ele>1191.4</ele>
        <time>2021-08-20T11:58:30Z</time>
      </trkpt>
      <trkpt lat="46.04014" lon="5.72299">
        <ele>1191.2</ele>
        <time>2021-08-20T11:58:31Z</time>
      </trkpt>
      <trkpt lat="46.04002" lon="5.723">
        <ele>1190.7</ele>
        <time>2021-08-20T11:58:33Z</time>
      </trkpt>
      <trkpt lat="46.03996" lon="5.723">
        <ele>1190.5</ele>
        <time>2021-08-20T11:58:34Z</time>
      </trkpt>
      <trkpt lat="46.03986" lon="5.72299">
        <ele>1190.1</ele>
        <time>2021-08-20T11:58:36Z</time>
      </trkpt>
      <trkpt lat="46.03982" lon="5.72298">
        <ele>1190</ele>
        <time>2021-08-20T11:58:37Z</time>
      </trkpt>
      <trkpt lat="46.03977" lon="5.72296">
        <ele>1189.9</ele>
        <time>2021-08-20T11:58:38Z</time>
      </trkpt>
      <trkpt lat="46.03971" lon="5.72294">
        <ele>1189.8</ele>
        <time>2021-08-20T11:58:40Z</time>
      </trkpt>
      <trkpt lat="46.03966" lon="5.72294">
        <ele>1189.7</ele>
        <time>2021-08-20T11:58:41Z</time>
      </trkpt>
      <trkpt lat="46.03961" lon="5.72294">
        <ele>1189.6</ele>
        <time>2021-08-20T11:58:42Z</time>
      </trkpt>
      <trkpt lat="46.03957" lon="5.72295">
        <ele>1189.5</ele>
        <time>2021-08-20T11:58:43Z</time>
      </trkpt>
      <trkpt lat="46.03952" lon="5.72297">
        <ele>1189.4</ele>
        <time>2021-08-20T11:58:44Z</time>
      </trkpt>
      <trkpt lat="46.03943" lon="5.723">
        <ele>1189.2</ele>
        <time>2021-08-20T11:58:46Z</time>
      </trkpt>
      <trkpt lat="46.03938" lon="5.72304">
        <ele>1189.1</ele>
        <time>2021-08-20T11:58:47Z</time>
      </trkpt>
      <trkpt lat="46.0393" lon="5.72304">
        <ele>1188.9</ele>
        <time>2021-08-20T11:58:49Z</time>
      </trkpt>
      <trkpt lat="46.03925" lon="5.72303">
        <ele>1188.8</ele>
        <time>2021-08-20T11:58:50Z</time>
      </trkpt>
      <trkpt lat="46.03915" lon="5.72304">
        <ele>1188.5</ele>
        <time>2021-08-20T11:58:52Z</time>
      </trkpt>
      <trkpt lat="46.03905" lon="5.72305">
        <ele>1188.2</ele>
        <time>2021-08-20T11:58:54Z</time>
      </trkpt>
      <trkpt lat="46.03895" lon="5.72306">
        <ele>1187.9</ele>
        <time>2021-08-20T11:58:56Z</time>
      </trkpt>
      <trkpt lat="46.03885" lon="5.72307">
        <ele>1187.5</ele>
        <time>2021-08-20T11:58:58Z</time>
      </trkpt>
      <trkpt lat="46.0388" lon="5.72306">
        <ele>1187.3</ele>
        <time>2021-08-20T11:58:59Z</time>
      </trkpt>
      <trkpt lat="46.03876" lon="5.72305">
        <ele>1187.1</ele>
        <time>2021-08-20T11:59:00Z</time>
      </trkpt>
      <trkpt lat="46.03866" lon="5.72304">
        <ele>1186.7</ele>
        <time>2021-08-20T11:59:02Z</time>
      </trkpt>
      <trkpt lat="46.03856" lon="5.72306">
        <ele>1186.3</ele>
        <time>2021-08-20T11:59:04Z</time>
      </trkpt>
      <trkpt lat="46.03844" lon="5.72307">
        <ele>1185.9</ele>
        <time>2021-08-20T11:59:06Z</time>
      </trkpt>
      <trkpt lat="46.03838" lon="5.72307">
        <ele>1185.7</ele>
        <time>2021-08-20T11:59:07Z</time>
      </trkpt>
      <trkpt lat="46.03827" lon="5.72305">
        <ele>1185.3</ele>
        <time>2021-08-20T11:59:09Z</time>
      </trkpt>
      <trkpt lat="46.03815" lon="5.72302">
        <ele>1184.9</ele>
        <time>2021-08-20T11:59:11Z</time>
      </trkpt>
      <trkpt lat="46.03809" lon="5.723">
        <ele>1184.7</ele>
        <time>2021-08-20T11:59:12Z</time>
      </trkpt>
      <trkpt lat="46.03797" lon="5.72297">
        <ele>1184.4</ele>
        <time>2021-08-20T11:59:14Z</time>
      </trkpt>
      <trkpt lat="46.03786" lon="5.72295">
        <ele>1184.2</ele>
        <time>2021-08-20T11:59:16Z</time>
      </trkpt>
      <trkpt lat="46.0378" lon="5.72294">
        <ele>1184.1</ele>
        <time>2021-08-20T11:59:17Z</time>
      </trkpt>
      <trkpt lat="46.03775" lon="5.72293">
        <ele>1184</ele>
        <time>2021-08-20T11:59:18Z</time>
      </trkpt>
      <trkpt lat="46.03766" lon="5.72291">
        <ele>1184</ele>
        <time>2021-08-20T11:59:20Z</time>
      </trkpt>
      <trkpt lat="46.03762" lon="5.72291">
        <ele>1184</ele>
        <time>2021-08-20T11:59:21Z</time>
      </trkpt>
      <trkpt lat="46.0376" lon="5.72291">
        <ele>1184</ele>
        <time>2021-08-20T11:59:22Z</time>
      </trkpt>
      <trkpt lat="46.03757" lon="5.72291">
        <ele>1184</ele>
        <time>2021-08-20T11:59:23Z</time>
      </trkpt>
      <trkpt lat="46.03752" lon="5.7229">
        <ele>1184</ele>
        <time>2021-08-20T11:59:24Z</time>
      </trkpt>
      <trkpt lat="46.03748" lon="5.72289">
        <ele>1184</ele>
        <time>2021-08-20T11:59:25Z</time>
      </trkpt>
      <trkpt lat="46.03741" lon="5.72289">
        <ele>1184.1</ele>
        <time>2021-08-20T11:59:27Z</time>
      </trkpt>
      <trkpt lat="46.03734" lon="5.7229">
        <ele>1184.1</ele>
        <time>2021-08-20T11:59:29Z</time>
      </trkpt>
      <trkpt lat="46.03729" lon="5.7229">
        <ele>1184.1</ele>
        <time>2021-08-20T11:59:30Z</time>
      </trkpt>
      <trkpt lat="46.03719" lon="5.7229">
        <ele>1184.1</ele>
        <time>2021-08-20T11:59:32Z</time>
      </trkpt>
      <trkpt lat="46.03713" lon="5.72289">
        <ele>1183.9</ele>
        <time>2021-08-20T11:59:34Z</time>
      </trkpt>
      <trkpt lat="46.0371" lon="5.7229">
        <ele>1183.7</ele>
        <time>2021-08-20T11:59:35Z</time>
      </trkpt>
      <trkpt lat="46.03705" lon="5.72291">
        <ele>1183.5</ele>
        <time>2021-08-20T11:59:36Z</time>
      </trkpt>
      <trkpt lat="46.03697" lon="5.7229">
        <ele>1182.8</ele>
        <time>2021-08-20T11:59:38Z</time>
      </trkpt>
      <trkpt lat="46.0369" lon="5.72287">
        <ele>1182.2</ele>
        <time>2021-08-20T11:59:39Z</time>
      </trkpt>
      <trkpt lat="46.03677" lon="5.72285">
        <ele>1181</ele>
        <time>2021-08-20T11:59:41Z</time>
      </trkpt>
      <trkpt lat="46.03671" lon="5.72284">
        <ele>1180.4</ele>
        <time>2021-08-20T11:59:42Z</time>
      </trkpt>
      <trkpt lat="46.03667" lon="5.72282">
        <ele>1179.9</ele>
        <time>2021-08-20T11:59:43Z</time>
      </trkpt>
      <trkpt lat="46.03664" lon="5.72279">
        <ele>1179.6</ele>
        <time>2021-08-20T11:59:44Z</time>
      </trkpt>
      <trkpt lat="46.03661" lon="5.72276">
        <ele>1179.2</ele>
        <time>2021-08-20T11:59:45Z</time>
      </trkpt>
      <trkpt lat="46.03659" lon="5.72271">
        <ele>1178.9</ele>
        <time>2021-08-20T11:59:46Z</time>
      </trkpt>
      <trkpt lat="46.03656" lon="5.72273">
        <ele>1178.7</ele>
        <time>2021-08-20T11:59:48Z</time>
      </trkpt>
      <trkpt lat="46.03654" lon="5.72276">
        <ele>1178.4</ele>
        <time>2021-08-20T11:59:49Z</time>
      </trkpt>
      <trkpt lat="46.03652" lon="5.72279">
        <ele>1178.2</ele>
        <time>2021-08-20T11:59:50Z</time>
      </trkpt>
      <trkpt lat="46.03649" lon="5.72282">
        <ele>1178</ele>
        <time>2021-08-20T11:59:51Z</time>
      </trkpt>
      <trkpt lat="46.03647" lon="5.72284">
        <ele>1177.9</ele>
        <time>2021-08-20T11:59:53Z</time>
      </trkpt>
      <trkpt lat="46.03645" lon="5.72287">
        <ele>1177.9</ele>
        <time>2021-08-20T11:59:54Z</time>
      </trkpt>
      <trkpt lat="46.03643" lon="5.7229">
        <ele>1177.8</ele>
        <time>2021-08-20T11:59:56Z</time>
      </trkpt>
      <trkpt lat="46.03641" lon="5.72293">
        <ele>1177.7</ele>
        <time>2021-08-20T11:59:58Z</time>
      </trkpt>
      <trkpt lat="46.03638" lon="5.72296">
        <ele>1177.6</ele>
        <time>2021-08-20T12:00:25Z</time>
      </trkpt>
      <trkpt lat="46.03636" lon="5.72298">
        <ele>1177.5</ele>
        <time>2021-08-20T12:00:26Z</time>
      </trkpt>
      <trkpt lat="46.03631" lon="5.7229">
        <ele>1177.3</ele>
        <time>2021-08-20T12:00:28Z</time>
      </trkpt>
      <trkpt lat="46.03626" lon="5.7228">
        <ele>1177.1</ele>
        <time>2021-08-20T12:00:29Z</time>
      </trkpt>
      <trkpt lat="46.03621" lon="5.72272">
        <ele>1176.9</ele>
        <time>2021-08-20T12:00:31Z</time>
      </trkpt>
      <trkpt lat="46.03619" lon="5.72268">
        <ele>1176.7</ele>
        <time>2021-08-20T12:00:32Z</time>
      </trkpt>
      <trkpt lat="46.03615" lon="5.72262">
        <ele>1176.5</ele>
        <time>2021-08-20T12:00:33Z</time>
      </trkpt>
      <trkpt lat="46.03612" lon="5.72258">
        <ele>1176.4</ele>
        <time>2021-08-20T12:00:34Z</time>
      </trkpt>
      <trkpt lat="46.03608" lon="5.72257">
        <ele>1176.3</ele>
        <time>2021-08-20T12:00:35Z</time>
      </trkpt>
      <trkpt lat="46.03605" lon="5.72256">
        <ele>1176.1</ele>
        <time>2021-08-20T12:00:36Z</time>
      </trkpt>
      <trkpt lat="46.03599" lon="5.72254">
        <ele>1175.9</ele>
        <time>2021-08-20T12:00:37Z</time>
      </trkpt>
      <trkpt lat="46.03592" lon="5.72252">
        <ele>1175.5</ele>
        <time>2021-08-20T12:00:39Z</time>
      </trkpt>
      <trkpt lat="46.03579" lon="5.72252">
        <ele>1174.8</ele>
        <time>2021-08-20T12:00:41Z</time>
      </trkpt>
      <trkpt lat="46.03574" lon="5.72256">
        <ele>1174.4</ele>
        <time>2021-08-20T12:00:42Z</time>
      </trkpt>
      <trkpt lat="46.03569" lon="5.72256">
        <ele>1174.1</ele>
        <time>2021-08-20T12:00:43Z</time>
      </trkpt>
      <trkpt lat="46.03565" lon="5.72255">
        <ele>1173.9</ele>
        <time>2021-08-20T12:00:44Z</time>
      </trkpt>
      <trkpt lat="46.0356" lon="5.72256">
        <ele>1173.5</ele>
        <time>2021-08-20T12:00:46Z</time>
      </trkpt>
      <trkpt lat="46.03554" lon="5.72259">
        <ele>1173.1</ele>
        <time>2021-08-20T12:00:47Z</time>
      </trkpt>
      <trkpt lat="46.0355" lon="5.72263">
        <ele>1172.7</ele>
        <time>2021-08-20T12:00:48Z</time>
      </trkpt>
      <trkpt lat="46.03542" lon="5.7227">
        <ele>1171.9</ele>
        <time>2021-08-20T12:00:50Z</time>
      </trkpt>
      <trkpt lat="46.03532" lon="5.72276">
        <ele>1171.1</ele>
        <time>2021-08-20T12:00:52Z</time>
      </trkpt>
      <trkpt lat="46.03528" lon="5.72278">
        <ele>1170.7</ele>
        <time>2021-08-20T12:00:53Z</time>
      </trkpt>
      <trkpt lat="46.03524" lon="5.7228">
        <ele>1170.3</ele>
        <time>2021-08-20T12:00:54Z</time>
      </trkpt>
      <trkpt lat="46.0352" lon="5.72285">
        <ele>1170</ele>
        <time>2021-08-20T12:00:55Z</time>
      </trkpt>
      <trkpt lat="46.03517" lon="5.7229">
        <ele>1169.6</ele>
        <time>2021-08-20T12:00:56Z</time>
      </trkpt>
      <trkpt lat="46.03515" lon="5.72295">
        <ele>1169.3</ele>
        <time>2021-08-20T12:00:58Z</time>
      </trkpt>
      <trkpt lat="46.0351" lon="5.72301">
        <ele>1168.8</ele>
        <time>2021-08-20T12:00:59Z</time>
      </trkpt>
      <trkpt lat="46.03504" lon="5.72307">
        <ele>1168.2</ele>
        <time>2021-08-20T12:01:01Z</time>
      </trkpt>
      <trkpt lat="46.03499" lon="5.72312">
        <ele>1167.8</ele>
        <time>2021-08-20T12:01:02Z</time>
      </trkpt>
      <trkpt lat="46.03496" lon="5.72317">
        <ele>1167.4</ele>
        <time>2021-08-20T12:01:03Z</time>
      </trkpt>
      <trkpt lat="46.03492" lon="5.72323">
        <ele>1167</ele>
        <time>2021-08-20T12:01:04Z</time>
      </trkpt>
      <trkpt lat="46.0349" lon="5.72327">
        <ele>1166.7</ele>
        <time>2021-08-20T12:01:05Z</time>
      </trkpt>
      <trkpt lat="46.03485" lon="5.72333">
        <ele>1166.2</ele>
        <time>2021-08-20T12:01:07Z</time>
      </trkpt>
      <trkpt lat="46.03481" lon="5.72337">
        <ele>1165.8</ele>
        <time>2021-08-20T12:01:08Z</time>
      </trkpt>
      <trkpt lat="46.03479" lon="5.72336">
        <ele>1165.6</ele>
        <time>2021-08-20T12:01:09Z</time>
      </trkpt>
      <trkpt lat="46.03475" lon="5.72339">
        <ele>1165.3</ele>
        <time>2021-08-20T12:01:10Z</time>
      </trkpt>
      <trkpt lat="46.0347" lon="5.72344">
        <ele>1164.7</ele>
        <time>2021-08-20T12:01:11Z</time>
      </trkpt>
      <trkpt lat="46.03466" lon="5.72348">
        <ele>1164.4</ele>
        <time>2021-08-20T12:01:12Z</time>
      </trkpt>
      <trkpt lat="46.03463" lon="5.72351">
        <ele>1164</ele>
        <time>2021-08-20T12:01:14Z</time>
      </trkpt>
      <trkpt lat="46.03458" lon="5.72356">
        <ele>1163.6</ele>
        <time>2021-08-20T12:01:15Z</time>
      </trkpt>
      <trkpt lat="46.03454" lon="5.72361">
        <ele>1163.1</ele>
        <time>2021-08-20T12:01:16Z</time>
      </trkpt>
      <trkpt lat="46.0345" lon="5.7237">
        <ele>1162.5</ele>
        <time>2021-08-20T12:01:18Z</time>
      </trkpt>
      <trkpt lat="46.03442" lon="5.72382">
        <ele>1161.6</ele>
        <time>2021-08-20T12:01:20Z</time>
      </trkpt>
      <trkpt lat="46.03437" lon="5.72388">
        <ele>1161.2</ele>
        <time>2021-08-20T12:01:21Z</time>
      </trkpt>
      <trkpt lat="46.03427" lon="5.72398">
        <ele>1160.4</ele>
        <time>2021-08-20T12:01:23Z</time>
      </trkpt>
      <trkpt lat="46.03422" lon="5.72402">
        <ele>1160.1</ele>
        <time>2021-08-20T12:01:24Z</time>
      </trkpt>
      <trkpt lat="46.03412" lon="5.72403">
        <ele>1159.5</ele>
        <time>2021-08-20T12:01:26Z</time>
      </trkpt>
      <trkpt lat="46.03407" lon="5.72401">
        <ele>1159.2</ele>
        <time>2021-08-20T12:01:27Z</time>
      </trkpt>
      <trkpt lat="46.03401" lon="5.72402">
        <ele>1158.9</ele>
        <time>2021-08-20T12:01:28Z</time>
      </trkpt>
      <trkpt lat="46.03397" lon="5.724">
        <ele>1158.7</ele>
        <time>2021-08-20T12:01:29Z</time>
      </trkpt>
      <trkpt lat="46.03395" lon="5.72399">
        <ele>1158.6</ele>
        <time>2021-08-20T12:01:30Z</time>
      </trkpt>
      <trkpt lat="46.03395" lon="5.72396">
        <ele>1158.5</ele>
        <time>2021-08-20T12:01:31Z</time>
      </trkpt>
      <trkpt lat="46.03395" lon="5.72395">
        <ele>1158.5</ele>
        <time>2021-08-20T12:01:33Z</time>
      </trkpt>
      <trkpt lat="46.03395" lon="5.72394">
        <ele>1158.4</ele>
        <time>2021-08-20T12:01:35Z</time>
      </trkpt>
      <trkpt lat="46.03396" lon="5.72391">
        <ele>1158.3</ele>
        <time>2021-08-20T12:01:36Z</time>
      </trkpt>
      <trkpt lat="46.03396" lon="5.72391">
        <ele>1158.3</ele>
        <time>2021-08-20T12:01:38Z</time>
      </trkpt>
      <trkpt lat="46.03396" lon="5.7239">
        <ele>1158.3</ele>
        <time>2021-08-20T12:01:39Z</time>
      </trkpt>
      <trkpt lat="46.03396" lon="5.7239">
        <ele>1158.3</ele>
        <time>2021-08-20T12:01:41Z</time>
      </trkpt>
      <trkpt lat="46.03395" lon="5.72389">
        <ele>1158.2</ele>
        <time>2021-08-20T12:01:42Z</time>
      </trkpt>
      <trkpt lat="46.03394" lon="5.72389">
        <ele>1158.2</ele>
        <time>2021-08-20T12:01:43Z</time>
      </trkpt>
      <trkpt lat="46.03387" lon="5.72381">
        <ele>1157.8</ele>
        <time>2021-08-20T12:02:11Z</time>
      </trkpt>
      <trkpt lat="46.03382" lon="5.72386">
        <ele>1168.7</ele>
        <time>2021-08-20T12:02:13Z</time>
      </trkpt>
      <trkpt lat="46.03379" lon="5.7239">
        <ele>1168.7</ele>
        <time>2021-08-20T12:02:14Z</time>
      </trkpt>
      <trkpt lat="46.03373" lon="5.72393">
        <ele>1166.2</ele>
        <time>2021-08-20T12:02:15Z</time>
      </trkpt>
      <trkpt lat="46.03367" lon="5.72393">
        <ele>1165.4</ele>
        <time>2021-08-20T12:02:16Z</time>
      </trkpt>
      <trkpt lat="46.03364" lon="5.72393">
        <ele>1164.9</ele>
        <time>2021-08-20T12:02:17Z</time>
      </trkpt>
      <trkpt lat="46.03351" lon="5.72395">
        <ele>1163.2</ele>
        <time>2021-08-20T12:02:19Z</time>
      </trkpt>
      <trkpt lat="46.0334" lon="5.72394">
        <ele>1161.7</ele>
        <time>2021-08-20T12:02:21Z</time>
      </trkpt>
      <trkpt lat="46.03334" lon="5.72393">
        <ele>1160.9</ele>
        <time>2021-08-20T12:02:22Z</time>
      </trkpt>
      <trkpt lat="46.03322" lon="5.72391">
        <ele>1159.5</ele>
        <time>2021-08-20T12:02:24Z</time>
      </trkpt>
      <trkpt lat="46.0331" lon="5.7239">
        <ele>1158.1</ele>
        <time>2021-08-20T12:02:26Z</time>
      </trkpt>
      <trkpt lat="46.03297" lon="5.72392">
        <ele>1156.7</ele>
        <time>2021-08-20T12:02:28Z</time>
      </trkpt>
      <trkpt lat="46.03285" lon="5.72395">
        <ele>1155.3</ele>
        <time>2021-08-20T12:02:30Z</time>
      </trkpt>
      <trkpt lat="46.03278" lon="5.72396">
        <ele>1154.5</ele>
        <time>2021-08-20T12:02:31Z</time>
      </trkpt>
      <trkpt lat="46.03271" lon="5.72397">
        <ele>1153.8</ele>
        <time>2021-08-20T12:02:32Z</time>
      </trkpt>
      <trkpt lat="46.03258" lon="5.72401">
        <ele>1152.5</ele>
        <time>2021-08-20T12:02:34Z</time>
      </trkpt>
      <trkpt lat="46.03246" lon="5.72401">
        <ele>1151.4</ele>
        <time>2021-08-20T12:02:36Z</time>
      </trkpt>
      <trkpt lat="46.0324" lon="5.724">
        <ele>1150.9</ele>
        <time>2021-08-20T12:02:37Z</time>
      </trkpt>
      <trkpt lat="46.03234" lon="5.72399">
        <ele>1150.3</ele>
        <time>2021-08-20T12:02:38Z</time>
      </trkpt>
      <trkpt lat="46.03222" lon="5.72393">
        <ele>1149.3</ele>
        <time>2021-08-20T12:02:40Z</time>
      </trkpt>
      <trkpt lat="46.03216" lon="5.72389">
        <ele>1148.8</ele>
        <time>2021-08-20T12:02:41Z</time>
      </trkpt>
      <trkpt lat="46.03205" lon="5.72382">
        <ele>1148</ele>
        <time>2021-08-20T12:02:43Z</time>
      </trkpt>
      <trkpt lat="46.03195" lon="5.72379">
        <ele>1147.3</ele>
        <time>2021-08-20T12:02:45Z</time>
      </trkpt>
      <trkpt lat="46.0319" lon="5.7238">
        <ele>1147</ele>
        <time>2021-08-20T12:02:46Z</time>
      </trkpt>
      <trkpt lat="46.03183" lon="5.7238">
        <ele>1146.5</ele>
        <time>2021-08-20T12:02:48Z</time>
      </trkpt>
      <trkpt lat="46.03178" lon="5.72381">
        <ele>1146.2</ele>
        <time>2021-08-20T12:02:49Z</time>
      </trkpt>
      <trkpt lat="46.03174" lon="5.72383">
        <ele>1145.9</ele>
        <time>2021-08-20T12:02:50Z</time>
      </trkpt>
      <trkpt lat="46.03168" lon="5.72387">
        <ele>1145.4</ele>
        <time>2021-08-20T12:02:52Z</time>
      </trkpt>
      <trkpt lat="46.03163" lon="5.72391">
        <ele>1145</ele>
        <time>2021-08-20T12:02:54Z</time>
      </trkpt>
      <trkpt lat="46.03161" lon="5.72393">
        <ele>1144.8</ele>
        <time>2021-08-20T12:02:55Z</time>
      </trkpt>
      <trkpt lat="46.0316" lon="5.72394">
        <ele>1144.7</ele>
        <time>2021-08-20T12:02:56Z</time>
      </trkpt>
      <trkpt lat="46.03156" lon="5.72399">
        <ele>1144.3</ele>
        <time>2021-08-20T12:02:57Z</time>
      </trkpt>
      <trkpt lat="46.03153" lon="5.72403">
        <ele>1143.9</ele>
        <time>2021-08-20T12:02:58Z</time>
      </trkpt>
      <trkpt lat="46.0315" lon="5.72408">
        <ele>1143.5</ele>
        <time>2021-08-20T12:02:59Z</time>
      </trkpt>
      <trkpt lat="46.03147" lon="5.7241">
        <ele>1143.1</ele>
        <time>2021-08-20T12:03:00Z</time>
      </trkpt>
      <trkpt lat="46.03142" lon="5.72412">
        <ele>1142.7</ele>
        <time>2021-08-20T12:03:02Z</time>
      </trkpt>
      <trkpt lat="46.03138" lon="5.72412">
        <ele>1142.4</ele>
        <time>2021-08-20T12:03:04Z</time>
      </trkpt>
      <trkpt lat="46.03135" lon="5.72412">
        <ele>1142.2</ele>
        <time>2021-08-20T12:03:05Z</time>
      </trkpt>
      <trkpt lat="46.03131" lon="5.72413">
        <ele>1141.9</ele>
        <time>2021-08-20T12:03:06Z</time>
      </trkpt>
      <trkpt lat="46.03129" lon="5.72412">
        <ele>1141.8</ele>
        <time>2021-08-20T12:03:07Z</time>
      </trkpt>
      <trkpt lat="46.03127" lon="5.72412">
        <ele>1141.6</ele>
        <time>2021-08-20T12:03:09Z</time>
      </trkpt>
      <trkpt lat="46.03125" lon="5.72413">
        <ele>1141.5</ele>
        <time>2021-08-20T12:03:10Z</time>
      </trkpt>
      <trkpt lat="46.03123" lon="5.72413">
        <ele>1141.4</ele>
        <time>2021-08-20T12:03:11Z</time>
      </trkpt>
      <trkpt lat="46.0312" lon="5.72411">
        <ele>1141.2</ele>
        <time>2021-08-20T12:03:12Z</time>
      </trkpt>
      <trkpt lat="46.03119" lon="5.7241">
        <ele>1141.1</ele>
        <time>2021-08-20T12:03:13Z</time>
      </trkpt>
      <trkpt lat="46.03116" lon="5.7241">
        <ele>1140.9</ele>
        <time>2021-08-20T12:03:15Z</time>
      </trkpt>
      <trkpt lat="46.03115" lon="5.72412">
        <ele>1140.8</ele>
        <time>2021-08-20T12:03:16Z</time>
      </trkpt>
      <trkpt lat="46.03114" lon="5.72414">
        <ele>1140.7</ele>
        <time>2021-08-20T12:03:18Z</time>
      </trkpt>
      <trkpt lat="46.03113" lon="5.72416">
        <ele>1140.6</ele>
        <time>2021-08-20T12:03:19Z</time>
      </trkpt>
      <trkpt lat="46.03112" lon="5.72418">
        <ele>1140.5</ele>
        <time>2021-08-20T12:03:20Z</time>
      </trkpt>
      <trkpt lat="46.03111" lon="5.7242">
        <ele>1140.4</ele>
        <time>2021-08-20T12:03:22Z</time>
      </trkpt>
      <trkpt lat="46.0311" lon="5.72422">
        <ele>1140.4</ele>
        <time>2021-08-20T12:03:24Z</time>
      </trkpt>
      <trkpt lat="46.03109" lon="5.72424">
        <ele>1140.3</ele>
        <time>2021-08-20T12:03:26Z</time>
      </trkpt>
      <trkpt lat="46.03108" lon="5.72426">
        <ele>1140.2</ele>
        <time>2021-08-20T12:04:50Z</time>
      </trkpt>
      <trkpt lat="46.03107" lon="5.72427">
        <ele>1140.1</ele>
        <time>2021-08-20T12:04:51Z</time>
      </trkpt>
      <trkpt lat="46.03102" lon="5.72429">
        <ele>1139.7</ele>
        <time>2021-08-20T12:04:52Z</time>
      </trkpt>
      <trkpt lat="46.03098" lon="5.72434">
        <ele>1139.4</ele>
        <time>2021-08-20T12:04:53Z</time>
      </trkpt>
      <trkpt lat="46.03095" lon="5.72438">
        <ele>1139.1</ele>
        <time>2021-08-20T12:04:54Z</time>
      </trkpt>
      <trkpt lat="46.03091" lon="5.72443">
        <ele>1138.8</ele>
        <time>2021-08-20T12:04:56Z</time>
      </trkpt>
      <trkpt lat="46.03088" lon="5.72448">
        <ele>1138.6</ele>
        <time>2021-08-20T12:04:57Z</time>
      </trkpt>
      <trkpt lat="46.03085" lon="5.72452">
        <ele>1138.7</ele>
        <time>2021-08-20T12:04:58Z</time>
      </trkpt>
      <trkpt lat="46.03083" lon="5.72455">
        <ele>1138.8</ele>
        <time>2021-08-20T12:04:59Z</time>
      </trkpt>
      <trkpt lat="46.03079" lon="5.7246">
        <ele>1138.8</ele>
        <time>2021-08-20T12:05:00Z</time>
      </trkpt>
      <trkpt lat="46.03077" lon="5.72461">
        <ele>1138.9</ele>
        <time>2021-08-20T12:05:01Z</time>
      </trkpt>
      <trkpt lat="46.03074" lon="5.72464">
        <ele>1138.9</ele>
        <time>2021-08-20T12:05:03Z</time>
      </trkpt>
      <trkpt lat="46.03072" lon="5.72467">
        <ele>1139</ele>
        <time>2021-08-20T12:05:04Z</time>
      </trkpt>
      <trkpt lat="46.03068" lon="5.7247">
        <ele>1139.1</ele>
        <time>2021-08-20T12:05:05Z</time>
      </trkpt>
      <trkpt lat="46.03066" lon="5.72471">
        <ele>1139.1</ele>
        <time>2021-08-20T12:05:06Z</time>
      </trkpt>
      <trkpt lat="46.03065" lon="5.72475">
        <ele>1139.2</ele>
        <time>2021-08-20T12:05:08Z</time>
      </trkpt>
      <trkpt lat="46.03063" lon="5.7248">
        <ele>1139.2</ele>
        <time>2021-08-20T12:05:09Z</time>
      </trkpt>
      <trkpt lat="46.0306" lon="5.72486">
        <ele>1139.3</ele>
        <time>2021-08-20T12:05:10Z</time>
      </trkpt>
      <trkpt lat="46.03058" lon="5.7249">
        <ele>1139.4</ele>
        <time>2021-08-20T12:05:12Z</time>
      </trkpt>
      <trkpt lat="46.03055" lon="5.72496">
        <ele>1139.5</ele>
        <time>2021-08-20T12:05:13Z</time>
      </trkpt>
      <trkpt lat="46.03053" lon="5.72499">
        <ele>1139.5</ele>
        <time>2021-08-20T12:05:14Z</time>
      </trkpt>
      <trkpt lat="46.0305" lon="5.72502">
        <ele>1139.6</ele>
        <time>2021-08-20T12:05:15Z</time>
      </trkpt>
      <trkpt lat="46.03046" lon="5.72503">
        <ele>1139.6</ele>
        <time>2021-08-20T12:05:16Z</time>
      </trkpt>
      <trkpt lat="46.03041" lon="5.72503">
        <ele>1139.7</ele>
        <time>2021-08-20T12:05:18Z</time>
      </trkpt>
      <trkpt lat="46.03037" lon="5.72504">
        <ele>1139.7</ele>
        <time>2021-08-20T12:05:19Z</time>
      </trkpt>
      <trkpt lat="46.03034" lon="5.72505">
        <ele>1139.8</ele>
        <time>2021-08-20T12:05:21Z</time>
      </trkpt>
      <trkpt lat="46.03033" lon="5.72505">
        <ele>1139.8</ele>
        <time>2021-08-20T12:05:22Z</time>
      </trkpt>
      <trkpt lat="46.03029" lon="5.72506">
        <ele>1139.8</ele>
        <time>2021-08-20T12:05:23Z</time>
      </trkpt>
      <trkpt lat="46.03028" lon="5.72506">
        <ele>1139.8</ele>
        <time>2021-08-20T12:05:24Z</time>
      </trkpt>
      <trkpt lat="46.03025" lon="5.72508">
        <ele>1139.7</ele>
        <time>2021-08-20T12:05:25Z</time>
      </trkpt>
      <trkpt lat="46.03024" lon="5.72509">
        <ele>1139.7</ele>
        <time>2021-08-20T12:05:26Z</time>
      </trkpt>
      <trkpt lat="46.03021" lon="5.72509">
        <ele>1139.7</ele>
        <time>2021-08-20T12:05:28Z</time>
      </trkpt>
      <trkpt lat="46.0302" lon="5.72509">
        <ele>1139.7</ele>
        <time>2021-08-20T12:05:29Z</time>
      </trkpt>
      <trkpt lat="46.03018" lon="5.72511">
        <ele>1139.6</ele>
        <time>2021-08-20T12:05:30Z</time>
      </trkpt>
      <trkpt lat="46.03014" lon="5.72517">
        <ele>1139.4</ele>
        <time>2021-08-20T12:05:32Z</time>
      </trkpt>
      <trkpt lat="46.0301" lon="5.72522">
        <ele>1139.2</ele>
        <time>2021-08-20T12:05:33Z</time>
      </trkpt>
      <trkpt lat="46.03008" lon="5.72525">
        <ele>1139</ele>
        <time>2021-08-20T12:05:34Z</time>
      </trkpt>
      <trkpt lat="46.03003" lon="5.72532">
        <ele>1138.8</ele>
        <time>2021-08-20T12:05:36Z</time>
      </trkpt>
      <trkpt lat="46.03" lon="5.72538">
        <ele>1138.6</ele>
        <time>2021-08-20T12:05:37Z</time>
      </trkpt>
      <trkpt lat="46.02996" lon="5.72544">
        <ele>1138.5</ele>
        <time>2021-08-20T12:05:38Z</time>
      </trkpt>
      <trkpt lat="46.02992" lon="5.72554">
        <ele>1138.2</ele>
        <time>2021-08-20T12:05:40Z</time>
      </trkpt>
      <trkpt lat="46.0299" lon="5.72558">
        <ele>1138.1</ele>
        <time>2021-08-20T12:05:41Z</time>
      </trkpt>
      <trkpt lat="46.02987" lon="5.72561">
        <ele>1138</ele>
        <time>2021-08-20T12:05:42Z</time>
      </trkpt>
      <trkpt lat="46.02983" lon="5.72564">
        <ele>1137.8</ele>
        <time>2021-08-20T12:05:43Z</time>
      </trkpt>
      <trkpt lat="46.02977" lon="5.72568">
        <ele>1137.4</ele>
        <time>2021-08-20T12:05:45Z</time>
      </trkpt>
      <trkpt lat="46.02973" lon="5.72572">
        <ele>1137.2</ele>
        <time>2021-08-20T12:05:46Z</time>
      </trkpt>
      <trkpt lat="46.02968" lon="5.72574">
        <ele>1136.9</ele>
        <time>2021-08-20T12:05:47Z</time>
      </trkpt>
      <trkpt lat="46.02963" lon="5.72576">
        <ele>1136.6</ele>
        <time>2021-08-20T12:05:48Z</time>
      </trkpt>
      <trkpt lat="46.02954" lon="5.72583">
        <ele>1136</ele>
        <time>2021-08-20T12:05:50Z</time>
      </trkpt>
      <trkpt lat="46.02951" lon="5.72587">
        <ele>1135.8</ele>
        <time>2021-08-20T12:05:51Z</time>
      </trkpt>
      <trkpt lat="46.02945" lon="5.72593">
        <ele>1135.3</ele>
        <time>2021-08-20T12:05:53Z</time>
      </trkpt>
      <trkpt lat="46.02942" lon="5.72599">
        <ele>1135</ele>
        <time>2021-08-20T12:05:54Z</time>
      </trkpt>
      <trkpt lat="46.02939" lon="5.72602">
        <ele>1134.8</ele>
        <time>2021-08-20T12:05:55Z</time>
      </trkpt>
      <trkpt lat="46.02931" lon="5.7261">
        <ele>1134.3</ele>
        <time>2021-08-20T12:05:57Z</time>
      </trkpt>
      <trkpt lat="46.02927" lon="5.72613">
        <ele>1134</ele>
        <time>2021-08-20T12:05:58Z</time>
      </trkpt>
      <trkpt lat="46.02921" lon="5.72626">
        <ele>1133.4</ele>
        <time>2021-08-20T12:06:00Z</time>
      </trkpt>
      <trkpt lat="46.02919" lon="5.72633">
        <ele>1133.2</ele>
        <time>2021-08-20T12:06:01Z</time>
      </trkpt>
      <trkpt lat="46.02916" lon="5.72639">
        <ele>1132.9</ele>
        <time>2021-08-20T12:06:02Z</time>
      </trkpt>
      <trkpt lat="46.02914" lon="5.72648">
        <ele>1132.6</ele>
        <time>2021-08-20T12:06:04Z</time>
      </trkpt>
      <trkpt lat="46.02916" lon="5.72653">
        <ele>1132.4</ele>
        <time>2021-08-20T12:06:05Z</time>
      </trkpt>
      <trkpt lat="46.02913" lon="5.72661">
        <ele>1132.2</ele>
        <time>2021-08-20T12:06:06Z</time>
      </trkpt>
      <trkpt lat="46.02911" lon="5.72668">
        <ele>1132</ele>
        <time>2021-08-20T12:06:08Z</time>
      </trkpt>
      <trkpt lat="46.0291" lon="5.72677">
        <ele>1131.9</ele>
        <time>2021-08-20T12:06:09Z</time>
      </trkpt>
      <trkpt lat="46.02909" lon="5.72685">
        <ele>1131.8</ele>
        <time>2021-08-20T12:06:10Z</time>
      </trkpt>
      <trkpt lat="46.02908" lon="5.7269">
        <ele>1131.7</ele>
        <time>2021-08-20T12:06:12Z</time>
      </trkpt>
      <trkpt lat="46.02907" lon="5.72694">
        <ele>1131.6</ele>
        <time>2021-08-20T12:06:13Z</time>
      </trkpt>
      <trkpt lat="46.02904" lon="5.72698">
        <ele>1131.5</ele>
        <time>2021-08-20T12:06:14Z</time>
      </trkpt>
      <trkpt lat="46.02903" lon="5.727">
        <ele>1131.5</ele>
        <time>2021-08-20T12:06:15Z</time>
      </trkpt>
      <trkpt lat="46.02901" lon="5.72704">
        <ele>1131.5</ele>
        <time>2021-08-20T12:06:17Z</time>
      </trkpt>
      <trkpt lat="46.02901" lon="5.72705">
        <ele>1131.5</ele>
        <time>2021-08-20T12:06:18Z</time>
      </trkpt>
      <trkpt lat="46.02899" lon="5.72707">
        <ele>1131.4</ele>
        <time>2021-08-20T12:06:20Z</time>
      </trkpt>
      <trkpt lat="46.02898" lon="5.72708">
        <ele>1131.4</ele>
        <time>2021-08-20T12:06:21Z</time>
      </trkpt>
      <trkpt lat="46.02894" lon="5.72709">
        <ele>1131.4</ele>
        <time>2021-08-20T12:06:22Z</time>
      </trkpt>
      <trkpt lat="46.02893" lon="5.7271">
        <ele>1131.4</ele>
        <time>2021-08-20T12:06:23Z</time>
      </trkpt>
      <trkpt lat="46.0289" lon="5.7271">
        <ele>1131.4</ele>
        <time>2021-08-20T12:06:24Z</time>
      </trkpt>
      <trkpt lat="46.02887" lon="5.72711">
        <ele>1131.4</ele>
        <time>2021-08-20T12:06:25Z</time>
      </trkpt>
      <trkpt lat="46.02882" lon="5.72714">
        <ele>1131.3</ele>
        <time>2021-08-20T12:06:27Z</time>
      </trkpt>
      <trkpt lat="46.02882" lon="5.72715">
        <ele>1131.3</ele>
        <time>2021-08-20T12:06:28Z</time>
      </trkpt>
      <trkpt lat="46.02882" lon="5.72714">
        <ele>1131.3</ele>
        <time>2021-08-20T12:06:29Z</time>
      </trkpt>
      <trkpt lat="46.02882" lon="5.72714">
        <ele>1131.3</ele>
        <time>2021-08-20T12:06:31Z</time>
      </trkpt>
      <trkpt lat="46.02882" lon="5.72713">
        <ele>1131.3</ele>
        <time>2021-08-20T12:06:33Z</time>
      </trkpt>
      <trkpt lat="46.02882" lon="5.72713">
        <ele>1131.3</ele>
        <time>2021-08-20T12:06:34Z</time>
      </trkpt>
      <trkpt lat="46.02882" lon="5.72714">
        <ele>1131.3</ele>
        <time>2021-08-20T12:06:36Z</time>
      </trkpt>
      <trkpt lat="46.02882" lon="5.72714">
        <ele>1131.3</ele>
        <time>2021-08-20T12:06:37Z</time>
      </trkpt>
      <trkpt lat="46.0287" lon="5.72699">
        <ele>1130.8</ele>
        <time>2021-08-20T12:08:28Z</time>
      </trkpt>
      <trkpt lat="46.02867" lon="5.727">
        <ele>1130.7</ele>
        <time>2021-08-20T12:08:29Z</time>
      </trkpt>
      <trkpt lat="46.02863" lon="5.72701">
        <ele>1130.6</ele>
        <time>2021-08-20T12:08:31Z</time>
      </trkpt>
      <trkpt lat="46.02859" lon="5.72703">
        <ele>1130.6</ele>
        <time>2021-08-20T12:08:33Z</time>
      </trkpt>
      <trkpt lat="46.02859" lon="5.72707">
        <ele>1130.6</ele>
        <time>2021-08-20T12:08:34Z</time>
      </trkpt>
      <trkpt lat="46.02857" lon="5.72709">
        <ele>1130.6</ele>
        <time>2021-08-20T12:08:35Z</time>
      </trkpt>
      <trkpt lat="46.02854" lon="5.72713">
        <ele>1130.6</ele>
        <time>2021-08-20T12:08:37Z</time>
      </trkpt>
      <trkpt lat="46.0285" lon="5.72715">
        <ele>1130.6</ele>
        <time>2021-08-20T12:08:38Z</time>
      </trkpt>
      <trkpt lat="46.02849" lon="5.72716">
        <ele>1130.5</ele>
        <time>2021-08-20T12:08:39Z</time>
      </trkpt>
      <trkpt lat="46.02845" lon="5.72719">
        <ele>1130.5</ele>
        <time>2021-08-20T12:08:41Z</time>
      </trkpt>
      <trkpt lat="46.02843" lon="5.72721">
        <ele>1130.4</ele>
        <time>2021-08-20T12:08:42Z</time>
      </trkpt>
      <trkpt lat="46.0284" lon="5.72723">
        <ele>1130.4</ele>
        <time>2021-08-20T12:08:43Z</time>
      </trkpt>
      <trkpt lat="46.02838" lon="5.72726">
        <ele>1130.4</ele>
        <time>2021-08-20T12:08:44Z</time>
      </trkpt>
      <trkpt lat="46.02837" lon="5.72726">
        <ele>1130.4</ele>
        <time>2021-08-20T12:08:45Z</time>
      </trkpt>
      <trkpt lat="46.02835" lon="5.72729">
        <ele>1130.3</ele>
        <time>2021-08-20T12:08:46Z</time>
      </trkpt>
      <trkpt lat="46.02832" lon="5.72732">
        <ele>1130.3</ele>
        <time>2021-08-20T12:08:48Z</time>
      </trkpt>
      <trkpt lat="46.02831" lon="5.72733">
        <ele>1130.2</ele>
        <time>2021-08-20T12:08:49Z</time>
      </trkpt>
      <trkpt lat="46.02828" lon="5.72732">
        <ele>1130.2</ele>
        <time>2021-08-20T12:08:50Z</time>
      </trkpt>
      <trkpt lat="46.02826" lon="5.72732">
        <ele>1130.2</ele>
        <time>2021-08-20T12:08:52Z</time>
      </trkpt>
      <trkpt lat="46.02825" lon="5.72734">
        <ele>1130.1</ele>
        <time>2021-08-20T12:08:53Z</time>
      </trkpt>
      <trkpt lat="46.02823" lon="5.72735">
        <ele>1130.1</ele>
        <time>2021-08-20T12:08:54Z</time>
      </trkpt>
      <trkpt lat="46.02821" lon="5.72735">
        <ele>1130.1</ele>
        <time>2021-08-20T12:08:56Z</time>
      </trkpt>
      <trkpt lat="46.02817" lon="5.72736">
        <ele>1130</ele>
        <time>2021-08-20T12:08:57Z</time>
      </trkpt>
      <trkpt lat="46.02815" lon="5.72737">
        <ele>1130</ele>
        <time>2021-08-20T12:08:58Z</time>
      </trkpt>
      <trkpt lat="46.0281" lon="5.72737">
        <ele>1129.9</ele>
        <time>2021-08-20T12:09:00Z</time>
      </trkpt>
      <trkpt lat="46.02808" lon="5.72738">
        <ele>1129.9</ele>
        <time>2021-08-20T12:09:01Z</time>
      </trkpt>
      <trkpt lat="46.02806" lon="5.72738">
        <ele>1129.9</ele>
        <time>2021-08-20T12:09:02Z</time>
      </trkpt>
      <trkpt lat="46.02802" lon="5.72739">
        <ele>1129.9</ele>
        <time>2021-08-20T12:09:03Z</time>
      </trkpt>
      <trkpt lat="46.028" lon="5.7274">
        <ele>1129.9</ele>
        <time>2021-08-20T12:09:04Z</time>
      </trkpt>
      <trkpt lat="46.02798" lon="5.72741">
        <ele>1129.9</ele>
        <time>2021-08-20T12:09:05Z</time>
      </trkpt>
      <trkpt lat="46.02796" lon="5.72741">
        <ele>1130</ele>
        <time>2021-08-20T12:09:07Z</time>
      </trkpt>
      <trkpt lat="46.02793" lon="5.72741">
        <ele>1130</ele>
        <time>2021-08-20T12:09:08Z</time>
      </trkpt>
      <trkpt lat="46.02789" lon="5.72742">
        <ele>1130</ele>
        <time>2021-08-20T12:09:10Z</time>
      </trkpt>
      <trkpt lat="46.02784" lon="5.72744">
        <ele>1130.1</ele>
        <time>2021-08-20T12:09:12Z</time>
      </trkpt>
      <trkpt lat="46.0278" lon="5.72745">
        <ele>1130.1</ele>
        <time>2021-08-20T12:09:14Z</time>
      </trkpt>
      <trkpt lat="46.02778" lon="5.72747">
        <ele>1130.1</ele>
        <time>2021-08-20T12:09:15Z</time>
      </trkpt>
      <trkpt lat="46.02776" lon="5.72752">
        <ele>1130.2</ele>
        <time>2021-08-20T12:09:17Z</time>
      </trkpt>
      <trkpt lat="46.02774" lon="5.72755">
        <ele>1130.2</ele>
        <time>2021-08-20T12:09:18Z</time>
      </trkpt>
      <trkpt lat="46.02771" lon="5.7276">
        <ele>1130.2</ele>
        <time>2021-08-20T12:09:20Z</time>
      </trkpt>
      <trkpt lat="46.0277" lon="5.72761">
        <ele>1130.2</ele>
        <time>2021-08-20T12:09:21Z</time>
      </trkpt>
      <trkpt lat="46.02769" lon="5.72762">
        <ele>1130.2</ele>
        <time>2021-08-20T12:09:22Z</time>
      </trkpt>
      <trkpt lat="46.02767" lon="5.72766">
        <ele>1130.3</ele>
        <time>2021-08-20T12:09:23Z</time>
      </trkpt>
      <trkpt lat="46.02766" lon="5.72766">
        <ele>1130.3</ele>
        <time>2021-08-20T12:09:24Z</time>
      </trkpt>
      <trkpt lat="46.02765" lon="5.72768">
        <ele>1130.3</ele>
        <time>2021-08-20T12:09:25Z</time>
      </trkpt>
      <trkpt lat="46.02762" lon="5.72769">
        <ele>1130.3</ele>
        <time>2021-08-20T12:09:27Z</time>
      </trkpt>
      <trkpt lat="46.02759" lon="5.72769">
        <ele>1130.3</ele>
        <time>2021-08-20T12:09:28Z</time>
      </trkpt>
      <trkpt lat="46.02758" lon="5.72769">
        <ele>1130.3</ele>
        <time>2021-08-20T12:09:29Z</time>
      </trkpt>
      <trkpt lat="46.02755" lon="5.72768">
        <ele>1130.4</ele>
        <time>2021-08-20T12:09:30Z</time>
      </trkpt>
      <trkpt lat="46.02753" lon="5.72768">
        <ele>1130.4</ele>
        <time>2021-08-20T12:09:31Z</time>
      </trkpt>
      <trkpt lat="46.02751" lon="5.72769">
        <ele>1130.4</ele>
        <time>2021-08-20T12:09:33Z</time>
      </trkpt>
      <trkpt lat="46.02748" lon="5.7277">
        <ele>1130.5</ele>
        <time>2021-08-20T12:09:34Z</time>
      </trkpt>
      <trkpt lat="46.02745" lon="5.72768">
        <ele>1130.5</ele>
        <time>2021-08-20T12:09:35Z</time>
      </trkpt>
      <trkpt lat="46.02744" lon="5.72768">
        <ele>1130.6</ele>
        <time>2021-08-20T12:09:36Z</time>
      </trkpt>
      <trkpt lat="46.02742" lon="5.72767">
        <ele>1130.6</ele>
        <time>2021-08-20T12:09:37Z</time>
      </trkpt>
      <trkpt lat="46.02739" lon="5.72768">
        <ele>1130.6</ele>
        <time>2021-08-20T12:09:39Z</time>
      </trkpt>
      <trkpt lat="46.02737" lon="5.72768">
        <ele>1130.7</ele>
        <time>2021-08-20T12:09:40Z</time>
      </trkpt>
      <trkpt lat="46.02736" lon="5.72768">
        <ele>1130.7</ele>
        <time>2021-08-20T12:09:41Z</time>
      </trkpt>
      <trkpt lat="46.02733" lon="5.72767">
        <ele>1130.8</ele>
        <time>2021-08-20T12:09:43Z</time>
      </trkpt>
      <trkpt lat="46.02731" lon="5.72768">
        <ele>1130.8</ele>
        <time>2021-08-20T12:09:44Z</time>
      </trkpt>
      <trkpt lat="46.02729" lon="5.7277">
        <ele>1130.8</ele>
        <time>2021-08-20T12:09:46Z</time>
      </trkpt>
      <trkpt lat="46.02728" lon="5.7277">
        <ele>1130.9</ele>
        <time>2021-08-20T12:09:47Z</time>
      </trkpt>
      <trkpt lat="46.02724" lon="5.72771">
        <ele>1131</ele>
        <time>2021-08-20T12:09:49Z</time>
      </trkpt>
      <trkpt lat="46.02721" lon="5.72772">
        <ele>1131</ele>
        <time>2021-08-20T12:09:51Z</time>
      </trkpt>
      <trkpt lat="46.02721" lon="5.72772">
        <ele>1131.1</ele>
        <time>2021-08-20T12:09:52Z</time>
      </trkpt>
      <trkpt lat="46.02719" lon="5.72771">
        <ele>1131.1</ele>
        <time>2021-08-20T12:09:53Z</time>
      </trkpt>
      <trkpt lat="46.02717" lon="5.72771">
        <ele>1131.1</ele>
        <time>2021-08-20T12:09:54Z</time>
      </trkpt>
      <trkpt lat="46.02714" lon="5.72773">
        <ele>1131.3</ele>
        <time>2021-08-20T12:09:56Z</time>
      </trkpt>
      <trkpt lat="46.02712" lon="5.72773">
        <ele>1131.3</ele>
        <time>2021-08-20T12:09:57Z</time>
      </trkpt>
      <trkpt lat="46.02708" lon="5.72775">
        <ele>1131.4</ele>
        <time>2021-08-20T12:09:59Z</time>
      </trkpt>
      <trkpt lat="46.02708" lon="5.72775">
        <ele>1131.4</ele>
        <time>2021-08-20T12:10:00Z</time>
      </trkpt>
      <trkpt lat="46.02706" lon="5.72773">
        <ele>1131.5</ele>
        <time>2021-08-20T12:10:01Z</time>
      </trkpt>
      <trkpt lat="46.02706" lon="5.72773">
        <ele>1131.5</ele>
        <time>2021-08-20T12:10:03Z</time>
      </trkpt>
      <trkpt lat="46.02706" lon="5.72772">
        <ele>1131.5</ele>
        <time>2021-08-20T12:10:04Z</time>
      </trkpt>
      <trkpt lat="46.02706" lon="5.72772">
        <ele>1131.5</ele>
        <time>2021-08-20T12:10:05Z</time>
      </trkpt>
      <trkpt lat="46.02706" lon="5.72772">
        <ele>1131.5</ele>
        <time>2021-08-20T12:10:07Z</time>
      </trkpt>
      <trkpt lat="46.02706" lon="5.72772">
        <ele>1131.5</ele>
        <time>2021-08-20T12:10:09Z</time>
      </trkpt>
      <trkpt lat="46.02706" lon="5.72772">
        <ele>1131.5</ele>
        <time>2021-08-20T12:10:10Z</time>
      </trkpt>
      <trkpt lat="46.02697" lon="5.72783">
        <ele>1131.9</ele>
        <time>2021-08-20T12:10:33Z</time>
      </trkpt>
      <trkpt lat="46.02696" lon="5.72784">
        <ele>1131.9</ele>
        <time>2021-08-20T12:10:34Z</time>
      </trkpt>
      <trkpt lat="46.02695" lon="5.72786">
        <ele>1132</ele>
        <time>2021-08-20T12:10:36Z</time>
      </trkpt>
      <trkpt lat="46.02693" lon="5.72788">
        <ele>1132</ele>
        <time>2021-08-20T12:10:37Z</time>
      </trkpt>
      <trkpt lat="46.0269" lon="5.72792">
        <ele>1132.2</ele>
        <time>2021-08-20T12:10:39Z</time>
      </trkpt>
      <trkpt lat="46.02687" lon="5.72795">
        <ele>1132.3</ele>
        <time>2021-08-20T12:10:40Z</time>
      </trkpt>
      <trkpt lat="46.02687" lon="5.72796">
        <ele>1132.3</ele>
        <time>2021-08-20T12:10:41Z</time>
      </trkpt>
      <trkpt lat="46.02683" lon="5.72797">
        <ele>1132.5</ele>
        <time>2021-08-20T12:10:43Z</time>
      </trkpt>
      <trkpt lat="46.02682" lon="5.72797">
        <ele>1132.5</ele>
        <time>2021-08-20T12:10:44Z</time>
      </trkpt>
      <trkpt lat="46.0268" lon="5.72798">
        <ele>1132.6</ele>
        <time>2021-08-20T12:10:45Z</time>
      </trkpt>
      <trkpt lat="46.02679" lon="5.72799">
        <ele>1132.6</ele>
        <time>2021-08-20T12:10:46Z</time>
      </trkpt>
      <trkpt lat="46.02678" lon="5.728">
        <ele>1132.7</ele>
        <time>2021-08-20T12:10:47Z</time>
      </trkpt>
      <trkpt lat="46.02677" lon="5.72801">
        <ele>1132.7</ele>
        <time>2021-08-20T12:10:49Z</time>
      </trkpt>
      <trkpt lat="46.02676" lon="5.72802">
        <ele>1132.8</ele>
        <time>2021-08-20T12:10:51Z</time>
      </trkpt>
      <trkpt lat="46.02676" lon="5.72803">
        <ele>1132.8</ele>
        <time>2021-08-20T12:10:52Z</time>
      </trkpt>
      <trkpt lat="46.02675" lon="5.72806">
        <ele>1132.9</ele>
        <time>2021-08-20T12:10:54Z</time>
      </trkpt>
      <trkpt lat="46.02676" lon="5.72807">
        <ele>1133</ele>
        <time>2021-08-20T12:10:55Z</time>
      </trkpt>
      <trkpt lat="46.02676" lon="5.72809">
        <ele>1133</ele>
        <time>2021-08-20T12:10:57Z</time>
      </trkpt>
      <trkpt lat="46.02675" lon="5.72812">
        <ele>1133.1</ele>
        <time>2021-08-20T12:10:58Z</time>
      </trkpt>
      <trkpt lat="46.02673" lon="5.72817">
        <ele>1133.3</ele>
        <time>2021-08-20T12:11:00Z</time>
      </trkpt>
      <trkpt lat="46.02672" lon="5.72819">
        <ele>1133.4</ele>
        <time>2021-08-20T12:11:01Z</time>
      </trkpt>
      <trkpt lat="46.02671" lon="5.72823">
        <ele>1133.6</ele>
        <time>2021-08-20T12:11:03Z</time>
      </trkpt>
      <trkpt lat="46.02671" lon="5.72829">
        <ele>1133.9</ele>
        <time>2021-08-20T12:11:04Z</time>
      </trkpt>
      <trkpt lat="46.02671" lon="5.72831">
        <ele>1134</ele>
        <time>2021-08-20T12:11:05Z</time>
      </trkpt>
      <trkpt lat="46.02671" lon="5.72837">
        <ele>1134.3</ele>
        <time>2021-08-20T12:11:07Z</time>
      </trkpt>
      <trkpt lat="46.02672" lon="5.72841">
        <ele>1134.5</ele>
        <time>2021-08-20T12:11:09Z</time>
      </trkpt>
      <trkpt lat="46.02673" lon="5.72844">
        <ele>1134.7</ele>
        <time>2021-08-20T12:11:10Z</time>
      </trkpt>
      <trkpt lat="46.02673" lon="5.72847">
        <ele>1134.8</ele>
        <time>2021-08-20T12:11:12Z</time>
      </trkpt>
      <trkpt lat="46.02672" lon="5.72851">
        <ele>1135</ele>
        <time>2021-08-20T12:11:13Z</time>
      </trkpt>
      <trkpt lat="46.02671" lon="5.72852">
        <ele>1135.1</ele>
        <time>2021-08-20T12:11:15Z</time>
      </trkpt>
      <trkpt lat="46.0267" lon="5.72853">
        <ele>1135.2</ele>
        <time>2021-08-20T12:11:16Z</time>
      </trkpt>
      <trkpt lat="46.02669" lon="5.72853">
        <ele>1135.3</ele>
        <time>2021-08-20T12:11:17Z</time>
      </trkpt>
      <trkpt lat="46.02667" lon="5.72852">
        <ele>1135.4</ele>
        <time>2021-08-20T12:11:19Z</time>
      </trkpt>
      <trkpt lat="46.02667" lon="5.72851">
        <ele>1135.5</ele>
        <time>2021-08-20T12:11:21Z</time>
      </trkpt>
      <trkpt lat="46.02666" lon="5.72851">
        <ele>1135.5</ele>
        <time>2021-08-20T12:11:22Z</time>
      </trkpt>
      <trkpt lat="46.02665" lon="5.7285">
        <ele>1135.6</ele>
        <time>2021-08-20T12:11:24Z</time>
      </trkpt>
      <trkpt lat="46.02665" lon="5.7285">
        <ele>1135.6</ele>
        <time>2021-08-20T12:11:25Z</time>
      </trkpt>
      <trkpt lat="46.02665" lon="5.72849">
        <ele>1135.7</ele>
        <time>2021-08-20T12:11:26Z</time>
      </trkpt>
      <trkpt lat="46.02664" lon="5.72849">
        <ele>1135.7</ele>
        <time>2021-08-20T12:11:28Z</time>
      </trkpt>
      <trkpt lat="46.02664" lon="5.72849">
        <ele>1135.7</ele>
        <time>2021-08-20T12:11:29Z</time>
      </trkpt>
      <trkpt lat="46.02664" lon="5.72848">
        <ele>1135.8</ele>
        <time>2021-08-20T12:11:32Z</time>
      </trkpt>
      <trkpt lat="46.0259" lon="5.72902">
        <ele>1141.8</ele>
        <time>2021-08-20T12:13:39Z</time>
      </trkpt>
      <trkpt lat="46.02586" lon="5.72905">
        <ele>1142.1</ele>
        <time>2021-08-20T12:13:40Z</time>
      </trkpt>
      <trkpt lat="46.02584" lon="5.72907">
        <ele>1142.4</ele>
        <time>2021-08-20T12:13:42Z</time>
      </trkpt>
      <trkpt lat="46.02583" lon="5.72908">
        <ele>1142.4</ele>
        <time>2021-08-20T12:13:43Z</time>
      </trkpt>
      <trkpt lat="46.02582" lon="5.72908">
        <ele>1142.5</ele>
        <time>2021-08-20T12:13:45Z</time>
      </trkpt>
      <trkpt lat="46.02581" lon="5.72908">
        <ele>1142.6</ele>
        <time>2021-08-20T12:13:46Z</time>
      </trkpt>
      <trkpt lat="46.0258" lon="5.72908">
        <ele>1142.7</ele>
        <time>2021-08-20T12:13:48Z</time>
      </trkpt>
      <trkpt lat="46.02579" lon="5.72909">
        <ele>1142.8</ele>
        <time>2021-08-20T12:13:49Z</time>
      </trkpt>
      <trkpt lat="46.02577" lon="5.72911">
        <ele>1142.9</ele>
        <time>2021-08-20T12:13:50Z</time>
      </trkpt>
      <trkpt lat="46.02576" lon="5.72911">
        <ele>1143</ele>
        <time>2021-08-20T12:13:51Z</time>
      </trkpt>
      <trkpt lat="46.02575" lon="5.72911">
        <ele>1143</ele>
        <time>2021-08-20T12:13:53Z</time>
      </trkpt>
      <trkpt lat="46.02575" lon="5.72911">
        <ele>1143.1</ele>
        <time>2021-08-20T12:13:54Z</time>
      </trkpt>
      <trkpt lat="46.02575" lon="5.72911">
        <ele>1143.1</ele>
        <time>2021-08-20T12:13:55Z</time>
      </trkpt>
      <trkpt lat="46.02575" lon="5.72911">
        <ele>1143.1</ele>
        <time>2021-08-20T12:13:57Z</time>
      </trkpt>
      <trkpt lat="46.02575" lon="5.72911">
        <ele>1143.1</ele>
        <time>2021-08-20T12:13:58Z</time>
      </trkpt>
      <trkpt lat="46.02574" lon="5.72911">
        <ele>1143.1</ele>
        <time>2021-08-20T12:13:59Z</time>
      </trkpt>
      <trkpt lat="46.02574" lon="5.72911">
        <ele>1143.1</ele>
        <time>2021-08-20T12:14:01Z</time>
      </trkpt>
      <trkpt lat="46.02574" lon="5.72911">
        <ele>1143.1</ele>
        <time>2021-08-20T12:14:02Z</time>
      </trkpt>
      <trkpt lat="46.02574" lon="5.72911">
        <ele>1143.2</ele>
        <time>2021-08-20T12:14:04Z</time>
      </trkpt>
      <trkpt lat="46.02574" lon="5.72912">
        <ele>1143.2</ele>
        <time>2021-08-20T12:14:05Z</time>
      </trkpt>
      <trkpt lat="46.02573" lon="5.72912">
        <ele>1143.2</ele>
        <time>2021-08-20T12:14:06Z</time>
      </trkpt>
      <trkpt lat="46.02573" lon="5.72913">
        <ele>1143.3</ele>
        <time>2021-08-20T12:14:07Z</time>
      </trkpt>
      <trkpt lat="46.02572" lon="5.72913">
        <ele>1143.4</ele>
        <time>2021-08-20T12:14:09Z</time>
      </trkpt>
      <trkpt lat="46.02571" lon="5.72915">
        <ele>1143.5</ele>
        <time>2021-08-20T12:14:10Z</time>
      </trkpt>
      <trkpt lat="46.02571" lon="5.72916">
        <ele>1143.5</ele>
        <time>2021-08-20T12:14:12Z</time>
      </trkpt>
      <trkpt lat="46.02571" lon="5.72917">
        <ele>1143.6</ele>
        <time>2021-08-20T12:14:13Z</time>
      </trkpt>
      <trkpt lat="46.0257" lon="5.72919">
        <ele>1143.7</ele>
        <time>2021-08-20T12:14:15Z</time>
      </trkpt>
      <trkpt lat="46.0257" lon="5.72921">
        <ele>1143.8</ele>
        <time>2021-08-20T12:14:17Z</time>
      </trkpt>
      <trkpt lat="46.0257" lon="5.72922">
        <ele>1143.9</ele>
        <time>2021-08-20T12:14:18Z</time>
      </trkpt>
      <trkpt lat="46.0257" lon="5.72923">
        <ele>1143.9</ele>
        <time>2021-08-20T12:14:19Z</time>
      </trkpt>
      <trkpt lat="46.0257" lon="5.72924">
        <ele>1144</ele>
        <time>2021-08-20T12:14:21Z</time>
      </trkpt>
      <trkpt lat="46.0257" lon="5.72925">
        <ele>1144</ele>
        <time>2021-08-20T12:14:23Z</time>
      </trkpt>
      <trkpt lat="46.0257" lon="5.72926">
        <ele>1144.1</ele>
        <time>2021-08-20T12:14:24Z</time>
      </trkpt>
      <trkpt lat="46.0257" lon="5.72926">
        <ele>1144.1</ele>
        <time>2021-08-20T12:14:26Z</time>
      </trkpt>
      <trkpt lat="46.0257" lon="5.72926">
        <ele>1144.1</ele>
        <time>2021-08-20T12:14:27Z</time>
      </trkpt>
      <trkpt lat="46.0257" lon="5.72927">
        <ele>1144.1</ele>
        <time>2021-08-20T12:14:29Z</time>
      </trkpt>
      <trkpt lat="46.02576" lon="5.7293">
        <ele>1144.6</ele>
        <time>2021-08-20T12:14:31Z</time>
      </trkpt>
      <trkpt lat="46.0258" lon="5.72927">
        <ele>1144.9</ele>
        <time>2021-08-20T12:14:33Z</time>
      </trkpt>
      <trkpt lat="46.02582" lon="5.72928">
        <ele>1145</ele>
        <time>2021-08-20T12:14:34Z</time>
      </trkpt>
      <trkpt lat="46.02584" lon="5.72929">
        <ele>1145.2</ele>
        <time>2021-08-20T12:14:36Z</time>
      </trkpt>
      <trkpt lat="46.02585" lon="5.72931">
        <ele>1145.3</ele>
        <time>2021-08-20T12:14:38Z</time>
      </trkpt>
      <trkpt lat="46.02586" lon="5.72932">
        <ele>1145.3</ele>
        <time>2021-08-20T12:14:39Z</time>
      </trkpt>
      <trkpt lat="46.02582" lon="5.72929">
        <ele>1145.5</ele>
        <time>2021-08-20T12:14:40Z</time>
      </trkpt>
      <trkpt lat="46.0258" lon="5.72927">
        <ele>1145.6</ele>
        <time>2021-08-20T12:14:42Z</time>
      </trkpt>
      <trkpt lat="46.02584" lon="5.72928">
        <ele>1145.7</ele>
        <time>2021-08-20T12:14:44Z</time>
      </trkpt>
      <trkpt lat="46.02586" lon="5.72926">
        <ele>1145.8</ele>
        <time>2021-08-20T12:14:45Z</time>
      </trkpt>
      <trkpt lat="46.02592" lon="5.72924">
        <ele>1146</ele>
        <time>2021-08-20T12:14:47Z</time>
      </trkpt>
      <trkpt lat="46.02585" lon="5.72923">
        <ele>1146</ele>
        <time>2021-08-20T12:14:49Z</time>
      </trkpt>
      <trkpt lat="46.02583" lon="5.72922">
        <ele>1146</ele>
        <time>2021-08-20T12:14:50Z</time>
      </trkpt>
      <trkpt lat="46.02582" lon="5.72922">
        <ele>1146</ele>
        <time>2021-08-20T12:14:52Z</time>
      </trkpt>
      <trkpt lat="46.02582" lon="5.72922">
        <ele>1146</ele>
        <time>2021-08-20T12:14:53Z</time>
      </trkpt>
      <trkpt lat="46.02582" lon="5.72927">
        <ele>1146</ele>
        <time>2021-08-20T12:14:55Z</time>
      </trkpt>
      <trkpt lat="46.02583" lon="5.72929">
        <ele>1145.9</ele>
        <time>2021-08-20T12:14:56Z</time>
      </trkpt>
      <trkpt lat="46.02584" lon="5.72934">
        <ele>1145.8</ele>
        <time>2021-08-20T12:14:57Z</time>
      </trkpt>
      <trkpt lat="46.02585" lon="5.72935">
        <ele>1145.7</ele>
        <time>2021-08-20T12:14:59Z</time>
      </trkpt>
      <trkpt lat="46.02586" lon="5.72936">
        <ele>1145.7</ele>
        <time>2021-08-20T12:15:00Z</time>
      </trkpt>
      <trkpt lat="46.02587" lon="5.72936">
        <ele>1145.6</ele>
        <time>2021-08-20T12:15:01Z</time>
      </trkpt>
      <trkpt lat="46.02588" lon="5.72936">
        <ele>1145.5</ele>
        <time>2021-08-20T12:15:03Z</time>
      </trkpt>
      <trkpt lat="46.02588" lon="5.72936">
        <ele>1145.5</ele>
        <time>2021-08-20T12:15:04Z</time>
      </trkpt>
      <trkpt lat="46.02589" lon="5.72936">
        <ele>1145.4</ele>
        <time>2021-08-20T12:15:05Z</time>
      </trkpt>
      <trkpt lat="46.0259" lon="5.72936">
        <ele>1145.4</ele>
        <time>2021-08-20T12:15:07Z</time>
      </trkpt>
      <trkpt lat="46.0259" lon="5.72936">
        <ele>1145.3</ele>
        <time>2021-08-20T12:15:08Z</time>
      </trkpt>
      <trkpt lat="46.0259" lon="5.72937">
        <ele>1145.3</ele>
        <time>2021-08-20T12:15:10Z</time>
      </trkpt>
      <trkpt lat="46.0259" lon="5.72937">
        <ele>1145.3</ele>
        <time>2021-08-20T12:15:11Z</time>
      </trkpt>
      <trkpt lat="46.0259" lon="5.72937">
        <ele>1145.3</ele>
        <time>2021-08-20T12:15:13Z</time>
      </trkpt>
      <trkpt lat="46.02589" lon="5.72937">
        <ele>1145.1</ele>
        <time>2021-08-20T12:15:14Z</time>
      </trkpt>
      <trkpt lat="46.02587" lon="5.72938">
        <ele>1145</ele>
        <time>2021-08-20T12:15:16Z</time>
      </trkpt>
      <trkpt lat="46.02586" lon="5.72938">
        <ele>1144.9</ele>
        <time>2021-08-20T12:15:17Z</time>
      </trkpt>
      <trkpt lat="46.02585" lon="5.7294">
        <ele>1144.7</ele>
        <time>2021-08-20T12:15:18Z</time>
      </trkpt>
      <trkpt lat="46.02584" lon="5.72942">
        <ele>1144.6</ele>
        <time>2021-08-20T12:15:20Z</time>
      </trkpt>
      <trkpt lat="46.02583" lon="5.72944">
        <ele>1144.3</ele>
        <time>2021-08-20T12:15:21Z</time>
      </trkpt>
      <trkpt lat="46.02582" lon="5.72946">
        <ele>1144.2</ele>
        <time>2021-08-20T12:15:22Z</time>
      </trkpt>
      <trkpt lat="46.02581" lon="5.72948">
        <ele>1144</ele>
        <time>2021-08-20T12:15:23Z</time>
      </trkpt>
      <trkpt lat="46.02579" lon="5.72951">
        <ele>1143.7</ele>
        <time>2021-08-20T12:15:25Z</time>
      </trkpt>
      <trkpt lat="46.02579" lon="5.72954">
        <ele>1143.5</ele>
        <time>2021-08-20T12:15:26Z</time>
      </trkpt>
      <trkpt lat="46.02578" lon="5.72956">
        <ele>1143.3</ele>
        <time>2021-08-20T12:15:28Z</time>
      </trkpt>
      <trkpt lat="46.02577" lon="5.72969">
        <ele>1142.5</ele>
        <time>2021-08-20T12:15:29Z</time>
      </trkpt>
      <trkpt lat="46.02576" lon="5.7298">
        <ele>1141.9</ele>
        <time>2021-08-20T12:15:30Z</time>
      </trkpt>
      <trkpt lat="46.02574" lon="5.72991">
        <ele>1141.3</ele>
        <time>2021-08-20T12:15:32Z</time>
      </trkpt>
      <trkpt lat="46.02572" lon="5.72997">
        <ele>1141</ele>
        <time>2021-08-20T12:15:33Z</time>
      </trkpt>
      <trkpt lat="46.02568" lon="5.73006">
        <ele>1140.6</ele>
        <time>2021-08-20T12:15:34Z</time>
      </trkpt>
      <trkpt lat="46.02566" lon="5.73012">
        <ele>1140.4</ele>
        <time>2021-08-20T12:15:35Z</time>
      </trkpt>
      <trkpt lat="46.02564" lon="5.7302">
        <ele>1140.2</ele>
        <time>2021-08-20T12:15:37Z</time>
      </trkpt>
      <trkpt lat="46.02562" lon="5.73024">
        <ele>1140.1</ele>
        <time>2021-08-20T12:15:38Z</time>
      </trkpt>
      <trkpt lat="46.0256" lon="5.73028">
        <ele>1140</ele>
        <time>2021-08-20T12:15:39Z</time>
      </trkpt>
      <trkpt lat="46.02558" lon="5.73033">
        <ele>1139.9</ele>
        <time>2021-08-20T12:15:41Z</time>
      </trkpt>
      <trkpt lat="46.02555" lon="5.73035">
        <ele>1139.8</ele>
        <time>2021-08-20T12:15:43Z</time>
      </trkpt>
      <trkpt lat="46.02555" lon="5.73036">
        <ele>1139.8</ele>
        <time>2021-08-20T12:15:44Z</time>
      </trkpt>
      <trkpt lat="46.02553" lon="5.73041">
        <ele>1139.7</ele>
        <time>2021-08-20T12:15:45Z</time>
      </trkpt>
      <trkpt lat="46.02552" lon="5.73044">
        <ele>1139.7</ele>
        <time>2021-08-20T12:15:47Z</time>
      </trkpt>
      <trkpt lat="46.02551" lon="5.73047">
        <ele>1139.6</ele>
        <time>2021-08-20T12:15:49Z</time>
      </trkpt>
      <trkpt lat="46.02548" lon="5.7305">
        <ele>1139.6</ele>
        <time>2021-08-20T12:15:50Z</time>
      </trkpt>
      <trkpt lat="46.02546" lon="5.73053">
        <ele>1139.5</ele>
        <time>2021-08-20T12:15:52Z</time>
      </trkpt>
      <trkpt lat="46.02542" lon="5.73063">
        <ele>1139.4</ele>
        <time>2021-08-20T12:15:54Z</time>
      </trkpt>
      <trkpt lat="46.0254" lon="5.73068">
        <ele>1139.4</ele>
        <time>2021-08-20T12:15:55Z</time>
      </trkpt>
      <trkpt lat="46.02539" lon="5.73075">
        <ele>1139.3</ele>
        <time>2021-08-20T12:15:56Z</time>
      </trkpt>
      <trkpt lat="46.02538" lon="5.7308">
        <ele>1139.3</ele>
        <time>2021-08-20T12:15:58Z</time>
      </trkpt>
      <trkpt lat="46.02537" lon="5.73084">
        <ele>1139.3</ele>
        <time>2021-08-20T12:15:59Z</time>
      </trkpt>
      <trkpt lat="46.02536" lon="5.73088">
        <ele>1139.3</ele>
        <time>2021-08-20T12:16:00Z</time>
      </trkpt>
      <trkpt lat="46.02535" lon="5.73091">
        <ele>1139.3</ele>
        <time>2021-08-20T12:16:01Z</time>
      </trkpt>
      <trkpt lat="46.02533" lon="5.73094">
        <ele>1139.3</ele>
        <time>2021-08-20T12:16:03Z</time>
      </trkpt>
      <trkpt lat="46.02531" lon="5.73099">
        <ele>1139.1</ele>
        <time>2021-08-20T12:16:05Z</time>
      </trkpt>
      <trkpt lat="46.02528" lon="5.73101">
        <ele>1139</ele>
        <time>2021-08-20T12:16:06Z</time>
      </trkpt>
      <trkpt lat="46.02525" lon="5.73105">
        <ele>1139</ele>
        <time>2021-08-20T12:16:07Z</time>
      </trkpt>
      <trkpt lat="46.02521" lon="5.73108">
        <ele>1138.9</ele>
        <time>2021-08-20T12:16:08Z</time>
      </trkpt>
      <trkpt lat="46.02517" lon="5.73112">
        <ele>1138.8</ele>
        <time>2021-08-20T12:16:09Z</time>
      </trkpt>
      <trkpt lat="46.0251" lon="5.73122">
        <ele>1138.6</ele>
        <time>2021-08-20T12:16:11Z</time>
      </trkpt>
      <trkpt lat="46.02508" lon="5.73125">
        <ele>1138.6</ele>
        <time>2021-08-20T12:16:12Z</time>
      </trkpt>
      <trkpt lat="46.02504" lon="5.73128">
        <ele>1138.5</ele>
        <time>2021-08-20T12:16:14Z</time>
      </trkpt>
      <trkpt lat="46.02498" lon="5.73129">
        <ele>1138.4</ele>
        <time>2021-08-20T12:16:15Z</time>
      </trkpt>
      <trkpt lat="46.02492" lon="5.73131">
        <ele>1138.4</ele>
        <time>2021-08-20T12:16:16Z</time>
      </trkpt>
      <trkpt lat="46.02487" lon="5.73134">
        <ele>1138.4</ele>
        <time>2021-08-20T12:16:18Z</time>
      </trkpt>
      <trkpt lat="46.02483" lon="5.73136">
        <ele>1138.4</ele>
        <time>2021-08-20T12:16:19Z</time>
      </trkpt>
      <trkpt lat="46.02479" lon="5.73139">
        <ele>1138.4</ele>
        <time>2021-08-20T12:16:20Z</time>
      </trkpt>
      <trkpt lat="46.02476" lon="5.73142">
        <ele>1138.5</ele>
        <time>2021-08-20T12:16:22Z</time>
      </trkpt>
      <trkpt lat="46.02474" lon="5.73145">
        <ele>1138.5</ele>
        <time>2021-08-20T12:16:23Z</time>
      </trkpt>
      <trkpt lat="46.02469" lon="5.7315">
        <ele>1138.5</ele>
        <time>2021-08-20T12:16:24Z</time>
      </trkpt>
      <trkpt lat="46.02464" lon="5.73153">
        <ele>1138.5</ele>
        <time>2021-08-20T12:16:26Z</time>
      </trkpt>
      <trkpt lat="46.02458" lon="5.73154">
        <ele>1138.4</ele>
        <time>2021-08-20T12:16:27Z</time>
      </trkpt>
      <trkpt lat="46.02447" lon="5.73155">
        <ele>1138.2</ele>
        <time>2021-08-20T12:16:29Z</time>
      </trkpt>
      <trkpt lat="46.02437" lon="5.73154">
        <ele>1138.1</ele>
        <time>2021-08-20T12:16:31Z</time>
      </trkpt>
      <trkpt lat="46.02434" lon="5.73152">
        <ele>1138</ele>
        <time>2021-08-20T12:16:32Z</time>
      </trkpt>
      <trkpt lat="46.02427" lon="5.73153">
        <ele>1137.9</ele>
        <time>2021-08-20T12:16:34Z</time>
      </trkpt>
      <trkpt lat="46.02423" lon="5.73157">
        <ele>1137.8</ele>
        <time>2021-08-20T12:16:35Z</time>
      </trkpt>
      <trkpt lat="46.02419" lon="5.7316">
        <ele>1137.8</ele>
        <time>2021-08-20T12:16:36Z</time>
      </trkpt>
      <trkpt lat="46.02413" lon="5.73161">
        <ele>1137.9</ele>
        <time>2021-08-20T12:16:38Z</time>
      </trkpt>
      <trkpt lat="46.02408" lon="5.73161">
        <ele>1137.9</ele>
        <time>2021-08-20T12:16:39Z</time>
      </trkpt>
      <trkpt lat="46.02404" lon="5.73161">
        <ele>1137.9</ele>
        <time>2021-08-20T12:16:40Z</time>
      </trkpt>
      <trkpt lat="46.024" lon="5.73161">
        <ele>1137.9</ele>
        <time>2021-08-20T12:16:41Z</time>
      </trkpt>
      <trkpt lat="46.02393" lon="5.73162">
        <ele>1137.9</ele>
        <time>2021-08-20T12:16:43Z</time>
      </trkpt>
      <trkpt lat="46.02388" lon="5.73163">
        <ele>1137.9</ele>
        <time>2021-08-20T12:16:44Z</time>
      </trkpt>
      <trkpt lat="46.02383" lon="5.73165">
        <ele>1137.9</ele>
        <time>2021-08-20T12:16:45Z</time>
      </trkpt>
      <trkpt lat="46.0238" lon="5.73167">
        <ele>1138</ele>
        <time>2021-08-20T12:16:46Z</time>
      </trkpt>
      <trkpt lat="46.02376" lon="5.73169">
        <ele>1138</ele>
        <time>2021-08-20T12:16:47Z</time>
      </trkpt>
      <trkpt lat="46.02372" lon="5.73171">
        <ele>1138</ele>
        <time>2021-08-20T12:16:48Z</time>
      </trkpt>
      <trkpt lat="46.02367" lon="5.73174">
        <ele>1138</ele>
        <time>2021-08-20T12:16:49Z</time>
      </trkpt>
      <trkpt lat="46.02362" lon="5.73178">
        <ele>1138.1</ele>
        <time>2021-08-20T12:16:51Z</time>
      </trkpt>
      <trkpt lat="46.02358" lon="5.7318">
        <ele>1138.2</ele>
        <time>2021-08-20T12:16:52Z</time>
      </trkpt>
      <trkpt lat="46.02354" lon="5.73183">
        <ele>1138.2</ele>
        <time>2021-08-20T12:16:53Z</time>
      </trkpt>
      <trkpt lat="46.02351" lon="5.73184">
        <ele>1138.3</ele>
        <time>2021-08-20T12:16:54Z</time>
      </trkpt>
      <trkpt lat="46.02348" lon="5.73182">
        <ele>1138.3</ele>
        <time>2021-08-20T12:16:56Z</time>
      </trkpt>
      <trkpt lat="46.02346" lon="5.73178">
        <ele>1138.4</ele>
        <time>2021-08-20T12:16:57Z</time>
      </trkpt>
      <trkpt lat="46.02343" lon="5.73174">
        <ele>1138.5</ele>
        <time>2021-08-20T12:16:59Z</time>
      </trkpt>
      <trkpt lat="46.02339" lon="5.73173">
        <ele>1138.5</ele>
        <time>2021-08-20T12:17:01Z</time>
      </trkpt>
      <trkpt lat="46.02336" lon="5.73171">
        <ele>1138.6</ele>
        <time>2021-08-20T12:17:03Z</time>
      </trkpt>
      <trkpt lat="46.02333" lon="5.7317">
        <ele>1138.7</ele>
        <time>2021-08-20T12:17:04Z</time>
      </trkpt>
      <trkpt lat="46.02328" lon="5.73169">
        <ele>1138.7</ele>
        <time>2021-08-20T12:17:06Z</time>
      </trkpt>
      <trkpt lat="46.02323" lon="5.73169">
        <ele>1138.7</ele>
        <time>2021-08-20T12:17:07Z</time>
      </trkpt>
      <trkpt lat="46.02318" lon="5.7317">
        <ele>1138.8</ele>
        <time>2021-08-20T12:17:08Z</time>
      </trkpt>
      <trkpt lat="46.02314" lon="5.73172">
        <ele>1138.7</ele>
        <time>2021-08-20T12:17:10Z</time>
      </trkpt>
      <trkpt lat="46.02311" lon="5.73177">
        <ele>1138.7</ele>
        <time>2021-08-20T12:17:11Z</time>
      </trkpt>
      <trkpt lat="46.02309" lon="5.73179">
        <ele>1138.7</ele>
        <time>2021-08-20T12:17:12Z</time>
      </trkpt>
      <trkpt lat="46.02306" lon="5.73182">
        <ele>1138.6</ele>
        <time>2021-08-20T12:17:13Z</time>
      </trkpt>
      <trkpt lat="46.02305" lon="5.73183">
        <ele>1138.6</ele>
        <time>2021-08-20T12:17:14Z</time>
      </trkpt>
      <trkpt lat="46.02302" lon="5.73186">
        <ele>1138.5</ele>
        <time>2021-08-20T12:17:16Z</time>
      </trkpt>
      <trkpt lat="46.023" lon="5.73187">
        <ele>1138.4</ele>
        <time>2021-08-20T12:17:17Z</time>
      </trkpt>
      <trkpt lat="46.02299" lon="5.73188">
        <ele>1138.4</ele>
        <time>2021-08-20T12:17:18Z</time>
      </trkpt>
      <trkpt lat="46.02294" lon="5.73192">
        <ele>1138.2</ele>
        <time>2021-08-20T12:17:19Z</time>
      </trkpt>
      <trkpt lat="46.02292" lon="5.73193">
        <ele>1138.1</ele>
        <time>2021-08-20T12:17:20Z</time>
      </trkpt>
      <trkpt lat="46.02287" lon="5.73195">
        <ele>1137.9</ele>
        <time>2021-08-20T12:17:21Z</time>
      </trkpt>
      <trkpt lat="46.02277" lon="5.73198">
        <ele>1137.7</ele>
        <time>2021-08-20T12:17:23Z</time>
      </trkpt>
      <trkpt lat="46.02272" lon="5.732">
        <ele>1137.6</ele>
        <time>2021-08-20T12:17:24Z</time>
      </trkpt>
      <trkpt lat="46.02267" lon="5.732">
        <ele>1137.5</ele>
        <time>2021-08-20T12:17:25Z</time>
      </trkpt>
      <trkpt lat="46.02264" lon="5.73201">
        <ele>1137.4</ele>
        <time>2021-08-20T12:17:26Z</time>
      </trkpt>
      <trkpt lat="46.02259" lon="5.73204">
        <ele>1137.3</ele>
        <time>2021-08-20T12:17:27Z</time>
      </trkpt>
      <trkpt lat="46.02255" lon="5.73206">
        <ele>1137.3</ele>
        <time>2021-08-20T12:17:29Z</time>
      </trkpt>
      <trkpt lat="46.02253" lon="5.73208">
        <ele>1137.2</ele>
        <time>2021-08-20T12:17:30Z</time>
      </trkpt>
      <trkpt lat="46.02252" lon="5.73208">
        <ele>1137.2</ele>
        <time>2021-08-20T12:17:31Z</time>
      </trkpt>
      <trkpt lat="46.02246" lon="5.73211">
        <ele>1137.2</ele>
        <time>2021-08-20T12:17:32Z</time>
      </trkpt>
      <trkpt lat="46.02241" lon="5.73218">
        <ele>1137.3</ele>
        <time>2021-08-20T12:17:33Z</time>
      </trkpt>
      <trkpt lat="46.02234" lon="5.73226">
        <ele>1137.5</ele>
        <time>2021-08-20T12:17:34Z</time>
      </trkpt>
      <trkpt lat="46.02232" lon="5.73232">
        <ele>1137.6</ele>
        <time>2021-08-20T12:17:36Z</time>
      </trkpt>
      <trkpt lat="46.02228" lon="5.73241">
        <ele>1137.8</ele>
        <time>2021-08-20T12:17:37Z</time>
      </trkpt>
      <trkpt lat="46.02225" lon="5.73249">
        <ele>1138</ele>
        <time>2021-08-20T12:17:38Z</time>
      </trkpt>
      <trkpt lat="46.02223" lon="5.73256">
        <ele>1138.2</ele>
        <time>2021-08-20T12:17:39Z</time>
      </trkpt>
      <trkpt lat="46.02222" lon="5.7326">
        <ele>1138.3</ele>
        <time>2021-08-20T12:17:40Z</time>
      </trkpt>
      <trkpt lat="46.0222" lon="5.73264">
        <ele>1138.4</ele>
        <time>2021-08-20T12:17:41Z</time>
      </trkpt>
      <trkpt lat="46.02218" lon="5.73268">
        <ele>1138.5</ele>
        <time>2021-08-20T12:17:42Z</time>
      </trkpt>
      <trkpt lat="46.02215" lon="5.73272">
        <ele>1138.7</ele>
        <time>2021-08-20T12:17:43Z</time>
      </trkpt>
      <trkpt lat="46.02213" lon="5.73277">
        <ele>1138.8</ele>
        <time>2021-08-20T12:17:45Z</time>
      </trkpt>
      <trkpt lat="46.0221" lon="5.73281">
        <ele>1139</ele>
        <time>2021-08-20T12:17:46Z</time>
      </trkpt>
      <trkpt lat="46.02209" lon="5.73287">
        <ele>1139.2</ele>
        <time>2021-08-20T12:17:47Z</time>
      </trkpt>
      <trkpt lat="46.02205" lon="5.73293">
        <ele>1139.5</ele>
        <time>2021-08-20T12:17:49Z</time>
      </trkpt>
      <trkpt lat="46.02203" lon="5.73299">
        <ele>1139.8</ele>
        <time>2021-08-20T12:17:50Z</time>
      </trkpt>
      <trkpt lat="46.022" lon="5.73304">
        <ele>1139.9</ele>
        <time>2021-08-20T12:17:52Z</time>
      </trkpt>
      <trkpt lat="46.02197" lon="5.73308">
        <ele>1140.2</ele>
        <time>2021-08-20T12:17:54Z</time>
      </trkpt>
      <trkpt lat="46.02196" lon="5.7331">
        <ele>1140.2</ele>
        <time>2021-08-20T12:17:55Z</time>
      </trkpt>
      <trkpt lat="46.02195" lon="5.73312">
        <ele>1140.3</ele>
        <time>2021-08-20T12:17:56Z</time>
      </trkpt>
      <trkpt lat="46.02194" lon="5.73313">
        <ele>1140.4</ele>
        <time>2021-08-20T12:17:57Z</time>
      </trkpt>
      <trkpt lat="46.02194" lon="5.73316">
        <ele>1140.5</ele>
        <time>2021-08-20T12:17:58Z</time>
      </trkpt>
      <trkpt lat="46.02193" lon="5.73318">
        <ele>1140.5</ele>
        <time>2021-08-20T12:17:59Z</time>
      </trkpt>
      <trkpt lat="46.02191" lon="5.73321">
        <ele>1140.7</ele>
        <time>2021-08-20T12:18:01Z</time>
      </trkpt>
      <trkpt lat="46.02191" lon="5.73325">
        <ele>1140.8</ele>
        <time>2021-08-20T12:18:02Z</time>
      </trkpt>
      <trkpt lat="46.02191" lon="5.73328">
        <ele>1141</ele>
        <time>2021-08-20T12:18:04Z</time>
      </trkpt>
      <trkpt lat="46.0219" lon="5.73331">
        <ele>1141.1</ele>
        <time>2021-08-20T12:18:05Z</time>
      </trkpt>
      <trkpt lat="46.0219" lon="5.73332">
        <ele>1141.1</ele>
        <time>2021-08-20T12:18:06Z</time>
      </trkpt>
      <trkpt lat="46.02188" lon="5.73334">
        <ele>1141.2</ele>
        <time>2021-08-20T12:18:08Z</time>
      </trkpt>
      <trkpt lat="46.02186" lon="5.7334">
        <ele>1141.5</ele>
        <time>2021-08-20T12:18:10Z</time>
      </trkpt>
      <trkpt lat="46.02186" lon="5.73343">
        <ele>1141.6</ele>
        <time>2021-08-20T12:18:12Z</time>
      </trkpt>
      <trkpt lat="46.02186" lon="5.73343">
        <ele>1141.7</ele>
        <time>2021-08-20T12:18:13Z</time>
      </trkpt>
      <trkpt lat="46.02188" lon="5.73345">
        <ele>1141.8</ele>
        <time>2021-08-20T12:18:15Z</time>
      </trkpt>
      <trkpt lat="46.02188" lon="5.73352">
        <ele>1142.1</ele>
        <time>2021-08-20T12:18:17Z</time>
      </trkpt>
      <trkpt lat="46.02188" lon="5.73355">
        <ele>1142.2</ele>
        <time>2021-08-20T12:18:18Z</time>
      </trkpt>
      <trkpt lat="46.02189" lon="5.73362">
        <ele>1142.5</ele>
        <time>2021-08-20T12:18:19Z</time>
      </trkpt>
      <trkpt lat="46.02189" lon="5.73366">
        <ele>1142.6</ele>
        <time>2021-08-20T12:18:21Z</time>
      </trkpt>
      <trkpt lat="46.02188" lon="5.73367">
        <ele>1142.6</ele>
        <time>2021-08-20T12:18:22Z</time>
      </trkpt>
      <trkpt lat="46.02188" lon="5.73369">
        <ele>1142.7</ele>
        <time>2021-08-20T12:18:23Z</time>
      </trkpt>
      <trkpt lat="46.02187" lon="5.73369">
        <ele>1142.7</ele>
        <time>2021-08-20T12:18:24Z</time>
      </trkpt>
      <trkpt lat="46.02187" lon="5.73368">
        <ele>1142.8</ele>
        <time>2021-08-20T12:18:26Z</time>
      </trkpt>
      <trkpt lat="46.02186" lon="5.7337">
        <ele>1142.8</ele>
        <time>2021-08-20T12:18:27Z</time>
      </trkpt>
      <trkpt lat="46.02185" lon="5.73373">
        <ele>1142.9</ele>
        <time>2021-08-20T12:18:28Z</time>
      </trkpt>
      <trkpt lat="46.02185" lon="5.73375">
        <ele>1142.9</ele>
        <time>2021-08-20T12:18:29Z</time>
      </trkpt>
      <trkpt lat="46.02184" lon="5.73377">
        <ele>1143</ele>
        <time>2021-08-20T12:18:31Z</time>
      </trkpt>
      <trkpt lat="46.02183" lon="5.73379">
        <ele>1143</ele>
        <time>2021-08-20T12:18:32Z</time>
      </trkpt>
      <trkpt lat="46.02183" lon="5.73381">
        <ele>1143</ele>
        <time>2021-08-20T12:18:33Z</time>
      </trkpt>
      <trkpt lat="46.02184" lon="5.73385">
        <ele>1143</ele>
        <time>2021-08-20T12:18:35Z</time>
      </trkpt>
      <trkpt lat="46.02182" lon="5.73391">
        <ele>1142.9</ele>
        <time>2021-08-20T12:18:36Z</time>
      </trkpt>
      <trkpt lat="46.02179" lon="5.734">
        <ele>1142.7</ele>
        <time>2021-08-20T12:18:37Z</time>
      </trkpt>
      <trkpt lat="46.02177" lon="5.73408">
        <ele>1142.4</ele>
        <time>2021-08-20T12:18:38Z</time>
      </trkpt>
      <trkpt lat="46.02176" lon="5.73417">
        <ele>1141.9</ele>
        <time>2021-08-20T12:18:40Z</time>
      </trkpt>
      <trkpt lat="46.02173" lon="5.73435">
        <ele>1140.8</ele>
        <time>2021-08-20T12:18:41Z</time>
      </trkpt>
      <trkpt lat="46.02168" lon="5.73458">
        <ele>1139.3</ele>
        <time>2021-08-20T12:18:43Z</time>
      </trkpt>
      <trkpt lat="46.02165" lon="5.73468">
        <ele>1138.8</ele>
        <time>2021-08-20T12:18:44Z</time>
      </trkpt>
      <trkpt lat="46.02159" lon="5.73486">
        <ele>1137.6</ele>
        <time>2021-08-20T12:18:46Z</time>
      </trkpt>
      <trkpt lat="46.02156" lon="5.73489">
        <ele>1137.3</ele>
        <time>2021-08-20T12:18:47Z</time>
      </trkpt>
      <trkpt lat="46.02152" lon="5.73493">
        <ele>1137</ele>
        <time>2021-08-20T12:18:49Z</time>
      </trkpt>
      <trkpt lat="46.02148" lon="5.73502">
        <ele>1136.5</ele>
        <time>2021-08-20T12:18:50Z</time>
      </trkpt>
      <trkpt lat="46.0214" lon="5.73545">
        <ele>1135.3</ele>
        <time>2021-08-20T12:18:52Z</time>
      </trkpt>
      <trkpt lat="46.02134" lon="5.73575">
        <ele>1134.9</ele>
        <time>2021-08-20T12:18:54Z</time>
      </trkpt>
      <trkpt lat="46.02132" lon="5.73586">
        <ele>1134.8</ele>
        <time>2021-08-20T12:18:55Z</time>
      </trkpt>
      <trkpt lat="46.02128" lon="5.73596">
        <ele>1134.5</ele>
        <time>2021-08-20T12:18:56Z</time>
      </trkpt>
      <trkpt lat="46.02124" lon="5.73612">
        <ele>1133.7</ele>
        <time>2021-08-20T12:18:58Z</time>
      </trkpt>
      <trkpt lat="46.0212" lon="5.73629">
        <ele>1133.1</ele>
        <time>2021-08-20T12:19:00Z</time>
      </trkpt>
      <trkpt lat="46.02113" lon="5.73647">
        <ele>1132.2</ele>
        <time>2021-08-20T12:19:02Z</time>
      </trkpt>
      <trkpt lat="46.02106" lon="5.73666">
        <ele>1131.1</ele>
        <time>2021-08-20T12:19:04Z</time>
      </trkpt>
      <trkpt lat="46.02095" lon="5.7369">
        <ele>1129.4</ele>
        <time>2021-08-20T12:19:06Z</time>
      </trkpt>
      <trkpt lat="46.02089" lon="5.73703">
        <ele>1128.5</ele>
        <time>2021-08-20T12:19:07Z</time>
      </trkpt>
      <trkpt lat="46.02086" lon="5.73717">
        <ele>1127.6</ele>
        <time>2021-08-20T12:19:08Z</time>
      </trkpt>
      <trkpt lat="46.02081" lon="5.73745">
        <ele>1126</ele>
        <time>2021-08-20T12:19:10Z</time>
      </trkpt>
      <trkpt lat="46.02082" lon="5.73758">
        <ele>1125.3</ele>
        <time>2021-08-20T12:19:11Z</time>
      </trkpt>
      <trkpt lat="46.02082" lon="5.73771">
        <ele>1124.7</ele>
        <time>2021-08-20T12:19:12Z</time>
      </trkpt>
      <trkpt lat="46.02081" lon="5.73783">
        <ele>1124</ele>
        <time>2021-08-20T12:19:13Z</time>
      </trkpt>
      <trkpt lat="46.02076" lon="5.73808">
        <ele>1122.4</ele>
        <time>2021-08-20T12:19:15Z</time>
      </trkpt>
      <trkpt lat="46.02079" lon="5.73821">
        <ele>1121.6</ele>
        <time>2021-08-20T12:19:16Z</time>
      </trkpt>
      <trkpt lat="46.02079" lon="5.73834">
        <ele>1120.7</ele>
        <time>2021-08-20T12:19:17Z</time>
      </trkpt>
      <trkpt lat="46.02077" lon="5.73848">
        <ele>1119.8</ele>
        <time>2021-08-20T12:19:18Z</time>
      </trkpt>
      <trkpt lat="46.0207" lon="5.73871">
        <ele>1118</ele>
        <time>2021-08-20T12:19:20Z</time>
      </trkpt>
      <trkpt lat="46.02067" lon="5.73883">
        <ele>1117.2</ele>
        <time>2021-08-20T12:19:21Z</time>
      </trkpt>
      <trkpt lat="46.02063" lon="5.73904">
        <ele>1116.2</ele>
        <time>2021-08-20T12:19:23Z</time>
      </trkpt>
      <trkpt lat="46.02061" lon="5.73913">
        <ele>1115.7</ele>
        <time>2021-08-20T12:19:24Z</time>
      </trkpt>
      <trkpt lat="46.02058" lon="5.73923">
        <ele>1115.3</ele>
        <time>2021-08-20T12:19:25Z</time>
      </trkpt>
      <trkpt lat="46.02055" lon="5.73933">
        <ele>1114.9</ele>
        <time>2021-08-20T12:19:26Z</time>
      </trkpt>
      <trkpt lat="46.0205" lon="5.73954">
        <ele>1114.2</ele>
        <time>2021-08-20T12:19:28Z</time>
      </trkpt>
      <trkpt lat="46.02045" lon="5.73971">
        <ele>1113.8</ele>
        <time>2021-08-20T12:19:30Z</time>
      </trkpt>
      <trkpt lat="46.0204" lon="5.73986">
        <ele>1113.3</ele>
        <time>2021-08-20T12:19:32Z</time>
      </trkpt>
      <trkpt lat="46.02033" lon="5.73998">
        <ele>1112.9</ele>
        <time>2021-08-20T12:19:34Z</time>
      </trkpt>
      <trkpt lat="46.0203" lon="5.74002">
        <ele>1112.7</ele>
        <time>2021-08-20T12:19:35Z</time>
      </trkpt>
      <trkpt lat="46.02026" lon="5.74004">
        <ele>1112.6</ele>
        <time>2021-08-20T12:19:36Z</time>
      </trkpt>
      <trkpt lat="46.02023" lon="5.74005">
        <ele>1112.5</ele>
        <time>2021-08-20T12:19:37Z</time>
      </trkpt>
      <trkpt lat="46.02019" lon="5.74005">
        <ele>1112.3</ele>
        <time>2021-08-20T12:19:38Z</time>
      </trkpt>
      <trkpt lat="46.02015" lon="5.74005">
        <ele>1112.2</ele>
        <time>2021-08-20T12:19:39Z</time>
      </trkpt>
      <trkpt lat="46.02009" lon="5.74002">
        <ele>1111.9</ele>
        <time>2021-08-20T12:19:41Z</time>
      </trkpt>
      <trkpt lat="46.02002" lon="5.74002">
        <ele>1111.7</ele>
        <time>2021-08-20T12:19:43Z</time>
      </trkpt>
      <trkpt lat="46.01996" lon="5.74007">
        <ele>1111.4</ele>
        <time>2021-08-20T12:19:45Z</time>
      </trkpt>
      <trkpt lat="46.01991" lon="5.74014">
        <ele>1111.2</ele>
        <time>2021-08-20T12:19:47Z</time>
      </trkpt>
      <trkpt lat="46.01988" lon="5.74016">
        <ele>1111.1</ele>
        <time>2021-08-20T12:19:48Z</time>
      </trkpt>
      <trkpt lat="46.01982" lon="5.74022">
        <ele>1110.8</ele>
        <time>2021-08-20T12:19:50Z</time>
      </trkpt>
      <trkpt lat="46.01981" lon="5.74026">
        <ele>1110.7</ele>
        <time>2021-08-20T12:19:51Z</time>
      </trkpt>
      <trkpt lat="46.01979" lon="5.74033">
        <ele>1110.5</ele>
        <time>2021-08-20T12:19:53Z</time>
      </trkpt>
      <trkpt lat="46.01975" lon="5.74038">
        <ele>1110.3</ele>
        <time>2021-08-20T12:19:55Z</time>
      </trkpt>
      <trkpt lat="46.01973" lon="5.7404">
        <ele>1110.2</ele>
        <time>2021-08-20T12:19:56Z</time>
      </trkpt>
      <trkpt lat="46.01968" lon="5.74045">
        <ele>1110</ele>
        <time>2021-08-20T12:19:58Z</time>
      </trkpt>
      <trkpt lat="46.01968" lon="5.74048">
        <ele>1109.9</ele>
        <time>2021-08-20T12:19:59Z</time>
      </trkpt>
      <trkpt lat="46.01971" lon="5.74051">
        <ele>1109.8</ele>
        <time>2021-08-20T12:20:01Z</time>
      </trkpt>
      <trkpt lat="46.01972" lon="5.74052">
        <ele>1109.7</ele>
        <time>2021-08-20T12:20:02Z</time>
      </trkpt>
      <trkpt lat="46.01976" lon="5.74058">
        <ele>1109.4</ele>
        <time>2021-08-20T12:20:04Z</time>
      </trkpt>
      <trkpt lat="46.01979" lon="5.74062">
        <ele>1109.2</ele>
        <time>2021-08-20T12:20:05Z</time>
      </trkpt>
      <trkpt lat="46.01981" lon="5.7407">
        <ele>1108.9</ele>
        <time>2021-08-20T12:20:07Z</time>
      </trkpt>
      <trkpt lat="46.01981" lon="5.74072">
        <ele>1108.8</ele>
        <time>2021-08-20T12:20:08Z</time>
      </trkpt>
      <trkpt lat="46.01981" lon="5.74079">
        <ele>1108.6</ele>
        <time>2021-08-20T12:20:10Z</time>
      </trkpt>
      <trkpt lat="46.01981" lon="5.7408">
        <ele>1108.6</ele>
        <time>2021-08-20T12:20:11Z</time>
      </trkpt>
      <trkpt lat="46.01981" lon="5.7408">
        <ele>1108.6</ele>
        <time>2021-08-20T12:20:12Z</time>
      </trkpt>
      <trkpt lat="46.01981" lon="5.7408">
        <ele>1108.6</ele>
        <time>2021-08-20T12:20:13Z</time>
      </trkpt>
      <trkpt lat="46.01981" lon="5.7408">
        <ele>1108.5</ele>
        <time>2021-08-20T12:20:15Z</time>
      </trkpt>
      <trkpt lat="46.0197" lon="5.74047">
        <ele>1107.2</ele>
        <time>2021-08-20T12:21:16Z</time>
      </trkpt>
      <trkpt lat="46.01968" lon="5.74043">
        <ele>1107</ele>
        <time>2021-08-20T12:21:17Z</time>
      </trkpt>
      <trkpt lat="46.01966" lon="5.74037">
        <ele>1106.8</ele>
        <time>2021-08-20T12:21:19Z</time>
      </trkpt>
      <trkpt lat="46.01965" lon="5.74035">
        <ele>1106.7</ele>
        <time>2021-08-20T12:21:20Z</time>
      </trkpt>
      <trkpt lat="46.01965" lon="5.74033">
        <ele>1106.6</ele>
        <time>2021-08-20T12:21:21Z</time>
      </trkpt>
      <trkpt lat="46.01964" lon="5.74028">
        <ele>1106.5</ele>
        <time>2021-08-20T12:21:23Z</time>
      </trkpt>
      <trkpt lat="46.01964" lon="5.74026">
        <ele>1106.4</ele>
        <time>2021-08-20T12:21:24Z</time>
      </trkpt>
      <trkpt lat="46.01963" lon="5.74026">
        <ele>1106.4</ele>
        <time>2021-08-20T12:21:26Z</time>
      </trkpt>
      <trkpt lat="46.01963" lon="5.74026">
        <ele>1106.3</ele>
        <time>2021-08-20T12:21:27Z</time>
      </trkpt>
      <trkpt lat="46.01962" lon="5.74027">
        <ele>1106.3</ele>
        <time>2021-08-20T12:21:29Z</time>
      </trkpt>
      <trkpt lat="46.01962" lon="5.74027">
        <ele>1106.3</ele>
        <time>2021-08-20T12:21:30Z</time>
      </trkpt>
      <trkpt lat="46.01962" lon="5.74027">
        <ele>1106.3</ele>
        <time>2021-08-20T12:21:32Z</time>
      </trkpt>
      <trkpt lat="46.01962" lon="5.74027">
        <ele>1106.3</ele>
        <time>2021-08-20T12:21:33Z</time>
      </trkpt>
      <trkpt lat="46.01962" lon="5.74027">
        <ele>1106.3</ele>
        <time>2021-08-20T12:21:35Z</time>
      </trkpt>
      <trkpt lat="46.01949" lon="5.74071">
        <ele>1104.6</ele>
        <time>2021-08-20T13:01:38Z</time>
      </trkpt>
      <trkpt lat="46.01944" lon="5.74078">
        <ele>1104.5</ele>
        <time>2021-08-20T13:01:40Z</time>
      </trkpt>
      <trkpt lat="46.01939" lon="5.7408">
        <ele>1104.5</ele>
        <time>2021-08-20T13:01:42Z</time>
      </trkpt>
      <trkpt lat="46.01936" lon="5.74085">
        <ele>1104.4</ele>
        <time>2021-08-20T13:01:43Z</time>
      </trkpt>
      <trkpt lat="46.01933" lon="5.74092">
        <ele>1104.3</ele>
        <time>2021-08-20T13:01:45Z</time>
      </trkpt>
      <trkpt lat="46.01927" lon="5.741">
        <ele>1104.1</ele>
        <time>2021-08-20T13:01:47Z</time>
      </trkpt>
      <trkpt lat="46.01923" lon="5.74104">
        <ele>1104</ele>
        <time>2021-08-20T13:01:48Z</time>
      </trkpt>
      <trkpt lat="46.01917" lon="5.74108">
        <ele>1103.9</ele>
        <time>2021-08-20T13:01:49Z</time>
      </trkpt>
      <trkpt lat="46.01913" lon="5.74113">
        <ele>1103.8</ele>
        <time>2021-08-20T13:01:50Z</time>
      </trkpt>
      <trkpt lat="46.01908" lon="5.74117">
        <ele>1103.6</ele>
        <time>2021-08-20T13:01:51Z</time>
      </trkpt>
      <trkpt lat="46.01903" lon="5.74121">
        <ele>1103.5</ele>
        <time>2021-08-20T13:01:53Z</time>
      </trkpt>
      <trkpt lat="46.01898" lon="5.74123">
        <ele>1103.3</ele>
        <time>2021-08-20T13:01:54Z</time>
      </trkpt>
      <trkpt lat="46.01892" lon="5.74125">
        <ele>1103.2</ele>
        <time>2021-08-20T13:01:55Z</time>
      </trkpt>
      <trkpt lat="46.01886" lon="5.74128">
        <ele>1102.9</ele>
        <time>2021-08-20T13:01:56Z</time>
      </trkpt>
      <trkpt lat="46.01878" lon="5.7413">
        <ele>1102.5</ele>
        <time>2021-08-20T13:01:58Z</time>
      </trkpt>
      <trkpt lat="46.01872" lon="5.74131">
        <ele>1102.2</ele>
        <time>2021-08-20T13:01:59Z</time>
      </trkpt>
      <trkpt lat="46.01867" lon="5.74131">
        <ele>1101.9</ele>
        <time>2021-08-20T13:02:00Z</time>
      </trkpt>
      <trkpt lat="46.01861" lon="5.74133">
        <ele>1101.4</ele>
        <time>2021-08-20T13:02:01Z</time>
      </trkpt>
      <trkpt lat="46.01856" lon="5.74135">
        <ele>1100.9</ele>
        <time>2021-08-20T13:02:02Z</time>
      </trkpt>
      <trkpt lat="46.0185" lon="5.74137">
        <ele>1100.3</ele>
        <time>2021-08-20T13:02:04Z</time>
      </trkpt>
      <trkpt lat="46.01844" lon="5.74141">
        <ele>1099.5</ele>
        <time>2021-08-20T13:02:05Z</time>
      </trkpt>
      <trkpt lat="46.01837" lon="5.74145">
        <ele>1098.6</ele>
        <time>2021-08-20T13:02:07Z</time>
      </trkpt>
      <trkpt lat="46.01834" lon="5.74148">
        <ele>1098.1</ele>
        <time>2021-08-20T13:02:08Z</time>
      </trkpt>
      <trkpt lat="46.0183" lon="5.74148">
        <ele>1097.6</ele>
        <time>2021-08-20T13:02:09Z</time>
      </trkpt>
      <trkpt lat="46.01824" lon="5.74149">
        <ele>1096.8</ele>
        <time>2021-08-20T13:02:10Z</time>
      </trkpt>
      <trkpt lat="46.01818" lon="5.74147">
        <ele>1096.1</ele>
        <time>2021-08-20T13:02:12Z</time>
      </trkpt>
      <trkpt lat="46.01812" lon="5.74145">
        <ele>1095.3</ele>
        <time>2021-08-20T13:02:14Z</time>
      </trkpt>
      <trkpt lat="46.01807" lon="5.74143">
        <ele>1094.7</ele>
        <time>2021-08-20T13:02:15Z</time>
      </trkpt>
      <trkpt lat="46.01796" lon="5.74139">
        <ele>1093.4</ele>
        <time>2021-08-20T13:02:17Z</time>
      </trkpt>
      <trkpt lat="46.0179" lon="5.7414">
        <ele>1092.8</ele>
        <time>2021-08-20T13:02:18Z</time>
      </trkpt>
      <trkpt lat="46.01777" lon="5.74144">
        <ele>1091.6</ele>
        <time>2021-08-20T13:02:20Z</time>
      </trkpt>
      <trkpt lat="46.01764" lon="5.74158">
        <ele>1090.3</ele>
        <time>2021-08-20T13:02:22Z</time>
      </trkpt>
      <trkpt lat="46.01758" lon="5.74167">
        <ele>1089.6</ele>
        <time>2021-08-20T13:02:23Z</time>
      </trkpt>
      <trkpt lat="46.01746" lon="5.74184">
        <ele>1089</ele>
        <time>2021-08-20T13:02:25Z</time>
      </trkpt>
      <trkpt lat="46.01742" lon="5.74192">
        <ele>1088.9</ele>
        <time>2021-08-20T13:02:26Z</time>
      </trkpt>
      <trkpt lat="46.01733" lon="5.74208">
        <ele>1088.7</ele>
        <time>2021-08-20T13:02:28Z</time>
      </trkpt>
      <trkpt lat="46.01729" lon="5.74216">
        <ele>1088.8</ele>
        <time>2021-08-20T13:02:29Z</time>
      </trkpt>
      <trkpt lat="46.01726" lon="5.74223">
        <ele>1088.8</ele>
        <time>2021-08-20T13:02:30Z</time>
      </trkpt>
      <trkpt lat="46.0172" lon="5.74238">
        <ele>1088.9</ele>
        <time>2021-08-20T13:02:32Z</time>
      </trkpt>
      <trkpt lat="46.01715" lon="5.74249">
        <ele>1089</ele>
        <time>2021-08-20T13:02:34Z</time>
      </trkpt>
      <trkpt lat="46.0171" lon="5.74259">
        <ele>1089.1</ele>
        <time>2021-08-20T13:02:36Z</time>
      </trkpt>
      <trkpt lat="46.01708" lon="5.74264">
        <ele>1089.1</ele>
        <time>2021-08-20T13:02:37Z</time>
      </trkpt>
      <trkpt lat="46.01706" lon="5.74268">
        <ele>1089.1</ele>
        <time>2021-08-20T13:02:38Z</time>
      </trkpt>
      <trkpt lat="46.01704" lon="5.74276">
        <ele>1089.2</ele>
        <time>2021-08-20T13:02:40Z</time>
      </trkpt>
      <trkpt lat="46.01705" lon="5.74281">
        <ele>1089.2</ele>
        <time>2021-08-20T13:02:41Z</time>
      </trkpt>
      <trkpt lat="46.01703" lon="5.74288">
        <ele>1089.2</ele>
        <time>2021-08-20T13:02:42Z</time>
      </trkpt>
      <trkpt lat="46.01701" lon="5.74295">
        <ele>1089.3</ele>
        <time>2021-08-20T13:02:44Z</time>
      </trkpt>
      <trkpt lat="46.01699" lon="5.74301">
        <ele>1089.3</ele>
        <time>2021-08-20T13:02:45Z</time>
      </trkpt>
      <trkpt lat="46.01696" lon="5.74309">
        <ele>1089.3</ele>
        <time>2021-08-20T13:02:46Z</time>
      </trkpt>
      <trkpt lat="46.01693" lon="5.74315">
        <ele>1089.3</ele>
        <time>2021-08-20T13:02:47Z</time>
      </trkpt>
      <trkpt lat="46.01691" lon="5.74319">
        <ele>1089.3</ele>
        <time>2021-08-20T13:02:48Z</time>
      </trkpt>
      <trkpt lat="46.01688" lon="5.74326">
        <ele>1089.2</ele>
        <time>2021-08-20T13:02:50Z</time>
      </trkpt>
      <trkpt lat="46.01686" lon="5.74333">
        <ele>1089</ele>
        <time>2021-08-20T13:02:51Z</time>
      </trkpt>
      <trkpt lat="46.01683" lon="5.7434">
        <ele>1088.8</ele>
        <time>2021-08-20T13:02:52Z</time>
      </trkpt>
      <trkpt lat="46.01681" lon="5.74345">
        <ele>1088.5</ele>
        <time>2021-08-20T13:02:53Z</time>
      </trkpt>
      <trkpt lat="46.01677" lon="5.74351">
        <ele>1088.1</ele>
        <time>2021-08-20T13:02:55Z</time>
      </trkpt>
      <trkpt lat="46.01671" lon="5.74351">
        <ele>1087.6</ele>
        <time>2021-08-20T13:02:56Z</time>
      </trkpt>
      <trkpt lat="46.0166" lon="5.74357">
        <ele>1086.8</ele>
        <time>2021-08-20T13:02:58Z</time>
      </trkpt>
      <trkpt lat="46.01647" lon="5.74361">
        <ele>1086.1</ele>
        <time>2021-08-20T13:03:00Z</time>
      </trkpt>
      <trkpt lat="46.01635" lon="5.74367">
        <ele>1085.1</ele>
        <time>2021-08-20T13:03:02Z</time>
      </trkpt>
      <trkpt lat="46.0162" lon="5.74373">
        <ele>1083.8</ele>
        <time>2021-08-20T13:03:04Z</time>
      </trkpt>
      <trkpt lat="46.01611" lon="5.74376">
        <ele>1083</ele>
        <time>2021-08-20T13:03:05Z</time>
      </trkpt>
      <trkpt lat="46.01603" lon="5.74379">
        <ele>1082.2</ele>
        <time>2021-08-20T13:03:06Z</time>
      </trkpt>
      <trkpt lat="46.01589" lon="5.74384">
        <ele>1080.9</ele>
        <time>2021-08-20T13:03:08Z</time>
      </trkpt>
      <trkpt lat="46.01582" lon="5.74386">
        <ele>1080.3</ele>
        <time>2021-08-20T13:03:09Z</time>
      </trkpt>
      <trkpt lat="46.01566" lon="5.74391">
        <ele>1078.7</ele>
        <time>2021-08-20T13:03:11Z</time>
      </trkpt>
      <trkpt lat="46.01551" lon="5.74395">
        <ele>1077.2</ele>
        <time>2021-08-20T13:03:13Z</time>
      </trkpt>
      <trkpt lat="46.01544" lon="5.74396">
        <ele>1076.6</ele>
        <time>2021-08-20T13:03:14Z</time>
      </trkpt>
      <trkpt lat="46.01532" lon="5.74396">
        <ele>1075.4</ele>
        <time>2021-08-20T13:03:16Z</time>
      </trkpt>
      <trkpt lat="46.01526" lon="5.74395">
        <ele>1074.8</ele>
        <time>2021-08-20T13:03:17Z</time>
      </trkpt>
      <trkpt lat="46.01519" lon="5.74393">
        <ele>1074.2</ele>
        <time>2021-08-20T13:03:18Z</time>
      </trkpt>
      <trkpt lat="46.01514" lon="5.74391">
        <ele>1073.6</ele>
        <time>2021-08-20T13:03:19Z</time>
      </trkpt>
      <trkpt lat="46.01508" lon="5.74393">
        <ele>1072.9</ele>
        <time>2021-08-20T13:03:20Z</time>
      </trkpt>
      <trkpt lat="46.01498" lon="5.74402">
        <ele>1071.5</ele>
        <time>2021-08-20T13:03:22Z</time>
      </trkpt>
      <trkpt lat="46.01493" lon="5.74407">
        <ele>1070.7</ele>
        <time>2021-08-20T13:03:23Z</time>
      </trkpt>
      <trkpt lat="46.01482" lon="5.74409">
        <ele>1069.3</ele>
        <time>2021-08-20T13:03:25Z</time>
      </trkpt>
      <trkpt lat="46.01475" lon="5.74409">
        <ele>1068.5</ele>
        <time>2021-08-20T13:03:26Z</time>
      </trkpt>
      <trkpt lat="46.01463" lon="5.74412">
        <ele>1067.1</ele>
        <time>2021-08-20T13:03:28Z</time>
      </trkpt>
      <trkpt lat="46.01456" lon="5.74416">
        <ele>1066.3</ele>
        <time>2021-08-20T13:03:29Z</time>
      </trkpt>
      <trkpt lat="46.01449" lon="5.7442">
        <ele>1065.5</ele>
        <time>2021-08-20T13:03:30Z</time>
      </trkpt>
      <trkpt lat="46.01441" lon="5.74424">
        <ele>1064.5</ele>
        <time>2021-08-20T13:03:31Z</time>
      </trkpt>
      <trkpt lat="46.01435" lon="5.74426">
        <ele>1063.7</ele>
        <time>2021-08-20T13:03:32Z</time>
      </trkpt>
      <trkpt lat="46.01428" lon="5.74431">
        <ele>1062.7</ele>
        <time>2021-08-20T13:03:34Z</time>
      </trkpt>
      <trkpt lat="46.01422" lon="5.74434">
        <ele>1061.7</ele>
        <time>2021-08-20T13:03:35Z</time>
      </trkpt>
      <trkpt lat="46.01415" lon="5.74437">
        <ele>1060.7</ele>
        <time>2021-08-20T13:03:36Z</time>
      </trkpt>
      <trkpt lat="46.01397" lon="5.74442">
        <ele>1058.1</ele>
        <time>2021-08-20T13:03:38Z</time>
      </trkpt>
      <trkpt lat="46.01371" lon="5.74448">
        <ele>1055.2</ele>
        <time>2021-08-20T13:03:40Z</time>
      </trkpt>
      <trkpt lat="46.0136" lon="5.74451">
        <ele>1054</ele>
        <time>2021-08-20T13:03:41Z</time>
      </trkpt>
      <trkpt lat="46.01341" lon="5.74453">
        <ele>1052</ele>
        <time>2021-08-20T13:03:43Z</time>
      </trkpt>
      <trkpt lat="46.01333" lon="5.74452">
        <ele>1051.2</ele>
        <time>2021-08-20T13:03:44Z</time>
      </trkpt>
      <trkpt lat="46.01317" lon="5.74451">
        <ele>1049.7</ele>
        <time>2021-08-20T13:03:46Z</time>
      </trkpt>
      <trkpt lat="46.01309" lon="5.7445">
        <ele>1048.8</ele>
        <time>2021-08-20T13:03:47Z</time>
      </trkpt>
      <trkpt lat="46.01293" lon="5.74448">
        <ele>1047.2</ele>
        <time>2021-08-20T13:03:49Z</time>
      </trkpt>
      <trkpt lat="46.01286" lon="5.74448">
        <ele>1046.5</ele>
        <time>2021-08-20T13:03:50Z</time>
      </trkpt>
      <trkpt lat="46.01271" lon="5.74447">
        <ele>1045.1</ele>
        <time>2021-08-20T13:03:52Z</time>
      </trkpt>
      <trkpt lat="46.01263" lon="5.74448">
        <ele>1044.3</ele>
        <time>2021-08-20T13:03:53Z</time>
      </trkpt>
      <trkpt lat="46.01256" lon="5.7445">
        <ele>1043.6</ele>
        <time>2021-08-20T13:03:54Z</time>
      </trkpt>
      <trkpt lat="46.01239" lon="5.74454">
        <ele>1041.9</ele>
        <time>2021-08-20T13:03:56Z</time>
      </trkpt>
      <trkpt lat="46.01223" lon="5.74455">
        <ele>1040.3</ele>
        <time>2021-08-20T13:03:58Z</time>
      </trkpt>
      <trkpt lat="46.01207" lon="5.74457">
        <ele>1038.8</ele>
        <time>2021-08-20T13:04:00Z</time>
      </trkpt>
      <trkpt lat="46.01193" lon="5.74463">
        <ele>1037.4</ele>
        <time>2021-08-20T13:04:02Z</time>
      </trkpt>
      <trkpt lat="46.01185" lon="5.74467">
        <ele>1036.7</ele>
        <time>2021-08-20T13:04:03Z</time>
      </trkpt>
      <trkpt lat="46.01173" lon="5.74474">
        <ele>1035.5</ele>
        <time>2021-08-20T13:04:05Z</time>
      </trkpt>
      <trkpt lat="46.01167" lon="5.74477">
        <ele>1035</ele>
        <time>2021-08-20T13:04:06Z</time>
      </trkpt>
      <trkpt lat="46.01154" lon="5.74483">
        <ele>1033.7</ele>
        <time>2021-08-20T13:04:08Z</time>
      </trkpt>
      <trkpt lat="46.01142" lon="5.74486">
        <ele>1032.2</ele>
        <time>2021-08-20T13:04:10Z</time>
      </trkpt>
      <trkpt lat="46.01136" lon="5.74487">
        <ele>1031.5</ele>
        <time>2021-08-20T13:04:11Z</time>
      </trkpt>
      <trkpt lat="46.01125" lon="5.7449">
        <ele>1030.2</ele>
        <time>2021-08-20T13:04:13Z</time>
      </trkpt>
      <trkpt lat="46.01119" lon="5.74493">
        <ele>1029.5</ele>
        <time>2021-08-20T13:04:14Z</time>
      </trkpt>
      <trkpt lat="46.01109" lon="5.74501">
        <ele>1028.1</ele>
        <time>2021-08-20T13:04:16Z</time>
      </trkpt>
      <trkpt lat="46.01105" lon="5.74508">
        <ele>1027.3</ele>
        <time>2021-08-20T13:04:17Z</time>
      </trkpt>
      <trkpt lat="46.01096" lon="5.74523">
        <ele>1025.8</ele>
        <time>2021-08-20T13:04:19Z</time>
      </trkpt>
      <trkpt lat="46.01091" lon="5.74531">
        <ele>1025</ele>
        <time>2021-08-20T13:04:20Z</time>
      </trkpt>
      <trkpt lat="46.01083" lon="5.74547">
        <ele>1023.6</ele>
        <time>2021-08-20T13:04:22Z</time>
      </trkpt>
      <trkpt lat="46.0108" lon="5.74555">
        <ele>1023</ele>
        <time>2021-08-20T13:04:23Z</time>
      </trkpt>
      <trkpt lat="46.01077" lon="5.74563">
        <ele>1022.4</ele>
        <time>2021-08-20T13:04:24Z</time>
      </trkpt>
      <trkpt lat="46.0107" lon="5.74578">
        <ele>1021.2</ele>
        <time>2021-08-20T13:04:26Z</time>
      </trkpt>
      <trkpt lat="46.01065" lon="5.74591">
        <ele>1020.1</ele>
        <time>2021-08-20T13:04:28Z</time>
      </trkpt>
      <trkpt lat="46.01062" lon="5.74597">
        <ele>1019.7</ele>
        <time>2021-08-20T13:04:29Z</time>
      </trkpt>
      <trkpt lat="46.01059" lon="5.74603">
        <ele>1019.2</ele>
        <time>2021-08-20T13:04:30Z</time>
      </trkpt>
      <trkpt lat="46.0105" lon="5.74614">
        <ele>1018</ele>
        <time>2021-08-20T13:04:32Z</time>
      </trkpt>
      <trkpt lat="46.01042" lon="5.7463">
        <ele>1016.9</ele>
        <time>2021-08-20T13:04:34Z</time>
      </trkpt>
      <trkpt lat="46.01038" lon="5.74636">
        <ele>1016.4</ele>
        <time>2021-08-20T13:04:35Z</time>
      </trkpt>
      <trkpt lat="46.01034" lon="5.74641">
        <ele>1016</ele>
        <time>2021-08-20T13:04:36Z</time>
      </trkpt>
      <trkpt lat="46.01026" lon="5.7465">
        <ele>1015.3</ele>
        <time>2021-08-20T13:04:38Z</time>
      </trkpt>
      <trkpt lat="46.01019" lon="5.74656">
        <ele>1014.8</ele>
        <time>2021-08-20T13:04:40Z</time>
      </trkpt>
      <trkpt lat="46.01016" lon="5.74658">
        <ele>1014</ele>
        <time>2021-08-20T13:04:41Z</time>
      </trkpt>
      <trkpt lat="46.01013" lon="5.74658">
        <ele>1014</ele>
        <time>2021-08-20T13:04:42Z</time>
      </trkpt>
      <trkpt lat="46.01012" lon="5.74658">
        <ele>1013.9</ele>
        <time>2021-08-20T13:04:44Z</time>
      </trkpt>
      <trkpt lat="46.01012" lon="5.74657">
        <ele>1013.9</ele>
        <time>2021-08-20T13:04:46Z</time>
      </trkpt>
      <trkpt lat="46.01011" lon="5.74659">
        <ele>1013.9</ele>
        <time>2021-08-20T13:04:47Z</time>
      </trkpt>
      <trkpt lat="46.0101" lon="5.74657">
        <ele>1013.9</ele>
        <time>2021-08-20T13:04:49Z</time>
      </trkpt>
      <trkpt lat="46.01011" lon="5.74654">
        <ele>1013.8</ele>
        <time>2021-08-20T13:04:50Z</time>
      </trkpt>
      <trkpt lat="46.01012" lon="5.74652">
        <ele>1013.8</ele>
        <time>2021-08-20T13:04:52Z</time>
      </trkpt>
      <trkpt lat="46.01013" lon="5.74651">
        <ele>1013.8</ele>
        <time>2021-08-20T13:04:54Z</time>
      </trkpt>
      <trkpt lat="46.01013" lon="5.74651">
        <ele>1013.8</ele>
        <time>2021-08-20T13:04:56Z</time>
      </trkpt>
      <trkpt lat="46.01013" lon="5.74651">
        <ele>1013.8</ele>
        <time>2021-08-20T13:04:58Z</time>
      </trkpt>
      <trkpt lat="46.0101" lon="5.7463">
        <ele>1013.4</ele>
        <time>2021-08-20T13:05:12Z</time>
      </trkpt>
      <trkpt lat="46.00998" lon="5.74627">
        <ele>1013.2</ele>
        <time>2021-08-20T13:05:14Z</time>
      </trkpt>
      <trkpt lat="46.00988" lon="5.74627">
        <ele>1013</ele>
        <time>2021-08-20T13:05:16Z</time>
      </trkpt>
      <trkpt lat="46.00983" lon="5.7463">
        <ele>1013</ele>
        <time>2021-08-20T13:05:17Z</time>
      </trkpt>
      <trkpt lat="46.00979" lon="5.74632">
        <ele>1012.9</ele>
        <time>2021-08-20T13:05:18Z</time>
      </trkpt>
      <trkpt lat="46.00976" lon="5.74632">
        <ele>1012.8</ele>
        <time>2021-08-20T13:05:19Z</time>
      </trkpt>
      <trkpt lat="46.0097" lon="5.74633">
        <ele>1012.7</ele>
        <time>2021-08-20T13:05:21Z</time>
      </trkpt>
      <trkpt lat="46.00962" lon="5.74633">
        <ele>1012.6</ele>
        <time>2021-08-20T13:05:23Z</time>
      </trkpt>
      <trkpt lat="46.00956" lon="5.74629">
        <ele>1012.5</ele>
        <time>2021-08-20T13:05:25Z</time>
      </trkpt>
      <trkpt lat="46.00953" lon="5.74628">
        <ele>1012.5</ele>
        <time>2021-08-20T13:05:26Z</time>
      </trkpt>
      <trkpt lat="46.00951" lon="5.74627">
        <ele>1012.5</ele>
        <time>2021-08-20T13:05:27Z</time>
      </trkpt>
      <trkpt lat="46.00948" lon="5.74623">
        <ele>1012.4</ele>
        <time>2021-08-20T13:05:29Z</time>
      </trkpt>
      <trkpt lat="46.00945" lon="5.74621">
        <ele>1012.4</ele>
        <time>2021-08-20T13:05:30Z</time>
      </trkpt>
      <trkpt lat="46.00944" lon="5.7462">
        <ele>1012.4</ele>
        <time>2021-08-20T13:05:31Z</time>
      </trkpt>
      <trkpt lat="46.00942" lon="5.74617">
        <ele>1012.4</ele>
        <time>2021-08-20T13:05:32Z</time>
      </trkpt>
      <trkpt lat="46.0094" lon="5.74611">
        <ele>1012.3</ele>
        <time>2021-08-20T13:05:34Z</time>
      </trkpt>
      <trkpt lat="46.00939" lon="5.74607">
        <ele>1012.3</ele>
        <time>2021-08-20T13:05:35Z</time>
      </trkpt>
      <trkpt lat="46.00939" lon="5.74605">
        <ele>1012.3</ele>
        <time>2021-08-20T13:05:36Z</time>
      </trkpt>
      <trkpt lat="46.00939" lon="5.74599">
        <ele>1012.2</ele>
        <time>2021-08-20T13:05:38Z</time>
      </trkpt>
      <trkpt lat="46.00939" lon="5.74597">
        <ele>1012.2</ele>
        <time>2021-08-20T13:05:39Z</time>
      </trkpt>
      <trkpt lat="46.00936" lon="5.74597">
        <ele>1012.2</ele>
        <time>2021-08-20T13:05:41Z</time>
      </trkpt>
      <trkpt lat="46.00936" lon="5.74599">
        <ele>1012.2</ele>
        <time>2021-08-20T13:05:42Z</time>
      </trkpt>
      <trkpt lat="46.00936" lon="5.74603">
        <ele>1012.2</ele>
        <time>2021-08-20T13:05:44Z</time>
      </trkpt>
      <trkpt lat="46.00938" lon="5.74606">
        <ele>1012.2</ele>
        <time>2021-08-20T13:05:45Z</time>
      </trkpt>
      <trkpt lat="46.00942" lon="5.74614">
        <ele>1012.2</ele>
        <time>2021-08-20T13:05:47Z</time>
      </trkpt>
      <trkpt lat="46.00945" lon="5.74618">
        <ele>1012.2</ele>
        <time>2021-08-20T13:05:48Z</time>
      </trkpt>
      <trkpt lat="46.00949" lon="5.74626">
        <ele>1012.2</ele>
        <time>2021-08-20T13:05:50Z</time>
      </trkpt>
      <trkpt lat="46.00951" lon="5.74629">
        <ele>1012.3</ele>
        <time>2021-08-20T13:05:51Z</time>
      </trkpt>
      <trkpt lat="46.00955" lon="5.74633">
        <ele>1012.4</ele>
        <time>2021-08-20T13:05:52Z</time>
      </trkpt>
      <trkpt lat="46.00956" lon="5.74634">
        <ele>1012.4</ele>
        <time>2021-08-20T13:05:53Z</time>
      </trkpt>
      <trkpt lat="46.00961" lon="5.74638">
        <ele>1012.5</ele>
        <time>2021-08-20T13:05:55Z</time>
      </trkpt>
      <trkpt lat="46.00964" lon="5.74641">
        <ele>1012.6</ele>
        <time>2021-08-20T13:05:56Z</time>
      </trkpt>
      <trkpt lat="46.00968" lon="5.74646">
        <ele>1012.7</ele>
        <time>2021-08-20T13:05:58Z</time>
      </trkpt>
      <trkpt lat="46.00971" lon="5.74648">
        <ele>1012.8</ele>
        <time>2021-08-20T13:05:59Z</time>
      </trkpt>
      <trkpt lat="46.00974" lon="5.74649">
        <ele>1012.9</ele>
        <time>2021-08-20T13:06:00Z</time>
      </trkpt>
      <trkpt lat="46.00977" lon="5.74649">
        <ele>1013</ele>
        <time>2021-08-20T13:06:01Z</time>
      </trkpt>
      <trkpt lat="46.0098" lon="5.7465">
        <ele>1013.1</ele>
        <time>2021-08-20T13:06:02Z</time>
      </trkpt>
      <trkpt lat="46.00985" lon="5.7465">
        <ele>1013.2</ele>
        <time>2021-08-20T13:06:04Z</time>
      </trkpt>
      <trkpt lat="46.00989" lon="5.7465">
        <ele>1013.3</ele>
        <time>2021-08-20T13:06:05Z</time>
      </trkpt>
      <trkpt lat="46.0099" lon="5.7465">
        <ele>1013.4</ele>
        <time>2021-08-20T13:06:06Z</time>
      </trkpt>
      <trkpt lat="46.00994" lon="5.74649">
        <ele>1013.5</ele>
        <time>2021-08-20T13:06:08Z</time>
      </trkpt>
      <trkpt lat="46.00996" lon="5.74651">
        <ele>1013.6</ele>
        <time>2021-08-20T13:06:10Z</time>
      </trkpt>
      <trkpt lat="46.00997" lon="5.74653">
        <ele>1013.6</ele>
        <time>2021-08-20T13:06:11Z</time>
      </trkpt>
      <trkpt lat="46.00998" lon="5.74656">
        <ele>1014</ele>
        <time>2021-08-20T13:06:12Z</time>
      </trkpt>
      <trkpt lat="46.01" lon="5.74664">
        <ele>1014.2</ele>
        <time>2021-08-20T13:06:14Z</time>
      </trkpt>
      <trkpt lat="46.01" lon="5.7467">
        <ele>1014.3</ele>
        <time>2021-08-20T13:06:16Z</time>
      </trkpt>
      <trkpt lat="46.01001" lon="5.74675">
        <ele>1014.4</ele>
        <time>2021-08-20T13:06:18Z</time>
      </trkpt>
      <trkpt lat="46.01003" lon="5.74681">
        <ele>1014.5</ele>
        <time>2021-08-20T13:06:20Z</time>
      </trkpt>
      <trkpt lat="46.01005" lon="5.74684">
        <ele>1014.6</ele>
        <time>2021-08-20T13:06:22Z</time>
      </trkpt>
      <trkpt lat="46.01004" lon="5.74684">
        <ele>1014.6</ele>
        <time>2021-08-20T13:06:23Z</time>
      </trkpt>
      <trkpt lat="46.01004" lon="5.74686">
        <ele>1014.6</ele>
        <time>2021-08-20T13:06:24Z</time>
      </trkpt>
      <trkpt lat="46.01002" lon="5.74689">
        <ele>1014.7</ele>
        <time>2021-08-20T13:06:26Z</time>
      </trkpt>
      <trkpt lat="46.01001" lon="5.74693">
        <ele>1014.8</ele>
        <time>2021-08-20T13:06:28Z</time>
      </trkpt>
      <trkpt lat="46.01" lon="5.74695">
        <ele>1014.9</ele>
        <time>2021-08-20T13:06:29Z</time>
      </trkpt>
      <trkpt lat="46.00996" lon="5.747">
        <ele>1015.1</ele>
        <time>2021-08-20T13:06:31Z</time>
      </trkpt>
      <trkpt lat="46.00995" lon="5.74701">
        <ele>1015.1</ele>
        <time>2021-08-20T13:06:32Z</time>
      </trkpt>
      <trkpt lat="46.00992" lon="5.74701">
        <ele>1015.2</ele>
        <time>2021-08-20T13:06:34Z</time>
      </trkpt>
      <trkpt lat="46.00991" lon="5.74701">
        <ele>1015.3</ele>
        <time>2021-08-20T13:06:35Z</time>
      </trkpt>
      <trkpt lat="46.0099" lon="5.74701">
        <ele>1015.3</ele>
        <time>2021-08-20T13:06:36Z</time>
      </trkpt>
      <trkpt lat="46.0099" lon="5.747">
        <ele>1015.3</ele>
        <time>2021-08-20T13:06:38Z</time>
      </trkpt>
      <trkpt lat="46.00989" lon="5.74701">
        <ele>1015.3</ele>
        <time>2021-08-20T13:06:40Z</time>
      </trkpt>
      <trkpt lat="46.00989" lon="5.74701">
        <ele>1015.4</ele>
        <time>2021-08-20T13:06:41Z</time>
      </trkpt>
      <trkpt lat="46.00989" lon="5.74701">
        <ele>1015.4</ele>
        <time>2021-08-20T13:06:42Z</time>
      </trkpt>
      <trkpt lat="46.00989" lon="5.74701">
        <ele>1015.4</ele>
        <time>2021-08-20T13:06:44Z</time>
      </trkpt>
      <trkpt lat="46.00989" lon="5.74701">
        <ele>1015.4</ele>
        <time>2021-08-20T13:06:46Z</time>
      </trkpt>
      <trkpt lat="46.00959" lon="5.74722">
        <ele>1016.4</ele>
        <time>2021-08-20T13:07:35Z</time>
      </trkpt>
      <trkpt lat="46.00952" lon="5.7472">
        <ele>1016.3</ele>
        <time>2021-08-20T13:07:37Z</time>
      </trkpt>
      <trkpt lat="46.00946" lon="5.74717">
        <ele>1016.1</ele>
        <time>2021-08-20T13:07:38Z</time>
      </trkpt>
      <trkpt lat="46.00939" lon="5.74715">
        <ele>1015.8</ele>
        <time>2021-08-20T13:07:39Z</time>
      </trkpt>
      <trkpt lat="46.00933" lon="5.74715">
        <ele>1015.5</ele>
        <time>2021-08-20T13:07:40Z</time>
      </trkpt>
      <trkpt lat="46.00926" lon="5.74714">
        <ele>1015.1</ele>
        <time>2021-08-20T13:07:41Z</time>
      </trkpt>
      <trkpt lat="46.00914" lon="5.74716">
        <ele>1014.1</ele>
        <time>2021-08-20T13:07:43Z</time>
      </trkpt>
      <trkpt lat="46.00908" lon="5.74717">
        <ele>1013.6</ele>
        <time>2021-08-20T13:07:44Z</time>
      </trkpt>
      <trkpt lat="46.00898" lon="5.74721">
        <ele>1012.6</ele>
        <time>2021-08-20T13:07:46Z</time>
      </trkpt>
      <trkpt lat="46.00892" lon="5.74722">
        <ele>1012.2</ele>
        <time>2021-08-20T13:07:47Z</time>
      </trkpt>
      <trkpt lat="46.00881" lon="5.74722">
        <ele>1011.3</ele>
        <time>2021-08-20T13:07:49Z</time>
      </trkpt>
      <trkpt lat="46.00875" lon="5.74721">
        <ele>1010.8</ele>
        <time>2021-08-20T13:07:50Z</time>
      </trkpt>
      <trkpt lat="46.00862" lon="5.74716">
        <ele>1009.8</ele>
        <time>2021-08-20T13:07:52Z</time>
      </trkpt>
      <trkpt lat="46.00856" lon="5.74715">
        <ele>1009.2</ele>
        <time>2021-08-20T13:07:53Z</time>
      </trkpt>
      <trkpt lat="46.00849" lon="5.74713">
        <ele>1008.7</ele>
        <time>2021-08-20T13:07:54Z</time>
      </trkpt>
      <trkpt lat="46.00843" lon="5.74713">
        <ele>1008.2</ele>
        <time>2021-08-20T13:07:55Z</time>
      </trkpt>
      <trkpt lat="46.00837" lon="5.74713">
        <ele>1007.7</ele>
        <time>2021-08-20T13:07:56Z</time>
      </trkpt>
      <trkpt lat="46.00826" lon="5.74717">
        <ele>1007</ele>
        <time>2021-08-20T13:07:58Z</time>
      </trkpt>
      <trkpt lat="46.00818" lon="5.74713">
        <ele>1006.5</ele>
        <time>2021-08-20T13:07:59Z</time>
      </trkpt>
      <trkpt lat="46.00811" lon="5.74713">
        <ele>1006</ele>
        <time>2021-08-20T13:08:00Z</time>
      </trkpt>
      <trkpt lat="46.00797" lon="5.74713">
        <ele>1005</ele>
        <time>2021-08-20T13:08:02Z</time>
      </trkpt>
      <trkpt lat="46.00791" lon="5.74713">
        <ele>1004.6</ele>
        <time>2021-08-20T13:08:03Z</time>
      </trkpt>
      <trkpt lat="46.00784" lon="5.74712">
        <ele>1004.1</ele>
        <time>2021-08-20T13:08:04Z</time>
      </trkpt>
      <trkpt lat="46.00778" lon="5.74712">
        <ele>1003.7</ele>
        <time>2021-08-20T13:08:05Z</time>
      </trkpt>
      <trkpt lat="46.00765" lon="5.74709">
        <ele>1002.8</ele>
        <time>2021-08-20T13:08:07Z</time>
      </trkpt>
      <trkpt lat="46.00759" lon="5.74706">
        <ele>1002.3</ele>
        <time>2021-08-20T13:08:08Z</time>
      </trkpt>
      <trkpt lat="46.00747" lon="5.74698">
        <ele>1001.4</ele>
        <time>2021-08-20T13:08:10Z</time>
      </trkpt>
      <trkpt lat="46.0074" lon="5.74692">
        <ele>1000.8</ele>
        <time>2021-08-20T13:08:12Z</time>
      </trkpt>
      <trkpt lat="46.00734" lon="5.74688">
        <ele>1000.3</ele>
        <time>2021-08-20T13:08:13Z</time>
      </trkpt>
      <trkpt lat="46.00728" lon="5.74685">
        <ele>999.7</ele>
        <time>2021-08-20T13:08:14Z</time>
      </trkpt>
      <trkpt lat="46.00707" lon="5.74674">
        <ele>998</ele>
        <time>2021-08-20T13:08:16Z</time>
      </trkpt>
      <trkpt lat="46.00698" lon="5.74668">
        <ele>997.3</ele>
        <time>2021-08-20T13:08:17Z</time>
      </trkpt>
      <trkpt lat="46.00689" lon="5.74663">
        <ele>996.5</ele>
        <time>2021-08-20T13:08:18Z</time>
      </trkpt>
      <trkpt lat="46.00674" lon="5.74655">
        <ele>995.3</ele>
        <time>2021-08-20T13:08:20Z</time>
      </trkpt>
      <trkpt lat="46.00658" lon="5.74652">
        <ele>994.1</ele>
        <time>2021-08-20T13:08:22Z</time>
      </trkpt>
      <trkpt lat="46.00651" lon="5.74652">
        <ele>993.6</ele>
        <time>2021-08-20T13:08:23Z</time>
      </trkpt>
      <trkpt lat="46.00643" lon="5.7465">
        <ele>993.2</ele>
        <time>2021-08-20T13:08:24Z</time>
      </trkpt>
      <trkpt lat="46.00636" lon="5.74648">
        <ele>992.7</ele>
        <time>2021-08-20T13:08:25Z</time>
      </trkpt>
      <trkpt lat="46.00629" lon="5.74646">
        <ele>992.4</ele>
        <time>2021-08-20T13:08:26Z</time>
      </trkpt>
      <trkpt lat="46.00617" lon="5.74643">
        <ele>991.6</ele>
        <time>2021-08-20T13:08:28Z</time>
      </trkpt>
      <trkpt lat="46.00599" lon="5.74637">
        <ele>990.1</ele>
        <time>2021-08-20T13:08:30Z</time>
      </trkpt>
      <trkpt lat="46.00591" lon="5.74634">
        <ele>989.6</ele>
        <time>2021-08-20T13:08:31Z</time>
      </trkpt>
      <trkpt lat="46.00583" lon="5.74632">
        <ele>989</ele>
        <time>2021-08-20T13:08:32Z</time>
      </trkpt>
      <trkpt lat="46.00567" lon="5.74633">
        <ele>988.2</ele>
        <time>2021-08-20T13:08:34Z</time>
      </trkpt>
      <trkpt lat="46.00551" lon="5.7463">
        <ele>987.3</ele>
        <time>2021-08-20T13:08:36Z</time>
      </trkpt>
      <trkpt lat="46.00535" lon="5.7462">
        <ele>986.6</ele>
        <time>2021-08-20T13:08:38Z</time>
      </trkpt>
      <trkpt lat="46.00518" lon="5.74614">
        <ele>985.7</ele>
        <time>2021-08-20T13:08:40Z</time>
      </trkpt>
      <trkpt lat="46.00509" lon="5.74612">
        <ele>985.2</ele>
        <time>2021-08-20T13:08:41Z</time>
      </trkpt>
      <trkpt lat="46.00501" lon="5.74607">
        <ele>984.7</ele>
        <time>2021-08-20T13:08:42Z</time>
      </trkpt>
      <trkpt lat="46.00486" lon="5.74591">
        <ele>983.7</ele>
        <time>2021-08-20T13:08:44Z</time>
      </trkpt>
      <trkpt lat="46.00479" lon="5.7458">
        <ele>983.3</ele>
        <time>2021-08-20T13:08:45Z</time>
      </trkpt>
      <trkpt lat="46.00466" lon="5.74565">
        <ele>982.9</ele>
        <time>2021-08-20T13:08:47Z</time>
      </trkpt>
      <trkpt lat="46.00458" lon="5.7456">
        <ele>982.7</ele>
        <time>2021-08-20T13:08:48Z</time>
      </trkpt>
      <trkpt lat="46.00451" lon="5.74557">
        <ele>982.6</ele>
        <time>2021-08-20T13:08:49Z</time>
      </trkpt>
      <trkpt lat="46.00443" lon="5.74556">
        <ele>982.4</ele>
        <time>2021-08-20T13:08:50Z</time>
      </trkpt>
      <trkpt lat="46.00432" lon="5.74562">
        <ele>982.3</ele>
        <time>2021-08-20T13:08:52Z</time>
      </trkpt>
      <trkpt lat="46.00428" lon="5.74565">
        <ele>982.3</ele>
        <time>2021-08-20T13:08:53Z</time>
      </trkpt>
      <trkpt lat="46.0042" lon="5.74568">
        <ele>982.3</ele>
        <time>2021-08-20T13:08:55Z</time>
      </trkpt>
      <trkpt lat="46.00416" lon="5.74569">
        <ele>982.2</ele>
        <time>2021-08-20T13:08:56Z</time>
      </trkpt>
      <trkpt lat="46.00406" lon="5.74568">
        <ele>982.1</ele>
        <time>2021-08-20T13:08:58Z</time>
      </trkpt>
      <trkpt lat="46.00402" lon="5.74567">
        <ele>982.1</ele>
        <time>2021-08-20T13:08:59Z</time>
      </trkpt>
      <trkpt lat="46.00398" lon="5.74566">
        <ele>982</ele>
        <time>2021-08-20T13:09:00Z</time>
      </trkpt>
      <trkpt lat="46.00389" lon="5.74563">
        <ele>982</ele>
        <time>2021-08-20T13:09:02Z</time>
      </trkpt>
      <trkpt lat="46.0038" lon="5.74562">
        <ele>981.9</ele>
        <time>2021-08-20T13:09:04Z</time>
      </trkpt>
      <trkpt lat="46.00376" lon="5.74563">
        <ele>981.9</ele>
        <time>2021-08-20T13:09:05Z</time>
      </trkpt>
      <trkpt lat="46.00372" lon="5.74563">
        <ele>981.8</ele>
        <time>2021-08-20T13:09:06Z</time>
      </trkpt>
      <trkpt lat="46.00365" lon="5.74565">
        <ele>981.7</ele>
        <time>2021-08-20T13:09:08Z</time>
      </trkpt>
      <trkpt lat="46.00356" lon="5.74567">
        <ele>981.6</ele>
        <time>2021-08-20T13:09:10Z</time>
      </trkpt>
      <trkpt lat="46.00353" lon="5.74568">
        <ele>981.5</ele>
        <time>2021-08-20T13:09:11Z</time>
      </trkpt>
      <trkpt lat="46.00348" lon="5.74571">
        <ele>981.5</ele>
        <time>2021-08-20T13:09:12Z</time>
      </trkpt>
      <trkpt lat="46.00345" lon="5.74573">
        <ele>981.5</ele>
        <time>2021-08-20T13:09:13Z</time>
      </trkpt>
      <trkpt lat="46.00341" lon="5.74576">
        <ele>981.5</ele>
        <time>2021-08-20T13:09:14Z</time>
      </trkpt>
      <trkpt lat="46.00332" lon="5.74584">
        <ele>981.4</ele>
        <time>2021-08-20T13:09:16Z</time>
      </trkpt>
      <trkpt lat="46.00325" lon="5.74594">
        <ele>981.4</ele>
        <time>2021-08-20T13:09:18Z</time>
      </trkpt>
      <trkpt lat="46.00323" lon="5.746">
        <ele>981.4</ele>
        <time>2021-08-20T13:09:19Z</time>
      </trkpt>
      <trkpt lat="46.0032" lon="5.74605">
        <ele>981.5</ele>
        <time>2021-08-20T13:09:20Z</time>
      </trkpt>
      <trkpt lat="46.00315" lon="5.74616">
        <ele>981.5</ele>
        <time>2021-08-20T13:09:22Z</time>
      </trkpt>
      <trkpt lat="46.00312" lon="5.74623">
        <ele>981.6</ele>
        <time>2021-08-20T13:09:23Z</time>
      </trkpt>
      <trkpt lat="46.00308" lon="5.74632">
        <ele>981.6</ele>
        <time>2021-08-20T13:09:25Z</time>
      </trkpt>
      <trkpt lat="46.00306" lon="5.74636">
        <ele>981.6</ele>
        <time>2021-08-20T13:09:26Z</time>
      </trkpt>
      <trkpt lat="46.00302" lon="5.74641">
        <ele>981.5</ele>
        <time>2021-08-20T13:09:27Z</time>
      </trkpt>
      <trkpt lat="46.00295" lon="5.74648">
        <ele>981.5</ele>
        <time>2021-08-20T13:09:29Z</time>
      </trkpt>
      <trkpt lat="46.00291" lon="5.7465">
        <ele>981.5</ele>
        <time>2021-08-20T13:09:30Z</time>
      </trkpt>
      <trkpt lat="46.00282" lon="5.74656">
        <ele>981.5</ele>
        <time>2021-08-20T13:09:32Z</time>
      </trkpt>
      <trkpt lat="46.00272" lon="5.74662">
        <ele>981.5</ele>
        <time>2021-08-20T13:09:34Z</time>
      </trkpt>
      <trkpt lat="46.00267" lon="5.74665">
        <ele>981.5</ele>
        <time>2021-08-20T13:09:35Z</time>
      </trkpt>
      <trkpt lat="46.00256" lon="5.74673">
        <ele>981.6</ele>
        <time>2021-08-20T13:09:37Z</time>
      </trkpt>
      <trkpt lat="46.00251" lon="5.74676">
        <ele>981.6</ele>
        <time>2021-08-20T13:09:38Z</time>
      </trkpt>
      <trkpt lat="46.0024" lon="5.74684">
        <ele>981.6</ele>
        <time>2021-08-20T13:09:40Z</time>
      </trkpt>
      <trkpt lat="46.00235" lon="5.74687">
        <ele>981.6</ele>
        <time>2021-08-20T13:09:41Z</time>
      </trkpt>
      <trkpt lat="46.00229" lon="5.74691">
        <ele>981.6</ele>
        <time>2021-08-20T13:09:42Z</time>
      </trkpt>
      <trkpt lat="46.0022" lon="5.74697">
        <ele>981.6</ele>
        <time>2021-08-20T13:09:44Z</time>
      </trkpt>
      <trkpt lat="46.00211" lon="5.74703">
        <ele>981.6</ele>
        <time>2021-08-20T13:09:46Z</time>
      </trkpt>
      <trkpt lat="46.00207" lon="5.74707">
        <ele>981.6</ele>
        <time>2021-08-20T13:09:47Z</time>
      </trkpt>
      <trkpt lat="46.00203" lon="5.74711">
        <ele>981.6</ele>
        <time>2021-08-20T13:09:48Z</time>
      </trkpt>
      <trkpt lat="46.00194" lon="5.7472">
        <ele>981.7</ele>
        <time>2021-08-20T13:09:50Z</time>
      </trkpt>
      <trkpt lat="46.0019" lon="5.74725">
        <ele>981.7</ele>
        <time>2021-08-20T13:09:51Z</time>
      </trkpt>
      <trkpt lat="46.00181" lon="5.74735">
        <ele>981.7</ele>
        <time>2021-08-20T13:09:53Z</time>
      </trkpt>
      <trkpt lat="46.00176" lon="5.74739">
        <ele>981.8</ele>
        <time>2021-08-20T13:09:54Z</time>
      </trkpt>
      <trkpt lat="46.00167" lon="5.74747">
        <ele>981.8</ele>
        <time>2021-08-20T13:09:56Z</time>
      </trkpt>
      <trkpt lat="46.00159" lon="5.74756">
        <ele>981.8</ele>
        <time>2021-08-20T13:09:58Z</time>
      </trkpt>
      <trkpt lat="46.0015" lon="5.74762">
        <ele>981.6</ele>
        <time>2021-08-20T13:10:00Z</time>
      </trkpt>
      <trkpt lat="46.0014" lon="5.74763">
        <ele>981.3</ele>
        <time>2021-08-20T13:10:02Z</time>
      </trkpt>
      <trkpt lat="46.0013" lon="5.74767">
        <ele>980.8</ele>
        <time>2021-08-20T13:10:04Z</time>
      </trkpt>
      <trkpt lat="46.00125" lon="5.74769">
        <ele>980.6</ele>
        <time>2021-08-20T13:10:05Z</time>
      </trkpt>
      <trkpt lat="46.00114" lon="5.74773">
        <ele>980</ele>
        <time>2021-08-20T13:10:07Z</time>
      </trkpt>
      <trkpt lat="46.00108" lon="5.74775">
        <ele>979.8</ele>
        <time>2021-08-20T13:10:08Z</time>
      </trkpt>
      <trkpt lat="46.00095" lon="5.74775">
        <ele>979.2</ele>
        <time>2021-08-20T13:10:10Z</time>
      </trkpt>
      <trkpt lat="46.00089" lon="5.74773">
        <ele>978.9</ele>
        <time>2021-08-20T13:10:11Z</time>
      </trkpt>
      <trkpt lat="46.00083" lon="5.74772">
        <ele>978.7</ele>
        <time>2021-08-20T13:10:12Z</time>
      </trkpt>
      <trkpt lat="46.00071" lon="5.7477">
        <ele>978.2</ele>
        <time>2021-08-20T13:10:14Z</time>
      </trkpt>
      <trkpt lat="46.00059" lon="5.7477">
        <ele>977.8</ele>
        <time>2021-08-20T13:10:16Z</time>
      </trkpt>
      <trkpt lat="46.00053" lon="5.74772">
        <ele>977.6</ele>
        <time>2021-08-20T13:10:17Z</time>
      </trkpt>
      <trkpt lat="46.00042" lon="5.74778">
        <ele>977.3</ele>
        <time>2021-08-20T13:10:19Z</time>
      </trkpt>
      <trkpt lat="46.00038" lon="5.74782">
        <ele>977.2</ele>
        <time>2021-08-20T13:10:20Z</time>
      </trkpt>
      <trkpt lat="46.0003" lon="5.74788">
        <ele>977</ele>
        <time>2021-08-20T13:10:22Z</time>
      </trkpt>
      <trkpt lat="46.00026" lon="5.74792">
        <ele>976.9</ele>
        <time>2021-08-20T13:10:23Z</time>
      </trkpt>
      <trkpt lat="46.00016" lon="5.74796">
        <ele>976.7</ele>
        <time>2021-08-20T13:10:25Z</time>
      </trkpt>
      <trkpt lat="46.00011" lon="5.74798">
        <ele>976.6</ele>
        <time>2021-08-20T13:10:26Z</time>
      </trkpt>
      <trkpt lat="46.00003" lon="5.74802">
        <ele>976.4</ele>
        <time>2021-08-20T13:10:28Z</time>
      </trkpt>
      <trkpt lat="46" lon="5.74804">
        <ele>976.4</ele>
        <time>2021-08-20T13:10:29Z</time>
      </trkpt>
      <trkpt lat="45.99996" lon="5.74807">
        <ele>976.3</ele>
        <time>2021-08-20T13:10:30Z</time>
      </trkpt>
      <trkpt lat="45.99987" lon="5.74815">
        <ele>976.1</ele>
        <time>2021-08-20T13:10:32Z</time>
      </trkpt>
      <trkpt lat="45.99982" lon="5.74821">
        <ele>975.9</ele>
        <time>2021-08-20T13:10:34Z</time>
      </trkpt>
      <trkpt lat="45.99979" lon="5.74824">
        <ele>975.9</ele>
        <time>2021-08-20T13:10:35Z</time>
      </trkpt>
      <trkpt lat="45.99974" lon="5.74827">
        <ele>975.8</ele>
        <time>2021-08-20T13:10:37Z</time>
      </trkpt>
      <trkpt lat="45.99971" lon="5.74831">
        <ele>975.7</ele>
        <time>2021-08-20T13:10:38Z</time>
      </trkpt>
      <trkpt lat="45.99967" lon="5.74835">
        <ele>975.6</ele>
        <time>2021-08-20T13:10:39Z</time>
      </trkpt>
      <trkpt lat="45.99963" lon="5.7484">
        <ele>975.5</ele>
        <time>2021-08-20T13:10:40Z</time>
      </trkpt>
      <trkpt lat="45.99958" lon="5.74843">
        <ele>975.4</ele>
        <time>2021-08-20T13:10:42Z</time>
      </trkpt>
      <trkpt lat="45.99955" lon="5.74846">
        <ele>975.4</ele>
        <time>2021-08-20T13:10:43Z</time>
      </trkpt>
      <trkpt lat="45.99954" lon="5.7485">
        <ele>975.3</ele>
        <time>2021-08-20T13:10:44Z</time>
      </trkpt>
      <trkpt lat="45.99952" lon="5.74856">
        <ele>975.3</ele>
        <time>2021-08-20T13:10:46Z</time>
      </trkpt>
      <trkpt lat="45.99951" lon="5.7486">
        <ele>975.3</ele>
        <time>2021-08-20T13:10:47Z</time>
      </trkpt>
      <trkpt lat="45.9995" lon="5.74862">
        <ele>975.2</ele>
        <time>2021-08-20T13:10:48Z</time>
      </trkpt>
      <trkpt lat="45.99945" lon="5.74865">
        <ele>975.2</ele>
        <time>2021-08-20T13:10:50Z</time>
      </trkpt>
      <trkpt lat="45.99945" lon="5.7487">
        <ele>975.2</ele>
        <time>2021-08-20T13:10:51Z</time>
      </trkpt>
      <trkpt lat="45.99945" lon="5.74872">
        <ele>975.2</ele>
        <time>2021-08-20T13:10:52Z</time>
      </trkpt>
      <trkpt lat="45.99945" lon="5.74876">
        <ele>975.2</ele>
        <time>2021-08-20T13:10:54Z</time>
      </trkpt>
      <trkpt lat="45.99944" lon="5.74883">
        <ele>975.1</ele>
        <time>2021-08-20T13:10:58Z</time>
      </trkpt>
      <trkpt lat="45.99942" lon="5.74889">
        <ele>975</ele>
        <time>2021-08-20T13:10:59Z</time>
      </trkpt>
      <trkpt lat="45.99935" lon="5.74896">
        <ele>974.9</ele>
        <time>2021-08-20T13:11:00Z</time>
      </trkpt>
      <trkpt lat="45.99929" lon="5.74901">
        <ele>974.7</ele>
        <time>2021-08-20T13:11:01Z</time>
      </trkpt>
      <trkpt lat="45.99923" lon="5.74905">
        <ele>974.6</ele>
        <time>2021-08-20T13:11:02Z</time>
      </trkpt>
      <trkpt lat="45.99905" lon="5.74909">
        <ele>974.4</ele>
        <time>2021-08-20T13:11:04Z</time>
      </trkpt>
      <trkpt lat="45.99898" lon="5.74913">
        <ele>974.3</ele>
        <time>2021-08-20T13:11:05Z</time>
      </trkpt>
      <trkpt lat="45.99893" lon="5.74917">
        <ele>974.3</ele>
        <time>2021-08-20T13:11:07Z</time>
      </trkpt>
      <trkpt lat="45.99888" lon="5.74922">
        <ele>974.2</ele>
        <time>2021-08-20T13:11:08Z</time>
      </trkpt>
      <trkpt lat="45.99883" lon="5.74927">
        <ele>974.2</ele>
        <time>2021-08-20T13:11:09Z</time>
      </trkpt>
      <trkpt lat="45.99879" lon="5.74932">
        <ele>974.2</ele>
        <time>2021-08-20T13:11:10Z</time>
      </trkpt>
      <trkpt lat="45.99875" lon="5.74936">
        <ele>974.2</ele>
        <time>2021-08-20T13:11:11Z</time>
      </trkpt>
      <trkpt lat="45.9987" lon="5.74941">
        <ele>974.2</ele>
        <time>2021-08-20T13:11:12Z</time>
      </trkpt>
      <trkpt lat="45.99864" lon="5.74945">
        <ele>974.2</ele>
        <time>2021-08-20T13:11:14Z</time>
      </trkpt>
      <trkpt lat="45.99859" lon="5.74948">
        <ele>974.2</ele>
        <time>2021-08-20T13:11:15Z</time>
      </trkpt>
      <trkpt lat="45.99854" lon="5.74951">
        <ele>974.2</ele>
        <time>2021-08-20T13:11:16Z</time>
      </trkpt>
      <trkpt lat="45.99849" lon="5.74954">
        <ele>974.2</ele>
        <time>2021-08-20T13:11:18Z</time>
      </trkpt>
      <trkpt lat="45.99845" lon="5.74956">
        <ele>974.1</ele>
        <time>2021-08-20T13:11:19Z</time>
      </trkpt>
      <trkpt lat="45.9984" lon="5.74958">
        <ele>974.1</ele>
        <time>2021-08-20T13:11:20Z</time>
      </trkpt>
      <trkpt lat="45.99834" lon="5.74963">
        <ele>974</ele>
        <time>2021-08-20T13:11:21Z</time>
      </trkpt>
      <trkpt lat="45.9983" lon="5.74965">
        <ele>974</ele>
        <time>2021-08-20T13:11:23Z</time>
      </trkpt>
      <trkpt lat="45.99823" lon="5.74968">
        <ele>973.9</ele>
        <time>2021-08-20T13:11:24Z</time>
      </trkpt>
      <trkpt lat="45.99814" lon="5.74973">
        <ele>973.8</ele>
        <time>2021-08-20T13:11:26Z</time>
      </trkpt>
      <trkpt lat="45.99807" lon="5.74978">
        <ele>973.7</ele>
        <time>2021-08-20T13:11:28Z</time>
      </trkpt>
      <trkpt lat="45.99804" lon="5.74981">
        <ele>973.7</ele>
        <time>2021-08-20T13:11:29Z</time>
      </trkpt>
      <trkpt lat="45.99801" lon="5.74984">
        <ele>973.6</ele>
        <time>2021-08-20T13:11:30Z</time>
      </trkpt>
      <trkpt lat="45.99798" lon="5.74988">
        <ele>973.6</ele>
        <time>2021-08-20T13:11:31Z</time>
      </trkpt>
      <trkpt lat="45.99795" lon="5.7499">
        <ele>973.5</ele>
        <time>2021-08-20T13:11:32Z</time>
      </trkpt>
      <trkpt lat="45.99792" lon="5.74992">
        <ele>973.5</ele>
        <time>2021-08-20T13:11:33Z</time>
      </trkpt>
      <trkpt lat="45.99787" lon="5.74997">
        <ele>973.5</ele>
        <time>2021-08-20T13:11:35Z</time>
      </trkpt>
      <trkpt lat="45.99784" lon="5.75">
        <ele>973.4</ele>
        <time>2021-08-20T13:11:36Z</time>
      </trkpt>
      <trkpt lat="45.9978" lon="5.75004">
        <ele>973.4</ele>
        <time>2021-08-20T13:11:37Z</time>
      </trkpt>
      <trkpt lat="45.99776" lon="5.75007">
        <ele>973.3</ele>
        <time>2021-08-20T13:11:38Z</time>
      </trkpt>
      <trkpt lat="45.99761" lon="5.75018">
        <ele>973.2</ele>
        <time>2021-08-20T13:11:40Z</time>
      </trkpt>
      <trkpt lat="45.99757" lon="5.75021">
        <ele>973.1</ele>
        <time>2021-08-20T13:11:41Z</time>
      </trkpt>
      <trkpt lat="45.99751" lon="5.75024">
        <ele>973.1</ele>
        <time>2021-08-20T13:11:43Z</time>
      </trkpt>
      <trkpt lat="45.99745" lon="5.75028">
        <ele>973</ele>
        <time>2021-08-20T13:11:44Z</time>
      </trkpt>
      <trkpt lat="45.99741" lon="5.75031">
        <ele>972.9</ele>
        <time>2021-08-20T13:11:45Z</time>
      </trkpt>
      <trkpt lat="45.99736" lon="5.75036">
        <ele>972.9</ele>
        <time>2021-08-20T13:11:46Z</time>
      </trkpt>
      <trkpt lat="45.99732" lon="5.75043">
        <ele>972.8</ele>
        <time>2021-08-20T13:11:48Z</time>
      </trkpt>
      <trkpt lat="45.99728" lon="5.75052">
        <ele>972.8</ele>
        <time>2021-08-20T13:11:50Z</time>
      </trkpt>
      <trkpt lat="45.99725" lon="5.75058">
        <ele>972.7</ele>
        <time>2021-08-20T13:11:51Z</time>
      </trkpt>
      <trkpt lat="45.99723" lon="5.75064">
        <ele>972.7</ele>
        <time>2021-08-20T13:11:52Z</time>
      </trkpt>
      <trkpt lat="45.99724" lon="5.75068">
        <ele>972.7</ele>
        <time>2021-08-20T13:11:53Z</time>
      </trkpt>
      <trkpt lat="45.99723" lon="5.75074">
        <ele>972.7</ele>
        <time>2021-08-20T13:11:55Z</time>
      </trkpt>
      <trkpt lat="45.99723" lon="5.75076">
        <ele>972.7</ele>
        <time>2021-08-20T13:11:56Z</time>
      </trkpt>
      <trkpt lat="45.99723" lon="5.75077">
        <ele>972.7</ele>
        <time>2021-08-20T13:11:57Z</time>
      </trkpt>
      <trkpt lat="45.99722" lon="5.75082">
        <ele>972.6</ele>
        <time>2021-08-20T13:11:58Z</time>
      </trkpt>
      <trkpt lat="45.99722" lon="5.75084">
        <ele>972.6</ele>
        <time>2021-08-20T13:11:59Z</time>
      </trkpt>
      <trkpt lat="45.99721" lon="5.75087">
        <ele>972.6</ele>
        <time>2021-08-20T13:12:00Z</time>
      </trkpt>
      <trkpt lat="45.9972" lon="5.75089">
        <ele>972.6</ele>
        <time>2021-08-20T13:12:02Z</time>
      </trkpt>
      <trkpt lat="45.99719" lon="5.75091">
        <ele>972.6</ele>
        <time>2021-08-20T13:12:03Z</time>
      </trkpt>
      <trkpt lat="45.99718" lon="5.75094">
        <ele>972.6</ele>
        <time>2021-08-20T13:12:04Z</time>
      </trkpt>
      <trkpt lat="45.99712" lon="5.75101">
        <ele>972.5</ele>
        <time>2021-08-20T13:12:06Z</time>
      </trkpt>
      <trkpt lat="45.99706" lon="5.7511">
        <ele>972.5</ele>
        <time>2021-08-20T13:12:08Z</time>
      </trkpt>
      <trkpt lat="45.99701" lon="5.75118">
        <ele>972.4</ele>
        <time>2021-08-20T13:12:09Z</time>
      </trkpt>
      <trkpt lat="45.9968" lon="5.75136">
        <ele>972.1</ele>
        <time>2021-08-20T13:12:10Z</time>
      </trkpt>
      <trkpt lat="45.99677" lon="5.75138">
        <ele>972.1</ele>
        <time>2021-08-20T13:12:12Z</time>
      </trkpt>
      <trkpt lat="45.9967" lon="5.75138">
        <ele>972</ele>
        <time>2021-08-20T13:12:13Z</time>
      </trkpt>
      <trkpt lat="45.99665" lon="5.75139">
        <ele>972</ele>
        <time>2021-08-20T13:12:14Z</time>
      </trkpt>
      <trkpt lat="45.99654" lon="5.75141">
        <ele>971.9</ele>
        <time>2021-08-20T13:12:16Z</time>
      </trkpt>
      <trkpt lat="45.99651" lon="5.75139">
        <ele>971.8</ele>
        <time>2021-08-20T13:12:17Z</time>
      </trkpt>
      <trkpt lat="45.99645" lon="5.75135">
        <ele>971.8</ele>
        <time>2021-08-20T13:12:19Z</time>
      </trkpt>
      <trkpt lat="45.99642" lon="5.75134">
        <ele>971.7</ele>
        <time>2021-08-20T13:12:20Z</time>
      </trkpt>
      <trkpt lat="45.99638" lon="5.75131">
        <ele>971.7</ele>
        <time>2021-08-20T13:12:22Z</time>
      </trkpt>
      <trkpt lat="45.99637" lon="5.7513">
        <ele>971.6</ele>
        <time>2021-08-20T13:12:23Z</time>
      </trkpt>
      <trkpt lat="45.99635" lon="5.75124">
        <ele>971.6</ele>
        <time>2021-08-20T13:12:25Z</time>
      </trkpt>
      <trkpt lat="45.99635" lon="5.75122">
        <ele>971.6</ele>
        <time>2021-08-20T13:12:26Z</time>
      </trkpt>
      <trkpt lat="45.99631" lon="5.75117">
        <ele>971.5</ele>
        <time>2021-08-20T13:12:32Z</time>
      </trkpt>
      <trkpt lat="45.99628" lon="5.75119">
        <ele>971.5</ele>
        <time>2021-08-20T13:12:33Z</time>
      </trkpt>
      <trkpt lat="45.99621" lon="5.75118">
        <ele>971.5</ele>
        <time>2021-08-20T13:12:35Z</time>
      </trkpt>
      <trkpt lat="45.99615" lon="5.7512">
        <ele>971.4</ele>
        <time>2021-08-20T13:12:36Z</time>
      </trkpt>
      <trkpt lat="45.99608" lon="5.75124">
        <ele>971.4</ele>
        <time>2021-08-20T13:12:37Z</time>
      </trkpt>
      <trkpt lat="45.99602" lon="5.75128">
        <ele>971.4</ele>
        <time>2021-08-20T13:12:38Z</time>
      </trkpt>
      <trkpt lat="45.99595" lon="5.75132">
        <ele>971.3</ele>
        <time>2021-08-20T13:12:40Z</time>
      </trkpt>
      <trkpt lat="45.9959" lon="5.75137">
        <ele>971.3</ele>
        <time>2021-08-20T13:12:41Z</time>
      </trkpt>
      <trkpt lat="45.99586" lon="5.75141">
        <ele>971.2</ele>
        <time>2021-08-20T13:12:42Z</time>
      </trkpt>
      <trkpt lat="45.9958" lon="5.75148">
        <ele>971.2</ele>
        <time>2021-08-20T13:12:43Z</time>
      </trkpt>
      <trkpt lat="45.99574" lon="5.75153">
        <ele>971.2</ele>
        <time>2021-08-20T13:12:45Z</time>
      </trkpt>
      <trkpt lat="45.9957" lon="5.75156">
        <ele>971.2</ele>
        <time>2021-08-20T13:12:46Z</time>
      </trkpt>
      <trkpt lat="45.99566" lon="5.75159">
        <ele>971.1</ele>
        <time>2021-08-20T13:12:47Z</time>
      </trkpt>
      <trkpt lat="45.99561" lon="5.75162">
        <ele>971.1</ele>
        <time>2021-08-20T13:12:48Z</time>
      </trkpt>
      <trkpt lat="45.99554" lon="5.75166">
        <ele>971.1</ele>
        <time>2021-08-20T13:12:50Z</time>
      </trkpt>
      <trkpt lat="45.99551" lon="5.75169">
        <ele>971</ele>
        <time>2021-08-20T13:12:51Z</time>
      </trkpt>
      <trkpt lat="45.99546" lon="5.75172">
        <ele>971</ele>
        <time>2021-08-20T13:12:52Z</time>
      </trkpt>
      <trkpt lat="45.99533" lon="5.75172">
        <ele>970.9</ele>
        <time>2021-08-20T13:12:54Z</time>
      </trkpt>
      <trkpt lat="45.99524" lon="5.75178">
        <ele>970.8</ele>
        <time>2021-08-20T13:12:56Z</time>
      </trkpt>
      <trkpt lat="45.9952" lon="5.7518">
        <ele>970.7</ele>
        <time>2021-08-20T13:12:57Z</time>
      </trkpt>
      <trkpt lat="45.99516" lon="5.75184">
        <ele>970.7</ele>
        <time>2021-08-20T13:12:59Z</time>
      </trkpt>
      <trkpt lat="45.99513" lon="5.75189">
        <ele>970.6</ele>
        <time>2021-08-20T13:13:00Z</time>
      </trkpt>
      <trkpt lat="45.9951" lon="5.75193">
        <ele>970.6</ele>
        <time>2021-08-20T13:13:01Z</time>
      </trkpt>
      <trkpt lat="45.99508" lon="5.75198">
        <ele>970.6</ele>
        <time>2021-08-20T13:13:02Z</time>
      </trkpt>
      <trkpt lat="45.99505" lon="5.75201">
        <ele>970.5</ele>
        <time>2021-08-20T13:13:03Z</time>
      </trkpt>
      <trkpt lat="45.99502" lon="5.75203">
        <ele>970.5</ele>
        <time>2021-08-20T13:13:04Z</time>
      </trkpt>
      <trkpt lat="45.995" lon="5.75207">
        <ele>970.5</ele>
        <time>2021-08-20T13:13:05Z</time>
      </trkpt>
      <trkpt lat="45.995" lon="5.75209">
        <ele>970.5</ele>
        <time>2021-08-20T13:13:06Z</time>
      </trkpt>
      <trkpt lat="45.99498" lon="5.75213">
        <ele>970.4</ele>
        <time>2021-08-20T13:13:08Z</time>
      </trkpt>
      <trkpt lat="45.99495" lon="5.75215">
        <ele>970.4</ele>
        <time>2021-08-20T13:13:09Z</time>
      </trkpt>
      <trkpt lat="45.99494" lon="5.75216">
        <ele>970.4</ele>
        <time>2021-08-20T13:13:10Z</time>
      </trkpt>
      <trkpt lat="45.9949" lon="5.75213">
        <ele>970.3</ele>
        <time>2021-08-20T13:13:12Z</time>
      </trkpt>
      <trkpt lat="45.99486" lon="5.75207">
        <ele>970.2</ele>
        <time>2021-08-20T13:13:14Z</time>
      </trkpt>
      <trkpt lat="45.99481" lon="5.75199">
        <ele>970.6</ele>
        <time>2021-08-20T13:13:15Z</time>
      </trkpt>
      <trkpt lat="45.99481" lon="5.75195">
        <ele>970.8</ele>
        <time>2021-08-20T13:13:16Z</time>
      </trkpt>
      <trkpt lat="45.99481" lon="5.75183">
        <ele>971.2</ele>
        <time>2021-08-20T13:13:18Z</time>
      </trkpt>
      <trkpt lat="45.99483" lon="5.75177">
        <ele>971.4</ele>
        <time>2021-08-20T13:13:20Z</time>
      </trkpt>
      <trkpt lat="45.99483" lon="5.75175">
        <ele>971.5</ele>
        <time>2021-08-20T13:13:22Z</time>
      </trkpt>
      <trkpt lat="45.99484" lon="5.75172">
        <ele>971.5</ele>
        <time>2021-08-20T13:13:23Z</time>
      </trkpt>
      <trkpt lat="45.99485" lon="5.7517">
        <ele>971.6</ele>
        <time>2021-08-20T13:13:24Z</time>
      </trkpt>
      <trkpt lat="45.99485" lon="5.75165">
        <ele>971.8</ele>
        <time>2021-08-20T13:13:25Z</time>
      </trkpt>
      <trkpt lat="45.99485" lon="5.75165">
        <ele>971.8</ele>
        <time>2021-08-20T13:13:25Z</time>
      </trkpt>
      <trkpt lat="45.99486" lon="5.75159">
        <ele>971.9</ele>
        <time>2021-08-20T13:13:26Z</time>
      </trkpt>
      <trkpt lat="45.99488" lon="5.7515">
        <ele>972.2</ele>
        <time>2021-08-20T13:13:28Z</time>
      </trkpt>
      <trkpt lat="45.99491" lon="5.7514">
        <ele>972.5</ele>
        <time>2021-08-20T13:13:29Z</time>
      </trkpt>
      <trkpt lat="45.99496" lon="5.75129">
        <ele>972.8</ele>
        <time>2021-08-20T13:13:31Z</time>
      </trkpt>
      <trkpt lat="45.99499" lon="5.75121">
        <ele>973.1</ele>
        <time>2021-08-20T13:13:32Z</time>
      </trkpt>
      <trkpt lat="45.99501" lon="5.75111">
        <ele>973.4</ele>
        <time>2021-08-20T13:13:33Z</time>
      </trkpt>
      <trkpt lat="45.99503" lon="5.75096">
        <ele>973.7</ele>
        <time>2021-08-20T13:13:35Z</time>
      </trkpt>
      <trkpt lat="45.99503" lon="5.75088">
        <ele>974</ele>
        <time>2021-08-20T13:13:36Z</time>
      </trkpt>
      <trkpt lat="45.99505" lon="5.75076">
        <ele>974.3</ele>
        <time>2021-08-20T13:13:37Z</time>
      </trkpt>
      <trkpt lat="45.99506" lon="5.75067">
        <ele>974.6</ele>
        <time>2021-08-20T13:13:38Z</time>
      </trkpt>
      <trkpt lat="45.99505" lon="5.75052">
        <ele>975.1</ele>
        <time>2021-08-20T13:13:40Z</time>
      </trkpt>
      <trkpt lat="45.99507" lon="5.75044">
        <ele>975.4</ele>
        <time>2021-08-20T13:13:42Z</time>
      </trkpt>
      <trkpt lat="45.99506" lon="5.75029">
        <ele>975.8</ele>
        <time>2021-08-20T13:13:43Z</time>
      </trkpt>
      <trkpt lat="45.99506" lon="5.75013">
        <ele>976.3</ele>
        <time>2021-08-20T13:13:45Z</time>
      </trkpt>
      <trkpt lat="45.99504" lon="5.75005">
        <ele>976.5</ele>
        <time>2021-08-20T13:13:46Z</time>
      </trkpt>
      <trkpt lat="45.99504" lon="5.74998">
        <ele>976.7</ele>
        <time>2021-08-20T13:13:47Z</time>
      </trkpt>
      <trkpt lat="45.99503" lon="5.7499">
        <ele>976.9</ele>
        <time>2021-08-20T13:13:48Z</time>
      </trkpt>
      <trkpt lat="45.99499" lon="5.74975">
        <ele>977.4</ele>
        <time>2021-08-20T13:13:50Z</time>
      </trkpt>
      <trkpt lat="45.99496" lon="5.74958">
        <ele>977.9</ele>
        <time>2021-08-20T13:13:52Z</time>
      </trkpt>
      <trkpt lat="45.99493" lon="5.74942">
        <ele>978.4</ele>
        <time>2021-08-20T13:13:54Z</time>
      </trkpt>
      <trkpt lat="45.99487" lon="5.74931">
        <ele>978.9</ele>
        <time>2021-08-20T13:13:56Z</time>
      </trkpt>
      <trkpt lat="45.99479" lon="5.74926">
        <ele>978.9</ele>
        <time>2021-08-20T13:13:58Z</time>
      </trkpt>
      <trkpt lat="45.99474" lon="5.74924">
        <ele>978.8</ele>
        <time>2021-08-20T13:13:59Z</time>
      </trkpt>
      <trkpt lat="45.99468" lon="5.74923">
        <ele>978.7</ele>
        <time>2021-08-20T13:14:00Z</time>
      </trkpt>
      <trkpt lat="45.99458" lon="5.74922">
        <ele>978.7</ele>
        <time>2021-08-20T13:14:02Z</time>
      </trkpt>
      <trkpt lat="45.99459" lon="5.74928">
        <ele>978.7</ele>
        <time>2021-08-20T13:14:04Z</time>
      </trkpt>
      <trkpt lat="45.99453" lon="5.74929">
        <ele>978.7</ele>
        <time>2021-08-20T13:14:05Z</time>
      </trkpt>
      <trkpt lat="45.99449" lon="5.74931">
        <ele>978.8</ele>
        <time>2021-08-20T13:14:07Z</time>
      </trkpt>
      <trkpt lat="45.99445" lon="5.74933">
        <ele>978.8</ele>
        <time>2021-08-20T13:14:08Z</time>
      </trkpt>
      <trkpt lat="45.99443" lon="5.74935">
        <ele>978.9</ele>
        <time>2021-08-20T13:14:10Z</time>
      </trkpt>
      <trkpt lat="45.99442" lon="5.74937">
        <ele>978.9</ele>
        <time>2021-08-20T13:14:11Z</time>
      </trkpt>
      <trkpt lat="45.99441" lon="5.74938">
        <ele>978.9</ele>
        <time>2021-08-20T13:14:12Z</time>
      </trkpt>
      <trkpt lat="45.99441" lon="5.74941">
        <ele>979</ele>
        <time>2021-08-20T13:14:14Z</time>
      </trkpt>
      <trkpt lat="45.99444" lon="5.74949">
        <ele>979.2</ele>
        <time>2021-08-20T13:14:19Z</time>
      </trkpt>
      <trkpt lat="45.99444" lon="5.74953">
        <ele>979.3</ele>
        <time>2021-08-20T13:14:20Z</time>
      </trkpt>
      <trkpt lat="45.99447" lon="5.74959">
        <ele>979.5</ele>
        <time>2021-08-20T13:14:22Z</time>
      </trkpt>
      <trkpt lat="45.9945" lon="5.74964">
        <ele>979.6</ele>
        <time>2021-08-20T13:14:23Z</time>
      </trkpt>
      <trkpt lat="45.99452" lon="5.74969">
        <ele>979.8</ele>
        <time>2021-08-20T13:14:24Z</time>
      </trkpt>
      <trkpt lat="45.99454" lon="5.74979">
        <ele>980.2</ele>
        <time>2021-08-20T13:14:26Z</time>
      </trkpt>
      <trkpt lat="45.99454" lon="5.74982">
        <ele>980.3</ele>
        <time>2021-08-20T13:14:28Z</time>
      </trkpt>
      <trkpt lat="45.99453" lon="5.74983">
        <ele>980.4</ele>
        <time>2021-08-20T13:14:29Z</time>
      </trkpt>
      <trkpt lat="45.99452" lon="5.74983">
        <ele>980.4</ele>
        <time>2021-08-20T13:14:30Z</time>
      </trkpt>
      <trkpt lat="45.99452" lon="5.74985">
        <ele>980.5</ele>
        <time>2021-08-20T13:14:32Z</time>
      </trkpt>
      <trkpt lat="45.99451" lon="5.74986">
        <ele>980.6</ele>
        <time>2021-08-20T13:14:33Z</time>
      </trkpt>
      <trkpt lat="45.9945" lon="5.74987">
        <ele>980.6</ele>
        <time>2021-08-20T13:14:34Z</time>
      </trkpt>
      <trkpt lat="45.99449" lon="5.74988">
        <ele>980.7</ele>
        <time>2021-08-20T13:14:35Z</time>
      </trkpt>
      <trkpt lat="45.99447" lon="5.74989">
        <ele>980.9</ele>
        <time>2021-08-20T13:14:37Z</time>
      </trkpt>
      <trkpt lat="45.99362" lon="5.74926">
        <ele>989</ele>
        <time>2021-08-20T13:16:06Z</time>
      </trkpt>
      <trkpt lat="45.99361" lon="5.74926">
        <ele>989.2</ele>
        <time>2021-08-20T13:16:07Z</time>
      </trkpt>
      <trkpt lat="45.9936" lon="5.74926">
        <ele>989.2</ele>
        <time>2021-08-20T13:16:09Z</time>
      </trkpt>
      <trkpt lat="45.99359" lon="5.74926">
        <ele>989.3</ele>
        <time>2021-08-20T13:16:10Z</time>
      </trkpt>
      <trkpt lat="45.99359" lon="5.74927">
        <ele>989.4</ele>
        <time>2021-08-20T13:16:11Z</time>
      </trkpt>
      <trkpt lat="45.99359" lon="5.74927">
        <ele>989.4</ele>
        <time>2021-08-20T13:16:13Z</time>
      </trkpt>
      <trkpt lat="45.99359" lon="5.74927">
        <ele>989.4</ele>
        <time>2021-08-20T13:16:14Z</time>
      </trkpt>
      <trkpt lat="45.99358" lon="5.74927">
        <ele>989.4</ele>
        <time>2021-08-20T13:16:15Z</time>
      </trkpt>
      <trkpt lat="45.99358" lon="5.74927">
        <ele>989.5</ele>
        <time>2021-08-20T13:16:17Z</time>
      </trkpt>
      <trkpt lat="45.99359" lon="5.74927">
        <ele>989.5</ele>
        <time>2021-08-20T13:16:18Z</time>
      </trkpt>
      <trkpt lat="45.99359" lon="5.74927">
        <ele>989.5</ele>
        <time>2021-08-20T13:16:20Z</time>
      </trkpt>
      <trkpt lat="45.99359" lon="5.74927">
        <ele>989.5</ele>
        <time>2021-08-20T13:16:21Z</time>
      </trkpt>
      <trkpt lat="45.99359" lon="5.74928">
        <ele>989.6</ele>
        <time>2021-08-20T13:16:23Z</time>
      </trkpt>
      <trkpt lat="45.99359" lon="5.7493">
        <ele>989.8</ele>
        <time>2021-08-20T13:16:24Z</time>
      </trkpt>
      <trkpt lat="45.99359" lon="5.74933">
        <ele>990.1</ele>
        <time>2021-08-20T13:16:26Z</time>
      </trkpt>
      <trkpt lat="45.99359" lon="5.74934">
        <ele>990.2</ele>
        <time>2021-08-20T13:16:27Z</time>
      </trkpt>
      <trkpt lat="45.99359" lon="5.74936">
        <ele>990.3</ele>
        <time>2021-08-20T13:16:29Z</time>
      </trkpt>
      <trkpt lat="45.9936" lon="5.74937">
        <ele>990.4</ele>
        <time>2021-08-20T13:16:30Z</time>
      </trkpt>
      <trkpt lat="45.9936" lon="5.74938">
        <ele>990.5</ele>
        <time>2021-08-20T13:16:32Z</time>
      </trkpt>
      <trkpt lat="45.9936" lon="5.74939">
        <ele>990.5</ele>
        <time>2021-08-20T13:16:33Z</time>
      </trkpt>
      <trkpt lat="45.9936" lon="5.7494">
        <ele>990.6</ele>
        <time>2021-08-20T13:16:35Z</time>
      </trkpt>
      <trkpt lat="45.99359" lon="5.74941">
        <ele>990.8</ele>
        <time>2021-08-20T13:16:36Z</time>
      </trkpt>
      <trkpt lat="45.99358" lon="5.74942">
        <ele>990.9</ele>
        <time>2021-08-20T13:16:37Z</time>
      </trkpt>
      <trkpt lat="45.99355" lon="5.74944">
        <ele>991.4</ele>
        <time>2021-08-20T13:16:39Z</time>
      </trkpt>
      <trkpt lat="45.99354" lon="5.74945">
        <ele>991.5</ele>
        <time>2021-08-20T13:16:40Z</time>
      </trkpt>
      <trkpt lat="45.99353" lon="5.74946">
        <ele>991.8</ele>
        <time>2021-08-20T13:16:41Z</time>
      </trkpt>
      <trkpt lat="45.99352" lon="5.74947">
        <ele>991.9</ele>
        <time>2021-08-20T13:16:43Z</time>
      </trkpt>
      <trkpt lat="45.99351" lon="5.74948">
        <ele>992.1</ele>
        <time>2021-08-20T13:16:44Z</time>
      </trkpt>
      <trkpt lat="45.99349" lon="5.74949">
        <ele>992.2</ele>
        <time>2021-08-20T13:16:45Z</time>
      </trkpt>
      <trkpt lat="45.99348" lon="5.74949">
        <ele>992.4</ele>
        <time>2021-08-20T13:16:46Z</time>
      </trkpt>
      <trkpt lat="45.99347" lon="5.7495">
        <ele>992.7</ele>
        <time>2021-08-20T13:16:48Z</time>
      </trkpt>
      <trkpt lat="45.99344" lon="5.7495">
        <ele>993</ele>
        <time>2021-08-20T13:16:49Z</time>
      </trkpt>
      <trkpt lat="45.99343" lon="5.7495">
        <ele>993.2</ele>
        <time>2021-08-20T13:16:50Z</time>
      </trkpt>
      <trkpt lat="45.9934" lon="5.74949">
        <ele>993.6</ele>
        <time>2021-08-20T13:16:52Z</time>
      </trkpt>
      <trkpt lat="45.99339" lon="5.74949">
        <ele>993.8</ele>
        <time>2021-08-20T13:16:53Z</time>
      </trkpt>
      <trkpt lat="45.99338" lon="5.74949">
        <ele>993.9</ele>
        <time>2021-08-20T13:16:55Z</time>
      </trkpt>
      <trkpt lat="45.99337" lon="5.74948">
        <ele>994</ele>
        <time>2021-08-20T13:16:56Z</time>
      </trkpt>
      <trkpt lat="45.99337" lon="5.74948">
        <ele>994.1</ele>
        <time>2021-08-20T13:16:57Z</time>
      </trkpt>
      <trkpt lat="45.99337" lon="5.74948">
        <ele>994.1</ele>
        <time>2021-08-20T13:16:58Z</time>
      </trkpt>
      <trkpt lat="45.99336" lon="5.74948">
        <ele>994.1</ele>
        <time>2021-08-20T13:17:00Z</time>
      </trkpt>
      <trkpt lat="45.99336" lon="5.74948">
        <ele>994.2</ele>
        <time>2021-08-20T13:17:01Z</time>
      </trkpt>
      <trkpt lat="45.99336" lon="5.74948">
        <ele>994.2</ele>
        <time>2021-08-20T13:17:02Z</time>
      </trkpt>
      <trkpt lat="45.99336" lon="5.74948">
        <ele>994.2</ele>
        <time>2021-08-20T13:17:04Z</time>
      </trkpt>
      <trkpt lat="45.99336" lon="5.74948">
        <ele>994.2</ele>
        <time>2021-08-20T13:17:05Z</time>
      </trkpt>
      <trkpt lat="45.99336" lon="5.74948">
        <ele>994.3</ele>
        <time>2021-08-20T13:17:06Z</time>
      </trkpt>
      <trkpt lat="45.99335" lon="5.74948">
        <ele>994.3</ele>
        <time>2021-08-20T13:17:08Z</time>
      </trkpt>
      <trkpt lat="45.99334" lon="5.74948">
        <ele>994.5</ele>
        <time>2021-08-20T13:17:09Z</time>
      </trkpt>
      <trkpt lat="45.99332" lon="5.74949">
        <ele>994.8</ele>
        <time>2021-08-20T13:17:10Z</time>
      </trkpt>
      <trkpt lat="45.99331" lon="5.7495">
        <ele>995</ele>
        <time>2021-08-20T13:17:11Z</time>
      </trkpt>
      <trkpt lat="45.9933" lon="5.7495">
        <ele>995.2</ele>
        <time>2021-08-20T13:17:12Z</time>
      </trkpt>
      <trkpt lat="45.99328" lon="5.7495">
        <ele>995.4</ele>
        <time>2021-08-20T13:17:14Z</time>
      </trkpt>
      <trkpt lat="45.99327" lon="5.7495">
        <ele>995.5</ele>
        <time>2021-08-20T13:17:16Z</time>
      </trkpt>
      <trkpt lat="45.99327" lon="5.74951">
        <ele>995.6</ele>
        <time>2021-08-20T13:17:17Z</time>
      </trkpt>
      <trkpt lat="45.99326" lon="5.74951">
        <ele>995.7</ele>
        <time>2021-08-20T13:17:18Z</time>
      </trkpt>
      <trkpt lat="45.99326" lon="5.74951">
        <ele>995.7</ele>
        <time>2021-08-20T13:17:19Z</time>
      </trkpt>
      <trkpt lat="45.99326" lon="5.74951">
        <ele>995.8</ele>
        <time>2021-08-20T13:17:20Z</time>
      </trkpt>
      <trkpt lat="45.99325" lon="5.74951">
        <ele>995.9</ele>
        <time>2021-08-20T13:17:22Z</time>
      </trkpt>
      <trkpt lat="45.99325" lon="5.74951">
        <ele>995.9</ele>
        <time>2021-08-20T13:17:23Z</time>
      </trkpt>
      <trkpt lat="45.99323" lon="5.7495">
        <ele>996.2</ele>
        <time>2021-08-20T13:17:25Z</time>
      </trkpt>
      <trkpt lat="45.99321" lon="5.74949">
        <ele>996.4</ele>
        <time>2021-08-20T13:17:26Z</time>
      </trkpt>
      <trkpt lat="45.99318" lon="5.74946">
        <ele>997</ele>
        <time>2021-08-20T13:17:28Z</time>
      </trkpt>
      <trkpt lat="45.99315" lon="5.74944">
        <ele>997.4</ele>
        <time>2021-08-20T13:17:29Z</time>
      </trkpt>
      <trkpt lat="45.99314" lon="5.74943">
        <ele>997.5</ele>
        <time>2021-08-20T13:17:30Z</time>
      </trkpt>
      <trkpt lat="45.99312" lon="5.74941">
        <ele>997.9</ele>
        <time>2021-08-20T13:17:32Z</time>
      </trkpt>
      <trkpt lat="45.99311" lon="5.74941">
        <ele>998</ele>
        <time>2021-08-20T13:17:33Z</time>
      </trkpt>
      <trkpt lat="45.9931" lon="5.7494">
        <ele>998.2</ele>
        <time>2021-08-20T13:17:34Z</time>
      </trkpt>
      <trkpt lat="45.99309" lon="5.74939">
        <ele>998.4</ele>
        <time>2021-08-20T13:17:35Z</time>
      </trkpt>
      <trkpt lat="45.99308" lon="5.74939">
        <ele>998.4</ele>
        <time>2021-08-20T13:17:36Z</time>
      </trkpt>
      <trkpt lat="45.99307" lon="5.74939">
        <ele>998.6</ele>
        <time>2021-08-20T13:17:38Z</time>
      </trkpt>
      <trkpt lat="45.99306" lon="5.74939">
        <ele>998.7</ele>
        <time>2021-08-20T13:17:40Z</time>
      </trkpt>
      <trkpt lat="45.99306" lon="5.74939">
        <ele>998.7</ele>
        <time>2021-08-20T13:17:41Z</time>
      </trkpt>
      <trkpt lat="45.99306" lon="5.74939">
        <ele>998.8</ele>
        <time>2021-08-20T13:17:43Z</time>
      </trkpt>
      <trkpt lat="45.99306" lon="5.74939">
        <ele>998.8</ele>
        <time>2021-08-20T13:17:44Z</time>
      </trkpt>
      <trkpt lat="45.99305" lon="5.74939">
        <ele>998.8</ele>
        <time>2021-08-20T13:17:46Z</time>
      </trkpt>
      <trkpt lat="45.99305" lon="5.74939">
        <ele>998.8</ele>
        <time>2021-08-20T13:17:48Z</time>
      </trkpt>
      <trkpt lat="45.99305" lon="5.7494">
        <ele>998.9</ele>
        <time>2021-08-20T13:17:49Z</time>
      </trkpt>
      <trkpt lat="45.99304" lon="5.74941">
        <ele>999.1</ele>
        <time>2021-08-20T13:17:50Z</time>
      </trkpt>
      <trkpt lat="45.99303" lon="5.74942">
        <ele>999.2</ele>
        <time>2021-08-20T13:17:51Z</time>
      </trkpt>
      <trkpt lat="45.99302" lon="5.74944">
        <ele>999.5</ele>
        <time>2021-08-20T13:17:52Z</time>
      </trkpt>
      <trkpt lat="45.99301" lon="5.74946">
        <ele>999.7</ele>
        <time>2021-08-20T13:17:54Z</time>
      </trkpt>
      <trkpt lat="45.993" lon="5.74947">
        <ele>999.8</ele>
        <time>2021-08-20T13:17:55Z</time>
      </trkpt>
      <trkpt lat="45.993" lon="5.74948">
        <ele>999.9</ele>
        <time>2021-08-20T13:17:56Z</time>
      </trkpt>
      <trkpt lat="45.99299" lon="5.74948">
        <ele>1000</ele>
        <time>2021-08-20T13:17:57Z</time>
      </trkpt>
      <trkpt lat="45.99299" lon="5.74949">
        <ele>1000.1</ele>
        <time>2021-08-20T13:17:59Z</time>
      </trkpt>
      <trkpt lat="45.99298" lon="5.7495">
        <ele>1000.2</ele>
        <time>2021-08-20T13:18:00Z</time>
      </trkpt>
      <trkpt lat="45.99297" lon="5.74951">
        <ele>1000.4</ele>
        <time>2021-08-20T13:18:01Z</time>
      </trkpt>
      <trkpt lat="45.99295" lon="5.74953">
        <ele>1000.7</ele>
        <time>2021-08-20T13:18:03Z</time>
      </trkpt>
      <trkpt lat="45.99294" lon="5.74954">
        <ele>1000.9</ele>
        <time>2021-08-20T13:18:04Z</time>
      </trkpt>
      <trkpt lat="45.99293" lon="5.74955">
        <ele>1001.1</ele>
        <time>2021-08-20T13:18:05Z</time>
      </trkpt>
      <trkpt lat="45.99292" lon="5.74956">
        <ele>1001.2</ele>
        <time>2021-08-20T13:18:07Z</time>
      </trkpt>
      <trkpt lat="45.99291" lon="5.74957">
        <ele>1001.3</ele>
        <time>2021-08-20T13:18:08Z</time>
      </trkpt>
      <trkpt lat="45.99291" lon="5.74957">
        <ele>1001.4</ele>
        <time>2021-08-20T13:18:10Z</time>
      </trkpt>
      <trkpt lat="45.9929" lon="5.74957">
        <ele>1001.4</ele>
        <time>2021-08-20T13:18:12Z</time>
      </trkpt>
      <trkpt lat="45.9929" lon="5.74957">
        <ele>1001.5</ele>
        <time>2021-08-20T13:18:13Z</time>
      </trkpt>
      <trkpt lat="45.9929" lon="5.74957">
        <ele>1001.5</ele>
        <time>2021-08-20T13:18:14Z</time>
      </trkpt>
      <trkpt lat="45.9929" lon="5.74958">
        <ele>1001.5</ele>
        <time>2021-08-20T13:18:16Z</time>
      </trkpt>
      <trkpt lat="45.9929" lon="5.74958">
        <ele>1001.5</ele>
        <time>2021-08-20T13:18:17Z</time>
      </trkpt>
      <trkpt lat="45.99289" lon="5.74958">
        <ele>1001.6</ele>
        <time>2021-08-20T13:18:19Z</time>
      </trkpt>
      <trkpt lat="45.99289" lon="5.74958">
        <ele>1001.6</ele>
        <time>2021-08-20T13:18:20Z</time>
      </trkpt>
      <trkpt lat="45.99289" lon="5.74958">
        <ele>1001.6</ele>
        <time>2021-08-20T13:18:22Z</time>
      </trkpt>
      <trkpt lat="45.99289" lon="5.74958">
        <ele>1001.6</ele>
        <time>2021-08-20T13:18:23Z</time>
      </trkpt>
      <trkpt lat="45.99289" lon="5.74959">
        <ele>1001.7</ele>
        <time>2021-08-20T13:18:25Z</time>
      </trkpt>
      <trkpt lat="45.99288" lon="5.7496">
        <ele>1001.9</ele>
        <time>2021-08-20T13:18:26Z</time>
      </trkpt>
      <trkpt lat="45.99285" lon="5.74963">
        <ele>1002.3</ele>
        <time>2021-08-20T13:18:27Z</time>
      </trkpt>
      <trkpt lat="45.99284" lon="5.74963">
        <ele>1002.4</ele>
        <time>2021-08-20T13:18:28Z</time>
      </trkpt>
      <trkpt lat="45.99281" lon="5.74966">
        <ele>1002.9</ele>
        <time>2021-08-20T13:18:30Z</time>
      </trkpt>
      <trkpt lat="45.9928" lon="5.74967">
        <ele>1003</ele>
        <time>2021-08-20T13:18:31Z</time>
      </trkpt>
      <trkpt lat="45.99279" lon="5.74968">
        <ele>1003.2</ele>
        <time>2021-08-20T13:18:32Z</time>
      </trkpt>
      <trkpt lat="45.99278" lon="5.7497">
        <ele>1003.4</ele>
        <time>2021-08-20T13:18:33Z</time>
      </trkpt>
      <trkpt lat="45.99276" lon="5.74972">
        <ele>1003.6</ele>
        <time>2021-08-20T13:18:35Z</time>
      </trkpt>
      <trkpt lat="45.99276" lon="5.74973">
        <ele>1003.7</ele>
        <time>2021-08-20T13:18:36Z</time>
      </trkpt>
      <trkpt lat="45.99275" lon="5.74973">
        <ele>1003.8</ele>
        <time>2021-08-20T13:18:37Z</time>
      </trkpt>
      <trkpt lat="45.99274" lon="5.74974">
        <ele>1003.9</ele>
        <time>2021-08-20T13:18:39Z</time>
      </trkpt>
      <trkpt lat="45.99273" lon="5.74974">
        <ele>1004</ele>
        <time>2021-08-20T13:18:41Z</time>
      </trkpt>
      <trkpt lat="45.99272" lon="5.74974">
        <ele>1004.2</ele>
        <time>2021-08-20T13:18:42Z</time>
      </trkpt>
      <trkpt lat="45.99272" lon="5.74975">
        <ele>1004.3</ele>
        <time>2021-08-20T13:18:44Z</time>
      </trkpt>
      <trkpt lat="45.99271" lon="5.74975">
        <ele>1004.4</ele>
        <time>2021-08-20T13:18:45Z</time>
      </trkpt>
      <trkpt lat="45.99269" lon="5.74976">
        <ele>1004.6</ele>
        <time>2021-08-20T13:18:46Z</time>
      </trkpt>
      <trkpt lat="45.99267" lon="5.74976">
        <ele>1004.8</ele>
        <time>2021-08-20T13:18:47Z</time>
      </trkpt>
      <trkpt lat="45.99266" lon="5.74976">
        <ele>1005</ele>
        <time>2021-08-20T13:18:48Z</time>
      </trkpt>
      <trkpt lat="45.99264" lon="5.74976">
        <ele>1005.2</ele>
        <time>2021-08-20T13:18:50Z</time>
      </trkpt>
      <trkpt lat="45.99263" lon="5.74976">
        <ele>1005.3</ele>
        <time>2021-08-20T13:18:51Z</time>
      </trkpt>
      <trkpt lat="45.99262" lon="5.74975">
        <ele>1005.5</ele>
        <time>2021-08-20T13:18:53Z</time>
      </trkpt>
      <trkpt lat="45.99261" lon="5.74974">
        <ele>1005.5</ele>
        <time>2021-08-20T13:18:54Z</time>
      </trkpt>
      <trkpt lat="45.99261" lon="5.74974">
        <ele>1005.6</ele>
        <time>2021-08-20T13:18:55Z</time>
      </trkpt>
      <trkpt lat="45.99261" lon="5.74973">
        <ele>1005.7</ele>
        <time>2021-08-20T13:18:56Z</time>
      </trkpt>
      <trkpt lat="45.99261" lon="5.74973">
        <ele>1005.7</ele>
        <time>2021-08-20T13:18:58Z</time>
      </trkpt>
      <trkpt lat="45.9926" lon="5.74973">
        <ele>1005.8</ele>
        <time>2021-08-20T13:18:59Z</time>
      </trkpt>
      <trkpt lat="45.9926" lon="5.74972">
        <ele>1005.8</ele>
        <time>2021-08-20T13:19:00Z</time>
      </trkpt>
      <trkpt lat="45.99259" lon="5.74972">
        <ele>1005.9</ele>
        <time>2021-08-20T13:19:01Z</time>
      </trkpt>
      <trkpt lat="45.99258" lon="5.74972">
        <ele>1006</ele>
        <time>2021-08-20T13:19:03Z</time>
      </trkpt>
      <trkpt lat="45.99258" lon="5.74972">
        <ele>1006.1</ele>
        <time>2021-08-20T13:19:04Z</time>
      </trkpt>
      <trkpt lat="45.99257" lon="5.74972">
        <ele>1006.2</ele>
        <time>2021-08-20T13:19:06Z</time>
      </trkpt>
      <trkpt lat="45.99256" lon="5.74972">
        <ele>1006.3</ele>
        <time>2021-08-20T13:19:07Z</time>
      </trkpt>
      <trkpt lat="45.99255" lon="5.74971">
        <ele>1006.5</ele>
        <time>2021-08-20T13:19:09Z</time>
      </trkpt>
      <trkpt lat="45.99254" lon="5.74971">
        <ele>1006.5</ele>
        <time>2021-08-20T13:19:10Z</time>
      </trkpt>
      <trkpt lat="45.99254" lon="5.74971">
        <ele>1006.6</ele>
        <time>2021-08-20T13:19:11Z</time>
      </trkpt>
      <trkpt lat="45.99253" lon="5.74971">
        <ele>1006.7</ele>
        <time>2021-08-20T13:19:13Z</time>
      </trkpt>
      <trkpt lat="45.99252" lon="5.74971">
        <ele>1006.8</ele>
        <time>2021-08-20T13:19:14Z</time>
      </trkpt>
      <trkpt lat="45.99251" lon="5.74971">
        <ele>1007</ele>
        <time>2021-08-20T13:19:15Z</time>
      </trkpt>
      <trkpt lat="45.99249" lon="5.74971">
        <ele>1007.2</ele>
        <time>2021-08-20T13:19:16Z</time>
      </trkpt>
      <trkpt lat="45.99248" lon="5.74971">
        <ele>1007.4</ele>
        <time>2021-08-20T13:19:18Z</time>
      </trkpt>
      <trkpt lat="45.99247" lon="5.74971">
        <ele>1007.5</ele>
        <time>2021-08-20T13:19:19Z</time>
      </trkpt>
      <trkpt lat="45.99247" lon="5.74971">
        <ele>1007.6</ele>
        <time>2021-08-20T13:19:20Z</time>
      </trkpt>
      <trkpt lat="45.99245" lon="5.74971">
        <ele>1007.7</ele>
        <time>2021-08-20T13:19:21Z</time>
      </trkpt>
      <trkpt lat="45.99244" lon="5.74971">
        <ele>1007.9</ele>
        <time>2021-08-20T13:19:22Z</time>
      </trkpt>
      <trkpt lat="45.99242" lon="5.7497">
        <ele>1008.2</ele>
        <time>2021-08-20T13:19:24Z</time>
      </trkpt>
      <trkpt lat="45.99241" lon="5.7497">
        <ele>1008.3</ele>
        <time>2021-08-20T13:19:25Z</time>
      </trkpt>
      <trkpt lat="45.9924" lon="5.74969">
        <ele>1008.5</ele>
        <time>2021-08-20T13:19:26Z</time>
      </trkpt>
      <trkpt lat="45.99239" lon="5.74968">
        <ele>1008.6</ele>
        <time>2021-08-20T13:19:27Z</time>
      </trkpt>
      <trkpt lat="45.99238" lon="5.74968">
        <ele>1008.8</ele>
        <time>2021-08-20T13:19:29Z</time>
      </trkpt>
      <trkpt lat="45.99237" lon="5.74967">
        <ele>1008.9</ele>
        <time>2021-08-20T13:19:30Z</time>
      </trkpt>
      <trkpt lat="45.99235" lon="5.74964">
        <ele>1009.2</ele>
        <time>2021-08-20T13:19:32Z</time>
      </trkpt>
      <trkpt lat="45.99234" lon="5.74963">
        <ele>1009.4</ele>
        <time>2021-08-20T13:19:33Z</time>
      </trkpt>
      <trkpt lat="45.99233" lon="5.74963">
        <ele>1009.5</ele>
        <time>2021-08-20T13:19:34Z</time>
      </trkpt>
      <trkpt lat="45.99233" lon="5.74963">
        <ele>1009.6</ele>
        <time>2021-08-20T13:19:35Z</time>
      </trkpt>
      <trkpt lat="45.99232" lon="5.74963">
        <ele>1009.6</ele>
        <time>2021-08-20T13:19:36Z</time>
      </trkpt>
      <trkpt lat="45.99232" lon="5.74963">
        <ele>1009.7</ele>
        <time>2021-08-20T13:19:38Z</time>
      </trkpt>
      <trkpt lat="45.99232" lon="5.74962">
        <ele>1009.7</ele>
        <time>2021-08-20T13:19:39Z</time>
      </trkpt>
      <trkpt lat="45.99232" lon="5.74962">
        <ele>1009.7</ele>
        <time>2021-08-20T13:19:40Z</time>
      </trkpt>
      <trkpt lat="45.99231" lon="5.74962">
        <ele>1009.7</ele>
        <time>2021-08-20T13:19:42Z</time>
      </trkpt>
      <trkpt lat="45.99231" lon="5.74962">
        <ele>1009.8</ele>
        <time>2021-08-20T13:19:43Z</time>
      </trkpt>
      <trkpt lat="45.99231" lon="5.74962">
        <ele>1009.8</ele>
        <time>2021-08-20T13:19:45Z</time>
      </trkpt>
      <trkpt lat="45.9916" lon="5.74954">
        <ele>1017.9</ele>
        <time>2021-08-20T13:21:49Z</time>
      </trkpt>
      <trkpt lat="45.99152" lon="5.74951">
        <ele>1018.5</ele>
        <time>2021-08-20T13:21:51Z</time>
      </trkpt>
      <trkpt lat="45.99151" lon="5.7495">
        <ele>1018.7</ele>
        <time>2021-08-20T13:21:52Z</time>
      </trkpt>
      <trkpt lat="45.99149" lon="5.7495">
        <ele>1018.9</ele>
        <time>2021-08-20T13:21:53Z</time>
      </trkpt>
      <trkpt lat="45.99148" lon="5.7495">
        <ele>1019</ele>
        <time>2021-08-20T13:21:55Z</time>
      </trkpt>
      <trkpt lat="45.99148" lon="5.74949">
        <ele>1019</ele>
        <time>2021-08-20T13:21:57Z</time>
      </trkpt>
      <trkpt lat="45.99147" lon="5.74949">
        <ele>1019</ele>
        <time>2021-08-20T13:21:58Z</time>
      </trkpt>
      <trkpt lat="45.99147" lon="5.74949">
        <ele>1019.1</ele>
        <time>2021-08-20T13:21:59Z</time>
      </trkpt>
      <trkpt lat="45.99147" lon="5.74949">
        <ele>1019.1</ele>
        <time>2021-08-20T13:22:01Z</time>
      </trkpt>
      <trkpt lat="45.99147" lon="5.74949">
        <ele>1019.1</ele>
        <time>2021-08-20T13:22:02Z</time>
      </trkpt>
      <trkpt lat="45.99147" lon="5.74949">
        <ele>1019.1</ele>
        <time>2021-08-20T13:22:03Z</time>
      </trkpt>
      <trkpt lat="45.99147" lon="5.74948">
        <ele>1019.1</ele>
        <time>2021-08-20T13:22:05Z</time>
      </trkpt>
      <trkpt lat="45.99147" lon="5.74948">
        <ele>1019.1</ele>
        <time>2021-08-20T13:22:06Z</time>
      </trkpt>
      <trkpt lat="45.99146" lon="5.74948">
        <ele>1019.2</ele>
        <time>2021-08-20T13:22:07Z</time>
      </trkpt>
      <trkpt lat="45.99145" lon="5.74948">
        <ele>1019.3</ele>
        <time>2021-08-20T13:22:08Z</time>
      </trkpt>
      <trkpt lat="45.99145" lon="5.74948">
        <ele>1019.3</ele>
        <time>2021-08-20T13:22:09Z</time>
      </trkpt>
      <trkpt lat="45.99144" lon="5.74948">
        <ele>1019.4</ele>
        <time>2021-08-20T13:22:11Z</time>
      </trkpt>
      <trkpt lat="45.99144" lon="5.74948">
        <ele>1019.4</ele>
        <time>2021-08-20T13:22:12Z</time>
      </trkpt>
      <trkpt lat="45.99143" lon="5.74948">
        <ele>1019.5</ele>
        <time>2021-08-20T13:22:13Z</time>
      </trkpt>
      <trkpt lat="45.99143" lon="5.74948">
        <ele>1019.5</ele>
        <time>2021-08-20T13:22:15Z</time>
      </trkpt>
      <trkpt lat="45.99142" lon="5.74948">
        <ele>1019.6</ele>
        <time>2021-08-20T13:22:16Z</time>
      </trkpt>
      <trkpt lat="45.99141" lon="5.74948">
        <ele>1019.7</ele>
        <time>2021-08-20T13:22:17Z</time>
      </trkpt>
      <trkpt lat="45.99138" lon="5.74947">
        <ele>1020</ele>
        <time>2021-08-20T13:22:19Z</time>
      </trkpt>
      <trkpt lat="45.99135" lon="5.74948">
        <ele>1020.3</ele>
        <time>2021-08-20T13:22:21Z</time>
      </trkpt>
      <trkpt lat="45.99134" lon="5.74948">
        <ele>1020.4</ele>
        <time>2021-08-20T13:22:23Z</time>
      </trkpt>
      <trkpt lat="45.99132" lon="5.74949">
        <ele>1020.6</ele>
        <time>2021-08-20T13:22:24Z</time>
      </trkpt>
      <trkpt lat="45.99132" lon="5.7495">
        <ele>1020.7</ele>
        <time>2021-08-20T13:22:25Z</time>
      </trkpt>
      <trkpt lat="45.99131" lon="5.7495">
        <ele>1020.7</ele>
        <time>2021-08-20T13:22:26Z</time>
      </trkpt>
      <trkpt lat="45.99131" lon="5.74951">
        <ele>1020.8</ele>
        <time>2021-08-20T13:22:28Z</time>
      </trkpt>
      <trkpt lat="45.9913" lon="5.74951">
        <ele>1020.8</ele>
        <time>2021-08-20T13:22:29Z</time>
      </trkpt>
      <trkpt lat="45.9913" lon="5.74951">
        <ele>1020.9</ele>
        <time>2021-08-20T13:22:30Z</time>
      </trkpt>
      <trkpt lat="45.99129" lon="5.74952">
        <ele>1020.9</ele>
        <time>2021-08-20T13:22:31Z</time>
      </trkpt>
      <trkpt lat="45.99129" lon="5.74952">
        <ele>1021</ele>
        <time>2021-08-20T13:22:32Z</time>
      </trkpt>
      <trkpt lat="45.99129" lon="5.74953">
        <ele>1021</ele>
        <time>2021-08-20T13:22:34Z</time>
      </trkpt>
      <trkpt lat="45.99128" lon="5.74953">
        <ele>1021.1</ele>
        <time>2021-08-20T13:22:35Z</time>
      </trkpt>
      <trkpt lat="45.99128" lon="5.74954">
        <ele>1021.1</ele>
        <time>2021-08-20T13:22:36Z</time>
      </trkpt>
      <trkpt lat="45.99126" lon="5.74956">
        <ele>1021.3</ele>
        <time>2021-08-20T13:22:38Z</time>
      </trkpt>
      <trkpt lat="45.99125" lon="5.74957">
        <ele>1021.4</ele>
        <time>2021-08-20T13:22:39Z</time>
      </trkpt>
      <trkpt lat="45.99125" lon="5.74957">
        <ele>1021.5</ele>
        <time>2021-08-20T13:22:40Z</time>
      </trkpt>
      <trkpt lat="45.99124" lon="5.74957">
        <ele>1021.5</ele>
        <time>2021-08-20T13:22:42Z</time>
      </trkpt>
      <trkpt lat="45.99124" lon="5.74958">
        <ele>1021.6</ele>
        <time>2021-08-20T13:22:43Z</time>
      </trkpt>
      <trkpt lat="45.99123" lon="5.74958">
        <ele>1021.6</ele>
        <time>2021-08-20T13:22:44Z</time>
      </trkpt>
      <trkpt lat="45.99121" lon="5.74958">
        <ele>1021.8</ele>
        <time>2021-08-20T13:22:46Z</time>
      </trkpt>
      <trkpt lat="45.99119" lon="5.74957">
        <ele>1022</ele>
        <time>2021-08-20T13:22:47Z</time>
      </trkpt>
      <trkpt lat="45.99117" lon="5.74957">
        <ele>1022.2</ele>
        <time>2021-08-20T13:22:48Z</time>
      </trkpt>
      <trkpt lat="45.99115" lon="5.74956">
        <ele>1022.4</ele>
        <time>2021-08-20T13:22:50Z</time>
      </trkpt>
      <trkpt lat="45.99114" lon="5.74956">
        <ele>1022.5</ele>
        <time>2021-08-20T13:22:51Z</time>
      </trkpt>
      <trkpt lat="45.99112" lon="5.74955">
        <ele>1022.7</ele>
        <time>2021-08-20T13:22:53Z</time>
      </trkpt>
      <trkpt lat="45.9911" lon="5.74956">
        <ele>1022.8</ele>
        <time>2021-08-20T13:22:54Z</time>
      </trkpt>
      <trkpt lat="45.99109" lon="5.74956">
        <ele>1023</ele>
        <time>2021-08-20T13:22:55Z</time>
      </trkpt>
      <trkpt lat="45.99107" lon="5.74957">
        <ele>1023.2</ele>
        <time>2021-08-20T13:22:57Z</time>
      </trkpt>
      <trkpt lat="45.99105" lon="5.74957">
        <ele>1023.3</ele>
        <time>2021-08-20T13:22:58Z</time>
      </trkpt>
      <trkpt lat="45.99105" lon="5.74957">
        <ele>1023.4</ele>
        <time>2021-08-20T13:22:59Z</time>
      </trkpt>
      <trkpt lat="45.99104" lon="5.74957">
        <ele>1023.5</ele>
        <time>2021-08-20T13:23:01Z</time>
      </trkpt>
      <trkpt lat="45.99103" lon="5.74957">
        <ele>1023.5</ele>
        <time>2021-08-20T13:23:02Z</time>
      </trkpt>
      <trkpt lat="45.99103" lon="5.74957">
        <ele>1023.6</ele>
        <time>2021-08-20T13:23:03Z</time>
      </trkpt>
      <trkpt lat="45.99102" lon="5.74957">
        <ele>1023.6</ele>
        <time>2021-08-20T13:23:04Z</time>
      </trkpt>
      <trkpt lat="45.99101" lon="5.74957">
        <ele>1023.7</ele>
        <time>2021-08-20T13:23:06Z</time>
      </trkpt>
      <trkpt lat="45.99101" lon="5.74957">
        <ele>1023.7</ele>
        <time>2021-08-20T13:23:07Z</time>
      </trkpt>
      <trkpt lat="45.991" lon="5.74957">
        <ele>1023.8</ele>
        <time>2021-08-20T13:23:08Z</time>
      </trkpt>
      <trkpt lat="45.991" lon="5.74957">
        <ele>1023.9</ele>
        <time>2021-08-20T13:23:09Z</time>
      </trkpt>
      <trkpt lat="45.99096" lon="5.74961">
        <ele>1024.3</ele>
        <time>2021-08-20T13:23:11Z</time>
      </trkpt>
      <trkpt lat="45.99095" lon="5.74963">
        <ele>1024.4</ele>
        <time>2021-08-20T13:23:12Z</time>
      </trkpt>
      <trkpt lat="45.99093" lon="5.74964">
        <ele>1024.6</ele>
        <time>2021-08-20T13:23:13Z</time>
      </trkpt>
      <trkpt lat="45.99092" lon="5.74966">
        <ele>1024.7</ele>
        <time>2021-08-20T13:23:14Z</time>
      </trkpt>
      <trkpt lat="45.9909" lon="5.74968">
        <ele>1024.9</ele>
        <time>2021-08-20T13:23:16Z</time>
      </trkpt>
      <trkpt lat="45.99089" lon="5.7497">
        <ele>1025.1</ele>
        <time>2021-08-20T13:23:17Z</time>
      </trkpt>
      <trkpt lat="45.99087" lon="5.74971">
        <ele>1025.2</ele>
        <time>2021-08-20T13:23:18Z</time>
      </trkpt>
      <trkpt lat="45.99086" lon="5.74972">
        <ele>1025.4</ele>
        <time>2021-08-20T13:23:19Z</time>
      </trkpt>
      <trkpt lat="45.99085" lon="5.74973">
        <ele>1025.4</ele>
        <time>2021-08-20T13:23:20Z</time>
      </trkpt>
      <trkpt lat="45.99085" lon="5.74973">
        <ele>1025.5</ele>
        <time>2021-08-20T13:23:22Z</time>
      </trkpt>
      <trkpt lat="45.99084" lon="5.74973">
        <ele>1025.5</ele>
        <time>2021-08-20T13:23:23Z</time>
      </trkpt>
      <trkpt lat="45.99084" lon="5.74973">
        <ele>1025.6</ele>
        <time>2021-08-20T13:23:24Z</time>
      </trkpt>
      <trkpt lat="45.99083" lon="5.74974">
        <ele>1025.6</ele>
        <time>2021-08-20T13:23:26Z</time>
      </trkpt>
      <trkpt lat="45.99083" lon="5.74974">
        <ele>1025.7</ele>
        <time>2021-08-20T13:23:27Z</time>
      </trkpt>
      <trkpt lat="45.99082" lon="5.74974">
        <ele>1025.7</ele>
        <time>2021-08-20T13:23:28Z</time>
      </trkpt>
      <trkpt lat="45.99082" lon="5.74974">
        <ele>1025.8</ele>
        <time>2021-08-20T13:23:30Z</time>
      </trkpt>
      <trkpt lat="45.99081" lon="5.74975">
        <ele>1025.8</ele>
        <time>2021-08-20T13:23:31Z</time>
      </trkpt>
      <trkpt lat="45.99078" lon="5.74975">
        <ele>1026</ele>
        <time>2021-08-20T13:23:32Z</time>
      </trkpt>
      <trkpt lat="45.99075" lon="5.74976">
        <ele>1026.3</ele>
        <time>2021-08-20T13:23:34Z</time>
      </trkpt>
      <trkpt lat="45.99074" lon="5.74976">
        <ele>1026.5</ele>
        <time>2021-08-20T13:23:35Z</time>
      </trkpt>
      <trkpt lat="45.99072" lon="5.74977">
        <ele>1026.6</ele>
        <time>2021-08-20T13:23:36Z</time>
      </trkpt>
      <trkpt lat="45.9907" lon="5.74979">
        <ele>1026.8</ele>
        <time>2021-08-20T13:23:38Z</time>
      </trkpt>
      <trkpt lat="45.99069" lon="5.74979">
        <ele>1026.9</ele>
        <time>2021-08-20T13:23:39Z</time>
      </trkpt>
      <trkpt lat="45.99068" lon="5.74981">
        <ele>1027</ele>
        <time>2021-08-20T13:23:41Z</time>
      </trkpt>
      <trkpt lat="45.99067" lon="5.74981">
        <ele>1027.1</ele>
        <time>2021-08-20T13:23:42Z</time>
      </trkpt>
      <trkpt lat="45.99066" lon="5.74982">
        <ele>1027.2</ele>
        <time>2021-08-20T13:23:43Z</time>
      </trkpt>
      <trkpt lat="45.99066" lon="5.74982">
        <ele>1027.2</ele>
        <time>2021-08-20T13:23:44Z</time>
      </trkpt>
      <trkpt lat="45.99065" lon="5.74982">
        <ele>1027.3</ele>
        <time>2021-08-20T13:23:46Z</time>
      </trkpt>
      <trkpt lat="45.99063" lon="5.74982">
        <ele>1027.4</ele>
        <time>2021-08-20T13:23:47Z</time>
      </trkpt>
      <trkpt lat="45.9906" lon="5.74982">
        <ele>1027.7</ele>
        <time>2021-08-20T13:23:48Z</time>
      </trkpt>
      <trkpt lat="45.99059" lon="5.74982">
        <ele>1027.8</ele>
        <time>2021-08-20T13:23:49Z</time>
      </trkpt>
      <trkpt lat="45.99057" lon="5.74982">
        <ele>1027.9</ele>
        <time>2021-08-20T13:23:50Z</time>
      </trkpt>
      <trkpt lat="45.99055" lon="5.74982">
        <ele>1028.2</ele>
        <time>2021-08-20T13:23:52Z</time>
      </trkpt>
      <trkpt lat="45.99053" lon="5.74983">
        <ele>1028.3</ele>
        <time>2021-08-20T13:23:53Z</time>
      </trkpt>
      <trkpt lat="45.99051" lon="5.74983">
        <ele>1028.4</ele>
        <time>2021-08-20T13:23:54Z</time>
      </trkpt>
      <trkpt lat="45.9905" lon="5.74984">
        <ele>1028.6</ele>
        <time>2021-08-20T13:23:55Z</time>
      </trkpt>
      <trkpt lat="45.99049" lon="5.74984">
        <ele>1028.7</ele>
        <time>2021-08-20T13:23:56Z</time>
      </trkpt>
      <trkpt lat="45.99048" lon="5.74984">
        <ele>1028.7</ele>
        <time>2021-08-20T13:23:58Z</time>
      </trkpt>
      <trkpt lat="45.99048" lon="5.74984">
        <ele>1028.8</ele>
        <time>2021-08-20T13:23:59Z</time>
      </trkpt>
      <trkpt lat="45.99047" lon="5.74984">
        <ele>1028.8</ele>
        <time>2021-08-20T13:24:01Z</time>
      </trkpt>
      <trkpt lat="45.99046" lon="5.74984">
        <ele>1028.9</ele>
        <time>2021-08-20T13:24:02Z</time>
      </trkpt>
      <trkpt lat="45.99045" lon="5.74984">
        <ele>1029</ele>
        <time>2021-08-20T13:24:03Z</time>
      </trkpt>
      <trkpt lat="45.99045" lon="5.74985">
        <ele>1029</ele>
        <time>2021-08-20T13:24:05Z</time>
      </trkpt>
      <trkpt lat="45.99044" lon="5.74985">
        <ele>1029.1</ele>
        <time>2021-08-20T13:24:06Z</time>
      </trkpt>
      <trkpt lat="45.99043" lon="5.74985">
        <ele>1029.1</ele>
        <time>2021-08-20T13:24:07Z</time>
      </trkpt>
      <trkpt lat="45.99043" lon="5.74985">
        <ele>1029.2</ele>
        <time>2021-08-20T13:24:08Z</time>
      </trkpt>
      <trkpt lat="45.99042" lon="5.74985">
        <ele>1029.2</ele>
        <time>2021-08-20T13:24:10Z</time>
      </trkpt>
      <trkpt lat="45.99041" lon="5.74985">
        <ele>1029.3</ele>
        <time>2021-08-20T13:24:11Z</time>
      </trkpt>
      <trkpt lat="45.99039" lon="5.74985">
        <ele>1029.5</ele>
        <time>2021-08-20T13:24:12Z</time>
      </trkpt>
      <trkpt lat="45.99036" lon="5.74985">
        <ele>1029.7</ele>
        <time>2021-08-20T13:24:14Z</time>
      </trkpt>
      <trkpt lat="45.99035" lon="5.74985">
        <ele>1029.9</ele>
        <time>2021-08-20T13:24:16Z</time>
      </trkpt>
      <trkpt lat="45.99033" lon="5.74986">
        <ele>1030</ele>
        <time>2021-08-20T13:24:17Z</time>
      </trkpt>
      <trkpt lat="45.99032" lon="5.74986">
        <ele>1030.1</ele>
        <time>2021-08-20T13:24:19Z</time>
      </trkpt>
      <trkpt lat="45.99032" lon="5.74987">
        <ele>1030.2</ele>
        <time>2021-08-20T13:24:20Z</time>
      </trkpt>
      <trkpt lat="45.9903" lon="5.74987">
        <ele>1030.3</ele>
        <time>2021-08-20T13:24:21Z</time>
      </trkpt>
      <trkpt lat="45.99025" lon="5.74988">
        <ele>1030.7</ele>
        <time>2021-08-20T13:24:23Z</time>
      </trkpt>
      <trkpt lat="45.99023" lon="5.74989">
        <ele>1030.9</ele>
        <time>2021-08-20T13:24:24Z</time>
      </trkpt>
      <trkpt lat="45.99021" lon="5.7499">
        <ele>1031.1</ele>
        <time>2021-08-20T13:24:25Z</time>
      </trkpt>
      <trkpt lat="45.99017" lon="5.74993">
        <ele>1031.5</ele>
        <time>2021-08-20T13:24:27Z</time>
      </trkpt>
      <trkpt lat="45.99014" lon="5.74995">
        <ele>1031.7</ele>
        <time>2021-08-20T13:24:28Z</time>
      </trkpt>
      <trkpt lat="45.9901" lon="5.74997">
        <ele>1032.1</ele>
        <time>2021-08-20T13:24:29Z</time>
      </trkpt>
      <trkpt lat="45.99007" lon="5.74999">
        <ele>1032.4</ele>
        <time>2021-08-20T13:24:31Z</time>
      </trkpt>
      <trkpt lat="45.99007" lon="5.74999">
        <ele>1032.4</ele>
        <time>2021-08-20T13:24:32Z</time>
      </trkpt>
      <trkpt lat="45.99006" lon="5.74999">
        <ele>1032.5</ele>
        <time>2021-08-20T13:24:34Z</time>
      </trkpt>
      <trkpt lat="45.99005" lon="5.74999">
        <ele>1032.6</ele>
        <time>2021-08-20T13:24:35Z</time>
      </trkpt>
      <trkpt lat="45.99005" lon="5.74999">
        <ele>1032.6</ele>
        <time>2021-08-20T13:24:36Z</time>
      </trkpt>
      <trkpt lat="45.99004" lon="5.74999">
        <ele>1032.6</ele>
        <time>2021-08-20T13:24:37Z</time>
      </trkpt>
      <trkpt lat="45.99004" lon="5.75">
        <ele>1032.7</ele>
        <time>2021-08-20T13:24:39Z</time>
      </trkpt>
      <trkpt lat="45.98982" lon="5.74994">
        <ele>1034.8</ele>
        <time>2021-08-20T13:25:19Z</time>
      </trkpt>
      <trkpt lat="45.9898" lon="5.74992">
        <ele>1035</ele>
        <time>2021-08-20T13:25:20Z</time>
      </trkpt>
      <trkpt lat="45.98978" lon="5.74991">
        <ele>1035.1</ele>
        <time>2021-08-20T13:25:21Z</time>
      </trkpt>
      <trkpt lat="45.98978" lon="5.74991">
        <ele>1035.2</ele>
        <time>2021-08-20T13:25:22Z</time>
      </trkpt>
      <trkpt lat="45.98974" lon="5.7499">
        <ele>1035.5</ele>
        <time>2021-08-20T13:25:24Z</time>
      </trkpt>
      <trkpt lat="45.98973" lon="5.7499">
        <ele>1035.7</ele>
        <time>2021-08-20T13:25:25Z</time>
      </trkpt>
      <trkpt lat="45.98971" lon="5.74991">
        <ele>1035.9</ele>
        <time>2021-08-20T13:25:27Z</time>
      </trkpt>
      <trkpt lat="45.9897" lon="5.74992">
        <ele>1036</ele>
        <time>2021-08-20T13:25:28Z</time>
      </trkpt>
      <trkpt lat="45.98969" lon="5.74994">
        <ele>1036.1</ele>
        <time>2021-08-20T13:25:30Z</time>
      </trkpt>
      <trkpt lat="45.98968" lon="5.74996">
        <ele>1036.3</ele>
        <time>2021-08-20T13:25:31Z</time>
      </trkpt>
      <trkpt lat="45.98967" lon="5.74997">
        <ele>1036.4</ele>
        <time>2021-08-20T13:25:32Z</time>
      </trkpt>
      <trkpt lat="45.98964" lon="5.74999">
        <ele>1036.7</ele>
        <time>2021-08-20T13:25:34Z</time>
      </trkpt>
      <trkpt lat="45.98964" lon="5.74999">
        <ele>1036.7</ele>
        <time>2021-08-20T13:25:35Z</time>
      </trkpt>
      <trkpt lat="45.98963" lon="5.74999">
        <ele>1036.8</ele>
        <time>2021-08-20T13:25:36Z</time>
      </trkpt>
      <trkpt lat="45.98961" lon="5.75">
        <ele>1036.9</ele>
        <time>2021-08-20T13:25:38Z</time>
      </trkpt>
      <trkpt lat="45.9896" lon="5.75">
        <ele>1037.1</ele>
        <time>2021-08-20T13:25:39Z</time>
      </trkpt>
      <trkpt lat="45.98958" lon="5.74999">
        <ele>1037.2</ele>
        <time>2021-08-20T13:25:40Z</time>
      </trkpt>
      <trkpt lat="45.98956" lon="5.74998">
        <ele>1037.5</ele>
        <time>2021-08-20T13:25:42Z</time>
      </trkpt>
      <trkpt lat="45.98955" lon="5.74997">
        <ele>1037.6</ele>
        <time>2021-08-20T13:25:43Z</time>
      </trkpt>
      <trkpt lat="45.98954" lon="5.74997">
        <ele>1037.7</ele>
        <time>2021-08-20T13:25:44Z</time>
      </trkpt>
      <trkpt lat="45.9895" lon="5.74995">
        <ele>1038.1</ele>
        <time>2021-08-20T13:25:46Z</time>
      </trkpt>
      <trkpt lat="45.98949" lon="5.74994">
        <ele>1038.2</ele>
        <time>2021-08-20T13:25:47Z</time>
      </trkpt>
      <trkpt lat="45.98947" lon="5.74994">
        <ele>1038.4</ele>
        <time>2021-08-20T13:25:48Z</time>
      </trkpt>
      <trkpt lat="45.98945" lon="5.74994">
        <ele>1038.6</ele>
        <time>2021-08-20T13:25:49Z</time>
      </trkpt>
      <trkpt lat="45.9894" lon="5.74994">
        <ele>1039</ele>
        <time>2021-08-20T13:25:51Z</time>
      </trkpt>
      <trkpt lat="45.9894" lon="5.74994">
        <ele>1039.1</ele>
        <time>2021-08-20T13:25:52Z</time>
      </trkpt>
      <trkpt lat="45.98937" lon="5.74994">
        <ele>1039.3</ele>
        <time>2021-08-20T13:25:54Z</time>
      </trkpt>
      <trkpt lat="45.98937" lon="5.74994">
        <ele>1039.3</ele>
        <time>2021-08-20T13:25:55Z</time>
      </trkpt>
      <trkpt lat="45.98936" lon="5.74994">
        <ele>1039.4</ele>
        <time>2021-08-20T13:25:56Z</time>
      </trkpt>
      <trkpt lat="45.98933" lon="5.74993">
        <ele>1039.7</ele>
        <time>2021-08-20T13:25:58Z</time>
      </trkpt>
      <trkpt lat="45.98931" lon="5.74992">
        <ele>1039.9</ele>
        <time>2021-08-20T13:26:00Z</time>
      </trkpt>
      <trkpt lat="45.98778" lon="5.75083">
        <ele>1056.9</ele>
        <time>2021-08-20T13:29:41Z</time>
      </trkpt>
      <trkpt lat="45.98772" lon="5.75089">
        <ele>1057.7</ele>
        <time>2021-08-20T13:29:43Z</time>
      </trkpt>
      <trkpt lat="45.98771" lon="5.75093">
        <ele>1058</ele>
        <time>2021-08-20T13:29:45Z</time>
      </trkpt>
      <trkpt lat="45.98771" lon="5.75093">
        <ele>1058.1</ele>
        <time>2021-08-20T13:29:46Z</time>
      </trkpt>
      <trkpt lat="45.9877" lon="5.75094">
        <ele>1058.1</ele>
        <time>2021-08-20T13:29:47Z</time>
      </trkpt>
      <trkpt lat="45.9877" lon="5.75094">
        <ele>1058.2</ele>
        <time>2021-08-20T13:29:49Z</time>
      </trkpt>
      <trkpt lat="45.9877" lon="5.75094">
        <ele>1058.2</ele>
        <time>2021-08-20T13:29:50Z</time>
      </trkpt>
      <trkpt lat="45.9877" lon="5.75094">
        <ele>1058.2</ele>
        <time>2021-08-20T13:29:51Z</time>
      </trkpt>
      <trkpt lat="45.9877" lon="5.75094">
        <ele>1058.2</ele>
        <time>2021-08-20T13:29:53Z</time>
      </trkpt>
      <trkpt lat="45.98714" lon="5.75111">
        <ele>1064.4</ele>
        <time>2021-08-20T13:31:10Z</time>
      </trkpt>
      <trkpt lat="45.98712" lon="5.75112">
        <ele>1064.6</ele>
        <time>2021-08-20T13:31:11Z</time>
      </trkpt>
      <trkpt lat="45.98711" lon="5.75112">
        <ele>1064.7</ele>
        <time>2021-08-20T13:31:12Z</time>
      </trkpt>
      <trkpt lat="45.98709" lon="5.75113">
        <ele>1064.9</ele>
        <time>2021-08-20T13:31:14Z</time>
      </trkpt>
      <trkpt lat="45.98708" lon="5.75113">
        <ele>1065</ele>
        <time>2021-08-20T13:31:15Z</time>
      </trkpt>
      <trkpt lat="45.98708" lon="5.75114">
        <ele>1065.1</ele>
        <time>2021-08-20T13:31:16Z</time>
      </trkpt>
      <trkpt lat="45.98707" lon="5.75114">
        <ele>1065.2</ele>
        <time>2021-08-20T13:31:18Z</time>
      </trkpt>
      <trkpt lat="45.98707" lon="5.75114">
        <ele>1065.2</ele>
        <time>2021-08-20T13:31:19Z</time>
      </trkpt>
      <trkpt lat="45.98706" lon="5.75114">
        <ele>1065.4</ele>
        <time>2021-08-20T13:31:20Z</time>
      </trkpt>
      <trkpt lat="45.98702" lon="5.75113">
        <ele>1065.8</ele>
        <time>2021-08-20T13:31:22Z</time>
      </trkpt>
      <trkpt lat="45.98701" lon="5.75113">
        <ele>1065.9</ele>
        <time>2021-08-20T13:31:23Z</time>
      </trkpt>
      <trkpt lat="45.98698" lon="5.75112">
        <ele>1066.2</ele>
        <time>2021-08-20T13:31:24Z</time>
      </trkpt>
      <trkpt lat="45.98696" lon="5.75113">
        <ele>1066.5</ele>
        <time>2021-08-20T13:31:26Z</time>
      </trkpt>
      <trkpt lat="45.98694" lon="5.75114">
        <ele>1066.7</ele>
        <time>2021-08-20T13:31:27Z</time>
      </trkpt>
      <trkpt lat="45.98692" lon="5.75115">
        <ele>1066.9</ele>
        <time>2021-08-20T13:31:29Z</time>
      </trkpt>
      <trkpt lat="45.98691" lon="5.75115">
        <ele>1067</ele>
        <time>2021-08-20T13:31:30Z</time>
      </trkpt>
      <trkpt lat="45.98691" lon="5.75116">
        <ele>1067</ele>
        <time>2021-08-20T13:31:31Z</time>
      </trkpt>
      <trkpt lat="45.9869" lon="5.75119">
        <ele>1067.2</ele>
        <time>2021-08-20T13:31:32Z</time>
      </trkpt>
      <trkpt lat="45.9869" lon="5.75122">
        <ele>1067.5</ele>
        <time>2021-08-20T13:31:34Z</time>
      </trkpt>
      <trkpt lat="45.9869" lon="5.75124">
        <ele>1067.6</ele>
        <time>2021-08-20T13:31:35Z</time>
      </trkpt>
      <trkpt lat="45.9869" lon="5.75126">
        <ele>1067.8</ele>
        <time>2021-08-20T13:31:36Z</time>
      </trkpt>
      <trkpt lat="45.9869" lon="5.75127">
        <ele>1067.9</ele>
        <time>2021-08-20T13:31:38Z</time>
      </trkpt>
      <trkpt lat="45.9869" lon="5.75128">
        <ele>1067.9</ele>
        <time>2021-08-20T13:31:40Z</time>
      </trkpt>
      <trkpt lat="45.9869" lon="5.75129">
        <ele>1068</ele>
        <time>2021-08-20T13:31:41Z</time>
      </trkpt>
      <trkpt lat="45.9869" lon="5.75129">
        <ele>1068</ele>
        <time>2021-08-20T13:31:42Z</time>
      </trkpt>
      <trkpt lat="45.98689" lon="5.75127">
        <ele>1068.2</ele>
        <time>2021-08-20T13:31:43Z</time>
      </trkpt>
      <trkpt lat="45.98688" lon="5.75126">
        <ele>1068.4</ele>
        <time>2021-08-20T13:31:45Z</time>
      </trkpt>
      <trkpt lat="45.98686" lon="5.75125">
        <ele>1068.5</ele>
        <time>2021-08-20T13:31:46Z</time>
      </trkpt>
      <trkpt lat="45.98685" lon="5.75123">
        <ele>1068.7</ele>
        <time>2021-08-20T13:31:47Z</time>
      </trkpt>
      <trkpt lat="45.98685" lon="5.75123">
        <ele>1068.8</ele>
        <time>2021-08-20T13:31:49Z</time>
      </trkpt>
      <trkpt lat="45.98684" lon="5.75122">
        <ele>1068.8</ele>
        <time>2021-08-20T13:31:50Z</time>
      </trkpt>
      <trkpt lat="45.98684" lon="5.75121">
        <ele>1069</ele>
        <time>2021-08-20T13:31:51Z</time>
      </trkpt>
      <trkpt lat="45.98683" lon="5.75121">
        <ele>1069.1</ele>
        <time>2021-08-20T13:31:53Z</time>
      </trkpt>
      <trkpt lat="45.98681" lon="5.7512">
        <ele>1069.2</ele>
        <time>2021-08-20T13:31:54Z</time>
      </trkpt>
      <trkpt lat="45.9868" lon="5.7512">
        <ele>1069.4</ele>
        <time>2021-08-20T13:31:55Z</time>
      </trkpt>
      <trkpt lat="45.98679" lon="5.7512">
        <ele>1069.5</ele>
        <time>2021-08-20T13:31:57Z</time>
      </trkpt>
      <trkpt lat="45.98678" lon="5.75119">
        <ele>1069.6</ele>
        <time>2021-08-20T13:31:58Z</time>
      </trkpt>
      <trkpt lat="45.98677" lon="5.75119">
        <ele>1069.7</ele>
        <time>2021-08-20T13:31:59Z</time>
      </trkpt>
      <trkpt lat="45.98677" lon="5.75118">
        <ele>1069.7</ele>
        <time>2021-08-20T13:32:01Z</time>
      </trkpt>
      <trkpt lat="45.98676" lon="5.75118">
        <ele>1069.8</ele>
        <time>2021-08-20T13:32:02Z</time>
      </trkpt>
      <trkpt lat="45.98676" lon="5.75118">
        <ele>1069.8</ele>
        <time>2021-08-20T13:32:03Z</time>
      </trkpt>
      <trkpt lat="45.98676" lon="5.75118">
        <ele>1069.8</ele>
        <time>2021-08-20T13:32:05Z</time>
      </trkpt>
      <trkpt lat="45.98676" lon="5.75118">
        <ele>1069.8</ele>
        <time>2021-08-20T13:32:06Z</time>
      </trkpt>
      <trkpt lat="45.98675" lon="5.75118">
        <ele>1069.9</ele>
        <time>2021-08-20T13:32:07Z</time>
      </trkpt>
      <trkpt lat="45.98672" lon="5.75119">
        <ele>1070.2</ele>
        <time>2021-08-20T13:32:08Z</time>
      </trkpt>
      <trkpt lat="45.98671" lon="5.7512">
        <ele>1070.4</ele>
        <time>2021-08-20T13:32:09Z</time>
      </trkpt>
      <trkpt lat="45.98669" lon="5.75121">
        <ele>1070.6</ele>
        <time>2021-08-20T13:32:10Z</time>
      </trkpt>
      <trkpt lat="45.98666" lon="5.75122">
        <ele>1070.9</ele>
        <time>2021-08-20T13:32:12Z</time>
      </trkpt>
      <trkpt lat="45.98664" lon="5.75124">
        <ele>1071.2</ele>
        <time>2021-08-20T13:32:13Z</time>
      </trkpt>
      <trkpt lat="45.98662" lon="5.75125">
        <ele>1071.4</ele>
        <time>2021-08-20T13:32:14Z</time>
      </trkpt>
      <trkpt lat="45.98661" lon="5.75126">
        <ele>1071.6</ele>
        <time>2021-08-20T13:32:16Z</time>
      </trkpt>
      <trkpt lat="45.9866" lon="5.75127">
        <ele>1071.7</ele>
        <time>2021-08-20T13:32:17Z</time>
      </trkpt>
      <trkpt lat="45.98658" lon="5.75128">
        <ele>1071.9</ele>
        <time>2021-08-20T13:32:18Z</time>
      </trkpt>
      <trkpt lat="45.98657" lon="5.75128">
        <ele>1071.9</ele>
        <time>2021-08-20T13:32:20Z</time>
      </trkpt>
      <trkpt lat="45.98656" lon="5.75129">
        <ele>1072</ele>
        <time>2021-08-20T13:32:21Z</time>
      </trkpt>
      <trkpt lat="45.98655" lon="5.75129">
        <ele>1072.1</ele>
        <time>2021-08-20T13:32:22Z</time>
      </trkpt>
      <trkpt lat="45.98654" lon="5.7513">
        <ele>1072.2</ele>
        <time>2021-08-20T13:32:23Z</time>
      </trkpt>
      <trkpt lat="45.98652" lon="5.75129">
        <ele>1072.5</ele>
        <time>2021-08-20T13:32:25Z</time>
      </trkpt>
      <trkpt lat="45.98651" lon="5.75129">
        <ele>1072.6</ele>
        <time>2021-08-20T13:32:26Z</time>
      </trkpt>
      <trkpt lat="45.98648" lon="5.75129">
        <ele>1072.9</ele>
        <time>2021-08-20T13:32:27Z</time>
      </trkpt>
      <trkpt lat="45.98646" lon="5.75129">
        <ele>1073.1</ele>
        <time>2021-08-20T13:32:29Z</time>
      </trkpt>
      <trkpt lat="45.98645" lon="5.75129">
        <ele>1073.2</ele>
        <time>2021-08-20T13:32:30Z</time>
      </trkpt>
      <trkpt lat="45.98643" lon="5.75129">
        <ele>1073.4</ele>
        <time>2021-08-20T13:32:31Z</time>
      </trkpt>
      <trkpt lat="45.9864" lon="5.75129">
        <ele>1073.8</ele>
        <time>2021-08-20T13:32:32Z</time>
      </trkpt>
      <trkpt lat="45.98638" lon="5.75129">
        <ele>1074</ele>
        <time>2021-08-20T13:32:33Z</time>
      </trkpt>
      <trkpt lat="45.98636" lon="5.75129">
        <ele>1074.2</ele>
        <time>2021-08-20T13:32:35Z</time>
      </trkpt>
      <trkpt lat="45.98635" lon="5.7513">
        <ele>1074.4</ele>
        <time>2021-08-20T13:32:36Z</time>
      </trkpt>
      <trkpt lat="45.98635" lon="5.75131">
        <ele>1074.5</ele>
        <time>2021-08-20T13:32:37Z</time>
      </trkpt>
      <trkpt lat="45.98634" lon="5.75131">
        <ele>1074.5</ele>
        <time>2021-08-20T13:32:38Z</time>
      </trkpt>
      <trkpt lat="45.98634" lon="5.75132">
        <ele>1074.6</ele>
        <time>2021-08-20T13:32:40Z</time>
      </trkpt>
      <trkpt lat="45.98633" lon="5.75132">
        <ele>1074.6</ele>
        <time>2021-08-20T13:32:41Z</time>
      </trkpt>
      <trkpt lat="45.98633" lon="5.75133">
        <ele>1074.7</ele>
        <time>2021-08-20T13:32:42Z</time>
      </trkpt>
      <trkpt lat="45.98633" lon="5.75133">
        <ele>1074.7</ele>
        <time>2021-08-20T13:32:44Z</time>
      </trkpt>
      <trkpt lat="45.98633" lon="5.75134">
        <ele>1074.8</ele>
        <time>2021-08-20T13:32:45Z</time>
      </trkpt>
      <trkpt lat="45.98633" lon="5.75134">
        <ele>1074.8</ele>
        <time>2021-08-20T13:32:46Z</time>
      </trkpt>
      <trkpt lat="45.98633" lon="5.75134">
        <ele>1074.8</ele>
        <time>2021-08-20T13:32:47Z</time>
      </trkpt>
      <trkpt lat="45.98633" lon="5.75134">
        <ele>1074.8</ele>
        <time>2021-08-20T13:32:49Z</time>
      </trkpt>
      <trkpt lat="45.98607" lon="5.75144">
        <ele>1077.7</ele>
        <time>2021-08-20T13:33:25Z</time>
      </trkpt>
      <trkpt lat="45.98604" lon="5.75144">
        <ele>1078.1</ele>
        <time>2021-08-20T13:33:26Z</time>
      </trkpt>
      <trkpt lat="45.98599" lon="5.75144">
        <ele>1078.5</ele>
        <time>2021-08-20T13:33:28Z</time>
      </trkpt>
      <trkpt lat="45.98598" lon="5.75144">
        <ele>1078.7</ele>
        <time>2021-08-20T13:33:29Z</time>
      </trkpt>
      <trkpt lat="45.98597" lon="5.75144">
        <ele>1078.8</ele>
        <time>2021-08-20T13:33:30Z</time>
      </trkpt>
      <trkpt lat="45.98596" lon="5.75145">
        <ele>1078.8</ele>
        <time>2021-08-20T13:33:31Z</time>
      </trkpt>
      <trkpt lat="45.98588" lon="5.7515">
        <ele>1079.6</ele>
        <time>2021-08-20T13:33:33Z</time>
      </trkpt>
      <trkpt lat="45.9858" lon="5.75154">
        <ele>1080.3</ele>
        <time>2021-08-20T13:33:34Z</time>
      </trkpt>
      <trkpt lat="45.98572" lon="5.75159">
        <ele>1080.9</ele>
        <time>2021-08-20T13:33:35Z</time>
      </trkpt>
      <trkpt lat="45.98565" lon="5.75164">
        <ele>1081.6</ele>
        <time>2021-08-20T13:33:36Z</time>
      </trkpt>
      <trkpt lat="45.98557" lon="5.75168">
        <ele>1082.3</ele>
        <time>2021-08-20T13:33:38Z</time>
      </trkpt>
      <trkpt lat="45.98549" lon="5.75173">
        <ele>1083.1</ele>
        <time>2021-08-20T13:34:57Z</time>
      </trkpt>
      <trkpt lat="45.98541" lon="5.75178">
        <ele>1083.8</ele>
        <time>2021-08-20T13:34:58Z</time>
      </trkpt>
      <trkpt lat="45.98533" lon="5.75182">
        <ele>1084.4</ele>
        <time>2021-08-20T13:34:59Z</time>
      </trkpt>
      <trkpt lat="45.98531" lon="5.75183">
        <ele>1084.5</ele>
        <time>2021-08-20T13:35:00Z</time>
      </trkpt>
      <trkpt lat="45.98527" lon="5.75184">
        <ele>1084.7</ele>
        <time>2021-08-20T13:35:02Z</time>
      </trkpt>
      <trkpt lat="45.98525" lon="5.75185">
        <ele>1084.9</ele>
        <time>2021-08-20T13:35:03Z</time>
      </trkpt>
      <trkpt lat="45.98521" lon="5.75186">
        <ele>1085.2</ele>
        <time>2021-08-20T13:35:04Z</time>
      </trkpt>
      <trkpt lat="45.98518" lon="5.75187">
        <ele>1085.4</ele>
        <time>2021-08-20T13:35:05Z</time>
      </trkpt>
      <trkpt lat="45.98515" lon="5.75187">
        <ele>1085.6</ele>
        <time>2021-08-20T13:35:07Z</time>
      </trkpt>
      <trkpt lat="45.98512" lon="5.75186">
        <ele>1085.8</ele>
        <time>2021-08-20T13:35:08Z</time>
      </trkpt>
      <trkpt lat="45.98511" lon="5.75186">
        <ele>1085.9</ele>
        <time>2021-08-20T13:35:10Z</time>
      </trkpt>
      <trkpt lat="45.98511" lon="5.75186">
        <ele>1085.9</ele>
        <time>2021-08-20T13:35:12Z</time>
      </trkpt>
      <trkpt lat="45.98511" lon="5.75186">
        <ele>1085.9</ele>
        <time>2021-08-20T13:35:13Z</time>
      </trkpt>
      <trkpt lat="45.9851" lon="5.75186">
        <ele>1085.9</ele>
        <time>2021-08-20T13:35:15Z</time>
      </trkpt>
      <trkpt lat="45.9851" lon="5.75186">
        <ele>1085.9</ele>
        <time>2021-08-20T13:35:16Z</time>
      </trkpt>
      <trkpt lat="45.9851" lon="5.75185">
        <ele>1085.9</ele>
        <time>2021-08-20T13:35:17Z</time>
      </trkpt>
      <trkpt lat="45.9851" lon="5.75185">
        <ele>1085.9</ele>
        <time>2021-08-20T13:35:19Z</time>
      </trkpt>
      <trkpt lat="45.9851" lon="5.75185">
        <ele>1085.9</ele>
        <time>2021-08-20T13:35:20Z</time>
      </trkpt>
      <trkpt lat="45.9851" lon="5.75186">
        <ele>1085.9</ele>
        <time>2021-08-20T13:35:21Z</time>
      </trkpt>
      <trkpt lat="45.9851" lon="5.75186">
        <ele>1085.9</ele>
        <time>2021-08-20T13:35:22Z</time>
      </trkpt>
      <trkpt lat="45.9851" lon="5.75186">
        <ele>1085.9</ele>
        <time>2021-08-20T13:35:24Z</time>
      </trkpt>
      <trkpt lat="45.98489" lon="5.75193">
        <ele>1087.3</ele>
        <time>2021-08-20T13:35:39Z</time>
      </trkpt>
      <trkpt lat="45.98484" lon="5.75196">
        <ele>1087.6</ele>
        <time>2021-08-20T13:35:40Z</time>
      </trkpt>
      <trkpt lat="45.9848" lon="5.752">
        <ele>1088</ele>
        <time>2021-08-20T13:35:42Z</time>
      </trkpt>
      <trkpt lat="45.98477" lon="5.75203">
        <ele>1088.2</ele>
        <time>2021-08-20T13:35:43Z</time>
      </trkpt>
      <trkpt lat="45.98476" lon="5.75205">
        <ele>1088.3</ele>
        <time>2021-08-20T13:35:45Z</time>
      </trkpt>
      <trkpt lat="45.98475" lon="5.75205">
        <ele>1088.4</ele>
        <time>2021-08-20T13:35:46Z</time>
      </trkpt>
      <trkpt lat="45.98473" lon="5.75204">
        <ele>1088.5</ele>
        <time>2021-08-20T13:35:47Z</time>
      </trkpt>
      <trkpt lat="45.98472" lon="5.75203">
        <ele>1088.5</ele>
        <time>2021-08-20T13:35:49Z</time>
      </trkpt>
      <trkpt lat="45.98471" lon="5.75203">
        <ele>1088.6</ele>
        <time>2021-08-20T13:35:50Z</time>
      </trkpt>
      <trkpt lat="45.98468" lon="5.75203">
        <ele>1088.7</ele>
        <time>2021-08-20T13:35:52Z</time>
      </trkpt>
      <trkpt lat="45.98467" lon="5.75203">
        <ele>1088.8</ele>
        <time>2021-08-20T13:35:53Z</time>
      </trkpt>
      <trkpt lat="45.98466" lon="5.75204">
        <ele>1088.8</ele>
        <time>2021-08-20T13:35:54Z</time>
      </trkpt>
      <trkpt lat="45.98465" lon="5.75204">
        <ele>1088.9</ele>
        <time>2021-08-20T13:35:56Z</time>
      </trkpt>
      <trkpt lat="45.98464" lon="5.75204">
        <ele>1088.9</ele>
        <time>2021-08-20T13:35:57Z</time>
      </trkpt>
      <trkpt lat="45.98462" lon="5.75205">
        <ele>1089</ele>
        <time>2021-08-20T13:35:59Z</time>
      </trkpt>
      <trkpt lat="45.98461" lon="5.75206">
        <ele>1089.1</ele>
        <time>2021-08-20T13:36:00Z</time>
      </trkpt>
      <trkpt lat="45.98459" lon="5.75206">
        <ele>1089.2</ele>
        <time>2021-08-20T13:36:01Z</time>
      </trkpt>
      <trkpt lat="45.98456" lon="5.75206">
        <ele>1089.3</ele>
        <time>2021-08-20T13:36:02Z</time>
      </trkpt>
      <trkpt lat="45.98452" lon="5.75206">
        <ele>1089.5</ele>
        <time>2021-08-20T13:36:03Z</time>
      </trkpt>
      <trkpt lat="45.9845" lon="5.75205">
        <ele>1089.6</ele>
        <time>2021-08-20T13:36:05Z</time>
      </trkpt>
      <trkpt lat="45.98449" lon="5.75204">
        <ele>1089.7</ele>
        <time>2021-08-20T13:36:06Z</time>
      </trkpt>
      <trkpt lat="45.98448" lon="5.75202">
        <ele>1089.8</ele>
        <time>2021-08-20T13:36:07Z</time>
      </trkpt>
      <trkpt lat="45.98447" lon="5.752">
        <ele>1089.8</ele>
        <time>2021-08-20T13:36:08Z</time>
      </trkpt>
      <trkpt lat="45.98446" lon="5.75199">
        <ele>1089.9</ele>
        <time>2021-08-20T13:36:10Z</time>
      </trkpt>
      <trkpt lat="45.98446" lon="5.75198">
        <ele>1089.9</ele>
        <time>2021-08-20T13:36:11Z</time>
      </trkpt>
      <trkpt lat="45.98445" lon="5.75197">
        <ele>1090</ele>
        <time>2021-08-20T13:36:12Z</time>
      </trkpt>
      <trkpt lat="45.98443" lon="5.75195">
        <ele>1090.1</ele>
        <time>2021-08-20T13:36:14Z</time>
      </trkpt>
      <trkpt lat="45.9844" lon="5.75193">
        <ele>1090.3</ele>
        <time>2021-08-20T13:36:16Z</time>
      </trkpt>
      <trkpt lat="45.9844" lon="5.75193">
        <ele>1090.3</ele>
        <time>2021-08-20T13:36:16Z</time>
      </trkpt>
      <trkpt lat="45.98436" lon="5.7519">
        <ele>1090.5</ele>
        <time>2021-08-20T13:36:17Z</time>
      </trkpt>
      <trkpt lat="45.98433" lon="5.75188">
        <ele>1090.6</ele>
        <time>2021-08-20T13:36:19Z</time>
      </trkpt>
      <trkpt lat="45.9843" lon="5.75186">
        <ele>1090.7</ele>
        <time>2021-08-20T13:36:20Z</time>
      </trkpt>
      <trkpt lat="45.98426" lon="5.75183">
        <ele>1091</ele>
        <time>2021-08-20T13:36:22Z</time>
      </trkpt>
      <trkpt lat="45.98424" lon="5.75181">
        <ele>1091.1</ele>
        <time>2021-08-20T13:36:23Z</time>
      </trkpt>
      <trkpt lat="45.98424" lon="5.7518">
        <ele>1091.1</ele>
        <time>2021-08-20T13:36:24Z</time>
      </trkpt>
      <trkpt lat="45.98424" lon="5.75179">
        <ele>1091.2</ele>
        <time>2021-08-20T13:36:25Z</time>
      </trkpt>
      <trkpt lat="45.98424" lon="5.75178">
        <ele>1091.2</ele>
        <time>2021-08-20T13:36:27Z</time>
      </trkpt>
      <trkpt lat="45.98424" lon="5.75178">
        <ele>1091.2</ele>
        <time>2021-08-20T13:36:28Z</time>
      </trkpt>
      <trkpt lat="45.98424" lon="5.75177">
        <ele>1091.2</ele>
        <time>2021-08-20T13:36:29Z</time>
      </trkpt>
      <trkpt lat="45.98416" lon="5.75173">
        <ele>1091.7</ele>
        <time>2021-08-20T13:36:36Z</time>
      </trkpt>
      <trkpt lat="45.98412" lon="5.75173">
        <ele>1091.9</ele>
        <time>2021-08-20T13:36:38Z</time>
      </trkpt>
      <trkpt lat="45.98407" lon="5.75174">
        <ele>1092.2</ele>
        <time>2021-08-20T13:36:40Z</time>
      </trkpt>
      <trkpt lat="45.98404" lon="5.75174">
        <ele>1092.4</ele>
        <time>2021-08-20T13:36:41Z</time>
      </trkpt>
      <trkpt lat="45.98401" lon="5.75175">
        <ele>1092.6</ele>
        <time>2021-08-20T13:36:42Z</time>
      </trkpt>
      <trkpt lat="45.98397" lon="5.75175">
        <ele>1092.9</ele>
        <time>2021-08-20T13:36:44Z</time>
      </trkpt>
      <trkpt lat="45.98395" lon="5.75176">
        <ele>1093.1</ele>
        <time>2021-08-20T13:36:45Z</time>
      </trkpt>
      <trkpt lat="45.98392" lon="5.75177">
        <ele>1093.3</ele>
        <time>2021-08-20T13:36:47Z</time>
      </trkpt>
      <trkpt lat="45.98389" lon="5.75178">
        <ele>1093.6</ele>
        <time>2021-08-20T13:36:49Z</time>
      </trkpt>
      <trkpt lat="45.98384" lon="5.75178">
        <ele>1094</ele>
        <time>2021-08-20T13:36:50Z</time>
      </trkpt>
      <trkpt lat="45.98378" lon="5.75178">
        <ele>1094.7</ele>
        <time>2021-08-20T13:36:52Z</time>
      </trkpt>
      <trkpt lat="45.98372" lon="5.75176">
        <ele>1095.3</ele>
        <time>2021-08-20T13:36:54Z</time>
      </trkpt>
      <trkpt lat="45.98369" lon="5.75173">
        <ele>1095.6</ele>
        <time>2021-08-20T13:36:55Z</time>
      </trkpt>
      <trkpt lat="45.98369" lon="5.75172">
        <ele>1095.7</ele>
        <time>2021-08-20T13:36:56Z</time>
      </trkpt>
      <trkpt lat="45.98366" lon="5.75171">
        <ele>1096</ele>
        <time>2021-08-20T13:36:57Z</time>
      </trkpt>
      <trkpt lat="45.98366" lon="5.7517">
        <ele>1096.1</ele>
        <time>2021-08-20T13:36:59Z</time>
      </trkpt>
      <trkpt lat="45.98365" lon="5.7517">
        <ele>1096.1</ele>
        <time>2021-08-20T13:37:00Z</time>
      </trkpt>
      <trkpt lat="45.98364" lon="5.7517">
        <ele>1096.2</ele>
        <time>2021-08-20T13:37:01Z</time>
      </trkpt>
      <trkpt lat="45.98364" lon="5.7517">
        <ele>1096.2</ele>
        <time>2021-08-20T13:37:03Z</time>
      </trkpt>
      <trkpt lat="45.98363" lon="5.7517">
        <ele>1096.3</ele>
        <time>2021-08-20T13:37:04Z</time>
      </trkpt>
      <trkpt lat="45.98363" lon="5.7517">
        <ele>1096.4</ele>
        <time>2021-08-20T13:37:05Z</time>
      </trkpt>
      <trkpt lat="45.98362" lon="5.7517">
        <ele>1096.4</ele>
        <time>2021-08-20T13:37:07Z</time>
      </trkpt>
      <trkpt lat="45.98361" lon="5.75169">
        <ele>1096.5</ele>
        <time>2021-08-20T13:37:09Z</time>
      </trkpt>
      <trkpt lat="45.98361" lon="5.75169">
        <ele>1096.5</ele>
        <time>2021-08-20T13:37:10Z</time>
      </trkpt>
      <trkpt lat="45.9836" lon="5.75169">
        <ele>1096.6</ele>
        <time>2021-08-20T13:37:11Z</time>
      </trkpt>
      <trkpt lat="45.9836" lon="5.75169">
        <ele>1096.6</ele>
        <time>2021-08-20T13:37:13Z</time>
      </trkpt>
      <trkpt lat="45.98359" lon="5.75169">
        <ele>1096.7</ele>
        <time>2021-08-20T13:37:15Z</time>
      </trkpt>
      <trkpt lat="45.98359" lon="5.75169">
        <ele>1096.7</ele>
        <time>2021-08-20T13:37:17Z</time>
      </trkpt>
      <trkpt lat="45.98358" lon="5.75169">
        <ele>1096.8</ele>
        <time>2021-08-20T13:37:18Z</time>
      </trkpt>
      <trkpt lat="45.98355" lon="5.7517">
        <ele>1097</ele>
        <time>2021-08-20T13:37:20Z</time>
      </trkpt>
      <trkpt lat="45.98354" lon="5.75171">
        <ele>1097.1</ele>
        <time>2021-08-20T13:37:21Z</time>
      </trkpt>
      <trkpt lat="45.9835" lon="5.75173">
        <ele>1097.5</ele>
        <time>2021-08-20T13:37:23Z</time>
      </trkpt>
      <trkpt lat="45.98346" lon="5.75174">
        <ele>1097.8</ele>
        <time>2021-08-20T13:37:25Z</time>
      </trkpt>
      <trkpt lat="45.98345" lon="5.75175">
        <ele>1097.9</ele>
        <time>2021-08-20T13:37:26Z</time>
      </trkpt>
      <trkpt lat="45.98343" lon="5.75175">
        <ele>1098</ele>
        <time>2021-08-20T13:37:27Z</time>
      </trkpt>
      <trkpt lat="45.98343" lon="5.75175">
        <ele>1098</ele>
        <time>2021-08-20T13:37:29Z</time>
      </trkpt>
      <trkpt lat="45.98343" lon="5.75174">
        <ele>1098.1</ele>
        <time>2021-08-20T13:37:31Z</time>
      </trkpt>
      <trkpt lat="45.98343" lon="5.75174">
        <ele>1098.1</ele>
        <time>2021-08-20T13:37:32Z</time>
      </trkpt>
      <trkpt lat="45.98344" lon="5.75173">
        <ele>1098.1</ele>
        <time>2021-08-20T13:37:33Z</time>
      </trkpt>
      <trkpt lat="45.98344" lon="5.75173">
        <ele>1098.1</ele>
        <time>2021-08-20T13:37:35Z</time>
      </trkpt>
      <trkpt lat="45.98344" lon="5.75173">
        <ele>1098.2</ele>
        <time>2021-08-20T13:37:36Z</time>
      </trkpt>
      <trkpt lat="45.98344" lon="5.75173">
        <ele>1098.2</ele>
        <time>2021-08-20T13:37:38Z</time>
      </trkpt>
      <trkpt lat="45.98344" lon="5.75172">
        <ele>1098.2</ele>
        <time>2021-08-20T13:37:39Z</time>
      </trkpt>
      <trkpt lat="45.98343" lon="5.75171">
        <ele>1098.3</ele>
        <time>2021-08-20T13:37:41Z</time>
      </trkpt>
      <trkpt lat="45.98341" lon="5.7517">
        <ele>1098.4</ele>
        <time>2021-08-20T13:37:43Z</time>
      </trkpt>
      <trkpt lat="45.98337" lon="5.75168">
        <ele>1098.7</ele>
        <time>2021-08-20T13:37:44Z</time>
      </trkpt>
      <trkpt lat="45.98334" lon="5.75168">
        <ele>1098.9</ele>
        <time>2021-08-20T13:37:45Z</time>
      </trkpt>
      <trkpt lat="45.98331" lon="5.75167">
        <ele>1099.1</ele>
        <time>2021-08-20T13:37:47Z</time>
      </trkpt>
      <trkpt lat="45.98329" lon="5.75167">
        <ele>1099.1</ele>
        <time>2021-08-20T13:37:48Z</time>
      </trkpt>
      <trkpt lat="45.98328" lon="5.75167">
        <ele>1099.2</ele>
        <time>2021-08-20T13:37:49Z</time>
      </trkpt>
      <trkpt lat="45.98326" lon="5.75166">
        <ele>1099.3</ele>
        <time>2021-08-20T13:37:51Z</time>
      </trkpt>
      <trkpt lat="45.98324" lon="5.75166">
        <ele>1099.4</ele>
        <time>2021-08-20T13:37:52Z</time>
      </trkpt>
      <trkpt lat="45.98323" lon="5.75165">
        <ele>1099.5</ele>
        <time>2021-08-20T13:37:54Z</time>
      </trkpt>
      <trkpt lat="45.98322" lon="5.75165">
        <ele>1099.5</ele>
        <time>2021-08-20T13:37:55Z</time>
      </trkpt>
      <trkpt lat="45.98321" lon="5.75165">
        <ele>1099.6</ele>
        <time>2021-08-20T13:37:57Z</time>
      </trkpt>
      <trkpt lat="45.9832" lon="5.75165">
        <ele>1099.6</ele>
        <time>2021-08-20T13:37:59Z</time>
      </trkpt>
      <trkpt lat="45.98316" lon="5.75165">
        <ele>1099.8</ele>
        <time>2021-08-20T13:38:01Z</time>
      </trkpt>
      <trkpt lat="45.98314" lon="5.75166">
        <ele>1100</ele>
        <time>2021-08-20T13:38:02Z</time>
      </trkpt>
      <trkpt lat="45.9831" lon="5.75167">
        <ele>1100.2</ele>
        <time>2021-08-20T13:38:03Z</time>
      </trkpt>
      <trkpt lat="45.98309" lon="5.75167">
        <ele>1100.2</ele>
        <time>2021-08-20T13:38:04Z</time>
      </trkpt>
      <trkpt lat="45.98309" lon="5.75167">
        <ele>1100.3</ele>
        <time>2021-08-20T13:38:06Z</time>
      </trkpt>
      <trkpt lat="45.98308" lon="5.75167">
        <ele>1100.3</ele>
        <time>2021-08-20T13:38:07Z</time>
      </trkpt>
      <trkpt lat="45.98308" lon="5.75167">
        <ele>1100.3</ele>
        <time>2021-08-20T13:38:08Z</time>
      </trkpt>
      <trkpt lat="45.98307" lon="5.75167">
        <ele>1100.4</ele>
        <time>2021-08-20T13:38:09Z</time>
      </trkpt>
      <trkpt lat="45.98307" lon="5.75167">
        <ele>1100.4</ele>
        <time>2021-08-20T13:38:11Z</time>
      </trkpt>
      <trkpt lat="45.98305" lon="5.75168">
        <ele>1100.5</ele>
        <time>2021-08-20T13:38:13Z</time>
      </trkpt>
      <trkpt lat="45.98304" lon="5.75168">
        <ele>1100.6</ele>
        <time>2021-08-20T13:38:14Z</time>
      </trkpt>
      <trkpt lat="45.98303" lon="5.75169">
        <ele>1100.6</ele>
        <time>2021-08-20T13:38:15Z</time>
      </trkpt>
      <trkpt lat="45.98302" lon="5.75169">
        <ele>1100.7</ele>
        <time>2021-08-20T13:38:17Z</time>
      </trkpt>
      <trkpt lat="45.98302" lon="5.7517">
        <ele>1100.7</ele>
        <time>2021-08-20T13:38:18Z</time>
      </trkpt>
      <trkpt lat="45.98301" lon="5.7517">
        <ele>1100.7</ele>
        <time>2021-08-20T13:38:20Z</time>
      </trkpt>
      <trkpt lat="45.98301" lon="5.75171">
        <ele>1100.8</ele>
        <time>2021-08-20T13:38:21Z</time>
      </trkpt>
      <trkpt lat="45.98299" lon="5.75172">
        <ele>1100.9</ele>
        <time>2021-08-20T13:38:23Z</time>
      </trkpt>
      <trkpt lat="45.98297" lon="5.75174">
        <ele>1101</ele>
        <time>2021-08-20T13:38:25Z</time>
      </trkpt>
      <trkpt lat="45.98295" lon="5.75176">
        <ele>1101.2</ele>
        <time>2021-08-20T13:38:27Z</time>
      </trkpt>
      <trkpt lat="45.98294" lon="5.75176">
        <ele>1101.2</ele>
        <time>2021-08-20T13:38:28Z</time>
      </trkpt>
      <trkpt lat="45.98293" lon="5.75177">
        <ele>1101.3</ele>
        <time>2021-08-20T13:38:29Z</time>
      </trkpt>
      <trkpt lat="45.98293" lon="5.75177">
        <ele>1101.3</ele>
        <time>2021-08-20T13:38:31Z</time>
      </trkpt>
      <trkpt lat="45.9829" lon="5.75179">
        <ele>1101.5</ele>
        <time>2021-08-20T13:38:33Z</time>
      </trkpt>
      <trkpt lat="45.98278" lon="5.75188">
        <ele>1102.4</ele>
        <time>2021-08-20T13:38:35Z</time>
      </trkpt>
      <trkpt lat="45.98269" lon="5.75194">
        <ele>1103.3</ele>
        <time>2021-08-20T13:38:36Z</time>
      </trkpt>
      <trkpt lat="45.98266" lon="5.75196">
        <ele>1103.5</ele>
        <time>2021-08-20T13:38:37Z</time>
      </trkpt>
      <trkpt lat="45.98263" lon="5.75195">
        <ele>1103.8</ele>
        <time>2021-08-20T13:38:38Z</time>
      </trkpt>
      <trkpt lat="45.98262" lon="5.75195">
        <ele>1103.9</ele>
        <time>2021-08-20T13:38:39Z</time>
      </trkpt>
      <trkpt lat="45.9826" lon="5.75195">
        <ele>1104</ele>
        <time>2021-08-20T13:38:40Z</time>
      </trkpt>
      <trkpt lat="45.98258" lon="5.75195">
        <ele>1104.2</ele>
        <time>2021-08-20T13:38:42Z</time>
      </trkpt>
      <trkpt lat="45.98257" lon="5.75195">
        <ele>1104.2</ele>
        <time>2021-08-20T13:38:43Z</time>
      </trkpt>
      <trkpt lat="45.98257" lon="5.75193">
        <ele>1104.3</ele>
        <time>2021-08-20T13:38:45Z</time>
      </trkpt>
      <trkpt lat="45.98256" lon="5.75192">
        <ele>1104.4</ele>
        <time>2021-08-20T13:38:46Z</time>
      </trkpt>
      <trkpt lat="45.98256" lon="5.75191">
        <ele>1104.5</ele>
        <time>2021-08-20T13:38:48Z</time>
      </trkpt>
      <trkpt lat="45.98255" lon="5.7519">
        <ele>1104.5</ele>
        <time>2021-08-20T13:38:49Z</time>
      </trkpt>
      <trkpt lat="45.98255" lon="5.7519">
        <ele>1104.6</ele>
        <time>2021-08-20T13:38:50Z</time>
      </trkpt>
      <trkpt lat="45.98254" lon="5.75189">
        <ele>1104.7</ele>
        <time>2021-08-20T13:38:51Z</time>
      </trkpt>
      <trkpt lat="45.98254" lon="5.75188">
        <ele>1104.7</ele>
        <time>2021-08-20T13:38:53Z</time>
      </trkpt>
      <trkpt lat="45.98254" lon="5.75187">
        <ele>1104.8</ele>
        <time>2021-08-20T13:38:54Z</time>
      </trkpt>
      <trkpt lat="45.98253" lon="5.75186">
        <ele>1104.8</ele>
        <time>2021-08-20T13:38:55Z</time>
      </trkpt>
      <trkpt lat="45.98253" lon="5.75186">
        <ele>1104.9</ele>
        <time>2021-08-20T13:38:56Z</time>
      </trkpt>
      <trkpt lat="45.98253" lon="5.75185">
        <ele>1104.9</ele>
        <time>2021-08-20T13:38:57Z</time>
      </trkpt>
      <trkpt lat="45.98253" lon="5.75184">
        <ele>1105</ele>
        <time>2021-08-20T13:38:58Z</time>
      </trkpt>
      <trkpt lat="45.98253" lon="5.75184">
        <ele>1105</ele>
        <time>2021-08-20T13:39:00Z</time>
      </trkpt>
      <trkpt lat="45.98252" lon="5.75183">
        <ele>1105.1</ele>
        <time>2021-08-20T13:39:01Z</time>
      </trkpt>
      <trkpt lat="45.98251" lon="5.75179">
        <ele>1105.3</ele>
        <time>2021-08-20T13:39:03Z</time>
      </trkpt>
      <trkpt lat="45.98251" lon="5.75178">
        <ele>1105.4</ele>
        <time>2021-08-20T13:39:04Z</time>
      </trkpt>
      <trkpt lat="45.98249" lon="5.75176">
        <ele>1105.6</ele>
        <time>2021-08-20T13:39:05Z</time>
      </trkpt>
      <trkpt lat="45.98247" lon="5.75175">
        <ele>1105.7</ele>
        <time>2021-08-20T13:39:07Z</time>
      </trkpt>
      <trkpt lat="45.98246" lon="5.75175">
        <ele>1105.8</ele>
        <time>2021-08-20T13:39:08Z</time>
      </trkpt>
      <trkpt lat="45.98246" lon="5.75175">
        <ele>1105.9</ele>
        <time>2021-08-20T13:39:09Z</time>
      </trkpt>
      <trkpt lat="45.98245" lon="5.75175">
        <ele>1106</ele>
        <time>2021-08-20T13:39:10Z</time>
      </trkpt>
      <trkpt lat="45.98244" lon="5.75174">
        <ele>1106</ele>
        <time>2021-08-20T13:39:12Z</time>
      </trkpt>
      <trkpt lat="45.98243" lon="5.75173">
        <ele>1106.1</ele>
        <time>2021-08-20T13:39:13Z</time>
      </trkpt>
      <trkpt lat="45.98242" lon="5.75171">
        <ele>1106.2</ele>
        <time>2021-08-20T13:39:14Z</time>
      </trkpt>
      <trkpt lat="45.98242" lon="5.75171">
        <ele>1106.3</ele>
        <time>2021-08-20T13:39:16Z</time>
      </trkpt>
      <trkpt lat="45.98241" lon="5.7517">
        <ele>1106.4</ele>
        <time>2021-08-20T13:39:17Z</time>
      </trkpt>
      <trkpt lat="45.9824" lon="5.7517">
        <ele>1106.5</ele>
        <time>2021-08-20T13:39:18Z</time>
      </trkpt>
      <trkpt lat="45.98239" lon="5.75171">
        <ele>1106.5</ele>
        <time>2021-08-20T13:39:19Z</time>
      </trkpt>
      <trkpt lat="45.98239" lon="5.75171">
        <ele>1106.6</ele>
        <time>2021-08-20T13:39:21Z</time>
      </trkpt>
      <trkpt lat="45.98238" lon="5.75171">
        <ele>1106.6</ele>
        <time>2021-08-20T13:39:23Z</time>
      </trkpt>
      <trkpt lat="45.98238" lon="5.75171">
        <ele>1106.6</ele>
        <time>2021-08-20T13:39:24Z</time>
      </trkpt>
      <trkpt lat="45.98238" lon="5.75171">
        <ele>1106.7</ele>
        <time>2021-08-20T13:39:25Z</time>
      </trkpt>
      <trkpt lat="45.98237" lon="5.7517">
        <ele>1106.7</ele>
        <time>2021-08-20T13:39:27Z</time>
      </trkpt>
      <trkpt lat="45.98237" lon="5.75169">
        <ele>1106.8</ele>
        <time>2021-08-20T13:39:28Z</time>
      </trkpt>
      <trkpt lat="45.98236" lon="5.75167">
        <ele>1106.9</ele>
        <time>2021-08-20T13:39:29Z</time>
      </trkpt>
      <trkpt lat="45.98235" lon="5.75166">
        <ele>1107</ele>
        <time>2021-08-20T13:39:31Z</time>
      </trkpt>
      <trkpt lat="45.98234" lon="5.75165">
        <ele>1107.1</ele>
        <time>2021-08-20T13:39:32Z</time>
      </trkpt>
      <trkpt lat="45.98233" lon="5.75163">
        <ele>1107.3</ele>
        <time>2021-08-20T13:39:33Z</time>
      </trkpt>
      <trkpt lat="45.98231" lon="5.75161">
        <ele>1107.5</ele>
        <time>2021-08-20T13:39:35Z</time>
      </trkpt>
      <trkpt lat="45.98228" lon="5.75161">
        <ele>1107.7</ele>
        <time>2021-08-20T13:39:36Z</time>
      </trkpt>
      <trkpt lat="45.98225" lon="5.75161">
        <ele>1108</ele>
        <time>2021-08-20T13:39:38Z</time>
      </trkpt>
      <trkpt lat="45.98219" lon="5.75162">
        <ele>1108.5</ele>
        <time>2021-08-20T13:39:40Z</time>
      </trkpt>
      <trkpt lat="45.98218" lon="5.75162">
        <ele>1108.6</ele>
        <time>2021-08-20T13:39:41Z</time>
      </trkpt>
      <trkpt lat="45.98218" lon="5.75162">
        <ele>1108.7</ele>
        <time>2021-08-20T13:39:42Z</time>
      </trkpt>
      <trkpt lat="45.98217" lon="5.75163">
        <ele>1108.7</ele>
        <time>2021-08-20T13:39:43Z</time>
      </trkpt>
      <trkpt lat="45.98217" lon="5.75163">
        <ele>1108.7</ele>
        <time>2021-08-20T13:39:45Z</time>
      </trkpt>
      <trkpt lat="45.98217" lon="5.75163">
        <ele>1108.8</ele>
        <time>2021-08-20T13:39:46Z</time>
      </trkpt>
      <trkpt lat="45.98027" lon="5.75177">
        <ele>1123.6</ele>
        <time>2021-08-20T13:43:17Z</time>
      </trkpt>
      <trkpt lat="45.98024" lon="5.75178">
        <ele>1123.8</ele>
        <time>2021-08-20T13:43:19Z</time>
      </trkpt>
      <trkpt lat="45.98022" lon="5.75179">
        <ele>1123.8</ele>
        <time>2021-08-20T13:43:20Z</time>
      </trkpt>
      <trkpt lat="45.9802" lon="5.75179">
        <ele>1124</ele>
        <time>2021-08-20T13:43:22Z</time>
      </trkpt>
      <trkpt lat="45.98019" lon="5.75179">
        <ele>1124</ele>
        <time>2021-08-20T13:43:23Z</time>
      </trkpt>
      <trkpt lat="45.98017" lon="5.75179">
        <ele>1124.1</ele>
        <time>2021-08-20T13:43:24Z</time>
      </trkpt>
      <trkpt lat="45.98016" lon="5.75179">
        <ele>1124.2</ele>
        <time>2021-08-20T13:43:26Z</time>
      </trkpt>
      <trkpt lat="45.98015" lon="5.75179">
        <ele>1124.3</ele>
        <time>2021-08-20T13:43:27Z</time>
      </trkpt>
      <trkpt lat="45.98013" lon="5.75179">
        <ele>1124.3</ele>
        <time>2021-08-20T13:43:28Z</time>
      </trkpt>
      <trkpt lat="45.98011" lon="5.75179">
        <ele>1124.4</ele>
        <time>2021-08-20T13:43:29Z</time>
      </trkpt>
      <trkpt lat="45.98009" lon="5.75179">
        <ele>1124.5</ele>
        <time>2021-08-20T13:43:31Z</time>
      </trkpt>
      <trkpt lat="45.98008" lon="5.75179">
        <ele>1124.6</ele>
        <time>2021-08-20T13:43:32Z</time>
      </trkpt>
      <trkpt lat="45.98007" lon="5.7518">
        <ele>1124.6</ele>
        <time>2021-08-20T13:43:33Z</time>
      </trkpt>
      <trkpt lat="45.98005" lon="5.7518">
        <ele>1124.7</ele>
        <time>2021-08-20T13:43:35Z</time>
      </trkpt>
      <trkpt lat="45.98004" lon="5.75181">
        <ele>1124.7</ele>
        <time>2021-08-20T13:43:36Z</time>
      </trkpt>
      <trkpt lat="45.98001" lon="5.75182">
        <ele>1124.8</ele>
        <time>2021-08-20T13:43:38Z</time>
      </trkpt>
      <trkpt lat="45.97999" lon="5.75182">
        <ele>1125</ele>
        <time>2021-08-20T13:43:40Z</time>
      </trkpt>
      <trkpt lat="45.97997" lon="5.75183">
        <ele>1125</ele>
        <time>2021-08-20T13:43:41Z</time>
      </trkpt>
      <trkpt lat="45.97991" lon="5.75185">
        <ele>1125.3</ele>
        <time>2021-08-20T13:43:46Z</time>
      </trkpt>
      <trkpt lat="45.97988" lon="5.75186">
        <ele>1125.4</ele>
        <time>2021-08-20T13:43:47Z</time>
      </trkpt>
      <trkpt lat="45.97984" lon="5.75187">
        <ele>1125.5</ele>
        <time>2021-08-20T13:43:49Z</time>
      </trkpt>
      <trkpt lat="45.97982" lon="5.75187">
        <ele>1125.6</ele>
        <time>2021-08-20T13:43:50Z</time>
      </trkpt>
      <trkpt lat="45.9798" lon="5.75187">
        <ele>1125.7</ele>
        <time>2021-08-20T13:43:51Z</time>
      </trkpt>
      <trkpt lat="45.97978" lon="5.75186">
        <ele>1125.7</ele>
        <time>2021-08-20T13:43:52Z</time>
      </trkpt>
      <trkpt lat="45.97974" lon="5.75186">
        <ele>1125.8</ele>
        <time>2021-08-20T13:43:54Z</time>
      </trkpt>
      <trkpt lat="45.97971" lon="5.75188">
        <ele>1125.9</ele>
        <time>2021-08-20T13:43:56Z</time>
      </trkpt>
      <trkpt lat="45.97967" lon="5.75191">
        <ele>1126</ele>
        <time>2021-08-20T13:43:57Z</time>
      </trkpt>
      <trkpt lat="45.97966" lon="5.75191">
        <ele>1126</ele>
        <time>2021-08-20T13:43:58Z</time>
      </trkpt>
      <trkpt lat="45.97964" lon="5.75194">
        <ele>1126.1</ele>
        <time>2021-08-20T13:43:59Z</time>
      </trkpt>
      <trkpt lat="45.97963" lon="5.75195">
        <ele>1126.1</ele>
        <time>2021-08-20T13:44:00Z</time>
      </trkpt>
      <trkpt lat="45.97959" lon="5.75198">
        <ele>1126.2</ele>
        <time>2021-08-20T13:44:02Z</time>
      </trkpt>
      <trkpt lat="45.97955" lon="5.75199">
        <ele>1126.2</ele>
        <time>2021-08-20T13:44:04Z</time>
      </trkpt>
      <trkpt lat="45.97951" lon="5.752">
        <ele>1126.3</ele>
        <time>2021-08-20T13:44:05Z</time>
      </trkpt>
      <trkpt lat="45.97946" lon="5.75202">
        <ele>1126.3</ele>
        <time>2021-08-20T13:44:07Z</time>
      </trkpt>
      <trkpt lat="45.97943" lon="5.75203">
        <ele>1126.3</ele>
        <time>2021-08-20T13:44:08Z</time>
      </trkpt>
      <trkpt lat="45.9794" lon="5.75203">
        <ele>1126.4</ele>
        <time>2021-08-20T13:44:09Z</time>
      </trkpt>
      <trkpt lat="45.97938" lon="5.75204">
        <ele>1126.4</ele>
        <time>2021-08-20T13:44:10Z</time>
      </trkpt>
      <trkpt lat="45.97934" lon="5.75203">
        <ele>1126.4</ele>
        <time>2021-08-20T13:44:11Z</time>
      </trkpt>
      <trkpt lat="45.97933" lon="5.75202">
        <ele>1126.5</ele>
        <time>2021-08-20T13:44:12Z</time>
      </trkpt>
      <trkpt lat="45.97932" lon="5.752">
        <ele>1126.5</ele>
        <time>2021-08-20T13:44:13Z</time>
      </trkpt>
      <trkpt lat="45.9793" lon="5.75199">
        <ele>1126.5</ele>
        <time>2021-08-20T13:44:15Z</time>
      </trkpt>
      <trkpt lat="45.97928" lon="5.75198">
        <ele>1126.6</ele>
        <time>2021-08-20T13:44:16Z</time>
      </trkpt>
      <trkpt lat="45.97927" lon="5.75197">
        <ele>1126.6</ele>
        <time>2021-08-20T13:44:17Z</time>
      </trkpt>
      <trkpt lat="45.97924" lon="5.75196">
        <ele>1126.7</ele>
        <time>2021-08-20T13:44:18Z</time>
      </trkpt>
      <trkpt lat="45.97922" lon="5.75196">
        <ele>1126.7</ele>
        <time>2021-08-20T13:44:19Z</time>
      </trkpt>
      <trkpt lat="45.97918" lon="5.75193">
        <ele>1126.8</ele>
        <time>2021-08-20T13:44:21Z</time>
      </trkpt>
      <trkpt lat="45.97914" lon="5.75192">
        <ele>1126.9</ele>
        <time>2021-08-20T13:44:22Z</time>
      </trkpt>
      <trkpt lat="45.97911" lon="5.75192">
        <ele>1127</ele>
        <time>2021-08-20T13:44:23Z</time>
      </trkpt>
      <trkpt lat="45.9791" lon="5.75192">
        <ele>1127</ele>
        <time>2021-08-20T13:44:24Z</time>
      </trkpt>
      <trkpt lat="45.97907" lon="5.75191">
        <ele>1127.2</ele>
        <time>2021-08-20T13:44:26Z</time>
      </trkpt>
      <trkpt lat="45.97902" lon="5.7519">
        <ele>1127.4</ele>
        <time>2021-08-20T13:44:27Z</time>
      </trkpt>
      <trkpt lat="45.979" lon="5.75189">
        <ele>1127.5</ele>
        <time>2021-08-20T13:44:28Z</time>
      </trkpt>
      <trkpt lat="45.97899" lon="5.75189">
        <ele>1127.5</ele>
        <time>2021-08-20T13:44:29Z</time>
      </trkpt>
      <trkpt lat="45.97899" lon="5.75189">
        <ele>1127.6</ele>
        <time>2021-08-20T13:44:31Z</time>
      </trkpt>
      <trkpt lat="45.97898" lon="5.75189">
        <ele>1127.6</ele>
        <time>2021-08-20T13:44:32Z</time>
      </trkpt>
      <trkpt lat="45.97898" lon="5.75189">
        <ele>1127.6</ele>
        <time>2021-08-20T13:44:33Z</time>
      </trkpt>
      <trkpt lat="45.97897" lon="5.75189">
        <ele>1127.7</ele>
        <time>2021-08-20T13:44:34Z</time>
      </trkpt>
      <trkpt lat="45.97896" lon="5.75189">
        <ele>1127.7</ele>
        <time>2021-08-20T13:44:35Z</time>
      </trkpt>
      <trkpt lat="45.97896" lon="5.75188">
        <ele>1127.7</ele>
        <time>2021-08-20T13:44:37Z</time>
      </trkpt>
      <trkpt lat="45.97895" lon="5.75188">
        <ele>1127.8</ele>
        <time>2021-08-20T13:44:38Z</time>
      </trkpt>
      <trkpt lat="45.97894" lon="5.75188">
        <ele>1127.9</ele>
        <time>2021-08-20T13:44:40Z</time>
      </trkpt>
      <trkpt lat="45.97893" lon="5.75187">
        <ele>1127.9</ele>
        <time>2021-08-20T13:44:41Z</time>
      </trkpt>
      <trkpt lat="45.97892" lon="5.75187">
        <ele>1128</ele>
        <time>2021-08-20T13:44:43Z</time>
      </trkpt>
      <trkpt lat="45.9789" lon="5.75186">
        <ele>1128.1</ele>
        <time>2021-08-20T13:44:44Z</time>
      </trkpt>
      <trkpt lat="45.97886" lon="5.75185">
        <ele>1128.5</ele>
        <time>2021-08-20T13:44:46Z</time>
      </trkpt>
      <trkpt lat="45.97882" lon="5.75184">
        <ele>1128.7</ele>
        <time>2021-08-20T13:44:47Z</time>
      </trkpt>
      <trkpt lat="45.97881" lon="5.75183">
        <ele>1128.8</ele>
        <time>2021-08-20T13:44:48Z</time>
      </trkpt>
      <trkpt lat="45.97877" lon="5.75183">
        <ele>1129</ele>
        <time>2021-08-20T13:44:50Z</time>
      </trkpt>
      <trkpt lat="45.97873" lon="5.75184">
        <ele>1129.3</ele>
        <time>2021-08-20T13:44:52Z</time>
      </trkpt>
      <trkpt lat="45.97869" lon="5.75186">
        <ele>1129.6</ele>
        <time>2021-08-20T13:44:54Z</time>
      </trkpt>
      <trkpt lat="45.97866" lon="5.75188">
        <ele>1129.8</ele>
        <time>2021-08-20T13:44:55Z</time>
      </trkpt>
      <trkpt lat="45.97862" lon="5.7519">
        <ele>1130.1</ele>
        <time>2021-08-20T13:44:57Z</time>
      </trkpt>
      <trkpt lat="45.97859" lon="5.75193">
        <ele>1130.3</ele>
        <time>2021-08-20T13:44:58Z</time>
      </trkpt>
      <trkpt lat="45.97856" lon="5.75195">
        <ele>1130.5</ele>
        <time>2021-08-20T13:44:59Z</time>
      </trkpt>
      <trkpt lat="45.97855" lon="5.75196">
        <ele>1130.6</ele>
        <time>2021-08-20T13:45:00Z</time>
      </trkpt>
      <trkpt lat="45.97851" lon="5.75197">
        <ele>1130.7</ele>
        <time>2021-08-20T13:45:02Z</time>
      </trkpt>
      <trkpt lat="45.97847" lon="5.75198">
        <ele>1131</ele>
        <time>2021-08-20T13:45:03Z</time>
      </trkpt>
      <trkpt lat="45.97843" lon="5.752">
        <ele>1131.2</ele>
        <time>2021-08-20T13:45:05Z</time>
      </trkpt>
      <trkpt lat="45.97839" lon="5.75203">
        <ele>1131.4</ele>
        <time>2021-08-20T13:45:06Z</time>
      </trkpt>
      <trkpt lat="45.97837" lon="5.75205">
        <ele>1131.5</ele>
        <time>2021-08-20T13:45:07Z</time>
      </trkpt>
      <trkpt lat="45.97835" lon="5.75208">
        <ele>1131.6</ele>
        <time>2021-08-20T13:45:08Z</time>
      </trkpt>
      <trkpt lat="45.97834" lon="5.7521">
        <ele>1131.7</ele>
        <time>2021-08-20T13:45:09Z</time>
      </trkpt>
      <trkpt lat="45.97831" lon="5.75213">
        <ele>1131.9</ele>
        <time>2021-08-20T13:45:11Z</time>
      </trkpt>
      <trkpt lat="45.97828" lon="5.75214">
        <ele>1132</ele>
        <time>2021-08-20T13:45:12Z</time>
      </trkpt>
      <trkpt lat="45.97828" lon="5.75214">
        <ele>1132</ele>
        <time>2021-08-20T13:45:14Z</time>
      </trkpt>
      <trkpt lat="45.97826" lon="5.75211">
        <ele>1132.1</ele>
        <time>2021-08-20T13:45:15Z</time>
      </trkpt>
      <trkpt lat="45.97825" lon="5.7521">
        <ele>1132.2</ele>
        <time>2021-08-20T13:45:16Z</time>
      </trkpt>
      <trkpt lat="45.97825" lon="5.7521">
        <ele>1132.2</ele>
        <time>2021-08-20T13:45:17Z</time>
      </trkpt>
      <trkpt lat="45.97824" lon="5.7521">
        <ele>1132.2</ele>
        <time>2021-08-20T13:45:18Z</time>
      </trkpt>
      <trkpt lat="45.97823" lon="5.7521">
        <ele>1132.3</ele>
        <time>2021-08-20T13:45:20Z</time>
      </trkpt>
      <trkpt lat="45.97821" lon="5.75209">
        <ele>1132.4</ele>
        <time>2021-08-20T13:45:22Z</time>
      </trkpt>
      <trkpt lat="45.97726" lon="5.75202">
        <ele>1141.8</ele>
        <time>2021-08-20T13:48:52Z</time>
      </trkpt>
      <trkpt lat="45.97722" lon="5.75204">
        <ele>1142.2</ele>
        <time>2021-08-20T13:48:53Z</time>
      </trkpt>
      <trkpt lat="45.97719" lon="5.75206">
        <ele>1142.6</ele>
        <time>2021-08-20T13:48:54Z</time>
      </trkpt>
      <trkpt lat="45.97715" lon="5.75206">
        <ele>1143.1</ele>
        <time>2021-08-20T13:48:56Z</time>
      </trkpt>
      <trkpt lat="45.97713" lon="5.75205">
        <ele>1143.2</ele>
        <time>2021-08-20T13:48:57Z</time>
      </trkpt>
      <trkpt lat="45.97712" lon="5.75205">
        <ele>1143.4</ele>
        <time>2021-08-20T13:48:58Z</time>
      </trkpt>
      <trkpt lat="45.9771" lon="5.75205">
        <ele>1143.6</ele>
        <time>2021-08-20T13:49:00Z</time>
      </trkpt>
      <trkpt lat="45.97709" lon="5.75206">
        <ele>1143.7</ele>
        <time>2021-08-20T13:49:01Z</time>
      </trkpt>
      <trkpt lat="45.97708" lon="5.75206">
        <ele>1143.8</ele>
        <time>2021-08-20T13:49:02Z</time>
      </trkpt>
      <trkpt lat="45.97707" lon="5.75206">
        <ele>1143.9</ele>
        <time>2021-08-20T13:49:04Z</time>
      </trkpt>
      <trkpt lat="45.97706" lon="5.75207">
        <ele>1144</ele>
        <time>2021-08-20T13:49:05Z</time>
      </trkpt>
      <trkpt lat="45.97706" lon="5.75207">
        <ele>1144</ele>
        <time>2021-08-20T13:49:06Z</time>
      </trkpt>
      <trkpt lat="45.97706" lon="5.75207">
        <ele>1144</ele>
        <time>2021-08-20T13:49:07Z</time>
      </trkpt>
      <trkpt lat="45.97705" lon="5.75207">
        <ele>1144</ele>
        <time>2021-08-20T13:49:08Z</time>
      </trkpt>
      <trkpt lat="45.97705" lon="5.75207">
        <ele>1144</ele>
        <time>2021-08-20T13:49:10Z</time>
      </trkpt>
      <trkpt lat="45.97705" lon="5.75207">
        <ele>1144.1</ele>
        <time>2021-08-20T13:49:11Z</time>
      </trkpt>
      <trkpt lat="45.97705" lon="5.75207">
        <ele>1144.1</ele>
        <time>2021-08-20T13:49:12Z</time>
      </trkpt>
      <trkpt lat="45.97635" lon="5.75181">
        <ele>1152.5</ele>
        <time>2021-08-20T13:50:49Z</time>
      </trkpt>
      <trkpt lat="45.97627" lon="5.75181">
        <ele>1153.8</ele>
        <time>2021-08-20T13:50:51Z</time>
      </trkpt>
      <trkpt lat="45.97621" lon="5.7518">
        <ele>1154.7</ele>
        <time>2021-08-20T13:50:52Z</time>
      </trkpt>
      <trkpt lat="45.97617" lon="5.75179">
        <ele>1155.4</ele>
        <time>2021-08-20T13:50:53Z</time>
      </trkpt>
      <trkpt lat="45.97613" lon="5.75179">
        <ele>1155.9</ele>
        <time>2021-08-20T13:50:54Z</time>
      </trkpt>
      <trkpt lat="45.97612" lon="5.75179">
        <ele>1156.1</ele>
        <time>2021-08-20T13:50:55Z</time>
      </trkpt>
      <trkpt lat="45.97611" lon="5.75179">
        <ele>1156.3</ele>
        <time>2021-08-20T13:50:57Z</time>
      </trkpt>
      <trkpt lat="45.97611" lon="5.7518">
        <ele>1156.4</ele>
        <time>2021-08-20T13:50:58Z</time>
      </trkpt>
      <trkpt lat="45.97609" lon="5.75181">
        <ele>1156.7</ele>
        <time>2021-08-20T13:51:00Z</time>
      </trkpt>
      <trkpt lat="45.97607" lon="5.75183">
        <ele>1157.1</ele>
        <time>2021-08-20T13:51:01Z</time>
      </trkpt>
      <trkpt lat="45.97605" lon="5.75183">
        <ele>1157.3</ele>
        <time>2021-08-20T13:51:03Z</time>
      </trkpt>
      <trkpt lat="45.97604" lon="5.75184">
        <ele>1157.5</ele>
        <time>2021-08-20T13:51:04Z</time>
      </trkpt>
      <trkpt lat="45.97603" lon="5.75185">
        <ele>1157.8</ele>
        <time>2021-08-20T13:51:05Z</time>
      </trkpt>
      <trkpt lat="45.97602" lon="5.75185">
        <ele>1157.9</ele>
        <time>2021-08-20T13:51:07Z</time>
      </trkpt>
      <trkpt lat="45.97602" lon="5.75186">
        <ele>1157.9</ele>
        <time>2021-08-20T13:51:08Z</time>
      </trkpt>
      <trkpt lat="45.97601" lon="5.75186">
        <ele>1158</ele>
        <time>2021-08-20T13:51:10Z</time>
      </trkpt>
      <trkpt lat="45.97601" lon="5.75186">
        <ele>1158</ele>
        <time>2021-08-20T13:51:11Z</time>
      </trkpt>
      <trkpt lat="45.97601" lon="5.75186">
        <ele>1158.1</ele>
        <time>2021-08-20T13:51:13Z</time>
      </trkpt>
      <trkpt lat="45.97601" lon="5.75186">
        <ele>1158.1</ele>
        <time>2021-08-20T13:51:14Z</time>
      </trkpt>
      <trkpt lat="45.97601" lon="5.75186">
        <ele>1158.1</ele>
        <time>2021-08-20T13:51:15Z</time>
      </trkpt>
      <trkpt lat="45.97601" lon="5.75186">
        <ele>1158.1</ele>
        <time>2021-08-20T13:51:16Z</time>
      </trkpt>
      <trkpt lat="45.97601" lon="5.75186">
        <ele>1158.1</ele>
        <time>2021-08-20T13:51:18Z</time>
      </trkpt>
      <trkpt lat="45.97427" lon="5.75104">
        <ele>1177.9</ele>
        <time>2021-08-20T13:55:25Z</time>
      </trkpt>
      <trkpt lat="45.97424" lon="5.75103">
        <ele>1177.8</ele>
        <time>2021-08-20T13:55:26Z</time>
      </trkpt>
      <trkpt lat="45.97422" lon="5.75102">
        <ele>1177.7</ele>
        <time>2021-08-20T13:55:27Z</time>
      </trkpt>
      <trkpt lat="45.97419" lon="5.75105">
        <ele>1177.5</ele>
        <time>2021-08-20T13:55:29Z</time>
      </trkpt>
      <trkpt lat="45.97416" lon="5.75108">
        <ele>1177.3</ele>
        <time>2021-08-20T13:55:30Z</time>
      </trkpt>
      <trkpt lat="45.97414" lon="5.75111">
        <ele>1177.1</ele>
        <time>2021-08-20T13:55:31Z</time>
      </trkpt>
      <trkpt lat="45.97413" lon="5.75112">
        <ele>1177</ele>
        <time>2021-08-20T13:55:33Z</time>
      </trkpt>
      <trkpt lat="45.97411" lon="5.75113">
        <ele>1176.9</ele>
        <time>2021-08-20T13:55:35Z</time>
      </trkpt>
      <trkpt lat="45.9741" lon="5.75114">
        <ele>1176.8</ele>
        <time>2021-08-20T13:55:36Z</time>
      </trkpt>
      <trkpt lat="45.97409" lon="5.75115">
        <ele>1176.6</ele>
        <time>2021-08-20T13:55:37Z</time>
      </trkpt>
      <trkpt lat="45.97405" lon="5.75119">
        <ele>1176.2</ele>
        <time>2021-08-20T13:55:38Z</time>
      </trkpt>
      <trkpt lat="45.97402" lon="5.75122">
        <ele>1175.8</ele>
        <time>2021-08-20T13:55:39Z</time>
      </trkpt>
      <trkpt lat="45.97399" lon="5.75128">
        <ele>1175.3</ele>
        <time>2021-08-20T13:55:40Z</time>
      </trkpt>
      <trkpt lat="45.97395" lon="5.75134">
        <ele>1174.8</ele>
        <time>2021-08-20T13:55:41Z</time>
      </trkpt>
      <trkpt lat="45.97384" lon="5.75145">
        <ele>1173.4</ele>
        <time>2021-08-20T13:55:43Z</time>
      </trkpt>
      <trkpt lat="45.97377" lon="5.75149">
        <ele>1172.8</ele>
        <time>2021-08-20T13:55:45Z</time>
      </trkpt>
      <trkpt lat="45.97373" lon="5.7515">
        <ele>1172.4</ele>
        <time>2021-08-20T13:55:47Z</time>
      </trkpt>
      <trkpt lat="45.97369" lon="5.75154">
        <ele>1172.1</ele>
        <time>2021-08-20T13:55:48Z</time>
      </trkpt>
      <trkpt lat="45.97365" lon="5.75158">
        <ele>1171.7</ele>
        <time>2021-08-20T13:55:49Z</time>
      </trkpt>
      <trkpt lat="45.97359" lon="5.7516">
        <ele>1171.2</ele>
        <time>2021-08-20T13:55:50Z</time>
      </trkpt>
      <trkpt lat="45.97355" lon="5.75162">
        <ele>1170.8</ele>
        <time>2021-08-20T13:55:51Z</time>
      </trkpt>
      <trkpt lat="45.97343" lon="5.7516">
        <ele>1169.8</ele>
        <time>2021-08-20T13:55:52Z</time>
      </trkpt>
      <trkpt lat="45.97335" lon="5.75159">
        <ele>1169.1</ele>
        <time>2021-08-20T13:55:53Z</time>
      </trkpt>
      <trkpt lat="45.97326" lon="5.75158">
        <ele>1168.4</ele>
        <time>2021-08-20T13:55:55Z</time>
      </trkpt>
      <trkpt lat="45.97316" lon="5.75158">
        <ele>1167.6</ele>
        <time>2021-08-20T13:55:57Z</time>
      </trkpt>
      <trkpt lat="45.97311" lon="5.75159">
        <ele>1167.2</ele>
        <time>2021-08-20T13:55:59Z</time>
      </trkpt>
      <trkpt lat="45.97303" lon="5.75157">
        <ele>1166.7</ele>
        <time>2021-08-20T13:56:00Z</time>
      </trkpt>
      <trkpt lat="45.97299" lon="5.75153">
        <ele>1166.3</ele>
        <time>2021-08-20T13:56:01Z</time>
      </trkpt>
      <trkpt lat="45.9729" lon="5.75146">
        <ele>1165.7</ele>
        <time>2021-08-20T13:56:03Z</time>
      </trkpt>
      <trkpt lat="45.97285" lon="5.75142">
        <ele>1165.5</ele>
        <time>2021-08-20T13:56:04Z</time>
      </trkpt>
      <trkpt lat="45.97281" lon="5.75139">
        <ele>1165.3</ele>
        <time>2021-08-20T13:56:05Z</time>
      </trkpt>
      <trkpt lat="45.97276" lon="5.75136">
        <ele>1165.3</ele>
        <time>2021-08-20T13:56:06Z</time>
      </trkpt>
      <trkpt lat="45.97273" lon="5.75132">
        <ele>1165.3</ele>
        <time>2021-08-20T13:56:07Z</time>
      </trkpt>
      <trkpt lat="45.97268" lon="5.75126">
        <ele>1165.6</ele>
        <time>2021-08-20T13:56:09Z</time>
      </trkpt>
      <trkpt lat="45.97268" lon="5.75123">
        <ele>1165.7</ele>
        <time>2021-08-20T13:56:10Z</time>
      </trkpt>
      <trkpt lat="45.97264" lon="5.7512">
        <ele>1166.1</ele>
        <time>2021-08-20T13:56:12Z</time>
      </trkpt>
      <trkpt lat="45.97262" lon="5.75117">
        <ele>1166.5</ele>
        <time>2021-08-20T13:56:13Z</time>
      </trkpt>
      <trkpt lat="45.9726" lon="5.75115">
        <ele>1166.7</ele>
        <time>2021-08-20T13:56:14Z</time>
      </trkpt>
      <trkpt lat="45.97261" lon="5.75114">
        <ele>1166.7</ele>
        <time>2021-08-20T13:56:15Z</time>
      </trkpt>
      <trkpt lat="45.97261" lon="5.75115">
        <ele>1166.7</ele>
        <time>2021-08-20T13:56:16Z</time>
      </trkpt>
      <trkpt lat="45.9726" lon="5.75117">
        <ele>1167</ele>
        <time>2021-08-20T13:56:18Z</time>
      </trkpt>
      <trkpt lat="45.9726" lon="5.75118">
        <ele>1167.1</ele>
        <time>2021-08-20T13:56:19Z</time>
      </trkpt>
      <trkpt lat="45.97259" lon="5.75119">
        <ele>1167.2</ele>
        <time>2021-08-20T13:56:21Z</time>
      </trkpt>
      <trkpt lat="45.97259" lon="5.75119">
        <ele>1167.3</ele>
        <time>2021-08-20T13:56:23Z</time>
      </trkpt>
      <trkpt lat="45.97258" lon="5.7512">
        <ele>1167.3</ele>
        <time>2021-08-20T13:56:25Z</time>
      </trkpt>
      <trkpt lat="45.97143" lon="5.75142">
        <ele>1183.1</ele>
        <time>2021-08-20T14:00:21Z</time>
      </trkpt>
      <trkpt lat="45.9714" lon="5.75141">
        <ele>1183.3</ele>
        <time>2021-08-20T14:00:22Z</time>
      </trkpt>
      <trkpt lat="45.97138" lon="5.75141">
        <ele>1183.4</ele>
        <time>2021-08-20T14:00:23Z</time>
      </trkpt>
      <trkpt lat="45.97137" lon="5.75141">
        <ele>1183.4</ele>
        <time>2021-08-20T14:00:24Z</time>
      </trkpt>
      <trkpt lat="45.97135" lon="5.7514">
        <ele>1183.5</ele>
        <time>2021-08-20T14:00:26Z</time>
      </trkpt>
      <trkpt lat="45.97133" lon="5.7514">
        <ele>1183.6</ele>
        <time>2021-08-20T14:00:27Z</time>
      </trkpt>
      <trkpt lat="45.97132" lon="5.75139">
        <ele>1183.6</ele>
        <time>2021-08-20T14:00:28Z</time>
      </trkpt>
      <trkpt lat="45.97131" lon="5.75139">
        <ele>1183.7</ele>
        <time>2021-08-20T14:00:29Z</time>
      </trkpt>
      <trkpt lat="45.97129" lon="5.75139">
        <ele>1183.7</ele>
        <time>2021-08-20T14:00:30Z</time>
      </trkpt>
      <trkpt lat="45.97126" lon="5.75139">
        <ele>1183.8</ele>
        <time>2021-08-20T14:00:32Z</time>
      </trkpt>
      <trkpt lat="45.97122" lon="5.75139">
        <ele>1183.9</ele>
        <time>2021-08-20T14:00:34Z</time>
      </trkpt>
      <trkpt lat="45.97119" lon="5.75138">
        <ele>1184</ele>
        <time>2021-08-20T14:00:35Z</time>
      </trkpt>
      <trkpt lat="45.97116" lon="5.75136">
        <ele>1184.1</ele>
        <time>2021-08-20T14:00:36Z</time>
      </trkpt>
      <trkpt lat="45.97112" lon="5.75136">
        <ele>1184.2</ele>
        <time>2021-08-20T14:00:37Z</time>
      </trkpt>
      <trkpt lat="45.97108" lon="5.75135">
        <ele>1184.2</ele>
        <time>2021-08-20T14:00:38Z</time>
      </trkpt>
      <trkpt lat="45.97105" lon="5.75134">
        <ele>1184.3</ele>
        <time>2021-08-20T14:00:39Z</time>
      </trkpt>
      <trkpt lat="45.97102" lon="5.75135">
        <ele>1184.4</ele>
        <time>2021-08-20T14:00:40Z</time>
      </trkpt>
      <trkpt lat="45.97098" lon="5.75135">
        <ele>1184.4</ele>
        <time>2021-08-20T14:00:41Z</time>
      </trkpt>
      <trkpt lat="45.97092" lon="5.75136">
        <ele>1184.6</ele>
        <time>2021-08-20T14:00:43Z</time>
      </trkpt>
      <trkpt lat="45.97089" lon="5.75136">
        <ele>1184.7</ele>
        <time>2021-08-20T14:00:44Z</time>
      </trkpt>
      <trkpt lat="45.97087" lon="5.75135">
        <ele>1184.7</ele>
        <time>2021-08-20T14:00:45Z</time>
      </trkpt>
      <trkpt lat="45.97084" lon="5.75136">
        <ele>1184.8</ele>
        <time>2021-08-20T14:00:46Z</time>
      </trkpt>
      <trkpt lat="45.97081" lon="5.75137">
        <ele>1184.9</ele>
        <time>2021-08-20T14:00:48Z</time>
      </trkpt>
      <trkpt lat="45.97078" lon="5.75137">
        <ele>1185</ele>
        <time>2021-08-20T14:00:49Z</time>
      </trkpt>
      <trkpt lat="45.97075" lon="5.75138">
        <ele>1185.1</ele>
        <time>2021-08-20T14:00:50Z</time>
      </trkpt>
      <trkpt lat="45.97072" lon="5.75139">
        <ele>1185.2</ele>
        <time>2021-08-20T14:00:51Z</time>
      </trkpt>
      <trkpt lat="45.97069" lon="5.7514">
        <ele>1185.3</ele>
        <time>2021-08-20T14:00:52Z</time>
      </trkpt>
      <trkpt lat="45.97065" lon="5.75141">
        <ele>1185.4</ele>
        <time>2021-08-20T14:00:53Z</time>
      </trkpt>
      <trkpt lat="45.97061" lon="5.75143">
        <ele>1185.5</ele>
        <time>2021-08-20T14:00:55Z</time>
      </trkpt>
      <trkpt lat="45.97057" lon="5.75145">
        <ele>1185.6</ele>
        <time>2021-08-20T14:00:56Z</time>
      </trkpt>
      <trkpt lat="45.97055" lon="5.75144">
        <ele>1185.7</ele>
        <time>2021-08-20T14:00:57Z</time>
      </trkpt>
      <trkpt lat="45.97053" lon="5.75144">
        <ele>1185.7</ele>
        <time>2021-08-20T14:00:58Z</time>
      </trkpt>
      <trkpt lat="45.97052" lon="5.75144">
        <ele>1185.8</ele>
        <time>2021-08-20T14:00:59Z</time>
      </trkpt>
      <trkpt lat="45.97042" lon="5.75141">
        <ele>1186</ele>
        <time>2021-08-20T14:01:01Z</time>
      </trkpt>
      <trkpt lat="45.97037" lon="5.75141">
        <ele>1186.2</ele>
        <time>2021-08-20T14:01:02Z</time>
      </trkpt>
      <trkpt lat="45.97033" lon="5.75139">
        <ele>1186.3</ele>
        <time>2021-08-20T14:01:03Z</time>
      </trkpt>
      <trkpt lat="45.97029" lon="5.75139">
        <ele>1186.4</ele>
        <time>2021-08-20T14:01:04Z</time>
      </trkpt>
      <trkpt lat="45.97026" lon="5.75137">
        <ele>1186.5</ele>
        <time>2021-08-20T14:01:05Z</time>
      </trkpt>
      <trkpt lat="45.97024" lon="5.75136">
        <ele>1186.6</ele>
        <time>2021-08-20T14:01:06Z</time>
      </trkpt>
      <trkpt lat="45.9702" lon="5.75134">
        <ele>1186.8</ele>
        <time>2021-08-20T14:01:08Z</time>
      </trkpt>
      <trkpt lat="45.97017" lon="5.75132">
        <ele>1186.9</ele>
        <time>2021-08-20T14:01:09Z</time>
      </trkpt>
      <trkpt lat="45.97014" lon="5.75129">
        <ele>1187</ele>
        <time>2021-08-20T14:01:11Z</time>
      </trkpt>
      <trkpt lat="45.97012" lon="5.75128">
        <ele>1187.1</ele>
        <time>2021-08-20T14:01:12Z</time>
      </trkpt>
      <trkpt lat="45.9701" lon="5.75125">
        <ele>1187.2</ele>
        <time>2021-08-20T14:01:14Z</time>
      </trkpt>
      <trkpt lat="45.97007" lon="5.75123">
        <ele>1187.4</ele>
        <time>2021-08-20T14:01:15Z</time>
      </trkpt>
      <trkpt lat="45.97004" lon="5.7512">
        <ele>1187.5</ele>
        <time>2021-08-20T14:01:16Z</time>
      </trkpt>
      <trkpt lat="45.97003" lon="5.75119">
        <ele>1187.5</ele>
        <time>2021-08-20T14:01:17Z</time>
      </trkpt>
      <trkpt lat="45.97001" lon="5.75117">
        <ele>1187.6</ele>
        <time>2021-08-20T14:01:18Z</time>
      </trkpt>
      <trkpt lat="45.97" lon="5.75116">
        <ele>1187.6</ele>
        <time>2021-08-20T14:01:19Z</time>
      </trkpt>
      <trkpt lat="45.96999" lon="5.75116">
        <ele>1187.7</ele>
        <time>2021-08-20T14:01:20Z</time>
      </trkpt>
      <trkpt lat="45.96998" lon="5.75118">
        <ele>1187.7</ele>
        <time>2021-08-20T14:01:21Z</time>
      </trkpt>
      <trkpt lat="45.96997" lon="5.7512">
        <ele>1187.8</ele>
        <time>2021-08-20T14:01:22Z</time>
      </trkpt>
      <trkpt lat="45.96996" lon="5.75122">
        <ele>1187.8</ele>
        <time>2021-08-20T14:01:23Z</time>
      </trkpt>
      <trkpt lat="45.96995" lon="5.75124">
        <ele>1187.8</ele>
        <time>2021-08-20T14:01:24Z</time>
      </trkpt>
      <trkpt lat="45.96991" lon="5.75126">
        <ele>1187.9</ele>
        <time>2021-08-20T14:01:26Z</time>
      </trkpt>
      <trkpt lat="45.96988" lon="5.75128">
        <ele>1188</ele>
        <time>2021-08-20T14:01:27Z</time>
      </trkpt>
      <trkpt lat="45.96984" lon="5.75129">
        <ele>1188</ele>
        <time>2021-08-20T14:01:28Z</time>
      </trkpt>
      <trkpt lat="45.96983" lon="5.75129">
        <ele>1188</ele>
        <time>2021-08-20T14:01:29Z</time>
      </trkpt>
      <trkpt lat="45.96979" lon="5.7513">
        <ele>1188.1</ele>
        <time>2021-08-20T14:01:30Z</time>
      </trkpt>
      <trkpt lat="45.96977" lon="5.7513">
        <ele>1188.1</ele>
        <time>2021-08-20T14:01:31Z</time>
      </trkpt>
      <trkpt lat="45.96974" lon="5.75129">
        <ele>1188.1</ele>
        <time>2021-08-20T14:01:32Z</time>
      </trkpt>
      <trkpt lat="45.96971" lon="5.75126">
        <ele>1188.2</ele>
        <time>2021-08-20T14:01:33Z</time>
      </trkpt>
      <trkpt lat="45.96969" lon="5.75125">
        <ele>1188.2</ele>
        <time>2021-08-20T14:01:34Z</time>
      </trkpt>
      <trkpt lat="45.96966" lon="5.75123">
        <ele>1188.3</ele>
        <time>2021-08-20T14:01:35Z</time>
      </trkpt>
      <trkpt lat="45.96962" lon="5.75118">
        <ele>1188.3</ele>
        <time>2021-08-20T14:01:36Z</time>
      </trkpt>
      <trkpt lat="45.96957" lon="5.7511">
        <ele>1188.9</ele>
        <time>2021-08-20T14:01:38Z</time>
      </trkpt>
      <trkpt lat="45.96955" lon="5.75109">
        <ele>1189.1</ele>
        <time>2021-08-20T14:01:39Z</time>
      </trkpt>
      <trkpt lat="45.96951" lon="5.75107">
        <ele>1189.5</ele>
        <time>2021-08-20T14:01:41Z</time>
      </trkpt>
      <trkpt lat="45.96948" lon="5.75104">
        <ele>1189.9</ele>
        <time>2021-08-20T14:01:42Z</time>
      </trkpt>
      <trkpt lat="45.96947" lon="5.75103">
        <ele>1190</ele>
        <time>2021-08-20T14:01:43Z</time>
      </trkpt>
      <trkpt lat="45.96944" lon="5.75102">
        <ele>1190.4</ele>
        <time>2021-08-20T14:01:44Z</time>
      </trkpt>
      <trkpt lat="45.96943" lon="5.75102">
        <ele>1190.5</ele>
        <time>2021-08-20T14:01:45Z</time>
      </trkpt>
      <trkpt lat="45.96938" lon="5.751">
        <ele>1191</ele>
        <time>2021-08-20T14:01:47Z</time>
      </trkpt>
      <trkpt lat="45.96935" lon="5.75099">
        <ele>1191.3</ele>
        <time>2021-08-20T14:01:48Z</time>
      </trkpt>
      <trkpt lat="45.96933" lon="5.75099">
        <ele>1191.5</ele>
        <time>2021-08-20T14:01:50Z</time>
      </trkpt>
      <trkpt lat="45.9693" lon="5.75099">
        <ele>1191.8</ele>
        <time>2021-08-20T14:01:51Z</time>
      </trkpt>
      <trkpt lat="45.96929" lon="5.75099">
        <ele>1191.9</ele>
        <time>2021-08-20T14:01:52Z</time>
      </trkpt>
      <trkpt lat="45.96925" lon="5.75099">
        <ele>1192.3</ele>
        <time>2021-08-20T14:01:53Z</time>
      </trkpt>
      <trkpt lat="45.96921" lon="5.75098">
        <ele>1192.7</ele>
        <time>2021-08-20T14:01:55Z</time>
      </trkpt>
      <trkpt lat="45.96919" lon="5.75098">
        <ele>1192.9</ele>
        <time>2021-08-20T14:01:56Z</time>
      </trkpt>
      <trkpt lat="45.96915" lon="5.75098">
        <ele>1193.2</ele>
        <time>2021-08-20T14:01:58Z</time>
      </trkpt>
      <trkpt lat="45.96912" lon="5.75098">
        <ele>1193.5</ele>
        <time>2021-08-20T14:01:59Z</time>
      </trkpt>
      <trkpt lat="45.9691" lon="5.75098">
        <ele>1193.8</ele>
        <time>2021-08-20T14:02:00Z</time>
      </trkpt>
      <trkpt lat="45.96909" lon="5.75098">
        <ele>1193.9</ele>
        <time>2021-08-20T14:02:01Z</time>
      </trkpt>
      <trkpt lat="45.96908" lon="5.75098">
        <ele>1194</ele>
        <time>2021-08-20T14:02:02Z</time>
      </trkpt>
      <trkpt lat="45.96905" lon="5.75097">
        <ele>1194.3</ele>
        <time>2021-08-20T14:02:03Z</time>
      </trkpt>
      <trkpt lat="45.96902" lon="5.75097">
        <ele>1194.6</ele>
        <time>2021-08-20T14:02:04Z</time>
      </trkpt>
      <trkpt lat="45.96898" lon="5.75096">
        <ele>1195</ele>
        <time>2021-08-20T14:02:06Z</time>
      </trkpt>
      <trkpt lat="45.96895" lon="5.75097">
        <ele>1195.4</ele>
        <time>2021-08-20T14:02:07Z</time>
      </trkpt>
      <trkpt lat="45.9689" lon="5.75097">
        <ele>1195.8</ele>
        <time>2021-08-20T14:02:09Z</time>
      </trkpt>
      <trkpt lat="45.96887" lon="5.75096">
        <ele>1196.2</ele>
        <time>2021-08-20T14:02:10Z</time>
      </trkpt>
      <trkpt lat="45.96886" lon="5.75096">
        <ele>1196.3</ele>
        <time>2021-08-20T14:02:11Z</time>
      </trkpt>
      <trkpt lat="45.96883" lon="5.75095">
        <ele>1196.6</ele>
        <time>2021-08-20T14:02:12Z</time>
      </trkpt>
      <trkpt lat="45.9688" lon="5.75093">
        <ele>1196.9</ele>
        <time>2021-08-20T14:02:14Z</time>
      </trkpt>
      <trkpt lat="45.96877" lon="5.75089">
        <ele>1197.3</ele>
        <time>2021-08-20T14:02:15Z</time>
      </trkpt>
      <trkpt lat="45.96876" lon="5.75088">
        <ele>1197.4</ele>
        <time>2021-08-20T14:02:16Z</time>
      </trkpt>
      <trkpt lat="45.96872" lon="5.75087">
        <ele>1197.7</ele>
        <time>2021-08-20T14:02:17Z</time>
      </trkpt>
      <trkpt lat="45.96869" lon="5.75085">
        <ele>1198.1</ele>
        <time>2021-08-20T14:02:18Z</time>
      </trkpt>
      <trkpt lat="45.96865" lon="5.75084">
        <ele>1198.5</ele>
        <time>2021-08-20T14:02:19Z</time>
      </trkpt>
      <trkpt lat="45.96861" lon="5.75083">
        <ele>1198.9</ele>
        <time>2021-08-20T14:02:20Z</time>
      </trkpt>
      <trkpt lat="45.96858" lon="5.75082">
        <ele>1199.1</ele>
        <time>2021-08-20T14:02:21Z</time>
      </trkpt>
      <trkpt lat="45.96854" lon="5.75081">
        <ele>1199.5</ele>
        <time>2021-08-20T14:02:22Z</time>
      </trkpt>
      <trkpt lat="45.96853" lon="5.75081">
        <ele>1199.6</ele>
        <time>2021-08-20T14:02:23Z</time>
      </trkpt>
      <trkpt lat="45.9685" lon="5.75082">
        <ele>1199.9</ele>
        <time>2021-08-20T14:02:24Z</time>
      </trkpt>
      <trkpt lat="45.96849" lon="5.75082">
        <ele>1200.1</ele>
        <time>2021-08-20T14:02:25Z</time>
      </trkpt>
      <trkpt lat="45.96846" lon="5.75082">
        <ele>1200.3</ele>
        <time>2021-08-20T14:02:26Z</time>
      </trkpt>
      <trkpt lat="45.96844" lon="5.7508">
        <ele>1200.6</ele>
        <time>2021-08-20T14:02:28Z</time>
      </trkpt>
      <trkpt lat="45.96841" lon="5.75078">
        <ele>1200.9</ele>
        <time>2021-08-20T14:02:29Z</time>
      </trkpt>
      <trkpt lat="45.96837" lon="5.75075">
        <ele>1201.3</ele>
        <time>2021-08-20T14:02:30Z</time>
      </trkpt>
      <trkpt lat="45.96833" lon="5.75068">
        <ele>1201.9</ele>
        <time>2021-08-20T14:02:32Z</time>
      </trkpt>
      <trkpt lat="45.96828" lon="5.75062">
        <ele>1202.5</ele>
        <time>2021-08-20T14:02:34Z</time>
      </trkpt>
      <trkpt lat="45.96825" lon="5.75058">
        <ele>1202.7</ele>
        <time>2021-08-20T14:02:35Z</time>
      </trkpt>
      <trkpt lat="45.96822" lon="5.75055">
        <ele>1202.8</ele>
        <time>2021-08-20T14:02:36Z</time>
      </trkpt>
      <trkpt lat="45.9682" lon="5.75053">
        <ele>1202.8</ele>
        <time>2021-08-20T14:02:37Z</time>
      </trkpt>
      <trkpt lat="45.96817" lon="5.75051">
        <ele>1202.9</ele>
        <time>2021-08-20T14:02:39Z</time>
      </trkpt>
      <trkpt lat="45.96814" lon="5.7505">
        <ele>1203</ele>
        <time>2021-08-20T14:02:40Z</time>
      </trkpt>
      <trkpt lat="45.96811" lon="5.75051">
        <ele>1203.1</ele>
        <time>2021-08-20T14:02:41Z</time>
      </trkpt>
      <trkpt lat="45.96811" lon="5.75051">
        <ele>1203.1</ele>
        <time>2021-08-20T14:02:42Z</time>
      </trkpt>
      <trkpt lat="45.96808" lon="5.75049">
        <ele>1203.1</ele>
        <time>2021-08-20T14:02:43Z</time>
      </trkpt>
      <trkpt lat="45.96804" lon="5.75046">
        <ele>1203.3</ele>
        <time>2021-08-20T14:02:44Z</time>
      </trkpt>
      <trkpt lat="45.96797" lon="5.75043">
        <ele>1203.5</ele>
        <time>2021-08-20T14:02:46Z</time>
      </trkpt>
      <trkpt lat="45.96792" lon="5.75042">
        <ele>1203.7</ele>
        <time>2021-08-20T14:02:47Z</time>
      </trkpt>
      <trkpt lat="45.96787" lon="5.75041">
        <ele>1203.9</ele>
        <time>2021-08-20T14:02:49Z</time>
      </trkpt>
      <trkpt lat="45.96784" lon="5.75039">
        <ele>1204</ele>
        <time>2021-08-20T14:02:50Z</time>
      </trkpt>
      <trkpt lat="45.96783" lon="5.75039">
        <ele>1204.1</ele>
        <time>2021-08-20T14:02:51Z</time>
      </trkpt>
      <trkpt lat="45.9678" lon="5.75037">
        <ele>1204.2</ele>
        <time>2021-08-20T14:02:52Z</time>
      </trkpt>
      <trkpt lat="45.96776" lon="5.75034">
        <ele>1204.4</ele>
        <time>2021-08-20T14:02:54Z</time>
      </trkpt>
      <trkpt lat="45.96772" lon="5.75033">
        <ele>1204.5</ele>
        <time>2021-08-20T14:02:55Z</time>
      </trkpt>
      <trkpt lat="45.9677" lon="5.75033">
        <ele>1204.6</ele>
        <time>2021-08-20T14:02:56Z</time>
      </trkpt>
      <trkpt lat="45.96768" lon="5.75031">
        <ele>1204.7</ele>
        <time>2021-08-20T14:02:58Z</time>
      </trkpt>
      <trkpt lat="45.96766" lon="5.75027">
        <ele>1204.8</ele>
        <time>2021-08-20T14:02:59Z</time>
      </trkpt>
      <trkpt lat="45.96765" lon="5.75026">
        <ele>1204.9</ele>
        <time>2021-08-20T14:03:00Z</time>
      </trkpt>
      <trkpt lat="45.96762" lon="5.75023">
        <ele>1205</ele>
        <time>2021-08-20T14:03:01Z</time>
      </trkpt>
      <trkpt lat="45.9676" lon="5.75022">
        <ele>1205.1</ele>
        <time>2021-08-20T14:03:02Z</time>
      </trkpt>
      <trkpt lat="45.96752" lon="5.75019">
        <ele>1205.4</ele>
        <time>2021-08-20T14:03:04Z</time>
      </trkpt>
      <trkpt lat="45.96749" lon="5.75019">
        <ele>1205.5</ele>
        <time>2021-08-20T14:03:05Z</time>
      </trkpt>
      <trkpt lat="45.96747" lon="5.75018">
        <ele>1205.6</ele>
        <time>2021-08-20T14:03:06Z</time>
      </trkpt>
      <trkpt lat="45.96742" lon="5.75016">
        <ele>1205.7</ele>
        <time>2021-08-20T14:03:08Z</time>
      </trkpt>
      <trkpt lat="45.9674" lon="5.75014">
        <ele>1205.8</ele>
        <time>2021-08-20T14:03:09Z</time>
      </trkpt>
      <trkpt lat="45.96735" lon="5.75012">
        <ele>1205.9</ele>
        <time>2021-08-20T14:03:11Z</time>
      </trkpt>
      <trkpt lat="45.96732" lon="5.75012">
        <ele>1206</ele>
        <time>2021-08-20T14:03:12Z</time>
      </trkpt>
      <trkpt lat="45.96729" lon="5.75011">
        <ele>1206.1</ele>
        <time>2021-08-20T14:03:14Z</time>
      </trkpt>
      <trkpt lat="45.96728" lon="5.7501">
        <ele>1206.1</ele>
        <time>2021-08-20T14:03:15Z</time>
      </trkpt>
      <trkpt lat="45.96727" lon="5.7501">
        <ele>1206.2</ele>
        <time>2021-08-20T14:03:16Z</time>
      </trkpt>
      <trkpt lat="45.96724" lon="5.7501">
        <ele>1206.3</ele>
        <time>2021-08-20T14:03:18Z</time>
      </trkpt>
      <trkpt lat="45.96722" lon="5.75011">
        <ele>1206.3</ele>
        <time>2021-08-20T14:03:19Z</time>
      </trkpt>
      <trkpt lat="45.96721" lon="5.75012">
        <ele>1206.3</ele>
        <time>2021-08-20T14:03:21Z</time>
      </trkpt>
      <trkpt lat="45.9672" lon="5.75012">
        <ele>1206.4</ele>
        <time>2021-08-20T14:03:22Z</time>
      </trkpt>
      <trkpt lat="45.96719" lon="5.75012">
        <ele>1206.4</ele>
        <time>2021-08-20T14:03:23Z</time>
      </trkpt>
      <trkpt lat="45.96717" lon="5.75012">
        <ele>1206.4</ele>
        <time>2021-08-20T14:03:24Z</time>
      </trkpt>
      <trkpt lat="45.96714" lon="5.75012">
        <ele>1206.5</ele>
        <time>2021-08-20T14:03:26Z</time>
      </trkpt>
      <trkpt lat="45.96712" lon="5.7501">
        <ele>1206.6</ele>
        <time>2021-08-20T14:03:27Z</time>
      </trkpt>
      <trkpt lat="45.96707" lon="5.75009">
        <ele>1206.7</ele>
        <time>2021-08-20T14:03:28Z</time>
      </trkpt>
      <trkpt lat="45.96702" lon="5.7501">
        <ele>1206.8</ele>
        <time>2021-08-20T14:03:30Z</time>
      </trkpt>
      <trkpt lat="45.967" lon="5.7501">
        <ele>1206.8</ele>
        <time>2021-08-20T14:03:31Z</time>
      </trkpt>
      <trkpt lat="45.96699" lon="5.75011">
        <ele>1206.9</ele>
        <time>2021-08-20T14:03:32Z</time>
      </trkpt>
      <trkpt lat="45.96696" lon="5.75011">
        <ele>1206.9</ele>
        <time>2021-08-20T14:03:33Z</time>
      </trkpt>
      <trkpt lat="45.96694" lon="5.75012">
        <ele>1206.9</ele>
        <time>2021-08-20T14:03:35Z</time>
      </trkpt>
      <trkpt lat="45.9669" lon="5.75012">
        <ele>1207</ele>
        <time>2021-08-20T14:03:36Z</time>
      </trkpt>
      <trkpt lat="45.96687" lon="5.75012">
        <ele>1207</ele>
        <time>2021-08-20T14:03:37Z</time>
      </trkpt>
      <trkpt lat="45.96685" lon="5.75015">
        <ele>1207</ele>
        <time>2021-08-20T14:03:39Z</time>
      </trkpt>
      <trkpt lat="45.96682" lon="5.75017">
        <ele>1207.1</ele>
        <time>2021-08-20T14:03:40Z</time>
      </trkpt>
      <trkpt lat="45.96677" lon="5.75018">
        <ele>1207.2</ele>
        <time>2021-08-20T14:03:42Z</time>
      </trkpt>
      <trkpt lat="45.9667" lon="5.7502">
        <ele>1207.3</ele>
        <time>2021-08-20T14:03:44Z</time>
      </trkpt>
      <trkpt lat="45.96664" lon="5.75021">
        <ele>1207.3</ele>
        <time>2021-08-20T14:03:46Z</time>
      </trkpt>
      <trkpt lat="45.96658" lon="5.75021">
        <ele>1207.4</ele>
        <time>2021-08-20T14:03:48Z</time>
      </trkpt>
      <trkpt lat="45.96651" lon="5.75018">
        <ele>1207.6</ele>
        <time>2021-08-20T14:03:50Z</time>
      </trkpt>
      <trkpt lat="45.96648" lon="5.75017">
        <ele>1207.6</ele>
        <time>2021-08-20T14:03:51Z</time>
      </trkpt>
      <trkpt lat="45.96645" lon="5.75017">
        <ele>1207.7</ele>
        <time>2021-08-20T14:03:53Z</time>
      </trkpt>
      <trkpt lat="45.96642" lon="5.75017">
        <ele>1207.7</ele>
        <time>2021-08-20T14:03:54Z</time>
      </trkpt>
      <trkpt lat="45.96638" lon="5.75017">
        <ele>1207.8</ele>
        <time>2021-08-20T14:03:55Z</time>
      </trkpt>
      <trkpt lat="45.96637" lon="5.75018">
        <ele>1207.8</ele>
        <time>2021-08-20T14:03:56Z</time>
      </trkpt>
      <trkpt lat="45.96633" lon="5.75019">
        <ele>1207.9</ele>
        <time>2021-08-20T14:03:58Z</time>
      </trkpt>
      <trkpt lat="45.96629" lon="5.75021">
        <ele>1208</ele>
        <time>2021-08-20T14:03:59Z</time>
      </trkpt>
      <trkpt lat="45.96626" lon="5.75022">
        <ele>1208</ele>
        <time>2021-08-20T14:04:00Z</time>
      </trkpt>
      <trkpt lat="45.96623" lon="5.75024">
        <ele>1208</ele>
        <time>2021-08-20T14:04:02Z</time>
      </trkpt>
      <trkpt lat="45.9662" lon="5.75027">
        <ele>1208.1</ele>
        <time>2021-08-20T14:04:03Z</time>
      </trkpt>
      <trkpt lat="45.96617" lon="5.7503">
        <ele>1208.1</ele>
        <time>2021-08-20T14:04:04Z</time>
      </trkpt>
      <trkpt lat="45.96613" lon="5.75031">
        <ele>1208.2</ele>
        <time>2021-08-20T14:04:05Z</time>
      </trkpt>
      <trkpt lat="45.96609" lon="5.7503">
        <ele>1208.2</ele>
        <time>2021-08-20T14:04:06Z</time>
      </trkpt>
      <trkpt lat="45.96606" lon="5.75031">
        <ele>1208.3</ele>
        <time>2021-08-20T14:04:07Z</time>
      </trkpt>
      <trkpt lat="45.96602" lon="5.75033">
        <ele>1208.3</ele>
        <time>2021-08-20T14:04:09Z</time>
      </trkpt>
      <trkpt lat="45.96598" lon="5.75035">
        <ele>1208.4</ele>
        <time>2021-08-20T14:04:10Z</time>
      </trkpt>
      <trkpt lat="45.96597" lon="5.75035">
        <ele>1208.4</ele>
        <time>2021-08-20T14:04:11Z</time>
      </trkpt>
      <trkpt lat="45.96594" lon="5.75036">
        <ele>1208.5</ele>
        <time>2021-08-20T14:04:12Z</time>
      </trkpt>
      <trkpt lat="45.9659" lon="5.75037">
        <ele>1208.5</ele>
        <time>2021-08-20T14:04:13Z</time>
      </trkpt>
      <trkpt lat="45.96589" lon="5.75037">
        <ele>1208.5</ele>
        <time>2021-08-20T14:04:14Z</time>
      </trkpt>
      <trkpt lat="45.96584" lon="5.75038">
        <ele>1208.6</ele>
        <time>2021-08-20T14:04:15Z</time>
      </trkpt>
      <trkpt lat="45.96583" lon="5.75038">
        <ele>1208.6</ele>
        <time>2021-08-20T14:04:16Z</time>
      </trkpt>
      <trkpt lat="45.96579" lon="5.75039">
        <ele>1208.7</ele>
        <time>2021-08-20T14:04:17Z</time>
      </trkpt>
      <trkpt lat="45.96574" lon="5.75038">
        <ele>1208.8</ele>
        <time>2021-08-20T14:04:18Z</time>
      </trkpt>
      <trkpt lat="45.96569" lon="5.75039">
        <ele>1208.9</ele>
        <time>2021-08-20T14:04:20Z</time>
      </trkpt>
      <trkpt lat="45.96566" lon="5.75039">
        <ele>1209</ele>
        <time>2021-08-20T14:04:21Z</time>
      </trkpt>
      <trkpt lat="45.96564" lon="5.75039">
        <ele>1209</ele>
        <time>2021-08-20T14:04:22Z</time>
      </trkpt>
      <trkpt lat="45.96561" lon="5.75039">
        <ele>1209.1</ele>
        <time>2021-08-20T14:04:23Z</time>
      </trkpt>
      <trkpt lat="45.96556" lon="5.7504">
        <ele>1209.2</ele>
        <time>2021-08-20T14:04:25Z</time>
      </trkpt>
      <trkpt lat="45.96553" lon="5.7504">
        <ele>1209.3</ele>
        <time>2021-08-20T14:04:26Z</time>
      </trkpt>
      <trkpt lat="45.9655" lon="5.75039">
        <ele>1209.3</ele>
        <time>2021-08-20T14:04:27Z</time>
      </trkpt>
      <trkpt lat="45.96546" lon="5.75038">
        <ele>1209.4</ele>
        <time>2021-08-20T14:04:29Z</time>
      </trkpt>
      <trkpt lat="45.96543" lon="5.75038">
        <ele>1209.4</ele>
        <time>2021-08-20T14:04:30Z</time>
      </trkpt>
      <trkpt lat="45.96539" lon="5.75039">
        <ele>1209.5</ele>
        <time>2021-08-20T14:04:31Z</time>
      </trkpt>
      <trkpt lat="45.96537" lon="5.75038">
        <ele>1209.6</ele>
        <time>2021-08-20T14:04:32Z</time>
      </trkpt>
      <trkpt lat="45.96532" lon="5.75038">
        <ele>1209.6</ele>
        <time>2021-08-20T14:04:34Z</time>
      </trkpt>
      <trkpt lat="45.96528" lon="5.75037">
        <ele>1209.7</ele>
        <time>2021-08-20T14:04:35Z</time>
      </trkpt>
      <trkpt lat="45.96523" lon="5.75036">
        <ele>1209.8</ele>
        <time>2021-08-20T14:04:36Z</time>
      </trkpt>
      <trkpt lat="45.9652" lon="5.75035">
        <ele>1209.9</ele>
        <time>2021-08-20T14:04:37Z</time>
      </trkpt>
      <trkpt lat="45.96516" lon="5.75035">
        <ele>1210</ele>
        <time>2021-08-20T14:04:38Z</time>
      </trkpt>
      <trkpt lat="45.96511" lon="5.75035">
        <ele>1210.1</ele>
        <time>2021-08-20T14:04:40Z</time>
      </trkpt>
      <trkpt lat="45.96507" lon="5.75035">
        <ele>1210.2</ele>
        <time>2021-08-20T14:04:41Z</time>
      </trkpt>
      <trkpt lat="45.96504" lon="5.75036">
        <ele>1210.2</ele>
        <time>2021-08-20T14:04:42Z</time>
      </trkpt>
      <trkpt lat="45.96501" lon="5.75037">
        <ele>1210.3</ele>
        <time>2021-08-20T14:04:43Z</time>
      </trkpt>
      <trkpt lat="45.96497" lon="5.75037">
        <ele>1210.4</ele>
        <time>2021-08-20T14:04:44Z</time>
      </trkpt>
      <trkpt lat="45.96496" lon="5.75037">
        <ele>1210.4</ele>
        <time>2021-08-20T14:04:45Z</time>
      </trkpt>
      <trkpt lat="45.96489" lon="5.75034">
        <ele>1210.6</ele>
        <time>2021-08-20T14:04:47Z</time>
      </trkpt>
      <trkpt lat="45.96485" lon="5.75033">
        <ele>1210.7</ele>
        <time>2021-08-20T14:04:48Z</time>
      </trkpt>
      <trkpt lat="45.96479" lon="5.75032">
        <ele>1210.9</ele>
        <time>2021-08-20T14:04:50Z</time>
      </trkpt>
      <trkpt lat="45.96475" lon="5.75032">
        <ele>1211</ele>
        <time>2021-08-20T14:04:52Z</time>
      </trkpt>
      <trkpt lat="45.96472" lon="5.75033">
        <ele>1211.1</ele>
        <time>2021-08-20T14:04:53Z</time>
      </trkpt>
      <trkpt lat="45.96468" lon="5.75033">
        <ele>1211.2</ele>
        <time>2021-08-20T14:04:55Z</time>
      </trkpt>
      <trkpt lat="45.96465" lon="5.75033">
        <ele>1211.3</ele>
        <time>2021-08-20T14:04:56Z</time>
      </trkpt>
      <trkpt lat="45.96459" lon="5.75033">
        <ele>1211.5</ele>
        <time>2021-08-20T14:04:58Z</time>
      </trkpt>
      <trkpt lat="45.96455" lon="5.75033">
        <ele>1211.6</ele>
        <time>2021-08-20T14:05:00Z</time>
      </trkpt>
      <trkpt lat="45.96452" lon="5.75032">
        <ele>1211.7</ele>
        <time>2021-08-20T14:05:01Z</time>
      </trkpt>
      <trkpt lat="45.96451" lon="5.75031">
        <ele>1211.8</ele>
        <time>2021-08-20T14:05:02Z</time>
      </trkpt>
      <trkpt lat="45.96448" lon="5.75032">
        <ele>1211.9</ele>
        <time>2021-08-20T14:05:04Z</time>
      </trkpt>
      <trkpt lat="45.96447" lon="5.75032">
        <ele>1211.9</ele>
        <time>2021-08-20T14:05:05Z</time>
      </trkpt>
      <trkpt lat="45.96443" lon="5.75036">
        <ele>1212</ele>
        <time>2021-08-20T14:05:06Z</time>
      </trkpt>
      <trkpt lat="45.96442" lon="5.75037">
        <ele>1212.1</ele>
        <time>2021-08-20T14:05:07Z</time>
      </trkpt>
      <trkpt lat="45.96439" lon="5.7504">
        <ele>1212.2</ele>
        <time>2021-08-20T14:05:08Z</time>
      </trkpt>
      <trkpt lat="45.96437" lon="5.75043">
        <ele>1212.3</ele>
        <time>2021-08-20T14:05:10Z</time>
      </trkpt>
      <trkpt lat="45.96434" lon="5.75045">
        <ele>1212.4</ele>
        <time>2021-08-20T14:05:11Z</time>
      </trkpt>
      <trkpt lat="45.9643" lon="5.75048">
        <ele>1212.5</ele>
        <time>2021-08-20T14:05:12Z</time>
      </trkpt>
      <trkpt lat="45.96427" lon="5.75049">
        <ele>1212.5</ele>
        <time>2021-08-20T14:05:13Z</time>
      </trkpt>
      <trkpt lat="45.96422" lon="5.75051">
        <ele>1212.7</ele>
        <time>2021-08-20T14:05:15Z</time>
      </trkpt>
      <trkpt lat="45.96418" lon="5.7505">
        <ele>1212.8</ele>
        <time>2021-08-20T14:05:17Z</time>
      </trkpt>
      <trkpt lat="45.96415" lon="5.7505">
        <ele>1212.9</ele>
        <time>2021-08-20T14:05:18Z</time>
      </trkpt>
      <trkpt lat="45.96411" lon="5.7505">
        <ele>1213</ele>
        <time>2021-08-20T14:05:20Z</time>
      </trkpt>
      <trkpt lat="45.9641" lon="5.7505">
        <ele>1213</ele>
        <time>2021-08-20T14:05:22Z</time>
      </trkpt>
      <trkpt lat="45.96409" lon="5.75051">
        <ele>1213</ele>
        <time>2021-08-20T14:05:23Z</time>
      </trkpt>
      <trkpt lat="45.96408" lon="5.75051">
        <ele>1213</ele>
        <time>2021-08-20T14:05:24Z</time>
      </trkpt>
      <trkpt lat="45.96405" lon="5.7505">
        <ele>1213.1</ele>
        <time>2021-08-20T14:05:25Z</time>
      </trkpt>
      <trkpt lat="45.96402" lon="5.75049">
        <ele>1213.2</ele>
        <time>2021-08-20T14:05:27Z</time>
      </trkpt>
      <trkpt lat="45.964" lon="5.75049">
        <ele>1213.2</ele>
        <time>2021-08-20T14:05:28Z</time>
      </trkpt>
      <trkpt lat="45.96396" lon="5.7505">
        <ele>1213.3</ele>
        <time>2021-08-20T14:05:29Z</time>
      </trkpt>
      <trkpt lat="45.96391" lon="5.7505">
        <ele>1213.4</ele>
        <time>2021-08-20T14:05:31Z</time>
      </trkpt>
      <trkpt lat="45.96387" lon="5.75052">
        <ele>1213.6</ele>
        <time>2021-08-20T14:05:32Z</time>
      </trkpt>
      <trkpt lat="45.96384" lon="5.75055">
        <ele>1213.7</ele>
        <time>2021-08-20T14:05:34Z</time>
      </trkpt>
      <trkpt lat="45.96382" lon="5.75056">
        <ele>1213.7</ele>
        <time>2021-08-20T14:05:35Z</time>
      </trkpt>
      <trkpt lat="45.9638" lon="5.75057">
        <ele>1213.8</ele>
        <time>2021-08-20T14:05:36Z</time>
      </trkpt>
      <trkpt lat="45.96378" lon="5.75057">
        <ele>1213.9</ele>
        <time>2021-08-20T14:05:38Z</time>
      </trkpt>
      <trkpt lat="45.96377" lon="5.75058">
        <ele>1213.9</ele>
        <time>2021-08-20T14:05:39Z</time>
      </trkpt>
      <trkpt lat="45.96375" lon="5.75058">
        <ele>1213.9</ele>
        <time>2021-08-20T14:05:40Z</time>
      </trkpt>
      <trkpt lat="45.96373" lon="5.75058">
        <ele>1214</ele>
        <time>2021-08-20T14:05:41Z</time>
      </trkpt>
      <trkpt lat="45.96371" lon="5.75059">
        <ele>1214.1</ele>
        <time>2021-08-20T14:05:42Z</time>
      </trkpt>
      <trkpt lat="45.96363" lon="5.7506">
        <ele>1214.4</ele>
        <time>2021-08-20T14:05:45Z</time>
      </trkpt>
      <trkpt lat="45.96358" lon="5.75061">
        <ele>1214.5</ele>
        <time>2021-08-20T14:05:47Z</time>
      </trkpt>
      <trkpt lat="45.96356" lon="5.7506">
        <ele>1214.6</ele>
        <time>2021-08-20T14:05:48Z</time>
      </trkpt>
      <trkpt lat="45.96355" lon="5.7506">
        <ele>1214.6</ele>
        <time>2021-08-20T14:05:49Z</time>
      </trkpt>
      <trkpt lat="45.96352" lon="5.7506">
        <ele>1214.7</ele>
        <time>2021-08-20T14:05:50Z</time>
      </trkpt>
      <trkpt lat="45.9635" lon="5.7506">
        <ele>1214.8</ele>
        <time>2021-08-20T14:05:51Z</time>
      </trkpt>
      <trkpt lat="45.96347" lon="5.7506">
        <ele>1214.9</ele>
        <time>2021-08-20T14:05:53Z</time>
      </trkpt>
      <trkpt lat="45.96343" lon="5.75059">
        <ele>1215</ele>
        <time>2021-08-20T14:05:54Z</time>
      </trkpt>
      <trkpt lat="45.96341" lon="5.75059">
        <ele>1215</ele>
        <time>2021-08-20T14:05:55Z</time>
      </trkpt>
      <trkpt lat="45.9634" lon="5.75059">
        <ele>1215.1</ele>
        <time>2021-08-20T14:05:56Z</time>
      </trkpt>
      <trkpt lat="45.96337" lon="5.75059">
        <ele>1215.1</ele>
        <time>2021-08-20T14:05:57Z</time>
      </trkpt>
      <trkpt lat="45.96335" lon="5.75059">
        <ele>1215.2</ele>
        <time>2021-08-20T14:05:59Z</time>
      </trkpt>
      <trkpt lat="45.96334" lon="5.75059">
        <ele>1215.2</ele>
        <time>2021-08-20T14:06:00Z</time>
      </trkpt>
      <trkpt lat="45.96332" lon="5.75059">
        <ele>1215.3</ele>
        <time>2021-08-20T14:06:01Z</time>
      </trkpt>
      <trkpt lat="45.96328" lon="5.75058">
        <ele>1215.4</ele>
        <time>2021-08-20T14:06:03Z</time>
      </trkpt>
      <trkpt lat="45.96325" lon="5.75058">
        <ele>1215.5</ele>
        <time>2021-08-20T14:06:04Z</time>
      </trkpt>
      <trkpt lat="45.96324" lon="5.75058">
        <ele>1215.5</ele>
        <time>2021-08-20T14:06:05Z</time>
      </trkpt>
      <trkpt lat="45.96321" lon="5.75058">
        <ele>1215.6</ele>
        <time>2021-08-20T14:06:07Z</time>
      </trkpt>
      <trkpt lat="45.9632" lon="5.75058">
        <ele>1215.6</ele>
        <time>2021-08-20T14:06:08Z</time>
      </trkpt>
      <trkpt lat="45.96317" lon="5.75058">
        <ele>1215.7</ele>
        <time>2021-08-20T14:06:09Z</time>
      </trkpt>
      <trkpt lat="45.96316" lon="5.75058">
        <ele>1215.7</ele>
        <time>2021-08-20T14:06:10Z</time>
      </trkpt>
      <trkpt lat="45.96312" lon="5.75057">
        <ele>1215.8</ele>
        <time>2021-08-20T14:06:12Z</time>
      </trkpt>
      <trkpt lat="45.9631" lon="5.75056">
        <ele>1215.9</ele>
        <time>2021-08-20T14:06:13Z</time>
      </trkpt>
      <trkpt lat="45.96309" lon="5.75056">
        <ele>1215.9</ele>
        <time>2021-08-20T14:06:14Z</time>
      </trkpt>
      <trkpt lat="45.96306" lon="5.75056">
        <ele>1216</ele>
        <time>2021-08-20T14:06:16Z</time>
      </trkpt>
      <trkpt lat="45.96304" lon="5.75056">
        <ele>1216.1</ele>
        <time>2021-08-20T14:06:17Z</time>
      </trkpt>
      <trkpt lat="45.96303" lon="5.75056">
        <ele>1216.1</ele>
        <time>2021-08-20T14:06:18Z</time>
      </trkpt>
      <trkpt lat="45.963" lon="5.75056">
        <ele>1216.2</ele>
        <time>2021-08-20T14:06:19Z</time>
      </trkpt>
      <trkpt lat="45.96296" lon="5.75057">
        <ele>1216.4</ele>
        <time>2021-08-20T14:06:21Z</time>
      </trkpt>
      <trkpt lat="45.9629" lon="5.75058">
        <ele>1216.6</ele>
        <time>2021-08-20T14:06:23Z</time>
      </trkpt>
      <trkpt lat="45.96286" lon="5.75058">
        <ele>1216.8</ele>
        <time>2021-08-20T14:06:24Z</time>
      </trkpt>
      <trkpt lat="45.96282" lon="5.75058">
        <ele>1216.9</ele>
        <time>2021-08-20T14:06:25Z</time>
      </trkpt>
      <trkpt lat="45.96279" lon="5.75059">
        <ele>1217</ele>
        <time>2021-08-20T14:06:26Z</time>
      </trkpt>
      <trkpt lat="45.96274" lon="5.7506">
        <ele>1217.2</ele>
        <time>2021-08-20T14:06:28Z</time>
      </trkpt>
      <trkpt lat="45.96271" lon="5.75059">
        <ele>1217.4</ele>
        <time>2021-08-20T14:06:29Z</time>
      </trkpt>
      <trkpt lat="45.9627" lon="5.75059">
        <ele>1217.4</ele>
        <time>2021-08-20T14:06:30Z</time>
      </trkpt>
      <trkpt lat="45.96267" lon="5.7506">
        <ele>1217.6</ele>
        <time>2021-08-20T14:06:32Z</time>
      </trkpt>
      <trkpt lat="45.96265" lon="5.75061">
        <ele>1217.7</ele>
        <time>2021-08-20T14:06:33Z</time>
      </trkpt>
      <trkpt lat="45.96265" lon="5.75064">
        <ele>1217.8</ele>
        <time>2021-08-20T14:06:34Z</time>
      </trkpt>
      <trkpt lat="45.96264" lon="5.75068">
        <ele>1218</ele>
        <time>2021-08-20T14:06:36Z</time>
      </trkpt>
      <trkpt lat="45.96263" lon="5.7507">
        <ele>1218.1</ele>
        <time>2021-08-20T14:06:37Z</time>
      </trkpt>
      <trkpt lat="45.96262" lon="5.75073">
        <ele>1218.2</ele>
        <time>2021-08-20T14:06:39Z</time>
      </trkpt>
      <trkpt lat="45.96261" lon="5.75074">
        <ele>1218.3</ele>
        <time>2021-08-20T14:06:40Z</time>
      </trkpt>
      <trkpt lat="45.96261" lon="5.75075">
        <ele>1218.3</ele>
        <time>2021-08-20T14:06:41Z</time>
      </trkpt>
      <trkpt lat="45.9626" lon="5.75077">
        <ele>1218.4</ele>
        <time>2021-08-20T14:06:43Z</time>
      </trkpt>
      <trkpt lat="45.96192" lon="5.75063">
        <ele>1222.7</ele>
        <time>2021-08-20T14:07:49Z</time>
      </trkpt>
      <trkpt lat="45.96189" lon="5.75064">
        <ele>1222.8</ele>
        <time>2021-08-20T14:07:50Z</time>
      </trkpt>
      <trkpt lat="45.96188" lon="5.75065">
        <ele>1223</ele>
        <time>2021-08-20T14:07:51Z</time>
      </trkpt>
      <trkpt lat="45.96186" lon="5.75067">
        <ele>1223.1</ele>
        <time>2021-08-20T14:07:52Z</time>
      </trkpt>
      <trkpt lat="45.96183" lon="5.75069">
        <ele>1223.3</ele>
        <time>2021-08-20T14:07:54Z</time>
      </trkpt>
      <trkpt lat="45.96182" lon="5.7507">
        <ele>1223.4</ele>
        <time>2021-08-20T14:07:55Z</time>
      </trkpt>
      <trkpt lat="45.96182" lon="5.75073">
        <ele>1223.5</ele>
        <time>2021-08-20T14:07:57Z</time>
      </trkpt>
      <trkpt lat="45.96183" lon="5.75072">
        <ele>1223.6</ele>
        <time>2021-08-20T14:07:58Z</time>
      </trkpt>
      <trkpt lat="45.96183" lon="5.75072">
        <ele>1223.6</ele>
        <time>2021-08-20T14:08:00Z</time>
      </trkpt>
      <trkpt lat="45.96182" lon="5.75073">
        <ele>1223.6</ele>
        <time>2021-08-20T14:08:01Z</time>
      </trkpt>
      <trkpt lat="45.96182" lon="5.75072">
        <ele>1223.7</ele>
        <time>2021-08-20T14:08:02Z</time>
      </trkpt>
      <trkpt lat="45.96181" lon="5.75071">
        <ele>1223.8</ele>
        <time>2021-08-20T14:08:03Z</time>
      </trkpt>
      <trkpt lat="45.96179" lon="5.7507">
        <ele>1224</ele>
        <time>2021-08-20T14:08:04Z</time>
      </trkpt>
      <trkpt lat="45.96178" lon="5.75068">
        <ele>1224.1</ele>
        <time>2021-08-20T14:08:05Z</time>
      </trkpt>
      <trkpt lat="45.96177" lon="5.75065">
        <ele>1224.2</ele>
        <time>2021-08-20T14:08:07Z</time>
      </trkpt>
      <trkpt lat="45.96175" lon="5.75064">
        <ele>1224.4</ele>
        <time>2021-08-20T14:08:09Z</time>
      </trkpt>
      <trkpt lat="45.96175" lon="5.75063">
        <ele>1224.4</ele>
        <time>2021-08-20T14:08:10Z</time>
      </trkpt>
      <trkpt lat="45.96174" lon="5.75063">
        <ele>1224.5</ele>
        <time>2021-08-20T14:08:11Z</time>
      </trkpt>
      <trkpt lat="45.96173" lon="5.75063">
        <ele>1224.6</ele>
        <time>2021-08-20T14:08:12Z</time>
      </trkpt>
      <trkpt lat="45.96172" lon="5.75063">
        <ele>1224.7</ele>
        <time>2021-08-20T14:08:13Z</time>
      </trkpt>
      <trkpt lat="45.9617" lon="5.75062">
        <ele>1224.8</ele>
        <time>2021-08-20T14:08:15Z</time>
      </trkpt>
      <trkpt lat="45.9591" lon="5.75082">
        <ele>1256.6</ele>
        <time>2021-08-20T14:15:10Z</time>
      </trkpt>
      <trkpt lat="45.95909" lon="5.75081">
        <ele>1256.7</ele>
        <time>2021-08-20T14:15:11Z</time>
      </trkpt>
      <trkpt lat="45.95908" lon="5.75079">
        <ele>1256.9</ele>
        <time>2021-08-20T14:15:13Z</time>
      </trkpt>
      <trkpt lat="45.95907" lon="5.75078">
        <ele>1257</ele>
        <time>2021-08-20T14:15:14Z</time>
      </trkpt>
      <trkpt lat="45.95907" lon="5.75077">
        <ele>1257.1</ele>
        <time>2021-08-20T14:15:15Z</time>
      </trkpt>
      <trkpt lat="45.95907" lon="5.75076">
        <ele>1257.2</ele>
        <time>2021-08-20T14:15:17Z</time>
      </trkpt>
      <trkpt lat="45.95907" lon="5.75076">
        <ele>1257.2</ele>
        <time>2021-08-20T14:15:18Z</time>
      </trkpt>
      <trkpt lat="45.95906" lon="5.75075">
        <ele>1257.3</ele>
        <time>2021-08-20T14:15:20Z</time>
      </trkpt>
      <trkpt lat="45.95906" lon="5.75075">
        <ele>1257.3</ele>
        <time>2021-08-20T14:15:21Z</time>
      </trkpt>
      <trkpt lat="45.95884" lon="5.75082">
        <ele>1259.7</ele>
        <time>2021-08-20T14:16:03Z</time>
      </trkpt>
      <trkpt lat="45.95883" lon="5.75083">
        <ele>1259.8</ele>
        <time>2021-08-20T14:16:04Z</time>
      </trkpt>
      <trkpt lat="45.95881" lon="5.75083">
        <ele>1259.9</ele>
        <time>2021-08-20T14:16:06Z</time>
      </trkpt>
      <trkpt lat="45.9588" lon="5.75084">
        <ele>1260</ele>
        <time>2021-08-20T14:16:07Z</time>
      </trkpt>
      <trkpt lat="45.95879" lon="5.75084">
        <ele>1260.1</ele>
        <time>2021-08-20T14:16:08Z</time>
      </trkpt>
      <trkpt lat="45.95878" lon="5.75084">
        <ele>1260.2</ele>
        <time>2021-08-20T14:16:10Z</time>
      </trkpt>
      <trkpt lat="45.95878" lon="5.75084">
        <ele>1260.2</ele>
        <time>2021-08-20T14:16:11Z</time>
      </trkpt>
      <trkpt lat="45.95878" lon="5.75085">
        <ele>1260.2</ele>
        <time>2021-08-20T14:16:12Z</time>
      </trkpt>
      <trkpt lat="45.95877" lon="5.75085">
        <ele>1260.3</ele>
        <time>2021-08-20T14:16:13Z</time>
      </trkpt>
      <trkpt lat="45.95877" lon="5.75085">
        <ele>1260.3</ele>
        <time>2021-08-20T14:16:15Z</time>
      </trkpt>
      <trkpt lat="45.95877" lon="5.75085">
        <ele>1260.3</ele>
        <time>2021-08-20T14:16:16Z</time>
      </trkpt>
      <trkpt lat="45.95877" lon="5.75085">
        <ele>1260.3</ele>
        <time>2021-08-20T14:16:17Z</time>
      </trkpt>
      <trkpt lat="45.95877" lon="5.75085">
        <ele>1260.3</ele>
        <time>2021-08-20T14:16:18Z</time>
      </trkpt>
      <trkpt lat="45.95852" lon="5.75109">
        <ele>1262.5</ele>
        <time>2021-08-20T14:16:51Z</time>
      </trkpt>
      <trkpt lat="45.9585" lon="5.7511">
        <ele>1262.7</ele>
        <time>2021-08-20T14:16:52Z</time>
      </trkpt>
      <trkpt lat="45.95847" lon="5.75111">
        <ele>1262.8</ele>
        <time>2021-08-20T14:16:53Z</time>
      </trkpt>
      <trkpt lat="45.95846" lon="5.75112">
        <ele>1262.9</ele>
        <time>2021-08-20T14:16:55Z</time>
      </trkpt>
      <trkpt lat="45.95844" lon="5.75113">
        <ele>1263</ele>
        <time>2021-08-20T14:16:56Z</time>
      </trkpt>
      <trkpt lat="45.95842" lon="5.75114">
        <ele>1263.1</ele>
        <time>2021-08-20T14:16:58Z</time>
      </trkpt>
      <trkpt lat="45.9584" lon="5.75114">
        <ele>1263.2</ele>
        <time>2021-08-20T14:16:59Z</time>
      </trkpt>
      <trkpt lat="45.95838" lon="5.75114">
        <ele>1263.3</ele>
        <time>2021-08-20T14:17:01Z</time>
      </trkpt>
      <trkpt lat="45.95838" lon="5.75114">
        <ele>1263.3</ele>
        <time>2021-08-20T14:17:02Z</time>
      </trkpt>
      <trkpt lat="45.95837" lon="5.75114">
        <ele>1263.3</ele>
        <time>2021-08-20T14:17:04Z</time>
      </trkpt>
      <trkpt lat="45.95836" lon="5.75114">
        <ele>1263.3</ele>
        <time>2021-08-20T14:17:05Z</time>
      </trkpt>
      <trkpt lat="45.95836" lon="5.75114">
        <ele>1263.3</ele>
        <time>2021-08-20T14:17:06Z</time>
      </trkpt>
      <trkpt lat="45.95836" lon="5.75114">
        <ele>1263.3</ele>
        <time>2021-08-20T14:17:08Z</time>
      </trkpt>
      <trkpt lat="45.95836" lon="5.75114">
        <ele>1263.3</ele>
        <time>2021-08-20T14:17:09Z</time>
      </trkpt>
      <trkpt lat="45.95835" lon="5.75114">
        <ele>1263.4</ele>
        <time>2021-08-20T14:17:10Z</time>
      </trkpt>
      <trkpt lat="45.95834" lon="5.75114">
        <ele>1263.4</ele>
        <time>2021-08-20T14:17:11Z</time>
      </trkpt>
      <trkpt lat="45.95833" lon="5.75115">
        <ele>1263.4</ele>
        <time>2021-08-20T14:17:12Z</time>
      </trkpt>
      <trkpt lat="45.95832" lon="5.75115">
        <ele>1263.5</ele>
        <time>2021-08-20T14:17:14Z</time>
      </trkpt>
      <trkpt lat="45.95831" lon="5.75115">
        <ele>1263.5</ele>
        <time>2021-08-20T14:17:15Z</time>
      </trkpt>
      <trkpt lat="45.95825" lon="5.75115">
        <ele>1263.6</ele>
        <time>2021-08-20T14:17:17Z</time>
      </trkpt>
      <trkpt lat="45.95822" lon="5.75115">
        <ele>1263.7</ele>
        <time>2021-08-20T14:17:18Z</time>
      </trkpt>
      <trkpt lat="45.95818" lon="5.75116">
        <ele>1263.8</ele>
        <time>2021-08-20T14:17:19Z</time>
      </trkpt>
      <trkpt lat="45.95816" lon="5.75116">
        <ele>1263.8</ele>
        <time>2021-08-20T14:17:20Z</time>
      </trkpt>
      <trkpt lat="45.95813" lon="5.75116">
        <ele>1263.9</ele>
        <time>2021-08-20T14:17:21Z</time>
      </trkpt>
      <trkpt lat="45.9581" lon="5.75116">
        <ele>1264</ele>
        <time>2021-08-20T14:17:23Z</time>
      </trkpt>
      <trkpt lat="45.95806" lon="5.75116">
        <ele>1264</ele>
        <time>2021-08-20T14:17:24Z</time>
      </trkpt>
      <trkpt lat="45.95803" lon="5.75116">
        <ele>1264.1</ele>
        <time>2021-08-20T14:17:26Z</time>
      </trkpt>
      <trkpt lat="45.95801" lon="5.75116">
        <ele>1264.1</ele>
        <time>2021-08-20T14:17:27Z</time>
      </trkpt>
      <trkpt lat="45.95799" lon="5.75115">
        <ele>1264.1</ele>
        <time>2021-08-20T14:17:29Z</time>
      </trkpt>
      <trkpt lat="45.95795" lon="5.75113">
        <ele>1264.1</ele>
        <time>2021-08-20T14:17:30Z</time>
      </trkpt>
      <trkpt lat="45.95794" lon="5.75112">
        <ele>1264.1</ele>
        <time>2021-08-20T14:17:31Z</time>
      </trkpt>
      <trkpt lat="45.95791" lon="5.7511">
        <ele>1264.1</ele>
        <time>2021-08-20T14:17:32Z</time>
      </trkpt>
      <trkpt lat="45.95787" lon="5.75107">
        <ele>1264.1</ele>
        <time>2021-08-20T14:17:34Z</time>
      </trkpt>
      <trkpt lat="45.95785" lon="5.75106">
        <ele>1264.1</ele>
        <time>2021-08-20T14:17:36Z</time>
      </trkpt>
      <trkpt lat="45.95783" lon="5.75105">
        <ele>1264.1</ele>
        <time>2021-08-20T14:17:37Z</time>
      </trkpt>
      <trkpt lat="45.95781" lon="5.75104">
        <ele>1264.1</ele>
        <time>2021-08-20T14:17:38Z</time>
      </trkpt>
      <trkpt lat="45.95778" lon="5.75104">
        <ele>1264</ele>
        <time>2021-08-20T14:17:39Z</time>
      </trkpt>
      <trkpt lat="45.95774" lon="5.75103">
        <ele>1264</ele>
        <time>2021-08-20T14:17:40Z</time>
      </trkpt>
      <trkpt lat="45.95773" lon="5.75102">
        <ele>1263.9</ele>
        <time>2021-08-20T14:17:41Z</time>
      </trkpt>
      <trkpt lat="45.95771" lon="5.75102">
        <ele>1263.9</ele>
        <time>2021-08-20T14:17:42Z</time>
      </trkpt>
      <trkpt lat="45.95768" lon="5.75102">
        <ele>1263.8</ele>
        <time>2021-08-20T14:17:44Z</time>
      </trkpt>
      <trkpt lat="45.95764" lon="5.75102">
        <ele>1263.7</ele>
        <time>2021-08-20T14:17:45Z</time>
      </trkpt>
      <trkpt lat="45.95762" lon="5.75101">
        <ele>1263.6</ele>
        <time>2021-08-20T14:17:46Z</time>
      </trkpt>
      <trkpt lat="45.95759" lon="5.751">
        <ele>1263.5</ele>
        <time>2021-08-20T14:17:47Z</time>
      </trkpt>
      <trkpt lat="45.95754" lon="5.75099">
        <ele>1263.3</ele>
        <time>2021-08-20T14:17:49Z</time>
      </trkpt>
      <trkpt lat="45.9575" lon="5.75099">
        <ele>1263.2</ele>
        <time>2021-08-20T14:17:50Z</time>
      </trkpt>
      <trkpt lat="45.95742" lon="5.75099">
        <ele>1262.9</ele>
        <time>2021-08-20T14:17:52Z</time>
      </trkpt>
      <trkpt lat="45.95736" lon="5.75099">
        <ele>1262.7</ele>
        <time>2021-08-20T14:17:53Z</time>
      </trkpt>
      <trkpt lat="45.95731" lon="5.75099">
        <ele>1262.6</ele>
        <time>2021-08-20T14:17:55Z</time>
      </trkpt>
      <trkpt lat="45.95726" lon="5.75099">
        <ele>1262.5</ele>
        <time>2021-08-20T14:17:56Z</time>
      </trkpt>
      <trkpt lat="45.95722" lon="5.751">
        <ele>1262.4</ele>
        <time>2021-08-20T14:17:57Z</time>
      </trkpt>
      <trkpt lat="45.95717" lon="5.75103">
        <ele>1262.2</ele>
        <time>2021-08-20T14:17:58Z</time>
      </trkpt>
      <trkpt lat="45.95711" lon="5.75106">
        <ele>1262.1</ele>
        <time>2021-08-20T14:18:00Z</time>
      </trkpt>
      <trkpt lat="45.95707" lon="5.75107">
        <ele>1261.9</ele>
        <time>2021-08-20T14:18:01Z</time>
      </trkpt>
      <trkpt lat="45.95701" lon="5.75107">
        <ele>1261.7</ele>
        <time>2021-08-20T14:18:02Z</time>
      </trkpt>
      <trkpt lat="45.95695" lon="5.7511">
        <ele>1261.5</ele>
        <time>2021-08-20T14:18:04Z</time>
      </trkpt>
      <trkpt lat="45.95688" lon="5.75113">
        <ele>1261.2</ele>
        <time>2021-08-20T14:18:06Z</time>
      </trkpt>
      <trkpt lat="45.95682" lon="5.75115">
        <ele>1260.8</ele>
        <time>2021-08-20T14:18:07Z</time>
      </trkpt>
      <trkpt lat="45.95678" lon="5.75116">
        <ele>1260.6</ele>
        <time>2021-08-20T14:18:08Z</time>
      </trkpt>
      <trkpt lat="45.95674" lon="5.75117">
        <ele>1260.4</ele>
        <time>2021-08-20T14:18:09Z</time>
      </trkpt>
      <trkpt lat="45.95664" lon="5.75123">
        <ele>1259.9</ele>
        <time>2021-08-20T14:18:11Z</time>
      </trkpt>
      <trkpt lat="45.95656" lon="5.75128">
        <ele>1259.5</ele>
        <time>2021-08-20T14:18:13Z</time>
      </trkpt>
      <trkpt lat="45.95652" lon="5.75131">
        <ele>1259.3</ele>
        <time>2021-08-20T14:18:14Z</time>
      </trkpt>
      <trkpt lat="45.95644" lon="5.75132">
        <ele>1259</ele>
        <time>2021-08-20T14:18:16Z</time>
      </trkpt>
      <trkpt lat="45.95638" lon="5.75138">
        <ele>1258.7</ele>
        <time>2021-08-20T14:18:17Z</time>
      </trkpt>
      <trkpt lat="45.95633" lon="5.75143">
        <ele>1258.4</ele>
        <time>2021-08-20T14:18:19Z</time>
      </trkpt>
      <trkpt lat="45.95626" lon="5.7515">
        <ele>1258</ele>
        <time>2021-08-20T14:18:20Z</time>
      </trkpt>
      <trkpt lat="45.95621" lon="5.75154">
        <ele>1257.7</ele>
        <time>2021-08-20T14:18:21Z</time>
      </trkpt>
      <trkpt lat="45.95611" lon="5.75159">
        <ele>1257.3</ele>
        <time>2021-08-20T14:18:23Z</time>
      </trkpt>
      <trkpt lat="45.95605" lon="5.75161">
        <ele>1257.2</ele>
        <time>2021-08-20T14:18:24Z</time>
      </trkpt>
      <trkpt lat="45.956" lon="5.75163">
        <ele>1257.1</ele>
        <time>2021-08-20T14:18:25Z</time>
      </trkpt>
      <trkpt lat="45.95596" lon="5.75163">
        <ele>1257</ele>
        <time>2021-08-20T14:18:26Z</time>
      </trkpt>
      <trkpt lat="45.95589" lon="5.75159">
        <ele>1256.9</ele>
        <time>2021-08-20T14:18:28Z</time>
      </trkpt>
      <trkpt lat="45.95585" lon="5.75157">
        <ele>1256.8</ele>
        <time>2021-08-20T14:18:29Z</time>
      </trkpt>
      <trkpt lat="45.95581" lon="5.75156">
        <ele>1256.7</ele>
        <time>2021-08-20T14:18:30Z</time>
      </trkpt>
      <trkpt lat="45.95578" lon="5.75156">
        <ele>1256.6</ele>
        <time>2021-08-20T14:18:31Z</time>
      </trkpt>
      <trkpt lat="45.95573" lon="5.75157">
        <ele>1256.5</ele>
        <time>2021-08-20T14:18:32Z</time>
      </trkpt>
      <trkpt lat="45.95568" lon="5.75158">
        <ele>1256.4</ele>
        <time>2021-08-20T14:18:34Z</time>
      </trkpt>
      <trkpt lat="45.95565" lon="5.7516">
        <ele>1256.4</ele>
        <time>2021-08-20T14:18:35Z</time>
      </trkpt>
      <trkpt lat="45.95561" lon="5.75161">
        <ele>1256.4</ele>
        <time>2021-08-20T14:18:36Z</time>
      </trkpt>
      <trkpt lat="45.95558" lon="5.75162">
        <ele>1256.3</ele>
        <time>2021-08-20T14:18:37Z</time>
      </trkpt>
      <trkpt lat="45.95555" lon="5.75163">
        <ele>1256.3</ele>
        <time>2021-08-20T14:18:38Z</time>
      </trkpt>
      <trkpt lat="45.95548" lon="5.75165">
        <ele>1256.2</ele>
        <time>2021-08-20T14:18:40Z</time>
      </trkpt>
      <trkpt lat="45.95545" lon="5.75167">
        <ele>1256.1</ele>
        <time>2021-08-20T14:18:41Z</time>
      </trkpt>
      <trkpt lat="45.9554" lon="5.75169">
        <ele>1256</ele>
        <time>2021-08-20T14:18:42Z</time>
      </trkpt>
      <trkpt lat="45.95536" lon="5.75171">
        <ele>1256</ele>
        <time>2021-08-20T14:18:44Z</time>
      </trkpt>
      <trkpt lat="45.95529" lon="5.75171">
        <ele>1255.9</ele>
        <time>2021-08-20T14:18:46Z</time>
      </trkpt>
      <trkpt lat="45.95525" lon="5.75172">
        <ele>1255.9</ele>
        <time>2021-08-20T14:18:47Z</time>
      </trkpt>
      <trkpt lat="45.95521" lon="5.75174">
        <ele>1255.9</ele>
        <time>2021-08-20T14:18:48Z</time>
      </trkpt>
      <trkpt lat="45.9552" lon="5.75175">
        <ele>1255.9</ele>
        <time>2021-08-20T14:18:49Z</time>
      </trkpt>
      <trkpt lat="45.95517" lon="5.75177">
        <ele>1255.9</ele>
        <time>2021-08-20T14:18:50Z</time>
      </trkpt>
      <trkpt lat="45.95514" lon="5.75178">
        <ele>1255.9</ele>
        <time>2021-08-20T14:18:52Z</time>
      </trkpt>
      <trkpt lat="45.95511" lon="5.75178">
        <ele>1256</ele>
        <time>2021-08-20T14:18:53Z</time>
      </trkpt>
      <trkpt lat="45.95508" lon="5.75178">
        <ele>1256</ele>
        <time>2021-08-20T14:18:54Z</time>
      </trkpt>
      <trkpt lat="45.95504" lon="5.75179">
        <ele>1256.1</ele>
        <time>2021-08-20T14:18:56Z</time>
      </trkpt>
      <trkpt lat="45.95499" lon="5.75178">
        <ele>1256.2</ele>
        <time>2021-08-20T14:18:58Z</time>
      </trkpt>
      <trkpt lat="45.95495" lon="5.75177">
        <ele>1256.3</ele>
        <time>2021-08-20T14:18:59Z</time>
      </trkpt>
      <trkpt lat="45.95492" lon="5.75177">
        <ele>1256.4</ele>
        <time>2021-08-20T14:19:01Z</time>
      </trkpt>
      <trkpt lat="45.9549" lon="5.75176">
        <ele>1256.5</ele>
        <time>2021-08-20T14:19:02Z</time>
      </trkpt>
      <trkpt lat="45.95487" lon="5.75177">
        <ele>1256.6</ele>
        <time>2021-08-20T14:19:04Z</time>
      </trkpt>
      <trkpt lat="45.95485" lon="5.75177">
        <ele>1256.7</ele>
        <time>2021-08-20T14:19:05Z</time>
      </trkpt>
      <trkpt lat="45.95483" lon="5.75178">
        <ele>1256.9</ele>
        <time>2021-08-20T14:19:07Z</time>
      </trkpt>
      <trkpt lat="45.9548" lon="5.7518">
        <ele>1257</ele>
        <time>2021-08-20T14:19:08Z</time>
      </trkpt>
      <trkpt lat="45.95477" lon="5.75181">
        <ele>1257.2</ele>
        <time>2021-08-20T14:19:09Z</time>
      </trkpt>
      <trkpt lat="45.95474" lon="5.75182">
        <ele>1257.4</ele>
        <time>2021-08-20T14:19:11Z</time>
      </trkpt>
      <trkpt lat="45.95471" lon="5.75184">
        <ele>1257.6</ele>
        <time>2021-08-20T14:19:13Z</time>
      </trkpt>
      <trkpt lat="45.95468" lon="5.75187">
        <ele>1257.7</ele>
        <time>2021-08-20T14:19:14Z</time>
      </trkpt>
      <trkpt lat="45.95467" lon="5.75188">
        <ele>1257.7</ele>
        <time>2021-08-20T14:19:15Z</time>
      </trkpt>
      <trkpt lat="45.95465" lon="5.75191">
        <ele>1257.8</ele>
        <time>2021-08-20T14:19:16Z</time>
      </trkpt>
      <trkpt lat="45.95462" lon="5.75193">
        <ele>1257.9</ele>
        <time>2021-08-20T14:19:18Z</time>
      </trkpt>
      <trkpt lat="45.95459" lon="5.75195">
        <ele>1258</ele>
        <time>2021-08-20T14:19:19Z</time>
      </trkpt>
      <trkpt lat="45.95456" lon="5.75197">
        <ele>1258</ele>
        <time>2021-08-20T14:19:20Z</time>
      </trkpt>
      <trkpt lat="45.95453" lon="5.75199">
        <ele>1258.1</ele>
        <time>2021-08-20T14:19:22Z</time>
      </trkpt>
      <trkpt lat="45.95449" lon="5.752">
        <ele>1258.1</ele>
        <time>2021-08-20T14:19:23Z</time>
      </trkpt>
      <trkpt lat="45.95446" lon="5.752">
        <ele>1258.2</ele>
        <time>2021-08-20T14:19:24Z</time>
      </trkpt>
      <trkpt lat="45.95442" lon="5.75199">
        <ele>1258.2</ele>
        <time>2021-08-20T14:19:26Z</time>
      </trkpt>
      <trkpt lat="45.95437" lon="5.752">
        <ele>1258.3</ele>
        <time>2021-08-20T14:19:28Z</time>
      </trkpt>
      <trkpt lat="45.95436" lon="5.75201">
        <ele>1258.3</ele>
        <time>2021-08-20T14:19:29Z</time>
      </trkpt>
      <trkpt lat="45.95435" lon="5.75201">
        <ele>1258.3</ele>
        <time>2021-08-20T14:19:30Z</time>
      </trkpt>
      <trkpt lat="45.95432" lon="5.75202">
        <ele>1258.3</ele>
        <time>2021-08-20T14:19:31Z</time>
      </trkpt>
      <trkpt lat="45.9543" lon="5.75204">
        <ele>1258.3</ele>
        <time>2021-08-20T14:19:33Z</time>
      </trkpt>
      <trkpt lat="45.95428" lon="5.75205">
        <ele>1258.2</ele>
        <time>2021-08-20T14:19:34Z</time>
      </trkpt>
      <trkpt lat="45.95427" lon="5.75206">
        <ele>1258.2</ele>
        <time>2021-08-20T14:19:35Z</time>
      </trkpt>
      <trkpt lat="45.95426" lon="5.75206">
        <ele>1258.2</ele>
        <time>2021-08-20T14:19:36Z</time>
      </trkpt>
      <trkpt lat="45.95422" lon="5.75207">
        <ele>1258.2</ele>
        <time>2021-08-20T14:19:38Z</time>
      </trkpt>
      <trkpt lat="45.95419" lon="5.75209">
        <ele>1258.1</ele>
        <time>2021-08-20T14:19:39Z</time>
      </trkpt>
      <trkpt lat="45.95417" lon="5.75211">
        <ele>1258.1</ele>
        <time>2021-08-20T14:19:40Z</time>
      </trkpt>
      <trkpt lat="45.95414" lon="5.75212">
        <ele>1258</ele>
        <time>2021-08-20T14:19:42Z</time>
      </trkpt>
      <trkpt lat="45.95411" lon="5.75213">
        <ele>1257.9</ele>
        <time>2021-08-20T14:19:43Z</time>
      </trkpt>
      <trkpt lat="45.95411" lon="5.75219">
        <ele>1257.8</ele>
        <time>2021-08-20T14:19:45Z</time>
      </trkpt>
      <trkpt lat="45.95411" lon="5.75221">
        <ele>1257.7</ele>
        <time>2021-08-20T14:19:46Z</time>
      </trkpt>
      <trkpt lat="45.95411" lon="5.75223">
        <ele>1257.7</ele>
        <time>2021-08-20T14:19:47Z</time>
      </trkpt>
      <trkpt lat="45.95412" lon="5.75229">
        <ele>1257.5</ele>
        <time>2021-08-20T14:19:49Z</time>
      </trkpt>
      <trkpt lat="45.95412" lon="5.75234">
        <ele>1257.4</ele>
        <time>2021-08-20T14:19:50Z</time>
      </trkpt>
      <trkpt lat="45.95412" lon="5.75235">
        <ele>1257.3</ele>
        <time>2021-08-20T14:19:51Z</time>
      </trkpt>
      <trkpt lat="45.95412" lon="5.75243">
        <ele>1257.1</ele>
        <time>2021-08-20T14:19:53Z</time>
      </trkpt>
      <trkpt lat="45.95411" lon="5.75245">
        <ele>1257</ele>
        <time>2021-08-20T14:19:54Z</time>
      </trkpt>
      <trkpt lat="45.95411" lon="5.75247">
        <ele>1256.9</ele>
        <time>2021-08-20T14:19:55Z</time>
      </trkpt>
      <trkpt lat="45.95412" lon="5.75254">
        <ele>1256.5</ele>
        <time>2021-08-20T14:19:56Z</time>
      </trkpt>
      <trkpt lat="45.95413" lon="5.75258">
        <ele>1256.3</ele>
        <time>2021-08-20T14:19:57Z</time>
      </trkpt>
      <trkpt lat="45.95416" lon="5.7527">
        <ele>1255.8</ele>
        <time>2021-08-20T14:19:59Z</time>
      </trkpt>
      <trkpt lat="45.95419" lon="5.75279">
        <ele>1255.6</ele>
        <time>2021-08-20T14:20:00Z</time>
      </trkpt>
      <trkpt lat="45.95418" lon="5.75287">
        <ele>1255.4</ele>
        <time>2021-08-20T14:20:02Z</time>
      </trkpt>
      <trkpt lat="45.95413" lon="5.75292">
        <ele>1255.2</ele>
        <time>2021-08-20T14:20:03Z</time>
      </trkpt>
      <trkpt lat="45.95408" lon="5.75298">
        <ele>1255</ele>
        <time>2021-08-20T14:20:05Z</time>
      </trkpt>
      <trkpt lat="45.95402" lon="5.75302">
        <ele>1254.7</ele>
        <time>2021-08-20T14:20:06Z</time>
      </trkpt>
      <trkpt lat="45.95399" lon="5.75305">
        <ele>1254.5</ele>
        <time>2021-08-20T14:20:07Z</time>
      </trkpt>
      <trkpt lat="45.95396" lon="5.75308">
        <ele>1254.3</ele>
        <time>2021-08-20T14:20:08Z</time>
      </trkpt>
      <trkpt lat="45.9539" lon="5.75312">
        <ele>1253.9</ele>
        <time>2021-08-20T14:20:10Z</time>
      </trkpt>
      <trkpt lat="45.95386" lon="5.75316">
        <ele>1253.7</ele>
        <time>2021-08-20T14:20:11Z</time>
      </trkpt>
      <trkpt lat="45.95381" lon="5.75319">
        <ele>1253.3</ele>
        <time>2021-08-20T14:20:12Z</time>
      </trkpt>
      <trkpt lat="45.95374" lon="5.75323">
        <ele>1252.9</ele>
        <time>2021-08-20T14:20:14Z</time>
      </trkpt>
      <trkpt lat="45.95364" lon="5.75327">
        <ele>1252.3</ele>
        <time>2021-08-20T14:20:16Z</time>
      </trkpt>
      <trkpt lat="45.95359" lon="5.75329">
        <ele>1252</ele>
        <time>2021-08-20T14:20:17Z</time>
      </trkpt>
      <trkpt lat="45.95349" lon="5.75332">
        <ele>1251.5</ele>
        <time>2021-08-20T14:20:19Z</time>
      </trkpt>
      <trkpt lat="45.95344" lon="5.75335">
        <ele>1251.3</ele>
        <time>2021-08-20T14:20:20Z</time>
      </trkpt>
      <trkpt lat="45.95335" lon="5.75342">
        <ele>1250.9</ele>
        <time>2021-08-20T14:20:22Z</time>
      </trkpt>
      <trkpt lat="45.9533" lon="5.75345">
        <ele>1250.8</ele>
        <time>2021-08-20T14:20:23Z</time>
      </trkpt>
      <trkpt lat="45.95326" lon="5.75348">
        <ele>1250.7</ele>
        <time>2021-08-20T14:20:24Z</time>
      </trkpt>
      <trkpt lat="45.95317" lon="5.75354">
        <ele>1250.4</ele>
        <time>2021-08-20T14:20:26Z</time>
      </trkpt>
      <trkpt lat="45.95307" lon="5.7536">
        <ele>1250.2</ele>
        <time>2021-08-20T14:20:28Z</time>
      </trkpt>
      <trkpt lat="45.95298" lon="5.75365">
        <ele>1250</ele>
        <time>2021-08-20T14:20:30Z</time>
      </trkpt>
      <trkpt lat="45.95295" lon="5.75368">
        <ele>1250</ele>
        <time>2021-08-20T14:20:31Z</time>
      </trkpt>
      <trkpt lat="45.95292" lon="5.75373">
        <ele>1249.9</ele>
        <time>2021-08-20T14:20:32Z</time>
      </trkpt>
      <trkpt lat="45.95286" lon="5.75381">
        <ele>1249.7</ele>
        <time>2021-08-20T14:20:34Z</time>
      </trkpt>
      <trkpt lat="45.95281" lon="5.75392">
        <ele>1249.6</ele>
        <time>2021-08-20T14:20:36Z</time>
      </trkpt>
      <trkpt lat="45.95278" lon="5.75397">
        <ele>1249.5</ele>
        <time>2021-08-20T14:20:37Z</time>
      </trkpt>
      <trkpt lat="45.95275" lon="5.75402">
        <ele>1249.4</ele>
        <time>2021-08-20T14:20:38Z</time>
      </trkpt>
      <trkpt lat="45.95272" lon="5.75407">
        <ele>1249.3</ele>
        <time>2021-08-20T14:20:39Z</time>
      </trkpt>
      <trkpt lat="45.95269" lon="5.75411">
        <ele>1249.2</ele>
        <time>2021-08-20T14:20:40Z</time>
      </trkpt>
      <trkpt lat="45.95266" lon="5.75416">
        <ele>1249.1</ele>
        <time>2021-08-20T14:20:42Z</time>
      </trkpt>
      <trkpt lat="45.95262" lon="5.75421">
        <ele>1249</ele>
        <time>2021-08-20T14:20:43Z</time>
      </trkpt>
      <trkpt lat="45.9526" lon="5.75425">
        <ele>1248.9</ele>
        <time>2021-08-20T14:20:45Z</time>
      </trkpt>
      <trkpt lat="45.95258" lon="5.75428">
        <ele>1248.7</ele>
        <time>2021-08-20T14:20:46Z</time>
      </trkpt>
      <trkpt lat="45.95257" lon="5.75432">
        <ele>1248.4</ele>
        <time>2021-08-20T14:20:48Z</time>
      </trkpt>
      <trkpt lat="45.95257" lon="5.75433">
        <ele>1248.3</ele>
        <time>2021-08-20T14:20:49Z</time>
      </trkpt>
      <trkpt lat="45.95258" lon="5.75436">
        <ele>1248.1</ele>
        <time>2021-08-20T14:20:50Z</time>
      </trkpt>
      <trkpt lat="45.95259" lon="5.75444">
        <ele>1247.6</ele>
        <time>2021-08-20T14:20:52Z</time>
      </trkpt>
      <trkpt lat="45.95259" lon="5.75447">
        <ele>1247.4</ele>
        <time>2021-08-20T14:20:53Z</time>
      </trkpt>
      <trkpt lat="45.95258" lon="5.75452">
        <ele>1247.1</ele>
        <time>2021-08-20T14:20:55Z</time>
      </trkpt>
      <trkpt lat="45.95256" lon="5.75455">
        <ele>1246.8</ele>
        <time>2021-08-20T14:20:56Z</time>
      </trkpt>
      <trkpt lat="45.95255" lon="5.75459">
        <ele>1246.5</ele>
        <time>2021-08-20T14:20:57Z</time>
      </trkpt>
      <trkpt lat="45.95254" lon="5.75465">
        <ele>1246.1</ele>
        <time>2021-08-20T14:20:59Z</time>
      </trkpt>
      <trkpt lat="45.95253" lon="5.75469">
        <ele>1245.8</ele>
        <time>2021-08-20T14:21:00Z</time>
      </trkpt>
      <trkpt lat="45.9525" lon="5.75474">
        <ele>1245.4</ele>
        <time>2021-08-20T14:21:01Z</time>
      </trkpt>
      <trkpt lat="45.95249" lon="5.75476">
        <ele>1245.1</ele>
        <time>2021-08-20T14:21:02Z</time>
      </trkpt>
      <trkpt lat="45.95247" lon="5.75476">
        <ele>1244.9</ele>
        <time>2021-08-20T14:21:04Z</time>
      </trkpt>
      <trkpt lat="45.95242" lon="5.7548">
        <ele>1244.3</ele>
        <time>2021-08-20T14:21:05Z</time>
      </trkpt>
      <trkpt lat="45.95239" lon="5.75486">
        <ele>1243.6</ele>
        <time>2021-08-20T14:21:06Z</time>
      </trkpt>
      <trkpt lat="45.95235" lon="5.75493">
        <ele>1242.9</ele>
        <time>2021-08-20T14:21:08Z</time>
      </trkpt>
      <trkpt lat="45.95231" lon="5.75499">
        <ele>1242.2</ele>
        <time>2021-08-20T14:21:09Z</time>
      </trkpt>
      <trkpt lat="45.95227" lon="5.75505">
        <ele>1241.6</ele>
        <time>2021-08-20T14:21:11Z</time>
      </trkpt>
      <trkpt lat="45.95223" lon="5.75511">
        <ele>1241</ele>
        <time>2021-08-20T14:21:12Z</time>
      </trkpt>
      <trkpt lat="45.9522" lon="5.75517">
        <ele>1240.5</ele>
        <time>2021-08-20T14:21:52Z</time>
      </trkpt>
      <trkpt lat="45.95216" lon="5.75523">
        <ele>1240</ele>
        <time>2021-08-20T14:21:53Z</time>
      </trkpt>
      <trkpt lat="45.95198" lon="5.75543">
        <ele>1238</ele>
        <time>2021-08-20T14:21:54Z</time>
      </trkpt>
      <trkpt lat="45.95194" lon="5.75547">
        <ele>1237.5</ele>
        <time>2021-08-20T14:21:55Z</time>
      </trkpt>
      <trkpt lat="45.95181" lon="5.7556">
        <ele>1235.9</ele>
        <time>2021-08-20T14:21:57Z</time>
      </trkpt>
      <trkpt lat="45.95169" lon="5.75574">
        <ele>1234.4</ele>
        <time>2021-08-20T14:21:59Z</time>
      </trkpt>
      <trkpt lat="45.95163" lon="5.75581">
        <ele>1233.9</ele>
        <time>2021-08-20T14:22:00Z</time>
      </trkpt>
      <trkpt lat="45.9515" lon="5.75595">
        <ele>1232.8</ele>
        <time>2021-08-20T14:22:02Z</time>
      </trkpt>
      <trkpt lat="45.95138" lon="5.7561">
        <ele>1232.2</ele>
        <time>2021-08-20T14:22:04Z</time>
      </trkpt>
      <trkpt lat="45.95132" lon="5.75618">
        <ele>1232</ele>
        <time>2021-08-20T14:22:05Z</time>
      </trkpt>
      <trkpt lat="45.95127" lon="5.75626">
        <ele>1231.9</ele>
        <time>2021-08-20T14:22:06Z</time>
      </trkpt>
      <trkpt lat="45.95118" lon="5.75637">
        <ele>1231.7</ele>
        <time>2021-08-20T14:22:08Z</time>
      </trkpt>
      <trkpt lat="45.95114" lon="5.75641">
        <ele>1231.7</ele>
        <time>2021-08-20T14:22:09Z</time>
      </trkpt>
      <trkpt lat="45.95105" lon="5.75646">
        <ele>1231.7</ele>
        <time>2021-08-20T14:22:11Z</time>
      </trkpt>
      <trkpt lat="45.95101" lon="5.75648">
        <ele>1231.7</ele>
        <time>2021-08-20T14:22:12Z</time>
      </trkpt>
      <trkpt lat="45.95096" lon="5.75648">
        <ele>1231.8</ele>
        <time>2021-08-20T14:22:13Z</time>
      </trkpt>
      <trkpt lat="45.95092" lon="5.75647">
        <ele>1231.9</ele>
        <time>2021-08-20T14:22:14Z</time>
      </trkpt>
      <trkpt lat="45.95087" lon="5.75646">
        <ele>1231.9</ele>
        <time>2021-08-20T14:22:15Z</time>
      </trkpt>
      <trkpt lat="45.95084" lon="5.75646">
        <ele>1232</ele>
        <time>2021-08-20T14:22:16Z</time>
      </trkpt>
      <trkpt lat="45.95078" lon="5.75647">
        <ele>1232.1</ele>
        <time>2021-08-20T14:22:17Z</time>
      </trkpt>
      <trkpt lat="45.95073" lon="5.75655">
        <ele>1232.3</ele>
        <time>2021-08-20T14:22:19Z</time>
      </trkpt>
      <trkpt lat="45.95069" lon="5.75653">
        <ele>1232.4</ele>
        <time>2021-08-20T14:22:21Z</time>
      </trkpt>
      <trkpt lat="45.95067" lon="5.75656">
        <ele>1232.5</ele>
        <time>2021-08-20T14:22:22Z</time>
      </trkpt>
      <trkpt lat="45.95064" lon="5.75658">
        <ele>1232.6</ele>
        <time>2021-08-20T14:22:23Z</time>
      </trkpt>
      <trkpt lat="45.95061" lon="5.7566">
        <ele>1232.8</ele>
        <time>2021-08-20T14:22:25Z</time>
      </trkpt>
      <trkpt lat="45.95059" lon="5.7566">
        <ele>1232.9</ele>
        <time>2021-08-20T14:22:26Z</time>
      </trkpt>
      <trkpt lat="45.95057" lon="5.75661">
        <ele>1233</ele>
        <time>2021-08-20T14:22:27Z</time>
      </trkpt>
      <trkpt lat="45.95053" lon="5.75663">
        <ele>1233.2</ele>
        <time>2021-08-20T14:22:29Z</time>
      </trkpt>
      <trkpt lat="45.95053" lon="5.75664">
        <ele>1233.2</ele>
        <time>2021-08-20T14:22:30Z</time>
      </trkpt>
      <trkpt lat="45.95054" lon="5.75664">
        <ele>1233.3</ele>
        <time>2021-08-20T14:22:31Z</time>
      </trkpt>
      <trkpt lat="45.95054" lon="5.75664">
        <ele>1233.3</ele>
        <time>2021-08-20T14:22:32Z</time>
      </trkpt>
      <trkpt lat="45.95054" lon="5.75664">
        <ele>1233.3</ele>
        <time>2021-08-20T14:22:34Z</time>
      </trkpt>
      <trkpt lat="45.95054" lon="5.75664">
        <ele>1233.3</ele>
        <time>2021-08-20T14:22:35Z</time>
      </trkpt>
      <trkpt lat="45.95054" lon="5.75663">
        <ele>1233.3</ele>
        <time>2021-08-20T14:22:37Z</time>
      </trkpt>
      <trkpt lat="45.95054" lon="5.75663">
        <ele>1233.3</ele>
        <time>2021-08-20T14:22:38Z</time>
      </trkpt>
      <trkpt lat="45.95054" lon="5.75663">
        <ele>1233.3</ele>
        <time>2021-08-20T14:22:39Z</time>
      </trkpt>
      <trkpt lat="45.95054" lon="5.75642">
        <ele>1234.1</ele>
        <time>2021-08-20T14:23:36Z</time>
      </trkpt>
      <trkpt lat="45.95054" lon="5.7564">
        <ele>1234.1</ele>
        <time>2021-08-20T14:23:37Z</time>
      </trkpt>
      <trkpt lat="45.95053" lon="5.75638">
        <ele>1234.2</ele>
        <time>2021-08-20T14:23:38Z</time>
      </trkpt>
      <trkpt lat="45.95053" lon="5.75636">
        <ele>1234.3</ele>
        <time>2021-08-20T14:23:39Z</time>
      </trkpt>
      <trkpt lat="45.95052" lon="5.75635">
        <ele>1234.4</ele>
        <time>2021-08-20T14:23:41Z</time>
      </trkpt>
      <trkpt lat="45.95051" lon="5.75634">
        <ele>1234.4</ele>
        <time>2021-08-20T14:23:43Z</time>
      </trkpt>
      <trkpt lat="45.9505" lon="5.75634">
        <ele>1234.5</ele>
        <time>2021-08-20T14:23:44Z</time>
      </trkpt>
      <trkpt lat="45.95049" lon="5.75633">
        <ele>1234.6</ele>
        <time>2021-08-20T14:23:45Z</time>
      </trkpt>
      <trkpt lat="45.95048" lon="5.75633">
        <ele>1234.6</ele>
        <time>2021-08-20T14:23:46Z</time>
      </trkpt>
      <trkpt lat="45.95047" lon="5.75632">
        <ele>1234.7</ele>
        <time>2021-08-20T14:23:48Z</time>
      </trkpt>
      <trkpt lat="45.95047" lon="5.75632">
        <ele>1234.7</ele>
        <time>2021-08-20T14:23:49Z</time>
      </trkpt>
      <trkpt lat="45.95046" lon="5.75632">
        <ele>1234.8</ele>
        <time>2021-08-20T14:23:51Z</time>
      </trkpt>
      <trkpt lat="45.95046" lon="5.75631">
        <ele>1234.8</ele>
        <time>2021-08-20T14:23:52Z</time>
      </trkpt>
      <trkpt lat="45.95045" lon="5.75631">
        <ele>1234.8</ele>
        <time>2021-08-20T14:23:53Z</time>
      </trkpt>
      <trkpt lat="45.95044" lon="5.7563">
        <ele>1234.9</ele>
        <time>2021-08-20T14:23:55Z</time>
      </trkpt>
      <trkpt lat="45.95042" lon="5.75627">
        <ele>1235.1</ele>
        <time>2021-08-20T14:23:57Z</time>
      </trkpt>
      <trkpt lat="45.95041" lon="5.75625">
        <ele>1235.2</ele>
        <time>2021-08-20T14:23:58Z</time>
      </trkpt>
      <trkpt lat="45.95039" lon="5.75622">
        <ele>1235.4</ele>
        <time>2021-08-20T14:24:00Z</time>
      </trkpt>
      <trkpt lat="45.95038" lon="5.75621">
        <ele>1235.4</ele>
        <time>2021-08-20T14:24:01Z</time>
      </trkpt>
      <trkpt lat="45.95035" lon="5.75618">
        <ele>1235.6</ele>
        <time>2021-08-20T14:24:03Z</time>
      </trkpt>
      <trkpt lat="45.95032" lon="5.75614">
        <ele>1235.9</ele>
        <time>2021-08-20T14:24:04Z</time>
      </trkpt>
      <trkpt lat="45.95028" lon="5.7561">
        <ele>1236.2</ele>
        <time>2021-08-20T14:24:05Z</time>
      </trkpt>
      <trkpt lat="45.95026" lon="5.75608">
        <ele>1236.3</ele>
        <time>2021-08-20T14:24:07Z</time>
      </trkpt>
      <trkpt lat="45.95024" lon="5.75606">
        <ele>1236.4</ele>
        <time>2021-08-20T14:24:08Z</time>
      </trkpt>
      <trkpt lat="45.95022" lon="5.75605">
        <ele>1236.6</ele>
        <time>2021-08-20T14:24:10Z</time>
      </trkpt>
      <trkpt lat="45.9502" lon="5.75603">
        <ele>1236.7</ele>
        <time>2021-08-20T14:24:11Z</time>
      </trkpt>
      <trkpt lat="45.95018" lon="5.75601">
        <ele>1236.8</ele>
        <time>2021-08-20T14:24:13Z</time>
      </trkpt>
      <trkpt lat="45.95016" lon="5.756">
        <ele>1236.9</ele>
        <time>2021-08-20T14:24:15Z</time>
      </trkpt>
      <trkpt lat="45.95014" lon="5.75598">
        <ele>1237</ele>
        <time>2021-08-20T14:24:38Z</time>
      </trkpt>
      <trkpt lat="45.95012" lon="5.75596">
        <ele>1237.1</ele>
        <time>2021-08-20T14:24:39Z</time>
      </trkpt>
      <trkpt lat="45.95008" lon="5.75594">
        <ele>1237.4</ele>
        <time>2021-08-20T14:24:41Z</time>
      </trkpt>
      <trkpt lat="45.95004" lon="5.75592">
        <ele>1237.5</ele>
        <time>2021-08-20T14:24:42Z</time>
      </trkpt>
      <trkpt lat="45.95" lon="5.7559">
        <ele>1237.7</ele>
        <time>2021-08-20T14:24:43Z</time>
      </trkpt>
      <trkpt lat="45.94997" lon="5.75586">
        <ele>1237.8</ele>
        <time>2021-08-20T14:24:45Z</time>
      </trkpt>
      <trkpt lat="45.94994" lon="5.75583">
        <ele>1237.9</ele>
        <time>2021-08-20T14:24:46Z</time>
      </trkpt>
      <trkpt lat="45.94993" lon="5.75582">
        <ele>1238</ele>
        <time>2021-08-20T14:24:47Z</time>
      </trkpt>
      <trkpt lat="45.9499" lon="5.75581">
        <ele>1238.1</ele>
        <time>2021-08-20T14:24:48Z</time>
      </trkpt>
      <trkpt lat="45.94989" lon="5.7558">
        <ele>1238.1</ele>
        <time>2021-08-20T14:24:49Z</time>
      </trkpt>
      <trkpt lat="45.94985" lon="5.75578">
        <ele>1238.2</ele>
        <time>2021-08-20T14:24:51Z</time>
      </trkpt>
      <trkpt lat="45.94983" lon="5.75576">
        <ele>1238.2</ele>
        <time>2021-08-20T14:24:52Z</time>
      </trkpt>
      <trkpt lat="45.9498" lon="5.75574">
        <ele>1238.3</ele>
        <time>2021-08-20T14:24:53Z</time>
      </trkpt>
      <trkpt lat="45.94978" lon="5.75572">
        <ele>1238.3</ele>
        <time>2021-08-20T14:24:54Z</time>
      </trkpt>
      <trkpt lat="45.94974" lon="5.75568">
        <ele>1238.4</ele>
        <time>2021-08-20T14:24:56Z</time>
      </trkpt>
      <trkpt lat="45.94972" lon="5.75567">
        <ele>1238.4</ele>
        <time>2021-08-20T14:24:57Z</time>
      </trkpt>
      <trkpt lat="45.94968" lon="5.75565">
        <ele>1238.5</ele>
        <time>2021-08-20T14:24:59Z</time>
      </trkpt>
      <trkpt lat="45.94964" lon="5.75564">
        <ele>1238.5</ele>
        <time>2021-08-20T14:25:00Z</time>
      </trkpt>
      <trkpt lat="45.94961" lon="5.75562">
        <ele>1238.6</ele>
        <time>2021-08-20T14:25:01Z</time>
      </trkpt>
      <trkpt lat="45.94956" lon="5.7556">
        <ele>1238.7</ele>
        <time>2021-08-20T14:25:03Z</time>
      </trkpt>
      <trkpt lat="45.94952" lon="5.75557">
        <ele>1238.8</ele>
        <time>2021-08-20T14:25:04Z</time>
      </trkpt>
      <trkpt lat="45.94951" lon="5.75555">
        <ele>1238.9</ele>
        <time>2021-08-20T14:25:05Z</time>
      </trkpt>
      <trkpt lat="45.94948" lon="5.75552">
        <ele>1239</ele>
        <time>2021-08-20T14:25:06Z</time>
      </trkpt>
      <trkpt lat="45.94946" lon="5.75551">
        <ele>1239.1</ele>
        <time>2021-08-20T14:25:07Z</time>
      </trkpt>
      <trkpt lat="45.94943" lon="5.75548">
        <ele>1239.2</ele>
        <time>2021-08-20T14:25:09Z</time>
      </trkpt>
      <trkpt lat="45.94942" lon="5.75548">
        <ele>1239.3</ele>
        <time>2021-08-20T14:25:10Z</time>
      </trkpt>
      <trkpt lat="45.94938" lon="5.75546">
        <ele>1239.4</ele>
        <time>2021-08-20T14:25:11Z</time>
      </trkpt>
      <trkpt lat="45.94937" lon="5.75546">
        <ele>1239.5</ele>
        <time>2021-08-20T14:25:12Z</time>
      </trkpt>
      <trkpt lat="45.94933" lon="5.75544">
        <ele>1239.6</ele>
        <time>2021-08-20T14:25:14Z</time>
      </trkpt>
      <trkpt lat="45.94929" lon="5.75544">
        <ele>1239.8</ele>
        <time>2021-08-20T14:25:15Z</time>
      </trkpt>
      <trkpt lat="45.94926" lon="5.75542">
        <ele>1239.9</ele>
        <time>2021-08-20T14:25:17Z</time>
      </trkpt>
      <trkpt lat="45.94923" lon="5.75542">
        <ele>1240.1</ele>
        <time>2021-08-20T14:25:18Z</time>
      </trkpt>
      <trkpt lat="45.9492" lon="5.75541">
        <ele>1240.2</ele>
        <time>2021-08-20T14:25:19Z</time>
      </trkpt>
      <trkpt lat="45.94914" lon="5.75541">
        <ele>1240.4</ele>
        <time>2021-08-20T14:25:21Z</time>
      </trkpt>
      <trkpt lat="45.94911" lon="5.75541">
        <ele>1240.5</ele>
        <time>2021-08-20T14:25:22Z</time>
      </trkpt>
      <trkpt lat="45.94909" lon="5.75541">
        <ele>1240.6</ele>
        <time>2021-08-20T14:25:23Z</time>
      </trkpt>
      <trkpt lat="45.94907" lon="5.75542">
        <ele>1240.7</ele>
        <time>2021-08-20T14:25:24Z</time>
      </trkpt>
      <trkpt lat="45.94903" lon="5.75545">
        <ele>1240.8</ele>
        <time>2021-08-20T14:25:26Z</time>
      </trkpt>
      <trkpt lat="45.949" lon="5.75549">
        <ele>1241</ele>
        <time>2021-08-20T14:25:28Z</time>
      </trkpt>
      <trkpt lat="45.94899" lon="5.75551">
        <ele>1241</ele>
        <time>2021-08-20T14:25:29Z</time>
      </trkpt>
      <trkpt lat="45.94898" lon="5.75551">
        <ele>1241.1</ele>
        <time>2021-08-20T14:25:30Z</time>
      </trkpt>
      <trkpt lat="45.94894" lon="5.75553">
        <ele>1241.2</ele>
        <time>2021-08-20T14:25:32Z</time>
      </trkpt>
      <trkpt lat="45.94893" lon="5.75554">
        <ele>1241.3</ele>
        <time>2021-08-20T14:25:33Z</time>
      </trkpt>
      <trkpt lat="45.94891" lon="5.75554">
        <ele>1241.3</ele>
        <time>2021-08-20T14:25:34Z</time>
      </trkpt>
      <trkpt lat="45.94889" lon="5.75556">
        <ele>1241.5</ele>
        <time>2021-08-20T14:25:35Z</time>
      </trkpt>
      <trkpt lat="45.94889" lon="5.75557">
        <ele>1241.5</ele>
        <time>2021-08-20T14:25:36Z</time>
      </trkpt>
      <trkpt lat="45.94885" lon="5.75559">
        <ele>1241.7</ele>
        <time>2021-08-20T14:25:38Z</time>
      </trkpt>
      <trkpt lat="45.94881" lon="5.75561">
        <ele>1241.8</ele>
        <time>2021-08-20T14:25:39Z</time>
      </trkpt>
      <trkpt lat="45.9488" lon="5.75561">
        <ele>1241.9</ele>
        <time>2021-08-20T14:25:40Z</time>
      </trkpt>
      <trkpt lat="45.94877" lon="5.75562">
        <ele>1242</ele>
        <time>2021-08-20T14:25:41Z</time>
      </trkpt>
      <trkpt lat="45.94874" lon="5.75562">
        <ele>1242.1</ele>
        <time>2021-08-20T14:25:43Z</time>
      </trkpt>
      <trkpt lat="45.94871" lon="5.75562">
        <ele>1242.2</ele>
        <time>2021-08-20T14:25:44Z</time>
      </trkpt>
      <trkpt lat="45.94869" lon="5.75563">
        <ele>1242.2</ele>
        <time>2021-08-20T14:25:45Z</time>
      </trkpt>
      <trkpt lat="45.94865" lon="5.75564">
        <ele>1242.3</ele>
        <time>2021-08-20T14:25:47Z</time>
      </trkpt>
      <trkpt lat="45.94862" lon="5.75567">
        <ele>1242.3</ele>
        <time>2021-08-20T14:25:48Z</time>
      </trkpt>
      <trkpt lat="45.9486" lon="5.75568">
        <ele>1242.4</ele>
        <time>2021-08-20T14:25:49Z</time>
      </trkpt>
      <trkpt lat="45.94858" lon="5.75569">
        <ele>1242.4</ele>
        <time>2021-08-20T14:25:50Z</time>
      </trkpt>
      <trkpt lat="45.94854" lon="5.75572">
        <ele>1242.4</ele>
        <time>2021-08-20T14:25:52Z</time>
      </trkpt>
      <trkpt lat="45.94849" lon="5.75573">
        <ele>1242.4</ele>
        <time>2021-08-20T14:25:53Z</time>
      </trkpt>
      <trkpt lat="45.94844" lon="5.75574">
        <ele>1242.5</ele>
        <time>2021-08-20T14:25:55Z</time>
      </trkpt>
      <trkpt lat="45.94841" lon="5.75575">
        <ele>1242.5</ele>
        <time>2021-08-20T14:25:56Z</time>
      </trkpt>
      <trkpt lat="45.94838" lon="5.75576">
        <ele>1242.5</ele>
        <time>2021-08-20T14:25:57Z</time>
      </trkpt>
      <trkpt lat="45.94836" lon="5.75579">
        <ele>1242.6</ele>
        <time>2021-08-20T14:25:58Z</time>
      </trkpt>
      <trkpt lat="45.94833" lon="5.75582">
        <ele>1242.7</ele>
        <time>2021-08-20T14:26:00Z</time>
      </trkpt>
      <trkpt lat="45.94829" lon="5.75585">
        <ele>1242.8</ele>
        <time>2021-08-20T14:26:01Z</time>
      </trkpt>
      <trkpt lat="45.94825" lon="5.75586">
        <ele>1243</ele>
        <time>2021-08-20T14:26:03Z</time>
      </trkpt>
      <trkpt lat="45.94822" lon="5.75587">
        <ele>1243.1</ele>
        <time>2021-08-20T14:26:04Z</time>
      </trkpt>
      <trkpt lat="45.94819" lon="5.75589">
        <ele>1243.3</ele>
        <time>2021-08-20T14:26:06Z</time>
      </trkpt>
      <trkpt lat="45.94815" lon="5.75588">
        <ele>1243.5</ele>
        <time>2021-08-20T14:26:07Z</time>
      </trkpt>
      <trkpt lat="45.94813" lon="5.75588">
        <ele>1243.6</ele>
        <time>2021-08-20T14:26:08Z</time>
      </trkpt>
      <trkpt lat="45.94811" lon="5.75587">
        <ele>1243.7</ele>
        <time>2021-08-20T14:26:09Z</time>
      </trkpt>
      <trkpt lat="45.94808" lon="5.75586">
        <ele>1243.9</ele>
        <time>2021-08-20T14:26:11Z</time>
      </trkpt>
      <trkpt lat="45.94805" lon="5.75585">
        <ele>1244.1</ele>
        <time>2021-08-20T14:26:13Z</time>
      </trkpt>
      <trkpt lat="45.94803" lon="5.75585">
        <ele>1244.3</ele>
        <time>2021-08-20T14:26:14Z</time>
      </trkpt>
      <trkpt lat="45.94801" lon="5.75584">
        <ele>1244.4</ele>
        <time>2021-08-20T14:26:16Z</time>
      </trkpt>
      <trkpt lat="45.948" lon="5.75582">
        <ele>1244.5</ele>
        <time>2021-08-20T14:26:17Z</time>
      </trkpt>
      <trkpt lat="45.94799" lon="5.75582">
        <ele>1244.6</ele>
        <time>2021-08-20T14:26:18Z</time>
      </trkpt>
      <trkpt lat="45.94797" lon="5.75582">
        <ele>1244.7</ele>
        <time>2021-08-20T14:26:19Z</time>
      </trkpt>
      <trkpt lat="45.94795" lon="5.75582">
        <ele>1244.9</ele>
        <time>2021-08-20T14:26:21Z</time>
      </trkpt>
      <trkpt lat="45.94793" lon="5.75582">
        <ele>1245</ele>
        <time>2021-08-20T14:26:22Z</time>
      </trkpt>
      <trkpt lat="45.9479" lon="5.75582">
        <ele>1245.2</ele>
        <time>2021-08-20T14:26:24Z</time>
      </trkpt>
      <trkpt lat="45.94788" lon="5.75582">
        <ele>1245.4</ele>
        <time>2021-08-20T14:26:25Z</time>
      </trkpt>
      <trkpt lat="45.94787" lon="5.75583">
        <ele>1245.5</ele>
        <time>2021-08-20T14:26:27Z</time>
      </trkpt>
      <trkpt lat="45.94787" lon="5.75583">
        <ele>1245.5</ele>
        <time>2021-08-20T14:26:28Z</time>
      </trkpt>
      <trkpt lat="45.94784" lon="5.75584">
        <ele>1245.7</ele>
        <time>2021-08-20T14:26:29Z</time>
      </trkpt>
      <trkpt lat="45.94782" lon="5.75585">
        <ele>1245.8</ele>
        <time>2021-08-20T14:26:30Z</time>
      </trkpt>
      <trkpt lat="45.9478" lon="5.75585">
        <ele>1246</ele>
        <time>2021-08-20T14:26:32Z</time>
      </trkpt>
      <trkpt lat="45.94777" lon="5.75585">
        <ele>1246.1</ele>
        <time>2021-08-20T14:26:33Z</time>
      </trkpt>
      <trkpt lat="45.94773" lon="5.75587">
        <ele>1246.4</ele>
        <time>2021-08-20T14:26:35Z</time>
      </trkpt>
      <trkpt lat="45.9477" lon="5.75588">
        <ele>1246.5</ele>
        <time>2021-08-20T14:26:36Z</time>
      </trkpt>
      <trkpt lat="45.94768" lon="5.75589">
        <ele>1246.6</ele>
        <time>2021-08-20T14:26:37Z</time>
      </trkpt>
      <trkpt lat="45.94764" lon="5.75589">
        <ele>1246.8</ele>
        <time>2021-08-20T14:26:39Z</time>
      </trkpt>
      <trkpt lat="45.94761" lon="5.7559">
        <ele>1247</ele>
        <time>2021-08-20T14:26:40Z</time>
      </trkpt>
      <trkpt lat="45.94758" lon="5.75591">
        <ele>1247.1</ele>
        <time>2021-08-20T14:26:42Z</time>
      </trkpt>
      <trkpt lat="45.94754" lon="5.75592">
        <ele>1247.2</ele>
        <time>2021-08-20T14:26:43Z</time>
      </trkpt>
      <trkpt lat="45.94751" lon="5.75592">
        <ele>1247.3</ele>
        <time>2021-08-20T14:26:45Z</time>
      </trkpt>
      <trkpt lat="45.9475" lon="5.75592">
        <ele>1247.4</ele>
        <time>2021-08-20T14:26:46Z</time>
      </trkpt>
      <trkpt lat="45.94747" lon="5.75592">
        <ele>1247.4</ele>
        <time>2021-08-20T14:26:47Z</time>
      </trkpt>
      <trkpt lat="45.94746" lon="5.75592">
        <ele>1247.5</ele>
        <time>2021-08-20T14:26:48Z</time>
      </trkpt>
      <trkpt lat="45.94745" lon="5.75592">
        <ele>1247.5</ele>
        <time>2021-08-20T14:26:49Z</time>
      </trkpt>
      <trkpt lat="45.94743" lon="5.75592">
        <ele>1247.6</ele>
        <time>2021-08-20T14:26:50Z</time>
      </trkpt>
      <trkpt lat="45.9474" lon="5.75592">
        <ele>1247.7</ele>
        <time>2021-08-20T14:26:52Z</time>
      </trkpt>
      <trkpt lat="45.94739" lon="5.75592">
        <ele>1247.7</ele>
        <time>2021-08-20T14:26:53Z</time>
      </trkpt>
      <trkpt lat="45.94736" lon="5.75591">
        <ele>1247.8</ele>
        <time>2021-08-20T14:26:55Z</time>
      </trkpt>
      <trkpt lat="45.94735" lon="5.75591">
        <ele>1247.8</ele>
        <time>2021-08-20T14:26:56Z</time>
      </trkpt>
      <trkpt lat="45.94733" lon="5.7559">
        <ele>1247.9</ele>
        <time>2021-08-20T14:26:57Z</time>
      </trkpt>
      <trkpt lat="45.94731" lon="5.75588">
        <ele>1248</ele>
        <time>2021-08-20T14:26:59Z</time>
      </trkpt>
      <trkpt lat="45.94728" lon="5.75586">
        <ele>1248</ele>
        <time>2021-08-20T14:27:00Z</time>
      </trkpt>
      <trkpt lat="45.94727" lon="5.75585">
        <ele>1248.1</ele>
        <time>2021-08-20T14:27:01Z</time>
      </trkpt>
      <trkpt lat="45.94722" lon="5.75583">
        <ele>1248.2</ele>
        <time>2021-08-20T14:27:03Z</time>
      </trkpt>
      <trkpt lat="45.9472" lon="5.75581">
        <ele>1248.3</ele>
        <time>2021-08-20T14:27:04Z</time>
      </trkpt>
      <trkpt lat="45.94717" lon="5.7558">
        <ele>1248.3</ele>
        <time>2021-08-20T14:27:06Z</time>
      </trkpt>
      <trkpt lat="45.94716" lon="5.75579">
        <ele>1248.4</ele>
        <time>2021-08-20T14:27:07Z</time>
      </trkpt>
      <trkpt lat="45.94715" lon="5.75578">
        <ele>1248.4</ele>
        <time>2021-08-20T14:27:08Z</time>
      </trkpt>
      <trkpt lat="45.94711" lon="5.75576">
        <ele>1248.5</ele>
        <time>2021-08-20T14:27:09Z</time>
      </trkpt>
      <trkpt lat="45.9471" lon="5.75576">
        <ele>1248.5</ele>
        <time>2021-08-20T14:27:10Z</time>
      </trkpt>
      <trkpt lat="45.94706" lon="5.75575">
        <ele>1248.6</ele>
        <time>2021-08-20T14:27:11Z</time>
      </trkpt>
      <trkpt lat="45.94702" lon="5.75577">
        <ele>1248.7</ele>
        <time>2021-08-20T14:27:13Z</time>
      </trkpt>
      <trkpt lat="45.94697" lon="5.75578">
        <ele>1248.9</ele>
        <time>2021-08-20T14:27:14Z</time>
      </trkpt>
      <trkpt lat="45.94693" lon="5.75577">
        <ele>1249</ele>
        <time>2021-08-20T14:27:16Z</time>
      </trkpt>
      <trkpt lat="45.9469" lon="5.75577">
        <ele>1249</ele>
        <time>2021-08-20T14:27:17Z</time>
      </trkpt>
      <trkpt lat="45.94687" lon="5.75576">
        <ele>1249.1</ele>
        <time>2021-08-20T14:27:18Z</time>
      </trkpt>
      <trkpt lat="45.94682" lon="5.75577">
        <ele>1249.3</ele>
        <time>2021-08-20T14:27:20Z</time>
      </trkpt>
      <trkpt lat="45.94678" lon="5.75577">
        <ele>1249.4</ele>
        <time>2021-08-20T14:27:21Z</time>
      </trkpt>
      <trkpt lat="45.94674" lon="5.7558">
        <ele>1249.5</ele>
        <time>2021-08-20T14:27:23Z</time>
      </trkpt>
      <trkpt lat="45.94671" lon="5.75582">
        <ele>1249.6</ele>
        <time>2021-08-20T14:27:24Z</time>
      </trkpt>
      <trkpt lat="45.94667" lon="5.75583">
        <ele>1249.8</ele>
        <time>2021-08-20T14:27:25Z</time>
      </trkpt>
      <trkpt lat="45.94662" lon="5.75582">
        <ele>1249.9</ele>
        <time>2021-08-20T14:27:27Z</time>
      </trkpt>
      <trkpt lat="45.94659" lon="5.75583">
        <ele>1250</ele>
        <time>2021-08-20T14:27:28Z</time>
      </trkpt>
      <trkpt lat="45.94656" lon="5.75586">
        <ele>1250</ele>
        <time>2021-08-20T14:27:29Z</time>
      </trkpt>
      <trkpt lat="45.94651" lon="5.7559">
        <ele>1250.1</ele>
        <time>2021-08-20T14:27:31Z</time>
      </trkpt>
      <trkpt lat="45.94646" lon="5.75593">
        <ele>1250.2</ele>
        <time>2021-08-20T14:27:32Z</time>
      </trkpt>
      <trkpt lat="45.94643" lon="5.75594">
        <ele>1250.2</ele>
        <time>2021-08-20T14:27:33Z</time>
      </trkpt>
      <trkpt lat="45.9464" lon="5.75595">
        <ele>1250.3</ele>
        <time>2021-08-20T14:27:34Z</time>
      </trkpt>
      <trkpt lat="45.94637" lon="5.75595">
        <ele>1250.3</ele>
        <time>2021-08-20T14:27:35Z</time>
      </trkpt>
      <trkpt lat="45.94632" lon="5.75595">
        <ele>1250.4</ele>
        <time>2021-08-20T14:27:36Z</time>
      </trkpt>
      <trkpt lat="45.9463" lon="5.75595">
        <ele>1250.4</ele>
        <time>2021-08-20T14:27:37Z</time>
      </trkpt>
      <trkpt lat="45.94628" lon="5.75596">
        <ele>1250.5</ele>
        <time>2021-08-20T14:27:38Z</time>
      </trkpt>
      <trkpt lat="45.94624" lon="5.75595">
        <ele>1250.6</ele>
        <time>2021-08-20T14:27:40Z</time>
      </trkpt>
      <trkpt lat="45.94621" lon="5.75595">
        <ele>1250.7</ele>
        <time>2021-08-20T14:27:41Z</time>
      </trkpt>
      <trkpt lat="45.94616" lon="5.75593">
        <ele>1250.9</ele>
        <time>2021-08-20T14:27:43Z</time>
      </trkpt>
      <trkpt lat="45.94612" lon="5.75592">
        <ele>1251.1</ele>
        <time>2021-08-20T14:27:44Z</time>
      </trkpt>
      <trkpt lat="45.94609" lon="5.75593">
        <ele>1251.3</ele>
        <time>2021-08-20T14:27:45Z</time>
      </trkpt>
      <trkpt lat="45.94606" lon="5.75593">
        <ele>1251.4</ele>
        <time>2021-08-20T14:27:46Z</time>
      </trkpt>
      <trkpt lat="45.94602" lon="5.75592">
        <ele>1251.7</ele>
        <time>2021-08-20T14:27:48Z</time>
      </trkpt>
      <trkpt lat="45.94598" lon="5.75591">
        <ele>1251.9</ele>
        <time>2021-08-20T14:27:49Z</time>
      </trkpt>
      <trkpt lat="45.94594" lon="5.75591">
        <ele>1252</ele>
        <time>2021-08-20T14:27:50Z</time>
      </trkpt>
      <trkpt lat="45.94592" lon="5.7559">
        <ele>1252.2</ele>
        <time>2021-08-20T14:27:52Z</time>
      </trkpt>
      <trkpt lat="45.94591" lon="5.7559">
        <ele>1252.2</ele>
        <time>2021-08-20T14:27:53Z</time>
      </trkpt>
      <trkpt lat="45.94588" lon="5.75589">
        <ele>1252.4</ele>
        <time>2021-08-20T14:27:55Z</time>
      </trkpt>
      <trkpt lat="45.94586" lon="5.75589">
        <ele>1252.5</ele>
        <time>2021-08-20T14:27:56Z</time>
      </trkpt>
      <trkpt lat="45.94584" lon="5.75589">
        <ele>1252.5</ele>
        <time>2021-08-20T14:27:57Z</time>
      </trkpt>
      <trkpt lat="45.94585" lon="5.75591">
        <ele>1252.6</ele>
        <time>2021-08-20T14:27:59Z</time>
      </trkpt>
      <trkpt lat="45.94586" lon="5.75592">
        <ele>1252.6</ele>
        <time>2021-08-20T14:28:00Z</time>
      </trkpt>
      <trkpt lat="45.94587" lon="5.75593">
        <ele>1252.7</ele>
        <time>2021-08-20T14:28:01Z</time>
      </trkpt>
      <trkpt lat="45.94587" lon="5.75593">
        <ele>1252.7</ele>
        <time>2021-08-20T14:28:02Z</time>
      </trkpt>
      <trkpt lat="45.94586" lon="5.75593">
        <ele>1252.8</ele>
        <time>2021-08-20T14:28:04Z</time>
      </trkpt>
      <trkpt lat="45.94584" lon="5.75592">
        <ele>1252.8</ele>
        <time>2021-08-20T14:28:06Z</time>
      </trkpt>
      <trkpt lat="45.94583" lon="5.75592">
        <ele>1252.9</ele>
        <time>2021-08-20T14:28:07Z</time>
      </trkpt>
      <trkpt lat="45.94577" lon="5.75591">
        <ele>1253.2</ele>
        <time>2021-08-20T14:28:11Z</time>
      </trkpt>
      <trkpt lat="45.94574" lon="5.75591">
        <ele>1253.4</ele>
        <time>2021-08-20T14:28:12Z</time>
      </trkpt>
      <trkpt lat="45.9457" lon="5.75588">
        <ele>1253.6</ele>
        <time>2021-08-20T14:28:13Z</time>
      </trkpt>
      <trkpt lat="45.94568" lon="5.75588">
        <ele>1253.7</ele>
        <time>2021-08-20T14:28:14Z</time>
      </trkpt>
      <trkpt lat="45.94564" lon="5.75585">
        <ele>1254</ele>
        <time>2021-08-20T14:28:16Z</time>
      </trkpt>
      <trkpt lat="45.94562" lon="5.75584">
        <ele>1254.1</ele>
        <time>2021-08-20T14:28:17Z</time>
      </trkpt>
      <trkpt lat="45.94557" lon="5.75583">
        <ele>1254.5</ele>
        <time>2021-08-20T14:28:19Z</time>
      </trkpt>
      <trkpt lat="45.94555" lon="5.75583">
        <ele>1254.7</ele>
        <time>2021-08-20T14:28:20Z</time>
      </trkpt>
      <trkpt lat="45.94554" lon="5.75582">
        <ele>1254.8</ele>
        <time>2021-08-20T14:28:21Z</time>
      </trkpt>
      <trkpt lat="45.94551" lon="5.75582">
        <ele>1255</ele>
        <time>2021-08-20T14:28:23Z</time>
      </trkpt>
      <trkpt lat="45.9455" lon="5.75582">
        <ele>1255</ele>
        <time>2021-08-20T14:28:24Z</time>
      </trkpt>
      <trkpt lat="45.94549" lon="5.75583">
        <ele>1255.1</ele>
        <time>2021-08-20T14:28:26Z</time>
      </trkpt>
      <trkpt lat="45.94547" lon="5.75584">
        <ele>1255.3</ele>
        <time>2021-08-20T14:28:27Z</time>
      </trkpt>
      <trkpt lat="45.94544" lon="5.75585">
        <ele>1255.5</ele>
        <time>2021-08-20T14:28:28Z</time>
      </trkpt>
      <trkpt lat="45.94543" lon="5.75585">
        <ele>1255.6</ele>
        <time>2021-08-20T14:28:29Z</time>
      </trkpt>
      <trkpt lat="45.94542" lon="5.75585">
        <ele>1255.7</ele>
        <time>2021-08-20T14:28:30Z</time>
      </trkpt>
      <trkpt lat="45.9454" lon="5.75586">
        <ele>1255.8</ele>
        <time>2021-08-20T14:28:32Z</time>
      </trkpt>
      <trkpt lat="45.94539" lon="5.75586">
        <ele>1255.9</ele>
        <time>2021-08-20T14:28:33Z</time>
      </trkpt>
      <trkpt lat="45.94538" lon="5.75587">
        <ele>1256</ele>
        <time>2021-08-20T14:28:34Z</time>
      </trkpt>
      <trkpt lat="45.94536" lon="5.75588">
        <ele>1256.1</ele>
        <time>2021-08-20T14:28:36Z</time>
      </trkpt>
      <trkpt lat="45.94536" lon="5.75588">
        <ele>1256.2</ele>
        <time>2021-08-20T14:28:37Z</time>
      </trkpt>
      <trkpt lat="45.9452" lon="5.75594">
        <ele>1257.4</ele>
        <time>2021-08-20T14:28:38Z</time>
      </trkpt>
      <trkpt lat="45.94505" lon="5.756">
        <ele>1258.5</ele>
        <time>2021-08-20T14:28:40Z</time>
      </trkpt>
      <trkpt lat="45.9449" lon="5.75605">
        <ele>1259.8</ele>
        <time>2021-08-20T14:31:07Z</time>
      </trkpt>
      <trkpt lat="45.94475" lon="5.75611">
        <ele>1260.7</ele>
        <time>2021-08-20T14:31:08Z</time>
      </trkpt>
      <trkpt lat="45.94469" lon="5.75614">
        <ele>1261</ele>
        <time>2021-08-20T14:31:10Z</time>
      </trkpt>
      <trkpt lat="45.94464" lon="5.75614">
        <ele>1261.1</ele>
        <time>2021-08-20T14:31:11Z</time>
      </trkpt>
      <trkpt lat="45.94456" lon="5.75616">
        <ele>1261.2</ele>
        <time>2021-08-20T14:31:13Z</time>
      </trkpt>
      <trkpt lat="45.94452" lon="5.75616">
        <ele>1261.2</ele>
        <time>2021-08-20T14:31:14Z</time>
      </trkpt>
      <trkpt lat="45.94449" lon="5.75617">
        <ele>1261.3</ele>
        <time>2021-08-20T14:31:15Z</time>
      </trkpt>
      <trkpt lat="45.94444" lon="5.75619">
        <ele>1261.3</ele>
        <time>2021-08-20T14:31:17Z</time>
      </trkpt>
      <trkpt lat="45.94441" lon="5.7562">
        <ele>1261.3</ele>
        <time>2021-08-20T14:31:18Z</time>
      </trkpt>
      <trkpt lat="45.94437" lon="5.7562">
        <ele>1261.4</ele>
        <time>2021-08-20T14:31:19Z</time>
      </trkpt>
      <trkpt lat="45.94435" lon="5.7562">
        <ele>1261.4</ele>
        <time>2021-08-20T14:31:20Z</time>
      </trkpt>
      <trkpt lat="45.94432" lon="5.75619">
        <ele>1261.4</ele>
        <time>2021-08-20T14:31:22Z</time>
      </trkpt>
      <trkpt lat="45.94427" lon="5.7562">
        <ele>1261.4</ele>
        <time>2021-08-20T14:31:24Z</time>
      </trkpt>
      <trkpt lat="45.94422" lon="5.7562">
        <ele>1261.4</ele>
        <time>2021-08-20T14:31:25Z</time>
      </trkpt>
      <trkpt lat="45.9442" lon="5.75621">
        <ele>1261.4</ele>
        <time>2021-08-20T14:31:26Z</time>
      </trkpt>
      <trkpt lat="45.94417" lon="5.75623">
        <ele>1261.4</ele>
        <time>2021-08-20T14:31:28Z</time>
      </trkpt>
      <trkpt lat="45.94414" lon="5.75625">
        <ele>1261.4</ele>
        <time>2021-08-20T14:31:30Z</time>
      </trkpt>
      <trkpt lat="45.94412" lon="5.75625">
        <ele>1261.4</ele>
        <time>2021-08-20T14:31:31Z</time>
      </trkpt>
      <trkpt lat="45.94408" lon="5.75626">
        <ele>1261.4</ele>
        <time>2021-08-20T14:31:32Z</time>
      </trkpt>
      <trkpt lat="45.94404" lon="5.75626">
        <ele>1261.3</ele>
        <time>2021-08-20T14:31:33Z</time>
      </trkpt>
      <trkpt lat="45.94394" lon="5.75623">
        <ele>1261.3</ele>
        <time>2021-08-20T14:31:35Z</time>
      </trkpt>
      <trkpt lat="45.94389" lon="5.75621">
        <ele>1261.3</ele>
        <time>2021-08-20T14:31:36Z</time>
      </trkpt>
      <trkpt lat="45.94384" lon="5.75619">
        <ele>1261.2</ele>
        <time>2021-08-20T14:31:38Z</time>
      </trkpt>
      <trkpt lat="45.94381" lon="5.75618">
        <ele>1261.4</ele>
        <time>2021-08-20T14:31:39Z</time>
      </trkpt>
      <trkpt lat="45.94377" lon="5.75615">
        <ele>1261.4</ele>
        <time>2021-08-20T14:31:41Z</time>
      </trkpt>
      <trkpt lat="45.94373" lon="5.75614">
        <ele>1261.5</ele>
        <time>2021-08-20T14:31:42Z</time>
      </trkpt>
      <trkpt lat="45.94368" lon="5.75612">
        <ele>1261.6</ele>
        <time>2021-08-20T14:31:43Z</time>
      </trkpt>
      <trkpt lat="45.94359" lon="5.75611">
        <ele>1261.7</ele>
        <time>2021-08-20T14:31:45Z</time>
      </trkpt>
      <trkpt lat="45.94354" lon="5.7561">
        <ele>1261.8</ele>
        <time>2021-08-20T14:31:46Z</time>
      </trkpt>
      <trkpt lat="45.94347" lon="5.75612">
        <ele>1261.9</ele>
        <time>2021-08-20T14:31:48Z</time>
      </trkpt>
      <trkpt lat="45.94344" lon="5.75613">
        <ele>1262</ele>
        <time>2021-08-20T14:31:49Z</time>
      </trkpt>
      <trkpt lat="45.94338" lon="5.75615">
        <ele>1262.2</ele>
        <time>2021-08-20T14:31:51Z</time>
      </trkpt>
      <trkpt lat="45.94334" lon="5.75618">
        <ele>1262.3</ele>
        <time>2021-08-20T14:31:52Z</time>
      </trkpt>
      <trkpt lat="45.94329" lon="5.7562">
        <ele>1262.4</ele>
        <time>2021-08-20T14:31:53Z</time>
      </trkpt>
      <trkpt lat="45.94325" lon="5.75622">
        <ele>1262.4</ele>
        <time>2021-08-20T14:31:55Z</time>
      </trkpt>
      <trkpt lat="45.94321" lon="5.75623">
        <ele>1262.5</ele>
        <time>2021-08-20T14:31:56Z</time>
      </trkpt>
      <trkpt lat="45.94317" lon="5.75624">
        <ele>1262.5</ele>
        <time>2021-08-20T14:31:57Z</time>
      </trkpt>
      <trkpt lat="45.94311" lon="5.75624">
        <ele>1262.4</ele>
        <time>2021-08-20T14:31:59Z</time>
      </trkpt>
      <trkpt lat="45.94306" lon="5.75623">
        <ele>1262.3</ele>
        <time>2021-08-20T14:32:00Z</time>
      </trkpt>
      <trkpt lat="45.94302" lon="5.75623">
        <ele>1262.2</ele>
        <time>2021-08-20T14:32:02Z</time>
      </trkpt>
      <trkpt lat="45.94299" lon="5.75623">
        <ele>1262.1</ele>
        <time>2021-08-20T14:32:03Z</time>
      </trkpt>
      <trkpt lat="45.94294" lon="5.75626">
        <ele>1261.8</ele>
        <time>2021-08-20T14:32:05Z</time>
      </trkpt>
      <trkpt lat="45.94289" lon="5.75628">
        <ele>1261.5</ele>
        <time>2021-08-20T14:32:06Z</time>
      </trkpt>
      <trkpt lat="45.94283" lon="5.75631">
        <ele>1261.2</ele>
        <time>2021-08-20T14:32:08Z</time>
      </trkpt>
      <trkpt lat="45.94277" lon="5.75633">
        <ele>1260.9</ele>
        <time>2021-08-20T14:32:09Z</time>
      </trkpt>
      <trkpt lat="45.94264" lon="5.75637">
        <ele>1260.4</ele>
        <time>2021-08-20T14:32:11Z</time>
      </trkpt>
      <trkpt lat="45.94258" lon="5.75639">
        <ele>1260.2</ele>
        <time>2021-08-20T14:32:12Z</time>
      </trkpt>
      <trkpt lat="45.94246" lon="5.75645">
        <ele>1260</ele>
        <time>2021-08-20T14:32:14Z</time>
      </trkpt>
      <trkpt lat="45.94235" lon="5.75649">
        <ele>1259.8</ele>
        <time>2021-08-20T14:32:16Z</time>
      </trkpt>
      <trkpt lat="45.9422" lon="5.75657">
        <ele>1259.1</ele>
        <time>2021-08-20T14:32:18Z</time>
      </trkpt>
      <trkpt lat="45.94213" lon="5.7566">
        <ele>1258.6</ele>
        <time>2021-08-20T14:32:19Z</time>
      </trkpt>
      <trkpt lat="45.94207" lon="5.75663">
        <ele>1258.1</ele>
        <time>2021-08-20T14:32:20Z</time>
      </trkpt>
      <trkpt lat="45.94201" lon="5.75665">
        <ele>1257.5</ele>
        <time>2021-08-20T14:32:21Z</time>
      </trkpt>
      <trkpt lat="45.94191" lon="5.7567">
        <ele>1256.5</ele>
        <time>2021-08-20T14:32:23Z</time>
      </trkpt>
      <trkpt lat="45.94179" lon="5.75674">
        <ele>1255.6</ele>
        <time>2021-08-20T14:32:25Z</time>
      </trkpt>
      <trkpt lat="45.94173" lon="5.75676">
        <ele>1255.1</ele>
        <time>2021-08-20T14:32:26Z</time>
      </trkpt>
      <trkpt lat="45.94162" lon="5.75679">
        <ele>1254.4</ele>
        <time>2021-08-20T14:32:28Z</time>
      </trkpt>
      <trkpt lat="45.94156" lon="5.75681">
        <ele>1254</ele>
        <time>2021-08-20T14:32:29Z</time>
      </trkpt>
      <trkpt lat="45.94151" lon="5.75682">
        <ele>1253.7</ele>
        <time>2021-08-20T14:32:30Z</time>
      </trkpt>
      <trkpt lat="45.94145" lon="5.75684">
        <ele>1253.2</ele>
        <time>2021-08-20T14:32:31Z</time>
      </trkpt>
      <trkpt lat="45.94136" lon="5.75687">
        <ele>1252.5</ele>
        <time>2021-08-20T14:32:33Z</time>
      </trkpt>
      <trkpt lat="45.9413" lon="5.75688">
        <ele>1252</ele>
        <time>2021-08-20T14:32:35Z</time>
      </trkpt>
      <trkpt lat="45.94127" lon="5.75689">
        <ele>1251.8</ele>
        <time>2021-08-20T14:32:36Z</time>
      </trkpt>
      <trkpt lat="45.94123" lon="5.75692">
        <ele>1251.5</ele>
        <time>2021-08-20T14:32:38Z</time>
      </trkpt>
      <trkpt lat="45.94123" lon="5.75692">
        <ele>1251.5</ele>
        <time>2021-08-20T14:32:40Z</time>
      </trkpt>
      <trkpt lat="45.94123" lon="5.75691">
        <ele>1251.4</ele>
        <time>2021-08-20T14:32:41Z</time>
      </trkpt>
      <trkpt lat="45.94123" lon="5.75691">
        <ele>1251.4</ele>
        <time>2021-08-20T14:32:42Z</time>
      </trkpt>
      <trkpt lat="45.94123" lon="5.7569">
        <ele>1251.4</ele>
        <time>2021-08-20T14:32:43Z</time>
      </trkpt>
      <trkpt lat="45.94124" lon="5.75689">
        <ele>1251.3</ele>
        <time>2021-08-20T14:32:44Z</time>
      </trkpt>
      <trkpt lat="45.94124" lon="5.75688">
        <ele>1251.3</ele>
        <time>2021-08-20T14:32:45Z</time>
      </trkpt>
      <trkpt lat="45.94124" lon="5.75688">
        <ele>1251.3</ele>
        <time>2021-08-20T14:32:47Z</time>
      </trkpt>
      <trkpt lat="45.94124" lon="5.75687">
        <ele>1251.2</ele>
        <time>2021-08-20T14:32:48Z</time>
      </trkpt>
      <trkpt lat="45.94124" lon="5.75686">
        <ele>1251.2</ele>
        <time>2021-08-20T14:34:07Z</time>
      </trkpt>
      <trkpt lat="45.94124" lon="5.75685">
        <ele>1251.1</ele>
        <time>2021-08-20T14:34:08Z</time>
      </trkpt>
      <trkpt lat="45.94118" lon="5.75688">
        <ele>1250.7</ele>
        <time>2021-08-20T14:34:10Z</time>
      </trkpt>
      <trkpt lat="45.94107" lon="5.75694">
        <ele>1249.9</ele>
        <time>2021-08-20T14:34:11Z</time>
      </trkpt>
      <trkpt lat="45.94101" lon="5.75697">
        <ele>1249.5</ele>
        <time>2021-08-20T14:34:12Z</time>
      </trkpt>
      <trkpt lat="45.94088" lon="5.75701">
        <ele>1248.9</ele>
        <time>2021-08-20T14:34:14Z</time>
      </trkpt>
      <trkpt lat="45.94082" lon="5.75701">
        <ele>1248.6</ele>
        <time>2021-08-20T14:34:15Z</time>
      </trkpt>
      <trkpt lat="45.94071" lon="5.75703">
        <ele>1248.3</ele>
        <time>2021-08-20T14:34:17Z</time>
      </trkpt>
      <trkpt lat="45.94066" lon="5.75705">
        <ele>1248.2</ele>
        <time>2021-08-20T14:34:18Z</time>
      </trkpt>
      <trkpt lat="45.94058" lon="5.75709">
        <ele>1248</ele>
        <time>2021-08-20T14:34:20Z</time>
      </trkpt>
      <trkpt lat="45.94048" lon="5.75712">
        <ele>1247.7</ele>
        <time>2021-08-20T14:34:22Z</time>
      </trkpt>
      <trkpt lat="45.94038" lon="5.75711">
        <ele>1247.4</ele>
        <time>2021-08-20T14:34:24Z</time>
      </trkpt>
      <trkpt lat="45.94027" lon="5.75709">
        <ele>1247</ele>
        <time>2021-08-20T14:34:26Z</time>
      </trkpt>
      <trkpt lat="45.94019" lon="5.7571">
        <ele>1246.6</ele>
        <time>2021-08-20T14:34:28Z</time>
      </trkpt>
      <trkpt lat="45.94014" lon="5.75711">
        <ele>1246.5</ele>
        <time>2021-08-20T14:34:29Z</time>
      </trkpt>
      <trkpt lat="45.94002" lon="5.75711">
        <ele>1246.1</ele>
        <time>2021-08-20T14:34:31Z</time>
      </trkpt>
      <trkpt lat="45.93996" lon="5.75711">
        <ele>1245.9</ele>
        <time>2021-08-20T14:34:32Z</time>
      </trkpt>
      <trkpt lat="45.93985" lon="5.75712">
        <ele>1245.8</ele>
        <time>2021-08-20T14:34:34Z</time>
      </trkpt>
      <trkpt lat="45.9398" lon="5.75714">
        <ele>1245.8</ele>
        <time>2021-08-20T14:34:35Z</time>
      </trkpt>
      <trkpt lat="45.93975" lon="5.75715">
        <ele>1245.7</ele>
        <time>2021-08-20T14:34:36Z</time>
      </trkpt>
      <trkpt lat="45.93966" lon="5.75719">
        <ele>1245.7</ele>
        <time>2021-08-20T14:34:38Z</time>
      </trkpt>
      <trkpt lat="45.93957" lon="5.75723">
        <ele>1245.7</ele>
        <time>2021-08-20T14:34:40Z</time>
      </trkpt>
      <trkpt lat="45.93952" lon="5.75726">
        <ele>1245.8</ele>
        <time>2021-08-20T14:34:41Z</time>
      </trkpt>
      <trkpt lat="45.93946" lon="5.75727">
        <ele>1245.8</ele>
        <time>2021-08-20T14:34:42Z</time>
      </trkpt>
      <trkpt lat="45.93938" lon="5.7573">
        <ele>1245.8</ele>
        <time>2021-08-20T14:34:44Z</time>
      </trkpt>
      <trkpt lat="45.93933" lon="5.75731">
        <ele>1245.8</ele>
        <time>2021-08-20T14:34:45Z</time>
      </trkpt>
      <trkpt lat="45.93924" lon="5.75734">
        <ele>1245.7</ele>
        <time>2021-08-20T14:34:47Z</time>
      </trkpt>
      <trkpt lat="45.93919" lon="5.7574">
        <ele>1245.7</ele>
        <time>2021-08-20T14:34:48Z</time>
      </trkpt>
      <trkpt lat="45.93912" lon="5.75741">
        <ele>1245.6</ele>
        <time>2021-08-20T14:34:50Z</time>
      </trkpt>
      <trkpt lat="45.93911" lon="5.75741">
        <ele>1245.6</ele>
        <time>2021-08-20T14:34:51Z</time>
      </trkpt>
      <trkpt lat="45.93906" lon="5.75742">
        <ele>1245.5</ele>
        <time>2021-08-20T14:34:53Z</time>
      </trkpt>
      <trkpt lat="45.939" lon="5.75742">
        <ele>1245.4</ele>
        <time>2021-08-20T14:34:54Z</time>
      </trkpt>
      <trkpt lat="45.93896" lon="5.75743">
        <ele>1245.3</ele>
        <time>2021-08-20T14:34:56Z</time>
      </trkpt>
      <trkpt lat="45.93893" lon="5.75745">
        <ele>1245.3</ele>
        <time>2021-08-20T14:34:57Z</time>
      </trkpt>
      <trkpt lat="45.93888" lon="5.75745">
        <ele>1245.2</ele>
        <time>2021-08-20T14:34:58Z</time>
      </trkpt>
      <trkpt lat="45.93881" lon="5.75746">
        <ele>1245.1</ele>
        <time>2021-08-20T14:35:00Z</time>
      </trkpt>
      <trkpt lat="45.93877" lon="5.75747">
        <ele>1245.1</ele>
        <time>2021-08-20T14:35:01Z</time>
      </trkpt>
      <trkpt lat="45.93872" lon="5.75748">
        <ele>1245.1</ele>
        <time>2021-08-20T14:35:02Z</time>
      </trkpt>
      <trkpt lat="45.93866" lon="5.75749">
        <ele>1245.1</ele>
        <time>2021-08-20T14:35:04Z</time>
      </trkpt>
      <trkpt lat="45.93862" lon="5.7575">
        <ele>1245.1</ele>
        <time>2021-08-20T14:35:05Z</time>
      </trkpt>
      <trkpt lat="45.93859" lon="5.75751">
        <ele>1245.1</ele>
        <time>2021-08-20T14:35:06Z</time>
      </trkpt>
      <trkpt lat="45.93853" lon="5.75752">
        <ele>1245.1</ele>
        <time>2021-08-20T14:35:08Z</time>
      </trkpt>
      <trkpt lat="45.93849" lon="5.75753">
        <ele>1245.2</ele>
        <time>2021-08-20T14:35:09Z</time>
      </trkpt>
      <trkpt lat="45.93845" lon="5.75752">
        <ele>1245.2</ele>
        <time>2021-08-20T14:35:10Z</time>
      </trkpt>
      <trkpt lat="45.93842" lon="5.75752">
        <ele>1245.2</ele>
        <time>2021-08-20T14:35:11Z</time>
      </trkpt>
      <trkpt lat="45.93839" lon="5.75751">
        <ele>1245.3</ele>
        <time>2021-08-20T14:35:12Z</time>
      </trkpt>
      <trkpt lat="45.93832" lon="5.75751">
        <ele>1245.4</ele>
        <time>2021-08-20T14:35:14Z</time>
      </trkpt>
      <trkpt lat="45.9383" lon="5.75752">
        <ele>1245.5</ele>
        <time>2021-08-20T14:35:15Z</time>
      </trkpt>
      <trkpt lat="45.93827" lon="5.75755">
        <ele>1245.5</ele>
        <time>2021-08-20T14:35:17Z</time>
      </trkpt>
      <trkpt lat="45.93823" lon="5.75754">
        <ele>1245.6</ele>
        <time>2021-08-20T14:35:18Z</time>
      </trkpt>
      <trkpt lat="45.93822" lon="5.75753">
        <ele>1245.6</ele>
        <time>2021-08-20T14:35:19Z</time>
      </trkpt>
      <trkpt lat="45.93818" lon="5.75753">
        <ele>1245.6</ele>
        <time>2021-08-20T14:35:21Z</time>
      </trkpt>
      <trkpt lat="45.93816" lon="5.75754">
        <ele>1245.6</ele>
        <time>2021-08-20T14:35:22Z</time>
      </trkpt>
      <trkpt lat="45.93813" lon="5.75754">
        <ele>1245.6</ele>
        <time>2021-08-20T14:35:23Z</time>
      </trkpt>
      <trkpt lat="45.93812" lon="5.75754">
        <ele>1245.6</ele>
        <time>2021-08-20T14:35:24Z</time>
      </trkpt>
      <trkpt lat="45.93807" lon="5.75753">
        <ele>1245.6</ele>
        <time>2021-08-20T14:35:26Z</time>
      </trkpt>
      <trkpt lat="45.93803" lon="5.75753">
        <ele>1245.6</ele>
        <time>2021-08-20T14:35:27Z</time>
      </trkpt>
      <trkpt lat="45.93796" lon="5.75753">
        <ele>1245.5</ele>
        <time>2021-08-20T14:35:29Z</time>
      </trkpt>
      <trkpt lat="45.93794" lon="5.75754">
        <ele>1245.5</ele>
        <time>2021-08-20T14:35:30Z</time>
      </trkpt>
      <trkpt lat="45.93788" lon="5.75755">
        <ele>1245.4</ele>
        <time>2021-08-20T14:35:32Z</time>
      </trkpt>
      <trkpt lat="45.93785" lon="5.75755">
        <ele>1245.4</ele>
        <time>2021-08-20T14:35:33Z</time>
      </trkpt>
      <trkpt lat="45.9378" lon="5.75753">
        <ele>1245.3</ele>
        <time>2021-08-20T14:35:35Z</time>
      </trkpt>
      <trkpt lat="45.93777" lon="5.75755">
        <ele>1245.2</ele>
        <time>2021-08-20T14:35:36Z</time>
      </trkpt>
      <trkpt lat="45.93774" lon="5.75756">
        <ele>1245.2</ele>
        <time>2021-08-20T14:35:37Z</time>
      </trkpt>
      <trkpt lat="45.93771" lon="5.75757">
        <ele>1245.1</ele>
        <time>2021-08-20T14:35:38Z</time>
      </trkpt>
      <trkpt lat="45.93767" lon="5.75757">
        <ele>1245</ele>
        <time>2021-08-20T14:35:40Z</time>
      </trkpt>
      <trkpt lat="45.93763" lon="5.75757">
        <ele>1244.9</ele>
        <time>2021-08-20T14:35:41Z</time>
      </trkpt>
      <trkpt lat="45.9376" lon="5.75759">
        <ele>1244.8</ele>
        <time>2021-08-20T14:35:43Z</time>
      </trkpt>
      <trkpt lat="45.93757" lon="5.75759">
        <ele>1244.7</ele>
        <time>2021-08-20T14:35:44Z</time>
      </trkpt>
      <trkpt lat="45.93753" lon="5.75758">
        <ele>1244.6</ele>
        <time>2021-08-20T14:35:45Z</time>
      </trkpt>
      <trkpt lat="45.93749" lon="5.75756">
        <ele>1244.5</ele>
        <time>2021-08-20T14:35:47Z</time>
      </trkpt>
      <trkpt lat="45.93748" lon="5.75755">
        <ele>1244.5</ele>
        <time>2021-08-20T14:35:48Z</time>
      </trkpt>
      <trkpt lat="45.93747" lon="5.75756">
        <ele>1244.4</ele>
        <time>2021-08-20T14:35:49Z</time>
      </trkpt>
      <trkpt lat="45.93745" lon="5.75756">
        <ele>1244.4</ele>
        <time>2021-08-20T14:35:50Z</time>
      </trkpt>
      <trkpt lat="45.93743" lon="5.75755">
        <ele>1244.3</ele>
        <time>2021-08-20T14:35:52Z</time>
      </trkpt>
      <trkpt lat="45.93742" lon="5.75755">
        <ele>1244.3</ele>
        <time>2021-08-20T14:35:53Z</time>
      </trkpt>
      <trkpt lat="45.9374" lon="5.75754">
        <ele>1244.2</ele>
        <time>2021-08-20T14:35:54Z</time>
      </trkpt>
      <trkpt lat="45.93739" lon="5.75754">
        <ele>1244.2</ele>
        <time>2021-08-20T14:35:56Z</time>
      </trkpt>
      <trkpt lat="45.93738" lon="5.75753">
        <ele>1244.1</ele>
        <time>2021-08-20T14:35:58Z</time>
      </trkpt>
      <trkpt lat="45.93736" lon="5.75752">
        <ele>1244.1</ele>
        <time>2021-08-20T14:35:59Z</time>
      </trkpt>
      <trkpt lat="45.93735" lon="5.75752">
        <ele>1244</ele>
        <time>2021-08-20T14:36:00Z</time>
      </trkpt>
      <trkpt lat="45.93733" lon="5.75751">
        <ele>1244</ele>
        <time>2021-08-20T14:36:57Z</time>
      </trkpt>
      <trkpt lat="45.93732" lon="5.75751">
        <ele>1243.9</ele>
        <time>2021-08-20T14:36:58Z</time>
      </trkpt>
      <trkpt lat="45.93726" lon="5.75753">
        <ele>1243.7</ele>
        <time>2021-08-20T14:36:59Z</time>
      </trkpt>
      <trkpt lat="45.93716" lon="5.75756">
        <ele>1243.2</ele>
        <time>2021-08-20T14:37:01Z</time>
      </trkpt>
      <trkpt lat="45.93707" lon="5.7576">
        <ele>1242.7</ele>
        <time>2021-08-20T14:37:02Z</time>
      </trkpt>
      <trkpt lat="45.93695" lon="5.75763">
        <ele>1242</ele>
        <time>2021-08-20T14:37:04Z</time>
      </trkpt>
      <trkpt lat="45.93689" lon="5.75764">
        <ele>1241.6</ele>
        <time>2021-08-20T14:37:05Z</time>
      </trkpt>
      <trkpt lat="45.93683" lon="5.75765">
        <ele>1241.2</ele>
        <time>2021-08-20T14:37:06Z</time>
      </trkpt>
      <trkpt lat="45.93672" lon="5.75764">
        <ele>1240.6</ele>
        <time>2021-08-20T14:37:08Z</time>
      </trkpt>
      <trkpt lat="45.93665" lon="5.75763">
        <ele>1240</ele>
        <time>2021-08-20T14:37:09Z</time>
      </trkpt>
      <trkpt lat="45.93653" lon="5.75759">
        <ele>1239.1</ele>
        <time>2021-08-20T14:37:11Z</time>
      </trkpt>
      <trkpt lat="45.93646" lon="5.75756">
        <ele>1238.7</ele>
        <time>2021-08-20T14:37:12Z</time>
      </trkpt>
      <trkpt lat="45.93634" lon="5.7575">
        <ele>1237.9</ele>
        <time>2021-08-20T14:37:14Z</time>
      </trkpt>
      <trkpt lat="45.93623" lon="5.75742">
        <ele>1237</ele>
        <time>2021-08-20T14:37:16Z</time>
      </trkpt>
      <trkpt lat="45.93618" lon="5.7574">
        <ele>1236.6</ele>
        <time>2021-08-20T14:37:17Z</time>
      </trkpt>
      <trkpt lat="45.93612" lon="5.75737">
        <ele>1236.2</ele>
        <time>2021-08-20T14:37:18Z</time>
      </trkpt>
      <trkpt lat="45.936" lon="5.7573">
        <ele>1235.2</ele>
        <time>2021-08-20T14:37:20Z</time>
      </trkpt>
      <trkpt lat="45.93594" lon="5.75727">
        <ele>1234.6</ele>
        <time>2021-08-20T14:37:21Z</time>
      </trkpt>
      <trkpt lat="45.9358" lon="5.75721">
        <ele>1233</ele>
        <time>2021-08-20T14:37:23Z</time>
      </trkpt>
      <trkpt lat="45.93573" lon="5.75718">
        <ele>1232.2</ele>
        <time>2021-08-20T14:37:24Z</time>
      </trkpt>
      <trkpt lat="45.93558" lon="5.75711">
        <ele>1230.6</ele>
        <time>2021-08-20T14:37:26Z</time>
      </trkpt>
      <trkpt lat="45.93542" lon="5.75707">
        <ele>1228.8</ele>
        <time>2021-08-20T14:37:28Z</time>
      </trkpt>
      <trkpt lat="45.93534" lon="5.75706">
        <ele>1227.9</ele>
        <time>2021-08-20T14:37:29Z</time>
      </trkpt>
      <trkpt lat="45.93526" lon="5.75706">
        <ele>1226.9</ele>
        <time>2021-08-20T14:37:30Z</time>
      </trkpt>
      <trkpt lat="45.9351" lon="5.75708">
        <ele>1225.1</ele>
        <time>2021-08-20T14:37:32Z</time>
      </trkpt>
      <trkpt lat="45.93496" lon="5.75713">
        <ele>1223.3</ele>
        <time>2021-08-20T14:37:34Z</time>
      </trkpt>
      <trkpt lat="45.93489" lon="5.75715">
        <ele>1222.5</ele>
        <time>2021-08-20T14:37:35Z</time>
      </trkpt>
      <trkpt lat="45.93474" lon="5.7572">
        <ele>1220.7</ele>
        <time>2021-08-20T14:37:37Z</time>
      </trkpt>
      <trkpt lat="45.93456" lon="5.75725">
        <ele>1218.7</ele>
        <time>2021-08-20T14:37:39Z</time>
      </trkpt>
      <trkpt lat="45.93438" lon="5.75731">
        <ele>1216.5</ele>
        <time>2021-08-20T14:37:41Z</time>
      </trkpt>
      <trkpt lat="45.93422" lon="5.75737">
        <ele>1214.5</ele>
        <time>2021-08-20T14:37:43Z</time>
      </trkpt>
      <trkpt lat="45.93404" lon="5.75744">
        <ele>1212.5</ele>
        <time>2021-08-20T14:37:45Z</time>
      </trkpt>
      <trkpt lat="45.93395" lon="5.75746">
        <ele>1211.5</ele>
        <time>2021-08-20T14:37:46Z</time>
      </trkpt>
      <trkpt lat="45.93375" lon="5.75747">
        <ele>1209.4</ele>
        <time>2021-08-20T14:37:48Z</time>
      </trkpt>
      <trkpt lat="45.93357" lon="5.75744">
        <ele>1207.4</ele>
        <time>2021-08-20T14:37:50Z</time>
      </trkpt>
      <trkpt lat="45.93343" lon="5.75743">
        <ele>1205.4</ele>
        <time>2021-08-20T14:37:52Z</time>
      </trkpt>
      <trkpt lat="45.93337" lon="5.75743">
        <ele>1204.5</ele>
        <time>2021-08-20T14:37:53Z</time>
      </trkpt>
      <trkpt lat="45.93332" lon="5.75742">
        <ele>1203.7</ele>
        <time>2021-08-20T14:37:54Z</time>
      </trkpt>
      <trkpt lat="45.93328" lon="5.75742">
        <ele>1203.2</ele>
        <time>2021-08-20T14:37:55Z</time>
      </trkpt>
      <trkpt lat="45.93322" lon="5.75739">
        <ele>1202.5</ele>
        <time>2021-08-20T14:37:57Z</time>
      </trkpt>
      <trkpt lat="45.93318" lon="5.75738">
        <ele>1202.1</ele>
        <time>2021-08-20T14:37:59Z</time>
      </trkpt>
      <trkpt lat="45.93317" lon="5.75738">
        <ele>1201.9</ele>
        <time>2021-08-20T14:38:00Z</time>
      </trkpt>
      <trkpt lat="45.93315" lon="5.75739">
        <ele>1201.7</ele>
        <time>2021-08-20T14:38:01Z</time>
      </trkpt>
      <trkpt lat="45.93315" lon="5.7574">
        <ele>1201.6</ele>
        <time>2021-08-20T14:38:02Z</time>
      </trkpt>
      <trkpt lat="45.93315" lon="5.75741">
        <ele>1201.5</ele>
        <time>2021-08-20T14:38:04Z</time>
      </trkpt>
      <trkpt lat="45.93315" lon="5.75742">
        <ele>1201.5</ele>
        <time>2021-08-20T14:38:05Z</time>
      </trkpt>
      <trkpt lat="45.93314" lon="5.75743">
        <ele>1201.4</ele>
        <time>2021-08-20T14:38:06Z</time>
      </trkpt>
      <trkpt lat="45.93312" lon="5.75746">
        <ele>1201.1</ele>
        <time>2021-08-20T14:38:08Z</time>
      </trkpt>
      <trkpt lat="45.9331" lon="5.75748">
        <ele>1200.8</ele>
        <time>2021-08-20T14:38:10Z</time>
      </trkpt>
      <trkpt lat="45.9331" lon="5.75749">
        <ele>1200.7</ele>
        <time>2021-08-20T14:38:11Z</time>
      </trkpt>
      <trkpt lat="45.93307" lon="5.75769">
        <ele>1199.2</ele>
        <time>2021-08-20T14:38:55Z</time>
      </trkpt>
      <trkpt lat="45.93306" lon="5.75772">
        <ele>1198.8</ele>
        <time>2021-08-20T14:38:56Z</time>
      </trkpt>
      <trkpt lat="45.93301" lon="5.75794">
        <ele>1197.1</ele>
        <time>2021-08-20T14:38:58Z</time>
      </trkpt>
      <trkpt lat="45.93301" lon="5.75806">
        <ele>1196.2</ele>
        <time>2021-08-20T14:38:59Z</time>
      </trkpt>
      <trkpt lat="45.933" lon="5.75827">
        <ele>1194.7</ele>
        <time>2021-08-20T14:39:01Z</time>
      </trkpt>
      <trkpt lat="45.93301" lon="5.75837">
        <ele>1194</ele>
        <time>2021-08-20T14:39:02Z</time>
      </trkpt>
      <trkpt lat="45.93307" lon="5.75855">
        <ele>1192.9</ele>
        <time>2021-08-20T14:39:04Z</time>
      </trkpt>
      <trkpt lat="45.93313" lon="5.75874">
        <ele>1191.9</ele>
        <time>2021-08-20T14:39:06Z</time>
      </trkpt>
      <trkpt lat="45.93313" lon="5.75893">
        <ele>1191</ele>
        <time>2021-08-20T14:39:08Z</time>
      </trkpt>
      <trkpt lat="45.93312" lon="5.75903">
        <ele>1190.4</ele>
        <time>2021-08-20T14:39:09Z</time>
      </trkpt>
      <trkpt lat="45.93305" lon="5.75923">
        <ele>1189.1</ele>
        <time>2021-08-20T14:39:11Z</time>
      </trkpt>
      <trkpt lat="45.93295" lon="5.75944">
        <ele>1187.7</ele>
        <time>2021-08-20T14:39:13Z</time>
      </trkpt>
      <trkpt lat="45.93289" lon="5.75953">
        <ele>1187.1</ele>
        <time>2021-08-20T14:39:14Z</time>
      </trkpt>
      <trkpt lat="45.93283" lon="5.75963">
        <ele>1186.5</ele>
        <time>2021-08-20T14:39:15Z</time>
      </trkpt>
      <trkpt lat="45.93272" lon="5.75981">
        <ele>1185.4</ele>
        <time>2021-08-20T14:39:17Z</time>
      </trkpt>
      <trkpt lat="45.93267" lon="5.7599">
        <ele>1185</ele>
        <time>2021-08-20T14:39:18Z</time>
      </trkpt>
      <trkpt lat="45.93261" lon="5.7601">
        <ele>1184.4</ele>
        <time>2021-08-20T14:39:20Z</time>
      </trkpt>
      <trkpt lat="45.93259" lon="5.76022">
        <ele>1184.8</ele>
        <time>2021-08-20T14:39:21Z</time>
      </trkpt>
      <trkpt lat="45.93256" lon="5.76044">
        <ele>1185.3</ele>
        <time>2021-08-20T14:39:23Z</time>
      </trkpt>
      <trkpt lat="45.93252" lon="5.76063">
        <ele>1185.9</ele>
        <time>2021-08-20T14:39:25Z</time>
      </trkpt>
      <trkpt lat="45.9325" lon="5.76072">
        <ele>1186.2</ele>
        <time>2021-08-20T14:39:26Z</time>
      </trkpt>
      <trkpt lat="45.93247" lon="5.76092">
        <ele>1187</ele>
        <time>2021-08-20T14:39:28Z</time>
      </trkpt>
      <trkpt lat="45.93248" lon="5.761">
        <ele>1187.3</ele>
        <time>2021-08-20T14:39:29Z</time>
      </trkpt>
      <trkpt lat="45.9325" lon="5.76101">
        <ele>1187.4</ele>
        <time>2021-08-20T14:39:30Z</time>
      </trkpt>
      <trkpt lat="45.93252" lon="5.76111">
        <ele>1187.8</ele>
        <time>2021-08-20T14:39:32Z</time>
      </trkpt>
      <trkpt lat="45.93251" lon="5.76119">
        <ele>1188</ele>
        <time>2021-08-20T14:39:33Z</time>
      </trkpt>
      <trkpt lat="45.93248" lon="5.76137">
        <ele>1188.4</ele>
        <time>2021-08-20T14:39:35Z</time>
      </trkpt>
      <trkpt lat="45.93246" lon="5.76143">
        <ele>1188.5</ele>
        <time>2021-08-20T14:39:36Z</time>
      </trkpt>
      <trkpt lat="45.93246" lon="5.76146">
        <ele>1188.5</ele>
        <time>2021-08-20T14:39:37Z</time>
      </trkpt>
      <trkpt lat="45.93245" lon="5.76147">
        <ele>1188.4</ele>
        <time>2021-08-20T14:39:38Z</time>
      </trkpt>
      <trkpt lat="45.93252" lon="5.76154">
        <ele>1188.3</ele>
        <time>2021-08-20T14:39:39Z</time>
      </trkpt>
      <trkpt lat="45.93262" lon="5.76154">
        <ele>1188</ele>
        <time>2021-08-20T14:40:07Z</time>
      </trkpt>
      <trkpt lat="45.93273" lon="5.76153">
        <ele>1187.6</ele>
        <time>2021-08-20T14:40:08Z</time>
      </trkpt>
      <trkpt lat="45.93283" lon="5.76152">
        <ele>1187.2</ele>
        <time>2021-08-20T14:40:10Z</time>
      </trkpt>
      <trkpt lat="45.93293" lon="5.76151">
        <ele>1186.8</ele>
        <time>2021-08-20T14:40:12Z</time>
      </trkpt>
      <trkpt lat="45.93302" lon="5.76151">
        <ele>1186.3</ele>
        <time>2021-08-20T14:40:13Z</time>
      </trkpt>
      <trkpt lat="45.93313" lon="5.76152">
        <ele>1185.6</ele>
        <time>2021-08-20T14:40:15Z</time>
      </trkpt>
      <trkpt lat="45.9332" lon="5.7615">
        <ele>1185.1</ele>
        <time>2021-08-20T14:40:16Z</time>
      </trkpt>
      <trkpt lat="45.93331" lon="5.76147">
        <ele>1184.3</ele>
        <time>2021-08-20T14:40:17Z</time>
      </trkpt>
      <trkpt lat="45.93345" lon="5.76147">
        <ele>1183.3</ele>
        <time>2021-08-20T14:40:19Z</time>
      </trkpt>
      <trkpt lat="45.93359" lon="5.76147">
        <ele>1182.4</ele>
        <time>2021-08-20T14:40:21Z</time>
      </trkpt>
      <trkpt lat="45.93371" lon="5.76147">
        <ele>1181.5</ele>
        <time>2021-08-20T14:40:23Z</time>
      </trkpt>
      <trkpt lat="45.93379" lon="5.76147">
        <ele>1181.1</ele>
        <time>2021-08-20T14:40:24Z</time>
      </trkpt>
      <trkpt lat="45.93386" lon="5.76148">
        <ele>1180.7</ele>
        <time>2021-08-20T14:40:25Z</time>
      </trkpt>
      <trkpt lat="45.93393" lon="5.76149">
        <ele>1180.3</ele>
        <time>2021-08-20T14:40:26Z</time>
      </trkpt>
      <trkpt lat="45.93408" lon="5.76148">
        <ele>1179.7</ele>
        <time>2021-08-20T14:40:28Z</time>
      </trkpt>
      <trkpt lat="45.93415" lon="5.76147">
        <ele>1179.5</ele>
        <time>2021-08-20T14:40:29Z</time>
      </trkpt>
      <trkpt lat="45.93429" lon="5.76146">
        <ele>1179.2</ele>
        <time>2021-08-20T14:40:31Z</time>
      </trkpt>
      <trkpt lat="45.93444" lon="5.76148">
        <ele>1179</ele>
        <time>2021-08-20T14:40:33Z</time>
      </trkpt>
      <trkpt lat="45.93457" lon="5.76152">
        <ele>1178.7</ele>
        <time>2021-08-20T14:40:35Z</time>
      </trkpt>
      <trkpt lat="45.93463" lon="5.76156">
        <ele>1178.5</ele>
        <time>2021-08-20T14:40:37Z</time>
      </trkpt>
      <trkpt lat="45.93466" lon="5.76159">
        <ele>1178.4</ele>
        <time>2021-08-20T14:40:38Z</time>
      </trkpt>
      <trkpt lat="45.93472" lon="5.76159">
        <ele>1178.2</ele>
        <time>2021-08-20T14:40:40Z</time>
      </trkpt>
      <trkpt lat="45.93477" lon="5.76156">
        <ele>1178</ele>
        <time>2021-08-20T14:40:42Z</time>
      </trkpt>
      <trkpt lat="45.9348" lon="5.76154">
        <ele>1177.9</ele>
        <time>2021-08-20T14:40:43Z</time>
      </trkpt>
      <trkpt lat="45.93482" lon="5.76152">
        <ele>1177.7</ele>
        <time>2021-08-20T14:40:44Z</time>
      </trkpt>
      <trkpt lat="45.93487" lon="5.76148">
        <ele>1177.5</ele>
        <time>2021-08-20T14:40:46Z</time>
      </trkpt>
      <trkpt lat="45.93487" lon="5.76148">
        <ele>1177.5</ele>
        <time>2021-08-20T14:40:46Z</time>
      </trkpt>
      <trkpt lat="45.93491" lon="5.76146">
        <ele>1177.3</ele>
        <time>2021-08-20T14:40:48Z</time>
      </trkpt>
      <trkpt lat="45.93493" lon="5.76144">
        <ele>1177.2</ele>
        <time>2021-08-20T14:40:50Z</time>
      </trkpt>
      <trkpt lat="45.93493" lon="5.76143">
        <ele>1177.2</ele>
        <time>2021-08-20T14:40:51Z</time>
      </trkpt>
      <trkpt lat="45.93494" lon="5.76143">
        <ele>1177.1</ele>
        <time>2021-08-20T14:40:53Z</time>
      </trkpt>
      <trkpt lat="45.93495" lon="5.76142">
        <ele>1177</ele>
        <time>2021-08-20T14:40:54Z</time>
      </trkpt>
      <trkpt lat="45.93497" lon="5.76138">
        <ele>1176.9</ele>
        <time>2021-08-20T14:40:56Z</time>
      </trkpt>
      <trkpt lat="45.93499" lon="5.76135">
        <ele>1176.7</ele>
        <time>2021-08-20T14:40:57Z</time>
      </trkpt>
      <trkpt lat="45.93503" lon="5.76132">
        <ele>1176.4</ele>
        <time>2021-08-20T14:40:59Z</time>
      </trkpt>
      <trkpt lat="45.93508" lon="5.76129">
        <ele>1176.1</ele>
        <time>2021-08-20T14:41:00Z</time>
      </trkpt>
      <trkpt lat="45.93514" lon="5.76125">
        <ele>1175.7</ele>
        <time>2021-08-20T14:41:01Z</time>
      </trkpt>
      <trkpt lat="45.9352" lon="5.76124">
        <ele>1175.3</ele>
        <time>2021-08-20T14:41:03Z</time>
      </trkpt>
      <trkpt lat="45.93525" lon="5.76121">
        <ele>1174.9</ele>
        <time>2021-08-20T14:41:04Z</time>
      </trkpt>
      <trkpt lat="45.93527" lon="5.7612">
        <ele>1174.7</ele>
        <time>2021-08-20T14:41:05Z</time>
      </trkpt>
      <trkpt lat="45.93532" lon="5.76118">
        <ele>1174.4</ele>
        <time>2021-08-20T14:41:07Z</time>
      </trkpt>
      <trkpt lat="45.93536" lon="5.76117">
        <ele>1174.1</ele>
        <time>2021-08-20T14:41:08Z</time>
      </trkpt>
      <trkpt lat="45.93539" lon="5.76117">
        <ele>1173.8</ele>
        <time>2021-08-20T14:41:10Z</time>
      </trkpt>
      <trkpt lat="45.93543" lon="5.76117">
        <ele>1173.5</ele>
        <time>2021-08-20T14:41:11Z</time>
      </trkpt>
      <trkpt lat="45.93553" lon="5.76118">
        <ele>1172.8</ele>
        <time>2021-08-20T14:41:13Z</time>
      </trkpt>
      <trkpt lat="45.93559" lon="5.7612">
        <ele>1172.4</ele>
        <time>2021-08-20T14:41:14Z</time>
      </trkpt>
      <trkpt lat="45.93568" lon="5.76124">
        <ele>1171.7</ele>
        <time>2021-08-20T14:41:16Z</time>
      </trkpt>
      <trkpt lat="45.93578" lon="5.76126">
        <ele>1171.1</ele>
        <time>2021-08-20T14:41:17Z</time>
      </trkpt>
      <trkpt lat="45.93582" lon="5.76126">
        <ele>1170.8</ele>
        <time>2021-08-20T14:41:18Z</time>
      </trkpt>
      <trkpt lat="45.93585" lon="5.76125">
        <ele>1170.6</ele>
        <time>2021-08-20T14:41:19Z</time>
      </trkpt>
      <trkpt lat="45.93591" lon="5.76126">
        <ele>1170.1</ele>
        <time>2021-08-20T14:41:20Z</time>
      </trkpt>
      <trkpt lat="45.93597" lon="5.76127">
        <ele>1169.8</ele>
        <time>2021-08-20T14:41:21Z</time>
      </trkpt>
      <trkpt lat="45.93603" lon="5.76129">
        <ele>1169.4</ele>
        <time>2021-08-20T14:41:22Z</time>
      </trkpt>
      <trkpt lat="45.9361" lon="5.7613">
        <ele>1168.9</ele>
        <time>2021-08-20T14:41:24Z</time>
      </trkpt>
      <trkpt lat="45.9364" lon="5.76128">
        <ele>1166.8</ele>
        <time>2021-08-20T14:41:28Z</time>
      </trkpt>
      <trkpt lat="45.93657" lon="5.76128">
        <ele>1165.5</ele>
        <time>2021-08-20T14:41:29Z</time>
      </trkpt>
      <trkpt lat="45.93661" lon="5.76128">
        <ele>1165.2</ele>
        <time>2021-08-20T14:41:31Z</time>
      </trkpt>
      <trkpt lat="45.93664" lon="5.7613">
        <ele>1164.9</ele>
        <time>2021-08-20T14:41:32Z</time>
      </trkpt>
      <trkpt lat="45.93667" lon="5.76133">
        <ele>1164.6</ele>
        <time>2021-08-20T14:41:33Z</time>
      </trkpt>
      <trkpt lat="45.9367" lon="5.76136">
        <ele>1164.2</ele>
        <time>2021-08-20T14:41:35Z</time>
      </trkpt>
      <trkpt lat="45.93673" lon="5.76138">
        <ele>1163.9</ele>
        <time>2021-08-20T14:41:36Z</time>
      </trkpt>
      <trkpt lat="45.93675" lon="5.76139">
        <ele>1163.8</ele>
        <time>2021-08-20T14:41:37Z</time>
      </trkpt>
      <trkpt lat="45.93676" lon="5.7614">
        <ele>1163.7</ele>
        <time>2021-08-20T14:41:39Z</time>
      </trkpt>
      <trkpt lat="45.93676" lon="5.7614">
        <ele>1163.7</ele>
        <time>2021-08-20T14:41:40Z</time>
      </trkpt>
      <trkpt lat="45.93676" lon="5.76139">
        <ele>1163.7</ele>
        <time>2021-08-20T14:41:42Z</time>
      </trkpt>
      <trkpt lat="45.93675" lon="5.76139">
        <ele>1163.7</ele>
        <time>2021-08-20T14:41:43Z</time>
      </trkpt>
      <trkpt lat="45.93675" lon="5.76139">
        <ele>1163.6</ele>
        <time>2021-08-20T14:41:44Z</time>
      </trkpt>
      <trkpt lat="45.93674" lon="5.7614">
        <ele>1163.5</ele>
        <time>2021-08-20T14:41:45Z</time>
      </trkpt>
      <trkpt lat="45.93673" lon="5.7614">
        <ele>1163.4</ele>
        <time>2021-08-20T14:41:46Z</time>
      </trkpt>
      <trkpt lat="45.93668" lon="5.76141">
        <ele>1163</ele>
        <time>2021-08-20T14:41:47Z</time>
      </trkpt>
      <trkpt lat="45.93664" lon="5.76141">
        <ele>1162.8</ele>
        <time>2021-08-20T14:41:48Z</time>
      </trkpt>
      <trkpt lat="45.93618" lon="5.76147">
        <ele>1160.4</ele>
        <time>2021-08-20T14:41:49Z</time>
      </trkpt>
      <trkpt lat="45.93606" lon="5.76149">
        <ele>1159.9</ele>
        <time>2021-08-20T14:41:51Z</time>
      </trkpt>
      <trkpt lat="45.93586" lon="5.76159">
        <ele>1159.3</ele>
        <time>2021-08-20T14:41:53Z</time>
      </trkpt>
      <trkpt lat="45.93568" lon="5.76169">
        <ele>1158.5</ele>
        <time>2021-08-20T14:41:55Z</time>
      </trkpt>
      <trkpt lat="45.93557" lon="5.76177">
        <ele>1158</ele>
        <time>2021-08-20T14:41:56Z</time>
      </trkpt>
      <trkpt lat="45.93548" lon="5.76183">
        <ele>1157.5</ele>
        <time>2021-08-20T14:41:57Z</time>
      </trkpt>
      <trkpt lat="45.93532" lon="5.76192">
        <ele>1156.8</ele>
        <time>2021-08-20T14:41:59Z</time>
      </trkpt>
      <trkpt lat="45.93524" lon="5.76195">
        <ele>1156.4</ele>
        <time>2021-08-20T14:42:00Z</time>
      </trkpt>
      <trkpt lat="45.93517" lon="5.76199">
        <ele>1156.1</ele>
        <time>2021-08-20T14:42:01Z</time>
      </trkpt>
      <trkpt lat="45.93506" lon="5.76201">
        <ele>1155.7</ele>
        <time>2021-08-20T14:42:03Z</time>
      </trkpt>
      <trkpt lat="45.93501" lon="5.76204">
        <ele>1155.5</ele>
        <time>2021-08-20T14:42:04Z</time>
      </trkpt>
      <trkpt lat="45.93491" lon="5.76213">
        <ele>1155.4</ele>
        <time>2021-08-20T14:42:06Z</time>
      </trkpt>
      <trkpt lat="45.9348" lon="5.76221">
        <ele>1155.3</ele>
        <time>2021-08-20T14:42:08Z</time>
      </trkpt>
      <trkpt lat="45.93471" lon="5.76228">
        <ele>1155.4</ele>
        <time>2021-08-20T14:42:10Z</time>
      </trkpt>
      <trkpt lat="45.93466" lon="5.76232">
        <ele>1155.4</ele>
        <time>2021-08-20T14:42:11Z</time>
      </trkpt>
      <trkpt lat="45.93462" lon="5.76236">
        <ele>1155.5</ele>
        <time>2021-08-20T14:42:12Z</time>
      </trkpt>
      <trkpt lat="45.93451" lon="5.76244">
        <ele>1155.6</ele>
        <time>2021-08-20T14:42:14Z</time>
      </trkpt>
      <trkpt lat="45.93445" lon="5.76248">
        <ele>1155.7</ele>
        <time>2021-08-20T14:42:15Z</time>
      </trkpt>
      <trkpt lat="45.93434" lon="5.76255">
        <ele>1155.9</ele>
        <time>2021-08-20T14:42:17Z</time>
      </trkpt>
      <trkpt lat="45.93424" lon="5.76262">
        <ele>1156</ele>
        <time>2021-08-20T14:42:19Z</time>
      </trkpt>
      <trkpt lat="45.93421" lon="5.76265">
        <ele>1156.1</ele>
        <time>2021-08-20T14:42:20Z</time>
      </trkpt>
      <trkpt lat="45.93414" lon="5.76271">
        <ele>1156.2</ele>
        <time>2021-08-20T14:42:22Z</time>
      </trkpt>
      <trkpt lat="45.93411" lon="5.76278">
        <ele>1156.3</ele>
        <time>2021-08-20T14:42:24Z</time>
      </trkpt>
      <trkpt lat="45.93408" lon="5.76285">
        <ele>1156.3</ele>
        <time>2021-08-20T14:42:26Z</time>
      </trkpt>
      <trkpt lat="45.93404" lon="5.76291">
        <ele>1156.3</ele>
        <time>2021-08-20T14:42:28Z</time>
      </trkpt>
      <trkpt lat="45.93401" lon="5.76293">
        <ele>1156.3</ele>
        <time>2021-08-20T14:42:29Z</time>
      </trkpt>
      <trkpt lat="45.934" lon="5.76293">
        <ele>1156.3</ele>
        <time>2021-08-20T14:42:30Z</time>
      </trkpt>
      <trkpt lat="45.93398" lon="5.76296">
        <ele>1156.3</ele>
        <time>2021-08-20T14:42:32Z</time>
      </trkpt>
      <trkpt lat="45.93392" lon="5.76301">
        <ele>1156.2</ele>
        <time>2021-08-20T14:42:33Z</time>
      </trkpt>
      <trkpt lat="45.93386" lon="5.76304">
        <ele>1156.1</ele>
        <time>2021-08-20T14:42:34Z</time>
      </trkpt>
      <trkpt lat="45.93381" lon="5.76305">
        <ele>1156</ele>
        <time>2021-08-20T14:42:35Z</time>
      </trkpt>
      <trkpt lat="45.93377" lon="5.76306">
        <ele>1155.9</ele>
        <time>2021-08-20T14:42:37Z</time>
      </trkpt>
      <trkpt lat="45.93374" lon="5.76307">
        <ele>1155.9</ele>
        <time>2021-08-20T14:42:38Z</time>
      </trkpt>
      <trkpt lat="45.93369" lon="5.76309">
        <ele>1155.7</ele>
        <time>2021-08-20T14:42:39Z</time>
      </trkpt>
      <trkpt lat="45.93364" lon="5.76312">
        <ele>1155.5</ele>
        <time>2021-08-20T14:42:41Z</time>
      </trkpt>
      <trkpt lat="45.9336" lon="5.76316">
        <ele>1155.4</ele>
        <time>2021-08-20T14:42:42Z</time>
      </trkpt>
      <trkpt lat="45.93353" lon="5.76318">
        <ele>1155.1</ele>
        <time>2021-08-20T14:42:44Z</time>
      </trkpt>
      <trkpt lat="45.93347" lon="5.7632">
        <ele>1154.9</ele>
        <time>2021-08-20T14:42:45Z</time>
      </trkpt>
      <trkpt lat="45.93343" lon="5.7632">
        <ele>1154.8</ele>
        <time>2021-08-20T14:42:46Z</time>
      </trkpt>
      <trkpt lat="45.9334" lon="5.76322">
        <ele>1154.7</ele>
        <time>2021-08-20T14:42:47Z</time>
      </trkpt>
      <trkpt lat="45.93338" lon="5.76322">
        <ele>1154.6</ele>
        <time>2021-08-20T14:42:48Z</time>
      </trkpt>
      <trkpt lat="45.93334" lon="5.76323">
        <ele>1154.5</ele>
        <time>2021-08-20T14:42:50Z</time>
      </trkpt>
      <trkpt lat="45.93328" lon="5.76325">
        <ele>1154.4</ele>
        <time>2021-08-20T14:42:52Z</time>
      </trkpt>
      <trkpt lat="45.93324" lon="5.76328">
        <ele>1154.4</ele>
        <time>2021-08-20T14:42:53Z</time>
      </trkpt>
      <trkpt lat="45.93322" lon="5.7633">
        <ele>1154.4</ele>
        <time>2021-08-20T14:42:55Z</time>
      </trkpt>
      <trkpt lat="45.93322" lon="5.7633">
        <ele>1154.4</ele>
        <time>2021-08-20T14:42:56Z</time>
      </trkpt>
      <trkpt lat="45.93221" lon="5.76465">
        <ele>1161.5</ele>
        <time>2021-08-20T14:44:25Z</time>
      </trkpt>
      <trkpt lat="45.93221" lon="5.76468">
        <ele>1161.8</ele>
        <time>2021-08-20T14:44:27Z</time>
      </trkpt>
      <trkpt lat="45.93221" lon="5.76468">
        <ele>1161.8</ele>
        <time>2021-08-20T14:44:28Z</time>
      </trkpt>
      <trkpt lat="45.93222" lon="5.76469">
        <ele>1161.9</ele>
        <time>2021-08-20T14:44:29Z</time>
      </trkpt>
      <trkpt lat="45.93222" lon="5.7647">
        <ele>1162</ele>
        <time>2021-08-20T14:44:30Z</time>
      </trkpt>
      <trkpt lat="45.93222" lon="5.76471">
        <ele>1162</ele>
        <time>2021-08-20T14:44:31Z</time>
      </trkpt>
      <trkpt lat="45.93222" lon="5.76472">
        <ele>1162.1</ele>
        <time>2021-08-20T14:44:33Z</time>
      </trkpt>
      <trkpt lat="45.93223" lon="5.76473">
        <ele>1162.2</ele>
        <time>2021-08-20T14:44:34Z</time>
      </trkpt>
      <trkpt lat="45.93222" lon="5.76473">
        <ele>1162.2</ele>
        <time>2021-08-20T14:44:35Z</time>
      </trkpt>
      <trkpt lat="45.93222" lon="5.76475">
        <ele>1162.3</ele>
        <time>2021-08-20T14:44:36Z</time>
      </trkpt>
      <trkpt lat="45.93222" lon="5.76476">
        <ele>1162.4</ele>
        <time>2021-08-20T14:44:38Z</time>
      </trkpt>
      <trkpt lat="45.93222" lon="5.76477">
        <ele>1162.4</ele>
        <time>2021-08-20T14:44:39Z</time>
      </trkpt>
      <trkpt lat="45.93222" lon="5.76479">
        <ele>1162.5</ele>
        <time>2021-08-20T14:44:40Z</time>
      </trkpt>
      <trkpt lat="45.93222" lon="5.7648">
        <ele>1162.6</ele>
        <time>2021-08-20T14:44:41Z</time>
      </trkpt>
      <trkpt lat="45.93222" lon="5.7648">
        <ele>1162.6</ele>
        <time>2021-08-20T14:44:43Z</time>
      </trkpt>
      <trkpt lat="45.93222" lon="5.76481">
        <ele>1162.6</ele>
        <time>2021-08-20T14:44:44Z</time>
      </trkpt>
      <trkpt lat="45.93221" lon="5.76481">
        <ele>1162.6</ele>
        <time>2021-08-20T14:44:45Z</time>
      </trkpt>
      <trkpt lat="45.93221" lon="5.76482">
        <ele>1162.7</ele>
        <time>2021-08-20T14:44:46Z</time>
      </trkpt>
      <trkpt lat="45.93221" lon="5.76482">
        <ele>1162.7</ele>
        <time>2021-08-20T14:44:48Z</time>
      </trkpt>
      <trkpt lat="45.93221" lon="5.76483">
        <ele>1162.7</ele>
        <time>2021-08-20T14:44:49Z</time>
      </trkpt>
      <trkpt lat="45.93221" lon="5.76483">
        <ele>1162.7</ele>
        <time>2021-08-20T14:44:50Z</time>
      </trkpt>
      <trkpt lat="45.93221" lon="5.76483">
        <ele>1162.7</ele>
        <time>2021-08-20T14:44:51Z</time>
      </trkpt>
      <trkpt lat="45.93221" lon="5.76483">
        <ele>1162.7</ele>
        <time>2021-08-20T14:44:53Z</time>
      </trkpt>
      <trkpt lat="45.93221" lon="5.76483">
        <ele>1162.7</ele>
        <time>2021-08-20T14:44:54Z</time>
      </trkpt>
      <trkpt lat="45.93221" lon="5.76483">
        <ele>1162.7</ele>
        <time>2021-08-20T14:44:55Z</time>
      </trkpt>
      <trkpt lat="45.93221" lon="5.76483">
        <ele>1162.7</ele>
        <time>2021-08-20T14:44:57Z</time>
      </trkpt>
      <trkpt lat="45.93221" lon="5.76483">
        <ele>1162.8</ele>
        <time>2021-08-20T14:44:58Z</time>
      </trkpt>
      <trkpt lat="45.93222" lon="5.76484">
        <ele>1162.8</ele>
        <time>2021-08-20T14:44:59Z</time>
      </trkpt>
      <trkpt lat="45.93222" lon="5.76484">
        <ele>1162.8</ele>
        <time>2021-08-20T14:45:00Z</time>
      </trkpt>
      <trkpt lat="45.93223" lon="5.76484">
        <ele>1162.9</ele>
        <time>2021-08-20T14:45:01Z</time>
      </trkpt>
      <trkpt lat="45.93223" lon="5.76485">
        <ele>1162.9</ele>
        <time>2021-08-20T14:45:03Z</time>
      </trkpt>
      <trkpt lat="45.93224" lon="5.76485">
        <ele>1162.9</ele>
        <time>2021-08-20T14:45:05Z</time>
      </trkpt>
      <trkpt lat="45.93224" lon="5.76485">
        <ele>1162.9</ele>
        <time>2021-08-20T14:45:06Z</time>
      </trkpt>
      <trkpt lat="45.93224" lon="5.76485">
        <ele>1162.9</ele>
        <time>2021-08-20T14:45:08Z</time>
      </trkpt>
      <trkpt lat="45.93222" lon="5.76486">
        <ele>1163</ele>
        <time>2021-08-20T14:45:10Z</time>
      </trkpt>
      <trkpt lat="45.93221" lon="5.76487">
        <ele>1163.1</ele>
        <time>2021-08-20T14:45:12Z</time>
      </trkpt>
      <trkpt lat="45.9322" lon="5.76488">
        <ele>1163.2</ele>
        <time>2021-08-20T14:45:14Z</time>
      </trkpt>
      <trkpt lat="45.93217" lon="5.76489">
        <ele>1163.3</ele>
        <time>2021-08-20T14:45:16Z</time>
      </trkpt>
      <trkpt lat="45.93215" lon="5.7649">
        <ele>1163.4</ele>
        <time>2021-08-20T14:45:17Z</time>
      </trkpt>
      <trkpt lat="45.93213" lon="5.76491">
        <ele>1163.5</ele>
        <time>2021-08-20T14:45:19Z</time>
      </trkpt>
      <trkpt lat="45.93211" lon="5.76492">
        <ele>1163.6</ele>
        <time>2021-08-20T14:45:20Z</time>
      </trkpt>
      <trkpt lat="45.9321" lon="5.76493">
        <ele>1163.7</ele>
        <time>2021-08-20T14:45:22Z</time>
      </trkpt>
      <trkpt lat="45.93209" lon="5.76493">
        <ele>1163.7</ele>
        <time>2021-08-20T14:45:23Z</time>
      </trkpt>
      <trkpt lat="45.93208" lon="5.76494">
        <ele>1163.8</ele>
        <time>2021-08-20T14:45:24Z</time>
      </trkpt>
      <trkpt lat="45.93207" lon="5.76494">
        <ele>1163.8</ele>
        <time>2021-08-20T14:45:26Z</time>
      </trkpt>
      <trkpt lat="45.93206" lon="5.76495">
        <ele>1163.9</ele>
        <time>2021-08-20T14:45:28Z</time>
      </trkpt>
      <trkpt lat="45.93205" lon="5.76495">
        <ele>1163.9</ele>
        <time>2021-08-20T14:45:30Z</time>
      </trkpt>
      <trkpt lat="45.93204" lon="5.76495">
        <ele>1164</ele>
        <time>2021-08-20T14:45:31Z</time>
      </trkpt>
      <trkpt lat="45.93203" lon="5.76496">
        <ele>1164</ele>
        <time>2021-08-20T14:45:32Z</time>
      </trkpt>
      <trkpt lat="45.93202" lon="5.76496">
        <ele>1164.1</ele>
        <time>2021-08-20T14:45:34Z</time>
      </trkpt>
      <trkpt lat="45.93201" lon="5.76497">
        <ele>1164.2</ele>
        <time>2021-08-20T14:45:36Z</time>
      </trkpt>
      <trkpt lat="45.932" lon="5.76497">
        <ele>1164.2</ele>
        <time>2021-08-20T14:45:38Z</time>
      </trkpt>
      <trkpt lat="45.93199" lon="5.76498">
        <ele>1164.3</ele>
        <time>2021-08-20T14:45:39Z</time>
      </trkpt>
      <trkpt lat="45.93198" lon="5.76498">
        <ele>1164.3</ele>
        <time>2021-08-20T14:45:40Z</time>
      </trkpt>
      <trkpt lat="45.93195" lon="5.76497">
        <ele>1164.5</ele>
        <time>2021-08-20T14:45:41Z</time>
      </trkpt>
      <trkpt lat="45.93191" lon="5.76495">
        <ele>1164.8</ele>
        <time>2021-08-20T14:45:42Z</time>
      </trkpt>
      <trkpt lat="45.93185" lon="5.76493">
        <ele>1165.1</ele>
        <time>2021-08-20T14:45:44Z</time>
      </trkpt>
      <trkpt lat="45.93178" lon="5.76494">
        <ele>1165.5</ele>
        <time>2021-08-20T14:45:46Z</time>
      </trkpt>
      <trkpt lat="45.93175" lon="5.76494">
        <ele>1165.8</ele>
        <time>2021-08-20T14:45:47Z</time>
      </trkpt>
      <trkpt lat="45.93171" lon="5.76494">
        <ele>1166.1</ele>
        <time>2021-08-20T14:45:48Z</time>
      </trkpt>
      <trkpt lat="45.93168" lon="5.76494">
        <ele>1166.2</ele>
        <time>2021-08-20T14:45:49Z</time>
      </trkpt>
      <trkpt lat="45.93167" lon="5.76494">
        <ele>1166.3</ele>
        <time>2021-08-20T14:45:50Z</time>
      </trkpt>
      <trkpt lat="45.93165" lon="5.76494">
        <ele>1166.5</ele>
        <time>2021-08-20T14:45:51Z</time>
      </trkpt>
      <trkpt lat="45.93163" lon="5.76495">
        <ele>1166.6</ele>
        <time>2021-08-20T14:45:53Z</time>
      </trkpt>
      <trkpt lat="45.93161" lon="5.76495">
        <ele>1166.7</ele>
        <time>2021-08-20T14:45:54Z</time>
      </trkpt>
      <trkpt lat="45.93159" lon="5.76497">
        <ele>1166.9</ele>
        <time>2021-08-20T14:45:56Z</time>
      </trkpt>
      <trkpt lat="45.93157" lon="5.76497">
        <ele>1167.1</ele>
        <time>2021-08-20T14:45:57Z</time>
      </trkpt>
      <trkpt lat="45.93155" lon="5.76498">
        <ele>1167.2</ele>
        <time>2021-08-20T14:45:58Z</time>
      </trkpt>
      <trkpt lat="45.92722" lon="5.76504">
        <ele>1185.8</ele>
        <time>2021-08-20T14:50:56Z</time>
      </trkpt>
      <trkpt lat="45.92717" lon="5.76505">
        <ele>1185.6</ele>
        <time>2021-08-20T14:50:58Z</time>
      </trkpt>
      <trkpt lat="45.92706" lon="5.76507">
        <ele>1185.4</ele>
        <time>2021-08-20T14:50:59Z</time>
      </trkpt>
      <trkpt lat="45.92702" lon="5.76507">
        <ele>1185.3</ele>
        <time>2021-08-20T14:51:01Z</time>
      </trkpt>
      <trkpt lat="45.92699" lon="5.76508">
        <ele>1185.2</ele>
        <time>2021-08-20T14:51:02Z</time>
      </trkpt>
      <trkpt lat="45.92696" lon="5.76508">
        <ele>1185.2</ele>
        <time>2021-08-20T14:51:03Z</time>
      </trkpt>
      <trkpt lat="45.92691" lon="5.76509">
        <ele>1185.1</ele>
        <time>2021-08-20T14:51:04Z</time>
      </trkpt>
      <trkpt lat="45.92689" lon="5.76511">
        <ele>1185</ele>
        <time>2021-08-20T14:51:05Z</time>
      </trkpt>
      <trkpt lat="45.92686" lon="5.76513">
        <ele>1185</ele>
        <time>2021-08-20T14:51:07Z</time>
      </trkpt>
      <trkpt lat="45.92683" lon="5.76513">
        <ele>1185</ele>
        <time>2021-08-20T14:51:08Z</time>
      </trkpt>
      <trkpt lat="45.92353" lon="5.76464">
        <ele>1208.7</ele>
        <time>2021-08-20T14:56:59Z</time>
      </trkpt>
      <trkpt lat="45.92349" lon="5.76465">
        <ele>1208.9</ele>
        <time>2021-08-20T14:57:01Z</time>
      </trkpt>
      <trkpt lat="45.92347" lon="5.76465">
        <ele>1209.1</ele>
        <time>2021-08-20T14:57:02Z</time>
      </trkpt>
      <trkpt lat="45.92346" lon="5.76464">
        <ele>1209.1</ele>
        <time>2021-08-20T14:57:03Z</time>
      </trkpt>
      <trkpt lat="45.92345" lon="5.76463">
        <ele>1209.2</ele>
        <time>2021-08-20T14:57:04Z</time>
      </trkpt>
      <trkpt lat="45.92344" lon="5.76462">
        <ele>1209.2</ele>
        <time>2021-08-20T14:57:05Z</time>
      </trkpt>
      <trkpt lat="45.92342" lon="5.76461">
        <ele>1209.3</ele>
        <time>2021-08-20T14:57:07Z</time>
      </trkpt>
      <trkpt lat="45.92342" lon="5.7646">
        <ele>1209.3</ele>
        <time>2021-08-20T14:57:08Z</time>
      </trkpt>
      <trkpt lat="45.92341" lon="5.76459">
        <ele>1209.3</ele>
        <time>2021-08-20T14:57:09Z</time>
      </trkpt>
      <trkpt lat="45.92341" lon="5.76458">
        <ele>1209.4</ele>
        <time>2021-08-20T14:57:10Z</time>
      </trkpt>
      <trkpt lat="45.92341" lon="5.76456">
        <ele>1209.4</ele>
        <time>2021-08-20T14:57:11Z</time>
      </trkpt>
      <trkpt lat="45.91738" lon="5.76611">
        <ele>1309.2</ele>
        <time>2021-08-20T15:19:30Z</time>
      </trkpt>
      <trkpt lat="45.91734" lon="5.76613">
        <ele>1309.4</ele>
        <time>2021-08-20T15:19:32Z</time>
      </trkpt>
      <trkpt lat="45.91733" lon="5.76614">
        <ele>1309.6</ele>
        <time>2021-08-20T15:19:33Z</time>
      </trkpt>
      <trkpt lat="45.91731" lon="5.76614">
        <ele>1309.7</ele>
        <time>2021-08-20T15:19:35Z</time>
      </trkpt>
      <trkpt lat="45.91728" lon="5.76615">
        <ele>1309.9</ele>
        <time>2021-08-20T15:19:36Z</time>
      </trkpt>
      <trkpt lat="45.91728" lon="5.76615">
        <ele>1310</ele>
        <time>2021-08-20T15:19:37Z</time>
      </trkpt>
      <trkpt lat="45.91727" lon="5.76614">
        <ele>1310</ele>
        <time>2021-08-20T15:19:38Z</time>
      </trkpt>
      <trkpt lat="45.91725" lon="5.76613">
        <ele>1310.2</ele>
        <time>2021-08-20T15:19:40Z</time>
      </trkpt>
      <trkpt lat="45.91724" lon="5.76611">
        <ele>1310.3</ele>
        <time>2021-08-20T15:19:41Z</time>
      </trkpt>
      <trkpt lat="45.91723" lon="5.7661">
        <ele>1310.4</ele>
        <time>2021-08-20T15:19:42Z</time>
      </trkpt>
      <trkpt lat="45.9172" lon="5.76605">
        <ele>1310.8</ele>
        <time>2021-08-20T15:19:44Z</time>
      </trkpt>
      <trkpt lat="45.91717" lon="5.766">
        <ele>1311.1</ele>
        <time>2021-08-20T15:19:46Z</time>
      </trkpt>
      <trkpt lat="45.91714" lon="5.76596">
        <ele>1311.5</ele>
        <time>2021-08-20T15:19:48Z</time>
      </trkpt>
      <trkpt lat="45.91711" lon="5.7659">
        <ele>1311.9</ele>
        <time>2021-08-20T15:19:50Z</time>
      </trkpt>
      <trkpt lat="45.91711" lon="5.76589">
        <ele>1312</ele>
        <time>2021-08-20T15:19:51Z</time>
      </trkpt>
      <trkpt lat="45.91711" lon="5.76588">
        <ele>1312</ele>
        <time>2021-08-20T15:19:53Z</time>
      </trkpt>
      <trkpt lat="45.91711" lon="5.76588">
        <ele>1312</ele>
        <time>2021-08-20T15:19:55Z</time>
      </trkpt>
      <trkpt lat="45.91713" lon="5.76597">
        <ele>1312.6</ele>
        <time>2021-08-20T15:19:56Z</time>
      </trkpt>
      <trkpt lat="45.9163" lon="5.76547">
        <ele>1325.9</ele>
        <time>2021-08-20T15:23:36Z</time>
      </trkpt>
      <trkpt lat="45.91626" lon="5.76545">
        <ele>1326.2</ele>
        <time>2021-08-20T15:23:37Z</time>
      </trkpt>
      <trkpt lat="45.91625" lon="5.76545">
        <ele>1326.3</ele>
        <time>2021-08-20T15:23:38Z</time>
      </trkpt>
      <trkpt lat="45.9162" lon="5.76543">
        <ele>1326.6</ele>
        <time>2021-08-20T15:23:40Z</time>
      </trkpt>
      <trkpt lat="45.91618" lon="5.76542">
        <ele>1326.7</ele>
        <time>2021-08-20T15:23:41Z</time>
      </trkpt>
      <trkpt lat="45.91617" lon="5.76542">
        <ele>1326.7</ele>
        <time>2021-08-20T15:23:42Z</time>
      </trkpt>
      <trkpt lat="45.91615" lon="5.76541">
        <ele>1326.8</ele>
        <time>2021-08-20T15:23:44Z</time>
      </trkpt>
      <trkpt lat="45.91614" lon="5.76541">
        <ele>1326.8</ele>
        <time>2021-08-20T15:23:45Z</time>
      </trkpt>
      <trkpt lat="45.91613" lon="5.76541">
        <ele>1326.9</ele>
        <time>2021-08-20T15:23:46Z</time>
      </trkpt>
      <trkpt lat="45.91613" lon="5.76541">
        <ele>1326.9</ele>
        <time>2021-08-20T15:23:48Z</time>
      </trkpt>
      <trkpt lat="45.91612" lon="5.76541">
        <ele>1326.9</ele>
        <time>2021-08-20T15:23:49Z</time>
      </trkpt>
      <trkpt lat="45.91612" lon="5.76541">
        <ele>1326.9</ele>
        <time>2021-08-20T15:23:50Z</time>
      </trkpt>
      <trkpt lat="45.9161" lon="5.76542">
        <ele>1326.9</ele>
        <time>2021-08-20T15:23:51Z</time>
      </trkpt>
      <trkpt lat="45.91609" lon="5.76542">
        <ele>1327</ele>
        <time>2021-08-20T15:23:53Z</time>
      </trkpt>
      <trkpt lat="45.91608" lon="5.76542">
        <ele>1327</ele>
        <time>2021-08-20T15:23:54Z</time>
      </trkpt>
      <trkpt lat="45.91606" lon="5.76542">
        <ele>1327.1</ele>
        <time>2021-08-20T15:23:55Z</time>
      </trkpt>
      <trkpt lat="45.91605" lon="5.76541">
        <ele>1327.1</ele>
        <time>2021-08-20T15:23:56Z</time>
      </trkpt>
      <trkpt lat="45.91604" lon="5.7654">
        <ele>1327.2</ele>
        <time>2021-08-20T15:23:58Z</time>
      </trkpt>
      <trkpt lat="45.91603" lon="5.76538">
        <ele>1327.2</ele>
        <time>2021-08-20T15:23:59Z</time>
      </trkpt>
      <trkpt lat="45.91602" lon="5.76537">
        <ele>1327.3</ele>
        <time>2021-08-20T15:24:01Z</time>
      </trkpt>
      <trkpt lat="45.91601" lon="5.76536">
        <ele>1327.3</ele>
        <time>2021-08-20T15:24:02Z</time>
      </trkpt>
      <trkpt lat="45.91601" lon="5.76536">
        <ele>1327.3</ele>
        <time>2021-08-20T15:24:03Z</time>
      </trkpt>
      <trkpt lat="45.91601" lon="5.76536">
        <ele>1327.3</ele>
        <time>2021-08-20T15:24:04Z</time>
      </trkpt>
      <trkpt lat="45.91601" lon="5.76535">
        <ele>1327.3</ele>
        <time>2021-08-20T15:24:05Z</time>
      </trkpt>
      <trkpt lat="45.91601" lon="5.76535">
        <ele>1327.3</ele>
        <time>2021-08-20T15:24:07Z</time>
      </trkpt>
      <trkpt lat="45.91601" lon="5.76535">
        <ele>1327.3</ele>
        <time>2021-08-20T15:24:08Z</time>
      </trkpt>
      <trkpt lat="45.916" lon="5.76535">
        <ele>1327.3</ele>
        <time>2021-08-20T15:24:09Z</time>
      </trkpt>
      <trkpt lat="45.91599" lon="5.76535">
        <ele>1327.4</ele>
        <time>2021-08-20T15:24:11Z</time>
      </trkpt>
      <trkpt lat="45.91597" lon="5.76534">
        <ele>1327.4</ele>
        <time>2021-08-20T15:24:13Z</time>
      </trkpt>
      <trkpt lat="45.91596" lon="5.76533">
        <ele>1327.5</ele>
        <time>2021-08-20T15:24:14Z</time>
      </trkpt>
      <trkpt lat="45.91595" lon="5.76532">
        <ele>1327.5</ele>
        <time>2021-08-20T15:24:15Z</time>
      </trkpt>
      <trkpt lat="45.91593" lon="5.76529">
        <ele>1327.7</ele>
        <time>2021-08-20T15:24:17Z</time>
      </trkpt>
      <trkpt lat="45.91591" lon="5.76526">
        <ele>1327.8</ele>
        <time>2021-08-20T15:24:19Z</time>
      </trkpt>
      <trkpt lat="45.91589" lon="5.76524">
        <ele>1328</ele>
        <time>2021-08-20T15:24:20Z</time>
      </trkpt>
      <trkpt lat="45.91586" lon="5.76519">
        <ele>1328.3</ele>
        <time>2021-08-20T15:24:22Z</time>
      </trkpt>
      <trkpt lat="45.91584" lon="5.76516">
        <ele>1328.5</ele>
        <time>2021-08-20T15:24:23Z</time>
      </trkpt>
      <trkpt lat="45.91583" lon="5.76514">
        <ele>1328.6</ele>
        <time>2021-08-20T15:24:25Z</time>
      </trkpt>
      <trkpt lat="45.91582" lon="5.76513">
        <ele>1328.7</ele>
        <time>2021-08-20T15:24:26Z</time>
      </trkpt>
      <trkpt lat="45.91582" lon="5.76512">
        <ele>1328.8</ele>
        <time>2021-08-20T15:24:27Z</time>
      </trkpt>
      <trkpt lat="45.91582" lon="5.76511">
        <ele>1328.8</ele>
        <time>2021-08-20T15:24:29Z</time>
      </trkpt>
      <trkpt lat="45.91582" lon="5.76511">
        <ele>1328.8</ele>
        <time>2021-08-20T15:24:30Z</time>
      </trkpt>
      <trkpt lat="45.91581" lon="5.76509">
        <ele>1328.9</ele>
        <time>2021-08-20T15:24:31Z</time>
      </trkpt>
      <trkpt lat="45.9158" lon="5.76508">
        <ele>1329</ele>
        <time>2021-08-20T15:24:33Z</time>
      </trkpt>
      <trkpt lat="45.91575" lon="5.76504">
        <ele>1329.5</ele>
        <time>2021-08-20T15:24:40Z</time>
      </trkpt>
      <trkpt lat="45.91574" lon="5.76504">
        <ele>1329.6</ele>
        <time>2021-08-20T15:24:41Z</time>
      </trkpt>
      <trkpt lat="45.91574" lon="5.76507">
        <ele>1329.8</ele>
        <time>2021-08-20T15:24:42Z</time>
      </trkpt>
      <trkpt lat="45.91576" lon="5.76513">
        <ele>1330.2</ele>
        <time>2021-08-20T15:24:44Z</time>
      </trkpt>
      <trkpt lat="45.91576" lon="5.76517">
        <ele>1330.4</ele>
        <time>2021-08-20T15:24:45Z</time>
      </trkpt>
      <trkpt lat="45.91577" lon="5.76517">
        <ele>1330.5</ele>
        <time>2021-08-20T15:24:46Z</time>
      </trkpt>
      <trkpt lat="45.91581" lon="5.76518">
        <ele>1330.8</ele>
        <time>2021-08-20T15:24:48Z</time>
      </trkpt>
      <trkpt lat="45.91581" lon="5.76518">
        <ele>1330.9</ele>
        <time>2021-08-20T15:24:49Z</time>
      </trkpt>
      <trkpt lat="45.91581" lon="5.76518">
        <ele>1330.9</ele>
        <time>2021-08-20T15:24:51Z</time>
      </trkpt>
      <trkpt lat="45.91581" lon="5.76518">
        <ele>1330.9</ele>
        <time>2021-08-20T15:24:53Z</time>
      </trkpt>
      <trkpt lat="45.91581" lon="5.76518">
        <ele>1330.9</ele>
        <time>2021-08-20T15:24:54Z</time>
      </trkpt>
      <trkpt lat="45.91323" lon="5.76224">
        <ele>1349.5</ele>
        <time>2021-08-20T15:30:11Z</time>
      </trkpt>
      <trkpt lat="45.9132" lon="5.7622">
        <ele>1349.9</ele>
        <time>2021-08-20T15:30:12Z</time>
      </trkpt>
      <trkpt lat="45.9132" lon="5.76219">
        <ele>1350</ele>
        <time>2021-08-20T15:30:13Z</time>
      </trkpt>
      <trkpt lat="45.91318" lon="5.76219">
        <ele>1350.2</ele>
        <time>2021-08-20T15:30:14Z</time>
      </trkpt>
      <trkpt lat="45.91316" lon="5.76218">
        <ele>1350.4</ele>
        <time>2021-08-20T15:30:16Z</time>
      </trkpt>
      <trkpt lat="45.91316" lon="5.76217">
        <ele>1350.5</ele>
        <time>2021-08-20T15:30:17Z</time>
      </trkpt>
      <trkpt lat="45.91315" lon="5.76217">
        <ele>1350.6</ele>
        <time>2021-08-20T15:30:18Z</time>
      </trkpt>
      <trkpt lat="45.91315" lon="5.76216">
        <ele>1350.7</ele>
        <time>2021-08-20T15:30:19Z</time>
      </trkpt>
      <trkpt lat="45.91315" lon="5.76216">
        <ele>1350.7</ele>
        <time>2021-08-20T15:30:20Z</time>
      </trkpt>
      <trkpt lat="45.91313" lon="5.76215">
        <ele>1350.9</ele>
        <time>2021-08-20T15:30:22Z</time>
      </trkpt>
      <trkpt lat="45.91312" lon="5.76215">
        <ele>1351.1</ele>
        <time>2021-08-20T15:30:24Z</time>
      </trkpt>
      <trkpt lat="45.91311" lon="5.76214">
        <ele>1351.2</ele>
        <time>2021-08-20T15:30:25Z</time>
      </trkpt>
      <trkpt lat="45.9131" lon="5.76214">
        <ele>1351.3</ele>
        <time>2021-08-20T15:30:26Z</time>
      </trkpt>
      <trkpt lat="45.9131" lon="5.76213">
        <ele>1351.4</ele>
        <time>2021-08-20T15:30:28Z</time>
      </trkpt>
      <trkpt lat="45.91266" lon="5.76153">
        <ele>1358.3</ele>
        <time>2021-08-20T15:32:25Z</time>
      </trkpt>
      <trkpt lat="45.91264" lon="5.76149">
        <ele>1358.6</ele>
        <time>2021-08-20T15:32:26Z</time>
      </trkpt>
      <trkpt lat="45.91261" lon="5.76145">
        <ele>1358.8</ele>
        <time>2021-08-20T15:32:27Z</time>
      </trkpt>
      <trkpt lat="45.9126" lon="5.76141">
        <ele>1359</ele>
        <time>2021-08-20T15:32:28Z</time>
      </trkpt>
      <trkpt lat="45.91257" lon="5.76139">
        <ele>1359.2</ele>
        <time>2021-08-20T15:32:29Z</time>
      </trkpt>
      <trkpt lat="45.91256" lon="5.76139">
        <ele>1359.2</ele>
        <time>2021-08-20T15:32:30Z</time>
      </trkpt>
      <trkpt lat="45.91254" lon="5.76137">
        <ele>1359.4</ele>
        <time>2021-08-20T15:32:31Z</time>
      </trkpt>
      <trkpt lat="45.91251" lon="5.76133">
        <ele>1359.6</ele>
        <time>2021-08-20T15:32:33Z</time>
      </trkpt>
      <trkpt lat="45.9125" lon="5.76133">
        <ele>1359.7</ele>
        <time>2021-08-20T15:32:34Z</time>
      </trkpt>
      <trkpt lat="45.91248" lon="5.76131">
        <ele>1359.9</ele>
        <time>2021-08-20T15:32:35Z</time>
      </trkpt>
      <trkpt lat="45.91246" lon="5.76126">
        <ele>1360.1</ele>
        <time>2021-08-20T15:32:37Z</time>
      </trkpt>
      <trkpt lat="45.91244" lon="5.76125">
        <ele>1360.2</ele>
        <time>2021-08-20T15:32:38Z</time>
      </trkpt>
      <trkpt lat="45.91242" lon="5.76123">
        <ele>1360.4</ele>
        <time>2021-08-20T15:32:40Z</time>
      </trkpt>
      <trkpt lat="45.9124" lon="5.7612">
        <ele>1360.6</ele>
        <time>2021-08-20T15:32:41Z</time>
      </trkpt>
      <trkpt lat="45.91238" lon="5.76119">
        <ele>1360.8</ele>
        <time>2021-08-20T15:32:42Z</time>
      </trkpt>
      <trkpt lat="45.91235" lon="5.76117">
        <ele>1361.1</ele>
        <time>2021-08-20T15:32:44Z</time>
      </trkpt>
      <trkpt lat="45.91232" lon="5.76117">
        <ele>1361.3</ele>
        <time>2021-08-20T15:32:45Z</time>
      </trkpt>
      <trkpt lat="45.91231" lon="5.76117">
        <ele>1361.4</ele>
        <time>2021-08-20T15:32:46Z</time>
      </trkpt>
      <trkpt lat="45.91228" lon="5.76116">
        <ele>1361.7</ele>
        <time>2021-08-20T15:32:48Z</time>
      </trkpt>
      <trkpt lat="45.91228" lon="5.76115">
        <ele>1361.7</ele>
        <time>2021-08-20T15:32:50Z</time>
      </trkpt>
      <trkpt lat="45.91226" lon="5.76112">
        <ele>1361.9</ele>
        <time>2021-08-20T15:32:51Z</time>
      </trkpt>
      <trkpt lat="45.91224" lon="5.7611">
        <ele>1362.2</ele>
        <time>2021-08-20T15:32:53Z</time>
      </trkpt>
      <trkpt lat="45.91221" lon="5.76108">
        <ele>1362.4</ele>
        <time>2021-08-20T15:32:54Z</time>
      </trkpt>
      <trkpt lat="45.91219" lon="5.76104">
        <ele>1362.6</ele>
        <time>2021-08-20T15:32:55Z</time>
      </trkpt>
      <trkpt lat="45.91218" lon="5.76103">
        <ele>1362.7</ele>
        <time>2021-08-20T15:32:56Z</time>
      </trkpt>
      <trkpt lat="45.91217" lon="5.76099">
        <ele>1362.9</ele>
        <time>2021-08-20T15:32:58Z</time>
      </trkpt>
      <trkpt lat="45.91216" lon="5.76097">
        <ele>1363</ele>
        <time>2021-08-20T15:32:59Z</time>
      </trkpt>
      <trkpt lat="45.91215" lon="5.76096">
        <ele>1363.1</ele>
        <time>2021-08-20T15:33:00Z</time>
      </trkpt>
      <trkpt lat="45.91212" lon="5.76094">
        <ele>1363.3</ele>
        <time>2021-08-20T15:33:02Z</time>
      </trkpt>
      <trkpt lat="45.91211" lon="5.76092">
        <ele>1363.4</ele>
        <time>2021-08-20T15:33:03Z</time>
      </trkpt>
      <trkpt lat="45.9121" lon="5.7609">
        <ele>1363.5</ele>
        <time>2021-08-20T15:33:04Z</time>
      </trkpt>
      <trkpt lat="45.91208" lon="5.7609">
        <ele>1363.6</ele>
        <time>2021-08-20T15:33:05Z</time>
      </trkpt>
      <trkpt lat="45.91207" lon="5.76088">
        <ele>1363.7</ele>
        <time>2021-08-20T15:33:06Z</time>
      </trkpt>
      <trkpt lat="45.91204" lon="5.76084">
        <ele>1364</ele>
        <time>2021-08-20T15:33:08Z</time>
      </trkpt>
      <trkpt lat="45.91201" lon="5.76083">
        <ele>1364.2</ele>
        <time>2021-08-20T15:33:10Z</time>
      </trkpt>
      <trkpt lat="45.912" lon="5.76082">
        <ele>1364.3</ele>
        <time>2021-08-20T15:33:11Z</time>
      </trkpt>
      <trkpt lat="45.91199" lon="5.76081">
        <ele>1364.4</ele>
        <time>2021-08-20T15:33:12Z</time>
      </trkpt>
      <trkpt lat="45.91197" lon="5.7608">
        <ele>1364.5</ele>
        <time>2021-08-20T15:33:13Z</time>
      </trkpt>
      <trkpt lat="45.91196" lon="5.7608">
        <ele>1364.6</ele>
        <time>2021-08-20T15:33:14Z</time>
      </trkpt>
      <trkpt lat="45.91194" lon="5.76081">
        <ele>1364.8</ele>
        <time>2021-08-20T15:33:16Z</time>
      </trkpt>
      <trkpt lat="45.91194" lon="5.76083">
        <ele>1364.9</ele>
        <time>2021-08-20T15:33:17Z</time>
      </trkpt>
      <trkpt lat="45.91193" lon="5.76083">
        <ele>1364.9</ele>
        <time>2021-08-20T15:33:18Z</time>
      </trkpt>
      <trkpt lat="45.91192" lon="5.76083">
        <ele>1365</ele>
        <time>2021-08-20T15:33:20Z</time>
      </trkpt>
      <trkpt lat="45.91189" lon="5.76082">
        <ele>1365.3</ele>
        <time>2021-08-20T15:33:22Z</time>
      </trkpt>
      <trkpt lat="45.91186" lon="5.76079">
        <ele>1365.5</ele>
        <time>2021-08-20T15:33:24Z</time>
      </trkpt>
      <trkpt lat="45.91185" lon="5.76077">
        <ele>1365.7</ele>
        <time>2021-08-20T15:33:25Z</time>
      </trkpt>
      <trkpt lat="45.91182" lon="5.76075">
        <ele>1366</ele>
        <time>2021-08-20T15:33:27Z</time>
      </trkpt>
      <trkpt lat="45.91181" lon="5.76073">
        <ele>1366.1</ele>
        <time>2021-08-20T15:33:28Z</time>
      </trkpt>
      <trkpt lat="45.91181" lon="5.76072">
        <ele>1366.2</ele>
        <time>2021-08-20T15:33:30Z</time>
      </trkpt>
      <trkpt lat="45.91181" lon="5.76071">
        <ele>1366.2</ele>
        <time>2021-08-20T15:33:32Z</time>
      </trkpt>
      <trkpt lat="45.91181" lon="5.76071">
        <ele>1366.2</ele>
        <time>2021-08-20T15:33:34Z</time>
      </trkpt>
      <trkpt lat="45.91181" lon="5.7607">
        <ele>1366.2</ele>
        <time>2021-08-20T15:33:35Z</time>
      </trkpt>
      <trkpt lat="45.9118" lon="5.7607">
        <ele>1366.2</ele>
        <time>2021-08-20T15:33:36Z</time>
      </trkpt>
      <trkpt lat="45.9118" lon="5.7607">
        <ele>1366.3</ele>
        <time>2021-08-20T15:33:38Z</time>
      </trkpt>
      <trkpt lat="45.91133" lon="5.76017">
        <ele>1370.2</ele>
        <time>2021-08-20T15:35:19Z</time>
      </trkpt>
      <trkpt lat="45.91131" lon="5.76015">
        <ele>1370.3</ele>
        <time>2021-08-20T15:35:20Z</time>
      </trkpt>
      <trkpt lat="45.91129" lon="5.76012">
        <ele>1370.5</ele>
        <time>2021-08-20T15:35:22Z</time>
      </trkpt>
      <trkpt lat="45.91127" lon="5.76009">
        <ele>1370.6</ele>
        <time>2021-08-20T15:35:23Z</time>
      </trkpt>
      <trkpt lat="45.91127" lon="5.76008">
        <ele>1370.7</ele>
        <time>2021-08-20T15:35:24Z</time>
      </trkpt>
      <trkpt lat="45.91126" lon="5.76006">
        <ele>1370.8</ele>
        <time>2021-08-20T15:35:25Z</time>
      </trkpt>
      <trkpt lat="45.91126" lon="5.76006">
        <ele>1370.8</ele>
        <time>2021-08-20T15:35:27Z</time>
      </trkpt>
      <trkpt lat="45.91125" lon="5.76005">
        <ele>1370.9</ele>
        <time>2021-08-20T15:35:28Z</time>
      </trkpt>
      <trkpt lat="45.91125" lon="5.76004">
        <ele>1370.9</ele>
        <time>2021-08-20T15:35:30Z</time>
      </trkpt>
      <trkpt lat="45.91125" lon="5.76004">
        <ele>1370.9</ele>
        <time>2021-08-20T15:35:31Z</time>
      </trkpt>
      <trkpt lat="45.91124" lon="5.76003">
        <ele>1371</ele>
        <time>2021-08-20T15:35:32Z</time>
      </trkpt>
      <trkpt lat="45.91123" lon="5.76002">
        <ele>1371</ele>
        <time>2021-08-20T15:35:34Z</time>
      </trkpt>
      <trkpt lat="45.91123" lon="5.76001">
        <ele>1371.1</ele>
        <time>2021-08-20T15:35:35Z</time>
      </trkpt>
      <trkpt lat="45.91122" lon="5.76">
        <ele>1371.2</ele>
        <time>2021-08-20T15:35:37Z</time>
      </trkpt>
      <trkpt lat="45.91121" lon="5.76">
        <ele>1371.2</ele>
        <time>2021-08-20T15:35:38Z</time>
      </trkpt>
      <trkpt lat="45.91117" lon="5.75996">
        <ele>1371.5</ele>
        <time>2021-08-20T15:35:41Z</time>
      </trkpt>
      <trkpt lat="45.91115" lon="5.75994">
        <ele>1371.6</ele>
        <time>2021-08-20T15:35:42Z</time>
      </trkpt>
      <trkpt lat="45.91113" lon="5.75993">
        <ele>1371.8</ele>
        <time>2021-08-20T15:35:44Z</time>
      </trkpt>
      <trkpt lat="45.91112" lon="5.75991">
        <ele>1371.9</ele>
        <time>2021-08-20T15:35:45Z</time>
      </trkpt>
      <trkpt lat="45.91111" lon="5.7599">
        <ele>1372</ele>
        <time>2021-08-20T15:35:46Z</time>
      </trkpt>
      <trkpt lat="45.91109" lon="5.75988">
        <ele>1372.1</ele>
        <time>2021-08-20T15:35:47Z</time>
      </trkpt>
      <trkpt lat="45.91109" lon="5.75987">
        <ele>1372.1</ele>
        <time>2021-08-20T15:35:49Z</time>
      </trkpt>
      <trkpt lat="45.91108" lon="5.75986">
        <ele>1372.2</ele>
        <time>2021-08-20T15:35:50Z</time>
      </trkpt>
      <trkpt lat="45.91107" lon="5.75984">
        <ele>1372.3</ele>
        <time>2021-08-20T15:35:51Z</time>
      </trkpt>
      <trkpt lat="45.91107" lon="5.75981">
        <ele>1372.4</ele>
        <time>2021-08-20T15:35:53Z</time>
      </trkpt>
      <trkpt lat="45.91106" lon="5.75978">
        <ele>1372.6</ele>
        <time>2021-08-20T15:35:54Z</time>
      </trkpt>
      <trkpt lat="45.91106" lon="5.75976">
        <ele>1372.7</ele>
        <time>2021-08-20T15:35:55Z</time>
      </trkpt>
      <trkpt lat="45.91104" lon="5.75972">
        <ele>1372.9</ele>
        <time>2021-08-20T15:35:57Z</time>
      </trkpt>
      <trkpt lat="45.91103" lon="5.75971">
        <ele>1372.9</ele>
        <time>2021-08-20T15:35:58Z</time>
      </trkpt>
      <trkpt lat="45.911" lon="5.75969">
        <ele>1373.2</ele>
        <time>2021-08-20T15:36:00Z</time>
      </trkpt>
      <trkpt lat="45.91099" lon="5.75968">
        <ele>1373.3</ele>
        <time>2021-08-20T15:36:01Z</time>
      </trkpt>
      <trkpt lat="45.91097" lon="5.75967">
        <ele>1373.4</ele>
        <time>2021-08-20T15:36:02Z</time>
      </trkpt>
      <trkpt lat="45.91094" lon="5.75965">
        <ele>1373.7</ele>
        <time>2021-08-20T15:36:04Z</time>
      </trkpt>
      <trkpt lat="45.91093" lon="5.75964">
        <ele>1373.8</ele>
        <time>2021-08-20T15:36:05Z</time>
      </trkpt>
      <trkpt lat="45.91092" lon="5.75963">
        <ele>1373.9</ele>
        <time>2021-08-20T15:36:07Z</time>
      </trkpt>
      <trkpt lat="45.91091" lon="5.75962">
        <ele>1373.9</ele>
        <time>2021-08-20T15:36:08Z</time>
      </trkpt>
      <trkpt lat="45.91091" lon="5.75962">
        <ele>1374</ele>
        <time>2021-08-20T15:36:09Z</time>
      </trkpt>
      <trkpt lat="45.91091" lon="5.75962">
        <ele>1374</ele>
        <time>2021-08-20T15:36:10Z</time>
      </trkpt>
      <trkpt lat="45.9109" lon="5.75961">
        <ele>1374</ele>
        <time>2021-08-20T15:36:12Z</time>
      </trkpt>
      <trkpt lat="45.91091" lon="5.75961">
        <ele>1374</ele>
        <time>2021-08-20T15:36:13Z</time>
      </trkpt>
      <trkpt lat="45.91091" lon="5.75962">
        <ele>1374</ele>
        <time>2021-08-20T15:36:14Z</time>
      </trkpt>
      <trkpt lat="45.91091" lon="5.75962">
        <ele>1374</ele>
        <time>2021-08-20T15:36:15Z</time>
      </trkpt>
      <trkpt lat="45.9109" lon="5.75962">
        <ele>1374</ele>
        <time>2021-08-20T15:36:17Z</time>
      </trkpt>
      <trkpt lat="45.9109" lon="5.75962">
        <ele>1374.1</ele>
        <time>2021-08-20T15:36:18Z</time>
      </trkpt>
      <trkpt lat="45.9109" lon="5.75962">
        <ele>1374.1</ele>
        <time>2021-08-20T15:36:19Z</time>
      </trkpt>
      <trkpt lat="45.9109" lon="5.75962">
        <ele>1374.1</ele>
        <time>2021-08-20T15:36:20Z</time>
      </trkpt>
      <trkpt lat="45.9109" lon="5.75962">
        <ele>1374.1</ele>
        <time>2021-08-20T15:36:22Z</time>
      </trkpt>
      <trkpt lat="45.91047" lon="5.75898">
        <ele>1379.7</ele>
        <time>2021-08-20T15:38:47Z</time>
      </trkpt>
      <trkpt lat="45.91046" lon="5.75894">
        <ele>1380.1</ele>
        <time>2021-08-20T15:38:48Z</time>
      </trkpt>
      <trkpt lat="45.91045" lon="5.7589">
        <ele>1380.4</ele>
        <time>2021-08-20T15:38:49Z</time>
      </trkpt>
      <trkpt lat="45.91043" lon="5.75886">
        <ele>1380.8</ele>
        <time>2021-08-20T15:38:51Z</time>
      </trkpt>
      <trkpt lat="45.91042" lon="5.75883">
        <ele>1381.1</ele>
        <time>2021-08-20T15:38:52Z</time>
      </trkpt>
      <trkpt lat="45.91041" lon="5.7588">
        <ele>1381.5</ele>
        <time>2021-08-20T15:38:54Z</time>
      </trkpt>
      <trkpt lat="45.91039" lon="5.75877">
        <ele>1381.9</ele>
        <time>2021-08-20T15:38:55Z</time>
      </trkpt>
      <trkpt lat="45.91038" lon="5.75876">
        <ele>1382.4</ele>
        <time>2021-08-20T15:38:57Z</time>
      </trkpt>
      <trkpt lat="45.91037" lon="5.75875">
        <ele>1383.3</ele>
        <time>2021-08-20T15:38:58Z</time>
      </trkpt>
      <trkpt lat="45.91035" lon="5.75875">
        <ele>1385.1</ele>
        <time>2021-08-20T15:38:59Z</time>
      </trkpt>
      <trkpt lat="45.91034" lon="5.75874">
        <ele>1385.1</ele>
        <time>2021-08-20T15:39:00Z</time>
      </trkpt>
      <trkpt lat="45.91033" lon="5.75873">
        <ele>1385.1</ele>
        <time>2021-08-20T15:39:02Z</time>
      </trkpt>
      <trkpt lat="45.91031" lon="5.75872">
        <ele>1385.1</ele>
        <time>2021-08-20T15:39:03Z</time>
      </trkpt>
      <trkpt lat="45.9103" lon="5.75871">
        <ele>1385.1</ele>
        <time>2021-08-20T15:39:04Z</time>
      </trkpt>
      <trkpt lat="45.91029" lon="5.7587">
        <ele>1385.1</ele>
        <time>2021-08-20T15:39:06Z</time>
      </trkpt>
      <trkpt lat="45.91028" lon="5.7587">
        <ele>1385</ele>
        <time>2021-08-20T15:40:33Z</time>
      </trkpt>
      <trkpt lat="45.91026" lon="5.75869">
        <ele>1385</ele>
        <time>2021-08-20T15:40:34Z</time>
      </trkpt>
      <trkpt lat="45.91021" lon="5.75867">
        <ele>1384.9</ele>
        <time>2021-08-20T15:40:36Z</time>
      </trkpt>
      <trkpt lat="45.9102" lon="5.75867">
        <ele>1384.8</ele>
        <time>2021-08-20T15:40:37Z</time>
      </trkpt>
      <trkpt lat="45.91018" lon="5.75866">
        <ele>1384.8</ele>
        <time>2021-08-20T15:40:38Z</time>
      </trkpt>
      <trkpt lat="45.91015" lon="5.75865">
        <ele>1384.7</ele>
        <time>2021-08-20T15:40:39Z</time>
      </trkpt>
      <trkpt lat="45.91014" lon="5.75864">
        <ele>1384.7</ele>
        <time>2021-08-20T15:40:40Z</time>
      </trkpt>
      <trkpt lat="45.91011" lon="5.75862">
        <ele>1384.6</ele>
        <time>2021-08-20T15:40:42Z</time>
      </trkpt>
      <trkpt lat="45.91011" lon="5.75862">
        <ele>1384.6</ele>
        <time>2021-08-20T15:40:43Z</time>
      </trkpt>
      <trkpt lat="45.91008" lon="5.75859">
        <ele>1384.5</ele>
        <time>2021-08-20T15:40:44Z</time>
      </trkpt>
      <trkpt lat="45.91007" lon="5.75858">
        <ele>1384.5</ele>
        <time>2021-08-20T15:40:45Z</time>
      </trkpt>
      <trkpt lat="45.91005" lon="5.75857">
        <ele>1384.4</ele>
        <time>2021-08-20T15:40:47Z</time>
      </trkpt>
      <trkpt lat="45.91004" lon="5.75856">
        <ele>1384.4</ele>
        <time>2021-08-20T15:40:48Z</time>
      </trkpt>
      <trkpt lat="45.91004" lon="5.75856">
        <ele>1384.4</ele>
        <time>2021-08-20T15:40:49Z</time>
      </trkpt>
      <trkpt lat="45.91003" lon="5.75856">
        <ele>1384.4</ele>
        <time>2021-08-20T15:40:50Z</time>
      </trkpt>
      <trkpt lat="45.91002" lon="5.75856">
        <ele>1384.4</ele>
        <time>2021-08-20T15:40:51Z</time>
      </trkpt>
      <trkpt lat="45.91" lon="5.75856">
        <ele>1384.3</ele>
        <time>2021-08-20T15:40:53Z</time>
      </trkpt>
      <trkpt lat="45.90999" lon="5.75856">
        <ele>1384.3</ele>
        <time>2021-08-20T15:40:54Z</time>
      </trkpt>
      <trkpt lat="45.90999" lon="5.75855">
        <ele>1384.3</ele>
        <time>2021-08-20T15:40:55Z</time>
      </trkpt>
      <trkpt lat="45.90998" lon="5.75855">
        <ele>1384.3</ele>
        <time>2021-08-20T15:40:56Z</time>
      </trkpt>
      <trkpt lat="45.90998" lon="5.75855">
        <ele>1384.3</ele>
        <time>2021-08-20T15:40:57Z</time>
      </trkpt>
      <trkpt lat="45.90998" lon="5.75855">
        <ele>1384.3</ele>
        <time>2021-08-20T15:40:58Z</time>
      </trkpt>
      <trkpt lat="45.90997" lon="5.75854">
        <ele>1384.3</ele>
        <time>2021-08-20T15:40:59Z</time>
      </trkpt>
      <trkpt lat="45.90996" lon="5.75853">
        <ele>1384.3</ele>
        <time>2021-08-20T15:41:01Z</time>
      </trkpt>
      <trkpt lat="45.90994" lon="5.75852">
        <ele>1384.2</ele>
        <time>2021-08-20T15:41:02Z</time>
      </trkpt>
      <trkpt lat="45.90993" lon="5.7585">
        <ele>1384.2</ele>
        <time>2021-08-20T15:41:04Z</time>
      </trkpt>
      <trkpt lat="45.90992" lon="5.7585">
        <ele>1384.2</ele>
        <time>2021-08-20T15:41:05Z</time>
      </trkpt>
      <trkpt lat="45.9099" lon="5.75848">
        <ele>1384.2</ele>
        <time>2021-08-20T15:41:06Z</time>
      </trkpt>
      <trkpt lat="45.90987" lon="5.75847">
        <ele>1384.1</ele>
        <time>2021-08-20T15:41:07Z</time>
      </trkpt>
      <trkpt lat="45.90984" lon="5.75846">
        <ele>1384.1</ele>
        <time>2021-08-20T15:41:09Z</time>
      </trkpt>
      <trkpt lat="45.90983" lon="5.75846">
        <ele>1384.1</ele>
        <time>2021-08-20T15:41:10Z</time>
      </trkpt>
      <trkpt lat="45.9098" lon="5.75845">
        <ele>1384</ele>
        <time>2021-08-20T15:41:11Z</time>
      </trkpt>
      <trkpt lat="45.90979" lon="5.75845">
        <ele>1384</ele>
        <time>2021-08-20T15:41:12Z</time>
      </trkpt>
      <trkpt lat="45.90975" lon="5.75845">
        <ele>1384</ele>
        <time>2021-08-20T15:41:13Z</time>
      </trkpt>
      <trkpt lat="45.90972" lon="5.75847">
        <ele>1384</ele>
        <time>2021-08-20T15:41:15Z</time>
      </trkpt>
      <trkpt lat="45.90971" lon="5.75848">
        <ele>1383.9</ele>
        <time>2021-08-20T15:41:16Z</time>
      </trkpt>
      <trkpt lat="45.9097" lon="5.75849">
        <ele>1383.9</ele>
        <time>2021-08-20T15:41:17Z</time>
      </trkpt>
      <trkpt lat="45.90969" lon="5.7585">
        <ele>1383.9</ele>
        <time>2021-08-20T15:41:19Z</time>
      </trkpt>
      <trkpt lat="45.90968" lon="5.75851">
        <ele>1383.9</ele>
        <time>2021-08-20T15:41:20Z</time>
      </trkpt>
      <trkpt lat="45.90967" lon="5.75852">
        <ele>1383.9</ele>
        <time>2021-08-20T15:41:21Z</time>
      </trkpt>
      <trkpt lat="45.90965" lon="5.75853">
        <ele>1383.9</ele>
        <time>2021-08-20T15:41:22Z</time>
      </trkpt>
      <trkpt lat="45.90964" lon="5.75854">
        <ele>1383.8</ele>
        <time>2021-08-20T15:41:24Z</time>
      </trkpt>
      <trkpt lat="45.90963" lon="5.75855">
        <ele>1383.8</ele>
        <time>2021-08-20T15:41:30Z</time>
      </trkpt>
      <trkpt lat="45.90962" lon="5.75855">
        <ele>1383.8</ele>
        <time>2021-08-20T15:41:32Z</time>
      </trkpt>
      <trkpt lat="45.90961" lon="5.75856">
        <ele>1383.8</ele>
        <time>2021-08-20T15:41:33Z</time>
      </trkpt>
      <trkpt lat="45.90957" lon="5.75855">
        <ele>1383.8</ele>
        <time>2021-08-20T15:41:35Z</time>
      </trkpt>
      <trkpt lat="45.90956" lon="5.75855">
        <ele>1383.8</ele>
        <time>2021-08-20T15:41:36Z</time>
      </trkpt>
      <trkpt lat="45.90955" lon="5.75855">
        <ele>1383.7</ele>
        <time>2021-08-20T15:41:37Z</time>
      </trkpt>
      <trkpt lat="45.90952" lon="5.75853">
        <ele>1383.7</ele>
        <time>2021-08-20T15:41:39Z</time>
      </trkpt>
      <trkpt lat="45.90951" lon="5.75851">
        <ele>1383.7</ele>
        <time>2021-08-20T15:41:40Z</time>
      </trkpt>
      <trkpt lat="45.9095" lon="5.7585">
        <ele>1383.6</ele>
        <time>2021-08-20T15:41:41Z</time>
      </trkpt>
      <trkpt lat="45.90949" lon="5.75847">
        <ele>1383.6</ele>
        <time>2021-08-20T15:41:42Z</time>
      </trkpt>
      <trkpt lat="45.90948" lon="5.75845">
        <ele>1383.6</ele>
        <time>2021-08-20T15:41:44Z</time>
      </trkpt>
      <trkpt lat="45.90947" lon="5.75843">
        <ele>1383.5</ele>
        <time>2021-08-20T15:41:45Z</time>
      </trkpt>
      <trkpt lat="45.90947" lon="5.75842">
        <ele>1383.5</ele>
        <time>2021-08-20T15:41:46Z</time>
      </trkpt>
      <trkpt lat="45.90947" lon="5.75841">
        <ele>1383.5</ele>
        <time>2021-08-20T15:41:47Z</time>
      </trkpt>
      <trkpt lat="45.90946" lon="5.7584">
        <ele>1383.5</ele>
        <time>2021-08-20T15:41:49Z</time>
      </trkpt>
      <trkpt lat="45.90946" lon="5.75839">
        <ele>1383.4</ele>
        <time>2021-08-20T15:41:50Z</time>
      </trkpt>
      <trkpt lat="45.90946" lon="5.75838">
        <ele>1383.4</ele>
        <time>2021-08-20T15:41:51Z</time>
      </trkpt>
      <trkpt lat="45.90945" lon="5.75837">
        <ele>1383.4</ele>
        <time>2021-08-20T15:41:52Z</time>
      </trkpt>
      <trkpt lat="45.90945" lon="5.75836">
        <ele>1383.4</ele>
        <time>2021-08-20T15:41:54Z</time>
      </trkpt>
      <trkpt lat="45.90945" lon="5.75835">
        <ele>1383.4</ele>
        <time>2021-08-20T15:41:55Z</time>
      </trkpt>
      <trkpt lat="45.90944" lon="5.75833">
        <ele>1383.3</ele>
        <time>2021-08-20T15:41:56Z</time>
      </trkpt>
      <trkpt lat="45.90944" lon="5.75832">
        <ele>1383.3</ele>
        <time>2021-08-20T15:41:57Z</time>
      </trkpt>
      <trkpt lat="45.90944" lon="5.75829">
        <ele>1383.2</ele>
        <time>2021-08-20T15:41:59Z</time>
      </trkpt>
      <trkpt lat="45.90945" lon="5.75827">
        <ele>1383.1</ele>
        <time>2021-08-20T15:42:00Z</time>
      </trkpt>
      <trkpt lat="45.90945" lon="5.75825">
        <ele>1383</ele>
        <time>2021-08-20T15:42:02Z</time>
      </trkpt>
      <trkpt lat="45.90944" lon="5.75823">
        <ele>1382.8</ele>
        <time>2021-08-20T15:42:04Z</time>
      </trkpt>
      <trkpt lat="45.90943" lon="5.75823">
        <ele>1382.8</ele>
        <time>2021-08-20T15:42:05Z</time>
      </trkpt>
      <trkpt lat="45.90939" lon="5.75823">
        <ele>1382.5</ele>
        <time>2021-08-20T15:42:06Z</time>
      </trkpt>
      <trkpt lat="45.90938" lon="5.75822">
        <ele>1382.4</ele>
        <time>2021-08-20T15:42:08Z</time>
      </trkpt>
      <trkpt lat="45.90936" lon="5.75821">
        <ele>1382.2</ele>
        <time>2021-08-20T15:42:10Z</time>
      </trkpt>
      <trkpt lat="45.90934" lon="5.7582">
        <ele>1382.1</ele>
        <time>2021-08-20T15:42:11Z</time>
      </trkpt>
      <trkpt lat="45.90932" lon="5.75819">
        <ele>1381.9</ele>
        <time>2021-08-20T15:42:12Z</time>
      </trkpt>
      <trkpt lat="45.90931" lon="5.75819">
        <ele>1381.8</ele>
        <time>2021-08-20T15:42:13Z</time>
      </trkpt>
      <trkpt lat="45.90929" lon="5.75818">
        <ele>1381.6</ele>
        <time>2021-08-20T15:42:15Z</time>
      </trkpt>
      <trkpt lat="45.90927" lon="5.75817">
        <ele>1381.5</ele>
        <time>2021-08-20T15:42:16Z</time>
      </trkpt>
      <trkpt lat="45.90926" lon="5.75816">
        <ele>1381.3</ele>
        <time>2021-08-20T15:42:56Z</time>
      </trkpt>
      <trkpt lat="45.90924" lon="5.75815">
        <ele>1381.2</ele>
        <time>2021-08-20T15:42:57Z</time>
      </trkpt>
      <trkpt lat="45.90919" lon="5.7581">
        <ele>1380.6</ele>
        <time>2021-08-20T15:42:59Z</time>
      </trkpt>
      <trkpt lat="45.90915" lon="5.75807">
        <ele>1380.3</ele>
        <time>2021-08-20T15:43:00Z</time>
      </trkpt>
      <trkpt lat="45.90908" lon="5.75803">
        <ele>1379.7</ele>
        <time>2021-08-20T15:43:01Z</time>
      </trkpt>
      <trkpt lat="45.90903" lon="5.758">
        <ele>1379.2</ele>
        <time>2021-08-20T15:43:03Z</time>
      </trkpt>
      <trkpt lat="45.90896" lon="5.75795">
        <ele>1378.5</ele>
        <time>2021-08-20T15:43:05Z</time>
      </trkpt>
      <trkpt lat="45.90891" lon="5.75792">
        <ele>1378.1</ele>
        <time>2021-08-20T15:43:06Z</time>
      </trkpt>
      <trkpt lat="45.90885" lon="5.75787">
        <ele>1377.5</ele>
        <time>2021-08-20T15:43:08Z</time>
      </trkpt>
      <trkpt lat="45.90879" lon="5.75784">
        <ele>1377</ele>
        <time>2021-08-20T15:43:09Z</time>
      </trkpt>
      <trkpt lat="45.9087" lon="5.75782">
        <ele>1376.2</ele>
        <time>2021-08-20T15:43:11Z</time>
      </trkpt>
      <trkpt lat="45.90863" lon="5.75777">
        <ele>1375.5</ele>
        <time>2021-08-20T15:43:13Z</time>
      </trkpt>
      <trkpt lat="45.90854" lon="5.75774">
        <ele>1374.8</ele>
        <time>2021-08-20T15:43:15Z</time>
      </trkpt>
      <trkpt lat="45.9085" lon="5.75773">
        <ele>1374.4</ele>
        <time>2021-08-20T15:43:16Z</time>
      </trkpt>
      <trkpt lat="45.9084" lon="5.7577">
        <ele>1373.6</ele>
        <time>2021-08-20T15:43:18Z</time>
      </trkpt>
      <trkpt lat="45.90836" lon="5.75768">
        <ele>1373.2</ele>
        <time>2021-08-20T15:43:19Z</time>
      </trkpt>
      <trkpt lat="45.90833" lon="5.75766">
        <ele>1372.9</ele>
        <time>2021-08-20T15:43:20Z</time>
      </trkpt>
      <trkpt lat="45.90826" lon="5.75761">
        <ele>1372.2</ele>
        <time>2021-08-20T15:43:22Z</time>
      </trkpt>
      <trkpt lat="45.90817" lon="5.75755">
        <ele>1371.4</ele>
        <time>2021-08-20T15:43:24Z</time>
      </trkpt>
      <trkpt lat="45.90809" lon="5.75753">
        <ele>1370.8</ele>
        <time>2021-08-20T15:43:26Z</time>
      </trkpt>
      <trkpt lat="45.90805" lon="5.75754">
        <ele>1370.5</ele>
        <time>2021-08-20T15:43:27Z</time>
      </trkpt>
      <trkpt lat="45.90805" lon="5.75758">
        <ele>1370.3</ele>
        <time>2021-08-20T15:43:29Z</time>
      </trkpt>
      <trkpt lat="45.90805" lon="5.75762">
        <ele>1370.3</ele>
        <time>2021-08-20T15:43:30Z</time>
      </trkpt>
      <trkpt lat="45.90805" lon="5.75766">
        <ele>1370.6</ele>
        <time>2021-08-20T15:43:32Z</time>
      </trkpt>
      <trkpt lat="45.90805" lon="5.75767">
        <ele>1370.7</ele>
        <time>2021-08-20T15:43:33Z</time>
      </trkpt>
      <trkpt lat="45.90811" lon="5.75774">
        <ele>1371.4</ele>
        <time>2021-08-20T15:43:34Z</time>
      </trkpt>
      <trkpt lat="45.90818" lon="5.75781">
        <ele>1372.2</ele>
        <time>2021-08-20T15:43:36Z</time>
      </trkpt>
      <trkpt lat="45.90823" lon="5.75785">
        <ele>1372.7</ele>
        <time>2021-08-20T15:43:38Z</time>
      </trkpt>
      <trkpt lat="45.90828" lon="5.75788">
        <ele>1373.2</ele>
        <time>2021-08-20T15:43:39Z</time>
      </trkpt>
      <trkpt lat="45.90833" lon="5.75792">
        <ele>1373.8</ele>
        <time>2021-08-20T15:43:41Z</time>
      </trkpt>
      <trkpt lat="45.90838" lon="5.75797">
        <ele>1374.4</ele>
        <time>2021-08-20T15:43:42Z</time>
      </trkpt>
      <trkpt lat="45.90842" lon="5.758">
        <ele>1374.8</ele>
        <time>2021-08-20T15:43:44Z</time>
      </trkpt>
      <trkpt lat="45.90845" lon="5.75803">
        <ele>1375.2</ele>
        <time>2021-08-20T15:43:45Z</time>
      </trkpt>
      <trkpt lat="45.90847" lon="5.75805">
        <ele>1375.4</ele>
        <time>2021-08-20T15:43:46Z</time>
      </trkpt>
      <trkpt lat="45.90849" lon="5.7581">
        <ele>1375.7</ele>
        <time>2021-08-20T15:43:48Z</time>
      </trkpt>
      <trkpt lat="45.9085" lon="5.75811">
        <ele>1375.9</ele>
        <time>2021-08-20T15:43:49Z</time>
      </trkpt>
      <trkpt lat="45.90852" lon="5.75814">
        <ele>1376.2</ele>
        <time>2021-08-20T15:43:50Z</time>
      </trkpt>
      <trkpt lat="45.90853" lon="5.75815">
        <ele>1376.3</ele>
        <time>2021-08-20T15:43:51Z</time>
      </trkpt>
      <trkpt lat="45.90854" lon="5.75817">
        <ele>1376.5</ele>
        <time>2021-08-20T15:43:53Z</time>
      </trkpt>
      <trkpt lat="45.90855" lon="5.75817">
        <ele>1376.5</ele>
        <time>2021-08-20T15:43:54Z</time>
      </trkpt>
      <trkpt lat="45.90855" lon="5.75817">
        <ele>1376.6</ele>
        <time>2021-08-20T15:43:55Z</time>
      </trkpt>
      <trkpt lat="45.90857" lon="5.7582">
        <ele>1376.8</ele>
        <time>2021-08-20T15:43:57Z</time>
      </trkpt>
      <trkpt lat="45.90858" lon="5.75821">
        <ele>1376.9</ele>
        <time>2021-08-20T15:43:58Z</time>
      </trkpt>
      <trkpt lat="45.90859" lon="5.75822">
        <ele>1377</ele>
        <time>2021-08-20T15:43:59Z</time>
      </trkpt>
      <trkpt lat="45.90859" lon="5.75822">
        <ele>1377.1</ele>
        <time>2021-08-20T15:44:00Z</time>
      </trkpt>
      <trkpt lat="45.90859" lon="5.75823">
        <ele>1377.1</ele>
        <time>2021-08-20T15:44:01Z</time>
      </trkpt>
      <trkpt lat="45.90859" lon="5.75823">
        <ele>1377.1</ele>
        <time>2021-08-20T15:44:02Z</time>
      </trkpt>
      <trkpt lat="45.9086" lon="5.75823">
        <ele>1377.2</ele>
        <time>2021-08-20T15:44:03Z</time>
      </trkpt>
      <trkpt lat="45.9086" lon="5.75824">
        <ele>1377.2</ele>
        <time>2021-08-20T15:44:04Z</time>
      </trkpt>
      <trkpt lat="45.9086" lon="5.75824">
        <ele>1377.2</ele>
        <time>2021-08-20T15:44:06Z</time>
      </trkpt>
      <trkpt lat="45.9086" lon="5.75825">
        <ele>1377.3</ele>
        <time>2021-08-20T15:44:07Z</time>
      </trkpt>
      <trkpt lat="45.90861" lon="5.75826">
        <ele>1377.4</ele>
        <time>2021-08-20T15:44:09Z</time>
      </trkpt>
      <trkpt lat="45.90866" lon="5.75836">
        <ele>1378.3</ele>
        <time>2021-08-20T15:44:14Z</time>
      </trkpt>
      <trkpt lat="45.90869" lon="5.7584">
        <ele>1378.6</ele>
        <time>2021-08-20T15:44:15Z</time>
      </trkpt>
      <trkpt lat="45.90869" lon="5.75843">
        <ele>1378.9</ele>
        <time>2021-08-20T15:44:16Z</time>
      </trkpt>
      <trkpt lat="45.90871" lon="5.75848">
        <ele>1379.3</ele>
        <time>2021-08-20T15:44:18Z</time>
      </trkpt>
      <trkpt lat="45.90873" lon="5.75853">
        <ele>1379.7</ele>
        <time>2021-08-20T15:44:20Z</time>
      </trkpt>
      <trkpt lat="45.90876" lon="5.75858">
        <ele>1380.2</ele>
        <time>2021-08-20T15:44:21Z</time>
      </trkpt>
      <trkpt lat="45.90877" lon="5.75859">
        <ele>1380.4</ele>
        <time>2021-08-20T15:44:22Z</time>
      </trkpt>
      <trkpt lat="45.90879" lon="5.75863">
        <ele>1380.7</ele>
        <time>2021-08-20T15:44:24Z</time>
      </trkpt>
      <trkpt lat="45.9088" lon="5.75865">
        <ele>1380.9</ele>
        <time>2021-08-20T15:44:25Z</time>
      </trkpt>
      <trkpt lat="45.90882" lon="5.75866">
        <ele>1381.1</ele>
        <time>2021-08-20T15:44:26Z</time>
      </trkpt>
      <trkpt lat="45.90883" lon="5.75867">
        <ele>1381.3</ele>
        <time>2021-08-20T15:44:27Z</time>
      </trkpt>
      <trkpt lat="45.90883" lon="5.75868">
        <ele>1381.4</ele>
        <time>2021-08-20T15:44:28Z</time>
      </trkpt>
      <trkpt lat="45.90884" lon="5.7587">
        <ele>1381.5</ele>
        <time>2021-08-20T15:44:29Z</time>
      </trkpt>
      <trkpt lat="45.90884" lon="5.75871">
        <ele>1381.6</ele>
        <time>2021-08-20T15:44:30Z</time>
      </trkpt>
      <trkpt lat="45.90884" lon="5.75872">
        <ele>1381.7</ele>
        <time>2021-08-20T15:44:31Z</time>
      </trkpt>
      <trkpt lat="45.90884" lon="5.75872">
        <ele>1381.7</ele>
        <time>2021-08-20T15:44:32Z</time>
      </trkpt>
      <trkpt lat="45.90884" lon="5.75873">
        <ele>1381.8</ele>
        <time>2021-08-20T15:44:34Z</time>
      </trkpt>
      <trkpt lat="45.90884" lon="5.75873">
        <ele>1381.8</ele>
        <time>2021-08-20T15:44:35Z</time>
      </trkpt>
      <trkpt lat="45.90885" lon="5.75873">
        <ele>1381.8</ele>
        <time>2021-08-20T15:44:36Z</time>
      </trkpt>
      <trkpt lat="45.90885" lon="5.75874">
        <ele>1381.9</ele>
        <time>2021-08-20T15:44:38Z</time>
      </trkpt>
      <trkpt lat="45.90886" lon="5.75875">
        <ele>1382</ele>
        <time>2021-08-20T15:44:40Z</time>
      </trkpt>
      <trkpt lat="45.90893" lon="5.75891">
        <ele>1383.5</ele>
        <time>2021-08-20T15:44:51Z</time>
      </trkpt>
      <trkpt lat="45.90894" lon="5.75893">
        <ele>1383.7</ele>
        <time>2021-08-20T15:44:52Z</time>
      </trkpt>
      <trkpt lat="45.90895" lon="5.75894">
        <ele>1383.9</ele>
        <time>2021-08-20T15:44:53Z</time>
      </trkpt>
      <trkpt lat="45.90894" lon="5.75895">
        <ele>1383.9</ele>
        <time>2021-08-20T15:44:54Z</time>
      </trkpt>
      <trkpt lat="45.90894" lon="5.75897">
        <ele>1384.1</ele>
        <time>2021-08-20T15:44:55Z</time>
      </trkpt>
      <trkpt lat="45.90895" lon="5.75899">
        <ele>1384.3</ele>
        <time>2021-08-20T15:44:56Z</time>
      </trkpt>
      <trkpt lat="45.90896" lon="5.75903">
        <ele>1384.6</ele>
        <time>2021-08-20T15:44:58Z</time>
      </trkpt>
      <trkpt lat="45.90896" lon="5.75904">
        <ele>1384.7</ele>
        <time>2021-08-20T15:44:59Z</time>
      </trkpt>
      <trkpt lat="45.90897" lon="5.75907">
        <ele>1385</ele>
        <time>2021-08-20T15:45:00Z</time>
      </trkpt>
      <trkpt lat="45.90898" lon="5.75908">
        <ele>1385.1</ele>
        <time>2021-08-20T15:45:01Z</time>
      </trkpt>
      <trkpt lat="45.90899" lon="5.75908">
        <ele>1385.2</ele>
        <time>2021-08-20T15:45:02Z</time>
      </trkpt>
      <trkpt lat="45.90899" lon="5.75908">
        <ele>1385.2</ele>
        <time>2021-08-20T15:45:04Z</time>
      </trkpt>
      <trkpt lat="45.909" lon="5.75909">
        <ele>1385.4</ele>
        <time>2021-08-20T15:45:05Z</time>
      </trkpt>
      <trkpt lat="45.909" lon="5.75911">
        <ele>1385.5</ele>
        <time>2021-08-20T15:45:06Z</time>
      </trkpt>
      <trkpt lat="45.90901" lon="5.75912">
        <ele>1385.7</ele>
        <time>2021-08-20T15:45:07Z</time>
      </trkpt>
      <trkpt lat="45.90901" lon="5.75913">
        <ele>1385.7</ele>
        <time>2021-08-20T15:45:08Z</time>
      </trkpt>
      <trkpt lat="45.90902" lon="5.75912">
        <ele>1385.8</ele>
        <time>2021-08-20T15:45:09Z</time>
      </trkpt>
      <trkpt lat="45.90902" lon="5.75911">
        <ele>1385.9</ele>
        <time>2021-08-20T15:45:10Z</time>
      </trkpt>
      <trkpt lat="45.90902" lon="5.75911">
        <ele>1386</ele>
        <time>2021-08-20T15:45:12Z</time>
      </trkpt>
      <trkpt lat="45.90903" lon="5.75911">
        <ele>1386</ele>
        <time>2021-08-20T15:45:13Z</time>
      </trkpt>
      <trkpt lat="45.90903" lon="5.75911">
        <ele>1386.1</ele>
        <time>2021-08-20T15:45:14Z</time>
      </trkpt>
      <trkpt lat="45.90904" lon="5.75913">
        <ele>1386.2</ele>
        <time>2021-08-20T15:45:16Z</time>
      </trkpt>
      <trkpt lat="45.90904" lon="5.75914">
        <ele>1386.3</ele>
        <time>2021-08-20T15:45:17Z</time>
      </trkpt>
      <trkpt lat="45.90932" lon="5.75957">
        <ele>1391.6</ele>
        <time>2021-08-20T15:45:50Z</time>
      </trkpt>
      <trkpt lat="45.90935" lon="5.7596">
        <ele>1391.9</ele>
        <time>2021-08-20T15:45:51Z</time>
      </trkpt>
      <trkpt lat="45.90937" lon="5.75963">
        <ele>1392.4</ele>
        <time>2021-08-20T15:45:53Z</time>
      </trkpt>
      <trkpt lat="45.90938" lon="5.75964">
        <ele>1392.5</ele>
        <time>2021-08-20T15:45:54Z</time>
      </trkpt>
      <trkpt lat="45.9094" lon="5.75966">
        <ele>1392.9</ele>
        <time>2021-08-20T15:45:56Z</time>
      </trkpt>
      <trkpt lat="45.90944" lon="5.75969">
        <ele>1393.4</ele>
        <time>2021-08-20T15:45:58Z</time>
      </trkpt>
      <trkpt lat="45.90946" lon="5.75972">
        <ele>1393.8</ele>
        <time>2021-08-20T15:45:59Z</time>
      </trkpt>
      <trkpt lat="45.90947" lon="5.75973">
        <ele>1393.9</ele>
        <time>2021-08-20T15:46:00Z</time>
      </trkpt>
      <trkpt lat="45.90949" lon="5.75977">
        <ele>1394.4</ele>
        <time>2021-08-20T15:46:02Z</time>
      </trkpt>
      <trkpt lat="45.90949" lon="5.75978">
        <ele>1394.5</ele>
        <time>2021-08-20T15:46:03Z</time>
      </trkpt>
      <trkpt lat="45.90951" lon="5.7598">
        <ele>1394.8</ele>
        <time>2021-08-20T15:46:04Z</time>
      </trkpt>
      <trkpt lat="45.90952" lon="5.75981">
        <ele>1395</ele>
        <time>2021-08-20T15:46:06Z</time>
      </trkpt>
      <trkpt lat="45.90953" lon="5.75982">
        <ele>1395.2</ele>
        <time>2021-08-20T15:46:07Z</time>
      </trkpt>
      <trkpt lat="45.90955" lon="5.75983">
        <ele>1395.4</ele>
        <time>2021-08-20T15:46:08Z</time>
      </trkpt>
      <trkpt lat="45.90957" lon="5.75984">
        <ele>1395.7</ele>
        <time>2021-08-20T15:46:10Z</time>
      </trkpt>
      <trkpt lat="45.90958" lon="5.75984">
        <ele>1395.9</ele>
        <time>2021-08-20T15:46:11Z</time>
      </trkpt>
      <trkpt lat="45.90958" lon="5.75984">
        <ele>1395.9</ele>
        <time>2021-08-20T15:46:12Z</time>
      </trkpt>
      <trkpt lat="45.90958" lon="5.75984">
        <ele>1396</ele>
        <time>2021-08-20T15:46:14Z</time>
      </trkpt>
      <trkpt lat="45.90959" lon="5.75984">
        <ele>1396</ele>
        <time>2021-08-20T15:46:16Z</time>
      </trkpt>
      <trkpt lat="45.9096" lon="5.75986">
        <ele>1396.2</ele>
        <time>2021-08-20T15:46:18Z</time>
      </trkpt>
      <trkpt lat="45.9096" lon="5.75987">
        <ele>1396.4</ele>
        <time>2021-08-20T15:46:19Z</time>
      </trkpt>
      <trkpt lat="45.90961" lon="5.75988">
        <ele>1396.5</ele>
        <time>2021-08-20T15:46:20Z</time>
      </trkpt>
      <trkpt lat="45.90962" lon="5.75989">
        <ele>1396.7</ele>
        <time>2021-08-20T15:46:21Z</time>
      </trkpt>
      <trkpt lat="45.90966" lon="5.75992">
        <ele>1397.4</ele>
        <time>2021-08-20T15:46:25Z</time>
      </trkpt>
      <trkpt lat="45.9097" lon="5.75993">
        <ele>1397.9</ele>
        <time>2021-08-20T15:46:27Z</time>
      </trkpt>
      <trkpt lat="45.90973" lon="5.75995">
        <ele>1398.4</ele>
        <time>2021-08-20T15:46:28Z</time>
      </trkpt>
      <trkpt lat="45.90974" lon="5.75996">
        <ele>1398.7</ele>
        <time>2021-08-20T15:46:29Z</time>
      </trkpt>
      <trkpt lat="45.90976" lon="5.75997">
        <ele>1399</ele>
        <time>2021-08-20T15:46:30Z</time>
      </trkpt>
      <trkpt lat="45.90977" lon="5.75998">
        <ele>1399.3</ele>
        <time>2021-08-20T15:46:31Z</time>
      </trkpt>
      <trkpt lat="45.90979" lon="5.76">
        <ele>1399.7</ele>
        <time>2021-08-20T15:46:33Z</time>
      </trkpt>
      <trkpt lat="45.90979" lon="5.76001">
        <ele>1399.8</ele>
        <time>2021-08-20T15:46:34Z</time>
      </trkpt>
      <trkpt lat="45.90979" lon="5.76001">
        <ele>1399.8</ele>
        <time>2021-08-20T15:46:35Z</time>
      </trkpt>
      <trkpt lat="45.90979" lon="5.76001">
        <ele>1399.8</ele>
        <time>2021-08-20T15:46:37Z</time>
      </trkpt>
      <trkpt lat="45.90979" lon="5.76001">
        <ele>1399.9</ele>
        <time>2021-08-20T15:46:39Z</time>
      </trkpt>
      <trkpt lat="45.9098" lon="5.76001">
        <ele>1399.9</ele>
        <time>2021-08-20T15:46:40Z</time>
      </trkpt>
      <trkpt lat="45.9098" lon="5.76001">
        <ele>1399.9</ele>
        <time>2021-08-20T15:46:41Z</time>
      </trkpt>
      <trkpt lat="45.9098" lon="5.76001">
        <ele>1400</ele>
        <time>2021-08-20T15:46:42Z</time>
      </trkpt>
      <trkpt lat="45.9098" lon="5.76001">
        <ele>1400</ele>
        <time>2021-08-20T15:46:43Z</time>
      </trkpt>
      <trkpt lat="45.90958" lon="5.76023">
        <ele>1403.8</ele>
        <time>2021-08-20T15:48:36Z</time>
      </trkpt>
      <trkpt lat="45.90957" lon="5.76022">
        <ele>1403.9</ele>
        <time>2021-08-20T15:48:37Z</time>
      </trkpt>
      <trkpt lat="45.90954" lon="5.7602">
        <ele>1404.2</ele>
        <time>2021-08-20T15:48:39Z</time>
      </trkpt>
      <trkpt lat="45.90951" lon="5.76018">
        <ele>1404.5</ele>
        <time>2021-08-20T15:48:41Z</time>
      </trkpt>
      <trkpt lat="45.90948" lon="5.76016">
        <ele>1404.7</ele>
        <time>2021-08-20T15:48:42Z</time>
      </trkpt>
      <trkpt lat="45.90945" lon="5.76014">
        <ele>1405</ele>
        <time>2021-08-20T15:48:44Z</time>
      </trkpt>
      <trkpt lat="45.90944" lon="5.76013">
        <ele>1405.1</ele>
        <time>2021-08-20T15:48:45Z</time>
      </trkpt>
      <trkpt lat="45.90942" lon="5.76012">
        <ele>1405.3</ele>
        <time>2021-08-20T15:48:47Z</time>
      </trkpt>
      <trkpt lat="45.90939" lon="5.76009">
        <ele>1405.5</ele>
        <time>2021-08-20T15:48:48Z</time>
      </trkpt>
      <trkpt lat="45.90939" lon="5.76008">
        <ele>1405.6</ele>
        <time>2021-08-20T15:48:49Z</time>
      </trkpt>
      <trkpt lat="45.90937" lon="5.76005">
        <ele>1405.8</ele>
        <time>2021-08-20T15:48:50Z</time>
      </trkpt>
      <trkpt lat="45.90936" lon="5.76003">
        <ele>1406</ele>
        <time>2021-08-20T15:48:52Z</time>
      </trkpt>
      <trkpt lat="45.90935" lon="5.76001">
        <ele>1406.1</ele>
        <time>2021-08-20T15:48:53Z</time>
      </trkpt>
      <trkpt lat="45.90934" lon="5.75999">
        <ele>1406.2</ele>
        <time>2021-08-20T15:48:54Z</time>
      </trkpt>
      <trkpt lat="45.90932" lon="5.75997">
        <ele>1406.4</ele>
        <time>2021-08-20T15:48:56Z</time>
      </trkpt>
      <trkpt lat="45.90932" lon="5.75996">
        <ele>1406.4</ele>
        <time>2021-08-20T15:48:57Z</time>
      </trkpt>
      <trkpt lat="45.90931" lon="5.75995">
        <ele>1406.5</ele>
        <time>2021-08-20T15:48:58Z</time>
      </trkpt>
      <trkpt lat="45.90931" lon="5.75995">
        <ele>1406.6</ele>
        <time>2021-08-20T15:48:59Z</time>
      </trkpt>
      <trkpt lat="45.9093" lon="5.75995">
        <ele>1406.6</ele>
        <time>2021-08-20T15:49:00Z</time>
      </trkpt>
      <trkpt lat="45.90929" lon="5.75995">
        <ele>1406.7</ele>
        <time>2021-08-20T15:49:01Z</time>
      </trkpt>
      <trkpt lat="45.90928" lon="5.75995">
        <ele>1406.8</ele>
        <time>2021-08-20T15:49:02Z</time>
      </trkpt>
      <trkpt lat="45.90926" lon="5.75995">
        <ele>1406.9</ele>
        <time>2021-08-20T15:49:04Z</time>
      </trkpt>
      <trkpt lat="45.90925" lon="5.75995">
        <ele>1407</ele>
        <time>2021-08-20T15:49:05Z</time>
      </trkpt>
      <trkpt lat="45.90923" lon="5.75995">
        <ele>1407.2</ele>
        <time>2021-08-20T15:49:06Z</time>
      </trkpt>
      <trkpt lat="45.90922" lon="5.75995">
        <ele>1407.3</ele>
        <time>2021-08-20T15:49:07Z</time>
      </trkpt>
      <trkpt lat="45.9092" lon="5.75994">
        <ele>1407.4</ele>
        <time>2021-08-20T15:49:08Z</time>
      </trkpt>
      <trkpt lat="45.90919" lon="5.75993">
        <ele>1407.6</ele>
        <time>2021-08-20T15:49:09Z</time>
      </trkpt>
      <trkpt lat="45.90917" lon="5.75993">
        <ele>1407.7</ele>
        <time>2021-08-20T15:49:10Z</time>
      </trkpt>
      <trkpt lat="45.90916" lon="5.75991">
        <ele>1407.9</ele>
        <time>2021-08-20T15:49:12Z</time>
      </trkpt>
      <trkpt lat="45.90916" lon="5.75993">
        <ele>1408</ele>
        <time>2021-08-20T15:49:14Z</time>
      </trkpt>
      <trkpt lat="45.90916" lon="5.75995">
        <ele>1408.2</ele>
        <time>2021-08-20T15:49:16Z</time>
      </trkpt>
      <trkpt lat="45.90915" lon="5.75996">
        <ele>1408.3</ele>
        <time>2021-08-20T15:49:17Z</time>
      </trkpt>
      <trkpt lat="45.90914" lon="5.75998">
        <ele>1408.4</ele>
        <time>2021-08-20T15:49:19Z</time>
      </trkpt>
      <trkpt lat="45.90913" lon="5.76">
        <ele>1408.6</ele>
        <time>2021-08-20T15:49:20Z</time>
      </trkpt>
      <trkpt lat="45.90912" lon="5.76002">
        <ele>1408.7</ele>
        <time>2021-08-20T15:49:55Z</time>
      </trkpt>
      <trkpt lat="45.90911" lon="5.76003">
        <ele>1408.8</ele>
        <time>2021-08-20T15:49:56Z</time>
      </trkpt>
      <trkpt lat="45.90907" lon="5.76003">
        <ele>1409.2</ele>
        <time>2021-08-20T15:49:58Z</time>
      </trkpt>
      <trkpt lat="45.90906" lon="5.76003">
        <ele>1409.3</ele>
        <time>2021-08-20T15:49:59Z</time>
      </trkpt>
      <trkpt lat="45.90903" lon="5.76002">
        <ele>1409.6</ele>
        <time>2021-08-20T15:50:01Z</time>
      </trkpt>
      <trkpt lat="45.90902" lon="5.76002">
        <ele>1409.6</ele>
        <time>2021-08-20T15:50:02Z</time>
      </trkpt>
      <trkpt lat="45.909" lon="5.76001">
        <ele>1409.8</ele>
        <time>2021-08-20T15:50:03Z</time>
      </trkpt>
      <trkpt lat="45.909" lon="5.76">
        <ele>1409.9</ele>
        <time>2021-08-20T15:50:04Z</time>
      </trkpt>
      <trkpt lat="45.90899" lon="5.76">
        <ele>1409.9</ele>
        <time>2021-08-20T15:50:06Z</time>
      </trkpt>
      <trkpt lat="45.90899" lon="5.76">
        <ele>1409.9</ele>
        <time>2021-08-20T15:50:07Z</time>
      </trkpt>
      <trkpt lat="45.90898" lon="5.76">
        <ele>1410</ele>
        <time>2021-08-20T15:50:08Z</time>
      </trkpt>
      <trkpt lat="45.90898" lon="5.76">
        <ele>1410.1</ele>
        <time>2021-08-20T15:50:10Z</time>
      </trkpt>
      <trkpt lat="45.90897" lon="5.76">
        <ele>1410.1</ele>
        <time>2021-08-20T15:50:11Z</time>
      </trkpt>
      <trkpt lat="45.90895" lon="5.76">
        <ele>1410.2</ele>
        <time>2021-08-20T15:50:13Z</time>
      </trkpt>
      <trkpt lat="45.90842" lon="5.75991">
        <ele>1415.4</ele>
        <time>2021-08-20T15:51:57Z</time>
      </trkpt>
      <trkpt lat="45.90838" lon="5.7599">
        <ele>1415.9</ele>
        <time>2021-08-20T15:51:59Z</time>
      </trkpt>
      <trkpt lat="45.90835" lon="5.7599">
        <ele>1416.2</ele>
        <time>2021-08-20T15:52:00Z</time>
      </trkpt>
      <trkpt lat="45.90833" lon="5.7599">
        <ele>1416.4</ele>
        <time>2021-08-20T15:52:01Z</time>
      </trkpt>
      <trkpt lat="45.90832" lon="5.75989">
        <ele>1416.6</ele>
        <time>2021-08-20T15:52:02Z</time>
      </trkpt>
      <trkpt lat="45.90831" lon="5.75989">
        <ele>1416.6</ele>
        <time>2021-08-20T15:52:03Z</time>
      </trkpt>
      <trkpt lat="45.9083" lon="5.75989">
        <ele>1416.8</ele>
        <time>2021-08-20T15:52:05Z</time>
      </trkpt>
      <trkpt lat="45.9083" lon="5.75989">
        <ele>1416.8</ele>
        <time>2021-08-20T15:52:06Z</time>
      </trkpt>
      <trkpt lat="45.90829" lon="5.75989">
        <ele>1416.9</ele>
        <time>2021-08-20T15:52:08Z</time>
      </trkpt>
      <trkpt lat="45.90829" lon="5.75989">
        <ele>1416.9</ele>
        <time>2021-08-20T15:52:09Z</time>
      </trkpt>
      <trkpt lat="45.90828" lon="5.75988">
        <ele>1417</ele>
        <time>2021-08-20T15:52:10Z</time>
      </trkpt>
      <trkpt lat="45.90827" lon="5.75988">
        <ele>1417.1</ele>
        <time>2021-08-20T15:52:11Z</time>
      </trkpt>
      <trkpt lat="45.90826" lon="5.75987">
        <ele>1417.3</ele>
        <time>2021-08-20T15:52:12Z</time>
      </trkpt>
      <trkpt lat="45.90781" lon="5.75978">
        <ele>1422.7</ele>
        <time>2021-08-20T15:53:02Z</time>
      </trkpt>
      <trkpt lat="45.90778" lon="5.75978">
        <ele>1423.1</ele>
        <time>2021-08-20T15:53:04Z</time>
      </trkpt>
      <trkpt lat="45.90776" lon="5.75978">
        <ele>1423.4</ele>
        <time>2021-08-20T15:53:05Z</time>
      </trkpt>
      <trkpt lat="45.90773" lon="5.7598">
        <ele>1423.7</ele>
        <time>2021-08-20T15:53:07Z</time>
      </trkpt>
      <trkpt lat="45.90771" lon="5.75981">
        <ele>1424</ele>
        <time>2021-08-20T15:53:08Z</time>
      </trkpt>
      <trkpt lat="45.9077" lon="5.75982">
        <ele>1424.1</ele>
        <time>2021-08-20T15:53:09Z</time>
      </trkpt>
      <trkpt lat="45.9077" lon="5.75983">
        <ele>1424.3</ele>
        <time>2021-08-20T15:53:10Z</time>
      </trkpt>
      <trkpt lat="45.90768" lon="5.75984">
        <ele>1424.5</ele>
        <time>2021-08-20T15:53:11Z</time>
      </trkpt>
      <trkpt lat="45.90767" lon="5.75984">
        <ele>1424.5</ele>
        <time>2021-08-20T15:53:12Z</time>
      </trkpt>
      <trkpt lat="45.90767" lon="5.75984">
        <ele>1424.6</ele>
        <time>2021-08-20T15:53:14Z</time>
      </trkpt>
      <trkpt lat="45.90766" lon="5.75985">
        <ele>1424.7</ele>
        <time>2021-08-20T15:53:15Z</time>
      </trkpt>
      <trkpt lat="45.90764" lon="5.75985">
        <ele>1425</ele>
        <time>2021-08-20T15:53:16Z</time>
      </trkpt>
      <trkpt lat="45.90762" lon="5.75984">
        <ele>1425.3</ele>
        <time>2021-08-20T15:53:18Z</time>
      </trkpt>
      <trkpt lat="45.9076" lon="5.75984">
        <ele>1425.5</ele>
        <time>2021-08-20T15:53:19Z</time>
      </trkpt>
      <trkpt lat="45.90758" lon="5.75984">
        <ele>1425.7</ele>
        <time>2021-08-20T15:53:20Z</time>
      </trkpt>
      <trkpt lat="45.90757" lon="5.75983">
        <ele>1425.9</ele>
        <time>2021-08-20T15:53:21Z</time>
      </trkpt>
      <trkpt lat="45.90757" lon="5.75981">
        <ele>1426</ele>
        <time>2021-08-20T15:53:23Z</time>
      </trkpt>
      <trkpt lat="45.90757" lon="5.75981">
        <ele>1426</ele>
        <time>2021-08-20T15:53:25Z</time>
      </trkpt>
      <trkpt lat="45.90757" lon="5.75981">
        <ele>1426</ele>
        <time>2021-08-20T15:53:26Z</time>
      </trkpt>
      <trkpt lat="45.90757" lon="5.75981">
        <ele>1426</ele>
        <time>2021-08-20T15:53:27Z</time>
      </trkpt>
      <trkpt lat="45.90757" lon="5.75981">
        <ele>1426</ele>
        <time>2021-08-20T15:53:29Z</time>
      </trkpt>
      <trkpt lat="45.90757" lon="5.75981">
        <ele>1426</ele>
        <time>2021-08-20T15:53:31Z</time>
      </trkpt>
      <trkpt lat="45.90757" lon="5.75982">
        <ele>1426.1</ele>
        <time>2021-08-20T15:53:32Z</time>
      </trkpt>
      <trkpt lat="45.90757" lon="5.75981">
        <ele>1426.1</ele>
        <time>2021-08-20T15:53:33Z</time>
      </trkpt>
      <trkpt lat="45.90643" lon="5.75998">
        <ele>1438.8</ele>
        <time>2021-08-20T15:57:47Z</time>
      </trkpt>
      <trkpt lat="45.90641" lon="5.75997">
        <ele>1439.1</ele>
        <time>2021-08-20T15:57:48Z</time>
      </trkpt>
      <trkpt lat="45.9064" lon="5.75997">
        <ele>1439.2</ele>
        <time>2021-08-20T15:57:49Z</time>
      </trkpt>
      <trkpt lat="45.90637" lon="5.75998">
        <ele>1439.5</ele>
        <time>2021-08-20T15:57:51Z</time>
      </trkpt>
      <trkpt lat="45.90636" lon="5.75998">
        <ele>1439.7</ele>
        <time>2021-08-20T15:57:52Z</time>
      </trkpt>
      <trkpt lat="45.90633" lon="5.75998">
        <ele>1439.9</ele>
        <time>2021-08-20T15:57:53Z</time>
      </trkpt>
      <trkpt lat="45.90632" lon="5.75998">
        <ele>1440.1</ele>
        <time>2021-08-20T15:57:55Z</time>
      </trkpt>
      <trkpt lat="45.90631" lon="5.75996">
        <ele>1440.3</ele>
        <time>2021-08-20T15:57:56Z</time>
      </trkpt>
      <trkpt lat="45.90629" lon="5.75994">
        <ele>1440.5</ele>
        <time>2021-08-20T15:57:58Z</time>
      </trkpt>
      <trkpt lat="45.90629" lon="5.75993">
        <ele>1440.6</ele>
        <time>2021-08-20T15:58:00Z</time>
      </trkpt>
      <trkpt lat="45.90629" lon="5.75993">
        <ele>1440.6</ele>
        <time>2021-08-20T15:58:01Z</time>
      </trkpt>
      <trkpt lat="45.90629" lon="5.75992">
        <ele>1440.7</ele>
        <time>2021-08-20T15:58:03Z</time>
      </trkpt>
      <trkpt lat="45.90629" lon="5.75992">
        <ele>1440.7</ele>
        <time>2021-08-20T15:58:04Z</time>
      </trkpt>
      <trkpt lat="45.90629" lon="5.75991">
        <ele>1440.7</ele>
        <time>2021-08-20T15:58:05Z</time>
      </trkpt>
      <trkpt lat="45.90629" lon="5.75991">
        <ele>1440.8</ele>
        <time>2021-08-20T15:58:07Z</time>
      </trkpt>
      <trkpt lat="45.90628" lon="5.7599">
        <ele>1440.9</ele>
        <time>2021-08-20T15:58:09Z</time>
      </trkpt>
      <trkpt lat="45.90628" lon="5.7599">
        <ele>1440.9</ele>
        <time>2021-08-20T15:58:10Z</time>
      </trkpt>
      <trkpt lat="45.90627" lon="5.7599">
        <ele>1441</ele>
        <time>2021-08-20T15:58:11Z</time>
      </trkpt>
      <trkpt lat="45.90573" lon="5.75985">
        <ele>1447.6</ele>
        <time>2021-08-20T15:59:06Z</time>
      </trkpt>
      <trkpt lat="45.9057" lon="5.75984">
        <ele>1447.9</ele>
        <time>2021-08-20T15:59:07Z</time>
      </trkpt>
      <trkpt lat="45.90567" lon="5.75983">
        <ele>1448.4</ele>
        <time>2021-08-20T15:59:09Z</time>
      </trkpt>
      <trkpt lat="45.90562" lon="5.75982">
        <ele>1449</ele>
        <time>2021-08-20T15:59:11Z</time>
      </trkpt>
      <trkpt lat="45.9056" lon="5.75982">
        <ele>1449.2</ele>
        <time>2021-08-20T15:59:12Z</time>
      </trkpt>
      <trkpt lat="45.90559" lon="5.75982">
        <ele>1449.4</ele>
        <time>2021-08-20T15:59:13Z</time>
      </trkpt>
      <trkpt lat="45.90556" lon="5.75982">
        <ele>1449.6</ele>
        <time>2021-08-20T15:59:14Z</time>
      </trkpt>
      <trkpt lat="45.90556" lon="5.75982">
        <ele>1449.7</ele>
        <time>2021-08-20T15:59:16Z</time>
      </trkpt>
      <trkpt lat="45.90554" lon="5.75981">
        <ele>1449.9</ele>
        <time>2021-08-20T15:59:17Z</time>
      </trkpt>
      <trkpt lat="45.90553" lon="5.75981">
        <ele>1450.1</ele>
        <time>2021-08-20T15:59:18Z</time>
      </trkpt>
      <trkpt lat="45.90552" lon="5.75981">
        <ele>1450.2</ele>
        <time>2021-08-20T15:59:19Z</time>
      </trkpt>
      <trkpt lat="45.90551" lon="5.7598">
        <ele>1450.3</ele>
        <time>2021-08-20T15:59:21Z</time>
      </trkpt>
      <trkpt lat="45.9055" lon="5.7598">
        <ele>1450.4</ele>
        <time>2021-08-20T15:59:22Z</time>
      </trkpt>
      <trkpt lat="45.90549" lon="5.7598">
        <ele>1450.6</ele>
        <time>2021-08-20T15:59:23Z</time>
      </trkpt>
      <trkpt lat="45.90538" lon="5.75983">
        <ele>1452</ele>
        <time>2021-08-20T15:59:25Z</time>
      </trkpt>
      <trkpt lat="45.90528" lon="5.75986">
        <ele>1453.2</ele>
        <time>2021-08-20T15:59:26Z</time>
      </trkpt>
      <trkpt lat="45.90518" lon="5.75989">
        <ele>1454.4</ele>
        <time>2021-08-20T15:59:27Z</time>
      </trkpt>
      <trkpt lat="45.90508" lon="5.75992">
        <ele>1455.7</ele>
        <time>2021-08-20T16:00:33Z</time>
      </trkpt>
      <trkpt lat="45.90498" lon="5.75995">
        <ele>1457</ele>
        <time>2021-08-20T16:00:35Z</time>
      </trkpt>
      <trkpt lat="45.90488" lon="5.75997">
        <ele>1458.3</ele>
        <time>2021-08-20T16:00:36Z</time>
      </trkpt>
      <trkpt lat="45.90478" lon="5.76">
        <ele>1459.7</ele>
        <time>2021-08-20T16:00:37Z</time>
      </trkpt>
      <trkpt lat="45.90476" lon="5.76001">
        <ele>1459.9</ele>
        <time>2021-08-20T16:00:39Z</time>
      </trkpt>
      <trkpt lat="45.90474" lon="5.76001">
        <ele>1460.1</ele>
        <time>2021-08-20T16:00:40Z</time>
      </trkpt>
      <trkpt lat="45.90467" lon="5.76002">
        <ele>1461.1</ele>
        <time>2021-08-20T16:00:42Z</time>
      </trkpt>
      <trkpt lat="45.90461" lon="5.76003">
        <ele>1462</ele>
        <time>2021-08-20T16:00:43Z</time>
      </trkpt>
      <trkpt lat="45.90454" lon="5.76005">
        <ele>1462.8</ele>
        <time>2021-08-20T16:00:45Z</time>
      </trkpt>
      <trkpt lat="45.90448" lon="5.76006">
        <ele>1463.7</ele>
        <time>2021-08-20T16:00:46Z</time>
      </trkpt>
      <trkpt lat="45.90441" lon="5.76007">
        <ele>1464.6</ele>
        <time>2021-08-20T16:00:48Z</time>
      </trkpt>
      <trkpt lat="45.90435" lon="5.76008">
        <ele>1465.5</ele>
        <time>2021-08-20T16:01:34Z</time>
      </trkpt>
      <trkpt lat="45.90428" lon="5.76009">
        <ele>1466.3</ele>
        <time>2021-08-20T16:01:36Z</time>
      </trkpt>
      <trkpt lat="45.90422" lon="5.76011">
        <ele>1467.2</ele>
        <time>2021-08-20T16:01:37Z</time>
      </trkpt>
      <trkpt lat="45.90415" lon="5.76012">
        <ele>1468</ele>
        <time>2021-08-20T16:01:38Z</time>
      </trkpt>
      <trkpt lat="45.90413" lon="5.76012">
        <ele>1468.3</ele>
        <time>2021-08-20T16:01:40Z</time>
      </trkpt>
      <trkpt lat="45.90411" lon="5.76013">
        <ele>1468.6</ele>
        <time>2021-08-20T16:01:41Z</time>
      </trkpt>
      <trkpt lat="45.90409" lon="5.76013">
        <ele>1468.9</ele>
        <time>2021-08-20T16:01:42Z</time>
      </trkpt>
      <trkpt lat="45.90408" lon="5.76014">
        <ele>1469.1</ele>
        <time>2021-08-20T16:01:44Z</time>
      </trkpt>
      <trkpt lat="45.90406" lon="5.76014">
        <ele>1469.4</ele>
        <time>2021-08-20T16:01:46Z</time>
      </trkpt>
      <trkpt lat="45.90404" lon="5.76015">
        <ele>1469.6</ele>
        <time>2021-08-20T16:01:47Z</time>
      </trkpt>
      <trkpt lat="45.90402" lon="5.76015">
        <ele>1469.9</ele>
        <time>2021-08-20T16:01:49Z</time>
      </trkpt>
      <trkpt lat="45.904" lon="5.76015">
        <ele>1470.1</ele>
        <time>2021-08-20T16:01:50Z</time>
      </trkpt>
      <trkpt lat="45.90398" lon="5.76016">
        <ele>1470.4</ele>
        <time>2021-08-20T16:02:03Z</time>
      </trkpt>
      <trkpt lat="45.90396" lon="5.76016">
        <ele>1470.6</ele>
        <time>2021-08-20T16:02:04Z</time>
      </trkpt>
      <trkpt lat="45.90395" lon="5.76017">
        <ele>1470.9</ele>
        <time>2021-08-20T16:02:05Z</time>
      </trkpt>
      <trkpt lat="45.90393" lon="5.76017">
        <ele>1471.1</ele>
        <time>2021-08-20T16:02:06Z</time>
      </trkpt>
      <trkpt lat="45.9039" lon="5.76018">
        <ele>1471.6</ele>
        <time>2021-08-20T16:02:08Z</time>
      </trkpt>
      <trkpt lat="45.90388" lon="5.76018">
        <ele>1471.7</ele>
        <time>2021-08-20T16:02:09Z</time>
      </trkpt>
      <trkpt lat="45.90387" lon="5.76018">
        <ele>1472</ele>
        <time>2021-08-20T16:02:10Z</time>
      </trkpt>
      <trkpt lat="45.90384" lon="5.76018">
        <ele>1472.3</ele>
        <time>2021-08-20T16:02:12Z</time>
      </trkpt>
      <trkpt lat="45.9038" lon="5.76019">
        <ele>1472.8</ele>
        <time>2021-08-20T16:02:14Z</time>
      </trkpt>
      <trkpt lat="45.90379" lon="5.76019">
        <ele>1473</ele>
        <time>2021-08-20T16:02:15Z</time>
      </trkpt>
      <trkpt lat="45.90378" lon="5.76019">
        <ele>1473.1</ele>
        <time>2021-08-20T16:02:16Z</time>
      </trkpt>
      <trkpt lat="45.90377" lon="5.76019">
        <ele>1473.2</ele>
        <time>2021-08-20T16:02:17Z</time>
      </trkpt>
      <trkpt lat="45.90376" lon="5.7602">
        <ele>1473.4</ele>
        <time>2021-08-20T16:02:18Z</time>
      </trkpt>
      <trkpt lat="45.90375" lon="5.76021">
        <ele>1473.6</ele>
        <time>2021-08-20T16:02:19Z</time>
      </trkpt>
      <trkpt lat="45.90373" lon="5.76022">
        <ele>1473.9</ele>
        <time>2021-08-20T16:02:21Z</time>
      </trkpt>
      <trkpt lat="45.90373" lon="5.76023">
        <ele>1474</ele>
        <time>2021-08-20T16:02:22Z</time>
      </trkpt>
      <trkpt lat="45.90372" lon="5.76024">
        <ele>1474.1</ele>
        <time>2021-08-20T16:02:24Z</time>
      </trkpt>
      <trkpt lat="45.90371" lon="5.76025">
        <ele>1474.2</ele>
        <time>2021-08-20T16:02:25Z</time>
      </trkpt>
      <trkpt lat="45.90371" lon="5.76025">
        <ele>1474.3</ele>
        <time>2021-08-20T16:02:26Z</time>
      </trkpt>
      <trkpt lat="45.9037" lon="5.76025">
        <ele>1474.4</ele>
        <time>2021-08-20T16:02:28Z</time>
      </trkpt>
      <trkpt lat="45.90369" lon="5.76025">
        <ele>1474.5</ele>
        <time>2021-08-20T16:02:29Z</time>
      </trkpt>
      <trkpt lat="45.90368" lon="5.76026">
        <ele>1474.7</ele>
        <time>2021-08-20T16:02:30Z</time>
      </trkpt>
      <trkpt lat="45.90367" lon="5.76027">
        <ele>1474.8</ele>
        <time>2021-08-20T16:02:32Z</time>
      </trkpt>
      <trkpt lat="45.90366" lon="5.76027">
        <ele>1475</ele>
        <time>2021-08-20T16:02:33Z</time>
      </trkpt>
      <trkpt lat="45.90365" lon="5.76028">
        <ele>1475.2</ele>
        <time>2021-08-20T16:02:34Z</time>
      </trkpt>
      <trkpt lat="45.90364" lon="5.76028">
        <ele>1475.4</ele>
        <time>2021-08-20T16:02:35Z</time>
      </trkpt>
      <trkpt lat="45.90362" lon="5.76029">
        <ele>1475.6</ele>
        <time>2021-08-20T16:02:36Z</time>
      </trkpt>
      <trkpt lat="45.90361" lon="5.76029">
        <ele>1475.8</ele>
        <time>2021-08-20T16:02:38Z</time>
      </trkpt>
      <trkpt lat="45.9036" lon="5.7603">
        <ele>1475.9</ele>
        <time>2021-08-20T16:02:39Z</time>
      </trkpt>
      <trkpt lat="45.90343" lon="5.76058">
        <ele>1478.8</ele>
        <time>2021-08-20T16:03:16Z</time>
      </trkpt>
      <trkpt lat="45.90342" lon="5.76063">
        <ele>1479</ele>
        <time>2021-08-20T16:03:17Z</time>
      </trkpt>
      <trkpt lat="45.90342" lon="5.76065">
        <ele>1479.1</ele>
        <time>2021-08-20T16:03:19Z</time>
      </trkpt>
      <trkpt lat="45.90342" lon="5.76065">
        <ele>1479.2</ele>
        <time>2021-08-20T16:03:20Z</time>
      </trkpt>
      <trkpt lat="45.90342" lon="5.76066">
        <ele>1479.2</ele>
        <time>2021-08-20T16:03:21Z</time>
      </trkpt>
      <trkpt lat="45.90342" lon="5.76066">
        <ele>1479.2</ele>
        <time>2021-08-20T16:03:23Z</time>
      </trkpt>
      <trkpt lat="45.90342" lon="5.76067">
        <ele>1479.3</ele>
        <time>2021-08-20T16:03:24Z</time>
      </trkpt>
      <trkpt lat="45.90342" lon="5.76068">
        <ele>1479.3</ele>
        <time>2021-08-20T16:03:25Z</time>
      </trkpt>
      <trkpt lat="45.90342" lon="5.7607">
        <ele>1479.5</ele>
        <time>2021-08-20T16:03:27Z</time>
      </trkpt>
      <trkpt lat="45.90342" lon="5.76073">
        <ele>1479.6</ele>
        <time>2021-08-20T16:03:29Z</time>
      </trkpt>
      <trkpt lat="45.90342" lon="5.76076">
        <ele>1479.8</ele>
        <time>2021-08-20T16:03:30Z</time>
      </trkpt>
      <trkpt lat="45.90341" lon="5.7608">
        <ele>1480.1</ele>
        <time>2021-08-20T16:03:32Z</time>
      </trkpt>
      <trkpt lat="45.90341" lon="5.76084">
        <ele>1480.4</ele>
        <time>2021-08-20T16:03:33Z</time>
      </trkpt>
      <trkpt lat="45.9034" lon="5.76086">
        <ele>1480.5</ele>
        <time>2021-08-20T16:03:34Z</time>
      </trkpt>
      <trkpt lat="45.90339" lon="5.7609">
        <ele>1480.8</ele>
        <time>2021-08-20T16:03:36Z</time>
      </trkpt>
      <trkpt lat="45.90338" lon="5.76093">
        <ele>1481</ele>
        <time>2021-08-20T16:03:37Z</time>
      </trkpt>
      <trkpt lat="45.90337" lon="5.76094">
        <ele>1481.1</ele>
        <time>2021-08-20T16:03:39Z</time>
      </trkpt>
      <trkpt lat="45.90337" lon="5.76095">
        <ele>1481.2</ele>
        <time>2021-08-20T16:03:40Z</time>
      </trkpt>
      <trkpt lat="45.90336" lon="5.761">
        <ele>1481.5</ele>
        <time>2021-08-20T16:03:41Z</time>
      </trkpt>
      <trkpt lat="45.90336" lon="5.76101">
        <ele>1481.7</ele>
        <time>2021-08-20T16:03:42Z</time>
      </trkpt>
      <trkpt lat="45.90335" lon="5.76103">
        <ele>1481.8</ele>
        <time>2021-08-20T16:03:44Z</time>
      </trkpt>
      <trkpt lat="45.90335" lon="5.76104">
        <ele>1481.8</ele>
        <time>2021-08-20T16:03:45Z</time>
      </trkpt>
      <trkpt lat="45.90335" lon="5.76105">
        <ele>1481.9</ele>
        <time>2021-08-20T16:03:46Z</time>
      </trkpt>
      <trkpt lat="45.90335" lon="5.76105">
        <ele>1481.9</ele>
        <time>2021-08-20T16:03:48Z</time>
      </trkpt>
      <trkpt lat="45.90335" lon="5.76106">
        <ele>1481.9</ele>
        <time>2021-08-20T16:03:49Z</time>
      </trkpt>
      <trkpt lat="45.90335" lon="5.76108">
        <ele>1482.1</ele>
        <time>2021-08-20T16:03:50Z</time>
      </trkpt>
      <trkpt lat="45.90335" lon="5.76109">
        <ele>1482.2</ele>
        <time>2021-08-20T16:03:52Z</time>
      </trkpt>
      <trkpt lat="45.90335" lon="5.7611">
        <ele>1482.3</ele>
        <time>2021-08-20T16:03:53Z</time>
      </trkpt>
      <trkpt lat="45.90335" lon="5.76111">
        <ele>1482.3</ele>
        <time>2021-08-20T16:03:54Z</time>
      </trkpt>
      <trkpt lat="45.90334" lon="5.76115">
        <ele>1482.6</ele>
        <time>2021-08-20T16:03:55Z</time>
      </trkpt>
      <trkpt lat="45.90333" lon="5.76117">
        <ele>1482.7</ele>
        <time>2021-08-20T16:03:56Z</time>
      </trkpt>
      <trkpt lat="45.90333" lon="5.7612">
        <ele>1482.9</ele>
        <time>2021-08-20T16:03:58Z</time>
      </trkpt>
      <trkpt lat="45.90333" lon="5.76121">
        <ele>1483</ele>
        <time>2021-08-20T16:03:59Z</time>
      </trkpt>
      <trkpt lat="45.90333" lon="5.76122">
        <ele>1483.1</ele>
        <time>2021-08-20T16:04:00Z</time>
      </trkpt>
      <trkpt lat="45.90332" lon="5.76129">
        <ele>1483.6</ele>
        <time>2021-08-20T16:04:03Z</time>
      </trkpt>
      <trkpt lat="45.90332" lon="5.7613">
        <ele>1483.7</ele>
        <time>2021-08-20T16:04:04Z</time>
      </trkpt>
      <trkpt lat="45.90333" lon="5.76133">
        <ele>1483.9</ele>
        <time>2021-08-20T16:04:05Z</time>
      </trkpt>
      <trkpt lat="45.90333" lon="5.76136">
        <ele>1484.1</ele>
        <time>2021-08-20T16:04:07Z</time>
      </trkpt>
      <trkpt lat="45.90333" lon="5.76139">
        <ele>1484.2</ele>
        <time>2021-08-20T16:04:09Z</time>
      </trkpt>
      <trkpt lat="45.90332" lon="5.76141">
        <ele>1484.4</ele>
        <time>2021-08-20T16:04:10Z</time>
      </trkpt>
      <trkpt lat="45.90331" lon="5.76143">
        <ele>1484.5</ele>
        <time>2021-08-20T16:04:12Z</time>
      </trkpt>
      <trkpt lat="45.90331" lon="5.76145">
        <ele>1484.6</ele>
        <time>2021-08-20T16:04:13Z</time>
      </trkpt>
      <trkpt lat="45.9033" lon="5.76146">
        <ele>1484.7</ele>
        <time>2021-08-20T16:04:14Z</time>
      </trkpt>
      <trkpt lat="45.9033" lon="5.76148">
        <ele>1484.8</ele>
        <time>2021-08-20T16:04:15Z</time>
      </trkpt>
      <trkpt lat="45.90329" lon="5.76149">
        <ele>1484.9</ele>
        <time>2021-08-20T16:04:16Z</time>
      </trkpt>
      <trkpt lat="45.90329" lon="5.76151">
        <ele>1485</ele>
        <time>2021-08-20T16:04:18Z</time>
      </trkpt>
      <trkpt lat="45.90329" lon="5.76152">
        <ele>1485</ele>
        <time>2021-08-20T16:04:19Z</time>
      </trkpt>
      <trkpt lat="45.90329" lon="5.76152">
        <ele>1485</ele>
        <time>2021-08-20T16:04:21Z</time>
      </trkpt>
      <trkpt lat="45.90329" lon="5.76152">
        <ele>1485.1</ele>
        <time>2021-08-20T16:04:22Z</time>
      </trkpt>
      <trkpt lat="45.90329" lon="5.76152">
        <ele>1485.1</ele>
        <time>2021-08-20T16:04:23Z</time>
      </trkpt>
      <trkpt lat="45.9033" lon="5.76152">
        <ele>1485.1</ele>
        <time>2021-08-20T16:04:25Z</time>
      </trkpt>
      <trkpt lat="45.90329" lon="5.76152">
        <ele>1485.1</ele>
        <time>2021-08-20T16:04:27Z</time>
      </trkpt>
      <trkpt lat="45.90329" lon="5.76151">
        <ele>1485.1</ele>
        <time>2021-08-20T16:04:29Z</time>
      </trkpt>
      <trkpt lat="45.90329" lon="5.76151">
        <ele>1485.1</ele>
        <time>2021-08-20T16:04:30Z</time>
      </trkpt>
      <trkpt lat="45.90329" lon="5.76151">
        <ele>1485.1</ele>
        <time>2021-08-20T16:04:32Z</time>
      </trkpt>
      <trkpt lat="45.90329" lon="5.76151">
        <ele>1485.1</ele>
        <time>2021-08-20T16:04:33Z</time>
      </trkpt>
      <trkpt lat="45.90329" lon="5.76151">
        <ele>1485.1</ele>
        <time>2021-08-20T16:04:34Z</time>
      </trkpt>
      <trkpt lat="45.90331" lon="5.76176">
        <ele>1485.8</ele>
        <time>2021-08-20T16:07:04Z</time>
      </trkpt>
      <trkpt lat="45.90334" lon="5.76179">
        <ele>1485.9</ele>
        <time>2021-08-20T16:07:05Z</time>
      </trkpt>
      <trkpt lat="45.90338" lon="5.76187">
        <ele>1485.8</ele>
        <time>2021-08-20T16:07:07Z</time>
      </trkpt>
      <trkpt lat="45.90339" lon="5.76192">
        <ele>1485.8</ele>
        <time>2021-08-20T16:07:08Z</time>
      </trkpt>
      <trkpt lat="45.90342" lon="5.76201">
        <ele>1485.8</ele>
        <time>2021-08-20T16:07:10Z</time>
      </trkpt>
      <trkpt lat="45.90344" lon="5.76206">
        <ele>1485.7</ele>
        <time>2021-08-20T16:07:11Z</time>
      </trkpt>
      <trkpt lat="45.90347" lon="5.76211">
        <ele>1485.7</ele>
        <time>2021-08-20T16:07:12Z</time>
      </trkpt>
      <trkpt lat="45.90354" lon="5.7622">
        <ele>1484.8</ele>
        <time>2021-08-20T16:07:14Z</time>
      </trkpt>
      <trkpt lat="45.90358" lon="5.76227">
        <ele>1484.2</ele>
        <time>2021-08-20T16:07:16Z</time>
      </trkpt>
      <trkpt lat="45.90363" lon="5.76235">
        <ele>1483.5</ele>
        <time>2021-08-20T16:07:18Z</time>
      </trkpt>
      <trkpt lat="45.90365" lon="5.76239">
        <ele>1483.2</ele>
        <time>2021-08-20T16:07:19Z</time>
      </trkpt>
      <trkpt lat="45.90367" lon="5.76239">
        <ele>1482.9</ele>
        <time>2021-08-20T16:07:20Z</time>
      </trkpt>
      <trkpt lat="45.90368" lon="5.76237">
        <ele>1482.7</ele>
        <time>2021-08-20T16:07:22Z</time>
      </trkpt>
      <trkpt lat="45.90368" lon="5.76237">
        <ele>1482.7</ele>
        <time>2021-08-20T16:07:24Z</time>
      </trkpt>
      <trkpt lat="45.9037" lon="5.76233">
        <ele>1482.4</ele>
        <time>2021-08-20T16:07:26Z</time>
      </trkpt>
      <trkpt lat="45.90374" lon="5.76227">
        <ele>1481.8</ele>
        <time>2021-08-20T16:07:28Z</time>
      </trkpt>
      <trkpt lat="45.90369" lon="5.76235">
        <ele>1481</ele>
        <time>2021-08-20T16:07:30Z</time>
      </trkpt>
      <trkpt lat="45.90363" lon="5.76245">
        <ele>1479.9</ele>
        <time>2021-08-20T16:27:31Z</time>
      </trkpt>
      <trkpt lat="45.90356" lon="5.76256">
        <ele>1478.8</ele>
        <time>2021-08-20T16:27:32Z</time>
      </trkpt>
      <trkpt lat="45.90349" lon="5.76264">
        <ele>1477.7</ele>
        <time>2021-08-20T16:27:33Z</time>
      </trkpt>
      <trkpt lat="45.90334" lon="5.76279">
        <ele>1475.5</ele>
        <time>2021-08-20T16:27:35Z</time>
      </trkpt>
      <trkpt lat="45.90326" lon="5.76286">
        <ele>1474.4</ele>
        <time>2021-08-20T16:27:36Z</time>
      </trkpt>
      <trkpt lat="45.90308" lon="5.76294">
        <ele>1472.1</ele>
        <time>2021-08-20T16:27:38Z</time>
      </trkpt>
      <trkpt lat="45.90298" lon="5.76297">
        <ele>1470.9</ele>
        <time>2021-08-20T16:27:39Z</time>
      </trkpt>
      <trkpt lat="45.90288" lon="5.763">
        <ele>1469.7</ele>
        <time>2021-08-20T16:27:40Z</time>
      </trkpt>
      <trkpt lat="45.90268" lon="5.76304">
        <ele>1467.2</ele>
        <time>2021-08-20T16:27:42Z</time>
      </trkpt>
      <trkpt lat="45.90248" lon="5.76305">
        <ele>1464.9</ele>
        <time>2021-08-20T16:27:44Z</time>
      </trkpt>
      <trkpt lat="45.90229" lon="5.76308">
        <ele>1462.8</ele>
        <time>2021-08-20T16:27:46Z</time>
      </trkpt>
      <trkpt lat="45.90219" lon="5.7631">
        <ele>1461.7</ele>
        <time>2021-08-20T16:27:47Z</time>
      </trkpt>
      <trkpt lat="45.90208" lon="5.76311">
        <ele>1460.6</ele>
        <time>2021-08-20T16:27:48Z</time>
      </trkpt>
      <trkpt lat="45.90187" lon="5.76312">
        <ele>1458.2</ele>
        <time>2021-08-20T16:27:50Z</time>
      </trkpt>
      <trkpt lat="45.90176" lon="5.76313">
        <ele>1457</ele>
        <time>2021-08-20T16:27:51Z</time>
      </trkpt>
      <trkpt lat="45.90154" lon="5.76319">
        <ele>1454.7</ele>
        <time>2021-08-20T16:27:53Z</time>
      </trkpt>
      <trkpt lat="45.90143" lon="5.7632">
        <ele>1453.5</ele>
        <time>2021-08-20T16:27:54Z</time>
      </trkpt>
      <trkpt lat="45.90119" lon="5.76324">
        <ele>1451.1</ele>
        <time>2021-08-20T16:27:56Z</time>
      </trkpt>
      <trkpt lat="45.90107" lon="5.76326">
        <ele>1449.8</ele>
        <time>2021-08-20T16:27:57Z</time>
      </trkpt>
      <trkpt lat="45.90084" lon="5.7633">
        <ele>1447.3</ele>
        <time>2021-08-20T16:27:59Z</time>
      </trkpt>
      <trkpt lat="45.90062" lon="5.76336">
        <ele>1444.9</ele>
        <time>2021-08-20T16:28:01Z</time>
      </trkpt>
      <trkpt lat="45.90051" lon="5.76339">
        <ele>1443.6</ele>
        <time>2021-08-20T16:28:02Z</time>
      </trkpt>
      <trkpt lat="45.90027" lon="5.76349">
        <ele>1440.8</ele>
        <time>2021-08-20T16:28:04Z</time>
      </trkpt>
      <trkpt lat="45.90015" lon="5.76354">
        <ele>1439.4</ele>
        <time>2021-08-20T16:28:05Z</time>
      </trkpt>
      <trkpt lat="45.90004" lon="5.76359">
        <ele>1438.1</ele>
        <time>2021-08-20T16:28:06Z</time>
      </trkpt>
      <trkpt lat="45.89994" lon="5.76364">
        <ele>1437</ele>
        <time>2021-08-20T16:28:07Z</time>
      </trkpt>
      <trkpt lat="45.89983" lon="5.76368">
        <ele>1435.9</ele>
        <time>2021-08-20T16:28:08Z</time>
      </trkpt>
      <trkpt lat="45.89962" lon="5.76375">
        <ele>1434</ele>
        <time>2021-08-20T16:28:10Z</time>
      </trkpt>
      <trkpt lat="45.89951" lon="5.76374">
        <ele>1433.1</ele>
        <time>2021-08-20T16:28:11Z</time>
      </trkpt>
      <trkpt lat="45.8993" lon="5.76365">
        <ele>1431</ele>
        <time>2021-08-20T16:28:13Z</time>
      </trkpt>
      <trkpt lat="45.89919" lon="5.76362">
        <ele>1430</ele>
        <time>2021-08-20T16:28:14Z</time>
      </trkpt>
      <trkpt lat="45.89907" lon="5.76357">
        <ele>1429</ele>
        <time>2021-08-20T16:28:15Z</time>
      </trkpt>
      <trkpt lat="45.89884" lon="5.7634">
        <ele>1427.2</ele>
        <time>2021-08-20T16:28:17Z</time>
      </trkpt>
      <trkpt lat="45.8986" lon="5.76324">
        <ele>1425.7</ele>
        <time>2021-08-20T16:28:19Z</time>
      </trkpt>
      <trkpt lat="45.89848" lon="5.76318">
        <ele>1424.9</ele>
        <time>2021-08-20T16:28:20Z</time>
      </trkpt>
      <trkpt lat="45.89825" lon="5.76308">
        <ele>1423.1</ele>
        <time>2021-08-20T16:28:22Z</time>
      </trkpt>
      <trkpt lat="45.89814" lon="5.76306">
        <ele>1422.3</ele>
        <time>2021-08-20T16:28:23Z</time>
      </trkpt>
      <trkpt lat="45.89804" lon="5.763">
        <ele>1421.5</ele>
        <time>2021-08-20T16:28:24Z</time>
      </trkpt>
      <trkpt lat="45.89783" lon="5.76287">
        <ele>1419.8</ele>
        <time>2021-08-20T16:28:26Z</time>
      </trkpt>
      <trkpt lat="45.89763" lon="5.76275">
        <ele>1418</ele>
        <time>2021-08-20T16:28:28Z</time>
      </trkpt>
      <trkpt lat="45.89742" lon="5.76262">
        <ele>1416.2</ele>
        <time>2021-08-20T16:28:30Z</time>
      </trkpt>
      <trkpt lat="45.89721" lon="5.76249">
        <ele>1414.3</ele>
        <time>2021-08-20T16:28:32Z</time>
      </trkpt>
      <trkpt lat="45.89699" lon="5.76237">
        <ele>1412.3</ele>
        <time>2021-08-20T16:28:34Z</time>
      </trkpt>
      <trkpt lat="45.89688" lon="5.76232">
        <ele>1411.3</ele>
        <time>2021-08-20T16:28:35Z</time>
      </trkpt>
      <trkpt lat="45.89677" lon="5.76227">
        <ele>1410.2</ele>
        <time>2021-08-20T16:28:36Z</time>
      </trkpt>
      <trkpt lat="45.89665" lon="5.76223">
        <ele>1409.1</ele>
        <time>2021-08-20T16:28:37Z</time>
      </trkpt>
      <trkpt lat="45.89653" lon="5.76219">
        <ele>1407.9</ele>
        <time>2021-08-20T16:28:38Z</time>
      </trkpt>
      <trkpt lat="45.89628" lon="5.76215">
        <ele>1405.7</ele>
        <time>2021-08-20T16:28:40Z</time>
      </trkpt>
      <trkpt lat="45.89602" lon="5.76209">
        <ele>1404.3</ele>
        <time>2021-08-20T16:28:42Z</time>
      </trkpt>
      <trkpt lat="45.89576" lon="5.76209">
        <ele>1403.7</ele>
        <time>2021-08-20T16:28:44Z</time>
      </trkpt>
      <trkpt lat="45.89553" lon="5.76209">
        <ele>1403.1</ele>
        <time>2021-08-20T16:28:45Z</time>
      </trkpt>
      <trkpt lat="45.89542" lon="5.76208">
        <ele>1402.8</ele>
        <time>2021-08-20T16:28:46Z</time>
      </trkpt>
      <trkpt lat="45.89521" lon="5.76206">
        <ele>1402.4</ele>
        <time>2021-08-20T16:28:48Z</time>
      </trkpt>
      <trkpt lat="45.89511" lon="5.76208">
        <ele>1402.2</ele>
        <time>2021-08-20T16:28:49Z</time>
      </trkpt>
      <trkpt lat="45.89492" lon="5.76207">
        <ele>1401.9</ele>
        <time>2021-08-20T16:28:51Z</time>
      </trkpt>
      <trkpt lat="45.89482" lon="5.76206">
        <ele>1401.7</ele>
        <time>2021-08-20T16:28:52Z</time>
      </trkpt>
      <trkpt lat="45.89474" lon="5.76205">
        <ele>1401.6</ele>
        <time>2021-08-20T16:28:53Z</time>
      </trkpt>
      <trkpt lat="45.89458" lon="5.76204">
        <ele>1401.3</ele>
        <time>2021-08-20T16:28:55Z</time>
      </trkpt>
      <trkpt lat="45.89442" lon="5.762">
        <ele>1401.1</ele>
        <time>2021-08-20T16:28:57Z</time>
      </trkpt>
      <trkpt lat="45.89427" lon="5.76193">
        <ele>1400.7</ele>
        <time>2021-08-20T16:28:59Z</time>
      </trkpt>
      <trkpt lat="45.89419" lon="5.76189">
        <ele>1400.6</ele>
        <time>2021-08-20T16:29:00Z</time>
      </trkpt>
      <trkpt lat="45.89403" lon="5.76183">
        <ele>1400.3</ele>
        <time>2021-08-20T16:29:02Z</time>
      </trkpt>
      <trkpt lat="45.89388" lon="5.76177">
        <ele>1400.1</ele>
        <time>2021-08-20T16:29:04Z</time>
      </trkpt>
      <trkpt lat="45.89379" lon="5.76173">
        <ele>1399.9</ele>
        <time>2021-08-20T16:29:05Z</time>
      </trkpt>
      <trkpt lat="45.89363" lon="5.76165">
        <ele>1399.6</ele>
        <time>2021-08-20T16:29:07Z</time>
      </trkpt>
      <trkpt lat="45.89349" lon="5.76157">
        <ele>1399.4</ele>
        <time>2021-08-20T16:29:09Z</time>
      </trkpt>
      <trkpt lat="45.89342" lon="5.76155">
        <ele>1399.3</ele>
        <time>2021-08-20T16:29:10Z</time>
      </trkpt>
      <trkpt lat="45.89335" lon="5.76152">
        <ele>1399.2</ele>
        <time>2021-08-20T16:29:11Z</time>
      </trkpt>
      <trkpt lat="45.89328" lon="5.76149">
        <ele>1399.2</ele>
        <time>2021-08-20T16:29:12Z</time>
      </trkpt>
      <trkpt lat="45.8932" lon="5.76147">
        <ele>1399.1</ele>
        <time>2021-08-20T16:29:13Z</time>
      </trkpt>
      <trkpt lat="45.89304" lon="5.76142">
        <ele>1398.8</ele>
        <time>2021-08-20T16:29:15Z</time>
      </trkpt>
      <trkpt lat="45.89297" lon="5.76139">
        <ele>1398.7</ele>
        <time>2021-08-20T16:29:16Z</time>
      </trkpt>
      <trkpt lat="45.8929" lon="5.76137">
        <ele>1398.5</ele>
        <time>2021-08-20T16:29:17Z</time>
      </trkpt>
      <trkpt lat="45.89275" lon="5.76134">
        <ele>1397.9</ele>
        <time>2021-08-20T16:29:19Z</time>
      </trkpt>
      <trkpt lat="45.89267" lon="5.76133">
        <ele>1397.6</ele>
        <time>2021-08-20T16:29:20Z</time>
      </trkpt>
      <trkpt lat="45.89252" lon="5.7613">
        <ele>1396.8</ele>
        <time>2021-08-20T16:29:22Z</time>
      </trkpt>
      <trkpt lat="45.89237" lon="5.76129">
        <ele>1395.8</ele>
        <time>2021-08-20T16:29:24Z</time>
      </trkpt>
      <trkpt lat="45.89229" lon="5.76129">
        <ele>1395.3</ele>
        <time>2021-08-20T16:29:25Z</time>
      </trkpt>
      <trkpt lat="45.89212" lon="5.7613">
        <ele>1393.8</ele>
        <time>2021-08-20T16:29:27Z</time>
      </trkpt>
      <trkpt lat="45.89203" lon="5.76131">
        <ele>1393.1</ele>
        <time>2021-08-20T16:29:28Z</time>
      </trkpt>
      <trkpt lat="45.89194" lon="5.76132">
        <ele>1392.3</ele>
        <time>2021-08-20T16:29:29Z</time>
      </trkpt>
      <trkpt lat="45.89185" lon="5.76133">
        <ele>1391.5</ele>
        <time>2021-08-20T16:29:30Z</time>
      </trkpt>
      <trkpt lat="45.89176" lon="5.76135">
        <ele>1390.7</ele>
        <time>2021-08-20T16:29:31Z</time>
      </trkpt>
      <trkpt lat="45.89159" lon="5.76134">
        <ele>1389.2</ele>
        <time>2021-08-20T16:29:33Z</time>
      </trkpt>
      <trkpt lat="45.89151" lon="5.76132">
        <ele>1388.4</ele>
        <time>2021-08-20T16:29:34Z</time>
      </trkpt>
      <trkpt lat="45.89141" lon="5.7613">
        <ele>1387.5</ele>
        <time>2021-08-20T16:29:35Z</time>
      </trkpt>
      <trkpt lat="45.89122" lon="5.76119">
        <ele>1385.6</ele>
        <time>2021-08-20T16:29:37Z</time>
      </trkpt>
      <trkpt lat="45.89101" lon="5.76108">
        <ele>1383.6</ele>
        <time>2021-08-20T16:29:39Z</time>
      </trkpt>
      <trkpt lat="45.89078" lon="5.76113">
        <ele>1381.7</ele>
        <time>2021-08-20T16:29:41Z</time>
      </trkpt>
      <trkpt lat="45.89067" lon="5.76115">
        <ele>1380.7</ele>
        <time>2021-08-20T16:29:42Z</time>
      </trkpt>
      <trkpt lat="45.89056" lon="5.76117">
        <ele>1379.7</ele>
        <time>2021-08-20T16:29:43Z</time>
      </trkpt>
      <trkpt lat="45.89032" lon="5.76119">
        <ele>1377.7</ele>
        <time>2021-08-20T16:29:45Z</time>
      </trkpt>
      <trkpt lat="45.89008" lon="5.76118">
        <ele>1375.5</ele>
        <time>2021-08-20T16:29:47Z</time>
      </trkpt>
      <trkpt lat="45.88994" lon="5.76116">
        <ele>1374.3</ele>
        <time>2021-08-20T16:29:48Z</time>
      </trkpt>
      <trkpt lat="45.8898" lon="5.76113">
        <ele>1373</ele>
        <time>2021-08-20T16:29:49Z</time>
      </trkpt>
      <trkpt lat="45.88966" lon="5.76112">
        <ele>1371.8</ele>
        <time>2021-08-20T16:29:50Z</time>
      </trkpt>
      <trkpt lat="45.8894" lon="5.76109">
        <ele>1369.8</ele>
        <time>2021-08-20T16:29:52Z</time>
      </trkpt>
      <trkpt lat="45.88927" lon="5.76108">
        <ele>1368.8</ele>
        <time>2021-08-20T16:29:53Z</time>
      </trkpt>
      <trkpt lat="45.88915" lon="5.76109">
        <ele>1368</ele>
        <time>2021-08-20T16:29:54Z</time>
      </trkpt>
      <trkpt lat="45.88902" lon="5.76109">
        <ele>1367.2</ele>
        <time>2021-08-20T16:29:55Z</time>
      </trkpt>
      <trkpt lat="45.88878" lon="5.76109">
        <ele>1365.5</ele>
        <time>2021-08-20T16:29:57Z</time>
      </trkpt>
      <trkpt lat="45.88854" lon="5.76108">
        <ele>1363.8</ele>
        <time>2021-08-20T16:29:59Z</time>
      </trkpt>
      <trkpt lat="45.88832" lon="5.76107">
        <ele>1362.2</ele>
        <time>2021-08-20T16:30:01Z</time>
      </trkpt>
      <trkpt lat="45.88809" lon="5.76107">
        <ele>1361</ele>
        <time>2021-08-20T16:30:03Z</time>
      </trkpt>
      <trkpt lat="45.88797" lon="5.76106">
        <ele>1360.7</ele>
        <time>2021-08-20T16:30:04Z</time>
      </trkpt>
      <trkpt lat="45.88774" lon="5.76099">
        <ele>1360.2</ele>
        <time>2021-08-20T16:30:06Z</time>
      </trkpt>
      <trkpt lat="45.88764" lon="5.76094">
        <ele>1360</ele>
        <time>2021-08-20T16:30:07Z</time>
      </trkpt>
      <trkpt lat="45.88744" lon="5.76086">
        <ele>1359.7</ele>
        <time>2021-08-20T16:30:09Z</time>
      </trkpt>
      <trkpt lat="45.88735" lon="5.76085">
        <ele>1359.6</ele>
        <time>2021-08-20T16:30:10Z</time>
      </trkpt>
      <trkpt lat="45.88725" lon="5.76083">
        <ele>1359.5</ele>
        <time>2021-08-20T16:30:11Z</time>
      </trkpt>
      <trkpt lat="45.88716" lon="5.76082">
        <ele>1359.5</ele>
        <time>2021-08-20T16:30:12Z</time>
      </trkpt>
      <trkpt lat="45.88709" lon="5.76079">
        <ele>1359.4</ele>
        <time>2021-08-20T16:30:13Z</time>
      </trkpt>
      <trkpt lat="45.88702" lon="5.76075">
        <ele>1359.4</ele>
        <time>2021-08-20T16:30:14Z</time>
      </trkpt>
      <trkpt lat="45.88689" lon="5.76067">
        <ele>1359.4</ele>
        <time>2021-08-20T16:30:16Z</time>
      </trkpt>
      <trkpt lat="45.88675" lon="5.76057">
        <ele>1359.3</ele>
        <time>2021-08-20T16:30:18Z</time>
      </trkpt>
      <trkpt lat="45.88667" lon="5.76053">
        <ele>1359.2</ele>
        <time>2021-08-20T16:30:19Z</time>
      </trkpt>
      <trkpt lat="45.88652" lon="5.7605">
        <ele>1358.9</ele>
        <time>2021-08-20T16:30:21Z</time>
      </trkpt>
      <trkpt lat="45.88635" lon="5.7605">
        <ele>1358.7</ele>
        <time>2021-08-20T16:30:23Z</time>
      </trkpt>
      <trkpt lat="45.88619" lon="5.76047">
        <ele>1358.5</ele>
        <time>2021-08-20T16:30:25Z</time>
      </trkpt>
      <trkpt lat="45.88605" lon="5.76043">
        <ele>1358.3</ele>
        <time>2021-08-20T16:30:27Z</time>
      </trkpt>
      <trkpt lat="45.88597" lon="5.76042">
        <ele>1358.2</ele>
        <time>2021-08-20T16:30:28Z</time>
      </trkpt>
      <trkpt lat="45.88581" lon="5.7604">
        <ele>1358</ele>
        <time>2021-08-20T16:30:30Z</time>
      </trkpt>
      <trkpt lat="45.88574" lon="5.7604">
        <ele>1358</ele>
        <time>2021-08-20T16:30:31Z</time>
      </trkpt>
      <trkpt lat="45.8856" lon="5.76041">
        <ele>1357.8</ele>
        <time>2021-08-20T16:30:33Z</time>
      </trkpt>
      <trkpt lat="45.88547" lon="5.76043">
        <ele>1357.6</ele>
        <time>2021-08-20T16:30:35Z</time>
      </trkpt>
      <trkpt lat="45.8854" lon="5.76044">
        <ele>1357.5</ele>
        <time>2021-08-20T16:30:36Z</time>
      </trkpt>
      <trkpt lat="45.88533" lon="5.76046">
        <ele>1357.4</ele>
        <time>2021-08-20T16:30:37Z</time>
      </trkpt>
      <trkpt lat="45.88519" lon="5.76049">
        <ele>1357.1</ele>
        <time>2021-08-20T16:30:39Z</time>
      </trkpt>
      <trkpt lat="45.88512" lon="5.76051">
        <ele>1356.9</ele>
        <time>2021-08-20T16:30:40Z</time>
      </trkpt>
      <trkpt lat="45.88505" lon="5.76054">
        <ele>1356.7</ele>
        <time>2021-08-20T16:30:41Z</time>
      </trkpt>
      <trkpt lat="45.8849" lon="5.7606">
        <ele>1356.1</ele>
        <time>2021-08-20T16:30:43Z</time>
      </trkpt>
      <trkpt lat="45.88475" lon="5.76068">
        <ele>1355.1</ele>
        <time>2021-08-20T16:30:45Z</time>
      </trkpt>
      <trkpt lat="45.88458" lon="5.76076">
        <ele>1353.5</ele>
        <time>2021-08-20T16:30:47Z</time>
      </trkpt>
      <trkpt lat="45.88439" lon="5.76084">
        <ele>1351.8</ele>
        <time>2021-08-20T16:30:49Z</time>
      </trkpt>
      <trkpt lat="45.8842" lon="5.76095">
        <ele>1349.8</ele>
        <time>2021-08-20T16:30:51Z</time>
      </trkpt>
      <trkpt lat="45.88409" lon="5.761">
        <ele>1348.7</ele>
        <time>2021-08-20T16:30:52Z</time>
      </trkpt>
      <trkpt lat="45.88387" lon="5.76111">
        <ele>1346.1</ele>
        <time>2021-08-20T16:30:54Z</time>
      </trkpt>
      <trkpt lat="45.88376" lon="5.76117">
        <ele>1344.8</ele>
        <time>2021-08-20T16:30:55Z</time>
      </trkpt>
      <trkpt lat="45.88365" lon="5.76123">
        <ele>1343.5</ele>
        <time>2021-08-20T16:30:56Z</time>
      </trkpt>
      <trkpt lat="45.88344" lon="5.76137">
        <ele>1340.9</ele>
        <time>2021-08-20T16:30:58Z</time>
      </trkpt>
      <trkpt lat="45.88333" lon="5.76144">
        <ele>1339.6</ele>
        <time>2021-08-20T16:30:59Z</time>
      </trkpt>
      <trkpt lat="45.88321" lon="5.76151">
        <ele>1338.4</ele>
        <time>2021-08-20T16:31:00Z</time>
      </trkpt>
      <trkpt lat="45.8831" lon="5.76159">
        <ele>1337.2</ele>
        <time>2021-08-20T16:31:01Z</time>
      </trkpt>
      <trkpt lat="45.88289" lon="5.76176">
        <ele>1334.9</ele>
        <time>2021-08-20T16:31:03Z</time>
      </trkpt>
      <trkpt lat="45.88279" lon="5.76183">
        <ele>1333.9</ele>
        <time>2021-08-20T16:31:04Z</time>
      </trkpt>
      <trkpt lat="45.88268" lon="5.76188">
        <ele>1332.9</ele>
        <time>2021-08-20T16:31:05Z</time>
      </trkpt>
      <trkpt lat="45.88246" lon="5.76195">
        <ele>1331.2</ele>
        <time>2021-08-20T16:31:07Z</time>
      </trkpt>
      <trkpt lat="45.88227" lon="5.76201">
        <ele>1329.8</ele>
        <time>2021-08-20T16:31:09Z</time>
      </trkpt>
      <trkpt lat="45.88216" lon="5.76201">
        <ele>1329.1</ele>
        <time>2021-08-20T16:31:10Z</time>
      </trkpt>
      <trkpt lat="45.88206" lon="5.76205">
        <ele>1328.3</ele>
        <time>2021-08-20T16:31:11Z</time>
      </trkpt>
      <trkpt lat="45.88188" lon="5.76218">
        <ele>1327</ele>
        <time>2021-08-20T16:31:13Z</time>
      </trkpt>
      <trkpt lat="45.88177" lon="5.76233">
        <ele>1326</ele>
        <time>2021-08-20T16:31:15Z</time>
      </trkpt>
      <trkpt lat="45.8818" lon="5.76246">
        <ele>1325.5</ele>
        <time>2021-08-20T16:31:17Z</time>
      </trkpt>
      <trkpt lat="45.88203" lon="5.76267">
        <ele>1324.5</ele>
        <time>2021-08-20T16:31:19Z</time>
      </trkpt>
      <trkpt lat="45.88226" lon="5.76275">
        <ele>1322.8</ele>
        <time>2021-08-20T16:31:21Z</time>
      </trkpt>
      <trkpt lat="45.88243" lon="5.76277">
        <ele>1320.9</ele>
        <time>2021-08-20T16:31:23Z</time>
      </trkpt>
      <trkpt lat="45.88247" lon="5.76278">
        <ele>1320.5</ele>
        <time>2021-08-20T16:31:24Z</time>
      </trkpt>
      <trkpt lat="45.8827" lon="5.76285">
        <ele>1317.4</ele>
        <time>2021-08-20T16:31:25Z</time>
      </trkpt>
      <trkpt lat="45.88283" lon="5.7629">
        <ele>1315.7</ele>
        <time>2021-08-20T16:31:27Z</time>
      </trkpt>
      <trkpt lat="45.88297" lon="5.76298">
        <ele>1313.8</ele>
        <time>2021-08-20T16:31:28Z</time>
      </trkpt>
      <trkpt lat="45.88309" lon="5.76306">
        <ele>1312.1</ele>
        <time>2021-08-20T16:31:29Z</time>
      </trkpt>
      <trkpt lat="45.88326" lon="5.7633">
        <ele>1309.2</ele>
        <time>2021-08-20T16:31:31Z</time>
      </trkpt>
      <trkpt lat="45.88332" lon="5.76345">
        <ele>1307.7</ele>
        <time>2021-08-20T16:31:32Z</time>
      </trkpt>
      <trkpt lat="45.88338" lon="5.76381">
        <ele>1304.5</ele>
        <time>2021-08-20T16:31:34Z</time>
      </trkpt>
      <trkpt lat="45.88341" lon="5.76427">
        <ele>1300.8</ele>
        <time>2021-08-20T16:31:36Z</time>
      </trkpt>
      <trkpt lat="45.88343" lon="5.76449">
        <ele>1299</ele>
        <time>2021-08-20T16:31:37Z</time>
      </trkpt>
      <trkpt lat="45.88351" lon="5.76492">
        <ele>1295.4</ele>
        <time>2021-08-20T16:31:39Z</time>
      </trkpt>
      <trkpt lat="45.88355" lon="5.76514">
        <ele>1293.6</ele>
        <time>2021-08-20T16:31:40Z</time>
      </trkpt>
      <trkpt lat="45.88359" lon="5.76534">
        <ele>1292.1</ele>
        <time>2021-08-20T16:31:41Z</time>
      </trkpt>
      <trkpt lat="45.88365" lon="5.76574">
        <ele>1289.8</ele>
        <time>2021-08-20T16:31:43Z</time>
      </trkpt>
      <trkpt lat="45.88369" lon="5.76613">
        <ele>1287.7</ele>
        <time>2021-08-20T16:31:45Z</time>
      </trkpt>
      <trkpt lat="45.88374" lon="5.76648">
        <ele>1285.8</ele>
        <time>2021-08-20T16:31:47Z</time>
      </trkpt>
      <trkpt lat="45.88381" lon="5.76685">
        <ele>1284</ele>
        <time>2021-08-20T16:31:49Z</time>
      </trkpt>
      <trkpt lat="45.88387" lon="5.76721">
        <ele>1282</ele>
        <time>2021-08-20T16:31:51Z</time>
      </trkpt>
      <trkpt lat="45.88393" lon="5.76753">
        <ele>1280.1</ele>
        <time>2021-08-20T16:31:53Z</time>
      </trkpt>
      <trkpt lat="45.88404" lon="5.76781">
        <ele>1278.3</ele>
        <time>2021-08-20T16:31:55Z</time>
      </trkpt>
      <trkpt lat="45.88414" lon="5.76807">
        <ele>1276.8</ele>
        <time>2021-08-20T16:31:57Z</time>
      </trkpt>
      <trkpt lat="45.88417" lon="5.7682">
        <ele>1276.2</ele>
        <time>2021-08-20T16:31:58Z</time>
      </trkpt>
      <trkpt lat="45.88416" lon="5.76835">
        <ele>1275.9</ele>
        <time>2021-08-20T16:31:59Z</time>
      </trkpt>
      <trkpt lat="45.8841" lon="5.76864">
        <ele>1274.7</ele>
        <time>2021-08-20T16:32:01Z</time>
      </trkpt>
      <trkpt lat="45.88398" lon="5.7689">
        <ele>1273.5</ele>
        <time>2021-08-20T16:32:03Z</time>
      </trkpt>
      <trkpt lat="45.88393" lon="5.76901">
        <ele>1273</ele>
        <time>2021-08-20T16:32:04Z</time>
      </trkpt>
      <trkpt lat="45.88389" lon="5.76925">
        <ele>1272.3</ele>
        <time>2021-08-20T16:32:06Z</time>
      </trkpt>
      <trkpt lat="45.88389" lon="5.76938">
        <ele>1272</ele>
        <time>2021-08-20T16:32:07Z</time>
      </trkpt>
      <trkpt lat="45.88395" lon="5.76961">
        <ele>1271.7</ele>
        <time>2021-08-20T16:32:09Z</time>
      </trkpt>
      <trkpt lat="45.88399" lon="5.76971">
        <ele>1271.6</ele>
        <time>2021-08-20T16:32:10Z</time>
      </trkpt>
      <trkpt lat="45.88407" lon="5.76992">
        <ele>1271.2</ele>
        <time>2021-08-20T16:32:12Z</time>
      </trkpt>
      <trkpt lat="45.88413" lon="5.77005">
        <ele>1271</ele>
        <time>2021-08-20T16:32:13Z</time>
      </trkpt>
      <trkpt lat="45.8842" lon="5.7703">
        <ele>1270.3</ele>
        <time>2021-08-20T16:32:15Z</time>
      </trkpt>
      <trkpt lat="45.88422" lon="5.77042">
        <ele>1269.9</ele>
        <time>2021-08-20T16:32:16Z</time>
      </trkpt>
      <trkpt lat="45.88422" lon="5.77053">
        <ele>1269.5</ele>
        <time>2021-08-20T16:32:17Z</time>
      </trkpt>
      <trkpt lat="45.88421" lon="5.77065">
        <ele>1269.2</ele>
        <time>2021-08-20T16:32:18Z</time>
      </trkpt>
      <trkpt lat="45.88419" lon="5.77076">
        <ele>1268.8</ele>
        <time>2021-08-20T16:32:19Z</time>
      </trkpt>
      <trkpt lat="45.88413" lon="5.77097">
        <ele>1268.3</ele>
        <time>2021-08-20T16:32:21Z</time>
      </trkpt>
      <trkpt lat="45.88404" lon="5.77115">
        <ele>1267.8</ele>
        <time>2021-08-20T16:32:23Z</time>
      </trkpt>
      <trkpt lat="45.88402" lon="5.77124">
        <ele>1267.5</ele>
        <time>2021-08-20T16:32:24Z</time>
      </trkpt>
      <trkpt lat="45.884" lon="5.77135">
        <ele>1267.1</ele>
        <time>2021-08-20T16:32:25Z</time>
      </trkpt>
      <trkpt lat="45.88393" lon="5.77155">
        <ele>1266.1</ele>
        <time>2021-08-20T16:32:27Z</time>
      </trkpt>
      <trkpt lat="45.88389" lon="5.77165">
        <ele>1265.5</ele>
        <time>2021-08-20T16:32:28Z</time>
      </trkpt>
      <trkpt lat="45.88378" lon="5.77185">
        <ele>1264.1</ele>
        <time>2021-08-20T16:32:30Z</time>
      </trkpt>
      <trkpt lat="45.88373" lon="5.77194">
        <ele>1263.3</ele>
        <time>2021-08-20T16:32:31Z</time>
      </trkpt>
      <trkpt lat="45.88366" lon="5.77217">
        <ele>1261.7</ele>
        <time>2021-08-20T16:32:33Z</time>
      </trkpt>
      <trkpt lat="45.88363" lon="5.77229">
        <ele>1261</ele>
        <time>2021-08-20T16:32:34Z</time>
      </trkpt>
      <trkpt lat="45.8836" lon="5.77241">
        <ele>1260.3</ele>
        <time>2021-08-20T16:32:35Z</time>
      </trkpt>
      <trkpt lat="45.88353" lon="5.77269">
        <ele>1258.6</ele>
        <time>2021-08-20T16:32:37Z</time>
      </trkpt>
      <trkpt lat="45.88351" lon="5.77296">
        <ele>1256.9</ele>
        <time>2021-08-20T16:32:39Z</time>
      </trkpt>
      <trkpt lat="45.88351" lon="5.7731">
        <ele>1256.1</ele>
        <time>2021-08-20T16:32:40Z</time>
      </trkpt>
      <trkpt lat="45.8835" lon="5.77324">
        <ele>1255.4</ele>
        <time>2021-08-20T16:32:41Z</time>
      </trkpt>
      <trkpt lat="45.8834" lon="5.7735">
        <ele>1254.1</ele>
        <time>2021-08-20T16:32:43Z</time>
      </trkpt>
      <trkpt lat="45.88323" lon="5.77374">
        <ele>1252.9</ele>
        <time>2021-08-20T16:32:45Z</time>
      </trkpt>
      <trkpt lat="45.88316" lon="5.77399">
        <ele>1252.3</ele>
        <time>2021-08-20T16:32:47Z</time>
      </trkpt>
      <trkpt lat="45.88313" lon="5.77411">
        <ele>1252</ele>
        <time>2021-08-20T16:32:48Z</time>
      </trkpt>
      <trkpt lat="45.88309" lon="5.77421">
        <ele>1251.8</ele>
        <time>2021-08-20T16:32:49Z</time>
      </trkpt>
      <trkpt lat="45.88299" lon="5.77438">
        <ele>1251.5</ele>
        <time>2021-08-20T16:32:51Z</time>
      </trkpt>
      <trkpt lat="45.88288" lon="5.77449">
        <ele>1251.2</ele>
        <time>2021-08-20T16:32:53Z</time>
      </trkpt>
      <trkpt lat="45.88274" lon="5.77452">
        <ele>1251.1</ele>
        <time>2021-08-20T16:32:55Z</time>
      </trkpt>
      <trkpt lat="45.88256" lon="5.77451">
        <ele>1250.9</ele>
        <time>2021-08-20T16:32:57Z</time>
      </trkpt>
      <trkpt lat="45.88237" lon="5.77453">
        <ele>1251</ele>
        <time>2021-08-20T16:32:59Z</time>
      </trkpt>
      <trkpt lat="45.88221" lon="5.77459">
        <ele>1251.2</ele>
        <time>2021-08-20T16:33:01Z</time>
      </trkpt>
      <trkpt lat="45.88205" lon="5.77464">
        <ele>1251.4</ele>
        <time>2021-08-20T16:33:03Z</time>
      </trkpt>
      <trkpt lat="45.88198" lon="5.77465">
        <ele>1251.5</ele>
        <time>2021-08-20T16:33:04Z</time>
      </trkpt>
      <trkpt lat="45.88192" lon="5.77464">
        <ele>1251.6</ele>
        <time>2021-08-20T16:33:05Z</time>
      </trkpt>
      <trkpt lat="45.88185" lon="5.77464">
        <ele>1251.7</ele>
        <time>2021-08-20T16:33:07Z</time>
      </trkpt>
      <trkpt lat="45.88176" lon="5.77468">
        <ele>1251.9</ele>
        <time>2021-08-20T16:33:09Z</time>
      </trkpt>
      <trkpt lat="45.88172" lon="5.7747">
        <ele>1252</ele>
        <time>2021-08-20T16:33:10Z</time>
      </trkpt>
      <trkpt lat="45.88162" lon="5.77473">
        <ele>1252.3</ele>
        <time>2021-08-20T16:33:12Z</time>
      </trkpt>
      <trkpt lat="45.88158" lon="5.77475">
        <ele>1252.4</ele>
        <time>2021-08-20T16:33:13Z</time>
      </trkpt>
      <trkpt lat="45.88148" lon="5.77479">
        <ele>1252.8</ele>
        <time>2021-08-20T16:33:15Z</time>
      </trkpt>
      <trkpt lat="45.87984" lon="5.77539">
        <ele>1258.1</ele>
        <time>2021-08-20T16:34:00Z</time>
      </trkpt>
      <trkpt lat="45.8798" lon="5.77543">
        <ele>1258.3</ele>
        <time>2021-08-20T16:34:01Z</time>
      </trkpt>
      <trkpt lat="45.87978" lon="5.77547">
        <ele>1258.3</ele>
        <time>2021-08-20T16:34:02Z</time>
      </trkpt>
      <trkpt lat="45.87976" lon="5.7755">
        <ele>1258.4</ele>
        <time>2021-08-20T16:34:04Z</time>
      </trkpt>
      <trkpt lat="45.87973" lon="5.77552">
        <ele>1258.5</ele>
        <time>2021-08-20T16:34:05Z</time>
      </trkpt>
      <trkpt lat="45.8797" lon="5.77553">
        <ele>1258.5</ele>
        <time>2021-08-20T16:34:07Z</time>
      </trkpt>
      <trkpt lat="45.87969" lon="5.77554">
        <ele>1258.6</ele>
        <time>2021-08-20T16:34:08Z</time>
      </trkpt>
      <trkpt lat="45.87967" lon="5.77554">
        <ele>1258.6</ele>
        <time>2021-08-20T16:34:09Z</time>
      </trkpt>
      <trkpt lat="45.87956" lon="5.77554">
        <ele>1258.8</ele>
        <time>2021-08-20T16:34:10Z</time>
      </trkpt>
      <trkpt lat="45.87946" lon="5.77553">
        <ele>1259</ele>
        <time>2021-08-20T16:34:11Z</time>
      </trkpt>
      <trkpt lat="45.87943" lon="5.77553">
        <ele>1259</ele>
        <time>2021-08-20T16:34:12Z</time>
      </trkpt>
      <trkpt lat="45.87937" lon="5.77552">
        <ele>1259.1</ele>
        <time>2021-08-20T16:34:14Z</time>
      </trkpt>
      <trkpt lat="45.87933" lon="5.77552">
        <ele>1259.2</ele>
        <time>2021-08-20T16:34:16Z</time>
      </trkpt>
      <trkpt lat="45.87932" lon="5.77553">
        <ele>1259.2</ele>
        <time>2021-08-20T16:34:17Z</time>
      </trkpt>
      <trkpt lat="45.87929" lon="5.77555">
        <ele>1259.2</ele>
        <time>2021-08-20T16:34:19Z</time>
      </trkpt>
      <trkpt lat="45.87927" lon="5.77555">
        <ele>1259.3</ele>
        <time>2021-08-20T16:34:20Z</time>
      </trkpt>
      <trkpt lat="45.8792" lon="5.77556">
        <ele>1259.3</ele>
        <time>2021-08-20T16:34:22Z</time>
      </trkpt>
      <trkpt lat="45.87908" lon="5.77558">
        <ele>1259.3</ele>
        <time>2021-08-20T16:34:23Z</time>
      </trkpt>
      <trkpt lat="45.87895" lon="5.77558">
        <ele>1259.2</ele>
        <time>2021-08-20T16:34:24Z</time>
      </trkpt>
      <trkpt lat="45.87891" lon="5.77558">
        <ele>1259.1</ele>
        <time>2021-08-20T16:34:26Z</time>
      </trkpt>
      <trkpt lat="45.87889" lon="5.77557">
        <ele>1259.1</ele>
        <time>2021-08-20T16:34:27Z</time>
      </trkpt>
      <trkpt lat="45.87889" lon="5.77557">
        <ele>1259.1</ele>
        <time>2021-08-20T16:34:29Z</time>
      </trkpt>
      <trkpt lat="45.87888" lon="5.77556">
        <ele>1259.1</ele>
        <time>2021-08-20T16:34:30Z</time>
      </trkpt>
      <trkpt lat="45.87888" lon="5.77556">
        <ele>1259</ele>
        <time>2021-08-20T16:34:31Z</time>
      </trkpt>
      <trkpt lat="45.87885" lon="5.77557">
        <ele>1259</ele>
        <time>2021-08-20T16:34:33Z</time>
      </trkpt>
      <trkpt lat="45.87876" lon="5.77563">
        <ele>1258.8</ele>
        <time>2021-08-20T16:34:34Z</time>
      </trkpt>
      <trkpt lat="45.87865" lon="5.77569">
        <ele>1258.6</ele>
        <time>2021-08-20T16:34:35Z</time>
      </trkpt>
      <trkpt lat="45.87858" lon="5.77572">
        <ele>1258.5</ele>
        <time>2021-08-20T16:34:36Z</time>
      </trkpt>
      <trkpt lat="45.87852" lon="5.77575">
        <ele>1258.4</ele>
        <time>2021-08-20T16:34:38Z</time>
      </trkpt>
      <trkpt lat="45.87849" lon="5.77575">
        <ele>1258.3</ele>
        <time>2021-08-20T16:34:40Z</time>
      </trkpt>
      <trkpt lat="45.87844" lon="5.77575">
        <ele>1258.3</ele>
        <time>2021-08-20T16:34:41Z</time>
      </trkpt>
      <trkpt lat="45.87842" lon="5.77575">
        <ele>1258.2</ele>
        <time>2021-08-20T16:34:42Z</time>
      </trkpt>
      <trkpt lat="45.87839" lon="5.77575">
        <ele>1258.1</ele>
        <time>2021-08-20T16:34:44Z</time>
      </trkpt>
      <trkpt lat="45.87835" lon="5.77575">
        <ele>1258.1</ele>
        <time>2021-08-20T16:34:45Z</time>
      </trkpt>
      <trkpt lat="45.87834" lon="5.77575">
        <ele>1258.1</ele>
        <time>2021-08-20T16:34:46Z</time>
      </trkpt>
      <trkpt lat="45.87829" lon="5.77574">
        <ele>1258</ele>
        <time>2021-08-20T16:34:47Z</time>
      </trkpt>
      <trkpt lat="45.87824" lon="5.77572">
        <ele>1257.9</ele>
        <time>2021-08-20T16:34:48Z</time>
      </trkpt>
      <trkpt lat="45.8782" lon="5.77571">
        <ele>1257.8</ele>
        <time>2021-08-20T16:34:49Z</time>
      </trkpt>
      <trkpt lat="45.87816" lon="5.7757">
        <ele>1257.7</ele>
        <time>2021-08-20T16:34:50Z</time>
      </trkpt>
      <trkpt lat="45.87814" lon="5.7757">
        <ele>1257.7</ele>
        <time>2021-08-20T16:34:51Z</time>
      </trkpt>
      <trkpt lat="45.87812" lon="5.7757">
        <ele>1257.7</ele>
        <time>2021-08-20T16:34:53Z</time>
      </trkpt>
      <trkpt lat="45.87811" lon="5.77569">
        <ele>1257.6</ele>
        <time>2021-08-20T16:34:54Z</time>
      </trkpt>
      <trkpt lat="45.87809" lon="5.77569">
        <ele>1257.6</ele>
        <time>2021-08-20T16:34:55Z</time>
      </trkpt>
      <trkpt lat="45.87807" lon="5.77569">
        <ele>1257.6</ele>
        <time>2021-08-20T16:34:57Z</time>
      </trkpt>
      <trkpt lat="45.87806" lon="5.77569">
        <ele>1257.5</ele>
        <time>2021-08-20T16:34:58Z</time>
      </trkpt>
      <trkpt lat="45.87804" lon="5.77568">
        <ele>1257.5</ele>
        <time>2021-08-20T16:34:59Z</time>
      </trkpt>
      <trkpt lat="45.87802" lon="5.77567">
        <ele>1257.4</ele>
        <time>2021-08-20T16:35:01Z</time>
      </trkpt>
      <trkpt lat="45.878" lon="5.77567">
        <ele>1257.4</ele>
        <time>2021-08-20T16:35:02Z</time>
      </trkpt>
      <trkpt lat="45.87798" lon="5.77566">
        <ele>1257.3</ele>
        <time>2021-08-20T16:35:04Z</time>
      </trkpt>
      <trkpt lat="45.87794" lon="5.77566">
        <ele>1257.3</ele>
        <time>2021-08-20T16:35:06Z</time>
      </trkpt>
      <trkpt lat="45.87793" lon="5.77566">
        <ele>1257.2</ele>
        <time>2021-08-20T16:35:07Z</time>
      </trkpt>
      <trkpt lat="45.8779" lon="5.77565">
        <ele>1257.2</ele>
        <time>2021-08-20T16:35:09Z</time>
      </trkpt>
      <trkpt lat="45.87786" lon="5.77565">
        <ele>1257.1</ele>
        <time>2021-08-20T16:35:10Z</time>
      </trkpt>
      <trkpt lat="45.87775" lon="5.77566">
        <ele>1256.8</ele>
        <time>2021-08-20T16:35:12Z</time>
      </trkpt>
      <trkpt lat="45.87727" lon="5.7759">
        <ele>1255.1</ele>
        <time>2021-08-20T16:35:13Z</time>
      </trkpt>
      <trkpt lat="45.87703" lon="5.77603">
        <ele>1254.3</ele>
        <time>2021-08-20T16:35:14Z</time>
      </trkpt>
      <trkpt lat="45.87681" lon="5.77615">
        <ele>1253.4</ele>
        <time>2021-08-20T16:35:15Z</time>
      </trkpt>
      <trkpt lat="45.87669" lon="5.7762">
        <ele>1252.9</ele>
        <time>2021-08-20T16:35:17Z</time>
      </trkpt>
      <trkpt lat="45.87613" lon="5.77651">
        <ele>1249.8</ele>
        <time>2021-08-20T16:35:18Z</time>
      </trkpt>
      <trkpt lat="45.87595" lon="5.77659">
        <ele>1249</ele>
        <time>2021-08-20T16:35:20Z</time>
      </trkpt>
      <trkpt lat="45.87571" lon="5.77662">
        <ele>1247.8</ele>
        <time>2021-08-20T16:35:22Z</time>
      </trkpt>
      <trkpt lat="45.8756" lon="5.77662">
        <ele>1247.2</ele>
        <time>2021-08-20T16:35:23Z</time>
      </trkpt>
      <trkpt lat="45.8754" lon="5.77658">
        <ele>1245.9</ele>
        <time>2021-08-20T16:35:25Z</time>
      </trkpt>
      <trkpt lat="45.8752" lon="5.77651">
        <ele>1244.6</ele>
        <time>2021-08-20T16:35:27Z</time>
      </trkpt>
      <trkpt lat="45.8751" lon="5.7765">
        <ele>1243.9</ele>
        <time>2021-08-20T16:35:28Z</time>
      </trkpt>
      <trkpt lat="45.87488" lon="5.77645">
        <ele>1242.1</ele>
        <time>2021-08-20T16:35:30Z</time>
      </trkpt>
      <trkpt lat="45.87477" lon="5.77644">
        <ele>1241.1</ele>
        <time>2021-08-20T16:35:31Z</time>
      </trkpt>
      <trkpt lat="45.87454" lon="5.77648">
        <ele>1238.8</ele>
        <time>2021-08-20T16:35:33Z</time>
      </trkpt>
      <trkpt lat="45.87441" lon="5.77649">
        <ele>1237.3</ele>
        <time>2021-08-20T16:35:34Z</time>
      </trkpt>
      <trkpt lat="45.87425" lon="5.77653">
        <ele>1235.4</ele>
        <time>2021-08-20T16:35:35Z</time>
      </trkpt>
      <trkpt lat="45.87409" lon="5.77656">
        <ele>1233.3</ele>
        <time>2021-08-20T16:35:36Z</time>
      </trkpt>
      <trkpt lat="45.87392" lon="5.77656">
        <ele>1231.2</ele>
        <time>2021-08-20T16:35:37Z</time>
      </trkpt>
      <trkpt lat="45.87358" lon="5.77655">
        <ele>1228.1</ele>
        <time>2021-08-20T16:35:39Z</time>
      </trkpt>
      <trkpt lat="45.87327" lon="5.77656">
        <ele>1226.3</ele>
        <time>2021-08-20T16:35:41Z</time>
      </trkpt>
      <trkpt lat="45.87299" lon="5.77652">
        <ele>1225.1</ele>
        <time>2021-08-20T16:35:43Z</time>
      </trkpt>
      <trkpt lat="45.87271" lon="5.7764">
        <ele>1223.6</ele>
        <time>2021-08-20T16:35:45Z</time>
      </trkpt>
      <trkpt lat="45.87257" lon="5.77631">
        <ele>1222.9</ele>
        <time>2021-08-20T16:35:46Z</time>
      </trkpt>
      <trkpt lat="45.8723" lon="5.77612">
        <ele>1221.8</ele>
        <time>2021-08-20T16:35:48Z</time>
      </trkpt>
      <trkpt lat="45.87216" lon="5.77602">
        <ele>1221.3</ele>
        <time>2021-08-20T16:35:49Z</time>
      </trkpt>
      <trkpt lat="45.87195" lon="5.77588">
        <ele>1220.1</ele>
        <time>2021-08-20T16:35:51Z</time>
      </trkpt>
      <trkpt lat="45.87186" lon="5.77581">
        <ele>1219.3</ele>
        <time>2021-08-20T16:35:52Z</time>
      </trkpt>
      <trkpt lat="45.87179" lon="5.77576">
        <ele>1219</ele>
        <time>2021-08-20T16:35:53Z</time>
      </trkpt>
      <trkpt lat="45.87166" lon="5.77572">
        <ele>1219</ele>
        <time>2021-08-20T16:35:55Z</time>
      </trkpt>
      <trkpt lat="45.87157" lon="5.77579">
        <ele>1219</ele>
        <time>2021-08-20T16:35:57Z</time>
      </trkpt>
      <trkpt lat="45.87156" lon="5.77584">
        <ele>1219</ele>
        <time>2021-08-20T16:35:58Z</time>
      </trkpt>
      <trkpt lat="45.87159" lon="5.77588">
        <ele>1218.9</ele>
        <time>2021-08-20T16:35:59Z</time>
      </trkpt>
      <trkpt lat="45.87164" lon="5.77596">
        <ele>1219</ele>
        <time>2021-08-20T16:36:00Z</time>
      </trkpt>
      <trkpt lat="45.87179" lon="5.77618">
        <ele>1217.9</ele>
        <time>2021-08-20T16:36:02Z</time>
      </trkpt>
      <trkpt lat="45.87187" lon="5.77633">
        <ele>1216.7</ele>
        <time>2021-08-20T16:36:03Z</time>
      </trkpt>
      <trkpt lat="45.87203" lon="5.77666">
        <ele>1214.4</ele>
        <time>2021-08-20T16:36:05Z</time>
      </trkpt>
      <trkpt lat="45.87209" lon="5.77676">
        <ele>1213.7</ele>
        <time>2021-08-20T16:36:06Z</time>
      </trkpt>
      <trkpt lat="45.87219" lon="5.77692">
        <ele>1212.4</ele>
        <time>2021-08-20T16:36:07Z</time>
      </trkpt>
      <trkpt lat="45.87238" lon="5.7772">
        <ele>1209.8</ele>
        <time>2021-08-20T16:36:09Z</time>
      </trkpt>
      <trkpt lat="45.87248" lon="5.77729">
        <ele>1208.7</ele>
        <time>2021-08-20T16:36:10Z</time>
      </trkpt>
      <trkpt lat="45.87268" lon="5.77746">
        <ele>1206.5</ele>
        <time>2021-08-20T16:36:12Z</time>
      </trkpt>
      <trkpt lat="45.87279" lon="5.77752">
        <ele>1205.3</ele>
        <time>2021-08-20T16:36:13Z</time>
      </trkpt>
      <trkpt lat="45.87301" lon="5.77768">
        <ele>1203</ele>
        <time>2021-08-20T16:36:15Z</time>
      </trkpt>
      <trkpt lat="45.87312" lon="5.77776">
        <ele>1201.8</ele>
        <time>2021-08-20T16:36:16Z</time>
      </trkpt>
      <trkpt lat="45.87323" lon="5.77784">
        <ele>1200.5</ele>
        <time>2021-08-20T16:36:17Z</time>
      </trkpt>
      <trkpt lat="45.87345" lon="5.77798">
        <ele>1198.1</ele>
        <time>2021-08-20T16:36:19Z</time>
      </trkpt>
      <trkpt lat="45.87365" lon="5.77813">
        <ele>1196.1</ele>
        <time>2021-08-20T16:36:21Z</time>
      </trkpt>
      <trkpt lat="45.87375" lon="5.77821">
        <ele>1195.2</ele>
        <time>2021-08-20T16:36:22Z</time>
      </trkpt>
      <trkpt lat="45.87386" lon="5.77828">
        <ele>1194.4</ele>
        <time>2021-08-20T16:36:23Z</time>
      </trkpt>
      <trkpt lat="45.87405" lon="5.77844">
        <ele>1193.4</ele>
        <time>2021-08-20T16:36:25Z</time>
      </trkpt>
      <trkpt lat="45.87425" lon="5.77862">
        <ele>1192.9</ele>
        <time>2021-08-20T16:36:27Z</time>
      </trkpt>
      <trkpt lat="45.87435" lon="5.7787">
        <ele>1192.8</ele>
        <time>2021-08-20T16:36:28Z</time>
      </trkpt>
      <trkpt lat="45.87444" lon="5.77878">
        <ele>1192.6</ele>
        <time>2021-08-20T16:36:29Z</time>
      </trkpt>
      <trkpt lat="45.87453" lon="5.77885">
        <ele>1192.3</ele>
        <time>2021-08-20T16:36:30Z</time>
      </trkpt>
      <trkpt lat="45.87461" lon="5.77889">
        <ele>1192.1</ele>
        <time>2021-08-20T16:36:31Z</time>
      </trkpt>
      <trkpt lat="45.87478" lon="5.77896">
        <ele>1191.5</ele>
        <time>2021-08-20T16:36:33Z</time>
      </trkpt>
      <trkpt lat="45.87486" lon="5.77899">
        <ele>1191.2</ele>
        <time>2021-08-20T16:36:34Z</time>
      </trkpt>
      <trkpt lat="45.87495" lon="5.77901">
        <ele>1190.8</ele>
        <time>2021-08-20T16:36:35Z</time>
      </trkpt>
      <trkpt lat="45.87511" lon="5.77904">
        <ele>1190</ele>
        <time>2021-08-20T16:36:37Z</time>
      </trkpt>
      <trkpt lat="45.87524" lon="5.77901">
        <ele>1189.4</ele>
        <time>2021-08-20T16:36:39Z</time>
      </trkpt>
      <trkpt lat="45.87531" lon="5.779">
        <ele>1189</ele>
        <time>2021-08-20T16:36:40Z</time>
      </trkpt>
      <trkpt lat="45.87544" lon="5.77898">
        <ele>1188.3</ele>
        <time>2021-08-20T16:36:42Z</time>
      </trkpt>
      <trkpt lat="45.87552" lon="5.77896">
        <ele>1188</ele>
        <time>2021-08-20T16:36:43Z</time>
      </trkpt>
      <trkpt lat="45.87568" lon="5.77886">
        <ele>1187.3</ele>
        <time>2021-08-20T16:36:45Z</time>
      </trkpt>
      <trkpt lat="45.87583" lon="5.77876">
        <ele>1187.1</ele>
        <time>2021-08-20T16:36:47Z</time>
      </trkpt>
      <trkpt lat="45.87591" lon="5.77871">
        <ele>1187.1</ele>
        <time>2021-08-20T16:36:48Z</time>
      </trkpt>
      <trkpt lat="45.876" lon="5.77866">
        <ele>1187.2</ele>
        <time>2021-08-20T16:36:49Z</time>
      </trkpt>
      <trkpt lat="45.87616" lon="5.77859">
        <ele>1187.7</ele>
        <time>2021-08-20T16:36:51Z</time>
      </trkpt>
      <trkpt lat="45.87634" lon="5.77858">
        <ele>1188.2</ele>
        <time>2021-08-20T16:36:53Z</time>
      </trkpt>
      <trkpt lat="45.8765" lon="5.77859">
        <ele>1188.8</ele>
        <time>2021-08-20T16:36:55Z</time>
      </trkpt>
      <trkpt lat="45.87666" lon="5.77862">
        <ele>1189.2</ele>
        <time>2021-08-20T16:36:57Z</time>
      </trkpt>
      <trkpt lat="45.87675" lon="5.77863">
        <ele>1189.5</ele>
        <time>2021-08-20T16:36:58Z</time>
      </trkpt>
      <trkpt lat="45.87683" lon="5.77863">
        <ele>1189.7</ele>
        <time>2021-08-20T16:36:59Z</time>
      </trkpt>
      <trkpt lat="45.877" lon="5.77865">
        <ele>1190</ele>
        <time>2021-08-20T16:37:01Z</time>
      </trkpt>
      <trkpt lat="45.87718" lon="5.77861">
        <ele>1190.3</ele>
        <time>2021-08-20T16:37:03Z</time>
      </trkpt>
      <trkpt lat="45.87726" lon="5.7786">
        <ele>1190.3</ele>
        <time>2021-08-20T16:37:04Z</time>
      </trkpt>
      <trkpt lat="45.87734" lon="5.7786">
        <ele>1190.3</ele>
        <time>2021-08-20T16:37:05Z</time>
      </trkpt>
      <trkpt lat="45.87749" lon="5.77859">
        <ele>1190.2</ele>
        <time>2021-08-20T16:37:07Z</time>
      </trkpt>
      <trkpt lat="45.87757" lon="5.77861">
        <ele>1190.1</ele>
        <time>2021-08-20T16:37:09Z</time>
      </trkpt>
      <trkpt lat="45.8776" lon="5.77863">
        <ele>1190</ele>
        <time>2021-08-20T16:37:10Z</time>
      </trkpt>
      <trkpt lat="45.8777" lon="5.77867">
        <ele>1189.6</ele>
        <time>2021-08-20T16:37:12Z</time>
      </trkpt>
      <trkpt lat="45.87774" lon="5.77868">
        <ele>1189.4</ele>
        <time>2021-08-20T16:37:13Z</time>
      </trkpt>
      <trkpt lat="45.87782" lon="5.77871">
        <ele>1188.8</ele>
        <time>2021-08-20T16:37:15Z</time>
      </trkpt>
      <trkpt lat="45.87792" lon="5.77874">
        <ele>1188</ele>
        <time>2021-08-20T16:37:17Z</time>
      </trkpt>
      <trkpt lat="45.87792" lon="5.77874">
        <ele>1188</ele>
        <time>2021-08-20T16:37:17Z</time>
      </trkpt>
      <trkpt lat="45.87795" lon="5.77877">
        <ele>1187.6</ele>
        <time>2021-08-20T16:37:18Z</time>
      </trkpt>
      <trkpt lat="45.878" lon="5.77879">
        <ele>1187.2</ele>
        <time>2021-08-20T16:37:19Z</time>
      </trkpt>
      <trkpt lat="45.87808" lon="5.77883">
        <ele>1186.3</ele>
        <time>2021-08-20T16:37:21Z</time>
      </trkpt>
      <trkpt lat="45.87823" lon="5.77886">
        <ele>1184.8</ele>
        <time>2021-08-20T16:37:23Z</time>
      </trkpt>
      <trkpt lat="45.8783" lon="5.77888">
        <ele>1183.9</ele>
        <time>2021-08-20T16:37:24Z</time>
      </trkpt>
      <trkpt lat="45.87837" lon="5.77892">
        <ele>1183</ele>
        <time>2021-08-20T16:37:25Z</time>
      </trkpt>
      <trkpt lat="45.87851" lon="5.77897">
        <ele>1181.4</ele>
        <time>2021-08-20T16:37:27Z</time>
      </trkpt>
      <trkpt lat="45.87864" lon="5.77903">
        <ele>1179.7</ele>
        <time>2021-08-20T16:37:29Z</time>
      </trkpt>
      <trkpt lat="45.87871" lon="5.77905">
        <ele>1178.9</ele>
        <time>2021-08-20T16:37:30Z</time>
      </trkpt>
      <trkpt lat="45.87879" lon="5.77907">
        <ele>1178</ele>
        <time>2021-08-20T16:37:31Z</time>
      </trkpt>
      <trkpt lat="45.87895" lon="5.77914">
        <ele>1176.2</ele>
        <time>2021-08-20T16:37:33Z</time>
      </trkpt>
      <trkpt lat="45.87903" lon="5.77918">
        <ele>1175.2</ele>
        <time>2021-08-20T16:37:34Z</time>
      </trkpt>
      <trkpt lat="45.87923" lon="5.77923">
        <ele>1172.8</ele>
        <time>2021-08-20T16:37:36Z</time>
      </trkpt>
      <trkpt lat="45.87934" lon="5.77925">
        <ele>1171.4</ele>
        <time>2021-08-20T16:37:37Z</time>
      </trkpt>
      <trkpt lat="45.87958" lon="5.77928">
        <ele>1168.2</ele>
        <time>2021-08-20T16:37:39Z</time>
      </trkpt>
      <trkpt lat="45.8797" lon="5.77929">
        <ele>1166.6</ele>
        <time>2021-08-20T16:37:40Z</time>
      </trkpt>
      <trkpt lat="45.87981" lon="5.77931">
        <ele>1165.1</ele>
        <time>2021-08-20T16:37:41Z</time>
      </trkpt>
      <trkpt lat="45.88004" lon="5.77933">
        <ele>1162.1</ele>
        <time>2021-08-20T16:37:43Z</time>
      </trkpt>
      <trkpt lat="45.88027" lon="5.77934">
        <ele>1158.9</ele>
        <time>2021-08-20T16:37:45Z</time>
      </trkpt>
      <trkpt lat="45.88051" lon="5.77934">
        <ele>1155.9</ele>
        <time>2021-08-20T16:37:47Z</time>
      </trkpt>
      <trkpt lat="45.88074" lon="5.77937">
        <ele>1152.8</ele>
        <time>2021-08-20T16:37:49Z</time>
      </trkpt>
      <trkpt lat="45.88097" lon="5.77944">
        <ele>1149.7</ele>
        <time>2021-08-20T16:37:51Z</time>
      </trkpt>
      <trkpt lat="45.88109" lon="5.77947">
        <ele>1148.1</ele>
        <time>2021-08-20T16:37:52Z</time>
      </trkpt>
      <trkpt lat="45.88122" lon="5.77949">
        <ele>1146.4</ele>
        <time>2021-08-20T16:37:53Z</time>
      </trkpt>
      <trkpt lat="45.88135" lon="5.77949">
        <ele>1144.7</ele>
        <time>2021-08-20T16:37:54Z</time>
      </trkpt>
      <trkpt lat="45.88148" lon="5.7795">
        <ele>1143</ele>
        <time>2021-08-20T16:37:55Z</time>
      </trkpt>
      <trkpt lat="45.88173" lon="5.7795">
        <ele>1139.5</ele>
        <time>2021-08-20T16:37:57Z</time>
      </trkpt>
      <trkpt lat="45.88187" lon="5.7795">
        <ele>1137.7</ele>
        <time>2021-08-20T16:37:58Z</time>
      </trkpt>
      <trkpt lat="45.882" lon="5.7795">
        <ele>1135.9</ele>
        <time>2021-08-20T16:37:59Z</time>
      </trkpt>
      <trkpt lat="45.88227" lon="5.77951">
        <ele>1132.3</ele>
        <time>2021-08-20T16:38:01Z</time>
      </trkpt>
      <trkpt lat="45.88252" lon="5.77956">
        <ele>1129</ele>
        <time>2021-08-20T16:38:03Z</time>
      </trkpt>
      <trkpt lat="45.88266" lon="5.77956">
        <ele>1127.2</ele>
        <time>2021-08-20T16:38:04Z</time>
      </trkpt>
      <trkpt lat="45.88281" lon="5.77956">
        <ele>1125.4</ele>
        <time>2021-08-20T16:38:05Z</time>
      </trkpt>
      <trkpt lat="45.8831" lon="5.77957">
        <ele>1122</ele>
        <time>2021-08-20T16:38:07Z</time>
      </trkpt>
      <trkpt lat="45.88337" lon="5.77959">
        <ele>1118.8</ele>
        <time>2021-08-20T16:38:09Z</time>
      </trkpt>
      <trkpt lat="45.88351" lon="5.77962">
        <ele>1117.1</ele>
        <time>2021-08-20T16:38:10Z</time>
      </trkpt>
      <trkpt lat="45.88364" lon="5.77966">
        <ele>1115.5</ele>
        <time>2021-08-20T16:38:11Z</time>
      </trkpt>
      <trkpt lat="45.88391" lon="5.77972">
        <ele>1112.1</ele>
        <time>2021-08-20T16:38:13Z</time>
      </trkpt>
      <trkpt lat="45.8842" lon="5.77973">
        <ele>1108.9</ele>
        <time>2021-08-20T16:38:15Z</time>
      </trkpt>
      <trkpt lat="45.88435" lon="5.77974">
        <ele>1107.4</ele>
        <time>2021-08-20T16:38:16Z</time>
      </trkpt>
      <trkpt lat="45.88449" lon="5.77976">
        <ele>1106</ele>
        <time>2021-08-20T16:38:17Z</time>
      </trkpt>
      <trkpt lat="45.88476" lon="5.77981">
        <ele>1103.5</ele>
        <time>2021-08-20T16:38:19Z</time>
      </trkpt>
      <trkpt lat="45.88501" lon="5.77984">
        <ele>1101.2</ele>
        <time>2021-08-20T16:38:21Z</time>
      </trkpt>
      <trkpt lat="45.88526" lon="5.77987">
        <ele>1098.5</ele>
        <time>2021-08-20T16:38:23Z</time>
      </trkpt>
      <trkpt lat="45.88553" lon="5.77989">
        <ele>1095.6</ele>
        <time>2021-08-20T16:38:25Z</time>
      </trkpt>
      <trkpt lat="45.88578" lon="5.77991">
        <ele>1092.9</ele>
        <time>2021-08-20T16:38:27Z</time>
      </trkpt>
      <trkpt lat="45.88604" lon="5.77996">
        <ele>1090.3</ele>
        <time>2021-08-20T16:38:29Z</time>
      </trkpt>
      <trkpt lat="45.88616" lon="5.77999">
        <ele>1089.1</ele>
        <time>2021-08-20T16:38:30Z</time>
      </trkpt>
      <trkpt lat="45.88629" lon="5.78003">
        <ele>1087.9</ele>
        <time>2021-08-20T16:38:31Z</time>
      </trkpt>
      <trkpt lat="45.88653" lon="5.78017">
        <ele>1081.7</ele>
        <time>2021-08-20T16:38:33Z</time>
      </trkpt>
      <trkpt lat="45.88665" lon="5.78025">
        <ele>1076.4</ele>
        <time>2021-08-20T16:38:34Z</time>
      </trkpt>
      <trkpt lat="45.88689" lon="5.78042">
        <ele>1067.6</ele>
        <time>2021-08-20T16:38:36Z</time>
      </trkpt>
      <trkpt lat="45.887" lon="5.78053">
        <ele>1060.9</ele>
        <time>2021-08-20T16:38:37Z</time>
      </trkpt>
      <trkpt lat="45.88722" lon="5.78073">
        <ele>1055.6</ele>
        <time>2021-08-20T16:38:39Z</time>
      </trkpt>
      <trkpt lat="45.88733" lon="5.78082">
        <ele>1052.2</ele>
        <time>2021-08-20T16:38:40Z</time>
      </trkpt>
      <trkpt lat="45.88743" lon="5.78097">
        <ele>1044.5</ele>
        <time>2021-08-20T16:38:41Z</time>
      </trkpt>
      <trkpt lat="45.88766" lon="5.78126">
        <ele>1034</ele>
        <time>2021-08-20T16:38:43Z</time>
      </trkpt>
      <trkpt lat="45.88794" lon="5.78149">
        <ele>1027.5</ele>
        <time>2021-08-20T16:38:45Z</time>
      </trkpt>
      <trkpt lat="45.88806" lon="5.7816">
        <ele>1022.6</ele>
        <time>2021-08-20T16:38:46Z</time>
      </trkpt>
      <trkpt lat="45.88832" lon="5.78182">
        <ele>1013.3</ele>
        <time>2021-08-20T16:38:48Z</time>
      </trkpt>
      <trkpt lat="45.88846" lon="5.78191">
        <ele>1005.5</ele>
        <time>2021-08-20T16:38:49Z</time>
      </trkpt>
      <trkpt lat="45.88877" lon="5.78205">
        <ele>1002.7</ele>
        <time>2021-08-20T16:38:51Z</time>
      </trkpt>
      <trkpt lat="45.88891" lon="5.78215">
        <ele>1001.3</ele>
        <time>2021-08-20T16:38:52Z</time>
      </trkpt>
      <trkpt lat="45.88906" lon="5.78226">
        <ele>999.9</ele>
        <time>2021-08-20T16:38:53Z</time>
      </trkpt>
      <trkpt lat="45.88936" lon="5.78244">
        <ele>997.1</ele>
        <time>2021-08-20T16:38:55Z</time>
      </trkpt>
      <trkpt lat="45.88964" lon="5.78257">
        <ele>994.6</ele>
        <time>2021-08-20T16:38:57Z</time>
      </trkpt>
      <trkpt lat="45.88993" lon="5.78262">
        <ele>992.1</ele>
        <time>2021-08-20T16:38:59Z</time>
      </trkpt>
      <trkpt lat="45.89008" lon="5.78265">
        <ele>990.8</ele>
        <time>2021-08-20T16:39:00Z</time>
      </trkpt>
      <trkpt lat="45.89035" lon="5.78272">
        <ele>988.4</ele>
        <time>2021-08-20T16:39:02Z</time>
      </trkpt>
      <trkpt lat="45.89063" lon="5.78277">
        <ele>986.1</ele>
        <time>2021-08-20T16:39:04Z</time>
      </trkpt>
      <trkpt lat="45.89077" lon="5.78276">
        <ele>984.9</ele>
        <time>2021-08-20T16:39:05Z</time>
      </trkpt>
      <trkpt lat="45.89103" lon="5.78275">
        <ele>982.6</ele>
        <time>2021-08-20T16:39:07Z</time>
      </trkpt>
      <trkpt lat="45.89129" lon="5.78268">
        <ele>980.3</ele>
        <time>2021-08-20T16:39:09Z</time>
      </trkpt>
      <trkpt lat="45.89142" lon="5.78265">
        <ele>979.2</ele>
        <time>2021-08-20T16:39:10Z</time>
      </trkpt>
      <trkpt lat="45.89168" lon="5.78261">
        <ele>977</ele>
        <time>2021-08-20T16:39:12Z</time>
      </trkpt>
      <trkpt lat="45.89181" lon="5.78262">
        <ele>975.8</ele>
        <time>2021-08-20T16:39:13Z</time>
      </trkpt>
      <trkpt lat="45.89208" lon="5.78265">
        <ele>973.5</ele>
        <time>2021-08-20T16:39:15Z</time>
      </trkpt>
      <trkpt lat="45.89221" lon="5.78267">
        <ele>972.4</ele>
        <time>2021-08-20T16:39:16Z</time>
      </trkpt>
      <trkpt lat="45.89248" lon="5.78271">
        <ele>970.1</ele>
        <time>2021-08-20T16:39:19Z</time>
      </trkpt>
      <trkpt lat="45.89262" lon="5.78273">
        <ele>968.9</ele>
        <time>2021-08-20T16:39:20Z</time>
      </trkpt>
      <trkpt lat="45.89289" lon="5.78276">
        <ele>966.6</ele>
        <time>2021-08-20T16:39:22Z</time>
      </trkpt>
      <trkpt lat="45.89302" lon="5.78275">
        <ele>965.5</ele>
        <time>2021-08-20T16:39:23Z</time>
      </trkpt>
      <trkpt lat="45.89325" lon="5.78273">
        <ele>963.5</ele>
        <time>2021-08-20T16:39:25Z</time>
      </trkpt>
      <trkpt lat="45.89338" lon="5.78274">
        <ele>962.4</ele>
        <time>2021-08-20T16:39:26Z</time>
      </trkpt>
      <trkpt lat="45.89363" lon="5.7828">
        <ele>960.2</ele>
        <time>2021-08-20T16:39:28Z</time>
      </trkpt>
      <trkpt lat="45.89375" lon="5.78281">
        <ele>959.1</ele>
        <time>2021-08-20T16:39:29Z</time>
      </trkpt>
      <trkpt lat="45.89399" lon="5.78281">
        <ele>957.1</ele>
        <time>2021-08-20T16:39:31Z</time>
      </trkpt>
      <trkpt lat="45.89411" lon="5.7828">
        <ele>956.1</ele>
        <time>2021-08-20T16:39:32Z</time>
      </trkpt>
      <trkpt lat="45.89434" lon="5.78276">
        <ele>954.1</ele>
        <time>2021-08-20T16:39:34Z</time>
      </trkpt>
      <trkpt lat="45.89446" lon="5.78273">
        <ele>953.1</ele>
        <time>2021-08-20T16:39:35Z</time>
      </trkpt>
      <trkpt lat="45.8947" lon="5.78268">
        <ele>951</ele>
        <time>2021-08-20T16:39:37Z</time>
      </trkpt>
      <trkpt lat="45.89482" lon="5.78264">
        <ele>949.9</ele>
        <time>2021-08-20T16:39:38Z</time>
      </trkpt>
      <trkpt lat="45.89507" lon="5.78262">
        <ele>947.8</ele>
        <time>2021-08-20T16:39:40Z</time>
      </trkpt>
      <trkpt lat="45.8952" lon="5.78262">
        <ele>946.7</ele>
        <time>2021-08-20T16:39:41Z</time>
      </trkpt>
      <trkpt lat="45.89545" lon="5.78261">
        <ele>944.5</ele>
        <time>2021-08-20T16:39:43Z</time>
      </trkpt>
      <trkpt lat="45.89557" lon="5.78258">
        <ele>946.3</ele>
        <time>2021-08-20T16:39:44Z</time>
      </trkpt>
      <trkpt lat="45.8958" lon="5.78255">
        <ele>946.8</ele>
        <time>2021-08-20T16:39:46Z</time>
      </trkpt>
      <trkpt lat="45.89592" lon="5.78253">
        <ele>947.9</ele>
        <time>2021-08-20T16:39:47Z</time>
      </trkpt>
      <trkpt lat="45.89604" lon="5.78253">
        <ele>948.2</ele>
        <time>2021-08-20T16:39:48Z</time>
      </trkpt>
      <trkpt lat="45.89627" lon="5.78255">
        <ele>945.2</ele>
        <time>2021-08-20T16:39:50Z</time>
      </trkpt>
      <trkpt lat="45.89646" lon="5.78257">
        <ele>943.9</ele>
        <time>2021-08-20T16:39:52Z</time>
      </trkpt>
      <trkpt lat="45.89655" lon="5.78258">
        <ele>944</ele>
        <time>2021-08-20T16:39:53Z</time>
      </trkpt>
      <trkpt lat="45.89664" lon="5.78261">
        <ele>943.3</ele>
        <time>2021-08-20T16:39:54Z</time>
      </trkpt>
      <trkpt lat="45.89675" lon="5.78266">
        <ele>943.3</ele>
        <time>2021-08-20T16:39:55Z</time>
      </trkpt>
      <trkpt lat="45.89686" lon="5.78272">
        <ele>942.8</ele>
        <time>2021-08-20T16:39:56Z</time>
      </trkpt>
      <trkpt lat="45.89705" lon="5.78285">
        <ele>942.5</ele>
        <time>2021-08-20T16:39:58Z</time>
      </trkpt>
      <trkpt lat="45.89714" lon="5.78292">
        <ele>943.8</ele>
        <time>2021-08-20T16:39:59Z</time>
      </trkpt>
      <trkpt lat="45.89728" lon="5.78306">
        <ele>944</ele>
        <time>2021-08-20T16:40:01Z</time>
      </trkpt>
      <trkpt lat="45.89732" lon="5.7831">
        <ele>944.2</ele>
        <time>2021-08-20T16:40:02Z</time>
      </trkpt>
      <trkpt lat="45.89734" lon="5.78317">
        <ele>943</ele>
        <time>2021-08-20T16:40:04Z</time>
      </trkpt>
      <trkpt lat="45.89737" lon="5.78322">
        <ele>943.1</ele>
        <time>2021-08-20T16:40:05Z</time>
      </trkpt>
      <trkpt lat="45.89744" lon="5.78328">
        <ele>942.3</ele>
        <time>2021-08-20T16:40:07Z</time>
      </trkpt>
      <trkpt lat="45.8975" lon="5.78331">
        <ele>944.1</ele>
        <time>2021-08-20T16:40:09Z</time>
      </trkpt>
      <trkpt lat="45.8975" lon="5.78331">
        <ele>945.1</ele>
        <time>2021-08-20T16:40:10Z</time>
      </trkpt>
      <trkpt lat="45.89751" lon="5.78333">
        <ele>945.3</ele>
        <time>2021-08-20T16:40:12Z</time>
      </trkpt>
      <trkpt lat="45.89641" lon="5.78343">
        <ele>932.2</ele>
        <time>2021-08-20T16:40:24Z</time>
      </trkpt>
      <trkpt lat="45.89597" lon="5.78333">
        <ele>939.4</ele>
        <time>2021-08-20T16:40:26Z</time>
      </trkpt>
      <trkpt lat="45.89557" lon="5.78326">
        <ele>936.1</ele>
        <time>2021-08-20T16:40:28Z</time>
      </trkpt>
      <trkpt lat="45.89532" lon="5.7833">
        <ele>933.8</ele>
        <time>2021-08-20T16:40:30Z</time>
      </trkpt>
      <trkpt lat="45.89512" lon="5.78336">
        <ele>931.9</ele>
        <time>2021-08-20T16:40:32Z</time>
      </trkpt>
      <trkpt lat="45.89492" lon="5.78343">
        <ele>929.8</ele>
        <time>2021-08-20T16:40:34Z</time>
      </trkpt>
      <trkpt lat="45.89482" lon="5.78346">
        <ele>928.6</ele>
        <time>2021-08-20T16:40:35Z</time>
      </trkpt>
      <trkpt lat="45.89472" lon="5.78351">
        <ele>927.4</ele>
        <time>2021-08-20T16:40:36Z</time>
      </trkpt>
      <trkpt lat="45.89451" lon="5.78361">
        <ele>925</ele>
        <time>2021-08-20T16:40:38Z</time>
      </trkpt>
      <trkpt lat="45.8943" lon="5.78373">
        <ele>922.6</ele>
        <time>2021-08-20T16:40:40Z</time>
      </trkpt>
      <trkpt lat="45.89408" lon="5.78385">
        <ele>920.3</ele>
        <time>2021-08-20T16:40:42Z</time>
      </trkpt>
      <trkpt lat="45.89378" lon="5.78404">
        <ele>917.1</ele>
        <time>2021-08-20T16:40:44Z</time>
      </trkpt>
      <trkpt lat="45.89357" lon="5.78416">
        <ele>914.8</ele>
        <time>2021-08-20T16:40:46Z</time>
      </trkpt>
      <trkpt lat="45.89347" lon="5.78422">
        <ele>913.6</ele>
        <time>2021-08-20T16:40:47Z</time>
      </trkpt>
      <trkpt lat="45.89328" lon="5.78434">
        <ele>911.2</ele>
        <time>2021-08-20T16:40:49Z</time>
      </trkpt>
      <trkpt lat="45.89318" lon="5.7844">
        <ele>910.1</ele>
        <time>2021-08-20T16:40:50Z</time>
      </trkpt>
      <trkpt lat="45.88615" lon="5.78529">
        <ele>864.6</ele>
        <time>2021-08-20T16:42:15Z</time>
      </trkpt>
      <trkpt lat="45.88605" lon="5.7853">
        <ele>864.5</ele>
        <time>2021-08-20T16:42:17Z</time>
      </trkpt>
      <trkpt lat="45.88602" lon="5.78532">
        <ele>864.5</ele>
        <time>2021-08-20T16:42:18Z</time>
      </trkpt>
      <trkpt lat="45.88599" lon="5.78532">
        <ele>864.4</ele>
        <time>2021-08-20T16:42:19Z</time>
      </trkpt>
      <trkpt lat="45.88598" lon="5.78534">
        <ele>864.4</ele>
        <time>2021-08-20T16:42:20Z</time>
      </trkpt>
      <trkpt lat="45.88595" lon="5.78536">
        <ele>864.4</ele>
        <time>2021-08-20T16:42:22Z</time>
      </trkpt>
      <trkpt lat="45.88591" lon="5.78539">
        <ele>864.4</ele>
        <time>2021-08-20T16:42:25Z</time>
      </trkpt>
      <trkpt lat="45.88587" lon="5.78541">
        <ele>864.3</ele>
        <time>2021-08-20T16:42:26Z</time>
      </trkpt>
      <trkpt lat="45.88583" lon="5.78542">
        <ele>864.3</ele>
        <time>2021-08-20T16:42:28Z</time>
      </trkpt>
      <trkpt lat="45.88581" lon="5.78544">
        <ele>864.3</ele>
        <time>2021-08-20T16:42:30Z</time>
      </trkpt>
      <trkpt lat="45.8779" lon="5.78507">
        <ele>846.8</ele>
        <time>2021-08-20T16:44:26Z</time>
      </trkpt>
      <trkpt lat="45.87771" lon="5.78517">
        <ele>846.2</ele>
        <time>2021-08-20T16:44:28Z</time>
      </trkpt>
      <trkpt lat="45.87756" lon="5.78524">
        <ele>845.6</ele>
        <time>2021-08-20T16:44:30Z</time>
      </trkpt>
      <trkpt lat="45.87749" lon="5.78527">
        <ele>845.4</ele>
        <time>2021-08-20T16:44:31Z</time>
      </trkpt>
      <trkpt lat="45.87743" lon="5.7853">
        <ele>845.2</ele>
        <time>2021-08-20T16:44:32Z</time>
      </trkpt>
      <trkpt lat="45.8773" lon="5.78535">
        <ele>844.7</ele>
        <time>2021-08-20T16:44:34Z</time>
      </trkpt>
      <trkpt lat="45.87723" lon="5.78535">
        <ele>844.5</ele>
        <time>2021-08-20T16:44:35Z</time>
      </trkpt>
      <trkpt lat="45.87709" lon="5.78539">
        <ele>844</ele>
        <time>2021-08-20T16:44:37Z</time>
      </trkpt>
      <trkpt lat="45.87703" lon="5.78542">
        <ele>843.8</ele>
        <time>2021-08-20T16:44:38Z</time>
      </trkpt>
      <trkpt lat="45.87691" lon="5.7855">
        <ele>843.3</ele>
        <time>2021-08-20T16:44:40Z</time>
      </trkpt>
      <trkpt lat="45.87686" lon="5.78551">
        <ele>843.1</ele>
        <time>2021-08-20T16:44:41Z</time>
      </trkpt>
      <trkpt lat="45.8768" lon="5.78553">
        <ele>842.8</ele>
        <time>2021-08-20T16:44:42Z</time>
      </trkpt>
      <trkpt lat="45.87667" lon="5.78553">
        <ele>842</ele>
        <time>2021-08-20T16:44:44Z</time>
      </trkpt>
      <trkpt lat="45.87655" lon="5.78553">
        <ele>841.3</ele>
        <time>2021-08-20T16:44:46Z</time>
      </trkpt>
      <trkpt lat="45.87641" lon="5.78552">
        <ele>840.4</ele>
        <time>2021-08-20T16:44:48Z</time>
      </trkpt>
      <trkpt lat="45.87635" lon="5.78555">
        <ele>840</ele>
        <time>2021-08-20T16:44:49Z</time>
      </trkpt>
      <trkpt lat="45.87629" lon="5.78557">
        <ele>839.6</ele>
        <time>2021-08-20T16:44:50Z</time>
      </trkpt>
      <trkpt lat="45.87615" lon="5.78562">
        <ele>838.7</ele>
        <time>2021-08-20T16:44:52Z</time>
      </trkpt>
      <trkpt lat="45.87607" lon="5.78563">
        <ele>838.2</ele>
        <time>2021-08-20T16:44:53Z</time>
      </trkpt>
      <trkpt lat="45.87598" lon="5.78561">
        <ele>837.6</ele>
        <time>2021-08-20T16:44:54Z</time>
      </trkpt>
      <trkpt lat="45.87579" lon="5.7856">
        <ele>836.5</ele>
        <time>2021-08-20T16:44:56Z</time>
      </trkpt>
      <trkpt lat="45.87569" lon="5.78561">
        <ele>835.9</ele>
        <time>2021-08-20T16:44:57Z</time>
      </trkpt>
      <trkpt lat="45.87548" lon="5.78561">
        <ele>834.6</ele>
        <time>2021-08-20T16:44:59Z</time>
      </trkpt>
      <trkpt lat="45.87538" lon="5.78563">
        <ele>834</ele>
        <time>2021-08-20T16:45:00Z</time>
      </trkpt>
      <trkpt lat="45.87527" lon="5.78563">
        <ele>833.4</ele>
        <time>2021-08-20T16:45:01Z</time>
      </trkpt>
      <trkpt lat="45.87517" lon="5.78563">
        <ele>832.7</ele>
        <time>2021-08-20T16:45:02Z</time>
      </trkpt>
      <trkpt lat="45.87496" lon="5.78562">
        <ele>831.5</ele>
        <time>2021-08-20T16:45:04Z</time>
      </trkpt>
      <trkpt lat="45.87475" lon="5.78561">
        <ele>830.3</ele>
        <time>2021-08-20T16:45:06Z</time>
      </trkpt>
      <trkpt lat="45.87454" lon="5.7856">
        <ele>829.2</ele>
        <time>2021-08-20T16:45:08Z</time>
      </trkpt>
      <trkpt lat="45.87433" lon="5.78559">
        <ele>828</ele>
        <time>2021-08-20T16:45:10Z</time>
      </trkpt>
      <trkpt lat="45.87422" lon="5.78557">
        <ele>827.4</ele>
        <time>2021-08-20T16:45:11Z</time>
      </trkpt>
      <trkpt lat="45.87411" lon="5.78554">
        <ele>826.8</ele>
        <time>2021-08-20T16:45:12Z</time>
      </trkpt>
      <trkpt lat="45.87392" lon="5.78554">
        <ele>825.6</ele>
        <time>2021-08-20T16:45:14Z</time>
      </trkpt>
      <trkpt lat="45.87373" lon="5.78557">
        <ele>824.5</ele>
        <time>2021-08-20T16:45:16Z</time>
      </trkpt>
      <trkpt lat="45.87364" lon="5.78558">
        <ele>823.9</ele>
        <time>2021-08-20T16:45:17Z</time>
      </trkpt>
      <trkpt lat="45.87355" lon="5.7856">
        <ele>823.4</ele>
        <time>2021-08-20T16:45:18Z</time>
      </trkpt>
      <trkpt lat="45.87339" lon="5.78565">
        <ele>822.5</ele>
        <time>2021-08-20T16:45:20Z</time>
      </trkpt>
      <trkpt lat="45.87324" lon="5.78568">
        <ele>821.5</ele>
        <time>2021-08-20T16:45:22Z</time>
      </trkpt>
      <trkpt lat="45.87315" lon="5.78569">
        <ele>821</ele>
        <time>2021-08-20T16:45:23Z</time>
      </trkpt>
      <trkpt lat="45.87308" lon="5.7857">
        <ele>820.5</ele>
        <time>2021-08-20T16:45:24Z</time>
      </trkpt>
      <trkpt lat="45.87292" lon="5.78568">
        <ele>819.5</ele>
        <time>2021-08-20T16:45:26Z</time>
      </trkpt>
      <trkpt lat="45.87273" lon="5.78569">
        <ele>818.2</ele>
        <time>2021-08-20T16:45:28Z</time>
      </trkpt>
      <trkpt lat="45.87261" lon="5.78569">
        <ele>817.5</ele>
        <time>2021-08-20T16:45:29Z</time>
      </trkpt>
      <trkpt lat="45.8725" lon="5.7857">
        <ele>816.8</ele>
        <time>2021-08-20T16:45:30Z</time>
      </trkpt>
      <trkpt lat="45.87239" lon="5.78572">
        <ele>816.1</ele>
        <time>2021-08-20T16:45:31Z</time>
      </trkpt>
      <trkpt lat="45.87229" lon="5.78574">
        <ele>815.6</ele>
        <time>2021-08-20T16:45:32Z</time>
      </trkpt>
      <trkpt lat="45.87213" lon="5.78583">
        <ele>814.8</ele>
        <time>2021-08-20T16:45:34Z</time>
      </trkpt>
      <trkpt lat="45.87205" lon="5.78586">
        <ele>814.4</ele>
        <time>2021-08-20T16:45:35Z</time>
      </trkpt>
      <trkpt lat="45.87196" lon="5.78589">
        <ele>814</ele>
        <time>2021-08-20T16:45:36Z</time>
      </trkpt>
      <trkpt lat="45.87191" lon="5.7859">
        <ele>813.8</ele>
        <time>2021-08-20T16:45:38Z</time>
      </trkpt>
      <trkpt lat="45.87186" lon="5.78596">
        <ele>813.5</ele>
        <time>2021-08-20T16:45:40Z</time>
      </trkpt>
      <trkpt lat="45.87181" lon="5.78601">
        <ele>813.3</ele>
        <time>2021-08-20T16:45:41Z</time>
      </trkpt>
      <trkpt lat="45.87176" lon="5.78606">
        <ele>813</ele>
        <time>2021-08-20T16:45:42Z</time>
      </trkpt>
      <trkpt lat="45.87171" lon="5.78611">
        <ele>812.7</ele>
        <time>2021-08-20T16:45:44Z</time>
      </trkpt>
      <trkpt lat="45.87169" lon="5.78612">
        <ele>812.6</ele>
        <time>2021-08-20T16:45:46Z</time>
      </trkpt>
      <trkpt lat="45.87057" lon="5.78652">
        <ele>806.1</ele>
        <time>2021-08-20T16:45:58Z</time>
      </trkpt>
      <trkpt lat="45.87028" lon="5.78662">
        <ele>803.7</ele>
        <time>2021-08-20T16:46:00Z</time>
      </trkpt>
      <trkpt lat="45.87011" lon="5.7866">
        <ele>802.2</ele>
        <time>2021-08-20T16:46:01Z</time>
      </trkpt>
      <trkpt lat="45.86996" lon="5.78659">
        <ele>800.7</ele>
        <time>2021-08-20T16:46:02Z</time>
      </trkpt>
      <trkpt lat="45.86965" lon="5.78662">
        <ele>797.3</ele>
        <time>2021-08-20T16:46:04Z</time>
      </trkpt>
      <trkpt lat="45.86938" lon="5.78673">
        <ele>794.1</ele>
        <time>2021-08-20T16:46:06Z</time>
      </trkpt>
      <trkpt lat="45.86916" lon="5.78686">
        <ele>791.4</ele>
        <time>2021-08-20T16:46:08Z</time>
      </trkpt>
      <trkpt lat="45.86893" lon="5.78693">
        <ele>788.8</ele>
        <time>2021-08-20T16:46:10Z</time>
      </trkpt>
      <trkpt lat="45.8688" lon="5.78696">
        <ele>787.5</ele>
        <time>2021-08-20T16:46:11Z</time>
      </trkpt>
      <trkpt lat="45.86856" lon="5.78706">
        <ele>784.6</ele>
        <time>2021-08-20T16:46:13Z</time>
      </trkpt>
      <trkpt lat="45.86843" lon="5.78711">
        <ele>782.9</ele>
        <time>2021-08-20T16:46:14Z</time>
      </trkpt>
      <trkpt lat="45.8683" lon="5.78715">
        <ele>781.3</ele>
        <time>2021-08-20T16:46:15Z</time>
      </trkpt>
      <trkpt lat="45.86804" lon="5.78725">
        <ele>777.9</ele>
        <time>2021-08-20T16:46:17Z</time>
      </trkpt>
      <trkpt lat="45.86783" lon="5.78734">
        <ele>775.2</ele>
        <time>2021-08-20T16:46:19Z</time>
      </trkpt>
      <trkpt lat="45.86771" lon="5.78739">
        <ele>773.8</ele>
        <time>2021-08-20T16:46:20Z</time>
      </trkpt>
      <trkpt lat="45.86748" lon="5.78749">
        <ele>770.8</ele>
        <time>2021-08-20T16:46:22Z</time>
      </trkpt>
      <trkpt lat="45.86726" lon="5.7876">
        <ele>768.3</ele>
        <time>2021-08-20T16:46:24Z</time>
      </trkpt>
      <trkpt lat="45.86717" lon="5.78765">
        <ele>767.2</ele>
        <time>2021-08-20T16:46:25Z</time>
      </trkpt>
      <trkpt lat="45.86706" lon="5.78767">
        <ele>766.1</ele>
        <time>2021-08-20T16:46:26Z</time>
      </trkpt>
      <trkpt lat="45.86681" lon="5.78769">
        <ele>763.3</ele>
        <time>2021-08-20T16:46:28Z</time>
      </trkpt>
      <trkpt lat="45.86658" lon="5.78774">
        <ele>760.9</ele>
        <time>2021-08-20T16:46:30Z</time>
      </trkpt>
      <trkpt lat="45.86633" lon="5.78773">
        <ele>758.3</ele>
        <time>2021-08-20T16:46:32Z</time>
      </trkpt>
      <trkpt lat="45.86608" lon="5.78774">
        <ele>755.5</ele>
        <time>2021-08-20T16:46:34Z</time>
      </trkpt>
      <trkpt lat="45.86595" lon="5.78776">
        <ele>754</ele>
        <time>2021-08-20T16:46:35Z</time>
      </trkpt>
      <trkpt lat="45.86583" lon="5.78778">
        <ele>752.6</ele>
        <time>2021-08-20T16:46:36Z</time>
      </trkpt>
      <trkpt lat="45.86557" lon="5.78782">
        <ele>749.8</ele>
        <time>2021-08-20T16:46:38Z</time>
      </trkpt>
      <trkpt lat="45.86532" lon="5.78786">
        <ele>746.6</ele>
        <time>2021-08-20T16:46:40Z</time>
      </trkpt>
      <trkpt lat="45.86506" lon="5.78789">
        <ele>743.3</ele>
        <time>2021-08-20T16:46:42Z</time>
      </trkpt>
      <trkpt lat="45.86481" lon="5.78794">
        <ele>740.4</ele>
        <time>2021-08-20T16:46:44Z</time>
      </trkpt>
      <trkpt lat="45.86457" lon="5.78804">
        <ele>737.8</ele>
        <time>2021-08-20T16:46:46Z</time>
      </trkpt>
      <trkpt lat="45.86446" lon="5.7881">
        <ele>736.6</ele>
        <time>2021-08-20T16:46:47Z</time>
      </trkpt>
      <trkpt lat="45.86425" lon="5.78834">
        <ele>733.6</ele>
        <time>2021-08-20T16:46:49Z</time>
      </trkpt>
      <trkpt lat="45.86416" lon="5.78841">
        <ele>732.4</ele>
        <time>2021-08-20T16:46:50Z</time>
      </trkpt>
      <trkpt lat="45.86405" lon="5.78885">
        <ele>728.9</ele>
        <time>2021-08-20T16:46:52Z</time>
      </trkpt>
      <trkpt lat="45.86399" lon="5.78898">
        <ele>727.7</ele>
        <time>2021-08-20T16:46:53Z</time>
      </trkpt>
      <trkpt lat="45.86385" lon="5.78912">
        <ele>725.9</ele>
        <time>2021-08-20T16:46:55Z</time>
      </trkpt>
      <trkpt lat="45.86377" lon="5.78917">
        <ele>725.1</ele>
        <time>2021-08-20T16:46:56Z</time>
      </trkpt>
      <trkpt lat="45.86364" lon="5.78924">
        <ele>723.9</ele>
        <time>2021-08-20T16:46:58Z</time>
      </trkpt>
      <trkpt lat="45.86356" lon="5.78923">
        <ele>723.1</ele>
        <time>2021-08-20T16:47:00Z</time>
      </trkpt>
      <trkpt lat="45.86353" lon="5.78919">
        <ele>722.8</ele>
        <time>2021-08-20T16:47:01Z</time>
      </trkpt>
      <trkpt lat="45.86354" lon="5.78914">
        <ele>722.4</ele>
        <time>2021-08-20T16:47:02Z</time>
      </trkpt>
      <trkpt lat="45.86353" lon="5.78901">
        <ele>721.5</ele>
        <time>2021-08-20T16:47:04Z</time>
      </trkpt>
      <trkpt lat="45.8636" lon="5.78889">
        <ele>720.3</ele>
        <time>2021-08-20T16:47:06Z</time>
      </trkpt>
      <trkpt lat="45.86366" lon="5.78881">
        <ele>715.8</ele>
        <time>2021-08-20T16:47:08Z</time>
      </trkpt>
      <trkpt lat="45.86366" lon="5.78874">
        <ele>715.3</ele>
        <time>2021-08-20T16:47:10Z</time>
      </trkpt>
      <trkpt lat="45.86365" lon="5.78868">
        <ele>714.8</ele>
        <time>2021-08-20T16:47:11Z</time>
      </trkpt>
      <trkpt lat="45.86365" lon="5.78862">
        <ele>714.4</ele>
        <time>2021-08-20T16:47:12Z</time>
      </trkpt>
      <trkpt lat="45.86364" lon="5.78856">
        <ele>713.9</ele>
        <time>2021-08-20T16:47:14Z</time>
      </trkpt>
      <trkpt lat="45.86364" lon="5.7885">
        <ele>713.4</ele>
        <time>2021-08-20T16:48:15Z</time>
      </trkpt>
      <trkpt lat="45.86363" lon="5.78844">
        <ele>712.9</ele>
        <time>2021-08-20T16:48:16Z</time>
      </trkpt>
      <trkpt lat="45.86366" lon="5.78821">
        <ele>710.9</ele>
        <time>2021-08-20T16:48:17Z</time>
      </trkpt>
      <trkpt lat="45.86366" lon="5.78814">
        <ele>710.4</ele>
        <time>2021-08-20T16:48:18Z</time>
      </trkpt>
      <trkpt lat="45.86362" lon="5.78815">
        <ele>709.8</ele>
        <time>2021-08-20T16:48:20Z</time>
      </trkpt>
      <trkpt lat="45.86356" lon="5.78816">
        <ele>709.1</ele>
        <time>2021-08-20T16:48:21Z</time>
      </trkpt>
      <trkpt lat="45.86351" lon="5.78818">
        <ele>708.5</ele>
        <time>2021-08-20T16:48:22Z</time>
      </trkpt>
      <trkpt lat="45.86349" lon="5.7882">
        <ele>708.2</ele>
        <time>2021-08-20T16:48:24Z</time>
      </trkpt>
      <trkpt lat="45.86348" lon="5.78821">
        <ele>708.1</ele>
        <time>2021-08-20T16:48:25Z</time>
      </trkpt>
      <trkpt lat="45.86343" lon="5.78861">
        <ele>704.4</ele>
        <time>2021-08-20T16:48:26Z</time>
      </trkpt>
      <trkpt lat="45.8634" lon="5.78881">
        <ele>702.5</ele>
        <time>2021-08-20T16:48:28Z</time>
      </trkpt>
      <trkpt lat="45.86339" lon="5.78909">
        <ele>699.8</ele>
        <time>2021-08-20T16:48:30Z</time>
      </trkpt>
      <trkpt lat="45.86344" lon="5.78929">
        <ele>697.7</ele>
        <time>2021-08-20T16:48:32Z</time>
      </trkpt>
      <trkpt lat="45.86354" lon="5.78947">
        <ele>695.7</ele>
        <time>2021-08-20T16:48:34Z</time>
      </trkpt>
      <trkpt lat="45.86368" lon="5.78959">
        <ele>693.6</ele>
        <time>2021-08-20T16:48:36Z</time>
      </trkpt>
      <trkpt lat="45.86385" lon="5.78968">
        <ele>671.1</ele>
        <time>2021-08-20T16:48:38Z</time>
      </trkpt>
      <trkpt lat="45.8641" lon="5.78971">
        <ele>650.5</ele>
        <time>2021-08-20T16:48:40Z</time>
      </trkpt>
      <trkpt lat="45.86436" lon="5.78972">
        <ele>652.6</ele>
        <time>2021-08-20T16:48:42Z</time>
      </trkpt>
      <trkpt lat="45.86464" lon="5.78961">
        <ele>654.9</ele>
        <time>2021-08-20T16:48:44Z</time>
      </trkpt>
      <trkpt lat="45.86489" lon="5.78943">
        <ele>657.2</ele>
        <time>2021-08-20T16:48:46Z</time>
      </trkpt>
      <trkpt lat="45.86501" lon="5.78935">
        <ele>658.3</ele>
        <time>2021-08-20T16:48:47Z</time>
      </trkpt>
      <trkpt lat="45.86513" lon="5.78924">
        <ele>659.6</ele>
        <time>2021-08-20T16:48:48Z</time>
      </trkpt>
      <trkpt lat="45.86536" lon="5.78906">
        <ele>662.3</ele>
        <time>2021-08-20T16:48:50Z</time>
      </trkpt>
      <trkpt lat="45.86554" lon="5.78897">
        <ele>664.4</ele>
        <time>2021-08-20T16:48:52Z</time>
      </trkpt>
      <trkpt lat="45.8657" lon="5.78884">
        <ele>666.5</ele>
        <time>2021-08-20T16:48:54Z</time>
      </trkpt>
      <trkpt lat="45.8658" lon="5.7887">
        <ele>667.9</ele>
        <time>2021-08-20T16:48:56Z</time>
      </trkpt>
      <trkpt lat="45.86584" lon="5.78865">
        <ele>668.7</ele>
        <time>2021-08-20T16:48:58Z</time>
      </trkpt>
      <trkpt lat="45.86587" lon="5.78862">
        <ele>668.4</ele>
        <time>2021-08-20T16:48:59Z</time>
      </trkpt>
      <trkpt lat="45.86592" lon="5.78861">
        <ele>667.8</ele>
        <time>2021-08-20T16:49:01Z</time>
      </trkpt>
      <trkpt lat="45.86587" lon="5.78864">
        <ele>667.3</ele>
        <time>2021-08-20T16:49:02Z</time>
      </trkpt>
      <trkpt lat="45.86572" lon="5.78873">
        <ele>665.6</ele>
        <time>2021-08-20T16:49:04Z</time>
      </trkpt>
      <trkpt lat="45.86565" lon="5.78876">
        <ele>664.8</ele>
        <time>2021-08-20T16:49:05Z</time>
      </trkpt>
      <trkpt lat="45.86548" lon="5.7889">
        <ele>662.8</ele>
        <time>2021-08-20T16:49:07Z</time>
      </trkpt>
      <trkpt lat="45.8654" lon="5.78897">
        <ele>661.7</ele>
        <time>2021-08-20T16:49:08Z</time>
      </trkpt>
      <trkpt lat="45.86523" lon="5.78911">
        <ele>659.8</ele>
        <time>2021-08-20T16:49:10Z</time>
      </trkpt>
      <trkpt lat="45.86517" lon="5.78917">
        <ele>659.2</ele>
        <time>2021-08-20T16:49:11Z</time>
      </trkpt>
      <trkpt lat="45.86509" lon="5.78927">
        <ele>658.3</ele>
        <time>2021-08-20T16:49:13Z</time>
      </trkpt>
      <trkpt lat="45.86506" lon="5.78931">
        <ele>657.9</ele>
        <time>2021-08-20T16:49:14Z</time>
      </trkpt>
      <trkpt lat="45.86498" lon="5.78938">
        <ele>657.2</ele>
        <time>2021-08-20T16:49:16Z</time>
      </trkpt>
      <trkpt lat="45.86493" lon="5.78942">
        <ele>656.8</ele>
        <time>2021-08-20T16:49:17Z</time>
      </trkpt>
      <trkpt lat="45.86485" lon="5.78948">
        <ele>656</ele>
        <time>2021-08-20T16:49:19Z</time>
      </trkpt>
      <trkpt lat="45.86481" lon="5.78952">
        <ele>655.6</ele>
        <time>2021-08-20T16:49:20Z</time>
      </trkpt>
      <trkpt lat="45.8647" lon="5.78959">
        <ele>654.7</ele>
        <time>2021-08-20T16:49:22Z</time>
      </trkpt>
      <trkpt lat="45.86457" lon="5.78967">
        <ele>653.6</ele>
        <time>2021-08-20T16:49:24Z</time>
      </trkpt>
      <trkpt lat="45.86443" lon="5.78979">
        <ele>652.3</ele>
        <time>2021-08-20T16:49:26Z</time>
      </trkpt>
      <trkpt lat="45.86427" lon="5.78992">
        <ele>651</ele>
        <time>2021-08-20T16:49:28Z</time>
      </trkpt>
      <trkpt lat="45.86412" lon="5.79003">
        <ele>649.6</ele>
        <time>2021-08-20T16:49:30Z</time>
      </trkpt>
      <trkpt lat="45.86404" lon="5.79008">
        <ele>648.9</ele>
        <time>2021-08-20T16:49:31Z</time>
      </trkpt>
      <trkpt lat="45.86395" lon="5.79015">
        <ele>648</ele>
        <time>2021-08-20T16:49:32Z</time>
      </trkpt>
      <trkpt lat="45.86378" lon="5.79028">
        <ele>646.2</ele>
        <time>2021-08-20T16:49:34Z</time>
      </trkpt>
      <trkpt lat="45.8637" lon="5.79035">
        <ele>645.1</ele>
        <time>2021-08-20T16:49:35Z</time>
      </trkpt>
      <trkpt lat="45.86353" lon="5.79051">
        <ele>642.7</ele>
        <time>2021-08-20T16:49:37Z</time>
      </trkpt>
      <trkpt lat="45.86343" lon="5.79059">
        <ele>641.4</ele>
        <time>2021-08-20T16:49:38Z</time>
      </trkpt>
      <trkpt lat="45.86324" lon="5.79072">
        <ele>638.7</ele>
        <time>2021-08-20T16:49:40Z</time>
      </trkpt>
      <trkpt lat="45.86305" lon="5.79088">
        <ele>635.9</ele>
        <time>2021-08-20T16:49:42Z</time>
      </trkpt>
      <trkpt lat="45.86285" lon="5.79103">
        <ele>633.3</ele>
        <time>2021-08-20T16:49:44Z</time>
      </trkpt>
      <trkpt lat="45.86268" lon="5.79116">
        <ele>632.2</ele>
        <time>2021-08-20T16:49:46Z</time>
      </trkpt>
      <trkpt lat="45.86259" lon="5.79117">
        <ele>632.7</ele>
        <time>2021-08-20T16:49:47Z</time>
      </trkpt>
      <trkpt lat="45.86245" lon="5.79112">
        <ele>633.3</ele>
        <time>2021-08-20T16:49:49Z</time>
      </trkpt>
      <trkpt lat="45.86239" lon="5.79107">
        <ele>633.4</ele>
        <time>2021-08-20T16:49:50Z</time>
      </trkpt>
      <trkpt lat="45.86228" lon="5.79102">
        <ele>631.6</ele>
        <time>2021-08-20T16:49:52Z</time>
      </trkpt>
      <trkpt lat="45.86222" lon="5.79103">
        <ele>629.7</ele>
        <time>2021-08-20T16:49:54Z</time>
      </trkpt>
      <trkpt lat="45.8622" lon="5.79107">
        <ele>629.1</ele>
        <time>2021-08-20T16:49:55Z</time>
      </trkpt>
      <trkpt lat="45.8622" lon="5.79108">
        <ele>628.9</ele>
        <time>2021-08-20T16:49:56Z</time>
      </trkpt>
      <trkpt lat="45.86222" lon="5.79116">
        <ele>627.6</ele>
        <time>2021-08-20T16:49:58Z</time>
      </trkpt>
      <trkpt lat="45.86228" lon="5.79124">
        <ele>627.5</ele>
        <time>2021-08-20T16:50:00Z</time>
      </trkpt>
      <trkpt lat="45.86234" lon="5.7913">
        <ele>627.1</ele>
        <time>2021-08-20T16:50:02Z</time>
      </trkpt>
      <trkpt lat="45.86237" lon="5.79138">
        <ele>624.8</ele>
        <time>2021-08-20T16:50:04Z</time>
      </trkpt>
      <trkpt lat="45.86237" lon="5.7914">
        <ele>623.1</ele>
        <time>2021-08-20T16:50:06Z</time>
      </trkpt>
      <trkpt lat="45.86236" lon="5.79138">
        <ele>624.2</ele>
        <time>2021-08-20T16:50:07Z</time>
      </trkpt>
      <trkpt lat="45.86234" lon="5.79132">
        <ele>624.9</ele>
        <time>2021-08-20T16:50:09Z</time>
      </trkpt>
      <trkpt lat="45.86225" lon="5.79124">
        <ele>626</ele>
        <time>2021-08-20T16:50:11Z</time>
      </trkpt>
      <trkpt lat="45.86221" lon="5.79123">
        <ele>624.6</ele>
        <time>2021-08-20T16:50:12Z</time>
      </trkpt>
      <trkpt lat="45.86216" lon="5.79122">
        <ele>623</ele>
        <time>2021-08-20T16:50:13Z</time>
      </trkpt>
      <trkpt lat="45.86206" lon="5.79123">
        <ele>620.6</ele>
        <time>2021-08-20T16:50:15Z</time>
      </trkpt>
      <trkpt lat="45.86206" lon="5.79131">
        <ele>619</ele>
        <time>2021-08-20T16:50:17Z</time>
      </trkpt>
      <trkpt lat="45.86207" lon="5.79139">
        <ele>617.1</ele>
        <time>2021-08-20T16:50:18Z</time>
      </trkpt>
      <trkpt lat="45.86206" lon="5.79152">
        <ele>614.2</ele>
        <time>2021-08-20T16:50:20Z</time>
      </trkpt>
      <trkpt lat="45.862" lon="5.79159">
        <ele>612.1</ele>
        <time>2021-08-20T16:50:22Z</time>
      </trkpt>
      <trkpt lat="45.86197" lon="5.7916">
        <ele>610.4</ele>
        <time>2021-08-20T16:50:23Z</time>
      </trkpt>
      <trkpt lat="45.86193" lon="5.79159">
        <ele>610.6</ele>
        <time>2021-08-20T16:50:24Z</time>
      </trkpt>
      <trkpt lat="45.86189" lon="5.7915">
        <ele>610.6</ele>
        <time>2021-08-20T16:50:26Z</time>
      </trkpt>
      <trkpt lat="45.86184" lon="5.79136">
        <ele>611.4</ele>
        <time>2021-08-20T16:50:28Z</time>
      </trkpt>
      <trkpt lat="45.86181" lon="5.79132">
        <ele>610.7</ele>
        <time>2021-08-20T16:50:29Z</time>
      </trkpt>
      <trkpt lat="45.86176" lon="5.79131">
        <ele>608.5</ele>
        <time>2021-08-20T16:50:30Z</time>
      </trkpt>
      <trkpt lat="45.86171" lon="5.79131">
        <ele>605.7</ele>
        <time>2021-08-20T16:50:31Z</time>
      </trkpt>
      <trkpt lat="45.86166" lon="5.79133">
        <ele>604.1</ele>
        <time>2021-08-20T16:50:32Z</time>
      </trkpt>
      <trkpt lat="45.86156" lon="5.79147">
        <ele>597.7</ele>
        <time>2021-08-20T16:50:34Z</time>
      </trkpt>
      <trkpt lat="45.86152" lon="5.79154">
        <ele>595.6</ele>
        <time>2021-08-20T16:50:35Z</time>
      </trkpt>
      <trkpt lat="45.86148" lon="5.79161">
        <ele>593</ele>
        <time>2021-08-20T16:50:36Z</time>
      </trkpt>
      <trkpt lat="45.86145" lon="5.79168">
        <ele>591</ele>
        <time>2021-08-20T16:50:37Z</time>
      </trkpt>
      <trkpt lat="45.86146" lon="5.79175">
        <ele>589.3</ele>
        <time>2021-08-20T16:50:39Z</time>
      </trkpt>
      <trkpt lat="45.86146" lon="5.7918">
        <ele>588.3</ele>
        <time>2021-08-20T16:50:40Z</time>
      </trkpt>
      <trkpt lat="45.86149" lon="5.79186">
        <ele>587.3</ele>
        <time>2021-08-20T16:50:42Z</time>
      </trkpt>
      <trkpt lat="45.86155" lon="5.79187">
        <ele>589.1</ele>
        <time>2021-08-20T16:50:43Z</time>
      </trkpt>
      <trkpt lat="45.86167" lon="5.79182">
        <ele>590.9</ele>
        <time>2021-08-20T16:50:44Z</time>
      </trkpt>
      <trkpt lat="45.86176" lon="5.79184">
        <ele>592.9</ele>
        <time>2021-08-20T16:50:46Z</time>
      </trkpt>
      <trkpt lat="45.86181" lon="5.79187">
        <ele>592.1</ele>
        <time>2021-08-20T16:50:47Z</time>
      </trkpt>
      <trkpt lat="45.86186" lon="5.79187">
        <ele>591.5</ele>
        <time>2021-08-20T16:50:48Z</time>
      </trkpt>
      <trkpt lat="45.86191" lon="5.79191">
        <ele>590.7</ele>
        <time>2021-08-20T16:50:50Z</time>
      </trkpt>
      <trkpt lat="45.86193" lon="5.79194">
        <ele>590.3</ele>
        <time>2021-08-20T16:50:51Z</time>
      </trkpt>
      <trkpt lat="45.86188" lon="5.79197">
        <ele>589.5</ele>
        <time>2021-08-20T16:50:52Z</time>
      </trkpt>
      <trkpt lat="45.86184" lon="5.792">
        <ele>589</ele>
        <time>2021-08-20T16:50:53Z</time>
      </trkpt>
      <trkpt lat="45.86181" lon="5.79202">
        <ele>588.5</ele>
        <time>2021-08-20T16:50:54Z</time>
      </trkpt>
      <trkpt lat="45.86173" lon="5.79204">
        <ele>587.5</ele>
        <time>2021-08-20T16:50:56Z</time>
      </trkpt>
      <trkpt lat="45.86168" lon="5.79206">
        <ele>586.8</ele>
        <time>2021-08-20T16:50:57Z</time>
      </trkpt>
      <trkpt lat="45.86158" lon="5.79203">
        <ele>585.6</ele>
        <time>2021-08-20T16:50:58Z</time>
      </trkpt>
      <trkpt lat="45.86145" lon="5.79196">
        <ele>584.1</ele>
        <time>2021-08-20T16:50:59Z</time>
      </trkpt>
      <trkpt lat="45.86129" lon="5.79177">
        <ele>582</ele>
        <time>2021-08-20T16:51:01Z</time>
      </trkpt>
      <trkpt lat="45.86127" lon="5.79166">
        <ele>581.4</ele>
        <time>2021-08-20T16:51:02Z</time>
      </trkpt>
      <trkpt lat="45.86133" lon="5.79144">
        <ele>580.2</ele>
        <time>2021-08-20T16:51:04Z</time>
      </trkpt>
      <trkpt lat="45.86138" lon="5.79133">
        <ele>579.5</ele>
        <time>2021-08-20T16:51:05Z</time>
      </trkpt>
      <trkpt lat="45.86149" lon="5.79109">
        <ele>578.1</ele>
        <time>2021-08-20T16:51:07Z</time>
      </trkpt>
      <trkpt lat="45.86159" lon="5.79086">
        <ele>576.7</ele>
        <time>2021-08-20T16:51:09Z</time>
      </trkpt>
      <trkpt lat="45.86165" lon="5.79076">
        <ele>576</ele>
        <time>2021-08-20T16:51:10Z</time>
      </trkpt>
      <trkpt lat="45.86179" lon="5.79057">
        <ele>574.4</ele>
        <time>2021-08-20T16:51:12Z</time>
      </trkpt>
      <trkpt lat="45.86187" lon="5.7905">
        <ele>573.4</ele>
        <time>2021-08-20T16:51:13Z</time>
      </trkpt>
      <trkpt lat="45.86194" lon="5.79041">
        <ele>572.5</ele>
        <time>2021-08-20T16:51:14Z</time>
      </trkpt>
      <trkpt lat="45.86206" lon="5.79019">
        <ele>570.3</ele>
        <time>2021-08-20T16:51:16Z</time>
      </trkpt>
      <trkpt lat="45.8621" lon="5.79006">
        <ele>569.2</ele>
        <time>2021-08-20T16:51:17Z</time>
      </trkpt>
      <trkpt lat="45.86214" lon="5.78993">
        <ele>568</ele>
        <time>2021-08-20T16:51:18Z</time>
      </trkpt>
      <trkpt lat="45.86218" lon="5.78982">
        <ele>567</ele>
        <time>2021-08-20T16:51:19Z</time>
      </trkpt>
      <trkpt lat="45.86221" lon="5.78973">
        <ele>566.1</ele>
        <time>2021-08-20T16:51:20Z</time>
      </trkpt>
      <trkpt lat="45.8623" lon="5.78956">
        <ele>564.4</ele>
        <time>2021-08-20T16:51:22Z</time>
      </trkpt>
      <trkpt lat="45.86238" lon="5.78934">
        <ele>562.7</ele>
        <time>2021-08-20T16:51:24Z</time>
      </trkpt>
      <trkpt lat="45.86242" lon="5.78922">
        <ele>562</ele>
        <time>2021-08-20T16:51:25Z</time>
      </trkpt>
      <trkpt lat="45.86245" lon="5.78909">
        <ele>561.4</ele>
        <time>2021-08-20T16:51:26Z</time>
      </trkpt>
      <trkpt lat="45.86247" lon="5.78881">
        <ele>560.3</ele>
        <time>2021-08-20T16:51:28Z</time>
      </trkpt>
      <trkpt lat="45.86246" lon="5.78866">
        <ele>559.7</ele>
        <time>2021-08-20T16:51:29Z</time>
      </trkpt>
      <trkpt lat="45.86244" lon="5.7885">
        <ele>559.1</ele>
        <time>2021-08-20T16:51:30Z</time>
      </trkpt>
      <trkpt lat="45.86238" lon="5.78817">
        <ele>557.6</ele>
        <time>2021-08-20T16:51:32Z</time>
      </trkpt>
      <trkpt lat="45.86231" lon="5.7878">
        <ele>555.7</ele>
        <time>2021-08-20T16:51:34Z</time>
      </trkpt>
      <trkpt lat="45.86227" lon="5.78765">
        <ele>554.8</ele>
        <time>2021-08-20T16:51:35Z</time>
      </trkpt>
      <trkpt lat="45.86218" lon="5.78737">
        <ele>552.9</ele>
        <time>2021-08-20T16:51:37Z</time>
      </trkpt>
      <trkpt lat="45.86215" lon="5.78723">
        <ele>551.8</ele>
        <time>2021-08-20T16:51:38Z</time>
      </trkpt>
      <trkpt lat="45.86208" lon="5.78694">
        <ele>549.6</ele>
        <time>2021-08-20T16:51:40Z</time>
      </trkpt>
      <trkpt lat="45.86201" lon="5.78664">
        <ele>547.5</ele>
        <time>2021-08-20T16:51:42Z</time>
      </trkpt>
      <trkpt lat="45.86191" lon="5.78633">
        <ele>545.4</ele>
        <time>2021-08-20T16:51:44Z</time>
      </trkpt>
      <trkpt lat="45.86186" lon="5.78617">
        <ele>544.5</ele>
        <time>2021-08-20T16:51:45Z</time>
      </trkpt>
      <trkpt lat="45.86172" lon="5.78586">
        <ele>542.6</ele>
        <time>2021-08-20T16:51:47Z</time>
      </trkpt>
      <trkpt lat="45.86165" lon="5.78571">
        <ele>541.7</ele>
        <time>2021-08-20T16:51:48Z</time>
      </trkpt>
      <trkpt lat="45.86157" lon="5.78557">
        <ele>540.7</ele>
        <time>2021-08-20T16:51:49Z</time>
      </trkpt>
      <trkpt lat="45.8615" lon="5.78543">
        <ele>539.6</ele>
        <time>2021-08-20T16:51:50Z</time>
      </trkpt>
      <trkpt lat="45.86137" lon="5.78516">
        <ele>537.7</ele>
        <time>2021-08-20T16:51:52Z</time>
      </trkpt>
      <trkpt lat="45.86129" lon="5.78505">
        <ele>536.9</ele>
        <time>2021-08-20T16:51:53Z</time>
      </trkpt>
      <trkpt lat="45.86115" lon="5.7848">
        <ele>535.4</ele>
        <time>2021-08-20T16:51:55Z</time>
      </trkpt>
      <trkpt lat="45.86109" lon="5.78465">
        <ele>534.7</ele>
        <time>2021-08-20T16:51:56Z</time>
      </trkpt>
      <trkpt lat="45.86098" lon="5.78436">
        <ele>533.4</ele>
        <time>2021-08-20T16:51:58Z</time>
      </trkpt>
      <trkpt lat="45.86092" lon="5.78422">
        <ele>532.8</ele>
        <time>2021-08-20T16:51:59Z</time>
      </trkpt>
      <trkpt lat="45.86081" lon="5.78395">
        <ele>531.4</ele>
        <time>2021-08-20T16:52:01Z</time>
      </trkpt>
      <trkpt lat="45.86075" lon="5.78381">
        <ele>530.7</ele>
        <time>2021-08-20T16:52:02Z</time>
      </trkpt>
      <trkpt lat="45.86067" lon="5.78353">
        <ele>529.2</ele>
        <time>2021-08-20T16:52:04Z</time>
      </trkpt>
      <trkpt lat="45.86057" lon="5.78326">
        <ele>527.4</ele>
        <time>2021-08-20T16:52:06Z</time>
      </trkpt>
      <trkpt lat="45.86044" lon="5.78304">
        <ele>525.6</ele>
        <time>2021-08-20T16:52:08Z</time>
      </trkpt>
      <trkpt lat="45.86031" lon="5.7828">
        <ele>523.6</ele>
        <time>2021-08-20T16:52:10Z</time>
      </trkpt>
      <trkpt lat="45.86025" lon="5.78267">
        <ele>522.6</ele>
        <time>2021-08-20T16:52:11Z</time>
      </trkpt>
      <trkpt lat="45.86019" lon="5.78255">
        <ele>521.5</ele>
        <time>2021-08-20T16:52:12Z</time>
      </trkpt>
      <trkpt lat="45.86008" lon="5.78227">
        <ele>519.3</ele>
        <time>2021-08-20T16:52:14Z</time>
      </trkpt>
      <trkpt lat="45.86" lon="5.78197">
        <ele>517.1</ele>
        <time>2021-08-20T16:52:16Z</time>
      </trkpt>
      <trkpt lat="45.85996" lon="5.78183">
        <ele>516.1</ele>
        <time>2021-08-20T16:52:17Z</time>
      </trkpt>
      <trkpt lat="45.85992" lon="5.78169">
        <ele>515.1</ele>
        <time>2021-08-20T16:52:18Z</time>
      </trkpt>
      <trkpt lat="45.85987" lon="5.78141">
        <ele>513.2</ele>
        <time>2021-08-20T16:52:20Z</time>
      </trkpt>
      <trkpt lat="45.85984" lon="5.78111">
        <ele>511.3</ele>
        <time>2021-08-20T16:52:22Z</time>
      </trkpt>
      <trkpt lat="45.85982" lon="5.78096">
        <ele>510.4</ele>
        <time>2021-08-20T16:52:23Z</time>
      </trkpt>
      <trkpt lat="45.85978" lon="5.78066">
        <ele>508.6</ele>
        <time>2021-08-20T16:52:25Z</time>
      </trkpt>
      <trkpt lat="45.85974" lon="5.78052">
        <ele>507.7</ele>
        <time>2021-08-20T16:52:26Z</time>
      </trkpt>
      <trkpt lat="45.85964" lon="5.78024">
        <ele>505.9</ele>
        <time>2021-08-20T16:52:28Z</time>
      </trkpt>
      <trkpt lat="45.85959" lon="5.78011">
        <ele>505</ele>
        <time>2021-08-20T16:52:29Z</time>
      </trkpt>
      <trkpt lat="45.8595" lon="5.77984">
        <ele>503.5</ele>
        <time>2021-08-20T16:52:31Z</time>
      </trkpt>
      <trkpt lat="45.85945" lon="5.7797">
        <ele>502.8</ele>
        <time>2021-08-20T16:52:32Z</time>
      </trkpt>
      <trkpt lat="45.85933" lon="5.77943">
        <ele>501.5</ele>
        <time>2021-08-20T16:52:34Z</time>
      </trkpt>
      <trkpt lat="45.85927" lon="5.77931">
        <ele>501</ele>
        <time>2021-08-20T16:52:35Z</time>
      </trkpt>
      <trkpt lat="45.8592" lon="5.77919">
        <ele>500.7</ele>
        <time>2021-08-20T16:52:36Z</time>
      </trkpt>
      <trkpt lat="45.85907" lon="5.779">
        <ele>500</ele>
        <time>2021-08-20T16:52:38Z</time>
      </trkpt>
      <trkpt lat="45.85894" lon="5.7788">
        <ele>499.5</ele>
        <time>2021-08-20T16:52:40Z</time>
      </trkpt>
      <trkpt lat="45.85879" lon="5.77866">
        <ele>498.9</ele>
        <time>2021-08-20T16:52:42Z</time>
      </trkpt>
      <trkpt lat="45.85862" lon="5.77859">
        <ele>498.4</ele>
        <time>2021-08-20T16:52:44Z</time>
      </trkpt>
      <trkpt lat="45.85843" lon="5.77854">
        <ele>498</ele>
        <time>2021-08-20T16:52:46Z</time>
      </trkpt>
      <trkpt lat="45.85834" lon="5.77854">
        <ele>497.9</ele>
        <time>2021-08-20T16:52:47Z</time>
      </trkpt>
      <trkpt lat="45.85825" lon="5.77854">
        <ele>497.7</ele>
        <time>2021-08-20T16:52:48Z</time>
      </trkpt>
      <trkpt lat="45.8581" lon="5.77861">
        <ele>497.2</ele>
        <time>2021-08-20T16:52:50Z</time>
      </trkpt>
      <trkpt lat="45.85796" lon="5.77869">
        <ele>496.4</ele>
        <time>2021-08-20T16:52:52Z</time>
      </trkpt>
      <trkpt lat="45.85788" lon="5.77871">
        <ele>495.9</ele>
        <time>2021-08-20T16:52:53Z</time>
      </trkpt>
      <trkpt lat="45.8578" lon="5.77872">
        <ele>495.3</ele>
        <time>2021-08-20T16:52:54Z</time>
      </trkpt>
      <trkpt lat="45.85771" lon="5.77871">
        <ele>494.7</ele>
        <time>2021-08-20T16:52:55Z</time>
      </trkpt>
      <trkpt lat="45.85763" lon="5.77868">
        <ele>493.9</ele>
        <time>2021-08-20T16:52:56Z</time>
      </trkpt>
      <trkpt lat="45.85747" lon="5.77859">
        <ele>492.4</ele>
        <time>2021-08-20T16:52:58Z</time>
      </trkpt>
      <trkpt lat="45.85729" lon="5.77848">
        <ele>490.7</ele>
        <time>2021-08-20T16:53:00Z</time>
      </trkpt>
      <trkpt lat="45.8572" lon="5.77842">
        <ele>489.8</ele>
        <time>2021-08-20T16:53:01Z</time>
      </trkpt>
      <trkpt lat="45.85712" lon="5.77835">
        <ele>488.9</ele>
        <time>2021-08-20T16:53:02Z</time>
      </trkpt>
      <trkpt lat="45.85698" lon="5.77822">
        <ele>487.7</ele>
        <time>2021-08-20T16:53:04Z</time>
      </trkpt>
      <trkpt lat="45.85694" lon="5.77814">
        <ele>487.2</ele>
        <time>2021-08-20T16:53:05Z</time>
      </trkpt>
      <trkpt lat="45.85687" lon="5.77794">
        <ele>486.2</ele>
        <time>2021-08-20T16:53:07Z</time>
      </trkpt>
      <trkpt lat="45.85686" lon="5.77781">
        <ele>485.5</ele>
        <time>2021-08-20T16:53:08Z</time>
      </trkpt>
      <trkpt lat="45.85682" lon="5.7775">
        <ele>483.7</ele>
        <time>2021-08-20T16:53:10Z</time>
      </trkpt>
      <trkpt lat="45.85678" lon="5.77718">
        <ele>481.7</ele>
        <time>2021-08-20T16:53:12Z</time>
      </trkpt>
      <trkpt lat="45.85675" lon="5.777">
        <ele>480.5</ele>
        <time>2021-08-20T16:53:13Z</time>
      </trkpt>
      <trkpt lat="45.85671" lon="5.77684">
        <ele>479.5</ele>
        <time>2021-08-20T16:53:14Z</time>
      </trkpt>
      <trkpt lat="45.85667" lon="5.77652">
        <ele>477.3</ele>
        <time>2021-08-20T16:53:16Z</time>
      </trkpt>
      <trkpt lat="45.85666" lon="5.77635">
        <ele>476.1</ele>
        <time>2021-08-20T16:53:17Z</time>
      </trkpt>
      <trkpt lat="45.85667" lon="5.77606">
        <ele>474.1</ele>
        <time>2021-08-20T16:53:19Z</time>
      </trkpt>
      <trkpt lat="45.85669" lon="5.77593">
        <ele>473.3</ele>
        <time>2021-08-20T16:53:20Z</time>
      </trkpt>
      <trkpt lat="45.85672" lon="5.77573">
        <ele>472.1</ele>
        <time>2021-08-20T16:53:22Z</time>
      </trkpt>
      <trkpt lat="45.85672" lon="5.77555">
        <ele>471.1</ele>
        <time>2021-08-20T16:53:24Z</time>
      </trkpt>
      <trkpt lat="45.85671" lon="5.77547">
        <ele>470.6</ele>
        <time>2021-08-20T16:53:25Z</time>
      </trkpt>
      <trkpt lat="45.85669" lon="5.77541">
        <ele>470.1</ele>
        <time>2021-08-20T16:53:26Z</time>
      </trkpt>
      <trkpt lat="45.85665" lon="5.77539">
        <ele>469</ele>
        <time>2021-08-20T16:53:28Z</time>
      </trkpt>
      <trkpt lat="45.8566" lon="5.77548">
        <ele>468</ele>
        <time>2021-08-20T16:53:30Z</time>
      </trkpt>
      <trkpt lat="45.85651" lon="5.7757">
        <ele>465.9</ele>
        <time>2021-08-20T16:53:32Z</time>
      </trkpt>
      <trkpt lat="45.85639" lon="5.77603">
        <ele>462.8</ele>
        <time>2021-08-20T16:53:34Z</time>
      </trkpt>
      <trkpt lat="45.85633" lon="5.77616">
        <ele>461.6</ele>
        <time>2021-08-20T16:53:35Z</time>
      </trkpt>
      <trkpt lat="45.85626" lon="5.77628">
        <ele>460.4</ele>
        <time>2021-08-20T16:53:36Z</time>
      </trkpt>
      <trkpt lat="45.85614" lon="5.7765">
        <ele>458.1</ele>
        <time>2021-08-20T16:53:38Z</time>
      </trkpt>
      <trkpt lat="45.85605" lon="5.77674">
        <ele>456.1</ele>
        <time>2021-08-20T16:53:40Z</time>
      </trkpt>
      <trkpt lat="45.85601" lon="5.77687">
        <ele>455.1</ele>
        <time>2021-08-20T16:53:41Z</time>
      </trkpt>
      <trkpt lat="45.856" lon="5.77702">
        <ele>454</ele>
        <time>2021-08-20T16:53:42Z</time>
      </trkpt>
      <trkpt lat="45.85601" lon="5.77718">
        <ele>453</ele>
        <time>2021-08-20T16:53:43Z</time>
      </trkpt>
      <trkpt lat="45.85603" lon="5.77734">
        <ele>451.9</ele>
        <time>2021-08-20T16:53:44Z</time>
      </trkpt>
      <trkpt lat="45.85608" lon="5.77767">
        <ele>450</ele>
        <time>2021-08-20T16:53:46Z</time>
      </trkpt>
      <trkpt lat="45.8561" lon="5.77783">
        <ele>449.1</ele>
        <time>2021-08-20T16:53:47Z</time>
      </trkpt>
      <trkpt lat="45.85613" lon="5.77797">
        <ele>448.3</ele>
        <time>2021-08-20T16:53:48Z</time>
      </trkpt>
      <trkpt lat="45.85615" lon="5.77809">
        <ele>447.7</ele>
        <time>2021-08-20T16:53:49Z</time>
      </trkpt>
      <trkpt lat="45.85617" lon="5.7782">
        <ele>447.1</ele>
        <time>2021-08-20T16:53:50Z</time>
      </trkpt>
      <trkpt lat="45.8562" lon="5.77836">
        <ele>446.4</ele>
        <time>2021-08-20T16:53:52Z</time>
      </trkpt>
      <trkpt lat="45.8562" lon="5.77844">
        <ele>446.1</ele>
        <time>2021-08-20T16:53:53Z</time>
      </trkpt>
      <trkpt lat="45.85621" lon="5.77851">
        <ele>445.8</ele>
        <time>2021-08-20T16:53:54Z</time>
      </trkpt>
      <trkpt lat="45.85622" lon="5.77864">
        <ele>445.1</ele>
        <time>2021-08-20T16:53:56Z</time>
      </trkpt>
      <trkpt lat="45.85626" lon="5.77877">
        <ele>444.4</ele>
        <time>2021-08-20T16:53:58Z</time>
      </trkpt>
      <trkpt lat="45.85634" lon="5.77888">
        <ele>443.5</ele>
        <time>2021-08-20T16:54:00Z</time>
      </trkpt>
      <trkpt lat="45.85638" lon="5.77893">
        <ele>443</ele>
        <time>2021-08-20T16:54:01Z</time>
      </trkpt>
      <trkpt lat="45.85648" lon="5.77906">
        <ele>441.7</ele>
        <time>2021-08-20T16:54:03Z</time>
      </trkpt>
      <trkpt lat="45.85653" lon="5.77914">
        <ele>441</ele>
        <time>2021-08-20T16:54:04Z</time>
      </trkpt>
      <trkpt lat="45.85665" lon="5.77929">
        <ele>439.6</ele>
        <time>2021-08-20T16:54:06Z</time>
      </trkpt>
      <trkpt lat="45.85678" lon="5.77941">
        <ele>438.2</ele>
        <time>2021-08-20T16:54:08Z</time>
      </trkpt>
      <trkpt lat="45.85691" lon="5.77953">
        <ele>436.8</ele>
        <time>2021-08-20T16:54:10Z</time>
      </trkpt>
      <trkpt lat="45.85705" lon="5.77967">
        <ele>435.4</ele>
        <time>2021-08-20T16:54:12Z</time>
      </trkpt>
      <trkpt lat="45.8572" lon="5.77989">
        <ele>433.5</ele>
        <time>2021-08-20T16:54:14Z</time>
      </trkpt>
      <trkpt lat="45.85737" lon="5.78011">
        <ele>431.6</ele>
        <time>2021-08-20T16:54:16Z</time>
      </trkpt>
      <trkpt lat="45.85756" lon="5.7803">
        <ele>429.6</ele>
        <time>2021-08-20T16:54:18Z</time>
      </trkpt>
      <trkpt lat="45.85775" lon="5.78053">
        <ele>427.4</ele>
        <time>2021-08-20T16:54:20Z</time>
      </trkpt>
      <trkpt lat="45.85793" lon="5.7808">
        <ele>425.1</ele>
        <time>2021-08-20T16:54:22Z</time>
      </trkpt>
      <trkpt lat="45.85801" lon="5.78093">
        <ele>424</ele>
        <time>2021-08-20T16:54:23Z</time>
      </trkpt>
      <trkpt lat="45.85815" lon="5.78122">
        <ele>421.9</ele>
        <time>2021-08-20T16:54:25Z</time>
      </trkpt>
      <trkpt lat="45.8582" lon="5.78138">
        <ele>420.5</ele>
        <time>2021-08-20T16:54:26Z</time>
      </trkpt>
      <trkpt lat="45.85827" lon="5.78175">
        <ele>417.1</ele>
        <time>2021-08-20T16:54:28Z</time>
      </trkpt>
      <trkpt lat="45.85831" lon="5.78192">
        <ele>415.6</ele>
        <time>2021-08-20T16:54:29Z</time>
      </trkpt>
      <trkpt lat="45.85842" lon="5.78223">
        <ele>412.8</ele>
        <time>2021-08-20T16:54:31Z</time>
      </trkpt>
      <trkpt lat="45.85847" lon="5.78235">
        <ele>411.8</ele>
        <time>2021-08-20T16:54:32Z</time>
      </trkpt>
      <trkpt lat="45.85857" lon="5.78247">
        <ele>410.5</ele>
        <time>2021-08-20T16:54:34Z</time>
      </trkpt>
      <trkpt lat="45.85857" lon="5.78256">
        <ele>409.9</ele>
        <time>2021-08-20T16:54:35Z</time>
      </trkpt>
      <trkpt lat="45.8585" lon="5.78271">
        <ele>408.7</ele>
        <time>2021-08-20T16:54:37Z</time>
      </trkpt>
      <trkpt lat="45.85843" lon="5.78273">
        <ele>408</ele>
        <time>2021-08-20T16:54:38Z</time>
      </trkpt>
      <trkpt lat="45.85826" lon="5.78265">
        <ele>406.1</ele>
        <time>2021-08-20T16:54:40Z</time>
      </trkpt>
      <trkpt lat="45.85815" lon="5.78261">
        <ele>404.8</ele>
        <time>2021-08-20T16:54:41Z</time>
      </trkpt>
      <trkpt lat="45.85804" lon="5.78252">
        <ele>403.4</ele>
        <time>2021-08-20T16:54:42Z</time>
      </trkpt>
      <trkpt lat="45.85794" lon="5.7824">
        <ele>401.9</ele>
        <time>2021-08-20T16:54:43Z</time>
      </trkpt>
      <trkpt lat="45.85768" lon="5.78214">
        <ele>398.3</ele>
        <time>2021-08-20T16:54:45Z</time>
      </trkpt>
      <trkpt lat="45.85756" lon="5.78192">
        <ele>395.9</ele>
        <time>2021-08-20T16:54:46Z</time>
      </trkpt>
      <trkpt lat="45.85736" lon="5.78168">
        <ele>392.7</ele>
        <time>2021-08-20T16:54:48Z</time>
      </trkpt>
      <trkpt lat="45.85729" lon="5.78162">
        <ele>391.3</ele>
        <time>2021-08-20T16:54:49Z</time>
      </trkpt>
      <trkpt lat="45.85722" lon="5.78155">
        <ele>390.3</ele>
        <time>2021-08-20T16:54:50Z</time>
      </trkpt>
      <trkpt lat="45.85707" lon="5.78143">
        <ele>388.3</ele>
        <time>2021-08-20T16:54:52Z</time>
      </trkpt>
      <trkpt lat="45.85699" lon="5.78137">
        <ele>387.2</ele>
        <time>2021-08-20T16:54:53Z</time>
      </trkpt>
      <trkpt lat="45.8569" lon="5.78132">
        <ele>386.1</ele>
        <time>2021-08-20T16:54:54Z</time>
      </trkpt>
      <trkpt lat="45.85675" lon="5.78128">
        <ele>385.3</ele>
        <time>2021-08-20T16:54:56Z</time>
      </trkpt>
      <trkpt lat="45.8567" lon="5.78134">
        <ele>384.5</ele>
        <time>2021-08-20T16:54:58Z</time>
      </trkpt>
      <trkpt lat="45.85672" lon="5.78152">
        <ele>382.9</ele>
        <time>2021-08-20T16:55:00Z</time>
      </trkpt>
      <trkpt lat="45.85681" lon="5.78181">
        <ele>380.5</ele>
        <time>2021-08-20T16:55:02Z</time>
      </trkpt>
      <trkpt lat="45.8569" lon="5.78211">
        <ele>378.2</ele>
        <time>2021-08-20T16:55:04Z</time>
      </trkpt>
      <trkpt lat="45.85693" lon="5.78221">
        <ele>377.4</ele>
        <time>2021-08-20T16:55:05Z</time>
      </trkpt>
      <trkpt lat="45.85696" lon="5.78229">
        <ele>376.7</ele>
        <time>2021-08-20T16:55:06Z</time>
      </trkpt>
      <trkpt lat="45.85699" lon="5.78244">
        <ele>375.6</ele>
        <time>2021-08-20T16:55:08Z</time>
      </trkpt>
      <trkpt lat="45.85703" lon="5.78259">
        <ele>374.5</ele>
        <time>2021-08-20T16:55:10Z</time>
      </trkpt>
      <trkpt lat="45.85707" lon="5.78273">
        <ele>373.5</ele>
        <time>2021-08-20T16:55:12Z</time>
      </trkpt>
      <trkpt lat="45.85711" lon="5.78288">
        <ele>372.4</ele>
        <time>2021-08-20T16:55:14Z</time>
      </trkpt>
      <trkpt lat="45.85715" lon="5.78303">
        <ele>371.4</ele>
        <time>2021-08-20T16:55:16Z</time>
      </trkpt>
      <trkpt lat="45.85718" lon="5.78315">
        <ele>370.5</ele>
        <time>2021-08-20T16:55:18Z</time>
      </trkpt>
      <trkpt lat="45.8572" lon="5.7832">
        <ele>370.2</ele>
        <time>2021-08-20T16:55:19Z</time>
      </trkpt>
      <trkpt lat="45.85722" lon="5.78328">
        <ele>369.7</ele>
        <time>2021-08-20T16:55:20Z</time>
      </trkpt>
      <trkpt lat="45.85723" lon="5.78336">
        <ele>369.2</ele>
        <time>2021-08-20T16:55:21Z</time>
      </trkpt>
      <trkpt lat="45.85727" lon="5.78349">
        <ele>368.3</ele>
        <time>2021-08-20T16:55:23Z</time>
      </trkpt>
      <trkpt lat="45.85729" lon="5.78355">
        <ele>367.9</ele>
        <time>2021-08-20T16:55:24Z</time>
      </trkpt>
      <trkpt lat="45.85735" lon="5.78367">
        <ele>367</ele>
        <time>2021-08-20T16:55:26Z</time>
      </trkpt>
      <trkpt lat="45.85745" lon="5.78379">
        <ele>365.7</ele>
        <time>2021-08-20T16:55:28Z</time>
      </trkpt>
      <trkpt lat="45.8575" lon="5.78384">
        <ele>365</ele>
        <time>2021-08-20T16:55:29Z</time>
      </trkpt>
      <trkpt lat="45.85758" lon="5.78395">
        <ele>363.9</ele>
        <time>2021-08-20T16:55:31Z</time>
      </trkpt>
      <trkpt lat="45.85763" lon="5.78405">
        <ele>362.9</ele>
        <time>2021-08-20T16:55:33Z</time>
      </trkpt>
      <trkpt lat="45.85765" lon="5.7842">
        <ele>362.3</ele>
        <time>2021-08-20T16:55:35Z</time>
      </trkpt>
      <trkpt lat="45.85763" lon="5.78428">
        <ele>361.8</ele>
        <time>2021-08-20T16:55:36Z</time>
      </trkpt>
      <trkpt lat="45.8576" lon="5.78436">
        <ele>361.2</ele>
        <time>2021-08-20T16:55:37Z</time>
      </trkpt>
      <trkpt lat="45.85752" lon="5.78449">
        <ele>360</ele>
        <time>2021-08-20T16:55:39Z</time>
      </trkpt>
      <trkpt lat="45.85742" lon="5.78456">
        <ele>358.8</ele>
        <time>2021-08-20T16:55:41Z</time>
      </trkpt>
      <trkpt lat="45.85734" lon="5.78452">
        <ele>358</ele>
        <time>2021-08-20T16:55:42Z</time>
      </trkpt>
      <trkpt lat="45.85723" lon="5.78446">
        <ele>356.7</ele>
        <time>2021-08-20T16:55:44Z</time>
      </trkpt>
      <trkpt lat="45.85708" lon="5.78437">
        <ele>355</ele>
        <time>2021-08-20T16:55:46Z</time>
      </trkpt>
      <trkpt lat="45.85681" lon="5.78418">
        <ele>352</ele>
        <time>2021-08-20T16:55:48Z</time>
      </trkpt>
      <trkpt lat="45.85669" lon="5.7841">
        <ele>350.9</ele>
        <time>2021-08-20T16:55:49Z</time>
      </trkpt>
      <trkpt lat="45.85669" lon="5.7841">
        <ele>350.9</ele>
        <time>2021-08-20T16:55:49Z</time>
      </trkpt>
      <trkpt lat="45.85657" lon="5.78404">
        <ele>350</ele>
        <time>2021-08-20T16:55:50Z</time>
      </trkpt>
      <trkpt lat="45.85644" lon="5.78395">
        <ele>349.1</ele>
        <time>2021-08-20T16:55:51Z</time>
      </trkpt>
      <trkpt lat="45.85621" lon="5.78381">
        <ele>347.5</ele>
        <time>2021-08-20T16:55:53Z</time>
      </trkpt>
      <trkpt lat="45.85612" lon="5.78376">
        <ele>346.9</ele>
        <time>2021-08-20T16:55:54Z</time>
      </trkpt>
      <trkpt lat="45.85596" lon="5.78366">
        <ele>345.8</ele>
        <time>2021-08-20T16:55:56Z</time>
      </trkpt>
      <trkpt lat="45.85583" lon="5.78355">
        <ele>344.7</ele>
        <time>2021-08-20T16:55:58Z</time>
      </trkpt>
      <trkpt lat="45.85578" lon="5.78348">
        <ele>344.1</ele>
        <time>2021-08-20T16:55:59Z</time>
      </trkpt>
      <trkpt lat="45.8557" lon="5.78331">
        <ele>343</ele>
        <time>2021-08-20T16:56:01Z</time>
      </trkpt>
      <trkpt lat="45.85562" lon="5.78313">
        <ele>341.9</ele>
        <time>2021-08-20T16:56:03Z</time>
      </trkpt>
      <trkpt lat="45.85557" lon="5.78305">
        <ele>341.3</ele>
        <time>2021-08-20T16:56:04Z</time>
      </trkpt>
      <trkpt lat="45.85551" lon="5.78296">
        <ele>340.7</ele>
        <time>2021-08-20T16:56:05Z</time>
      </trkpt>
      <trkpt lat="45.85545" lon="5.78288">
        <ele>340</ele>
        <time>2021-08-20T16:56:06Z</time>
      </trkpt>
      <trkpt lat="45.85535" lon="5.78274">
        <ele>339</ele>
        <time>2021-08-20T16:56:08Z</time>
      </trkpt>
      <trkpt lat="45.85528" lon="5.78263">
        <ele>338.1</ele>
        <time>2021-08-20T16:56:10Z</time>
      </trkpt>
      <trkpt lat="45.85524" lon="5.78256">
        <ele>337.6</ele>
        <time>2021-08-20T16:56:11Z</time>
      </trkpt>
      <trkpt lat="45.85518" lon="5.78242">
        <ele>336.7</ele>
        <time>2021-08-20T16:56:13Z</time>
      </trkpt>
      <trkpt lat="45.85512" lon="5.78226">
        <ele>335.7</ele>
        <time>2021-08-20T16:56:15Z</time>
      </trkpt>
      <trkpt lat="45.85508" lon="5.78218">
        <ele>335.1</ele>
        <time>2021-08-20T16:56:16Z</time>
      </trkpt>
      <trkpt lat="45.85504" lon="5.78209">
        <ele>334.6</ele>
        <time>2021-08-20T16:56:17Z</time>
      </trkpt>
      <trkpt lat="45.85495" lon="5.78193">
        <ele>333.4</ele>
        <time>2021-08-20T16:56:19Z</time>
      </trkpt>
      <trkpt lat="45.85491" lon="5.78184">
        <ele>332.8</ele>
        <time>2021-08-20T16:56:20Z</time>
      </trkpt>
      <trkpt lat="45.85488" lon="5.78175">
        <ele>332.2</ele>
        <time>2021-08-20T16:56:21Z</time>
      </trkpt>
      <trkpt lat="45.85484" lon="5.78167">
        <ele>331.6</ele>
        <time>2021-08-20T16:56:22Z</time>
      </trkpt>
      <trkpt lat="45.85481" lon="5.78158">
        <ele>331</ele>
        <time>2021-08-20T16:56:23Z</time>
      </trkpt>
      <trkpt lat="45.85475" lon="5.78139">
        <ele>329.8</ele>
        <time>2021-08-20T16:56:25Z</time>
      </trkpt>
      <trkpt lat="45.85469" lon="5.78119">
        <ele>328.4</ele>
        <time>2021-08-20T16:56:27Z</time>
      </trkpt>
      <trkpt lat="45.85462" lon="5.78099">
        <ele>326.9</ele>
        <time>2021-08-20T16:56:29Z</time>
      </trkpt>
      <trkpt lat="45.85455" lon="5.78079">
        <ele>325.5</ele>
        <time>2021-08-20T16:56:31Z</time>
      </trkpt>
      <trkpt lat="45.85451" lon="5.78069">
        <ele>324.8</ele>
        <time>2021-08-20T16:56:32Z</time>
      </trkpt>
      <trkpt lat="45.85441" lon="5.78052">
        <ele>323.5</ele>
        <time>2021-08-20T16:56:34Z</time>
      </trkpt>
      <trkpt lat="45.85437" lon="5.78044">
        <ele>322.9</ele>
        <time>2021-08-20T16:56:35Z</time>
      </trkpt>
      <trkpt lat="45.85432" lon="5.78037">
        <ele>322.3</ele>
        <time>2021-08-20T16:56:36Z</time>
      </trkpt>
      <trkpt lat="45.85428" lon="5.78029">
        <ele>321.7</ele>
        <time>2021-08-20T16:56:37Z</time>
      </trkpt>
      <trkpt lat="45.85424" lon="5.78021">
        <ele>321.1</ele>
        <time>2021-08-20T16:56:38Z</time>
      </trkpt>
      <trkpt lat="45.85418" lon="5.78003">
        <ele>320</ele>
        <time>2021-08-20T16:56:40Z</time>
      </trkpt>
      <trkpt lat="45.85416" lon="5.77993">
        <ele>319.4</ele>
        <time>2021-08-20T16:56:41Z</time>
      </trkpt>
      <trkpt lat="45.85414" lon="5.77985">
        <ele>318.8</ele>
        <time>2021-08-20T16:56:42Z</time>
      </trkpt>
      <trkpt lat="45.8541" lon="5.77978">
        <ele>318.4</ele>
        <time>2021-08-20T16:56:43Z</time>
      </trkpt>
      <trkpt lat="45.85407" lon="5.77972">
        <ele>318.2</ele>
        <time>2021-08-20T16:56:44Z</time>
      </trkpt>
      <trkpt lat="45.85399" lon="5.77965">
        <ele>318</ele>
        <time>2021-08-20T16:56:46Z</time>
      </trkpt>
      <trkpt lat="45.85394" lon="5.77961">
        <ele>317.8</ele>
        <time>2021-08-20T16:56:48Z</time>
      </trkpt>
      <trkpt lat="45.85393" lon="5.77957">
        <ele>317.7</ele>
        <time>2021-08-20T16:56:50Z</time>
      </trkpt>
      <trkpt lat="45.85395" lon="5.77958">
        <ele>317.6</ele>
        <time>2021-08-20T16:56:52Z</time>
      </trkpt>
      <trkpt lat="45.85395" lon="5.77957">
        <ele>317.6</ele>
        <time>2021-08-20T16:56:54Z</time>
      </trkpt>
      <trkpt lat="45.85395" lon="5.77957">
        <ele>317.6</ele>
        <time>2021-08-20T16:56:55Z</time>
      </trkpt>
      <trkpt lat="45.85395" lon="5.77957">
        <ele>317.6</ele>
        <time>2021-08-20T16:56:56Z</time>
      </trkpt>
      <trkpt lat="45.85394" lon="5.77956">
        <ele>317.6</ele>
        <time>2021-08-20T16:56:57Z</time>
      </trkpt>
      <trkpt lat="45.85395" lon="5.77956">
        <ele>317.6</ele>
        <time>2021-08-20T16:56:59Z</time>
      </trkpt>
      <trkpt lat="45.85394" lon="5.77956">
        <ele>317.6</ele>
        <time>2021-08-20T16:57:00Z</time>
      </trkpt>
      <trkpt lat="45.85392" lon="5.77952">
        <ele>317.5</ele>
        <time>2021-08-20T16:57:02Z</time>
      </trkpt>
      <trkpt lat="45.85376" lon="5.77964">
        <ele>316.6</ele>
        <time>2021-08-20T16:57:51Z</time>
      </trkpt>
      <trkpt lat="45.85376" lon="5.77968">
        <ele>316.3</ele>
        <time>2021-08-20T16:57:52Z</time>
      </trkpt>
      <trkpt lat="45.85375" lon="5.77977">
        <ele>315.8</ele>
        <time>2021-08-20T16:57:54Z</time>
      </trkpt>
      <trkpt lat="45.85375" lon="5.77989">
        <ele>315.2</ele>
        <time>2021-08-20T16:57:56Z</time>
      </trkpt>
      <trkpt lat="45.85378" lon="5.7801">
        <ele>314.2</ele>
        <time>2021-08-20T16:57:58Z</time>
      </trkpt>
      <trkpt lat="45.85381" lon="5.78026">
        <ele>313.5</ele>
        <time>2021-08-20T16:58:00Z</time>
      </trkpt>
      <trkpt lat="45.85385" lon="5.78043">
        <ele>312.8</ele>
        <time>2021-08-20T16:58:02Z</time>
      </trkpt>
      <trkpt lat="45.85386" lon="5.78052">
        <ele>312.4</ele>
        <time>2021-08-20T16:58:03Z</time>
      </trkpt>
      <trkpt lat="45.85388" lon="5.78061">
        <ele>312.1</ele>
        <time>2021-08-20T16:58:04Z</time>
      </trkpt>
      <trkpt lat="45.8539" lon="5.78078">
        <ele>311.4</ele>
        <time>2021-08-20T16:58:06Z</time>
      </trkpt>
      <trkpt lat="45.8539" lon="5.78087">
        <ele>311.1</ele>
        <time>2021-08-20T16:58:07Z</time>
      </trkpt>
      <trkpt lat="45.85389" lon="5.78097">
        <ele>310.7</ele>
        <time>2021-08-20T16:58:08Z</time>
      </trkpt>
      <trkpt lat="45.85387" lon="5.78117">
        <ele>309.9</ele>
        <time>2021-08-20T16:58:10Z</time>
      </trkpt>
      <trkpt lat="45.85386" lon="5.78127">
        <ele>309.6</ele>
        <time>2021-08-20T16:58:11Z</time>
      </trkpt>
      <trkpt lat="45.85383" lon="5.78147">
        <ele>308.8</ele>
        <time>2021-08-20T16:58:13Z</time>
      </trkpt>
      <trkpt lat="45.85381" lon="5.78167">
        <ele>308</ele>
        <time>2021-08-20T16:58:15Z</time>
      </trkpt>
      <trkpt lat="45.8538" lon="5.78178">
        <ele>307.6</ele>
        <time>2021-08-20T16:58:16Z</time>
      </trkpt>
      <trkpt lat="45.85378" lon="5.78188">
        <ele>307.2</ele>
        <time>2021-08-20T16:58:17Z</time>
      </trkpt>
      <trkpt lat="45.85377" lon="5.78199">
        <ele>306.7</ele>
        <time>2021-08-20T16:58:18Z</time>
      </trkpt>
      <trkpt lat="45.85374" lon="5.7822">
        <ele>305.9</ele>
        <time>2021-08-20T16:58:20Z</time>
      </trkpt>
      <trkpt lat="45.85374" lon="5.78229">
        <ele>305.6</ele>
        <time>2021-08-20T16:58:21Z</time>
      </trkpt>
      <trkpt lat="45.85372" lon="5.78248">
        <ele>304.9</ele>
        <time>2021-08-20T16:58:23Z</time>
      </trkpt>
      <trkpt lat="45.85372" lon="5.78267">
        <ele>304.2</ele>
        <time>2021-08-20T16:58:25Z</time>
      </trkpt>
      <trkpt lat="45.85372" lon="5.78287">
        <ele>303.4</ele>
        <time>2021-08-20T16:58:27Z</time>
      </trkpt>
      <trkpt lat="45.85371" lon="5.78308">
        <ele>302.5</ele>
        <time>2021-08-20T16:58:29Z</time>
      </trkpt>
      <trkpt lat="45.85371" lon="5.78328">
        <ele>301.6</ele>
        <time>2021-08-20T16:58:31Z</time>
      </trkpt>
      <trkpt lat="45.8537" lon="5.78346">
        <ele>300.7</ele>
        <time>2021-08-20T16:58:33Z</time>
      </trkpt>
      <trkpt lat="45.8537" lon="5.78365">
        <ele>299.7</ele>
        <time>2021-08-20T16:58:35Z</time>
      </trkpt>
      <trkpt lat="45.85369" lon="5.78373">
        <ele>299.2</ele>
        <time>2021-08-20T16:58:36Z</time>
      </trkpt>
      <trkpt lat="45.8537" lon="5.78388">
        <ele>299</ele>
        <time>2021-08-20T16:58:38Z</time>
      </trkpt>
      <trkpt lat="45.85373" lon="5.78401">
        <ele>299.1</ele>
        <time>2021-08-20T16:58:40Z</time>
      </trkpt>
      <trkpt lat="45.85376" lon="5.78411">
        <ele>299.2</ele>
        <time>2021-08-20T16:58:42Z</time>
      </trkpt>
      <trkpt lat="45.85377" lon="5.78417">
        <ele>299.3</ele>
        <time>2021-08-20T16:58:43Z</time>
      </trkpt>
      <trkpt lat="45.85379" lon="5.78422">
        <ele>299.3</ele>
        <time>2021-08-20T16:58:44Z</time>
      </trkpt>
      <trkpt lat="45.85382" lon="5.78428">
        <ele>299.4</ele>
        <time>2021-08-20T16:58:45Z</time>
      </trkpt>
      <trkpt lat="45.85384" lon="5.78433">
        <ele>299.4</ele>
        <time>2021-08-20T16:58:46Z</time>
      </trkpt>
      <trkpt lat="45.85385" lon="5.78438">
        <ele>299.4</ele>
        <time>2021-08-20T16:58:47Z</time>
      </trkpt>
      <trkpt lat="45.85387" lon="5.78448">
        <ele>299.3</ele>
        <time>2021-08-20T16:58:49Z</time>
      </trkpt>
      <trkpt lat="45.85388" lon="5.78453">
        <ele>299.3</ele>
        <time>2021-08-20T16:58:50Z</time>
      </trkpt>
      <trkpt lat="45.85389" lon="5.78459">
        <ele>299.3</ele>
        <time>2021-08-20T16:58:51Z</time>
      </trkpt>
      <trkpt lat="45.85392" lon="5.78465">
        <ele>299.2</ele>
        <time>2021-08-20T16:58:52Z</time>
      </trkpt>
      <trkpt lat="45.85394" lon="5.78471">
        <ele>299.2</ele>
        <time>2021-08-20T16:58:53Z</time>
      </trkpt>
      <trkpt lat="45.85397" lon="5.78482">
        <ele>299.1</ele>
        <time>2021-08-20T16:58:55Z</time>
      </trkpt>
      <trkpt lat="45.85399" lon="5.78486">
        <ele>299.1</ele>
        <time>2021-08-20T16:58:56Z</time>
      </trkpt>
      <trkpt lat="45.854" lon="5.78491">
        <ele>299.1</ele>
        <time>2021-08-20T16:58:57Z</time>
      </trkpt>
      <trkpt lat="45.85404" lon="5.78505">
        <ele>299</ele>
        <time>2021-08-20T16:58:59Z</time>
      </trkpt>
      <trkpt lat="45.85406" lon="5.78513">
        <ele>299</ele>
        <time>2021-08-20T16:59:00Z</time>
      </trkpt>
      <trkpt lat="45.8541" lon="5.78524">
        <ele>299</ele>
        <time>2021-08-20T16:59:02Z</time>
      </trkpt>
      <trkpt lat="45.85412" lon="5.7853">
        <ele>299</ele>
        <time>2021-08-20T16:59:03Z</time>
      </trkpt>
      <trkpt lat="45.85414" lon="5.78536">
        <ele>299</ele>
        <time>2021-08-20T16:59:04Z</time>
      </trkpt>
      <trkpt lat="45.85417" lon="5.78545">
        <ele>299</ele>
        <time>2021-08-20T16:59:05Z</time>
      </trkpt>
      <trkpt lat="45.85421" lon="5.78553">
        <ele>299</ele>
        <time>2021-08-20T16:59:07Z</time>
      </trkpt>
      <trkpt lat="45.85427" lon="5.78565">
        <ele>298.9</ele>
        <time>2021-08-20T16:59:09Z</time>
      </trkpt>
      <trkpt lat="45.85433" lon="5.78577">
        <ele>298.8</ele>
        <time>2021-08-20T16:59:11Z</time>
      </trkpt>
      <trkpt lat="45.85433" lon="5.78581">
        <ele>298.8</ele>
        <time>2021-08-20T16:59:12Z</time>
      </trkpt>
      <trkpt lat="45.85435" lon="5.78588">
        <ele>298.7</ele>
        <time>2021-08-20T16:59:13Z</time>
      </trkpt>
      <trkpt lat="45.85436" lon="5.78595">
        <ele>298.7</ele>
        <time>2021-08-20T16:59:14Z</time>
      </trkpt>
      <trkpt lat="45.85445" lon="5.78603">
        <ele>298.6</ele>
        <time>2021-08-20T16:59:16Z</time>
      </trkpt>
      <trkpt lat="45.85448" lon="5.78609">
        <ele>298.5</ele>
        <time>2021-08-20T16:59:17Z</time>
      </trkpt>
      <trkpt lat="45.85452" lon="5.78617">
        <ele>298.4</ele>
        <time>2021-08-20T16:59:18Z</time>
      </trkpt>
      <trkpt lat="45.85457" lon="5.78625">
        <ele>298.3</ele>
        <time>2021-08-20T16:59:20Z</time>
      </trkpt>
      <trkpt lat="45.85459" lon="5.7863">
        <ele>298.2</ele>
        <time>2021-08-20T16:59:21Z</time>
      </trkpt>
      <trkpt lat="45.85461" lon="5.78634">
        <ele>298.2</ele>
        <time>2021-08-20T16:59:22Z</time>
      </trkpt>
      <trkpt lat="45.85464" lon="5.78639">
        <ele>298.1</ele>
        <time>2021-08-20T16:59:24Z</time>
      </trkpt>
      <trkpt lat="45.85467" lon="5.78644">
        <ele>298.1</ele>
        <time>2021-08-20T16:59:25Z</time>
      </trkpt>
      <trkpt lat="45.85468" lon="5.78647">
        <ele>297.8</ele>
        <time>2021-08-20T16:59:27Z</time>
      </trkpt>
      <trkpt lat="45.85467" lon="5.78654">
        <ele>297.6</ele>
        <time>2021-08-20T16:59:29Z</time>
      </trkpt>
      <trkpt lat="45.85461" lon="5.78658">
        <ele>297.4</ele>
        <time>2021-08-20T16:59:31Z</time>
      </trkpt>
      <trkpt lat="45.85457" lon="5.78661">
        <ele>297.3</ele>
        <time>2021-08-20T16:59:32Z</time>
      </trkpt>
      <trkpt lat="45.85453" lon="5.78664">
        <ele>297.1</ele>
        <time>2021-08-20T16:59:33Z</time>
      </trkpt>
      <trkpt lat="45.85446" lon="5.78666">
        <ele>296.8</ele>
        <time>2021-08-20T16:59:34Z</time>
      </trkpt>
      <trkpt lat="45.85441" lon="5.78666">
        <ele>296.7</ele>
        <time>2021-08-20T16:59:35Z</time>
      </trkpt>
      <trkpt lat="45.85438" lon="5.78668">
        <ele>296.5</ele>
        <time>2021-08-20T16:59:36Z</time>
      </trkpt>
      <trkpt lat="45.85435" lon="5.78671">
        <ele>296.4</ele>
        <time>2021-08-20T16:59:38Z</time>
      </trkpt>
      <trkpt lat="45.85434" lon="5.78672">
        <ele>296.3</ele>
        <time>2021-08-20T16:59:39Z</time>
      </trkpt>
      <trkpt lat="45.85431" lon="5.78673">
        <ele>296.2</ele>
        <time>2021-08-20T16:59:41Z</time>
      </trkpt>
      <trkpt lat="45.85433" lon="5.78669">
        <ele>296.1</ele>
        <time>2021-08-20T16:59:42Z</time>
      </trkpt>
      <trkpt lat="45.85433" lon="5.78667">
        <ele>296.1</ele>
        <time>2021-08-20T16:59:43Z</time>
      </trkpt>
      <trkpt lat="45.85434" lon="5.78665">
        <ele>296</ele>
        <time>2021-08-20T16:59:44Z</time>
      </trkpt>
      <trkpt lat="45.85436" lon="5.78663">
        <ele>295.9</ele>
        <time>2021-08-20T16:59:45Z</time>
      </trkpt>
      <trkpt lat="45.85442" lon="5.78658">
        <ele>296.3</ele>
        <time>2021-08-20T16:59:46Z</time>
      </trkpt>
      <trkpt lat="45.85448" lon="5.78651">
        <ele>296.8</ele>
        <time>2021-08-20T16:59:48Z</time>
      </trkpt>
      <trkpt lat="45.85454" lon="5.78645">
        <ele>297.2</ele>
        <time>2021-08-20T16:59:49Z</time>
      </trkpt>
      <trkpt lat="45.85459" lon="5.78641">
        <ele>297.5</ele>
        <time>2021-08-20T16:59:50Z</time>
      </trkpt>
      <trkpt lat="45.85465" lon="5.7864">
        <ele>297.8</ele>
        <time>2021-08-20T16:59:52Z</time>
      </trkpt>
      <trkpt lat="45.85468" lon="5.7864">
        <ele>298</ele>
        <time>2021-08-20T16:59:53Z</time>
      </trkpt>
      <trkpt lat="45.85472" lon="5.78642">
        <ele>298</ele>
        <time>2021-08-20T16:59:54Z</time>
      </trkpt>
      <trkpt lat="45.85477" lon="5.7865">
        <ele>297.8</ele>
        <time>2021-08-20T16:59:56Z</time>
      </trkpt>
      <trkpt lat="45.85482" lon="5.78653">
        <ele>297.8</ele>
        <time>2021-08-20T16:59:57Z</time>
      </trkpt>
      <trkpt lat="45.85486" lon="5.78656">
        <ele>297.7</ele>
        <time>2021-08-20T16:59:58Z</time>
      </trkpt>
      <trkpt lat="45.85489" lon="5.78661">
        <ele>297.6</ele>
        <time>2021-08-20T16:59:59Z</time>
      </trkpt>
      <trkpt lat="45.85495" lon="5.78668">
        <ele>297.5</ele>
        <time>2021-08-20T17:00:00Z</time>
      </trkpt>
      <trkpt lat="45.85499" lon="5.78672">
        <ele>297.4</ele>
        <time>2021-08-20T17:00:02Z</time>
      </trkpt>
      <trkpt lat="45.85502" lon="5.78679">
        <ele>297.4</ele>
        <time>2021-08-20T17:00:04Z</time>
      </trkpt>
      <trkpt lat="45.85503" lon="5.78684">
        <ele>296.9</ele>
        <time>2021-08-20T17:00:05Z</time>
      </trkpt>
      <trkpt lat="45.85502" lon="5.78685">
        <ele>296.8</ele>
        <time>2021-08-20T17:00:06Z</time>
      </trkpt>
      <trkpt lat="45.85502" lon="5.78686">
        <ele>296.6</ele>
        <time>2021-08-20T17:00:07Z</time>
      </trkpt>
      <trkpt lat="45.855" lon="5.78686">
        <ele>296.3</ele>
        <time>2021-08-20T17:00:08Z</time>
      </trkpt>
      <trkpt lat="45.85496" lon="5.7869">
        <ele>295.7</ele>
        <time>2021-08-20T17:00:09Z</time>
      </trkpt>
      <trkpt lat="45.8549" lon="5.78694">
        <ele>294.7</ele>
        <time>2021-08-20T17:00:11Z</time>
      </trkpt>
      <trkpt lat="45.85473" lon="5.78702">
        <ele>292</ele>
        <time>2021-08-20T17:00:13Z</time>
      </trkpt>
      <trkpt lat="45.85461" lon="5.78712">
        <ele>290</ele>
        <time>2021-08-20T17:00:15Z</time>
      </trkpt>
      <trkpt lat="45.85455" lon="5.78717">
        <ele>289.1</ele>
        <time>2021-08-20T17:00:16Z</time>
      </trkpt>
      <trkpt lat="45.85444" lon="5.7873">
        <ele>287.2</ele>
        <time>2021-08-20T17:00:18Z</time>
      </trkpt>
      <trkpt lat="45.85439" lon="5.78737">
        <ele>286.3</ele>
        <time>2021-08-20T17:00:19Z</time>
      </trkpt>
      <trkpt lat="45.8543" lon="5.78749">
        <ele>284.6</ele>
        <time>2021-08-20T17:00:21Z</time>
      </trkpt>
      <trkpt lat="45.85421" lon="5.78761">
        <ele>282.7</ele>
        <time>2021-08-20T17:00:23Z</time>
      </trkpt>
      <trkpt lat="45.85416" lon="5.78767">
        <ele>281.9</ele>
        <time>2021-08-20T17:00:24Z</time>
      </trkpt>
      <trkpt lat="45.85407" lon="5.78782">
        <ele>280.1</ele>
        <time>2021-08-20T17:00:26Z</time>
      </trkpt>
      <trkpt lat="45.85396" lon="5.78798">
        <ele>278.2</ele>
        <time>2021-08-20T17:00:28Z</time>
      </trkpt>
      <trkpt lat="45.85389" lon="5.78805">
        <ele>277.3</ele>
        <time>2021-08-20T17:00:29Z</time>
      </trkpt>
      <trkpt lat="45.85375" lon="5.78816">
        <ele>275.9</ele>
        <time>2021-08-20T17:00:31Z</time>
      </trkpt>
      <trkpt lat="45.85369" lon="5.78822">
        <ele>275.4</ele>
        <time>2021-08-20T17:00:32Z</time>
      </trkpt>
      <trkpt lat="45.85358" lon="5.78832">
        <ele>274.4</ele>
        <time>2021-08-20T17:00:34Z</time>
      </trkpt>
      <trkpt lat="45.85348" lon="5.7884">
        <ele>273.1</ele>
        <time>2021-08-20T17:00:36Z</time>
      </trkpt>
      <trkpt lat="45.85345" lon="5.78841">
        <ele>273.1</ele>
        <time>2021-08-20T17:00:38Z</time>
      </trkpt>
      <trkpt lat="45.85345" lon="5.78842">
        <ele>273.1</ele>
        <time>2021-08-20T17:00:39Z</time>
      </trkpt>
      <trkpt lat="45.85345" lon="5.78843">
        <ele>273.1</ele>
        <time>2021-08-20T17:00:41Z</time>
      </trkpt>
      <trkpt lat="45.85346" lon="5.78844">
        <ele>272</ele>
        <time>2021-08-20T17:00:42Z</time>
      </trkpt>
      <trkpt lat="45.85346" lon="5.78845">
        <ele>271.9</ele>
        <time>2021-08-20T17:00:43Z</time>
      </trkpt>
      <trkpt lat="45.85349" lon="5.78851">
        <ele>271.4</ele>
        <time>2021-08-20T17:00:45Z</time>
      </trkpt>
      <trkpt lat="45.85359" lon="5.78859">
        <ele>269.9</ele>
        <time>2021-08-20T17:00:47Z</time>
      </trkpt>
      <trkpt lat="45.85369" lon="5.78873">
        <ele>268.2</ele>
        <time>2021-08-20T17:00:49Z</time>
      </trkpt>
      <trkpt lat="45.85373" lon="5.78881">
        <ele>267.3</ele>
        <time>2021-08-20T17:00:50Z</time>
      </trkpt>
      <trkpt lat="45.85382" lon="5.78901">
        <ele>265</ele>
        <time>2021-08-20T17:00:52Z</time>
      </trkpt>
      <trkpt lat="45.8539" lon="5.78926">
        <ele>262.5</ele>
        <time>2021-08-20T17:00:54Z</time>
      </trkpt>
      <trkpt lat="45.85393" lon="5.78939">
        <ele>261.2</ele>
        <time>2021-08-20T17:00:55Z</time>
      </trkpt>
      <trkpt lat="45.85397" lon="5.78953">
        <ele>260</ele>
        <time>2021-08-20T17:00:56Z</time>
      </trkpt>
      <trkpt lat="45.85406" lon="5.78977">
        <ele>257.5</ele>
        <time>2021-08-20T17:00:58Z</time>
      </trkpt>
      <trkpt lat="45.85417" lon="5.78996">
        <ele>255.3</ele>
        <time>2021-08-20T17:01:00Z</time>
      </trkpt>
      <trkpt lat="45.8543" lon="5.7901">
        <ele>253.3</ele>
        <time>2021-08-20T17:01:02Z</time>
      </trkpt>
      <trkpt lat="45.85436" lon="5.79018">
        <ele>252.3</ele>
        <time>2021-08-20T17:01:03Z</time>
      </trkpt>
      <trkpt lat="45.8545" lon="5.79035">
        <ele>250.3</ele>
        <time>2021-08-20T17:01:05Z</time>
      </trkpt>
      <trkpt lat="45.85456" lon="5.79046">
        <ele>249.3</ele>
        <time>2021-08-20T17:01:06Z</time>
      </trkpt>
      <trkpt lat="45.85463" lon="5.79057">
        <ele>248.2</ele>
        <time>2021-08-20T17:01:07Z</time>
      </trkpt>
      <trkpt lat="45.85475" lon="5.79077">
        <ele>246.3</ele>
        <time>2021-08-20T17:01:09Z</time>
      </trkpt>
      <trkpt lat="45.85487" lon="5.79095">
        <ele>244.9</ele>
        <time>2021-08-20T17:01:11Z</time>
      </trkpt>
      <trkpt lat="45.85492" lon="5.79102">
        <ele>244.4</ele>
        <time>2021-08-20T17:01:12Z</time>
      </trkpt>
      <trkpt lat="45.85501" lon="5.79114">
        <ele>243.6</ele>
        <time>2021-08-20T17:01:14Z</time>
      </trkpt>
      <trkpt lat="45.85505" lon="5.79118">
        <ele>243.3</ele>
        <time>2021-08-20T17:01:15Z</time>
      </trkpt>
      <trkpt lat="45.85513" lon="5.79127">
        <ele>242.6</ele>
        <time>2021-08-20T17:01:17Z</time>
      </trkpt>
      <trkpt lat="45.85516" lon="5.79132">
        <ele>242.3</ele>
        <time>2021-08-20T17:01:18Z</time>
      </trkpt>
      <trkpt lat="45.85518" lon="5.79139">
        <ele>242</ele>
        <time>2021-08-20T17:01:20Z</time>
      </trkpt>
      <trkpt lat="45.85515" lon="5.79142">
        <ele>241.2</ele>
        <time>2021-08-20T17:01:22Z</time>
      </trkpt>
      <trkpt lat="45.85506" lon="5.79141">
        <ele>240.5</ele>
        <time>2021-08-20T17:01:24Z</time>
      </trkpt>
      <trkpt lat="45.8549" lon="5.79134">
        <ele>239.8</ele>
        <time>2021-08-20T17:01:26Z</time>
      </trkpt>
      <trkpt lat="45.85474" lon="5.79126">
        <ele>239.4</ele>
        <time>2021-08-20T17:01:28Z</time>
      </trkpt>
      <trkpt lat="45.85466" lon="5.79123">
        <ele>239.3</ele>
        <time>2021-08-20T17:01:29Z</time>
      </trkpt>
      <trkpt lat="45.85459" lon="5.7912">
        <ele>239.2</ele>
        <time>2021-08-20T17:01:30Z</time>
      </trkpt>
      <trkpt lat="45.85452" lon="5.79117">
        <ele>239.1</ele>
        <time>2021-08-20T17:01:31Z</time>
      </trkpt>
      <trkpt lat="45.85439" lon="5.79113">
        <ele>238.9</ele>
        <time>2021-08-20T17:01:33Z</time>
      </trkpt>
      <trkpt lat="45.85426" lon="5.7911">
        <ele>238.8</ele>
        <time>2021-08-20T17:01:35Z</time>
      </trkpt>
      <trkpt lat="45.85419" lon="5.79109">
        <ele>238.7</ele>
        <time>2021-08-20T17:01:36Z</time>
      </trkpt>
      <trkpt lat="45.85413" lon="5.79108">
        <ele>238.6</ele>
        <time>2021-08-20T17:01:37Z</time>
      </trkpt>
      <trkpt lat="45.85401" lon="5.79105">
        <ele>238.5</ele>
        <time>2021-08-20T17:01:39Z</time>
      </trkpt>
      <trkpt lat="45.8539" lon="5.79104">
        <ele>238.5</ele>
        <time>2021-08-20T17:01:41Z</time>
      </trkpt>
      <trkpt lat="45.85385" lon="5.79104">
        <ele>238.5</ele>
        <time>2021-08-20T17:01:42Z</time>
      </trkpt>
      <trkpt lat="45.85375" lon="5.79105">
        <ele>238.5</ele>
        <time>2021-08-20T17:01:44Z</time>
      </trkpt>
      <trkpt lat="45.85368" lon="5.79105">
        <ele>238.5</ele>
        <time>2021-08-20T17:01:46Z</time>
      </trkpt>
      <trkpt lat="45.85362" lon="5.79105">
        <ele>238.5</ele>
        <time>2021-08-20T17:01:48Z</time>
      </trkpt>
      <trkpt lat="45.85358" lon="5.79104">
        <ele>238.5</ele>
        <time>2021-08-20T17:01:50Z</time>
      </trkpt>
      <trkpt lat="45.85356" lon="5.79103">
        <ele>238.5</ele>
        <time>2021-08-20T17:01:51Z</time>
      </trkpt>
      <trkpt lat="45.85355" lon="5.79103">
        <ele>238.5</ele>
        <time>2021-08-20T17:01:52Z</time>
      </trkpt>
      <trkpt lat="45.85354" lon="5.79103">
        <ele>238.5</ele>
        <time>2021-08-20T17:01:54Z</time>
      </trkpt>
      <trkpt lat="45.85354" lon="5.79103">
        <ele>238.5</ele>
        <time>2021-08-20T17:01:55Z</time>
      </trkpt>
      <trkpt lat="45.85347" lon="5.79104">
        <ele>238.4</ele>
        <time>2021-08-20T17:01:57Z</time>
      </trkpt>
      <trkpt lat="45.85341" lon="5.79106">
        <ele>238.4</ele>
        <time>2021-08-20T17:01:59Z</time>
      </trkpt>
      <trkpt lat="45.85334" lon="5.7911">
        <ele>238.3</ele>
        <time>2021-08-20T17:02:00Z</time>
      </trkpt>
      <trkpt lat="45.85329" lon="5.79114">
        <ele>238.3</ele>
        <time>2021-08-20T17:02:01Z</time>
      </trkpt>
      <trkpt lat="45.85325" lon="5.79119">
        <ele>238.2</ele>
        <time>2021-08-20T17:02:02Z</time>
      </trkpt>
      <trkpt lat="45.85321" lon="5.79123">
        <ele>238.2</ele>
        <time>2021-08-20T17:02:03Z</time>
      </trkpt>
      <trkpt lat="45.85316" lon="5.7913">
        <ele>238.1</ele>
        <time>2021-08-20T17:02:05Z</time>
      </trkpt>
      <trkpt lat="45.85313" lon="5.79135">
        <ele>238.1</ele>
        <time>2021-08-20T17:02:06Z</time>
      </trkpt>
      <trkpt lat="45.85309" lon="5.79144">
        <ele>238</ele>
        <time>2021-08-20T17:02:08Z</time>
      </trkpt>
      <trkpt lat="45.85307" lon="5.79149">
        <ele>238</ele>
        <time>2021-08-20T17:02:09Z</time>
      </trkpt>
      <trkpt lat="45.85304" lon="5.79156">
        <ele>238</ele>
        <time>2021-08-20T17:02:10Z</time>
      </trkpt>
      <trkpt lat="45.853" lon="5.79164">
        <ele>237.9</ele>
        <time>2021-08-20T17:02:12Z</time>
      </trkpt>
      <trkpt lat="45.85297" lon="5.79169">
        <ele>237.9</ele>
        <time>2021-08-20T17:02:13Z</time>
      </trkpt>
      <trkpt lat="45.85291" lon="5.79176">
        <ele>237.9</ele>
        <time>2021-08-20T17:02:14Z</time>
      </trkpt>
      <trkpt lat="45.8529" lon="5.79182">
        <ele>237.9</ele>
        <time>2021-08-20T17:02:16Z</time>
      </trkpt>
      <trkpt lat="45.85291" lon="5.79189">
        <ele>237.7</ele>
        <time>2021-08-20T17:02:17Z</time>
      </trkpt>
      <trkpt lat="45.85294" lon="5.79195">
        <ele>237.7</ele>
        <time>2021-08-20T17:02:18Z</time>
      </trkpt>
      <trkpt lat="45.85299" lon="5.792">
        <ele>237.6</ele>
        <time>2021-08-20T17:02:20Z</time>
      </trkpt>
      <trkpt lat="45.85302" lon="5.79203">
        <ele>237.6</ele>
        <time>2021-08-20T17:02:21Z</time>
      </trkpt>
      <trkpt lat="45.85311" lon="5.79208">
        <ele>237.6</ele>
        <time>2021-08-20T17:02:23Z</time>
      </trkpt>
      <trkpt lat="45.85315" lon="5.79211">
        <ele>237.6</ele>
        <time>2021-08-20T17:02:24Z</time>
      </trkpt>
      <trkpt lat="45.85319" lon="5.79212">
        <ele>237.6</ele>
        <time>2021-08-20T17:02:26Z</time>
      </trkpt>
      <trkpt lat="45.85324" lon="5.79214">
        <ele>237.6</ele>
        <time>2021-08-20T17:02:27Z</time>
      </trkpt>
      <trkpt lat="45.85331" lon="5.79218">
        <ele>237.6</ele>
        <time>2021-08-20T17:02:29Z</time>
      </trkpt>
      <trkpt lat="45.85335" lon="5.79222">
        <ele>237.6</ele>
        <time>2021-08-20T17:02:30Z</time>
      </trkpt>
      <trkpt lat="45.85341" lon="5.79227">
        <ele>237.6</ele>
        <time>2021-08-20T17:02:31Z</time>
      </trkpt>
      <trkpt lat="45.85345" lon="5.7923">
        <ele>237.6</ele>
        <time>2021-08-20T17:02:32Z</time>
      </trkpt>
      <trkpt lat="45.85351" lon="5.79234">
        <ele>237.6</ele>
        <time>2021-08-20T17:02:34Z</time>
      </trkpt>
      <trkpt lat="45.85357" lon="5.7924">
        <ele>237.7</ele>
        <time>2021-08-20T17:02:35Z</time>
      </trkpt>
      <trkpt lat="45.85362" lon="5.79244">
        <ele>237.7</ele>
        <time>2021-08-20T17:02:37Z</time>
      </trkpt>
      <trkpt lat="45.85367" lon="5.79248">
        <ele>237.8</ele>
        <time>2021-08-20T17:02:39Z</time>
      </trkpt>
      <trkpt lat="45.85371" lon="5.79251">
        <ele>237.8</ele>
        <time>2021-08-20T17:02:40Z</time>
      </trkpt>
      <trkpt lat="45.85375" lon="5.79254">
        <ele>237.8</ele>
        <time>2021-08-20T17:02:41Z</time>
      </trkpt>
      <trkpt lat="45.85379" lon="5.79256">
        <ele>237.8</ele>
        <time>2021-08-20T17:02:42Z</time>
      </trkpt>
      <trkpt lat="45.85384" lon="5.79257">
        <ele>237.9</ele>
        <time>2021-08-20T17:02:43Z</time>
      </trkpt>
      <trkpt lat="45.85387" lon="5.79259">
        <ele>237.9</ele>
        <time>2021-08-20T17:02:45Z</time>
      </trkpt>
      <trkpt lat="45.85393" lon="5.7926">
        <ele>237.9</ele>
        <time>2021-08-20T17:02:47Z</time>
      </trkpt>
      <trkpt lat="45.85398" lon="5.79261">
        <ele>237.9</ele>
        <time>2021-08-20T17:02:48Z</time>
      </trkpt>
      <trkpt lat="45.85402" lon="5.79261">
        <ele>237.9</ele>
        <time>2021-08-20T17:02:49Z</time>
      </trkpt>
      <trkpt lat="45.85407" lon="5.79263">
        <ele>237.9</ele>
        <time>2021-08-20T17:02:51Z</time>
      </trkpt>
      <trkpt lat="45.85411" lon="5.79264">
        <ele>237.9</ele>
        <time>2021-08-20T17:02:52Z</time>
      </trkpt>
      <trkpt lat="45.85413" lon="5.79268">
        <ele>237.9</ele>
        <time>2021-08-20T17:02:53Z</time>
      </trkpt>
      <trkpt lat="45.85416" lon="5.79273">
        <ele>237.9</ele>
        <time>2021-08-20T17:02:54Z</time>
      </trkpt>
      <trkpt lat="45.85418" lon="5.79279">
        <ele>238</ele>
        <time>2021-08-20T17:02:56Z</time>
      </trkpt>
      <trkpt lat="45.85421" lon="5.79287">
        <ele>238</ele>
        <time>2021-08-20T17:02:57Z</time>
      </trkpt>
      <trkpt lat="45.85423" lon="5.79294">
        <ele>238</ele>
        <time>2021-08-20T17:02:58Z</time>
      </trkpt>
      <trkpt lat="45.85424" lon="5.793">
        <ele>238</ele>
        <time>2021-08-20T17:02:59Z</time>
      </trkpt>
      <trkpt lat="45.85424" lon="5.79306">
        <ele>238</ele>
        <time>2021-08-20T17:03:00Z</time>
      </trkpt>
      <trkpt lat="45.85422" lon="5.79314">
        <ele>237.9</ele>
        <time>2021-08-20T17:03:02Z</time>
      </trkpt>
      <trkpt lat="45.85417" lon="5.79322">
        <ele>237.8</ele>
        <time>2021-08-20T17:03:03Z</time>
      </trkpt>
      <trkpt lat="45.85406" lon="5.79332">
        <ele>237.6</ele>
        <time>2021-08-20T17:03:05Z</time>
      </trkpt>
      <trkpt lat="45.85401" lon="5.7934">
        <ele>237.6</ele>
        <time>2021-08-20T17:03:06Z</time>
      </trkpt>
      <trkpt lat="45.85391" lon="5.79351">
        <ele>237.6</ele>
        <time>2021-08-20T17:03:08Z</time>
      </trkpt>
      <trkpt lat="45.85386" lon="5.79357">
        <ele>237.6</ele>
        <time>2021-08-20T17:03:09Z</time>
      </trkpt>
      <trkpt lat="45.85383" lon="5.79362">
        <ele>237.6</ele>
        <time>2021-08-20T17:03:11Z</time>
      </trkpt>
      <trkpt lat="45.85379" lon="5.79368">
        <ele>237.6</ele>
        <time>2021-08-20T17:03:12Z</time>
      </trkpt>
      <trkpt lat="45.85376" lon="5.79374">
        <ele>237.6</ele>
        <time>2021-08-20T17:03:13Z</time>
      </trkpt>
      <trkpt lat="45.85374" lon="5.79379">
        <ele>237.6</ele>
        <time>2021-08-20T17:03:14Z</time>
      </trkpt>
      <trkpt lat="45.85371" lon="5.79386">
        <ele>237.6</ele>
        <time>2021-08-20T17:03:16Z</time>
      </trkpt>
      <trkpt lat="45.85368" lon="5.79393">
        <ele>237.6</ele>
        <time>2021-08-20T17:03:17Z</time>
      </trkpt>
      <trkpt lat="45.85366" lon="5.79399">
        <ele>237.6</ele>
        <time>2021-08-20T17:03:18Z</time>
      </trkpt>
      <trkpt lat="45.85363" lon="5.79408">
        <ele>237.6</ele>
        <time>2021-08-20T17:03:20Z</time>
      </trkpt>
      <trkpt lat="45.85359" lon="5.79416">
        <ele>237.5</ele>
        <time>2021-08-20T17:03:21Z</time>
      </trkpt>
      <trkpt lat="45.85356" lon="5.79421">
        <ele>237.5</ele>
        <time>2021-08-20T17:03:23Z</time>
      </trkpt>
      <trkpt lat="45.85354" lon="5.79427">
        <ele>237.5</ele>
        <time>2021-08-20T17:03:24Z</time>
      </trkpt>
      <trkpt lat="45.85351" lon="5.7943">
        <ele>237.5</ele>
        <time>2021-08-20T17:03:26Z</time>
      </trkpt>
      <trkpt lat="45.85348" lon="5.79432">
        <ele>237.3</ele>
        <time>2021-08-20T17:03:27Z</time>
      </trkpt>
      <trkpt lat="45.85345" lon="5.79432">
        <ele>237.1</ele>
        <time>2021-08-20T17:03:29Z</time>
      </trkpt>
      <trkpt lat="45.85344" lon="5.79431">
        <ele>237.1</ele>
        <time>2021-08-20T17:03:30Z</time>
      </trkpt>
      <trkpt lat="45.85341" lon="5.79428">
        <ele>236.9</ele>
        <time>2021-08-20T17:03:31Z</time>
      </trkpt>
      <trkpt lat="45.8534" lon="5.79426">
        <ele>236.8</ele>
        <time>2021-08-20T17:03:32Z</time>
      </trkpt>
      <trkpt lat="45.85337" lon="5.79424">
        <ele>236.7</ele>
        <time>2021-08-20T17:03:33Z</time>
      </trkpt>
      <trkpt lat="45.85333" lon="5.79422">
        <ele>236.5</ele>
        <time>2021-08-20T17:03:35Z</time>
      </trkpt>
      <trkpt lat="45.8533" lon="5.79419">
        <ele>236.4</ele>
        <time>2021-08-20T17:03:36Z</time>
      </trkpt>
      <trkpt lat="45.85329" lon="5.79415">
        <ele>236</ele>
        <time>2021-08-20T17:03:37Z</time>
      </trkpt>
      <trkpt lat="45.85327" lon="5.79409">
        <ele>236</ele>
        <time>2021-08-20T17:03:39Z</time>
      </trkpt>
      <trkpt lat="45.85326" lon="5.79404">
        <ele>236</ele>
        <time>2021-08-20T17:03:40Z</time>
      </trkpt>
      <trkpt lat="45.85324" lon="5.79399">
        <ele>236</ele>
        <time>2021-08-20T17:03:41Z</time>
      </trkpt>
      <trkpt lat="45.8532" lon="5.7939">
        <ele>236</ele>
        <time>2021-08-20T17:03:43Z</time>
      </trkpt>
      <trkpt lat="45.85316" lon="5.79383">
        <ele>236</ele>
        <time>2021-08-20T17:03:44Z</time>
      </trkpt>
      <trkpt lat="45.85313" lon="5.79377">
        <ele>236</ele>
        <time>2021-08-20T17:03:46Z</time>
      </trkpt>
      <trkpt lat="45.8531" lon="5.79372">
        <ele>236</ele>
        <time>2021-08-20T17:03:47Z</time>
      </trkpt>
      <trkpt lat="45.85308" lon="5.79366">
        <ele>235.9</ele>
        <time>2021-08-20T17:03:48Z</time>
      </trkpt>
      <trkpt lat="45.85306" lon="5.79361">
        <ele>235.9</ele>
        <time>2021-08-20T17:03:49Z</time>
      </trkpt>
      <trkpt lat="45.85304" lon="5.79356">
        <ele>235.9</ele>
        <time>2021-08-20T17:03:50Z</time>
      </trkpt>
      <trkpt lat="45.85302" lon="5.79352">
        <ele>235.9</ele>
        <time>2021-08-20T17:03:51Z</time>
      </trkpt>
      <trkpt lat="45.853" lon="5.79348">
        <ele>235.9</ele>
        <time>2021-08-20T17:03:52Z</time>
      </trkpt>
      <trkpt lat="45.85299" lon="5.79344">
        <ele>235.9</ele>
        <time>2021-08-20T17:03:53Z</time>
      </trkpt>
      <trkpt lat="45.85298" lon="5.79341">
        <ele>235.9</ele>
        <time>2021-08-20T17:03:54Z</time>
      </trkpt>
      <trkpt lat="45.85297" lon="5.79338">
        <ele>235.9</ele>
        <time>2021-08-20T17:03:56Z</time>
      </trkpt>
      <trkpt lat="45.85296" lon="5.79333">
        <ele>235.9</ele>
        <time>2021-08-20T17:03:57Z</time>
      </trkpt>
      <trkpt lat="45.85294" lon="5.79331">
        <ele>235.9</ele>
        <time>2021-08-20T17:03:58Z</time>
      </trkpt>
      <trkpt lat="45.85292" lon="5.79327">
        <ele>235.9</ele>
        <time>2021-08-20T17:03:59Z</time>
      </trkpt>
      <trkpt lat="45.85291" lon="5.79323">
        <ele>235.9</ele>
        <time>2021-08-20T17:04:01Z</time>
      </trkpt>
      <trkpt lat="45.85289" lon="5.79318">
        <ele>235.9</ele>
        <time>2021-08-20T17:04:02Z</time>
      </trkpt>
      <trkpt lat="45.85284" lon="5.7931">
        <ele>235.9</ele>
        <time>2021-08-20T17:04:04Z</time>
      </trkpt>
      <trkpt lat="45.85283" lon="5.79306">
        <ele>235.8</ele>
        <time>2021-08-20T17:04:05Z</time>
      </trkpt>
      <trkpt lat="45.85279" lon="5.79298">
        <ele>235.8</ele>
        <time>2021-08-20T17:04:07Z</time>
      </trkpt>
      <trkpt lat="45.85278" lon="5.79295">
        <ele>235.8</ele>
        <time>2021-08-20T17:04:08Z</time>
      </trkpt>
      <trkpt lat="45.85273" lon="5.79294">
        <ele>235.8</ele>
        <time>2021-08-20T17:04:10Z</time>
      </trkpt>
      <trkpt lat="45.85272" lon="5.79294">
        <ele>235.8</ele>
        <time>2021-08-20T17:04:11Z</time>
      </trkpt>
      <trkpt lat="45.8527" lon="5.79295">
        <ele>235.8</ele>
        <time>2021-08-20T17:04:12Z</time>
      </trkpt>
      <trkpt lat="45.85267" lon="5.79295">
        <ele>235.8</ele>
        <time>2021-08-20T17:04:14Z</time>
      </trkpt>
      <trkpt lat="45.85266" lon="5.79295">
        <ele>235.8</ele>
        <time>2021-08-20T17:04:15Z</time>
      </trkpt>
      <trkpt lat="45.85266" lon="5.79296">
        <ele>235.8</ele>
        <time>2021-08-20T17:04:16Z</time>
      </trkpt>
      <trkpt lat="45.85264" lon="5.79297">
        <ele>235.8</ele>
        <time>2021-08-20T17:04:17Z</time>
      </trkpt>
      <trkpt lat="45.85264" lon="5.79296">
        <ele>235.8</ele>
        <time>2021-08-20T17:04:18Z</time>
      </trkpt>
      <trkpt lat="45.85264" lon="5.79295">
        <ele>235.9</ele>
        <time>2021-08-20T17:04:20Z</time>
      </trkpt>
      <trkpt lat="45.85264" lon="5.79295">
        <ele>235.9</ele>
        <time>2021-08-20T17:04:22Z</time>
      </trkpt>
      <trkpt lat="45.85264" lon="5.79294">
        <ele>235.9</ele>
        <time>2021-08-20T17:04:23Z</time>
      </trkpt>
      <trkpt lat="45.85264" lon="5.79294">
        <ele>235.9</ele>
        <time>2021-08-20T17:04:24Z</time>
      </trkpt>
      <trkpt lat="45.85264" lon="5.79294">
        <ele>235.9</ele>
        <time>2021-08-20T17:04:26Z</time>
      </trkpt>
      <trkpt lat="45.85265" lon="5.79293">
        <ele>235.9</ele>
        <time>2021-08-20T17:04:27Z</time>
      </trkpt>
      <trkpt lat="45.8526" lon="5.79288">
        <ele>235.9</ele>
        <time>2021-08-20T17:04:59Z</time>
      </trkpt>
      <trkpt lat="45.8526" lon="5.79285">
        <ele>235.9</ele>
        <time>2021-08-20T17:05:00Z</time>
      </trkpt>
      <trkpt lat="45.8526" lon="5.79284">
        <ele>235.9</ele>
        <time>2021-08-20T17:05:02Z</time>
      </trkpt>
      <trkpt lat="45.85259" lon="5.79284">
        <ele>235.9</ele>
        <time>2021-08-20T17:05:03Z</time>
      </trkpt>
      <trkpt lat="45.85259" lon="5.79282">
        <ele>235.9</ele>
        <time>2021-08-20T17:05:05Z</time>
      </trkpt>
      <trkpt lat="45.85258" lon="5.7928">
        <ele>235.9</ele>
        <time>2021-08-20T17:05:06Z</time>
      </trkpt>
      <trkpt lat="45.85257" lon="5.79276">
        <ele>235.9</ele>
        <time>2021-08-20T17:05:07Z</time>
      </trkpt>
      <trkpt lat="45.85256" lon="5.79275">
        <ele>235.9</ele>
        <time>2021-08-20T17:05:09Z</time>
      </trkpt>
      <trkpt lat="45.85256" lon="5.79274">
        <ele>235.9</ele>
        <time>2021-08-20T17:05:10Z</time>
      </trkpt>
      <trkpt lat="45.85255" lon="5.79273">
        <ele>235.9</ele>
        <time>2021-08-20T17:05:12Z</time>
      </trkpt>
      <trkpt lat="45.85255" lon="5.79273">
        <ele>235.9</ele>
        <time>2021-08-20T17:05:13Z</time>
      </trkpt>
      <trkpt lat="45.85255" lon="5.79272">
        <ele>235.9</ele>
        <time>2021-08-20T17:05:15Z</time>
      </trkpt>
      <trkpt lat="45.85256" lon="5.79271">
        <ele>235.9</ele>
        <time>2021-08-20T17:05:17Z</time>
      </trkpt>
      <trkpt lat="45.85256" lon="5.7927">
        <ele>235.9</ele>
        <time>2021-08-20T17:05:18Z</time>
      </trkpt>
      <trkpt lat="45.85257" lon="5.79266">
        <ele>235.9</ele>
        <time>2021-08-20T17:05:20Z</time>
      </trkpt>
      <trkpt lat="45.85259" lon="5.79262">
        <ele>235.8</ele>
        <time>2021-08-20T17:05:21Z</time>
      </trkpt>
      <trkpt lat="45.85259" lon="5.7926">
        <ele>235.8</ele>
        <time>2021-08-20T17:05:23Z</time>
      </trkpt>
      <trkpt lat="45.85259" lon="5.7926">
        <ele>235.8</ele>
        <time>2021-08-20T17:05:24Z</time>
      </trkpt>
      <trkpt lat="45.85259" lon="5.79259">
        <ele>235.8</ele>
        <time>2021-08-20T17:05:25Z</time>
      </trkpt>
      <trkpt lat="45.85259" lon="5.79259">
        <ele>235.8</ele>
        <time>2021-08-20T17:05:26Z</time>
      </trkpt>
      <trkpt lat="45.85259" lon="5.79259">
        <ele>235.8</ele>
        <time>2021-08-20T17:05:27Z</time>
      </trkpt>
      <trkpt lat="45.85259" lon="5.79258">
        <ele>235.8</ele>
        <time>2021-08-20T17:05:29Z</time>
      </trkpt>
      <trkpt lat="45.85259" lon="5.79258">
        <ele>235.8</ele>
        <time>2021-08-20T17:05:30Z</time>
      </trkpt>
      <trkpt lat="45.8526" lon="5.79257">
        <ele>235.8</ele>
        <time>2021-08-20T17:05:32Z</time>
      </trkpt>
      <trkpt lat="45.8526" lon="5.79256">
        <ele>235.8</ele>
        <time>2021-08-20T17:05:33Z</time>
      </trkpt>
      <trkpt lat="45.85261" lon="5.79255">
        <ele>235.8</ele>
        <time>2021-08-20T17:05:34Z</time>
      </trkpt>
      <trkpt lat="45.85261" lon="5.79255">
        <ele>235.8</ele>
        <time>2021-08-20T17:05:35Z</time>
      </trkpt>
      <trkpt lat="45.85261" lon="5.79254">
        <ele>235.8</ele>
        <time>2021-08-20T17:05:36Z</time>
      </trkpt>
      <trkpt lat="45.85261" lon="5.79254">
        <ele>235.8</ele>
        <time>2021-08-20T17:05:37Z</time>
      </trkpt>
      <trkpt lat="45.85262" lon="5.79254">
        <ele>235.8</ele>
        <time>2021-08-20T17:05:38Z</time>
      </trkpt>
      <trkpt lat="45.85262" lon="5.79255">
        <ele>235.8</ele>
        <time>2021-08-20T17:05:40Z</time>
      </trkpt>
      <trkpt lat="45.85261" lon="5.79255">
        <ele>235.8</ele>
        <time>2021-08-20T17:05:41Z</time>
      </trkpt>
      <trkpt lat="45.85262" lon="5.79255">
        <ele>235.8</ele>
        <time>2021-08-20T17:05:42Z</time>
      </trkpt>
      <trkpt lat="45.85262" lon="5.79256">
        <ele>235.8</ele>
        <time>2021-08-20T17:05:44Z</time>
      </trkpt>
      <trkpt lat="45.85262" lon="5.79256">
        <ele>235.8</ele>
        <time>2021-08-20T17:05:46Z</time>
      </trkpt>
      <trkpt lat="45.85262" lon="5.79256">
        <ele>235.8</ele>
        <time>2021-08-20T17:05:47Z</time>
      </trkpt>
      <trkpt lat="45.85262" lon="5.79256">
        <ele>235.8</ele>
        <time>2021-08-20T17:05:52Z</time>
      </trkpt>
      <trkpt lat="45.85254" lon="5.79259">
        <ele>235.8</ele>
        <time>2021-08-20T17:05:59Z</time>
      </trkpt>
      <trkpt lat="45.85243" lon="5.79264">
        <ele>235.7</ele>
        <time>2021-08-20T17:06:05Z</time>
      </trkpt>
      <trkpt lat="45.85244" lon="5.79265">
        <ele>235.7</ele>
        <time>2021-08-20T17:06:08Z</time>
      </trkpt>
      <trkpt lat="45.85246" lon="5.79265">
        <ele>235.7</ele>
        <time>2021-08-20T17:06:12Z</time>
      </trkpt>
      <trkpt lat="45.85246" lon="5.79264">
        <ele>235.7</ele>
        <time>2021-08-20T17:06:18Z</time>
      </trkpt>
      <trkpt lat="45.85248" lon="5.79266">
        <ele>235.7</ele>
        <time>2021-08-20T17:06:37Z</time>
      </trkpt>
      <trkpt lat="45.85248" lon="5.79266">
        <ele>235.7</ele>
        <time>2021-08-20T17:06:44Z</time>
      </trkpt>
      <trkpt lat="45.85244" lon="5.7927">
        <ele>235.6</ele>
        <time>2021-08-20T17:06:50Z</time>
      </trkpt>
      <trkpt lat="45.85245" lon="5.7927">
        <ele>235.6</ele>
        <time>2021-08-20T17:06:53Z</time>
      </trkpt>
      <trkpt lat="45.85245" lon="5.7927">
        <ele>235.6</ele>
        <time>2021-08-20T17:06:54Z</time>
      </trkpt>
      <trkpt lat="45.89923" lon="5.67331">
        <ele>495.6</ele>
        <time>2021-08-22T07:53:33Z</time>
      </trkpt>
      <trkpt lat="45.89923" lon="5.67331">
        <ele>495.6</ele>
        <time>2021-08-22T07:53:33Z</time>
      </trkpt>
      <trkpt lat="45.89902" lon="5.67337">
        <ele>494.2</ele>
        <time>2021-08-22T07:53:35Z</time>
      </trkpt>
      <trkpt lat="45.89883" lon="5.67346">
        <ele>492.9</ele>
        <time>2021-08-22T07:53:37Z</time>
      </trkpt>
      <trkpt lat="45.89874" lon="5.67351">
        <ele>492.2</ele>
        <time>2021-08-22T07:53:38Z</time>
      </trkpt>
      <trkpt lat="45.89865" lon="5.67357">
        <ele>491.5</ele>
        <time>2021-08-22T07:53:39Z</time>
      </trkpt>
      <trkpt lat="45.89851" lon="5.67371">
        <ele>490.4</ele>
        <time>2021-08-22T07:53:41Z</time>
      </trkpt>
      <trkpt lat="45.89845" lon="5.67376">
        <ele>489.8</ele>
        <time>2021-08-22T07:53:42Z</time>
      </trkpt>
      <trkpt lat="45.89832" lon="5.67388">
        <ele>488.8</ele>
        <time>2021-08-22T07:53:44Z</time>
      </trkpt>
      <trkpt lat="45.89826" lon="5.67395">
        <ele>488.2</ele>
        <time>2021-08-22T07:53:45Z</time>
      </trkpt>
      <trkpt lat="45.89819" lon="5.674">
        <ele>487.5</ele>
        <time>2021-08-22T07:53:46Z</time>
      </trkpt>
      <trkpt lat="45.89803" lon="5.67412">
        <ele>486.2</ele>
        <time>2021-08-22T07:53:48Z</time>
      </trkpt>
      <trkpt lat="45.89795" lon="5.67418">
        <ele>485.5</ele>
        <time>2021-08-22T07:53:49Z</time>
      </trkpt>
      <trkpt lat="45.89787" lon="5.67424">
        <ele>484.8</ele>
        <time>2021-08-22T07:53:50Z</time>
      </trkpt>
      <trkpt lat="45.89769" lon="5.67435">
        <ele>483.5</ele>
        <time>2021-08-22T07:53:52Z</time>
      </trkpt>
      <trkpt lat="45.8976" lon="5.6744">
        <ele>482.9</ele>
        <time>2021-08-22T07:53:53Z</time>
      </trkpt>
      <trkpt lat="45.89743" lon="5.67451">
        <ele>481.7</ele>
        <time>2021-08-22T07:53:55Z</time>
      </trkpt>
      <trkpt lat="45.89734" lon="5.67456">
        <ele>481.1</ele>
        <time>2021-08-22T07:53:56Z</time>
      </trkpt>
      <trkpt lat="45.89715" lon="5.67464">
        <ele>480.1</ele>
        <time>2021-08-22T07:53:58Z</time>
      </trkpt>
      <trkpt lat="45.89695" lon="5.67471">
        <ele>479.1</ele>
        <time>2021-08-22T07:54:00Z</time>
      </trkpt>
      <trkpt lat="45.89677" lon="5.67481">
        <ele>478.1</ele>
        <time>2021-08-22T07:54:02Z</time>
      </trkpt>
      <trkpt lat="45.89668" lon="5.67488">
        <ele>477.6</ele>
        <time>2021-08-22T07:54:03Z</time>
      </trkpt>
      <trkpt lat="45.89651" lon="5.67502">
        <ele>476.4</ele>
        <time>2021-08-22T07:54:05Z</time>
      </trkpt>
      <trkpt lat="45.89635" lon="5.6751">
        <ele>475.3</ele>
        <time>2021-08-22T07:54:07Z</time>
      </trkpt>
      <trkpt lat="45.89628" lon="5.67513">
        <ele>474.7</ele>
        <time>2021-08-22T07:54:08Z</time>
      </trkpt>
      <trkpt lat="45.89621" lon="5.67513">
        <ele>474.3</ele>
        <time>2021-08-22T07:54:09Z</time>
      </trkpt>
      <trkpt lat="45.89611" lon="5.67513">
        <ele>473.5</ele>
        <time>2021-08-22T07:54:11Z</time>
      </trkpt>
      <trkpt lat="45.89604" lon="5.67513">
        <ele>473</ele>
        <time>2021-08-22T07:54:12Z</time>
      </trkpt>
      <trkpt lat="45.89598" lon="5.67513">
        <ele>472.6</ele>
        <time>2021-08-22T07:54:13Z</time>
      </trkpt>
      <trkpt lat="45.89583" lon="5.67511">
        <ele>471.6</ele>
        <time>2021-08-22T07:54:15Z</time>
      </trkpt>
      <trkpt lat="45.89571" lon="5.67508">
        <ele>470.8</ele>
        <time>2021-08-22T07:54:16Z</time>
      </trkpt>
      <trkpt lat="45.89541" lon="5.67507">
        <ele>468.6</ele>
        <time>2021-08-22T07:54:18Z</time>
      </trkpt>
      <trkpt lat="45.89531" lon="5.67517">
        <ele>467.7</ele>
        <time>2021-08-22T07:54:19Z</time>
      </trkpt>
      <trkpt lat="45.89517" lon="5.67532">
        <ele>466.4</ele>
        <time>2021-08-22T07:54:21Z</time>
      </trkpt>
      <trkpt lat="45.89502" lon="5.67547">
        <ele>465</ele>
        <time>2021-08-22T07:54:23Z</time>
      </trkpt>
      <trkpt lat="45.89485" lon="5.67553">
        <ele>463.6</ele>
        <time>2021-08-22T07:54:25Z</time>
      </trkpt>
      <trkpt lat="45.89468" lon="5.67555">
        <ele>462.7</ele>
        <time>2021-08-22T07:54:27Z</time>
      </trkpt>
      <trkpt lat="45.89459" lon="5.67558">
        <ele>462.1</ele>
        <time>2021-08-22T07:54:28Z</time>
      </trkpt>
      <trkpt lat="45.8945" lon="5.6756">
        <ele>461.5</ele>
        <time>2021-08-22T07:54:29Z</time>
      </trkpt>
      <trkpt lat="45.89441" lon="5.67561">
        <ele>460.9</ele>
        <time>2021-08-22T07:54:30Z</time>
      </trkpt>
      <trkpt lat="45.89432" lon="5.67564">
        <ele>460.3</ele>
        <time>2021-08-22T07:54:31Z</time>
      </trkpt>
      <trkpt lat="45.89412" lon="5.67568">
        <ele>458.9</ele>
        <time>2021-08-22T07:54:33Z</time>
      </trkpt>
      <trkpt lat="45.89395" lon="5.67573">
        <ele>457.8</ele>
        <time>2021-08-22T07:54:35Z</time>
      </trkpt>
      <trkpt lat="45.89388" lon="5.67574">
        <ele>457.4</ele>
        <time>2021-08-22T07:54:36Z</time>
      </trkpt>
      <trkpt lat="45.89381" lon="5.67575">
        <ele>457</ele>
        <time>2021-08-22T07:54:37Z</time>
      </trkpt>
      <trkpt lat="45.89368" lon="5.67573">
        <ele>456.2</ele>
        <time>2021-08-22T07:54:39Z</time>
      </trkpt>
      <trkpt lat="45.89363" lon="5.6757">
        <ele>455.8</ele>
        <time>2021-08-22T07:54:40Z</time>
      </trkpt>
      <trkpt lat="45.89356" lon="5.67566">
        <ele>455.4</ele>
        <time>2021-08-22T07:54:41Z</time>
      </trkpt>
      <trkpt lat="45.89351" lon="5.67562">
        <ele>455.1</ele>
        <time>2021-08-22T07:54:42Z</time>
      </trkpt>
      <trkpt lat="45.8934" lon="5.67562">
        <ele>454.5</ele>
        <time>2021-08-22T07:54:44Z</time>
      </trkpt>
      <trkpt lat="45.89328" lon="5.67569">
        <ele>454.2</ele>
        <time>2021-08-22T07:54:46Z</time>
      </trkpt>
      <trkpt lat="45.89323" lon="5.67576">
        <ele>454</ele>
        <time>2021-08-22T07:54:47Z</time>
      </trkpt>
      <trkpt lat="45.89319" lon="5.67583">
        <ele>453.8</ele>
        <time>2021-08-22T07:54:48Z</time>
      </trkpt>
      <trkpt lat="45.89314" lon="5.67591">
        <ele>453.4</ele>
        <time>2021-08-22T07:54:49Z</time>
      </trkpt>
      <trkpt lat="45.89305" lon="5.67608">
        <ele>452.8</ele>
        <time>2021-08-22T07:54:51Z</time>
      </trkpt>
      <trkpt lat="45.89294" lon="5.67625">
        <ele>451.9</ele>
        <time>2021-08-22T07:54:53Z</time>
      </trkpt>
      <trkpt lat="45.89288" lon="5.67632">
        <ele>451.4</ele>
        <time>2021-08-22T07:54:54Z</time>
      </trkpt>
      <trkpt lat="45.89275" lon="5.67647">
        <ele>450.3</ele>
        <time>2021-08-22T07:54:56Z</time>
      </trkpt>
      <trkpt lat="45.89269" lon="5.67654">
        <ele>449.7</ele>
        <time>2021-08-22T07:54:57Z</time>
      </trkpt>
      <trkpt lat="45.89262" lon="5.6766">
        <ele>449.2</ele>
        <time>2021-08-22T07:54:58Z</time>
      </trkpt>
      <trkpt lat="45.89249" lon="5.67673">
        <ele>448.2</ele>
        <time>2021-08-22T07:55:00Z</time>
      </trkpt>
      <trkpt lat="45.89236" lon="5.67685">
        <ele>447.3</ele>
        <time>2021-08-22T07:55:02Z</time>
      </trkpt>
      <trkpt lat="45.89222" lon="5.67696">
        <ele>446.3</ele>
        <time>2021-08-22T07:55:04Z</time>
      </trkpt>
      <trkpt lat="45.89215" lon="5.677">
        <ele>445.8</ele>
        <time>2021-08-22T07:55:05Z</time>
      </trkpt>
      <trkpt lat="45.89208" lon="5.67703">
        <ele>445.4</ele>
        <time>2021-08-22T07:55:06Z</time>
      </trkpt>
      <trkpt lat="45.89195" lon="5.67708">
        <ele>444.6</ele>
        <time>2021-08-22T07:55:08Z</time>
      </trkpt>
      <trkpt lat="45.89181" lon="5.6771">
        <ele>443.7</ele>
        <time>2021-08-22T07:55:10Z</time>
      </trkpt>
      <trkpt lat="45.89174" lon="5.67711">
        <ele>443.2</ele>
        <time>2021-08-22T07:55:11Z</time>
      </trkpt>
      <trkpt lat="45.89166" lon="5.67712">
        <ele>442.7</ele>
        <time>2021-08-22T07:55:12Z</time>
      </trkpt>
      <trkpt lat="45.8915" lon="5.67715">
        <ele>441.7</ele>
        <time>2021-08-22T07:55:14Z</time>
      </trkpt>
      <trkpt lat="45.89141" lon="5.67718">
        <ele>441.2</ele>
        <time>2021-08-22T07:55:15Z</time>
      </trkpt>
      <trkpt lat="45.89125" lon="5.67726">
        <ele>440.1</ele>
        <time>2021-08-22T07:55:17Z</time>
      </trkpt>
      <trkpt lat="45.89108" lon="5.67733">
        <ele>439</ele>
        <time>2021-08-22T07:55:19Z</time>
      </trkpt>
      <trkpt lat="45.89088" lon="5.67739">
        <ele>438</ele>
        <time>2021-08-22T07:55:21Z</time>
      </trkpt>
      <trkpt lat="45.89079" lon="5.6774">
        <ele>437.5</ele>
        <time>2021-08-22T07:55:22Z</time>
      </trkpt>
      <trkpt lat="45.8906" lon="5.67742">
        <ele>436.5</ele>
        <time>2021-08-22T07:55:24Z</time>
      </trkpt>
      <trkpt lat="45.89051" lon="5.67743">
        <ele>435.9</ele>
        <time>2021-08-22T07:55:25Z</time>
      </trkpt>
      <trkpt lat="45.89034" lon="5.67744">
        <ele>434.8</ele>
        <time>2021-08-22T07:55:27Z</time>
      </trkpt>
      <trkpt lat="45.89016" lon="5.67745">
        <ele>433.8</ele>
        <time>2021-08-22T07:55:29Z</time>
      </trkpt>
      <trkpt lat="45.89009" lon="5.67746">
        <ele>433.3</ele>
        <time>2021-08-22T07:55:30Z</time>
      </trkpt>
      <trkpt lat="45.89001" lon="5.67748">
        <ele>432.8</ele>
        <time>2021-08-22T07:55:31Z</time>
      </trkpt>
      <trkpt lat="45.88986" lon="5.67751">
        <ele>431.9</ele>
        <time>2021-08-22T07:55:33Z</time>
      </trkpt>
      <trkpt lat="45.88968" lon="5.6775">
        <ele>430.9</ele>
        <time>2021-08-22T07:55:35Z</time>
      </trkpt>
      <trkpt lat="45.8896" lon="5.67748">
        <ele>430.5</ele>
        <time>2021-08-22T07:55:36Z</time>
      </trkpt>
      <trkpt lat="45.88952" lon="5.67745">
        <ele>430</ele>
        <time>2021-08-22T07:55:37Z</time>
      </trkpt>
      <trkpt lat="45.88943" lon="5.67741">
        <ele>429.4</ele>
        <time>2021-08-22T07:55:38Z</time>
      </trkpt>
      <trkpt lat="45.88935" lon="5.67736">
        <ele>428.9</ele>
        <time>2021-08-22T07:55:39Z</time>
      </trkpt>
      <trkpt lat="45.88919" lon="5.67726">
        <ele>427.9</ele>
        <time>2021-08-22T07:55:41Z</time>
      </trkpt>
      <trkpt lat="45.88911" lon="5.67721">
        <ele>427.4</ele>
        <time>2021-08-22T07:55:42Z</time>
      </trkpt>
      <trkpt lat="45.88903" lon="5.67717">
        <ele>426.9</ele>
        <time>2021-08-22T07:55:43Z</time>
      </trkpt>
      <trkpt lat="45.88895" lon="5.67714">
        <ele>426.4</ele>
        <time>2021-08-22T07:55:44Z</time>
      </trkpt>
      <trkpt lat="45.88886" lon="5.67712">
        <ele>426</ele>
        <time>2021-08-22T07:55:45Z</time>
      </trkpt>
      <trkpt lat="45.8887" lon="5.6771">
        <ele>425.1</ele>
        <time>2021-08-22T07:55:47Z</time>
      </trkpt>
      <trkpt lat="45.88861" lon="5.67709">
        <ele>424.7</ele>
        <time>2021-08-22T07:55:48Z</time>
      </trkpt>
      <trkpt lat="45.88844" lon="5.6771">
        <ele>423.9</ele>
        <time>2021-08-22T07:55:50Z</time>
      </trkpt>
      <trkpt lat="45.88826" lon="5.67712">
        <ele>423</ele>
        <time>2021-08-22T07:55:52Z</time>
      </trkpt>
      <trkpt lat="45.88808" lon="5.67711">
        <ele>422.1</ele>
        <time>2021-08-22T07:55:54Z</time>
      </trkpt>
      <trkpt lat="45.88793" lon="5.67713">
        <ele>421.3</ele>
        <time>2021-08-22T07:55:56Z</time>
      </trkpt>
      <trkpt lat="45.88785" lon="5.67713">
        <ele>420.9</ele>
        <time>2021-08-22T07:55:57Z</time>
      </trkpt>
      <trkpt lat="45.88769" lon="5.6771">
        <ele>420</ele>
        <time>2021-08-22T07:55:59Z</time>
      </trkpt>
      <trkpt lat="45.88754" lon="5.67706">
        <ele>419.1</ele>
        <time>2021-08-22T07:56:01Z</time>
      </trkpt>
      <trkpt lat="45.88745" lon="5.67704">
        <ele>418.6</ele>
        <time>2021-08-22T07:56:02Z</time>
      </trkpt>
      <trkpt lat="45.88728" lon="5.67699">
        <ele>417.6</ele>
        <time>2021-08-22T07:56:04Z</time>
      </trkpt>
      <trkpt lat="45.88711" lon="5.67691">
        <ele>416.6</ele>
        <time>2021-08-22T07:56:06Z</time>
      </trkpt>
      <trkpt lat="45.88702" lon="5.67687">
        <ele>416.1</ele>
        <time>2021-08-22T07:56:07Z</time>
      </trkpt>
      <trkpt lat="45.88685" lon="5.67678">
        <ele>415.1</ele>
        <time>2021-08-22T07:56:09Z</time>
      </trkpt>
      <trkpt lat="45.88676" lon="5.67674">
        <ele>414.6</ele>
        <time>2021-08-22T07:56:10Z</time>
      </trkpt>
      <trkpt lat="45.88659" lon="5.67667">
        <ele>413.7</ele>
        <time>2021-08-22T07:56:12Z</time>
      </trkpt>
      <trkpt lat="45.88642" lon="5.67662">
        <ele>413.2</ele>
        <time>2021-08-22T07:56:14Z</time>
      </trkpt>
      <trkpt lat="45.88633" lon="5.6766">
        <ele>412.8</ele>
        <time>2021-08-22T07:56:15Z</time>
      </trkpt>
      <trkpt lat="45.88624" lon="5.67659">
        <ele>412.2</ele>
        <time>2021-08-22T07:56:16Z</time>
      </trkpt>
      <trkpt lat="45.88608" lon="5.67659">
        <ele>411.1</ele>
        <time>2021-08-22T07:56:18Z</time>
      </trkpt>
      <trkpt lat="45.886" lon="5.6766">
        <ele>410.6</ele>
        <time>2021-08-22T07:56:19Z</time>
      </trkpt>
      <trkpt lat="45.88592" lon="5.67663">
        <ele>410.1</ele>
        <time>2021-08-22T07:56:20Z</time>
      </trkpt>
      <trkpt lat="45.88578" lon="5.67671">
        <ele>409.1</ele>
        <time>2021-08-22T07:56:22Z</time>
      </trkpt>
      <trkpt lat="45.88564" lon="5.67682">
        <ele>408.2</ele>
        <time>2021-08-22T07:56:24Z</time>
      </trkpt>
      <trkpt lat="45.88556" lon="5.67689">
        <ele>407.7</ele>
        <time>2021-08-22T07:56:25Z</time>
      </trkpt>
      <trkpt lat="45.88549" lon="5.67695">
        <ele>407.2</ele>
        <time>2021-08-22T07:56:26Z</time>
      </trkpt>
      <trkpt lat="45.88541" lon="5.677">
        <ele>406.7</ele>
        <time>2021-08-22T07:56:27Z</time>
      </trkpt>
      <trkpt lat="45.88525" lon="5.67708">
        <ele>405.8</ele>
        <time>2021-08-22T07:56:29Z</time>
      </trkpt>
      <trkpt lat="45.88509" lon="5.67716">
        <ele>404.7</ele>
        <time>2021-08-22T07:56:31Z</time>
      </trkpt>
      <trkpt lat="45.88501" lon="5.6772">
        <ele>404.2</ele>
        <time>2021-08-22T07:56:32Z</time>
      </trkpt>
      <trkpt lat="45.88486" lon="5.67729">
        <ele>403.2</ele>
        <time>2021-08-22T07:56:34Z</time>
      </trkpt>
      <trkpt lat="45.88479" lon="5.67734">
        <ele>402.7</ele>
        <time>2021-08-22T07:56:35Z</time>
      </trkpt>
      <trkpt lat="45.88471" lon="5.67739">
        <ele>402.2</ele>
        <time>2021-08-22T07:56:36Z</time>
      </trkpt>
      <trkpt lat="45.88454" lon="5.67745">
        <ele>401.2</ele>
        <time>2021-08-22T07:56:38Z</time>
      </trkpt>
      <trkpt lat="45.88437" lon="5.67751">
        <ele>400.2</ele>
        <time>2021-08-22T07:56:40Z</time>
      </trkpt>
      <trkpt lat="45.88429" lon="5.67754">
        <ele>399.7</ele>
        <time>2021-08-22T07:56:41Z</time>
      </trkpt>
      <trkpt lat="45.88414" lon="5.67759">
        <ele>398.8</ele>
        <time>2021-08-22T07:56:43Z</time>
      </trkpt>
      <trkpt lat="45.88407" lon="5.67759">
        <ele>398.3</ele>
        <time>2021-08-22T07:56:44Z</time>
      </trkpt>
      <trkpt lat="45.88391" lon="5.67757">
        <ele>397.5</ele>
        <time>2021-08-22T07:56:46Z</time>
      </trkpt>
      <trkpt lat="45.88383" lon="5.67755">
        <ele>397.1</ele>
        <time>2021-08-22T07:56:47Z</time>
      </trkpt>
      <trkpt lat="45.88367" lon="5.6775">
        <ele>396.2</ele>
        <time>2021-08-22T07:56:49Z</time>
      </trkpt>
      <trkpt lat="45.88359" lon="5.67748">
        <ele>395.8</ele>
        <time>2021-08-22T07:56:50Z</time>
      </trkpt>
      <trkpt lat="45.88351" lon="5.67745">
        <ele>395.4</ele>
        <time>2021-08-22T07:56:51Z</time>
      </trkpt>
      <trkpt lat="45.88337" lon="5.6774">
        <ele>394.7</ele>
        <time>2021-08-22T07:56:53Z</time>
      </trkpt>
      <trkpt lat="45.88322" lon="5.67734">
        <ele>393.9</ele>
        <time>2021-08-22T07:56:55Z</time>
      </trkpt>
      <trkpt lat="45.88314" lon="5.67732">
        <ele>393.5</ele>
        <time>2021-08-22T07:56:56Z</time>
      </trkpt>
      <trkpt lat="45.88306" lon="5.6773">
        <ele>393.1</ele>
        <time>2021-08-22T07:56:57Z</time>
      </trkpt>
      <trkpt lat="45.88291" lon="5.67728">
        <ele>392.3</ele>
        <time>2021-08-22T07:56:59Z</time>
      </trkpt>
      <trkpt lat="45.88283" lon="5.67727">
        <ele>391.9</ele>
        <time>2021-08-22T07:57:00Z</time>
      </trkpt>
      <trkpt lat="45.88267" lon="5.67726">
        <ele>391.1</ele>
        <time>2021-08-22T07:57:02Z</time>
      </trkpt>
      <trkpt lat="45.88259" lon="5.67728">
        <ele>390.7</ele>
        <time>2021-08-22T07:57:03Z</time>
      </trkpt>
      <trkpt lat="45.88245" lon="5.67734">
        <ele>389.9</ele>
        <time>2021-08-22T07:57:05Z</time>
      </trkpt>
      <trkpt lat="45.88236" lon="5.67738">
        <ele>389.4</ele>
        <time>2021-08-22T07:57:06Z</time>
      </trkpt>
      <trkpt lat="45.88221" lon="5.67746">
        <ele>388.4</ele>
        <time>2021-08-22T07:57:08Z</time>
      </trkpt>
      <trkpt lat="45.88213" lon="5.67753">
        <ele>387.9</ele>
        <time>2021-08-22T07:57:09Z</time>
      </trkpt>
      <trkpt lat="45.88198" lon="5.67767">
        <ele>386.9</ele>
        <time>2021-08-22T07:57:11Z</time>
      </trkpt>
      <trkpt lat="45.88191" lon="5.67774">
        <ele>386.4</ele>
        <time>2021-08-22T07:57:12Z</time>
      </trkpt>
      <trkpt lat="45.88175" lon="5.67788">
        <ele>385.3</ele>
        <time>2021-08-22T07:57:14Z</time>
      </trkpt>
      <trkpt lat="45.88167" lon="5.67795">
        <ele>384.8</ele>
        <time>2021-08-22T07:57:15Z</time>
      </trkpt>
      <trkpt lat="45.88153" lon="5.67811">
        <ele>383.9</ele>
        <time>2021-08-22T07:57:17Z</time>
      </trkpt>
      <trkpt lat="45.88139" lon="5.67828">
        <ele>383.1</ele>
        <time>2021-08-22T07:57:19Z</time>
      </trkpt>
      <trkpt lat="45.88124" lon="5.67843">
        <ele>382.1</ele>
        <time>2021-08-22T07:57:21Z</time>
      </trkpt>
      <trkpt lat="45.88117" lon="5.67851">
        <ele>381.6</ele>
        <time>2021-08-22T07:57:22Z</time>
      </trkpt>
      <trkpt lat="45.88111" lon="5.67859">
        <ele>381.1</ele>
        <time>2021-08-22T07:57:23Z</time>
      </trkpt>
      <trkpt lat="45.88097" lon="5.67873">
        <ele>380.2</ele>
        <time>2021-08-22T07:57:25Z</time>
      </trkpt>
      <trkpt lat="45.88081" lon="5.67882">
        <ele>379.2</ele>
        <time>2021-08-22T07:57:27Z</time>
      </trkpt>
      <trkpt lat="45.88074" lon="5.67887">
        <ele>378.7</ele>
        <time>2021-08-22T07:57:28Z</time>
      </trkpt>
      <trkpt lat="45.88059" lon="5.67899">
        <ele>377.8</ele>
        <time>2021-08-22T07:57:30Z</time>
      </trkpt>
      <trkpt lat="45.88052" lon="5.67905">
        <ele>377.3</ele>
        <time>2021-08-22T07:57:31Z</time>
      </trkpt>
      <trkpt lat="45.88036" lon="5.67918">
        <ele>376.3</ele>
        <time>2021-08-22T07:57:33Z</time>
      </trkpt>
      <trkpt lat="45.88021" lon="5.67934">
        <ele>375.4</ele>
        <time>2021-08-22T07:57:35Z</time>
      </trkpt>
      <trkpt lat="45.88005" lon="5.67945">
        <ele>374.5</ele>
        <time>2021-08-22T07:57:37Z</time>
      </trkpt>
      <trkpt lat="45.8799" lon="5.67956">
        <ele>373.7</ele>
        <time>2021-08-22T07:57:39Z</time>
      </trkpt>
      <trkpt lat="45.87983" lon="5.67962">
        <ele>373.3</ele>
        <time>2021-08-22T07:57:40Z</time>
      </trkpt>
      <trkpt lat="45.87968" lon="5.67973">
        <ele>372.7</ele>
        <time>2021-08-22T07:57:42Z</time>
      </trkpt>
      <trkpt lat="45.87961" lon="5.67979">
        <ele>372.5</ele>
        <time>2021-08-22T07:57:43Z</time>
      </trkpt>
      <trkpt lat="45.87947" lon="5.67991">
        <ele>372.1</ele>
        <time>2021-08-22T07:57:45Z</time>
      </trkpt>
      <trkpt lat="45.87941" lon="5.67998">
        <ele>371.9</ele>
        <time>2021-08-22T07:57:46Z</time>
      </trkpt>
      <trkpt lat="45.87936" lon="5.68006">
        <ele>371.8</ele>
        <time>2021-08-22T07:57:47Z</time>
      </trkpt>
      <trkpt lat="45.87925" lon="5.68021">
        <ele>371.6</ele>
        <time>2021-08-22T07:57:49Z</time>
      </trkpt>
      <trkpt lat="45.87921" lon="5.68029">
        <ele>371.5</ele>
        <time>2021-08-22T07:57:50Z</time>
      </trkpt>
      <trkpt lat="45.87916" lon="5.68045">
        <ele>371.3</ele>
        <time>2021-08-22T07:57:52Z</time>
      </trkpt>
      <trkpt lat="45.87913" lon="5.68062">
        <ele>371.3</ele>
        <time>2021-08-22T07:57:54Z</time>
      </trkpt>
      <trkpt lat="45.87911" lon="5.68071">
        <ele>371.2</ele>
        <time>2021-08-22T07:57:55Z</time>
      </trkpt>
      <trkpt lat="45.87909" lon="5.68088">
        <ele>371.2</ele>
        <time>2021-08-22T07:57:57Z</time>
      </trkpt>
      <trkpt lat="45.87906" lon="5.68105">
        <ele>371.2</ele>
        <time>2021-08-22T07:57:59Z</time>
      </trkpt>
      <trkpt lat="45.87904" lon="5.68121">
        <ele>371.1</ele>
        <time>2021-08-22T07:58:01Z</time>
      </trkpt>
      <trkpt lat="45.87904" lon="5.6813">
        <ele>371</ele>
        <time>2021-08-22T07:58:02Z</time>
      </trkpt>
      <trkpt lat="45.87904" lon="5.68138">
        <ele>371</ele>
        <time>2021-08-22T07:58:03Z</time>
      </trkpt>
      <trkpt lat="45.87904" lon="5.68155">
        <ele>370.9</ele>
        <time>2021-08-22T07:58:05Z</time>
      </trkpt>
      <trkpt lat="45.87903" lon="5.68164">
        <ele>370.8</ele>
        <time>2021-08-22T07:58:06Z</time>
      </trkpt>
      <trkpt lat="45.87904" lon="5.68183">
        <ele>370.6</ele>
        <time>2021-08-22T07:58:08Z</time>
      </trkpt>
      <trkpt lat="45.87904" lon="5.68192">
        <ele>370.5</ele>
        <time>2021-08-22T07:58:09Z</time>
      </trkpt>
      <trkpt lat="45.87905" lon="5.68201">
        <ele>370.4</ele>
        <time>2021-08-22T07:58:10Z</time>
      </trkpt>
      <trkpt lat="45.8791" lon="5.68219">
        <ele>370.2</ele>
        <time>2021-08-22T07:58:12Z</time>
      </trkpt>
      <trkpt lat="45.87912" lon="5.68227">
        <ele>370</ele>
        <time>2021-08-22T07:58:13Z</time>
      </trkpt>
      <trkpt lat="45.87916" lon="5.68243">
        <ele>369.8</ele>
        <time>2021-08-22T07:58:15Z</time>
      </trkpt>
      <trkpt lat="45.87917" lon="5.68252">
        <ele>369.7</ele>
        <time>2021-08-22T07:58:16Z</time>
      </trkpt>
      <trkpt lat="45.87922" lon="5.68269">
        <ele>369.5</ele>
        <time>2021-08-22T07:58:18Z</time>
      </trkpt>
      <trkpt lat="45.87927" lon="5.68286">
        <ele>369.3</ele>
        <time>2021-08-22T07:58:20Z</time>
      </trkpt>
      <trkpt lat="45.87929" lon="5.68295">
        <ele>369.1</ele>
        <time>2021-08-22T07:58:21Z</time>
      </trkpt>
      <trkpt lat="45.87931" lon="5.68304">
        <ele>369</ele>
        <time>2021-08-22T07:58:22Z</time>
      </trkpt>
      <trkpt lat="45.87932" lon="5.68312">
        <ele>368.9</ele>
        <time>2021-08-22T07:58:23Z</time>
      </trkpt>
      <trkpt lat="45.87932" lon="5.6832">
        <ele>368.8</ele>
        <time>2021-08-22T07:58:24Z</time>
      </trkpt>
      <trkpt lat="45.8793" lon="5.68335">
        <ele>368.6</ele>
        <time>2021-08-22T07:58:26Z</time>
      </trkpt>
      <trkpt lat="45.87929" lon="5.68343">
        <ele>368.5</ele>
        <time>2021-08-22T07:58:27Z</time>
      </trkpt>
      <trkpt lat="45.87927" lon="5.6835">
        <ele>368.4</ele>
        <time>2021-08-22T07:58:28Z</time>
      </trkpt>
      <trkpt lat="45.87926" lon="5.68357">
        <ele>368.3</ele>
        <time>2021-08-22T07:58:29Z</time>
      </trkpt>
      <trkpt lat="45.87922" lon="5.68369">
        <ele>368.2</ele>
        <time>2021-08-22T07:58:31Z</time>
      </trkpt>
      <trkpt lat="45.8792" lon="5.68376">
        <ele>368.1</ele>
        <time>2021-08-22T07:58:32Z</time>
      </trkpt>
      <trkpt lat="45.87917" lon="5.6839">
        <ele>367.9</ele>
        <time>2021-08-22T07:58:34Z</time>
      </trkpt>
      <trkpt lat="45.87917" lon="5.68398">
        <ele>367.9</ele>
        <time>2021-08-22T07:58:35Z</time>
      </trkpt>
      <trkpt lat="45.87917" lon="5.68414">
        <ele>367.8</ele>
        <time>2021-08-22T07:58:37Z</time>
      </trkpt>
      <trkpt lat="45.87917" lon="5.68431">
        <ele>367.7</ele>
        <time>2021-08-22T07:58:39Z</time>
      </trkpt>
      <trkpt lat="45.8792" lon="5.68447">
        <ele>367.6</ele>
        <time>2021-08-22T07:58:41Z</time>
      </trkpt>
      <trkpt lat="45.87924" lon="5.68462">
        <ele>367.5</ele>
        <time>2021-08-22T07:58:43Z</time>
      </trkpt>
      <trkpt lat="45.87927" lon="5.68471">
        <ele>367.4</ele>
        <time>2021-08-22T07:58:44Z</time>
      </trkpt>
      <trkpt lat="45.87933" lon="5.68486">
        <ele>367.3</ele>
        <time>2021-08-22T07:58:46Z</time>
      </trkpt>
      <trkpt lat="45.87936" lon="5.68493">
        <ele>367.2</ele>
        <time>2021-08-22T07:58:47Z</time>
      </trkpt>
      <trkpt lat="45.8794" lon="5.68499">
        <ele>367.2</ele>
        <time>2021-08-22T07:58:48Z</time>
      </trkpt>
      <trkpt lat="45.87946" lon="5.68511">
        <ele>367.1</ele>
        <time>2021-08-22T07:58:50Z</time>
      </trkpt>
      <trkpt lat="45.87953" lon="5.68524">
        <ele>367</ele>
        <time>2021-08-22T07:58:52Z</time>
      </trkpt>
      <trkpt lat="45.87956" lon="5.6853">
        <ele>367</ele>
        <time>2021-08-22T07:58:53Z</time>
      </trkpt>
      <trkpt lat="45.87959" lon="5.68536">
        <ele>367</ele>
        <time>2021-08-22T07:58:54Z</time>
      </trkpt>
      <trkpt lat="45.87966" lon="5.68547">
        <ele>366.9</ele>
        <time>2021-08-22T07:58:56Z</time>
      </trkpt>
      <trkpt lat="45.87973" lon="5.68556">
        <ele>366.9</ele>
        <time>2021-08-22T07:58:58Z</time>
      </trkpt>
      <trkpt lat="45.87978" lon="5.68561">
        <ele>366.9</ele>
        <time>2021-08-22T07:58:59Z</time>
      </trkpt>
      <trkpt lat="45.87982" lon="5.68565">
        <ele>366.8</ele>
        <time>2021-08-22T07:59:00Z</time>
      </trkpt>
      <trkpt lat="45.87991" lon="5.68574">
        <ele>366.8</ele>
        <time>2021-08-22T07:59:02Z</time>
      </trkpt>
      <trkpt lat="45.87998" lon="5.68584">
        <ele>366.8</ele>
        <time>2021-08-22T07:59:04Z</time>
      </trkpt>
      <trkpt lat="45.88005" lon="5.68594">
        <ele>366.7</ele>
        <time>2021-08-22T07:59:06Z</time>
      </trkpt>
      <trkpt lat="45.88009" lon="5.68598">
        <ele>366.7</ele>
        <time>2021-08-22T07:59:07Z</time>
      </trkpt>
      <trkpt lat="45.88017" lon="5.68607">
        <ele>366.6</ele>
        <time>2021-08-22T07:59:09Z</time>
      </trkpt>
      <trkpt lat="45.88026" lon="5.68614">
        <ele>366.5</ele>
        <time>2021-08-22T07:59:11Z</time>
      </trkpt>
      <trkpt lat="45.88031" lon="5.68618">
        <ele>366.4</ele>
        <time>2021-08-22T07:59:12Z</time>
      </trkpt>
      <trkpt lat="45.88037" lon="5.6863">
        <ele>366.3</ele>
        <time>2021-08-22T07:59:14Z</time>
      </trkpt>
      <trkpt lat="45.88044" lon="5.68644">
        <ele>366.1</ele>
        <time>2021-08-22T07:59:16Z</time>
      </trkpt>
      <trkpt lat="45.88048" lon="5.68651">
        <ele>366</ele>
        <time>2021-08-22T07:59:17Z</time>
      </trkpt>
      <trkpt lat="45.88055" lon="5.68662">
        <ele>365.7</ele>
        <time>2021-08-22T07:59:19Z</time>
      </trkpt>
      <trkpt lat="45.88058" lon="5.68668">
        <ele>365.6</ele>
        <time>2021-08-22T07:59:20Z</time>
      </trkpt>
      <trkpt lat="45.88063" lon="5.68682">
        <ele>365.3</ele>
        <time>2021-08-22T07:59:22Z</time>
      </trkpt>
      <trkpt lat="45.8807" lon="5.68697">
        <ele>365</ele>
        <time>2021-08-22T07:59:24Z</time>
      </trkpt>
      <trkpt lat="45.88073" lon="5.68705">
        <ele>364.8</ele>
        <time>2021-08-22T07:59:25Z</time>
      </trkpt>
      <trkpt lat="45.88079" lon="5.6872">
        <ele>364.3</ele>
        <time>2021-08-22T07:59:27Z</time>
      </trkpt>
      <trkpt lat="45.88082" lon="5.68728">
        <ele>364.1</ele>
        <time>2021-08-22T07:59:28Z</time>
      </trkpt>
      <trkpt lat="45.88086" lon="5.68735">
        <ele>363.9</ele>
        <time>2021-08-22T07:59:29Z</time>
      </trkpt>
      <trkpt lat="45.88094" lon="5.68747">
        <ele>363.6</ele>
        <time>2021-08-22T07:59:31Z</time>
      </trkpt>
      <trkpt lat="45.88099" lon="5.68752">
        <ele>363.4</ele>
        <time>2021-08-22T07:59:32Z</time>
      </trkpt>
      <trkpt lat="45.88104" lon="5.68758">
        <ele>363.2</ele>
        <time>2021-08-22T07:59:33Z</time>
      </trkpt>
      <trkpt lat="45.88115" lon="5.68769">
        <ele>362.8</ele>
        <time>2021-08-22T07:59:35Z</time>
      </trkpt>
      <trkpt lat="45.88121" lon="5.68774">
        <ele>362.6</ele>
        <time>2021-08-22T07:59:36Z</time>
      </trkpt>
      <trkpt lat="45.88133" lon="5.68784">
        <ele>362.2</ele>
        <time>2021-08-22T07:59:38Z</time>
      </trkpt>
      <trkpt lat="45.88144" lon="5.68794">
        <ele>361.8</ele>
        <time>2021-08-22T07:59:40Z</time>
      </trkpt>
      <trkpt lat="45.8815" lon="5.688">
        <ele>361.6</ele>
        <time>2021-08-22T07:59:41Z</time>
      </trkpt>
      <trkpt lat="45.88155" lon="5.68805">
        <ele>361.4</ele>
        <time>2021-08-22T07:59:42Z</time>
      </trkpt>
      <trkpt lat="45.88167" lon="5.68814">
        <ele>361</ele>
        <time>2021-08-22T07:59:44Z</time>
      </trkpt>
      <trkpt lat="45.88179" lon="5.68824">
        <ele>360.5</ele>
        <time>2021-08-22T07:59:46Z</time>
      </trkpt>
      <trkpt lat="45.88192" lon="5.68835">
        <ele>360.1</ele>
        <time>2021-08-22T07:59:48Z</time>
      </trkpt>
      <trkpt lat="45.88197" lon="5.68841">
        <ele>359.8</ele>
        <time>2021-08-22T07:59:49Z</time>
      </trkpt>
      <trkpt lat="45.88203" lon="5.68846">
        <ele>359.5</ele>
        <time>2021-08-22T07:59:50Z</time>
      </trkpt>
      <trkpt lat="45.88209" lon="5.68851">
        <ele>359.2</ele>
        <time>2021-08-22T07:59:51Z</time>
      </trkpt>
      <trkpt lat="45.88221" lon="5.68862">
        <ele>358.7</ele>
        <time>2021-08-22T07:59:53Z</time>
      </trkpt>
      <trkpt lat="45.88227" lon="5.68867">
        <ele>358.4</ele>
        <time>2021-08-22T07:59:54Z</time>
      </trkpt>
      <trkpt lat="45.88232" lon="5.68873">
        <ele>358.2</ele>
        <time>2021-08-22T07:59:55Z</time>
      </trkpt>
      <trkpt lat="45.88239" lon="5.68888">
        <ele>358</ele>
        <time>2021-08-22T07:59:57Z</time>
      </trkpt>
      <trkpt lat="45.88241" lon="5.68896">
        <ele>357.9</ele>
        <time>2021-08-22T07:59:58Z</time>
      </trkpt>
      <trkpt lat="45.8824" lon="5.68912">
        <ele>357.7</ele>
        <time>2021-08-22T08:00:00Z</time>
      </trkpt>
      <trkpt lat="45.8824" lon="5.6892">
        <ele>357.6</ele>
        <time>2021-08-22T08:00:01Z</time>
      </trkpt>
      <trkpt lat="45.88236" lon="5.6893">
        <ele>357.5</ele>
        <time>2021-08-22T08:00:02Z</time>
      </trkpt>
      <trkpt lat="45.88228" lon="5.6895">
        <ele>357.2</ele>
        <time>2021-08-22T08:00:04Z</time>
      </trkpt>
      <trkpt lat="45.88224" lon="5.68958">
        <ele>357</ele>
        <time>2021-08-22T08:00:05Z</time>
      </trkpt>
      <trkpt lat="45.8822" lon="5.68964">
        <ele>356.7</ele>
        <time>2021-08-22T08:00:06Z</time>
      </trkpt>
      <trkpt lat="45.88213" lon="5.6897">
        <ele>356.4</ele>
        <time>2021-08-22T08:00:07Z</time>
      </trkpt>
      <trkpt lat="45.88204" lon="5.68974">
        <ele>355.8</ele>
        <time>2021-08-22T08:00:08Z</time>
      </trkpt>
      <trkpt lat="45.88181" lon="5.68978">
        <ele>354.4</ele>
        <time>2021-08-22T08:00:10Z</time>
      </trkpt>
      <trkpt lat="45.8817" lon="5.68982">
        <ele>353.9</ele>
        <time>2021-08-22T08:00:11Z</time>
      </trkpt>
      <trkpt lat="45.88162" lon="5.68987">
        <ele>353.5</ele>
        <time>2021-08-22T08:00:12Z</time>
      </trkpt>
      <trkpt lat="45.88146" lon="5.68998">
        <ele>352.7</ele>
        <time>2021-08-22T08:00:14Z</time>
      </trkpt>
      <trkpt lat="45.88126" lon="5.69009">
        <ele>351.9</ele>
        <time>2021-08-22T08:00:16Z</time>
      </trkpt>
      <trkpt lat="45.88111" lon="5.69026">
        <ele>351.3</ele>
        <time>2021-08-22T08:00:18Z</time>
      </trkpt>
      <trkpt lat="45.88107" lon="5.69036">
        <ele>351</ele>
        <time>2021-08-22T08:00:19Z</time>
      </trkpt>
      <trkpt lat="45.88104" lon="5.6906">
        <ele>350.8</ele>
        <time>2021-08-22T08:00:21Z</time>
      </trkpt>
      <trkpt lat="45.88101" lon="5.6908">
        <ele>350.6</ele>
        <time>2021-08-22T08:00:23Z</time>
      </trkpt>
      <trkpt lat="45.88099" lon="5.69089">
        <ele>350.5</ele>
        <time>2021-08-22T08:00:24Z</time>
      </trkpt>
      <trkpt lat="45.88096" lon="5.69099">
        <ele>350.4</ele>
        <time>2021-08-22T08:00:25Z</time>
      </trkpt>
      <trkpt lat="45.88089" lon="5.69116">
        <ele>349.9</ele>
        <time>2021-08-22T08:00:27Z</time>
      </trkpt>
      <trkpt lat="45.88084" lon="5.69123">
        <ele>349.5</ele>
        <time>2021-08-22T08:00:28Z</time>
      </trkpt>
      <trkpt lat="45.88079" lon="5.69129">
        <ele>349.2</ele>
        <time>2021-08-22T08:00:29Z</time>
      </trkpt>
      <trkpt lat="45.88073" lon="5.69134">
        <ele>348.9</ele>
        <time>2021-08-22T08:00:30Z</time>
      </trkpt>
      <trkpt lat="45.88068" lon="5.69138">
        <ele>348.6</ele>
        <time>2021-08-22T08:00:31Z</time>
      </trkpt>
      <trkpt lat="45.88053" lon="5.69143">
        <ele>347.8</ele>
        <time>2021-08-22T08:00:33Z</time>
      </trkpt>
      <trkpt lat="45.88037" lon="5.69148">
        <ele>346.9</ele>
        <time>2021-08-22T08:00:35Z</time>
      </trkpt>
      <trkpt lat="45.88021" lon="5.69156">
        <ele>346.4</ele>
        <time>2021-08-22T08:00:37Z</time>
      </trkpt>
      <trkpt lat="45.88014" lon="5.69162">
        <ele>345.7</ele>
        <time>2021-08-22T08:00:38Z</time>
      </trkpt>
      <trkpt lat="45.87999" lon="5.69174">
        <ele>344.3</ele>
        <time>2021-08-22T08:00:40Z</time>
      </trkpt>
      <trkpt lat="45.87992" lon="5.69181">
        <ele>343.6</ele>
        <time>2021-08-22T08:00:41Z</time>
      </trkpt>
      <trkpt lat="45.87986" lon="5.69188">
        <ele>343.1</ele>
        <time>2021-08-22T08:00:42Z</time>
      </trkpt>
      <trkpt lat="45.87976" lon="5.69205">
        <ele>342.1</ele>
        <time>2021-08-22T08:00:44Z</time>
      </trkpt>
      <trkpt lat="45.87968" lon="5.69224">
        <ele>341</ele>
        <time>2021-08-22T08:00:46Z</time>
      </trkpt>
      <trkpt lat="45.87964" lon="5.69234">
        <ele>340.4</ele>
        <time>2021-08-22T08:00:47Z</time>
      </trkpt>
      <trkpt lat="45.8796" lon="5.69244">
        <ele>339.8</ele>
        <time>2021-08-22T08:00:48Z</time>
      </trkpt>
      <trkpt lat="45.87951" lon="5.69262">
        <ele>338.5</ele>
        <time>2021-08-22T08:00:50Z</time>
      </trkpt>
      <trkpt lat="45.87946" lon="5.69271">
        <ele>337.9</ele>
        <time>2021-08-22T08:00:51Z</time>
      </trkpt>
      <trkpt lat="45.8794" lon="5.69279">
        <ele>337.2</ele>
        <time>2021-08-22T08:00:52Z</time>
      </trkpt>
      <trkpt lat="45.87934" lon="5.69288">
        <ele>336.5</ele>
        <time>2021-08-22T08:00:53Z</time>
      </trkpt>
      <trkpt lat="45.87927" lon="5.69296">
        <ele>335.8</ele>
        <time>2021-08-22T08:00:54Z</time>
      </trkpt>
      <trkpt lat="45.8792" lon="5.69304">
        <ele>335.2</ele>
        <time>2021-08-22T08:00:55Z</time>
      </trkpt>
      <trkpt lat="45.87905" lon="5.6932">
        <ele>333.9</ele>
        <time>2021-08-22T08:00:57Z</time>
      </trkpt>
      <trkpt lat="45.87891" lon="5.69336">
        <ele>332.6</ele>
        <time>2021-08-22T08:00:59Z</time>
      </trkpt>
      <trkpt lat="45.87877" lon="5.69351">
        <ele>331.4</ele>
        <time>2021-08-22T08:01:01Z</time>
      </trkpt>
      <trkpt lat="45.87862" lon="5.69369">
        <ele>330.1</ele>
        <time>2021-08-22T08:01:03Z</time>
      </trkpt>
      <trkpt lat="45.87847" lon="5.69384">
        <ele>328.8</ele>
        <time>2021-08-22T08:01:05Z</time>
      </trkpt>
      <trkpt lat="45.87839" lon="5.69392">
        <ele>328.2</ele>
        <time>2021-08-22T08:01:06Z</time>
      </trkpt>
      <trkpt lat="45.87825" lon="5.6941">
        <ele>326.9</ele>
        <time>2021-08-22T08:01:08Z</time>
      </trkpt>
      <trkpt lat="45.87817" lon="5.69418">
        <ele>326.3</ele>
        <time>2021-08-22T08:01:09Z</time>
      </trkpt>
      <trkpt lat="45.87802" lon="5.69432">
        <ele>325</ele>
        <time>2021-08-22T08:01:11Z</time>
      </trkpt>
      <trkpt lat="45.87794" lon="5.69437">
        <ele>324.5</ele>
        <time>2021-08-22T08:01:12Z</time>
      </trkpt>
      <trkpt lat="45.8778" lon="5.69441">
        <ele>323.5</ele>
        <time>2021-08-22T08:01:14Z</time>
      </trkpt>
      <trkpt lat="45.87773" lon="5.69441">
        <ele>323</ele>
        <time>2021-08-22T08:01:15Z</time>
      </trkpt>
      <trkpt lat="45.87766" lon="5.69438">
        <ele>322.7</ele>
        <time>2021-08-22T08:01:16Z</time>
      </trkpt>
      <trkpt lat="45.87759" lon="5.69434">
        <ele>322.3</ele>
        <time>2021-08-22T08:01:17Z</time>
      </trkpt>
      <trkpt lat="45.87747" lon="5.69421">
        <ele>321.4</ele>
        <time>2021-08-22T08:01:19Z</time>
      </trkpt>
      <trkpt lat="45.87736" lon="5.69398">
        <ele>320.3</ele>
        <time>2021-08-22T08:01:21Z</time>
      </trkpt>
      <trkpt lat="45.87732" lon="5.69384">
        <ele>319.6</ele>
        <time>2021-08-22T08:01:22Z</time>
      </trkpt>
      <trkpt lat="45.87727" lon="5.69356">
        <ele>318.4</ele>
        <time>2021-08-22T08:01:24Z</time>
      </trkpt>
      <trkpt lat="45.87726" lon="5.69326">
        <ele>317.2</ele>
        <time>2021-08-22T08:01:26Z</time>
      </trkpt>
      <trkpt lat="45.87728" lon="5.69311">
        <ele>316.6</ele>
        <time>2021-08-22T08:01:27Z</time>
      </trkpt>
      <trkpt lat="45.87732" lon="5.69296">
        <ele>316</ele>
        <time>2021-08-22T08:01:28Z</time>
      </trkpt>
      <trkpt lat="45.87741" lon="5.69269">
        <ele>314.8</ele>
        <time>2021-08-22T08:01:30Z</time>
      </trkpt>
      <trkpt lat="45.87752" lon="5.69245">
        <ele>313.8</ele>
        <time>2021-08-22T08:01:32Z</time>
      </trkpt>
      <trkpt lat="45.87758" lon="5.69234">
        <ele>313.3</ele>
        <time>2021-08-22T08:01:33Z</time>
      </trkpt>
      <trkpt lat="45.87768" lon="5.69213">
        <ele>312.4</ele>
        <time>2021-08-22T08:01:35Z</time>
      </trkpt>
      <trkpt lat="45.87772" lon="5.69202">
        <ele>312</ele>
        <time>2021-08-22T08:01:36Z</time>
      </trkpt>
      <trkpt lat="45.8778" lon="5.69179">
        <ele>311.1</ele>
        <time>2021-08-22T08:01:38Z</time>
      </trkpt>
      <trkpt lat="45.87783" lon="5.69166">
        <ele>310.6</ele>
        <time>2021-08-22T08:01:39Z</time>
      </trkpt>
      <trkpt lat="45.87786" lon="5.69153">
        <ele>310.1</ele>
        <time>2021-08-22T08:01:40Z</time>
      </trkpt>
      <trkpt lat="45.8779" lon="5.69126">
        <ele>309.3</ele>
        <time>2021-08-22T08:01:42Z</time>
      </trkpt>
      <trkpt lat="45.87794" lon="5.69099">
        <ele>308.6</ele>
        <time>2021-08-22T08:01:44Z</time>
      </trkpt>
      <trkpt lat="45.87796" lon="5.69086">
        <ele>308.1</ele>
        <time>2021-08-22T08:01:45Z</time>
      </trkpt>
      <trkpt lat="45.87798" lon="5.69061">
        <ele>307.1</ele>
        <time>2021-08-22T08:01:47Z</time>
      </trkpt>
      <trkpt lat="45.878" lon="5.69048">
        <ele>306.5</ele>
        <time>2021-08-22T08:01:48Z</time>
      </trkpt>
      <trkpt lat="45.87805" lon="5.69023">
        <ele>305.3</ele>
        <time>2021-08-22T08:01:50Z</time>
      </trkpt>
      <trkpt lat="45.87809" lon="5.68997">
        <ele>304.1</ele>
        <time>2021-08-22T08:01:52Z</time>
      </trkpt>
      <trkpt lat="45.87811" lon="5.68984">
        <ele>303.5</ele>
        <time>2021-08-22T08:01:53Z</time>
      </trkpt>
      <trkpt lat="45.87812" lon="5.68972">
        <ele>302.9</ele>
        <time>2021-08-22T08:01:54Z</time>
      </trkpt>
      <trkpt lat="45.87814" lon="5.68951">
        <ele>301.8</ele>
        <time>2021-08-22T08:01:56Z</time>
      </trkpt>
      <trkpt lat="45.87814" lon="5.68939">
        <ele>301.2</ele>
        <time>2021-08-22T08:01:57Z</time>
      </trkpt>
      <trkpt lat="45.87809" lon="5.68918">
        <ele>300</ele>
        <time>2021-08-22T08:01:59Z</time>
      </trkpt>
      <trkpt lat="45.87805" lon="5.68908">
        <ele>299.4</ele>
        <time>2021-08-22T08:02:00Z</time>
      </trkpt>
      <trkpt lat="45.87795" lon="5.68894">
        <ele>298.2</ele>
        <time>2021-08-22T08:02:02Z</time>
      </trkpt>
      <trkpt lat="45.87778" lon="5.6889">
        <ele>296.9</ele>
        <time>2021-08-22T08:02:04Z</time>
      </trkpt>
      <trkpt lat="45.87769" lon="5.68892">
        <ele>296.2</ele>
        <time>2021-08-22T08:02:05Z</time>
      </trkpt>
      <trkpt lat="45.87761" lon="5.68897">
        <ele>295.5</ele>
        <time>2021-08-22T08:02:06Z</time>
      </trkpt>
      <trkpt lat="45.87752" lon="5.68906">
        <ele>294.6</ele>
        <time>2021-08-22T08:02:07Z</time>
      </trkpt>
      <trkpt lat="45.87739" lon="5.68936">
        <ele>292.7</ele>
        <time>2021-08-22T08:02:09Z</time>
      </trkpt>
      <trkpt lat="45.87735" lon="5.68952">
        <ele>291.8</ele>
        <time>2021-08-22T08:02:10Z</time>
      </trkpt>
      <trkpt lat="45.87735" lon="5.68983">
        <ele>290.1</ele>
        <time>2021-08-22T08:02:12Z</time>
      </trkpt>
      <trkpt lat="45.87738" lon="5.69014">
        <ele>288.5</ele>
        <time>2021-08-22T08:02:14Z</time>
      </trkpt>
      <trkpt lat="45.87741" lon="5.69044">
        <ele>287</ele>
        <time>2021-08-22T08:02:16Z</time>
      </trkpt>
      <trkpt lat="45.87741" lon="5.69059">
        <ele>286.2</ele>
        <time>2021-08-22T08:02:17Z</time>
      </trkpt>
      <trkpt lat="45.87737" lon="5.6909">
        <ele>284.5</ele>
        <time>2021-08-22T08:02:19Z</time>
      </trkpt>
      <trkpt lat="45.87728" lon="5.69117">
        <ele>282.8</ele>
        <time>2021-08-22T08:02:21Z</time>
      </trkpt>
      <trkpt lat="45.87722" lon="5.69129">
        <ele>282</ele>
        <time>2021-08-22T08:02:22Z</time>
      </trkpt>
      <trkpt lat="45.87716" lon="5.69138">
        <ele>281.3</ele>
        <time>2021-08-22T08:02:23Z</time>
      </trkpt>
      <trkpt lat="45.87704" lon="5.69158">
        <ele>280</ele>
        <time>2021-08-22T08:02:25Z</time>
      </trkpt>
      <trkpt lat="45.87692" lon="5.69175">
        <ele>278.7</ele>
        <time>2021-08-22T08:02:27Z</time>
      </trkpt>
      <trkpt lat="45.87681" lon="5.69195">
        <ele>277.5</ele>
        <time>2021-08-22T08:02:29Z</time>
      </trkpt>
      <trkpt lat="45.87677" lon="5.69206">
        <ele>276.8</ele>
        <time>2021-08-22T08:02:30Z</time>
      </trkpt>
      <trkpt lat="45.87669" lon="5.69227">
        <ele>275.6</ele>
        <time>2021-08-22T08:02:32Z</time>
      </trkpt>
      <trkpt lat="45.8766" lon="5.69245">
        <ele>274.4</ele>
        <time>2021-08-22T08:02:34Z</time>
      </trkpt>
      <trkpt lat="45.87652" lon="5.6926">
        <ele>273.5</ele>
        <time>2021-08-22T08:02:36Z</time>
      </trkpt>
      <trkpt lat="45.87648" lon="5.69267">
        <ele>272.8</ele>
        <time>2021-08-22T08:02:37Z</time>
      </trkpt>
      <trkpt lat="45.87636" lon="5.69274">
        <ele>271.9</ele>
        <time>2021-08-22T08:02:39Z</time>
      </trkpt>
      <trkpt lat="45.8763" lon="5.69276">
        <ele>271.5</ele>
        <time>2021-08-22T08:02:40Z</time>
      </trkpt>
      <trkpt lat="45.87623" lon="5.69276">
        <ele>271</ele>
        <time>2021-08-22T08:02:41Z</time>
      </trkpt>
      <trkpt lat="45.87616" lon="5.69275">
        <ele>270.6</ele>
        <time>2021-08-22T08:02:42Z</time>
      </trkpt>
      <trkpt lat="45.87602" lon="5.69268">
        <ele>269.8</ele>
        <time>2021-08-22T08:02:44Z</time>
      </trkpt>
      <trkpt lat="45.87594" lon="5.69265">
        <ele>269.4</ele>
        <time>2021-08-22T08:02:45Z</time>
      </trkpt>
      <trkpt lat="45.87581" lon="5.69261">
        <ele>268.6</ele>
        <time>2021-08-22T08:02:47Z</time>
      </trkpt>
      <trkpt lat="45.87569" lon="5.69257">
        <ele>267.9</ele>
        <time>2021-08-22T08:02:49Z</time>
      </trkpt>
      <trkpt lat="45.87557" lon="5.69254">
        <ele>267.1</ele>
        <time>2021-08-22T08:02:51Z</time>
      </trkpt>
      <trkpt lat="45.87549" lon="5.69252">
        <ele>266.6</ele>
        <time>2021-08-22T08:02:52Z</time>
      </trkpt>
      <trkpt lat="45.87542" lon="5.69248">
        <ele>266.2</ele>
        <time>2021-08-22T08:02:53Z</time>
      </trkpt>
      <trkpt lat="45.87526" lon="5.69242">
        <ele>265.4</ele>
        <time>2021-08-22T08:02:55Z</time>
      </trkpt>
      <trkpt lat="45.87519" lon="5.6924">
        <ele>265.1</ele>
        <time>2021-08-22T08:02:56Z</time>
      </trkpt>
      <trkpt lat="45.87505" lon="5.69234">
        <ele>264.6</ele>
        <time>2021-08-22T08:02:58Z</time>
      </trkpt>
      <trkpt lat="45.8749" lon="5.69226">
        <ele>263</ele>
        <time>2021-08-22T08:03:00Z</time>
      </trkpt>
      <trkpt lat="45.87483" lon="5.69222">
        <ele>262.2</ele>
        <time>2021-08-22T08:03:01Z</time>
      </trkpt>
      <trkpt lat="45.87469" lon="5.69215">
        <ele>260.6</ele>
        <time>2021-08-22T08:03:03Z</time>
      </trkpt>
      <trkpt lat="45.87455" lon="5.69206">
        <ele>259.3</ele>
        <time>2021-08-22T08:03:05Z</time>
      </trkpt>
      <trkpt lat="45.87444" lon="5.69201">
        <ele>258.8</ele>
        <time>2021-08-22T08:03:07Z</time>
      </trkpt>
      <trkpt lat="45.87438" lon="5.69198">
        <ele>258.6</ele>
        <time>2021-08-22T08:03:08Z</time>
      </trkpt>
      <trkpt lat="45.87432" lon="5.69194">
        <ele>258</ele>
        <time>2021-08-22T08:03:09Z</time>
      </trkpt>
      <trkpt lat="45.87422" lon="5.69188">
        <ele>256.9</ele>
        <time>2021-08-22T08:03:11Z</time>
      </trkpt>
      <trkpt lat="45.87417" lon="5.69185">
        <ele>256.4</ele>
        <time>2021-08-22T08:03:12Z</time>
      </trkpt>
      <trkpt lat="45.87415" lon="5.69184">
        <ele>256.4</ele>
        <time>2021-08-22T08:03:13Z</time>
      </trkpt>
      <trkpt lat="45.8741" lon="5.69184">
        <ele>256.4</ele>
        <time>2021-08-22T08:03:15Z</time>
      </trkpt>
      <trkpt lat="45.87409" lon="5.69185">
        <ele>256.4</ele>
        <time>2021-08-22T08:03:16Z</time>
      </trkpt>
      <trkpt lat="45.87408" lon="5.69186">
        <ele>256.4</ele>
        <time>2021-08-22T08:03:17Z</time>
      </trkpt>
      <trkpt lat="45.87407" lon="5.69187">
        <ele>256.4</ele>
        <time>2021-08-22T08:03:19Z</time>
      </trkpt>
      <trkpt lat="45.87407" lon="5.69188">
        <ele>256.4</ele>
        <time>2021-08-22T08:03:20Z</time>
      </trkpt>
      <trkpt lat="45.87409" lon="5.69189">
        <ele>256.4</ele>
        <time>2021-08-22T08:03:21Z</time>
      </trkpt>
      <trkpt lat="45.87414" lon="5.6919">
        <ele>256.4</ele>
        <time>2021-08-22T08:03:23Z</time>
      </trkpt>
      <trkpt lat="45.87416" lon="5.69191">
        <ele>256.4</ele>
        <time>2021-08-22T08:03:24Z</time>
      </trkpt>
      <trkpt lat="45.8742" lon="5.69193">
        <ele>256.7</ele>
        <time>2021-08-22T08:03:26Z</time>
      </trkpt>
      <trkpt lat="45.87422" lon="5.69195">
        <ele>257.1</ele>
        <time>2021-08-22T08:03:27Z</time>
      </trkpt>
      <trkpt lat="45.87423" lon="5.69195">
        <ele>257.2</ele>
        <time>2021-08-22T08:03:28Z</time>
      </trkpt>
      <trkpt lat="45.87428" lon="5.69198">
        <ele>257.7</ele>
        <time>2021-08-22T08:03:30Z</time>
      </trkpt>
      <trkpt lat="45.8743" lon="5.69198">
        <ele>257.9</ele>
        <time>2021-08-22T08:03:31Z</time>
      </trkpt>
      <trkpt lat="45.87431" lon="5.69199">
        <ele>258</ele>
        <time>2021-08-22T08:03:32Z</time>
      </trkpt>
      <trkpt lat="45.87432" lon="5.69201">
        <ele>258.1</ele>
        <time>2021-08-22T08:03:33Z</time>
      </trkpt>
      <trkpt lat="45.87432" lon="5.69208">
        <ele>258.3</ele>
        <time>2021-08-22T08:03:35Z</time>
      </trkpt>
      <trkpt lat="45.87432" lon="5.69212">
        <ele>258.2</ele>
        <time>2021-08-22T08:03:36Z</time>
      </trkpt>
      <trkpt lat="45.87433" lon="5.69219">
        <ele>258.1</ele>
        <time>2021-08-22T08:03:38Z</time>
      </trkpt>
      <trkpt lat="45.87431" lon="5.69223">
        <ele>258</ele>
        <time>2021-08-22T08:03:39Z</time>
      </trkpt>
      <trkpt lat="45.8743" lon="5.69224">
        <ele>258</ele>
        <time>2021-08-22T08:03:40Z</time>
      </trkpt>
      <trkpt lat="45.87427" lon="5.69229">
        <ele>257.9</ele>
        <time>2021-08-22T08:03:42Z</time>
      </trkpt>
      <trkpt lat="45.87426" lon="5.69232">
        <ele>257.8</ele>
        <time>2021-08-22T08:03:43Z</time>
      </trkpt>
      <trkpt lat="45.87427" lon="5.69236">
        <ele>257.8</ele>
        <time>2021-08-22T08:03:45Z</time>
      </trkpt>
      <trkpt lat="45.87428" lon="5.69239">
        <ele>257.7</ele>
        <time>2021-08-22T08:03:47Z</time>
      </trkpt>
      <trkpt lat="45.87429" lon="5.69241">
        <ele>257.7</ele>
        <time>2021-08-22T08:03:49Z</time>
      </trkpt>
      <trkpt lat="45.87429" lon="5.69241">
        <ele>257.7</ele>
        <time>2021-08-22T08:03:50Z</time>
      </trkpt>
      <trkpt lat="45.87429" lon="5.6924">
        <ele>257.7</ele>
        <time>2021-08-22T08:03:51Z</time>
      </trkpt>
      <trkpt lat="45.87429" lon="5.6924">
        <ele>257.7</ele>
        <time>2021-08-22T08:03:52Z</time>
      </trkpt>
      <trkpt lat="45.87429" lon="5.6924">
        <ele>257.7</ele>
        <time>2021-08-22T08:03:54Z</time>
      </trkpt>
      <trkpt lat="45.87429" lon="5.6924">
        <ele>257.7</ele>
        <time>2021-08-22T08:03:55Z</time>
      </trkpt>
      <trkpt lat="45.87416" lon="5.69242">
        <ele>257.5</ele>
        <time>2021-08-22T08:04:45Z</time>
      </trkpt>
      <trkpt lat="45.87424" lon="5.69242">
        <ele>257.3</ele>
        <time>2021-08-22T08:04:48Z</time>
      </trkpt>
      <trkpt lat="45.87423" lon="5.69242">
        <ele>257.3</ele>
        <time>2021-08-22T08:04:51Z</time>
      </trkpt>
      <trkpt lat="45.8742" lon="5.69242">
        <ele>257.3</ele>
        <time>2021-08-22T08:04:57Z</time>
      </trkpt>
      <trkpt lat="45.87418" lon="5.69242">
        <ele>257.3</ele>
        <time>2021-08-22T08:05:04Z</time>
      </trkpt>
      <trkpt lat="45.87416" lon="5.69242">
        <ele>257.2</ele>
        <time>2021-08-22T08:05:04Z</time>
      </trkpt>
      <trkpt lat="45.87421" lon="5.69242">
        <ele>257.2</ele>
        <time>2021-08-22T08:05:06Z</time>
      </trkpt>
      <trkpt lat="45.8742" lon="5.69248">
        <ele>257.1</ele>
        <time>2021-08-22T08:05:10Z</time>
      </trkpt>
      <trkpt lat="45.87418" lon="5.69254">
        <ele>257.1</ele>
        <time>2021-08-22T08:05:12Z</time>
      </trkpt>
      <trkpt lat="45.87416" lon="5.69259">
        <ele>257</ele>
        <time>2021-08-22T08:05:13Z</time>
      </trkpt>
      <trkpt lat="45.87414" lon="5.69265">
        <ele>257</ele>
        <time>2021-08-22T08:05:17Z</time>
      </trkpt>
      <trkpt lat="45.87412" lon="5.6927">
        <ele>257</ele>
        <time>2021-08-22T08:05:19Z</time>
      </trkpt>
      <trkpt lat="45.8741" lon="5.69276">
        <ele>256.9</ele>
        <time>2021-08-22T08:05:21Z</time>
      </trkpt>
      <trkpt lat="45.87408" lon="5.69281">
        <ele>256.9</ele>
        <time>2021-08-22T08:05:22Z</time>
      </trkpt>
      <trkpt lat="45.87406" lon="5.69287">
        <ele>256.9</ele>
        <time>2021-08-22T08:05:48Z</time>
      </trkpt>
      <trkpt lat="45.87404" lon="5.69292">
        <ele>256.9</ele>
        <time>2021-08-22T08:05:49Z</time>
      </trkpt>
      <trkpt lat="45.87401" lon="5.69302">
        <ele>256.8</ele>
        <time>2021-08-22T08:05:50Z</time>
      </trkpt>
      <trkpt lat="45.87399" lon="5.6931">
        <ele>256.8</ele>
        <time>2021-08-22T08:05:51Z</time>
      </trkpt>
      <trkpt lat="45.87399" lon="5.69314">
        <ele>256.8</ele>
        <time>2021-08-22T08:05:52Z</time>
      </trkpt>
      <trkpt lat="45.87398" lon="5.69321">
        <ele>256.8</ele>
        <time>2021-08-22T08:05:54Z</time>
      </trkpt>
      <trkpt lat="45.87395" lon="5.6933">
        <ele>256.8</ele>
        <time>2021-08-22T08:05:55Z</time>
      </trkpt>
      <trkpt lat="45.87392" lon="5.69336">
        <ele>256.8</ele>
        <time>2021-08-22T08:05:56Z</time>
      </trkpt>
      <trkpt lat="45.87389" lon="5.69348">
        <ele>256.9</ele>
        <time>2021-08-22T08:05:57Z</time>
      </trkpt>
      <trkpt lat="45.87387" lon="5.69357">
        <ele>256.9</ele>
        <time>2021-08-22T08:05:59Z</time>
      </trkpt>
      <trkpt lat="45.87383" lon="5.69364">
        <ele>257</ele>
        <time>2021-08-22T08:06:00Z</time>
      </trkpt>
      <trkpt lat="45.8738" lon="5.69369">
        <ele>257</ele>
        <time>2021-08-22T08:06:01Z</time>
      </trkpt>
      <trkpt lat="45.87377" lon="5.69373">
        <ele>257.1</ele>
        <time>2021-08-22T08:06:02Z</time>
      </trkpt>
      <trkpt lat="45.87374" lon="5.69378">
        <ele>257.2</ele>
        <time>2021-08-22T08:06:03Z</time>
      </trkpt>
      <trkpt lat="45.87371" lon="5.69382">
        <ele>257.2</ele>
        <time>2021-08-22T08:06:04Z</time>
      </trkpt>
      <trkpt lat="45.87369" lon="5.69386">
        <ele>257.3</ele>
        <time>2021-08-22T08:06:06Z</time>
      </trkpt>
      <trkpt lat="45.87365" lon="5.69392">
        <ele>257.4</ele>
        <time>2021-08-22T08:06:08Z</time>
      </trkpt>
      <trkpt lat="45.87362" lon="5.69394">
        <ele>257.4</ele>
        <time>2021-08-22T08:06:09Z</time>
      </trkpt>
      <trkpt lat="45.87358" lon="5.69398">
        <ele>257.4</ele>
        <time>2021-08-22T08:06:10Z</time>
      </trkpt>
      <trkpt lat="45.87355" lon="5.69399">
        <ele>257.4</ele>
        <time>2021-08-22T08:06:12Z</time>
      </trkpt>
      <trkpt lat="45.8735" lon="5.69402">
        <ele>257.4</ele>
        <time>2021-08-22T08:06:14Z</time>
      </trkpt>
      <trkpt lat="45.87349" lon="5.69403">
        <ele>257.4</ele>
        <time>2021-08-22T08:06:15Z</time>
      </trkpt>
      <trkpt lat="45.87346" lon="5.69404">
        <ele>257.4</ele>
        <time>2021-08-22T08:06:17Z</time>
      </trkpt>
      <trkpt lat="45.87346" lon="5.69403">
        <ele>257.4</ele>
        <time>2021-08-22T08:06:18Z</time>
      </trkpt>
      <trkpt lat="45.87347" lon="5.69403">
        <ele>257.4</ele>
        <time>2021-08-22T08:06:20Z</time>
      </trkpt>
      <trkpt lat="45.87348" lon="5.69404">
        <ele>257.4</ele>
        <time>2021-08-22T08:06:21Z</time>
      </trkpt>
      <trkpt lat="45.87348" lon="5.69404">
        <ele>257.4</ele>
        <time>2021-08-22T08:06:22Z</time>
      </trkpt>
      <trkpt lat="45.87348" lon="5.69403">
        <ele>257.4</ele>
        <time>2021-08-22T08:06:24Z</time>
      </trkpt>
      <trkpt lat="45.87347" lon="5.69403">
        <ele>257.4</ele>
        <time>2021-08-22T08:06:25Z</time>
      </trkpt>
      <trkpt lat="45.87347" lon="5.69403">
        <ele>257.4</ele>
        <time>2021-08-22T08:06:27Z</time>
      </trkpt>
      <trkpt lat="45.87319" lon="5.69405">
        <ele>257.3</ele>
        <time>2021-08-22T08:07:51Z</time>
      </trkpt>
      <trkpt lat="45.87318" lon="5.69404">
        <ele>257.3</ele>
        <time>2021-08-22T08:07:57Z</time>
      </trkpt>
      <trkpt lat="45.87318" lon="5.69403">
        <ele>257.3</ele>
        <time>2021-08-22T08:08:04Z</time>
      </trkpt>
      <trkpt lat="45.87318" lon="5.69403">
        <ele>257.3</ele>
        <time>2021-08-22T08:08:10Z</time>
      </trkpt>
      <trkpt lat="45.87319" lon="5.69405">
        <ele>257.3</ele>
        <time>2021-08-22T08:08:16Z</time>
      </trkpt>
      <trkpt lat="45.87318" lon="5.69405">
        <ele>257.3</ele>
        <time>2021-08-22T08:08:23Z</time>
      </trkpt>
      <trkpt lat="45.87318" lon="5.69404">
        <ele>257.3</ele>
        <time>2021-08-22T08:08:29Z</time>
      </trkpt>
      <trkpt lat="45.87318" lon="5.69404">
        <ele>257.3</ele>
        <time>2021-08-22T08:08:36Z</time>
      </trkpt>
      <trkpt lat="45.87318" lon="5.69403">
        <ele>257.3</ele>
        <time>2021-08-22T08:08:42Z</time>
      </trkpt>
      <trkpt lat="45.87318" lon="5.69404">
        <ele>257.3</ele>
        <time>2021-08-22T08:08:48Z</time>
      </trkpt>
      <trkpt lat="45.87318" lon="5.69404">
        <ele>257.3</ele>
        <time>2021-08-22T08:08:55Z</time>
      </trkpt>
      <trkpt lat="45.87318" lon="5.69404">
        <ele>257.3</ele>
        <time>2021-08-22T08:09:02Z</time>
      </trkpt>
      <trkpt lat="45.87318" lon="5.69406">
        <ele>257.3</ele>
        <time>2021-08-22T08:09:05Z</time>
      </trkpt>
      <trkpt lat="45.87318" lon="5.69407">
        <ele>257.3</ele>
        <time>2021-08-22T08:09:08Z</time>
      </trkpt>
      <trkpt lat="45.87318" lon="5.69404">
        <ele>257.3</ele>
        <time>2021-08-22T08:09:14Z</time>
      </trkpt>
      <trkpt lat="45.87318" lon="5.69403">
        <ele>257.3</ele>
        <time>2021-08-22T08:09:21Z</time>
      </trkpt>
      <trkpt lat="45.87318" lon="5.69403">
        <ele>257.3</ele>
        <time>2021-08-22T08:09:27Z</time>
      </trkpt>
      <trkpt lat="45.87318" lon="5.69403">
        <ele>257.3</ele>
        <time>2021-08-22T08:09:34Z</time>
      </trkpt>
      <trkpt lat="45.87318" lon="5.69403">
        <ele>257.3</ele>
        <time>2021-08-22T08:09:40Z</time>
      </trkpt>
      <trkpt lat="45.87318" lon="5.69404">
        <ele>257.3</ele>
        <time>2021-08-22T08:09:47Z</time>
      </trkpt>
      <trkpt lat="45.87318" lon="5.69404">
        <ele>257.3</ele>
        <time>2021-08-22T08:09:53Z</time>
      </trkpt>
      <trkpt lat="45.87319" lon="5.69404">
        <ele>257.3</ele>
        <time>2021-08-22T08:09:59Z</time>
      </trkpt>
      <trkpt lat="45.87319" lon="5.69405">
        <ele>257.3</ele>
        <time>2021-08-22T08:10:06Z</time>
      </trkpt>
      <trkpt lat="45.87319" lon="5.69404">
        <ele>257.3</ele>
        <time>2021-08-22T08:10:12Z</time>
      </trkpt>
      <trkpt lat="45.8732" lon="5.69404">
        <ele>257.3</ele>
        <time>2021-08-22T08:10:14Z</time>
      </trkpt>
      <trkpt lat="45.8732" lon="5.69404">
        <ele>257.3</ele>
        <time>2021-08-22T08:10:16Z</time>
      </trkpt>
      <trkpt lat="45.8732" lon="5.69404">
        <ele>257.3</ele>
        <time>2021-08-22T08:10:18Z</time>
      </trkpt>
      <trkpt lat="45.8732" lon="5.69404">
        <ele>257.3</ele>
        <time>2021-08-22T08:10:20Z</time>
      </trkpt>
      <trkpt lat="45.8732" lon="5.69405">
        <ele>257.3</ele>
        <time>2021-08-22T08:10:21Z</time>
      </trkpt>
      <trkpt lat="45.8732" lon="5.69405">
        <ele>257.3</ele>
        <time>2021-08-22T08:10:23Z</time>
      </trkpt>
      <trkpt lat="45.8732" lon="5.69406">
        <ele>257.3</ele>
        <time>2021-08-22T08:10:24Z</time>
      </trkpt>
      <trkpt lat="45.8732" lon="5.69406">
        <ele>257.3</ele>
        <time>2021-08-22T08:10:26Z</time>
      </trkpt>
      <trkpt lat="45.8732" lon="5.69406">
        <ele>257.3</ele>
        <time>2021-08-22T08:10:27Z</time>
      </trkpt>
      <trkpt lat="45.87321" lon="5.69406">
        <ele>257.3</ele>
        <time>2021-08-22T08:10:29Z</time>
      </trkpt>
      <trkpt lat="45.87321" lon="5.69406">
        <ele>257.3</ele>
        <time>2021-08-22T08:10:30Z</time>
      </trkpt>
      <trkpt lat="45.87322" lon="5.69406">
        <ele>257.3</ele>
        <time>2021-08-22T08:10:31Z</time>
      </trkpt>
      <trkpt lat="45.87322" lon="5.69407">
        <ele>257.3</ele>
        <time>2021-08-22T08:10:32Z</time>
      </trkpt>
      <trkpt lat="45.87323" lon="5.69407">
        <ele>257.3</ele>
        <time>2021-08-22T08:10:33Z</time>
      </trkpt>
      <trkpt lat="45.87323" lon="5.69407">
        <ele>257.3</ele>
        <time>2021-08-22T08:10:35Z</time>
      </trkpt>
      <trkpt lat="45.87323" lon="5.69408">
        <ele>257.3</ele>
        <time>2021-08-22T08:10:37Z</time>
      </trkpt>
      <trkpt lat="45.87323" lon="5.69409">
        <ele>257.3</ele>
        <time>2021-08-22T08:10:38Z</time>
      </trkpt>
      <trkpt lat="45.87323" lon="5.6941">
        <ele>257.3</ele>
        <time>2021-08-22T08:10:39Z</time>
      </trkpt>
      <trkpt lat="45.87324" lon="5.69412">
        <ele>257.3</ele>
        <time>2021-08-22T08:10:40Z</time>
      </trkpt>
      <trkpt lat="45.87325" lon="5.69415">
        <ele>257.3</ele>
        <time>2021-08-22T08:10:42Z</time>
      </trkpt>
      <trkpt lat="45.87327" lon="5.69419">
        <ele>257.3</ele>
        <time>2021-08-22T08:10:43Z</time>
      </trkpt>
      <trkpt lat="45.87328" lon="5.69422">
        <ele>257.3</ele>
        <time>2021-08-22T08:10:44Z</time>
      </trkpt>
      <trkpt lat="45.87328" lon="5.69424">
        <ele>257.3</ele>
        <time>2021-08-22T08:10:46Z</time>
      </trkpt>
      <trkpt lat="45.87327" lon="5.69427">
        <ele>257.3</ele>
        <time>2021-08-22T08:10:47Z</time>
      </trkpt>
      <trkpt lat="45.87325" lon="5.69428">
        <ele>257.3</ele>
        <time>2021-08-22T08:10:49Z</time>
      </trkpt>
      <trkpt lat="45.87325" lon="5.69428">
        <ele>257.3</ele>
        <time>2021-08-22T08:10:50Z</time>
      </trkpt>
      <trkpt lat="45.87324" lon="5.69429">
        <ele>257.3</ele>
        <time>2021-08-22T08:10:52Z</time>
      </trkpt>
      <trkpt lat="45.87323" lon="5.69429">
        <ele>257.3</ele>
        <time>2021-08-22T08:10:54Z</time>
      </trkpt>
      <trkpt lat="45.87323" lon="5.69429">
        <ele>257.3</ele>
        <time>2021-08-22T08:10:56Z</time>
      </trkpt>
      <trkpt lat="45.87323" lon="5.6943">
        <ele>257.3</ele>
        <time>2021-08-22T08:10:58Z</time>
      </trkpt>
      <trkpt lat="45.87322" lon="5.6939">
        <ele>257.3</ele>
        <time>2021-08-22T08:11:16Z</time>
      </trkpt>
      <trkpt lat="45.87322" lon="5.6939">
        <ele>257.3</ele>
        <time>2021-08-22T08:11:18Z</time>
      </trkpt>
      <trkpt lat="45.87327" lon="5.69386">
        <ele>257.3</ele>
        <time>2021-08-22T08:11:20Z</time>
      </trkpt>
      <trkpt lat="45.87332" lon="5.69372">
        <ele>257.3</ele>
        <time>2021-08-22T08:11:22Z</time>
      </trkpt>
      <trkpt lat="45.87335" lon="5.69372">
        <ele>257.3</ele>
        <time>2021-08-22T08:11:24Z</time>
      </trkpt>
      <trkpt lat="45.87338" lon="5.69376">
        <ele>257.3</ele>
        <time>2021-08-22T08:11:26Z</time>
      </trkpt>
      <trkpt lat="45.87333" lon="5.69401">
        <ele>257.3</ele>
        <time>2021-08-22T08:11:28Z</time>
      </trkpt>
      <trkpt lat="45.87328" lon="5.69425">
        <ele>257.6</ele>
        <time>2021-08-22T08:12:01Z</time>
      </trkpt>
      <trkpt lat="45.87323" lon="5.69449">
        <ele>257.9</ele>
        <time>2021-08-22T08:12:02Z</time>
      </trkpt>
      <trkpt lat="45.87321" lon="5.69467">
        <ele>258.1</ele>
        <time>2021-08-22T08:12:03Z</time>
      </trkpt>
      <trkpt lat="45.87321" lon="5.69482">
        <ele>258.3</ele>
        <time>2021-08-22T08:12:04Z</time>
      </trkpt>
      <trkpt lat="45.87322" lon="5.69493">
        <ele>258.4</ele>
        <time>2021-08-22T08:12:06Z</time>
      </trkpt>
      <trkpt lat="45.87322" lon="5.69501">
        <ele>258.5</ele>
        <time>2021-08-22T08:12:07Z</time>
      </trkpt>
      <trkpt lat="45.87321" lon="5.69509">
        <ele>258.5</ele>
        <time>2021-08-22T08:12:08Z</time>
      </trkpt>
      <trkpt lat="45.87321" lon="5.6952">
        <ele>258.6</ele>
        <time>2021-08-22T08:12:09Z</time>
      </trkpt>
      <trkpt lat="45.87322" lon="5.69526">
        <ele>258.7</ele>
        <time>2021-08-22T08:12:11Z</time>
      </trkpt>
      <trkpt lat="45.87323" lon="5.69534">
        <ele>258.7</ele>
        <time>2021-08-22T08:12:12Z</time>
      </trkpt>
      <trkpt lat="45.87322" lon="5.69542">
        <ele>258.7</ele>
        <time>2021-08-22T08:12:14Z</time>
      </trkpt>
      <trkpt lat="45.87322" lon="5.69547">
        <ele>258.7</ele>
        <time>2021-08-22T08:12:15Z</time>
      </trkpt>
      <trkpt lat="45.87321" lon="5.69552">
        <ele>258.8</ele>
        <time>2021-08-22T08:12:16Z</time>
      </trkpt>
      <trkpt lat="45.87321" lon="5.69556">
        <ele>258.8</ele>
        <time>2021-08-22T08:12:17Z</time>
      </trkpt>
      <trkpt lat="45.8732" lon="5.69567">
        <ele>258.8</ele>
        <time>2021-08-22T08:12:19Z</time>
      </trkpt>
      <trkpt lat="45.8732" lon="5.69579">
        <ele>258.9</ele>
        <time>2021-08-22T08:12:21Z</time>
      </trkpt>
      <trkpt lat="45.87318" lon="5.69588">
        <ele>258.9</ele>
        <time>2021-08-22T08:12:22Z</time>
      </trkpt>
      <trkpt lat="45.87319" lon="5.69595">
        <ele>258.9</ele>
        <time>2021-08-22T08:12:24Z</time>
      </trkpt>
      <trkpt lat="45.87319" lon="5.69603">
        <ele>258.8</ele>
        <time>2021-08-22T08:12:25Z</time>
      </trkpt>
      <trkpt lat="45.87319" lon="5.69611">
        <ele>258.8</ele>
        <time>2021-08-22T08:12:27Z</time>
      </trkpt>
      <trkpt lat="45.87318" lon="5.69617">
        <ele>258.8</ele>
        <time>2021-08-22T08:12:28Z</time>
      </trkpt>
      <trkpt lat="45.87316" lon="5.69629">
        <ele>258.8</ele>
        <time>2021-08-22T08:12:30Z</time>
      </trkpt>
      <trkpt lat="45.87313" lon="5.69636">
        <ele>258.7</ele>
        <time>2021-08-22T08:12:31Z</time>
      </trkpt>
      <trkpt lat="45.87312" lon="5.69642">
        <ele>258.7</ele>
        <time>2021-08-22T08:12:32Z</time>
      </trkpt>
      <trkpt lat="45.87312" lon="5.69648">
        <ele>258.7</ele>
        <time>2021-08-22T08:12:33Z</time>
      </trkpt>
      <trkpt lat="45.87313" lon="5.69654">
        <ele>258.7</ele>
        <time>2021-08-22T08:12:34Z</time>
      </trkpt>
      <trkpt lat="45.87311" lon="5.69662">
        <ele>258.6</ele>
        <time>2021-08-22T08:12:35Z</time>
      </trkpt>
      <trkpt lat="45.87308" lon="5.69675">
        <ele>258.6</ele>
        <time>2021-08-22T08:12:37Z</time>
      </trkpt>
      <trkpt lat="45.87306" lon="5.69689">
        <ele>258.6</ele>
        <time>2021-08-22T08:12:39Z</time>
      </trkpt>
      <trkpt lat="45.87303" lon="5.69695">
        <ele>258.6</ele>
        <time>2021-08-22T08:12:40Z</time>
      </trkpt>
      <trkpt lat="45.87301" lon="5.69701">
        <ele>258.7</ele>
        <time>2021-08-22T08:12:41Z</time>
      </trkpt>
      <trkpt lat="45.873" lon="5.69707">
        <ele>258.7</ele>
        <time>2021-08-22T08:12:42Z</time>
      </trkpt>
      <trkpt lat="45.873" lon="5.69714">
        <ele>258.7</ele>
        <time>2021-08-22T08:12:43Z</time>
      </trkpt>
      <trkpt lat="45.87299" lon="5.69724">
        <ele>258.7</ele>
        <time>2021-08-22T08:12:45Z</time>
      </trkpt>
      <trkpt lat="45.87295" lon="5.69736">
        <ele>258.7</ele>
        <time>2021-08-22T08:12:47Z</time>
      </trkpt>
      <trkpt lat="45.87295" lon="5.69743">
        <ele>258.7</ele>
        <time>2021-08-22T08:12:48Z</time>
      </trkpt>
      <trkpt lat="45.87298" lon="5.69758">
        <ele>258.7</ele>
        <time>2021-08-22T08:12:50Z</time>
      </trkpt>
      <trkpt lat="45.87302" lon="5.69771">
        <ele>258.6</ele>
        <time>2021-08-22T08:12:52Z</time>
      </trkpt>
      <trkpt lat="45.87304" lon="5.69778">
        <ele>258.6</ele>
        <time>2021-08-22T08:12:53Z</time>
      </trkpt>
      <trkpt lat="45.87306" lon="5.69785">
        <ele>258.6</ele>
        <time>2021-08-22T08:12:54Z</time>
      </trkpt>
      <trkpt lat="45.87308" lon="5.698">
        <ele>258.5</ele>
        <time>2021-08-22T08:12:56Z</time>
      </trkpt>
      <trkpt lat="45.87311" lon="5.69814">
        <ele>258.5</ele>
        <time>2021-08-22T08:12:58Z</time>
      </trkpt>
      <trkpt lat="45.87313" lon="5.69829">
        <ele>258.4</ele>
        <time>2021-08-22T08:13:00Z</time>
      </trkpt>
      <trkpt lat="45.87314" lon="5.69837">
        <ele>258.4</ele>
        <time>2021-08-22T08:13:01Z</time>
      </trkpt>
      <trkpt lat="45.87317" lon="5.69852">
        <ele>258.4</ele>
        <time>2021-08-22T08:13:03Z</time>
      </trkpt>
      <trkpt lat="45.87318" lon="5.69859">
        <ele>258.4</ele>
        <time>2021-08-22T08:13:04Z</time>
      </trkpt>
      <trkpt lat="45.8732" lon="5.69875">
        <ele>258.3</ele>
        <time>2021-08-22T08:13:06Z</time>
      </trkpt>
      <trkpt lat="45.87322" lon="5.69883">
        <ele>258.3</ele>
        <time>2021-08-22T08:13:07Z</time>
      </trkpt>
      <trkpt lat="45.87323" lon="5.69891">
        <ele>258.3</ele>
        <time>2021-08-22T08:13:08Z</time>
      </trkpt>
      <trkpt lat="45.87326" lon="5.69905">
        <ele>258.3</ele>
        <time>2021-08-22T08:13:10Z</time>
      </trkpt>
      <trkpt lat="45.87328" lon="5.69912">
        <ele>258.3</ele>
        <time>2021-08-22T08:13:11Z</time>
      </trkpt>
      <trkpt lat="45.87329" lon="5.69919">
        <ele>258.3</ele>
        <time>2021-08-22T08:13:12Z</time>
      </trkpt>
      <trkpt lat="45.87331" lon="5.69925">
        <ele>258.2</ele>
        <time>2021-08-22T08:13:13Z</time>
      </trkpt>
      <trkpt lat="45.87333" lon="5.69929">
        <ele>258.2</ele>
        <time>2021-08-22T08:13:14Z</time>
      </trkpt>
      <trkpt lat="45.87337" lon="5.69943">
        <ele>258.2</ele>
        <time>2021-08-22T08:13:16Z</time>
      </trkpt>
      <trkpt lat="45.87339" lon="5.6995">
        <ele>258.2</ele>
        <time>2021-08-22T08:13:17Z</time>
      </trkpt>
      <trkpt lat="45.87341" lon="5.69955">
        <ele>258.2</ele>
        <time>2021-08-22T08:13:18Z</time>
      </trkpt>
      <trkpt lat="45.87342" lon="5.69961">
        <ele>258.2</ele>
        <time>2021-08-22T08:13:19Z</time>
      </trkpt>
      <trkpt lat="45.87342" lon="5.69974">
        <ele>258.1</ele>
        <time>2021-08-22T08:13:21Z</time>
      </trkpt>
      <trkpt lat="45.87341" lon="5.69989">
        <ele>258.1</ele>
        <time>2021-08-22T08:13:23Z</time>
      </trkpt>
      <trkpt lat="45.8734" lon="5.69997">
        <ele>258.1</ele>
        <time>2021-08-22T08:13:24Z</time>
      </trkpt>
      <trkpt lat="45.87337" lon="5.70011">
        <ele>258.1</ele>
        <time>2021-08-22T08:13:26Z</time>
      </trkpt>
      <trkpt lat="45.87335" lon="5.70019">
        <ele>258.2</ele>
        <time>2021-08-22T08:13:27Z</time>
      </trkpt>
      <trkpt lat="45.87332" lon="5.70033">
        <ele>258.2</ele>
        <time>2021-08-22T08:13:29Z</time>
      </trkpt>
      <trkpt lat="45.8733" lon="5.7004">
        <ele>258.2</ele>
        <time>2021-08-22T08:13:30Z</time>
      </trkpt>
      <trkpt lat="45.87327" lon="5.70047">
        <ele>258.2</ele>
        <time>2021-08-22T08:13:31Z</time>
      </trkpt>
      <trkpt lat="45.87325" lon="5.70054">
        <ele>258.2</ele>
        <time>2021-08-22T08:13:32Z</time>
      </trkpt>
      <trkpt lat="45.87322" lon="5.70068">
        <ele>258.3</ele>
        <time>2021-08-22T08:13:34Z</time>
      </trkpt>
      <trkpt lat="45.8732" lon="5.70075">
        <ele>258.3</ele>
        <time>2021-08-22T08:13:35Z</time>
      </trkpt>
      <trkpt lat="45.87318" lon="5.70082">
        <ele>258.3</ele>
        <time>2021-08-22T08:13:36Z</time>
      </trkpt>
      <trkpt lat="45.87315" lon="5.70088">
        <ele>258.3</ele>
        <time>2021-08-22T08:13:37Z</time>
      </trkpt>
      <trkpt lat="45.87313" lon="5.70095">
        <ele>258.4</ele>
        <time>2021-08-22T08:13:38Z</time>
      </trkpt>
      <trkpt lat="45.87308" lon="5.70107">
        <ele>258.4</ele>
        <time>2021-08-22T08:13:40Z</time>
      </trkpt>
      <trkpt lat="45.87306" lon="5.70114">
        <ele>258.5</ele>
        <time>2021-08-22T08:13:41Z</time>
      </trkpt>
      <trkpt lat="45.87303" lon="5.7012">
        <ele>258.5</ele>
        <time>2021-08-22T08:13:42Z</time>
      </trkpt>
      <trkpt lat="45.87299" lon="5.70133">
        <ele>258.6</ele>
        <time>2021-08-22T08:13:44Z</time>
      </trkpt>
      <trkpt lat="45.87297" lon="5.70139">
        <ele>258.6</ele>
        <time>2021-08-22T08:13:45Z</time>
      </trkpt>
      <trkpt lat="45.87295" lon="5.70151">
        <ele>258.6</ele>
        <time>2021-08-22T08:13:47Z</time>
      </trkpt>
      <trkpt lat="45.87294" lon="5.70157">
        <ele>258.7</ele>
        <time>2021-08-22T08:13:48Z</time>
      </trkpt>
      <trkpt lat="45.87293" lon="5.70164">
        <ele>258.7</ele>
        <time>2021-08-22T08:13:49Z</time>
      </trkpt>
      <trkpt lat="45.87293" lon="5.7017">
        <ele>258.7</ele>
        <time>2021-08-22T08:13:50Z</time>
      </trkpt>
      <trkpt lat="45.87292" lon="5.70177">
        <ele>258.8</ele>
        <time>2021-08-22T08:13:51Z</time>
      </trkpt>
      <trkpt lat="45.87291" lon="5.7019">
        <ele>258.8</ele>
        <time>2021-08-22T08:13:53Z</time>
      </trkpt>
      <trkpt lat="45.8729" lon="5.70196">
        <ele>258.9</ele>
        <time>2021-08-22T08:13:54Z</time>
      </trkpt>
      <trkpt lat="45.8729" lon="5.70203">
        <ele>258.9</ele>
        <time>2021-08-22T08:13:55Z</time>
      </trkpt>
      <trkpt lat="45.87289" lon="5.70208">
        <ele>258.9</ele>
        <time>2021-08-22T08:13:56Z</time>
      </trkpt>
      <trkpt lat="45.87288" lon="5.70219">
        <ele>259</ele>
        <time>2021-08-22T08:13:58Z</time>
      </trkpt>
      <trkpt lat="45.87284" lon="5.7023">
        <ele>259.1</ele>
        <time>2021-08-22T08:14:00Z</time>
      </trkpt>
      <trkpt lat="45.87283" lon="5.70237">
        <ele>259.1</ele>
        <time>2021-08-22T08:14:01Z</time>
      </trkpt>
      <trkpt lat="45.87283" lon="5.70237">
        <ele>259.1</ele>
        <time>2021-08-22T08:14:02Z</time>
      </trkpt>
      <trkpt lat="45.87282" lon="5.70238">
        <ele>259.1</ele>
        <time>2021-08-22T08:14:03Z</time>
      </trkpt>
      <trkpt lat="45.8728" lon="5.70254">
        <ele>259.2</ele>
        <time>2021-08-22T08:14:05Z</time>
      </trkpt>
      <trkpt lat="45.8728" lon="5.70258">
        <ele>259.3</ele>
        <time>2021-08-22T08:14:06Z</time>
      </trkpt>
      <trkpt lat="45.87279" lon="5.70269">
        <ele>259.3</ele>
        <time>2021-08-22T08:14:08Z</time>
      </trkpt>
      <trkpt lat="45.87275" lon="5.70287">
        <ele>259.4</ele>
        <time>2021-08-22T08:14:10Z</time>
      </trkpt>
      <trkpt lat="45.87273" lon="5.70294">
        <ele>259.5</ele>
        <time>2021-08-22T08:14:11Z</time>
      </trkpt>
      <trkpt lat="45.87272" lon="5.70301">
        <ele>259.5</ele>
        <time>2021-08-22T08:14:12Z</time>
      </trkpt>
      <trkpt lat="45.8727" lon="5.70307">
        <ele>259.6</ele>
        <time>2021-08-22T08:14:13Z</time>
      </trkpt>
      <trkpt lat="45.8727" lon="5.70314">
        <ele>259.6</ele>
        <time>2021-08-22T08:14:14Z</time>
      </trkpt>
      <trkpt lat="45.87271" lon="5.7032">
        <ele>259.6</ele>
        <time>2021-08-22T08:14:15Z</time>
      </trkpt>
      <trkpt lat="45.87274" lon="5.70331">
        <ele>259.7</ele>
        <time>2021-08-22T08:14:17Z</time>
      </trkpt>
      <trkpt lat="45.87275" lon="5.70338">
        <ele>259.7</ele>
        <time>2021-08-22T08:14:18Z</time>
      </trkpt>
      <trkpt lat="45.87275" lon="5.70348">
        <ele>259.7</ele>
        <time>2021-08-22T08:14:19Z</time>
      </trkpt>
      <trkpt lat="45.87273" lon="5.70354">
        <ele>259.8</ele>
        <time>2021-08-22T08:14:21Z</time>
      </trkpt>
      <trkpt lat="45.87276" lon="5.70363">
        <ele>259.8</ele>
        <time>2021-08-22T08:14:22Z</time>
      </trkpt>
      <trkpt lat="45.87279" lon="5.70371">
        <ele>259.8</ele>
        <time>2021-08-22T08:14:23Z</time>
      </trkpt>
      <trkpt lat="45.87283" lon="5.70381">
        <ele>259.7</ele>
        <time>2021-08-22T08:14:25Z</time>
      </trkpt>
      <trkpt lat="45.87285" lon="5.70388">
        <ele>259.7</ele>
        <time>2021-08-22T08:14:26Z</time>
      </trkpt>
      <trkpt lat="45.87288" lon="5.70401">
        <ele>259.6</ele>
        <time>2021-08-22T08:14:28Z</time>
      </trkpt>
      <trkpt lat="45.87289" lon="5.70408">
        <ele>259.6</ele>
        <time>2021-08-22T08:14:29Z</time>
      </trkpt>
      <trkpt lat="45.87292" lon="5.70415">
        <ele>259.5</ele>
        <time>2021-08-22T08:14:30Z</time>
      </trkpt>
      <trkpt lat="45.87295" lon="5.70426">
        <ele>259.3</ele>
        <time>2021-08-22T08:14:32Z</time>
      </trkpt>
      <trkpt lat="45.87297" lon="5.70432">
        <ele>259.2</ele>
        <time>2021-08-22T08:14:33Z</time>
      </trkpt>
      <trkpt lat="45.87299" lon="5.70438">
        <ele>259</ele>
        <time>2021-08-22T08:14:34Z</time>
      </trkpt>
      <trkpt lat="45.87302" lon="5.70451">
        <ele>258.7</ele>
        <time>2021-08-22T08:14:36Z</time>
      </trkpt>
      <trkpt lat="45.87305" lon="5.70466">
        <ele>258.1</ele>
        <time>2021-08-22T08:14:38Z</time>
      </trkpt>
      <trkpt lat="45.87306" lon="5.70474">
        <ele>257.8</ele>
        <time>2021-08-22T08:14:39Z</time>
      </trkpt>
      <trkpt lat="45.87307" lon="5.70492">
        <ele>257.1</ele>
        <time>2021-08-22T08:14:41Z</time>
      </trkpt>
      <trkpt lat="45.87306" lon="5.70502">
        <ele>256.6</ele>
        <time>2021-08-22T08:14:42Z</time>
      </trkpt>
      <trkpt lat="45.873" lon="5.70524">
        <ele>255.5</ele>
        <time>2021-08-22T08:14:44Z</time>
      </trkpt>
      <trkpt lat="45.87295" lon="5.70535">
        <ele>254.9</ele>
        <time>2021-08-22T08:14:45Z</time>
      </trkpt>
      <trkpt lat="45.87291" lon="5.70547">
        <ele>254.2</ele>
        <time>2021-08-22T08:14:46Z</time>
      </trkpt>
      <trkpt lat="45.87287" lon="5.70558">
        <ele>253.8</ele>
        <time>2021-08-22T08:14:47Z</time>
      </trkpt>
      <trkpt lat="45.87276" lon="5.70582">
        <ele>252.9</ele>
        <time>2021-08-22T08:14:49Z</time>
      </trkpt>
      <trkpt lat="45.87267" lon="5.70607">
        <ele>252</ele>
        <time>2021-08-22T08:14:51Z</time>
      </trkpt>
      <trkpt lat="45.87262" lon="5.70619">
        <ele>251.6</ele>
        <time>2021-08-22T08:14:52Z</time>
      </trkpt>
      <trkpt lat="45.87252" lon="5.70643">
        <ele>251</ele>
        <time>2021-08-22T08:14:54Z</time>
      </trkpt>
      <trkpt lat="45.87247" lon="5.70656">
        <ele>250.9</ele>
        <time>2021-08-22T08:14:55Z</time>
      </trkpt>
      <trkpt lat="45.87237" lon="5.7068">
        <ele>250.2</ele>
        <time>2021-08-22T08:14:57Z</time>
      </trkpt>
      <trkpt lat="45.87227" lon="5.70702">
        <ele>249.7</ele>
        <time>2021-08-22T08:14:59Z</time>
      </trkpt>
      <trkpt lat="45.87222" lon="5.70713">
        <ele>249.6</ele>
        <time>2021-08-22T08:15:00Z</time>
      </trkpt>
      <trkpt lat="45.87216" lon="5.70723">
        <ele>249.6</ele>
        <time>2021-08-22T08:15:01Z</time>
      </trkpt>
      <trkpt lat="45.8721" lon="5.70734">
        <ele>249.8</ele>
        <time>2021-08-22T08:15:02Z</time>
      </trkpt>
      <trkpt lat="45.872" lon="5.70752">
        <ele>250.3</ele>
        <time>2021-08-22T08:15:04Z</time>
      </trkpt>
      <trkpt lat="45.87196" lon="5.70761">
        <ele>250.6</ele>
        <time>2021-08-22T08:15:05Z</time>
      </trkpt>
      <trkpt lat="45.87189" lon="5.70776">
        <ele>251.1</ele>
        <time>2021-08-22T08:15:07Z</time>
      </trkpt>
      <trkpt lat="45.87186" lon="5.70783">
        <ele>251.3</ele>
        <time>2021-08-22T08:15:08Z</time>
      </trkpt>
      <trkpt lat="45.8718" lon="5.70796">
        <ele>251.7</ele>
        <time>2021-08-22T08:15:10Z</time>
      </trkpt>
      <trkpt lat="45.87177" lon="5.70801">
        <ele>251.8</ele>
        <time>2021-08-22T08:15:11Z</time>
      </trkpt>
      <trkpt lat="45.8717" lon="5.70812">
        <ele>252</ele>
        <time>2021-08-22T08:15:13Z</time>
      </trkpt>
      <trkpt lat="45.87163" lon="5.70822">
        <ele>252.2</ele>
        <time>2021-08-22T08:15:15Z</time>
      </trkpt>
      <trkpt lat="45.87159" lon="5.70832">
        <ele>252.2</ele>
        <time>2021-08-22T08:15:17Z</time>
      </trkpt>
      <trkpt lat="45.87157" lon="5.70837">
        <ele>252.2</ele>
        <time>2021-08-22T08:15:18Z</time>
      </trkpt>
      <trkpt lat="45.87155" lon="5.70841">
        <ele>252.2</ele>
        <time>2021-08-22T08:15:19Z</time>
      </trkpt>
      <trkpt lat="45.8715" lon="5.7085">
        <ele>252.2</ele>
        <time>2021-08-22T08:15:21Z</time>
      </trkpt>
      <trkpt lat="45.87147" lon="5.70858">
        <ele>252.2</ele>
        <time>2021-08-22T08:15:23Z</time>
      </trkpt>
      <trkpt lat="45.87144" lon="5.70865">
        <ele>252.2</ele>
        <time>2021-08-22T08:15:24Z</time>
      </trkpt>
      <trkpt lat="45.8714" lon="5.70874">
        <ele>252.1</ele>
        <time>2021-08-22T08:15:26Z</time>
      </trkpt>
      <trkpt lat="45.87138" lon="5.7088">
        <ele>252.1</ele>
        <time>2021-08-22T08:15:27Z</time>
      </trkpt>
      <trkpt lat="45.87134" lon="5.70887">
        <ele>252</ele>
        <time>2021-08-22T08:15:29Z</time>
      </trkpt>
      <trkpt lat="45.87131" lon="5.70901">
        <ele>251.8</ele>
        <time>2021-08-22T08:15:31Z</time>
      </trkpt>
      <trkpt lat="45.87127" lon="5.70916">
        <ele>251.6</ele>
        <time>2021-08-22T08:15:33Z</time>
      </trkpt>
      <trkpt lat="45.87123" lon="5.7093">
        <ele>251.3</ele>
        <time>2021-08-22T08:15:35Z</time>
      </trkpt>
      <trkpt lat="45.8712" lon="5.70938">
        <ele>251.1</ele>
        <time>2021-08-22T08:15:36Z</time>
      </trkpt>
      <trkpt lat="45.87117" lon="5.70946">
        <ele>250.9</ele>
        <time>2021-08-22T08:15:37Z</time>
      </trkpt>
      <trkpt lat="45.8711" lon="5.70962">
        <ele>250.5</ele>
        <time>2021-08-22T08:15:39Z</time>
      </trkpt>
      <trkpt lat="45.87105" lon="5.70971">
        <ele>250.2</ele>
        <time>2021-08-22T08:15:40Z</time>
      </trkpt>
      <trkpt lat="45.871" lon="5.70979">
        <ele>250</ele>
        <time>2021-08-22T08:15:41Z</time>
      </trkpt>
      <trkpt lat="45.8709" lon="5.70997">
        <ele>249.4</ele>
        <time>2021-08-22T08:15:43Z</time>
      </trkpt>
      <trkpt lat="45.87083" lon="5.71018">
        <ele>248.9</ele>
        <time>2021-08-22T08:15:45Z</time>
      </trkpt>
      <trkpt lat="45.87078" lon="5.7104">
        <ele>248.4</ele>
        <time>2021-08-22T08:15:47Z</time>
      </trkpt>
      <trkpt lat="45.87074" lon="5.71062">
        <ele>248.1</ele>
        <time>2021-08-22T08:15:49Z</time>
      </trkpt>
      <trkpt lat="45.87072" lon="5.71072">
        <ele>248</ele>
        <time>2021-08-22T08:15:50Z</time>
      </trkpt>
      <trkpt lat="45.87071" lon="5.71083">
        <ele>247.9</ele>
        <time>2021-08-22T08:15:51Z</time>
      </trkpt>
      <trkpt lat="45.8707" lon="5.71104">
        <ele>247.8</ele>
        <time>2021-08-22T08:15:53Z</time>
      </trkpt>
      <trkpt lat="45.87068" lon="5.71124">
        <ele>247.7</ele>
        <time>2021-08-22T08:15:55Z</time>
      </trkpt>
      <trkpt lat="45.87067" lon="5.71133">
        <ele>247.7</ele>
        <time>2021-08-22T08:15:56Z</time>
      </trkpt>
      <trkpt lat="45.87066" lon="5.71152">
        <ele>247.6</ele>
        <time>2021-08-22T08:15:58Z</time>
      </trkpt>
      <trkpt lat="45.87065" lon="5.71161">
        <ele>247.5</ele>
        <time>2021-08-22T08:15:59Z</time>
      </trkpt>
      <trkpt lat="45.87065" lon="5.71179">
        <ele>247.4</ele>
        <time>2021-08-22T08:16:01Z</time>
      </trkpt>
      <trkpt lat="45.87066" lon="5.71197">
        <ele>247.3</ele>
        <time>2021-08-22T08:16:03Z</time>
      </trkpt>
      <trkpt lat="45.87069" lon="5.71214">
        <ele>247.2</ele>
        <time>2021-08-22T08:16:05Z</time>
      </trkpt>
      <trkpt lat="45.87072" lon="5.7123">
        <ele>247.1</ele>
        <time>2021-08-22T08:16:07Z</time>
      </trkpt>
      <trkpt lat="45.87076" lon="5.71247">
        <ele>247</ele>
        <time>2021-08-22T08:16:09Z</time>
      </trkpt>
      <trkpt lat="45.87077" lon="5.71262">
        <ele>246.9</ele>
        <time>2021-08-22T08:16:11Z</time>
      </trkpt>
      <trkpt lat="45.87078" lon="5.71277">
        <ele>246.9</ele>
        <time>2021-08-22T08:16:13Z</time>
      </trkpt>
      <trkpt lat="45.87078" lon="5.71285">
        <ele>246.8</ele>
        <time>2021-08-22T08:16:14Z</time>
      </trkpt>
      <trkpt lat="45.87079" lon="5.713">
        <ele>246.7</ele>
        <time>2021-08-22T08:16:16Z</time>
      </trkpt>
      <trkpt lat="45.87079" lon="5.71307">
        <ele>246.7</ele>
        <time>2021-08-22T08:16:17Z</time>
      </trkpt>
      <trkpt lat="45.87079" lon="5.71323">
        <ele>246.6</ele>
        <time>2021-08-22T08:16:19Z</time>
      </trkpt>
      <trkpt lat="45.87079" lon="5.7133">
        <ele>246.5</ele>
        <time>2021-08-22T08:16:20Z</time>
      </trkpt>
      <trkpt lat="45.87079" lon="5.71337">
        <ele>246.4</ele>
        <time>2021-08-22T08:16:21Z</time>
      </trkpt>
      <trkpt lat="45.87079" lon="5.71343">
        <ele>246.4</ele>
        <time>2021-08-22T08:16:22Z</time>
      </trkpt>
      <trkpt lat="45.87078" lon="5.7135">
        <ele>246.3</ele>
        <time>2021-08-22T08:16:23Z</time>
      </trkpt>
      <trkpt lat="45.87077" lon="5.71365">
        <ele>246.2</ele>
        <time>2021-08-22T08:16:25Z</time>
      </trkpt>
      <trkpt lat="45.87076" lon="5.71371">
        <ele>246.1</ele>
        <time>2021-08-22T08:16:26Z</time>
      </trkpt>
      <trkpt lat="45.87074" lon="5.71382">
        <ele>246</ele>
        <time>2021-08-22T08:16:28Z</time>
      </trkpt>
      <trkpt lat="45.87073" lon="5.71389">
        <ele>245.9</ele>
        <time>2021-08-22T08:16:29Z</time>
      </trkpt>
      <trkpt lat="45.87072" lon="5.71396">
        <ele>245.8</ele>
        <time>2021-08-22T08:16:30Z</time>
      </trkpt>
      <trkpt lat="45.8707" lon="5.71402">
        <ele>245.7</ele>
        <time>2021-08-22T08:16:31Z</time>
      </trkpt>
      <trkpt lat="45.87069" lon="5.71408">
        <ele>245.6</ele>
        <time>2021-08-22T08:16:32Z</time>
      </trkpt>
      <trkpt lat="45.87068" lon="5.71415">
        <ele>245.5</ele>
        <time>2021-08-22T08:16:33Z</time>
      </trkpt>
      <trkpt lat="45.87065" lon="5.7143">
        <ele>245.2</ele>
        <time>2021-08-22T08:16:35Z</time>
      </trkpt>
      <trkpt lat="45.87063" lon="5.71438">
        <ele>245.1</ele>
        <time>2021-08-22T08:16:36Z</time>
      </trkpt>
      <trkpt lat="45.87059" lon="5.71454">
        <ele>244.7</ele>
        <time>2021-08-22T08:16:38Z</time>
      </trkpt>
      <trkpt lat="45.87057" lon="5.71462">
        <ele>244.6</ele>
        <time>2021-08-22T08:16:39Z</time>
      </trkpt>
      <trkpt lat="45.87051" lon="5.71478">
        <ele>244.2</ele>
        <time>2021-08-22T08:16:41Z</time>
      </trkpt>
      <trkpt lat="45.87047" lon="5.71487">
        <ele>244</ele>
        <time>2021-08-22T08:16:42Z</time>
      </trkpt>
      <trkpt lat="45.87041" lon="5.71506">
        <ele>243.7</ele>
        <time>2021-08-22T08:16:44Z</time>
      </trkpt>
      <trkpt lat="45.87036" lon="5.71525">
        <ele>243.4</ele>
        <time>2021-08-22T08:16:46Z</time>
      </trkpt>
      <trkpt lat="45.87033" lon="5.71534">
        <ele>243.3</ele>
        <time>2021-08-22T08:16:47Z</time>
      </trkpt>
      <trkpt lat="45.87027" lon="5.71553">
        <ele>243.1</ele>
        <time>2021-08-22T08:16:49Z</time>
      </trkpt>
      <trkpt lat="45.87021" lon="5.71569">
        <ele>243</ele>
        <time>2021-08-22T08:16:51Z</time>
      </trkpt>
      <trkpt lat="45.87015" lon="5.71586">
        <ele>243</ele>
        <time>2021-08-22T08:16:53Z</time>
      </trkpt>
      <trkpt lat="45.87011" lon="5.71594">
        <ele>243</ele>
        <time>2021-08-22T08:16:54Z</time>
      </trkpt>
      <trkpt lat="45.87008" lon="5.71603">
        <ele>243</ele>
        <time>2021-08-22T08:16:55Z</time>
      </trkpt>
      <trkpt lat="45.87002" lon="5.71619">
        <ele>243.1</ele>
        <time>2021-08-22T08:16:57Z</time>
      </trkpt>
      <trkpt lat="45.86998" lon="5.71635">
        <ele>243.2</ele>
        <time>2021-08-22T08:16:59Z</time>
      </trkpt>
      <trkpt lat="45.86995" lon="5.7165">
        <ele>243.3</ele>
        <time>2021-08-22T08:17:01Z</time>
      </trkpt>
      <trkpt lat="45.86993" lon="5.71657">
        <ele>243.3</ele>
        <time>2021-08-22T08:17:02Z</time>
      </trkpt>
      <trkpt lat="45.86987" lon="5.71672">
        <ele>243.5</ele>
        <time>2021-08-22T08:17:04Z</time>
      </trkpt>
      <trkpt lat="45.86984" lon="5.71679">
        <ele>243.5</ele>
        <time>2021-08-22T08:17:05Z</time>
      </trkpt>
      <trkpt lat="45.86981" lon="5.71692">
        <ele>243.7</ele>
        <time>2021-08-22T08:17:07Z</time>
      </trkpt>
      <trkpt lat="45.8698" lon="5.71698">
        <ele>243.8</ele>
        <time>2021-08-22T08:17:08Z</time>
      </trkpt>
      <trkpt lat="45.86976" lon="5.71709">
        <ele>243.9</ele>
        <time>2021-08-22T08:17:10Z</time>
      </trkpt>
      <trkpt lat="45.86973" lon="5.71717">
        <ele>244</ele>
        <time>2021-08-22T08:17:12Z</time>
      </trkpt>
      <trkpt lat="45.86972" lon="5.71722">
        <ele>244.1</ele>
        <time>2021-08-22T08:17:13Z</time>
      </trkpt>
      <trkpt lat="45.86971" lon="5.71725">
        <ele>244.1</ele>
        <time>2021-08-22T08:17:14Z</time>
      </trkpt>
      <trkpt lat="45.86969" lon="5.71727">
        <ele>244.2</ele>
        <time>2021-08-22T08:17:16Z</time>
      </trkpt>
      <trkpt lat="45.86968" lon="5.71732">
        <ele>244.2</ele>
        <time>2021-08-22T08:17:17Z</time>
      </trkpt>
      <trkpt lat="45.86967" lon="5.7174">
        <ele>244.3</ele>
        <time>2021-08-22T08:17:18Z</time>
      </trkpt>
      <trkpt lat="45.86965" lon="5.71749">
        <ele>244.4</ele>
        <time>2021-08-22T08:17:19Z</time>
      </trkpt>
      <trkpt lat="45.86963" lon="5.71753">
        <ele>244.5</ele>
        <time>2021-08-22T08:17:20Z</time>
      </trkpt>
      <trkpt lat="45.86963" lon="5.71756">
        <ele>244.5</ele>
        <time>2021-08-22T08:17:21Z</time>
      </trkpt>
      <trkpt lat="45.86961" lon="5.71759">
        <ele>244.5</ele>
        <time>2021-08-22T08:17:22Z</time>
      </trkpt>
      <trkpt lat="45.86954" lon="5.71768">
        <ele>244.6</ele>
        <time>2021-08-22T08:17:24Z</time>
      </trkpt>
      <trkpt lat="45.8695" lon="5.7177">
        <ele>244.7</ele>
        <time>2021-08-22T08:17:25Z</time>
      </trkpt>
      <trkpt lat="45.86947" lon="5.71774">
        <ele>244.7</ele>
        <time>2021-08-22T08:17:26Z</time>
      </trkpt>
      <trkpt lat="45.86942" lon="5.7178">
        <ele>244.8</ele>
        <time>2021-08-22T08:17:27Z</time>
      </trkpt>
      <trkpt lat="45.86934" lon="5.71793">
        <ele>244.9</ele>
        <time>2021-08-22T08:17:29Z</time>
      </trkpt>
      <trkpt lat="45.86931" lon="5.718">
        <ele>245</ele>
        <time>2021-08-22T08:17:30Z</time>
      </trkpt>
      <trkpt lat="45.86928" lon="5.71806">
        <ele>245.1</ele>
        <time>2021-08-22T08:17:31Z</time>
      </trkpt>
      <trkpt lat="45.86924" lon="5.71811">
        <ele>245.2</ele>
        <time>2021-08-22T08:17:32Z</time>
      </trkpt>
      <trkpt lat="45.8692" lon="5.71816">
        <ele>245.3</ele>
        <time>2021-08-22T08:17:34Z</time>
      </trkpt>
      <trkpt lat="45.86911" lon="5.71825">
        <ele>245.4</ele>
        <time>2021-08-22T08:17:35Z</time>
      </trkpt>
      <trkpt lat="45.86907" lon="5.71831">
        <ele>245.5</ele>
        <time>2021-08-22T08:17:36Z</time>
      </trkpt>
      <trkpt lat="45.86901" lon="5.71835">
        <ele>245.6</ele>
        <time>2021-08-22T08:17:37Z</time>
      </trkpt>
      <trkpt lat="45.86898" lon="5.71839">
        <ele>245.6</ele>
        <time>2021-08-22T08:17:38Z</time>
      </trkpt>
      <trkpt lat="45.86892" lon="5.71848">
        <ele>245.7</ele>
        <time>2021-08-22T08:17:40Z</time>
      </trkpt>
      <trkpt lat="45.86886" lon="5.71857">
        <ele>245.6</ele>
        <time>2021-08-22T08:17:42Z</time>
      </trkpt>
      <trkpt lat="45.86884" lon="5.7186">
        <ele>245.6</ele>
        <time>2021-08-22T08:17:43Z</time>
      </trkpt>
      <trkpt lat="45.86882" lon="5.71868">
        <ele>245.6</ele>
        <time>2021-08-22T08:17:45Z</time>
      </trkpt>
      <trkpt lat="45.86876" lon="5.71877">
        <ele>245.6</ele>
        <time>2021-08-22T08:17:47Z</time>
      </trkpt>
      <trkpt lat="45.86871" lon="5.71886">
        <ele>245.6</ele>
        <time>2021-08-22T08:17:49Z</time>
      </trkpt>
      <trkpt lat="45.86865" lon="5.71892">
        <ele>245.5</ele>
        <time>2021-08-22T08:17:50Z</time>
      </trkpt>
      <trkpt lat="45.8686" lon="5.71897">
        <ele>245.5</ele>
        <time>2021-08-22T08:17:51Z</time>
      </trkpt>
      <trkpt lat="45.86851" lon="5.71906">
        <ele>245.5</ele>
        <time>2021-08-22T08:17:53Z</time>
      </trkpt>
      <trkpt lat="45.86847" lon="5.7191">
        <ele>245.4</ele>
        <time>2021-08-22T08:17:54Z</time>
      </trkpt>
      <trkpt lat="45.86843" lon="5.71915">
        <ele>245.4</ele>
        <time>2021-08-22T08:17:55Z</time>
      </trkpt>
      <trkpt lat="45.86839" lon="5.71919">
        <ele>245.4</ele>
        <time>2021-08-22T08:17:56Z</time>
      </trkpt>
      <trkpt lat="45.86832" lon="5.71928">
        <ele>245.3</ele>
        <time>2021-08-22T08:17:58Z</time>
      </trkpt>
      <trkpt lat="45.86828" lon="5.71933">
        <ele>245.2</ele>
        <time>2021-08-22T08:17:59Z</time>
      </trkpt>
      <trkpt lat="45.86821" lon="5.71943">
        <ele>245.2</ele>
        <time>2021-08-22T08:18:01Z</time>
      </trkpt>
      <trkpt lat="45.86817" lon="5.71949">
        <ele>245.1</ele>
        <time>2021-08-22T08:18:02Z</time>
      </trkpt>
      <trkpt lat="45.8681" lon="5.71957">
        <ele>245</ele>
        <time>2021-08-22T08:18:04Z</time>
      </trkpt>
      <trkpt lat="45.86806" lon="5.71961">
        <ele>245</ele>
        <time>2021-08-22T08:18:05Z</time>
      </trkpt>
      <trkpt lat="45.86801" lon="5.71966">
        <ele>244.9</ele>
        <time>2021-08-22T08:18:06Z</time>
      </trkpt>
      <trkpt lat="45.86792" lon="5.71975">
        <ele>244.8</ele>
        <time>2021-08-22T08:18:08Z</time>
      </trkpt>
      <trkpt lat="45.86788" lon="5.71979">
        <ele>244.8</ele>
        <time>2021-08-22T08:18:09Z</time>
      </trkpt>
      <trkpt lat="45.86779" lon="5.71987">
        <ele>244.7</ele>
        <time>2021-08-22T08:18:11Z</time>
      </trkpt>
      <trkpt lat="45.8677" lon="5.71996">
        <ele>244.6</ele>
        <time>2021-08-22T08:18:13Z</time>
      </trkpt>
      <trkpt lat="45.86765" lon="5.71999">
        <ele>244.5</ele>
        <time>2021-08-22T08:18:14Z</time>
      </trkpt>
      <trkpt lat="45.86755" lon="5.72007">
        <ele>244.4</ele>
        <time>2021-08-22T08:18:16Z</time>
      </trkpt>
      <trkpt lat="45.86744" lon="5.72014">
        <ele>244.2</ele>
        <time>2021-08-22T08:18:18Z</time>
      </trkpt>
      <trkpt lat="45.8674" lon="5.72018">
        <ele>244.1</ele>
        <time>2021-08-22T08:18:19Z</time>
      </trkpt>
      <trkpt lat="45.86736" lon="5.72022">
        <ele>244</ele>
        <time>2021-08-22T08:18:20Z</time>
      </trkpt>
      <trkpt lat="45.86728" lon="5.72028">
        <ele>243.8</ele>
        <time>2021-08-22T08:18:22Z</time>
      </trkpt>
      <trkpt lat="45.8672" lon="5.72035">
        <ele>243.6</ele>
        <time>2021-08-22T08:18:24Z</time>
      </trkpt>
      <trkpt lat="45.86712" lon="5.72044">
        <ele>243.4</ele>
        <time>2021-08-22T08:18:26Z</time>
      </trkpt>
      <trkpt lat="45.86705" lon="5.72052">
        <ele>243.2</ele>
        <time>2021-08-22T08:18:28Z</time>
      </trkpt>
      <trkpt lat="45.86701" lon="5.72057">
        <ele>243.1</ele>
        <time>2021-08-22T08:18:29Z</time>
      </trkpt>
      <trkpt lat="45.86692" lon="5.72066">
        <ele>242.8</ele>
        <time>2021-08-22T08:18:31Z</time>
      </trkpt>
      <trkpt lat="45.86684" lon="5.72076">
        <ele>242.5</ele>
        <time>2021-08-22T08:18:33Z</time>
      </trkpt>
      <trkpt lat="45.86675" lon="5.72087">
        <ele>242.1</ele>
        <time>2021-08-22T08:18:35Z</time>
      </trkpt>
      <trkpt lat="45.86671" lon="5.72092">
        <ele>242</ele>
        <time>2021-08-22T08:18:36Z</time>
      </trkpt>
      <trkpt lat="45.86661" lon="5.72102">
        <ele>241.6</ele>
        <time>2021-08-22T08:18:38Z</time>
      </trkpt>
      <trkpt lat="45.86656" lon="5.72107">
        <ele>241.4</ele>
        <time>2021-08-22T08:18:39Z</time>
      </trkpt>
      <trkpt lat="45.86646" lon="5.72118">
        <ele>241.1</ele>
        <time>2021-08-22T08:18:41Z</time>
      </trkpt>
      <trkpt lat="45.86636" lon="5.7213">
        <ele>240.7</ele>
        <time>2021-08-22T08:18:43Z</time>
      </trkpt>
      <trkpt lat="45.86631" lon="5.72137">
        <ele>240.6</ele>
        <time>2021-08-22T08:18:44Z</time>
      </trkpt>
      <trkpt lat="45.8662" lon="5.7215">
        <ele>240.4</ele>
        <time>2021-08-22T08:18:46Z</time>
      </trkpt>
      <trkpt lat="45.86607" lon="5.72162">
        <ele>240.2</ele>
        <time>2021-08-22T08:18:48Z</time>
      </trkpt>
      <trkpt lat="45.86595" lon="5.72174">
        <ele>240</ele>
        <time>2021-08-22T08:18:50Z</time>
      </trkpt>
      <trkpt lat="45.86589" lon="5.7218">
        <ele>239.9</ele>
        <time>2021-08-22T08:18:51Z</time>
      </trkpt>
      <trkpt lat="45.86576" lon="5.72192">
        <ele>239.7</ele>
        <time>2021-08-22T08:18:53Z</time>
      </trkpt>
      <trkpt lat="45.86562" lon="5.72204">
        <ele>239.5</ele>
        <time>2021-08-22T08:18:55Z</time>
      </trkpt>
      <trkpt lat="45.86556" lon="5.7221">
        <ele>239.5</ele>
        <time>2021-08-22T08:18:56Z</time>
      </trkpt>
      <trkpt lat="45.86543" lon="5.72222">
        <ele>239.4</ele>
        <time>2021-08-22T08:18:58Z</time>
      </trkpt>
      <trkpt lat="45.86538" lon="5.72227">
        <ele>239.4</ele>
        <time>2021-08-22T08:18:59Z</time>
      </trkpt>
      <trkpt lat="45.86532" lon="5.72233">
        <ele>239.4</ele>
        <time>2021-08-22T08:19:00Z</time>
      </trkpt>
      <trkpt lat="45.8652" lon="5.72243">
        <ele>239.5</ele>
        <time>2021-08-22T08:19:02Z</time>
      </trkpt>
      <trkpt lat="45.86508" lon="5.72254">
        <ele>239.4</ele>
        <time>2021-08-22T08:19:04Z</time>
      </trkpt>
      <trkpt lat="45.86502" lon="5.72259">
        <ele>239.4</ele>
        <time>2021-08-22T08:19:05Z</time>
      </trkpt>
      <trkpt lat="45.86497" lon="5.72264">
        <ele>239.4</ele>
        <time>2021-08-22T08:19:06Z</time>
      </trkpt>
      <trkpt lat="45.86492" lon="5.7227">
        <ele>238.9</ele>
        <time>2021-08-22T08:19:07Z</time>
      </trkpt>
      <trkpt lat="45.86482" lon="5.7228">
        <ele>238.4</ele>
        <time>2021-08-22T08:19:09Z</time>
      </trkpt>
      <trkpt lat="45.86472" lon="5.72288">
        <ele>238.1</ele>
        <time>2021-08-22T08:19:11Z</time>
      </trkpt>
      <trkpt lat="45.86462" lon="5.72297">
        <ele>237.8</ele>
        <time>2021-08-22T08:19:13Z</time>
      </trkpt>
      <trkpt lat="45.86457" lon="5.72302">
        <ele>237.7</ele>
        <time>2021-08-22T08:19:14Z</time>
      </trkpt>
      <trkpt lat="45.86446" lon="5.72311">
        <ele>237.5</ele>
        <time>2021-08-22T08:19:16Z</time>
      </trkpt>
      <trkpt lat="45.8644" lon="5.72315">
        <ele>237.4</ele>
        <time>2021-08-22T08:19:17Z</time>
      </trkpt>
      <trkpt lat="45.86434" lon="5.7232">
        <ele>237.2</ele>
        <time>2021-08-22T08:19:18Z</time>
      </trkpt>
      <trkpt lat="45.86429" lon="5.72325">
        <ele>237.1</ele>
        <time>2021-08-22T08:19:19Z</time>
      </trkpt>
      <trkpt lat="45.86419" lon="5.72333">
        <ele>236.8</ele>
        <time>2021-08-22T08:19:21Z</time>
      </trkpt>
      <trkpt lat="45.86408" lon="5.72343">
        <ele>236.6</ele>
        <time>2021-08-22T08:19:23Z</time>
      </trkpt>
      <trkpt lat="45.86398" lon="5.72354">
        <ele>236.5</ele>
        <time>2021-08-22T08:19:25Z</time>
      </trkpt>
      <trkpt lat="45.86394" lon="5.7236">
        <ele>236.4</ele>
        <time>2021-08-22T08:19:26Z</time>
      </trkpt>
      <trkpt lat="45.86386" lon="5.72372">
        <ele>236.2</ele>
        <time>2021-08-22T08:19:28Z</time>
      </trkpt>
      <trkpt lat="45.86377" lon="5.72384">
        <ele>236</ele>
        <time>2021-08-22T08:19:30Z</time>
      </trkpt>
      <trkpt lat="45.86373" lon="5.72389">
        <ele>236</ele>
        <time>2021-08-22T08:19:31Z</time>
      </trkpt>
      <trkpt lat="45.86371" lon="5.72393">
        <ele>236.1</ele>
        <time>2021-08-22T08:19:32Z</time>
      </trkpt>
      <trkpt lat="45.86368" lon="5.72398">
        <ele>236.2</ele>
        <time>2021-08-22T08:19:33Z</time>
      </trkpt>
      <trkpt lat="45.8636" lon="5.72414">
        <ele>236.5</ele>
        <time>2021-08-22T08:19:35Z</time>
      </trkpt>
      <trkpt lat="45.86355" lon="5.72423">
        <ele>236.6</ele>
        <time>2021-08-22T08:19:36Z</time>
      </trkpt>
      <trkpt lat="45.8635" lon="5.72438">
        <ele>236.9</ele>
        <time>2021-08-22T08:19:38Z</time>
      </trkpt>
      <trkpt lat="45.86348" lon="5.72445">
        <ele>237</ele>
        <time>2021-08-22T08:19:39Z</time>
      </trkpt>
      <trkpt lat="45.86344" lon="5.72461">
        <ele>237.2</ele>
        <time>2021-08-22T08:19:41Z</time>
      </trkpt>
      <trkpt lat="45.86343" lon="5.72469">
        <ele>237.4</ele>
        <time>2021-08-22T08:19:42Z</time>
      </trkpt>
      <trkpt lat="45.86343" lon="5.72478">
        <ele>237.5</ele>
        <time>2021-08-22T08:19:43Z</time>
      </trkpt>
      <trkpt lat="45.86342" lon="5.72495">
        <ele>237.9</ele>
        <time>2021-08-22T08:19:45Z</time>
      </trkpt>
      <trkpt lat="45.86341" lon="5.7251">
        <ele>238.1</ele>
        <time>2021-08-22T08:19:47Z</time>
      </trkpt>
      <trkpt lat="45.8634" lon="5.72525">
        <ele>238.8</ele>
        <time>2021-08-22T08:19:49Z</time>
      </trkpt>
      <trkpt lat="45.86339" lon="5.72533">
        <ele>238.8</ele>
        <time>2021-08-22T08:19:50Z</time>
      </trkpt>
      <trkpt lat="45.86336" lon="5.72551">
        <ele>238.8</ele>
        <time>2021-08-22T08:19:52Z</time>
      </trkpt>
      <trkpt lat="45.86335" lon="5.7256">
        <ele>238.8</ele>
        <time>2021-08-22T08:19:53Z</time>
      </trkpt>
      <trkpt lat="45.86334" lon="5.72568">
        <ele>238.9</ele>
        <time>2021-08-22T08:19:54Z</time>
      </trkpt>
      <trkpt lat="45.86331" lon="5.72583">
        <ele>238.9</ele>
        <time>2021-08-22T08:19:56Z</time>
      </trkpt>
      <trkpt lat="45.86331" lon="5.72599">
        <ele>239</ele>
        <time>2021-08-22T08:19:58Z</time>
      </trkpt>
      <trkpt lat="45.86331" lon="5.72608">
        <ele>239.1</ele>
        <time>2021-08-22T08:19:59Z</time>
      </trkpt>
      <trkpt lat="45.86331" lon="5.72616">
        <ele>239.1</ele>
        <time>2021-08-22T08:20:00Z</time>
      </trkpt>
      <trkpt lat="45.86331" lon="5.72632">
        <ele>239.1</ele>
        <time>2021-08-22T08:20:02Z</time>
      </trkpt>
      <trkpt lat="45.86331" lon="5.72639">
        <ele>239.2</ele>
        <time>2021-08-22T08:20:03Z</time>
      </trkpt>
      <trkpt lat="45.8633" lon="5.72652">
        <ele>239.2</ele>
        <time>2021-08-22T08:20:05Z</time>
      </trkpt>
      <trkpt lat="45.8633" lon="5.7266">
        <ele>239.2</ele>
        <time>2021-08-22T08:20:06Z</time>
      </trkpt>
      <trkpt lat="45.86331" lon="5.72674">
        <ele>239.2</ele>
        <time>2021-08-22T08:20:08Z</time>
      </trkpt>
      <trkpt lat="45.86332" lon="5.7268">
        <ele>239.3</ele>
        <time>2021-08-22T08:20:09Z</time>
      </trkpt>
      <trkpt lat="45.86335" lon="5.7269">
        <ele>239.3</ele>
        <time>2021-08-22T08:20:11Z</time>
      </trkpt>
      <trkpt lat="45.86337" lon="5.72696">
        <ele>239.3</ele>
        <time>2021-08-22T08:20:12Z</time>
      </trkpt>
      <trkpt lat="45.86339" lon="5.72707">
        <ele>239.4</ele>
        <time>2021-08-22T08:20:14Z</time>
      </trkpt>
      <trkpt lat="45.86338" lon="5.7272">
        <ele>239.5</ele>
        <time>2021-08-22T08:20:16Z</time>
      </trkpt>
      <trkpt lat="45.86336" lon="5.72735">
        <ele>239.6</ele>
        <time>2021-08-22T08:20:18Z</time>
      </trkpt>
      <trkpt lat="45.86337" lon="5.72749">
        <ele>239.7</ele>
        <time>2021-08-22T08:20:20Z</time>
      </trkpt>
      <trkpt lat="45.86334" lon="5.72753">
        <ele>239.8</ele>
        <time>2021-08-22T08:20:22Z</time>
      </trkpt>
      <trkpt lat="45.86333" lon="5.72759">
        <ele>239.9</ele>
        <time>2021-08-22T08:20:23Z</time>
      </trkpt>
      <trkpt lat="45.86337" lon="5.7277">
        <ele>240</ele>
        <time>2021-08-22T08:20:25Z</time>
      </trkpt>
      <trkpt lat="45.86339" lon="5.72781">
        <ele>240.1</ele>
        <time>2021-08-22T08:20:26Z</time>
      </trkpt>
      <trkpt lat="45.86339" lon="5.72788">
        <ele>240.2</ele>
        <time>2021-08-22T08:20:27Z</time>
      </trkpt>
      <trkpt lat="45.86339" lon="5.72795">
        <ele>240.3</ele>
        <time>2021-08-22T08:20:29Z</time>
      </trkpt>
      <trkpt lat="45.86339" lon="5.72801">
        <ele>240.3</ele>
        <time>2021-08-22T08:20:30Z</time>
      </trkpt>
      <trkpt lat="45.86339" lon="5.72807">
        <ele>240.4</ele>
        <time>2021-08-22T08:20:31Z</time>
      </trkpt>
      <trkpt lat="45.86338" lon="5.72816">
        <ele>240.5</ele>
        <time>2021-08-22T08:20:32Z</time>
      </trkpt>
      <trkpt lat="45.8634" lon="5.72824">
        <ele>240.5</ele>
        <time>2021-08-22T08:20:34Z</time>
      </trkpt>
      <trkpt lat="45.86341" lon="5.72829">
        <ele>240.6</ele>
        <time>2021-08-22T08:20:35Z</time>
      </trkpt>
      <trkpt lat="45.86343" lon="5.72834">
        <ele>240.6</ele>
        <time>2021-08-22T08:20:36Z</time>
      </trkpt>
      <trkpt lat="45.86344" lon="5.72845">
        <ele>240.7</ele>
        <time>2021-08-22T08:20:37Z</time>
      </trkpt>
      <trkpt lat="45.86345" lon="5.72852">
        <ele>240.8</ele>
        <time>2021-08-22T08:20:39Z</time>
      </trkpt>
      <trkpt lat="45.86347" lon="5.72862">
        <ele>240.8</ele>
        <time>2021-08-22T08:20:40Z</time>
      </trkpt>
      <trkpt lat="45.86349" lon="5.72874">
        <ele>240.9</ele>
        <time>2021-08-22T08:20:42Z</time>
      </trkpt>
      <trkpt lat="45.8635" lon="5.72883">
        <ele>241</ele>
        <time>2021-08-22T08:20:43Z</time>
      </trkpt>
      <trkpt lat="45.86351" lon="5.72889">
        <ele>241</ele>
        <time>2021-08-22T08:20:45Z</time>
      </trkpt>
      <trkpt lat="45.86351" lon="5.72894">
        <ele>241</ele>
        <time>2021-08-22T08:20:46Z</time>
      </trkpt>
      <trkpt lat="45.86351" lon="5.72904">
        <ele>241.1</ele>
        <time>2021-08-22T08:20:47Z</time>
      </trkpt>
      <trkpt lat="45.86351" lon="5.72913">
        <ele>241.1</ele>
        <time>2021-08-22T08:20:49Z</time>
      </trkpt>
      <trkpt lat="45.86351" lon="5.72922">
        <ele>241.2</ele>
        <time>2021-08-22T08:20:50Z</time>
      </trkpt>
      <trkpt lat="45.86352" lon="5.72929">
        <ele>241.2</ele>
        <time>2021-08-22T08:20:51Z</time>
      </trkpt>
      <trkpt lat="45.86351" lon="5.72934">
        <ele>241.2</ele>
        <time>2021-08-22T08:20:52Z</time>
      </trkpt>
      <trkpt lat="45.8635" lon="5.72941">
        <ele>241.2</ele>
        <time>2021-08-22T08:20:53Z</time>
      </trkpt>
      <trkpt lat="45.8635" lon="5.72951">
        <ele>241.3</ele>
        <time>2021-08-22T08:20:55Z</time>
      </trkpt>
      <trkpt lat="45.86352" lon="5.72965">
        <ele>241.3</ele>
        <time>2021-08-22T08:20:57Z</time>
      </trkpt>
      <trkpt lat="45.86354" lon="5.72971">
        <ele>241.3</ele>
        <time>2021-08-22T08:20:58Z</time>
      </trkpt>
      <trkpt lat="45.86355" lon="5.72977">
        <ele>241.3</ele>
        <time>2021-08-22T08:20:59Z</time>
      </trkpt>
      <trkpt lat="45.86357" lon="5.72987">
        <ele>241.3</ele>
        <time>2021-08-22T08:21:00Z</time>
      </trkpt>
      <trkpt lat="45.86359" lon="5.72995">
        <ele>241.3</ele>
        <time>2021-08-22T08:21:02Z</time>
      </trkpt>
      <trkpt lat="45.8636" lon="5.73004">
        <ele>241.3</ele>
        <time>2021-08-22T08:21:03Z</time>
      </trkpt>
      <trkpt lat="45.86361" lon="5.73014">
        <ele>241.3</ele>
        <time>2021-08-22T08:21:05Z</time>
      </trkpt>
      <trkpt lat="45.86362" lon="5.73018">
        <ele>241.3</ele>
        <time>2021-08-22T08:21:06Z</time>
      </trkpt>
      <trkpt lat="45.86362" lon="5.73032">
        <ele>241.3</ele>
        <time>2021-08-22T08:21:08Z</time>
      </trkpt>
      <trkpt lat="45.86364" lon="5.73033">
        <ele>241.3</ele>
        <time>2021-08-22T08:21:09Z</time>
      </trkpt>
      <trkpt lat="45.86361" lon="5.73044">
        <ele>241.3</ele>
        <time>2021-08-22T08:21:11Z</time>
      </trkpt>
      <trkpt lat="45.86362" lon="5.7306">
        <ele>241.3</ele>
        <time>2021-08-22T08:21:13Z</time>
      </trkpt>
      <trkpt lat="45.86362" lon="5.73069">
        <ele>241.2</ele>
        <time>2021-08-22T08:21:14Z</time>
      </trkpt>
      <trkpt lat="45.86361" lon="5.73078">
        <ele>241.2</ele>
        <time>2021-08-22T08:21:15Z</time>
      </trkpt>
      <trkpt lat="45.86361" lon="5.73086">
        <ele>241.1</ele>
        <time>2021-08-22T08:21:16Z</time>
      </trkpt>
      <trkpt lat="45.86361" lon="5.73093">
        <ele>241.1</ele>
        <time>2021-08-22T08:21:17Z</time>
      </trkpt>
      <trkpt lat="45.8636" lon="5.73108">
        <ele>241</ele>
        <time>2021-08-22T08:21:19Z</time>
      </trkpt>
      <trkpt lat="45.86358" lon="5.73113">
        <ele>240.9</ele>
        <time>2021-08-22T08:21:20Z</time>
      </trkpt>
      <trkpt lat="45.86358" lon="5.7312">
        <ele>240.9</ele>
        <time>2021-08-22T08:21:21Z</time>
      </trkpt>
      <trkpt lat="45.86357" lon="5.73135">
        <ele>240.8</ele>
        <time>2021-08-22T08:21:23Z</time>
      </trkpt>
      <trkpt lat="45.86355" lon="5.73152">
        <ele>240.6</ele>
        <time>2021-08-22T08:21:25Z</time>
      </trkpt>
      <trkpt lat="45.86354" lon="5.7316">
        <ele>240.5</ele>
        <time>2021-08-22T08:21:26Z</time>
      </trkpt>
      <trkpt lat="45.8635" lon="5.73174">
        <ele>240.3</ele>
        <time>2021-08-22T08:21:28Z</time>
      </trkpt>
      <trkpt lat="45.86346" lon="5.7319">
        <ele>240.1</ele>
        <time>2021-08-22T08:21:30Z</time>
      </trkpt>
      <trkpt lat="45.86343" lon="5.73197">
        <ele>240</ele>
        <time>2021-08-22T08:21:31Z</time>
      </trkpt>
      <trkpt lat="45.8634" lon="5.73206">
        <ele>239.9</ele>
        <time>2021-08-22T08:21:32Z</time>
      </trkpt>
      <trkpt lat="45.86338" lon="5.73214">
        <ele>239.8</ele>
        <time>2021-08-22T08:21:33Z</time>
      </trkpt>
      <trkpt lat="45.8633" lon="5.73229">
        <ele>239.6</ele>
        <time>2021-08-22T08:21:35Z</time>
      </trkpt>
      <trkpt lat="45.86321" lon="5.73245">
        <ele>239.3</ele>
        <time>2021-08-22T08:21:37Z</time>
      </trkpt>
      <trkpt lat="45.86317" lon="5.73252">
        <ele>239.2</ele>
        <time>2021-08-22T08:21:38Z</time>
      </trkpt>
      <trkpt lat="45.86307" lon="5.73265">
        <ele>239.1</ele>
        <time>2021-08-22T08:21:40Z</time>
      </trkpt>
      <trkpt lat="45.86303" lon="5.73272">
        <ele>239.1</ele>
        <time>2021-08-22T08:21:41Z</time>
      </trkpt>
      <trkpt lat="45.86294" lon="5.73288">
        <ele>239</ele>
        <time>2021-08-22T08:21:43Z</time>
      </trkpt>
      <trkpt lat="45.86286" lon="5.73302">
        <ele>238.9</ele>
        <time>2021-08-22T08:21:45Z</time>
      </trkpt>
      <trkpt lat="45.86283" lon="5.73308">
        <ele>238.9</ele>
        <time>2021-08-22T08:21:46Z</time>
      </trkpt>
      <trkpt lat="45.86277" lon="5.73322">
        <ele>238.8</ele>
        <time>2021-08-22T08:21:48Z</time>
      </trkpt>
      <trkpt lat="45.86275" lon="5.73329">
        <ele>238.8</ele>
        <time>2021-08-22T08:21:49Z</time>
      </trkpt>
      <trkpt lat="45.86271" lon="5.73343">
        <ele>238.8</ele>
        <time>2021-08-22T08:21:51Z</time>
      </trkpt>
      <trkpt lat="45.86269" lon="5.7335">
        <ele>238.7</ele>
        <time>2021-08-22T08:21:52Z</time>
      </trkpt>
      <trkpt lat="45.86267" lon="5.73357">
        <ele>238.7</ele>
        <time>2021-08-22T08:21:53Z</time>
      </trkpt>
      <trkpt lat="45.86265" lon="5.73365">
        <ele>238.7</ele>
        <time>2021-08-22T08:21:54Z</time>
      </trkpt>
      <trkpt lat="45.86261" lon="5.73381">
        <ele>238.7</ele>
        <time>2021-08-22T08:21:56Z</time>
      </trkpt>
      <trkpt lat="45.86258" lon="5.73388">
        <ele>238.7</ele>
        <time>2021-08-22T08:21:57Z</time>
      </trkpt>
      <trkpt lat="45.86251" lon="5.73403">
        <ele>238.7</ele>
        <time>2021-08-22T08:21:59Z</time>
      </trkpt>
      <trkpt lat="45.86247" lon="5.73411">
        <ele>238.7</ele>
        <time>2021-08-22T08:22:00Z</time>
      </trkpt>
      <trkpt lat="45.8624" lon="5.73425">
        <ele>238.7</ele>
        <time>2021-08-22T08:22:02Z</time>
      </trkpt>
      <trkpt lat="45.86237" lon="5.73432">
        <ele>238.6</ele>
        <time>2021-08-22T08:22:03Z</time>
      </trkpt>
      <trkpt lat="45.86234" lon="5.73439">
        <ele>238.6</ele>
        <time>2021-08-22T08:22:04Z</time>
      </trkpt>
      <trkpt lat="45.8623" lon="5.73446">
        <ele>238.6</ele>
        <time>2021-08-22T08:22:05Z</time>
      </trkpt>
      <trkpt lat="45.86223" lon="5.7346">
        <ele>238.5</ele>
        <time>2021-08-22T08:22:07Z</time>
      </trkpt>
      <trkpt lat="45.86216" lon="5.73474">
        <ele>238.5</ele>
        <time>2021-08-22T08:22:09Z</time>
      </trkpt>
      <trkpt lat="45.8621" lon="5.73489">
        <ele>238.5</ele>
        <time>2021-08-22T08:22:11Z</time>
      </trkpt>
      <trkpt lat="45.86205" lon="5.73505">
        <ele>238.5</ele>
        <time>2021-08-22T08:22:13Z</time>
      </trkpt>
      <trkpt lat="45.86203" lon="5.73512">
        <ele>238.5</ele>
        <time>2021-08-22T08:22:14Z</time>
      </trkpt>
      <trkpt lat="45.86199" lon="5.73525">
        <ele>238.6</ele>
        <time>2021-08-22T08:22:16Z</time>
      </trkpt>
      <trkpt lat="45.86197" lon="5.73532">
        <ele>238.6</ele>
        <time>2021-08-22T08:22:17Z</time>
      </trkpt>
      <trkpt lat="45.86194" lon="5.73539">
        <ele>238.6</ele>
        <time>2021-08-22T08:22:18Z</time>
      </trkpt>
      <trkpt lat="45.86192" lon="5.73545">
        <ele>238.6</ele>
        <time>2021-08-22T08:22:19Z</time>
      </trkpt>
      <trkpt lat="45.8619" lon="5.73557">
        <ele>238.6</ele>
        <time>2021-08-22T08:22:21Z</time>
      </trkpt>
      <trkpt lat="45.86189" lon="5.73564">
        <ele>238.6</ele>
        <time>2021-08-22T08:22:22Z</time>
      </trkpt>
      <trkpt lat="45.86189" lon="5.73571">
        <ele>238.6</ele>
        <time>2021-08-22T08:22:23Z</time>
      </trkpt>
      <trkpt lat="45.8619" lon="5.73583">
        <ele>238.6</ele>
        <time>2021-08-22T08:22:25Z</time>
      </trkpt>
      <trkpt lat="45.86189" lon="5.7359">
        <ele>238.7</ele>
        <time>2021-08-22T08:22:26Z</time>
      </trkpt>
      <trkpt lat="45.86187" lon="5.73604">
        <ele>238.8</ele>
        <time>2021-08-22T08:22:28Z</time>
      </trkpt>
      <trkpt lat="45.86187" lon="5.73609">
        <ele>238.8</ele>
        <time>2021-08-22T08:22:29Z</time>
      </trkpt>
      <trkpt lat="45.86186" lon="5.73615">
        <ele>238.8</ele>
        <time>2021-08-22T08:22:30Z</time>
      </trkpt>
      <trkpt lat="45.86182" lon="5.7362">
        <ele>238.8</ele>
        <time>2021-08-22T08:22:31Z</time>
      </trkpt>
      <trkpt lat="45.86182" lon="5.73632">
        <ele>238.9</ele>
        <time>2021-08-22T08:22:33Z</time>
      </trkpt>
      <trkpt lat="45.8618" lon="5.73646">
        <ele>238.9</ele>
        <time>2021-08-22T08:22:35Z</time>
      </trkpt>
      <trkpt lat="45.86178" lon="5.73651">
        <ele>239</ele>
        <time>2021-08-22T08:22:36Z</time>
      </trkpt>
      <trkpt lat="45.86173" lon="5.73666">
        <ele>239</ele>
        <time>2021-08-22T08:22:38Z</time>
      </trkpt>
      <trkpt lat="45.86171" lon="5.73672">
        <ele>239</ele>
        <time>2021-08-22T08:22:39Z</time>
      </trkpt>
      <trkpt lat="45.86169" lon="5.73677">
        <ele>239.1</ele>
        <time>2021-08-22T08:22:40Z</time>
      </trkpt>
      <trkpt lat="45.86163" lon="5.73689">
        <ele>239.1</ele>
        <time>2021-08-22T08:22:42Z</time>
      </trkpt>
      <trkpt lat="45.8616" lon="5.73696">
        <ele>239.1</ele>
        <time>2021-08-22T08:22:43Z</time>
      </trkpt>
      <trkpt lat="45.86158" lon="5.73703">
        <ele>239.1</ele>
        <time>2021-08-22T08:22:44Z</time>
      </trkpt>
      <trkpt lat="45.86154" lon="5.73717">
        <ele>239.2</ele>
        <time>2021-08-22T08:22:46Z</time>
      </trkpt>
      <trkpt lat="45.86152" lon="5.73723">
        <ele>239.2</ele>
        <time>2021-08-22T08:22:47Z</time>
      </trkpt>
      <trkpt lat="45.8615" lon="5.73729">
        <ele>239.2</ele>
        <time>2021-08-22T08:22:48Z</time>
      </trkpt>
      <trkpt lat="45.86151" lon="5.73737">
        <ele>239.2</ele>
        <time>2021-08-22T08:22:49Z</time>
      </trkpt>
      <trkpt lat="45.86148" lon="5.73748">
        <ele>239.2</ele>
        <time>2021-08-22T08:22:51Z</time>
      </trkpt>
      <trkpt lat="45.86146" lon="5.73755">
        <ele>239.2</ele>
        <time>2021-08-22T08:22:52Z</time>
      </trkpt>
      <trkpt lat="45.86145" lon="5.73762">
        <ele>239.2</ele>
        <time>2021-08-22T08:22:53Z</time>
      </trkpt>
      <trkpt lat="45.8614" lon="5.73776">
        <ele>239.2</ele>
        <time>2021-08-22T08:22:55Z</time>
      </trkpt>
      <trkpt lat="45.86138" lon="5.73783">
        <ele>239.2</ele>
        <time>2021-08-22T08:22:56Z</time>
      </trkpt>
      <trkpt lat="45.86132" lon="5.73796">
        <ele>239.2</ele>
        <time>2021-08-22T08:22:58Z</time>
      </trkpt>
      <trkpt lat="45.86125" lon="5.73808">
        <ele>239.2</ele>
        <time>2021-08-22T08:23:00Z</time>
      </trkpt>
      <trkpt lat="45.86123" lon="5.73815">
        <ele>239.2</ele>
        <time>2021-08-22T08:23:01Z</time>
      </trkpt>
      <trkpt lat="45.86121" lon="5.73821">
        <ele>239.2</ele>
        <time>2021-08-22T08:23:02Z</time>
      </trkpt>
      <trkpt lat="45.86119" lon="5.73833">
        <ele>239.2</ele>
        <time>2021-08-22T08:23:04Z</time>
      </trkpt>
      <trkpt lat="45.86116" lon="5.73841">
        <ele>239.2</ele>
        <time>2021-08-22T08:23:05Z</time>
      </trkpt>
      <trkpt lat="45.86111" lon="5.73853">
        <ele>239.2</ele>
        <time>2021-08-22T08:23:07Z</time>
      </trkpt>
      <trkpt lat="45.86109" lon="5.7386">
        <ele>239.1</ele>
        <time>2021-08-22T08:23:08Z</time>
      </trkpt>
      <trkpt lat="45.86107" lon="5.73867">
        <ele>239.1</ele>
        <time>2021-08-22T08:23:09Z</time>
      </trkpt>
      <trkpt lat="45.86103" lon="5.73881">
        <ele>239.2</ele>
        <time>2021-08-22T08:23:11Z</time>
      </trkpt>
      <trkpt lat="45.861" lon="5.73888">
        <ele>239.2</ele>
        <time>2021-08-22T08:23:12Z</time>
      </trkpt>
      <trkpt lat="45.86097" lon="5.73895">
        <ele>239.3</ele>
        <time>2021-08-22T08:23:13Z</time>
      </trkpt>
      <trkpt lat="45.86093" lon="5.73901">
        <ele>239.4</ele>
        <time>2021-08-22T08:23:14Z</time>
      </trkpt>
      <trkpt lat="45.86089" lon="5.73913">
        <ele>239.5</ele>
        <time>2021-08-22T08:23:16Z</time>
      </trkpt>
      <trkpt lat="45.86087" lon="5.73919">
        <ele>239.5</ele>
        <time>2021-08-22T08:23:17Z</time>
      </trkpt>
      <trkpt lat="45.86085" lon="5.73925">
        <ele>239.6</ele>
        <time>2021-08-22T08:23:18Z</time>
      </trkpt>
      <trkpt lat="45.86081" lon="5.73939">
        <ele>239.8</ele>
        <time>2021-08-22T08:23:20Z</time>
      </trkpt>
      <trkpt lat="45.86079" lon="5.73946">
        <ele>239.8</ele>
        <time>2021-08-22T08:23:21Z</time>
      </trkpt>
      <trkpt lat="45.86075" lon="5.73959">
        <ele>240</ele>
        <time>2021-08-22T08:23:23Z</time>
      </trkpt>
      <trkpt lat="45.86074" lon="5.73965">
        <ele>240</ele>
        <time>2021-08-22T08:23:24Z</time>
      </trkpt>
      <trkpt lat="45.8607" lon="5.73976">
        <ele>240.1</ele>
        <time>2021-08-22T08:23:26Z</time>
      </trkpt>
      <trkpt lat="45.86064" lon="5.73985">
        <ele>240.2</ele>
        <time>2021-08-22T08:23:28Z</time>
      </trkpt>
      <trkpt lat="45.8606" lon="5.73991">
        <ele>240.3</ele>
        <time>2021-08-22T08:23:29Z</time>
      </trkpt>
      <trkpt lat="45.86057" lon="5.73997">
        <ele>240.3</ele>
        <time>2021-08-22T08:23:31Z</time>
      </trkpt>
      <trkpt lat="45.8605" lon="5.74007">
        <ele>240.3</ele>
        <time>2021-08-22T08:23:33Z</time>
      </trkpt>
      <trkpt lat="45.86046" lon="5.7401">
        <ele>240.3</ele>
        <time>2021-08-22T08:23:34Z</time>
      </trkpt>
      <trkpt lat="45.86043" lon="5.74013">
        <ele>240.4</ele>
        <time>2021-08-22T08:23:35Z</time>
      </trkpt>
      <trkpt lat="45.8604" lon="5.74024">
        <ele>240.4</ele>
        <time>2021-08-22T08:23:37Z</time>
      </trkpt>
      <trkpt lat="45.86034" lon="5.74033">
        <ele>240.4</ele>
        <time>2021-08-22T08:23:38Z</time>
      </trkpt>
      <trkpt lat="45.86028" lon="5.7404">
        <ele>240.4</ele>
        <time>2021-08-22T08:23:40Z</time>
      </trkpt>
      <trkpt lat="45.86023" lon="5.7405">
        <ele>240.4</ele>
        <time>2021-08-22T08:23:42Z</time>
      </trkpt>
      <trkpt lat="45.86019" lon="5.74055">
        <ele>240.5</ele>
        <time>2021-08-22T08:23:43Z</time>
      </trkpt>
      <trkpt lat="45.86013" lon="5.74064">
        <ele>240.5</ele>
        <time>2021-08-22T08:23:45Z</time>
      </trkpt>
      <trkpt lat="45.8601" lon="5.74069">
        <ele>240.5</ele>
        <time>2021-08-22T08:23:46Z</time>
      </trkpt>
      <trkpt lat="45.86005" lon="5.74073">
        <ele>240.5</ele>
        <time>2021-08-22T08:23:47Z</time>
      </trkpt>
      <trkpt lat="45.86002" lon="5.74072">
        <ele>240.5</ele>
        <time>2021-08-22T08:23:49Z</time>
      </trkpt>
      <trkpt lat="45.85999" lon="5.74077">
        <ele>240.5</ele>
        <time>2021-08-22T08:23:50Z</time>
      </trkpt>
      <trkpt lat="45.85993" lon="5.74096">
        <ele>240.7</ele>
        <time>2021-08-22T08:23:52Z</time>
      </trkpt>
      <trkpt lat="45.8599" lon="5.74101">
        <ele>240.7</ele>
        <time>2021-08-22T08:23:53Z</time>
      </trkpt>
      <trkpt lat="45.85989" lon="5.74105">
        <ele>240.8</ele>
        <time>2021-08-22T08:23:54Z</time>
      </trkpt>
      <trkpt lat="45.85987" lon="5.74108">
        <ele>240.8</ele>
        <time>2021-08-22T08:23:55Z</time>
      </trkpt>
      <trkpt lat="45.85982" lon="5.74115">
        <ele>241</ele>
        <time>2021-08-22T08:23:56Z</time>
      </trkpt>
      <trkpt lat="45.85979" lon="5.74119">
        <ele>241.1</ele>
        <time>2021-08-22T08:23:58Z</time>
      </trkpt>
      <trkpt lat="45.85973" lon="5.74125">
        <ele>241.3</ele>
        <time>2021-08-22T08:23:59Z</time>
      </trkpt>
      <trkpt lat="45.85968" lon="5.74127">
        <ele>241.5</ele>
        <time>2021-08-22T08:24:01Z</time>
      </trkpt>
      <trkpt lat="45.85963" lon="5.7413">
        <ele>241.6</ele>
        <time>2021-08-22T08:24:02Z</time>
      </trkpt>
      <trkpt lat="45.85955" lon="5.74133">
        <ele>241.9</ele>
        <time>2021-08-22T08:24:03Z</time>
      </trkpt>
      <trkpt lat="45.85947" lon="5.74134">
        <ele>242.3</ele>
        <time>2021-08-22T08:24:05Z</time>
      </trkpt>
      <trkpt lat="45.8594" lon="5.74135">
        <ele>242.6</ele>
        <time>2021-08-22T08:24:07Z</time>
      </trkpt>
      <trkpt lat="45.8593" lon="5.74135">
        <ele>243</ele>
        <time>2021-08-22T08:24:09Z</time>
      </trkpt>
      <trkpt lat="45.85924" lon="5.74135">
        <ele>243.1</ele>
        <time>2021-08-22T08:24:10Z</time>
      </trkpt>
      <trkpt lat="45.85919" lon="5.74135">
        <ele>243.3</ele>
        <time>2021-08-22T08:24:12Z</time>
      </trkpt>
      <trkpt lat="45.85915" lon="5.74135">
        <ele>243.4</ele>
        <time>2021-08-22T08:24:13Z</time>
      </trkpt>
      <trkpt lat="45.85912" lon="5.74135">
        <ele>243.6</ele>
        <time>2021-08-22T08:24:14Z</time>
      </trkpt>
      <trkpt lat="45.85907" lon="5.74134">
        <ele>243.7</ele>
        <time>2021-08-22T08:24:16Z</time>
      </trkpt>
      <trkpt lat="45.85906" lon="5.74135">
        <ele>243.8</ele>
        <time>2021-08-22T08:24:17Z</time>
      </trkpt>
      <trkpt lat="45.85904" lon="5.74135">
        <ele>243.9</ele>
        <time>2021-08-22T08:24:18Z</time>
      </trkpt>
      <trkpt lat="45.85901" lon="5.74137">
        <ele>244</ele>
        <time>2021-08-22T08:24:19Z</time>
      </trkpt>
      <trkpt lat="45.85896" lon="5.74139">
        <ele>244.2</ele>
        <time>2021-08-22T08:24:21Z</time>
      </trkpt>
      <trkpt lat="45.85895" lon="5.7414">
        <ele>244.3</ele>
        <time>2021-08-22T08:24:22Z</time>
      </trkpt>
      <trkpt lat="45.85894" lon="5.74141">
        <ele>244.3</ele>
        <time>2021-08-22T08:24:23Z</time>
      </trkpt>
      <trkpt lat="45.85889" lon="5.74146">
        <ele>244.6</ele>
        <time>2021-08-22T08:24:24Z</time>
      </trkpt>
      <trkpt lat="45.85885" lon="5.74149">
        <ele>244.8</ele>
        <time>2021-08-22T08:24:26Z</time>
      </trkpt>
      <trkpt lat="45.85882" lon="5.7415">
        <ele>244.9</ele>
        <time>2021-08-22T08:24:27Z</time>
      </trkpt>
      <trkpt lat="45.8588" lon="5.74151">
        <ele>245</ele>
        <time>2021-08-22T08:24:28Z</time>
      </trkpt>
      <trkpt lat="45.85876" lon="5.74153">
        <ele>245.1</ele>
        <time>2021-08-22T08:24:30Z</time>
      </trkpt>
      <trkpt lat="45.85873" lon="5.74157">
        <ele>245.3</ele>
        <time>2021-08-22T08:24:31Z</time>
      </trkpt>
      <trkpt lat="45.8587" lon="5.7416">
        <ele>245.4</ele>
        <time>2021-08-22T08:24:32Z</time>
      </trkpt>
      <trkpt lat="45.85867" lon="5.74162">
        <ele>245.5</ele>
        <time>2021-08-22T08:24:34Z</time>
      </trkpt>
      <trkpt lat="45.85864" lon="5.74165">
        <ele>245.7</ele>
        <time>2021-08-22T08:24:35Z</time>
      </trkpt>
      <trkpt lat="45.85862" lon="5.74165">
        <ele>245.7</ele>
        <time>2021-08-22T08:24:36Z</time>
      </trkpt>
      <trkpt lat="45.85857" lon="5.74168">
        <ele>246</ele>
        <time>2021-08-22T08:24:37Z</time>
      </trkpt>
      <trkpt lat="45.85854" lon="5.7417">
        <ele>246.1</ele>
        <time>2021-08-22T08:24:39Z</time>
      </trkpt>
      <trkpt lat="45.85851" lon="5.74172">
        <ele>246.2</ele>
        <time>2021-08-22T08:24:40Z</time>
      </trkpt>
      <trkpt lat="45.85848" lon="5.74175">
        <ele>246.4</ele>
        <time>2021-08-22T08:24:41Z</time>
      </trkpt>
      <trkpt lat="45.85843" lon="5.74179">
        <ele>246.6</ele>
        <time>2021-08-22T08:24:42Z</time>
      </trkpt>
      <trkpt lat="45.8584" lon="5.74183">
        <ele>246.8</ele>
        <time>2021-08-22T08:24:44Z</time>
      </trkpt>
      <trkpt lat="45.85837" lon="5.74186">
        <ele>247</ele>
        <time>2021-08-22T08:24:45Z</time>
      </trkpt>
      <trkpt lat="45.85832" lon="5.7419">
        <ele>247.2</ele>
        <time>2021-08-22T08:24:47Z</time>
      </trkpt>
      <trkpt lat="45.85828" lon="5.74192">
        <ele>247.3</ele>
        <time>2021-08-22T08:24:48Z</time>
      </trkpt>
      <trkpt lat="45.85825" lon="5.74195">
        <ele>247.5</ele>
        <time>2021-08-22T08:24:50Z</time>
      </trkpt>
      <trkpt lat="45.85822" lon="5.74196">
        <ele>247.6</ele>
        <time>2021-08-22T08:24:51Z</time>
      </trkpt>
      <trkpt lat="45.85818" lon="5.74198">
        <ele>247.8</ele>
        <time>2021-08-22T08:24:52Z</time>
      </trkpt>
      <trkpt lat="45.85814" lon="5.74202">
        <ele>248</ele>
        <time>2021-08-22T08:24:54Z</time>
      </trkpt>
      <trkpt lat="45.85813" lon="5.74203">
        <ele>248</ele>
        <time>2021-08-22T08:24:55Z</time>
      </trkpt>
      <trkpt lat="45.85811" lon="5.74205">
        <ele>248.1</ele>
        <time>2021-08-22T08:24:56Z</time>
      </trkpt>
      <trkpt lat="45.85808" lon="5.74208">
        <ele>248.3</ele>
        <time>2021-08-22T08:24:58Z</time>
      </trkpt>
      <trkpt lat="45.85806" lon="5.74212">
        <ele>248.4</ele>
        <time>2021-08-22T08:24:59Z</time>
      </trkpt>
      <trkpt lat="45.85805" lon="5.74214">
        <ele>248.4</ele>
        <time>2021-08-22T08:25:00Z</time>
      </trkpt>
      <trkpt lat="45.85801" lon="5.7422">
        <ele>248.6</ele>
        <time>2021-08-22T08:25:02Z</time>
      </trkpt>
      <trkpt lat="45.85798" lon="5.74224">
        <ele>248.8</ele>
        <time>2021-08-22T08:25:03Z</time>
      </trkpt>
      <trkpt lat="45.85796" lon="5.74227">
        <ele>248.9</ele>
        <time>2021-08-22T08:25:04Z</time>
      </trkpt>
      <trkpt lat="45.85793" lon="5.74231">
        <ele>249.1</ele>
        <time>2021-08-22T08:25:06Z</time>
      </trkpt>
      <trkpt lat="45.85789" lon="5.74235">
        <ele>249.2</ele>
        <time>2021-08-22T08:25:08Z</time>
      </trkpt>
      <trkpt lat="45.85786" lon="5.74241">
        <ele>249.4</ele>
        <time>2021-08-22T08:25:09Z</time>
      </trkpt>
      <trkpt lat="45.85784" lon="5.74245">
        <ele>249.6</ele>
        <time>2021-08-22T08:25:11Z</time>
      </trkpt>
      <trkpt lat="45.85782" lon="5.74247">
        <ele>249.7</ele>
        <time>2021-08-22T08:25:12Z</time>
      </trkpt>
      <trkpt lat="45.8578" lon="5.74252">
        <ele>249.8</ele>
        <time>2021-08-22T08:25:13Z</time>
      </trkpt>
      <trkpt lat="45.85779" lon="5.74254">
        <ele>249.9</ele>
        <time>2021-08-22T08:25:14Z</time>
      </trkpt>
      <trkpt lat="45.85776" lon="5.74258">
        <ele>250.1</ele>
        <time>2021-08-22T08:25:15Z</time>
      </trkpt>
      <trkpt lat="45.85774" lon="5.74261">
        <ele>250.2</ele>
        <time>2021-08-22T08:25:17Z</time>
      </trkpt>
      <trkpt lat="45.85771" lon="5.74263">
        <ele>250.3</ele>
        <time>2021-08-22T08:25:18Z</time>
      </trkpt>
      <trkpt lat="45.85768" lon="5.74266">
        <ele>250.5</ele>
        <time>2021-08-22T08:25:19Z</time>
      </trkpt>
      <trkpt lat="45.85764" lon="5.74271">
        <ele>250.7</ele>
        <time>2021-08-22T08:25:21Z</time>
      </trkpt>
      <trkpt lat="45.85761" lon="5.74275">
        <ele>250.9</ele>
        <time>2021-08-22T08:25:22Z</time>
      </trkpt>
      <trkpt lat="45.8576" lon="5.74279">
        <ele>251</ele>
        <time>2021-08-22T08:25:23Z</time>
      </trkpt>
      <trkpt lat="45.85758" lon="5.74284">
        <ele>251.2</ele>
        <time>2021-08-22T08:25:24Z</time>
      </trkpt>
      <trkpt lat="45.85756" lon="5.74289">
        <ele>251.4</ele>
        <time>2021-08-22T08:25:25Z</time>
      </trkpt>
      <trkpt lat="45.85754" lon="5.74293">
        <ele>251.5</ele>
        <time>2021-08-22T08:25:27Z</time>
      </trkpt>
      <trkpt lat="45.85751" lon="5.74298">
        <ele>251.8</ele>
        <time>2021-08-22T08:25:28Z</time>
      </trkpt>
      <trkpt lat="45.85748" lon="5.74302">
        <ele>251.9</ele>
        <time>2021-08-22T08:25:30Z</time>
      </trkpt>
      <trkpt lat="45.85746" lon="5.74306">
        <ele>252.1</ele>
        <time>2021-08-22T08:25:31Z</time>
      </trkpt>
      <trkpt lat="45.85744" lon="5.74309">
        <ele>252.2</ele>
        <time>2021-08-22T08:25:32Z</time>
      </trkpt>
      <trkpt lat="45.85741" lon="5.74314">
        <ele>252.5</ele>
        <time>2021-08-22T08:25:34Z</time>
      </trkpt>
      <trkpt lat="45.85738" lon="5.74319">
        <ele>252.7</ele>
        <time>2021-08-22T08:25:35Z</time>
      </trkpt>
      <trkpt lat="45.85735" lon="5.74326">
        <ele>252.9</ele>
        <time>2021-08-22T08:25:37Z</time>
      </trkpt>
      <trkpt lat="45.85734" lon="5.74328">
        <ele>253</ele>
        <time>2021-08-22T08:25:38Z</time>
      </trkpt>
      <trkpt lat="45.85732" lon="5.7433">
        <ele>253.1</ele>
        <time>2021-08-22T08:25:39Z</time>
      </trkpt>
      <trkpt lat="45.85731" lon="5.74334">
        <ele>253.3</ele>
        <time>2021-08-22T08:25:41Z</time>
      </trkpt>
      <trkpt lat="45.8573" lon="5.74336">
        <ele>253.3</ele>
        <time>2021-08-22T08:25:42Z</time>
      </trkpt>
      <trkpt lat="45.85728" lon="5.74339">
        <ele>253.5</ele>
        <time>2021-08-22T08:25:43Z</time>
      </trkpt>
      <trkpt lat="45.85726" lon="5.74343">
        <ele>253.6</ele>
        <time>2021-08-22T08:25:45Z</time>
      </trkpt>
      <trkpt lat="45.85724" lon="5.74347">
        <ele>253.8</ele>
        <time>2021-08-22T08:25:46Z</time>
      </trkpt>
      <trkpt lat="45.85721" lon="5.74351">
        <ele>253.9</ele>
        <time>2021-08-22T08:25:47Z</time>
      </trkpt>
      <trkpt lat="45.85718" lon="5.74356">
        <ele>254.1</ele>
        <time>2021-08-22T08:25:49Z</time>
      </trkpt>
      <trkpt lat="45.85716" lon="5.74359">
        <ele>254.3</ele>
        <time>2021-08-22T08:25:50Z</time>
      </trkpt>
      <trkpt lat="45.85713" lon="5.74363">
        <ele>254.5</ele>
        <time>2021-08-22T08:25:51Z</time>
      </trkpt>
      <trkpt lat="45.8571" lon="5.74367">
        <ele>254.6</ele>
        <time>2021-08-22T08:25:53Z</time>
      </trkpt>
      <trkpt lat="45.85706" lon="5.74372">
        <ele>254.9</ele>
        <time>2021-08-22T08:25:54Z</time>
      </trkpt>
      <trkpt lat="45.85703" lon="5.74376">
        <ele>255.1</ele>
        <time>2021-08-22T08:25:56Z</time>
      </trkpt>
      <trkpt lat="45.857" lon="5.74379">
        <ele>255.2</ele>
        <time>2021-08-22T08:25:57Z</time>
      </trkpt>
      <trkpt lat="45.85697" lon="5.74384">
        <ele>255.3</ele>
        <time>2021-08-22T08:25:58Z</time>
      </trkpt>
      <trkpt lat="45.85694" lon="5.7439">
        <ele>255.4</ele>
        <time>2021-08-22T08:26:00Z</time>
      </trkpt>
      <trkpt lat="45.85692" lon="5.74399">
        <ele>255.5</ele>
        <time>2021-08-22T08:26:02Z</time>
      </trkpt>
      <trkpt lat="45.8569" lon="5.74408">
        <ele>255.6</ele>
        <time>2021-08-22T08:26:03Z</time>
      </trkpt>
      <trkpt lat="45.85688" lon="5.74417">
        <ele>255.7</ele>
        <time>2021-08-22T08:26:05Z</time>
      </trkpt>
      <trkpt lat="45.85686" lon="5.74422">
        <ele>255.8</ele>
        <time>2021-08-22T08:26:06Z</time>
      </trkpt>
      <trkpt lat="45.85686" lon="5.74429">
        <ele>255.9</ele>
        <time>2021-08-22T08:26:08Z</time>
      </trkpt>
      <trkpt lat="45.85685" lon="5.74436">
        <ele>255.9</ele>
        <time>2021-08-22T08:26:10Z</time>
      </trkpt>
      <trkpt lat="45.85686" lon="5.74443">
        <ele>256</ele>
        <time>2021-08-22T08:26:11Z</time>
      </trkpt>
      <trkpt lat="45.85686" lon="5.74451">
        <ele>256.1</ele>
        <time>2021-08-22T08:26:13Z</time>
      </trkpt>
      <trkpt lat="45.85686" lon="5.74456">
        <ele>256.1</ele>
        <time>2021-08-22T08:26:14Z</time>
      </trkpt>
      <trkpt lat="45.85685" lon="5.74465">
        <ele>256.1</ele>
        <time>2021-08-22T08:26:16Z</time>
      </trkpt>
      <trkpt lat="45.85682" lon="5.74475">
        <ele>256</ele>
        <time>2021-08-22T08:26:17Z</time>
      </trkpt>
      <trkpt lat="45.85679" lon="5.74482">
        <ele>256</ele>
        <time>2021-08-22T08:26:18Z</time>
      </trkpt>
      <trkpt lat="45.85674" lon="5.74493">
        <ele>256</ele>
        <time>2021-08-22T08:26:20Z</time>
      </trkpt>
      <trkpt lat="45.8567" lon="5.74501">
        <ele>255.9</ele>
        <time>2021-08-22T08:26:22Z</time>
      </trkpt>
      <trkpt lat="45.85668" lon="5.74507">
        <ele>255.9</ele>
        <time>2021-08-22T08:26:23Z</time>
      </trkpt>
      <trkpt lat="45.85666" lon="5.74513">
        <ele>255.8</ele>
        <time>2021-08-22T08:26:24Z</time>
      </trkpt>
      <trkpt lat="45.85663" lon="5.74529">
        <ele>255.8</ele>
        <time>2021-08-22T08:26:26Z</time>
      </trkpt>
      <trkpt lat="45.85663" lon="5.7454">
        <ele>255.7</ele>
        <time>2021-08-22T08:26:27Z</time>
      </trkpt>
      <trkpt lat="45.85664" lon="5.74548">
        <ele>255.7</ele>
        <time>2021-08-22T08:26:29Z</time>
      </trkpt>
      <trkpt lat="45.85663" lon="5.74556">
        <ele>255.7</ele>
        <time>2021-08-22T08:26:30Z</time>
      </trkpt>
      <trkpt lat="45.85662" lon="5.74563">
        <ele>255.7</ele>
        <time>2021-08-22T08:26:31Z</time>
      </trkpt>
      <trkpt lat="45.85661" lon="5.74569">
        <ele>255.7</ele>
        <time>2021-08-22T08:26:32Z</time>
      </trkpt>
      <trkpt lat="45.85658" lon="5.74576">
        <ele>255.8</ele>
        <time>2021-08-22T08:26:33Z</time>
      </trkpt>
      <trkpt lat="45.85656" lon="5.74584">
        <ele>255.8</ele>
        <time>2021-08-22T08:26:34Z</time>
      </trkpt>
      <trkpt lat="45.85654" lon="5.74593">
        <ele>255.8</ele>
        <time>2021-08-22T08:26:36Z</time>
      </trkpt>
      <trkpt lat="45.85652" lon="5.74604">
        <ele>255.9</ele>
        <time>2021-08-22T08:26:38Z</time>
      </trkpt>
      <trkpt lat="45.85654" lon="5.74611">
        <ele>255.9</ele>
        <time>2021-08-22T08:26:39Z</time>
      </trkpt>
      <trkpt lat="45.85653" lon="5.74619">
        <ele>256</ele>
        <time>2021-08-22T08:26:40Z</time>
      </trkpt>
      <trkpt lat="45.85652" lon="5.74626">
        <ele>256.1</ele>
        <time>2021-08-22T08:26:42Z</time>
      </trkpt>
      <trkpt lat="45.8565" lon="5.74633">
        <ele>256.2</ele>
        <time>2021-08-22T08:26:43Z</time>
      </trkpt>
      <trkpt lat="45.85647" lon="5.74645">
        <ele>256.3</ele>
        <time>2021-08-22T08:26:45Z</time>
      </trkpt>
      <trkpt lat="45.85647" lon="5.74658">
        <ele>256.5</ele>
        <time>2021-08-22T08:26:47Z</time>
      </trkpt>
      <trkpt lat="45.85646" lon="5.74663">
        <ele>256.6</ele>
        <time>2021-08-22T08:26:48Z</time>
      </trkpt>
      <trkpt lat="45.85644" lon="5.74669">
        <ele>256.7</ele>
        <time>2021-08-22T08:26:49Z</time>
      </trkpt>
      <trkpt lat="45.85642" lon="5.74675">
        <ele>256.9</ele>
        <time>2021-08-22T08:26:50Z</time>
      </trkpt>
      <trkpt lat="45.8564" lon="5.74683">
        <ele>257</ele>
        <time>2021-08-22T08:26:52Z</time>
      </trkpt>
      <trkpt lat="45.85639" lon="5.74689">
        <ele>257.2</ele>
        <time>2021-08-22T08:26:53Z</time>
      </trkpt>
      <trkpt lat="45.85637" lon="5.74697">
        <ele>257.4</ele>
        <time>2021-08-22T08:26:54Z</time>
      </trkpt>
      <trkpt lat="45.85636" lon="5.74703">
        <ele>257.5</ele>
        <time>2021-08-22T08:26:55Z</time>
      </trkpt>
      <trkpt lat="45.85634" lon="5.74708">
        <ele>257.7</ele>
        <time>2021-08-22T08:26:57Z</time>
      </trkpt>
      <trkpt lat="45.85632" lon="5.74714">
        <ele>257.9</ele>
        <time>2021-08-22T08:26:58Z</time>
      </trkpt>
      <trkpt lat="45.8563" lon="5.74719">
        <ele>258</ele>
        <time>2021-08-22T08:26:59Z</time>
      </trkpt>
      <trkpt lat="45.85628" lon="5.74726">
        <ele>258.2</ele>
        <time>2021-08-22T08:27:01Z</time>
      </trkpt>
      <trkpt lat="45.85625" lon="5.74732">
        <ele>258.4</ele>
        <time>2021-08-22T08:27:02Z</time>
      </trkpt>
      <trkpt lat="45.85622" lon="5.74736">
        <ele>258.6</ele>
        <time>2021-08-22T08:27:04Z</time>
      </trkpt>
      <trkpt lat="45.8562" lon="5.74739">
        <ele>258.7</ele>
        <time>2021-08-22T08:27:05Z</time>
      </trkpt>
      <trkpt lat="45.85615" lon="5.74745">
        <ele>258.9</ele>
        <time>2021-08-22T08:27:07Z</time>
      </trkpt>
      <trkpt lat="45.85611" lon="5.74749">
        <ele>259</ele>
        <time>2021-08-22T08:27:08Z</time>
      </trkpt>
      <trkpt lat="45.85607" lon="5.74753">
        <ele>259.1</ele>
        <time>2021-08-22T08:27:10Z</time>
      </trkpt>
      <trkpt lat="45.85604" lon="5.74755">
        <ele>259.2</ele>
        <time>2021-08-22T08:27:11Z</time>
      </trkpt>
      <trkpt lat="45.85599" lon="5.74757">
        <ele>259.3</ele>
        <time>2021-08-22T08:27:12Z</time>
      </trkpt>
      <trkpt lat="45.85592" lon="5.74758">
        <ele>259.7</ele>
        <time>2021-08-22T08:27:14Z</time>
      </trkpt>
      <trkpt lat="45.85578" lon="5.74762">
        <ele>260.5</ele>
        <time>2021-08-22T08:27:17Z</time>
      </trkpt>
      <trkpt lat="45.85577" lon="5.74767">
        <ele>260.6</ele>
        <time>2021-08-22T08:27:19Z</time>
      </trkpt>
      <trkpt lat="45.85575" lon="5.74774">
        <ele>260.9</ele>
        <time>2021-08-22T08:27:21Z</time>
      </trkpt>
      <trkpt lat="45.85572" lon="5.74778">
        <ele>261.2</ele>
        <time>2021-08-22T08:27:22Z</time>
      </trkpt>
      <trkpt lat="45.85569" lon="5.74781">
        <ele>261.4</ele>
        <time>2021-08-22T08:27:24Z</time>
      </trkpt>
      <trkpt lat="45.85565" lon="5.74786">
        <ele>261.7</ele>
        <time>2021-08-22T08:27:26Z</time>
      </trkpt>
      <trkpt lat="45.85562" lon="5.74791">
        <ele>262</ele>
        <time>2021-08-22T08:27:27Z</time>
      </trkpt>
      <trkpt lat="45.8556" lon="5.74796">
        <ele>262.2</ele>
        <time>2021-08-22T08:27:29Z</time>
      </trkpt>
      <trkpt lat="45.85558" lon="5.74803">
        <ele>262.4</ele>
        <time>2021-08-22T08:27:31Z</time>
      </trkpt>
      <trkpt lat="45.85557" lon="5.74808">
        <ele>262.7</ele>
        <time>2021-08-22T08:27:32Z</time>
      </trkpt>
      <trkpt lat="45.85555" lon="5.74811">
        <ele>262.8</ele>
        <time>2021-08-22T08:27:34Z</time>
      </trkpt>
      <trkpt lat="45.85553" lon="5.74816">
        <ele>263</ele>
        <time>2021-08-22T08:27:35Z</time>
      </trkpt>
      <trkpt lat="45.8555" lon="5.7482">
        <ele>263.3</ele>
        <time>2021-08-22T08:27:37Z</time>
      </trkpt>
      <trkpt lat="45.85549" lon="5.74824">
        <ele>263.4</ele>
        <time>2021-08-22T08:27:38Z</time>
      </trkpt>
      <trkpt lat="45.85547" lon="5.7483">
        <ele>263.7</ele>
        <time>2021-08-22T08:27:39Z</time>
      </trkpt>
      <trkpt lat="45.85545" lon="5.74834">
        <ele>263.9</ele>
        <time>2021-08-22T08:27:41Z</time>
      </trkpt>
      <trkpt lat="45.85542" lon="5.74838">
        <ele>264.1</ele>
        <time>2021-08-22T08:27:42Z</time>
      </trkpt>
      <trkpt lat="45.85541" lon="5.74841">
        <ele>264.2</ele>
        <time>2021-08-22T08:27:43Z</time>
      </trkpt>
      <trkpt lat="45.8554" lon="5.74843">
        <ele>264.3</ele>
        <time>2021-08-22T08:27:44Z</time>
      </trkpt>
      <trkpt lat="45.85539" lon="5.74846">
        <ele>264.4</ele>
        <time>2021-08-22T08:27:46Z</time>
      </trkpt>
      <trkpt lat="45.85536" lon="5.74851">
        <ele>264.6</ele>
        <time>2021-08-22T08:27:48Z</time>
      </trkpt>
      <trkpt lat="45.85535" lon="5.74853">
        <ele>264.6</ele>
        <time>2021-08-22T08:27:49Z</time>
      </trkpt>
      <trkpt lat="45.85535" lon="5.74855">
        <ele>264.7</ele>
        <time>2021-08-22T08:27:50Z</time>
      </trkpt>
      <trkpt lat="45.85532" lon="5.7486">
        <ele>264.8</ele>
        <time>2021-08-22T08:27:51Z</time>
      </trkpt>
      <trkpt lat="45.8553" lon="5.74862">
        <ele>264.9</ele>
        <time>2021-08-22T08:27:52Z</time>
      </trkpt>
      <trkpt lat="45.85528" lon="5.74866">
        <ele>265</ele>
        <time>2021-08-22T08:27:54Z</time>
      </trkpt>
      <trkpt lat="45.85526" lon="5.74868">
        <ele>265</ele>
        <time>2021-08-22T08:27:55Z</time>
      </trkpt>
      <trkpt lat="45.85523" lon="5.74877">
        <ele>265.2</ele>
        <time>2021-08-22T08:27:57Z</time>
      </trkpt>
      <trkpt lat="45.85521" lon="5.74884">
        <ele>265.4</ele>
        <time>2021-08-22T08:27:58Z</time>
      </trkpt>
      <trkpt lat="45.85518" lon="5.7489">
        <ele>265.5</ele>
        <time>2021-08-22T08:28:00Z</time>
      </trkpt>
      <trkpt lat="45.85515" lon="5.74897">
        <ele>265.6</ele>
        <time>2021-08-22T08:28:01Z</time>
      </trkpt>
      <trkpt lat="45.85514" lon="5.749">
        <ele>265.6</ele>
        <time>2021-08-22T08:28:02Z</time>
      </trkpt>
      <trkpt lat="45.85512" lon="5.74905">
        <ele>265.7</ele>
        <time>2021-08-22T08:28:04Z</time>
      </trkpt>
      <trkpt lat="45.8551" lon="5.74908">
        <ele>265.8</ele>
        <time>2021-08-22T08:28:05Z</time>
      </trkpt>
      <trkpt lat="45.85508" lon="5.74911">
        <ele>265.8</ele>
        <time>2021-08-22T08:28:06Z</time>
      </trkpt>
      <trkpt lat="45.85505" lon="5.74918">
        <ele>265.9</ele>
        <time>2021-08-22T08:28:08Z</time>
      </trkpt>
      <trkpt lat="45.85502" lon="5.74923">
        <ele>266</ele>
        <time>2021-08-22T08:28:09Z</time>
      </trkpt>
      <trkpt lat="45.855" lon="5.74926">
        <ele>266</ele>
        <time>2021-08-22T08:28:10Z</time>
      </trkpt>
      <trkpt lat="45.85499" lon="5.7493">
        <ele>266</ele>
        <time>2021-08-22T08:28:12Z</time>
      </trkpt>
      <trkpt lat="45.85498" lon="5.74931">
        <ele>266</ele>
        <time>2021-08-22T08:28:13Z</time>
      </trkpt>
      <trkpt lat="45.85495" lon="5.74933">
        <ele>266.1</ele>
        <time>2021-08-22T08:28:14Z</time>
      </trkpt>
      <trkpt lat="45.85491" lon="5.7494">
        <ele>266.1</ele>
        <time>2021-08-22T08:28:16Z</time>
      </trkpt>
      <trkpt lat="45.8549" lon="5.74944">
        <ele>266.1</ele>
        <time>2021-08-22T08:28:17Z</time>
      </trkpt>
      <trkpt lat="45.85488" lon="5.74947">
        <ele>266</ele>
        <time>2021-08-22T08:28:18Z</time>
      </trkpt>
      <trkpt lat="45.85487" lon="5.74953">
        <ele>266</ele>
        <time>2021-08-22T08:28:20Z</time>
      </trkpt>
      <trkpt lat="45.85485" lon="5.74957">
        <ele>265.9</ele>
        <time>2021-08-22T08:28:21Z</time>
      </trkpt>
      <trkpt lat="45.8548" lon="5.74964">
        <ele>265.8</ele>
        <time>2021-08-22T08:28:22Z</time>
      </trkpt>
      <trkpt lat="45.85474" lon="5.74974">
        <ele>265.6</ele>
        <time>2021-08-22T08:28:24Z</time>
      </trkpt>
      <trkpt lat="45.85471" lon="5.7498">
        <ele>265.5</ele>
        <time>2021-08-22T08:28:25Z</time>
      </trkpt>
      <trkpt lat="45.85463" lon="5.74992">
        <ele>265.1</ele>
        <time>2021-08-22T08:28:27Z</time>
      </trkpt>
      <trkpt lat="45.85459" lon="5.74998">
        <ele>264.9</ele>
        <time>2021-08-22T08:28:28Z</time>
      </trkpt>
      <trkpt lat="45.85451" lon="5.7501">
        <ele>264.5</ele>
        <time>2021-08-22T08:28:30Z</time>
      </trkpt>
      <trkpt lat="45.85444" lon="5.75023">
        <ele>264.1</ele>
        <time>2021-08-22T08:28:32Z</time>
      </trkpt>
      <trkpt lat="45.85436" lon="5.75037">
        <ele>263.4</ele>
        <time>2021-08-22T08:28:34Z</time>
      </trkpt>
      <trkpt lat="45.85427" lon="5.75052">
        <ele>262.5</ele>
        <time>2021-08-22T08:28:36Z</time>
      </trkpt>
      <trkpt lat="45.85422" lon="5.75059">
        <ele>262</ele>
        <time>2021-08-22T08:28:37Z</time>
      </trkpt>
      <trkpt lat="45.85411" lon="5.75074">
        <ele>261</ele>
        <time>2021-08-22T08:28:39Z</time>
      </trkpt>
      <trkpt lat="45.85406" lon="5.75081">
        <ele>260.5</ele>
        <time>2021-08-22T08:28:40Z</time>
      </trkpt>
      <trkpt lat="45.85396" lon="5.75096">
        <ele>259.6</ele>
        <time>2021-08-22T08:28:42Z</time>
      </trkpt>
      <trkpt lat="45.85387" lon="5.75111">
        <ele>258.9</ele>
        <time>2021-08-22T08:28:44Z</time>
      </trkpt>
      <trkpt lat="45.85382" lon="5.75118">
        <ele>258.5</ele>
        <time>2021-08-22T08:28:45Z</time>
      </trkpt>
      <trkpt lat="45.8537" lon="5.75133">
        <ele>257.5</ele>
        <time>2021-08-22T08:28:47Z</time>
      </trkpt>
      <trkpt lat="45.8536" lon="5.75149">
        <ele>256.4</ele>
        <time>2021-08-22T08:28:49Z</time>
      </trkpt>
      <trkpt lat="45.85355" lon="5.75158">
        <ele>255.9</ele>
        <time>2021-08-22T08:28:50Z</time>
      </trkpt>
      <trkpt lat="45.85347" lon="5.75176">
        <ele>254.7</ele>
        <time>2021-08-22T08:28:52Z</time>
      </trkpt>
      <trkpt lat="45.85342" lon="5.75185">
        <ele>254.1</ele>
        <time>2021-08-22T08:28:53Z</time>
      </trkpt>
      <trkpt lat="45.85336" lon="5.75194">
        <ele>253.5</ele>
        <time>2021-08-22T08:28:54Z</time>
      </trkpt>
      <trkpt lat="45.8533" lon="5.75204">
        <ele>252.8</ele>
        <time>2021-08-22T08:28:55Z</time>
      </trkpt>
      <trkpt lat="45.85325" lon="5.75216">
        <ele>252.2</ele>
        <time>2021-08-22T08:28:56Z</time>
      </trkpt>
      <trkpt lat="45.85316" lon="5.7524">
        <ele>250.9</ele>
        <time>2021-08-22T08:28:58Z</time>
      </trkpt>
      <trkpt lat="45.85313" lon="5.75253">
        <ele>250.4</ele>
        <time>2021-08-22T08:28:59Z</time>
      </trkpt>
      <trkpt lat="45.85309" lon="5.75265">
        <ele>249.8</ele>
        <time>2021-08-22T08:29:00Z</time>
      </trkpt>
      <trkpt lat="45.85302" lon="5.75289">
        <ele>248.8</ele>
        <time>2021-08-22T08:29:02Z</time>
      </trkpt>
      <trkpt lat="45.85299" lon="5.75301">
        <ele>248.4</ele>
        <time>2021-08-22T08:29:03Z</time>
      </trkpt>
      <trkpt lat="45.85292" lon="5.75325">
        <ele>247.5</ele>
        <time>2021-08-22T08:29:05Z</time>
      </trkpt>
      <trkpt lat="45.85289" lon="5.75338">
        <ele>247</ele>
        <time>2021-08-22T08:29:06Z</time>
      </trkpt>
      <trkpt lat="45.85283" lon="5.75363">
        <ele>246.1</ele>
        <time>2021-08-22T08:29:08Z</time>
      </trkpt>
      <trkpt lat="45.8528" lon="5.75375">
        <ele>245.6</ele>
        <time>2021-08-22T08:29:09Z</time>
      </trkpt>
      <trkpt lat="45.85274" lon="5.75399">
        <ele>244.7</ele>
        <time>2021-08-22T08:29:11Z</time>
      </trkpt>
      <trkpt lat="45.85272" lon="5.75411">
        <ele>244.3</ele>
        <time>2021-08-22T08:29:12Z</time>
      </trkpt>
      <trkpt lat="45.85266" lon="5.75435">
        <ele>243.5</ele>
        <time>2021-08-22T08:29:14Z</time>
      </trkpt>
      <trkpt lat="45.85262" lon="5.75458">
        <ele>242.8</ele>
        <time>2021-08-22T08:29:16Z</time>
      </trkpt>
      <trkpt lat="45.8526" lon="5.7547">
        <ele>242.5</ele>
        <time>2021-08-22T08:29:17Z</time>
      </trkpt>
      <trkpt lat="45.85255" lon="5.75491">
        <ele>241.9</ele>
        <time>2021-08-22T08:29:19Z</time>
      </trkpt>
      <trkpt lat="45.8525" lon="5.75513">
        <ele>241.3</ele>
        <time>2021-08-22T08:29:21Z</time>
      </trkpt>
      <trkpt lat="45.85246" lon="5.75535">
        <ele>240.6</ele>
        <time>2021-08-22T08:29:23Z</time>
      </trkpt>
      <trkpt lat="45.85245" lon="5.75546">
        <ele>240.4</ele>
        <time>2021-08-22T08:29:24Z</time>
      </trkpt>
      <trkpt lat="45.85244" lon="5.75557">
        <ele>240.1</ele>
        <time>2021-08-22T08:29:25Z</time>
      </trkpt>
      <trkpt lat="45.85242" lon="5.75579">
        <ele>239.7</ele>
        <time>2021-08-22T08:29:27Z</time>
      </trkpt>
      <trkpt lat="45.85241" lon="5.7559">
        <ele>239.5</ele>
        <time>2021-08-22T08:29:28Z</time>
      </trkpt>
      <trkpt lat="45.85239" lon="5.75601">
        <ele>239.3</ele>
        <time>2021-08-22T08:29:29Z</time>
      </trkpt>
      <trkpt lat="45.85237" lon="5.75611">
        <ele>239.2</ele>
        <time>2021-08-22T08:29:30Z</time>
      </trkpt>
      <trkpt lat="45.85236" lon="5.75623">
        <ele>239.1</ele>
        <time>2021-08-22T08:29:31Z</time>
      </trkpt>
      <trkpt lat="45.85234" lon="5.75645">
        <ele>238.9</ele>
        <time>2021-08-22T08:29:33Z</time>
      </trkpt>
      <trkpt lat="45.85233" lon="5.75657">
        <ele>238.8</ele>
        <time>2021-08-22T08:29:34Z</time>
      </trkpt>
      <trkpt lat="45.8523" lon="5.75682">
        <ele>238.5</ele>
        <time>2021-08-22T08:29:36Z</time>
      </trkpt>
      <trkpt lat="45.85226" lon="5.75705">
        <ele>238.3</ele>
        <time>2021-08-22T08:29:38Z</time>
      </trkpt>
      <trkpt lat="45.85224" lon="5.75717">
        <ele>238.2</ele>
        <time>2021-08-22T08:29:39Z</time>
      </trkpt>
      <trkpt lat="45.85218" lon="5.75741">
        <ele>238.1</ele>
        <time>2021-08-22T08:29:41Z</time>
      </trkpt>
      <trkpt lat="45.85216" lon="5.75753">
        <ele>238</ele>
        <time>2021-08-22T08:29:42Z</time>
      </trkpt>
      <trkpt lat="45.85212" lon="5.75776">
        <ele>237.8</ele>
        <time>2021-08-22T08:29:44Z</time>
      </trkpt>
      <trkpt lat="45.8521" lon="5.75788">
        <ele>237.7</ele>
        <time>2021-08-22T08:29:45Z</time>
      </trkpt>
      <trkpt lat="45.85208" lon="5.7581">
        <ele>237.5</ele>
        <time>2021-08-22T08:29:46Z</time>
      </trkpt>
      <trkpt lat="45.85207" lon="5.75821">
        <ele>237.4</ele>
        <time>2021-08-22T08:29:47Z</time>
      </trkpt>
      <trkpt lat="45.85205" lon="5.75841">
        <ele>237.2</ele>
        <time>2021-08-22T08:29:49Z</time>
      </trkpt>
      <trkpt lat="45.85201" lon="5.75862">
        <ele>237</ele>
        <time>2021-08-22T08:29:51Z</time>
      </trkpt>
      <trkpt lat="45.85197" lon="5.75883">
        <ele>236.8</ele>
        <time>2021-08-22T08:29:53Z</time>
      </trkpt>
      <trkpt lat="45.85194" lon="5.75895">
        <ele>236.7</ele>
        <time>2021-08-22T08:29:54Z</time>
      </trkpt>
      <trkpt lat="45.85189" lon="5.75918">
        <ele>236.6</ele>
        <time>2021-08-22T08:29:56Z</time>
      </trkpt>
      <trkpt lat="45.85182" lon="5.75937">
        <ele>236.6</ele>
        <time>2021-08-22T08:29:58Z</time>
      </trkpt>
      <trkpt lat="45.85178" lon="5.75957">
        <ele>236.6</ele>
        <time>2021-08-22T08:30:00Z</time>
      </trkpt>
      <trkpt lat="45.85175" lon="5.75967">
        <ele>236.6</ele>
        <time>2021-08-22T08:30:01Z</time>
      </trkpt>
      <trkpt lat="45.85167" lon="5.75983">
        <ele>236.5</ele>
        <time>2021-08-22T08:30:03Z</time>
      </trkpt>
      <trkpt lat="45.85163" lon="5.75992">
        <ele>236.6</ele>
        <time>2021-08-22T08:30:04Z</time>
      </trkpt>
      <trkpt lat="45.85151" lon="5.76006">
        <ele>236.6</ele>
        <time>2021-08-22T08:30:06Z</time>
      </trkpt>
      <trkpt lat="45.8514" lon="5.7602">
        <ele>236.8</ele>
        <time>2021-08-22T08:30:08Z</time>
      </trkpt>
      <trkpt lat="45.85129" lon="5.76035">
        <ele>237</ele>
        <time>2021-08-22T08:30:10Z</time>
      </trkpt>
      <trkpt lat="45.85124" lon="5.76042">
        <ele>237.1</ele>
        <time>2021-08-22T08:30:11Z</time>
      </trkpt>
      <trkpt lat="45.85116" lon="5.76058">
        <ele>237.3</ele>
        <time>2021-08-22T08:30:13Z</time>
      </trkpt>
      <trkpt lat="45.85109" lon="5.76071">
        <ele>237.5</ele>
        <time>2021-08-22T08:30:15Z</time>
      </trkpt>
      <trkpt lat="45.85106" lon="5.76077">
        <ele>237.6</ele>
        <time>2021-08-22T08:30:16Z</time>
      </trkpt>
      <trkpt lat="45.851" lon="5.7609">
        <ele>237.9</ele>
        <time>2021-08-22T08:30:18Z</time>
      </trkpt>
      <trkpt lat="45.85093" lon="5.76101">
        <ele>238</ele>
        <time>2021-08-22T08:30:20Z</time>
      </trkpt>
      <trkpt lat="45.8509" lon="5.76106">
        <ele>238.1</ele>
        <time>2021-08-22T08:30:21Z</time>
      </trkpt>
      <trkpt lat="45.85087" lon="5.76111">
        <ele>238.2</ele>
        <time>2021-08-22T08:30:22Z</time>
      </trkpt>
      <trkpt lat="45.85082" lon="5.76121">
        <ele>238.4</ele>
        <time>2021-08-22T08:30:24Z</time>
      </trkpt>
      <trkpt lat="45.85076" lon="5.76131">
        <ele>238.5</ele>
        <time>2021-08-22T08:30:26Z</time>
      </trkpt>
      <trkpt lat="45.85074" lon="5.76137">
        <ele>238.5</ele>
        <time>2021-08-22T08:30:27Z</time>
      </trkpt>
      <trkpt lat="45.85073" lon="5.76139">
        <ele>238.6</ele>
        <time>2021-08-22T08:30:28Z</time>
      </trkpt>
      <trkpt lat="45.8507" lon="5.76144">
        <ele>238.6</ele>
        <time>2021-08-22T08:30:29Z</time>
      </trkpt>
      <trkpt lat="45.85068" lon="5.76148">
        <ele>238.6</ele>
        <time>2021-08-22T08:30:30Z</time>
      </trkpt>
      <trkpt lat="45.85066" lon="5.76153">
        <ele>238.6</ele>
        <time>2021-08-22T08:30:31Z</time>
      </trkpt>
      <trkpt lat="45.85062" lon="5.76162">
        <ele>238.7</ele>
        <time>2021-08-22T08:30:33Z</time>
      </trkpt>
      <trkpt lat="45.85062" lon="5.76166">
        <ele>238.7</ele>
        <time>2021-08-22T08:30:34Z</time>
      </trkpt>
      <trkpt lat="45.85057" lon="5.76176">
        <ele>238.7</ele>
        <time>2021-08-22T08:30:36Z</time>
      </trkpt>
      <trkpt lat="45.85054" lon="5.76184">
        <ele>238.7</ele>
        <time>2021-08-22T08:30:37Z</time>
      </trkpt>
      <trkpt lat="45.85049" lon="5.76197">
        <ele>238.7</ele>
        <time>2021-08-22T08:30:39Z</time>
      </trkpt>
      <trkpt lat="45.85045" lon="5.76209">
        <ele>238.7</ele>
        <time>2021-08-22T08:30:41Z</time>
      </trkpt>
      <trkpt lat="45.85043" lon="5.76215">
        <ele>238.8</ele>
        <time>2021-08-22T08:30:42Z</time>
      </trkpt>
      <trkpt lat="45.85038" lon="5.76227">
        <ele>238.8</ele>
        <time>2021-08-22T08:30:44Z</time>
      </trkpt>
      <trkpt lat="45.85035" lon="5.76234">
        <ele>238.8</ele>
        <time>2021-08-22T08:30:45Z</time>
      </trkpt>
      <trkpt lat="45.85032" lon="5.76241">
        <ele>238.8</ele>
        <time>2021-08-22T08:30:46Z</time>
      </trkpt>
      <trkpt lat="45.8503" lon="5.76248">
        <ele>238.8</ele>
        <time>2021-08-22T08:30:47Z</time>
      </trkpt>
      <trkpt lat="45.85025" lon="5.76261">
        <ele>238.8</ele>
        <time>2021-08-22T08:30:49Z</time>
      </trkpt>
      <trkpt lat="45.8502" lon="5.76274">
        <ele>238.9</ele>
        <time>2021-08-22T08:30:51Z</time>
      </trkpt>
      <trkpt lat="45.85017" lon="5.76279">
        <ele>238.9</ele>
        <time>2021-08-22T08:30:52Z</time>
      </trkpt>
      <trkpt lat="45.85014" lon="5.76284">
        <ele>238.9</ele>
        <time>2021-08-22T08:30:53Z</time>
      </trkpt>
      <trkpt lat="45.85008" lon="5.76295">
        <ele>239</ele>
        <time>2021-08-22T08:30:55Z</time>
      </trkpt>
      <trkpt lat="45.85006" lon="5.76301">
        <ele>239</ele>
        <time>2021-08-22T08:30:56Z</time>
      </trkpt>
      <trkpt lat="45.85002" lon="5.76309">
        <ele>239</ele>
        <time>2021-08-22T08:30:58Z</time>
      </trkpt>
      <trkpt lat="45.84998" lon="5.76321">
        <ele>239</ele>
        <time>2021-08-22T08:31:00Z</time>
      </trkpt>
      <trkpt lat="45.84997" lon="5.76326">
        <ele>239</ele>
        <time>2021-08-22T08:31:01Z</time>
      </trkpt>
      <trkpt lat="45.84995" lon="5.76333">
        <ele>239.1</ele>
        <time>2021-08-22T08:31:02Z</time>
      </trkpt>
      <trkpt lat="45.84988" lon="5.76345">
        <ele>239.1</ele>
        <time>2021-08-22T08:31:04Z</time>
      </trkpt>
      <trkpt lat="45.84985" lon="5.7635">
        <ele>239.1</ele>
        <time>2021-08-22T08:31:05Z</time>
      </trkpt>
      <trkpt lat="45.84982" lon="5.76359">
        <ele>239</ele>
        <time>2021-08-22T08:31:06Z</time>
      </trkpt>
      <trkpt lat="45.84976" lon="5.76372">
        <ele>239</ele>
        <time>2021-08-22T08:31:08Z</time>
      </trkpt>
      <trkpt lat="45.84969" lon="5.76381">
        <ele>238.9</ele>
        <time>2021-08-22T08:31:09Z</time>
      </trkpt>
      <trkpt lat="45.84964" lon="5.76388">
        <ele>238.8</ele>
        <time>2021-08-22T08:31:10Z</time>
      </trkpt>
      <trkpt lat="45.8496" lon="5.76395">
        <ele>238.8</ele>
        <time>2021-08-22T08:31:11Z</time>
      </trkpt>
      <trkpt lat="45.84956" lon="5.76401">
        <ele>238.7</ele>
        <time>2021-08-22T08:31:12Z</time>
      </trkpt>
      <trkpt lat="45.84952" lon="5.76406">
        <ele>238.6</ele>
        <time>2021-08-22T08:31:13Z</time>
      </trkpt>
      <trkpt lat="45.84949" lon="5.76413">
        <ele>238.6</ele>
        <time>2021-08-22T08:31:14Z</time>
      </trkpt>
      <trkpt lat="45.84945" lon="5.76425">
        <ele>238.4</ele>
        <time>2021-08-22T08:31:16Z</time>
      </trkpt>
      <trkpt lat="45.84943" lon="5.76432">
        <ele>238.4</ele>
        <time>2021-08-22T08:31:17Z</time>
      </trkpt>
      <trkpt lat="45.84941" lon="5.76437">
        <ele>238.3</ele>
        <time>2021-08-22T08:31:18Z</time>
      </trkpt>
      <trkpt lat="45.84938" lon="5.76449">
        <ele>238.2</ele>
        <time>2021-08-22T08:31:20Z</time>
      </trkpt>
      <trkpt lat="45.84931" lon="5.76462">
        <ele>238.1</ele>
        <time>2021-08-22T08:31:22Z</time>
      </trkpt>
      <trkpt lat="45.84927" lon="5.76468">
        <ele>238</ele>
        <time>2021-08-22T08:31:23Z</time>
      </trkpt>
      <trkpt lat="45.84919" lon="5.76481">
        <ele>237.9</ele>
        <time>2021-08-22T08:31:25Z</time>
      </trkpt>
      <trkpt lat="45.8491" lon="5.76493">
        <ele>237.7</ele>
        <time>2021-08-22T08:31:27Z</time>
      </trkpt>
      <trkpt lat="45.84906" lon="5.765">
        <ele>237.7</ele>
        <time>2021-08-22T08:31:28Z</time>
      </trkpt>
      <trkpt lat="45.84898" lon="5.76516">
        <ele>237.5</ele>
        <time>2021-08-22T08:31:30Z</time>
      </trkpt>
      <trkpt lat="45.84892" lon="5.7653">
        <ele>237.3</ele>
        <time>2021-08-22T08:31:32Z</time>
      </trkpt>
      <trkpt lat="45.84884" lon="5.76544">
        <ele>237.2</ele>
        <time>2021-08-22T08:31:34Z</time>
      </trkpt>
      <trkpt lat="45.8488" lon="5.76551">
        <ele>237.1</ele>
        <time>2021-08-22T08:31:35Z</time>
      </trkpt>
      <trkpt lat="45.84872" lon="5.76565">
        <ele>237</ele>
        <time>2021-08-22T08:31:37Z</time>
      </trkpt>
      <trkpt lat="45.84868" lon="5.76572">
        <ele>237</ele>
        <time>2021-08-22T08:31:38Z</time>
      </trkpt>
      <trkpt lat="45.84861" lon="5.76586">
        <ele>237</ele>
        <time>2021-08-22T08:31:40Z</time>
      </trkpt>
      <trkpt lat="45.84854" lon="5.76602">
        <ele>237</ele>
        <time>2021-08-22T08:31:42Z</time>
      </trkpt>
      <trkpt lat="45.84847" lon="5.76616">
        <ele>236.9</ele>
        <time>2021-08-22T08:31:44Z</time>
      </trkpt>
      <trkpt lat="45.84844" lon="5.76622">
        <ele>236.9</ele>
        <time>2021-08-22T08:31:45Z</time>
      </trkpt>
      <trkpt lat="45.84841" lon="5.76629">
        <ele>236.9</ele>
        <time>2021-08-22T08:31:46Z</time>
      </trkpt>
      <trkpt lat="45.84834" lon="5.76643">
        <ele>236.9</ele>
        <time>2021-08-22T08:31:48Z</time>
      </trkpt>
      <trkpt lat="45.84829" lon="5.76658">
        <ele>236.9</ele>
        <time>2021-08-22T08:31:50Z</time>
      </trkpt>
      <trkpt lat="45.84825" lon="5.76675">
        <ele>236.9</ele>
        <time>2021-08-22T08:31:52Z</time>
      </trkpt>
      <trkpt lat="45.84823" lon="5.76683">
        <ele>237</ele>
        <time>2021-08-22T08:31:53Z</time>
      </trkpt>
      <trkpt lat="45.84818" lon="5.76699">
        <ele>237</ele>
        <time>2021-08-22T08:31:55Z</time>
      </trkpt>
      <trkpt lat="45.84816" lon="5.76706">
        <ele>237</ele>
        <time>2021-08-22T08:31:56Z</time>
      </trkpt>
      <trkpt lat="45.84812" lon="5.76721">
        <ele>237.1</ele>
        <time>2021-08-22T08:31:58Z</time>
      </trkpt>
      <trkpt lat="45.8481" lon="5.76728">
        <ele>237.1</ele>
        <time>2021-08-22T08:31:59Z</time>
      </trkpt>
      <trkpt lat="45.84806" lon="5.76742">
        <ele>237.2</ele>
        <time>2021-08-22T08:32:01Z</time>
      </trkpt>
      <trkpt lat="45.84804" lon="5.76749">
        <ele>237.3</ele>
        <time>2021-08-22T08:32:02Z</time>
      </trkpt>
      <trkpt lat="45.84802" lon="5.76756">
        <ele>237.3</ele>
        <time>2021-08-22T08:32:03Z</time>
      </trkpt>
      <trkpt lat="45.84798" lon="5.76769">
        <ele>237.5</ele>
        <time>2021-08-22T08:32:05Z</time>
      </trkpt>
      <trkpt lat="45.84794" lon="5.76784">
        <ele>237.7</ele>
        <time>2021-08-22T08:32:07Z</time>
      </trkpt>
      <trkpt lat="45.84793" lon="5.76791">
        <ele>237.8</ele>
        <time>2021-08-22T08:32:08Z</time>
      </trkpt>
      <trkpt lat="45.84792" lon="5.76798">
        <ele>238</ele>
        <time>2021-08-22T08:32:09Z</time>
      </trkpt>
      <trkpt lat="45.8479" lon="5.76805">
        <ele>238.1</ele>
        <time>2021-08-22T08:32:10Z</time>
      </trkpt>
      <trkpt lat="45.84786" lon="5.76818">
        <ele>238.4</ele>
        <time>2021-08-22T08:32:12Z</time>
      </trkpt>
      <trkpt lat="45.84783" lon="5.76824">
        <ele>238.6</ele>
        <time>2021-08-22T08:32:13Z</time>
      </trkpt>
      <trkpt lat="45.84776" lon="5.76835">
        <ele>238.8</ele>
        <time>2021-08-22T08:32:15Z</time>
      </trkpt>
      <trkpt lat="45.84772" lon="5.7684">
        <ele>238.7</ele>
        <time>2021-08-22T08:32:16Z</time>
      </trkpt>
      <trkpt lat="45.84767" lon="5.76846">
        <ele>238.6</ele>
        <time>2021-08-22T08:32:17Z</time>
      </trkpt>
      <trkpt lat="45.84759" lon="5.76862">
        <ele>238.6</ele>
        <time>2021-08-22T08:32:19Z</time>
      </trkpt>
      <trkpt lat="45.84757" lon="5.76872">
        <ele>238.7</ele>
        <time>2021-08-22T08:32:20Z</time>
      </trkpt>
      <trkpt lat="45.84757" lon="5.7689">
        <ele>238.9</ele>
        <time>2021-08-22T08:32:22Z</time>
      </trkpt>
      <trkpt lat="45.8476" lon="5.76898">
        <ele>239</ele>
        <time>2021-08-22T08:32:23Z</time>
      </trkpt>
      <trkpt lat="45.84771" lon="5.76912">
        <ele>239.7</ele>
        <time>2021-08-22T08:32:25Z</time>
      </trkpt>
      <trkpt lat="45.84782" lon="5.76923">
        <ele>240.2</ele>
        <time>2021-08-22T08:32:27Z</time>
      </trkpt>
      <trkpt lat="45.84786" lon="5.76929">
        <ele>240.4</ele>
        <time>2021-08-22T08:32:28Z</time>
      </trkpt>
      <trkpt lat="45.8479" lon="5.76934">
        <ele>240.7</ele>
        <time>2021-08-22T08:32:29Z</time>
      </trkpt>
      <trkpt lat="45.84797" lon="5.76945">
        <ele>241.2</ele>
        <time>2021-08-22T08:32:31Z</time>
      </trkpt>
      <trkpt lat="45.84802" lon="5.76953">
        <ele>241.5</ele>
        <time>2021-08-22T08:32:33Z</time>
      </trkpt>
      <trkpt lat="45.84803" lon="5.76958">
        <ele>241.7</ele>
        <time>2021-08-22T08:32:34Z</time>
      </trkpt>
      <trkpt lat="45.84806" lon="5.76966">
        <ele>242</ele>
        <time>2021-08-22T08:32:36Z</time>
      </trkpt>
      <trkpt lat="45.84807" lon="5.76971">
        <ele>242.1</ele>
        <time>2021-08-22T08:32:37Z</time>
      </trkpt>
      <trkpt lat="45.84809" lon="5.76975">
        <ele>242.2</ele>
        <time>2021-08-22T08:32:38Z</time>
      </trkpt>
      <trkpt lat="45.8481" lon="5.76981">
        <ele>242.3</ele>
        <time>2021-08-22T08:32:40Z</time>
      </trkpt>
      <trkpt lat="45.84812" lon="5.76986">
        <ele>242.3</ele>
        <time>2021-08-22T08:32:41Z</time>
      </trkpt>
      <trkpt lat="45.84814" lon="5.76987">
        <ele>242.4</ele>
        <time>2021-08-22T08:32:42Z</time>
      </trkpt>
      <trkpt lat="45.84816" lon="5.76992">
        <ele>242.5</ele>
        <time>2021-08-22T08:32:44Z</time>
      </trkpt>
      <trkpt lat="45.84817" lon="5.76998">
        <ele>242.6</ele>
        <time>2021-08-22T08:32:46Z</time>
      </trkpt>
      <trkpt lat="45.84818" lon="5.77002">
        <ele>242.7</ele>
        <time>2021-08-22T08:32:47Z</time>
      </trkpt>
      <trkpt lat="45.84818" lon="5.77004">
        <ele>242.8</ele>
        <time>2021-08-22T08:32:48Z</time>
      </trkpt>
      <trkpt lat="45.84818" lon="5.77008">
        <ele>242.8</ele>
        <time>2021-08-22T08:32:49Z</time>
      </trkpt>
      <trkpt lat="45.84818" lon="5.77015">
        <ele>243</ele>
        <time>2021-08-22T08:32:50Z</time>
      </trkpt>
      <trkpt lat="45.84817" lon="5.77021">
        <ele>243.1</ele>
        <time>2021-08-22T08:32:52Z</time>
      </trkpt>
      <trkpt lat="45.84817" lon="5.77026">
        <ele>243.3</ele>
        <time>2021-08-22T08:32:53Z</time>
      </trkpt>
      <trkpt lat="45.84818" lon="5.7703">
        <ele>243.4</ele>
        <time>2021-08-22T08:32:54Z</time>
      </trkpt>
      <trkpt lat="45.84818" lon="5.77036">
        <ele>243.5</ele>
        <time>2021-08-22T08:32:55Z</time>
      </trkpt>
      <trkpt lat="45.84818" lon="5.77044">
        <ele>243.7</ele>
        <time>2021-08-22T08:32:57Z</time>
      </trkpt>
      <trkpt lat="45.84818" lon="5.7705">
        <ele>243.9</ele>
        <time>2021-08-22T08:32:59Z</time>
      </trkpt>
      <trkpt lat="45.84819" lon="5.77053">
        <ele>244</ele>
        <time>2021-08-22T08:33:01Z</time>
      </trkpt>
      <trkpt lat="45.8482" lon="5.77054">
        <ele>244.1</ele>
        <time>2021-08-22T08:33:02Z</time>
      </trkpt>
      <trkpt lat="45.84823" lon="5.77055">
        <ele>244.2</ele>
        <time>2021-08-22T08:33:03Z</time>
      </trkpt>
      <trkpt lat="45.84825" lon="5.77055">
        <ele>244.3</ele>
        <time>2021-08-22T08:33:05Z</time>
      </trkpt>
      <trkpt lat="45.84827" lon="5.77056">
        <ele>244.4</ele>
        <time>2021-08-22T08:33:06Z</time>
      </trkpt>
      <trkpt lat="45.84829" lon="5.77059">
        <ele>244.5</ele>
        <time>2021-08-22T08:33:08Z</time>
      </trkpt>
      <trkpt lat="45.84831" lon="5.77064">
        <ele>244.7</ele>
        <time>2021-08-22T08:33:09Z</time>
      </trkpt>
      <trkpt lat="45.84832" lon="5.77068">
        <ele>244.8</ele>
        <time>2021-08-22T08:33:10Z</time>
      </trkpt>
      <trkpt lat="45.84833" lon="5.77069">
        <ele>244.8</ele>
        <time>2021-08-22T08:33:11Z</time>
      </trkpt>
      <trkpt lat="45.84834" lon="5.77073">
        <ele>244.9</ele>
        <time>2021-08-22T08:33:12Z</time>
      </trkpt>
      <trkpt lat="45.84834" lon="5.77079">
        <ele>245.1</ele>
        <time>2021-08-22T08:33:14Z</time>
      </trkpt>
      <trkpt lat="45.84834" lon="5.77083">
        <ele>245.2</ele>
        <time>2021-08-22T08:33:15Z</time>
      </trkpt>
      <trkpt lat="45.84833" lon="5.77088">
        <ele>245.4</ele>
        <time>2021-08-22T08:33:17Z</time>
      </trkpt>
      <trkpt lat="45.84832" lon="5.77094">
        <ele>245.5</ele>
        <time>2021-08-22T08:33:19Z</time>
      </trkpt>
      <trkpt lat="45.84832" lon="5.771">
        <ele>245.7</ele>
        <time>2021-08-22T08:33:20Z</time>
      </trkpt>
      <trkpt lat="45.84833" lon="5.77105">
        <ele>245.8</ele>
        <time>2021-08-22T08:33:21Z</time>
      </trkpt>
      <trkpt lat="45.84833" lon="5.77111">
        <ele>246</ele>
        <time>2021-08-22T08:33:22Z</time>
      </trkpt>
      <trkpt lat="45.84834" lon="5.77118">
        <ele>246.2</ele>
        <time>2021-08-22T08:33:24Z</time>
      </trkpt>
      <trkpt lat="45.84834" lon="5.77124">
        <ele>246.4</ele>
        <time>2021-08-22T08:33:26Z</time>
      </trkpt>
      <trkpt lat="45.84833" lon="5.77129">
        <ele>246.5</ele>
        <time>2021-08-22T08:33:27Z</time>
      </trkpt>
      <trkpt lat="45.84833" lon="5.77134">
        <ele>246.6</ele>
        <time>2021-08-22T08:33:28Z</time>
      </trkpt>
      <trkpt lat="45.84834" lon="5.77135">
        <ele>246.7</ele>
        <time>2021-08-22T08:33:29Z</time>
      </trkpt>
      <trkpt lat="45.84835" lon="5.77137">
        <ele>246.7</ele>
        <time>2021-08-22T08:33:31Z</time>
      </trkpt>
      <trkpt lat="45.84836" lon="5.77138">
        <ele>246.8</ele>
        <time>2021-08-22T08:33:32Z</time>
      </trkpt>
      <trkpt lat="45.84836" lon="5.77135">
        <ele>246.9</ele>
        <time>2021-08-22T08:33:34Z</time>
      </trkpt>
      <trkpt lat="45.84837" lon="5.77135">
        <ele>246.9</ele>
        <time>2021-08-22T08:33:35Z</time>
      </trkpt>
      <trkpt lat="45.84837" lon="5.77135">
        <ele>247</ele>
        <time>2021-08-22T08:33:36Z</time>
      </trkpt>
      <trkpt lat="45.84838" lon="5.77136">
        <ele>247</ele>
        <time>2021-08-22T08:33:38Z</time>
      </trkpt>
      <trkpt lat="45.84839" lon="5.77137">
        <ele>247.1</ele>
        <time>2021-08-22T08:33:40Z</time>
      </trkpt>
      <trkpt lat="45.8484" lon="5.77141">
        <ele>247.2</ele>
        <time>2021-08-22T08:33:42Z</time>
      </trkpt>
      <trkpt lat="45.84842" lon="5.77156">
        <ele>247.6</ele>
        <time>2021-08-22T08:33:46Z</time>
      </trkpt>
      <trkpt lat="45.84843" lon="5.77161">
        <ele>247.8</ele>
        <time>2021-08-22T08:33:47Z</time>
      </trkpt>
      <trkpt lat="45.84843" lon="5.77171">
        <ele>248.1</ele>
        <time>2021-08-22T08:33:49Z</time>
      </trkpt>
      <trkpt lat="45.84844" lon="5.77177">
        <ele>248.3</ele>
        <time>2021-08-22T08:33:50Z</time>
      </trkpt>
      <trkpt lat="45.84845" lon="5.77182">
        <ele>248.4</ele>
        <time>2021-08-22T08:33:51Z</time>
      </trkpt>
      <trkpt lat="45.84846" lon="5.77191">
        <ele>248.7</ele>
        <time>2021-08-22T08:33:53Z</time>
      </trkpt>
      <trkpt lat="45.84847" lon="5.77201">
        <ele>249</ele>
        <time>2021-08-22T08:33:55Z</time>
      </trkpt>
      <trkpt lat="45.84847" lon="5.77209">
        <ele>249.3</ele>
        <time>2021-08-22T08:33:57Z</time>
      </trkpt>
      <trkpt lat="45.84848" lon="5.77214">
        <ele>249.4</ele>
        <time>2021-08-22T08:33:58Z</time>
      </trkpt>
      <trkpt lat="45.84848" lon="5.77218">
        <ele>249.5</ele>
        <time>2021-08-22T08:33:59Z</time>
      </trkpt>
      <trkpt lat="45.84849" lon="5.77224">
        <ele>249.7</ele>
        <time>2021-08-22T08:34:00Z</time>
      </trkpt>
      <trkpt lat="45.8485" lon="5.77229">
        <ele>249.8</ele>
        <time>2021-08-22T08:34:02Z</time>
      </trkpt>
      <trkpt lat="45.8485" lon="5.77235">
        <ele>250</ele>
        <time>2021-08-22T08:34:03Z</time>
      </trkpt>
      <trkpt lat="45.84851" lon="5.77242">
        <ele>250.2</ele>
        <time>2021-08-22T08:34:05Z</time>
      </trkpt>
      <trkpt lat="45.84852" lon="5.77249">
        <ele>250.4</ele>
        <time>2021-08-22T08:34:06Z</time>
      </trkpt>
      <trkpt lat="45.84852" lon="5.77256">
        <ele>250.6</ele>
        <time>2021-08-22T08:34:08Z</time>
      </trkpt>
      <trkpt lat="45.84853" lon="5.77263">
        <ele>250.8</ele>
        <time>2021-08-22T08:34:09Z</time>
      </trkpt>
      <trkpt lat="45.84854" lon="5.77272">
        <ele>251.1</ele>
        <time>2021-08-22T08:34:11Z</time>
      </trkpt>
      <trkpt lat="45.84855" lon="5.77278">
        <ele>251.2</ele>
        <time>2021-08-22T08:34:12Z</time>
      </trkpt>
      <trkpt lat="45.84855" lon="5.77287">
        <ele>251.5</ele>
        <time>2021-08-22T08:34:14Z</time>
      </trkpt>
      <trkpt lat="45.84856" lon="5.77292">
        <ele>251.6</ele>
        <time>2021-08-22T08:34:15Z</time>
      </trkpt>
      <trkpt lat="45.84857" lon="5.77297">
        <ele>251.8</ele>
        <time>2021-08-22T08:34:16Z</time>
      </trkpt>
      <trkpt lat="45.84857" lon="5.77299">
        <ele>251.8</ele>
        <time>2021-08-22T08:34:17Z</time>
      </trkpt>
      <trkpt lat="45.84857" lon="5.77307">
        <ele>252.1</ele>
        <time>2021-08-22T08:34:19Z</time>
      </trkpt>
      <trkpt lat="45.84858" lon="5.77315">
        <ele>252.3</ele>
        <time>2021-08-22T08:34:21Z</time>
      </trkpt>
      <trkpt lat="45.84858" lon="5.77316">
        <ele>252.3</ele>
        <time>2021-08-22T08:34:22Z</time>
      </trkpt>
      <trkpt lat="45.84859" lon="5.77319">
        <ele>252.4</ele>
        <time>2021-08-22T08:34:23Z</time>
      </trkpt>
      <trkpt lat="45.8486" lon="5.77323">
        <ele>252.5</ele>
        <time>2021-08-22T08:34:25Z</time>
      </trkpt>
      <trkpt lat="45.84861" lon="5.77328">
        <ele>252.7</ele>
        <time>2021-08-22T08:34:27Z</time>
      </trkpt>
      <trkpt lat="45.84861" lon="5.77333">
        <ele>252.8</ele>
        <time>2021-08-22T08:34:28Z</time>
      </trkpt>
      <trkpt lat="45.84861" lon="5.77338">
        <ele>253</ele>
        <time>2021-08-22T08:34:29Z</time>
      </trkpt>
      <trkpt lat="45.84863" lon="5.77347">
        <ele>253.3</ele>
        <time>2021-08-22T08:34:31Z</time>
      </trkpt>
      <trkpt lat="45.84866" lon="5.77352">
        <ele>253.5</ele>
        <time>2021-08-22T08:34:32Z</time>
      </trkpt>
      <trkpt lat="45.8487" lon="5.77357">
        <ele>253.7</ele>
        <time>2021-08-22T08:34:33Z</time>
      </trkpt>
      <trkpt lat="45.84872" lon="5.7736">
        <ele>253.8</ele>
        <time>2021-08-22T08:34:35Z</time>
      </trkpt>
      <trkpt lat="45.84872" lon="5.77367">
        <ele>254</ele>
        <time>2021-08-22T08:34:37Z</time>
      </trkpt>
      <trkpt lat="45.84874" lon="5.77378">
        <ele>254.4</ele>
        <time>2021-08-22T08:34:39Z</time>
      </trkpt>
      <trkpt lat="45.84875" lon="5.77383">
        <ele>254.6</ele>
        <time>2021-08-22T08:34:40Z</time>
      </trkpt>
      <trkpt lat="45.84876" lon="5.77387">
        <ele>254.7</ele>
        <time>2021-08-22T08:34:41Z</time>
      </trkpt>
      <trkpt lat="45.84875" lon="5.77396">
        <ele>255</ele>
        <time>2021-08-22T08:34:42Z</time>
      </trkpt>
      <trkpt lat="45.84875" lon="5.77404">
        <ele>255.2</ele>
        <time>2021-08-22T08:34:44Z</time>
      </trkpt>
      <trkpt lat="45.84875" lon="5.77409">
        <ele>255.3</ele>
        <time>2021-08-22T08:34:45Z</time>
      </trkpt>
      <trkpt lat="45.84875" lon="5.77419">
        <ele>255.6</ele>
        <time>2021-08-22T08:34:47Z</time>
      </trkpt>
      <trkpt lat="45.84875" lon="5.77427">
        <ele>255.8</ele>
        <time>2021-08-22T08:34:49Z</time>
      </trkpt>
      <trkpt lat="45.84879" lon="5.77432">
        <ele>256</ele>
        <time>2021-08-22T08:34:51Z</time>
      </trkpt>
      <trkpt lat="45.84883" lon="5.77436">
        <ele>256.2</ele>
        <time>2021-08-22T08:34:52Z</time>
      </trkpt>
      <trkpt lat="45.84885" lon="5.7744">
        <ele>256.3</ele>
        <time>2021-08-22T08:34:53Z</time>
      </trkpt>
      <trkpt lat="45.8489" lon="5.77444">
        <ele>256.5</ele>
        <time>2021-08-22T08:34:55Z</time>
      </trkpt>
      <trkpt lat="45.84892" lon="5.77447">
        <ele>256.6</ele>
        <time>2021-08-22T08:34:56Z</time>
      </trkpt>
      <trkpt lat="45.84895" lon="5.7745">
        <ele>256.7</ele>
        <time>2021-08-22T08:34:57Z</time>
      </trkpt>
      <trkpt lat="45.84897" lon="5.77453">
        <ele>256.9</ele>
        <time>2021-08-22T08:34:58Z</time>
      </trkpt>
      <trkpt lat="45.849" lon="5.77459">
        <ele>257</ele>
        <time>2021-08-22T08:35:00Z</time>
      </trkpt>
      <trkpt lat="45.84901" lon="5.77466">
        <ele>257.2</ele>
        <time>2021-08-22T08:35:01Z</time>
      </trkpt>
      <trkpt lat="45.849" lon="5.77472">
        <ele>257.3</ele>
        <time>2021-08-22T08:35:03Z</time>
      </trkpt>
      <trkpt lat="45.849" lon="5.77476">
        <ele>257.4</ele>
        <time>2021-08-22T08:35:04Z</time>
      </trkpt>
      <trkpt lat="45.84899" lon="5.77485">
        <ele>257.6</ele>
        <time>2021-08-22T08:35:06Z</time>
      </trkpt>
      <trkpt lat="45.84897" lon="5.77491">
        <ele>257.7</ele>
        <time>2021-08-22T08:35:07Z</time>
      </trkpt>
      <trkpt lat="45.84894" lon="5.77501">
        <ele>257.9</ele>
        <time>2021-08-22T08:35:08Z</time>
      </trkpt>
      <trkpt lat="45.84891" lon="5.7751">
        <ele>258</ele>
        <time>2021-08-22T08:35:10Z</time>
      </trkpt>
      <trkpt lat="45.84887" lon="5.77522">
        <ele>258.1</ele>
        <time>2021-08-22T08:35:12Z</time>
      </trkpt>
      <trkpt lat="45.84883" lon="5.77533">
        <ele>258.1</ele>
        <time>2021-08-22T08:35:13Z</time>
      </trkpt>
      <trkpt lat="45.8488" lon="5.77541">
        <ele>258</ele>
        <time>2021-08-22T08:35:14Z</time>
      </trkpt>
      <trkpt lat="45.84877" lon="5.77549">
        <ele>258</ele>
        <time>2021-08-22T08:35:16Z</time>
      </trkpt>
      <trkpt lat="45.84876" lon="5.77553">
        <ele>258.1</ele>
        <time>2021-08-22T08:35:17Z</time>
      </trkpt>
      <trkpt lat="45.84875" lon="5.77563">
        <ele>258</ele>
        <time>2021-08-22T08:35:19Z</time>
      </trkpt>
      <trkpt lat="45.84873" lon="5.77574">
        <ele>258</ele>
        <time>2021-08-22T08:35:21Z</time>
      </trkpt>
      <trkpt lat="45.84872" lon="5.77579">
        <ele>258</ele>
        <time>2021-08-22T08:35:22Z</time>
      </trkpt>
      <trkpt lat="45.84871" lon="5.77586">
        <ele>257.9</ele>
        <time>2021-08-22T08:35:23Z</time>
      </trkpt>
      <trkpt lat="45.8487" lon="5.77594">
        <ele>257.8</ele>
        <time>2021-08-22T08:35:25Z</time>
      </trkpt>
      <trkpt lat="45.84872" lon="5.77605">
        <ele>257.7</ele>
        <time>2021-08-22T08:35:27Z</time>
      </trkpt>
      <trkpt lat="45.84871" lon="5.77614">
        <ele>257.5</ele>
        <time>2021-08-22T08:35:29Z</time>
      </trkpt>
      <trkpt lat="45.84869" lon="5.77621">
        <ele>257.4</ele>
        <time>2021-08-22T08:35:30Z</time>
      </trkpt>
      <trkpt lat="45.84866" lon="5.77631">
        <ele>257.2</ele>
        <time>2021-08-22T08:35:32Z</time>
      </trkpt>
      <trkpt lat="45.84863" lon="5.77637">
        <ele>257</ele>
        <time>2021-08-22T08:35:33Z</time>
      </trkpt>
      <trkpt lat="45.84858" lon="5.77652">
        <ele>256.6</ele>
        <time>2021-08-22T08:35:35Z</time>
      </trkpt>
      <trkpt lat="45.84858" lon="5.77661">
        <ele>256.4</ele>
        <time>2021-08-22T08:35:36Z</time>
      </trkpt>
      <trkpt lat="45.84858" lon="5.77679">
        <ele>256.1</ele>
        <time>2021-08-22T08:35:38Z</time>
      </trkpt>
      <trkpt lat="45.84859" lon="5.77694">
        <ele>255.8</ele>
        <time>2021-08-22T08:35:40Z</time>
      </trkpt>
      <trkpt lat="45.84859" lon="5.777">
        <ele>255.7</ele>
        <time>2021-08-22T08:35:41Z</time>
      </trkpt>
      <trkpt lat="45.84859" lon="5.77707">
        <ele>255.5</ele>
        <time>2021-08-22T08:35:42Z</time>
      </trkpt>
      <trkpt lat="45.84858" lon="5.77714">
        <ele>255.3</ele>
        <time>2021-08-22T08:35:43Z</time>
      </trkpt>
      <trkpt lat="45.84857" lon="5.7773">
        <ele>254.8</ele>
        <time>2021-08-22T08:35:45Z</time>
      </trkpt>
      <trkpt lat="45.84856" lon="5.77739">
        <ele>254.5</ele>
        <time>2021-08-22T08:35:46Z</time>
      </trkpt>
      <trkpt lat="45.84855" lon="5.77755">
        <ele>254.1</ele>
        <time>2021-08-22T08:35:48Z</time>
      </trkpt>
      <trkpt lat="45.84854" lon="5.77763">
        <ele>253.9</ele>
        <time>2021-08-22T08:35:49Z</time>
      </trkpt>
      <trkpt lat="45.84853" lon="5.7778">
        <ele>253.4</ele>
        <time>2021-08-22T08:35:51Z</time>
      </trkpt>
      <trkpt lat="45.84851" lon="5.77798">
        <ele>253</ele>
        <time>2021-08-22T08:35:53Z</time>
      </trkpt>
      <trkpt lat="45.84849" lon="5.77817">
        <ele>252.6</ele>
        <time>2021-08-22T08:35:55Z</time>
      </trkpt>
      <trkpt lat="45.84848" lon="5.77827">
        <ele>252.5</ele>
        <time>2021-08-22T08:35:56Z</time>
      </trkpt>
      <trkpt lat="45.84846" lon="5.77846">
        <ele>252.2</ele>
        <time>2021-08-22T08:35:58Z</time>
      </trkpt>
      <trkpt lat="45.84843" lon="5.77868">
        <ele>251.9</ele>
        <time>2021-08-22T08:36:00Z</time>
      </trkpt>
      <trkpt lat="45.84842" lon="5.77878">
        <ele>251.8</ele>
        <time>2021-08-22T08:36:01Z</time>
      </trkpt>
      <trkpt lat="45.8484" lon="5.77897">
        <ele>251.7</ele>
        <time>2021-08-22T08:36:03Z</time>
      </trkpt>
      <trkpt lat="45.84839" lon="5.77908">
        <ele>251.7</ele>
        <time>2021-08-22T08:36:04Z</time>
      </trkpt>
      <trkpt lat="45.84838" lon="5.77918">
        <ele>251.7</ele>
        <time>2021-08-22T08:36:05Z</time>
      </trkpt>
      <trkpt lat="45.84833" lon="5.77938">
        <ele>251.8</ele>
        <time>2021-08-22T08:36:07Z</time>
      </trkpt>
      <trkpt lat="45.8483" lon="5.77956">
        <ele>251.9</ele>
        <time>2021-08-22T08:36:09Z</time>
      </trkpt>
      <trkpt lat="45.84827" lon="5.77971">
        <ele>252</ele>
        <time>2021-08-22T08:36:11Z</time>
      </trkpt>
      <trkpt lat="45.84823" lon="5.77985">
        <ele>252</ele>
        <time>2021-08-22T08:36:13Z</time>
      </trkpt>
      <trkpt lat="45.84821" lon="5.78">
        <ele>252.1</ele>
        <time>2021-08-22T08:36:15Z</time>
      </trkpt>
      <trkpt lat="45.84819" lon="5.78007">
        <ele>252.1</ele>
        <time>2021-08-22T08:36:16Z</time>
      </trkpt>
      <trkpt lat="45.84816" lon="5.7802">
        <ele>252.1</ele>
        <time>2021-08-22T08:36:18Z</time>
      </trkpt>
      <trkpt lat="45.84815" lon="5.78026">
        <ele>252.1</ele>
        <time>2021-08-22T08:36:19Z</time>
      </trkpt>
      <trkpt lat="45.84814" lon="5.78031">
        <ele>252.2</ele>
        <time>2021-08-22T08:36:20Z</time>
      </trkpt>
      <trkpt lat="45.84814" lon="5.78042">
        <ele>252.2</ele>
        <time>2021-08-22T08:36:22Z</time>
      </trkpt>
      <trkpt lat="45.84814" lon="5.78053">
        <ele>252.1</ele>
        <time>2021-08-22T08:36:24Z</time>
      </trkpt>
      <trkpt lat="45.84813" lon="5.7806">
        <ele>252.1</ele>
        <time>2021-08-22T08:36:25Z</time>
      </trkpt>
      <trkpt lat="45.84811" lon="5.78066">
        <ele>252.1</ele>
        <time>2021-08-22T08:36:26Z</time>
      </trkpt>
      <trkpt lat="45.84802" lon="5.78074">
        <ele>252.1</ele>
        <time>2021-08-22T08:36:28Z</time>
      </trkpt>
      <trkpt lat="45.84795" lon="5.7808">
        <ele>252.1</ele>
        <time>2021-08-22T08:36:30Z</time>
      </trkpt>
      <trkpt lat="45.8479" lon="5.78084">
        <ele>252</ele>
        <time>2021-08-22T08:36:31Z</time>
      </trkpt>
      <trkpt lat="45.84791" lon="5.78093">
        <ele>252</ele>
        <time>2021-08-22T08:36:32Z</time>
      </trkpt>
      <trkpt lat="45.84789" lon="5.7811">
        <ele>251.4</ele>
        <time>2021-08-22T08:36:34Z</time>
      </trkpt>
      <trkpt lat="45.84786" lon="5.78117">
        <ele>251.2</ele>
        <time>2021-08-22T08:36:35Z</time>
      </trkpt>
      <trkpt lat="45.84785" lon="5.78133">
        <ele>250.8</ele>
        <time>2021-08-22T08:36:37Z</time>
      </trkpt>
      <trkpt lat="45.84786" lon="5.78154">
        <ele>250.3</ele>
        <time>2021-08-22T08:36:39Z</time>
      </trkpt>
      <trkpt lat="45.84788" lon="5.78173">
        <ele>250</ele>
        <time>2021-08-22T08:36:41Z</time>
      </trkpt>
      <trkpt lat="45.84786" lon="5.78194">
        <ele>249.6</ele>
        <time>2021-08-22T08:36:43Z</time>
      </trkpt>
      <trkpt lat="45.84787" lon="5.78215">
        <ele>249.2</ele>
        <time>2021-08-22T08:36:45Z</time>
      </trkpt>
      <trkpt lat="45.84787" lon="5.78234">
        <ele>248.8</ele>
        <time>2021-08-22T08:36:47Z</time>
      </trkpt>
      <trkpt lat="45.84789" lon="5.78243">
        <ele>248.7</ele>
        <time>2021-08-22T08:36:48Z</time>
      </trkpt>
      <trkpt lat="45.84792" lon="5.78262">
        <ele>248.4</ele>
        <time>2021-08-22T08:36:50Z</time>
      </trkpt>
      <trkpt lat="45.84793" lon="5.78282">
        <ele>248.2</ele>
        <time>2021-08-22T08:36:52Z</time>
      </trkpt>
      <trkpt lat="45.84793" lon="5.78303">
        <ele>247.9</ele>
        <time>2021-08-22T08:36:54Z</time>
      </trkpt>
      <trkpt lat="45.84792" lon="5.78314">
        <ele>247.7</ele>
        <time>2021-08-22T08:36:55Z</time>
      </trkpt>
      <trkpt lat="45.84791" lon="5.78324">
        <ele>247.4</ele>
        <time>2021-08-22T08:36:56Z</time>
      </trkpt>
      <trkpt lat="45.8479" lon="5.78342">
        <ele>246.8</ele>
        <time>2021-08-22T08:36:58Z</time>
      </trkpt>
      <trkpt lat="45.8479" lon="5.78359">
        <ele>246.3</ele>
        <time>2021-08-22T08:37:00Z</time>
      </trkpt>
      <trkpt lat="45.84787" lon="5.78374">
        <ele>245.9</ele>
        <time>2021-08-22T08:37:02Z</time>
      </trkpt>
      <trkpt lat="45.84785" lon="5.78379">
        <ele>245.8</ele>
        <time>2021-08-22T08:37:03Z</time>
      </trkpt>
      <trkpt lat="45.84783" lon="5.78385">
        <ele>245.7</ele>
        <time>2021-08-22T08:37:04Z</time>
      </trkpt>
      <trkpt lat="45.84781" lon="5.78399">
        <ele>245.4</ele>
        <time>2021-08-22T08:37:06Z</time>
      </trkpt>
      <trkpt lat="45.8478" lon="5.78407">
        <ele>245.2</ele>
        <time>2021-08-22T08:37:07Z</time>
      </trkpt>
      <trkpt lat="45.84779" lon="5.78414">
        <ele>245.1</ele>
        <time>2021-08-22T08:37:08Z</time>
      </trkpt>
      <trkpt lat="45.84776" lon="5.78429">
        <ele>244.7</ele>
        <time>2021-08-22T08:37:10Z</time>
      </trkpt>
      <trkpt lat="45.84775" lon="5.78438">
        <ele>244.5</ele>
        <time>2021-08-22T08:37:11Z</time>
      </trkpt>
      <trkpt lat="45.84773" lon="5.78456">
        <ele>244.1</ele>
        <time>2021-08-22T08:37:13Z</time>
      </trkpt>
      <trkpt lat="45.84771" lon="5.78475">
        <ele>243.7</ele>
        <time>2021-08-22T08:37:15Z</time>
      </trkpt>
      <trkpt lat="45.8477" lon="5.78484">
        <ele>243.5</ele>
        <time>2021-08-22T08:37:16Z</time>
      </trkpt>
      <trkpt lat="45.84769" lon="5.78493">
        <ele>243.3</ele>
        <time>2021-08-22T08:37:17Z</time>
      </trkpt>
      <trkpt lat="45.84767" lon="5.7851">
        <ele>242.9</ele>
        <time>2021-08-22T08:37:19Z</time>
      </trkpt>
      <trkpt lat="45.84766" lon="5.78519">
        <ele>242.7</ele>
        <time>2021-08-22T08:37:20Z</time>
      </trkpt>
      <trkpt lat="45.84764" lon="5.78537">
        <ele>242.3</ele>
        <time>2021-08-22T08:37:22Z</time>
      </trkpt>
      <trkpt lat="45.84763" lon="5.78546">
        <ele>242.1</ele>
        <time>2021-08-22T08:37:23Z</time>
      </trkpt>
      <trkpt lat="45.84763" lon="5.78556">
        <ele>241.9</ele>
        <time>2021-08-22T08:37:24Z</time>
      </trkpt>
      <trkpt lat="45.84763" lon="5.78575">
        <ele>241.5</ele>
        <time>2021-08-22T08:37:26Z</time>
      </trkpt>
      <trkpt lat="45.84764" lon="5.78584">
        <ele>241.3</ele>
        <time>2021-08-22T08:37:27Z</time>
      </trkpt>
      <trkpt lat="45.84764" lon="5.78594">
        <ele>241.2</ele>
        <time>2021-08-22T08:37:28Z</time>
      </trkpt>
      <trkpt lat="45.84765" lon="5.78613">
        <ele>240.9</ele>
        <time>2021-08-22T08:37:30Z</time>
      </trkpt>
      <trkpt lat="45.84767" lon="5.7862">
        <ele>240.8</ele>
        <time>2021-08-22T08:37:31Z</time>
      </trkpt>
      <trkpt lat="45.8477" lon="5.78625">
        <ele>240.7</ele>
        <time>2021-08-22T08:37:32Z</time>
      </trkpt>
      <trkpt lat="45.84776" lon="5.78639">
        <ele>240.6</ele>
        <time>2021-08-22T08:37:34Z</time>
      </trkpt>
      <trkpt lat="45.84778" lon="5.78647">
        <ele>240.5</ele>
        <time>2021-08-22T08:37:35Z</time>
      </trkpt>
      <trkpt lat="45.84781" lon="5.78655">
        <ele>240.5</ele>
        <time>2021-08-22T08:37:36Z</time>
      </trkpt>
      <trkpt lat="45.84783" lon="5.78662">
        <ele>240.4</ele>
        <time>2021-08-22T08:37:37Z</time>
      </trkpt>
      <trkpt lat="45.84786" lon="5.78669">
        <ele>240.4</ele>
        <time>2021-08-22T08:37:38Z</time>
      </trkpt>
      <trkpt lat="45.84789" lon="5.7868">
        <ele>240.3</ele>
        <time>2021-08-22T08:37:40Z</time>
      </trkpt>
      <trkpt lat="45.8479" lon="5.78682">
        <ele>240.3</ele>
        <time>2021-08-22T08:37:41Z</time>
      </trkpt>
      <trkpt lat="45.84789" lon="5.78691">
        <ele>240.3</ele>
        <time>2021-08-22T08:37:43Z</time>
      </trkpt>
      <trkpt lat="45.84788" lon="5.78694">
        <ele>240.3</ele>
        <time>2021-08-22T08:37:44Z</time>
      </trkpt>
      <trkpt lat="45.84784" lon="5.78696">
        <ele>240.4</ele>
        <time>2021-08-22T08:37:46Z</time>
      </trkpt>
      <trkpt lat="45.84781" lon="5.78694">
        <ele>240.4</ele>
        <time>2021-08-22T08:37:47Z</time>
      </trkpt>
      <trkpt lat="45.84777" lon="5.78694">
        <ele>240.4</ele>
        <time>2021-08-22T08:37:49Z</time>
      </trkpt>
      <trkpt lat="45.84772" lon="5.78694">
        <ele>240.5</ele>
        <time>2021-08-22T08:37:50Z</time>
      </trkpt>
      <trkpt lat="45.84766" lon="5.78691">
        <ele>240.5</ele>
        <time>2021-08-22T08:37:51Z</time>
      </trkpt>
      <trkpt lat="45.84759" lon="5.78686">
        <ele>240.4</ele>
        <time>2021-08-22T08:37:53Z</time>
      </trkpt>
      <trkpt lat="45.84754" lon="5.78681">
        <ele>240.3</ele>
        <time>2021-08-22T08:37:54Z</time>
      </trkpt>
      <trkpt lat="45.84749" lon="5.78676">
        <ele>240.3</ele>
        <time>2021-08-22T08:37:55Z</time>
      </trkpt>
      <trkpt lat="45.84744" lon="5.78671">
        <ele>240.2</ele>
        <time>2021-08-22T08:37:56Z</time>
      </trkpt>
      <trkpt lat="45.84738" lon="5.78663">
        <ele>239.5</ele>
        <time>2021-08-22T08:37:57Z</time>
      </trkpt>
      <trkpt lat="45.84728" lon="5.78651">
        <ele>238.9</ele>
        <time>2021-08-22T08:37:59Z</time>
      </trkpt>
      <trkpt lat="45.84724" lon="5.78646">
        <ele>238.7</ele>
        <time>2021-08-22T08:38:00Z</time>
      </trkpt>
      <trkpt lat="45.84716" lon="5.78633">
        <ele>238.2</ele>
        <time>2021-08-22T08:38:02Z</time>
      </trkpt>
      <trkpt lat="45.84712" lon="5.78627">
        <ele>238</ele>
        <time>2021-08-22T08:38:03Z</time>
      </trkpt>
      <trkpt lat="45.84708" lon="5.78623">
        <ele>237.9</ele>
        <time>2021-08-22T08:38:04Z</time>
      </trkpt>
      <trkpt lat="45.84705" lon="5.78617">
        <ele>237.7</ele>
        <time>2021-08-22T08:38:06Z</time>
      </trkpt>
      <trkpt lat="45.84701" lon="5.78612">
        <ele>237.6</ele>
        <time>2021-08-22T08:38:07Z</time>
      </trkpt>
      <trkpt lat="45.84699" lon="5.78609">
        <ele>237.5</ele>
        <time>2021-08-22T08:38:08Z</time>
      </trkpt>
      <trkpt lat="45.84692" lon="5.78604">
        <ele>237.3</ele>
        <time>2021-08-22T08:38:10Z</time>
      </trkpt>
      <trkpt lat="45.84688" lon="5.78602">
        <ele>237.2</ele>
        <time>2021-08-22T08:38:11Z</time>
      </trkpt>
      <trkpt lat="45.84685" lon="5.78601">
        <ele>237.2</ele>
        <time>2021-08-22T08:38:12Z</time>
      </trkpt>
      <trkpt lat="45.84678" lon="5.78602">
        <ele>237</ele>
        <time>2021-08-22T08:38:14Z</time>
      </trkpt>
      <trkpt lat="45.84671" lon="5.78605">
        <ele>236.9</ele>
        <time>2021-08-22T08:38:16Z</time>
      </trkpt>
      <trkpt lat="45.84668" lon="5.78608">
        <ele>236.8</ele>
        <time>2021-08-22T08:38:17Z</time>
      </trkpt>
      <trkpt lat="45.84663" lon="5.78612">
        <ele>236.7</ele>
        <time>2021-08-22T08:38:19Z</time>
      </trkpt>
      <trkpt lat="45.8466" lon="5.78613">
        <ele>236.7</ele>
        <time>2021-08-22T08:38:20Z</time>
      </trkpt>
      <trkpt lat="45.84657" lon="5.78614">
        <ele>236.6</ele>
        <time>2021-08-22T08:38:22Z</time>
      </trkpt>
      <trkpt lat="45.84656" lon="5.78615">
        <ele>236.6</ele>
        <time>2021-08-22T08:38:23Z</time>
      </trkpt>
      <trkpt lat="45.84654" lon="5.78616">
        <ele>236.8</ele>
        <time>2021-08-22T08:38:24Z</time>
      </trkpt>
      <trkpt lat="45.84653" lon="5.78617">
        <ele>236.9</ele>
        <time>2021-08-22T08:38:25Z</time>
      </trkpt>
      <trkpt lat="45.84651" lon="5.78618">
        <ele>237</ele>
        <time>2021-08-22T08:38:27Z</time>
      </trkpt>
      <trkpt lat="45.84651" lon="5.78619">
        <ele>237</ele>
        <time>2021-08-22T08:38:29Z</time>
      </trkpt>
      <trkpt lat="45.8465" lon="5.78619">
        <ele>237</ele>
        <time>2021-08-22T08:38:31Z</time>
      </trkpt>
      <trkpt lat="45.8465" lon="5.78618">
        <ele>237.1</ele>
        <time>2021-08-22T08:38:32Z</time>
      </trkpt>
      <trkpt lat="45.8465" lon="5.78618">
        <ele>237.1</ele>
        <time>2021-08-22T08:38:34Z</time>
      </trkpt>
      <trkpt lat="45.84649" lon="5.78618">
        <ele>237.1</ele>
        <time>2021-08-22T08:38:35Z</time>
      </trkpt>
      <trkpt lat="45.84649" lon="5.78618">
        <ele>237.1</ele>
        <time>2021-08-22T08:39:42Z</time>
      </trkpt>
      <trkpt lat="45.84648" lon="5.78618">
        <ele>237.2</ele>
        <time>2021-08-22T08:39:44Z</time>
      </trkpt>
      <trkpt lat="45.84648" lon="5.78618">
        <ele>237.2</ele>
        <time>2021-08-22T08:39:45Z</time>
      </trkpt>
      <trkpt lat="45.84648" lon="5.78617">
        <ele>237.2</ele>
        <time>2021-08-22T08:39:48Z</time>
      </trkpt>
      <trkpt lat="45.84647" lon="5.78617">
        <ele>237.2</ele>
        <time>2021-08-22T08:39:50Z</time>
      </trkpt>
      <trkpt lat="45.84647" lon="5.78617">
        <ele>237.3</ele>
        <time>2021-08-22T08:39:51Z</time>
      </trkpt>
      <trkpt lat="45.84646" lon="5.78617">
        <ele>237.3</ele>
        <time>2021-08-22T08:39:58Z</time>
      </trkpt>
      <trkpt lat="45.84646" lon="5.78617">
        <ele>237.3</ele>
        <time>2021-08-22T08:40:05Z</time>
      </trkpt>
      <trkpt lat="45.84646" lon="5.78617">
        <ele>237.3</ele>
        <time>2021-08-22T08:40:11Z</time>
      </trkpt>
      <trkpt lat="45.84645" lon="5.78616">
        <ele>237.4</ele>
        <time>2021-08-22T08:40:21Z</time>
      </trkpt>
      <trkpt lat="45.84645" lon="5.78616">
        <ele>237.4</ele>
        <time>2021-08-22T08:40:22Z</time>
      </trkpt>
      <trkpt lat="45.84645" lon="5.78616">
        <ele>237.4</ele>
        <time>2021-08-22T08:40:23Z</time>
      </trkpt>
      <trkpt lat="45.84644" lon="5.78616">
        <ele>237.4</ele>
        <time>2021-08-22T08:40:24Z</time>
      </trkpt>
      <trkpt lat="45.84642" lon="5.78616">
        <ele>237.5</ele>
        <time>2021-08-22T08:40:25Z</time>
      </trkpt>
      <trkpt lat="45.84641" lon="5.78617">
        <ele>237.7</ele>
        <time>2021-08-22T08:40:27Z</time>
      </trkpt>
      <trkpt lat="45.84639" lon="5.78618">
        <ele>237.8</ele>
        <time>2021-08-22T08:40:29Z</time>
      </trkpt>
      <trkpt lat="45.84639" lon="5.7862">
        <ele>237.7</ele>
        <time>2021-08-22T08:40:30Z</time>
      </trkpt>
      <trkpt lat="45.84639" lon="5.78622">
        <ele>237.6</ele>
        <time>2021-08-22T08:40:31Z</time>
      </trkpt>
      <trkpt lat="45.84641" lon="5.78624">
        <ele>237.6</ele>
        <time>2021-08-22T08:40:32Z</time>
      </trkpt>
      <trkpt lat="45.84643" lon="5.78625">
        <ele>237.6</ele>
        <time>2021-08-22T08:40:33Z</time>
      </trkpt>
      <trkpt lat="45.84644" lon="5.78626">
        <ele>237.6</ele>
        <time>2021-08-22T08:40:34Z</time>
      </trkpt>
      <trkpt lat="45.84646" lon="5.78628">
        <ele>237.5</ele>
        <time>2021-08-22T08:40:36Z</time>
      </trkpt>
      <trkpt lat="45.84647" lon="5.78628">
        <ele>237.5</ele>
        <time>2021-08-22T08:40:38Z</time>
      </trkpt>
      <trkpt lat="45.84648" lon="5.78628">
        <ele>237.5</ele>
        <time>2021-08-22T08:40:39Z</time>
      </trkpt>
      <trkpt lat="45.84649" lon="5.78628">
        <ele>237.5</ele>
        <time>2021-08-22T08:40:40Z</time>
      </trkpt>
      <trkpt lat="45.8465" lon="5.78629">
        <ele>237.5</ele>
        <time>2021-08-22T08:40:41Z</time>
      </trkpt>
      <trkpt lat="45.84651" lon="5.78631">
        <ele>237.4</ele>
        <time>2021-08-22T08:40:42Z</time>
      </trkpt>
      <trkpt lat="45.84652" lon="5.78632">
        <ele>237.4</ele>
        <time>2021-08-22T08:40:44Z</time>
      </trkpt>
      <trkpt lat="45.84653" lon="5.78633">
        <ele>237.4</ele>
        <time>2021-08-22T08:40:45Z</time>
      </trkpt>
      <trkpt lat="45.84653" lon="5.78635">
        <ele>237.4</ele>
        <time>2021-08-22T08:40:47Z</time>
      </trkpt>
      <trkpt lat="45.84654" lon="5.78636">
        <ele>237.3</ele>
        <time>2021-08-22T08:40:48Z</time>
      </trkpt>
      <trkpt lat="45.84654" lon="5.78638">
        <ele>237.3</ele>
        <time>2021-08-22T08:40:50Z</time>
      </trkpt>
      <trkpt lat="45.84655" lon="5.78638">
        <ele>237.3</ele>
        <time>2021-08-22T08:40:51Z</time>
      </trkpt>
      <trkpt lat="45.84655" lon="5.78639">
        <ele>237.3</ele>
        <time>2021-08-22T08:40:53Z</time>
      </trkpt>
      <trkpt lat="45.84656" lon="5.7864">
        <ele>237.3</ele>
        <time>2021-08-22T08:40:54Z</time>
      </trkpt>
      <trkpt lat="45.84657" lon="5.78641">
        <ele>237.3</ele>
        <time>2021-08-22T08:40:56Z</time>
      </trkpt>
      <trkpt lat="45.84657" lon="5.78642">
        <ele>237.3</ele>
        <time>2021-08-22T08:41:01Z</time>
      </trkpt>
      <trkpt lat="45.84657" lon="5.78642">
        <ele>237.3</ele>
        <time>2021-08-22T08:41:03Z</time>
      </trkpt>
      <trkpt lat="45.84657" lon="5.78642">
        <ele>237.3</ele>
        <time>2021-08-22T08:41:09Z</time>
      </trkpt>
      <trkpt lat="45.84658" lon="5.78642">
        <ele>237.3</ele>
        <time>2021-08-22T08:41:16Z</time>
      </trkpt>
      <trkpt lat="45.84658" lon="5.78642">
        <ele>237.3</ele>
        <time>2021-08-22T08:41:22Z</time>
      </trkpt>
      <trkpt lat="45.84658" lon="5.78642">
        <ele>237.2</ele>
        <time>2021-08-22T08:41:28Z</time>
      </trkpt>
      <trkpt lat="45.84658" lon="5.78643">
        <ele>237.2</ele>
        <time>2021-08-22T08:41:35Z</time>
      </trkpt>
      <trkpt lat="45.84658" lon="5.78643">
        <ele>237.2</ele>
        <time>2021-08-22T08:41:41Z</time>
      </trkpt>
      <trkpt lat="45.84658" lon="5.78643">
        <ele>237.2</ele>
        <time>2021-08-22T08:41:48Z</time>
      </trkpt>
      <trkpt lat="45.84659" lon="5.78643">
        <ele>237.2</ele>
        <time>2021-08-22T08:41:48Z</time>
      </trkpt>
      <trkpt lat="45.84657" lon="5.78643">
        <ele>237.2</ele>
        <time>2021-08-22T08:41:54Z</time>
      </trkpt>
      <trkpt lat="45.84656" lon="5.78643">
        <ele>237.2</ele>
        <time>2021-08-22T08:42:00Z</time>
      </trkpt>
      <trkpt lat="45.84657" lon="5.78644">
        <ele>237.2</ele>
        <time>2021-08-22T08:42:02Z</time>
      </trkpt>
      <trkpt lat="45.84657" lon="5.78644">
        <ele>237.2</ele>
        <time>2021-08-22T08:42:07Z</time>
      </trkpt>
      <trkpt lat="45.84657" lon="5.78642">
        <ele>237.2</ele>
        <time>2021-08-22T08:42:14Z</time>
      </trkpt>
      <trkpt lat="45.84657" lon="5.7864">
        <ele>237.1</ele>
        <time>2021-08-22T08:42:19Z</time>
      </trkpt>
      <trkpt lat="45.84657" lon="5.78638">
        <ele>237.1</ele>
        <time>2021-08-22T08:42:21Z</time>
      </trkpt>
      <trkpt lat="45.84659" lon="5.78628">
        <ele>237</ele>
        <time>2021-08-22T08:42:27Z</time>
      </trkpt>
      <trkpt lat="45.84658" lon="5.78632">
        <ele>236.9</ele>
        <time>2021-08-22T08:42:31Z</time>
      </trkpt>
      <trkpt lat="45.84657" lon="5.78637">
        <ele>236.9</ele>
        <time>2021-08-22T08:42:32Z</time>
      </trkpt>
      <trkpt lat="45.84657" lon="5.78638">
        <ele>236.9</ele>
        <time>2021-08-22T08:42:34Z</time>
      </trkpt>
      <trkpt lat="45.84657" lon="5.78638">
        <ele>236.9</ele>
        <time>2021-08-22T08:42:41Z</time>
      </trkpt>
      <trkpt lat="45.84657" lon="5.78638">
        <ele>236.9</ele>
        <time>2021-08-22T08:42:47Z</time>
      </trkpt>
      <trkpt lat="45.84657" lon="5.78638">
        <ele>236.9</ele>
        <time>2021-08-22T08:43:00Z</time>
      </trkpt>
      <trkpt lat="45.84657" lon="5.78638">
        <ele>236.9</ele>
        <time>2021-08-22T08:43:06Z</time>
      </trkpt>
      <trkpt lat="45.84656" lon="5.78638">
        <ele>236.9</ele>
        <time>2021-08-22T08:43:13Z</time>
      </trkpt>
      <trkpt lat="45.84656" lon="5.78638">
        <ele>236.9</ele>
        <time>2021-08-22T08:43:19Z</time>
      </trkpt>
      <trkpt lat="45.84656" lon="5.78638">
        <ele>236.9</ele>
        <time>2021-08-22T08:43:26Z</time>
      </trkpt>
      <trkpt lat="45.84656" lon="5.78638">
        <ele>236.9</ele>
        <time>2021-08-22T08:43:32Z</time>
      </trkpt>
      <trkpt lat="45.84656" lon="5.78639">
        <ele>236.9</ele>
        <time>2021-08-22T08:43:39Z</time>
      </trkpt>
      <trkpt lat="45.84656" lon="5.78639">
        <ele>236.9</ele>
        <time>2021-08-22T08:43:45Z</time>
      </trkpt>
      <trkpt lat="45.84656" lon="5.78639">
        <ele>236.9</ele>
        <time>2021-08-22T08:43:51Z</time>
      </trkpt>
      <trkpt lat="45.84655" lon="5.78639">
        <ele>236.8</ele>
        <time>2021-08-22T08:43:58Z</time>
      </trkpt>
      <trkpt lat="45.84655" lon="5.78639">
        <ele>236.8</ele>
        <time>2021-08-22T08:44:04Z</time>
      </trkpt>
      <trkpt lat="45.84655" lon="5.78639">
        <ele>236.8</ele>
        <time>2021-08-22T08:44:11Z</time>
      </trkpt>
      <trkpt lat="45.84655" lon="5.78639">
        <ele>236.8</ele>
        <time>2021-08-22T08:44:17Z</time>
      </trkpt>
      <trkpt lat="45.84655" lon="5.78639">
        <ele>236.8</ele>
        <time>2021-08-22T08:44:23Z</time>
      </trkpt>
      <trkpt lat="45.84655" lon="5.78639">
        <ele>236.8</ele>
        <time>2021-08-22T08:44:30Z</time>
      </trkpt>
      <trkpt lat="45.84654" lon="5.78639">
        <ele>236.8</ele>
        <time>2021-08-22T08:44:30Z</time>
      </trkpt>
      <trkpt lat="45.84658" lon="5.78634">
        <ele>236.7</ele>
        <time>2021-08-22T08:44:36Z</time>
      </trkpt>
      <trkpt lat="45.84659" lon="5.78633">
        <ele>236.7</ele>
        <time>2021-08-22T08:44:43Z</time>
      </trkpt>
      <trkpt lat="45.84659" lon="5.78631">
        <ele>236.7</ele>
        <time>2021-08-22T08:44:49Z</time>
      </trkpt>
      <trkpt lat="45.8466" lon="5.7863">
        <ele>236.7</ele>
        <time>2021-08-22T08:45:02Z</time>
      </trkpt>
      <trkpt lat="45.8466" lon="5.78628">
        <ele>236.7</ele>
        <time>2021-08-22T08:45:08Z</time>
      </trkpt>
      <trkpt lat="45.8466" lon="5.78627">
        <ele>236.7</ele>
        <time>2021-08-22T08:45:15Z</time>
      </trkpt>
      <trkpt lat="45.84661" lon="5.78625">
        <ele>236.6</ele>
        <time>2021-08-22T08:45:21Z</time>
      </trkpt>
      <trkpt lat="45.84661" lon="5.78624">
        <ele>236.6</ele>
        <time>2021-08-22T08:45:28Z</time>
      </trkpt>
      <trkpt lat="45.84662" lon="5.78622">
        <ele>236.6</ele>
        <time>2021-08-22T08:45:28Z</time>
      </trkpt>
      <trkpt lat="45.84659" lon="5.78632">
        <ele>236.5</ele>
        <time>2021-08-22T08:45:34Z</time>
      </trkpt>
      <trkpt lat="45.84658" lon="5.7863">
        <ele>236.4</ele>
        <time>2021-08-22T08:45:41Z</time>
      </trkpt>
      <trkpt lat="45.8466" lon="5.78631">
        <ele>236.4</ele>
        <time>2021-08-22T08:45:47Z</time>
      </trkpt>
      <trkpt lat="45.84659" lon="5.78644">
        <ele>236.3</ele>
        <time>2021-08-22T08:46:06Z</time>
      </trkpt>
      <trkpt lat="45.84662" lon="5.78641">
        <ele>236.2</ele>
        <time>2021-08-22T08:46:13Z</time>
      </trkpt>
      <trkpt lat="45.84661" lon="5.78636">
        <ele>236.1</ele>
        <time>2021-08-22T08:46:19Z</time>
      </trkpt>
      <trkpt lat="45.84661" lon="5.78635">
        <ele>236.1</ele>
        <time>2021-08-22T08:46:22Z</time>
      </trkpt>
      <trkpt lat="45.84661" lon="5.78635">
        <ele>236.1</ele>
        <time>2021-08-22T08:46:24Z</time>
      </trkpt>
      <trkpt lat="45.84661" lon="5.78632">
        <ele>235.6</ele>
        <time>2021-08-22T08:46:34Z</time>
      </trkpt>
      <trkpt lat="45.84661" lon="5.78631">
        <ele>235.7</ele>
        <time>2021-08-22T08:46:35Z</time>
      </trkpt>
      <trkpt lat="45.84661" lon="5.7863">
        <ele>235.7</ele>
        <time>2021-08-22T08:46:39Z</time>
      </trkpt>
      <trkpt lat="45.84662" lon="5.78629">
        <ele>235.7</ele>
        <time>2021-08-22T08:46:40Z</time>
      </trkpt>
      <trkpt lat="45.84662" lon="5.78628">
        <ele>235.7</ele>
        <time>2021-08-22T08:46:41Z</time>
      </trkpt>
      <trkpt lat="45.84663" lon="5.78628">
        <ele>235.8</ele>
        <time>2021-08-22T08:46:42Z</time>
      </trkpt>
      <trkpt lat="45.84663" lon="5.78627">
        <ele>235.8</ele>
        <time>2021-08-22T08:46:44Z</time>
      </trkpt>
      <trkpt lat="45.84663" lon="5.78627">
        <ele>235.8</ele>
        <time>2021-08-22T08:46:45Z</time>
      </trkpt>
      <trkpt lat="45.84664" lon="5.78624">
        <ele>235.9</ele>
        <time>2021-08-22T08:46:46Z</time>
      </trkpt>
      <trkpt lat="45.84665" lon="5.78623">
        <ele>235.9</ele>
        <time>2021-08-22T08:46:47Z</time>
      </trkpt>
      <trkpt lat="45.84665" lon="5.78623">
        <ele>235.9</ele>
        <time>2021-08-22T08:46:49Z</time>
      </trkpt>
      <trkpt lat="45.84665" lon="5.78624">
        <ele>235.9</ele>
        <time>2021-08-22T08:46:50Z</time>
      </trkpt>
      <trkpt lat="45.84665" lon="5.78625">
        <ele>236</ele>
        <time>2021-08-22T08:46:51Z</time>
      </trkpt>
      <trkpt lat="45.84667" lon="5.78627">
        <ele>236</ele>
        <time>2021-08-22T08:46:52Z</time>
      </trkpt>
      <trkpt lat="45.84668" lon="5.78628">
        <ele>236.1</ele>
        <time>2021-08-22T08:46:54Z</time>
      </trkpt>
      <trkpt lat="45.84669" lon="5.78629">
        <ele>236.1</ele>
        <time>2021-08-22T08:46:55Z</time>
      </trkpt>
      <trkpt lat="45.84669" lon="5.78631">
        <ele>236.2</ele>
        <time>2021-08-22T08:46:56Z</time>
      </trkpt>
      <trkpt lat="45.84667" lon="5.78631">
        <ele>236.2</ele>
        <time>2021-08-22T08:46:58Z</time>
      </trkpt>
      <trkpt lat="45.84666" lon="5.7863">
        <ele>236.3</ele>
        <time>2021-08-22T08:46:59Z</time>
      </trkpt>
      <trkpt lat="45.84664" lon="5.78631">
        <ele>236.3</ele>
        <time>2021-08-22T08:47:01Z</time>
      </trkpt>
      <trkpt lat="45.84661" lon="5.78633">
        <ele>236.5</ele>
        <time>2021-08-22T08:47:03Z</time>
      </trkpt>
      <trkpt lat="45.84665" lon="5.7864">
        <ele>236.7</ele>
        <time>2021-08-22T08:47:05Z</time>
      </trkpt>
      <trkpt lat="45.84671" lon="5.78645">
        <ele>237</ele>
        <time>2021-08-22T08:47:06Z</time>
      </trkpt>
      <trkpt lat="45.84678" lon="5.7865">
        <ele>237.2</ele>
        <time>2021-08-22T08:53:20Z</time>
      </trkpt>
      <trkpt lat="45.84684" lon="5.78655">
        <ele>237.5</ele>
        <time>2021-08-22T08:53:22Z</time>
      </trkpt>
      <trkpt lat="45.84695" lon="5.7866">
        <ele>237.9</ele>
        <time>2021-08-22T08:53:23Z</time>
      </trkpt>
      <trkpt lat="45.84704" lon="5.78667">
        <ele>238.4</ele>
        <time>2021-08-22T08:53:25Z</time>
      </trkpt>
      <trkpt lat="45.8471" lon="5.78671">
        <ele>238.6</ele>
        <time>2021-08-22T08:53:26Z</time>
      </trkpt>
      <trkpt lat="45.84716" lon="5.78674">
        <ele>238.9</ele>
        <time>2021-08-22T08:53:27Z</time>
      </trkpt>
      <trkpt lat="45.84721" lon="5.78677">
        <ele>239.2</ele>
        <time>2021-08-22T08:53:28Z</time>
      </trkpt>
      <trkpt lat="45.84726" lon="5.78679">
        <ele>239.8</ele>
        <time>2021-08-22T08:53:29Z</time>
      </trkpt>
      <trkpt lat="45.84731" lon="5.78681">
        <ele>239.9</ele>
        <time>2021-08-22T08:53:30Z</time>
      </trkpt>
      <trkpt lat="45.84736" lon="5.78682">
        <ele>240.1</ele>
        <time>2021-08-22T08:53:31Z</time>
      </trkpt>
      <trkpt lat="45.84741" lon="5.78684">
        <ele>240.1</ele>
        <time>2021-08-22T08:53:33Z</time>
      </trkpt>
      <trkpt lat="45.84745" lon="5.78686">
        <ele>240.2</ele>
        <time>2021-08-22T08:53:34Z</time>
      </trkpt>
      <trkpt lat="45.84749" lon="5.78687">
        <ele>240.3</ele>
        <time>2021-08-22T08:53:35Z</time>
      </trkpt>
      <trkpt lat="45.84753" lon="5.78688">
        <ele>240.3</ele>
        <time>2021-08-22T08:53:36Z</time>
      </trkpt>
      <trkpt lat="45.8476" lon="5.78689">
        <ele>240.4</ele>
        <time>2021-08-22T08:53:38Z</time>
      </trkpt>
      <trkpt lat="45.84765" lon="5.78687">
        <ele>240.5</ele>
        <time>2021-08-22T08:53:39Z</time>
      </trkpt>
      <trkpt lat="45.84773" lon="5.78686">
        <ele>240.4</ele>
        <time>2021-08-22T08:53:41Z</time>
      </trkpt>
      <trkpt lat="45.84777" lon="5.78685">
        <ele>240.4</ele>
        <time>2021-08-22T08:53:42Z</time>
      </trkpt>
      <trkpt lat="45.8478" lon="5.78684">
        <ele>240.4</ele>
        <time>2021-08-22T08:53:43Z</time>
      </trkpt>
      <trkpt lat="45.84786" lon="5.78683">
        <ele>240.3</ele>
        <time>2021-08-22T08:53:45Z</time>
      </trkpt>
      <trkpt lat="45.84789" lon="5.78683">
        <ele>240.3</ele>
        <time>2021-08-22T08:53:46Z</time>
      </trkpt>
      <trkpt lat="45.84792" lon="5.78685">
        <ele>240.3</ele>
        <time>2021-08-22T08:53:47Z</time>
      </trkpt>
      <trkpt lat="45.84794" lon="5.78686">
        <ele>240.3</ele>
        <time>2021-08-22T08:53:48Z</time>
      </trkpt>
      <trkpt lat="45.84797" lon="5.78689">
        <ele>240.2</ele>
        <time>2021-08-22T08:53:50Z</time>
      </trkpt>
      <trkpt lat="45.848" lon="5.78694">
        <ele>240.2</ele>
        <time>2021-08-22T08:53:51Z</time>
      </trkpt>
      <trkpt lat="45.84804" lon="5.78704">
        <ele>240.2</ele>
        <time>2021-08-22T08:53:53Z</time>
      </trkpt>
      <trkpt lat="45.84804" lon="5.7871">
        <ele>240.1</ele>
        <time>2021-08-22T08:53:54Z</time>
      </trkpt>
      <trkpt lat="45.84804" lon="5.7872">
        <ele>240.1</ele>
        <time>2021-08-22T08:53:56Z</time>
      </trkpt>
      <trkpt lat="45.84804" lon="5.78726">
        <ele>240.1</ele>
        <time>2021-08-22T08:53:57Z</time>
      </trkpt>
      <trkpt lat="45.84804" lon="5.78739">
        <ele>240</ele>
        <time>2021-08-22T08:53:59Z</time>
      </trkpt>
      <trkpt lat="45.84805" lon="5.78747">
        <ele>240</ele>
        <time>2021-08-22T08:54:00Z</time>
      </trkpt>
      <trkpt lat="45.84806" lon="5.78753">
        <ele>240</ele>
        <time>2021-08-22T08:54:02Z</time>
      </trkpt>
      <trkpt lat="45.84807" lon="5.78758">
        <ele>240</ele>
        <time>2021-08-22T08:54:03Z</time>
      </trkpt>
      <trkpt lat="45.84808" lon="5.78764">
        <ele>239.9</ele>
        <time>2021-08-22T08:54:04Z</time>
      </trkpt>
      <trkpt lat="45.84809" lon="5.7877">
        <ele>239.9</ele>
        <time>2021-08-22T08:54:05Z</time>
      </trkpt>
      <trkpt lat="45.84809" lon="5.78781">
        <ele>239.9</ele>
        <time>2021-08-22T08:54:07Z</time>
      </trkpt>
      <trkpt lat="45.84809" lon="5.78788">
        <ele>239.9</ele>
        <time>2021-08-22T08:54:08Z</time>
      </trkpt>
      <trkpt lat="45.84809" lon="5.78798">
        <ele>239.8</ele>
        <time>2021-08-22T08:54:10Z</time>
      </trkpt>
      <trkpt lat="45.84809" lon="5.78803">
        <ele>239.8</ele>
        <time>2021-08-22T08:54:11Z</time>
      </trkpt>
      <trkpt lat="45.84809" lon="5.78809">
        <ele>239.8</ele>
        <time>2021-08-22T08:54:13Z</time>
      </trkpt>
      <trkpt lat="45.84809" lon="5.78815">
        <ele>239.8</ele>
        <time>2021-08-22T08:54:14Z</time>
      </trkpt>
      <trkpt lat="45.84809" lon="5.7882">
        <ele>239.8</ele>
        <time>2021-08-22T08:54:15Z</time>
      </trkpt>
      <trkpt lat="45.8481" lon="5.78827">
        <ele>239.7</ele>
        <time>2021-08-22T08:54:16Z</time>
      </trkpt>
      <trkpt lat="45.84811" lon="5.78835">
        <ele>239.7</ele>
        <time>2021-08-22T08:54:17Z</time>
      </trkpt>
      <trkpt lat="45.84812" lon="5.78843">
        <ele>239.7</ele>
        <time>2021-08-22T08:54:19Z</time>
      </trkpt>
      <trkpt lat="45.84811" lon="5.78847">
        <ele>239.7</ele>
        <time>2021-08-22T08:54:20Z</time>
      </trkpt>
      <trkpt lat="45.84812" lon="5.78857">
        <ele>239.7</ele>
        <time>2021-08-22T08:54:22Z</time>
      </trkpt>
      <trkpt lat="45.84812" lon="5.78863">
        <ele>239.7</ele>
        <time>2021-08-22T08:54:23Z</time>
      </trkpt>
      <trkpt lat="45.84812" lon="5.78869">
        <ele>239.7</ele>
        <time>2021-08-22T08:54:24Z</time>
      </trkpt>
      <trkpt lat="45.84813" lon="5.78874">
        <ele>239.7</ele>
        <time>2021-08-22T08:54:25Z</time>
      </trkpt>
      <trkpt lat="45.84813" lon="5.78878">
        <ele>239.7</ele>
        <time>2021-08-22T08:54:26Z</time>
      </trkpt>
      <trkpt lat="45.84815" lon="5.78885">
        <ele>239.7</ele>
        <time>2021-08-22T08:54:27Z</time>
      </trkpt>
      <trkpt lat="45.84817" lon="5.78891">
        <ele>239.8</ele>
        <time>2021-08-22T08:54:28Z</time>
      </trkpt>
      <trkpt lat="45.84818" lon="5.78897">
        <ele>239.8</ele>
        <time>2021-08-22T08:54:29Z</time>
      </trkpt>
      <trkpt lat="45.84819" lon="5.78907">
        <ele>239.8</ele>
        <time>2021-08-22T08:54:31Z</time>
      </trkpt>
      <trkpt lat="45.8482" lon="5.78914">
        <ele>239.8</ele>
        <time>2021-08-22T08:54:32Z</time>
      </trkpt>
      <trkpt lat="45.84821" lon="5.78921">
        <ele>239.8</ele>
        <time>2021-08-22T08:54:33Z</time>
      </trkpt>
      <trkpt lat="45.84824" lon="5.78934">
        <ele>239.7</ele>
        <time>2021-08-22T08:54:35Z</time>
      </trkpt>
      <trkpt lat="45.84825" lon="5.7894">
        <ele>239.7</ele>
        <time>2021-08-22T08:54:36Z</time>
      </trkpt>
      <trkpt lat="45.84825" lon="5.78945">
        <ele>239.7</ele>
        <time>2021-08-22T08:54:37Z</time>
      </trkpt>
      <trkpt lat="45.84827" lon="5.78954">
        <ele>239.8</ele>
        <time>2021-08-22T08:54:39Z</time>
      </trkpt>
      <trkpt lat="45.84828" lon="5.7896">
        <ele>239.8</ele>
        <time>2021-08-22T08:54:40Z</time>
      </trkpt>
      <trkpt lat="45.8483" lon="5.78968">
        <ele>239.8</ele>
        <time>2021-08-22T08:54:41Z</time>
      </trkpt>
      <trkpt lat="45.84831" lon="5.78974">
        <ele>239.8</ele>
        <time>2021-08-22T08:54:42Z</time>
      </trkpt>
      <trkpt lat="45.84832" lon="5.7898">
        <ele>239.8</ele>
        <time>2021-08-22T08:54:43Z</time>
      </trkpt>
      <trkpt lat="45.84834" lon="5.78989">
        <ele>239.8</ele>
        <time>2021-08-22T08:54:44Z</time>
      </trkpt>
      <trkpt lat="45.84837" lon="5.79001">
        <ele>239.7</ele>
        <time>2021-08-22T08:54:46Z</time>
      </trkpt>
      <trkpt lat="45.84839" lon="5.79009">
        <ele>239.7</ele>
        <time>2021-08-22T08:54:47Z</time>
      </trkpt>
      <trkpt lat="45.8484" lon="5.79019">
        <ele>239.7</ele>
        <time>2021-08-22T08:54:49Z</time>
      </trkpt>
      <trkpt lat="45.84844" lon="5.79031">
        <ele>239.7</ele>
        <time>2021-08-22T08:54:50Z</time>
      </trkpt>
      <trkpt lat="45.84847" lon="5.79046">
        <ele>239.7</ele>
        <time>2021-08-22T08:54:52Z</time>
      </trkpt>
      <trkpt lat="45.8485" lon="5.79056">
        <ele>239.7</ele>
        <time>2021-08-22T08:54:54Z</time>
      </trkpt>
      <trkpt lat="45.84851" lon="5.79068">
        <ele>239.7</ele>
        <time>2021-08-22T08:54:56Z</time>
      </trkpt>
      <trkpt lat="45.84852" lon="5.79078">
        <ele>239.7</ele>
        <time>2021-08-22T08:54:57Z</time>
      </trkpt>
      <trkpt lat="45.84853" lon="5.79091">
        <ele>239.7</ele>
        <time>2021-08-22T08:54:59Z</time>
      </trkpt>
      <trkpt lat="45.84854" lon="5.79105">
        <ele>239.7</ele>
        <time>2021-08-22T08:55:01Z</time>
      </trkpt>
      <trkpt lat="45.84856" lon="5.79117">
        <ele>239.7</ele>
        <time>2021-08-22T08:55:03Z</time>
      </trkpt>
      <trkpt lat="45.84857" lon="5.79127">
        <ele>239.7</ele>
        <time>2021-08-22T08:55:05Z</time>
      </trkpt>
      <trkpt lat="45.84858" lon="5.79138">
        <ele>239.7</ele>
        <time>2021-08-22T08:55:06Z</time>
      </trkpt>
      <trkpt lat="45.8486" lon="5.79146">
        <ele>239.7</ele>
        <time>2021-08-22T08:55:07Z</time>
      </trkpt>
      <trkpt lat="45.84863" lon="5.79157">
        <ele>239.7</ele>
        <time>2021-08-22T08:55:09Z</time>
      </trkpt>
      <trkpt lat="45.84865" lon="5.79163">
        <ele>239.7</ele>
        <time>2021-08-22T08:55:10Z</time>
      </trkpt>
      <trkpt lat="45.84868" lon="5.79169">
        <ele>239.7</ele>
        <time>2021-08-22T08:55:11Z</time>
      </trkpt>
      <trkpt lat="45.84868" lon="5.79182">
        <ele>239.7</ele>
        <time>2021-08-22T08:55:13Z</time>
      </trkpt>
      <trkpt lat="45.8487" lon="5.79189">
        <ele>239.7</ele>
        <time>2021-08-22T08:55:14Z</time>
      </trkpt>
      <trkpt lat="45.84872" lon="5.79198">
        <ele>239.7</ele>
        <time>2021-08-22T08:55:16Z</time>
      </trkpt>
      <trkpt lat="45.84873" lon="5.79204">
        <ele>239.7</ele>
        <time>2021-08-22T08:55:17Z</time>
      </trkpt>
      <trkpt lat="45.84875" lon="5.79216">
        <ele>239.7</ele>
        <time>2021-08-22T08:55:19Z</time>
      </trkpt>
      <trkpt lat="45.84878" lon="5.79221">
        <ele>239.7</ele>
        <time>2021-08-22T08:55:20Z</time>
      </trkpt>
      <trkpt lat="45.84881" lon="5.79228">
        <ele>239.7</ele>
        <time>2021-08-22T08:55:21Z</time>
      </trkpt>
      <trkpt lat="45.84888" lon="5.79238">
        <ele>239.7</ele>
        <time>2021-08-22T08:55:23Z</time>
      </trkpt>
      <trkpt lat="45.8489" lon="5.79238">
        <ele>239.7</ele>
        <time>2021-08-22T08:55:24Z</time>
      </trkpt>
      <trkpt lat="45.84894" lon="5.79246">
        <ele>239.7</ele>
        <time>2021-08-22T08:55:26Z</time>
      </trkpt>
      <trkpt lat="45.849" lon="5.79256">
        <ele>239.7</ele>
        <time>2021-08-22T08:55:27Z</time>
      </trkpt>
      <trkpt lat="45.84908" lon="5.79265">
        <ele>239.8</ele>
        <time>2021-08-22T08:55:29Z</time>
      </trkpt>
      <trkpt lat="45.84917" lon="5.79273">
        <ele>239.8</ele>
        <time>2021-08-22T08:55:31Z</time>
      </trkpt>
      <trkpt lat="45.84927" lon="5.79281">
        <ele>239.8</ele>
        <time>2021-08-22T08:55:33Z</time>
      </trkpt>
      <trkpt lat="45.8493" lon="5.79285">
        <ele>239.9</ele>
        <time>2021-08-22T08:55:34Z</time>
      </trkpt>
      <trkpt lat="45.84934" lon="5.79289">
        <ele>239.9</ele>
        <time>2021-08-22T08:55:35Z</time>
      </trkpt>
      <trkpt lat="45.84941" lon="5.79295">
        <ele>239.9</ele>
        <time>2021-08-22T08:55:37Z</time>
      </trkpt>
      <trkpt lat="45.84948" lon="5.79298">
        <ele>239.9</ele>
        <time>2021-08-22T08:55:39Z</time>
      </trkpt>
      <trkpt lat="45.84953" lon="5.79298">
        <ele>239.9</ele>
        <time>2021-08-22T08:55:40Z</time>
      </trkpt>
      <trkpt lat="45.84962" lon="5.793">
        <ele>239.9</ele>
        <time>2021-08-22T08:55:42Z</time>
      </trkpt>
      <trkpt lat="45.84967" lon="5.79302">
        <ele>239.9</ele>
        <time>2021-08-22T08:55:43Z</time>
      </trkpt>
      <trkpt lat="45.84979" lon="5.79308">
        <ele>239.9</ele>
        <time>2021-08-22T08:55:45Z</time>
      </trkpt>
      <trkpt lat="45.84985" lon="5.79311">
        <ele>239.9</ele>
        <time>2021-08-22T08:55:46Z</time>
      </trkpt>
      <trkpt lat="45.84989" lon="5.79314">
        <ele>239.9</ele>
        <time>2021-08-22T08:55:47Z</time>
      </trkpt>
      <trkpt lat="45.84999" lon="5.79321">
        <ele>239.9</ele>
        <time>2021-08-22T08:55:49Z</time>
      </trkpt>
      <trkpt lat="45.85008" lon="5.79326">
        <ele>239.9</ele>
        <time>2021-08-22T08:55:51Z</time>
      </trkpt>
      <trkpt lat="45.85012" lon="5.79328">
        <ele>240</ele>
        <time>2021-08-22T08:55:52Z</time>
      </trkpt>
      <trkpt lat="45.85017" lon="5.79331">
        <ele>240</ele>
        <time>2021-08-22T08:55:53Z</time>
      </trkpt>
      <trkpt lat="45.85021" lon="5.79334">
        <ele>240</ele>
        <time>2021-08-22T08:55:54Z</time>
      </trkpt>
      <trkpt lat="45.85029" lon="5.79338">
        <ele>240.1</ele>
        <time>2021-08-22T08:55:56Z</time>
      </trkpt>
      <trkpt lat="45.85035" lon="5.79341">
        <ele>240.1</ele>
        <time>2021-08-22T08:55:58Z</time>
      </trkpt>
      <trkpt lat="45.85044" lon="5.79348">
        <ele>240.3</ele>
        <time>2021-08-22T08:56:00Z</time>
      </trkpt>
      <trkpt lat="45.85049" lon="5.79352">
        <ele>240.4</ele>
        <time>2021-08-22T08:56:01Z</time>
      </trkpt>
      <trkpt lat="45.85054" lon="5.79357">
        <ele>240.5</ele>
        <time>2021-08-22T08:56:02Z</time>
      </trkpt>
      <trkpt lat="45.85059" lon="5.79362">
        <ele>240.7</ele>
        <time>2021-08-22T08:56:03Z</time>
      </trkpt>
      <trkpt lat="45.85065" lon="5.79368">
        <ele>240.9</ele>
        <time>2021-08-22T08:56:05Z</time>
      </trkpt>
      <trkpt lat="45.85069" lon="5.79372">
        <ele>241</ele>
        <time>2021-08-22T08:56:06Z</time>
      </trkpt>
      <trkpt lat="45.85073" lon="5.79376">
        <ele>241.1</ele>
        <time>2021-08-22T08:56:07Z</time>
      </trkpt>
      <trkpt lat="45.85084" lon="5.79387">
        <ele>241.5</ele>
        <time>2021-08-22T08:56:09Z</time>
      </trkpt>
      <trkpt lat="45.85089" lon="5.79391">
        <ele>241.6</ele>
        <time>2021-08-22T08:56:10Z</time>
      </trkpt>
      <trkpt lat="45.85092" lon="5.79396">
        <ele>241.8</ele>
        <time>2021-08-22T08:56:11Z</time>
      </trkpt>
      <trkpt lat="45.85096" lon="5.79395">
        <ele>241.9</ele>
        <time>2021-08-22T08:56:13Z</time>
      </trkpt>
      <trkpt lat="45.85101" lon="5.79406">
        <ele>242.1</ele>
        <time>2021-08-22T08:56:15Z</time>
      </trkpt>
      <trkpt lat="45.85104" lon="5.79417">
        <ele>242.2</ele>
        <time>2021-08-22T08:56:16Z</time>
      </trkpt>
      <trkpt lat="45.85106" lon="5.79424">
        <ele>242.5</ele>
        <time>2021-08-22T08:56:17Z</time>
      </trkpt>
      <trkpt lat="45.85108" lon="5.79433">
        <ele>242.6</ele>
        <time>2021-08-22T08:56:18Z</time>
      </trkpt>
      <trkpt lat="45.8511" lon="5.79437">
        <ele>242.7</ele>
        <time>2021-08-22T08:56:20Z</time>
      </trkpt>
      <trkpt lat="45.8511" lon="5.79445">
        <ele>242.8</ele>
        <time>2021-08-22T08:56:21Z</time>
      </trkpt>
      <trkpt lat="45.8511" lon="5.79452">
        <ele>243</ele>
        <time>2021-08-22T08:56:22Z</time>
      </trkpt>
      <trkpt lat="45.8511" lon="5.79458">
        <ele>243.2</ele>
        <time>2021-08-22T08:56:23Z</time>
      </trkpt>
      <trkpt lat="45.8511" lon="5.79467">
        <ele>243.4</ele>
        <time>2021-08-22T08:56:25Z</time>
      </trkpt>
      <trkpt lat="45.85108" lon="5.79476">
        <ele>243.5</ele>
        <time>2021-08-22T08:56:26Z</time>
      </trkpt>
      <trkpt lat="45.85105" lon="5.79482">
        <ele>243.6</ele>
        <time>2021-08-22T08:56:28Z</time>
      </trkpt>
      <trkpt lat="45.85101" lon="5.7949">
        <ele>243.8</ele>
        <time>2021-08-22T08:56:30Z</time>
      </trkpt>
      <trkpt lat="45.85099" lon="5.79495">
        <ele>243.9</ele>
        <time>2021-08-22T08:56:31Z</time>
      </trkpt>
      <trkpt lat="45.85096" lon="5.79501">
        <ele>244</ele>
        <time>2021-08-22T08:56:32Z</time>
      </trkpt>
      <trkpt lat="45.85093" lon="5.79509">
        <ele>244.2</ele>
        <time>2021-08-22T08:56:34Z</time>
      </trkpt>
      <trkpt lat="45.85091" lon="5.79514">
        <ele>244.3</ele>
        <time>2021-08-22T08:56:35Z</time>
      </trkpt>
      <trkpt lat="45.85089" lon="5.79518">
        <ele>244.4</ele>
        <time>2021-08-22T08:56:36Z</time>
      </trkpt>
      <trkpt lat="45.85087" lon="5.79522">
        <ele>244.5</ele>
        <time>2021-08-22T08:56:37Z</time>
      </trkpt>
      <trkpt lat="45.85083" lon="5.79526">
        <ele>244.6</ele>
        <time>2021-08-22T08:56:38Z</time>
      </trkpt>
      <trkpt lat="45.85079" lon="5.79533">
        <ele>244.7</ele>
        <time>2021-08-22T08:56:40Z</time>
      </trkpt>
      <trkpt lat="45.85078" lon="5.79537">
        <ele>244.8</ele>
        <time>2021-08-22T08:56:41Z</time>
      </trkpt>
      <trkpt lat="45.85075" lon="5.79543">
        <ele>244.9</ele>
        <time>2021-08-22T08:56:43Z</time>
      </trkpt>
      <trkpt lat="45.85074" lon="5.79547">
        <ele>244.9</ele>
        <time>2021-08-22T08:56:44Z</time>
      </trkpt>
      <trkpt lat="45.85071" lon="5.79552">
        <ele>245</ele>
        <time>2021-08-22T08:56:45Z</time>
      </trkpt>
      <trkpt lat="45.8507" lon="5.79554">
        <ele>245</ele>
        <time>2021-08-22T08:56:46Z</time>
      </trkpt>
      <trkpt lat="45.85067" lon="5.79561">
        <ele>245</ele>
        <time>2021-08-22T08:56:48Z</time>
      </trkpt>
      <trkpt lat="45.85065" lon="5.79566">
        <ele>245.1</ele>
        <time>2021-08-22T08:56:49Z</time>
      </trkpt>
      <trkpt lat="45.85062" lon="5.7957">
        <ele>245.1</ele>
        <time>2021-08-22T08:56:51Z</time>
      </trkpt>
      <trkpt lat="45.85059" lon="5.79577">
        <ele>245.1</ele>
        <time>2021-08-22T08:56:52Z</time>
      </trkpt>
      <trkpt lat="45.85056" lon="5.79582">
        <ele>245</ele>
        <time>2021-08-22T08:56:53Z</time>
      </trkpt>
      <trkpt lat="45.85052" lon="5.7959">
        <ele>244.9</ele>
        <time>2021-08-22T08:56:54Z</time>
      </trkpt>
      <trkpt lat="45.85048" lon="5.79599">
        <ele>244.8</ele>
        <time>2021-08-22T08:56:56Z</time>
      </trkpt>
      <trkpt lat="45.85043" lon="5.79609">
        <ele>244.6</ele>
        <time>2021-08-22T08:56:57Z</time>
      </trkpt>
      <trkpt lat="45.8504" lon="5.79615">
        <ele>244.4</ele>
        <time>2021-08-22T08:56:58Z</time>
      </trkpt>
      <trkpt lat="45.85037" lon="5.79621">
        <ele>244.3</ele>
        <time>2021-08-22T08:56:59Z</time>
      </trkpt>
      <trkpt lat="45.8503" lon="5.79635">
        <ele>243.9</ele>
        <time>2021-08-22T08:57:01Z</time>
      </trkpt>
      <trkpt lat="45.85027" lon="5.79642">
        <ele>243.7</ele>
        <time>2021-08-22T08:57:02Z</time>
      </trkpt>
      <trkpt lat="45.85021" lon="5.79656">
        <ele>243.3</ele>
        <time>2021-08-22T08:57:04Z</time>
      </trkpt>
      <trkpt lat="45.85018" lon="5.79664">
        <ele>243.1</ele>
        <time>2021-08-22T08:57:05Z</time>
      </trkpt>
      <trkpt lat="45.85012" lon="5.7968">
        <ele>242.7</ele>
        <time>2021-08-22T08:57:07Z</time>
      </trkpt>
      <trkpt lat="45.85004" lon="5.79695">
        <ele>242.3</ele>
        <time>2021-08-22T08:57:09Z</time>
      </trkpt>
      <trkpt lat="45.84996" lon="5.79711">
        <ele>242</ele>
        <time>2021-08-22T08:57:11Z</time>
      </trkpt>
      <trkpt lat="45.84989" lon="5.79726">
        <ele>241.9</ele>
        <time>2021-08-22T08:57:13Z</time>
      </trkpt>
      <trkpt lat="45.84985" lon="5.79734">
        <ele>241.8</ele>
        <time>2021-08-22T08:57:14Z</time>
      </trkpt>
      <trkpt lat="45.84981" lon="5.79741">
        <ele>241.9</ele>
        <time>2021-08-22T08:57:15Z</time>
      </trkpt>
      <trkpt lat="45.84973" lon="5.79755">
        <ele>241.9</ele>
        <time>2021-08-22T08:57:17Z</time>
      </trkpt>
      <trkpt lat="45.84969" lon="5.79762">
        <ele>242</ele>
        <time>2021-08-22T08:57:18Z</time>
      </trkpt>
      <trkpt lat="45.84965" lon="5.79768">
        <ele>242.1</ele>
        <time>2021-08-22T08:57:19Z</time>
      </trkpt>
      <trkpt lat="45.84956" lon="5.79779">
        <ele>242.2</ele>
        <time>2021-08-22T08:57:21Z</time>
      </trkpt>
      <trkpt lat="45.84952" lon="5.79783">
        <ele>242.3</ele>
        <time>2021-08-22T08:57:22Z</time>
      </trkpt>
      <trkpt lat="45.84945" lon="5.79789">
        <ele>242.2</ele>
        <time>2021-08-22T08:57:24Z</time>
      </trkpt>
      <trkpt lat="45.8494" lon="5.79792">
        <ele>242.2</ele>
        <time>2021-08-22T08:57:25Z</time>
      </trkpt>
      <trkpt lat="45.84928" lon="5.798">
        <ele>242.1</ele>
        <time>2021-08-22T08:57:27Z</time>
      </trkpt>
      <trkpt lat="45.84923" lon="5.79805">
        <ele>242.1</ele>
        <time>2021-08-22T08:57:28Z</time>
      </trkpt>
      <trkpt lat="45.84917" lon="5.7981">
        <ele>242.1</ele>
        <time>2021-08-22T08:57:29Z</time>
      </trkpt>
      <trkpt lat="45.84912" lon="5.79821">
        <ele>242.2</ele>
        <time>2021-08-22T08:57:31Z</time>
      </trkpt>
      <trkpt lat="45.84912" lon="5.79827">
        <ele>242.2</ele>
        <time>2021-08-22T08:57:32Z</time>
      </trkpt>
      <trkpt lat="45.84911" lon="5.79833">
        <ele>242.2</ele>
        <time>2021-08-22T08:57:33Z</time>
      </trkpt>
      <trkpt lat="45.84912" lon="5.79842">
        <ele>242.3</ele>
        <time>2021-08-22T08:57:35Z</time>
      </trkpt>
      <trkpt lat="45.84919" lon="5.79854">
        <ele>242.4</ele>
        <time>2021-08-22T08:57:36Z</time>
      </trkpt>
      <trkpt lat="45.84922" lon="5.79863">
        <ele>242.5</ele>
        <time>2021-08-22T08:57:37Z</time>
      </trkpt>
      <trkpt lat="45.84925" lon="5.7988">
        <ele>243</ele>
        <time>2021-08-22T08:57:39Z</time>
      </trkpt>
      <trkpt lat="45.84926" lon="5.79888">
        <ele>243.1</ele>
        <time>2021-08-22T08:57:40Z</time>
      </trkpt>
      <trkpt lat="45.84928" lon="5.79904">
        <ele>243.4</ele>
        <time>2021-08-22T08:57:42Z</time>
      </trkpt>
      <trkpt lat="45.84924" lon="5.79912">
        <ele>243.6</ele>
        <time>2021-08-22T08:57:44Z</time>
      </trkpt>
      <trkpt lat="45.84925" lon="5.79924">
        <ele>243.8</ele>
        <time>2021-08-22T08:57:46Z</time>
      </trkpt>
      <trkpt lat="45.84929" lon="5.79936">
        <ele>244.1</ele>
        <time>2021-08-22T08:57:47Z</time>
      </trkpt>
      <trkpt lat="45.84931" lon="5.79945">
        <ele>244.3</ele>
        <time>2021-08-22T08:57:49Z</time>
      </trkpt>
      <trkpt lat="45.84933" lon="5.79951">
        <ele>244.4</ele>
        <time>2021-08-22T08:57:50Z</time>
      </trkpt>
      <trkpt lat="45.84934" lon="5.79958">
        <ele>244.6</ele>
        <time>2021-08-22T08:57:51Z</time>
      </trkpt>
      <trkpt lat="45.84936" lon="5.79967">
        <ele>244.8</ele>
        <time>2021-08-22T08:57:53Z</time>
      </trkpt>
      <trkpt lat="45.84935" lon="5.79973">
        <ele>244.9</ele>
        <time>2021-08-22T08:57:54Z</time>
      </trkpt>
      <trkpt lat="45.84935" lon="5.79984">
        <ele>245.2</ele>
        <time>2021-08-22T08:57:56Z</time>
      </trkpt>
      <trkpt lat="45.84935" lon="5.79994">
        <ele>245.4</ele>
        <time>2021-08-22T08:57:58Z</time>
      </trkpt>
      <trkpt lat="45.84935" lon="5.80004">
        <ele>245.6</ele>
        <time>2021-08-22T08:58:00Z</time>
      </trkpt>
      <trkpt lat="45.84934" lon="5.80011">
        <ele>245.7</ele>
        <time>2021-08-22T08:58:01Z</time>
      </trkpt>
      <trkpt lat="45.84933" lon="5.80018">
        <ele>245.8</ele>
        <time>2021-08-22T08:58:02Z</time>
      </trkpt>
      <trkpt lat="45.84932" lon="5.80025">
        <ele>245.9</ele>
        <time>2021-08-22T08:58:04Z</time>
      </trkpt>
      <trkpt lat="45.84932" lon="5.80032">
        <ele>246</ele>
        <time>2021-08-22T08:58:05Z</time>
      </trkpt>
      <trkpt lat="45.84931" lon="5.80041">
        <ele>246.1</ele>
        <time>2021-08-22T08:58:07Z</time>
      </trkpt>
      <trkpt lat="45.84929" lon="5.80049">
        <ele>246.2</ele>
        <time>2021-08-22T08:58:09Z</time>
      </trkpt>
      <trkpt lat="45.84929" lon="5.80056">
        <ele>246.2</ele>
        <time>2021-08-22T08:58:10Z</time>
      </trkpt>
      <trkpt lat="45.84928" lon="5.80062">
        <ele>246.2</ele>
        <time>2021-08-22T08:58:11Z</time>
      </trkpt>
      <trkpt lat="45.84928" lon="5.80071">
        <ele>246.3</ele>
        <time>2021-08-22T08:58:12Z</time>
      </trkpt>
      <trkpt lat="45.84928" lon="5.80079">
        <ele>246.3</ele>
        <time>2021-08-22T08:58:14Z</time>
      </trkpt>
      <trkpt lat="45.84929" lon="5.80091">
        <ele>246.3</ele>
        <time>2021-08-22T08:58:16Z</time>
      </trkpt>
      <trkpt lat="45.84929" lon="5.80098">
        <ele>246.3</ele>
        <time>2021-08-22T08:58:17Z</time>
      </trkpt>
      <trkpt lat="45.84929" lon="5.80109">
        <ele>246.3</ele>
        <time>2021-08-22T08:58:19Z</time>
      </trkpt>
      <trkpt lat="45.84926" lon="5.80111">
        <ele>246.3</ele>
        <time>2021-08-22T08:58:20Z</time>
      </trkpt>
      <trkpt lat="45.84925" lon="5.80121">
        <ele>246.3</ele>
        <time>2021-08-22T08:58:21Z</time>
      </trkpt>
      <trkpt lat="45.84924" lon="5.80128">
        <ele>246.3</ele>
        <time>2021-08-22T08:58:22Z</time>
      </trkpt>
      <trkpt lat="45.84923" lon="5.80135">
        <ele>246.3</ele>
        <time>2021-08-22T08:58:23Z</time>
      </trkpt>
      <trkpt lat="45.84921" lon="5.80142">
        <ele>246.4</ele>
        <time>2021-08-22T08:58:24Z</time>
      </trkpt>
      <trkpt lat="45.8492" lon="5.80148">
        <ele>246.4</ele>
        <time>2021-08-22T08:58:25Z</time>
      </trkpt>
      <trkpt lat="45.8492" lon="5.80155">
        <ele>246.4</ele>
        <time>2021-08-22T08:58:26Z</time>
      </trkpt>
      <trkpt lat="45.84919" lon="5.80163">
        <ele>246.4</ele>
        <time>2021-08-22T08:58:28Z</time>
      </trkpt>
      <trkpt lat="45.84916" lon="5.80173">
        <ele>246.4</ele>
        <time>2021-08-22T08:58:29Z</time>
      </trkpt>
      <trkpt lat="45.84914" lon="5.80181">
        <ele>246.4</ele>
        <time>2021-08-22T08:58:31Z</time>
      </trkpt>
      <trkpt lat="45.84913" lon="5.80187">
        <ele>246.5</ele>
        <time>2021-08-22T08:58:32Z</time>
      </trkpt>
      <trkpt lat="45.84911" lon="5.80196">
        <ele>246.5</ele>
        <time>2021-08-22T08:58:33Z</time>
      </trkpt>
      <trkpt lat="45.84911" lon="5.80203">
        <ele>246.5</ele>
        <time>2021-08-22T08:58:34Z</time>
      </trkpt>
      <trkpt lat="45.8491" lon="5.8021">
        <ele>246.5</ele>
        <time>2021-08-22T08:58:35Z</time>
      </trkpt>
      <trkpt lat="45.84909" lon="5.80217">
        <ele>246.5</ele>
        <time>2021-08-22T08:58:36Z</time>
      </trkpt>
      <trkpt lat="45.84908" lon="5.80223">
        <ele>246.5</ele>
        <time>2021-08-22T08:58:37Z</time>
      </trkpt>
      <trkpt lat="45.84911" lon="5.80236">
        <ele>246.5</ele>
        <time>2021-08-22T08:58:39Z</time>
      </trkpt>
      <trkpt lat="45.84907" lon="5.80243">
        <ele>246.5</ele>
        <time>2021-08-22T08:58:40Z</time>
      </trkpt>
      <trkpt lat="45.84905" lon="5.80252">
        <ele>246.5</ele>
        <time>2021-08-22T08:58:42Z</time>
      </trkpt>
      <trkpt lat="45.84904" lon="5.8026">
        <ele>246.5</ele>
        <time>2021-08-22T08:58:43Z</time>
      </trkpt>
      <trkpt lat="45.84903" lon="5.80275">
        <ele>246.5</ele>
        <time>2021-08-22T08:58:45Z</time>
      </trkpt>
      <trkpt lat="45.84902" lon="5.80283">
        <ele>246.5</ele>
        <time>2021-08-22T08:58:46Z</time>
      </trkpt>
      <trkpt lat="45.84902" lon="5.8029">
        <ele>246.4</ele>
        <time>2021-08-22T08:58:47Z</time>
      </trkpt>
      <trkpt lat="45.84901" lon="5.80304">
        <ele>246.4</ele>
        <time>2021-08-22T08:58:49Z</time>
      </trkpt>
      <trkpt lat="45.84899" lon="5.80318">
        <ele>246.4</ele>
        <time>2021-08-22T08:58:51Z</time>
      </trkpt>
      <trkpt lat="45.84898" lon="5.80325">
        <ele>246.4</ele>
        <time>2021-08-22T08:58:52Z</time>
      </trkpt>
      <trkpt lat="45.84896" lon="5.8034">
        <ele>246.3</ele>
        <time>2021-08-22T08:58:54Z</time>
      </trkpt>
      <trkpt lat="45.84896" lon="5.80347">
        <ele>246.3</ele>
        <time>2021-08-22T08:58:55Z</time>
      </trkpt>
      <trkpt lat="45.84895" lon="5.80356">
        <ele>246.3</ele>
        <time>2021-08-22T08:58:56Z</time>
      </trkpt>
      <trkpt lat="45.84893" lon="5.80367">
        <ele>246.2</ele>
        <time>2021-08-22T08:58:58Z</time>
      </trkpt>
      <trkpt lat="45.84893" lon="5.80374">
        <ele>246.2</ele>
        <time>2021-08-22T08:58:59Z</time>
      </trkpt>
      <trkpt lat="45.84892" lon="5.80386">
        <ele>246.1</ele>
        <time>2021-08-22T08:59:01Z</time>
      </trkpt>
      <trkpt lat="45.8489" lon="5.804">
        <ele>246</ele>
        <time>2021-08-22T08:59:03Z</time>
      </trkpt>
      <trkpt lat="45.84888" lon="5.80404">
        <ele>245.9</ele>
        <time>2021-08-22T08:59:04Z</time>
      </trkpt>
      <trkpt lat="45.84887" lon="5.8041">
        <ele>245.8</ele>
        <time>2021-08-22T08:59:05Z</time>
      </trkpt>
      <trkpt lat="45.84887" lon="5.8042">
        <ele>245.5</ele>
        <time>2021-08-22T08:59:06Z</time>
      </trkpt>
      <trkpt lat="45.84886" lon="5.80427">
        <ele>245.4</ele>
        <time>2021-08-22T08:59:08Z</time>
      </trkpt>
      <trkpt lat="45.84885" lon="5.80437">
        <ele>245.2</ele>
        <time>2021-08-22T08:59:09Z</time>
      </trkpt>
      <trkpt lat="45.84885" lon="5.80443">
        <ele>245</ele>
        <time>2021-08-22T08:59:10Z</time>
      </trkpt>
      <trkpt lat="45.84885" lon="5.80457">
        <ele>244.7</ele>
        <time>2021-08-22T08:59:12Z</time>
      </trkpt>
      <trkpt lat="45.84886" lon="5.80465">
        <ele>244.6</ele>
        <time>2021-08-22T08:59:13Z</time>
      </trkpt>
      <trkpt lat="45.84886" lon="5.80481">
        <ele>244.2</ele>
        <time>2021-08-22T08:59:15Z</time>
      </trkpt>
      <trkpt lat="45.84885" lon="5.80488">
        <ele>244</ele>
        <time>2021-08-22T08:59:16Z</time>
      </trkpt>
      <trkpt lat="45.84885" lon="5.80496">
        <ele>243.8</ele>
        <time>2021-08-22T08:59:17Z</time>
      </trkpt>
      <trkpt lat="45.84886" lon="5.8051">
        <ele>243.4</ele>
        <time>2021-08-22T08:59:19Z</time>
      </trkpt>
      <trkpt lat="45.84886" lon="5.80527">
        <ele>243</ele>
        <time>2021-08-22T08:59:21Z</time>
      </trkpt>
      <trkpt lat="45.84885" lon="5.80542">
        <ele>242.6</ele>
        <time>2021-08-22T08:59:23Z</time>
      </trkpt>
      <trkpt lat="45.84883" lon="5.80549">
        <ele>242.4</ele>
        <time>2021-08-22T08:59:24Z</time>
      </trkpt>
      <trkpt lat="45.84882" lon="5.80557">
        <ele>242.3</ele>
        <time>2021-08-22T08:59:25Z</time>
      </trkpt>
      <trkpt lat="45.8488" lon="5.80565">
        <ele>242.1</ele>
        <time>2021-08-22T08:59:26Z</time>
      </trkpt>
      <trkpt lat="45.84877" lon="5.80582">
        <ele>241.7</ele>
        <time>2021-08-22T08:59:28Z</time>
      </trkpt>
      <trkpt lat="45.84874" lon="5.806">
        <ele>241.4</ele>
        <time>2021-08-22T08:59:30Z</time>
      </trkpt>
      <trkpt lat="45.84872" lon="5.80609">
        <ele>241.2</ele>
        <time>2021-08-22T08:59:31Z</time>
      </trkpt>
      <trkpt lat="45.84867" lon="5.80627">
        <ele>240.9</ele>
        <time>2021-08-22T08:59:33Z</time>
      </trkpt>
      <trkpt lat="45.84864" lon="5.80635">
        <ele>240.9</ele>
        <time>2021-08-22T08:59:34Z</time>
      </trkpt>
      <trkpt lat="45.84861" lon="5.80643">
        <ele>240.8</ele>
        <time>2021-08-22T08:59:35Z</time>
      </trkpt>
      <trkpt lat="45.84857" lon="5.80651">
        <ele>240.8</ele>
        <time>2021-08-22T08:59:36Z</time>
      </trkpt>
      <trkpt lat="45.84855" lon="5.80659">
        <ele>240.8</ele>
        <time>2021-08-22T08:59:37Z</time>
      </trkpt>
      <trkpt lat="45.84852" lon="5.80673">
        <ele>240.8</ele>
        <time>2021-08-22T08:59:39Z</time>
      </trkpt>
      <trkpt lat="45.84852" lon="5.80687">
        <ele>240.9</ele>
        <time>2021-08-22T08:59:41Z</time>
      </trkpt>
      <trkpt lat="45.84851" lon="5.80693">
        <ele>240.9</ele>
        <time>2021-08-22T08:59:42Z</time>
      </trkpt>
      <trkpt lat="45.8485" lon="5.80704">
        <ele>241</ele>
        <time>2021-08-22T08:59:44Z</time>
      </trkpt>
      <trkpt lat="45.84851" lon="5.80712">
        <ele>241.1</ele>
        <time>2021-08-22T08:59:46Z</time>
      </trkpt>
      <trkpt lat="45.84851" lon="5.80718">
        <ele>241.1</ele>
        <time>2021-08-22T08:59:48Z</time>
      </trkpt>
      <trkpt lat="45.84849" lon="5.80722">
        <ele>241.1</ele>
        <time>2021-08-22T08:59:50Z</time>
      </trkpt>
      <trkpt lat="45.84847" lon="5.80724">
        <ele>241.1</ele>
        <time>2021-08-22T08:59:51Z</time>
      </trkpt>
      <trkpt lat="45.84845" lon="5.80726">
        <ele>241.1</ele>
        <time>2021-08-22T08:59:52Z</time>
      </trkpt>
      <trkpt lat="45.84841" lon="5.8073">
        <ele>241.1</ele>
        <time>2021-08-22T08:59:53Z</time>
      </trkpt>
      <trkpt lat="45.84837" lon="5.80734">
        <ele>241.1</ele>
        <time>2021-08-22T08:59:54Z</time>
      </trkpt>
      <trkpt lat="45.84832" lon="5.80739">
        <ele>241.1</ele>
        <time>2021-08-22T08:59:56Z</time>
      </trkpt>
      <trkpt lat="45.84827" lon="5.8074">
        <ele>241.1</ele>
        <time>2021-08-22T08:59:57Z</time>
      </trkpt>
      <trkpt lat="45.84823" lon="5.8074">
        <ele>241.1</ele>
        <time>2021-08-22T08:59:59Z</time>
      </trkpt>
      <trkpt lat="45.8482" lon="5.8074">
        <ele>241</ele>
        <time>2021-08-22T09:00:00Z</time>
      </trkpt>
      <trkpt lat="45.84816" lon="5.80735">
        <ele>241</ele>
        <time>2021-08-22T09:00:02Z</time>
      </trkpt>
      <trkpt lat="45.84809" lon="5.8073">
        <ele>241</ele>
        <time>2021-08-22T09:00:03Z</time>
      </trkpt>
      <trkpt lat="45.84803" lon="5.80724">
        <ele>240.9</ele>
        <time>2021-08-22T09:00:04Z</time>
      </trkpt>
      <trkpt lat="45.84797" lon="5.80705">
        <ele>239.8</ele>
        <time>2021-08-22T09:00:06Z</time>
      </trkpt>
      <trkpt lat="45.84793" lon="5.80694">
        <ele>239.7</ele>
        <time>2021-08-22T09:00:07Z</time>
      </trkpt>
      <trkpt lat="45.84789" lon="5.80684">
        <ele>239.5</ele>
        <time>2021-08-22T09:00:08Z</time>
      </trkpt>
      <trkpt lat="45.84786" lon="5.80665">
        <ele>239.4</ele>
        <time>2021-08-22T09:00:10Z</time>
      </trkpt>
      <trkpt lat="45.84784" lon="5.80658">
        <ele>239.3</ele>
        <time>2021-08-22T09:00:11Z</time>
      </trkpt>
      <trkpt lat="45.84783" lon="5.80652">
        <ele>239.3</ele>
        <time>2021-08-22T09:00:12Z</time>
      </trkpt>
      <trkpt lat="45.84784" lon="5.80644">
        <ele>239.2</ele>
        <time>2021-08-22T09:00:14Z</time>
      </trkpt>
      <trkpt lat="45.84782" lon="5.80632">
        <ele>239.1</ele>
        <time>2021-08-22T09:00:15Z</time>
      </trkpt>
      <trkpt lat="45.8478" lon="5.80625">
        <ele>239.1</ele>
        <time>2021-08-22T09:00:17Z</time>
      </trkpt>
      <trkpt lat="45.84779" lon="5.80616">
        <ele>239</ele>
        <time>2021-08-22T09:00:18Z</time>
      </trkpt>
      <trkpt lat="45.84779" lon="5.80595">
        <ele>238.9</ele>
        <time>2021-08-22T09:00:20Z</time>
      </trkpt>
      <trkpt lat="45.8478" lon="5.80589">
        <ele>238.9</ele>
        <time>2021-08-22T09:00:21Z</time>
      </trkpt>
      <trkpt lat="45.84779" lon="5.80581">
        <ele>238.8</ele>
        <time>2021-08-22T09:00:22Z</time>
      </trkpt>
      <trkpt lat="45.84779" lon="5.80577">
        <ele>238.8</ele>
        <time>2021-08-22T09:00:23Z</time>
      </trkpt>
      <trkpt lat="45.84777" lon="5.80563">
        <ele>238.7</ele>
        <time>2021-08-22T09:00:25Z</time>
      </trkpt>
      <trkpt lat="45.84775" lon="5.80554">
        <ele>238.7</ele>
        <time>2021-08-22T09:00:26Z</time>
      </trkpt>
      <trkpt lat="45.84774" lon="5.80544">
        <ele>238.7</ele>
        <time>2021-08-22T09:00:27Z</time>
      </trkpt>
      <trkpt lat="45.84775" lon="5.80533">
        <ele>238.7</ele>
        <time>2021-08-22T09:00:28Z</time>
      </trkpt>
      <trkpt lat="45.84775" lon="5.80525">
        <ele>238.7</ele>
        <time>2021-08-22T09:00:29Z</time>
      </trkpt>
      <trkpt lat="45.84776" lon="5.80514">
        <ele>238.7</ele>
        <time>2021-08-22T09:00:31Z</time>
      </trkpt>
      <trkpt lat="45.84776" lon="5.80504">
        <ele>238.7</ele>
        <time>2021-08-22T09:00:32Z</time>
      </trkpt>
      <trkpt lat="45.84778" lon="5.80492">
        <ele>238.7</ele>
        <time>2021-08-22T09:00:34Z</time>
      </trkpt>
      <trkpt lat="45.84779" lon="5.80478">
        <ele>238.7</ele>
        <time>2021-08-22T09:00:36Z</time>
      </trkpt>
      <trkpt lat="45.84779" lon="5.8047">
        <ele>238.7</ele>
        <time>2021-08-22T09:00:37Z</time>
      </trkpt>
      <trkpt lat="45.8478" lon="5.80458">
        <ele>238.7</ele>
        <time>2021-08-22T09:00:39Z</time>
      </trkpt>
      <trkpt lat="45.84781" lon="5.8045">
        <ele>238.7</ele>
        <time>2021-08-22T09:00:40Z</time>
      </trkpt>
      <trkpt lat="45.8478" lon="5.80443">
        <ele>238.7</ele>
        <time>2021-08-22T09:00:41Z</time>
      </trkpt>
      <trkpt lat="45.8478" lon="5.80435">
        <ele>238.7</ele>
        <time>2021-08-22T09:00:42Z</time>
      </trkpt>
      <trkpt lat="45.84781" lon="5.80425">
        <ele>238.6</ele>
        <time>2021-08-22T09:00:44Z</time>
      </trkpt>
      <trkpt lat="45.8478" lon="5.80417">
        <ele>238.6</ele>
        <time>2021-08-22T09:00:45Z</time>
      </trkpt>
      <trkpt lat="45.84779" lon="5.80407">
        <ele>238.6</ele>
        <time>2021-08-22T09:00:47Z</time>
      </trkpt>
      <trkpt lat="45.84778" lon="5.80399">
        <ele>238.6</ele>
        <time>2021-08-22T09:00:48Z</time>
      </trkpt>
      <trkpt lat="45.84776" lon="5.80393">
        <ele>238.6</ele>
        <time>2021-08-22T09:00:49Z</time>
      </trkpt>
      <trkpt lat="45.84771" lon="5.80385">
        <ele>238.6</ele>
        <time>2021-08-22T09:00:51Z</time>
      </trkpt>
      <trkpt lat="45.84767" lon="5.80381">
        <ele>238.6</ele>
        <time>2021-08-22T09:00:52Z</time>
      </trkpt>
      <trkpt lat="45.84763" lon="5.80376">
        <ele>238.6</ele>
        <time>2021-08-22T09:00:53Z</time>
      </trkpt>
      <trkpt lat="45.8476" lon="5.80373">
        <ele>238.6</ele>
        <time>2021-08-22T09:00:54Z</time>
      </trkpt>
      <trkpt lat="45.84757" lon="5.8037">
        <ele>238.5</ele>
        <time>2021-08-22T09:00:56Z</time>
      </trkpt>
      <trkpt lat="45.84756" lon="5.80369">
        <ele>238.5</ele>
        <time>2021-08-22T09:00:57Z</time>
      </trkpt>
      <trkpt lat="45.84752" lon="5.80366">
        <ele>238.5</ele>
        <time>2021-08-22T09:00:58Z</time>
      </trkpt>
      <trkpt lat="45.84751" lon="5.80364">
        <ele>238.5</ele>
        <time>2021-08-22T09:00:59Z</time>
      </trkpt>
      <trkpt lat="45.84748" lon="5.80362">
        <ele>238.5</ele>
        <time>2021-08-22T09:01:00Z</time>
      </trkpt>
      <trkpt lat="45.84746" lon="5.8036">
        <ele>238.4</ele>
        <time>2021-08-22T09:01:01Z</time>
      </trkpt>
      <trkpt lat="45.84743" lon="5.80358">
        <ele>238.4</ele>
        <time>2021-08-22T09:01:02Z</time>
      </trkpt>
      <trkpt lat="45.84738" lon="5.80355">
        <ele>238.4</ele>
        <time>2021-08-22T09:01:03Z</time>
      </trkpt>
      <trkpt lat="45.84736" lon="5.80352">
        <ele>238.4</ele>
        <time>2021-08-22T09:01:05Z</time>
      </trkpt>
      <trkpt lat="45.84733" lon="5.80346">
        <ele>238.4</ele>
        <time>2021-08-22T09:01:06Z</time>
      </trkpt>
      <trkpt lat="45.84732" lon="5.80343">
        <ele>238.4</ele>
        <time>2021-08-22T09:01:07Z</time>
      </trkpt>
      <trkpt lat="45.84729" lon="5.8034">
        <ele>238.4</ele>
        <time>2021-08-22T09:01:08Z</time>
      </trkpt>
      <trkpt lat="45.84727" lon="5.80339">
        <ele>238.4</ele>
        <time>2021-08-22T09:01:09Z</time>
      </trkpt>
      <trkpt lat="45.84723" lon="5.80336">
        <ele>238.3</ele>
        <time>2021-08-22T09:01:10Z</time>
      </trkpt>
      <trkpt lat="45.84719" lon="5.80331">
        <ele>238.3</ele>
        <time>2021-08-22T09:01:12Z</time>
      </trkpt>
      <trkpt lat="45.84716" lon="5.80329">
        <ele>238.3</ele>
        <time>2021-08-22T09:01:13Z</time>
      </trkpt>
      <trkpt lat="45.8471" lon="5.80323">
        <ele>238.4</ele>
        <time>2021-08-22T09:01:15Z</time>
      </trkpt>
      <trkpt lat="45.84706" lon="5.80318">
        <ele>238.4</ele>
        <time>2021-08-22T09:01:16Z</time>
      </trkpt>
      <trkpt lat="45.84698" lon="5.8031">
        <ele>238.4</ele>
        <time>2021-08-22T09:01:18Z</time>
      </trkpt>
      <trkpt lat="45.84695" lon="5.80306">
        <ele>238.4</ele>
        <time>2021-08-22T09:01:19Z</time>
      </trkpt>
      <trkpt lat="45.84693" lon="5.80299">
        <ele>238.3</ele>
        <time>2021-08-22T09:01:21Z</time>
      </trkpt>
      <trkpt lat="45.8469" lon="5.80294">
        <ele>238.3</ele>
        <time>2021-08-22T09:01:22Z</time>
      </trkpt>
      <trkpt lat="45.84685" lon="5.80285">
        <ele>238.3</ele>
        <time>2021-08-22T09:01:24Z</time>
      </trkpt>
      <trkpt lat="45.84681" lon="5.80281">
        <ele>238.3</ele>
        <time>2021-08-22T09:01:25Z</time>
      </trkpt>
      <trkpt lat="45.84674" lon="5.80274">
        <ele>238.3</ele>
        <time>2021-08-22T09:01:27Z</time>
      </trkpt>
      <trkpt lat="45.84672" lon="5.80269">
        <ele>238.3</ele>
        <time>2021-08-22T09:01:28Z</time>
      </trkpt>
      <trkpt lat="45.84668" lon="5.80264">
        <ele>238.3</ele>
        <time>2021-08-22T09:01:29Z</time>
      </trkpt>
      <trkpt lat="45.84663" lon="5.80257">
        <ele>238.3</ele>
        <time>2021-08-22T09:01:30Z</time>
      </trkpt>
      <trkpt lat="45.84659" lon="5.80253">
        <ele>238.4</ele>
        <time>2021-08-22T09:01:32Z</time>
      </trkpt>
      <trkpt lat="45.84654" lon="5.80249">
        <ele>238.4</ele>
        <time>2021-08-22T09:01:33Z</time>
      </trkpt>
      <trkpt lat="45.84652" lon="5.80245">
        <ele>238.4</ele>
        <time>2021-08-22T09:01:34Z</time>
      </trkpt>
      <trkpt lat="45.84648" lon="5.80239">
        <ele>238.4</ele>
        <time>2021-08-22T09:01:36Z</time>
      </trkpt>
      <trkpt lat="45.84644" lon="5.80233">
        <ele>238.4</ele>
        <time>2021-08-22T09:01:37Z</time>
      </trkpt>
      <trkpt lat="45.84641" lon="5.80227">
        <ele>238.4</ele>
        <time>2021-08-22T09:01:39Z</time>
      </trkpt>
      <trkpt lat="45.84638" lon="5.80222">
        <ele>238.4</ele>
        <time>2021-08-22T09:01:40Z</time>
      </trkpt>
      <trkpt lat="45.84635" lon="5.80218">
        <ele>238.4</ele>
        <time>2021-08-22T09:01:41Z</time>
      </trkpt>
      <trkpt lat="45.84629" lon="5.80215">
        <ele>238.4</ele>
        <time>2021-08-22T09:01:42Z</time>
      </trkpt>
      <trkpt lat="45.84626" lon="5.80212">
        <ele>238.4</ele>
        <time>2021-08-22T09:01:43Z</time>
      </trkpt>
      <trkpt lat="45.84622" lon="5.80208">
        <ele>238.4</ele>
        <time>2021-08-22T09:01:45Z</time>
      </trkpt>
      <trkpt lat="45.84619" lon="5.80204">
        <ele>238.3</ele>
        <time>2021-08-22T09:01:46Z</time>
      </trkpt>
      <trkpt lat="45.84616" lon="5.80198">
        <ele>238.3</ele>
        <time>2021-08-22T09:01:47Z</time>
      </trkpt>
      <trkpt lat="45.84612" lon="5.80193">
        <ele>238.3</ele>
        <time>2021-08-22T09:01:49Z</time>
      </trkpt>
      <trkpt lat="45.84608" lon="5.80188">
        <ele>238.3</ele>
        <time>2021-08-22T09:01:50Z</time>
      </trkpt>
      <trkpt lat="45.84602" lon="5.80182">
        <ele>238.3</ele>
        <time>2021-08-22T09:01:52Z</time>
      </trkpt>
      <trkpt lat="45.84598" lon="5.80177">
        <ele>238.3</ele>
        <time>2021-08-22T09:01:53Z</time>
      </trkpt>
      <trkpt lat="45.84594" lon="5.8017">
        <ele>238.4</ele>
        <time>2021-08-22T09:01:55Z</time>
      </trkpt>
      <trkpt lat="45.84591" lon="5.80166">
        <ele>238.4</ele>
        <time>2021-08-22T09:01:56Z</time>
      </trkpt>
      <trkpt lat="45.84588" lon="5.80161">
        <ele>238.4</ele>
        <time>2021-08-22T09:01:57Z</time>
      </trkpt>
      <trkpt lat="45.84583" lon="5.80155">
        <ele>238.4</ele>
        <time>2021-08-22T09:01:59Z</time>
      </trkpt>
      <trkpt lat="45.8458" lon="5.80152">
        <ele>238.4</ele>
        <time>2021-08-22T09:02:00Z</time>
      </trkpt>
      <trkpt lat="45.84574" lon="5.80149">
        <ele>238.4</ele>
        <time>2021-08-22T09:02:01Z</time>
      </trkpt>
      <trkpt lat="45.8457" lon="5.80146">
        <ele>238.4</ele>
        <time>2021-08-22T09:02:02Z</time>
      </trkpt>
      <trkpt lat="45.84566" lon="5.8014">
        <ele>238.4</ele>
        <time>2021-08-22T09:02:04Z</time>
      </trkpt>
      <trkpt lat="45.84563" lon="5.80136">
        <ele>238.4</ele>
        <time>2021-08-22T09:02:05Z</time>
      </trkpt>
      <trkpt lat="45.84559" lon="5.80131">
        <ele>238.4</ele>
        <time>2021-08-22T09:02:06Z</time>
      </trkpt>
      <trkpt lat="45.84556" lon="5.80127">
        <ele>238.4</ele>
        <time>2021-08-22T09:02:08Z</time>
      </trkpt>
      <trkpt lat="45.84553" lon="5.80122">
        <ele>238.4</ele>
        <time>2021-08-22T09:02:09Z</time>
      </trkpt>
      <trkpt lat="45.84549" lon="5.80117">
        <ele>238.4</ele>
        <time>2021-08-22T09:02:10Z</time>
      </trkpt>
      <trkpt lat="45.84546" lon="5.80114">
        <ele>238.4</ele>
        <time>2021-08-22T09:02:11Z</time>
      </trkpt>
      <trkpt lat="45.84542" lon="5.80108">
        <ele>238.4</ele>
        <time>2021-08-22T09:02:13Z</time>
      </trkpt>
      <trkpt lat="45.84541" lon="5.80105">
        <ele>238.4</ele>
        <time>2021-08-22T09:02:14Z</time>
      </trkpt>
      <trkpt lat="45.8454" lon="5.80101">
        <ele>238.4</ele>
        <time>2021-08-22T09:02:15Z</time>
      </trkpt>
      <trkpt lat="45.84536" lon="5.80095">
        <ele>238.4</ele>
        <time>2021-08-22T09:02:17Z</time>
      </trkpt>
      <trkpt lat="45.84535" lon="5.80092">
        <ele>238.4</ele>
        <time>2021-08-22T09:02:18Z</time>
      </trkpt>
      <trkpt lat="45.84531" lon="5.80086">
        <ele>238.4</ele>
        <time>2021-08-22T09:02:20Z</time>
      </trkpt>
      <trkpt lat="45.84528" lon="5.80083">
        <ele>238.4</ele>
        <time>2021-08-22T09:02:21Z</time>
      </trkpt>
      <trkpt lat="45.84524" lon="5.80078">
        <ele>238.4</ele>
        <time>2021-08-22T09:02:23Z</time>
      </trkpt>
      <trkpt lat="45.84521" lon="5.80075">
        <ele>238.4</ele>
        <time>2021-08-22T09:02:24Z</time>
      </trkpt>
      <trkpt lat="45.84517" lon="5.80071">
        <ele>238.4</ele>
        <time>2021-08-22T09:02:25Z</time>
      </trkpt>
      <trkpt lat="45.84514" lon="5.80067">
        <ele>238.4</ele>
        <time>2021-08-22T09:02:27Z</time>
      </trkpt>
      <trkpt lat="45.84512" lon="5.80064">
        <ele>238.3</ele>
        <time>2021-08-22T09:02:28Z</time>
      </trkpt>
      <trkpt lat="45.84509" lon="5.8006">
        <ele>238.3</ele>
        <time>2021-08-22T09:02:29Z</time>
      </trkpt>
      <trkpt lat="45.84508" lon="5.80058">
        <ele>238.3</ele>
        <time>2021-08-22T09:02:30Z</time>
      </trkpt>
      <trkpt lat="45.84506" lon="5.80055">
        <ele>238.3</ele>
        <time>2021-08-22T09:02:31Z</time>
      </trkpt>
      <trkpt lat="45.84502" lon="5.8005">
        <ele>238.3</ele>
        <time>2021-08-22T09:02:32Z</time>
      </trkpt>
      <trkpt lat="45.84499" lon="5.80047">
        <ele>238.3</ele>
        <time>2021-08-22T09:02:33Z</time>
      </trkpt>
      <trkpt lat="45.84496" lon="5.80044">
        <ele>238.3</ele>
        <time>2021-08-22T09:02:34Z</time>
      </trkpt>
      <trkpt lat="45.84491" lon="5.8004">
        <ele>238.3</ele>
        <time>2021-08-22T09:02:35Z</time>
      </trkpt>
      <trkpt lat="45.84487" lon="5.80036">
        <ele>238.3</ele>
        <time>2021-08-22T09:02:37Z</time>
      </trkpt>
      <trkpt lat="45.84486" lon="5.80035">
        <ele>238.3</ele>
        <time>2021-08-22T09:02:38Z</time>
      </trkpt>
      <trkpt lat="45.84481" lon="5.80033">
        <ele>238.3</ele>
        <time>2021-08-22T09:02:40Z</time>
      </trkpt>
      <trkpt lat="45.84477" lon="5.80031">
        <ele>238.3</ele>
        <time>2021-08-22T09:02:41Z</time>
      </trkpt>
      <trkpt lat="45.84475" lon="5.8003">
        <ele>238.3</ele>
        <time>2021-08-22T09:02:42Z</time>
      </trkpt>
      <trkpt lat="45.84473" lon="5.80028">
        <ele>238.3</ele>
        <time>2021-08-22T09:02:44Z</time>
      </trkpt>
      <trkpt lat="45.84471" lon="5.80026">
        <ele>238.3</ele>
        <time>2021-08-22T09:02:45Z</time>
      </trkpt>
      <trkpt lat="45.84384" lon="5.7998">
        <ele>238.1</ele>
        <time>2021-08-22T09:03:08Z</time>
      </trkpt>
      <trkpt lat="45.84377" lon="5.79973">
        <ele>238.1</ele>
        <time>2021-08-22T09:03:10Z</time>
      </trkpt>
      <trkpt lat="45.84371" lon="5.79968">
        <ele>238</ele>
        <time>2021-08-22T09:03:11Z</time>
      </trkpt>
      <trkpt lat="45.84366" lon="5.79963">
        <ele>238</ele>
        <time>2021-08-22T09:03:12Z</time>
      </trkpt>
      <trkpt lat="45.84362" lon="5.79959">
        <ele>238</ele>
        <time>2021-08-22T09:03:13Z</time>
      </trkpt>
      <trkpt lat="45.84359" lon="5.79956">
        <ele>238</ele>
        <time>2021-08-22T09:03:14Z</time>
      </trkpt>
      <trkpt lat="45.84355" lon="5.7995">
        <ele>238</ele>
        <time>2021-08-22T09:03:15Z</time>
      </trkpt>
      <trkpt lat="45.84349" lon="5.7994">
        <ele>238</ele>
        <time>2021-08-22T09:03:17Z</time>
      </trkpt>
      <trkpt lat="45.84348" lon="5.79937">
        <ele>238</ele>
        <time>2021-08-22T09:03:18Z</time>
      </trkpt>
      <trkpt lat="45.84337" lon="5.79917">
        <ele>238</ele>
        <time>2021-08-22T09:03:20Z</time>
      </trkpt>
      <trkpt lat="45.84333" lon="5.79912">
        <ele>238</ele>
        <time>2021-08-22T09:03:21Z</time>
      </trkpt>
      <trkpt lat="45.84329" lon="5.79903">
        <ele>238</ele>
        <time>2021-08-22T09:03:22Z</time>
      </trkpt>
      <trkpt lat="45.84325" lon="5.79892">
        <ele>238</ele>
        <time>2021-08-22T09:03:24Z</time>
      </trkpt>
      <trkpt lat="45.84317" lon="5.7987">
        <ele>237.9</ele>
        <time>2021-08-22T09:03:25Z</time>
      </trkpt>
      <trkpt lat="45.84308" lon="5.7986">
        <ele>237.8</ele>
        <time>2021-08-22T09:03:27Z</time>
      </trkpt>
      <trkpt lat="45.84304" lon="5.79857">
        <ele>237.8</ele>
        <time>2021-08-22T09:03:28Z</time>
      </trkpt>
      <trkpt lat="45.843" lon="5.79861">
        <ele>237.8</ele>
        <time>2021-08-22T09:03:29Z</time>
      </trkpt>
      <trkpt lat="45.84296" lon="5.79865">
        <ele>237.8</ele>
        <time>2021-08-22T09:03:31Z</time>
      </trkpt>
      <trkpt lat="45.84292" lon="5.79869">
        <ele>237.7</ele>
        <time>2021-08-22T09:03:32Z</time>
      </trkpt>
      <trkpt lat="45.84288" lon="5.79871">
        <ele>237.7</ele>
        <time>2021-08-22T09:03:33Z</time>
      </trkpt>
      <trkpt lat="45.84288" lon="5.79872">
        <ele>237.7</ele>
        <time>2021-08-22T09:03:34Z</time>
      </trkpt>
      <trkpt lat="45.84287" lon="5.79874">
        <ele>237.7</ele>
        <time>2021-08-22T09:03:35Z</time>
      </trkpt>
      <trkpt lat="45.84285" lon="5.79875">
        <ele>237.7</ele>
        <time>2021-08-22T09:03:36Z</time>
      </trkpt>
      <trkpt lat="45.8428" lon="5.79874">
        <ele>237.7</ele>
        <time>2021-08-22T09:03:38Z</time>
      </trkpt>
      <trkpt lat="45.84276" lon="5.79872">
        <ele>237.7</ele>
        <time>2021-08-22T09:03:39Z</time>
      </trkpt>
      <trkpt lat="45.84272" lon="5.79868">
        <ele>237.7</ele>
        <time>2021-08-22T09:03:40Z</time>
      </trkpt>
      <trkpt lat="45.84266" lon="5.79863">
        <ele>237.6</ele>
        <time>2021-08-22T09:03:41Z</time>
      </trkpt>
      <trkpt lat="45.84262" lon="5.79859">
        <ele>237.6</ele>
        <time>2021-08-22T09:03:42Z</time>
      </trkpt>
      <trkpt lat="45.84256" lon="5.79855">
        <ele>237.6</ele>
        <time>2021-08-22T09:03:44Z</time>
      </trkpt>
      <trkpt lat="45.84251" lon="5.7985">
        <ele>237.6</ele>
        <time>2021-08-22T09:03:45Z</time>
      </trkpt>
      <trkpt lat="45.84248" lon="5.79848">
        <ele>237.6</ele>
        <time>2021-08-22T09:03:46Z</time>
      </trkpt>
      <trkpt lat="45.84245" lon="5.79847">
        <ele>237.6</ele>
        <time>2021-08-22T09:03:47Z</time>
      </trkpt>
      <trkpt lat="45.8424" lon="5.79844">
        <ele>237.6</ele>
        <time>2021-08-22T09:03:49Z</time>
      </trkpt>
      <trkpt lat="45.84235" lon="5.79843">
        <ele>237.5</ele>
        <time>2021-08-22T09:03:50Z</time>
      </trkpt>
      <trkpt lat="45.84231" lon="5.79841">
        <ele>237.5</ele>
        <time>2021-08-22T09:03:52Z</time>
      </trkpt>
      <trkpt lat="45.84227" lon="5.7984">
        <ele>237.5</ele>
        <time>2021-08-22T09:03:53Z</time>
      </trkpt>
      <trkpt lat="45.84224" lon="5.79838">
        <ele>237.5</ele>
        <time>2021-08-22T09:03:54Z</time>
      </trkpt>
      <trkpt lat="45.84221" lon="5.79835">
        <ele>237.5</ele>
        <time>2021-08-22T09:03:55Z</time>
      </trkpt>
      <trkpt lat="45.84218" lon="5.79833">
        <ele>237.5</ele>
        <time>2021-08-22T09:03:56Z</time>
      </trkpt>
      <trkpt lat="45.84214" lon="5.79831">
        <ele>237.6</ele>
        <time>2021-08-22T09:03:57Z</time>
      </trkpt>
      <trkpt lat="45.8421" lon="5.79828">
        <ele>237.6</ele>
        <time>2021-08-22T09:03:59Z</time>
      </trkpt>
      <trkpt lat="45.84207" lon="5.79827">
        <ele>237.6</ele>
        <time>2021-08-22T09:04:00Z</time>
      </trkpt>
      <trkpt lat="45.84202" lon="5.79825">
        <ele>237.6</ele>
        <time>2021-08-22T09:04:02Z</time>
      </trkpt>
      <trkpt lat="45.84198" lon="5.79824">
        <ele>237.6</ele>
        <time>2021-08-22T09:04:03Z</time>
      </trkpt>
      <trkpt lat="45.84193" lon="5.79822">
        <ele>237.6</ele>
        <time>2021-08-22T09:04:04Z</time>
      </trkpt>
      <trkpt lat="45.84189" lon="5.79821">
        <ele>237.6</ele>
        <time>2021-08-22T09:04:05Z</time>
      </trkpt>
      <trkpt lat="45.84183" lon="5.7982">
        <ele>237.6</ele>
        <time>2021-08-22T09:04:07Z</time>
      </trkpt>
      <trkpt lat="45.84179" lon="5.7982">
        <ele>237.6</ele>
        <time>2021-08-22T09:04:08Z</time>
      </trkpt>
      <trkpt lat="45.84175" lon="5.7982">
        <ele>237.6</ele>
        <time>2021-08-22T09:04:09Z</time>
      </trkpt>
      <trkpt lat="45.84166" lon="5.79823">
        <ele>237.6</ele>
        <time>2021-08-22T09:04:11Z</time>
      </trkpt>
      <trkpt lat="45.84162" lon="5.79823">
        <ele>237.6</ele>
        <time>2021-08-22T09:04:12Z</time>
      </trkpt>
      <trkpt lat="45.84158" lon="5.79823">
        <ele>237.6</ele>
        <time>2021-08-22T09:04:13Z</time>
      </trkpt>
      <trkpt lat="45.84154" lon="5.79821">
        <ele>237.6</ele>
        <time>2021-08-22T09:04:15Z</time>
      </trkpt>
      <trkpt lat="45.8415" lon="5.7982">
        <ele>237.6</ele>
        <time>2021-08-22T09:04:16Z</time>
      </trkpt>
      <trkpt lat="45.84146" lon="5.7982">
        <ele>237.6</ele>
        <time>2021-08-22T09:04:17Z</time>
      </trkpt>
      <trkpt lat="45.84139" lon="5.7982">
        <ele>237.5</ele>
        <time>2021-08-22T09:04:18Z</time>
      </trkpt>
      <trkpt lat="45.84132" lon="5.79821">
        <ele>237.5</ele>
        <time>2021-08-22T09:04:20Z</time>
      </trkpt>
      <trkpt lat="45.84123" lon="5.79821">
        <ele>237.5</ele>
        <time>2021-08-22T09:04:22Z</time>
      </trkpt>
      <trkpt lat="45.84122" lon="5.79821">
        <ele>237.5</ele>
        <time>2021-08-22T09:04:23Z</time>
      </trkpt>
      <trkpt lat="45.84118" lon="5.79822">
        <ele>237.5</ele>
        <time>2021-08-22T09:04:25Z</time>
      </trkpt>
      <trkpt lat="45.84112" lon="5.79822">
        <ele>237.5</ele>
        <time>2021-08-22T09:04:26Z</time>
      </trkpt>
      <trkpt lat="45.84109" lon="5.79821">
        <ele>237.5</ele>
        <time>2021-08-22T09:04:27Z</time>
      </trkpt>
      <trkpt lat="45.84107" lon="5.7982">
        <ele>237.5</ele>
        <time>2021-08-22T09:04:28Z</time>
      </trkpt>
      <trkpt lat="45.84103" lon="5.79818">
        <ele>237.5</ele>
        <time>2021-08-22T09:04:30Z</time>
      </trkpt>
      <trkpt lat="45.84097" lon="5.79816">
        <ele>237.5</ele>
        <time>2021-08-22T09:04:31Z</time>
      </trkpt>
      <trkpt lat="45.84095" lon="5.79814">
        <ele>237.5</ele>
        <time>2021-08-22T09:04:32Z</time>
      </trkpt>
      <trkpt lat="45.84094" lon="5.79813">
        <ele>237.5</ele>
        <time>2021-08-22T09:04:33Z</time>
      </trkpt>
      <trkpt lat="45.84086" lon="5.79809">
        <ele>237.5</ele>
        <time>2021-08-22T09:04:35Z</time>
      </trkpt>
      <trkpt lat="45.8408" lon="5.79807">
        <ele>237.5</ele>
        <time>2021-08-22T09:04:36Z</time>
      </trkpt>
      <trkpt lat="45.84075" lon="5.79804">
        <ele>237.5</ele>
        <time>2021-08-22T09:04:37Z</time>
      </trkpt>
      <trkpt lat="45.8407" lon="5.798">
        <ele>237.5</ele>
        <time>2021-08-22T09:04:38Z</time>
      </trkpt>
      <trkpt lat="45.84067" lon="5.79798">
        <ele>237.5</ele>
        <time>2021-08-22T09:04:39Z</time>
      </trkpt>
      <trkpt lat="45.84063" lon="5.79796">
        <ele>237.5</ele>
        <time>2021-08-22T09:04:40Z</time>
      </trkpt>
      <trkpt lat="45.84058" lon="5.79791">
        <ele>237.5</ele>
        <time>2021-08-22T09:04:42Z</time>
      </trkpt>
      <trkpt lat="45.84056" lon="5.79788">
        <ele>237.5</ele>
        <time>2021-08-22T09:04:43Z</time>
      </trkpt>
      <trkpt lat="45.84051" lon="5.79786">
        <ele>237.5</ele>
        <time>2021-08-22T09:04:44Z</time>
      </trkpt>
      <trkpt lat="45.84049" lon="5.79785">
        <ele>237.5</ele>
        <time>2021-08-22T09:04:46Z</time>
      </trkpt>
      <trkpt lat="45.84047" lon="5.79785">
        <ele>237.5</ele>
        <time>2021-08-22T09:04:48Z</time>
      </trkpt>
      <trkpt lat="45.84022" lon="5.79786">
        <ele>237.6</ele>
        <time>2021-08-22T09:04:52Z</time>
      </trkpt>
      <trkpt lat="45.84017" lon="5.79785">
        <ele>237.6</ele>
        <time>2021-08-22T09:04:53Z</time>
      </trkpt>
      <trkpt lat="45.84007" lon="5.79786">
        <ele>237.6</ele>
        <time>2021-08-22T09:04:55Z</time>
      </trkpt>
      <trkpt lat="45.83996" lon="5.79787">
        <ele>237.6</ele>
        <time>2021-08-22T09:04:57Z</time>
      </trkpt>
      <trkpt lat="45.83989" lon="5.7979">
        <ele>237.6</ele>
        <time>2021-08-22T09:04:58Z</time>
      </trkpt>
      <trkpt lat="45.83984" lon="5.79791">
        <ele>237.6</ele>
        <time>2021-08-22T09:04:59Z</time>
      </trkpt>
      <trkpt lat="45.83981" lon="5.7979">
        <ele>237.6</ele>
        <time>2021-08-22T09:05:01Z</time>
      </trkpt>
      <trkpt lat="45.83976" lon="5.7979">
        <ele>237.6</ele>
        <time>2021-08-22T09:05:02Z</time>
      </trkpt>
      <trkpt lat="45.83972" lon="5.79787">
        <ele>237.5</ele>
        <time>2021-08-22T09:05:04Z</time>
      </trkpt>
      <trkpt lat="45.83969" lon="5.79786">
        <ele>237.5</ele>
        <time>2021-08-22T09:05:05Z</time>
      </trkpt>
      <trkpt lat="45.83965" lon="5.79783">
        <ele>237.5</ele>
        <time>2021-08-22T09:05:06Z</time>
      </trkpt>
      <trkpt lat="45.83961" lon="5.7978">
        <ele>237.5</ele>
        <time>2021-08-22T09:05:07Z</time>
      </trkpt>
      <trkpt lat="45.83958" lon="5.79778">
        <ele>237.5</ele>
        <time>2021-08-22T09:05:09Z</time>
      </trkpt>
      <trkpt lat="45.83956" lon="5.79778">
        <ele>237.5</ele>
        <time>2021-08-22T09:05:10Z</time>
      </trkpt>
      <trkpt lat="45.83954" lon="5.79778">
        <ele>237.5</ele>
        <time>2021-08-22T09:05:12Z</time>
      </trkpt>
      <trkpt lat="45.83937" lon="5.79784">
        <ele>237.5</ele>
        <time>2021-08-22T09:05:15Z</time>
      </trkpt>
      <trkpt lat="45.8393" lon="5.79787">
        <ele>237.5</ele>
        <time>2021-08-22T09:05:16Z</time>
      </trkpt>
      <trkpt lat="45.83924" lon="5.7979">
        <ele>237.5</ele>
        <time>2021-08-22T09:05:17Z</time>
      </trkpt>
      <trkpt lat="45.83917" lon="5.79795">
        <ele>237.4</ele>
        <time>2021-08-22T09:05:18Z</time>
      </trkpt>
      <trkpt lat="45.83911" lon="5.79798">
        <ele>237.4</ele>
        <time>2021-08-22T09:05:20Z</time>
      </trkpt>
      <trkpt lat="45.83908" lon="5.79798">
        <ele>237.4</ele>
        <time>2021-08-22T09:05:21Z</time>
      </trkpt>
      <trkpt lat="45.83904" lon="5.79799">
        <ele>237.4</ele>
        <time>2021-08-22T09:05:22Z</time>
      </trkpt>
      <trkpt lat="45.83899" lon="5.79801">
        <ele>237.4</ele>
        <time>2021-08-22T09:05:24Z</time>
      </trkpt>
      <trkpt lat="45.83897" lon="5.79802">
        <ele>237.4</ele>
        <time>2021-08-22T09:05:25Z</time>
      </trkpt>
      <trkpt lat="45.83895" lon="5.79804">
        <ele>237.4</ele>
        <time>2021-08-22T09:05:26Z</time>
      </trkpt>
      <trkpt lat="45.83892" lon="5.79806">
        <ele>237.4</ele>
        <time>2021-08-22T09:05:27Z</time>
      </trkpt>
      <trkpt lat="45.83888" lon="5.79809">
        <ele>237.4</ele>
        <time>2021-08-22T09:05:28Z</time>
      </trkpt>
      <trkpt lat="45.83886" lon="5.79809">
        <ele>237.4</ele>
        <time>2021-08-22T09:05:29Z</time>
      </trkpt>
      <trkpt lat="45.83885" lon="5.79809">
        <ele>237.4</ele>
        <time>2021-08-22T09:05:30Z</time>
      </trkpt>
      <trkpt lat="45.83884" lon="5.79809">
        <ele>237.4</ele>
        <time>2021-08-22T09:05:31Z</time>
      </trkpt>
      <trkpt lat="45.83881" lon="5.7981">
        <ele>237.4</ele>
        <time>2021-08-22T09:05:32Z</time>
      </trkpt>
      <trkpt lat="45.83879" lon="5.79812">
        <ele>237.4</ele>
        <time>2021-08-22T09:05:34Z</time>
      </trkpt>
      <trkpt lat="45.83877" lon="5.79814">
        <ele>237.4</ele>
        <time>2021-08-22T09:05:35Z</time>
      </trkpt>
      <trkpt lat="45.83876" lon="5.79815">
        <ele>237.4</ele>
        <time>2021-08-22T09:05:37Z</time>
      </trkpt>
      <trkpt lat="45.83873" lon="5.79816">
        <ele>237.4</ele>
        <time>2021-08-22T09:05:38Z</time>
      </trkpt>
      <trkpt lat="45.83556" lon="5.80022">
        <ele>237.4</ele>
        <time>2021-08-22T09:07:14Z</time>
      </trkpt>
      <trkpt lat="45.83545" lon="5.80028">
        <ele>237.3</ele>
        <time>2021-08-22T09:07:16Z</time>
      </trkpt>
      <trkpt lat="45.83537" lon="5.80036">
        <ele>237.2</ele>
        <time>2021-08-22T09:07:17Z</time>
      </trkpt>
      <trkpt lat="45.83532" lon="5.80039">
        <ele>237.2</ele>
        <time>2021-08-22T09:07:19Z</time>
      </trkpt>
      <trkpt lat="45.83529" lon="5.80042">
        <ele>237.2</ele>
        <time>2021-08-22T09:07:20Z</time>
      </trkpt>
      <trkpt lat="45.83525" lon="5.80044">
        <ele>237.2</ele>
        <time>2021-08-22T09:07:21Z</time>
      </trkpt>
      <trkpt lat="45.83523" lon="5.80045">
        <ele>237.2</ele>
        <time>2021-08-22T09:07:22Z</time>
      </trkpt>
      <trkpt lat="45.83515" lon="5.80048">
        <ele>237.1</ele>
        <time>2021-08-22T09:07:23Z</time>
      </trkpt>
      <trkpt lat="45.83509" lon="5.80051">
        <ele>237.1</ele>
        <time>2021-08-22T09:07:24Z</time>
      </trkpt>
      <trkpt lat="45.83503" lon="5.80053">
        <ele>237.1</ele>
        <time>2021-08-22T09:07:25Z</time>
      </trkpt>
      <trkpt lat="45.83498" lon="5.80055">
        <ele>237.1</ele>
        <time>2021-08-22T09:07:27Z</time>
      </trkpt>
      <trkpt lat="45.8349" lon="5.80056">
        <ele>237</ele>
        <time>2021-08-22T09:07:28Z</time>
      </trkpt>
      <trkpt lat="45.83486" lon="5.80056">
        <ele>237</ele>
        <time>2021-08-22T09:07:29Z</time>
      </trkpt>
      <trkpt lat="45.8348" lon="5.8006">
        <ele>237</ele>
        <time>2021-08-22T09:07:31Z</time>
      </trkpt>
      <trkpt lat="45.83477" lon="5.80059">
        <ele>237</ele>
        <time>2021-08-22T09:07:32Z</time>
      </trkpt>
      <trkpt lat="45.83474" lon="5.80059">
        <ele>237</ele>
        <time>2021-08-22T09:07:33Z</time>
      </trkpt>
      <trkpt lat="45.83469" lon="5.80062">
        <ele>237</ele>
        <time>2021-08-22T09:07:34Z</time>
      </trkpt>
      <trkpt lat="45.83463" lon="5.80066">
        <ele>236.9</ele>
        <time>2021-08-22T09:07:36Z</time>
      </trkpt>
      <trkpt lat="45.83457" lon="5.80072">
        <ele>236.8</ele>
        <time>2021-08-22T09:07:37Z</time>
      </trkpt>
      <trkpt lat="45.83452" lon="5.80078">
        <ele>236.7</ele>
        <time>2021-08-22T09:07:39Z</time>
      </trkpt>
      <trkpt lat="45.83449" lon="5.80084">
        <ele>236.6</ele>
        <time>2021-08-22T09:07:40Z</time>
      </trkpt>
      <trkpt lat="45.83445" lon="5.80093">
        <ele>236.5</ele>
        <time>2021-08-22T09:07:42Z</time>
      </trkpt>
      <trkpt lat="45.83443" lon="5.80101">
        <ele>236.5</ele>
        <time>2021-08-22T09:07:43Z</time>
      </trkpt>
      <trkpt lat="45.83441" lon="5.80108">
        <ele>236.5</ele>
        <time>2021-08-22T09:07:45Z</time>
      </trkpt>
      <trkpt lat="45.8344" lon="5.80112">
        <ele>236.6</ele>
        <time>2021-08-22T09:07:46Z</time>
      </trkpt>
      <trkpt lat="45.83437" lon="5.80121">
        <ele>236.9</ele>
        <time>2021-08-22T09:07:48Z</time>
      </trkpt>
      <trkpt lat="45.83436" lon="5.80126">
        <ele>237</ele>
        <time>2021-08-22T09:07:49Z</time>
      </trkpt>
      <trkpt lat="45.83435" lon="5.80128">
        <ele>237</ele>
        <time>2021-08-22T09:07:50Z</time>
      </trkpt>
      <trkpt lat="45.83433" lon="5.80129">
        <ele>237</ele>
        <time>2021-08-22T09:07:52Z</time>
      </trkpt>
      <trkpt lat="45.83431" lon="5.80129">
        <ele>237.1</ele>
        <time>2021-08-22T09:07:53Z</time>
      </trkpt>
      <trkpt lat="45.83428" lon="5.80132">
        <ele>237.1</ele>
        <time>2021-08-22T09:07:55Z</time>
      </trkpt>
      <trkpt lat="45.83426" lon="5.80134">
        <ele>237.1</ele>
        <time>2021-08-22T09:07:56Z</time>
      </trkpt>
      <trkpt lat="45.83415" lon="5.80137">
        <ele>237.2</ele>
        <time>2021-08-22T09:07:58Z</time>
      </trkpt>
      <trkpt lat="45.8341" lon="5.80139">
        <ele>237.3</ele>
        <time>2021-08-22T09:07:59Z</time>
      </trkpt>
      <trkpt lat="45.83406" lon="5.80142">
        <ele>237.3</ele>
        <time>2021-08-22T09:08:00Z</time>
      </trkpt>
      <trkpt lat="45.83401" lon="5.80145">
        <ele>237.3</ele>
        <time>2021-08-22T09:08:01Z</time>
      </trkpt>
      <trkpt lat="45.83397" lon="5.80146">
        <ele>237.4</ele>
        <time>2021-08-22T09:08:03Z</time>
      </trkpt>
      <trkpt lat="45.83393" lon="5.80149">
        <ele>237.4</ele>
        <time>2021-08-22T09:08:04Z</time>
      </trkpt>
      <trkpt lat="45.83388" lon="5.80152">
        <ele>237.5</ele>
        <time>2021-08-22T09:08:05Z</time>
      </trkpt>
      <trkpt lat="45.83383" lon="5.80155">
        <ele>237.6</ele>
        <time>2021-08-22T09:08:06Z</time>
      </trkpt>
      <trkpt lat="45.83378" lon="5.80157">
        <ele>237.6</ele>
        <time>2021-08-22T09:08:07Z</time>
      </trkpt>
      <trkpt lat="45.83372" lon="5.80159">
        <ele>237.7</ele>
        <time>2021-08-22T09:08:08Z</time>
      </trkpt>
      <trkpt lat="45.83367" lon="5.8016">
        <ele>237.8</ele>
        <time>2021-08-22T09:08:10Z</time>
      </trkpt>
      <trkpt lat="45.83363" lon="5.8016">
        <ele>237.8</ele>
        <time>2021-08-22T09:08:11Z</time>
      </trkpt>
      <trkpt lat="45.83359" lon="5.80161">
        <ele>237.9</ele>
        <time>2021-08-22T09:08:12Z</time>
      </trkpt>
      <trkpt lat="45.83355" lon="5.80161">
        <ele>237.9</ele>
        <time>2021-08-22T09:08:13Z</time>
      </trkpt>
      <trkpt lat="45.8335" lon="5.80163">
        <ele>238</ele>
        <time>2021-08-22T09:08:14Z</time>
      </trkpt>
      <trkpt lat="45.83346" lon="5.80164">
        <ele>238.1</ele>
        <time>2021-08-22T09:08:15Z</time>
      </trkpt>
      <trkpt lat="45.83341" lon="5.80164">
        <ele>238.1</ele>
        <time>2021-08-22T09:08:17Z</time>
      </trkpt>
      <trkpt lat="45.83337" lon="5.80165">
        <ele>238.2</ele>
        <time>2021-08-22T09:08:18Z</time>
      </trkpt>
      <trkpt lat="45.83331" lon="5.80168">
        <ele>238.4</ele>
        <time>2021-08-22T09:08:19Z</time>
      </trkpt>
      <trkpt lat="45.83326" lon="5.80167">
        <ele>238.4</ele>
        <time>2021-08-22T09:08:20Z</time>
      </trkpt>
      <trkpt lat="45.83322" lon="5.80165">
        <ele>238.5</ele>
        <time>2021-08-22T09:08:21Z</time>
      </trkpt>
      <trkpt lat="45.83317" lon="5.80166">
        <ele>238.7</ele>
        <time>2021-08-22T09:08:23Z</time>
      </trkpt>
      <trkpt lat="45.83312" lon="5.80168">
        <ele>238.8</ele>
        <time>2021-08-22T09:08:24Z</time>
      </trkpt>
      <trkpt lat="45.83309" lon="5.80169">
        <ele>238.9</ele>
        <time>2021-08-22T09:08:25Z</time>
      </trkpt>
      <trkpt lat="45.83305" lon="5.80171">
        <ele>239</ele>
        <time>2021-08-22T09:08:26Z</time>
      </trkpt>
      <trkpt lat="45.83301" lon="5.80173">
        <ele>239.1</ele>
        <time>2021-08-22T09:08:27Z</time>
      </trkpt>
      <trkpt lat="45.83297" lon="5.80181">
        <ele>239.4</ele>
        <time>2021-08-22T09:08:28Z</time>
      </trkpt>
      <trkpt lat="45.83295" lon="5.8018">
        <ele>239.5</ele>
        <time>2021-08-22T09:08:29Z</time>
      </trkpt>
      <trkpt lat="45.83293" lon="5.80179">
        <ele>239.5</ele>
        <time>2021-08-22T09:08:30Z</time>
      </trkpt>
      <trkpt lat="45.83292" lon="5.80178">
        <ele>239.6</ele>
        <time>2021-08-22T09:08:31Z</time>
      </trkpt>
      <trkpt lat="45.83288" lon="5.80176">
        <ele>239.8</ele>
        <time>2021-08-22T09:08:33Z</time>
      </trkpt>
      <trkpt lat="45.83287" lon="5.80176">
        <ele>239.9</ele>
        <time>2021-08-22T09:08:34Z</time>
      </trkpt>
      <trkpt lat="45.83284" lon="5.80175">
        <ele>239.9</ele>
        <time>2021-08-22T09:08:36Z</time>
      </trkpt>
      <trkpt lat="45.83282" lon="5.80175">
        <ele>239.9</ele>
        <time>2021-08-22T09:08:37Z</time>
      </trkpt>
      <trkpt lat="45.83281" lon="5.80174">
        <ele>240</ele>
        <time>2021-08-22T09:08:39Z</time>
      </trkpt>
      <trkpt lat="45.83279" lon="5.80174">
        <ele>240</ele>
        <time>2021-08-22T09:08:40Z</time>
      </trkpt>
      <trkpt lat="45.83278" lon="5.80175">
        <ele>240</ele>
        <time>2021-08-22T09:08:41Z</time>
      </trkpt>
      <trkpt lat="45.83269" lon="5.80173">
        <ele>240</ele>
        <time>2021-08-22T09:08:48Z</time>
      </trkpt>
      <trkpt lat="45.83267" lon="5.80171">
        <ele>240</ele>
        <time>2021-08-22T09:08:49Z</time>
      </trkpt>
      <trkpt lat="45.83264" lon="5.80168">
        <ele>240</ele>
        <time>2021-08-22T09:08:51Z</time>
      </trkpt>
      <trkpt lat="45.83261" lon="5.80165">
        <ele>240</ele>
        <time>2021-08-22T09:08:52Z</time>
      </trkpt>
      <trkpt lat="45.83258" lon="5.80163">
        <ele>240</ele>
        <time>2021-08-22T09:08:53Z</time>
      </trkpt>
      <trkpt lat="45.83256" lon="5.80161">
        <ele>240</ele>
        <time>2021-08-22T09:08:54Z</time>
      </trkpt>
      <trkpt lat="45.83253" lon="5.80159">
        <ele>240</ele>
        <time>2021-08-22T09:08:55Z</time>
      </trkpt>
      <trkpt lat="45.8325" lon="5.80157">
        <ele>240</ele>
        <time>2021-08-22T09:08:56Z</time>
      </trkpt>
      <trkpt lat="45.83245" lon="5.80152">
        <ele>240</ele>
        <time>2021-08-22T09:08:58Z</time>
      </trkpt>
      <trkpt lat="45.83241" lon="5.8015">
        <ele>240</ele>
        <time>2021-08-22T09:08:59Z</time>
      </trkpt>
      <trkpt lat="45.83238" lon="5.80147">
        <ele>240</ele>
        <time>2021-08-22T09:09:00Z</time>
      </trkpt>
      <trkpt lat="45.83231" lon="5.80141">
        <ele>240</ele>
        <time>2021-08-22T09:09:02Z</time>
      </trkpt>
      <trkpt lat="45.83227" lon="5.80136">
        <ele>240</ele>
        <time>2021-08-22T09:09:03Z</time>
      </trkpt>
      <trkpt lat="45.83222" lon="5.80129">
        <ele>240</ele>
        <time>2021-08-22T09:09:04Z</time>
      </trkpt>
      <trkpt lat="45.83219" lon="5.80122">
        <ele>240.1</ele>
        <time>2021-08-22T09:09:05Z</time>
      </trkpt>
      <trkpt lat="45.83216" lon="5.80115">
        <ele>240.1</ele>
        <time>2021-08-22T09:09:06Z</time>
      </trkpt>
      <trkpt lat="45.83213" lon="5.8011">
        <ele>240.1</ele>
        <time>2021-08-22T09:09:08Z</time>
      </trkpt>
      <trkpt lat="45.8321" lon="5.80104">
        <ele>240.1</ele>
        <time>2021-08-22T09:09:09Z</time>
      </trkpt>
      <trkpt lat="45.83208" lon="5.80097">
        <ele>240.1</ele>
        <time>2021-08-22T09:09:10Z</time>
      </trkpt>
      <trkpt lat="45.83205" lon="5.8009">
        <ele>240.1</ele>
        <time>2021-08-22T09:09:11Z</time>
      </trkpt>
      <trkpt lat="45.83202" lon="5.80084">
        <ele>240.1</ele>
        <time>2021-08-22T09:09:12Z</time>
      </trkpt>
      <trkpt lat="45.83199" lon="5.80079">
        <ele>240.1</ele>
        <time>2021-08-22T09:09:13Z</time>
      </trkpt>
      <trkpt lat="45.83196" lon="5.80072">
        <ele>240.1</ele>
        <time>2021-08-22T09:09:14Z</time>
      </trkpt>
      <trkpt lat="45.83193" lon="5.80066">
        <ele>240.1</ele>
        <time>2021-08-22T09:09:15Z</time>
      </trkpt>
      <trkpt lat="45.8319" lon="5.8006">
        <ele>240.1</ele>
        <time>2021-08-22T09:09:16Z</time>
      </trkpt>
      <trkpt lat="45.83187" lon="5.80055">
        <ele>240.1</ele>
        <time>2021-08-22T09:09:17Z</time>
      </trkpt>
      <trkpt lat="45.83184" lon="5.8005">
        <ele>240.1</ele>
        <time>2021-08-22T09:09:19Z</time>
      </trkpt>
      <trkpt lat="45.83181" lon="5.80044">
        <ele>240.1</ele>
        <time>2021-08-22T09:09:20Z</time>
      </trkpt>
      <trkpt lat="45.83178" lon="5.80037">
        <ele>240.1</ele>
        <time>2021-08-22T09:09:21Z</time>
      </trkpt>
      <trkpt lat="45.83176" lon="5.80031">
        <ele>240.1</ele>
        <time>2021-08-22T09:09:22Z</time>
      </trkpt>
      <trkpt lat="45.83174" lon="5.80029">
        <ele>240.1</ele>
        <time>2021-08-22T09:09:23Z</time>
      </trkpt>
      <trkpt lat="45.83172" lon="5.80024">
        <ele>240.1</ele>
        <time>2021-08-22T09:09:24Z</time>
      </trkpt>
      <trkpt lat="45.8317" lon="5.80018">
        <ele>240.1</ele>
        <time>2021-08-22T09:09:25Z</time>
      </trkpt>
      <trkpt lat="45.83168" lon="5.80013">
        <ele>240.1</ele>
        <time>2021-08-22T09:09:26Z</time>
      </trkpt>
      <trkpt lat="45.83166" lon="5.80008">
        <ele>240.1</ele>
        <time>2021-08-22T09:09:28Z</time>
      </trkpt>
      <trkpt lat="45.83164" lon="5.80002">
        <ele>240.1</ele>
        <time>2021-08-22T09:09:29Z</time>
      </trkpt>
      <trkpt lat="45.8316" lon="5.79994">
        <ele>240.1</ele>
        <time>2021-08-22T09:09:31Z</time>
      </trkpt>
      <trkpt lat="45.83157" lon="5.7999">
        <ele>240.1</ele>
        <time>2021-08-22T09:09:32Z</time>
      </trkpt>
      <trkpt lat="45.83155" lon="5.79987">
        <ele>240.1</ele>
        <time>2021-08-22T09:09:34Z</time>
      </trkpt>
      <trkpt lat="45.83155" lon="5.79986">
        <ele>240.1</ele>
        <time>2021-08-22T09:09:35Z</time>
      </trkpt>
      <trkpt lat="45.83156" lon="5.79986">
        <ele>240.1</ele>
        <time>2021-08-22T09:09:37Z</time>
      </trkpt>
      <trkpt lat="45.83156" lon="5.79986">
        <ele>240.1</ele>
        <time>2021-08-22T09:09:39Z</time>
      </trkpt>
      <trkpt lat="45.83156" lon="5.79986">
        <ele>240.1</ele>
        <time>2021-08-22T09:09:40Z</time>
      </trkpt>
      <trkpt lat="45.83156" lon="5.79986">
        <ele>240.1</ele>
        <time>2021-08-22T09:09:41Z</time>
      </trkpt>
      <trkpt lat="45.83156" lon="5.79986">
        <ele>240.1</ele>
        <time>2021-08-22T09:09:43Z</time>
      </trkpt>
      <trkpt lat="45.83156" lon="5.79986">
        <ele>240.1</ele>
        <time>2021-08-22T09:09:44Z</time>
      </trkpt>
      <trkpt lat="45.83146" lon="5.79975">
        <ele>240.1</ele>
        <time>2021-08-22T09:10:17Z</time>
      </trkpt>
      <trkpt lat="45.83143" lon="5.79969">
        <ele>240.1</ele>
        <time>2021-08-22T09:10:19Z</time>
      </trkpt>
      <trkpt lat="45.83139" lon="5.79962">
        <ele>240</ele>
        <time>2021-08-22T09:10:21Z</time>
      </trkpt>
      <trkpt lat="45.83137" lon="5.79957">
        <ele>240</ele>
        <time>2021-08-22T09:10:22Z</time>
      </trkpt>
      <trkpt lat="45.83133" lon="5.79947">
        <ele>240</ele>
        <time>2021-08-22T09:10:24Z</time>
      </trkpt>
      <trkpt lat="45.8313" lon="5.79942">
        <ele>240</ele>
        <time>2021-08-22T09:10:25Z</time>
      </trkpt>
      <trkpt lat="45.83126" lon="5.79935">
        <ele>240</ele>
        <time>2021-08-22T09:10:26Z</time>
      </trkpt>
      <trkpt lat="45.83123" lon="5.79929">
        <ele>240</ele>
        <time>2021-08-22T09:10:27Z</time>
      </trkpt>
      <trkpt lat="45.8312" lon="5.79924">
        <ele>239.9</ele>
        <time>2021-08-22T09:10:28Z</time>
      </trkpt>
      <trkpt lat="45.83116" lon="5.79918">
        <ele>239.9</ele>
        <time>2021-08-22T09:10:29Z</time>
      </trkpt>
      <trkpt lat="45.83112" lon="5.79912">
        <ele>239.9</ele>
        <time>2021-08-22T09:10:31Z</time>
      </trkpt>
      <trkpt lat="45.83109" lon="5.79909">
        <ele>239.9</ele>
        <time>2021-08-22T09:10:32Z</time>
      </trkpt>
      <trkpt lat="45.83106" lon="5.79906">
        <ele>239.9</ele>
        <time>2021-08-22T09:10:33Z</time>
      </trkpt>
      <trkpt lat="45.83104" lon="5.79904">
        <ele>239.8</ele>
        <time>2021-08-22T09:10:34Z</time>
      </trkpt>
      <trkpt lat="45.83102" lon="5.79901">
        <ele>239.8</ele>
        <time>2021-08-22T09:10:35Z</time>
      </trkpt>
      <trkpt lat="45.83099" lon="5.79898">
        <ele>239.8</ele>
        <time>2021-08-22T09:10:36Z</time>
      </trkpt>
      <trkpt lat="45.83098" lon="5.79897">
        <ele>239.8</ele>
        <time>2021-08-22T09:10:37Z</time>
      </trkpt>
      <trkpt lat="45.83096" lon="5.79894">
        <ele>239.8</ele>
        <time>2021-08-22T09:10:39Z</time>
      </trkpt>
      <trkpt lat="45.83093" lon="5.79891">
        <ele>239.8</ele>
        <time>2021-08-22T09:10:40Z</time>
      </trkpt>
      <trkpt lat="45.83089" lon="5.79888">
        <ele>239.8</ele>
        <time>2021-08-22T09:10:41Z</time>
      </trkpt>
      <trkpt lat="45.83087" lon="5.79885">
        <ele>239.8</ele>
        <time>2021-08-22T09:10:42Z</time>
      </trkpt>
      <trkpt lat="45.83085" lon="5.79882">
        <ele>239.8</ele>
        <time>2021-08-22T09:10:43Z</time>
      </trkpt>
      <trkpt lat="45.83082" lon="5.79871">
        <ele>239.7</ele>
        <time>2021-08-22T09:10:45Z</time>
      </trkpt>
      <trkpt lat="45.83081" lon="5.79865">
        <ele>239.7</ele>
        <time>2021-08-22T09:10:46Z</time>
      </trkpt>
      <trkpt lat="45.83078" lon="5.79858">
        <ele>239.7</ele>
        <time>2021-08-22T09:10:47Z</time>
      </trkpt>
      <trkpt lat="45.83077" lon="5.79853">
        <ele>239.7</ele>
        <time>2021-08-22T09:10:48Z</time>
      </trkpt>
      <trkpt lat="45.83073" lon="5.79846">
        <ele>239.7</ele>
        <time>2021-08-22T09:10:50Z</time>
      </trkpt>
      <trkpt lat="45.83065" lon="5.79839">
        <ele>239.7</ele>
        <time>2021-08-22T09:10:52Z</time>
      </trkpt>
      <trkpt lat="45.83058" lon="5.79835">
        <ele>239.6</ele>
        <time>2021-08-22T09:10:53Z</time>
      </trkpt>
      <trkpt lat="45.83054" lon="5.79831">
        <ele>239.6</ele>
        <time>2021-08-22T09:10:54Z</time>
      </trkpt>
      <trkpt lat="45.8305" lon="5.79828">
        <ele>239.6</ele>
        <time>2021-08-22T09:10:55Z</time>
      </trkpt>
      <trkpt lat="45.83047" lon="5.79824">
        <ele>239.6</ele>
        <time>2021-08-22T09:10:56Z</time>
      </trkpt>
      <trkpt lat="45.83042" lon="5.7982">
        <ele>239.6</ele>
        <time>2021-08-22T09:10:58Z</time>
      </trkpt>
      <trkpt lat="45.83037" lon="5.79815">
        <ele>239.6</ele>
        <time>2021-08-22T09:10:59Z</time>
      </trkpt>
      <trkpt lat="45.83034" lon="5.79812">
        <ele>239.5</ele>
        <time>2021-08-22T09:11:00Z</time>
      </trkpt>
      <trkpt lat="45.83028" lon="5.7981">
        <ele>239.4</ele>
        <time>2021-08-22T09:11:01Z</time>
      </trkpt>
      <trkpt lat="45.83025" lon="5.79807">
        <ele>239.4</ele>
        <time>2021-08-22T09:11:02Z</time>
      </trkpt>
      <trkpt lat="45.83022" lon="5.79802">
        <ele>239.3</ele>
        <time>2021-08-22T09:11:04Z</time>
      </trkpt>
      <trkpt lat="45.83019" lon="5.798">
        <ele>239.2</ele>
        <time>2021-08-22T09:11:05Z</time>
      </trkpt>
      <trkpt lat="45.83015" lon="5.79802">
        <ele>239.1</ele>
        <time>2021-08-22T09:11:07Z</time>
      </trkpt>
      <trkpt lat="45.8301" lon="5.79808">
        <ele>238.9</ele>
        <time>2021-08-22T09:11:09Z</time>
      </trkpt>
      <trkpt lat="45.83007" lon="5.79811">
        <ele>238.8</ele>
        <time>2021-08-22T09:11:10Z</time>
      </trkpt>
      <trkpt lat="45.83" lon="5.79817">
        <ele>238.6</ele>
        <time>2021-08-22T09:11:12Z</time>
      </trkpt>
      <trkpt lat="45.82996" lon="5.79819">
        <ele>238.5</ele>
        <time>2021-08-22T09:11:13Z</time>
      </trkpt>
      <trkpt lat="45.82989" lon="5.7982">
        <ele>238</ele>
        <time>2021-08-22T09:11:15Z</time>
      </trkpt>
      <trkpt lat="45.82986" lon="5.7982">
        <ele>237.9</ele>
        <time>2021-08-22T09:11:16Z</time>
      </trkpt>
      <trkpt lat="45.82982" lon="5.79816">
        <ele>237.9</ele>
        <time>2021-08-22T09:11:18Z</time>
      </trkpt>
      <trkpt lat="45.82979" lon="5.79813">
        <ele>237.8</ele>
        <time>2021-08-22T09:11:19Z</time>
      </trkpt>
      <trkpt lat="45.82974" lon="5.79809">
        <ele>237.8</ele>
        <time>2021-08-22T09:11:21Z</time>
      </trkpt>
      <trkpt lat="45.8297" lon="5.79804">
        <ele>237.7</ele>
        <time>2021-08-22T09:11:22Z</time>
      </trkpt>
      <trkpt lat="45.82965" lon="5.79802">
        <ele>237.7</ele>
        <time>2021-08-22T09:11:24Z</time>
      </trkpt>
      <trkpt lat="45.82958" lon="5.79798">
        <ele>237.6</ele>
        <time>2021-08-22T09:11:25Z</time>
      </trkpt>
      <trkpt lat="45.82947" lon="5.79788">
        <ele>237.5</ele>
        <time>2021-08-22T09:11:27Z</time>
      </trkpt>
      <trkpt lat="45.82939" lon="5.7978">
        <ele>237.5</ele>
        <time>2021-08-22T09:11:29Z</time>
      </trkpt>
      <trkpt lat="45.82938" lon="5.79777">
        <ele>237.4</ele>
        <time>2021-08-22T09:11:30Z</time>
      </trkpt>
      <trkpt lat="45.82933" lon="5.79768">
        <ele>237.4</ele>
        <time>2021-08-22T09:11:32Z</time>
      </trkpt>
      <trkpt lat="45.8293" lon="5.79759">
        <ele>237.3</ele>
        <time>2021-08-22T09:11:34Z</time>
      </trkpt>
      <trkpt lat="45.82928" lon="5.79755">
        <ele>237.3</ele>
        <time>2021-08-22T09:11:35Z</time>
      </trkpt>
      <trkpt lat="45.82925" lon="5.79751">
        <ele>237.3</ele>
        <time>2021-08-22T09:11:36Z</time>
      </trkpt>
      <trkpt lat="45.82918" lon="5.79746">
        <ele>237.2</ele>
        <time>2021-08-22T09:11:37Z</time>
      </trkpt>
      <trkpt lat="45.82913" lon="5.79743">
        <ele>237.2</ele>
        <time>2021-08-22T09:11:38Z</time>
      </trkpt>
      <trkpt lat="45.8291" lon="5.79739">
        <ele>237.2</ele>
        <time>2021-08-22T09:11:40Z</time>
      </trkpt>
      <trkpt lat="45.82908" lon="5.79735">
        <ele>237.2</ele>
        <time>2021-08-22T09:11:41Z</time>
      </trkpt>
      <trkpt lat="45.82906" lon="5.79729">
        <ele>237.2</ele>
        <time>2021-08-22T09:11:42Z</time>
      </trkpt>
      <trkpt lat="45.82902" lon="5.7972">
        <ele>237.1</ele>
        <time>2021-08-22T09:11:44Z</time>
      </trkpt>
      <trkpt lat="45.829" lon="5.79715">
        <ele>237.1</ele>
        <time>2021-08-22T09:11:45Z</time>
      </trkpt>
      <trkpt lat="45.82898" lon="5.79711">
        <ele>237</ele>
        <time>2021-08-22T09:11:46Z</time>
      </trkpt>
      <trkpt lat="45.82896" lon="5.79707">
        <ele>237</ele>
        <time>2021-08-22T09:11:47Z</time>
      </trkpt>
      <trkpt lat="45.82893" lon="5.79703">
        <ele>237</ele>
        <time>2021-08-22T09:11:48Z</time>
      </trkpt>
      <trkpt lat="45.82891" lon="5.797">
        <ele>237</ele>
        <time>2021-08-22T09:11:49Z</time>
      </trkpt>
      <trkpt lat="45.82888" lon="5.79695">
        <ele>236.9</ele>
        <time>2021-08-22T09:11:50Z</time>
      </trkpt>
      <trkpt lat="45.82886" lon="5.79691">
        <ele>236.9</ele>
        <time>2021-08-22T09:11:51Z</time>
      </trkpt>
      <trkpt lat="45.82883" lon="5.79685">
        <ele>236.9</ele>
        <time>2021-08-22T09:11:53Z</time>
      </trkpt>
      <trkpt lat="45.82881" lon="5.7968">
        <ele>236.8</ele>
        <time>2021-08-22T09:11:54Z</time>
      </trkpt>
      <trkpt lat="45.82878" lon="5.79675">
        <ele>236.8</ele>
        <time>2021-08-22T09:11:55Z</time>
      </trkpt>
      <trkpt lat="45.82875" lon="5.7967">
        <ele>236.8</ele>
        <time>2021-08-22T09:11:56Z</time>
      </trkpt>
      <trkpt lat="45.82871" lon="5.79662">
        <ele>236.7</ele>
        <time>2021-08-22T09:11:58Z</time>
      </trkpt>
      <trkpt lat="45.82868" lon="5.79658">
        <ele>236.7</ele>
        <time>2021-08-22T09:11:59Z</time>
      </trkpt>
      <trkpt lat="45.8286" lon="5.79647">
        <ele>236.6</ele>
        <time>2021-08-22T09:12:01Z</time>
      </trkpt>
      <trkpt lat="45.82857" lon="5.79646">
        <ele>236.6</ele>
        <time>2021-08-22T09:12:02Z</time>
      </trkpt>
      <trkpt lat="45.82854" lon="5.79642">
        <ele>236.6</ele>
        <time>2021-08-22T09:12:03Z</time>
      </trkpt>
      <trkpt lat="45.82852" lon="5.79637">
        <ele>236.5</ele>
        <time>2021-08-22T09:12:04Z</time>
      </trkpt>
      <trkpt lat="45.8285" lon="5.79631">
        <ele>236.5</ele>
        <time>2021-08-22T09:12:05Z</time>
      </trkpt>
      <trkpt lat="45.82848" lon="5.79625">
        <ele>236.5</ele>
        <time>2021-08-22T09:12:06Z</time>
      </trkpt>
      <trkpt lat="45.82846" lon="5.7962">
        <ele>236.5</ele>
        <time>2021-08-22T09:12:07Z</time>
      </trkpt>
      <trkpt lat="45.82844" lon="5.79615">
        <ele>236.5</ele>
        <time>2021-08-22T09:12:08Z</time>
      </trkpt>
      <trkpt lat="45.82842" lon="5.79611">
        <ele>236.4</ele>
        <time>2021-08-22T09:12:09Z</time>
      </trkpt>
      <trkpt lat="45.8284" lon="5.79606">
        <ele>236.4</ele>
        <time>2021-08-22T09:12:10Z</time>
      </trkpt>
      <trkpt lat="45.82838" lon="5.79601">
        <ele>236.4</ele>
        <time>2021-08-22T09:12:11Z</time>
      </trkpt>
      <trkpt lat="45.82836" lon="5.79596">
        <ele>236.4</ele>
        <time>2021-08-22T09:12:13Z</time>
      </trkpt>
      <trkpt lat="45.82834" lon="5.79592">
        <ele>236.4</ele>
        <time>2021-08-22T09:12:14Z</time>
      </trkpt>
      <trkpt lat="45.82832" lon="5.79588">
        <ele>236.4</ele>
        <time>2021-08-22T09:12:15Z</time>
      </trkpt>
      <trkpt lat="45.8283" lon="5.79584">
        <ele>236.3</ele>
        <time>2021-08-22T09:12:16Z</time>
      </trkpt>
      <trkpt lat="45.82828" lon="5.7958">
        <ele>236.3</ele>
        <time>2021-08-22T09:12:17Z</time>
      </trkpt>
      <trkpt lat="45.82823" lon="5.79574">
        <ele>236.3</ele>
        <time>2021-08-22T09:12:19Z</time>
      </trkpt>
      <trkpt lat="45.8282" lon="5.79571">
        <ele>236.3</ele>
        <time>2021-08-22T09:12:20Z</time>
      </trkpt>
      <trkpt lat="45.82817" lon="5.79568">
        <ele>236.2</ele>
        <time>2021-08-22T09:12:21Z</time>
      </trkpt>
      <trkpt lat="45.82814" lon="5.79565">
        <ele>236.2</ele>
        <time>2021-08-22T09:12:22Z</time>
      </trkpt>
      <trkpt lat="45.82809" lon="5.79561">
        <ele>236.2</ele>
        <time>2021-08-22T09:12:23Z</time>
      </trkpt>
      <trkpt lat="45.82806" lon="5.79558">
        <ele>236.1</ele>
        <time>2021-08-22T09:12:24Z</time>
      </trkpt>
      <trkpt lat="45.82803" lon="5.79555">
        <ele>236.1</ele>
        <time>2021-08-22T09:12:25Z</time>
      </trkpt>
      <trkpt lat="45.828" lon="5.79552">
        <ele>236.1</ele>
        <time>2021-08-22T09:12:27Z</time>
      </trkpt>
      <trkpt lat="45.82797" lon="5.7955">
        <ele>236.1</ele>
        <time>2021-08-22T09:12:28Z</time>
      </trkpt>
      <trkpt lat="45.82794" lon="5.79546">
        <ele>236.1</ele>
        <time>2021-08-22T09:12:29Z</time>
      </trkpt>
      <trkpt lat="45.82791" lon="5.79542">
        <ele>236.1</ele>
        <time>2021-08-22T09:12:30Z</time>
      </trkpt>
      <trkpt lat="45.82787" lon="5.79539">
        <ele>236.1</ele>
        <time>2021-08-22T09:12:31Z</time>
      </trkpt>
      <trkpt lat="45.82782" lon="5.79533">
        <ele>236.1</ele>
        <time>2021-08-22T09:12:33Z</time>
      </trkpt>
      <trkpt lat="45.82779" lon="5.7953">
        <ele>236.2</ele>
        <time>2021-08-22T09:12:34Z</time>
      </trkpt>
      <trkpt lat="45.82776" lon="5.79525">
        <ele>236.2</ele>
        <time>2021-08-22T09:12:35Z</time>
      </trkpt>
      <trkpt lat="45.82774" lon="5.79518">
        <ele>236.2</ele>
        <time>2021-08-22T09:12:37Z</time>
      </trkpt>
      <trkpt lat="45.82773" lon="5.79513">
        <ele>236.2</ele>
        <time>2021-08-22T09:12:38Z</time>
      </trkpt>
      <trkpt lat="45.82771" lon="5.79507">
        <ele>236.2</ele>
        <time>2021-08-22T09:12:40Z</time>
      </trkpt>
      <trkpt lat="45.8277" lon="5.79503">
        <ele>236.2</ele>
        <time>2021-08-22T09:12:41Z</time>
      </trkpt>
      <trkpt lat="45.82768" lon="5.79496">
        <ele>236.2</ele>
        <time>2021-08-22T09:12:43Z</time>
      </trkpt>
      <trkpt lat="45.82766" lon="5.79491">
        <ele>236.2</ele>
        <time>2021-08-22T09:12:44Z</time>
      </trkpt>
      <trkpt lat="45.82761" lon="5.79486">
        <ele>236.2</ele>
        <time>2021-08-22T09:12:46Z</time>
      </trkpt>
      <trkpt lat="45.82759" lon="5.79482">
        <ele>236.1</ele>
        <time>2021-08-22T09:12:47Z</time>
      </trkpt>
      <trkpt lat="45.82756" lon="5.79475">
        <ele>236.1</ele>
        <time>2021-08-22T09:12:49Z</time>
      </trkpt>
      <trkpt lat="45.82752" lon="5.79467">
        <ele>236.1</ele>
        <time>2021-08-22T09:12:50Z</time>
      </trkpt>
      <trkpt lat="45.82747" lon="5.79461">
        <ele>236.1</ele>
        <time>2021-08-22T09:12:52Z</time>
      </trkpt>
      <trkpt lat="45.82742" lon="5.79455">
        <ele>236.1</ele>
        <time>2021-08-22T09:12:54Z</time>
      </trkpt>
      <trkpt lat="45.82738" lon="5.79451">
        <ele>236.1</ele>
        <time>2021-08-22T09:12:55Z</time>
      </trkpt>
      <trkpt lat="45.82734" lon="5.79446">
        <ele>236.1</ele>
        <time>2021-08-22T09:12:56Z</time>
      </trkpt>
      <trkpt lat="45.82731" lon="5.79443">
        <ele>236.1</ele>
        <time>2021-08-22T09:12:57Z</time>
      </trkpt>
      <trkpt lat="45.82727" lon="5.79439">
        <ele>236.1</ele>
        <time>2021-08-22T09:12:59Z</time>
      </trkpt>
      <trkpt lat="45.82723" lon="5.79436">
        <ele>236.1</ele>
        <time>2021-08-22T09:13:00Z</time>
      </trkpt>
      <trkpt lat="45.82718" lon="5.79433">
        <ele>236</ele>
        <time>2021-08-22T09:13:01Z</time>
      </trkpt>
      <trkpt lat="45.82715" lon="5.79431">
        <ele>236</ele>
        <time>2021-08-22T09:13:02Z</time>
      </trkpt>
      <trkpt lat="45.82711" lon="5.79428">
        <ele>236</ele>
        <time>2021-08-22T09:13:03Z</time>
      </trkpt>
      <trkpt lat="45.82707" lon="5.79422">
        <ele>236</ele>
        <time>2021-08-22T09:13:05Z</time>
      </trkpt>
      <trkpt lat="45.82703" lon="5.79417">
        <ele>236</ele>
        <time>2021-08-22T09:13:06Z</time>
      </trkpt>
      <trkpt lat="45.82698" lon="5.79411">
        <ele>236</ele>
        <time>2021-08-22T09:13:07Z</time>
      </trkpt>
      <trkpt lat="45.82694" lon="5.79404">
        <ele>236</ele>
        <time>2021-08-22T09:13:09Z</time>
      </trkpt>
      <trkpt lat="45.82691" lon="5.794">
        <ele>236</ele>
        <time>2021-08-22T09:13:10Z</time>
      </trkpt>
      <trkpt lat="45.82689" lon="5.79397">
        <ele>236</ele>
        <time>2021-08-22T09:13:11Z</time>
      </trkpt>
      <trkpt lat="45.82687" lon="5.79393">
        <ele>236</ele>
        <time>2021-08-22T09:13:12Z</time>
      </trkpt>
      <trkpt lat="45.82681" lon="5.79385">
        <ele>236</ele>
        <time>2021-08-22T09:13:14Z</time>
      </trkpt>
      <trkpt lat="45.82679" lon="5.79381">
        <ele>236</ele>
        <time>2021-08-22T09:13:15Z</time>
      </trkpt>
      <trkpt lat="45.82677" lon="5.79378">
        <ele>236</ele>
        <time>2021-08-22T09:13:16Z</time>
      </trkpt>
      <trkpt lat="45.82676" lon="5.79374">
        <ele>236</ele>
        <time>2021-08-22T09:13:17Z</time>
      </trkpt>
      <trkpt lat="45.82673" lon="5.7937">
        <ele>236</ele>
        <time>2021-08-22T09:13:18Z</time>
      </trkpt>
      <trkpt lat="45.82671" lon="5.79367">
        <ele>236</ele>
        <time>2021-08-22T09:13:19Z</time>
      </trkpt>
      <trkpt lat="45.82669" lon="5.79363">
        <ele>236</ele>
        <time>2021-08-22T09:13:21Z</time>
      </trkpt>
      <trkpt lat="45.82667" lon="5.7936">
        <ele>236</ele>
        <time>2021-08-22T09:13:22Z</time>
      </trkpt>
      <trkpt lat="45.82664" lon="5.79356">
        <ele>236</ele>
        <time>2021-08-22T09:13:23Z</time>
      </trkpt>
      <trkpt lat="45.82661" lon="5.79353">
        <ele>236</ele>
        <time>2021-08-22T09:13:24Z</time>
      </trkpt>
      <trkpt lat="45.82658" lon="5.79349">
        <ele>235.9</ele>
        <time>2021-08-22T09:13:25Z</time>
      </trkpt>
      <trkpt lat="45.82653" lon="5.79344">
        <ele>235.9</ele>
        <time>2021-08-22T09:13:27Z</time>
      </trkpt>
      <trkpt lat="45.82651" lon="5.79341">
        <ele>235.9</ele>
        <time>2021-08-22T09:13:28Z</time>
      </trkpt>
      <trkpt lat="45.82648" lon="5.79336">
        <ele>235.9</ele>
        <time>2021-08-22T09:13:29Z</time>
      </trkpt>
      <trkpt lat="45.82644" lon="5.79329">
        <ele>235.9</ele>
        <time>2021-08-22T09:13:31Z</time>
      </trkpt>
      <trkpt lat="45.82641" lon="5.79324">
        <ele>235.9</ele>
        <time>2021-08-22T09:13:32Z</time>
      </trkpt>
      <trkpt lat="45.82638" lon="5.79321">
        <ele>235.9</ele>
        <time>2021-08-22T09:13:33Z</time>
      </trkpt>
      <trkpt lat="45.82636" lon="5.79319">
        <ele>235.9</ele>
        <time>2021-08-22T09:13:34Z</time>
      </trkpt>
      <trkpt lat="45.82633" lon="5.79314">
        <ele>235.9</ele>
        <time>2021-08-22T09:13:36Z</time>
      </trkpt>
      <trkpt lat="45.82629" lon="5.7931">
        <ele>235.9</ele>
        <time>2021-08-22T09:13:37Z</time>
      </trkpt>
      <trkpt lat="45.82625" lon="5.79304">
        <ele>235.9</ele>
        <time>2021-08-22T09:13:39Z</time>
      </trkpt>
      <trkpt lat="45.82622" lon="5.79301">
        <ele>235.9</ele>
        <time>2021-08-22T09:13:40Z</time>
      </trkpt>
      <trkpt lat="45.8262" lon="5.79298">
        <ele>235.9</ele>
        <time>2021-08-22T09:13:41Z</time>
      </trkpt>
      <trkpt lat="45.82616" lon="5.79291">
        <ele>235.9</ele>
        <time>2021-08-22T09:13:43Z</time>
      </trkpt>
      <trkpt lat="45.82613" lon="5.79285">
        <ele>235.9</ele>
        <time>2021-08-22T09:13:45Z</time>
      </trkpt>
      <trkpt lat="45.8261" lon="5.79281">
        <ele>235.9</ele>
        <time>2021-08-22T09:13:46Z</time>
      </trkpt>
      <trkpt lat="45.82609" lon="5.79278">
        <ele>235.9</ele>
        <time>2021-08-22T09:13:47Z</time>
      </trkpt>
      <trkpt lat="45.82607" lon="5.79275">
        <ele>235.9</ele>
        <time>2021-08-22T09:13:48Z</time>
      </trkpt>
      <trkpt lat="45.82605" lon="5.79271">
        <ele>235.9</ele>
        <time>2021-08-22T09:13:50Z</time>
      </trkpt>
      <trkpt lat="45.82602" lon="5.79268">
        <ele>235.9</ele>
        <time>2021-08-22T09:13:51Z</time>
      </trkpt>
      <trkpt lat="45.826" lon="5.79265">
        <ele>235.8</ele>
        <time>2021-08-22T09:13:52Z</time>
      </trkpt>
      <trkpt lat="45.82598" lon="5.79262">
        <ele>235.8</ele>
        <time>2021-08-22T09:13:53Z</time>
      </trkpt>
      <trkpt lat="45.82596" lon="5.79259">
        <ele>235.8</ele>
        <time>2021-08-22T09:13:54Z</time>
      </trkpt>
      <trkpt lat="45.82593" lon="5.79256">
        <ele>235.8</ele>
        <time>2021-08-22T09:13:55Z</time>
      </trkpt>
      <trkpt lat="45.82586" lon="5.79249">
        <ele>235.8</ele>
        <time>2021-08-22T09:13:57Z</time>
      </trkpt>
      <trkpt lat="45.82578" lon="5.79242">
        <ele>235.7</ele>
        <time>2021-08-22T09:13:59Z</time>
      </trkpt>
      <trkpt lat="45.82573" lon="5.79239">
        <ele>235.7</ele>
        <time>2021-08-22T09:14:00Z</time>
      </trkpt>
      <trkpt lat="45.8257" lon="5.79236">
        <ele>235.7</ele>
        <time>2021-08-22T09:14:01Z</time>
      </trkpt>
      <trkpt lat="45.82565" lon="5.79231">
        <ele>235.7</ele>
        <time>2021-08-22T09:14:03Z</time>
      </trkpt>
      <trkpt lat="45.82562" lon="5.79227">
        <ele>235.7</ele>
        <time>2021-08-22T09:14:04Z</time>
      </trkpt>
      <trkpt lat="45.82559" lon="5.79223">
        <ele>235.7</ele>
        <time>2021-08-22T09:14:05Z</time>
      </trkpt>
      <trkpt lat="45.82556" lon="5.7922">
        <ele>235.7</ele>
        <time>2021-08-22T09:14:06Z</time>
      </trkpt>
      <trkpt lat="45.82553" lon="5.79216">
        <ele>235.7</ele>
        <time>2021-08-22T09:14:07Z</time>
      </trkpt>
      <trkpt lat="45.82549" lon="5.79213">
        <ele>235.7</ele>
        <time>2021-08-22T09:14:08Z</time>
      </trkpt>
      <trkpt lat="45.82545" lon="5.7921">
        <ele>235.7</ele>
        <time>2021-08-22T09:14:09Z</time>
      </trkpt>
      <trkpt lat="45.82539" lon="5.79205">
        <ele>235.7</ele>
        <time>2021-08-22T09:14:11Z</time>
      </trkpt>
      <trkpt lat="45.82536" lon="5.79203">
        <ele>235.7</ele>
        <time>2021-08-22T09:14:12Z</time>
      </trkpt>
      <trkpt lat="45.8253" lon="5.79199">
        <ele>235.7</ele>
        <time>2021-08-22T09:14:14Z</time>
      </trkpt>
      <trkpt lat="45.82525" lon="5.79196">
        <ele>235.7</ele>
        <time>2021-08-22T09:14:15Z</time>
      </trkpt>
      <trkpt lat="45.82523" lon="5.79192">
        <ele>235.7</ele>
        <time>2021-08-22T09:14:16Z</time>
      </trkpt>
      <trkpt lat="45.8252" lon="5.79188">
        <ele>235.7</ele>
        <time>2021-08-22T09:14:18Z</time>
      </trkpt>
      <trkpt lat="45.82516" lon="5.79183">
        <ele>235.7</ele>
        <time>2021-08-22T09:14:19Z</time>
      </trkpt>
      <trkpt lat="45.82512" lon="5.79179">
        <ele>235.7</ele>
        <time>2021-08-22T09:14:21Z</time>
      </trkpt>
      <trkpt lat="45.82508" lon="5.79173">
        <ele>235.7</ele>
        <time>2021-08-22T09:14:23Z</time>
      </trkpt>
      <trkpt lat="45.82505" lon="5.79168">
        <ele>235.7</ele>
        <time>2021-08-22T09:14:24Z</time>
      </trkpt>
      <trkpt lat="45.82503" lon="5.79165">
        <ele>235.7</ele>
        <time>2021-08-22T09:14:25Z</time>
      </trkpt>
      <trkpt lat="45.82501" lon="5.79163">
        <ele>235.7</ele>
        <time>2021-08-22T09:14:26Z</time>
      </trkpt>
      <trkpt lat="45.82498" lon="5.7916">
        <ele>235.7</ele>
        <time>2021-08-22T09:14:28Z</time>
      </trkpt>
      <trkpt lat="45.82495" lon="5.79157">
        <ele>235.7</ele>
        <time>2021-08-22T09:14:29Z</time>
      </trkpt>
      <trkpt lat="45.82492" lon="5.79154">
        <ele>235.7</ele>
        <time>2021-08-22T09:14:30Z</time>
      </trkpt>
      <trkpt lat="45.82487" lon="5.7915">
        <ele>235.7</ele>
        <time>2021-08-22T09:14:31Z</time>
      </trkpt>
      <trkpt lat="45.82483" lon="5.79146">
        <ele>235.6</ele>
        <time>2021-08-22T09:14:33Z</time>
      </trkpt>
      <trkpt lat="45.82477" lon="5.79142">
        <ele>235.6</ele>
        <time>2021-08-22T09:14:34Z</time>
      </trkpt>
      <trkpt lat="45.82474" lon="5.79139">
        <ele>235.6</ele>
        <time>2021-08-22T09:14:35Z</time>
      </trkpt>
      <trkpt lat="45.8247" lon="5.79136">
        <ele>235.6</ele>
        <time>2021-08-22T09:14:37Z</time>
      </trkpt>
      <trkpt lat="45.82467" lon="5.79133">
        <ele>235.6</ele>
        <time>2021-08-22T09:14:38Z</time>
      </trkpt>
      <trkpt lat="45.82464" lon="5.79132">
        <ele>235.6</ele>
        <time>2021-08-22T09:14:39Z</time>
      </trkpt>
      <trkpt lat="45.8246" lon="5.7913">
        <ele>235.6</ele>
        <time>2021-08-22T09:14:40Z</time>
      </trkpt>
      <trkpt lat="45.82454" lon="5.79126">
        <ele>235.7</ele>
        <time>2021-08-22T09:14:42Z</time>
      </trkpt>
      <trkpt lat="45.8245" lon="5.79124">
        <ele>235.7</ele>
        <time>2021-08-22T09:14:43Z</time>
      </trkpt>
      <trkpt lat="45.82444" lon="5.79119">
        <ele>235.7</ele>
        <time>2021-08-22T09:14:45Z</time>
      </trkpt>
      <trkpt lat="45.8244" lon="5.79116">
        <ele>235.7</ele>
        <time>2021-08-22T09:14:46Z</time>
      </trkpt>
      <trkpt lat="45.82437" lon="5.79114">
        <ele>235.7</ele>
        <time>2021-08-22T09:14:47Z</time>
      </trkpt>
      <trkpt lat="45.82433" lon="5.79109">
        <ele>235.7</ele>
        <time>2021-08-22T09:14:49Z</time>
      </trkpt>
      <trkpt lat="45.8243" lon="5.79105">
        <ele>235.7</ele>
        <time>2021-08-22T09:14:50Z</time>
      </trkpt>
      <trkpt lat="45.82427" lon="5.79103">
        <ele>235.7</ele>
        <time>2021-08-22T09:14:51Z</time>
      </trkpt>
      <trkpt lat="45.82423" lon="5.79101">
        <ele>235.7</ele>
        <time>2021-08-22T09:14:52Z</time>
      </trkpt>
      <trkpt lat="45.82417" lon="5.79098">
        <ele>235.7</ele>
        <time>2021-08-22T09:14:53Z</time>
      </trkpt>
      <trkpt lat="45.82415" lon="5.79096">
        <ele>235.6</ele>
        <time>2021-08-22T09:14:54Z</time>
      </trkpt>
      <trkpt lat="45.82411" lon="5.79093">
        <ele>235.6</ele>
        <time>2021-08-22T09:14:56Z</time>
      </trkpt>
      <trkpt lat="45.82408" lon="5.7909">
        <ele>235.6</ele>
        <time>2021-08-22T09:14:57Z</time>
      </trkpt>
      <trkpt lat="45.82405" lon="5.79086">
        <ele>235.6</ele>
        <time>2021-08-22T09:14:58Z</time>
      </trkpt>
      <trkpt lat="45.824" lon="5.79081">
        <ele>235.6</ele>
        <time>2021-08-22T09:15:00Z</time>
      </trkpt>
      <trkpt lat="45.82395" lon="5.79077">
        <ele>235.6</ele>
        <time>2021-08-22T09:15:01Z</time>
      </trkpt>
      <trkpt lat="45.8239" lon="5.79072">
        <ele>235.6</ele>
        <time>2021-08-22T09:15:03Z</time>
      </trkpt>
      <trkpt lat="45.82386" lon="5.79068">
        <ele>235.6</ele>
        <time>2021-08-22T09:15:04Z</time>
      </trkpt>
      <trkpt lat="45.82382" lon="5.79063">
        <ele>235.6</ele>
        <time>2021-08-22T09:15:05Z</time>
      </trkpt>
      <trkpt lat="45.82378" lon="5.79059">
        <ele>235.6</ele>
        <time>2021-08-22T09:15:06Z</time>
      </trkpt>
      <trkpt lat="45.82375" lon="5.79055">
        <ele>235.6</ele>
        <time>2021-08-22T09:15:07Z</time>
      </trkpt>
      <trkpt lat="45.8237" lon="5.79051">
        <ele>235.6</ele>
        <time>2021-08-22T09:15:09Z</time>
      </trkpt>
      <trkpt lat="45.82367" lon="5.79048">
        <ele>235.6</ele>
        <time>2021-08-22T09:15:10Z</time>
      </trkpt>
      <trkpt lat="45.82364" lon="5.79046">
        <ele>235.6</ele>
        <time>2021-08-22T09:15:11Z</time>
      </trkpt>
      <trkpt lat="45.82361" lon="5.79044">
        <ele>235.6</ele>
        <time>2021-08-22T09:15:12Z</time>
      </trkpt>
      <trkpt lat="45.82358" lon="5.79041">
        <ele>235.6</ele>
        <time>2021-08-22T09:15:13Z</time>
      </trkpt>
      <trkpt lat="45.82355" lon="5.79038">
        <ele>235.6</ele>
        <time>2021-08-22T09:15:14Z</time>
      </trkpt>
      <trkpt lat="45.82352" lon="5.79035">
        <ele>235.6</ele>
        <time>2021-08-22T09:15:15Z</time>
      </trkpt>
      <trkpt lat="45.82348" lon="5.79033">
        <ele>235.6</ele>
        <time>2021-08-22T09:15:16Z</time>
      </trkpt>
      <trkpt lat="45.82343" lon="5.79031">
        <ele>235.6</ele>
        <time>2021-08-22T09:15:17Z</time>
      </trkpt>
      <trkpt lat="45.82339" lon="5.79029">
        <ele>235.6</ele>
        <time>2021-08-22T09:15:18Z</time>
      </trkpt>
      <trkpt lat="45.82336" lon="5.79027">
        <ele>235.6</ele>
        <time>2021-08-22T09:15:19Z</time>
      </trkpt>
      <trkpt lat="45.82333" lon="5.79026">
        <ele>235.6</ele>
        <time>2021-08-22T09:15:21Z</time>
      </trkpt>
      <trkpt lat="45.8233" lon="5.79024">
        <ele>235.6</ele>
        <time>2021-08-22T09:15:22Z</time>
      </trkpt>
      <trkpt lat="45.82327" lon="5.79023">
        <ele>235.6</ele>
        <time>2021-08-22T09:15:23Z</time>
      </trkpt>
      <trkpt lat="45.82324" lon="5.79021">
        <ele>235.6</ele>
        <time>2021-08-22T09:15:24Z</time>
      </trkpt>
      <trkpt lat="45.8232" lon="5.79019">
        <ele>235.6</ele>
        <time>2021-08-22T09:15:25Z</time>
      </trkpt>
      <trkpt lat="45.82317" lon="5.79018">
        <ele>235.6</ele>
        <time>2021-08-22T09:15:26Z</time>
      </trkpt>
      <trkpt lat="45.82314" lon="5.79015">
        <ele>235.6</ele>
        <time>2021-08-22T09:15:27Z</time>
      </trkpt>
      <trkpt lat="45.82309" lon="5.79011">
        <ele>235.6</ele>
        <time>2021-08-22T09:15:29Z</time>
      </trkpt>
      <trkpt lat="45.82303" lon="5.79008">
        <ele>235.6</ele>
        <time>2021-08-22T09:15:31Z</time>
      </trkpt>
      <trkpt lat="45.82297" lon="5.79005">
        <ele>235.6</ele>
        <time>2021-08-22T09:15:33Z</time>
      </trkpt>
      <trkpt lat="45.82292" lon="5.79003">
        <ele>235.6</ele>
        <time>2021-08-22T09:15:34Z</time>
      </trkpt>
      <trkpt lat="45.82289" lon="5.79001">
        <ele>235.6</ele>
        <time>2021-08-22T09:15:35Z</time>
      </trkpt>
      <trkpt lat="45.82286" lon="5.78999">
        <ele>235.6</ele>
        <time>2021-08-22T09:15:36Z</time>
      </trkpt>
      <trkpt lat="45.82282" lon="5.78997">
        <ele>235.6</ele>
        <time>2021-08-22T09:15:37Z</time>
      </trkpt>
      <trkpt lat="45.82278" lon="5.78994">
        <ele>235.6</ele>
        <time>2021-08-22T09:15:38Z</time>
      </trkpt>
      <trkpt lat="45.82275" lon="5.78992">
        <ele>235.6</ele>
        <time>2021-08-22T09:15:40Z</time>
      </trkpt>
      <trkpt lat="45.82272" lon="5.7899">
        <ele>235.5</ele>
        <time>2021-08-22T09:15:41Z</time>
      </trkpt>
      <trkpt lat="45.82269" lon="5.78988">
        <ele>235.5</ele>
        <time>2021-08-22T09:15:42Z</time>
      </trkpt>
      <trkpt lat="45.82266" lon="5.78987">
        <ele>235.5</ele>
        <time>2021-08-22T09:15:43Z</time>
      </trkpt>
      <trkpt lat="45.82263" lon="5.78984">
        <ele>235.5</ele>
        <time>2021-08-22T09:15:44Z</time>
      </trkpt>
      <trkpt lat="45.8226" lon="5.78982">
        <ele>235.5</ele>
        <time>2021-08-22T09:15:45Z</time>
      </trkpt>
      <trkpt lat="45.82257" lon="5.78981">
        <ele>235.5</ele>
        <time>2021-08-22T09:15:46Z</time>
      </trkpt>
      <trkpt lat="45.82254" lon="5.7898">
        <ele>235.5</ele>
        <time>2021-08-22T09:15:47Z</time>
      </trkpt>
      <trkpt lat="45.82251" lon="5.78978">
        <ele>235.5</ele>
        <time>2021-08-22T09:15:48Z</time>
      </trkpt>
      <trkpt lat="45.82248" lon="5.78976">
        <ele>235.5</ele>
        <time>2021-08-22T09:15:50Z</time>
      </trkpt>
      <trkpt lat="45.82244" lon="5.78973">
        <ele>235.5</ele>
        <time>2021-08-22T09:15:52Z</time>
      </trkpt>
      <trkpt lat="45.82239" lon="5.78971">
        <ele>235.5</ele>
        <time>2021-08-22T09:15:53Z</time>
      </trkpt>
      <trkpt lat="45.82229" lon="5.78964">
        <ele>235.5</ele>
        <time>2021-08-22T09:15:55Z</time>
      </trkpt>
      <trkpt lat="45.8222" lon="5.78961">
        <ele>235.4</ele>
        <time>2021-08-22T09:15:57Z</time>
      </trkpt>
      <trkpt lat="45.82215" lon="5.78957">
        <ele>235.4</ele>
        <time>2021-08-22T09:15:58Z</time>
      </trkpt>
      <trkpt lat="45.82211" lon="5.78954">
        <ele>235.4</ele>
        <time>2021-08-22T09:15:59Z</time>
      </trkpt>
      <trkpt lat="45.82207" lon="5.7895">
        <ele>235.4</ele>
        <time>2021-08-22T09:16:00Z</time>
      </trkpt>
      <trkpt lat="45.82201" lon="5.78946">
        <ele>235.4</ele>
        <time>2021-08-22T09:16:01Z</time>
      </trkpt>
      <trkpt lat="45.82197" lon="5.78944">
        <ele>235.4</ele>
        <time>2021-08-22T09:16:03Z</time>
      </trkpt>
      <trkpt lat="45.82191" lon="5.78941">
        <ele>235.4</ele>
        <time>2021-08-22T09:16:04Z</time>
      </trkpt>
      <trkpt lat="45.82185" lon="5.78938">
        <ele>235.4</ele>
        <time>2021-08-22T09:16:06Z</time>
      </trkpt>
      <trkpt lat="45.82182" lon="5.78936">
        <ele>235.4</ele>
        <time>2021-08-22T09:16:07Z</time>
      </trkpt>
      <trkpt lat="45.82178" lon="5.78933">
        <ele>235.4</ele>
        <time>2021-08-22T09:16:08Z</time>
      </trkpt>
      <trkpt lat="45.82175" lon="5.78931">
        <ele>235.4</ele>
        <time>2021-08-22T09:16:09Z</time>
      </trkpt>
      <trkpt lat="45.8217" lon="5.78928">
        <ele>235.4</ele>
        <time>2021-08-22T09:16:11Z</time>
      </trkpt>
      <trkpt lat="45.82165" lon="5.78925">
        <ele>235.4</ele>
        <time>2021-08-22T09:16:12Z</time>
      </trkpt>
      <trkpt lat="45.82162" lon="5.78922">
        <ele>235.4</ele>
        <time>2021-08-22T09:16:13Z</time>
      </trkpt>
      <trkpt lat="45.82159" lon="5.7892">
        <ele>235.3</ele>
        <time>2021-08-22T09:16:14Z</time>
      </trkpt>
      <trkpt lat="45.82153" lon="5.78918">
        <ele>235.3</ele>
        <time>2021-08-22T09:16:16Z</time>
      </trkpt>
      <trkpt lat="45.8215" lon="5.78916">
        <ele>235.3</ele>
        <time>2021-08-22T09:16:17Z</time>
      </trkpt>
      <trkpt lat="45.82144" lon="5.78914">
        <ele>235.3</ele>
        <time>2021-08-22T09:16:18Z</time>
      </trkpt>
      <trkpt lat="45.8214" lon="5.78912">
        <ele>235.3</ele>
        <time>2021-08-22T09:16:19Z</time>
      </trkpt>
      <trkpt lat="45.82137" lon="5.7891">
        <ele>235.3</ele>
        <time>2021-08-22T09:16:20Z</time>
      </trkpt>
      <trkpt lat="45.82133" lon="5.78908">
        <ele>235.3</ele>
        <time>2021-08-22T09:16:22Z</time>
      </trkpt>
      <trkpt lat="45.82129" lon="5.78905">
        <ele>235.3</ele>
        <time>2021-08-22T09:16:23Z</time>
      </trkpt>
      <trkpt lat="45.82128" lon="5.78905">
        <ele>235.3</ele>
        <time>2021-08-22T09:16:24Z</time>
      </trkpt>
      <trkpt lat="45.82123" lon="5.78902">
        <ele>235.3</ele>
        <time>2021-08-22T09:16:26Z</time>
      </trkpt>
      <trkpt lat="45.82121" lon="5.78901">
        <ele>235.3</ele>
        <time>2021-08-22T09:16:27Z</time>
      </trkpt>
      <trkpt lat="45.82119" lon="5.789">
        <ele>235.3</ele>
        <time>2021-08-22T09:16:28Z</time>
      </trkpt>
      <trkpt lat="45.82117" lon="5.78898">
        <ele>235.3</ele>
        <time>2021-08-22T09:16:29Z</time>
      </trkpt>
      <trkpt lat="45.82112" lon="5.78895">
        <ele>235.3</ele>
        <time>2021-08-22T09:16:31Z</time>
      </trkpt>
      <trkpt lat="45.82109" lon="5.78894">
        <ele>235.3</ele>
        <time>2021-08-22T09:16:32Z</time>
      </trkpt>
      <trkpt lat="45.82106" lon="5.78892">
        <ele>235.3</ele>
        <time>2021-08-22T09:16:33Z</time>
      </trkpt>
      <trkpt lat="45.82101" lon="5.78891">
        <ele>235.3</ele>
        <time>2021-08-22T09:16:34Z</time>
      </trkpt>
      <trkpt lat="45.82097" lon="5.78889">
        <ele>235.3</ele>
        <time>2021-08-22T09:16:35Z</time>
      </trkpt>
      <trkpt lat="45.82092" lon="5.78886">
        <ele>235.3</ele>
        <time>2021-08-22T09:16:36Z</time>
      </trkpt>
      <trkpt lat="45.82089" lon="5.78884">
        <ele>235.2</ele>
        <time>2021-08-22T09:16:37Z</time>
      </trkpt>
      <trkpt lat="45.82085" lon="5.78883">
        <ele>235.2</ele>
        <time>2021-08-22T09:16:38Z</time>
      </trkpt>
      <trkpt lat="45.8208" lon="5.78881">
        <ele>235.2</ele>
        <time>2021-08-22T09:16:40Z</time>
      </trkpt>
      <trkpt lat="45.82074" lon="5.78878">
        <ele>235.3</ele>
        <time>2021-08-22T09:16:41Z</time>
      </trkpt>
      <trkpt lat="45.82071" lon="5.78876">
        <ele>235.3</ele>
        <time>2021-08-22T09:16:42Z</time>
      </trkpt>
      <trkpt lat="45.82066" lon="5.78874">
        <ele>235.3</ele>
        <time>2021-08-22T09:16:43Z</time>
      </trkpt>
      <trkpt lat="45.82059" lon="5.7887">
        <ele>235.2</ele>
        <time>2021-08-22T09:16:45Z</time>
      </trkpt>
      <trkpt lat="45.82055" lon="5.78867">
        <ele>235.2</ele>
        <time>2021-08-22T09:16:46Z</time>
      </trkpt>
      <trkpt lat="45.82051" lon="5.78865">
        <ele>235.2</ele>
        <time>2021-08-22T09:16:47Z</time>
      </trkpt>
      <trkpt lat="45.82045" lon="5.78862">
        <ele>235.2</ele>
        <time>2021-08-22T09:16:48Z</time>
      </trkpt>
      <trkpt lat="45.82042" lon="5.7886">
        <ele>235.2</ele>
        <time>2021-08-22T09:16:49Z</time>
      </trkpt>
      <trkpt lat="45.82039" lon="5.78858">
        <ele>235.2</ele>
        <time>2021-08-22T09:16:51Z</time>
      </trkpt>
      <trkpt lat="45.82037" lon="5.78856">
        <ele>235.2</ele>
        <time>2021-08-22T09:16:52Z</time>
      </trkpt>
      <trkpt lat="45.82034" lon="5.78854">
        <ele>235.2</ele>
        <time>2021-08-22T09:16:53Z</time>
      </trkpt>
      <trkpt lat="45.82031" lon="5.78852">
        <ele>235.2</ele>
        <time>2021-08-22T09:16:54Z</time>
      </trkpt>
      <trkpt lat="45.82028" lon="5.78851">
        <ele>235.2</ele>
        <time>2021-08-22T09:16:55Z</time>
      </trkpt>
      <trkpt lat="45.82022" lon="5.78848">
        <ele>235.2</ele>
        <time>2021-08-22T09:16:57Z</time>
      </trkpt>
      <trkpt lat="45.82015" lon="5.78846">
        <ele>235.2</ele>
        <time>2021-08-22T09:16:59Z</time>
      </trkpt>
      <trkpt lat="45.82011" lon="5.78844">
        <ele>235.2</ele>
        <time>2021-08-22T09:17:00Z</time>
      </trkpt>
      <trkpt lat="45.82008" lon="5.78843">
        <ele>235.2</ele>
        <time>2021-08-22T09:17:01Z</time>
      </trkpt>
      <trkpt lat="45.82003" lon="5.78842">
        <ele>235.1</ele>
        <time>2021-08-22T09:17:02Z</time>
      </trkpt>
      <trkpt lat="45.81998" lon="5.78842">
        <ele>235.1</ele>
        <time>2021-08-22T09:17:04Z</time>
      </trkpt>
      <trkpt lat="45.8199" lon="5.78839">
        <ele>235.1</ele>
        <time>2021-08-22T09:17:06Z</time>
      </trkpt>
      <trkpt lat="45.81984" lon="5.78838">
        <ele>235.1</ele>
        <time>2021-08-22T09:17:07Z</time>
      </trkpt>
      <trkpt lat="45.81975" lon="5.78834">
        <ele>235.1</ele>
        <time>2021-08-22T09:17:09Z</time>
      </trkpt>
      <trkpt lat="45.81969" lon="5.78832">
        <ele>235.1</ele>
        <time>2021-08-22T09:17:10Z</time>
      </trkpt>
      <trkpt lat="45.81964" lon="5.7883">
        <ele>235.1</ele>
        <time>2021-08-22T09:17:12Z</time>
      </trkpt>
      <trkpt lat="45.81961" lon="5.78828">
        <ele>235.1</ele>
        <time>2021-08-22T09:17:13Z</time>
      </trkpt>
      <trkpt lat="45.81953" lon="5.78825">
        <ele>235.1</ele>
        <time>2021-08-22T09:17:15Z</time>
      </trkpt>
      <trkpt lat="45.81949" lon="5.78823">
        <ele>235.1</ele>
        <time>2021-08-22T09:17:16Z</time>
      </trkpt>
      <trkpt lat="45.81945" lon="5.78822">
        <ele>235.1</ele>
        <time>2021-08-22T09:17:17Z</time>
      </trkpt>
      <trkpt lat="45.81941" lon="5.7882">
        <ele>235.2</ele>
        <time>2021-08-22T09:17:18Z</time>
      </trkpt>
      <trkpt lat="45.81937" lon="5.78818">
        <ele>235.2</ele>
        <time>2021-08-22T09:17:19Z</time>
      </trkpt>
      <trkpt lat="45.81932" lon="5.78815">
        <ele>235.2</ele>
        <time>2021-08-22T09:17:21Z</time>
      </trkpt>
      <trkpt lat="45.81924" lon="5.78812">
        <ele>235.2</ele>
        <time>2021-08-22T09:17:23Z</time>
      </trkpt>
      <trkpt lat="45.8192" lon="5.7881">
        <ele>235.2</ele>
        <time>2021-08-22T09:17:24Z</time>
      </trkpt>
      <trkpt lat="45.81917" lon="5.78809">
        <ele>235.2</ele>
        <time>2021-08-22T09:17:25Z</time>
      </trkpt>
      <trkpt lat="45.81913" lon="5.78808">
        <ele>235.2</ele>
        <time>2021-08-22T09:17:26Z</time>
      </trkpt>
      <trkpt lat="45.81909" lon="5.78806">
        <ele>235.2</ele>
        <time>2021-08-22T09:17:27Z</time>
      </trkpt>
      <trkpt lat="45.81906" lon="5.78804">
        <ele>235.2</ele>
        <time>2021-08-22T09:17:28Z</time>
      </trkpt>
      <trkpt lat="45.81904" lon="5.78803">
        <ele>235.2</ele>
        <time>2021-08-22T09:17:29Z</time>
      </trkpt>
      <trkpt lat="45.819" lon="5.78803">
        <ele>235.2</ele>
        <time>2021-08-22T09:17:31Z</time>
      </trkpt>
      <trkpt lat="45.81895" lon="5.78801">
        <ele>235.2</ele>
        <time>2021-08-22T09:17:32Z</time>
      </trkpt>
      <trkpt lat="45.81893" lon="5.788">
        <ele>235.2</ele>
        <time>2021-08-22T09:17:33Z</time>
      </trkpt>
      <trkpt lat="45.81889" lon="5.78798">
        <ele>235.2</ele>
        <time>2021-08-22T09:17:35Z</time>
      </trkpt>
      <trkpt lat="45.81884" lon="5.78796">
        <ele>235.2</ele>
        <time>2021-08-22T09:17:36Z</time>
      </trkpt>
      <trkpt lat="45.8188" lon="5.78794">
        <ele>235.2</ele>
        <time>2021-08-22T09:17:37Z</time>
      </trkpt>
      <trkpt lat="45.81876" lon="5.78793">
        <ele>235.2</ele>
        <time>2021-08-22T09:17:38Z</time>
      </trkpt>
      <trkpt lat="45.81871" lon="5.7879">
        <ele>235.2</ele>
        <time>2021-08-22T09:17:40Z</time>
      </trkpt>
      <trkpt lat="45.81867" lon="5.78788">
        <ele>235.2</ele>
        <time>2021-08-22T09:17:41Z</time>
      </trkpt>
      <trkpt lat="45.81861" lon="5.78786">
        <ele>235.1</ele>
        <time>2021-08-22T09:17:42Z</time>
      </trkpt>
      <trkpt lat="45.81857" lon="5.78783">
        <ele>235.1</ele>
        <time>2021-08-22T09:17:44Z</time>
      </trkpt>
      <trkpt lat="45.81853" lon="5.78781">
        <ele>235.1</ele>
        <time>2021-08-22T09:17:45Z</time>
      </trkpt>
      <trkpt lat="45.81849" lon="5.7878">
        <ele>235.1</ele>
        <time>2021-08-22T09:17:46Z</time>
      </trkpt>
      <trkpt lat="45.81845" lon="5.78779">
        <ele>235.1</ele>
        <time>2021-08-22T09:17:47Z</time>
      </trkpt>
      <trkpt lat="45.81841" lon="5.78777">
        <ele>235</ele>
        <time>2021-08-22T09:17:48Z</time>
      </trkpt>
      <trkpt lat="45.81836" lon="5.78776">
        <ele>235</ele>
        <time>2021-08-22T09:17:49Z</time>
      </trkpt>
      <trkpt lat="45.8183" lon="5.78771">
        <ele>235</ele>
        <time>2021-08-22T09:17:51Z</time>
      </trkpt>
      <trkpt lat="45.81827" lon="5.78769">
        <ele>235</ele>
        <time>2021-08-22T09:17:52Z</time>
      </trkpt>
      <trkpt lat="45.81823" lon="5.78768">
        <ele>235</ele>
        <time>2021-08-22T09:17:53Z</time>
      </trkpt>
      <trkpt lat="45.8182" lon="5.78767">
        <ele>235</ele>
        <time>2021-08-22T09:17:54Z</time>
      </trkpt>
      <trkpt lat="45.81817" lon="5.78766">
        <ele>235</ele>
        <time>2021-08-22T09:17:55Z</time>
      </trkpt>
      <trkpt lat="45.81813" lon="5.78764">
        <ele>235</ele>
        <time>2021-08-22T09:17:56Z</time>
      </trkpt>
      <trkpt lat="45.8181" lon="5.78761">
        <ele>235</ele>
        <time>2021-08-22T09:17:57Z</time>
      </trkpt>
      <trkpt lat="45.81807" lon="5.78759">
        <ele>235</ele>
        <time>2021-08-22T09:17:58Z</time>
      </trkpt>
      <trkpt lat="45.81803" lon="5.78758">
        <ele>235</ele>
        <time>2021-08-22T09:17:59Z</time>
      </trkpt>
      <trkpt lat="45.818" lon="5.78756">
        <ele>235</ele>
        <time>2021-08-22T09:18:00Z</time>
      </trkpt>
      <trkpt lat="45.81796" lon="5.78755">
        <ele>235</ele>
        <time>2021-08-22T09:18:01Z</time>
      </trkpt>
      <trkpt lat="45.81792" lon="5.78753">
        <ele>235</ele>
        <time>2021-08-22T09:18:03Z</time>
      </trkpt>
      <trkpt lat="45.81787" lon="5.78751">
        <ele>235</ele>
        <time>2021-08-22T09:18:05Z</time>
      </trkpt>
      <trkpt lat="45.81783" lon="5.7875">
        <ele>235</ele>
        <time>2021-08-22T09:18:06Z</time>
      </trkpt>
      <trkpt lat="45.81782" lon="5.78749">
        <ele>235</ele>
        <time>2021-08-22T09:18:07Z</time>
      </trkpt>
      <trkpt lat="45.81779" lon="5.78748">
        <ele>235</ele>
        <time>2021-08-22T09:18:08Z</time>
      </trkpt>
      <trkpt lat="45.81776" lon="5.78747">
        <ele>235.1</ele>
        <time>2021-08-22T09:18:09Z</time>
      </trkpt>
      <trkpt lat="45.81773" lon="5.78747">
        <ele>235.1</ele>
        <time>2021-08-22T09:18:10Z</time>
      </trkpt>
      <trkpt lat="45.8177" lon="5.78747">
        <ele>235.1</ele>
        <time>2021-08-22T09:18:11Z</time>
      </trkpt>
      <trkpt lat="45.81766" lon="5.78747">
        <ele>235.1</ele>
        <time>2021-08-22T09:18:12Z</time>
      </trkpt>
      <trkpt lat="45.81762" lon="5.78747">
        <ele>235.1</ele>
        <time>2021-08-22T09:18:13Z</time>
      </trkpt>
      <trkpt lat="45.81757" lon="5.78745">
        <ele>235</ele>
        <time>2021-08-22T09:18:14Z</time>
      </trkpt>
      <trkpt lat="45.81753" lon="5.78744">
        <ele>235</ele>
        <time>2021-08-22T09:18:15Z</time>
      </trkpt>
      <trkpt lat="45.81749" lon="5.78743">
        <ele>235</ele>
        <time>2021-08-22T09:18:16Z</time>
      </trkpt>
      <trkpt lat="45.81743" lon="5.78741">
        <ele>235</ele>
        <time>2021-08-22T09:18:18Z</time>
      </trkpt>
      <trkpt lat="45.81735" lon="5.78739">
        <ele>235</ele>
        <time>2021-08-22T09:18:20Z</time>
      </trkpt>
      <trkpt lat="45.81725" lon="5.78737">
        <ele>235</ele>
        <time>2021-08-22T09:18:22Z</time>
      </trkpt>
      <trkpt lat="45.81716" lon="5.78735">
        <ele>235</ele>
        <time>2021-08-22T09:18:23Z</time>
      </trkpt>
      <trkpt lat="45.81711" lon="5.78739">
        <ele>234.9</ele>
        <time>2021-08-22T09:18:24Z</time>
      </trkpt>
      <trkpt lat="45.81705" lon="5.78739">
        <ele>234.9</ele>
        <time>2021-08-22T09:18:26Z</time>
      </trkpt>
      <trkpt lat="45.81698" lon="5.78735">
        <ele>234.9</ele>
        <time>2021-08-22T09:18:27Z</time>
      </trkpt>
      <trkpt lat="45.81692" lon="5.78733">
        <ele>234.9</ele>
        <time>2021-08-22T09:18:29Z</time>
      </trkpt>
      <trkpt lat="45.81685" lon="5.78731">
        <ele>234.9</ele>
        <time>2021-08-22T09:18:30Z</time>
      </trkpt>
      <trkpt lat="45.8168" lon="5.7873">
        <ele>234.9</ele>
        <time>2021-08-22T09:18:32Z</time>
      </trkpt>
      <trkpt lat="45.81675" lon="5.78729">
        <ele>234.9</ele>
        <time>2021-08-22T09:18:33Z</time>
      </trkpt>
      <trkpt lat="45.81671" lon="5.78728">
        <ele>234.8</ele>
        <time>2021-08-22T09:18:34Z</time>
      </trkpt>
      <trkpt lat="45.81663" lon="5.78727">
        <ele>234.8</ele>
        <time>2021-08-22T09:18:36Z</time>
      </trkpt>
      <trkpt lat="45.81659" lon="5.78726">
        <ele>234.8</ele>
        <time>2021-08-22T09:18:37Z</time>
      </trkpt>
      <trkpt lat="45.81655" lon="5.78726">
        <ele>234.9</ele>
        <time>2021-08-22T09:18:38Z</time>
      </trkpt>
      <trkpt lat="45.81651" lon="5.78725">
        <ele>234.9</ele>
        <time>2021-08-22T09:18:39Z</time>
      </trkpt>
      <trkpt lat="45.81644" lon="5.78722">
        <ele>234.9</ele>
        <time>2021-08-22T09:18:41Z</time>
      </trkpt>
      <trkpt lat="45.8164" lon="5.78722">
        <ele>234.9</ele>
        <time>2021-08-22T09:18:42Z</time>
      </trkpt>
      <trkpt lat="45.81635" lon="5.78722">
        <ele>234.9</ele>
        <time>2021-08-22T09:18:43Z</time>
      </trkpt>
      <trkpt lat="45.81629" lon="5.78721">
        <ele>234.9</ele>
        <time>2021-08-22T09:18:45Z</time>
      </trkpt>
      <trkpt lat="45.81623" lon="5.7872">
        <ele>234.9</ele>
        <time>2021-08-22T09:18:47Z</time>
      </trkpt>
      <trkpt lat="45.81616" lon="5.78722">
        <ele>234.9</ele>
        <time>2021-08-22T09:18:49Z</time>
      </trkpt>
      <trkpt lat="45.81609" lon="5.7872">
        <ele>234.9</ele>
        <time>2021-08-22T09:18:51Z</time>
      </trkpt>
      <trkpt lat="45.81604" lon="5.78718">
        <ele>234.9</ele>
        <time>2021-08-22T09:18:52Z</time>
      </trkpt>
      <trkpt lat="45.81597" lon="5.78714">
        <ele>234.9</ele>
        <time>2021-08-22T09:18:53Z</time>
      </trkpt>
      <trkpt lat="45.81591" lon="5.78712">
        <ele>234.8</ele>
        <time>2021-08-22T09:18:55Z</time>
      </trkpt>
      <trkpt lat="45.81593" lon="5.78712">
        <ele>234.8</ele>
        <time>2021-08-22T09:18:56Z</time>
      </trkpt>
      <trkpt lat="45.81585" lon="5.78712">
        <ele>234.8</ele>
        <time>2021-08-22T09:18:58Z</time>
      </trkpt>
      <trkpt lat="45.81579" lon="5.78714">
        <ele>234.8</ele>
        <time>2021-08-22T09:18:59Z</time>
      </trkpt>
      <trkpt lat="45.81575" lon="5.78715">
        <ele>234.7</ele>
        <time>2021-08-22T09:19:00Z</time>
      </trkpt>
      <trkpt lat="45.8157" lon="5.78715">
        <ele>234.7</ele>
        <time>2021-08-22T09:19:01Z</time>
      </trkpt>
      <trkpt lat="45.81565" lon="5.78717">
        <ele>234.7</ele>
        <time>2021-08-22T09:19:03Z</time>
      </trkpt>
      <trkpt lat="45.8156" lon="5.78719">
        <ele>234.8</ele>
        <time>2021-08-22T09:19:04Z</time>
      </trkpt>
      <trkpt lat="45.81556" lon="5.78719">
        <ele>234.8</ele>
        <time>2021-08-22T09:19:05Z</time>
      </trkpt>
      <trkpt lat="45.81547" lon="5.78722">
        <ele>234.9</ele>
        <time>2021-08-22T09:19:07Z</time>
      </trkpt>
      <trkpt lat="45.81542" lon="5.78723">
        <ele>235</ele>
        <time>2021-08-22T09:19:08Z</time>
      </trkpt>
      <trkpt lat="45.81539" lon="5.78723">
        <ele>235</ele>
        <time>2021-08-22T09:19:09Z</time>
      </trkpt>
      <trkpt lat="45.81535" lon="5.78722">
        <ele>235.1</ele>
        <time>2021-08-22T09:19:10Z</time>
      </trkpt>
      <trkpt lat="45.81531" lon="5.78721">
        <ele>235.1</ele>
        <time>2021-08-22T09:19:12Z</time>
      </trkpt>
      <trkpt lat="45.81528" lon="5.78722">
        <ele>235.2</ele>
        <time>2021-08-22T09:19:13Z</time>
      </trkpt>
      <trkpt lat="45.81523" lon="5.78722">
        <ele>235.3</ele>
        <time>2021-08-22T09:19:14Z</time>
      </trkpt>
      <trkpt lat="45.81518" lon="5.78721">
        <ele>235.3</ele>
        <time>2021-08-22T09:19:15Z</time>
      </trkpt>
      <trkpt lat="45.81514" lon="5.78721">
        <ele>235.4</ele>
        <time>2021-08-22T09:19:16Z</time>
      </trkpt>
      <trkpt lat="45.81511" lon="5.78721">
        <ele>235.3</ele>
        <time>2021-08-22T09:19:17Z</time>
      </trkpt>
      <trkpt lat="45.81508" lon="5.78721">
        <ele>235.3</ele>
        <time>2021-08-22T09:19:18Z</time>
      </trkpt>
      <trkpt lat="45.81505" lon="5.78721">
        <ele>235.3</ele>
        <time>2021-08-22T09:19:19Z</time>
      </trkpt>
      <trkpt lat="45.81501" lon="5.7872">
        <ele>235.3</ele>
        <time>2021-08-22T09:19:20Z</time>
      </trkpt>
      <trkpt lat="45.81496" lon="5.78721">
        <ele>235.3</ele>
        <time>2021-08-22T09:19:22Z</time>
      </trkpt>
      <trkpt lat="45.81493" lon="5.78722">
        <ele>235.3</ele>
        <time>2021-08-22T09:19:23Z</time>
      </trkpt>
      <trkpt lat="45.81489" lon="5.78723">
        <ele>235.3</ele>
        <time>2021-08-22T09:19:24Z</time>
      </trkpt>
      <trkpt lat="45.81487" lon="5.78724">
        <ele>235.3</ele>
        <time>2021-08-22T09:19:25Z</time>
      </trkpt>
      <trkpt lat="45.81482" lon="5.78725">
        <ele>235.3</ele>
        <time>2021-08-22T09:19:27Z</time>
      </trkpt>
      <trkpt lat="45.81478" lon="5.78726">
        <ele>235.2</ele>
        <time>2021-08-22T09:19:28Z</time>
      </trkpt>
      <trkpt lat="45.81475" lon="5.78727">
        <ele>235.2</ele>
        <time>2021-08-22T09:19:29Z</time>
      </trkpt>
      <trkpt lat="45.81472" lon="5.78728">
        <ele>235.2</ele>
        <time>2021-08-22T09:19:30Z</time>
      </trkpt>
      <trkpt lat="45.81468" lon="5.7873">
        <ele>235.2</ele>
        <time>2021-08-22T09:19:32Z</time>
      </trkpt>
      <trkpt lat="45.81463" lon="5.78732">
        <ele>235.2</ele>
        <time>2021-08-22T09:19:33Z</time>
      </trkpt>
      <trkpt lat="45.81456" lon="5.78734">
        <ele>235.2</ele>
        <time>2021-08-22T09:19:35Z</time>
      </trkpt>
      <trkpt lat="45.81451" lon="5.78735">
        <ele>235.2</ele>
        <time>2021-08-22T09:19:36Z</time>
      </trkpt>
      <trkpt lat="45.81442" lon="5.78736">
        <ele>235.2</ele>
        <time>2021-08-22T09:19:38Z</time>
      </trkpt>
      <trkpt lat="45.81437" lon="5.78738">
        <ele>235.2</ele>
        <time>2021-08-22T09:19:39Z</time>
      </trkpt>
      <trkpt lat="45.81431" lon="5.78741">
        <ele>235.2</ele>
        <time>2021-08-22T09:19:41Z</time>
      </trkpt>
      <trkpt lat="45.81423" lon="5.78742">
        <ele>235.2</ele>
        <time>2021-08-22T09:19:43Z</time>
      </trkpt>
      <trkpt lat="45.81417" lon="5.78743">
        <ele>235.2</ele>
        <time>2021-08-22T09:19:45Z</time>
      </trkpt>
      <trkpt lat="45.81413" lon="5.78745">
        <ele>235.2</ele>
        <time>2021-08-22T09:19:46Z</time>
      </trkpt>
      <trkpt lat="45.81409" lon="5.78746">
        <ele>235.2</ele>
        <time>2021-08-22T09:19:47Z</time>
      </trkpt>
      <trkpt lat="45.81402" lon="5.78749">
        <ele>235.2</ele>
        <time>2021-08-22T09:19:49Z</time>
      </trkpt>
      <trkpt lat="45.81395" lon="5.78752">
        <ele>235.3</ele>
        <time>2021-08-22T09:19:51Z</time>
      </trkpt>
      <trkpt lat="45.8139" lon="5.78753">
        <ele>235.3</ele>
        <time>2021-08-22T09:19:52Z</time>
      </trkpt>
      <trkpt lat="45.81386" lon="5.78754">
        <ele>235.3</ele>
        <time>2021-08-22T09:19:53Z</time>
      </trkpt>
      <trkpt lat="45.81381" lon="5.78755">
        <ele>235.3</ele>
        <time>2021-08-22T09:19:54Z</time>
      </trkpt>
      <trkpt lat="45.81375" lon="5.78757">
        <ele>235.3</ele>
        <time>2021-08-22T09:19:55Z</time>
      </trkpt>
      <trkpt lat="45.81363" lon="5.78757">
        <ele>235.4</ele>
        <time>2021-08-22T09:19:57Z</time>
      </trkpt>
      <trkpt lat="45.81358" lon="5.78758">
        <ele>235.4</ele>
        <time>2021-08-22T09:19:58Z</time>
      </trkpt>
      <trkpt lat="45.81353" lon="5.78761">
        <ele>235.5</ele>
        <time>2021-08-22T09:19:59Z</time>
      </trkpt>
      <trkpt lat="45.81348" lon="5.78762">
        <ele>235.5</ele>
        <time>2021-08-22T09:20:00Z</time>
      </trkpt>
      <trkpt lat="45.81343" lon="5.78763">
        <ele>235.6</ele>
        <time>2021-08-22T09:20:01Z</time>
      </trkpt>
      <trkpt lat="45.8134" lon="5.78765">
        <ele>235.6</ele>
        <time>2021-08-22T09:20:02Z</time>
      </trkpt>
      <trkpt lat="45.81336" lon="5.78766">
        <ele>235.7</ele>
        <time>2021-08-22T09:20:03Z</time>
      </trkpt>
      <trkpt lat="45.81332" lon="5.78768">
        <ele>235.7</ele>
        <time>2021-08-22T09:20:05Z</time>
      </trkpt>
      <trkpt lat="45.81328" lon="5.78769">
        <ele>235.7</ele>
        <time>2021-08-22T09:20:06Z</time>
      </trkpt>
      <trkpt lat="45.81324" lon="5.7877">
        <ele>235.8</ele>
        <time>2021-08-22T09:20:07Z</time>
      </trkpt>
      <trkpt lat="45.81321" lon="5.78771">
        <ele>235.8</ele>
        <time>2021-08-22T09:20:08Z</time>
      </trkpt>
      <trkpt lat="45.81317" lon="5.78772">
        <ele>235.9</ele>
        <time>2021-08-22T09:20:09Z</time>
      </trkpt>
      <trkpt lat="45.81311" lon="5.78774">
        <ele>236</ele>
        <time>2021-08-22T09:20:11Z</time>
      </trkpt>
      <trkpt lat="45.81307" lon="5.78775">
        <ele>236</ele>
        <time>2021-08-22T09:20:12Z</time>
      </trkpt>
      <trkpt lat="45.81303" lon="5.78776">
        <ele>236.1</ele>
        <time>2021-08-22T09:20:13Z</time>
      </trkpt>
      <trkpt lat="45.81298" lon="5.78775">
        <ele>236.1</ele>
        <time>2021-08-22T09:20:14Z</time>
      </trkpt>
      <trkpt lat="45.81295" lon="5.78775">
        <ele>236.2</ele>
        <time>2021-08-22T09:20:15Z</time>
      </trkpt>
      <trkpt lat="45.81291" lon="5.78773">
        <ele>236.2</ele>
        <time>2021-08-22T09:20:16Z</time>
      </trkpt>
      <trkpt lat="45.81286" lon="5.78772">
        <ele>236.3</ele>
        <time>2021-08-22T09:20:17Z</time>
      </trkpt>
      <trkpt lat="45.81271" lon="5.78768">
        <ele>236.2</ele>
        <time>2021-08-22T09:20:19Z</time>
      </trkpt>
      <trkpt lat="45.81264" lon="5.78767">
        <ele>236.1</ele>
        <time>2021-08-22T09:20:20Z</time>
      </trkpt>
      <trkpt lat="45.8125" lon="5.78765">
        <ele>236.1</ele>
        <time>2021-08-22T09:20:22Z</time>
      </trkpt>
      <trkpt lat="45.81233" lon="5.78773">
        <ele>236.1</ele>
        <time>2021-08-22T09:20:26Z</time>
      </trkpt>
      <trkpt lat="45.81223" lon="5.78771">
        <ele>236.1</ele>
        <time>2021-08-22T09:20:27Z</time>
      </trkpt>
      <trkpt lat="45.81217" lon="5.78771">
        <ele>236.1</ele>
        <time>2021-08-22T09:20:28Z</time>
      </trkpt>
      <trkpt lat="45.81212" lon="5.78772">
        <ele>236.1</ele>
        <time>2021-08-22T09:20:29Z</time>
      </trkpt>
      <trkpt lat="45.81211" lon="5.78774">
        <ele>236.1</ele>
        <time>2021-08-22T09:20:30Z</time>
      </trkpt>
      <trkpt lat="45.81206" lon="5.78776">
        <ele>236.1</ele>
        <time>2021-08-22T09:20:32Z</time>
      </trkpt>
      <trkpt lat="45.81202" lon="5.78776">
        <ele>236.1</ele>
        <time>2021-08-22T09:20:33Z</time>
      </trkpt>
      <trkpt lat="45.81198" lon="5.78776">
        <ele>236.2</ele>
        <time>2021-08-22T09:20:34Z</time>
      </trkpt>
      <trkpt lat="45.81195" lon="5.78777">
        <ele>236.2</ele>
        <time>2021-08-22T09:20:36Z</time>
      </trkpt>
      <trkpt lat="45.81194" lon="5.78778">
        <ele>236.2</ele>
        <time>2021-08-22T09:20:37Z</time>
      </trkpt>
      <trkpt lat="45.81193" lon="5.78778">
        <ele>236.2</ele>
        <time>2021-08-22T09:20:39Z</time>
      </trkpt>
      <trkpt lat="45.81192" lon="5.78777">
        <ele>236.2</ele>
        <time>2021-08-22T09:20:40Z</time>
      </trkpt>
      <trkpt lat="45.81192" lon="5.78777">
        <ele>236.2</ele>
        <time>2021-08-22T09:20:42Z</time>
      </trkpt>
      <trkpt lat="45.81192" lon="5.78779">
        <ele>236.2</ele>
        <time>2021-08-22T09:20:43Z</time>
      </trkpt>
      <trkpt lat="45.81189" lon="5.78784">
        <ele>236.2</ele>
        <time>2021-08-22T09:20:45Z</time>
      </trkpt>
      <trkpt lat="45.81188" lon="5.78788">
        <ele>236.2</ele>
        <time>2021-08-22T09:20:46Z</time>
      </trkpt>
      <trkpt lat="45.81188" lon="5.78789">
        <ele>236.2</ele>
        <time>2021-08-22T09:20:47Z</time>
      </trkpt>
      <trkpt lat="45.81187" lon="5.78794">
        <ele>236.2</ele>
        <time>2021-08-22T09:20:49Z</time>
      </trkpt>
      <trkpt lat="45.81188" lon="5.78795">
        <ele>236.2</ele>
        <time>2021-08-22T09:20:50Z</time>
      </trkpt>
      <trkpt lat="45.81189" lon="5.78796">
        <ele>236.2</ele>
        <time>2021-08-22T09:20:51Z</time>
      </trkpt>
      <trkpt lat="45.8119" lon="5.78798">
        <ele>236.2</ele>
        <time>2021-08-22T09:20:53Z</time>
      </trkpt>
      <trkpt lat="45.81191" lon="5.78799">
        <ele>236.2</ele>
        <time>2021-08-22T09:20:54Z</time>
      </trkpt>
      <trkpt lat="45.81194" lon="5.78799">
        <ele>236.2</ele>
        <time>2021-08-22T09:20:55Z</time>
      </trkpt>
      <trkpt lat="45.81196" lon="5.788">
        <ele>236.2</ele>
        <time>2021-08-22T09:20:56Z</time>
      </trkpt>
      <trkpt lat="45.81201" lon="5.78802">
        <ele>236.2</ele>
        <time>2021-08-22T09:20:57Z</time>
      </trkpt>
      <trkpt lat="45.81206" lon="5.78809">
        <ele>236.1</ele>
        <time>2021-08-22T09:20:58Z</time>
      </trkpt>
      <trkpt lat="45.81208" lon="5.78814">
        <ele>236.1</ele>
        <time>2021-08-22T09:20:59Z</time>
      </trkpt>
      <trkpt lat="45.8121" lon="5.78821">
        <ele>236.1</ele>
        <time>2021-08-22T09:21:01Z</time>
      </trkpt>
      <trkpt lat="45.81211" lon="5.78832">
        <ele>236.1</ele>
        <time>2021-08-22T09:21:03Z</time>
      </trkpt>
      <trkpt lat="45.8121" lon="5.7884">
        <ele>236.1</ele>
        <time>2021-08-22T09:21:04Z</time>
      </trkpt>
      <trkpt lat="45.81209" lon="5.78845">
        <ele>236.1</ele>
        <time>2021-08-22T09:21:05Z</time>
      </trkpt>
      <trkpt lat="45.81208" lon="5.7885">
        <ele>236.1</ele>
        <time>2021-08-22T09:21:06Z</time>
      </trkpt>
      <trkpt lat="45.81206" lon="5.78856">
        <ele>236</ele>
        <time>2021-08-22T09:21:07Z</time>
      </trkpt>
      <trkpt lat="45.81203" lon="5.78862">
        <ele>236</ele>
        <time>2021-08-22T09:21:09Z</time>
      </trkpt>
      <trkpt lat="45.81201" lon="5.78865">
        <ele>236</ele>
        <time>2021-08-22T09:21:10Z</time>
      </trkpt>
      <trkpt lat="45.81198" lon="5.78867">
        <ele>236</ele>
        <time>2021-08-22T09:21:11Z</time>
      </trkpt>
      <trkpt lat="45.81192" lon="5.7887">
        <ele>236</ele>
        <time>2021-08-22T09:21:13Z</time>
      </trkpt>
      <trkpt lat="45.81186" lon="5.78874">
        <ele>236</ele>
        <time>2021-08-22T09:21:14Z</time>
      </trkpt>
      <trkpt lat="45.8118" lon="5.78877">
        <ele>236</ele>
        <time>2021-08-22T09:21:15Z</time>
      </trkpt>
      <trkpt lat="45.81174" lon="5.78882">
        <ele>236</ele>
        <time>2021-08-22T09:21:17Z</time>
      </trkpt>
      <trkpt lat="45.8117" lon="5.78887">
        <ele>236</ele>
        <time>2021-08-22T09:21:19Z</time>
      </trkpt>
      <trkpt lat="45.81166" lon="5.78892">
        <ele>236</ele>
        <time>2021-08-22T09:21:20Z</time>
      </trkpt>
      <trkpt lat="45.81162" lon="5.78896">
        <ele>236</ele>
        <time>2021-08-22T09:21:21Z</time>
      </trkpt>
      <trkpt lat="45.81159" lon="5.78899">
        <ele>236</ele>
        <time>2021-08-22T09:21:22Z</time>
      </trkpt>
      <trkpt lat="45.81154" lon="5.78905">
        <ele>236</ele>
        <time>2021-08-22T09:21:23Z</time>
      </trkpt>
      <trkpt lat="45.81151" lon="5.7891">
        <ele>236</ele>
        <time>2021-08-22T09:21:25Z</time>
      </trkpt>
      <trkpt lat="45.81148" lon="5.78913">
        <ele>236</ele>
        <time>2021-08-22T09:21:26Z</time>
      </trkpt>
      <trkpt lat="45.81146" lon="5.7892">
        <ele>235.9</ele>
        <time>2021-08-22T09:21:27Z</time>
      </trkpt>
      <trkpt lat="45.81146" lon="5.78926">
        <ele>235.9</ele>
        <time>2021-08-22T09:21:29Z</time>
      </trkpt>
      <trkpt lat="45.81147" lon="5.78933">
        <ele>235.9</ele>
        <time>2021-08-22T09:21:30Z</time>
      </trkpt>
      <trkpt lat="45.8115" lon="5.78941">
        <ele>235.8</ele>
        <time>2021-08-22T09:21:32Z</time>
      </trkpt>
      <trkpt lat="45.81152" lon="5.78947">
        <ele>235.8</ele>
        <time>2021-08-22T09:21:33Z</time>
      </trkpt>
      <trkpt lat="45.81153" lon="5.78952">
        <ele>235.8</ele>
        <time>2021-08-22T09:21:34Z</time>
      </trkpt>
      <trkpt lat="45.81155" lon="5.78958">
        <ele>235.8</ele>
        <time>2021-08-22T09:21:35Z</time>
      </trkpt>
      <trkpt lat="45.81158" lon="5.78962">
        <ele>235.8</ele>
        <time>2021-08-22T09:21:36Z</time>
      </trkpt>
      <trkpt lat="45.81158" lon="5.78966">
        <ele>235.8</ele>
        <time>2021-08-22T09:21:37Z</time>
      </trkpt>
      <trkpt lat="45.81158" lon="5.78972">
        <ele>235.8</ele>
        <time>2021-08-22T09:21:39Z</time>
      </trkpt>
      <trkpt lat="45.81157" lon="5.78977">
        <ele>235.7</ele>
        <time>2021-08-22T09:21:40Z</time>
      </trkpt>
      <trkpt lat="45.81156" lon="5.78978">
        <ele>235.7</ele>
        <time>2021-08-22T09:21:41Z</time>
      </trkpt>
      <trkpt lat="45.81155" lon="5.78981">
        <ele>235.6</ele>
        <time>2021-08-22T09:21:42Z</time>
      </trkpt>
      <trkpt lat="45.81153" lon="5.78982">
        <ele>235.5</ele>
        <time>2021-08-22T09:21:44Z</time>
      </trkpt>
      <trkpt lat="45.81149" lon="5.78988">
        <ele>235.4</ele>
        <time>2021-08-22T09:21:45Z</time>
      </trkpt>
      <trkpt lat="45.81145" lon="5.78995">
        <ele>235.2</ele>
        <time>2021-08-22T09:21:46Z</time>
      </trkpt>
      <trkpt lat="45.81142" lon="5.78998">
        <ele>235.1</ele>
        <time>2021-08-22T09:21:47Z</time>
      </trkpt>
      <trkpt lat="45.81138" lon="5.79002">
        <ele>235</ele>
        <time>2021-08-22T09:21:49Z</time>
      </trkpt>
      <trkpt lat="45.81135" lon="5.79004">
        <ele>234.9</ele>
        <time>2021-08-22T09:21:50Z</time>
      </trkpt>
      <trkpt lat="45.81131" lon="5.79006">
        <ele>234.8</ele>
        <time>2021-08-22T09:21:52Z</time>
      </trkpt>
      <trkpt lat="45.81126" lon="5.79008">
        <ele>234.7</ele>
        <time>2021-08-22T09:21:53Z</time>
      </trkpt>
      <trkpt lat="45.81124" lon="5.79009">
        <ele>234.7</ele>
        <time>2021-08-22T09:21:55Z</time>
      </trkpt>
      <trkpt lat="45.81123" lon="5.79009">
        <ele>234.7</ele>
        <time>2021-08-22T09:21:56Z</time>
      </trkpt>
      <trkpt lat="45.81121" lon="5.79007">
        <ele>234.7</ele>
        <time>2021-08-22T09:21:58Z</time>
      </trkpt>
      <trkpt lat="45.81119" lon="5.79007">
        <ele>234.6</ele>
        <time>2021-08-22T09:21:59Z</time>
      </trkpt>
      <trkpt lat="45.81119" lon="5.79009">
        <ele>234.6</ele>
        <time>2021-08-22T09:22:00Z</time>
      </trkpt>
      <trkpt lat="45.81118" lon="5.79009">
        <ele>234.6</ele>
        <time>2021-08-22T09:22:01Z</time>
      </trkpt>
      <trkpt lat="45.81114" lon="5.79012">
        <ele>234.6</ele>
        <time>2021-08-22T09:22:03Z</time>
      </trkpt>
      <trkpt lat="45.81111" lon="5.79012">
        <ele>234.6</ele>
        <time>2021-08-22T09:22:04Z</time>
      </trkpt>
      <trkpt lat="45.81104" lon="5.79012">
        <ele>234.5</ele>
        <time>2021-08-22T09:22:06Z</time>
      </trkpt>
      <trkpt lat="45.811" lon="5.79011">
        <ele>234.5</ele>
        <time>2021-08-22T09:22:07Z</time>
      </trkpt>
      <trkpt lat="45.81096" lon="5.79011">
        <ele>234.5</ele>
        <time>2021-08-22T09:22:08Z</time>
      </trkpt>
      <trkpt lat="45.81094" lon="5.79013">
        <ele>234.5</ele>
        <time>2021-08-22T09:22:09Z</time>
      </trkpt>
      <trkpt lat="45.81091" lon="5.79015">
        <ele>234.5</ele>
        <time>2021-08-22T09:22:10Z</time>
      </trkpt>
      <trkpt lat="45.81088" lon="5.79019">
        <ele>234.5</ele>
        <time>2021-08-22T09:22:11Z</time>
      </trkpt>
      <trkpt lat="45.81085" lon="5.79022">
        <ele>234.5</ele>
        <time>2021-08-22T09:22:13Z</time>
      </trkpt>
      <trkpt lat="45.81082" lon="5.79024">
        <ele>234.5</ele>
        <time>2021-08-22T09:22:14Z</time>
      </trkpt>
      <trkpt lat="45.81078" lon="5.79026">
        <ele>234.5</ele>
        <time>2021-08-22T09:22:15Z</time>
      </trkpt>
      <trkpt lat="45.81073" lon="5.79026">
        <ele>234.5</ele>
        <time>2021-08-22T09:22:17Z</time>
      </trkpt>
      <trkpt lat="45.8107" lon="5.79026">
        <ele>234.5</ele>
        <time>2021-08-22T09:22:18Z</time>
      </trkpt>
      <trkpt lat="45.81067" lon="5.79025">
        <ele>234.5</ele>
        <time>2021-08-22T09:22:19Z</time>
      </trkpt>
      <trkpt lat="45.81063" lon="5.79026">
        <ele>234.5</ele>
        <time>2021-08-22T09:22:20Z</time>
      </trkpt>
      <trkpt lat="45.8106" lon="5.79029">
        <ele>234.5</ele>
        <time>2021-08-22T09:22:22Z</time>
      </trkpt>
      <trkpt lat="45.81057" lon="5.79033">
        <ele>234.5</ele>
        <time>2021-08-22T09:22:23Z</time>
      </trkpt>
      <trkpt lat="45.81055" lon="5.79036">
        <ele>234.5</ele>
        <time>2021-08-22T09:22:24Z</time>
      </trkpt>
      <trkpt lat="45.81052" lon="5.79041">
        <ele>234.5</ele>
        <time>2021-08-22T09:22:26Z</time>
      </trkpt>
      <trkpt lat="45.81048" lon="5.79046">
        <ele>234.5</ele>
        <time>2021-08-22T09:22:28Z</time>
      </trkpt>
      <trkpt lat="45.81046" lon="5.79047">
        <ele>234.5</ele>
        <time>2021-08-22T09:22:29Z</time>
      </trkpt>
      <trkpt lat="45.81044" lon="5.79048">
        <ele>234.5</ele>
        <time>2021-08-22T09:22:31Z</time>
      </trkpt>
      <trkpt lat="45.81042" lon="5.79048">
        <ele>234.5</ele>
        <time>2021-08-22T09:22:32Z</time>
      </trkpt>
      <trkpt lat="45.8104" lon="5.79048">
        <ele>234.5</ele>
        <time>2021-08-22T09:22:34Z</time>
      </trkpt>
      <trkpt lat="45.81036" lon="5.79047">
        <ele>234.5</ele>
        <time>2021-08-22T09:22:35Z</time>
      </trkpt>
      <trkpt lat="45.81028" lon="5.79046">
        <ele>234.5</ele>
        <time>2021-08-22T09:22:37Z</time>
      </trkpt>
      <trkpt lat="45.8102" lon="5.79043">
        <ele>234.5</ele>
        <time>2021-08-22T09:22:39Z</time>
      </trkpt>
      <trkpt lat="45.81015" lon="5.7904">
        <ele>234.5</ele>
        <time>2021-08-22T09:22:40Z</time>
      </trkpt>
      <trkpt lat="45.81009" lon="5.79033">
        <ele>234.6</ele>
        <time>2021-08-22T09:22:42Z</time>
      </trkpt>
      <trkpt lat="45.81003" lon="5.79028">
        <ele>234.6</ele>
        <time>2021-08-22T09:22:43Z</time>
      </trkpt>
      <trkpt lat="45.80997" lon="5.79022">
        <ele>234.6</ele>
        <time>2021-08-22T09:22:45Z</time>
      </trkpt>
      <trkpt lat="45.80993" lon="5.79016">
        <ele>234.7</ele>
        <time>2021-08-22T09:22:46Z</time>
      </trkpt>
      <trkpt lat="45.8099" lon="5.79012">
        <ele>234.7</ele>
        <time>2021-08-22T09:22:47Z</time>
      </trkpt>
      <trkpt lat="45.80986" lon="5.79009">
        <ele>234.7</ele>
        <time>2021-08-22T09:22:48Z</time>
      </trkpt>
      <trkpt lat="45.80981" lon="5.79004">
        <ele>234.7</ele>
        <time>2021-08-22T09:22:50Z</time>
      </trkpt>
      <trkpt lat="45.80979" lon="5.78998">
        <ele>234.8</ele>
        <time>2021-08-22T09:22:51Z</time>
      </trkpt>
      <trkpt lat="45.80978" lon="5.78994">
        <ele>234.8</ele>
        <time>2021-08-22T09:22:52Z</time>
      </trkpt>
      <trkpt lat="45.80978" lon="5.78988">
        <ele>234.8</ele>
        <time>2021-08-22T09:22:53Z</time>
      </trkpt>
      <trkpt lat="45.80977" lon="5.78986">
        <ele>234.8</ele>
        <time>2021-08-22T09:22:55Z</time>
      </trkpt>
      <trkpt lat="45.80977" lon="5.78985">
        <ele>234.8</ele>
        <time>2021-08-22T09:22:56Z</time>
      </trkpt>
      <trkpt lat="45.80976" lon="5.78985">
        <ele>234.8</ele>
        <time>2021-08-22T09:22:57Z</time>
      </trkpt>
      <trkpt lat="45.80976" lon="5.78984">
        <ele>234.8</ele>
        <time>2021-08-22T09:22:58Z</time>
      </trkpt>
      <trkpt lat="45.80975" lon="5.78979">
        <ele>234.8</ele>
        <time>2021-08-22T09:23:00Z</time>
      </trkpt>
      <trkpt lat="45.80974" lon="5.78978">
        <ele>234.8</ele>
        <time>2021-08-22T09:23:01Z</time>
      </trkpt>
      <trkpt lat="45.80973" lon="5.78976">
        <ele>234.9</ele>
        <time>2021-08-22T09:23:03Z</time>
      </trkpt>
      <trkpt lat="45.80968" lon="5.78976">
        <ele>234.9</ele>
        <time>2021-08-22T09:23:09Z</time>
      </trkpt>
      <trkpt lat="45.80961" lon="5.78983">
        <ele>235</ele>
        <time>2021-08-22T09:23:11Z</time>
      </trkpt>
      <trkpt lat="45.80958" lon="5.78987">
        <ele>235</ele>
        <time>2021-08-22T09:23:12Z</time>
      </trkpt>
      <trkpt lat="45.80955" lon="5.78991">
        <ele>235.1</ele>
        <time>2021-08-22T09:23:13Z</time>
      </trkpt>
      <trkpt lat="45.8095" lon="5.78994">
        <ele>235.2</ele>
        <time>2021-08-22T09:23:15Z</time>
      </trkpt>
      <trkpt lat="45.80944" lon="5.78995">
        <ele>235.3</ele>
        <time>2021-08-22T09:23:16Z</time>
      </trkpt>
      <trkpt lat="45.80938" lon="5.78994">
        <ele>235.5</ele>
        <time>2021-08-22T09:23:18Z</time>
      </trkpt>
      <trkpt lat="45.80936" lon="5.78993">
        <ele>235.6</ele>
        <time>2021-08-22T09:23:19Z</time>
      </trkpt>
      <trkpt lat="45.80932" lon="5.78992">
        <ele>235.7</ele>
        <time>2021-08-22T09:23:21Z</time>
      </trkpt>
      <trkpt lat="45.80931" lon="5.78991">
        <ele>235.7</ele>
        <time>2021-08-22T09:23:22Z</time>
      </trkpt>
      <trkpt lat="45.8093" lon="5.7899">
        <ele>235.7</ele>
        <time>2021-08-22T09:23:24Z</time>
      </trkpt>
      <trkpt lat="45.8093" lon="5.7899">
        <ele>235.7</ele>
        <time>2021-08-22T09:23:25Z</time>
      </trkpt>
      <trkpt lat="45.8093" lon="5.78989">
        <ele>235.7</ele>
        <time>2021-08-22T09:23:27Z</time>
      </trkpt>
      <trkpt lat="45.80931" lon="5.78989">
        <ele>235.7</ele>
        <time>2021-08-22T09:23:28Z</time>
      </trkpt>
      <trkpt lat="45.80932" lon="5.78989">
        <ele>235.7</ele>
        <time>2021-08-22T09:23:30Z</time>
      </trkpt>
      <trkpt lat="45.80938" lon="5.78981">
        <ele>235.9</ele>
        <time>2021-08-22T09:23:35Z</time>
      </trkpt>
      <trkpt lat="45.80942" lon="5.7897">
        <ele>236</ele>
        <time>2021-08-22T09:23:37Z</time>
      </trkpt>
      <trkpt lat="45.80946" lon="5.7896">
        <ele>236</ele>
        <time>2021-08-22T09:23:39Z</time>
      </trkpt>
      <trkpt lat="45.80949" lon="5.78956">
        <ele>236.1</ele>
        <time>2021-08-22T09:23:40Z</time>
      </trkpt>
      <trkpt lat="45.80952" lon="5.78952">
        <ele>236.1</ele>
        <time>2021-08-22T09:23:41Z</time>
      </trkpt>
      <trkpt lat="45.80954" lon="5.78945">
        <ele>236.1</ele>
        <time>2021-08-22T09:23:43Z</time>
      </trkpt>
      <trkpt lat="45.80956" lon="5.78938">
        <ele>236.1</ele>
        <time>2021-08-22T09:23:45Z</time>
      </trkpt>
      <trkpt lat="45.80958" lon="5.78933">
        <ele>236.1</ele>
        <time>2021-08-22T09:23:46Z</time>
      </trkpt>
      <trkpt lat="45.80959" lon="5.78931">
        <ele>236.2</ele>
        <time>2021-08-22T09:23:47Z</time>
      </trkpt>
      <trkpt lat="45.80962" lon="5.78927">
        <ele>236.2</ele>
        <time>2021-08-22T09:23:49Z</time>
      </trkpt>
      <trkpt lat="45.80964" lon="5.78923">
        <ele>236.3</ele>
        <time>2021-08-22T09:23:51Z</time>
      </trkpt>
      <trkpt lat="45.80965" lon="5.78921">
        <ele>236.3</ele>
        <time>2021-08-22T09:23:52Z</time>
      </trkpt>
      <trkpt lat="45.80967" lon="5.78915">
        <ele>236.3</ele>
        <time>2021-08-22T09:23:54Z</time>
      </trkpt>
      <trkpt lat="45.80968" lon="5.78911">
        <ele>236.3</ele>
        <time>2021-08-22T09:23:55Z</time>
      </trkpt>
      <trkpt lat="45.80969" lon="5.78909">
        <ele>236.2</ele>
        <time>2021-08-22T09:23:56Z</time>
      </trkpt>
      <trkpt lat="45.8097" lon="5.78905">
        <ele>236.2</ele>
        <time>2021-08-22T09:23:58Z</time>
      </trkpt>
      <trkpt lat="45.8097" lon="5.78903">
        <ele>236.1</ele>
        <time>2021-08-22T09:23:59Z</time>
      </trkpt>
      <trkpt lat="45.80971" lon="5.78901">
        <ele>236.1</ele>
        <time>2021-08-22T09:24:00Z</time>
      </trkpt>
      <trkpt lat="45.80972" lon="5.78899">
        <ele>236.1</ele>
        <time>2021-08-22T09:24:01Z</time>
      </trkpt>
      <trkpt lat="45.80973" lon="5.78896">
        <ele>236.1</ele>
        <time>2021-08-22T09:24:03Z</time>
      </trkpt>
      <trkpt lat="45.80974" lon="5.78891">
        <ele>236.1</ele>
        <time>2021-08-22T09:24:04Z</time>
      </trkpt>
      <trkpt lat="45.80973" lon="5.7889">
        <ele>236.1</ele>
        <time>2021-08-22T09:24:05Z</time>
      </trkpt>
      <trkpt lat="45.80973" lon="5.78887">
        <ele>236</ele>
        <time>2021-08-22T09:24:06Z</time>
      </trkpt>
      <trkpt lat="45.80976" lon="5.78881">
        <ele>236</ele>
        <time>2021-08-22T09:24:08Z</time>
      </trkpt>
      <trkpt lat="45.80979" lon="5.78872">
        <ele>235.9</ele>
        <time>2021-08-22T09:24:10Z</time>
      </trkpt>
      <trkpt lat="45.8098" lon="5.78869">
        <ele>235.9</ele>
        <time>2021-08-22T09:24:12Z</time>
      </trkpt>
      <trkpt lat="45.80983" lon="5.78862">
        <ele>235.9</ele>
        <time>2021-08-22T09:24:14Z</time>
      </trkpt>
      <trkpt lat="45.80982" lon="5.78855">
        <ele>235.9</ele>
        <time>2021-08-22T09:24:16Z</time>
      </trkpt>
      <trkpt lat="45.80979" lon="5.78847">
        <ele>235.9</ele>
        <time>2021-08-22T09:24:17Z</time>
      </trkpt>
      <trkpt lat="45.80978" lon="5.78842">
        <ele>235.9</ele>
        <time>2021-08-22T09:24:18Z</time>
      </trkpt>
      <trkpt lat="45.80976" lon="5.78834">
        <ele>235.9</ele>
        <time>2021-08-22T09:24:20Z</time>
      </trkpt>
      <trkpt lat="45.80975" lon="5.78831">
        <ele>235.9</ele>
        <time>2021-08-22T09:24:21Z</time>
      </trkpt>
      <trkpt lat="45.80974" lon="5.78825">
        <ele>235.9</ele>
        <time>2021-08-22T09:24:22Z</time>
      </trkpt>
      <trkpt lat="45.80972" lon="5.78815">
        <ele>235.9</ele>
        <time>2021-08-22T09:24:24Z</time>
      </trkpt>
      <trkpt lat="45.8097" lon="5.7881">
        <ele>235.9</ele>
        <time>2021-08-22T09:24:25Z</time>
      </trkpt>
      <trkpt lat="45.80968" lon="5.78807">
        <ele>235.9</ele>
        <time>2021-08-22T09:24:26Z</time>
      </trkpt>
      <trkpt lat="45.80965" lon="5.78805">
        <ele>235.9</ele>
        <time>2021-08-22T09:24:27Z</time>
      </trkpt>
      <trkpt lat="45.80965" lon="5.78804">
        <ele>235.9</ele>
        <time>2021-08-22T09:24:28Z</time>
      </trkpt>
      <trkpt lat="45.80965" lon="5.78804">
        <ele>235.9</ele>
        <time>2021-08-22T09:24:30Z</time>
      </trkpt>
      <trkpt lat="45.80965" lon="5.78805">
        <ele>235.9</ele>
        <time>2021-08-22T09:24:31Z</time>
      </trkpt>
      <trkpt lat="45.80964" lon="5.78806">
        <ele>235.9</ele>
        <time>2021-08-22T09:24:32Z</time>
      </trkpt>
      <trkpt lat="45.80964" lon="5.78808">
        <ele>235.9</ele>
        <time>2021-08-22T09:24:33Z</time>
      </trkpt>
      <trkpt lat="45.80964" lon="5.78815">
        <ele>235.9</ele>
        <time>2021-08-22T09:24:34Z</time>
      </trkpt>
      <trkpt lat="45.80965" lon="5.78823">
        <ele>235.9</ele>
        <time>2021-08-22T09:24:36Z</time>
      </trkpt>
      <trkpt lat="45.80966" lon="5.78828">
        <ele>235.9</ele>
        <time>2021-08-22T09:24:37Z</time>
      </trkpt>
      <trkpt lat="45.80968" lon="5.78832">
        <ele>235.9</ele>
        <time>2021-08-22T09:24:38Z</time>
      </trkpt>
      <trkpt lat="45.8097" lon="5.78839">
        <ele>235.9</ele>
        <time>2021-08-22T09:24:39Z</time>
      </trkpt>
      <trkpt lat="45.80973" lon="5.78846">
        <ele>235.9</ele>
        <time>2021-08-22T09:24:40Z</time>
      </trkpt>
      <trkpt lat="45.80977" lon="5.78855">
        <ele>235.9</ele>
        <time>2021-08-22T09:24:41Z</time>
      </trkpt>
      <trkpt lat="45.80979" lon="5.78863">
        <ele>235.9</ele>
        <time>2021-08-22T09:24:43Z</time>
      </trkpt>
      <trkpt lat="45.80981" lon="5.7887">
        <ele>235.9</ele>
        <time>2021-08-22T09:24:44Z</time>
      </trkpt>
      <trkpt lat="45.80982" lon="5.78876">
        <ele>236</ele>
        <time>2021-08-22T09:24:45Z</time>
      </trkpt>
      <trkpt lat="45.80982" lon="5.78881">
        <ele>236</ele>
        <time>2021-08-22T09:24:46Z</time>
      </trkpt>
      <trkpt lat="45.80983" lon="5.78888">
        <ele>236</ele>
        <time>2021-08-22T09:24:48Z</time>
      </trkpt>
      <trkpt lat="45.80982" lon="5.78892">
        <ele>236.1</ele>
        <time>2021-08-22T09:24:49Z</time>
      </trkpt>
      <trkpt lat="45.80981" lon="5.78893">
        <ele>236.1</ele>
        <time>2021-08-22T09:24:50Z</time>
      </trkpt>
      <trkpt lat="45.8098" lon="5.78898">
        <ele>236.1</ele>
        <time>2021-08-22T09:24:52Z</time>
      </trkpt>
      <trkpt lat="45.80979" lon="5.78899">
        <ele>236.1</ele>
        <time>2021-08-22T09:24:53Z</time>
      </trkpt>
      <trkpt lat="45.80976" lon="5.78901">
        <ele>236.1</ele>
        <time>2021-08-22T09:24:54Z</time>
      </trkpt>
      <trkpt lat="45.80973" lon="5.78903">
        <ele>236.2</ele>
        <time>2021-08-22T09:24:56Z</time>
      </trkpt>
      <trkpt lat="45.8097" lon="5.78906">
        <ele>236.2</ele>
        <time>2021-08-22T09:24:57Z</time>
      </trkpt>
      <trkpt lat="45.80966" lon="5.78908">
        <ele>236.8</ele>
        <time>2021-08-22T09:24:59Z</time>
      </trkpt>
      <trkpt lat="45.80963" lon="5.7891">
        <ele>236.8</ele>
        <time>2021-08-22T09:25:00Z</time>
      </trkpt>
      <trkpt lat="45.8096" lon="5.78912">
        <ele>239.1</ele>
        <time>2021-08-22T09:25:01Z</time>
      </trkpt>
      <trkpt lat="45.80957" lon="5.78914">
        <ele>239.7</ele>
        <time>2021-08-22T09:25:02Z</time>
      </trkpt>
      <trkpt lat="45.80954" lon="5.78916">
        <ele>240.4</ele>
        <time>2021-08-22T09:27:02Z</time>
      </trkpt>
      <trkpt lat="45.80951" lon="5.78918">
        <ele>241</ele>
        <time>2021-08-22T09:27:03Z</time>
      </trkpt>
      <trkpt lat="45.80947" lon="5.7892">
        <ele>240.6</ele>
        <time>2021-08-22T09:27:04Z</time>
      </trkpt>
      <trkpt lat="45.80944" lon="5.78921">
        <ele>240.3</ele>
        <time>2021-08-22T09:27:06Z</time>
      </trkpt>
      <trkpt lat="45.80943" lon="5.78922">
        <ele>240.2</ele>
        <time>2021-08-22T09:27:07Z</time>
      </trkpt>
      <trkpt lat="45.80942" lon="5.78923">
        <ele>240</ele>
        <time>2021-08-22T09:27:08Z</time>
      </trkpt>
      <trkpt lat="45.80941" lon="5.78924">
        <ele>239.8</ele>
        <time>2021-08-22T09:27:10Z</time>
      </trkpt>
      <trkpt lat="45.8094" lon="5.78924">
        <ele>239.8</ele>
        <time>2021-08-22T09:27:11Z</time>
      </trkpt>
      <trkpt lat="45.80931" lon="5.78921">
        <ele>238.3</ele>
        <time>2021-08-22T09:27:13Z</time>
      </trkpt>
      <trkpt lat="45.80916" lon="5.78914">
        <ele>238.1</ele>
        <time>2021-08-22T09:27:15Z</time>
      </trkpt>
      <trkpt lat="45.8089" lon="5.7893">
        <ele>241.5</ele>
        <time>2021-08-22T09:27:49Z</time>
      </trkpt>
      <trkpt lat="45.80887" lon="5.7893">
        <ele>241.8</ele>
        <time>2021-08-22T09:27:50Z</time>
      </trkpt>
      <trkpt lat="45.80883" lon="5.78932">
        <ele>242.2</ele>
        <time>2021-08-22T09:27:51Z</time>
      </trkpt>
      <trkpt lat="45.80879" lon="5.78933">
        <ele>243</ele>
        <time>2021-08-22T09:27:53Z</time>
      </trkpt>
      <trkpt lat="45.80877" lon="5.78934">
        <ele>242.9</ele>
        <time>2021-08-22T09:27:55Z</time>
      </trkpt>
      <trkpt lat="45.80876" lon="5.78934">
        <ele>243.2</ele>
        <time>2021-08-22T09:27:56Z</time>
      </trkpt>
      <trkpt lat="45.80875" lon="5.78934">
        <ele>243.2</ele>
        <time>2021-08-22T09:27:58Z</time>
      </trkpt>
      <trkpt lat="45.80874" lon="5.78934">
        <ele>243.1</ele>
        <time>2021-08-22T09:28:00Z</time>
      </trkpt>
      <trkpt lat="45.80873" lon="5.78934">
        <ele>243.1</ele>
        <time>2021-08-22T09:28:01Z</time>
      </trkpt>
      <trkpt lat="45.80856" lon="5.78955">
        <ele>245.2</ele>
        <time>2021-08-22T09:29:04Z</time>
      </trkpt>
      <trkpt lat="45.80853" lon="5.78961">
        <ele>245.7</ele>
        <time>2021-08-22T09:29:06Z</time>
      </trkpt>
      <trkpt lat="45.8085" lon="5.78963">
        <ele>246.2</ele>
        <time>2021-08-22T09:29:07Z</time>
      </trkpt>
      <trkpt lat="45.80846" lon="5.78964">
        <ele>246.7</ele>
        <time>2021-08-22T09:29:08Z</time>
      </trkpt>
      <trkpt lat="45.80839" lon="5.78966">
        <ele>248.6</ele>
        <time>2021-08-22T09:29:09Z</time>
      </trkpt>
      <trkpt lat="45.80834" lon="5.78968">
        <ele>250.2</ele>
        <time>2021-08-22T09:29:11Z</time>
      </trkpt>
      <trkpt lat="45.80831" lon="5.78968">
        <ele>251</ele>
        <time>2021-08-22T09:29:12Z</time>
      </trkpt>
      <trkpt lat="45.80824" lon="5.78967">
        <ele>252.5</ele>
        <time>2021-08-22T09:29:14Z</time>
      </trkpt>
      <trkpt lat="45.80817" lon="5.78966">
        <ele>253.9</ele>
        <time>2021-08-22T09:29:15Z</time>
      </trkpt>
      <trkpt lat="45.80811" lon="5.78964">
        <ele>255.3</ele>
        <time>2021-08-22T09:29:16Z</time>
      </trkpt>
      <trkpt lat="45.80802" lon="5.78959">
        <ele>257.4</ele>
        <time>2021-08-22T09:29:18Z</time>
      </trkpt>
      <trkpt lat="45.80798" lon="5.78957">
        <ele>258</ele>
        <time>2021-08-22T09:29:19Z</time>
      </trkpt>
      <trkpt lat="45.80792" lon="5.78954">
        <ele>259.8</ele>
        <time>2021-08-22T09:29:21Z</time>
      </trkpt>
      <trkpt lat="45.8079" lon="5.78954">
        <ele>259.7</ele>
        <time>2021-08-22T09:29:22Z</time>
      </trkpt>
      <trkpt lat="45.80785" lon="5.78954">
        <ele>260.9</ele>
        <time>2021-08-22T09:29:24Z</time>
      </trkpt>
      <trkpt lat="45.80782" lon="5.78956">
        <ele>261.5</ele>
        <time>2021-08-22T09:29:25Z</time>
      </trkpt>
      <trkpt lat="45.80779" lon="5.78958">
        <ele>262.1</ele>
        <time>2021-08-22T09:29:26Z</time>
      </trkpt>
      <trkpt lat="45.80775" lon="5.78959">
        <ele>262.8</ele>
        <time>2021-08-22T09:29:27Z</time>
      </trkpt>
      <trkpt lat="45.80773" lon="5.78961">
        <ele>263.5</ele>
        <time>2021-08-22T09:29:28Z</time>
      </trkpt>
      <trkpt lat="45.80769" lon="5.78963">
        <ele>264.2</ele>
        <time>2021-08-22T09:29:30Z</time>
      </trkpt>
      <trkpt lat="45.80766" lon="5.78965">
        <ele>264.9</ele>
        <time>2021-08-22T09:29:31Z</time>
      </trkpt>
      <trkpt lat="45.80768" lon="5.78965">
        <ele>264.8</ele>
        <time>2021-08-22T09:29:32Z</time>
      </trkpt>
      <trkpt lat="45.8077" lon="5.78966">
        <ele>264</ele>
        <time>2021-08-22T09:29:34Z</time>
      </trkpt>
      <trkpt lat="45.8077" lon="5.78967">
        <ele>264</ele>
        <time>2021-08-22T09:29:35Z</time>
      </trkpt>
      <trkpt lat="45.8077" lon="5.78968">
        <ele>263.9</ele>
        <time>2021-08-22T09:29:36Z</time>
      </trkpt>
      <trkpt lat="45.80771" lon="5.78969">
        <ele>263.9</ele>
        <time>2021-08-22T09:29:37Z</time>
      </trkpt>
      <trkpt lat="45.80773" lon="5.78972">
        <ele>263.1</ele>
        <time>2021-08-22T09:29:39Z</time>
      </trkpt>
      <trkpt lat="45.80774" lon="5.78973">
        <ele>263</ele>
        <time>2021-08-22T09:29:40Z</time>
      </trkpt>
      <trkpt lat="45.80791" lon="5.78994">
        <ele>258</ele>
        <time>2021-08-22T09:29:43Z</time>
      </trkpt>
      <trkpt lat="45.80797" lon="5.79002">
        <ele>255.7</ele>
        <time>2021-08-22T09:29:44Z</time>
      </trkpt>
      <trkpt lat="45.80808" lon="5.79016">
        <ele>251.4</ele>
        <time>2021-08-22T09:29:46Z</time>
      </trkpt>
      <trkpt lat="45.80815" lon="5.79025">
        <ele>249.4</ele>
        <time>2021-08-22T09:29:47Z</time>
      </trkpt>
      <trkpt lat="45.80823" lon="5.79031">
        <ele>247.3</ele>
        <time>2021-08-22T09:29:48Z</time>
      </trkpt>
      <trkpt lat="45.80827" lon="5.79038">
        <ele>246.5</ele>
        <time>2021-08-22T09:29:50Z</time>
      </trkpt>
      <trkpt lat="45.80828" lon="5.79038">
        <ele>246.5</ele>
        <time>2021-08-22T09:29:51Z</time>
      </trkpt>
      <trkpt lat="45.80832" lon="5.79038">
        <ele>245.4</ele>
        <time>2021-08-22T09:29:53Z</time>
      </trkpt>
      <trkpt lat="45.80832" lon="5.79036">
        <ele>245.4</ele>
        <time>2021-08-22T09:29:55Z</time>
      </trkpt>
      <trkpt lat="45.80832" lon="5.79036">
        <ele>245.3</ele>
        <time>2021-08-22T09:29:56Z</time>
      </trkpt>
      <trkpt lat="45.80832" lon="5.79034">
        <ele>245.5</ele>
        <time>2021-08-22T09:29:57Z</time>
      </trkpt>
      <trkpt lat="45.8083" lon="5.79033">
        <ele>245.9</ele>
        <time>2021-08-22T09:29:59Z</time>
      </trkpt>
      <trkpt lat="45.8083" lon="5.79032">
        <ele>245.9</ele>
        <time>2021-08-22T09:30:00Z</time>
      </trkpt>
      <trkpt lat="45.80589" lon="5.79104">
        <ele>295.6</ele>
        <time>2021-08-22T09:37:02Z</time>
      </trkpt>
      <trkpt lat="45.80589" lon="5.79102">
        <ele>295.7</ele>
        <time>2021-08-22T09:37:03Z</time>
      </trkpt>
      <trkpt lat="45.80587" lon="5.791">
        <ele>295.7</ele>
        <time>2021-08-22T09:37:05Z</time>
      </trkpt>
      <trkpt lat="45.80586" lon="5.79099">
        <ele>295.7</ele>
        <time>2021-08-22T09:37:06Z</time>
      </trkpt>
      <trkpt lat="45.80586" lon="5.79099">
        <ele>295.9</ele>
        <time>2021-08-22T09:37:07Z</time>
      </trkpt>
      <trkpt lat="45.80585" lon="5.79099">
        <ele>295.8</ele>
        <time>2021-08-22T09:37:08Z</time>
      </trkpt>
      <trkpt lat="45.80585" lon="5.79098">
        <ele>295.8</ele>
        <time>2021-08-22T09:37:10Z</time>
      </trkpt>
      <trkpt lat="45.80585" lon="5.79098">
        <ele>295.7</ele>
        <time>2021-08-22T09:37:11Z</time>
      </trkpt>
      <trkpt lat="45.80576" lon="5.79093">
        <ele>296.3</ele>
        <time>2021-08-22T09:37:12Z</time>
      </trkpt>
      <trkpt lat="45.80567" lon="5.79089">
        <ele>296.5</ele>
        <time>2021-08-22T09:37:14Z</time>
      </trkpt>
      <trkpt lat="45.80559" lon="5.79085">
        <ele>296.7</ele>
        <time>2021-08-22T09:38:17Z</time>
      </trkpt>
      <trkpt lat="45.8055" lon="5.79081">
        <ele>296.7</ele>
        <time>2021-08-22T09:38:18Z</time>
      </trkpt>
      <trkpt lat="45.80542" lon="5.79084">
        <ele>296.8</ele>
        <time>2021-08-22T09:38:20Z</time>
      </trkpt>
      <trkpt lat="45.80536" lon="5.79085">
        <ele>296.8</ele>
        <time>2021-08-22T09:38:21Z</time>
      </trkpt>
      <trkpt lat="45.80532" lon="5.79088">
        <ele>296.9</ele>
        <time>2021-08-22T09:38:22Z</time>
      </trkpt>
      <trkpt lat="45.80531" lon="5.7909">
        <ele>296.9</ele>
        <time>2021-08-22T09:38:24Z</time>
      </trkpt>
      <trkpt lat="45.8053" lon="5.7909">
        <ele>296.9</ele>
        <time>2021-08-22T09:38:25Z</time>
      </trkpt>
      <trkpt lat="45.8053" lon="5.79092">
        <ele>296.9</ele>
        <time>2021-08-22T09:38:26Z</time>
      </trkpt>
      <trkpt lat="45.80529" lon="5.79094">
        <ele>296.9</ele>
        <time>2021-08-22T09:38:27Z</time>
      </trkpt>
      <trkpt lat="45.80528" lon="5.79097">
        <ele>296.9</ele>
        <time>2021-08-22T09:38:29Z</time>
      </trkpt>
      <trkpt lat="45.80528" lon="5.79101">
        <ele>296.9</ele>
        <time>2021-08-22T09:38:31Z</time>
      </trkpt>
      <trkpt lat="45.80528" lon="5.79103">
        <ele>296.9</ele>
        <time>2021-08-22T09:38:32Z</time>
      </trkpt>
      <trkpt lat="45.80527" lon="5.79104">
        <ele>296.9</ele>
        <time>2021-08-22T09:38:33Z</time>
      </trkpt>
      <trkpt lat="45.80527" lon="5.79106">
        <ele>296.9</ele>
        <time>2021-08-22T09:38:34Z</time>
      </trkpt>
      <trkpt lat="45.80526" lon="5.79109">
        <ele>296.9</ele>
        <time>2021-08-22T09:38:36Z</time>
      </trkpt>
      <trkpt lat="45.80525" lon="5.79111">
        <ele>296.9</ele>
        <time>2021-08-22T09:38:37Z</time>
      </trkpt>
      <trkpt lat="45.80524" lon="5.79113">
        <ele>296.9</ele>
        <time>2021-08-22T09:38:39Z</time>
      </trkpt>
      <trkpt lat="45.80523" lon="5.79114">
        <ele>296.9</ele>
        <time>2021-08-22T09:38:40Z</time>
      </trkpt>
      <trkpt lat="45.80522" lon="5.79115">
        <ele>296.9</ele>
        <time>2021-08-22T09:38:41Z</time>
      </trkpt>
      <trkpt lat="45.8052" lon="5.79117">
        <ele>296.9</ele>
        <time>2021-08-22T09:38:43Z</time>
      </trkpt>
      <trkpt lat="45.80517" lon="5.79118">
        <ele>297</ele>
        <time>2021-08-22T09:38:44Z</time>
      </trkpt>
      <trkpt lat="45.80516" lon="5.79118">
        <ele>297</ele>
        <time>2021-08-22T09:38:45Z</time>
      </trkpt>
      <trkpt lat="45.80513" lon="5.7912">
        <ele>297</ele>
        <time>2021-08-22T09:38:46Z</time>
      </trkpt>
      <trkpt lat="45.80512" lon="5.79122">
        <ele>297.1</ele>
        <time>2021-08-22T09:38:48Z</time>
      </trkpt>
      <trkpt lat="45.80511" lon="5.79123">
        <ele>297.1</ele>
        <time>2021-08-22T09:38:49Z</time>
      </trkpt>
      <trkpt lat="45.80509" lon="5.79124">
        <ele>297.1</ele>
        <time>2021-08-22T09:38:50Z</time>
      </trkpt>
      <trkpt lat="45.80507" lon="5.79124">
        <ele>297.2</ele>
        <time>2021-08-22T09:38:52Z</time>
      </trkpt>
      <trkpt lat="45.80507" lon="5.79123">
        <ele>297.2</ele>
        <time>2021-08-22T09:38:53Z</time>
      </trkpt>
      <trkpt lat="45.80507" lon="5.79122">
        <ele>297.3</ele>
        <time>2021-08-22T09:38:54Z</time>
      </trkpt>
      <trkpt lat="45.80507" lon="5.79122">
        <ele>297.3</ele>
        <time>2021-08-22T09:38:56Z</time>
      </trkpt>
      <trkpt lat="45.80506" lon="5.79122">
        <ele>297.3</ele>
        <time>2021-08-22T09:38:57Z</time>
      </trkpt>
      <trkpt lat="45.80503" lon="5.79121">
        <ele>297.4</ele>
        <time>2021-08-22T09:38:59Z</time>
      </trkpt>
      <trkpt lat="45.80502" lon="5.79121">
        <ele>297.5</ele>
        <time>2021-08-22T09:39:00Z</time>
      </trkpt>
      <trkpt lat="45.80502" lon="5.79122">
        <ele>297.5</ele>
        <time>2021-08-22T09:39:01Z</time>
      </trkpt>
      <trkpt lat="45.80501" lon="5.79123">
        <ele>297.6</ele>
        <time>2021-08-22T09:39:02Z</time>
      </trkpt>
      <trkpt lat="45.80498" lon="5.79126">
        <ele>297.8</ele>
        <time>2021-08-22T09:39:04Z</time>
      </trkpt>
      <trkpt lat="45.80497" lon="5.79128">
        <ele>297.9</ele>
        <time>2021-08-22T09:39:05Z</time>
      </trkpt>
      <trkpt lat="45.80496" lon="5.79131">
        <ele>298.1</ele>
        <time>2021-08-22T09:39:07Z</time>
      </trkpt>
      <trkpt lat="45.80494" lon="5.79132">
        <ele>298.2</ele>
        <time>2021-08-22T09:39:08Z</time>
      </trkpt>
      <trkpt lat="45.80492" lon="5.79134">
        <ele>298.4</ele>
        <time>2021-08-22T09:39:10Z</time>
      </trkpt>
      <trkpt lat="45.80491" lon="5.79133">
        <ele>298.5</ele>
        <time>2021-08-22T09:39:12Z</time>
      </trkpt>
      <trkpt lat="45.80491" lon="5.79134">
        <ele>298.5</ele>
        <time>2021-08-22T09:39:13Z</time>
      </trkpt>
      <trkpt lat="45.80492" lon="5.79134">
        <ele>298.5</ele>
        <time>2021-08-22T09:39:14Z</time>
      </trkpt>
      <trkpt lat="45.80492" lon="5.79134">
        <ele>298.5</ele>
        <time>2021-08-22T09:39:16Z</time>
      </trkpt>
      <trkpt lat="45.80492" lon="5.79134">
        <ele>298.6</ele>
        <time>2021-08-22T09:39:17Z</time>
      </trkpt>
      <trkpt lat="45.80492" lon="5.79135">
        <ele>298.6</ele>
        <time>2021-08-22T09:39:19Z</time>
      </trkpt>
      <trkpt lat="45.80491" lon="5.79135">
        <ele>298.7</ele>
        <time>2021-08-22T09:39:20Z</time>
      </trkpt>
      <trkpt lat="45.80435" lon="5.79203">
        <ele>305.7</ele>
        <time>2021-08-22T09:40:58Z</time>
      </trkpt>
      <trkpt lat="45.80434" lon="5.79205">
        <ele>305.8</ele>
        <time>2021-08-22T09:40:59Z</time>
      </trkpt>
      <trkpt lat="45.80433" lon="5.79206">
        <ele>305.9</ele>
        <time>2021-08-22T09:41:00Z</time>
      </trkpt>
      <trkpt lat="45.80428" lon="5.79203">
        <ele>306.2</ele>
        <time>2021-08-22T09:41:02Z</time>
      </trkpt>
      <trkpt lat="45.80423" lon="5.79199">
        <ele>308.3</ele>
        <time>2021-08-22T09:41:03Z</time>
      </trkpt>
      <trkpt lat="45.80418" lon="5.79195">
        <ele>308.6</ele>
        <time>2021-08-22T09:41:04Z</time>
      </trkpt>
      <trkpt lat="45.80413" lon="5.79191">
        <ele>308.9</ele>
        <time>2021-08-22T09:41:05Z</time>
      </trkpt>
      <trkpt lat="45.80408" lon="5.79188">
        <ele>309.3</ele>
        <time>2021-08-22T09:41:06Z</time>
      </trkpt>
      <trkpt lat="45.80403" lon="5.79184">
        <ele>309.8</ele>
        <time>2021-08-22T09:41:08Z</time>
      </trkpt>
      <trkpt lat="45.80398" lon="5.7918">
        <ele>310.4</ele>
        <time>2021-08-22T09:41:09Z</time>
      </trkpt>
      <trkpt lat="45.80394" lon="5.79176">
        <ele>311</ele>
        <time>2021-08-22T09:41:11Z</time>
      </trkpt>
      <trkpt lat="45.80389" lon="5.79173">
        <ele>311.8</ele>
        <time>2021-08-22T09:42:24Z</time>
      </trkpt>
      <trkpt lat="45.80384" lon="5.79169">
        <ele>312.6</ele>
        <time>2021-08-22T09:42:25Z</time>
      </trkpt>
      <trkpt lat="45.80379" lon="5.79165">
        <ele>313.3</ele>
        <time>2021-08-22T09:42:26Z</time>
      </trkpt>
      <trkpt lat="45.80378" lon="5.79165">
        <ele>313.5</ele>
        <time>2021-08-22T09:42:28Z</time>
      </trkpt>
      <trkpt lat="45.80376" lon="5.79165">
        <ele>313.7</ele>
        <time>2021-08-22T09:42:29Z</time>
      </trkpt>
      <trkpt lat="45.80376" lon="5.79165">
        <ele>313.8</ele>
        <time>2021-08-22T09:42:30Z</time>
      </trkpt>
      <trkpt lat="45.80375" lon="5.79165">
        <ele>313.9</ele>
        <time>2021-08-22T09:42:32Z</time>
      </trkpt>
      <trkpt lat="45.80374" lon="5.79165">
        <ele>314</ele>
        <time>2021-08-22T09:42:33Z</time>
      </trkpt>
      <trkpt lat="45.80374" lon="5.79165">
        <ele>314</ele>
        <time>2021-08-22T09:42:34Z</time>
      </trkpt>
      <trkpt lat="45.80374" lon="5.79165">
        <ele>314</ele>
        <time>2021-08-22T09:42:35Z</time>
      </trkpt>
      <trkpt lat="45.80374" lon="5.79165">
        <ele>314.1</ele>
        <time>2021-08-22T09:42:36Z</time>
      </trkpt>
      <trkpt lat="45.80373" lon="5.79165">
        <ele>314.1</ele>
        <time>2021-08-22T09:42:38Z</time>
      </trkpt>
      <trkpt lat="45.80373" lon="5.79166">
        <ele>314.2</ele>
        <time>2021-08-22T09:42:40Z</time>
      </trkpt>
      <trkpt lat="45.80373" lon="5.79166">
        <ele>314.2</ele>
        <time>2021-08-22T09:42:42Z</time>
      </trkpt>
      <trkpt lat="45.8023" lon="5.79131">
        <ele>336.3</ele>
        <time>2021-08-22T09:47:16Z</time>
      </trkpt>
      <trkpt lat="45.80226" lon="5.79131">
        <ele>336.8</ele>
        <time>2021-08-22T09:47:17Z</time>
      </trkpt>
      <trkpt lat="45.80224" lon="5.79132">
        <ele>337.2</ele>
        <time>2021-08-22T09:47:19Z</time>
      </trkpt>
      <trkpt lat="45.80222" lon="5.79133">
        <ele>337.5</ele>
        <time>2021-08-22T09:47:20Z</time>
      </trkpt>
      <trkpt lat="45.80221" lon="5.79134">
        <ele>337.7</ele>
        <time>2021-08-22T09:47:22Z</time>
      </trkpt>
      <trkpt lat="45.80219" lon="5.79134">
        <ele>338</ele>
        <time>2021-08-22T09:47:23Z</time>
      </trkpt>
      <trkpt lat="45.80217" lon="5.79135">
        <ele>338.4</ele>
        <time>2021-08-22T09:47:25Z</time>
      </trkpt>
      <trkpt lat="45.80215" lon="5.79135">
        <ele>338.7</ele>
        <time>2021-08-22T09:47:26Z</time>
      </trkpt>
      <trkpt lat="45.80214" lon="5.79135">
        <ele>338.8</ele>
        <time>2021-08-22T09:47:28Z</time>
      </trkpt>
      <trkpt lat="45.80213" lon="5.79135">
        <ele>339</ele>
        <time>2021-08-22T09:47:29Z</time>
      </trkpt>
      <trkpt lat="45.80212" lon="5.79135">
        <ele>339.1</ele>
        <time>2021-08-22T09:47:30Z</time>
      </trkpt>
      <trkpt lat="45.8021" lon="5.79135">
        <ele>339.3</ele>
        <time>2021-08-22T09:47:31Z</time>
      </trkpt>
      <trkpt lat="45.80209" lon="5.79135">
        <ele>339.5</ele>
        <time>2021-08-22T09:47:33Z</time>
      </trkpt>
      <trkpt lat="45.80208" lon="5.79135">
        <ele>339.6</ele>
        <time>2021-08-22T09:47:35Z</time>
      </trkpt>
      <trkpt lat="45.80207" lon="5.79134">
        <ele>339.8</ele>
        <time>2021-08-22T09:47:37Z</time>
      </trkpt>
      <trkpt lat="45.80207" lon="5.79134">
        <ele>339.8</ele>
        <time>2021-08-22T09:47:38Z</time>
      </trkpt>
      <trkpt lat="45.80207" lon="5.79134">
        <ele>339.8</ele>
        <time>2021-08-22T09:47:39Z</time>
      </trkpt>
      <trkpt lat="45.80207" lon="5.79135">
        <ele>339.9</ele>
        <time>2021-08-22T09:47:40Z</time>
      </trkpt>
      <trkpt lat="45.80208" lon="5.79135">
        <ele>339.9</ele>
        <time>2021-08-22T09:47:42Z</time>
      </trkpt>
      <trkpt lat="45.80208" lon="5.79135">
        <ele>339.9</ele>
        <time>2021-08-22T09:47:43Z</time>
      </trkpt>
      <trkpt lat="45.80124" lon="5.79192">
        <ele>355</ele>
        <time>2021-08-22T09:50:30Z</time>
      </trkpt>
      <trkpt lat="45.80121" lon="5.79193">
        <ele>355.4</ele>
        <time>2021-08-22T09:50:32Z</time>
      </trkpt>
      <trkpt lat="45.8012" lon="5.79193">
        <ele>355.4</ele>
        <time>2021-08-22T09:50:33Z</time>
      </trkpt>
      <trkpt lat="45.8012" lon="5.79193">
        <ele>355.5</ele>
        <time>2021-08-22T09:50:34Z</time>
      </trkpt>
      <trkpt lat="45.80119" lon="5.79193">
        <ele>355.6</ele>
        <time>2021-08-22T09:50:36Z</time>
      </trkpt>
      <trkpt lat="45.80117" lon="5.79194">
        <ele>355.8</ele>
        <time>2021-08-22T09:50:37Z</time>
      </trkpt>
      <trkpt lat="45.80116" lon="5.79194">
        <ele>355.9</ele>
        <time>2021-08-22T09:50:39Z</time>
      </trkpt>
      <trkpt lat="45.80116" lon="5.79193">
        <ele>355.9</ele>
        <time>2021-08-22T09:50:40Z</time>
      </trkpt>
      <trkpt lat="45.80116" lon="5.79193">
        <ele>355.9</ele>
        <time>2021-08-22T09:50:42Z</time>
      </trkpt>
      <trkpt lat="45.80116" lon="5.79193">
        <ele>356</ele>
        <time>2021-08-22T09:50:43Z</time>
      </trkpt>
      <trkpt lat="45.80115" lon="5.79193">
        <ele>356.1</ele>
        <time>2021-08-22T09:50:45Z</time>
      </trkpt>
      <trkpt lat="45.80114" lon="5.79193">
        <ele>356.1</ele>
        <time>2021-08-22T09:50:46Z</time>
      </trkpt>
      <trkpt lat="45.80113" lon="5.79194">
        <ele>356.3</ele>
        <time>2021-08-22T09:50:48Z</time>
      </trkpt>
      <trkpt lat="45.8011" lon="5.79196">
        <ele>356.6</ele>
        <time>2021-08-22T09:50:51Z</time>
      </trkpt>
      <trkpt lat="45.80108" lon="5.79198">
        <ele>356.9</ele>
        <time>2021-08-22T09:50:52Z</time>
      </trkpt>
      <trkpt lat="45.80107" lon="5.79199">
        <ele>357</ele>
        <time>2021-08-22T09:50:54Z</time>
      </trkpt>
      <trkpt lat="45.80106" lon="5.792">
        <ele>357.2</ele>
        <time>2021-08-22T09:50:55Z</time>
      </trkpt>
      <trkpt lat="45.80105" lon="5.79201">
        <ele>357.3</ele>
        <time>2021-08-22T09:50:56Z</time>
      </trkpt>
      <trkpt lat="45.80104" lon="5.79201">
        <ele>357.4</ele>
        <time>2021-08-22T09:50:58Z</time>
      </trkpt>
      <trkpt lat="45.80104" lon="5.79202">
        <ele>357.5</ele>
        <time>2021-08-22T09:50:59Z</time>
      </trkpt>
      <trkpt lat="45.80103" lon="5.79202">
        <ele>357.5</ele>
        <time>2021-08-22T09:51:01Z</time>
      </trkpt>
      <trkpt lat="45.80103" lon="5.79202">
        <ele>357.5</ele>
        <time>2021-08-22T09:51:02Z</time>
      </trkpt>
      <trkpt lat="45.80103" lon="5.79202">
        <ele>357.5</ele>
        <time>2021-08-22T09:51:04Z</time>
      </trkpt>
      <trkpt lat="45.80103" lon="5.79203">
        <ele>357.6</ele>
        <time>2021-08-22T09:51:05Z</time>
      </trkpt>
      <trkpt lat="45.80103" lon="5.79204">
        <ele>357.7</ele>
        <time>2021-08-22T09:51:06Z</time>
      </trkpt>
      <trkpt lat="45.80102" lon="5.79206">
        <ele>357.8</ele>
        <time>2021-08-22T09:51:08Z</time>
      </trkpt>
      <trkpt lat="45.80102" lon="5.79207">
        <ele>357.9</ele>
        <time>2021-08-22T09:51:10Z</time>
      </trkpt>
      <trkpt lat="45.80102" lon="5.79208">
        <ele>358</ele>
        <time>2021-08-22T09:51:11Z</time>
      </trkpt>
      <trkpt lat="45.80102" lon="5.79208">
        <ele>358</ele>
        <time>2021-08-22T09:51:12Z</time>
      </trkpt>
      <trkpt lat="45.80102" lon="5.79209">
        <ele>358.1</ele>
        <time>2021-08-22T09:51:14Z</time>
      </trkpt>
      <trkpt lat="45.80102" lon="5.7921">
        <ele>358.1</ele>
        <time>2021-08-22T09:51:15Z</time>
      </trkpt>
      <trkpt lat="45.80102" lon="5.7921">
        <ele>358.2</ele>
        <time>2021-08-22T09:51:17Z</time>
      </trkpt>
      <trkpt lat="45.80102" lon="5.7921">
        <ele>358.2</ele>
        <time>2021-08-22T09:51:18Z</time>
      </trkpt>
      <trkpt lat="45.80102" lon="5.79211">
        <ele>358.2</ele>
        <time>2021-08-22T09:51:19Z</time>
      </trkpt>
      <trkpt lat="45.80102" lon="5.79211">
        <ele>358.2</ele>
        <time>2021-08-22T09:51:21Z</time>
      </trkpt>
      <trkpt lat="45.80103" lon="5.79211">
        <ele>358.2</ele>
        <time>2021-08-22T09:51:22Z</time>
      </trkpt>
      <trkpt lat="45.80103" lon="5.79211">
        <ele>358.3</ele>
        <time>2021-08-22T09:51:24Z</time>
      </trkpt>
      <trkpt lat="45.80103" lon="5.79211">
        <ele>358.3</ele>
        <time>2021-08-22T09:51:25Z</time>
      </trkpt>
      <trkpt lat="45.80103" lon="5.79211">
        <ele>358.3</ele>
        <time>2021-08-22T09:51:26Z</time>
      </trkpt>
      <trkpt lat="45.80103" lon="5.79211">
        <ele>358.3</ele>
        <time>2021-08-22T09:51:28Z</time>
      </trkpt>
      <trkpt lat="45.80103" lon="5.79212">
        <ele>358.3</ele>
        <time>2021-08-22T09:51:29Z</time>
      </trkpt>
      <trkpt lat="45.80103" lon="5.79212">
        <ele>358.3</ele>
        <time>2021-08-22T09:51:30Z</time>
      </trkpt>
      <trkpt lat="45.80103" lon="5.79212">
        <ele>358.3</ele>
        <time>2021-08-22T09:51:32Z</time>
      </trkpt>
      <trkpt lat="45.80103" lon="5.79212">
        <ele>358.3</ele>
        <time>2021-08-22T09:51:33Z</time>
      </trkpt>
      <trkpt lat="45.80103" lon="5.79212">
        <ele>358.3</ele>
        <time>2021-08-22T09:51:35Z</time>
      </trkpt>
      <trkpt lat="45.80103" lon="5.79212">
        <ele>358.3</ele>
        <time>2021-08-22T09:51:36Z</time>
      </trkpt>
      <trkpt lat="45.80102" lon="5.79213">
        <ele>358.5</ele>
        <time>2021-08-22T09:51:38Z</time>
      </trkpt>
      <trkpt lat="45.80101" lon="5.79215">
        <ele>358.7</ele>
        <time>2021-08-22T09:51:40Z</time>
      </trkpt>
      <trkpt lat="45.801" lon="5.79216">
        <ele>358.8</ele>
        <time>2021-08-22T09:51:42Z</time>
      </trkpt>
      <trkpt lat="45.80099" lon="5.79216">
        <ele>358.9</ele>
        <time>2021-08-22T09:51:44Z</time>
      </trkpt>
      <trkpt lat="45.80099" lon="5.79217">
        <ele>359</ele>
        <time>2021-08-22T09:51:46Z</time>
      </trkpt>
      <trkpt lat="45.80099" lon="5.79217">
        <ele>359.1</ele>
        <time>2021-08-22T09:51:47Z</time>
      </trkpt>
      <trkpt lat="45.80098" lon="5.79217">
        <ele>359.1</ele>
        <time>2021-08-22T09:51:48Z</time>
      </trkpt>
      <trkpt lat="45.80098" lon="5.79217">
        <ele>359.1</ele>
        <time>2021-08-22T09:51:50Z</time>
      </trkpt>
      <trkpt lat="45.80098" lon="5.79217">
        <ele>359.1</ele>
        <time>2021-08-22T09:51:51Z</time>
      </trkpt>
      <trkpt lat="45.80098" lon="5.79218">
        <ele>359.2</ele>
        <time>2021-08-22T09:51:52Z</time>
      </trkpt>
      <trkpt lat="45.80096" lon="5.79221">
        <ele>359.5</ele>
        <time>2021-08-22T09:51:54Z</time>
      </trkpt>
      <trkpt lat="45.80095" lon="5.79223">
        <ele>359.8</ele>
        <time>2021-08-22T09:51:55Z</time>
      </trkpt>
      <trkpt lat="45.80094" lon="5.79224">
        <ele>360</ele>
        <time>2021-08-22T09:51:56Z</time>
      </trkpt>
      <trkpt lat="45.80094" lon="5.79225">
        <ele>360.1</ele>
        <time>2021-08-22T09:51:57Z</time>
      </trkpt>
      <trkpt lat="45.80093" lon="5.79226">
        <ele>360.2</ele>
        <time>2021-08-22T09:51:59Z</time>
      </trkpt>
      <trkpt lat="45.80093" lon="5.79227">
        <ele>360.3</ele>
        <time>2021-08-22T09:52:00Z</time>
      </trkpt>
      <trkpt lat="45.80092" lon="5.79227">
        <ele>360.4</ele>
        <time>2021-08-22T09:52:01Z</time>
      </trkpt>
      <trkpt lat="45.80092" lon="5.79228">
        <ele>360.5</ele>
        <time>2021-08-22T09:52:03Z</time>
      </trkpt>
      <trkpt lat="45.80091" lon="5.79228">
        <ele>360.5</ele>
        <time>2021-08-22T09:52:04Z</time>
      </trkpt>
      <trkpt lat="45.80089" lon="5.7923">
        <ele>360.9</ele>
        <time>2021-08-22T09:52:06Z</time>
      </trkpt>
      <trkpt lat="45.80088" lon="5.79232">
        <ele>361.2</ele>
        <time>2021-08-22T09:52:07Z</time>
      </trkpt>
      <trkpt lat="45.80086" lon="5.79235">
        <ele>361.5</ele>
        <time>2021-08-22T09:52:09Z</time>
      </trkpt>
      <trkpt lat="45.80085" lon="5.79237">
        <ele>361.8</ele>
        <time>2021-08-22T09:52:10Z</time>
      </trkpt>
      <trkpt lat="45.80084" lon="5.79238">
        <ele>362</ele>
        <time>2021-08-22T09:52:11Z</time>
      </trkpt>
      <trkpt lat="45.80083" lon="5.79239">
        <ele>362.2</ele>
        <time>2021-08-22T09:52:13Z</time>
      </trkpt>
      <trkpt lat="45.80082" lon="5.7924">
        <ele>362.3</ele>
        <time>2021-08-22T09:52:14Z</time>
      </trkpt>
      <trkpt lat="45.80082" lon="5.7924">
        <ele>362.4</ele>
        <time>2021-08-22T09:52:15Z</time>
      </trkpt>
      <trkpt lat="45.80081" lon="5.7924">
        <ele>362.5</ele>
        <time>2021-08-22T09:52:17Z</time>
      </trkpt>
      <trkpt lat="45.80079" lon="5.7924">
        <ele>362.8</ele>
        <time>2021-08-22T09:52:18Z</time>
      </trkpt>
      <trkpt lat="45.80077" lon="5.7924">
        <ele>363.1</ele>
        <time>2021-08-22T09:52:20Z</time>
      </trkpt>
      <trkpt lat="45.80076" lon="5.79241">
        <ele>363.3</ele>
        <time>2021-08-22T09:52:21Z</time>
      </trkpt>
      <trkpt lat="45.80075" lon="5.79241">
        <ele>364.5</ele>
        <time>2021-08-22T09:52:22Z</time>
      </trkpt>
      <trkpt lat="45.80074" lon="5.79241">
        <ele>364.5</ele>
        <time>2021-08-22T09:52:24Z</time>
      </trkpt>
      <trkpt lat="45.80073" lon="5.79241">
        <ele>364.6</ele>
        <time>2021-08-22T09:52:25Z</time>
      </trkpt>
      <trkpt lat="45.80073" lon="5.79241">
        <ele>364.6</ele>
        <time>2021-08-22T09:52:26Z</time>
      </trkpt>
      <trkpt lat="45.80071" lon="5.7924">
        <ele>364.8</ele>
        <time>2021-08-22T09:52:28Z</time>
      </trkpt>
      <trkpt lat="45.8007" lon="5.79239">
        <ele>364.9</ele>
        <time>2021-08-22T09:52:29Z</time>
      </trkpt>
      <trkpt lat="45.80068" lon="5.79238">
        <ele>365</ele>
        <time>2021-08-22T09:52:31Z</time>
      </trkpt>
      <trkpt lat="45.80066" lon="5.79237">
        <ele>365.2</ele>
        <time>2021-08-22T09:52:32Z</time>
      </trkpt>
      <trkpt lat="45.80064" lon="5.79237">
        <ele>365.3</ele>
        <time>2021-08-22T09:52:33Z</time>
      </trkpt>
      <trkpt lat="45.80062" lon="5.79236">
        <ele>365.4</ele>
        <time>2021-08-22T09:52:35Z</time>
      </trkpt>
      <trkpt lat="45.80061" lon="5.79236">
        <ele>365.5</ele>
        <time>2021-08-22T09:52:36Z</time>
      </trkpt>
      <trkpt lat="45.8006" lon="5.79235">
        <ele>365.5</ele>
        <time>2021-08-22T09:52:37Z</time>
      </trkpt>
      <trkpt lat="45.8006" lon="5.79235">
        <ele>365.5</ele>
        <time>2021-08-22T09:52:39Z</time>
      </trkpt>
      <trkpt lat="45.80059" lon="5.79235">
        <ele>365.6</ele>
        <time>2021-08-22T09:52:40Z</time>
      </trkpt>
      <trkpt lat="45.80059" lon="5.79234">
        <ele>365.6</ele>
        <time>2021-08-22T09:52:41Z</time>
      </trkpt>
      <trkpt lat="45.80058" lon="5.79234">
        <ele>365.6</ele>
        <time>2021-08-22T09:52:43Z</time>
      </trkpt>
      <trkpt lat="45.80058" lon="5.79234">
        <ele>365.6</ele>
        <time>2021-08-22T09:52:45Z</time>
      </trkpt>
      <trkpt lat="45.80058" lon="5.79233">
        <ele>365.7</ele>
        <time>2021-08-22T09:52:47Z</time>
      </trkpt>
      <trkpt lat="45.80058" lon="5.79233">
        <ele>365.7</ele>
        <time>2021-08-22T09:52:48Z</time>
      </trkpt>
      <trkpt lat="45.80058" lon="5.79233">
        <ele>365.7</ele>
        <time>2021-08-22T09:52:50Z</time>
      </trkpt>
      <trkpt lat="45.80058" lon="5.79233">
        <ele>365.7</ele>
        <time>2021-08-22T09:52:51Z</time>
      </trkpt>
      <trkpt lat="45.80058" lon="5.79233">
        <ele>365.7</ele>
        <time>2021-08-22T09:52:52Z</time>
      </trkpt>
      <trkpt lat="45.80058" lon="5.79233">
        <ele>365.7</ele>
        <time>2021-08-22T09:52:53Z</time>
      </trkpt>
      <trkpt lat="45.80057" lon="5.79233">
        <ele>365.8</ele>
        <time>2021-08-22T09:52:55Z</time>
      </trkpt>
      <trkpt lat="45.80054" lon="5.79235">
        <ele>365.9</ele>
        <time>2021-08-22T09:52:57Z</time>
      </trkpt>
      <trkpt lat="45.8005" lon="5.79236">
        <ele>366.2</ele>
        <time>2021-08-22T09:52:59Z</time>
      </trkpt>
      <trkpt lat="45.80048" lon="5.79236">
        <ele>366.3</ele>
        <time>2021-08-22T09:53:00Z</time>
      </trkpt>
      <trkpt lat="45.80047" lon="5.79237">
        <ele>366.3</ele>
        <time>2021-08-22T09:53:01Z</time>
      </trkpt>
      <trkpt lat="45.8004" lon="5.79238">
        <ele>366.8</ele>
        <time>2021-08-22T09:53:03Z</time>
      </trkpt>
      <trkpt lat="45.80037" lon="5.79238">
        <ele>367</ele>
        <time>2021-08-22T09:53:05Z</time>
      </trkpt>
      <trkpt lat="45.80034" lon="5.79239">
        <ele>367.3</ele>
        <time>2021-08-22T09:53:06Z</time>
      </trkpt>
      <trkpt lat="45.8003" lon="5.7924">
        <ele>367.6</ele>
        <time>2021-08-22T09:53:07Z</time>
      </trkpt>
      <trkpt lat="45.80029" lon="5.7924">
        <ele>367.7</ele>
        <time>2021-08-22T09:53:08Z</time>
      </trkpt>
      <trkpt lat="45.80025" lon="5.79242">
        <ele>368</ele>
        <time>2021-08-22T09:53:10Z</time>
      </trkpt>
      <trkpt lat="45.80023" lon="5.79242">
        <ele>368.2</ele>
        <time>2021-08-22T09:53:11Z</time>
      </trkpt>
      <trkpt lat="45.80022" lon="5.79242">
        <ele>368.3</ele>
        <time>2021-08-22T09:53:12Z</time>
      </trkpt>
      <trkpt lat="45.8002" lon="5.79242">
        <ele>368.5</ele>
        <time>2021-08-22T09:53:13Z</time>
      </trkpt>
      <trkpt lat="45.80019" lon="5.79244">
        <ele>368.7</ele>
        <time>2021-08-22T09:53:15Z</time>
      </trkpt>
      <trkpt lat="45.80017" lon="5.79246">
        <ele>368.9</ele>
        <time>2021-08-22T09:53:16Z</time>
      </trkpt>
      <trkpt lat="45.80015" lon="5.79247">
        <ele>369.1</ele>
        <time>2021-08-22T09:53:18Z</time>
      </trkpt>
      <trkpt lat="45.80013" lon="5.79248">
        <ele>369.3</ele>
        <time>2021-08-22T09:53:20Z</time>
      </trkpt>
      <trkpt lat="45.80011" lon="5.79248">
        <ele>369.5</ele>
        <time>2021-08-22T09:53:22Z</time>
      </trkpt>
      <trkpt lat="45.80009" lon="5.79248">
        <ele>369.7</ele>
        <time>2021-08-22T09:53:23Z</time>
      </trkpt>
      <trkpt lat="45.80007" lon="5.79248">
        <ele>369.8</ele>
        <time>2021-08-22T09:53:24Z</time>
      </trkpt>
      <trkpt lat="45.80005" lon="5.79249">
        <ele>370.1</ele>
        <time>2021-08-22T09:53:26Z</time>
      </trkpt>
      <trkpt lat="45.80001" lon="5.79248">
        <ele>370.5</ele>
        <time>2021-08-22T09:53:28Z</time>
      </trkpt>
      <trkpt lat="45.8" lon="5.79248">
        <ele>370.5</ele>
        <time>2021-08-22T09:53:29Z</time>
      </trkpt>
      <trkpt lat="45.80001" lon="5.79248">
        <ele>370.6</ele>
        <time>2021-08-22T09:53:31Z</time>
      </trkpt>
      <trkpt lat="45.80001" lon="5.79248">
        <ele>370.6</ele>
        <time>2021-08-22T09:53:32Z</time>
      </trkpt>
      <trkpt lat="45.8" lon="5.79248">
        <ele>370.6</ele>
        <time>2021-08-22T09:53:33Z</time>
      </trkpt>
      <trkpt lat="45.8" lon="5.79249">
        <ele>370.7</ele>
        <time>2021-08-22T09:53:34Z</time>
      </trkpt>
      <trkpt lat="45.79999" lon="5.7925">
        <ele>370.8</ele>
        <time>2021-08-22T09:53:36Z</time>
      </trkpt>
      <trkpt lat="45.79998" lon="5.7925">
        <ele>370.9</ele>
        <time>2021-08-22T09:53:37Z</time>
      </trkpt>
      <trkpt lat="45.79998" lon="5.7925">
        <ele>370.9</ele>
        <time>2021-08-22T09:53:38Z</time>
      </trkpt>
      <trkpt lat="45.79992" lon="5.79252">
        <ele>371.5</ele>
        <time>2021-08-22T09:53:54Z</time>
      </trkpt>
      <trkpt lat="45.7999" lon="5.79252">
        <ele>371.7</ele>
        <time>2021-08-22T09:53:55Z</time>
      </trkpt>
      <trkpt lat="45.79988" lon="5.79253">
        <ele>371.8</ele>
        <time>2021-08-22T09:53:57Z</time>
      </trkpt>
      <trkpt lat="45.79987" lon="5.79253">
        <ele>371.9</ele>
        <time>2021-08-22T09:53:58Z</time>
      </trkpt>
      <trkpt lat="45.79987" lon="5.79253">
        <ele>372</ele>
        <time>2021-08-22T09:54:00Z</time>
      </trkpt>
      <trkpt lat="45.79986" lon="5.79253">
        <ele>372</ele>
        <time>2021-08-22T09:54:01Z</time>
      </trkpt>
      <trkpt lat="45.79986" lon="5.79253">
        <ele>372</ele>
        <time>2021-08-22T09:54:02Z</time>
      </trkpt>
      <trkpt lat="45.79986" lon="5.79253">
        <ele>372.1</ele>
        <time>2021-08-22T09:54:03Z</time>
      </trkpt>
      <trkpt lat="45.79985" lon="5.79253">
        <ele>372.1</ele>
        <time>2021-08-22T09:54:05Z</time>
      </trkpt>
      <trkpt lat="45.79985" lon="5.79253">
        <ele>372.1</ele>
        <time>2021-08-22T09:54:06Z</time>
      </trkpt>
      <trkpt lat="45.79985" lon="5.79253">
        <ele>372.1</ele>
        <time>2021-08-22T09:54:07Z</time>
      </trkpt>
      <trkpt lat="45.79985" lon="5.79253">
        <ele>372.1</ele>
        <time>2021-08-22T09:54:09Z</time>
      </trkpt>
      <trkpt lat="45.79985" lon="5.79253">
        <ele>372.1</ele>
        <time>2021-08-22T09:54:10Z</time>
      </trkpt>
      <trkpt lat="45.79985" lon="5.79253">
        <ele>372.1</ele>
        <time>2021-08-22T09:54:11Z</time>
      </trkpt>
      <trkpt lat="45.79985" lon="5.79253">
        <ele>372.2</ele>
        <time>2021-08-22T09:54:12Z</time>
      </trkpt>
      <trkpt lat="45.79984" lon="5.79254">
        <ele>372.2</ele>
        <time>2021-08-22T09:54:13Z</time>
      </trkpt>
      <trkpt lat="45.79983" lon="5.79256">
        <ele>372.4</ele>
        <time>2021-08-22T09:54:15Z</time>
      </trkpt>
      <trkpt lat="45.79981" lon="5.79257">
        <ele>372.6</ele>
        <time>2021-08-22T09:54:16Z</time>
      </trkpt>
      <trkpt lat="45.79977" lon="5.79258">
        <ele>372.9</ele>
        <time>2021-08-22T09:54:18Z</time>
      </trkpt>
      <trkpt lat="45.79974" lon="5.79259">
        <ele>373.2</ele>
        <time>2021-08-22T09:54:19Z</time>
      </trkpt>
      <trkpt lat="45.79973" lon="5.7926">
        <ele>373.3</ele>
        <time>2021-08-22T09:54:20Z</time>
      </trkpt>
      <trkpt lat="45.79969" lon="5.79261">
        <ele>373.6</ele>
        <time>2021-08-22T09:54:22Z</time>
      </trkpt>
      <trkpt lat="45.79967" lon="5.79261">
        <ele>373.8</ele>
        <time>2021-08-22T09:54:23Z</time>
      </trkpt>
      <trkpt lat="45.79965" lon="5.7926">
        <ele>373.9</ele>
        <time>2021-08-22T09:54:24Z</time>
      </trkpt>
      <trkpt lat="45.79962" lon="5.7926">
        <ele>374.2</ele>
        <time>2021-08-22T09:54:26Z</time>
      </trkpt>
      <trkpt lat="45.79957" lon="5.79259">
        <ele>374.6</ele>
        <time>2021-08-22T09:54:28Z</time>
      </trkpt>
      <trkpt lat="45.79955" lon="5.79259">
        <ele>374.8</ele>
        <time>2021-08-22T09:54:29Z</time>
      </trkpt>
      <trkpt lat="45.79954" lon="5.79259">
        <ele>374.8</ele>
        <time>2021-08-22T09:54:30Z</time>
      </trkpt>
      <trkpt lat="45.7995" lon="5.79259">
        <ele>375.2</ele>
        <time>2021-08-22T09:54:32Z</time>
      </trkpt>
      <trkpt lat="45.79946" lon="5.7926">
        <ele>375.5</ele>
        <time>2021-08-22T09:54:34Z</time>
      </trkpt>
      <trkpt lat="45.79942" lon="5.7926">
        <ele>375.8</ele>
        <time>2021-08-22T09:54:35Z</time>
      </trkpt>
      <trkpt lat="45.79938" lon="5.7926">
        <ele>376.1</ele>
        <time>2021-08-22T09:54:36Z</time>
      </trkpt>
      <trkpt lat="45.79934" lon="5.7926">
        <ele>376.4</ele>
        <time>2021-08-22T09:54:38Z</time>
      </trkpt>
      <trkpt lat="45.7993" lon="5.7926">
        <ele>376.7</ele>
        <time>2021-08-22T09:54:54Z</time>
      </trkpt>
      <trkpt lat="45.79926" lon="5.7926">
        <ele>377</ele>
        <time>2021-08-22T09:54:55Z</time>
      </trkpt>
      <trkpt lat="45.79922" lon="5.7926">
        <ele>377.3</ele>
        <time>2021-08-22T09:54:56Z</time>
      </trkpt>
      <trkpt lat="45.79918" lon="5.79262">
        <ele>377.7</ele>
        <time>2021-08-22T09:54:58Z</time>
      </trkpt>
      <trkpt lat="45.79915" lon="5.79265">
        <ele>378</ele>
        <time>2021-08-22T09:54:59Z</time>
      </trkpt>
      <trkpt lat="45.79912" lon="5.79268">
        <ele>378.3</ele>
        <time>2021-08-22T09:55:00Z</time>
      </trkpt>
      <trkpt lat="45.79912" lon="5.79269">
        <ele>378.4</ele>
        <time>2021-08-22T09:55:01Z</time>
      </trkpt>
      <trkpt lat="45.79911" lon="5.7927">
        <ele>378.4</ele>
        <time>2021-08-22T09:55:02Z</time>
      </trkpt>
      <trkpt lat="45.7991" lon="5.79271">
        <ele>378.5</ele>
        <time>2021-08-22T09:55:03Z</time>
      </trkpt>
      <trkpt lat="45.7991" lon="5.79271">
        <ele>378.6</ele>
        <time>2021-08-22T09:55:05Z</time>
      </trkpt>
      <trkpt lat="45.79909" lon="5.79272">
        <ele>378.6</ele>
        <time>2021-08-22T09:55:06Z</time>
      </trkpt>
      <trkpt lat="45.79908" lon="5.79273">
        <ele>378.7</ele>
        <time>2021-08-22T09:55:08Z</time>
      </trkpt>
      <trkpt lat="45.79907" lon="5.79273">
        <ele>378.8</ele>
        <time>2021-08-22T09:55:09Z</time>
      </trkpt>
      <trkpt lat="45.79906" lon="5.79273">
        <ele>378.9</ele>
        <time>2021-08-22T09:55:10Z</time>
      </trkpt>
      <trkpt lat="45.79899" lon="5.79276">
        <ele>379.6</ele>
        <time>2021-08-22T09:55:14Z</time>
      </trkpt>
      <trkpt lat="45.79897" lon="5.79277">
        <ele>379.7</ele>
        <time>2021-08-22T09:55:15Z</time>
      </trkpt>
      <trkpt lat="45.79895" lon="5.79277">
        <ele>379.8</ele>
        <time>2021-08-22T09:55:16Z</time>
      </trkpt>
      <trkpt lat="45.79892" lon="5.79278">
        <ele>380.1</ele>
        <time>2021-08-22T09:55:18Z</time>
      </trkpt>
      <trkpt lat="45.7989" lon="5.79279">
        <ele>380.3</ele>
        <time>2021-08-22T09:55:19Z</time>
      </trkpt>
      <trkpt lat="45.79889" lon="5.7928">
        <ele>380.4</ele>
        <time>2021-08-22T09:55:20Z</time>
      </trkpt>
      <trkpt lat="45.79885" lon="5.79282">
        <ele>380.7</ele>
        <time>2021-08-22T09:55:22Z</time>
      </trkpt>
      <trkpt lat="45.79882" lon="5.79283">
        <ele>381</ele>
        <time>2021-08-22T09:55:23Z</time>
      </trkpt>
      <trkpt lat="45.79881" lon="5.79283">
        <ele>381.1</ele>
        <time>2021-08-22T09:55:24Z</time>
      </trkpt>
      <trkpt lat="45.79878" lon="5.79284">
        <ele>381.3</ele>
        <time>2021-08-22T09:55:25Z</time>
      </trkpt>
      <trkpt lat="45.79877" lon="5.79284">
        <ele>381.4</ele>
        <time>2021-08-22T09:55:26Z</time>
      </trkpt>
      <trkpt lat="45.79875" lon="5.79285">
        <ele>381.6</ele>
        <time>2021-08-22T09:55:27Z</time>
      </trkpt>
      <trkpt lat="45.79873" lon="5.79285">
        <ele>381.7</ele>
        <time>2021-08-22T09:55:28Z</time>
      </trkpt>
      <trkpt lat="45.7987" lon="5.79286">
        <ele>381.9</ele>
        <time>2021-08-22T09:55:30Z</time>
      </trkpt>
      <trkpt lat="45.7987" lon="5.79286">
        <ele>382</ele>
        <time>2021-08-22T09:55:31Z</time>
      </trkpt>
      <trkpt lat="45.79867" lon="5.79288">
        <ele>382.3</ele>
        <time>2021-08-22T09:55:33Z</time>
      </trkpt>
      <trkpt lat="45.79864" lon="5.79286">
        <ele>382.5</ele>
        <time>2021-08-22T09:55:35Z</time>
      </trkpt>
      <trkpt lat="45.79862" lon="5.79286">
        <ele>382.6</ele>
        <time>2021-08-22T09:55:36Z</time>
      </trkpt>
      <trkpt lat="45.79862" lon="5.79286">
        <ele>382.7</ele>
        <time>2021-08-22T09:55:37Z</time>
      </trkpt>
      <trkpt lat="45.79862" lon="5.79286">
        <ele>382.7</ele>
        <time>2021-08-22T09:55:38Z</time>
      </trkpt>
      <trkpt lat="45.79859" lon="5.79287">
        <ele>382.9</ele>
        <time>2021-08-22T09:55:40Z</time>
      </trkpt>
      <trkpt lat="45.79858" lon="5.79288">
        <ele>383.1</ele>
        <time>2021-08-22T09:55:41Z</time>
      </trkpt>
      <trkpt lat="45.79855" lon="5.79289">
        <ele>383.3</ele>
        <time>2021-08-22T09:55:43Z</time>
      </trkpt>
      <trkpt lat="45.79853" lon="5.79289">
        <ele>383.5</ele>
        <time>2021-08-22T09:55:45Z</time>
      </trkpt>
      <trkpt lat="45.79852" lon="5.79289">
        <ele>383.6</ele>
        <time>2021-08-22T09:55:47Z</time>
      </trkpt>
      <trkpt lat="45.79852" lon="5.79289">
        <ele>383.6</ele>
        <time>2021-08-22T09:55:48Z</time>
      </trkpt>
      <trkpt lat="45.79848" lon="5.7929">
        <ele>384</ele>
        <time>2021-08-22T09:55:50Z</time>
      </trkpt>
      <trkpt lat="45.79845" lon="5.7929">
        <ele>384.3</ele>
        <time>2021-08-22T09:55:52Z</time>
      </trkpt>
      <trkpt lat="45.79844" lon="5.7929">
        <ele>384.4</ele>
        <time>2021-08-22T09:55:53Z</time>
      </trkpt>
      <trkpt lat="45.79841" lon="5.79291">
        <ele>384.7</ele>
        <time>2021-08-22T09:55:54Z</time>
      </trkpt>
      <trkpt lat="45.7984" lon="5.79292">
        <ele>384.8</ele>
        <time>2021-08-22T09:55:55Z</time>
      </trkpt>
      <trkpt lat="45.79837" lon="5.79294">
        <ele>385.1</ele>
        <time>2021-08-22T09:55:57Z</time>
      </trkpt>
      <trkpt lat="45.79836" lon="5.79295">
        <ele>385.2</ele>
        <time>2021-08-22T09:55:58Z</time>
      </trkpt>
      <trkpt lat="45.79833" lon="5.79296">
        <ele>385.5</ele>
        <time>2021-08-22T09:56:00Z</time>
      </trkpt>
      <trkpt lat="45.79831" lon="5.79297">
        <ele>385.8</ele>
        <time>2021-08-22T09:56:02Z</time>
      </trkpt>
      <trkpt lat="45.79829" lon="5.79298">
        <ele>386</ele>
        <time>2021-08-22T09:56:03Z</time>
      </trkpt>
      <trkpt lat="45.79828" lon="5.793">
        <ele>386.2</ele>
        <time>2021-08-22T09:56:04Z</time>
      </trkpt>
      <trkpt lat="45.79827" lon="5.79301">
        <ele>386.3</ele>
        <time>2021-08-22T09:56:05Z</time>
      </trkpt>
      <trkpt lat="45.79826" lon="5.79302">
        <ele>386.4</ele>
        <time>2021-08-22T09:56:06Z</time>
      </trkpt>
      <trkpt lat="45.79825" lon="5.79304">
        <ele>386.6</ele>
        <time>2021-08-22T09:56:08Z</time>
      </trkpt>
      <trkpt lat="45.79824" lon="5.79305">
        <ele>386.8</ele>
        <time>2021-08-22T09:56:09Z</time>
      </trkpt>
      <trkpt lat="45.79823" lon="5.79306">
        <ele>386.9</ele>
        <time>2021-08-22T09:56:10Z</time>
      </trkpt>
      <trkpt lat="45.79822" lon="5.79309">
        <ele>387.1</ele>
        <time>2021-08-22T09:56:12Z</time>
      </trkpt>
      <trkpt lat="45.79821" lon="5.7931">
        <ele>387.3</ele>
        <time>2021-08-22T09:56:14Z</time>
      </trkpt>
      <trkpt lat="45.7982" lon="5.79311">
        <ele>387.4</ele>
        <time>2021-08-22T09:56:15Z</time>
      </trkpt>
      <trkpt lat="45.79819" lon="5.79312">
        <ele>387.5</ele>
        <time>2021-08-22T09:56:16Z</time>
      </trkpt>
      <trkpt lat="45.79816" lon="5.79313">
        <ele>387.9</ele>
        <time>2021-08-22T09:56:18Z</time>
      </trkpt>
      <trkpt lat="45.79815" lon="5.79313">
        <ele>388</ele>
        <time>2021-08-22T09:56:19Z</time>
      </trkpt>
      <trkpt lat="45.79813" lon="5.79313">
        <ele>388.2</ele>
        <time>2021-08-22T09:56:20Z</time>
      </trkpt>
      <trkpt lat="45.7981" lon="5.79313">
        <ele>388.6</ele>
        <time>2021-08-22T09:56:22Z</time>
      </trkpt>
      <trkpt lat="45.79808" lon="5.79311">
        <ele>388.7</ele>
        <time>2021-08-22T09:56:23Z</time>
      </trkpt>
      <trkpt lat="45.79807" lon="5.7931">
        <ele>388.9</ele>
        <time>2021-08-22T09:56:24Z</time>
      </trkpt>
      <trkpt lat="45.79805" lon="5.79308">
        <ele>389.2</ele>
        <time>2021-08-22T09:56:26Z</time>
      </trkpt>
      <trkpt lat="45.79802" lon="5.79304">
        <ele>389.7</ele>
        <time>2021-08-22T09:56:28Z</time>
      </trkpt>
      <trkpt lat="45.79801" lon="5.79302">
        <ele>389.8</ele>
        <time>2021-08-22T09:56:29Z</time>
      </trkpt>
      <trkpt lat="45.79801" lon="5.79301">
        <ele>389.9</ele>
        <time>2021-08-22T09:56:30Z</time>
      </trkpt>
      <trkpt lat="45.79799" lon="5.79299">
        <ele>390.1</ele>
        <time>2021-08-22T09:56:32Z</time>
      </trkpt>
      <trkpt lat="45.79797" lon="5.79297">
        <ele>390.3</ele>
        <time>2021-08-22T09:56:33Z</time>
      </trkpt>
      <trkpt lat="45.79794" lon="5.79294">
        <ele>390.7</ele>
        <time>2021-08-22T09:56:35Z</time>
      </trkpt>
      <trkpt lat="45.79793" lon="5.79292">
        <ele>390.9</ele>
        <time>2021-08-22T09:56:36Z</time>
      </trkpt>
      <trkpt lat="45.79791" lon="5.79288">
        <ele>391.2</ele>
        <time>2021-08-22T09:56:38Z</time>
      </trkpt>
      <trkpt lat="45.7979" lon="5.79287">
        <ele>391.3</ele>
        <time>2021-08-22T09:56:40Z</time>
      </trkpt>
      <trkpt lat="45.7979" lon="5.79287">
        <ele>391.3</ele>
        <time>2021-08-22T09:56:41Z</time>
      </trkpt>
      <trkpt lat="45.79789" lon="5.79286">
        <ele>391.4</ele>
        <time>2021-08-22T09:56:43Z</time>
      </trkpt>
      <trkpt lat="45.79789" lon="5.79286">
        <ele>391.4</ele>
        <time>2021-08-22T09:56:44Z</time>
      </trkpt>
      <trkpt lat="45.79789" lon="5.79285">
        <ele>391.5</ele>
        <time>2021-08-22T09:56:46Z</time>
      </trkpt>
      <trkpt lat="45.79786" lon="5.79279">
        <ele>392</ele>
        <time>2021-08-22T09:56:50Z</time>
      </trkpt>
      <trkpt lat="45.79785" lon="5.79276">
        <ele>392.2</ele>
        <time>2021-08-22T09:56:51Z</time>
      </trkpt>
      <trkpt lat="45.79784" lon="5.79273">
        <ele>392.4</ele>
        <time>2021-08-22T09:56:52Z</time>
      </trkpt>
      <trkpt lat="45.79783" lon="5.79268">
        <ele>392.7</ele>
        <time>2021-08-22T09:56:54Z</time>
      </trkpt>
      <trkpt lat="45.79783" lon="5.79264">
        <ele>392.9</ele>
        <time>2021-08-22T09:56:56Z</time>
      </trkpt>
      <trkpt lat="45.79782" lon="5.79263">
        <ele>393</ele>
        <time>2021-08-22T09:56:57Z</time>
      </trkpt>
      <trkpt lat="45.7978" lon="5.79262">
        <ele>393.1</ele>
        <time>2021-08-22T09:56:59Z</time>
      </trkpt>
      <trkpt lat="45.7978" lon="5.79262">
        <ele>393.2</ele>
        <time>2021-08-22T09:57:00Z</time>
      </trkpt>
      <trkpt lat="45.79778" lon="5.79262">
        <ele>393.3</ele>
        <time>2021-08-22T09:57:02Z</time>
      </trkpt>
      <trkpt lat="45.79777" lon="5.79262">
        <ele>393.4</ele>
        <time>2021-08-22T09:57:03Z</time>
      </trkpt>
      <trkpt lat="45.79775" lon="5.79258">
        <ele>393.7</ele>
        <time>2021-08-22T09:57:05Z</time>
      </trkpt>
      <trkpt lat="45.79774" lon="5.79257">
        <ele>393.8</ele>
        <time>2021-08-22T09:57:06Z</time>
      </trkpt>
      <trkpt lat="45.79773" lon="5.79255">
        <ele>393.9</ele>
        <time>2021-08-22T09:57:07Z</time>
      </trkpt>
      <trkpt lat="45.79774" lon="5.79254">
        <ele>393.9</ele>
        <time>2021-08-22T09:57:09Z</time>
      </trkpt>
      <trkpt lat="45.79774" lon="5.79253">
        <ele>394</ele>
        <time>2021-08-22T09:57:11Z</time>
      </trkpt>
      <trkpt lat="45.79775" lon="5.79252">
        <ele>394.1</ele>
        <time>2021-08-22T09:57:12Z</time>
      </trkpt>
      <trkpt lat="45.79775" lon="5.79251">
        <ele>394.1</ele>
        <time>2021-08-22T09:57:14Z</time>
      </trkpt>
      <trkpt lat="45.79775" lon="5.79249">
        <ele>394.3</ele>
        <time>2021-08-22T09:57:16Z</time>
      </trkpt>
      <trkpt lat="45.7976" lon="5.79223">
        <ele>396.9</ele>
        <time>2021-08-22T09:57:34Z</time>
      </trkpt>
      <trkpt lat="45.79758" lon="5.79218">
        <ele>397.3</ele>
        <time>2021-08-22T09:57:35Z</time>
      </trkpt>
      <trkpt lat="45.79755" lon="5.79215">
        <ele>397.6</ele>
        <time>2021-08-22T09:57:36Z</time>
      </trkpt>
      <trkpt lat="45.79754" lon="5.79212">
        <ele>397.9</ele>
        <time>2021-08-22T09:57:38Z</time>
      </trkpt>
      <trkpt lat="45.79752" lon="5.79205">
        <ele>398.4</ele>
        <time>2021-08-22T09:57:40Z</time>
      </trkpt>
      <trkpt lat="45.79752" lon="5.792">
        <ele>398.7</ele>
        <time>2021-08-22T09:57:42Z</time>
      </trkpt>
      <trkpt lat="45.79753" lon="5.79196">
        <ele>399</ele>
        <time>2021-08-22T09:57:44Z</time>
      </trkpt>
      <trkpt lat="45.79754" lon="5.79194">
        <ele>399.1</ele>
        <time>2021-08-22T09:57:46Z</time>
      </trkpt>
      <trkpt lat="45.79753" lon="5.79193">
        <ele>399.2</ele>
        <time>2021-08-22T09:57:47Z</time>
      </trkpt>
      <trkpt lat="45.79753" lon="5.79192">
        <ele>399.3</ele>
        <time>2021-08-22T09:57:48Z</time>
      </trkpt>
      <trkpt lat="45.79752" lon="5.79191">
        <ele>399.4</ele>
        <time>2021-08-22T09:57:49Z</time>
      </trkpt>
      <trkpt lat="45.79752" lon="5.7919">
        <ele>399.5</ele>
        <time>2021-08-22T09:57:50Z</time>
      </trkpt>
      <trkpt lat="45.79752" lon="5.79188">
        <ele>399.5</ele>
        <time>2021-08-22T09:57:51Z</time>
      </trkpt>
      <trkpt lat="45.79751" lon="5.79186">
        <ele>399.7</ele>
        <time>2021-08-22T09:57:53Z</time>
      </trkpt>
      <trkpt lat="45.7975" lon="5.79185">
        <ele>399.8</ele>
        <time>2021-08-22T09:57:54Z</time>
      </trkpt>
      <trkpt lat="45.7975" lon="5.79183">
        <ele>399.8</ele>
        <time>2021-08-22T09:57:55Z</time>
      </trkpt>
      <trkpt lat="45.79749" lon="5.79182">
        <ele>399.9</ele>
        <time>2021-08-22T09:57:57Z</time>
      </trkpt>
      <trkpt lat="45.79749" lon="5.79181">
        <ele>400</ele>
        <time>2021-08-22T09:57:58Z</time>
      </trkpt>
      <trkpt lat="45.79749" lon="5.79176">
        <ele>400.3</ele>
        <time>2021-08-22T09:58:00Z</time>
      </trkpt>
      <trkpt lat="45.7975" lon="5.79174">
        <ele>400.3</ele>
        <time>2021-08-22T09:58:01Z</time>
      </trkpt>
      <trkpt lat="45.79751" lon="5.79171">
        <ele>400.5</ele>
        <time>2021-08-22T09:58:02Z</time>
      </trkpt>
      <trkpt lat="45.79754" lon="5.79167">
        <ele>400.8</ele>
        <time>2021-08-22T09:58:04Z</time>
      </trkpt>
      <trkpt lat="45.79755" lon="5.79165">
        <ele>400.9</ele>
        <time>2021-08-22T09:58:05Z</time>
      </trkpt>
      <trkpt lat="45.79756" lon="5.79163">
        <ele>401</ele>
        <time>2021-08-22T09:58:06Z</time>
      </trkpt>
      <trkpt lat="45.79756" lon="5.79159">
        <ele>401.2</ele>
        <time>2021-08-22T09:58:08Z</time>
      </trkpt>
      <trkpt lat="45.79755" lon="5.79157">
        <ele>401.3</ele>
        <time>2021-08-22T09:58:09Z</time>
      </trkpt>
      <trkpt lat="45.79754" lon="5.79156">
        <ele>401.4</ele>
        <time>2021-08-22T09:58:10Z</time>
      </trkpt>
      <trkpt lat="45.79752" lon="5.79153">
        <ele>401.6</ele>
        <time>2021-08-22T09:58:12Z</time>
      </trkpt>
      <trkpt lat="45.79751" lon="5.79151">
        <ele>401.7</ele>
        <time>2021-08-22T09:58:13Z</time>
      </trkpt>
      <trkpt lat="45.7975" lon="5.79149">
        <ele>401.8</ele>
        <time>2021-08-22T09:58:14Z</time>
      </trkpt>
      <trkpt lat="45.79749" lon="5.79148">
        <ele>401.9</ele>
        <time>2021-08-22T09:58:15Z</time>
      </trkpt>
      <trkpt lat="45.79748" lon="5.79148">
        <ele>401.9</ele>
        <time>2021-08-22T09:58:17Z</time>
      </trkpt>
      <trkpt lat="45.79748" lon="5.79147">
        <ele>401.9</ele>
        <time>2021-08-22T09:58:19Z</time>
      </trkpt>
      <trkpt lat="45.79746" lon="5.79143">
        <ele>402.2</ele>
        <time>2021-08-22T09:58:21Z</time>
      </trkpt>
      <trkpt lat="45.79745" lon="5.79139">
        <ele>402.4</ele>
        <time>2021-08-22T09:58:22Z</time>
      </trkpt>
      <trkpt lat="45.79745" lon="5.79138">
        <ele>402.4</ele>
        <time>2021-08-22T09:58:23Z</time>
      </trkpt>
      <trkpt lat="45.79741" lon="5.79134">
        <ele>402.9</ele>
        <time>2021-08-22T09:58:25Z</time>
      </trkpt>
      <trkpt lat="45.7974" lon="5.79133">
        <ele>403</ele>
        <time>2021-08-22T09:58:26Z</time>
      </trkpt>
      <trkpt lat="45.79738" lon="5.79131">
        <ele>403.2</ele>
        <time>2021-08-22T09:58:27Z</time>
      </trkpt>
      <trkpt lat="45.79735" lon="5.7913">
        <ele>403.4</ele>
        <time>2021-08-22T09:58:29Z</time>
      </trkpt>
      <trkpt lat="45.79732" lon="5.79127">
        <ele>403.7</ele>
        <time>2021-08-22T09:58:31Z</time>
      </trkpt>
      <trkpt lat="45.79731" lon="5.79128">
        <ele>403.9</ele>
        <time>2021-08-22T09:58:32Z</time>
      </trkpt>
      <trkpt lat="45.79729" lon="5.79129">
        <ele>404</ele>
        <time>2021-08-22T09:58:33Z</time>
      </trkpt>
      <trkpt lat="45.79728" lon="5.79129">
        <ele>404.1</ele>
        <time>2021-08-22T09:58:34Z</time>
      </trkpt>
      <trkpt lat="45.79726" lon="5.79131">
        <ele>404.3</ele>
        <time>2021-08-22T09:58:36Z</time>
      </trkpt>
      <trkpt lat="45.79725" lon="5.79133">
        <ele>404.5</ele>
        <time>2021-08-22T09:58:37Z</time>
      </trkpt>
      <trkpt lat="45.79724" lon="5.79134">
        <ele>404.6</ele>
        <time>2021-08-22T09:58:38Z</time>
      </trkpt>
      <trkpt lat="45.79723" lon="5.79135">
        <ele>404.7</ele>
        <time>2021-08-22T09:58:39Z</time>
      </trkpt>
      <trkpt lat="45.7972" lon="5.79136">
        <ele>404.9</ele>
        <time>2021-08-22T09:58:41Z</time>
      </trkpt>
      <trkpt lat="45.79719" lon="5.79138">
        <ele>405.1</ele>
        <time>2021-08-22T09:58:43Z</time>
      </trkpt>
      <trkpt lat="45.79719" lon="5.79139">
        <ele>405.2</ele>
        <time>2021-08-22T09:58:44Z</time>
      </trkpt>
      <trkpt lat="45.79718" lon="5.7914">
        <ele>405.2</ele>
        <time>2021-08-22T09:58:46Z</time>
      </trkpt>
      <trkpt lat="45.79718" lon="5.7914">
        <ele>405.3</ele>
        <time>2021-08-22T09:58:48Z</time>
      </trkpt>
      <trkpt lat="45.79717" lon="5.79141">
        <ele>405.4</ele>
        <time>2021-08-22T09:58:49Z</time>
      </trkpt>
      <trkpt lat="45.79716" lon="5.79142">
        <ele>405.5</ele>
        <time>2021-08-22T09:58:51Z</time>
      </trkpt>
      <trkpt lat="45.79706" lon="5.79143">
        <ele>406.4</ele>
        <time>2021-08-22T09:58:59Z</time>
      </trkpt>
      <trkpt lat="45.79703" lon="5.79143">
        <ele>406.7</ele>
        <time>2021-08-22T09:59:00Z</time>
      </trkpt>
      <trkpt lat="45.797" lon="5.79142">
        <ele>407</ele>
        <time>2021-08-22T09:59:02Z</time>
      </trkpt>
      <trkpt lat="45.79698" lon="5.79139">
        <ele>407.2</ele>
        <time>2021-08-22T09:59:03Z</time>
      </trkpt>
      <trkpt lat="45.79697" lon="5.79138">
        <ele>407.3</ele>
        <time>2021-08-22T09:59:04Z</time>
      </trkpt>
      <trkpt lat="45.79696" lon="5.79137">
        <ele>407.5</ele>
        <time>2021-08-22T09:59:05Z</time>
      </trkpt>
      <trkpt lat="45.79694" lon="5.79133">
        <ele>407.8</ele>
        <time>2021-08-22T09:59:07Z</time>
      </trkpt>
      <trkpt lat="45.79693" lon="5.79129">
        <ele>408</ele>
        <time>2021-08-22T09:59:08Z</time>
      </trkpt>
      <trkpt lat="45.79691" lon="5.79126">
        <ele>408.3</ele>
        <time>2021-08-22T09:59:10Z</time>
      </trkpt>
      <trkpt lat="45.79687" lon="5.79125">
        <ele>408.6</ele>
        <time>2021-08-22T09:59:12Z</time>
      </trkpt>
      <trkpt lat="45.79684" lon="5.79125">
        <ele>408.9</ele>
        <time>2021-08-22T09:59:14Z</time>
      </trkpt>
      <trkpt lat="45.79683" lon="5.79125">
        <ele>409</ele>
        <time>2021-08-22T09:59:15Z</time>
      </trkpt>
      <trkpt lat="45.79681" lon="5.79124">
        <ele>409.1</ele>
        <time>2021-08-22T09:59:16Z</time>
      </trkpt>
      <trkpt lat="45.79681" lon="5.79124">
        <ele>409.2</ele>
        <time>2021-08-22T09:59:17Z</time>
      </trkpt>
      <trkpt lat="45.79681" lon="5.79124">
        <ele>409.2</ele>
        <time>2021-08-22T09:59:18Z</time>
      </trkpt>
      <trkpt lat="45.79681" lon="5.79124">
        <ele>409.2</ele>
        <time>2021-08-22T09:59:20Z</time>
      </trkpt>
      <trkpt lat="45.79681" lon="5.79125">
        <ele>409.2</ele>
        <time>2021-08-22T09:59:21Z</time>
      </trkpt>
      <trkpt lat="45.7968" lon="5.79125">
        <ele>409.2</ele>
        <time>2021-08-22T09:59:22Z</time>
      </trkpt>
      <trkpt lat="45.7968" lon="5.79125">
        <ele>409.2</ele>
        <time>2021-08-22T09:59:23Z</time>
      </trkpt>
      <trkpt lat="45.7968" lon="5.79125">
        <ele>409.2</ele>
        <time>2021-08-22T09:59:24Z</time>
      </trkpt>
      <trkpt lat="45.79679" lon="5.79125">
        <ele>409.3</ele>
        <time>2021-08-22T09:59:26Z</time>
      </trkpt>
      <trkpt lat="45.79665" lon="5.79125">
        <ele>410</ele>
        <time>2021-08-22T09:59:36Z</time>
      </trkpt>
      <trkpt lat="45.7966" lon="5.79122">
        <ele>410.2</ele>
        <time>2021-08-22T09:59:38Z</time>
      </trkpt>
      <trkpt lat="45.79658" lon="5.79117">
        <ele>410.3</ele>
        <time>2021-08-22T09:59:39Z</time>
      </trkpt>
      <trkpt lat="45.79658" lon="5.79111">
        <ele>410.5</ele>
        <time>2021-08-22T09:59:41Z</time>
      </trkpt>
      <trkpt lat="45.79658" lon="5.79103">
        <ele>410.6</ele>
        <time>2021-08-22T09:59:43Z</time>
      </trkpt>
      <trkpt lat="45.79655" lon="5.79099">
        <ele>410.7</ele>
        <time>2021-08-22T09:59:45Z</time>
      </trkpt>
      <trkpt lat="45.79652" lon="5.79099">
        <ele>410.8</ele>
        <time>2021-08-22T09:59:46Z</time>
      </trkpt>
      <trkpt lat="45.79651" lon="5.79099">
        <ele>410.8</ele>
        <time>2021-08-22T09:59:47Z</time>
      </trkpt>
      <trkpt lat="45.79648" lon="5.79103">
        <ele>410.9</ele>
        <time>2021-08-22T09:59:49Z</time>
      </trkpt>
      <trkpt lat="45.79644" lon="5.79104">
        <ele>411</ele>
        <time>2021-08-22T09:59:50Z</time>
      </trkpt>
      <trkpt lat="45.79639" lon="5.79105">
        <ele>411</ele>
        <time>2021-08-22T09:59:51Z</time>
      </trkpt>
      <trkpt lat="45.79632" lon="5.79107">
        <ele>411.1</ele>
        <time>2021-08-22T09:59:52Z</time>
      </trkpt>
      <trkpt lat="45.79626" lon="5.79109">
        <ele>411.1</ele>
        <time>2021-08-22T09:59:54Z</time>
      </trkpt>
      <trkpt lat="45.79621" lon="5.79113">
        <ele>411.2</ele>
        <time>2021-08-22T09:59:55Z</time>
      </trkpt>
      <trkpt lat="45.79616" lon="5.79117">
        <ele>411.2</ele>
        <time>2021-08-22T09:59:57Z</time>
      </trkpt>
      <trkpt lat="45.7961" lon="5.79121">
        <ele>411.3</ele>
        <time>2021-08-22T09:59:59Z</time>
      </trkpt>
      <trkpt lat="45.79607" lon="5.79124">
        <ele>411.3</ele>
        <time>2021-08-22T10:00:00Z</time>
      </trkpt>
      <trkpt lat="45.79604" lon="5.79127">
        <ele>411.4</ele>
        <time>2021-08-22T10:00:01Z</time>
      </trkpt>
      <trkpt lat="45.79601" lon="5.7913">
        <ele>411.4</ele>
        <time>2021-08-22T10:00:03Z</time>
      </trkpt>
      <trkpt lat="45.79599" lon="5.79132">
        <ele>411.4</ele>
        <time>2021-08-22T10:00:04Z</time>
      </trkpt>
      <trkpt lat="45.79595" lon="5.79132">
        <ele>411.4</ele>
        <time>2021-08-22T10:00:06Z</time>
      </trkpt>
      <trkpt lat="45.79591" lon="5.79131">
        <ele>411.5</ele>
        <time>2021-08-22T10:00:07Z</time>
      </trkpt>
      <trkpt lat="45.79589" lon="5.79131">
        <ele>411.5</ele>
        <time>2021-08-22T10:00:08Z</time>
      </trkpt>
      <trkpt lat="45.79584" lon="5.7913">
        <ele>411.5</ele>
        <time>2021-08-22T10:00:10Z</time>
      </trkpt>
      <trkpt lat="45.79578" lon="5.79128">
        <ele>411.6</ele>
        <time>2021-08-22T10:00:11Z</time>
      </trkpt>
      <trkpt lat="45.79576" lon="5.79126">
        <ele>411.6</ele>
        <time>2021-08-22T10:00:12Z</time>
      </trkpt>
      <trkpt lat="45.79571" lon="5.79123">
        <ele>411.7</ele>
        <time>2021-08-22T10:00:14Z</time>
      </trkpt>
      <trkpt lat="45.79568" lon="5.7912">
        <ele>411.8</ele>
        <time>2021-08-22T10:00:15Z</time>
      </trkpt>
      <trkpt lat="45.79564" lon="5.79119">
        <ele>411.9</ele>
        <time>2021-08-22T10:00:17Z</time>
      </trkpt>
      <trkpt lat="45.79559" lon="5.79118">
        <ele>411.8</ele>
        <time>2021-08-22T10:00:18Z</time>
      </trkpt>
      <trkpt lat="45.79553" lon="5.79117">
        <ele>411.6</ele>
        <time>2021-08-22T10:00:19Z</time>
      </trkpt>
      <trkpt lat="45.79545" lon="5.79116">
        <ele>411.1</ele>
        <time>2021-08-22T10:00:21Z</time>
      </trkpt>
      <trkpt lat="45.7954" lon="5.79114">
        <ele>410.7</ele>
        <time>2021-08-22T10:00:23Z</time>
      </trkpt>
      <trkpt lat="45.79536" lon="5.79111">
        <ele>410.4</ele>
        <time>2021-08-22T10:00:24Z</time>
      </trkpt>
      <trkpt lat="45.79529" lon="5.79106">
        <ele>409.8</ele>
        <time>2021-08-22T10:00:26Z</time>
      </trkpt>
      <trkpt lat="45.79518" lon="5.79096">
        <ele>408.9</ele>
        <time>2021-08-22T10:00:27Z</time>
      </trkpt>
      <trkpt lat="45.79511" lon="5.7909">
        <ele>408.4</ele>
        <time>2021-08-22T10:00:28Z</time>
      </trkpt>
      <trkpt lat="45.79495" lon="5.79079">
        <ele>407.2</ele>
        <time>2021-08-22T10:00:30Z</time>
      </trkpt>
      <trkpt lat="45.7948" lon="5.79065">
        <ele>405.9</ele>
        <time>2021-08-22T10:00:32Z</time>
      </trkpt>
      <trkpt lat="45.79473" lon="5.79058">
        <ele>405.3</ele>
        <time>2021-08-22T10:00:33Z</time>
      </trkpt>
      <trkpt lat="45.79457" lon="5.79046">
        <ele>404.1</ele>
        <time>2021-08-22T10:00:35Z</time>
      </trkpt>
      <trkpt lat="45.7944" lon="5.79032">
        <ele>403.1</ele>
        <time>2021-08-22T10:00:37Z</time>
      </trkpt>
      <trkpt lat="45.79432" lon="5.79023">
        <ele>402.6</ele>
        <time>2021-08-22T10:00:38Z</time>
      </trkpt>
      <trkpt lat="45.79424" lon="5.79017">
        <ele>402.3</ele>
        <time>2021-08-22T10:00:39Z</time>
      </trkpt>
      <trkpt lat="45.79417" lon="5.79012">
        <ele>402.1</ele>
        <time>2021-08-22T10:00:40Z</time>
      </trkpt>
      <trkpt lat="45.79411" lon="5.79008">
        <ele>401.9</ele>
        <time>2021-08-22T10:00:41Z</time>
      </trkpt>
      <trkpt lat="45.79404" lon="5.79005">
        <ele>401.8</ele>
        <time>2021-08-22T10:00:42Z</time>
      </trkpt>
      <trkpt lat="45.7939" lon="5.78996">
        <ele>401.3</ele>
        <time>2021-08-22T10:00:44Z</time>
      </trkpt>
      <trkpt lat="45.79382" lon="5.78992">
        <ele>401.1</ele>
        <time>2021-08-22T10:00:45Z</time>
      </trkpt>
      <trkpt lat="45.79369" lon="5.78986">
        <ele>401.7</ele>
        <time>2021-08-22T10:00:47Z</time>
      </trkpt>
      <trkpt lat="45.79364" lon="5.78984">
        <ele>401.9</ele>
        <time>2021-08-22T10:00:48Z</time>
      </trkpt>
      <trkpt lat="45.79355" lon="5.78982">
        <ele>402.4</ele>
        <time>2021-08-22T10:00:50Z</time>
      </trkpt>
      <trkpt lat="45.79348" lon="5.78983">
        <ele>402.8</ele>
        <time>2021-08-22T10:00:52Z</time>
      </trkpt>
      <trkpt lat="45.79344" lon="5.78983">
        <ele>403</ele>
        <time>2021-08-22T10:00:53Z</time>
      </trkpt>
      <trkpt lat="45.79341" lon="5.78983">
        <ele>403.2</ele>
        <time>2021-08-22T10:00:54Z</time>
      </trkpt>
      <trkpt lat="45.79338" lon="5.78981">
        <ele>403.4</ele>
        <time>2021-08-22T10:00:55Z</time>
      </trkpt>
      <trkpt lat="45.79334" lon="5.78977">
        <ele>403.8</ele>
        <time>2021-08-22T10:00:57Z</time>
      </trkpt>
      <trkpt lat="45.79332" lon="5.78977">
        <ele>403.9</ele>
        <time>2021-08-22T10:00:58Z</time>
      </trkpt>
      <trkpt lat="45.79329" lon="5.78978">
        <ele>404</ele>
        <time>2021-08-22T10:01:00Z</time>
      </trkpt>
      <trkpt lat="45.79327" lon="5.78979">
        <ele>404.2</ele>
        <time>2021-08-22T10:01:01Z</time>
      </trkpt>
      <trkpt lat="45.79323" lon="5.78981">
        <ele>404.4</ele>
        <time>2021-08-22T10:01:03Z</time>
      </trkpt>
      <trkpt lat="45.7932" lon="5.7898">
        <ele>404.6</ele>
        <time>2021-08-22T10:01:04Z</time>
      </trkpt>
      <trkpt lat="45.79318" lon="5.78979">
        <ele>404.7</ele>
        <time>2021-08-22T10:01:05Z</time>
      </trkpt>
      <trkpt lat="45.79318" lon="5.78979">
        <ele>404.8</ele>
        <time>2021-08-22T10:01:06Z</time>
      </trkpt>
      <trkpt lat="45.79314" lon="5.78977">
        <ele>405</ele>
        <time>2021-08-22T10:01:08Z</time>
      </trkpt>
      <trkpt lat="45.79311" lon="5.78976">
        <ele>405.2</ele>
        <time>2021-08-22T10:01:09Z</time>
      </trkpt>
      <trkpt lat="45.7931" lon="5.78976">
        <ele>405.3</ele>
        <time>2021-08-22T10:01:10Z</time>
      </trkpt>
      <trkpt lat="45.79307" lon="5.78975">
        <ele>405.5</ele>
        <time>2021-08-22T10:01:11Z</time>
      </trkpt>
      <trkpt lat="45.79306" lon="5.78974">
        <ele>405.6</ele>
        <time>2021-08-22T10:01:12Z</time>
      </trkpt>
      <trkpt lat="45.79301" lon="5.78973">
        <ele>405.8</ele>
        <time>2021-08-22T10:01:14Z</time>
      </trkpt>
      <trkpt lat="45.793" lon="5.78972">
        <ele>405.9</ele>
        <time>2021-08-22T10:01:15Z</time>
      </trkpt>
      <trkpt lat="45.79297" lon="5.78969">
        <ele>406.2</ele>
        <time>2021-08-22T10:01:16Z</time>
      </trkpt>
      <trkpt lat="45.79296" lon="5.78967">
        <ele>406.2</ele>
        <time>2021-08-22T10:01:17Z</time>
      </trkpt>
      <trkpt lat="45.79293" lon="5.78965">
        <ele>406.4</ele>
        <time>2021-08-22T10:01:18Z</time>
      </trkpt>
      <trkpt lat="45.79289" lon="5.78961">
        <ele>406.6</ele>
        <time>2021-08-22T10:01:20Z</time>
      </trkpt>
      <trkpt lat="45.79287" lon="5.78959">
        <ele>406.7</ele>
        <time>2021-08-22T10:01:21Z</time>
      </trkpt>
      <trkpt lat="45.79286" lon="5.78958">
        <ele>406.8</ele>
        <time>2021-08-22T10:01:22Z</time>
      </trkpt>
      <trkpt lat="45.79284" lon="5.7896">
        <ele>406.8</ele>
        <time>2021-08-22T10:01:23Z</time>
      </trkpt>
      <trkpt lat="45.79281" lon="5.78962">
        <ele>407</ele>
        <time>2021-08-22T10:01:25Z</time>
      </trkpt>
      <trkpt lat="45.79278" lon="5.78961">
        <ele>407</ele>
        <time>2021-08-22T10:01:26Z</time>
      </trkpt>
      <trkpt lat="45.79273" lon="5.78961">
        <ele>407.2</ele>
        <time>2021-08-22T10:01:28Z</time>
      </trkpt>
      <trkpt lat="45.79269" lon="5.78963">
        <ele>407.3</ele>
        <time>2021-08-22T10:01:30Z</time>
      </trkpt>
      <trkpt lat="45.79268" lon="5.78964">
        <ele>407.3</ele>
        <time>2021-08-22T10:01:32Z</time>
      </trkpt>
      <trkpt lat="45.79267" lon="5.78964">
        <ele>407.3</ele>
        <time>2021-08-22T10:01:34Z</time>
      </trkpt>
      <trkpt lat="45.79267" lon="5.78965">
        <ele>407.3</ele>
        <time>2021-08-22T10:01:35Z</time>
      </trkpt>
      <trkpt lat="45.79265" lon="5.78965">
        <ele>407.4</ele>
        <time>2021-08-22T10:01:37Z</time>
      </trkpt>
      <trkpt lat="45.79264" lon="5.78966">
        <ele>407.4</ele>
        <time>2021-08-22T10:01:38Z</time>
      </trkpt>
      <trkpt lat="45.79262" lon="5.78967">
        <ele>407.4</ele>
        <time>2021-08-22T10:01:39Z</time>
      </trkpt>
      <trkpt lat="45.79258" lon="5.78968">
        <ele>407.5</ele>
        <time>2021-08-22T10:01:41Z</time>
      </trkpt>
      <trkpt lat="45.79257" lon="5.78969">
        <ele>407.5</ele>
        <time>2021-08-22T10:01:42Z</time>
      </trkpt>
      <trkpt lat="45.79257" lon="5.78969">
        <ele>407.5</ele>
        <time>2021-08-22T10:01:43Z</time>
      </trkpt>
      <trkpt lat="45.79256" lon="5.7897">
        <ele>407.5</ele>
        <time>2021-08-22T10:01:44Z</time>
      </trkpt>
      <trkpt lat="45.79255" lon="5.78971">
        <ele>407.5</ele>
        <time>2021-08-22T10:01:45Z</time>
      </trkpt>
      <trkpt lat="45.79253" lon="5.78973">
        <ele>407.5</ele>
        <time>2021-08-22T10:01:47Z</time>
      </trkpt>
      <trkpt lat="45.79252" lon="5.78973">
        <ele>407.5</ele>
        <time>2021-08-22T10:01:48Z</time>
      </trkpt>
      <trkpt lat="45.79247" lon="5.78975">
        <ele>407.4</ele>
        <time>2021-08-22T10:01:50Z</time>
      </trkpt>
      <trkpt lat="45.79244" lon="5.78977">
        <ele>407.4</ele>
        <time>2021-08-22T10:01:51Z</time>
      </trkpt>
      <trkpt lat="45.79238" lon="5.78974">
        <ele>407.2</ele>
        <time>2021-08-22T10:01:53Z</time>
      </trkpt>
      <trkpt lat="45.7923" lon="5.78969">
        <ele>407</ele>
        <time>2021-08-22T10:01:55Z</time>
      </trkpt>
      <trkpt lat="45.79223" lon="5.78965">
        <ele>406.8</ele>
        <time>2021-08-22T10:01:57Z</time>
      </trkpt>
      <trkpt lat="45.79219" lon="5.78963">
        <ele>406.6</ele>
        <time>2021-08-22T10:01:58Z</time>
      </trkpt>
      <trkpt lat="45.79211" lon="5.78961">
        <ele>406.4</ele>
        <time>2021-08-22T10:02:00Z</time>
      </trkpt>
      <trkpt lat="45.79204" lon="5.7896">
        <ele>406.2</ele>
        <time>2021-08-22T10:02:02Z</time>
      </trkpt>
      <trkpt lat="45.79199" lon="5.78961">
        <ele>406</ele>
        <time>2021-08-22T10:02:04Z</time>
      </trkpt>
      <trkpt lat="45.79195" lon="5.78964">
        <ele>405.9</ele>
        <time>2021-08-22T10:02:05Z</time>
      </trkpt>
      <trkpt lat="45.79193" lon="5.78964">
        <ele>405.8</ele>
        <time>2021-08-22T10:02:06Z</time>
      </trkpt>
      <trkpt lat="45.79188" lon="5.78965">
        <ele>405.7</ele>
        <time>2021-08-22T10:02:08Z</time>
      </trkpt>
      <trkpt lat="45.79183" lon="5.78964">
        <ele>405.5</ele>
        <time>2021-08-22T10:02:10Z</time>
      </trkpt>
      <trkpt lat="45.79178" lon="5.78961">
        <ele>405.3</ele>
        <time>2021-08-22T10:02:12Z</time>
      </trkpt>
      <trkpt lat="45.79176" lon="5.7896">
        <ele>405.2</ele>
        <time>2021-08-22T10:02:13Z</time>
      </trkpt>
      <trkpt lat="45.7917" lon="5.7896">
        <ele>405.1</ele>
        <time>2021-08-22T10:02:15Z</time>
      </trkpt>
      <trkpt lat="45.79167" lon="5.78958">
        <ele>405</ele>
        <time>2021-08-22T10:02:16Z</time>
      </trkpt>
      <trkpt lat="45.79166" lon="5.78958">
        <ele>405</ele>
        <time>2021-08-22T10:02:17Z</time>
      </trkpt>
      <trkpt lat="45.79164" lon="5.78957">
        <ele>405</ele>
        <time>2021-08-22T10:02:18Z</time>
      </trkpt>
      <trkpt lat="45.79156" lon="5.78955">
        <ele>404.9</ele>
        <time>2021-08-22T10:02:20Z</time>
      </trkpt>
      <trkpt lat="45.79153" lon="5.78955">
        <ele>404.9</ele>
        <time>2021-08-22T10:02:21Z</time>
      </trkpt>
      <trkpt lat="45.79144" lon="5.78953">
        <ele>404.8</ele>
        <time>2021-08-22T10:02:23Z</time>
      </trkpt>
      <trkpt lat="45.79141" lon="5.78953">
        <ele>404.8</ele>
        <time>2021-08-22T10:02:24Z</time>
      </trkpt>
      <trkpt lat="45.79134" lon="5.78953">
        <ele>404.7</ele>
        <time>2021-08-22T10:02:26Z</time>
      </trkpt>
      <trkpt lat="45.79128" lon="5.7895">
        <ele>404.7</ele>
        <time>2021-08-22T10:02:28Z</time>
      </trkpt>
      <trkpt lat="45.79125" lon="5.78948">
        <ele>404.8</ele>
        <time>2021-08-22T10:02:29Z</time>
      </trkpt>
      <trkpt lat="45.79122" lon="5.78947">
        <ele>404.8</ele>
        <time>2021-08-22T10:02:30Z</time>
      </trkpt>
      <trkpt lat="45.79119" lon="5.78944">
        <ele>404.9</ele>
        <time>2021-08-22T10:02:32Z</time>
      </trkpt>
      <trkpt lat="45.79117" lon="5.78943">
        <ele>404.9</ele>
        <time>2021-08-22T10:02:34Z</time>
      </trkpt>
      <trkpt lat="45.79115" lon="5.78943">
        <ele>404.9</ele>
        <time>2021-08-22T10:02:35Z</time>
      </trkpt>
      <trkpt lat="45.79113" lon="5.78942">
        <ele>405</ele>
        <time>2021-08-22T10:02:37Z</time>
      </trkpt>
      <trkpt lat="45.79111" lon="5.78942">
        <ele>405.1</ele>
        <time>2021-08-22T10:02:38Z</time>
      </trkpt>
      <trkpt lat="45.79106" lon="5.78943">
        <ele>405.2</ele>
        <time>2021-08-22T10:02:40Z</time>
      </trkpt>
      <trkpt lat="45.79104" lon="5.78944">
        <ele>405.3</ele>
        <time>2021-08-22T10:02:41Z</time>
      </trkpt>
      <trkpt lat="45.79101" lon="5.78942">
        <ele>405.4</ele>
        <time>2021-08-22T10:02:43Z</time>
      </trkpt>
      <trkpt lat="45.791" lon="5.78942">
        <ele>405.4</ele>
        <time>2021-08-22T10:02:44Z</time>
      </trkpt>
      <trkpt lat="45.791" lon="5.78943">
        <ele>405.4</ele>
        <time>2021-08-22T10:02:45Z</time>
      </trkpt>
      <trkpt lat="45.79099" lon="5.78943">
        <ele>405.5</ele>
        <time>2021-08-22T10:02:46Z</time>
      </trkpt>
      <trkpt lat="45.79098" lon="5.78944">
        <ele>405.5</ele>
        <time>2021-08-22T10:02:48Z</time>
      </trkpt>
      <trkpt lat="45.79098" lon="5.78944">
        <ele>405.5</ele>
        <time>2021-08-22T10:02:49Z</time>
      </trkpt>
      <trkpt lat="45.79098" lon="5.78944">
        <ele>405.5</ele>
        <time>2021-08-22T10:02:50Z</time>
      </trkpt>
      <trkpt lat="45.79097" lon="5.78944">
        <ele>405.5</ele>
        <time>2021-08-22T10:02:52Z</time>
      </trkpt>
      <trkpt lat="45.79097" lon="5.78944">
        <ele>405.5</ele>
        <time>2021-08-22T10:02:53Z</time>
      </trkpt>
      <trkpt lat="45.78999" lon="5.78967">
        <ele>414.8</ele>
        <time>2021-08-22T10:05:10Z</time>
      </trkpt>
      <trkpt lat="45.78996" lon="5.78968">
        <ele>415.1</ele>
        <time>2021-08-22T10:05:11Z</time>
      </trkpt>
      <trkpt lat="45.7899" lon="5.78969">
        <ele>415.7</ele>
        <time>2021-08-22T10:05:13Z</time>
      </trkpt>
      <trkpt lat="45.78986" lon="5.78969">
        <ele>416.1</ele>
        <time>2021-08-22T10:05:14Z</time>
      </trkpt>
      <trkpt lat="45.78982" lon="5.78969">
        <ele>416.5</ele>
        <time>2021-08-22T10:05:16Z</time>
      </trkpt>
      <trkpt lat="45.78978" lon="5.78968">
        <ele>416.9</ele>
        <time>2021-08-22T10:05:17Z</time>
      </trkpt>
      <trkpt lat="45.78974" lon="5.78968">
        <ele>417.3</ele>
        <time>2021-08-22T10:05:19Z</time>
      </trkpt>
      <trkpt lat="45.7897" lon="5.78968">
        <ele>417.7</ele>
        <time>2021-08-22T10:05:20Z</time>
      </trkpt>
      <trkpt lat="45.78966" lon="5.78967">
        <ele>418</ele>
        <time>2021-08-22T10:05:22Z</time>
      </trkpt>
      <trkpt lat="45.78962" lon="5.78967">
        <ele>418.4</ele>
        <time>2021-08-22T10:05:23Z</time>
      </trkpt>
      <trkpt lat="45.78958" lon="5.78967">
        <ele>418.8</ele>
        <time>2021-08-22T10:05:25Z</time>
      </trkpt>
      <trkpt lat="45.78954" lon="5.78967">
        <ele>419.1</ele>
        <time>2021-08-22T10:06:00Z</time>
      </trkpt>
      <trkpt lat="45.7895" lon="5.78966">
        <ele>419.4</ele>
        <time>2021-08-22T10:06:01Z</time>
      </trkpt>
      <trkpt lat="45.78946" lon="5.78966">
        <ele>419.8</ele>
        <time>2021-08-22T10:06:02Z</time>
      </trkpt>
      <trkpt lat="45.78942" lon="5.78966">
        <ele>420.1</ele>
        <time>2021-08-22T10:06:03Z</time>
      </trkpt>
      <trkpt lat="45.7894" lon="5.78966">
        <ele>420.3</ele>
        <time>2021-08-22T10:06:05Z</time>
      </trkpt>
      <trkpt lat="45.78939" lon="5.78965">
        <ele>420.3</ele>
        <time>2021-08-22T10:06:06Z</time>
      </trkpt>
      <trkpt lat="45.78939" lon="5.78965">
        <ele>420.4</ele>
        <time>2021-08-22T10:06:07Z</time>
      </trkpt>
      <trkpt lat="45.78938" lon="5.78964">
        <ele>420.4</ele>
        <time>2021-08-22T10:06:09Z</time>
      </trkpt>
      <trkpt lat="45.78938" lon="5.78963">
        <ele>420.5</ele>
        <time>2021-08-22T10:06:10Z</time>
      </trkpt>
      <trkpt lat="45.78937" lon="5.78963">
        <ele>420.5</ele>
        <time>2021-08-22T10:06:11Z</time>
      </trkpt>
      <trkpt lat="45.78936" lon="5.78962">
        <ele>420.6</ele>
        <time>2021-08-22T10:06:13Z</time>
      </trkpt>
      <trkpt lat="45.78935" lon="5.78962">
        <ele>420.7</ele>
        <time>2021-08-22T10:06:14Z</time>
      </trkpt>
      <trkpt lat="45.78934" lon="5.78963">
        <ele>420.8</ele>
        <time>2021-08-22T10:06:15Z</time>
      </trkpt>
      <trkpt lat="45.78928" lon="5.78961">
        <ele>421.2</ele>
        <time>2021-08-22T10:06:17Z</time>
      </trkpt>
      <trkpt lat="45.78924" lon="5.7896">
        <ele>421.5</ele>
        <time>2021-08-22T10:06:18Z</time>
      </trkpt>
      <trkpt lat="45.78919" lon="5.78958">
        <ele>421.7</ele>
        <time>2021-08-22T10:06:19Z</time>
      </trkpt>
      <trkpt lat="45.78915" lon="5.78956">
        <ele>422</ele>
        <time>2021-08-22T10:06:45Z</time>
      </trkpt>
      <trkpt lat="45.78911" lon="5.78955">
        <ele>422.3</ele>
        <time>2021-08-22T10:06:47Z</time>
      </trkpt>
      <trkpt lat="45.78906" lon="5.78953">
        <ele>422.6</ele>
        <time>2021-08-22T10:06:48Z</time>
      </trkpt>
      <trkpt lat="45.78902" lon="5.78951">
        <ele>422.9</ele>
        <time>2021-08-22T10:06:49Z</time>
      </trkpt>
      <trkpt lat="45.78897" lon="5.7895">
        <ele>423.2</ele>
        <time>2021-08-22T10:06:50Z</time>
      </trkpt>
      <trkpt lat="45.78895" lon="5.78947">
        <ele>423.3</ele>
        <time>2021-08-22T10:06:52Z</time>
      </trkpt>
      <trkpt lat="45.78894" lon="5.78947">
        <ele>423.4</ele>
        <time>2021-08-22T10:06:53Z</time>
      </trkpt>
      <trkpt lat="45.78894" lon="5.78946">
        <ele>423.4</ele>
        <time>2021-08-22T10:06:55Z</time>
      </trkpt>
      <trkpt lat="45.78893" lon="5.78945">
        <ele>423.5</ele>
        <time>2021-08-22T10:06:57Z</time>
      </trkpt>
      <trkpt lat="45.78892" lon="5.78944">
        <ele>423.5</ele>
        <time>2021-08-22T10:06:58Z</time>
      </trkpt>
      <trkpt lat="45.78891" lon="5.78944">
        <ele>423.6</ele>
        <time>2021-08-22T10:06:59Z</time>
      </trkpt>
      <trkpt lat="45.78891" lon="5.78943">
        <ele>423.7</ele>
        <time>2021-08-22T10:07:00Z</time>
      </trkpt>
      <trkpt lat="45.7889" lon="5.78942">
        <ele>423.7</ele>
        <time>2021-08-22T10:07:02Z</time>
      </trkpt>
      <trkpt lat="45.78873" lon="5.78936">
        <ele>424.9</ele>
        <time>2021-08-22T10:07:24Z</time>
      </trkpt>
      <trkpt lat="45.7887" lon="5.78932">
        <ele>425.1</ele>
        <time>2021-08-22T10:07:25Z</time>
      </trkpt>
      <trkpt lat="45.78867" lon="5.78928">
        <ele>425.4</ele>
        <time>2021-08-22T10:07:27Z</time>
      </trkpt>
      <trkpt lat="45.78865" lon="5.78925">
        <ele>425.6</ele>
        <time>2021-08-22T10:07:28Z</time>
      </trkpt>
      <trkpt lat="45.78864" lon="5.78924">
        <ele>425.6</ele>
        <time>2021-08-22T10:07:29Z</time>
      </trkpt>
      <trkpt lat="45.78861" lon="5.78924">
        <ele>425.8</ele>
        <time>2021-08-22T10:07:30Z</time>
      </trkpt>
      <trkpt lat="45.7886" lon="5.78923">
        <ele>425.9</ele>
        <time>2021-08-22T10:07:32Z</time>
      </trkpt>
      <trkpt lat="45.78858" lon="5.78922">
        <ele>425.9</ele>
        <time>2021-08-22T10:07:33Z</time>
      </trkpt>
      <trkpt lat="45.78857" lon="5.78922">
        <ele>426</ele>
        <time>2021-08-22T10:07:34Z</time>
      </trkpt>
      <trkpt lat="45.78855" lon="5.78922">
        <ele>426.1</ele>
        <time>2021-08-22T10:07:35Z</time>
      </trkpt>
      <trkpt lat="45.78854" lon="5.78921">
        <ele>426.2</ele>
        <time>2021-08-22T10:07:36Z</time>
      </trkpt>
      <trkpt lat="45.78851" lon="5.78921">
        <ele>426.4</ele>
        <time>2021-08-22T10:07:38Z</time>
      </trkpt>
      <trkpt lat="45.78849" lon="5.7892">
        <ele>426.4</ele>
        <time>2021-08-22T10:07:39Z</time>
      </trkpt>
      <trkpt lat="45.78847" lon="5.7892">
        <ele>426.5</ele>
        <time>2021-08-22T10:07:41Z</time>
      </trkpt>
      <trkpt lat="45.78846" lon="5.7892">
        <ele>426.6</ele>
        <time>2021-08-22T10:07:43Z</time>
      </trkpt>
      <trkpt lat="45.78844" lon="5.7892">
        <ele>426.7</ele>
        <time>2021-08-22T10:07:44Z</time>
      </trkpt>
      <trkpt lat="45.78842" lon="5.78919">
        <ele>426.8</ele>
        <time>2021-08-22T10:07:45Z</time>
      </trkpt>
      <trkpt lat="45.78841" lon="5.78919">
        <ele>426.9</ele>
        <time>2021-08-22T10:07:46Z</time>
      </trkpt>
      <trkpt lat="45.78839" lon="5.78919">
        <ele>427</ele>
        <time>2021-08-22T10:08:05Z</time>
      </trkpt>
      <trkpt lat="45.78838" lon="5.78919">
        <ele>427.1</ele>
        <time>2021-08-22T10:08:06Z</time>
      </trkpt>
      <trkpt lat="45.78836" lon="5.78918">
        <ele>427.2</ele>
        <time>2021-08-22T10:08:07Z</time>
      </trkpt>
      <trkpt lat="45.78832" lon="5.78919">
        <ele>427.3</ele>
        <time>2021-08-22T10:08:08Z</time>
      </trkpt>
      <trkpt lat="45.78831" lon="5.78919">
        <ele>427.4</ele>
        <time>2021-08-22T10:08:09Z</time>
      </trkpt>
      <trkpt lat="45.78829" lon="5.78917">
        <ele>427.5</ele>
        <time>2021-08-22T10:08:11Z</time>
      </trkpt>
      <trkpt lat="45.78827" lon="5.78916">
        <ele>427.6</ele>
        <time>2021-08-22T10:08:12Z</time>
      </trkpt>
      <trkpt lat="45.78825" lon="5.78913">
        <ele>427.8</ele>
        <time>2021-08-22T10:08:14Z</time>
      </trkpt>
      <trkpt lat="45.78824" lon="5.78912">
        <ele>427.8</ele>
        <time>2021-08-22T10:08:15Z</time>
      </trkpt>
      <trkpt lat="45.78822" lon="5.78911">
        <ele>427.9</ele>
        <time>2021-08-22T10:08:16Z</time>
      </trkpt>
      <trkpt lat="45.7882" lon="5.78909">
        <ele>428</ele>
        <time>2021-08-22T10:08:17Z</time>
      </trkpt>
      <trkpt lat="45.78819" lon="5.78908">
        <ele>428.1</ele>
        <time>2021-08-22T10:08:19Z</time>
      </trkpt>
      <trkpt lat="45.78817" lon="5.78907">
        <ele>428.1</ele>
        <time>2021-08-22T10:08:20Z</time>
      </trkpt>
      <trkpt lat="45.78816" lon="5.78907">
        <ele>428.2</ele>
        <time>2021-08-22T10:08:21Z</time>
      </trkpt>
      <trkpt lat="45.78814" lon="5.78907">
        <ele>428.3</ele>
        <time>2021-08-22T10:08:23Z</time>
      </trkpt>
      <trkpt lat="45.78812" lon="5.78907">
        <ele>428.4</ele>
        <time>2021-08-22T10:08:24Z</time>
      </trkpt>
      <trkpt lat="45.7881" lon="5.78907">
        <ele>428.4</ele>
        <time>2021-08-22T10:08:25Z</time>
      </trkpt>
      <trkpt lat="45.78808" lon="5.78906">
        <ele>428.5</ele>
        <time>2021-08-22T10:08:27Z</time>
      </trkpt>
      <trkpt lat="45.78807" lon="5.78906">
        <ele>428.5</ele>
        <time>2021-08-22T10:08:28Z</time>
      </trkpt>
      <trkpt lat="45.78806" lon="5.78905">
        <ele>428.6</ele>
        <time>2021-08-22T10:08:29Z</time>
      </trkpt>
      <trkpt lat="45.78804" lon="5.78905">
        <ele>428.7</ele>
        <time>2021-08-22T10:08:30Z</time>
      </trkpt>
      <trkpt lat="45.78801" lon="5.78905">
        <ele>428.8</ele>
        <time>2021-08-22T10:08:31Z</time>
      </trkpt>
      <trkpt lat="45.788" lon="5.78904">
        <ele>428.8</ele>
        <time>2021-08-22T10:08:32Z</time>
      </trkpt>
      <trkpt lat="45.78798" lon="5.78905">
        <ele>428.9</ele>
        <time>2021-08-22T10:08:33Z</time>
      </trkpt>
      <trkpt lat="45.78795" lon="5.78904">
        <ele>429</ele>
        <time>2021-08-22T10:08:35Z</time>
      </trkpt>
      <trkpt lat="45.78793" lon="5.78903">
        <ele>429.1</ele>
        <time>2021-08-22T10:08:36Z</time>
      </trkpt>
      <trkpt lat="45.78791" lon="5.78903">
        <ele>429.2</ele>
        <time>2021-08-22T10:08:37Z</time>
      </trkpt>
      <trkpt lat="45.7879" lon="5.78902">
        <ele>429.3</ele>
        <time>2021-08-22T10:08:39Z</time>
      </trkpt>
      <trkpt lat="45.78788" lon="5.78902">
        <ele>429.3</ele>
        <time>2021-08-22T10:08:40Z</time>
      </trkpt>
      <trkpt lat="45.78787" lon="5.78901">
        <ele>429.4</ele>
        <time>2021-08-22T10:08:41Z</time>
      </trkpt>
      <trkpt lat="45.78783" lon="5.78901">
        <ele>429.5</ele>
        <time>2021-08-22T10:08:43Z</time>
      </trkpt>
      <trkpt lat="45.7878" lon="5.789">
        <ele>429.7</ele>
        <time>2021-08-22T10:08:44Z</time>
      </trkpt>
      <trkpt lat="45.78777" lon="5.78899">
        <ele>429.8</ele>
        <time>2021-08-22T10:08:45Z</time>
      </trkpt>
      <trkpt lat="45.78774" lon="5.78897">
        <ele>429.9</ele>
        <time>2021-08-22T10:08:47Z</time>
      </trkpt>
      <trkpt lat="45.78771" lon="5.78895">
        <ele>430.1</ele>
        <time>2021-08-22T10:08:48Z</time>
      </trkpt>
      <trkpt lat="45.78768" lon="5.78894">
        <ele>430.1</ele>
        <time>2021-08-22T10:08:49Z</time>
      </trkpt>
      <trkpt lat="45.78765" lon="5.78894">
        <ele>430.2</ele>
        <time>2021-08-22T10:08:51Z</time>
      </trkpt>
      <trkpt lat="45.78761" lon="5.78893">
        <ele>430.3</ele>
        <time>2021-08-22T10:08:52Z</time>
      </trkpt>
      <trkpt lat="45.7876" lon="5.78893">
        <ele>430.4</ele>
        <time>2021-08-22T10:08:53Z</time>
      </trkpt>
      <trkpt lat="45.78755" lon="5.78893">
        <ele>430.4</ele>
        <time>2021-08-22T10:08:55Z</time>
      </trkpt>
      <trkpt lat="45.78749" lon="5.78892">
        <ele>430.5</ele>
        <time>2021-08-22T10:08:57Z</time>
      </trkpt>
      <trkpt lat="45.78746" lon="5.78891">
        <ele>430.6</ele>
        <time>2021-08-22T10:08:58Z</time>
      </trkpt>
      <trkpt lat="45.78741" lon="5.78892">
        <ele>430.8</ele>
        <time>2021-08-22T10:09:00Z</time>
      </trkpt>
      <trkpt lat="45.78738" lon="5.78892">
        <ele>430.9</ele>
        <time>2021-08-22T10:09:01Z</time>
      </trkpt>
      <trkpt lat="45.78735" lon="5.78892">
        <ele>431</ele>
        <time>2021-08-22T10:09:03Z</time>
      </trkpt>
      <trkpt lat="45.78732" lon="5.78892">
        <ele>431.2</ele>
        <time>2021-08-22T10:09:04Z</time>
      </trkpt>
      <trkpt lat="45.78729" lon="5.78892">
        <ele>431.3</ele>
        <time>2021-08-22T10:09:05Z</time>
      </trkpt>
      <trkpt lat="45.78728" lon="5.78892">
        <ele>431.3</ele>
        <time>2021-08-22T10:09:06Z</time>
      </trkpt>
      <trkpt lat="45.78724" lon="5.78891">
        <ele>431.5</ele>
        <time>2021-08-22T10:09:08Z</time>
      </trkpt>
      <trkpt lat="45.78723" lon="5.78891">
        <ele>431.5</ele>
        <time>2021-08-22T10:09:09Z</time>
      </trkpt>
      <trkpt lat="45.7872" lon="5.78891">
        <ele>431.6</ele>
        <time>2021-08-22T10:09:10Z</time>
      </trkpt>
      <trkpt lat="45.78717" lon="5.78891">
        <ele>431.7</ele>
        <time>2021-08-22T10:09:12Z</time>
      </trkpt>
      <trkpt lat="45.78714" lon="5.78891">
        <ele>431.8</ele>
        <time>2021-08-22T10:09:13Z</time>
      </trkpt>
      <trkpt lat="45.78713" lon="5.78891">
        <ele>431.9</ele>
        <time>2021-08-22T10:09:14Z</time>
      </trkpt>
      <trkpt lat="45.78709" lon="5.78891">
        <ele>431.9</ele>
        <time>2021-08-22T10:09:15Z</time>
      </trkpt>
      <trkpt lat="45.78704" lon="5.7889">
        <ele>432.1</ele>
        <time>2021-08-22T10:09:17Z</time>
      </trkpt>
      <trkpt lat="45.787" lon="5.78891">
        <ele>432.1</ele>
        <time>2021-08-22T10:09:18Z</time>
      </trkpt>
      <trkpt lat="45.78699" lon="5.78891">
        <ele>432.1</ele>
        <time>2021-08-22T10:09:19Z</time>
      </trkpt>
      <trkpt lat="45.78694" lon="5.78892">
        <ele>432.2</ele>
        <time>2021-08-22T10:09:20Z</time>
      </trkpt>
      <trkpt lat="45.78691" lon="5.78892">
        <ele>432.3</ele>
        <time>2021-08-22T10:09:21Z</time>
      </trkpt>
      <trkpt lat="45.78684" lon="5.78892">
        <ele>432.4</ele>
        <time>2021-08-22T10:09:23Z</time>
      </trkpt>
      <trkpt lat="45.78679" lon="5.78892">
        <ele>432.5</ele>
        <time>2021-08-22T10:09:24Z</time>
      </trkpt>
      <trkpt lat="45.78673" lon="5.78892">
        <ele>432.6</ele>
        <time>2021-08-22T10:09:26Z</time>
      </trkpt>
      <trkpt lat="45.78668" lon="5.78891">
        <ele>432.6</ele>
        <time>2021-08-22T10:09:27Z</time>
      </trkpt>
      <trkpt lat="45.7866" lon="5.78891">
        <ele>432.8</ele>
        <time>2021-08-22T10:09:29Z</time>
      </trkpt>
      <trkpt lat="45.78652" lon="5.78891">
        <ele>432.8</ele>
        <time>2021-08-22T10:09:31Z</time>
      </trkpt>
      <trkpt lat="45.7865" lon="5.78892">
        <ele>432.8</ele>
        <time>2021-08-22T10:09:32Z</time>
      </trkpt>
      <trkpt lat="45.78647" lon="5.78892">
        <ele>432.8</ele>
        <time>2021-08-22T10:09:33Z</time>
      </trkpt>
      <trkpt lat="45.78645" lon="5.78893">
        <ele>432.9</ele>
        <time>2021-08-22T10:09:34Z</time>
      </trkpt>
      <trkpt lat="45.78641" lon="5.78893">
        <ele>432.9</ele>
        <time>2021-08-22T10:09:36Z</time>
      </trkpt>
      <trkpt lat="45.78639" lon="5.78894">
        <ele>432.8</ele>
        <time>2021-08-22T10:09:37Z</time>
      </trkpt>
      <trkpt lat="45.78633" lon="5.78894">
        <ele>432.8</ele>
        <time>2021-08-22T10:09:39Z</time>
      </trkpt>
      <trkpt lat="45.7863" lon="5.78894">
        <ele>432.8</ele>
        <time>2021-08-22T10:09:40Z</time>
      </trkpt>
      <trkpt lat="45.78625" lon="5.78894">
        <ele>432.8</ele>
        <time>2021-08-22T10:09:41Z</time>
      </trkpt>
      <trkpt lat="45.7862" lon="5.78894">
        <ele>432.8</ele>
        <time>2021-08-22T10:09:43Z</time>
      </trkpt>
      <trkpt lat="45.78615" lon="5.78894">
        <ele>432.8</ele>
        <time>2021-08-22T10:09:44Z</time>
      </trkpt>
      <trkpt lat="45.78608" lon="5.78891">
        <ele>432.8</ele>
        <time>2021-08-22T10:09:46Z</time>
      </trkpt>
      <trkpt lat="45.78604" lon="5.78889">
        <ele>432.8</ele>
        <time>2021-08-22T10:09:47Z</time>
      </trkpt>
      <trkpt lat="45.786" lon="5.78887">
        <ele>432.8</ele>
        <time>2021-08-22T10:09:48Z</time>
      </trkpt>
      <trkpt lat="45.78594" lon="5.78885">
        <ele>432.7</ele>
        <time>2021-08-22T10:09:50Z</time>
      </trkpt>
      <trkpt lat="45.78589" lon="5.78884">
        <ele>432.7</ele>
        <time>2021-08-22T10:09:52Z</time>
      </trkpt>
      <trkpt lat="45.78585" lon="5.78884">
        <ele>432.7</ele>
        <time>2021-08-22T10:09:53Z</time>
      </trkpt>
      <trkpt lat="45.7858" lon="5.78883">
        <ele>432.7</ele>
        <time>2021-08-22T10:09:54Z</time>
      </trkpt>
      <trkpt lat="45.78575" lon="5.78882">
        <ele>432.7</ele>
        <time>2021-08-22T10:09:56Z</time>
      </trkpt>
      <trkpt lat="45.78571" lon="5.78881">
        <ele>432.7</ele>
        <time>2021-08-22T10:09:57Z</time>
      </trkpt>
      <trkpt lat="45.78566" lon="5.78879">
        <ele>432.7</ele>
        <time>2021-08-22T10:09:59Z</time>
      </trkpt>
      <trkpt lat="45.78562" lon="5.78877">
        <ele>432.7</ele>
        <time>2021-08-22T10:10:00Z</time>
      </trkpt>
      <trkpt lat="45.78558" lon="5.78876">
        <ele>432.7</ele>
        <time>2021-08-22T10:10:01Z</time>
      </trkpt>
      <trkpt lat="45.78553" lon="5.78874">
        <ele>432.8</ele>
        <time>2021-08-22T10:10:02Z</time>
      </trkpt>
      <trkpt lat="45.78547" lon="5.78874">
        <ele>432.8</ele>
        <time>2021-08-22T10:10:04Z</time>
      </trkpt>
      <trkpt lat="45.78543" lon="5.78873">
        <ele>432.9</ele>
        <time>2021-08-22T10:10:06Z</time>
      </trkpt>
      <trkpt lat="45.7854" lon="5.78872">
        <ele>432.9</ele>
        <time>2021-08-22T10:10:07Z</time>
      </trkpt>
      <trkpt lat="45.78536" lon="5.78872">
        <ele>433</ele>
        <time>2021-08-22T10:10:08Z</time>
      </trkpt>
      <trkpt lat="45.78531" lon="5.78872">
        <ele>433.1</ele>
        <time>2021-08-22T10:10:10Z</time>
      </trkpt>
      <trkpt lat="45.78528" lon="5.78872">
        <ele>433.2</ele>
        <time>2021-08-22T10:10:11Z</time>
      </trkpt>
      <trkpt lat="45.78526" lon="5.78872">
        <ele>433.2</ele>
        <time>2021-08-22T10:10:12Z</time>
      </trkpt>
      <trkpt lat="45.78522" lon="5.78872">
        <ele>433.3</ele>
        <time>2021-08-22T10:10:14Z</time>
      </trkpt>
      <trkpt lat="45.78518" lon="5.78871">
        <ele>433.4</ele>
        <time>2021-08-22T10:10:15Z</time>
      </trkpt>
      <trkpt lat="45.78514" lon="5.7887">
        <ele>433.5</ele>
        <time>2021-08-22T10:10:16Z</time>
      </trkpt>
      <trkpt lat="45.78511" lon="5.78869">
        <ele>433.6</ele>
        <time>2021-08-22T10:10:18Z</time>
      </trkpt>
      <trkpt lat="45.78507" lon="5.78869">
        <ele>433.7</ele>
        <time>2021-08-22T10:10:19Z</time>
      </trkpt>
      <trkpt lat="45.78505" lon="5.78868">
        <ele>433.8</ele>
        <time>2021-08-22T10:10:20Z</time>
      </trkpt>
      <trkpt lat="45.78502" lon="5.78867">
        <ele>433.8</ele>
        <time>2021-08-22T10:10:21Z</time>
      </trkpt>
      <trkpt lat="45.78499" lon="5.78867">
        <ele>433.9</ele>
        <time>2021-08-22T10:10:22Z</time>
      </trkpt>
      <trkpt lat="45.78493" lon="5.78866">
        <ele>434.1</ele>
        <time>2021-08-22T10:10:24Z</time>
      </trkpt>
      <trkpt lat="45.78489" lon="5.78866">
        <ele>434.2</ele>
        <time>2021-08-22T10:10:26Z</time>
      </trkpt>
      <trkpt lat="45.78485" lon="5.78865">
        <ele>434.3</ele>
        <time>2021-08-22T10:10:28Z</time>
      </trkpt>
      <trkpt lat="45.78483" lon="5.78865">
        <ele>434.4</ele>
        <time>2021-08-22T10:10:29Z</time>
      </trkpt>
      <trkpt lat="45.78482" lon="5.78865">
        <ele>434.4</ele>
        <time>2021-08-22T10:10:30Z</time>
      </trkpt>
      <trkpt lat="45.78478" lon="5.78864">
        <ele>434.6</ele>
        <time>2021-08-22T10:10:32Z</time>
      </trkpt>
      <trkpt lat="45.78475" lon="5.78863">
        <ele>434.6</ele>
        <time>2021-08-22T10:10:33Z</time>
      </trkpt>
      <trkpt lat="45.78473" lon="5.78863">
        <ele>434.7</ele>
        <time>2021-08-22T10:10:34Z</time>
      </trkpt>
      <trkpt lat="45.78469" lon="5.78862">
        <ele>434.8</ele>
        <time>2021-08-22T10:10:36Z</time>
      </trkpt>
      <trkpt lat="45.78466" lon="5.78861">
        <ele>434.9</ele>
        <time>2021-08-22T10:10:37Z</time>
      </trkpt>
      <trkpt lat="45.78462" lon="5.7886">
        <ele>435.1</ele>
        <time>2021-08-22T10:10:38Z</time>
      </trkpt>
      <trkpt lat="45.78459" lon="5.78859">
        <ele>435.2</ele>
        <time>2021-08-22T10:10:40Z</time>
      </trkpt>
      <trkpt lat="45.78456" lon="5.78858">
        <ele>435.3</ele>
        <time>2021-08-22T10:10:41Z</time>
      </trkpt>
      <trkpt lat="45.78453" lon="5.78857">
        <ele>435.3</ele>
        <time>2021-08-22T10:10:42Z</time>
      </trkpt>
      <trkpt lat="45.78449" lon="5.78855">
        <ele>435.5</ele>
        <time>2021-08-22T10:10:44Z</time>
      </trkpt>
      <trkpt lat="45.78446" lon="5.78854">
        <ele>435.6</ele>
        <time>2021-08-22T10:10:45Z</time>
      </trkpt>
      <trkpt lat="45.78442" lon="5.78852">
        <ele>435.7</ele>
        <time>2021-08-22T10:10:46Z</time>
      </trkpt>
      <trkpt lat="45.78441" lon="5.78851">
        <ele>435.7</ele>
        <time>2021-08-22T10:10:47Z</time>
      </trkpt>
      <trkpt lat="45.78437" lon="5.7885">
        <ele>435.8</ele>
        <time>2021-08-22T10:10:48Z</time>
      </trkpt>
      <trkpt lat="45.78436" lon="5.7885">
        <ele>435.9</ele>
        <time>2021-08-22T10:10:49Z</time>
      </trkpt>
      <trkpt lat="45.78433" lon="5.78849">
        <ele>435.9</ele>
        <time>2021-08-22T10:10:50Z</time>
      </trkpt>
      <trkpt lat="45.78429" lon="5.78847">
        <ele>436</ele>
        <time>2021-08-22T10:10:52Z</time>
      </trkpt>
      <trkpt lat="45.78427" lon="5.78847">
        <ele>436.1</ele>
        <time>2021-08-22T10:10:53Z</time>
      </trkpt>
      <trkpt lat="45.78425" lon="5.78846">
        <ele>436.1</ele>
        <time>2021-08-22T10:10:54Z</time>
      </trkpt>
      <trkpt lat="45.78422" lon="5.78845">
        <ele>436.2</ele>
        <time>2021-08-22T10:10:56Z</time>
      </trkpt>
      <trkpt lat="45.78418" lon="5.78844">
        <ele>436.3</ele>
        <time>2021-08-22T10:10:57Z</time>
      </trkpt>
      <trkpt lat="45.78415" lon="5.78844">
        <ele>436.3</ele>
        <time>2021-08-22T10:10:58Z</time>
      </trkpt>
      <trkpt lat="45.78414" lon="5.78843">
        <ele>436.4</ele>
        <time>2021-08-22T10:10:59Z</time>
      </trkpt>
      <trkpt lat="45.7841" lon="5.78842">
        <ele>436.5</ele>
        <time>2021-08-22T10:11:01Z</time>
      </trkpt>
      <trkpt lat="45.78406" lon="5.78841">
        <ele>436.6</ele>
        <time>2021-08-22T10:11:02Z</time>
      </trkpt>
      <trkpt lat="45.78403" lon="5.7884">
        <ele>436.6</ele>
        <time>2021-08-22T10:11:03Z</time>
      </trkpt>
      <trkpt lat="45.78399" lon="5.78839">
        <ele>436.7</ele>
        <time>2021-08-22T10:11:05Z</time>
      </trkpt>
      <trkpt lat="45.78394" lon="5.7884">
        <ele>436.8</ele>
        <time>2021-08-22T10:11:06Z</time>
      </trkpt>
      <trkpt lat="45.7839" lon="5.78839">
        <ele>437</ele>
        <time>2021-08-22T10:11:08Z</time>
      </trkpt>
      <trkpt lat="45.78386" lon="5.78839">
        <ele>437</ele>
        <time>2021-08-22T10:11:09Z</time>
      </trkpt>
      <trkpt lat="45.78383" lon="5.78839">
        <ele>437.1</ele>
        <time>2021-08-22T10:11:10Z</time>
      </trkpt>
      <trkpt lat="45.78377" lon="5.78839">
        <ele>437.2</ele>
        <time>2021-08-22T10:11:12Z</time>
      </trkpt>
      <trkpt lat="45.78372" lon="5.78838">
        <ele>437.4</ele>
        <time>2021-08-22T10:11:14Z</time>
      </trkpt>
      <trkpt lat="45.78367" lon="5.78837">
        <ele>437.5</ele>
        <time>2021-08-22T10:11:15Z</time>
      </trkpt>
      <trkpt lat="45.7836" lon="5.78835">
        <ele>437.6</ele>
        <time>2021-08-22T10:11:17Z</time>
      </trkpt>
      <trkpt lat="45.78356" lon="5.78834">
        <ele>437.7</ele>
        <time>2021-08-22T10:11:18Z</time>
      </trkpt>
      <trkpt lat="45.78353" lon="5.78833">
        <ele>437.8</ele>
        <time>2021-08-22T10:11:19Z</time>
      </trkpt>
      <trkpt lat="45.7835" lon="5.78832">
        <ele>437.8</ele>
        <time>2021-08-22T10:11:20Z</time>
      </trkpt>
      <trkpt lat="45.78343" lon="5.7883">
        <ele>438</ele>
        <time>2021-08-22T10:11:22Z</time>
      </trkpt>
      <trkpt lat="45.78338" lon="5.78829">
        <ele>438</ele>
        <time>2021-08-22T10:11:24Z</time>
      </trkpt>
      <trkpt lat="45.78334" lon="5.78829">
        <ele>438.1</ele>
        <time>2021-08-22T10:11:25Z</time>
      </trkpt>
      <trkpt lat="45.78331" lon="5.78829">
        <ele>438.2</ele>
        <time>2021-08-22T10:11:26Z</time>
      </trkpt>
      <trkpt lat="45.78328" lon="5.78829">
        <ele>438.2</ele>
        <time>2021-08-22T10:11:27Z</time>
      </trkpt>
      <trkpt lat="45.78323" lon="5.78828">
        <ele>438.3</ele>
        <time>2021-08-22T10:11:29Z</time>
      </trkpt>
      <trkpt lat="45.7832" lon="5.78827">
        <ele>438.4</ele>
        <time>2021-08-22T10:11:30Z</time>
      </trkpt>
      <trkpt lat="45.78319" lon="5.78827">
        <ele>438.4</ele>
        <time>2021-08-22T10:11:31Z</time>
      </trkpt>
      <trkpt lat="45.78315" lon="5.78825">
        <ele>438.4</ele>
        <time>2021-08-22T10:11:33Z</time>
      </trkpt>
      <trkpt lat="45.78312" lon="5.78823">
        <ele>438.5</ele>
        <time>2021-08-22T10:11:34Z</time>
      </trkpt>
      <trkpt lat="45.78311" lon="5.78823">
        <ele>438.5</ele>
        <time>2021-08-22T10:11:35Z</time>
      </trkpt>
      <trkpt lat="45.78306" lon="5.7882">
        <ele>438.5</ele>
        <time>2021-08-22T10:11:37Z</time>
      </trkpt>
      <trkpt lat="45.783" lon="5.78817">
        <ele>438.6</ele>
        <time>2021-08-22T10:11:39Z</time>
      </trkpt>
      <trkpt lat="45.78298" lon="5.78816">
        <ele>438.6</ele>
        <time>2021-08-22T10:11:40Z</time>
      </trkpt>
      <trkpt lat="45.78294" lon="5.78813">
        <ele>438.6</ele>
        <time>2021-08-22T10:11:42Z</time>
      </trkpt>
      <trkpt lat="45.78291" lon="5.78812">
        <ele>438.7</ele>
        <time>2021-08-22T10:11:43Z</time>
      </trkpt>
      <trkpt lat="45.78286" lon="5.7881">
        <ele>438.7</ele>
        <time>2021-08-22T10:11:44Z</time>
      </trkpt>
      <trkpt lat="45.78282" lon="5.78808">
        <ele>438.7</ele>
        <time>2021-08-22T10:11:45Z</time>
      </trkpt>
      <trkpt lat="45.78278" lon="5.78806">
        <ele>438.8</ele>
        <time>2021-08-22T10:11:46Z</time>
      </trkpt>
      <trkpt lat="45.78275" lon="5.78805">
        <ele>438.8</ele>
        <time>2021-08-22T10:11:47Z</time>
      </trkpt>
      <trkpt lat="45.7827" lon="5.78805">
        <ele>438.8</ele>
        <time>2021-08-22T10:11:49Z</time>
      </trkpt>
      <trkpt lat="45.78266" lon="5.78804">
        <ele>438.9</ele>
        <time>2021-08-22T10:11:50Z</time>
      </trkpt>
      <trkpt lat="45.78262" lon="5.78803">
        <ele>438.9</ele>
        <time>2021-08-22T10:11:51Z</time>
      </trkpt>
      <trkpt lat="45.78257" lon="5.78801">
        <ele>439</ele>
        <time>2021-08-22T10:11:53Z</time>
      </trkpt>
      <trkpt lat="45.78254" lon="5.788">
        <ele>439</ele>
        <time>2021-08-22T10:11:54Z</time>
      </trkpt>
      <trkpt lat="45.7825" lon="5.78799">
        <ele>439.1</ele>
        <time>2021-08-22T10:11:55Z</time>
      </trkpt>
      <trkpt lat="45.78245" lon="5.78798">
        <ele>439.1</ele>
        <time>2021-08-22T10:11:57Z</time>
      </trkpt>
      <trkpt lat="45.7824" lon="5.78797">
        <ele>439.1</ele>
        <time>2021-08-22T10:11:58Z</time>
      </trkpt>
      <trkpt lat="45.78236" lon="5.78797">
        <ele>439</ele>
        <time>2021-08-22T10:11:59Z</time>
      </trkpt>
      <trkpt lat="45.78232" lon="5.78797">
        <ele>439</ele>
        <time>2021-08-22T10:12:00Z</time>
      </trkpt>
      <trkpt lat="45.78228" lon="5.78797">
        <ele>438.9</ele>
        <time>2021-08-22T10:12:01Z</time>
      </trkpt>
      <trkpt lat="45.78224" lon="5.78797">
        <ele>438.8</ele>
        <time>2021-08-22T10:12:03Z</time>
      </trkpt>
      <trkpt lat="45.7822" lon="5.78797">
        <ele>438.7</ele>
        <time>2021-08-22T10:12:04Z</time>
      </trkpt>
      <trkpt lat="45.78217" lon="5.78796">
        <ele>438.6</ele>
        <time>2021-08-22T10:12:05Z</time>
      </trkpt>
      <trkpt lat="45.78213" lon="5.78796">
        <ele>438.6</ele>
        <time>2021-08-22T10:12:06Z</time>
      </trkpt>
      <trkpt lat="45.78209" lon="5.78795">
        <ele>438.5</ele>
        <time>2021-08-22T10:12:07Z</time>
      </trkpt>
      <trkpt lat="45.78205" lon="5.78794">
        <ele>438.4</ele>
        <time>2021-08-22T10:12:08Z</time>
      </trkpt>
      <trkpt lat="45.78201" lon="5.78794">
        <ele>438.3</ele>
        <time>2021-08-22T10:12:09Z</time>
      </trkpt>
      <trkpt lat="45.78194" lon="5.78795">
        <ele>438.2</ele>
        <time>2021-08-22T10:12:11Z</time>
      </trkpt>
      <trkpt lat="45.7819" lon="5.78794">
        <ele>438.2</ele>
        <time>2021-08-22T10:12:12Z</time>
      </trkpt>
      <trkpt lat="45.78186" lon="5.78793">
        <ele>438.1</ele>
        <time>2021-08-22T10:12:13Z</time>
      </trkpt>
      <trkpt lat="45.78178" lon="5.78792">
        <ele>438</ele>
        <time>2021-08-22T10:12:15Z</time>
      </trkpt>
      <trkpt lat="45.78173" lon="5.78791">
        <ele>437.9</ele>
        <time>2021-08-22T10:12:17Z</time>
      </trkpt>
      <trkpt lat="45.78168" lon="5.78791">
        <ele>437.8</ele>
        <time>2021-08-22T10:12:18Z</time>
      </trkpt>
      <trkpt lat="45.78164" lon="5.7879">
        <ele>437.7</ele>
        <time>2021-08-22T10:12:19Z</time>
      </trkpt>
      <trkpt lat="45.78158" lon="5.7879">
        <ele>437.6</ele>
        <time>2021-08-22T10:12:21Z</time>
      </trkpt>
      <trkpt lat="45.78154" lon="5.78791">
        <ele>437.5</ele>
        <time>2021-08-22T10:12:22Z</time>
      </trkpt>
      <trkpt lat="45.7815" lon="5.78792">
        <ele>437.5</ele>
        <time>2021-08-22T10:12:23Z</time>
      </trkpt>
      <trkpt lat="45.78146" lon="5.78792">
        <ele>437.4</ele>
        <time>2021-08-22T10:12:24Z</time>
      </trkpt>
      <trkpt lat="45.7814" lon="5.78793">
        <ele>437.2</ele>
        <time>2021-08-22T10:12:26Z</time>
      </trkpt>
      <trkpt lat="45.78134" lon="5.78793">
        <ele>437.1</ele>
        <time>2021-08-22T10:12:28Z</time>
      </trkpt>
      <trkpt lat="45.7813" lon="5.78792">
        <ele>437</ele>
        <time>2021-08-22T10:12:29Z</time>
      </trkpt>
      <trkpt lat="45.78125" lon="5.78791">
        <ele>436.9</ele>
        <time>2021-08-22T10:12:30Z</time>
      </trkpt>
      <trkpt lat="45.78119" lon="5.7879">
        <ele>436.8</ele>
        <time>2021-08-22T10:12:32Z</time>
      </trkpt>
      <trkpt lat="45.78113" lon="5.78787">
        <ele>436.7</ele>
        <time>2021-08-22T10:12:34Z</time>
      </trkpt>
      <trkpt lat="45.7811" lon="5.78786">
        <ele>436.6</ele>
        <time>2021-08-22T10:12:35Z</time>
      </trkpt>
      <trkpt lat="45.78105" lon="5.78784">
        <ele>436.4</ele>
        <time>2021-08-22T10:12:37Z</time>
      </trkpt>
      <trkpt lat="45.781" lon="5.78782">
        <ele>436.2</ele>
        <time>2021-08-22T10:12:38Z</time>
      </trkpt>
      <trkpt lat="45.78096" lon="5.78781">
        <ele>436</ele>
        <time>2021-08-22T10:12:39Z</time>
      </trkpt>
      <trkpt lat="45.78088" lon="5.78778">
        <ele>435.6</ele>
        <time>2021-08-22T10:12:41Z</time>
      </trkpt>
      <trkpt lat="45.78083" lon="5.78777">
        <ele>435.3</ele>
        <time>2021-08-22T10:12:42Z</time>
      </trkpt>
      <trkpt lat="45.78079" lon="5.78776">
        <ele>435</ele>
        <time>2021-08-22T10:12:43Z</time>
      </trkpt>
      <trkpt lat="45.78069" lon="5.78776">
        <ele>434.4</ele>
        <time>2021-08-22T10:12:45Z</time>
      </trkpt>
      <trkpt lat="45.78058" lon="5.78777">
        <ele>433.9</ele>
        <time>2021-08-22T10:12:47Z</time>
      </trkpt>
      <trkpt lat="45.78053" lon="5.78777">
        <ele>433.6</ele>
        <time>2021-08-22T10:12:48Z</time>
      </trkpt>
      <trkpt lat="45.78042" lon="5.78777">
        <ele>432.9</ele>
        <time>2021-08-22T10:12:50Z</time>
      </trkpt>
      <trkpt lat="45.78037" lon="5.78776">
        <ele>432.6</ele>
        <time>2021-08-22T10:12:51Z</time>
      </trkpt>
      <trkpt lat="45.78028" lon="5.78776">
        <ele>432.1</ele>
        <time>2021-08-22T10:12:53Z</time>
      </trkpt>
      <trkpt lat="45.78022" lon="5.78777">
        <ele>431.9</ele>
        <time>2021-08-22T10:12:54Z</time>
      </trkpt>
      <trkpt lat="45.78011" lon="5.78779">
        <ele>431.4</ele>
        <time>2021-08-22T10:12:56Z</time>
      </trkpt>
      <trkpt lat="45.78006" lon="5.7878">
        <ele>431.2</ele>
        <time>2021-08-22T10:12:57Z</time>
      </trkpt>
      <trkpt lat="45.77996" lon="5.78782">
        <ele>430.8</ele>
        <time>2021-08-22T10:12:59Z</time>
      </trkpt>
      <trkpt lat="45.77991" lon="5.78783">
        <ele>430.6</ele>
        <time>2021-08-22T10:13:00Z</time>
      </trkpt>
      <trkpt lat="45.77982" lon="5.78786">
        <ele>430.4</ele>
        <time>2021-08-22T10:13:02Z</time>
      </trkpt>
      <trkpt lat="45.77972" lon="5.78789">
        <ele>430.2</ele>
        <time>2021-08-22T10:13:04Z</time>
      </trkpt>
      <trkpt lat="45.77968" lon="5.78791">
        <ele>430.1</ele>
        <time>2021-08-22T10:13:05Z</time>
      </trkpt>
      <trkpt lat="45.77965" lon="5.78791">
        <ele>430</ele>
        <time>2021-08-22T10:13:06Z</time>
      </trkpt>
      <trkpt lat="45.77956" lon="5.78791">
        <ele>429.9</ele>
        <time>2021-08-22T10:13:08Z</time>
      </trkpt>
      <trkpt lat="45.77948" lon="5.78789">
        <ele>429.7</ele>
        <time>2021-08-22T10:13:10Z</time>
      </trkpt>
      <trkpt lat="45.77939" lon="5.78787">
        <ele>429.5</ele>
        <time>2021-08-22T10:13:12Z</time>
      </trkpt>
      <trkpt lat="45.77936" lon="5.78784">
        <ele>429.5</ele>
        <time>2021-08-22T10:13:14Z</time>
      </trkpt>
      <trkpt lat="45.77933" lon="5.78784">
        <ele>429.4</ele>
        <time>2021-08-22T10:13:15Z</time>
      </trkpt>
      <trkpt lat="45.77924" lon="5.78786">
        <ele>429.1</ele>
        <time>2021-08-22T10:13:17Z</time>
      </trkpt>
      <trkpt lat="45.77919" lon="5.78786">
        <ele>428.9</ele>
        <time>2021-08-22T10:13:18Z</time>
      </trkpt>
      <trkpt lat="45.77914" lon="5.78787">
        <ele>428.6</ele>
        <time>2021-08-22T10:13:19Z</time>
      </trkpt>
      <trkpt lat="45.77903" lon="5.78787">
        <ele>428</ele>
        <time>2021-08-22T10:13:21Z</time>
      </trkpt>
      <trkpt lat="45.77898" lon="5.78786">
        <ele>427.6</ele>
        <time>2021-08-22T10:13:22Z</time>
      </trkpt>
      <trkpt lat="45.77892" lon="5.78785">
        <ele>427.3</ele>
        <time>2021-08-22T10:13:23Z</time>
      </trkpt>
      <trkpt lat="45.77887" lon="5.78786">
        <ele>426.9</ele>
        <time>2021-08-22T10:13:24Z</time>
      </trkpt>
      <trkpt lat="45.77876" lon="5.78792">
        <ele>426.2</ele>
        <time>2021-08-22T10:13:26Z</time>
      </trkpt>
      <trkpt lat="45.7787" lon="5.78796">
        <ele>425.8</ele>
        <time>2021-08-22T10:13:27Z</time>
      </trkpt>
      <trkpt lat="45.77864" lon="5.78801">
        <ele>425.4</ele>
        <time>2021-08-22T10:13:28Z</time>
      </trkpt>
      <trkpt lat="45.77858" lon="5.78804">
        <ele>425</ele>
        <time>2021-08-22T10:13:29Z</time>
      </trkpt>
      <trkpt lat="45.77851" lon="5.78806">
        <ele>424.6</ele>
        <time>2021-08-22T10:13:30Z</time>
      </trkpt>
      <trkpt lat="45.77845" lon="5.78807">
        <ele>424.2</ele>
        <time>2021-08-22T10:13:31Z</time>
      </trkpt>
      <trkpt lat="45.77838" lon="5.78807">
        <ele>423.7</ele>
        <time>2021-08-22T10:13:32Z</time>
      </trkpt>
      <trkpt lat="45.77824" lon="5.78808">
        <ele>422.7</ele>
        <time>2021-08-22T10:13:34Z</time>
      </trkpt>
      <trkpt lat="45.77816" lon="5.78809">
        <ele>422</ele>
        <time>2021-08-22T10:13:35Z</time>
      </trkpt>
      <trkpt lat="45.77808" lon="5.78811">
        <ele>421.4</ele>
        <time>2021-08-22T10:13:36Z</time>
      </trkpt>
      <trkpt lat="45.778" lon="5.78813">
        <ele>420.7</ele>
        <time>2021-08-22T10:13:37Z</time>
      </trkpt>
      <trkpt lat="45.77786" lon="5.78817">
        <ele>419.3</ele>
        <time>2021-08-22T10:13:39Z</time>
      </trkpt>
      <trkpt lat="45.77779" lon="5.78816">
        <ele>418.6</ele>
        <time>2021-08-22T10:13:40Z</time>
      </trkpt>
      <trkpt lat="45.77763" lon="5.78815">
        <ele>417.1</ele>
        <time>2021-08-22T10:13:42Z</time>
      </trkpt>
      <trkpt lat="45.77748" lon="5.78815">
        <ele>415.7</ele>
        <time>2021-08-22T10:13:44Z</time>
      </trkpt>
      <trkpt lat="45.77732" lon="5.78815">
        <ele>414.2</ele>
        <time>2021-08-22T10:13:46Z</time>
      </trkpt>
      <trkpt lat="45.77724" lon="5.78814">
        <ele>413.4</ele>
        <time>2021-08-22T10:13:47Z</time>
      </trkpt>
      <trkpt lat="45.77716" lon="5.78814">
        <ele>412.6</ele>
        <time>2021-08-22T10:13:48Z</time>
      </trkpt>
      <trkpt lat="45.77701" lon="5.78811">
        <ele>410.9</ele>
        <time>2021-08-22T10:13:50Z</time>
      </trkpt>
      <trkpt lat="45.77686" lon="5.78808">
        <ele>409</ele>
        <time>2021-08-22T10:13:52Z</time>
      </trkpt>
      <trkpt lat="45.77678" lon="5.78806">
        <ele>408</ele>
        <time>2021-08-22T10:13:53Z</time>
      </trkpt>
      <trkpt lat="45.77669" lon="5.78806">
        <ele>407.1</ele>
        <time>2021-08-22T10:13:54Z</time>
      </trkpt>
      <trkpt lat="45.77661" lon="5.78806">
        <ele>406.2</ele>
        <time>2021-08-22T10:13:55Z</time>
      </trkpt>
      <trkpt lat="45.77643" lon="5.78802">
        <ele>404.1</ele>
        <time>2021-08-22T10:13:57Z</time>
      </trkpt>
      <trkpt lat="45.77634" lon="5.788">
        <ele>403.1</ele>
        <time>2021-08-22T10:13:58Z</time>
      </trkpt>
      <trkpt lat="45.77614" lon="5.78796">
        <ele>400.9</ele>
        <time>2021-08-22T10:14:00Z</time>
      </trkpt>
      <trkpt lat="45.77604" lon="5.78795">
        <ele>399.8</ele>
        <time>2021-08-22T10:14:01Z</time>
      </trkpt>
      <trkpt lat="45.77584" lon="5.78797">
        <ele>397.6</ele>
        <time>2021-08-22T10:14:03Z</time>
      </trkpt>
      <trkpt lat="45.77575" lon="5.78799">
        <ele>396.6</ele>
        <time>2021-08-22T10:14:04Z</time>
      </trkpt>
      <trkpt lat="45.77566" lon="5.78799">
        <ele>395.6</ele>
        <time>2021-08-22T10:14:05Z</time>
      </trkpt>
      <trkpt lat="45.77549" lon="5.788">
        <ele>393.9</ele>
        <time>2021-08-22T10:14:07Z</time>
      </trkpt>
      <trkpt lat="45.77541" lon="5.788">
        <ele>393.2</ele>
        <time>2021-08-22T10:14:08Z</time>
      </trkpt>
      <trkpt lat="45.77533" lon="5.78799">
        <ele>392.4</ele>
        <time>2021-08-22T10:14:09Z</time>
      </trkpt>
      <trkpt lat="45.77516" lon="5.78799">
        <ele>390.8</ele>
        <time>2021-08-22T10:14:11Z</time>
      </trkpt>
      <trkpt lat="45.77508" lon="5.78801">
        <ele>390</ele>
        <time>2021-08-22T10:14:12Z</time>
      </trkpt>
      <trkpt lat="45.77495" lon="5.78804">
        <ele>388.8</ele>
        <time>2021-08-22T10:14:14Z</time>
      </trkpt>
      <trkpt lat="45.77491" lon="5.78805">
        <ele>388.4</ele>
        <time>2021-08-22T10:14:15Z</time>
      </trkpt>
      <trkpt lat="45.77487" lon="5.78805">
        <ele>388.1</ele>
        <time>2021-08-22T10:14:16Z</time>
      </trkpt>
      <trkpt lat="45.77484" lon="5.78804">
        <ele>387.9</ele>
        <time>2021-08-22T10:14:17Z</time>
      </trkpt>
      <trkpt lat="45.77483" lon="5.78803">
        <ele>387.8</ele>
        <time>2021-08-22T10:14:18Z</time>
      </trkpt>
      <trkpt lat="45.77479" lon="5.78806">
        <ele>387.4</ele>
        <time>2021-08-22T10:14:20Z</time>
      </trkpt>
      <trkpt lat="45.77477" lon="5.78808">
        <ele>387.3</ele>
        <time>2021-08-22T10:14:22Z</time>
      </trkpt>
      <trkpt lat="45.77476" lon="5.7881">
        <ele>387.1</ele>
        <time>2021-08-22T10:14:23Z</time>
      </trkpt>
      <trkpt lat="45.77474" lon="5.78812">
        <ele>387</ele>
        <time>2021-08-22T10:14:24Z</time>
      </trkpt>
      <trkpt lat="45.77473" lon="5.78814">
        <ele>386.8</ele>
        <time>2021-08-22T10:14:25Z</time>
      </trkpt>
      <trkpt lat="45.77471" lon="5.78816">
        <ele>386.7</ele>
        <time>2021-08-22T10:14:27Z</time>
      </trkpt>
      <trkpt lat="45.7747" lon="5.78818">
        <ele>386.5</ele>
        <time>2021-08-22T10:14:29Z</time>
      </trkpt>
      <trkpt lat="45.77469" lon="5.7882">
        <ele>386.4</ele>
        <time>2021-08-22T10:14:30Z</time>
      </trkpt>
      <trkpt lat="45.77467" lon="5.78822">
        <ele>386.2</ele>
        <time>2021-08-22T10:15:17Z</time>
      </trkpt>
      <trkpt lat="45.77466" lon="5.78824">
        <ele>386</ele>
        <time>2021-08-22T10:15:18Z</time>
      </trkpt>
      <trkpt lat="45.77462" lon="5.78827">
        <ele>385.7</ele>
        <time>2021-08-22T10:15:19Z</time>
      </trkpt>
      <trkpt lat="45.77453" lon="5.78831">
        <ele>385</ele>
        <time>2021-08-22T10:15:21Z</time>
      </trkpt>
      <trkpt lat="45.77449" lon="5.78833">
        <ele>384.6</ele>
        <time>2021-08-22T10:15:22Z</time>
      </trkpt>
      <trkpt lat="45.77438" lon="5.78836">
        <ele>383.7</ele>
        <time>2021-08-22T10:15:24Z</time>
      </trkpt>
      <trkpt lat="45.77427" lon="5.78837">
        <ele>382.8</ele>
        <time>2021-08-22T10:15:26Z</time>
      </trkpt>
      <trkpt lat="45.77421" lon="5.78838">
        <ele>382.4</ele>
        <time>2021-08-22T10:15:27Z</time>
      </trkpt>
      <trkpt lat="45.77415" lon="5.78839">
        <ele>382</ele>
        <time>2021-08-22T10:15:28Z</time>
      </trkpt>
      <trkpt lat="45.77403" lon="5.7884">
        <ele>381.2</ele>
        <time>2021-08-22T10:15:30Z</time>
      </trkpt>
      <trkpt lat="45.77391" lon="5.78842">
        <ele>380.6</ele>
        <time>2021-08-22T10:15:32Z</time>
      </trkpt>
      <trkpt lat="45.77384" lon="5.78845">
        <ele>380.2</ele>
        <time>2021-08-22T10:15:33Z</time>
      </trkpt>
      <trkpt lat="45.77378" lon="5.78847">
        <ele>379.9</ele>
        <time>2021-08-22T10:15:34Z</time>
      </trkpt>
      <trkpt lat="45.77367" lon="5.7885">
        <ele>379.4</ele>
        <time>2021-08-22T10:15:36Z</time>
      </trkpt>
      <trkpt lat="45.77361" lon="5.7885">
        <ele>379.2</ele>
        <time>2021-08-22T10:15:37Z</time>
      </trkpt>
      <trkpt lat="45.77349" lon="5.78853">
        <ele>378.8</ele>
        <time>2021-08-22T10:15:39Z</time>
      </trkpt>
      <trkpt lat="45.77344" lon="5.78854">
        <ele>378.6</ele>
        <time>2021-08-22T10:15:40Z</time>
      </trkpt>
      <trkpt lat="45.77333" lon="5.78858">
        <ele>378.3</ele>
        <time>2021-08-22T10:15:42Z</time>
      </trkpt>
      <trkpt lat="45.77323" lon="5.78864">
        <ele>378.1</ele>
        <time>2021-08-22T10:15:44Z</time>
      </trkpt>
      <trkpt lat="45.77317" lon="5.78866">
        <ele>378</ele>
        <time>2021-08-22T10:15:45Z</time>
      </trkpt>
      <trkpt lat="45.77307" lon="5.78871">
        <ele>377.8</ele>
        <time>2021-08-22T10:15:47Z</time>
      </trkpt>
      <trkpt lat="45.77297" lon="5.78876">
        <ele>377.8</ele>
        <time>2021-08-22T10:15:49Z</time>
      </trkpt>
      <trkpt lat="45.77291" lon="5.78878">
        <ele>377.8</ele>
        <time>2021-08-22T10:15:51Z</time>
      </trkpt>
      <trkpt lat="45.77287" lon="5.78879">
        <ele>377.8</ele>
        <time>2021-08-22T10:15:52Z</time>
      </trkpt>
      <trkpt lat="45.77284" lon="5.7888">
        <ele>377.8</ele>
        <time>2021-08-22T10:15:53Z</time>
      </trkpt>
      <trkpt lat="45.77278" lon="5.78883">
        <ele>377.9</ele>
        <time>2021-08-22T10:15:55Z</time>
      </trkpt>
      <trkpt lat="45.77274" lon="5.78884">
        <ele>377.9</ele>
        <time>2021-08-22T10:15:56Z</time>
      </trkpt>
      <trkpt lat="45.77269" lon="5.78882">
        <ele>378</ele>
        <time>2021-08-22T10:15:58Z</time>
      </trkpt>
      <trkpt lat="45.77268" lon="5.78879">
        <ele>378</ele>
        <time>2021-08-22T10:15:59Z</time>
      </trkpt>
      <trkpt lat="45.77264" lon="5.78874">
        <ele>378.2</ele>
        <time>2021-08-22T10:16:01Z</time>
      </trkpt>
      <trkpt lat="45.77263" lon="5.78871">
        <ele>378.3</ele>
        <time>2021-08-22T10:16:02Z</time>
      </trkpt>
      <trkpt lat="45.77259" lon="5.78865">
        <ele>378.5</ele>
        <time>2021-08-22T10:16:04Z</time>
      </trkpt>
      <trkpt lat="45.77257" lon="5.78862">
        <ele>378.7</ele>
        <time>2021-08-22T10:16:05Z</time>
      </trkpt>
      <trkpt lat="45.77253" lon="5.78859">
        <ele>378.9</ele>
        <time>2021-08-22T10:16:06Z</time>
      </trkpt>
      <trkpt lat="45.77247" lon="5.78851">
        <ele>379.5</ele>
        <time>2021-08-22T10:16:08Z</time>
      </trkpt>
      <trkpt lat="45.77245" lon="5.78848">
        <ele>379.7</ele>
        <time>2021-08-22T10:16:10Z</time>
      </trkpt>
      <trkpt lat="45.77244" lon="5.78847">
        <ele>379.8</ele>
        <time>2021-08-22T10:16:11Z</time>
      </trkpt>
      <trkpt lat="45.77244" lon="5.78847">
        <ele>379.8</ele>
        <time>2021-08-22T10:16:12Z</time>
      </trkpt>
      <trkpt lat="45.77244" lon="5.78848">
        <ele>379.9</ele>
        <time>2021-08-22T10:16:14Z</time>
      </trkpt>
      <trkpt lat="45.77243" lon="5.78848">
        <ele>379.9</ele>
        <time>2021-08-22T10:16:15Z</time>
      </trkpt>
      <trkpt lat="45.77243" lon="5.78848">
        <ele>380</ele>
        <time>2021-08-22T10:16:16Z</time>
      </trkpt>
      <trkpt lat="45.77243" lon="5.78848">
        <ele>380</ele>
        <time>2021-08-22T10:16:18Z</time>
      </trkpt>
      <trkpt lat="45.77243" lon="5.78848">
        <ele>380</ele>
        <time>2021-08-22T10:16:20Z</time>
      </trkpt>
      <trkpt lat="45.77243" lon="5.78848">
        <ele>380</ele>
        <time>2021-08-22T10:16:21Z</time>
      </trkpt>
      <trkpt lat="45.77243" lon="5.78848">
        <ele>380</ele>
        <time>2021-08-22T10:16:23Z</time>
      </trkpt>
      <trkpt lat="45.77234" lon="5.78858">
        <ele>381.1</ele>
        <time>2021-08-22T10:17:17Z</time>
      </trkpt>
      <trkpt lat="45.77232" lon="5.78855">
        <ele>381.2</ele>
        <time>2021-08-22T10:17:19Z</time>
      </trkpt>
      <trkpt lat="45.7723" lon="5.78852">
        <ele>381.3</ele>
        <time>2021-08-22T10:17:20Z</time>
      </trkpt>
      <trkpt lat="45.77229" lon="5.78847">
        <ele>381.4</ele>
        <time>2021-08-22T10:17:22Z</time>
      </trkpt>
      <trkpt lat="45.77228" lon="5.78844">
        <ele>381.5</ele>
        <time>2021-08-22T10:17:24Z</time>
      </trkpt>
      <trkpt lat="45.77228" lon="5.78842">
        <ele>380.7</ele>
        <time>2021-08-22T10:17:26Z</time>
      </trkpt>
      <trkpt lat="45.77228" lon="5.78842">
        <ele>380.8</ele>
        <time>2021-08-22T10:17:27Z</time>
      </trkpt>
      <trkpt lat="45.77228" lon="5.78841">
        <ele>380.7</ele>
        <time>2021-08-22T10:17:28Z</time>
      </trkpt>
      <trkpt lat="45.77229" lon="5.78841">
        <ele>380.7</ele>
        <time>2021-08-22T10:17:30Z</time>
      </trkpt>
      <trkpt lat="45.77238" lon="5.78916">
        <ele>389.8</ele>
        <time>2021-08-22T10:18:28Z</time>
      </trkpt>
      <trkpt lat="45.77236" lon="5.78921">
        <ele>390.4</ele>
        <time>2021-08-22T10:18:29Z</time>
      </trkpt>
      <trkpt lat="45.77234" lon="5.78928">
        <ele>391.6</ele>
        <time>2021-08-22T10:18:31Z</time>
      </trkpt>
      <trkpt lat="45.77233" lon="5.78934">
        <ele>392</ele>
        <time>2021-08-22T10:18:33Z</time>
      </trkpt>
      <trkpt lat="45.77233" lon="5.78938">
        <ele>392.5</ele>
        <time>2021-08-22T10:18:34Z</time>
      </trkpt>
      <trkpt lat="45.77231" lon="5.78948">
        <ele>393.8</ele>
        <time>2021-08-22T10:18:36Z</time>
      </trkpt>
      <trkpt lat="45.77229" lon="5.78953">
        <ele>394.2</ele>
        <time>2021-08-22T10:18:37Z</time>
      </trkpt>
      <trkpt lat="45.77228" lon="5.78957">
        <ele>394.7</ele>
        <time>2021-08-22T10:18:38Z</time>
      </trkpt>
      <trkpt lat="45.77228" lon="5.78961">
        <ele>395.4</ele>
        <time>2021-08-22T10:18:39Z</time>
      </trkpt>
      <trkpt lat="45.77227" lon="5.78965">
        <ele>395.8</ele>
        <time>2021-08-22T10:18:40Z</time>
      </trkpt>
      <trkpt lat="45.77226" lon="5.78971">
        <ele>396.2</ele>
        <time>2021-08-22T10:18:42Z</time>
      </trkpt>
      <trkpt lat="45.77225" lon="5.78973">
        <ele>396.9</ele>
        <time>2021-08-22T10:18:43Z</time>
      </trkpt>
      <trkpt lat="45.77226" lon="5.78973">
        <ele>396.5</ele>
        <time>2021-08-22T10:18:45Z</time>
      </trkpt>
      <trkpt lat="45.77225" lon="5.78978">
        <ele>397.3</ele>
        <time>2021-08-22T10:18:47Z</time>
      </trkpt>
      <trkpt lat="45.77225" lon="5.78979">
        <ele>396.9</ele>
        <time>2021-08-22T10:18:48Z</time>
      </trkpt>
      <trkpt lat="45.77226" lon="5.78979">
        <ele>396.9</ele>
        <time>2021-08-22T10:18:49Z</time>
      </trkpt>
      <trkpt lat="45.7723" lon="5.78981">
        <ele>397.3</ele>
        <time>2021-08-22T10:18:51Z</time>
      </trkpt>
      <trkpt lat="45.77232" lon="5.78983">
        <ele>396.9</ele>
        <time>2021-08-22T10:18:53Z</time>
      </trkpt>
      <trkpt lat="45.77233" lon="5.78985">
        <ele>397.4</ele>
        <time>2021-08-22T10:18:55Z</time>
      </trkpt>
      <trkpt lat="45.77234" lon="5.78984">
        <ele>397.1</ele>
        <time>2021-08-22T10:18:56Z</time>
      </trkpt>
      <trkpt lat="45.7724" lon="5.78977">
        <ele>395.5</ele>
        <time>2021-08-22T10:18:58Z</time>
      </trkpt>
      <trkpt lat="45.7724" lon="5.78971">
        <ele>394.3</ele>
        <time>2021-08-22T10:18:59Z</time>
      </trkpt>
      <trkpt lat="45.7724" lon="5.78966">
        <ele>394.2</ele>
        <time>2021-08-22T10:19:01Z</time>
      </trkpt>
      <trkpt lat="45.77239" lon="5.78961">
        <ele>393.7</ele>
        <time>2021-08-22T10:19:03Z</time>
      </trkpt>
      <trkpt lat="45.77239" lon="5.78956">
        <ele>393.2</ele>
        <time>2021-08-22T10:19:05Z</time>
      </trkpt>
      <trkpt lat="45.77239" lon="5.78951">
        <ele>392.7</ele>
        <time>2021-08-22T10:19:16Z</time>
      </trkpt>
      <trkpt lat="45.77238" lon="5.78946">
        <ele>392.1</ele>
        <time>2021-08-22T10:19:17Z</time>
      </trkpt>
      <trkpt lat="45.77235" lon="5.7893">
        <ele>390.4</ele>
        <time>2021-08-22T10:19:18Z</time>
      </trkpt>
      <trkpt lat="45.77233" lon="5.78917">
        <ele>389.1</ele>
        <time>2021-08-22T10:19:20Z</time>
      </trkpt>
      <trkpt lat="45.77233" lon="5.78911">
        <ele>388.6</ele>
        <time>2021-08-22T10:19:21Z</time>
      </trkpt>
      <trkpt lat="45.77233" lon="5.78904">
        <ele>387.5</ele>
        <time>2021-08-22T10:19:23Z</time>
      </trkpt>
      <trkpt lat="45.7723" lon="5.789">
        <ele>387</ele>
        <time>2021-08-22T10:19:24Z</time>
      </trkpt>
      <trkpt lat="45.77228" lon="5.78897">
        <ele>386.4</ele>
        <time>2021-08-22T10:19:25Z</time>
      </trkpt>
      <trkpt lat="45.77227" lon="5.78895">
        <ele>386.4</ele>
        <time>2021-08-22T10:19:27Z</time>
      </trkpt>
      <trkpt lat="45.77227" lon="5.78894">
        <ele>386.4</ele>
        <time>2021-08-22T10:19:28Z</time>
      </trkpt>
      <trkpt lat="45.77226" lon="5.78891">
        <ele>385.7</ele>
        <time>2021-08-22T10:19:30Z</time>
      </trkpt>
      <trkpt lat="45.77226" lon="5.7889">
        <ele>385.7</ele>
        <time>2021-08-22T10:19:31Z</time>
      </trkpt>
      <trkpt lat="45.77226" lon="5.78886">
        <ele>385.1</ele>
        <time>2021-08-22T10:19:33Z</time>
      </trkpt>
      <trkpt lat="45.77229" lon="5.78857">
        <ele>381.6</ele>
        <time>2021-08-22T10:19:52Z</time>
      </trkpt>
      <trkpt lat="45.7723" lon="5.78856">
        <ele>381.7</ele>
        <time>2021-08-22T10:19:54Z</time>
      </trkpt>
      <trkpt lat="45.7723" lon="5.78856">
        <ele>381.7</ele>
        <time>2021-08-22T10:19:55Z</time>
      </trkpt>
      <trkpt lat="45.7723" lon="5.78856">
        <ele>381.7</ele>
        <time>2021-08-22T10:19:57Z</time>
      </trkpt>
      <trkpt lat="45.7723" lon="5.78855">
        <ele>381.7</ele>
        <time>2021-08-22T10:19:58Z</time>
      </trkpt>
      <trkpt lat="45.77229" lon="5.78855">
        <ele>381.8</ele>
        <time>2021-08-22T10:19:59Z</time>
      </trkpt>
      <trkpt lat="45.77229" lon="5.78854">
        <ele>381.8</ele>
        <time>2021-08-22T10:20:00Z</time>
      </trkpt>
      <trkpt lat="45.77229" lon="5.78854">
        <ele>381.9</ele>
        <time>2021-08-22T10:20:02Z</time>
      </trkpt>
      <trkpt lat="45.77229" lon="5.78854">
        <ele>381.9</ele>
        <time>2021-08-22T10:20:04Z</time>
      </trkpt>
      <trkpt lat="45.77229" lon="5.78855">
        <ele>381.9</ele>
        <time>2021-08-22T10:20:05Z</time>
      </trkpt>
      <trkpt lat="45.77229" lon="5.78855">
        <ele>382</ele>
        <time>2021-08-22T10:20:06Z</time>
      </trkpt>
      <trkpt lat="45.77228" lon="5.78856">
        <ele>382</ele>
        <time>2021-08-22T10:20:08Z</time>
      </trkpt>
      <trkpt lat="45.77228" lon="5.78857">
        <ele>382</ele>
        <time>2021-08-22T10:20:09Z</time>
      </trkpt>
      <trkpt lat="45.77228" lon="5.78857">
        <ele>382.1</ele>
        <time>2021-08-22T10:20:11Z</time>
      </trkpt>
      <trkpt lat="45.77228" lon="5.78857">
        <ele>382.1</ele>
        <time>2021-08-22T10:20:12Z</time>
      </trkpt>
      <trkpt lat="45.77228" lon="5.78857">
        <ele>382.1</ele>
        <time>2021-08-22T10:20:13Z</time>
      </trkpt>
      <trkpt lat="45.77228" lon="5.78857">
        <ele>382.1</ele>
        <time>2021-08-22T10:20:14Z</time>
      </trkpt>
      <trkpt lat="45.77229" lon="5.78859">
        <ele>382.3</ele>
        <time>2021-08-22T10:20:16Z</time>
      </trkpt>
      <trkpt lat="45.77229" lon="5.7886">
        <ele>382.3</ele>
        <time>2021-08-22T10:20:17Z</time>
      </trkpt>
      <trkpt lat="45.7723" lon="5.78862">
        <ele>382.4</ele>
        <time>2021-08-22T10:20:19Z</time>
      </trkpt>
      <trkpt lat="45.7723" lon="5.78863">
        <ele>382.5</ele>
        <time>2021-08-22T10:20:21Z</time>
      </trkpt>
      <trkpt lat="45.7723" lon="5.78863">
        <ele>382.5</ele>
        <time>2021-08-22T10:20:22Z</time>
      </trkpt>
      <trkpt lat="45.77231" lon="5.78863">
        <ele>382.6</ele>
        <time>2021-08-22T10:20:23Z</time>
      </trkpt>
      <trkpt lat="45.77231" lon="5.78864">
        <ele>382.6</ele>
        <time>2021-08-22T10:20:25Z</time>
      </trkpt>
      <trkpt lat="45.77231" lon="5.78865">
        <ele>382.6</ele>
        <time>2021-08-22T10:20:26Z</time>
      </trkpt>
      <trkpt lat="45.77231" lon="5.78865">
        <ele>382.7</ele>
        <time>2021-08-22T10:20:28Z</time>
      </trkpt>
      <trkpt lat="45.77231" lon="5.78865">
        <ele>382.7</ele>
        <time>2021-08-22T10:20:29Z</time>
      </trkpt>
      <trkpt lat="45.7723" lon="5.78865">
        <ele>382.8</ele>
        <time>2021-08-22T10:20:30Z</time>
      </trkpt>
      <trkpt lat="45.77229" lon="5.78864">
        <ele>382.9</ele>
        <time>2021-08-22T10:20:32Z</time>
      </trkpt>
      <trkpt lat="45.77229" lon="5.78864">
        <ele>382.9</ele>
        <time>2021-08-22T10:20:33Z</time>
      </trkpt>
      <trkpt lat="45.77228" lon="5.78864">
        <ele>383</ele>
        <time>2021-08-22T10:20:35Z</time>
      </trkpt>
      <trkpt lat="45.77227" lon="5.78864">
        <ele>383.1</ele>
        <time>2021-08-22T10:20:36Z</time>
      </trkpt>
      <trkpt lat="45.77226" lon="5.78864">
        <ele>383.2</ele>
        <time>2021-08-22T10:20:38Z</time>
      </trkpt>
      <trkpt lat="45.77225" lon="5.78865">
        <ele>383.3</ele>
        <time>2021-08-22T10:20:39Z</time>
      </trkpt>
      <trkpt lat="45.77225" lon="5.78867">
        <ele>383.4</ele>
        <time>2021-08-22T10:20:40Z</time>
      </trkpt>
      <trkpt lat="45.77224" lon="5.78869">
        <ele>383.5</ele>
        <time>2021-08-22T10:20:42Z</time>
      </trkpt>
      <trkpt lat="45.77224" lon="5.7887">
        <ele>383.6</ele>
        <time>2021-08-22T10:20:43Z</time>
      </trkpt>
      <trkpt lat="45.77223" lon="5.78871">
        <ele>383.7</ele>
        <time>2021-08-22T10:20:44Z</time>
      </trkpt>
      <trkpt lat="45.77223" lon="5.78872">
        <ele>383.7</ele>
        <time>2021-08-22T10:20:46Z</time>
      </trkpt>
      <trkpt lat="45.77222" lon="5.78873">
        <ele>383.8</ele>
        <time>2021-08-22T10:20:48Z</time>
      </trkpt>
      <trkpt lat="45.77222" lon="5.78873">
        <ele>383.8</ele>
        <time>2021-08-22T10:20:49Z</time>
      </trkpt>
      <trkpt lat="45.77222" lon="5.78874">
        <ele>383.9</ele>
        <time>2021-08-22T10:20:51Z</time>
      </trkpt>
      <trkpt lat="45.77221" lon="5.78875">
        <ele>384</ele>
        <time>2021-08-22T10:20:52Z</time>
      </trkpt>
      <trkpt lat="45.77219" lon="5.7888">
        <ele>384.3</ele>
        <time>2021-08-22T10:20:54Z</time>
      </trkpt>
      <trkpt lat="45.77219" lon="5.78882">
        <ele>384.5</ele>
        <time>2021-08-22T10:20:55Z</time>
      </trkpt>
      <trkpt lat="45.77218" lon="5.78884">
        <ele>384.6</ele>
        <time>2021-08-22T10:20:56Z</time>
      </trkpt>
      <trkpt lat="45.77217" lon="5.78886">
        <ele>384.8</ele>
        <time>2021-08-22T10:20:58Z</time>
      </trkpt>
      <trkpt lat="45.77217" lon="5.78887">
        <ele>384.8</ele>
        <time>2021-08-22T10:20:59Z</time>
      </trkpt>
      <trkpt lat="45.77209" lon="5.78898">
        <ele>385.9</ele>
        <time>2021-08-22T10:21:01Z</time>
      </trkpt>
      <trkpt lat="45.77202" lon="5.78907">
        <ele>386.9</ele>
        <time>2021-08-22T10:21:02Z</time>
      </trkpt>
      <trkpt lat="45.772" lon="5.78911">
        <ele>387.4</ele>
        <time>2021-08-22T10:21:04Z</time>
      </trkpt>
      <trkpt lat="45.772" lon="5.78912">
        <ele>387.4</ele>
        <time>2021-08-22T10:21:05Z</time>
      </trkpt>
      <trkpt lat="45.772" lon="5.78912">
        <ele>387.5</ele>
        <time>2021-08-22T10:21:06Z</time>
      </trkpt>
      <trkpt lat="45.772" lon="5.78913">
        <ele>387.5</ele>
        <time>2021-08-22T10:21:08Z</time>
      </trkpt>
      <trkpt lat="45.772" lon="5.78913">
        <ele>387.6</ele>
        <time>2021-08-22T10:21:09Z</time>
      </trkpt>
      <trkpt lat="45.77199" lon="5.78914">
        <ele>387.7</ele>
        <time>2021-08-22T10:21:10Z</time>
      </trkpt>
      <trkpt lat="45.77198" lon="5.78916">
        <ele>387.9</ele>
        <time>2021-08-22T10:21:12Z</time>
      </trkpt>
      <trkpt lat="45.77197" lon="5.78918">
        <ele>388.1</ele>
        <time>2021-08-22T10:21:14Z</time>
      </trkpt>
      <trkpt lat="45.77196" lon="5.78919">
        <ele>388.3</ele>
        <time>2021-08-22T10:21:16Z</time>
      </trkpt>
      <trkpt lat="45.77196" lon="5.7892">
        <ele>388.3</ele>
        <time>2021-08-22T10:21:17Z</time>
      </trkpt>
      <trkpt lat="45.77196" lon="5.7892">
        <ele>388.3</ele>
        <time>2021-08-22T10:21:18Z</time>
      </trkpt>
      <trkpt lat="45.77196" lon="5.7892">
        <ele>388.4</ele>
        <time>2021-08-22T10:21:20Z</time>
      </trkpt>
      <trkpt lat="45.77195" lon="5.78921">
        <ele>388.4</ele>
        <time>2021-08-22T10:21:22Z</time>
      </trkpt>
      <trkpt lat="45.77195" lon="5.78921">
        <ele>388.4</ele>
        <time>2021-08-22T10:21:23Z</time>
      </trkpt>
      <trkpt lat="45.77195" lon="5.78921">
        <ele>388.5</ele>
        <time>2021-08-22T10:21:25Z</time>
      </trkpt>
      <trkpt lat="45.77195" lon="5.7892">
        <ele>388.6</ele>
        <time>2021-08-22T10:21:26Z</time>
      </trkpt>
      <trkpt lat="45.77195" lon="5.78918">
        <ele>388.8</ele>
        <time>2021-08-22T10:21:27Z</time>
      </trkpt>
      <trkpt lat="45.77195" lon="5.78915">
        <ele>389</ele>
        <time>2021-08-22T10:21:29Z</time>
      </trkpt>
      <trkpt lat="45.77195" lon="5.78914">
        <ele>389.2</ele>
        <time>2021-08-22T10:21:30Z</time>
      </trkpt>
      <trkpt lat="45.77195" lon="5.7891">
        <ele>389.5</ele>
        <time>2021-08-22T10:21:32Z</time>
      </trkpt>
      <trkpt lat="45.77196" lon="5.78909">
        <ele>389.6</ele>
        <time>2021-08-22T10:21:33Z</time>
      </trkpt>
      <trkpt lat="45.77196" lon="5.78907">
        <ele>389.8</ele>
        <time>2021-08-22T10:21:35Z</time>
      </trkpt>
      <trkpt lat="45.77196" lon="5.78906">
        <ele>389.9</ele>
        <time>2021-08-22T10:21:36Z</time>
      </trkpt>
      <trkpt lat="45.77196" lon="5.78905">
        <ele>390</ele>
        <time>2021-08-22T10:21:37Z</time>
      </trkpt>
      <trkpt lat="45.77195" lon="5.78905">
        <ele>390.1</ele>
        <time>2021-08-22T10:21:38Z</time>
      </trkpt>
      <trkpt lat="45.77195" lon="5.78904">
        <ele>390.2</ele>
        <time>2021-08-22T10:21:40Z</time>
      </trkpt>
      <trkpt lat="45.77194" lon="5.78904">
        <ele>390.3</ele>
        <time>2021-08-22T10:21:42Z</time>
      </trkpt>
      <trkpt lat="45.77194" lon="5.78904">
        <ele>390.4</ele>
        <time>2021-08-22T10:21:44Z</time>
      </trkpt>
      <trkpt lat="45.77193" lon="5.78903">
        <ele>390.5</ele>
        <time>2021-08-22T10:21:45Z</time>
      </trkpt>
      <trkpt lat="45.77192" lon="5.78902">
        <ele>390.7</ele>
        <time>2021-08-22T10:21:46Z</time>
      </trkpt>
      <trkpt lat="45.7719" lon="5.789">
        <ele>391</ele>
        <time>2021-08-22T10:21:47Z</time>
      </trkpt>
      <trkpt lat="45.77189" lon="5.78898">
        <ele>391.3</ele>
        <time>2021-08-22T10:21:49Z</time>
      </trkpt>
      <trkpt lat="45.77188" lon="5.78897">
        <ele>391.5</ele>
        <time>2021-08-22T10:21:50Z</time>
      </trkpt>
      <trkpt lat="45.77185" lon="5.78895">
        <ele>391.9</ele>
        <time>2021-08-22T10:21:52Z</time>
      </trkpt>
      <trkpt lat="45.77185" lon="5.78894">
        <ele>392.1</ele>
        <time>2021-08-22T10:21:53Z</time>
      </trkpt>
      <trkpt lat="45.77184" lon="5.78892">
        <ele>392.3</ele>
        <time>2021-08-22T10:21:54Z</time>
      </trkpt>
      <trkpt lat="45.77183" lon="5.78892">
        <ele>392.4</ele>
        <time>2021-08-22T10:21:55Z</time>
      </trkpt>
      <trkpt lat="45.77183" lon="5.78891">
        <ele>392.5</ele>
        <time>2021-08-22T10:21:56Z</time>
      </trkpt>
      <trkpt lat="45.77182" lon="5.7889">
        <ele>392.6</ele>
        <time>2021-08-22T10:21:58Z</time>
      </trkpt>
      <trkpt lat="45.77181" lon="5.7889">
        <ele>392.7</ele>
        <time>2021-08-22T10:22:00Z</time>
      </trkpt>
      <trkpt lat="45.77181" lon="5.7889">
        <ele>392.7</ele>
        <time>2021-08-22T10:22:01Z</time>
      </trkpt>
      <trkpt lat="45.77181" lon="5.78889">
        <ele>392.8</ele>
        <time>2021-08-22T10:22:03Z</time>
      </trkpt>
      <trkpt lat="45.7718" lon="5.78889">
        <ele>392.9</ele>
        <time>2021-08-22T10:22:04Z</time>
      </trkpt>
      <trkpt lat="45.7718" lon="5.78889">
        <ele>392.9</ele>
        <time>2021-08-22T10:22:05Z</time>
      </trkpt>
      <trkpt lat="45.7718" lon="5.78888">
        <ele>393.1</ele>
        <time>2021-08-22T10:22:06Z</time>
      </trkpt>
      <trkpt lat="45.7718" lon="5.78885">
        <ele>393.3</ele>
        <time>2021-08-22T10:22:07Z</time>
      </trkpt>
      <trkpt lat="45.7718" lon="5.78883">
        <ele>393.5</ele>
        <time>2021-08-22T10:22:08Z</time>
      </trkpt>
      <trkpt lat="45.7718" lon="5.78882">
        <ele>393.7</ele>
        <time>2021-08-22T10:22:10Z</time>
      </trkpt>
      <trkpt lat="45.77179" lon="5.7888">
        <ele>393.9</ele>
        <time>2021-08-22T10:22:13Z</time>
      </trkpt>
      <trkpt lat="45.77179" lon="5.78879">
        <ele>394</ele>
        <time>2021-08-22T10:22:15Z</time>
      </trkpt>
      <trkpt lat="45.77179" lon="5.78879">
        <ele>394</ele>
        <time>2021-08-22T10:22:16Z</time>
      </trkpt>
      <trkpt lat="45.77179" lon="5.78879">
        <ele>394.1</ele>
        <time>2021-08-22T10:22:18Z</time>
      </trkpt>
      <trkpt lat="45.77179" lon="5.78878">
        <ele>394.1</ele>
        <time>2021-08-22T10:22:19Z</time>
      </trkpt>
      <trkpt lat="45.77179" lon="5.78878">
        <ele>394.1</ele>
        <time>2021-08-22T10:22:20Z</time>
      </trkpt>
      <trkpt lat="45.77179" lon="5.78878">
        <ele>394.2</ele>
        <time>2021-08-22T10:22:22Z</time>
      </trkpt>
      <trkpt lat="45.77179" lon="5.78878">
        <ele>394.2</ele>
        <time>2021-08-22T10:22:23Z</time>
      </trkpt>
      <trkpt lat="45.77179" lon="5.78878">
        <ele>394.2</ele>
        <time>2021-08-22T10:22:25Z</time>
      </trkpt>
      <trkpt lat="45.77179" lon="5.78878">
        <ele>394.2</ele>
        <time>2021-08-22T10:22:26Z</time>
      </trkpt>
      <trkpt lat="45.77178" lon="5.78878">
        <ele>394.3</ele>
        <time>2021-08-22T10:22:27Z</time>
      </trkpt>
      <trkpt lat="45.77177" lon="5.78878">
        <ele>394.5</ele>
        <time>2021-08-22T10:22:28Z</time>
      </trkpt>
      <trkpt lat="45.77173" lon="5.78878">
        <ele>395</ele>
        <time>2021-08-22T10:22:30Z</time>
      </trkpt>
      <trkpt lat="45.77173" lon="5.78878">
        <ele>395.1</ele>
        <time>2021-08-22T10:22:31Z</time>
      </trkpt>
      <trkpt lat="45.77172" lon="5.78878">
        <ele>395.2</ele>
        <time>2021-08-22T10:22:32Z</time>
      </trkpt>
      <trkpt lat="45.77171" lon="5.78878">
        <ele>395.3</ele>
        <time>2021-08-22T10:22:33Z</time>
      </trkpt>
      <trkpt lat="45.7717" lon="5.78878">
        <ele>395.5</ele>
        <time>2021-08-22T10:22:35Z</time>
      </trkpt>
      <trkpt lat="45.77168" lon="5.78878">
        <ele>395.7</ele>
        <time>2021-08-22T10:22:37Z</time>
      </trkpt>
      <trkpt lat="45.77168" lon="5.78878">
        <ele>395.8</ele>
        <time>2021-08-22T10:22:38Z</time>
      </trkpt>
      <trkpt lat="45.77167" lon="5.78878">
        <ele>395.8</ele>
        <time>2021-08-22T10:22:40Z</time>
      </trkpt>
      <trkpt lat="45.77166" lon="5.78877">
        <ele>396</ele>
        <time>2021-08-22T10:22:42Z</time>
      </trkpt>
      <trkpt lat="45.77164" lon="5.78874">
        <ele>396.4</ele>
        <time>2021-08-22T10:22:44Z</time>
      </trkpt>
      <trkpt lat="45.77164" lon="5.78874">
        <ele>396.4</ele>
        <time>2021-08-22T10:22:46Z</time>
      </trkpt>
      <trkpt lat="45.77163" lon="5.78874">
        <ele>396.5</ele>
        <time>2021-08-22T10:22:47Z</time>
      </trkpt>
      <trkpt lat="45.77163" lon="5.78875">
        <ele>396.5</ele>
        <time>2021-08-22T10:22:49Z</time>
      </trkpt>
      <trkpt lat="45.77163" lon="5.78875">
        <ele>396.5</ele>
        <time>2021-08-22T10:22:50Z</time>
      </trkpt>
      <trkpt lat="45.77162" lon="5.78875">
        <ele>396.6</ele>
        <time>2021-08-22T10:22:52Z</time>
      </trkpt>
      <trkpt lat="45.77162" lon="5.78875">
        <ele>396.6</ele>
        <time>2021-08-22T10:22:54Z</time>
      </trkpt>
      <trkpt lat="45.77162" lon="5.78875">
        <ele>396.7</ele>
        <time>2021-08-22T10:22:55Z</time>
      </trkpt>
      <trkpt lat="45.77161" lon="5.78875">
        <ele>396.7</ele>
        <time>2021-08-22T10:22:57Z</time>
      </trkpt>
      <trkpt lat="45.77161" lon="5.78875">
        <ele>396.7</ele>
        <time>2021-08-22T10:22:58Z</time>
      </trkpt>
      <trkpt lat="45.77161" lon="5.78875">
        <ele>396.8</ele>
        <time>2021-08-22T10:23:00Z</time>
      </trkpt>
      <trkpt lat="45.7716" lon="5.78875">
        <ele>396.8</ele>
        <time>2021-08-22T10:23:02Z</time>
      </trkpt>
      <trkpt lat="45.7716" lon="5.78875">
        <ele>396.9</ele>
        <time>2021-08-22T10:23:04Z</time>
      </trkpt>
      <trkpt lat="45.7716" lon="5.78875">
        <ele>396.9</ele>
        <time>2021-08-22T10:23:05Z</time>
      </trkpt>
      <trkpt lat="45.7716" lon="5.78877">
        <ele>397.1</ele>
        <time>2021-08-22T10:23:07Z</time>
      </trkpt>
      <trkpt lat="45.7716" lon="5.78879">
        <ele>397.3</ele>
        <time>2021-08-22T10:23:08Z</time>
      </trkpt>
      <trkpt lat="45.77158" lon="5.78882">
        <ele>397.6</ele>
        <time>2021-08-22T10:23:09Z</time>
      </trkpt>
      <trkpt lat="45.77156" lon="5.78883">
        <ele>397.8</ele>
        <time>2021-08-22T10:23:11Z</time>
      </trkpt>
      <trkpt lat="45.77155" lon="5.78885">
        <ele>397.9</ele>
        <time>2021-08-22T10:23:12Z</time>
      </trkpt>
      <trkpt lat="45.77154" lon="5.78886">
        <ele>398.1</ele>
        <time>2021-08-22T10:23:13Z</time>
      </trkpt>
      <trkpt lat="45.7715" lon="5.78888">
        <ele>398.5</ele>
        <time>2021-08-22T10:23:15Z</time>
      </trkpt>
      <trkpt lat="45.7715" lon="5.78889">
        <ele>398.5</ele>
        <time>2021-08-22T10:23:16Z</time>
      </trkpt>
      <trkpt lat="45.77149" lon="5.78889">
        <ele>398.6</ele>
        <time>2021-08-22T10:23:18Z</time>
      </trkpt>
      <trkpt lat="45.77148" lon="5.7889">
        <ele>398.7</ele>
        <time>2021-08-22T10:23:19Z</time>
      </trkpt>
      <trkpt lat="45.77148" lon="5.7889">
        <ele>398.7</ele>
        <time>2021-08-22T10:23:20Z</time>
      </trkpt>
      <trkpt lat="45.77148" lon="5.7889">
        <ele>398.7</ele>
        <time>2021-08-22T10:23:21Z</time>
      </trkpt>
      <trkpt lat="45.77148" lon="5.7889">
        <ele>398.7</ele>
        <time>2021-08-22T10:23:22Z</time>
      </trkpt>
      <trkpt lat="45.77148" lon="5.7889">
        <ele>398.7</ele>
        <time>2021-08-22T10:23:23Z</time>
      </trkpt>
      <trkpt lat="45.77119" lon="5.78908">
        <ele>401</ele>
        <time>2021-08-22T10:23:49Z</time>
      </trkpt>
      <trkpt lat="45.77117" lon="5.78909">
        <ele>401.1</ele>
        <time>2021-08-22T10:23:50Z</time>
      </trkpt>
      <trkpt lat="45.77113" lon="5.7891">
        <ele>401.4</ele>
        <time>2021-08-22T10:23:52Z</time>
      </trkpt>
      <trkpt lat="45.7711" lon="5.78911">
        <ele>401.6</ele>
        <time>2021-08-22T10:23:53Z</time>
      </trkpt>
      <trkpt lat="45.77105" lon="5.78912">
        <ele>401.9</ele>
        <time>2021-08-22T10:23:55Z</time>
      </trkpt>
      <trkpt lat="45.77101" lon="5.78912">
        <ele>402.2</ele>
        <time>2021-08-22T10:23:56Z</time>
      </trkpt>
      <trkpt lat="45.77099" lon="5.78911">
        <ele>402.4</ele>
        <time>2021-08-22T10:23:57Z</time>
      </trkpt>
      <trkpt lat="45.77096" lon="5.78908">
        <ele>402.7</ele>
        <time>2021-08-22T10:23:58Z</time>
      </trkpt>
      <trkpt lat="45.77092" lon="5.78905">
        <ele>403</ele>
        <time>2021-08-22T10:23:59Z</time>
      </trkpt>
      <trkpt lat="45.77089" lon="5.78903">
        <ele>403.2</ele>
        <time>2021-08-22T10:24:00Z</time>
      </trkpt>
      <trkpt lat="45.77084" lon="5.78902">
        <ele>403.5</ele>
        <time>2021-08-22T10:24:02Z</time>
      </trkpt>
      <trkpt lat="45.77083" lon="5.78902">
        <ele>403.5</ele>
        <time>2021-08-22T10:24:03Z</time>
      </trkpt>
      <trkpt lat="45.77081" lon="5.78902">
        <ele>403.6</ele>
        <time>2021-08-22T10:24:04Z</time>
      </trkpt>
      <trkpt lat="45.7708" lon="5.78902">
        <ele>403.7</ele>
        <time>2021-08-22T10:24:05Z</time>
      </trkpt>
      <trkpt lat="45.77079" lon="5.78901">
        <ele>403.8</ele>
        <time>2021-08-22T10:24:06Z</time>
      </trkpt>
      <trkpt lat="45.77079" lon="5.78902">
        <ele>403.8</ele>
        <time>2021-08-22T10:24:07Z</time>
      </trkpt>
      <trkpt lat="45.77078" lon="5.78903">
        <ele>403.9</ele>
        <time>2021-08-22T10:24:08Z</time>
      </trkpt>
      <trkpt lat="45.77077" lon="5.78903">
        <ele>404</ele>
        <time>2021-08-22T10:24:10Z</time>
      </trkpt>
      <trkpt lat="45.77075" lon="5.78904">
        <ele>404.1</ele>
        <time>2021-08-22T10:24:11Z</time>
      </trkpt>
      <trkpt lat="45.77072" lon="5.78906">
        <ele>404.3</ele>
        <time>2021-08-22T10:24:12Z</time>
      </trkpt>
      <trkpt lat="45.77071" lon="5.78907">
        <ele>404.3</ele>
        <time>2021-08-22T10:24:13Z</time>
      </trkpt>
      <trkpt lat="45.77069" lon="5.78908">
        <ele>404.4</ele>
        <time>2021-08-22T10:24:14Z</time>
      </trkpt>
      <trkpt lat="45.77067" lon="5.78908">
        <ele>404.6</ele>
        <time>2021-08-22T10:24:16Z</time>
      </trkpt>
      <trkpt lat="45.77066" lon="5.78908">
        <ele>404.6</ele>
        <time>2021-08-22T10:24:17Z</time>
      </trkpt>
      <trkpt lat="45.77064" lon="5.78909">
        <ele>404.7</ele>
        <time>2021-08-22T10:24:18Z</time>
      </trkpt>
      <trkpt lat="45.77061" lon="5.78909">
        <ele>404.9</ele>
        <time>2021-08-22T10:24:19Z</time>
      </trkpt>
      <trkpt lat="45.7706" lon="5.78909">
        <ele>404.9</ele>
        <time>2021-08-22T10:24:20Z</time>
      </trkpt>
      <trkpt lat="45.77058" lon="5.78909">
        <ele>405</ele>
        <time>2021-08-22T10:24:21Z</time>
      </trkpt>
      <trkpt lat="45.77057" lon="5.78909">
        <ele>405.1</ele>
        <time>2021-08-22T10:24:22Z</time>
      </trkpt>
      <trkpt lat="45.77054" lon="5.78908">
        <ele>405.3</ele>
        <time>2021-08-22T10:24:23Z</time>
      </trkpt>
      <trkpt lat="45.7705" lon="5.78906">
        <ele>405.5</ele>
        <time>2021-08-22T10:24:24Z</time>
      </trkpt>
      <trkpt lat="45.77049" lon="5.78906">
        <ele>405.5</ele>
        <time>2021-08-22T10:24:25Z</time>
      </trkpt>
      <trkpt lat="45.77047" lon="5.78905">
        <ele>405.6</ele>
        <time>2021-08-22T10:24:27Z</time>
      </trkpt>
      <trkpt lat="45.77045" lon="5.78906">
        <ele>405.6</ele>
        <time>2021-08-22T10:24:28Z</time>
      </trkpt>
      <trkpt lat="45.77042" lon="5.78906">
        <ele>405.8</ele>
        <time>2021-08-22T10:24:29Z</time>
      </trkpt>
      <trkpt lat="45.77042" lon="5.78906">
        <ele>405.8</ele>
        <time>2021-08-22T10:24:30Z</time>
      </trkpt>
      <trkpt lat="45.77038" lon="5.78904">
        <ele>405.9</ele>
        <time>2021-08-22T10:24:31Z</time>
      </trkpt>
      <trkpt lat="45.77037" lon="5.78904">
        <ele>405.9</ele>
        <time>2021-08-22T10:24:32Z</time>
      </trkpt>
      <trkpt lat="45.77033" lon="5.78901">
        <ele>406.1</ele>
        <time>2021-08-22T10:24:34Z</time>
      </trkpt>
      <trkpt lat="45.77029" lon="5.78899">
        <ele>406.2</ele>
        <time>2021-08-22T10:24:35Z</time>
      </trkpt>
      <trkpt lat="45.77026" lon="5.78899">
        <ele>406.3</ele>
        <time>2021-08-22T10:24:36Z</time>
      </trkpt>
      <trkpt lat="45.77025" lon="5.78899">
        <ele>406.4</ele>
        <time>2021-08-22T10:24:37Z</time>
      </trkpt>
      <trkpt lat="45.77023" lon="5.78897">
        <ele>406.4</ele>
        <time>2021-08-22T10:24:38Z</time>
      </trkpt>
      <trkpt lat="45.77019" lon="5.78895">
        <ele>406.6</ele>
        <time>2021-08-22T10:24:40Z</time>
      </trkpt>
      <trkpt lat="45.77017" lon="5.78895">
        <ele>406.6</ele>
        <time>2021-08-22T10:24:41Z</time>
      </trkpt>
      <trkpt lat="45.77016" lon="5.78894">
        <ele>406.7</ele>
        <time>2021-08-22T10:24:42Z</time>
      </trkpt>
      <trkpt lat="45.77012" lon="5.78893">
        <ele>406.8</ele>
        <time>2021-08-22T10:24:43Z</time>
      </trkpt>
      <trkpt lat="45.77011" lon="5.78893">
        <ele>406.8</ele>
        <time>2021-08-22T10:24:44Z</time>
      </trkpt>
      <trkpt lat="45.77008" lon="5.78892">
        <ele>407</ele>
        <time>2021-08-22T10:24:45Z</time>
      </trkpt>
      <trkpt lat="45.77007" lon="5.78891">
        <ele>407</ele>
        <time>2021-08-22T10:24:46Z</time>
      </trkpt>
      <trkpt lat="45.77002" lon="5.7889">
        <ele>407.2</ele>
        <time>2021-08-22T10:24:48Z</time>
      </trkpt>
      <trkpt lat="45.77001" lon="5.7889">
        <ele>407.2</ele>
        <time>2021-08-22T10:24:49Z</time>
      </trkpt>
      <trkpt lat="45.76999" lon="5.7889">
        <ele>407.3</ele>
        <time>2021-08-22T10:24:50Z</time>
      </trkpt>
      <trkpt lat="45.76996" lon="5.7889">
        <ele>407.4</ele>
        <time>2021-08-22T10:24:51Z</time>
      </trkpt>
      <trkpt lat="45.76993" lon="5.78892">
        <ele>407.6</ele>
        <time>2021-08-22T10:24:53Z</time>
      </trkpt>
      <trkpt lat="45.76992" lon="5.78892">
        <ele>407.6</ele>
        <time>2021-08-22T10:24:54Z</time>
      </trkpt>
      <trkpt lat="45.76989" lon="5.78892">
        <ele>407.8</ele>
        <time>2021-08-22T10:24:55Z</time>
      </trkpt>
      <trkpt lat="45.76988" lon="5.78891">
        <ele>407.8</ele>
        <time>2021-08-22T10:24:56Z</time>
      </trkpt>
      <trkpt lat="45.76985" lon="5.78889">
        <ele>408</ele>
        <time>2021-08-22T10:24:57Z</time>
      </trkpt>
      <trkpt lat="45.76984" lon="5.78887">
        <ele>408</ele>
        <time>2021-08-22T10:24:58Z</time>
      </trkpt>
      <trkpt lat="45.76981" lon="5.78885">
        <ele>408.2</ele>
        <time>2021-08-22T10:24:59Z</time>
      </trkpt>
      <trkpt lat="45.7698" lon="5.78884">
        <ele>408.3</ele>
        <time>2021-08-22T10:25:00Z</time>
      </trkpt>
      <trkpt lat="45.76976" lon="5.78883">
        <ele>408.5</ele>
        <time>2021-08-22T10:25:02Z</time>
      </trkpt>
      <trkpt lat="45.76974" lon="5.78883">
        <ele>408.6</ele>
        <time>2021-08-22T10:25:03Z</time>
      </trkpt>
      <trkpt lat="45.76972" lon="5.78883">
        <ele>408.6</ele>
        <time>2021-08-22T10:25:04Z</time>
      </trkpt>
      <trkpt lat="45.7697" lon="5.78884">
        <ele>408.8</ele>
        <time>2021-08-22T10:25:05Z</time>
      </trkpt>
      <trkpt lat="45.76966" lon="5.78885">
        <ele>409</ele>
        <time>2021-08-22T10:25:06Z</time>
      </trkpt>
      <trkpt lat="45.76965" lon="5.78885">
        <ele>409</ele>
        <time>2021-08-22T10:25:07Z</time>
      </trkpt>
      <trkpt lat="45.76964" lon="5.78886">
        <ele>409.1</ele>
        <time>2021-08-22T10:25:09Z</time>
      </trkpt>
      <trkpt lat="45.76962" lon="5.78887">
        <ele>409.2</ele>
        <time>2021-08-22T10:25:10Z</time>
      </trkpt>
      <trkpt lat="45.7696" lon="5.78888">
        <ele>409.3</ele>
        <time>2021-08-22T10:25:11Z</time>
      </trkpt>
      <trkpt lat="45.76959" lon="5.78889">
        <ele>409.3</ele>
        <time>2021-08-22T10:25:12Z</time>
      </trkpt>
      <trkpt lat="45.76956" lon="5.78889">
        <ele>409.4</ele>
        <time>2021-08-22T10:25:13Z</time>
      </trkpt>
      <trkpt lat="45.76954" lon="5.7889">
        <ele>409.5</ele>
        <time>2021-08-22T10:25:15Z</time>
      </trkpt>
      <trkpt lat="45.7695" lon="5.78892">
        <ele>409.6</ele>
        <time>2021-08-22T10:25:16Z</time>
      </trkpt>
      <trkpt lat="45.76949" lon="5.78893">
        <ele>409.6</ele>
        <time>2021-08-22T10:25:17Z</time>
      </trkpt>
      <trkpt lat="45.76946" lon="5.78896">
        <ele>409.6</ele>
        <time>2021-08-22T10:25:18Z</time>
      </trkpt>
      <trkpt lat="45.76944" lon="5.78896">
        <ele>409.5</ele>
        <time>2021-08-22T10:25:19Z</time>
      </trkpt>
      <trkpt lat="45.7694" lon="5.78897">
        <ele>409.5</ele>
        <time>2021-08-22T10:25:20Z</time>
      </trkpt>
      <trkpt lat="45.76938" lon="5.78897">
        <ele>409.4</ele>
        <time>2021-08-22T10:25:21Z</time>
      </trkpt>
      <trkpt lat="45.76934" lon="5.78899">
        <ele>409.3</ele>
        <time>2021-08-22T10:25:23Z</time>
      </trkpt>
      <trkpt lat="45.7693" lon="5.78899">
        <ele>409.1</ele>
        <time>2021-08-22T10:25:25Z</time>
      </trkpt>
      <trkpt lat="45.76927" lon="5.78898">
        <ele>408.6</ele>
        <time>2021-08-22T10:25:26Z</time>
      </trkpt>
      <trkpt lat="45.76924" lon="5.78902">
        <ele>408.3</ele>
        <time>2021-08-22T10:25:28Z</time>
      </trkpt>
      <trkpt lat="45.76922" lon="5.78903">
        <ele>408.2</ele>
        <time>2021-08-22T10:25:29Z</time>
      </trkpt>
      <trkpt lat="45.76921" lon="5.78905">
        <ele>408.1</ele>
        <time>2021-08-22T10:25:30Z</time>
      </trkpt>
      <trkpt lat="45.76921" lon="5.78906">
        <ele>408</ele>
        <time>2021-08-22T10:25:31Z</time>
      </trkpt>
      <trkpt lat="45.76921" lon="5.78908">
        <ele>407.9</ele>
        <time>2021-08-22T10:25:33Z</time>
      </trkpt>
      <trkpt lat="45.76921" lon="5.78908">
        <ele>407.9</ele>
        <time>2021-08-22T10:25:35Z</time>
      </trkpt>
      <trkpt lat="45.76921" lon="5.78908">
        <ele>407.9</ele>
        <time>2021-08-22T10:25:36Z</time>
      </trkpt>
      <trkpt lat="45.76921" lon="5.78909">
        <ele>407.9</ele>
        <time>2021-08-22T10:25:38Z</time>
      </trkpt>
      <trkpt lat="45.76921" lon="5.78909">
        <ele>407.9</ele>
        <time>2021-08-22T10:25:39Z</time>
      </trkpt>
      <trkpt lat="45.76931" lon="5.78902">
        <ele>409.1</ele>
        <time>2021-08-22T10:26:14Z</time>
      </trkpt>
      <trkpt lat="45.76934" lon="5.78903">
        <ele>409.3</ele>
        <time>2021-08-22T10:26:15Z</time>
      </trkpt>
      <trkpt lat="45.76938" lon="5.78903">
        <ele>409.4</ele>
        <time>2021-08-22T10:26:16Z</time>
      </trkpt>
      <trkpt lat="45.76942" lon="5.78903">
        <ele>409.2</ele>
        <time>2021-08-22T10:26:17Z</time>
      </trkpt>
      <trkpt lat="45.76946" lon="5.78903">
        <ele>408.7</ele>
        <time>2021-08-22T10:26:18Z</time>
      </trkpt>
      <trkpt lat="45.7695" lon="5.78904">
        <ele>408.1</ele>
        <time>2021-08-22T10:26:20Z</time>
      </trkpt>
      <trkpt lat="45.76953" lon="5.78906">
        <ele>407.6</ele>
        <time>2021-08-22T10:26:21Z</time>
      </trkpt>
      <trkpt lat="45.76956" lon="5.78909">
        <ele>407.2</ele>
        <time>2021-08-22T10:26:23Z</time>
      </trkpt>
      <trkpt lat="45.7696" lon="5.7891">
        <ele>406.7</ele>
        <time>2021-08-22T10:26:24Z</time>
      </trkpt>
      <trkpt lat="45.76963" lon="5.78911">
        <ele>406.4</ele>
        <time>2021-08-22T10:26:25Z</time>
      </trkpt>
      <trkpt lat="45.76965" lon="5.78912">
        <ele>406.1</ele>
        <time>2021-08-22T10:26:26Z</time>
      </trkpt>
      <trkpt lat="45.76969" lon="5.78917">
        <ele>405.6</ele>
        <time>2021-08-22T10:26:28Z</time>
      </trkpt>
      <trkpt lat="45.76971" lon="5.7892">
        <ele>405.2</ele>
        <time>2021-08-22T10:26:29Z</time>
      </trkpt>
      <trkpt lat="45.76972" lon="5.78921">
        <ele>405</ele>
        <time>2021-08-22T10:26:30Z</time>
      </trkpt>
      <trkpt lat="45.76975" lon="5.78925">
        <ele>405.1</ele>
        <time>2021-08-22T10:26:32Z</time>
      </trkpt>
      <trkpt lat="45.76976" lon="5.78928">
        <ele>405.4</ele>
        <time>2021-08-22T10:26:33Z</time>
      </trkpt>
      <trkpt lat="45.76979" lon="5.78933">
        <ele>406</ele>
        <time>2021-08-22T10:26:35Z</time>
      </trkpt>
      <trkpt lat="45.76981" lon="5.78937">
        <ele>406.4</ele>
        <time>2021-08-22T10:26:36Z</time>
      </trkpt>
      <trkpt lat="45.76983" lon="5.78942">
        <ele>406.9</ele>
        <time>2021-08-22T10:26:38Z</time>
      </trkpt>
      <trkpt lat="45.76983" lon="5.78947">
        <ele>407.3</ele>
        <time>2021-08-22T10:26:39Z</time>
      </trkpt>
      <trkpt lat="45.76981" lon="5.78955">
        <ele>408.1</ele>
        <time>2021-08-22T10:26:41Z</time>
      </trkpt>
      <trkpt lat="45.7698" lon="5.78962">
        <ele>408.7</ele>
        <time>2021-08-22T10:26:43Z</time>
      </trkpt>
      <trkpt lat="45.7698" lon="5.78966">
        <ele>409</ele>
        <time>2021-08-22T10:26:44Z</time>
      </trkpt>
      <trkpt lat="45.76978" lon="5.78969">
        <ele>409.4</ele>
        <time>2021-08-22T10:26:45Z</time>
      </trkpt>
      <trkpt lat="45.76977" lon="5.78975">
        <ele>409.9</ele>
        <time>2021-08-22T10:26:47Z</time>
      </trkpt>
      <trkpt lat="45.76976" lon="5.78979">
        <ele>410.3</ele>
        <time>2021-08-22T10:26:48Z</time>
      </trkpt>
      <trkpt lat="45.76972" lon="5.78986">
        <ele>411</ele>
        <time>2021-08-22T10:26:50Z</time>
      </trkpt>
      <trkpt lat="45.76971" lon="5.78991">
        <ele>411.4</ele>
        <time>2021-08-22T10:26:51Z</time>
      </trkpt>
      <trkpt lat="45.7697" lon="5.78996">
        <ele>411.8</ele>
        <time>2021-08-22T10:26:52Z</time>
      </trkpt>
      <trkpt lat="45.7697" lon="5.79">
        <ele>412.2</ele>
        <time>2021-08-22T10:26:53Z</time>
      </trkpt>
      <trkpt lat="45.76969" lon="5.79005">
        <ele>412.6</ele>
        <time>2021-08-22T10:26:55Z</time>
      </trkpt>
      <trkpt lat="45.76971" lon="5.79009">
        <ele>412.7</ele>
        <time>2021-08-22T10:26:56Z</time>
      </trkpt>
      <trkpt lat="45.76974" lon="5.79012">
        <ele>413</ele>
        <time>2021-08-22T10:26:57Z</time>
      </trkpt>
      <trkpt lat="45.76976" lon="5.79013">
        <ele>413.1</ele>
        <time>2021-08-22T10:26:58Z</time>
      </trkpt>
      <trkpt lat="45.7698" lon="5.79015">
        <ele>413.4</ele>
        <time>2021-08-22T10:27:00Z</time>
      </trkpt>
      <trkpt lat="45.76987" lon="5.79016">
        <ele>413.8</ele>
        <time>2021-08-22T10:27:02Z</time>
      </trkpt>
      <trkpt lat="45.76991" lon="5.79018">
        <ele>414.1</ele>
        <time>2021-08-22T10:27:03Z</time>
      </trkpt>
      <trkpt lat="45.76995" lon="5.7902">
        <ele>414.3</ele>
        <time>2021-08-22T10:27:05Z</time>
      </trkpt>
      <trkpt lat="45.77002" lon="5.79022">
        <ele>414.7</ele>
        <time>2021-08-22T10:27:07Z</time>
      </trkpt>
      <trkpt lat="45.77008" lon="5.79022">
        <ele>415.1</ele>
        <time>2021-08-22T10:27:09Z</time>
      </trkpt>
      <trkpt lat="45.77014" lon="5.79024">
        <ele>415.5</ele>
        <time>2021-08-22T10:27:11Z</time>
      </trkpt>
      <trkpt lat="45.77016" lon="5.79024">
        <ele>415.6</ele>
        <time>2021-08-22T10:27:12Z</time>
      </trkpt>
      <trkpt lat="45.77018" lon="5.79024">
        <ele>415.8</ele>
        <time>2021-08-22T10:27:14Z</time>
      </trkpt>
      <trkpt lat="45.77022" lon="5.79024">
        <ele>416</ele>
        <time>2021-08-22T10:27:15Z</time>
      </trkpt>
      <trkpt lat="45.77023" lon="5.79024">
        <ele>416.1</ele>
        <time>2021-08-22T10:27:16Z</time>
      </trkpt>
      <trkpt lat="45.77027" lon="5.79025">
        <ele>416.3</ele>
        <time>2021-08-22T10:27:18Z</time>
      </trkpt>
      <trkpt lat="45.77028" lon="5.79025">
        <ele>416.4</ele>
        <time>2021-08-22T10:27:19Z</time>
      </trkpt>
      <trkpt lat="45.7703" lon="5.79026">
        <ele>416.4</ele>
        <time>2021-08-22T10:27:20Z</time>
      </trkpt>
      <trkpt lat="45.77033" lon="5.79026">
        <ele>416.6</ele>
        <time>2021-08-22T10:27:21Z</time>
      </trkpt>
      <trkpt lat="45.77034" lon="5.79026">
        <ele>416.7</ele>
        <time>2021-08-22T10:27:22Z</time>
      </trkpt>
      <trkpt lat="45.77035" lon="5.79027">
        <ele>416.8</ele>
        <time>2021-08-22T10:27:23Z</time>
      </trkpt>
      <trkpt lat="45.77038" lon="5.79028">
        <ele>416.9</ele>
        <time>2021-08-22T10:27:25Z</time>
      </trkpt>
      <trkpt lat="45.77039" lon="5.79028">
        <ele>417</ele>
        <time>2021-08-22T10:27:26Z</time>
      </trkpt>
      <trkpt lat="45.77042" lon="5.79028">
        <ele>417.1</ele>
        <time>2021-08-22T10:27:28Z</time>
      </trkpt>
      <trkpt lat="45.77044" lon="5.79028">
        <ele>417.2</ele>
        <time>2021-08-22T10:27:29Z</time>
      </trkpt>
      <trkpt lat="45.77045" lon="5.79029">
        <ele>417.3</ele>
        <time>2021-08-22T10:27:30Z</time>
      </trkpt>
      <trkpt lat="45.77049" lon="5.79032">
        <ele>417.5</ele>
        <time>2021-08-22T10:27:31Z</time>
      </trkpt>
      <trkpt lat="45.7705" lon="5.79033">
        <ele>417.6</ele>
        <time>2021-08-22T10:27:32Z</time>
      </trkpt>
      <trkpt lat="45.77053" lon="5.79035">
        <ele>417.7</ele>
        <time>2021-08-22T10:27:33Z</time>
      </trkpt>
      <trkpt lat="45.77053" lon="5.79036">
        <ele>417.8</ele>
        <time>2021-08-22T10:27:34Z</time>
      </trkpt>
      <trkpt lat="45.77056" lon="5.79038">
        <ele>417.9</ele>
        <time>2021-08-22T10:27:35Z</time>
      </trkpt>
      <trkpt lat="45.77057" lon="5.79039">
        <ele>418</ele>
        <time>2021-08-22T10:27:36Z</time>
      </trkpt>
      <trkpt lat="45.77059" lon="5.7904">
        <ele>418</ele>
        <time>2021-08-22T10:27:37Z</time>
      </trkpt>
      <trkpt lat="45.77061" lon="5.79044">
        <ele>418.2</ele>
        <time>2021-08-22T10:27:39Z</time>
      </trkpt>
      <trkpt lat="45.77063" lon="5.79048">
        <ele>418.3</ele>
        <time>2021-08-22T10:27:40Z</time>
      </trkpt>
      <trkpt lat="45.77063" lon="5.7905">
        <ele>418.4</ele>
        <time>2021-08-22T10:27:41Z</time>
      </trkpt>
      <trkpt lat="45.77065" lon="5.79053">
        <ele>418.5</ele>
        <time>2021-08-22T10:27:42Z</time>
      </trkpt>
      <trkpt lat="45.77067" lon="5.79057">
        <ele>418.6</ele>
        <time>2021-08-22T10:27:44Z</time>
      </trkpt>
      <trkpt lat="45.77069" lon="5.7906">
        <ele>418.7</ele>
        <time>2021-08-22T10:27:45Z</time>
      </trkpt>
      <trkpt lat="45.77072" lon="5.79065">
        <ele>418.9</ele>
        <time>2021-08-22T10:27:47Z</time>
      </trkpt>
      <trkpt lat="45.77073" lon="5.79068">
        <ele>419</ele>
        <time>2021-08-22T10:27:48Z</time>
      </trkpt>
      <trkpt lat="45.77075" lon="5.79072">
        <ele>419.2</ele>
        <time>2021-08-22T10:27:50Z</time>
      </trkpt>
      <trkpt lat="45.77077" lon="5.79075">
        <ele>419.3</ele>
        <time>2021-08-22T10:27:51Z</time>
      </trkpt>
      <trkpt lat="45.77078" lon="5.79076">
        <ele>419.4</ele>
        <time>2021-08-22T10:27:52Z</time>
      </trkpt>
      <trkpt lat="45.7708" lon="5.79078">
        <ele>419.5</ele>
        <time>2021-08-22T10:27:53Z</time>
      </trkpt>
      <trkpt lat="45.77082" lon="5.79082">
        <ele>419.6</ele>
        <time>2021-08-22T10:27:55Z</time>
      </trkpt>
      <trkpt lat="45.77083" lon="5.79085">
        <ele>419.8</ele>
        <time>2021-08-22T10:27:56Z</time>
      </trkpt>
      <trkpt lat="45.77085" lon="5.79091">
        <ele>420</ele>
        <time>2021-08-22T10:27:58Z</time>
      </trkpt>
      <trkpt lat="45.77089" lon="5.79096">
        <ele>420.3</ele>
        <time>2021-08-22T10:28:00Z</time>
      </trkpt>
      <trkpt lat="45.7709" lon="5.79099">
        <ele>420.4</ele>
        <time>2021-08-22T10:28:02Z</time>
      </trkpt>
      <trkpt lat="45.77091" lon="5.79102">
        <ele>420.5</ele>
        <time>2021-08-22T10:28:03Z</time>
      </trkpt>
      <trkpt lat="45.77092" lon="5.79105">
        <ele>420.6</ele>
        <time>2021-08-22T10:28:05Z</time>
      </trkpt>
      <trkpt lat="45.77093" lon="5.79106">
        <ele>420.7</ele>
        <time>2021-08-22T10:28:06Z</time>
      </trkpt>
      <trkpt lat="45.77093" lon="5.79106">
        <ele>420.8</ele>
        <time>2021-08-22T10:28:07Z</time>
      </trkpt>
      <trkpt lat="45.77095" lon="5.79109">
        <ele>421</ele>
        <time>2021-08-22T10:28:09Z</time>
      </trkpt>
      <trkpt lat="45.77097" lon="5.7911">
        <ele>421.1</ele>
        <time>2021-08-22T10:28:10Z</time>
      </trkpt>
      <trkpt lat="45.77099" lon="5.79111">
        <ele>421.3</ele>
        <time>2021-08-22T10:28:11Z</time>
      </trkpt>
      <trkpt lat="45.77103" lon="5.79114">
        <ele>421.7</ele>
        <time>2021-08-22T10:28:13Z</time>
      </trkpt>
      <trkpt lat="45.77104" lon="5.79116">
        <ele>421.9</ele>
        <time>2021-08-22T10:28:15Z</time>
      </trkpt>
      <trkpt lat="45.77105" lon="5.79118">
        <ele>422.1</ele>
        <time>2021-08-22T10:28:17Z</time>
      </trkpt>
      <trkpt lat="45.77107" lon="5.7912">
        <ele>422.3</ele>
        <time>2021-08-22T10:28:18Z</time>
      </trkpt>
      <trkpt lat="45.7711" lon="5.79123">
        <ele>422.7</ele>
        <time>2021-08-22T10:28:19Z</time>
      </trkpt>
      <trkpt lat="45.7711" lon="5.79123">
        <ele>422.8</ele>
        <time>2021-08-22T10:28:20Z</time>
      </trkpt>
      <trkpt lat="45.77112" lon="5.79123">
        <ele>422.9</ele>
        <time>2021-08-22T10:28:21Z</time>
      </trkpt>
      <trkpt lat="45.77112" lon="5.79124">
        <ele>422.9</ele>
        <time>2021-08-22T10:28:22Z</time>
      </trkpt>
      <trkpt lat="45.77111" lon="5.79123">
        <ele>423</ele>
        <time>2021-08-22T10:28:23Z</time>
      </trkpt>
      <trkpt lat="45.77111" lon="5.79123">
        <ele>423</ele>
        <time>2021-08-22T10:28:24Z</time>
      </trkpt>
      <trkpt lat="45.77111" lon="5.79123">
        <ele>423</ele>
        <time>2021-08-22T10:28:26Z</time>
      </trkpt>
      <trkpt lat="45.77112" lon="5.79123">
        <ele>423</ele>
        <time>2021-08-22T10:28:27Z</time>
      </trkpt>
      <trkpt lat="45.77112" lon="5.79123">
        <ele>423</ele>
        <time>2021-08-22T10:28:28Z</time>
      </trkpt>
      <trkpt lat="45.77112" lon="5.79123">
        <ele>423.1</ele>
        <time>2021-08-22T10:28:30Z</time>
      </trkpt>
      <trkpt lat="45.77112" lon="5.79123">
        <ele>423.1</ele>
        <time>2021-08-22T10:28:31Z</time>
      </trkpt>
      <trkpt lat="45.77088" lon="5.79182">
        <ele>430.2</ele>
        <time>2021-08-22T10:29:58Z</time>
      </trkpt>
      <trkpt lat="45.77085" lon="5.79184">
        <ele>430.3</ele>
        <time>2021-08-22T10:29:59Z</time>
      </trkpt>
      <trkpt lat="45.77083" lon="5.79185">
        <ele>430.4</ele>
        <time>2021-08-22T10:30:00Z</time>
      </trkpt>
      <trkpt lat="45.77081" lon="5.79186">
        <ele>430.5</ele>
        <time>2021-08-22T10:30:02Z</time>
      </trkpt>
      <trkpt lat="45.7708" lon="5.79189">
        <ele>430.6</ele>
        <time>2021-08-22T10:30:03Z</time>
      </trkpt>
      <trkpt lat="45.7708" lon="5.79191">
        <ele>430.7</ele>
        <time>2021-08-22T10:30:04Z</time>
      </trkpt>
      <trkpt lat="45.77079" lon="5.79193">
        <ele>430.8</ele>
        <time>2021-08-22T10:30:05Z</time>
      </trkpt>
      <trkpt lat="45.77078" lon="5.79197">
        <ele>430.9</ele>
        <time>2021-08-22T10:30:07Z</time>
      </trkpt>
      <trkpt lat="45.77078" lon="5.79197">
        <ele>431</ele>
        <time>2021-08-22T10:30:08Z</time>
      </trkpt>
      <trkpt lat="45.77078" lon="5.79198">
        <ele>431</ele>
        <time>2021-08-22T10:30:10Z</time>
      </trkpt>
      <trkpt lat="45.77078" lon="5.79198">
        <ele>431</ele>
        <time>2021-08-22T10:30:11Z</time>
      </trkpt>
      <trkpt lat="45.77078" lon="5.79198">
        <ele>431</ele>
        <time>2021-08-22T10:30:12Z</time>
      </trkpt>
      <trkpt lat="45.77078" lon="5.79198">
        <ele>431</ele>
        <time>2021-08-22T10:30:13Z</time>
      </trkpt>
      <trkpt lat="45.77078" lon="5.79199">
        <ele>431</ele>
        <time>2021-08-22T10:30:15Z</time>
      </trkpt>
      <trkpt lat="45.77078" lon="5.79199">
        <ele>431</ele>
        <time>2021-08-22T10:30:16Z</time>
      </trkpt>
      <trkpt lat="45.77078" lon="5.79199">
        <ele>431</ele>
        <time>2021-08-22T10:30:17Z</time>
      </trkpt>
      <trkpt lat="45.76886" lon="5.79236">
        <ele>453</ele>
        <time>2021-08-22T10:35:06Z</time>
      </trkpt>
      <trkpt lat="45.76883" lon="5.79237">
        <ele>453.3</ele>
        <time>2021-08-22T10:35:08Z</time>
      </trkpt>
      <trkpt lat="45.7688" lon="5.79238">
        <ele>453.6</ele>
        <time>2021-08-22T10:35:09Z</time>
      </trkpt>
      <trkpt lat="45.76878" lon="5.79239">
        <ele>453.8</ele>
        <time>2021-08-22T10:35:10Z</time>
      </trkpt>
      <trkpt lat="45.76876" lon="5.79239">
        <ele>454</ele>
        <time>2021-08-22T10:35:12Z</time>
      </trkpt>
      <trkpt lat="45.76875" lon="5.79239">
        <ele>454.1</ele>
        <time>2021-08-22T10:35:13Z</time>
      </trkpt>
      <trkpt lat="45.76875" lon="5.7924">
        <ele>454.2</ele>
        <time>2021-08-22T10:35:15Z</time>
      </trkpt>
      <trkpt lat="45.76875" lon="5.7924">
        <ele>454.2</ele>
        <time>2021-08-22T10:35:16Z</time>
      </trkpt>
      <trkpt lat="45.76874" lon="5.79241">
        <ele>454.3</ele>
        <time>2021-08-22T10:35:18Z</time>
      </trkpt>
      <trkpt lat="45.76874" lon="5.79242">
        <ele>454.4</ele>
        <time>2021-08-22T10:35:19Z</time>
      </trkpt>
      <trkpt lat="45.76874" lon="5.79242">
        <ele>454.4</ele>
        <time>2021-08-22T10:35:20Z</time>
      </trkpt>
      <trkpt lat="45.76874" lon="5.79242">
        <ele>454.4</ele>
        <time>2021-08-22T10:35:22Z</time>
      </trkpt>
      <trkpt lat="45.76824" lon="5.79278">
        <ele>461.5</ele>
        <time>2021-08-22T10:36:40Z</time>
      </trkpt>
      <trkpt lat="45.76821" lon="5.79278">
        <ele>461.8</ele>
        <time>2021-08-22T10:36:42Z</time>
      </trkpt>
      <trkpt lat="45.76817" lon="5.79282">
        <ele>462.2</ele>
        <time>2021-08-22T10:36:44Z</time>
      </trkpt>
      <trkpt lat="45.76814" lon="5.79287">
        <ele>462.5</ele>
        <time>2021-08-22T10:36:45Z</time>
      </trkpt>
      <trkpt lat="45.76811" lon="5.7929">
        <ele>462.8</ele>
        <time>2021-08-22T10:36:46Z</time>
      </trkpt>
      <trkpt lat="45.76806" lon="5.79295">
        <ele>463.1</ele>
        <time>2021-08-22T10:36:48Z</time>
      </trkpt>
      <trkpt lat="45.76804" lon="5.79298">
        <ele>463.3</ele>
        <time>2021-08-22T10:36:49Z</time>
      </trkpt>
      <trkpt lat="45.76801" lon="5.79303">
        <ele>463.5</ele>
        <time>2021-08-22T10:36:51Z</time>
      </trkpt>
      <trkpt lat="45.768" lon="5.79309">
        <ele>463.7</ele>
        <time>2021-08-22T10:36:53Z</time>
      </trkpt>
      <trkpt lat="45.76799" lon="5.79313">
        <ele>463.9</ele>
        <time>2021-08-22T10:36:54Z</time>
      </trkpt>
      <trkpt lat="45.76798" lon="5.79315">
        <ele>464</ele>
        <time>2021-08-22T10:36:55Z</time>
      </trkpt>
      <trkpt lat="45.76798" lon="5.79318">
        <ele>464.1</ele>
        <time>2021-08-22T10:36:56Z</time>
      </trkpt>
      <trkpt lat="45.76797" lon="5.7932">
        <ele>464.2</ele>
        <time>2021-08-22T10:36:58Z</time>
      </trkpt>
      <trkpt lat="45.76797" lon="5.79322">
        <ele>464.2</ele>
        <time>2021-08-22T10:36:59Z</time>
      </trkpt>
      <trkpt lat="45.76797" lon="5.79323">
        <ele>464.3</ele>
        <time>2021-08-22T10:37:00Z</time>
      </trkpt>
      <trkpt lat="45.76796" lon="5.79324">
        <ele>464.3</ele>
        <time>2021-08-22T10:37:01Z</time>
      </trkpt>
      <trkpt lat="45.76796" lon="5.79324">
        <ele>464.4</ele>
        <time>2021-08-22T10:37:03Z</time>
      </trkpt>
      <trkpt lat="45.76796" lon="5.79324">
        <ele>464.4</ele>
        <time>2021-08-22T10:37:04Z</time>
      </trkpt>
      <trkpt lat="45.76796" lon="5.79325">
        <ele>464.4</ele>
        <time>2021-08-22T10:37:05Z</time>
      </trkpt>
      <trkpt lat="45.76796" lon="5.79325">
        <ele>464.4</ele>
        <time>2021-08-22T10:37:07Z</time>
      </trkpt>
      <trkpt lat="45.76795" lon="5.79325">
        <ele>464.5</ele>
        <time>2021-08-22T10:37:08Z</time>
      </trkpt>
      <trkpt lat="45.76795" lon="5.79325">
        <ele>464.5</ele>
        <time>2021-08-22T10:37:10Z</time>
      </trkpt>
      <trkpt lat="45.76798" lon="5.79349">
        <ele>466.1</ele>
        <time>2021-08-22T10:37:44Z</time>
      </trkpt>
      <trkpt lat="45.76796" lon="5.79351">
        <ele>466.5</ele>
        <time>2021-08-22T10:37:46Z</time>
      </trkpt>
      <trkpt lat="45.76794" lon="5.79351">
        <ele>466.7</ele>
        <time>2021-08-22T10:37:47Z</time>
      </trkpt>
      <trkpt lat="45.76793" lon="5.7935">
        <ele>466.9</ele>
        <time>2021-08-22T10:37:49Z</time>
      </trkpt>
      <trkpt lat="45.76792" lon="5.7935">
        <ele>467</ele>
        <time>2021-08-22T10:37:50Z</time>
      </trkpt>
      <trkpt lat="45.76791" lon="5.79349">
        <ele>467.2</ele>
        <time>2021-08-22T10:37:52Z</time>
      </trkpt>
      <trkpt lat="45.7679" lon="5.79348">
        <ele>467.4</ele>
        <time>2021-08-22T10:37:53Z</time>
      </trkpt>
      <trkpt lat="45.76789" lon="5.79348">
        <ele>467.6</ele>
        <time>2021-08-22T10:37:55Z</time>
      </trkpt>
      <trkpt lat="45.76788" lon="5.79347">
        <ele>467.7</ele>
        <time>2021-08-22T10:37:56Z</time>
      </trkpt>
      <trkpt lat="45.76787" lon="5.79347">
        <ele>467.8</ele>
        <time>2021-08-22T10:37:57Z</time>
      </trkpt>
      <trkpt lat="45.76787" lon="5.79346">
        <ele>467.9</ele>
        <time>2021-08-22T10:37:59Z</time>
      </trkpt>
      <trkpt lat="45.76787" lon="5.79346">
        <ele>468</ele>
        <time>2021-08-22T10:38:00Z</time>
      </trkpt>
      <trkpt lat="45.76786" lon="5.79346">
        <ele>468.1</ele>
        <time>2021-08-22T10:38:02Z</time>
      </trkpt>
      <trkpt lat="45.76786" lon="5.79345">
        <ele>468.1</ele>
        <time>2021-08-22T10:38:03Z</time>
      </trkpt>
      <trkpt lat="45.76785" lon="5.79345">
        <ele>468.2</ele>
        <time>2021-08-22T10:38:05Z</time>
      </trkpt>
      <trkpt lat="45.76785" lon="5.79345">
        <ele>468.2</ele>
        <time>2021-08-22T10:38:06Z</time>
      </trkpt>
      <trkpt lat="45.76785" lon="5.79345">
        <ele>468.3</ele>
        <time>2021-08-22T10:38:08Z</time>
      </trkpt>
      <trkpt lat="45.76784" lon="5.79347">
        <ele>468.6</ele>
        <time>2021-08-22T10:38:09Z</time>
      </trkpt>
      <trkpt lat="45.76783" lon="5.79352">
        <ele>469.1</ele>
        <time>2021-08-22T10:38:11Z</time>
      </trkpt>
      <trkpt lat="45.76782" lon="5.79357">
        <ele>469.6</ele>
        <time>2021-08-22T10:38:13Z</time>
      </trkpt>
      <trkpt lat="45.76781" lon="5.7936">
        <ele>469.8</ele>
        <time>2021-08-22T10:38:14Z</time>
      </trkpt>
      <trkpt lat="45.76779" lon="5.79362">
        <ele>470.1</ele>
        <time>2021-08-22T10:38:16Z</time>
      </trkpt>
      <trkpt lat="45.76777" lon="5.79365">
        <ele>470.5</ele>
        <time>2021-08-22T10:38:17Z</time>
      </trkpt>
      <trkpt lat="45.76776" lon="5.79367">
        <ele>470.6</ele>
        <time>2021-08-22T10:38:18Z</time>
      </trkpt>
      <trkpt lat="45.76774" lon="5.79371">
        <ele>471</ele>
        <time>2021-08-22T10:38:20Z</time>
      </trkpt>
      <trkpt lat="45.76772" lon="5.79373">
        <ele>471.2</ele>
        <time>2021-08-22T10:38:21Z</time>
      </trkpt>
      <trkpt lat="45.76769" lon="5.79376">
        <ele>471.5</ele>
        <time>2021-08-22T10:38:23Z</time>
      </trkpt>
      <trkpt lat="45.76768" lon="5.79378">
        <ele>471.6</ele>
        <time>2021-08-22T10:38:25Z</time>
      </trkpt>
      <trkpt lat="45.76767" lon="5.79378">
        <ele>471.6</ele>
        <time>2021-08-22T10:38:26Z</time>
      </trkpt>
      <trkpt lat="45.76767" lon="5.79378">
        <ele>471.7</ele>
        <time>2021-08-22T10:38:27Z</time>
      </trkpt>
      <trkpt lat="45.76766" lon="5.79378">
        <ele>471.7</ele>
        <time>2021-08-22T10:38:29Z</time>
      </trkpt>
      <trkpt lat="45.76746" lon="5.79384">
        <ele>473.2</ele>
        <time>2021-08-22T10:38:46Z</time>
      </trkpt>
      <trkpt lat="45.76745" lon="5.79384">
        <ele>473.4</ele>
        <time>2021-08-22T10:38:47Z</time>
      </trkpt>
      <trkpt lat="45.76744" lon="5.79383">
        <ele>473.4</ele>
        <time>2021-08-22T10:38:48Z</time>
      </trkpt>
      <trkpt lat="45.7674" lon="5.79384">
        <ele>473.7</ele>
        <time>2021-08-22T10:38:50Z</time>
      </trkpt>
      <trkpt lat="45.76739" lon="5.79386">
        <ele>473.8</ele>
        <time>2021-08-22T10:38:51Z</time>
      </trkpt>
      <trkpt lat="45.76739" lon="5.79387">
        <ele>473.9</ele>
        <time>2021-08-22T10:38:52Z</time>
      </trkpt>
      <trkpt lat="45.76738" lon="5.79388">
        <ele>474</ele>
        <time>2021-08-22T10:38:53Z</time>
      </trkpt>
      <trkpt lat="45.76738" lon="5.79389">
        <ele>474</ele>
        <time>2021-08-22T10:38:54Z</time>
      </trkpt>
      <trkpt lat="45.76738" lon="5.7939">
        <ele>474.1</ele>
        <time>2021-08-22T10:38:56Z</time>
      </trkpt>
      <trkpt lat="45.76738" lon="5.7939">
        <ele>474.1</ele>
        <time>2021-08-22T10:38:57Z</time>
      </trkpt>
      <trkpt lat="45.76738" lon="5.79391">
        <ele>474.1</ele>
        <time>2021-08-22T10:38:59Z</time>
      </trkpt>
      <trkpt lat="45.76737" lon="5.79391">
        <ele>474.1</ele>
        <time>2021-08-22T10:39:00Z</time>
      </trkpt>
      <trkpt lat="45.76723" lon="5.79413">
        <ele>475.4</ele>
        <time>2021-08-22T10:39:14Z</time>
      </trkpt>
      <trkpt lat="45.76721" lon="5.79417">
        <ele>475.5</ele>
        <time>2021-08-22T10:39:15Z</time>
      </trkpt>
      <trkpt lat="45.76718" lon="5.79421">
        <ele>475.6</ele>
        <time>2021-08-22T10:39:17Z</time>
      </trkpt>
      <trkpt lat="45.76715" lon="5.79427">
        <ele>475.6</ele>
        <time>2021-08-22T10:39:19Z</time>
      </trkpt>
      <trkpt lat="45.76714" lon="5.79428">
        <ele>475.6</ele>
        <time>2021-08-22T10:39:20Z</time>
      </trkpt>
      <trkpt lat="45.76711" lon="5.79432">
        <ele>475.6</ele>
        <time>2021-08-22T10:39:22Z</time>
      </trkpt>
      <trkpt lat="45.76708" lon="5.79433">
        <ele>475.5</ele>
        <time>2021-08-22T10:39:23Z</time>
      </trkpt>
      <trkpt lat="45.76706" lon="5.79434">
        <ele>475.4</ele>
        <time>2021-08-22T10:39:24Z</time>
      </trkpt>
      <trkpt lat="45.76702" lon="5.79433">
        <ele>475.3</ele>
        <time>2021-08-22T10:39:26Z</time>
      </trkpt>
      <trkpt lat="45.76697" lon="5.79435">
        <ele>475.1</ele>
        <time>2021-08-22T10:39:28Z</time>
      </trkpt>
      <trkpt lat="45.76693" lon="5.79436">
        <ele>475</ele>
        <time>2021-08-22T10:39:29Z</time>
      </trkpt>
      <trkpt lat="45.76689" lon="5.79437">
        <ele>474.8</ele>
        <time>2021-08-22T10:39:30Z</time>
      </trkpt>
      <trkpt lat="45.76682" lon="5.7944">
        <ele>474.6</ele>
        <time>2021-08-22T10:39:32Z</time>
      </trkpt>
      <trkpt lat="45.76677" lon="5.79443">
        <ele>474.3</ele>
        <time>2021-08-22T10:39:33Z</time>
      </trkpt>
      <trkpt lat="45.76671" lon="5.79449">
        <ele>474</ele>
        <time>2021-08-22T10:39:34Z</time>
      </trkpt>
      <trkpt lat="45.76668" lon="5.79453">
        <ele>473.7</ele>
        <time>2021-08-22T10:39:35Z</time>
      </trkpt>
      <trkpt lat="45.76667" lon="5.79457">
        <ele>473.5</ele>
        <time>2021-08-22T10:39:36Z</time>
      </trkpt>
      <trkpt lat="45.76664" lon="5.79461">
        <ele>473.4</ele>
        <time>2021-08-22T10:39:38Z</time>
      </trkpt>
      <trkpt lat="45.76662" lon="5.79464">
        <ele>473.2</ele>
        <time>2021-08-22T10:39:39Z</time>
      </trkpt>
      <trkpt lat="45.76659" lon="5.79468">
        <ele>473.1</ele>
        <time>2021-08-22T10:39:41Z</time>
      </trkpt>
      <trkpt lat="45.76657" lon="5.79472">
        <ele>473</ele>
        <time>2021-08-22T10:39:42Z</time>
      </trkpt>
      <trkpt lat="45.76655" lon="5.79477">
        <ele>472.9</ele>
        <time>2021-08-22T10:39:43Z</time>
      </trkpt>
      <trkpt lat="45.76654" lon="5.79485">
        <ele>472.3</ele>
        <time>2021-08-22T10:39:45Z</time>
      </trkpt>
      <trkpt lat="45.76652" lon="5.79492">
        <ele>472</ele>
        <time>2021-08-22T10:39:46Z</time>
      </trkpt>
      <trkpt lat="45.7665" lon="5.79498">
        <ele>471.7</ele>
        <time>2021-08-22T10:39:47Z</time>
      </trkpt>
      <trkpt lat="45.7665" lon="5.79505">
        <ele>471.4</ele>
        <time>2021-08-22T10:39:48Z</time>
      </trkpt>
      <trkpt lat="45.76648" lon="5.79517">
        <ele>470.8</ele>
        <time>2021-08-22T10:39:50Z</time>
      </trkpt>
      <trkpt lat="45.76645" lon="5.79523">
        <ele>470.5</ele>
        <time>2021-08-22T10:39:51Z</time>
      </trkpt>
      <trkpt lat="45.76643" lon="5.79529">
        <ele>470.2</ele>
        <time>2021-08-22T10:39:52Z</time>
      </trkpt>
      <trkpt lat="45.76641" lon="5.79535">
        <ele>470</ele>
        <time>2021-08-22T10:39:53Z</time>
      </trkpt>
      <trkpt lat="45.76639" lon="5.79542">
        <ele>469.7</ele>
        <time>2021-08-22T10:39:54Z</time>
      </trkpt>
      <trkpt lat="45.7663" lon="5.79554">
        <ele>468.8</ele>
        <time>2021-08-22T10:39:56Z</time>
      </trkpt>
      <trkpt lat="45.76618" lon="5.79562">
        <ele>467.7</ele>
        <time>2021-08-22T10:39:58Z</time>
      </trkpt>
      <trkpt lat="45.76606" lon="5.79568">
        <ele>466.7</ele>
        <time>2021-08-22T10:40:00Z</time>
      </trkpt>
      <trkpt lat="45.76598" lon="5.79579">
        <ele>465.7</ele>
        <time>2021-08-22T10:40:02Z</time>
      </trkpt>
      <trkpt lat="45.76594" lon="5.7959">
        <ele>464.9</ele>
        <time>2021-08-22T10:40:04Z</time>
      </trkpt>
      <trkpt lat="45.76593" lon="5.79596">
        <ele>464.4</ele>
        <time>2021-08-22T10:40:06Z</time>
      </trkpt>
      <trkpt lat="45.76591" lon="5.796">
        <ele>464</ele>
        <time>2021-08-22T10:40:07Z</time>
      </trkpt>
      <trkpt lat="45.76591" lon="5.79601">
        <ele>463.9</ele>
        <time>2021-08-22T10:40:08Z</time>
      </trkpt>
      <trkpt lat="45.76589" lon="5.79605">
        <ele>463.5</ele>
        <time>2021-08-22T10:40:09Z</time>
      </trkpt>
      <trkpt lat="45.76589" lon="5.79609">
        <ele>463.1</ele>
        <time>2021-08-22T10:40:11Z</time>
      </trkpt>
      <trkpt lat="45.76588" lon="5.79613">
        <ele>462.8</ele>
        <time>2021-08-22T10:40:12Z</time>
      </trkpt>
      <trkpt lat="45.76588" lon="5.79616">
        <ele>462.4</ele>
        <time>2021-08-22T10:40:14Z</time>
      </trkpt>
      <trkpt lat="45.76587" lon="5.7962">
        <ele>462.1</ele>
        <time>2021-08-22T10:40:15Z</time>
      </trkpt>
      <trkpt lat="45.76586" lon="5.79624">
        <ele>461.7</ele>
        <time>2021-08-22T10:40:16Z</time>
      </trkpt>
      <trkpt lat="45.76586" lon="5.79627">
        <ele>461.4</ele>
        <time>2021-08-22T10:40:17Z</time>
      </trkpt>
      <trkpt lat="45.76585" lon="5.79631">
        <ele>461.1</ele>
        <time>2021-08-22T10:40:19Z</time>
      </trkpt>
      <trkpt lat="45.76585" lon="5.79635">
        <ele>460.7</ele>
        <time>2021-08-22T10:40:36Z</time>
      </trkpt>
      <trkpt lat="45.76584" lon="5.79638">
        <ele>460.4</ele>
        <time>2021-08-22T10:40:38Z</time>
      </trkpt>
      <trkpt lat="45.76588" lon="5.79659">
        <ele>458.6</ele>
        <time>2021-08-22T10:40:40Z</time>
      </trkpt>
      <trkpt lat="45.7659" lon="5.79667">
        <ele>457.9</ele>
        <time>2021-08-22T10:40:41Z</time>
      </trkpt>
      <trkpt lat="45.76592" lon="5.79685">
        <ele>456.8</ele>
        <time>2021-08-22T10:40:43Z</time>
      </trkpt>
      <trkpt lat="45.76591" lon="5.79696">
        <ele>456.2</ele>
        <time>2021-08-22T10:40:44Z</time>
      </trkpt>
      <trkpt lat="45.76588" lon="5.79714">
        <ele>455.3</ele>
        <time>2021-08-22T10:40:46Z</time>
      </trkpt>
      <trkpt lat="45.76588" lon="5.79729">
        <ele>454.5</ele>
        <time>2021-08-22T10:40:48Z</time>
      </trkpt>
      <trkpt lat="45.76591" lon="5.79735">
        <ele>454</ele>
        <time>2021-08-22T10:40:49Z</time>
      </trkpt>
      <trkpt lat="45.76597" lon="5.79742">
        <ele>453.2</ele>
        <time>2021-08-22T10:40:51Z</time>
      </trkpt>
      <trkpt lat="45.76601" lon="5.79747">
        <ele>452.6</ele>
        <time>2021-08-22T10:40:52Z</time>
      </trkpt>
      <trkpt lat="45.76606" lon="5.7975">
        <ele>452</ele>
        <time>2021-08-22T10:40:53Z</time>
      </trkpt>
      <trkpt lat="45.76616" lon="5.79755">
        <ele>450.8</ele>
        <time>2021-08-22T10:40:55Z</time>
      </trkpt>
      <trkpt lat="45.7662" lon="5.79759">
        <ele>450.3</ele>
        <time>2021-08-22T10:40:56Z</time>
      </trkpt>
      <trkpt lat="45.7663" lon="5.79766">
        <ele>449.2</ele>
        <time>2021-08-22T10:40:58Z</time>
      </trkpt>
      <trkpt lat="45.76641" lon="5.79771">
        <ele>448</ele>
        <time>2021-08-22T10:41:00Z</time>
      </trkpt>
      <trkpt lat="45.76651" lon="5.79775">
        <ele>447.1</ele>
        <time>2021-08-22T10:41:02Z</time>
      </trkpt>
      <trkpt lat="45.76653" lon="5.79777">
        <ele>446.9</ele>
        <time>2021-08-22T10:41:03Z</time>
      </trkpt>
      <trkpt lat="45.76653" lon="5.7978">
        <ele>446.7</ele>
        <time>2021-08-22T10:41:04Z</time>
      </trkpt>
      <trkpt lat="45.76654" lon="5.79782">
        <ele>446.5</ele>
        <time>2021-08-22T10:41:05Z</time>
      </trkpt>
      <trkpt lat="45.76658" lon="5.79791">
        <ele>444.7</ele>
        <time>2021-08-22T10:41:07Z</time>
      </trkpt>
      <trkpt lat="45.7666" lon="5.79801">
        <ele>444</ele>
        <time>2021-08-22T10:41:08Z</time>
      </trkpt>
      <trkpt lat="45.7666" lon="5.79811">
        <ele>443.5</ele>
        <time>2021-08-22T10:41:09Z</time>
      </trkpt>
      <trkpt lat="45.7666" lon="5.79818">
        <ele>443.1</ele>
        <time>2021-08-22T10:41:11Z</time>
      </trkpt>
      <trkpt lat="45.7666" lon="5.79821">
        <ele>442.9</ele>
        <time>2021-08-22T10:41:12Z</time>
      </trkpt>
      <trkpt lat="45.7666" lon="5.79822">
        <ele>442.8</ele>
        <time>2021-08-22T10:41:13Z</time>
      </trkpt>
      <trkpt lat="45.76664" lon="5.79819">
        <ele>442.5</ele>
        <time>2021-08-22T10:41:15Z</time>
      </trkpt>
      <trkpt lat="45.76667" lon="5.79819">
        <ele>442.3</ele>
        <time>2021-08-22T10:41:16Z</time>
      </trkpt>
      <trkpt lat="45.76669" lon="5.79818">
        <ele>441.9</ele>
        <time>2021-08-22T10:41:17Z</time>
      </trkpt>
      <trkpt lat="45.76672" lon="5.79817">
        <ele>441.6</ele>
        <time>2021-08-22T10:41:18Z</time>
      </trkpt>
      <trkpt lat="45.76675" lon="5.79816">
        <ele>441.2</ele>
        <time>2021-08-22T10:41:19Z</time>
      </trkpt>
      <trkpt lat="45.76677" lon="5.79815">
        <ele>440.8</ele>
        <time>2021-08-22T10:41:21Z</time>
      </trkpt>
      <trkpt lat="45.7668" lon="5.79815">
        <ele>440.4</ele>
        <time>2021-08-22T10:41:23Z</time>
      </trkpt>
      <trkpt lat="45.76683" lon="5.79814">
        <ele>440</ele>
        <time>2021-08-22T10:41:39Z</time>
      </trkpt>
      <trkpt lat="45.76685" lon="5.79813">
        <ele>439.7</ele>
        <time>2021-08-22T10:41:40Z</time>
      </trkpt>
      <trkpt lat="45.76691" lon="5.79814">
        <ele>438.7</ele>
        <time>2021-08-22T10:41:42Z</time>
      </trkpt>
      <trkpt lat="45.76696" lon="5.79816">
        <ele>437.9</ele>
        <time>2021-08-22T10:41:43Z</time>
      </trkpt>
      <trkpt lat="45.76702" lon="5.79818">
        <ele>437.1</ele>
        <time>2021-08-22T10:41:45Z</time>
      </trkpt>
      <trkpt lat="45.76706" lon="5.79821">
        <ele>436.3</ele>
        <time>2021-08-22T10:41:46Z</time>
      </trkpt>
      <trkpt lat="45.76718" lon="5.79824">
        <ele>434.6</ele>
        <time>2021-08-22T10:41:48Z</time>
      </trkpt>
      <trkpt lat="45.76727" lon="5.79829">
        <ele>433.1</ele>
        <time>2021-08-22T10:41:50Z</time>
      </trkpt>
      <trkpt lat="45.76732" lon="5.79832">
        <ele>432.5</ele>
        <time>2021-08-22T10:41:51Z</time>
      </trkpt>
      <trkpt lat="45.76741" lon="5.79839">
        <ele>431.1</ele>
        <time>2021-08-22T10:41:53Z</time>
      </trkpt>
      <trkpt lat="45.76746" lon="5.79842">
        <ele>430.5</ele>
        <time>2021-08-22T10:41:54Z</time>
      </trkpt>
      <trkpt lat="45.76753" lon="5.79845">
        <ele>429.5</ele>
        <time>2021-08-22T10:41:56Z</time>
      </trkpt>
      <trkpt lat="45.76757" lon="5.7985">
        <ele>428.8</ele>
        <time>2021-08-22T10:41:58Z</time>
      </trkpt>
      <trkpt lat="45.7676" lon="5.79858">
        <ele>428</ele>
        <time>2021-08-22T10:41:59Z</time>
      </trkpt>
      <trkpt lat="45.76761" lon="5.79867">
        <ele>427.2</ele>
        <time>2021-08-22T10:42:00Z</time>
      </trkpt>
      <trkpt lat="45.76765" lon="5.79879">
        <ele>426</ele>
        <time>2021-08-22T10:42:02Z</time>
      </trkpt>
      <trkpt lat="45.76769" lon="5.79887">
        <ele>425.1</ele>
        <time>2021-08-22T10:42:03Z</time>
      </trkpt>
      <trkpt lat="45.76774" lon="5.79893">
        <ele>424.4</ele>
        <time>2021-08-22T10:42:04Z</time>
      </trkpt>
      <trkpt lat="45.76779" lon="5.79898">
        <ele>424.2</ele>
        <time>2021-08-22T10:42:06Z</time>
      </trkpt>
      <trkpt lat="45.76785" lon="5.79903">
        <ele>424.1</ele>
        <time>2021-08-22T10:42:07Z</time>
      </trkpt>
      <trkpt lat="45.76789" lon="5.79905">
        <ele>424.2</ele>
        <time>2021-08-22T10:42:08Z</time>
      </trkpt>
      <trkpt lat="45.76793" lon="5.79907">
        <ele>424.2</ele>
        <time>2021-08-22T10:42:09Z</time>
      </trkpt>
      <trkpt lat="45.76796" lon="5.79909">
        <ele>424.3</ele>
        <time>2021-08-22T10:42:10Z</time>
      </trkpt>
      <trkpt lat="45.768" lon="5.7991">
        <ele>424.4</ele>
        <time>2021-08-22T10:42:12Z</time>
      </trkpt>
      <trkpt lat="45.76803" lon="5.79911">
        <ele>424.4</ele>
        <time>2021-08-22T10:42:13Z</time>
      </trkpt>
      <trkpt lat="45.76804" lon="5.79912">
        <ele>424.5</ele>
        <time>2021-08-22T10:42:14Z</time>
      </trkpt>
      <trkpt lat="45.76809" lon="5.79915">
        <ele>424.7</ele>
        <time>2021-08-22T10:42:16Z</time>
      </trkpt>
      <trkpt lat="45.76812" lon="5.79918">
        <ele>424.8</ele>
        <time>2021-08-22T10:42:18Z</time>
      </trkpt>
      <trkpt lat="45.76812" lon="5.79919">
        <ele>424.8</ele>
        <time>2021-08-22T10:42:19Z</time>
      </trkpt>
      <trkpt lat="45.76815" lon="5.79919">
        <ele>424.9</ele>
        <time>2021-08-22T10:42:20Z</time>
      </trkpt>
      <trkpt lat="45.76818" lon="5.7992">
        <ele>425.1</ele>
        <time>2021-08-22T10:42:21Z</time>
      </trkpt>
      <trkpt lat="45.76823" lon="5.79924">
        <ele>425.2</ele>
        <time>2021-08-22T10:42:23Z</time>
      </trkpt>
      <trkpt lat="45.76826" lon="5.79926">
        <ele>425.4</ele>
        <time>2021-08-22T10:42:24Z</time>
      </trkpt>
      <trkpt lat="45.7683" lon="5.79933">
        <ele>425.5</ele>
        <time>2021-08-22T10:42:26Z</time>
      </trkpt>
      <trkpt lat="45.76833" lon="5.79937">
        <ele>425.7</ele>
        <time>2021-08-22T10:42:27Z</time>
      </trkpt>
      <trkpt lat="45.76836" lon="5.79942">
        <ele>425.8</ele>
        <time>2021-08-22T10:42:28Z</time>
      </trkpt>
      <trkpt lat="45.76838" lon="5.79947">
        <ele>425.9</ele>
        <time>2021-08-22T10:42:29Z</time>
      </trkpt>
      <trkpt lat="45.7684" lon="5.79952">
        <ele>426</ele>
        <time>2021-08-22T10:42:30Z</time>
      </trkpt>
      <trkpt lat="45.76842" lon="5.7996">
        <ele>426.2</ele>
        <time>2021-08-22T10:42:32Z</time>
      </trkpt>
      <trkpt lat="45.76843" lon="5.79966">
        <ele>426.3</ele>
        <time>2021-08-22T10:42:33Z</time>
      </trkpt>
      <trkpt lat="45.76843" lon="5.79973">
        <ele>426.4</ele>
        <time>2021-08-22T10:42:34Z</time>
      </trkpt>
      <trkpt lat="45.76844" lon="5.79981">
        <ele>426.5</ele>
        <time>2021-08-22T10:42:36Z</time>
      </trkpt>
      <trkpt lat="45.76845" lon="5.79986">
        <ele>426.6</ele>
        <time>2021-08-22T10:42:37Z</time>
      </trkpt>
      <trkpt lat="45.76845" lon="5.7999">
        <ele>426.6</ele>
        <time>2021-08-22T10:42:38Z</time>
      </trkpt>
      <trkpt lat="45.76845" lon="5.79998">
        <ele>426.7</ele>
        <time>2021-08-22T10:42:40Z</time>
      </trkpt>
      <trkpt lat="45.76845" lon="5.80002">
        <ele>426.7</ele>
        <time>2021-08-22T10:42:41Z</time>
      </trkpt>
      <trkpt lat="45.76843" lon="5.80006">
        <ele>426.8</ele>
        <time>2021-08-22T10:42:43Z</time>
      </trkpt>
      <trkpt lat="45.76843" lon="5.80007">
        <ele>426.8</ele>
        <time>2021-08-22T10:42:44Z</time>
      </trkpt>
      <trkpt lat="45.76841" lon="5.80009">
        <ele>426.8</ele>
        <time>2021-08-22T10:42:45Z</time>
      </trkpt>
      <trkpt lat="45.7684" lon="5.8001">
        <ele>426.8</ele>
        <time>2021-08-22T10:42:46Z</time>
      </trkpt>
      <trkpt lat="45.76839" lon="5.80011">
        <ele>426.8</ele>
        <time>2021-08-22T10:42:48Z</time>
      </trkpt>
      <trkpt lat="45.76837" lon="5.80013">
        <ele>426.8</ele>
        <time>2021-08-22T10:42:49Z</time>
      </trkpt>
      <trkpt lat="45.76837" lon="5.80016">
        <ele>426.9</ele>
        <time>2021-08-22T10:42:50Z</time>
      </trkpt>
      <trkpt lat="45.76836" lon="5.80022">
        <ele>426.9</ele>
        <time>2021-08-22T10:42:52Z</time>
      </trkpt>
      <trkpt lat="45.76836" lon="5.80025">
        <ele>426.9</ele>
        <time>2021-08-22T10:42:53Z</time>
      </trkpt>
      <trkpt lat="45.76836" lon="5.80032">
        <ele>426.9</ele>
        <time>2021-08-22T10:42:55Z</time>
      </trkpt>
      <trkpt lat="45.76838" lon="5.80038">
        <ele>426.8</ele>
        <time>2021-08-22T10:42:56Z</time>
      </trkpt>
      <trkpt lat="45.7684" lon="5.80042">
        <ele>426.7</ele>
        <time>2021-08-22T10:42:58Z</time>
      </trkpt>
      <trkpt lat="45.76843" lon="5.80044">
        <ele>426.6</ele>
        <time>2021-08-22T10:42:59Z</time>
      </trkpt>
      <trkpt lat="45.76844" lon="5.80046">
        <ele>426.5</ele>
        <time>2021-08-22T10:43:00Z</time>
      </trkpt>
      <trkpt lat="45.76845" lon="5.80048">
        <ele>426.4</ele>
        <time>2021-08-22T10:43:01Z</time>
      </trkpt>
      <trkpt lat="45.76846" lon="5.80049">
        <ele>426.4</ele>
        <time>2021-08-22T10:43:02Z</time>
      </trkpt>
      <trkpt lat="45.7685" lon="5.80052">
        <ele>426</ele>
        <time>2021-08-22T10:43:04Z</time>
      </trkpt>
      <trkpt lat="45.76855" lon="5.80056">
        <ele>425.6</ele>
        <time>2021-08-22T10:43:05Z</time>
      </trkpt>
      <trkpt lat="45.7686" lon="5.80061">
        <ele>425</ele>
        <time>2021-08-22T10:43:06Z</time>
      </trkpt>
      <trkpt lat="45.76869" lon="5.80069">
        <ele>424.1</ele>
        <time>2021-08-22T10:43:07Z</time>
      </trkpt>
      <trkpt lat="45.76877" lon="5.80076">
        <ele>423.3</ele>
        <time>2021-08-22T10:43:09Z</time>
      </trkpt>
      <trkpt lat="45.76881" lon="5.80082">
        <ele>422.9</ele>
        <time>2021-08-22T10:43:11Z</time>
      </trkpt>
      <trkpt lat="45.76887" lon="5.80089">
        <ele>422.4</ele>
        <time>2021-08-22T10:43:12Z</time>
      </trkpt>
      <trkpt lat="45.76891" lon="5.80095">
        <ele>422</ele>
        <time>2021-08-22T10:43:14Z</time>
      </trkpt>
      <trkpt lat="45.76894" lon="5.80099">
        <ele>421.8</ele>
        <time>2021-08-22T10:43:15Z</time>
      </trkpt>
      <trkpt lat="45.76897" lon="5.80103">
        <ele>421.6</ele>
        <time>2021-08-22T10:43:16Z</time>
      </trkpt>
      <trkpt lat="45.76901" lon="5.80108">
        <ele>421.3</ele>
        <time>2021-08-22T10:43:17Z</time>
      </trkpt>
      <trkpt lat="45.76904" lon="5.80112">
        <ele>421.2</ele>
        <time>2021-08-22T10:43:18Z</time>
      </trkpt>
      <trkpt lat="45.76908" lon="5.80117">
        <ele>420.9</ele>
        <time>2021-08-22T10:43:20Z</time>
      </trkpt>
      <trkpt lat="45.76911" lon="5.80124">
        <ele>420.7</ele>
        <time>2021-08-22T10:43:21Z</time>
      </trkpt>
      <trkpt lat="45.76915" lon="5.80129">
        <ele>420.6</ele>
        <time>2021-08-22T10:43:22Z</time>
      </trkpt>
      <trkpt lat="45.76918" lon="5.80133">
        <ele>420.4</ele>
        <time>2021-08-22T10:43:23Z</time>
      </trkpt>
      <trkpt lat="45.76922" lon="5.80138">
        <ele>420.2</ele>
        <time>2021-08-22T10:43:24Z</time>
      </trkpt>
      <trkpt lat="45.76927" lon="5.80145">
        <ele>419.9</ele>
        <time>2021-08-22T10:43:25Z</time>
      </trkpt>
      <trkpt lat="45.76932" lon="5.80151">
        <ele>419.6</ele>
        <time>2021-08-22T10:43:26Z</time>
      </trkpt>
      <trkpt lat="45.76939" lon="5.80161">
        <ele>419.2</ele>
        <time>2021-08-22T10:43:28Z</time>
      </trkpt>
      <trkpt lat="45.76944" lon="5.80166">
        <ele>418.9</ele>
        <time>2021-08-22T10:43:29Z</time>
      </trkpt>
      <trkpt lat="45.76948" lon="5.80173">
        <ele>418.6</ele>
        <time>2021-08-22T10:43:30Z</time>
      </trkpt>
      <trkpt lat="45.76952" lon="5.80178">
        <ele>418.3</ele>
        <time>2021-08-22T10:43:31Z</time>
      </trkpt>
      <trkpt lat="45.76955" lon="5.80182">
        <ele>418</ele>
        <time>2021-08-22T10:43:32Z</time>
      </trkpt>
      <trkpt lat="45.76958" lon="5.80189">
        <ele>417.6</ele>
        <time>2021-08-22T10:43:34Z</time>
      </trkpt>
      <trkpt lat="45.76963" lon="5.80195">
        <ele>417.1</ele>
        <time>2021-08-22T10:43:35Z</time>
      </trkpt>
      <trkpt lat="45.76968" lon="5.802">
        <ele>416.9</ele>
        <time>2021-08-22T10:43:37Z</time>
      </trkpt>
      <trkpt lat="45.76972" lon="5.80203">
        <ele>416.7</ele>
        <time>2021-08-22T10:43:38Z</time>
      </trkpt>
      <trkpt lat="45.76976" lon="5.80206">
        <ele>416.6</ele>
        <time>2021-08-22T10:43:39Z</time>
      </trkpt>
      <trkpt lat="45.7698" lon="5.80208">
        <ele>416.5</ele>
        <time>2021-08-22T10:43:40Z</time>
      </trkpt>
      <trkpt lat="45.76986" lon="5.80209">
        <ele>416.3</ele>
        <time>2021-08-22T10:43:42Z</time>
      </trkpt>
      <trkpt lat="45.7699" lon="5.80211">
        <ele>416.2</ele>
        <time>2021-08-22T10:43:43Z</time>
      </trkpt>
      <trkpt lat="45.76995" lon="5.80214">
        <ele>416.1</ele>
        <time>2021-08-22T10:43:44Z</time>
      </trkpt>
      <trkpt lat="45.77003" lon="5.80216">
        <ele>416</ele>
        <time>2021-08-22T10:43:45Z</time>
      </trkpt>
      <trkpt lat="45.77016" lon="5.80219">
        <ele>415.9</ele>
        <time>2021-08-22T10:43:47Z</time>
      </trkpt>
      <trkpt lat="45.77022" lon="5.8022">
        <ele>415.8</ele>
        <time>2021-08-22T10:43:48Z</time>
      </trkpt>
      <trkpt lat="45.77034" lon="5.80225">
        <ele>415.6</ele>
        <time>2021-08-22T10:43:50Z</time>
      </trkpt>
      <trkpt lat="45.77039" lon="5.80226">
        <ele>415.6</ele>
        <time>2021-08-22T10:43:51Z</time>
      </trkpt>
      <trkpt lat="45.77045" lon="5.80228">
        <ele>415.5</ele>
        <time>2021-08-22T10:43:53Z</time>
      </trkpt>
      <trkpt lat="45.77043" lon="5.80228">
        <ele>415.5</ele>
        <time>2021-08-22T10:43:54Z</time>
      </trkpt>
      <trkpt lat="45.77049" lon="5.8023">
        <ele>415.5</ele>
        <time>2021-08-22T10:43:55Z</time>
      </trkpt>
      <trkpt lat="45.77055" lon="5.80232">
        <ele>415.5</ele>
        <time>2021-08-22T10:43:57Z</time>
      </trkpt>
      <trkpt lat="45.77061" lon="5.80233">
        <ele>415.5</ele>
        <time>2021-08-22T10:43:58Z</time>
      </trkpt>
      <trkpt lat="45.77068" lon="5.80235">
        <ele>415.5</ele>
        <time>2021-08-22T10:43:59Z</time>
      </trkpt>
      <trkpt lat="45.77073" lon="5.80237">
        <ele>415.4</ele>
        <time>2021-08-22T10:44:00Z</time>
      </trkpt>
      <trkpt lat="45.77081" lon="5.8024">
        <ele>415.2</ele>
        <time>2021-08-22T10:44:01Z</time>
      </trkpt>
      <trkpt lat="45.77092" lon="5.80249">
        <ele>414.6</ele>
        <time>2021-08-22T10:44:03Z</time>
      </trkpt>
      <trkpt lat="45.77102" lon="5.80259">
        <ele>413.9</ele>
        <time>2021-08-22T10:44:05Z</time>
      </trkpt>
      <trkpt lat="45.77107" lon="5.80264">
        <ele>413.5</ele>
        <time>2021-08-22T10:44:06Z</time>
      </trkpt>
      <trkpt lat="45.77118" lon="5.80277">
        <ele>412.6</ele>
        <time>2021-08-22T10:44:08Z</time>
      </trkpt>
      <trkpt lat="45.77129" lon="5.80293">
        <ele>411.6</ele>
        <time>2021-08-22T10:44:10Z</time>
      </trkpt>
      <trkpt lat="45.7714" lon="5.80307">
        <ele>410.9</ele>
        <time>2021-08-22T10:44:12Z</time>
      </trkpt>
      <trkpt lat="45.77152" lon="5.80318">
        <ele>410.3</ele>
        <time>2021-08-22T10:44:14Z</time>
      </trkpt>
      <trkpt lat="45.77166" lon="5.80327">
        <ele>409.6</ele>
        <time>2021-08-22T10:44:16Z</time>
      </trkpt>
      <trkpt lat="45.77172" lon="5.80332">
        <ele>409.3</ele>
        <time>2021-08-22T10:44:17Z</time>
      </trkpt>
      <trkpt lat="45.77177" lon="5.80337">
        <ele>409.1</ele>
        <time>2021-08-22T10:44:18Z</time>
      </trkpt>
      <trkpt lat="45.77188" lon="5.80347">
        <ele>408.6</ele>
        <time>2021-08-22T10:44:20Z</time>
      </trkpt>
      <trkpt lat="45.77198" lon="5.80358">
        <ele>408.2</ele>
        <time>2021-08-22T10:44:22Z</time>
      </trkpt>
      <trkpt lat="45.77203" lon="5.80364">
        <ele>408.1</ele>
        <time>2021-08-22T10:44:23Z</time>
      </trkpt>
      <trkpt lat="45.77208" lon="5.80369">
        <ele>408.1</ele>
        <time>2021-08-22T10:44:24Z</time>
      </trkpt>
      <trkpt lat="45.77215" lon="5.80375">
        <ele>408.2</ele>
        <time>2021-08-22T10:44:26Z</time>
      </trkpt>
      <trkpt lat="45.77222" lon="5.80381">
        <ele>408.4</ele>
        <time>2021-08-22T10:44:28Z</time>
      </trkpt>
      <trkpt lat="45.77225" lon="5.80384">
        <ele>408.6</ele>
        <time>2021-08-22T10:44:29Z</time>
      </trkpt>
      <trkpt lat="45.77229" lon="5.80388">
        <ele>408.8</ele>
        <time>2021-08-22T10:44:30Z</time>
      </trkpt>
      <trkpt lat="45.77234" lon="5.80393">
        <ele>409</ele>
        <time>2021-08-22T10:44:32Z</time>
      </trkpt>
      <trkpt lat="45.77237" lon="5.80396">
        <ele>409.1</ele>
        <time>2021-08-22T10:44:33Z</time>
      </trkpt>
      <trkpt lat="45.77241" lon="5.80401">
        <ele>409.3</ele>
        <time>2021-08-22T10:44:34Z</time>
      </trkpt>
      <trkpt lat="45.77244" lon="5.80403">
        <ele>409.4</ele>
        <time>2021-08-22T10:44:35Z</time>
      </trkpt>
      <trkpt lat="45.77249" lon="5.80406">
        <ele>409.6</ele>
        <time>2021-08-22T10:44:36Z</time>
      </trkpt>
      <trkpt lat="45.77256" lon="5.80411">
        <ele>409.9</ele>
        <time>2021-08-22T10:44:38Z</time>
      </trkpt>
      <trkpt lat="45.77261" lon="5.80414">
        <ele>410.1</ele>
        <time>2021-08-22T10:44:39Z</time>
      </trkpt>
      <trkpt lat="45.77265" lon="5.80417">
        <ele>410.3</ele>
        <time>2021-08-22T10:44:41Z</time>
      </trkpt>
      <trkpt lat="45.77268" lon="5.8042">
        <ele>410.4</ele>
        <time>2021-08-22T10:44:42Z</time>
      </trkpt>
      <trkpt lat="45.77271" lon="5.80423">
        <ele>410.5</ele>
        <time>2021-08-22T10:44:43Z</time>
      </trkpt>
      <trkpt lat="45.77272" lon="5.80425">
        <ele>410.6</ele>
        <time>2021-08-22T10:44:44Z</time>
      </trkpt>
      <trkpt lat="45.77275" lon="5.80427">
        <ele>410.8</ele>
        <time>2021-08-22T10:44:46Z</time>
      </trkpt>
      <trkpt lat="45.77281" lon="5.80433">
        <ele>411.1</ele>
        <time>2021-08-22T10:44:48Z</time>
      </trkpt>
      <trkpt lat="45.77285" lon="5.80436">
        <ele>411.3</ele>
        <time>2021-08-22T10:44:50Z</time>
      </trkpt>
      <trkpt lat="45.77289" lon="5.8044">
        <ele>410.9</ele>
        <time>2021-08-22T10:44:51Z</time>
      </trkpt>
      <trkpt lat="45.77292" lon="5.80443">
        <ele>410.4</ele>
        <time>2021-08-22T10:44:52Z</time>
      </trkpt>
      <trkpt lat="45.77296" lon="5.80447">
        <ele>410</ele>
        <time>2021-08-22T10:44:53Z</time>
      </trkpt>
      <trkpt lat="45.77299" lon="5.8045">
        <ele>409.6</ele>
        <time>2021-08-22T10:44:55Z</time>
      </trkpt>
      <trkpt lat="45.77303" lon="5.80454">
        <ele>409.3</ele>
        <time>2021-08-22T10:44:56Z</time>
      </trkpt>
      <trkpt lat="45.77307" lon="5.80457">
        <ele>408.9</ele>
        <time>2021-08-22T10:45:47Z</time>
      </trkpt>
      <trkpt lat="45.7731" lon="5.80461">
        <ele>408.6</ele>
        <time>2021-08-22T10:45:48Z</time>
      </trkpt>
      <trkpt lat="45.77315" lon="5.80483">
        <ele>407.7</ele>
        <time>2021-08-22T10:45:50Z</time>
      </trkpt>
      <trkpt lat="45.77315" lon="5.80493">
        <ele>407.4</ele>
        <time>2021-08-22T10:45:51Z</time>
      </trkpt>
      <trkpt lat="45.77318" lon="5.8051">
        <ele>406.9</ele>
        <time>2021-08-22T10:45:53Z</time>
      </trkpt>
      <trkpt lat="45.77319" lon="5.80517">
        <ele>406.7</ele>
        <time>2021-08-22T10:45:54Z</time>
      </trkpt>
      <trkpt lat="45.7732" lon="5.80524">
        <ele>406.5</ele>
        <time>2021-08-22T10:45:55Z</time>
      </trkpt>
      <trkpt lat="45.7732" lon="5.80537">
        <ele>406.2</ele>
        <time>2021-08-22T10:45:57Z</time>
      </trkpt>
      <trkpt lat="45.7732" lon="5.80545">
        <ele>406</ele>
        <time>2021-08-22T10:45:58Z</time>
      </trkpt>
      <trkpt lat="45.77319" lon="5.80564">
        <ele>405.7</ele>
        <time>2021-08-22T10:46:00Z</time>
      </trkpt>
      <trkpt lat="45.77319" lon="5.80573">
        <ele>405.5</ele>
        <time>2021-08-22T10:46:01Z</time>
      </trkpt>
      <trkpt lat="45.7732" lon="5.80581">
        <ele>405.3</ele>
        <time>2021-08-22T10:46:02Z</time>
      </trkpt>
      <trkpt lat="45.77322" lon="5.80596">
        <ele>404.9</ele>
        <time>2021-08-22T10:46:04Z</time>
      </trkpt>
      <trkpt lat="45.77322" lon="5.80601">
        <ele>404.7</ele>
        <time>2021-08-22T10:46:05Z</time>
      </trkpt>
      <trkpt lat="45.77323" lon="5.80607">
        <ele>404.3</ele>
        <time>2021-08-22T10:46:06Z</time>
      </trkpt>
      <trkpt lat="45.77323" lon="5.8062">
        <ele>404.3</ele>
        <time>2021-08-22T10:46:08Z</time>
      </trkpt>
      <trkpt lat="45.77322" lon="5.80629">
        <ele>404.8</ele>
        <time>2021-08-22T10:46:09Z</time>
      </trkpt>
      <trkpt lat="45.77321" lon="5.80636">
        <ele>405.1</ele>
        <time>2021-08-22T10:46:10Z</time>
      </trkpt>
      <trkpt lat="45.77321" lon="5.80641">
        <ele>405.3</ele>
        <time>2021-08-22T10:46:12Z</time>
      </trkpt>
      <trkpt lat="45.77321" lon="5.80645">
        <ele>405.5</ele>
        <time>2021-08-22T10:46:13Z</time>
      </trkpt>
      <trkpt lat="45.77322" lon="5.80654">
        <ele>405.9</ele>
        <time>2021-08-22T10:46:15Z</time>
      </trkpt>
      <trkpt lat="45.77322" lon="5.8066">
        <ele>406.1</ele>
        <time>2021-08-22T10:46:16Z</time>
      </trkpt>
      <trkpt lat="45.77322" lon="5.80665">
        <ele>406.3</ele>
        <time>2021-08-22T10:46:18Z</time>
      </trkpt>
      <trkpt lat="45.77321" lon="5.80668">
        <ele>406.4</ele>
        <time>2021-08-22T10:46:19Z</time>
      </trkpt>
      <trkpt lat="45.7732" lon="5.80672">
        <ele>406.5</ele>
        <time>2021-08-22T10:46:20Z</time>
      </trkpt>
      <trkpt lat="45.77318" lon="5.80676">
        <ele>406.8</ele>
        <time>2021-08-22T10:46:21Z</time>
      </trkpt>
      <trkpt lat="45.77316" lon="5.8068">
        <ele>407.1</ele>
        <time>2021-08-22T10:46:22Z</time>
      </trkpt>
      <trkpt lat="45.77314" lon="5.80684">
        <ele>407.6</ele>
        <time>2021-08-22T10:46:23Z</time>
      </trkpt>
      <trkpt lat="45.7731" lon="5.80688">
        <ele>408.1</ele>
        <time>2021-08-22T10:46:25Z</time>
      </trkpt>
      <trkpt lat="45.77308" lon="5.80691">
        <ele>408.4</ele>
        <time>2021-08-22T10:46:26Z</time>
      </trkpt>
      <trkpt lat="45.77305" lon="5.80695">
        <ele>408.8</ele>
        <time>2021-08-22T10:46:27Z</time>
      </trkpt>
      <trkpt lat="45.77305" lon="5.80697">
        <ele>408.9</ele>
        <time>2021-08-22T10:46:28Z</time>
      </trkpt>
      <trkpt lat="45.773" lon="5.80701">
        <ele>409.4</ele>
        <time>2021-08-22T10:46:30Z</time>
      </trkpt>
      <trkpt lat="45.77296" lon="5.80705">
        <ele>409.8</ele>
        <time>2021-08-22T10:46:32Z</time>
      </trkpt>
      <trkpt lat="45.77293" lon="5.80709">
        <ele>410.2</ele>
        <time>2021-08-22T10:46:33Z</time>
      </trkpt>
      <trkpt lat="45.77291" lon="5.80712">
        <ele>410.5</ele>
        <time>2021-08-22T10:46:34Z</time>
      </trkpt>
      <trkpt lat="45.77288" lon="5.80715">
        <ele>410.8</ele>
        <time>2021-08-22T10:46:36Z</time>
      </trkpt>
      <trkpt lat="45.77286" lon="5.80719">
        <ele>411.1</ele>
        <time>2021-08-22T10:46:37Z</time>
      </trkpt>
      <trkpt lat="45.77285" lon="5.80723">
        <ele>411.4</ele>
        <time>2021-08-22T10:46:39Z</time>
      </trkpt>
      <trkpt lat="45.77286" lon="5.80727">
        <ele>411.7</ele>
        <time>2021-08-22T10:46:40Z</time>
      </trkpt>
      <trkpt lat="45.77288" lon="5.80732">
        <ele>412</ele>
        <time>2021-08-22T10:46:41Z</time>
      </trkpt>
      <trkpt lat="45.77288" lon="5.80733">
        <ele>412.2</ele>
        <time>2021-08-22T10:46:42Z</time>
      </trkpt>
      <trkpt lat="45.77291" lon="5.80736">
        <ele>412.5</ele>
        <time>2021-08-22T10:46:44Z</time>
      </trkpt>
      <trkpt lat="45.77294" lon="5.80737">
        <ele>412.7</ele>
        <time>2021-08-22T10:46:45Z</time>
      </trkpt>
      <trkpt lat="45.77296" lon="5.80737">
        <ele>413</ele>
        <time>2021-08-22T10:46:47Z</time>
      </trkpt>
      <trkpt lat="45.773" lon="5.80738">
        <ele>413.3</ele>
        <time>2021-08-22T10:46:48Z</time>
      </trkpt>
      <trkpt lat="45.77301" lon="5.80738">
        <ele>413.4</ele>
        <time>2021-08-22T10:46:49Z</time>
      </trkpt>
      <trkpt lat="45.77304" lon="5.8074">
        <ele>413.7</ele>
        <time>2021-08-22T10:46:50Z</time>
      </trkpt>
      <trkpt lat="45.77306" lon="5.8074">
        <ele>413.9</ele>
        <time>2021-08-22T10:46:51Z</time>
      </trkpt>
      <trkpt lat="45.77308" lon="5.80739">
        <ele>414.1</ele>
        <time>2021-08-22T10:46:53Z</time>
      </trkpt>
      <trkpt lat="45.7731" lon="5.80738">
        <ele>414.2</ele>
        <time>2021-08-22T10:46:55Z</time>
      </trkpt>
      <trkpt lat="45.77314" lon="5.80737">
        <ele>414.6</ele>
        <time>2021-08-22T10:46:57Z</time>
      </trkpt>
      <trkpt lat="45.77316" lon="5.80737">
        <ele>414.8</ele>
        <time>2021-08-22T10:46:59Z</time>
      </trkpt>
      <trkpt lat="45.77319" lon="5.80738">
        <ele>415</ele>
        <time>2021-08-22T10:47:01Z</time>
      </trkpt>
      <trkpt lat="45.77321" lon="5.80739">
        <ele>415.1</ele>
        <time>2021-08-22T10:47:02Z</time>
      </trkpt>
      <trkpt lat="45.77323" lon="5.80739">
        <ele>415.3</ele>
        <time>2021-08-22T10:47:03Z</time>
      </trkpt>
      <trkpt lat="45.77327" lon="5.80741">
        <ele>415.6</ele>
        <time>2021-08-22T10:47:04Z</time>
      </trkpt>
      <trkpt lat="45.77328" lon="5.80742">
        <ele>415.7</ele>
        <time>2021-08-22T10:47:05Z</time>
      </trkpt>
      <trkpt lat="45.77332" lon="5.80745">
        <ele>416</ele>
        <time>2021-08-22T10:47:07Z</time>
      </trkpt>
      <trkpt lat="45.77336" lon="5.80748">
        <ele>416.3</ele>
        <time>2021-08-22T10:47:08Z</time>
      </trkpt>
      <trkpt lat="45.77339" lon="5.80751">
        <ele>416.6</ele>
        <time>2021-08-22T10:47:10Z</time>
      </trkpt>
      <trkpt lat="45.77342" lon="5.80754">
        <ele>416.9</ele>
        <time>2021-08-22T10:47:11Z</time>
      </trkpt>
      <trkpt lat="45.77344" lon="5.80756">
        <ele>417</ele>
        <time>2021-08-22T10:47:12Z</time>
      </trkpt>
      <trkpt lat="45.77348" lon="5.80761">
        <ele>417.2</ele>
        <time>2021-08-22T10:47:14Z</time>
      </trkpt>
      <trkpt lat="45.77351" lon="5.80765">
        <ele>417.3</ele>
        <time>2021-08-22T10:47:16Z</time>
      </trkpt>
      <trkpt lat="45.77353" lon="5.8077">
        <ele>417.5</ele>
        <time>2021-08-22T10:47:18Z</time>
      </trkpt>
      <trkpt lat="45.77354" lon="5.80772">
        <ele>417.6</ele>
        <time>2021-08-22T10:47:19Z</time>
      </trkpt>
      <trkpt lat="45.77355" lon="5.80774">
        <ele>417.7</ele>
        <time>2021-08-22T10:47:20Z</time>
      </trkpt>
      <trkpt lat="45.77356" lon="5.80775">
        <ele>417.7</ele>
        <time>2021-08-22T10:47:21Z</time>
      </trkpt>
      <trkpt lat="45.77357" lon="5.80778">
        <ele>417.8</ele>
        <time>2021-08-22T10:47:23Z</time>
      </trkpt>
      <trkpt lat="45.77358" lon="5.80781">
        <ele>418.2</ele>
        <time>2021-08-22T10:47:24Z</time>
      </trkpt>
      <trkpt lat="45.77358" lon="5.80783">
        <ele>418.3</ele>
        <time>2021-08-22T10:47:25Z</time>
      </trkpt>
      <trkpt lat="45.77359" lon="5.80788">
        <ele>418.7</ele>
        <time>2021-08-22T10:47:27Z</time>
      </trkpt>
      <trkpt lat="45.77359" lon="5.8079">
        <ele>418.9</ele>
        <time>2021-08-22T10:47:28Z</time>
      </trkpt>
      <trkpt lat="45.7736" lon="5.80794">
        <ele>419.2</ele>
        <time>2021-08-22T10:47:29Z</time>
      </trkpt>
      <trkpt lat="45.77361" lon="5.80795">
        <ele>419.3</ele>
        <time>2021-08-22T10:47:30Z</time>
      </trkpt>
      <trkpt lat="45.7736" lon="5.80802">
        <ele>419.8</ele>
        <time>2021-08-22T10:47:32Z</time>
      </trkpt>
      <trkpt lat="45.77359" lon="5.80804">
        <ele>419.9</ele>
        <time>2021-08-22T10:47:33Z</time>
      </trkpt>
      <trkpt lat="45.77358" lon="5.80806">
        <ele>420.1</ele>
        <time>2021-08-22T10:47:34Z</time>
      </trkpt>
      <trkpt lat="45.77358" lon="5.80808">
        <ele>420.2</ele>
        <time>2021-08-22T10:47:35Z</time>
      </trkpt>
      <trkpt lat="45.77357" lon="5.80812">
        <ele>420.5</ele>
        <time>2021-08-22T10:47:37Z</time>
      </trkpt>
      <trkpt lat="45.77355" lon="5.80815">
        <ele>420.8</ele>
        <time>2021-08-22T10:47:39Z</time>
      </trkpt>
      <trkpt lat="45.77355" lon="5.80816">
        <ele>420.9</ele>
        <time>2021-08-22T10:47:40Z</time>
      </trkpt>
      <trkpt lat="45.77353" lon="5.8082">
        <ele>421.2</ele>
        <time>2021-08-22T10:47:41Z</time>
      </trkpt>
      <trkpt lat="45.77352" lon="5.80822">
        <ele>421.3</ele>
        <time>2021-08-22T10:47:42Z</time>
      </trkpt>
      <trkpt lat="45.7735" lon="5.80826">
        <ele>421.6</ele>
        <time>2021-08-22T10:47:44Z</time>
      </trkpt>
      <trkpt lat="45.77349" lon="5.80827">
        <ele>421.8</ele>
        <time>2021-08-22T10:47:45Z</time>
      </trkpt>
      <trkpt lat="45.77348" lon="5.80829">
        <ele>421.9</ele>
        <time>2021-08-22T10:47:46Z</time>
      </trkpt>
      <trkpt lat="45.77347" lon="5.80832">
        <ele>422.1</ele>
        <time>2021-08-22T10:47:48Z</time>
      </trkpt>
      <trkpt lat="45.77344" lon="5.80833">
        <ele>422.4</ele>
        <time>2021-08-22T10:47:49Z</time>
      </trkpt>
      <trkpt lat="45.77341" lon="5.80834">
        <ele>422.6</ele>
        <time>2021-08-22T10:47:50Z</time>
      </trkpt>
      <trkpt lat="45.7734" lon="5.80834">
        <ele>422.7</ele>
        <time>2021-08-22T10:47:51Z</time>
      </trkpt>
      <trkpt lat="45.77339" lon="5.80836">
        <ele>422.9</ele>
        <time>2021-08-22T10:47:52Z</time>
      </trkpt>
      <trkpt lat="45.77338" lon="5.80839">
        <ele>423.1</ele>
        <time>2021-08-22T10:47:54Z</time>
      </trkpt>
      <trkpt lat="45.77338" lon="5.80841">
        <ele>423.2</ele>
        <time>2021-08-22T10:47:55Z</time>
      </trkpt>
      <trkpt lat="45.77337" lon="5.80845">
        <ele>423.5</ele>
        <time>2021-08-22T10:47:57Z</time>
      </trkpt>
      <trkpt lat="45.77337" lon="5.80848">
        <ele>423.7</ele>
        <time>2021-08-22T10:47:58Z</time>
      </trkpt>
      <trkpt lat="45.77338" lon="5.80849">
        <ele>423.8</ele>
        <time>2021-08-22T10:47:59Z</time>
      </trkpt>
      <trkpt lat="45.77339" lon="5.80851">
        <ele>423.9</ele>
        <time>2021-08-22T10:48:00Z</time>
      </trkpt>
      <trkpt lat="45.7734" lon="5.80852">
        <ele>424</ele>
        <time>2021-08-22T10:48:01Z</time>
      </trkpt>
      <trkpt lat="45.77341" lon="5.80853">
        <ele>424.1</ele>
        <time>2021-08-22T10:48:03Z</time>
      </trkpt>
      <trkpt lat="45.77341" lon="5.80855">
        <ele>424.2</ele>
        <time>2021-08-22T10:48:04Z</time>
      </trkpt>
      <trkpt lat="45.77341" lon="5.80857">
        <ele>424.4</ele>
        <time>2021-08-22T10:48:06Z</time>
      </trkpt>
      <trkpt lat="45.77341" lon="5.80859">
        <ele>424.5</ele>
        <time>2021-08-22T10:48:07Z</time>
      </trkpt>
      <trkpt lat="45.7734" lon="5.8086">
        <ele>424.6</ele>
        <time>2021-08-22T10:48:08Z</time>
      </trkpt>
      <trkpt lat="45.77338" lon="5.80871">
        <ele>425.1</ele>
        <time>2021-08-22T10:48:12Z</time>
      </trkpt>
      <trkpt lat="45.77338" lon="5.80875">
        <ele>425.2</ele>
        <time>2021-08-22T10:48:13Z</time>
      </trkpt>
      <trkpt lat="45.77338" lon="5.80877">
        <ele>425.4</ele>
        <time>2021-08-22T10:48:14Z</time>
      </trkpt>
      <trkpt lat="45.77336" lon="5.80882">
        <ele>425.6</ele>
        <time>2021-08-22T10:48:16Z</time>
      </trkpt>
      <trkpt lat="45.77335" lon="5.80883">
        <ele>425.7</ele>
        <time>2021-08-22T10:48:17Z</time>
      </trkpt>
      <trkpt lat="45.77332" lon="5.80886">
        <ele>425.9</ele>
        <time>2021-08-22T10:48:19Z</time>
      </trkpt>
      <trkpt lat="45.77332" lon="5.80889">
        <ele>426.1</ele>
        <time>2021-08-22T10:48:20Z</time>
      </trkpt>
      <trkpt lat="45.77332" lon="5.8089">
        <ele>426.1</ele>
        <time>2021-08-22T10:48:21Z</time>
      </trkpt>
      <trkpt lat="45.77332" lon="5.80892">
        <ele>426.2</ele>
        <time>2021-08-22T10:48:22Z</time>
      </trkpt>
      <trkpt lat="45.77333" lon="5.80895">
        <ele>426.4</ele>
        <time>2021-08-22T10:48:23Z</time>
      </trkpt>
      <trkpt lat="45.77334" lon="5.80896">
        <ele>426.4</ele>
        <time>2021-08-22T10:48:24Z</time>
      </trkpt>
      <trkpt lat="45.77334" lon="5.80903">
        <ele>426.7</ele>
        <time>2021-08-22T10:48:26Z</time>
      </trkpt>
      <trkpt lat="45.77337" lon="5.80905">
        <ele>426.9</ele>
        <time>2021-08-22T10:48:27Z</time>
      </trkpt>
      <trkpt lat="45.7734" lon="5.80906">
        <ele>427.1</ele>
        <time>2021-08-22T10:48:28Z</time>
      </trkpt>
      <trkpt lat="45.77343" lon="5.80907">
        <ele>427.1</ele>
        <time>2021-08-22T10:48:30Z</time>
      </trkpt>
      <trkpt lat="45.77344" lon="5.80907">
        <ele>427.1</ele>
        <time>2021-08-22T10:48:31Z</time>
      </trkpt>
      <trkpt lat="45.77344" lon="5.80908">
        <ele>427.1</ele>
        <time>2021-08-22T10:48:32Z</time>
      </trkpt>
      <trkpt lat="45.77344" lon="5.80908">
        <ele>427.1</ele>
        <time>2021-08-22T10:48:34Z</time>
      </trkpt>
      <trkpt lat="45.77345" lon="5.80908">
        <ele>427.1</ele>
        <time>2021-08-22T10:48:35Z</time>
      </trkpt>
      <trkpt lat="45.77346" lon="5.8091">
        <ele>427.1</ele>
        <time>2021-08-22T10:48:36Z</time>
      </trkpt>
      <trkpt lat="45.77349" lon="5.80918">
        <ele>427.1</ele>
        <time>2021-08-22T10:48:40Z</time>
      </trkpt>
      <trkpt lat="45.77351" lon="5.80924">
        <ele>427.1</ele>
        <time>2021-08-22T10:48:41Z</time>
      </trkpt>
      <trkpt lat="45.77361" lon="5.80957">
        <ele>425.9</ele>
        <time>2021-08-22T10:48:42Z</time>
      </trkpt>
      <trkpt lat="45.77364" lon="5.80969">
        <ele>425.5</ele>
        <time>2021-08-22T10:48:44Z</time>
      </trkpt>
      <trkpt lat="45.77368" lon="5.80977">
        <ele>425.2</ele>
        <time>2021-08-22T10:48:45Z</time>
      </trkpt>
      <trkpt lat="45.77374" lon="5.8099">
        <ele>424.8</ele>
        <time>2021-08-22T10:48:47Z</time>
      </trkpt>
      <trkpt lat="45.77377" lon="5.80992">
        <ele>424.7</ele>
        <time>2021-08-22T10:48:48Z</time>
      </trkpt>
      <trkpt lat="45.77382" lon="5.80994">
        <ele>424.6</ele>
        <time>2021-08-22T10:48:49Z</time>
      </trkpt>
      <trkpt lat="45.77393" lon="5.80999">
        <ele>424.4</ele>
        <time>2021-08-22T10:48:51Z</time>
      </trkpt>
      <trkpt lat="45.77402" lon="5.81004">
        <ele>424</ele>
        <time>2021-08-22T10:48:53Z</time>
      </trkpt>
      <trkpt lat="45.77406" lon="5.81004">
        <ele>423.8</ele>
        <time>2021-08-22T10:48:54Z</time>
      </trkpt>
      <trkpt lat="45.77415" lon="5.81007">
        <ele>423.1</ele>
        <time>2021-08-22T10:48:56Z</time>
      </trkpt>
      <trkpt lat="45.77421" lon="5.81009">
        <ele>422.6</ele>
        <time>2021-08-22T10:48:57Z</time>
      </trkpt>
      <trkpt lat="45.77433" lon="5.81012">
        <ele>421.6</ele>
        <time>2021-08-22T10:48:59Z</time>
      </trkpt>
      <trkpt lat="45.77438" lon="5.81014">
        <ele>421.1</ele>
        <time>2021-08-22T10:49:00Z</time>
      </trkpt>
      <trkpt lat="45.77451" lon="5.81018">
        <ele>420</ele>
        <time>2021-08-22T10:49:02Z</time>
      </trkpt>
      <trkpt lat="45.77457" lon="5.81019">
        <ele>419.5</ele>
        <time>2021-08-22T10:49:03Z</time>
      </trkpt>
      <trkpt lat="45.7747" lon="5.81023">
        <ele>418.4</ele>
        <time>2021-08-22T10:49:05Z</time>
      </trkpt>
      <trkpt lat="45.77478" lon="5.81025">
        <ele>417.8</ele>
        <time>2021-08-22T10:49:06Z</time>
      </trkpt>
      <trkpt lat="45.77486" lon="5.81029">
        <ele>417.3</ele>
        <time>2021-08-22T10:49:07Z</time>
      </trkpt>
      <trkpt lat="45.77502" lon="5.81039">
        <ele>416.3</ele>
        <time>2021-08-22T10:49:09Z</time>
      </trkpt>
      <trkpt lat="45.77519" lon="5.81045">
        <ele>415.4</ele>
        <time>2021-08-22T10:49:11Z</time>
      </trkpt>
      <trkpt lat="45.77535" lon="5.81047">
        <ele>414.9</ele>
        <time>2021-08-22T10:49:13Z</time>
      </trkpt>
      <trkpt lat="45.77544" lon="5.81048">
        <ele>414.8</ele>
        <time>2021-08-22T10:49:14Z</time>
      </trkpt>
      <trkpt lat="45.77552" lon="5.8105">
        <ele>414.4</ele>
        <time>2021-08-22T10:49:15Z</time>
      </trkpt>
      <trkpt lat="45.77569" lon="5.81056">
        <ele>413.7</ele>
        <time>2021-08-22T10:49:17Z</time>
      </trkpt>
      <trkpt lat="45.77577" lon="5.81059">
        <ele>413.4</ele>
        <time>2021-08-22T10:49:18Z</time>
      </trkpt>
      <trkpt lat="45.77592" lon="5.81061">
        <ele>412.9</ele>
        <time>2021-08-22T10:49:20Z</time>
      </trkpt>
      <trkpt lat="45.776" lon="5.81062">
        <ele>412.7</ele>
        <time>2021-08-22T10:49:21Z</time>
      </trkpt>
      <trkpt lat="45.77615" lon="5.81065">
        <ele>412.3</ele>
        <time>2021-08-22T10:49:23Z</time>
      </trkpt>
      <trkpt lat="45.77622" lon="5.81067">
        <ele>412.2</ele>
        <time>2021-08-22T10:49:24Z</time>
      </trkpt>
      <trkpt lat="45.77629" lon="5.81068">
        <ele>412.1</ele>
        <time>2021-08-22T10:49:25Z</time>
      </trkpt>
      <trkpt lat="45.77636" lon="5.8107">
        <ele>412</ele>
        <time>2021-08-22T10:49:26Z</time>
      </trkpt>
      <trkpt lat="45.77648" lon="5.81074">
        <ele>411.8</ele>
        <time>2021-08-22T10:49:28Z</time>
      </trkpt>
      <trkpt lat="45.77654" lon="5.81077">
        <ele>411.7</ele>
        <time>2021-08-22T10:49:29Z</time>
      </trkpt>
      <trkpt lat="45.77659" lon="5.81079">
        <ele>411.6</ele>
        <time>2021-08-22T10:49:30Z</time>
      </trkpt>
      <trkpt lat="45.77663" lon="5.81081">
        <ele>411.4</ele>
        <time>2021-08-22T10:49:31Z</time>
      </trkpt>
      <trkpt lat="45.7767" lon="5.81085">
        <ele>411.2</ele>
        <time>2021-08-22T10:49:33Z</time>
      </trkpt>
      <trkpt lat="45.77674" lon="5.81088">
        <ele>411.1</ele>
        <time>2021-08-22T10:49:34Z</time>
      </trkpt>
      <trkpt lat="45.77677" lon="5.8109">
        <ele>410.9</ele>
        <time>2021-08-22T10:49:35Z</time>
      </trkpt>
      <trkpt lat="45.77679" lon="5.81092">
        <ele>410.8</ele>
        <time>2021-08-22T10:49:36Z</time>
      </trkpt>
      <trkpt lat="45.77683" lon="5.81094">
        <ele>410.6</ele>
        <time>2021-08-22T10:49:38Z</time>
      </trkpt>
      <trkpt lat="45.77685" lon="5.81098">
        <ele>410.5</ele>
        <time>2021-08-22T10:49:39Z</time>
      </trkpt>
      <trkpt lat="45.77685" lon="5.811">
        <ele>410.5</ele>
        <time>2021-08-22T10:49:41Z</time>
      </trkpt>
      <trkpt lat="45.77685" lon="5.81102">
        <ele>410.4</ele>
        <time>2021-08-22T10:49:42Z</time>
      </trkpt>
      <trkpt lat="45.77689" lon="5.81109">
        <ele>410.2</ele>
        <time>2021-08-22T10:49:44Z</time>
      </trkpt>
      <trkpt lat="45.77691" lon="5.81114">
        <ele>410</ele>
        <time>2021-08-22T10:49:45Z</time>
      </trkpt>
      <trkpt lat="45.77696" lon="5.81117">
        <ele>409.8</ele>
        <time>2021-08-22T10:49:47Z</time>
      </trkpt>
      <trkpt lat="45.77699" lon="5.8112">
        <ele>409.7</ele>
        <time>2021-08-22T10:49:48Z</time>
      </trkpt>
      <trkpt lat="45.77702" lon="5.81121">
        <ele>409.6</ele>
        <time>2021-08-22T10:49:49Z</time>
      </trkpt>
      <trkpt lat="45.77706" lon="5.81125">
        <ele>409.5</ele>
        <time>2021-08-22T10:49:51Z</time>
      </trkpt>
      <trkpt lat="45.77708" lon="5.81129">
        <ele>409.4</ele>
        <time>2021-08-22T10:49:52Z</time>
      </trkpt>
      <trkpt lat="45.77709" lon="5.81136">
        <ele>409.2</ele>
        <time>2021-08-22T10:49:54Z</time>
      </trkpt>
      <trkpt lat="45.77709" lon="5.8114">
        <ele>409.2</ele>
        <time>2021-08-22T10:49:55Z</time>
      </trkpt>
      <trkpt lat="45.77708" lon="5.81143">
        <ele>409.1</ele>
        <time>2021-08-22T10:49:56Z</time>
      </trkpt>
      <trkpt lat="45.77708" lon="5.81144">
        <ele>409.1</ele>
        <time>2021-08-22T10:49:57Z</time>
      </trkpt>
      <trkpt lat="45.77708" lon="5.81145">
        <ele>409</ele>
        <time>2021-08-22T10:49:58Z</time>
      </trkpt>
      <trkpt lat="45.77707" lon="5.81145">
        <ele>409</ele>
        <time>2021-08-22T10:50:00Z</time>
      </trkpt>
      <trkpt lat="45.77707" lon="5.81146">
        <ele>409</ele>
        <time>2021-08-22T10:50:02Z</time>
      </trkpt>
      <trkpt lat="45.77707" lon="5.81146">
        <ele>409</ele>
        <time>2021-08-22T10:50:04Z</time>
      </trkpt>
      <trkpt lat="45.77707" lon="5.81146">
        <ele>409</ele>
        <time>2021-08-22T10:50:06Z</time>
      </trkpt>
      <trkpt lat="45.77738" lon="5.81159">
        <ele>407</ele>
        <time>2021-08-22T10:51:26Z</time>
      </trkpt>
      <trkpt lat="45.77741" lon="5.81158">
        <ele>406.8</ele>
        <time>2021-08-22T10:51:27Z</time>
      </trkpt>
      <trkpt lat="45.77743" lon="5.81158">
        <ele>406.7</ele>
        <time>2021-08-22T10:51:29Z</time>
      </trkpt>
      <trkpt lat="45.77744" lon="5.81158">
        <ele>406.6</ele>
        <time>2021-08-22T10:51:30Z</time>
      </trkpt>
      <trkpt lat="45.77745" lon="5.81158">
        <ele>406.5</ele>
        <time>2021-08-22T10:51:31Z</time>
      </trkpt>
      <trkpt lat="45.77746" lon="5.81159">
        <ele>406.5</ele>
        <time>2021-08-22T10:51:33Z</time>
      </trkpt>
      <trkpt lat="45.77746" lon="5.81159">
        <ele>406.4</ele>
        <time>2021-08-22T10:51:34Z</time>
      </trkpt>
      <trkpt lat="45.77747" lon="5.81163">
        <ele>406.3</ele>
        <time>2021-08-22T10:51:35Z</time>
      </trkpt>
      <trkpt lat="45.77747" lon="5.81167">
        <ele>406.1</ele>
        <time>2021-08-22T10:51:36Z</time>
      </trkpt>
      <trkpt lat="45.77748" lon="5.81172">
        <ele>405.8</ele>
        <time>2021-08-22T10:51:38Z</time>
      </trkpt>
      <trkpt lat="45.77755" lon="5.81167">
        <ele>405.2</ele>
        <time>2021-08-22T10:54:54Z</time>
      </trkpt>
      <trkpt lat="45.77762" lon="5.81177">
        <ele>404.5</ele>
        <time>2021-08-22T10:54:56Z</time>
      </trkpt>
      <trkpt lat="45.77768" lon="5.8118">
        <ele>404</ele>
        <time>2021-08-22T10:54:58Z</time>
      </trkpt>
      <trkpt lat="45.77774" lon="5.81182">
        <ele>403.6</ele>
        <time>2021-08-22T10:55:00Z</time>
      </trkpt>
      <trkpt lat="45.77778" lon="5.81186">
        <ele>403.2</ele>
        <time>2021-08-22T10:55:02Z</time>
      </trkpt>
      <trkpt lat="45.77781" lon="5.81188">
        <ele>402.9</ele>
        <time>2021-08-22T10:55:04Z</time>
      </trkpt>
      <trkpt lat="45.77781" lon="5.81188">
        <ele>402.9</ele>
        <time>2021-08-22T10:55:05Z</time>
      </trkpt>
      <trkpt lat="45.77782" lon="5.81188">
        <ele>402.8</ele>
        <time>2021-08-22T10:55:06Z</time>
      </trkpt>
      <trkpt lat="45.77784" lon="5.81189">
        <ele>402.7</ele>
        <time>2021-08-22T10:55:07Z</time>
      </trkpt>
      <trkpt lat="45.77785" lon="5.81189">
        <ele>402.6</ele>
        <time>2021-08-22T10:55:08Z</time>
      </trkpt>
      <trkpt lat="45.77786" lon="5.81188">
        <ele>402.5</ele>
        <time>2021-08-22T10:55:09Z</time>
      </trkpt>
      <trkpt lat="45.77787" lon="5.81188">
        <ele>402.5</ele>
        <time>2021-08-22T10:55:11Z</time>
      </trkpt>
      <trkpt lat="45.77787" lon="5.81187">
        <ele>402.4</ele>
        <time>2021-08-22T10:55:12Z</time>
      </trkpt>
      <trkpt lat="45.77788" lon="5.81186">
        <ele>402.4</ele>
        <time>2021-08-22T10:55:13Z</time>
      </trkpt>
      <trkpt lat="45.77788" lon="5.81184">
        <ele>402.2</ele>
        <time>2021-08-22T10:55:15Z</time>
      </trkpt>
      <trkpt lat="45.77788" lon="5.81183">
        <ele>402.2</ele>
        <time>2021-08-22T10:55:16Z</time>
      </trkpt>
      <trkpt lat="45.77788" lon="5.81183">
        <ele>402.2</ele>
        <time>2021-08-22T10:55:18Z</time>
      </trkpt>
      <trkpt lat="45.77788" lon="5.81183">
        <ele>402.2</ele>
        <time>2021-08-22T10:55:19Z</time>
      </trkpt>
      <trkpt lat="45.77787" lon="5.81183">
        <ele>402.1</ele>
        <time>2021-08-22T10:55:21Z</time>
      </trkpt>
      <trkpt lat="45.77786" lon="5.81183">
        <ele>402</ele>
        <time>2021-08-22T10:55:22Z</time>
      </trkpt>
      <trkpt lat="45.77784" lon="5.81184">
        <ele>401.9</ele>
        <time>2021-08-22T10:55:24Z</time>
      </trkpt>
      <trkpt lat="45.77773" lon="5.81187">
        <ele>401</ele>
        <time>2021-08-22T10:55:30Z</time>
      </trkpt>
      <trkpt lat="45.77771" lon="5.81187">
        <ele>400.8</ele>
        <time>2021-08-22T10:55:31Z</time>
      </trkpt>
      <trkpt lat="45.7777" lon="5.81187">
        <ele>400.7</ele>
        <time>2021-08-22T10:55:32Z</time>
      </trkpt>
      <trkpt lat="45.77771" lon="5.81184">
        <ele>400.6</ele>
        <time>2021-08-22T10:55:34Z</time>
      </trkpt>
      <trkpt lat="45.77773" lon="5.81186">
        <ele>400.4</ele>
        <time>2021-08-22T10:55:36Z</time>
      </trkpt>
      <trkpt lat="45.77777" lon="5.8119">
        <ele>400.1</ele>
        <time>2021-08-22T10:55:37Z</time>
      </trkpt>
      <trkpt lat="45.77781" lon="5.81195">
        <ele>399.6</ele>
        <time>2021-08-22T10:55:38Z</time>
      </trkpt>
      <trkpt lat="45.77789" lon="5.81209">
        <ele>398.7</ele>
        <time>2021-08-22T10:55:40Z</time>
      </trkpt>
      <trkpt lat="45.77793" lon="5.81217">
        <ele>398.2</ele>
        <time>2021-08-22T10:55:41Z</time>
      </trkpt>
      <trkpt lat="45.77797" lon="5.81226">
        <ele>397.7</ele>
        <time>2021-08-22T10:55:42Z</time>
      </trkpt>
      <trkpt lat="45.77802" lon="5.81234">
        <ele>397.2</ele>
        <time>2021-08-22T10:55:43Z</time>
      </trkpt>
      <trkpt lat="45.7781" lon="5.81249">
        <ele>396.3</ele>
        <time>2021-08-22T10:55:45Z</time>
      </trkpt>
      <trkpt lat="45.77817" lon="5.81262">
        <ele>395.5</ele>
        <time>2021-08-22T10:55:47Z</time>
      </trkpt>
      <trkpt lat="45.77821" lon="5.81278">
        <ele>394.7</ele>
        <time>2021-08-22T10:55:49Z</time>
      </trkpt>
      <trkpt lat="45.77822" lon="5.81286">
        <ele>394.4</ele>
        <time>2021-08-22T10:55:50Z</time>
      </trkpt>
      <trkpt lat="45.77822" lon="5.81293">
        <ele>394.1</ele>
        <time>2021-08-22T10:55:51Z</time>
      </trkpt>
      <trkpt lat="45.77821" lon="5.81304">
        <ele>393.4</ele>
        <time>2021-08-22T10:55:53Z</time>
      </trkpt>
      <trkpt lat="45.77817" lon="5.81315">
        <ele>392.6</ele>
        <time>2021-08-22T10:55:55Z</time>
      </trkpt>
      <trkpt lat="45.77814" lon="5.81326">
        <ele>391.8</ele>
        <time>2021-08-22T10:55:57Z</time>
      </trkpt>
      <trkpt lat="45.7781" lon="5.81339">
        <ele>390.7</ele>
        <time>2021-08-22T10:55:59Z</time>
      </trkpt>
      <trkpt lat="45.77809" lon="5.81336">
        <ele>390.4</ele>
        <time>2021-08-22T10:56:00Z</time>
      </trkpt>
      <trkpt lat="45.77807" lon="5.81341">
        <ele>389.9</ele>
        <time>2021-08-22T10:56:02Z</time>
      </trkpt>
      <trkpt lat="45.77806" lon="5.81348">
        <ele>389.2</ele>
        <time>2021-08-22T10:56:03Z</time>
      </trkpt>
      <trkpt lat="45.77804" lon="5.81357">
        <ele>388.4</ele>
        <time>2021-08-22T10:56:05Z</time>
      </trkpt>
      <trkpt lat="45.77801" lon="5.81366">
        <ele>387.6</ele>
        <time>2021-08-22T10:56:06Z</time>
      </trkpt>
      <trkpt lat="45.778" lon="5.81377">
        <ele>386.6</ele>
        <time>2021-08-22T10:56:08Z</time>
      </trkpt>
      <trkpt lat="45.77797" lon="5.81383">
        <ele>386</ele>
        <time>2021-08-22T10:56:09Z</time>
      </trkpt>
      <trkpt lat="45.77796" lon="5.81387">
        <ele>385.7</ele>
        <time>2021-08-22T10:56:10Z</time>
      </trkpt>
      <trkpt lat="45.77795" lon="5.81392">
        <ele>385.3</ele>
        <time>2021-08-22T10:56:12Z</time>
      </trkpt>
      <trkpt lat="45.77796" lon="5.81398">
        <ele>385</ele>
        <time>2021-08-22T10:56:14Z</time>
      </trkpt>
      <trkpt lat="45.77797" lon="5.81405">
        <ele>384.5</ele>
        <time>2021-08-22T10:56:15Z</time>
      </trkpt>
      <trkpt lat="45.77798" lon="5.81412">
        <ele>384.2</ele>
        <time>2021-08-22T10:56:17Z</time>
      </trkpt>
      <trkpt lat="45.77799" lon="5.81419">
        <ele>383.7</ele>
        <time>2021-08-22T10:56:18Z</time>
      </trkpt>
      <trkpt lat="45.778" lon="5.81427">
        <ele>383.4</ele>
        <time>2021-08-22T10:56:20Z</time>
      </trkpt>
      <trkpt lat="45.77801" lon="5.81434">
        <ele>383.2</ele>
        <time>2021-08-22T10:56:21Z</time>
      </trkpt>
      <trkpt lat="45.77802" lon="5.81441">
        <ele>382.9</ele>
        <time>2021-08-22T10:56:22Z</time>
      </trkpt>
      <trkpt lat="45.77803" lon="5.81448">
        <ele>382.7</ele>
        <time>2021-08-22T10:56:51Z</time>
      </trkpt>
      <trkpt lat="45.77804" lon="5.81456">
        <ele>382.6</ele>
        <time>2021-08-22T10:56:52Z</time>
      </trkpt>
      <trkpt lat="45.77808" lon="5.81466">
        <ele>382.3</ele>
        <time>2021-08-22T10:56:53Z</time>
      </trkpt>
      <trkpt lat="45.77812" lon="5.81475">
        <ele>382.1</ele>
        <time>2021-08-22T10:56:54Z</time>
      </trkpt>
      <trkpt lat="45.77819" lon="5.81486">
        <ele>381.8</ele>
        <time>2021-08-22T10:56:56Z</time>
      </trkpt>
      <trkpt lat="45.77824" lon="5.81499">
        <ele>381.5</ele>
        <time>2021-08-22T10:56:58Z</time>
      </trkpt>
      <trkpt lat="45.7783" lon="5.81512">
        <ele>381.2</ele>
        <time>2021-08-22T10:57:00Z</time>
      </trkpt>
      <trkpt lat="45.77833" lon="5.81518">
        <ele>381</ele>
        <time>2021-08-22T10:57:01Z</time>
      </trkpt>
      <trkpt lat="45.77837" lon="5.81529">
        <ele>380.7</ele>
        <time>2021-08-22T10:57:03Z</time>
      </trkpt>
      <trkpt lat="45.7784" lon="5.81533">
        <ele>380.6</ele>
        <time>2021-08-22T10:57:04Z</time>
      </trkpt>
      <trkpt lat="45.77842" lon="5.81535">
        <ele>380.5</ele>
        <time>2021-08-22T10:57:05Z</time>
      </trkpt>
      <trkpt lat="45.77848" lon="5.81541">
        <ele>380.4</ele>
        <time>2021-08-22T10:57:07Z</time>
      </trkpt>
      <trkpt lat="45.77851" lon="5.81544">
        <ele>380.3</ele>
        <time>2021-08-22T10:57:08Z</time>
      </trkpt>
      <trkpt lat="45.77854" lon="5.81545">
        <ele>380.3</ele>
        <time>2021-08-22T10:57:09Z</time>
      </trkpt>
      <trkpt lat="45.77856" lon="5.81545">
        <ele>380.3</ele>
        <time>2021-08-22T10:57:11Z</time>
      </trkpt>
      <trkpt lat="45.77856" lon="5.81545">
        <ele>380.3</ele>
        <time>2021-08-22T10:57:12Z</time>
      </trkpt>
      <trkpt lat="45.77858" lon="5.81545">
        <ele>380.2</ele>
        <time>2021-08-22T10:57:13Z</time>
      </trkpt>
      <trkpt lat="45.77865" lon="5.81544">
        <ele>380.2</ele>
        <time>2021-08-22T10:57:14Z</time>
      </trkpt>
      <trkpt lat="45.77876" lon="5.81543">
        <ele>380</ele>
        <time>2021-08-22T10:57:16Z</time>
      </trkpt>
      <trkpt lat="45.779" lon="5.81553">
        <ele>379.7</ele>
        <time>2021-08-22T10:57:17Z</time>
      </trkpt>
      <trkpt lat="45.7791" lon="5.81559">
        <ele>379.6</ele>
        <time>2021-08-22T10:57:18Z</time>
      </trkpt>
      <trkpt lat="45.77918" lon="5.81567">
        <ele>379.6</ele>
        <time>2021-08-22T10:57:19Z</time>
      </trkpt>
      <trkpt lat="45.77931" lon="5.81579">
        <ele>379.5</ele>
        <time>2021-08-22T10:57:21Z</time>
      </trkpt>
      <trkpt lat="45.77936" lon="5.81583">
        <ele>379.5</ele>
        <time>2021-08-22T10:57:22Z</time>
      </trkpt>
      <trkpt lat="45.77941" lon="5.81588">
        <ele>379.5</ele>
        <time>2021-08-22T10:57:23Z</time>
      </trkpt>
      <trkpt lat="45.77946" lon="5.81593">
        <ele>379.4</ele>
        <time>2021-08-22T10:57:24Z</time>
      </trkpt>
      <trkpt lat="45.77955" lon="5.81603">
        <ele>379.4</ele>
        <time>2021-08-22T10:57:26Z</time>
      </trkpt>
      <trkpt lat="45.77963" lon="5.81612">
        <ele>379.3</ele>
        <time>2021-08-22T10:57:28Z</time>
      </trkpt>
      <trkpt lat="45.77972" lon="5.8162">
        <ele>379.3</ele>
        <time>2021-08-22T10:57:30Z</time>
      </trkpt>
      <trkpt lat="45.77982" lon="5.81626">
        <ele>379.2</ele>
        <time>2021-08-22T10:57:32Z</time>
      </trkpt>
      <trkpt lat="45.77987" lon="5.81629">
        <ele>379.2</ele>
        <time>2021-08-22T10:57:33Z</time>
      </trkpt>
      <trkpt lat="45.77993" lon="5.81632">
        <ele>379.1</ele>
        <time>2021-08-22T10:57:34Z</time>
      </trkpt>
      <trkpt lat="45.78004" lon="5.81638">
        <ele>379</ele>
        <time>2021-08-22T10:57:36Z</time>
      </trkpt>
      <trkpt lat="45.78012" lon="5.81643">
        <ele>379</ele>
        <time>2021-08-22T10:57:38Z</time>
      </trkpt>
      <trkpt lat="45.78017" lon="5.81644">
        <ele>378.9</ele>
        <time>2021-08-22T10:57:39Z</time>
      </trkpt>
      <trkpt lat="45.78024" lon="5.81651">
        <ele>378.8</ele>
        <time>2021-08-22T10:57:41Z</time>
      </trkpt>
      <trkpt lat="45.78031" lon="5.81657">
        <ele>378.8</ele>
        <time>2021-08-22T10:57:43Z</time>
      </trkpt>
      <trkpt lat="45.78035" lon="5.81662">
        <ele>378.7</ele>
        <time>2021-08-22T10:57:44Z</time>
      </trkpt>
      <trkpt lat="45.7804" lon="5.81664">
        <ele>378.7</ele>
        <time>2021-08-22T10:57:45Z</time>
      </trkpt>
      <trkpt lat="45.78044" lon="5.81667">
        <ele>378.6</ele>
        <time>2021-08-22T10:57:46Z</time>
      </trkpt>
      <trkpt lat="45.78049" lon="5.81673">
        <ele>378.6</ele>
        <time>2021-08-22T10:57:48Z</time>
      </trkpt>
      <trkpt lat="45.78051" lon="5.81677">
        <ele>378.5</ele>
        <time>2021-08-22T10:57:49Z</time>
      </trkpt>
      <trkpt lat="45.78052" lon="5.81681">
        <ele>378.5</ele>
        <time>2021-08-22T10:57:50Z</time>
      </trkpt>
      <trkpt lat="45.78055" lon="5.81686">
        <ele>378.4</ele>
        <time>2021-08-22T10:57:51Z</time>
      </trkpt>
      <trkpt lat="45.78061" lon="5.81696">
        <ele>378.5</ele>
        <time>2021-08-22T10:57:53Z</time>
      </trkpt>
      <trkpt lat="45.78064" lon="5.81698">
        <ele>378.7</ele>
        <time>2021-08-22T10:57:55Z</time>
      </trkpt>
      <trkpt lat="45.78069" lon="5.81702">
        <ele>379.2</ele>
        <time>2021-08-22T10:57:56Z</time>
      </trkpt>
      <trkpt lat="45.78072" lon="5.81709">
        <ele>379.1</ele>
        <time>2021-08-22T10:57:57Z</time>
      </trkpt>
      <trkpt lat="45.78076" lon="5.81724">
        <ele>378.9</ele>
        <time>2021-08-22T10:57:59Z</time>
      </trkpt>
      <trkpt lat="45.78077" lon="5.81733">
        <ele>378.8</ele>
        <time>2021-08-22T10:58:00Z</time>
      </trkpt>
      <trkpt lat="45.78079" lon="5.81742">
        <ele>378.7</ele>
        <time>2021-08-22T10:58:01Z</time>
      </trkpt>
      <trkpt lat="45.7808" lon="5.81754">
        <ele>378.6</ele>
        <time>2021-08-22T10:58:03Z</time>
      </trkpt>
      <trkpt lat="45.78081" lon="5.81763">
        <ele>378.5</ele>
        <time>2021-08-22T10:58:04Z</time>
      </trkpt>
      <trkpt lat="45.78082" lon="5.81773">
        <ele>378.5</ele>
        <time>2021-08-22T10:58:05Z</time>
      </trkpt>
      <trkpt lat="45.78082" lon="5.81785">
        <ele>378.5</ele>
        <time>2021-08-22T10:58:07Z</time>
      </trkpt>
      <trkpt lat="45.78082" lon="5.8179">
        <ele>379</ele>
        <time>2021-08-22T10:58:08Z</time>
      </trkpt>
      <trkpt lat="45.78075" lon="5.81791">
        <ele>379.6</ele>
        <time>2021-08-22T10:58:10Z</time>
      </trkpt>
      <trkpt lat="45.78071" lon="5.81791">
        <ele>379.9</ele>
        <time>2021-08-22T10:58:11Z</time>
      </trkpt>
      <trkpt lat="45.78066" lon="5.8179">
        <ele>380.4</ele>
        <time>2021-08-22T10:58:13Z</time>
      </trkpt>
      <trkpt lat="45.78064" lon="5.8179">
        <ele>380.5</ele>
        <time>2021-08-22T10:58:14Z</time>
      </trkpt>
      <trkpt lat="45.7806" lon="5.81793">
        <ele>380.9</ele>
        <time>2021-08-22T10:58:16Z</time>
      </trkpt>
      <trkpt lat="45.78057" lon="5.81794">
        <ele>381.2</ele>
        <time>2021-08-22T10:58:17Z</time>
      </trkpt>
      <trkpt lat="45.78053" lon="5.81796">
        <ele>381.5</ele>
        <time>2021-08-22T10:58:19Z</time>
      </trkpt>
      <trkpt lat="45.7805" lon="5.81798">
        <ele>381.8</ele>
        <time>2021-08-22T10:58:20Z</time>
      </trkpt>
      <trkpt lat="45.78048" lon="5.81799">
        <ele>381.9</ele>
        <time>2021-08-22T10:58:21Z</time>
      </trkpt>
      <trkpt lat="45.78045" lon="5.818">
        <ele>382.2</ele>
        <time>2021-08-22T10:58:22Z</time>
      </trkpt>
      <trkpt lat="45.78042" lon="5.81801">
        <ele>382.5</ele>
        <time>2021-08-22T10:58:23Z</time>
      </trkpt>
      <trkpt lat="45.78041" lon="5.81801">
        <ele>382.6</ele>
        <time>2021-08-22T10:58:24Z</time>
      </trkpt>
      <trkpt lat="45.7804" lon="5.81802">
        <ele>382.8</ele>
        <time>2021-08-22T10:58:25Z</time>
      </trkpt>
      <trkpt lat="45.78038" lon="5.81801">
        <ele>383</ele>
        <time>2021-08-22T10:58:27Z</time>
      </trkpt>
      <trkpt lat="45.78036" lon="5.818">
        <ele>383.2</ele>
        <time>2021-08-22T10:58:29Z</time>
      </trkpt>
      <trkpt lat="45.78033" lon="5.818">
        <ele>383.5</ele>
        <time>2021-08-22T10:58:31Z</time>
      </trkpt>
      <trkpt lat="45.78033" lon="5.81801">
        <ele>383.6</ele>
        <time>2021-08-22T10:58:32Z</time>
      </trkpt>
      <trkpt lat="45.78033" lon="5.81802">
        <ele>383.7</ele>
        <time>2021-08-22T10:58:34Z</time>
      </trkpt>
      <trkpt lat="45.78033" lon="5.81803">
        <ele>383.7</ele>
        <time>2021-08-22T10:58:35Z</time>
      </trkpt>
      <trkpt lat="45.78033" lon="5.81806">
        <ele>384</ele>
        <time>2021-08-22T10:58:37Z</time>
      </trkpt>
      <trkpt lat="45.78033" lon="5.81808">
        <ele>384.2</ele>
        <time>2021-08-22T10:58:38Z</time>
      </trkpt>
      <trkpt lat="45.78032" lon="5.81812">
        <ele>384.5</ele>
        <time>2021-08-22T10:58:40Z</time>
      </trkpt>
      <trkpt lat="45.78031" lon="5.81817">
        <ele>385</ele>
        <time>2021-08-22T10:58:43Z</time>
      </trkpt>
      <trkpt lat="45.78029" lon="5.8182">
        <ele>385.4</ele>
        <time>2021-08-22T10:58:44Z</time>
      </trkpt>
      <trkpt lat="45.78026" lon="5.81823">
        <ele>385.8</ele>
        <time>2021-08-22T10:58:45Z</time>
      </trkpt>
      <trkpt lat="45.78025" lon="5.81825">
        <ele>386</ele>
        <time>2021-08-22T10:58:46Z</time>
      </trkpt>
      <trkpt lat="45.78022" lon="5.81828">
        <ele>386.4</ele>
        <time>2021-08-22T10:58:47Z</time>
      </trkpt>
      <trkpt lat="45.78021" lon="5.81829">
        <ele>386.6</ele>
        <time>2021-08-22T10:58:48Z</time>
      </trkpt>
      <trkpt lat="45.78019" lon="5.81833">
        <ele>387</ele>
        <time>2021-08-22T10:58:50Z</time>
      </trkpt>
      <trkpt lat="45.78018" lon="5.81835">
        <ele>387.2</ele>
        <time>2021-08-22T10:58:52Z</time>
      </trkpt>
      <trkpt lat="45.78017" lon="5.81836">
        <ele>387.4</ele>
        <time>2021-08-22T10:58:53Z</time>
      </trkpt>
      <trkpt lat="45.78016" lon="5.81837">
        <ele>387.5</ele>
        <time>2021-08-22T10:58:54Z</time>
      </trkpt>
      <trkpt lat="45.78015" lon="5.81838">
        <ele>387.6</ele>
        <time>2021-08-22T10:58:56Z</time>
      </trkpt>
      <trkpt lat="45.78014" lon="5.81838">
        <ele>387.6</ele>
        <time>2021-08-22T10:58:57Z</time>
      </trkpt>
      <trkpt lat="45.78013" lon="5.81838">
        <ele>387.8</ele>
        <time>2021-08-22T10:58:59Z</time>
      </trkpt>
      <trkpt lat="45.77952" lon="5.81854">
        <ele>393.9</ele>
        <time>2021-08-22T10:59:55Z</time>
      </trkpt>
      <trkpt lat="45.77949" lon="5.81854">
        <ele>394.1</ele>
        <time>2021-08-22T10:59:56Z</time>
      </trkpt>
      <trkpt lat="45.77945" lon="5.81853">
        <ele>394.3</ele>
        <time>2021-08-22T10:59:58Z</time>
      </trkpt>
      <trkpt lat="45.77944" lon="5.81853">
        <ele>394.4</ele>
        <time>2021-08-22T11:00:00Z</time>
      </trkpt>
      <trkpt lat="45.77943" lon="5.81852">
        <ele>394.5</ele>
        <time>2021-08-22T11:00:01Z</time>
      </trkpt>
      <trkpt lat="45.77942" lon="5.81852">
        <ele>394.6</ele>
        <time>2021-08-22T11:00:02Z</time>
      </trkpt>
      <trkpt lat="45.77941" lon="5.81852">
        <ele>394.6</ele>
        <time>2021-08-22T11:00:03Z</time>
      </trkpt>
      <trkpt lat="45.7794" lon="5.81852">
        <ele>394.7</ele>
        <time>2021-08-22T11:00:05Z</time>
      </trkpt>
      <trkpt lat="45.7794" lon="5.81852">
        <ele>394.7</ele>
        <time>2021-08-22T11:00:06Z</time>
      </trkpt>
      <trkpt lat="45.77939" lon="5.81852">
        <ele>394.7</ele>
        <time>2021-08-22T11:00:07Z</time>
      </trkpt>
      <trkpt lat="45.77939" lon="5.81851">
        <ele>394.8</ele>
        <time>2021-08-22T11:00:08Z</time>
      </trkpt>
      <trkpt lat="45.77939" lon="5.81851">
        <ele>394.8</ele>
        <time>2021-08-22T11:00:09Z</time>
      </trkpt>
      <trkpt lat="45.77938" lon="5.81851">
        <ele>394.8</ele>
        <time>2021-08-22T11:00:10Z</time>
      </trkpt>
      <trkpt lat="45.77938" lon="5.81851">
        <ele>394.8</ele>
        <time>2021-08-22T11:00:11Z</time>
      </trkpt>
      <trkpt lat="45.77937" lon="5.81851">
        <ele>394.9</ele>
        <time>2021-08-22T11:00:12Z</time>
      </trkpt>
      <trkpt lat="45.77917" lon="5.81851">
        <ele>396.2</ele>
        <time>2021-08-22T11:00:29Z</time>
      </trkpt>
      <trkpt lat="45.77912" lon="5.81854">
        <ele>396.5</ele>
        <time>2021-08-22T11:00:31Z</time>
      </trkpt>
      <trkpt lat="45.77909" lon="5.81854">
        <ele>396.8</ele>
        <time>2021-08-22T11:00:32Z</time>
      </trkpt>
      <trkpt lat="45.77908" lon="5.81855">
        <ele>396.8</ele>
        <time>2021-08-22T11:00:33Z</time>
      </trkpt>
      <trkpt lat="45.77905" lon="5.81855">
        <ele>397.1</ele>
        <time>2021-08-22T11:00:34Z</time>
      </trkpt>
      <trkpt lat="45.77904" lon="5.81856">
        <ele>397.2</ele>
        <time>2021-08-22T11:00:35Z</time>
      </trkpt>
      <trkpt lat="45.77901" lon="5.81858">
        <ele>397.4</ele>
        <time>2021-08-22T11:00:37Z</time>
      </trkpt>
      <trkpt lat="45.77899" lon="5.81859">
        <ele>397.6</ele>
        <time>2021-08-22T11:00:38Z</time>
      </trkpt>
      <trkpt lat="45.77897" lon="5.81861">
        <ele>397.8</ele>
        <time>2021-08-22T11:00:40Z</time>
      </trkpt>
      <trkpt lat="45.77895" lon="5.81861">
        <ele>398</ele>
        <time>2021-08-22T11:00:41Z</time>
      </trkpt>
      <trkpt lat="45.77893" lon="5.81862">
        <ele>398.2</ele>
        <time>2021-08-22T11:00:42Z</time>
      </trkpt>
      <trkpt lat="45.7789" lon="5.81865">
        <ele>398.5</ele>
        <time>2021-08-22T11:00:44Z</time>
      </trkpt>
      <trkpt lat="45.77889" lon="5.81865">
        <ele>398.6</ele>
        <time>2021-08-22T11:00:45Z</time>
      </trkpt>
      <trkpt lat="45.77888" lon="5.81866">
        <ele>398.8</ele>
        <time>2021-08-22T11:00:46Z</time>
      </trkpt>
      <trkpt lat="45.77886" lon="5.81868">
        <ele>399</ele>
        <time>2021-08-22T11:00:48Z</time>
      </trkpt>
      <trkpt lat="45.77885" lon="5.81868">
        <ele>399.1</ele>
        <time>2021-08-22T11:00:50Z</time>
      </trkpt>
      <trkpt lat="45.77885" lon="5.81868">
        <ele>399.1</ele>
        <time>2021-08-22T11:00:51Z</time>
      </trkpt>
      <trkpt lat="45.77885" lon="5.81868">
        <ele>399.1</ele>
        <time>2021-08-22T11:00:52Z</time>
      </trkpt>
      <trkpt lat="45.77885" lon="5.81867">
        <ele>399.2</ele>
        <time>2021-08-22T11:00:53Z</time>
      </trkpt>
      <trkpt lat="45.77885" lon="5.81867">
        <ele>399.2</ele>
        <time>2021-08-22T11:00:55Z</time>
      </trkpt>
      <trkpt lat="45.77885" lon="5.81867">
        <ele>399.2</ele>
        <time>2021-08-22T11:00:56Z</time>
      </trkpt>
      <trkpt lat="45.77885" lon="5.81867">
        <ele>399.2</ele>
        <time>2021-08-22T11:00:57Z</time>
      </trkpt>
      <trkpt lat="45.77885" lon="5.81868">
        <ele>399.2</ele>
        <time>2021-08-22T11:00:59Z</time>
      </trkpt>
      <trkpt lat="45.77879" lon="5.81869">
        <ele>399.9</ele>
        <time>2021-08-22T11:01:08Z</time>
      </trkpt>
      <trkpt lat="45.77875" lon="5.81871">
        <ele>400.3</ele>
        <time>2021-08-22T11:01:09Z</time>
      </trkpt>
      <trkpt lat="45.77873" lon="5.81873">
        <ele>400.5</ele>
        <time>2021-08-22T11:01:11Z</time>
      </trkpt>
      <trkpt lat="45.77872" lon="5.81873">
        <ele>400.6</ele>
        <time>2021-08-22T11:01:12Z</time>
      </trkpt>
      <trkpt lat="45.77871" lon="5.81874">
        <ele>400.7</ele>
        <time>2021-08-22T11:01:13Z</time>
      </trkpt>
      <trkpt lat="45.77869" lon="5.81875">
        <ele>401</ele>
        <time>2021-08-22T11:01:14Z</time>
      </trkpt>
      <trkpt lat="45.77867" lon="5.81876">
        <ele>401.3</ele>
        <time>2021-08-22T11:01:15Z</time>
      </trkpt>
      <trkpt lat="45.77865" lon="5.81877">
        <ele>401.5</ele>
        <time>2021-08-22T11:01:17Z</time>
      </trkpt>
      <trkpt lat="45.77864" lon="5.81878">
        <ele>401.6</ele>
        <time>2021-08-22T11:01:18Z</time>
      </trkpt>
      <trkpt lat="45.77863" lon="5.81878">
        <ele>401.7</ele>
        <time>2021-08-22T11:01:19Z</time>
      </trkpt>
      <trkpt lat="45.77861" lon="5.81879">
        <ele>401.9</ele>
        <time>2021-08-22T11:01:20Z</time>
      </trkpt>
      <trkpt lat="45.77859" lon="5.81881">
        <ele>402.2</ele>
        <time>2021-08-22T11:01:21Z</time>
      </trkpt>
      <trkpt lat="45.77858" lon="5.81882">
        <ele>402.3</ele>
        <time>2021-08-22T11:01:22Z</time>
      </trkpt>
      <trkpt lat="45.77857" lon="5.81883">
        <ele>402.4</ele>
        <time>2021-08-22T11:01:23Z</time>
      </trkpt>
      <trkpt lat="45.77857" lon="5.81883">
        <ele>402.5</ele>
        <time>2021-08-22T11:01:24Z</time>
      </trkpt>
      <trkpt lat="45.77838" lon="5.81894">
        <ele>404.6</ele>
        <time>2021-08-22T11:01:57Z</time>
      </trkpt>
      <trkpt lat="45.77835" lon="5.81894">
        <ele>404.9</ele>
        <time>2021-08-22T11:01:58Z</time>
      </trkpt>
      <trkpt lat="45.77832" lon="5.81894">
        <ele>405.2</ele>
        <time>2021-08-22T11:01:59Z</time>
      </trkpt>
      <trkpt lat="45.77828" lon="5.81895">
        <ele>405.6</ele>
        <time>2021-08-22T11:02:00Z</time>
      </trkpt>
      <trkpt lat="45.77827" lon="5.81895">
        <ele>405.7</ele>
        <time>2021-08-22T11:02:01Z</time>
      </trkpt>
      <trkpt lat="45.77826" lon="5.81895">
        <ele>405.8</ele>
        <time>2021-08-22T11:02:02Z</time>
      </trkpt>
      <trkpt lat="45.77825" lon="5.81896">
        <ele>406</ele>
        <time>2021-08-22T11:02:03Z</time>
      </trkpt>
      <trkpt lat="45.77824" lon="5.81897">
        <ele>406.1</ele>
        <time>2021-08-22T11:02:04Z</time>
      </trkpt>
      <trkpt lat="45.77823" lon="5.81897">
        <ele>406.1</ele>
        <time>2021-08-22T11:02:05Z</time>
      </trkpt>
      <trkpt lat="45.77822" lon="5.81898">
        <ele>406.2</ele>
        <time>2021-08-22T11:02:06Z</time>
      </trkpt>
      <trkpt lat="45.77822" lon="5.81898">
        <ele>406.3</ele>
        <time>2021-08-22T11:02:07Z</time>
      </trkpt>
      <trkpt lat="45.77821" lon="5.81899">
        <ele>406.3</ele>
        <time>2021-08-22T11:02:08Z</time>
      </trkpt>
      <trkpt lat="45.77818" lon="5.81902">
        <ele>406.6</ele>
        <time>2021-08-22T11:02:09Z</time>
      </trkpt>
      <trkpt lat="45.77818" lon="5.81903">
        <ele>406.7</ele>
        <time>2021-08-22T11:02:10Z</time>
      </trkpt>
      <trkpt lat="45.77815" lon="5.81905">
        <ele>407</ele>
        <time>2021-08-22T11:02:11Z</time>
      </trkpt>
      <trkpt lat="45.77814" lon="5.81906">
        <ele>407.1</ele>
        <time>2021-08-22T11:02:12Z</time>
      </trkpt>
      <trkpt lat="45.77812" lon="5.81909">
        <ele>407.4</ele>
        <time>2021-08-22T11:02:14Z</time>
      </trkpt>
      <trkpt lat="45.77809" lon="5.8191">
        <ele>407.7</ele>
        <time>2021-08-22T11:02:15Z</time>
      </trkpt>
      <trkpt lat="45.77806" lon="5.81911">
        <ele>408</ele>
        <time>2021-08-22T11:02:17Z</time>
      </trkpt>
      <trkpt lat="45.77805" lon="5.81911">
        <ele>408.1</ele>
        <time>2021-08-22T11:02:18Z</time>
      </trkpt>
      <trkpt lat="45.77803" lon="5.81911">
        <ele>408.2</ele>
        <time>2021-08-22T11:02:19Z</time>
      </trkpt>
      <trkpt lat="45.77801" lon="5.81912">
        <ele>408.4</ele>
        <time>2021-08-22T11:02:20Z</time>
      </trkpt>
      <trkpt lat="45.778" lon="5.81913">
        <ele>408.5</ele>
        <time>2021-08-22T11:02:21Z</time>
      </trkpt>
      <trkpt lat="45.77797" lon="5.81914">
        <ele>408.8</ele>
        <time>2021-08-22T11:02:23Z</time>
      </trkpt>
      <trkpt lat="45.77796" lon="5.81916">
        <ele>408.9</ele>
        <time>2021-08-22T11:02:24Z</time>
      </trkpt>
      <trkpt lat="45.77795" lon="5.81915">
        <ele>409.1</ele>
        <time>2021-08-22T11:02:26Z</time>
      </trkpt>
      <trkpt lat="45.77792" lon="5.81915">
        <ele>409.3</ele>
        <time>2021-08-22T11:02:27Z</time>
      </trkpt>
      <trkpt lat="45.7779" lon="5.81915">
        <ele>409.5</ele>
        <time>2021-08-22T11:02:29Z</time>
      </trkpt>
      <trkpt lat="45.77788" lon="5.81915">
        <ele>409.7</ele>
        <time>2021-08-22T11:02:30Z</time>
      </trkpt>
      <trkpt lat="45.77787" lon="5.81916">
        <ele>409.8</ele>
        <time>2021-08-22T11:02:31Z</time>
      </trkpt>
      <trkpt lat="45.77787" lon="5.81915">
        <ele>409.8</ele>
        <time>2021-08-22T11:02:32Z</time>
      </trkpt>
      <trkpt lat="45.77786" lon="5.81915">
        <ele>409.9</ele>
        <time>2021-08-22T11:02:34Z</time>
      </trkpt>
      <trkpt lat="45.77785" lon="5.81916">
        <ele>410.1</ele>
        <time>2021-08-22T11:02:35Z</time>
      </trkpt>
      <trkpt lat="45.77784" lon="5.81915">
        <ele>410.1</ele>
        <time>2021-08-22T11:02:36Z</time>
      </trkpt>
      <trkpt lat="45.7778" lon="5.81916">
        <ele>410.5</ele>
        <time>2021-08-22T11:02:38Z</time>
      </trkpt>
      <trkpt lat="45.77779" lon="5.81916">
        <ele>410.7</ele>
        <time>2021-08-22T11:02:39Z</time>
      </trkpt>
      <trkpt lat="45.77777" lon="5.81916">
        <ele>410.9</ele>
        <time>2021-08-22T11:02:40Z</time>
      </trkpt>
      <trkpt lat="45.77773" lon="5.81916">
        <ele>411.2</ele>
        <time>2021-08-22T11:02:42Z</time>
      </trkpt>
      <trkpt lat="45.77772" lon="5.81915">
        <ele>411.3</ele>
        <time>2021-08-22T11:02:43Z</time>
      </trkpt>
      <trkpt lat="45.77772" lon="5.81915">
        <ele>411.4</ele>
        <time>2021-08-22T11:02:44Z</time>
      </trkpt>
      <trkpt lat="45.77771" lon="5.81914">
        <ele>411.5</ele>
        <time>2021-08-22T11:02:46Z</time>
      </trkpt>
      <trkpt lat="45.77771" lon="5.81914">
        <ele>411.5</ele>
        <time>2021-08-22T11:02:47Z</time>
      </trkpt>
      <trkpt lat="45.77771" lon="5.81913">
        <ele>411.5</ele>
        <time>2021-08-22T11:02:48Z</time>
      </trkpt>
      <trkpt lat="45.7777" lon="5.81913">
        <ele>411.6</ele>
        <time>2021-08-22T11:02:50Z</time>
      </trkpt>
      <trkpt lat="45.7777" lon="5.81912">
        <ele>411.6</ele>
        <time>2021-08-22T11:02:52Z</time>
      </trkpt>
      <trkpt lat="45.77759" lon="5.81915">
        <ele>412.7</ele>
        <time>2021-08-22T11:03:03Z</time>
      </trkpt>
      <trkpt lat="45.77755" lon="5.81918">
        <ele>413.1</ele>
        <time>2021-08-22T11:03:05Z</time>
      </trkpt>
      <trkpt lat="45.77753" lon="5.81921">
        <ele>413.4</ele>
        <time>2021-08-22T11:03:06Z</time>
      </trkpt>
      <trkpt lat="45.77752" lon="5.81922">
        <ele>413.5</ele>
        <time>2021-08-22T11:03:07Z</time>
      </trkpt>
      <trkpt lat="45.77749" lon="5.81923">
        <ele>413.8</ele>
        <time>2021-08-22T11:03:08Z</time>
      </trkpt>
      <trkpt lat="45.77748" lon="5.81923">
        <ele>413.9</ele>
        <time>2021-08-22T11:03:09Z</time>
      </trkpt>
      <trkpt lat="45.77748" lon="5.81924">
        <ele>414</ele>
        <time>2021-08-22T11:03:11Z</time>
      </trkpt>
      <trkpt lat="45.77746" lon="5.81926">
        <ele>414.2</ele>
        <time>2021-08-22T11:03:12Z</time>
      </trkpt>
      <trkpt lat="45.77742" lon="5.8193">
        <ele>414.6</ele>
        <time>2021-08-22T11:03:14Z</time>
      </trkpt>
      <trkpt lat="45.77741" lon="5.8193">
        <ele>414.8</ele>
        <time>2021-08-22T11:03:15Z</time>
      </trkpt>
      <trkpt lat="45.77739" lon="5.8193">
        <ele>415</ele>
        <time>2021-08-22T11:03:17Z</time>
      </trkpt>
      <trkpt lat="45.77738" lon="5.8193">
        <ele>415.1</ele>
        <time>2021-08-22T11:03:18Z</time>
      </trkpt>
      <trkpt lat="45.77738" lon="5.8193">
        <ele>415.1</ele>
        <time>2021-08-22T11:03:19Z</time>
      </trkpt>
      <trkpt lat="45.77737" lon="5.8193">
        <ele>415.2</ele>
        <time>2021-08-22T11:03:21Z</time>
      </trkpt>
      <trkpt lat="45.77737" lon="5.8193">
        <ele>415.3</ele>
        <time>2021-08-22T11:03:23Z</time>
      </trkpt>
      <trkpt lat="45.77736" lon="5.81931">
        <ele>415.3</ele>
        <time>2021-08-22T11:03:24Z</time>
      </trkpt>
      <trkpt lat="45.77721" lon="5.81938">
        <ele>417</ele>
        <time>2021-08-22T11:04:08Z</time>
      </trkpt>
      <trkpt lat="45.77721" lon="5.8194">
        <ele>417.1</ele>
        <time>2021-08-22T11:04:10Z</time>
      </trkpt>
      <trkpt lat="45.7772" lon="5.81941">
        <ele>417.3</ele>
        <time>2021-08-22T11:04:11Z</time>
      </trkpt>
      <trkpt lat="45.77717" lon="5.81943">
        <ele>417.6</ele>
        <time>2021-08-22T11:04:13Z</time>
      </trkpt>
      <trkpt lat="45.77714" lon="5.81944">
        <ele>418</ele>
        <time>2021-08-22T11:04:14Z</time>
      </trkpt>
      <trkpt lat="45.77713" lon="5.81944">
        <ele>418.1</ele>
        <time>2021-08-22T11:04:15Z</time>
      </trkpt>
      <trkpt lat="45.77703" lon="5.81948">
        <ele>419.2</ele>
        <time>2021-08-22T11:04:17Z</time>
      </trkpt>
      <trkpt lat="45.77696" lon="5.8195">
        <ele>420</ele>
        <time>2021-08-22T11:04:18Z</time>
      </trkpt>
      <trkpt lat="45.77689" lon="5.81953">
        <ele>420.7</ele>
        <time>2021-08-22T11:04:20Z</time>
      </trkpt>
      <trkpt lat="45.77683" lon="5.81955">
        <ele>421.5</ele>
        <time>2021-08-22T11:04:21Z</time>
      </trkpt>
      <trkpt lat="45.77676" lon="5.81957">
        <ele>422.2</ele>
        <time>2021-08-22T11:04:22Z</time>
      </trkpt>
      <trkpt lat="45.77669" lon="5.81959">
        <ele>422.9</ele>
        <time>2021-08-22T11:04:24Z</time>
      </trkpt>
      <trkpt lat="45.77663" lon="5.81961">
        <ele>423.6</ele>
        <time>2021-08-22T11:04:26Z</time>
      </trkpt>
      <trkpt lat="45.77656" lon="5.81963">
        <ele>424.2</ele>
        <time>2021-08-22T11:05:38Z</time>
      </trkpt>
      <trkpt lat="45.77649" lon="5.81966">
        <ele>424.9</ele>
        <time>2021-08-22T11:05:39Z</time>
      </trkpt>
      <trkpt lat="45.77643" lon="5.81968">
        <ele>425</ele>
        <time>2021-08-22T11:05:40Z</time>
      </trkpt>
      <trkpt lat="45.77641" lon="5.81969">
        <ele>425.2</ele>
        <time>2021-08-22T11:05:41Z</time>
      </trkpt>
      <trkpt lat="45.77639" lon="5.8197">
        <ele>425.3</ele>
        <time>2021-08-22T11:05:42Z</time>
      </trkpt>
      <trkpt lat="45.77636" lon="5.81972">
        <ele>425.7</ele>
        <time>2021-08-22T11:05:44Z</time>
      </trkpt>
      <trkpt lat="45.77633" lon="5.81973">
        <ele>426</ele>
        <time>2021-08-22T11:05:45Z</time>
      </trkpt>
      <trkpt lat="45.77632" lon="5.81973">
        <ele>426</ele>
        <time>2021-08-22T11:05:46Z</time>
      </trkpt>
      <trkpt lat="45.7763" lon="5.81973">
        <ele>426.2</ele>
        <time>2021-08-22T11:05:47Z</time>
      </trkpt>
      <trkpt lat="45.7763" lon="5.81973">
        <ele>426.2</ele>
        <time>2021-08-22T11:05:49Z</time>
      </trkpt>
      <trkpt lat="45.77629" lon="5.81973">
        <ele>426.3</ele>
        <time>2021-08-22T11:05:51Z</time>
      </trkpt>
      <trkpt lat="45.77628" lon="5.81973">
        <ele>426.4</ele>
        <time>2021-08-22T11:05:53Z</time>
      </trkpt>
      <trkpt lat="45.77627" lon="5.81973">
        <ele>426.4</ele>
        <time>2021-08-22T11:05:54Z</time>
      </trkpt>
      <trkpt lat="45.77626" lon="5.81973">
        <ele>426.5</ele>
        <time>2021-08-22T11:05:55Z</time>
      </trkpt>
      <trkpt lat="45.77626" lon="5.81973">
        <ele>426.6</ele>
        <time>2021-08-22T11:05:56Z</time>
      </trkpt>
      <trkpt lat="45.77616" lon="5.8197">
        <ele>427.6</ele>
        <time>2021-08-22T11:06:07Z</time>
      </trkpt>
      <trkpt lat="45.77613" lon="5.81969">
        <ele>428</ele>
        <time>2021-08-22T11:06:08Z</time>
      </trkpt>
      <trkpt lat="45.77609" lon="5.81968">
        <ele>428.4</ele>
        <time>2021-08-22T11:06:09Z</time>
      </trkpt>
      <trkpt lat="45.77607" lon="5.81968">
        <ele>428.7</ele>
        <time>2021-08-22T11:06:10Z</time>
      </trkpt>
      <trkpt lat="45.77605" lon="5.81967">
        <ele>429</ele>
        <time>2021-08-22T11:06:12Z</time>
      </trkpt>
      <trkpt lat="45.776" lon="5.81966">
        <ele>429.6</ele>
        <time>2021-08-22T11:06:14Z</time>
      </trkpt>
      <trkpt lat="45.77599" lon="5.81966">
        <ele>429.8</ele>
        <time>2021-08-22T11:06:15Z</time>
      </trkpt>
      <trkpt lat="45.77598" lon="5.81966">
        <ele>430</ele>
        <time>2021-08-22T11:06:16Z</time>
      </trkpt>
      <trkpt lat="45.77596" lon="5.81966">
        <ele>430.2</ele>
        <time>2021-08-22T11:06:18Z</time>
      </trkpt>
      <trkpt lat="45.77594" lon="5.81965">
        <ele>430.4</ele>
        <time>2021-08-22T11:06:20Z</time>
      </trkpt>
      <trkpt lat="45.77591" lon="5.81966">
        <ele>430.8</ele>
        <time>2021-08-22T11:06:21Z</time>
      </trkpt>
      <trkpt lat="45.7759" lon="5.81966">
        <ele>431</ele>
        <time>2021-08-22T11:06:22Z</time>
      </trkpt>
      <trkpt lat="45.77587" lon="5.81968">
        <ele>431.3</ele>
        <time>2021-08-22T11:06:23Z</time>
      </trkpt>
      <trkpt lat="45.77585" lon="5.8197">
        <ele>431.6</ele>
        <time>2021-08-22T11:06:24Z</time>
      </trkpt>
      <trkpt lat="45.7758" lon="5.8197">
        <ele>432.1</ele>
        <time>2021-08-22T11:06:26Z</time>
      </trkpt>
      <trkpt lat="45.77578" lon="5.81973">
        <ele>432.4</ele>
        <time>2021-08-22T11:06:27Z</time>
      </trkpt>
      <trkpt lat="45.77577" lon="5.81974">
        <ele>432.5</ele>
        <time>2021-08-22T11:06:28Z</time>
      </trkpt>
      <trkpt lat="45.77573" lon="5.81977">
        <ele>432.9</ele>
        <time>2021-08-22T11:06:30Z</time>
      </trkpt>
      <trkpt lat="45.77572" lon="5.81978">
        <ele>432.9</ele>
        <time>2021-08-22T11:06:31Z</time>
      </trkpt>
      <trkpt lat="45.77571" lon="5.81979">
        <ele>433</ele>
        <time>2021-08-22T11:06:33Z</time>
      </trkpt>
      <trkpt lat="45.77571" lon="5.8198">
        <ele>433.1</ele>
        <time>2021-08-22T11:06:34Z</time>
      </trkpt>
      <trkpt lat="45.77571" lon="5.81981">
        <ele>433.2</ele>
        <time>2021-08-22T11:06:35Z</time>
      </trkpt>
      <trkpt lat="45.77569" lon="5.81985">
        <ele>433.4</ele>
        <time>2021-08-22T11:06:37Z</time>
      </trkpt>
      <trkpt lat="45.77567" lon="5.81988">
        <ele>433.7</ele>
        <time>2021-08-22T11:06:38Z</time>
      </trkpt>
      <trkpt lat="45.77567" lon="5.8199">
        <ele>433.9</ele>
        <time>2021-08-22T11:06:40Z</time>
      </trkpt>
      <trkpt lat="45.77566" lon="5.81992">
        <ele>434</ele>
        <time>2021-08-22T11:06:41Z</time>
      </trkpt>
      <trkpt lat="45.77565" lon="5.81994">
        <ele>434.2</ele>
        <time>2021-08-22T11:06:42Z</time>
      </trkpt>
      <trkpt lat="45.77563" lon="5.81997">
        <ele>434.5</ele>
        <time>2021-08-22T11:06:44Z</time>
      </trkpt>
      <trkpt lat="45.77562" lon="5.81998">
        <ele>434.6</ele>
        <time>2021-08-22T11:06:45Z</time>
      </trkpt>
      <trkpt lat="45.77561" lon="5.82001">
        <ele>434.8</ele>
        <time>2021-08-22T11:06:47Z</time>
      </trkpt>
      <trkpt lat="45.7756" lon="5.82005">
        <ele>435.1</ele>
        <time>2021-08-22T11:06:48Z</time>
      </trkpt>
      <trkpt lat="45.7756" lon="5.8201">
        <ele>435.5</ele>
        <time>2021-08-22T11:06:50Z</time>
      </trkpt>
      <trkpt lat="45.7756" lon="5.82012">
        <ele>435.7</ele>
        <time>2021-08-22T11:06:51Z</time>
      </trkpt>
      <trkpt lat="45.7756" lon="5.82014">
        <ele>435.9</ele>
        <time>2021-08-22T11:06:53Z</time>
      </trkpt>
      <trkpt lat="45.7756" lon="5.82016">
        <ele>436</ele>
        <time>2021-08-22T11:06:54Z</time>
      </trkpt>
      <trkpt lat="45.7756" lon="5.82017">
        <ele>436.2</ele>
        <time>2021-08-22T11:06:55Z</time>
      </trkpt>
      <trkpt lat="45.7756" lon="5.82018">
        <ele>436.2</ele>
        <time>2021-08-22T11:06:56Z</time>
      </trkpt>
      <trkpt lat="45.77559" lon="5.82016">
        <ele>436.3</ele>
        <time>2021-08-22T11:06:57Z</time>
      </trkpt>
      <trkpt lat="45.77559" lon="5.82016">
        <ele>436.4</ele>
        <time>2021-08-22T11:06:58Z</time>
      </trkpt>
      <trkpt lat="45.77559" lon="5.82016">
        <ele>436.4</ele>
        <time>2021-08-22T11:06:59Z</time>
      </trkpt>
      <trkpt lat="45.77559" lon="5.82016">
        <ele>436.4</ele>
        <time>2021-08-22T11:07:01Z</time>
      </trkpt>
      <trkpt lat="45.77559" lon="5.82016">
        <ele>436.5</ele>
        <time>2021-08-22T11:07:02Z</time>
      </trkpt>
      <trkpt lat="45.77559" lon="5.82016">
        <ele>436.5</ele>
        <time>2021-08-22T11:07:04Z</time>
      </trkpt>
      <trkpt lat="45.77559" lon="5.82018">
        <ele>436.7</ele>
        <time>2021-08-22T11:07:06Z</time>
      </trkpt>
      <trkpt lat="45.77486" lon="5.82025">
        <ele>445</ele>
        <time>2021-08-22T11:08:28Z</time>
      </trkpt>
      <trkpt lat="45.77485" lon="5.82021">
        <ele>447</ele>
        <time>2021-08-22T11:08:29Z</time>
      </trkpt>
      <trkpt lat="45.77482" lon="5.82016">
        <ele>447.4</ele>
        <time>2021-08-22T11:08:31Z</time>
      </trkpt>
      <trkpt lat="45.77481" lon="5.82014">
        <ele>447.6</ele>
        <time>2021-08-22T11:08:32Z</time>
      </trkpt>
      <trkpt lat="45.7748" lon="5.82009">
        <ele>448</ele>
        <time>2021-08-22T11:08:34Z</time>
      </trkpt>
      <trkpt lat="45.77479" lon="5.82007">
        <ele>448.2</ele>
        <time>2021-08-22T11:08:35Z</time>
      </trkpt>
      <trkpt lat="45.77479" lon="5.82006">
        <ele>448.3</ele>
        <time>2021-08-22T11:08:36Z</time>
      </trkpt>
      <trkpt lat="45.77479" lon="5.82005">
        <ele>448.3</ele>
        <time>2021-08-22T11:08:37Z</time>
      </trkpt>
      <trkpt lat="45.77479" lon="5.82004">
        <ele>448.4</ele>
        <time>2021-08-22T11:08:38Z</time>
      </trkpt>
      <trkpt lat="45.77477" lon="5.82003">
        <ele>448.6</ele>
        <time>2021-08-22T11:08:40Z</time>
      </trkpt>
      <trkpt lat="45.77476" lon="5.82001">
        <ele>448.7</ele>
        <time>2021-08-22T11:08:42Z</time>
      </trkpt>
      <trkpt lat="45.77448" lon="5.81985">
        <ele>452.2</ele>
        <time>2021-08-22T11:09:06Z</time>
      </trkpt>
      <trkpt lat="45.77446" lon="5.81985">
        <ele>452.3</ele>
        <time>2021-08-22T11:09:07Z</time>
      </trkpt>
      <trkpt lat="45.77444" lon="5.81984">
        <ele>452.4</ele>
        <time>2021-08-22T11:09:09Z</time>
      </trkpt>
      <trkpt lat="45.77443" lon="5.81984">
        <ele>452.6</ele>
        <time>2021-08-22T11:09:11Z</time>
      </trkpt>
      <trkpt lat="45.77442" lon="5.81983">
        <ele>452.6</ele>
        <time>2021-08-22T11:09:13Z</time>
      </trkpt>
      <trkpt lat="45.77442" lon="5.81982">
        <ele>452.7</ele>
        <time>2021-08-22T11:09:15Z</time>
      </trkpt>
      <trkpt lat="45.77441" lon="5.81981">
        <ele>452.7</ele>
        <time>2021-08-22T11:09:16Z</time>
      </trkpt>
      <trkpt lat="45.77441" lon="5.81981">
        <ele>452.8</ele>
        <time>2021-08-22T11:09:17Z</time>
      </trkpt>
      <trkpt lat="45.7744" lon="5.81979">
        <ele>452.9</ele>
        <time>2021-08-22T11:09:19Z</time>
      </trkpt>
      <trkpt lat="45.7744" lon="5.81978">
        <ele>453</ele>
        <time>2021-08-22T11:09:20Z</time>
      </trkpt>
      <trkpt lat="45.7744" lon="5.81977">
        <ele>453</ele>
        <time>2021-08-22T11:09:22Z</time>
      </trkpt>
      <trkpt lat="45.77439" lon="5.81976">
        <ele>453.1</ele>
        <time>2021-08-22T11:09:23Z</time>
      </trkpt>
      <trkpt lat="45.77438" lon="5.81972">
        <ele>453.3</ele>
        <time>2021-08-22T11:09:25Z</time>
      </trkpt>
      <trkpt lat="45.77436" lon="5.8197">
        <ele>453.5</ele>
        <time>2021-08-22T11:09:27Z</time>
      </trkpt>
      <trkpt lat="45.77434" lon="5.81967">
        <ele>453.8</ele>
        <time>2021-08-22T11:09:29Z</time>
      </trkpt>
      <trkpt lat="45.77431" lon="5.81962">
        <ele>454.2</ele>
        <time>2021-08-22T11:09:30Z</time>
      </trkpt>
      <trkpt lat="45.77429" lon="5.81959">
        <ele>454.5</ele>
        <time>2021-08-22T11:09:31Z</time>
      </trkpt>
      <trkpt lat="45.77426" lon="5.81955">
        <ele>454.8</ele>
        <time>2021-08-22T11:09:32Z</time>
      </trkpt>
      <trkpt lat="45.77419" lon="5.81945">
        <ele>455.8</ele>
        <time>2021-08-22T11:09:33Z</time>
      </trkpt>
      <trkpt lat="45.77415" lon="5.81942">
        <ele>456.3</ele>
        <time>2021-08-22T11:09:35Z</time>
      </trkpt>
      <trkpt lat="45.77411" lon="5.81941">
        <ele>456.7</ele>
        <time>2021-08-22T11:09:36Z</time>
      </trkpt>
      <trkpt lat="45.7741" lon="5.81941">
        <ele>456.8</ele>
        <time>2021-08-22T11:09:37Z</time>
      </trkpt>
      <trkpt lat="45.77406" lon="5.8194">
        <ele>457.3</ele>
        <time>2021-08-22T11:09:39Z</time>
      </trkpt>
      <trkpt lat="45.77402" lon="5.81939">
        <ele>457.7</ele>
        <time>2021-08-22T11:09:41Z</time>
      </trkpt>
      <trkpt lat="45.774" lon="5.81936">
        <ele>458</ele>
        <time>2021-08-22T11:09:42Z</time>
      </trkpt>
      <trkpt lat="45.77396" lon="5.81935">
        <ele>458.4</ele>
        <time>2021-08-22T11:09:44Z</time>
      </trkpt>
      <trkpt lat="45.77394" lon="5.81935">
        <ele>458.6</ele>
        <time>2021-08-22T11:09:45Z</time>
      </trkpt>
      <trkpt lat="45.77393" lon="5.81934">
        <ele>458.7</ele>
        <time>2021-08-22T11:09:47Z</time>
      </trkpt>
      <trkpt lat="45.77392" lon="5.81933">
        <ele>458.8</ele>
        <time>2021-08-22T11:09:48Z</time>
      </trkpt>
      <trkpt lat="45.77392" lon="5.81933">
        <ele>458.8</ele>
        <time>2021-08-22T11:09:49Z</time>
      </trkpt>
      <trkpt lat="45.77392" lon="5.81933">
        <ele>458.8</ele>
        <time>2021-08-22T11:09:51Z</time>
      </trkpt>
      <trkpt lat="45.77392" lon="5.81933">
        <ele>458.8</ele>
        <time>2021-08-22T11:09:52Z</time>
      </trkpt>
      <trkpt lat="45.77392" lon="5.81933">
        <ele>458.9</ele>
        <time>2021-08-22T11:09:54Z</time>
      </trkpt>
      <trkpt lat="45.77391" lon="5.81933">
        <ele>458.9</ele>
        <time>2021-08-22T11:09:55Z</time>
      </trkpt>
      <trkpt lat="45.77268" lon="5.81957">
        <ele>475</ele>
        <time>2021-08-22T11:13:34Z</time>
      </trkpt>
      <trkpt lat="45.77265" lon="5.81959">
        <ele>475.1</ele>
        <time>2021-08-22T11:13:36Z</time>
      </trkpt>
      <trkpt lat="45.77265" lon="5.81959">
        <ele>475.1</ele>
        <time>2021-08-22T11:13:38Z</time>
      </trkpt>
      <trkpt lat="45.77265" lon="5.8196">
        <ele>475.1</ele>
        <time>2021-08-22T11:13:39Z</time>
      </trkpt>
      <trkpt lat="45.77265" lon="5.8196">
        <ele>475.1</ele>
        <time>2021-08-22T11:13:41Z</time>
      </trkpt>
      <trkpt lat="45.77264" lon="5.8196">
        <ele>475.1</ele>
        <time>2021-08-22T11:13:42Z</time>
      </trkpt>
      <trkpt lat="45.77264" lon="5.8196">
        <ele>475.1</ele>
        <time>2021-08-22T11:13:43Z</time>
      </trkpt>
      <trkpt lat="45.77264" lon="5.81961">
        <ele>475.2</ele>
        <time>2021-08-22T11:13:45Z</time>
      </trkpt>
      <trkpt lat="45.77263" lon="5.81961">
        <ele>475.2</ele>
        <time>2021-08-22T11:13:47Z</time>
      </trkpt>
      <trkpt lat="45.77263" lon="5.81962">
        <ele>475.2</ele>
        <time>2021-08-22T11:13:48Z</time>
      </trkpt>
      <trkpt lat="45.77262" lon="5.81962">
        <ele>475.2</ele>
        <time>2021-08-22T11:13:50Z</time>
      </trkpt>
      <trkpt lat="45.77262" lon="5.81963">
        <ele>475.2</ele>
        <time>2021-08-22T11:13:51Z</time>
      </trkpt>
      <trkpt lat="45.77261" lon="5.81964">
        <ele>475.2</ele>
        <time>2021-08-22T11:13:53Z</time>
      </trkpt>
      <trkpt lat="45.77261" lon="5.81964">
        <ele>475.2</ele>
        <time>2021-08-22T11:13:54Z</time>
      </trkpt>
      <trkpt lat="45.77254" lon="5.81973">
        <ele>475.5</ele>
        <time>2021-08-22T11:13:56Z</time>
      </trkpt>
      <trkpt lat="45.77253" lon="5.81976">
        <ele>475.5</ele>
        <time>2021-08-22T11:13:57Z</time>
      </trkpt>
      <trkpt lat="45.77252" lon="5.81976">
        <ele>475.6</ele>
        <time>2021-08-22T11:13:59Z</time>
      </trkpt>
      <trkpt lat="45.77252" lon="5.81977">
        <ele>475.6</ele>
        <time>2021-08-22T11:14:00Z</time>
      </trkpt>
      <trkpt lat="45.77252" lon="5.81977">
        <ele>475.6</ele>
        <time>2021-08-22T11:14:02Z</time>
      </trkpt>
      <trkpt lat="45.77251" lon="5.81978">
        <ele>475.6</ele>
        <time>2021-08-22T11:14:04Z</time>
      </trkpt>
      <trkpt lat="45.77251" lon="5.81977">
        <ele>475.6</ele>
        <time>2021-08-22T11:14:05Z</time>
      </trkpt>
      <trkpt lat="45.7725" lon="5.81976">
        <ele>475.6</ele>
        <time>2021-08-22T11:14:07Z</time>
      </trkpt>
      <trkpt lat="45.7725" lon="5.81976">
        <ele>475.7</ele>
        <time>2021-08-22T11:14:09Z</time>
      </trkpt>
      <trkpt lat="45.77249" lon="5.81975">
        <ele>475.7</ele>
        <time>2021-08-22T11:14:10Z</time>
      </trkpt>
      <trkpt lat="45.77248" lon="5.81974">
        <ele>475.7</ele>
        <time>2021-08-22T11:14:12Z</time>
      </trkpt>
      <trkpt lat="45.77247" lon="5.81974">
        <ele>475.7</ele>
        <time>2021-08-22T11:14:13Z</time>
      </trkpt>
      <trkpt lat="45.77246" lon="5.81974">
        <ele>475.8</ele>
        <time>2021-08-22T11:14:15Z</time>
      </trkpt>
      <trkpt lat="45.77246" lon="5.81974">
        <ele>475.8</ele>
        <time>2021-08-22T11:14:16Z</time>
      </trkpt>
      <trkpt lat="45.77248" lon="5.81971">
        <ele>475.8</ele>
        <time>2021-08-22T11:14:17Z</time>
      </trkpt>
      <trkpt lat="45.7725" lon="5.81969">
        <ele>475.9</ele>
        <time>2021-08-22T11:14:18Z</time>
      </trkpt>
      <trkpt lat="45.77256" lon="5.81964">
        <ele>476.1</ele>
        <time>2021-08-22T11:14:20Z</time>
      </trkpt>
      <trkpt lat="45.77259" lon="5.81961">
        <ele>475.8</ele>
        <time>2021-08-22T11:14:21Z</time>
      </trkpt>
      <trkpt lat="45.77263" lon="5.81958">
        <ele>475.5</ele>
        <time>2021-08-22T11:14:23Z</time>
      </trkpt>
      <trkpt lat="45.77265" lon="5.81957">
        <ele>475.3</ele>
        <time>2021-08-22T11:14:24Z</time>
      </trkpt>
      <trkpt lat="45.77267" lon="5.81955">
        <ele>475.1</ele>
        <time>2021-08-22T11:14:26Z</time>
      </trkpt>
      <trkpt lat="45.77268" lon="5.81954">
        <ele>474.9</ele>
        <time>2021-08-22T11:14:28Z</time>
      </trkpt>
      <trkpt lat="45.7727" lon="5.81952">
        <ele>474.7</ele>
        <time>2021-08-22T11:14:29Z</time>
      </trkpt>
      <trkpt lat="45.77277" lon="5.81949">
        <ele>474.1</ele>
        <time>2021-08-22T11:14:31Z</time>
      </trkpt>
      <trkpt lat="45.77278" lon="5.81948">
        <ele>474</ele>
        <time>2021-08-22T11:14:32Z</time>
      </trkpt>
      <trkpt lat="45.77279" lon="5.81947">
        <ele>473.9</ele>
        <time>2021-08-22T11:14:34Z</time>
      </trkpt>
      <trkpt lat="45.7728" lon="5.81947">
        <ele>473.8</ele>
        <time>2021-08-22T11:14:35Z</time>
      </trkpt>
      <trkpt lat="45.7728" lon="5.81947">
        <ele>473.8</ele>
        <time>2021-08-22T11:14:37Z</time>
      </trkpt>
      <trkpt lat="45.7728" lon="5.81947">
        <ele>473.8</ele>
        <time>2021-08-22T11:14:38Z</time>
      </trkpt>
      <trkpt lat="45.7728" lon="5.81947">
        <ele>473.8</ele>
        <time>2021-08-22T11:14:40Z</time>
      </trkpt>
      <trkpt lat="45.7728" lon="5.81947">
        <ele>473.8</ele>
        <time>2021-08-22T11:14:41Z</time>
      </trkpt>
      <trkpt lat="45.7728" lon="5.81947">
        <ele>473.8</ele>
        <time>2021-08-22T11:14:43Z</time>
      </trkpt>
      <trkpt lat="45.7728" lon="5.81945">
        <ele>473.7</ele>
        <time>2021-08-22T11:14:45Z</time>
      </trkpt>
      <trkpt lat="45.77282" lon="5.81941">
        <ele>473.4</ele>
        <time>2021-08-22T11:14:47Z</time>
      </trkpt>
      <trkpt lat="45.77282" lon="5.81938">
        <ele>473.2</ele>
        <time>2021-08-22T11:14:48Z</time>
      </trkpt>
      <trkpt lat="45.77283" lon="5.81937">
        <ele>473.1</ele>
        <time>2021-08-22T11:14:50Z</time>
      </trkpt>
      <trkpt lat="45.77283" lon="5.81937">
        <ele>473.1</ele>
        <time>2021-08-22T11:14:51Z</time>
      </trkpt>
      <trkpt lat="45.77284" lon="5.81937">
        <ele>473</ele>
        <time>2021-08-22T11:14:53Z</time>
      </trkpt>
      <trkpt lat="45.77284" lon="5.81938">
        <ele>472.9</ele>
        <time>2021-08-22T11:14:54Z</time>
      </trkpt>
      <trkpt lat="45.77285" lon="5.81938">
        <ele>472.8</ele>
        <time>2021-08-22T11:14:55Z</time>
      </trkpt>
      <trkpt lat="45.77286" lon="5.81939">
        <ele>472.8</ele>
        <time>2021-08-22T11:14:56Z</time>
      </trkpt>
      <trkpt lat="45.77286" lon="5.8194">
        <ele>472.7</ele>
        <time>2021-08-22T11:14:58Z</time>
      </trkpt>
      <trkpt lat="45.77287" lon="5.81941">
        <ele>472.6</ele>
        <time>2021-08-22T11:14:59Z</time>
      </trkpt>
      <trkpt lat="45.77287" lon="5.81942">
        <ele>472.5</ele>
        <time>2021-08-22T11:15:01Z</time>
      </trkpt>
      <trkpt lat="45.77287" lon="5.81943">
        <ele>472.5</ele>
        <time>2021-08-22T11:15:02Z</time>
      </trkpt>
      <trkpt lat="45.77287" lon="5.81943">
        <ele>472.5</ele>
        <time>2021-08-22T11:15:03Z</time>
      </trkpt>
      <trkpt lat="45.77287" lon="5.81943">
        <ele>472.4</ele>
        <time>2021-08-22T11:15:05Z</time>
      </trkpt>
      <trkpt lat="45.77287" lon="5.81944">
        <ele>472.4</ele>
        <time>2021-08-22T11:15:06Z</time>
      </trkpt>
      <trkpt lat="45.77287" lon="5.81944">
        <ele>472.4</ele>
        <time>2021-08-22T11:15:08Z</time>
      </trkpt>
      <trkpt lat="45.77287" lon="5.81944">
        <ele>472.4</ele>
        <time>2021-08-22T11:15:09Z</time>
      </trkpt>
      <trkpt lat="45.77287" lon="5.81944">
        <ele>472.4</ele>
        <time>2021-08-22T11:15:11Z</time>
      </trkpt>
      <trkpt lat="45.77287" lon="5.81944">
        <ele>472.4</ele>
        <time>2021-08-22T11:15:12Z</time>
      </trkpt>
      <trkpt lat="45.77287" lon="5.81944">
        <ele>472.4</ele>
        <time>2021-08-22T11:15:13Z</time>
      </trkpt>
      <trkpt lat="45.77287" lon="5.81944">
        <ele>472.4</ele>
        <time>2021-08-22T11:15:14Z</time>
      </trkpt>
      <trkpt lat="45.77287" lon="5.81944">
        <ele>472.4</ele>
        <time>2021-08-22T11:15:16Z</time>
      </trkpt>
      <trkpt lat="45.77287" lon="5.81944">
        <ele>472.3</ele>
        <time>2021-08-22T11:15:17Z</time>
      </trkpt>
      <trkpt lat="45.77287" lon="5.81944">
        <ele>472.3</ele>
        <time>2021-08-22T11:15:18Z</time>
      </trkpt>
      <trkpt lat="45.77287" lon="5.81945">
        <ele>472.3</ele>
        <time>2021-08-22T11:15:20Z</time>
      </trkpt>
      <trkpt lat="45.77287" lon="5.81945">
        <ele>472.3</ele>
        <time>2021-08-22T11:15:22Z</time>
      </trkpt>
      <trkpt lat="45.77287" lon="5.81945">
        <ele>472.3</ele>
        <time>2021-08-22T11:15:23Z</time>
      </trkpt>
      <trkpt lat="45.77287" lon="5.81945">
        <ele>472.3</ele>
        <time>2021-08-22T11:15:24Z</time>
      </trkpt>
      <trkpt lat="45.77287" lon="5.81945">
        <ele>472.3</ele>
        <time>2021-08-22T11:15:25Z</time>
      </trkpt>
      <trkpt lat="45.77287" lon="5.81945">
        <ele>472.3</ele>
        <time>2021-08-22T11:15:26Z</time>
      </trkpt>
      <trkpt lat="45.77287" lon="5.81945">
        <ele>472.3</ele>
        <time>2021-08-22T11:15:28Z</time>
      </trkpt>
      <trkpt lat="45.77287" lon="5.81945">
        <ele>472.3</ele>
        <time>2021-08-22T11:15:29Z</time>
      </trkpt>
      <trkpt lat="45.77287" lon="5.81945">
        <ele>472.3</ele>
        <time>2021-08-22T11:15:30Z</time>
      </trkpt>
      <trkpt lat="45.77287" lon="5.81945">
        <ele>472.3</ele>
        <time>2021-08-22T11:15:32Z</time>
      </trkpt>
      <trkpt lat="45.77287" lon="5.81947">
        <ele>472.2</ele>
        <time>2021-08-22T11:15:33Z</time>
      </trkpt>
      <trkpt lat="45.77286" lon="5.81948">
        <ele>472.1</ele>
        <time>2021-08-22T11:15:34Z</time>
      </trkpt>
      <trkpt lat="45.77286" lon="5.81949">
        <ele>472</ele>
        <time>2021-08-22T11:15:36Z</time>
      </trkpt>
      <trkpt lat="45.77286" lon="5.8195">
        <ele>471.9</ele>
        <time>2021-08-22T11:15:37Z</time>
      </trkpt>
      <trkpt lat="45.77287" lon="5.8195">
        <ele>471.9</ele>
        <time>2021-08-22T11:15:38Z</time>
      </trkpt>
      <trkpt lat="45.7729" lon="5.81952">
        <ele>471.6</ele>
        <time>2021-08-22T11:15:40Z</time>
      </trkpt>
      <trkpt lat="45.77295" lon="5.81951">
        <ele>471.1</ele>
        <time>2021-08-22T11:15:42Z</time>
      </trkpt>
      <trkpt lat="45.77297" lon="5.81951">
        <ele>470.9</ele>
        <time>2021-08-22T11:15:43Z</time>
      </trkpt>
      <trkpt lat="45.77297" lon="5.8195">
        <ele>470.9</ele>
        <time>2021-08-22T11:15:45Z</time>
      </trkpt>
      <trkpt lat="45.77298" lon="5.81951">
        <ele>470.9</ele>
        <time>2021-08-22T11:15:47Z</time>
      </trkpt>
      <trkpt lat="45.77298" lon="5.81951">
        <ele>470.8</ele>
        <time>2021-08-22T11:15:48Z</time>
      </trkpt>
      <trkpt lat="45.77298" lon="5.8195">
        <ele>470.8</ele>
        <time>2021-08-22T11:15:50Z</time>
      </trkpt>
      <trkpt lat="45.77323" lon="5.81974">
        <ele>468.3</ele>
        <time>2021-08-22T11:28:54Z</time>
      </trkpt>
      <trkpt lat="45.77323" lon="5.81974">
        <ele>468.4</ele>
        <time>2021-08-22T11:28:59Z</time>
      </trkpt>
      <trkpt lat="45.77337" lon="5.82014">
        <ele>470.1</ele>
        <time>2021-08-22T11:29:06Z</time>
      </trkpt>
      <trkpt lat="45.77337" lon="5.82014">
        <ele>470.1</ele>
        <time>2021-08-22T11:29:11Z</time>
      </trkpt>
      <trkpt lat="45.77339" lon="5.8202">
        <ele>470.4</ele>
        <time>2021-08-22T11:29:18Z</time>
      </trkpt>
      <trkpt lat="45.77339" lon="5.8202">
        <ele>470.4</ele>
        <time>2021-08-22T11:29:24Z</time>
      </trkpt>
      <trkpt lat="45.77335" lon="5.82008">
        <ele>470.9</ele>
        <time>2021-08-22T11:31:30Z</time>
      </trkpt>
      <trkpt lat="45.77335" lon="5.82008">
        <ele>470.9</ele>
        <time>2021-08-22T11:31:35Z</time>
      </trkpt>
      <trkpt lat="45.77271" lon="5.81889">
        <ele>476.8</ele>
        <time>2021-08-22T11:31:47Z</time>
      </trkpt>
      <trkpt lat="45.7727" lon="5.81889">
        <ele>476.8</ele>
        <time>2021-08-22T11:31:49Z</time>
      </trkpt>
      <trkpt lat="45.7727" lon="5.81889">
        <ele>476.8</ele>
        <time>2021-08-22T11:31:50Z</time>
      </trkpt>
      <trkpt lat="45.7727" lon="5.81889">
        <ele>476.8</ele>
        <time>2021-08-22T11:31:52Z</time>
      </trkpt>
      <trkpt lat="45.77294" lon="5.81899">
        <ele>472.9</ele>
        <time>2021-08-22T11:36:30Z</time>
      </trkpt>
      <trkpt lat="45.77332" lon="5.82">
        <ele>466.7</ele>
        <time>2021-08-22T11:36:37Z</time>
      </trkpt>
      <trkpt lat="45.77332" lon="5.82">
        <ele>466.7</ele>
        <time>2021-08-22T11:36:42Z</time>
      </trkpt>
      <trkpt lat="45.77288" lon="5.81916">
        <ele>472.3</ele>
        <time>2021-08-22T11:39:26Z</time>
      </trkpt>
      <trkpt lat="45.77287" lon="5.81915">
        <ele>472.4</ele>
        <time>2021-08-22T11:39:27Z</time>
      </trkpt>
      <trkpt lat="45.77283" lon="5.81907">
        <ele>473</ele>
        <time>2021-08-22T11:39:29Z</time>
      </trkpt>
      <trkpt lat="45.77283" lon="5.81907">
        <ele>473</ele>
        <time>2021-08-22T11:39:31Z</time>
      </trkpt>
      <trkpt lat="45.77283" lon="5.81908">
        <ele>473</ele>
        <time>2021-08-22T11:39:32Z</time>
      </trkpt>
      <trkpt lat="45.77283" lon="5.81908">
        <ele>473</ele>
        <time>2021-08-22T11:39:33Z</time>
      </trkpt>
      <trkpt lat="45.77283" lon="5.81908">
        <ele>473</ele>
        <time>2021-08-22T11:39:34Z</time>
      </trkpt>
      <trkpt lat="45.77283" lon="5.81909">
        <ele>473.1</ele>
        <time>2021-08-22T11:39:35Z</time>
      </trkpt>
      <trkpt lat="45.77283" lon="5.81913">
        <ele>473.3</ele>
        <time>2021-08-22T11:39:37Z</time>
      </trkpt>
      <trkpt lat="45.77283" lon="5.81915">
        <ele>473.4</ele>
        <time>2021-08-22T11:39:38Z</time>
      </trkpt>
      <trkpt lat="45.77282" lon="5.81916">
        <ele>473.5</ele>
        <time>2021-08-22T11:39:39Z</time>
      </trkpt>
      <trkpt lat="45.77282" lon="5.81919">
        <ele>473.6</ele>
        <time>2021-08-22T11:39:41Z</time>
      </trkpt>
      <trkpt lat="45.77282" lon="5.81919">
        <ele>473.7</ele>
        <time>2021-08-22T11:39:42Z</time>
      </trkpt>
      <trkpt lat="45.77282" lon="5.81921">
        <ele>473.8</ele>
        <time>2021-08-22T11:39:43Z</time>
      </trkpt>
      <trkpt lat="45.77282" lon="5.81921">
        <ele>473.8</ele>
        <time>2021-08-22T11:39:44Z</time>
      </trkpt>
      <trkpt lat="45.77282" lon="5.81922">
        <ele>473.9</ele>
        <time>2021-08-22T11:39:45Z</time>
      </trkpt>
      <trkpt lat="45.77283" lon="5.81922">
        <ele>473.9</ele>
        <time>2021-08-22T11:39:47Z</time>
      </trkpt>
      <trkpt lat="45.77284" lon="5.81921">
        <ele>474.1</ele>
        <time>2021-08-22T11:39:49Z</time>
      </trkpt>
      <trkpt lat="45.77284" lon="5.8192">
        <ele>474.1</ele>
        <time>2021-08-22T11:39:50Z</time>
      </trkpt>
      <trkpt lat="45.77285" lon="5.81919">
        <ele>474.2</ele>
        <time>2021-08-22T11:39:52Z</time>
      </trkpt>
      <trkpt lat="45.77286" lon="5.81918">
        <ele>474.3</ele>
        <time>2021-08-22T11:39:54Z</time>
      </trkpt>
      <trkpt lat="45.77287" lon="5.81918">
        <ele>474.3</ele>
        <time>2021-08-22T11:39:55Z</time>
      </trkpt>
      <trkpt lat="45.77287" lon="5.81918">
        <ele>474.4</ele>
        <time>2021-08-22T11:39:56Z</time>
      </trkpt>
      <trkpt lat="45.77287" lon="5.81917">
        <ele>474.4</ele>
        <time>2021-08-22T11:39:58Z</time>
      </trkpt>
      <trkpt lat="45.77286" lon="5.81917">
        <ele>474.4</ele>
        <time>2021-08-22T11:39:59Z</time>
      </trkpt>
      <trkpt lat="45.77286" lon="5.81917">
        <ele>474.4</ele>
        <time>2021-08-22T11:40:00Z</time>
      </trkpt>
      <trkpt lat="45.77286" lon="5.81918">
        <ele>474.5</ele>
        <time>2021-08-22T11:40:02Z</time>
      </trkpt>
      <trkpt lat="45.77285" lon="5.81918">
        <ele>474.6</ele>
        <time>2021-08-22T11:40:03Z</time>
      </trkpt>
      <trkpt lat="45.77283" lon="5.81919">
        <ele>474.7</ele>
        <time>2021-08-22T11:40:05Z</time>
      </trkpt>
      <trkpt lat="45.77282" lon="5.8192">
        <ele>474.7</ele>
        <time>2021-08-22T11:40:06Z</time>
      </trkpt>
      <trkpt lat="45.77281" lon="5.8192">
        <ele>474.9</ele>
        <time>2021-08-22T11:40:08Z</time>
      </trkpt>
      <trkpt lat="45.7728" lon="5.81921">
        <ele>474.9</ele>
        <time>2021-08-22T11:40:09Z</time>
      </trkpt>
      <trkpt lat="45.7728" lon="5.81921">
        <ele>475</ele>
        <time>2021-08-22T11:40:11Z</time>
      </trkpt>
      <trkpt lat="45.77279" lon="5.81921">
        <ele>475</ele>
        <time>2021-08-22T11:40:12Z</time>
      </trkpt>
      <trkpt lat="45.77279" lon="5.81921">
        <ele>475</ele>
        <time>2021-08-22T11:40:14Z</time>
      </trkpt>
      <trkpt lat="45.77279" lon="5.81921">
        <ele>475.1</ele>
        <time>2021-08-22T11:40:15Z</time>
      </trkpt>
      <trkpt lat="45.77283" lon="5.81922">
        <ele>475.4</ele>
        <time>2021-08-22T11:40:17Z</time>
      </trkpt>
      <trkpt lat="45.77286" lon="5.81922">
        <ele>475.6</ele>
        <time>2021-08-22T11:40:18Z</time>
      </trkpt>
      <trkpt lat="45.77289" lon="5.81923">
        <ele>475.8</ele>
        <time>2021-08-22T11:40:20Z</time>
      </trkpt>
      <trkpt lat="45.77289" lon="5.81924">
        <ele>475.9</ele>
        <time>2021-08-22T11:40:21Z</time>
      </trkpt>
      <trkpt lat="45.7729" lon="5.81924">
        <ele>475.9</ele>
        <time>2021-08-22T11:40:22Z</time>
      </trkpt>
      <trkpt lat="45.7729" lon="5.81924">
        <ele>475.9</ele>
        <time>2021-08-22T11:40:23Z</time>
      </trkpt>
      <trkpt lat="45.7729" lon="5.81925">
        <ele>475.9</ele>
        <time>2021-08-22T11:40:25Z</time>
      </trkpt>
      <trkpt lat="45.77291" lon="5.81925">
        <ele>476</ele>
        <time>2021-08-22T11:40:27Z</time>
      </trkpt>
      <trkpt lat="45.77291" lon="5.81926">
        <ele>476</ele>
        <time>2021-08-22T11:40:28Z</time>
      </trkpt>
      <trkpt lat="45.77291" lon="5.81926">
        <ele>476</ele>
        <time>2021-08-22T11:40:30Z</time>
      </trkpt>
      <trkpt lat="45.77292" lon="5.81926">
        <ele>476.1</ele>
        <time>2021-08-22T11:40:31Z</time>
      </trkpt>
      <trkpt lat="45.77292" lon="5.81927">
        <ele>476.1</ele>
        <time>2021-08-22T11:40:33Z</time>
      </trkpt>
      <trkpt lat="45.77292" lon="5.81927">
        <ele>476.1</ele>
        <time>2021-08-22T11:40:34Z</time>
      </trkpt>
      <trkpt lat="45.77293" lon="5.81928">
        <ele>476.1</ele>
        <time>2021-08-22T11:40:35Z</time>
      </trkpt>
      <trkpt lat="45.77293" lon="5.81928">
        <ele>476.2</ele>
        <time>2021-08-22T11:40:36Z</time>
      </trkpt>
      <trkpt lat="45.77296" lon="5.81932">
        <ele>476.4</ele>
        <time>2021-08-22T11:40:38Z</time>
      </trkpt>
      <trkpt lat="45.77298" lon="5.81932">
        <ele>476.5</ele>
        <time>2021-08-22T11:40:39Z</time>
      </trkpt>
      <trkpt lat="45.77298" lon="5.81932">
        <ele>476.5</ele>
        <time>2021-08-22T11:40:40Z</time>
      </trkpt>
      <trkpt lat="45.77299" lon="5.81933">
        <ele>476.5</ele>
        <time>2021-08-22T11:40:41Z</time>
      </trkpt>
      <trkpt lat="45.77299" lon="5.81933">
        <ele>476.5</ele>
        <time>2021-08-22T11:40:42Z</time>
      </trkpt>
      <trkpt lat="45.77299" lon="5.81933">
        <ele>476.6</ele>
        <time>2021-08-22T11:40:44Z</time>
      </trkpt>
      <trkpt lat="45.77299" lon="5.81933">
        <ele>476.6</ele>
        <time>2021-08-22T11:40:46Z</time>
      </trkpt>
      <trkpt lat="45.77292" lon="5.81938">
        <ele>477</ele>
        <time>2021-08-22T11:40:48Z</time>
      </trkpt>
      <trkpt lat="45.77289" lon="5.81941">
        <ele>477.1</ele>
        <time>2021-08-22T11:40:50Z</time>
      </trkpt>
      <trkpt lat="45.77288" lon="5.81941">
        <ele>477.2</ele>
        <time>2021-08-22T11:40:52Z</time>
      </trkpt>
      <trkpt lat="45.77288" lon="5.81942">
        <ele>477.2</ele>
        <time>2021-08-22T11:40:53Z</time>
      </trkpt>
      <trkpt lat="45.77288" lon="5.81942">
        <ele>477.2</ele>
        <time>2021-08-22T11:40:54Z</time>
      </trkpt>
      <trkpt lat="45.7729" lon="5.81941">
        <ele>477.3</ele>
        <time>2021-08-22T11:40:56Z</time>
      </trkpt>
      <trkpt lat="45.7729" lon="5.81942">
        <ele>477.3</ele>
        <time>2021-08-22T11:40:57Z</time>
      </trkpt>
      <trkpt lat="45.7729" lon="5.81942">
        <ele>477.3</ele>
        <time>2021-08-22T11:40:58Z</time>
      </trkpt>
      <trkpt lat="45.7729" lon="5.81942">
        <ele>477.3</ele>
        <time>2021-08-22T11:40:59Z</time>
      </trkpt>
      <trkpt lat="45.7729" lon="5.81942">
        <ele>477.3</ele>
        <time>2021-08-22T11:41:00Z</time>
      </trkpt>
      <trkpt lat="45.7729" lon="5.81942">
        <ele>477.3</ele>
        <time>2021-08-22T11:41:02Z</time>
      </trkpt>
      <trkpt lat="45.77289" lon="5.81942">
        <ele>477.3</ele>
        <time>2021-08-22T11:41:04Z</time>
      </trkpt>
      <trkpt lat="45.77289" lon="5.81942">
        <ele>477.3</ele>
        <time>2021-08-22T11:41:05Z</time>
      </trkpt>
      <trkpt lat="45.77289" lon="5.81942">
        <ele>477.3</ele>
        <time>2021-08-22T11:41:06Z</time>
      </trkpt>
      <trkpt lat="45.77289" lon="5.81941">
        <ele>477.3</ele>
        <time>2021-08-22T11:41:08Z</time>
      </trkpt>
      <trkpt lat="45.77289" lon="5.81941">
        <ele>477.3</ele>
        <time>2021-08-22T11:41:10Z</time>
      </trkpt>
      <trkpt lat="45.77289" lon="5.81941">
        <ele>477.4</ele>
        <time>2021-08-22T11:41:11Z</time>
      </trkpt>
      <trkpt lat="45.77289" lon="5.81941">
        <ele>477.4</ele>
        <time>2021-08-22T11:41:12Z</time>
      </trkpt>
      <trkpt lat="45.77289" lon="5.81941">
        <ele>477.4</ele>
        <time>2021-08-22T11:41:14Z</time>
      </trkpt>
      <trkpt lat="45.77289" lon="5.81941">
        <ele>477.4</ele>
        <time>2021-08-22T11:41:15Z</time>
      </trkpt>
      <trkpt lat="45.77289" lon="5.81941">
        <ele>477.4</ele>
        <time>2021-08-22T11:41:16Z</time>
      </trkpt>
      <trkpt lat="45.77278" lon="5.81945">
        <ele>477.8</ele>
        <time>2021-08-22T11:41:18Z</time>
      </trkpt>
      <trkpt lat="45.77273" lon="5.81947">
        <ele>478.1</ele>
        <time>2021-08-22T11:41:19Z</time>
      </trkpt>
      <trkpt lat="45.7727" lon="5.81949">
        <ele>478.2</ele>
        <time>2021-08-22T11:41:20Z</time>
      </trkpt>
      <trkpt lat="45.77269" lon="5.81949">
        <ele>478.2</ele>
        <time>2021-08-22T11:41:21Z</time>
      </trkpt>
      <trkpt lat="45.77267" lon="5.8195">
        <ele>478.2</ele>
        <time>2021-08-22T11:41:23Z</time>
      </trkpt>
      <trkpt lat="45.77267" lon="5.8195">
        <ele>478.3</ele>
        <time>2021-08-22T11:41:24Z</time>
      </trkpt>
      <trkpt lat="45.77267" lon="5.8195">
        <ele>478.3</ele>
        <time>2021-08-22T11:41:25Z</time>
      </trkpt>
      <trkpt lat="45.77266" lon="5.8195">
        <ele>478.3</ele>
        <time>2021-08-22T11:41:27Z</time>
      </trkpt>
      <trkpt lat="45.77266" lon="5.8195">
        <ele>478.3</ele>
        <time>2021-08-22T11:41:28Z</time>
      </trkpt>
      <trkpt lat="45.77266" lon="5.8195">
        <ele>478.3</ele>
        <time>2021-08-22T11:41:29Z</time>
      </trkpt>
      <trkpt lat="45.77266" lon="5.8195">
        <ele>478.3</ele>
        <time>2021-08-22T11:41:31Z</time>
      </trkpt>
      <trkpt lat="45.77266" lon="5.81951">
        <ele>478.3</ele>
        <time>2021-08-22T11:41:33Z</time>
      </trkpt>
      <trkpt lat="45.77267" lon="5.81951">
        <ele>478.3</ele>
        <time>2021-08-22T11:41:34Z</time>
      </trkpt>
      <trkpt lat="45.77266" lon="5.81949">
        <ele>478.3</ele>
        <time>2021-08-22T11:41:36Z</time>
      </trkpt>
      <trkpt lat="45.77265" lon="5.81947">
        <ele>478.4</ele>
        <time>2021-08-22T11:41:37Z</time>
      </trkpt>
      <trkpt lat="45.77264" lon="5.81941">
        <ele>478.5</ele>
        <time>2021-08-22T11:41:38Z</time>
      </trkpt>
      <trkpt lat="45.77264" lon="5.81939">
        <ele>478.6</ele>
        <time>2021-08-22T11:41:39Z</time>
      </trkpt>
      <trkpt lat="45.77263" lon="5.81934">
        <ele>478.7</ele>
        <time>2021-08-22T11:41:41Z</time>
      </trkpt>
      <trkpt lat="45.77262" lon="5.81934">
        <ele>478.7</ele>
        <time>2021-08-22T11:41:42Z</time>
      </trkpt>
      <trkpt lat="45.77262" lon="5.81933">
        <ele>478.7</ele>
        <time>2021-08-22T11:41:43Z</time>
      </trkpt>
      <trkpt lat="45.77262" lon="5.81933">
        <ele>478.7</ele>
        <time>2021-08-22T11:41:45Z</time>
      </trkpt>
      <trkpt lat="45.77261" lon="5.81933">
        <ele>478.7</ele>
        <time>2021-08-22T11:41:46Z</time>
      </trkpt>
      <trkpt lat="45.77261" lon="5.81932">
        <ele>478.7</ele>
        <time>2021-08-22T11:41:48Z</time>
      </trkpt>
      <trkpt lat="45.77261" lon="5.81932">
        <ele>478.7</ele>
        <time>2021-08-22T11:41:49Z</time>
      </trkpt>
      <trkpt lat="45.7726" lon="5.81931">
        <ele>478.8</ele>
        <time>2021-08-22T11:41:51Z</time>
      </trkpt>
      <trkpt lat="45.7726" lon="5.81931">
        <ele>478.8</ele>
        <time>2021-08-22T11:41:53Z</time>
      </trkpt>
      <trkpt lat="45.7726" lon="5.8193">
        <ele>478.8</ele>
        <time>2021-08-22T11:41:54Z</time>
      </trkpt>
      <trkpt lat="45.77259" lon="5.8193">
        <ele>478.8</ele>
        <time>2021-08-22T11:41:56Z</time>
      </trkpt>
      <trkpt lat="45.77259" lon="5.8193">
        <ele>478.8</ele>
        <time>2021-08-22T11:41:57Z</time>
      </trkpt>
      <trkpt lat="45.77258" lon="5.81929">
        <ele>478.8</ele>
        <time>2021-08-22T11:41:58Z</time>
      </trkpt>
      <trkpt lat="45.77258" lon="5.81929">
        <ele>478.8</ele>
        <time>2021-08-22T11:41:59Z</time>
      </trkpt>
      <trkpt lat="45.77258" lon="5.81928">
        <ele>478.8</ele>
        <time>2021-08-22T11:42:00Z</time>
      </trkpt>
      <trkpt lat="45.77256" lon="5.81927">
        <ele>478.9</ele>
        <time>2021-08-22T11:42:02Z</time>
      </trkpt>
      <trkpt lat="45.77255" lon="5.81926">
        <ele>478.9</ele>
        <time>2021-08-22T11:42:03Z</time>
      </trkpt>
      <trkpt lat="45.77254" lon="5.81925">
        <ele>478.9</ele>
        <time>2021-08-22T11:42:04Z</time>
      </trkpt>
      <trkpt lat="45.77253" lon="5.81925">
        <ele>478.9</ele>
        <time>2021-08-22T11:42:05Z</time>
      </trkpt>
      <trkpt lat="45.7725" lon="5.81925">
        <ele>479</ele>
        <time>2021-08-22T11:42:07Z</time>
      </trkpt>
      <trkpt lat="45.77247" lon="5.81925">
        <ele>479</ele>
        <time>2021-08-22T11:42:08Z</time>
      </trkpt>
      <trkpt lat="45.77246" lon="5.81925">
        <ele>479.1</ele>
        <time>2021-08-22T11:42:09Z</time>
      </trkpt>
      <trkpt lat="45.77244" lon="5.81925">
        <ele>479.1</ele>
        <time>2021-08-22T11:42:10Z</time>
      </trkpt>
      <trkpt lat="45.77242" lon="5.81925">
        <ele>479.1</ele>
        <time>2021-08-22T11:42:12Z</time>
      </trkpt>
      <trkpt lat="45.7724" lon="5.81925">
        <ele>479.1</ele>
        <time>2021-08-22T11:42:13Z</time>
      </trkpt>
      <trkpt lat="45.77239" lon="5.81924">
        <ele>479.1</ele>
        <time>2021-08-22T11:42:14Z</time>
      </trkpt>
      <trkpt lat="45.77237" lon="5.81924">
        <ele>479.2</ele>
        <time>2021-08-22T11:42:15Z</time>
      </trkpt>
      <trkpt lat="45.77235" lon="5.81924">
        <ele>479.2</ele>
        <time>2021-08-22T11:42:17Z</time>
      </trkpt>
      <trkpt lat="45.77232" lon="5.81924">
        <ele>479.2</ele>
        <time>2021-08-22T11:42:18Z</time>
      </trkpt>
      <trkpt lat="45.77231" lon="5.81924">
        <ele>479.2</ele>
        <time>2021-08-22T11:42:19Z</time>
      </trkpt>
      <trkpt lat="45.77228" lon="5.81924">
        <ele>479.2</ele>
        <time>2021-08-22T11:42:21Z</time>
      </trkpt>
      <trkpt lat="45.77226" lon="5.81922">
        <ele>479.2</ele>
        <time>2021-08-22T11:42:23Z</time>
      </trkpt>
      <trkpt lat="45.77223" lon="5.81921">
        <ele>479.2</ele>
        <time>2021-08-22T11:42:24Z</time>
      </trkpt>
      <trkpt lat="45.7722" lon="5.81921">
        <ele>479.2</ele>
        <time>2021-08-22T11:42:25Z</time>
      </trkpt>
      <trkpt lat="45.77219" lon="5.8192">
        <ele>479.1</ele>
        <time>2021-08-22T11:42:27Z</time>
      </trkpt>
      <trkpt lat="45.77217" lon="5.8192">
        <ele>479.1</ele>
        <time>2021-08-22T11:42:28Z</time>
      </trkpt>
      <trkpt lat="45.77214" lon="5.8192">
        <ele>479.1</ele>
        <time>2021-08-22T11:42:30Z</time>
      </trkpt>
      <trkpt lat="45.77212" lon="5.81919">
        <ele>479.1</ele>
        <time>2021-08-22T11:42:31Z</time>
      </trkpt>
      <trkpt lat="45.7721" lon="5.81919">
        <ele>479.1</ele>
        <time>2021-08-22T11:42:32Z</time>
      </trkpt>
      <trkpt lat="45.77206" lon="5.81919">
        <ele>479</ele>
        <time>2021-08-22T11:42:33Z</time>
      </trkpt>
      <trkpt lat="45.77203" lon="5.81918">
        <ele>479</ele>
        <time>2021-08-22T11:42:35Z</time>
      </trkpt>
      <trkpt lat="45.77185" lon="5.81917">
        <ele>478.6</ele>
        <time>2021-08-22T11:42:44Z</time>
      </trkpt>
      <trkpt lat="45.77181" lon="5.81918">
        <ele>478.6</ele>
        <time>2021-08-22T11:42:46Z</time>
      </trkpt>
      <trkpt lat="45.77177" lon="5.81919">
        <ele>478.5</ele>
        <time>2021-08-22T11:42:47Z</time>
      </trkpt>
      <trkpt lat="45.77175" lon="5.81921">
        <ele>478.4</ele>
        <time>2021-08-22T11:42:48Z</time>
      </trkpt>
      <trkpt lat="45.77171" lon="5.81921">
        <ele>478.3</ele>
        <time>2021-08-22T11:42:50Z</time>
      </trkpt>
      <trkpt lat="45.77165" lon="5.81922">
        <ele>478.2</ele>
        <time>2021-08-22T11:42:52Z</time>
      </trkpt>
      <trkpt lat="45.77162" lon="5.81922">
        <ele>478.1</ele>
        <time>2021-08-22T11:42:53Z</time>
      </trkpt>
      <trkpt lat="45.77158" lon="5.81923">
        <ele>478.1</ele>
        <time>2021-08-22T11:42:55Z</time>
      </trkpt>
      <trkpt lat="45.77156" lon="5.81923">
        <ele>478</ele>
        <time>2021-08-22T11:42:56Z</time>
      </trkpt>
      <trkpt lat="45.77152" lon="5.81924">
        <ele>478</ele>
        <time>2021-08-22T11:42:58Z</time>
      </trkpt>
      <trkpt lat="45.77148" lon="5.81924">
        <ele>477.9</ele>
        <time>2021-08-22T11:42:59Z</time>
      </trkpt>
      <trkpt lat="45.77147" lon="5.81924">
        <ele>477.9</ele>
        <time>2021-08-22T11:43:00Z</time>
      </trkpt>
      <trkpt lat="45.77142" lon="5.81926">
        <ele>477.9</ele>
        <time>2021-08-22T11:43:02Z</time>
      </trkpt>
      <trkpt lat="45.77139" lon="5.81928">
        <ele>477.9</ele>
        <time>2021-08-22T11:43:04Z</time>
      </trkpt>
      <trkpt lat="45.77135" lon="5.81931">
        <ele>477.9</ele>
        <time>2021-08-22T11:43:05Z</time>
      </trkpt>
      <trkpt lat="45.77131" lon="5.81932">
        <ele>477.9</ele>
        <time>2021-08-22T11:43:06Z</time>
      </trkpt>
      <trkpt lat="45.77126" lon="5.81933">
        <ele>477.9</ele>
        <time>2021-08-22T11:43:08Z</time>
      </trkpt>
      <trkpt lat="45.77123" lon="5.81933">
        <ele>477.9</ele>
        <time>2021-08-22T11:43:09Z</time>
      </trkpt>
      <trkpt lat="45.7712" lon="5.81933">
        <ele>477.9</ele>
        <time>2021-08-22T11:43:10Z</time>
      </trkpt>
      <trkpt lat="45.77117" lon="5.81933">
        <ele>477.9</ele>
        <time>2021-08-22T11:43:11Z</time>
      </trkpt>
      <trkpt lat="45.77114" lon="5.81933">
        <ele>478</ele>
        <time>2021-08-22T11:43:12Z</time>
      </trkpt>
      <trkpt lat="45.77108" lon="5.81933">
        <ele>478.3</ele>
        <time>2021-08-22T11:43:14Z</time>
      </trkpt>
      <trkpt lat="45.77105" lon="5.81934">
        <ele>478.4</ele>
        <time>2021-08-22T11:43:15Z</time>
      </trkpt>
      <trkpt lat="45.77104" lon="5.81934">
        <ele>478.4</ele>
        <time>2021-08-22T11:43:17Z</time>
      </trkpt>
      <trkpt lat="45.77102" lon="5.81934">
        <ele>478.5</ele>
        <time>2021-08-22T11:43:18Z</time>
      </trkpt>
      <trkpt lat="45.77101" lon="5.81935">
        <ele>478.6</ele>
        <time>2021-08-22T11:43:19Z</time>
      </trkpt>
      <trkpt lat="45.771" lon="5.81937">
        <ele>478.6</ele>
        <time>2021-08-22T11:43:21Z</time>
      </trkpt>
      <trkpt lat="45.77099" lon="5.81938">
        <ele>478.7</ele>
        <time>2021-08-22T11:43:22Z</time>
      </trkpt>
      <trkpt lat="45.77098" lon="5.81939">
        <ele>478.7</ele>
        <time>2021-08-22T11:43:23Z</time>
      </trkpt>
      <trkpt lat="45.77098" lon="5.8194">
        <ele>478.8</ele>
        <time>2021-08-22T11:43:24Z</time>
      </trkpt>
      <trkpt lat="45.77096" lon="5.81942">
        <ele>478.9</ele>
        <time>2021-08-22T11:43:26Z</time>
      </trkpt>
      <trkpt lat="45.77095" lon="5.81944">
        <ele>478.9</ele>
        <time>2021-08-22T11:43:27Z</time>
      </trkpt>
      <trkpt lat="45.77094" lon="5.81946">
        <ele>479.1</ele>
        <time>2021-08-22T11:43:29Z</time>
      </trkpt>
      <trkpt lat="45.77092" lon="5.81949">
        <ele>479.2</ele>
        <time>2021-08-22T11:43:30Z</time>
      </trkpt>
      <trkpt lat="45.77092" lon="5.8195">
        <ele>479.2</ele>
        <time>2021-08-22T11:43:31Z</time>
      </trkpt>
      <trkpt lat="45.77092" lon="5.8195">
        <ele>479.2</ele>
        <time>2021-08-22T11:43:31Z</time>
      </trkpt>
      <trkpt lat="45.77092" lon="5.81952">
        <ele>479.3</ele>
        <time>2021-08-22T11:43:33Z</time>
      </trkpt>
      <trkpt lat="45.77092" lon="5.81955">
        <ele>479.4</ele>
        <time>2021-08-22T11:43:34Z</time>
      </trkpt>
      <trkpt lat="45.7708" lon="5.81969">
        <ele>480.4</ele>
        <time>2021-08-22T11:43:37Z</time>
      </trkpt>
      <trkpt lat="45.77079" lon="5.81973">
        <ele>480.6</ele>
        <time>2021-08-22T11:43:38Z</time>
      </trkpt>
      <trkpt lat="45.77079" lon="5.81975">
        <ele>480.7</ele>
        <time>2021-08-22T11:43:39Z</time>
      </trkpt>
      <trkpt lat="45.77079" lon="5.81979">
        <ele>480.9</ele>
        <time>2021-08-22T11:43:40Z</time>
      </trkpt>
      <trkpt lat="45.77077" lon="5.81987">
        <ele>481.2</ele>
        <time>2021-08-22T11:43:42Z</time>
      </trkpt>
      <trkpt lat="45.77076" lon="5.81992">
        <ele>481.4</ele>
        <time>2021-08-22T11:43:43Z</time>
      </trkpt>
      <trkpt lat="45.77075" lon="5.81999">
        <ele>481.5</ele>
        <time>2021-08-22T11:43:44Z</time>
      </trkpt>
      <trkpt lat="45.77075" lon="5.82005">
        <ele>481.5</ele>
        <time>2021-08-22T11:43:46Z</time>
      </trkpt>
      <trkpt lat="45.77075" lon="5.82008">
        <ele>481.5</ele>
        <time>2021-08-22T11:43:47Z</time>
      </trkpt>
      <trkpt lat="45.77076" lon="5.82013">
        <ele>481.5</ele>
        <time>2021-08-22T11:43:48Z</time>
      </trkpt>
      <trkpt lat="45.77078" lon="5.82019">
        <ele>481.5</ele>
        <time>2021-08-22T11:43:50Z</time>
      </trkpt>
      <trkpt lat="45.77079" lon="5.8202">
        <ele>481.5</ele>
        <time>2021-08-22T11:43:51Z</time>
      </trkpt>
      <trkpt lat="45.7708" lon="5.82021">
        <ele>481.5</ele>
        <time>2021-08-22T11:43:52Z</time>
      </trkpt>
      <trkpt lat="45.77082" lon="5.8202">
        <ele>481.5</ele>
        <time>2021-08-22T11:43:54Z</time>
      </trkpt>
      <trkpt lat="45.77083" lon="5.82019">
        <ele>481.5</ele>
        <time>2021-08-22T11:43:55Z</time>
      </trkpt>
      <trkpt lat="45.77083" lon="5.8202">
        <ele>481.5</ele>
        <time>2021-08-22T11:43:56Z</time>
      </trkpt>
      <trkpt lat="45.77084" lon="5.82023">
        <ele>481.6</ele>
        <time>2021-08-22T11:43:58Z</time>
      </trkpt>
      <trkpt lat="45.77085" lon="5.82025">
        <ele>481.6</ele>
        <time>2021-08-22T11:44:00Z</time>
      </trkpt>
      <trkpt lat="45.77085" lon="5.82026">
        <ele>481.6</ele>
        <time>2021-08-22T11:44:01Z</time>
      </trkpt>
      <trkpt lat="45.77085" lon="5.82027">
        <ele>481.6</ele>
        <time>2021-08-22T11:44:03Z</time>
      </trkpt>
      <trkpt lat="45.77075" lon="5.8207">
        <ele>481.7</ele>
        <time>2021-08-22T11:44:59Z</time>
      </trkpt>
      <trkpt lat="45.77075" lon="5.82073">
        <ele>481.7</ele>
        <time>2021-08-22T11:45:00Z</time>
      </trkpt>
      <trkpt lat="45.77074" lon="5.82075">
        <ele>481.7</ele>
        <time>2021-08-22T11:45:02Z</time>
      </trkpt>
      <trkpt lat="45.77073" lon="5.82075">
        <ele>481.7</ele>
        <time>2021-08-22T11:45:03Z</time>
      </trkpt>
      <trkpt lat="45.77073" lon="5.82076">
        <ele>481.7</ele>
        <time>2021-08-22T11:45:05Z</time>
      </trkpt>
      <trkpt lat="45.77072" lon="5.82076">
        <ele>481.6</ele>
        <time>2021-08-22T11:45:07Z</time>
      </trkpt>
      <trkpt lat="45.77072" lon="5.82077">
        <ele>481.6</ele>
        <time>2021-08-22T11:45:09Z</time>
      </trkpt>
      <trkpt lat="45.77072" lon="5.82077">
        <ele>481.6</ele>
        <time>2021-08-22T11:45:11Z</time>
      </trkpt>
      <trkpt lat="45.77072" lon="5.82077">
        <ele>481.6</ele>
        <time>2021-08-22T11:45:12Z</time>
      </trkpt>
      <trkpt lat="45.77072" lon="5.82077">
        <ele>481.6</ele>
        <time>2021-08-22T11:45:14Z</time>
      </trkpt>
      <trkpt lat="45.77071" lon="5.82077">
        <ele>481.6</ele>
        <time>2021-08-22T11:45:15Z</time>
      </trkpt>
      <trkpt lat="45.77071" lon="5.82077">
        <ele>481.6</ele>
        <time>2021-08-22T11:45:17Z</time>
      </trkpt>
      <trkpt lat="45.77071" lon="5.82077">
        <ele>481.6</ele>
        <time>2021-08-22T11:45:19Z</time>
      </trkpt>
      <trkpt lat="45.77071" lon="5.82077">
        <ele>481.6</ele>
        <time>2021-08-22T11:45:21Z</time>
      </trkpt>
      <trkpt lat="45.77071" lon="5.82077">
        <ele>481.6</ele>
        <time>2021-08-22T11:45:22Z</time>
      </trkpt>
      <trkpt lat="45.77077" lon="5.82083">
        <ele>481.5</ele>
        <time>2021-08-22T11:45:24Z</time>
      </trkpt>
      <trkpt lat="45.77075" lon="5.82081">
        <ele>481.5</ele>
        <time>2021-08-22T11:45:26Z</time>
      </trkpt>
      <trkpt lat="45.77075" lon="5.82081">
        <ele>481.5</ele>
        <time>2021-08-22T11:45:27Z</time>
      </trkpt>
      <trkpt lat="45.77075" lon="5.82081">
        <ele>481.5</ele>
        <time>2021-08-22T11:45:28Z</time>
      </trkpt>
      <trkpt lat="45.77076" lon="5.82082">
        <ele>481.5</ele>
        <time>2021-08-22T11:45:30Z</time>
      </trkpt>
      <trkpt lat="45.77076" lon="5.82083">
        <ele>481.5</ele>
        <time>2021-08-22T11:45:32Z</time>
      </trkpt>
      <trkpt lat="45.77076" lon="5.82083">
        <ele>481.5</ele>
        <time>2021-08-22T11:45:33Z</time>
      </trkpt>
      <trkpt lat="45.77075" lon="5.82084">
        <ele>481.5</ele>
        <time>2021-08-22T11:45:35Z</time>
      </trkpt>
      <trkpt lat="45.77073" lon="5.82084">
        <ele>481.1</ele>
        <time>2021-08-22T11:45:37Z</time>
      </trkpt>
      <trkpt lat="45.77071" lon="5.82085">
        <ele>481.1</ele>
        <time>2021-08-22T11:45:38Z</time>
      </trkpt>
      <trkpt lat="45.7707" lon="5.82086">
        <ele>481</ele>
        <time>2021-08-22T11:45:40Z</time>
      </trkpt>
      <trkpt lat="45.7707" lon="5.82086">
        <ele>481</ele>
        <time>2021-08-22T11:45:41Z</time>
      </trkpt>
      <trkpt lat="45.7705" lon="5.82106">
        <ele>480.1</ele>
        <time>2021-08-22T11:45:42Z</time>
      </trkpt>
      <trkpt lat="45.77046" lon="5.82111">
        <ele>480</ele>
        <time>2021-08-22T11:45:43Z</time>
      </trkpt>
      <trkpt lat="45.77039" lon="5.82117">
        <ele>479.7</ele>
        <time>2021-08-22T11:45:44Z</time>
      </trkpt>
      <trkpt lat="45.77027" lon="5.82122">
        <ele>479.2</ele>
        <time>2021-08-22T11:45:46Z</time>
      </trkpt>
      <trkpt lat="45.77022" lon="5.82124">
        <ele>479</ele>
        <time>2021-08-22T11:45:47Z</time>
      </trkpt>
      <trkpt lat="45.77017" lon="5.82127">
        <ele>478.8</ele>
        <time>2021-08-22T11:45:48Z</time>
      </trkpt>
      <trkpt lat="45.77013" lon="5.8213">
        <ele>478.7</ele>
        <time>2021-08-22T11:45:49Z</time>
      </trkpt>
      <trkpt lat="45.77005" lon="5.82137">
        <ele>478.4</ele>
        <time>2021-08-22T11:45:51Z</time>
      </trkpt>
      <trkpt lat="45.77001" lon="5.8214">
        <ele>478.3</ele>
        <time>2021-08-22T11:45:52Z</time>
      </trkpt>
      <trkpt lat="45.76996" lon="5.82142">
        <ele>478.1</ele>
        <time>2021-08-22T11:45:53Z</time>
      </trkpt>
      <trkpt lat="45.76991" lon="5.82145">
        <ele>477.9</ele>
        <time>2021-08-22T11:45:54Z</time>
      </trkpt>
      <trkpt lat="45.76979" lon="5.82148">
        <ele>477.6</ele>
        <time>2021-08-22T11:45:56Z</time>
      </trkpt>
      <trkpt lat="45.76966" lon="5.8215">
        <ele>477.1</ele>
        <time>2021-08-22T11:45:58Z</time>
      </trkpt>
      <trkpt lat="45.76959" lon="5.82153">
        <ele>476.9</ele>
        <time>2021-08-22T11:45:59Z</time>
      </trkpt>
      <trkpt lat="45.76953" lon="5.82155">
        <ele>476.6</ele>
        <time>2021-08-22T11:46:00Z</time>
      </trkpt>
      <trkpt lat="45.7694" lon="5.82159">
        <ele>476.1</ele>
        <time>2021-08-22T11:46:02Z</time>
      </trkpt>
      <trkpt lat="45.76927" lon="5.82161">
        <ele>475.6</ele>
        <time>2021-08-22T11:46:04Z</time>
      </trkpt>
      <trkpt lat="45.76913" lon="5.82164">
        <ele>475.2</ele>
        <time>2021-08-22T11:46:06Z</time>
      </trkpt>
      <trkpt lat="45.769" lon="5.82165">
        <ele>474.7</ele>
        <time>2021-08-22T11:46:08Z</time>
      </trkpt>
      <trkpt lat="45.76886" lon="5.82166">
        <ele>474.3</ele>
        <time>2021-08-22T11:46:10Z</time>
      </trkpt>
      <trkpt lat="45.76873" lon="5.82169">
        <ele>473.9</ele>
        <time>2021-08-22T11:46:12Z</time>
      </trkpt>
      <trkpt lat="45.76868" lon="5.82173">
        <ele>473.6</ele>
        <time>2021-08-22T11:46:13Z</time>
      </trkpt>
      <trkpt lat="45.76857" lon="5.82179">
        <ele>473</ele>
        <time>2021-08-22T11:46:15Z</time>
      </trkpt>
      <trkpt lat="45.76851" lon="5.82182">
        <ele>472.7</ele>
        <time>2021-08-22T11:46:16Z</time>
      </trkpt>
      <trkpt lat="45.76846" lon="5.82185">
        <ele>472.3</ele>
        <time>2021-08-22T11:46:17Z</time>
      </trkpt>
      <trkpt lat="45.76841" lon="5.82188">
        <ele>471.9</ele>
        <time>2021-08-22T11:46:18Z</time>
      </trkpt>
      <trkpt lat="45.7683" lon="5.82195">
        <ele>471</ele>
        <time>2021-08-22T11:46:20Z</time>
      </trkpt>
      <trkpt lat="45.76819" lon="5.82205">
        <ele>469.9</ele>
        <time>2021-08-22T11:46:22Z</time>
      </trkpt>
      <trkpt lat="45.76812" lon="5.8221">
        <ele>469.2</ele>
        <time>2021-08-22T11:46:23Z</time>
      </trkpt>
      <trkpt lat="45.76805" lon="5.82214">
        <ele>468.4</ele>
        <time>2021-08-22T11:46:24Z</time>
      </trkpt>
      <trkpt lat="45.76793" lon="5.82223">
        <ele>466.9</ele>
        <time>2021-08-22T11:46:26Z</time>
      </trkpt>
      <trkpt lat="45.76781" lon="5.82231">
        <ele>465.4</ele>
        <time>2021-08-22T11:46:28Z</time>
      </trkpt>
      <trkpt lat="45.76775" lon="5.82236">
        <ele>464.7</ele>
        <time>2021-08-22T11:46:29Z</time>
      </trkpt>
      <trkpt lat="45.76769" lon="5.82243">
        <ele>463.9</ele>
        <time>2021-08-22T11:46:30Z</time>
      </trkpt>
      <trkpt lat="45.76757" lon="5.82256">
        <ele>463.2</ele>
        <time>2021-08-22T11:46:32Z</time>
      </trkpt>
      <trkpt lat="45.76751" lon="5.82263">
        <ele>462.6</ele>
        <time>2021-08-22T11:46:33Z</time>
      </trkpt>
      <trkpt lat="45.76745" lon="5.82271">
        <ele>461.9</ele>
        <time>2021-08-22T11:46:34Z</time>
      </trkpt>
      <trkpt lat="45.76738" lon="5.82277">
        <ele>461.5</ele>
        <time>2021-08-22T11:46:35Z</time>
      </trkpt>
      <trkpt lat="45.76726" lon="5.8229">
        <ele>460.8</ele>
        <time>2021-08-22T11:46:37Z</time>
      </trkpt>
      <trkpt lat="45.7672" lon="5.82295">
        <ele>460.6</ele>
        <time>2021-08-22T11:46:38Z</time>
      </trkpt>
      <trkpt lat="45.76709" lon="5.82304">
        <ele>460.4</ele>
        <time>2021-08-22T11:46:40Z</time>
      </trkpt>
      <trkpt lat="45.76706" lon="5.82309">
        <ele>467.3</ele>
        <time>2021-08-22T11:46:41Z</time>
      </trkpt>
      <trkpt lat="45.76704" lon="5.82312">
        <ele>467.3</ele>
        <time>2021-08-22T11:46:42Z</time>
      </trkpt>
      <trkpt lat="45.76697" lon="5.82317">
        <ele>467.3</ele>
        <time>2021-08-22T11:46:44Z</time>
      </trkpt>
      <trkpt lat="45.76692" lon="5.82319">
        <ele>465.1</ele>
        <time>2021-08-22T11:46:45Z</time>
      </trkpt>
      <trkpt lat="45.76688" lon="5.82319">
        <ele>464.9</ele>
        <time>2021-08-22T11:46:46Z</time>
      </trkpt>
      <trkpt lat="45.76684" lon="5.82321">
        <ele>464.7</ele>
        <time>2021-08-22T11:46:48Z</time>
      </trkpt>
      <trkpt lat="45.76684" lon="5.82321">
        <ele>464.7</ele>
        <time>2021-08-22T11:46:50Z</time>
      </trkpt>
      <trkpt lat="45.76681" lon="5.82319">
        <ele>464.6</ele>
        <time>2021-08-22T11:46:51Z</time>
      </trkpt>
      <trkpt lat="45.7643" lon="5.82098">
        <ele>475.5</ele>
        <time>2021-08-22T11:57:03Z</time>
      </trkpt>
      <trkpt lat="45.76426" lon="5.82097">
        <ele>475.9</ele>
        <time>2021-08-22T11:57:05Z</time>
      </trkpt>
      <trkpt lat="45.76422" lon="5.82097">
        <ele>476.2</ele>
        <time>2021-08-22T11:57:06Z</time>
      </trkpt>
      <trkpt lat="45.76421" lon="5.82097">
        <ele>476.4</ele>
        <time>2021-08-22T11:57:07Z</time>
      </trkpt>
      <trkpt lat="45.7642" lon="5.82097">
        <ele>476.5</ele>
        <time>2021-08-22T11:57:09Z</time>
      </trkpt>
      <trkpt lat="45.76418" lon="5.82097">
        <ele>476.6</ele>
        <time>2021-08-22T11:57:10Z</time>
      </trkpt>
      <trkpt lat="45.76418" lon="5.82098">
        <ele>476.7</ele>
        <time>2021-08-22T11:57:11Z</time>
      </trkpt>
      <trkpt lat="45.76416" lon="5.82098">
        <ele>476.9</ele>
        <time>2021-08-22T11:57:13Z</time>
      </trkpt>
      <trkpt lat="45.76415" lon="5.82098">
        <ele>477</ele>
        <time>2021-08-22T11:57:14Z</time>
      </trkpt>
      <trkpt lat="45.76414" lon="5.82099">
        <ele>477.1</ele>
        <time>2021-08-22T11:57:16Z</time>
      </trkpt>
      <trkpt lat="45.76395" lon="5.82098">
        <ele>479.7</ele>
        <time>2021-08-22T11:57:43Z</time>
      </trkpt>
      <trkpt lat="45.7639" lon="5.82099">
        <ele>480.4</ele>
        <time>2021-08-22T11:57:45Z</time>
      </trkpt>
      <trkpt lat="45.76388" lon="5.82098">
        <ele>480.8</ele>
        <time>2021-08-22T11:57:46Z</time>
      </trkpt>
      <trkpt lat="45.76386" lon="5.82098">
        <ele>481</ele>
        <time>2021-08-22T11:57:48Z</time>
      </trkpt>
      <trkpt lat="45.76383" lon="5.82099">
        <ele>481.4</ele>
        <time>2021-08-22T11:57:49Z</time>
      </trkpt>
      <trkpt lat="45.76381" lon="5.82099">
        <ele>481.7</ele>
        <time>2021-08-22T11:57:50Z</time>
      </trkpt>
      <trkpt lat="45.76379" lon="5.821">
        <ele>482.1</ele>
        <time>2021-08-22T11:57:52Z</time>
      </trkpt>
      <trkpt lat="45.76377" lon="5.821">
        <ele>482.4</ele>
        <time>2021-08-22T11:57:53Z</time>
      </trkpt>
      <trkpt lat="45.76376" lon="5.821">
        <ele>482.6</ele>
        <time>2021-08-22T11:57:55Z</time>
      </trkpt>
      <trkpt lat="45.76374" lon="5.821">
        <ele>482.9</ele>
        <time>2021-08-22T11:57:56Z</time>
      </trkpt>
      <trkpt lat="45.76373" lon="5.821">
        <ele>483</ele>
        <time>2021-08-22T11:57:57Z</time>
      </trkpt>
      <trkpt lat="45.76373" lon="5.82099">
        <ele>483.2</ele>
        <time>2021-08-22T11:57:59Z</time>
      </trkpt>
      <trkpt lat="45.76205" lon="5.82098">
        <ele>515.2</ele>
        <time>2021-08-22T12:01:54Z</time>
      </trkpt>
      <trkpt lat="45.762" lon="5.82097">
        <ele>516.1</ele>
        <time>2021-08-22T12:01:55Z</time>
      </trkpt>
      <trkpt lat="45.76199" lon="5.82096">
        <ele>516.5</ele>
        <time>2021-08-22T12:01:57Z</time>
      </trkpt>
      <trkpt lat="45.76197" lon="5.82095">
        <ele>516.8</ele>
        <time>2021-08-22T12:01:59Z</time>
      </trkpt>
      <trkpt lat="45.76197" lon="5.82095">
        <ele>516.9</ele>
        <time>2021-08-22T12:02:00Z</time>
      </trkpt>
      <trkpt lat="45.76197" lon="5.82095">
        <ele>516.9</ele>
        <time>2021-08-22T12:02:01Z</time>
      </trkpt>
      <trkpt lat="45.76197" lon="5.82094">
        <ele>516.9</ele>
        <time>2021-08-22T12:02:02Z</time>
      </trkpt>
      <trkpt lat="45.76197" lon="5.82094">
        <ele>517</ele>
        <time>2021-08-22T12:02:03Z</time>
      </trkpt>
      <trkpt lat="45.76196" lon="5.82094">
        <ele>517.1</ele>
        <time>2021-08-22T12:02:04Z</time>
      </trkpt>
      <trkpt lat="45.76196" lon="5.82095">
        <ele>517.2</ele>
        <time>2021-08-22T12:02:06Z</time>
      </trkpt>
      <trkpt lat="45.76024" lon="5.82021">
        <ele>553.2</ele>
        <time>2021-08-22T12:09:09Z</time>
      </trkpt>
      <trkpt lat="45.76019" lon="5.82021">
        <ele>553.9</ele>
        <time>2021-08-22T12:09:10Z</time>
      </trkpt>
      <trkpt lat="45.76009" lon="5.82019">
        <ele>556.1</ele>
        <time>2021-08-22T12:09:12Z</time>
      </trkpt>
      <trkpt lat="45.76006" lon="5.82018">
        <ele>556.6</ele>
        <time>2021-08-22T12:09:13Z</time>
      </trkpt>
      <trkpt lat="45.75997" lon="5.82017">
        <ele>558.5</ele>
        <time>2021-08-22T12:09:16Z</time>
      </trkpt>
      <trkpt lat="45.75995" lon="5.82017">
        <ele>559.1</ele>
        <time>2021-08-22T12:09:17Z</time>
      </trkpt>
      <trkpt lat="45.75995" lon="5.82018">
        <ele>561</ele>
        <time>2021-08-22T12:09:19Z</time>
      </trkpt>
      <trkpt lat="45.75994" lon="5.82019">
        <ele>561.3</ele>
        <time>2021-08-22T12:09:20Z</time>
      </trkpt>
      <trkpt lat="45.75994" lon="5.8202">
        <ele>561.9</ele>
        <time>2021-08-22T12:09:22Z</time>
      </trkpt>
      <trkpt lat="45.76007" lon="5.81856">
        <ele>570.3</ele>
        <time>2021-08-22T12:15:56Z</time>
      </trkpt>
      <trkpt lat="45.76008" lon="5.81854">
        <ele>570.9</ele>
        <time>2021-08-22T12:15:57Z</time>
      </trkpt>
      <trkpt lat="45.7601" lon="5.81852">
        <ele>571.5</ele>
        <time>2021-08-22T12:15:59Z</time>
      </trkpt>
      <trkpt lat="45.76011" lon="5.81851">
        <ele>571.3</ele>
        <time>2021-08-22T12:16:00Z</time>
      </trkpt>
      <trkpt lat="45.76011" lon="5.81851">
        <ele>571.9</ele>
        <time>2021-08-22T12:16:02Z</time>
      </trkpt>
      <trkpt lat="45.76012" lon="5.8185">
        <ele>572.6</ele>
        <time>2021-08-22T12:16:03Z</time>
      </trkpt>
      <trkpt lat="45.76012" lon="5.8185">
        <ele>573.2</ele>
        <time>2021-08-22T12:16:04Z</time>
      </trkpt>
      <trkpt lat="45.76012" lon="5.8185">
        <ele>573.8</ele>
        <time>2021-08-22T12:16:06Z</time>
      </trkpt>
      <trkpt lat="45.76012" lon="5.8185">
        <ele>574.4</ele>
        <time>2021-08-22T12:16:07Z</time>
      </trkpt>
      <trkpt lat="45.76012" lon="5.8185">
        <ele>574.9</ele>
        <time>2021-08-22T12:16:09Z</time>
      </trkpt>
      <trkpt lat="45.76012" lon="5.8185">
        <ele>575.5</ele>
        <time>2021-08-22T12:16:10Z</time>
      </trkpt>
      <trkpt lat="45.76012" lon="5.8185">
        <ele>576.1</ele>
        <time>2021-08-22T12:16:11Z</time>
      </trkpt>
      <trkpt lat="45.76011" lon="5.8185">
        <ele>576.7</ele>
        <time>2021-08-22T12:16:12Z</time>
      </trkpt>
      <trkpt lat="45.76011" lon="5.8185">
        <ele>577.3</ele>
        <time>2021-08-22T12:16:14Z</time>
      </trkpt>
      <trkpt lat="45.76011" lon="5.8185">
        <ele>577.9</ele>
        <time>2021-08-22T12:16:15Z</time>
      </trkpt>
      <trkpt lat="45.76011" lon="5.8185">
        <ele>578.5</ele>
        <time>2021-08-22T12:16:17Z</time>
      </trkpt>
      <trkpt lat="45.76011" lon="5.8185">
        <ele>579.1</ele>
        <time>2021-08-22T12:16:19Z</time>
      </trkpt>
      <trkpt lat="45.7601" lon="5.8185">
        <ele>579.7</ele>
        <time>2021-08-22T12:16:20Z</time>
      </trkpt>
      <trkpt lat="45.7601" lon="5.8185">
        <ele>580.3</ele>
        <time>2021-08-22T12:16:21Z</time>
      </trkpt>
      <trkpt lat="45.7601" lon="5.8185">
        <ele>580.9</ele>
        <time>2021-08-22T12:16:23Z</time>
      </trkpt>
      <trkpt lat="45.7601" lon="5.8185">
        <ele>581.5</ele>
        <time>2021-08-22T12:16:24Z</time>
      </trkpt>
      <trkpt lat="45.7601" lon="5.8185">
        <ele>582.9</ele>
        <time>2021-08-22T12:16:26Z</time>
      </trkpt>
      <trkpt lat="45.7601" lon="5.8185">
        <ele>583.5</ele>
        <time>2021-08-22T12:16:28Z</time>
      </trkpt>
      <trkpt lat="45.76009" lon="5.8185">
        <ele>584.1</ele>
        <time>2021-08-22T12:16:29Z</time>
      </trkpt>
      <trkpt lat="45.76009" lon="5.8185">
        <ele>584.7</ele>
        <time>2021-08-22T12:16:31Z</time>
      </trkpt>
      <trkpt lat="45.76009" lon="5.8185">
        <ele>585.3</ele>
        <time>2021-08-22T12:16:32Z</time>
      </trkpt>
      <trkpt lat="45.76009" lon="5.8185">
        <ele>585.9</ele>
        <time>2021-08-22T12:16:33Z</time>
      </trkpt>
      <trkpt lat="45.76009" lon="5.8185">
        <ele>586.5</ele>
        <time>2021-08-22T12:16:35Z</time>
      </trkpt>
      <trkpt lat="45.76008" lon="5.8185">
        <ele>587.1</ele>
        <time>2021-08-22T12:16:36Z</time>
      </trkpt>
      <trkpt lat="45.76008" lon="5.8185">
        <ele>587.7</ele>
        <time>2021-08-22T12:16:38Z</time>
      </trkpt>
      <trkpt lat="45.76008" lon="5.8185">
        <ele>588.3</ele>
        <time>2021-08-22T12:16:39Z</time>
      </trkpt>
      <trkpt lat="45.76007" lon="5.8185">
        <ele>589.7</ele>
        <time>2021-08-22T12:16:40Z</time>
      </trkpt>
      <trkpt lat="45.76006" lon="5.81851">
        <ele>590.3</ele>
        <time>2021-08-22T12:16:42Z</time>
      </trkpt>
      <trkpt lat="45.76006" lon="5.81851">
        <ele>590.8</ele>
        <time>2021-08-22T12:16:43Z</time>
      </trkpt>
      <trkpt lat="45.76005" lon="5.81851">
        <ele>591.4</ele>
        <time>2021-08-22T12:16:45Z</time>
      </trkpt>
      <trkpt lat="45.76004" lon="5.81851">
        <ele>592</ele>
        <time>2021-08-22T12:16:47Z</time>
      </trkpt>
      <trkpt lat="45.76004" lon="5.81851">
        <ele>592.6</ele>
        <time>2021-08-22T12:16:48Z</time>
      </trkpt>
      <trkpt lat="45.76004" lon="5.81851">
        <ele>593.2</ele>
        <time>2021-08-22T12:16:49Z</time>
      </trkpt>
      <trkpt lat="45.76004" lon="5.81851">
        <ele>593.8</ele>
        <time>2021-08-22T12:16:51Z</time>
      </trkpt>
      <trkpt lat="45.76004" lon="5.81851">
        <ele>595.2</ele>
        <time>2021-08-22T12:16:53Z</time>
      </trkpt>
      <trkpt lat="45.76004" lon="5.8185">
        <ele>595</ele>
        <time>2021-08-22T12:16:55Z</time>
      </trkpt>
      <trkpt lat="45.76005" lon="5.81848">
        <ele>595.6</ele>
        <time>2021-08-22T12:16:56Z</time>
      </trkpt>
      <trkpt lat="45.76005" lon="5.81847">
        <ele>596.2</ele>
        <time>2021-08-22T12:16:58Z</time>
      </trkpt>
      <trkpt lat="45.76005" lon="5.81846">
        <ele>596.9</ele>
        <time>2021-08-22T12:16:59Z</time>
      </trkpt>
      <trkpt lat="45.76006" lon="5.81845">
        <ele>597.5</ele>
        <time>2021-08-22T12:17:00Z</time>
      </trkpt>
      <trkpt lat="45.76006" lon="5.81844">
        <ele>598.1</ele>
        <time>2021-08-22T12:17:02Z</time>
      </trkpt>
      <trkpt lat="45.76006" lon="5.81844">
        <ele>598.7</ele>
        <time>2021-08-22T12:17:03Z</time>
      </trkpt>
      <trkpt lat="45.76007" lon="5.81844">
        <ele>599.3</ele>
        <time>2021-08-22T12:17:04Z</time>
      </trkpt>
      <trkpt lat="45.76007" lon="5.81843">
        <ele>599.9</ele>
        <time>2021-08-22T12:17:06Z</time>
      </trkpt>
      <trkpt lat="45.76007" lon="5.81842">
        <ele>599.6</ele>
        <time>2021-08-22T12:17:07Z</time>
      </trkpt>
      <trkpt lat="45.76008" lon="5.81842">
        <ele>599.7</ele>
        <time>2021-08-22T12:17:08Z</time>
      </trkpt>
      <trkpt lat="45.76008" lon="5.81842">
        <ele>599.8</ele>
        <time>2021-08-22T12:17:09Z</time>
      </trkpt>
      <trkpt lat="45.76008" lon="5.81842">
        <ele>599.8</ele>
        <time>2021-08-22T12:17:11Z</time>
      </trkpt>
      <trkpt lat="45.76008" lon="5.81842">
        <ele>599.9</ele>
        <time>2021-08-22T12:17:12Z</time>
      </trkpt>
      <trkpt lat="45.76008" lon="5.81841">
        <ele>599.9</ele>
        <time>2021-08-22T12:17:14Z</time>
      </trkpt>
      <trkpt lat="45.76008" lon="5.81841">
        <ele>599.9</ele>
        <time>2021-08-22T12:17:15Z</time>
      </trkpt>
      <trkpt lat="45.76008" lon="5.8184">
        <ele>600.2</ele>
        <time>2021-08-22T12:17:17Z</time>
      </trkpt>
      <trkpt lat="45.76007" lon="5.81839">
        <ele>600.4</ele>
        <time>2021-08-22T12:17:18Z</time>
      </trkpt>
      <trkpt lat="45.76006" lon="5.81837">
        <ele>600.7</ele>
        <time>2021-08-22T12:17:19Z</time>
      </trkpt>
      <trkpt lat="45.76004" lon="5.81835">
        <ele>601.1</ele>
        <time>2021-08-22T12:17:21Z</time>
      </trkpt>
      <trkpt lat="45.76003" lon="5.81834">
        <ele>601.4</ele>
        <time>2021-08-22T12:17:22Z</time>
      </trkpt>
      <trkpt lat="45.76001" lon="5.81833">
        <ele>601.8</ele>
        <time>2021-08-22T12:17:24Z</time>
      </trkpt>
      <trkpt lat="45.76" lon="5.81833">
        <ele>602</ele>
        <time>2021-08-22T12:17:25Z</time>
      </trkpt>
      <trkpt lat="45.76" lon="5.81833">
        <ele>602.1</ele>
        <time>2021-08-22T12:17:26Z</time>
      </trkpt>
      <trkpt lat="45.75998" lon="5.81832">
        <ele>602.4</ele>
        <time>2021-08-22T12:17:28Z</time>
      </trkpt>
      <trkpt lat="45.75997" lon="5.81832">
        <ele>602.6</ele>
        <time>2021-08-22T12:17:30Z</time>
      </trkpt>
      <trkpt lat="45.75997" lon="5.81831">
        <ele>602.7</ele>
        <time>2021-08-22T12:17:32Z</time>
      </trkpt>
      <trkpt lat="45.75996" lon="5.81831">
        <ele>602.8</ele>
        <time>2021-08-22T12:17:33Z</time>
      </trkpt>
      <trkpt lat="45.75996" lon="5.81831">
        <ele>602.9</ele>
        <time>2021-08-22T12:17:36Z</time>
      </trkpt>
      <trkpt lat="45.75996" lon="5.81831">
        <ele>603</ele>
        <time>2021-08-22T12:17:38Z</time>
      </trkpt>
      <trkpt lat="45.75996" lon="5.81831">
        <ele>603</ele>
        <time>2021-08-22T12:17:39Z</time>
      </trkpt>
      <trkpt lat="45.75995" lon="5.8183">
        <ele>603</ele>
        <time>2021-08-22T12:17:41Z</time>
      </trkpt>
      <trkpt lat="45.75995" lon="5.8183">
        <ele>603.1</ele>
        <time>2021-08-22T12:17:42Z</time>
      </trkpt>
      <trkpt lat="45.75995" lon="5.8183">
        <ele>603.1</ele>
        <time>2021-08-22T12:17:44Z</time>
      </trkpt>
      <trkpt lat="45.75995" lon="5.8183">
        <ele>603.1</ele>
        <time>2021-08-22T12:17:45Z</time>
      </trkpt>
      <trkpt lat="45.75995" lon="5.8183">
        <ele>603.1</ele>
        <time>2021-08-22T12:17:46Z</time>
      </trkpt>
      <trkpt lat="45.75995" lon="5.8183">
        <ele>603.1</ele>
        <time>2021-08-22T12:17:48Z</time>
      </trkpt>
      <trkpt lat="45.75995" lon="5.8183">
        <ele>603.2</ele>
        <time>2021-08-22T12:17:49Z</time>
      </trkpt>
      <trkpt lat="45.75995" lon="5.8183">
        <ele>603.2</ele>
        <time>2021-08-22T12:17:51Z</time>
      </trkpt>
      <trkpt lat="45.75995" lon="5.8183">
        <ele>603.2</ele>
        <time>2021-08-22T12:17:52Z</time>
      </trkpt>
      <trkpt lat="45.75995" lon="5.81829">
        <ele>603.2</ele>
        <time>2021-08-22T12:17:54Z</time>
      </trkpt>
      <trkpt lat="45.75995" lon="5.81829">
        <ele>603.3</ele>
        <time>2021-08-22T12:17:55Z</time>
      </trkpt>
      <trkpt lat="45.75996" lon="5.8183">
        <ele>603.3</ele>
        <time>2021-08-22T12:17:56Z</time>
      </trkpt>
      <trkpt lat="45.75996" lon="5.8183">
        <ele>603.3</ele>
        <time>2021-08-22T12:17:58Z</time>
      </trkpt>
      <trkpt lat="45.75996" lon="5.8183">
        <ele>603.4</ele>
        <time>2021-08-22T12:18:01Z</time>
      </trkpt>
      <trkpt lat="45.75996" lon="5.8183">
        <ele>603.4</ele>
        <time>2021-08-22T12:18:02Z</time>
      </trkpt>
      <trkpt lat="45.75996" lon="5.8183">
        <ele>603.4</ele>
        <time>2021-08-22T12:18:03Z</time>
      </trkpt>
      <trkpt lat="45.75995" lon="5.81829">
        <ele>603.5</ele>
        <time>2021-08-22T12:18:05Z</time>
      </trkpt>
      <trkpt lat="45.75994" lon="5.81826">
        <ele>604</ele>
        <time>2021-08-22T12:18:07Z</time>
      </trkpt>
      <trkpt lat="45.75992" lon="5.81825">
        <ele>604.3</ele>
        <time>2021-08-22T12:18:08Z</time>
      </trkpt>
      <trkpt lat="45.7599" lon="5.81823">
        <ele>604.7</ele>
        <time>2021-08-22T12:18:10Z</time>
      </trkpt>
      <trkpt lat="45.75988" lon="5.81821">
        <ele>605.2</ele>
        <time>2021-08-22T12:18:11Z</time>
      </trkpt>
      <trkpt lat="45.75987" lon="5.8182">
        <ele>605.4</ele>
        <time>2021-08-22T12:18:12Z</time>
      </trkpt>
      <trkpt lat="45.75986" lon="5.81819">
        <ele>605.6</ele>
        <time>2021-08-22T12:18:14Z</time>
      </trkpt>
      <trkpt lat="45.75985" lon="5.81818">
        <ele>605.8</ele>
        <time>2021-08-22T12:18:15Z</time>
      </trkpt>
      <trkpt lat="45.75985" lon="5.81817">
        <ele>605.9</ele>
        <time>2021-08-22T12:18:16Z</time>
      </trkpt>
      <trkpt lat="45.75985" lon="5.81816">
        <ele>606</ele>
        <time>2021-08-22T12:18:17Z</time>
      </trkpt>
      <trkpt lat="45.75985" lon="5.81815">
        <ele>606.1</ele>
        <time>2021-08-22T12:18:18Z</time>
      </trkpt>
      <trkpt lat="45.75984" lon="5.81815">
        <ele>606.1</ele>
        <time>2021-08-22T12:18:20Z</time>
      </trkpt>
      <trkpt lat="45.75984" lon="5.81815">
        <ele>606.2</ele>
        <time>2021-08-22T12:18:21Z</time>
      </trkpt>
      <trkpt lat="45.75984" lon="5.81815">
        <ele>606.2</ele>
        <time>2021-08-22T12:18:22Z</time>
      </trkpt>
      <trkpt lat="45.75983" lon="5.81813">
        <ele>606.5</ele>
        <time>2021-08-22T12:18:24Z</time>
      </trkpt>
      <trkpt lat="45.75982" lon="5.81811">
        <ele>606.7</ele>
        <time>2021-08-22T12:18:25Z</time>
      </trkpt>
      <trkpt lat="45.75981" lon="5.8181">
        <ele>606.9</ele>
        <time>2021-08-22T12:18:26Z</time>
      </trkpt>
      <trkpt lat="45.7598" lon="5.81809">
        <ele>607.1</ele>
        <time>2021-08-22T12:18:28Z</time>
      </trkpt>
      <trkpt lat="45.7598" lon="5.81808">
        <ele>607.2</ele>
        <time>2021-08-22T12:18:29Z</time>
      </trkpt>
      <trkpt lat="45.75979" lon="5.81807">
        <ele>607.4</ele>
        <time>2021-08-22T12:18:31Z</time>
      </trkpt>
      <trkpt lat="45.75978" lon="5.81807">
        <ele>607.5</ele>
        <time>2021-08-22T12:18:32Z</time>
      </trkpt>
      <trkpt lat="45.75978" lon="5.81806">
        <ele>607.6</ele>
        <time>2021-08-22T12:18:34Z</time>
      </trkpt>
      <trkpt lat="45.75978" lon="5.81805">
        <ele>607.7</ele>
        <time>2021-08-22T12:18:35Z</time>
      </trkpt>
      <trkpt lat="45.75978" lon="5.81805">
        <ele>607.8</ele>
        <time>2021-08-22T12:18:36Z</time>
      </trkpt>
      <trkpt lat="45.75977" lon="5.81804">
        <ele>607.8</ele>
        <time>2021-08-22T12:18:38Z</time>
      </trkpt>
      <trkpt lat="45.75976" lon="5.81804">
        <ele>608</ele>
        <time>2021-08-22T12:18:39Z</time>
      </trkpt>
      <trkpt lat="45.75974" lon="5.81804">
        <ele>608.4</ele>
        <time>2021-08-22T12:18:41Z</time>
      </trkpt>
      <trkpt lat="45.75971" lon="5.81804">
        <ele>608.8</ele>
        <time>2021-08-22T12:18:42Z</time>
      </trkpt>
      <trkpt lat="45.75968" lon="5.81804">
        <ele>609.5</ele>
        <time>2021-08-22T12:18:44Z</time>
      </trkpt>
      <trkpt lat="45.75966" lon="5.81805">
        <ele>609.8</ele>
        <time>2021-08-22T12:18:46Z</time>
      </trkpt>
      <trkpt lat="45.75964" lon="5.81805">
        <ele>610</ele>
        <time>2021-08-22T12:18:47Z</time>
      </trkpt>
      <trkpt lat="45.75963" lon="5.81805">
        <ele>610.1</ele>
        <time>2021-08-22T12:18:48Z</time>
      </trkpt>
      <trkpt lat="45.75962" lon="5.81805">
        <ele>610.4</ele>
        <time>2021-08-22T12:18:50Z</time>
      </trkpt>
      <trkpt lat="45.75961" lon="5.81805">
        <ele>610.5</ele>
        <time>2021-08-22T12:18:52Z</time>
      </trkpt>
      <trkpt lat="45.75961" lon="5.81805">
        <ele>610.5</ele>
        <time>2021-08-22T12:18:53Z</time>
      </trkpt>
      <trkpt lat="45.75961" lon="5.81805">
        <ele>610.6</ele>
        <time>2021-08-22T12:18:54Z</time>
      </trkpt>
      <trkpt lat="45.75961" lon="5.81805">
        <ele>610.6</ele>
        <time>2021-08-22T12:18:55Z</time>
      </trkpt>
      <trkpt lat="45.7596" lon="5.81805">
        <ele>610.7</ele>
        <time>2021-08-22T12:18:57Z</time>
      </trkpt>
      <trkpt lat="45.7596" lon="5.81805">
        <ele>610.7</ele>
        <time>2021-08-22T12:18:59Z</time>
      </trkpt>
      <trkpt lat="45.7596" lon="5.81805">
        <ele>610.7</ele>
        <time>2021-08-22T12:19:01Z</time>
      </trkpt>
      <trkpt lat="45.7596" lon="5.81805">
        <ele>610.8</ele>
        <time>2021-08-22T12:19:02Z</time>
      </trkpt>
      <trkpt lat="45.7596" lon="5.81805">
        <ele>610.8</ele>
        <time>2021-08-22T12:19:03Z</time>
      </trkpt>
      <trkpt lat="45.7596" lon="5.81805">
        <ele>610.8</ele>
        <time>2021-08-22T12:19:04Z</time>
      </trkpt>
      <trkpt lat="45.7596" lon="5.81805">
        <ele>610.8</ele>
        <time>2021-08-22T12:19:05Z</time>
      </trkpt>
      <trkpt lat="45.7596" lon="5.81805">
        <ele>610.8</ele>
        <time>2021-08-22T12:19:07Z</time>
      </trkpt>
      <trkpt lat="45.75959" lon="5.81805">
        <ele>610.8</ele>
        <time>2021-08-22T12:19:08Z</time>
      </trkpt>
      <trkpt lat="45.75959" lon="5.81805">
        <ele>610.8</ele>
        <time>2021-08-22T12:19:09Z</time>
      </trkpt>
      <trkpt lat="45.75959" lon="5.81805">
        <ele>610.9</ele>
        <time>2021-08-22T12:19:10Z</time>
      </trkpt>
      <trkpt lat="45.75959" lon="5.81805">
        <ele>610.9</ele>
        <time>2021-08-22T12:19:12Z</time>
      </trkpt>
      <trkpt lat="45.75958" lon="5.81805">
        <ele>611</ele>
        <time>2021-08-22T12:19:13Z</time>
      </trkpt>
      <trkpt lat="45.75955" lon="5.81804">
        <ele>611.6</ele>
        <time>2021-08-22T12:19:15Z</time>
      </trkpt>
      <trkpt lat="45.75954" lon="5.81804">
        <ele>611.8</ele>
        <time>2021-08-22T12:19:16Z</time>
      </trkpt>
      <trkpt lat="45.75952" lon="5.81804">
        <ele>612</ele>
        <time>2021-08-22T12:19:18Z</time>
      </trkpt>
      <trkpt lat="45.75951" lon="5.81804">
        <ele>612.2</ele>
        <time>2021-08-22T12:19:19Z</time>
      </trkpt>
      <trkpt lat="45.75949" lon="5.81804">
        <ele>612.5</ele>
        <time>2021-08-22T12:19:21Z</time>
      </trkpt>
      <trkpt lat="45.75947" lon="5.81804">
        <ele>612.7</ele>
        <time>2021-08-22T12:19:22Z</time>
      </trkpt>
      <trkpt lat="45.75946" lon="5.81805">
        <ele>613</ele>
        <time>2021-08-22T12:19:24Z</time>
      </trkpt>
      <trkpt lat="45.75944" lon="5.81805">
        <ele>613.2</ele>
        <time>2021-08-22T12:19:25Z</time>
      </trkpt>
      <trkpt lat="45.75943" lon="5.81806">
        <ele>613.4</ele>
        <time>2021-08-22T12:19:26Z</time>
      </trkpt>
      <trkpt lat="45.75941" lon="5.81805">
        <ele>613.6</ele>
        <time>2021-08-22T12:19:27Z</time>
      </trkpt>
      <trkpt lat="45.75939" lon="5.81806">
        <ele>613.8</ele>
        <time>2021-08-22T12:19:29Z</time>
      </trkpt>
      <trkpt lat="45.75936" lon="5.81808">
        <ele>614.4</ele>
        <time>2021-08-22T12:19:31Z</time>
      </trkpt>
      <trkpt lat="45.75933" lon="5.8181">
        <ele>614.7</ele>
        <time>2021-08-22T12:19:32Z</time>
      </trkpt>
      <trkpt lat="45.75929" lon="5.81812">
        <ele>615.1</ele>
        <time>2021-08-22T12:19:33Z</time>
      </trkpt>
      <trkpt lat="45.75927" lon="5.81813">
        <ele>615.3</ele>
        <time>2021-08-22T12:19:34Z</time>
      </trkpt>
      <trkpt lat="45.75922" lon="5.81813">
        <ele>615.8</ele>
        <time>2021-08-22T12:19:36Z</time>
      </trkpt>
      <trkpt lat="45.75921" lon="5.81813">
        <ele>616</ele>
        <time>2021-08-22T12:19:37Z</time>
      </trkpt>
      <trkpt lat="45.75919" lon="5.81812">
        <ele>616.1</ele>
        <time>2021-08-22T12:19:38Z</time>
      </trkpt>
      <trkpt lat="45.75917" lon="5.81811">
        <ele>616.3</ele>
        <time>2021-08-22T12:19:39Z</time>
      </trkpt>
      <trkpt lat="45.75915" lon="5.8181">
        <ele>616.5</ele>
        <time>2021-08-22T12:19:41Z</time>
      </trkpt>
      <trkpt lat="45.75913" lon="5.81809">
        <ele>616.7</ele>
        <time>2021-08-22T12:19:42Z</time>
      </trkpt>
      <trkpt lat="45.75911" lon="5.81809">
        <ele>616.8</ele>
        <time>2021-08-22T12:19:43Z</time>
      </trkpt>
      <trkpt lat="45.75908" lon="5.81807">
        <ele>617.1</ele>
        <time>2021-08-22T12:19:45Z</time>
      </trkpt>
      <trkpt lat="45.75907" lon="5.81807">
        <ele>617.2</ele>
        <time>2021-08-22T12:19:46Z</time>
      </trkpt>
      <trkpt lat="45.75905" lon="5.81805">
        <ele>617.4</ele>
        <time>2021-08-22T12:19:47Z</time>
      </trkpt>
      <trkpt lat="45.75904" lon="5.81804">
        <ele>617.5</ele>
        <time>2021-08-22T12:19:48Z</time>
      </trkpt>
      <trkpt lat="45.75904" lon="5.81803">
        <ele>617.6</ele>
        <time>2021-08-22T12:19:49Z</time>
      </trkpt>
      <trkpt lat="45.75903" lon="5.81802">
        <ele>617.6</ele>
        <time>2021-08-22T12:19:51Z</time>
      </trkpt>
      <trkpt lat="45.75901" lon="5.81802">
        <ele>617.8</ele>
        <time>2021-08-22T12:19:52Z</time>
      </trkpt>
      <trkpt lat="45.759" lon="5.81801">
        <ele>617.9</ele>
        <time>2021-08-22T12:19:53Z</time>
      </trkpt>
      <trkpt lat="45.75898" lon="5.81801">
        <ele>618</ele>
        <time>2021-08-22T12:19:54Z</time>
      </trkpt>
      <trkpt lat="45.75897" lon="5.81801">
        <ele>618.2</ele>
        <time>2021-08-22T12:19:56Z</time>
      </trkpt>
      <trkpt lat="45.75896" lon="5.81801">
        <ele>618.2</ele>
        <time>2021-08-22T12:19:57Z</time>
      </trkpt>
      <trkpt lat="45.75896" lon="5.81801">
        <ele>618.3</ele>
        <time>2021-08-22T12:19:58Z</time>
      </trkpt>
      <trkpt lat="45.75896" lon="5.81801">
        <ele>618.3</ele>
        <time>2021-08-22T12:19:59Z</time>
      </trkpt>
      <trkpt lat="45.75895" lon="5.81801">
        <ele>618.3</ele>
        <time>2021-08-22T12:20:01Z</time>
      </trkpt>
      <trkpt lat="45.75895" lon="5.81801">
        <ele>618.3</ele>
        <time>2021-08-22T12:20:03Z</time>
      </trkpt>
      <trkpt lat="45.75895" lon="5.81801">
        <ele>618.3</ele>
        <time>2021-08-22T12:20:04Z</time>
      </trkpt>
      <trkpt lat="45.75895" lon="5.81801">
        <ele>618.3</ele>
        <time>2021-08-22T12:20:05Z</time>
      </trkpt>
      <trkpt lat="45.75895" lon="5.81801">
        <ele>618.4</ele>
        <time>2021-08-22T12:20:07Z</time>
      </trkpt>
      <trkpt lat="45.75895" lon="5.81801">
        <ele>618.4</ele>
        <time>2021-08-22T12:20:08Z</time>
      </trkpt>
      <trkpt lat="45.75895" lon="5.81801">
        <ele>618.4</ele>
        <time>2021-08-22T12:20:09Z</time>
      </trkpt>
      <trkpt lat="45.75883" lon="5.81799">
        <ele>619.5</ele>
        <time>2021-08-22T12:20:53Z</time>
      </trkpt>
      <trkpt lat="45.75881" lon="5.81801">
        <ele>619.7</ele>
        <time>2021-08-22T12:20:54Z</time>
      </trkpt>
      <trkpt lat="45.7588" lon="5.81802">
        <ele>619.9</ele>
        <time>2021-08-22T12:20:56Z</time>
      </trkpt>
      <trkpt lat="45.75879" lon="5.81802">
        <ele>620</ele>
        <time>2021-08-22T12:20:57Z</time>
      </trkpt>
      <trkpt lat="45.75878" lon="5.81803">
        <ele>620</ele>
        <time>2021-08-22T12:20:59Z</time>
      </trkpt>
      <trkpt lat="45.75878" lon="5.81803">
        <ele>620.1</ele>
        <time>2021-08-22T12:21:00Z</time>
      </trkpt>
      <trkpt lat="45.75878" lon="5.81803">
        <ele>620.1</ele>
        <time>2021-08-22T12:21:01Z</time>
      </trkpt>
      <trkpt lat="45.75878" lon="5.81803">
        <ele>620.1</ele>
        <time>2021-08-22T12:21:02Z</time>
      </trkpt>
      <trkpt lat="45.75876" lon="5.81803">
        <ele>620.2</ele>
        <time>2021-08-22T12:21:04Z</time>
      </trkpt>
      <trkpt lat="45.75867" lon="5.81801">
        <ele>621.2</ele>
        <time>2021-08-22T12:21:10Z</time>
      </trkpt>
      <trkpt lat="45.75864" lon="5.81801">
        <ele>621.5</ele>
        <time>2021-08-22T12:21:12Z</time>
      </trkpt>
      <trkpt lat="45.75862" lon="5.81801">
        <ele>621.7</ele>
        <time>2021-08-22T12:21:13Z</time>
      </trkpt>
      <trkpt lat="45.75861" lon="5.81801">
        <ele>621.8</ele>
        <time>2021-08-22T12:21:14Z</time>
      </trkpt>
      <trkpt lat="45.7586" lon="5.81801">
        <ele>622</ele>
        <time>2021-08-22T12:21:15Z</time>
      </trkpt>
      <trkpt lat="45.75856" lon="5.81801">
        <ele>622.3</ele>
        <time>2021-08-22T12:21:17Z</time>
      </trkpt>
      <trkpt lat="45.75854" lon="5.81801">
        <ele>622.5</ele>
        <time>2021-08-22T12:21:18Z</time>
      </trkpt>
      <trkpt lat="45.75853" lon="5.818">
        <ele>622.7</ele>
        <time>2021-08-22T12:21:20Z</time>
      </trkpt>
      <trkpt lat="45.75852" lon="5.818">
        <ele>622.8</ele>
        <time>2021-08-22T12:21:21Z</time>
      </trkpt>
      <trkpt lat="45.7585" lon="5.818">
        <ele>622.9</ele>
        <time>2021-08-22T12:21:22Z</time>
      </trkpt>
      <trkpt lat="45.75849" lon="5.818">
        <ele>623</ele>
        <time>2021-08-22T12:21:24Z</time>
      </trkpt>
      <trkpt lat="45.75848" lon="5.818">
        <ele>623.2</ele>
        <time>2021-08-22T12:21:25Z</time>
      </trkpt>
      <trkpt lat="45.75847" lon="5.818">
        <ele>623.3</ele>
        <time>2021-08-22T12:21:26Z</time>
      </trkpt>
      <trkpt lat="45.75846" lon="5.818">
        <ele>623.4</ele>
        <time>2021-08-22T12:21:28Z</time>
      </trkpt>
      <trkpt lat="45.75845" lon="5.81799">
        <ele>623.5</ele>
        <time>2021-08-22T12:21:29Z</time>
      </trkpt>
      <trkpt lat="45.75844" lon="5.81799">
        <ele>623.6</ele>
        <time>2021-08-22T12:21:30Z</time>
      </trkpt>
      <trkpt lat="45.75842" lon="5.81797">
        <ele>623.8</ele>
        <time>2021-08-22T12:21:31Z</time>
      </trkpt>
      <trkpt lat="45.75765" lon="5.81878">
        <ele>636.4</ele>
        <time>2021-08-22T12:25:34Z</time>
      </trkpt>
      <trkpt lat="45.75758" lon="5.81883">
        <ele>637.8</ele>
        <time>2021-08-22T12:25:35Z</time>
      </trkpt>
      <trkpt lat="45.75753" lon="5.81886">
        <ele>638.8</ele>
        <time>2021-08-22T12:25:37Z</time>
      </trkpt>
      <trkpt lat="45.75746" lon="5.8189">
        <ele>640.2</ele>
        <time>2021-08-22T12:25:38Z</time>
      </trkpt>
      <trkpt lat="45.75744" lon="5.81893">
        <ele>640.6</ele>
        <time>2021-08-22T12:25:39Z</time>
      </trkpt>
      <trkpt lat="45.75742" lon="5.81897">
        <ele>641.3</ele>
        <time>2021-08-22T12:25:40Z</time>
      </trkpt>
      <trkpt lat="45.75741" lon="5.81901">
        <ele>641.9</ele>
        <time>2021-08-22T12:25:42Z</time>
      </trkpt>
      <trkpt lat="45.75739" lon="5.81904">
        <ele>642.4</ele>
        <time>2021-08-22T12:25:43Z</time>
      </trkpt>
      <trkpt lat="45.75737" lon="5.81911">
        <ele>643.4</ele>
        <time>2021-08-22T12:25:45Z</time>
      </trkpt>
      <trkpt lat="45.75734" lon="5.81913">
        <ele>644</ele>
        <time>2021-08-22T12:25:46Z</time>
      </trkpt>
      <trkpt lat="45.75733" lon="5.81914">
        <ele>644.2</ele>
        <time>2021-08-22T12:25:47Z</time>
      </trkpt>
      <trkpt lat="45.75731" lon="5.81917">
        <ele>644.6</ele>
        <time>2021-08-22T12:25:48Z</time>
      </trkpt>
      <trkpt lat="45.75728" lon="5.8192">
        <ele>645.1</ele>
        <time>2021-08-22T12:25:50Z</time>
      </trkpt>
      <trkpt lat="45.75726" lon="5.81921">
        <ele>645.3</ele>
        <time>2021-08-22T12:25:51Z</time>
      </trkpt>
      <trkpt lat="45.75725" lon="5.81922">
        <ele>645.5</ele>
        <time>2021-08-22T12:25:52Z</time>
      </trkpt>
      <trkpt lat="45.75723" lon="5.81924">
        <ele>645.8</ele>
        <time>2021-08-22T12:25:54Z</time>
      </trkpt>
      <trkpt lat="45.7572" lon="5.81926">
        <ele>646</ele>
        <time>2021-08-22T12:25:55Z</time>
      </trkpt>
      <trkpt lat="45.7572" lon="5.81928">
        <ele>646.1</ele>
        <time>2021-08-22T12:25:56Z</time>
      </trkpt>
      <trkpt lat="45.75718" lon="5.8193">
        <ele>646.3</ele>
        <time>2021-08-22T12:25:57Z</time>
      </trkpt>
      <trkpt lat="45.75717" lon="5.81935">
        <ele>646.4</ele>
        <time>2021-08-22T12:25:59Z</time>
      </trkpt>
      <trkpt lat="45.75714" lon="5.81936">
        <ele>646.6</ele>
        <time>2021-08-22T12:26:00Z</time>
      </trkpt>
      <trkpt lat="45.75713" lon="5.81936">
        <ele>646.6</ele>
        <time>2021-08-22T12:26:01Z</time>
      </trkpt>
      <trkpt lat="45.75711" lon="5.81937">
        <ele>646.6</ele>
        <time>2021-08-22T12:26:02Z</time>
      </trkpt>
      <trkpt lat="45.75708" lon="5.81937">
        <ele>646.7</ele>
        <time>2021-08-22T12:26:04Z</time>
      </trkpt>
      <trkpt lat="45.75705" lon="5.81935">
        <ele>646.8</ele>
        <time>2021-08-22T12:26:05Z</time>
      </trkpt>
      <trkpt lat="45.75702" lon="5.81934">
        <ele>646.9</ele>
        <time>2021-08-22T12:26:07Z</time>
      </trkpt>
      <trkpt lat="45.75701" lon="5.81933">
        <ele>647</ele>
        <time>2021-08-22T12:26:08Z</time>
      </trkpt>
      <trkpt lat="45.757" lon="5.81931">
        <ele>647</ele>
        <time>2021-08-22T12:26:09Z</time>
      </trkpt>
      <trkpt lat="45.757" lon="5.81927">
        <ele>647.1</ele>
        <time>2021-08-22T12:26:11Z</time>
      </trkpt>
      <trkpt lat="45.757" lon="5.81927">
        <ele>647.1</ele>
        <time>2021-08-22T12:26:12Z</time>
      </trkpt>
      <trkpt lat="45.757" lon="5.81926">
        <ele>647.1</ele>
        <time>2021-08-22T12:26:14Z</time>
      </trkpt>
      <trkpt lat="45.757" lon="5.81926">
        <ele>647.1</ele>
        <time>2021-08-22T12:26:15Z</time>
      </trkpt>
      <trkpt lat="45.757" lon="5.81926">
        <ele>647.1</ele>
        <time>2021-08-22T12:26:16Z</time>
      </trkpt>
      <trkpt lat="45.75699" lon="5.81927">
        <ele>647.1</ele>
        <time>2021-08-22T12:26:18Z</time>
      </trkpt>
      <trkpt lat="45.75712" lon="5.82048">
        <ele>652.3</ele>
        <time>2021-08-22T12:29:58Z</time>
      </trkpt>
      <trkpt lat="45.75713" lon="5.82048">
        <ele>652.5</ele>
        <time>2021-08-22T12:29:59Z</time>
      </trkpt>
      <trkpt lat="45.75715" lon="5.82047">
        <ele>652.9</ele>
        <time>2021-08-22T12:30:01Z</time>
      </trkpt>
      <trkpt lat="45.75716" lon="5.82047">
        <ele>653</ele>
        <time>2021-08-22T12:30:03Z</time>
      </trkpt>
      <trkpt lat="45.75717" lon="5.82048">
        <ele>653.1</ele>
        <time>2021-08-22T12:30:04Z</time>
      </trkpt>
      <trkpt lat="45.75718" lon="5.82048">
        <ele>653.3</ele>
        <time>2021-08-22T12:30:05Z</time>
      </trkpt>
      <trkpt lat="45.75719" lon="5.82048">
        <ele>653.5</ele>
        <time>2021-08-22T12:30:07Z</time>
      </trkpt>
      <trkpt lat="45.7572" lon="5.82048">
        <ele>653.6</ele>
        <time>2021-08-22T12:30:08Z</time>
      </trkpt>
      <trkpt lat="45.7572" lon="5.82048">
        <ele>653.6</ele>
        <time>2021-08-22T12:30:09Z</time>
      </trkpt>
      <trkpt lat="45.7572" lon="5.82048">
        <ele>653.7</ele>
        <time>2021-08-22T12:30:10Z</time>
      </trkpt>
      <trkpt lat="45.75721" lon="5.82048">
        <ele>653.8</ele>
        <time>2021-08-22T12:30:12Z</time>
      </trkpt>
      <trkpt lat="45.75721" lon="5.82049">
        <ele>653.9</ele>
        <time>2021-08-22T12:30:13Z</time>
      </trkpt>
      <trkpt lat="45.75721" lon="5.82048">
        <ele>654</ele>
        <time>2021-08-22T12:30:14Z</time>
      </trkpt>
      <trkpt lat="45.7572" lon="5.82046">
        <ele>654.2</ele>
        <time>2021-08-22T12:30:15Z</time>
      </trkpt>
      <trkpt lat="45.7572" lon="5.82045">
        <ele>654.4</ele>
        <time>2021-08-22T12:30:17Z</time>
      </trkpt>
      <trkpt lat="45.75719" lon="5.82044">
        <ele>654.5</ele>
        <time>2021-08-22T12:30:18Z</time>
      </trkpt>
      <trkpt lat="45.75715" lon="5.82041">
        <ele>655.4</ele>
        <time>2021-08-22T12:30:20Z</time>
      </trkpt>
      <trkpt lat="45.75712" lon="5.8204">
        <ele>656</ele>
        <time>2021-08-22T12:30:21Z</time>
      </trkpt>
      <trkpt lat="45.75709" lon="5.82038">
        <ele>656.5</ele>
        <time>2021-08-22T12:30:23Z</time>
      </trkpt>
      <trkpt lat="45.75706" lon="5.82036">
        <ele>657.1</ele>
        <time>2021-08-22T12:30:24Z</time>
      </trkpt>
      <trkpt lat="45.75703" lon="5.82035">
        <ele>657.6</ele>
        <time>2021-08-22T12:30:25Z</time>
      </trkpt>
      <trkpt lat="45.757" lon="5.82033">
        <ele>658.2</ele>
        <time>2021-08-22T12:30:27Z</time>
      </trkpt>
      <trkpt lat="45.75697" lon="5.82031">
        <ele>658.7</ele>
        <time>2021-08-22T12:30:28Z</time>
      </trkpt>
      <trkpt lat="45.75694" lon="5.82028">
        <ele>659.2</ele>
        <time>2021-08-22T12:30:29Z</time>
      </trkpt>
      <trkpt lat="45.75694" lon="5.82028">
        <ele>659.4</ele>
        <time>2021-08-22T12:30:30Z</time>
      </trkpt>
      <trkpt lat="45.75691" lon="5.82026">
        <ele>659.9</ele>
        <time>2021-08-22T12:30:31Z</time>
      </trkpt>
      <trkpt lat="45.75688" lon="5.82025">
        <ele>660.4</ele>
        <time>2021-08-22T12:30:33Z</time>
      </trkpt>
      <trkpt lat="45.75686" lon="5.82023">
        <ele>660.8</ele>
        <time>2021-08-22T12:30:34Z</time>
      </trkpt>
      <trkpt lat="45.75684" lon="5.82021">
        <ele>661.2</ele>
        <time>2021-08-22T12:30:36Z</time>
      </trkpt>
      <trkpt lat="45.75683" lon="5.8202">
        <ele>661.4</ele>
        <time>2021-08-22T12:30:37Z</time>
      </trkpt>
      <trkpt lat="45.75682" lon="5.82019">
        <ele>661.6</ele>
        <time>2021-08-22T12:30:38Z</time>
      </trkpt>
      <trkpt lat="45.75682" lon="5.82019">
        <ele>661.7</ele>
        <time>2021-08-22T12:30:39Z</time>
      </trkpt>
      <trkpt lat="45.75681" lon="5.82018">
        <ele>661.9</ele>
        <time>2021-08-22T12:30:41Z</time>
      </trkpt>
      <trkpt lat="45.7568" lon="5.82017">
        <ele>662</ele>
        <time>2021-08-22T12:30:42Z</time>
      </trkpt>
      <trkpt lat="45.7568" lon="5.82017">
        <ele>662.1</ele>
        <time>2021-08-22T12:30:44Z</time>
      </trkpt>
      <trkpt lat="45.7568" lon="5.82016">
        <ele>662.1</ele>
        <time>2021-08-22T12:30:45Z</time>
      </trkpt>
      <trkpt lat="45.75679" lon="5.82016">
        <ele>662.3</ele>
        <time>2021-08-22T12:30:47Z</time>
      </trkpt>
      <trkpt lat="45.7566" lon="5.82012">
        <ele>665.8</ele>
        <time>2021-08-22T12:31:01Z</time>
      </trkpt>
      <trkpt lat="45.75658" lon="5.82013">
        <ele>666.2</ele>
        <time>2021-08-22T12:31:02Z</time>
      </trkpt>
      <trkpt lat="45.75657" lon="5.82013">
        <ele>666.4</ele>
        <time>2021-08-22T12:31:04Z</time>
      </trkpt>
      <trkpt lat="45.75656" lon="5.82013">
        <ele>666.5</ele>
        <time>2021-08-22T12:31:06Z</time>
      </trkpt>
      <trkpt lat="45.75655" lon="5.82013">
        <ele>666.7</ele>
        <time>2021-08-22T12:31:07Z</time>
      </trkpt>
      <trkpt lat="45.75654" lon="5.82013">
        <ele>666.8</ele>
        <time>2021-08-22T12:31:09Z</time>
      </trkpt>
      <trkpt lat="45.75654" lon="5.82014">
        <ele>666.9</ele>
        <time>2021-08-22T12:31:10Z</time>
      </trkpt>
      <trkpt lat="45.75654" lon="5.82014">
        <ele>667</ele>
        <time>2021-08-22T12:31:12Z</time>
      </trkpt>
      <trkpt lat="45.75653" lon="5.82014">
        <ele>667</ele>
        <time>2021-08-22T12:31:14Z</time>
      </trkpt>
      <trkpt lat="45.75653" lon="5.82014">
        <ele>667.1</ele>
        <time>2021-08-22T12:31:16Z</time>
      </trkpt>
      <trkpt lat="45.75653" lon="5.82014">
        <ele>667.1</ele>
        <time>2021-08-22T12:31:17Z</time>
      </trkpt>
      <trkpt lat="45.75653" lon="5.82014">
        <ele>667.1</ele>
        <time>2021-08-22T12:31:19Z</time>
      </trkpt>
      <trkpt lat="45.75653" lon="5.82014">
        <ele>667.1</ele>
        <time>2021-08-22T12:31:21Z</time>
      </trkpt>
      <trkpt lat="45.75652" lon="5.82015">
        <ele>667.3</ele>
        <time>2021-08-22T12:31:22Z</time>
      </trkpt>
      <trkpt lat="45.75651" lon="5.82016">
        <ele>667.6</ele>
        <time>2021-08-22T12:31:24Z</time>
      </trkpt>
      <trkpt lat="45.7565" lon="5.82018">
        <ele>667.9</ele>
        <time>2021-08-22T12:31:26Z</time>
      </trkpt>
      <trkpt lat="45.75649" lon="5.82019">
        <ele>668.2</ele>
        <time>2021-08-22T12:31:28Z</time>
      </trkpt>
      <trkpt lat="45.75648" lon="5.82019">
        <ele>668.3</ele>
        <time>2021-08-22T12:31:30Z</time>
      </trkpt>
      <trkpt lat="45.75648" lon="5.8202">
        <ele>668.4</ele>
        <time>2021-08-22T12:31:32Z</time>
      </trkpt>
      <trkpt lat="45.75647" lon="5.8202">
        <ele>668.5</ele>
        <time>2021-08-22T12:31:34Z</time>
      </trkpt>
      <trkpt lat="45.75646" lon="5.8202">
        <ele>668.7</ele>
        <time>2021-08-22T12:31:36Z</time>
      </trkpt>
      <trkpt lat="45.75646" lon="5.8202">
        <ele>668.8</ele>
        <time>2021-08-22T12:31:38Z</time>
      </trkpt>
      <trkpt lat="45.75646" lon="5.8202">
        <ele>668.8</ele>
        <time>2021-08-22T12:31:39Z</time>
      </trkpt>
      <trkpt lat="45.75645" lon="5.8202">
        <ele>668.9</ele>
        <time>2021-08-22T12:31:41Z</time>
      </trkpt>
      <trkpt lat="45.75645" lon="5.8202">
        <ele>668.9</ele>
        <time>2021-08-22T12:31:42Z</time>
      </trkpt>
      <trkpt lat="45.75645" lon="5.8202">
        <ele>668.9</ele>
        <time>2021-08-22T12:31:44Z</time>
      </trkpt>
      <trkpt lat="45.75645" lon="5.8202">
        <ele>669.1</ele>
        <time>2021-08-22T12:31:46Z</time>
      </trkpt>
      <trkpt lat="45.75644" lon="5.82019">
        <ele>669.3</ele>
        <time>2021-08-22T12:31:47Z</time>
      </trkpt>
      <trkpt lat="45.75644" lon="5.82017">
        <ele>669.5</ele>
        <time>2021-08-22T12:31:48Z</time>
      </trkpt>
      <trkpt lat="45.75642" lon="5.82015">
        <ele>669.9</ele>
        <time>2021-08-22T12:31:50Z</time>
      </trkpt>
      <trkpt lat="45.75641" lon="5.82014">
        <ele>670.2</ele>
        <time>2021-08-22T12:31:52Z</time>
      </trkpt>
      <trkpt lat="45.75641" lon="5.82013">
        <ele>670.3</ele>
        <time>2021-08-22T12:31:53Z</time>
      </trkpt>
      <trkpt lat="45.7564" lon="5.82013">
        <ele>670.5</ele>
        <time>2021-08-22T12:31:55Z</time>
      </trkpt>
      <trkpt lat="45.7564" lon="5.82015">
        <ele>670.8</ele>
        <time>2021-08-22T12:31:57Z</time>
      </trkpt>
      <trkpt lat="45.7564" lon="5.82018">
        <ele>671.3</ele>
        <time>2021-08-22T12:31:58Z</time>
      </trkpt>
      <trkpt lat="45.7564" lon="5.8202">
        <ele>671.6</ele>
        <time>2021-08-22T12:32:00Z</time>
      </trkpt>
      <trkpt lat="45.75639" lon="5.82021">
        <ele>671.9</ele>
        <time>2021-08-22T12:32:01Z</time>
      </trkpt>
      <trkpt lat="45.75639" lon="5.82022">
        <ele>672</ele>
        <time>2021-08-22T12:32:02Z</time>
      </trkpt>
      <trkpt lat="45.75639" lon="5.82024">
        <ele>672.3</ele>
        <time>2021-08-22T12:32:04Z</time>
      </trkpt>
      <trkpt lat="45.75638" lon="5.82025">
        <ele>672.6</ele>
        <time>2021-08-22T12:32:06Z</time>
      </trkpt>
      <trkpt lat="45.75637" lon="5.82025">
        <ele>672.8</ele>
        <time>2021-08-22T12:32:07Z</time>
      </trkpt>
      <trkpt lat="45.75636" lon="5.82026">
        <ele>673</ele>
        <time>2021-08-22T12:32:08Z</time>
      </trkpt>
      <trkpt lat="45.75635" lon="5.82026">
        <ele>673.2</ele>
        <time>2021-08-22T12:32:10Z</time>
      </trkpt>
      <trkpt lat="45.75634" lon="5.82026">
        <ele>673.5</ele>
        <time>2021-08-22T12:32:12Z</time>
      </trkpt>
      <trkpt lat="45.75634" lon="5.82026">
        <ele>673.7</ele>
        <time>2021-08-22T12:32:14Z</time>
      </trkpt>
      <trkpt lat="45.75633" lon="5.82027">
        <ele>673.8</ele>
        <time>2021-08-22T12:32:16Z</time>
      </trkpt>
      <trkpt lat="45.75633" lon="5.82027">
        <ele>673.9</ele>
        <time>2021-08-22T12:32:17Z</time>
      </trkpt>
      <trkpt lat="45.75632" lon="5.82027">
        <ele>674</ele>
        <time>2021-08-22T12:32:18Z</time>
      </trkpt>
      <trkpt lat="45.75632" lon="5.82027">
        <ele>674</ele>
        <time>2021-08-22T12:32:20Z</time>
      </trkpt>
      <trkpt lat="45.75632" lon="5.82027">
        <ele>674.1</ele>
        <time>2021-08-22T12:32:21Z</time>
      </trkpt>
      <trkpt lat="45.75632" lon="5.82027">
        <ele>674.1</ele>
        <time>2021-08-22T12:32:23Z</time>
      </trkpt>
      <trkpt lat="45.75632" lon="5.82026">
        <ele>674.2</ele>
        <time>2021-08-22T12:32:24Z</time>
      </trkpt>
      <trkpt lat="45.75632" lon="5.82026">
        <ele>674.2</ele>
        <time>2021-08-22T12:32:26Z</time>
      </trkpt>
      <trkpt lat="45.75632" lon="5.82026">
        <ele>674.2</ele>
        <time>2021-08-22T12:32:28Z</time>
      </trkpt>
      <trkpt lat="45.7563" lon="5.8203">
        <ele>675.1</ele>
        <time>2021-08-22T12:32:31Z</time>
      </trkpt>
      <trkpt lat="45.75629" lon="5.82032">
        <ele>675.4</ele>
        <time>2021-08-22T12:32:32Z</time>
      </trkpt>
      <trkpt lat="45.75628" lon="5.82033">
        <ele>675.7</ele>
        <time>2021-08-22T12:32:34Z</time>
      </trkpt>
      <trkpt lat="45.75627" lon="5.82035">
        <ele>676</ele>
        <time>2021-08-22T12:32:36Z</time>
      </trkpt>
      <trkpt lat="45.75627" lon="5.82036">
        <ele>676.3</ele>
        <time>2021-08-22T12:32:38Z</time>
      </trkpt>
      <trkpt lat="45.75627" lon="5.82036">
        <ele>676.4</ele>
        <time>2021-08-22T12:32:39Z</time>
      </trkpt>
      <trkpt lat="45.75626" lon="5.82037">
        <ele>676.5</ele>
        <time>2021-08-22T12:32:41Z</time>
      </trkpt>
      <trkpt lat="45.75626" lon="5.82038">
        <ele>676.7</ele>
        <time>2021-08-22T12:32:42Z</time>
      </trkpt>
      <trkpt lat="45.75626" lon="5.82038">
        <ele>676.7</ele>
        <time>2021-08-22T12:32:43Z</time>
      </trkpt>
      <trkpt lat="45.75625" lon="5.82038">
        <ele>676.9</ele>
        <time>2021-08-22T12:32:45Z</time>
      </trkpt>
      <trkpt lat="45.75624" lon="5.82037">
        <ele>677.1</ele>
        <time>2021-08-22T12:32:46Z</time>
      </trkpt>
      <trkpt lat="45.75623" lon="5.82037">
        <ele>677.4</ele>
        <time>2021-08-22T12:32:48Z</time>
      </trkpt>
      <trkpt lat="45.75622" lon="5.82036">
        <ele>677.6</ele>
        <time>2021-08-22T12:32:49Z</time>
      </trkpt>
      <trkpt lat="45.75621" lon="5.82036">
        <ele>677.8</ele>
        <time>2021-08-22T12:32:50Z</time>
      </trkpt>
      <trkpt lat="45.75619" lon="5.82035">
        <ele>678.3</ele>
        <time>2021-08-22T12:32:52Z</time>
      </trkpt>
      <trkpt lat="45.75617" lon="5.82034">
        <ele>679</ele>
        <time>2021-08-22T12:32:54Z</time>
      </trkpt>
      <trkpt lat="45.75613" lon="5.82033">
        <ele>679.9</ele>
        <time>2021-08-22T12:32:55Z</time>
      </trkpt>
      <trkpt lat="45.75612" lon="5.82033">
        <ele>680.2</ele>
        <time>2021-08-22T12:32:56Z</time>
      </trkpt>
      <trkpt lat="45.75612" lon="5.82033">
        <ele>680.4</ele>
        <time>2021-08-22T12:32:58Z</time>
      </trkpt>
      <trkpt lat="45.75612" lon="5.82032">
        <ele>680.4</ele>
        <time>2021-08-22T12:32:59Z</time>
      </trkpt>
      <trkpt lat="45.75611" lon="5.82032">
        <ele>680.5</ele>
        <time>2021-08-22T12:33:02Z</time>
      </trkpt>
      <trkpt lat="45.75611" lon="5.82032">
        <ele>680.5</ele>
        <time>2021-08-22T12:33:04Z</time>
      </trkpt>
      <trkpt lat="45.75611" lon="5.82033">
        <ele>680.5</ele>
        <time>2021-08-22T12:33:06Z</time>
      </trkpt>
      <trkpt lat="45.75611" lon="5.82033">
        <ele>680.6</ele>
        <time>2021-08-22T12:33:08Z</time>
      </trkpt>
      <trkpt lat="45.75611" lon="5.82033">
        <ele>680.6</ele>
        <time>2021-08-22T12:33:09Z</time>
      </trkpt>
      <trkpt lat="45.7561" lon="5.82032">
        <ele>680.9</ele>
        <time>2021-08-22T12:33:10Z</time>
      </trkpt>
      <trkpt lat="45.7561" lon="5.82031">
        <ele>681.1</ele>
        <time>2021-08-22T12:33:11Z</time>
      </trkpt>
      <trkpt lat="45.75609" lon="5.82029">
        <ele>681.5</ele>
        <time>2021-08-22T12:33:12Z</time>
      </trkpt>
      <trkpt lat="45.75608" lon="5.82027">
        <ele>682</ele>
        <time>2021-08-22T12:33:14Z</time>
      </trkpt>
      <trkpt lat="45.75607" lon="5.82025">
        <ele>682.3</ele>
        <time>2021-08-22T12:33:16Z</time>
      </trkpt>
      <trkpt lat="45.75607" lon="5.82024">
        <ele>682.5</ele>
        <time>2021-08-22T12:33:17Z</time>
      </trkpt>
      <trkpt lat="45.75606" lon="5.82023">
        <ele>682.7</ele>
        <time>2021-08-22T12:33:19Z</time>
      </trkpt>
      <trkpt lat="45.75606" lon="5.82022">
        <ele>682.9</ele>
        <time>2021-08-22T12:33:20Z</time>
      </trkpt>
      <trkpt lat="45.75606" lon="5.82022">
        <ele>683</ele>
        <time>2021-08-22T12:33:22Z</time>
      </trkpt>
      <trkpt lat="45.75606" lon="5.82021">
        <ele>683.1</ele>
        <time>2021-08-22T12:33:24Z</time>
      </trkpt>
      <trkpt lat="45.75606" lon="5.82021">
        <ele>683.2</ele>
        <time>2021-08-22T12:33:25Z</time>
      </trkpt>
      <trkpt lat="45.75606" lon="5.82021">
        <ele>683.2</ele>
        <time>2021-08-22T12:33:26Z</time>
      </trkpt>
      <trkpt lat="45.75605" lon="5.82021">
        <ele>683.2</ele>
        <time>2021-08-22T12:33:27Z</time>
      </trkpt>
      <trkpt lat="45.75605" lon="5.8202">
        <ele>683.4</ele>
        <time>2021-08-22T12:33:28Z</time>
      </trkpt>
      <trkpt lat="45.75604" lon="5.82018">
        <ele>683.9</ele>
        <time>2021-08-22T12:33:30Z</time>
      </trkpt>
      <trkpt lat="45.75603" lon="5.82017">
        <ele>684.1</ele>
        <time>2021-08-22T12:33:31Z</time>
      </trkpt>
      <trkpt lat="45.75601" lon="5.82015">
        <ele>684.7</ele>
        <time>2021-08-22T12:33:33Z</time>
      </trkpt>
      <trkpt lat="45.756" lon="5.82014">
        <ele>685</ele>
        <time>2021-08-22T12:33:35Z</time>
      </trkpt>
      <trkpt lat="45.756" lon="5.82014">
        <ele>685.1</ele>
        <time>2021-08-22T12:33:36Z</time>
      </trkpt>
      <trkpt lat="45.756" lon="5.82014">
        <ele>685.3</ele>
        <time>2021-08-22T12:33:37Z</time>
      </trkpt>
      <trkpt lat="45.75599" lon="5.82013">
        <ele>685.4</ele>
        <time>2021-08-22T12:33:38Z</time>
      </trkpt>
      <trkpt lat="45.75599" lon="5.82013">
        <ele>685.5</ele>
        <time>2021-08-22T12:33:39Z</time>
      </trkpt>
      <trkpt lat="45.75598" lon="5.82013">
        <ele>685.6</ele>
        <time>2021-08-22T12:33:41Z</time>
      </trkpt>
      <trkpt lat="45.75598" lon="5.82013">
        <ele>685.7</ele>
        <time>2021-08-22T12:33:42Z</time>
      </trkpt>
      <trkpt lat="45.75598" lon="5.82012">
        <ele>685.7</ele>
        <time>2021-08-22T12:33:43Z</time>
      </trkpt>
      <trkpt lat="45.75598" lon="5.82012">
        <ele>685.8</ele>
        <time>2021-08-22T12:33:45Z</time>
      </trkpt>
      <trkpt lat="45.75598" lon="5.82012">
        <ele>685.8</ele>
        <time>2021-08-22T12:33:46Z</time>
      </trkpt>
      <trkpt lat="45.75597" lon="5.82012">
        <ele>686</ele>
        <time>2021-08-22T12:33:48Z</time>
      </trkpt>
      <trkpt lat="45.75596" lon="5.8201">
        <ele>686.5</ele>
        <time>2021-08-22T12:33:49Z</time>
      </trkpt>
      <trkpt lat="45.75593" lon="5.82007">
        <ele>687.4</ele>
        <time>2021-08-22T12:33:52Z</time>
      </trkpt>
      <trkpt lat="45.75592" lon="5.82007">
        <ele>687.6</ele>
        <time>2021-08-22T12:33:53Z</time>
      </trkpt>
      <trkpt lat="45.75591" lon="5.82007">
        <ele>687.8</ele>
        <time>2021-08-22T12:33:55Z</time>
      </trkpt>
      <trkpt lat="45.7559" lon="5.82007">
        <ele>688.1</ele>
        <time>2021-08-22T12:33:56Z</time>
      </trkpt>
      <trkpt lat="45.75588" lon="5.82008">
        <ele>688.6</ele>
        <time>2021-08-22T12:33:58Z</time>
      </trkpt>
      <trkpt lat="45.75586" lon="5.82007">
        <ele>689.1</ele>
        <time>2021-08-22T12:34:00Z</time>
      </trkpt>
      <trkpt lat="45.75585" lon="5.82007">
        <ele>689.3</ele>
        <time>2021-08-22T12:34:01Z</time>
      </trkpt>
      <trkpt lat="45.75585" lon="5.82007">
        <ele>689.4</ele>
        <time>2021-08-22T12:34:02Z</time>
      </trkpt>
      <trkpt lat="45.75584" lon="5.82007">
        <ele>689.6</ele>
        <time>2021-08-22T12:34:04Z</time>
      </trkpt>
      <trkpt lat="45.75583" lon="5.82006">
        <ele>689.9</ele>
        <time>2021-08-22T12:34:06Z</time>
      </trkpt>
      <trkpt lat="45.75582" lon="5.82006">
        <ele>690.2</ele>
        <time>2021-08-22T12:34:07Z</time>
      </trkpt>
      <trkpt lat="45.75581" lon="5.82006">
        <ele>690.4</ele>
        <time>2021-08-22T12:34:08Z</time>
      </trkpt>
      <trkpt lat="45.75579" lon="5.82004">
        <ele>691</ele>
        <time>2021-08-22T12:34:10Z</time>
      </trkpt>
      <trkpt lat="45.75577" lon="5.82003">
        <ele>691.7</ele>
        <time>2021-08-22T12:34:12Z</time>
      </trkpt>
      <trkpt lat="45.75575" lon="5.82001">
        <ele>692.2</ele>
        <time>2021-08-22T12:34:13Z</time>
      </trkpt>
      <trkpt lat="45.75574" lon="5.82001">
        <ele>692.4</ele>
        <time>2021-08-22T12:34:14Z</time>
      </trkpt>
      <trkpt lat="45.75572" lon="5.81998">
        <ele>693.2</ele>
        <time>2021-08-22T12:34:17Z</time>
      </trkpt>
      <trkpt lat="45.75571" lon="5.81997">
        <ele>693.4</ele>
        <time>2021-08-22T12:34:18Z</time>
      </trkpt>
      <trkpt lat="45.7557" lon="5.81997">
        <ele>693.6</ele>
        <time>2021-08-22T12:34:20Z</time>
      </trkpt>
      <trkpt lat="45.7557" lon="5.81997">
        <ele>693.7</ele>
        <time>2021-08-22T12:34:21Z</time>
      </trkpt>
      <trkpt lat="45.7557" lon="5.81997">
        <ele>693.7</ele>
        <time>2021-08-22T12:34:22Z</time>
      </trkpt>
      <trkpt lat="45.7557" lon="5.81996">
        <ele>693.8</ele>
        <time>2021-08-22T12:34:23Z</time>
      </trkpt>
      <trkpt lat="45.75569" lon="5.81996">
        <ele>693.8</ele>
        <time>2021-08-22T12:34:24Z</time>
      </trkpt>
      <trkpt lat="45.75569" lon="5.81996">
        <ele>693.8</ele>
        <time>2021-08-22T12:34:26Z</time>
      </trkpt>
      <trkpt lat="45.75569" lon="5.81996">
        <ele>693.8</ele>
        <time>2021-08-22T12:34:28Z</time>
      </trkpt>
      <trkpt lat="45.75569" lon="5.81997">
        <ele>693.9</ele>
        <time>2021-08-22T12:34:29Z</time>
      </trkpt>
      <trkpt lat="45.75569" lon="5.81997">
        <ele>693.9</ele>
        <time>2021-08-22T12:34:30Z</time>
      </trkpt>
      <trkpt lat="45.75569" lon="5.81997">
        <ele>693.9</ele>
        <time>2021-08-22T12:34:32Z</time>
      </trkpt>
      <trkpt lat="45.75569" lon="5.81997">
        <ele>693.9</ele>
        <time>2021-08-22T12:34:33Z</time>
      </trkpt>
      <trkpt lat="45.75569" lon="5.81997">
        <ele>693.9</ele>
        <time>2021-08-22T12:34:35Z</time>
      </trkpt>
      <trkpt lat="45.75569" lon="5.81997">
        <ele>693.9</ele>
        <time>2021-08-22T12:34:36Z</time>
      </trkpt>
      <trkpt lat="45.75569" lon="5.81997">
        <ele>693.9</ele>
        <time>2021-08-22T12:34:38Z</time>
      </trkpt>
      <trkpt lat="45.75569" lon="5.81996">
        <ele>694</ele>
        <time>2021-08-22T12:34:40Z</time>
      </trkpt>
      <trkpt lat="45.75569" lon="5.81996">
        <ele>694</ele>
        <time>2021-08-22T12:34:42Z</time>
      </trkpt>
      <trkpt lat="45.7557" lon="5.81996">
        <ele>694.3</ele>
        <time>2021-08-22T12:34:43Z</time>
      </trkpt>
      <trkpt lat="45.7557" lon="5.81996">
        <ele>694.3</ele>
        <time>2021-08-22T12:34:45Z</time>
      </trkpt>
      <trkpt lat="45.7557" lon="5.81996">
        <ele>694.4</ele>
        <time>2021-08-22T12:34:46Z</time>
      </trkpt>
      <trkpt lat="45.7557" lon="5.81996">
        <ele>694.4</ele>
        <time>2021-08-22T12:34:47Z</time>
      </trkpt>
      <trkpt lat="45.7557" lon="5.81997">
        <ele>694.5</ele>
        <time>2021-08-22T12:34:48Z</time>
      </trkpt>
      <trkpt lat="45.7557" lon="5.81997">
        <ele>694.6</ele>
        <time>2021-08-22T12:34:50Z</time>
      </trkpt>
      <trkpt lat="45.7557" lon="5.81998">
        <ele>694.7</ele>
        <time>2021-08-22T12:34:51Z</time>
      </trkpt>
      <trkpt lat="45.7557" lon="5.81998">
        <ele>694.7</ele>
        <time>2021-08-22T12:34:52Z</time>
      </trkpt>
      <trkpt lat="45.7557" lon="5.81998">
        <ele>694.8</ele>
        <time>2021-08-22T12:34:53Z</time>
      </trkpt>
      <trkpt lat="45.7557" lon="5.81999">
        <ele>694.8</ele>
        <time>2021-08-22T12:34:55Z</time>
      </trkpt>
      <trkpt lat="45.7557" lon="5.81999">
        <ele>694.9</ele>
        <time>2021-08-22T12:34:56Z</time>
      </trkpt>
      <trkpt lat="45.7557" lon="5.81999">
        <ele>694.9</ele>
        <time>2021-08-22T12:34:58Z</time>
      </trkpt>
      <trkpt lat="45.75569" lon="5.81999">
        <ele>695</ele>
        <time>2021-08-22T12:35:00Z</time>
      </trkpt>
      <trkpt lat="45.75568" lon="5.81999">
        <ele>695.2</ele>
        <time>2021-08-22T12:35:01Z</time>
      </trkpt>
      <trkpt lat="45.75568" lon="5.81999">
        <ele>695.4</ele>
        <time>2021-08-22T12:35:02Z</time>
      </trkpt>
      <trkpt lat="45.75567" lon="5.81999">
        <ele>695.6</ele>
        <time>2021-08-22T12:35:04Z</time>
      </trkpt>
      <trkpt lat="45.75566" lon="5.81999">
        <ele>695.8</ele>
        <time>2021-08-22T12:35:05Z</time>
      </trkpt>
      <trkpt lat="45.75565" lon="5.81999">
        <ele>696</ele>
        <time>2021-08-22T12:35:06Z</time>
      </trkpt>
      <trkpt lat="45.75564" lon="5.81999">
        <ele>696.2</ele>
        <time>2021-08-22T12:35:08Z</time>
      </trkpt>
      <trkpt lat="45.75563" lon="5.81999">
        <ele>696.4</ele>
        <time>2021-08-22T12:35:09Z</time>
      </trkpt>
      <trkpt lat="45.75563" lon="5.81998">
        <ele>696.6</ele>
        <time>2021-08-22T12:35:10Z</time>
      </trkpt>
      <trkpt lat="45.75561" lon="5.81997">
        <ele>696.9</ele>
        <time>2021-08-22T12:35:12Z</time>
      </trkpt>
      <trkpt lat="45.75561" lon="5.81996">
        <ele>697.1</ele>
        <time>2021-08-22T12:35:13Z</time>
      </trkpt>
      <trkpt lat="45.7556" lon="5.81996">
        <ele>697.2</ele>
        <time>2021-08-22T12:35:14Z</time>
      </trkpt>
      <trkpt lat="45.7556" lon="5.81995">
        <ele>697.3</ele>
        <time>2021-08-22T12:35:16Z</time>
      </trkpt>
      <trkpt lat="45.75559" lon="5.81994">
        <ele>697.4</ele>
        <time>2021-08-22T12:35:17Z</time>
      </trkpt>
      <trkpt lat="45.75559" lon="5.81994">
        <ele>697.5</ele>
        <time>2021-08-22T12:35:18Z</time>
      </trkpt>
      <trkpt lat="45.75559" lon="5.81994">
        <ele>697.5</ele>
        <time>2021-08-22T12:35:19Z</time>
      </trkpt>
      <trkpt lat="45.75559" lon="5.81994">
        <ele>697.5</ele>
        <time>2021-08-22T12:35:20Z</time>
      </trkpt>
      <trkpt lat="45.75559" lon="5.81994">
        <ele>697.6</ele>
        <time>2021-08-22T12:35:21Z</time>
      </trkpt>
      <trkpt lat="45.75557" lon="5.81995">
        <ele>697.9</ele>
        <time>2021-08-22T12:35:23Z</time>
      </trkpt>
      <trkpt lat="45.75556" lon="5.81995">
        <ele>698</ele>
        <time>2021-08-22T12:35:25Z</time>
      </trkpt>
      <trkpt lat="45.75555" lon="5.81996">
        <ele>698.2</ele>
        <time>2021-08-22T12:35:26Z</time>
      </trkpt>
      <trkpt lat="45.75554" lon="5.81997">
        <ele>698.4</ele>
        <time>2021-08-22T12:35:28Z</time>
      </trkpt>
      <trkpt lat="45.75554" lon="5.81997">
        <ele>698.5</ele>
        <time>2021-08-22T12:35:29Z</time>
      </trkpt>
      <trkpt lat="45.75553" lon="5.81998">
        <ele>698.7</ele>
        <time>2021-08-22T12:35:31Z</time>
      </trkpt>
      <trkpt lat="45.75552" lon="5.81998">
        <ele>698.8</ele>
        <time>2021-08-22T12:35:32Z</time>
      </trkpt>
      <trkpt lat="45.75552" lon="5.81999">
        <ele>698.9</ele>
        <time>2021-08-22T12:35:34Z</time>
      </trkpt>
      <trkpt lat="45.7555" lon="5.82">
        <ele>699.2</ele>
        <time>2021-08-22T12:35:36Z</time>
      </trkpt>
      <trkpt lat="45.75548" lon="5.82001">
        <ele>699.6</ele>
        <time>2021-08-22T12:35:38Z</time>
      </trkpt>
      <trkpt lat="45.75547" lon="5.82002">
        <ele>699.7</ele>
        <time>2021-08-22T12:35:39Z</time>
      </trkpt>
      <trkpt lat="45.75546" lon="5.82002">
        <ele>699.9</ele>
        <time>2021-08-22T12:35:41Z</time>
      </trkpt>
      <trkpt lat="45.75547" lon="5.82004">
        <ele>700.1</ele>
        <time>2021-08-22T12:35:42Z</time>
      </trkpt>
      <trkpt lat="45.75547" lon="5.82006">
        <ele>700.3</ele>
        <time>2021-08-22T12:35:43Z</time>
      </trkpt>
      <trkpt lat="45.75547" lon="5.82007">
        <ele>700.4</ele>
        <time>2021-08-22T12:35:44Z</time>
      </trkpt>
      <trkpt lat="45.75548" lon="5.8201">
        <ele>700.7</ele>
        <time>2021-08-22T12:35:46Z</time>
      </trkpt>
      <trkpt lat="45.75548" lon="5.82011">
        <ele>700.9</ele>
        <time>2021-08-22T12:35:47Z</time>
      </trkpt>
      <trkpt lat="45.75549" lon="5.82012">
        <ele>701</ele>
        <time>2021-08-22T12:35:49Z</time>
      </trkpt>
      <trkpt lat="45.75549" lon="5.82013">
        <ele>701.1</ele>
        <time>2021-08-22T12:35:50Z</time>
      </trkpt>
      <trkpt lat="45.75549" lon="5.82013">
        <ele>701.2</ele>
        <time>2021-08-22T12:35:52Z</time>
      </trkpt>
      <trkpt lat="45.75549" lon="5.82014">
        <ele>701.2</ele>
        <time>2021-08-22T12:35:53Z</time>
      </trkpt>
      <trkpt lat="45.75549" lon="5.82014">
        <ele>701.2</ele>
        <time>2021-08-22T12:35:54Z</time>
      </trkpt>
      <trkpt lat="45.75549" lon="5.82014">
        <ele>701.3</ele>
        <time>2021-08-22T12:35:56Z</time>
      </trkpt>
      <trkpt lat="45.75549" lon="5.82014">
        <ele>701.3</ele>
        <time>2021-08-22T12:35:57Z</time>
      </trkpt>
      <trkpt lat="45.75549" lon="5.82014">
        <ele>701.3</ele>
        <time>2021-08-22T12:35:59Z</time>
      </trkpt>
      <trkpt lat="45.75549" lon="5.82015">
        <ele>701.3</ele>
        <time>2021-08-22T12:36:00Z</time>
      </trkpt>
      <trkpt lat="45.75549" lon="5.82015">
        <ele>701.3</ele>
        <time>2021-08-22T12:36:01Z</time>
      </trkpt>
      <trkpt lat="45.75549" lon="5.82015">
        <ele>701.3</ele>
        <time>2021-08-22T12:36:02Z</time>
      </trkpt>
      <trkpt lat="45.75549" lon="5.82015">
        <ele>701.3</ele>
        <time>2021-08-22T12:36:04Z</time>
      </trkpt>
      <trkpt lat="45.75549" lon="5.82015">
        <ele>701.3</ele>
        <time>2021-08-22T12:36:05Z</time>
      </trkpt>
      <trkpt lat="45.75549" lon="5.82015">
        <ele>701.3</ele>
        <time>2021-08-22T12:36:07Z</time>
      </trkpt>
      <trkpt lat="45.75549" lon="5.82015">
        <ele>701.4</ele>
        <time>2021-08-22T12:36:08Z</time>
      </trkpt>
      <trkpt lat="45.75549" lon="5.82015">
        <ele>701.4</ele>
        <time>2021-08-22T12:36:10Z</time>
      </trkpt>
      <trkpt lat="45.7555" lon="5.82016">
        <ele>701.5</ele>
        <time>2021-08-22T12:36:11Z</time>
      </trkpt>
      <trkpt lat="45.7555" lon="5.82018">
        <ele>701.6</ele>
        <time>2021-08-22T12:36:12Z</time>
      </trkpt>
      <trkpt lat="45.75551" lon="5.8202">
        <ele>701.9</ele>
        <time>2021-08-22T12:36:14Z</time>
      </trkpt>
      <trkpt lat="45.75551" lon="5.82021">
        <ele>702</ele>
        <time>2021-08-22T12:36:15Z</time>
      </trkpt>
      <trkpt lat="45.75552" lon="5.82022">
        <ele>702</ele>
        <time>2021-08-22T12:36:16Z</time>
      </trkpt>
      <trkpt lat="45.75552" lon="5.82022">
        <ele>702.1</ele>
        <time>2021-08-22T12:36:17Z</time>
      </trkpt>
      <trkpt lat="45.75552" lon="5.82023">
        <ele>702.2</ele>
        <time>2021-08-22T12:36:19Z</time>
      </trkpt>
      <trkpt lat="45.75552" lon="5.82024">
        <ele>702.2</ele>
        <time>2021-08-22T12:36:20Z</time>
      </trkpt>
      <trkpt lat="45.75552" lon="5.82024">
        <ele>702.3</ele>
        <time>2021-08-22T12:36:22Z</time>
      </trkpt>
      <trkpt lat="45.75552" lon="5.82024">
        <ele>702.3</ele>
        <time>2021-08-22T12:36:23Z</time>
      </trkpt>
      <trkpt lat="45.75552" lon="5.82024">
        <ele>702.3</ele>
        <time>2021-08-22T12:36:24Z</time>
      </trkpt>
      <trkpt lat="45.75553" lon="5.82025">
        <ele>702.3</ele>
        <time>2021-08-22T12:36:26Z</time>
      </trkpt>
      <trkpt lat="45.75552" lon="5.82025">
        <ele>702.4</ele>
        <time>2021-08-22T12:36:27Z</time>
      </trkpt>
      <trkpt lat="45.75551" lon="5.82025">
        <ele>702.6</ele>
        <time>2021-08-22T12:36:28Z</time>
      </trkpt>
      <trkpt lat="45.75549" lon="5.82025">
        <ele>702.7</ele>
        <time>2021-08-22T12:36:29Z</time>
      </trkpt>
      <trkpt lat="45.75549" lon="5.82025">
        <ele>702.7</ele>
        <time>2021-08-22T12:36:30Z</time>
      </trkpt>
      <trkpt lat="45.75548" lon="5.82024">
        <ele>702.8</ele>
        <time>2021-08-22T12:36:32Z</time>
      </trkpt>
      <trkpt lat="45.75547" lon="5.82025">
        <ele>702.8</ele>
        <time>2021-08-22T12:36:33Z</time>
      </trkpt>
      <trkpt lat="45.75546" lon="5.82025">
        <ele>702.9</ele>
        <time>2021-08-22T12:36:34Z</time>
      </trkpt>
      <trkpt lat="45.75545" lon="5.82024">
        <ele>703.1</ele>
        <time>2021-08-22T12:36:36Z</time>
      </trkpt>
      <trkpt lat="45.75543" lon="5.82024">
        <ele>703.1</ele>
        <time>2021-08-22T12:36:38Z</time>
      </trkpt>
      <trkpt lat="45.75543" lon="5.82024">
        <ele>703.2</ele>
        <time>2021-08-22T12:36:39Z</time>
      </trkpt>
      <trkpt lat="45.75541" lon="5.82024">
        <ele>703.2</ele>
        <time>2021-08-22T12:36:40Z</time>
      </trkpt>
      <trkpt lat="45.75541" lon="5.82024">
        <ele>703.3</ele>
        <time>2021-08-22T12:36:41Z</time>
      </trkpt>
      <trkpt lat="45.7554" lon="5.82024">
        <ele>703.3</ele>
        <time>2021-08-22T12:36:42Z</time>
      </trkpt>
      <trkpt lat="45.75539" lon="5.82024">
        <ele>703.3</ele>
        <time>2021-08-22T12:36:44Z</time>
      </trkpt>
      <trkpt lat="45.75539" lon="5.82023">
        <ele>703.4</ele>
        <time>2021-08-22T12:36:45Z</time>
      </trkpt>
      <trkpt lat="45.75538" lon="5.82023">
        <ele>703.4</ele>
        <time>2021-08-22T12:36:46Z</time>
      </trkpt>
      <trkpt lat="45.75538" lon="5.82023">
        <ele>703.4</ele>
        <time>2021-08-22T12:36:47Z</time>
      </trkpt>
      <trkpt lat="45.75537" lon="5.82023">
        <ele>703.4</ele>
        <time>2021-08-22T12:36:49Z</time>
      </trkpt>
      <trkpt lat="45.75537" lon="5.82022">
        <ele>703.4</ele>
        <time>2021-08-22T12:36:50Z</time>
      </trkpt>
      <trkpt lat="45.75536" lon="5.82022">
        <ele>703.4</ele>
        <time>2021-08-22T12:36:51Z</time>
      </trkpt>
      <trkpt lat="45.75536" lon="5.82021">
        <ele>703.4</ele>
        <time>2021-08-22T12:36:53Z</time>
      </trkpt>
      <trkpt lat="45.75536" lon="5.82021">
        <ele>703.4</ele>
        <time>2021-08-22T12:36:55Z</time>
      </trkpt>
      <trkpt lat="45.75537" lon="5.8202">
        <ele>703.4</ele>
        <time>2021-08-22T12:36:56Z</time>
      </trkpt>
      <trkpt lat="45.75538" lon="5.82022">
        <ele>703.5</ele>
        <time>2021-08-22T12:36:58Z</time>
      </trkpt>
      <trkpt lat="45.75539" lon="5.82024">
        <ele>703.4</ele>
        <time>2021-08-22T12:36:59Z</time>
      </trkpt>
      <trkpt lat="45.7554" lon="5.82024">
        <ele>703.4</ele>
        <time>2021-08-22T12:37:00Z</time>
      </trkpt>
      <trkpt lat="45.75539" lon="5.82024">
        <ele>703.4</ele>
        <time>2021-08-22T12:37:02Z</time>
      </trkpt>
      <trkpt lat="45.75537" lon="5.82022">
        <ele>703.4</ele>
        <time>2021-08-22T12:37:03Z</time>
      </trkpt>
      <trkpt lat="45.75535" lon="5.82021">
        <ele>703.4</ele>
        <time>2021-08-22T12:37:04Z</time>
      </trkpt>
      <trkpt lat="45.75534" lon="5.82019">
        <ele>703.3</ele>
        <time>2021-08-22T12:37:06Z</time>
      </trkpt>
      <trkpt lat="45.75532" lon="5.82018">
        <ele>703.2</ele>
        <time>2021-08-22T12:37:07Z</time>
      </trkpt>
      <trkpt lat="45.75531" lon="5.82017">
        <ele>703.1</ele>
        <time>2021-08-22T12:37:09Z</time>
      </trkpt>
      <trkpt lat="45.75529" lon="5.82015">
        <ele>703</ele>
        <time>2021-08-22T12:38:42Z</time>
      </trkpt>
      <trkpt lat="45.75528" lon="5.82014">
        <ele>702.9</ele>
        <time>2021-08-22T12:38:43Z</time>
      </trkpt>
      <trkpt lat="45.75526" lon="5.82011">
        <ele>702.7</ele>
        <time>2021-08-22T12:38:44Z</time>
      </trkpt>
      <trkpt lat="45.75521" lon="5.82006">
        <ele>702.2</ele>
        <time>2021-08-22T12:38:46Z</time>
      </trkpt>
      <trkpt lat="45.75518" lon="5.82001">
        <ele>701.8</ele>
        <time>2021-08-22T12:38:48Z</time>
      </trkpt>
      <trkpt lat="45.75515" lon="5.81997">
        <ele>701.5</ele>
        <time>2021-08-22T12:38:49Z</time>
      </trkpt>
      <trkpt lat="45.75512" lon="5.81994">
        <ele>701.1</ele>
        <time>2021-08-22T12:38:50Z</time>
      </trkpt>
      <trkpt lat="45.75508" lon="5.81988">
        <ele>700.7</ele>
        <time>2021-08-22T12:38:52Z</time>
      </trkpt>
      <trkpt lat="45.75505" lon="5.81984">
        <ele>700.3</ele>
        <time>2021-08-22T12:38:53Z</time>
      </trkpt>
      <trkpt lat="45.75497" lon="5.81973">
        <ele>699.6</ele>
        <time>2021-08-22T12:38:54Z</time>
      </trkpt>
      <trkpt lat="45.75493" lon="5.81967">
        <ele>699.5</ele>
        <time>2021-08-22T12:38:55Z</time>
      </trkpt>
      <trkpt lat="45.75485" lon="5.81955">
        <ele>699.4</ele>
        <time>2021-08-22T12:38:57Z</time>
      </trkpt>
      <trkpt lat="45.75483" lon="5.81949">
        <ele>699.5</ele>
        <time>2021-08-22T12:38:58Z</time>
      </trkpt>
      <trkpt lat="45.75483" lon="5.81945">
        <ele>699.7</ele>
        <time>2021-08-22T12:39:00Z</time>
      </trkpt>
      <trkpt lat="45.75481" lon="5.81939">
        <ele>699.9</ele>
        <time>2021-08-22T12:39:01Z</time>
      </trkpt>
      <trkpt lat="45.75479" lon="5.81936">
        <ele>700.1</ele>
        <time>2021-08-22T12:39:02Z</time>
      </trkpt>
      <trkpt lat="45.75475" lon="5.81932">
        <ele>700.4</ele>
        <time>2021-08-22T12:39:04Z</time>
      </trkpt>
      <trkpt lat="45.75474" lon="5.81931">
        <ele>700.5</ele>
        <time>2021-08-22T12:39:05Z</time>
      </trkpt>
      <trkpt lat="45.75472" lon="5.8193">
        <ele>700.6</ele>
        <time>2021-08-22T12:39:06Z</time>
      </trkpt>
      <trkpt lat="45.75468" lon="5.81929">
        <ele>701</ele>
        <time>2021-08-22T12:39:08Z</time>
      </trkpt>
      <trkpt lat="45.75465" lon="5.8193">
        <ele>701.3</ele>
        <time>2021-08-22T12:39:10Z</time>
      </trkpt>
      <trkpt lat="45.75464" lon="5.8193">
        <ele>701.7</ele>
        <time>2021-08-22T12:39:11Z</time>
      </trkpt>
      <trkpt lat="45.75464" lon="5.8193">
        <ele>701.7</ele>
        <time>2021-08-22T12:39:12Z</time>
      </trkpt>
      <trkpt lat="45.75464" lon="5.8193">
        <ele>701.8</ele>
        <time>2021-08-22T12:39:13Z</time>
      </trkpt>
      <trkpt lat="45.75463" lon="5.81931">
        <ele>701.8</ele>
        <time>2021-08-22T12:39:15Z</time>
      </trkpt>
      <trkpt lat="45.75463" lon="5.81932">
        <ele>701.9</ele>
        <time>2021-08-22T12:39:17Z</time>
      </trkpt>
      <trkpt lat="45.75463" lon="5.81933">
        <ele>702</ele>
        <time>2021-08-22T12:39:19Z</time>
      </trkpt>
      <trkpt lat="45.75463" lon="5.81934">
        <ele>702</ele>
        <time>2021-08-22T12:39:20Z</time>
      </trkpt>
      <trkpt lat="45.7545" lon="5.81941">
        <ele>703.1</ele>
        <time>2021-08-22T12:39:40Z</time>
      </trkpt>
      <trkpt lat="45.75446" lon="5.81941">
        <ele>703.3</ele>
        <time>2021-08-22T12:39:42Z</time>
      </trkpt>
      <trkpt lat="45.75445" lon="5.81943">
        <ele>703.5</ele>
        <time>2021-08-22T12:39:43Z</time>
      </trkpt>
      <trkpt lat="45.75444" lon="5.81944">
        <ele>703.6</ele>
        <time>2021-08-22T12:39:44Z</time>
      </trkpt>
      <trkpt lat="45.75442" lon="5.81946">
        <ele>703.7</ele>
        <time>2021-08-22T12:39:45Z</time>
      </trkpt>
      <trkpt lat="45.75441" lon="5.81947">
        <ele>703.8</ele>
        <time>2021-08-22T12:39:47Z</time>
      </trkpt>
      <trkpt lat="45.7544" lon="5.81949">
        <ele>703.9</ele>
        <time>2021-08-22T12:39:48Z</time>
      </trkpt>
      <trkpt lat="45.75435" lon="5.8195">
        <ele>704.3</ele>
        <time>2021-08-22T12:39:50Z</time>
      </trkpt>
      <trkpt lat="45.75432" lon="5.81949">
        <ele>704.6</ele>
        <time>2021-08-22T12:39:51Z</time>
      </trkpt>
      <trkpt lat="45.75429" lon="5.81948">
        <ele>704.8</ele>
        <time>2021-08-22T12:39:53Z</time>
      </trkpt>
      <trkpt lat="45.75426" lon="5.81947">
        <ele>705</ele>
        <time>2021-08-22T12:39:54Z</time>
      </trkpt>
      <trkpt lat="45.75423" lon="5.81947">
        <ele>705.3</ele>
        <time>2021-08-22T12:39:55Z</time>
      </trkpt>
      <trkpt lat="45.7542" lon="5.81946">
        <ele>705.5</ele>
        <time>2021-08-22T12:39:57Z</time>
      </trkpt>
      <trkpt lat="45.75417" lon="5.81945">
        <ele>705.7</ele>
        <time>2021-08-22T12:39:59Z</time>
      </trkpt>
      <trkpt lat="45.75414" lon="5.81944">
        <ele>705.9</ele>
        <time>2021-08-22T12:40:00Z</time>
      </trkpt>
      <trkpt lat="45.75411" lon="5.81943">
        <ele>706.1</ele>
        <time>2021-08-22T12:40:02Z</time>
      </trkpt>
      <trkpt lat="45.75408" lon="5.81942">
        <ele>706.4</ele>
        <time>2021-08-22T12:40:03Z</time>
      </trkpt>
      <trkpt lat="45.75405" lon="5.81941">
        <ele>706.6</ele>
        <time>2021-08-22T12:41:06Z</time>
      </trkpt>
      <trkpt lat="45.75402" lon="5.81941">
        <ele>706.8</ele>
        <time>2021-08-22T12:41:07Z</time>
      </trkpt>
      <trkpt lat="45.75395" lon="5.81948">
        <ele>707.4</ele>
        <time>2021-08-22T12:41:09Z</time>
      </trkpt>
      <trkpt lat="45.75391" lon="5.81952">
        <ele>707.7</ele>
        <time>2021-08-22T12:41:10Z</time>
      </trkpt>
      <trkpt lat="45.75385" lon="5.81957">
        <ele>708.3</ele>
        <time>2021-08-22T12:41:12Z</time>
      </trkpt>
      <trkpt lat="45.75382" lon="5.8196">
        <ele>708.5</ele>
        <time>2021-08-22T12:41:14Z</time>
      </trkpt>
      <trkpt lat="45.7538" lon="5.81965">
        <ele>708.8</ele>
        <time>2021-08-22T12:41:16Z</time>
      </trkpt>
      <trkpt lat="45.75378" lon="5.81968">
        <ele>709</ele>
        <time>2021-08-22T12:41:18Z</time>
      </trkpt>
      <trkpt lat="45.75377" lon="5.81971">
        <ele>709.1</ele>
        <time>2021-08-22T12:41:19Z</time>
      </trkpt>
      <trkpt lat="45.75375" lon="5.81976">
        <ele>709.4</ele>
        <time>2021-08-22T12:41:21Z</time>
      </trkpt>
      <trkpt lat="45.75374" lon="5.81979">
        <ele>709.6</ele>
        <time>2021-08-22T12:41:22Z</time>
      </trkpt>
      <trkpt lat="45.75373" lon="5.8198">
        <ele>709.7</ele>
        <time>2021-08-22T12:41:23Z</time>
      </trkpt>
      <trkpt lat="45.75372" lon="5.81981">
        <ele>709.7</ele>
        <time>2021-08-22T12:41:24Z</time>
      </trkpt>
      <trkpt lat="45.75371" lon="5.81985">
        <ele>710</ele>
        <time>2021-08-22T12:41:26Z</time>
      </trkpt>
      <trkpt lat="45.7537" lon="5.81987">
        <ele>710.1</ele>
        <time>2021-08-22T12:41:27Z</time>
      </trkpt>
      <trkpt lat="45.7537" lon="5.81992">
        <ele>710.3</ele>
        <time>2021-08-22T12:41:29Z</time>
      </trkpt>
      <trkpt lat="45.7537" lon="5.81994">
        <ele>710.4</ele>
        <time>2021-08-22T12:41:30Z</time>
      </trkpt>
      <trkpt lat="45.75369" lon="5.81997">
        <ele>710.5</ele>
        <time>2021-08-22T12:41:31Z</time>
      </trkpt>
      <trkpt lat="45.7537" lon="5.82002">
        <ele>710.8</ele>
        <time>2021-08-22T12:41:33Z</time>
      </trkpt>
      <trkpt lat="45.7537" lon="5.82003">
        <ele>710.8</ele>
        <time>2021-08-22T12:41:34Z</time>
      </trkpt>
      <trkpt lat="45.75372" lon="5.82007">
        <ele>711.1</ele>
        <time>2021-08-22T12:41:35Z</time>
      </trkpt>
      <trkpt lat="45.75375" lon="5.82012">
        <ele>711.3</ele>
        <time>2021-08-22T12:41:37Z</time>
      </trkpt>
      <trkpt lat="45.75377" lon="5.82016">
        <ele>711.6</ele>
        <time>2021-08-22T12:41:38Z</time>
      </trkpt>
      <trkpt lat="45.75379" lon="5.8202">
        <ele>711.8</ele>
        <time>2021-08-22T12:41:39Z</time>
      </trkpt>
      <trkpt lat="45.75381" lon="5.82024">
        <ele>712.1</ele>
        <time>2021-08-22T12:41:40Z</time>
      </trkpt>
      <trkpt lat="45.75381" lon="5.82026">
        <ele>712.1</ele>
        <time>2021-08-22T12:41:41Z</time>
      </trkpt>
      <trkpt lat="45.75383" lon="5.8203">
        <ele>712.3</ele>
        <time>2021-08-22T12:41:42Z</time>
      </trkpt>
      <trkpt lat="45.75385" lon="5.82037">
        <ele>712.7</ele>
        <time>2021-08-22T12:41:44Z</time>
      </trkpt>
      <trkpt lat="45.75386" lon="5.82044">
        <ele>713.1</ele>
        <time>2021-08-22T12:41:46Z</time>
      </trkpt>
      <trkpt lat="45.75387" lon="5.8205">
        <ele>713.4</ele>
        <time>2021-08-22T12:41:48Z</time>
      </trkpt>
      <trkpt lat="45.7539" lon="5.82053">
        <ele>713.7</ele>
        <time>2021-08-22T12:41:50Z</time>
      </trkpt>
      <trkpt lat="45.75391" lon="5.82054">
        <ele>713.8</ele>
        <time>2021-08-22T12:41:51Z</time>
      </trkpt>
      <trkpt lat="45.75394" lon="5.82057">
        <ele>714.2</ele>
        <time>2021-08-22T12:41:53Z</time>
      </trkpt>
      <trkpt lat="45.75395" lon="5.82059">
        <ele>714.6</ele>
        <time>2021-08-22T12:41:54Z</time>
      </trkpt>
      <trkpt lat="45.75397" lon="5.8206">
        <ele>714.6</ele>
        <time>2021-08-22T12:41:56Z</time>
      </trkpt>
      <trkpt lat="45.75397" lon="5.8206">
        <ele>714.6</ele>
        <time>2021-08-22T12:41:57Z</time>
      </trkpt>
      <trkpt lat="45.75397" lon="5.8206">
        <ele>714.6</ele>
        <time>2021-08-22T12:41:58Z</time>
      </trkpt>
      <trkpt lat="45.75398" lon="5.8206">
        <ele>714.6</ele>
        <time>2021-08-22T12:42:00Z</time>
      </trkpt>
      <trkpt lat="45.75399" lon="5.8206">
        <ele>714.7</ele>
        <time>2021-08-22T12:42:02Z</time>
      </trkpt>
      <trkpt lat="45.754" lon="5.82061">
        <ele>714.7</ele>
        <time>2021-08-22T12:42:03Z</time>
      </trkpt>
      <trkpt lat="45.754" lon="5.82063">
        <ele>714.7</ele>
        <time>2021-08-22T12:42:05Z</time>
      </trkpt>
      <trkpt lat="45.75401" lon="5.82064">
        <ele>714.7</ele>
        <time>2021-08-22T12:42:07Z</time>
      </trkpt>
      <trkpt lat="45.75401" lon="5.82064">
        <ele>714.7</ele>
        <time>2021-08-22T12:42:08Z</time>
      </trkpt>
      <trkpt lat="45.75402" lon="5.82065">
        <ele>714.7</ele>
        <time>2021-08-22T12:42:10Z</time>
      </trkpt>
      <trkpt lat="45.75403" lon="5.82066">
        <ele>714.7</ele>
        <time>2021-08-22T12:42:11Z</time>
      </trkpt>
      <trkpt lat="45.75413" lon="5.82076">
        <ele>717.4</ele>
        <time>2021-08-22T12:42:13Z</time>
      </trkpt>
      <trkpt lat="45.75432" lon="5.82102">
        <ele>722.3</ele>
        <time>2021-08-22T12:43:53Z</time>
      </trkpt>
      <trkpt lat="45.75433" lon="5.82104">
        <ele>722.5</ele>
        <time>2021-08-22T12:43:54Z</time>
      </trkpt>
      <trkpt lat="45.75434" lon="5.82105">
        <ele>722.6</ele>
        <time>2021-08-22T12:43:55Z</time>
      </trkpt>
      <trkpt lat="45.75438" lon="5.82105">
        <ele>723</ele>
        <time>2021-08-22T12:43:56Z</time>
      </trkpt>
      <trkpt lat="45.75441" lon="5.82105">
        <ele>723.3</ele>
        <time>2021-08-22T12:43:57Z</time>
      </trkpt>
      <trkpt lat="45.75445" lon="5.82104">
        <ele>723.8</ele>
        <time>2021-08-22T12:43:58Z</time>
      </trkpt>
      <trkpt lat="45.75446" lon="5.82104">
        <ele>723.9</ele>
        <time>2021-08-22T12:43:59Z</time>
      </trkpt>
      <trkpt lat="45.75446" lon="5.82104">
        <ele>723.9</ele>
        <time>2021-08-22T12:44:01Z</time>
      </trkpt>
      <trkpt lat="45.75446" lon="5.82104">
        <ele>723.9</ele>
        <time>2021-08-22T12:44:02Z</time>
      </trkpt>
      <trkpt lat="45.75446" lon="5.82104">
        <ele>724</ele>
        <time>2021-08-22T12:44:04Z</time>
      </trkpt>
      <trkpt lat="45.75446" lon="5.82105">
        <ele>724</ele>
        <time>2021-08-22T12:44:05Z</time>
      </trkpt>
      <trkpt lat="45.75446" lon="5.82105">
        <ele>724</ele>
        <time>2021-08-22T12:44:06Z</time>
      </trkpt>
      <trkpt lat="45.75446" lon="5.82105">
        <ele>724</ele>
        <time>2021-08-22T12:44:08Z</time>
      </trkpt>
      <trkpt lat="45.75446" lon="5.82105">
        <ele>724</ele>
        <time>2021-08-22T12:44:09Z</time>
      </trkpt>
      <trkpt lat="45.75454" lon="5.82134">
        <ele>725.8</ele>
        <time>2021-08-22T12:46:02Z</time>
      </trkpt>
      <trkpt lat="45.75451" lon="5.82136">
        <ele>726.4</ele>
        <time>2021-08-22T12:46:03Z</time>
      </trkpt>
      <trkpt lat="45.75445" lon="5.82138">
        <ele>727.5</ele>
        <time>2021-08-22T12:46:04Z</time>
      </trkpt>
      <trkpt lat="45.75439" lon="5.82142">
        <ele>728.6</ele>
        <time>2021-08-22T12:46:06Z</time>
      </trkpt>
      <trkpt lat="45.75436" lon="5.82144">
        <ele>729.2</ele>
        <time>2021-08-22T12:46:07Z</time>
      </trkpt>
      <trkpt lat="45.75433" lon="5.82147">
        <ele>729.8</ele>
        <time>2021-08-22T12:46:09Z</time>
      </trkpt>
      <trkpt lat="45.75429" lon="5.82148">
        <ele>730.4</ele>
        <time>2021-08-22T12:46:10Z</time>
      </trkpt>
      <trkpt lat="45.75428" lon="5.82148">
        <ele>730.5</ele>
        <time>2021-08-22T12:46:11Z</time>
      </trkpt>
      <trkpt lat="45.75427" lon="5.82149">
        <ele>730.8</ele>
        <time>2021-08-22T12:46:12Z</time>
      </trkpt>
      <trkpt lat="45.75425" lon="5.82152">
        <ele>731.1</ele>
        <time>2021-08-22T12:46:14Z</time>
      </trkpt>
      <trkpt lat="45.75423" lon="5.82155">
        <ele>731.6</ele>
        <time>2021-08-22T12:46:15Z</time>
      </trkpt>
      <trkpt lat="45.75422" lon="5.82156">
        <ele>731.8</ele>
        <time>2021-08-22T12:46:16Z</time>
      </trkpt>
      <trkpt lat="45.7542" lon="5.82159">
        <ele>732.1</ele>
        <time>2021-08-22T12:46:17Z</time>
      </trkpt>
      <trkpt lat="45.75419" lon="5.82161">
        <ele>732.4</ele>
        <time>2021-08-22T12:46:18Z</time>
      </trkpt>
      <trkpt lat="45.75418" lon="5.82165">
        <ele>732.7</ele>
        <time>2021-08-22T12:46:20Z</time>
      </trkpt>
      <trkpt lat="45.75416" lon="5.82168">
        <ele>733.1</ele>
        <time>2021-08-22T12:46:21Z</time>
      </trkpt>
      <trkpt lat="45.75415" lon="5.8217">
        <ele>733.3</ele>
        <time>2021-08-22T12:46:22Z</time>
      </trkpt>
      <trkpt lat="45.75413" lon="5.82175">
        <ele>733.8</ele>
        <time>2021-08-22T12:46:24Z</time>
      </trkpt>
      <trkpt lat="45.75412" lon="5.82177">
        <ele>734</ele>
        <time>2021-08-22T12:46:25Z</time>
      </trkpt>
      <trkpt lat="45.75412" lon="5.82179">
        <ele>734.2</ele>
        <time>2021-08-22T12:46:26Z</time>
      </trkpt>
      <trkpt lat="45.7541" lon="5.82183">
        <ele>734.6</ele>
        <time>2021-08-22T12:46:28Z</time>
      </trkpt>
      <trkpt lat="45.75408" lon="5.82187">
        <ele>735</ele>
        <time>2021-08-22T12:46:29Z</time>
      </trkpt>
      <trkpt lat="45.75407" lon="5.82188">
        <ele>735.2</ele>
        <time>2021-08-22T12:46:30Z</time>
      </trkpt>
      <trkpt lat="45.75405" lon="5.82194">
        <ele>735.6</ele>
        <time>2021-08-22T12:46:31Z</time>
      </trkpt>
      <trkpt lat="45.75404" lon="5.82196">
        <ele>735.8</ele>
        <time>2021-08-22T12:46:32Z</time>
      </trkpt>
      <trkpt lat="45.75404" lon="5.822">
        <ele>736.1</ele>
        <time>2021-08-22T12:46:33Z</time>
      </trkpt>
      <trkpt lat="45.75403" lon="5.82205">
        <ele>736.5</ele>
        <time>2021-08-22T12:46:34Z</time>
      </trkpt>
      <trkpt lat="45.75402" lon="5.82206">
        <ele>736.6</ele>
        <time>2021-08-22T12:46:35Z</time>
      </trkpt>
      <trkpt lat="45.75402" lon="5.82207">
        <ele>736.7</ele>
        <time>2021-08-22T12:46:36Z</time>
      </trkpt>
      <trkpt lat="45.754" lon="5.82209">
        <ele>737</ele>
        <time>2021-08-22T12:46:38Z</time>
      </trkpt>
      <trkpt lat="45.754" lon="5.8221">
        <ele>737</ele>
        <time>2021-08-22T12:46:39Z</time>
      </trkpt>
      <trkpt lat="45.75399" lon="5.8221">
        <ele>737.1</ele>
        <time>2021-08-22T12:46:40Z</time>
      </trkpt>
      <trkpt lat="45.75398" lon="5.82212">
        <ele>737.2</ele>
        <time>2021-08-22T12:46:41Z</time>
      </trkpt>
      <trkpt lat="45.75395" lon="5.82213">
        <ele>737.5</ele>
        <time>2021-08-22T12:46:43Z</time>
      </trkpt>
      <trkpt lat="45.75393" lon="5.82213">
        <ele>737.8</ele>
        <time>2021-08-22T12:46:44Z</time>
      </trkpt>
      <trkpt lat="45.75388" lon="5.82213">
        <ele>738.3</ele>
        <time>2021-08-22T12:46:46Z</time>
      </trkpt>
      <trkpt lat="45.75386" lon="5.82212">
        <ele>738.5</ele>
        <time>2021-08-22T12:46:47Z</time>
      </trkpt>
      <trkpt lat="45.75384" lon="5.82212">
        <ele>738.7</ele>
        <time>2021-08-22T12:46:48Z</time>
      </trkpt>
      <trkpt lat="45.75383" lon="5.82212">
        <ele>738.7</ele>
        <time>2021-08-22T12:46:49Z</time>
      </trkpt>
      <trkpt lat="45.75381" lon="5.82213">
        <ele>738.9</ele>
        <time>2021-08-22T12:46:50Z</time>
      </trkpt>
      <trkpt lat="45.75379" lon="5.82213">
        <ele>739.1</ele>
        <time>2021-08-22T12:46:52Z</time>
      </trkpt>
      <trkpt lat="45.75376" lon="5.82213">
        <ele>739.4</ele>
        <time>2021-08-22T12:46:53Z</time>
      </trkpt>
      <trkpt lat="45.75375" lon="5.82213">
        <ele>739.5</ele>
        <time>2021-08-22T12:46:54Z</time>
      </trkpt>
      <trkpt lat="45.75374" lon="5.82213">
        <ele>739.6</ele>
        <time>2021-08-22T12:46:55Z</time>
      </trkpt>
      <trkpt lat="45.75372" lon="5.82213">
        <ele>739.8</ele>
        <time>2021-08-22T12:46:56Z</time>
      </trkpt>
      <trkpt lat="45.7537" lon="5.82213">
        <ele>740</ele>
        <time>2021-08-22T12:46:58Z</time>
      </trkpt>
      <trkpt lat="45.75369" lon="5.82214">
        <ele>740.1</ele>
        <time>2021-08-22T12:46:59Z</time>
      </trkpt>
      <trkpt lat="45.75368" lon="5.82214">
        <ele>740.2</ele>
        <time>2021-08-22T12:47:00Z</time>
      </trkpt>
      <trkpt lat="45.75367" lon="5.82214">
        <ele>740.3</ele>
        <time>2021-08-22T12:47:02Z</time>
      </trkpt>
      <trkpt lat="45.75366" lon="5.82214">
        <ele>740.4</ele>
        <time>2021-08-22T12:47:03Z</time>
      </trkpt>
      <trkpt lat="45.75365" lon="5.82214">
        <ele>740.6</ele>
        <time>2021-08-22T12:47:05Z</time>
      </trkpt>
      <trkpt lat="45.75364" lon="5.82215">
        <ele>740.7</ele>
        <time>2021-08-22T12:47:07Z</time>
      </trkpt>
      <trkpt lat="45.75363" lon="5.82215">
        <ele>740.8</ele>
        <time>2021-08-22T12:47:07Z</time>
      </trkpt>
      <trkpt lat="45.7536" lon="5.82216">
        <ele>741.2</ele>
        <time>2021-08-22T12:47:08Z</time>
      </trkpt>
      <trkpt lat="45.75359" lon="5.82217">
        <ele>741.3</ele>
        <time>2021-08-22T12:47:09Z</time>
      </trkpt>
      <trkpt lat="45.75357" lon="5.82218">
        <ele>741.6</ele>
        <time>2021-08-22T12:47:10Z</time>
      </trkpt>
      <trkpt lat="45.75354" lon="5.82216">
        <ele>742</ele>
        <time>2021-08-22T12:47:12Z</time>
      </trkpt>
      <trkpt lat="45.75349" lon="5.82216">
        <ele>742.6</ele>
        <time>2021-08-22T12:47:14Z</time>
      </trkpt>
      <trkpt lat="45.75347" lon="5.82216">
        <ele>742.8</ele>
        <time>2021-08-22T12:47:15Z</time>
      </trkpt>
      <trkpt lat="45.75346" lon="5.82218">
        <ele>743</ele>
        <time>2021-08-22T12:47:17Z</time>
      </trkpt>
      <trkpt lat="45.75344" lon="5.82221">
        <ele>743.3</ele>
        <time>2021-08-22T12:47:18Z</time>
      </trkpt>
      <trkpt lat="45.75343" lon="5.82222">
        <ele>743.5</ele>
        <time>2021-08-22T12:47:19Z</time>
      </trkpt>
      <trkpt lat="45.75342" lon="5.82224">
        <ele>743.7</ele>
        <time>2021-08-22T12:47:20Z</time>
      </trkpt>
      <trkpt lat="45.75341" lon="5.82227">
        <ele>743.9</ele>
        <time>2021-08-22T12:47:22Z</time>
      </trkpt>
      <trkpt lat="45.75341" lon="5.82229">
        <ele>744</ele>
        <time>2021-08-22T12:47:23Z</time>
      </trkpt>
      <trkpt lat="45.75339" lon="5.82233">
        <ele>744.3</ele>
        <time>2021-08-22T12:47:25Z</time>
      </trkpt>
      <trkpt lat="45.75337" lon="5.82234">
        <ele>744.5</ele>
        <time>2021-08-22T12:47:26Z</time>
      </trkpt>
      <trkpt lat="45.75335" lon="5.82234">
        <ele>744.7</ele>
        <time>2021-08-22T12:47:28Z</time>
      </trkpt>
      <trkpt lat="45.75333" lon="5.82235">
        <ele>744.9</ele>
        <time>2021-08-22T12:47:29Z</time>
      </trkpt>
      <trkpt lat="45.75332" lon="5.82237">
        <ele>745</ele>
        <time>2021-08-22T12:47:30Z</time>
      </trkpt>
      <trkpt lat="45.75332" lon="5.82238">
        <ele>745.2</ele>
        <time>2021-08-22T12:47:31Z</time>
      </trkpt>
      <trkpt lat="45.75331" lon="5.8224">
        <ele>745.3</ele>
        <time>2021-08-22T12:47:32Z</time>
      </trkpt>
      <trkpt lat="45.7533" lon="5.82243">
        <ele>745.5</ele>
        <time>2021-08-22T12:47:34Z</time>
      </trkpt>
      <trkpt lat="45.75329" lon="5.82244">
        <ele>745.6</ele>
        <time>2021-08-22T12:47:35Z</time>
      </trkpt>
      <trkpt lat="45.75328" lon="5.82246">
        <ele>745.8</ele>
        <time>2021-08-22T12:47:36Z</time>
      </trkpt>
      <trkpt lat="45.75327" lon="5.82248">
        <ele>746</ele>
        <time>2021-08-22T12:47:38Z</time>
      </trkpt>
      <trkpt lat="45.75326" lon="5.82249">
        <ele>746.1</ele>
        <time>2021-08-22T12:47:39Z</time>
      </trkpt>
      <trkpt lat="45.75326" lon="5.8225">
        <ele>746.2</ele>
        <time>2021-08-22T12:47:41Z</time>
      </trkpt>
      <trkpt lat="45.75326" lon="5.8225">
        <ele>746.2</ele>
        <time>2021-08-22T12:47:42Z</time>
      </trkpt>
      <trkpt lat="45.75325" lon="5.8225">
        <ele>746.2</ele>
        <time>2021-08-22T12:47:43Z</time>
      </trkpt>
      <trkpt lat="45.75325" lon="5.8225">
        <ele>746.2</ele>
        <time>2021-08-22T12:47:44Z</time>
      </trkpt>
      <trkpt lat="45.75325" lon="5.82251">
        <ele>746.3</ele>
        <time>2021-08-22T12:47:46Z</time>
      </trkpt>
      <trkpt lat="45.75325" lon="5.82251">
        <ele>746.3</ele>
        <time>2021-08-22T12:47:48Z</time>
      </trkpt>
      <trkpt lat="45.75325" lon="5.82251">
        <ele>746.3</ele>
        <time>2021-08-22T12:47:49Z</time>
      </trkpt>
      <trkpt lat="45.75325" lon="5.82251">
        <ele>746.3</ele>
        <time>2021-08-22T12:47:50Z</time>
      </trkpt>
      <trkpt lat="45.75325" lon="5.82251">
        <ele>746.3</ele>
        <time>2021-08-22T12:47:52Z</time>
      </trkpt>
      <trkpt lat="45.7533" lon="5.82213">
        <ele>749.2</ele>
        <time>2021-08-22T12:49:19Z</time>
      </trkpt>
      <trkpt lat="45.75331" lon="5.82208">
        <ele>749.6</ele>
        <time>2021-08-22T12:49:21Z</time>
      </trkpt>
      <trkpt lat="45.75331" lon="5.82206">
        <ele>749.7</ele>
        <time>2021-08-22T12:49:22Z</time>
      </trkpt>
      <trkpt lat="45.75329" lon="5.82206">
        <ele>749.9</ele>
        <time>2021-08-22T12:49:24Z</time>
      </trkpt>
      <trkpt lat="45.75327" lon="5.82206">
        <ele>750</ele>
        <time>2021-08-22T12:49:25Z</time>
      </trkpt>
      <trkpt lat="45.75325" lon="5.82209">
        <ele>750.2</ele>
        <time>2021-08-22T12:49:27Z</time>
      </trkpt>
      <trkpt lat="45.75325" lon="5.82209">
        <ele>750.2</ele>
        <time>2021-08-22T12:49:28Z</time>
      </trkpt>
      <trkpt lat="45.75324" lon="5.82209">
        <ele>750.3</ele>
        <time>2021-08-22T12:49:30Z</time>
      </trkpt>
      <trkpt lat="45.75322" lon="5.82209">
        <ele>750.3</ele>
        <time>2021-08-22T12:49:32Z</time>
      </trkpt>
      <trkpt lat="45.75322" lon="5.82209">
        <ele>750.4</ele>
        <time>2021-08-22T12:49:34Z</time>
      </trkpt>
      <trkpt lat="45.75321" lon="5.8221">
        <ele>750.4</ele>
        <time>2021-08-22T12:49:35Z</time>
      </trkpt>
      <trkpt lat="45.7532" lon="5.8221">
        <ele>750.4</ele>
        <time>2021-08-22T12:49:37Z</time>
      </trkpt>
      <trkpt lat="45.75319" lon="5.82211">
        <ele>750.4</ele>
        <time>2021-08-22T12:49:38Z</time>
      </trkpt>
      <trkpt lat="45.75318" lon="5.82212">
        <ele>750.5</ele>
        <time>2021-08-22T12:49:40Z</time>
      </trkpt>
      <trkpt lat="45.75304" lon="5.82232">
        <ele>750.1</ele>
        <time>2021-08-22T12:49:56Z</time>
      </trkpt>
      <trkpt lat="45.753" lon="5.82235">
        <ele>749.9</ele>
        <time>2021-08-22T12:49:57Z</time>
      </trkpt>
      <trkpt lat="45.75297" lon="5.82237">
        <ele>749.8</ele>
        <time>2021-08-22T12:49:58Z</time>
      </trkpt>
      <trkpt lat="45.75296" lon="5.82237">
        <ele>749.8</ele>
        <time>2021-08-22T12:49:59Z</time>
      </trkpt>
      <trkpt lat="45.75293" lon="5.82237">
        <ele>749.7</ele>
        <time>2021-08-22T12:50:00Z</time>
      </trkpt>
      <trkpt lat="45.7529" lon="5.82237">
        <ele>749.5</ele>
        <time>2021-08-22T12:50:01Z</time>
      </trkpt>
      <trkpt lat="45.75284" lon="5.82236">
        <ele>749.3</ele>
        <time>2021-08-22T12:50:03Z</time>
      </trkpt>
      <trkpt lat="45.7527" lon="5.82225">
        <ele>748.7</ele>
        <time>2021-08-22T12:50:04Z</time>
      </trkpt>
      <trkpt lat="45.75256" lon="5.82212">
        <ele>748.5</ele>
        <time>2021-08-22T12:50:06Z</time>
      </trkpt>
      <trkpt lat="45.75245" lon="5.82197">
        <ele>748.6</ele>
        <time>2021-08-22T12:50:08Z</time>
      </trkpt>
      <trkpt lat="45.75236" lon="5.82185">
        <ele>748.9</ele>
        <time>2021-08-22T12:50:10Z</time>
      </trkpt>
      <trkpt lat="45.75227" lon="5.82174">
        <ele>749.3</ele>
        <time>2021-08-22T12:50:12Z</time>
      </trkpt>
      <trkpt lat="45.75218" lon="5.82168">
        <ele>750</ele>
        <time>2021-08-22T12:50:14Z</time>
      </trkpt>
      <trkpt lat="45.75211" lon="5.82167">
        <ele>750.4</ele>
        <time>2021-08-22T12:50:16Z</time>
      </trkpt>
      <trkpt lat="45.75206" lon="5.82167">
        <ele>750.8</ele>
        <time>2021-08-22T12:50:18Z</time>
      </trkpt>
      <trkpt lat="45.75204" lon="5.82168">
        <ele>751</ele>
        <time>2021-08-22T12:50:19Z</time>
      </trkpt>
      <trkpt lat="45.75201" lon="5.8217">
        <ele>751.2</ele>
        <time>2021-08-22T12:50:20Z</time>
      </trkpt>
      <trkpt lat="45.752" lon="5.82171">
        <ele>751.2</ele>
        <time>2021-08-22T12:50:21Z</time>
      </trkpt>
      <trkpt lat="45.75197" lon="5.82174">
        <ele>751.5</ele>
        <time>2021-08-22T12:50:23Z</time>
      </trkpt>
      <trkpt lat="45.75195" lon="5.82175">
        <ele>751.6</ele>
        <time>2021-08-22T12:50:24Z</time>
      </trkpt>
      <trkpt lat="45.75193" lon="5.82178">
        <ele>751.8</ele>
        <time>2021-08-22T12:50:26Z</time>
      </trkpt>
      <trkpt lat="45.75191" lon="5.82181">
        <ele>752</ele>
        <time>2021-08-22T12:50:27Z</time>
      </trkpt>
      <trkpt lat="45.75189" lon="5.82183">
        <ele>752.2</ele>
        <time>2021-08-22T12:50:29Z</time>
      </trkpt>
      <trkpt lat="45.75186" lon="5.82181">
        <ele>752.4</ele>
        <time>2021-08-22T12:50:30Z</time>
      </trkpt>
      <trkpt lat="45.75183" lon="5.8218">
        <ele>752.7</ele>
        <time>2021-08-22T12:50:31Z</time>
      </trkpt>
      <trkpt lat="45.75182" lon="5.8218">
        <ele>752.7</ele>
        <time>2021-08-22T12:50:32Z</time>
      </trkpt>
      <trkpt lat="45.7518" lon="5.82179">
        <ele>752.9</ele>
        <time>2021-08-22T12:50:34Z</time>
      </trkpt>
      <trkpt lat="45.7518" lon="5.82179">
        <ele>752.9</ele>
        <time>2021-08-22T12:50:35Z</time>
      </trkpt>
      <trkpt lat="45.75179" lon="5.82179">
        <ele>753</ele>
        <time>2021-08-22T12:50:36Z</time>
      </trkpt>
      <trkpt lat="45.75176" lon="5.82178">
        <ele>753.2</ele>
        <time>2021-08-22T12:50:37Z</time>
      </trkpt>
      <trkpt lat="45.75175" lon="5.82178">
        <ele>753.3</ele>
        <time>2021-08-22T12:50:39Z</time>
      </trkpt>
      <trkpt lat="45.75173" lon="5.82177">
        <ele>753.4</ele>
        <time>2021-08-22T12:50:41Z</time>
      </trkpt>
      <trkpt lat="45.75172" lon="5.82177">
        <ele>753.5</ele>
        <time>2021-08-22T12:50:42Z</time>
      </trkpt>
      <trkpt lat="45.7516" lon="5.82176">
        <ele>754.6</ele>
        <time>2021-08-22T12:50:54Z</time>
      </trkpt>
      <trkpt lat="45.75156" lon="5.82177">
        <ele>755</ele>
        <time>2021-08-22T12:50:56Z</time>
      </trkpt>
      <trkpt lat="45.75153" lon="5.82176">
        <ele>755.2</ele>
        <time>2021-08-22T12:50:58Z</time>
      </trkpt>
      <trkpt lat="45.75151" lon="5.82175">
        <ele>755.4</ele>
        <time>2021-08-22T12:50:59Z</time>
      </trkpt>
      <trkpt lat="45.7515" lon="5.82175">
        <ele>755.5</ele>
        <time>2021-08-22T12:51:00Z</time>
      </trkpt>
      <trkpt lat="45.75149" lon="5.82175">
        <ele>755.5</ele>
        <time>2021-08-22T12:51:01Z</time>
      </trkpt>
      <trkpt lat="45.75147" lon="5.82175">
        <ele>755.8</ele>
        <time>2021-08-22T12:51:02Z</time>
      </trkpt>
      <trkpt lat="45.75145" lon="5.82175">
        <ele>756</ele>
        <time>2021-08-22T12:51:04Z</time>
      </trkpt>
      <trkpt lat="45.75144" lon="5.82175">
        <ele>756.1</ele>
        <time>2021-08-22T12:51:06Z</time>
      </trkpt>
      <trkpt lat="45.75142" lon="5.82175">
        <ele>756.3</ele>
        <time>2021-08-22T12:51:07Z</time>
      </trkpt>
      <trkpt lat="45.75138" lon="5.82191">
        <ele>757.6</ele>
        <time>2021-08-22T12:51:09Z</time>
      </trkpt>
      <trkpt lat="45.75135" lon="5.82206">
        <ele>758.9</ele>
        <time>2021-08-22T12:52:06Z</time>
      </trkpt>
      <trkpt lat="45.75132" lon="5.82222">
        <ele>760.3</ele>
        <time>2021-08-22T12:52:07Z</time>
      </trkpt>
      <trkpt lat="45.7513" lon="5.82238">
        <ele>761.8</ele>
        <time>2021-08-22T12:52:08Z</time>
      </trkpt>
      <trkpt lat="45.75126" lon="5.82239">
        <ele>762.3</ele>
        <time>2021-08-22T12:52:10Z</time>
      </trkpt>
      <trkpt lat="45.75124" lon="5.8224">
        <ele>762.6</ele>
        <time>2021-08-22T12:52:11Z</time>
      </trkpt>
      <trkpt lat="45.75123" lon="5.82241">
        <ele>762.8</ele>
        <time>2021-08-22T12:52:12Z</time>
      </trkpt>
      <trkpt lat="45.7512" lon="5.82242">
        <ele>763.2</ele>
        <time>2021-08-22T12:52:14Z</time>
      </trkpt>
      <trkpt lat="45.75118" lon="5.82243">
        <ele>763.5</ele>
        <time>2021-08-22T12:52:15Z</time>
      </trkpt>
      <trkpt lat="45.75117" lon="5.82244">
        <ele>763.7</ele>
        <time>2021-08-22T12:52:16Z</time>
      </trkpt>
      <trkpt lat="45.75114" lon="5.82245">
        <ele>764.2</ele>
        <time>2021-08-22T12:52:18Z</time>
      </trkpt>
      <trkpt lat="45.75113" lon="5.82246">
        <ele>764.3</ele>
        <time>2021-08-22T12:52:19Z</time>
      </trkpt>
      <trkpt lat="45.7511" lon="5.82246">
        <ele>764.8</ele>
        <time>2021-08-22T12:52:20Z</time>
      </trkpt>
      <trkpt lat="45.75108" lon="5.82248">
        <ele>765.2</ele>
        <time>2021-08-22T12:52:21Z</time>
      </trkpt>
      <trkpt lat="45.75105" lon="5.82249">
        <ele>765.7</ele>
        <time>2021-08-22T12:52:23Z</time>
      </trkpt>
      <trkpt lat="45.75103" lon="5.8225">
        <ele>766</ele>
        <time>2021-08-22T12:52:24Z</time>
      </trkpt>
      <trkpt lat="45.75101" lon="5.8225">
        <ele>766.2</ele>
        <time>2021-08-22T12:52:25Z</time>
      </trkpt>
      <trkpt lat="45.75099" lon="5.82251">
        <ele>766.5</ele>
        <time>2021-08-22T12:52:27Z</time>
      </trkpt>
      <trkpt lat="45.75098" lon="5.82251">
        <ele>766.6</ele>
        <time>2021-08-22T12:52:28Z</time>
      </trkpt>
      <trkpt lat="45.75097" lon="5.82252">
        <ele>766.9</ele>
        <time>2021-08-22T12:52:30Z</time>
      </trkpt>
      <trkpt lat="45.75096" lon="5.82252">
        <ele>767</ele>
        <time>2021-08-22T12:52:31Z</time>
      </trkpt>
      <trkpt lat="45.75096" lon="5.82252">
        <ele>767</ele>
        <time>2021-08-22T12:52:32Z</time>
      </trkpt>
      <trkpt lat="45.75094" lon="5.82252">
        <ele>767.2</ele>
        <time>2021-08-22T12:52:33Z</time>
      </trkpt>
      <trkpt lat="45.75094" lon="5.82252">
        <ele>767.3</ele>
        <time>2021-08-22T12:52:35Z</time>
      </trkpt>
      <trkpt lat="45.75093" lon="5.82252">
        <ele>767.4</ele>
        <time>2021-08-22T12:52:36Z</time>
      </trkpt>
      <trkpt lat="45.75093" lon="5.82252">
        <ele>767.4</ele>
        <time>2021-08-22T12:52:38Z</time>
      </trkpt>
      <trkpt lat="45.75092" lon="5.82251">
        <ele>767.5</ele>
        <time>2021-08-22T12:52:39Z</time>
      </trkpt>
      <trkpt lat="45.75092" lon="5.82251">
        <ele>767.6</ele>
        <time>2021-08-22T12:52:41Z</time>
      </trkpt>
      <trkpt lat="45.75091" lon="5.82251">
        <ele>767.7</ele>
        <time>2021-08-22T12:52:42Z</time>
      </trkpt>
      <trkpt lat="45.75085" lon="5.82249">
        <ele>768.5</ele>
        <time>2021-08-22T12:52:44Z</time>
      </trkpt>
      <trkpt lat="45.75082" lon="5.82248">
        <ele>769</ele>
        <time>2021-08-22T12:52:46Z</time>
      </trkpt>
      <trkpt lat="45.75078" lon="5.82248">
        <ele>769.4</ele>
        <time>2021-08-22T12:52:47Z</time>
      </trkpt>
      <trkpt lat="45.75075" lon="5.82247">
        <ele>769.9</ele>
        <time>2021-08-22T12:52:49Z</time>
      </trkpt>
      <trkpt lat="45.75072" lon="5.82246">
        <ele>770.4</ele>
        <time>2021-08-22T12:52:50Z</time>
      </trkpt>
      <trkpt lat="45.75068" lon="5.82245">
        <ele>770.8</ele>
        <time>2021-08-22T12:52:51Z</time>
      </trkpt>
      <trkpt lat="45.75065" lon="5.82245">
        <ele>771.3</ele>
        <time>2021-08-22T12:52:52Z</time>
      </trkpt>
      <trkpt lat="45.75062" lon="5.82242">
        <ele>771.8</ele>
        <time>2021-08-22T12:52:53Z</time>
      </trkpt>
      <trkpt lat="45.75061" lon="5.82241">
        <ele>771.9</ele>
        <time>2021-08-22T12:52:54Z</time>
      </trkpt>
      <trkpt lat="45.75057" lon="5.82237">
        <ele>772.6</ele>
        <time>2021-08-22T12:52:56Z</time>
      </trkpt>
      <trkpt lat="45.75055" lon="5.82235">
        <ele>773</ele>
        <time>2021-08-22T12:52:57Z</time>
      </trkpt>
      <trkpt lat="45.75054" lon="5.82235">
        <ele>773.2</ele>
        <time>2021-08-22T12:52:58Z</time>
      </trkpt>
      <trkpt lat="45.75053" lon="5.82235">
        <ele>773.3</ele>
        <time>2021-08-22T12:52:59Z</time>
      </trkpt>
      <trkpt lat="45.75052" lon="5.82235">
        <ele>773.4</ele>
        <time>2021-08-22T12:53:00Z</time>
      </trkpt>
      <trkpt lat="45.75051" lon="5.82235">
        <ele>773.6</ele>
        <time>2021-08-22T12:53:02Z</time>
      </trkpt>
      <trkpt lat="45.75049" lon="5.82234">
        <ele>773.8</ele>
        <time>2021-08-22T12:53:03Z</time>
      </trkpt>
      <trkpt lat="45.75048" lon="5.82234">
        <ele>774</ele>
        <time>2021-08-22T12:53:05Z</time>
      </trkpt>
      <trkpt lat="45.75047" lon="5.82234">
        <ele>774.2</ele>
        <time>2021-08-22T12:53:06Z</time>
      </trkpt>
      <trkpt lat="45.75041" lon="5.8232">
        <ele>784.2</ele>
        <time>2021-08-22T12:54:47Z</time>
      </trkpt>
      <trkpt lat="45.75039" lon="5.82321">
        <ele>784.5</ele>
        <time>2021-08-22T12:54:48Z</time>
      </trkpt>
      <trkpt lat="45.75038" lon="5.82322">
        <ele>784.7</ele>
        <time>2021-08-22T12:54:49Z</time>
      </trkpt>
      <trkpt lat="45.75037" lon="5.82321">
        <ele>784.9</ele>
        <time>2021-08-22T12:54:50Z</time>
      </trkpt>
      <trkpt lat="45.75033" lon="5.82316">
        <ele>785.7</ele>
        <time>2021-08-22T12:54:52Z</time>
      </trkpt>
      <trkpt lat="45.75029" lon="5.82313">
        <ele>786.4</ele>
        <time>2021-08-22T12:54:54Z</time>
      </trkpt>
      <trkpt lat="45.75027" lon="5.82311">
        <ele>786.7</ele>
        <time>2021-08-22T12:54:55Z</time>
      </trkpt>
      <trkpt lat="45.75026" lon="5.82311">
        <ele>786.7</ele>
        <time>2021-08-22T12:54:56Z</time>
      </trkpt>
      <trkpt lat="45.75021" lon="5.82312">
        <ele>787.5</ele>
        <time>2021-08-22T12:54:58Z</time>
      </trkpt>
      <trkpt lat="45.75016" lon="5.82314">
        <ele>788.2</ele>
        <time>2021-08-22T12:54:59Z</time>
      </trkpt>
      <trkpt lat="45.75011" lon="5.82315">
        <ele>788.9</ele>
        <time>2021-08-22T12:55:00Z</time>
      </trkpt>
      <trkpt lat="45.75006" lon="5.82316">
        <ele>789.5</ele>
        <time>2021-08-22T12:55:02Z</time>
      </trkpt>
      <trkpt lat="45.75001" lon="5.82317">
        <ele>790.2</ele>
        <time>2021-08-22T12:55:03Z</time>
      </trkpt>
      <trkpt lat="45.74996" lon="5.82318">
        <ele>790.9</ele>
        <time>2021-08-22T12:55:04Z</time>
      </trkpt>
      <trkpt lat="45.74991" lon="5.82319">
        <ele>791.5</ele>
        <time>2021-08-22T12:55:38Z</time>
      </trkpt>
      <trkpt lat="45.74987" lon="5.82321">
        <ele>792.2</ele>
        <time>2021-08-22T12:55:39Z</time>
      </trkpt>
      <trkpt lat="45.74984" lon="5.82319">
        <ele>792.6</ele>
        <time>2021-08-22T12:55:41Z</time>
      </trkpt>
      <trkpt lat="45.74982" lon="5.82318">
        <ele>792.8</ele>
        <time>2021-08-22T12:55:42Z</time>
      </trkpt>
      <trkpt lat="45.74979" lon="5.82317">
        <ele>793.2</ele>
        <time>2021-08-22T12:55:44Z</time>
      </trkpt>
      <trkpt lat="45.74977" lon="5.82316">
        <ele>793.5</ele>
        <time>2021-08-22T12:55:46Z</time>
      </trkpt>
      <trkpt lat="45.74977" lon="5.82315">
        <ele>793.6</ele>
        <time>2021-08-22T12:55:47Z</time>
      </trkpt>
      <trkpt lat="45.74978" lon="5.82314">
        <ele>793.7</ele>
        <time>2021-08-22T12:55:49Z</time>
      </trkpt>
      <trkpt lat="45.74978" lon="5.82313">
        <ele>793.8</ele>
        <time>2021-08-22T12:55:50Z</time>
      </trkpt>
      <trkpt lat="45.74977" lon="5.82311">
        <ele>794</ele>
        <time>2021-08-22T12:55:52Z</time>
      </trkpt>
      <trkpt lat="45.74977" lon="5.82311">
        <ele>794.1</ele>
        <time>2021-08-22T12:55:53Z</time>
      </trkpt>
      <trkpt lat="45.74976" lon="5.82311">
        <ele>794.1</ele>
        <time>2021-08-22T12:55:54Z</time>
      </trkpt>
      <trkpt lat="45.74976" lon="5.8231">
        <ele>794.2</ele>
        <time>2021-08-22T12:55:55Z</time>
      </trkpt>
      <trkpt lat="45.74975" lon="5.8231">
        <ele>794.3</ele>
        <time>2021-08-22T12:55:57Z</time>
      </trkpt>
      <trkpt lat="45.74975" lon="5.8231">
        <ele>794.4</ele>
        <time>2021-08-22T12:55:59Z</time>
      </trkpt>
      <trkpt lat="45.74974" lon="5.82309">
        <ele>794.5</ele>
        <time>2021-08-22T12:56:00Z</time>
      </trkpt>
      <trkpt lat="45.74973" lon="5.82309">
        <ele>794.6</ele>
        <time>2021-08-22T12:56:01Z</time>
      </trkpt>
      <trkpt lat="45.74973" lon="5.82309">
        <ele>794.6</ele>
        <time>2021-08-22T12:56:02Z</time>
      </trkpt>
      <trkpt lat="45.74971" lon="5.82309">
        <ele>794.9</ele>
        <time>2021-08-22T12:56:04Z</time>
      </trkpt>
      <trkpt lat="45.74969" lon="5.8231">
        <ele>795.1</ele>
        <time>2021-08-22T12:56:05Z</time>
      </trkpt>
      <trkpt lat="45.74968" lon="5.82311">
        <ele>795.4</ele>
        <time>2021-08-22T12:56:06Z</time>
      </trkpt>
      <trkpt lat="45.74965" lon="5.82312">
        <ele>795.7</ele>
        <time>2021-08-22T12:56:08Z</time>
      </trkpt>
      <trkpt lat="45.74964" lon="5.82313">
        <ele>795.9</ele>
        <time>2021-08-22T12:56:09Z</time>
      </trkpt>
      <trkpt lat="45.74963" lon="5.82313">
        <ele>796</ele>
        <time>2021-08-22T12:56:11Z</time>
      </trkpt>
      <trkpt lat="45.74962" lon="5.82314">
        <ele>796.2</ele>
        <time>2021-08-22T12:56:12Z</time>
      </trkpt>
      <trkpt lat="45.74961" lon="5.82314">
        <ele>796.4</ele>
        <time>2021-08-22T12:56:13Z</time>
      </trkpt>
      <trkpt lat="45.7496" lon="5.82313">
        <ele>796.5</ele>
        <time>2021-08-22T12:56:15Z</time>
      </trkpt>
      <trkpt lat="45.74959" lon="5.82313">
        <ele>796.7</ele>
        <time>2021-08-22T12:56:16Z</time>
      </trkpt>
      <trkpt lat="45.74958" lon="5.82313">
        <ele>796.7</ele>
        <time>2021-08-22T12:56:17Z</time>
      </trkpt>
      <trkpt lat="45.74957" lon="5.82314">
        <ele>796.9</ele>
        <time>2021-08-22T12:56:19Z</time>
      </trkpt>
      <trkpt lat="45.74956" lon="5.82314">
        <ele>797.1</ele>
        <time>2021-08-22T12:56:20Z</time>
      </trkpt>
      <trkpt lat="45.74954" lon="5.82315">
        <ele>797.3</ele>
        <time>2021-08-22T12:56:21Z</time>
      </trkpt>
      <trkpt lat="45.74952" lon="5.82315">
        <ele>797.5</ele>
        <time>2021-08-22T12:56:22Z</time>
      </trkpt>
      <trkpt lat="45.7495" lon="5.82315">
        <ele>797.8</ele>
        <time>2021-08-22T12:56:23Z</time>
      </trkpt>
      <trkpt lat="45.74949" lon="5.82314">
        <ele>797.9</ele>
        <time>2021-08-22T12:56:24Z</time>
      </trkpt>
      <trkpt lat="45.74948" lon="5.82314">
        <ele>798.1</ele>
        <time>2021-08-22T12:56:25Z</time>
      </trkpt>
      <trkpt lat="45.74944" lon="5.82313">
        <ele>798.6</ele>
        <time>2021-08-22T12:56:27Z</time>
      </trkpt>
      <trkpt lat="45.74941" lon="5.8231">
        <ele>799</ele>
        <time>2021-08-22T12:56:29Z</time>
      </trkpt>
      <trkpt lat="45.74941" lon="5.8231">
        <ele>799.1</ele>
        <time>2021-08-22T12:56:30Z</time>
      </trkpt>
      <trkpt lat="45.74934" lon="5.82307">
        <ele>799.9</ele>
        <time>2021-08-22T12:56:31Z</time>
      </trkpt>
      <trkpt lat="45.74928" lon="5.82306">
        <ele>800.7</ele>
        <time>2021-08-22T12:56:32Z</time>
      </trkpt>
      <trkpt lat="45.74923" lon="5.82304">
        <ele>801.5</ele>
        <time>2021-08-22T12:56:34Z</time>
      </trkpt>
      <trkpt lat="45.74917" lon="5.82302">
        <ele>802.3</ele>
        <time>2021-08-22T12:56:35Z</time>
      </trkpt>
      <trkpt lat="45.74912" lon="5.82301">
        <ele>803.1</ele>
        <time>2021-08-22T12:57:52Z</time>
      </trkpt>
      <trkpt lat="45.74906" lon="5.82299">
        <ele>803.9</ele>
        <time>2021-08-22T12:57:54Z</time>
      </trkpt>
      <trkpt lat="45.749" lon="5.82297">
        <ele>804.6</ele>
        <time>2021-08-22T12:57:55Z</time>
      </trkpt>
      <trkpt lat="45.74895" lon="5.82296">
        <ele>805.3</ele>
        <time>2021-08-22T12:57:56Z</time>
      </trkpt>
      <trkpt lat="45.74891" lon="5.82298">
        <ele>805.7</ele>
        <time>2021-08-22T12:57:58Z</time>
      </trkpt>
      <trkpt lat="45.7489" lon="5.82299">
        <ele>805.9</ele>
        <time>2021-08-22T12:57:59Z</time>
      </trkpt>
      <trkpt lat="45.74889" lon="5.82299">
        <ele>806</ele>
        <time>2021-08-22T12:58:00Z</time>
      </trkpt>
      <trkpt lat="45.74886" lon="5.82301">
        <ele>806.3</ele>
        <time>2021-08-22T12:58:02Z</time>
      </trkpt>
      <trkpt lat="45.74883" lon="5.82304">
        <ele>806.6</ele>
        <time>2021-08-22T12:58:03Z</time>
      </trkpt>
      <trkpt lat="45.74881" lon="5.82307">
        <ele>806.9</ele>
        <time>2021-08-22T12:58:05Z</time>
      </trkpt>
      <trkpt lat="45.74878" lon="5.82309">
        <ele>807.1</ele>
        <time>2021-08-22T12:58:06Z</time>
      </trkpt>
      <trkpt lat="45.74876" lon="5.82312">
        <ele>807.4</ele>
        <time>2021-08-22T12:58:07Z</time>
      </trkpt>
      <trkpt lat="45.74873" lon="5.82314">
        <ele>807.6</ele>
        <time>2021-08-22T12:58:09Z</time>
      </trkpt>
      <trkpt lat="45.74871" lon="5.82317">
        <ele>807.8</ele>
        <time>2021-08-22T12:58:24Z</time>
      </trkpt>
      <trkpt lat="45.74868" lon="5.82319">
        <ele>808</ele>
        <time>2021-08-22T12:58:25Z</time>
      </trkpt>
      <trkpt lat="45.74866" lon="5.82322">
        <ele>808.1</ele>
        <time>2021-08-22T12:58:26Z</time>
      </trkpt>
      <trkpt lat="45.74865" lon="5.82323">
        <ele>808.2</ele>
        <time>2021-08-22T12:58:27Z</time>
      </trkpt>
      <trkpt lat="45.74863" lon="5.82324">
        <ele>808.2</ele>
        <time>2021-08-22T12:58:28Z</time>
      </trkpt>
      <trkpt lat="45.74862" lon="5.82325">
        <ele>808.3</ele>
        <time>2021-08-22T12:58:29Z</time>
      </trkpt>
      <trkpt lat="45.74861" lon="5.82326">
        <ele>808.3</ele>
        <time>2021-08-22T12:58:31Z</time>
      </trkpt>
      <trkpt lat="45.7486" lon="5.82327">
        <ele>808.4</ele>
        <time>2021-08-22T12:58:32Z</time>
      </trkpt>
      <trkpt lat="45.74859" lon="5.82328">
        <ele>808.4</ele>
        <time>2021-08-22T12:58:34Z</time>
      </trkpt>
      <trkpt lat="45.74858" lon="5.82328">
        <ele>808.5</ele>
        <time>2021-08-22T12:58:35Z</time>
      </trkpt>
      <trkpt lat="45.74857" lon="5.82329">
        <ele>808.5</ele>
        <time>2021-08-22T12:58:36Z</time>
      </trkpt>
      <trkpt lat="45.74858" lon="5.8233">
        <ele>808.6</ele>
        <time>2021-08-22T12:58:38Z</time>
      </trkpt>
      <trkpt lat="45.74858" lon="5.8233">
        <ele>808.6</ele>
        <time>2021-08-22T12:58:39Z</time>
      </trkpt>
      <trkpt lat="45.74859" lon="5.82331">
        <ele>808.6</ele>
        <time>2021-08-22T12:58:40Z</time>
      </trkpt>
      <trkpt lat="45.7486" lon="5.82333">
        <ele>808.7</ele>
        <time>2021-08-22T12:58:42Z</time>
      </trkpt>
      <trkpt lat="45.74861" lon="5.82335">
        <ele>808.7</ele>
        <time>2021-08-22T12:58:43Z</time>
      </trkpt>
      <trkpt lat="45.74862" lon="5.82336">
        <ele>808.8</ele>
        <time>2021-08-22T12:58:44Z</time>
      </trkpt>
      <trkpt lat="45.74862" lon="5.82337">
        <ele>808.8</ele>
        <time>2021-08-22T12:58:46Z</time>
      </trkpt>
      <trkpt lat="45.74845" lon="5.82334">
        <ele>811.2</ele>
        <time>2021-08-22T12:59:06Z</time>
      </trkpt>
      <trkpt lat="45.7484" lon="5.82333">
        <ele>811.6</ele>
        <time>2021-08-22T12:59:08Z</time>
      </trkpt>
      <trkpt lat="45.74838" lon="5.82333">
        <ele>811.8</ele>
        <time>2021-08-22T12:59:10Z</time>
      </trkpt>
      <trkpt lat="45.74837" lon="5.82332">
        <ele>811.9</ele>
        <time>2021-08-22T12:59:11Z</time>
      </trkpt>
      <trkpt lat="45.74837" lon="5.82332">
        <ele>811.9</ele>
        <time>2021-08-22T12:59:12Z</time>
      </trkpt>
      <trkpt lat="45.74837" lon="5.82332">
        <ele>811.9</ele>
        <time>2021-08-22T12:59:14Z</time>
      </trkpt>
      <trkpt lat="45.74836" lon="5.82332">
        <ele>812</ele>
        <time>2021-08-22T12:59:15Z</time>
      </trkpt>
      <trkpt lat="45.74835" lon="5.82333">
        <ele>812.1</ele>
        <time>2021-08-22T12:59:17Z</time>
      </trkpt>
      <trkpt lat="45.74835" lon="5.82334">
        <ele>812.1</ele>
        <time>2021-08-22T12:59:18Z</time>
      </trkpt>
      <trkpt lat="45.74835" lon="5.8234">
        <ele>812.5</ele>
        <time>2021-08-22T12:59:21Z</time>
      </trkpt>
      <trkpt lat="45.74837" lon="5.82348">
        <ele>812.9</ele>
        <time>2021-08-22T12:59:22Z</time>
      </trkpt>
      <trkpt lat="45.74839" lon="5.8236">
        <ele>813.5</ele>
        <time>2021-08-22T12:59:23Z</time>
      </trkpt>
      <trkpt lat="45.7484" lon="5.82367">
        <ele>813.8</ele>
        <time>2021-08-22T12:59:24Z</time>
      </trkpt>
      <trkpt lat="45.74843" lon="5.82376">
        <ele>814.1</ele>
        <time>2021-08-22T12:59:26Z</time>
      </trkpt>
      <trkpt lat="45.74842" lon="5.82374">
        <ele>814.2</ele>
        <time>2021-08-22T12:59:27Z</time>
      </trkpt>
      <trkpt lat="45.74841" lon="5.82373">
        <ele>814.3</ele>
        <time>2021-08-22T12:59:29Z</time>
      </trkpt>
      <trkpt lat="45.7484" lon="5.82371">
        <ele>814.4</ele>
        <time>2021-08-22T12:59:31Z</time>
      </trkpt>
      <trkpt lat="45.74838" lon="5.82369">
        <ele>814.4</ele>
        <time>2021-08-22T12:59:32Z</time>
      </trkpt>
      <trkpt lat="45.74835" lon="5.8236">
        <ele>814.8</ele>
        <time>2021-08-22T12:59:34Z</time>
      </trkpt>
      <trkpt lat="45.74832" lon="5.82351">
        <ele>815.1</ele>
        <time>2021-08-22T12:59:35Z</time>
      </trkpt>
      <trkpt lat="45.74829" lon="5.82342">
        <ele>815.5</ele>
        <time>2021-08-22T12:59:37Z</time>
      </trkpt>
      <trkpt lat="45.74827" lon="5.82336">
        <ele>815.7</ele>
        <time>2021-08-22T12:59:38Z</time>
      </trkpt>
      <trkpt lat="45.74826" lon="5.8233">
        <ele>816</ele>
        <time>2021-08-22T12:59:39Z</time>
      </trkpt>
      <trkpt lat="45.74825" lon="5.82323">
        <ele>816.2</ele>
        <time>2021-08-22T12:59:41Z</time>
      </trkpt>
      <trkpt lat="45.74824" lon="5.82314">
        <ele>816.6</ele>
        <time>2021-08-22T12:59:42Z</time>
      </trkpt>
      <trkpt lat="45.74824" lon="5.82309">
        <ele>816.9</ele>
        <time>2021-08-22T12:59:43Z</time>
      </trkpt>
      <trkpt lat="45.74823" lon="5.82306">
        <ele>817</ele>
        <time>2021-08-22T12:59:44Z</time>
      </trkpt>
      <trkpt lat="45.74825" lon="5.82301">
        <ele>817.3</ele>
        <time>2021-08-22T12:59:46Z</time>
      </trkpt>
      <trkpt lat="45.74826" lon="5.82294">
        <ele>817.6</ele>
        <time>2021-08-22T12:59:48Z</time>
      </trkpt>
      <trkpt lat="45.74826" lon="5.82292">
        <ele>817.7</ele>
        <time>2021-08-22T12:59:49Z</time>
      </trkpt>
      <trkpt lat="45.74826" lon="5.82289">
        <ele>817.8</ele>
        <time>2021-08-22T12:59:50Z</time>
      </trkpt>
      <trkpt lat="45.74826" lon="5.82285">
        <ele>818.1</ele>
        <time>2021-08-22T12:59:51Z</time>
      </trkpt>
      <trkpt lat="45.74826" lon="5.82284">
        <ele>818.2</ele>
        <time>2021-08-22T12:59:52Z</time>
      </trkpt>
      <trkpt lat="45.74827" lon="5.82279">
        <ele>818.4</ele>
        <time>2021-08-22T12:59:54Z</time>
      </trkpt>
      <trkpt lat="45.74828" lon="5.82276">
        <ele>818.6</ele>
        <time>2021-08-22T12:59:55Z</time>
      </trkpt>
      <trkpt lat="45.7483" lon="5.82274">
        <ele>818.8</ele>
        <time>2021-08-22T12:59:57Z</time>
      </trkpt>
      <trkpt lat="45.74831" lon="5.82273">
        <ele>818.9</ele>
        <time>2021-08-22T12:59:58Z</time>
      </trkpt>
      <trkpt lat="45.7483" lon="5.8227">
        <ele>819.1</ele>
        <time>2021-08-22T12:59:59Z</time>
      </trkpt>
      <trkpt lat="45.74829" lon="5.82268">
        <ele>819.2</ele>
        <time>2021-08-22T13:00:00Z</time>
      </trkpt>
      <trkpt lat="45.74828" lon="5.82266">
        <ele>819.4</ele>
        <time>2021-08-22T13:00:01Z</time>
      </trkpt>
      <trkpt lat="45.74828" lon="5.82263">
        <ele>819.6</ele>
        <time>2021-08-22T13:00:02Z</time>
      </trkpt>
      <trkpt lat="45.74827" lon="5.82261">
        <ele>819.7</ele>
        <time>2021-08-22T13:00:04Z</time>
      </trkpt>
      <trkpt lat="45.74826" lon="5.82258">
        <ele>819.9</ele>
        <time>2021-08-22T13:00:05Z</time>
      </trkpt>
      <trkpt lat="45.74825" lon="5.82256">
        <ele>820.1</ele>
        <time>2021-08-22T13:00:06Z</time>
      </trkpt>
      <trkpt lat="45.74824" lon="5.82253">
        <ele>820.4</ele>
        <time>2021-08-22T13:00:08Z</time>
      </trkpt>
      <trkpt lat="45.74824" lon="5.82251">
        <ele>820.7</ele>
        <time>2021-08-22T13:00:21Z</time>
      </trkpt>
      <trkpt lat="45.74823" lon="5.82248">
        <ele>821</ele>
        <time>2021-08-22T13:00:23Z</time>
      </trkpt>
      <trkpt lat="45.74822" lon="5.82246">
        <ele>821.3</ele>
        <time>2021-08-22T13:00:25Z</time>
      </trkpt>
      <trkpt lat="45.74821" lon="5.82244">
        <ele>821.5</ele>
        <time>2021-08-22T13:00:26Z</time>
      </trkpt>
      <trkpt lat="45.7482" lon="5.82241">
        <ele>821.8</ele>
        <time>2021-08-22T13:00:27Z</time>
      </trkpt>
      <trkpt lat="45.74818" lon="5.82238">
        <ele>822.4</ele>
        <time>2021-08-22T13:00:29Z</time>
      </trkpt>
      <trkpt lat="45.74817" lon="5.82236">
        <ele>822.6</ele>
        <time>2021-08-22T13:00:30Z</time>
      </trkpt>
      <trkpt lat="45.74815" lon="5.82234">
        <ele>823</ele>
        <time>2021-08-22T13:00:31Z</time>
      </trkpt>
      <trkpt lat="45.74812" lon="5.82232">
        <ele>823.4</ele>
        <time>2021-08-22T13:00:33Z</time>
      </trkpt>
      <trkpt lat="45.74811" lon="5.8223">
        <ele>823.7</ele>
        <time>2021-08-22T13:00:34Z</time>
      </trkpt>
      <trkpt lat="45.7481" lon="5.82229">
        <ele>823.9</ele>
        <time>2021-08-22T13:00:35Z</time>
      </trkpt>
      <trkpt lat="45.7481" lon="5.82229">
        <ele>824</ele>
        <time>2021-08-22T13:00:37Z</time>
      </trkpt>
      <trkpt lat="45.74809" lon="5.82228">
        <ele>824.1</ele>
        <time>2021-08-22T13:00:38Z</time>
      </trkpt>
      <trkpt lat="45.74808" lon="5.82228">
        <ele>824.2</ele>
        <time>2021-08-22T13:00:39Z</time>
      </trkpt>
      <trkpt lat="45.74808" lon="5.82228">
        <ele>824.2</ele>
        <time>2021-08-22T13:00:40Z</time>
      </trkpt>
      <trkpt lat="45.74808" lon="5.82228">
        <ele>824.2</ele>
        <time>2021-08-22T13:00:42Z</time>
      </trkpt>
      <trkpt lat="45.74808" lon="5.82228">
        <ele>824.3</ele>
        <time>2021-08-22T13:00:43Z</time>
      </trkpt>
      <trkpt lat="45.74807" lon="5.82227">
        <ele>824.4</ele>
        <time>2021-08-22T13:00:45Z</time>
      </trkpt>
      <trkpt lat="45.74807" lon="5.82227">
        <ele>824.5</ele>
        <time>2021-08-22T13:00:46Z</time>
      </trkpt>
      <trkpt lat="45.74806" lon="5.82228">
        <ele>824.6</ele>
        <time>2021-08-22T13:00:47Z</time>
      </trkpt>
      <trkpt lat="45.74806" lon="5.8223">
        <ele>824.8</ele>
        <time>2021-08-22T13:00:49Z</time>
      </trkpt>
      <trkpt lat="45.74806" lon="5.82232">
        <ele>825</ele>
        <time>2021-08-22T13:00:51Z</time>
      </trkpt>
      <trkpt lat="45.74805" lon="5.82234">
        <ele>825.3</ele>
        <time>2021-08-22T13:00:53Z</time>
      </trkpt>
      <trkpt lat="45.74805" lon="5.82235">
        <ele>825.4</ele>
        <time>2021-08-22T13:00:54Z</time>
      </trkpt>
      <trkpt lat="45.74805" lon="5.82236">
        <ele>825.5</ele>
        <time>2021-08-22T13:00:56Z</time>
      </trkpt>
      <trkpt lat="45.74805" lon="5.82237">
        <ele>825.6</ele>
        <time>2021-08-22T13:00:58Z</time>
      </trkpt>
      <trkpt lat="45.74805" lon="5.82239">
        <ele>825.8</ele>
        <time>2021-08-22T13:00:59Z</time>
      </trkpt>
      <trkpt lat="45.74804" lon="5.82241">
        <ele>826.2</ele>
        <time>2021-08-22T13:01:00Z</time>
      </trkpt>
      <trkpt lat="45.74804" lon="5.82244">
        <ele>826.5</ele>
        <time>2021-08-22T13:01:01Z</time>
      </trkpt>
      <trkpt lat="45.74803" lon="5.82244">
        <ele>826.6</ele>
        <time>2021-08-22T13:01:03Z</time>
      </trkpt>
      <trkpt lat="45.74802" lon="5.82244">
        <ele>826.8</ele>
        <time>2021-08-22T13:01:05Z</time>
      </trkpt>
      <trkpt lat="45.74802" lon="5.82244">
        <ele>826.9</ele>
        <time>2021-08-22T13:01:06Z</time>
      </trkpt>
      <trkpt lat="45.74801" lon="5.82244">
        <ele>827</ele>
        <time>2021-08-22T13:01:08Z</time>
      </trkpt>
      <trkpt lat="45.748" lon="5.82244">
        <ele>827.1</ele>
        <time>2021-08-22T13:01:10Z</time>
      </trkpt>
      <trkpt lat="45.748" lon="5.82244">
        <ele>827.2</ele>
        <time>2021-08-22T13:01:11Z</time>
      </trkpt>
      <trkpt lat="45.74799" lon="5.82244">
        <ele>827.4</ele>
        <time>2021-08-22T13:01:12Z</time>
      </trkpt>
      <trkpt lat="45.74798" lon="5.82244">
        <ele>827.5</ele>
        <time>2021-08-22T13:01:13Z</time>
      </trkpt>
      <trkpt lat="45.74798" lon="5.82244">
        <ele>827.6</ele>
        <time>2021-08-22T13:01:14Z</time>
      </trkpt>
      <trkpt lat="45.74797" lon="5.82244">
        <ele>827.7</ele>
        <time>2021-08-22T13:01:15Z</time>
      </trkpt>
      <trkpt lat="45.74796" lon="5.82244">
        <ele>827.8</ele>
        <time>2021-08-22T13:01:17Z</time>
      </trkpt>
      <trkpt lat="45.74796" lon="5.82244">
        <ele>828</ele>
        <time>2021-08-22T13:01:18Z</time>
      </trkpt>
      <trkpt lat="45.74795" lon="5.82244">
        <ele>828.1</ele>
        <time>2021-08-22T13:01:19Z</time>
      </trkpt>
      <trkpt lat="45.74794" lon="5.82242">
        <ele>828.4</ele>
        <time>2021-08-22T13:01:21Z</time>
      </trkpt>
      <trkpt lat="45.74793" lon="5.82241">
        <ele>828.7</ele>
        <time>2021-08-22T13:01:22Z</time>
      </trkpt>
      <trkpt lat="45.74792" lon="5.8224">
        <ele>828.9</ele>
        <time>2021-08-22T13:01:24Z</time>
      </trkpt>
      <trkpt lat="45.74792" lon="5.82239">
        <ele>828.9</ele>
        <time>2021-08-22T13:01:25Z</time>
      </trkpt>
      <trkpt lat="45.74792" lon="5.82238">
        <ele>829</ele>
        <time>2021-08-22T13:01:26Z</time>
      </trkpt>
      <trkpt lat="45.74792" lon="5.82237">
        <ele>829.2</ele>
        <time>2021-08-22T13:01:28Z</time>
      </trkpt>
      <trkpt lat="45.74791" lon="5.82237">
        <ele>829.3</ele>
        <time>2021-08-22T13:01:30Z</time>
      </trkpt>
      <trkpt lat="45.74791" lon="5.82236">
        <ele>829.4</ele>
        <time>2021-08-22T13:01:31Z</time>
      </trkpt>
      <trkpt lat="45.74788" lon="5.82236">
        <ele>829.8</ele>
        <time>2021-08-22T13:01:33Z</time>
      </trkpt>
      <trkpt lat="45.74785" lon="5.82236">
        <ele>830.3</ele>
        <time>2021-08-22T13:01:35Z</time>
      </trkpt>
      <trkpt lat="45.74784" lon="5.82237">
        <ele>830.5</ele>
        <time>2021-08-22T13:01:36Z</time>
      </trkpt>
      <trkpt lat="45.74783" lon="5.82237">
        <ele>830.7</ele>
        <time>2021-08-22T13:01:37Z</time>
      </trkpt>
      <trkpt lat="45.74781" lon="5.82237">
        <ele>830.9</ele>
        <time>2021-08-22T13:01:38Z</time>
      </trkpt>
      <trkpt lat="45.74781" lon="5.82237">
        <ele>831</ele>
        <time>2021-08-22T13:01:40Z</time>
      </trkpt>
      <trkpt lat="45.7478" lon="5.82237">
        <ele>831.1</ele>
        <time>2021-08-22T13:01:41Z</time>
      </trkpt>
      <trkpt lat="45.74779" lon="5.82237">
        <ele>831.2</ele>
        <time>2021-08-22T13:01:42Z</time>
      </trkpt>
      <trkpt lat="45.74779" lon="5.82237">
        <ele>831.2</ele>
        <time>2021-08-22T13:01:44Z</time>
      </trkpt>
      <trkpt lat="45.74779" lon="5.82237">
        <ele>831.3</ele>
        <time>2021-08-22T13:01:45Z</time>
      </trkpt>
      <trkpt lat="45.74778" lon="5.82236">
        <ele>831.4</ele>
        <time>2021-08-22T13:01:48Z</time>
      </trkpt>
      <trkpt lat="45.74776" lon="5.82234">
        <ele>831.7</ele>
        <time>2021-08-22T13:01:49Z</time>
      </trkpt>
      <trkpt lat="45.74774" lon="5.82231">
        <ele>832.1</ele>
        <time>2021-08-22T13:01:50Z</time>
      </trkpt>
      <trkpt lat="45.74773" lon="5.8223">
        <ele>832.2</ele>
        <time>2021-08-22T13:01:51Z</time>
      </trkpt>
      <trkpt lat="45.74771" lon="5.82228">
        <ele>832.6</ele>
        <time>2021-08-22T13:01:53Z</time>
      </trkpt>
      <trkpt lat="45.7477" lon="5.82226">
        <ele>832.7</ele>
        <time>2021-08-22T13:01:54Z</time>
      </trkpt>
      <trkpt lat="45.74769" lon="5.82225">
        <ele>832.9</ele>
        <time>2021-08-22T13:01:55Z</time>
      </trkpt>
      <trkpt lat="45.74768" lon="5.82224">
        <ele>833</ele>
        <time>2021-08-22T13:01:56Z</time>
      </trkpt>
      <trkpt lat="45.74767" lon="5.82221">
        <ele>833.3</ele>
        <time>2021-08-22T13:01:58Z</time>
      </trkpt>
      <trkpt lat="45.74767" lon="5.8222">
        <ele>833.4</ele>
        <time>2021-08-22T13:01:59Z</time>
      </trkpt>
      <trkpt lat="45.74766" lon="5.82219">
        <ele>833.6</ele>
        <time>2021-08-22T13:02:01Z</time>
      </trkpt>
      <trkpt lat="45.74766" lon="5.82218">
        <ele>833.7</ele>
        <time>2021-08-22T13:02:02Z</time>
      </trkpt>
      <trkpt lat="45.74766" lon="5.82218">
        <ele>833.7</ele>
        <time>2021-08-22T13:02:03Z</time>
      </trkpt>
      <trkpt lat="45.74765" lon="5.82217">
        <ele>833.8</ele>
        <time>2021-08-22T13:02:04Z</time>
      </trkpt>
      <trkpt lat="45.74765" lon="5.82217">
        <ele>833.8</ele>
        <time>2021-08-22T13:02:06Z</time>
      </trkpt>
      <trkpt lat="45.74765" lon="5.82217">
        <ele>833.9</ele>
        <time>2021-08-22T13:02:07Z</time>
      </trkpt>
      <trkpt lat="45.74765" lon="5.82217">
        <ele>833.9</ele>
        <time>2021-08-22T13:02:08Z</time>
      </trkpt>
      <trkpt lat="45.74765" lon="5.82216">
        <ele>834</ele>
        <time>2021-08-22T13:02:10Z</time>
      </trkpt>
      <trkpt lat="45.74764" lon="5.82214">
        <ele>834.2</ele>
        <time>2021-08-22T13:02:11Z</time>
      </trkpt>
      <trkpt lat="45.74764" lon="5.82211">
        <ele>834.5</ele>
        <time>2021-08-22T13:02:13Z</time>
      </trkpt>
      <trkpt lat="45.74763" lon="5.82209">
        <ele>834.7</ele>
        <time>2021-08-22T13:02:14Z</time>
      </trkpt>
      <trkpt lat="45.74761" lon="5.82206">
        <ele>835.1</ele>
        <time>2021-08-22T13:02:16Z</time>
      </trkpt>
      <trkpt lat="45.7476" lon="5.82205">
        <ele>835.3</ele>
        <time>2021-08-22T13:02:17Z</time>
      </trkpt>
      <trkpt lat="45.74759" lon="5.82204">
        <ele>835.5</ele>
        <time>2021-08-22T13:02:18Z</time>
      </trkpt>
      <trkpt lat="45.74758" lon="5.82203">
        <ele>835.6</ele>
        <time>2021-08-22T13:02:20Z</time>
      </trkpt>
      <trkpt lat="45.74758" lon="5.82202">
        <ele>835.7</ele>
        <time>2021-08-22T13:02:21Z</time>
      </trkpt>
      <trkpt lat="45.74757" lon="5.82202">
        <ele>835.8</ele>
        <time>2021-08-22T13:02:22Z</time>
      </trkpt>
      <trkpt lat="45.74756" lon="5.822">
        <ele>836</ele>
        <time>2021-08-22T13:02:24Z</time>
      </trkpt>
      <trkpt lat="45.74755" lon="5.822">
        <ele>836</ele>
        <time>2021-08-22T13:02:25Z</time>
      </trkpt>
      <trkpt lat="45.74755" lon="5.82199">
        <ele>836.1</ele>
        <time>2021-08-22T13:02:27Z</time>
      </trkpt>
      <trkpt lat="45.74755" lon="5.82199">
        <ele>836.1</ele>
        <time>2021-08-22T13:02:28Z</time>
      </trkpt>
      <trkpt lat="45.74754" lon="5.82198">
        <ele>836.1</ele>
        <time>2021-08-22T13:02:29Z</time>
      </trkpt>
      <trkpt lat="45.74754" lon="5.82197">
        <ele>836.2</ele>
        <time>2021-08-22T13:02:32Z</time>
      </trkpt>
      <trkpt lat="45.74754" lon="5.82197">
        <ele>836.2</ele>
        <time>2021-08-22T13:02:34Z</time>
      </trkpt>
      <trkpt lat="45.74753" lon="5.82196">
        <ele>836.3</ele>
        <time>2021-08-22T13:02:35Z</time>
      </trkpt>
      <trkpt lat="45.74754" lon="5.82195">
        <ele>836.4</ele>
        <time>2021-08-22T13:02:37Z</time>
      </trkpt>
      <trkpt lat="45.74755" lon="5.82195">
        <ele>836.4</ele>
        <time>2021-08-22T13:02:38Z</time>
      </trkpt>
      <trkpt lat="45.74755" lon="5.82195">
        <ele>836.4</ele>
        <time>2021-08-22T13:02:40Z</time>
      </trkpt>
      <trkpt lat="45.74755" lon="5.82195">
        <ele>836.4</ele>
        <time>2021-08-22T13:02:41Z</time>
      </trkpt>
      <trkpt lat="45.74756" lon="5.82194">
        <ele>836.4</ele>
        <time>2021-08-22T13:02:43Z</time>
      </trkpt>
      <trkpt lat="45.74756" lon="5.82194">
        <ele>836.4</ele>
        <time>2021-08-22T13:02:44Z</time>
      </trkpt>
      <trkpt lat="45.74756" lon="5.82194">
        <ele>836.4</ele>
        <time>2021-08-22T13:02:45Z</time>
      </trkpt>
      <trkpt lat="45.74756" lon="5.82194">
        <ele>836.4</ele>
        <time>2021-08-22T13:02:47Z</time>
      </trkpt>
      <trkpt lat="45.74756" lon="5.82194">
        <ele>836.4</ele>
        <time>2021-08-22T13:02:48Z</time>
      </trkpt>
      <trkpt lat="45.74756" lon="5.82194">
        <ele>836.5</ele>
        <time>2021-08-22T13:02:50Z</time>
      </trkpt>
      <trkpt lat="45.74756" lon="5.82194">
        <ele>836.5</ele>
        <time>2021-08-22T13:02:51Z</time>
      </trkpt>
      <trkpt lat="45.74756" lon="5.82194">
        <ele>836.5</ele>
        <time>2021-08-22T13:02:53Z</time>
      </trkpt>
      <trkpt lat="45.74757" lon="5.82194">
        <ele>836.5</ele>
        <time>2021-08-22T13:02:55Z</time>
      </trkpt>
      <trkpt lat="45.74757" lon="5.82194">
        <ele>836.5</ele>
        <time>2021-08-22T13:02:56Z</time>
      </trkpt>
      <trkpt lat="45.74757" lon="5.82194">
        <ele>836.5</ele>
        <time>2021-08-22T13:02:58Z</time>
      </trkpt>
      <trkpt lat="45.74757" lon="5.82194">
        <ele>836.5</ele>
        <time>2021-08-22T13:02:59Z</time>
      </trkpt>
      <trkpt lat="45.74757" lon="5.82195">
        <ele>836.5</ele>
        <time>2021-08-22T13:03:00Z</time>
      </trkpt>
      <trkpt lat="45.74757" lon="5.82194">
        <ele>836.5</ele>
        <time>2021-08-22T13:03:02Z</time>
      </trkpt>
      <trkpt lat="45.74757" lon="5.82193">
        <ele>836.5</ele>
        <time>2021-08-22T13:03:03Z</time>
      </trkpt>
      <trkpt lat="45.74757" lon="5.82192">
        <ele>836.5</ele>
        <time>2021-08-22T13:03:04Z</time>
      </trkpt>
      <trkpt lat="45.74759" lon="5.82185">
        <ele>836.5</ele>
        <time>2021-08-22T13:03:06Z</time>
      </trkpt>
      <trkpt lat="45.74761" lon="5.82183">
        <ele>836.4</ele>
        <time>2021-08-22T13:03:08Z</time>
      </trkpt>
      <trkpt lat="45.74762" lon="5.82183">
        <ele>836.4</ele>
        <time>2021-08-22T13:03:09Z</time>
      </trkpt>
      <trkpt lat="45.74762" lon="5.82183">
        <ele>836.4</ele>
        <time>2021-08-22T13:03:11Z</time>
      </trkpt>
      <trkpt lat="45.74762" lon="5.82183">
        <ele>836.4</ele>
        <time>2021-08-22T13:03:13Z</time>
      </trkpt>
      <trkpt lat="45.74762" lon="5.82183">
        <ele>836.4</ele>
        <time>2021-08-22T13:03:15Z</time>
      </trkpt>
      <trkpt lat="45.74762" lon="5.82183">
        <ele>836.4</ele>
        <time>2021-08-22T13:03:17Z</time>
      </trkpt>
      <trkpt lat="45.74762" lon="5.82183">
        <ele>836.4</ele>
        <time>2021-08-22T13:03:18Z</time>
      </trkpt>
      <trkpt lat="45.74762" lon="5.82183">
        <ele>836.4</ele>
        <time>2021-08-22T13:03:20Z</time>
      </trkpt>
      <trkpt lat="45.74762" lon="5.82183">
        <ele>836.4</ele>
        <time>2021-08-22T13:03:21Z</time>
      </trkpt>
      <trkpt lat="45.74762" lon="5.82183">
        <ele>836.4</ele>
        <time>2021-08-22T13:03:23Z</time>
      </trkpt>
      <trkpt lat="45.74762" lon="5.82183">
        <ele>836.4</ele>
        <time>2021-08-22T13:03:24Z</time>
      </trkpt>
      <trkpt lat="45.74762" lon="5.82183">
        <ele>836.4</ele>
        <time>2021-08-22T13:03:25Z</time>
      </trkpt>
      <trkpt lat="45.74762" lon="5.82183">
        <ele>836.4</ele>
        <time>2021-08-22T13:03:27Z</time>
      </trkpt>
      <trkpt lat="45.74763" lon="5.82181">
        <ele>836.3</ele>
        <time>2021-08-22T13:03:28Z</time>
      </trkpt>
      <trkpt lat="45.74763" lon="5.82179">
        <ele>836.3</ele>
        <time>2021-08-22T13:03:29Z</time>
      </trkpt>
      <trkpt lat="45.74762" lon="5.82178">
        <ele>836.2</ele>
        <time>2021-08-22T13:03:31Z</time>
      </trkpt>
      <trkpt lat="45.74761" lon="5.82178">
        <ele>836.1</ele>
        <time>2021-08-22T13:03:33Z</time>
      </trkpt>
      <trkpt lat="45.74761" lon="5.82177">
        <ele>836.1</ele>
        <time>2021-08-22T13:03:35Z</time>
      </trkpt>
      <trkpt lat="45.74761" lon="5.82175">
        <ele>836</ele>
        <time>2021-08-22T13:03:36Z</time>
      </trkpt>
      <trkpt lat="45.74761" lon="5.82171">
        <ele>835.8</ele>
        <time>2021-08-22T13:03:38Z</time>
      </trkpt>
      <trkpt lat="45.7476" lon="5.82166">
        <ele>835.6</ele>
        <time>2021-08-22T13:03:39Z</time>
      </trkpt>
      <trkpt lat="45.7476" lon="5.82161">
        <ele>835.4</ele>
        <time>2021-08-22T13:03:40Z</time>
      </trkpt>
      <trkpt lat="45.7476" lon="5.82151">
        <ele>835.1</ele>
        <time>2021-08-22T13:03:42Z</time>
      </trkpt>
      <trkpt lat="45.74759" lon="5.82143">
        <ele>834.9</ele>
        <time>2021-08-22T13:03:43Z</time>
      </trkpt>
      <trkpt lat="45.74759" lon="5.82133">
        <ele>834.6</ele>
        <time>2021-08-22T13:03:44Z</time>
      </trkpt>
      <trkpt lat="45.74758" lon="5.82123">
        <ele>834.3</ele>
        <time>2021-08-22T13:03:46Z</time>
      </trkpt>
      <trkpt lat="45.74758" lon="5.82114">
        <ele>833.9</ele>
        <time>2021-08-22T13:03:47Z</time>
      </trkpt>
      <trkpt lat="45.74758" lon="5.82107">
        <ele>833.6</ele>
        <time>2021-08-22T13:03:48Z</time>
      </trkpt>
      <trkpt lat="45.74757" lon="5.82097">
        <ele>833</ele>
        <time>2021-08-22T13:03:50Z</time>
      </trkpt>
      <trkpt lat="45.74756" lon="5.82091">
        <ele>832.6</ele>
        <time>2021-08-22T13:03:51Z</time>
      </trkpt>
      <trkpt lat="45.74755" lon="5.82085">
        <ele>832.2</ele>
        <time>2021-08-22T13:03:52Z</time>
      </trkpt>
      <trkpt lat="45.74753" lon="5.82081">
        <ele>831.9</ele>
        <time>2021-08-22T13:03:53Z</time>
      </trkpt>
      <trkpt lat="45.7475" lon="5.82077">
        <ele>831.7</ele>
        <time>2021-08-22T13:03:54Z</time>
      </trkpt>
      <trkpt lat="45.74746" lon="5.82071">
        <ele>831.3</ele>
        <time>2021-08-22T13:03:55Z</time>
      </trkpt>
      <trkpt lat="45.74742" lon="5.82065">
        <ele>831.1</ele>
        <time>2021-08-22T13:03:57Z</time>
      </trkpt>
      <trkpt lat="45.74738" lon="5.82059">
        <ele>830.9</ele>
        <time>2021-08-22T13:03:58Z</time>
      </trkpt>
      <trkpt lat="45.74733" lon="5.82053">
        <ele>830.7</ele>
        <time>2021-08-22T13:03:59Z</time>
      </trkpt>
      <trkpt lat="45.7473" lon="5.82048">
        <ele>830.6</ele>
        <time>2021-08-22T13:04:00Z</time>
      </trkpt>
      <trkpt lat="45.74724" lon="5.82043">
        <ele>830.6</ele>
        <time>2021-08-22T13:04:02Z</time>
      </trkpt>
      <trkpt lat="45.74721" lon="5.82039">
        <ele>830.6</ele>
        <time>2021-08-22T13:04:03Z</time>
      </trkpt>
      <trkpt lat="45.74715" lon="5.82032">
        <ele>830.6</ele>
        <time>2021-08-22T13:04:04Z</time>
      </trkpt>
      <trkpt lat="45.74715" lon="5.8203">
        <ele>830.6</ele>
        <time>2021-08-22T13:04:05Z</time>
      </trkpt>
      <trkpt lat="45.74713" lon="5.82026">
        <ele>830.6</ele>
        <time>2021-08-22T13:04:07Z</time>
      </trkpt>
      <trkpt lat="45.7471" lon="5.82021">
        <ele>830.6</ele>
        <time>2021-08-22T13:04:08Z</time>
      </trkpt>
      <trkpt lat="45.74708" lon="5.82016">
        <ele>830.5</ele>
        <time>2021-08-22T13:04:09Z</time>
      </trkpt>
      <trkpt lat="45.74706" lon="5.82012">
        <ele>830.4</ele>
        <time>2021-08-22T13:04:11Z</time>
      </trkpt>
      <trkpt lat="45.74704" lon="5.82007">
        <ele>830.3</ele>
        <time>2021-08-22T13:04:12Z</time>
      </trkpt>
      <trkpt lat="45.74703" lon="5.82003">
        <ele>830.2</ele>
        <time>2021-08-22T13:04:13Z</time>
      </trkpt>
      <trkpt lat="45.74703" lon="5.81998">
        <ele>829.9</ele>
        <time>2021-08-22T13:04:15Z</time>
      </trkpt>
      <trkpt lat="45.74701" lon="5.81993">
        <ele>829.7</ele>
        <time>2021-08-22T13:04:16Z</time>
      </trkpt>
      <trkpt lat="45.74698" lon="5.81989">
        <ele>829.4</ele>
        <time>2021-08-22T13:04:17Z</time>
      </trkpt>
      <trkpt lat="45.74697" lon="5.81988">
        <ele>829.3</ele>
        <time>2021-08-22T13:04:18Z</time>
      </trkpt>
      <trkpt lat="45.74695" lon="5.81981">
        <ele>829</ele>
        <time>2021-08-22T13:04:20Z</time>
      </trkpt>
      <trkpt lat="45.74694" lon="5.81978">
        <ele>828.8</ele>
        <time>2021-08-22T13:04:21Z</time>
      </trkpt>
      <trkpt lat="45.74693" lon="5.81975">
        <ele>828.7</ele>
        <time>2021-08-22T13:04:22Z</time>
      </trkpt>
      <trkpt lat="45.74692" lon="5.8197">
        <ele>828.5</ele>
        <time>2021-08-22T13:04:23Z</time>
      </trkpt>
      <trkpt lat="45.74691" lon="5.81959">
        <ele>828.2</ele>
        <time>2021-08-22T13:04:24Z</time>
      </trkpt>
      <trkpt lat="45.7469" lon="5.8195">
        <ele>828</ele>
        <time>2021-08-22T13:04:25Z</time>
      </trkpt>
      <trkpt lat="45.7469" lon="5.81941">
        <ele>827.8</ele>
        <time>2021-08-22T13:04:26Z</time>
      </trkpt>
      <trkpt lat="45.74688" lon="5.81934">
        <ele>827.6</ele>
        <time>2021-08-22T13:04:27Z</time>
      </trkpt>
      <trkpt lat="45.74685" lon="5.81922">
        <ele>827.2</ele>
        <time>2021-08-22T13:04:29Z</time>
      </trkpt>
      <trkpt lat="45.74687" lon="5.81914">
        <ele>826.9</ele>
        <time>2021-08-22T13:04:31Z</time>
      </trkpt>
      <trkpt lat="45.74683" lon="5.81904">
        <ele>826.5</ele>
        <time>2021-08-22T13:04:32Z</time>
      </trkpt>
      <trkpt lat="45.74681" lon="5.81899">
        <ele>826.3</ele>
        <time>2021-08-22T13:04:33Z</time>
      </trkpt>
      <trkpt lat="45.7468" lon="5.81894">
        <ele>826.1</ele>
        <time>2021-08-22T13:04:35Z</time>
      </trkpt>
      <trkpt lat="45.74679" lon="5.81892">
        <ele>826</ele>
        <time>2021-08-22T13:04:36Z</time>
      </trkpt>
      <trkpt lat="45.74678" lon="5.81889">
        <ele>825.8</ele>
        <time>2021-08-22T13:04:37Z</time>
      </trkpt>
      <trkpt lat="45.74676" lon="5.81884">
        <ele>825.5</ele>
        <time>2021-08-22T13:04:39Z</time>
      </trkpt>
      <trkpt lat="45.74674" lon="5.81878">
        <ele>825.3</ele>
        <time>2021-08-22T13:04:40Z</time>
      </trkpt>
      <trkpt lat="45.74672" lon="5.81874">
        <ele>824.6</ele>
        <time>2021-08-22T13:04:42Z</time>
      </trkpt>
      <trkpt lat="45.74625" lon="5.81906">
        <ele>823.5</ele>
        <time>2021-08-22T13:05:22Z</time>
      </trkpt>
      <trkpt lat="45.74621" lon="5.81909">
        <ele>823.3</ele>
        <time>2021-08-22T13:05:23Z</time>
      </trkpt>
      <trkpt lat="45.74614" lon="5.81912">
        <ele>823.1</ele>
        <time>2021-08-22T13:05:25Z</time>
      </trkpt>
      <trkpt lat="45.74602" lon="5.8191">
        <ele>822.8</ele>
        <time>2021-08-22T13:05:26Z</time>
      </trkpt>
      <trkpt lat="45.74597" lon="5.81909">
        <ele>822.7</ele>
        <time>2021-08-22T13:05:27Z</time>
      </trkpt>
      <trkpt lat="45.7459" lon="5.81908">
        <ele>822.5</ele>
        <time>2021-08-22T13:05:28Z</time>
      </trkpt>
      <trkpt lat="45.74583" lon="5.81906">
        <ele>822.3</ele>
        <time>2021-08-22T13:05:29Z</time>
      </trkpt>
      <trkpt lat="45.74577" lon="5.81904">
        <ele>822</ele>
        <time>2021-08-22T13:05:30Z</time>
      </trkpt>
      <trkpt lat="45.74565" lon="5.819">
        <ele>821.4</ele>
        <time>2021-08-22T13:05:32Z</time>
      </trkpt>
      <trkpt lat="45.74555" lon="5.81897">
        <ele>820.7</ele>
        <time>2021-08-22T13:05:34Z</time>
      </trkpt>
      <trkpt lat="45.74553" lon="5.81895">
        <ele>820.6</ele>
        <time>2021-08-22T13:05:35Z</time>
      </trkpt>
      <trkpt lat="45.74549" lon="5.81893">
        <ele>820.3</ele>
        <time>2021-08-22T13:05:37Z</time>
      </trkpt>
      <trkpt lat="45.74539" lon="5.81888">
        <ele>819.5</ele>
        <time>2021-08-22T13:05:38Z</time>
      </trkpt>
      <trkpt lat="45.74533" lon="5.81885">
        <ele>819</ele>
        <time>2021-08-22T13:05:39Z</time>
      </trkpt>
      <trkpt lat="45.74526" lon="5.81881">
        <ele>818.4</ele>
        <time>2021-08-22T13:05:40Z</time>
      </trkpt>
      <trkpt lat="45.74516" lon="5.81871">
        <ele>817.5</ele>
        <time>2021-08-22T13:05:42Z</time>
      </trkpt>
      <trkpt lat="45.74512" lon="5.81867">
        <ele>817.2</ele>
        <time>2021-08-22T13:05:43Z</time>
      </trkpt>
      <trkpt lat="45.74508" lon="5.81863">
        <ele>817</ele>
        <time>2021-08-22T13:05:44Z</time>
      </trkpt>
      <trkpt lat="45.74508" lon="5.81859">
        <ele>817</ele>
        <time>2021-08-22T13:05:46Z</time>
      </trkpt>
      <trkpt lat="45.74505" lon="5.81854">
        <ele>816.9</ele>
        <time>2021-08-22T13:05:47Z</time>
      </trkpt>
      <trkpt lat="45.74502" lon="5.81849">
        <ele>817</ele>
        <time>2021-08-22T13:05:48Z</time>
      </trkpt>
      <trkpt lat="45.74498" lon="5.81843">
        <ele>817.1</ele>
        <time>2021-08-22T13:05:50Z</time>
      </trkpt>
      <trkpt lat="45.74495" lon="5.81838">
        <ele>817.2</ele>
        <time>2021-08-22T13:05:51Z</time>
      </trkpt>
      <trkpt lat="45.74493" lon="5.81838">
        <ele>817.2</ele>
        <time>2021-08-22T13:05:52Z</time>
      </trkpt>
      <trkpt lat="45.74492" lon="5.81837">
        <ele>817.3</ele>
        <time>2021-08-22T13:05:53Z</time>
      </trkpt>
      <trkpt lat="45.7449" lon="5.81836">
        <ele>817.4</ele>
        <time>2021-08-22T13:05:54Z</time>
      </trkpt>
      <trkpt lat="45.74487" lon="5.81833">
        <ele>817.5</ele>
        <time>2021-08-22T13:05:56Z</time>
      </trkpt>
      <trkpt lat="45.74487" lon="5.81832">
        <ele>817.6</ele>
        <time>2021-08-22T13:05:57Z</time>
      </trkpt>
      <trkpt lat="45.74486" lon="5.8183">
        <ele>817.6</ele>
        <time>2021-08-22T13:05:58Z</time>
      </trkpt>
      <trkpt lat="45.74484" lon="5.81827">
        <ele>817.7</ele>
        <time>2021-08-22T13:05:59Z</time>
      </trkpt>
      <trkpt lat="45.74483" lon="5.81825">
        <ele>817.9</ele>
        <time>2021-08-22T13:06:01Z</time>
      </trkpt>
      <trkpt lat="45.7448" lon="5.8182">
        <ele>818.1</ele>
        <time>2021-08-22T13:06:02Z</time>
      </trkpt>
      <trkpt lat="45.74476" lon="5.81816">
        <ele>818.3</ele>
        <time>2021-08-22T13:06:03Z</time>
      </trkpt>
      <trkpt lat="45.74471" lon="5.81812">
        <ele>818.5</ele>
        <time>2021-08-22T13:06:04Z</time>
      </trkpt>
      <trkpt lat="45.74464" lon="5.81808">
        <ele>818.7</ele>
        <time>2021-08-22T13:06:06Z</time>
      </trkpt>
      <trkpt lat="45.74458" lon="5.81808">
        <ele>818.7</ele>
        <time>2021-08-22T13:06:07Z</time>
      </trkpt>
      <trkpt lat="45.74455" lon="5.81808">
        <ele>818.7</ele>
        <time>2021-08-22T13:06:08Z</time>
      </trkpt>
      <trkpt lat="45.74452" lon="5.81807">
        <ele>818.7</ele>
        <time>2021-08-22T13:06:09Z</time>
      </trkpt>
      <trkpt lat="45.74449" lon="5.81805">
        <ele>818.6</ele>
        <time>2021-08-22T13:06:11Z</time>
      </trkpt>
      <trkpt lat="45.74446" lon="5.81799">
        <ele>818.6</ele>
        <time>2021-08-22T13:06:12Z</time>
      </trkpt>
      <trkpt lat="45.74442" lon="5.81791">
        <ele>818.6</ele>
        <time>2021-08-22T13:06:14Z</time>
      </trkpt>
      <trkpt lat="45.74437" lon="5.81779">
        <ele>818.3</ele>
        <time>2021-08-22T13:06:15Z</time>
      </trkpt>
      <trkpt lat="45.74435" lon="5.81772">
        <ele>818.1</ele>
        <time>2021-08-22T13:06:16Z</time>
      </trkpt>
      <trkpt lat="45.74433" lon="5.81766">
        <ele>817.8</ele>
        <time>2021-08-22T13:06:17Z</time>
      </trkpt>
      <trkpt lat="45.7443" lon="5.81763">
        <ele>817.6</ele>
        <time>2021-08-22T13:06:19Z</time>
      </trkpt>
      <trkpt lat="45.74429" lon="5.81756">
        <ele>817.4</ele>
        <time>2021-08-22T13:06:20Z</time>
      </trkpt>
      <trkpt lat="45.74429" lon="5.81747">
        <ele>817.3</ele>
        <time>2021-08-22T13:06:22Z</time>
      </trkpt>
      <trkpt lat="45.74428" lon="5.81742">
        <ele>817.3</ele>
        <time>2021-08-22T13:06:23Z</time>
      </trkpt>
      <trkpt lat="45.74425" lon="5.81734">
        <ele>817.5</ele>
        <time>2021-08-22T13:06:25Z</time>
      </trkpt>
      <trkpt lat="45.74423" lon="5.81726">
        <ele>817.6</ele>
        <time>2021-08-22T13:06:26Z</time>
      </trkpt>
      <trkpt lat="45.7442" lon="5.81719">
        <ele>817.8</ele>
        <time>2021-08-22T13:06:27Z</time>
      </trkpt>
      <trkpt lat="45.74418" lon="5.81713">
        <ele>817.9</ele>
        <time>2021-08-22T13:06:28Z</time>
      </trkpt>
      <trkpt lat="45.74416" lon="5.81708">
        <ele>818</ele>
        <time>2021-08-22T13:06:29Z</time>
      </trkpt>
      <trkpt lat="45.74415" lon="5.81703">
        <ele>818</ele>
        <time>2021-08-22T13:06:30Z</time>
      </trkpt>
      <trkpt lat="45.74413" lon="5.81697">
        <ele>818.1</ele>
        <time>2021-08-22T13:06:32Z</time>
      </trkpt>
      <trkpt lat="45.7441" lon="5.81693">
        <ele>818.1</ele>
        <time>2021-08-22T13:06:33Z</time>
      </trkpt>
      <trkpt lat="45.74409" lon="5.81691">
        <ele>818.1</ele>
        <time>2021-08-22T13:06:34Z</time>
      </trkpt>
      <trkpt lat="45.74405" lon="5.81691">
        <ele>818</ele>
        <time>2021-08-22T13:06:35Z</time>
      </trkpt>
      <trkpt lat="45.74399" lon="5.81691">
        <ele>817.8</ele>
        <time>2021-08-22T13:06:36Z</time>
      </trkpt>
      <trkpt lat="45.74394" lon="5.81692">
        <ele>817.6</ele>
        <time>2021-08-22T13:06:37Z</time>
      </trkpt>
      <trkpt lat="45.74385" lon="5.81694">
        <ele>817.1</ele>
        <time>2021-08-22T13:06:39Z</time>
      </trkpt>
      <trkpt lat="45.74377" lon="5.81696">
        <ele>816.8</ele>
        <time>2021-08-22T13:06:40Z</time>
      </trkpt>
      <trkpt lat="45.74373" lon="5.81696">
        <ele>816.6</ele>
        <time>2021-08-22T13:06:41Z</time>
      </trkpt>
      <trkpt lat="45.74369" lon="5.81697">
        <ele>816.6</ele>
        <time>2021-08-22T13:06:42Z</time>
      </trkpt>
      <trkpt lat="45.74364" lon="5.81699">
        <ele>816.6</ele>
        <time>2021-08-22T13:06:44Z</time>
      </trkpt>
      <trkpt lat="45.74361" lon="5.81701">
        <ele>816.6</ele>
        <time>2021-08-22T13:06:45Z</time>
      </trkpt>
      <trkpt lat="45.7436" lon="5.81701">
        <ele>816.6</ele>
        <time>2021-08-22T13:06:46Z</time>
      </trkpt>
      <trkpt lat="45.74357" lon="5.81703">
        <ele>816.6</ele>
        <time>2021-08-22T13:06:47Z</time>
      </trkpt>
      <trkpt lat="45.74355" lon="5.81704">
        <ele>816.7</ele>
        <time>2021-08-22T13:06:48Z</time>
      </trkpt>
      <trkpt lat="45.74353" lon="5.81705">
        <ele>816.6</ele>
        <time>2021-08-22T13:06:50Z</time>
      </trkpt>
      <trkpt lat="45.74351" lon="5.81706">
        <ele>816.6</ele>
        <time>2021-08-22T13:06:52Z</time>
      </trkpt>
      <trkpt lat="45.74345" lon="5.81707">
        <ele>816.5</ele>
        <time>2021-08-22T13:06:54Z</time>
      </trkpt>
      <trkpt lat="45.74341" lon="5.81707">
        <ele>816.3</ele>
        <time>2021-08-22T13:06:55Z</time>
      </trkpt>
      <trkpt lat="45.74338" lon="5.81706">
        <ele>816.2</ele>
        <time>2021-08-22T13:06:56Z</time>
      </trkpt>
      <trkpt lat="45.74334" lon="5.81706">
        <ele>815.9</ele>
        <time>2021-08-22T13:08:22Z</time>
      </trkpt>
      <trkpt lat="45.7433" lon="5.81705">
        <ele>815.7</ele>
        <time>2021-08-22T13:08:23Z</time>
      </trkpt>
      <trkpt lat="45.74325" lon="5.81701">
        <ele>815.4</ele>
        <time>2021-08-22T13:08:24Z</time>
      </trkpt>
      <trkpt lat="45.74319" lon="5.81697">
        <ele>815</ele>
        <time>2021-08-22T13:08:25Z</time>
      </trkpt>
      <trkpt lat="45.74313" lon="5.81694">
        <ele>814.8</ele>
        <time>2021-08-22T13:08:26Z</time>
      </trkpt>
      <trkpt lat="45.74304" lon="5.8169">
        <ele>814.6</ele>
        <time>2021-08-22T13:08:28Z</time>
      </trkpt>
      <trkpt lat="45.74298" lon="5.81688">
        <ele>814.6</ele>
        <time>2021-08-22T13:08:29Z</time>
      </trkpt>
      <trkpt lat="45.74296" lon="5.81687">
        <ele>814.6</ele>
        <time>2021-08-22T13:08:30Z</time>
      </trkpt>
      <trkpt lat="45.74293" lon="5.81685">
        <ele>814.6</ele>
        <time>2021-08-22T13:08:32Z</time>
      </trkpt>
      <trkpt lat="45.7429" lon="5.81684">
        <ele>814.6</ele>
        <time>2021-08-22T13:08:33Z</time>
      </trkpt>
      <trkpt lat="45.74287" lon="5.81684">
        <ele>814.6</ele>
        <time>2021-08-22T13:08:34Z</time>
      </trkpt>
      <trkpt lat="45.74283" lon="5.81684">
        <ele>814.6</ele>
        <time>2021-08-22T13:08:36Z</time>
      </trkpt>
      <trkpt lat="45.7428" lon="5.81684">
        <ele>814.6</ele>
        <time>2021-08-22T13:08:37Z</time>
      </trkpt>
      <trkpt lat="45.74278" lon="5.81683">
        <ele>814.6</ele>
        <time>2021-08-22T13:08:39Z</time>
      </trkpt>
      <trkpt lat="45.74245" lon="5.81702">
        <ele>815</ele>
        <time>2021-08-22T13:08:47Z</time>
      </trkpt>
      <trkpt lat="45.74237" lon="5.8172">
        <ele>815.1</ele>
        <time>2021-08-22T13:08:48Z</time>
      </trkpt>
      <trkpt lat="45.74226" lon="5.8175">
        <ele>815</ele>
        <time>2021-08-22T13:08:50Z</time>
      </trkpt>
      <trkpt lat="45.7422" lon="5.81765">
        <ele>815</ele>
        <time>2021-08-22T13:08:52Z</time>
      </trkpt>
      <trkpt lat="45.74218" lon="5.81771">
        <ele>815</ele>
        <time>2021-08-22T13:08:53Z</time>
      </trkpt>
      <trkpt lat="45.74216" lon="5.81778">
        <ele>815</ele>
        <time>2021-08-22T13:08:54Z</time>
      </trkpt>
      <trkpt lat="45.74213" lon="5.81791">
        <ele>815</ele>
        <time>2021-08-22T13:08:56Z</time>
      </trkpt>
      <trkpt lat="45.74212" lon="5.81798">
        <ele>815.6</ele>
        <time>2021-08-22T13:08:57Z</time>
      </trkpt>
      <trkpt lat="45.7421" lon="5.81799">
        <ele>816.3</ele>
        <time>2021-08-22T13:08:58Z</time>
      </trkpt>
      <trkpt lat="45.74207" lon="5.818">
        <ele>816.5</ele>
        <time>2021-08-22T13:08:59Z</time>
      </trkpt>
      <trkpt lat="45.74203" lon="5.81811">
        <ele>817.6</ele>
        <time>2021-08-22T13:09:01Z</time>
      </trkpt>
      <trkpt lat="45.74199" lon="5.81815">
        <ele>818.3</ele>
        <time>2021-08-22T13:09:02Z</time>
      </trkpt>
      <trkpt lat="45.74196" lon="5.81818">
        <ele>819.1</ele>
        <time>2021-08-22T13:09:03Z</time>
      </trkpt>
      <trkpt lat="45.74195" lon="5.81814">
        <ele>819.3</ele>
        <time>2021-08-22T13:09:04Z</time>
      </trkpt>
      <trkpt lat="45.74193" lon="5.81812">
        <ele>820</ele>
        <time>2021-08-22T13:09:06Z</time>
      </trkpt>
      <trkpt lat="45.74193" lon="5.81812">
        <ele>820.3</ele>
        <time>2021-08-22T13:09:07Z</time>
      </trkpt>
      <trkpt lat="45.74192" lon="5.81813">
        <ele>821</ele>
        <time>2021-08-22T13:09:09Z</time>
      </trkpt>
      <trkpt lat="45.74191" lon="5.81814">
        <ele>821.2</ele>
        <time>2021-08-22T13:09:10Z</time>
      </trkpt>
      <trkpt lat="45.74191" lon="5.81815">
        <ele>821.5</ele>
        <time>2021-08-22T13:09:12Z</time>
      </trkpt>
      <trkpt lat="45.7419" lon="5.81816">
        <ele>821.7</ele>
        <time>2021-08-22T13:09:13Z</time>
      </trkpt>
      <trkpt lat="45.74383" lon="5.82276">
        <ele>752.9</ele>
        <time>2021-08-22T13:11:30Z</time>
      </trkpt>
      <trkpt lat="45.74378" lon="5.82286">
        <ele>751.8</ele>
        <time>2021-08-22T13:11:32Z</time>
      </trkpt>
      <trkpt lat="45.74375" lon="5.82292">
        <ele>751.2</ele>
        <time>2021-08-22T13:11:33Z</time>
      </trkpt>
      <trkpt lat="45.74371" lon="5.82298">
        <ele>750.4</ele>
        <time>2021-08-22T13:11:34Z</time>
      </trkpt>
      <trkpt lat="45.74368" lon="5.82305">
        <ele>749.6</ele>
        <time>2021-08-22T13:11:35Z</time>
      </trkpt>
      <trkpt lat="45.74364" lon="5.82316">
        <ele>748.2</ele>
        <time>2021-08-22T13:11:36Z</time>
      </trkpt>
      <trkpt lat="45.74361" lon="5.82333">
        <ele>746.5</ele>
        <time>2021-08-22T13:11:38Z</time>
      </trkpt>
      <trkpt lat="45.74366" lon="5.82358">
        <ele>744.6</ele>
        <time>2021-08-22T13:11:40Z</time>
      </trkpt>
      <trkpt lat="45.74369" lon="5.82369">
        <ele>743.8</ele>
        <time>2021-08-22T13:11:41Z</time>
      </trkpt>
      <trkpt lat="45.74378" lon="5.8239">
        <ele>742.9</ele>
        <time>2021-08-22T13:11:43Z</time>
      </trkpt>
      <trkpt lat="45.74388" lon="5.82409">
        <ele>742</ele>
        <time>2021-08-22T13:11:45Z</time>
      </trkpt>
      <trkpt lat="45.74398" lon="5.82428">
        <ele>741</ele>
        <time>2021-08-22T13:11:47Z</time>
      </trkpt>
      <trkpt lat="45.74401" lon="5.82438">
        <ele>740.6</ele>
        <time>2021-08-22T13:11:48Z</time>
      </trkpt>
      <trkpt lat="45.74404" lon="5.82455">
        <ele>740.2</ele>
        <time>2021-08-22T13:11:50Z</time>
      </trkpt>
      <trkpt lat="45.74406" lon="5.82462">
        <ele>740</ele>
        <time>2021-08-22T13:11:51Z</time>
      </trkpt>
      <trkpt lat="45.74408" lon="5.82469">
        <ele>739.9</ele>
        <time>2021-08-22T13:11:52Z</time>
      </trkpt>
      <trkpt lat="45.74409" lon="5.82472">
        <ele>739.8</ele>
        <time>2021-08-22T13:11:53Z</time>
      </trkpt>
      <trkpt lat="45.7441" lon="5.82478">
        <ele>739.6</ele>
        <time>2021-08-22T13:11:54Z</time>
      </trkpt>
      <trkpt lat="45.74412" lon="5.82489">
        <ele>739.1</ele>
        <time>2021-08-22T13:11:56Z</time>
      </trkpt>
      <trkpt lat="45.74413" lon="5.82495">
        <ele>738.8</ele>
        <time>2021-08-22T13:11:57Z</time>
      </trkpt>
      <trkpt lat="45.74413" lon="5.82496">
        <ele>738.7</ele>
        <time>2021-08-22T13:11:59Z</time>
      </trkpt>
      <trkpt lat="45.74412" lon="5.82498">
        <ele>738.6</ele>
        <time>2021-08-22T13:12:00Z</time>
      </trkpt>
      <trkpt lat="45.74408" lon="5.82506">
        <ele>738</ele>
        <time>2021-08-22T13:12:01Z</time>
      </trkpt>
      <trkpt lat="45.7441" lon="5.82626">
        <ele>731.7</ele>
        <time>2021-08-22T13:12:17Z</time>
      </trkpt>
      <trkpt lat="45.74427" lon="5.82652">
        <ele>731.1</ele>
        <time>2021-08-22T13:12:19Z</time>
      </trkpt>
      <trkpt lat="45.74441" lon="5.8267">
        <ele>730.6</ele>
        <time>2021-08-22T13:12:21Z</time>
      </trkpt>
      <trkpt lat="45.74447" lon="5.82676">
        <ele>730.7</ele>
        <time>2021-08-22T13:12:22Z</time>
      </trkpt>
      <trkpt lat="45.74458" lon="5.82683">
        <ele>731.1</ele>
        <time>2021-08-22T13:12:24Z</time>
      </trkpt>
      <trkpt lat="45.74468" lon="5.82691">
        <ele>731.7</ele>
        <time>2021-08-22T13:12:26Z</time>
      </trkpt>
      <trkpt lat="45.74475" lon="5.82696">
        <ele>732.1</ele>
        <time>2021-08-22T13:12:28Z</time>
      </trkpt>
      <trkpt lat="45.74478" lon="5.82697">
        <ele>732.2</ele>
        <time>2021-08-22T13:12:29Z</time>
      </trkpt>
      <trkpt lat="45.74482" lon="5.82698">
        <ele>732.4</ele>
        <time>2021-08-22T13:12:30Z</time>
      </trkpt>
      <trkpt lat="45.74484" lon="5.82699">
        <ele>732.4</ele>
        <time>2021-08-22T13:12:31Z</time>
      </trkpt>
      <trkpt lat="45.74488" lon="5.82701">
        <ele>732.6</ele>
        <time>2021-08-22T13:12:32Z</time>
      </trkpt>
      <trkpt lat="45.74497" lon="5.82707">
        <ele>732.9</ele>
        <time>2021-08-22T13:12:34Z</time>
      </trkpt>
      <trkpt lat="45.74501" lon="5.8271">
        <ele>733</ele>
        <time>2021-08-22T13:12:35Z</time>
      </trkpt>
      <trkpt lat="45.74502" lon="5.82711">
        <ele>733</ele>
        <time>2021-08-22T13:12:36Z</time>
      </trkpt>
      <trkpt lat="45.74506" lon="5.82714">
        <ele>733.2</ele>
        <time>2021-08-22T13:12:38Z</time>
      </trkpt>
      <trkpt lat="45.74509" lon="5.82716">
        <ele>733.3</ele>
        <time>2021-08-22T13:12:39Z</time>
      </trkpt>
      <trkpt lat="45.74516" lon="5.82719">
        <ele>733.6</ele>
        <time>2021-08-22T13:12:42Z</time>
      </trkpt>
      <trkpt lat="45.74523" lon="5.82721">
        <ele>734</ele>
        <time>2021-08-22T13:12:43Z</time>
      </trkpt>
      <trkpt lat="45.74527" lon="5.82723">
        <ele>734.3</ele>
        <time>2021-08-22T13:12:44Z</time>
      </trkpt>
      <trkpt lat="45.74533" lon="5.82728">
        <ele>734.7</ele>
        <time>2021-08-22T13:12:46Z</time>
      </trkpt>
      <trkpt lat="45.74536" lon="5.82731">
        <ele>735</ele>
        <time>2021-08-22T13:12:47Z</time>
      </trkpt>
      <trkpt lat="45.74538" lon="5.82734">
        <ele>735.3</ele>
        <time>2021-08-22T13:12:48Z</time>
      </trkpt>
      <trkpt lat="45.74544" lon="5.82741">
        <ele>735.9</ele>
        <time>2021-08-22T13:12:50Z</time>
      </trkpt>
      <trkpt lat="45.74546" lon="5.82746">
        <ele>736.3</ele>
        <time>2021-08-22T13:12:52Z</time>
      </trkpt>
      <trkpt lat="45.74547" lon="5.82752">
        <ele>736.6</ele>
        <time>2021-08-22T13:12:53Z</time>
      </trkpt>
      <trkpt lat="45.74547" lon="5.82757">
        <ele>737</ele>
        <time>2021-08-22T13:12:54Z</time>
      </trkpt>
      <trkpt lat="45.74549" lon="5.82767">
        <ele>737.7</ele>
        <time>2021-08-22T13:12:56Z</time>
      </trkpt>
      <trkpt lat="45.74552" lon="5.82775">
        <ele>738.3</ele>
        <time>2021-08-22T13:12:58Z</time>
      </trkpt>
      <trkpt lat="45.74555" lon="5.82779">
        <ele>738.6</ele>
        <time>2021-08-22T13:12:59Z</time>
      </trkpt>
      <trkpt lat="45.74557" lon="5.82781">
        <ele>738.9</ele>
        <time>2021-08-22T13:13:00Z</time>
      </trkpt>
      <trkpt lat="45.7456" lon="5.82783">
        <ele>739.1</ele>
        <time>2021-08-22T13:13:01Z</time>
      </trkpt>
      <trkpt lat="45.74563" lon="5.82784">
        <ele>739.4</ele>
        <time>2021-08-22T13:13:03Z</time>
      </trkpt>
      <trkpt lat="45.74563" lon="5.82786">
        <ele>739.5</ele>
        <time>2021-08-22T13:13:05Z</time>
      </trkpt>
      <trkpt lat="45.74565" lon="5.82785">
        <ele>739.6</ele>
        <time>2021-08-22T13:13:07Z</time>
      </trkpt>
      <trkpt lat="45.74566" lon="5.82785">
        <ele>739.7</ele>
        <time>2021-08-22T13:13:08Z</time>
      </trkpt>
      <trkpt lat="45.74569" lon="5.82786">
        <ele>739.9</ele>
        <time>2021-08-22T13:13:10Z</time>
      </trkpt>
      <trkpt lat="45.74571" lon="5.82787">
        <ele>740</ele>
        <time>2021-08-22T13:13:11Z</time>
      </trkpt>
      <trkpt lat="45.74577" lon="5.8279">
        <ele>740.4</ele>
        <time>2021-08-22T13:13:13Z</time>
      </trkpt>
      <trkpt lat="45.74581" lon="5.82791">
        <ele>740.4</ele>
        <time>2021-08-22T13:13:15Z</time>
      </trkpt>
      <trkpt lat="45.74585" lon="5.82792">
        <ele>740.4</ele>
        <time>2021-08-22T13:13:16Z</time>
      </trkpt>
      <trkpt lat="45.74585" lon="5.82793">
        <ele>740.4</ele>
        <time>2021-08-22T13:13:17Z</time>
      </trkpt>
      <trkpt lat="45.74584" lon="5.82795">
        <ele>740.5</ele>
        <time>2021-08-22T13:13:18Z</time>
      </trkpt>
      <trkpt lat="45.74583" lon="5.82796">
        <ele>740.5</ele>
        <time>2021-08-22T13:13:19Z</time>
      </trkpt>
      <trkpt lat="45.74581" lon="5.82801">
        <ele>740.4</ele>
        <time>2021-08-22T13:13:21Z</time>
      </trkpt>
      <trkpt lat="45.74579" lon="5.82805">
        <ele>740.4</ele>
        <time>2021-08-22T13:13:22Z</time>
      </trkpt>
      <trkpt lat="45.74578" lon="5.82809">
        <ele>740.3</ele>
        <time>2021-08-22T13:13:24Z</time>
      </trkpt>
      <trkpt lat="45.74576" lon="5.82813">
        <ele>740.2</ele>
        <time>2021-08-22T13:13:26Z</time>
      </trkpt>
      <trkpt lat="45.74574" lon="5.82817">
        <ele>740</ele>
        <time>2021-08-22T13:13:48Z</time>
      </trkpt>
      <trkpt lat="45.74573" lon="5.82821">
        <ele>739.8</ele>
        <time>2021-08-22T13:13:49Z</time>
      </trkpt>
      <trkpt lat="45.74566" lon="5.82834">
        <ele>738.7</ele>
        <time>2021-08-22T13:13:51Z</time>
      </trkpt>
      <trkpt lat="45.74563" lon="5.82841">
        <ele>738.1</ele>
        <time>2021-08-22T13:13:52Z</time>
      </trkpt>
      <trkpt lat="45.74559" lon="5.8285">
        <ele>737.1</ele>
        <time>2021-08-22T13:13:54Z</time>
      </trkpt>
      <trkpt lat="45.74556" lon="5.82856">
        <ele>736.4</ele>
        <time>2021-08-22T13:13:55Z</time>
      </trkpt>
      <trkpt lat="45.74553" lon="5.82863">
        <ele>735.7</ele>
        <time>2021-08-22T13:13:56Z</time>
      </trkpt>
      <trkpt lat="45.7455" lon="5.82873">
        <ele>734.8</ele>
        <time>2021-08-22T13:13:58Z</time>
      </trkpt>
      <trkpt lat="45.74547" lon="5.82881">
        <ele>734.1</ele>
        <time>2021-08-22T13:13:59Z</time>
      </trkpt>
      <trkpt lat="45.74545" lon="5.82887">
        <ele>733.6</ele>
        <time>2021-08-22T13:14:00Z</time>
      </trkpt>
      <trkpt lat="45.74542" lon="5.82891">
        <ele>733.2</ele>
        <time>2021-08-22T13:14:01Z</time>
      </trkpt>
      <trkpt lat="45.74538" lon="5.82896">
        <ele>732.6</ele>
        <time>2021-08-22T13:14:03Z</time>
      </trkpt>
      <trkpt lat="45.74534" lon="5.82897">
        <ele>732.2</ele>
        <time>2021-08-22T13:14:04Z</time>
      </trkpt>
      <trkpt lat="45.74532" lon="5.82897">
        <ele>731.9</ele>
        <time>2021-08-22T13:14:05Z</time>
      </trkpt>
      <trkpt lat="45.74526" lon="5.82895">
        <ele>728.7</ele>
        <time>2021-08-22T13:14:07Z</time>
      </trkpt>
      <trkpt lat="45.74522" lon="5.82893">
        <ele>728.1</ele>
        <time>2021-08-22T13:14:08Z</time>
      </trkpt>
      <trkpt lat="45.74518" lon="5.8289">
        <ele>727.6</ele>
        <time>2021-08-22T13:14:09Z</time>
      </trkpt>
      <trkpt lat="45.74513" lon="5.82885">
        <ele>727</ele>
        <time>2021-08-22T13:14:10Z</time>
      </trkpt>
      <trkpt lat="45.74509" lon="5.82877">
        <ele>726.6</ele>
        <time>2021-08-22T13:14:12Z</time>
      </trkpt>
      <trkpt lat="45.74506" lon="5.82872">
        <ele>726.4</ele>
        <time>2021-08-22T13:14:13Z</time>
      </trkpt>
      <trkpt lat="45.74503" lon="5.82867">
        <ele>726.2</ele>
        <time>2021-08-22T13:14:14Z</time>
      </trkpt>
      <trkpt lat="45.745" lon="5.82864">
        <ele>726.2</ele>
        <time>2021-08-22T13:14:15Z</time>
      </trkpt>
      <trkpt lat="45.74488" lon="5.82861">
        <ele>726</ele>
        <time>2021-08-22T13:14:17Z</time>
      </trkpt>
      <trkpt lat="45.74483" lon="5.82859">
        <ele>725.9</ele>
        <time>2021-08-22T13:14:18Z</time>
      </trkpt>
      <trkpt lat="45.74478" lon="5.82858">
        <ele>725.9</ele>
        <time>2021-08-22T13:14:19Z</time>
      </trkpt>
      <trkpt lat="45.74472" lon="5.82859">
        <ele>726</ele>
        <time>2021-08-22T13:14:20Z</time>
      </trkpt>
      <trkpt lat="45.74467" lon="5.8286">
        <ele>726.1</ele>
        <time>2021-08-22T13:14:22Z</time>
      </trkpt>
      <trkpt lat="45.74461" lon="5.8286">
        <ele>726.3</ele>
        <time>2021-08-22T13:14:23Z</time>
      </trkpt>
      <trkpt lat="45.74453" lon="5.82863">
        <ele>726.6</ele>
        <time>2021-08-22T13:14:25Z</time>
      </trkpt>
      <trkpt lat="45.74444" lon="5.82871">
        <ele>727.4</ele>
        <time>2021-08-22T13:14:26Z</time>
      </trkpt>
      <trkpt lat="45.74437" lon="5.82873">
        <ele>728.1</ele>
        <time>2021-08-22T13:14:28Z</time>
      </trkpt>
      <trkpt lat="45.74436" lon="5.82873">
        <ele>728.1</ele>
        <time>2021-08-22T13:14:29Z</time>
      </trkpt>
      <trkpt lat="45.74434" lon="5.82875">
        <ele>728.3</ele>
        <time>2021-08-22T13:14:30Z</time>
      </trkpt>
      <trkpt lat="45.74433" lon="5.82877">
        <ele>728.5</ele>
        <time>2021-08-22T13:14:32Z</time>
      </trkpt>
      <trkpt lat="45.74431" lon="5.82878">
        <ele>728.6</ele>
        <time>2021-08-22T13:14:33Z</time>
      </trkpt>
      <trkpt lat="45.74429" lon="5.82878">
        <ele>728.8</ele>
        <time>2021-08-22T13:14:35Z</time>
      </trkpt>
      <trkpt lat="45.74428" lon="5.82877">
        <ele>728.9</ele>
        <time>2021-08-22T13:14:36Z</time>
      </trkpt>
      <trkpt lat="45.74426" lon="5.82873">
        <ele>729.1</ele>
        <time>2021-08-22T13:14:38Z</time>
      </trkpt>
      <trkpt lat="45.74426" lon="5.82872">
        <ele>729.1</ele>
        <time>2021-08-22T13:14:39Z</time>
      </trkpt>
      <trkpt lat="45.74423" lon="5.8287">
        <ele>729.2</ele>
        <time>2021-08-22T13:14:40Z</time>
      </trkpt>
      <trkpt lat="45.74422" lon="5.8287">
        <ele>729.3</ele>
        <time>2021-08-22T13:14:41Z</time>
      </trkpt>
      <trkpt lat="45.74418" lon="5.82871">
        <ele>729.4</ele>
        <time>2021-08-22T13:14:43Z</time>
      </trkpt>
      <trkpt lat="45.74415" lon="5.82872">
        <ele>729.4</ele>
        <time>2021-08-22T13:14:44Z</time>
      </trkpt>
      <trkpt lat="45.74412" lon="5.82876">
        <ele>729.5</ele>
        <time>2021-08-22T13:14:46Z</time>
      </trkpt>
      <trkpt lat="45.74409" lon="5.82877">
        <ele>729.5</ele>
        <time>2021-08-22T13:14:47Z</time>
      </trkpt>
      <trkpt lat="45.74405" lon="5.82878">
        <ele>729.5</ele>
        <time>2021-08-22T13:14:49Z</time>
      </trkpt>
      <trkpt lat="45.74402" lon="5.82878">
        <ele>729.5</ele>
        <time>2021-08-22T13:14:50Z</time>
      </trkpt>
      <trkpt lat="45.74399" lon="5.8288">
        <ele>729.5</ele>
        <time>2021-08-22T13:14:52Z</time>
      </trkpt>
      <trkpt lat="45.74398" lon="5.8288">
        <ele>729.5</ele>
        <time>2021-08-22T13:14:53Z</time>
      </trkpt>
      <trkpt lat="45.74399" lon="5.82881">
        <ele>729.5</ele>
        <time>2021-08-22T13:14:55Z</time>
      </trkpt>
      <trkpt lat="45.74399" lon="5.82881">
        <ele>729.5</ele>
        <time>2021-08-22T13:14:56Z</time>
      </trkpt>
      <trkpt lat="45.74399" lon="5.82881">
        <ele>729.5</ele>
        <time>2021-08-22T13:14:57Z</time>
      </trkpt>
      <trkpt lat="45.74398" lon="5.82881">
        <ele>729.5</ele>
        <time>2021-08-22T13:14:59Z</time>
      </trkpt>
      <trkpt lat="45.74397" lon="5.82883">
        <ele>729.5</ele>
        <time>2021-08-22T13:15:00Z</time>
      </trkpt>
      <trkpt lat="45.74395" lon="5.82885">
        <ele>729.6</ele>
        <time>2021-08-22T13:15:02Z</time>
      </trkpt>
      <trkpt lat="45.74394" lon="5.82886">
        <ele>729.6</ele>
        <time>2021-08-22T13:15:03Z</time>
      </trkpt>
      <trkpt lat="45.74392" lon="5.82887">
        <ele>729.7</ele>
        <time>2021-08-22T13:15:05Z</time>
      </trkpt>
      <trkpt lat="45.74389" lon="5.8289">
        <ele>729.8</ele>
        <time>2021-08-22T13:15:06Z</time>
      </trkpt>
      <trkpt lat="45.74383" lon="5.82893">
        <ele>730.1</ele>
        <time>2021-08-22T13:15:07Z</time>
      </trkpt>
      <trkpt lat="45.74377" lon="5.82896">
        <ele>730.6</ele>
        <time>2021-08-22T13:15:08Z</time>
      </trkpt>
      <trkpt lat="45.74371" lon="5.82897">
        <ele>731</ele>
        <time>2021-08-22T13:15:09Z</time>
      </trkpt>
      <trkpt lat="45.74366" lon="5.82898">
        <ele>731.5</ele>
        <time>2021-08-22T13:15:10Z</time>
      </trkpt>
      <trkpt lat="45.74356" lon="5.82899">
        <ele>732.3</ele>
        <time>2021-08-22T13:15:12Z</time>
      </trkpt>
      <trkpt lat="45.74349" lon="5.829">
        <ele>732.7</ele>
        <time>2021-08-22T13:15:13Z</time>
      </trkpt>
      <trkpt lat="45.74344" lon="5.82901">
        <ele>732.9</ele>
        <time>2021-08-22T13:15:14Z</time>
      </trkpt>
      <trkpt lat="45.74341" lon="5.82903">
        <ele>733.1</ele>
        <time>2021-08-22T13:15:16Z</time>
      </trkpt>
      <trkpt lat="45.74336" lon="5.82903">
        <ele>733.2</ele>
        <time>2021-08-22T13:15:17Z</time>
      </trkpt>
      <trkpt lat="45.74331" lon="5.82903">
        <ele>733.3</ele>
        <time>2021-08-22T13:15:19Z</time>
      </trkpt>
      <trkpt lat="45.74328" lon="5.82903">
        <ele>733.3</ele>
        <time>2021-08-22T13:15:20Z</time>
      </trkpt>
      <trkpt lat="45.74323" lon="5.82903">
        <ele>733.3</ele>
        <time>2021-08-22T13:15:21Z</time>
      </trkpt>
      <trkpt lat="45.74318" lon="5.82905">
        <ele>733.4</ele>
        <time>2021-08-22T13:15:23Z</time>
      </trkpt>
      <trkpt lat="45.74314" lon="5.82908">
        <ele>733.5</ele>
        <time>2021-08-22T13:15:24Z</time>
      </trkpt>
      <trkpt lat="45.74312" lon="5.82911">
        <ele>733.5</ele>
        <time>2021-08-22T13:15:25Z</time>
      </trkpt>
      <trkpt lat="45.74306" lon="5.82916">
        <ele>733.7</ele>
        <time>2021-08-22T13:15:27Z</time>
      </trkpt>
      <trkpt lat="45.74304" lon="5.82919">
        <ele>733.8</ele>
        <time>2021-08-22T13:15:28Z</time>
      </trkpt>
      <trkpt lat="45.74302" lon="5.82921">
        <ele>733.9</ele>
        <time>2021-08-22T13:15:29Z</time>
      </trkpt>
      <trkpt lat="45.743" lon="5.82925">
        <ele>734.1</ele>
        <time>2021-08-22T13:15:31Z</time>
      </trkpt>
      <trkpt lat="45.74298" lon="5.8293">
        <ele>734.4</ele>
        <time>2021-08-22T13:15:33Z</time>
      </trkpt>
      <trkpt lat="45.74296" lon="5.82934">
        <ele>734.6</ele>
        <time>2021-08-22T13:15:34Z</time>
      </trkpt>
      <trkpt lat="45.74295" lon="5.82935">
        <ele>734.7</ele>
        <time>2021-08-22T13:15:35Z</time>
      </trkpt>
      <trkpt lat="45.7424" lon="5.82947">
        <ele>740.7</ele>
        <time>2021-08-22T13:16:20Z</time>
      </trkpt>
      <trkpt lat="45.74235" lon="5.82945">
        <ele>741</ele>
        <time>2021-08-22T13:16:22Z</time>
      </trkpt>
      <trkpt lat="45.74231" lon="5.8294">
        <ele>741.3</ele>
        <time>2021-08-22T13:16:23Z</time>
      </trkpt>
      <trkpt lat="45.74225" lon="5.82934">
        <ele>741.7</ele>
        <time>2021-08-22T13:16:25Z</time>
      </trkpt>
      <trkpt lat="45.74213" lon="5.82919">
        <ele>742.9</ele>
        <time>2021-08-22T13:16:27Z</time>
      </trkpt>
      <trkpt lat="45.74209" lon="5.82914">
        <ele>743.4</ele>
        <time>2021-08-22T13:16:28Z</time>
      </trkpt>
      <trkpt lat="45.74207" lon="5.8291">
        <ele>743.9</ele>
        <time>2021-08-22T13:16:30Z</time>
      </trkpt>
      <trkpt lat="45.74205" lon="5.82908">
        <ele>744.2</ele>
        <time>2021-08-22T13:16:31Z</time>
      </trkpt>
      <trkpt lat="45.74206" lon="5.82908">
        <ele>744.2</ele>
        <time>2021-08-22T13:16:33Z</time>
      </trkpt>
      <trkpt lat="45.74095" lon="5.82935">
        <ele>761.4</ele>
        <time>2021-08-22T13:21:08Z</time>
      </trkpt>
      <trkpt lat="45.74089" lon="5.82938">
        <ele>762.7</ele>
        <time>2021-08-22T13:21:09Z</time>
      </trkpt>
      <trkpt lat="45.74085" lon="5.8294">
        <ele>763.6</ele>
        <time>2021-08-22T13:21:11Z</time>
      </trkpt>
      <trkpt lat="45.74081" lon="5.8294">
        <ele>764.4</ele>
        <time>2021-08-22T13:21:12Z</time>
      </trkpt>
      <trkpt lat="45.74077" lon="5.82938">
        <ele>765.5</ele>
        <time>2021-08-22T13:21:13Z</time>
      </trkpt>
      <trkpt lat="45.74073" lon="5.82936">
        <ele>766.5</ele>
        <time>2021-08-22T13:21:15Z</time>
      </trkpt>
      <trkpt lat="45.74072" lon="5.82934">
        <ele>766.8</ele>
        <time>2021-08-22T13:21:16Z</time>
      </trkpt>
      <trkpt lat="45.74072" lon="5.82933">
        <ele>767</ele>
        <time>2021-08-22T13:21:17Z</time>
      </trkpt>
      <trkpt lat="45.74073" lon="5.82933">
        <ele>767.2</ele>
        <time>2021-08-22T13:21:19Z</time>
      </trkpt>
      <trkpt lat="45.74074" lon="5.82933">
        <ele>767.5</ele>
        <time>2021-08-22T13:21:20Z</time>
      </trkpt>
      <trkpt lat="45.74075" lon="5.82933">
        <ele>767.8</ele>
        <time>2021-08-22T13:21:21Z</time>
      </trkpt>
      <trkpt lat="45.74076" lon="5.82933">
        <ele>767.8</ele>
        <time>2021-08-22T13:21:22Z</time>
      </trkpt>
      <trkpt lat="45.74076" lon="5.82932">
        <ele>767.9</ele>
        <time>2021-08-22T13:21:24Z</time>
      </trkpt>
      <trkpt lat="45.74076" lon="5.82932">
        <ele>768</ele>
        <time>2021-08-22T13:21:25Z</time>
      </trkpt>
      <trkpt lat="45.74064" lon="5.82942">
        <ele>771.3</ele>
        <time>2021-08-22T13:22:06Z</time>
      </trkpt>
      <trkpt lat="45.74059" lon="5.82941">
        <ele>772</ele>
        <time>2021-08-22T13:22:08Z</time>
      </trkpt>
      <trkpt lat="45.74057" lon="5.8294">
        <ele>772.3</ele>
        <time>2021-08-22T13:22:09Z</time>
      </trkpt>
      <trkpt lat="45.74055" lon="5.82939">
        <ele>772.5</ele>
        <time>2021-08-22T13:22:11Z</time>
      </trkpt>
      <trkpt lat="45.74054" lon="5.82939">
        <ele>772.6</ele>
        <time>2021-08-22T13:22:12Z</time>
      </trkpt>
      <trkpt lat="45.74052" lon="5.82941">
        <ele>772.8</ele>
        <time>2021-08-22T13:22:13Z</time>
      </trkpt>
      <trkpt lat="45.7405" lon="5.82942">
        <ele>773</ele>
        <time>2021-08-22T13:22:14Z</time>
      </trkpt>
      <trkpt lat="45.74047" lon="5.82938">
        <ele>773.4</ele>
        <time>2021-08-22T13:22:16Z</time>
      </trkpt>
      <trkpt lat="45.74043" lon="5.82937">
        <ele>773.7</ele>
        <time>2021-08-22T13:22:17Z</time>
      </trkpt>
      <trkpt lat="45.74038" lon="5.82934">
        <ele>774</ele>
        <time>2021-08-22T13:22:18Z</time>
      </trkpt>
      <trkpt lat="45.74033" lon="5.82935">
        <ele>774.2</ele>
        <time>2021-08-22T13:22:20Z</time>
      </trkpt>
      <trkpt lat="45.74031" lon="5.82935">
        <ele>774.3</ele>
        <time>2021-08-22T13:22:21Z</time>
      </trkpt>
      <trkpt lat="45.74031" lon="5.82936">
        <ele>774.3</ele>
        <time>2021-08-22T13:22:22Z</time>
      </trkpt>
      <trkpt lat="45.74029" lon="5.82938">
        <ele>774.3</ele>
        <time>2021-08-22T13:22:24Z</time>
      </trkpt>
      <trkpt lat="45.74029" lon="5.82939">
        <ele>774.3</ele>
        <time>2021-08-22T13:22:25Z</time>
      </trkpt>
      <trkpt lat="45.74029" lon="5.82939">
        <ele>774.3</ele>
        <time>2021-08-22T13:22:26Z</time>
      </trkpt>
      <trkpt lat="45.74029" lon="5.8294">
        <ele>774.3</ele>
        <time>2021-08-22T13:22:27Z</time>
      </trkpt>
      <trkpt lat="45.7403" lon="5.82944">
        <ele>774.3</ele>
        <time>2021-08-22T13:22:29Z</time>
      </trkpt>
      <trkpt lat="45.7403" lon="5.82949">
        <ele>774.3</ele>
        <time>2021-08-22T13:22:30Z</time>
      </trkpt>
      <trkpt lat="45.74031" lon="5.82951">
        <ele>774.3</ele>
        <time>2021-08-22T13:22:32Z</time>
      </trkpt>
      <trkpt lat="45.74028" lon="5.82987">
        <ele>773.8</ele>
        <time>2021-08-22T13:22:38Z</time>
      </trkpt>
      <trkpt lat="45.74024" lon="5.82993">
        <ele>773.6</ele>
        <time>2021-08-22T13:22:40Z</time>
      </trkpt>
      <trkpt lat="45.74021" lon="5.82999">
        <ele>773.4</ele>
        <time>2021-08-22T13:22:41Z</time>
      </trkpt>
      <trkpt lat="45.7402" lon="5.83002">
        <ele>773.2</ele>
        <time>2021-08-22T13:22:42Z</time>
      </trkpt>
      <trkpt lat="45.74014" lon="5.83011">
        <ele>772.7</ele>
        <time>2021-08-22T13:22:44Z</time>
      </trkpt>
      <trkpt lat="45.74006" lon="5.83023">
        <ele>771.9</ele>
        <time>2021-08-22T13:22:45Z</time>
      </trkpt>
      <trkpt lat="45.73995" lon="5.83038">
        <ele>770.9</ele>
        <time>2021-08-22T13:22:47Z</time>
      </trkpt>
      <trkpt lat="45.73987" lon="5.83043">
        <ele>770.4</ele>
        <time>2021-08-22T13:22:48Z</time>
      </trkpt>
      <trkpt lat="45.73975" lon="5.83054">
        <ele>769.4</ele>
        <time>2021-08-22T13:22:50Z</time>
      </trkpt>
      <trkpt lat="45.73963" lon="5.83068">
        <ele>768.3</ele>
        <time>2021-08-22T13:22:52Z</time>
      </trkpt>
      <trkpt lat="45.73958" lon="5.83077">
        <ele>767.9</ele>
        <time>2021-08-22T13:22:53Z</time>
      </trkpt>
      <trkpt lat="45.73953" lon="5.83085">
        <ele>767.6</ele>
        <time>2021-08-22T13:22:54Z</time>
      </trkpt>
      <trkpt lat="45.73942" lon="5.83101">
        <ele>767.1</ele>
        <time>2021-08-22T13:22:56Z</time>
      </trkpt>
      <trkpt lat="45.73935" lon="5.83107">
        <ele>767</ele>
        <time>2021-08-22T13:22:57Z</time>
      </trkpt>
      <trkpt lat="45.73922" lon="5.83119">
        <ele>767.1</ele>
        <time>2021-08-22T13:22:59Z</time>
      </trkpt>
      <trkpt lat="45.73917" lon="5.83127">
        <ele>767.2</ele>
        <time>2021-08-22T13:23:00Z</time>
      </trkpt>
      <trkpt lat="45.73911" lon="5.83132">
        <ele>767.5</ele>
        <time>2021-08-22T13:23:01Z</time>
      </trkpt>
      <trkpt lat="45.73899" lon="5.83141">
        <ele>768.3</ele>
        <time>2021-08-22T13:23:03Z</time>
      </trkpt>
      <trkpt lat="45.7389" lon="5.83155">
        <ele>769.1</ele>
        <time>2021-08-22T13:23:05Z</time>
      </trkpt>
      <trkpt lat="45.73886" lon="5.83161">
        <ele>769.5</ele>
        <time>2021-08-22T13:23:06Z</time>
      </trkpt>
      <trkpt lat="45.73881" lon="5.83166">
        <ele>769.8</ele>
        <time>2021-08-22T13:23:07Z</time>
      </trkpt>
      <trkpt lat="45.73876" lon="5.8317">
        <ele>770</ele>
        <time>2021-08-22T13:23:08Z</time>
      </trkpt>
      <trkpt lat="45.73868" lon="5.83175">
        <ele>770.3</ele>
        <time>2021-08-22T13:23:10Z</time>
      </trkpt>
      <trkpt lat="45.73862" lon="5.83181">
        <ele>770.3</ele>
        <time>2021-08-22T13:23:11Z</time>
      </trkpt>
      <trkpt lat="45.73857" lon="5.83185">
        <ele>770.3</ele>
        <time>2021-08-22T13:23:12Z</time>
      </trkpt>
      <trkpt lat="45.73849" lon="5.83195">
        <ele>770</ele>
        <time>2021-08-22T13:23:14Z</time>
      </trkpt>
      <trkpt lat="45.73842" lon="5.83205">
        <ele>769.5</ele>
        <time>2021-08-22T13:23:16Z</time>
      </trkpt>
      <trkpt lat="45.73841" lon="5.83209">
        <ele>769.4</ele>
        <time>2021-08-22T13:23:17Z</time>
      </trkpt>
      <trkpt lat="45.73839" lon="5.83217">
        <ele>769.1</ele>
        <time>2021-08-22T13:23:18Z</time>
      </trkpt>
      <trkpt lat="45.7383" lon="5.83236">
        <ele>768.2</ele>
        <time>2021-08-22T13:23:20Z</time>
      </trkpt>
      <trkpt lat="45.73824" lon="5.83249">
        <ele>767.8</ele>
        <time>2021-08-22T13:23:22Z</time>
      </trkpt>
      <trkpt lat="45.73823" lon="5.83252">
        <ele>767.8</ele>
        <time>2021-08-22T13:23:24Z</time>
      </trkpt>
      <trkpt lat="45.73822" lon="5.83255">
        <ele>767.7</ele>
        <time>2021-08-22T13:23:25Z</time>
      </trkpt>
      <trkpt lat="45.73808" lon="5.8328">
        <ele>767.1</ele>
        <time>2021-08-22T13:23:26Z</time>
      </trkpt>
      <trkpt lat="45.73802" lon="5.83286">
        <ele>766.9</ele>
        <time>2021-08-22T13:23:28Z</time>
      </trkpt>
      <trkpt lat="45.73797" lon="5.8329">
        <ele>766.7</ele>
        <time>2021-08-22T13:23:29Z</time>
      </trkpt>
      <trkpt lat="45.73791" lon="5.83295">
        <ele>766.5</ele>
        <time>2021-08-22T13:23:30Z</time>
      </trkpt>
      <trkpt lat="45.73785" lon="5.83299">
        <ele>766.3</ele>
        <time>2021-08-22T13:23:31Z</time>
      </trkpt>
      <trkpt lat="45.73779" lon="5.83301">
        <ele>766.1</ele>
        <time>2021-08-22T13:23:32Z</time>
      </trkpt>
      <trkpt lat="45.73772" lon="5.83302">
        <ele>765.9</ele>
        <time>2021-08-22T13:23:33Z</time>
      </trkpt>
      <trkpt lat="45.73761" lon="5.83304">
        <ele>765.7</ele>
        <time>2021-08-22T13:23:35Z</time>
      </trkpt>
      <trkpt lat="45.73752" lon="5.83306">
        <ele>765.8</ele>
        <time>2021-08-22T13:23:37Z</time>
      </trkpt>
      <trkpt lat="45.73742" lon="5.83306">
        <ele>766</ele>
        <time>2021-08-22T13:23:39Z</time>
      </trkpt>
      <trkpt lat="45.73735" lon="5.83306">
        <ele>766.4</ele>
        <time>2021-08-22T13:23:41Z</time>
      </trkpt>
      <trkpt lat="45.73723" lon="5.83307">
        <ele>767.2</ele>
        <time>2021-08-22T13:23:43Z</time>
      </trkpt>
      <trkpt lat="45.73717" lon="5.83306">
        <ele>767.7</ele>
        <time>2021-08-22T13:23:44Z</time>
      </trkpt>
      <trkpt lat="45.73707" lon="5.83313">
        <ele>768.8</ele>
        <time>2021-08-22T13:23:46Z</time>
      </trkpt>
      <trkpt lat="45.73706" lon="5.83311">
        <ele>769</ele>
        <time>2021-08-22T13:23:47Z</time>
      </trkpt>
      <trkpt lat="45.73701" lon="5.8331">
        <ele>769.6</ele>
        <time>2021-08-22T13:23:49Z</time>
      </trkpt>
      <trkpt lat="45.73697" lon="5.83311">
        <ele>769.9</ele>
        <time>2021-08-22T13:23:50Z</time>
      </trkpt>
      <trkpt lat="45.73693" lon="5.83312">
        <ele>770.4</ele>
        <time>2021-08-22T13:23:52Z</time>
      </trkpt>
      <trkpt lat="45.73691" lon="5.83312">
        <ele>770.7</ele>
        <time>2021-08-22T13:23:53Z</time>
      </trkpt>
      <trkpt lat="45.73689" lon="5.83311">
        <ele>770.9</ele>
        <time>2021-08-22T13:23:55Z</time>
      </trkpt>
      <trkpt lat="45.73688" lon="5.8331">
        <ele>771</ele>
        <time>2021-08-22T13:23:56Z</time>
      </trkpt>
      <trkpt lat="45.73689" lon="5.8331">
        <ele>771.1</ele>
        <time>2021-08-22T13:23:57Z</time>
      </trkpt>
      <trkpt lat="45.73692" lon="5.8331">
        <ele>771.5</ele>
        <time>2021-08-22T13:23:58Z</time>
      </trkpt>
      <trkpt lat="45.73692" lon="5.8331">
        <ele>771.6</ele>
        <time>2021-08-22T13:24:00Z</time>
      </trkpt>
      <trkpt lat="45.73692" lon="5.8331">
        <ele>771.6</ele>
        <time>2021-08-22T13:24:01Z</time>
      </trkpt>
      <trkpt lat="45.73692" lon="5.8331">
        <ele>771.6</ele>
        <time>2021-08-22T13:24:02Z</time>
      </trkpt>
      <trkpt lat="45.73692" lon="5.8331">
        <ele>771.6</ele>
        <time>2021-08-22T13:24:04Z</time>
      </trkpt>
      <trkpt lat="45.73692" lon="5.83311">
        <ele>771.7</ele>
        <time>2021-08-22T13:24:05Z</time>
      </trkpt>
      <trkpt lat="45.73691" lon="5.83311">
        <ele>771.7</ele>
        <time>2021-08-22T13:24:07Z</time>
      </trkpt>
      <trkpt lat="45.73675" lon="5.83354">
        <ele>775.8</ele>
        <time>2021-08-22T13:24:43Z</time>
      </trkpt>
      <trkpt lat="45.73675" lon="5.83357">
        <ele>776.1</ele>
        <time>2021-08-22T13:24:44Z</time>
      </trkpt>
      <trkpt lat="45.73675" lon="5.83359">
        <ele>776.3</ele>
        <time>2021-08-22T13:24:45Z</time>
      </trkpt>
      <trkpt lat="45.73674" lon="5.83362">
        <ele>776.6</ele>
        <time>2021-08-22T13:24:47Z</time>
      </trkpt>
      <trkpt lat="45.73674" lon="5.83363">
        <ele>776.7</ele>
        <time>2021-08-22T13:24:48Z</time>
      </trkpt>
      <trkpt lat="45.73674" lon="5.83365">
        <ele>776.9</ele>
        <time>2021-08-22T13:24:49Z</time>
      </trkpt>
      <trkpt lat="45.73674" lon="5.83367">
        <ele>777</ele>
        <time>2021-08-22T13:24:51Z</time>
      </trkpt>
      <trkpt lat="45.73674" lon="5.83369">
        <ele>777.2</ele>
        <time>2021-08-22T13:24:52Z</time>
      </trkpt>
      <trkpt lat="45.73674" lon="5.83374">
        <ele>777.6</ele>
        <time>2021-08-22T13:24:54Z</time>
      </trkpt>
      <trkpt lat="45.73673" lon="5.83379">
        <ele>778.1</ele>
        <time>2021-08-22T13:24:55Z</time>
      </trkpt>
      <trkpt lat="45.73672" lon="5.83383">
        <ele>778.3</ele>
        <time>2021-08-22T13:24:56Z</time>
      </trkpt>
      <trkpt lat="45.7367" lon="5.83388">
        <ele>778.7</ele>
        <time>2021-08-22T13:24:58Z</time>
      </trkpt>
      <trkpt lat="45.73669" lon="5.83394">
        <ele>779.1</ele>
        <time>2021-08-22T13:24:59Z</time>
      </trkpt>
      <trkpt lat="45.73667" lon="5.83401">
        <ele>779.4</ele>
        <time>2021-08-22T13:25:01Z</time>
      </trkpt>
      <trkpt lat="45.73667" lon="5.83403">
        <ele>779.5</ele>
        <time>2021-08-22T13:25:02Z</time>
      </trkpt>
      <trkpt lat="45.73666" lon="5.83406">
        <ele>779.6</ele>
        <time>2021-08-22T13:25:03Z</time>
      </trkpt>
      <trkpt lat="45.73666" lon="5.8341">
        <ele>779.8</ele>
        <time>2021-08-22T13:25:04Z</time>
      </trkpt>
      <trkpt lat="45.73664" lon="5.83414">
        <ele>779.9</ele>
        <time>2021-08-22T13:25:05Z</time>
      </trkpt>
      <trkpt lat="45.73662" lon="5.83418">
        <ele>780</ele>
        <time>2021-08-22T13:25:06Z</time>
      </trkpt>
      <trkpt lat="45.7366" lon="5.83423">
        <ele>780.2</ele>
        <time>2021-08-22T13:25:08Z</time>
      </trkpt>
      <trkpt lat="45.73659" lon="5.83427">
        <ele>780.2</ele>
        <time>2021-08-22T13:25:09Z</time>
      </trkpt>
      <trkpt lat="45.73657" lon="5.83431">
        <ele>780.3</ele>
        <time>2021-08-22T13:25:10Z</time>
      </trkpt>
      <trkpt lat="45.73654" lon="5.83434">
        <ele>780.3</ele>
        <time>2021-08-22T13:25:11Z</time>
      </trkpt>
      <trkpt lat="45.73651" lon="5.83437">
        <ele>780.4</ele>
        <time>2021-08-22T13:25:12Z</time>
      </trkpt>
      <trkpt lat="45.73648" lon="5.83441">
        <ele>780.4</ele>
        <time>2021-08-22T13:25:14Z</time>
      </trkpt>
      <trkpt lat="45.73646" lon="5.83443">
        <ele>780.3</ele>
        <time>2021-08-22T13:25:15Z</time>
      </trkpt>
      <trkpt lat="45.73644" lon="5.83446">
        <ele>780.3</ele>
        <time>2021-08-22T13:25:16Z</time>
      </trkpt>
      <trkpt lat="45.73644" lon="5.83446">
        <ele>780.3</ele>
        <time>2021-08-22T13:25:17Z</time>
      </trkpt>
      <trkpt lat="45.73643" lon="5.83448">
        <ele>780.3</ele>
        <time>2021-08-22T13:25:19Z</time>
      </trkpt>
      <trkpt lat="45.73642" lon="5.8345">
        <ele>780.2</ele>
        <time>2021-08-22T13:25:20Z</time>
      </trkpt>
      <trkpt lat="45.73641" lon="5.83453">
        <ele>780.2</ele>
        <time>2021-08-22T13:25:21Z</time>
      </trkpt>
      <trkpt lat="45.73642" lon="5.83454">
        <ele>780.1</ele>
        <time>2021-08-22T13:25:22Z</time>
      </trkpt>
      <trkpt lat="45.73639" lon="5.83459">
        <ele>780</ele>
        <time>2021-08-22T13:25:23Z</time>
      </trkpt>
      <trkpt lat="45.73636" lon="5.83462">
        <ele>779.9</ele>
        <time>2021-08-22T13:25:24Z</time>
      </trkpt>
      <trkpt lat="45.7363" lon="5.83468">
        <ele>779.6</ele>
        <time>2021-08-22T13:25:26Z</time>
      </trkpt>
      <trkpt lat="45.73626" lon="5.83473">
        <ele>779.4</ele>
        <time>2021-08-22T13:25:27Z</time>
      </trkpt>
      <trkpt lat="45.73623" lon="5.83477">
        <ele>779.2</ele>
        <time>2021-08-22T13:25:28Z</time>
      </trkpt>
      <trkpt lat="45.73617" lon="5.83485">
        <ele>778.8</ele>
        <time>2021-08-22T13:25:30Z</time>
      </trkpt>
      <trkpt lat="45.73611" lon="5.8349">
        <ele>778.4</ele>
        <time>2021-08-22T13:25:32Z</time>
      </trkpt>
      <trkpt lat="45.73607" lon="5.83494">
        <ele>778.1</ele>
        <time>2021-08-22T13:25:33Z</time>
      </trkpt>
      <trkpt lat="45.73604" lon="5.83499">
        <ele>777.7</ele>
        <time>2021-08-22T13:25:34Z</time>
      </trkpt>
      <trkpt lat="45.73601" lon="5.83504">
        <ele>777.3</ele>
        <time>2021-08-22T13:25:35Z</time>
      </trkpt>
      <trkpt lat="45.73596" lon="5.8351">
        <ele>776.6</ele>
        <time>2021-08-22T13:25:37Z</time>
      </trkpt>
      <trkpt lat="45.73594" lon="5.83513">
        <ele>776.1</ele>
        <time>2021-08-22T13:25:38Z</time>
      </trkpt>
      <trkpt lat="45.73591" lon="5.83517">
        <ele>775.6</ele>
        <time>2021-08-22T13:25:39Z</time>
      </trkpt>
      <trkpt lat="45.73589" lon="5.83521">
        <ele>775.1</ele>
        <time>2021-08-22T13:25:40Z</time>
      </trkpt>
      <trkpt lat="45.73586" lon="5.83524">
        <ele>774.5</ele>
        <time>2021-08-22T13:25:41Z</time>
      </trkpt>
      <trkpt lat="45.73581" lon="5.83529">
        <ele>773.4</ele>
        <time>2021-08-22T13:25:43Z</time>
      </trkpt>
      <trkpt lat="45.73579" lon="5.83533">
        <ele>772.5</ele>
        <time>2021-08-22T13:25:45Z</time>
      </trkpt>
      <trkpt lat="45.73577" lon="5.83537">
        <ele>771.8</ele>
        <time>2021-08-22T13:25:46Z</time>
      </trkpt>
      <trkpt lat="45.73575" lon="5.83543">
        <ele>770.9</ele>
        <time>2021-08-22T13:25:47Z</time>
      </trkpt>
      <trkpt lat="45.73572" lon="5.83551">
        <ele>769.3</ele>
        <time>2021-08-22T13:25:49Z</time>
      </trkpt>
      <trkpt lat="45.73571" lon="5.83563">
        <ele>767.2</ele>
        <time>2021-08-22T13:25:51Z</time>
      </trkpt>
      <trkpt lat="45.73569" lon="5.83574">
        <ele>765.2</ele>
        <time>2021-08-22T13:25:53Z</time>
      </trkpt>
      <trkpt lat="45.73565" lon="5.83578">
        <ele>764.1</ele>
        <time>2021-08-22T13:25:54Z</time>
      </trkpt>
      <trkpt lat="45.73558" lon="5.83583">
        <ele>762.1</ele>
        <time>2021-08-22T13:25:56Z</time>
      </trkpt>
      <trkpt lat="45.73554" lon="5.83586">
        <ele>761.1</ele>
        <time>2021-08-22T13:25:57Z</time>
      </trkpt>
      <trkpt lat="45.73549" lon="5.83586">
        <ele>760.1</ele>
        <time>2021-08-22T13:25:58Z</time>
      </trkpt>
      <trkpt lat="45.73542" lon="5.83589">
        <ele>758.8</ele>
        <time>2021-08-22T13:26:00Z</time>
      </trkpt>
      <trkpt lat="45.73537" lon="5.83591">
        <ele>757.9</ele>
        <time>2021-08-22T13:26:01Z</time>
      </trkpt>
      <trkpt lat="45.73535" lon="5.83592">
        <ele>757.5</ele>
        <time>2021-08-22T13:26:02Z</time>
      </trkpt>
      <trkpt lat="45.73529" lon="5.83592">
        <ele>756.4</ele>
        <time>2021-08-22T13:26:04Z</time>
      </trkpt>
      <trkpt lat="45.73524" lon="5.83593">
        <ele>755.6</ele>
        <time>2021-08-22T13:26:05Z</time>
      </trkpt>
      <trkpt lat="45.73519" lon="5.83594">
        <ele>755</ele>
        <time>2021-08-22T13:26:06Z</time>
      </trkpt>
      <trkpt lat="45.73516" lon="5.83595">
        <ele>754.4</ele>
        <time>2021-08-22T13:26:07Z</time>
      </trkpt>
      <trkpt lat="45.73512" lon="5.83597">
        <ele>753.9</ele>
        <time>2021-08-22T13:26:09Z</time>
      </trkpt>
      <trkpt lat="45.73511" lon="5.83598">
        <ele>753.8</ele>
        <time>2021-08-22T13:26:10Z</time>
      </trkpt>
      <trkpt lat="45.73503" lon="5.83606">
        <ele>752.4</ele>
        <time>2021-08-22T13:26:12Z</time>
      </trkpt>
      <trkpt lat="45.73477" lon="5.83628">
        <ele>747.2</ele>
        <time>2021-08-22T13:26:17Z</time>
      </trkpt>
      <trkpt lat="45.73474" lon="5.8363">
        <ele>746.6</ele>
        <time>2021-08-22T13:26:18Z</time>
      </trkpt>
      <trkpt lat="45.73472" lon="5.83634">
        <ele>745.8</ele>
        <time>2021-08-22T13:26:19Z</time>
      </trkpt>
      <trkpt lat="45.73472" lon="5.83635">
        <ele>745.6</ele>
        <time>2021-08-22T13:26:20Z</time>
      </trkpt>
      <trkpt lat="45.73468" lon="5.83639">
        <ele>744.6</ele>
        <time>2021-08-22T13:26:22Z</time>
      </trkpt>
      <trkpt lat="45.73465" lon="5.83641">
        <ele>743.7</ele>
        <time>2021-08-22T13:26:23Z</time>
      </trkpt>
      <trkpt lat="45.73461" lon="5.83645">
        <ele>742.5</ele>
        <time>2021-08-22T13:26:24Z</time>
      </trkpt>
      <trkpt lat="45.73456" lon="5.83647">
        <ele>741.1</ele>
        <time>2021-08-22T13:26:26Z</time>
      </trkpt>
      <trkpt lat="45.73452" lon="5.83649">
        <ele>740.2</ele>
        <time>2021-08-22T13:26:27Z</time>
      </trkpt>
      <trkpt lat="45.73448" lon="5.83654">
        <ele>738.9</ele>
        <time>2021-08-22T13:26:28Z</time>
      </trkpt>
      <trkpt lat="45.73445" lon="5.83658">
        <ele>737.6</ele>
        <time>2021-08-22T13:26:29Z</time>
      </trkpt>
      <trkpt lat="45.73441" lon="5.83663">
        <ele>736.4</ele>
        <time>2021-08-22T13:26:31Z</time>
      </trkpt>
      <trkpt lat="45.73438" lon="5.83666">
        <ele>735.5</ele>
        <time>2021-08-22T13:26:32Z</time>
      </trkpt>
      <trkpt lat="45.73437" lon="5.83668">
        <ele>734.9</ele>
        <time>2021-08-22T13:26:33Z</time>
      </trkpt>
      <trkpt lat="45.73436" lon="5.83669">
        <ele>734.7</ele>
        <time>2021-08-22T13:26:34Z</time>
      </trkpt>
      <trkpt lat="45.73439" lon="5.83679">
        <ele>732.8</ele>
        <time>2021-08-22T13:26:36Z</time>
      </trkpt>
      <trkpt lat="45.7344" lon="5.83686">
        <ele>731.7</ele>
        <time>2021-08-22T13:26:38Z</time>
      </trkpt>
      <trkpt lat="45.73441" lon="5.83692">
        <ele>730.6</ele>
        <time>2021-08-22T13:26:40Z</time>
      </trkpt>
      <trkpt lat="45.73442" lon="5.83698">
        <ele>729.5</ele>
        <time>2021-08-22T13:26:41Z</time>
      </trkpt>
      <trkpt lat="45.73443" lon="5.83705">
        <ele>728.4</ele>
        <time>2021-08-22T13:26:42Z</time>
      </trkpt>
      <trkpt lat="45.73444" lon="5.83711">
        <ele>727.4</ele>
        <time>2021-08-22T13:26:44Z</time>
      </trkpt>
      <trkpt lat="45.73446" lon="5.83717">
        <ele>726.3</ele>
        <time>2021-08-22T13:29:06Z</time>
      </trkpt>
      <trkpt lat="45.73447" lon="5.83724">
        <ele>725.4</ele>
        <time>2021-08-22T13:29:07Z</time>
      </trkpt>
      <trkpt lat="45.73439" lon="5.83727">
        <ele>723.7</ele>
        <time>2021-08-22T13:29:08Z</time>
      </trkpt>
      <trkpt lat="45.73433" lon="5.8373">
        <ele>722.5</ele>
        <time>2021-08-22T13:29:09Z</time>
      </trkpt>
      <trkpt lat="45.73422" lon="5.83734">
        <ele>720.4</ele>
        <time>2021-08-22T13:29:11Z</time>
      </trkpt>
      <trkpt lat="45.73417" lon="5.83738">
        <ele>719.4</ele>
        <time>2021-08-22T13:29:12Z</time>
      </trkpt>
      <trkpt lat="45.73412" lon="5.83744">
        <ele>718.4</ele>
        <time>2021-08-22T13:29:14Z</time>
      </trkpt>
      <trkpt lat="45.7341" lon="5.83748">
        <ele>717.7</ele>
        <time>2021-08-22T13:29:15Z</time>
      </trkpt>
      <trkpt lat="45.73408" lon="5.83751">
        <ele>717.3</ele>
        <time>2021-08-22T13:29:16Z</time>
      </trkpt>
      <trkpt lat="45.73405" lon="5.83755">
        <ele>716.4</ele>
        <time>2021-08-22T13:29:18Z</time>
      </trkpt>
      <trkpt lat="45.73403" lon="5.83757">
        <ele>715.9</ele>
        <time>2021-08-22T13:29:19Z</time>
      </trkpt>
      <trkpt lat="45.73401" lon="5.83759">
        <ele>715.4</ele>
        <time>2021-08-22T13:29:21Z</time>
      </trkpt>
      <trkpt lat="45.73402" lon="5.8376">
        <ele>715.3</ele>
        <time>2021-08-22T13:29:22Z</time>
      </trkpt>
      <trkpt lat="45.73402" lon="5.83762">
        <ele>715.1</ele>
        <time>2021-08-22T13:29:23Z</time>
      </trkpt>
      <trkpt lat="45.73401" lon="5.83763">
        <ele>714.9</ele>
        <time>2021-08-22T13:29:25Z</time>
      </trkpt>
      <trkpt lat="45.73402" lon="5.83764">
        <ele>714.7</ele>
        <time>2021-08-22T13:29:26Z</time>
      </trkpt>
      <trkpt lat="45.73403" lon="5.83769">
        <ele>713</ele>
        <time>2021-08-22T13:29:28Z</time>
      </trkpt>
      <trkpt lat="45.73403" lon="5.8377">
        <ele>712.7</ele>
        <time>2021-08-22T13:29:29Z</time>
      </trkpt>
      <trkpt lat="45.73404" lon="5.83771">
        <ele>712.4</ele>
        <time>2021-08-22T13:29:30Z</time>
      </trkpt>
      <trkpt lat="45.73405" lon="5.83773">
        <ele>712</ele>
        <time>2021-08-22T13:29:32Z</time>
      </trkpt>
      <trkpt lat="45.73437" lon="5.83781">
        <ele>704.1</ele>
        <time>2021-08-22T13:29:41Z</time>
      </trkpt>
      <trkpt lat="45.73442" lon="5.83782">
        <ele>702.9</ele>
        <time>2021-08-22T13:29:43Z</time>
      </trkpt>
      <trkpt lat="45.73446" lon="5.83784">
        <ele>702</ele>
        <time>2021-08-22T13:29:44Z</time>
      </trkpt>
      <trkpt lat="45.73451" lon="5.83789">
        <ele>700.5</ele>
        <time>2021-08-22T13:29:46Z</time>
      </trkpt>
      <trkpt lat="45.73452" lon="5.83791">
        <ele>700.1</ele>
        <time>2021-08-22T13:29:47Z</time>
      </trkpt>
      <trkpt lat="45.73456" lon="5.83796">
        <ele>698.9</ele>
        <time>2021-08-22T13:29:49Z</time>
      </trkpt>
      <trkpt lat="45.73457" lon="5.83798">
        <ele>698.5</ele>
        <time>2021-08-22T13:29:50Z</time>
      </trkpt>
      <trkpt lat="45.73457" lon="5.83801">
        <ele>698</ele>
        <time>2021-08-22T13:29:52Z</time>
      </trkpt>
      <trkpt lat="45.73456" lon="5.83804">
        <ele>697.5</ele>
        <time>2021-08-22T13:29:53Z</time>
      </trkpt>
      <trkpt lat="45.73454" lon="5.83807">
        <ele>696.9</ele>
        <time>2021-08-22T13:29:55Z</time>
      </trkpt>
      <trkpt lat="45.72912" lon="5.84003">
        <ele>671.1</ele>
        <time>2021-08-22T13:32:45Z</time>
      </trkpt>
      <trkpt lat="45.72912" lon="5.84003">
        <ele>671.1</ele>
        <time>2021-08-22T13:32:46Z</time>
      </trkpt>
      <trkpt lat="45.7291" lon="5.84005">
        <ele>671</ele>
        <time>2021-08-22T13:32:47Z</time>
      </trkpt>
      <trkpt lat="45.72908" lon="5.84005">
        <ele>671</ele>
        <time>2021-08-22T13:32:49Z</time>
      </trkpt>
      <trkpt lat="45.72904" lon="5.84007">
        <ele>670.9</ele>
        <time>2021-08-22T13:32:50Z</time>
      </trkpt>
      <trkpt lat="45.729" lon="5.84009">
        <ele>670.8</ele>
        <time>2021-08-22T13:32:52Z</time>
      </trkpt>
      <trkpt lat="45.72894" lon="5.84013">
        <ele>670.5</ele>
        <time>2021-08-22T13:32:53Z</time>
      </trkpt>
      <trkpt lat="45.72887" lon="5.84017">
        <ele>670.3</ele>
        <time>2021-08-22T13:32:55Z</time>
      </trkpt>
      <trkpt lat="45.72883" lon="5.8402">
        <ele>670.2</ele>
        <time>2021-08-22T13:32:56Z</time>
      </trkpt>
      <trkpt lat="45.72876" lon="5.84024">
        <ele>670</ele>
        <time>2021-08-22T13:32:57Z</time>
      </trkpt>
      <trkpt lat="45.7287" lon="5.84027">
        <ele>669.8</ele>
        <time>2021-08-22T13:32:58Z</time>
      </trkpt>
      <trkpt lat="45.72864" lon="5.84031">
        <ele>669.5</ele>
        <time>2021-08-22T13:32:59Z</time>
      </trkpt>
      <trkpt lat="45.72853" lon="5.84037">
        <ele>669.1</ele>
        <time>2021-08-22T13:33:01Z</time>
      </trkpt>
      <trkpt lat="45.7285" lon="5.84039">
        <ele>668.9</ele>
        <time>2021-08-22T13:33:03Z</time>
      </trkpt>
      <trkpt lat="45.72846" lon="5.84042">
        <ele>668.8</ele>
        <time>2021-08-22T13:33:04Z</time>
      </trkpt>
      <trkpt lat="45.72845" lon="5.84042">
        <ele>668.7</ele>
        <time>2021-08-22T13:33:05Z</time>
      </trkpt>
      <trkpt lat="45.7283" lon="5.84054">
        <ele>668</ele>
        <time>2021-08-22T13:33:07Z</time>
      </trkpt>
      <trkpt lat="45.72809" lon="5.84074">
        <ele>667.1</ele>
        <time>2021-08-22T13:33:08Z</time>
      </trkpt>
      <trkpt lat="45.72806" lon="5.84077">
        <ele>667</ele>
        <time>2021-08-22T13:33:09Z</time>
      </trkpt>
      <trkpt lat="45.72796" lon="5.84089">
        <ele>666.6</ele>
        <time>2021-08-22T13:33:11Z</time>
      </trkpt>
      <trkpt lat="45.7279" lon="5.84097">
        <ele>666.4</ele>
        <time>2021-08-22T13:33:12Z</time>
      </trkpt>
      <trkpt lat="45.72783" lon="5.8411">
        <ele>666.3</ele>
        <time>2021-08-22T13:33:14Z</time>
      </trkpt>
      <trkpt lat="45.72783" lon="5.84112">
        <ele>666.3</ele>
        <time>2021-08-22T13:33:15Z</time>
      </trkpt>
      <trkpt lat="45.72784" lon="5.84116">
        <ele>666.3</ele>
        <time>2021-08-22T13:33:17Z</time>
      </trkpt>
      <trkpt lat="45.72784" lon="5.84118">
        <ele>666.3</ele>
        <time>2021-08-22T13:33:18Z</time>
      </trkpt>
      <trkpt lat="45.72784" lon="5.8412">
        <ele>666.3</ele>
        <time>2021-08-22T13:33:20Z</time>
      </trkpt>
      <trkpt lat="45.72784" lon="5.8412">
        <ele>666.3</ele>
        <time>2021-08-22T13:33:21Z</time>
      </trkpt>
      <trkpt lat="45.72784" lon="5.8412">
        <ele>666.3</ele>
        <time>2021-08-22T13:33:23Z</time>
      </trkpt>
      <trkpt lat="45.72784" lon="5.84119">
        <ele>666.3</ele>
        <time>2021-08-22T13:33:24Z</time>
      </trkpt>
      <trkpt lat="45.72787" lon="5.84108">
        <ele>666.4</ele>
        <time>2021-08-22T13:33:26Z</time>
      </trkpt>
      <trkpt lat="45.7279" lon="5.84098">
        <ele>666.7</ele>
        <time>2021-08-22T13:33:28Z</time>
      </trkpt>
      <trkpt lat="45.7279" lon="5.84105">
        <ele>666.9</ele>
        <time>2021-08-22T13:33:30Z</time>
      </trkpt>
      <trkpt lat="45.72788" lon="5.84111">
        <ele>667.1</ele>
        <time>2021-08-22T13:33:31Z</time>
      </trkpt>
      <trkpt lat="45.72788" lon="5.84112">
        <ele>667.2</ele>
        <time>2021-08-22T13:33:33Z</time>
      </trkpt>
      <trkpt lat="45.72788" lon="5.84113">
        <ele>667.2</ele>
        <time>2021-08-22T13:33:34Z</time>
      </trkpt>
      <trkpt lat="45.72789" lon="5.84111">
        <ele>667.4</ele>
        <time>2021-08-22T13:33:36Z</time>
      </trkpt>
      <trkpt lat="45.72791" lon="5.84109">
        <ele>667.5</ele>
        <time>2021-08-22T13:33:37Z</time>
      </trkpt>
      <trkpt lat="45.72792" lon="5.84107">
        <ele>667.7</ele>
        <time>2021-08-22T13:33:39Z</time>
      </trkpt>
      <trkpt lat="45.72792" lon="5.84107">
        <ele>667.7</ele>
        <time>2021-08-22T13:33:41Z</time>
      </trkpt>
      <trkpt lat="45.72791" lon="5.8411">
        <ele>667.9</ele>
        <time>2021-08-22T13:33:43Z</time>
      </trkpt>
      <trkpt lat="45.7279" lon="5.84113">
        <ele>668.1</ele>
        <time>2021-08-22T13:33:45Z</time>
      </trkpt>
      <trkpt lat="45.72789" lon="5.84113">
        <ele>668.1</ele>
        <time>2021-08-22T13:33:46Z</time>
      </trkpt>
      <trkpt lat="45.72789" lon="5.84114">
        <ele>668.2</ele>
        <time>2021-08-22T13:33:48Z</time>
      </trkpt>
      <trkpt lat="45.72788" lon="5.84118">
        <ele>668.4</ele>
        <time>2021-08-22T13:33:50Z</time>
      </trkpt>
      <trkpt lat="45.72787" lon="5.8412">
        <ele>668.6</ele>
        <time>2021-08-22T13:33:51Z</time>
      </trkpt>
      <trkpt lat="45.72787" lon="5.84122">
        <ele>668.8</ele>
        <time>2021-08-22T13:33:52Z</time>
      </trkpt>
      <trkpt lat="45.72786" lon="5.84124">
        <ele>668.9</ele>
        <time>2021-08-22T13:33:54Z</time>
      </trkpt>
      <trkpt lat="45.72786" lon="5.84125">
        <ele>668.9</ele>
        <time>2021-08-22T13:33:55Z</time>
      </trkpt>
      <trkpt lat="45.72786" lon="5.84125">
        <ele>669</ele>
        <time>2021-08-22T13:33:57Z</time>
      </trkpt>
      <trkpt lat="45.72786" lon="5.84125">
        <ele>669</ele>
        <time>2021-08-22T13:33:58Z</time>
      </trkpt>
      <trkpt lat="45.72786" lon="5.84125">
        <ele>669</ele>
        <time>2021-08-22T13:33:59Z</time>
      </trkpt>
      <trkpt lat="45.72784" lon="5.84113">
        <ele>669.8</ele>
        <time>2021-08-22T13:34:01Z</time>
      </trkpt>
      <trkpt lat="45.72783" lon="5.84107">
        <ele>670.3</ele>
        <time>2021-08-22T13:34:03Z</time>
      </trkpt>
      <trkpt lat="45.72782" lon="5.84104">
        <ele>670.5</ele>
        <time>2021-08-22T13:34:04Z</time>
      </trkpt>
      <trkpt lat="45.72782" lon="5.84104">
        <ele>670.5</ele>
        <time>2021-08-22T13:34:05Z</time>
      </trkpt>
      <trkpt lat="45.72782" lon="5.84104">
        <ele>670.5</ele>
        <time>2021-08-22T13:34:07Z</time>
      </trkpt>
      <trkpt lat="45.72782" lon="5.84103">
        <ele>670.6</ele>
        <time>2021-08-22T13:34:08Z</time>
      </trkpt>
      <trkpt lat="45.72781" lon="5.84103">
        <ele>670.6</ele>
        <time>2021-08-22T13:34:10Z</time>
      </trkpt>
      <trkpt lat="45.72781" lon="5.84103">
        <ele>670.6</ele>
        <time>2021-08-22T13:34:11Z</time>
      </trkpt>
      <trkpt lat="45.72781" lon="5.84102">
        <ele>670.6</ele>
        <time>2021-08-22T13:34:12Z</time>
      </trkpt>
      <trkpt lat="45.72781" lon="5.84102">
        <ele>670.6</ele>
        <time>2021-08-22T13:34:13Z</time>
      </trkpt>
      <trkpt lat="45.72781" lon="5.84102">
        <ele>670.7</ele>
        <time>2021-08-22T13:34:14Z</time>
      </trkpt>
      <trkpt lat="45.72781" lon="5.84101">
        <ele>670.7</ele>
        <time>2021-08-22T13:34:16Z</time>
      </trkpt>
      <trkpt lat="45.72781" lon="5.84101">
        <ele>670.7</ele>
        <time>2021-08-22T13:34:17Z</time>
      </trkpt>
      <trkpt lat="45.72781" lon="5.84101">
        <ele>670.8</ele>
        <time>2021-08-22T13:34:18Z</time>
      </trkpt>
      <trkpt lat="45.7278" lon="5.84101">
        <ele>670.8</ele>
        <time>2021-08-22T13:34:20Z</time>
      </trkpt>
      <trkpt lat="45.7278" lon="5.841">
        <ele>670.8</ele>
        <time>2021-08-22T13:34:22Z</time>
      </trkpt>
      <trkpt lat="45.7278" lon="5.841">
        <ele>670.8</ele>
        <time>2021-08-22T13:34:24Z</time>
      </trkpt>
      <trkpt lat="45.7278" lon="5.841">
        <ele>670.8</ele>
        <time>2021-08-22T13:34:26Z</time>
      </trkpt>
      <trkpt lat="45.7278" lon="5.84099">
        <ele>670.9</ele>
        <time>2021-08-22T13:34:28Z</time>
      </trkpt>
      <trkpt lat="45.7278" lon="5.84099">
        <ele>670.9</ele>
        <time>2021-08-22T13:34:29Z</time>
      </trkpt>
      <trkpt lat="45.7278" lon="5.84099">
        <ele>670.9</ele>
        <time>2021-08-22T13:34:30Z</time>
      </trkpt>
      <trkpt lat="45.7278" lon="5.84099">
        <ele>670.9</ele>
        <time>2021-08-22T13:34:32Z</time>
      </trkpt>
      <trkpt lat="45.7278" lon="5.84099">
        <ele>670.9</ele>
        <time>2021-08-22T13:34:33Z</time>
      </trkpt>
      <trkpt lat="45.72777" lon="5.84093">
        <ele>671.4</ele>
        <time>2021-08-22T13:34:35Z</time>
      </trkpt>
      <trkpt lat="45.72777" lon="5.84093">
        <ele>671.4</ele>
        <time>2021-08-22T13:34:36Z</time>
      </trkpt>
      <trkpt lat="45.72777" lon="5.84092">
        <ele>671.4</ele>
        <time>2021-08-22T13:34:38Z</time>
      </trkpt>
      <trkpt lat="45.72777" lon="5.84092">
        <ele>671.4</ele>
        <time>2021-08-22T13:34:39Z</time>
      </trkpt>
      <trkpt lat="45.72777" lon="5.84092">
        <ele>671.4</ele>
        <time>2021-08-22T13:34:41Z</time>
      </trkpt>
      <trkpt lat="45.72777" lon="5.84092">
        <ele>671.4</ele>
        <time>2021-08-22T13:34:42Z</time>
      </trkpt>
      <trkpt lat="45.72778" lon="5.84096">
        <ele>671.7</ele>
        <time>2021-08-22T13:34:43Z</time>
      </trkpt>
      <trkpt lat="45.72781" lon="5.84105">
        <ele>672.3</ele>
        <time>2021-08-22T13:34:45Z</time>
      </trkpt>
      <trkpt lat="45.72782" lon="5.84108">
        <ele>672.5</ele>
        <time>2021-08-22T13:34:47Z</time>
      </trkpt>
      <trkpt lat="45.72782" lon="5.84108">
        <ele>672.5</ele>
        <time>2021-08-22T13:34:48Z</time>
      </trkpt>
      <trkpt lat="45.72782" lon="5.84108">
        <ele>672.5</ele>
        <time>2021-08-22T13:34:49Z</time>
      </trkpt>
      <trkpt lat="45.72782" lon="5.84108">
        <ele>672.5</ele>
        <time>2021-08-22T13:34:50Z</time>
      </trkpt>
      <trkpt lat="45.72782" lon="5.84108">
        <ele>672.5</ele>
        <time>2021-08-22T13:34:51Z</time>
      </trkpt>
      <trkpt lat="45.72782" lon="5.84108">
        <ele>672.5</ele>
        <time>2021-08-22T13:34:53Z</time>
      </trkpt>
      <trkpt lat="45.72782" lon="5.84108">
        <ele>672.5</ele>
        <time>2021-08-22T13:34:55Z</time>
      </trkpt>
      <trkpt lat="45.72782" lon="5.84108">
        <ele>672.5</ele>
        <time>2021-08-22T13:34:57Z</time>
      </trkpt>
      <trkpt lat="45.72782" lon="5.84108">
        <ele>672.5</ele>
        <time>2021-08-22T13:34:58Z</time>
      </trkpt>
      <trkpt lat="45.72781" lon="5.84107">
        <ele>672.6</ele>
        <time>2021-08-22T13:34:59Z</time>
      </trkpt>
      <trkpt lat="45.72779" lon="5.84106">
        <ele>672.8</ele>
        <time>2021-08-22T13:35:01Z</time>
      </trkpt>
      <trkpt lat="45.72775" lon="5.84104">
        <ele>673.1</ele>
        <time>2021-08-22T13:35:02Z</time>
      </trkpt>
      <trkpt lat="45.72772" lon="5.84103">
        <ele>673.3</ele>
        <time>2021-08-22T13:35:03Z</time>
      </trkpt>
      <trkpt lat="45.72771" lon="5.84102">
        <ele>673.4</ele>
        <time>2021-08-22T13:35:04Z</time>
      </trkpt>
      <trkpt lat="45.72768" lon="5.84101">
        <ele>673.7</ele>
        <time>2021-08-22T13:35:06Z</time>
      </trkpt>
      <trkpt lat="45.72766" lon="5.841">
        <ele>673.8</ele>
        <time>2021-08-22T13:35:07Z</time>
      </trkpt>
      <trkpt lat="45.72764" lon="5.84098">
        <ele>674</ele>
        <time>2021-08-22T13:35:08Z</time>
      </trkpt>
      <trkpt lat="45.72763" lon="5.84097">
        <ele>674.1</ele>
        <time>2021-08-22T13:35:09Z</time>
      </trkpt>
      <trkpt lat="45.7276" lon="5.84095">
        <ele>674.3</ele>
        <time>2021-08-22T13:35:11Z</time>
      </trkpt>
      <trkpt lat="45.72759" lon="5.84095">
        <ele>674.4</ele>
        <time>2021-08-22T13:35:12Z</time>
      </trkpt>
      <trkpt lat="45.72758" lon="5.84094">
        <ele>674.5</ele>
        <time>2021-08-22T13:35:13Z</time>
      </trkpt>
      <trkpt lat="45.72756" lon="5.84092">
        <ele>674.7</ele>
        <time>2021-08-22T13:35:14Z</time>
      </trkpt>
      <trkpt lat="45.72753" lon="5.84091">
        <ele>674.9</ele>
        <time>2021-08-22T13:35:16Z</time>
      </trkpt>
      <trkpt lat="45.72752" lon="5.8409">
        <ele>675</ele>
        <time>2021-08-22T13:35:17Z</time>
      </trkpt>
      <trkpt lat="45.72751" lon="5.84089">
        <ele>675.1</ele>
        <time>2021-08-22T13:35:19Z</time>
      </trkpt>
      <trkpt lat="45.7275" lon="5.84089">
        <ele>675.1</ele>
        <time>2021-08-22T13:35:20Z</time>
      </trkpt>
      <trkpt lat="45.72749" lon="5.84088">
        <ele>675.2</ele>
        <time>2021-08-22T13:35:21Z</time>
      </trkpt>
      <trkpt lat="45.72748" lon="5.84089">
        <ele>675.3</ele>
        <time>2021-08-22T13:35:22Z</time>
      </trkpt>
      <trkpt lat="45.72748" lon="5.84089">
        <ele>675.3</ele>
        <time>2021-08-22T13:35:24Z</time>
      </trkpt>
      <trkpt lat="45.72747" lon="5.84089">
        <ele>675.3</ele>
        <time>2021-08-22T13:35:25Z</time>
      </trkpt>
      <trkpt lat="45.72747" lon="5.84089">
        <ele>675.4</ele>
        <time>2021-08-22T13:35:26Z</time>
      </trkpt>
      <trkpt lat="45.72747" lon="5.84088">
        <ele>675.4</ele>
        <time>2021-08-22T13:35:27Z</time>
      </trkpt>
      <trkpt lat="45.72748" lon="5.84088">
        <ele>675.4</ele>
        <time>2021-08-22T13:35:29Z</time>
      </trkpt>
      <trkpt lat="45.72748" lon="5.84088">
        <ele>675.4</ele>
        <time>2021-08-22T13:35:30Z</time>
      </trkpt>
      <trkpt lat="45.72749" lon="5.84089">
        <ele>675.5</ele>
        <time>2021-08-22T13:35:31Z</time>
      </trkpt>
      <trkpt lat="45.7275" lon="5.84089">
        <ele>675.5</ele>
        <time>2021-08-22T13:35:32Z</time>
      </trkpt>
      <trkpt lat="45.7275" lon="5.8409">
        <ele>675.6</ele>
        <time>2021-08-22T13:35:33Z</time>
      </trkpt>
      <trkpt lat="45.72751" lon="5.84091">
        <ele>675.7</ele>
        <time>2021-08-22T13:35:35Z</time>
      </trkpt>
      <trkpt lat="45.72751" lon="5.84092">
        <ele>675.7</ele>
        <time>2021-08-22T13:35:36Z</time>
      </trkpt>
      <trkpt lat="45.72751" lon="5.84092">
        <ele>675.7</ele>
        <time>2021-08-22T13:35:37Z</time>
      </trkpt>
      <trkpt lat="45.72751" lon="5.84093">
        <ele>675.8</ele>
        <time>2021-08-22T13:35:38Z</time>
      </trkpt>
      <trkpt lat="45.72751" lon="5.84093">
        <ele>675.8</ele>
        <time>2021-08-22T13:35:40Z</time>
      </trkpt>
      <trkpt lat="45.72751" lon="5.84093">
        <ele>675.8</ele>
        <time>2021-08-22T13:35:41Z</time>
      </trkpt>
      <trkpt lat="45.72752" lon="5.84093">
        <ele>675.8</ele>
        <time>2021-08-22T13:35:42Z</time>
      </trkpt>
      <trkpt lat="45.72752" lon="5.84093">
        <ele>675.8</ele>
        <time>2021-08-22T13:35:44Z</time>
      </trkpt>
      <trkpt lat="45.72752" lon="5.84094">
        <ele>675.8</ele>
        <time>2021-08-22T13:35:45Z</time>
      </trkpt>
      <trkpt lat="45.72752" lon="5.84094">
        <ele>675.8</ele>
        <time>2021-08-22T13:35:46Z</time>
      </trkpt>
      <trkpt lat="45.72752" lon="5.84094">
        <ele>675.9</ele>
        <time>2021-08-22T13:35:47Z</time>
      </trkpt>
      <trkpt lat="45.72752" lon="5.84094">
        <ele>675.9</ele>
        <time>2021-08-22T13:35:48Z</time>
      </trkpt>
      <trkpt lat="45.72752" lon="5.84094">
        <ele>675.9</ele>
        <time>2021-08-22T13:35:50Z</time>
      </trkpt>
      <trkpt lat="45.72752" lon="5.84094">
        <ele>675.9</ele>
        <time>2021-08-22T13:35:51Z</time>
      </trkpt>
      <trkpt lat="45.72752" lon="5.84094">
        <ele>675.9</ele>
        <time>2021-08-22T13:35:52Z</time>
      </trkpt>
      <trkpt lat="45.72751" lon="5.84094">
        <ele>676</ele>
        <time>2021-08-22T13:35:53Z</time>
      </trkpt>
      <trkpt lat="45.72749" lon="5.84094">
        <ele>676.1</ele>
        <time>2021-08-22T13:35:55Z</time>
      </trkpt>
      <trkpt lat="45.72745" lon="5.84094">
        <ele>676.4</ele>
        <time>2021-08-22T13:35:56Z</time>
      </trkpt>
      <trkpt lat="45.72744" lon="5.84094">
        <ele>676.5</ele>
        <time>2021-08-22T13:35:58Z</time>
      </trkpt>
      <trkpt lat="45.72742" lon="5.84094">
        <ele>676.6</ele>
        <time>2021-08-22T13:35:59Z</time>
      </trkpt>
      <trkpt lat="45.7274" lon="5.84094">
        <ele>676.8</ele>
        <time>2021-08-22T13:36:00Z</time>
      </trkpt>
      <trkpt lat="45.72738" lon="5.84093">
        <ele>676.9</ele>
        <time>2021-08-22T13:36:02Z</time>
      </trkpt>
      <trkpt lat="45.72735" lon="5.84091">
        <ele>677.1</ele>
        <time>2021-08-22T13:36:04Z</time>
      </trkpt>
      <trkpt lat="45.72735" lon="5.84091">
        <ele>677.1</ele>
        <time>2021-08-22T13:36:05Z</time>
      </trkpt>
      <trkpt lat="45.72731" lon="5.8409">
        <ele>677.4</ele>
        <time>2021-08-22T13:36:06Z</time>
      </trkpt>
      <trkpt lat="45.7273" lon="5.8409">
        <ele>677.5</ele>
        <time>2021-08-22T13:36:07Z</time>
      </trkpt>
      <trkpt lat="45.72727" lon="5.8409">
        <ele>677.6</ele>
        <time>2021-08-22T13:36:08Z</time>
      </trkpt>
      <trkpt lat="45.72723" lon="5.84089">
        <ele>678</ele>
        <time>2021-08-22T13:36:10Z</time>
      </trkpt>
      <trkpt lat="45.72721" lon="5.84089">
        <ele>678.1</ele>
        <time>2021-08-22T13:36:11Z</time>
      </trkpt>
      <trkpt lat="45.7272" lon="5.84089">
        <ele>678.2</ele>
        <time>2021-08-22T13:36:12Z</time>
      </trkpt>
      <trkpt lat="45.72718" lon="5.84088">
        <ele>678.3</ele>
        <time>2021-08-22T13:36:13Z</time>
      </trkpt>
      <trkpt lat="45.72717" lon="5.84087">
        <ele>678.4</ele>
        <time>2021-08-22T13:36:15Z</time>
      </trkpt>
      <trkpt lat="45.72716" lon="5.84087">
        <ele>678.5</ele>
        <time>2021-08-22T13:36:16Z</time>
      </trkpt>
      <trkpt lat="45.72714" lon="5.84088">
        <ele>678.6</ele>
        <time>2021-08-22T13:36:18Z</time>
      </trkpt>
      <trkpt lat="45.72636" lon="5.84142">
        <ele>685.3</ele>
        <time>2021-08-22T13:37:57Z</time>
      </trkpt>
      <trkpt lat="45.72634" lon="5.84144">
        <ele>685.4</ele>
        <time>2021-08-22T13:37:58Z</time>
      </trkpt>
      <trkpt lat="45.72634" lon="5.84144">
        <ele>685.5</ele>
        <time>2021-08-22T13:38:00Z</time>
      </trkpt>
      <trkpt lat="45.72633" lon="5.84143">
        <ele>685.6</ele>
        <time>2021-08-22T13:38:01Z</time>
      </trkpt>
      <trkpt lat="45.72632" lon="5.84143">
        <ele>685.7</ele>
        <time>2021-08-22T13:38:02Z</time>
      </trkpt>
      <trkpt lat="45.72628" lon="5.84142">
        <ele>686</ele>
        <time>2021-08-22T13:38:04Z</time>
      </trkpt>
      <trkpt lat="45.72626" lon="5.84141">
        <ele>686.1</ele>
        <time>2021-08-22T13:38:05Z</time>
      </trkpt>
      <trkpt lat="45.72622" lon="5.84141">
        <ele>686.5</ele>
        <time>2021-08-22T13:38:07Z</time>
      </trkpt>
      <trkpt lat="45.7262" lon="5.84141">
        <ele>686.6</ele>
        <time>2021-08-22T13:38:08Z</time>
      </trkpt>
      <trkpt lat="45.72617" lon="5.84139">
        <ele>686.9</ele>
        <time>2021-08-22T13:38:10Z</time>
      </trkpt>
      <trkpt lat="45.72616" lon="5.84138">
        <ele>687</ele>
        <time>2021-08-22T13:38:11Z</time>
      </trkpt>
      <trkpt lat="45.72613" lon="5.84138">
        <ele>687.3</ele>
        <time>2021-08-22T13:38:12Z</time>
      </trkpt>
      <trkpt lat="45.72612" lon="5.84137">
        <ele>687.4</ele>
        <time>2021-08-22T13:38:13Z</time>
      </trkpt>
      <trkpt lat="45.72611" lon="5.84137">
        <ele>687.5</ele>
        <time>2021-08-22T13:38:15Z</time>
      </trkpt>
      <trkpt lat="45.72609" lon="5.84137">
        <ele>687.6</ele>
        <time>2021-08-22T13:38:16Z</time>
      </trkpt>
      <trkpt lat="45.72606" lon="5.84137">
        <ele>687.8</ele>
        <time>2021-08-22T13:38:18Z</time>
      </trkpt>
      <trkpt lat="45.72605" lon="5.84137">
        <ele>688</ele>
        <time>2021-08-22T13:38:19Z</time>
      </trkpt>
      <trkpt lat="45.72603" lon="5.84137">
        <ele>688.1</ele>
        <time>2021-08-22T13:38:20Z</time>
      </trkpt>
      <trkpt lat="45.72602" lon="5.84137">
        <ele>688.2</ele>
        <time>2021-08-22T13:38:22Z</time>
      </trkpt>
      <trkpt lat="45.72601" lon="5.84138">
        <ele>688.2</ele>
        <time>2021-08-22T13:38:23Z</time>
      </trkpt>
      <trkpt lat="45.726" lon="5.84139">
        <ele>688.4</ele>
        <time>2021-08-22T13:38:24Z</time>
      </trkpt>
      <trkpt lat="45.72597" lon="5.84141">
        <ele>688.6</ele>
        <time>2021-08-22T13:38:25Z</time>
      </trkpt>
      <trkpt lat="45.72596" lon="5.84143">
        <ele>688.7</ele>
        <time>2021-08-22T13:38:27Z</time>
      </trkpt>
      <trkpt lat="45.72595" lon="5.84145">
        <ele>688.8</ele>
        <time>2021-08-22T13:38:28Z</time>
      </trkpt>
      <trkpt lat="45.72594" lon="5.84149">
        <ele>689</ele>
        <time>2021-08-22T13:38:29Z</time>
      </trkpt>
      <trkpt lat="45.72593" lon="5.8415">
        <ele>689.1</ele>
        <time>2021-08-22T13:38:30Z</time>
      </trkpt>
      <trkpt lat="45.72592" lon="5.8415">
        <ele>689.1</ele>
        <time>2021-08-22T13:38:32Z</time>
      </trkpt>
      <trkpt lat="45.72592" lon="5.8415">
        <ele>689.2</ele>
        <time>2021-08-22T13:38:33Z</time>
      </trkpt>
      <trkpt lat="45.72591" lon="5.84149">
        <ele>689.2</ele>
        <time>2021-08-22T13:38:34Z</time>
      </trkpt>
      <trkpt lat="45.7259" lon="5.84148">
        <ele>689.3</ele>
        <time>2021-08-22T13:38:35Z</time>
      </trkpt>
      <trkpt lat="45.72589" lon="5.84148">
        <ele>689.4</ele>
        <time>2021-08-22T13:38:37Z</time>
      </trkpt>
      <trkpt lat="45.72587" lon="5.84147">
        <ele>689.5</ele>
        <time>2021-08-22T13:38:38Z</time>
      </trkpt>
      <trkpt lat="45.72586" lon="5.84147">
        <ele>689.6</ele>
        <time>2021-08-22T13:38:39Z</time>
      </trkpt>
      <trkpt lat="45.72585" lon="5.84148">
        <ele>689.6</ele>
        <time>2021-08-22T13:38:40Z</time>
      </trkpt>
      <trkpt lat="45.72583" lon="5.84148">
        <ele>689.8</ele>
        <time>2021-08-22T13:38:42Z</time>
      </trkpt>
      <trkpt lat="45.72582" lon="5.84148">
        <ele>689.8</ele>
        <time>2021-08-22T13:38:43Z</time>
      </trkpt>
      <trkpt lat="45.72548" lon="5.84152">
        <ele>691.8</ele>
        <time>2021-08-22T13:39:12Z</time>
      </trkpt>
      <trkpt lat="45.72544" lon="5.84154">
        <ele>692</ele>
        <time>2021-08-22T13:39:13Z</time>
      </trkpt>
      <trkpt lat="45.72538" lon="5.84159">
        <ele>692</ele>
        <time>2021-08-22T13:39:14Z</time>
      </trkpt>
      <trkpt lat="45.72536" lon="5.84162">
        <ele>692</ele>
        <time>2021-08-22T13:39:15Z</time>
      </trkpt>
      <trkpt lat="45.72533" lon="5.84166">
        <ele>692</ele>
        <time>2021-08-22T13:39:17Z</time>
      </trkpt>
      <trkpt lat="45.72531" lon="5.84169">
        <ele>691.9</ele>
        <time>2021-08-22T13:39:18Z</time>
      </trkpt>
      <trkpt lat="45.72528" lon="5.84175">
        <ele>691.8</ele>
        <time>2021-08-22T13:39:19Z</time>
      </trkpt>
      <trkpt lat="45.72527" lon="5.84185">
        <ele>691.7</ele>
        <time>2021-08-22T13:39:21Z</time>
      </trkpt>
      <trkpt lat="45.72525" lon="5.84194">
        <ele>691.6</ele>
        <time>2021-08-22T13:39:22Z</time>
      </trkpt>
      <trkpt lat="45.72522" lon="5.84202">
        <ele>691.4</ele>
        <time>2021-08-22T13:39:23Z</time>
      </trkpt>
      <trkpt lat="45.72517" lon="5.84216">
        <ele>690.8</ele>
        <time>2021-08-22T13:39:25Z</time>
      </trkpt>
      <trkpt lat="45.72512" lon="5.84225">
        <ele>690</ele>
        <time>2021-08-22T13:39:26Z</time>
      </trkpt>
      <trkpt lat="45.72508" lon="5.8423">
        <ele>689.4</ele>
        <time>2021-08-22T13:39:28Z</time>
      </trkpt>
      <trkpt lat="45.72504" lon="5.84235">
        <ele>688.6</ele>
        <time>2021-08-22T13:39:29Z</time>
      </trkpt>
      <trkpt lat="45.725" lon="5.84241">
        <ele>687.9</ele>
        <time>2021-08-22T13:39:30Z</time>
      </trkpt>
      <trkpt lat="45.72496" lon="5.84246">
        <ele>687</ele>
        <time>2021-08-22T13:39:31Z</time>
      </trkpt>
      <trkpt lat="45.72489" lon="5.84251">
        <ele>685.5</ele>
        <time>2021-08-22T13:39:33Z</time>
      </trkpt>
      <trkpt lat="45.72476" lon="5.84259">
        <ele>683.1</ele>
        <time>2021-08-22T13:39:35Z</time>
      </trkpt>
      <trkpt lat="45.72469" lon="5.84263">
        <ele>681.9</ele>
        <time>2021-08-22T13:39:36Z</time>
      </trkpt>
      <trkpt lat="45.72463" lon="5.84269">
        <ele>680.8</ele>
        <time>2021-08-22T13:39:37Z</time>
      </trkpt>
      <trkpt lat="45.72452" lon="5.84278">
        <ele>678.8</ele>
        <time>2021-08-22T13:39:39Z</time>
      </trkpt>
      <trkpt lat="45.72447" lon="5.84284">
        <ele>677.9</ele>
        <time>2021-08-22T13:39:40Z</time>
      </trkpt>
      <trkpt lat="45.72436" lon="5.84294">
        <ele>676.1</ele>
        <time>2021-08-22T13:39:42Z</time>
      </trkpt>
      <trkpt lat="45.72423" lon="5.84301">
        <ele>674.2</ele>
        <time>2021-08-22T13:39:44Z</time>
      </trkpt>
      <trkpt lat="45.72413" lon="5.84306">
        <ele>672.7</ele>
        <time>2021-08-22T13:39:46Z</time>
      </trkpt>
      <trkpt lat="45.72409" lon="5.8431">
        <ele>671.9</ele>
        <time>2021-08-22T13:39:47Z</time>
      </trkpt>
      <trkpt lat="45.72405" lon="5.84314">
        <ele>671.2</ele>
        <time>2021-08-22T13:39:48Z</time>
      </trkpt>
      <trkpt lat="45.72398" lon="5.8432">
        <ele>670</ele>
        <time>2021-08-22T13:39:50Z</time>
      </trkpt>
      <trkpt lat="45.72397" lon="5.84325">
        <ele>669.5</ele>
        <time>2021-08-22T13:39:51Z</time>
      </trkpt>
      <trkpt lat="45.72395" lon="5.84336">
        <ele>668.3</ele>
        <time>2021-08-22T13:39:53Z</time>
      </trkpt>
      <trkpt lat="45.72389" lon="5.84347">
        <ele>666.9</ele>
        <time>2021-08-22T13:39:55Z</time>
      </trkpt>
      <trkpt lat="45.72379" lon="5.84356">
        <ele>665.3</ele>
        <time>2021-08-22T13:39:57Z</time>
      </trkpt>
      <trkpt lat="45.72374" lon="5.84363">
        <ele>664.5</ele>
        <time>2021-08-22T13:39:58Z</time>
      </trkpt>
      <trkpt lat="45.72365" lon="5.84378">
        <ele>663</ele>
        <time>2021-08-22T13:40:00Z</time>
      </trkpt>
      <trkpt lat="45.72359" lon="5.84386">
        <ele>662.3</ele>
        <time>2021-08-22T13:40:01Z</time>
      </trkpt>
      <trkpt lat="45.72352" lon="5.84393">
        <ele>661.6</ele>
        <time>2021-08-22T13:40:02Z</time>
      </trkpt>
      <trkpt lat="45.7234" lon="5.84406">
        <ele>660.5</ele>
        <time>2021-08-22T13:40:04Z</time>
      </trkpt>
      <trkpt lat="45.72333" lon="5.8441">
        <ele>659.8</ele>
        <time>2021-08-22T13:40:05Z</time>
      </trkpt>
      <trkpt lat="45.72317" lon="5.84415">
        <ele>658</ele>
        <time>2021-08-22T13:40:07Z</time>
      </trkpt>
      <trkpt lat="45.72309" lon="5.84418">
        <ele>657</ele>
        <time>2021-08-22T13:40:08Z</time>
      </trkpt>
      <trkpt lat="45.72302" lon="5.84421">
        <ele>656.1</ele>
        <time>2021-08-22T13:40:09Z</time>
      </trkpt>
      <trkpt lat="45.72295" lon="5.84425">
        <ele>655.2</ele>
        <time>2021-08-22T13:40:10Z</time>
      </trkpt>
      <trkpt lat="45.72288" lon="5.84429">
        <ele>654.3</ele>
        <time>2021-08-22T13:40:11Z</time>
      </trkpt>
      <trkpt lat="45.72277" lon="5.84444">
        <ele>652.7</ele>
        <time>2021-08-22T13:40:13Z</time>
      </trkpt>
      <trkpt lat="45.7227" lon="5.84462">
        <ele>651</ele>
        <time>2021-08-22T13:40:15Z</time>
      </trkpt>
      <trkpt lat="45.72266" lon="5.84472">
        <ele>650.2</ele>
        <time>2021-08-22T13:40:16Z</time>
      </trkpt>
      <trkpt lat="45.72262" lon="5.8448">
        <ele>649.4</ele>
        <time>2021-08-22T13:40:17Z</time>
      </trkpt>
      <trkpt lat="45.72253" lon="5.84496">
        <ele>647.8</ele>
        <time>2021-08-22T13:40:19Z</time>
      </trkpt>
      <trkpt lat="45.72248" lon="5.84506">
        <ele>647.1</ele>
        <time>2021-08-22T13:40:20Z</time>
      </trkpt>
      <trkpt lat="45.72243" lon="5.84515">
        <ele>646.3</ele>
        <time>2021-08-22T13:40:21Z</time>
      </trkpt>
      <trkpt lat="45.72232" lon="5.84533">
        <ele>645</ele>
        <time>2021-08-22T13:40:23Z</time>
      </trkpt>
      <trkpt lat="45.72226" lon="5.84541">
        <ele>644.5</ele>
        <time>2021-08-22T13:40:24Z</time>
      </trkpt>
      <trkpt lat="45.72215" lon="5.84555">
        <ele>643.8</ele>
        <time>2021-08-22T13:40:26Z</time>
      </trkpt>
      <trkpt lat="45.72211" lon="5.8456">
        <ele>643.5</ele>
        <time>2021-08-22T13:40:27Z</time>
      </trkpt>
      <trkpt lat="45.72208" lon="5.84564">
        <ele>643.4</ele>
        <time>2021-08-22T13:40:28Z</time>
      </trkpt>
      <trkpt lat="45.72204" lon="5.84569">
        <ele>643.3</ele>
        <time>2021-08-22T13:40:29Z</time>
      </trkpt>
      <trkpt lat="45.72195" lon="5.8458">
        <ele>643</ele>
        <time>2021-08-22T13:40:31Z</time>
      </trkpt>
      <trkpt lat="45.7219" lon="5.84587">
        <ele>642.9</ele>
        <time>2021-08-22T13:40:32Z</time>
      </trkpt>
      <trkpt lat="45.72179" lon="5.84599">
        <ele>642.7</ele>
        <time>2021-08-22T13:40:34Z</time>
      </trkpt>
      <trkpt lat="45.72169" lon="5.84606">
        <ele>642.5</ele>
        <time>2021-08-22T13:40:35Z</time>
      </trkpt>
      <trkpt lat="45.72161" lon="5.84611">
        <ele>642.1</ele>
        <time>2021-08-22T13:40:36Z</time>
      </trkpt>
      <trkpt lat="45.72152" lon="5.84617">
        <ele>641.7</ele>
        <time>2021-08-22T13:40:38Z</time>
      </trkpt>
      <trkpt lat="45.72139" lon="5.84626">
        <ele>641.1</ele>
        <time>2021-08-22T13:40:40Z</time>
      </trkpt>
      <trkpt lat="45.72127" lon="5.84628">
        <ele>640.9</ele>
        <time>2021-08-22T13:40:42Z</time>
      </trkpt>
      <trkpt lat="45.72122" lon="5.84628">
        <ele>640.9</ele>
        <time>2021-08-22T13:40:43Z</time>
      </trkpt>
      <trkpt lat="45.72118" lon="5.84624">
        <ele>641</ele>
        <time>2021-08-22T13:40:44Z</time>
      </trkpt>
      <trkpt lat="45.72113" lon="5.84621">
        <ele>641.2</ele>
        <time>2021-08-22T13:40:45Z</time>
      </trkpt>
      <trkpt lat="45.72111" lon="5.84619">
        <ele>641.2</ele>
        <time>2021-08-22T13:40:46Z</time>
      </trkpt>
      <trkpt lat="45.72105" lon="5.84615">
        <ele>641.5</ele>
        <time>2021-08-22T13:40:48Z</time>
      </trkpt>
      <trkpt lat="45.721" lon="5.84611">
        <ele>641.8</ele>
        <time>2021-08-22T13:40:49Z</time>
      </trkpt>
      <trkpt lat="45.72095" lon="5.84609">
        <ele>641.9</ele>
        <time>2021-08-22T13:40:50Z</time>
      </trkpt>
      <trkpt lat="45.72086" lon="5.84605">
        <ele>642.3</ele>
        <time>2021-08-22T13:40:52Z</time>
      </trkpt>
      <trkpt lat="45.72077" lon="5.84607">
        <ele>642.6</ele>
        <time>2021-08-22T13:40:53Z</time>
      </trkpt>
      <trkpt lat="45.72074" lon="5.84608">
        <ele>642.7</ele>
        <time>2021-08-22T13:40:54Z</time>
      </trkpt>
      <trkpt lat="45.72068" lon="5.84611">
        <ele>642.9</ele>
        <time>2021-08-22T13:40:55Z</time>
      </trkpt>
      <trkpt lat="45.72061" lon="5.84614">
        <ele>643.1</ele>
        <time>2021-08-22T13:40:56Z</time>
      </trkpt>
      <trkpt lat="45.72058" lon="5.84616">
        <ele>643.2</ele>
        <time>2021-08-22T13:40:58Z</time>
      </trkpt>
      <trkpt lat="45.72056" lon="5.84618">
        <ele>643.3</ele>
        <time>2021-08-22T13:40:59Z</time>
      </trkpt>
      <trkpt lat="45.72054" lon="5.84621">
        <ele>643.4</ele>
        <time>2021-08-22T13:41:00Z</time>
      </trkpt>
      <trkpt lat="45.72052" lon="5.84624">
        <ele>643.5</ele>
        <time>2021-08-22T13:41:02Z</time>
      </trkpt>
      <trkpt lat="45.72051" lon="5.84625">
        <ele>643.5</ele>
        <time>2021-08-22T13:41:03Z</time>
      </trkpt>
      <trkpt lat="45.72043" lon="5.84632">
        <ele>643.8</ele>
        <time>2021-08-22T13:41:08Z</time>
      </trkpt>
      <trkpt lat="45.7204" lon="5.84634">
        <ele>643.8</ele>
        <time>2021-08-22T13:41:09Z</time>
      </trkpt>
      <trkpt lat="45.72039" lon="5.84636">
        <ele>643.9</ele>
        <time>2021-08-22T13:41:10Z</time>
      </trkpt>
      <trkpt lat="45.72035" lon="5.84641">
        <ele>643.8</ele>
        <time>2021-08-22T13:41:12Z</time>
      </trkpt>
      <trkpt lat="45.72028" lon="5.84648">
        <ele>643.6</ele>
        <time>2021-08-22T13:41:14Z</time>
      </trkpt>
      <trkpt lat="45.72025" lon="5.84652">
        <ele>643.4</ele>
        <time>2021-08-22T13:41:15Z</time>
      </trkpt>
      <trkpt lat="45.72022" lon="5.84654">
        <ele>643.2</ele>
        <time>2021-08-22T13:41:17Z</time>
      </trkpt>
      <trkpt lat="45.72021" lon="5.84654">
        <ele>643.2</ele>
        <time>2021-08-22T13:41:18Z</time>
      </trkpt>
      <trkpt lat="45.72013" lon="5.84663">
        <ele>642.6</ele>
        <time>2021-08-22T13:41:20Z</time>
      </trkpt>
      <trkpt lat="45.72008" lon="5.84668">
        <ele>642.2</ele>
        <time>2021-08-22T13:41:22Z</time>
      </trkpt>
      <trkpt lat="45.71999" lon="5.84676">
        <ele>641.5</ele>
        <time>2021-08-22T13:41:23Z</time>
      </trkpt>
      <trkpt lat="45.71982" lon="5.84695">
        <ele>639.8</ele>
        <time>2021-08-22T13:41:25Z</time>
      </trkpt>
      <trkpt lat="45.71978" lon="5.847">
        <ele>639.3</ele>
        <time>2021-08-22T13:41:26Z</time>
      </trkpt>
      <trkpt lat="45.71974" lon="5.84703">
        <ele>638.9</ele>
        <time>2021-08-22T13:41:27Z</time>
      </trkpt>
      <trkpt lat="45.7197" lon="5.84707">
        <ele>638.5</ele>
        <time>2021-08-22T13:41:28Z</time>
      </trkpt>
      <trkpt lat="45.71966" lon="5.84711">
        <ele>637.9</ele>
        <time>2021-08-22T13:41:29Z</time>
      </trkpt>
      <trkpt lat="45.71963" lon="5.84715">
        <ele>637.5</ele>
        <time>2021-08-22T13:41:30Z</time>
      </trkpt>
      <trkpt lat="45.71959" lon="5.84719">
        <ele>637.1</ele>
        <time>2021-08-22T13:41:32Z</time>
      </trkpt>
      <trkpt lat="45.71956" lon="5.84724">
        <ele>636.5</ele>
        <time>2021-08-22T13:41:33Z</time>
      </trkpt>
      <trkpt lat="45.71954" lon="5.84726">
        <ele>636.3</ele>
        <time>2021-08-22T13:41:34Z</time>
      </trkpt>
      <trkpt lat="45.71952" lon="5.8473">
        <ele>635.9</ele>
        <time>2021-08-22T13:41:36Z</time>
      </trkpt>
      <trkpt lat="45.71944" lon="5.84744">
        <ele>634.3</ele>
        <time>2021-08-22T13:41:37Z</time>
      </trkpt>
      <trkpt lat="45.71659" lon="5.84835">
        <ele>636.9</ele>
        <time>2021-08-22T13:46:23Z</time>
      </trkpt>
      <trkpt lat="45.71656" lon="5.84836">
        <ele>637.4</ele>
        <time>2021-08-22T13:46:24Z</time>
      </trkpt>
      <trkpt lat="45.71651" lon="5.84836">
        <ele>638.2</ele>
        <time>2021-08-22T13:46:26Z</time>
      </trkpt>
      <trkpt lat="45.71647" lon="5.84837">
        <ele>639</ele>
        <time>2021-08-22T13:46:27Z</time>
      </trkpt>
      <trkpt lat="45.7164" lon="5.84837">
        <ele>640.4</ele>
        <time>2021-08-22T13:46:29Z</time>
      </trkpt>
      <trkpt lat="45.71638" lon="5.84837">
        <ele>640.8</ele>
        <time>2021-08-22T13:46:30Z</time>
      </trkpt>
      <trkpt lat="45.71635" lon="5.84837">
        <ele>641.5</ele>
        <time>2021-08-22T13:46:32Z</time>
      </trkpt>
      <trkpt lat="45.71634" lon="5.84837">
        <ele>641.8</ele>
        <time>2021-08-22T13:46:33Z</time>
      </trkpt>
      <trkpt lat="45.71633" lon="5.84837">
        <ele>641.9</ele>
        <time>2021-08-22T13:46:35Z</time>
      </trkpt>
      <trkpt lat="45.71634" lon="5.84837">
        <ele>641.9</ele>
        <time>2021-08-22T13:46:36Z</time>
      </trkpt>
      <trkpt lat="45.71633" lon="5.84837">
        <ele>641.9</ele>
        <time>2021-08-22T13:46:37Z</time>
      </trkpt>
      <trkpt lat="45.71633" lon="5.84837">
        <ele>642</ele>
        <time>2021-08-22T13:46:39Z</time>
      </trkpt>
      <trkpt lat="45.71633" lon="5.84837">
        <ele>642</ele>
        <time>2021-08-22T13:46:40Z</time>
      </trkpt>
      <trkpt lat="45.71633" lon="5.84837">
        <ele>642</ele>
        <time>2021-08-22T13:46:42Z</time>
      </trkpt>
      <trkpt lat="45.71633" lon="5.84837">
        <ele>642</ele>
        <time>2021-08-22T13:46:43Z</time>
      </trkpt>
      <trkpt lat="45.71633" lon="5.84837">
        <ele>642</ele>
        <time>2021-08-22T13:46:45Z</time>
      </trkpt>
      <trkpt lat="45.71633" lon="5.84837">
        <ele>642</ele>
        <time>2021-08-22T13:46:46Z</time>
      </trkpt>
      <trkpt lat="45.7145" lon="5.84905">
        <ele>669.8</ele>
        <time>2021-08-22T13:52:19Z</time>
      </trkpt>
      <trkpt lat="45.71446" lon="5.84907">
        <ele>670.4</ele>
        <time>2021-08-22T13:52:21Z</time>
      </trkpt>
      <trkpt lat="45.71446" lon="5.84907">
        <ele>670.5</ele>
        <time>2021-08-22T13:52:22Z</time>
      </trkpt>
      <trkpt lat="45.71443" lon="5.84908">
        <ele>671</ele>
        <time>2021-08-22T13:52:24Z</time>
      </trkpt>
      <trkpt lat="45.71442" lon="5.84909">
        <ele>671.2</ele>
        <time>2021-08-22T13:52:25Z</time>
      </trkpt>
      <trkpt lat="45.7144" lon="5.84909">
        <ele>671.5</ele>
        <time>2021-08-22T13:52:26Z</time>
      </trkpt>
      <trkpt lat="45.71437" lon="5.84911">
        <ele>672.1</ele>
        <time>2021-08-22T13:52:28Z</time>
      </trkpt>
      <trkpt lat="45.71435" lon="5.84913">
        <ele>672.5</ele>
        <time>2021-08-22T13:52:29Z</time>
      </trkpt>
      <trkpt lat="45.71434" lon="5.84913">
        <ele>672.7</ele>
        <time>2021-08-22T13:52:30Z</time>
      </trkpt>
      <trkpt lat="45.71431" lon="5.84914">
        <ele>673.3</ele>
        <time>2021-08-22T13:52:31Z</time>
      </trkpt>
      <trkpt lat="45.71428" lon="5.84915">
        <ele>673.8</ele>
        <time>2021-08-22T13:52:33Z</time>
      </trkpt>
      <trkpt lat="45.71425" lon="5.84915">
        <ele>674.2</ele>
        <time>2021-08-22T13:52:34Z</time>
      </trkpt>
      <trkpt lat="45.71423" lon="5.84917">
        <ele>674.6</ele>
        <time>2021-08-22T13:52:36Z</time>
      </trkpt>
      <trkpt lat="45.71423" lon="5.84917">
        <ele>674.7</ele>
        <time>2021-08-22T13:52:37Z</time>
      </trkpt>
      <trkpt lat="45.71425" lon="5.84919">
        <ele>674.9</ele>
        <time>2021-08-22T13:52:38Z</time>
      </trkpt>
      <trkpt lat="45.71425" lon="5.8492">
        <ele>675.1</ele>
        <time>2021-08-22T13:52:40Z</time>
      </trkpt>
      <trkpt lat="45.71425" lon="5.8492">
        <ele>675.1</ele>
        <time>2021-08-22T13:52:42Z</time>
      </trkpt>
      <trkpt lat="45.71425" lon="5.8492">
        <ele>675.1</ele>
        <time>2021-08-22T13:52:43Z</time>
      </trkpt>
      <trkpt lat="45.71425" lon="5.8492">
        <ele>675.1</ele>
        <time>2021-08-22T13:52:45Z</time>
      </trkpt>
      <trkpt lat="45.71425" lon="5.8492">
        <ele>675.1</ele>
        <time>2021-08-22T13:52:46Z</time>
      </trkpt>
      <trkpt lat="45.71425" lon="5.8492">
        <ele>675.2</ele>
        <time>2021-08-22T13:52:48Z</time>
      </trkpt>
      <trkpt lat="45.71425" lon="5.8492">
        <ele>675.2</ele>
        <time>2021-08-22T13:52:49Z</time>
      </trkpt>
      <trkpt lat="45.71425" lon="5.8492">
        <ele>675.2</ele>
        <time>2021-08-22T13:52:50Z</time>
      </trkpt>
      <trkpt lat="45.71425" lon="5.84921">
        <ele>675.2</ele>
        <time>2021-08-22T13:52:52Z</time>
      </trkpt>
      <trkpt lat="45.71308" lon="5.85019">
        <ele>693.4</ele>
        <time>2021-08-22T13:56:02Z</time>
      </trkpt>
      <trkpt lat="45.71305" lon="5.85021">
        <ele>694.1</ele>
        <time>2021-08-22T13:56:04Z</time>
      </trkpt>
      <trkpt lat="45.71303" lon="5.85022">
        <ele>694.3</ele>
        <time>2021-08-22T13:56:05Z</time>
      </trkpt>
      <trkpt lat="45.71297" lon="5.85026">
        <ele>695.3</ele>
        <time>2021-08-22T13:56:07Z</time>
      </trkpt>
      <trkpt lat="45.71295" lon="5.85027">
        <ele>695.6</ele>
        <time>2021-08-22T13:56:08Z</time>
      </trkpt>
      <trkpt lat="45.71294" lon="5.85028">
        <ele>695.8</ele>
        <time>2021-08-22T13:56:09Z</time>
      </trkpt>
      <trkpt lat="45.71292" lon="5.8503">
        <ele>696</ele>
        <time>2021-08-22T13:56:11Z</time>
      </trkpt>
      <trkpt lat="45.71292" lon="5.85033">
        <ele>696.3</ele>
        <time>2021-08-22T13:56:13Z</time>
      </trkpt>
      <trkpt lat="45.71293" lon="5.85035">
        <ele>696.5</ele>
        <time>2021-08-22T13:56:14Z</time>
      </trkpt>
      <trkpt lat="45.71294" lon="5.85036">
        <ele>696.6</ele>
        <time>2021-08-22T13:56:15Z</time>
      </trkpt>
      <trkpt lat="45.71294" lon="5.85037">
        <ele>696.7</ele>
        <time>2021-08-22T13:56:17Z</time>
      </trkpt>
      <trkpt lat="45.71295" lon="5.85038">
        <ele>696.7</ele>
        <time>2021-08-22T13:56:18Z</time>
      </trkpt>
      <trkpt lat="45.71295" lon="5.85038">
        <ele>696.8</ele>
        <time>2021-08-22T13:56:19Z</time>
      </trkpt>
      <trkpt lat="45.71296" lon="5.85038">
        <ele>696.8</ele>
        <time>2021-08-22T13:56:21Z</time>
      </trkpt>
      <trkpt lat="45.71296" lon="5.85039">
        <ele>696.9</ele>
        <time>2021-08-22T13:56:22Z</time>
      </trkpt>
      <trkpt lat="45.71296" lon="5.85039">
        <ele>696.9</ele>
        <time>2021-08-22T13:56:23Z</time>
      </trkpt>
      <trkpt lat="45.7128" lon="5.8503">
        <ele>698.7</ele>
        <time>2021-08-22T13:56:49Z</time>
      </trkpt>
      <trkpt lat="45.71277" lon="5.85029">
        <ele>699.2</ele>
        <time>2021-08-22T13:56:51Z</time>
      </trkpt>
      <trkpt lat="45.71273" lon="5.85028">
        <ele>699.7</ele>
        <time>2021-08-22T13:56:52Z</time>
      </trkpt>
      <trkpt lat="45.71272" lon="5.85028">
        <ele>699.8</ele>
        <time>2021-08-22T13:56:53Z</time>
      </trkpt>
      <trkpt lat="45.71271" lon="5.85028">
        <ele>700</ele>
        <time>2021-08-22T13:56:54Z</time>
      </trkpt>
      <trkpt lat="45.71269" lon="5.85028">
        <ele>700.3</ele>
        <time>2021-08-22T13:56:55Z</time>
      </trkpt>
      <trkpt lat="45.71268" lon="5.85028">
        <ele>700.4</ele>
        <time>2021-08-22T13:56:57Z</time>
      </trkpt>
      <trkpt lat="45.71268" lon="5.85029">
        <ele>700.6</ele>
        <time>2021-08-22T13:56:58Z</time>
      </trkpt>
      <trkpt lat="45.71267" lon="5.85029">
        <ele>700.7</ele>
        <time>2021-08-22T13:56:59Z</time>
      </trkpt>
      <trkpt lat="45.71266" lon="5.85029">
        <ele>700.8</ele>
        <time>2021-08-22T13:57:01Z</time>
      </trkpt>
      <trkpt lat="45.71266" lon="5.8503">
        <ele>700.9</ele>
        <time>2021-08-22T13:57:03Z</time>
      </trkpt>
      <trkpt lat="45.71266" lon="5.8503">
        <ele>700.9</ele>
        <time>2021-08-22T13:57:04Z</time>
      </trkpt>
      <trkpt lat="45.71265" lon="5.8503">
        <ele>700.9</ele>
        <time>2021-08-22T13:57:06Z</time>
      </trkpt>
      <trkpt lat="45.71265" lon="5.8503">
        <ele>701</ele>
        <time>2021-08-22T13:57:07Z</time>
      </trkpt>
      <trkpt lat="45.71276" lon="5.8502">
        <ele>703</ele>
        <time>2021-08-22T13:58:03Z</time>
      </trkpt>
      <trkpt lat="45.71274" lon="5.85025">
        <ele>703.6</ele>
        <time>2021-08-22T13:58:04Z</time>
      </trkpt>
      <trkpt lat="45.7127" lon="5.85032">
        <ele>704.7</ele>
        <time>2021-08-22T13:58:06Z</time>
      </trkpt>
      <trkpt lat="45.71269" lon="5.85033">
        <ele>704.9</ele>
        <time>2021-08-22T13:58:07Z</time>
      </trkpt>
      <trkpt lat="45.71265" lon="5.85036">
        <ele>705.7</ele>
        <time>2021-08-22T13:58:09Z</time>
      </trkpt>
      <trkpt lat="45.71264" lon="5.85036">
        <ele>705.8</ele>
        <time>2021-08-22T13:58:10Z</time>
      </trkpt>
      <trkpt lat="45.71263" lon="5.85037">
        <ele>705.9</ele>
        <time>2021-08-22T13:58:12Z</time>
      </trkpt>
      <trkpt lat="45.71263" lon="5.85036">
        <ele>704.3</ele>
        <time>2021-08-22T13:58:14Z</time>
      </trkpt>
      <trkpt lat="45.71263" lon="5.85036">
        <ele>702.7</ele>
        <time>2021-08-22T13:58:15Z</time>
      </trkpt>
      <trkpt lat="45.71263" lon="5.85035">
        <ele>702.3</ele>
        <time>2021-08-22T13:58:16Z</time>
      </trkpt>
      <trkpt lat="45.71263" lon="5.85034">
        <ele>700.7</ele>
        <time>2021-08-22T13:58:18Z</time>
      </trkpt>
      <trkpt lat="45.71263" lon="5.85034">
        <ele>699.1</ele>
        <time>2021-08-22T13:58:20Z</time>
      </trkpt>
      <trkpt lat="45.71263" lon="5.85034">
        <ele>697.4</ele>
        <time>2021-08-22T13:58:21Z</time>
      </trkpt>
      <trkpt lat="45.71263" lon="5.85034">
        <ele>695.8</ele>
        <time>2021-08-22T13:58:23Z</time>
      </trkpt>
      <trkpt lat="45.71268" lon="5.85004">
        <ele>702.3</ele>
        <time>2021-08-22T14:09:48Z</time>
      </trkpt>
      <trkpt lat="45.71267" lon="5.84997">
        <ele>701.7</ele>
        <time>2021-08-22T14:09:50Z</time>
      </trkpt>
      <trkpt lat="45.71265" lon="5.84995">
        <ele>701.2</ele>
        <time>2021-08-22T14:09:52Z</time>
      </trkpt>
      <trkpt lat="45.71263" lon="5.84995">
        <ele>699.6</ele>
        <time>2021-08-22T14:09:53Z</time>
      </trkpt>
      <trkpt lat="45.71262" lon="5.84995">
        <ele>698.2</ele>
        <time>2021-08-22T14:09:54Z</time>
      </trkpt>
      <trkpt lat="45.7126" lon="5.84995">
        <ele>696.6</ele>
        <time>2021-08-22T14:09:55Z</time>
      </trkpt>
      <trkpt lat="45.71259" lon="5.84995">
        <ele>695.3</ele>
        <time>2021-08-22T14:09:57Z</time>
      </trkpt>
      <trkpt lat="45.71259" lon="5.84994">
        <ele>693.6</ele>
        <time>2021-08-22T14:09:58Z</time>
      </trkpt>
      <trkpt lat="45.71258" lon="5.84992">
        <ele>692</ele>
        <time>2021-08-22T14:09:59Z</time>
      </trkpt>
      <trkpt lat="45.71258" lon="5.84991">
        <ele>691.3</ele>
        <time>2021-08-22T14:10:00Z</time>
      </trkpt>
      <trkpt lat="45.71258" lon="5.8499">
        <ele>689.7</ele>
        <time>2021-08-22T14:10:01Z</time>
      </trkpt>
      <trkpt lat="45.71257" lon="5.84988">
        <ele>688.1</ele>
        <time>2021-08-22T14:10:03Z</time>
      </trkpt>
      <trkpt lat="45.71257" lon="5.84987">
        <ele>687.3</ele>
        <time>2021-08-22T14:10:05Z</time>
      </trkpt>
      <trkpt lat="45.71178" lon="5.84901">
        <ele>722</ele>
        <time>2021-08-22T14:12:25Z</time>
      </trkpt>
      <trkpt lat="45.7117" lon="5.84904">
        <ele>721.6</ele>
        <time>2021-08-22T14:12:26Z</time>
      </trkpt>
      <trkpt lat="45.71164" lon="5.84906">
        <ele>721.3</ele>
        <time>2021-08-22T14:12:27Z</time>
      </trkpt>
      <trkpt lat="45.71155" lon="5.8491">
        <ele>720.8</ele>
        <time>2021-08-22T14:12:28Z</time>
      </trkpt>
      <trkpt lat="45.71146" lon="5.84915">
        <ele>720.2</ele>
        <time>2021-08-22T14:12:30Z</time>
      </trkpt>
      <trkpt lat="45.71139" lon="5.84919">
        <ele>719.6</ele>
        <time>2021-08-22T14:12:31Z</time>
      </trkpt>
      <trkpt lat="45.71134" lon="5.84924">
        <ele>719.1</ele>
        <time>2021-08-22T14:12:32Z</time>
      </trkpt>
      <trkpt lat="45.71127" lon="5.84928">
        <ele>718.4</ele>
        <time>2021-08-22T14:12:34Z</time>
      </trkpt>
      <trkpt lat="45.71123" lon="5.8493">
        <ele>717.8</ele>
        <time>2021-08-22T14:12:35Z</time>
      </trkpt>
      <trkpt lat="45.71117" lon="5.84933">
        <ele>716.9</ele>
        <time>2021-08-22T14:12:36Z</time>
      </trkpt>
      <trkpt lat="45.71111" lon="5.84937">
        <ele>715.8</ele>
        <time>2021-08-22T14:12:37Z</time>
      </trkpt>
      <trkpt lat="45.71106" lon="5.84941">
        <ele>714.7</ele>
        <time>2021-08-22T14:12:38Z</time>
      </trkpt>
      <trkpt lat="45.711" lon="5.84944">
        <ele>713.6</ele>
        <time>2021-08-22T14:12:39Z</time>
      </trkpt>
      <trkpt lat="45.71093" lon="5.8495">
        <ele>712.3</ele>
        <time>2021-08-22T14:12:41Z</time>
      </trkpt>
      <trkpt lat="45.71086" lon="5.84954">
        <ele>711.1</ele>
        <time>2021-08-22T14:12:42Z</time>
      </trkpt>
      <trkpt lat="45.71081" lon="5.84956">
        <ele>710.4</ele>
        <time>2021-08-22T14:12:44Z</time>
      </trkpt>
      <trkpt lat="45.71077" lon="5.84958">
        <ele>709.9</ele>
        <time>2021-08-22T14:12:45Z</time>
      </trkpt>
      <trkpt lat="45.71075" lon="5.84959">
        <ele>709.6</ele>
        <time>2021-08-22T14:12:46Z</time>
      </trkpt>
      <trkpt lat="45.71074" lon="5.84959">
        <ele>709.4</ele>
        <time>2021-08-22T14:12:48Z</time>
      </trkpt>
      <trkpt lat="45.71072" lon="5.8496">
        <ele>709.3</ele>
        <time>2021-08-22T14:12:49Z</time>
      </trkpt>
      <trkpt lat="45.7107" lon="5.84961">
        <ele>709</ele>
        <time>2021-08-22T14:12:50Z</time>
      </trkpt>
      <trkpt lat="45.71067" lon="5.84964">
        <ele>708.5</ele>
        <time>2021-08-22T14:12:52Z</time>
      </trkpt>
      <trkpt lat="45.71031" lon="5.8499">
        <ele>703.3</ele>
        <time>2021-08-22T14:13:02Z</time>
      </trkpt>
      <trkpt lat="45.71024" lon="5.84994">
        <ele>702.4</ele>
        <time>2021-08-22T14:13:04Z</time>
      </trkpt>
      <trkpt lat="45.71021" lon="5.84996">
        <ele>702</ele>
        <time>2021-08-22T14:13:05Z</time>
      </trkpt>
      <trkpt lat="45.71016" lon="5.84998">
        <ele>701.4</ele>
        <time>2021-08-22T14:13:06Z</time>
      </trkpt>
      <trkpt lat="45.71013" lon="5.84999">
        <ele>700.9</ele>
        <time>2021-08-22T14:13:07Z</time>
      </trkpt>
      <trkpt lat="45.71012" lon="5.84999">
        <ele>700.7</ele>
        <time>2021-08-22T14:13:08Z</time>
      </trkpt>
      <trkpt lat="45.71007" lon="5.85">
        <ele>700.1</ele>
        <time>2021-08-22T14:13:10Z</time>
      </trkpt>
      <trkpt lat="45.71004" lon="5.85001">
        <ele>699.7</ele>
        <time>2021-08-22T14:13:11Z</time>
      </trkpt>
      <trkpt lat="45.71" lon="5.85002">
        <ele>699.1</ele>
        <time>2021-08-22T14:13:12Z</time>
      </trkpt>
      <trkpt lat="45.70994" lon="5.85002">
        <ele>698.3</ele>
        <time>2021-08-22T14:13:14Z</time>
      </trkpt>
      <trkpt lat="45.70991" lon="5.85003">
        <ele>697.8</ele>
        <time>2021-08-22T14:13:15Z</time>
      </trkpt>
      <trkpt lat="45.70986" lon="5.85005">
        <ele>697.1</ele>
        <time>2021-08-22T14:13:17Z</time>
      </trkpt>
      <trkpt lat="45.70982" lon="5.85005">
        <ele>696.5</ele>
        <time>2021-08-22T14:13:18Z</time>
      </trkpt>
      <trkpt lat="45.70975" lon="5.85006">
        <ele>695.4</ele>
        <time>2021-08-22T14:13:20Z</time>
      </trkpt>
      <trkpt lat="45.70972" lon="5.85007">
        <ele>695</ele>
        <time>2021-08-22T14:13:21Z</time>
      </trkpt>
      <trkpt lat="45.70968" lon="5.8501">
        <ele>694.3</ele>
        <time>2021-08-22T14:13:22Z</time>
      </trkpt>
      <trkpt lat="45.70965" lon="5.85011">
        <ele>693.9</ele>
        <time>2021-08-22T14:13:23Z</time>
      </trkpt>
      <trkpt lat="45.7096" lon="5.85012">
        <ele>693.3</ele>
        <time>2021-08-22T14:13:25Z</time>
      </trkpt>
      <trkpt lat="45.70957" lon="5.85013">
        <ele>692.8</ele>
        <time>2021-08-22T14:13:26Z</time>
      </trkpt>
      <trkpt lat="45.70955" lon="5.85013">
        <ele>692.6</ele>
        <time>2021-08-22T14:13:28Z</time>
      </trkpt>
      <trkpt lat="45.70954" lon="5.85014">
        <ele>692.4</ele>
        <time>2021-08-22T14:13:29Z</time>
      </trkpt>
      <trkpt lat="45.70938" lon="5.85025">
        <ele>690.2</ele>
        <time>2021-08-22T14:13:31Z</time>
      </trkpt>
      <trkpt lat="45.70832" lon="5.85069">
        <ele>684.6</ele>
        <time>2021-08-22T14:13:46Z</time>
      </trkpt>
      <trkpt lat="45.7082" lon="5.85074">
        <ele>684</ele>
        <time>2021-08-22T14:13:47Z</time>
      </trkpt>
      <trkpt lat="45.7081" lon="5.8508">
        <ele>683</ele>
        <time>2021-08-22T14:13:48Z</time>
      </trkpt>
      <trkpt lat="45.70798" lon="5.85087">
        <ele>681.3</ele>
        <time>2021-08-22T14:13:50Z</time>
      </trkpt>
      <trkpt lat="45.70789" lon="5.85091">
        <ele>680.2</ele>
        <time>2021-08-22T14:13:51Z</time>
      </trkpt>
      <trkpt lat="45.70781" lon="5.85096">
        <ele>679.4</ele>
        <time>2021-08-22T14:13:52Z</time>
      </trkpt>
      <trkpt lat="45.70767" lon="5.85106">
        <ele>677.9</ele>
        <time>2021-08-22T14:13:54Z</time>
      </trkpt>
      <trkpt lat="45.70749" lon="5.85112">
        <ele>676</ele>
        <time>2021-08-22T14:13:56Z</time>
      </trkpt>
      <trkpt lat="45.70735" lon="5.85118">
        <ele>673.9</ele>
        <time>2021-08-22T14:13:58Z</time>
      </trkpt>
      <trkpt lat="45.7073" lon="5.8512">
        <ele>673.1</ele>
        <time>2021-08-22T14:13:59Z</time>
      </trkpt>
      <trkpt lat="45.70725" lon="5.85122">
        <ele>672.5</ele>
        <time>2021-08-22T14:14:00Z</time>
      </trkpt>
      <trkpt lat="45.70716" lon="5.85124">
        <ele>671.4</ele>
        <time>2021-08-22T14:14:02Z</time>
      </trkpt>
      <trkpt lat="45.70706" lon="5.85127">
        <ele>670.4</ele>
        <time>2021-08-22T14:14:04Z</time>
      </trkpt>
      <trkpt lat="45.70702" lon="5.8513">
        <ele>670.1</ele>
        <time>2021-08-22T14:14:05Z</time>
      </trkpt>
      <trkpt lat="45.70697" lon="5.85133">
        <ele>669.6</ele>
        <time>2021-08-22T14:14:06Z</time>
      </trkpt>
      <trkpt lat="45.70691" lon="5.85136">
        <ele>669.1</ele>
        <time>2021-08-22T14:14:07Z</time>
      </trkpt>
      <trkpt lat="45.70686" lon="5.85139">
        <ele>668.6</ele>
        <time>2021-08-22T14:14:08Z</time>
      </trkpt>
      <trkpt lat="45.7068" lon="5.85143">
        <ele>667.9</ele>
        <time>2021-08-22T14:14:10Z</time>
      </trkpt>
      <trkpt lat="45.70676" lon="5.85144">
        <ele>667.5</ele>
        <time>2021-08-22T14:14:11Z</time>
      </trkpt>
      <trkpt lat="45.70673" lon="5.85145">
        <ele>667.2</ele>
        <time>2021-08-22T14:14:12Z</time>
      </trkpt>
      <trkpt lat="45.7067" lon="5.85145">
        <ele>666.9</ele>
        <time>2021-08-22T14:14:14Z</time>
      </trkpt>
      <trkpt lat="45.7067" lon="5.85145">
        <ele>666.9</ele>
        <time>2021-08-22T14:14:15Z</time>
      </trkpt>
      <trkpt lat="45.70665" lon="5.85144">
        <ele>666.3</ele>
        <time>2021-08-22T14:14:17Z</time>
      </trkpt>
      <trkpt lat="45.70661" lon="5.85145">
        <ele>665.8</ele>
        <time>2021-08-22T14:14:19Z</time>
      </trkpt>
      <trkpt lat="45.70658" lon="5.85146">
        <ele>665.3</ele>
        <time>2021-08-22T14:14:20Z</time>
      </trkpt>
      <trkpt lat="45.70654" lon="5.85147">
        <ele>664.6</ele>
        <time>2021-08-22T14:14:22Z</time>
      </trkpt>
      <trkpt lat="45.7065" lon="5.85148">
        <ele>664</ele>
        <time>2021-08-22T14:14:23Z</time>
      </trkpt>
      <trkpt lat="45.70648" lon="5.85149">
        <ele>663.6</ele>
        <time>2021-08-22T14:14:24Z</time>
      </trkpt>
      <trkpt lat="45.70645" lon="5.85149">
        <ele>663.1</ele>
        <time>2021-08-22T14:14:26Z</time>
      </trkpt>
      <trkpt lat="45.70641" lon="5.85149">
        <ele>662.4</ele>
        <time>2021-08-22T14:14:27Z</time>
      </trkpt>
      <trkpt lat="45.70637" lon="5.85152">
        <ele>661.6</ele>
        <time>2021-08-22T14:14:28Z</time>
      </trkpt>
      <trkpt lat="45.70634" lon="5.85154">
        <ele>661.1</ele>
        <time>2021-08-22T14:14:30Z</time>
      </trkpt>
      <trkpt lat="45.70631" lon="5.85158">
        <ele>660.7</ele>
        <time>2021-08-22T14:14:31Z</time>
      </trkpt>
      <trkpt lat="45.70629" lon="5.8516">
        <ele>660.5</ele>
        <time>2021-08-22T14:14:32Z</time>
      </trkpt>
      <trkpt lat="45.70624" lon="5.85162">
        <ele>660.3</ele>
        <time>2021-08-22T14:14:34Z</time>
      </trkpt>
      <trkpt lat="45.7062" lon="5.85162">
        <ele>660.2</ele>
        <time>2021-08-22T14:14:36Z</time>
      </trkpt>
      <trkpt lat="45.70617" lon="5.8516">
        <ele>660.2</ele>
        <time>2021-08-22T14:14:37Z</time>
      </trkpt>
      <trkpt lat="45.70616" lon="5.8516">
        <ele>660.3</ele>
        <time>2021-08-22T14:14:38Z</time>
      </trkpt>
      <trkpt lat="45.70614" lon="5.85161">
        <ele>660.3</ele>
        <time>2021-08-22T14:14:39Z</time>
      </trkpt>
      <trkpt lat="45.70614" lon="5.85159">
        <ele>660.4</ele>
        <time>2021-08-22T14:14:41Z</time>
      </trkpt>
      <trkpt lat="45.70613" lon="5.85159">
        <ele>660.4</ele>
        <time>2021-08-22T14:14:42Z</time>
      </trkpt>
      <trkpt lat="45.70612" lon="5.85159">
        <ele>660.5</ele>
        <time>2021-08-22T14:14:43Z</time>
      </trkpt>
      <trkpt lat="45.70611" lon="5.85159">
        <ele>660.6</ele>
        <time>2021-08-22T14:14:45Z</time>
      </trkpt>
      <trkpt lat="45.70609" lon="5.85159">
        <ele>660.7</ele>
        <time>2021-08-22T14:14:46Z</time>
      </trkpt>
      <trkpt lat="45.70608" lon="5.85159">
        <ele>660.7</ele>
        <time>2021-08-22T14:14:47Z</time>
      </trkpt>
      <trkpt lat="45.70607" lon="5.85159">
        <ele>660.9</ele>
        <time>2021-08-22T14:14:49Z</time>
      </trkpt>
      <trkpt lat="45.70439" lon="5.85209">
        <ele>682.1</ele>
        <time>2021-08-22T14:17:34Z</time>
      </trkpt>
      <trkpt lat="45.70435" lon="5.85207">
        <ele>682</ele>
        <time>2021-08-22T14:17:35Z</time>
      </trkpt>
      <trkpt lat="45.70427" lon="5.85204">
        <ele>681.8</ele>
        <time>2021-08-22T14:17:37Z</time>
      </trkpt>
      <trkpt lat="45.70421" lon="5.85201">
        <ele>681.6</ele>
        <time>2021-08-22T14:17:39Z</time>
      </trkpt>
      <trkpt lat="45.70419" lon="5.85199">
        <ele>681.4</ele>
        <time>2021-08-22T14:17:40Z</time>
      </trkpt>
      <trkpt lat="45.70416" lon="5.85197">
        <ele>681.4</ele>
        <time>2021-08-22T14:17:41Z</time>
      </trkpt>
      <trkpt lat="45.70413" lon="5.85193">
        <ele>681.3</ele>
        <time>2021-08-22T14:17:43Z</time>
      </trkpt>
      <trkpt lat="45.70409" lon="5.85187">
        <ele>681.2</ele>
        <time>2021-08-22T14:17:44Z</time>
      </trkpt>
      <trkpt lat="45.70406" lon="5.85183">
        <ele>681.2</ele>
        <time>2021-08-22T14:17:45Z</time>
      </trkpt>
      <trkpt lat="45.70401" lon="5.85179">
        <ele>681.2</ele>
        <time>2021-08-22T14:17:47Z</time>
      </trkpt>
      <trkpt lat="45.70399" lon="5.85176">
        <ele>681.3</ele>
        <time>2021-08-22T14:17:48Z</time>
      </trkpt>
      <trkpt lat="45.70398" lon="5.85175">
        <ele>681.3</ele>
        <time>2021-08-22T14:17:49Z</time>
      </trkpt>
      <trkpt lat="45.70396" lon="5.85171">
        <ele>681.4</ele>
        <time>2021-08-22T14:17:51Z</time>
      </trkpt>
      <trkpt lat="45.70395" lon="5.85169">
        <ele>681.5</ele>
        <time>2021-08-22T14:17:52Z</time>
      </trkpt>
      <trkpt lat="45.70394" lon="5.85168">
        <ele>681.5</ele>
        <time>2021-08-22T14:17:54Z</time>
      </trkpt>
      <trkpt lat="45.70392" lon="5.85165">
        <ele>681.6</ele>
        <time>2021-08-22T14:17:55Z</time>
      </trkpt>
      <trkpt lat="45.7039" lon="5.85164">
        <ele>681.7</ele>
        <time>2021-08-22T14:17:57Z</time>
      </trkpt>
      <trkpt lat="45.70387" lon="5.85162">
        <ele>681.8</ele>
        <time>2021-08-22T14:17:58Z</time>
      </trkpt>
      <trkpt lat="45.70386" lon="5.85162">
        <ele>681.8</ele>
        <time>2021-08-22T14:17:59Z</time>
      </trkpt>
      <trkpt lat="45.70384" lon="5.85161">
        <ele>681.9</ele>
        <time>2021-08-22T14:18:00Z</time>
      </trkpt>
      <trkpt lat="45.70383" lon="5.85161">
        <ele>682</ele>
        <time>2021-08-22T14:18:01Z</time>
      </trkpt>
      <trkpt lat="45.7025" lon="5.85136">
        <ele>688.3</ele>
        <time>2021-08-22T14:18:59Z</time>
      </trkpt>
      <trkpt lat="45.70248" lon="5.85136">
        <ele>688.4</ele>
        <time>2021-08-22T14:19:00Z</time>
      </trkpt>
      <trkpt lat="45.70245" lon="5.85136">
        <ele>688.5</ele>
        <time>2021-08-22T14:19:02Z</time>
      </trkpt>
      <trkpt lat="45.70243" lon="5.85135">
        <ele>688.6</ele>
        <time>2021-08-22T14:19:03Z</time>
      </trkpt>
      <trkpt lat="45.70242" lon="5.85134">
        <ele>688.6</ele>
        <time>2021-08-22T14:19:05Z</time>
      </trkpt>
      <trkpt lat="45.70241" lon="5.85133">
        <ele>688.7</ele>
        <time>2021-08-22T14:19:06Z</time>
      </trkpt>
      <trkpt lat="45.7024" lon="5.85131">
        <ele>688.7</ele>
        <time>2021-08-22T14:19:07Z</time>
      </trkpt>
      <trkpt lat="45.70238" lon="5.85128">
        <ele>688.8</ele>
        <time>2021-08-22T14:19:08Z</time>
      </trkpt>
      <trkpt lat="45.70235" lon="5.85124">
        <ele>688.8</ele>
        <time>2021-08-22T14:19:10Z</time>
      </trkpt>
      <trkpt lat="45.70232" lon="5.8512">
        <ele>688.8</ele>
        <time>2021-08-22T14:19:11Z</time>
      </trkpt>
      <trkpt lat="45.70229" lon="5.85117">
        <ele>688.8</ele>
        <time>2021-08-22T14:19:13Z</time>
      </trkpt>
      <trkpt lat="45.70227" lon="5.85116">
        <ele>688.8</ele>
        <time>2021-08-22T14:19:14Z</time>
      </trkpt>
      <trkpt lat="45.70225" lon="5.85113">
        <ele>688.8</ele>
        <time>2021-08-22T14:19:16Z</time>
      </trkpt>
      <trkpt lat="45.70223" lon="5.85109">
        <ele>688.8</ele>
        <time>2021-08-22T14:19:17Z</time>
      </trkpt>
      <trkpt lat="45.70222" lon="5.85109">
        <ele>688.8</ele>
        <time>2021-08-22T14:19:18Z</time>
      </trkpt>
      <trkpt lat="45.70221" lon="5.85104">
        <ele>688.8</ele>
        <time>2021-08-22T14:19:20Z</time>
      </trkpt>
      <trkpt lat="45.7022" lon="5.85104">
        <ele>688.7</ele>
        <time>2021-08-22T14:19:21Z</time>
      </trkpt>
      <trkpt lat="45.70218" lon="5.85101">
        <ele>688.7</ele>
        <time>2021-08-22T14:19:22Z</time>
      </trkpt>
      <trkpt lat="45.70217" lon="5.851">
        <ele>688.7</ele>
        <time>2021-08-22T14:19:23Z</time>
      </trkpt>
      <trkpt lat="45.70214" lon="5.85098">
        <ele>688.7</ele>
        <time>2021-08-22T14:19:25Z</time>
      </trkpt>
      <trkpt lat="45.70213" lon="5.85097">
        <ele>688.7</ele>
        <time>2021-08-22T14:19:26Z</time>
      </trkpt>
      <trkpt lat="45.70208" lon="5.85096">
        <ele>688.7</ele>
        <time>2021-08-22T14:19:28Z</time>
      </trkpt>
      <trkpt lat="45.70204" lon="5.85094">
        <ele>688.7</ele>
        <time>2021-08-22T14:19:29Z</time>
      </trkpt>
      <trkpt lat="45.70202" lon="5.85095">
        <ele>688.7</ele>
        <time>2021-08-22T14:19:30Z</time>
      </trkpt>
      <trkpt lat="45.70201" lon="5.85095">
        <ele>688.6</ele>
        <time>2021-08-22T14:19:31Z</time>
      </trkpt>
      <trkpt lat="45.70184" lon="5.85103">
        <ele>688.7</ele>
        <time>2021-08-22T14:19:33Z</time>
      </trkpt>
      <trkpt lat="45.7017" lon="5.8511">
        <ele>689.2</ele>
        <time>2021-08-22T14:19:35Z</time>
      </trkpt>
      <trkpt lat="45.70166" lon="5.85111">
        <ele>689.4</ele>
        <time>2021-08-22T14:19:36Z</time>
      </trkpt>
      <trkpt lat="45.70163" lon="5.8511">
        <ele>689.5</ele>
        <time>2021-08-22T14:19:38Z</time>
      </trkpt>
      <trkpt lat="45.70163" lon="5.85111">
        <ele>689.5</ele>
        <time>2021-08-22T14:19:39Z</time>
      </trkpt>
      <trkpt lat="45.70151" lon="5.85111">
        <ele>689.9</ele>
        <time>2021-08-22T14:19:41Z</time>
      </trkpt>
      <trkpt lat="45.70141" lon="5.85111">
        <ele>690.3</ele>
        <time>2021-08-22T14:19:42Z</time>
      </trkpt>
      <trkpt lat="45.70137" lon="5.85112">
        <ele>690.5</ele>
        <time>2021-08-22T14:19:43Z</time>
      </trkpt>
      <trkpt lat="45.70131" lon="5.85113">
        <ele>690.8</ele>
        <time>2021-08-22T14:19:45Z</time>
      </trkpt>
      <trkpt lat="45.70127" lon="5.85114">
        <ele>691</ele>
        <time>2021-08-22T14:19:46Z</time>
      </trkpt>
      <trkpt lat="45.70125" lon="5.85114">
        <ele>691.1</ele>
        <time>2021-08-22T14:19:47Z</time>
      </trkpt>
      <trkpt lat="45.70124" lon="5.85114">
        <ele>691.2</ele>
        <time>2021-08-22T14:19:48Z</time>
      </trkpt>
      <trkpt lat="45.70117" lon="5.85118">
        <ele>691.6</ele>
        <time>2021-08-22T14:19:50Z</time>
      </trkpt>
      <trkpt lat="45.70107" lon="5.85124">
        <ele>691.9</ele>
        <time>2021-08-22T14:19:52Z</time>
      </trkpt>
      <trkpt lat="45.701" lon="5.85127">
        <ele>692.1</ele>
        <time>2021-08-22T14:19:53Z</time>
      </trkpt>
      <trkpt lat="45.70095" lon="5.8513">
        <ele>692.3</ele>
        <time>2021-08-22T14:19:54Z</time>
      </trkpt>
      <trkpt lat="45.70089" lon="5.85133">
        <ele>692.6</ele>
        <time>2021-08-22T14:19:56Z</time>
      </trkpt>
      <trkpt lat="45.70082" lon="5.85136">
        <ele>692.9</ele>
        <time>2021-08-22T14:19:57Z</time>
      </trkpt>
      <trkpt lat="45.70077" lon="5.85139">
        <ele>693.2</ele>
        <time>2021-08-22T14:19:59Z</time>
      </trkpt>
      <trkpt lat="45.70073" lon="5.8514">
        <ele>693.5</ele>
        <time>2021-08-22T14:20:00Z</time>
      </trkpt>
      <trkpt lat="45.70069" lon="5.85142">
        <ele>693.7</ele>
        <time>2021-08-22T14:20:02Z</time>
      </trkpt>
      <trkpt lat="45.70067" lon="5.85144">
        <ele>693.9</ele>
        <time>2021-08-22T14:20:03Z</time>
      </trkpt>
      <trkpt lat="45.70062" lon="5.85148">
        <ele>694.2</ele>
        <time>2021-08-22T14:20:04Z</time>
      </trkpt>
      <trkpt lat="45.70058" lon="5.85151">
        <ele>694.5</ele>
        <time>2021-08-22T14:20:06Z</time>
      </trkpt>
      <trkpt lat="45.70056" lon="5.85152">
        <ele>694.6</ele>
        <time>2021-08-22T14:20:07Z</time>
      </trkpt>
      <trkpt lat="45.70055" lon="5.85152">
        <ele>694.7</ele>
        <time>2021-08-22T14:20:08Z</time>
      </trkpt>
      <trkpt lat="45.70051" lon="5.85155">
        <ele>695</ele>
        <time>2021-08-22T14:20:09Z</time>
      </trkpt>
      <trkpt lat="45.70049" lon="5.85156">
        <ele>695.1</ele>
        <time>2021-08-22T14:20:10Z</time>
      </trkpt>
      <trkpt lat="45.70043" lon="5.85158">
        <ele>695.5</ele>
        <time>2021-08-22T14:20:12Z</time>
      </trkpt>
      <trkpt lat="45.70039" lon="5.85159">
        <ele>695.8</ele>
        <time>2021-08-22T14:20:13Z</time>
      </trkpt>
      <trkpt lat="45.70034" lon="5.85161">
        <ele>696</ele>
        <time>2021-08-22T14:20:14Z</time>
      </trkpt>
      <trkpt lat="45.70028" lon="5.85162">
        <ele>696.2</ele>
        <time>2021-08-22T14:20:15Z</time>
      </trkpt>
      <trkpt lat="45.70017" lon="5.85165">
        <ele>696.3</ele>
        <time>2021-08-22T14:20:16Z</time>
      </trkpt>
      <trkpt lat="45.70012" lon="5.85166">
        <ele>696.2</ele>
        <time>2021-08-22T14:20:17Z</time>
      </trkpt>
      <trkpt lat="45.70005" lon="5.85168">
        <ele>696.1</ele>
        <time>2021-08-22T14:20:18Z</time>
      </trkpt>
      <trkpt lat="45.69999" lon="5.85167">
        <ele>696</ele>
        <time>2021-08-22T14:20:20Z</time>
      </trkpt>
      <trkpt lat="45.69994" lon="5.85167">
        <ele>696</ele>
        <time>2021-08-22T14:20:22Z</time>
      </trkpt>
      <trkpt lat="45.69991" lon="5.85166">
        <ele>696.1</ele>
        <time>2021-08-22T14:20:23Z</time>
      </trkpt>
      <trkpt lat="45.69986" lon="5.85165">
        <ele>696.2</ele>
        <time>2021-08-22T14:20:24Z</time>
      </trkpt>
      <trkpt lat="45.69981" lon="5.85163">
        <ele>696.3</ele>
        <time>2021-08-22T14:20:26Z</time>
      </trkpt>
      <trkpt lat="45.69978" lon="5.85162">
        <ele>696.5</ele>
        <time>2021-08-22T14:20:27Z</time>
      </trkpt>
      <trkpt lat="45.69974" lon="5.85159">
        <ele>696.7</ele>
        <time>2021-08-22T14:20:29Z</time>
      </trkpt>
      <trkpt lat="45.69972" lon="5.85158">
        <ele>696.8</ele>
        <time>2021-08-22T14:20:30Z</time>
      </trkpt>
      <trkpt lat="45.69969" lon="5.85157">
        <ele>697</ele>
        <time>2021-08-22T14:20:32Z</time>
      </trkpt>
      <trkpt lat="45.69966" lon="5.85156">
        <ele>697.2</ele>
        <time>2021-08-22T14:20:33Z</time>
      </trkpt>
      <trkpt lat="45.69965" lon="5.85156">
        <ele>697.3</ele>
        <time>2021-08-22T14:20:34Z</time>
      </trkpt>
      <trkpt lat="45.69961" lon="5.85157">
        <ele>697.5</ele>
        <time>2021-08-22T14:20:36Z</time>
      </trkpt>
      <trkpt lat="45.6996" lon="5.85157">
        <ele>697.6</ele>
        <time>2021-08-22T14:20:37Z</time>
      </trkpt>
      <trkpt lat="45.69959" lon="5.85158">
        <ele>697.7</ele>
        <time>2021-08-22T14:20:38Z</time>
      </trkpt>
      <trkpt lat="45.69958" lon="5.85158">
        <ele>697.7</ele>
        <time>2021-08-22T14:20:39Z</time>
      </trkpt>
      <trkpt lat="45.69958" lon="5.85158">
        <ele>697.8</ele>
        <time>2021-08-22T14:20:40Z</time>
      </trkpt>
      <trkpt lat="45.69954" lon="5.85158">
        <ele>698</ele>
        <time>2021-08-22T14:20:42Z</time>
      </trkpt>
      <trkpt lat="45.69953" lon="5.85157">
        <ele>698.1</ele>
        <time>2021-08-22T14:20:43Z</time>
      </trkpt>
      <trkpt lat="45.69952" lon="5.85155">
        <ele>698.2</ele>
        <time>2021-08-22T14:20:44Z</time>
      </trkpt>
      <trkpt lat="45.69948" lon="5.85153">
        <ele>698.5</ele>
        <time>2021-08-22T14:20:46Z</time>
      </trkpt>
      <trkpt lat="45.69947" lon="5.85153">
        <ele>698.7</ele>
        <time>2021-08-22T14:20:47Z</time>
      </trkpt>
      <trkpt lat="45.69942" lon="5.85154">
        <ele>699</ele>
        <time>2021-08-22T14:20:48Z</time>
      </trkpt>
      <trkpt lat="45.69933" lon="5.85156">
        <ele>699.1</ele>
        <time>2021-08-22T14:20:50Z</time>
      </trkpt>
      <trkpt lat="45.69926" lon="5.85155">
        <ele>698.8</ele>
        <time>2021-08-22T14:20:51Z</time>
      </trkpt>
      <trkpt lat="45.69919" lon="5.85149">
        <ele>697.8</ele>
        <time>2021-08-22T14:20:53Z</time>
      </trkpt>
      <trkpt lat="45.69915" lon="5.85146">
        <ele>697.1</ele>
        <time>2021-08-22T14:20:54Z</time>
      </trkpt>
      <trkpt lat="45.69912" lon="5.85144">
        <ele>696.6</ele>
        <time>2021-08-22T14:20:55Z</time>
      </trkpt>
      <trkpt lat="45.6991" lon="5.8514">
        <ele>696.1</ele>
        <time>2021-08-22T14:20:57Z</time>
      </trkpt>
      <trkpt lat="45.69909" lon="5.85138">
        <ele>695.8</ele>
        <time>2021-08-22T14:20:58Z</time>
      </trkpt>
      <trkpt lat="45.69909" lon="5.85137">
        <ele>695.7</ele>
        <time>2021-08-22T14:20:59Z</time>
      </trkpt>
      <trkpt lat="45.69911" lon="5.85135">
        <ele>695.3</ele>
        <time>2021-08-22T14:21:01Z</time>
      </trkpt>
      <trkpt lat="45.69911" lon="5.85134">
        <ele>695.2</ele>
        <time>2021-08-22T14:21:02Z</time>
      </trkpt>
      <trkpt lat="45.69911" lon="5.85134">
        <ele>695.2</ele>
        <time>2021-08-22T14:21:03Z</time>
      </trkpt>
      <trkpt lat="45.69911" lon="5.85134">
        <ele>695.2</ele>
        <time>2021-08-22T14:21:05Z</time>
      </trkpt>
      <trkpt lat="45.69912" lon="5.85134">
        <ele>695.2</ele>
        <time>2021-08-22T14:21:06Z</time>
      </trkpt>
      <trkpt lat="45.69912" lon="5.85134">
        <ele>695.2</ele>
        <time>2021-08-22T14:21:08Z</time>
      </trkpt>
      <trkpt lat="45.69834" lon="5.85024">
        <ele>701.8</ele>
        <time>2021-08-22T14:22:43Z</time>
      </trkpt>
      <trkpt lat="45.69834" lon="5.85019">
        <ele>701.8</ele>
        <time>2021-08-22T14:22:44Z</time>
      </trkpt>
      <trkpt lat="45.69834" lon="5.85011">
        <ele>702</ele>
        <time>2021-08-22T14:22:46Z</time>
      </trkpt>
      <trkpt lat="45.69835" lon="5.85008">
        <ele>702.1</ele>
        <time>2021-08-22T14:22:47Z</time>
      </trkpt>
      <trkpt lat="45.69836" lon="5.85003">
        <ele>702.3</ele>
        <time>2021-08-22T14:22:49Z</time>
      </trkpt>
      <trkpt lat="45.69835" lon="5.85003">
        <ele>702.3</ele>
        <time>2021-08-22T14:22:50Z</time>
      </trkpt>
      <trkpt lat="45.69834" lon="5.85002">
        <ele>702.4</ele>
        <time>2021-08-22T14:22:51Z</time>
      </trkpt>
      <trkpt lat="45.69834" lon="5.85001">
        <ele>702.5</ele>
        <time>2021-08-22T14:22:52Z</time>
      </trkpt>
      <trkpt lat="45.69834" lon="5.84999">
        <ele>702.5</ele>
        <time>2021-08-22T14:22:53Z</time>
      </trkpt>
      <trkpt lat="45.69834" lon="5.84998">
        <ele>702.6</ele>
        <time>2021-08-22T14:22:54Z</time>
      </trkpt>
      <trkpt lat="45.69834" lon="5.84997">
        <ele>702.7</ele>
        <time>2021-08-22T14:22:56Z</time>
      </trkpt>
      <trkpt lat="45.69834" lon="5.84995">
        <ele>702.8</ele>
        <time>2021-08-22T14:22:57Z</time>
      </trkpt>
      <trkpt lat="45.69784" lon="5.84905">
        <ele>706.2</ele>
        <time>2021-08-22T14:24:19Z</time>
      </trkpt>
      <trkpt lat="45.69782" lon="5.849">
        <ele>706.1</ele>
        <time>2021-08-22T14:24:20Z</time>
      </trkpt>
      <trkpt lat="45.69779" lon="5.84894">
        <ele>705.8</ele>
        <time>2021-08-22T14:24:22Z</time>
      </trkpt>
      <trkpt lat="45.69776" lon="5.84887">
        <ele>705.5</ele>
        <time>2021-08-22T14:24:23Z</time>
      </trkpt>
      <trkpt lat="45.69773" lon="5.8488">
        <ele>705</ele>
        <time>2021-08-22T14:24:25Z</time>
      </trkpt>
      <trkpt lat="45.69771" lon="5.84877">
        <ele>704.7</ele>
        <time>2021-08-22T14:24:26Z</time>
      </trkpt>
      <trkpt lat="45.69764" lon="5.84871">
        <ele>704.1</ele>
        <time>2021-08-22T14:24:27Z</time>
      </trkpt>
      <trkpt lat="45.6976" lon="5.84867">
        <ele>703.7</ele>
        <time>2021-08-22T14:24:29Z</time>
      </trkpt>
      <trkpt lat="45.69757" lon="5.84865">
        <ele>703.5</ele>
        <time>2021-08-22T14:24:30Z</time>
      </trkpt>
      <trkpt lat="45.69755" lon="5.84864">
        <ele>703.3</ele>
        <time>2021-08-22T14:24:31Z</time>
      </trkpt>
      <trkpt lat="45.69753" lon="5.84863">
        <ele>703.2</ele>
        <time>2021-08-22T14:24:33Z</time>
      </trkpt>
      <trkpt lat="45.69753" lon="5.84863">
        <ele>703.2</ele>
        <time>2021-08-22T14:24:34Z</time>
      </trkpt>
      <trkpt lat="45.69746" lon="5.84861">
        <ele>703.1</ele>
        <time>2021-08-22T14:24:36Z</time>
      </trkpt>
      <trkpt lat="45.69645" lon="5.8482">
        <ele>701.2</ele>
        <time>2021-08-22T14:24:59Z</time>
      </trkpt>
      <trkpt lat="45.69632" lon="5.84823">
        <ele>699.7</ele>
        <time>2021-08-22T14:25:00Z</time>
      </trkpt>
      <trkpt lat="45.69622" lon="5.84822">
        <ele>698.9</ele>
        <time>2021-08-22T14:25:01Z</time>
      </trkpt>
      <trkpt lat="45.69615" lon="5.84821">
        <ele>698.4</ele>
        <time>2021-08-22T14:25:02Z</time>
      </trkpt>
      <trkpt lat="45.69609" lon="5.84817">
        <ele>697.9</ele>
        <time>2021-08-22T14:25:04Z</time>
      </trkpt>
      <trkpt lat="45.69601" lon="5.84805">
        <ele>697.3</ele>
        <time>2021-08-22T14:25:05Z</time>
      </trkpt>
      <trkpt lat="45.69597" lon="5.84801">
        <ele>697.2</ele>
        <time>2021-08-22T14:25:06Z</time>
      </trkpt>
      <trkpt lat="45.69594" lon="5.84797">
        <ele>697.2</ele>
        <time>2021-08-22T14:25:08Z</time>
      </trkpt>
      <trkpt lat="45.69593" lon="5.84795">
        <ele>697.3</ele>
        <time>2021-08-22T14:25:09Z</time>
      </trkpt>
      <trkpt lat="45.69591" lon="5.84791">
        <ele>697.4</ele>
        <time>2021-08-22T14:25:11Z</time>
      </trkpt>
      <trkpt lat="45.69591" lon="5.84792">
        <ele>697.4</ele>
        <time>2021-08-22T14:25:13Z</time>
      </trkpt>
      <trkpt lat="45.6959" lon="5.84794">
        <ele>697.5</ele>
        <time>2021-08-22T14:25:14Z</time>
      </trkpt>
      <trkpt lat="45.6959" lon="5.84796">
        <ele>697.6</ele>
        <time>2021-08-22T14:25:16Z</time>
      </trkpt>
      <trkpt lat="45.69306" lon="5.84767">
        <ele>647.1</ele>
        <time>2021-08-22T14:32:34Z</time>
      </trkpt>
      <trkpt lat="45.69301" lon="5.84768">
        <ele>646.7</ele>
        <time>2021-08-22T14:32:35Z</time>
      </trkpt>
      <trkpt lat="45.69298" lon="5.84768">
        <ele>646.4</ele>
        <time>2021-08-22T14:32:36Z</time>
      </trkpt>
      <trkpt lat="45.69293" lon="5.84769">
        <ele>646</ele>
        <time>2021-08-22T14:32:37Z</time>
      </trkpt>
      <trkpt lat="45.69289" lon="5.84771">
        <ele>645.7</ele>
        <time>2021-08-22T14:32:38Z</time>
      </trkpt>
      <trkpt lat="45.69288" lon="5.84772">
        <ele>645.5</ele>
        <time>2021-08-22T14:32:39Z</time>
      </trkpt>
      <trkpt lat="45.69286" lon="5.84774">
        <ele>645.3</ele>
        <time>2021-08-22T14:32:41Z</time>
      </trkpt>
      <trkpt lat="45.69282" lon="5.84778">
        <ele>644.9</ele>
        <time>2021-08-22T14:32:43Z</time>
      </trkpt>
      <trkpt lat="45.69282" lon="5.8478">
        <ele>644.8</ele>
        <time>2021-08-22T14:32:44Z</time>
      </trkpt>
      <trkpt lat="45.69282" lon="5.84782">
        <ele>644.7</ele>
        <time>2021-08-22T14:32:45Z</time>
      </trkpt>
      <trkpt lat="45.69281" lon="5.84785">
        <ele>644.5</ele>
        <time>2021-08-22T14:32:46Z</time>
      </trkpt>
      <trkpt lat="45.69281" lon="5.84788">
        <ele>644.3</ele>
        <time>2021-08-22T14:32:48Z</time>
      </trkpt>
      <trkpt lat="45.6928" lon="5.8479">
        <ele>644.1</ele>
        <time>2021-08-22T14:32:49Z</time>
      </trkpt>
      <trkpt lat="45.6928" lon="5.84792">
        <ele>644</ele>
        <time>2021-08-22T14:32:51Z</time>
      </trkpt>
      <trkpt lat="45.6928" lon="5.84793">
        <ele>643.9</ele>
        <time>2021-08-22T14:32:52Z</time>
      </trkpt>
      <trkpt lat="45.6928" lon="5.84794">
        <ele>643.9</ele>
        <time>2021-08-22T14:32:54Z</time>
      </trkpt>
      <trkpt lat="45.69281" lon="5.84794">
        <ele>643.8</ele>
        <time>2021-08-22T14:32:56Z</time>
      </trkpt>
      <trkpt lat="45.69282" lon="5.84794">
        <ele>643.7</ele>
        <time>2021-08-22T14:32:57Z</time>
      </trkpt>
      <trkpt lat="45.69284" lon="5.84793">
        <ele>643.6</ele>
        <time>2021-08-22T14:32:59Z</time>
      </trkpt>
      <trkpt lat="45.69285" lon="5.84792">
        <ele>643.4</ele>
        <time>2021-08-22T14:33:00Z</time>
      </trkpt>
      <trkpt lat="45.69286" lon="5.84792">
        <ele>643.3</ele>
        <time>2021-08-22T14:33:01Z</time>
      </trkpt>
      <trkpt lat="45.69287" lon="5.84792">
        <ele>643.3</ele>
        <time>2021-08-22T14:33:03Z</time>
      </trkpt>
      <trkpt lat="45.69287" lon="5.84792">
        <ele>643.2</ele>
        <time>2021-08-22T14:33:04Z</time>
      </trkpt>
      <trkpt lat="45.69288" lon="5.84792">
        <ele>643.1</ele>
        <time>2021-08-22T14:33:06Z</time>
      </trkpt>
      <trkpt lat="45.69289" lon="5.84791">
        <ele>643.1</ele>
        <time>2021-08-22T14:33:07Z</time>
      </trkpt>
      <trkpt lat="45.6929" lon="5.84791">
        <ele>643</ele>
        <time>2021-08-22T14:33:09Z</time>
      </trkpt>
      <trkpt lat="45.69291" lon="5.84791">
        <ele>642.9</ele>
        <time>2021-08-22T14:33:10Z</time>
      </trkpt>
      <trkpt lat="45.69296" lon="5.84792">
        <ele>642.4</ele>
        <time>2021-08-22T14:33:12Z</time>
      </trkpt>
      <trkpt lat="45.693" lon="5.84791">
        <ele>642</ele>
        <time>2021-08-22T14:33:13Z</time>
      </trkpt>
      <trkpt lat="45.69305" lon="5.8479">
        <ele>641.6</ele>
        <time>2021-08-22T14:33:15Z</time>
      </trkpt>
      <trkpt lat="45.69306" lon="5.8479">
        <ele>641.5</ele>
        <time>2021-08-22T14:33:16Z</time>
      </trkpt>
      <trkpt lat="45.69308" lon="5.8479">
        <ele>641.4</ele>
        <time>2021-08-22T14:33:17Z</time>
      </trkpt>
      <trkpt lat="45.69311" lon="5.8479">
        <ele>641.1</ele>
        <time>2021-08-22T14:33:19Z</time>
      </trkpt>
      <trkpt lat="45.69312" lon="5.8479">
        <ele>641</ele>
        <time>2021-08-22T14:33:20Z</time>
      </trkpt>
      <trkpt lat="45.69315" lon="5.84791">
        <ele>640.7</ele>
        <time>2021-08-22T14:33:22Z</time>
      </trkpt>
      <trkpt lat="45.69316" lon="5.84791">
        <ele>640.6</ele>
        <time>2021-08-22T14:33:23Z</time>
      </trkpt>
      <trkpt lat="45.69318" lon="5.84791">
        <ele>640.5</ele>
        <time>2021-08-22T14:33:25Z</time>
      </trkpt>
      <trkpt lat="45.69318" lon="5.84792">
        <ele>640.4</ele>
        <time>2021-08-22T14:33:26Z</time>
      </trkpt>
      <trkpt lat="45.69319" lon="5.84793">
        <ele>640.3</ele>
        <time>2021-08-22T14:33:27Z</time>
      </trkpt>
      <trkpt lat="45.69319" lon="5.84793">
        <ele>640.3</ele>
        <time>2021-08-22T14:33:29Z</time>
      </trkpt>
      <trkpt lat="45.69319" lon="5.84793">
        <ele>640.3</ele>
        <time>2021-08-22T14:33:31Z</time>
      </trkpt>
      <trkpt lat="45.69319" lon="5.84794">
        <ele>640.3</ele>
        <time>2021-08-22T14:33:32Z</time>
      </trkpt>
      <trkpt lat="45.69319" lon="5.84794">
        <ele>640.2</ele>
        <time>2021-08-22T14:33:33Z</time>
      </trkpt>
      <trkpt lat="45.6932" lon="5.84794">
        <ele>640.2</ele>
        <time>2021-08-22T14:33:35Z</time>
      </trkpt>
      <trkpt lat="45.69319" lon="5.84794">
        <ele>640.1</ele>
        <time>2021-08-22T14:33:36Z</time>
      </trkpt>
      <trkpt lat="45.69318" lon="5.84795">
        <ele>640</ele>
        <time>2021-08-22T14:33:38Z</time>
      </trkpt>
      <trkpt lat="45.69317" lon="5.84795">
        <ele>640</ele>
        <time>2021-08-22T14:33:39Z</time>
      </trkpt>
      <trkpt lat="45.69316" lon="5.84796">
        <ele>639.8</ele>
        <time>2021-08-22T14:33:41Z</time>
      </trkpt>
      <trkpt lat="45.69315" lon="5.84797">
        <ele>639.8</ele>
        <time>2021-08-22T14:33:42Z</time>
      </trkpt>
      <trkpt lat="45.69314" lon="5.84801">
        <ele>639.5</ele>
        <time>2021-08-22T14:33:43Z</time>
      </trkpt>
      <trkpt lat="45.69314" lon="5.84803">
        <ele>639.3</ele>
        <time>2021-08-22T14:33:44Z</time>
      </trkpt>
      <trkpt lat="45.69313" lon="5.84804">
        <ele>639.3</ele>
        <time>2021-08-22T14:33:46Z</time>
      </trkpt>
      <trkpt lat="45.69313" lon="5.84805">
        <ele>639.2</ele>
        <time>2021-08-22T14:33:47Z</time>
      </trkpt>
      <trkpt lat="45.69313" lon="5.84807">
        <ele>639.1</ele>
        <time>2021-08-22T14:33:49Z</time>
      </trkpt>
      <trkpt lat="45.69312" lon="5.84807">
        <ele>639</ele>
        <time>2021-08-22T14:33:50Z</time>
      </trkpt>
      <trkpt lat="45.69312" lon="5.84808">
        <ele>639</ele>
        <time>2021-08-22T14:33:51Z</time>
      </trkpt>
      <trkpt lat="45.69312" lon="5.84809">
        <ele>638.9</ele>
        <time>2021-08-22T14:33:52Z</time>
      </trkpt>
      <trkpt lat="45.69312" lon="5.84809">
        <ele>638.9</ele>
        <time>2021-08-22T14:33:53Z</time>
      </trkpt>
      <trkpt lat="45.69311" lon="5.8481">
        <ele>638.8</ele>
        <time>2021-08-22T14:33:55Z</time>
      </trkpt>
      <trkpt lat="45.69311" lon="5.84811">
        <ele>638.8</ele>
        <time>2021-08-22T14:33:56Z</time>
      </trkpt>
      <trkpt lat="45.69311" lon="5.84811">
        <ele>638.8</ele>
        <time>2021-08-22T14:33:58Z</time>
      </trkpt>
      <trkpt lat="45.69311" lon="5.84811">
        <ele>638.8</ele>
        <time>2021-08-22T14:33:59Z</time>
      </trkpt>
      <trkpt lat="45.69312" lon="5.8481">
        <ele>638.7</ele>
        <time>2021-08-22T14:34:01Z</time>
      </trkpt>
      <trkpt lat="45.69313" lon="5.84809">
        <ele>638.6</ele>
        <time>2021-08-22T14:34:02Z</time>
      </trkpt>
      <trkpt lat="45.69313" lon="5.84808">
        <ele>638.5</ele>
        <time>2021-08-22T14:34:03Z</time>
      </trkpt>
      <trkpt lat="45.69319" lon="5.84802">
        <ele>637.9</ele>
        <time>2021-08-22T14:34:05Z</time>
      </trkpt>
      <trkpt lat="45.69323" lon="5.84798">
        <ele>637.5</ele>
        <time>2021-08-22T14:34:06Z</time>
      </trkpt>
      <trkpt lat="45.6932" lon="5.84799">
        <ele>637.3</ele>
        <time>2021-08-22T14:34:08Z</time>
      </trkpt>
      <trkpt lat="45.6932" lon="5.84799">
        <ele>637.3</ele>
        <time>2021-08-22T14:34:09Z</time>
      </trkpt>
      <trkpt lat="45.69319" lon="5.848">
        <ele>637.2</ele>
        <time>2021-08-22T14:34:11Z</time>
      </trkpt>
      <trkpt lat="45.69319" lon="5.84801">
        <ele>637.1</ele>
        <time>2021-08-22T14:34:12Z</time>
      </trkpt>
      <trkpt lat="45.69318" lon="5.84802">
        <ele>637</ele>
        <time>2021-08-22T14:34:13Z</time>
      </trkpt>
      <trkpt lat="45.69317" lon="5.84802">
        <ele>636.9</ele>
        <time>2021-08-22T14:34:15Z</time>
      </trkpt>
      <trkpt lat="45.69316" lon="5.84803">
        <ele>636.9</ele>
        <time>2021-08-22T14:34:16Z</time>
      </trkpt>
      <trkpt lat="45.69316" lon="5.84803">
        <ele>636.9</ele>
        <time>2021-08-22T14:34:17Z</time>
      </trkpt>
      <trkpt lat="45.69316" lon="5.84804">
        <ele>636.8</ele>
        <time>2021-08-22T14:34:18Z</time>
      </trkpt>
      <trkpt lat="45.69315" lon="5.84804">
        <ele>636.8</ele>
        <time>2021-08-22T14:34:20Z</time>
      </trkpt>
      <trkpt lat="45.69314" lon="5.84805">
        <ele>636.7</ele>
        <time>2021-08-22T14:34:22Z</time>
      </trkpt>
      <trkpt lat="45.69314" lon="5.84805">
        <ele>636.7</ele>
        <time>2021-08-22T14:34:23Z</time>
      </trkpt>
      <trkpt lat="45.69314" lon="5.84805">
        <ele>636.7</ele>
        <time>2021-08-22T14:34:24Z</time>
      </trkpt>
      <trkpt lat="45.69313" lon="5.84805">
        <ele>636.6</ele>
        <time>2021-08-22T14:34:26Z</time>
      </trkpt>
      <trkpt lat="45.69313" lon="5.84806">
        <ele>636.6</ele>
        <time>2021-08-22T14:34:28Z</time>
      </trkpt>
      <trkpt lat="45.69313" lon="5.84806">
        <ele>636.6</ele>
        <time>2021-08-22T14:34:29Z</time>
      </trkpt>
      <trkpt lat="45.69312" lon="5.84806">
        <ele>636.5</ele>
        <time>2021-08-22T14:34:30Z</time>
      </trkpt>
      <trkpt lat="45.69312" lon="5.84806">
        <ele>636.5</ele>
        <time>2021-08-22T14:34:32Z</time>
      </trkpt>
      <trkpt lat="45.69312" lon="5.84806">
        <ele>636.5</ele>
        <time>2021-08-22T14:34:33Z</time>
      </trkpt>
      <trkpt lat="45.69312" lon="5.84807">
        <ele>636.5</ele>
        <time>2021-08-22T14:34:34Z</time>
      </trkpt>
      <trkpt lat="45.69312" lon="5.84807">
        <ele>636.4</ele>
        <time>2021-08-22T14:34:36Z</time>
      </trkpt>
      <trkpt lat="45.69312" lon="5.84809">
        <ele>636.4</ele>
        <time>2021-08-22T14:34:37Z</time>
      </trkpt>
      <trkpt lat="45.69312" lon="5.84809">
        <ele>636.3</ele>
        <time>2021-08-22T14:34:38Z</time>
      </trkpt>
      <trkpt lat="45.69312" lon="5.84811">
        <ele>636.2</ele>
        <time>2021-08-22T14:34:40Z</time>
      </trkpt>
      <trkpt lat="45.69312" lon="5.84812">
        <ele>636.2</ele>
        <time>2021-08-22T14:34:41Z</time>
      </trkpt>
      <trkpt lat="45.69311" lon="5.84815">
        <ele>636</ele>
        <time>2021-08-22T14:34:43Z</time>
      </trkpt>
      <trkpt lat="45.69311" lon="5.84816">
        <ele>635.9</ele>
        <time>2021-08-22T14:34:45Z</time>
      </trkpt>
      <trkpt lat="45.6931" lon="5.84817">
        <ele>635.8</ele>
        <time>2021-08-22T14:34:46Z</time>
      </trkpt>
      <trkpt lat="45.6931" lon="5.84818">
        <ele>635.8</ele>
        <time>2021-08-22T14:34:48Z</time>
      </trkpt>
      <trkpt lat="45.69309" lon="5.84819">
        <ele>635.7</ele>
        <time>2021-08-22T14:34:50Z</time>
      </trkpt>
      <trkpt lat="45.69308" lon="5.8482">
        <ele>635.6</ele>
        <time>2021-08-22T14:34:51Z</time>
      </trkpt>
      <trkpt lat="45.69305" lon="5.84823">
        <ele>635.4</ele>
        <time>2021-08-22T14:34:53Z</time>
      </trkpt>
      <trkpt lat="45.69303" lon="5.84825">
        <ele>635.2</ele>
        <time>2021-08-22T14:34:54Z</time>
      </trkpt>
      <trkpt lat="45.693" lon="5.84827">
        <ele>635</ele>
        <time>2021-08-22T14:34:55Z</time>
      </trkpt>
      <trkpt lat="45.69297" lon="5.84829">
        <ele>634.7</ele>
        <time>2021-08-22T14:34:56Z</time>
      </trkpt>
      <trkpt lat="45.69285" lon="5.84839">
        <ele>633.8</ele>
        <time>2021-08-22T14:34:58Z</time>
      </trkpt>
      <trkpt lat="45.69283" lon="5.8484">
        <ele>633.7</ele>
        <time>2021-08-22T14:34:59Z</time>
      </trkpt>
      <trkpt lat="45.69282" lon="5.84841">
        <ele>633.6</ele>
        <time>2021-08-22T14:35:01Z</time>
      </trkpt>
      <trkpt lat="45.69282" lon="5.8484">
        <ele>633.6</ele>
        <time>2021-08-22T14:35:02Z</time>
      </trkpt>
      <trkpt lat="45.69282" lon="5.8484">
        <ele>633.6</ele>
        <time>2021-08-22T14:35:03Z</time>
      </trkpt>
      <trkpt lat="45.69282" lon="5.84839">
        <ele>633.6</ele>
        <time>2021-08-22T14:35:04Z</time>
      </trkpt>
      <trkpt lat="45.69282" lon="5.84839">
        <ele>633.5</ele>
        <time>2021-08-22T14:35:05Z</time>
      </trkpt>
      <trkpt lat="45.69282" lon="5.84838">
        <ele>633.5</ele>
        <time>2021-08-22T14:35:06Z</time>
      </trkpt>
      <trkpt lat="45.69283" lon="5.84838">
        <ele>633.5</ele>
        <time>2021-08-22T14:35:08Z</time>
      </trkpt>
      <trkpt lat="45.69283" lon="5.84838">
        <ele>633.5</ele>
        <time>2021-08-22T14:35:09Z</time>
      </trkpt>
      <trkpt lat="45.69283" lon="5.84838">
        <ele>633.5</ele>
        <time>2021-08-22T14:35:10Z</time>
      </trkpt>
      <trkpt lat="45.69283" lon="5.84838">
        <ele>633.5</ele>
        <time>2021-08-22T14:35:12Z</time>
      </trkpt>
      <trkpt lat="45.69283" lon="5.84837">
        <ele>633.4</ele>
        <time>2021-08-22T14:35:13Z</time>
      </trkpt>
      <trkpt lat="45.69284" lon="5.84833">
        <ele>633.3</ele>
        <time>2021-08-22T14:35:14Z</time>
      </trkpt>
      <trkpt lat="45.69284" lon="5.84829">
        <ele>633.1</ele>
        <time>2021-08-22T14:35:16Z</time>
      </trkpt>
      <trkpt lat="45.69283" lon="5.84821">
        <ele>631.5</ele>
        <time>2021-08-22T14:35:17Z</time>
      </trkpt>
      <trkpt lat="45.69282" lon="5.84815">
        <ele>631.8</ele>
        <time>2021-08-22T14:35:18Z</time>
      </trkpt>
      <trkpt lat="45.69281" lon="5.8481">
        <ele>632.2</ele>
        <time>2021-08-22T14:35:19Z</time>
      </trkpt>
      <trkpt lat="45.6928" lon="5.84805">
        <ele>632.5</ele>
        <time>2021-08-22T14:35:20Z</time>
      </trkpt>
      <trkpt lat="45.6928" lon="5.84803">
        <ele>632.5</ele>
        <time>2021-08-22T14:35:21Z</time>
      </trkpt>
      <trkpt lat="45.6928" lon="5.848">
        <ele>632.7</ele>
        <time>2021-08-22T14:35:22Z</time>
      </trkpt>
      <trkpt lat="45.69281" lon="5.84798">
        <ele>632.8</ele>
        <time>2021-08-22T14:35:23Z</time>
      </trkpt>
      <trkpt lat="45.69282" lon="5.84794">
        <ele>633</ele>
        <time>2021-08-22T14:35:25Z</time>
      </trkpt>
      <trkpt lat="45.69282" lon="5.84793">
        <ele>633</ele>
        <time>2021-08-22T14:35:26Z</time>
      </trkpt>
      <trkpt lat="45.69283" lon="5.8479">
        <ele>633.2</ele>
        <time>2021-08-22T14:35:28Z</time>
      </trkpt>
      <trkpt lat="45.69283" lon="5.84789">
        <ele>633.2</ele>
        <time>2021-08-22T14:35:29Z</time>
      </trkpt>
      <trkpt lat="45.69284" lon="5.84787">
        <ele>633.3</ele>
        <time>2021-08-22T14:35:31Z</time>
      </trkpt>
      <trkpt lat="45.69284" lon="5.84786">
        <ele>633.3</ele>
        <time>2021-08-22T14:35:32Z</time>
      </trkpt>
      <trkpt lat="45.69286" lon="5.84785">
        <ele>633.4</ele>
        <time>2021-08-22T14:35:34Z</time>
      </trkpt>
      <trkpt lat="45.69288" lon="5.84779">
        <ele>633.6</ele>
        <time>2021-08-22T14:35:35Z</time>
      </trkpt>
      <trkpt lat="45.69289" lon="5.84773">
        <ele>633.7</ele>
        <time>2021-08-22T14:35:37Z</time>
      </trkpt>
      <trkpt lat="45.6929" lon="5.84768">
        <ele>633.8</ele>
        <time>2021-08-22T14:35:39Z</time>
      </trkpt>
      <trkpt lat="45.69292" lon="5.84762">
        <ele>633.9</ele>
        <time>2021-08-22T14:35:40Z</time>
      </trkpt>
      <trkpt lat="45.69293" lon="5.84757">
        <ele>633.9</ele>
        <time>2021-08-22T14:35:41Z</time>
      </trkpt>
      <trkpt lat="45.69294" lon="5.84751">
        <ele>633.9</ele>
        <time>2021-08-22T14:35:42Z</time>
      </trkpt>
      <trkpt lat="45.69296" lon="5.84746">
        <ele>633.8</ele>
        <time>2021-08-22T14:35:43Z</time>
      </trkpt>
      <trkpt lat="45.69297" lon="5.8474">
        <ele>633.7</ele>
        <time>2021-08-22T14:35:44Z</time>
      </trkpt>
      <trkpt lat="45.69298" lon="5.84735">
        <ele>633.6</ele>
        <time>2021-08-22T14:35:45Z</time>
      </trkpt>
      <trkpt lat="45.693" lon="5.84729">
        <ele>633.4</ele>
        <time>2021-08-22T14:35:47Z</time>
      </trkpt>
      <trkpt lat="45.69301" lon="5.84724">
        <ele>633.3</ele>
        <time>2021-08-22T14:35:48Z</time>
      </trkpt>
      <trkpt lat="45.69302" lon="5.84719">
        <ele>633</ele>
        <time>2021-08-22T14:35:49Z</time>
      </trkpt>
      <trkpt lat="45.69304" lon="5.84713">
        <ele>632.8</ele>
        <time>2021-08-22T14:35:51Z</time>
      </trkpt>
      <trkpt lat="45.69305" lon="5.84708">
        <ele>632.5</ele>
        <time>2021-08-22T14:35:52Z</time>
      </trkpt>
      <trkpt lat="45.69306" lon="5.84702">
        <ele>632.2</ele>
        <time>2021-08-22T14:35:54Z</time>
      </trkpt>
      <trkpt lat="45.69308" lon="5.84697">
        <ele>631.9</ele>
        <time>2021-08-22T14:35:55Z</time>
      </trkpt>
      <trkpt lat="45.69309" lon="5.84691">
        <ele>631.5</ele>
        <time>2021-08-22T14:35:57Z</time>
      </trkpt>
      <trkpt lat="45.6931" lon="5.84686">
        <ele>631.2</ele>
        <time>2021-08-22T14:36:01Z</time>
      </trkpt>
      <trkpt lat="45.69312" lon="5.8468">
        <ele>630.8</ele>
        <time>2021-08-22T14:36:04Z</time>
      </trkpt>
      <trkpt lat="45.69313" lon="5.84675">
        <ele>630.4</ele>
        <time>2021-08-22T14:36:10Z</time>
      </trkpt>
      <trkpt lat="45.69314" lon="5.84669">
        <ele>630.1</ele>
        <time>2021-08-22T14:36:11Z</time>
      </trkpt>
      <trkpt lat="45.69316" lon="5.84664">
        <ele>629.7</ele>
        <time>2021-08-22T14:36:13Z</time>
      </trkpt>
      <trkpt lat="45.69317" lon="5.84658">
        <ele>629.3</ele>
        <time>2021-08-22T14:36:17Z</time>
      </trkpt>
      <trkpt lat="45.69318" lon="5.84653">
        <ele>628.9</ele>
        <time>2021-08-22T14:36:20Z</time>
      </trkpt>
      <trkpt lat="45.6936" lon="5.84582">
        <ele>623.1</ele>
        <time>2021-08-22T14:36:21Z</time>
      </trkpt>
      <trkpt lat="45.69367" lon="5.84573">
        <ele>622.5</ele>
        <time>2021-08-22T14:36:23Z</time>
      </trkpt>
      <trkpt lat="45.69374" lon="5.8456">
        <ele>621.7</ele>
        <time>2021-08-22T14:36:24Z</time>
      </trkpt>
      <trkpt lat="45.69381" lon="5.84526">
        <ele>620.3</ele>
        <time>2021-08-22T14:36:26Z</time>
      </trkpt>
      <trkpt lat="45.69384" lon="5.84515">
        <ele>619.8</ele>
        <time>2021-08-22T14:36:27Z</time>
      </trkpt>
      <trkpt lat="45.69374" lon="5.84491">
        <ele>618.4</ele>
        <time>2021-08-22T14:36:29Z</time>
      </trkpt>
      <trkpt lat="45.69373" lon="5.84477">
        <ele>612.3</ele>
        <time>2021-08-22T14:36:30Z</time>
      </trkpt>
      <trkpt lat="45.69372" lon="5.84464">
        <ele>604.8</ele>
        <time>2021-08-22T14:36:31Z</time>
      </trkpt>
      <trkpt lat="45.6937" lon="5.84437">
        <ele>597.8</ele>
        <time>2021-08-22T14:36:33Z</time>
      </trkpt>
      <trkpt lat="45.69368" lon="5.84424">
        <ele>592.8</ele>
        <time>2021-08-22T14:36:34Z</time>
      </trkpt>
      <trkpt lat="45.69361" lon="5.84396">
        <ele>594</ele>
        <time>2021-08-22T14:36:36Z</time>
      </trkpt>
      <trkpt lat="45.69358" lon="5.84382">
        <ele>594.6</ele>
        <time>2021-08-22T14:36:37Z</time>
      </trkpt>
      <trkpt lat="45.69354" lon="5.84367">
        <ele>595.3</ele>
        <time>2021-08-22T14:36:38Z</time>
      </trkpt>
      <trkpt lat="45.69351" lon="5.84354">
        <ele>596</ele>
        <time>2021-08-22T14:36:39Z</time>
      </trkpt>
      <trkpt lat="45.69342" lon="5.8433">
        <ele>597.6</ele>
        <time>2021-08-22T14:36:41Z</time>
      </trkpt>
      <trkpt lat="45.69336" lon="5.84319">
        <ele>598.4</ele>
        <time>2021-08-22T14:36:42Z</time>
      </trkpt>
      <trkpt lat="45.69329" lon="5.84296">
        <ele>599</ele>
        <time>2021-08-22T14:36:44Z</time>
      </trkpt>
      <trkpt lat="45.69329" lon="5.84286">
        <ele>598.2</ele>
        <time>2021-08-22T14:36:45Z</time>
      </trkpt>
      <trkpt lat="45.69328" lon="5.84275">
        <ele>597.3</ele>
        <time>2021-08-22T14:36:46Z</time>
      </trkpt>
      <trkpt lat="45.69327" lon="5.84257">
        <ele>595.2</ele>
        <time>2021-08-22T14:36:48Z</time>
      </trkpt>
      <trkpt lat="45.69325" lon="5.84243">
        <ele>593.6</ele>
        <time>2021-08-22T14:36:50Z</time>
      </trkpt>
      <trkpt lat="45.69326" lon="5.84242">
        <ele>593.4</ele>
        <time>2021-08-22T14:36:51Z</time>
      </trkpt>
      <trkpt lat="45.69331" lon="5.84232">
        <ele>592.2</ele>
        <time>2021-08-22T14:36:53Z</time>
      </trkpt>
      <trkpt lat="45.69338" lon="5.84225">
        <ele>591.1</ele>
        <time>2021-08-22T14:36:54Z</time>
      </trkpt>
      <trkpt lat="45.69361" lon="5.84206">
        <ele>589</ele>
        <time>2021-08-22T14:36:56Z</time>
      </trkpt>
      <trkpt lat="45.69373" lon="5.84195">
        <ele>588.2</ele>
        <time>2021-08-22T14:36:57Z</time>
      </trkpt>
      <trkpt lat="45.69381" lon="5.84187">
        <ele>587.7</ele>
        <time>2021-08-22T14:36:59Z</time>
      </trkpt>
      <trkpt lat="45.69381" lon="5.84187">
        <ele>587.6</ele>
        <time>2021-08-22T14:37:00Z</time>
      </trkpt>
      <trkpt lat="45.69583" lon="5.84091">
        <ele>564.3</ele>
        <time>2021-08-22T14:39:26Z</time>
      </trkpt>
      <trkpt lat="45.69597" lon="5.84052">
        <ele>561.1</ele>
        <time>2021-08-22T14:39:28Z</time>
      </trkpt>
      <trkpt lat="45.69602" lon="5.84036">
        <ele>559.7</ele>
        <time>2021-08-22T14:39:29Z</time>
      </trkpt>
      <trkpt lat="45.6961" lon="5.84012">
        <ele>552.5</ele>
        <time>2021-08-22T14:39:31Z</time>
      </trkpt>
      <trkpt lat="45.69613" lon="5.84001">
        <ele>546.8</ele>
        <time>2021-08-22T14:39:32Z</time>
      </trkpt>
      <trkpt lat="45.69615" lon="5.83984">
        <ele>539.7</ele>
        <time>2021-08-22T14:39:34Z</time>
      </trkpt>
      <trkpt lat="45.69619" lon="5.83967">
        <ele>538.6</ele>
        <time>2021-08-22T14:39:36Z</time>
      </trkpt>
      <trkpt lat="45.69623" lon="5.83952">
        <ele>537.6</ele>
        <time>2021-08-22T14:39:38Z</time>
      </trkpt>
      <trkpt lat="45.69624" lon="5.83943">
        <ele>537.2</ele>
        <time>2021-08-22T14:39:39Z</time>
      </trkpt>
      <trkpt lat="45.69624" lon="5.83927">
        <ele>536.3</ele>
        <time>2021-08-22T14:39:41Z</time>
      </trkpt>
      <trkpt lat="45.69624" lon="5.83919">
        <ele>535.9</ele>
        <time>2021-08-22T14:39:42Z</time>
      </trkpt>
      <trkpt lat="45.69623" lon="5.83912">
        <ele>535.6</ele>
        <time>2021-08-22T14:39:43Z</time>
      </trkpt>
      <trkpt lat="45.69622" lon="5.83905">
        <ele>535.2</ele>
        <time>2021-08-22T14:39:44Z</time>
      </trkpt>
      <trkpt lat="45.69622" lon="5.83898">
        <ele>534.7</ele>
        <time>2021-08-22T14:39:45Z</time>
      </trkpt>
      <trkpt lat="45.69621" lon="5.83881">
        <ele>533.7</ele>
        <time>2021-08-22T14:39:47Z</time>
      </trkpt>
      <trkpt lat="45.69621" lon="5.83871">
        <ele>533.1</ele>
        <time>2021-08-22T14:39:48Z</time>
      </trkpt>
      <trkpt lat="45.69621" lon="5.83852">
        <ele>531.9</ele>
        <time>2021-08-22T14:39:50Z</time>
      </trkpt>
      <trkpt lat="45.69619" lon="5.83844">
        <ele>531.3</ele>
        <time>2021-08-22T14:39:51Z</time>
      </trkpt>
      <trkpt lat="45.69615" lon="5.83833">
        <ele>530.5</ele>
        <time>2021-08-22T14:39:53Z</time>
      </trkpt>
      <trkpt lat="45.69612" lon="5.83831">
        <ele>530.3</ele>
        <time>2021-08-22T14:39:54Z</time>
      </trkpt>
      <trkpt lat="45.69605" lon="5.83831">
        <ele>529.7</ele>
        <time>2021-08-22T14:39:56Z</time>
      </trkpt>
      <trkpt lat="45.69591" lon="5.83836">
        <ele>528.5</ele>
        <time>2021-08-22T14:39:58Z</time>
      </trkpt>
      <trkpt lat="45.69586" lon="5.83837">
        <ele>528.2</ele>
        <time>2021-08-22T14:39:59Z</time>
      </trkpt>
      <trkpt lat="45.6958" lon="5.83835">
        <ele>527.7</ele>
        <time>2021-08-22T14:40:00Z</time>
      </trkpt>
      <trkpt lat="45.69574" lon="5.83839">
        <ele>527.2</ele>
        <time>2021-08-22T14:40:01Z</time>
      </trkpt>
      <trkpt lat="45.69565" lon="5.83842">
        <ele>526.5</ele>
        <time>2021-08-22T14:40:03Z</time>
      </trkpt>
      <trkpt lat="45.69555" lon="5.83841">
        <ele>525.8</ele>
        <time>2021-08-22T14:40:04Z</time>
      </trkpt>
      <trkpt lat="45.69547" lon="5.83838">
        <ele>525.2</ele>
        <time>2021-08-22T14:40:06Z</time>
      </trkpt>
      <trkpt lat="45.69541" lon="5.83833">
        <ele>524.7</ele>
        <time>2021-08-22T14:40:07Z</time>
      </trkpt>
      <trkpt lat="45.69533" lon="5.83828">
        <ele>524</ele>
        <time>2021-08-22T14:40:08Z</time>
      </trkpt>
      <trkpt lat="45.69525" lon="5.83824">
        <ele>523.2</ele>
        <time>2021-08-22T14:40:10Z</time>
      </trkpt>
      <trkpt lat="45.69514" lon="5.83818">
        <ele>522.1</ele>
        <time>2021-08-22T14:40:12Z</time>
      </trkpt>
      <trkpt lat="45.695" lon="5.8381">
        <ele>520.8</ele>
        <time>2021-08-22T14:40:13Z</time>
      </trkpt>
      <trkpt lat="45.69494" lon="5.83807">
        <ele>520.1</ele>
        <time>2021-08-22T14:40:14Z</time>
      </trkpt>
      <trkpt lat="45.69488" lon="5.83803">
        <ele>519.5</ele>
        <time>2021-08-22T14:40:15Z</time>
      </trkpt>
      <trkpt lat="45.69486" lon="5.83801">
        <ele>519.3</ele>
        <time>2021-08-22T14:40:16Z</time>
      </trkpt>
      <trkpt lat="45.6948" lon="5.83799">
        <ele>518.8</ele>
        <time>2021-08-22T14:40:18Z</time>
      </trkpt>
      <trkpt lat="45.69474" lon="5.83796">
        <ele>518.2</ele>
        <time>2021-08-22T14:40:19Z</time>
      </trkpt>
      <trkpt lat="45.69469" lon="5.83794">
        <ele>517.7</ele>
        <time>2021-08-22T14:40:20Z</time>
      </trkpt>
      <trkpt lat="45.69464" lon="5.83794">
        <ele>517.2</ele>
        <time>2021-08-22T14:40:21Z</time>
      </trkpt>
      <trkpt lat="45.69458" lon="5.83795">
        <ele>516.7</ele>
        <time>2021-08-22T14:40:22Z</time>
      </trkpt>
      <trkpt lat="45.69452" lon="5.83797">
        <ele>516.1</ele>
        <time>2021-08-22T14:40:24Z</time>
      </trkpt>
      <trkpt lat="45.69444" lon="5.838">
        <ele>515.3</ele>
        <time>2021-08-22T14:40:26Z</time>
      </trkpt>
      <trkpt lat="45.69438" lon="5.83802">
        <ele>514.8</ele>
        <time>2021-08-22T14:40:27Z</time>
      </trkpt>
      <trkpt lat="45.69432" lon="5.83803">
        <ele>514.1</ele>
        <time>2021-08-22T14:40:28Z</time>
      </trkpt>
      <trkpt lat="45.69426" lon="5.83802">
        <ele>513.7</ele>
        <time>2021-08-22T14:40:29Z</time>
      </trkpt>
      <trkpt lat="45.69422" lon="5.83801">
        <ele>513.2</ele>
        <time>2021-08-22T14:40:30Z</time>
      </trkpt>
      <trkpt lat="45.69418" lon="5.83799">
        <ele>512.9</ele>
        <time>2021-08-22T14:40:31Z</time>
      </trkpt>
      <trkpt lat="45.69414" lon="5.83797">
        <ele>512.5</ele>
        <time>2021-08-22T14:40:33Z</time>
      </trkpt>
      <trkpt lat="45.69412" lon="5.83795">
        <ele>512.3</ele>
        <time>2021-08-22T14:40:34Z</time>
      </trkpt>
      <trkpt lat="45.69409" lon="5.83791">
        <ele>511.9</ele>
        <time>2021-08-22T14:40:35Z</time>
      </trkpt>
      <trkpt lat="45.69407" lon="5.83788">
        <ele>511.6</ele>
        <time>2021-08-22T14:40:36Z</time>
      </trkpt>
      <trkpt lat="45.69403" lon="5.83782">
        <ele>511.2</ele>
        <time>2021-08-22T14:40:38Z</time>
      </trkpt>
      <trkpt lat="45.69399" lon="5.83773">
        <ele>510.6</ele>
        <time>2021-08-22T14:40:39Z</time>
      </trkpt>
      <trkpt lat="45.69396" lon="5.83766">
        <ele>510.1</ele>
        <time>2021-08-22T14:40:40Z</time>
      </trkpt>
      <trkpt lat="45.69386" lon="5.83749">
        <ele>508.6</ele>
        <time>2021-08-22T14:40:42Z</time>
      </trkpt>
      <trkpt lat="45.69384" lon="5.83745">
        <ele>508.3</ele>
        <time>2021-08-22T14:40:43Z</time>
      </trkpt>
      <trkpt lat="45.69378" lon="5.83735">
        <ele>507.5</ele>
        <time>2021-08-22T14:40:45Z</time>
      </trkpt>
      <trkpt lat="45.69373" lon="5.83731">
        <ele>507</ele>
        <time>2021-08-22T14:40:46Z</time>
      </trkpt>
      <trkpt lat="45.69369" lon="5.83727">
        <ele>506.5</ele>
        <time>2021-08-22T14:40:48Z</time>
      </trkpt>
      <trkpt lat="45.69361" lon="5.83716">
        <ele>505.4</ele>
        <time>2021-08-22T14:40:49Z</time>
      </trkpt>
      <trkpt lat="45.69355" lon="5.83707">
        <ele>504.5</ele>
        <time>2021-08-22T14:40:50Z</time>
      </trkpt>
      <trkpt lat="45.69345" lon="5.83697">
        <ele>503.4</ele>
        <time>2021-08-22T14:40:51Z</time>
      </trkpt>
      <trkpt lat="45.69335" lon="5.83688">
        <ele>502.4</ele>
        <time>2021-08-22T14:40:52Z</time>
      </trkpt>
      <trkpt lat="45.69279" lon="5.83647">
        <ele>498.5</ele>
        <time>2021-08-22T14:40:57Z</time>
      </trkpt>
      <trkpt lat="45.69268" lon="5.83638">
        <ele>497.5</ele>
        <time>2021-08-22T14:40:58Z</time>
      </trkpt>
      <trkpt lat="45.69251" lon="5.83624">
        <ele>495.8</ele>
        <time>2021-08-22T14:41:00Z</time>
      </trkpt>
      <trkpt lat="45.69236" lon="5.83615">
        <ele>494.3</ele>
        <time>2021-08-22T14:41:02Z</time>
      </trkpt>
      <trkpt lat="45.69215" lon="5.83601">
        <ele>492.2</ele>
        <time>2021-08-22T14:41:04Z</time>
      </trkpt>
      <trkpt lat="45.69199" lon="5.83595">
        <ele>490.8</ele>
        <time>2021-08-22T14:41:06Z</time>
      </trkpt>
      <trkpt lat="45.69194" lon="5.83592">
        <ele>490.2</ele>
        <time>2021-08-22T14:41:07Z</time>
      </trkpt>
      <trkpt lat="45.69186" lon="5.83586">
        <ele>489.4</ele>
        <time>2021-08-22T14:41:09Z</time>
      </trkpt>
      <trkpt lat="45.69182" lon="5.83583">
        <ele>489</ele>
        <time>2021-08-22T14:41:11Z</time>
      </trkpt>
      <trkpt lat="45.6918" lon="5.83579">
        <ele>488.7</ele>
        <time>2021-08-22T14:41:12Z</time>
      </trkpt>
      <trkpt lat="45.69179" lon="5.83578">
        <ele>488.6</ele>
        <time>2021-08-22T14:41:13Z</time>
      </trkpt>
      <trkpt lat="45.69175" lon="5.83573">
        <ele>488.2</ele>
        <time>2021-08-22T14:41:15Z</time>
      </trkpt>
      <trkpt lat="45.69172" lon="5.83569">
        <ele>487.9</ele>
        <time>2021-08-22T14:41:16Z</time>
      </trkpt>
      <trkpt lat="45.69169" lon="5.83568">
        <ele>487.5</ele>
        <time>2021-08-22T14:41:18Z</time>
      </trkpt>
      <trkpt lat="45.69167" lon="5.83567">
        <ele>487.4</ele>
        <time>2021-08-22T14:41:19Z</time>
      </trkpt>
      <trkpt lat="45.69162" lon="5.83571">
        <ele>487</ele>
        <time>2021-08-22T14:41:21Z</time>
      </trkpt>
      <trkpt lat="45.69155" lon="5.83573">
        <ele>486.4</ele>
        <time>2021-08-22T14:41:22Z</time>
      </trkpt>
      <trkpt lat="45.69151" lon="5.83571">
        <ele>486.1</ele>
        <time>2021-08-22T14:41:24Z</time>
      </trkpt>
      <trkpt lat="45.69147" lon="5.83566">
        <ele>485.6</ele>
        <time>2021-08-22T14:41:26Z</time>
      </trkpt>
      <trkpt lat="45.6914" lon="5.83563">
        <ele>485.1</ele>
        <time>2021-08-22T14:41:28Z</time>
      </trkpt>
      <trkpt lat="45.69136" lon="5.83562">
        <ele>484.8</ele>
        <time>2021-08-22T14:41:29Z</time>
      </trkpt>
      <trkpt lat="45.69135" lon="5.83561">
        <ele>483.6</ele>
        <time>2021-08-22T14:41:30Z</time>
      </trkpt>
      <trkpt lat="45.69132" lon="5.83559">
        <ele>483.2</ele>
        <time>2021-08-22T14:41:32Z</time>
      </trkpt>
      <trkpt lat="45.69126" lon="5.83557">
        <ele>482.6</ele>
        <time>2021-08-22T14:41:34Z</time>
      </trkpt>
      <trkpt lat="45.69124" lon="5.83556">
        <ele>482.4</ele>
        <time>2021-08-22T14:41:35Z</time>
      </trkpt>
      <trkpt lat="45.69123" lon="5.83555">
        <ele>482.3</ele>
        <time>2021-08-22T14:41:36Z</time>
      </trkpt>
      <trkpt lat="45.69121" lon="5.83553">
        <ele>482</ele>
        <time>2021-08-22T14:41:38Z</time>
      </trkpt>
      <trkpt lat="45.69118" lon="5.83551">
        <ele>481.6</ele>
        <time>2021-08-22T14:41:39Z</time>
      </trkpt>
      <trkpt lat="45.69115" lon="5.83549">
        <ele>481.3</ele>
        <time>2021-08-22T14:41:41Z</time>
      </trkpt>
      <trkpt lat="45.69115" lon="5.83548">
        <ele>481.2</ele>
        <time>2021-08-22T14:41:42Z</time>
      </trkpt>
      <trkpt lat="45.69113" lon="5.83546">
        <ele>480.8</ele>
        <time>2021-08-22T14:41:43Z</time>
      </trkpt>
      <trkpt lat="45.69112" lon="5.83542">
        <ele>480.3</ele>
        <time>2021-08-22T14:41:45Z</time>
      </trkpt>
      <trkpt lat="45.69111" lon="5.83541">
        <ele>480.2</ele>
        <time>2021-08-22T14:41:46Z</time>
      </trkpt>
      <trkpt lat="45.69091" lon="5.8351">
        <ele>474.4</ele>
        <time>2021-08-22T14:42:01Z</time>
      </trkpt>
      <trkpt lat="45.69081" lon="5.83506">
        <ele>472.4</ele>
        <time>2021-08-22T14:42:03Z</time>
      </trkpt>
      <trkpt lat="45.69077" lon="5.83506">
        <ele>471.8</ele>
        <time>2021-08-22T14:42:04Z</time>
      </trkpt>
      <trkpt lat="45.69068" lon="5.83505">
        <ele>470.2</ele>
        <time>2021-08-22T14:42:06Z</time>
      </trkpt>
      <trkpt lat="45.69064" lon="5.83505">
        <ele>469.5</ele>
        <time>2021-08-22T14:42:08Z</time>
      </trkpt>
      <trkpt lat="45.69062" lon="5.83506">
        <ele>469.1</ele>
        <time>2021-08-22T14:42:09Z</time>
      </trkpt>
      <trkpt lat="45.69057" lon="5.83506">
        <ele>468.2</ele>
        <time>2021-08-22T14:42:10Z</time>
      </trkpt>
      <trkpt lat="45.69053" lon="5.83507">
        <ele>467.4</ele>
        <time>2021-08-22T14:42:12Z</time>
      </trkpt>
      <trkpt lat="45.69048" lon="5.83507">
        <ele>466.4</ele>
        <time>2021-08-22T14:42:13Z</time>
      </trkpt>
      <trkpt lat="45.69044" lon="5.83506">
        <ele>465.7</ele>
        <time>2021-08-22T14:42:14Z</time>
      </trkpt>
      <trkpt lat="45.69041" lon="5.83504">
        <ele>465</ele>
        <time>2021-08-22T14:42:15Z</time>
      </trkpt>
      <trkpt lat="45.69038" lon="5.835">
        <ele>464.2</ele>
        <time>2021-08-22T14:42:16Z</time>
      </trkpt>
      <trkpt lat="45.69038" lon="5.83497">
        <ele>463.9</ele>
        <time>2021-08-22T14:42:27Z</time>
      </trkpt>
      <trkpt lat="45.69038" lon="5.83495">
        <ele>463.6</ele>
        <time>2021-08-22T14:42:28Z</time>
      </trkpt>
      <trkpt lat="45.69034" lon="5.83492">
        <ele>462.8</ele>
        <time>2021-08-22T14:42:29Z</time>
      </trkpt>
      <trkpt lat="45.69028" lon="5.83488">
        <ele>461.4</ele>
        <time>2021-08-22T14:42:31Z</time>
      </trkpt>
      <trkpt lat="45.69023" lon="5.83485">
        <ele>460.5</ele>
        <time>2021-08-22T14:42:32Z</time>
      </trkpt>
      <trkpt lat="45.69016" lon="5.83483">
        <ele>459.4</ele>
        <time>2021-08-22T14:42:33Z</time>
      </trkpt>
      <trkpt lat="45.69011" lon="5.83479">
        <ele>458.6</ele>
        <time>2021-08-22T14:42:34Z</time>
      </trkpt>
      <trkpt lat="45.69001" lon="5.83469">
        <ele>456.9</ele>
        <time>2021-08-22T14:42:36Z</time>
      </trkpt>
      <trkpt lat="45.68995" lon="5.83466">
        <ele>456.1</ele>
        <time>2021-08-22T14:42:37Z</time>
      </trkpt>
      <trkpt lat="45.68986" lon="5.8346">
        <ele>454.6</ele>
        <time>2021-08-22T14:42:39Z</time>
      </trkpt>
      <trkpt lat="45.68983" lon="5.83458">
        <ele>454</ele>
        <time>2021-08-22T14:42:40Z</time>
      </trkpt>
      <trkpt lat="45.68979" lon="5.83453">
        <ele>453.2</ele>
        <time>2021-08-22T14:42:41Z</time>
      </trkpt>
      <trkpt lat="45.68975" lon="5.83447">
        <ele>452.2</ele>
        <time>2021-08-22T14:42:42Z</time>
      </trkpt>
      <trkpt lat="45.6897" lon="5.83437">
        <ele>450.6</ele>
        <time>2021-08-22T14:42:45Z</time>
      </trkpt>
      <trkpt lat="45.68968" lon="5.83431">
        <ele>449.7</ele>
        <time>2021-08-22T14:42:46Z</time>
      </trkpt>
      <trkpt lat="45.68966" lon="5.83426">
        <ele>448.8</ele>
        <time>2021-08-22T14:42:47Z</time>
      </trkpt>
      <trkpt lat="45.68963" lon="5.83421">
        <ele>447.8</ele>
        <time>2021-08-22T14:42:48Z</time>
      </trkpt>
      <trkpt lat="45.68961" lon="5.83417">
        <ele>447.2</ele>
        <time>2021-08-22T14:42:50Z</time>
      </trkpt>
      <trkpt lat="45.6896" lon="5.83414">
        <ele>446.7</ele>
        <time>2021-08-22T14:42:51Z</time>
      </trkpt>
      <trkpt lat="45.68958" lon="5.83412">
        <ele>446.3</ele>
        <time>2021-08-22T14:42:53Z</time>
      </trkpt>
      <trkpt lat="45.68956" lon="5.83408">
        <ele>445.6</ele>
        <time>2021-08-22T14:42:54Z</time>
      </trkpt>
      <trkpt lat="45.68955" lon="5.83406">
        <ele>445.2</ele>
        <time>2021-08-22T14:42:55Z</time>
      </trkpt>
      <trkpt lat="45.68954" lon="5.83399">
        <ele>444.3</ele>
        <time>2021-08-22T14:42:57Z</time>
      </trkpt>
      <trkpt lat="45.68953" lon="5.83394">
        <ele>443.5</ele>
        <time>2021-08-22T14:42:58Z</time>
      </trkpt>
      <trkpt lat="45.68951" lon="5.83387">
        <ele>442.5</ele>
        <time>2021-08-22T14:42:59Z</time>
      </trkpt>
      <trkpt lat="45.68949" lon="5.8338">
        <ele>441.5</ele>
        <time>2021-08-22T14:43:00Z</time>
      </trkpt>
      <trkpt lat="45.68946" lon="5.83366">
        <ele>439.3</ele>
        <time>2021-08-22T14:43:01Z</time>
      </trkpt>
      <trkpt lat="45.68942" lon="5.83348">
        <ele>436.5</ele>
        <time>2021-08-22T14:43:03Z</time>
      </trkpt>
      <trkpt lat="45.68939" lon="5.83339">
        <ele>435.2</ele>
        <time>2021-08-22T14:43:04Z</time>
      </trkpt>
      <trkpt lat="45.68933" lon="5.83321">
        <ele>432.5</ele>
        <time>2021-08-22T14:43:06Z</time>
      </trkpt>
      <trkpt lat="45.6893" lon="5.83311">
        <ele>431.1</ele>
        <time>2021-08-22T14:43:07Z</time>
      </trkpt>
      <trkpt lat="45.68924" lon="5.83291">
        <ele>428.2</ele>
        <time>2021-08-22T14:43:09Z</time>
      </trkpt>
      <trkpt lat="45.68916" lon="5.8327">
        <ele>424.9</ele>
        <time>2021-08-22T14:43:11Z</time>
      </trkpt>
      <trkpt lat="45.68912" lon="5.83259">
        <ele>423.2</ele>
        <time>2021-08-22T14:43:12Z</time>
      </trkpt>
      <trkpt lat="45.68902" lon="5.83233">
        <ele>419.4</ele>
        <time>2021-08-22T14:43:14Z</time>
      </trkpt>
      <trkpt lat="45.68895" lon="5.83209">
        <ele>416.3</ele>
        <time>2021-08-22T14:43:16Z</time>
      </trkpt>
      <trkpt lat="45.68893" lon="5.83199">
        <ele>414.6</ele>
        <time>2021-08-22T14:43:17Z</time>
      </trkpt>
      <trkpt lat="45.68891" lon="5.83188">
        <ele>413</ele>
        <time>2021-08-22T14:43:18Z</time>
      </trkpt>
      <trkpt lat="45.68885" lon="5.83167">
        <ele>410</ele>
        <time>2021-08-22T14:43:20Z</time>
      </trkpt>
      <trkpt lat="45.68882" lon="5.83155">
        <ele>408.6</ele>
        <time>2021-08-22T14:43:21Z</time>
      </trkpt>
      <trkpt lat="45.68876" lon="5.8313">
        <ele>406.3</ele>
        <time>2021-08-22T14:43:23Z</time>
      </trkpt>
      <trkpt lat="45.68872" lon="5.83119">
        <ele>405.5</ele>
        <time>2021-08-22T14:43:24Z</time>
      </trkpt>
      <trkpt lat="45.68869" lon="5.83109">
        <ele>404.8</ele>
        <time>2021-08-22T14:43:25Z</time>
      </trkpt>
      <trkpt lat="45.68865" lon="5.83099">
        <ele>404.2</ele>
        <time>2021-08-22T14:43:26Z</time>
      </trkpt>
      <trkpt lat="45.68862" lon="5.83082">
        <ele>403</ele>
        <time>2021-08-22T14:43:28Z</time>
      </trkpt>
      <trkpt lat="45.6886" lon="5.83067">
        <ele>401.9</ele>
        <time>2021-08-22T14:43:30Z</time>
      </trkpt>
      <trkpt lat="45.68859" lon="5.83051">
        <ele>400.8</ele>
        <time>2021-08-22T14:43:32Z</time>
      </trkpt>
      <trkpt lat="45.68858" lon="5.83043">
        <ele>400.3</ele>
        <time>2021-08-22T14:43:33Z</time>
      </trkpt>
      <trkpt lat="45.68856" lon="5.83028">
        <ele>399.3</ele>
        <time>2021-08-22T14:43:35Z</time>
      </trkpt>
      <trkpt lat="45.68853" lon="5.83021">
        <ele>398.7</ele>
        <time>2021-08-22T14:43:36Z</time>
      </trkpt>
      <trkpt lat="45.6885" lon="5.83009">
        <ele>397.8</ele>
        <time>2021-08-22T14:43:38Z</time>
      </trkpt>
      <trkpt lat="45.68849" lon="5.83">
        <ele>397.2</ele>
        <time>2021-08-22T14:43:39Z</time>
      </trkpt>
      <trkpt lat="45.68848" lon="5.8298">
        <ele>395.8</ele>
        <time>2021-08-22T14:43:41Z</time>
      </trkpt>
      <trkpt lat="45.68847" lon="5.8297">
        <ele>395</ele>
        <time>2021-08-22T14:43:42Z</time>
      </trkpt>
      <trkpt lat="45.68846" lon="5.82959">
        <ele>394.2</ele>
        <time>2021-08-22T14:43:43Z</time>
      </trkpt>
      <trkpt lat="45.68846" lon="5.82947">
        <ele>393.3</ele>
        <time>2021-08-22T14:43:44Z</time>
      </trkpt>
      <trkpt lat="45.68843" lon="5.82924">
        <ele>391.5</ele>
        <time>2021-08-22T14:43:46Z</time>
      </trkpt>
      <trkpt lat="45.68841" lon="5.82911">
        <ele>390.6</ele>
        <time>2021-08-22T14:43:47Z</time>
      </trkpt>
      <trkpt lat="45.68841" lon="5.82898">
        <ele>389.8</ele>
        <time>2021-08-22T14:43:48Z</time>
      </trkpt>
      <trkpt lat="45.68842" lon="5.82873">
        <ele>388.4</ele>
        <time>2021-08-22T14:43:50Z</time>
      </trkpt>
      <trkpt lat="45.68845" lon="5.82852">
        <ele>387.3</ele>
        <time>2021-08-22T14:43:52Z</time>
      </trkpt>
      <trkpt lat="45.68846" lon="5.8284">
        <ele>386.7</ele>
        <time>2021-08-22T14:43:53Z</time>
      </trkpt>
      <trkpt lat="45.68847" lon="5.82828">
        <ele>386</ele>
        <time>2021-08-22T14:43:54Z</time>
      </trkpt>
      <trkpt lat="45.68849" lon="5.82802">
        <ele>384.6</ele>
        <time>2021-08-22T14:43:56Z</time>
      </trkpt>
      <trkpt lat="45.68849" lon="5.82777">
        <ele>382.9</ele>
        <time>2021-08-22T14:43:58Z</time>
      </trkpt>
      <trkpt lat="45.6885" lon="5.82751">
        <ele>380.8</ele>
        <time>2021-08-22T14:44:00Z</time>
      </trkpt>
      <trkpt lat="45.68852" lon="5.82727">
        <ele>378.7</ele>
        <time>2021-08-22T14:44:02Z</time>
      </trkpt>
      <trkpt lat="45.68854" lon="5.82706">
        <ele>376.8</ele>
        <time>2021-08-22T14:44:04Z</time>
      </trkpt>
      <trkpt lat="45.68855" lon="5.82696">
        <ele>375.8</ele>
        <time>2021-08-22T14:44:05Z</time>
      </trkpt>
      <trkpt lat="45.68856" lon="5.82685">
        <ele>374.9</ele>
        <time>2021-08-22T14:44:06Z</time>
      </trkpt>
      <trkpt lat="45.68858" lon="5.82673">
        <ele>373.8</ele>
        <time>2021-08-22T14:44:07Z</time>
      </trkpt>
      <trkpt lat="45.6886" lon="5.82648">
        <ele>371.5</ele>
        <time>2021-08-22T14:44:09Z</time>
      </trkpt>
      <trkpt lat="45.68861" lon="5.82623">
        <ele>369</ele>
        <time>2021-08-22T14:44:11Z</time>
      </trkpt>
      <trkpt lat="45.68861" lon="5.8261">
        <ele>367.8</ele>
        <time>2021-08-22T14:44:12Z</time>
      </trkpt>
      <trkpt lat="45.68865" lon="5.82586">
        <ele>365.3</ele>
        <time>2021-08-22T14:44:14Z</time>
      </trkpt>
      <trkpt lat="45.68868" lon="5.82573">
        <ele>364.2</ele>
        <time>2021-08-22T14:44:15Z</time>
      </trkpt>
      <trkpt lat="45.6887" lon="5.82559">
        <ele>363.1</ele>
        <time>2021-08-22T14:44:16Z</time>
      </trkpt>
      <trkpt lat="45.68875" lon="5.82534">
        <ele>361.3</ele>
        <time>2021-08-22T14:44:18Z</time>
      </trkpt>
      <trkpt lat="45.68879" lon="5.82513">
        <ele>359.9</ele>
        <time>2021-08-22T14:44:20Z</time>
      </trkpt>
      <trkpt lat="45.6888" lon="5.82504">
        <ele>359.4</ele>
        <time>2021-08-22T14:44:21Z</time>
      </trkpt>
      <trkpt lat="45.68882" lon="5.8249">
        <ele>358.7</ele>
        <time>2021-08-22T14:44:23Z</time>
      </trkpt>
      <trkpt lat="45.6888" lon="5.82479">
        <ele>358.1</ele>
        <time>2021-08-22T14:44:25Z</time>
      </trkpt>
      <trkpt lat="45.68881" lon="5.82465">
        <ele>357.4</ele>
        <time>2021-08-22T14:44:27Z</time>
      </trkpt>
      <trkpt lat="45.68884" lon="5.8245">
        <ele>356.6</ele>
        <time>2021-08-22T14:44:29Z</time>
      </trkpt>
      <trkpt lat="45.68886" lon="5.82442">
        <ele>356</ele>
        <time>2021-08-22T14:44:30Z</time>
      </trkpt>
      <trkpt lat="45.68886" lon="5.82423">
        <ele>354.9</ele>
        <time>2021-08-22T14:44:32Z</time>
      </trkpt>
      <trkpt lat="45.68879" lon="5.82407">
        <ele>353.8</ele>
        <time>2021-08-22T14:44:34Z</time>
      </trkpt>
      <trkpt lat="45.68874" lon="5.82399">
        <ele>353.1</ele>
        <time>2021-08-22T14:44:35Z</time>
      </trkpt>
      <trkpt lat="45.68869" lon="5.82391">
        <ele>352.6</ele>
        <time>2021-08-22T14:44:36Z</time>
      </trkpt>
      <trkpt lat="45.68866" lon="5.82384">
        <ele>352.1</ele>
        <time>2021-08-22T14:44:37Z</time>
      </trkpt>
      <trkpt lat="45.68864" lon="5.82377">
        <ele>351.7</ele>
        <time>2021-08-22T14:44:38Z</time>
      </trkpt>
      <trkpt lat="45.68862" lon="5.8237">
        <ele>351.4</ele>
        <time>2021-08-22T14:44:39Z</time>
      </trkpt>
      <trkpt lat="45.68857" lon="5.82355">
        <ele>350.6</ele>
        <time>2021-08-22T14:44:41Z</time>
      </trkpt>
      <trkpt lat="45.68851" lon="5.82342">
        <ele>351.4</ele>
        <time>2021-08-22T14:44:43Z</time>
      </trkpt>
      <trkpt lat="45.68848" lon="5.82336">
        <ele>351.8</ele>
        <time>2021-08-22T14:44:44Z</time>
      </trkpt>
      <trkpt lat="45.68845" lon="5.8233">
        <ele>352.2</ele>
        <time>2021-08-22T14:44:45Z</time>
      </trkpt>
      <trkpt lat="45.6884" lon="5.8232">
        <ele>352.9</ele>
        <time>2021-08-22T14:44:47Z</time>
      </trkpt>
      <trkpt lat="45.68838" lon="5.82317">
        <ele>353.1</ele>
        <time>2021-08-22T14:44:48Z</time>
      </trkpt>
      <trkpt lat="45.68836" lon="5.82311">
        <ele>353.4</ele>
        <time>2021-08-22T14:44:50Z</time>
      </trkpt>
      <trkpt lat="45.68837" lon="5.82306">
        <ele>353.6</ele>
        <time>2021-08-22T14:44:51Z</time>
      </trkpt>
      <trkpt lat="45.68837" lon="5.82298">
        <ele>354.1</ele>
        <time>2021-08-22T14:44:53Z</time>
      </trkpt>
      <trkpt lat="45.68836" lon="5.82294">
        <ele>354.2</ele>
        <time>2021-08-22T14:44:54Z</time>
      </trkpt>
      <trkpt lat="45.68838" lon="5.82287">
        <ele>354.6</ele>
        <time>2021-08-22T14:44:56Z</time>
      </trkpt>
      <trkpt lat="45.68839" lon="5.8228">
        <ele>354.6</ele>
        <time>2021-08-22T14:44:58Z</time>
      </trkpt>
      <trkpt lat="45.68841" lon="5.82275">
        <ele>354.6</ele>
        <time>2021-08-22T14:45:00Z</time>
      </trkpt>
      <trkpt lat="45.68845" lon="5.82272">
        <ele>354.6</ele>
        <time>2021-08-22T14:45:02Z</time>
      </trkpt>
      <trkpt lat="45.68846" lon="5.82271">
        <ele>354.6</ele>
        <time>2021-08-22T14:45:03Z</time>
      </trkpt>
      <trkpt lat="45.68847" lon="5.8227">
        <ele>354.6</ele>
        <time>2021-08-22T14:45:05Z</time>
      </trkpt>
      <trkpt lat="45.68848" lon="5.8227">
        <ele>354.6</ele>
        <time>2021-08-22T14:45:06Z</time>
      </trkpt>
      <trkpt lat="45.68848" lon="5.8227">
        <ele>354.6</ele>
        <time>2021-08-22T14:45:07Z</time>
      </trkpt>
      <trkpt lat="45.68849" lon="5.8227">
        <ele>354.6</ele>
        <time>2021-08-22T14:45:08Z</time>
      </trkpt>
      <trkpt lat="45.68849" lon="5.82269">
        <ele>354.6</ele>
        <time>2021-08-22T14:45:09Z</time>
      </trkpt>
      <trkpt lat="45.68849" lon="5.82265">
        <ele>354.6</ele>
        <time>2021-08-22T14:45:11Z</time>
      </trkpt>
      <trkpt lat="45.68851" lon="5.82264">
        <ele>354.6</ele>
        <time>2021-08-22T14:45:12Z</time>
      </trkpt>
      <trkpt lat="45.68852" lon="5.82264">
        <ele>354.6</ele>
        <time>2021-08-22T14:45:13Z</time>
      </trkpt>
      <trkpt lat="45.68854" lon="5.82265">
        <ele>354.6</ele>
        <time>2021-08-22T14:45:14Z</time>
      </trkpt>
      <trkpt lat="45.68858" lon="5.82265">
        <ele>354.7</ele>
        <time>2021-08-22T14:45:16Z</time>
      </trkpt>
      <trkpt lat="45.68858" lon="5.82265">
        <ele>354.7</ele>
        <time>2021-08-22T14:45:17Z</time>
      </trkpt>
      <trkpt lat="45.68858" lon="5.82265">
        <ele>354.7</ele>
        <time>2021-08-22T14:45:18Z</time>
      </trkpt>
      <trkpt lat="45.68857" lon="5.82264">
        <ele>354.7</ele>
        <time>2021-08-22T14:45:19Z</time>
      </trkpt>
      <trkpt lat="45.68856" lon="5.82264">
        <ele>354.7</ele>
        <time>2021-08-22T14:45:21Z</time>
      </trkpt>
      <trkpt lat="45.68856" lon="5.82263">
        <ele>354.7</ele>
        <time>2021-08-22T14:45:22Z</time>
      </trkpt>
      <trkpt lat="45.68854" lon="5.82263">
        <ele>354.7</ele>
        <time>2021-08-22T14:45:23Z</time>
      </trkpt>
      <trkpt lat="45.68852" lon="5.8227">
        <ele>354.7</ele>
        <time>2021-08-22T14:45:24Z</time>
      </trkpt>
      <trkpt lat="45.68851" lon="5.82277">
        <ele>354.7</ele>
        <time>2021-08-22T14:45:26Z</time>
      </trkpt>
      <trkpt lat="45.6885" lon="5.82283">
        <ele>354.6</ele>
        <time>2021-08-22T14:45:28Z</time>
      </trkpt>
      <trkpt lat="45.68849" lon="5.8229">
        <ele>354.5</ele>
        <time>2021-08-22T14:46:05Z</time>
      </trkpt>
      <trkpt lat="45.68848" lon="5.82297">
        <ele>354.1</ele>
        <time>2021-08-22T14:46:06Z</time>
      </trkpt>
      <trkpt lat="45.68847" lon="5.82304">
        <ele>353.8</ele>
        <time>2021-08-22T14:46:07Z</time>
      </trkpt>
      <trkpt lat="45.68848" lon="5.82308">
        <ele>353.8</ele>
        <time>2021-08-22T14:46:09Z</time>
      </trkpt>
      <trkpt lat="45.68848" lon="5.8231">
        <ele>353.8</ele>
        <time>2021-08-22T14:46:10Z</time>
      </trkpt>
      <trkpt lat="45.68847" lon="5.82309">
        <ele>353.8</ele>
        <time>2021-08-22T14:46:12Z</time>
      </trkpt>
      <trkpt lat="45.68845" lon="5.82303">
        <ele>353.9</ele>
        <time>2021-08-22T14:46:14Z</time>
      </trkpt>
      <trkpt lat="45.68844" lon="5.82301">
        <ele>353.9</ele>
        <time>2021-08-22T14:46:15Z</time>
      </trkpt>
      <trkpt lat="45.68843" lon="5.823">
        <ele>354</ele>
        <time>2021-08-22T14:46:17Z</time>
      </trkpt>
      <trkpt lat="45.68849" lon="5.82258">
        <ele>354.9</ele>
        <time>2021-08-22T14:46:23Z</time>
      </trkpt>
      <trkpt lat="45.68849" lon="5.82253">
        <ele>355</ele>
        <time>2021-08-22T14:46:24Z</time>
      </trkpt>
      <trkpt lat="45.68849" lon="5.82252">
        <ele>355</ele>
        <time>2021-08-22T14:46:25Z</time>
      </trkpt>
      <trkpt lat="45.68851" lon="5.82246">
        <ele>355.2</ele>
        <time>2021-08-22T14:46:27Z</time>
      </trkpt>
      <trkpt lat="45.68852" lon="5.8224">
        <ele>355.4</ele>
        <time>2021-08-22T14:46:29Z</time>
      </trkpt>
      <trkpt lat="45.68855" lon="5.82233">
        <ele>355.7</ele>
        <time>2021-08-22T14:46:30Z</time>
      </trkpt>
      <trkpt lat="45.68857" lon="5.82228">
        <ele>355</ele>
        <time>2021-08-22T14:46:32Z</time>
      </trkpt>
      <trkpt lat="45.68858" lon="5.82223">
        <ele>355</ele>
        <time>2021-08-22T14:46:33Z</time>
      </trkpt>
      <trkpt lat="45.68859" lon="5.82219">
        <ele>354.4</ele>
        <time>2021-08-22T14:46:34Z</time>
      </trkpt>
      <trkpt lat="45.6886" lon="5.82215">
        <ele>354.3</ele>
        <time>2021-08-22T14:46:35Z</time>
      </trkpt>
      <trkpt lat="45.68861" lon="5.82212">
        <ele>354.1</ele>
        <time>2021-08-22T14:46:37Z</time>
      </trkpt>
      <trkpt lat="45.68862" lon="5.82208">
        <ele>353.5</ele>
        <time>2021-08-22T14:46:38Z</time>
      </trkpt>
      <trkpt lat="45.68863" lon="5.82206">
        <ele>353.4</ele>
        <time>2021-08-22T14:46:40Z</time>
      </trkpt>
      <trkpt lat="45.68863" lon="5.82206">
        <ele>353.2</ele>
        <time>2021-08-22T14:46:41Z</time>
      </trkpt>
      <trkpt lat="45.68863" lon="5.82205">
        <ele>353</ele>
        <time>2021-08-22T14:46:42Z</time>
      </trkpt>
      <trkpt lat="45.68865" lon="5.82204">
        <ele>352.4</ele>
        <time>2021-08-22T14:46:44Z</time>
      </trkpt>
      <trkpt lat="45.68866" lon="5.82204">
        <ele>352.2</ele>
        <time>2021-08-22T14:46:45Z</time>
      </trkpt>
      <trkpt lat="45.68878" lon="5.82209">
        <ele>350.1</ele>
        <time>2021-08-22T14:46:48Z</time>
      </trkpt>
      <trkpt lat="45.68882" lon="5.82212">
        <ele>349.4</ele>
        <time>2021-08-22T14:46:49Z</time>
      </trkpt>
      <trkpt lat="45.68886" lon="5.82215">
        <ele>348.3</ele>
        <time>2021-08-22T14:46:50Z</time>
      </trkpt>
      <trkpt lat="45.68891" lon="5.82221">
        <ele>347.7</ele>
        <time>2021-08-22T14:46:51Z</time>
      </trkpt>
      <trkpt lat="45.68895" lon="5.82226">
        <ele>346.7</ele>
        <time>2021-08-22T14:46:53Z</time>
      </trkpt>
      <trkpt lat="45.68899" lon="5.82229">
        <ele>346.2</ele>
        <time>2021-08-22T14:46:54Z</time>
      </trkpt>
      <trkpt lat="45.68903" lon="5.82233">
        <ele>345.8</ele>
        <time>2021-08-22T14:46:55Z</time>
      </trkpt>
      <trkpt lat="45.68907" lon="5.82238">
        <ele>345.1</ele>
        <time>2021-08-22T14:46:56Z</time>
      </trkpt>
      <trkpt lat="45.68911" lon="5.82242">
        <ele>344.7</ele>
        <time>2021-08-22T14:46:57Z</time>
      </trkpt>
      <trkpt lat="45.68914" lon="5.82245">
        <ele>344.2</ele>
        <time>2021-08-22T14:46:58Z</time>
      </trkpt>
      <trkpt lat="45.68917" lon="5.82246">
        <ele>343.8</ele>
        <time>2021-08-22T14:47:00Z</time>
      </trkpt>
      <trkpt lat="45.6892" lon="5.82245">
        <ele>343.6</ele>
        <time>2021-08-22T14:47:02Z</time>
      </trkpt>
      <trkpt lat="45.68923" lon="5.82238">
        <ele>343.3</ele>
        <time>2021-08-22T14:47:04Z</time>
      </trkpt>
      <trkpt lat="45.68925" lon="5.82233">
        <ele>343.1</ele>
        <time>2021-08-22T14:47:05Z</time>
      </trkpt>
      <trkpt lat="45.68926" lon="5.82228">
        <ele>342.9</ele>
        <time>2021-08-22T14:47:06Z</time>
      </trkpt>
      <trkpt lat="45.68928" lon="5.82222">
        <ele>342.7</ele>
        <time>2021-08-22T14:47:07Z</time>
      </trkpt>
      <trkpt lat="45.68932" lon="5.82209">
        <ele>342.1</ele>
        <time>2021-08-22T14:47:09Z</time>
      </trkpt>
      <trkpt lat="45.68935" lon="5.82204">
        <ele>341.9</ele>
        <time>2021-08-22T14:47:10Z</time>
      </trkpt>
      <trkpt lat="45.68942" lon="5.82193">
        <ele>341.3</ele>
        <time>2021-08-22T14:47:12Z</time>
      </trkpt>
      <trkpt lat="45.68945" lon="5.82187">
        <ele>341</ele>
        <time>2021-08-22T14:47:13Z</time>
      </trkpt>
      <trkpt lat="45.68948" lon="5.8218">
        <ele>340.8</ele>
        <time>2021-08-22T14:47:14Z</time>
      </trkpt>
      <trkpt lat="45.68956" lon="5.82168">
        <ele>340.1</ele>
        <time>2021-08-22T14:47:16Z</time>
      </trkpt>
      <trkpt lat="45.6896" lon="5.8216">
        <ele>339.8</ele>
        <time>2021-08-22T14:47:17Z</time>
      </trkpt>
      <trkpt lat="45.68966" lon="5.82144">
        <ele>339.1</ele>
        <time>2021-08-22T14:47:19Z</time>
      </trkpt>
      <trkpt lat="45.6897" lon="5.82136">
        <ele>338.8</ele>
        <time>2021-08-22T14:47:20Z</time>
      </trkpt>
      <trkpt lat="45.68974" lon="5.82128">
        <ele>338.4</ele>
        <time>2021-08-22T14:47:21Z</time>
      </trkpt>
      <trkpt lat="45.68983" lon="5.82113">
        <ele>337.7</ele>
        <time>2021-08-22T14:47:23Z</time>
      </trkpt>
      <trkpt lat="45.68991" lon="5.82097">
        <ele>336.9</ele>
        <time>2021-08-22T14:47:25Z</time>
      </trkpt>
      <trkpt lat="45.68994" lon="5.8209">
        <ele>336.6</ele>
        <time>2021-08-22T14:47:26Z</time>
      </trkpt>
      <trkpt lat="45.69" lon="5.82079">
        <ele>336.1</ele>
        <time>2021-08-22T14:47:28Z</time>
      </trkpt>
      <trkpt lat="45.69002" lon="5.82073">
        <ele>335.9</ele>
        <time>2021-08-22T14:47:29Z</time>
      </trkpt>
      <trkpt lat="45.69003" lon="5.82067">
        <ele>335.6</ele>
        <time>2021-08-22T14:47:30Z</time>
      </trkpt>
      <trkpt lat="45.69004" lon="5.82064">
        <ele>335.5</ele>
        <time>2021-08-22T14:47:31Z</time>
      </trkpt>
      <trkpt lat="45.69006" lon="5.82058">
        <ele>335.3</ele>
        <time>2021-08-22T14:47:32Z</time>
      </trkpt>
      <trkpt lat="45.69009" lon="5.82046">
        <ele>335.2</ele>
        <time>2021-08-22T14:47:34Z</time>
      </trkpt>
      <trkpt lat="45.69012" lon="5.82043">
        <ele>335.1</ele>
        <time>2021-08-22T14:47:35Z</time>
      </trkpt>
      <trkpt lat="45.69015" lon="5.82048">
        <ele>334.9</ele>
        <time>2021-08-22T14:47:37Z</time>
      </trkpt>
      <trkpt lat="45.69018" lon="5.82023">
        <ele>334.3</ele>
        <time>2021-08-22T14:47:39Z</time>
      </trkpt>
      <trkpt lat="45.69022" lon="5.82006">
        <ele>333.7</ele>
        <time>2021-08-22T14:47:41Z</time>
      </trkpt>
      <trkpt lat="45.69026" lon="5.81995">
        <ele>333.1</ele>
        <time>2021-08-22T14:47:43Z</time>
      </trkpt>
      <trkpt lat="45.69028" lon="5.81991">
        <ele>332.8</ele>
        <time>2021-08-22T14:47:44Z</time>
      </trkpt>
      <trkpt lat="45.69032" lon="5.81982">
        <ele>332.2</ele>
        <time>2021-08-22T14:47:46Z</time>
      </trkpt>
      <trkpt lat="45.69034" lon="5.81977">
        <ele>331.9</ele>
        <time>2021-08-22T14:47:47Z</time>
      </trkpt>
      <trkpt lat="45.69036" lon="5.81974">
        <ele>331.7</ele>
        <time>2021-08-22T14:47:48Z</time>
      </trkpt>
      <trkpt lat="45.69041" lon="5.81961">
        <ele>331</ele>
        <time>2021-08-22T14:47:50Z</time>
      </trkpt>
      <trkpt lat="45.69044" lon="5.81955">
        <ele>330.6</ele>
        <time>2021-08-22T14:47:51Z</time>
      </trkpt>
      <trkpt lat="45.69046" lon="5.8195">
        <ele>330.3</ele>
        <time>2021-08-22T14:47:52Z</time>
      </trkpt>
      <trkpt lat="45.69051" lon="5.81941">
        <ele>329.7</ele>
        <time>2021-08-22T14:47:55Z</time>
      </trkpt>
      <trkpt lat="45.69053" lon="5.81937">
        <ele>329.5</ele>
        <time>2021-08-22T14:47:56Z</time>
      </trkpt>
      <trkpt lat="45.69055" lon="5.81933">
        <ele>329.5</ele>
        <time>2021-08-22T14:47:57Z</time>
      </trkpt>
      <trkpt lat="45.69058" lon="5.81927">
        <ele>329.4</ele>
        <time>2021-08-22T14:47:59Z</time>
      </trkpt>
      <trkpt lat="45.69059" lon="5.8192">
        <ele>329.3</ele>
        <time>2021-08-22T14:48:01Z</time>
      </trkpt>
      <trkpt lat="45.69059" lon="5.81913">
        <ele>329.1</ele>
        <time>2021-08-22T14:48:02Z</time>
      </trkpt>
      <trkpt lat="45.69059" lon="5.8191">
        <ele>328.9</ele>
        <time>2021-08-22T14:48:03Z</time>
      </trkpt>
      <trkpt lat="45.69059" lon="5.81905">
        <ele>328.8</ele>
        <time>2021-08-22T14:48:05Z</time>
      </trkpt>
      <trkpt lat="45.69058" lon="5.81901">
        <ele>328.6</ele>
        <time>2021-08-22T14:48:06Z</time>
      </trkpt>
      <trkpt lat="45.69057" lon="5.81896">
        <ele>328.4</ele>
        <time>2021-08-22T14:48:07Z</time>
      </trkpt>
      <trkpt lat="45.69056" lon="5.81887">
        <ele>328</ele>
        <time>2021-08-22T14:48:08Z</time>
      </trkpt>
      <trkpt lat="45.69054" lon="5.81876">
        <ele>327.6</ele>
        <time>2021-08-22T14:48:10Z</time>
      </trkpt>
      <trkpt lat="45.69055" lon="5.8187">
        <ele>327.3</ele>
        <time>2021-08-22T14:48:11Z</time>
      </trkpt>
      <trkpt lat="45.69057" lon="5.81856">
        <ele>326.8</ele>
        <time>2021-08-22T14:48:13Z</time>
      </trkpt>
      <trkpt lat="45.69058" lon="5.81849">
        <ele>326.6</ele>
        <time>2021-08-22T14:48:14Z</time>
      </trkpt>
      <trkpt lat="45.69055" lon="5.81843">
        <ele>326.3</ele>
        <time>2021-08-22T14:48:15Z</time>
      </trkpt>
      <trkpt lat="45.69057" lon="5.81832">
        <ele>326</ele>
        <time>2021-08-22T14:48:17Z</time>
      </trkpt>
      <trkpt lat="45.6906" lon="5.81826">
        <ele>325.8</ele>
        <time>2021-08-22T14:48:18Z</time>
      </trkpt>
      <trkpt lat="45.6906" lon="5.8182">
        <ele>325.6</ele>
        <time>2021-08-22T14:48:19Z</time>
      </trkpt>
      <trkpt lat="45.6906" lon="5.81807">
        <ele>325.3</ele>
        <time>2021-08-22T14:48:21Z</time>
      </trkpt>
      <trkpt lat="45.69059" lon="5.81793">
        <ele>324.9</ele>
        <time>2021-08-22T14:48:23Z</time>
      </trkpt>
      <trkpt lat="45.6906" lon="5.81787">
        <ele>324.8</ele>
        <time>2021-08-22T14:48:24Z</time>
      </trkpt>
      <trkpt lat="45.69061" lon="5.81776">
        <ele>324.6</ele>
        <time>2021-08-22T14:48:25Z</time>
      </trkpt>
      <trkpt lat="45.69062" lon="5.81769">
        <ele>324.5</ele>
        <time>2021-08-22T14:48:27Z</time>
      </trkpt>
      <trkpt lat="45.69061" lon="5.81761">
        <ele>324.4</ele>
        <time>2021-08-22T14:48:28Z</time>
      </trkpt>
      <trkpt lat="45.69061" lon="5.81748">
        <ele>324.3</ele>
        <time>2021-08-22T14:48:30Z</time>
      </trkpt>
      <trkpt lat="45.69059" lon="5.81733">
        <ele>324.1</ele>
        <time>2021-08-22T14:48:32Z</time>
      </trkpt>
      <trkpt lat="45.69058" lon="5.81726">
        <ele>324</ele>
        <time>2021-08-22T14:48:33Z</time>
      </trkpt>
      <trkpt lat="45.69057" lon="5.81719">
        <ele>323.9</ele>
        <time>2021-08-22T14:48:34Z</time>
      </trkpt>
      <trkpt lat="45.69054" lon="5.81706">
        <ele>323.8</ele>
        <time>2021-08-22T14:48:36Z</time>
      </trkpt>
      <trkpt lat="45.69051" lon="5.81692">
        <ele>323.6</ele>
        <time>2021-08-22T14:48:38Z</time>
      </trkpt>
      <trkpt lat="45.69048" lon="5.81679">
        <ele>323.5</ele>
        <time>2021-08-22T14:48:40Z</time>
      </trkpt>
      <trkpt lat="45.69047" lon="5.81675">
        <ele>323.5</ele>
        <time>2021-08-22T14:48:41Z</time>
      </trkpt>
      <trkpt lat="45.69046" lon="5.81665">
        <ele>323.4</ele>
        <time>2021-08-22T14:48:43Z</time>
      </trkpt>
      <trkpt lat="45.69042" lon="5.81652">
        <ele>323.2</ele>
        <time>2021-08-22T14:48:45Z</time>
      </trkpt>
      <trkpt lat="45.6904" lon="5.81646">
        <ele>323.1</ele>
        <time>2021-08-22T14:48:46Z</time>
      </trkpt>
      <trkpt lat="45.69037" lon="5.81639">
        <ele>322.9</ele>
        <time>2021-08-22T14:48:47Z</time>
      </trkpt>
      <trkpt lat="45.69035" lon="5.81628">
        <ele>322.7</ele>
        <time>2021-08-22T14:48:49Z</time>
      </trkpt>
      <trkpt lat="45.69034" lon="5.81622">
        <ele>322.6</ele>
        <time>2021-08-22T14:48:50Z</time>
      </trkpt>
      <trkpt lat="45.69034" lon="5.81617">
        <ele>322.5</ele>
        <time>2021-08-22T14:48:51Z</time>
      </trkpt>
      <trkpt lat="45.69032" lon="5.81607">
        <ele>322.3</ele>
        <time>2021-08-22T14:48:53Z</time>
      </trkpt>
      <trkpt lat="45.69031" lon="5.816">
        <ele>322.2</ele>
        <time>2021-08-22T14:48:54Z</time>
      </trkpt>
      <trkpt lat="45.69032" lon="5.81591">
        <ele>322</ele>
        <time>2021-08-22T14:48:56Z</time>
      </trkpt>
      <trkpt lat="45.69031" lon="5.81588">
        <ele>321.9</ele>
        <time>2021-08-22T14:48:57Z</time>
      </trkpt>
      <trkpt lat="45.69031" lon="5.81584">
        <ele>321.8</ele>
        <time>2021-08-22T14:48:59Z</time>
      </trkpt>
      <trkpt lat="45.69032" lon="5.81585">
        <ele>321.8</ele>
        <time>2021-08-22T14:49:00Z</time>
      </trkpt>
      <trkpt lat="45.69032" lon="5.81584">
        <ele>321.8</ele>
        <time>2021-08-22T14:49:02Z</time>
      </trkpt>
      <trkpt lat="45.69033" lon="5.81583">
        <ele>321.7</ele>
        <time>2021-08-22T14:49:03Z</time>
      </trkpt>
      <trkpt lat="45.69033" lon="5.81581">
        <ele>321.7</ele>
        <time>2021-08-22T14:49:04Z</time>
      </trkpt>
      <trkpt lat="45.69033" lon="5.8158">
        <ele>321.7</ele>
        <time>2021-08-22T14:49:06Z</time>
      </trkpt>
      <trkpt lat="45.69033" lon="5.81579">
        <ele>321.7</ele>
        <time>2021-08-22T14:49:07Z</time>
      </trkpt>
      <trkpt lat="45.69034" lon="5.81558">
        <ele>321.3</ele>
        <time>2021-08-22T14:49:09Z</time>
      </trkpt>
      <trkpt lat="45.69034" lon="5.81542">
        <ele>321</ele>
        <time>2021-08-22T14:49:11Z</time>
      </trkpt>
      <trkpt lat="45.69032" lon="5.81529">
        <ele>320.9</ele>
        <time>2021-08-22T14:49:13Z</time>
      </trkpt>
      <trkpt lat="45.6903" lon="5.81523">
        <ele>320.6</ele>
        <time>2021-08-22T14:49:14Z</time>
      </trkpt>
      <trkpt lat="45.69031" lon="5.81519">
        <ele>320.6</ele>
        <time>2021-08-22T14:49:15Z</time>
      </trkpt>
      <trkpt lat="45.69026" lon="5.81514">
        <ele>320.6</ele>
        <time>2021-08-22T14:49:17Z</time>
      </trkpt>
      <trkpt lat="45.69012" lon="5.8151">
        <ele>320.7</ele>
        <time>2021-08-22T14:49:18Z</time>
      </trkpt>
      <trkpt lat="45.69" lon="5.81502">
        <ele>320.9</ele>
        <time>2021-08-22T14:49:20Z</time>
      </trkpt>
      <trkpt lat="45.68992" lon="5.81494">
        <ele>320.9</ele>
        <time>2021-08-22T14:49:22Z</time>
      </trkpt>
      <trkpt lat="45.68988" lon="5.81489">
        <ele>320.9</ele>
        <time>2021-08-22T14:49:23Z</time>
      </trkpt>
      <trkpt lat="45.68983" lon="5.81481">
        <ele>320.9</ele>
        <time>2021-08-22T14:49:25Z</time>
      </trkpt>
      <trkpt lat="45.68977" lon="5.81476">
        <ele>320.9</ele>
        <time>2021-08-22T14:49:27Z</time>
      </trkpt>
      <trkpt lat="45.68975" lon="5.81471">
        <ele>320.9</ele>
        <time>2021-08-22T14:49:28Z</time>
      </trkpt>
      <trkpt lat="45.68972" lon="5.81467">
        <ele>320.9</ele>
        <time>2021-08-22T14:49:29Z</time>
      </trkpt>
      <trkpt lat="45.68968" lon="5.81457">
        <ele>321</ele>
        <time>2021-08-22T14:49:31Z</time>
      </trkpt>
      <trkpt lat="45.68966" lon="5.81453">
        <ele>321</ele>
        <time>2021-08-22T14:49:32Z</time>
      </trkpt>
      <trkpt lat="45.68962" lon="5.81447">
        <ele>321</ele>
        <time>2021-08-22T14:49:34Z</time>
      </trkpt>
      <trkpt lat="45.6896" lon="5.81445">
        <ele>321</ele>
        <time>2021-08-22T14:49:35Z</time>
      </trkpt>
      <trkpt lat="45.68955" lon="5.81441">
        <ele>321.1</ele>
        <time>2021-08-22T14:49:37Z</time>
      </trkpt>
      <trkpt lat="45.68954" lon="5.81438">
        <ele>321</ele>
        <time>2021-08-22T14:49:38Z</time>
      </trkpt>
      <trkpt lat="45.68955" lon="5.81425">
        <ele>320.8</ele>
        <time>2021-08-22T14:49:40Z</time>
      </trkpt>
      <trkpt lat="45.68957" lon="5.81418">
        <ele>320.7</ele>
        <time>2021-08-22T14:49:41Z</time>
      </trkpt>
      <trkpt lat="45.68956" lon="5.81408">
        <ele>320.6</ele>
        <time>2021-08-22T14:49:42Z</time>
      </trkpt>
      <trkpt lat="45.68957" lon="5.814">
        <ele>320.5</ele>
        <time>2021-08-22T14:49:44Z</time>
      </trkpt>
      <trkpt lat="45.68959" lon="5.81389">
        <ele>320.4</ele>
        <time>2021-08-22T14:49:45Z</time>
      </trkpt>
      <trkpt lat="45.68962" lon="5.81383">
        <ele>320.4</ele>
        <time>2021-08-22T14:49:47Z</time>
      </trkpt>
      <trkpt lat="45.68964" lon="5.81372">
        <ele>320.4</ele>
        <time>2021-08-22T14:49:49Z</time>
      </trkpt>
      <trkpt lat="45.68962" lon="5.8136">
        <ele>320.4</ele>
        <time>2021-08-22T14:49:51Z</time>
      </trkpt>
      <trkpt lat="45.6896" lon="5.81351">
        <ele>320.3</ele>
        <time>2021-08-22T14:49:52Z</time>
      </trkpt>
      <trkpt lat="45.6896" lon="5.81341">
        <ele>320.4</ele>
        <time>2021-08-22T14:49:54Z</time>
      </trkpt>
      <trkpt lat="45.6896" lon="5.81336">
        <ele>320.5</ele>
        <time>2021-08-22T14:49:55Z</time>
      </trkpt>
      <trkpt lat="45.68961" lon="5.81328">
        <ele>320.6</ele>
        <time>2021-08-22T14:49:56Z</time>
      </trkpt>
      <trkpt lat="45.68961" lon="5.81322">
        <ele>320.6</ele>
        <time>2021-08-22T14:49:58Z</time>
      </trkpt>
      <trkpt lat="45.68962" lon="5.81316">
        <ele>320.7</ele>
        <time>2021-08-22T14:49:59Z</time>
      </trkpt>
      <trkpt lat="45.68963" lon="5.81312">
        <ele>320.8</ele>
        <time>2021-08-22T14:50:00Z</time>
      </trkpt>
      <trkpt lat="45.68966" lon="5.81306">
        <ele>320.9</ele>
        <time>2021-08-22T14:50:02Z</time>
      </trkpt>
      <trkpt lat="45.68968" lon="5.81298">
        <ele>321</ele>
        <time>2021-08-22T14:50:03Z</time>
      </trkpt>
      <trkpt lat="45.68969" lon="5.8129">
        <ele>321.2</ele>
        <time>2021-08-22T14:50:05Z</time>
      </trkpt>
      <trkpt lat="45.68969" lon="5.81283">
        <ele>321.3</ele>
        <time>2021-08-22T14:50:06Z</time>
      </trkpt>
      <trkpt lat="45.68969" lon="5.81273">
        <ele>321.5</ele>
        <time>2021-08-22T14:50:08Z</time>
      </trkpt>
      <trkpt lat="45.68969" lon="5.81266">
        <ele>321.6</ele>
        <time>2021-08-22T14:50:10Z</time>
      </trkpt>
      <trkpt lat="45.68967" lon="5.81263">
        <ele>321.7</ele>
        <time>2021-08-22T14:50:11Z</time>
      </trkpt>
      <trkpt lat="45.68965" lon="5.81255">
        <ele>321.9</ele>
        <time>2021-08-22T14:50:13Z</time>
      </trkpt>
      <trkpt lat="45.68964" lon="5.81249">
        <ele>322</ele>
        <time>2021-08-22T14:50:14Z</time>
      </trkpt>
      <trkpt lat="45.68966" lon="5.81241">
        <ele>322.2</ele>
        <time>2021-08-22T14:50:16Z</time>
      </trkpt>
      <trkpt lat="45.68966" lon="5.81238">
        <ele>322.3</ele>
        <time>2021-08-22T14:50:17Z</time>
      </trkpt>
      <trkpt lat="45.68967" lon="5.81235">
        <ele>322.3</ele>
        <time>2021-08-22T14:50:18Z</time>
      </trkpt>
      <trkpt lat="45.68968" lon="5.81232">
        <ele>322.4</ele>
        <time>2021-08-22T14:50:19Z</time>
      </trkpt>
      <trkpt lat="45.68972" lon="5.81226">
        <ele>322.5</ele>
        <time>2021-08-22T14:50:21Z</time>
      </trkpt>
      <trkpt lat="45.68975" lon="5.81218">
        <ele>322.6</ele>
        <time>2021-08-22T14:50:23Z</time>
      </trkpt>
      <trkpt lat="45.68976" lon="5.81215">
        <ele>322.6</ele>
        <time>2021-08-22T14:50:24Z</time>
      </trkpt>
      <trkpt lat="45.68979" lon="5.81208">
        <ele>322.5</ele>
        <time>2021-08-22T14:50:26Z</time>
      </trkpt>
      <trkpt lat="45.68981" lon="5.81201">
        <ele>322.4</ele>
        <time>2021-08-22T14:50:28Z</time>
      </trkpt>
      <trkpt lat="45.68982" lon="5.81199">
        <ele>322.4</ele>
        <time>2021-08-22T14:50:29Z</time>
      </trkpt>
      <trkpt lat="45.68983" lon="5.81197">
        <ele>322.3</ele>
        <time>2021-08-22T14:50:30Z</time>
      </trkpt>
      <trkpt lat="45.68986" lon="5.81191">
        <ele>322.2</ele>
        <time>2021-08-22T14:50:32Z</time>
      </trkpt>
      <trkpt lat="45.68988" lon="5.81188">
        <ele>322.1</ele>
        <time>2021-08-22T14:50:33Z</time>
      </trkpt>
      <trkpt lat="45.6899" lon="5.81183">
        <ele>322.1</ele>
        <time>2021-08-22T14:50:34Z</time>
      </trkpt>
      <trkpt lat="45.68994" lon="5.81175">
        <ele>321.9</ele>
        <time>2021-08-22T14:50:35Z</time>
      </trkpt>
      <trkpt lat="45.68997" lon="5.81168">
        <ele>321.8</ele>
        <time>2021-08-22T14:50:37Z</time>
      </trkpt>
      <trkpt lat="45.69" lon="5.81162">
        <ele>321.7</ele>
        <time>2021-08-22T14:50:38Z</time>
      </trkpt>
      <trkpt lat="45.69002" lon="5.81158">
        <ele>321.7</ele>
        <time>2021-08-22T14:50:39Z</time>
      </trkpt>
      <trkpt lat="45.69003" lon="5.81151">
        <ele>321.6</ele>
        <time>2021-08-22T14:50:41Z</time>
      </trkpt>
      <trkpt lat="45.69004" lon="5.81146">
        <ele>321.6</ele>
        <time>2021-08-22T14:50:42Z</time>
      </trkpt>
      <trkpt lat="45.69007" lon="5.81139">
        <ele>321.6</ele>
        <time>2021-08-22T14:50:43Z</time>
      </trkpt>
      <trkpt lat="45.69008" lon="5.81132">
        <ele>321.6</ele>
        <time>2021-08-22T14:50:45Z</time>
      </trkpt>
      <trkpt lat="45.69009" lon="5.8112">
        <ele>321.6</ele>
        <time>2021-08-22T14:50:47Z</time>
      </trkpt>
      <trkpt lat="45.69008" lon="5.8111">
        <ele>321.6</ele>
        <time>2021-08-22T14:50:49Z</time>
      </trkpt>
      <trkpt lat="45.69005" lon="5.811">
        <ele>321.7</ele>
        <time>2021-08-22T14:50:50Z</time>
      </trkpt>
      <trkpt lat="45.69003" lon="5.81092">
        <ele>321.8</ele>
        <time>2021-08-22T14:50:52Z</time>
      </trkpt>
      <trkpt lat="45.69003" lon="5.81082">
        <ele>321.9</ele>
        <time>2021-08-22T14:50:53Z</time>
      </trkpt>
      <trkpt lat="45.69005" lon="5.81077">
        <ele>321.9</ele>
        <time>2021-08-22T14:50:55Z</time>
      </trkpt>
      <trkpt lat="45.69008" lon="5.81066">
        <ele>322.2</ele>
        <time>2021-08-22T14:50:57Z</time>
      </trkpt>
      <trkpt lat="45.69011" lon="5.8106">
        <ele>322.4</ele>
        <time>2021-08-22T14:50:58Z</time>
      </trkpt>
      <trkpt lat="45.69012" lon="5.81055">
        <ele>322.5</ele>
        <time>2021-08-22T14:50:59Z</time>
      </trkpt>
      <trkpt lat="45.69013" lon="5.81051">
        <ele>322.7</ele>
        <time>2021-08-22T14:51:00Z</time>
      </trkpt>
      <trkpt lat="45.69014" lon="5.81045">
        <ele>322.9</ele>
        <time>2021-08-22T14:51:02Z</time>
      </trkpt>
      <trkpt lat="45.69016" lon="5.81042">
        <ele>323</ele>
        <time>2021-08-22T14:51:03Z</time>
      </trkpt>
      <trkpt lat="45.69018" lon="5.81037">
        <ele>323.3</ele>
        <time>2021-08-22T14:51:05Z</time>
      </trkpt>
      <trkpt lat="45.69018" lon="5.81035">
        <ele>323.4</ele>
        <time>2021-08-22T14:51:06Z</time>
      </trkpt>
      <trkpt lat="45.69019" lon="5.81032">
        <ele>323.6</ele>
        <time>2021-08-22T14:51:07Z</time>
      </trkpt>
      <trkpt lat="45.69021" lon="5.81028">
        <ele>323.8</ele>
        <time>2021-08-22T14:51:09Z</time>
      </trkpt>
      <trkpt lat="45.69022" lon="5.81027">
        <ele>323.9</ele>
        <time>2021-08-22T14:51:10Z</time>
      </trkpt>
      <trkpt lat="45.69023" lon="5.81025">
        <ele>324</ele>
        <time>2021-08-22T14:51:11Z</time>
      </trkpt>
      <trkpt lat="45.69023" lon="5.81023">
        <ele>324.1</ele>
        <time>2021-08-22T14:51:12Z</time>
      </trkpt>
      <trkpt lat="45.69023" lon="5.81022">
        <ele>324.2</ele>
        <time>2021-08-22T14:51:13Z</time>
      </trkpt>
      <trkpt lat="45.69024" lon="5.8102">
        <ele>324.3</ele>
        <time>2021-08-22T14:51:15Z</time>
      </trkpt>
      <trkpt lat="45.69026" lon="5.81019">
        <ele>326.4</ele>
        <time>2021-08-22T14:51:16Z</time>
      </trkpt>
      <trkpt lat="45.69028" lon="5.81016">
        <ele>326.6</ele>
        <time>2021-08-22T14:51:17Z</time>
      </trkpt>
      <trkpt lat="45.69029" lon="5.81012">
        <ele>327</ele>
        <time>2021-08-22T14:51:19Z</time>
      </trkpt>
      <trkpt lat="45.69031" lon="5.81008">
        <ele>327.3</ele>
        <time>2021-08-22T14:51:20Z</time>
      </trkpt>
      <trkpt lat="45.69031" lon="5.81006">
        <ele>327.4</ele>
        <time>2021-08-22T14:51:21Z</time>
      </trkpt>
      <trkpt lat="45.69033" lon="5.81003">
        <ele>327.7</ele>
        <time>2021-08-22T14:51:23Z</time>
      </trkpt>
      <trkpt lat="45.69034" lon="5.81">
        <ele>327.9</ele>
        <time>2021-08-22T14:51:24Z</time>
      </trkpt>
      <trkpt lat="45.69036" lon="5.80996">
        <ele>328.3</ele>
        <time>2021-08-22T14:51:26Z</time>
      </trkpt>
      <trkpt lat="45.69038" lon="5.80991">
        <ele>328.7</ele>
        <time>2021-08-22T14:51:27Z</time>
      </trkpt>
      <trkpt lat="45.69039" lon="5.80986">
        <ele>329</ele>
        <time>2021-08-22T14:51:29Z</time>
      </trkpt>
      <trkpt lat="45.69041" lon="5.80983">
        <ele>329.2</ele>
        <time>2021-08-22T14:51:31Z</time>
      </trkpt>
      <trkpt lat="45.69041" lon="5.80982">
        <ele>329.3</ele>
        <time>2021-08-22T14:51:32Z</time>
      </trkpt>
      <trkpt lat="45.69042" lon="5.80982">
        <ele>329.4</ele>
        <time>2021-08-22T14:51:33Z</time>
      </trkpt>
      <trkpt lat="45.69041" lon="5.80979">
        <ele>329.5</ele>
        <time>2021-08-22T14:51:34Z</time>
      </trkpt>
      <trkpt lat="45.69041" lon="5.80977">
        <ele>329.7</ele>
        <time>2021-08-22T14:51:36Z</time>
      </trkpt>
      <trkpt lat="45.69041" lon="5.80976">
        <ele>329.7</ele>
        <time>2021-08-22T14:51:37Z</time>
      </trkpt>
      <trkpt lat="45.69042" lon="5.80975">
        <ele>329.8</ele>
        <time>2021-08-22T14:51:38Z</time>
      </trkpt>
      <trkpt lat="45.69042" lon="5.80973">
        <ele>330</ele>
        <time>2021-08-22T14:51:39Z</time>
      </trkpt>
      <trkpt lat="45.69043" lon="5.80972">
        <ele>330.1</ele>
        <time>2021-08-22T14:51:41Z</time>
      </trkpt>
      <trkpt lat="45.69044" lon="5.80969">
        <ele>330.3</ele>
        <time>2021-08-22T14:51:42Z</time>
      </trkpt>
      <trkpt lat="45.69046" lon="5.80965">
        <ele>330.9</ele>
        <time>2021-08-22T14:51:43Z</time>
      </trkpt>
      <trkpt lat="45.69048" lon="5.80962">
        <ele>331.3</ele>
        <time>2021-08-22T14:51:44Z</time>
      </trkpt>
      <trkpt lat="45.69049" lon="5.80961">
        <ele>331.4</ele>
        <time>2021-08-22T14:51:45Z</time>
      </trkpt>
      <trkpt lat="45.69054" lon="5.80958">
        <ele>331.9</ele>
        <time>2021-08-22T14:51:47Z</time>
      </trkpt>
      <trkpt lat="45.69056" lon="5.80955">
        <ele>332.3</ele>
        <time>2021-08-22T14:51:48Z</time>
      </trkpt>
      <trkpt lat="45.69056" lon="5.80954">
        <ele>332.4</ele>
        <time>2021-08-22T14:51:49Z</time>
      </trkpt>
      <trkpt lat="45.69056" lon="5.8095">
        <ele>332.8</ele>
        <time>2021-08-22T14:51:50Z</time>
      </trkpt>
      <trkpt lat="45.69057" lon="5.80948">
        <ele>332.9</ele>
        <time>2021-08-22T14:51:52Z</time>
      </trkpt>
      <trkpt lat="45.69058" lon="5.80947">
        <ele>333.1</ele>
        <time>2021-08-22T14:51:53Z</time>
      </trkpt>
      <trkpt lat="45.69058" lon="5.80945">
        <ele>333.3</ele>
        <time>2021-08-22T14:51:54Z</time>
      </trkpt>
      <trkpt lat="45.6906" lon="5.80943">
        <ele>333.6</ele>
        <time>2021-08-22T14:51:55Z</time>
      </trkpt>
      <trkpt lat="45.69062" lon="5.80941">
        <ele>333.8</ele>
        <time>2021-08-22T14:51:57Z</time>
      </trkpt>
      <trkpt lat="45.69063" lon="5.80939">
        <ele>334</ele>
        <time>2021-08-22T14:51:58Z</time>
      </trkpt>
      <trkpt lat="45.69064" lon="5.80937">
        <ele>334.3</ele>
        <time>2021-08-22T14:51:59Z</time>
      </trkpt>
      <trkpt lat="45.69064" lon="5.80935">
        <ele>334.5</ele>
        <time>2021-08-22T14:52:01Z</time>
      </trkpt>
      <trkpt lat="45.69065" lon="5.80934">
        <ele>334.5</ele>
        <time>2021-08-22T14:52:02Z</time>
      </trkpt>
      <trkpt lat="45.69064" lon="5.80935">
        <ele>334.6</ele>
        <time>2021-08-22T14:52:03Z</time>
      </trkpt>
      <trkpt lat="45.69064" lon="5.80933">
        <ele>334.7</ele>
        <time>2021-08-22T14:52:05Z</time>
      </trkpt>
      <trkpt lat="45.69064" lon="5.80933">
        <ele>334.7</ele>
        <time>2021-08-22T14:52:06Z</time>
      </trkpt>
      <trkpt lat="45.6906" lon="5.80929">
        <ele>335.3</ele>
        <time>2021-08-22T14:52:08Z</time>
      </trkpt>
      <trkpt lat="45.69056" lon="5.80927">
        <ele>335.8</ele>
        <time>2021-08-22T14:52:09Z</time>
      </trkpt>
      <trkpt lat="45.69052" lon="5.80924">
        <ele>336.2</ele>
        <time>2021-08-22T14:52:11Z</time>
      </trkpt>
      <trkpt lat="45.69048" lon="5.80922">
        <ele>336.7</ele>
        <time>2021-08-22T14:52:13Z</time>
      </trkpt>
      <trkpt lat="45.69045" lon="5.80919">
        <ele>337.1</ele>
        <time>2021-08-22T14:53:07Z</time>
      </trkpt>
      <trkpt lat="45.69041" lon="5.80917">
        <ele>337.5</ele>
        <time>2021-08-22T14:53:08Z</time>
      </trkpt>
      <trkpt lat="45.69037" lon="5.80914">
        <ele>337.9</ele>
        <time>2021-08-22T14:53:10Z</time>
      </trkpt>
      <trkpt lat="45.69033" lon="5.80912">
        <ele>338.3</ele>
        <time>2021-08-22T14:53:11Z</time>
      </trkpt>
      <trkpt lat="45.69031" lon="5.80906">
        <ele>338.7</ele>
        <time>2021-08-22T14:53:12Z</time>
      </trkpt>
      <trkpt lat="45.6903" lon="5.80902">
        <ele>339</ele>
        <time>2021-08-22T14:53:13Z</time>
      </trkpt>
      <trkpt lat="45.69029" lon="5.80897">
        <ele>339.2</ele>
        <time>2021-08-22T14:53:15Z</time>
      </trkpt>
      <trkpt lat="45.69031" lon="5.8089">
        <ele>339.5</ele>
        <time>2021-08-22T14:53:16Z</time>
      </trkpt>
      <trkpt lat="45.69032" lon="5.80886">
        <ele>339.7</ele>
        <time>2021-08-22T14:53:17Z</time>
      </trkpt>
      <trkpt lat="45.69033" lon="5.80882">
        <ele>339.8</ele>
        <time>2021-08-22T14:53:19Z</time>
      </trkpt>
      <trkpt lat="45.69033" lon="5.80879">
        <ele>339.9</ele>
        <time>2021-08-22T14:53:20Z</time>
      </trkpt>
      <trkpt lat="45.69034" lon="5.80876">
        <ele>340</ele>
        <time>2021-08-22T14:53:21Z</time>
      </trkpt>
      <trkpt lat="45.69034" lon="5.80872">
        <ele>340.1</ele>
        <time>2021-08-22T14:53:23Z</time>
      </trkpt>
      <trkpt lat="45.69034" lon="5.80869">
        <ele>340.2</ele>
        <time>2021-08-22T14:53:24Z</time>
      </trkpt>
      <trkpt lat="45.69035" lon="5.80866">
        <ele>340.2</ele>
        <time>2021-08-22T14:53:25Z</time>
      </trkpt>
      <trkpt lat="45.69035" lon="5.80863">
        <ele>340.3</ele>
        <time>2021-08-22T14:53:46Z</time>
      </trkpt>
      <trkpt lat="45.69035" lon="5.8086">
        <ele>340.4</ele>
        <time>2021-08-22T14:53:48Z</time>
      </trkpt>
      <trkpt lat="45.69036" lon="5.80857">
        <ele>340.5</ele>
        <time>2021-08-22T14:53:49Z</time>
      </trkpt>
      <trkpt lat="45.69036" lon="5.80854">
        <ele>340.6</ele>
        <time>2021-08-22T14:53:50Z</time>
      </trkpt>
      <trkpt lat="45.69037" lon="5.80852">
        <ele>340.6</ele>
        <time>2021-08-22T14:53:51Z</time>
      </trkpt>
      <trkpt lat="45.69037" lon="5.80847">
        <ele>340.8</ele>
        <time>2021-08-22T14:53:53Z</time>
      </trkpt>
      <trkpt lat="45.69037" lon="5.80845">
        <ele>340.8</ele>
        <time>2021-08-22T14:53:54Z</time>
      </trkpt>
      <trkpt lat="45.69037" lon="5.80843">
        <ele>340.9</ele>
        <time>2021-08-22T14:53:55Z</time>
      </trkpt>
      <trkpt lat="45.69038" lon="5.80841">
        <ele>341</ele>
        <time>2021-08-22T14:53:57Z</time>
      </trkpt>
      <trkpt lat="45.69039" lon="5.80839">
        <ele>341</ele>
        <time>2021-08-22T14:53:58Z</time>
      </trkpt>
      <trkpt lat="45.6904" lon="5.80837">
        <ele>341.1</ele>
        <time>2021-08-22T14:54:00Z</time>
      </trkpt>
      <trkpt lat="45.69041" lon="5.80834">
        <ele>341.2</ele>
        <time>2021-08-22T14:54:01Z</time>
      </trkpt>
      <trkpt lat="45.69042" lon="5.80831">
        <ele>341.3</ele>
        <time>2021-08-22T14:54:03Z</time>
      </trkpt>
      <trkpt lat="45.69042" lon="5.80829">
        <ele>341.4</ele>
        <time>2021-08-22T14:54:04Z</time>
      </trkpt>
      <trkpt lat="45.69042" lon="5.80828">
        <ele>341.4</ele>
        <time>2021-08-22T14:54:05Z</time>
      </trkpt>
      <trkpt lat="45.69043" lon="5.80827">
        <ele>341.4</ele>
        <time>2021-08-22T14:54:06Z</time>
      </trkpt>
      <trkpt lat="45.69043" lon="5.80824">
        <ele>341.5</ele>
        <time>2021-08-22T14:54:08Z</time>
      </trkpt>
      <trkpt lat="45.69045" lon="5.80823">
        <ele>341.6</ele>
        <time>2021-08-22T14:54:09Z</time>
      </trkpt>
      <trkpt lat="45.69047" lon="5.80823">
        <ele>341.7</ele>
        <time>2021-08-22T14:54:10Z</time>
      </trkpt>
      <trkpt lat="45.69048" lon="5.80823">
        <ele>341.8</ele>
        <time>2021-08-22T14:54:11Z</time>
      </trkpt>
      <trkpt lat="45.69049" lon="5.80821">
        <ele>341.8</ele>
        <time>2021-08-22T14:54:12Z</time>
      </trkpt>
      <trkpt lat="45.69049" lon="5.80819">
        <ele>341.9</ele>
        <time>2021-08-22T14:54:13Z</time>
      </trkpt>
      <trkpt lat="45.6905" lon="5.80817">
        <ele>342</ele>
        <time>2021-08-22T14:54:15Z</time>
      </trkpt>
      <trkpt lat="45.69052" lon="5.80817">
        <ele>342</ele>
        <time>2021-08-22T14:54:16Z</time>
      </trkpt>
      <trkpt lat="45.69054" lon="5.80817">
        <ele>342.1</ele>
        <time>2021-08-22T14:54:17Z</time>
      </trkpt>
      <trkpt lat="45.69055" lon="5.80816">
        <ele>342.2</ele>
        <time>2021-08-22T14:54:19Z</time>
      </trkpt>
      <trkpt lat="45.69056" lon="5.80815">
        <ele>342.3</ele>
        <time>2021-08-22T14:54:20Z</time>
      </trkpt>
      <trkpt lat="45.69057" lon="5.80813">
        <ele>342.3</ele>
        <time>2021-08-22T14:54:21Z</time>
      </trkpt>
      <trkpt lat="45.69057" lon="5.80811">
        <ele>342.4</ele>
        <time>2021-08-22T14:54:22Z</time>
      </trkpt>
      <trkpt lat="45.69057" lon="5.8081">
        <ele>342.4</ele>
        <time>2021-08-22T14:54:23Z</time>
      </trkpt>
      <trkpt lat="45.69059" lon="5.80808">
        <ele>342.5</ele>
        <time>2021-08-22T14:54:25Z</time>
      </trkpt>
      <trkpt lat="45.6906" lon="5.80806">
        <ele>342.6</ele>
        <time>2021-08-22T14:54:26Z</time>
      </trkpt>
      <trkpt lat="45.6906" lon="5.80804">
        <ele>342.7</ele>
        <time>2021-08-22T14:54:27Z</time>
      </trkpt>
      <trkpt lat="45.6906" lon="5.80803">
        <ele>342.7</ele>
        <time>2021-08-22T14:54:29Z</time>
      </trkpt>
      <trkpt lat="45.69062" lon="5.808">
        <ele>342.8</ele>
        <time>2021-08-22T14:54:31Z</time>
      </trkpt>
      <trkpt lat="45.69064" lon="5.80799">
        <ele>342.8</ele>
        <time>2021-08-22T14:54:32Z</time>
      </trkpt>
      <trkpt lat="45.69065" lon="5.80798">
        <ele>342.8</ele>
        <time>2021-08-22T14:54:34Z</time>
      </trkpt>
      <trkpt lat="45.69066" lon="5.80797">
        <ele>342.9</ele>
        <time>2021-08-22T14:54:35Z</time>
      </trkpt>
      <trkpt lat="45.69067" lon="5.80796">
        <ele>342.9</ele>
        <time>2021-08-22T14:54:36Z</time>
      </trkpt>
      <trkpt lat="45.69067" lon="5.80796">
        <ele>342.9</ele>
        <time>2021-08-22T14:54:37Z</time>
      </trkpt>
      <trkpt lat="45.69071" lon="5.80791">
        <ele>342.8</ele>
        <time>2021-08-22T14:54:38Z</time>
      </trkpt>
      <trkpt lat="45.69074" lon="5.80786">
        <ele>342.7</ele>
        <time>2021-08-22T14:54:39Z</time>
      </trkpt>
      <trkpt lat="45.69078" lon="5.80781">
        <ele>342.5</ele>
        <time>2021-08-22T14:54:41Z</time>
      </trkpt>
      <trkpt lat="45.69081" lon="5.80776">
        <ele>342.2</ele>
        <time>2021-08-22T14:54:42Z</time>
      </trkpt>
      <trkpt lat="45.69085" lon="5.80772">
        <ele>341.9</ele>
        <time>2021-08-22T14:54:44Z</time>
      </trkpt>
      <trkpt lat="45.69088" lon="5.80767">
        <ele>341.6</ele>
        <time>2021-08-22T14:54:45Z</time>
      </trkpt>
      <trkpt lat="45.69092" lon="5.80762">
        <ele>341.3</ele>
        <time>2021-08-22T14:54:46Z</time>
      </trkpt>
      <trkpt lat="45.69096" lon="5.80757">
        <ele>341.1</ele>
        <time>2021-08-22T14:55:53Z</time>
      </trkpt>
      <trkpt lat="45.69099" lon="5.80753">
        <ele>340.9</ele>
        <time>2021-08-22T14:55:54Z</time>
      </trkpt>
      <trkpt lat="45.69103" lon="5.80739">
        <ele>340.5</ele>
        <time>2021-08-22T14:55:55Z</time>
      </trkpt>
      <trkpt lat="45.69108" lon="5.80725">
        <ele>340.1</ele>
        <time>2021-08-22T14:55:57Z</time>
      </trkpt>
      <trkpt lat="45.6911" lon="5.80715">
        <ele>339.8</ele>
        <time>2021-08-22T14:55:58Z</time>
      </trkpt>
      <trkpt lat="45.69111" lon="5.80701">
        <ele>339.5</ele>
        <time>2021-08-22T14:56:00Z</time>
      </trkpt>
      <trkpt lat="45.69112" lon="5.80695">
        <ele>339.3</ele>
        <time>2021-08-22T14:56:01Z</time>
      </trkpt>
      <trkpt lat="45.69112" lon="5.80689">
        <ele>339.1</ele>
        <time>2021-08-22T14:56:02Z</time>
      </trkpt>
      <trkpt lat="45.69112" lon="5.80675">
        <ele>338.7</ele>
        <time>2021-08-22T14:56:04Z</time>
      </trkpt>
      <trkpt lat="45.69112" lon="5.80668">
        <ele>338.5</ele>
        <time>2021-08-22T14:56:05Z</time>
      </trkpt>
      <trkpt lat="45.69111" lon="5.80661">
        <ele>338.3</ele>
        <time>2021-08-22T14:56:06Z</time>
      </trkpt>
      <trkpt lat="45.69109" lon="5.80646">
        <ele>338.1</ele>
        <time>2021-08-22T14:56:08Z</time>
      </trkpt>
      <trkpt lat="45.69105" lon="5.80632">
        <ele>338</ele>
        <time>2021-08-22T14:56:10Z</time>
      </trkpt>
      <trkpt lat="45.69104" lon="5.80624">
        <ele>337.9</ele>
        <time>2021-08-22T14:56:11Z</time>
      </trkpt>
      <trkpt lat="45.69103" lon="5.8061">
        <ele>337.8</ele>
        <time>2021-08-22T14:56:13Z</time>
      </trkpt>
      <trkpt lat="45.69103" lon="5.80604">
        <ele>337.8</ele>
        <time>2021-08-22T14:56:14Z</time>
      </trkpt>
      <trkpt lat="45.69102" lon="5.80589">
        <ele>337.7</ele>
        <time>2021-08-22T14:56:16Z</time>
      </trkpt>
      <trkpt lat="45.69102" lon="5.80582">
        <ele>337.7</ele>
        <time>2021-08-22T14:56:17Z</time>
      </trkpt>
      <trkpt lat="45.69101" lon="5.80575">
        <ele>337.7</ele>
        <time>2021-08-22T14:56:18Z</time>
      </trkpt>
      <trkpt lat="45.69099" lon="5.80561">
        <ele>337.6</ele>
        <time>2021-08-22T14:56:20Z</time>
      </trkpt>
      <trkpt lat="45.69098" lon="5.80549">
        <ele>337.6</ele>
        <time>2021-08-22T14:56:21Z</time>
      </trkpt>
      <trkpt lat="45.69098" lon="5.8054">
        <ele>337.6</ele>
        <time>2021-08-22T14:56:23Z</time>
      </trkpt>
      <trkpt lat="45.69098" lon="5.80534">
        <ele>337.5</ele>
        <time>2021-08-22T14:56:24Z</time>
      </trkpt>
      <trkpt lat="45.69099" lon="5.80529">
        <ele>337.5</ele>
        <time>2021-08-22T14:56:25Z</time>
      </trkpt>
      <trkpt lat="45.69099" lon="5.80521">
        <ele>337.5</ele>
        <time>2021-08-22T14:56:26Z</time>
      </trkpt>
      <trkpt lat="45.69099" lon="5.80515">
        <ele>337.4</ele>
        <time>2021-08-22T14:56:27Z</time>
      </trkpt>
      <trkpt lat="45.69098" lon="5.80508">
        <ele>337.3</ele>
        <time>2021-08-22T14:56:29Z</time>
      </trkpt>
      <trkpt lat="45.69097" lon="5.805">
        <ele>337.2</ele>
        <time>2021-08-22T14:56:30Z</time>
      </trkpt>
      <trkpt lat="45.69096" lon="5.80494">
        <ele>337.2</ele>
        <time>2021-08-22T14:56:31Z</time>
      </trkpt>
      <trkpt lat="45.69093" lon="5.80484">
        <ele>337.1</ele>
        <time>2021-08-22T14:56:33Z</time>
      </trkpt>
      <trkpt lat="45.6909" lon="5.80479">
        <ele>337.1</ele>
        <time>2021-08-22T14:56:34Z</time>
      </trkpt>
      <trkpt lat="45.69088" lon="5.80471">
        <ele>337.1</ele>
        <time>2021-08-22T14:56:35Z</time>
      </trkpt>
      <trkpt lat="45.69087" lon="5.80465">
        <ele>337.1</ele>
        <time>2021-08-22T14:56:36Z</time>
      </trkpt>
      <trkpt lat="45.69086" lon="5.80455">
        <ele>337</ele>
        <time>2021-08-22T14:56:38Z</time>
      </trkpt>
      <trkpt lat="45.69088" lon="5.80448">
        <ele>337</ele>
        <time>2021-08-22T14:56:39Z</time>
      </trkpt>
      <trkpt lat="45.69085" lon="5.80436">
        <ele>337</ele>
        <time>2021-08-22T14:56:41Z</time>
      </trkpt>
      <trkpt lat="45.69086" lon="5.80428">
        <ele>337</ele>
        <time>2021-08-22T14:56:42Z</time>
      </trkpt>
      <trkpt lat="45.69084" lon="5.80422">
        <ele>337</ele>
        <time>2021-08-22T14:56:43Z</time>
      </trkpt>
      <trkpt lat="45.69081" lon="5.80414">
        <ele>337</ele>
        <time>2021-08-22T14:56:45Z</time>
      </trkpt>
      <trkpt lat="45.69079" lon="5.80403">
        <ele>336.7</ele>
        <time>2021-08-22T14:56:47Z</time>
      </trkpt>
      <trkpt lat="45.69078" lon="5.80398">
        <ele>336.4</ele>
        <time>2021-08-22T14:56:48Z</time>
      </trkpt>
      <trkpt lat="45.69078" lon="5.80391">
        <ele>336</ele>
        <time>2021-08-22T14:56:50Z</time>
      </trkpt>
      <trkpt lat="45.69079" lon="5.80387">
        <ele>335.8</ele>
        <time>2021-08-22T14:56:51Z</time>
      </trkpt>
      <trkpt lat="45.69079" lon="5.80383">
        <ele>335.6</ele>
        <time>2021-08-22T14:56:52Z</time>
      </trkpt>
      <trkpt lat="45.6908" lon="5.80379">
        <ele>335.5</ele>
        <time>2021-08-22T14:56:54Z</time>
      </trkpt>
      <trkpt lat="45.6908" lon="5.80375">
        <ele>335.3</ele>
        <time>2021-08-22T14:56:55Z</time>
      </trkpt>
      <trkpt lat="45.69081" lon="5.8037">
        <ele>335.1</ele>
        <time>2021-08-22T14:56:57Z</time>
      </trkpt>
      <trkpt lat="45.69081" lon="5.80366">
        <ele>335</ele>
        <time>2021-08-22T14:56:58Z</time>
      </trkpt>
      <trkpt lat="45.69082" lon="5.80362">
        <ele>334.8</ele>
        <time>2021-08-22T14:57:11Z</time>
      </trkpt>
      <trkpt lat="45.69082" lon="5.80358">
        <ele>334.7</ele>
        <time>2021-08-22T14:57:12Z</time>
      </trkpt>
      <trkpt lat="45.69083" lon="5.80343">
        <ele>334.2</ele>
        <time>2021-08-22T14:57:14Z</time>
      </trkpt>
      <trkpt lat="45.69083" lon="5.80333">
        <ele>334</ele>
        <time>2021-08-22T14:57:16Z</time>
      </trkpt>
      <trkpt lat="45.6908" lon="5.80321">
        <ele>333.7</ele>
        <time>2021-08-22T14:57:17Z</time>
      </trkpt>
      <trkpt lat="45.69079" lon="5.80315">
        <ele>333.6</ele>
        <time>2021-08-22T14:57:18Z</time>
      </trkpt>
      <trkpt lat="45.69079" lon="5.80308">
        <ele>333.6</ele>
        <time>2021-08-22T14:57:19Z</time>
      </trkpt>
      <trkpt lat="45.6908" lon="5.80301">
        <ele>333.5</ele>
        <time>2021-08-22T14:57:20Z</time>
      </trkpt>
      <trkpt lat="45.69082" lon="5.80286">
        <ele>333.4</ele>
        <time>2021-08-22T14:57:22Z</time>
      </trkpt>
      <trkpt lat="45.69083" lon="5.80279">
        <ele>333.4</ele>
        <time>2021-08-22T14:57:23Z</time>
      </trkpt>
      <trkpt lat="45.69085" lon="5.80271">
        <ele>333.4</ele>
        <time>2021-08-22T14:57:24Z</time>
      </trkpt>
      <trkpt lat="45.69088" lon="5.80265">
        <ele>333.4</ele>
        <time>2021-08-22T14:57:25Z</time>
      </trkpt>
      <trkpt lat="45.6909" lon="5.80258">
        <ele>333.4</ele>
        <time>2021-08-22T14:57:26Z</time>
      </trkpt>
      <trkpt lat="45.69092" lon="5.80244">
        <ele>333.5</ele>
        <time>2021-08-22T14:57:28Z</time>
      </trkpt>
      <trkpt lat="45.69092" lon="5.80238">
        <ele>333.5</ele>
        <time>2021-08-22T14:57:29Z</time>
      </trkpt>
      <trkpt lat="45.69092" lon="5.80225">
        <ele>333.5</ele>
        <time>2021-08-22T14:57:31Z</time>
      </trkpt>
      <trkpt lat="45.69093" lon="5.80218">
        <ele>333.5</ele>
        <time>2021-08-22T14:57:32Z</time>
      </trkpt>
      <trkpt lat="45.69096" lon="5.80208">
        <ele>333.5</ele>
        <time>2021-08-22T14:57:33Z</time>
      </trkpt>
      <trkpt lat="45.691" lon="5.80201">
        <ele>333.5</ele>
        <time>2021-08-22T14:57:35Z</time>
      </trkpt>
      <trkpt lat="45.69103" lon="5.80193">
        <ele>333.5</ele>
        <time>2021-08-22T14:57:36Z</time>
      </trkpt>
      <trkpt lat="45.69105" lon="5.80185">
        <ele>333.4</ele>
        <time>2021-08-22T14:57:37Z</time>
      </trkpt>
      <trkpt lat="45.69107" lon="5.80177">
        <ele>333.3</ele>
        <time>2021-08-22T14:57:39Z</time>
      </trkpt>
      <trkpt lat="45.6911" lon="5.80169">
        <ele>333.2</ele>
        <time>2021-08-22T14:57:40Z</time>
      </trkpt>
      <trkpt lat="45.69118" lon="5.8016">
        <ele>332.8</ele>
        <time>2021-08-22T14:57:42Z</time>
      </trkpt>
      <trkpt lat="45.69126" lon="5.80149">
        <ele>332.3</ele>
        <time>2021-08-22T14:57:44Z</time>
      </trkpt>
      <trkpt lat="45.69129" lon="5.80143">
        <ele>332.1</ele>
        <time>2021-08-22T14:57:45Z</time>
      </trkpt>
      <trkpt lat="45.69134" lon="5.80135">
        <ele>331.7</ele>
        <time>2021-08-22T14:57:47Z</time>
      </trkpt>
      <trkpt lat="45.69138" lon="5.80129">
        <ele>331.4</ele>
        <time>2021-08-22T14:57:48Z</time>
      </trkpt>
      <trkpt lat="45.69143" lon="5.80114">
        <ele>330.8</ele>
        <time>2021-08-22T14:57:50Z</time>
      </trkpt>
      <trkpt lat="45.69143" lon="5.80106">
        <ele>330.4</ele>
        <time>2021-08-22T14:57:51Z</time>
      </trkpt>
      <trkpt lat="45.69141" lon="5.80087">
        <ele>329.7</ele>
        <time>2021-08-22T14:57:53Z</time>
      </trkpt>
      <trkpt lat="45.6914" lon="5.80078">
        <ele>329.3</ele>
        <time>2021-08-22T14:57:54Z</time>
      </trkpt>
      <trkpt lat="45.69139" lon="5.80059">
        <ele>328.5</ele>
        <time>2021-08-22T14:57:56Z</time>
      </trkpt>
      <trkpt lat="45.6914" lon="5.80042">
        <ele>327.6</ele>
        <time>2021-08-22T14:57:58Z</time>
      </trkpt>
      <trkpt lat="45.69143" lon="5.80025">
        <ele>326.9</ele>
        <time>2021-08-22T14:58:00Z</time>
      </trkpt>
      <trkpt lat="45.69145" lon="5.80008">
        <ele>326.3</ele>
        <time>2021-08-22T14:58:02Z</time>
      </trkpt>
      <trkpt lat="45.69145" lon="5.79991">
        <ele>325.8</ele>
        <time>2021-08-22T14:58:04Z</time>
      </trkpt>
      <trkpt lat="45.69146" lon="5.79974">
        <ele>325.3</ele>
        <time>2021-08-22T14:58:06Z</time>
      </trkpt>
      <trkpt lat="45.6915" lon="5.79955">
        <ele>324.8</ele>
        <time>2021-08-22T14:58:08Z</time>
      </trkpt>
      <trkpt lat="45.69152" lon="5.79946">
        <ele>324.6</ele>
        <time>2021-08-22T14:58:09Z</time>
      </trkpt>
      <trkpt lat="45.69156" lon="5.7993">
        <ele>324.4</ele>
        <time>2021-08-22T14:58:11Z</time>
      </trkpt>
      <trkpt lat="45.69159" lon="5.79923">
        <ele>324.3</ele>
        <time>2021-08-22T14:58:12Z</time>
      </trkpt>
      <trkpt lat="45.69161" lon="5.79916">
        <ele>324.3</ele>
        <time>2021-08-22T14:58:13Z</time>
      </trkpt>
      <trkpt lat="45.69166" lon="5.79909">
        <ele>324.2</ele>
        <time>2021-08-22T14:58:14Z</time>
      </trkpt>
      <trkpt lat="45.69176" lon="5.79897">
        <ele>324.2</ele>
        <time>2021-08-22T14:58:16Z</time>
      </trkpt>
      <trkpt lat="45.69181" lon="5.79892">
        <ele>324.2</ele>
        <time>2021-08-22T14:58:17Z</time>
      </trkpt>
      <trkpt lat="45.69191" lon="5.7988">
        <ele>324.3</ele>
        <time>2021-08-22T14:58:19Z</time>
      </trkpt>
      <trkpt lat="45.69196" lon="5.79873">
        <ele>324.4</ele>
        <time>2021-08-22T14:58:20Z</time>
      </trkpt>
      <trkpt lat="45.69205" lon="5.79862">
        <ele>324.5</ele>
        <time>2021-08-22T14:58:22Z</time>
      </trkpt>
      <trkpt lat="45.69209" lon="5.79854">
        <ele>324.6</ele>
        <time>2021-08-22T14:58:24Z</time>
      </trkpt>
      <trkpt lat="45.69212" lon="5.79848">
        <ele>324.8</ele>
        <time>2021-08-22T14:58:25Z</time>
      </trkpt>
      <trkpt lat="45.69215" lon="5.79841">
        <ele>324.9</ele>
        <time>2021-08-22T14:58:26Z</time>
      </trkpt>
      <trkpt lat="45.69219" lon="5.79829">
        <ele>325.1</ele>
        <time>2021-08-22T14:58:28Z</time>
      </trkpt>
      <trkpt lat="45.6922" lon="5.79818">
        <ele>325.4</ele>
        <time>2021-08-22T14:58:30Z</time>
      </trkpt>
      <trkpt lat="45.6922" lon="5.79807">
        <ele>325.6</ele>
        <time>2021-08-22T14:58:32Z</time>
      </trkpt>
      <trkpt lat="45.69219" lon="5.79801">
        <ele>325.7</ele>
        <time>2021-08-22T14:58:33Z</time>
      </trkpt>
      <trkpt lat="45.69221" lon="5.79792">
        <ele>325.9</ele>
        <time>2021-08-22T14:58:35Z</time>
      </trkpt>
      <trkpt lat="45.69222" lon="5.79786">
        <ele>326</ele>
        <time>2021-08-22T14:58:36Z</time>
      </trkpt>
      <trkpt lat="45.69224" lon="5.79781">
        <ele>326.1</ele>
        <time>2021-08-22T14:58:37Z</time>
      </trkpt>
      <trkpt lat="45.69227" lon="5.79776">
        <ele>326.1</ele>
        <time>2021-08-22T14:58:38Z</time>
      </trkpt>
      <trkpt lat="45.69229" lon="5.79773">
        <ele>326.1</ele>
        <time>2021-08-22T14:58:39Z</time>
      </trkpt>
      <trkpt lat="45.69233" lon="5.79769">
        <ele>326.1</ele>
        <time>2021-08-22T14:58:41Z</time>
      </trkpt>
      <trkpt lat="45.69236" lon="5.79767">
        <ele>325.8</ele>
        <time>2021-08-22T14:58:42Z</time>
      </trkpt>
      <trkpt lat="45.69241" lon="5.79765">
        <ele>325.7</ele>
        <time>2021-08-22T14:58:43Z</time>
      </trkpt>
      <trkpt lat="45.69245" lon="5.79765">
        <ele>325.6</ele>
        <time>2021-08-22T14:58:45Z</time>
      </trkpt>
      <trkpt lat="45.69251" lon="5.79765">
        <ele>325.5</ele>
        <time>2021-08-22T14:58:46Z</time>
      </trkpt>
      <trkpt lat="45.6926" lon="5.79766">
        <ele>325.3</ele>
        <time>2021-08-22T14:58:48Z</time>
      </trkpt>
      <trkpt lat="45.69267" lon="5.79766">
        <ele>325.1</ele>
        <time>2021-08-22T14:58:50Z</time>
      </trkpt>
      <trkpt lat="45.69272" lon="5.79765">
        <ele>325</ele>
        <time>2021-08-22T14:58:51Z</time>
      </trkpt>
      <trkpt lat="45.69278" lon="5.79766">
        <ele>324.9</ele>
        <time>2021-08-22T14:58:53Z</time>
      </trkpt>
      <trkpt lat="45.69285" lon="5.79766">
        <ele>324.8</ele>
        <time>2021-08-22T14:58:54Z</time>
      </trkpt>
      <trkpt lat="45.69296" lon="5.79768">
        <ele>324.7</ele>
        <time>2021-08-22T14:58:56Z</time>
      </trkpt>
      <trkpt lat="45.69301" lon="5.79769">
        <ele>324.6</ele>
        <time>2021-08-22T14:58:57Z</time>
      </trkpt>
      <trkpt lat="45.69312" lon="5.79771">
        <ele>324.5</ele>
        <time>2021-08-22T14:58:59Z</time>
      </trkpt>
      <trkpt lat="45.69317" lon="5.79771">
        <ele>324.5</ele>
        <time>2021-08-22T14:59:00Z</time>
      </trkpt>
      <trkpt lat="45.69321" lon="5.79771">
        <ele>324.4</ele>
        <time>2021-08-22T14:59:01Z</time>
      </trkpt>
      <trkpt lat="45.69324" lon="5.79768">
        <ele>324.1</ele>
        <time>2021-08-22T14:59:02Z</time>
      </trkpt>
      <trkpt lat="45.69333" lon="5.7976">
        <ele>323.4</ele>
        <time>2021-08-22T14:59:04Z</time>
      </trkpt>
      <trkpt lat="45.69338" lon="5.79755">
        <ele>323</ele>
        <time>2021-08-22T14:59:05Z</time>
      </trkpt>
      <trkpt lat="45.69342" lon="5.7975">
        <ele>322.7</ele>
        <time>2021-08-22T14:59:06Z</time>
      </trkpt>
      <trkpt lat="45.69347" lon="5.79747">
        <ele>322.3</ele>
        <time>2021-08-22T14:59:07Z</time>
      </trkpt>
      <trkpt lat="45.69353" lon="5.79743">
        <ele>321.9</ele>
        <time>2021-08-22T14:59:08Z</time>
      </trkpt>
      <trkpt lat="45.69363" lon="5.79738">
        <ele>321.2</ele>
        <time>2021-08-22T14:59:10Z</time>
      </trkpt>
      <trkpt lat="45.69367" lon="5.79735">
        <ele>320.9</ele>
        <time>2021-08-22T14:59:11Z</time>
      </trkpt>
      <trkpt lat="45.6937" lon="5.79732">
        <ele>320.7</ele>
        <time>2021-08-22T14:59:12Z</time>
      </trkpt>
      <trkpt lat="45.69374" lon="5.79727">
        <ele>320.3</ele>
        <time>2021-08-22T14:59:13Z</time>
      </trkpt>
      <trkpt lat="45.69374" lon="5.79723">
        <ele>320.2</ele>
        <time>2021-08-22T14:59:15Z</time>
      </trkpt>
      <trkpt lat="45.69374" lon="5.79722">
        <ele>320.3</ele>
        <time>2021-08-22T14:59:16Z</time>
      </trkpt>
      <trkpt lat="45.69375" lon="5.79717">
        <ele>320.4</ele>
        <time>2021-08-22T14:59:18Z</time>
      </trkpt>
      <trkpt lat="45.69376" lon="5.79717">
        <ele>320.5</ele>
        <time>2021-08-22T14:59:20Z</time>
      </trkpt>
      <trkpt lat="45.6937" lon="5.79722">
        <ele>320.8</ele>
        <time>2021-08-22T14:59:22Z</time>
      </trkpt>
      <trkpt lat="45.69367" lon="5.79724">
        <ele>321</ele>
        <time>2021-08-22T14:59:23Z</time>
      </trkpt>
      <trkpt lat="45.69362" lon="5.79727">
        <ele>321.3</ele>
        <time>2021-08-22T14:59:24Z</time>
      </trkpt>
      <trkpt lat="45.69357" lon="5.79732">
        <ele>321.6</ele>
        <time>2021-08-22T14:59:26Z</time>
      </trkpt>
      <trkpt lat="45.69352" lon="5.79736">
        <ele>321.9</ele>
        <time>2021-08-22T14:59:27Z</time>
      </trkpt>
      <trkpt lat="45.69348" lon="5.7974">
        <ele>322.2</ele>
        <time>2021-08-22T14:59:28Z</time>
      </trkpt>
      <trkpt lat="45.69342" lon="5.79749">
        <ele>322.6</ele>
        <time>2021-08-22T14:59:30Z</time>
      </trkpt>
      <trkpt lat="45.69336" lon="5.79755">
        <ele>323</ele>
        <time>2021-08-22T14:59:31Z</time>
      </trkpt>
      <trkpt lat="45.69332" lon="5.79758">
        <ele>323.3</ele>
        <time>2021-08-22T14:59:33Z</time>
      </trkpt>
      <trkpt lat="45.69329" lon="5.79763">
        <ele>323.5</ele>
        <time>2021-08-22T14:59:34Z</time>
      </trkpt>
      <trkpt lat="45.69324" lon="5.79768">
        <ele>323.8</ele>
        <time>2021-08-22T14:59:35Z</time>
      </trkpt>
      <trkpt lat="45.69321" lon="5.79772">
        <ele>324.1</ele>
        <time>2021-08-22T14:59:37Z</time>
      </trkpt>
      <trkpt lat="45.69318" lon="5.79776">
        <ele>324.3</ele>
        <time>2021-08-22T14:59:39Z</time>
      </trkpt>
      <trkpt lat="45.69317" lon="5.79777">
        <ele>324.4</ele>
        <time>2021-08-22T14:59:40Z</time>
      </trkpt>
      <trkpt lat="45.69314" lon="5.79776">
        <ele>324.5</ele>
        <time>2021-08-22T14:59:42Z</time>
      </trkpt>
      <trkpt lat="45.69314" lon="5.79776">
        <ele>324.5</ele>
        <time>2021-08-22T14:59:44Z</time>
      </trkpt>
      <trkpt lat="45.69315" lon="5.79777">
        <ele>324.5</ele>
        <time>2021-08-22T14:59:46Z</time>
      </trkpt>
      <trkpt lat="45.69316" lon="5.79779">
        <ele>324.4</ele>
        <time>2021-08-22T14:59:48Z</time>
      </trkpt>
      <trkpt lat="45.69317" lon="5.79781">
        <ele>324.4</ele>
        <time>2021-08-22T14:59:50Z</time>
      </trkpt>
      <trkpt lat="45.69322" lon="5.7979">
        <ele>324.2</ele>
        <time>2021-08-22T14:59:54Z</time>
      </trkpt>
      <trkpt lat="45.69325" lon="5.79795">
        <ele>324</ele>
        <time>2021-08-22T14:59:55Z</time>
      </trkpt>
      <trkpt lat="45.69327" lon="5.79799">
        <ele>323.9</ele>
        <time>2021-08-22T14:59:56Z</time>
      </trkpt>
      <trkpt lat="45.6933" lon="5.79807">
        <ele>323.7</ele>
        <time>2021-08-22T14:59:57Z</time>
      </trkpt>
      <trkpt lat="45.69333" lon="5.79815">
        <ele>323.5</ele>
        <time>2021-08-22T14:59:59Z</time>
      </trkpt>
      <trkpt lat="45.69337" lon="5.79825">
        <ele>323.2</ele>
        <time>2021-08-22T15:00:01Z</time>
      </trkpt>
      <trkpt lat="45.69342" lon="5.79834">
        <ele>323</ele>
        <time>2021-08-22T15:00:03Z</time>
      </trkpt>
      <trkpt lat="45.69343" lon="5.79839">
        <ele>322.8</ele>
        <time>2021-08-22T15:00:04Z</time>
      </trkpt>
      <trkpt lat="45.69347" lon="5.79843">
        <ele>322.7</ele>
        <time>2021-08-22T15:00:05Z</time>
      </trkpt>
      <trkpt lat="45.69351" lon="5.79846">
        <ele>322.5</ele>
        <time>2021-08-22T15:00:06Z</time>
      </trkpt>
      <trkpt lat="45.69353" lon="5.7985">
        <ele>322.4</ele>
        <time>2021-08-22T15:00:07Z</time>
      </trkpt>
      <trkpt lat="45.69356" lon="5.79857">
        <ele>322.2</ele>
        <time>2021-08-22T15:00:09Z</time>
      </trkpt>
      <trkpt lat="45.6936" lon="5.79863">
        <ele>321.9</ele>
        <time>2021-08-22T15:00:10Z</time>
      </trkpt>
      <trkpt lat="45.69362" lon="5.79869">
        <ele>321.8</ele>
        <time>2021-08-22T15:00:11Z</time>
      </trkpt>
      <trkpt lat="45.69367" lon="5.79874">
        <ele>321.6</ele>
        <time>2021-08-22T15:00:12Z</time>
      </trkpt>
      <trkpt lat="45.69369" lon="5.79878">
        <ele>321.5</ele>
        <time>2021-08-22T15:00:13Z</time>
      </trkpt>
      <trkpt lat="45.69371" lon="5.79883">
        <ele>321.4</ele>
        <time>2021-08-22T15:00:14Z</time>
      </trkpt>
      <trkpt lat="45.69374" lon="5.79887">
        <ele>321.3</ele>
        <time>2021-08-22T15:00:15Z</time>
      </trkpt>
      <trkpt lat="45.69378" lon="5.79892">
        <ele>321.1</ele>
        <time>2021-08-22T15:00:17Z</time>
      </trkpt>
      <trkpt lat="45.69386" lon="5.79903">
        <ele>320.9</ele>
        <time>2021-08-22T15:00:19Z</time>
      </trkpt>
      <trkpt lat="45.6939" lon="5.79907">
        <ele>320.7</ele>
        <time>2021-08-22T15:00:20Z</time>
      </trkpt>
      <trkpt lat="45.69394" lon="5.7991">
        <ele>320.6</ele>
        <time>2021-08-22T15:00:21Z</time>
      </trkpt>
      <trkpt lat="45.69398" lon="5.79919">
        <ele>320.4</ele>
        <time>2021-08-22T15:00:23Z</time>
      </trkpt>
      <trkpt lat="45.69401" lon="5.79925">
        <ele>320.2</ele>
        <time>2021-08-22T15:00:24Z</time>
      </trkpt>
      <trkpt lat="45.69409" lon="5.79934">
        <ele>319.9</ele>
        <time>2021-08-22T15:00:26Z</time>
      </trkpt>
      <trkpt lat="45.69417" lon="5.79942">
        <ele>319.6</ele>
        <time>2021-08-22T15:00:28Z</time>
      </trkpt>
      <trkpt lat="45.69421" lon="5.79945">
        <ele>319.5</ele>
        <time>2021-08-22T15:00:29Z</time>
      </trkpt>
      <trkpt lat="45.6943" lon="5.79952">
        <ele>319.2</ele>
        <time>2021-08-22T15:00:31Z</time>
      </trkpt>
      <trkpt lat="45.69435" lon="5.79956">
        <ele>319</ele>
        <time>2021-08-22T15:00:32Z</time>
      </trkpt>
      <trkpt lat="45.69445" lon="5.79967">
        <ele>318.7</ele>
        <time>2021-08-22T15:00:34Z</time>
      </trkpt>
      <trkpt lat="45.6945" lon="5.79972">
        <ele>318.6</ele>
        <time>2021-08-22T15:00:35Z</time>
      </trkpt>
      <trkpt lat="45.69454" lon="5.79978">
        <ele>318.5</ele>
        <time>2021-08-22T15:00:36Z</time>
      </trkpt>
      <trkpt lat="45.69463" lon="5.7999">
        <ele>318.3</ele>
        <time>2021-08-22T15:00:38Z</time>
      </trkpt>
      <trkpt lat="45.69467" lon="5.79996">
        <ele>318.1</ele>
        <time>2021-08-22T15:00:39Z</time>
      </trkpt>
      <trkpt lat="45.69476" lon="5.80009">
        <ele>317.9</ele>
        <time>2021-08-22T15:00:41Z</time>
      </trkpt>
      <trkpt lat="45.6948" lon="5.80015">
        <ele>317.7</ele>
        <time>2021-08-22T15:00:42Z</time>
      </trkpt>
      <trkpt lat="45.69486" lon="5.80027">
        <ele>317.5</ele>
        <time>2021-08-22T15:00:44Z</time>
      </trkpt>
      <trkpt lat="45.69491" lon="5.80036">
        <ele>317.4</ele>
        <time>2021-08-22T15:00:46Z</time>
      </trkpt>
      <trkpt lat="45.69494" lon="5.8004">
        <ele>317.3</ele>
        <time>2021-08-22T15:00:47Z</time>
      </trkpt>
      <trkpt lat="45.69498" lon="5.80046">
        <ele>317.2</ele>
        <time>2021-08-22T15:00:48Z</time>
      </trkpt>
      <trkpt lat="45.69502" lon="5.80052">
        <ele>317.1</ele>
        <time>2021-08-22T15:00:49Z</time>
      </trkpt>
      <trkpt lat="45.69506" lon="5.80057">
        <ele>317</ele>
        <time>2021-08-22T15:00:50Z</time>
      </trkpt>
      <trkpt lat="45.69515" lon="5.80065">
        <ele>316.8</ele>
        <time>2021-08-22T15:00:52Z</time>
      </trkpt>
      <trkpt lat="45.6952" lon="5.80069">
        <ele>316.6</ele>
        <time>2021-08-22T15:00:53Z</time>
      </trkpt>
      <trkpt lat="45.6953" lon="5.80076">
        <ele>316.3</ele>
        <time>2021-08-22T15:00:55Z</time>
      </trkpt>
      <trkpt lat="45.69542" lon="5.80082">
        <ele>315.6</ele>
        <time>2021-08-22T15:00:57Z</time>
      </trkpt>
      <trkpt lat="45.69554" lon="5.8009">
        <ele>314.7</ele>
        <time>2021-08-22T15:00:59Z</time>
      </trkpt>
      <trkpt lat="45.69566" lon="5.80099">
        <ele>313.5</ele>
        <time>2021-08-22T15:01:01Z</time>
      </trkpt>
      <trkpt lat="45.69578" lon="5.80114">
        <ele>312.3</ele>
        <time>2021-08-22T15:01:03Z</time>
      </trkpt>
      <trkpt lat="45.69589" lon="5.80127">
        <ele>311.1</ele>
        <time>2021-08-22T15:01:05Z</time>
      </trkpt>
      <trkpt lat="45.69595" lon="5.80135">
        <ele>310.4</ele>
        <time>2021-08-22T15:01:06Z</time>
      </trkpt>
      <trkpt lat="45.69608" lon="5.80152">
        <ele>309</ele>
        <time>2021-08-22T15:01:08Z</time>
      </trkpt>
      <trkpt lat="45.69613" lon="5.80161">
        <ele>308.2</ele>
        <time>2021-08-22T15:01:09Z</time>
      </trkpt>
      <trkpt lat="45.69625" lon="5.80178">
        <ele>306.6</ele>
        <time>2021-08-22T15:01:11Z</time>
      </trkpt>
      <trkpt lat="45.69632" lon="5.80185">
        <ele>305.7</ele>
        <time>2021-08-22T15:01:12Z</time>
      </trkpt>
      <trkpt lat="45.69644" lon="5.80195">
        <ele>304.3</ele>
        <time>2021-08-22T15:01:14Z</time>
      </trkpt>
      <trkpt lat="45.69652" lon="5.80202">
        <ele>303.2</ele>
        <time>2021-08-22T15:01:16Z</time>
      </trkpt>
      <trkpt lat="45.6966" lon="5.80208">
        <ele>302.5</ele>
        <time>2021-08-22T15:01:18Z</time>
      </trkpt>
      <trkpt lat="45.69665" lon="5.80213">
        <ele>301.9</ele>
        <time>2021-08-22T15:01:20Z</time>
      </trkpt>
      <trkpt lat="45.69669" lon="5.80218">
        <ele>301.5</ele>
        <time>2021-08-22T15:01:22Z</time>
      </trkpt>
      <trkpt lat="45.69672" lon="5.8022">
        <ele>301.3</ele>
        <time>2021-08-22T15:01:23Z</time>
      </trkpt>
      <trkpt lat="45.69677" lon="5.80222">
        <ele>300.9</ele>
        <time>2021-08-22T15:01:24Z</time>
      </trkpt>
      <trkpt lat="45.69686" lon="5.80226">
        <ele>300.3</ele>
        <time>2021-08-22T15:01:26Z</time>
      </trkpt>
      <trkpt lat="45.69689" lon="5.80228">
        <ele>300.1</ele>
        <time>2021-08-22T15:01:27Z</time>
      </trkpt>
      <trkpt lat="45.69692" lon="5.8023">
        <ele>300</ele>
        <time>2021-08-22T15:01:28Z</time>
      </trkpt>
      <trkpt lat="45.69696" lon="5.80233">
        <ele>299.8</ele>
        <time>2021-08-22T15:01:29Z</time>
      </trkpt>
      <trkpt lat="45.69701" lon="5.80237">
        <ele>299.8</ele>
        <time>2021-08-22T15:01:31Z</time>
      </trkpt>
      <trkpt lat="45.69706" lon="5.80237">
        <ele>299.8</ele>
        <time>2021-08-22T15:01:32Z</time>
      </trkpt>
      <trkpt lat="45.69714" lon="5.80236">
        <ele>299.8</ele>
        <time>2021-08-22T15:01:34Z</time>
      </trkpt>
      <trkpt lat="45.69719" lon="5.80231">
        <ele>299.8</ele>
        <time>2021-08-22T15:01:35Z</time>
      </trkpt>
      <trkpt lat="45.69722" lon="5.80228">
        <ele>299.7</ele>
        <time>2021-08-22T15:01:36Z</time>
      </trkpt>
      <trkpt lat="45.69726" lon="5.80222">
        <ele>299.7</ele>
        <time>2021-08-22T15:01:38Z</time>
      </trkpt>
      <trkpt lat="45.6973" lon="5.80196">
        <ele>299.5</ele>
        <time>2021-08-22T15:01:40Z</time>
      </trkpt>
      <trkpt lat="45.69729" lon="5.8017">
        <ele>299.4</ele>
        <time>2021-08-22T15:01:42Z</time>
      </trkpt>
      <trkpt lat="45.69722" lon="5.80144">
        <ele>299.2</ele>
        <time>2021-08-22T15:01:44Z</time>
      </trkpt>
      <trkpt lat="45.69711" lon="5.80117">
        <ele>299</ele>
        <time>2021-08-22T15:01:46Z</time>
      </trkpt>
      <trkpt lat="45.69707" lon="5.80105">
        <ele>298.9</ele>
        <time>2021-08-22T15:01:47Z</time>
      </trkpt>
      <trkpt lat="45.69705" lon="5.80093">
        <ele>298.8</ele>
        <time>2021-08-22T15:01:48Z</time>
      </trkpt>
      <trkpt lat="45.69702" lon="5.80071">
        <ele>298.4</ele>
        <time>2021-08-22T15:01:50Z</time>
      </trkpt>
      <trkpt lat="45.69699" lon="5.8005">
        <ele>298.1</ele>
        <time>2021-08-22T15:01:52Z</time>
      </trkpt>
      <trkpt lat="45.69698" lon="5.80039">
        <ele>297.8</ele>
        <time>2021-08-22T15:01:53Z</time>
      </trkpt>
      <trkpt lat="45.69696" lon="5.80017">
        <ele>297.4</ele>
        <time>2021-08-22T15:01:55Z</time>
      </trkpt>
      <trkpt lat="45.69695" lon="5.79993">
        <ele>296.9</ele>
        <time>2021-08-22T15:01:57Z</time>
      </trkpt>
      <trkpt lat="45.69692" lon="5.79981">
        <ele>296.7</ele>
        <time>2021-08-22T15:01:58Z</time>
      </trkpt>
      <trkpt lat="45.69685" lon="5.79959">
        <ele>296.3</ele>
        <time>2021-08-22T15:02:00Z</time>
      </trkpt>
      <trkpt lat="45.69682" lon="5.79947">
        <ele>296.1</ele>
        <time>2021-08-22T15:02:01Z</time>
      </trkpt>
      <trkpt lat="45.69678" lon="5.79924">
        <ele>295.6</ele>
        <time>2021-08-22T15:02:03Z</time>
      </trkpt>
      <trkpt lat="45.69676" lon="5.79913">
        <ele>295.4</ele>
        <time>2021-08-22T15:02:04Z</time>
      </trkpt>
      <trkpt lat="45.69672" lon="5.79889">
        <ele>295</ele>
        <time>2021-08-22T15:02:06Z</time>
      </trkpt>
      <trkpt lat="45.69668" lon="5.79867">
        <ele>294.6</ele>
        <time>2021-08-22T15:02:08Z</time>
      </trkpt>
      <trkpt lat="45.69667" lon="5.79856">
        <ele>294.3</ele>
        <time>2021-08-22T15:02:09Z</time>
      </trkpt>
      <trkpt lat="45.69665" lon="5.79845">
        <ele>294.1</ele>
        <time>2021-08-22T15:02:10Z</time>
      </trkpt>
      <trkpt lat="45.69665" lon="5.79822">
        <ele>293.6</ele>
        <time>2021-08-22T15:02:12Z</time>
      </trkpt>
      <trkpt lat="45.69665" lon="5.79799">
        <ele>293.3</ele>
        <time>2021-08-22T15:02:14Z</time>
      </trkpt>
      <trkpt lat="45.69664" lon="5.79775">
        <ele>292.9</ele>
        <time>2021-08-22T15:02:16Z</time>
      </trkpt>
      <trkpt lat="45.69664" lon="5.79764">
        <ele>292.7</ele>
        <time>2021-08-22T15:02:17Z</time>
      </trkpt>
      <trkpt lat="45.69661" lon="5.79742">
        <ele>292.4</ele>
        <time>2021-08-22T15:02:19Z</time>
      </trkpt>
      <trkpt lat="45.6966" lon="5.79732">
        <ele>292.2</ele>
        <time>2021-08-22T15:02:20Z</time>
      </trkpt>
      <trkpt lat="45.69657" lon="5.79711">
        <ele>291.9</ele>
        <time>2021-08-22T15:02:22Z</time>
      </trkpt>
      <trkpt lat="45.69656" lon="5.79701">
        <ele>291.8</ele>
        <time>2021-08-22T15:02:23Z</time>
      </trkpt>
      <trkpt lat="45.69655" lon="5.79691">
        <ele>291.6</ele>
        <time>2021-08-22T15:02:24Z</time>
      </trkpt>
      <trkpt lat="45.69654" lon="5.79671">
        <ele>291.2</ele>
        <time>2021-08-22T15:02:26Z</time>
      </trkpt>
      <trkpt lat="45.69652" lon="5.79658">
        <ele>291</ele>
        <time>2021-08-22T15:02:28Z</time>
      </trkpt>
      <trkpt lat="45.6965" lon="5.7965">
        <ele>290.8</ele>
        <time>2021-08-22T15:02:29Z</time>
      </trkpt>
      <trkpt lat="45.69648" lon="5.79639">
        <ele>290.5</ele>
        <time>2021-08-22T15:02:30Z</time>
      </trkpt>
      <trkpt lat="45.69644" lon="5.79614">
        <ele>290</ele>
        <time>2021-08-22T15:02:32Z</time>
      </trkpt>
      <trkpt lat="45.69639" lon="5.79593">
        <ele>289.6</ele>
        <time>2021-08-22T15:02:34Z</time>
      </trkpt>
      <trkpt lat="45.69637" lon="5.79582">
        <ele>289.4</ele>
        <time>2021-08-22T15:02:35Z</time>
      </trkpt>
      <trkpt lat="45.69635" lon="5.79571">
        <ele>289.2</ele>
        <time>2021-08-22T15:02:36Z</time>
      </trkpt>
      <trkpt lat="45.69633" lon="5.79561">
        <ele>289</ele>
        <time>2021-08-22T15:02:37Z</time>
      </trkpt>
      <trkpt lat="45.69631" lon="5.79549">
        <ele>288.7</ele>
        <time>2021-08-22T15:02:38Z</time>
      </trkpt>
      <trkpt lat="45.69627" lon="5.79525">
        <ele>288.2</ele>
        <time>2021-08-22T15:02:40Z</time>
      </trkpt>
      <trkpt lat="45.69626" lon="5.79512">
        <ele>288.1</ele>
        <time>2021-08-22T15:02:41Z</time>
      </trkpt>
      <trkpt lat="45.69626" lon="5.795">
        <ele>288</ele>
        <time>2021-08-22T15:02:42Z</time>
      </trkpt>
      <trkpt lat="45.69622" lon="5.79478">
        <ele>287.7</ele>
        <time>2021-08-22T15:02:44Z</time>
      </trkpt>
      <trkpt lat="45.69621" lon="5.79458">
        <ele>287.5</ele>
        <time>2021-08-22T15:02:46Z</time>
      </trkpt>
      <trkpt lat="45.69621" lon="5.79437">
        <ele>287.3</ele>
        <time>2021-08-22T15:02:48Z</time>
      </trkpt>
      <trkpt lat="45.69621" lon="5.79426">
        <ele>287.2</ele>
        <time>2021-08-22T15:02:49Z</time>
      </trkpt>
      <trkpt lat="45.69621" lon="5.79414">
        <ele>287.1</ele>
        <time>2021-08-22T15:02:50Z</time>
      </trkpt>
      <trkpt lat="45.6962" lon="5.79393">
        <ele>286.9</ele>
        <time>2021-08-22T15:02:52Z</time>
      </trkpt>
      <trkpt lat="45.69621" lon="5.79383">
        <ele>286.8</ele>
        <time>2021-08-22T15:02:53Z</time>
      </trkpt>
      <trkpt lat="45.69626" lon="5.79362">
        <ele>286.6</ele>
        <time>2021-08-22T15:02:55Z</time>
      </trkpt>
      <trkpt lat="45.69628" lon="5.79352">
        <ele>286.6</ele>
        <time>2021-08-22T15:02:56Z</time>
      </trkpt>
      <trkpt lat="45.6963" lon="5.79344">
        <ele>286.5</ele>
        <time>2021-08-22T15:02:57Z</time>
      </trkpt>
      <trkpt lat="45.69633" lon="5.79334">
        <ele>286.4</ele>
        <time>2021-08-22T15:02:58Z</time>
      </trkpt>
      <trkpt lat="45.69636" lon="5.79325">
        <ele>286.3</ele>
        <time>2021-08-22T15:02:59Z</time>
      </trkpt>
      <trkpt lat="45.69638" lon="5.79317">
        <ele>286.3</ele>
        <time>2021-08-22T15:03:00Z</time>
      </trkpt>
      <trkpt lat="45.69646" lon="5.79302">
        <ele>286.2</ele>
        <time>2021-08-22T15:03:02Z</time>
      </trkpt>
      <trkpt lat="45.69651" lon="5.79298">
        <ele>286.1</ele>
        <time>2021-08-22T15:03:03Z</time>
      </trkpt>
      <trkpt lat="45.69663" lon="5.79302">
        <ele>286</ele>
        <time>2021-08-22T15:03:05Z</time>
      </trkpt>
      <trkpt lat="45.69668" lon="5.79301">
        <ele>286</ele>
        <time>2021-08-22T15:03:06Z</time>
      </trkpt>
      <trkpt lat="45.69681" lon="5.79297">
        <ele>285.9</ele>
        <time>2021-08-22T15:03:08Z</time>
      </trkpt>
      <trkpt lat="45.69696" lon="5.79293">
        <ele>285.8</ele>
        <time>2021-08-22T15:03:10Z</time>
      </trkpt>
      <trkpt lat="45.69706" lon="5.79296">
        <ele>285.7</ele>
        <time>2021-08-22T15:03:12Z</time>
      </trkpt>
      <trkpt lat="45.69714" lon="5.793">
        <ele>285.7</ele>
        <time>2021-08-22T15:03:14Z</time>
      </trkpt>
      <trkpt lat="45.69719" lon="5.79303">
        <ele>285.6</ele>
        <time>2021-08-22T15:03:15Z</time>
      </trkpt>
      <trkpt lat="45.69733" lon="5.79313">
        <ele>285.6</ele>
        <time>2021-08-22T15:03:17Z</time>
      </trkpt>
      <trkpt lat="45.69758" lon="5.79339">
        <ele>285.3</ele>
        <time>2021-08-22T15:03:19Z</time>
      </trkpt>
      <trkpt lat="45.69768" lon="5.79349">
        <ele>285.2</ele>
        <time>2021-08-22T15:03:20Z</time>
      </trkpt>
      <trkpt lat="45.69785" lon="5.79366">
        <ele>284.9</ele>
        <time>2021-08-22T15:03:22Z</time>
      </trkpt>
      <trkpt lat="45.69792" lon="5.79374">
        <ele>284.8</ele>
        <time>2021-08-22T15:03:23Z</time>
      </trkpt>
      <trkpt lat="45.69798" lon="5.79381">
        <ele>284.8</ele>
        <time>2021-08-22T15:03:24Z</time>
      </trkpt>
      <trkpt lat="45.69807" lon="5.79395">
        <ele>284.7</ele>
        <time>2021-08-22T15:03:26Z</time>
      </trkpt>
      <trkpt lat="45.69818" lon="5.79413">
        <ele>284.6</ele>
        <time>2021-08-22T15:03:28Z</time>
      </trkpt>
      <trkpt lat="45.69827" lon="5.79429">
        <ele>284.5</ele>
        <time>2021-08-22T15:03:30Z</time>
      </trkpt>
      <trkpt lat="45.69829" lon="5.79433">
        <ele>284.5</ele>
        <time>2021-08-22T15:03:31Z</time>
      </trkpt>
      <trkpt lat="45.69831" lon="5.79437">
        <ele>284.5</ele>
        <time>2021-08-22T15:03:32Z</time>
      </trkpt>
      <trkpt lat="45.69832" lon="5.79445">
        <ele>284.4</ele>
        <time>2021-08-22T15:03:34Z</time>
      </trkpt>
      <trkpt lat="45.69832" lon="5.79449">
        <ele>284.4</ele>
        <time>2021-08-22T15:03:35Z</time>
      </trkpt>
      <trkpt lat="45.69833" lon="5.79454">
        <ele>284.4</ele>
        <time>2021-08-22T15:03:36Z</time>
      </trkpt>
      <trkpt lat="45.69832" lon="5.79459">
        <ele>284.4</ele>
        <time>2021-08-22T15:03:38Z</time>
      </trkpt>
      <trkpt lat="45.69838" lon="5.7946">
        <ele>284.4</ele>
        <time>2021-08-22T15:03:40Z</time>
      </trkpt>
      <trkpt lat="45.69843" lon="5.79459">
        <ele>284.3</ele>
        <time>2021-08-22T15:03:41Z</time>
      </trkpt>
      <trkpt lat="45.69874" lon="5.79444">
        <ele>284.1</ele>
        <time>2021-08-22T15:03:42Z</time>
      </trkpt>
      <trkpt lat="45.69883" lon="5.79441">
        <ele>284</ele>
        <time>2021-08-22T15:03:44Z</time>
      </trkpt>
      <trkpt lat="45.69886" lon="5.7944">
        <ele>284</ele>
        <time>2021-08-22T15:03:45Z</time>
      </trkpt>
      <trkpt lat="45.69894" lon="5.79438">
        <ele>283.9</ele>
        <time>2021-08-22T15:03:47Z</time>
      </trkpt>
      <trkpt lat="45.69899" lon="5.79437">
        <ele>283.9</ele>
        <time>2021-08-22T15:03:49Z</time>
      </trkpt>
      <trkpt lat="45.69903" lon="5.79436">
        <ele>283.9</ele>
        <time>2021-08-22T15:03:50Z</time>
      </trkpt>
      <trkpt lat="45.69904" lon="5.79436">
        <ele>283.9</ele>
        <time>2021-08-22T15:03:51Z</time>
      </trkpt>
      <trkpt lat="45.69918" lon="5.79431">
        <ele>283.9</ele>
        <time>2021-08-22T15:03:53Z</time>
      </trkpt>
      <trkpt lat="45.70026" lon="5.79363">
        <ele>281.3</ele>
        <time>2021-08-22T15:04:01Z</time>
      </trkpt>
      <trkpt lat="45.70038" lon="5.7935">
        <ele>280.8</ele>
        <time>2021-08-22T15:04:02Z</time>
      </trkpt>
      <trkpt lat="45.70063" lon="5.79322">
        <ele>279.7</ele>
        <time>2021-08-22T15:04:04Z</time>
      </trkpt>
      <trkpt lat="45.70077" lon="5.79311">
        <ele>279.1</ele>
        <time>2021-08-22T15:04:05Z</time>
      </trkpt>
      <trkpt lat="45.70099" lon="5.79295">
        <ele>278.1</ele>
        <time>2021-08-22T15:04:07Z</time>
      </trkpt>
      <trkpt lat="45.7011" lon="5.7929">
        <ele>277.6</ele>
        <time>2021-08-22T15:04:08Z</time>
      </trkpt>
      <trkpt lat="45.7013" lon="5.79281">
        <ele>276.8</ele>
        <time>2021-08-22T15:04:10Z</time>
      </trkpt>
      <trkpt lat="45.7015" lon="5.7927">
        <ele>276.1</ele>
        <time>2021-08-22T15:04:12Z</time>
      </trkpt>
      <trkpt lat="45.70159" lon="5.79264">
        <ele>275.7</ele>
        <time>2021-08-22T15:04:13Z</time>
      </trkpt>
      <trkpt lat="45.70168" lon="5.79258">
        <ele>275.3</ele>
        <time>2021-08-22T15:04:14Z</time>
      </trkpt>
      <trkpt lat="45.70186" lon="5.79241">
        <ele>274.5</ele>
        <time>2021-08-22T15:04:16Z</time>
      </trkpt>
      <trkpt lat="45.70204" lon="5.79223">
        <ele>273.7</ele>
        <time>2021-08-22T15:04:18Z</time>
      </trkpt>
      <trkpt lat="45.70204" lon="5.79215">
        <ele>273.4</ele>
        <time>2021-08-22T15:04:20Z</time>
      </trkpt>
      <trkpt lat="45.70205" lon="5.7921">
        <ele>273.3</ele>
        <time>2021-08-22T15:04:21Z</time>
      </trkpt>
      <trkpt lat="45.70205" lon="5.79208">
        <ele>273.2</ele>
        <time>2021-08-22T15:04:22Z</time>
      </trkpt>
      <trkpt lat="45.70207" lon="5.792">
        <ele>273</ele>
        <time>2021-08-22T15:04:23Z</time>
      </trkpt>
      <trkpt lat="45.70207" lon="5.79187">
        <ele>272.6</ele>
        <time>2021-08-22T15:04:24Z</time>
      </trkpt>
      <trkpt lat="45.70207" lon="5.79179">
        <ele>272.4</ele>
        <time>2021-08-22T15:04:25Z</time>
      </trkpt>
      <trkpt lat="45.70216" lon="5.79138">
        <ele>271.4</ele>
        <time>2021-08-22T15:04:27Z</time>
      </trkpt>
      <trkpt lat="45.70228" lon="5.79092">
        <ele>270.3</ele>
        <time>2021-08-22T15:04:29Z</time>
      </trkpt>
      <trkpt lat="45.70233" lon="5.79076">
        <ele>269.9</ele>
        <time>2021-08-22T15:04:30Z</time>
      </trkpt>
      <trkpt lat="45.70244" lon="5.79045">
        <ele>269</ele>
        <time>2021-08-22T15:04:32Z</time>
      </trkpt>
      <trkpt lat="45.70253" lon="5.79018">
        <ele>268.3</ele>
        <time>2021-08-22T15:04:34Z</time>
      </trkpt>
      <trkpt lat="45.70258" lon="5.79006">
        <ele>268</ele>
        <time>2021-08-22T15:04:35Z</time>
      </trkpt>
      <trkpt lat="45.70261" lon="5.78995">
        <ele>267.6</ele>
        <time>2021-08-22T15:04:36Z</time>
      </trkpt>
      <trkpt lat="45.70269" lon="5.78973">
        <ele>267</ele>
        <time>2021-08-22T15:04:38Z</time>
      </trkpt>
      <trkpt lat="45.70277" lon="5.7895">
        <ele>266.4</ele>
        <time>2021-08-22T15:04:40Z</time>
      </trkpt>
      <trkpt lat="45.70279" lon="5.78938">
        <ele>266.2</ele>
        <time>2021-08-22T15:04:41Z</time>
      </trkpt>
      <trkpt lat="45.70281" lon="5.78928">
        <ele>265.9</ele>
        <time>2021-08-22T15:04:42Z</time>
      </trkpt>
      <trkpt lat="45.70286" lon="5.78907">
        <ele>265.5</ele>
        <time>2021-08-22T15:04:44Z</time>
      </trkpt>
      <trkpt lat="45.70288" lon="5.78897">
        <ele>265.3</ele>
        <time>2021-08-22T15:04:45Z</time>
      </trkpt>
      <trkpt lat="45.70291" lon="5.78874">
        <ele>264.8</ele>
        <time>2021-08-22T15:04:47Z</time>
      </trkpt>
      <trkpt lat="45.70293" lon="5.78863">
        <ele>264.5</ele>
        <time>2021-08-22T15:04:48Z</time>
      </trkpt>
      <trkpt lat="45.70298" lon="5.78841">
        <ele>264.1</ele>
        <time>2021-08-22T15:04:50Z</time>
      </trkpt>
      <trkpt lat="45.70305" lon="5.78819">
        <ele>263.7</ele>
        <time>2021-08-22T15:04:52Z</time>
      </trkpt>
      <trkpt lat="45.70309" lon="5.78807">
        <ele>263.6</ele>
        <time>2021-08-22T15:04:53Z</time>
      </trkpt>
      <trkpt lat="45.70312" lon="5.78795">
        <ele>263.5</ele>
        <time>2021-08-22T15:04:54Z</time>
      </trkpt>
      <trkpt lat="45.70319" lon="5.78772">
        <ele>263.3</ele>
        <time>2021-08-22T15:04:56Z</time>
      </trkpt>
      <trkpt lat="45.70326" lon="5.78751">
        <ele>263.1</ele>
        <time>2021-08-22T15:04:58Z</time>
      </trkpt>
      <trkpt lat="45.70329" lon="5.78741">
        <ele>263</ele>
        <time>2021-08-22T15:04:59Z</time>
      </trkpt>
      <trkpt lat="45.70332" lon="5.78731">
        <ele>262.9</ele>
        <time>2021-08-22T15:05:00Z</time>
      </trkpt>
      <trkpt lat="45.70334" lon="5.78709">
        <ele>262.6</ele>
        <time>2021-08-22T15:05:02Z</time>
      </trkpt>
      <trkpt lat="45.70335" lon="5.78687">
        <ele>262.4</ele>
        <time>2021-08-22T15:05:04Z</time>
      </trkpt>
      <trkpt lat="45.70334" lon="5.78676">
        <ele>262.3</ele>
        <time>2021-08-22T15:05:05Z</time>
      </trkpt>
      <trkpt lat="45.70334" lon="5.78664">
        <ele>262.1</ele>
        <time>2021-08-22T15:05:06Z</time>
      </trkpt>
      <trkpt lat="45.70336" lon="5.78643">
        <ele>261.9</ele>
        <time>2021-08-22T15:05:08Z</time>
      </trkpt>
      <trkpt lat="45.70336" lon="5.78622">
        <ele>261.7</ele>
        <time>2021-08-22T15:05:10Z</time>
      </trkpt>
      <trkpt lat="45.70339" lon="5.78603">
        <ele>261.6</ele>
        <time>2021-08-22T15:05:12Z</time>
      </trkpt>
      <trkpt lat="45.7034" lon="5.78592">
        <ele>261.5</ele>
        <time>2021-08-22T15:05:13Z</time>
      </trkpt>
      <trkpt lat="45.7034" lon="5.78582">
        <ele>261.4</ele>
        <time>2021-08-22T15:05:14Z</time>
      </trkpt>
      <trkpt lat="45.70342" lon="5.78561">
        <ele>261.1</ele>
        <time>2021-08-22T15:05:16Z</time>
      </trkpt>
      <trkpt lat="45.70345" lon="5.7854">
        <ele>260.8</ele>
        <time>2021-08-22T15:05:18Z</time>
      </trkpt>
      <trkpt lat="45.7035" lon="5.78518">
        <ele>260.4</ele>
        <time>2021-08-22T15:05:20Z</time>
      </trkpt>
      <trkpt lat="45.70355" lon="5.78497">
        <ele>260</ele>
        <time>2021-08-22T15:05:22Z</time>
      </trkpt>
      <trkpt lat="45.70359" lon="5.78476">
        <ele>259.6</ele>
        <time>2021-08-22T15:05:24Z</time>
      </trkpt>
      <trkpt lat="45.70361" lon="5.78454">
        <ele>259.2</ele>
        <time>2021-08-22T15:05:26Z</time>
      </trkpt>
      <trkpt lat="45.70361" lon="5.78433">
        <ele>258.8</ele>
        <time>2021-08-22T15:05:28Z</time>
      </trkpt>
      <trkpt lat="45.70359" lon="5.78409">
        <ele>258.4</ele>
        <time>2021-08-22T15:05:30Z</time>
      </trkpt>
      <trkpt lat="45.70357" lon="5.78398">
        <ele>258.1</ele>
        <time>2021-08-22T15:05:31Z</time>
      </trkpt>
      <trkpt lat="45.70356" lon="5.78387">
        <ele>257.9</ele>
        <time>2021-08-22T15:05:32Z</time>
      </trkpt>
      <trkpt lat="45.70357" lon="5.78366">
        <ele>257.4</ele>
        <time>2021-08-22T15:05:34Z</time>
      </trkpt>
      <trkpt lat="45.70358" lon="5.78355">
        <ele>257.1</ele>
        <time>2021-08-22T15:05:35Z</time>
      </trkpt>
      <trkpt lat="45.70358" lon="5.78334">
        <ele>256.7</ele>
        <time>2021-08-22T15:05:37Z</time>
      </trkpt>
      <trkpt lat="45.70358" lon="5.78323">
        <ele>256.5</ele>
        <time>2021-08-22T15:05:38Z</time>
      </trkpt>
      <trkpt lat="45.7036" lon="5.78302">
        <ele>256.1</ele>
        <time>2021-08-22T15:05:40Z</time>
      </trkpt>
      <trkpt lat="45.70363" lon="5.78278">
        <ele>255.7</ele>
        <time>2021-08-22T15:05:42Z</time>
      </trkpt>
      <trkpt lat="45.70363" lon="5.78265">
        <ele>255.4</ele>
        <time>2021-08-22T15:05:43Z</time>
      </trkpt>
      <trkpt lat="45.70363" lon="5.78253">
        <ele>255.2</ele>
        <time>2021-08-22T15:05:44Z</time>
      </trkpt>
      <trkpt lat="45.70361" lon="5.7823">
        <ele>254.7</ele>
        <time>2021-08-22T15:05:46Z</time>
      </trkpt>
      <trkpt lat="45.70359" lon="5.78219">
        <ele>254.4</ele>
        <time>2021-08-22T15:05:47Z</time>
      </trkpt>
      <trkpt lat="45.70355" lon="5.78198">
        <ele>253.9</ele>
        <time>2021-08-22T15:05:49Z</time>
      </trkpt>
      <trkpt lat="45.70352" lon="5.78187">
        <ele>253.7</ele>
        <time>2021-08-22T15:05:50Z</time>
      </trkpt>
      <trkpt lat="45.70346" lon="5.78167">
        <ele>253.2</ele>
        <time>2021-08-22T15:05:52Z</time>
      </trkpt>
      <trkpt lat="45.70342" lon="5.78157">
        <ele>253</ele>
        <time>2021-08-22T15:05:53Z</time>
      </trkpt>
      <trkpt lat="45.70339" lon="5.78147">
        <ele>252.8</ele>
        <time>2021-08-22T15:05:54Z</time>
      </trkpt>
      <trkpt lat="45.70337" lon="5.78137">
        <ele>252.6</ele>
        <time>2021-08-22T15:05:55Z</time>
      </trkpt>
      <trkpt lat="45.70333" lon="5.78116">
        <ele>252.2</ele>
        <time>2021-08-22T15:05:57Z</time>
      </trkpt>
      <trkpt lat="45.7033" lon="5.78106">
        <ele>252.1</ele>
        <time>2021-08-22T15:05:58Z</time>
      </trkpt>
      <trkpt lat="45.70327" lon="5.78095">
        <ele>252</ele>
        <time>2021-08-22T15:05:59Z</time>
      </trkpt>
      <trkpt lat="45.70324" lon="5.78084">
        <ele>251.8</ele>
        <time>2021-08-22T15:06:00Z</time>
      </trkpt>
      <trkpt lat="45.70322" lon="5.78074">
        <ele>251.5</ele>
        <time>2021-08-22T15:06:01Z</time>
      </trkpt>
      <trkpt lat="45.70319" lon="5.78063">
        <ele>251.3</ele>
        <time>2021-08-22T15:06:02Z</time>
      </trkpt>
      <trkpt lat="45.70316" lon="5.78043">
        <ele>250.9</ele>
        <time>2021-08-22T15:06:04Z</time>
      </trkpt>
      <trkpt lat="45.70314" lon="5.78034">
        <ele>250.7</ele>
        <time>2021-08-22T15:06:05Z</time>
      </trkpt>
      <trkpt lat="45.70314" lon="5.78024">
        <ele>250.5</ele>
        <time>2021-08-22T15:06:06Z</time>
      </trkpt>
      <trkpt lat="45.70314" lon="5.78012">
        <ele>250.3</ele>
        <time>2021-08-22T15:06:07Z</time>
      </trkpt>
      <trkpt lat="45.70313" lon="5.78001">
        <ele>250.1</ele>
        <time>2021-08-22T15:06:08Z</time>
      </trkpt>
      <trkpt lat="45.70311" lon="5.77979">
        <ele>249.7</ele>
        <time>2021-08-22T15:06:10Z</time>
      </trkpt>
      <trkpt lat="45.70308" lon="5.7796">
        <ele>249.4</ele>
        <time>2021-08-22T15:06:12Z</time>
      </trkpt>
      <trkpt lat="45.7031" lon="5.77941">
        <ele>249</ele>
        <time>2021-08-22T15:06:14Z</time>
      </trkpt>
      <trkpt lat="45.70309" lon="5.77922">
        <ele>248.6</ele>
        <time>2021-08-22T15:06:16Z</time>
      </trkpt>
      <trkpt lat="45.70306" lon="5.77902">
        <ele>248.2</ele>
        <time>2021-08-22T15:06:18Z</time>
      </trkpt>
      <trkpt lat="45.70304" lon="5.77881">
        <ele>247.8</ele>
        <time>2021-08-22T15:06:20Z</time>
      </trkpt>
      <trkpt lat="45.70302" lon="5.77863">
        <ele>247.5</ele>
        <time>2021-08-22T15:06:22Z</time>
      </trkpt>
      <trkpt lat="45.70301" lon="5.77853">
        <ele>247.3</ele>
        <time>2021-08-22T15:06:23Z</time>
      </trkpt>
      <trkpt lat="45.70299" lon="5.77834">
        <ele>247</ele>
        <time>2021-08-22T15:06:25Z</time>
      </trkpt>
      <trkpt lat="45.703" lon="5.77824">
        <ele>246.8</ele>
        <time>2021-08-22T15:06:26Z</time>
      </trkpt>
      <trkpt lat="45.70299" lon="5.77805">
        <ele>246.5</ele>
        <time>2021-08-22T15:06:28Z</time>
      </trkpt>
      <trkpt lat="45.70297" lon="5.77797">
        <ele>246.3</ele>
        <time>2021-08-22T15:06:29Z</time>
      </trkpt>
      <trkpt lat="45.70296" lon="5.77788">
        <ele>246.2</ele>
        <time>2021-08-22T15:06:30Z</time>
      </trkpt>
      <trkpt lat="45.70295" lon="5.77767">
        <ele>245.8</ele>
        <time>2021-08-22T15:06:32Z</time>
      </trkpt>
      <trkpt lat="45.70295" lon="5.77747">
        <ele>245.5</ele>
        <time>2021-08-22T15:06:34Z</time>
      </trkpt>
      <trkpt lat="45.70295" lon="5.77738">
        <ele>245.4</ele>
        <time>2021-08-22T15:06:35Z</time>
      </trkpt>
      <trkpt lat="45.70295" lon="5.77729">
        <ele>245.2</ele>
        <time>2021-08-22T15:06:36Z</time>
      </trkpt>
      <trkpt lat="45.70296" lon="5.77709">
        <ele>245</ele>
        <time>2021-08-22T15:06:38Z</time>
      </trkpt>
      <trkpt lat="45.70294" lon="5.77691">
        <ele>244.8</ele>
        <time>2021-08-22T15:06:40Z</time>
      </trkpt>
      <trkpt lat="45.70293" lon="5.77672">
        <ele>244.5</ele>
        <time>2021-08-22T15:06:42Z</time>
      </trkpt>
      <trkpt lat="45.70292" lon="5.77663">
        <ele>244.3</ele>
        <time>2021-08-22T15:06:43Z</time>
      </trkpt>
      <trkpt lat="45.70293" lon="5.77654">
        <ele>244.2</ele>
        <time>2021-08-22T15:06:44Z</time>
      </trkpt>
      <trkpt lat="45.70294" lon="5.77636">
        <ele>243.9</ele>
        <time>2021-08-22T15:06:46Z</time>
      </trkpt>
      <trkpt lat="45.70294" lon="5.77627">
        <ele>243.8</ele>
        <time>2021-08-22T15:06:47Z</time>
      </trkpt>
      <trkpt lat="45.70297" lon="5.7761">
        <ele>243.6</ele>
        <time>2021-08-22T15:06:49Z</time>
      </trkpt>
      <trkpt lat="45.70298" lon="5.77601">
        <ele>243.5</ele>
        <time>2021-08-22T15:06:50Z</time>
      </trkpt>
      <trkpt lat="45.70301" lon="5.77585">
        <ele>243.3</ele>
        <time>2021-08-22T15:06:52Z</time>
      </trkpt>
      <trkpt lat="45.70302" lon="5.77577">
        <ele>243.2</ele>
        <time>2021-08-22T15:06:53Z</time>
      </trkpt>
      <trkpt lat="45.70304" lon="5.77569">
        <ele>243.1</ele>
        <time>2021-08-22T15:06:54Z</time>
      </trkpt>
      <trkpt lat="45.70309" lon="5.77551">
        <ele>242.9</ele>
        <time>2021-08-22T15:06:56Z</time>
      </trkpt>
      <trkpt lat="45.70312" lon="5.77533">
        <ele>242.7</ele>
        <time>2021-08-22T15:06:58Z</time>
      </trkpt>
      <trkpt lat="45.70312" lon="5.77524">
        <ele>242.6</ele>
        <time>2021-08-22T15:06:59Z</time>
      </trkpt>
      <trkpt lat="45.70313" lon="5.77506">
        <ele>242.4</ele>
        <time>2021-08-22T15:07:01Z</time>
      </trkpt>
      <trkpt lat="45.70315" lon="5.77491">
        <ele>242.1</ele>
        <time>2021-08-22T15:07:03Z</time>
      </trkpt>
      <trkpt lat="45.70318" lon="5.77476">
        <ele>241.9</ele>
        <time>2021-08-22T15:07:05Z</time>
      </trkpt>
      <trkpt lat="45.7032" lon="5.77468">
        <ele>241.7</ele>
        <time>2021-08-22T15:07:06Z</time>
      </trkpt>
      <trkpt lat="45.70326" lon="5.77452">
        <ele>241.4</ele>
        <time>2021-08-22T15:07:08Z</time>
      </trkpt>
      <trkpt lat="45.7033" lon="5.77437">
        <ele>241.2</ele>
        <time>2021-08-22T15:07:10Z</time>
      </trkpt>
      <trkpt lat="45.70333" lon="5.77422">
        <ele>241</ele>
        <time>2021-08-22T15:07:12Z</time>
      </trkpt>
      <trkpt lat="45.70334" lon="5.77407">
        <ele>240.7</ele>
        <time>2021-08-22T15:07:14Z</time>
      </trkpt>
      <trkpt lat="45.70337" lon="5.77391">
        <ele>240.5</ele>
        <time>2021-08-22T15:07:16Z</time>
      </trkpt>
      <trkpt lat="45.70338" lon="5.77384">
        <ele>240.4</ele>
        <time>2021-08-22T15:07:17Z</time>
      </trkpt>
      <trkpt lat="45.70339" lon="5.77376">
        <ele>240.3</ele>
        <time>2021-08-22T15:07:18Z</time>
      </trkpt>
      <trkpt lat="45.70342" lon="5.77363">
        <ele>240.1</ele>
        <time>2021-08-22T15:07:20Z</time>
      </trkpt>
      <trkpt lat="45.70344" lon="5.77357">
        <ele>240.1</ele>
        <time>2021-08-22T15:07:21Z</time>
      </trkpt>
      <trkpt lat="45.70347" lon="5.77344">
        <ele>239.9</ele>
        <time>2021-08-22T15:07:23Z</time>
      </trkpt>
      <trkpt lat="45.70348" lon="5.77338">
        <ele>239.9</ele>
        <time>2021-08-22T15:07:24Z</time>
      </trkpt>
      <trkpt lat="45.70348" lon="5.77334">
        <ele>239.8</ele>
        <time>2021-08-22T15:07:25Z</time>
      </trkpt>
      <trkpt lat="45.70349" lon="5.77331">
        <ele>239.8</ele>
        <time>2021-08-22T15:07:26Z</time>
      </trkpt>
      <trkpt lat="45.70352" lon="5.77324">
        <ele>239.7</ele>
        <time>2021-08-22T15:07:28Z</time>
      </trkpt>
      <trkpt lat="45.70354" lon="5.77319">
        <ele>239.6</ele>
        <time>2021-08-22T15:07:29Z</time>
      </trkpt>
      <trkpt lat="45.70358" lon="5.77312">
        <ele>239.5</ele>
        <time>2021-08-22T15:07:30Z</time>
      </trkpt>
      <trkpt lat="45.70359" lon="5.77305">
        <ele>239.5</ele>
        <time>2021-08-22T15:07:32Z</time>
      </trkpt>
      <trkpt lat="45.7036" lon="5.77302">
        <ele>239.4</ele>
        <time>2021-08-22T15:07:33Z</time>
      </trkpt>
      <trkpt lat="45.70361" lon="5.77301">
        <ele>239.4</ele>
        <time>2021-08-22T15:07:34Z</time>
      </trkpt>
      <trkpt lat="45.70363" lon="5.77294">
        <ele>239.3</ele>
        <time>2021-08-22T15:07:36Z</time>
      </trkpt>
      <trkpt lat="45.70366" lon="5.77286">
        <ele>239.3</ele>
        <time>2021-08-22T15:07:37Z</time>
      </trkpt>
      <trkpt lat="45.70366" lon="5.7728">
        <ele>239.2</ele>
        <time>2021-08-22T15:07:39Z</time>
      </trkpt>
      <trkpt lat="45.70367" lon="5.77273">
        <ele>239.1</ele>
        <time>2021-08-22T15:07:41Z</time>
      </trkpt>
      <trkpt lat="45.70369" lon="5.7727">
        <ele>239.1</ele>
        <time>2021-08-22T15:07:42Z</time>
      </trkpt>
      <trkpt lat="45.7037" lon="5.77268">
        <ele>239.1</ele>
        <time>2021-08-22T15:07:43Z</time>
      </trkpt>
      <trkpt lat="45.70373" lon="5.77263">
        <ele>239</ele>
        <time>2021-08-22T15:07:44Z</time>
      </trkpt>
      <trkpt lat="45.70374" lon="5.77261">
        <ele>239</ele>
        <time>2021-08-22T15:07:45Z</time>
      </trkpt>
      <trkpt lat="45.70378" lon="5.77253">
        <ele>238.9</ele>
        <time>2021-08-22T15:07:47Z</time>
      </trkpt>
      <trkpt lat="45.7038" lon="5.77248">
        <ele>238.8</ele>
        <time>2021-08-22T15:07:48Z</time>
      </trkpt>
      <trkpt lat="45.70385" lon="5.77239">
        <ele>238.7</ele>
        <time>2021-08-22T15:07:50Z</time>
      </trkpt>
      <trkpt lat="45.7039" lon="5.77231">
        <ele>238.7</ele>
        <time>2021-08-22T15:07:51Z</time>
      </trkpt>
      <trkpt lat="45.70396" lon="5.7722">
        <ele>238.6</ele>
        <time>2021-08-22T15:07:53Z</time>
      </trkpt>
      <trkpt lat="45.70398" lon="5.77217">
        <ele>238.7</ele>
        <time>2021-08-22T15:07:54Z</time>
      </trkpt>
      <trkpt lat="45.70402" lon="5.77208">
        <ele>238.7</ele>
        <time>2021-08-22T15:07:56Z</time>
      </trkpt>
      <trkpt lat="45.70404" lon="5.77204">
        <ele>238.5</ele>
        <time>2021-08-22T15:07:57Z</time>
      </trkpt>
      <trkpt lat="45.70409" lon="5.77193">
        <ele>238.4</ele>
        <time>2021-08-22T15:07:59Z</time>
      </trkpt>
      <trkpt lat="45.70411" lon="5.77187">
        <ele>238.1</ele>
        <time>2021-08-22T15:08:00Z</time>
      </trkpt>
      <trkpt lat="45.70415" lon="5.77177">
        <ele>237.9</ele>
        <time>2021-08-22T15:08:02Z</time>
      </trkpt>
      <trkpt lat="45.70421" lon="5.77168">
        <ele>237.6</ele>
        <time>2021-08-22T15:08:04Z</time>
      </trkpt>
      <trkpt lat="45.70428" lon="5.77157">
        <ele>237.3</ele>
        <time>2021-08-22T15:08:06Z</time>
      </trkpt>
      <trkpt lat="45.70435" lon="5.77145">
        <ele>237</ele>
        <time>2021-08-22T15:08:08Z</time>
      </trkpt>
      <trkpt lat="45.70441" lon="5.7713">
        <ele>236.8</ele>
        <time>2021-08-22T15:08:10Z</time>
      </trkpt>
      <trkpt lat="45.70448" lon="5.77115">
        <ele>236.5</ele>
        <time>2021-08-22T15:08:12Z</time>
      </trkpt>
      <trkpt lat="45.70454" lon="5.77101">
        <ele>236.3</ele>
        <time>2021-08-22T15:08:14Z</time>
      </trkpt>
      <trkpt lat="45.70457" lon="5.77095">
        <ele>236.1</ele>
        <time>2021-08-22T15:08:15Z</time>
      </trkpt>
      <trkpt lat="45.70464" lon="5.77081">
        <ele>235.9</ele>
        <time>2021-08-22T15:08:17Z</time>
      </trkpt>
      <trkpt lat="45.70472" lon="5.77067">
        <ele>235.6</ele>
        <time>2021-08-22T15:08:19Z</time>
      </trkpt>
      <trkpt lat="45.70475" lon="5.7706">
        <ele>235.4</ele>
        <time>2021-08-22T15:08:20Z</time>
      </trkpt>
      <trkpt lat="45.70483" lon="5.77049">
        <ele>235.2</ele>
        <time>2021-08-22T15:08:22Z</time>
      </trkpt>
      <trkpt lat="45.7049" lon="5.77037">
        <ele>235</ele>
        <time>2021-08-22T15:08:24Z</time>
      </trkpt>
      <trkpt lat="45.70497" lon="5.77022">
        <ele>234.9</ele>
        <time>2021-08-22T15:08:26Z</time>
      </trkpt>
      <trkpt lat="45.705" lon="5.77014">
        <ele>234.7</ele>
        <time>2021-08-22T15:08:27Z</time>
      </trkpt>
      <trkpt lat="45.70505" lon="5.76998">
        <ele>234.5</ele>
        <time>2021-08-22T15:08:29Z</time>
      </trkpt>
      <trkpt lat="45.70508" lon="5.7699">
        <ele>234.4</ele>
        <time>2021-08-22T15:08:30Z</time>
      </trkpt>
      <trkpt lat="45.7051" lon="5.76982">
        <ele>234.3</ele>
        <time>2021-08-22T15:08:31Z</time>
      </trkpt>
      <trkpt lat="45.70512" lon="5.76974">
        <ele>234.2</ele>
        <time>2021-08-22T15:08:32Z</time>
      </trkpt>
      <trkpt lat="45.70516" lon="5.76956">
        <ele>234</ele>
        <time>2021-08-22T15:08:34Z</time>
      </trkpt>
      <trkpt lat="45.70519" lon="5.76939">
        <ele>233.8</ele>
        <time>2021-08-22T15:08:36Z</time>
      </trkpt>
      <trkpt lat="45.70521" lon="5.76931">
        <ele>233.8</ele>
        <time>2021-08-22T15:08:37Z</time>
      </trkpt>
      <trkpt lat="45.70523" lon="5.76923">
        <ele>233.7</ele>
        <time>2021-08-22T15:08:38Z</time>
      </trkpt>
      <trkpt lat="45.70528" lon="5.76907">
        <ele>233.4</ele>
        <time>2021-08-22T15:08:40Z</time>
      </trkpt>
      <trkpt lat="45.7053" lon="5.769">
        <ele>233.3</ele>
        <time>2021-08-22T15:08:41Z</time>
      </trkpt>
      <trkpt lat="45.70532" lon="5.76892">
        <ele>233.2</ele>
        <time>2021-08-22T15:08:42Z</time>
      </trkpt>
      <trkpt lat="45.70536" lon="5.76876">
        <ele>232.9</ele>
        <time>2021-08-22T15:08:44Z</time>
      </trkpt>
      <trkpt lat="45.70539" lon="5.76861">
        <ele>232.7</ele>
        <time>2021-08-22T15:08:46Z</time>
      </trkpt>
      <trkpt lat="45.7054" lon="5.76854">
        <ele>232.6</ele>
        <time>2021-08-22T15:08:47Z</time>
      </trkpt>
      <trkpt lat="45.70542" lon="5.76847">
        <ele>232.5</ele>
        <time>2021-08-22T15:08:48Z</time>
      </trkpt>
      <trkpt lat="45.70545" lon="5.76839">
        <ele>232.4</ele>
        <time>2021-08-22T15:08:49Z</time>
      </trkpt>
      <trkpt lat="45.70549" lon="5.76825">
        <ele>232.1</ele>
        <time>2021-08-22T15:08:51Z</time>
      </trkpt>
      <trkpt lat="45.70553" lon="5.76812">
        <ele>231.9</ele>
        <time>2021-08-22T15:08:53Z</time>
      </trkpt>
      <trkpt lat="45.70556" lon="5.76797">
        <ele>231.7</ele>
        <time>2021-08-22T15:08:55Z</time>
      </trkpt>
      <trkpt lat="45.70559" lon="5.76782">
        <ele>231.5</ele>
        <time>2021-08-22T15:08:57Z</time>
      </trkpt>
      <trkpt lat="45.70561" lon="5.76775">
        <ele>231.4</ele>
        <time>2021-08-22T15:08:58Z</time>
      </trkpt>
      <trkpt lat="45.70563" lon="5.76758">
        <ele>231.2</ele>
        <time>2021-08-22T15:09:00Z</time>
      </trkpt>
      <trkpt lat="45.70564" lon="5.7675">
        <ele>231.1</ele>
        <time>2021-08-22T15:09:01Z</time>
      </trkpt>
      <trkpt lat="45.70564" lon="5.76734">
        <ele>231</ele>
        <time>2021-08-22T15:09:03Z</time>
      </trkpt>
      <trkpt lat="45.70564" lon="5.76727">
        <ele>230.9</ele>
        <time>2021-08-22T15:09:04Z</time>
      </trkpt>
      <trkpt lat="45.70567" lon="5.76713">
        <ele>230.8</ele>
        <time>2021-08-22T15:09:06Z</time>
      </trkpt>
      <trkpt lat="45.70568" lon="5.76705">
        <ele>230.7</ele>
        <time>2021-08-22T15:09:07Z</time>
      </trkpt>
      <trkpt lat="45.7057" lon="5.76698">
        <ele>230.6</ele>
        <time>2021-08-22T15:09:08Z</time>
      </trkpt>
      <trkpt lat="45.70574" lon="5.76684">
        <ele>230.5</ele>
        <time>2021-08-22T15:09:10Z</time>
      </trkpt>
      <trkpt lat="45.70576" lon="5.76675">
        <ele>230.4</ele>
        <time>2021-08-22T15:09:11Z</time>
      </trkpt>
      <trkpt lat="45.70578" lon="5.76667">
        <ele>230.3</ele>
        <time>2021-08-22T15:09:12Z</time>
      </trkpt>
      <trkpt lat="45.70583" lon="5.76652">
        <ele>230.1</ele>
        <time>2021-08-22T15:09:14Z</time>
      </trkpt>
      <trkpt lat="45.70586" lon="5.76635">
        <ele>229.9</ele>
        <time>2021-08-22T15:09:16Z</time>
      </trkpt>
      <trkpt lat="45.70588" lon="5.76627">
        <ele>229.8</ele>
        <time>2021-08-22T15:09:17Z</time>
      </trkpt>
      <trkpt lat="45.70589" lon="5.76619">
        <ele>229.7</ele>
        <time>2021-08-22T15:09:18Z</time>
      </trkpt>
      <trkpt lat="45.70592" lon="5.76602">
        <ele>229.5</ele>
        <time>2021-08-22T15:09:20Z</time>
      </trkpt>
      <trkpt lat="45.70594" lon="5.76586">
        <ele>229.4</ele>
        <time>2021-08-22T15:09:22Z</time>
      </trkpt>
      <trkpt lat="45.70596" lon="5.76568">
        <ele>229.3</ele>
        <time>2021-08-22T15:09:24Z</time>
      </trkpt>
      <trkpt lat="45.70598" lon="5.76551">
        <ele>229.2</ele>
        <time>2021-08-22T15:09:26Z</time>
      </trkpt>
      <trkpt lat="45.70598" lon="5.76542">
        <ele>229.2</ele>
        <time>2021-08-22T15:09:27Z</time>
      </trkpt>
      <trkpt lat="45.70599" lon="5.76525">
        <ele>229.1</ele>
        <time>2021-08-22T15:09:29Z</time>
      </trkpt>
      <trkpt lat="45.70599" lon="5.76516">
        <ele>229.1</ele>
        <time>2021-08-22T15:09:30Z</time>
      </trkpt>
      <trkpt lat="45.706" lon="5.765">
        <ele>229</ele>
        <time>2021-08-22T15:09:32Z</time>
      </trkpt>
      <trkpt lat="45.70602" lon="5.76484">
        <ele>229</ele>
        <time>2021-08-22T15:09:34Z</time>
      </trkpt>
      <trkpt lat="45.70603" lon="5.76476">
        <ele>228.9</ele>
        <time>2021-08-22T15:09:35Z</time>
      </trkpt>
      <trkpt lat="45.70604" lon="5.76468">
        <ele>228.9</ele>
        <time>2021-08-22T15:09:36Z</time>
      </trkpt>
      <trkpt lat="45.70608" lon="5.76452">
        <ele>228.9</ele>
        <time>2021-08-22T15:09:38Z</time>
      </trkpt>
      <trkpt lat="45.70611" lon="5.76437">
        <ele>228.8</ele>
        <time>2021-08-22T15:09:40Z</time>
      </trkpt>
      <trkpt lat="45.70612" lon="5.76429">
        <ele>228.8</ele>
        <time>2021-08-22T15:09:41Z</time>
      </trkpt>
      <trkpt lat="45.70613" lon="5.76421">
        <ele>228.8</ele>
        <time>2021-08-22T15:09:42Z</time>
      </trkpt>
      <trkpt lat="45.70617" lon="5.76407">
        <ele>228.8</ele>
        <time>2021-08-22T15:09:44Z</time>
      </trkpt>
      <trkpt lat="45.7062" lon="5.76394">
        <ele>228.7</ele>
        <time>2021-08-22T15:09:46Z</time>
      </trkpt>
      <trkpt lat="45.70623" lon="5.76387">
        <ele>228.7</ele>
        <time>2021-08-22T15:09:47Z</time>
      </trkpt>
      <trkpt lat="45.70624" lon="5.7638">
        <ele>228.7</ele>
        <time>2021-08-22T15:09:48Z</time>
      </trkpt>
      <trkpt lat="45.70626" lon="5.76373">
        <ele>228.7</ele>
        <time>2021-08-22T15:09:49Z</time>
      </trkpt>
      <trkpt lat="45.70628" lon="5.76366">
        <ele>228.7</ele>
        <time>2021-08-22T15:09:50Z</time>
      </trkpt>
      <trkpt lat="45.7063" lon="5.76351">
        <ele>228.7</ele>
        <time>2021-08-22T15:09:52Z</time>
      </trkpt>
      <trkpt lat="45.7063" lon="5.76336">
        <ele>228.7</ele>
        <time>2021-08-22T15:09:54Z</time>
      </trkpt>
      <trkpt lat="45.70631" lon="5.76323">
        <ele>228.7</ele>
        <time>2021-08-22T15:09:56Z</time>
      </trkpt>
      <trkpt lat="45.70633" lon="5.7631">
        <ele>228.7</ele>
        <time>2021-08-22T15:09:58Z</time>
      </trkpt>
      <trkpt lat="45.70636" lon="5.76301">
        <ele>228.7</ele>
        <time>2021-08-22T15:10:00Z</time>
      </trkpt>
      <trkpt lat="45.70636" lon="5.76295">
        <ele>228.7</ele>
        <time>2021-08-22T15:10:01Z</time>
      </trkpt>
      <trkpt lat="45.70637" lon="5.7629">
        <ele>228.7</ele>
        <time>2021-08-22T15:10:02Z</time>
      </trkpt>
      <trkpt lat="45.70638" lon="5.76279">
        <ele>228.8</ele>
        <time>2021-08-22T15:10:04Z</time>
      </trkpt>
      <trkpt lat="45.70638" lon="5.76273">
        <ele>228.8</ele>
        <time>2021-08-22T15:10:05Z</time>
      </trkpt>
      <trkpt lat="45.70637" lon="5.76266">
        <ele>228.8</ele>
        <time>2021-08-22T15:10:06Z</time>
      </trkpt>
      <trkpt lat="45.70636" lon="5.76261">
        <ele>228.8</ele>
        <time>2021-08-22T15:10:07Z</time>
      </trkpt>
      <trkpt lat="45.70634" lon="5.76254">
        <ele>228.9</ele>
        <time>2021-08-22T15:10:08Z</time>
      </trkpt>
      <trkpt lat="45.70632" lon="5.7624">
        <ele>229</ele>
        <time>2021-08-22T15:10:10Z</time>
      </trkpt>
      <trkpt lat="45.70632" lon="5.76233">
        <ele>229</ele>
        <time>2021-08-22T15:10:11Z</time>
      </trkpt>
      <trkpt lat="45.70632" lon="5.7622">
        <ele>229.1</ele>
        <time>2021-08-22T15:10:13Z</time>
      </trkpt>
      <trkpt lat="45.70633" lon="5.76213">
        <ele>229.1</ele>
        <time>2021-08-22T15:10:14Z</time>
      </trkpt>
      <trkpt lat="45.70633" lon="5.76203">
        <ele>229.2</ele>
        <time>2021-08-22T15:10:15Z</time>
      </trkpt>
      <trkpt lat="45.70635" lon="5.76197">
        <ele>229.3</ele>
        <time>2021-08-22T15:10:17Z</time>
      </trkpt>
      <trkpt lat="45.70635" lon="5.76191">
        <ele>229.3</ele>
        <time>2021-08-22T15:10:18Z</time>
      </trkpt>
      <trkpt lat="45.70637" lon="5.76185">
        <ele>229.3</ele>
        <time>2021-08-22T15:10:19Z</time>
      </trkpt>
      <trkpt lat="45.70638" lon="5.76175">
        <ele>229.4</ele>
        <time>2021-08-22T15:10:21Z</time>
      </trkpt>
      <trkpt lat="45.7064" lon="5.76168">
        <ele>229.4</ele>
        <time>2021-08-22T15:10:22Z</time>
      </trkpt>
      <trkpt lat="45.7064" lon="5.76161">
        <ele>229.4</ele>
        <time>2021-08-22T15:10:23Z</time>
      </trkpt>
      <trkpt lat="45.70641" lon="5.76156">
        <ele>229.4</ele>
        <time>2021-08-22T15:10:25Z</time>
      </trkpt>
      <trkpt lat="45.70642" lon="5.7615">
        <ele>229.4</ele>
        <time>2021-08-22T15:10:26Z</time>
      </trkpt>
      <trkpt lat="45.70643" lon="5.76142">
        <ele>229.5</ele>
        <time>2021-08-22T15:10:27Z</time>
      </trkpt>
      <trkpt lat="45.70645" lon="5.76135">
        <ele>229.5</ele>
        <time>2021-08-22T15:10:29Z</time>
      </trkpt>
      <trkpt lat="45.70647" lon="5.76127">
        <ele>229.6</ele>
        <time>2021-08-22T15:10:30Z</time>
      </trkpt>
      <trkpt lat="45.70649" lon="5.76121">
        <ele>229.6</ele>
        <time>2021-08-22T15:10:31Z</time>
      </trkpt>
      <trkpt lat="45.70651" lon="5.76114">
        <ele>229.6</ele>
        <time>2021-08-22T15:10:32Z</time>
      </trkpt>
      <trkpt lat="45.70655" lon="5.76108">
        <ele>229.6</ele>
        <time>2021-08-22T15:10:34Z</time>
      </trkpt>
      <trkpt lat="45.70659" lon="5.76102">
        <ele>229.6</ele>
        <time>2021-08-22T15:10:35Z</time>
      </trkpt>
      <trkpt lat="45.70666" lon="5.76094">
        <ele>229.6</ele>
        <time>2021-08-22T15:10:37Z</time>
      </trkpt>
      <trkpt lat="45.70669" lon="5.76089">
        <ele>229.6</ele>
        <time>2021-08-22T15:10:38Z</time>
      </trkpt>
      <trkpt lat="45.70675" lon="5.76079">
        <ele>229.6</ele>
        <time>2021-08-22T15:10:40Z</time>
      </trkpt>
      <trkpt lat="45.70678" lon="5.76074">
        <ele>229.5</ele>
        <time>2021-08-22T15:10:41Z</time>
      </trkpt>
      <trkpt lat="45.70678" lon="5.76067">
        <ele>229.5</ele>
        <time>2021-08-22T15:10:42Z</time>
      </trkpt>
      <trkpt lat="45.70674" lon="5.76062">
        <ele>229.5</ele>
        <time>2021-08-22T15:10:44Z</time>
      </trkpt>
      <trkpt lat="45.70668" lon="5.76058">
        <ele>229.5</ele>
        <time>2021-08-22T15:10:45Z</time>
      </trkpt>
      <trkpt lat="45.70663" lon="5.76058">
        <ele>229.5</ele>
        <time>2021-08-22T15:10:47Z</time>
      </trkpt>
      <trkpt lat="45.70654" lon="5.76059">
        <ele>229.5</ele>
        <time>2021-08-22T15:10:49Z</time>
      </trkpt>
      <trkpt lat="45.70648" lon="5.76062">
        <ele>229.6</ele>
        <time>2021-08-22T15:10:50Z</time>
      </trkpt>
      <trkpt lat="45.70638" lon="5.76062">
        <ele>229.6</ele>
        <time>2021-08-22T15:10:52Z</time>
      </trkpt>
      <trkpt lat="45.7063" lon="5.76059">
        <ele>229.6</ele>
        <time>2021-08-22T15:10:53Z</time>
      </trkpt>
      <trkpt lat="45.70625" lon="5.76055">
        <ele>229.8</ele>
        <time>2021-08-22T15:10:54Z</time>
      </trkpt>
      <trkpt lat="45.70618" lon="5.76042">
        <ele>229.9</ele>
        <time>2021-08-22T15:10:56Z</time>
      </trkpt>
      <trkpt lat="45.70614" lon="5.76036">
        <ele>229.9</ele>
        <time>2021-08-22T15:10:57Z</time>
      </trkpt>
      <trkpt lat="45.70605" lon="5.76026">
        <ele>229.9</ele>
        <time>2021-08-22T15:10:59Z</time>
      </trkpt>
      <trkpt lat="45.70597" lon="5.76016">
        <ele>229.8</ele>
        <time>2021-08-22T15:11:01Z</time>
      </trkpt>
      <trkpt lat="45.70594" lon="5.76014">
        <ele>229.8</ele>
        <time>2021-08-22T15:11:02Z</time>
      </trkpt>
      <trkpt lat="45.70587" lon="5.76007">
        <ele>229.7</ele>
        <time>2021-08-22T15:11:04Z</time>
      </trkpt>
      <trkpt lat="45.70581" lon="5.76003">
        <ele>229.7</ele>
        <time>2021-08-22T15:11:05Z</time>
      </trkpt>
      <trkpt lat="45.70577" lon="5.76001">
        <ele>229.7</ele>
        <time>2021-08-22T15:11:06Z</time>
      </trkpt>
      <trkpt lat="45.70568" lon="5.75991">
        <ele>229.7</ele>
        <time>2021-08-22T15:11:08Z</time>
      </trkpt>
      <trkpt lat="45.70561" lon="5.75983">
        <ele>229.6</ele>
        <time>2021-08-22T15:11:10Z</time>
      </trkpt>
      <trkpt lat="45.70557" lon="5.75978">
        <ele>229.6</ele>
        <time>2021-08-22T15:11:11Z</time>
      </trkpt>
      <trkpt lat="45.70554" lon="5.75974">
        <ele>229.6</ele>
        <time>2021-08-22T15:11:12Z</time>
      </trkpt>
      <trkpt lat="45.70549" lon="5.75965">
        <ele>229.6</ele>
        <time>2021-08-22T15:11:14Z</time>
      </trkpt>
      <trkpt lat="45.70544" lon="5.7596">
        <ele>229.6</ele>
        <time>2021-08-22T15:11:15Z</time>
      </trkpt>
      <trkpt lat="45.70539" lon="5.75955">
        <ele>229.6</ele>
        <time>2021-08-22T15:11:16Z</time>
      </trkpt>
      <trkpt lat="45.70535" lon="5.7595">
        <ele>229.6</ele>
        <time>2021-08-22T15:11:17Z</time>
      </trkpt>
      <trkpt lat="45.70531" lon="5.75944">
        <ele>229.6</ele>
        <time>2021-08-22T15:11:18Z</time>
      </trkpt>
      <trkpt lat="45.70523" lon="5.75939">
        <ele>229.7</ele>
        <time>2021-08-22T15:11:20Z</time>
      </trkpt>
      <trkpt lat="45.70518" lon="5.75935">
        <ele>229.7</ele>
        <time>2021-08-22T15:11:21Z</time>
      </trkpt>
      <trkpt lat="45.70509" lon="5.75929">
        <ele>229.8</ele>
        <time>2021-08-22T15:11:23Z</time>
      </trkpt>
      <trkpt lat="45.70503" lon="5.75927">
        <ele>229.9</ele>
        <time>2021-08-22T15:11:24Z</time>
      </trkpt>
      <trkpt lat="45.70493" lon="5.75921">
        <ele>230</ele>
        <time>2021-08-22T15:11:26Z</time>
      </trkpt>
      <trkpt lat="45.70486" lon="5.75913">
        <ele>230.1</ele>
        <time>2021-08-22T15:11:28Z</time>
      </trkpt>
      <trkpt lat="45.70484" lon="5.75911">
        <ele>230.2</ele>
        <time>2021-08-22T15:11:29Z</time>
      </trkpt>
      <trkpt lat="45.70484" lon="5.7591">
        <ele>230.2</ele>
        <time>2021-08-22T15:11:30Z</time>
      </trkpt>
      <trkpt lat="45.70481" lon="5.75906">
        <ele>230.2</ele>
        <time>2021-08-22T15:11:31Z</time>
      </trkpt>
      <trkpt lat="45.70478" lon="5.75899">
        <ele>230.3</ele>
        <time>2021-08-22T15:11:33Z</time>
      </trkpt>
      <trkpt lat="45.70476" lon="5.75895">
        <ele>230.3</ele>
        <time>2021-08-22T15:11:34Z</time>
      </trkpt>
      <trkpt lat="45.70473" lon="5.75892">
        <ele>230.4</ele>
        <time>2021-08-22T15:11:35Z</time>
      </trkpt>
      <trkpt lat="45.7047" lon="5.75888">
        <ele>230.5</ele>
        <time>2021-08-22T15:11:37Z</time>
      </trkpt>
      <trkpt lat="45.70469" lon="5.75884">
        <ele>230.5</ele>
        <time>2021-08-22T15:11:38Z</time>
      </trkpt>
      <trkpt lat="45.70469" lon="5.75879">
        <ele>230.6</ele>
        <time>2021-08-22T15:11:39Z</time>
      </trkpt>
      <trkpt lat="45.7047" lon="5.75869">
        <ele>230.4</ele>
        <time>2021-08-22T15:11:40Z</time>
      </trkpt>
      <trkpt lat="45.70474" lon="5.75855">
        <ele>230.1</ele>
        <time>2021-08-22T15:11:42Z</time>
      </trkpt>
      <trkpt lat="45.70477" lon="5.75845">
        <ele>229.9</ele>
        <time>2021-08-22T15:11:43Z</time>
      </trkpt>
      <trkpt lat="45.70478" lon="5.75838">
        <ele>229.9</ele>
        <time>2021-08-22T15:11:44Z</time>
      </trkpt>
      <trkpt lat="45.7048" lon="5.75828">
        <ele>229.8</ele>
        <time>2021-08-22T15:11:46Z</time>
      </trkpt>
      <trkpt lat="45.70483" lon="5.75815">
        <ele>229.8</ele>
        <time>2021-08-22T15:11:48Z</time>
      </trkpt>
      <trkpt lat="45.70486" lon="5.75803">
        <ele>229.7</ele>
        <time>2021-08-22T15:11:50Z</time>
      </trkpt>
      <trkpt lat="45.70488" lon="5.75794">
        <ele>229.6</ele>
        <time>2021-08-22T15:11:51Z</time>
      </trkpt>
      <trkpt lat="45.70493" lon="5.75781">
        <ele>229.4</ele>
        <time>2021-08-22T15:11:53Z</time>
      </trkpt>
      <trkpt lat="45.70496" lon="5.75775">
        <ele>229.4</ele>
        <time>2021-08-22T15:11:54Z</time>
      </trkpt>
      <trkpt lat="45.70498" lon="5.75764">
        <ele>229.3</ele>
        <time>2021-08-22T15:11:56Z</time>
      </trkpt>
      <trkpt lat="45.70499" lon="5.75754">
        <ele>229.2</ele>
        <time>2021-08-22T15:11:57Z</time>
      </trkpt>
      <trkpt lat="45.70506" lon="5.75744">
        <ele>229.1</ele>
        <time>2021-08-22T15:11:59Z</time>
      </trkpt>
      <trkpt lat="45.70508" lon="5.75738">
        <ele>229</ele>
        <time>2021-08-22T15:12:00Z</time>
      </trkpt>
      <trkpt lat="45.70513" lon="5.75726">
        <ele>228.9</ele>
        <time>2021-08-22T15:12:02Z</time>
      </trkpt>
      <trkpt lat="45.70519" lon="5.75711">
        <ele>228.9</ele>
        <time>2021-08-22T15:12:04Z</time>
      </trkpt>
      <trkpt lat="45.70521" lon="5.75705">
        <ele>228.9</ele>
        <time>2021-08-22T15:12:05Z</time>
      </trkpt>
      <trkpt lat="45.70523" lon="5.75696">
        <ele>229</ele>
        <time>2021-08-22T15:12:07Z</time>
      </trkpt>
      <trkpt lat="45.70522" lon="5.75691">
        <ele>229.1</ele>
        <time>2021-08-22T15:12:08Z</time>
      </trkpt>
      <trkpt lat="45.70521" lon="5.75685">
        <ele>229.1</ele>
        <time>2021-08-22T15:12:10Z</time>
      </trkpt>
      <trkpt lat="45.70519" lon="5.7568">
        <ele>229.2</ele>
        <time>2021-08-22T15:12:11Z</time>
      </trkpt>
      <trkpt lat="45.70515" lon="5.75675">
        <ele>229.3</ele>
        <time>2021-08-22T15:12:13Z</time>
      </trkpt>
      <trkpt lat="45.70509" lon="5.75668">
        <ele>229.3</ele>
        <time>2021-08-22T15:12:14Z</time>
      </trkpt>
      <trkpt lat="45.70504" lon="5.75662">
        <ele>229.5</ele>
        <time>2021-08-22T15:12:16Z</time>
      </trkpt>
      <trkpt lat="45.70501" lon="5.75659">
        <ele>229.6</ele>
        <time>2021-08-22T15:12:17Z</time>
      </trkpt>
      <trkpt lat="45.70496" lon="5.75655">
        <ele>229.8</ele>
        <time>2021-08-22T15:12:18Z</time>
      </trkpt>
      <trkpt lat="45.70492" lon="5.75652">
        <ele>230</ele>
        <time>2021-08-22T15:12:19Z</time>
      </trkpt>
      <trkpt lat="45.70487" lon="5.75647">
        <ele>230.3</ele>
        <time>2021-08-22T15:12:21Z</time>
      </trkpt>
      <trkpt lat="45.70481" lon="5.75644">
        <ele>230.5</ele>
        <time>2021-08-22T15:12:22Z</time>
      </trkpt>
      <trkpt lat="45.70467" lon="5.75639">
        <ele>230.9</ele>
        <time>2021-08-22T15:12:24Z</time>
      </trkpt>
      <trkpt lat="45.70456" lon="5.75634">
        <ele>231.3</ele>
        <time>2021-08-22T15:12:26Z</time>
      </trkpt>
      <trkpt lat="45.70449" lon="5.75625">
        <ele>231.6</ele>
        <time>2021-08-22T15:12:28Z</time>
      </trkpt>
      <trkpt lat="45.70443" lon="5.75619">
        <ele>231.8</ele>
        <time>2021-08-22T15:12:30Z</time>
      </trkpt>
      <trkpt lat="45.70441" lon="5.75615">
        <ele>231.9</ele>
        <time>2021-08-22T15:12:31Z</time>
      </trkpt>
      <trkpt lat="45.70441" lon="5.75613">
        <ele>231.6</ele>
        <time>2021-08-22T15:12:32Z</time>
      </trkpt>
      <trkpt lat="45.70444" lon="5.75602">
        <ele>231.5</ele>
        <time>2021-08-22T15:12:35Z</time>
      </trkpt>
      <trkpt lat="45.70444" lon="5.75598">
        <ele>231.5</ele>
        <time>2021-08-22T15:12:36Z</time>
      </trkpt>
      <trkpt lat="45.70454" lon="5.75574">
        <ele>231.3</ele>
        <time>2021-08-22T15:12:38Z</time>
      </trkpt>
      <trkpt lat="45.70456" lon="5.75558">
        <ele>231.2</ele>
        <time>2021-08-22T15:12:40Z</time>
      </trkpt>
      <trkpt lat="45.70456" lon="5.75549">
        <ele>231.2</ele>
        <time>2021-08-22T15:12:41Z</time>
      </trkpt>
      <trkpt lat="45.70458" lon="5.75542">
        <ele>231.3</ele>
        <time>2021-08-22T15:12:43Z</time>
      </trkpt>
      <trkpt lat="45.70459" lon="5.75536">
        <ele>231.3</ele>
        <time>2021-08-22T15:12:44Z</time>
      </trkpt>
      <trkpt lat="45.70465" lon="5.75523">
        <ele>231.3</ele>
        <time>2021-08-22T15:12:46Z</time>
      </trkpt>
      <trkpt lat="45.70467" lon="5.75516">
        <ele>231.3</ele>
        <time>2021-08-22T15:12:47Z</time>
      </trkpt>
      <trkpt lat="45.7047" lon="5.75508">
        <ele>231.4</ele>
        <time>2021-08-22T15:12:48Z</time>
      </trkpt>
      <trkpt lat="45.70475" lon="5.75499">
        <ele>231.4</ele>
        <time>2021-08-22T15:12:50Z</time>
      </trkpt>
      <trkpt lat="45.70477" lon="5.75493">
        <ele>231.4</ele>
        <time>2021-08-22T15:12:51Z</time>
      </trkpt>
      <trkpt lat="45.70478" lon="5.75487">
        <ele>231.4</ele>
        <time>2021-08-22T15:12:52Z</time>
      </trkpt>
      <trkpt lat="45.70478" lon="5.75479">
        <ele>231.4</ele>
        <time>2021-08-22T15:12:53Z</time>
      </trkpt>
      <trkpt lat="45.70481" lon="5.7547">
        <ele>231.4</ele>
        <time>2021-08-22T15:12:55Z</time>
      </trkpt>
      <trkpt lat="45.70484" lon="5.75464">
        <ele>231.4</ele>
        <time>2021-08-22T15:12:57Z</time>
      </trkpt>
      <trkpt lat="45.70489" lon="5.75453">
        <ele>231.4</ele>
        <time>2021-08-22T15:12:59Z</time>
      </trkpt>
      <trkpt lat="45.70491" lon="5.75447">
        <ele>231.4</ele>
        <time>2021-08-22T15:13:00Z</time>
      </trkpt>
      <trkpt lat="45.70493" lon="5.7544">
        <ele>231.4</ele>
        <time>2021-08-22T15:13:01Z</time>
      </trkpt>
      <trkpt lat="45.70495" lon="5.7543">
        <ele>231.4</ele>
        <time>2021-08-22T15:13:03Z</time>
      </trkpt>
      <trkpt lat="45.70495" lon="5.75422">
        <ele>231.4</ele>
        <time>2021-08-22T15:13:04Z</time>
      </trkpt>
      <trkpt lat="45.70494" lon="5.75415">
        <ele>231.4</ele>
        <time>2021-08-22T15:13:06Z</time>
      </trkpt>
      <trkpt lat="45.70493" lon="5.7541">
        <ele>231.4</ele>
        <time>2021-08-22T15:13:07Z</time>
      </trkpt>
      <trkpt lat="45.70492" lon="5.75403">
        <ele>231.4</ele>
        <time>2021-08-22T15:13:09Z</time>
      </trkpt>
      <trkpt lat="45.70492" lon="5.75396">
        <ele>231.4</ele>
        <time>2021-08-22T15:13:10Z</time>
      </trkpt>
      <trkpt lat="45.70491" lon="5.7539">
        <ele>231.4</ele>
        <time>2021-08-22T15:13:11Z</time>
      </trkpt>
      <trkpt lat="45.70491" lon="5.7538">
        <ele>231.4</ele>
        <time>2021-08-22T15:13:13Z</time>
      </trkpt>
      <trkpt lat="45.70493" lon="5.7537">
        <ele>231.4</ele>
        <time>2021-08-22T15:13:15Z</time>
      </trkpt>
      <trkpt lat="45.70495" lon="5.75365">
        <ele>231.4</ele>
        <time>2021-08-22T15:13:16Z</time>
      </trkpt>
      <trkpt lat="45.705" lon="5.75361">
        <ele>230.5</ele>
        <time>2021-08-22T15:13:17Z</time>
      </trkpt>
      <trkpt lat="45.70504" lon="5.75356">
        <ele>230.2</ele>
        <time>2021-08-22T15:13:18Z</time>
      </trkpt>
      <trkpt lat="45.7051" lon="5.75346">
        <ele>229.4</ele>
        <time>2021-08-22T15:13:20Z</time>
      </trkpt>
      <trkpt lat="45.70513" lon="5.7533">
        <ele>228.6</ele>
        <time>2021-08-22T15:13:22Z</time>
      </trkpt>
      <trkpt lat="45.70514" lon="5.75324">
        <ele>228.3</ele>
        <time>2021-08-22T15:13:23Z</time>
      </trkpt>
      <trkpt lat="45.70515" lon="5.75318">
        <ele>228.1</ele>
        <time>2021-08-22T15:13:24Z</time>
      </trkpt>
      <trkpt lat="45.70515" lon="5.75314">
        <ele>227.9</ele>
        <time>2021-08-22T15:13:25Z</time>
      </trkpt>
      <trkpt lat="45.7052" lon="5.7531">
        <ele>227.6</ele>
        <time>2021-08-22T15:13:26Z</time>
      </trkpt>
      <trkpt lat="45.70526" lon="5.75307">
        <ele>227.4</ele>
        <time>2021-08-22T15:13:28Z</time>
      </trkpt>
      <trkpt lat="45.70533" lon="5.75306">
        <ele>227.1</ele>
        <time>2021-08-22T15:13:29Z</time>
      </trkpt>
      <trkpt lat="45.70539" lon="5.75306">
        <ele>226.9</ele>
        <time>2021-08-22T15:13:30Z</time>
      </trkpt>
      <trkpt lat="45.70545" lon="5.75308">
        <ele>226.7</ele>
        <time>2021-08-22T15:13:31Z</time>
      </trkpt>
      <trkpt lat="45.70549" lon="5.75311">
        <ele>226.6</ele>
        <time>2021-08-22T15:13:32Z</time>
      </trkpt>
      <trkpt lat="45.70554" lon="5.75316">
        <ele>226.4</ele>
        <time>2021-08-22T15:13:34Z</time>
      </trkpt>
      <trkpt lat="45.70559" lon="5.75322">
        <ele>226.4</ele>
        <time>2021-08-22T15:13:35Z</time>
      </trkpt>
      <trkpt lat="45.70563" lon="5.75326">
        <ele>226.6</ele>
        <time>2021-08-22T15:13:37Z</time>
      </trkpt>
      <trkpt lat="45.70567" lon="5.75333">
        <ele>226.1</ele>
        <time>2021-08-22T15:13:39Z</time>
      </trkpt>
      <trkpt lat="45.70569" lon="5.75336">
        <ele>226.1</ele>
        <time>2021-08-22T15:13:40Z</time>
      </trkpt>
      <trkpt lat="45.70572" lon="5.75339">
        <ele>225.3</ele>
        <time>2021-08-22T15:13:41Z</time>
      </trkpt>
      <trkpt lat="45.70574" lon="5.7534">
        <ele>224.7</ele>
        <time>2021-08-22T15:13:42Z</time>
      </trkpt>
      <trkpt lat="45.70578" lon="5.75343">
        <ele>223.5</ele>
        <time>2021-08-22T15:13:44Z</time>
      </trkpt>
      <trkpt lat="45.70582" lon="5.75343">
        <ele>221.6</ele>
        <time>2021-08-22T15:13:46Z</time>
      </trkpt>
      <trkpt lat="45.70584" lon="5.75342">
        <ele>221.6</ele>
        <time>2021-08-22T15:13:47Z</time>
      </trkpt>
      <trkpt lat="45.70586" lon="5.75341">
        <ele>220.7</ele>
        <time>2021-08-22T15:13:48Z</time>
      </trkpt>
      <trkpt lat="45.70587" lon="5.7534">
        <ele>220.8</ele>
        <time>2021-08-22T15:13:49Z</time>
      </trkpt>
      <trkpt lat="45.70588" lon="5.75339">
        <ele>220.8</ele>
        <time>2021-08-22T15:13:50Z</time>
      </trkpt>
      <trkpt lat="45.7059" lon="5.75338">
        <ele>219.9</ele>
        <time>2021-08-22T15:13:52Z</time>
      </trkpt>
      <trkpt lat="45.7059" lon="5.75341">
        <ele>219.7</ele>
        <time>2021-08-22T15:13:53Z</time>
      </trkpt>
      <trkpt lat="45.70591" lon="5.75343">
        <ele>218.9</ele>
        <time>2021-08-22T15:13:55Z</time>
      </trkpt>
      <trkpt lat="45.70592" lon="5.75345">
        <ele>218.8</ele>
        <time>2021-08-22T15:13:57Z</time>
      </trkpt>
      <trkpt lat="45.70593" lon="5.75347">
        <ele>218.8</ele>
        <time>2021-08-22T15:13:58Z</time>
      </trkpt>
      <trkpt lat="45.70594" lon="5.75349">
        <ele>218.8</ele>
        <time>2021-08-22T15:14:00Z</time>
      </trkpt>
      <trkpt lat="45.70595" lon="5.75352">
        <ele>218.1</ele>
        <time>2021-08-22T15:14:02Z</time>
      </trkpt>
      <trkpt lat="45.70595" lon="5.75354">
        <ele>218.1</ele>
        <time>2021-08-22T15:21:32Z</time>
      </trkpt>
      <trkpt lat="45.70596" lon="5.75356">
        <ele>218.1</ele>
        <time>2021-08-22T15:21:33Z</time>
      </trkpt>
      <trkpt lat="45.70598" lon="5.75356">
        <ele>217.6</ele>
        <time>2021-08-22T15:21:34Z</time>
      </trkpt>
      <trkpt lat="45.706" lon="5.75357">
        <ele>217.6</ele>
        <time>2021-08-22T15:21:35Z</time>
      </trkpt>
      <trkpt lat="45.706" lon="5.75359">
        <ele>217.3</ele>
        <time>2021-08-22T15:21:37Z</time>
      </trkpt>
      <trkpt lat="45.70601" lon="5.75361">
        <ele>217.3</ele>
        <time>2021-08-22T15:21:38Z</time>
      </trkpt>
      <trkpt lat="45.70601" lon="5.75363">
        <ele>217.3</ele>
        <time>2021-08-22T15:21:39Z</time>
      </trkpt>
      <trkpt lat="45.70601" lon="5.75364">
        <ele>217.3</ele>
        <time>2021-08-22T15:21:40Z</time>
      </trkpt>
      <trkpt lat="45.70601" lon="5.75365">
        <ele>217.3</ele>
        <time>2021-08-22T15:21:42Z</time>
      </trkpt>
      <trkpt lat="45.70601" lon="5.75366">
        <ele>217.3</ele>
        <time>2021-08-22T15:21:43Z</time>
      </trkpt>
      <trkpt lat="45.70602" lon="5.75367">
        <ele>217.3</ele>
        <time>2021-08-22T15:21:44Z</time>
      </trkpt>
      <trkpt lat="45.70604" lon="5.75368">
        <ele>217</ele>
        <time>2021-08-22T15:21:45Z</time>
      </trkpt>
      <trkpt lat="45.70605" lon="5.75369">
        <ele>217</ele>
        <time>2021-08-22T15:21:46Z</time>
      </trkpt>
      <trkpt lat="45.70606" lon="5.75369">
        <ele>216.9</ele>
        <time>2021-08-22T15:21:48Z</time>
      </trkpt>
      <trkpt lat="45.70606" lon="5.75369">
        <ele>216.9</ele>
        <time>2021-08-22T15:21:49Z</time>
      </trkpt>
      <trkpt lat="45.70607" lon="5.75369">
        <ele>216.9</ele>
        <time>2021-08-22T15:21:50Z</time>
      </trkpt>
      <trkpt lat="45.70609" lon="5.75371">
        <ele>216.9</ele>
        <time>2021-08-22T15:21:51Z</time>
      </trkpt>
      <trkpt lat="45.70611" lon="5.75372">
        <ele>216.9</ele>
        <time>2021-08-22T15:21:53Z</time>
      </trkpt>
      <trkpt lat="45.70612" lon="5.75372">
        <ele>217</ele>
        <time>2021-08-22T15:21:54Z</time>
      </trkpt>
      <trkpt lat="45.70613" lon="5.75373">
        <ele>217</ele>
        <time>2021-08-22T15:21:55Z</time>
      </trkpt>
      <trkpt lat="45.70614" lon="5.75373">
        <ele>217</ele>
        <time>2021-08-22T15:21:56Z</time>
      </trkpt>
      <trkpt lat="45.70614" lon="5.75377">
        <ele>217</ele>
        <time>2021-08-22T15:21:57Z</time>
      </trkpt>
      <trkpt lat="45.70614" lon="5.75379">
        <ele>217</ele>
        <time>2021-08-22T15:21:59Z</time>
      </trkpt>
      <trkpt lat="45.70613" lon="5.7538">
        <ele>217</ele>
        <time>2021-08-22T15:22:00Z</time>
      </trkpt>
      <trkpt lat="45.70613" lon="5.75382">
        <ele>217</ele>
        <time>2021-08-22T15:22:01Z</time>
      </trkpt>
      <trkpt lat="45.70613" lon="5.75383">
        <ele>217</ele>
        <time>2021-08-22T15:22:02Z</time>
      </trkpt>
      <trkpt lat="45.70613" lon="5.75385">
        <ele>217</ele>
        <time>2021-08-22T15:22:03Z</time>
      </trkpt>
      <trkpt lat="45.70613" lon="5.75387">
        <ele>217</ele>
        <time>2021-08-22T15:22:05Z</time>
      </trkpt>
      <trkpt lat="45.70613" lon="5.75388">
        <ele>217</ele>
        <time>2021-08-22T15:22:06Z</time>
      </trkpt>
      <trkpt lat="45.70613" lon="5.75388">
        <ele>217</ele>
        <time>2021-08-22T15:22:08Z</time>
      </trkpt>
      <trkpt lat="45.70612" lon="5.75389">
        <ele>217</ele>
        <time>2021-08-22T15:22:10Z</time>
      </trkpt>
      <trkpt lat="45.70612" lon="5.7539">
        <ele>217</ele>
        <time>2021-08-22T15:22:11Z</time>
      </trkpt>
      <trkpt lat="45.70612" lon="5.7539">
        <ele>217</ele>
        <time>2021-08-22T15:22:12Z</time>
      </trkpt>
      <trkpt lat="45.70611" lon="5.75391">
        <ele>217</ele>
        <time>2021-08-22T15:22:13Z</time>
      </trkpt>
      <trkpt lat="45.70611" lon="5.75391">
        <ele>217</ele>
        <time>2021-08-22T15:22:14Z</time>
      </trkpt>
      <trkpt lat="45.70611" lon="5.75392">
        <ele>217</ele>
        <time>2021-08-22T15:22:15Z</time>
      </trkpt>
      <trkpt lat="45.70609" lon="5.75397">
        <ele>217</ele>
        <time>2021-08-22T15:22:17Z</time>
      </trkpt>
      <trkpt lat="45.70608" lon="5.75398">
        <ele>217</ele>
        <time>2021-08-22T15:22:18Z</time>
      </trkpt>
      <trkpt lat="45.70605" lon="5.75403">
        <ele>217</ele>
        <time>2021-08-22T15:22:20Z</time>
      </trkpt>
      <trkpt lat="45.70603" lon="5.75405">
        <ele>217</ele>
        <time>2021-08-22T15:22:21Z</time>
      </trkpt>
      <trkpt lat="45.70602" lon="5.7541">
        <ele>216.9</ele>
        <time>2021-08-22T15:22:22Z</time>
      </trkpt>
      <trkpt lat="45.70602" lon="5.75412">
        <ele>216.9</ele>
        <time>2021-08-22T15:22:23Z</time>
      </trkpt>
      <trkpt lat="45.70602" lon="5.75419">
        <ele>216.6</ele>
        <time>2021-08-22T15:22:25Z</time>
      </trkpt>
      <trkpt lat="45.70603" lon="5.75425">
        <ele>216.7</ele>
        <time>2021-08-22T15:22:26Z</time>
      </trkpt>
      <trkpt lat="45.70604" lon="5.75429">
        <ele>216.7</ele>
        <time>2021-08-22T15:22:28Z</time>
      </trkpt>
      <trkpt lat="45.70603" lon="5.75433">
        <ele>217.4</ele>
        <time>2021-08-22T15:22:29Z</time>
      </trkpt>
      <trkpt lat="45.70601" lon="5.75435">
        <ele>218.1</ele>
        <time>2021-08-22T15:22:30Z</time>
      </trkpt>
      <trkpt lat="45.70598" lon="5.75438">
        <ele>218.6</ele>
        <time>2021-08-22T15:22:32Z</time>
      </trkpt>
      <trkpt lat="45.70596" lon="5.75439">
        <ele>219.1</ele>
        <time>2021-08-22T15:22:33Z</time>
      </trkpt>
      <trkpt lat="45.70595" lon="5.75439">
        <ele>220</ele>
        <time>2021-08-22T15:22:35Z</time>
      </trkpt>
      <trkpt lat="45.70595" lon="5.75439">
        <ele>220</ele>
        <time>2021-08-22T15:22:36Z</time>
      </trkpt>
      <trkpt lat="45.70595" lon="5.75439">
        <ele>220</ele>
        <time>2021-08-22T15:22:38Z</time>
      </trkpt>
      <trkpt lat="45.70595" lon="5.7544">
        <ele>220</ele>
        <time>2021-08-22T15:22:39Z</time>
      </trkpt>
      <trkpt lat="45.70594" lon="5.7544">
        <ele>220</ele>
        <time>2021-08-22T15:22:40Z</time>
      </trkpt>
      <trkpt lat="45.70595" lon="5.7544">
        <ele>220</ele>
        <time>2021-08-22T15:22:42Z</time>
      </trkpt>
      <trkpt lat="45.70608" lon="5.75443">
        <ele>218.4</ele>
        <time>2021-08-22T15:23:01Z</time>
      </trkpt>
      <trkpt lat="45.70609" lon="5.7544">
        <ele>218.1</ele>
        <time>2021-08-22T15:23:02Z</time>
      </trkpt>
      <trkpt lat="45.7061" lon="5.75436">
        <ele>217.5</ele>
        <time>2021-08-22T15:23:04Z</time>
      </trkpt>
      <trkpt lat="45.70613" lon="5.75432">
        <ele>217.1</ele>
        <time>2021-08-22T15:23:05Z</time>
      </trkpt>
      <trkpt lat="45.70615" lon="5.7543">
        <ele>216.8</ele>
        <time>2021-08-22T15:23:07Z</time>
      </trkpt>
      <trkpt lat="45.70616" lon="5.75428">
        <ele>217</ele>
        <time>2021-08-22T15:23:08Z</time>
      </trkpt>
      <trkpt lat="45.70617" lon="5.75427">
        <ele>217</ele>
        <time>2021-08-22T15:23:09Z</time>
      </trkpt>
      <trkpt lat="45.70617" lon="5.75426">
        <ele>216.9</ele>
        <time>2021-08-22T15:23:11Z</time>
      </trkpt>
      <trkpt lat="45.70618" lon="5.75426">
        <ele>217.3</ele>
        <time>2021-08-22T15:23:12Z</time>
      </trkpt>
      <trkpt lat="45.7062" lon="5.75425">
        <ele>217.3</ele>
        <time>2021-08-22T15:23:14Z</time>
      </trkpt>
      <trkpt lat="45.70621" lon="5.75423">
        <ele>217.6</ele>
        <time>2021-08-22T15:23:16Z</time>
      </trkpt>
      <trkpt lat="45.70623" lon="5.75421">
        <ele>217.6</ele>
        <time>2021-08-22T15:23:18Z</time>
      </trkpt>
      <trkpt lat="45.70624" lon="5.75419">
        <ele>217.6</ele>
        <time>2021-08-22T15:23:20Z</time>
      </trkpt>
      <trkpt lat="45.70625" lon="5.75418">
        <ele>217.8</ele>
        <time>2021-08-22T15:23:22Z</time>
      </trkpt>
      <trkpt lat="45.70626" lon="5.75415">
        <ele>217.8</ele>
        <time>2021-08-22T15:23:24Z</time>
      </trkpt>
      <trkpt lat="45.70438" lon="5.75669">
        <ele>232.1</ele>
        <time>2021-08-23T08:09:44Z</time>
      </trkpt>
      <trkpt lat="45.70438" lon="5.75669">
        <ele>232.1</ele>
        <time>2021-08-23T08:09:44Z</time>
      </trkpt>
      <trkpt lat="45.70437" lon="5.7566">
        <ele>232.1</ele>
        <time>2021-08-23T08:09:47Z</time>
      </trkpt>
      <trkpt lat="45.70443" lon="5.75664">
        <ele>232.1</ele>
        <time>2021-08-23T08:09:49Z</time>
      </trkpt>
      <trkpt lat="45.70453" lon="5.75682">
        <ele>232.1</ele>
        <time>2021-08-23T08:09:51Z</time>
      </trkpt>
      <trkpt lat="45.70448" lon="5.75675">
        <ele>232.1</ele>
        <time>2021-08-23T08:09:53Z</time>
      </trkpt>
      <trkpt lat="45.70445" lon="5.75669">
        <ele>232.1</ele>
        <time>2021-08-23T08:09:55Z</time>
      </trkpt>
      <trkpt lat="45.70433" lon="5.75663">
        <ele>232.1</ele>
        <time>2021-08-23T08:09:57Z</time>
      </trkpt>
      <trkpt lat="45.70427" lon="5.75666">
        <ele>232.1</ele>
        <time>2021-08-23T08:09:58Z</time>
      </trkpt>
      <trkpt lat="45.70423" lon="5.7567">
        <ele>232.1</ele>
        <time>2021-08-23T08:10:00Z</time>
      </trkpt>
      <trkpt lat="45.70424" lon="5.75672">
        <ele>232.1</ele>
        <time>2021-08-23T08:10:01Z</time>
      </trkpt>
      <trkpt lat="45.70426" lon="5.75673">
        <ele>232.1</ele>
        <time>2021-08-23T08:10:03Z</time>
      </trkpt>
      <trkpt lat="45.70427" lon="5.75672">
        <ele>232.1</ele>
        <time>2021-08-23T08:10:04Z</time>
      </trkpt>
      <trkpt lat="45.7043" lon="5.75673">
        <ele>232.1</ele>
        <time>2021-08-23T08:10:06Z</time>
      </trkpt>
      <trkpt lat="45.70432" lon="5.75673">
        <ele>232.1</ele>
        <time>2021-08-23T08:10:07Z</time>
      </trkpt>
      <trkpt lat="45.70432" lon="5.75673">
        <ele>232.1</ele>
        <time>2021-08-23T08:10:08Z</time>
      </trkpt>
      <trkpt lat="45.70431" lon="5.75673">
        <ele>232.1</ele>
        <time>2021-08-23T08:10:10Z</time>
      </trkpt>
      <trkpt lat="45.70431" lon="5.75672">
        <ele>232.1</ele>
        <time>2021-08-23T08:10:11Z</time>
      </trkpt>
      <trkpt lat="45.7043" lon="5.75671">
        <ele>232.1</ele>
        <time>2021-08-23T08:10:13Z</time>
      </trkpt>
      <trkpt lat="45.70431" lon="5.75671">
        <ele>232.1</ele>
        <time>2021-08-23T08:10:14Z</time>
      </trkpt>
      <trkpt lat="45.70431" lon="5.75669">
        <ele>232.1</ele>
        <time>2021-08-23T08:10:16Z</time>
      </trkpt>
      <trkpt lat="45.70431" lon="5.75669">
        <ele>232.1</ele>
        <time>2021-08-23T08:10:17Z</time>
      </trkpt>
      <trkpt lat="45.70432" lon="5.75669">
        <ele>232.1</ele>
        <time>2021-08-23T08:10:19Z</time>
      </trkpt>
      <trkpt lat="45.70431" lon="5.75666">
        <ele>232.1</ele>
        <time>2021-08-23T08:10:21Z</time>
      </trkpt>
      <trkpt lat="45.70431" lon="5.75664">
        <ele>232.1</ele>
        <time>2021-08-23T08:10:23Z</time>
      </trkpt>
      <trkpt lat="45.7043" lon="5.75663">
        <ele>232.1</ele>
        <time>2021-08-23T08:10:24Z</time>
      </trkpt>
      <trkpt lat="45.70429" lon="5.75661">
        <ele>232.1</ele>
        <time>2021-08-23T08:10:26Z</time>
      </trkpt>
      <trkpt lat="45.70429" lon="5.75661">
        <ele>232.1</ele>
        <time>2021-08-23T08:10:27Z</time>
      </trkpt>
      <trkpt lat="45.70429" lon="5.75663">
        <ele>232.1</ele>
        <time>2021-08-23T08:10:29Z</time>
      </trkpt>
      <trkpt lat="45.70429" lon="5.75665">
        <ele>232.1</ele>
        <time>2021-08-23T08:10:30Z</time>
      </trkpt>
      <trkpt lat="45.7043" lon="5.75665">
        <ele>232.1</ele>
        <time>2021-08-23T08:10:31Z</time>
      </trkpt>
      <trkpt lat="45.7043" lon="5.75665">
        <ele>232.1</ele>
        <time>2021-08-23T08:10:33Z</time>
      </trkpt>
      <trkpt lat="45.7043" lon="5.75664">
        <ele>232.1</ele>
        <time>2021-08-23T08:10:34Z</time>
      </trkpt>
      <trkpt lat="45.70429" lon="5.7566">
        <ele>232.1</ele>
        <time>2021-08-23T08:10:36Z</time>
      </trkpt>
      <trkpt lat="45.70429" lon="5.75659">
        <ele>232.1</ele>
        <time>2021-08-23T08:10:37Z</time>
      </trkpt>
      <trkpt lat="45.70429" lon="5.75658">
        <ele>232.1</ele>
        <time>2021-08-23T08:10:38Z</time>
      </trkpt>
      <trkpt lat="45.70429" lon="5.75658">
        <ele>232.1</ele>
        <time>2021-08-23T08:10:40Z</time>
      </trkpt>
      <trkpt lat="45.70429" lon="5.75658">
        <ele>232.1</ele>
        <time>2021-08-23T08:10:42Z</time>
      </trkpt>
      <trkpt lat="45.70429" lon="5.75658">
        <ele>232.1</ele>
        <time>2021-08-23T08:10:43Z</time>
      </trkpt>
      <trkpt lat="45.70429" lon="5.75658">
        <ele>232.1</ele>
        <time>2021-08-23T08:10:44Z</time>
      </trkpt>
      <trkpt lat="45.70429" lon="5.75658">
        <ele>232.1</ele>
        <time>2021-08-23T08:10:46Z</time>
      </trkpt>
      <trkpt lat="45.70429" lon="5.75661">
        <ele>232.1</ele>
        <time>2021-08-23T08:10:47Z</time>
      </trkpt>
      <trkpt lat="45.70429" lon="5.75662">
        <ele>232.1</ele>
        <time>2021-08-23T08:10:49Z</time>
      </trkpt>
      <trkpt lat="45.7043" lon="5.75662">
        <ele>232.1</ele>
        <time>2021-08-23T08:10:50Z</time>
      </trkpt>
      <trkpt lat="45.70429" lon="5.75659">
        <ele>232.1</ele>
        <time>2021-08-23T08:10:51Z</time>
      </trkpt>
      <trkpt lat="45.70428" lon="5.75657">
        <ele>232.1</ele>
        <time>2021-08-23T08:10:52Z</time>
      </trkpt>
      <trkpt lat="45.70427" lon="5.75657">
        <ele>232.1</ele>
        <time>2021-08-23T08:10:53Z</time>
      </trkpt>
      <trkpt lat="45.70426" lon="5.75655">
        <ele>232.1</ele>
        <time>2021-08-23T08:10:55Z</time>
      </trkpt>
      <trkpt lat="45.70427" lon="5.75655">
        <ele>232.1</ele>
        <time>2021-08-23T08:10:56Z</time>
      </trkpt>
      <trkpt lat="45.70427" lon="5.75654">
        <ele>232.1</ele>
        <time>2021-08-23T08:10:58Z</time>
      </trkpt>
      <trkpt lat="45.70428" lon="5.75655">
        <ele>232.1</ele>
        <time>2021-08-23T08:10:59Z</time>
      </trkpt>
      <trkpt lat="45.70428" lon="5.75659">
        <ele>232.1</ele>
        <time>2021-08-23T08:11:01Z</time>
      </trkpt>
      <trkpt lat="45.70428" lon="5.75661">
        <ele>232.1</ele>
        <time>2021-08-23T08:11:02Z</time>
      </trkpt>
      <trkpt lat="45.70427" lon="5.75662">
        <ele>232.1</ele>
        <time>2021-08-23T08:11:03Z</time>
      </trkpt>
      <trkpt lat="45.70426" lon="5.75662">
        <ele>232.1</ele>
        <time>2021-08-23T08:11:05Z</time>
      </trkpt>
      <trkpt lat="45.70426" lon="5.75662">
        <ele>232.1</ele>
        <time>2021-08-23T08:11:06Z</time>
      </trkpt>
      <trkpt lat="45.70425" lon="5.75661">
        <ele>232.1</ele>
        <time>2021-08-23T08:11:08Z</time>
      </trkpt>
      <trkpt lat="45.70425" lon="5.75661">
        <ele>232.1</ele>
        <time>2021-08-23T08:11:09Z</time>
      </trkpt>
      <trkpt lat="45.70425" lon="5.75661">
        <ele>232.1</ele>
        <time>2021-08-23T08:11:11Z</time>
      </trkpt>
      <trkpt lat="45.70424" lon="5.75663">
        <ele>232.1</ele>
        <time>2021-08-23T08:11:12Z</time>
      </trkpt>
      <trkpt lat="45.70425" lon="5.75666">
        <ele>232.1</ele>
        <time>2021-08-23T08:11:14Z</time>
      </trkpt>
      <trkpt lat="45.70426" lon="5.75666">
        <ele>232.1</ele>
        <time>2021-08-23T08:11:15Z</time>
      </trkpt>
      <trkpt lat="45.70427" lon="5.75666">
        <ele>232.1</ele>
        <time>2021-08-23T08:11:17Z</time>
      </trkpt>
      <trkpt lat="45.70428" lon="5.75665">
        <ele>232.1</ele>
        <time>2021-08-23T08:11:18Z</time>
      </trkpt>
      <trkpt lat="45.70428" lon="5.75665">
        <ele>232.1</ele>
        <time>2021-08-23T08:11:20Z</time>
      </trkpt>
      <trkpt lat="45.70429" lon="5.75664">
        <ele>232.1</ele>
        <time>2021-08-23T08:11:21Z</time>
      </trkpt>
      <trkpt lat="45.7043" lon="5.75664">
        <ele>232.1</ele>
        <time>2021-08-23T08:11:22Z</time>
      </trkpt>
      <trkpt lat="45.7043" lon="5.75664">
        <ele>232.1</ele>
        <time>2021-08-23T08:11:24Z</time>
      </trkpt>
      <trkpt lat="45.70431" lon="5.75663">
        <ele>232.1</ele>
        <time>2021-08-23T08:11:26Z</time>
      </trkpt>
      <trkpt lat="45.70432" lon="5.75663">
        <ele>232.1</ele>
        <time>2021-08-23T08:11:28Z</time>
      </trkpt>
      <trkpt lat="45.70432" lon="5.75662">
        <ele>232.1</ele>
        <time>2021-08-23T08:11:29Z</time>
      </trkpt>
      <trkpt lat="45.70433" lon="5.75663">
        <ele>232.1</ele>
        <time>2021-08-23T08:11:30Z</time>
      </trkpt>
      <trkpt lat="45.70434" lon="5.75663">
        <ele>232.1</ele>
        <time>2021-08-23T08:11:31Z</time>
      </trkpt>
      <trkpt lat="45.70435" lon="5.75664">
        <ele>232.1</ele>
        <time>2021-08-23T08:11:32Z</time>
      </trkpt>
      <trkpt lat="45.70436" lon="5.75667">
        <ele>232.1</ele>
        <time>2021-08-23T08:11:34Z</time>
      </trkpt>
      <trkpt lat="45.70433" lon="5.75664">
        <ele>232.1</ele>
        <time>2021-08-23T08:11:35Z</time>
      </trkpt>
      <trkpt lat="45.70432" lon="5.75662">
        <ele>232.1</ele>
        <time>2021-08-23T08:11:36Z</time>
      </trkpt>
      <trkpt lat="45.70432" lon="5.75661">
        <ele>232.1</ele>
        <time>2021-08-23T08:11:37Z</time>
      </trkpt>
      <trkpt lat="45.7043" lon="5.75657">
        <ele>232.1</ele>
        <time>2021-08-23T08:11:39Z</time>
      </trkpt>
      <trkpt lat="45.7043" lon="5.75658">
        <ele>232.1</ele>
        <time>2021-08-23T08:11:41Z</time>
      </trkpt>
      <trkpt lat="45.70427" lon="5.75658">
        <ele>232.1</ele>
        <time>2021-08-23T08:11:42Z</time>
      </trkpt>
      <trkpt lat="45.70427" lon="5.75663">
        <ele>232.1</ele>
        <time>2021-08-23T08:11:44Z</time>
      </trkpt>
      <trkpt lat="45.70427" lon="5.75663">
        <ele>232.1</ele>
        <time>2021-08-23T08:11:46Z</time>
      </trkpt>
      <trkpt lat="45.70428" lon="5.75663">
        <ele>232.1</ele>
        <time>2021-08-23T08:11:47Z</time>
      </trkpt>
      <trkpt lat="45.70428" lon="5.75663">
        <ele>232.1</ele>
        <time>2021-08-23T08:11:49Z</time>
      </trkpt>
      <trkpt lat="45.70429" lon="5.75664">
        <ele>232.1</ele>
        <time>2021-08-23T08:11:50Z</time>
      </trkpt>
      <trkpt lat="45.70429" lon="5.75664">
        <ele>232.1</ele>
        <time>2021-08-23T08:11:52Z</time>
      </trkpt>
      <trkpt lat="45.7043" lon="5.75664">
        <ele>232.1</ele>
        <time>2021-08-23T08:11:54Z</time>
      </trkpt>
      <trkpt lat="45.7043" lon="5.75664">
        <ele>232.1</ele>
        <time>2021-08-23T08:11:55Z</time>
      </trkpt>
      <trkpt lat="45.70431" lon="5.75664">
        <ele>232.1</ele>
        <time>2021-08-23T08:11:56Z</time>
      </trkpt>
      <trkpt lat="45.70431" lon="5.75665">
        <ele>232.1</ele>
        <time>2021-08-23T08:11:58Z</time>
      </trkpt>
      <trkpt lat="45.70432" lon="5.75665">
        <ele>232.1</ele>
        <time>2021-08-23T08:12:00Z</time>
      </trkpt>
      <trkpt lat="45.70432" lon="5.75665">
        <ele>232</ele>
        <time>2021-08-23T08:12:02Z</time>
      </trkpt>
      <trkpt lat="45.70433" lon="5.75665">
        <ele>232</ele>
        <time>2021-08-23T08:14:21Z</time>
      </trkpt>
      <trkpt lat="45.70433" lon="5.75666">
        <ele>232</ele>
        <time>2021-08-23T08:14:25Z</time>
      </trkpt>
      <trkpt lat="45.70434" lon="5.75666">
        <ele>232</ele>
        <time>2021-08-23T08:14:33Z</time>
      </trkpt>
      <trkpt lat="45.70434" lon="5.75666">
        <ele>232</ele>
        <time>2021-08-23T08:14:44Z</time>
      </trkpt>
      <trkpt lat="45.70435" lon="5.75666">
        <ele>232</ele>
        <time>2021-08-23T08:14:51Z</time>
      </trkpt>
      <trkpt lat="45.70435" lon="5.75667">
        <ele>232</ele>
        <time>2021-08-23T08:14:57Z</time>
      </trkpt>
      <trkpt lat="45.70436" lon="5.75667">
        <ele>232</ele>
        <time>2021-08-23T08:15:04Z</time>
      </trkpt>
      <trkpt lat="45.70436" lon="5.75667">
        <ele>232</ele>
        <time>2021-08-23T08:15:10Z</time>
      </trkpt>
      <trkpt lat="45.70437" lon="5.75667">
        <ele>232</ele>
        <time>2021-08-23T08:15:11Z</time>
      </trkpt>
      <trkpt lat="45.70436" lon="5.75669">
        <ele>232</ele>
        <time>2021-08-23T08:15:13Z</time>
      </trkpt>
      <trkpt lat="45.70436" lon="5.75669">
        <ele>232</ele>
        <time>2021-08-23T08:15:14Z</time>
      </trkpt>
      <trkpt lat="45.70436" lon="5.75669">
        <ele>232</ele>
        <time>2021-08-23T08:15:17Z</time>
      </trkpt>
      <trkpt lat="45.70437" lon="5.75669">
        <ele>232</ele>
        <time>2021-08-23T08:15:20Z</time>
      </trkpt>
      <trkpt lat="45.70437" lon="5.75669">
        <ele>232</ele>
        <time>2021-08-23T08:15:23Z</time>
      </trkpt>
      <trkpt lat="45.70432" lon="5.7568">
        <ele>232</ele>
        <time>2021-08-23T08:15:49Z</time>
      </trkpt>
      <trkpt lat="45.70427" lon="5.75688">
        <ele>232</ele>
        <time>2021-08-23T08:15:56Z</time>
      </trkpt>
      <trkpt lat="45.70433" lon="5.75686">
        <ele>232</ele>
        <time>2021-08-23T08:16:02Z</time>
      </trkpt>
      <trkpt lat="45.70431" lon="5.75684">
        <ele>232</ele>
        <time>2021-08-23T08:16:09Z</time>
      </trkpt>
      <trkpt lat="45.70429" lon="5.75685">
        <ele>232</ele>
        <time>2021-08-23T08:16:15Z</time>
      </trkpt>
      <trkpt lat="45.70436" lon="5.75676">
        <ele>232</ele>
        <time>2021-08-23T08:16:22Z</time>
      </trkpt>
      <trkpt lat="45.70438" lon="5.75674">
        <ele>232</ele>
        <time>2021-08-23T08:16:28Z</time>
      </trkpt>
      <trkpt lat="45.70437" lon="5.75674">
        <ele>232</ele>
        <time>2021-08-23T08:16:35Z</time>
      </trkpt>
      <trkpt lat="45.70437" lon="5.75675">
        <ele>232</ele>
        <time>2021-08-23T08:16:40Z</time>
      </trkpt>
      <trkpt lat="45.70435" lon="5.75679">
        <ele>232</ele>
        <time>2021-08-23T08:16:46Z</time>
      </trkpt>
      <trkpt lat="45.70434" lon="5.75679">
        <ele>232</ele>
        <time>2021-08-23T08:16:48Z</time>
      </trkpt>
      <trkpt lat="45.70435" lon="5.75678">
        <ele>232</ele>
        <time>2021-08-23T08:16:49Z</time>
      </trkpt>
      <trkpt lat="45.70436" lon="5.75677">
        <ele>232</ele>
        <time>2021-08-23T08:16:51Z</time>
      </trkpt>
      <trkpt lat="45.70436" lon="5.75676">
        <ele>232</ele>
        <time>2021-08-23T08:16:53Z</time>
      </trkpt>
      <trkpt lat="45.70436" lon="5.75676">
        <ele>232</ele>
        <time>2021-08-23T08:16:54Z</time>
      </trkpt>
      <trkpt lat="45.70439" lon="5.75669">
        <ele>232</ele>
        <time>2021-08-23T08:16:57Z</time>
      </trkpt>
      <trkpt lat="45.70439" lon="5.75668">
        <ele>232</ele>
        <time>2021-08-23T08:17:01Z</time>
      </trkpt>
      <trkpt lat="45.70439" lon="5.75665">
        <ele>232</ele>
        <time>2021-08-23T08:17:02Z</time>
      </trkpt>
      <trkpt lat="45.7044" lon="5.75663">
        <ele>232</ele>
        <time>2021-08-23T08:17:07Z</time>
      </trkpt>
      <trkpt lat="45.7044" lon="5.75662">
        <ele>232</ele>
        <time>2021-08-23T08:17:13Z</time>
      </trkpt>
      <trkpt lat="45.70441" lon="5.75661">
        <ele>232</ele>
        <time>2021-08-23T08:17:13Z</time>
      </trkpt>
      <trkpt lat="45.70442" lon="5.75659">
        <ele>232</ele>
        <time>2021-08-23T08:17:14Z</time>
      </trkpt>
      <trkpt lat="45.70442" lon="5.75658">
        <ele>232</ele>
        <time>2021-08-23T08:17:16Z</time>
      </trkpt>
      <trkpt lat="45.70442" lon="5.75657">
        <ele>232</ele>
        <time>2021-08-23T08:17:17Z</time>
      </trkpt>
      <trkpt lat="45.70442" lon="5.75658">
        <ele>232</ele>
        <time>2021-08-23T08:17:18Z</time>
      </trkpt>
      <trkpt lat="45.70442" lon="5.75657">
        <ele>232</ele>
        <time>2021-08-23T08:17:20Z</time>
      </trkpt>
      <trkpt lat="45.70442" lon="5.75657">
        <ele>231.9</ele>
        <time>2021-08-23T08:17:21Z</time>
      </trkpt>
      <trkpt lat="45.70442" lon="5.75655">
        <ele>231.9</ele>
        <time>2021-08-23T08:17:23Z</time>
      </trkpt>
      <trkpt lat="45.7044" lon="5.75654">
        <ele>231.9</ele>
        <time>2021-08-23T08:17:24Z</time>
      </trkpt>
      <trkpt lat="45.70439" lon="5.75653">
        <ele>231.9</ele>
        <time>2021-08-23T08:17:25Z</time>
      </trkpt>
      <trkpt lat="45.70437" lon="5.75652">
        <ele>231.9</ele>
        <time>2021-08-23T08:17:26Z</time>
      </trkpt>
      <trkpt lat="45.70432" lon="5.7565">
        <ele>232</ele>
        <time>2021-08-23T08:17:27Z</time>
      </trkpt>
      <trkpt lat="45.7043" lon="5.7565">
        <ele>232.1</ele>
        <time>2021-08-23T08:17:28Z</time>
      </trkpt>
      <trkpt lat="45.70424" lon="5.75648">
        <ele>232.1</ele>
        <time>2021-08-23T08:17:29Z</time>
      </trkpt>
      <trkpt lat="45.7042" lon="5.75646">
        <ele>232.2</ele>
        <time>2021-08-23T08:17:30Z</time>
      </trkpt>
      <trkpt lat="45.70415" lon="5.75644">
        <ele>232.3</ele>
        <time>2021-08-23T08:17:32Z</time>
      </trkpt>
      <trkpt lat="45.7041" lon="5.75642">
        <ele>232.3</ele>
        <time>2021-08-23T08:17:33Z</time>
      </trkpt>
      <trkpt lat="45.70403" lon="5.75639">
        <ele>232.4</ele>
        <time>2021-08-23T08:17:34Z</time>
      </trkpt>
      <trkpt lat="45.70399" lon="5.75638">
        <ele>232.5</ele>
        <time>2021-08-23T08:17:35Z</time>
      </trkpt>
      <trkpt lat="45.70396" lon="5.75637">
        <ele>232.5</ele>
        <time>2021-08-23T08:17:36Z</time>
      </trkpt>
      <trkpt lat="45.70394" lon="5.75638">
        <ele>232.5</ele>
        <time>2021-08-23T08:17:37Z</time>
      </trkpt>
      <trkpt lat="45.70393" lon="5.75638">
        <ele>232.6</ele>
        <time>2021-08-23T08:17:38Z</time>
      </trkpt>
      <trkpt lat="45.70392" lon="5.75638">
        <ele>232.6</ele>
        <time>2021-08-23T08:17:39Z</time>
      </trkpt>
      <trkpt lat="45.70306" lon="5.75752">
        <ele>235</ele>
        <time>2021-08-23T08:18:28Z</time>
      </trkpt>
      <trkpt lat="45.70303" lon="5.75758">
        <ele>235.2</ele>
        <time>2021-08-23T08:18:29Z</time>
      </trkpt>
      <trkpt lat="45.70298" lon="5.75765">
        <ele>235.3</ele>
        <time>2021-08-23T08:18:31Z</time>
      </trkpt>
      <trkpt lat="45.70295" lon="5.75769">
        <ele>235.2</ele>
        <time>2021-08-23T08:18:32Z</time>
      </trkpt>
      <trkpt lat="45.70293" lon="5.75771">
        <ele>235.2</ele>
        <time>2021-08-23T08:18:33Z</time>
      </trkpt>
      <trkpt lat="45.70291" lon="5.75775">
        <ele>235.2</ele>
        <time>2021-08-23T08:18:35Z</time>
      </trkpt>
      <trkpt lat="45.70289" lon="5.75783">
        <ele>235.2</ele>
        <time>2021-08-23T08:18:36Z</time>
      </trkpt>
      <trkpt lat="45.70288" lon="5.75788">
        <ele>235.1</ele>
        <time>2021-08-23T08:18:37Z</time>
      </trkpt>
      <trkpt lat="45.70287" lon="5.75801">
        <ele>235.1</ele>
        <time>2021-08-23T08:18:39Z</time>
      </trkpt>
      <trkpt lat="45.70287" lon="5.75819">
        <ele>235.1</ele>
        <time>2021-08-23T08:18:41Z</time>
      </trkpt>
      <trkpt lat="45.70286" lon="5.75828">
        <ele>235.2</ele>
        <time>2021-08-23T08:18:42Z</time>
      </trkpt>
      <trkpt lat="45.70285" lon="5.7584">
        <ele>235.2</ele>
        <time>2021-08-23T08:18:44Z</time>
      </trkpt>
      <trkpt lat="45.70283" lon="5.7585">
        <ele>235.2</ele>
        <time>2021-08-23T08:18:45Z</time>
      </trkpt>
      <trkpt lat="45.70281" lon="5.75859">
        <ele>235.1</ele>
        <time>2021-08-23T08:18:46Z</time>
      </trkpt>
      <trkpt lat="45.7028" lon="5.75865">
        <ele>235.1</ele>
        <time>2021-08-23T08:18:47Z</time>
      </trkpt>
      <trkpt lat="45.70279" lon="5.75879">
        <ele>235.1</ele>
        <time>2021-08-23T08:18:49Z</time>
      </trkpt>
      <trkpt lat="45.70276" lon="5.75889">
        <ele>235</ele>
        <time>2021-08-23T08:18:51Z</time>
      </trkpt>
      <trkpt lat="45.70273" lon="5.75898">
        <ele>235</ele>
        <time>2021-08-23T08:18:52Z</time>
      </trkpt>
      <trkpt lat="45.70272" lon="5.75904">
        <ele>235</ele>
        <time>2021-08-23T08:18:53Z</time>
      </trkpt>
      <trkpt lat="45.70274" lon="5.75909">
        <ele>235</ele>
        <time>2021-08-23T08:18:55Z</time>
      </trkpt>
      <trkpt lat="45.70274" lon="5.75908">
        <ele>235</ele>
        <time>2021-08-23T08:18:56Z</time>
      </trkpt>
      <trkpt lat="45.70274" lon="5.75907">
        <ele>235</ele>
        <time>2021-08-23T08:18:57Z</time>
      </trkpt>
      <trkpt lat="45.70272" lon="5.75906">
        <ele>235</ele>
        <time>2021-08-23T08:18:58Z</time>
      </trkpt>
      <trkpt lat="45.7027" lon="5.75901">
        <ele>235</ele>
        <time>2021-08-23T08:19:00Z</time>
      </trkpt>
      <trkpt lat="45.7027" lon="5.75899">
        <ele>235</ele>
        <time>2021-08-23T08:19:01Z</time>
      </trkpt>
      <trkpt lat="45.7027" lon="5.75897">
        <ele>235</ele>
        <time>2021-08-23T08:19:02Z</time>
      </trkpt>
      <trkpt lat="45.70268" lon="5.75893">
        <ele>235</ele>
        <time>2021-08-23T08:19:03Z</time>
      </trkpt>
      <trkpt lat="45.70269" lon="5.75889">
        <ele>235.1</ele>
        <time>2021-08-23T08:19:04Z</time>
      </trkpt>
      <trkpt lat="45.70269" lon="5.75883">
        <ele>235.1</ele>
        <time>2021-08-23T08:19:05Z</time>
      </trkpt>
      <trkpt lat="45.70269" lon="5.75878">
        <ele>235.1</ele>
        <time>2021-08-23T08:19:06Z</time>
      </trkpt>
      <trkpt lat="45.70271" lon="5.75865">
        <ele>235.1</ele>
        <time>2021-08-23T08:19:08Z</time>
      </trkpt>
      <trkpt lat="45.70272" lon="5.75857">
        <ele>235.2</ele>
        <time>2021-08-23T08:19:09Z</time>
      </trkpt>
      <trkpt lat="45.70273" lon="5.75851">
        <ele>235.2</ele>
        <time>2021-08-23T08:19:10Z</time>
      </trkpt>
      <trkpt lat="45.70276" lon="5.75838">
        <ele>235.2</ele>
        <time>2021-08-23T08:19:12Z</time>
      </trkpt>
      <trkpt lat="45.70278" lon="5.75829">
        <ele>235.2</ele>
        <time>2021-08-23T08:19:13Z</time>
      </trkpt>
      <trkpt lat="45.7028" lon="5.75822">
        <ele>235.2</ele>
        <time>2021-08-23T08:19:14Z</time>
      </trkpt>
      <trkpt lat="45.70282" lon="5.75816">
        <ele>235.1</ele>
        <time>2021-08-23T08:19:15Z</time>
      </trkpt>
      <trkpt lat="45.70284" lon="5.75805">
        <ele>235.1</ele>
        <time>2021-08-23T08:19:17Z</time>
      </trkpt>
      <trkpt lat="45.70286" lon="5.75798">
        <ele>235.1</ele>
        <time>2021-08-23T08:19:18Z</time>
      </trkpt>
      <trkpt lat="45.70289" lon="5.75791">
        <ele>235.1</ele>
        <time>2021-08-23T08:19:20Z</time>
      </trkpt>
      <trkpt lat="45.70291" lon="5.75782">
        <ele>235.2</ele>
        <time>2021-08-23T08:19:21Z</time>
      </trkpt>
      <trkpt lat="45.7029" lon="5.75772">
        <ele>235.2</ele>
        <time>2021-08-23T08:19:23Z</time>
      </trkpt>
      <trkpt lat="45.7029" lon="5.75764">
        <ele>235.3</ele>
        <time>2021-08-23T08:19:24Z</time>
      </trkpt>
      <trkpt lat="45.70289" lon="5.75756">
        <ele>235.3</ele>
        <time>2021-08-23T08:19:26Z</time>
      </trkpt>
      <trkpt lat="45.70289" lon="5.75751">
        <ele>235.3</ele>
        <time>2021-08-23T08:19:27Z</time>
      </trkpt>
      <trkpt lat="45.70289" lon="5.75748">
        <ele>235.4</ele>
        <time>2021-08-23T08:19:28Z</time>
      </trkpt>
      <trkpt lat="45.70285" lon="5.75745">
        <ele>235.4</ele>
        <time>2021-08-23T08:19:30Z</time>
      </trkpt>
      <trkpt lat="45.70281" lon="5.75744">
        <ele>235.4</ele>
        <time>2021-08-23T08:19:31Z</time>
      </trkpt>
      <trkpt lat="45.70275" lon="5.75743">
        <ele>235.4</ele>
        <time>2021-08-23T08:19:33Z</time>
      </trkpt>
      <trkpt lat="45.70271" lon="5.75741">
        <ele>235.5</ele>
        <time>2021-08-23T08:19:34Z</time>
      </trkpt>
      <trkpt lat="45.70268" lon="5.75739">
        <ele>235.5</ele>
        <time>2021-08-23T08:19:35Z</time>
      </trkpt>
      <trkpt lat="45.70262" lon="5.75734">
        <ele>235.5</ele>
        <time>2021-08-23T08:19:37Z</time>
      </trkpt>
      <trkpt lat="45.70255" lon="5.7573">
        <ele>235.6</ele>
        <time>2021-08-23T08:19:39Z</time>
      </trkpt>
      <trkpt lat="45.70248" lon="5.75726">
        <ele>235.6</ele>
        <time>2021-08-23T08:19:41Z</time>
      </trkpt>
      <trkpt lat="45.70245" lon="5.75724">
        <ele>235.7</ele>
        <time>2021-08-23T08:19:42Z</time>
      </trkpt>
      <trkpt lat="45.7024" lon="5.75721">
        <ele>235.7</ele>
        <time>2021-08-23T08:19:44Z</time>
      </trkpt>
      <trkpt lat="45.70242" lon="5.75716">
        <ele>235.8</ele>
        <time>2021-08-23T08:19:45Z</time>
      </trkpt>
      <trkpt lat="45.70243" lon="5.75712">
        <ele>235.8</ele>
        <time>2021-08-23T08:19:47Z</time>
      </trkpt>
      <trkpt lat="45.70244" lon="5.75707">
        <ele>235.9</ele>
        <time>2021-08-23T08:19:48Z</time>
      </trkpt>
      <trkpt lat="45.70245" lon="5.75701">
        <ele>236</ele>
        <time>2021-08-23T08:19:49Z</time>
      </trkpt>
      <trkpt lat="45.70245" lon="5.75699">
        <ele>236</ele>
        <time>2021-08-23T08:19:50Z</time>
      </trkpt>
      <trkpt lat="45.70245" lon="5.75697">
        <ele>236</ele>
        <time>2021-08-23T08:19:52Z</time>
      </trkpt>
      <trkpt lat="45.70244" lon="5.75696">
        <ele>236</ele>
        <time>2021-08-23T08:19:53Z</time>
      </trkpt>
      <trkpt lat="45.70241" lon="5.75692">
        <ele>236.1</ele>
        <time>2021-08-23T08:19:55Z</time>
      </trkpt>
      <trkpt lat="45.70241" lon="5.75692">
        <ele>236.1</ele>
        <time>2021-08-23T08:19:55Z</time>
      </trkpt>
      <trkpt lat="45.70238" lon="5.75692">
        <ele>236.1</ele>
        <time>2021-08-23T08:19:56Z</time>
      </trkpt>
      <trkpt lat="45.70231" lon="5.75696">
        <ele>236.3</ele>
        <time>2021-08-23T08:19:58Z</time>
      </trkpt>
      <trkpt lat="45.70223" lon="5.75701">
        <ele>236.4</ele>
        <time>2021-08-23T08:20:00Z</time>
      </trkpt>
      <trkpt lat="45.70221" lon="5.75701">
        <ele>236.4</ele>
        <time>2021-08-23T08:20:01Z</time>
      </trkpt>
      <trkpt lat="45.70219" lon="5.757">
        <ele>236.4</ele>
        <time>2021-08-23T08:20:02Z</time>
      </trkpt>
      <trkpt lat="45.70215" lon="5.75698">
        <ele>236.5</ele>
        <time>2021-08-23T08:20:03Z</time>
      </trkpt>
      <trkpt lat="45.7021" lon="5.75694">
        <ele>236.6</ele>
        <time>2021-08-23T08:20:05Z</time>
      </trkpt>
      <trkpt lat="45.70207" lon="5.7569">
        <ele>236.7</ele>
        <time>2021-08-23T08:20:06Z</time>
      </trkpt>
      <trkpt lat="45.70198" lon="5.75685">
        <ele>236.8</ele>
        <time>2021-08-23T08:20:08Z</time>
      </trkpt>
      <trkpt lat="45.70191" lon="5.75684">
        <ele>236.9</ele>
        <time>2021-08-23T08:20:09Z</time>
      </trkpt>
      <trkpt lat="45.70184" lon="5.75682">
        <ele>237.1</ele>
        <time>2021-08-23T08:20:10Z</time>
      </trkpt>
      <trkpt lat="45.70177" lon="5.7568">
        <ele>237.2</ele>
        <time>2021-08-23T08:20:30Z</time>
      </trkpt>
      <trkpt lat="45.7017" lon="5.75679">
        <ele>237.3</ele>
        <time>2021-08-23T08:20:32Z</time>
      </trkpt>
      <trkpt lat="45.70143" lon="5.75677">
        <ele>237.7</ele>
        <time>2021-08-23T08:20:33Z</time>
      </trkpt>
      <trkpt lat="45.70123" lon="5.75677">
        <ele>238.1</ele>
        <time>2021-08-23T08:20:34Z</time>
      </trkpt>
      <trkpt lat="45.7011" lon="5.75677">
        <ele>238.2</ele>
        <time>2021-08-23T08:20:36Z</time>
      </trkpt>
      <trkpt lat="45.70099" lon="5.75676">
        <ele>238.4</ele>
        <time>2021-08-23T08:20:37Z</time>
      </trkpt>
      <trkpt lat="45.70089" lon="5.75676">
        <ele>238.5</ele>
        <time>2021-08-23T08:20:39Z</time>
      </trkpt>
      <trkpt lat="45.70083" lon="5.75677">
        <ele>238.7</ele>
        <time>2021-08-23T08:20:40Z</time>
      </trkpt>
      <trkpt lat="45.70076" lon="5.75678">
        <ele>238.8</ele>
        <time>2021-08-23T08:20:42Z</time>
      </trkpt>
      <trkpt lat="45.70071" lon="5.75677">
        <ele>238.9</ele>
        <time>2021-08-23T08:20:43Z</time>
      </trkpt>
      <trkpt lat="45.70069" lon="5.75675">
        <ele>239</ele>
        <time>2021-08-23T08:20:44Z</time>
      </trkpt>
      <trkpt lat="45.70065" lon="5.75674">
        <ele>239</ele>
        <time>2021-08-23T08:20:46Z</time>
      </trkpt>
      <trkpt lat="45.70062" lon="5.75674">
        <ele>239.1</ele>
        <time>2021-08-23T08:20:47Z</time>
      </trkpt>
      <trkpt lat="45.70058" lon="5.75672">
        <ele>239.2</ele>
        <time>2021-08-23T08:20:49Z</time>
      </trkpt>
      <trkpt lat="45.70053" lon="5.75671">
        <ele>239.3</ele>
        <time>2021-08-23T08:20:51Z</time>
      </trkpt>
      <trkpt lat="45.70051" lon="5.75671">
        <ele>239.3</ele>
        <time>2021-08-23T08:20:52Z</time>
      </trkpt>
      <trkpt lat="45.70049" lon="5.75671">
        <ele>239.4</ele>
        <time>2021-08-23T08:20:53Z</time>
      </trkpt>
      <trkpt lat="45.70046" lon="5.75671">
        <ele>239.4</ele>
        <time>2021-08-23T08:20:55Z</time>
      </trkpt>
      <trkpt lat="45.70042" lon="5.75672">
        <ele>239.5</ele>
        <time>2021-08-23T08:20:56Z</time>
      </trkpt>
      <trkpt lat="45.70038" lon="5.75672">
        <ele>239.6</ele>
        <time>2021-08-23T08:20:57Z</time>
      </trkpt>
      <trkpt lat="45.70034" lon="5.75675">
        <ele>239.7</ele>
        <time>2021-08-23T08:20:59Z</time>
      </trkpt>
      <trkpt lat="45.70029" lon="5.75677">
        <ele>239.8</ele>
        <time>2021-08-23T08:21:00Z</time>
      </trkpt>
      <trkpt lat="45.70027" lon="5.75678">
        <ele>239.9</ele>
        <time>2021-08-23T08:21:01Z</time>
      </trkpt>
      <trkpt lat="45.70023" lon="5.75679">
        <ele>240</ele>
        <time>2021-08-23T08:21:02Z</time>
      </trkpt>
      <trkpt lat="45.7002" lon="5.75679">
        <ele>240</ele>
        <time>2021-08-23T08:21:03Z</time>
      </trkpt>
      <trkpt lat="45.70014" lon="5.75679">
        <ele>240.2</ele>
        <time>2021-08-23T08:21:05Z</time>
      </trkpt>
      <trkpt lat="45.70007" lon="5.75678">
        <ele>240.3</ele>
        <time>2021-08-23T08:21:07Z</time>
      </trkpt>
      <trkpt lat="45.7" lon="5.75676">
        <ele>240.5</ele>
        <time>2021-08-23T08:21:09Z</time>
      </trkpt>
      <trkpt lat="45.69997" lon="5.75673">
        <ele>240.6</ele>
        <time>2021-08-23T08:21:10Z</time>
      </trkpt>
      <trkpt lat="45.69991" lon="5.75672">
        <ele>240.7</ele>
        <time>2021-08-23T08:21:12Z</time>
      </trkpt>
      <trkpt lat="45.69986" lon="5.75673">
        <ele>240.8</ele>
        <time>2021-08-23T08:21:13Z</time>
      </trkpt>
      <trkpt lat="45.69982" lon="5.75672">
        <ele>241</ele>
        <time>2021-08-23T08:21:14Z</time>
      </trkpt>
      <trkpt lat="45.69979" lon="5.75671">
        <ele>241</ele>
        <time>2021-08-23T08:21:15Z</time>
      </trkpt>
      <trkpt lat="45.69975" lon="5.75668">
        <ele>241.1</ele>
        <time>2021-08-23T08:21:17Z</time>
      </trkpt>
      <trkpt lat="45.69976" lon="5.75665">
        <ele>241.2</ele>
        <time>2021-08-23T08:21:18Z</time>
      </trkpt>
      <trkpt lat="45.69976" lon="5.75663">
        <ele>241.2</ele>
        <time>2021-08-23T08:21:19Z</time>
      </trkpt>
      <trkpt lat="45.69976" lon="5.75662">
        <ele>241.2</ele>
        <time>2021-08-23T08:21:20Z</time>
      </trkpt>
      <trkpt lat="45.69975" lon="5.75661">
        <ele>241.3</ele>
        <time>2021-08-23T08:21:21Z</time>
      </trkpt>
      <trkpt lat="45.69973" lon="5.7566">
        <ele>241.3</ele>
        <time>2021-08-23T08:21:23Z</time>
      </trkpt>
      <trkpt lat="45.69969" lon="5.75659">
        <ele>241.4</ele>
        <time>2021-08-23T08:21:24Z</time>
      </trkpt>
      <trkpt lat="45.69966" lon="5.75658">
        <ele>241.4</ele>
        <time>2021-08-23T08:21:25Z</time>
      </trkpt>
      <trkpt lat="45.69962" lon="5.75656">
        <ele>241.5</ele>
        <time>2021-08-23T08:21:26Z</time>
      </trkpt>
      <trkpt lat="45.69958" lon="5.75655">
        <ele>241.5</ele>
        <time>2021-08-23T08:21:27Z</time>
      </trkpt>
      <trkpt lat="45.69952" lon="5.75654">
        <ele>241.6</ele>
        <time>2021-08-23T08:21:28Z</time>
      </trkpt>
      <trkpt lat="45.69944" lon="5.75654">
        <ele>241.7</ele>
        <time>2021-08-23T08:21:30Z</time>
      </trkpt>
      <trkpt lat="45.69936" lon="5.75653">
        <ele>241.8</ele>
        <time>2021-08-23T08:21:32Z</time>
      </trkpt>
      <trkpt lat="45.69931" lon="5.75652">
        <ele>241.8</ele>
        <time>2021-08-23T08:21:33Z</time>
      </trkpt>
      <trkpt lat="45.69924" lon="5.75649">
        <ele>241.9</ele>
        <time>2021-08-23T08:21:35Z</time>
      </trkpt>
      <trkpt lat="45.69916" lon="5.75646">
        <ele>242</ele>
        <time>2021-08-23T08:21:37Z</time>
      </trkpt>
      <trkpt lat="45.69908" lon="5.75644">
        <ele>242.1</ele>
        <time>2021-08-23T08:21:39Z</time>
      </trkpt>
      <trkpt lat="45.69903" lon="5.75643">
        <ele>242.2</ele>
        <time>2021-08-23T08:21:40Z</time>
      </trkpt>
      <trkpt lat="45.69899" lon="5.75642">
        <ele>242.2</ele>
        <time>2021-08-23T08:21:41Z</time>
      </trkpt>
      <trkpt lat="45.69895" lon="5.75642">
        <ele>242.3</ele>
        <time>2021-08-23T08:21:42Z</time>
      </trkpt>
      <trkpt lat="45.6989" lon="5.75643">
        <ele>242.4</ele>
        <time>2021-08-23T08:21:43Z</time>
      </trkpt>
      <trkpt lat="45.69885" lon="5.75643">
        <ele>242.5</ele>
        <time>2021-08-23T08:21:45Z</time>
      </trkpt>
      <trkpt lat="45.6988" lon="5.75642">
        <ele>242.6</ele>
        <time>2021-08-23T08:21:46Z</time>
      </trkpt>
      <trkpt lat="45.69872" lon="5.75639">
        <ele>242.7</ele>
        <time>2021-08-23T08:21:48Z</time>
      </trkpt>
      <trkpt lat="45.69866" lon="5.75639">
        <ele>242.8</ele>
        <time>2021-08-23T08:21:50Z</time>
      </trkpt>
      <trkpt lat="45.69861" lon="5.75637">
        <ele>242.9</ele>
        <time>2021-08-23T08:21:51Z</time>
      </trkpt>
      <trkpt lat="45.69854" lon="5.75635">
        <ele>243.1</ele>
        <time>2021-08-23T08:21:53Z</time>
      </trkpt>
      <trkpt lat="45.6985" lon="5.75634">
        <ele>243.2</ele>
        <time>2021-08-23T08:21:54Z</time>
      </trkpt>
      <trkpt lat="45.69844" lon="5.75633">
        <ele>243.3</ele>
        <time>2021-08-23T08:21:56Z</time>
      </trkpt>
      <trkpt lat="45.6984" lon="5.75631">
        <ele>243.4</ele>
        <time>2021-08-23T08:21:57Z</time>
      </trkpt>
      <trkpt lat="45.69835" lon="5.75631">
        <ele>243.5</ele>
        <time>2021-08-23T08:21:58Z</time>
      </trkpt>
      <trkpt lat="45.69829" lon="5.75631">
        <ele>243.6</ele>
        <time>2021-08-23T08:22:00Z</time>
      </trkpt>
      <trkpt lat="45.69824" lon="5.75632">
        <ele>243.8</ele>
        <time>2021-08-23T08:22:01Z</time>
      </trkpt>
      <trkpt lat="45.69817" lon="5.75634">
        <ele>243.9</ele>
        <time>2021-08-23T08:22:03Z</time>
      </trkpt>
      <trkpt lat="45.6981" lon="5.75635">
        <ele>244.1</ele>
        <time>2021-08-23T08:22:05Z</time>
      </trkpt>
      <trkpt lat="45.69806" lon="5.75635">
        <ele>244.1</ele>
        <time>2021-08-23T08:22:06Z</time>
      </trkpt>
      <trkpt lat="45.69799" lon="5.75636">
        <ele>244.3</ele>
        <time>2021-08-23T08:22:08Z</time>
      </trkpt>
      <trkpt lat="45.69793" lon="5.75635">
        <ele>244.5</ele>
        <time>2021-08-23T08:22:10Z</time>
      </trkpt>
      <trkpt lat="45.69788" lon="5.75634">
        <ele>244.6</ele>
        <time>2021-08-23T08:22:12Z</time>
      </trkpt>
      <trkpt lat="45.69784" lon="5.75635">
        <ele>244.7</ele>
        <time>2021-08-23T08:22:13Z</time>
      </trkpt>
      <trkpt lat="45.69781" lon="5.75635">
        <ele>244.7</ele>
        <time>2021-08-23T08:22:14Z</time>
      </trkpt>
      <trkpt lat="45.69778" lon="5.75636">
        <ele>244.8</ele>
        <time>2021-08-23T08:22:15Z</time>
      </trkpt>
      <trkpt lat="45.69774" lon="5.75636">
        <ele>244.9</ele>
        <time>2021-08-23T08:22:17Z</time>
      </trkpt>
      <trkpt lat="45.69769" lon="5.75637">
        <ele>245</ele>
        <time>2021-08-23T08:22:18Z</time>
      </trkpt>
      <trkpt lat="45.69766" lon="5.75637">
        <ele>245.1</ele>
        <time>2021-08-23T08:22:19Z</time>
      </trkpt>
      <trkpt lat="45.69759" lon="5.75637">
        <ele>245.3</ele>
        <time>2021-08-23T08:22:21Z</time>
      </trkpt>
      <trkpt lat="45.69753" lon="5.75635">
        <ele>245.5</ele>
        <time>2021-08-23T08:22:23Z</time>
      </trkpt>
      <trkpt lat="45.69753" lon="5.75634">
        <ele>245.5</ele>
        <time>2021-08-23T08:22:24Z</time>
      </trkpt>
      <trkpt lat="45.69751" lon="5.75633">
        <ele>245.6</ele>
        <time>2021-08-23T08:22:25Z</time>
      </trkpt>
      <trkpt lat="45.69749" lon="5.75633">
        <ele>245.6</ele>
        <time>2021-08-23T08:22:27Z</time>
      </trkpt>
      <trkpt lat="45.69746" lon="5.75632">
        <ele>245.7</ele>
        <time>2021-08-23T08:22:28Z</time>
      </trkpt>
      <trkpt lat="45.6974" lon="5.75631">
        <ele>245.8</ele>
        <time>2021-08-23T08:22:30Z</time>
      </trkpt>
      <trkpt lat="45.69735" lon="5.75629">
        <ele>245.9</ele>
        <time>2021-08-23T08:22:31Z</time>
      </trkpt>
      <trkpt lat="45.69731" lon="5.75628">
        <ele>246</ele>
        <time>2021-08-23T08:22:32Z</time>
      </trkpt>
      <trkpt lat="45.69726" lon="5.75628">
        <ele>246.2</ele>
        <time>2021-08-23T08:22:34Z</time>
      </trkpt>
      <trkpt lat="45.69722" lon="5.75628">
        <ele>246.3</ele>
        <time>2021-08-23T08:22:35Z</time>
      </trkpt>
      <trkpt lat="45.69719" lon="5.75627">
        <ele>246.3</ele>
        <time>2021-08-23T08:22:36Z</time>
      </trkpt>
      <trkpt lat="45.69714" lon="5.75627">
        <ele>246.5</ele>
        <time>2021-08-23T08:22:38Z</time>
      </trkpt>
      <trkpt lat="45.6971" lon="5.75625">
        <ele>246.6</ele>
        <time>2021-08-23T08:22:39Z</time>
      </trkpt>
      <trkpt lat="45.69705" lon="5.75624">
        <ele>246.7</ele>
        <time>2021-08-23T08:22:40Z</time>
      </trkpt>
      <trkpt lat="45.69702" lon="5.75624">
        <ele>246.8</ele>
        <time>2021-08-23T08:22:42Z</time>
      </trkpt>
      <trkpt lat="45.69698" lon="5.75623">
        <ele>246.9</ele>
        <time>2021-08-23T08:22:43Z</time>
      </trkpt>
      <trkpt lat="45.69694" lon="5.75624">
        <ele>247</ele>
        <time>2021-08-23T08:22:45Z</time>
      </trkpt>
      <trkpt lat="45.6969" lon="5.75623">
        <ele>247.1</ele>
        <time>2021-08-23T08:22:46Z</time>
      </trkpt>
      <trkpt lat="45.69686" lon="5.75623">
        <ele>247.2</ele>
        <time>2021-08-23T08:22:47Z</time>
      </trkpt>
      <trkpt lat="45.69679" lon="5.75624">
        <ele>247.4</ele>
        <time>2021-08-23T08:22:49Z</time>
      </trkpt>
      <trkpt lat="45.69674" lon="5.75626">
        <ele>247.5</ele>
        <time>2021-08-23T08:22:50Z</time>
      </trkpt>
      <trkpt lat="45.69669" lon="5.75627">
        <ele>247.6</ele>
        <time>2021-08-23T08:22:51Z</time>
      </trkpt>
      <trkpt lat="45.69662" lon="5.75628">
        <ele>247.8</ele>
        <time>2021-08-23T08:22:53Z</time>
      </trkpt>
      <trkpt lat="45.69655" lon="5.75629">
        <ele>247.9</ele>
        <time>2021-08-23T08:22:55Z</time>
      </trkpt>
      <trkpt lat="45.6965" lon="5.75631">
        <ele>248.1</ele>
        <time>2021-08-23T08:22:56Z</time>
      </trkpt>
      <trkpt lat="45.69645" lon="5.75632">
        <ele>248.2</ele>
        <time>2021-08-23T08:22:57Z</time>
      </trkpt>
      <trkpt lat="45.6964" lon="5.75633">
        <ele>248.3</ele>
        <time>2021-08-23T08:22:58Z</time>
      </trkpt>
      <trkpt lat="45.69634" lon="5.75633">
        <ele>248.4</ele>
        <time>2021-08-23T08:23:00Z</time>
      </trkpt>
      <trkpt lat="45.69629" lon="5.75632">
        <ele>248.5</ele>
        <time>2021-08-23T08:23:01Z</time>
      </trkpt>
      <trkpt lat="45.69622" lon="5.75632">
        <ele>248.7</ele>
        <time>2021-08-23T08:23:03Z</time>
      </trkpt>
      <trkpt lat="45.69616" lon="5.75633">
        <ele>248.8</ele>
        <time>2021-08-23T08:23:04Z</time>
      </trkpt>
      <trkpt lat="45.6961" lon="5.75632">
        <ele>248.9</ele>
        <time>2021-08-23T08:23:06Z</time>
      </trkpt>
      <trkpt lat="45.69604" lon="5.75631">
        <ele>249</ele>
        <time>2021-08-23T08:23:07Z</time>
      </trkpt>
      <trkpt lat="45.696" lon="5.7563">
        <ele>249</ele>
        <time>2021-08-23T08:23:08Z</time>
      </trkpt>
      <trkpt lat="45.69593" lon="5.75628">
        <ele>249.2</ele>
        <time>2021-08-23T08:23:10Z</time>
      </trkpt>
      <trkpt lat="45.69588" lon="5.75625">
        <ele>249.3</ele>
        <time>2021-08-23T08:23:12Z</time>
      </trkpt>
      <trkpt lat="45.69584" lon="5.75624">
        <ele>249.4</ele>
        <time>2021-08-23T08:23:13Z</time>
      </trkpt>
      <trkpt lat="45.69579" lon="5.75625">
        <ele>249.4</ele>
        <time>2021-08-23T08:23:15Z</time>
      </trkpt>
      <trkpt lat="45.69574" lon="5.75625">
        <ele>249.5</ele>
        <time>2021-08-23T08:23:16Z</time>
      </trkpt>
      <trkpt lat="45.69571" lon="5.75626">
        <ele>249.6</ele>
        <time>2021-08-23T08:23:17Z</time>
      </trkpt>
      <trkpt lat="45.69566" lon="5.75625">
        <ele>249.6</ele>
        <time>2021-08-23T08:23:18Z</time>
      </trkpt>
      <trkpt lat="45.69562" lon="5.75624">
        <ele>249.7</ele>
        <time>2021-08-23T08:23:20Z</time>
      </trkpt>
      <trkpt lat="45.69557" lon="5.75623">
        <ele>249.8</ele>
        <time>2021-08-23T08:23:21Z</time>
      </trkpt>
      <trkpt lat="45.69553" lon="5.75622">
        <ele>249.9</ele>
        <time>2021-08-23T08:23:22Z</time>
      </trkpt>
      <trkpt lat="45.69546" lon="5.75621">
        <ele>250</ele>
        <time>2021-08-23T08:23:24Z</time>
      </trkpt>
      <trkpt lat="45.69541" lon="5.7562">
        <ele>250.1</ele>
        <time>2021-08-23T08:23:25Z</time>
      </trkpt>
      <trkpt lat="45.69536" lon="5.75618">
        <ele>250.2</ele>
        <time>2021-08-23T08:23:26Z</time>
      </trkpt>
      <trkpt lat="45.6953" lon="5.75617">
        <ele>250.3</ele>
        <time>2021-08-23T08:23:28Z</time>
      </trkpt>
      <trkpt lat="45.69525" lon="5.75616">
        <ele>250.4</ele>
        <time>2021-08-23T08:23:29Z</time>
      </trkpt>
      <trkpt lat="45.69522" lon="5.75615">
        <ele>250.5</ele>
        <time>2021-08-23T08:23:30Z</time>
      </trkpt>
      <trkpt lat="45.69518" lon="5.75614">
        <ele>250.6</ele>
        <time>2021-08-23T08:23:32Z</time>
      </trkpt>
      <trkpt lat="45.69513" lon="5.75612">
        <ele>250.7</ele>
        <time>2021-08-23T08:23:33Z</time>
      </trkpt>
      <trkpt lat="45.69507" lon="5.75609">
        <ele>250.8</ele>
        <time>2021-08-23T08:23:35Z</time>
      </trkpt>
      <trkpt lat="45.69502" lon="5.75608">
        <ele>250.9</ele>
        <time>2021-08-23T08:23:36Z</time>
      </trkpt>
      <trkpt lat="45.69499" lon="5.75606">
        <ele>251</ele>
        <time>2021-08-23T08:23:37Z</time>
      </trkpt>
      <trkpt lat="45.69496" lon="5.75604">
        <ele>251</ele>
        <time>2021-08-23T08:23:38Z</time>
      </trkpt>
      <trkpt lat="45.69491" lon="5.75602">
        <ele>251.2</ele>
        <time>2021-08-23T08:23:40Z</time>
      </trkpt>
      <trkpt lat="45.69486" lon="5.756">
        <ele>251.3</ele>
        <time>2021-08-23T08:23:41Z</time>
      </trkpt>
      <trkpt lat="45.6948" lon="5.75598">
        <ele>251.4</ele>
        <time>2021-08-23T08:23:43Z</time>
      </trkpt>
      <trkpt lat="45.69476" lon="5.75597">
        <ele>251.5</ele>
        <time>2021-08-23T08:23:44Z</time>
      </trkpt>
      <trkpt lat="45.69472" lon="5.75594">
        <ele>251.6</ele>
        <time>2021-08-23T08:23:46Z</time>
      </trkpt>
      <trkpt lat="45.69468" lon="5.75592">
        <ele>251.7</ele>
        <time>2021-08-23T08:23:47Z</time>
      </trkpt>
      <trkpt lat="45.69465" lon="5.75591">
        <ele>251.8</ele>
        <time>2021-08-23T08:23:48Z</time>
      </trkpt>
      <trkpt lat="45.6946" lon="5.75589">
        <ele>251.9</ele>
        <time>2021-08-23T08:23:50Z</time>
      </trkpt>
      <trkpt lat="45.69456" lon="5.75587">
        <ele>252</ele>
        <time>2021-08-23T08:23:51Z</time>
      </trkpt>
      <trkpt lat="45.69453" lon="5.75586">
        <ele>252</ele>
        <time>2021-08-23T08:23:52Z</time>
      </trkpt>
      <trkpt lat="45.69448" lon="5.75585">
        <ele>252.1</ele>
        <time>2021-08-23T08:23:54Z</time>
      </trkpt>
      <trkpt lat="45.69444" lon="5.75585">
        <ele>252.2</ele>
        <time>2021-08-23T08:23:55Z</time>
      </trkpt>
      <trkpt lat="45.6944" lon="5.75584">
        <ele>252.3</ele>
        <time>2021-08-23T08:23:57Z</time>
      </trkpt>
      <trkpt lat="45.69436" lon="5.75583">
        <ele>252.4</ele>
        <time>2021-08-23T08:23:58Z</time>
      </trkpt>
      <trkpt lat="45.69432" lon="5.75581">
        <ele>252.4</ele>
        <time>2021-08-23T08:23:59Z</time>
      </trkpt>
      <trkpt lat="45.69427" lon="5.75579">
        <ele>252.6</ele>
        <time>2021-08-23T08:24:01Z</time>
      </trkpt>
      <trkpt lat="45.69424" lon="5.75577">
        <ele>252.6</ele>
        <time>2021-08-23T08:24:02Z</time>
      </trkpt>
      <trkpt lat="45.69419" lon="5.75575">
        <ele>252.7</ele>
        <time>2021-08-23T08:24:04Z</time>
      </trkpt>
      <trkpt lat="45.69415" lon="5.75574">
        <ele>252.8</ele>
        <time>2021-08-23T08:24:05Z</time>
      </trkpt>
      <trkpt lat="45.69411" lon="5.75572">
        <ele>252.8</ele>
        <time>2021-08-23T08:24:06Z</time>
      </trkpt>
      <trkpt lat="45.69408" lon="5.75571">
        <ele>252.9</ele>
        <time>2021-08-23T08:24:07Z</time>
      </trkpt>
      <trkpt lat="45.69406" lon="5.7557">
        <ele>252.9</ele>
        <time>2021-08-23T08:24:08Z</time>
      </trkpt>
      <trkpt lat="45.69401" lon="5.75569">
        <ele>253</ele>
        <time>2021-08-23T08:24:10Z</time>
      </trkpt>
      <trkpt lat="45.69398" lon="5.75567">
        <ele>253.1</ele>
        <time>2021-08-23T08:24:11Z</time>
      </trkpt>
      <trkpt lat="45.69395" lon="5.75565">
        <ele>253.1</ele>
        <time>2021-08-23T08:24:12Z</time>
      </trkpt>
      <trkpt lat="45.69391" lon="5.75562">
        <ele>253.2</ele>
        <time>2021-08-23T08:24:14Z</time>
      </trkpt>
      <trkpt lat="45.69387" lon="5.75558">
        <ele>253.3</ele>
        <time>2021-08-23T08:24:15Z</time>
      </trkpt>
      <trkpt lat="45.69385" lon="5.75555">
        <ele>253.4</ele>
        <time>2021-08-23T08:24:16Z</time>
      </trkpt>
      <trkpt lat="45.69382" lon="5.75553">
        <ele>253.4</ele>
        <time>2021-08-23T08:24:17Z</time>
      </trkpt>
      <trkpt lat="45.69377" lon="5.75549">
        <ele>253.5</ele>
        <time>2021-08-23T08:24:19Z</time>
      </trkpt>
      <trkpt lat="45.69374" lon="5.75546">
        <ele>253.6</ele>
        <time>2021-08-23T08:24:20Z</time>
      </trkpt>
      <trkpt lat="45.69371" lon="5.75541">
        <ele>253.6</ele>
        <time>2021-08-23T08:24:22Z</time>
      </trkpt>
      <trkpt lat="45.69367" lon="5.75538">
        <ele>253.7</ele>
        <time>2021-08-23T08:24:23Z</time>
      </trkpt>
      <trkpt lat="45.69361" lon="5.75534">
        <ele>253.8</ele>
        <time>2021-08-23T08:24:25Z</time>
      </trkpt>
      <trkpt lat="45.69356" lon="5.75531">
        <ele>253.9</ele>
        <time>2021-08-23T08:24:27Z</time>
      </trkpt>
      <trkpt lat="45.69352" lon="5.75528">
        <ele>254</ele>
        <time>2021-08-23T08:24:28Z</time>
      </trkpt>
      <trkpt lat="45.6935" lon="5.75525">
        <ele>254</ele>
        <time>2021-08-23T08:24:29Z</time>
      </trkpt>
      <trkpt lat="45.69347" lon="5.75523">
        <ele>254</ele>
        <time>2021-08-23T08:24:30Z</time>
      </trkpt>
      <trkpt lat="45.69344" lon="5.75521">
        <ele>254.1</ele>
        <time>2021-08-23T08:24:31Z</time>
      </trkpt>
      <trkpt lat="45.69341" lon="5.7552">
        <ele>254.1</ele>
        <time>2021-08-23T08:24:32Z</time>
      </trkpt>
      <trkpt lat="45.69336" lon="5.75517">
        <ele>254.2</ele>
        <time>2021-08-23T08:24:34Z</time>
      </trkpt>
      <trkpt lat="45.69333" lon="5.75515">
        <ele>254.3</ele>
        <time>2021-08-23T08:24:35Z</time>
      </trkpt>
      <trkpt lat="45.69331" lon="5.75512">
        <ele>254.4</ele>
        <time>2021-08-23T08:24:36Z</time>
      </trkpt>
      <trkpt lat="45.69326" lon="5.75508">
        <ele>254.5</ele>
        <time>2021-08-23T08:24:38Z</time>
      </trkpt>
      <trkpt lat="45.69323" lon="5.75507">
        <ele>254.5</ele>
        <time>2021-08-23T08:24:39Z</time>
      </trkpt>
      <trkpt lat="45.69318" lon="5.75505">
        <ele>254.7</ele>
        <time>2021-08-23T08:24:41Z</time>
      </trkpt>
      <trkpt lat="45.69314" lon="5.75504">
        <ele>254.8</ele>
        <time>2021-08-23T08:24:42Z</time>
      </trkpt>
      <trkpt lat="45.6931" lon="5.75502">
        <ele>254.9</ele>
        <time>2021-08-23T08:24:43Z</time>
      </trkpt>
      <trkpt lat="45.69305" lon="5.755">
        <ele>255</ele>
        <time>2021-08-23T08:24:44Z</time>
      </trkpt>
      <trkpt lat="45.69301" lon="5.75499">
        <ele>255.2</ele>
        <time>2021-08-23T08:24:45Z</time>
      </trkpt>
      <trkpt lat="45.69296" lon="5.75497">
        <ele>255.3</ele>
        <time>2021-08-23T08:24:47Z</time>
      </trkpt>
      <trkpt lat="45.69291" lon="5.75495">
        <ele>255.4</ele>
        <time>2021-08-23T08:24:48Z</time>
      </trkpt>
      <trkpt lat="45.69285" lon="5.75494">
        <ele>255.4</ele>
        <time>2021-08-23T08:24:50Z</time>
      </trkpt>
      <trkpt lat="45.69281" lon="5.75494">
        <ele>255.5</ele>
        <time>2021-08-23T08:24:51Z</time>
      </trkpt>
      <trkpt lat="45.69278" lon="5.75492">
        <ele>255.6</ele>
        <time>2021-08-23T08:24:52Z</time>
      </trkpt>
      <trkpt lat="45.69274" lon="5.7549">
        <ele>255.6</ele>
        <time>2021-08-23T08:24:53Z</time>
      </trkpt>
      <trkpt lat="45.6927" lon="5.75486">
        <ele>255.7</ele>
        <time>2021-08-23T08:24:54Z</time>
      </trkpt>
      <trkpt lat="45.69266" lon="5.75483">
        <ele>255.8</ele>
        <time>2021-08-23T08:24:56Z</time>
      </trkpt>
      <trkpt lat="45.69262" lon="5.75481">
        <ele>255.8</ele>
        <time>2021-08-23T08:24:57Z</time>
      </trkpt>
      <trkpt lat="45.69259" lon="5.7548">
        <ele>255.9</ele>
        <time>2021-08-23T08:24:58Z</time>
      </trkpt>
      <trkpt lat="45.69254" lon="5.75476">
        <ele>256</ele>
        <time>2021-08-23T08:25:00Z</time>
      </trkpt>
      <trkpt lat="45.6925" lon="5.75475">
        <ele>256.1</ele>
        <time>2021-08-23T08:25:01Z</time>
      </trkpt>
      <trkpt lat="45.69246" lon="5.75473">
        <ele>256.1</ele>
        <time>2021-08-23T08:25:03Z</time>
      </trkpt>
      <trkpt lat="45.69244" lon="5.7547">
        <ele>256.2</ele>
        <time>2021-08-23T08:25:04Z</time>
      </trkpt>
      <trkpt lat="45.6924" lon="5.75467">
        <ele>256.3</ele>
        <time>2021-08-23T08:25:05Z</time>
      </trkpt>
      <trkpt lat="45.69239" lon="5.75465">
        <ele>256.3</ele>
        <time>2021-08-23T08:25:06Z</time>
      </trkpt>
      <trkpt lat="45.69234" lon="5.75462">
        <ele>256.4</ele>
        <time>2021-08-23T08:25:08Z</time>
      </trkpt>
      <trkpt lat="45.6923" lon="5.75459">
        <ele>256.5</ele>
        <time>2021-08-23T08:25:09Z</time>
      </trkpt>
      <trkpt lat="45.69225" lon="5.75456">
        <ele>256.6</ele>
        <time>2021-08-23T08:25:10Z</time>
      </trkpt>
      <trkpt lat="45.69221" lon="5.75453">
        <ele>256.6</ele>
        <time>2021-08-23T08:25:12Z</time>
      </trkpt>
      <trkpt lat="45.69215" lon="5.7545">
        <ele>256.7</ele>
        <time>2021-08-23T08:25:13Z</time>
      </trkpt>
      <trkpt lat="45.69214" lon="5.75448">
        <ele>256.7</ele>
        <time>2021-08-23T08:25:14Z</time>
      </trkpt>
      <trkpt lat="45.69212" lon="5.75444">
        <ele>256.8</ele>
        <time>2021-08-23T08:25:16Z</time>
      </trkpt>
      <trkpt lat="45.69209" lon="5.75438">
        <ele>256.9</ele>
        <time>2021-08-23T08:25:18Z</time>
      </trkpt>
      <trkpt lat="45.69209" lon="5.75435">
        <ele>256.7</ele>
        <time>2021-08-23T08:25:19Z</time>
      </trkpt>
      <trkpt lat="45.69208" lon="5.75432">
        <ele>256.7</ele>
        <time>2021-08-23T08:25:20Z</time>
      </trkpt>
      <trkpt lat="45.69205" lon="5.75435">
        <ele>256.6</ele>
        <time>2021-08-23T08:25:22Z</time>
      </trkpt>
      <trkpt lat="45.69203" lon="5.75433">
        <ele>256.6</ele>
        <time>2021-08-23T08:25:23Z</time>
      </trkpt>
      <trkpt lat="45.69204" lon="5.75427">
        <ele>256.6</ele>
        <time>2021-08-23T08:25:25Z</time>
      </trkpt>
      <trkpt lat="45.69205" lon="5.75424">
        <ele>256.5</ele>
        <time>2021-08-23T08:25:26Z</time>
      </trkpt>
      <trkpt lat="45.69206" lon="5.75423">
        <ele>256.5</ele>
        <time>2021-08-23T08:25:27Z</time>
      </trkpt>
      <trkpt lat="45.69206" lon="5.75423">
        <ele>256.5</ele>
        <time>2021-08-23T08:25:29Z</time>
      </trkpt>
      <trkpt lat="45.69207" lon="5.75423">
        <ele>256.5</ele>
        <time>2021-08-23T08:25:30Z</time>
      </trkpt>
      <trkpt lat="45.69207" lon="5.75422">
        <ele>256.5</ele>
        <time>2021-08-23T08:25:31Z</time>
      </trkpt>
      <trkpt lat="45.69207" lon="5.75423">
        <ele>256.5</ele>
        <time>2021-08-23T08:25:33Z</time>
      </trkpt>
      <trkpt lat="45.69264" lon="5.75314">
        <ele>251.9</ele>
        <time>2021-08-23T08:26:29Z</time>
      </trkpt>
      <trkpt lat="45.69256" lon="5.75297">
        <ele>251.8</ele>
        <time>2021-08-23T08:26:31Z</time>
      </trkpt>
      <trkpt lat="45.6925" lon="5.75285">
        <ele>251.8</ele>
        <time>2021-08-23T08:26:32Z</time>
      </trkpt>
      <trkpt lat="45.69244" lon="5.7527">
        <ele>251.7</ele>
        <time>2021-08-23T08:26:34Z</time>
      </trkpt>
      <trkpt lat="45.69241" lon="5.75259">
        <ele>251.6</ele>
        <time>2021-08-23T08:26:35Z</time>
      </trkpt>
      <trkpt lat="45.69239" lon="5.75246">
        <ele>251.5</ele>
        <time>2021-08-23T08:26:36Z</time>
      </trkpt>
      <trkpt lat="45.69237" lon="5.75236">
        <ele>251.5</ele>
        <time>2021-08-23T08:26:37Z</time>
      </trkpt>
      <trkpt lat="45.69236" lon="5.7522">
        <ele>251.5</ele>
        <time>2021-08-23T08:26:39Z</time>
      </trkpt>
      <trkpt lat="45.69236" lon="5.75205">
        <ele>251.5</ele>
        <time>2021-08-23T08:26:40Z</time>
      </trkpt>
      <trkpt lat="45.69237" lon="5.75197">
        <ele>251.5</ele>
        <time>2021-08-23T08:26:41Z</time>
      </trkpt>
      <trkpt lat="45.69237" lon="5.75189">
        <ele>251.5</ele>
        <time>2021-08-23T08:26:42Z</time>
      </trkpt>
      <trkpt lat="45.6924" lon="5.75176">
        <ele>251.5</ele>
        <time>2021-08-23T08:26:44Z</time>
      </trkpt>
      <trkpt lat="45.69241" lon="5.7517">
        <ele>251.5</ele>
        <time>2021-08-23T08:26:45Z</time>
      </trkpt>
      <trkpt lat="45.69244" lon="5.75157">
        <ele>251.5</ele>
        <time>2021-08-23T08:26:47Z</time>
      </trkpt>
      <trkpt lat="45.69245" lon="5.75151">
        <ele>251.5</ele>
        <time>2021-08-23T08:26:48Z</time>
      </trkpt>
      <trkpt lat="45.69246" lon="5.75144">
        <ele>251.5</ele>
        <time>2021-08-23T08:26:49Z</time>
      </trkpt>
      <trkpt lat="45.69248" lon="5.75138">
        <ele>251.5</ele>
        <time>2021-08-23T08:26:50Z</time>
      </trkpt>
      <trkpt lat="45.6925" lon="5.75126">
        <ele>251.5</ele>
        <time>2021-08-23T08:26:52Z</time>
      </trkpt>
      <trkpt lat="45.69251" lon="5.7512">
        <ele>251.4</ele>
        <time>2021-08-23T08:26:53Z</time>
      </trkpt>
      <trkpt lat="45.69252" lon="5.75112">
        <ele>251.5</ele>
        <time>2021-08-23T08:26:55Z</time>
      </trkpt>
      <trkpt lat="45.69253" lon="5.751">
        <ele>251.5</ele>
        <time>2021-08-23T08:26:57Z</time>
      </trkpt>
      <trkpt lat="45.69254" lon="5.75089">
        <ele>251.6</ele>
        <time>2021-08-23T08:26:59Z</time>
      </trkpt>
      <trkpt lat="45.69254" lon="5.75083">
        <ele>251.7</ele>
        <time>2021-08-23T08:27:00Z</time>
      </trkpt>
      <trkpt lat="45.69256" lon="5.75074">
        <ele>251.8</ele>
        <time>2021-08-23T08:27:02Z</time>
      </trkpt>
      <trkpt lat="45.69257" lon="5.7507">
        <ele>251.9</ele>
        <time>2021-08-23T08:27:03Z</time>
      </trkpt>
      <trkpt lat="45.69257" lon="5.75063">
        <ele>252</ele>
        <time>2021-08-23T08:27:05Z</time>
      </trkpt>
      <trkpt lat="45.69259" lon="5.75054">
        <ele>252.1</ele>
        <time>2021-08-23T08:27:06Z</time>
      </trkpt>
      <trkpt lat="45.69259" lon="5.75045">
        <ele>252.3</ele>
        <time>2021-08-23T08:27:08Z</time>
      </trkpt>
      <trkpt lat="45.6926" lon="5.75036">
        <ele>252.5</ele>
        <time>2021-08-23T08:27:10Z</time>
      </trkpt>
      <trkpt lat="45.69258" lon="5.7503">
        <ele>252.7</ele>
        <time>2021-08-23T08:27:12Z</time>
      </trkpt>
      <trkpt lat="45.69255" lon="5.75029">
        <ele>252.8</ele>
        <time>2021-08-23T08:27:13Z</time>
      </trkpt>
      <trkpt lat="45.69251" lon="5.75028">
        <ele>253</ele>
        <time>2021-08-23T08:27:15Z</time>
      </trkpt>
      <trkpt lat="45.69247" lon="5.75022">
        <ele>253.4</ele>
        <time>2021-08-23T08:27:17Z</time>
      </trkpt>
      <trkpt lat="45.69244" lon="5.75018">
        <ele>253.6</ele>
        <time>2021-08-23T08:27:19Z</time>
      </trkpt>
      <trkpt lat="45.6924" lon="5.75011">
        <ele>254.1</ele>
        <time>2021-08-23T08:27:21Z</time>
      </trkpt>
      <trkpt lat="45.69237" lon="5.75007">
        <ele>254.2</ele>
        <time>2021-08-23T08:27:22Z</time>
      </trkpt>
      <trkpt lat="45.69234" lon="5.75002">
        <ele>254.4</ele>
        <time>2021-08-23T08:27:23Z</time>
      </trkpt>
      <trkpt lat="45.69231" lon="5.74998">
        <ele>254.5</ele>
        <time>2021-08-23T08:27:25Z</time>
      </trkpt>
      <trkpt lat="45.69229" lon="5.74996">
        <ele>254.5</ele>
        <time>2021-08-23T08:27:26Z</time>
      </trkpt>
      <trkpt lat="45.69226" lon="5.74995">
        <ele>254.6</ele>
        <time>2021-08-23T08:27:28Z</time>
      </trkpt>
      <trkpt lat="45.69223" lon="5.74994">
        <ele>254.6</ele>
        <time>2021-08-23T08:27:29Z</time>
      </trkpt>
      <trkpt lat="45.6922" lon="5.74992">
        <ele>254.7</ele>
        <time>2021-08-23T08:27:30Z</time>
      </trkpt>
      <trkpt lat="45.69215" lon="5.74989">
        <ele>254.8</ele>
        <time>2021-08-23T08:27:32Z</time>
      </trkpt>
      <trkpt lat="45.69212" lon="5.74987">
        <ele>254.8</ele>
        <time>2021-08-23T08:27:33Z</time>
      </trkpt>
      <trkpt lat="45.69208" lon="5.74981">
        <ele>255</ele>
        <time>2021-08-23T08:27:35Z</time>
      </trkpt>
      <trkpt lat="45.69205" lon="5.74977">
        <ele>255</ele>
        <time>2021-08-23T08:27:36Z</time>
      </trkpt>
      <trkpt lat="45.69202" lon="5.74972">
        <ele>255.1</ele>
        <time>2021-08-23T08:27:38Z</time>
      </trkpt>
      <trkpt lat="45.692" lon="5.74968">
        <ele>255.2</ele>
        <time>2021-08-23T08:27:39Z</time>
      </trkpt>
      <trkpt lat="45.69194" lon="5.74963">
        <ele>255.3</ele>
        <time>2021-08-23T08:27:41Z</time>
      </trkpt>
      <trkpt lat="45.69191" lon="5.7496">
        <ele>255.4</ele>
        <time>2021-08-23T08:27:42Z</time>
      </trkpt>
      <trkpt lat="45.69188" lon="5.74955">
        <ele>255.4</ele>
        <time>2021-08-23T08:27:44Z</time>
      </trkpt>
      <trkpt lat="45.69186" lon="5.7495">
        <ele>255.5</ele>
        <time>2021-08-23T08:27:45Z</time>
      </trkpt>
      <trkpt lat="45.69183" lon="5.74943">
        <ele>255.6</ele>
        <time>2021-08-23T08:27:47Z</time>
      </trkpt>
      <trkpt lat="45.69181" lon="5.74938">
        <ele>255.7</ele>
        <time>2021-08-23T08:27:48Z</time>
      </trkpt>
      <trkpt lat="45.69179" lon="5.74934">
        <ele>255.8</ele>
        <time>2021-08-23T08:27:49Z</time>
      </trkpt>
      <trkpt lat="45.69176" lon="5.74929">
        <ele>255.9</ele>
        <time>2021-08-23T08:27:51Z</time>
      </trkpt>
      <trkpt lat="45.69176" lon="5.74924">
        <ele>256</ele>
        <time>2021-08-23T08:27:52Z</time>
      </trkpt>
      <trkpt lat="45.69176" lon="5.74921">
        <ele>256.1</ele>
        <time>2021-08-23T08:27:53Z</time>
      </trkpt>
      <trkpt lat="45.69175" lon="5.74913">
        <ele>256.2</ele>
        <time>2021-08-23T08:27:55Z</time>
      </trkpt>
      <trkpt lat="45.69175" lon="5.74909">
        <ele>256.3</ele>
        <time>2021-08-23T08:27:56Z</time>
      </trkpt>
      <trkpt lat="45.69174" lon="5.74903">
        <ele>256.4</ele>
        <time>2021-08-23T08:27:58Z</time>
      </trkpt>
      <trkpt lat="45.69173" lon="5.74897">
        <ele>256.6</ele>
        <time>2021-08-23T08:27:59Z</time>
      </trkpt>
      <trkpt lat="45.69172" lon="5.74891">
        <ele>256.7</ele>
        <time>2021-08-23T08:28:01Z</time>
      </trkpt>
      <trkpt lat="45.69173" lon="5.74885">
        <ele>256.9</ele>
        <time>2021-08-23T08:28:02Z</time>
      </trkpt>
      <trkpt lat="45.69174" lon="5.74878">
        <ele>257.2</ele>
        <time>2021-08-23T08:28:04Z</time>
      </trkpt>
      <trkpt lat="45.69175" lon="5.74871">
        <ele>257.4</ele>
        <time>2021-08-23T08:28:06Z</time>
      </trkpt>
      <trkpt lat="45.69176" lon="5.74867">
        <ele>257.6</ele>
        <time>2021-08-23T08:28:07Z</time>
      </trkpt>
      <trkpt lat="45.69176" lon="5.74863">
        <ele>257.7</ele>
        <time>2021-08-23T08:28:08Z</time>
      </trkpt>
      <trkpt lat="45.69176" lon="5.74857">
        <ele>258</ele>
        <time>2021-08-23T08:28:10Z</time>
      </trkpt>
      <trkpt lat="45.69175" lon="5.74853">
        <ele>258.2</ele>
        <time>2021-08-23T08:28:11Z</time>
      </trkpt>
      <trkpt lat="45.69174" lon="5.74851">
        <ele>258.3</ele>
        <time>2021-08-23T08:28:12Z</time>
      </trkpt>
      <trkpt lat="45.69172" lon="5.74847">
        <ele>258.5</ele>
        <time>2021-08-23T08:28:14Z</time>
      </trkpt>
      <trkpt lat="45.6917" lon="5.74844">
        <ele>258.8</ele>
        <time>2021-08-23T08:28:15Z</time>
      </trkpt>
      <trkpt lat="45.69167" lon="5.74841">
        <ele>259.1</ele>
        <time>2021-08-23T08:28:17Z</time>
      </trkpt>
      <trkpt lat="45.69164" lon="5.74838">
        <ele>259.3</ele>
        <time>2021-08-23T08:28:18Z</time>
      </trkpt>
      <trkpt lat="45.69159" lon="5.74839">
        <ele>259.7</ele>
        <time>2021-08-23T08:28:20Z</time>
      </trkpt>
      <trkpt lat="45.69157" lon="5.74841">
        <ele>259.9</ele>
        <time>2021-08-23T08:28:22Z</time>
      </trkpt>
      <trkpt lat="45.69155" lon="5.74842">
        <ele>260.1</ele>
        <time>2021-08-23T08:28:24Z</time>
      </trkpt>
      <trkpt lat="45.69154" lon="5.74841">
        <ele>260.2</ele>
        <time>2021-08-23T08:28:25Z</time>
      </trkpt>
      <trkpt lat="45.69153" lon="5.7484">
        <ele>260.3</ele>
        <time>2021-08-23T08:28:26Z</time>
      </trkpt>
      <trkpt lat="45.69151" lon="5.74837">
        <ele>260.6</ele>
        <time>2021-08-23T08:28:28Z</time>
      </trkpt>
      <trkpt lat="45.69095" lon="5.74836">
        <ele>265.5</ele>
        <time>2021-08-23T08:29:02Z</time>
      </trkpt>
      <trkpt lat="45.69093" lon="5.74838">
        <ele>265.7</ele>
        <time>2021-08-23T08:29:04Z</time>
      </trkpt>
      <trkpt lat="45.69085" lon="5.7484">
        <ele>266.4</ele>
        <time>2021-08-23T08:29:06Z</time>
      </trkpt>
      <trkpt lat="45.69082" lon="5.74839">
        <ele>266.6</ele>
        <time>2021-08-23T08:29:07Z</time>
      </trkpt>
      <trkpt lat="45.69082" lon="5.74838">
        <ele>266.7</ele>
        <time>2021-08-23T08:29:08Z</time>
      </trkpt>
      <trkpt lat="45.69079" lon="5.74835">
        <ele>267</ele>
        <time>2021-08-23T08:29:10Z</time>
      </trkpt>
      <trkpt lat="45.69078" lon="5.74835">
        <ele>267.1</ele>
        <time>2021-08-23T08:29:12Z</time>
      </trkpt>
      <trkpt lat="45.69076" lon="5.74834">
        <ele>267.2</ele>
        <time>2021-08-23T08:29:14Z</time>
      </trkpt>
      <trkpt lat="45.69075" lon="5.74834">
        <ele>267.4</ele>
        <time>2021-08-23T08:29:15Z</time>
      </trkpt>
      <trkpt lat="45.69074" lon="5.74832">
        <ele>267.5</ele>
        <time>2021-08-23T08:29:16Z</time>
      </trkpt>
      <trkpt lat="45.69074" lon="5.74827">
        <ele>267.8</ele>
        <time>2021-08-23T08:29:18Z</time>
      </trkpt>
      <trkpt lat="45.69073" lon="5.74822">
        <ele>268.1</ele>
        <time>2021-08-23T08:29:19Z</time>
      </trkpt>
      <trkpt lat="45.69073" lon="5.74819">
        <ele>268.2</ele>
        <time>2021-08-23T08:29:20Z</time>
      </trkpt>
      <trkpt lat="45.69072" lon="5.74815">
        <ele>268.5</ele>
        <time>2021-08-23T08:29:22Z</time>
      </trkpt>
      <trkpt lat="45.69071" lon="5.74811">
        <ele>268.7</ele>
        <time>2021-08-23T08:29:23Z</time>
      </trkpt>
      <trkpt lat="45.6907" lon="5.74807">
        <ele>269</ele>
        <time>2021-08-23T08:29:24Z</time>
      </trkpt>
      <trkpt lat="45.69069" lon="5.74806">
        <ele>269</ele>
        <time>2021-08-23T08:29:25Z</time>
      </trkpt>
      <trkpt lat="45.69069" lon="5.74803">
        <ele>269.2</ele>
        <time>2021-08-23T08:29:27Z</time>
      </trkpt>
      <trkpt lat="45.69069" lon="5.74801">
        <ele>269.3</ele>
        <time>2021-08-23T08:29:28Z</time>
      </trkpt>
      <trkpt lat="45.69069" lon="5.74799">
        <ele>269.4</ele>
        <time>2021-08-23T08:29:30Z</time>
      </trkpt>
      <trkpt lat="45.69068" lon="5.74798">
        <ele>269.5</ele>
        <time>2021-08-23T08:29:32Z</time>
      </trkpt>
      <trkpt lat="45.69067" lon="5.74797">
        <ele>269.6</ele>
        <time>2021-08-23T08:29:33Z</time>
      </trkpt>
      <trkpt lat="45.69037" lon="5.74763">
        <ele>272.9</ele>
        <time>2021-08-23T08:30:06Z</time>
      </trkpt>
      <trkpt lat="45.6903" lon="5.74763">
        <ele>273.5</ele>
        <time>2021-08-23T08:30:08Z</time>
      </trkpt>
      <trkpt lat="45.69024" lon="5.74764">
        <ele>273.9</ele>
        <time>2021-08-23T08:30:09Z</time>
      </trkpt>
      <trkpt lat="45.69019" lon="5.74765">
        <ele>274.3</ele>
        <time>2021-08-23T08:30:10Z</time>
      </trkpt>
      <trkpt lat="45.69016" lon="5.74766">
        <ele>274.5</ele>
        <time>2021-08-23T08:30:12Z</time>
      </trkpt>
      <trkpt lat="45.69013" lon="5.74766">
        <ele>274.8</ele>
        <time>2021-08-23T08:30:13Z</time>
      </trkpt>
      <trkpt lat="45.69009" lon="5.74766">
        <ele>275.1</ele>
        <time>2021-08-23T08:30:15Z</time>
      </trkpt>
      <trkpt lat="45.69005" lon="5.74767">
        <ele>275.4</ele>
        <time>2021-08-23T08:30:16Z</time>
      </trkpt>
      <trkpt lat="45.69002" lon="5.74767">
        <ele>275.7</ele>
        <time>2021-08-23T08:30:18Z</time>
      </trkpt>
      <trkpt lat="45.69001" lon="5.74766">
        <ele>275.8</ele>
        <time>2021-08-23T08:30:19Z</time>
      </trkpt>
      <trkpt lat="45.68998" lon="5.74764">
        <ele>276.1</ele>
        <time>2021-08-23T08:30:20Z</time>
      </trkpt>
      <trkpt lat="45.68997" lon="5.74763">
        <ele>276.2</ele>
        <time>2021-08-23T08:30:21Z</time>
      </trkpt>
      <trkpt lat="45.68994" lon="5.74761">
        <ele>276.5</ele>
        <time>2021-08-23T08:30:23Z</time>
      </trkpt>
      <trkpt lat="45.68993" lon="5.74761">
        <ele>276.6</ele>
        <time>2021-08-23T08:30:24Z</time>
      </trkpt>
      <trkpt lat="45.6899" lon="5.74758">
        <ele>276.9</ele>
        <time>2021-08-23T08:30:25Z</time>
      </trkpt>
      <trkpt lat="45.68989" lon="5.74757">
        <ele>277</ele>
        <time>2021-08-23T08:30:26Z</time>
      </trkpt>
      <trkpt lat="45.68988" lon="5.74757">
        <ele>277.1</ele>
        <time>2021-08-23T08:30:28Z</time>
      </trkpt>
      <trkpt lat="45.68987" lon="5.74757">
        <ele>277.2</ele>
        <time>2021-08-23T08:30:29Z</time>
      </trkpt>
      <trkpt lat="45.68986" lon="5.74756">
        <ele>277.3</ele>
        <time>2021-08-23T08:30:30Z</time>
      </trkpt>
      <trkpt lat="45.68985" lon="5.74755">
        <ele>277.4</ele>
        <time>2021-08-23T08:30:32Z</time>
      </trkpt>
      <trkpt lat="45.68984" lon="5.74755">
        <ele>277.5</ele>
        <time>2021-08-23T08:30:33Z</time>
      </trkpt>
      <trkpt lat="45.68984" lon="5.74754">
        <ele>277.5</ele>
        <time>2021-08-23T08:30:34Z</time>
      </trkpt>
      <trkpt lat="45.68983" lon="5.74752">
        <ele>277.7</ele>
        <time>2021-08-23T08:30:36Z</time>
      </trkpt>
      <trkpt lat="45.68974" lon="5.74743">
        <ele>278.6</ele>
        <time>2021-08-23T08:30:43Z</time>
      </trkpt>
      <trkpt lat="45.68972" lon="5.74741">
        <ele>278.8</ele>
        <time>2021-08-23T08:30:44Z</time>
      </trkpt>
      <trkpt lat="45.68971" lon="5.7474">
        <ele>278.9</ele>
        <time>2021-08-23T08:30:45Z</time>
      </trkpt>
      <trkpt lat="45.68967" lon="5.74738">
        <ele>279.2</ele>
        <time>2021-08-23T08:30:47Z</time>
      </trkpt>
      <trkpt lat="45.68966" lon="5.74738">
        <ele>279.3</ele>
        <time>2021-08-23T08:30:48Z</time>
      </trkpt>
      <trkpt lat="45.68962" lon="5.74737">
        <ele>279.6</ele>
        <time>2021-08-23T08:30:49Z</time>
      </trkpt>
      <trkpt lat="45.68961" lon="5.74736">
        <ele>279.7</ele>
        <time>2021-08-23T08:30:50Z</time>
      </trkpt>
      <trkpt lat="45.68959" lon="5.74736">
        <ele>279.9</ele>
        <time>2021-08-23T08:30:52Z</time>
      </trkpt>
      <trkpt lat="45.68956" lon="5.74737">
        <ele>280.1</ele>
        <time>2021-08-23T08:30:54Z</time>
      </trkpt>
      <trkpt lat="45.68955" lon="5.74736">
        <ele>280.2</ele>
        <time>2021-08-23T08:30:55Z</time>
      </trkpt>
      <trkpt lat="45.68954" lon="5.74735">
        <ele>280.3</ele>
        <time>2021-08-23T08:30:56Z</time>
      </trkpt>
      <trkpt lat="45.68953" lon="5.74734">
        <ele>280.4</ele>
        <time>2021-08-23T08:30:57Z</time>
      </trkpt>
      <trkpt lat="45.6895" lon="5.74734">
        <ele>280.6</ele>
        <time>2021-08-23T08:30:59Z</time>
      </trkpt>
      <trkpt lat="45.6895" lon="5.74734">
        <ele>280.6</ele>
        <time>2021-08-23T08:31:00Z</time>
      </trkpt>
      <trkpt lat="45.68949" lon="5.74734">
        <ele>280.6</ele>
        <time>2021-08-23T08:31:01Z</time>
      </trkpt>
      <trkpt lat="45.68948" lon="5.74734">
        <ele>280.7</ele>
        <time>2021-08-23T08:31:03Z</time>
      </trkpt>
      <trkpt lat="45.68945" lon="5.74733">
        <ele>280.9</ele>
        <time>2021-08-23T08:31:04Z</time>
      </trkpt>
      <trkpt lat="45.68942" lon="5.74731">
        <ele>281.1</ele>
        <time>2021-08-23T08:31:05Z</time>
      </trkpt>
      <trkpt lat="45.68941" lon="5.7473">
        <ele>281.2</ele>
        <time>2021-08-23T08:31:06Z</time>
      </trkpt>
      <trkpt lat="45.6894" lon="5.7473">
        <ele>281.3</ele>
        <time>2021-08-23T08:31:08Z</time>
      </trkpt>
      <trkpt lat="45.68938" lon="5.74728">
        <ele>281.5</ele>
        <time>2021-08-23T08:31:09Z</time>
      </trkpt>
      <trkpt lat="45.68938" lon="5.74727">
        <ele>281.5</ele>
        <time>2021-08-23T08:31:10Z</time>
      </trkpt>
      <trkpt lat="45.68932" lon="5.74722">
        <ele>282</ele>
        <time>2021-08-23T08:31:12Z</time>
      </trkpt>
      <trkpt lat="45.68929" lon="5.7472">
        <ele>282.2</ele>
        <time>2021-08-23T08:31:13Z</time>
      </trkpt>
      <trkpt lat="45.68929" lon="5.74719">
        <ele>282.3</ele>
        <time>2021-08-23T08:31:14Z</time>
      </trkpt>
      <trkpt lat="45.68927" lon="5.74717">
        <ele>282.4</ele>
        <time>2021-08-23T08:31:15Z</time>
      </trkpt>
      <trkpt lat="45.68926" lon="5.74717">
        <ele>282.5</ele>
        <time>2021-08-23T08:31:17Z</time>
      </trkpt>
      <trkpt lat="45.68923" lon="5.74717">
        <ele>282.7</ele>
        <time>2021-08-23T08:31:18Z</time>
      </trkpt>
      <trkpt lat="45.68921" lon="5.74717">
        <ele>282.8</ele>
        <time>2021-08-23T08:31:20Z</time>
      </trkpt>
      <trkpt lat="45.68919" lon="5.74716">
        <ele>283</ele>
        <time>2021-08-23T08:31:21Z</time>
      </trkpt>
      <trkpt lat="45.68918" lon="5.74715">
        <ele>283.1</ele>
        <time>2021-08-23T08:31:22Z</time>
      </trkpt>
      <trkpt lat="45.68916" lon="5.74712">
        <ele>283.2</ele>
        <time>2021-08-23T08:31:23Z</time>
      </trkpt>
      <trkpt lat="45.68915" lon="5.74711">
        <ele>283.3</ele>
        <time>2021-08-23T08:31:25Z</time>
      </trkpt>
      <trkpt lat="45.68914" lon="5.74711">
        <ele>283.4</ele>
        <time>2021-08-23T08:31:26Z</time>
      </trkpt>
      <trkpt lat="45.68914" lon="5.7471">
        <ele>283.4</ele>
        <time>2021-08-23T08:31:28Z</time>
      </trkpt>
      <trkpt lat="45.68913" lon="5.74709">
        <ele>283.5</ele>
        <time>2021-08-23T08:31:29Z</time>
      </trkpt>
      <trkpt lat="45.68912" lon="5.74708">
        <ele>283.6</ele>
        <time>2021-08-23T08:31:30Z</time>
      </trkpt>
      <trkpt lat="45.6891" lon="5.74706">
        <ele>283.8</ele>
        <time>2021-08-23T08:31:32Z</time>
      </trkpt>
      <trkpt lat="45.68908" lon="5.74702">
        <ele>284</ele>
        <time>2021-08-23T08:31:34Z</time>
      </trkpt>
      <trkpt lat="45.68907" lon="5.74698">
        <ele>284.2</ele>
        <time>2021-08-23T08:31:35Z</time>
      </trkpt>
      <trkpt lat="45.68906" lon="5.74693">
        <ele>284.5</ele>
        <time>2021-08-23T08:31:37Z</time>
      </trkpt>
      <trkpt lat="45.68906" lon="5.74691">
        <ele>284.5</ele>
        <time>2021-08-23T08:31:38Z</time>
      </trkpt>
      <trkpt lat="45.68905" lon="5.74688">
        <ele>284.7</ele>
        <time>2021-08-23T08:31:40Z</time>
      </trkpt>
      <trkpt lat="45.68905" lon="5.74687">
        <ele>284.7</ele>
        <time>2021-08-23T08:31:42Z</time>
      </trkpt>
      <trkpt lat="45.68904" lon="5.74686">
        <ele>284.8</ele>
        <time>2021-08-23T08:31:43Z</time>
      </trkpt>
      <trkpt lat="45.68902" lon="5.74684">
        <ele>285</ele>
        <time>2021-08-23T08:31:45Z</time>
      </trkpt>
      <trkpt lat="45.68897" lon="5.74681">
        <ele>285.3</ele>
        <time>2021-08-23T08:31:47Z</time>
      </trkpt>
      <trkpt lat="45.68894" lon="5.74679">
        <ele>285.6</ele>
        <time>2021-08-23T08:31:48Z</time>
      </trkpt>
      <trkpt lat="45.68892" lon="5.74679">
        <ele>285.7</ele>
        <time>2021-08-23T08:31:49Z</time>
      </trkpt>
      <trkpt lat="45.68889" lon="5.74677">
        <ele>285.9</ele>
        <time>2021-08-23T08:31:51Z</time>
      </trkpt>
      <trkpt lat="45.68888" lon="5.74676">
        <ele>286</ele>
        <time>2021-08-23T08:31:52Z</time>
      </trkpt>
      <trkpt lat="45.68888" lon="5.74675">
        <ele>286.1</ele>
        <time>2021-08-23T08:31:53Z</time>
      </trkpt>
      <trkpt lat="45.68887" lon="5.74671">
        <ele>287.1</ele>
        <time>2021-08-23T08:31:55Z</time>
      </trkpt>
      <trkpt lat="45.68886" lon="5.74668">
        <ele>288</ele>
        <time>2021-08-23T08:31:56Z</time>
      </trkpt>
      <trkpt lat="45.68884" lon="5.74666">
        <ele>288.8</ele>
        <time>2021-08-23T08:31:58Z</time>
      </trkpt>
      <trkpt lat="45.68881" lon="5.74665">
        <ele>288.8</ele>
        <time>2021-08-23T08:32:00Z</time>
      </trkpt>
      <trkpt lat="45.68878" lon="5.74666">
        <ele>288.9</ele>
        <time>2021-08-23T08:32:01Z</time>
      </trkpt>
      <trkpt lat="45.68877" lon="5.74666">
        <ele>289</ele>
        <time>2021-08-23T08:32:02Z</time>
      </trkpt>
      <trkpt lat="45.68876" lon="5.74666">
        <ele>289.1</ele>
        <time>2021-08-23T08:32:03Z</time>
      </trkpt>
      <trkpt lat="45.68873" lon="5.74671">
        <ele>287.5</ele>
        <time>2021-08-23T08:32:05Z</time>
      </trkpt>
      <trkpt lat="45.68869" lon="5.74678">
        <ele>286.8</ele>
        <time>2021-08-23T08:32:07Z</time>
      </trkpt>
      <trkpt lat="45.68867" lon="5.7468">
        <ele>286.1</ele>
        <time>2021-08-23T08:32:08Z</time>
      </trkpt>
      <trkpt lat="45.68862" lon="5.74682">
        <ele>286.1</ele>
        <time>2021-08-23T08:32:10Z</time>
      </trkpt>
      <trkpt lat="45.68861" lon="5.74683">
        <ele>286.1</ele>
        <time>2021-08-23T08:32:11Z</time>
      </trkpt>
      <trkpt lat="45.6886" lon="5.74682">
        <ele>286.3</ele>
        <time>2021-08-23T08:32:12Z</time>
      </trkpt>
      <trkpt lat="45.68858" lon="5.74681">
        <ele>286.3</ele>
        <time>2021-08-23T08:32:14Z</time>
      </trkpt>
      <trkpt lat="45.68855" lon="5.74678">
        <ele>287</ele>
        <time>2021-08-23T08:32:16Z</time>
      </trkpt>
      <trkpt lat="45.68854" lon="5.74677">
        <ele>287.2</ele>
        <time>2021-08-23T08:32:17Z</time>
      </trkpt>
      <trkpt lat="45.6885" lon="5.74667">
        <ele>288.7</ele>
        <time>2021-08-23T08:32:19Z</time>
      </trkpt>
      <trkpt lat="45.68847" lon="5.74664">
        <ele>289.5</ele>
        <time>2021-08-23T08:32:21Z</time>
      </trkpt>
      <trkpt lat="45.68844" lon="5.74662">
        <ele>289.6</ele>
        <time>2021-08-23T08:32:22Z</time>
      </trkpt>
      <trkpt lat="45.68841" lon="5.7466">
        <ele>290.3</ele>
        <time>2021-08-23T08:32:24Z</time>
      </trkpt>
      <trkpt lat="45.68839" lon="5.74658">
        <ele>291</ele>
        <time>2021-08-23T08:32:25Z</time>
      </trkpt>
      <trkpt lat="45.68838" lon="5.74657">
        <ele>291.2</ele>
        <time>2021-08-23T08:32:26Z</time>
      </trkpt>
      <trkpt lat="45.68837" lon="5.74656">
        <ele>291.1</ele>
        <time>2021-08-23T08:32:28Z</time>
      </trkpt>
      <trkpt lat="45.68838" lon="5.74655">
        <ele>291.5</ele>
        <time>2021-08-23T08:32:29Z</time>
      </trkpt>
      <trkpt lat="45.68839" lon="5.74654">
        <ele>291.6</ele>
        <time>2021-08-23T08:32:30Z</time>
      </trkpt>
      <trkpt lat="45.68839" lon="5.74654">
        <ele>291.8</ele>
        <time>2021-08-23T08:32:31Z</time>
      </trkpt>
      <trkpt lat="45.6884" lon="5.74656">
        <ele>291.9</ele>
        <time>2021-08-23T08:32:32Z</time>
      </trkpt>
      <trkpt lat="45.68841" lon="5.74657">
        <ele>292.2</ele>
        <time>2021-08-23T08:32:34Z</time>
      </trkpt>
      <trkpt lat="45.68842" lon="5.74658">
        <ele>292.4</ele>
        <time>2021-08-23T08:32:35Z</time>
      </trkpt>
      <trkpt lat="45.68844" lon="5.7466">
        <ele>291.9</ele>
        <time>2021-08-23T08:32:36Z</time>
      </trkpt>
      <trkpt lat="45.68846" lon="5.74662">
        <ele>292.1</ele>
        <time>2021-08-23T08:32:38Z</time>
      </trkpt>
      <trkpt lat="45.68847" lon="5.74663">
        <ele>291.6</ele>
        <time>2021-08-23T08:32:39Z</time>
      </trkpt>
      <trkpt lat="45.68849" lon="5.74664">
        <ele>291.7</ele>
        <time>2021-08-23T08:32:41Z</time>
      </trkpt>
      <trkpt lat="45.68854" lon="5.74665">
        <ele>292.2</ele>
        <time>2021-08-23T08:32:44Z</time>
      </trkpt>
      <trkpt lat="45.68857" lon="5.74666">
        <ele>292.4</ele>
        <time>2021-08-23T08:32:45Z</time>
      </trkpt>
      <trkpt lat="45.68862" lon="5.74667">
        <ele>292.1</ele>
        <time>2021-08-23T08:32:47Z</time>
      </trkpt>
      <trkpt lat="45.68866" lon="5.74666">
        <ele>293.1</ele>
        <time>2021-08-23T08:32:48Z</time>
      </trkpt>
      <trkpt lat="45.68871" lon="5.74666">
        <ele>293.5</ele>
        <time>2021-08-23T08:32:50Z</time>
      </trkpt>
      <trkpt lat="45.68875" lon="5.74667">
        <ele>293</ele>
        <time>2021-08-23T08:32:52Z</time>
      </trkpt>
      <trkpt lat="45.68878" lon="5.74668">
        <ele>293.1</ele>
        <time>2021-08-23T08:32:53Z</time>
      </trkpt>
      <trkpt lat="45.6888" lon="5.74668">
        <ele>293.2</ele>
        <time>2021-08-23T08:32:54Z</time>
      </trkpt>
      <trkpt lat="45.68884" lon="5.74669">
        <ele>293.4</ele>
        <time>2021-08-23T08:32:56Z</time>
      </trkpt>
      <trkpt lat="45.68886" lon="5.74669">
        <ele>293.6</ele>
        <time>2021-08-23T08:32:57Z</time>
      </trkpt>
      <trkpt lat="45.68887" lon="5.74669">
        <ele>293.6</ele>
        <time>2021-08-23T08:32:59Z</time>
      </trkpt>
      <trkpt lat="45.68889" lon="5.74669">
        <ele>293.7</ele>
        <time>2021-08-23T08:33:00Z</time>
      </trkpt>
      <trkpt lat="45.6889" lon="5.7467">
        <ele>293.7</ele>
        <time>2021-08-23T08:33:01Z</time>
      </trkpt>
      <trkpt lat="45.68892" lon="5.7467">
        <ele>293.8</ele>
        <time>2021-08-23T08:33:02Z</time>
      </trkpt>
      <trkpt lat="45.68894" lon="5.74671">
        <ele>293.9</ele>
        <time>2021-08-23T08:33:04Z</time>
      </trkpt>
      <trkpt lat="45.68897" lon="5.74672">
        <ele>294.1</ele>
        <time>2021-08-23T08:33:05Z</time>
      </trkpt>
      <trkpt lat="45.68901" lon="5.74672">
        <ele>294.3</ele>
        <time>2021-08-23T08:33:07Z</time>
      </trkpt>
      <trkpt lat="45.68903" lon="5.74672">
        <ele>294.4</ele>
        <time>2021-08-23T08:33:08Z</time>
      </trkpt>
      <trkpt lat="45.68904" lon="5.74671">
        <ele>294.5</ele>
        <time>2021-08-23T08:33:10Z</time>
      </trkpt>
      <trkpt lat="45.68906" lon="5.7467">
        <ele>294.6</ele>
        <time>2021-08-23T08:33:11Z</time>
      </trkpt>
      <trkpt lat="45.68909" lon="5.74668">
        <ele>294.7</ele>
        <time>2021-08-23T08:33:13Z</time>
      </trkpt>
      <trkpt lat="45.68912" lon="5.74665">
        <ele>295</ele>
        <time>2021-08-23T08:33:15Z</time>
      </trkpt>
      <trkpt lat="45.68915" lon="5.74662">
        <ele>295.2</ele>
        <time>2021-08-23T08:33:16Z</time>
      </trkpt>
      <trkpt lat="45.68916" lon="5.74658">
        <ele>295.4</ele>
        <time>2021-08-23T08:33:17Z</time>
      </trkpt>
      <trkpt lat="45.68918" lon="5.74654">
        <ele>295.6</ele>
        <time>2021-08-23T08:33:19Z</time>
      </trkpt>
      <trkpt lat="45.6892" lon="5.74649">
        <ele>295.9</ele>
        <time>2021-08-23T08:33:21Z</time>
      </trkpt>
      <trkpt lat="45.6892" lon="5.74647">
        <ele>296</ele>
        <time>2021-08-23T08:33:22Z</time>
      </trkpt>
      <trkpt lat="45.6892" lon="5.74646">
        <ele>296</ele>
        <time>2021-08-23T08:33:23Z</time>
      </trkpt>
      <trkpt lat="45.68919" lon="5.74645">
        <ele>296.1</ele>
        <time>2021-08-23T08:33:24Z</time>
      </trkpt>
      <trkpt lat="45.68918" lon="5.74642">
        <ele>296.2</ele>
        <time>2021-08-23T08:33:26Z</time>
      </trkpt>
      <trkpt lat="45.68917" lon="5.74641">
        <ele>296.3</ele>
        <time>2021-08-23T08:33:27Z</time>
      </trkpt>
      <trkpt lat="45.68916" lon="5.7464">
        <ele>296.4</ele>
        <time>2021-08-23T08:33:29Z</time>
      </trkpt>
      <trkpt lat="45.68915" lon="5.74639">
        <ele>296.5</ele>
        <time>2021-08-23T08:33:30Z</time>
      </trkpt>
      <trkpt lat="45.68914" lon="5.74637">
        <ele>296.5</ele>
        <time>2021-08-23T08:33:31Z</time>
      </trkpt>
      <trkpt lat="45.68914" lon="5.74637">
        <ele>296.5</ele>
        <time>2021-08-23T08:33:31Z</time>
      </trkpt>
      <trkpt lat="45.6891" lon="5.74635">
        <ele>296.8</ele>
        <time>2021-08-23T08:33:32Z</time>
      </trkpt>
      <trkpt lat="45.68908" lon="5.74635">
        <ele>297</ele>
        <time>2021-08-23T08:33:33Z</time>
      </trkpt>
      <trkpt lat="45.68903" lon="5.74633">
        <ele>297.3</ele>
        <time>2021-08-23T08:33:35Z</time>
      </trkpt>
      <trkpt lat="45.68899" lon="5.74632">
        <ele>297.5</ele>
        <time>2021-08-23T08:33:36Z</time>
      </trkpt>
      <trkpt lat="45.68895" lon="5.74631">
        <ele>297.8</ele>
        <time>2021-08-23T08:33:37Z</time>
      </trkpt>
      <trkpt lat="45.68891" lon="5.74629">
        <ele>297.9</ele>
        <time>2021-08-23T08:33:39Z</time>
      </trkpt>
      <trkpt lat="45.68889" lon="5.74627">
        <ele>298.1</ele>
        <time>2021-08-23T08:33:40Z</time>
      </trkpt>
      <trkpt lat="45.68886" lon="5.74625">
        <ele>298.2</ele>
        <time>2021-08-23T08:33:41Z</time>
      </trkpt>
      <trkpt lat="45.68883" lon="5.74622">
        <ele>298.4</ele>
        <time>2021-08-23T08:33:43Z</time>
      </trkpt>
      <trkpt lat="45.68881" lon="5.74619">
        <ele>298.5</ele>
        <time>2021-08-23T08:33:44Z</time>
      </trkpt>
      <trkpt lat="45.68879" lon="5.74617">
        <ele>298.6</ele>
        <time>2021-08-23T08:33:46Z</time>
      </trkpt>
      <trkpt lat="45.68876" lon="5.74615">
        <ele>298.8</ele>
        <time>2021-08-23T08:33:48Z</time>
      </trkpt>
      <trkpt lat="45.68874" lon="5.74612">
        <ele>298.9</ele>
        <time>2021-08-23T08:33:50Z</time>
      </trkpt>
      <trkpt lat="45.68872" lon="5.7461">
        <ele>299.1</ele>
        <time>2021-08-23T08:33:52Z</time>
      </trkpt>
      <trkpt lat="45.68871" lon="5.74608">
        <ele>299.2</ele>
        <time>2021-08-23T08:33:53Z</time>
      </trkpt>
      <trkpt lat="45.68869" lon="5.74607">
        <ele>299.3</ele>
        <time>2021-08-23T08:33:54Z</time>
      </trkpt>
      <trkpt lat="45.68868" lon="5.74603">
        <ele>299.5</ele>
        <time>2021-08-23T08:33:56Z</time>
      </trkpt>
      <trkpt lat="45.68868" lon="5.74602">
        <ele>299.5</ele>
        <time>2021-08-23T08:33:57Z</time>
      </trkpt>
      <trkpt lat="45.68867" lon="5.74598">
        <ele>299.7</ele>
        <time>2021-08-23T08:33:59Z</time>
      </trkpt>
      <trkpt lat="45.68867" lon="5.74597">
        <ele>299.8</ele>
        <time>2021-08-23T08:34:00Z</time>
      </trkpt>
      <trkpt lat="45.68866" lon="5.74594">
        <ele>299.9</ele>
        <time>2021-08-23T08:34:01Z</time>
      </trkpt>
      <trkpt lat="45.68865" lon="5.74591">
        <ele>300.1</ele>
        <time>2021-08-23T08:34:03Z</time>
      </trkpt>
      <trkpt lat="45.68863" lon="5.74587">
        <ele>300.3</ele>
        <time>2021-08-23T08:34:04Z</time>
      </trkpt>
      <trkpt lat="45.68863" lon="5.74586">
        <ele>300.3</ele>
        <time>2021-08-23T08:34:05Z</time>
      </trkpt>
      <trkpt lat="45.68861" lon="5.74583">
        <ele>300.5</ele>
        <time>2021-08-23T08:34:07Z</time>
      </trkpt>
      <trkpt lat="45.68858" lon="5.7458">
        <ele>300.8</ele>
        <time>2021-08-23T08:34:09Z</time>
      </trkpt>
      <trkpt lat="45.68857" lon="5.74577">
        <ele>300.9</ele>
        <time>2021-08-23T08:34:10Z</time>
      </trkpt>
      <trkpt lat="45.68857" lon="5.74574">
        <ele>301.1</ele>
        <time>2021-08-23T08:34:12Z</time>
      </trkpt>
      <trkpt lat="45.68856" lon="5.74572">
        <ele>301.2</ele>
        <time>2021-08-23T08:34:13Z</time>
      </trkpt>
      <trkpt lat="45.68855" lon="5.74572">
        <ele>301.2</ele>
        <time>2021-08-23T08:34:14Z</time>
      </trkpt>
      <trkpt lat="45.68854" lon="5.74572">
        <ele>301.3</ele>
        <time>2021-08-23T08:34:16Z</time>
      </trkpt>
      <trkpt lat="45.68854" lon="5.74571">
        <ele>301.4</ele>
        <time>2021-08-23T08:34:17Z</time>
      </trkpt>
      <trkpt lat="45.68853" lon="5.74571">
        <ele>301.4</ele>
        <time>2021-08-23T08:34:19Z</time>
      </trkpt>
      <trkpt lat="45.68852" lon="5.7457">
        <ele>301.5</ele>
        <time>2021-08-23T08:34:20Z</time>
      </trkpt>
      <trkpt lat="45.68851" lon="5.74567">
        <ele>301.7</ele>
        <time>2021-08-23T08:34:21Z</time>
      </trkpt>
      <trkpt lat="45.6885" lon="5.74564">
        <ele>301.8</ele>
        <time>2021-08-23T08:34:23Z</time>
      </trkpt>
      <trkpt lat="45.68845" lon="5.74556">
        <ele>302.4</ele>
        <time>2021-08-23T08:34:26Z</time>
      </trkpt>
      <trkpt lat="45.68842" lon="5.74552">
        <ele>302.7</ele>
        <time>2021-08-23T08:34:28Z</time>
      </trkpt>
      <trkpt lat="45.68839" lon="5.74549">
        <ele>303</ele>
        <time>2021-08-23T08:34:30Z</time>
      </trkpt>
      <trkpt lat="45.68835" lon="5.74546">
        <ele>303.3</ele>
        <time>2021-08-23T08:34:32Z</time>
      </trkpt>
      <trkpt lat="45.68832" lon="5.74544">
        <ele>303.6</ele>
        <time>2021-08-23T08:34:33Z</time>
      </trkpt>
      <trkpt lat="45.6883" lon="5.74543">
        <ele>303.8</ele>
        <time>2021-08-23T08:34:34Z</time>
      </trkpt>
      <trkpt lat="45.68828" lon="5.74542">
        <ele>303.9</ele>
        <time>2021-08-23T08:34:35Z</time>
      </trkpt>
      <trkpt lat="45.68825" lon="5.74539">
        <ele>304.2</ele>
        <time>2021-08-23T08:34:37Z</time>
      </trkpt>
      <trkpt lat="45.68821" lon="5.74537">
        <ele>304.5</ele>
        <time>2021-08-23T08:34:39Z</time>
      </trkpt>
      <trkpt lat="45.6882" lon="5.74533">
        <ele>304.7</ele>
        <time>2021-08-23T08:34:40Z</time>
      </trkpt>
      <trkpt lat="45.6882" lon="5.74529">
        <ele>304.9</ele>
        <time>2021-08-23T08:34:41Z</time>
      </trkpt>
      <trkpt lat="45.6882" lon="5.74523">
        <ele>305.2</ele>
        <time>2021-08-23T08:34:43Z</time>
      </trkpt>
      <trkpt lat="45.6882" lon="5.74518">
        <ele>305.4</ele>
        <time>2021-08-23T08:34:44Z</time>
      </trkpt>
      <trkpt lat="45.6882" lon="5.74512">
        <ele>305.7</ele>
        <time>2021-08-23T08:34:46Z</time>
      </trkpt>
      <trkpt lat="45.6882" lon="5.7451">
        <ele>305.8</ele>
        <time>2021-08-23T08:34:47Z</time>
      </trkpt>
      <trkpt lat="45.68821" lon="5.74507">
        <ele>306</ele>
        <time>2021-08-23T08:34:48Z</time>
      </trkpt>
      <trkpt lat="45.68821" lon="5.74504">
        <ele>306.1</ele>
        <time>2021-08-23T08:34:50Z</time>
      </trkpt>
      <trkpt lat="45.68819" lon="5.74503">
        <ele>306.2</ele>
        <time>2021-08-23T08:34:51Z</time>
      </trkpt>
      <trkpt lat="45.68819" lon="5.74504">
        <ele>306.2</ele>
        <time>2021-08-23T08:34:52Z</time>
      </trkpt>
      <trkpt lat="45.68818" lon="5.74503">
        <ele>306.3</ele>
        <time>2021-08-23T08:34:53Z</time>
      </trkpt>
      <trkpt lat="45.68818" lon="5.74501">
        <ele>306.4</ele>
        <time>2021-08-23T08:34:55Z</time>
      </trkpt>
      <trkpt lat="45.68816" lon="5.74501">
        <ele>306.4</ele>
        <time>2021-08-23T08:34:57Z</time>
      </trkpt>
      <trkpt lat="45.68816" lon="5.74502">
        <ele>306.5</ele>
        <time>2021-08-23T08:34:58Z</time>
      </trkpt>
      <trkpt lat="45.68816" lon="5.74502">
        <ele>306.5</ele>
        <time>2021-08-23T08:34:59Z</time>
      </trkpt>
      <trkpt lat="45.68815" lon="5.74501">
        <ele>306.5</ele>
        <time>2021-08-23T08:35:00Z</time>
      </trkpt>
      <trkpt lat="45.68814" lon="5.74501">
        <ele>306.6</ele>
        <time>2021-08-23T08:35:02Z</time>
      </trkpt>
      <trkpt lat="45.68813" lon="5.74499">
        <ele>306.7</ele>
        <time>2021-08-23T08:35:04Z</time>
      </trkpt>
      <trkpt lat="45.68804" lon="5.74488">
        <ele>307.7</ele>
        <time>2021-08-23T08:35:09Z</time>
      </trkpt>
      <trkpt lat="45.68802" lon="5.74486">
        <ele>307.9</ele>
        <time>2021-08-23T08:35:10Z</time>
      </trkpt>
      <trkpt lat="45.68798" lon="5.74482">
        <ele>308.4</ele>
        <time>2021-08-23T08:35:12Z</time>
      </trkpt>
      <trkpt lat="45.68794" lon="5.74478">
        <ele>309</ele>
        <time>2021-08-23T08:35:14Z</time>
      </trkpt>
      <trkpt lat="45.68792" lon="5.74475">
        <ele>309.2</ele>
        <time>2021-08-23T08:35:15Z</time>
      </trkpt>
      <trkpt lat="45.68791" lon="5.74474">
        <ele>309.4</ele>
        <time>2021-08-23T08:35:17Z</time>
      </trkpt>
      <trkpt lat="45.68788" lon="5.74472">
        <ele>309.7</ele>
        <time>2021-08-23T08:35:18Z</time>
      </trkpt>
      <trkpt lat="45.68787" lon="5.74471">
        <ele>309.9</ele>
        <time>2021-08-23T08:35:19Z</time>
      </trkpt>
      <trkpt lat="45.68786" lon="5.7447">
        <ele>310.1</ele>
        <time>2021-08-23T08:35:20Z</time>
      </trkpt>
      <trkpt lat="45.68784" lon="5.74467">
        <ele>310.4</ele>
        <time>2021-08-23T08:35:22Z</time>
      </trkpt>
      <trkpt lat="45.68783" lon="5.74467">
        <ele>310.5</ele>
        <time>2021-08-23T08:35:23Z</time>
      </trkpt>
      <trkpt lat="45.68782" lon="5.74468">
        <ele>310.6</ele>
        <time>2021-08-23T08:35:25Z</time>
      </trkpt>
      <trkpt lat="45.68782" lon="5.74469">
        <ele>310.6</ele>
        <time>2021-08-23T08:35:26Z</time>
      </trkpt>
      <trkpt lat="45.68781" lon="5.74469">
        <ele>310.7</ele>
        <time>2021-08-23T08:35:27Z</time>
      </trkpt>
      <trkpt lat="45.68781" lon="5.74469">
        <ele>310.8</ele>
        <time>2021-08-23T08:35:28Z</time>
      </trkpt>
      <trkpt lat="45.6877" lon="5.74468">
        <ele>312</ele>
        <time>2021-08-23T08:35:29Z</time>
      </trkpt>
      <trkpt lat="45.6876" lon="5.74468">
        <ele>313.1</ele>
        <time>2021-08-23T08:35:31Z</time>
      </trkpt>
      <trkpt lat="45.6875" lon="5.74467">
        <ele>314.2</ele>
        <time>2021-08-23T08:35:32Z</time>
      </trkpt>
      <trkpt lat="45.68739" lon="5.74467">
        <ele>315.2</ele>
        <time>2021-08-23T08:36:12Z</time>
      </trkpt>
      <trkpt lat="45.68729" lon="5.74466">
        <ele>316.1</ele>
        <time>2021-08-23T08:36:13Z</time>
      </trkpt>
      <trkpt lat="45.68719" lon="5.74466">
        <ele>317.1</ele>
        <time>2021-08-23T08:36:14Z</time>
      </trkpt>
      <trkpt lat="45.68717" lon="5.74463">
        <ele>317.3</ele>
        <time>2021-08-23T08:36:15Z</time>
      </trkpt>
      <trkpt lat="45.68715" lon="5.74459">
        <ele>317.7</ele>
        <time>2021-08-23T08:36:17Z</time>
      </trkpt>
      <trkpt lat="45.68711" lon="5.74458">
        <ele>318</ele>
        <time>2021-08-23T08:36:18Z</time>
      </trkpt>
      <trkpt lat="45.6871" lon="5.74457">
        <ele>318.1</ele>
        <time>2021-08-23T08:36:19Z</time>
      </trkpt>
      <trkpt lat="45.68708" lon="5.74457">
        <ele>318.3</ele>
        <time>2021-08-23T08:36:20Z</time>
      </trkpt>
      <trkpt lat="45.68705" lon="5.74456">
        <ele>318.5</ele>
        <time>2021-08-23T08:36:22Z</time>
      </trkpt>
      <trkpt lat="45.68703" lon="5.74455">
        <ele>318.8</ele>
        <time>2021-08-23T08:36:23Z</time>
      </trkpt>
      <trkpt lat="45.68698" lon="5.74451">
        <ele>319.3</ele>
        <time>2021-08-23T08:36:25Z</time>
      </trkpt>
      <trkpt lat="45.68695" lon="5.74448">
        <ele>319.6</ele>
        <time>2021-08-23T08:36:27Z</time>
      </trkpt>
      <trkpt lat="45.68694" lon="5.74447">
        <ele>319.8</ele>
        <time>2021-08-23T08:36:28Z</time>
      </trkpt>
      <trkpt lat="45.68693" lon="5.74446">
        <ele>319.9</ele>
        <time>2021-08-23T08:36:29Z</time>
      </trkpt>
      <trkpt lat="45.68692" lon="5.74444">
        <ele>320</ele>
        <time>2021-08-23T08:36:30Z</time>
      </trkpt>
      <trkpt lat="45.68691" lon="5.74443">
        <ele>320.2</ele>
        <time>2021-08-23T08:36:31Z</time>
      </trkpt>
      <trkpt lat="45.6869" lon="5.74442">
        <ele>320.3</ele>
        <time>2021-08-23T08:36:32Z</time>
      </trkpt>
      <trkpt lat="45.68688" lon="5.74439">
        <ele>320.5</ele>
        <time>2021-08-23T08:36:34Z</time>
      </trkpt>
      <trkpt lat="45.68687" lon="5.74437">
        <ele>320.7</ele>
        <time>2021-08-23T08:36:35Z</time>
      </trkpt>
      <trkpt lat="45.68687" lon="5.74435">
        <ele>320.9</ele>
        <time>2021-08-23T08:36:36Z</time>
      </trkpt>
      <trkpt lat="45.68686" lon="5.74433">
        <ele>321</ele>
        <time>2021-08-23T08:36:38Z</time>
      </trkpt>
      <trkpt lat="45.68686" lon="5.74434">
        <ele>321.1</ele>
        <time>2021-08-23T08:36:39Z</time>
      </trkpt>
      <trkpt lat="45.68685" lon="5.74435">
        <ele>321.2</ele>
        <time>2021-08-23T08:36:40Z</time>
      </trkpt>
      <trkpt lat="45.68685" lon="5.74435">
        <ele>321.2</ele>
        <time>2021-08-23T08:36:41Z</time>
      </trkpt>
      <trkpt lat="45.68684" lon="5.74435">
        <ele>321.3</ele>
        <time>2021-08-23T08:36:42Z</time>
      </trkpt>
      <trkpt lat="45.68684" lon="5.74435">
        <ele>321.3</ele>
        <time>2021-08-23T08:36:43Z</time>
      </trkpt>
      <trkpt lat="45.68683" lon="5.74433">
        <ele>321.4</ele>
        <time>2021-08-23T08:36:44Z</time>
      </trkpt>
      <trkpt lat="45.68682" lon="5.74432">
        <ele>321.5</ele>
        <time>2021-08-23T08:36:46Z</time>
      </trkpt>
      <trkpt lat="45.68681" lon="5.74432">
        <ele>321.6</ele>
        <time>2021-08-23T08:36:46Z</time>
      </trkpt>
      <trkpt lat="45.6868" lon="5.7443">
        <ele>321.7</ele>
        <time>2021-08-23T08:36:48Z</time>
      </trkpt>
      <trkpt lat="45.68679" lon="5.74429">
        <ele>321.9</ele>
        <time>2021-08-23T08:36:49Z</time>
      </trkpt>
      <trkpt lat="45.68677" lon="5.74432">
        <ele>322.1</ele>
        <time>2021-08-23T08:36:50Z</time>
      </trkpt>
      <trkpt lat="45.68676" lon="5.74434">
        <ele>322.2</ele>
        <time>2021-08-23T08:36:52Z</time>
      </trkpt>
      <trkpt lat="45.68675" lon="5.74435">
        <ele>322.4</ele>
        <time>2021-08-23T08:36:53Z</time>
      </trkpt>
      <trkpt lat="45.68674" lon="5.74437">
        <ele>322.5</ele>
        <time>2021-08-23T08:36:54Z</time>
      </trkpt>
      <trkpt lat="45.68671" lon="5.7444">
        <ele>322.8</ele>
        <time>2021-08-23T08:36:56Z</time>
      </trkpt>
      <trkpt lat="45.68671" lon="5.7444">
        <ele>322.9</ele>
        <time>2021-08-23T08:36:57Z</time>
      </trkpt>
      <trkpt lat="45.68667" lon="5.7444">
        <ele>323.2</ele>
        <time>2021-08-23T08:36:59Z</time>
      </trkpt>
      <trkpt lat="45.68663" lon="5.74439">
        <ele>323.5</ele>
        <time>2021-08-23T08:37:00Z</time>
      </trkpt>
      <trkpt lat="45.6866" lon="5.74439">
        <ele>323.8</ele>
        <time>2021-08-23T08:37:02Z</time>
      </trkpt>
      <trkpt lat="45.68657" lon="5.7444">
        <ele>324.1</ele>
        <time>2021-08-23T08:37:03Z</time>
      </trkpt>
      <trkpt lat="45.68654" lon="5.74441">
        <ele>324.3</ele>
        <time>2021-08-23T08:37:04Z</time>
      </trkpt>
      <trkpt lat="45.68652" lon="5.74442">
        <ele>324.5</ele>
        <time>2021-08-23T08:37:05Z</time>
      </trkpt>
      <trkpt lat="45.68648" lon="5.74443">
        <ele>324.9</ele>
        <time>2021-08-23T08:37:07Z</time>
      </trkpt>
      <trkpt lat="45.68645" lon="5.74445">
        <ele>325.1</ele>
        <time>2021-08-23T08:37:08Z</time>
      </trkpt>
      <trkpt lat="45.68642" lon="5.74447">
        <ele>325.3</ele>
        <time>2021-08-23T08:37:10Z</time>
      </trkpt>
      <trkpt lat="45.68642" lon="5.74446">
        <ele>325.4</ele>
        <time>2021-08-23T08:37:11Z</time>
      </trkpt>
      <trkpt lat="45.6864" lon="5.74443">
        <ele>325.6</ele>
        <time>2021-08-23T08:37:13Z</time>
      </trkpt>
      <trkpt lat="45.6864" lon="5.74442">
        <ele>325.7</ele>
        <time>2021-08-23T08:37:14Z</time>
      </trkpt>
      <trkpt lat="45.68639" lon="5.7444">
        <ele>325.8</ele>
        <time>2021-08-23T08:37:15Z</time>
      </trkpt>
      <trkpt lat="45.68636" lon="5.74438">
        <ele>326</ele>
        <time>2021-08-23T08:37:17Z</time>
      </trkpt>
      <trkpt lat="45.68634" lon="5.74437">
        <ele>326.2</ele>
        <time>2021-08-23T08:37:18Z</time>
      </trkpt>
      <trkpt lat="45.68632" lon="5.74435">
        <ele>326.4</ele>
        <time>2021-08-23T08:37:19Z</time>
      </trkpt>
      <trkpt lat="45.68631" lon="5.74433">
        <ele>326.4</ele>
        <time>2021-08-23T08:37:21Z</time>
      </trkpt>
      <trkpt lat="45.6863" lon="5.74431">
        <ele>326.6</ele>
        <time>2021-08-23T08:37:22Z</time>
      </trkpt>
      <trkpt lat="45.68629" lon="5.74429">
        <ele>326.7</ele>
        <time>2021-08-23T08:37:24Z</time>
      </trkpt>
      <trkpt lat="45.68629" lon="5.74428">
        <ele>326.7</ele>
        <time>2021-08-23T08:37:25Z</time>
      </trkpt>
      <trkpt lat="45.68628" lon="5.74426">
        <ele>326.8</ele>
        <time>2021-08-23T08:37:26Z</time>
      </trkpt>
      <trkpt lat="45.68627" lon="5.74425">
        <ele>326.9</ele>
        <time>2021-08-23T08:37:27Z</time>
      </trkpt>
      <trkpt lat="45.68626" lon="5.74422">
        <ele>327.1</ele>
        <time>2021-08-23T08:37:29Z</time>
      </trkpt>
      <trkpt lat="45.68618" lon="5.74414">
        <ele>327.8</ele>
        <time>2021-08-23T08:37:35Z</time>
      </trkpt>
      <trkpt lat="45.68612" lon="5.7441">
        <ele>328.3</ele>
        <time>2021-08-23T08:37:37Z</time>
      </trkpt>
      <trkpt lat="45.68611" lon="5.74409">
        <ele>328.4</ele>
        <time>2021-08-23T08:37:38Z</time>
      </trkpt>
      <trkpt lat="45.6861" lon="5.7441">
        <ele>328.4</ele>
        <time>2021-08-23T08:37:40Z</time>
      </trkpt>
      <trkpt lat="45.6861" lon="5.7441">
        <ele>328.5</ele>
        <time>2021-08-23T08:37:41Z</time>
      </trkpt>
      <trkpt lat="45.68606" lon="5.74409">
        <ele>328.8</ele>
        <time>2021-08-23T08:37:43Z</time>
      </trkpt>
      <trkpt lat="45.68597" lon="5.74408">
        <ele>329.7</ele>
        <time>2021-08-23T08:37:44Z</time>
      </trkpt>
      <trkpt lat="45.68592" lon="5.74407">
        <ele>330.2</ele>
        <time>2021-08-23T08:37:46Z</time>
      </trkpt>
      <trkpt lat="45.68591" lon="5.74406">
        <ele>330.4</ele>
        <time>2021-08-23T08:37:47Z</time>
      </trkpt>
      <trkpt lat="45.68585" lon="5.74401">
        <ele>331.1</ele>
        <time>2021-08-23T08:37:54Z</time>
      </trkpt>
      <trkpt lat="45.68584" lon="5.744">
        <ele>331.2</ele>
        <time>2021-08-23T08:37:55Z</time>
      </trkpt>
      <trkpt lat="45.68583" lon="5.74398">
        <ele>331.4</ele>
        <time>2021-08-23T08:37:56Z</time>
      </trkpt>
      <trkpt lat="45.68581" lon="5.74397">
        <ele>331.6</ele>
        <time>2021-08-23T08:37:57Z</time>
      </trkpt>
      <trkpt lat="45.6858" lon="5.74394">
        <ele>331.8</ele>
        <time>2021-08-23T08:37:59Z</time>
      </trkpt>
      <trkpt lat="45.68577" lon="5.7439">
        <ele>332.2</ele>
        <time>2021-08-23T08:38:01Z</time>
      </trkpt>
      <trkpt lat="45.68575" lon="5.7439">
        <ele>332.4</ele>
        <time>2021-08-23T08:38:02Z</time>
      </trkpt>
      <trkpt lat="45.68572" lon="5.74388">
        <ele>332.8</ele>
        <time>2021-08-23T08:38:04Z</time>
      </trkpt>
      <trkpt lat="45.68569" lon="5.74385">
        <ele>333.2</ele>
        <time>2021-08-23T08:38:05Z</time>
      </trkpt>
      <trkpt lat="45.68569" lon="5.7438">
        <ele>333.5</ele>
        <time>2021-08-23T08:38:06Z</time>
      </trkpt>
      <trkpt lat="45.68568" lon="5.74375">
        <ele>335.3</ele>
        <time>2021-08-23T08:38:08Z</time>
      </trkpt>
      <trkpt lat="45.68567" lon="5.74372">
        <ele>335.6</ele>
        <time>2021-08-23T08:38:09Z</time>
      </trkpt>
      <trkpt lat="45.68567" lon="5.74372">
        <ele>335.6</ele>
        <time>2021-08-23T08:38:11Z</time>
      </trkpt>
      <trkpt lat="45.68566" lon="5.74374">
        <ele>335.8</ele>
        <time>2021-08-23T08:38:13Z</time>
      </trkpt>
      <trkpt lat="45.68566" lon="5.74373">
        <ele>335.8</ele>
        <time>2021-08-23T08:38:14Z</time>
      </trkpt>
      <trkpt lat="45.68567" lon="5.74372">
        <ele>336</ele>
        <time>2021-08-23T08:38:15Z</time>
      </trkpt>
      <trkpt lat="45.68567" lon="5.74371">
        <ele>336.1</ele>
        <time>2021-08-23T08:38:17Z</time>
      </trkpt>
      <trkpt lat="45.68568" lon="5.74369">
        <ele>336.3</ele>
        <time>2021-08-23T08:38:19Z</time>
      </trkpt>
      <trkpt lat="45.68573" lon="5.74363">
        <ele>337.1</ele>
        <time>2021-08-23T08:38:26Z</time>
      </trkpt>
      <trkpt lat="45.68576" lon="5.7436">
        <ele>337.5</ele>
        <time>2021-08-23T08:38:27Z</time>
      </trkpt>
      <trkpt lat="45.68578" lon="5.7436">
        <ele>337.7</ele>
        <time>2021-08-23T08:38:28Z</time>
      </trkpt>
      <trkpt lat="45.68579" lon="5.74359">
        <ele>337.9</ele>
        <time>2021-08-23T08:38:29Z</time>
      </trkpt>
      <trkpt lat="45.68581" lon="5.74357">
        <ele>338.2</ele>
        <time>2021-08-23T08:38:31Z</time>
      </trkpt>
      <trkpt lat="45.68582" lon="5.74356">
        <ele>338.3</ele>
        <time>2021-08-23T08:38:32Z</time>
      </trkpt>
      <trkpt lat="45.68585" lon="5.74355">
        <ele>338.7</ele>
        <time>2021-08-23T08:38:34Z</time>
      </trkpt>
      <trkpt lat="45.68587" lon="5.74354">
        <ele>339</ele>
        <time>2021-08-23T08:38:35Z</time>
      </trkpt>
      <trkpt lat="45.68591" lon="5.74353">
        <ele>339.5</ele>
        <time>2021-08-23T08:38:36Z</time>
      </trkpt>
      <trkpt lat="45.68596" lon="5.74353">
        <ele>340.2</ele>
        <time>2021-08-23T08:38:38Z</time>
      </trkpt>
      <trkpt lat="45.686" lon="5.74352">
        <ele>340.7</ele>
        <time>2021-08-23T08:38:39Z</time>
      </trkpt>
      <trkpt lat="45.68603" lon="5.74352">
        <ele>341.1</ele>
        <time>2021-08-23T08:38:40Z</time>
      </trkpt>
      <trkpt lat="45.68608" lon="5.74353">
        <ele>341.8</ele>
        <time>2021-08-23T08:38:42Z</time>
      </trkpt>
      <trkpt lat="45.68611" lon="5.74354">
        <ele>342.2</ele>
        <time>2021-08-23T08:38:44Z</time>
      </trkpt>
      <trkpt lat="45.68611" lon="5.74356">
        <ele>342.4</ele>
        <time>2021-08-23T08:38:46Z</time>
      </trkpt>
      <trkpt lat="45.68612" lon="5.74358">
        <ele>342.6</ele>
        <time>2021-08-23T08:38:47Z</time>
      </trkpt>
      <trkpt lat="45.68613" lon="5.74359">
        <ele>342.8</ele>
        <time>2021-08-23T08:38:48Z</time>
      </trkpt>
      <trkpt lat="45.68615" lon="5.74364">
        <ele>343.3</ele>
        <time>2021-08-23T08:38:50Z</time>
      </trkpt>
      <trkpt lat="45.68615" lon="5.74365">
        <ele>343.5</ele>
        <time>2021-08-23T08:38:51Z</time>
      </trkpt>
      <trkpt lat="45.68617" lon="5.74368">
        <ele>343.7</ele>
        <time>2021-08-23T08:38:53Z</time>
      </trkpt>
      <trkpt lat="45.68775" lon="5.74333">
        <ele>361.8</ele>
        <time>2021-08-23T08:42:00Z</time>
      </trkpt>
      <trkpt lat="45.68778" lon="5.74329">
        <ele>362.2</ele>
        <time>2021-08-23T08:42:02Z</time>
      </trkpt>
      <trkpt lat="45.6878" lon="5.74329">
        <ele>362.3</ele>
        <time>2021-08-23T08:42:03Z</time>
      </trkpt>
      <trkpt lat="45.68781" lon="5.74327">
        <ele>362.4</ele>
        <time>2021-08-23T08:42:05Z</time>
      </trkpt>
      <trkpt lat="45.68781" lon="5.74326">
        <ele>362.5</ele>
        <time>2021-08-23T08:42:06Z</time>
      </trkpt>
      <trkpt lat="45.68782" lon="5.74323">
        <ele>362.7</ele>
        <time>2021-08-23T08:42:07Z</time>
      </trkpt>
      <trkpt lat="45.68782" lon="5.74321">
        <ele>362.8</ele>
        <time>2021-08-23T08:42:08Z</time>
      </trkpt>
      <trkpt lat="45.68783" lon="5.7432">
        <ele>362.8</ele>
        <time>2021-08-23T08:42:09Z</time>
      </trkpt>
      <trkpt lat="45.68783" lon="5.74318">
        <ele>363</ele>
        <time>2021-08-23T08:42:11Z</time>
      </trkpt>
      <trkpt lat="45.68784" lon="5.74316">
        <ele>363.1</ele>
        <time>2021-08-23T08:42:12Z</time>
      </trkpt>
      <trkpt lat="45.68784" lon="5.74313">
        <ele>363.2</ele>
        <time>2021-08-23T08:42:14Z</time>
      </trkpt>
      <trkpt lat="45.68784" lon="5.74312">
        <ele>363.2</ele>
        <time>2021-08-23T08:42:15Z</time>
      </trkpt>
      <trkpt lat="45.68784" lon="5.74311">
        <ele>363.3</ele>
        <time>2021-08-23T08:42:16Z</time>
      </trkpt>
      <trkpt lat="45.68784" lon="5.74311">
        <ele>363.3</ele>
        <time>2021-08-23T08:42:17Z</time>
      </trkpt>
      <trkpt lat="45.68784" lon="5.7431">
        <ele>363.3</ele>
        <time>2021-08-23T08:42:19Z</time>
      </trkpt>
      <trkpt lat="45.68784" lon="5.7431">
        <ele>363.3</ele>
        <time>2021-08-23T08:42:20Z</time>
      </trkpt>
      <trkpt lat="45.68784" lon="5.7431">
        <ele>363.3</ele>
        <time>2021-08-23T08:42:21Z</time>
      </trkpt>
      <trkpt lat="45.68784" lon="5.7431">
        <ele>363.3</ele>
        <time>2021-08-23T08:42:22Z</time>
      </trkpt>
      <trkpt lat="45.68784" lon="5.74309">
        <ele>363.4</ele>
        <time>2021-08-23T08:42:24Z</time>
      </trkpt>
      <trkpt lat="45.68784" lon="5.74309">
        <ele>363.4</ele>
        <time>2021-08-23T08:42:25Z</time>
      </trkpt>
      <trkpt lat="45.68784" lon="5.74308">
        <ele>363.4</ele>
        <time>2021-08-23T08:42:26Z</time>
      </trkpt>
      <trkpt lat="45.68783" lon="5.74307">
        <ele>363.5</ele>
        <time>2021-08-23T08:42:27Z</time>
      </trkpt>
      <trkpt lat="45.68783" lon="5.74306">
        <ele>363.5</ele>
        <time>2021-08-23T08:42:29Z</time>
      </trkpt>
      <trkpt lat="45.68783" lon="5.74305">
        <ele>363.5</ele>
        <time>2021-08-23T08:42:30Z</time>
      </trkpt>
      <trkpt lat="45.68783" lon="5.74296">
        <ele>363.9</ele>
        <time>2021-08-23T08:42:32Z</time>
      </trkpt>
      <trkpt lat="45.68783" lon="5.74287">
        <ele>364.3</ele>
        <time>2021-08-23T08:42:50Z</time>
      </trkpt>
      <trkpt lat="45.68783" lon="5.74279">
        <ele>364.6</ele>
        <time>2021-08-23T08:42:51Z</time>
      </trkpt>
      <trkpt lat="45.68783" lon="5.74271">
        <ele>365</ele>
        <time>2021-08-23T08:42:52Z</time>
      </trkpt>
      <trkpt lat="45.68783" lon="5.74266">
        <ele>365.2</ele>
        <time>2021-08-23T08:42:54Z</time>
      </trkpt>
      <trkpt lat="45.68783" lon="5.74264">
        <ele>365.3</ele>
        <time>2021-08-23T08:42:55Z</time>
      </trkpt>
      <trkpt lat="45.68784" lon="5.74259">
        <ele>365.5</ele>
        <time>2021-08-23T08:42:56Z</time>
      </trkpt>
      <trkpt lat="45.68784" lon="5.74257">
        <ele>365.6</ele>
        <time>2021-08-23T08:42:57Z</time>
      </trkpt>
      <trkpt lat="45.68785" lon="5.74254">
        <ele>365.8</ele>
        <time>2021-08-23T08:42:58Z</time>
      </trkpt>
      <trkpt lat="45.68787" lon="5.7425">
        <ele>366.1</ele>
        <time>2021-08-23T08:43:00Z</time>
      </trkpt>
      <trkpt lat="45.68789" lon="5.74244">
        <ele>366.4</ele>
        <time>2021-08-23T08:43:02Z</time>
      </trkpt>
      <trkpt lat="45.68789" lon="5.74242">
        <ele>366.5</ele>
        <time>2021-08-23T08:43:03Z</time>
      </trkpt>
      <trkpt lat="45.6879" lon="5.7424">
        <ele>366.7</ele>
        <time>2021-08-23T08:43:04Z</time>
      </trkpt>
      <trkpt lat="45.68792" lon="5.74237">
        <ele>367</ele>
        <time>2021-08-23T08:43:05Z</time>
      </trkpt>
      <trkpt lat="45.68792" lon="5.74236">
        <ele>367.1</ele>
        <time>2021-08-23T08:43:06Z</time>
      </trkpt>
      <trkpt lat="45.68794" lon="5.74233">
        <ele>367.3</ele>
        <time>2021-08-23T08:43:08Z</time>
      </trkpt>
      <trkpt lat="45.68795" lon="5.74231">
        <ele>367.5</ele>
        <time>2021-08-23T08:43:09Z</time>
      </trkpt>
      <trkpt lat="45.68797" lon="5.74227">
        <ele>367.9</ele>
        <time>2021-08-23T08:43:11Z</time>
      </trkpt>
      <trkpt lat="45.68797" lon="5.74226">
        <ele>367.9</ele>
        <time>2021-08-23T08:43:12Z</time>
      </trkpt>
      <trkpt lat="45.68799" lon="5.74223">
        <ele>368.2</ele>
        <time>2021-08-23T08:43:14Z</time>
      </trkpt>
      <trkpt lat="45.688" lon="5.74221">
        <ele>368.4</ele>
        <time>2021-08-23T08:43:15Z</time>
      </trkpt>
      <trkpt lat="45.68801" lon="5.74218">
        <ele>368.6</ele>
        <time>2021-08-23T08:43:17Z</time>
      </trkpt>
      <trkpt lat="45.68803" lon="5.74214">
        <ele>368.9</ele>
        <time>2021-08-23T08:43:18Z</time>
      </trkpt>
      <trkpt lat="45.68804" lon="5.74212">
        <ele>369</ele>
        <time>2021-08-23T08:43:19Z</time>
      </trkpt>
      <trkpt lat="45.68804" lon="5.7421">
        <ele>369.1</ele>
        <time>2021-08-23T08:43:20Z</time>
      </trkpt>
      <trkpt lat="45.68803" lon="5.74209">
        <ele>369.2</ele>
        <time>2021-08-23T08:43:21Z</time>
      </trkpt>
      <trkpt lat="45.68802" lon="5.74207">
        <ele>369.3</ele>
        <time>2021-08-23T08:43:23Z</time>
      </trkpt>
      <trkpt lat="45.68801" lon="5.74206">
        <ele>369.4</ele>
        <time>2021-08-23T08:43:25Z</time>
      </trkpt>
      <trkpt lat="45.688" lon="5.74205">
        <ele>369.5</ele>
        <time>2021-08-23T08:43:26Z</time>
      </trkpt>
      <trkpt lat="45.688" lon="5.74205">
        <ele>369.5</ele>
        <time>2021-08-23T08:43:28Z</time>
      </trkpt>
      <trkpt lat="45.68611" lon="5.74166">
        <ele>387.7</ele>
        <time>2021-08-23T08:49:05Z</time>
      </trkpt>
      <trkpt lat="45.68609" lon="5.74165">
        <ele>387.8</ele>
        <time>2021-08-23T08:49:06Z</time>
      </trkpt>
      <trkpt lat="45.68607" lon="5.74165">
        <ele>388</ele>
        <time>2021-08-23T08:49:08Z</time>
      </trkpt>
      <trkpt lat="45.68606" lon="5.74165">
        <ele>388.1</ele>
        <time>2021-08-23T08:49:09Z</time>
      </trkpt>
      <trkpt lat="45.68605" lon="5.74165">
        <ele>388.3</ele>
        <time>2021-08-23T08:49:10Z</time>
      </trkpt>
      <trkpt lat="45.68604" lon="5.74165">
        <ele>388.4</ele>
        <time>2021-08-23T08:49:11Z</time>
      </trkpt>
      <trkpt lat="45.68602" lon="5.74165">
        <ele>388.5</ele>
        <time>2021-08-23T08:49:13Z</time>
      </trkpt>
      <trkpt lat="45.68601" lon="5.74165">
        <ele>388.6</ele>
        <time>2021-08-23T08:49:14Z</time>
      </trkpt>
      <trkpt lat="45.686" lon="5.74164">
        <ele>388.7</ele>
        <time>2021-08-23T08:49:16Z</time>
      </trkpt>
      <trkpt lat="45.68578" lon="5.74135">
        <ele>391.4</ele>
        <time>2021-08-23T08:49:48Z</time>
      </trkpt>
      <trkpt lat="45.68573" lon="5.74129">
        <ele>391.7</ele>
        <time>2021-08-23T08:49:50Z</time>
      </trkpt>
      <trkpt lat="45.68571" lon="5.74126">
        <ele>391.8</ele>
        <time>2021-08-23T08:49:51Z</time>
      </trkpt>
      <trkpt lat="45.68564" lon="5.74121">
        <ele>392</ele>
        <time>2021-08-23T08:49:53Z</time>
      </trkpt>
      <trkpt lat="45.68561" lon="5.74119">
        <ele>392</ele>
        <time>2021-08-23T08:49:54Z</time>
      </trkpt>
      <trkpt lat="45.68559" lon="5.74116">
        <ele>392</ele>
        <time>2021-08-23T08:49:55Z</time>
      </trkpt>
      <trkpt lat="45.68557" lon="5.74111">
        <ele>392.1</ele>
        <time>2021-08-23T08:49:57Z</time>
      </trkpt>
      <trkpt lat="45.68554" lon="5.74107">
        <ele>392.2</ele>
        <time>2021-08-23T08:49:58Z</time>
      </trkpt>
      <trkpt lat="45.68553" lon="5.74106">
        <ele>392.3</ele>
        <time>2021-08-23T08:49:59Z</time>
      </trkpt>
      <trkpt lat="45.68553" lon="5.74104">
        <ele>392.3</ele>
        <time>2021-08-23T08:50:00Z</time>
      </trkpt>
      <trkpt lat="45.68552" lon="5.74102">
        <ele>392.3</ele>
        <time>2021-08-23T08:50:02Z</time>
      </trkpt>
      <trkpt lat="45.68552" lon="5.74101">
        <ele>392.4</ele>
        <time>2021-08-23T08:50:03Z</time>
      </trkpt>
      <trkpt lat="45.68551" lon="5.74101">
        <ele>392.4</ele>
        <time>2021-08-23T08:50:04Z</time>
      </trkpt>
      <trkpt lat="45.6855" lon="5.74099">
        <ele>392.4</ele>
        <time>2021-08-23T08:50:05Z</time>
      </trkpt>
      <trkpt lat="45.68542" lon="5.741">
        <ele>392.7</ele>
        <time>2021-08-23T08:50:07Z</time>
      </trkpt>
      <trkpt lat="45.68528" lon="5.74101">
        <ele>393.4</ele>
        <time>2021-08-23T08:50:08Z</time>
      </trkpt>
      <trkpt lat="45.68519" lon="5.741">
        <ele>394.2</ele>
        <time>2021-08-23T08:50:09Z</time>
      </trkpt>
      <trkpt lat="45.68508" lon="5.74086">
        <ele>396</ele>
        <time>2021-08-23T08:50:11Z</time>
      </trkpt>
      <trkpt lat="45.68499" lon="5.74074">
        <ele>397.9</ele>
        <time>2021-08-23T08:51:03Z</time>
      </trkpt>
      <trkpt lat="45.6849" lon="5.74062">
        <ele>399.9</ele>
        <time>2021-08-23T08:51:05Z</time>
      </trkpt>
      <trkpt lat="45.68482" lon="5.74049">
        <ele>401.6</ele>
        <time>2021-08-23T08:51:06Z</time>
      </trkpt>
      <trkpt lat="45.68483" lon="5.74043">
        <ele>402</ele>
        <time>2021-08-23T08:51:07Z</time>
      </trkpt>
      <trkpt lat="45.68483" lon="5.74039">
        <ele>402.2</ele>
        <time>2021-08-23T08:51:08Z</time>
      </trkpt>
      <trkpt lat="45.68483" lon="5.74035">
        <ele>402.5</ele>
        <time>2021-08-23T08:51:10Z</time>
      </trkpt>
      <trkpt lat="45.68483" lon="5.74032">
        <ele>402.6</ele>
        <time>2021-08-23T08:51:11Z</time>
      </trkpt>
      <trkpt lat="45.68481" lon="5.74031">
        <ele>402.8</ele>
        <time>2021-08-23T08:51:13Z</time>
      </trkpt>
      <trkpt lat="45.68481" lon="5.74031">
        <ele>402.8</ele>
        <time>2021-08-23T08:51:14Z</time>
      </trkpt>
      <trkpt lat="45.6848" lon="5.7403">
        <ele>402.9</ele>
        <time>2021-08-23T08:51:15Z</time>
      </trkpt>
      <trkpt lat="45.68479" lon="5.7403">
        <ele>402.9</ele>
        <time>2021-08-23T08:51:16Z</time>
      </trkpt>
      <trkpt lat="45.68478" lon="5.74029">
        <ele>403</ele>
        <time>2021-08-23T08:51:18Z</time>
      </trkpt>
      <trkpt lat="45.68476" lon="5.74026">
        <ele>403.2</ele>
        <time>2021-08-23T08:51:19Z</time>
      </trkpt>
      <trkpt lat="45.68471" lon="5.74022">
        <ele>403.7</ele>
        <time>2021-08-23T08:51:21Z</time>
      </trkpt>
      <trkpt lat="45.68468" lon="5.7402">
        <ele>404</ele>
        <time>2021-08-23T08:51:23Z</time>
      </trkpt>
      <trkpt lat="45.68466" lon="5.7402">
        <ele>404.1</ele>
        <time>2021-08-23T08:51:24Z</time>
      </trkpt>
      <trkpt lat="45.68465" lon="5.74019">
        <ele>404.2</ele>
        <time>2021-08-23T08:51:26Z</time>
      </trkpt>
      <trkpt lat="45.68464" lon="5.74019">
        <ele>404.2</ele>
        <time>2021-08-23T08:51:27Z</time>
      </trkpt>
      <trkpt lat="45.6846" lon="5.74015">
        <ele>404.6</ele>
        <time>2021-08-23T08:51:29Z</time>
      </trkpt>
      <trkpt lat="45.68457" lon="5.74012">
        <ele>404.9</ele>
        <time>2021-08-23T08:51:30Z</time>
      </trkpt>
      <trkpt lat="45.68453" lon="5.74009">
        <ele>405.1</ele>
        <time>2021-08-23T08:51:32Z</time>
      </trkpt>
      <trkpt lat="45.68446" lon="5.74006">
        <ele>405.3</ele>
        <time>2021-08-23T08:51:33Z</time>
      </trkpt>
      <trkpt lat="45.68443" lon="5.74005">
        <ele>405.3</ele>
        <time>2021-08-23T08:51:34Z</time>
      </trkpt>
      <trkpt lat="45.68437" lon="5.74001">
        <ele>405.3</ele>
        <time>2021-08-23T08:51:35Z</time>
      </trkpt>
      <trkpt lat="45.68431" lon="5.73996">
        <ele>405.2</ele>
        <time>2021-08-23T08:51:37Z</time>
      </trkpt>
      <trkpt lat="45.68426" lon="5.7399">
        <ele>405.1</ele>
        <time>2021-08-23T08:51:38Z</time>
      </trkpt>
      <trkpt lat="45.68421" lon="5.73983">
        <ele>405</ele>
        <time>2021-08-23T08:51:39Z</time>
      </trkpt>
      <trkpt lat="45.68418" lon="5.73976">
        <ele>404.8</ele>
        <time>2021-08-23T08:51:40Z</time>
      </trkpt>
      <trkpt lat="45.68415" lon="5.73969">
        <ele>404.7</ele>
        <time>2021-08-23T08:51:42Z</time>
      </trkpt>
      <trkpt lat="45.68413" lon="5.73962">
        <ele>404.6</ele>
        <time>2021-08-23T08:51:43Z</time>
      </trkpt>
      <trkpt lat="45.68411" lon="5.73955">
        <ele>404.5</ele>
        <time>2021-08-23T08:51:44Z</time>
      </trkpt>
      <trkpt lat="45.68406" lon="5.73945">
        <ele>404.4</ele>
        <time>2021-08-23T08:51:46Z</time>
      </trkpt>
      <trkpt lat="45.68403" lon="5.73935">
        <ele>404.4</ele>
        <time>2021-08-23T08:51:48Z</time>
      </trkpt>
      <trkpt lat="45.684" lon="5.73929">
        <ele>404.6</ele>
        <time>2021-08-23T08:51:49Z</time>
      </trkpt>
      <trkpt lat="45.68398" lon="5.73924">
        <ele>404.7</ele>
        <time>2021-08-23T08:51:50Z</time>
      </trkpt>
      <trkpt lat="45.68394" lon="5.7392">
        <ele>404.9</ele>
        <time>2021-08-23T08:51:52Z</time>
      </trkpt>
      <trkpt lat="45.68391" lon="5.73919">
        <ele>405.1</ele>
        <time>2021-08-23T08:51:53Z</time>
      </trkpt>
      <trkpt lat="45.68387" lon="5.73917">
        <ele>405.4</ele>
        <time>2021-08-23T08:51:54Z</time>
      </trkpt>
      <trkpt lat="45.68383" lon="5.73917">
        <ele>405.8</ele>
        <time>2021-08-23T08:51:56Z</time>
      </trkpt>
      <trkpt lat="45.6838" lon="5.73916">
        <ele>406</ele>
        <time>2021-08-23T08:51:57Z</time>
      </trkpt>
      <trkpt lat="45.68377" lon="5.73916">
        <ele>406.2</ele>
        <time>2021-08-23T08:51:58Z</time>
      </trkpt>
      <trkpt lat="45.6837" lon="5.73917">
        <ele>406.7</ele>
        <time>2021-08-23T08:52:00Z</time>
      </trkpt>
      <trkpt lat="45.68368" lon="5.73917">
        <ele>406.9</ele>
        <time>2021-08-23T08:52:01Z</time>
      </trkpt>
      <trkpt lat="45.68365" lon="5.73916">
        <ele>407.1</ele>
        <time>2021-08-23T08:52:02Z</time>
      </trkpt>
      <trkpt lat="45.68362" lon="5.73916">
        <ele>407.1</ele>
        <time>2021-08-23T08:52:04Z</time>
      </trkpt>
      <trkpt lat="45.68361" lon="5.73917">
        <ele>407.1</ele>
        <time>2021-08-23T08:52:05Z</time>
      </trkpt>
      <trkpt lat="45.68361" lon="5.73918">
        <ele>407.1</ele>
        <time>2021-08-23T08:52:06Z</time>
      </trkpt>
      <trkpt lat="45.68361" lon="5.73919">
        <ele>407</ele>
        <time>2021-08-23T08:52:07Z</time>
      </trkpt>
      <trkpt lat="45.6836" lon="5.7392">
        <ele>407</ele>
        <time>2021-08-23T08:52:09Z</time>
      </trkpt>
      <trkpt lat="45.68359" lon="5.7392">
        <ele>407</ele>
        <time>2021-08-23T08:52:10Z</time>
      </trkpt>
      <trkpt lat="45.68357" lon="5.7392">
        <ele>407</ele>
        <time>2021-08-23T08:52:11Z</time>
      </trkpt>
      <trkpt lat="45.68353" lon="5.7392">
        <ele>406.9</ele>
        <time>2021-08-23T08:52:13Z</time>
      </trkpt>
      <trkpt lat="45.6835" lon="5.73917">
        <ele>406.9</ele>
        <time>2021-08-23T08:52:14Z</time>
      </trkpt>
      <trkpt lat="45.68346" lon="5.73913">
        <ele>406.8</ele>
        <time>2021-08-23T08:52:16Z</time>
      </trkpt>
      <trkpt lat="45.68342" lon="5.73908">
        <ele>406.8</ele>
        <time>2021-08-23T08:52:17Z</time>
      </trkpt>
      <trkpt lat="45.68339" lon="5.73904">
        <ele>406.8</ele>
        <time>2021-08-23T08:52:18Z</time>
      </trkpt>
      <trkpt lat="45.68335" lon="5.73897">
        <ele>406.8</ele>
        <time>2021-08-23T08:52:20Z</time>
      </trkpt>
      <trkpt lat="45.68333" lon="5.73892">
        <ele>406.9</ele>
        <time>2021-08-23T08:52:21Z</time>
      </trkpt>
      <trkpt lat="45.68329" lon="5.73885">
        <ele>407</ele>
        <time>2021-08-23T08:52:22Z</time>
      </trkpt>
      <trkpt lat="45.68327" lon="5.73881">
        <ele>407.1</ele>
        <time>2021-08-23T08:52:23Z</time>
      </trkpt>
      <trkpt lat="45.68324" lon="5.73877">
        <ele>407.2</ele>
        <time>2021-08-23T08:52:24Z</time>
      </trkpt>
      <trkpt lat="45.6832" lon="5.73874">
        <ele>407.4</ele>
        <time>2021-08-23T08:52:26Z</time>
      </trkpt>
      <trkpt lat="45.68317" lon="5.73873">
        <ele>407.6</ele>
        <time>2021-08-23T08:52:27Z</time>
      </trkpt>
      <trkpt lat="45.68314" lon="5.73869">
        <ele>407.7</ele>
        <time>2021-08-23T08:52:29Z</time>
      </trkpt>
      <trkpt lat="45.68314" lon="5.73867">
        <ele>407.8</ele>
        <time>2021-08-23T08:52:30Z</time>
      </trkpt>
      <trkpt lat="45.68314" lon="5.73865">
        <ele>407.9</ele>
        <time>2021-08-23T08:52:31Z</time>
      </trkpt>
      <trkpt lat="45.68314" lon="5.73862">
        <ele>408</ele>
        <time>2021-08-23T08:52:32Z</time>
      </trkpt>
      <trkpt lat="45.68315" lon="5.73855">
        <ele>408.2</ele>
        <time>2021-08-23T08:52:34Z</time>
      </trkpt>
      <trkpt lat="45.68315" lon="5.73851">
        <ele>408.3</ele>
        <time>2021-08-23T08:52:35Z</time>
      </trkpt>
      <trkpt lat="45.68316" lon="5.73842">
        <ele>408.4</ele>
        <time>2021-08-23T08:52:37Z</time>
      </trkpt>
      <trkpt lat="45.68315" lon="5.73837">
        <ele>408.5</ele>
        <time>2021-08-23T08:52:38Z</time>
      </trkpt>
      <trkpt lat="45.68316" lon="5.73827">
        <ele>408.6</ele>
        <time>2021-08-23T08:52:40Z</time>
      </trkpt>
      <trkpt lat="45.68317" lon="5.73817">
        <ele>408.7</ele>
        <time>2021-08-23T08:52:41Z</time>
      </trkpt>
      <trkpt lat="45.68318" lon="5.7381">
        <ele>408.8</ele>
        <time>2021-08-23T08:52:42Z</time>
      </trkpt>
      <trkpt lat="45.6832" lon="5.738">
        <ele>408.9</ele>
        <time>2021-08-23T08:52:44Z</time>
      </trkpt>
      <trkpt lat="45.6832" lon="5.73794">
        <ele>409</ele>
        <time>2021-08-23T08:52:45Z</time>
      </trkpt>
      <trkpt lat="45.6832" lon="5.73788">
        <ele>409.1</ele>
        <time>2021-08-23T08:52:47Z</time>
      </trkpt>
      <trkpt lat="45.6832" lon="5.73786">
        <ele>409.2</ele>
        <time>2021-08-23T08:52:48Z</time>
      </trkpt>
      <trkpt lat="45.68321" lon="5.73784">
        <ele>409.3</ele>
        <time>2021-08-23T08:52:49Z</time>
      </trkpt>
      <trkpt lat="45.68321" lon="5.73782">
        <ele>409.3</ele>
        <time>2021-08-23T08:52:50Z</time>
      </trkpt>
      <trkpt lat="45.68323" lon="5.73779">
        <ele>409.5</ele>
        <time>2021-08-23T08:52:52Z</time>
      </trkpt>
      <trkpt lat="45.68324" lon="5.7378">
        <ele>409.6</ele>
        <time>2021-08-23T08:52:53Z</time>
      </trkpt>
      <trkpt lat="45.68325" lon="5.73779">
        <ele>409.7</ele>
        <time>2021-08-23T08:52:55Z</time>
      </trkpt>
      <trkpt lat="45.68326" lon="5.73778">
        <ele>409.8</ele>
        <time>2021-08-23T08:52:56Z</time>
      </trkpt>
      <trkpt lat="45.68326" lon="5.73777">
        <ele>409.8</ele>
        <time>2021-08-23T08:52:58Z</time>
      </trkpt>
      <trkpt lat="45.68326" lon="5.73777">
        <ele>409.8</ele>
        <time>2021-08-23T08:52:59Z</time>
      </trkpt>
      <trkpt lat="45.68326" lon="5.73776">
        <ele>409.9</ele>
        <time>2021-08-23T08:53:00Z</time>
      </trkpt>
      <trkpt lat="45.68325" lon="5.73774">
        <ele>410</ele>
        <time>2021-08-23T08:53:02Z</time>
      </trkpt>
      <trkpt lat="45.68325" lon="5.73773">
        <ele>410.1</ele>
        <time>2021-08-23T08:53:03Z</time>
      </trkpt>
      <trkpt lat="45.68325" lon="5.73771">
        <ele>410.2</ele>
        <time>2021-08-23T08:53:05Z</time>
      </trkpt>
      <trkpt lat="45.68326" lon="5.73769">
        <ele>410.4</ele>
        <time>2021-08-23T08:53:06Z</time>
      </trkpt>
      <trkpt lat="45.68328" lon="5.73746">
        <ele>412.3</ele>
        <time>2021-08-23T08:53:21Z</time>
      </trkpt>
      <trkpt lat="45.68328" lon="5.73742">
        <ele>412.5</ele>
        <time>2021-08-23T08:53:23Z</time>
      </trkpt>
      <trkpt lat="45.68328" lon="5.7374">
        <ele>412.7</ele>
        <time>2021-08-23T08:53:24Z</time>
      </trkpt>
      <trkpt lat="45.68328" lon="5.73741">
        <ele>412.7</ele>
        <time>2021-08-23T08:53:25Z</time>
      </trkpt>
      <trkpt lat="45.68327" lon="5.73741">
        <ele>412.7</ele>
        <time>2021-08-23T08:53:26Z</time>
      </trkpt>
      <trkpt lat="45.68326" lon="5.73739">
        <ele>412.8</ele>
        <time>2021-08-23T08:53:28Z</time>
      </trkpt>
      <trkpt lat="45.68326" lon="5.73739">
        <ele>412.9</ele>
        <time>2021-08-23T08:53:30Z</time>
      </trkpt>
      <trkpt lat="45.68325" lon="5.7374">
        <ele>413</ele>
        <time>2021-08-23T08:53:32Z</time>
      </trkpt>
      <trkpt lat="45.68324" lon="5.73739">
        <ele>413</ele>
        <time>2021-08-23T08:53:34Z</time>
      </trkpt>
      <trkpt lat="45.68323" lon="5.73739">
        <ele>413.1</ele>
        <time>2021-08-23T08:53:35Z</time>
      </trkpt>
      <trkpt lat="45.68322" lon="5.73738">
        <ele>413.2</ele>
        <time>2021-08-23T08:53:36Z</time>
      </trkpt>
      <trkpt lat="45.68322" lon="5.73737">
        <ele>413.2</ele>
        <time>2021-08-23T08:53:38Z</time>
      </trkpt>
      <trkpt lat="45.68321" lon="5.73735">
        <ele>413.4</ele>
        <time>2021-08-23T08:53:40Z</time>
      </trkpt>
      <trkpt lat="45.6832" lon="5.73733">
        <ele>413.4</ele>
        <time>2021-08-23T08:53:41Z</time>
      </trkpt>
      <trkpt lat="45.6832" lon="5.73732">
        <ele>413.5</ele>
        <time>2021-08-23T08:53:42Z</time>
      </trkpt>
      <trkpt lat="45.68319" lon="5.73731">
        <ele>413.5</ele>
        <time>2021-08-23T08:53:44Z</time>
      </trkpt>
      <trkpt lat="45.68318" lon="5.73729">
        <ele>413.6</ele>
        <time>2021-08-23T08:53:46Z</time>
      </trkpt>
      <trkpt lat="45.68317" lon="5.73729">
        <ele>413.7</ele>
        <time>2021-08-23T08:53:47Z</time>
      </trkpt>
      <trkpt lat="45.68316" lon="5.73727">
        <ele>413.7</ele>
        <time>2021-08-23T08:53:48Z</time>
      </trkpt>
      <trkpt lat="45.68315" lon="5.73726">
        <ele>413.8</ele>
        <time>2021-08-23T08:53:50Z</time>
      </trkpt>
      <trkpt lat="45.68315" lon="5.73725">
        <ele>413.8</ele>
        <time>2021-08-23T08:53:51Z</time>
      </trkpt>
      <trkpt lat="45.68315" lon="5.73723">
        <ele>413.9</ele>
        <time>2021-08-23T08:53:52Z</time>
      </trkpt>
      <trkpt lat="45.68316" lon="5.73722">
        <ele>413.9</ele>
        <time>2021-08-23T08:53:54Z</time>
      </trkpt>
      <trkpt lat="45.68316" lon="5.7372">
        <ele>414</ele>
        <time>2021-08-23T08:53:55Z</time>
      </trkpt>
      <trkpt lat="45.68316" lon="5.73719">
        <ele>414</ele>
        <time>2021-08-23T08:53:56Z</time>
      </trkpt>
      <trkpt lat="45.68316" lon="5.73718">
        <ele>414.1</ele>
        <time>2021-08-23T08:53:57Z</time>
      </trkpt>
      <trkpt lat="45.68316" lon="5.73716">
        <ele>414.2</ele>
        <time>2021-08-23T08:53:58Z</time>
      </trkpt>
      <trkpt lat="45.68316" lon="5.73714">
        <ele>414.2</ele>
        <time>2021-08-23T08:54:00Z</time>
      </trkpt>
      <trkpt lat="45.68316" lon="5.73712">
        <ele>414.3</ele>
        <time>2021-08-23T08:54:01Z</time>
      </trkpt>
      <trkpt lat="45.68316" lon="5.73709">
        <ele>414.4</ele>
        <time>2021-08-23T08:54:02Z</time>
      </trkpt>
      <trkpt lat="45.68317" lon="5.73705">
        <ele>414.6</ele>
        <time>2021-08-23T08:54:03Z</time>
      </trkpt>
      <trkpt lat="45.68318" lon="5.73704">
        <ele>414.7</ele>
        <time>2021-08-23T08:54:04Z</time>
      </trkpt>
      <trkpt lat="45.68319" lon="5.737">
        <ele>414.9</ele>
        <time>2021-08-23T08:54:06Z</time>
      </trkpt>
      <trkpt lat="45.68319" lon="5.73699">
        <ele>414.9</ele>
        <time>2021-08-23T08:54:07Z</time>
      </trkpt>
      <trkpt lat="45.6832" lon="5.73697">
        <ele>415</ele>
        <time>2021-08-23T08:54:08Z</time>
      </trkpt>
      <trkpt lat="45.68321" lon="5.73695">
        <ele>415.1</ele>
        <time>2021-08-23T08:54:09Z</time>
      </trkpt>
      <trkpt lat="45.68322" lon="5.73693">
        <ele>415.3</ele>
        <time>2021-08-23T08:54:10Z</time>
      </trkpt>
      <trkpt lat="45.68322" lon="5.73691">
        <ele>415.4</ele>
        <time>2021-08-23T08:54:11Z</time>
      </trkpt>
      <trkpt lat="45.68323" lon="5.73689">
        <ele>415.5</ele>
        <time>2021-08-23T08:54:13Z</time>
      </trkpt>
      <trkpt lat="45.68323" lon="5.73687">
        <ele>415.6</ele>
        <time>2021-08-23T08:54:14Z</time>
      </trkpt>
      <trkpt lat="45.68324" lon="5.73686">
        <ele>415.7</ele>
        <time>2021-08-23T08:54:15Z</time>
      </trkpt>
      <trkpt lat="45.68323" lon="5.73685">
        <ele>415.8</ele>
        <time>2021-08-23T08:54:17Z</time>
      </trkpt>
      <trkpt lat="45.68322" lon="5.73685">
        <ele>415.9</ele>
        <time>2021-08-23T08:54:18Z</time>
      </trkpt>
      <trkpt lat="45.6832" lon="5.73685">
        <ele>416</ele>
        <time>2021-08-23T08:54:19Z</time>
      </trkpt>
      <trkpt lat="45.68319" lon="5.73685">
        <ele>416.1</ele>
        <time>2021-08-23T08:54:21Z</time>
      </trkpt>
      <trkpt lat="45.68318" lon="5.73685">
        <ele>416.2</ele>
        <time>2021-08-23T08:54:22Z</time>
      </trkpt>
      <trkpt lat="45.68317" lon="5.73685">
        <ele>416.3</ele>
        <time>2021-08-23T08:54:23Z</time>
      </trkpt>
      <trkpt lat="45.68317" lon="5.73686">
        <ele>416.3</ele>
        <time>2021-08-23T08:54:24Z</time>
      </trkpt>
      <trkpt lat="45.68316" lon="5.73686">
        <ele>416.4</ele>
        <time>2021-08-23T08:54:25Z</time>
      </trkpt>
      <trkpt lat="45.68315" lon="5.73687">
        <ele>416.5</ele>
        <time>2021-08-23T08:54:27Z</time>
      </trkpt>
      <trkpt lat="45.68315" lon="5.73687">
        <ele>416.5</ele>
        <time>2021-08-23T08:54:28Z</time>
      </trkpt>
      <trkpt lat="45.68316" lon="5.73685">
        <ele>416.7</ele>
        <time>2021-08-23T08:54:29Z</time>
      </trkpt>
      <trkpt lat="45.68317" lon="5.73684">
        <ele>416.9</ele>
        <time>2021-08-23T08:54:30Z</time>
      </trkpt>
      <trkpt lat="45.68318" lon="5.73682">
        <ele>417</ele>
        <time>2021-08-23T08:54:31Z</time>
      </trkpt>
      <trkpt lat="45.6832" lon="5.73681">
        <ele>417.2</ele>
        <time>2021-08-23T08:54:33Z</time>
      </trkpt>
      <trkpt lat="45.6832" lon="5.73678">
        <ele>417.3</ele>
        <time>2021-08-23T08:54:34Z</time>
      </trkpt>
      <trkpt lat="45.68322" lon="5.73675">
        <ele>417.6</ele>
        <time>2021-08-23T08:54:35Z</time>
      </trkpt>
      <trkpt lat="45.68323" lon="5.7367">
        <ele>417.9</ele>
        <time>2021-08-23T08:54:36Z</time>
      </trkpt>
      <trkpt lat="45.68323" lon="5.73665">
        <ele>418.2</ele>
        <time>2021-08-23T08:54:38Z</time>
      </trkpt>
      <trkpt lat="45.68323" lon="5.73664">
        <ele>418.3</ele>
        <time>2021-08-23T08:54:39Z</time>
      </trkpt>
      <trkpt lat="45.68324" lon="5.7366">
        <ele>418.6</ele>
        <time>2021-08-23T08:54:40Z</time>
      </trkpt>
      <trkpt lat="45.68324" lon="5.73658">
        <ele>418.7</ele>
        <time>2021-08-23T08:54:41Z</time>
      </trkpt>
      <trkpt lat="45.68324" lon="5.73652">
        <ele>419.1</ele>
        <time>2021-08-23T08:54:43Z</time>
      </trkpt>
      <trkpt lat="45.68324" lon="5.7365">
        <ele>419.3</ele>
        <time>2021-08-23T08:54:44Z</time>
      </trkpt>
      <trkpt lat="45.68324" lon="5.73648">
        <ele>419.4</ele>
        <time>2021-08-23T08:54:45Z</time>
      </trkpt>
      <trkpt lat="45.68324" lon="5.73643">
        <ele>419.7</ele>
        <time>2021-08-23T08:54:46Z</time>
      </trkpt>
      <trkpt lat="45.68326" lon="5.73638">
        <ele>420.1</ele>
        <time>2021-08-23T08:54:48Z</time>
      </trkpt>
      <trkpt lat="45.68326" lon="5.73635">
        <ele>420.3</ele>
        <time>2021-08-23T08:54:49Z</time>
      </trkpt>
      <trkpt lat="45.68327" lon="5.73631">
        <ele>420.6</ele>
        <time>2021-08-23T08:54:50Z</time>
      </trkpt>
      <trkpt lat="45.68328" lon="5.73626">
        <ele>421</ele>
        <time>2021-08-23T08:54:52Z</time>
      </trkpt>
      <trkpt lat="45.68328" lon="5.73625">
        <ele>421.1</ele>
        <time>2021-08-23T08:54:53Z</time>
      </trkpt>
      <trkpt lat="45.68329" lon="5.73623">
        <ele>421.3</ele>
        <time>2021-08-23T08:54:54Z</time>
      </trkpt>
      <trkpt lat="45.6833" lon="5.73621">
        <ele>421.4</ele>
        <time>2021-08-23T08:54:55Z</time>
      </trkpt>
      <trkpt lat="45.6833" lon="5.73618">
        <ele>421.7</ele>
        <time>2021-08-23T08:54:57Z</time>
      </trkpt>
      <trkpt lat="45.6833" lon="5.73617">
        <ele>421.8</ele>
        <time>2021-08-23T08:54:58Z</time>
      </trkpt>
      <trkpt lat="45.68331" lon="5.73615">
        <ele>421.9</ele>
        <time>2021-08-23T08:54:59Z</time>
      </trkpt>
      <trkpt lat="45.68331" lon="5.73613">
        <ele>422</ele>
        <time>2021-08-23T08:55:00Z</time>
      </trkpt>
      <trkpt lat="45.6833" lon="5.7361">
        <ele>422.3</ele>
        <time>2021-08-23T08:55:02Z</time>
      </trkpt>
      <trkpt lat="45.6833" lon="5.73608">
        <ele>422.4</ele>
        <time>2021-08-23T08:55:03Z</time>
      </trkpt>
      <trkpt lat="45.68329" lon="5.73607">
        <ele>422.5</ele>
        <time>2021-08-23T08:55:04Z</time>
      </trkpt>
      <trkpt lat="45.68328" lon="5.73606">
        <ele>422.7</ele>
        <time>2021-08-23T08:55:06Z</time>
      </trkpt>
      <trkpt lat="45.68327" lon="5.73605">
        <ele>422.9</ele>
        <time>2021-08-23T08:55:07Z</time>
      </trkpt>
      <trkpt lat="45.68325" lon="5.73604">
        <ele>423</ele>
        <time>2021-08-23T08:55:08Z</time>
      </trkpt>
      <trkpt lat="45.68323" lon="5.73603">
        <ele>423.3</ele>
        <time>2021-08-23T08:55:10Z</time>
      </trkpt>
      <trkpt lat="45.68322" lon="5.73603">
        <ele>423.4</ele>
        <time>2021-08-23T08:55:11Z</time>
      </trkpt>
      <trkpt lat="45.6832" lon="5.73602">
        <ele>423.6</ele>
        <time>2021-08-23T08:55:12Z</time>
      </trkpt>
      <trkpt lat="45.6831" lon="5.73522">
        <ele>429.8</ele>
        <time>2021-08-23T08:56:30Z</time>
      </trkpt>
      <trkpt lat="45.6831" lon="5.73519">
        <ele>430</ele>
        <time>2021-08-23T08:56:31Z</time>
      </trkpt>
      <trkpt lat="45.6831" lon="5.73517">
        <ele>430.2</ele>
        <time>2021-08-23T08:56:33Z</time>
      </trkpt>
      <trkpt lat="45.6831" lon="5.73516">
        <ele>430.3</ele>
        <time>2021-08-23T08:56:34Z</time>
      </trkpt>
      <trkpt lat="45.6831" lon="5.73514">
        <ele>430.4</ele>
        <time>2021-08-23T08:56:35Z</time>
      </trkpt>
      <trkpt lat="45.68309" lon="5.73512">
        <ele>430.6</ele>
        <time>2021-08-23T08:56:36Z</time>
      </trkpt>
      <trkpt lat="45.68309" lon="5.73508">
        <ele>430.9</ele>
        <time>2021-08-23T08:56:38Z</time>
      </trkpt>
      <trkpt lat="45.68308" lon="5.73507">
        <ele>431</ele>
        <time>2021-08-23T08:56:39Z</time>
      </trkpt>
      <trkpt lat="45.68308" lon="5.73504">
        <ele>431.2</ele>
        <time>2021-08-23T08:56:40Z</time>
      </trkpt>
      <trkpt lat="45.68308" lon="5.73501">
        <ele>431.5</ele>
        <time>2021-08-23T08:56:42Z</time>
      </trkpt>
      <trkpt lat="45.68308" lon="5.73498">
        <ele>431.7</ele>
        <time>2021-08-23T08:56:43Z</time>
      </trkpt>
      <trkpt lat="45.68308" lon="5.73497">
        <ele>431.8</ele>
        <time>2021-08-23T08:56:44Z</time>
      </trkpt>
      <trkpt lat="45.68307" lon="5.73496">
        <ele>431.9</ele>
        <time>2021-08-23T08:56:46Z</time>
      </trkpt>
      <trkpt lat="45.68306" lon="5.73494">
        <ele>432</ele>
        <time>2021-08-23T08:56:47Z</time>
      </trkpt>
      <trkpt lat="45.68305" lon="5.73494">
        <ele>432.1</ele>
        <time>2021-08-23T08:56:48Z</time>
      </trkpt>
      <trkpt lat="45.68302" lon="5.73492">
        <ele>432.4</ele>
        <time>2021-08-23T08:56:50Z</time>
      </trkpt>
      <trkpt lat="45.68301" lon="5.73492">
        <ele>432.5</ele>
        <time>2021-08-23T08:56:51Z</time>
      </trkpt>
      <trkpt lat="45.68298" lon="5.73491">
        <ele>432.8</ele>
        <time>2021-08-23T08:56:52Z</time>
      </trkpt>
      <trkpt lat="45.68296" lon="5.73492">
        <ele>432.9</ele>
        <time>2021-08-23T08:56:53Z</time>
      </trkpt>
      <trkpt lat="45.68295" lon="5.73492">
        <ele>433</ele>
        <time>2021-08-23T08:56:55Z</time>
      </trkpt>
      <trkpt lat="45.68293" lon="5.73492">
        <ele>433.1</ele>
        <time>2021-08-23T08:56:56Z</time>
      </trkpt>
      <trkpt lat="45.68292" lon="5.73492">
        <ele>433.3</ele>
        <time>2021-08-23T08:56:57Z</time>
      </trkpt>
      <trkpt lat="45.6829" lon="5.7349">
        <ele>433.4</ele>
        <time>2021-08-23T08:56:59Z</time>
      </trkpt>
      <trkpt lat="45.68289" lon="5.7349">
        <ele>433.5</ele>
        <time>2021-08-23T08:57:00Z</time>
      </trkpt>
      <trkpt lat="45.68288" lon="5.73489">
        <ele>433.6</ele>
        <time>2021-08-23T08:57:01Z</time>
      </trkpt>
      <trkpt lat="45.68288" lon="5.73488">
        <ele>433.6</ele>
        <time>2021-08-23T08:57:02Z</time>
      </trkpt>
      <trkpt lat="45.68288" lon="5.73487">
        <ele>433.7</ele>
        <time>2021-08-23T08:57:04Z</time>
      </trkpt>
      <trkpt lat="45.68287" lon="5.73486">
        <ele>433.7</ele>
        <time>2021-08-23T08:57:05Z</time>
      </trkpt>
      <trkpt lat="45.68287" lon="5.73485">
        <ele>433.8</ele>
        <time>2021-08-23T08:57:06Z</time>
      </trkpt>
      <trkpt lat="45.68287" lon="5.73484">
        <ele>433.8</ele>
        <time>2021-08-23T08:57:07Z</time>
      </trkpt>
      <trkpt lat="45.68287" lon="5.73483">
        <ele>433.9</ele>
        <time>2021-08-23T08:57:08Z</time>
      </trkpt>
      <trkpt lat="45.68287" lon="5.73483">
        <ele>433.9</ele>
        <time>2021-08-23T08:57:10Z</time>
      </trkpt>
      <trkpt lat="45.68288" lon="5.73482">
        <ele>433.9</ele>
        <time>2021-08-23T08:57:11Z</time>
      </trkpt>
      <trkpt lat="45.68288" lon="5.73482">
        <ele>434</ele>
        <time>2021-08-23T08:57:12Z</time>
      </trkpt>
      <trkpt lat="45.68288" lon="5.73481">
        <ele>434</ele>
        <time>2021-08-23T08:57:13Z</time>
      </trkpt>
      <trkpt lat="45.68288" lon="5.7348">
        <ele>434.1</ele>
        <time>2021-08-23T08:57:15Z</time>
      </trkpt>
      <trkpt lat="45.68288" lon="5.73479">
        <ele>434.1</ele>
        <time>2021-08-23T08:57:16Z</time>
      </trkpt>
      <trkpt lat="45.68288" lon="5.73477">
        <ele>434.2</ele>
        <time>2021-08-23T08:57:17Z</time>
      </trkpt>
      <trkpt lat="45.68288" lon="5.73475">
        <ele>434.3</ele>
        <time>2021-08-23T08:57:19Z</time>
      </trkpt>
      <trkpt lat="45.68288" lon="5.73473">
        <ele>434.4</ele>
        <time>2021-08-23T08:57:20Z</time>
      </trkpt>
      <trkpt lat="45.68288" lon="5.73471">
        <ele>434.5</ele>
        <time>2021-08-23T08:57:21Z</time>
      </trkpt>
      <trkpt lat="45.68287" lon="5.73464">
        <ele>434.8</ele>
        <time>2021-08-23T08:57:23Z</time>
      </trkpt>
      <trkpt lat="45.68287" lon="5.73459">
        <ele>435</ele>
        <time>2021-08-23T08:57:25Z</time>
      </trkpt>
      <trkpt lat="45.68287" lon="5.73456">
        <ele>435.1</ele>
        <time>2021-08-23T08:57:26Z</time>
      </trkpt>
      <trkpt lat="45.68286" lon="5.73452">
        <ele>435.3</ele>
        <time>2021-08-23T08:57:28Z</time>
      </trkpt>
      <trkpt lat="45.68286" lon="5.73448">
        <ele>435.4</ele>
        <time>2021-08-23T08:57:29Z</time>
      </trkpt>
      <trkpt lat="45.68286" lon="5.73447">
        <ele>435.5</ele>
        <time>2021-08-23T08:57:30Z</time>
      </trkpt>
      <trkpt lat="45.68286" lon="5.73443">
        <ele>435.7</ele>
        <time>2021-08-23T08:57:32Z</time>
      </trkpt>
      <trkpt lat="45.68286" lon="5.73442">
        <ele>435.7</ele>
        <time>2021-08-23T08:57:33Z</time>
      </trkpt>
      <trkpt lat="45.68285" lon="5.73437">
        <ele>435.9</ele>
        <time>2021-08-23T08:57:34Z</time>
      </trkpt>
      <trkpt lat="45.68284" lon="5.73436">
        <ele>436</ele>
        <time>2021-08-23T08:57:35Z</time>
      </trkpt>
      <trkpt lat="45.68283" lon="5.73431">
        <ele>436.2</ele>
        <time>2021-08-23T08:57:37Z</time>
      </trkpt>
      <trkpt lat="45.68283" lon="5.73431">
        <ele>436.3</ele>
        <time>2021-08-23T08:57:38Z</time>
      </trkpt>
      <trkpt lat="45.68282" lon="5.73426">
        <ele>436.5</ele>
        <time>2021-08-23T08:57:40Z</time>
      </trkpt>
      <trkpt lat="45.68282" lon="5.73425">
        <ele>436.5</ele>
        <time>2021-08-23T08:57:41Z</time>
      </trkpt>
      <trkpt lat="45.68282" lon="5.73424">
        <ele>436.6</ele>
        <time>2021-08-23T08:57:43Z</time>
      </trkpt>
      <trkpt lat="45.68281" lon="5.73423">
        <ele>436.7</ele>
        <time>2021-08-23T08:57:44Z</time>
      </trkpt>
      <trkpt lat="45.6828" lon="5.73422">
        <ele>436.7</ele>
        <time>2021-08-23T08:57:45Z</time>
      </trkpt>
      <trkpt lat="45.68279" lon="5.73421">
        <ele>436.8</ele>
        <time>2021-08-23T08:57:46Z</time>
      </trkpt>
      <trkpt lat="45.68279" lon="5.73421">
        <ele>436.9</ele>
        <time>2021-08-23T08:57:47Z</time>
      </trkpt>
      <trkpt lat="45.68278" lon="5.73422">
        <ele>436.9</ele>
        <time>2021-08-23T08:57:49Z</time>
      </trkpt>
      <trkpt lat="45.68278" lon="5.73422">
        <ele>436.9</ele>
        <time>2021-08-23T08:57:50Z</time>
      </trkpt>
      <trkpt lat="45.68278" lon="5.73422">
        <ele>436.9</ele>
        <time>2021-08-23T08:57:51Z</time>
      </trkpt>
      <trkpt lat="45.68277" lon="5.73422">
        <ele>437</ele>
        <time>2021-08-23T08:57:52Z</time>
      </trkpt>
      <trkpt lat="45.68277" lon="5.73422">
        <ele>437</ele>
        <time>2021-08-23T08:57:53Z</time>
      </trkpt>
      <trkpt lat="45.68277" lon="5.73422">
        <ele>437</ele>
        <time>2021-08-23T08:57:54Z</time>
      </trkpt>
      <trkpt lat="45.68277" lon="5.73421">
        <ele>437.1</ele>
        <time>2021-08-23T08:57:55Z</time>
      </trkpt>
      <trkpt lat="45.68276" lon="5.7342">
        <ele>437.1</ele>
        <time>2021-08-23T08:57:57Z</time>
      </trkpt>
      <trkpt lat="45.68276" lon="5.73418">
        <ele>437.2</ele>
        <time>2021-08-23T08:57:58Z</time>
      </trkpt>
      <trkpt lat="45.68275" lon="5.73416">
        <ele>437.3</ele>
        <time>2021-08-23T08:58:00Z</time>
      </trkpt>
      <trkpt lat="45.68275" lon="5.73414">
        <ele>437.4</ele>
        <time>2021-08-23T08:58:01Z</time>
      </trkpt>
      <trkpt lat="45.68274" lon="5.73402">
        <ele>438</ele>
        <time>2021-08-23T08:58:07Z</time>
      </trkpt>
      <trkpt lat="45.68274" lon="5.73399">
        <ele>438.1</ele>
        <time>2021-08-23T08:58:08Z</time>
      </trkpt>
      <trkpt lat="45.68274" lon="5.73394">
        <ele>438.3</ele>
        <time>2021-08-23T08:58:10Z</time>
      </trkpt>
      <trkpt lat="45.68274" lon="5.73391">
        <ele>438.5</ele>
        <time>2021-08-23T08:58:11Z</time>
      </trkpt>
      <trkpt lat="45.68273" lon="5.7339">
        <ele>438.5</ele>
        <time>2021-08-23T08:58:12Z</time>
      </trkpt>
      <trkpt lat="45.68273" lon="5.73389">
        <ele>438.6</ele>
        <time>2021-08-23T08:58:13Z</time>
      </trkpt>
      <trkpt lat="45.68272" lon="5.73388">
        <ele>438.6</ele>
        <time>2021-08-23T08:58:15Z</time>
      </trkpt>
      <trkpt lat="45.68271" lon="5.73387">
        <ele>438.7</ele>
        <time>2021-08-23T08:58:16Z</time>
      </trkpt>
      <trkpt lat="45.6827" lon="5.73385">
        <ele>438.8</ele>
        <time>2021-08-23T08:58:18Z</time>
      </trkpt>
      <trkpt lat="45.68269" lon="5.73383">
        <ele>438.9</ele>
        <time>2021-08-23T08:58:19Z</time>
      </trkpt>
      <trkpt lat="45.68269" lon="5.73382">
        <ele>439</ele>
        <time>2021-08-23T08:58:20Z</time>
      </trkpt>
      <trkpt lat="45.68268" lon="5.73382">
        <ele>439.1</ele>
        <time>2021-08-23T08:58:21Z</time>
      </trkpt>
      <trkpt lat="45.68267" lon="5.7338">
        <ele>439.2</ele>
        <time>2021-08-23T08:58:23Z</time>
      </trkpt>
      <trkpt lat="45.68265" lon="5.73379">
        <ele>439.3</ele>
        <time>2021-08-23T08:58:24Z</time>
      </trkpt>
      <trkpt lat="45.68265" lon="5.73378">
        <ele>439.3</ele>
        <time>2021-08-23T08:58:26Z</time>
      </trkpt>
      <trkpt lat="45.68264" lon="5.73377">
        <ele>439.4</ele>
        <time>2021-08-23T08:58:27Z</time>
      </trkpt>
      <trkpt lat="45.68263" lon="5.73376">
        <ele>439.5</ele>
        <time>2021-08-23T08:58:28Z</time>
      </trkpt>
      <trkpt lat="45.68263" lon="5.73374">
        <ele>439.6</ele>
        <time>2021-08-23T08:58:29Z</time>
      </trkpt>
      <trkpt lat="45.68262" lon="5.73372">
        <ele>439.7</ele>
        <time>2021-08-23T08:58:31Z</time>
      </trkpt>
      <trkpt lat="45.68242" lon="5.73371">
        <ele>440.2</ele>
        <time>2021-08-23T08:58:46Z</time>
      </trkpt>
      <trkpt lat="45.68239" lon="5.73372">
        <ele>440.1</ele>
        <time>2021-08-23T08:58:47Z</time>
      </trkpt>
      <trkpt lat="45.68235" lon="5.73372">
        <ele>440</ele>
        <time>2021-08-23T08:58:48Z</time>
      </trkpt>
      <trkpt lat="45.68229" lon="5.7337">
        <ele>440.2</ele>
        <time>2021-08-23T08:58:50Z</time>
      </trkpt>
      <trkpt lat="45.68227" lon="5.7337">
        <ele>440.3</ele>
        <time>2021-08-23T08:58:51Z</time>
      </trkpt>
      <trkpt lat="45.68223" lon="5.73371">
        <ele>440.6</ele>
        <time>2021-08-23T08:58:53Z</time>
      </trkpt>
      <trkpt lat="45.68222" lon="5.7337">
        <ele>440.6</ele>
        <time>2021-08-23T08:58:54Z</time>
      </trkpt>
      <trkpt lat="45.68223" lon="5.7337">
        <ele>440.6</ele>
        <time>2021-08-23T08:58:55Z</time>
      </trkpt>
      <trkpt lat="45.68223" lon="5.7337">
        <ele>440.7</ele>
        <time>2021-08-23T08:58:56Z</time>
      </trkpt>
      <trkpt lat="45.68222" lon="5.73369">
        <ele>440.7</ele>
        <time>2021-08-23T08:58:57Z</time>
      </trkpt>
      <trkpt lat="45.68221" lon="5.73368">
        <ele>440.9</ele>
        <time>2021-08-23T08:58:59Z</time>
      </trkpt>
      <trkpt lat="45.68186" lon="5.73333">
        <ele>447.6</ele>
        <time>2021-08-23T08:59:33Z</time>
      </trkpt>
      <trkpt lat="45.68185" lon="5.73331">
        <ele>447.8</ele>
        <time>2021-08-23T08:59:34Z</time>
      </trkpt>
      <trkpt lat="45.68183" lon="5.73327">
        <ele>448.2</ele>
        <time>2021-08-23T08:59:36Z</time>
      </trkpt>
      <trkpt lat="45.6818" lon="5.73324">
        <ele>448.6</ele>
        <time>2021-08-23T08:59:37Z</time>
      </trkpt>
      <trkpt lat="45.6818" lon="5.73324">
        <ele>448.7</ele>
        <time>2021-08-23T08:59:38Z</time>
      </trkpt>
      <trkpt lat="45.68179" lon="5.7332">
        <ele>449</ele>
        <time>2021-08-23T08:59:40Z</time>
      </trkpt>
      <trkpt lat="45.68179" lon="5.73319">
        <ele>449.1</ele>
        <time>2021-08-23T08:59:41Z</time>
      </trkpt>
      <trkpt lat="45.68177" lon="5.73317">
        <ele>449.4</ele>
        <time>2021-08-23T08:59:42Z</time>
      </trkpt>
      <trkpt lat="45.68175" lon="5.73316">
        <ele>449.6</ele>
        <time>2021-08-23T08:59:44Z</time>
      </trkpt>
      <trkpt lat="45.68175" lon="5.73316">
        <ele>449.6</ele>
        <time>2021-08-23T08:59:45Z</time>
      </trkpt>
      <trkpt lat="45.68174" lon="5.73316">
        <ele>449.7</ele>
        <time>2021-08-23T08:59:47Z</time>
      </trkpt>
      <trkpt lat="45.68143" lon="5.73304">
        <ele>454.2</ele>
        <time>2021-08-23T09:00:24Z</time>
      </trkpt>
      <trkpt lat="45.6814" lon="5.73303">
        <ele>454.6</ele>
        <time>2021-08-23T09:00:25Z</time>
      </trkpt>
      <trkpt lat="45.68138" lon="5.73302">
        <ele>454.9</ele>
        <time>2021-08-23T09:00:27Z</time>
      </trkpt>
      <trkpt lat="45.68137" lon="5.73301">
        <ele>455.1</ele>
        <time>2021-08-23T09:00:28Z</time>
      </trkpt>
      <trkpt lat="45.68135" lon="5.73301">
        <ele>455.3</ele>
        <time>2021-08-23T09:00:29Z</time>
      </trkpt>
      <trkpt lat="45.68133" lon="5.73301">
        <ele>455.6</ele>
        <time>2021-08-23T09:00:31Z</time>
      </trkpt>
      <trkpt lat="45.68133" lon="5.733">
        <ele>455.6</ele>
        <time>2021-08-23T09:00:32Z</time>
      </trkpt>
      <trkpt lat="45.68132" lon="5.733">
        <ele>455.7</ele>
        <time>2021-08-23T09:00:34Z</time>
      </trkpt>
      <trkpt lat="45.68131" lon="5.73301">
        <ele>455.8</ele>
        <time>2021-08-23T09:00:35Z</time>
      </trkpt>
      <trkpt lat="45.68129" lon="5.73301">
        <ele>456</ele>
        <time>2021-08-23T09:00:36Z</time>
      </trkpt>
      <trkpt lat="45.68127" lon="5.73301">
        <ele>456.2</ele>
        <time>2021-08-23T09:00:37Z</time>
      </trkpt>
      <trkpt lat="45.68126" lon="5.73302">
        <ele>456.3</ele>
        <time>2021-08-23T09:00:39Z</time>
      </trkpt>
      <trkpt lat="45.68126" lon="5.73302">
        <ele>456.4</ele>
        <time>2021-08-23T09:00:40Z</time>
      </trkpt>
      <trkpt lat="45.68124" lon="5.73301">
        <ele>456.6</ele>
        <time>2021-08-23T09:00:41Z</time>
      </trkpt>
      <trkpt lat="45.68123" lon="5.73301">
        <ele>456.7</ele>
        <time>2021-08-23T09:00:42Z</time>
      </trkpt>
      <trkpt lat="45.68122" lon="5.73301">
        <ele>456.9</ele>
        <time>2021-08-23T09:00:44Z</time>
      </trkpt>
      <trkpt lat="45.6812" lon="5.73301">
        <ele>457.1</ele>
        <time>2021-08-23T09:00:45Z</time>
      </trkpt>
      <trkpt lat="45.68119" lon="5.73301">
        <ele>457.2</ele>
        <time>2021-08-23T09:00:46Z</time>
      </trkpt>
      <trkpt lat="45.68118" lon="5.73301">
        <ele>457.4</ele>
        <time>2021-08-23T09:00:48Z</time>
      </trkpt>
      <trkpt lat="45.68116" lon="5.73301">
        <ele>457.6</ele>
        <time>2021-08-23T09:00:49Z</time>
      </trkpt>
      <trkpt lat="45.68114" lon="5.73302">
        <ele>457.8</ele>
        <time>2021-08-23T09:00:51Z</time>
      </trkpt>
      <trkpt lat="45.68113" lon="5.73303">
        <ele>458</ele>
        <time>2021-08-23T09:00:52Z</time>
      </trkpt>
      <trkpt lat="45.68111" lon="5.73303">
        <ele>458.2</ele>
        <time>2021-08-23T09:00:54Z</time>
      </trkpt>
      <trkpt lat="45.6811" lon="5.73303">
        <ele>458.3</ele>
        <time>2021-08-23T09:00:55Z</time>
      </trkpt>
      <trkpt lat="45.68109" lon="5.73303">
        <ele>458.4</ele>
        <time>2021-08-23T09:00:56Z</time>
      </trkpt>
      <trkpt lat="45.68108" lon="5.73303">
        <ele>458.5</ele>
        <time>2021-08-23T09:00:57Z</time>
      </trkpt>
      <trkpt lat="45.68106" lon="5.73304">
        <ele>458.7</ele>
        <time>2021-08-23T09:00:59Z</time>
      </trkpt>
      <trkpt lat="45.68105" lon="5.73304">
        <ele>458.9</ele>
        <time>2021-08-23T09:01:00Z</time>
      </trkpt>
      <trkpt lat="45.68103" lon="5.73305">
        <ele>459.1</ele>
        <time>2021-08-23T09:01:01Z</time>
      </trkpt>
      <trkpt lat="45.68102" lon="5.73306">
        <ele>459.1</ele>
        <time>2021-08-23T09:01:02Z</time>
      </trkpt>
      <trkpt lat="45.68101" lon="5.73306">
        <ele>459.2</ele>
        <time>2021-08-23T09:01:04Z</time>
      </trkpt>
      <trkpt lat="45.681" lon="5.73306">
        <ele>459.3</ele>
        <time>2021-08-23T09:01:05Z</time>
      </trkpt>
      <trkpt lat="45.68099" lon="5.73306">
        <ele>459.4</ele>
        <time>2021-08-23T09:01:06Z</time>
      </trkpt>
      <trkpt lat="45.68098" lon="5.73306">
        <ele>459.4</ele>
        <time>2021-08-23T09:01:08Z</time>
      </trkpt>
      <trkpt lat="45.68098" lon="5.73307">
        <ele>459.5</ele>
        <time>2021-08-23T09:01:09Z</time>
      </trkpt>
      <trkpt lat="45.68098" lon="5.73306">
        <ele>459.5</ele>
        <time>2021-08-23T09:01:10Z</time>
      </trkpt>
      <trkpt lat="45.68098" lon="5.73306">
        <ele>459.5</ele>
        <time>2021-08-23T09:01:11Z</time>
      </trkpt>
      <trkpt lat="45.68098" lon="5.73306">
        <ele>459.5</ele>
        <time>2021-08-23T09:01:13Z</time>
      </trkpt>
      <trkpt lat="45.68098" lon="5.73306">
        <ele>459.5</ele>
        <time>2021-08-23T09:01:14Z</time>
      </trkpt>
      <trkpt lat="45.68098" lon="5.73307">
        <ele>459.5</ele>
        <time>2021-08-23T09:01:15Z</time>
      </trkpt>
      <trkpt lat="45.68097" lon="5.73307">
        <ele>459.5</ele>
        <time>2021-08-23T09:01:17Z</time>
      </trkpt>
      <trkpt lat="45.68097" lon="5.73307">
        <ele>459.6</ele>
        <time>2021-08-23T09:01:18Z</time>
      </trkpt>
      <trkpt lat="45.68095" lon="5.73307">
        <ele>459.7</ele>
        <time>2021-08-23T09:01:20Z</time>
      </trkpt>
      <trkpt lat="45.68094" lon="5.73307">
        <ele>459.7</ele>
        <time>2021-08-23T09:01:21Z</time>
      </trkpt>
      <trkpt lat="45.68093" lon="5.73306">
        <ele>459.7</ele>
        <time>2021-08-23T09:01:22Z</time>
      </trkpt>
      <trkpt lat="45.6809" lon="5.73306">
        <ele>459.8</ele>
        <time>2021-08-23T09:01:24Z</time>
      </trkpt>
      <trkpt lat="45.68089" lon="5.73306">
        <ele>459.9</ele>
        <time>2021-08-23T09:01:26Z</time>
      </trkpt>
      <trkpt lat="45.68074" lon="5.73307">
        <ele>459.8</ele>
        <time>2021-08-23T09:01:30Z</time>
      </trkpt>
      <trkpt lat="45.68065" lon="5.73307">
        <ele>459.7</ele>
        <time>2021-08-23T09:01:31Z</time>
      </trkpt>
      <trkpt lat="45.68058" lon="5.73307">
        <ele>459.7</ele>
        <time>2021-08-23T09:01:32Z</time>
      </trkpt>
      <trkpt lat="45.6805" lon="5.73308">
        <ele>459.8</ele>
        <time>2021-08-23T09:01:34Z</time>
      </trkpt>
      <trkpt lat="45.68045" lon="5.73309">
        <ele>459.9</ele>
        <time>2021-08-23T09:01:35Z</time>
      </trkpt>
      <trkpt lat="45.68042" lon="5.73308">
        <ele>459.9</ele>
        <time>2021-08-23T09:01:36Z</time>
      </trkpt>
      <trkpt lat="45.68037" lon="5.73309">
        <ele>460</ele>
        <time>2021-08-23T09:01:37Z</time>
      </trkpt>
      <trkpt lat="45.68032" lon="5.73308">
        <ele>460.2</ele>
        <time>2021-08-23T09:01:38Z</time>
      </trkpt>
      <trkpt lat="45.68027" lon="5.73308">
        <ele>460.3</ele>
        <time>2021-08-23T09:01:40Z</time>
      </trkpt>
      <trkpt lat="45.68023" lon="5.73307">
        <ele>460.4</ele>
        <time>2021-08-23T09:01:41Z</time>
      </trkpt>
      <trkpt lat="45.68022" lon="5.73307">
        <ele>460.5</ele>
        <time>2021-08-23T09:01:42Z</time>
      </trkpt>
      <trkpt lat="45.68017" lon="5.73304">
        <ele>460.7</ele>
        <time>2021-08-23T09:01:44Z</time>
      </trkpt>
      <trkpt lat="45.68015" lon="5.73302">
        <ele>460.8</ele>
        <time>2021-08-23T09:01:45Z</time>
      </trkpt>
      <trkpt lat="45.68012" lon="5.73296">
        <ele>461</ele>
        <time>2021-08-23T09:01:47Z</time>
      </trkpt>
      <trkpt lat="45.6801" lon="5.73293">
        <ele>461</ele>
        <time>2021-08-23T09:01:48Z</time>
      </trkpt>
      <trkpt lat="45.68008" lon="5.73288">
        <ele>461.1</ele>
        <time>2021-08-23T09:01:50Z</time>
      </trkpt>
      <trkpt lat="45.68004" lon="5.73284">
        <ele>461.1</ele>
        <time>2021-08-23T09:01:52Z</time>
      </trkpt>
      <trkpt lat="45.68003" lon="5.73283">
        <ele>461.1</ele>
        <time>2021-08-23T09:01:53Z</time>
      </trkpt>
      <trkpt lat="45.68001" lon="5.73282">
        <ele>461.1</ele>
        <time>2021-08-23T09:01:54Z</time>
      </trkpt>
      <trkpt lat="45.68001" lon="5.73277">
        <ele>461</ele>
        <time>2021-08-23T09:01:55Z</time>
      </trkpt>
      <trkpt lat="45.67997" lon="5.73275">
        <ele>461</ele>
        <time>2021-08-23T09:01:56Z</time>
      </trkpt>
      <trkpt lat="45.67996" lon="5.73274">
        <ele>461</ele>
        <time>2021-08-23T09:01:57Z</time>
      </trkpt>
      <trkpt lat="45.67994" lon="5.73271">
        <ele>460.9</ele>
        <time>2021-08-23T09:01:58Z</time>
      </trkpt>
      <trkpt lat="45.67992" lon="5.73268">
        <ele>460.9</ele>
        <time>2021-08-23T09:01:59Z</time>
      </trkpt>
      <trkpt lat="45.67988" lon="5.73266">
        <ele>460.8</ele>
        <time>2021-08-23T09:02:01Z</time>
      </trkpt>
      <trkpt lat="45.67984" lon="5.73264">
        <ele>460.7</ele>
        <time>2021-08-23T09:02:02Z</time>
      </trkpt>
      <trkpt lat="45.6798" lon="5.73262">
        <ele>460.7</ele>
        <time>2021-08-23T09:02:03Z</time>
      </trkpt>
      <trkpt lat="45.67977" lon="5.7326">
        <ele>460.6</ele>
        <time>2021-08-23T09:02:04Z</time>
      </trkpt>
      <trkpt lat="45.67974" lon="5.73258">
        <ele>460.6</ele>
        <time>2021-08-23T09:02:05Z</time>
      </trkpt>
      <trkpt lat="45.67969" lon="5.73255">
        <ele>460.4</ele>
        <time>2021-08-23T09:02:07Z</time>
      </trkpt>
      <trkpt lat="45.67966" lon="5.73254">
        <ele>460.4</ele>
        <time>2021-08-23T09:02:08Z</time>
      </trkpt>
      <trkpt lat="45.67962" lon="5.73253">
        <ele>460.3</ele>
        <time>2021-08-23T09:02:09Z</time>
      </trkpt>
      <trkpt lat="45.67955" lon="5.73252">
        <ele>460.1</ele>
        <time>2021-08-23T09:02:11Z</time>
      </trkpt>
      <trkpt lat="45.67952" lon="5.73251">
        <ele>460.1</ele>
        <time>2021-08-23T09:02:12Z</time>
      </trkpt>
      <trkpt lat="45.67951" lon="5.7325">
        <ele>460.1</ele>
        <time>2021-08-23T09:02:13Z</time>
      </trkpt>
      <trkpt lat="45.67941" lon="5.73246">
        <ele>460</ele>
        <time>2021-08-23T09:02:15Z</time>
      </trkpt>
      <trkpt lat="45.67928" lon="5.73237">
        <ele>459.9</ele>
        <time>2021-08-23T09:02:16Z</time>
      </trkpt>
      <trkpt lat="45.67917" lon="5.73227">
        <ele>459.8</ele>
        <time>2021-08-23T09:02:18Z</time>
      </trkpt>
      <trkpt lat="45.67913" lon="5.73222">
        <ele>459.8</ele>
        <time>2021-08-23T09:02:19Z</time>
      </trkpt>
      <trkpt lat="45.67905" lon="5.73217">
        <ele>460</ele>
        <time>2021-08-23T09:02:21Z</time>
      </trkpt>
      <trkpt lat="45.679" lon="5.73215">
        <ele>460</ele>
        <time>2021-08-23T09:02:22Z</time>
      </trkpt>
      <trkpt lat="45.67892" lon="5.73211">
        <ele>460.2</ele>
        <time>2021-08-23T09:02:24Z</time>
      </trkpt>
      <trkpt lat="45.67886" lon="5.73212">
        <ele>460.2</ele>
        <time>2021-08-23T09:02:26Z</time>
      </trkpt>
      <trkpt lat="45.67881" lon="5.73214">
        <ele>460.3</ele>
        <time>2021-08-23T09:02:27Z</time>
      </trkpt>
      <trkpt lat="45.67877" lon="5.73214">
        <ele>460.3</ele>
        <time>2021-08-23T09:02:28Z</time>
      </trkpt>
      <trkpt lat="45.67873" lon="5.73215">
        <ele>460.4</ele>
        <time>2021-08-23T09:02:29Z</time>
      </trkpt>
      <trkpt lat="45.67869" lon="5.73215">
        <ele>460.4</ele>
        <time>2021-08-23T09:02:30Z</time>
      </trkpt>
      <trkpt lat="45.67865" lon="5.73215">
        <ele>460.5</ele>
        <time>2021-08-23T09:02:32Z</time>
      </trkpt>
      <trkpt lat="45.67861" lon="5.73215">
        <ele>460.5</ele>
        <time>2021-08-23T09:02:33Z</time>
      </trkpt>
      <trkpt lat="45.67857" lon="5.73215">
        <ele>460.6</ele>
        <time>2021-08-23T09:02:34Z</time>
      </trkpt>
      <trkpt lat="45.67854" lon="5.73214">
        <ele>460.6</ele>
        <time>2021-08-23T09:02:35Z</time>
      </trkpt>
      <trkpt lat="45.67852" lon="5.73213">
        <ele>460.6</ele>
        <time>2021-08-23T09:02:36Z</time>
      </trkpt>
      <trkpt lat="45.67846" lon="5.73212">
        <ele>460.7</ele>
        <time>2021-08-23T09:02:38Z</time>
      </trkpt>
      <trkpt lat="45.67842" lon="5.7321">
        <ele>460.7</ele>
        <time>2021-08-23T09:02:39Z</time>
      </trkpt>
      <trkpt lat="45.67839" lon="5.73207">
        <ele>460.7</ele>
        <time>2021-08-23T09:02:40Z</time>
      </trkpt>
      <trkpt lat="45.67835" lon="5.73203">
        <ele>460.7</ele>
        <time>2021-08-23T09:02:41Z</time>
      </trkpt>
      <trkpt lat="45.6783" lon="5.73199">
        <ele>460.7</ele>
        <time>2021-08-23T09:02:42Z</time>
      </trkpt>
      <trkpt lat="45.67825" lon="5.73195">
        <ele>460.6</ele>
        <time>2021-08-23T09:02:44Z</time>
      </trkpt>
      <trkpt lat="45.67818" lon="5.73192">
        <ele>460.4</ele>
        <time>2021-08-23T09:02:45Z</time>
      </trkpt>
      <trkpt lat="45.67808" lon="5.7319">
        <ele>460</ele>
        <time>2021-08-23T09:02:46Z</time>
      </trkpt>
      <trkpt lat="45.67801" lon="5.73189">
        <ele>459.7</ele>
        <time>2021-08-23T09:02:47Z</time>
      </trkpt>
      <trkpt lat="45.67795" lon="5.73188">
        <ele>459.4</ele>
        <time>2021-08-23T09:02:48Z</time>
      </trkpt>
      <trkpt lat="45.67781" lon="5.73186">
        <ele>458.6</ele>
        <time>2021-08-23T09:02:50Z</time>
      </trkpt>
      <trkpt lat="45.67766" lon="5.73186">
        <ele>457.7</ele>
        <time>2021-08-23T09:02:52Z</time>
      </trkpt>
      <trkpt lat="45.67751" lon="5.73185">
        <ele>457.1</ele>
        <time>2021-08-23T09:02:54Z</time>
      </trkpt>
      <trkpt lat="45.67736" lon="5.73185">
        <ele>456.7</ele>
        <time>2021-08-23T09:02:56Z</time>
      </trkpt>
      <trkpt lat="45.67723" lon="5.73186">
        <ele>456.3</ele>
        <time>2021-08-23T09:02:58Z</time>
      </trkpt>
      <trkpt lat="45.67709" lon="5.73186">
        <ele>456</ele>
        <time>2021-08-23T09:03:00Z</time>
      </trkpt>
      <trkpt lat="45.67696" lon="5.73188">
        <ele>455.6</ele>
        <time>2021-08-23T09:03:02Z</time>
      </trkpt>
      <trkpt lat="45.67682" lon="5.7319">
        <ele>455.1</ele>
        <time>2021-08-23T09:03:04Z</time>
      </trkpt>
      <trkpt lat="45.67667" lon="5.7319">
        <ele>454.7</ele>
        <time>2021-08-23T09:03:06Z</time>
      </trkpt>
      <trkpt lat="45.67652" lon="5.7319">
        <ele>454.4</ele>
        <time>2021-08-23T09:03:08Z</time>
      </trkpt>
      <trkpt lat="45.6764" lon="5.7319">
        <ele>454.2</ele>
        <time>2021-08-23T09:03:10Z</time>
      </trkpt>
      <trkpt lat="45.67636" lon="5.7319">
        <ele>454.1</ele>
        <time>2021-08-23T09:03:11Z</time>
      </trkpt>
      <trkpt lat="45.67632" lon="5.73189">
        <ele>454.1</ele>
        <time>2021-08-23T09:03:12Z</time>
      </trkpt>
      <trkpt lat="45.67629" lon="5.7319">
        <ele>454.1</ele>
        <time>2021-08-23T09:03:14Z</time>
      </trkpt>
      <trkpt lat="45.67631" lon="5.73194">
        <ele>454.1</ele>
        <time>2021-08-23T09:03:16Z</time>
      </trkpt>
      <trkpt lat="45.67634" lon="5.73196">
        <ele>454.1</ele>
        <time>2021-08-23T09:03:18Z</time>
      </trkpt>
      <trkpt lat="45.67637" lon="5.73197">
        <ele>454</ele>
        <time>2021-08-23T09:03:20Z</time>
      </trkpt>
      <trkpt lat="45.67637" lon="5.73197">
        <ele>454</ele>
        <time>2021-08-23T09:03:21Z</time>
      </trkpt>
      <trkpt lat="45.67637" lon="5.73197">
        <ele>454</ele>
        <time>2021-08-23T09:03:22Z</time>
      </trkpt>
      <trkpt lat="45.67637" lon="5.73197">
        <ele>454</ele>
        <time>2021-08-23T09:03:23Z</time>
      </trkpt>
      <trkpt lat="45.67637" lon="5.73197">
        <ele>454</ele>
        <time>2021-08-23T09:03:24Z</time>
      </trkpt>
      <trkpt lat="45.67637" lon="5.73197">
        <ele>454</ele>
        <time>2021-08-23T09:03:26Z</time>
      </trkpt>
      <trkpt lat="45.67633" lon="5.73202">
        <ele>454</ele>
        <time>2021-08-23T09:04:28Z</time>
      </trkpt>
      <trkpt lat="45.67629" lon="5.73202">
        <ele>454</ele>
        <time>2021-08-23T09:04:29Z</time>
      </trkpt>
      <trkpt lat="45.67623" lon="5.73201">
        <ele>454</ele>
        <time>2021-08-23T09:04:30Z</time>
      </trkpt>
      <trkpt lat="45.67619" lon="5.73201">
        <ele>454</ele>
        <time>2021-08-23T09:04:31Z</time>
      </trkpt>
      <trkpt lat="45.67615" lon="5.732">
        <ele>454</ele>
        <time>2021-08-23T09:04:32Z</time>
      </trkpt>
      <trkpt lat="45.67606" lon="5.73198">
        <ele>454</ele>
        <time>2021-08-23T09:04:34Z</time>
      </trkpt>
      <trkpt lat="45.67602" lon="5.73198">
        <ele>454</ele>
        <time>2021-08-23T09:04:35Z</time>
      </trkpt>
      <trkpt lat="45.67592" lon="5.73202">
        <ele>453.8</ele>
        <time>2021-08-23T09:04:37Z</time>
      </trkpt>
      <trkpt lat="45.6758" lon="5.73204">
        <ele>453.5</ele>
        <time>2021-08-23T09:04:39Z</time>
      </trkpt>
      <trkpt lat="45.67575" lon="5.73204">
        <ele>453.4</ele>
        <time>2021-08-23T09:04:40Z</time>
      </trkpt>
      <trkpt lat="45.67565" lon="5.73207">
        <ele>452.9</ele>
        <time>2021-08-23T09:04:42Z</time>
      </trkpt>
      <trkpt lat="45.67552" lon="5.73213">
        <ele>452.2</ele>
        <time>2021-08-23T09:04:43Z</time>
      </trkpt>
      <trkpt lat="45.67546" lon="5.73216">
        <ele>451.9</ele>
        <time>2021-08-23T09:04:44Z</time>
      </trkpt>
      <trkpt lat="45.67535" lon="5.73221">
        <ele>451.5</ele>
        <time>2021-08-23T09:04:46Z</time>
      </trkpt>
      <trkpt lat="45.67531" lon="5.73224">
        <ele>451.4</ele>
        <time>2021-08-23T09:04:47Z</time>
      </trkpt>
      <trkpt lat="45.67529" lon="5.73224">
        <ele>451.3</ele>
        <time>2021-08-23T09:04:48Z</time>
      </trkpt>
      <trkpt lat="45.67523" lon="5.73227">
        <ele>451.5</ele>
        <time>2021-08-23T09:04:50Z</time>
      </trkpt>
      <trkpt lat="45.6752" lon="5.73227">
        <ele>451.7</ele>
        <time>2021-08-23T09:04:52Z</time>
      </trkpt>
      <trkpt lat="45.67519" lon="5.73227">
        <ele>451.7</ele>
        <time>2021-08-23T09:04:53Z</time>
      </trkpt>
      <trkpt lat="45.67517" lon="5.73223">
        <ele>451.9</ele>
        <time>2021-08-23T09:04:54Z</time>
      </trkpt>
      <trkpt lat="45.67517" lon="5.73222">
        <ele>452</ele>
        <time>2021-08-23T09:04:55Z</time>
      </trkpt>
      <trkpt lat="45.67519" lon="5.7322">
        <ele>452.1</ele>
        <time>2021-08-23T09:04:56Z</time>
      </trkpt>
      <trkpt lat="45.67519" lon="5.73219">
        <ele>452.1</ele>
        <time>2021-08-23T09:04:58Z</time>
      </trkpt>
      <trkpt lat="45.67519" lon="5.73218">
        <ele>452.1</ele>
        <time>2021-08-23T09:04:59Z</time>
      </trkpt>
      <trkpt lat="45.67519" lon="5.73218">
        <ele>452.2</ele>
        <time>2021-08-23T09:05:00Z</time>
      </trkpt>
      <trkpt lat="45.67519" lon="5.73218">
        <ele>452.2</ele>
        <time>2021-08-23T09:05:01Z</time>
      </trkpt>
      <trkpt lat="45.67519" lon="5.73217">
        <ele>452.2</ele>
        <time>2021-08-23T09:05:02Z</time>
      </trkpt>
      <trkpt lat="45.67519" lon="5.73217">
        <ele>452.2</ele>
        <time>2021-08-23T09:05:03Z</time>
      </trkpt>
      <trkpt lat="45.67519" lon="5.73217">
        <ele>452.2</ele>
        <time>2021-08-23T09:05:04Z</time>
      </trkpt>
      <trkpt lat="45.6749" lon="5.73214">
        <ele>453.5</ele>
        <time>2021-08-23T09:05:18Z</time>
      </trkpt>
      <trkpt lat="45.67486" lon="5.73213">
        <ele>453.7</ele>
        <time>2021-08-23T09:05:19Z</time>
      </trkpt>
      <trkpt lat="45.67483" lon="5.73212">
        <ele>453.8</ele>
        <time>2021-08-23T09:05:20Z</time>
      </trkpt>
      <trkpt lat="45.67478" lon="5.73211">
        <ele>454</ele>
        <time>2021-08-23T09:05:22Z</time>
      </trkpt>
      <trkpt lat="45.67475" lon="5.7321">
        <ele>454.2</ele>
        <time>2021-08-23T09:05:23Z</time>
      </trkpt>
      <trkpt lat="45.67471" lon="5.7321">
        <ele>454.3</ele>
        <time>2021-08-23T09:05:24Z</time>
      </trkpt>
      <trkpt lat="45.67467" lon="5.73209">
        <ele>454.5</ele>
        <time>2021-08-23T09:05:25Z</time>
      </trkpt>
      <trkpt lat="45.67465" lon="5.73208">
        <ele>454.6</ele>
        <time>2021-08-23T09:05:26Z</time>
      </trkpt>
      <trkpt lat="45.67462" lon="5.73206">
        <ele>454.7</ele>
        <time>2021-08-23T09:05:28Z</time>
      </trkpt>
      <trkpt lat="45.67458" lon="5.73203">
        <ele>454.9</ele>
        <time>2021-08-23T09:05:30Z</time>
      </trkpt>
      <trkpt lat="45.67455" lon="5.73201">
        <ele>455</ele>
        <time>2021-08-23T09:05:31Z</time>
      </trkpt>
      <trkpt lat="45.67454" lon="5.73199">
        <ele>455.1</ele>
        <time>2021-08-23T09:05:32Z</time>
      </trkpt>
      <trkpt lat="45.6745" lon="5.73197">
        <ele>455.3</ele>
        <time>2021-08-23T09:05:34Z</time>
      </trkpt>
      <trkpt lat="45.67449" lon="5.73196">
        <ele>455.4</ele>
        <time>2021-08-23T09:05:35Z</time>
      </trkpt>
      <trkpt lat="45.6745" lon="5.73196">
        <ele>455.4</ele>
        <time>2021-08-23T09:05:36Z</time>
      </trkpt>
      <trkpt lat="45.6745" lon="5.73194">
        <ele>455.5</ele>
        <time>2021-08-23T09:05:37Z</time>
      </trkpt>
      <trkpt lat="45.6745" lon="5.73194">
        <ele>455.5</ele>
        <time>2021-08-23T09:05:38Z</time>
      </trkpt>
      <trkpt lat="45.6745" lon="5.73194">
        <ele>455.5</ele>
        <time>2021-08-23T09:05:39Z</time>
      </trkpt>
      <trkpt lat="45.67449" lon="5.73194">
        <ele>455.5</ele>
        <time>2021-08-23T09:05:41Z</time>
      </trkpt>
      <trkpt lat="45.67448" lon="5.73193">
        <ele>455.6</ele>
        <time>2021-08-23T09:05:42Z</time>
      </trkpt>
      <trkpt lat="45.67447" lon="5.73192">
        <ele>455.7</ele>
        <time>2021-08-23T09:05:44Z</time>
      </trkpt>
      <trkpt lat="45.67438" lon="5.73187">
        <ele>456.2</ele>
        <time>2021-08-23T09:05:49Z</time>
      </trkpt>
      <trkpt lat="45.67434" lon="5.73186">
        <ele>456.4</ele>
        <time>2021-08-23T09:05:50Z</time>
      </trkpt>
      <trkpt lat="45.67432" lon="5.73185">
        <ele>456.5</ele>
        <time>2021-08-23T09:05:51Z</time>
      </trkpt>
      <trkpt lat="45.67429" lon="5.73184">
        <ele>456.7</ele>
        <time>2021-08-23T09:05:52Z</time>
      </trkpt>
      <trkpt lat="45.67426" lon="5.73183">
        <ele>456.9</ele>
        <time>2021-08-23T09:05:53Z</time>
      </trkpt>
      <trkpt lat="45.67422" lon="5.73182">
        <ele>457.1</ele>
        <time>2021-08-23T09:05:54Z</time>
      </trkpt>
      <trkpt lat="45.67421" lon="5.73182">
        <ele>457.2</ele>
        <time>2021-08-23T09:05:55Z</time>
      </trkpt>
      <trkpt lat="45.67417" lon="5.7318">
        <ele>457.4</ele>
        <time>2021-08-23T09:05:57Z</time>
      </trkpt>
      <trkpt lat="45.67414" lon="5.73178">
        <ele>457.6</ele>
        <time>2021-08-23T09:05:58Z</time>
      </trkpt>
      <trkpt lat="45.67413" lon="5.73178">
        <ele>457.7</ele>
        <time>2021-08-23T09:05:59Z</time>
      </trkpt>
      <trkpt lat="45.67411" lon="5.73176">
        <ele>457.8</ele>
        <time>2021-08-23T09:06:01Z</time>
      </trkpt>
      <trkpt lat="45.6741" lon="5.73175">
        <ele>457.9</ele>
        <time>2021-08-23T09:06:02Z</time>
      </trkpt>
      <trkpt lat="45.67408" lon="5.73173">
        <ele>458</ele>
        <time>2021-08-23T09:06:03Z</time>
      </trkpt>
      <trkpt lat="45.67405" lon="5.73171">
        <ele>458.2</ele>
        <time>2021-08-23T09:06:04Z</time>
      </trkpt>
      <trkpt lat="45.67404" lon="5.7317">
        <ele>458.3</ele>
        <time>2021-08-23T09:06:05Z</time>
      </trkpt>
      <trkpt lat="45.67402" lon="5.73168">
        <ele>458.5</ele>
        <time>2021-08-23T09:06:06Z</time>
      </trkpt>
      <trkpt lat="45.67399" lon="5.73167">
        <ele>458.6</ele>
        <time>2021-08-23T09:06:08Z</time>
      </trkpt>
      <trkpt lat="45.67396" lon="5.73165">
        <ele>458.8</ele>
        <time>2021-08-23T09:06:10Z</time>
      </trkpt>
      <trkpt lat="45.67393" lon="5.73163">
        <ele>459</ele>
        <time>2021-08-23T09:06:12Z</time>
      </trkpt>
      <trkpt lat="45.67392" lon="5.73162">
        <ele>459.1</ele>
        <time>2021-08-23T09:06:13Z</time>
      </trkpt>
      <trkpt lat="45.67391" lon="5.73161">
        <ele>459.2</ele>
        <time>2021-08-23T09:06:14Z</time>
      </trkpt>
      <trkpt lat="45.67389" lon="5.73159">
        <ele>459.3</ele>
        <time>2021-08-23T09:06:16Z</time>
      </trkpt>
      <trkpt lat="45.67389" lon="5.73157">
        <ele>459.4</ele>
        <time>2021-08-23T09:06:17Z</time>
      </trkpt>
      <trkpt lat="45.67389" lon="5.73155">
        <ele>459.5</ele>
        <time>2021-08-23T09:06:19Z</time>
      </trkpt>
      <trkpt lat="45.6739" lon="5.73153">
        <ele>459.6</ele>
        <time>2021-08-23T09:06:21Z</time>
      </trkpt>
      <trkpt lat="45.67389" lon="5.7315">
        <ele>459.8</ele>
        <time>2021-08-23T09:06:22Z</time>
      </trkpt>
      <trkpt lat="45.67386" lon="5.73147">
        <ele>459.9</ele>
        <time>2021-08-23T09:06:24Z</time>
      </trkpt>
      <trkpt lat="45.67383" lon="5.73147">
        <ele>460.2</ele>
        <time>2021-08-23T09:06:25Z</time>
      </trkpt>
      <trkpt lat="45.67379" lon="5.73146">
        <ele>460.4</ele>
        <time>2021-08-23T09:06:26Z</time>
      </trkpt>
      <trkpt lat="45.67376" lon="5.73145">
        <ele>460.6</ele>
        <time>2021-08-23T09:06:27Z</time>
      </trkpt>
      <trkpt lat="45.67372" lon="5.73144">
        <ele>460.9</ele>
        <time>2021-08-23T09:06:29Z</time>
      </trkpt>
      <trkpt lat="45.67369" lon="5.73143">
        <ele>461.1</ele>
        <time>2021-08-23T09:06:30Z</time>
      </trkpt>
      <trkpt lat="45.67364" lon="5.73141">
        <ele>461.5</ele>
        <time>2021-08-23T09:06:32Z</time>
      </trkpt>
      <trkpt lat="45.67361" lon="5.73141">
        <ele>461.7</ele>
        <time>2021-08-23T09:06:33Z</time>
      </trkpt>
      <trkpt lat="45.67358" lon="5.7314">
        <ele>462</ele>
        <time>2021-08-23T09:06:34Z</time>
      </trkpt>
      <trkpt lat="45.67357" lon="5.73139">
        <ele>462.1</ele>
        <time>2021-08-23T09:06:35Z</time>
      </trkpt>
      <trkpt lat="45.67354" lon="5.73137">
        <ele>462.3</ele>
        <time>2021-08-23T09:06:36Z</time>
      </trkpt>
      <trkpt lat="45.67353" lon="5.73136">
        <ele>462.4</ele>
        <time>2021-08-23T09:06:37Z</time>
      </trkpt>
      <trkpt lat="45.67352" lon="5.73134">
        <ele>462.5</ele>
        <time>2021-08-23T09:06:39Z</time>
      </trkpt>
      <trkpt lat="45.67352" lon="5.73133">
        <ele>462.6</ele>
        <time>2021-08-23T09:06:40Z</time>
      </trkpt>
      <trkpt lat="45.67351" lon="5.73131">
        <ele>462.7</ele>
        <time>2021-08-23T09:06:41Z</time>
      </trkpt>
      <trkpt lat="45.67352" lon="5.73129">
        <ele>462.8</ele>
        <time>2021-08-23T09:06:42Z</time>
      </trkpt>
      <trkpt lat="45.67353" lon="5.73127">
        <ele>462.9</ele>
        <time>2021-08-23T09:06:43Z</time>
      </trkpt>
      <trkpt lat="45.67355" lon="5.73123">
        <ele>463.2</ele>
        <time>2021-08-23T09:06:44Z</time>
      </trkpt>
      <trkpt lat="45.67355" lon="5.73122">
        <ele>463.2</ele>
        <time>2021-08-23T09:06:45Z</time>
      </trkpt>
      <trkpt lat="45.67355" lon="5.73121">
        <ele>463.3</ele>
        <time>2021-08-23T09:06:46Z</time>
      </trkpt>
      <trkpt lat="45.67355" lon="5.73121">
        <ele>463.3</ele>
        <time>2021-08-23T09:06:47Z</time>
      </trkpt>
      <trkpt lat="45.67355" lon="5.73119">
        <ele>463.4</ele>
        <time>2021-08-23T09:06:48Z</time>
      </trkpt>
      <trkpt lat="45.67354" lon="5.73116">
        <ele>463.6</ele>
        <time>2021-08-23T09:06:50Z</time>
      </trkpt>
      <trkpt lat="45.67352" lon="5.73111">
        <ele>463.9</ele>
        <time>2021-08-23T09:06:52Z</time>
      </trkpt>
      <trkpt lat="45.67349" lon="5.7311">
        <ele>464.1</ele>
        <time>2021-08-23T09:06:54Z</time>
      </trkpt>
      <trkpt lat="45.67347" lon="5.7311">
        <ele>464.3</ele>
        <time>2021-08-23T09:06:55Z</time>
      </trkpt>
      <trkpt lat="45.67346" lon="5.7311">
        <ele>464.3</ele>
        <time>2021-08-23T09:06:56Z</time>
      </trkpt>
      <trkpt lat="45.67345" lon="5.73109">
        <ele>464.4</ele>
        <time>2021-08-23T09:06:58Z</time>
      </trkpt>
      <trkpt lat="45.67344" lon="5.73108">
        <ele>464.5</ele>
        <time>2021-08-23T09:06:59Z</time>
      </trkpt>
      <trkpt lat="45.67344" lon="5.73107">
        <ele>464.6</ele>
        <time>2021-08-23T09:07:01Z</time>
      </trkpt>
      <trkpt lat="45.67344" lon="5.73107">
        <ele>464.6</ele>
        <time>2021-08-23T09:07:02Z</time>
      </trkpt>
      <trkpt lat="45.67343" lon="5.73106">
        <ele>464.6</ele>
        <time>2021-08-23T09:07:04Z</time>
      </trkpt>
      <trkpt lat="45.67343" lon="5.73106">
        <ele>464.7</ele>
        <time>2021-08-23T09:07:05Z</time>
      </trkpt>
      <trkpt lat="45.67341" lon="5.73106">
        <ele>464.8</ele>
        <time>2021-08-23T09:07:07Z</time>
      </trkpt>
      <trkpt lat="45.67339" lon="5.73106">
        <ele>464.9</ele>
        <time>2021-08-23T09:07:08Z</time>
      </trkpt>
      <trkpt lat="45.67331" lon="5.73112">
        <ele>465.9</ele>
        <time>2021-08-23T09:07:12Z</time>
      </trkpt>
      <trkpt lat="45.67322" lon="5.73117">
        <ele>466</ele>
        <time>2021-08-23T09:07:14Z</time>
      </trkpt>
      <trkpt lat="45.67317" lon="5.73119">
        <ele>466</ele>
        <time>2021-08-23T09:07:15Z</time>
      </trkpt>
      <trkpt lat="45.67311" lon="5.7312">
        <ele>466.1</ele>
        <time>2021-08-23T09:07:16Z</time>
      </trkpt>
      <trkpt lat="45.67305" lon="5.7312">
        <ele>466.2</ele>
        <time>2021-08-23T09:07:17Z</time>
      </trkpt>
      <trkpt lat="45.67295" lon="5.73121">
        <ele>466.3</ele>
        <time>2021-08-23T09:07:18Z</time>
      </trkpt>
      <trkpt lat="45.67288" lon="5.73123">
        <ele>466.3</ele>
        <time>2021-08-23T09:07:20Z</time>
      </trkpt>
      <trkpt lat="45.67277" lon="5.73125">
        <ele>466.4</ele>
        <time>2021-08-23T09:07:21Z</time>
      </trkpt>
      <trkpt lat="45.67271" lon="5.73124">
        <ele>466.4</ele>
        <time>2021-08-23T09:07:22Z</time>
      </trkpt>
      <trkpt lat="45.67261" lon="5.73123">
        <ele>466.4</ele>
        <time>2021-08-23T09:07:24Z</time>
      </trkpt>
      <trkpt lat="45.67254" lon="5.73126">
        <ele>466.4</ele>
        <time>2021-08-23T09:07:25Z</time>
      </trkpt>
      <trkpt lat="45.67249" lon="5.73126">
        <ele>466.4</ele>
        <time>2021-08-23T09:07:27Z</time>
      </trkpt>
      <trkpt lat="45.67242" lon="5.73124">
        <ele>466.4</ele>
        <time>2021-08-23T09:07:28Z</time>
      </trkpt>
      <trkpt lat="45.67237" lon="5.73123">
        <ele>466.4</ele>
        <time>2021-08-23T09:07:29Z</time>
      </trkpt>
      <trkpt lat="45.67226" lon="5.73123">
        <ele>466.3</ele>
        <time>2021-08-23T09:07:31Z</time>
      </trkpt>
      <trkpt lat="45.67221" lon="5.73123">
        <ele>466.2</ele>
        <time>2021-08-23T09:07:32Z</time>
      </trkpt>
      <trkpt lat="45.67206" lon="5.73127">
        <ele>465.7</ele>
        <time>2021-08-23T09:07:34Z</time>
      </trkpt>
      <trkpt lat="45.67191" lon="5.73128">
        <ele>465.2</ele>
        <time>2021-08-23T09:07:36Z</time>
      </trkpt>
      <trkpt lat="45.67186" lon="5.73127">
        <ele>465.1</ele>
        <time>2021-08-23T09:07:37Z</time>
      </trkpt>
      <trkpt lat="45.67174" lon="5.73123">
        <ele>465.1</ele>
        <time>2021-08-23T09:07:39Z</time>
      </trkpt>
      <trkpt lat="45.67168" lon="5.73121">
        <ele>465.1</ele>
        <time>2021-08-23T09:07:40Z</time>
      </trkpt>
      <trkpt lat="45.67161" lon="5.73121">
        <ele>465.2</ele>
        <time>2021-08-23T09:07:42Z</time>
      </trkpt>
      <trkpt lat="45.67156" lon="5.73119">
        <ele>465.3</ele>
        <time>2021-08-23T09:07:43Z</time>
      </trkpt>
      <trkpt lat="45.67151" lon="5.73119">
        <ele>465.4</ele>
        <time>2021-08-23T09:07:44Z</time>
      </trkpt>
      <trkpt lat="45.67147" lon="5.73116">
        <ele>465.4</ele>
        <time>2021-08-23T09:07:45Z</time>
      </trkpt>
      <trkpt lat="45.67144" lon="5.73113">
        <ele>465.5</ele>
        <time>2021-08-23T09:07:47Z</time>
      </trkpt>
      <trkpt lat="45.6714" lon="5.73111">
        <ele>465.6</ele>
        <time>2021-08-23T09:07:48Z</time>
      </trkpt>
      <trkpt lat="45.67137" lon="5.7311">
        <ele>465.6</ele>
        <time>2021-08-23T09:07:49Z</time>
      </trkpt>
      <trkpt lat="45.67133" lon="5.7311">
        <ele>465.7</ele>
        <time>2021-08-23T09:07:51Z</time>
      </trkpt>
      <trkpt lat="45.67132" lon="5.73111">
        <ele>465.7</ele>
        <time>2021-08-23T09:07:52Z</time>
      </trkpt>
      <trkpt lat="45.6713" lon="5.7311">
        <ele>465.7</ele>
        <time>2021-08-23T09:07:53Z</time>
      </trkpt>
      <trkpt lat="45.67129" lon="5.73108">
        <ele>465.7</ele>
        <time>2021-08-23T09:07:54Z</time>
      </trkpt>
      <trkpt lat="45.67129" lon="5.73105">
        <ele>465.7</ele>
        <time>2021-08-23T09:07:56Z</time>
      </trkpt>
      <trkpt lat="45.6713" lon="5.73103">
        <ele>465.7</ele>
        <time>2021-08-23T09:07:58Z</time>
      </trkpt>
      <trkpt lat="45.67132" lon="5.73104">
        <ele>465.7</ele>
        <time>2021-08-23T09:07:59Z</time>
      </trkpt>
      <trkpt lat="45.67133" lon="5.73104">
        <ele>465.7</ele>
        <time>2021-08-23T09:08:01Z</time>
      </trkpt>
      <trkpt lat="45.67134" lon="5.73105">
        <ele>465.7</ele>
        <time>2021-08-23T09:08:02Z</time>
      </trkpt>
      <trkpt lat="45.67135" lon="5.73105">
        <ele>465.7</ele>
        <time>2021-08-23T09:08:04Z</time>
      </trkpt>
      <trkpt lat="45.67136" lon="5.73106">
        <ele>465.7</ele>
        <time>2021-08-23T09:08:27Z</time>
      </trkpt>
      <trkpt lat="45.67137" lon="5.73106">
        <ele>465.7</ele>
        <time>2021-08-23T09:08:28Z</time>
      </trkpt>
      <trkpt lat="45.67135" lon="5.73116">
        <ele>465.7</ele>
        <time>2021-08-23T09:08:30Z</time>
      </trkpt>
      <trkpt lat="45.67133" lon="5.73122">
        <ele>465.7</ele>
        <time>2021-08-23T09:08:31Z</time>
      </trkpt>
      <trkpt lat="45.6713" lon="5.73131">
        <ele>465.7</ele>
        <time>2021-08-23T09:08:32Z</time>
      </trkpt>
      <trkpt lat="45.67127" lon="5.73137">
        <ele>465.7</ele>
        <time>2021-08-23T09:08:34Z</time>
      </trkpt>
      <trkpt lat="45.67124" lon="5.73144">
        <ele>465.8</ele>
        <time>2021-08-23T09:08:35Z</time>
      </trkpt>
      <trkpt lat="45.67119" lon="5.73151">
        <ele>465.9</ele>
        <time>2021-08-23T09:08:37Z</time>
      </trkpt>
      <trkpt lat="45.67114" lon="5.73156">
        <ele>466</ele>
        <time>2021-08-23T09:08:38Z</time>
      </trkpt>
      <trkpt lat="45.67109" lon="5.73161">
        <ele>466.3</ele>
        <time>2021-08-23T09:08:39Z</time>
      </trkpt>
      <trkpt lat="45.671" lon="5.73165">
        <ele>466.8</ele>
        <time>2021-08-23T09:08:41Z</time>
      </trkpt>
      <trkpt lat="45.67097" lon="5.73167">
        <ele>467</ele>
        <time>2021-08-23T09:08:42Z</time>
      </trkpt>
      <trkpt lat="45.67093" lon="5.73169">
        <ele>467.3</ele>
        <time>2021-08-23T09:08:44Z</time>
      </trkpt>
      <trkpt lat="45.6709" lon="5.73171">
        <ele>468.5</ele>
        <time>2021-08-23T09:08:45Z</time>
      </trkpt>
      <trkpt lat="45.67085" lon="5.73174">
        <ele>468.8</ele>
        <time>2021-08-23T09:08:47Z</time>
      </trkpt>
      <trkpt lat="45.67083" lon="5.73175">
        <ele>469</ele>
        <time>2021-08-23T09:08:49Z</time>
      </trkpt>
      <trkpt lat="45.67082" lon="5.73174">
        <ele>469</ele>
        <time>2021-08-23T09:08:50Z</time>
      </trkpt>
      <trkpt lat="45.67079" lon="5.73173">
        <ele>469.2</ele>
        <time>2021-08-23T09:08:51Z</time>
      </trkpt>
      <trkpt lat="45.67078" lon="5.73173">
        <ele>469.2</ele>
        <time>2021-08-23T09:08:52Z</time>
      </trkpt>
      <trkpt lat="45.67077" lon="5.73174">
        <ele>469.3</ele>
        <time>2021-08-23T09:08:54Z</time>
      </trkpt>
      <trkpt lat="45.67076" lon="5.73174">
        <ele>469.3</ele>
        <time>2021-08-23T09:08:55Z</time>
      </trkpt>
      <trkpt lat="45.67074" lon="5.73174">
        <ele>469.4</ele>
        <time>2021-08-23T09:08:57Z</time>
      </trkpt>
      <trkpt lat="45.67073" lon="5.73174">
        <ele>469.5</ele>
        <time>2021-08-23T09:08:58Z</time>
      </trkpt>
      <trkpt lat="45.6707" lon="5.73173">
        <ele>469.6</ele>
        <time>2021-08-23T09:08:59Z</time>
      </trkpt>
      <trkpt lat="45.67067" lon="5.73171">
        <ele>469.8</ele>
        <time>2021-08-23T09:09:00Z</time>
      </trkpt>
      <trkpt lat="45.67066" lon="5.73171">
        <ele>469.8</ele>
        <time>2021-08-23T09:09:01Z</time>
      </trkpt>
      <trkpt lat="45.67062" lon="5.73169">
        <ele>470</ele>
        <time>2021-08-23T09:09:03Z</time>
      </trkpt>
      <trkpt lat="45.67058" lon="5.73168">
        <ele>470.1</ele>
        <time>2021-08-23T09:09:05Z</time>
      </trkpt>
      <trkpt lat="45.67056" lon="5.73166">
        <ele>470.3</ele>
        <time>2021-08-23T09:09:06Z</time>
      </trkpt>
      <trkpt lat="45.67055" lon="5.73165">
        <ele>470.3</ele>
        <time>2021-08-23T09:09:07Z</time>
      </trkpt>
      <trkpt lat="45.67053" lon="5.73163">
        <ele>470.4</ele>
        <time>2021-08-23T09:09:08Z</time>
      </trkpt>
      <trkpt lat="45.67049" lon="5.73163">
        <ele>470.5</ele>
        <time>2021-08-23T09:09:10Z</time>
      </trkpt>
      <trkpt lat="45.67048" lon="5.73164">
        <ele>470.5</ele>
        <time>2021-08-23T09:09:11Z</time>
      </trkpt>
      <trkpt lat="45.67047" lon="5.73164">
        <ele>470.5</ele>
        <time>2021-08-23T09:09:12Z</time>
      </trkpt>
      <trkpt lat="45.67045" lon="5.73163">
        <ele>470.6</ele>
        <time>2021-08-23T09:09:14Z</time>
      </trkpt>
      <trkpt lat="45.67041" lon="5.73163">
        <ele>470.7</ele>
        <time>2021-08-23T09:09:15Z</time>
      </trkpt>
      <trkpt lat="45.6704" lon="5.73163">
        <ele>470.7</ele>
        <time>2021-08-23T09:09:16Z</time>
      </trkpt>
      <trkpt lat="45.67035" lon="5.73164">
        <ele>470.9</ele>
        <time>2021-08-23T09:09:18Z</time>
      </trkpt>
      <trkpt lat="45.67032" lon="5.73166">
        <ele>470.9</ele>
        <time>2021-08-23T09:09:19Z</time>
      </trkpt>
      <trkpt lat="45.67028" lon="5.73169">
        <ele>471</ele>
        <time>2021-08-23T09:09:21Z</time>
      </trkpt>
      <trkpt lat="45.67025" lon="5.73169">
        <ele>471.1</ele>
        <time>2021-08-23T09:09:22Z</time>
      </trkpt>
      <trkpt lat="45.6702" lon="5.73168">
        <ele>471.2</ele>
        <time>2021-08-23T09:09:24Z</time>
      </trkpt>
      <trkpt lat="45.67016" lon="5.73166">
        <ele>471.3</ele>
        <time>2021-08-23T09:09:25Z</time>
      </trkpt>
      <trkpt lat="45.67011" lon="5.73163">
        <ele>471.3</ele>
        <time>2021-08-23T09:09:26Z</time>
      </trkpt>
      <trkpt lat="45.67004" lon="5.7316">
        <ele>471.5</ele>
        <time>2021-08-23T09:09:28Z</time>
      </trkpt>
      <trkpt lat="45.66999" lon="5.7316">
        <ele>471.6</ele>
        <time>2021-08-23T09:09:29Z</time>
      </trkpt>
      <trkpt lat="45.66996" lon="5.73158">
        <ele>471.6</ele>
        <time>2021-08-23T09:09:30Z</time>
      </trkpt>
      <trkpt lat="45.66992" lon="5.73158">
        <ele>471.7</ele>
        <time>2021-08-23T09:09:32Z</time>
      </trkpt>
      <trkpt lat="45.66988" lon="5.73159">
        <ele>471.8</ele>
        <time>2021-08-23T09:09:33Z</time>
      </trkpt>
      <trkpt lat="45.66983" lon="5.73161">
        <ele>471.9</ele>
        <time>2021-08-23T09:09:34Z</time>
      </trkpt>
      <trkpt lat="45.66978" lon="5.73163">
        <ele>472</ele>
        <time>2021-08-23T09:09:36Z</time>
      </trkpt>
      <trkpt lat="45.66973" lon="5.73165">
        <ele>472.1</ele>
        <time>2021-08-23T09:09:37Z</time>
      </trkpt>
      <trkpt lat="45.66969" lon="5.73164">
        <ele>472.2</ele>
        <time>2021-08-23T09:09:38Z</time>
      </trkpt>
      <trkpt lat="45.66963" lon="5.73163">
        <ele>472.3</ele>
        <time>2021-08-23T09:09:40Z</time>
      </trkpt>
      <trkpt lat="45.66958" lon="5.73161">
        <ele>472.4</ele>
        <time>2021-08-23T09:09:42Z</time>
      </trkpt>
      <trkpt lat="45.66953" lon="5.73158">
        <ele>472.6</ele>
        <time>2021-08-23T09:09:43Z</time>
      </trkpt>
      <trkpt lat="45.66948" lon="5.73155">
        <ele>472.8</ele>
        <time>2021-08-23T09:09:45Z</time>
      </trkpt>
      <trkpt lat="45.66944" lon="5.73151">
        <ele>472.9</ele>
        <time>2021-08-23T09:09:46Z</time>
      </trkpt>
      <trkpt lat="45.66941" lon="5.73149">
        <ele>473</ele>
        <time>2021-08-23T09:09:47Z</time>
      </trkpt>
      <trkpt lat="45.66937" lon="5.73144">
        <ele>473.2</ele>
        <time>2021-08-23T09:09:49Z</time>
      </trkpt>
      <trkpt lat="45.66932" lon="5.7314">
        <ele>473.4</ele>
        <time>2021-08-23T09:09:50Z</time>
      </trkpt>
      <trkpt lat="45.66929" lon="5.73136">
        <ele>473.5</ele>
        <time>2021-08-23T09:09:51Z</time>
      </trkpt>
      <trkpt lat="45.66919" lon="5.73128">
        <ele>473.9</ele>
        <time>2021-08-23T09:09:53Z</time>
      </trkpt>
      <trkpt lat="45.66915" lon="5.73126">
        <ele>474.1</ele>
        <time>2021-08-23T09:09:54Z</time>
      </trkpt>
      <trkpt lat="45.66909" lon="5.73124">
        <ele>474.3</ele>
        <time>2021-08-23T09:09:56Z</time>
      </trkpt>
      <trkpt lat="45.66903" lon="5.73122">
        <ele>474.5</ele>
        <time>2021-08-23T09:09:57Z</time>
      </trkpt>
      <trkpt lat="45.669" lon="5.73121">
        <ele>474.7</ele>
        <time>2021-08-23T09:09:58Z</time>
      </trkpt>
      <trkpt lat="45.66896" lon="5.73119">
        <ele>474.8</ele>
        <time>2021-08-23T09:09:59Z</time>
      </trkpt>
      <trkpt lat="45.66893" lon="5.73118">
        <ele>475</ele>
        <time>2021-08-23T09:10:00Z</time>
      </trkpt>
      <trkpt lat="45.66889" lon="5.73116">
        <ele>475.1</ele>
        <time>2021-08-23T09:10:01Z</time>
      </trkpt>
      <trkpt lat="45.66885" lon="5.73113">
        <ele>475.3</ele>
        <time>2021-08-23T09:10:03Z</time>
      </trkpt>
      <trkpt lat="45.66881" lon="5.73109">
        <ele>475.5</ele>
        <time>2021-08-23T09:10:05Z</time>
      </trkpt>
      <trkpt lat="45.66878" lon="5.73107">
        <ele>475.7</ele>
        <time>2021-08-23T09:10:06Z</time>
      </trkpt>
      <trkpt lat="45.66874" lon="5.73106">
        <ele>475.9</ele>
        <time>2021-08-23T09:10:07Z</time>
      </trkpt>
      <trkpt lat="45.66872" lon="5.73104">
        <ele>476</ele>
        <time>2021-08-23T09:10:08Z</time>
      </trkpt>
      <trkpt lat="45.6687" lon="5.73104">
        <ele>476.1</ele>
        <time>2021-08-23T09:10:10Z</time>
      </trkpt>
      <trkpt lat="45.66866" lon="5.73104">
        <ele>476.3</ele>
        <time>2021-08-23T09:10:12Z</time>
      </trkpt>
      <trkpt lat="45.66865" lon="5.73103">
        <ele>476.3</ele>
        <time>2021-08-23T09:10:13Z</time>
      </trkpt>
      <trkpt lat="45.66864" lon="5.73103">
        <ele>476.4</ele>
        <time>2021-08-23T09:10:14Z</time>
      </trkpt>
      <trkpt lat="45.66863" lon="5.73102">
        <ele>476.4</ele>
        <time>2021-08-23T09:10:15Z</time>
      </trkpt>
      <trkpt lat="45.66861" lon="5.73099">
        <ele>476.6</ele>
        <time>2021-08-23T09:10:16Z</time>
      </trkpt>
      <trkpt lat="45.6686" lon="5.73098">
        <ele>476.6</ele>
        <time>2021-08-23T09:10:17Z</time>
      </trkpt>
      <trkpt lat="45.66857" lon="5.73095">
        <ele>476.8</ele>
        <time>2021-08-23T09:10:19Z</time>
      </trkpt>
      <trkpt lat="45.66853" lon="5.73092">
        <ele>477</ele>
        <time>2021-08-23T09:10:20Z</time>
      </trkpt>
      <trkpt lat="45.66851" lon="5.73091">
        <ele>477.1</ele>
        <time>2021-08-23T09:10:21Z</time>
      </trkpt>
      <trkpt lat="45.66849" lon="5.73089">
        <ele>477.3</ele>
        <time>2021-08-23T09:10:22Z</time>
      </trkpt>
      <trkpt lat="45.66848" lon="5.73088">
        <ele>477.3</ele>
        <time>2021-08-23T09:10:23Z</time>
      </trkpt>
      <trkpt lat="45.66845" lon="5.73086">
        <ele>477.5</ele>
        <time>2021-08-23T09:10:24Z</time>
      </trkpt>
      <trkpt lat="45.66843" lon="5.73086">
        <ele>477.5</ele>
        <time>2021-08-23T09:10:25Z</time>
      </trkpt>
      <trkpt lat="45.6684" lon="5.73085">
        <ele>477.7</ele>
        <time>2021-08-23T09:10:26Z</time>
      </trkpt>
      <trkpt lat="45.66839" lon="5.73084">
        <ele>477.7</ele>
        <time>2021-08-23T09:10:27Z</time>
      </trkpt>
      <trkpt lat="45.66836" lon="5.73082">
        <ele>477.9</ele>
        <time>2021-08-23T09:10:29Z</time>
      </trkpt>
      <trkpt lat="45.66833" lon="5.7308">
        <ele>478</ele>
        <time>2021-08-23T09:10:30Z</time>
      </trkpt>
      <trkpt lat="45.66831" lon="5.73079">
        <ele>478.1</ele>
        <time>2021-08-23T09:10:31Z</time>
      </trkpt>
      <trkpt lat="45.66828" lon="5.73078">
        <ele>478.2</ele>
        <time>2021-08-23T09:10:32Z</time>
      </trkpt>
      <trkpt lat="45.66825" lon="5.73077">
        <ele>478.3</ele>
        <time>2021-08-23T09:10:33Z</time>
      </trkpt>
      <trkpt lat="45.6682" lon="5.73077">
        <ele>478.5</ele>
        <time>2021-08-23T09:10:35Z</time>
      </trkpt>
      <trkpt lat="45.66817" lon="5.73077">
        <ele>478.6</ele>
        <time>2021-08-23T09:10:36Z</time>
      </trkpt>
      <trkpt lat="45.66814" lon="5.73077">
        <ele>478.7</ele>
        <time>2021-08-23T09:10:37Z</time>
      </trkpt>
      <trkpt lat="45.66811" lon="5.73076">
        <ele>478.8</ele>
        <time>2021-08-23T09:10:38Z</time>
      </trkpt>
      <trkpt lat="45.66806" lon="5.73074">
        <ele>479</ele>
        <time>2021-08-23T09:10:40Z</time>
      </trkpt>
      <trkpt lat="45.66802" lon="5.73073">
        <ele>479.1</ele>
        <time>2021-08-23T09:10:41Z</time>
      </trkpt>
      <trkpt lat="45.66798" lon="5.73072">
        <ele>479.2</ele>
        <time>2021-08-23T09:10:42Z</time>
      </trkpt>
      <trkpt lat="45.66797" lon="5.73072">
        <ele>479.2</ele>
        <time>2021-08-23T09:10:43Z</time>
      </trkpt>
      <trkpt lat="45.66792" lon="5.73073">
        <ele>479.4</ele>
        <time>2021-08-23T09:10:45Z</time>
      </trkpt>
      <trkpt lat="45.66789" lon="5.73073">
        <ele>479.5</ele>
        <time>2021-08-23T09:10:46Z</time>
      </trkpt>
      <trkpt lat="45.66783" lon="5.73074">
        <ele>479.6</ele>
        <time>2021-08-23T09:10:48Z</time>
      </trkpt>
      <trkpt lat="45.66776" lon="5.73073">
        <ele>479.7</ele>
        <time>2021-08-23T09:10:50Z</time>
      </trkpt>
      <trkpt lat="45.6677" lon="5.73072">
        <ele>479.9</ele>
        <time>2021-08-23T09:10:52Z</time>
      </trkpt>
      <trkpt lat="45.66765" lon="5.73073">
        <ele>480</ele>
        <time>2021-08-23T09:10:53Z</time>
      </trkpt>
      <trkpt lat="45.66761" lon="5.73074">
        <ele>480</ele>
        <time>2021-08-23T09:10:54Z</time>
      </trkpt>
      <trkpt lat="45.66758" lon="5.73074">
        <ele>480.1</ele>
        <time>2021-08-23T09:10:55Z</time>
      </trkpt>
      <trkpt lat="45.66754" lon="5.73073">
        <ele>480.2</ele>
        <time>2021-08-23T09:10:56Z</time>
      </trkpt>
      <trkpt lat="45.66748" lon="5.73072">
        <ele>480.4</ele>
        <time>2021-08-23T09:10:58Z</time>
      </trkpt>
      <trkpt lat="45.66744" lon="5.73071">
        <ele>480.5</ele>
        <time>2021-08-23T09:10:59Z</time>
      </trkpt>
      <trkpt lat="45.66739" lon="5.73071">
        <ele>480.6</ele>
        <time>2021-08-23T09:11:00Z</time>
      </trkpt>
      <trkpt lat="45.66736" lon="5.73071">
        <ele>480.7</ele>
        <time>2021-08-23T09:11:01Z</time>
      </trkpt>
      <trkpt lat="45.66733" lon="5.73071">
        <ele>480.7</ele>
        <time>2021-08-23T09:11:02Z</time>
      </trkpt>
      <trkpt lat="45.66731" lon="5.73071">
        <ele>480.8</ele>
        <time>2021-08-23T09:11:03Z</time>
      </trkpt>
      <trkpt lat="45.66728" lon="5.73072">
        <ele>480.9</ele>
        <time>2021-08-23T09:11:04Z</time>
      </trkpt>
      <trkpt lat="45.66724" lon="5.73074">
        <ele>481</ele>
        <time>2021-08-23T09:11:06Z</time>
      </trkpt>
      <trkpt lat="45.66723" lon="5.73074">
        <ele>481</ele>
        <time>2021-08-23T09:11:07Z</time>
      </trkpt>
      <trkpt lat="45.6672" lon="5.73076">
        <ele>481.1</ele>
        <time>2021-08-23T09:11:08Z</time>
      </trkpt>
      <trkpt lat="45.66718" lon="5.7308">
        <ele>481.2</ele>
        <time>2021-08-23T09:11:09Z</time>
      </trkpt>
      <trkpt lat="45.66714" lon="5.73085">
        <ele>481.3</ele>
        <time>2021-08-23T09:11:11Z</time>
      </trkpt>
      <trkpt lat="45.6671" lon="5.73087">
        <ele>481.4</ele>
        <time>2021-08-23T09:11:12Z</time>
      </trkpt>
      <trkpt lat="45.66705" lon="5.73086">
        <ele>481.5</ele>
        <time>2021-08-23T09:11:14Z</time>
      </trkpt>
      <trkpt lat="45.66701" lon="5.73084">
        <ele>481.6</ele>
        <time>2021-08-23T09:11:15Z</time>
      </trkpt>
      <trkpt lat="45.66695" lon="5.73083">
        <ele>481.8</ele>
        <time>2021-08-23T09:11:17Z</time>
      </trkpt>
      <trkpt lat="45.66693" lon="5.7308">
        <ele>481.8</ele>
        <time>2021-08-23T09:11:18Z</time>
      </trkpt>
      <trkpt lat="45.66693" lon="5.73077">
        <ele>481.9</ele>
        <time>2021-08-23T09:11:20Z</time>
      </trkpt>
      <trkpt lat="45.66692" lon="5.73075">
        <ele>481.9</ele>
        <time>2021-08-23T09:11:21Z</time>
      </trkpt>
      <trkpt lat="45.66691" lon="5.73074">
        <ele>482</ele>
        <time>2021-08-23T09:11:22Z</time>
      </trkpt>
      <trkpt lat="45.66689" lon="5.73072">
        <ele>482</ele>
        <time>2021-08-23T09:11:23Z</time>
      </trkpt>
      <trkpt lat="45.66688" lon="5.73071">
        <ele>482.1</ele>
        <time>2021-08-23T09:11:24Z</time>
      </trkpt>
      <trkpt lat="45.66686" lon="5.7307">
        <ele>482.1</ele>
        <time>2021-08-23T09:11:25Z</time>
      </trkpt>
      <trkpt lat="45.66684" lon="5.7307">
        <ele>482.1</ele>
        <time>2021-08-23T09:11:26Z</time>
      </trkpt>
      <trkpt lat="45.66675" lon="5.73064">
        <ele>482.4</ele>
        <time>2021-08-23T09:11:28Z</time>
      </trkpt>
      <trkpt lat="45.66671" lon="5.73059">
        <ele>482.5</ele>
        <time>2021-08-23T09:11:29Z</time>
      </trkpt>
      <trkpt lat="45.66668" lon="5.73055">
        <ele>482.5</ele>
        <time>2021-08-23T09:11:30Z</time>
      </trkpt>
      <trkpt lat="45.66662" lon="5.73049">
        <ele>482.7</ele>
        <time>2021-08-23T09:11:32Z</time>
      </trkpt>
      <trkpt lat="45.66658" lon="5.73046">
        <ele>482.8</ele>
        <time>2021-08-23T09:11:33Z</time>
      </trkpt>
      <trkpt lat="45.66653" lon="5.73043">
        <ele>482.9</ele>
        <time>2021-08-23T09:11:34Z</time>
      </trkpt>
      <trkpt lat="45.6665" lon="5.73042">
        <ele>483</ele>
        <time>2021-08-23T09:11:35Z</time>
      </trkpt>
      <trkpt lat="45.66648" lon="5.73043">
        <ele>483</ele>
        <time>2021-08-23T09:11:36Z</time>
      </trkpt>
      <trkpt lat="45.66646" lon="5.73043">
        <ele>483.1</ele>
        <time>2021-08-23T09:11:38Z</time>
      </trkpt>
      <trkpt lat="45.66642" lon="5.7304">
        <ele>483.2</ele>
        <time>2021-08-23T09:11:40Z</time>
      </trkpt>
      <trkpt lat="45.66639" lon="5.73039">
        <ele>483.2</ele>
        <time>2021-08-23T09:11:41Z</time>
      </trkpt>
      <trkpt lat="45.66638" lon="5.73038">
        <ele>483.2</ele>
        <time>2021-08-23T09:11:42Z</time>
      </trkpt>
      <trkpt lat="45.66634" lon="5.73037">
        <ele>483.3</ele>
        <time>2021-08-23T09:11:44Z</time>
      </trkpt>
      <trkpt lat="45.66631" lon="5.73036">
        <ele>483.4</ele>
        <time>2021-08-23T09:11:45Z</time>
      </trkpt>
      <trkpt lat="45.66605" lon="5.73026">
        <ele>484.3</ele>
        <time>2021-08-23T09:11:54Z</time>
      </trkpt>
      <trkpt lat="45.66597" lon="5.73028">
        <ele>484.6</ele>
        <time>2021-08-23T09:11:56Z</time>
      </trkpt>
      <trkpt lat="45.6659" lon="5.73031">
        <ele>484.8</ele>
        <time>2021-08-23T09:11:57Z</time>
      </trkpt>
      <trkpt lat="45.66586" lon="5.73033">
        <ele>484.9</ele>
        <time>2021-08-23T09:11:58Z</time>
      </trkpt>
      <trkpt lat="45.66582" lon="5.73033">
        <ele>485.1</ele>
        <time>2021-08-23T09:12:00Z</time>
      </trkpt>
      <trkpt lat="45.66579" lon="5.73034">
        <ele>485.2</ele>
        <time>2021-08-23T09:12:01Z</time>
      </trkpt>
      <trkpt lat="45.66575" lon="5.73033">
        <ele>485.4</ele>
        <time>2021-08-23T09:12:02Z</time>
      </trkpt>
      <trkpt lat="45.66574" lon="5.73033">
        <ele>485.4</ele>
        <time>2021-08-23T09:12:03Z</time>
      </trkpt>
      <trkpt lat="45.66571" lon="5.73031">
        <ele>485.5</ele>
        <time>2021-08-23T09:12:04Z</time>
      </trkpt>
      <trkpt lat="45.66567" lon="5.73029">
        <ele>485.7</ele>
        <time>2021-08-23T09:12:06Z</time>
      </trkpt>
      <trkpt lat="45.66565" lon="5.73026">
        <ele>485.8</ele>
        <time>2021-08-23T09:12:07Z</time>
      </trkpt>
      <trkpt lat="45.66562" lon="5.73024">
        <ele>485.9</ele>
        <time>2021-08-23T09:12:08Z</time>
      </trkpt>
      <trkpt lat="45.66558" lon="5.7302">
        <ele>486.1</ele>
        <time>2021-08-23T09:12:10Z</time>
      </trkpt>
      <trkpt lat="45.66557" lon="5.7302">
        <ele>486.2</ele>
        <time>2021-08-23T09:12:11Z</time>
      </trkpt>
      <trkpt lat="45.66556" lon="5.73019">
        <ele>486.2</ele>
        <time>2021-08-23T09:12:12Z</time>
      </trkpt>
      <trkpt lat="45.66552" lon="5.73016">
        <ele>486.4</ele>
        <time>2021-08-23T09:12:14Z</time>
      </trkpt>
      <trkpt lat="45.66549" lon="5.73014">
        <ele>486.5</ele>
        <time>2021-08-23T09:12:15Z</time>
      </trkpt>
      <trkpt lat="45.66548" lon="5.73013">
        <ele>486.6</ele>
        <time>2021-08-23T09:12:16Z</time>
      </trkpt>
      <trkpt lat="45.66545" lon="5.7301">
        <ele>486.7</ele>
        <time>2021-08-23T09:12:17Z</time>
      </trkpt>
      <trkpt lat="45.66541" lon="5.73006">
        <ele>486.9</ele>
        <time>2021-08-23T09:12:19Z</time>
      </trkpt>
      <trkpt lat="45.66538" lon="5.73005">
        <ele>487</ele>
        <time>2021-08-23T09:12:20Z</time>
      </trkpt>
      <trkpt lat="45.66534" lon="5.73002">
        <ele>487.2</ele>
        <time>2021-08-23T09:12:22Z</time>
      </trkpt>
      <trkpt lat="45.66531" lon="5.73001">
        <ele>487.3</ele>
        <time>2021-08-23T09:12:23Z</time>
      </trkpt>
      <trkpt lat="45.66528" lon="5.72999">
        <ele>487.4</ele>
        <time>2021-08-23T09:12:25Z</time>
      </trkpt>
      <trkpt lat="45.66526" lon="5.72996">
        <ele>487.5</ele>
        <time>2021-08-23T09:12:26Z</time>
      </trkpt>
      <trkpt lat="45.66521" lon="5.72993">
        <ele>487.7</ele>
        <time>2021-08-23T09:12:28Z</time>
      </trkpt>
      <trkpt lat="45.66518" lon="5.72991">
        <ele>487.8</ele>
        <time>2021-08-23T09:12:29Z</time>
      </trkpt>
      <trkpt lat="45.66513" lon="5.72989">
        <ele>488</ele>
        <time>2021-08-23T09:12:31Z</time>
      </trkpt>
      <trkpt lat="45.66508" lon="5.72987">
        <ele>488.2</ele>
        <time>2021-08-23T09:12:32Z</time>
      </trkpt>
      <trkpt lat="45.66503" lon="5.72986">
        <ele>488.4</ele>
        <time>2021-08-23T09:12:33Z</time>
      </trkpt>
      <trkpt lat="45.66497" lon="5.72986">
        <ele>488.6</ele>
        <time>2021-08-23T09:12:34Z</time>
      </trkpt>
      <trkpt lat="45.66493" lon="5.72983">
        <ele>488.8</ele>
        <time>2021-08-23T09:12:36Z</time>
      </trkpt>
      <trkpt lat="45.66489" lon="5.7298">
        <ele>489</ele>
        <time>2021-08-23T09:12:37Z</time>
      </trkpt>
      <trkpt lat="45.66486" lon="5.72976">
        <ele>489.1</ele>
        <time>2021-08-23T09:12:38Z</time>
      </trkpt>
      <trkpt lat="45.66485" lon="5.72971">
        <ele>489.3</ele>
        <time>2021-08-23T09:12:40Z</time>
      </trkpt>
      <trkpt lat="45.66484" lon="5.72968">
        <ele>489.4</ele>
        <time>2021-08-23T09:12:41Z</time>
      </trkpt>
      <trkpt lat="45.66484" lon="5.72962">
        <ele>489.6</ele>
        <time>2021-08-23T09:12:43Z</time>
      </trkpt>
      <trkpt lat="45.66483" lon="5.72958">
        <ele>489.7</ele>
        <time>2021-08-23T09:12:44Z</time>
      </trkpt>
      <trkpt lat="45.66483" lon="5.72956">
        <ele>489.8</ele>
        <time>2021-08-23T09:12:45Z</time>
      </trkpt>
      <trkpt lat="45.66481" lon="5.72951">
        <ele>490</ele>
        <time>2021-08-23T09:12:47Z</time>
      </trkpt>
      <trkpt lat="45.66478" lon="5.72947">
        <ele>490.2</ele>
        <time>2021-08-23T09:12:48Z</time>
      </trkpt>
      <trkpt lat="45.66476" lon="5.72944">
        <ele>490.4</ele>
        <time>2021-08-23T09:12:50Z</time>
      </trkpt>
      <trkpt lat="45.66474" lon="5.72942">
        <ele>490.5</ele>
        <time>2021-08-23T09:12:51Z</time>
      </trkpt>
      <trkpt lat="45.66472" lon="5.7294">
        <ele>490.7</ele>
        <time>2021-08-23T09:12:53Z</time>
      </trkpt>
      <trkpt lat="45.6647" lon="5.72938">
        <ele>490.9</ele>
        <time>2021-08-23T09:12:54Z</time>
      </trkpt>
      <trkpt lat="45.66469" lon="5.72937">
        <ele>490.9</ele>
        <time>2021-08-23T09:12:56Z</time>
      </trkpt>
      <trkpt lat="45.66467" lon="5.72935">
        <ele>491.1</ele>
        <time>2021-08-23T09:12:57Z</time>
      </trkpt>
      <trkpt lat="45.66465" lon="5.72933">
        <ele>491.3</ele>
        <time>2021-08-23T09:12:59Z</time>
      </trkpt>
      <trkpt lat="45.66464" lon="5.72932">
        <ele>491.3</ele>
        <time>2021-08-23T09:13:00Z</time>
      </trkpt>
      <trkpt lat="45.66464" lon="5.72931">
        <ele>491.4</ele>
        <time>2021-08-23T09:13:01Z</time>
      </trkpt>
      <trkpt lat="45.66461" lon="5.72929">
        <ele>491.6</ele>
        <time>2021-08-23T09:13:03Z</time>
      </trkpt>
      <trkpt lat="45.66458" lon="5.72928">
        <ele>491.8</ele>
        <time>2021-08-23T09:13:04Z</time>
      </trkpt>
      <trkpt lat="45.66457" lon="5.72927">
        <ele>492</ele>
        <time>2021-08-23T09:13:05Z</time>
      </trkpt>
      <trkpt lat="45.66451" lon="5.72928">
        <ele>492.4</ele>
        <time>2021-08-23T09:13:07Z</time>
      </trkpt>
      <trkpt lat="45.66449" lon="5.7293">
        <ele>492.7</ele>
        <time>2021-08-23T09:13:08Z</time>
      </trkpt>
      <trkpt lat="45.66444" lon="5.72935">
        <ele>493.4</ele>
        <time>2021-08-23T09:13:10Z</time>
      </trkpt>
      <trkpt lat="45.66443" lon="5.72938">
        <ele>493.6</ele>
        <time>2021-08-23T09:13:11Z</time>
      </trkpt>
      <trkpt lat="45.66442" lon="5.72943">
        <ele>494.1</ele>
        <time>2021-08-23T09:13:13Z</time>
      </trkpt>
      <trkpt lat="45.66441" lon="5.72946">
        <ele>494.4</ele>
        <time>2021-08-23T09:13:14Z</time>
      </trkpt>
      <trkpt lat="45.6644" lon="5.72948">
        <ele>494.5</ele>
        <time>2021-08-23T09:13:16Z</time>
      </trkpt>
      <trkpt lat="45.66439" lon="5.72948">
        <ele>494.6</ele>
        <time>2021-08-23T09:13:17Z</time>
      </trkpt>
      <trkpt lat="45.66438" lon="5.72948">
        <ele>494.7</ele>
        <time>2021-08-23T09:13:18Z</time>
      </trkpt>
      <trkpt lat="45.66438" lon="5.72948">
        <ele>494.8</ele>
        <time>2021-08-23T09:13:19Z</time>
      </trkpt>
      <trkpt lat="45.66437" lon="5.72948">
        <ele>494.9</ele>
        <time>2021-08-23T09:13:21Z</time>
      </trkpt>
      <trkpt lat="45.66436" lon="5.72947">
        <ele>495.1</ele>
        <time>2021-08-23T09:13:22Z</time>
      </trkpt>
      <trkpt lat="45.66434" lon="5.72947">
        <ele>495.3</ele>
        <time>2021-08-23T09:13:24Z</time>
      </trkpt>
      <trkpt lat="45.66411" lon="5.72904">
        <ele>500.7</ele>
        <time>2021-08-23T09:14:22Z</time>
      </trkpt>
      <trkpt lat="45.66409" lon="5.729">
        <ele>501.1</ele>
        <time>2021-08-23T09:14:23Z</time>
      </trkpt>
      <trkpt lat="45.66409" lon="5.72899">
        <ele>501.4</ele>
        <time>2021-08-23T09:14:24Z</time>
      </trkpt>
      <trkpt lat="45.66407" lon="5.72898">
        <ele>501.6</ele>
        <time>2021-08-23T09:14:26Z</time>
      </trkpt>
      <trkpt lat="45.66407" lon="5.72897">
        <ele>501.7</ele>
        <time>2021-08-23T09:14:27Z</time>
      </trkpt>
      <trkpt lat="45.66406" lon="5.72897">
        <ele>501.8</ele>
        <time>2021-08-23T09:14:28Z</time>
      </trkpt>
      <trkpt lat="45.66405" lon="5.72896">
        <ele>501.9</ele>
        <time>2021-08-23T09:14:29Z</time>
      </trkpt>
      <trkpt lat="45.66405" lon="5.72896">
        <ele>502</ele>
        <time>2021-08-23T09:14:31Z</time>
      </trkpt>
      <trkpt lat="45.66405" lon="5.72896">
        <ele>502</ele>
        <time>2021-08-23T09:14:32Z</time>
      </trkpt>
      <trkpt lat="45.66405" lon="5.72896">
        <ele>502</ele>
        <time>2021-08-23T09:14:33Z</time>
      </trkpt>
      <trkpt lat="45.66404" lon="5.72896">
        <ele>502.1</ele>
        <time>2021-08-23T09:14:35Z</time>
      </trkpt>
      <trkpt lat="45.66404" lon="5.72896">
        <ele>502.1</ele>
        <time>2021-08-23T09:14:36Z</time>
      </trkpt>
      <trkpt lat="45.66404" lon="5.72896">
        <ele>502.1</ele>
        <time>2021-08-23T09:14:37Z</time>
      </trkpt>
      <trkpt lat="45.66404" lon="5.72896">
        <ele>502.1</ele>
        <time>2021-08-23T09:14:39Z</time>
      </trkpt>
      <trkpt lat="45.66274" lon="5.72787">
        <ele>523.6</ele>
        <time>2021-08-23T09:19:06Z</time>
      </trkpt>
      <trkpt lat="45.66272" lon="5.72786">
        <ele>523.8</ele>
        <time>2021-08-23T09:19:07Z</time>
      </trkpt>
      <trkpt lat="45.66271" lon="5.72786">
        <ele>523.8</ele>
        <time>2021-08-23T09:19:08Z</time>
      </trkpt>
      <trkpt lat="45.6627" lon="5.72786">
        <ele>523.9</ele>
        <time>2021-08-23T09:19:09Z</time>
      </trkpt>
      <trkpt lat="45.66269" lon="5.72786">
        <ele>524</ele>
        <time>2021-08-23T09:19:11Z</time>
      </trkpt>
      <trkpt lat="45.66269" lon="5.72786">
        <ele>524</ele>
        <time>2021-08-23T09:19:12Z</time>
      </trkpt>
      <trkpt lat="45.66269" lon="5.72786">
        <ele>524</ele>
        <time>2021-08-23T09:19:13Z</time>
      </trkpt>
      <trkpt lat="45.66269" lon="5.72786">
        <ele>524</ele>
        <time>2021-08-23T09:19:14Z</time>
      </trkpt>
      <trkpt lat="45.66268" lon="5.72786">
        <ele>524</ele>
        <time>2021-08-23T09:19:16Z</time>
      </trkpt>
      <trkpt lat="45.66268" lon="5.72786">
        <ele>524.1</ele>
        <time>2021-08-23T09:19:17Z</time>
      </trkpt>
      <trkpt lat="45.66268" lon="5.72786">
        <ele>524.1</ele>
        <time>2021-08-23T09:19:18Z</time>
      </trkpt>
      <trkpt lat="45.66268" lon="5.72786">
        <ele>524.1</ele>
        <time>2021-08-23T09:19:19Z</time>
      </trkpt>
      <trkpt lat="45.66268" lon="5.72786">
        <ele>524.1</ele>
        <time>2021-08-23T09:19:21Z</time>
      </trkpt>
      <trkpt lat="45.6626" lon="5.7278">
        <ele>524.7</ele>
        <time>2021-08-23T09:19:28Z</time>
      </trkpt>
      <trkpt lat="45.66257" lon="5.72777">
        <ele>524.9</ele>
        <time>2021-08-23T09:19:29Z</time>
      </trkpt>
      <trkpt lat="45.66251" lon="5.72773">
        <ele>525.3</ele>
        <time>2021-08-23T09:19:31Z</time>
      </trkpt>
      <trkpt lat="45.66248" lon="5.72771">
        <ele>525.5</ele>
        <time>2021-08-23T09:19:32Z</time>
      </trkpt>
      <trkpt lat="45.66247" lon="5.7277">
        <ele>525.6</ele>
        <time>2021-08-23T09:19:33Z</time>
      </trkpt>
      <trkpt lat="45.66243" lon="5.72768">
        <ele>525.8</ele>
        <time>2021-08-23T09:19:35Z</time>
      </trkpt>
      <trkpt lat="45.66242" lon="5.72767">
        <ele>525.9</ele>
        <time>2021-08-23T09:19:36Z</time>
      </trkpt>
      <trkpt lat="45.66241" lon="5.72766">
        <ele>525.9</ele>
        <time>2021-08-23T09:19:37Z</time>
      </trkpt>
      <trkpt lat="45.66239" lon="5.72764">
        <ele>526.1</ele>
        <time>2021-08-23T09:19:38Z</time>
      </trkpt>
      <trkpt lat="45.66237" lon="5.72762">
        <ele>526.2</ele>
        <time>2021-08-23T09:19:40Z</time>
      </trkpt>
      <trkpt lat="45.66234" lon="5.7276">
        <ele>526.4</ele>
        <time>2021-08-23T09:19:41Z</time>
      </trkpt>
      <trkpt lat="45.66233" lon="5.7276">
        <ele>526.5</ele>
        <time>2021-08-23T09:19:42Z</time>
      </trkpt>
      <trkpt lat="45.6623" lon="5.7276">
        <ele>526.6</ele>
        <time>2021-08-23T09:19:43Z</time>
      </trkpt>
      <trkpt lat="45.66228" lon="5.7276">
        <ele>526.7</ele>
        <time>2021-08-23T09:19:44Z</time>
      </trkpt>
      <trkpt lat="45.66226" lon="5.72759">
        <ele>526.8</ele>
        <time>2021-08-23T09:19:46Z</time>
      </trkpt>
      <trkpt lat="45.66224" lon="5.72759">
        <ele>526.9</ele>
        <time>2021-08-23T09:19:47Z</time>
      </trkpt>
      <trkpt lat="45.66222" lon="5.7276">
        <ele>527</ele>
        <time>2021-08-23T09:19:48Z</time>
      </trkpt>
      <trkpt lat="45.6622" lon="5.72759">
        <ele>527.1</ele>
        <time>2021-08-23T09:19:49Z</time>
      </trkpt>
      <trkpt lat="45.66216" lon="5.72757">
        <ele>527.3</ele>
        <time>2021-08-23T09:19:51Z</time>
      </trkpt>
      <trkpt lat="45.66213" lon="5.72755">
        <ele>527.5</ele>
        <time>2021-08-23T09:19:52Z</time>
      </trkpt>
      <trkpt lat="45.66212" lon="5.72754">
        <ele>527.5</ele>
        <time>2021-08-23T09:19:53Z</time>
      </trkpt>
      <trkpt lat="45.6621" lon="5.72751">
        <ele>527.6</ele>
        <time>2021-08-23T09:19:55Z</time>
      </trkpt>
      <trkpt lat="45.66208" lon="5.7275">
        <ele>527.7</ele>
        <time>2021-08-23T09:19:56Z</time>
      </trkpt>
      <trkpt lat="45.66206" lon="5.72747">
        <ele>527.9</ele>
        <time>2021-08-23T09:19:58Z</time>
      </trkpt>
      <trkpt lat="45.66205" lon="5.72745">
        <ele>528</ele>
        <time>2021-08-23T09:19:59Z</time>
      </trkpt>
      <trkpt lat="45.66205" lon="5.72744">
        <ele>528</ele>
        <time>2021-08-23T09:20:00Z</time>
      </trkpt>
      <trkpt lat="45.66206" lon="5.72739">
        <ele>528.3</ele>
        <time>2021-08-23T09:20:02Z</time>
      </trkpt>
      <trkpt lat="45.66206" lon="5.72736">
        <ele>528.4</ele>
        <time>2021-08-23T09:20:03Z</time>
      </trkpt>
      <trkpt lat="45.66206" lon="5.72733">
        <ele>528.5</ele>
        <time>2021-08-23T09:20:04Z</time>
      </trkpt>
      <trkpt lat="45.66207" lon="5.72728">
        <ele>528.8</ele>
        <time>2021-08-23T09:20:06Z</time>
      </trkpt>
      <trkpt lat="45.66208" lon="5.72724">
        <ele>529.1</ele>
        <time>2021-08-23T09:20:07Z</time>
      </trkpt>
      <trkpt lat="45.66209" lon="5.7272">
        <ele>529.4</ele>
        <time>2021-08-23T09:20:08Z</time>
      </trkpt>
      <trkpt lat="45.6621" lon="5.72719">
        <ele>529.5</ele>
        <time>2021-08-23T09:20:10Z</time>
      </trkpt>
      <trkpt lat="45.6621" lon="5.72718">
        <ele>529.6</ele>
        <time>2021-08-23T09:20:11Z</time>
      </trkpt>
      <trkpt lat="45.6621" lon="5.72717">
        <ele>529.6</ele>
        <time>2021-08-23T09:20:12Z</time>
      </trkpt>
      <trkpt lat="45.66211" lon="5.72717">
        <ele>529.7</ele>
        <time>2021-08-23T09:20:14Z</time>
      </trkpt>
      <trkpt lat="45.6621" lon="5.72716">
        <ele>529.7</ele>
        <time>2021-08-23T09:20:15Z</time>
      </trkpt>
      <trkpt lat="45.6621" lon="5.72715">
        <ele>529.8</ele>
        <time>2021-08-23T09:20:16Z</time>
      </trkpt>
      <trkpt lat="45.6621" lon="5.72714">
        <ele>529.9</ele>
        <time>2021-08-23T09:20:17Z</time>
      </trkpt>
      <trkpt lat="45.66208" lon="5.72711">
        <ele>530.2</ele>
        <time>2021-08-23T09:20:19Z</time>
      </trkpt>
      <trkpt lat="45.66192" lon="5.72694">
        <ele>531.7</ele>
        <time>2021-08-23T09:20:30Z</time>
      </trkpt>
      <trkpt lat="45.66188" lon="5.72691">
        <ele>532.1</ele>
        <time>2021-08-23T09:20:31Z</time>
      </trkpt>
      <trkpt lat="45.66186" lon="5.7269">
        <ele>532.4</ele>
        <time>2021-08-23T09:20:32Z</time>
      </trkpt>
      <trkpt lat="45.66184" lon="5.72688">
        <ele>532.7</ele>
        <time>2021-08-23T09:20:33Z</time>
      </trkpt>
      <trkpt lat="45.66181" lon="5.72686">
        <ele>533</ele>
        <time>2021-08-23T09:20:35Z</time>
      </trkpt>
      <trkpt lat="45.66178" lon="5.72684">
        <ele>533.3</ele>
        <time>2021-08-23T09:20:36Z</time>
      </trkpt>
      <trkpt lat="45.66176" lon="5.72683">
        <ele>533.6</ele>
        <time>2021-08-23T09:20:38Z</time>
      </trkpt>
      <trkpt lat="45.66175" lon="5.72682">
        <ele>533.7</ele>
        <time>2021-08-23T09:20:39Z</time>
      </trkpt>
      <trkpt lat="45.66174" lon="5.72682">
        <ele>533.8</ele>
        <time>2021-08-23T09:20:40Z</time>
      </trkpt>
      <trkpt lat="45.66172" lon="5.72681">
        <ele>533.9</ele>
        <time>2021-08-23T09:20:42Z</time>
      </trkpt>
      <trkpt lat="45.66171" lon="5.72681">
        <ele>534.1</ele>
        <time>2021-08-23T09:20:43Z</time>
      </trkpt>
      <trkpt lat="45.66168" lon="5.72678">
        <ele>534.5</ele>
        <time>2021-08-23T09:20:44Z</time>
      </trkpt>
      <trkpt lat="45.66167" lon="5.72678">
        <ele>534.6</ele>
        <time>2021-08-23T09:20:45Z</time>
      </trkpt>
      <trkpt lat="45.66163" lon="5.72676">
        <ele>535</ele>
        <time>2021-08-23T09:20:47Z</time>
      </trkpt>
      <trkpt lat="45.66162" lon="5.72675">
        <ele>535.1</ele>
        <time>2021-08-23T09:20:48Z</time>
      </trkpt>
      <trkpt lat="45.6616" lon="5.72673">
        <ele>535.4</ele>
        <time>2021-08-23T09:20:50Z</time>
      </trkpt>
      <trkpt lat="45.66159" lon="5.72671">
        <ele>535.5</ele>
        <time>2021-08-23T09:20:51Z</time>
      </trkpt>
      <trkpt lat="45.66157" lon="5.7267">
        <ele>535.7</ele>
        <time>2021-08-23T09:20:53Z</time>
      </trkpt>
      <trkpt lat="45.66156" lon="5.72669">
        <ele>535.9</ele>
        <time>2021-08-23T09:20:54Z</time>
      </trkpt>
      <trkpt lat="45.66139" lon="5.72649">
        <ele>538.3</ele>
        <time>2021-08-23T09:21:09Z</time>
      </trkpt>
      <trkpt lat="45.66136" lon="5.72647">
        <ele>538.7</ele>
        <time>2021-08-23T09:21:11Z</time>
      </trkpt>
      <trkpt lat="45.66135" lon="5.72644">
        <ele>539</ele>
        <time>2021-08-23T09:21:12Z</time>
      </trkpt>
      <trkpt lat="45.66134" lon="5.72644">
        <ele>539.2</ele>
        <time>2021-08-23T09:21:13Z</time>
      </trkpt>
      <trkpt lat="45.66128" lon="5.7264">
        <ele>540</ele>
        <time>2021-08-23T09:21:15Z</time>
      </trkpt>
      <trkpt lat="45.66125" lon="5.72637">
        <ele>540.5</ele>
        <time>2021-08-23T09:21:17Z</time>
      </trkpt>
      <trkpt lat="45.66123" lon="5.72634">
        <ele>541</ele>
        <time>2021-08-23T09:21:18Z</time>
      </trkpt>
      <trkpt lat="45.6612" lon="5.72631">
        <ele>541.6</ele>
        <time>2021-08-23T09:21:19Z</time>
      </trkpt>
      <trkpt lat="45.66117" lon="5.72628">
        <ele>542.2</ele>
        <time>2021-08-23T09:21:20Z</time>
      </trkpt>
      <trkpt lat="45.66114" lon="5.72625">
        <ele>542.8</ele>
        <time>2021-08-23T09:21:22Z</time>
      </trkpt>
      <trkpt lat="45.66111" lon="5.72622">
        <ele>543.4</ele>
        <time>2021-08-23T09:21:23Z</time>
      </trkpt>
      <trkpt lat="45.66108" lon="5.7262">
        <ele>544.2</ele>
        <time>2021-08-23T09:23:06Z</time>
      </trkpt>
      <trkpt lat="45.66106" lon="5.72617">
        <ele>544.9</ele>
        <time>2021-08-23T09:23:08Z</time>
      </trkpt>
      <trkpt lat="45.66103" lon="5.72614">
        <ele>545.6</ele>
        <time>2021-08-23T09:23:09Z</time>
      </trkpt>
      <trkpt lat="45.66102" lon="5.72612">
        <ele>546</ele>
        <time>2021-08-23T09:23:11Z</time>
      </trkpt>
      <trkpt lat="45.66101" lon="5.7261">
        <ele>546.2</ele>
        <time>2021-08-23T09:23:12Z</time>
      </trkpt>
      <trkpt lat="45.661" lon="5.72609">
        <ele>546.5</ele>
        <time>2021-08-23T09:23:14Z</time>
      </trkpt>
      <trkpt lat="45.661" lon="5.72608">
        <ele>546.7</ele>
        <time>2021-08-23T09:23:15Z</time>
      </trkpt>
      <trkpt lat="45.66099" lon="5.72607">
        <ele>546.8</ele>
        <time>2021-08-23T09:23:17Z</time>
      </trkpt>
      <trkpt lat="45.66099" lon="5.72607">
        <ele>546.9</ele>
        <time>2021-08-23T09:23:18Z</time>
      </trkpt>
      <trkpt lat="45.66099" lon="5.72606">
        <ele>547</ele>
        <time>2021-08-23T09:23:20Z</time>
      </trkpt>
      <trkpt lat="45.66099" lon="5.72606">
        <ele>547.1</ele>
        <time>2021-08-23T09:23:22Z</time>
      </trkpt>
      <trkpt lat="45.66098" lon="5.72606">
        <ele>547.1</ele>
        <time>2021-08-23T09:23:23Z</time>
      </trkpt>
      <trkpt lat="45.66098" lon="5.72605">
        <ele>547.2</ele>
        <time>2021-08-23T09:23:24Z</time>
      </trkpt>
      <trkpt lat="45.66098" lon="5.72604">
        <ele>547.4</ele>
        <time>2021-08-23T09:23:25Z</time>
      </trkpt>
      <trkpt lat="45.66097" lon="5.726">
        <ele>548.1</ele>
        <time>2021-08-23T09:23:27Z</time>
      </trkpt>
      <trkpt lat="45.66097" lon="5.72599">
        <ele>548.2</ele>
        <time>2021-08-23T09:23:28Z</time>
      </trkpt>
      <trkpt lat="45.66096" lon="5.72597">
        <ele>548.5</ele>
        <time>2021-08-23T09:23:29Z</time>
      </trkpt>
      <trkpt lat="45.66095" lon="5.72597">
        <ele>548.6</ele>
        <time>2021-08-23T09:23:30Z</time>
      </trkpt>
      <trkpt lat="45.66094" lon="5.72596">
        <ele>548.8</ele>
        <time>2021-08-23T09:23:32Z</time>
      </trkpt>
      <trkpt lat="45.66093" lon="5.72596">
        <ele>549</ele>
        <time>2021-08-23T09:23:33Z</time>
      </trkpt>
      <trkpt lat="45.66092" lon="5.72595">
        <ele>549.3</ele>
        <time>2021-08-23T09:23:35Z</time>
      </trkpt>
      <trkpt lat="45.66091" lon="5.72594">
        <ele>549.5</ele>
        <time>2021-08-23T09:23:36Z</time>
      </trkpt>
      <trkpt lat="45.6609" lon="5.72593">
        <ele>549.6</ele>
        <time>2021-08-23T09:23:38Z</time>
      </trkpt>
      <trkpt lat="45.6609" lon="5.72593">
        <ele>549.7</ele>
        <time>2021-08-23T09:23:39Z</time>
      </trkpt>
      <trkpt lat="45.6609" lon="5.72593">
        <ele>549.7</ele>
        <time>2021-08-23T09:23:40Z</time>
      </trkpt>
      <trkpt lat="45.6609" lon="5.72593">
        <ele>549.8</ele>
        <time>2021-08-23T09:23:41Z</time>
      </trkpt>
      <trkpt lat="45.66089" lon="5.72592">
        <ele>549.8</ele>
        <time>2021-08-23T09:23:43Z</time>
      </trkpt>
      <trkpt lat="45.66089" lon="5.72592">
        <ele>549.9</ele>
        <time>2021-08-23T09:23:44Z</time>
      </trkpt>
      <trkpt lat="45.66089" lon="5.72592">
        <ele>549.9</ele>
        <time>2021-08-23T09:23:46Z</time>
      </trkpt>
      <trkpt lat="45.66089" lon="5.72592">
        <ele>550</ele>
        <time>2021-08-23T09:23:47Z</time>
      </trkpt>
      <trkpt lat="45.66089" lon="5.72592">
        <ele>550</ele>
        <time>2021-08-23T09:23:49Z</time>
      </trkpt>
      <trkpt lat="45.66089" lon="5.72592">
        <ele>550</ele>
        <time>2021-08-23T09:23:51Z</time>
      </trkpt>
      <trkpt lat="45.66089" lon="5.72592">
        <ele>550</ele>
        <time>2021-08-23T09:23:52Z</time>
      </trkpt>
      <trkpt lat="45.66089" lon="5.72592">
        <ele>550</ele>
        <time>2021-08-23T09:23:54Z</time>
      </trkpt>
      <trkpt lat="45.66088" lon="5.72592">
        <ele>550</ele>
        <time>2021-08-23T09:23:55Z</time>
      </trkpt>
      <trkpt lat="45.66088" lon="5.72592">
        <ele>550.1</ele>
        <time>2021-08-23T09:23:57Z</time>
      </trkpt>
      <trkpt lat="45.66088" lon="5.72592">
        <ele>550.1</ele>
        <time>2021-08-23T09:23:58Z</time>
      </trkpt>
      <trkpt lat="45.66087" lon="5.72594">
        <ele>550.4</ele>
        <time>2021-08-23T09:24:00Z</time>
      </trkpt>
      <trkpt lat="45.66086" lon="5.72596">
        <ele>550.8</ele>
        <time>2021-08-23T09:24:01Z</time>
      </trkpt>
      <trkpt lat="45.66084" lon="5.72598">
        <ele>551.3</ele>
        <time>2021-08-23T09:24:03Z</time>
      </trkpt>
      <trkpt lat="45.66082" lon="5.72599">
        <ele>551.6</ele>
        <time>2021-08-23T09:24:04Z</time>
      </trkpt>
      <trkpt lat="45.66081" lon="5.72599">
        <ele>551.8</ele>
        <time>2021-08-23T09:24:05Z</time>
      </trkpt>
      <trkpt lat="45.66079" lon="5.72598">
        <ele>552.1</ele>
        <time>2021-08-23T09:24:06Z</time>
      </trkpt>
      <trkpt lat="45.66078" lon="5.72597">
        <ele>552.3</ele>
        <time>2021-08-23T09:24:08Z</time>
      </trkpt>
      <trkpt lat="45.66077" lon="5.72597">
        <ele>552.4</ele>
        <time>2021-08-23T09:24:09Z</time>
      </trkpt>
      <trkpt lat="45.66076" lon="5.72595">
        <ele>552.7</ele>
        <time>2021-08-23T09:24:10Z</time>
      </trkpt>
      <trkpt lat="45.66075" lon="5.72594">
        <ele>552.9</ele>
        <time>2021-08-23T09:24:11Z</time>
      </trkpt>
      <trkpt lat="45.66073" lon="5.72591">
        <ele>553.3</ele>
        <time>2021-08-23T09:24:12Z</time>
      </trkpt>
      <trkpt lat="45.6607" lon="5.72588">
        <ele>553.8</ele>
        <time>2021-08-23T09:24:14Z</time>
      </trkpt>
      <trkpt lat="45.66069" lon="5.72586">
        <ele>554.1</ele>
        <time>2021-08-23T09:24:16Z</time>
      </trkpt>
      <trkpt lat="45.66068" lon="5.72585">
        <ele>554.1</ele>
        <time>2021-08-23T09:24:17Z</time>
      </trkpt>
      <trkpt lat="45.66068" lon="5.72584">
        <ele>554.2</ele>
        <time>2021-08-23T09:24:18Z</time>
      </trkpt>
      <trkpt lat="45.66068" lon="5.72584">
        <ele>554.3</ele>
        <time>2021-08-23T09:24:20Z</time>
      </trkpt>
      <trkpt lat="45.66067" lon="5.72584">
        <ele>554.3</ele>
        <time>2021-08-23T09:24:21Z</time>
      </trkpt>
      <trkpt lat="45.66066" lon="5.72583">
        <ele>554.4</ele>
        <time>2021-08-23T09:24:22Z</time>
      </trkpt>
      <trkpt lat="45.66065" lon="5.72584">
        <ele>554.5</ele>
        <time>2021-08-23T09:24:24Z</time>
      </trkpt>
      <trkpt lat="45.66047" lon="5.72577">
        <ele>556</ele>
        <time>2021-08-23T09:24:45Z</time>
      </trkpt>
      <trkpt lat="45.66046" lon="5.72575">
        <ele>556.1</ele>
        <time>2021-08-23T09:24:46Z</time>
      </trkpt>
      <trkpt lat="45.66043" lon="5.72573">
        <ele>556.3</ele>
        <time>2021-08-23T09:24:48Z</time>
      </trkpt>
      <trkpt lat="45.6604" lon="5.72571">
        <ele>556.5</ele>
        <time>2021-08-23T09:24:49Z</time>
      </trkpt>
      <trkpt lat="45.66039" lon="5.72571">
        <ele>556.6</ele>
        <time>2021-08-23T09:24:50Z</time>
      </trkpt>
      <trkpt lat="45.66036" lon="5.7257">
        <ele>556.8</ele>
        <time>2021-08-23T09:24:51Z</time>
      </trkpt>
      <trkpt lat="45.66035" lon="5.72569">
        <ele>556.9</ele>
        <time>2021-08-23T09:24:53Z</time>
      </trkpt>
      <trkpt lat="45.66033" lon="5.72568">
        <ele>557</ele>
        <time>2021-08-23T09:24:54Z</time>
      </trkpt>
      <trkpt lat="45.66032" lon="5.72567">
        <ele>557.1</ele>
        <time>2021-08-23T09:24:55Z</time>
      </trkpt>
      <trkpt lat="45.6603" lon="5.72567">
        <ele>557.3</ele>
        <time>2021-08-23T09:24:56Z</time>
      </trkpt>
      <trkpt lat="45.66029" lon="5.72566">
        <ele>557.4</ele>
        <time>2021-08-23T09:24:58Z</time>
      </trkpt>
      <trkpt lat="45.66028" lon="5.72566">
        <ele>557.4</ele>
        <time>2021-08-23T09:24:59Z</time>
      </trkpt>
      <trkpt lat="45.66026" lon="5.72566">
        <ele>557.6</ele>
        <time>2021-08-23T09:25:00Z</time>
      </trkpt>
      <trkpt lat="45.66023" lon="5.72567">
        <ele>557.9</ele>
        <time>2021-08-23T09:25:02Z</time>
      </trkpt>
      <trkpt lat="45.66021" lon="5.72567">
        <ele>558.1</ele>
        <time>2021-08-23T09:25:03Z</time>
      </trkpt>
      <trkpt lat="45.66018" lon="5.72567">
        <ele>558.3</ele>
        <time>2021-08-23T09:25:04Z</time>
      </trkpt>
      <trkpt lat="45.66014" lon="5.72568">
        <ele>558.7</ele>
        <time>2021-08-23T09:25:06Z</time>
      </trkpt>
      <trkpt lat="45.6601" lon="5.72569">
        <ele>559</ele>
        <time>2021-08-23T09:25:07Z</time>
      </trkpt>
      <trkpt lat="45.66008" lon="5.7257">
        <ele>559.1</ele>
        <time>2021-08-23T09:25:08Z</time>
      </trkpt>
      <trkpt lat="45.66005" lon="5.72569">
        <ele>559.3</ele>
        <time>2021-08-23T09:25:09Z</time>
      </trkpt>
      <trkpt lat="45.66004" lon="5.72569">
        <ele>559.4</ele>
        <time>2021-08-23T09:25:10Z</time>
      </trkpt>
      <trkpt lat="45.66004" lon="5.72568">
        <ele>559.4</ele>
        <time>2021-08-23T09:25:11Z</time>
      </trkpt>
      <trkpt lat="45.66002" lon="5.72567">
        <ele>559.5</ele>
        <time>2021-08-23T09:25:12Z</time>
      </trkpt>
      <trkpt lat="45.66001" lon="5.72567">
        <ele>559.5</ele>
        <time>2021-08-23T09:25:13Z</time>
      </trkpt>
      <trkpt lat="45.65999" lon="5.72566">
        <ele>559.6</ele>
        <time>2021-08-23T09:25:15Z</time>
      </trkpt>
      <trkpt lat="45.65998" lon="5.72566">
        <ele>559.7</ele>
        <time>2021-08-23T09:25:16Z</time>
      </trkpt>
      <trkpt lat="45.65996" lon="5.72566">
        <ele>559.7</ele>
        <time>2021-08-23T09:25:17Z</time>
      </trkpt>
      <trkpt lat="45.65994" lon="5.72565">
        <ele>559.8</ele>
        <time>2021-08-23T09:25:18Z</time>
      </trkpt>
      <trkpt lat="45.65994" lon="5.72565">
        <ele>559.8</ele>
        <time>2021-08-23T09:25:19Z</time>
      </trkpt>
      <trkpt lat="45.65994" lon="5.72565">
        <ele>559.8</ele>
        <time>2021-08-23T09:25:21Z</time>
      </trkpt>
      <trkpt lat="45.65993" lon="5.72564">
        <ele>559.8</ele>
        <time>2021-08-23T09:25:22Z</time>
      </trkpt>
      <trkpt lat="45.65993" lon="5.72564">
        <ele>559.8</ele>
        <time>2021-08-23T09:25:23Z</time>
      </trkpt>
      <trkpt lat="45.65993" lon="5.72564">
        <ele>559.8</ele>
        <time>2021-08-23T09:25:25Z</time>
      </trkpt>
      <trkpt lat="45.65993" lon="5.72564">
        <ele>559.8</ele>
        <time>2021-08-23T09:25:26Z</time>
      </trkpt>
      <trkpt lat="45.65993" lon="5.72564">
        <ele>559.9</ele>
        <time>2021-08-23T09:25:27Z</time>
      </trkpt>
      <trkpt lat="45.6593" lon="5.72512">
        <ele>568</ele>
        <time>2021-08-23T09:27:56Z</time>
      </trkpt>
      <trkpt lat="45.65927" lon="5.72509">
        <ele>568.6</ele>
        <time>2021-08-23T09:27:57Z</time>
      </trkpt>
      <trkpt lat="45.65927" lon="5.72508">
        <ele>568.8</ele>
        <time>2021-08-23T09:27:58Z</time>
      </trkpt>
      <trkpt lat="45.65924" lon="5.72508">
        <ele>569.3</ele>
        <time>2021-08-23T09:28:00Z</time>
      </trkpt>
      <trkpt lat="45.65923" lon="5.72508">
        <ele>569.5</ele>
        <time>2021-08-23T09:28:01Z</time>
      </trkpt>
      <trkpt lat="45.65921" lon="5.72508">
        <ele>569.7</ele>
        <time>2021-08-23T09:28:02Z</time>
      </trkpt>
      <trkpt lat="45.65918" lon="5.72508">
        <ele>570.2</ele>
        <time>2021-08-23T09:28:04Z</time>
      </trkpt>
      <trkpt lat="45.65916" lon="5.72508">
        <ele>570.6</ele>
        <time>2021-08-23T09:28:05Z</time>
      </trkpt>
      <trkpt lat="45.65915" lon="5.72508">
        <ele>570.8</ele>
        <time>2021-08-23T09:28:06Z</time>
      </trkpt>
      <trkpt lat="45.65913" lon="5.72507">
        <ele>571.1</ele>
        <time>2021-08-23T09:28:08Z</time>
      </trkpt>
      <trkpt lat="45.65913" lon="5.72507">
        <ele>571.2</ele>
        <time>2021-08-23T09:28:09Z</time>
      </trkpt>
      <trkpt lat="45.65912" lon="5.72506">
        <ele>571.3</ele>
        <time>2021-08-23T09:28:10Z</time>
      </trkpt>
      <trkpt lat="45.65912" lon="5.72505">
        <ele>571.4</ele>
        <time>2021-08-23T09:28:12Z</time>
      </trkpt>
      <trkpt lat="45.65911" lon="5.72505">
        <ele>571.6</ele>
        <time>2021-08-23T09:28:13Z</time>
      </trkpt>
      <trkpt lat="45.6591" lon="5.72505">
        <ele>571.7</ele>
        <time>2021-08-23T09:28:14Z</time>
      </trkpt>
      <trkpt lat="45.65909" lon="5.72504">
        <ele>571.8</ele>
        <time>2021-08-23T09:28:15Z</time>
      </trkpt>
      <trkpt lat="45.65908" lon="5.72504">
        <ele>572</ele>
        <time>2021-08-23T09:28:17Z</time>
      </trkpt>
      <trkpt lat="45.65908" lon="5.72504">
        <ele>572.1</ele>
        <time>2021-08-23T09:28:18Z</time>
      </trkpt>
      <trkpt lat="45.65907" lon="5.72504">
        <ele>572.1</ele>
        <time>2021-08-23T09:28:19Z</time>
      </trkpt>
      <trkpt lat="45.65907" lon="5.72504">
        <ele>572.2</ele>
        <time>2021-08-23T09:28:20Z</time>
      </trkpt>
      <trkpt lat="45.65907" lon="5.72504">
        <ele>572.2</ele>
        <time>2021-08-23T09:28:22Z</time>
      </trkpt>
      <trkpt lat="45.65906" lon="5.72504">
        <ele>572.3</ele>
        <time>2021-08-23T09:28:23Z</time>
      </trkpt>
      <trkpt lat="45.65829" lon="5.7246">
        <ele>583.8</ele>
        <time>2021-08-23T09:31:39Z</time>
      </trkpt>
      <trkpt lat="45.65827" lon="5.7246">
        <ele>583.9</ele>
        <time>2021-08-23T09:31:40Z</time>
      </trkpt>
      <trkpt lat="45.65827" lon="5.72459">
        <ele>583.9</ele>
        <time>2021-08-23T09:31:41Z</time>
      </trkpt>
      <trkpt lat="45.65826" lon="5.72459">
        <ele>584</ele>
        <time>2021-08-23T09:31:43Z</time>
      </trkpt>
      <trkpt lat="45.65826" lon="5.72458">
        <ele>584</ele>
        <time>2021-08-23T09:31:44Z</time>
      </trkpt>
      <trkpt lat="45.65826" lon="5.72458">
        <ele>584.1</ele>
        <time>2021-08-23T09:31:46Z</time>
      </trkpt>
      <trkpt lat="45.65826" lon="5.72458">
        <ele>584.1</ele>
        <time>2021-08-23T09:31:47Z</time>
      </trkpt>
      <trkpt lat="45.65826" lon="5.72458">
        <ele>584.1</ele>
        <time>2021-08-23T09:31:48Z</time>
      </trkpt>
      <trkpt lat="45.65826" lon="5.72458">
        <ele>584.1</ele>
        <time>2021-08-23T09:31:49Z</time>
      </trkpt>
      <trkpt lat="45.65825" lon="5.72458">
        <ele>584.1</ele>
        <time>2021-08-23T09:31:51Z</time>
      </trkpt>
      <trkpt lat="45.65825" lon="5.72457">
        <ele>584.2</ele>
        <time>2021-08-23T09:31:52Z</time>
      </trkpt>
      <trkpt lat="45.65824" lon="5.72456">
        <ele>584.3</ele>
        <time>2021-08-23T09:31:53Z</time>
      </trkpt>
      <trkpt lat="45.65824" lon="5.72455">
        <ele>584.4</ele>
        <time>2021-08-23T09:31:55Z</time>
      </trkpt>
      <trkpt lat="45.65823" lon="5.72454">
        <ele>584.5</ele>
        <time>2021-08-23T09:31:56Z</time>
      </trkpt>
      <trkpt lat="45.65822" lon="5.72453">
        <ele>584.7</ele>
        <time>2021-08-23T09:31:57Z</time>
      </trkpt>
      <trkpt lat="45.6582" lon="5.72451">
        <ele>584.8</ele>
        <time>2021-08-23T09:31:59Z</time>
      </trkpt>
      <trkpt lat="45.65819" lon="5.7245">
        <ele>585</ele>
        <time>2021-08-23T09:32:00Z</time>
      </trkpt>
      <trkpt lat="45.65818" lon="5.72448">
        <ele>585.2</ele>
        <time>2021-08-23T09:32:01Z</time>
      </trkpt>
      <trkpt lat="45.65817" lon="5.72448">
        <ele>585.3</ele>
        <time>2021-08-23T09:32:03Z</time>
      </trkpt>
      <trkpt lat="45.65816" lon="5.72447">
        <ele>585.3</ele>
        <time>2021-08-23T09:32:04Z</time>
      </trkpt>
      <trkpt lat="45.65816" lon="5.72447">
        <ele>585.4</ele>
        <time>2021-08-23T09:32:05Z</time>
      </trkpt>
      <trkpt lat="45.65815" lon="5.72447">
        <ele>585.4</ele>
        <time>2021-08-23T09:32:07Z</time>
      </trkpt>
      <trkpt lat="45.65815" lon="5.72446">
        <ele>585.4</ele>
        <time>2021-08-23T09:32:08Z</time>
      </trkpt>
      <trkpt lat="45.65815" lon="5.72446">
        <ele>585.5</ele>
        <time>2021-08-23T09:32:09Z</time>
      </trkpt>
      <trkpt lat="45.65815" lon="5.72446">
        <ele>585.5</ele>
        <time>2021-08-23T09:32:10Z</time>
      </trkpt>
      <trkpt lat="45.65814" lon="5.72446">
        <ele>585.6</ele>
        <time>2021-08-23T09:32:12Z</time>
      </trkpt>
      <trkpt lat="45.65814" lon="5.72445">
        <ele>585.6</ele>
        <time>2021-08-23T09:32:13Z</time>
      </trkpt>
      <trkpt lat="45.65813" lon="5.72445">
        <ele>585.7</ele>
        <time>2021-08-23T09:32:14Z</time>
      </trkpt>
      <trkpt lat="45.65812" lon="5.72445">
        <ele>585.9</ele>
        <time>2021-08-23T09:32:16Z</time>
      </trkpt>
      <trkpt lat="45.65811" lon="5.72445">
        <ele>585.9</ele>
        <time>2021-08-23T09:32:17Z</time>
      </trkpt>
      <trkpt lat="45.6581" lon="5.72445">
        <ele>586</ele>
        <time>2021-08-23T09:32:18Z</time>
      </trkpt>
      <trkpt lat="45.65808" lon="5.72445">
        <ele>586.2</ele>
        <time>2021-08-23T09:32:20Z</time>
      </trkpt>
      <trkpt lat="45.65807" lon="5.72444">
        <ele>586.4</ele>
        <time>2021-08-23T09:32:21Z</time>
      </trkpt>
      <trkpt lat="45.65806" lon="5.72444">
        <ele>586.5</ele>
        <time>2021-08-23T09:32:22Z</time>
      </trkpt>
      <trkpt lat="45.65804" lon="5.72445">
        <ele>586.7</ele>
        <time>2021-08-23T09:32:24Z</time>
      </trkpt>
      <trkpt lat="45.65803" lon="5.72445">
        <ele>586.9</ele>
        <time>2021-08-23T09:32:26Z</time>
      </trkpt>
      <trkpt lat="45.65802" lon="5.72445">
        <ele>587</ele>
        <time>2021-08-23T09:32:27Z</time>
      </trkpt>
      <trkpt lat="45.65801" lon="5.72445">
        <ele>587.1</ele>
        <time>2021-08-23T09:32:28Z</time>
      </trkpt>
      <trkpt lat="45.65801" lon="5.72446">
        <ele>587.2</ele>
        <time>2021-08-23T09:32:29Z</time>
      </trkpt>
      <trkpt lat="45.658" lon="5.72446">
        <ele>587.2</ele>
        <time>2021-08-23T09:32:30Z</time>
      </trkpt>
      <trkpt lat="45.658" lon="5.72446">
        <ele>587.3</ele>
        <time>2021-08-23T09:32:32Z</time>
      </trkpt>
      <trkpt lat="45.658" lon="5.72447">
        <ele>587.3</ele>
        <time>2021-08-23T09:32:33Z</time>
      </trkpt>
      <trkpt lat="45.65799" lon="5.72447">
        <ele>587.4</ele>
        <time>2021-08-23T09:32:34Z</time>
      </trkpt>
      <trkpt lat="45.65799" lon="5.72447">
        <ele>587.4</ele>
        <time>2021-08-23T09:32:35Z</time>
      </trkpt>
      <trkpt lat="45.65799" lon="5.72447">
        <ele>587.4</ele>
        <time>2021-08-23T09:32:37Z</time>
      </trkpt>
      <trkpt lat="45.65799" lon="5.72447">
        <ele>587.4</ele>
        <time>2021-08-23T09:32:38Z</time>
      </trkpt>
      <trkpt lat="45.65798" lon="5.72447">
        <ele>587.5</ele>
        <time>2021-08-23T09:32:39Z</time>
      </trkpt>
      <trkpt lat="45.65795" lon="5.72449">
        <ele>588</ele>
        <time>2021-08-23T09:32:41Z</time>
      </trkpt>
      <trkpt lat="45.65794" lon="5.72449">
        <ele>588.1</ele>
        <time>2021-08-23T09:32:42Z</time>
      </trkpt>
      <trkpt lat="45.65793" lon="5.72449">
        <ele>588.3</ele>
        <time>2021-08-23T09:32:43Z</time>
      </trkpt>
      <trkpt lat="45.65792" lon="5.72449">
        <ele>588.4</ele>
        <time>2021-08-23T09:32:44Z</time>
      </trkpt>
      <trkpt lat="45.65791" lon="5.7245">
        <ele>588.6</ele>
        <time>2021-08-23T09:32:46Z</time>
      </trkpt>
      <trkpt lat="45.65788" lon="5.72449">
        <ele>588.9</ele>
        <time>2021-08-23T09:32:48Z</time>
      </trkpt>
      <trkpt lat="45.65787" lon="5.72449">
        <ele>589.1</ele>
        <time>2021-08-23T09:32:49Z</time>
      </trkpt>
      <trkpt lat="45.65786" lon="5.72449">
        <ele>589.2</ele>
        <time>2021-08-23T09:32:50Z</time>
      </trkpt>
      <trkpt lat="45.65785" lon="5.72449">
        <ele>589.3</ele>
        <time>2021-08-23T09:32:52Z</time>
      </trkpt>
      <trkpt lat="45.65784" lon="5.72449">
        <ele>589.5</ele>
        <time>2021-08-23T09:32:53Z</time>
      </trkpt>
      <trkpt lat="45.65783" lon="5.72448">
        <ele>589.6</ele>
        <time>2021-08-23T09:32:54Z</time>
      </trkpt>
      <trkpt lat="45.65781" lon="5.72448">
        <ele>589.9</ele>
        <time>2021-08-23T09:32:55Z</time>
      </trkpt>
      <trkpt lat="45.65779" lon="5.72447">
        <ele>590.2</ele>
        <time>2021-08-23T09:32:57Z</time>
      </trkpt>
      <trkpt lat="45.65777" lon="5.72446">
        <ele>590.5</ele>
        <time>2021-08-23T09:32:58Z</time>
      </trkpt>
      <trkpt lat="45.65776" lon="5.72446">
        <ele>590.6</ele>
        <time>2021-08-23T09:32:59Z</time>
      </trkpt>
      <trkpt lat="45.65775" lon="5.72446">
        <ele>590.7</ele>
        <time>2021-08-23T09:33:00Z</time>
      </trkpt>
      <trkpt lat="45.65773" lon="5.72445">
        <ele>590.9</ele>
        <time>2021-08-23T09:33:02Z</time>
      </trkpt>
      <trkpt lat="45.65772" lon="5.72445">
        <ele>591</ele>
        <time>2021-08-23T09:33:03Z</time>
      </trkpt>
      <trkpt lat="45.65769" lon="5.72445">
        <ele>591.4</ele>
        <time>2021-08-23T09:33:04Z</time>
      </trkpt>
      <trkpt lat="45.65756" lon="5.72443">
        <ele>592.7</ele>
        <time>2021-08-23T09:33:06Z</time>
      </trkpt>
      <trkpt lat="45.65753" lon="5.72443">
        <ele>593</ele>
        <time>2021-08-23T09:33:07Z</time>
      </trkpt>
      <trkpt lat="45.65752" lon="5.72443">
        <ele>593.1</ele>
        <time>2021-08-23T09:33:08Z</time>
      </trkpt>
      <trkpt lat="45.65752" lon="5.72443">
        <ele>593.1</ele>
        <time>2021-08-23T09:33:09Z</time>
      </trkpt>
      <trkpt lat="45.65751" lon="5.72443">
        <ele>593.2</ele>
        <time>2021-08-23T09:33:11Z</time>
      </trkpt>
      <trkpt lat="45.65749" lon="5.72442">
        <ele>593.4</ele>
        <time>2021-08-23T09:33:13Z</time>
      </trkpt>
      <trkpt lat="45.65748" lon="5.72442">
        <ele>593.5</ele>
        <time>2021-08-23T09:33:14Z</time>
      </trkpt>
      <trkpt lat="45.65747" lon="5.72442">
        <ele>593.6</ele>
        <time>2021-08-23T09:33:15Z</time>
      </trkpt>
      <trkpt lat="45.65746" lon="5.72442">
        <ele>593.7</ele>
        <time>2021-08-23T09:33:16Z</time>
      </trkpt>
      <trkpt lat="45.65745" lon="5.72441">
        <ele>593.8</ele>
        <time>2021-08-23T09:33:17Z</time>
      </trkpt>
      <trkpt lat="45.65744" lon="5.72441">
        <ele>593.9</ele>
        <time>2021-08-23T09:33:18Z</time>
      </trkpt>
      <trkpt lat="45.65742" lon="5.72441">
        <ele>594</ele>
        <time>2021-08-23T09:33:19Z</time>
      </trkpt>
      <trkpt lat="45.6574" lon="5.7244">
        <ele>594.3</ele>
        <time>2021-08-23T09:33:21Z</time>
      </trkpt>
      <trkpt lat="45.65738" lon="5.72439">
        <ele>594.5</ele>
        <time>2021-08-23T09:33:22Z</time>
      </trkpt>
      <trkpt lat="45.65736" lon="5.72439">
        <ele>594.7</ele>
        <time>2021-08-23T09:33:23Z</time>
      </trkpt>
      <trkpt lat="45.65734" lon="5.72439">
        <ele>594.8</ele>
        <time>2021-08-23T09:33:24Z</time>
      </trkpt>
      <trkpt lat="45.65733" lon="5.72438">
        <ele>595</ele>
        <time>2021-08-23T09:33:25Z</time>
      </trkpt>
      <trkpt lat="45.6573" lon="5.72438">
        <ele>595.2</ele>
        <time>2021-08-23T09:33:27Z</time>
      </trkpt>
      <trkpt lat="45.65729" lon="5.72438">
        <ele>595.3</ele>
        <time>2021-08-23T09:33:28Z</time>
      </trkpt>
      <trkpt lat="45.65726" lon="5.72437">
        <ele>595.5</ele>
        <time>2021-08-23T09:33:30Z</time>
      </trkpt>
      <trkpt lat="45.65726" lon="5.72437">
        <ele>595.6</ele>
        <time>2021-08-23T09:33:31Z</time>
      </trkpt>
      <trkpt lat="45.65725" lon="5.72436">
        <ele>595.6</ele>
        <time>2021-08-23T09:33:32Z</time>
      </trkpt>
      <trkpt lat="45.65724" lon="5.72436">
        <ele>595.7</ele>
        <time>2021-08-23T09:33:33Z</time>
      </trkpt>
      <trkpt lat="45.65724" lon="5.72435">
        <ele>595.8</ele>
        <time>2021-08-23T09:33:35Z</time>
      </trkpt>
      <trkpt lat="45.65724" lon="5.72435">
        <ele>595.8</ele>
        <time>2021-08-23T09:33:36Z</time>
      </trkpt>
      <trkpt lat="45.65723" lon="5.72434">
        <ele>595.8</ele>
        <time>2021-08-23T09:33:38Z</time>
      </trkpt>
      <trkpt lat="45.65723" lon="5.72434">
        <ele>595.8</ele>
        <time>2021-08-23T09:33:39Z</time>
      </trkpt>
      <trkpt lat="45.65723" lon="5.72434">
        <ele>595.9</ele>
        <time>2021-08-23T09:33:40Z</time>
      </trkpt>
      <trkpt lat="45.65722" lon="5.72433">
        <ele>595.9</ele>
        <time>2021-08-23T09:33:42Z</time>
      </trkpt>
      <trkpt lat="45.65721" lon="5.72432">
        <ele>596</ele>
        <time>2021-08-23T09:33:43Z</time>
      </trkpt>
      <trkpt lat="45.6572" lon="5.72431">
        <ele>596.1</ele>
        <time>2021-08-23T09:33:45Z</time>
      </trkpt>
      <trkpt lat="45.65719" lon="5.7243">
        <ele>596.2</ele>
        <time>2021-08-23T09:33:46Z</time>
      </trkpt>
      <trkpt lat="45.65718" lon="5.72429">
        <ele>596.2</ele>
        <time>2021-08-23T09:33:47Z</time>
      </trkpt>
      <trkpt lat="45.65718" lon="5.72428">
        <ele>596.3</ele>
        <time>2021-08-23T09:33:48Z</time>
      </trkpt>
      <trkpt lat="45.65717" lon="5.72426">
        <ele>596.4</ele>
        <time>2021-08-23T09:33:50Z</time>
      </trkpt>
      <trkpt lat="45.65716" lon="5.72422">
        <ele>596.5</ele>
        <time>2021-08-23T09:33:52Z</time>
      </trkpt>
      <trkpt lat="45.65715" lon="5.72418">
        <ele>596.7</ele>
        <time>2021-08-23T09:33:54Z</time>
      </trkpt>
      <trkpt lat="45.65715" lon="5.72412">
        <ele>596.9</ele>
        <time>2021-08-23T09:33:56Z</time>
      </trkpt>
      <trkpt lat="45.65714" lon="5.72407">
        <ele>597.2</ele>
        <time>2021-08-23T09:33:58Z</time>
      </trkpt>
      <trkpt lat="45.65714" lon="5.72405">
        <ele>597.3</ele>
        <time>2021-08-23T09:33:59Z</time>
      </trkpt>
      <trkpt lat="45.65712" lon="5.72402">
        <ele>597.4</ele>
        <time>2021-08-23T09:34:01Z</time>
      </trkpt>
      <trkpt lat="45.65711" lon="5.72401">
        <ele>597.5</ele>
        <time>2021-08-23T09:34:02Z</time>
      </trkpt>
      <trkpt lat="45.6571" lon="5.72399">
        <ele>597.7</ele>
        <time>2021-08-23T09:34:04Z</time>
      </trkpt>
      <trkpt lat="45.65709" lon="5.72396">
        <ele>597.8</ele>
        <time>2021-08-23T09:34:05Z</time>
      </trkpt>
      <trkpt lat="45.65709" lon="5.72396">
        <ele>597.8</ele>
        <time>2021-08-23T09:34:06Z</time>
      </trkpt>
      <trkpt lat="45.65708" lon="5.72395">
        <ele>597.8</ele>
        <time>2021-08-23T09:34:07Z</time>
      </trkpt>
      <trkpt lat="45.65708" lon="5.72394">
        <ele>597.9</ele>
        <time>2021-08-23T09:34:09Z</time>
      </trkpt>
      <trkpt lat="45.65707" lon="5.72393">
        <ele>598</ele>
        <time>2021-08-23T09:34:10Z</time>
      </trkpt>
      <trkpt lat="45.65707" lon="5.72391">
        <ele>598</ele>
        <time>2021-08-23T09:34:11Z</time>
      </trkpt>
      <trkpt lat="45.65705" lon="5.72385">
        <ele>598.4</ele>
        <time>2021-08-23T09:34:13Z</time>
      </trkpt>
      <trkpt lat="45.65704" lon="5.72382">
        <ele>598.5</ele>
        <time>2021-08-23T09:34:14Z</time>
      </trkpt>
      <trkpt lat="45.65703" lon="5.7238">
        <ele>598.7</ele>
        <time>2021-08-23T09:34:15Z</time>
      </trkpt>
      <trkpt lat="45.65702" lon="5.72377">
        <ele>598.9</ele>
        <time>2021-08-23T09:34:17Z</time>
      </trkpt>
      <trkpt lat="45.65701" lon="5.72375">
        <ele>599</ele>
        <time>2021-08-23T09:34:18Z</time>
      </trkpt>
      <trkpt lat="45.65695" lon="5.72366">
        <ele>599.9</ele>
        <time>2021-08-23T09:34:19Z</time>
      </trkpt>
      <trkpt lat="45.65689" lon="5.72362">
        <ele>600.7</ele>
        <time>2021-08-23T09:34:20Z</time>
      </trkpt>
      <trkpt lat="45.65678" lon="5.72364">
        <ele>601.9</ele>
        <time>2021-08-23T09:34:23Z</time>
      </trkpt>
      <trkpt lat="45.65675" lon="5.72368">
        <ele>602.3</ele>
        <time>2021-08-23T09:34:24Z</time>
      </trkpt>
      <trkpt lat="45.65673" lon="5.7237">
        <ele>602.6</ele>
        <time>2021-08-23T09:34:26Z</time>
      </trkpt>
      <trkpt lat="45.6567" lon="5.72373">
        <ele>602.9</ele>
        <time>2021-08-23T09:34:27Z</time>
      </trkpt>
      <trkpt lat="45.65665" lon="5.72381">
        <ele>603.6</ele>
        <time>2021-08-23T09:34:28Z</time>
      </trkpt>
      <trkpt lat="45.65661" lon="5.72386">
        <ele>603.9</ele>
        <time>2021-08-23T09:34:29Z</time>
      </trkpt>
      <trkpt lat="45.65658" lon="5.72386">
        <ele>604.1</ele>
        <time>2021-08-23T09:34:30Z</time>
      </trkpt>
      <trkpt lat="45.65655" lon="5.72386">
        <ele>604.3</ele>
        <time>2021-08-23T09:34:31Z</time>
      </trkpt>
      <trkpt lat="45.65653" lon="5.72386">
        <ele>604.4</ele>
        <time>2021-08-23T09:34:32Z</time>
      </trkpt>
      <trkpt lat="45.65649" lon="5.7239">
        <ele>604.5</ele>
        <time>2021-08-23T09:34:34Z</time>
      </trkpt>
      <trkpt lat="45.65646" lon="5.72394">
        <ele>604.7</ele>
        <time>2021-08-23T09:34:35Z</time>
      </trkpt>
      <trkpt lat="45.65645" lon="5.72396">
        <ele>604.8</ele>
        <time>2021-08-23T09:34:36Z</time>
      </trkpt>
      <trkpt lat="45.65641" lon="5.72401">
        <ele>605</ele>
        <time>2021-08-23T09:34:38Z</time>
      </trkpt>
      <trkpt lat="45.65639" lon="5.72403">
        <ele>605.1</ele>
        <time>2021-08-23T09:34:39Z</time>
      </trkpt>
      <trkpt lat="45.65635" lon="5.72406">
        <ele>605.3</ele>
        <time>2021-08-23T09:34:41Z</time>
      </trkpt>
      <trkpt lat="45.65632" lon="5.72408">
        <ele>605.5</ele>
        <time>2021-08-23T09:34:42Z</time>
      </trkpt>
      <trkpt lat="45.65628" lon="5.72411">
        <ele>605.7</ele>
        <time>2021-08-23T09:34:43Z</time>
      </trkpt>
      <trkpt lat="45.65623" lon="5.72414">
        <ele>606.2</ele>
        <time>2021-08-23T09:34:45Z</time>
      </trkpt>
      <trkpt lat="45.6562" lon="5.72415">
        <ele>606.4</ele>
        <time>2021-08-23T09:34:47Z</time>
      </trkpt>
      <trkpt lat="45.6562" lon="5.72415">
        <ele>606.4</ele>
        <time>2021-08-23T09:34:48Z</time>
      </trkpt>
      <trkpt lat="45.65619" lon="5.72415">
        <ele>606.5</ele>
        <time>2021-08-23T09:34:49Z</time>
      </trkpt>
      <trkpt lat="45.65618" lon="5.72417">
        <ele>606.6</ele>
        <time>2021-08-23T09:34:50Z</time>
      </trkpt>
      <trkpt lat="45.65618" lon="5.72417">
        <ele>606.7</ele>
        <time>2021-08-23T09:34:51Z</time>
      </trkpt>
      <trkpt lat="45.65614" lon="5.7242">
        <ele>607.1</ele>
        <time>2021-08-23T09:34:53Z</time>
      </trkpt>
      <trkpt lat="45.65614" lon="5.72421">
        <ele>607.1</ele>
        <time>2021-08-23T09:34:54Z</time>
      </trkpt>
      <trkpt lat="45.65614" lon="5.7242">
        <ele>607.2</ele>
        <time>2021-08-23T09:34:56Z</time>
      </trkpt>
      <trkpt lat="45.65573" lon="5.72419">
        <ele>611.3</ele>
        <time>2021-08-23T09:35:49Z</time>
      </trkpt>
      <trkpt lat="45.6557" lon="5.72418">
        <ele>611.6</ele>
        <time>2021-08-23T09:35:50Z</time>
      </trkpt>
      <trkpt lat="45.65562" lon="5.72419">
        <ele>612.1</ele>
        <time>2021-08-23T09:35:52Z</time>
      </trkpt>
      <trkpt lat="45.65558" lon="5.72419">
        <ele>612.4</ele>
        <time>2021-08-23T09:35:53Z</time>
      </trkpt>
      <trkpt lat="45.65555" lon="5.7242">
        <ele>612.6</ele>
        <time>2021-08-23T09:35:54Z</time>
      </trkpt>
      <trkpt lat="45.65552" lon="5.7242">
        <ele>612.8</ele>
        <time>2021-08-23T09:35:55Z</time>
      </trkpt>
      <trkpt lat="45.65548" lon="5.7242">
        <ele>613</ele>
        <time>2021-08-23T09:35:57Z</time>
      </trkpt>
      <trkpt lat="45.65544" lon="5.72419">
        <ele>613.2</ele>
        <time>2021-08-23T09:35:58Z</time>
      </trkpt>
      <trkpt lat="45.65541" lon="5.72419">
        <ele>613.4</ele>
        <time>2021-08-23T09:35:59Z</time>
      </trkpt>
      <trkpt lat="45.6554" lon="5.72419">
        <ele>613.4</ele>
        <time>2021-08-23T09:36:00Z</time>
      </trkpt>
      <trkpt lat="45.65537" lon="5.72419">
        <ele>613.5</ele>
        <time>2021-08-23T09:36:02Z</time>
      </trkpt>
      <trkpt lat="45.65536" lon="5.72419">
        <ele>613.6</ele>
        <time>2021-08-23T09:36:03Z</time>
      </trkpt>
      <trkpt lat="45.65534" lon="5.72419">
        <ele>613.7</ele>
        <time>2021-08-23T09:36:04Z</time>
      </trkpt>
      <trkpt lat="45.65533" lon="5.72418">
        <ele>613.7</ele>
        <time>2021-08-23T09:36:05Z</time>
      </trkpt>
      <trkpt lat="45.65532" lon="5.72417">
        <ele>613.8</ele>
        <time>2021-08-23T09:36:06Z</time>
      </trkpt>
      <trkpt lat="45.65532" lon="5.72417">
        <ele>613.8</ele>
        <time>2021-08-23T09:36:08Z</time>
      </trkpt>
      <trkpt lat="45.65533" lon="5.72417">
        <ele>613.8</ele>
        <time>2021-08-23T09:36:09Z</time>
      </trkpt>
      <trkpt lat="45.65532" lon="5.72417">
        <ele>613.8</ele>
        <time>2021-08-23T09:36:11Z</time>
      </trkpt>
      <trkpt lat="45.65532" lon="5.72417">
        <ele>613.8</ele>
        <time>2021-08-23T09:36:12Z</time>
      </trkpt>
      <trkpt lat="45.6553" lon="5.72417">
        <ele>613.9</ele>
        <time>2021-08-23T09:36:13Z</time>
      </trkpt>
      <trkpt lat="45.65529" lon="5.72416">
        <ele>614</ele>
        <time>2021-08-23T09:36:14Z</time>
      </trkpt>
      <trkpt lat="45.65526" lon="5.72415">
        <ele>614.1</ele>
        <time>2021-08-23T09:36:16Z</time>
      </trkpt>
      <trkpt lat="45.65524" lon="5.72413">
        <ele>614.2</ele>
        <time>2021-08-23T09:36:17Z</time>
      </trkpt>
      <trkpt lat="45.65521" lon="5.72412">
        <ele>614.4</ele>
        <time>2021-08-23T09:36:19Z</time>
      </trkpt>
      <trkpt lat="45.65521" lon="5.72413">
        <ele>614.4</ele>
        <time>2021-08-23T09:36:20Z</time>
      </trkpt>
      <trkpt lat="45.65521" lon="5.72412">
        <ele>614.4</ele>
        <time>2021-08-23T09:36:22Z</time>
      </trkpt>
      <trkpt lat="45.6552" lon="5.72412">
        <ele>614.5</ele>
        <time>2021-08-23T09:36:23Z</time>
      </trkpt>
      <trkpt lat="45.6552" lon="5.72411">
        <ele>614.5</ele>
        <time>2021-08-23T09:36:24Z</time>
      </trkpt>
      <trkpt lat="45.65519" lon="5.7241">
        <ele>614.5</ele>
        <time>2021-08-23T09:36:26Z</time>
      </trkpt>
      <trkpt lat="45.65519" lon="5.72409">
        <ele>614.6</ele>
        <time>2021-08-23T09:36:27Z</time>
      </trkpt>
      <trkpt lat="45.6549" lon="5.72417">
        <ele>616.5</ele>
        <time>2021-08-23T09:36:50Z</time>
      </trkpt>
      <trkpt lat="45.65488" lon="5.72418">
        <ele>616.7</ele>
        <time>2021-08-23T09:36:52Z</time>
      </trkpt>
      <trkpt lat="45.65487" lon="5.72418">
        <ele>616.8</ele>
        <time>2021-08-23T09:36:53Z</time>
      </trkpt>
      <trkpt lat="45.65486" lon="5.72418">
        <ele>616.9</ele>
        <time>2021-08-23T09:36:55Z</time>
      </trkpt>
      <trkpt lat="45.65485" lon="5.72419">
        <ele>617</ele>
        <time>2021-08-23T09:36:56Z</time>
      </trkpt>
      <trkpt lat="45.65485" lon="5.72419">
        <ele>617</ele>
        <time>2021-08-23T09:36:57Z</time>
      </trkpt>
      <trkpt lat="45.65484" lon="5.72419">
        <ele>617</ele>
        <time>2021-08-23T09:36:58Z</time>
      </trkpt>
      <trkpt lat="45.65483" lon="5.7242">
        <ele>617.1</ele>
        <time>2021-08-23T09:37:00Z</time>
      </trkpt>
      <trkpt lat="45.65483" lon="5.7242">
        <ele>617.2</ele>
        <time>2021-08-23T09:37:02Z</time>
      </trkpt>
      <trkpt lat="45.65482" lon="5.7242">
        <ele>617.2</ele>
        <time>2021-08-23T09:37:04Z</time>
      </trkpt>
      <trkpt lat="45.65482" lon="5.7242">
        <ele>617.2</ele>
        <time>2021-08-23T09:37:05Z</time>
      </trkpt>
      <trkpt lat="45.65482" lon="5.7242">
        <ele>617.2</ele>
        <time>2021-08-23T09:37:06Z</time>
      </trkpt>
      <trkpt lat="45.65482" lon="5.7242">
        <ele>617.2</ele>
        <time>2021-08-23T09:37:08Z</time>
      </trkpt>
      <trkpt lat="45.65482" lon="5.7242">
        <ele>617.2</ele>
        <time>2021-08-23T09:37:09Z</time>
      </trkpt>
      <trkpt lat="45.65482" lon="5.7242">
        <ele>617.2</ele>
        <time>2021-08-23T09:37:10Z</time>
      </trkpt>
      <trkpt lat="45.65482" lon="5.7242">
        <ele>617.3</ele>
        <time>2021-08-23T09:37:11Z</time>
      </trkpt>
      <trkpt lat="45.65482" lon="5.7242">
        <ele>617.3</ele>
        <time>2021-08-23T09:37:12Z</time>
      </trkpt>
      <trkpt lat="45.65481" lon="5.7242">
        <ele>617.3</ele>
        <time>2021-08-23T09:37:14Z</time>
      </trkpt>
      <trkpt lat="45.65481" lon="5.7242">
        <ele>617.3</ele>
        <time>2021-08-23T09:37:15Z</time>
      </trkpt>
      <trkpt lat="45.65481" lon="5.7242">
        <ele>617.3</ele>
        <time>2021-08-23T09:37:16Z</time>
      </trkpt>
      <trkpt lat="45.65481" lon="5.72422">
        <ele>617.4</ele>
        <time>2021-08-23T09:37:17Z</time>
      </trkpt>
      <trkpt lat="45.6548" lon="5.72423">
        <ele>617.4</ele>
        <time>2021-08-23T09:37:18Z</time>
      </trkpt>
      <trkpt lat="45.65479" lon="5.72425">
        <ele>617.6</ele>
        <time>2021-08-23T09:37:20Z</time>
      </trkpt>
      <trkpt lat="45.65477" lon="5.72427">
        <ele>617.7</ele>
        <time>2021-08-23T09:37:22Z</time>
      </trkpt>
      <trkpt lat="45.65477" lon="5.72428">
        <ele>617.8</ele>
        <time>2021-08-23T09:37:23Z</time>
      </trkpt>
      <trkpt lat="45.65475" lon="5.72431">
        <ele>618</ele>
        <time>2021-08-23T09:37:25Z</time>
      </trkpt>
      <trkpt lat="45.65474" lon="5.72433">
        <ele>618.1</ele>
        <time>2021-08-23T09:37:26Z</time>
      </trkpt>
      <trkpt lat="45.65471" lon="5.7243">
        <ele>618.3</ele>
        <time>2021-08-23T09:37:27Z</time>
      </trkpt>
      <trkpt lat="45.6547" lon="5.72429">
        <ele>618.4</ele>
        <time>2021-08-23T09:37:28Z</time>
      </trkpt>
      <trkpt lat="45.65469" lon="5.72427">
        <ele>618.5</ele>
        <time>2021-08-23T09:37:29Z</time>
      </trkpt>
      <trkpt lat="45.65467" lon="5.72427">
        <ele>618.6</ele>
        <time>2021-08-23T09:37:31Z</time>
      </trkpt>
      <trkpt lat="45.65462" lon="5.72428">
        <ele>618.9</ele>
        <time>2021-08-23T09:37:32Z</time>
      </trkpt>
      <trkpt lat="45.65462" lon="5.72427">
        <ele>619</ele>
        <time>2021-08-23T09:37:34Z</time>
      </trkpt>
      <trkpt lat="45.65461" lon="5.72426">
        <ele>619.1</ele>
        <time>2021-08-23T09:37:35Z</time>
      </trkpt>
      <trkpt lat="45.65461" lon="5.72424">
        <ele>619.2</ele>
        <time>2021-08-23T09:37:36Z</time>
      </trkpt>
      <trkpt lat="45.6546" lon="5.72423">
        <ele>619.2</ele>
        <time>2021-08-23T09:37:38Z</time>
      </trkpt>
      <trkpt lat="45.6546" lon="5.72423">
        <ele>619.2</ele>
        <time>2021-08-23T09:37:39Z</time>
      </trkpt>
      <trkpt lat="45.65445" lon="5.72454">
        <ele>621.7</ele>
        <time>2021-08-23T09:38:22Z</time>
      </trkpt>
      <trkpt lat="45.65444" lon="5.72456">
        <ele>621.8</ele>
        <time>2021-08-23T09:38:23Z</time>
      </trkpt>
      <trkpt lat="45.65444" lon="5.72458">
        <ele>621.9</ele>
        <time>2021-08-23T09:38:24Z</time>
      </trkpt>
      <trkpt lat="45.65443" lon="5.7246">
        <ele>621.9</ele>
        <time>2021-08-23T09:38:26Z</time>
      </trkpt>
      <trkpt lat="45.65443" lon="5.7246">
        <ele>622</ele>
        <time>2021-08-23T09:38:27Z</time>
      </trkpt>
      <trkpt lat="45.65443" lon="5.72461">
        <ele>622</ele>
        <time>2021-08-23T09:38:28Z</time>
      </trkpt>
      <trkpt lat="45.65444" lon="5.72462">
        <ele>622</ele>
        <time>2021-08-23T09:38:29Z</time>
      </trkpt>
      <trkpt lat="45.65444" lon="5.72462">
        <ele>622.1</ele>
        <time>2021-08-23T09:38:31Z</time>
      </trkpt>
      <trkpt lat="45.65445" lon="5.72462">
        <ele>622.1</ele>
        <time>2021-08-23T09:38:32Z</time>
      </trkpt>
      <trkpt lat="45.65447" lon="5.72463">
        <ele>622.2</ele>
        <time>2021-08-23T09:38:33Z</time>
      </trkpt>
      <trkpt lat="45.65454" lon="5.72479">
        <ele>622.7</ele>
        <time>2021-08-23T09:38:50Z</time>
      </trkpt>
      <trkpt lat="45.65455" lon="5.72483">
        <ele>622.8</ele>
        <time>2021-08-23T09:38:51Z</time>
      </trkpt>
      <trkpt lat="45.65456" lon="5.72489">
        <ele>623</ele>
        <time>2021-08-23T09:38:53Z</time>
      </trkpt>
      <trkpt lat="45.65456" lon="5.72491">
        <ele>623.1</ele>
        <time>2021-08-23T09:38:54Z</time>
      </trkpt>
      <trkpt lat="45.65456" lon="5.72493">
        <ele>623.1</ele>
        <time>2021-08-23T09:38:55Z</time>
      </trkpt>
      <trkpt lat="45.65457" lon="5.72497">
        <ele>623.3</ele>
        <time>2021-08-23T09:38:56Z</time>
      </trkpt>
      <trkpt lat="45.65457" lon="5.72498">
        <ele>623.3</ele>
        <time>2021-08-23T09:38:57Z</time>
      </trkpt>
      <trkpt lat="45.65457" lon="5.72499">
        <ele>623.3</ele>
        <time>2021-08-23T09:38:59Z</time>
      </trkpt>
      <trkpt lat="45.65457" lon="5.725">
        <ele>623.4</ele>
        <time>2021-08-23T09:39:00Z</time>
      </trkpt>
      <trkpt lat="45.65458" lon="5.72502">
        <ele>623.4</ele>
        <time>2021-08-23T09:39:01Z</time>
      </trkpt>
      <trkpt lat="45.65458" lon="5.72505">
        <ele>623.5</ele>
        <time>2021-08-23T09:39:02Z</time>
      </trkpt>
      <trkpt lat="45.65457" lon="5.72505">
        <ele>623.6</ele>
        <time>2021-08-23T09:39:04Z</time>
      </trkpt>
      <trkpt lat="45.65456" lon="5.72506">
        <ele>623.6</ele>
        <time>2021-08-23T09:39:05Z</time>
      </trkpt>
      <trkpt lat="45.65454" lon="5.72509">
        <ele>623.8</ele>
        <time>2021-08-23T09:39:07Z</time>
      </trkpt>
      <trkpt lat="45.65452" lon="5.72513">
        <ele>624</ele>
        <time>2021-08-23T09:39:08Z</time>
      </trkpt>
      <trkpt lat="45.65452" lon="5.72515">
        <ele>624.1</ele>
        <time>2021-08-23T09:39:09Z</time>
      </trkpt>
      <trkpt lat="45.65451" lon="5.72518">
        <ele>624.2</ele>
        <time>2021-08-23T09:39:11Z</time>
      </trkpt>
      <trkpt lat="45.65451" lon="5.7252">
        <ele>624.4</ele>
        <time>2021-08-23T09:39:12Z</time>
      </trkpt>
      <trkpt lat="45.65451" lon="5.72522">
        <ele>624.5</ele>
        <time>2021-08-23T09:39:13Z</time>
      </trkpt>
      <trkpt lat="45.65451" lon="5.72526">
        <ele>624.6</ele>
        <time>2021-08-23T09:39:15Z</time>
      </trkpt>
      <trkpt lat="45.65451" lon="5.72527">
        <ele>624.7</ele>
        <time>2021-08-23T09:39:16Z</time>
      </trkpt>
      <trkpt lat="45.65451" lon="5.72529">
        <ele>624.8</ele>
        <time>2021-08-23T09:39:17Z</time>
      </trkpt>
      <trkpt lat="45.65449" lon="5.72531">
        <ele>624.9</ele>
        <time>2021-08-23T09:39:18Z</time>
      </trkpt>
      <trkpt lat="45.65448" lon="5.72533">
        <ele>625.1</ele>
        <time>2021-08-23T09:39:20Z</time>
      </trkpt>
      <trkpt lat="45.65447" lon="5.72535">
        <ele>625.2</ele>
        <time>2021-08-23T09:39:21Z</time>
      </trkpt>
      <trkpt lat="45.65446" lon="5.72537">
        <ele>625.4</ele>
        <time>2021-08-23T09:39:22Z</time>
      </trkpt>
      <trkpt lat="45.65445" lon="5.72539">
        <ele>625.5</ele>
        <time>2021-08-23T09:39:23Z</time>
      </trkpt>
      <trkpt lat="45.65444" lon="5.72541">
        <ele>625.6</ele>
        <time>2021-08-23T09:39:25Z</time>
      </trkpt>
      <trkpt lat="45.65443" lon="5.72543">
        <ele>625.8</ele>
        <time>2021-08-23T09:39:26Z</time>
      </trkpt>
      <trkpt lat="45.65442" lon="5.72545">
        <ele>625.9</ele>
        <time>2021-08-23T09:39:55Z</time>
      </trkpt>
      <trkpt lat="45.6544" lon="5.72547">
        <ele>626.1</ele>
        <time>2021-08-23T09:39:57Z</time>
      </trkpt>
      <trkpt lat="45.65439" lon="5.72549">
        <ele>626.2</ele>
        <time>2021-08-23T09:39:58Z</time>
      </trkpt>
      <trkpt lat="45.65438" lon="5.7255">
        <ele>626.4</ele>
        <time>2021-08-23T09:39:59Z</time>
      </trkpt>
      <trkpt lat="45.65436" lon="5.72552">
        <ele>626.6</ele>
        <time>2021-08-23T09:40:01Z</time>
      </trkpt>
      <trkpt lat="45.65434" lon="5.72554">
        <ele>626.9</ele>
        <time>2021-08-23T09:40:02Z</time>
      </trkpt>
      <trkpt lat="45.65433" lon="5.72555">
        <ele>627</ele>
        <time>2021-08-23T09:40:03Z</time>
      </trkpt>
      <trkpt lat="45.65432" lon="5.72556">
        <ele>627</ele>
        <time>2021-08-23T09:40:05Z</time>
      </trkpt>
      <trkpt lat="45.65432" lon="5.72557">
        <ele>627.1</ele>
        <time>2021-08-23T09:40:06Z</time>
      </trkpt>
      <trkpt lat="45.65431" lon="5.72557">
        <ele>627.2</ele>
        <time>2021-08-23T09:40:08Z</time>
      </trkpt>
      <trkpt lat="45.65431" lon="5.72559">
        <ele>627.3</ele>
        <time>2021-08-23T09:40:10Z</time>
      </trkpt>
      <trkpt lat="45.65431" lon="5.72559">
        <ele>627.4</ele>
        <time>2021-08-23T09:40:12Z</time>
      </trkpt>
      <trkpt lat="45.65402" lon="5.72581">
        <ele>630.9</ele>
        <time>2021-08-23T09:41:27Z</time>
      </trkpt>
      <trkpt lat="45.65399" lon="5.72582">
        <ele>631.2</ele>
        <time>2021-08-23T09:41:28Z</time>
      </trkpt>
      <trkpt lat="45.65397" lon="5.72582">
        <ele>631.4</ele>
        <time>2021-08-23T09:41:30Z</time>
      </trkpt>
      <trkpt lat="45.65395" lon="5.72581">
        <ele>631.7</ele>
        <time>2021-08-23T09:41:31Z</time>
      </trkpt>
      <trkpt lat="45.65391" lon="5.7258">
        <ele>632</ele>
        <time>2021-08-23T09:41:33Z</time>
      </trkpt>
      <trkpt lat="45.6539" lon="5.7258">
        <ele>632.1</ele>
        <time>2021-08-23T09:41:34Z</time>
      </trkpt>
      <trkpt lat="45.65386" lon="5.72578">
        <ele>632.4</ele>
        <time>2021-08-23T09:41:36Z</time>
      </trkpt>
      <trkpt lat="45.65386" lon="5.72578">
        <ele>632.4</ele>
        <time>2021-08-23T09:41:37Z</time>
      </trkpt>
      <trkpt lat="45.65385" lon="5.72577">
        <ele>632.5</ele>
        <time>2021-08-23T09:41:39Z</time>
      </trkpt>
      <trkpt lat="45.65385" lon="5.72577">
        <ele>632.5</ele>
        <time>2021-08-23T09:41:41Z</time>
      </trkpt>
      <trkpt lat="45.65385" lon="5.72577">
        <ele>632.5</ele>
        <time>2021-08-23T09:41:42Z</time>
      </trkpt>
      <trkpt lat="45.65384" lon="5.72577">
        <ele>632.5</ele>
        <time>2021-08-23T09:41:43Z</time>
      </trkpt>
      <trkpt lat="45.65384" lon="5.72577">
        <ele>632.5</ele>
        <time>2021-08-23T09:41:45Z</time>
      </trkpt>
      <trkpt lat="45.65384" lon="5.72577">
        <ele>632.5</ele>
        <time>2021-08-23T09:41:46Z</time>
      </trkpt>
      <trkpt lat="45.65361" lon="5.72555">
        <ele>634</ele>
        <time>2021-08-23T09:42:39Z</time>
      </trkpt>
      <trkpt lat="45.65354" lon="5.7255">
        <ele>634.4</ele>
        <time>2021-08-23T09:42:41Z</time>
      </trkpt>
      <trkpt lat="45.6535" lon="5.72545">
        <ele>634.6</ele>
        <time>2021-08-23T09:42:42Z</time>
      </trkpt>
      <trkpt lat="45.65346" lon="5.7254">
        <ele>634.9</ele>
        <time>2021-08-23T09:42:44Z</time>
      </trkpt>
      <trkpt lat="45.65344" lon="5.72536">
        <ele>635.1</ele>
        <time>2021-08-23T09:42:45Z</time>
      </trkpt>
      <trkpt lat="45.65341" lon="5.72531">
        <ele>635.3</ele>
        <time>2021-08-23T09:42:46Z</time>
      </trkpt>
      <trkpt lat="45.65338" lon="5.72528">
        <ele>635.6</ele>
        <time>2021-08-23T09:42:48Z</time>
      </trkpt>
      <trkpt lat="45.65337" lon="5.72528">
        <ele>635.6</ele>
        <time>2021-08-23T09:42:49Z</time>
      </trkpt>
      <trkpt lat="45.65336" lon="5.72528">
        <ele>635.7</ele>
        <time>2021-08-23T09:42:50Z</time>
      </trkpt>
      <trkpt lat="45.65335" lon="5.72528">
        <ele>635.7</ele>
        <time>2021-08-23T09:42:51Z</time>
      </trkpt>
      <trkpt lat="45.65333" lon="5.72525">
        <ele>635.9</ele>
        <time>2021-08-23T09:42:52Z</time>
      </trkpt>
      <trkpt lat="45.65331" lon="5.72522">
        <ele>636.1</ele>
        <time>2021-08-23T09:42:53Z</time>
      </trkpt>
      <trkpt lat="45.6533" lon="5.72519">
        <ele>636.3</ele>
        <time>2021-08-23T09:42:54Z</time>
      </trkpt>
      <trkpt lat="45.6533" lon="5.72518">
        <ele>636.3</ele>
        <time>2021-08-23T09:42:55Z</time>
      </trkpt>
      <trkpt lat="45.6533" lon="5.72517">
        <ele>636.3</ele>
        <time>2021-08-23T09:42:56Z</time>
      </trkpt>
      <trkpt lat="45.6533" lon="5.72515">
        <ele>636.4</ele>
        <time>2021-08-23T09:42:58Z</time>
      </trkpt>
      <trkpt lat="45.6533" lon="5.72513">
        <ele>636.5</ele>
        <time>2021-08-23T09:42:59Z</time>
      </trkpt>
      <trkpt lat="45.65329" lon="5.72511">
        <ele>636.6</ele>
        <time>2021-08-23T09:43:00Z</time>
      </trkpt>
      <trkpt lat="45.65328" lon="5.7251">
        <ele>636.7</ele>
        <time>2021-08-23T09:43:01Z</time>
      </trkpt>
      <trkpt lat="45.65327" lon="5.72506">
        <ele>636.8</ele>
        <time>2021-08-23T09:43:02Z</time>
      </trkpt>
      <trkpt lat="45.65326" lon="5.72505">
        <ele>636.9</ele>
        <time>2021-08-23T09:43:03Z</time>
      </trkpt>
      <trkpt lat="45.65324" lon="5.72501">
        <ele>637.1</ele>
        <time>2021-08-23T09:43:04Z</time>
      </trkpt>
      <trkpt lat="45.65322" lon="5.72498">
        <ele>637.3</ele>
        <time>2021-08-23T09:43:06Z</time>
      </trkpt>
      <trkpt lat="45.65322" lon="5.72497">
        <ele>637.4</ele>
        <time>2021-08-23T09:43:07Z</time>
      </trkpt>
      <trkpt lat="45.65321" lon="5.72494">
        <ele>637.6</ele>
        <time>2021-08-23T09:43:08Z</time>
      </trkpt>
      <trkpt lat="45.6532" lon="5.72493">
        <ele>637.6</ele>
        <time>2021-08-23T09:43:10Z</time>
      </trkpt>
      <trkpt lat="45.6532" lon="5.72493">
        <ele>637.7</ele>
        <time>2021-08-23T09:43:11Z</time>
      </trkpt>
      <trkpt lat="45.65319" lon="5.72492">
        <ele>637.7</ele>
        <time>2021-08-23T09:43:12Z</time>
      </trkpt>
      <trkpt lat="45.65319" lon="5.72491">
        <ele>637.8</ele>
        <time>2021-08-23T09:43:13Z</time>
      </trkpt>
      <trkpt lat="45.65318" lon="5.72491">
        <ele>637.8</ele>
        <time>2021-08-23T09:43:15Z</time>
      </trkpt>
      <trkpt lat="45.65312" lon="5.72482">
        <ele>638.5</ele>
        <time>2021-08-23T09:43:20Z</time>
      </trkpt>
      <trkpt lat="45.65311" lon="5.72478">
        <ele>638.7</ele>
        <time>2021-08-23T09:43:21Z</time>
      </trkpt>
      <trkpt lat="45.65309" lon="5.72474">
        <ele>639</ele>
        <time>2021-08-23T09:43:22Z</time>
      </trkpt>
      <trkpt lat="45.65308" lon="5.72471">
        <ele>639.2</ele>
        <time>2021-08-23T09:43:23Z</time>
      </trkpt>
      <trkpt lat="45.65307" lon="5.72467">
        <ele>639.4</ele>
        <time>2021-08-23T09:43:24Z</time>
      </trkpt>
      <trkpt lat="45.65305" lon="5.7246">
        <ele>639.8</ele>
        <time>2021-08-23T09:43:26Z</time>
      </trkpt>
      <trkpt lat="45.65304" lon="5.72457">
        <ele>640</ele>
        <time>2021-08-23T09:43:27Z</time>
      </trkpt>
      <trkpt lat="45.65303" lon="5.72451">
        <ele>640.4</ele>
        <time>2021-08-23T09:43:28Z</time>
      </trkpt>
      <trkpt lat="45.65304" lon="5.72445">
        <ele>640.8</ele>
        <time>2021-08-23T09:43:30Z</time>
      </trkpt>
      <trkpt lat="45.65305" lon="5.72441">
        <ele>641</ele>
        <time>2021-08-23T09:43:31Z</time>
      </trkpt>
      <trkpt lat="45.65306" lon="5.72437">
        <ele>641.3</ele>
        <time>2021-08-23T09:43:32Z</time>
      </trkpt>
      <trkpt lat="45.65307" lon="5.72435">
        <ele>641.4</ele>
        <time>2021-08-23T09:43:34Z</time>
      </trkpt>
      <trkpt lat="45.65308" lon="5.72433">
        <ele>641.6</ele>
        <time>2021-08-23T09:43:35Z</time>
      </trkpt>
      <trkpt lat="45.65308" lon="5.72433">
        <ele>641.6</ele>
        <time>2021-08-23T09:43:36Z</time>
      </trkpt>
      <trkpt lat="45.65307" lon="5.72434">
        <ele>641.7</ele>
        <time>2021-08-23T09:43:37Z</time>
      </trkpt>
      <trkpt lat="45.65307" lon="5.72432">
        <ele>641.8</ele>
        <time>2021-08-23T09:43:39Z</time>
      </trkpt>
      <trkpt lat="45.65306" lon="5.72429">
        <ele>641.9</ele>
        <time>2021-08-23T09:43:40Z</time>
      </trkpt>
      <trkpt lat="45.65306" lon="5.72425">
        <ele>642.2</ele>
        <time>2021-08-23T09:43:42Z</time>
      </trkpt>
      <trkpt lat="45.65305" lon="5.72422">
        <ele>642.4</ele>
        <time>2021-08-23T09:43:43Z</time>
      </trkpt>
      <trkpt lat="45.65305" lon="5.72417">
        <ele>642.8</ele>
        <time>2021-08-23T09:43:45Z</time>
      </trkpt>
      <trkpt lat="45.65304" lon="5.72411">
        <ele>643.1</ele>
        <time>2021-08-23T09:43:46Z</time>
      </trkpt>
      <trkpt lat="45.65303" lon="5.72406">
        <ele>643.5</ele>
        <time>2021-08-23T09:43:48Z</time>
      </trkpt>
      <trkpt lat="45.65303" lon="5.72404">
        <ele>643.6</ele>
        <time>2021-08-23T09:43:49Z</time>
      </trkpt>
      <trkpt lat="45.65303" lon="5.724">
        <ele>643.9</ele>
        <time>2021-08-23T09:43:50Z</time>
      </trkpt>
      <trkpt lat="45.65303" lon="5.72392">
        <ele>644.6</ele>
        <time>2021-08-23T09:43:52Z</time>
      </trkpt>
      <trkpt lat="45.65302" lon="5.72387">
        <ele>645</ele>
        <time>2021-08-23T09:43:53Z</time>
      </trkpt>
      <trkpt lat="45.65302" lon="5.72383">
        <ele>645.3</ele>
        <time>2021-08-23T09:43:54Z</time>
      </trkpt>
      <trkpt lat="45.65302" lon="5.72379">
        <ele>645.7</ele>
        <time>2021-08-23T09:43:56Z</time>
      </trkpt>
      <trkpt lat="45.65301" lon="5.72378">
        <ele>645.8</ele>
        <time>2021-08-23T09:43:57Z</time>
      </trkpt>
      <trkpt lat="45.65302" lon="5.72375">
        <ele>646.1</ele>
        <time>2021-08-23T09:43:59Z</time>
      </trkpt>
      <trkpt lat="45.65302" lon="5.72373">
        <ele>646.3</ele>
        <time>2021-08-23T09:44:00Z</time>
      </trkpt>
      <trkpt lat="45.65302" lon="5.72371">
        <ele>646.5</ele>
        <time>2021-08-23T09:44:01Z</time>
      </trkpt>
      <trkpt lat="45.65302" lon="5.72368">
        <ele>646.8</ele>
        <time>2021-08-23T09:44:02Z</time>
      </trkpt>
      <trkpt lat="45.65303" lon="5.72366">
        <ele>647</ele>
        <time>2021-08-23T09:44:03Z</time>
      </trkpt>
      <trkpt lat="45.65303" lon="5.72365">
        <ele>647.1</ele>
        <time>2021-08-23T09:44:04Z</time>
      </trkpt>
      <trkpt lat="45.65303" lon="5.72365">
        <ele>647.1</ele>
        <time>2021-08-23T09:44:06Z</time>
      </trkpt>
      <trkpt lat="45.65304" lon="5.72365">
        <ele>647.2</ele>
        <time>2021-08-23T09:44:07Z</time>
      </trkpt>
      <trkpt lat="45.65304" lon="5.72364">
        <ele>647.3</ele>
        <time>2021-08-23T09:44:09Z</time>
      </trkpt>
      <trkpt lat="45.65305" lon="5.72364">
        <ele>647.4</ele>
        <time>2021-08-23T09:44:10Z</time>
      </trkpt>
      <trkpt lat="45.65305" lon="5.72364">
        <ele>647.4</ele>
        <time>2021-08-23T09:44:11Z</time>
      </trkpt>
      <trkpt lat="45.65305" lon="5.72363">
        <ele>647.5</ele>
        <time>2021-08-23T09:44:13Z</time>
      </trkpt>
      <trkpt lat="45.65141" lon="5.72171">
        <ele>677.9</ele>
        <time>2021-08-23T09:49:24Z</time>
      </trkpt>
      <trkpt lat="45.65133" lon="5.72172">
        <ele>678.1</ele>
        <time>2021-08-23T09:49:25Z</time>
      </trkpt>
      <trkpt lat="45.65128" lon="5.72173">
        <ele>678.2</ele>
        <time>2021-08-23T09:49:27Z</time>
      </trkpt>
      <trkpt lat="45.65127" lon="5.72174">
        <ele>678.3</ele>
        <time>2021-08-23T09:49:28Z</time>
      </trkpt>
      <trkpt lat="45.65125" lon="5.72175">
        <ele>678.3</ele>
        <time>2021-08-23T09:49:29Z</time>
      </trkpt>
      <trkpt lat="45.65121" lon="5.72179">
        <ele>678.4</ele>
        <time>2021-08-23T09:49:30Z</time>
      </trkpt>
      <trkpt lat="45.65116" lon="5.72182">
        <ele>678.4</ele>
        <time>2021-08-23T09:49:32Z</time>
      </trkpt>
      <trkpt lat="45.65112" lon="5.72185">
        <ele>678.5</ele>
        <time>2021-08-23T09:49:33Z</time>
      </trkpt>
      <trkpt lat="45.65107" lon="5.72187">
        <ele>678.5</ele>
        <time>2021-08-23T09:49:35Z</time>
      </trkpt>
      <trkpt lat="45.65102" lon="5.72188">
        <ele>678.6</ele>
        <time>2021-08-23T09:49:36Z</time>
      </trkpt>
      <trkpt lat="45.65099" lon="5.72188">
        <ele>678.6</ele>
        <time>2021-08-23T09:49:37Z</time>
      </trkpt>
      <trkpt lat="45.65097" lon="5.7219">
        <ele>678.6</ele>
        <time>2021-08-23T09:49:39Z</time>
      </trkpt>
      <trkpt lat="45.65094" lon="5.72192">
        <ele>678.7</ele>
        <time>2021-08-23T09:49:41Z</time>
      </trkpt>
      <trkpt lat="45.6509" lon="5.72193">
        <ele>678.7</ele>
        <time>2021-08-23T09:49:42Z</time>
      </trkpt>
      <trkpt lat="45.65087" lon="5.72193">
        <ele>678.8</ele>
        <time>2021-08-23T09:49:44Z</time>
      </trkpt>
      <trkpt lat="45.65084" lon="5.72194">
        <ele>678.9</ele>
        <time>2021-08-23T09:49:45Z</time>
      </trkpt>
      <trkpt lat="45.65081" lon="5.72195">
        <ele>679</ele>
        <time>2021-08-23T09:49:46Z</time>
      </trkpt>
      <trkpt lat="45.65077" lon="5.72197">
        <ele>679.2</ele>
        <time>2021-08-23T09:49:47Z</time>
      </trkpt>
      <trkpt lat="45.65075" lon="5.72199">
        <ele>679.3</ele>
        <time>2021-08-23T09:49:48Z</time>
      </trkpt>
      <trkpt lat="45.65072" lon="5.72201">
        <ele>679.4</ele>
        <time>2021-08-23T09:49:50Z</time>
      </trkpt>
      <trkpt lat="45.65071" lon="5.72201">
        <ele>679.4</ele>
        <time>2021-08-23T09:49:51Z</time>
      </trkpt>
      <trkpt lat="45.65071" lon="5.72198">
        <ele>679.5</ele>
        <time>2021-08-23T09:49:53Z</time>
      </trkpt>
      <trkpt lat="45.6507" lon="5.72197">
        <ele>679.6</ele>
        <time>2021-08-23T09:49:55Z</time>
      </trkpt>
      <trkpt lat="45.6507" lon="5.72197">
        <ele>679.6</ele>
        <time>2021-08-23T09:49:56Z</time>
      </trkpt>
      <trkpt lat="45.6507" lon="5.72196">
        <ele>679.6</ele>
        <time>2021-08-23T09:49:58Z</time>
      </trkpt>
      <trkpt lat="45.6507" lon="5.72196">
        <ele>679.6</ele>
        <time>2021-08-23T09:49:59Z</time>
      </trkpt>
      <trkpt lat="45.65069" lon="5.72196">
        <ele>679.6</ele>
        <time>2021-08-23T09:50:00Z</time>
      </trkpt>
      <trkpt lat="45.65041" lon="5.72209">
        <ele>680.7</ele>
        <time>2021-08-23T09:50:10Z</time>
      </trkpt>
      <trkpt lat="45.65034" lon="5.72211">
        <ele>680.9</ele>
        <time>2021-08-23T09:50:12Z</time>
      </trkpt>
      <trkpt lat="45.65033" lon="5.72211">
        <ele>680.9</ele>
        <time>2021-08-23T09:50:13Z</time>
      </trkpt>
      <trkpt lat="45.65039" lon="5.72206">
        <ele>681</ele>
        <time>2021-08-23T09:50:15Z</time>
      </trkpt>
      <trkpt lat="45.65038" lon="5.72206">
        <ele>681</ele>
        <time>2021-08-23T09:50:16Z</time>
      </trkpt>
      <trkpt lat="45.65038" lon="5.72206">
        <ele>681</ele>
        <time>2021-08-23T09:50:17Z</time>
      </trkpt>
      <trkpt lat="45.65039" lon="5.72206">
        <ele>681</ele>
        <time>2021-08-23T09:50:18Z</time>
      </trkpt>
      <trkpt lat="45.65039" lon="5.72206">
        <ele>681</ele>
        <time>2021-08-23T09:50:20Z</time>
      </trkpt>
      <trkpt lat="45.65039" lon="5.72206">
        <ele>681</ele>
        <time>2021-08-23T09:50:21Z</time>
      </trkpt>
      <trkpt lat="45.65039" lon="5.72206">
        <ele>681</ele>
        <time>2021-08-23T09:50:22Z</time>
      </trkpt>
      <trkpt lat="45.64998" lon="5.7218">
        <ele>680.9</ele>
        <time>2021-08-23T09:53:24Z</time>
      </trkpt>
      <trkpt lat="45.64987" lon="5.72175">
        <ele>680.6</ele>
        <time>2021-08-23T09:53:26Z</time>
      </trkpt>
      <trkpt lat="45.64984" lon="5.72171">
        <ele>680.5</ele>
        <time>2021-08-23T09:53:28Z</time>
      </trkpt>
      <trkpt lat="45.64984" lon="5.72171">
        <ele>680.5</ele>
        <time>2021-08-23T09:53:29Z</time>
      </trkpt>
      <trkpt lat="45.64987" lon="5.7217">
        <ele>680.4</ele>
        <time>2021-08-23T09:53:31Z</time>
      </trkpt>
      <trkpt lat="45.64992" lon="5.72171">
        <ele>680.3</ele>
        <time>2021-08-23T09:53:32Z</time>
      </trkpt>
      <trkpt lat="45.64998" lon="5.72174">
        <ele>680.5</ele>
        <time>2021-08-23T09:53:34Z</time>
      </trkpt>
      <trkpt lat="45.65" lon="5.72175">
        <ele>680.5</ele>
        <time>2021-08-23T09:53:36Z</time>
      </trkpt>
      <trkpt lat="45.65046" lon="5.72207">
        <ele>679.7</ele>
        <time>2021-08-23T10:27:37Z</time>
      </trkpt>
      <trkpt lat="45.65044" lon="5.72204">
        <ele>679.7</ele>
        <time>2021-08-23T10:27:38Z</time>
      </trkpt>
      <trkpt lat="45.65038" lon="5.72202">
        <ele>679.7</ele>
        <time>2021-08-23T10:27:40Z</time>
      </trkpt>
      <trkpt lat="45.65033" lon="5.72199">
        <ele>679.7</ele>
        <time>2021-08-23T10:27:41Z</time>
      </trkpt>
      <trkpt lat="45.65027" lon="5.72198">
        <ele>679.7</ele>
        <time>2021-08-23T10:27:42Z</time>
      </trkpt>
      <trkpt lat="45.65021" lon="5.72199">
        <ele>679.7</ele>
        <time>2021-08-23T10:27:43Z</time>
      </trkpt>
      <trkpt lat="45.65016" lon="5.72201">
        <ele>679.7</ele>
        <time>2021-08-23T10:27:44Z</time>
      </trkpt>
      <trkpt lat="45.65011" lon="5.72205">
        <ele>679.7</ele>
        <time>2021-08-23T10:27:46Z</time>
      </trkpt>
      <trkpt lat="45.65003" lon="5.72211">
        <ele>679.6</ele>
        <time>2021-08-23T10:27:48Z</time>
      </trkpt>
      <trkpt lat="45.64998" lon="5.72214">
        <ele>679.6</ele>
        <time>2021-08-23T10:27:49Z</time>
      </trkpt>
      <trkpt lat="45.6499" lon="5.72217">
        <ele>679.5</ele>
        <time>2021-08-23T10:27:50Z</time>
      </trkpt>
      <trkpt lat="45.64982" lon="5.72218">
        <ele>679.4</ele>
        <time>2021-08-23T10:27:52Z</time>
      </trkpt>
      <trkpt lat="45.64976" lon="5.7222">
        <ele>679.3</ele>
        <time>2021-08-23T10:27:53Z</time>
      </trkpt>
      <trkpt lat="45.64972" lon="5.72219">
        <ele>679.2</ele>
        <time>2021-08-23T10:27:54Z</time>
      </trkpt>
      <trkpt lat="45.64967" lon="5.72219">
        <ele>679.1</ele>
        <time>2021-08-23T10:27:56Z</time>
      </trkpt>
      <trkpt lat="45.64963" lon="5.72219">
        <ele>679</ele>
        <time>2021-08-23T10:27:57Z</time>
      </trkpt>
      <trkpt lat="45.64954" lon="5.72223">
        <ele>678.7</ele>
        <time>2021-08-23T10:27:59Z</time>
      </trkpt>
      <trkpt lat="45.6495" lon="5.72224">
        <ele>678.5</ele>
        <time>2021-08-23T10:28:00Z</time>
      </trkpt>
      <trkpt lat="45.64944" lon="5.72225">
        <ele>678.2</ele>
        <time>2021-08-23T10:28:01Z</time>
      </trkpt>
      <trkpt lat="45.6494" lon="5.72225">
        <ele>678</ele>
        <time>2021-08-23T10:28:03Z</time>
      </trkpt>
      <trkpt lat="45.64937" lon="5.72225">
        <ele>677.8</ele>
        <time>2021-08-23T10:28:04Z</time>
      </trkpt>
      <trkpt lat="45.64934" lon="5.72226">
        <ele>677.7</ele>
        <time>2021-08-23T10:28:05Z</time>
      </trkpt>
      <trkpt lat="45.6493" lon="5.72227">
        <ele>677.5</ele>
        <time>2021-08-23T10:28:06Z</time>
      </trkpt>
      <trkpt lat="45.64927" lon="5.72227">
        <ele>677.3</ele>
        <time>2021-08-23T10:28:08Z</time>
      </trkpt>
      <trkpt lat="45.64924" lon="5.72225">
        <ele>677.2</ele>
        <time>2021-08-23T10:28:09Z</time>
      </trkpt>
      <trkpt lat="45.64921" lon="5.72223">
        <ele>677.1</ele>
        <time>2021-08-23T10:28:10Z</time>
      </trkpt>
      <trkpt lat="45.64915" lon="5.7222">
        <ele>676.9</ele>
        <time>2021-08-23T10:28:11Z</time>
      </trkpt>
      <trkpt lat="45.64911" lon="5.72218">
        <ele>676.7</ele>
        <time>2021-08-23T10:28:12Z</time>
      </trkpt>
      <trkpt lat="45.64906" lon="5.72214">
        <ele>676.6</ele>
        <time>2021-08-23T10:28:14Z</time>
      </trkpt>
      <trkpt lat="45.64904" lon="5.72211">
        <ele>676.5</ele>
        <time>2021-08-23T10:28:15Z</time>
      </trkpt>
      <trkpt lat="45.649" lon="5.7221">
        <ele>676.4</ele>
        <time>2021-08-23T10:28:17Z</time>
      </trkpt>
      <trkpt lat="45.64897" lon="5.72211">
        <ele>676.3</ele>
        <time>2021-08-23T10:28:18Z</time>
      </trkpt>
      <trkpt lat="45.64894" lon="5.72212">
        <ele>676.2</ele>
        <time>2021-08-23T10:28:19Z</time>
      </trkpt>
      <trkpt lat="45.64889" lon="5.72214">
        <ele>676</ele>
        <time>2021-08-23T10:28:21Z</time>
      </trkpt>
      <trkpt lat="45.64879" lon="5.72217">
        <ele>675.6</ele>
        <time>2021-08-23T10:28:22Z</time>
      </trkpt>
      <trkpt lat="45.64874" lon="5.72219">
        <ele>675.3</ele>
        <time>2021-08-23T10:28:23Z</time>
      </trkpt>
      <trkpt lat="45.6487" lon="5.72221">
        <ele>675.1</ele>
        <time>2021-08-23T10:28:24Z</time>
      </trkpt>
      <trkpt lat="45.64864" lon="5.72223">
        <ele>674.8</ele>
        <time>2021-08-23T10:28:26Z</time>
      </trkpt>
      <trkpt lat="45.6486" lon="5.72225">
        <ele>674.5</ele>
        <time>2021-08-23T10:28:27Z</time>
      </trkpt>
      <trkpt lat="45.64858" lon="5.72227">
        <ele>674.4</ele>
        <time>2021-08-23T10:28:28Z</time>
      </trkpt>
      <trkpt lat="45.64854" lon="5.72229">
        <ele>674.2</ele>
        <time>2021-08-23T10:28:30Z</time>
      </trkpt>
      <trkpt lat="45.64855" lon="5.72228">
        <ele>674.2</ele>
        <time>2021-08-23T10:28:31Z</time>
      </trkpt>
      <trkpt lat="45.64857" lon="5.72227">
        <ele>674.1</ele>
        <time>2021-08-23T10:28:33Z</time>
      </trkpt>
      <trkpt lat="45.64858" lon="5.72226">
        <ele>674.1</ele>
        <time>2021-08-23T10:28:34Z</time>
      </trkpt>
      <trkpt lat="45.6486" lon="5.72225">
        <ele>674</ele>
        <time>2021-08-23T10:28:35Z</time>
      </trkpt>
      <trkpt lat="45.6486" lon="5.72225">
        <ele>673.9</ele>
        <time>2021-08-23T10:28:36Z</time>
      </trkpt>
      <trkpt lat="45.64859" lon="5.72225">
        <ele>673.9</ele>
        <time>2021-08-23T10:28:38Z</time>
      </trkpt>
      <trkpt lat="45.64859" lon="5.72225">
        <ele>673.9</ele>
        <time>2021-08-23T10:28:39Z</time>
      </trkpt>
      <trkpt lat="45.64858" lon="5.72225">
        <ele>673.9</ele>
        <time>2021-08-23T10:28:41Z</time>
      </trkpt>
      <trkpt lat="45.64829" lon="5.7224">
        <ele>672.7</ele>
        <time>2021-08-23T10:28:53Z</time>
      </trkpt>
      <trkpt lat="45.64824" lon="5.72243">
        <ele>672.5</ele>
        <time>2021-08-23T10:28:54Z</time>
      </trkpt>
      <trkpt lat="45.64821" lon="5.72246">
        <ele>672.4</ele>
        <time>2021-08-23T10:28:55Z</time>
      </trkpt>
      <trkpt lat="45.64818" lon="5.72249">
        <ele>672.3</ele>
        <time>2021-08-23T10:28:56Z</time>
      </trkpt>
      <trkpt lat="45.64816" lon="5.72251">
        <ele>672.2</ele>
        <time>2021-08-23T10:28:57Z</time>
      </trkpt>
      <trkpt lat="45.64811" lon="5.72254">
        <ele>672</ele>
        <time>2021-08-23T10:28:59Z</time>
      </trkpt>
      <trkpt lat="45.64809" lon="5.72255">
        <ele>672</ele>
        <time>2021-08-23T10:29:00Z</time>
      </trkpt>
      <trkpt lat="45.64805" lon="5.72258">
        <ele>671.8</ele>
        <time>2021-08-23T10:29:02Z</time>
      </trkpt>
      <trkpt lat="45.64799" lon="5.72261">
        <ele>671.6</ele>
        <time>2021-08-23T10:29:03Z</time>
      </trkpt>
      <trkpt lat="45.64794" lon="5.72265">
        <ele>671.5</ele>
        <time>2021-08-23T10:29:05Z</time>
      </trkpt>
      <trkpt lat="45.64791" lon="5.72266">
        <ele>671.5</ele>
        <time>2021-08-23T10:29:06Z</time>
      </trkpt>
      <trkpt lat="45.64788" lon="5.72267">
        <ele>671.4</ele>
        <time>2021-08-23T10:29:07Z</time>
      </trkpt>
      <trkpt lat="45.64788" lon="5.72266">
        <ele>671.4</ele>
        <time>2021-08-23T10:29:08Z</time>
      </trkpt>
      <trkpt lat="45.64791" lon="5.72262">
        <ele>671.3</ele>
        <time>2021-08-23T10:29:10Z</time>
      </trkpt>
      <trkpt lat="45.64792" lon="5.7226">
        <ele>671.3</ele>
        <time>2021-08-23T10:29:11Z</time>
      </trkpt>
      <trkpt lat="45.64792" lon="5.72259">
        <ele>671.3</ele>
        <time>2021-08-23T10:29:12Z</time>
      </trkpt>
      <trkpt lat="45.64791" lon="5.72259">
        <ele>671.3</ele>
        <time>2021-08-23T10:29:13Z</time>
      </trkpt>
      <trkpt lat="45.6479" lon="5.72259">
        <ele>671.3</ele>
        <time>2021-08-23T10:29:14Z</time>
      </trkpt>
      <trkpt lat="45.64786" lon="5.7226">
        <ele>671.3</ele>
        <time>2021-08-23T10:29:15Z</time>
      </trkpt>
      <trkpt lat="45.64784" lon="5.72261">
        <ele>671.3</ele>
        <time>2021-08-23T10:29:16Z</time>
      </trkpt>
      <trkpt lat="45.64778" lon="5.72263">
        <ele>671.2</ele>
        <time>2021-08-23T10:29:18Z</time>
      </trkpt>
      <trkpt lat="45.64773" lon="5.72264">
        <ele>671.2</ele>
        <time>2021-08-23T10:29:19Z</time>
      </trkpt>
      <trkpt lat="45.64767" lon="5.72264">
        <ele>671.2</ele>
        <time>2021-08-23T10:29:20Z</time>
      </trkpt>
      <trkpt lat="45.6476" lon="5.72266">
        <ele>671.2</ele>
        <time>2021-08-23T10:29:22Z</time>
      </trkpt>
      <trkpt lat="45.64751" lon="5.7227">
        <ele>671.2</ele>
        <time>2021-08-23T10:29:24Z</time>
      </trkpt>
      <trkpt lat="45.64744" lon="5.72272">
        <ele>671.3</ele>
        <time>2021-08-23T10:29:26Z</time>
      </trkpt>
      <trkpt lat="45.64739" lon="5.72271">
        <ele>671.3</ele>
        <time>2021-08-23T10:29:27Z</time>
      </trkpt>
      <trkpt lat="45.64732" lon="5.7227">
        <ele>671.4</ele>
        <time>2021-08-23T10:29:29Z</time>
      </trkpt>
      <trkpt lat="45.64729" lon="5.72269">
        <ele>671.4</ele>
        <time>2021-08-23T10:29:30Z</time>
      </trkpt>
      <trkpt lat="45.64726" lon="5.72268">
        <ele>671.5</ele>
        <time>2021-08-23T10:29:31Z</time>
      </trkpt>
      <trkpt lat="45.64724" lon="5.72267">
        <ele>671.6</ele>
        <time>2021-08-23T10:29:32Z</time>
      </trkpt>
      <trkpt lat="45.6472" lon="5.72266">
        <ele>671.6</ele>
        <time>2021-08-23T10:29:34Z</time>
      </trkpt>
      <trkpt lat="45.64716" lon="5.72266">
        <ele>671.7</ele>
        <time>2021-08-23T10:29:35Z</time>
      </trkpt>
      <trkpt lat="45.64713" lon="5.72266">
        <ele>671.8</ele>
        <time>2021-08-23T10:29:36Z</time>
      </trkpt>
      <trkpt lat="45.64709" lon="5.72265">
        <ele>672</ele>
        <time>2021-08-23T10:29:38Z</time>
      </trkpt>
      <trkpt lat="45.64706" lon="5.72265">
        <ele>672.1</ele>
        <time>2021-08-23T10:29:39Z</time>
      </trkpt>
      <trkpt lat="45.64704" lon="5.72262">
        <ele>672.2</ele>
        <time>2021-08-23T10:29:41Z</time>
      </trkpt>
      <trkpt lat="45.64703" lon="5.72261">
        <ele>672.3</ele>
        <time>2021-08-23T10:29:42Z</time>
      </trkpt>
      <trkpt lat="45.64701" lon="5.72257">
        <ele>672.8</ele>
        <time>2021-08-23T10:29:44Z</time>
      </trkpt>
      <trkpt lat="45.647" lon="5.72256">
        <ele>672.9</ele>
        <time>2021-08-23T10:29:45Z</time>
      </trkpt>
      <trkpt lat="45.64697" lon="5.72254">
        <ele>673.3</ele>
        <time>2021-08-23T10:29:47Z</time>
      </trkpt>
      <trkpt lat="45.64696" lon="5.72252">
        <ele>673.4</ele>
        <time>2021-08-23T10:29:48Z</time>
      </trkpt>
      <trkpt lat="45.64694" lon="5.72248">
        <ele>673.9</ele>
        <time>2021-08-23T10:29:50Z</time>
      </trkpt>
      <trkpt lat="45.64693" lon="5.72246">
        <ele>674</ele>
        <time>2021-08-23T10:29:51Z</time>
      </trkpt>
      <trkpt lat="45.64691" lon="5.72243">
        <ele>674.4</ele>
        <time>2021-08-23T10:29:53Z</time>
      </trkpt>
      <trkpt lat="45.6469" lon="5.72241">
        <ele>674.5</ele>
        <time>2021-08-23T10:29:54Z</time>
      </trkpt>
      <trkpt lat="45.6469" lon="5.72241">
        <ele>674.6</ele>
        <time>2021-08-23T10:29:55Z</time>
      </trkpt>
      <trkpt lat="45.6469" lon="5.7224">
        <ele>674.7</ele>
        <time>2021-08-23T10:29:57Z</time>
      </trkpt>
      <trkpt lat="45.6469" lon="5.72239">
        <ele>674.7</ele>
        <time>2021-08-23T10:29:58Z</time>
      </trkpt>
      <trkpt lat="45.64689" lon="5.72238">
        <ele>674.8</ele>
        <time>2021-08-23T10:29:59Z</time>
      </trkpt>
      <trkpt lat="45.64689" lon="5.72237">
        <ele>675</ele>
        <time>2021-08-23T10:30:00Z</time>
      </trkpt>
      <trkpt lat="45.64689" lon="5.72235">
        <ele>675.2</ele>
        <time>2021-08-23T10:30:01Z</time>
      </trkpt>
      <trkpt lat="45.64689" lon="5.72233">
        <ele>677.3</ele>
        <time>2021-08-23T10:30:03Z</time>
      </trkpt>
      <trkpt lat="45.64689" lon="5.72232">
        <ele>677.4</ele>
        <time>2021-08-23T10:30:04Z</time>
      </trkpt>
      <trkpt lat="45.64702" lon="5.72225">
        <ele>678.9</ele>
        <time>2021-08-23T10:30:21Z</time>
      </trkpt>
      <trkpt lat="45.64708" lon="5.72222">
        <ele>679.4</ele>
        <time>2021-08-23T10:30:23Z</time>
      </trkpt>
      <trkpt lat="45.64711" lon="5.7222">
        <ele>679.6</ele>
        <time>2021-08-23T10:30:24Z</time>
      </trkpt>
      <trkpt lat="45.64714" lon="5.72221">
        <ele>679.9</ele>
        <time>2021-08-23T10:30:26Z</time>
      </trkpt>
      <trkpt lat="45.64715" lon="5.72222">
        <ele>680</ele>
        <time>2021-08-23T10:30:27Z</time>
      </trkpt>
      <trkpt lat="45.64715" lon="5.72222">
        <ele>680</ele>
        <time>2021-08-23T10:30:28Z</time>
      </trkpt>
      <trkpt lat="45.64715" lon="5.72221">
        <ele>680</ele>
        <time>2021-08-23T10:30:29Z</time>
      </trkpt>
      <trkpt lat="45.64715" lon="5.72222">
        <ele>680</ele>
        <time>2021-08-23T10:30:30Z</time>
      </trkpt>
      <trkpt lat="45.64715" lon="5.72224">
        <ele>680.1</ele>
        <time>2021-08-23T10:30:32Z</time>
      </trkpt>
      <trkpt lat="45.64715" lon="5.72225">
        <ele>680.2</ele>
        <time>2021-08-23T10:30:34Z</time>
      </trkpt>
      <trkpt lat="45.64683" lon="5.71987">
        <ele>713.3</ele>
        <time>2021-08-23T10:36:18Z</time>
      </trkpt>
      <trkpt lat="45.64681" lon="5.71983">
        <ele>713.3</ele>
        <time>2021-08-23T10:36:19Z</time>
      </trkpt>
      <trkpt lat="45.64678" lon="5.7198">
        <ele>713.3</ele>
        <time>2021-08-23T10:36:20Z</time>
      </trkpt>
      <trkpt lat="45.64674" lon="5.71977">
        <ele>713.2</ele>
        <time>2021-08-23T10:36:22Z</time>
      </trkpt>
      <trkpt lat="45.64672" lon="5.71975">
        <ele>713.3</ele>
        <time>2021-08-23T10:36:23Z</time>
      </trkpt>
      <trkpt lat="45.6467" lon="5.71974">
        <ele>713.3</ele>
        <time>2021-08-23T10:36:24Z</time>
      </trkpt>
      <trkpt lat="45.64667" lon="5.71971">
        <ele>713.3</ele>
        <time>2021-08-23T10:36:26Z</time>
      </trkpt>
      <trkpt lat="45.64665" lon="5.71968">
        <ele>713.4</ele>
        <time>2021-08-23T10:36:28Z</time>
      </trkpt>
      <trkpt lat="45.64664" lon="5.71967">
        <ele>713.5</ele>
        <time>2021-08-23T10:36:29Z</time>
      </trkpt>
      <trkpt lat="45.64662" lon="5.71965">
        <ele>713.6</ele>
        <time>2021-08-23T10:36:30Z</time>
      </trkpt>
      <trkpt lat="45.64659" lon="5.71963">
        <ele>713.8</ele>
        <time>2021-08-23T10:36:32Z</time>
      </trkpt>
      <trkpt lat="45.64659" lon="5.71962">
        <ele>713.8</ele>
        <time>2021-08-23T10:36:33Z</time>
      </trkpt>
      <trkpt lat="45.64657" lon="5.71962">
        <ele>713.9</ele>
        <time>2021-08-23T10:36:34Z</time>
      </trkpt>
      <trkpt lat="45.64657" lon="5.71961">
        <ele>714</ele>
        <time>2021-08-23T10:36:36Z</time>
      </trkpt>
      <trkpt lat="45.64538" lon="5.71926">
        <ele>727.2</ele>
        <time>2021-08-23T10:38:28Z</time>
      </trkpt>
      <trkpt lat="45.64533" lon="5.71923">
        <ele>727.1</ele>
        <time>2021-08-23T10:38:30Z</time>
      </trkpt>
      <trkpt lat="45.64531" lon="5.71923">
        <ele>727.1</ele>
        <time>2021-08-23T10:38:31Z</time>
      </trkpt>
      <trkpt lat="45.64529" lon="5.71923">
        <ele>727</ele>
        <time>2021-08-23T10:38:32Z</time>
      </trkpt>
      <trkpt lat="45.64525" lon="5.71924">
        <ele>726.9</ele>
        <time>2021-08-23T10:38:34Z</time>
      </trkpt>
      <trkpt lat="45.6452" lon="5.71924">
        <ele>726.9</ele>
        <time>2021-08-23T10:38:35Z</time>
      </trkpt>
      <trkpt lat="45.64517" lon="5.71925">
        <ele>726.8</ele>
        <time>2021-08-23T10:38:36Z</time>
      </trkpt>
      <trkpt lat="45.64512" lon="5.71926">
        <ele>726.7</ele>
        <time>2021-08-23T10:38:38Z</time>
      </trkpt>
      <trkpt lat="45.6451" lon="5.71926">
        <ele>726.7</ele>
        <time>2021-08-23T10:38:39Z</time>
      </trkpt>
      <trkpt lat="45.64507" lon="5.71927">
        <ele>726.6</ele>
        <time>2021-08-23T10:38:41Z</time>
      </trkpt>
      <trkpt lat="45.64425" lon="5.7197">
        <ele>724.5</ele>
        <time>2021-08-23T10:39:08Z</time>
      </trkpt>
      <trkpt lat="45.64419" lon="5.71974">
        <ele>724.6</ele>
        <time>2021-08-23T10:39:10Z</time>
      </trkpt>
      <trkpt lat="45.64405" lon="5.71979">
        <ele>725</ele>
        <time>2021-08-23T10:39:12Z</time>
      </trkpt>
      <trkpt lat="45.64404" lon="5.71979">
        <ele>725</ele>
        <time>2021-08-23T10:39:13Z</time>
      </trkpt>
      <trkpt lat="45.64403" lon="5.71979">
        <ele>725.1</ele>
        <time>2021-08-23T10:39:14Z</time>
      </trkpt>
      <trkpt lat="45.64401" lon="5.71978">
        <ele>725.1</ele>
        <time>2021-08-23T10:39:16Z</time>
      </trkpt>
      <trkpt lat="45.644" lon="5.71978">
        <ele>725.2</ele>
        <time>2021-08-23T10:39:18Z</time>
      </trkpt>
      <trkpt lat="45.64399" lon="5.71978">
        <ele>725.2</ele>
        <time>2021-08-23T10:39:19Z</time>
      </trkpt>
      <trkpt lat="45.64399" lon="5.71977">
        <ele>725.2</ele>
        <time>2021-08-23T10:39:20Z</time>
      </trkpt>
      <trkpt lat="45.64398" lon="5.71978">
        <ele>725.3</ele>
        <time>2021-08-23T10:39:22Z</time>
      </trkpt>
      <trkpt lat="45.64396" lon="5.71978">
        <ele>725.3</ele>
        <time>2021-08-23T10:39:24Z</time>
      </trkpt>
      <trkpt lat="45.64396" lon="5.71978">
        <ele>725.4</ele>
        <time>2021-08-23T10:39:25Z</time>
      </trkpt>
      <trkpt lat="45.64395" lon="5.71978">
        <ele>725.4</ele>
        <time>2021-08-23T10:39:26Z</time>
      </trkpt>
      <trkpt lat="45.64395" lon="5.71978">
        <ele>725.4</ele>
        <time>2021-08-23T10:39:28Z</time>
      </trkpt>
      <trkpt lat="45.64394" lon="5.71978">
        <ele>725.4</ele>
        <time>2021-08-23T10:39:29Z</time>
      </trkpt>
      <trkpt lat="45.64394" lon="5.71978">
        <ele>725.5</ele>
        <time>2021-08-23T10:39:30Z</time>
      </trkpt>
      <trkpt lat="45.64393" lon="5.71977">
        <ele>725.5</ele>
        <time>2021-08-23T10:39:31Z</time>
      </trkpt>
      <trkpt lat="45.64391" lon="5.71976">
        <ele>725.6</ele>
        <time>2021-08-23T10:39:33Z</time>
      </trkpt>
      <trkpt lat="45.64389" lon="5.71974">
        <ele>725.8</ele>
        <time>2021-08-23T10:39:34Z</time>
      </trkpt>
      <trkpt lat="45.64385" lon="5.71969">
        <ele>726.1</ele>
        <time>2021-08-23T10:39:36Z</time>
      </trkpt>
      <trkpt lat="45.64372" lon="5.71951">
        <ele>727.8</ele>
        <time>2021-08-23T10:39:37Z</time>
      </trkpt>
      <trkpt lat="45.64367" lon="5.71944">
        <ele>728.6</ele>
        <time>2021-08-23T10:39:39Z</time>
      </trkpt>
      <trkpt lat="45.64364" lon="5.7194">
        <ele>729.1</ele>
        <time>2021-08-23T10:39:40Z</time>
      </trkpt>
      <trkpt lat="45.6436" lon="5.71937">
        <ele>729.6</ele>
        <time>2021-08-23T10:39:42Z</time>
      </trkpt>
      <trkpt lat="45.64358" lon="5.71932">
        <ele>730.1</ele>
        <time>2021-08-23T10:39:43Z</time>
      </trkpt>
      <trkpt lat="45.64356" lon="5.71931">
        <ele>730.5</ele>
        <time>2021-08-23T10:39:44Z</time>
      </trkpt>
      <trkpt lat="45.64354" lon="5.7193">
        <ele>730.7</ele>
        <time>2021-08-23T10:39:46Z</time>
      </trkpt>
      <trkpt lat="45.64353" lon="5.71929">
        <ele>730.9</ele>
        <time>2021-08-23T10:39:47Z</time>
      </trkpt>
      <trkpt lat="45.64353" lon="5.71929">
        <ele>731</ele>
        <time>2021-08-23T10:39:49Z</time>
      </trkpt>
      <trkpt lat="45.64352" lon="5.71928">
        <ele>731.1</ele>
        <time>2021-08-23T10:39:50Z</time>
      </trkpt>
      <trkpt lat="45.64351" lon="5.71928">
        <ele>731.1</ele>
        <time>2021-08-23T10:39:52Z</time>
      </trkpt>
      <trkpt lat="45.64351" lon="5.71928">
        <ele>731.2</ele>
        <time>2021-08-23T10:39:53Z</time>
      </trkpt>
      <trkpt lat="45.64341" lon="5.71918">
        <ele>732.8</ele>
        <time>2021-08-23T10:40:16Z</time>
      </trkpt>
      <trkpt lat="45.64342" lon="5.71913">
        <ele>733.2</ele>
        <time>2021-08-23T10:40:17Z</time>
      </trkpt>
      <trkpt lat="45.64342" lon="5.7191">
        <ele>733.5</ele>
        <time>2021-08-23T10:40:18Z</time>
      </trkpt>
      <trkpt lat="45.64342" lon="5.71908">
        <ele>733.6</ele>
        <time>2021-08-23T10:40:20Z</time>
      </trkpt>
      <trkpt lat="45.64341" lon="5.71905">
        <ele>733.8</ele>
        <time>2021-08-23T10:40:21Z</time>
      </trkpt>
      <trkpt lat="45.64341" lon="5.71904">
        <ele>733.9</ele>
        <time>2021-08-23T10:40:22Z</time>
      </trkpt>
      <trkpt lat="45.64341" lon="5.71903">
        <ele>734</ele>
        <time>2021-08-23T10:40:23Z</time>
      </trkpt>
      <trkpt lat="45.64341" lon="5.71902">
        <ele>734</ele>
        <time>2021-08-23T10:40:24Z</time>
      </trkpt>
      <trkpt lat="45.64341" lon="5.71901">
        <ele>734.1</ele>
        <time>2021-08-23T10:40:26Z</time>
      </trkpt>
      <trkpt lat="45.64341" lon="5.719">
        <ele>734.2</ele>
        <time>2021-08-23T10:40:27Z</time>
      </trkpt>
      <trkpt lat="45.64341" lon="5.71899">
        <ele>734.2</ele>
        <time>2021-08-23T10:40:29Z</time>
      </trkpt>
      <trkpt lat="45.64396" lon="5.7182">
        <ele>743.8</ele>
        <time>2021-08-23T10:42:05Z</time>
      </trkpt>
      <trkpt lat="45.64398" lon="5.71817">
        <ele>744.4</ele>
        <time>2021-08-23T10:42:06Z</time>
      </trkpt>
      <trkpt lat="45.64399" lon="5.71815">
        <ele>744.7</ele>
        <time>2021-08-23T10:42:08Z</time>
      </trkpt>
      <trkpt lat="45.64399" lon="5.71812">
        <ele>744.9</ele>
        <time>2021-08-23T10:42:09Z</time>
      </trkpt>
      <trkpt lat="45.64398" lon="5.71811">
        <ele>745.2</ele>
        <time>2021-08-23T10:42:11Z</time>
      </trkpt>
      <trkpt lat="45.64397" lon="5.71809">
        <ele>745.5</ele>
        <time>2021-08-23T10:42:12Z</time>
      </trkpt>
      <trkpt lat="45.64395" lon="5.71807">
        <ele>745.8</ele>
        <time>2021-08-23T10:42:14Z</time>
      </trkpt>
      <trkpt lat="45.64394" lon="5.71805">
        <ele>746</ele>
        <time>2021-08-23T10:42:15Z</time>
      </trkpt>
      <trkpt lat="45.64393" lon="5.71804">
        <ele>746.2</ele>
        <time>2021-08-23T10:42:16Z</time>
      </trkpt>
      <trkpt lat="45.64392" lon="5.71802">
        <ele>746.5</ele>
        <time>2021-08-23T10:42:17Z</time>
      </trkpt>
      <trkpt lat="45.64391" lon="5.71801">
        <ele>746.7</ele>
        <time>2021-08-23T10:42:19Z</time>
      </trkpt>
      <trkpt lat="45.6443" lon="5.7178">
        <ele>752.2</ele>
        <time>2021-08-23T10:43:14Z</time>
      </trkpt>
      <trkpt lat="45.64433" lon="5.71777">
        <ele>752.6</ele>
        <time>2021-08-23T10:43:16Z</time>
      </trkpt>
      <trkpt lat="45.64436" lon="5.71774">
        <ele>753</ele>
        <time>2021-08-23T10:43:17Z</time>
      </trkpt>
      <trkpt lat="45.64439" lon="5.7177">
        <ele>753.5</ele>
        <time>2021-08-23T10:43:19Z</time>
      </trkpt>
      <trkpt lat="45.64441" lon="5.71766">
        <ele>753.9</ele>
        <time>2021-08-23T10:43:20Z</time>
      </trkpt>
      <trkpt lat="45.64441" lon="5.71764">
        <ele>754.1</ele>
        <time>2021-08-23T10:43:21Z</time>
      </trkpt>
      <trkpt lat="45.64443" lon="5.71761">
        <ele>754.4</ele>
        <time>2021-08-23T10:43:23Z</time>
      </trkpt>
      <trkpt lat="45.64443" lon="5.71759">
        <ele>754.6</ele>
        <time>2021-08-23T10:43:24Z</time>
      </trkpt>
      <trkpt lat="45.64444" lon="5.71756">
        <ele>754.8</ele>
        <time>2021-08-23T10:43:26Z</time>
      </trkpt>
      <trkpt lat="45.64444" lon="5.71755">
        <ele>755</ele>
        <time>2021-08-23T10:43:27Z</time>
      </trkpt>
      <trkpt lat="45.64443" lon="5.71754">
        <ele>755.1</ele>
        <time>2021-08-23T10:43:28Z</time>
      </trkpt>
      <trkpt lat="45.64443" lon="5.71752">
        <ele>755.2</ele>
        <time>2021-08-23T10:43:30Z</time>
      </trkpt>
      <trkpt lat="45.64442" lon="5.71751">
        <ele>755.3</ele>
        <time>2021-08-23T10:43:32Z</time>
      </trkpt>
      <trkpt lat="45.64442" lon="5.71751">
        <ele>755.4</ele>
        <time>2021-08-23T10:43:33Z</time>
      </trkpt>
      <trkpt lat="45.64442" lon="5.7175">
        <ele>755.4</ele>
        <time>2021-08-23T10:43:35Z</time>
      </trkpt>
      <trkpt lat="45.64442" lon="5.7175">
        <ele>755.4</ele>
        <time>2021-08-23T10:43:36Z</time>
      </trkpt>
      <trkpt lat="45.64442" lon="5.7175">
        <ele>755.5</ele>
        <time>2021-08-23T10:43:37Z</time>
      </trkpt>
      <trkpt lat="45.64441" lon="5.7175">
        <ele>755.5</ele>
        <time>2021-08-23T10:43:38Z</time>
      </trkpt>
      <trkpt lat="45.64501" lon="5.71723">
        <ele>763.2</ele>
        <time>2021-08-23T10:44:29Z</time>
      </trkpt>
      <trkpt lat="45.64505" lon="5.71722">
        <ele>763.6</ele>
        <time>2021-08-23T10:44:31Z</time>
      </trkpt>
      <trkpt lat="45.64506" lon="5.71722">
        <ele>763.8</ele>
        <time>2021-08-23T10:44:32Z</time>
      </trkpt>
      <trkpt lat="45.64508" lon="5.71723">
        <ele>764</ele>
        <time>2021-08-23T10:44:34Z</time>
      </trkpt>
      <trkpt lat="45.64509" lon="5.71723">
        <ele>764.1</ele>
        <time>2021-08-23T10:44:35Z</time>
      </trkpt>
      <trkpt lat="45.64509" lon="5.71724">
        <ele>764.1</ele>
        <time>2021-08-23T10:44:36Z</time>
      </trkpt>
      <trkpt lat="45.6451" lon="5.71724">
        <ele>764.2</ele>
        <time>2021-08-23T10:44:38Z</time>
      </trkpt>
      <trkpt lat="45.6451" lon="5.71724">
        <ele>764.2</ele>
        <time>2021-08-23T10:44:39Z</time>
      </trkpt>
      <trkpt lat="45.6451" lon="5.71724">
        <ele>764.2</ele>
        <time>2021-08-23T10:44:40Z</time>
      </trkpt>
      <trkpt lat="45.6451" lon="5.71725">
        <ele>764.3</ele>
        <time>2021-08-23T10:44:42Z</time>
      </trkpt>
      <trkpt lat="45.64522" lon="5.71727">
        <ele>765.7</ele>
        <time>2021-08-23T10:44:56Z</time>
      </trkpt>
      <trkpt lat="45.64523" lon="5.71725">
        <ele>765.9</ele>
        <time>2021-08-23T10:44:57Z</time>
      </trkpt>
      <trkpt lat="45.64525" lon="5.71722">
        <ele>766.2</ele>
        <time>2021-08-23T10:44:59Z</time>
      </trkpt>
      <trkpt lat="45.64525" lon="5.71721">
        <ele>766.3</ele>
        <time>2021-08-23T10:45:00Z</time>
      </trkpt>
      <trkpt lat="45.64525" lon="5.7172">
        <ele>766.4</ele>
        <time>2021-08-23T10:45:01Z</time>
      </trkpt>
      <trkpt lat="45.64525" lon="5.7172">
        <ele>766.4</ele>
        <time>2021-08-23T10:45:03Z</time>
      </trkpt>
      <trkpt lat="45.64525" lon="5.7172">
        <ele>766.4</ele>
        <time>2021-08-23T10:45:04Z</time>
      </trkpt>
      <trkpt lat="45.64525" lon="5.7172">
        <ele>766.4</ele>
        <time>2021-08-23T10:45:06Z</time>
      </trkpt>
      <trkpt lat="45.64525" lon="5.7172">
        <ele>766.4</ele>
        <time>2021-08-23T10:45:07Z</time>
      </trkpt>
      <trkpt lat="45.64525" lon="5.71719">
        <ele>766.5</ele>
        <time>2021-08-23T10:45:09Z</time>
      </trkpt>
      <trkpt lat="45.64525" lon="5.71716">
        <ele>766.7</ele>
        <time>2021-08-23T10:45:10Z</time>
      </trkpt>
      <trkpt lat="45.64544" lon="5.71617">
        <ele>775.9</ele>
        <time>2021-08-23T10:46:31Z</time>
      </trkpt>
      <trkpt lat="45.64541" lon="5.71613">
        <ele>776.3</ele>
        <time>2021-08-23T10:46:34Z</time>
      </trkpt>
      <trkpt lat="45.6454" lon="5.71612">
        <ele>776.3</ele>
        <time>2021-08-23T10:46:35Z</time>
      </trkpt>
      <trkpt lat="45.6454" lon="5.71612">
        <ele>776.4</ele>
        <time>2021-08-23T10:46:36Z</time>
      </trkpt>
      <trkpt lat="45.64539" lon="5.71612">
        <ele>776.4</ele>
        <time>2021-08-23T10:46:38Z</time>
      </trkpt>
      <trkpt lat="45.64539" lon="5.71611">
        <ele>776.4</ele>
        <time>2021-08-23T10:46:40Z</time>
      </trkpt>
      <trkpt lat="45.64539" lon="5.71611">
        <ele>776.4</ele>
        <time>2021-08-23T10:46:42Z</time>
      </trkpt>
      <trkpt lat="45.64539" lon="5.7161">
        <ele>776.5</ele>
        <time>2021-08-23T10:46:43Z</time>
      </trkpt>
      <trkpt lat="45.64539" lon="5.71609">
        <ele>776.6</ele>
        <time>2021-08-23T10:46:44Z</time>
      </trkpt>
      <trkpt lat="45.64539" lon="5.71606">
        <ele>776.7</ele>
        <time>2021-08-23T10:46:45Z</time>
      </trkpt>
      <trkpt lat="45.64538" lon="5.71604">
        <ele>776.8</ele>
        <time>2021-08-23T10:46:47Z</time>
      </trkpt>
      <trkpt lat="45.64538" lon="5.71603">
        <ele>776.9</ele>
        <time>2021-08-23T10:46:48Z</time>
      </trkpt>
      <trkpt lat="45.64537" lon="5.71602">
        <ele>776.9</ele>
        <time>2021-08-23T10:46:49Z</time>
      </trkpt>
      <trkpt lat="45.64537" lon="5.71601">
        <ele>777</ele>
        <time>2021-08-23T10:46:50Z</time>
      </trkpt>
      <trkpt lat="45.64535" lon="5.71598">
        <ele>777.2</ele>
        <time>2021-08-23T10:46:52Z</time>
      </trkpt>
      <trkpt lat="45.64534" lon="5.71596">
        <ele>777.3</ele>
        <time>2021-08-23T10:46:53Z</time>
      </trkpt>
      <trkpt lat="45.64533" lon="5.71595">
        <ele>777.3</ele>
        <time>2021-08-23T10:46:55Z</time>
      </trkpt>
      <trkpt lat="45.64533" lon="5.71594">
        <ele>777.4</ele>
        <time>2021-08-23T10:46:56Z</time>
      </trkpt>
      <trkpt lat="45.64534" lon="5.71592">
        <ele>777.4</ele>
        <time>2021-08-23T10:46:58Z</time>
      </trkpt>
      <trkpt lat="45.64531" lon="5.7159">
        <ele>777.6</ele>
        <time>2021-08-23T10:46:59Z</time>
      </trkpt>
      <trkpt lat="45.64525" lon="5.71588">
        <ele>777.8</ele>
        <time>2021-08-23T10:47:01Z</time>
      </trkpt>
      <trkpt lat="45.64518" lon="5.71584">
        <ele>778</ele>
        <time>2021-08-23T10:47:02Z</time>
      </trkpt>
      <trkpt lat="45.64512" lon="5.71581">
        <ele>778.2</ele>
        <time>2021-08-23T10:47:03Z</time>
      </trkpt>
      <trkpt lat="45.6451" lon="5.71581">
        <ele>778.2</ele>
        <time>2021-08-23T10:47:05Z</time>
      </trkpt>
      <trkpt lat="45.64509" lon="5.7158">
        <ele>778.3</ele>
        <time>2021-08-23T10:47:06Z</time>
      </trkpt>
      <trkpt lat="45.64509" lon="5.71579">
        <ele>778.3</ele>
        <time>2021-08-23T10:47:08Z</time>
      </trkpt>
      <trkpt lat="45.64509" lon="5.71578">
        <ele>778.3</ele>
        <time>2021-08-23T10:47:09Z</time>
      </trkpt>
      <trkpt lat="45.64469" lon="5.7151">
        <ele>781.9</ele>
        <time>2021-08-23T10:47:48Z</time>
      </trkpt>
      <trkpt lat="45.64462" lon="5.71514">
        <ele>782.3</ele>
        <time>2021-08-23T10:47:50Z</time>
      </trkpt>
      <trkpt lat="45.64456" lon="5.71519">
        <ele>782.6</ele>
        <time>2021-08-23T10:47:51Z</time>
      </trkpt>
      <trkpt lat="45.64444" lon="5.71528">
        <ele>782.9</ele>
        <time>2021-08-23T10:47:52Z</time>
      </trkpt>
      <trkpt lat="45.6444" lon="5.7153">
        <ele>782.9</ele>
        <time>2021-08-23T10:47:54Z</time>
      </trkpt>
      <trkpt lat="45.64437" lon="5.71531">
        <ele>782.9</ele>
        <time>2021-08-23T10:47:56Z</time>
      </trkpt>
      <trkpt lat="45.64435" lon="5.71531">
        <ele>782.8</ele>
        <time>2021-08-23T10:47:57Z</time>
      </trkpt>
      <trkpt lat="45.64434" lon="5.71531">
        <ele>782.8</ele>
        <time>2021-08-23T10:47:59Z</time>
      </trkpt>
      <trkpt lat="45.64433" lon="5.7153">
        <ele>782.8</ele>
        <time>2021-08-23T10:48:00Z</time>
      </trkpt>
      <trkpt lat="45.64404" lon="5.71508">
        <ele>781.7</ele>
        <time>2021-08-23T10:48:18Z</time>
      </trkpt>
      <trkpt lat="45.64401" lon="5.71504">
        <ele>781.5</ele>
        <time>2021-08-23T10:48:19Z</time>
      </trkpt>
      <trkpt lat="45.64399" lon="5.715">
        <ele>781.4</ele>
        <time>2021-08-23T10:48:20Z</time>
      </trkpt>
      <trkpt lat="45.64395" lon="5.71492">
        <ele>781.1</ele>
        <time>2021-08-23T10:48:22Z</time>
      </trkpt>
      <trkpt lat="45.64394" lon="5.71487">
        <ele>781</ele>
        <time>2021-08-23T10:48:23Z</time>
      </trkpt>
      <trkpt lat="45.64393" lon="5.71483">
        <ele>780.9</ele>
        <time>2021-08-23T10:48:24Z</time>
      </trkpt>
      <trkpt lat="45.64394" lon="5.71476">
        <ele>780.8</ele>
        <time>2021-08-23T10:48:25Z</time>
      </trkpt>
      <trkpt lat="45.64394" lon="5.7147">
        <ele>780.8</ele>
        <time>2021-08-23T10:48:26Z</time>
      </trkpt>
      <trkpt lat="45.64393" lon="5.71467">
        <ele>780.8</ele>
        <time>2021-08-23T10:48:27Z</time>
      </trkpt>
      <trkpt lat="45.64391" lon="5.71462">
        <ele>780.8</ele>
        <time>2021-08-23T10:48:29Z</time>
      </trkpt>
      <trkpt lat="45.64389" lon="5.71457">
        <ele>780.9</ele>
        <time>2021-08-23T10:48:30Z</time>
      </trkpt>
      <trkpt lat="45.64388" lon="5.71454">
        <ele>781</ele>
        <time>2021-08-23T10:48:31Z</time>
      </trkpt>
      <trkpt lat="45.64388" lon="5.71452">
        <ele>781</ele>
        <time>2021-08-23T10:48:33Z</time>
      </trkpt>
      <trkpt lat="45.64387" lon="5.7145">
        <ele>781.1</ele>
        <time>2021-08-23T10:48:34Z</time>
      </trkpt>
      <trkpt lat="45.64386" lon="5.7145">
        <ele>781.2</ele>
        <time>2021-08-23T10:48:36Z</time>
      </trkpt>
      <trkpt lat="45.64385" lon="5.71452">
        <ele>781.2</ele>
        <time>2021-08-23T10:48:37Z</time>
      </trkpt>
      <trkpt lat="45.64385" lon="5.71454">
        <ele>781.3</ele>
        <time>2021-08-23T10:48:39Z</time>
      </trkpt>
      <trkpt lat="45.64384" lon="5.71456">
        <ele>781.4</ele>
        <time>2021-08-23T10:48:40Z</time>
      </trkpt>
      <trkpt lat="45.64384" lon="5.71457">
        <ele>781.4</ele>
        <time>2021-08-23T10:48:41Z</time>
      </trkpt>
      <trkpt lat="45.64383" lon="5.71459">
        <ele>781.5</ele>
        <time>2021-08-23T10:48:43Z</time>
      </trkpt>
      <trkpt lat="45.64333" lon="5.7142">
        <ele>786.4</ele>
        <time>2021-08-23T10:49:48Z</time>
      </trkpt>
      <trkpt lat="45.6433" lon="5.71419">
        <ele>786.4</ele>
        <time>2021-08-23T10:49:50Z</time>
      </trkpt>
      <trkpt lat="45.64329" lon="5.71419">
        <ele>786.5</ele>
        <time>2021-08-23T10:49:51Z</time>
      </trkpt>
      <trkpt lat="45.64328" lon="5.71419">
        <ele>786.5</ele>
        <time>2021-08-23T10:49:52Z</time>
      </trkpt>
      <trkpt lat="45.64327" lon="5.7142">
        <ele>786.5</ele>
        <time>2021-08-23T10:49:53Z</time>
      </trkpt>
      <trkpt lat="45.64327" lon="5.7142">
        <ele>786.5</ele>
        <time>2021-08-23T10:49:54Z</time>
      </trkpt>
      <trkpt lat="45.64326" lon="5.71421">
        <ele>786.5</ele>
        <time>2021-08-23T10:49:55Z</time>
      </trkpt>
      <trkpt lat="45.64325" lon="5.71422">
        <ele>786.5</ele>
        <time>2021-08-23T10:49:57Z</time>
      </trkpt>
      <trkpt lat="45.64324" lon="5.71424">
        <ele>786.5</ele>
        <time>2021-08-23T10:49:59Z</time>
      </trkpt>
      <trkpt lat="45.64323" lon="5.71425">
        <ele>786.4</ele>
        <time>2021-08-23T10:50:00Z</time>
      </trkpt>
      <trkpt lat="45.64321" lon="5.71426">
        <ele>786.4</ele>
        <time>2021-08-23T10:50:01Z</time>
      </trkpt>
      <trkpt lat="45.64319" lon="5.71427">
        <ele>786.3</ele>
        <time>2021-08-23T10:50:03Z</time>
      </trkpt>
      <trkpt lat="45.64318" lon="5.71427">
        <ele>786.2</ele>
        <time>2021-08-23T10:50:04Z</time>
      </trkpt>
      <trkpt lat="45.64317" lon="5.71428">
        <ele>786.2</ele>
        <time>2021-08-23T10:50:05Z</time>
      </trkpt>
      <trkpt lat="45.64311" lon="5.71433">
        <ele>785.8</ele>
        <time>2021-08-23T10:50:07Z</time>
      </trkpt>
      <trkpt lat="45.64301" lon="5.71442">
        <ele>784.6</ele>
        <time>2021-08-23T10:50:08Z</time>
      </trkpt>
      <trkpt lat="45.64296" lon="5.71447">
        <ele>784.1</ele>
        <time>2021-08-23T10:50:09Z</time>
      </trkpt>
      <trkpt lat="45.64294" lon="5.71448">
        <ele>784</ele>
        <time>2021-08-23T10:50:10Z</time>
      </trkpt>
      <trkpt lat="45.64288" lon="5.71452">
        <ele>783.7</ele>
        <time>2021-08-23T10:50:12Z</time>
      </trkpt>
      <trkpt lat="45.64281" lon="5.7146">
        <ele>783.3</ele>
        <time>2021-08-23T10:50:14Z</time>
      </trkpt>
      <trkpt lat="45.64279" lon="5.71461">
        <ele>783.3</ele>
        <time>2021-08-23T10:50:15Z</time>
      </trkpt>
      <trkpt lat="45.64277" lon="5.71461">
        <ele>783.3</ele>
        <time>2021-08-23T10:50:17Z</time>
      </trkpt>
      <trkpt lat="45.64276" lon="5.71459">
        <ele>783.2</ele>
        <time>2021-08-23T10:50:18Z</time>
      </trkpt>
      <trkpt lat="45.64276" lon="5.71457">
        <ele>783.2</ele>
        <time>2021-08-23T10:50:20Z</time>
      </trkpt>
      <trkpt lat="45.64275" lon="5.71455">
        <ele>783.2</ele>
        <time>2021-08-23T10:50:21Z</time>
      </trkpt>
      <trkpt lat="45.64275" lon="5.71453">
        <ele>783.3</ele>
        <time>2021-08-23T10:50:23Z</time>
      </trkpt>
      <trkpt lat="45.64274" lon="5.71451">
        <ele>783.3</ele>
        <time>2021-08-23T10:50:25Z</time>
      </trkpt>
      <trkpt lat="45.64274" lon="5.71449">
        <ele>783.3</ele>
        <time>2021-08-23T10:50:26Z</time>
      </trkpt>
      <trkpt lat="45.64273" lon="5.71445">
        <ele>783.4</ele>
        <time>2021-08-23T10:50:27Z</time>
      </trkpt>
      <trkpt lat="45.64273" lon="5.71444">
        <ele>783.4</ele>
        <time>2021-08-23T10:50:29Z</time>
      </trkpt>
      <trkpt lat="45.64273" lon="5.71442">
        <ele>783.4</ele>
        <time>2021-08-23T10:50:30Z</time>
      </trkpt>
      <trkpt lat="45.64273" lon="5.71441">
        <ele>783.4</ele>
        <time>2021-08-23T10:50:32Z</time>
      </trkpt>
      <trkpt lat="45.64273" lon="5.71439">
        <ele>783.5</ele>
        <time>2021-08-23T10:50:33Z</time>
      </trkpt>
      <trkpt lat="45.64267" lon="5.71437">
        <ele>783.8</ele>
        <time>2021-08-23T10:50:34Z</time>
      </trkpt>
      <trkpt lat="45.64261" lon="5.71436">
        <ele>784.2</ele>
        <time>2021-08-23T10:50:36Z</time>
      </trkpt>
      <trkpt lat="45.64256" lon="5.71435">
        <ele>784.7</ele>
        <time>2021-08-23T10:50:39Z</time>
      </trkpt>
      <trkpt lat="45.64251" lon="5.71433">
        <ele>785.4</ele>
        <time>2021-08-23T10:50:40Z</time>
      </trkpt>
      <trkpt lat="45.64245" lon="5.71432">
        <ele>786.1</ele>
        <time>2021-08-23T10:50:43Z</time>
      </trkpt>
      <trkpt lat="45.6424" lon="5.71431">
        <ele>786.8</ele>
        <time>2021-08-23T10:50:44Z</time>
      </trkpt>
      <trkpt lat="45.64234" lon="5.7143">
        <ele>787.5</ele>
        <time>2021-08-23T10:50:46Z</time>
      </trkpt>
      <trkpt lat="45.64229" lon="5.71429">
        <ele>788.3</ele>
        <time>2021-08-23T10:50:48Z</time>
      </trkpt>
      <trkpt lat="45.64223" lon="5.71428">
        <ele>789.1</ele>
        <time>2021-08-23T10:50:50Z</time>
      </trkpt>
      <trkpt lat="45.64218" lon="5.71427">
        <ele>789.9</ele>
        <time>2021-08-23T10:50:52Z</time>
      </trkpt>
      <trkpt lat="45.64212" lon="5.71425">
        <ele>790.8</ele>
        <time>2021-08-23T10:50:53Z</time>
      </trkpt>
      <trkpt lat="45.64207" lon="5.71424">
        <ele>791.7</ele>
        <time>2021-08-23T10:50:56Z</time>
      </trkpt>
      <trkpt lat="45.64201" lon="5.71423">
        <ele>792.6</ele>
        <time>2021-08-23T10:50:58Z</time>
      </trkpt>
      <trkpt lat="45.64196" lon="5.71422">
        <ele>793.6</ele>
        <time>2021-08-23T10:50:59Z</time>
      </trkpt>
      <trkpt lat="45.6418" lon="5.71422">
        <ele>796.4</ele>
        <time>2021-08-23T10:51:00Z</time>
      </trkpt>
      <trkpt lat="45.64161" lon="5.71423">
        <ele>798.8</ele>
        <time>2021-08-23T10:51:02Z</time>
      </trkpt>
      <trkpt lat="45.64155" lon="5.71423">
        <ele>799.3</ele>
        <time>2021-08-23T10:51:03Z</time>
      </trkpt>
      <trkpt lat="45.64167" lon="5.71424">
        <ele>800.2</ele>
        <time>2021-08-23T10:51:05Z</time>
      </trkpt>
      <trkpt lat="45.64178" lon="5.71425">
        <ele>800.9</ele>
        <time>2021-08-23T10:51:06Z</time>
      </trkpt>
      <trkpt lat="45.64182" lon="5.71423">
        <ele>801.2</ele>
        <time>2021-08-23T10:51:08Z</time>
      </trkpt>
      <trkpt lat="45.64183" lon="5.71422">
        <ele>801.2</ele>
        <time>2021-08-23T10:51:09Z</time>
      </trkpt>
      <trkpt lat="45.64184" lon="5.7142">
        <ele>801.3</ele>
        <time>2021-08-23T10:51:10Z</time>
      </trkpt>
      <trkpt lat="45.64185" lon="5.71415">
        <ele>801.5</ele>
        <time>2021-08-23T10:51:12Z</time>
      </trkpt>
      <trkpt lat="45.64186" lon="5.71413">
        <ele>801.6</ele>
        <time>2021-08-23T10:51:13Z</time>
      </trkpt>
      <trkpt lat="45.64187" lon="5.71411">
        <ele>801.7</ele>
        <time>2021-08-23T10:51:15Z</time>
      </trkpt>
      <trkpt lat="45.64188" lon="5.71409">
        <ele>801.8</ele>
        <time>2021-08-23T10:51:17Z</time>
      </trkpt>
      <trkpt lat="45.64189" lon="5.71408">
        <ele>801.8</ele>
        <time>2021-08-23T10:51:18Z</time>
      </trkpt>
      <trkpt lat="45.64189" lon="5.71408">
        <ele>801.8</ele>
        <time>2021-08-23T10:51:19Z</time>
      </trkpt>
      <trkpt lat="45.6419" lon="5.71407">
        <ele>801.9</ele>
        <time>2021-08-23T10:51:21Z</time>
      </trkpt>
      <trkpt lat="45.64191" lon="5.71405">
        <ele>801.9</ele>
        <time>2021-08-23T10:51:23Z</time>
      </trkpt>
      <trkpt lat="45.64192" lon="5.71404">
        <ele>802</ele>
        <time>2021-08-23T10:51:24Z</time>
      </trkpt>
      <trkpt lat="45.64193" lon="5.71402">
        <ele>802.1</ele>
        <time>2021-08-23T10:51:25Z</time>
      </trkpt>
      <trkpt lat="45.64195" lon="5.714">
        <ele>802.2</ele>
        <time>2021-08-23T10:51:27Z</time>
      </trkpt>
      <trkpt lat="45.64202" lon="5.71396">
        <ele>802.7</ele>
        <time>2021-08-23T10:51:29Z</time>
      </trkpt>
      <trkpt lat="45.64207" lon="5.71394">
        <ele>803.1</ele>
        <time>2021-08-23T10:51:30Z</time>
      </trkpt>
      <trkpt lat="45.64211" lon="5.71392">
        <ele>803.5</ele>
        <time>2021-08-23T10:51:31Z</time>
      </trkpt>
      <trkpt lat="45.64216" lon="5.71389">
        <ele>803.8</ele>
        <time>2021-08-23T10:51:33Z</time>
      </trkpt>
      <trkpt lat="45.6422" lon="5.71388">
        <ele>804.1</ele>
        <time>2021-08-23T10:51:35Z</time>
      </trkpt>
      <trkpt lat="45.6422" lon="5.71387">
        <ele>804.1</ele>
        <time>2021-08-23T10:51:37Z</time>
      </trkpt>
      <trkpt lat="45.64221" lon="5.71387">
        <ele>804.1</ele>
        <time>2021-08-23T10:51:38Z</time>
      </trkpt>
      <trkpt lat="45.64222" lon="5.71388">
        <ele>804.2</ele>
        <time>2021-08-23T10:51:39Z</time>
      </trkpt>
      <trkpt lat="45.64222" lon="5.71388">
        <ele>804.2</ele>
        <time>2021-08-23T10:51:40Z</time>
      </trkpt>
      <trkpt lat="45.64222" lon="5.71389">
        <ele>804.2</ele>
        <time>2021-08-23T10:51:41Z</time>
      </trkpt>
      <trkpt lat="45.64223" lon="5.71389">
        <ele>804.3</ele>
        <time>2021-08-23T10:51:43Z</time>
      </trkpt>
      <trkpt lat="45.64223" lon="5.71389">
        <ele>804.3</ele>
        <time>2021-08-23T10:51:45Z</time>
      </trkpt>
      <trkpt lat="45.64223" lon="5.71389">
        <ele>804.3</ele>
        <time>2021-08-23T10:51:46Z</time>
      </trkpt>
      <trkpt lat="45.64223" lon="5.71389">
        <ele>804.3</ele>
        <time>2021-08-23T10:51:47Z</time>
      </trkpt>
      <trkpt lat="45.64223" lon="5.71389">
        <ele>804.3</ele>
        <time>2021-08-23T10:51:49Z</time>
      </trkpt>
      <trkpt lat="45.64223" lon="5.71389">
        <ele>804.3</ele>
        <time>2021-08-23T10:51:51Z</time>
      </trkpt>
      <trkpt lat="45.64223" lon="5.71389">
        <ele>804.3</ele>
        <time>2021-08-23T10:51:52Z</time>
      </trkpt>
      <trkpt lat="45.64223" lon="5.71389">
        <ele>804.3</ele>
        <time>2021-08-23T10:51:53Z</time>
      </trkpt>
      <trkpt lat="45.64224" lon="5.71388">
        <ele>804.3</ele>
        <time>2021-08-23T10:51:55Z</time>
      </trkpt>
      <trkpt lat="45.64224" lon="5.71388">
        <ele>804.4</ele>
        <time>2021-08-23T10:51:56Z</time>
      </trkpt>
      <trkpt lat="45.64224" lon="5.71387">
        <ele>804.4</ele>
        <time>2021-08-23T10:51:57Z</time>
      </trkpt>
      <trkpt lat="45.64225" lon="5.71386">
        <ele>804.4</ele>
        <time>2021-08-23T10:51:59Z</time>
      </trkpt>
      <trkpt lat="45.64225" lon="5.71385">
        <ele>804.5</ele>
        <time>2021-08-23T10:52:00Z</time>
      </trkpt>
      <trkpt lat="45.64225" lon="5.71384">
        <ele>804.5</ele>
        <time>2021-08-23T10:52:01Z</time>
      </trkpt>
      <trkpt lat="45.64225" lon="5.71383">
        <ele>804.5</ele>
        <time>2021-08-23T10:52:03Z</time>
      </trkpt>
      <trkpt lat="45.64226" lon="5.71382">
        <ele>804.6</ele>
        <time>2021-08-23T10:52:04Z</time>
      </trkpt>
      <trkpt lat="45.64227" lon="5.71381">
        <ele>804.6</ele>
        <time>2021-08-23T10:52:05Z</time>
      </trkpt>
      <trkpt lat="45.64228" lon="5.7138">
        <ele>804.7</ele>
        <time>2021-08-23T10:52:07Z</time>
      </trkpt>
      <trkpt lat="45.64228" lon="5.71379">
        <ele>804.7</ele>
        <time>2021-08-23T10:52:08Z</time>
      </trkpt>
      <trkpt lat="45.64229" lon="5.71379">
        <ele>804.7</ele>
        <time>2021-08-23T10:52:09Z</time>
      </trkpt>
      <trkpt lat="45.6423" lon="5.71378">
        <ele>804.8</ele>
        <time>2021-08-23T10:52:10Z</time>
      </trkpt>
      <trkpt lat="45.64231" lon="5.71376">
        <ele>804.8</ele>
        <time>2021-08-23T10:52:12Z</time>
      </trkpt>
      <trkpt lat="45.64233" lon="5.71375">
        <ele>804.9</ele>
        <time>2021-08-23T10:52:13Z</time>
      </trkpt>
      <trkpt lat="45.64236" lon="5.71374">
        <ele>805</ele>
        <time>2021-08-23T10:52:15Z</time>
      </trkpt>
      <trkpt lat="45.64237" lon="5.71373">
        <ele>805.1</ele>
        <time>2021-08-23T10:52:16Z</time>
      </trkpt>
      <trkpt lat="45.64238" lon="5.71373">
        <ele>805.1</ele>
        <time>2021-08-23T10:52:17Z</time>
      </trkpt>
      <trkpt lat="45.64238" lon="5.71373">
        <ele>805.1</ele>
        <time>2021-08-23T10:52:19Z</time>
      </trkpt>
      <trkpt lat="45.64238" lon="5.71373">
        <ele>805.1</ele>
        <time>2021-08-23T10:52:21Z</time>
      </trkpt>
      <trkpt lat="45.64237" lon="5.71372">
        <ele>805.2</ele>
        <time>2021-08-23T10:52:22Z</time>
      </trkpt>
      <trkpt lat="45.64236" lon="5.71371">
        <ele>805.2</ele>
        <time>2021-08-23T10:52:23Z</time>
      </trkpt>
      <trkpt lat="45.64235" lon="5.7137">
        <ele>805.3</ele>
        <time>2021-08-23T10:52:25Z</time>
      </trkpt>
      <trkpt lat="45.64235" lon="5.71369">
        <ele>805.3</ele>
        <time>2021-08-23T10:52:26Z</time>
      </trkpt>
      <trkpt lat="45.64234" lon="5.71368">
        <ele>805.3</ele>
        <time>2021-08-23T10:52:27Z</time>
      </trkpt>
      <trkpt lat="45.64234" lon="5.71368">
        <ele>805.3</ele>
        <time>2021-08-23T10:52:28Z</time>
      </trkpt>
      <trkpt lat="45.64234" lon="5.71367">
        <ele>805.3</ele>
        <time>2021-08-23T10:52:30Z</time>
      </trkpt>
      <trkpt lat="45.64234" lon="5.71366">
        <ele>805.3</ele>
        <time>2021-08-23T10:52:31Z</time>
      </trkpt>
      <trkpt lat="45.64235" lon="5.71366">
        <ele>805.4</ele>
        <time>2021-08-23T10:52:33Z</time>
      </trkpt>
      <trkpt lat="45.64235" lon="5.71366">
        <ele>805.4</ele>
        <time>2021-08-23T10:52:34Z</time>
      </trkpt>
      <trkpt lat="45.64235" lon="5.71366">
        <ele>805.4</ele>
        <time>2021-08-23T10:52:35Z</time>
      </trkpt>
      <trkpt lat="45.64235" lon="5.71366">
        <ele>805.4</ele>
        <time>2021-08-23T10:52:37Z</time>
      </trkpt>
      <trkpt lat="45.64235" lon="5.71366">
        <ele>805.4</ele>
        <time>2021-08-23T10:52:39Z</time>
      </trkpt>
      <trkpt lat="45.64235" lon="5.71366">
        <ele>805.4</ele>
        <time>2021-08-23T10:52:40Z</time>
      </trkpt>
      <trkpt lat="45.64235" lon="5.71366">
        <ele>805.4</ele>
        <time>2021-08-23T10:52:41Z</time>
      </trkpt>
      <trkpt lat="45.64235" lon="5.71366">
        <ele>805.4</ele>
        <time>2021-08-23T10:52:42Z</time>
      </trkpt>
      <trkpt lat="45.64235" lon="5.71366">
        <ele>805.4</ele>
        <time>2021-08-23T10:52:43Z</time>
      </trkpt>
      <trkpt lat="45.64235" lon="5.71367">
        <ele>805.4</ele>
        <time>2021-08-23T10:52:45Z</time>
      </trkpt>
      <trkpt lat="45.64235" lon="5.71367">
        <ele>805.4</ele>
        <time>2021-08-23T10:52:46Z</time>
      </trkpt>
      <trkpt lat="45.64235" lon="5.71367">
        <ele>805.4</ele>
        <time>2021-08-23T10:52:48Z</time>
      </trkpt>
      <trkpt lat="45.64235" lon="5.71366">
        <ele>805.4</ele>
        <time>2021-08-23T10:52:49Z</time>
      </trkpt>
      <trkpt lat="45.64236" lon="5.71365">
        <ele>805.5</ele>
        <time>2021-08-23T10:52:51Z</time>
      </trkpt>
      <trkpt lat="45.64236" lon="5.71365">
        <ele>805.5</ele>
        <time>2021-08-23T10:52:52Z</time>
      </trkpt>
      <trkpt lat="45.64237" lon="5.71365">
        <ele>805.5</ele>
        <time>2021-08-23T10:52:53Z</time>
      </trkpt>
      <trkpt lat="45.64237" lon="5.71364">
        <ele>805.5</ele>
        <time>2021-08-23T10:52:54Z</time>
      </trkpt>
      <trkpt lat="45.64238" lon="5.71364">
        <ele>805.5</ele>
        <time>2021-08-23T10:52:55Z</time>
      </trkpt>
      <trkpt lat="45.64239" lon="5.71363">
        <ele>805.6</ele>
        <time>2021-08-23T10:52:57Z</time>
      </trkpt>
      <trkpt lat="45.64239" lon="5.71362">
        <ele>805.6</ele>
        <time>2021-08-23T10:52:58Z</time>
      </trkpt>
      <trkpt lat="45.6424" lon="5.71362">
        <ele>805.6</ele>
        <time>2021-08-23T10:52:59Z</time>
      </trkpt>
      <trkpt lat="45.6424" lon="5.7136">
        <ele>805.7</ele>
        <time>2021-08-23T10:53:01Z</time>
      </trkpt>
      <trkpt lat="45.64241" lon="5.71359">
        <ele>805.7</ele>
        <time>2021-08-23T10:53:03Z</time>
      </trkpt>
      <trkpt lat="45.64241" lon="5.71358">
        <ele>805.7</ele>
        <time>2021-08-23T10:53:04Z</time>
      </trkpt>
      <trkpt lat="45.64241" lon="5.71358">
        <ele>805.8</ele>
        <time>2021-08-23T10:53:05Z</time>
      </trkpt>
      <trkpt lat="45.64241" lon="5.71357">
        <ele>805.8</ele>
        <time>2021-08-23T10:53:07Z</time>
      </trkpt>
      <trkpt lat="45.64242" lon="5.71355">
        <ele>805.8</ele>
        <time>2021-08-23T10:53:09Z</time>
      </trkpt>
      <trkpt lat="45.64244" lon="5.71353">
        <ele>805.9</ele>
        <time>2021-08-23T10:53:10Z</time>
      </trkpt>
      <trkpt lat="45.64245" lon="5.71351">
        <ele>806</ele>
        <time>2021-08-23T10:53:11Z</time>
      </trkpt>
      <trkpt lat="45.64247" lon="5.71347">
        <ele>806.1</ele>
        <time>2021-08-23T10:53:13Z</time>
      </trkpt>
      <trkpt lat="45.64248" lon="5.71345">
        <ele>806.1</ele>
        <time>2021-08-23T10:53:14Z</time>
      </trkpt>
      <trkpt lat="45.64249" lon="5.71343">
        <ele>806.2</ele>
        <time>2021-08-23T10:53:15Z</time>
      </trkpt>
      <trkpt lat="45.64249" lon="5.71341">
        <ele>806.2</ele>
        <time>2021-08-23T10:53:16Z</time>
      </trkpt>
      <trkpt lat="45.6425" lon="5.71339">
        <ele>806.2</ele>
        <time>2021-08-23T10:53:17Z</time>
      </trkpt>
      <trkpt lat="45.64254" lon="5.71335">
        <ele>806.4</ele>
        <time>2021-08-23T10:53:19Z</time>
      </trkpt>
      <trkpt lat="45.64255" lon="5.71333">
        <ele>806.4</ele>
        <time>2021-08-23T10:53:21Z</time>
      </trkpt>
      <trkpt lat="45.64256" lon="5.71332">
        <ele>806.5</ele>
        <time>2021-08-23T10:53:22Z</time>
      </trkpt>
      <trkpt lat="45.64258" lon="5.71331">
        <ele>806.5</ele>
        <time>2021-08-23T10:53:23Z</time>
      </trkpt>
      <trkpt lat="45.64261" lon="5.71328">
        <ele>806.6</ele>
        <time>2021-08-23T10:53:25Z</time>
      </trkpt>
      <trkpt lat="45.64263" lon="5.71325">
        <ele>806.7</ele>
        <time>2021-08-23T10:53:26Z</time>
      </trkpt>
      <trkpt lat="45.64265" lon="5.7132">
        <ele>806.8</ele>
        <time>2021-08-23T10:53:27Z</time>
      </trkpt>
      <trkpt lat="45.64266" lon="5.71316">
        <ele>806.9</ele>
        <time>2021-08-23T10:53:28Z</time>
      </trkpt>
      <trkpt lat="45.64266" lon="5.71313">
        <ele>807</ele>
        <time>2021-08-23T10:53:30Z</time>
      </trkpt>
      <trkpt lat="45.64267" lon="5.71311">
        <ele>807</ele>
        <time>2021-08-23T10:53:31Z</time>
      </trkpt>
      <trkpt lat="45.64268" lon="5.71307">
        <ele>807.1</ele>
        <time>2021-08-23T10:53:33Z</time>
      </trkpt>
      <trkpt lat="45.64268" lon="5.71302">
        <ele>807.2</ele>
        <time>2021-08-23T10:53:34Z</time>
      </trkpt>
      <trkpt lat="45.64268" lon="5.713">
        <ele>807.3</ele>
        <time>2021-08-23T10:53:35Z</time>
      </trkpt>
      <trkpt lat="45.64268" lon="5.71297">
        <ele>807.3</ele>
        <time>2021-08-23T10:53:36Z</time>
      </trkpt>
      <trkpt lat="45.64268" lon="5.71294">
        <ele>807.4</ele>
        <time>2021-08-23T10:53:37Z</time>
      </trkpt>
      <trkpt lat="45.64269" lon="5.7129">
        <ele>807.5</ele>
        <time>2021-08-23T10:53:39Z</time>
      </trkpt>
      <trkpt lat="45.64268" lon="5.71285">
        <ele>807.7</ele>
        <time>2021-08-23T10:53:40Z</time>
      </trkpt>
      <trkpt lat="45.64268" lon="5.71284">
        <ele>807.8</ele>
        <time>2021-08-23T10:53:41Z</time>
      </trkpt>
      <trkpt lat="45.64268" lon="5.71282">
        <ele>807.9</ele>
        <time>2021-08-23T10:53:42Z</time>
      </trkpt>
      <trkpt lat="45.64267" lon="5.7128">
        <ele>808</ele>
        <time>2021-08-23T10:53:43Z</time>
      </trkpt>
      <trkpt lat="45.64264" lon="5.71276">
        <ele>808.2</ele>
        <time>2021-08-23T10:53:45Z</time>
      </trkpt>
      <trkpt lat="45.64261" lon="5.71271">
        <ele>808.7</ele>
        <time>2021-08-23T10:53:46Z</time>
      </trkpt>
      <trkpt lat="45.64257" lon="5.7127">
        <ele>809.1</ele>
        <time>2021-08-23T10:53:47Z</time>
      </trkpt>
      <trkpt lat="45.64251" lon="5.71268">
        <ele>809.9</ele>
        <time>2021-08-23T10:53:49Z</time>
      </trkpt>
      <trkpt lat="45.64246" lon="5.71268">
        <ele>810.7</ele>
        <time>2021-08-23T10:53:51Z</time>
      </trkpt>
      <trkpt lat="45.64245" lon="5.71269">
        <ele>810.9</ele>
        <time>2021-08-23T10:53:53Z</time>
      </trkpt>
      <trkpt lat="45.64244" lon="5.7127">
        <ele>811.1</ele>
        <time>2021-08-23T10:53:54Z</time>
      </trkpt>
      <trkpt lat="45.64244" lon="5.7127">
        <ele>811.2</ele>
        <time>2021-08-23T10:53:55Z</time>
      </trkpt>
      <trkpt lat="45.64243" lon="5.7127">
        <ele>811.3</ele>
        <time>2021-08-23T10:53:56Z</time>
      </trkpt>
      <trkpt lat="45.64242" lon="5.7127">
        <ele>811.3</ele>
        <time>2021-08-23T10:53:58Z</time>
      </trkpt>
      <trkpt lat="45.64242" lon="5.7127">
        <ele>811.4</ele>
        <time>2021-08-23T10:53:59Z</time>
      </trkpt>
      <trkpt lat="45.64242" lon="5.7127">
        <ele>811.4</ele>
        <time>2021-08-23T10:54:00Z</time>
      </trkpt>
      <trkpt lat="45.64242" lon="5.7127">
        <ele>811.5</ele>
        <time>2021-08-23T10:54:01Z</time>
      </trkpt>
      <trkpt lat="45.64192" lon="5.71179">
        <ele>812.8</ele>
        <time>2021-08-23T10:56:09Z</time>
      </trkpt>
      <trkpt lat="45.64195" lon="5.7118">
        <ele>812.6</ele>
        <time>2021-08-23T10:56:10Z</time>
      </trkpt>
      <trkpt lat="45.64197" lon="5.71183">
        <ele>812.4</ele>
        <time>2021-08-23T10:56:11Z</time>
      </trkpt>
      <trkpt lat="45.64202" lon="5.71186">
        <ele>812.1</ele>
        <time>2021-08-23T10:56:12Z</time>
      </trkpt>
      <trkpt lat="45.64206" lon="5.7119">
        <ele>811.8</ele>
        <time>2021-08-23T10:56:13Z</time>
      </trkpt>
      <trkpt lat="45.64213" lon="5.71194">
        <ele>811.5</ele>
        <time>2021-08-23T10:56:15Z</time>
      </trkpt>
      <trkpt lat="45.64216" lon="5.71198">
        <ele>811.4</ele>
        <time>2021-08-23T10:56:16Z</time>
      </trkpt>
      <trkpt lat="45.6422" lon="5.71199">
        <ele>811.4</ele>
        <time>2021-08-23T10:56:17Z</time>
      </trkpt>
      <trkpt lat="45.64221" lon="5.71199">
        <ele>811.4</ele>
        <time>2021-08-23T10:56:19Z</time>
      </trkpt>
      <trkpt lat="45.64222" lon="5.71199">
        <ele>811.4</ele>
        <time>2021-08-23T10:56:21Z</time>
      </trkpt>
      <trkpt lat="45.64223" lon="5.71198">
        <ele>811.4</ele>
        <time>2021-08-23T10:56:22Z</time>
      </trkpt>
      <trkpt lat="45.64224" lon="5.71198">
        <ele>811.4</ele>
        <time>2021-08-23T10:56:23Z</time>
      </trkpt>
      <trkpt lat="45.64227" lon="5.71195">
        <ele>811.5</ele>
        <time>2021-08-23T10:56:25Z</time>
      </trkpt>
      <trkpt lat="45.64229" lon="5.71194">
        <ele>811.6</ele>
        <time>2021-08-23T10:56:26Z</time>
      </trkpt>
      <trkpt lat="45.64229" lon="5.71084">
        <ele>818.5</ele>
        <time>2021-08-23T10:56:57Z</time>
      </trkpt>
      <trkpt lat="45.64229" lon="5.71081">
        <ele>818.6</ele>
        <time>2021-08-23T10:56:58Z</time>
      </trkpt>
      <trkpt lat="45.64229" lon="5.7108">
        <ele>818.6</ele>
        <time>2021-08-23T10:56:59Z</time>
      </trkpt>
      <trkpt lat="45.64228" lon="5.71079">
        <ele>818.7</ele>
        <time>2021-08-23T10:57:01Z</time>
      </trkpt>
      <trkpt lat="45.64228" lon="5.71079">
        <ele>818.7</ele>
        <time>2021-08-23T10:57:03Z</time>
      </trkpt>
      <trkpt lat="45.64228" lon="5.71078">
        <ele>818.7</ele>
        <time>2021-08-23T10:57:04Z</time>
      </trkpt>
      <trkpt lat="45.64229" lon="5.71078">
        <ele>818.7</ele>
        <time>2021-08-23T10:57:05Z</time>
      </trkpt>
      <trkpt lat="45.64229" lon="5.71078">
        <ele>818.7</ele>
        <time>2021-08-23T10:57:06Z</time>
      </trkpt>
      <trkpt lat="45.64229" lon="5.71078">
        <ele>818.7</ele>
        <time>2021-08-23T10:57:07Z</time>
      </trkpt>
      <trkpt lat="45.64229" lon="5.71078">
        <ele>818.7</ele>
        <time>2021-08-23T10:57:08Z</time>
      </trkpt>
      <trkpt lat="45.64229" lon="5.71077">
        <ele>818.8</ele>
        <time>2021-08-23T10:57:09Z</time>
      </trkpt>
      <trkpt lat="45.64229" lon="5.71077">
        <ele>818.8</ele>
        <time>2021-08-23T10:57:10Z</time>
      </trkpt>
      <trkpt lat="45.64229" lon="5.71077">
        <ele>818.8</ele>
        <time>2021-08-23T10:57:11Z</time>
      </trkpt>
      <trkpt lat="45.64229" lon="5.71076">
        <ele>818.8</ele>
        <time>2021-08-23T10:57:12Z</time>
      </trkpt>
      <trkpt lat="45.64229" lon="5.71072">
        <ele>818.8</ele>
        <time>2021-08-23T10:57:13Z</time>
      </trkpt>
      <trkpt lat="45.64229" lon="5.71068">
        <ele>818.9</ele>
        <time>2021-08-23T10:57:15Z</time>
      </trkpt>
      <trkpt lat="45.64229" lon="5.71064">
        <ele>818.9</ele>
        <time>2021-08-23T10:57:16Z</time>
      </trkpt>
      <trkpt lat="45.64229" lon="5.71062">
        <ele>818.9</ele>
        <time>2021-08-23T10:57:17Z</time>
      </trkpt>
      <trkpt lat="45.64229" lon="5.71057">
        <ele>819</ele>
        <time>2021-08-23T10:57:19Z</time>
      </trkpt>
      <trkpt lat="45.6423" lon="5.71052">
        <ele>819</ele>
        <time>2021-08-23T10:57:21Z</time>
      </trkpt>
      <trkpt lat="45.64231" lon="5.71048">
        <ele>819</ele>
        <time>2021-08-23T10:57:22Z</time>
      </trkpt>
      <trkpt lat="45.64231" lon="5.71046">
        <ele>819</ele>
        <time>2021-08-23T10:57:23Z</time>
      </trkpt>
      <trkpt lat="45.64231" lon="5.71045">
        <ele>819</ele>
        <time>2021-08-23T10:57:25Z</time>
      </trkpt>
      <trkpt lat="45.64232" lon="5.71045">
        <ele>819</ele>
        <time>2021-08-23T10:57:26Z</time>
      </trkpt>
      <trkpt lat="45.64232" lon="5.71045">
        <ele>819</ele>
        <time>2021-08-23T10:57:27Z</time>
      </trkpt>
      <trkpt lat="45.64232" lon="5.71046">
        <ele>819</ele>
        <time>2021-08-23T10:57:28Z</time>
      </trkpt>
      <trkpt lat="45.64231" lon="5.71045">
        <ele>819</ele>
        <time>2021-08-23T10:57:29Z</time>
      </trkpt>
      <trkpt lat="45.64231" lon="5.71046">
        <ele>819</ele>
        <time>2021-08-23T10:57:31Z</time>
      </trkpt>
      <trkpt lat="45.64188" lon="5.71041">
        <ele>819.3</ele>
        <time>2021-08-23T10:57:47Z</time>
      </trkpt>
      <trkpt lat="45.64182" lon="5.71041">
        <ele>819.5</ele>
        <time>2021-08-23T10:57:49Z</time>
      </trkpt>
      <trkpt lat="45.64177" lon="5.7104">
        <ele>819.6</ele>
        <time>2021-08-23T10:57:51Z</time>
      </trkpt>
      <trkpt lat="45.64174" lon="5.71038">
        <ele>819.7</ele>
        <time>2021-08-23T10:57:52Z</time>
      </trkpt>
      <trkpt lat="45.64173" lon="5.71038">
        <ele>819.7</ele>
        <time>2021-08-23T10:57:53Z</time>
      </trkpt>
      <trkpt lat="45.64169" lon="5.71036">
        <ele>819.9</ele>
        <time>2021-08-23T10:57:54Z</time>
      </trkpt>
      <trkpt lat="45.64166" lon="5.71035">
        <ele>820</ele>
        <time>2021-08-23T10:57:55Z</time>
      </trkpt>
      <trkpt lat="45.64165" lon="5.71035">
        <ele>820</ele>
        <time>2021-08-23T10:57:56Z</time>
      </trkpt>
      <trkpt lat="45.64161" lon="5.71036">
        <ele>820.1</ele>
        <time>2021-08-23T10:57:57Z</time>
      </trkpt>
      <trkpt lat="45.6416" lon="5.71036">
        <ele>820.1</ele>
        <time>2021-08-23T10:57:58Z</time>
      </trkpt>
      <trkpt lat="45.64155" lon="5.71036">
        <ele>820.2</ele>
        <time>2021-08-23T10:58:00Z</time>
      </trkpt>
      <trkpt lat="45.64153" lon="5.71035">
        <ele>820.3</ele>
        <time>2021-08-23T10:58:02Z</time>
      </trkpt>
      <trkpt lat="45.64056" lon="5.7107">
        <ele>813</ele>
        <time>2021-08-23T10:58:49Z</time>
      </trkpt>
      <trkpt lat="45.64043" lon="5.71086">
        <ele>811.7</ele>
        <time>2021-08-23T10:58:51Z</time>
      </trkpt>
      <trkpt lat="45.64033" lon="5.71101">
        <ele>810.8</ele>
        <time>2021-08-23T10:58:53Z</time>
      </trkpt>
      <trkpt lat="45.64024" lon="5.71115">
        <ele>810</ele>
        <time>2021-08-23T10:58:55Z</time>
      </trkpt>
      <trkpt lat="45.64017" lon="5.71128">
        <ele>809.2</ele>
        <time>2021-08-23T10:58:57Z</time>
      </trkpt>
      <trkpt lat="45.64014" lon="5.71134">
        <ele>808.9</ele>
        <time>2021-08-23T10:58:59Z</time>
      </trkpt>
      <trkpt lat="45.64013" lon="5.71138">
        <ele>808.6</ele>
        <time>2021-08-23T10:59:01Z</time>
      </trkpt>
      <trkpt lat="45.64009" lon="5.71144">
        <ele>808.1</ele>
        <time>2021-08-23T10:59:02Z</time>
      </trkpt>
      <trkpt lat="45.64004" lon="5.71153">
        <ele>807.5</ele>
        <time>2021-08-23T10:59:03Z</time>
      </trkpt>
      <trkpt lat="45.63999" lon="5.71163">
        <ele>806.6</ele>
        <time>2021-08-23T10:59:05Z</time>
      </trkpt>
      <trkpt lat="45.63993" lon="5.71171">
        <ele>805.9</ele>
        <time>2021-08-23T10:59:06Z</time>
      </trkpt>
      <trkpt lat="45.6399" lon="5.71175">
        <ele>805.4</ele>
        <time>2021-08-23T10:59:07Z</time>
      </trkpt>
      <trkpt lat="45.63986" lon="5.71178">
        <ele>804.9</ele>
        <time>2021-08-23T10:59:09Z</time>
      </trkpt>
      <trkpt lat="45.63983" lon="5.7118">
        <ele>804.6</ele>
        <time>2021-08-23T10:59:10Z</time>
      </trkpt>
      <trkpt lat="45.63978" lon="5.71184">
        <ele>804.1</ele>
        <time>2021-08-23T10:59:11Z</time>
      </trkpt>
      <trkpt lat="45.63972" lon="5.71186">
        <ele>803.6</ele>
        <time>2021-08-23T10:59:13Z</time>
      </trkpt>
      <trkpt lat="45.63967" lon="5.71185">
        <ele>803.1</ele>
        <time>2021-08-23T10:59:15Z</time>
      </trkpt>
      <trkpt lat="45.63962" lon="5.71181">
        <ele>802.6</ele>
        <time>2021-08-23T10:59:16Z</time>
      </trkpt>
      <trkpt lat="45.63958" lon="5.7118">
        <ele>802.3</ele>
        <time>2021-08-23T10:59:17Z</time>
      </trkpt>
      <trkpt lat="45.63955" lon="5.7118">
        <ele>802</ele>
        <time>2021-08-23T10:59:18Z</time>
      </trkpt>
      <trkpt lat="45.63951" lon="5.7118">
        <ele>801.7</ele>
        <time>2021-08-23T10:59:19Z</time>
      </trkpt>
      <trkpt lat="45.63946" lon="5.7118">
        <ele>801.3</ele>
        <time>2021-08-23T10:59:21Z</time>
      </trkpt>
      <trkpt lat="45.63942" lon="5.71179">
        <ele>801</ele>
        <time>2021-08-23T10:59:22Z</time>
      </trkpt>
      <trkpt lat="45.6394" lon="5.71179">
        <ele>800.8</ele>
        <time>2021-08-23T10:59:23Z</time>
      </trkpt>
      <trkpt lat="45.63936" lon="5.71178">
        <ele>800.2</ele>
        <time>2021-08-23T10:59:25Z</time>
      </trkpt>
      <trkpt lat="45.63935" lon="5.71179">
        <ele>800.3</ele>
        <time>2021-08-23T10:59:27Z</time>
      </trkpt>
      <trkpt lat="45.63935" lon="5.71182">
        <ele>800.4</ele>
        <time>2021-08-23T10:59:28Z</time>
      </trkpt>
      <trkpt lat="45.63935" lon="5.71181">
        <ele>800.5</ele>
        <time>2021-08-23T10:59:29Z</time>
      </trkpt>
      <trkpt lat="45.63936" lon="5.7118">
        <ele>800.6</ele>
        <time>2021-08-23T10:59:30Z</time>
      </trkpt>
      <trkpt lat="45.63936" lon="5.71179">
        <ele>800.6</ele>
        <time>2021-08-23T10:59:31Z</time>
      </trkpt>
      <trkpt lat="45.63937" lon="5.71178">
        <ele>800.7</ele>
        <time>2021-08-23T10:59:33Z</time>
      </trkpt>
      <trkpt lat="45.63937" lon="5.71178">
        <ele>800.7</ele>
        <time>2021-08-23T10:59:34Z</time>
      </trkpt>
      <trkpt lat="45.63937" lon="5.71176">
        <ele>800.8</ele>
        <time>2021-08-23T10:59:36Z</time>
      </trkpt>
      <trkpt lat="45.64012" lon="5.70866">
        <ele>822</ele>
        <time>2021-08-23T11:02:43Z</time>
      </trkpt>
      <trkpt lat="45.6401" lon="5.70861">
        <ele>822.4</ele>
        <time>2021-08-23T11:02:44Z</time>
      </trkpt>
      <trkpt lat="45.64007" lon="5.70855">
        <ele>823</ele>
        <time>2021-08-23T11:02:46Z</time>
      </trkpt>
      <trkpt lat="45.64006" lon="5.70852">
        <ele>823.2</ele>
        <time>2021-08-23T11:02:47Z</time>
      </trkpt>
      <trkpt lat="45.64006" lon="5.70851">
        <ele>823.2</ele>
        <time>2021-08-23T11:02:48Z</time>
      </trkpt>
      <trkpt lat="45.64007" lon="5.7085">
        <ele>823.4</ele>
        <time>2021-08-23T11:02:50Z</time>
      </trkpt>
      <trkpt lat="45.64008" lon="5.70849">
        <ele>823.5</ele>
        <time>2021-08-23T11:02:51Z</time>
      </trkpt>
      <trkpt lat="45.64009" lon="5.70848">
        <ele>823.5</ele>
        <time>2021-08-23T11:02:52Z</time>
      </trkpt>
      <trkpt lat="45.64011" lon="5.70847">
        <ele>823.7</ele>
        <time>2021-08-23T11:02:54Z</time>
      </trkpt>
      <trkpt lat="45.64012" lon="5.70846">
        <ele>823.8</ele>
        <time>2021-08-23T11:02:55Z</time>
      </trkpt>
      <trkpt lat="45.64013" lon="5.70845">
        <ele>823.8</ele>
        <time>2021-08-23T11:02:56Z</time>
      </trkpt>
      <trkpt lat="45.64015" lon="5.70845">
        <ele>824</ele>
        <time>2021-08-23T11:02:58Z</time>
      </trkpt>
      <trkpt lat="45.64016" lon="5.70845">
        <ele>824.1</ele>
        <time>2021-08-23T11:02:59Z</time>
      </trkpt>
      <trkpt lat="45.64017" lon="5.70844">
        <ele>824.1</ele>
        <time>2021-08-23T11:03:00Z</time>
      </trkpt>
      <trkpt lat="45.64017" lon="5.70844">
        <ele>824.2</ele>
        <time>2021-08-23T11:03:02Z</time>
      </trkpt>
      <trkpt lat="45.64018" lon="5.70844">
        <ele>824.2</ele>
        <time>2021-08-23T11:03:04Z</time>
      </trkpt>
      <trkpt lat="45.64019" lon="5.70843">
        <ele>824.2</ele>
        <time>2021-08-23T11:03:05Z</time>
      </trkpt>
      <trkpt lat="45.64029" lon="5.70841">
        <ele>824.9</ele>
        <time>2021-08-23T11:03:07Z</time>
      </trkpt>
      <trkpt lat="45.64031" lon="5.70841">
        <ele>825.1</ele>
        <time>2021-08-23T11:03:08Z</time>
      </trkpt>
      <trkpt lat="45.64033" lon="5.70839">
        <ele>825.3</ele>
        <time>2021-08-23T11:03:10Z</time>
      </trkpt>
      <trkpt lat="45.64033" lon="5.70838">
        <ele>825.4</ele>
        <time>2021-08-23T11:03:11Z</time>
      </trkpt>
      <trkpt lat="45.64033" lon="5.70836">
        <ele>825.5</ele>
        <time>2021-08-23T11:03:12Z</time>
      </trkpt>
      <trkpt lat="45.64033" lon="5.70835">
        <ele>825.5</ele>
        <time>2021-08-23T11:03:13Z</time>
      </trkpt>
      <trkpt lat="45.64034" lon="5.70833">
        <ele>825.6</ele>
        <time>2021-08-23T11:03:15Z</time>
      </trkpt>
      <trkpt lat="45.64034" lon="5.70832">
        <ele>825.7</ele>
        <time>2021-08-23T11:03:16Z</time>
      </trkpt>
      <trkpt lat="45.64035" lon="5.70831">
        <ele>825.8</ele>
        <time>2021-08-23T11:03:17Z</time>
      </trkpt>
      <trkpt lat="45.64036" lon="5.7083">
        <ele>825.9</ele>
        <time>2021-08-23T11:03:18Z</time>
      </trkpt>
      <trkpt lat="45.64036" lon="5.70829">
        <ele>826</ele>
        <time>2021-08-23T11:03:20Z</time>
      </trkpt>
      <trkpt lat="45.64038" lon="5.70827">
        <ele>826.2</ele>
        <time>2021-08-23T11:03:21Z</time>
      </trkpt>
      <trkpt lat="45.64041" lon="5.70826">
        <ele>826.4</ele>
        <time>2021-08-23T11:03:23Z</time>
      </trkpt>
      <trkpt lat="45.64044" lon="5.70824">
        <ele>826.7</ele>
        <time>2021-08-23T11:03:25Z</time>
      </trkpt>
      <trkpt lat="45.64046" lon="5.70823">
        <ele>826.9</ele>
        <time>2021-08-23T11:03:26Z</time>
      </trkpt>
      <trkpt lat="45.64047" lon="5.70821">
        <ele>827.1</ele>
        <time>2021-08-23T11:03:28Z</time>
      </trkpt>
      <trkpt lat="45.64049" lon="5.7082">
        <ele>827.3</ele>
        <time>2021-08-23T11:03:29Z</time>
      </trkpt>
      <trkpt lat="45.6405" lon="5.70819">
        <ele>827.4</ele>
        <time>2021-08-23T11:03:31Z</time>
      </trkpt>
      <trkpt lat="45.64051" lon="5.70818">
        <ele>827.5</ele>
        <time>2021-08-23T11:03:32Z</time>
      </trkpt>
      <trkpt lat="45.64052" lon="5.70817">
        <ele>827.6</ele>
        <time>2021-08-23T11:03:34Z</time>
      </trkpt>
      <trkpt lat="45.64053" lon="5.70817">
        <ele>827.7</ele>
        <time>2021-08-23T11:03:35Z</time>
      </trkpt>
      <trkpt lat="45.64053" lon="5.70816">
        <ele>827.8</ele>
        <time>2021-08-23T11:03:37Z</time>
      </trkpt>
      <trkpt lat="45.64054" lon="5.70816">
        <ele>827.8</ele>
        <time>2021-08-23T11:03:39Z</time>
      </trkpt>
      <trkpt lat="45.64055" lon="5.70815">
        <ele>828</ele>
        <time>2021-08-23T11:03:40Z</time>
      </trkpt>
      <trkpt lat="45.64057" lon="5.70815">
        <ele>828.1</ele>
        <time>2021-08-23T11:03:41Z</time>
      </trkpt>
      <trkpt lat="45.64059" lon="5.70814">
        <ele>828.3</ele>
        <time>2021-08-23T11:03:42Z</time>
      </trkpt>
      <trkpt lat="45.6406" lon="5.70813">
        <ele>828.4</ele>
        <time>2021-08-23T11:03:43Z</time>
      </trkpt>
      <trkpt lat="45.64061" lon="5.70813">
        <ele>828.5</ele>
        <time>2021-08-23T11:03:44Z</time>
      </trkpt>
      <trkpt lat="45.64062" lon="5.70812">
        <ele>828.6</ele>
        <time>2021-08-23T11:03:45Z</time>
      </trkpt>
      <trkpt lat="45.64062" lon="5.70811">
        <ele>828.7</ele>
        <time>2021-08-23T11:03:47Z</time>
      </trkpt>
      <trkpt lat="45.64063" lon="5.70811">
        <ele>828.7</ele>
        <time>2021-08-23T11:03:48Z</time>
      </trkpt>
      <trkpt lat="45.64063" lon="5.7081">
        <ele>828.8</ele>
        <time>2021-08-23T11:03:49Z</time>
      </trkpt>
      <trkpt lat="45.64063" lon="5.70808">
        <ele>828.9</ele>
        <time>2021-08-23T11:03:50Z</time>
      </trkpt>
      <trkpt lat="45.64063" lon="5.70808">
        <ele>828.9</ele>
        <time>2021-08-23T11:03:51Z</time>
      </trkpt>
      <trkpt lat="45.64063" lon="5.70807">
        <ele>828.9</ele>
        <time>2021-08-23T11:03:53Z</time>
      </trkpt>
      <trkpt lat="45.64063" lon="5.70807">
        <ele>829</ele>
        <time>2021-08-23T11:03:54Z</time>
      </trkpt>
      <trkpt lat="45.64063" lon="5.70806">
        <ele>829</ele>
        <time>2021-08-23T11:03:55Z</time>
      </trkpt>
      <trkpt lat="45.64063" lon="5.70806">
        <ele>829</ele>
        <time>2021-08-23T11:03:56Z</time>
      </trkpt>
      <trkpt lat="45.64063" lon="5.70806">
        <ele>829</ele>
        <time>2021-08-23T11:03:58Z</time>
      </trkpt>
      <trkpt lat="45.64063" lon="5.70806">
        <ele>829</ele>
        <time>2021-08-23T11:03:59Z</time>
      </trkpt>
      <trkpt lat="45.64063" lon="5.70805">
        <ele>829.1</ele>
        <time>2021-08-23T11:04:01Z</time>
      </trkpt>
      <trkpt lat="45.64064" lon="5.70805">
        <ele>829.1</ele>
        <time>2021-08-23T11:04:02Z</time>
      </trkpt>
      <trkpt lat="45.64064" lon="5.70804">
        <ele>829.1</ele>
        <time>2021-08-23T11:04:04Z</time>
      </trkpt>
      <trkpt lat="45.64064" lon="5.70804">
        <ele>829.2</ele>
        <time>2021-08-23T11:04:06Z</time>
      </trkpt>
      <trkpt lat="45.64065" lon="5.70803">
        <ele>829.2</ele>
        <time>2021-08-23T11:04:07Z</time>
      </trkpt>
      <trkpt lat="45.64065" lon="5.70803">
        <ele>829.2</ele>
        <time>2021-08-23T11:04:08Z</time>
      </trkpt>
      <trkpt lat="45.64065" lon="5.70803">
        <ele>829.3</ele>
        <time>2021-08-23T11:04:09Z</time>
      </trkpt>
      <trkpt lat="45.64066" lon="5.70802">
        <ele>829.3</ele>
        <time>2021-08-23T11:04:10Z</time>
      </trkpt>
      <trkpt lat="45.64066" lon="5.70802">
        <ele>829.3</ele>
        <time>2021-08-23T11:04:11Z</time>
      </trkpt>
      <trkpt lat="45.64066" lon="5.70801">
        <ele>829.4</ele>
        <time>2021-08-23T11:04:13Z</time>
      </trkpt>
      <trkpt lat="45.64067" lon="5.70801">
        <ele>829.4</ele>
        <time>2021-08-23T11:04:14Z</time>
      </trkpt>
      <trkpt lat="45.64072" lon="5.70797">
        <ele>829.8</ele>
        <time>2021-08-23T11:04:16Z</time>
      </trkpt>
      <trkpt lat="45.64076" lon="5.70794">
        <ele>830.1</ele>
        <time>2021-08-23T11:04:17Z</time>
      </trkpt>
      <trkpt lat="45.64078" lon="5.70791">
        <ele>830.2</ele>
        <time>2021-08-23T11:04:18Z</time>
      </trkpt>
      <trkpt lat="45.64079" lon="5.7079">
        <ele>830.3</ele>
        <time>2021-08-23T11:04:19Z</time>
      </trkpt>
      <trkpt lat="45.64082" lon="5.70786">
        <ele>830.5</ele>
        <time>2021-08-23T11:04:21Z</time>
      </trkpt>
      <trkpt lat="45.64083" lon="5.70784">
        <ele>830.6</ele>
        <time>2021-08-23T11:04:22Z</time>
      </trkpt>
      <trkpt lat="45.64085" lon="5.70782">
        <ele>830.7</ele>
        <time>2021-08-23T11:04:23Z</time>
      </trkpt>
      <trkpt lat="45.64087" lon="5.70779">
        <ele>830.8</ele>
        <time>2021-08-23T11:04:25Z</time>
      </trkpt>
      <trkpt lat="45.64089" lon="5.70775">
        <ele>831</ele>
        <time>2021-08-23T11:04:26Z</time>
      </trkpt>
      <trkpt lat="45.64091" lon="5.7077">
        <ele>831.1</ele>
        <time>2021-08-23T11:04:27Z</time>
      </trkpt>
      <trkpt lat="45.64092" lon="5.70768">
        <ele>831.2</ele>
        <time>2021-08-23T11:04:28Z</time>
      </trkpt>
      <trkpt lat="45.64093" lon="5.70763">
        <ele>831.4</ele>
        <time>2021-08-23T11:04:29Z</time>
      </trkpt>
      <trkpt lat="45.64097" lon="5.70757">
        <ele>831.7</ele>
        <time>2021-08-23T11:04:31Z</time>
      </trkpt>
      <trkpt lat="45.641" lon="5.70755">
        <ele>831.9</ele>
        <time>2021-08-23T11:04:32Z</time>
      </trkpt>
      <trkpt lat="45.64104" lon="5.70752">
        <ele>832.4</ele>
        <time>2021-08-23T11:04:34Z</time>
      </trkpt>
      <trkpt lat="45.64106" lon="5.70751">
        <ele>832.6</ele>
        <time>2021-08-23T11:04:35Z</time>
      </trkpt>
      <trkpt lat="45.64108" lon="5.70748">
        <ele>832.9</ele>
        <time>2021-08-23T11:04:37Z</time>
      </trkpt>
      <trkpt lat="45.64109" lon="5.70747">
        <ele>833</ele>
        <time>2021-08-23T11:04:38Z</time>
      </trkpt>
      <trkpt lat="45.6411" lon="5.70741">
        <ele>833.5</ele>
        <time>2021-08-23T11:04:40Z</time>
      </trkpt>
      <trkpt lat="45.64119" lon="5.70334">
        <ele>823.5</ele>
        <time>2021-08-23T11:12:02Z</time>
      </trkpt>
      <trkpt lat="45.64115" lon="5.70331">
        <ele>823</ele>
        <time>2021-08-23T11:12:03Z</time>
      </trkpt>
      <trkpt lat="45.64109" lon="5.70327">
        <ele>822.1</ele>
        <time>2021-08-23T11:12:05Z</time>
      </trkpt>
      <trkpt lat="45.64106" lon="5.70324">
        <ele>821.7</ele>
        <time>2021-08-23T11:12:06Z</time>
      </trkpt>
      <trkpt lat="45.64101" lon="5.70322">
        <ele>821.1</ele>
        <time>2021-08-23T11:12:07Z</time>
      </trkpt>
      <trkpt lat="45.64093" lon="5.70319">
        <ele>820.1</ele>
        <time>2021-08-23T11:12:09Z</time>
      </trkpt>
      <trkpt lat="45.6408" lon="5.70317">
        <ele>818.6</ele>
        <time>2021-08-23T11:12:11Z</time>
      </trkpt>
      <trkpt lat="45.64074" lon="5.70317">
        <ele>817.9</ele>
        <time>2021-08-23T11:12:12Z</time>
      </trkpt>
      <trkpt lat="45.6407" lon="5.70318">
        <ele>817.4</ele>
        <time>2021-08-23T11:12:13Z</time>
      </trkpt>
      <trkpt lat="45.64066" lon="5.70315">
        <ele>816.9</ele>
        <time>2021-08-23T11:12:15Z</time>
      </trkpt>
      <trkpt lat="45.64064" lon="5.70313">
        <ele>816.6</ele>
        <time>2021-08-23T11:12:16Z</time>
      </trkpt>
      <trkpt lat="45.6406" lon="5.70312">
        <ele>816</ele>
        <time>2021-08-23T11:12:17Z</time>
      </trkpt>
      <trkpt lat="45.64055" lon="5.70314">
        <ele>815.4</ele>
        <time>2021-08-23T11:12:18Z</time>
      </trkpt>
      <trkpt lat="45.64045" lon="5.70318">
        <ele>814.1</ele>
        <time>2021-08-23T11:12:19Z</time>
      </trkpt>
      <trkpt lat="45.64039" lon="5.7032">
        <ele>813.4</ele>
        <time>2021-08-23T11:12:20Z</time>
      </trkpt>
      <trkpt lat="45.64038" lon="5.7032">
        <ele>813.2</ele>
        <time>2021-08-23T11:12:22Z</time>
      </trkpt>
      <trkpt lat="45.64036" lon="5.7032">
        <ele>813</ele>
        <time>2021-08-23T11:12:23Z</time>
      </trkpt>
      <trkpt lat="45.64035" lon="5.70319">
        <ele>812.9</ele>
        <time>2021-08-23T11:12:24Z</time>
      </trkpt>
      <trkpt lat="45.64034" lon="5.70317">
        <ele>812.7</ele>
        <time>2021-08-23T11:12:26Z</time>
      </trkpt>
      <trkpt lat="45.64033" lon="5.70316">
        <ele>812.6</ele>
        <time>2021-08-23T11:12:27Z</time>
      </trkpt>
      <trkpt lat="45.64014" lon="5.70286">
        <ele>810.4</ele>
        <time>2021-08-23T11:12:38Z</time>
      </trkpt>
      <trkpt lat="45.64018" lon="5.70276">
        <ele>810.1</ele>
        <time>2021-08-23T11:12:40Z</time>
      </trkpt>
      <trkpt lat="45.64026" lon="5.70258">
        <ele>808.3</ele>
        <time>2021-08-23T11:12:41Z</time>
      </trkpt>
      <trkpt lat="45.64035" lon="5.70241">
        <ele>805.3</ele>
        <time>2021-08-23T11:12:42Z</time>
      </trkpt>
      <trkpt lat="45.6404" lon="5.70232">
        <ele>803.4</ele>
        <time>2021-08-23T11:12:44Z</time>
      </trkpt>
      <trkpt lat="45.64042" lon="5.70228">
        <ele>802.5</ele>
        <time>2021-08-23T11:12:45Z</time>
      </trkpt>
      <trkpt lat="45.64043" lon="5.70226">
        <ele>802.2</ele>
        <time>2021-08-23T11:12:46Z</time>
      </trkpt>
      <trkpt lat="45.64045" lon="5.70221">
        <ele>801.2</ele>
        <time>2021-08-23T11:12:48Z</time>
      </trkpt>
      <trkpt lat="45.64047" lon="5.70217">
        <ele>800.3</ele>
        <time>2021-08-23T11:12:49Z</time>
      </trkpt>
      <trkpt lat="45.64051" lon="5.7021">
        <ele>798.9</ele>
        <time>2021-08-23T11:12:50Z</time>
      </trkpt>
      <trkpt lat="45.64054" lon="5.70203">
        <ele>797.7</ele>
        <time>2021-08-23T11:12:52Z</time>
      </trkpt>
      <trkpt lat="45.64058" lon="5.70196">
        <ele>796.6</ele>
        <time>2021-08-23T11:12:53Z</time>
      </trkpt>
      <trkpt lat="45.64063" lon="5.70188">
        <ele>795.5</ele>
        <time>2021-08-23T11:12:55Z</time>
      </trkpt>
      <trkpt lat="45.64074" lon="5.7017">
        <ele>793.7</ele>
        <time>2021-08-23T11:12:56Z</time>
      </trkpt>
      <trkpt lat="45.64079" lon="5.7016">
        <ele>792.9</ele>
        <time>2021-08-23T11:12:58Z</time>
      </trkpt>
      <trkpt lat="45.64081" lon="5.70155">
        <ele>792.6</ele>
        <time>2021-08-23T11:12:59Z</time>
      </trkpt>
      <trkpt lat="45.64082" lon="5.7015">
        <ele>792.2</ele>
        <time>2021-08-23T11:13:00Z</time>
      </trkpt>
      <trkpt lat="45.64083" lon="5.70145">
        <ele>791.9</ele>
        <time>2021-08-23T11:13:01Z</time>
      </trkpt>
      <trkpt lat="45.64083" lon="5.70143">
        <ele>791.7</ele>
        <time>2021-08-23T11:13:02Z</time>
      </trkpt>
      <trkpt lat="45.64082" lon="5.70141">
        <ele>791.6</ele>
        <time>2021-08-23T11:13:04Z</time>
      </trkpt>
      <trkpt lat="45.64052" lon="5.70089">
        <ele>788.2</ele>
        <time>2021-08-23T11:13:16Z</time>
      </trkpt>
      <trkpt lat="45.64049" lon="5.70085">
        <ele>787.9</ele>
        <time>2021-08-23T11:13:17Z</time>
      </trkpt>
      <trkpt lat="45.64044" lon="5.7008">
        <ele>787.7</ele>
        <time>2021-08-23T11:13:18Z</time>
      </trkpt>
      <trkpt lat="45.64035" lon="5.70072">
        <ele>787.3</ele>
        <time>2021-08-23T11:13:20Z</time>
      </trkpt>
      <trkpt lat="45.64027" lon="5.70067">
        <ele>787</ele>
        <time>2021-08-23T11:13:21Z</time>
      </trkpt>
      <trkpt lat="45.64012" lon="5.70054">
        <ele>786.3</ele>
        <time>2021-08-23T11:13:23Z</time>
      </trkpt>
      <trkpt lat="45.64006" lon="5.70046">
        <ele>785.9</ele>
        <time>2021-08-23T11:13:24Z</time>
      </trkpt>
      <trkpt lat="45.64001" lon="5.70041">
        <ele>785.6</ele>
        <time>2021-08-23T11:13:25Z</time>
      </trkpt>
      <trkpt lat="45.64" lon="5.7004">
        <ele>785.5</ele>
        <time>2021-08-23T11:13:26Z</time>
      </trkpt>
      <trkpt lat="45.63998" lon="5.70037">
        <ele>785.4</ele>
        <time>2021-08-23T11:13:27Z</time>
      </trkpt>
      <trkpt lat="45.63995" lon="5.70034">
        <ele>785.2</ele>
        <time>2021-08-23T11:13:29Z</time>
      </trkpt>
      <trkpt lat="45.63994" lon="5.70033">
        <ele>785.1</ele>
        <time>2021-08-23T11:13:30Z</time>
      </trkpt>
      <trkpt lat="45.63993" lon="5.70033">
        <ele>785.1</ele>
        <time>2021-08-23T11:13:31Z</time>
      </trkpt>
      <trkpt lat="45.63991" lon="5.70032">
        <ele>785</ele>
        <time>2021-08-23T11:13:33Z</time>
      </trkpt>
      <trkpt lat="45.63989" lon="5.70031">
        <ele>784.8</ele>
        <time>2021-08-23T11:13:35Z</time>
      </trkpt>
      <trkpt lat="45.63822" lon="5.69758">
        <ele>751.8</ele>
        <time>2021-08-23T11:14:59Z</time>
      </trkpt>
      <trkpt lat="45.63821" lon="5.69751">
        <ele>750.1</ele>
        <time>2021-08-23T11:15:01Z</time>
      </trkpt>
      <trkpt lat="45.63803" lon="5.69731">
        <ele>747.1</ele>
        <time>2021-08-23T11:15:02Z</time>
      </trkpt>
      <trkpt lat="45.63799" lon="5.69727">
        <ele>746.6</ele>
        <time>2021-08-23T11:15:03Z</time>
      </trkpt>
      <trkpt lat="45.63783" lon="5.69717">
        <ele>744.7</ele>
        <time>2021-08-23T11:15:05Z</time>
      </trkpt>
      <trkpt lat="45.63767" lon="5.6971">
        <ele>743</ele>
        <time>2021-08-23T11:15:07Z</time>
      </trkpt>
      <trkpt lat="45.63756" lon="5.69713">
        <ele>742</ele>
        <time>2021-08-23T11:15:09Z</time>
      </trkpt>
      <trkpt lat="45.6375" lon="5.69716">
        <ele>741.5</ele>
        <time>2021-08-23T11:15:10Z</time>
      </trkpt>
      <trkpt lat="45.63744" lon="5.69719">
        <ele>741</ele>
        <time>2021-08-23T11:15:11Z</time>
      </trkpt>
      <trkpt lat="45.6373" lon="5.69727">
        <ele>740.3</ele>
        <time>2021-08-23T11:15:13Z</time>
      </trkpt>
      <trkpt lat="45.63716" lon="5.69734">
        <ele>739.8</ele>
        <time>2021-08-23T11:15:15Z</time>
      </trkpt>
      <trkpt lat="45.63708" lon="5.69737">
        <ele>739.6</ele>
        <time>2021-08-23T11:15:16Z</time>
      </trkpt>
      <trkpt lat="45.63694" lon="5.69742">
        <ele>739.4</ele>
        <time>2021-08-23T11:15:18Z</time>
      </trkpt>
      <trkpt lat="45.63679" lon="5.69744">
        <ele>739.2</ele>
        <time>2021-08-23T11:15:20Z</time>
      </trkpt>
      <trkpt lat="45.63672" lon="5.69745">
        <ele>739.1</ele>
        <time>2021-08-23T11:15:21Z</time>
      </trkpt>
      <trkpt lat="45.63661" lon="5.69748">
        <ele>739</ele>
        <time>2021-08-23T11:15:23Z</time>
      </trkpt>
      <trkpt lat="45.63652" lon="5.69754">
        <ele>739</ele>
        <time>2021-08-23T11:15:25Z</time>
      </trkpt>
      <trkpt lat="45.63647" lon="5.69757">
        <ele>739.1</ele>
        <time>2021-08-23T11:15:26Z</time>
      </trkpt>
      <trkpt lat="45.63638" lon="5.6976">
        <ele>739.1</ele>
        <time>2021-08-23T11:15:28Z</time>
      </trkpt>
      <trkpt lat="45.63633" lon="5.69762">
        <ele>739.2</ele>
        <time>2021-08-23T11:15:29Z</time>
      </trkpt>
      <trkpt lat="45.63622" lon="5.69763">
        <ele>739.3</ele>
        <time>2021-08-23T11:15:31Z</time>
      </trkpt>
      <trkpt lat="45.63616" lon="5.69763">
        <ele>739.5</ele>
        <time>2021-08-23T11:15:32Z</time>
      </trkpt>
      <trkpt lat="45.63602" lon="5.69762">
        <ele>739.8</ele>
        <time>2021-08-23T11:15:34Z</time>
      </trkpt>
      <trkpt lat="45.63587" lon="5.6976">
        <ele>740.3</ele>
        <time>2021-08-23T11:15:36Z</time>
      </trkpt>
      <trkpt lat="45.63575" lon="5.69755">
        <ele>740.7</ele>
        <time>2021-08-23T11:15:38Z</time>
      </trkpt>
      <trkpt lat="45.6357" lon="5.69753">
        <ele>740.9</ele>
        <time>2021-08-23T11:15:39Z</time>
      </trkpt>
      <trkpt lat="45.63564" lon="5.6975">
        <ele>741.1</ele>
        <time>2021-08-23T11:15:41Z</time>
      </trkpt>
      <trkpt lat="45.6356" lon="5.69748">
        <ele>741.2</ele>
        <time>2021-08-23T11:15:42Z</time>
      </trkpt>
      <trkpt lat="45.63555" lon="5.69745">
        <ele>741.4</ele>
        <time>2021-08-23T11:15:43Z</time>
      </trkpt>
      <trkpt lat="45.63546" lon="5.69738">
        <ele>741.4</ele>
        <time>2021-08-23T11:15:45Z</time>
      </trkpt>
      <trkpt lat="45.63545" lon="5.69737">
        <ele>741.4</ele>
        <time>2021-08-23T11:15:46Z</time>
      </trkpt>
      <trkpt lat="45.63543" lon="5.69737">
        <ele>741.4</ele>
        <time>2021-08-23T11:15:47Z</time>
      </trkpt>
      <trkpt lat="45.63539" lon="5.69735">
        <ele>741.3</ele>
        <time>2021-08-23T11:15:48Z</time>
      </trkpt>
      <trkpt lat="45.63534" lon="5.69734">
        <ele>741.1</ele>
        <time>2021-08-23T11:15:49Z</time>
      </trkpt>
      <trkpt lat="45.63472" lon="5.69732">
        <ele>737.3</ele>
        <time>2021-08-23T11:16:01Z</time>
      </trkpt>
      <trkpt lat="45.63445" lon="5.69714">
        <ele>735.3</ele>
        <time>2021-08-23T11:16:03Z</time>
      </trkpt>
      <trkpt lat="45.63435" lon="5.69706">
        <ele>734.5</ele>
        <time>2021-08-23T11:16:04Z</time>
      </trkpt>
      <trkpt lat="45.63426" lon="5.69699">
        <ele>733.8</ele>
        <time>2021-08-23T11:16:05Z</time>
      </trkpt>
      <trkpt lat="45.6341" lon="5.69687">
        <ele>732.5</ele>
        <time>2021-08-23T11:16:07Z</time>
      </trkpt>
      <trkpt lat="45.63402" lon="5.69681">
        <ele>732</ele>
        <time>2021-08-23T11:16:08Z</time>
      </trkpt>
      <trkpt lat="45.63393" lon="5.69674">
        <ele>731.4</ele>
        <time>2021-08-23T11:16:09Z</time>
      </trkpt>
      <trkpt lat="45.63375" lon="5.69661">
        <ele>730.2</ele>
        <time>2021-08-23T11:16:11Z</time>
      </trkpt>
      <trkpt lat="45.63366" lon="5.69654">
        <ele>729.7</ele>
        <time>2021-08-23T11:16:12Z</time>
      </trkpt>
      <trkpt lat="45.63357" lon="5.69647">
        <ele>729.1</ele>
        <time>2021-08-23T11:16:13Z</time>
      </trkpt>
      <trkpt lat="45.63339" lon="5.69631">
        <ele>728.1</ele>
        <time>2021-08-23T11:16:15Z</time>
      </trkpt>
      <trkpt lat="45.63331" lon="5.69622">
        <ele>727.7</ele>
        <time>2021-08-23T11:16:16Z</time>
      </trkpt>
      <trkpt lat="45.63322" lon="5.69613">
        <ele>727.3</ele>
        <time>2021-08-23T11:16:17Z</time>
      </trkpt>
      <trkpt lat="45.63306" lon="5.69599">
        <ele>726.8</ele>
        <time>2021-08-23T11:16:19Z</time>
      </trkpt>
      <trkpt lat="45.63289" lon="5.69591">
        <ele>726.5</ele>
        <time>2021-08-23T11:16:21Z</time>
      </trkpt>
      <trkpt lat="45.63281" lon="5.69587">
        <ele>726.3</ele>
        <time>2021-08-23T11:16:22Z</time>
      </trkpt>
      <trkpt lat="45.63273" lon="5.69583">
        <ele>726.1</ele>
        <time>2021-08-23T11:16:23Z</time>
      </trkpt>
      <trkpt lat="45.63259" lon="5.69578">
        <ele>725.6</ele>
        <time>2021-08-23T11:16:25Z</time>
      </trkpt>
      <trkpt lat="45.63245" lon="5.69574">
        <ele>725.1</ele>
        <time>2021-08-23T11:16:27Z</time>
      </trkpt>
      <trkpt lat="45.6323" lon="5.69573">
        <ele>724.4</ele>
        <time>2021-08-23T11:16:29Z</time>
      </trkpt>
      <trkpt lat="45.63223" lon="5.69574">
        <ele>724</ele>
        <time>2021-08-23T11:16:30Z</time>
      </trkpt>
      <trkpt lat="45.63208" lon="5.69577">
        <ele>723.1</ele>
        <time>2021-08-23T11:16:32Z</time>
      </trkpt>
      <trkpt lat="45.63193" lon="5.69577">
        <ele>722.2</ele>
        <time>2021-08-23T11:16:34Z</time>
      </trkpt>
      <trkpt lat="45.63185" lon="5.69576">
        <ele>721.6</ele>
        <time>2021-08-23T11:16:35Z</time>
      </trkpt>
      <trkpt lat="45.63168" lon="5.69574">
        <ele>720.2</ele>
        <time>2021-08-23T11:16:37Z</time>
      </trkpt>
      <trkpt lat="45.63149" lon="5.69575">
        <ele>718.7</ele>
        <time>2021-08-23T11:16:39Z</time>
      </trkpt>
      <trkpt lat="45.63139" lon="5.69577">
        <ele>718</ele>
        <time>2021-08-23T11:16:40Z</time>
      </trkpt>
      <trkpt lat="45.63129" lon="5.69579">
        <ele>717.3</ele>
        <time>2021-08-23T11:16:41Z</time>
      </trkpt>
      <trkpt lat="45.63109" lon="5.69581">
        <ele>716.1</ele>
        <time>2021-08-23T11:16:43Z</time>
      </trkpt>
      <trkpt lat="45.63089" lon="5.69578">
        <ele>715</ele>
        <time>2021-08-23T11:16:45Z</time>
      </trkpt>
      <trkpt lat="45.63079" lon="5.69576">
        <ele>714.5</ele>
        <time>2021-08-23T11:16:46Z</time>
      </trkpt>
      <trkpt lat="45.6306" lon="5.69577">
        <ele>713.4</ele>
        <time>2021-08-23T11:16:48Z</time>
      </trkpt>
      <trkpt lat="45.6305" lon="5.69578">
        <ele>712.9</ele>
        <time>2021-08-23T11:16:49Z</time>
      </trkpt>
      <trkpt lat="45.63032" lon="5.6958">
        <ele>711.7</ele>
        <time>2021-08-23T11:16:51Z</time>
      </trkpt>
      <trkpt lat="45.63022" lon="5.69581">
        <ele>711.3</ele>
        <time>2021-08-23T11:16:52Z</time>
      </trkpt>
      <trkpt lat="45.63012" lon="5.69582">
        <ele>710.9</ele>
        <time>2021-08-23T11:16:53Z</time>
      </trkpt>
      <trkpt lat="45.62994" lon="5.69585">
        <ele>710.2</ele>
        <time>2021-08-23T11:16:55Z</time>
      </trkpt>
      <trkpt lat="45.62985" lon="5.69586">
        <ele>710</ele>
        <time>2021-08-23T11:16:56Z</time>
      </trkpt>
      <trkpt lat="45.62977" lon="5.69586">
        <ele>709.8</ele>
        <time>2021-08-23T11:16:57Z</time>
      </trkpt>
      <trkpt lat="45.62968" lon="5.69587">
        <ele>709.7</ele>
        <time>2021-08-23T11:16:58Z</time>
      </trkpt>
      <trkpt lat="45.62959" lon="5.69587">
        <ele>709.5</ele>
        <time>2021-08-23T11:16:59Z</time>
      </trkpt>
      <trkpt lat="45.62941" lon="5.69589">
        <ele>709.2</ele>
        <time>2021-08-23T11:17:01Z</time>
      </trkpt>
      <trkpt lat="45.62927" lon="5.69593">
        <ele>708.9</ele>
        <time>2021-08-23T11:17:03Z</time>
      </trkpt>
      <trkpt lat="45.6292" lon="5.69594">
        <ele>708.7</ele>
        <time>2021-08-23T11:17:04Z</time>
      </trkpt>
      <trkpt lat="45.62913" lon="5.69595">
        <ele>708.5</ele>
        <time>2021-08-23T11:17:05Z</time>
      </trkpt>
      <trkpt lat="45.62899" lon="5.69598">
        <ele>708.1</ele>
        <time>2021-08-23T11:17:07Z</time>
      </trkpt>
      <trkpt lat="45.62884" lon="5.69601">
        <ele>707.4</ele>
        <time>2021-08-23T11:17:08Z</time>
      </trkpt>
      <trkpt lat="45.6287" lon="5.69602">
        <ele>706.9</ele>
        <time>2021-08-23T11:17:10Z</time>
      </trkpt>
      <trkpt lat="45.62855" lon="5.69601">
        <ele>706.5</ele>
        <time>2021-08-23T11:17:12Z</time>
      </trkpt>
      <trkpt lat="45.6284" lon="5.696">
        <ele>706.1</ele>
        <time>2021-08-23T11:17:14Z</time>
      </trkpt>
      <trkpt lat="45.62833" lon="5.69599">
        <ele>705.4</ele>
        <time>2021-08-23T11:17:15Z</time>
      </trkpt>
      <trkpt lat="45.6282" lon="5.696">
        <ele>704.1</ele>
        <time>2021-08-23T11:17:17Z</time>
      </trkpt>
      <trkpt lat="45.62813" lon="5.69601">
        <ele>703.4</ele>
        <time>2021-08-23T11:17:18Z</time>
      </trkpt>
      <trkpt lat="45.62802" lon="5.69604">
        <ele>702.2</ele>
        <time>2021-08-23T11:17:20Z</time>
      </trkpt>
      <trkpt lat="45.62793" lon="5.69607">
        <ele>701.2</ele>
        <time>2021-08-23T11:17:22Z</time>
      </trkpt>
      <trkpt lat="45.62787" lon="5.69609">
        <ele>701</ele>
        <time>2021-08-23T11:17:24Z</time>
      </trkpt>
      <trkpt lat="45.62786" lon="5.69611">
        <ele>700.9</ele>
        <time>2021-08-23T11:17:28Z</time>
      </trkpt>
      <trkpt lat="45.62786" lon="5.69611">
        <ele>700.9</ele>
        <time>2021-08-23T11:17:29Z</time>
      </trkpt>
      <trkpt lat="45.62788" lon="5.69613">
        <ele>700.9</ele>
        <time>2021-08-23T11:17:31Z</time>
      </trkpt>
      <trkpt lat="45.62788" lon="5.69613">
        <ele>700.8</ele>
        <time>2021-08-23T11:17:32Z</time>
      </trkpt>
      <trkpt lat="45.62788" lon="5.69613">
        <ele>700.8</ele>
        <time>2021-08-23T11:17:34Z</time>
      </trkpt>
      <trkpt lat="45.62789" lon="5.69613">
        <ele>700.8</ele>
        <time>2021-08-23T11:17:36Z</time>
      </trkpt>
      <trkpt lat="45.6279" lon="5.69614">
        <ele>700.8</ele>
        <time>2021-08-23T11:17:38Z</time>
      </trkpt>
      <trkpt lat="45.62793" lon="5.69622">
        <ele>700.5</ele>
        <time>2021-08-23T11:17:50Z</time>
      </trkpt>
      <trkpt lat="45.62794" lon="5.69625">
        <ele>700.5</ele>
        <time>2021-08-23T11:17:52Z</time>
      </trkpt>
      <trkpt lat="45.62795" lon="5.69626">
        <ele>700.5</ele>
        <time>2021-08-23T11:17:53Z</time>
      </trkpt>
      <trkpt lat="45.62795" lon="5.69627">
        <ele>700.4</ele>
        <time>2021-08-23T11:17:54Z</time>
      </trkpt>
      <trkpt lat="45.62796" lon="5.69628">
        <ele>700.4</ele>
        <time>2021-08-23T11:17:56Z</time>
      </trkpt>
      <trkpt lat="45.62797" lon="5.69628">
        <ele>700.4</ele>
        <time>2021-08-23T11:17:57Z</time>
      </trkpt>
      <trkpt lat="45.62797" lon="5.69628">
        <ele>700.4</ele>
        <time>2021-08-23T11:17:58Z</time>
      </trkpt>
      <trkpt lat="45.62797" lon="5.69629">
        <ele>700.4</ele>
        <time>2021-08-23T11:18:00Z</time>
      </trkpt>
      <trkpt lat="45.62797" lon="5.69628">
        <ele>700.3</ele>
        <time>2021-08-23T11:18:01Z</time>
      </trkpt>
      <trkpt lat="45.62796" lon="5.69627">
        <ele>700.3</ele>
        <time>2021-08-23T11:18:03Z</time>
      </trkpt>
      <trkpt lat="45.62795" lon="5.69625">
        <ele>700.3</ele>
        <time>2021-08-23T11:18:04Z</time>
      </trkpt>
      <trkpt lat="45.62795" lon="5.69624">
        <ele>700.2</ele>
        <time>2021-08-23T11:18:05Z</time>
      </trkpt>
      <trkpt lat="45.62792" lon="5.69621">
        <ele>700.1</ele>
        <time>2021-08-23T11:18:07Z</time>
      </trkpt>
      <trkpt lat="45.62788" lon="5.69617">
        <ele>700</ele>
        <time>2021-08-23T11:18:08Z</time>
      </trkpt>
      <trkpt lat="45.62774" lon="5.69609">
        <ele>699.5</ele>
        <time>2021-08-23T11:18:09Z</time>
      </trkpt>
      <trkpt lat="45.62767" lon="5.69604">
        <ele>699.3</ele>
        <time>2021-08-23T11:18:10Z</time>
      </trkpt>
      <trkpt lat="45.62753" lon="5.69599">
        <ele>698.2</ele>
        <time>2021-08-23T11:18:12Z</time>
      </trkpt>
      <trkpt lat="45.62745" lon="5.696">
        <ele>697.6</ele>
        <time>2021-08-23T11:18:13Z</time>
      </trkpt>
      <trkpt lat="45.62728" lon="5.69606">
        <ele>696.4</ele>
        <time>2021-08-23T11:18:15Z</time>
      </trkpt>
      <trkpt lat="45.62711" lon="5.69614">
        <ele>695.1</ele>
        <time>2021-08-23T11:18:17Z</time>
      </trkpt>
      <trkpt lat="45.62702" lon="5.69618">
        <ele>694.5</ele>
        <time>2021-08-23T11:18:18Z</time>
      </trkpt>
      <trkpt lat="45.62686" lon="5.69625">
        <ele>693.4</ele>
        <time>2021-08-23T11:18:20Z</time>
      </trkpt>
      <trkpt lat="45.62669" lon="5.69631">
        <ele>692.4</ele>
        <time>2021-08-23T11:18:22Z</time>
      </trkpt>
      <trkpt lat="45.62661" lon="5.69634">
        <ele>691.8</ele>
        <time>2021-08-23T11:18:23Z</time>
      </trkpt>
      <trkpt lat="45.62651" lon="5.69637">
        <ele>691.3</ele>
        <time>2021-08-23T11:18:24Z</time>
      </trkpt>
      <trkpt lat="45.62642" lon="5.6964">
        <ele>690.7</ele>
        <time>2021-08-23T11:18:25Z</time>
      </trkpt>
      <trkpt lat="45.62632" lon="5.69642">
        <ele>690.1</ele>
        <time>2021-08-23T11:18:26Z</time>
      </trkpt>
      <trkpt lat="45.6261" lon="5.69642">
        <ele>688.9</ele>
        <time>2021-08-23T11:18:28Z</time>
      </trkpt>
      <trkpt lat="45.62598" lon="5.69641">
        <ele>688.5</ele>
        <time>2021-08-23T11:18:29Z</time>
      </trkpt>
      <trkpt lat="45.62587" lon="5.6964">
        <ele>688.1</ele>
        <time>2021-08-23T11:18:30Z</time>
      </trkpt>
      <trkpt lat="45.62576" lon="5.6964">
        <ele>687.7</ele>
        <time>2021-08-23T11:18:31Z</time>
      </trkpt>
      <trkpt lat="45.62569" lon="5.6964">
        <ele>687.5</ele>
        <time>2021-08-23T11:18:32Z</time>
      </trkpt>
      <trkpt lat="45.62555" lon="5.6964">
        <ele>687.2</ele>
        <time>2021-08-23T11:18:34Z</time>
      </trkpt>
      <trkpt lat="45.62549" lon="5.69641">
        <ele>687</ele>
        <time>2021-08-23T11:18:35Z</time>
      </trkpt>
      <trkpt lat="45.62541" lon="5.69645">
        <ele>686.9</ele>
        <time>2021-08-23T11:18:37Z</time>
      </trkpt>
      <trkpt lat="45.62539" lon="5.6965">
        <ele>686.8</ele>
        <time>2021-08-23T11:18:39Z</time>
      </trkpt>
      <trkpt lat="45.6254" lon="5.69653">
        <ele>686.7</ele>
        <time>2021-08-23T11:18:41Z</time>
      </trkpt>
      <trkpt lat="45.62547" lon="5.6965">
        <ele>686.6</ele>
        <time>2021-08-23T11:18:43Z</time>
      </trkpt>
      <trkpt lat="45.62552" lon="5.69648">
        <ele>686.5</ele>
        <time>2021-08-23T11:18:45Z</time>
      </trkpt>
      <trkpt lat="45.62554" lon="5.69647">
        <ele>686.4</ele>
        <time>2021-08-23T11:18:46Z</time>
      </trkpt>
      <trkpt lat="45.62556" lon="5.69646">
        <ele>686.4</ele>
        <time>2021-08-23T11:18:47Z</time>
      </trkpt>
      <trkpt lat="45.62563" lon="5.69646">
        <ele>686.2</ele>
        <time>2021-08-23T11:18:48Z</time>
      </trkpt>
      <trkpt lat="45.62568" lon="5.69647">
        <ele>686.1</ele>
        <time>2021-08-23T11:18:50Z</time>
      </trkpt>
      <trkpt lat="45.62558" lon="5.69646">
        <ele>685.9</ele>
        <time>2021-08-23T11:20:24Z</time>
      </trkpt>
      <trkpt lat="45.62551" lon="5.69646">
        <ele>685.8</ele>
        <time>2021-08-23T11:20:26Z</time>
      </trkpt>
      <trkpt lat="45.62542" lon="5.69647">
        <ele>685.7</ele>
        <time>2021-08-23T11:20:27Z</time>
      </trkpt>
      <trkpt lat="45.62537" lon="5.69647">
        <ele>685.7</ele>
        <time>2021-08-23T11:20:28Z</time>
      </trkpt>
      <trkpt lat="45.62532" lon="5.69649">
        <ele>685.6</ele>
        <time>2021-08-23T11:20:29Z</time>
      </trkpt>
      <trkpt lat="45.62525" lon="5.69653">
        <ele>685.6</ele>
        <time>2021-08-23T11:20:30Z</time>
      </trkpt>
      <trkpt lat="45.62515" lon="5.69658">
        <ele>685.5</ele>
        <time>2021-08-23T11:20:32Z</time>
      </trkpt>
      <trkpt lat="45.62505" lon="5.69663">
        <ele>685.4</ele>
        <time>2021-08-23T11:20:34Z</time>
      </trkpt>
      <trkpt lat="45.62493" lon="5.69666">
        <ele>685.3</ele>
        <time>2021-08-23T11:20:36Z</time>
      </trkpt>
      <trkpt lat="45.6248" lon="5.69669">
        <ele>685.2</ele>
        <time>2021-08-23T11:20:38Z</time>
      </trkpt>
      <trkpt lat="45.62468" lon="5.6967">
        <ele>685.2</ele>
        <time>2021-08-23T11:20:40Z</time>
      </trkpt>
      <trkpt lat="45.62456" lon="5.69669">
        <ele>685.1</ele>
        <time>2021-08-23T11:20:42Z</time>
      </trkpt>
      <trkpt lat="45.62451" lon="5.69667">
        <ele>685.1</ele>
        <time>2021-08-23T11:20:43Z</time>
      </trkpt>
      <trkpt lat="45.6244" lon="5.6966">
        <ele>685.1</ele>
        <time>2021-08-23T11:20:45Z</time>
      </trkpt>
      <trkpt lat="45.62435" lon="5.69656">
        <ele>685.1</ele>
        <time>2021-08-23T11:20:46Z</time>
      </trkpt>
      <trkpt lat="45.62424" lon="5.69645">
        <ele>685.1</ele>
        <time>2021-08-23T11:20:48Z</time>
      </trkpt>
      <trkpt lat="45.62419" lon="5.6964">
        <ele>685.1</ele>
        <time>2021-08-23T11:20:49Z</time>
      </trkpt>
      <trkpt lat="45.62414" lon="5.69635">
        <ele>685.1</ele>
        <time>2021-08-23T11:20:50Z</time>
      </trkpt>
      <trkpt lat="45.62403" lon="5.69627">
        <ele>685.2</ele>
        <time>2021-08-23T11:20:52Z</time>
      </trkpt>
      <trkpt lat="45.62398" lon="5.69622">
        <ele>685.3</ele>
        <time>2021-08-23T11:20:53Z</time>
      </trkpt>
      <trkpt lat="45.62393" lon="5.69618">
        <ele>685.3</ele>
        <time>2021-08-23T11:20:54Z</time>
      </trkpt>
      <trkpt lat="45.62383" lon="5.69611">
        <ele>685.5</ele>
        <time>2021-08-23T11:20:56Z</time>
      </trkpt>
      <trkpt lat="45.62372" lon="5.69603">
        <ele>685.7</ele>
        <time>2021-08-23T11:20:58Z</time>
      </trkpt>
      <trkpt lat="45.62367" lon="5.696">
        <ele>685.8</ele>
        <time>2021-08-23T11:20:59Z</time>
      </trkpt>
      <trkpt lat="45.62361" lon="5.69597">
        <ele>685.9</ele>
        <time>2021-08-23T11:21:00Z</time>
      </trkpt>
      <trkpt lat="45.6235" lon="5.69592">
        <ele>686.3</ele>
        <time>2021-08-23T11:21:02Z</time>
      </trkpt>
      <trkpt lat="45.62338" lon="5.69586">
        <ele>686.6</ele>
        <time>2021-08-23T11:21:04Z</time>
      </trkpt>
      <trkpt lat="45.62328" lon="5.69583">
        <ele>687</ele>
        <time>2021-08-23T11:21:06Z</time>
      </trkpt>
      <trkpt lat="45.62319" lon="5.69579">
        <ele>687.4</ele>
        <time>2021-08-23T11:21:08Z</time>
      </trkpt>
      <trkpt lat="45.6231" lon="5.69579">
        <ele>687.7</ele>
        <time>2021-08-23T11:21:10Z</time>
      </trkpt>
      <trkpt lat="45.62307" lon="5.6958">
        <ele>687.9</ele>
        <time>2021-08-23T11:21:11Z</time>
      </trkpt>
      <trkpt lat="45.623" lon="5.69585">
        <ele>688.1</ele>
        <time>2021-08-23T11:21:13Z</time>
      </trkpt>
      <trkpt lat="45.62298" lon="5.69588">
        <ele>688.2</ele>
        <time>2021-08-23T11:21:14Z</time>
      </trkpt>
      <trkpt lat="45.62294" lon="5.69594">
        <ele>688.4</ele>
        <time>2021-08-23T11:21:16Z</time>
      </trkpt>
      <trkpt lat="45.62289" lon="5.69595">
        <ele>688.5</ele>
        <time>2021-08-23T11:21:18Z</time>
      </trkpt>
      <trkpt lat="45.62288" lon="5.69603">
        <ele>688.6</ele>
        <time>2021-08-23T11:21:19Z</time>
      </trkpt>
      <trkpt lat="45.62286" lon="5.6961">
        <ele>688.7</ele>
        <time>2021-08-23T11:21:21Z</time>
      </trkpt>
      <trkpt lat="45.62282" lon="5.6962">
        <ele>688.7</ele>
        <time>2021-08-23T11:21:22Z</time>
      </trkpt>
      <trkpt lat="45.6228" lon="5.69626">
        <ele>688.8</ele>
        <time>2021-08-23T11:21:23Z</time>
      </trkpt>
      <trkpt lat="45.62275" lon="5.69635">
        <ele>689</ele>
        <time>2021-08-23T11:21:25Z</time>
      </trkpt>
      <trkpt lat="45.62272" lon="5.6964">
        <ele>689.1</ele>
        <time>2021-08-23T11:21:26Z</time>
      </trkpt>
      <trkpt lat="45.62265" lon="5.69647">
        <ele>689.3</ele>
        <time>2021-08-23T11:21:28Z</time>
      </trkpt>
      <trkpt lat="45.62262" lon="5.69648">
        <ele>689.3</ele>
        <time>2021-08-23T11:21:29Z</time>
      </trkpt>
      <trkpt lat="45.62258" lon="5.69649">
        <ele>689.4</ele>
        <time>2021-08-23T11:21:30Z</time>
      </trkpt>
      <trkpt lat="45.62254" lon="5.6965">
        <ele>689.4</ele>
        <time>2021-08-23T11:21:32Z</time>
      </trkpt>
      <trkpt lat="45.62249" lon="5.6965">
        <ele>689.5</ele>
        <time>2021-08-23T11:21:33Z</time>
      </trkpt>
      <trkpt lat="45.62245" lon="5.6965">
        <ele>689.5</ele>
        <time>2021-08-23T11:21:34Z</time>
      </trkpt>
      <trkpt lat="45.6224" lon="5.6965">
        <ele>689.5</ele>
        <time>2021-08-23T11:21:35Z</time>
      </trkpt>
      <trkpt lat="45.62236" lon="5.6965">
        <ele>689.5</ele>
        <time>2021-08-23T11:21:36Z</time>
      </trkpt>
      <trkpt lat="45.62229" lon="5.6965">
        <ele>689.4</ele>
        <time>2021-08-23T11:21:37Z</time>
      </trkpt>
      <trkpt lat="45.62226" lon="5.69651">
        <ele>689.3</ele>
        <time>2021-08-23T11:21:38Z</time>
      </trkpt>
      <trkpt lat="45.62219" lon="5.69654">
        <ele>689.1</ele>
        <time>2021-08-23T11:21:40Z</time>
      </trkpt>
      <trkpt lat="45.62214" lon="5.69655">
        <ele>688.9</ele>
        <time>2021-08-23T11:21:41Z</time>
      </trkpt>
      <trkpt lat="45.6221" lon="5.69656">
        <ele>688.8</ele>
        <time>2021-08-23T11:21:42Z</time>
      </trkpt>
      <trkpt lat="45.62199" lon="5.69657">
        <ele>688.2</ele>
        <time>2021-08-23T11:21:44Z</time>
      </trkpt>
      <trkpt lat="45.62189" lon="5.69658">
        <ele>687.6</ele>
        <time>2021-08-23T11:21:46Z</time>
      </trkpt>
      <trkpt lat="45.62184" lon="5.69659">
        <ele>687.3</ele>
        <time>2021-08-23T11:21:47Z</time>
      </trkpt>
      <trkpt lat="45.62179" lon="5.6966">
        <ele>686.9</ele>
        <time>2021-08-23T11:21:48Z</time>
      </trkpt>
      <trkpt lat="45.62167" lon="5.69662">
        <ele>686.1</ele>
        <time>2021-08-23T11:21:50Z</time>
      </trkpt>
      <trkpt lat="45.62155" lon="5.69663">
        <ele>685.3</ele>
        <time>2021-08-23T11:21:52Z</time>
      </trkpt>
      <trkpt lat="45.62149" lon="5.69663">
        <ele>684.9</ele>
        <time>2021-08-23T11:21:53Z</time>
      </trkpt>
      <trkpt lat="45.62145" lon="5.69664">
        <ele>684.6</ele>
        <time>2021-08-23T11:21:54Z</time>
      </trkpt>
      <trkpt lat="45.62136" lon="5.69665">
        <ele>684</ele>
        <time>2021-08-23T11:21:56Z</time>
      </trkpt>
      <trkpt lat="45.62132" lon="5.69666">
        <ele>683.7</ele>
        <time>2021-08-23T11:21:57Z</time>
      </trkpt>
      <trkpt lat="45.62124" lon="5.69669">
        <ele>683.1</ele>
        <time>2021-08-23T11:21:59Z</time>
      </trkpt>
      <trkpt lat="45.62116" lon="5.69671">
        <ele>682.6</ele>
        <time>2021-08-23T11:22:01Z</time>
      </trkpt>
      <trkpt lat="45.62111" lon="5.69672">
        <ele>682.3</ele>
        <time>2021-08-23T11:22:03Z</time>
      </trkpt>
      <trkpt lat="45.62107" lon="5.69671">
        <ele>682</ele>
        <time>2021-08-23T11:22:05Z</time>
      </trkpt>
      <trkpt lat="45.62105" lon="5.69675">
        <ele>681.9</ele>
        <time>2021-08-23T11:22:06Z</time>
      </trkpt>
      <trkpt lat="45.62104" lon="5.69679">
        <ele>681.7</ele>
        <time>2021-08-23T11:22:08Z</time>
      </trkpt>
      <trkpt lat="45.62103" lon="5.69682">
        <ele>681.5</ele>
        <time>2021-08-23T11:22:10Z</time>
      </trkpt>
      <trkpt lat="45.62102" lon="5.69685">
        <ele>681.3</ele>
        <time>2021-08-23T11:22:11Z</time>
      </trkpt>
      <trkpt lat="45.62102" lon="5.69688">
        <ele>681.1</ele>
        <time>2021-08-23T11:22:13Z</time>
      </trkpt>
      <trkpt lat="45.62101" lon="5.69692">
        <ele>680.9</ele>
        <time>2021-08-23T11:22:15Z</time>
      </trkpt>
      <trkpt lat="45.621" lon="5.69695">
        <ele>680.8</ele>
        <time>2021-08-23T11:22:16Z</time>
      </trkpt>
      <trkpt lat="45.62099" lon="5.69698">
        <ele>680.6</ele>
        <time>2021-08-23T11:22:17Z</time>
      </trkpt>
      <trkpt lat="45.62099" lon="5.69702">
        <ele>680.4</ele>
        <time>2021-08-23T11:22:19Z</time>
      </trkpt>
      <trkpt lat="45.62098" lon="5.69705">
        <ele>680.2</ele>
        <time>2021-08-23T11:23:26Z</time>
      </trkpt>
      <trkpt lat="45.62097" lon="5.69708">
        <ele>680</ele>
        <time>2021-08-23T11:23:28Z</time>
      </trkpt>
      <trkpt lat="45.62094" lon="5.69718">
        <ele>679.4</ele>
        <time>2021-08-23T11:23:29Z</time>
      </trkpt>
      <trkpt lat="45.62086" lon="5.69737">
        <ele>678.1</ele>
        <time>2021-08-23T11:23:31Z</time>
      </trkpt>
      <trkpt lat="45.62078" lon="5.69758">
        <ele>676.8</ele>
        <time>2021-08-23T11:23:33Z</time>
      </trkpt>
      <trkpt lat="45.62069" lon="5.69778">
        <ele>675.6</ele>
        <time>2021-08-23T11:23:35Z</time>
      </trkpt>
      <trkpt lat="45.62064" lon="5.69789">
        <ele>675</ele>
        <time>2021-08-23T11:23:36Z</time>
      </trkpt>
      <trkpt lat="45.62054" lon="5.69807">
        <ele>673.9</ele>
        <time>2021-08-23T11:23:38Z</time>
      </trkpt>
      <trkpt lat="45.62044" lon="5.69819">
        <ele>673</ele>
        <time>2021-08-23T11:23:40Z</time>
      </trkpt>
      <trkpt lat="45.62039" lon="5.69823">
        <ele>672.6</ele>
        <time>2021-08-23T11:23:41Z</time>
      </trkpt>
      <trkpt lat="45.62034" lon="5.69826">
        <ele>672.2</ele>
        <time>2021-08-23T11:23:42Z</time>
      </trkpt>
      <trkpt lat="45.62023" lon="5.6983">
        <ele>671.4</ele>
        <time>2021-08-23T11:23:44Z</time>
      </trkpt>
      <trkpt lat="45.62014" lon="5.69836">
        <ele>670.7</ele>
        <time>2021-08-23T11:23:46Z</time>
      </trkpt>
      <trkpt lat="45.62012" lon="5.69841">
        <ele>670.4</ele>
        <time>2021-08-23T11:23:47Z</time>
      </trkpt>
      <trkpt lat="45.62013" lon="5.69845">
        <ele>670.2</ele>
        <time>2021-08-23T11:23:48Z</time>
      </trkpt>
      <trkpt lat="45.62015" lon="5.6985">
        <ele>670</ele>
        <time>2021-08-23T11:23:49Z</time>
      </trkpt>
      <trkpt lat="45.62017" lon="5.69853">
        <ele>669.8</ele>
        <time>2021-08-23T11:23:50Z</time>
      </trkpt>
      <trkpt lat="45.62021" lon="5.69854">
        <ele>669.5</ele>
        <time>2021-08-23T11:23:52Z</time>
      </trkpt>
      <trkpt lat="45.62022" lon="5.69853">
        <ele>669.4</ele>
        <time>2021-08-23T11:23:54Z</time>
      </trkpt>
      <trkpt lat="45.62022" lon="5.69853">
        <ele>669.3</ele>
        <time>2021-08-23T11:23:55Z</time>
      </trkpt>
      <trkpt lat="45.62023" lon="5.69852">
        <ele>669.3</ele>
        <time>2021-08-23T11:23:56Z</time>
      </trkpt>
      <trkpt lat="45.62024" lon="5.69851">
        <ele>669.2</ele>
        <time>2021-08-23T11:23:57Z</time>
      </trkpt>
      <trkpt lat="45.62025" lon="5.69851">
        <ele>669.1</ele>
        <time>2021-08-23T11:23:59Z</time>
      </trkpt>
      <trkpt lat="45.62026" lon="5.69849">
        <ele>669</ele>
        <time>2021-08-23T11:24:01Z</time>
      </trkpt>
      <trkpt lat="45.62023" lon="5.69835">
        <ele>668.7</ele>
        <time>2021-08-23T11:24:16Z</time>
      </trkpt>
      <trkpt lat="45.6202" lon="5.69834">
        <ele>668.4</ele>
        <time>2021-08-23T11:24:17Z</time>
      </trkpt>
      <trkpt lat="45.62017" lon="5.69833">
        <ele>667.8</ele>
        <time>2021-08-23T11:24:18Z</time>
      </trkpt>
      <trkpt lat="45.62013" lon="5.69833">
        <ele>667.3</ele>
        <time>2021-08-23T11:24:19Z</time>
      </trkpt>
      <trkpt lat="45.62012" lon="5.69833">
        <ele>667.2</ele>
        <time>2021-08-23T11:24:20Z</time>
      </trkpt>
      <trkpt lat="45.62" lon="5.69836">
        <ele>665.7</ele>
        <time>2021-08-23T11:24:22Z</time>
      </trkpt>
      <trkpt lat="45.61993" lon="5.69839">
        <ele>664.7</ele>
        <time>2021-08-23T11:24:23Z</time>
      </trkpt>
      <trkpt lat="45.61976" lon="5.69847">
        <ele>662.7</ele>
        <time>2021-08-23T11:24:25Z</time>
      </trkpt>
      <trkpt lat="45.61968" lon="5.69852">
        <ele>661.8</ele>
        <time>2021-08-23T11:24:26Z</time>
      </trkpt>
      <trkpt lat="45.61951" lon="5.6986">
        <ele>659.9</ele>
        <time>2021-08-23T11:24:28Z</time>
      </trkpt>
      <trkpt lat="45.61932" lon="5.69876">
        <ele>657.8</ele>
        <time>2021-08-23T11:24:30Z</time>
      </trkpt>
      <trkpt lat="45.61924" lon="5.69883">
        <ele>656.9</ele>
        <time>2021-08-23T11:24:31Z</time>
      </trkpt>
      <trkpt lat="45.61915" lon="5.6989">
        <ele>656</ele>
        <time>2021-08-23T11:24:32Z</time>
      </trkpt>
      <trkpt lat="45.61896" lon="5.69903">
        <ele>654.4</ele>
        <time>2021-08-23T11:24:34Z</time>
      </trkpt>
      <trkpt lat="45.61886" lon="5.69909">
        <ele>653.7</ele>
        <time>2021-08-23T11:24:35Z</time>
      </trkpt>
      <trkpt lat="45.61876" lon="5.69914">
        <ele>653.1</ele>
        <time>2021-08-23T11:24:36Z</time>
      </trkpt>
      <trkpt lat="45.61858" lon="5.69923">
        <ele>652</ele>
        <time>2021-08-23T11:24:38Z</time>
      </trkpt>
      <trkpt lat="45.61849" lon="5.69929">
        <ele>651.5</ele>
        <time>2021-08-23T11:24:39Z</time>
      </trkpt>
      <trkpt lat="45.61832" lon="5.69941">
        <ele>650.5</ele>
        <time>2021-08-23T11:24:41Z</time>
      </trkpt>
      <trkpt lat="45.61823" lon="5.69947">
        <ele>650</ele>
        <time>2021-08-23T11:24:42Z</time>
      </trkpt>
      <trkpt lat="45.61806" lon="5.69961">
        <ele>649</ele>
        <time>2021-08-23T11:24:44Z</time>
      </trkpt>
      <trkpt lat="45.61788" lon="5.69974">
        <ele>647.9</ele>
        <time>2021-08-23T11:24:46Z</time>
      </trkpt>
      <trkpt lat="45.6178" lon="5.6998">
        <ele>647.3</ele>
        <time>2021-08-23T11:24:47Z</time>
      </trkpt>
      <trkpt lat="45.61761" lon="5.69992">
        <ele>646</ele>
        <time>2021-08-23T11:24:49Z</time>
      </trkpt>
      <trkpt lat="45.61751" lon="5.69998">
        <ele>645.2</ele>
        <time>2021-08-23T11:24:50Z</time>
      </trkpt>
      <trkpt lat="45.6173" lon="5.7001">
        <ele>643.6</ele>
        <time>2021-08-23T11:24:52Z</time>
      </trkpt>
      <trkpt lat="45.6171" lon="5.70024">
        <ele>642.2</ele>
        <time>2021-08-23T11:24:54Z</time>
      </trkpt>
      <trkpt lat="45.61688" lon="5.70038">
        <ele>641.1</ele>
        <time>2021-08-23T11:24:56Z</time>
      </trkpt>
      <trkpt lat="45.61668" lon="5.70052">
        <ele>640.6</ele>
        <time>2021-08-23T11:24:58Z</time>
      </trkpt>
      <trkpt lat="45.6166" lon="5.70058">
        <ele>640.6</ele>
        <time>2021-08-23T11:24:59Z</time>
      </trkpt>
      <trkpt lat="45.61651" lon="5.70064">
        <ele>640.6</ele>
        <time>2021-08-23T11:25:00Z</time>
      </trkpt>
      <trkpt lat="45.61644" lon="5.70069">
        <ele>640.7</ele>
        <time>2021-08-23T11:25:01Z</time>
      </trkpt>
      <trkpt lat="45.61637" lon="5.70072">
        <ele>640.8</ele>
        <time>2021-08-23T11:25:02Z</time>
      </trkpt>
      <trkpt lat="45.61624" lon="5.70076">
        <ele>641</ele>
        <time>2021-08-23T11:25:04Z</time>
      </trkpt>
      <trkpt lat="45.61614" lon="5.70079">
        <ele>641.1</ele>
        <time>2021-08-23T11:25:06Z</time>
      </trkpt>
      <trkpt lat="45.61604" lon="5.70081">
        <ele>640.8</ele>
        <time>2021-08-23T11:25:08Z</time>
      </trkpt>
      <trkpt lat="45.61599" lon="5.7008">
        <ele>640.2</ele>
        <time>2021-08-23T11:25:09Z</time>
      </trkpt>
      <trkpt lat="45.61595" lon="5.70079">
        <ele>639.7</ele>
        <time>2021-08-23T11:25:10Z</time>
      </trkpt>
      <trkpt lat="45.61588" lon="5.70075">
        <ele>638.6</ele>
        <time>2021-08-23T11:25:12Z</time>
      </trkpt>
      <trkpt lat="45.61582" lon="5.70073">
        <ele>637.9</ele>
        <time>2021-08-23T11:25:13Z</time>
      </trkpt>
      <trkpt lat="45.61576" lon="5.7007">
        <ele>637.1</ele>
        <time>2021-08-23T11:25:14Z</time>
      </trkpt>
      <trkpt lat="45.61564" lon="5.70063">
        <ele>635.6</ele>
        <time>2021-08-23T11:25:16Z</time>
      </trkpt>
      <trkpt lat="45.61558" lon="5.70059">
        <ele>635.1</ele>
        <time>2021-08-23T11:25:17Z</time>
      </trkpt>
      <trkpt lat="45.61552" lon="5.70057">
        <ele>634.5</ele>
        <time>2021-08-23T11:25:18Z</time>
      </trkpt>
      <trkpt lat="45.61541" lon="5.70052">
        <ele>633.5</ele>
        <time>2021-08-23T11:25:20Z</time>
      </trkpt>
      <trkpt lat="45.61533" lon="5.70049">
        <ele>632.6</ele>
        <time>2021-08-23T11:25:22Z</time>
      </trkpt>
      <trkpt lat="45.6153" lon="5.70046">
        <ele>632.3</ele>
        <time>2021-08-23T11:25:23Z</time>
      </trkpt>
      <trkpt lat="45.61527" lon="5.70044">
        <ele>632</ele>
        <time>2021-08-23T11:25:24Z</time>
      </trkpt>
      <trkpt lat="45.61523" lon="5.70044">
        <ele>631.8</ele>
        <time>2021-08-23T11:25:25Z</time>
      </trkpt>
      <trkpt lat="45.61521" lon="5.70045">
        <ele>631.6</ele>
        <time>2021-08-23T11:25:26Z</time>
      </trkpt>
      <trkpt lat="45.61507" lon="5.70052">
        <ele>630.5</ele>
        <time>2021-08-23T11:25:28Z</time>
      </trkpt>
      <trkpt lat="45.61499" lon="5.70055">
        <ele>629.3</ele>
        <time>2021-08-23T11:25:29Z</time>
      </trkpt>
      <trkpt lat="45.61491" lon="5.70057">
        <ele>628.3</ele>
        <time>2021-08-23T11:25:30Z</time>
      </trkpt>
      <trkpt lat="45.61482" lon="5.70059">
        <ele>627.2</ele>
        <time>2021-08-23T11:25:31Z</time>
      </trkpt>
      <trkpt lat="45.61474" lon="5.70059">
        <ele>626.2</ele>
        <time>2021-08-23T11:25:32Z</time>
      </trkpt>
      <trkpt lat="45.61457" lon="5.70059">
        <ele>624.1</ele>
        <time>2021-08-23T11:25:34Z</time>
      </trkpt>
      <trkpt lat="45.61449" lon="5.7006">
        <ele>623.3</ele>
        <time>2021-08-23T11:25:35Z</time>
      </trkpt>
      <trkpt lat="45.61443" lon="5.70069">
        <ele>622.3</ele>
        <time>2021-08-23T11:25:36Z</time>
      </trkpt>
      <trkpt lat="45.61432" lon="5.7008">
        <ele>620.7</ele>
        <time>2021-08-23T11:25:38Z</time>
      </trkpt>
      <trkpt lat="45.61422" lon="5.7008">
        <ele>619.4</ele>
        <time>2021-08-23T11:25:40Z</time>
      </trkpt>
      <trkpt lat="45.61414" lon="5.70078">
        <ele>618.4</ele>
        <time>2021-08-23T11:25:42Z</time>
      </trkpt>
      <trkpt lat="45.6141" lon="5.70078">
        <ele>618</ele>
        <time>2021-08-23T11:25:44Z</time>
      </trkpt>
      <trkpt lat="45.61406" lon="5.70079">
        <ele>617.5</ele>
        <time>2021-08-23T11:25:46Z</time>
      </trkpt>
      <trkpt lat="45.61404" lon="5.70076">
        <ele>617.2</ele>
        <time>2021-08-23T11:25:48Z</time>
      </trkpt>
      <trkpt lat="45.614" lon="5.70076">
        <ele>616.7</ele>
        <time>2021-08-23T11:25:49Z</time>
      </trkpt>
      <trkpt lat="45.61394" lon="5.70077">
        <ele>616</ele>
        <time>2021-08-23T11:25:50Z</time>
      </trkpt>
      <trkpt lat="45.61386" lon="5.70078">
        <ele>615.3</ele>
        <time>2021-08-23T11:25:51Z</time>
      </trkpt>
      <trkpt lat="45.6138" lon="5.70078">
        <ele>614.7</ele>
        <time>2021-08-23T11:25:52Z</time>
      </trkpt>
      <trkpt lat="45.61373" lon="5.70077">
        <ele>614.1</ele>
        <time>2021-08-23T11:25:53Z</time>
      </trkpt>
      <trkpt lat="45.61366" lon="5.70075">
        <ele>613.5</ele>
        <time>2021-08-23T11:25:54Z</time>
      </trkpt>
      <trkpt lat="45.61353" lon="5.70073">
        <ele>612.5</ele>
        <time>2021-08-23T11:25:56Z</time>
      </trkpt>
      <trkpt lat="45.61346" lon="5.70073">
        <ele>612.4</ele>
        <time>2021-08-23T11:25:58Z</time>
      </trkpt>
      <trkpt lat="45.61348" lon="5.70074">
        <ele>612.2</ele>
        <time>2021-08-23T11:25:59Z</time>
      </trkpt>
      <trkpt lat="45.61346" lon="5.70075">
        <ele>612.1</ele>
        <time>2021-08-23T11:26:00Z</time>
      </trkpt>
      <trkpt lat="45.61345" lon="5.70076">
        <ele>612</ele>
        <time>2021-08-23T11:26:02Z</time>
      </trkpt>
      <trkpt lat="45.61344" lon="5.70076">
        <ele>611.9</ele>
        <time>2021-08-23T11:26:03Z</time>
      </trkpt>
      <trkpt lat="45.61343" lon="5.70077">
        <ele>611.8</ele>
        <time>2021-08-23T11:26:04Z</time>
      </trkpt>
      <trkpt lat="45.61341" lon="5.70081">
        <ele>611.6</ele>
        <time>2021-08-23T11:26:06Z</time>
      </trkpt>
      <trkpt lat="45.6134" lon="5.70085">
        <ele>611.4</ele>
        <time>2021-08-23T11:26:07Z</time>
      </trkpt>
      <trkpt lat="45.61339" lon="5.7009">
        <ele>611.1</ele>
        <time>2021-08-23T11:26:09Z</time>
      </trkpt>
      <trkpt lat="45.61337" lon="5.70096">
        <ele>610.8</ele>
        <time>2021-08-23T11:26:11Z</time>
      </trkpt>
      <trkpt lat="45.61337" lon="5.70102">
        <ele>610.5</ele>
        <time>2021-08-23T11:26:13Z</time>
      </trkpt>
      <trkpt lat="45.61336" lon="5.70108">
        <ele>610.3</ele>
        <time>2021-08-23T11:26:14Z</time>
      </trkpt>
      <trkpt lat="45.61335" lon="5.70114">
        <ele>610</ele>
        <time>2021-08-23T11:26:15Z</time>
      </trkpt>
      <trkpt lat="45.61334" lon="5.7012">
        <ele>609.8</ele>
        <time>2021-08-23T11:26:17Z</time>
      </trkpt>
      <trkpt lat="45.61333" lon="5.70126">
        <ele>609.6</ele>
        <time>2021-08-23T11:26:18Z</time>
      </trkpt>
      <trkpt lat="45.61332" lon="5.70132">
        <ele>609.4</ele>
        <time>2021-08-23T11:26:19Z</time>
      </trkpt>
      <trkpt lat="45.61331" lon="5.70138">
        <ele>609.3</ele>
        <time>2021-08-23T11:27:28Z</time>
      </trkpt>
      <trkpt lat="45.6133" lon="5.70144">
        <ele>609.1</ele>
        <time>2021-08-23T11:27:29Z</time>
      </trkpt>
      <trkpt lat="45.61328" lon="5.70155">
        <ele>608.9</ele>
        <time>2021-08-23T11:27:30Z</time>
      </trkpt>
      <trkpt lat="45.61325" lon="5.70165">
        <ele>608.7</ele>
        <time>2021-08-23T11:27:31Z</time>
      </trkpt>
      <trkpt lat="45.61322" lon="5.70174">
        <ele>608.5</ele>
        <time>2021-08-23T11:27:32Z</time>
      </trkpt>
      <trkpt lat="45.61316" lon="5.70192">
        <ele>608.3</ele>
        <time>2021-08-23T11:27:34Z</time>
      </trkpt>
      <trkpt lat="45.61313" lon="5.70201">
        <ele>608.3</ele>
        <time>2021-08-23T11:27:35Z</time>
      </trkpt>
      <trkpt lat="45.61308" lon="5.70217">
        <ele>608.2</ele>
        <time>2021-08-23T11:27:37Z</time>
      </trkpt>
      <trkpt lat="45.61305" lon="5.70226">
        <ele>608.1</ele>
        <time>2021-08-23T11:27:38Z</time>
      </trkpt>
      <trkpt lat="45.613" lon="5.70243">
        <ele>608.2</ele>
        <time>2021-08-23T11:27:40Z</time>
      </trkpt>
      <trkpt lat="45.61298" lon="5.70251">
        <ele>608.2</ele>
        <time>2021-08-23T11:27:41Z</time>
      </trkpt>
      <trkpt lat="45.61296" lon="5.70259">
        <ele>608.3</ele>
        <time>2021-08-23T11:27:42Z</time>
      </trkpt>
      <trkpt lat="45.61293" lon="5.70267">
        <ele>608.4</ele>
        <time>2021-08-23T11:27:43Z</time>
      </trkpt>
      <trkpt lat="45.61291" lon="5.70274">
        <ele>608.5</ele>
        <time>2021-08-23T11:27:44Z</time>
      </trkpt>
      <trkpt lat="45.61285" lon="5.70287">
        <ele>608.8</ele>
        <time>2021-08-23T11:27:46Z</time>
      </trkpt>
      <trkpt lat="45.61279" lon="5.703">
        <ele>609.1</ele>
        <time>2021-08-23T11:27:48Z</time>
      </trkpt>
      <trkpt lat="45.61277" lon="5.70304">
        <ele>609.2</ele>
        <time>2021-08-23T11:27:49Z</time>
      </trkpt>
      <trkpt lat="45.61275" lon="5.70309">
        <ele>609.3</ele>
        <time>2021-08-23T11:27:50Z</time>
      </trkpt>
      <trkpt lat="45.6127" lon="5.70318">
        <ele>609.5</ele>
        <time>2021-08-23T11:27:52Z</time>
      </trkpt>
      <trkpt lat="45.61266" lon="5.70321">
        <ele>609.6</ele>
        <time>2021-08-23T11:27:53Z</time>
      </trkpt>
      <trkpt lat="45.61256" lon="5.70326">
        <ele>610.1</ele>
        <time>2021-08-23T11:27:55Z</time>
      </trkpt>
      <trkpt lat="45.6125" lon="5.70331">
        <ele>610.4</ele>
        <time>2021-08-23T11:27:56Z</time>
      </trkpt>
      <trkpt lat="45.61242" lon="5.70342">
        <ele>611.2</ele>
        <time>2021-08-23T11:27:58Z</time>
      </trkpt>
      <trkpt lat="45.61235" lon="5.70353">
        <ele>612.1</ele>
        <time>2021-08-23T11:28:00Z</time>
      </trkpt>
      <trkpt lat="45.61232" lon="5.70359">
        <ele>612.5</ele>
        <time>2021-08-23T11:28:01Z</time>
      </trkpt>
      <trkpt lat="45.6123" lon="5.70362">
        <ele>612.8</ele>
        <time>2021-08-23T11:28:02Z</time>
      </trkpt>
      <trkpt lat="45.61233" lon="5.7036">
        <ele>613.1</ele>
        <time>2021-08-23T11:28:03Z</time>
      </trkpt>
      <trkpt lat="45.6123" lon="5.70361">
        <ele>613.4</ele>
        <time>2021-08-23T11:28:05Z</time>
      </trkpt>
      <trkpt lat="45.61227" lon="5.70364">
        <ele>613.7</ele>
        <time>2021-08-23T11:28:06Z</time>
      </trkpt>
      <trkpt lat="45.61225" lon="5.70369">
        <ele>614.1</ele>
        <time>2021-08-23T11:28:07Z</time>
      </trkpt>
      <trkpt lat="45.61225" lon="5.70372">
        <ele>614.3</ele>
        <time>2021-08-23T11:28:08Z</time>
      </trkpt>
      <trkpt lat="45.61225" lon="5.70378">
        <ele>614.7</ele>
        <time>2021-08-23T11:28:10Z</time>
      </trkpt>
      <trkpt lat="45.61224" lon="5.70384">
        <ele>615.1</ele>
        <time>2021-08-23T11:28:12Z</time>
      </trkpt>
      <trkpt lat="45.61224" lon="5.7039">
        <ele>615.4</ele>
        <time>2021-08-23T11:28:13Z</time>
      </trkpt>
      <trkpt lat="45.61224" lon="5.70392">
        <ele>615.6</ele>
        <time>2021-08-23T11:28:14Z</time>
      </trkpt>
      <trkpt lat="45.61226" lon="5.70396">
        <ele>616</ele>
        <time>2021-08-23T11:28:16Z</time>
      </trkpt>
      <trkpt lat="45.61227" lon="5.704">
        <ele>616.3</ele>
        <time>2021-08-23T11:28:18Z</time>
      </trkpt>
      <trkpt lat="45.61227" lon="5.70401">
        <ele>616.3</ele>
        <time>2021-08-23T11:28:19Z</time>
      </trkpt>
      <trkpt lat="45.61227" lon="5.70402">
        <ele>616.4</ele>
        <time>2021-08-23T11:28:20Z</time>
      </trkpt>
      <trkpt lat="45.61227" lon="5.70405">
        <ele>616.6</ele>
        <time>2021-08-23T11:28:22Z</time>
      </trkpt>
      <trkpt lat="45.61227" lon="5.70407">
        <ele>616.8</ele>
        <time>2021-08-23T11:28:23Z</time>
      </trkpt>
      <trkpt lat="45.61199" lon="5.70496">
        <ele>625</ele>
        <time>2021-08-23T11:29:44Z</time>
      </trkpt>
      <trkpt lat="45.61197" lon="5.70499">
        <ele>625.3</ele>
        <time>2021-08-23T11:29:45Z</time>
      </trkpt>
      <trkpt lat="45.61194" lon="5.70499">
        <ele>625.6</ele>
        <time>2021-08-23T11:29:46Z</time>
      </trkpt>
      <trkpt lat="45.61191" lon="5.70501">
        <ele>625.8</ele>
        <time>2021-08-23T11:29:47Z</time>
      </trkpt>
      <trkpt lat="45.6119" lon="5.70503">
        <ele>626.4</ele>
        <time>2021-08-23T11:29:48Z</time>
      </trkpt>
      <trkpt lat="45.61189" lon="5.70508">
        <ele>626.4</ele>
        <time>2021-08-23T11:29:50Z</time>
      </trkpt>
      <trkpt lat="45.61188" lon="5.70511">
        <ele>626.4</ele>
        <time>2021-08-23T11:29:51Z</time>
      </trkpt>
      <trkpt lat="45.61188" lon="5.70512">
        <ele>626.4</ele>
        <time>2021-08-23T11:29:52Z</time>
      </trkpt>
      <trkpt lat="45.61187" lon="5.70517">
        <ele>626.4</ele>
        <time>2021-08-23T11:29:54Z</time>
      </trkpt>
      <trkpt lat="45.61187" lon="5.70518">
        <ele>626.4</ele>
        <time>2021-08-23T11:29:55Z</time>
      </trkpt>
      <trkpt lat="45.61183" lon="5.70525">
        <ele>626.3</ele>
        <time>2021-08-23T11:29:57Z</time>
      </trkpt>
      <trkpt lat="45.61183" lon="5.70525">
        <ele>626.3</ele>
        <time>2021-08-23T11:29:57Z</time>
      </trkpt>
      <trkpt lat="45.61181" lon="5.70529">
        <ele>626.3</ele>
        <time>2021-08-23T11:29:58Z</time>
      </trkpt>
      <trkpt lat="45.61178" lon="5.70537">
        <ele>626.3</ele>
        <time>2021-08-23T11:30:00Z</time>
      </trkpt>
      <trkpt lat="45.61175" lon="5.70544">
        <ele>626.3</ele>
        <time>2021-08-23T11:30:01Z</time>
      </trkpt>
      <trkpt lat="45.61172" lon="5.70549">
        <ele>626.3</ele>
        <time>2021-08-23T11:30:02Z</time>
      </trkpt>
      <trkpt lat="45.61168" lon="5.70556">
        <ele>626.3</ele>
        <time>2021-08-23T11:30:04Z</time>
      </trkpt>
      <trkpt lat="45.61165" lon="5.70562">
        <ele>626.2</ele>
        <time>2021-08-23T11:30:05Z</time>
      </trkpt>
      <trkpt lat="45.61162" lon="5.70567">
        <ele>626.1</ele>
        <time>2021-08-23T11:30:06Z</time>
      </trkpt>
      <trkpt lat="45.61158" lon="5.70574">
        <ele>626</ele>
        <time>2021-08-23T11:30:08Z</time>
      </trkpt>
      <trkpt lat="45.61154" lon="5.7058">
        <ele>625.8</ele>
        <time>2021-08-23T11:30:09Z</time>
      </trkpt>
      <trkpt lat="45.61152" lon="5.70585">
        <ele>625.6</ele>
        <time>2021-08-23T11:30:10Z</time>
      </trkpt>
      <trkpt lat="45.61147" lon="5.70593">
        <ele>625.4</ele>
        <time>2021-08-23T11:30:12Z</time>
      </trkpt>
      <trkpt lat="45.61143" lon="5.706">
        <ele>625.1</ele>
        <time>2021-08-23T11:30:13Z</time>
      </trkpt>
      <trkpt lat="45.61139" lon="5.70605">
        <ele>624.8</ele>
        <time>2021-08-23T11:30:14Z</time>
      </trkpt>
      <trkpt lat="45.61133" lon="5.70612">
        <ele>624.4</ele>
        <time>2021-08-23T11:30:16Z</time>
      </trkpt>
      <trkpt lat="45.61127" lon="5.70617">
        <ele>624.1</ele>
        <time>2021-08-23T11:30:17Z</time>
      </trkpt>
      <trkpt lat="45.61123" lon="5.70622">
        <ele>623.8</ele>
        <time>2021-08-23T11:30:18Z</time>
      </trkpt>
      <trkpt lat="45.61115" lon="5.70632">
        <ele>623.3</ele>
        <time>2021-08-23T11:30:20Z</time>
      </trkpt>
      <trkpt lat="45.61111" lon="5.70638">
        <ele>623.1</ele>
        <time>2021-08-23T11:30:21Z</time>
      </trkpt>
      <trkpt lat="45.61107" lon="5.70643">
        <ele>622.9</ele>
        <time>2021-08-23T11:30:22Z</time>
      </trkpt>
      <trkpt lat="45.611" lon="5.70656">
        <ele>622.5</ele>
        <time>2021-08-23T11:30:24Z</time>
      </trkpt>
      <trkpt lat="45.61092" lon="5.7067">
        <ele>622.2</ele>
        <time>2021-08-23T11:30:26Z</time>
      </trkpt>
      <trkpt lat="45.61085" lon="5.70682">
        <ele>621.9</ele>
        <time>2021-08-23T11:30:28Z</time>
      </trkpt>
      <trkpt lat="45.61082" lon="5.70687">
        <ele>621.8</ele>
        <time>2021-08-23T11:30:29Z</time>
      </trkpt>
      <trkpt lat="45.61079" lon="5.70689">
        <ele>621.7</ele>
        <time>2021-08-23T11:30:30Z</time>
      </trkpt>
      <trkpt lat="45.61072" lon="5.70697">
        <ele>621.5</ele>
        <time>2021-08-23T11:30:32Z</time>
      </trkpt>
      <trkpt lat="45.61064" lon="5.70709">
        <ele>621.2</ele>
        <time>2021-08-23T11:30:34Z</time>
      </trkpt>
      <trkpt lat="45.6106" lon="5.70716">
        <ele>621</ele>
        <time>2021-08-23T11:30:35Z</time>
      </trkpt>
      <trkpt lat="45.61053" lon="5.70729">
        <ele>620.7</ele>
        <time>2021-08-23T11:30:37Z</time>
      </trkpt>
      <trkpt lat="45.61051" lon="5.70733">
        <ele>620.7</ele>
        <time>2021-08-23T11:30:38Z</time>
      </trkpt>
      <trkpt lat="45.61047" lon="5.7074">
        <ele>620.6</ele>
        <time>2021-08-23T11:30:40Z</time>
      </trkpt>
      <trkpt lat="45.61042" lon="5.70745">
        <ele>620.6</ele>
        <time>2021-08-23T11:30:41Z</time>
      </trkpt>
      <trkpt lat="45.6103" lon="5.7076">
        <ele>620.6</ele>
        <time>2021-08-23T11:30:43Z</time>
      </trkpt>
      <trkpt lat="45.61028" lon="5.70764">
        <ele>620.7</ele>
        <time>2021-08-23T11:30:44Z</time>
      </trkpt>
      <trkpt lat="45.61025" lon="5.70769">
        <ele>620.7</ele>
        <time>2021-08-23T11:30:46Z</time>
      </trkpt>
      <trkpt lat="45.6102" lon="5.70777">
        <ele>620.8</ele>
        <time>2021-08-23T11:30:47Z</time>
      </trkpt>
      <trkpt lat="45.61015" lon="5.70785">
        <ele>620.8</ele>
        <time>2021-08-23T11:30:48Z</time>
      </trkpt>
      <trkpt lat="45.61004" lon="5.70801">
        <ele>620.8</ele>
        <time>2021-08-23T11:30:50Z</time>
      </trkpt>
      <trkpt lat="45.60997" lon="5.70816">
        <ele>620.9</ele>
        <time>2021-08-23T11:30:52Z</time>
      </trkpt>
      <trkpt lat="45.60994" lon="5.70822">
        <ele>621</ele>
        <time>2021-08-23T11:30:54Z</time>
      </trkpt>
      <trkpt lat="45.60994" lon="5.70824">
        <ele>621</ele>
        <time>2021-08-23T11:30:55Z</time>
      </trkpt>
      <trkpt lat="45.60992" lon="5.70827">
        <ele>621.1</ele>
        <time>2021-08-23T11:30:57Z</time>
      </trkpt>
      <trkpt lat="45.6099" lon="5.70832">
        <ele>621.1</ele>
        <time>2021-08-23T11:30:58Z</time>
      </trkpt>
      <trkpt lat="45.60987" lon="5.70839">
        <ele>621.2</ele>
        <time>2021-08-23T11:31:00Z</time>
      </trkpt>
      <trkpt lat="45.60986" lon="5.70841">
        <ele>621.3</ele>
        <time>2021-08-23T11:31:01Z</time>
      </trkpt>
      <trkpt lat="45.60983" lon="5.70844">
        <ele>621.3</ele>
        <time>2021-08-23T11:31:03Z</time>
      </trkpt>
      <trkpt lat="45.60732" lon="5.71132">
        <ele>617.9</ele>
        <time>2021-08-23T11:33:03Z</time>
      </trkpt>
      <trkpt lat="45.60728" lon="5.71134">
        <ele>617.9</ele>
        <time>2021-08-23T11:33:04Z</time>
      </trkpt>
      <trkpt lat="45.60724" lon="5.71136">
        <ele>617.9</ele>
        <time>2021-08-23T11:33:05Z</time>
      </trkpt>
      <trkpt lat="45.60719" lon="5.71138">
        <ele>618</ele>
        <time>2021-08-23T11:33:06Z</time>
      </trkpt>
      <trkpt lat="45.60713" lon="5.71141">
        <ele>618.1</ele>
        <time>2021-08-23T11:33:07Z</time>
      </trkpt>
      <trkpt lat="45.60708" lon="5.71144">
        <ele>618.1</ele>
        <time>2021-08-23T11:33:09Z</time>
      </trkpt>
      <trkpt lat="45.60704" lon="5.71147">
        <ele>618.1</ele>
        <time>2021-08-23T11:33:10Z</time>
      </trkpt>
      <trkpt lat="45.60701" lon="5.71149">
        <ele>618</ele>
        <time>2021-08-23T11:33:11Z</time>
      </trkpt>
      <trkpt lat="45.60696" lon="5.71149">
        <ele>618</ele>
        <time>2021-08-23T11:33:12Z</time>
      </trkpt>
      <trkpt lat="45.60691" lon="5.71149">
        <ele>617.7</ele>
        <time>2021-08-23T11:33:14Z</time>
      </trkpt>
      <trkpt lat="45.60686" lon="5.7115">
        <ele>617.1</ele>
        <time>2021-08-23T11:33:15Z</time>
      </trkpt>
      <trkpt lat="45.60682" lon="5.7115">
        <ele>616.7</ele>
        <time>2021-08-23T11:33:16Z</time>
      </trkpt>
      <trkpt lat="45.60671" lon="5.71156">
        <ele>615</ele>
        <time>2021-08-23T11:33:18Z</time>
      </trkpt>
      <trkpt lat="45.60663" lon="5.71161">
        <ele>614</ele>
        <time>2021-08-23T11:33:19Z</time>
      </trkpt>
      <trkpt lat="45.60655" lon="5.71165">
        <ele>613.1</ele>
        <time>2021-08-23T11:33:20Z</time>
      </trkpt>
      <trkpt lat="45.60648" lon="5.71168">
        <ele>612.5</ele>
        <time>2021-08-23T11:33:21Z</time>
      </trkpt>
      <trkpt lat="45.60639" lon="5.71172">
        <ele>611.8</ele>
        <time>2021-08-23T11:33:23Z</time>
      </trkpt>
      <trkpt lat="45.6063" lon="5.71175">
        <ele>610.9</ele>
        <time>2021-08-23T11:33:24Z</time>
      </trkpt>
      <trkpt lat="45.60627" lon="5.71177">
        <ele>610.6</ele>
        <time>2021-08-23T11:33:25Z</time>
      </trkpt>
      <trkpt lat="45.60624" lon="5.71178">
        <ele>610.2</ele>
        <time>2021-08-23T11:33:28Z</time>
      </trkpt>
      <trkpt lat="45.60615" lon="5.71181">
        <ele>609</ele>
        <time>2021-08-23T11:33:30Z</time>
      </trkpt>
      <trkpt lat="45.60459" lon="5.71455">
        <ele>586.9</ele>
        <time>2021-08-23T11:34:57Z</time>
      </trkpt>
      <trkpt lat="45.60457" lon="5.71462">
        <ele>587.3</ele>
        <time>2021-08-23T11:34:59Z</time>
      </trkpt>
      <trkpt lat="45.60452" lon="5.71467">
        <ele>587.8</ele>
        <time>2021-08-23T11:35:00Z</time>
      </trkpt>
      <trkpt lat="45.60449" lon="5.7147">
        <ele>588</ele>
        <time>2021-08-23T11:35:02Z</time>
      </trkpt>
      <trkpt lat="45.60447" lon="5.71472">
        <ele>588.2</ele>
        <time>2021-08-23T11:35:03Z</time>
      </trkpt>
      <trkpt lat="45.60445" lon="5.71475">
        <ele>588.5</ele>
        <time>2021-08-23T11:35:05Z</time>
      </trkpt>
      <trkpt lat="45.60443" lon="5.71476">
        <ele>588.7</ele>
        <time>2021-08-23T11:35:07Z</time>
      </trkpt>
      <trkpt lat="45.60442" lon="5.71477">
        <ele>588.7</ele>
        <time>2021-08-23T11:35:08Z</time>
      </trkpt>
      <trkpt lat="45.60441" lon="5.71477">
        <ele>588.8</ele>
        <time>2021-08-23T11:35:09Z</time>
      </trkpt>
      <trkpt lat="45.6041" lon="5.71501">
        <ele>592</ele>
        <time>2021-08-23T11:35:28Z</time>
      </trkpt>
      <trkpt lat="45.60408" lon="5.71506">
        <ele>592.4</ele>
        <time>2021-08-23T11:35:30Z</time>
      </trkpt>
      <trkpt lat="45.60408" lon="5.71509">
        <ele>592.5</ele>
        <time>2021-08-23T11:35:31Z</time>
      </trkpt>
      <trkpt lat="45.60407" lon="5.71511">
        <ele>592.7</ele>
        <time>2021-08-23T11:35:32Z</time>
      </trkpt>
      <trkpt lat="45.60406" lon="5.71515">
        <ele>592.9</ele>
        <time>2021-08-23T11:35:34Z</time>
      </trkpt>
      <trkpt lat="45.60406" lon="5.71517">
        <ele>593.1</ele>
        <time>2021-08-23T11:35:35Z</time>
      </trkpt>
      <trkpt lat="45.60404" lon="5.71524">
        <ele>593.5</ele>
        <time>2021-08-23T11:35:37Z</time>
      </trkpt>
      <trkpt lat="45.60401" lon="5.71531">
        <ele>593.9</ele>
        <time>2021-08-23T11:35:38Z</time>
      </trkpt>
      <trkpt lat="45.60395" lon="5.71535">
        <ele>594.5</ele>
        <time>2021-08-23T11:35:39Z</time>
      </trkpt>
      <trkpt lat="45.60392" lon="5.71535">
        <ele>594.6</ele>
        <time>2021-08-23T11:35:40Z</time>
      </trkpt>
      <trkpt lat="45.60389" lon="5.71536">
        <ele>594.9</ele>
        <time>2021-08-23T11:35:42Z</time>
      </trkpt>
      <trkpt lat="45.60385" lon="5.71538">
        <ele>595.2</ele>
        <time>2021-08-23T11:35:43Z</time>
      </trkpt>
      <trkpt lat="45.60375" lon="5.71545">
        <ele>595.8</ele>
        <time>2021-08-23T11:35:45Z</time>
      </trkpt>
      <trkpt lat="45.60368" lon="5.7155">
        <ele>596.3</ele>
        <time>2021-08-23T11:35:46Z</time>
      </trkpt>
      <trkpt lat="45.60365" lon="5.71552">
        <ele>596.5</ele>
        <time>2021-08-23T11:35:48Z</time>
      </trkpt>
      <trkpt lat="45.60364" lon="5.71552">
        <ele>596.6</ele>
        <time>2021-08-23T11:35:49Z</time>
      </trkpt>
      <trkpt lat="45.60357" lon="5.71556">
        <ele>597</ele>
        <time>2021-08-23T11:35:51Z</time>
      </trkpt>
      <trkpt lat="45.60354" lon="5.71557">
        <ele>597.1</ele>
        <time>2021-08-23T11:35:53Z</time>
      </trkpt>
      <trkpt lat="45.60067" lon="5.71973">
        <ele>576.3</ele>
        <time>2021-08-23T11:37:56Z</time>
      </trkpt>
      <trkpt lat="45.60049" lon="5.72004">
        <ele>574</ele>
        <time>2021-08-23T11:37:58Z</time>
      </trkpt>
      <trkpt lat="45.60041" lon="5.72014">
        <ele>573</ele>
        <time>2021-08-23T11:37:59Z</time>
      </trkpt>
      <trkpt lat="45.60025" lon="5.72032">
        <ele>571.2</ele>
        <time>2021-08-23T11:38:01Z</time>
      </trkpt>
      <trkpt lat="45.60018" lon="5.72042">
        <ele>570.2</ele>
        <time>2021-08-23T11:38:02Z</time>
      </trkpt>
      <trkpt lat="45.60011" lon="5.72051">
        <ele>569.3</ele>
        <time>2021-08-23T11:38:03Z</time>
      </trkpt>
      <trkpt lat="45.59997" lon="5.72069">
        <ele>567.8</ele>
        <time>2021-08-23T11:38:05Z</time>
      </trkpt>
      <trkpt lat="45.59984" lon="5.72089">
        <ele>566.7</ele>
        <time>2021-08-23T11:38:07Z</time>
      </trkpt>
      <trkpt lat="45.59978" lon="5.72097">
        <ele>566.2</ele>
        <time>2021-08-23T11:38:08Z</time>
      </trkpt>
      <trkpt lat="45.59971" lon="5.72105">
        <ele>565.7</ele>
        <time>2021-08-23T11:38:09Z</time>
      </trkpt>
      <trkpt lat="45.59957" lon="5.72119">
        <ele>564.7</ele>
        <time>2021-08-23T11:38:11Z</time>
      </trkpt>
      <trkpt lat="45.5995" lon="5.72125">
        <ele>564.2</ele>
        <time>2021-08-23T11:38:12Z</time>
      </trkpt>
      <trkpt lat="45.59938" lon="5.72137">
        <ele>563.3</ele>
        <time>2021-08-23T11:38:14Z</time>
      </trkpt>
      <trkpt lat="45.59927" lon="5.72149">
        <ele>562.4</ele>
        <time>2021-08-23T11:38:16Z</time>
      </trkpt>
      <trkpt lat="45.59922" lon="5.72155">
        <ele>561.9</ele>
        <time>2021-08-23T11:38:17Z</time>
      </trkpt>
      <trkpt lat="45.59916" lon="5.72161">
        <ele>561.5</ele>
        <time>2021-08-23T11:38:18Z</time>
      </trkpt>
      <trkpt lat="45.59905" lon="5.72172">
        <ele>560.4</ele>
        <time>2021-08-23T11:38:20Z</time>
      </trkpt>
      <trkpt lat="45.59895" lon="5.72183">
        <ele>559.2</ele>
        <time>2021-08-23T11:38:22Z</time>
      </trkpt>
      <trkpt lat="45.59889" lon="5.7219">
        <ele>558.5</ele>
        <time>2021-08-23T11:38:23Z</time>
      </trkpt>
      <trkpt lat="45.59883" lon="5.72199">
        <ele>557.9</ele>
        <time>2021-08-23T11:38:24Z</time>
      </trkpt>
      <trkpt lat="45.59878" lon="5.72208">
        <ele>557.4</ele>
        <time>2021-08-23T11:38:25Z</time>
      </trkpt>
      <trkpt lat="45.59868" lon="5.72226">
        <ele>556.4</ele>
        <time>2021-08-23T11:38:27Z</time>
      </trkpt>
      <trkpt lat="45.59855" lon="5.7224">
        <ele>555.2</ele>
        <time>2021-08-23T11:38:29Z</time>
      </trkpt>
      <trkpt lat="45.59848" lon="5.72245">
        <ele>554.4</ele>
        <time>2021-08-23T11:38:30Z</time>
      </trkpt>
      <trkpt lat="45.59842" lon="5.72247">
        <ele>553.7</ele>
        <time>2021-08-23T11:38:31Z</time>
      </trkpt>
      <trkpt lat="45.59834" lon="5.72248">
        <ele>552.9</ele>
        <time>2021-08-23T11:38:33Z</time>
      </trkpt>
      <trkpt lat="45.59827" lon="5.72251">
        <ele>552.3</ele>
        <time>2021-08-23T11:38:34Z</time>
      </trkpt>
      <trkpt lat="45.59822" lon="5.72255">
        <ele>551.8</ele>
        <time>2021-08-23T11:38:35Z</time>
      </trkpt>
      <trkpt lat="45.59812" lon="5.72261">
        <ele>551.5</ele>
        <time>2021-08-23T11:38:36Z</time>
      </trkpt>
      <trkpt lat="45.59799" lon="5.72267">
        <ele>551.3</ele>
        <time>2021-08-23T11:38:38Z</time>
      </trkpt>
      <trkpt lat="45.5979" lon="5.7227">
        <ele>551.4</ele>
        <time>2021-08-23T11:38:39Z</time>
      </trkpt>
      <trkpt lat="45.59778" lon="5.72277">
        <ele>551.6</ele>
        <time>2021-08-23T11:38:41Z</time>
      </trkpt>
      <trkpt lat="45.59773" lon="5.7228">
        <ele>551.7</ele>
        <time>2021-08-23T11:38:42Z</time>
      </trkpt>
      <trkpt lat="45.59772" lon="5.72286">
        <ele>551.7</ele>
        <time>2021-08-23T11:38:44Z</time>
      </trkpt>
      <trkpt lat="45.59768" lon="5.72288">
        <ele>551.8</ele>
        <time>2021-08-23T11:38:46Z</time>
      </trkpt>
      <trkpt lat="45.59767" lon="5.72289">
        <ele>551.8</ele>
        <time>2021-08-23T11:38:47Z</time>
      </trkpt>
      <trkpt lat="45.59767" lon="5.72289">
        <ele>551.8</ele>
        <time>2021-08-23T11:38:48Z</time>
      </trkpt>
      <trkpt lat="45.59767" lon="5.72288">
        <ele>551.8</ele>
        <time>2021-08-23T11:38:50Z</time>
      </trkpt>
      <trkpt lat="45.59618" lon="5.72287">
        <ele>535.7</ele>
        <time>2021-08-23T11:39:24Z</time>
      </trkpt>
      <trkpt lat="45.59589" lon="5.72289">
        <ele>531.4</ele>
        <time>2021-08-23T11:39:26Z</time>
      </trkpt>
      <trkpt lat="45.59581" lon="5.72291">
        <ele>530.2</ele>
        <time>2021-08-23T11:39:27Z</time>
      </trkpt>
      <trkpt lat="45.59576" lon="5.72292">
        <ele>529.6</ele>
        <time>2021-08-23T11:39:28Z</time>
      </trkpt>
      <trkpt lat="45.59574" lon="5.7229">
        <ele>529.2</ele>
        <time>2021-08-23T11:39:29Z</time>
      </trkpt>
      <trkpt lat="45.59569" lon="5.72289">
        <ele>528.5</ele>
        <time>2021-08-23T11:39:31Z</time>
      </trkpt>
      <trkpt lat="45.59563" lon="5.72287">
        <ele>527.7</ele>
        <time>2021-08-23T11:39:33Z</time>
      </trkpt>
      <trkpt lat="45.59561" lon="5.72285">
        <ele>527.4</ele>
        <time>2021-08-23T11:39:34Z</time>
      </trkpt>
      <trkpt lat="45.5956" lon="5.72285">
        <ele>527.3</ele>
        <time>2021-08-23T11:39:35Z</time>
      </trkpt>
      <trkpt lat="45.59559" lon="5.72285">
        <ele>527.2</ele>
        <time>2021-08-23T11:39:37Z</time>
      </trkpt>
      <trkpt lat="45.59559" lon="5.72284">
        <ele>527.2</ele>
        <time>2021-08-23T11:39:39Z</time>
      </trkpt>
      <trkpt lat="45.59559" lon="5.72284">
        <ele>527.1</ele>
        <time>2021-08-23T11:39:41Z</time>
      </trkpt>
      <trkpt lat="45.59559" lon="5.72283">
        <ele>527</ele>
        <time>2021-08-23T11:39:42Z</time>
      </trkpt>
      <trkpt lat="45.59558" lon="5.72278">
        <ele>526.6</ele>
        <time>2021-08-23T11:39:44Z</time>
      </trkpt>
      <trkpt lat="45.5955" lon="5.72311">
        <ele>524.1</ele>
        <time>2021-08-23T11:40:16Z</time>
      </trkpt>
      <trkpt lat="45.59549" lon="5.72313">
        <ele>523.9</ele>
        <time>2021-08-23T11:40:17Z</time>
      </trkpt>
      <trkpt lat="45.59547" lon="5.72315">
        <ele>523.7</ele>
        <time>2021-08-23T11:40:19Z</time>
      </trkpt>
      <trkpt lat="45.59546" lon="5.72317">
        <ele>523.5</ele>
        <time>2021-08-23T11:40:21Z</time>
      </trkpt>
      <trkpt lat="45.59543" lon="5.72319">
        <ele>523.2</ele>
        <time>2021-08-23T11:40:23Z</time>
      </trkpt>
      <trkpt lat="45.59541" lon="5.72321">
        <ele>523.3</ele>
        <time>2021-08-23T11:40:25Z</time>
      </trkpt>
      <trkpt lat="45.59539" lon="5.72323">
        <ele>523.5</ele>
        <time>2021-08-23T11:40:27Z</time>
      </trkpt>
      <trkpt lat="45.59537" lon="5.72325">
        <ele>523.7</ele>
        <time>2021-08-23T11:40:28Z</time>
      </trkpt>
      <trkpt lat="45.59535" lon="5.7233">
        <ele>524</ele>
        <time>2021-08-23T11:40:30Z</time>
      </trkpt>
      <trkpt lat="45.59533" lon="5.72334">
        <ele>524.2</ele>
        <time>2021-08-23T11:40:31Z</time>
      </trkpt>
      <trkpt lat="45.59532" lon="5.72335">
        <ele>524.3</ele>
        <time>2021-08-23T11:40:32Z</time>
      </trkpt>
      <trkpt lat="45.59529" lon="5.72342">
        <ele>524.7</ele>
        <time>2021-08-23T11:40:34Z</time>
      </trkpt>
      <trkpt lat="45.59528" lon="5.72347">
        <ele>524.9</ele>
        <time>2021-08-23T11:40:35Z</time>
      </trkpt>
      <trkpt lat="45.59527" lon="5.72348">
        <ele>525</ele>
        <time>2021-08-23T11:40:36Z</time>
      </trkpt>
      <trkpt lat="45.59526" lon="5.7235">
        <ele>525.1</ele>
        <time>2021-08-23T11:40:37Z</time>
      </trkpt>
      <trkpt lat="45.59525" lon="5.72356">
        <ele>525.4</ele>
        <time>2021-08-23T11:40:39Z</time>
      </trkpt>
      <trkpt lat="45.59523" lon="5.7236">
        <ele>525.6</ele>
        <time>2021-08-23T11:40:40Z</time>
      </trkpt>
      <trkpt lat="45.59523" lon="5.72362">
        <ele>525.7</ele>
        <time>2021-08-23T11:40:41Z</time>
      </trkpt>
      <trkpt lat="45.59523" lon="5.72367">
        <ele>526</ele>
        <time>2021-08-23T11:40:42Z</time>
      </trkpt>
      <trkpt lat="45.59523" lon="5.72371">
        <ele>526.2</ele>
        <time>2021-08-23T11:40:44Z</time>
      </trkpt>
      <trkpt lat="45.59523" lon="5.72372">
        <ele>526.2</ele>
        <time>2021-08-23T11:40:45Z</time>
      </trkpt>
      <trkpt lat="45.59524" lon="5.72377">
        <ele>526.5</ele>
        <time>2021-08-23T11:40:47Z</time>
      </trkpt>
      <trkpt lat="45.59524" lon="5.72382">
        <ele>526.7</ele>
        <time>2021-08-23T11:40:48Z</time>
      </trkpt>
      <trkpt lat="45.59524" lon="5.72387">
        <ele>526.9</ele>
        <time>2021-08-23T11:40:50Z</time>
      </trkpt>
      <trkpt lat="45.59524" lon="5.72389">
        <ele>527</ele>
        <time>2021-08-23T11:40:51Z</time>
      </trkpt>
      <trkpt lat="45.59525" lon="5.72394">
        <ele>527.3</ele>
        <time>2021-08-23T11:40:53Z</time>
      </trkpt>
      <trkpt lat="45.59525" lon="5.72396">
        <ele>527.4</ele>
        <time>2021-08-23T11:40:54Z</time>
      </trkpt>
      <trkpt lat="45.59525" lon="5.72402">
        <ele>527.7</ele>
        <time>2021-08-23T11:40:56Z</time>
      </trkpt>
      <trkpt lat="45.59524" lon="5.72407">
        <ele>527.9</ele>
        <time>2021-08-23T11:40:57Z</time>
      </trkpt>
      <trkpt lat="45.59523" lon="5.72411">
        <ele>528.1</ele>
        <time>2021-08-23T11:40:59Z</time>
      </trkpt>
      <trkpt lat="45.59523" lon="5.72416">
        <ele>528.4</ele>
        <time>2021-08-23T11:41:00Z</time>
      </trkpt>
      <trkpt lat="45.59521" lon="5.7242">
        <ele>528.7</ele>
        <time>2021-08-23T11:41:01Z</time>
      </trkpt>
      <trkpt lat="45.59521" lon="5.72424">
        <ele>528.9</ele>
        <time>2021-08-23T11:41:03Z</time>
      </trkpt>
      <trkpt lat="45.59521" lon="5.72428">
        <ele>529.1</ele>
        <time>2021-08-23T11:41:04Z</time>
      </trkpt>
      <trkpt lat="45.5952" lon="5.72432">
        <ele>529.2</ele>
        <time>2021-08-23T11:41:05Z</time>
      </trkpt>
      <trkpt lat="45.59519" lon="5.72434">
        <ele>529.4</ele>
        <time>2021-08-23T11:41:07Z</time>
      </trkpt>
      <trkpt lat="45.59516" lon="5.72434">
        <ele>529.6</ele>
        <time>2021-08-23T11:41:08Z</time>
      </trkpt>
      <trkpt lat="45.59514" lon="5.72434">
        <ele>529.7</ele>
        <time>2021-08-23T11:41:10Z</time>
      </trkpt>
      <trkpt lat="45.59514" lon="5.72434">
        <ele>529.8</ele>
        <time>2021-08-23T11:41:11Z</time>
      </trkpt>
      <trkpt lat="45.59513" lon="5.72435">
        <ele>529.8</ele>
        <time>2021-08-23T11:41:12Z</time>
      </trkpt>
      <trkpt lat="45.59511" lon="5.72436">
        <ele>530</ele>
        <time>2021-08-23T11:41:13Z</time>
      </trkpt>
      <trkpt lat="45.5951" lon="5.72437">
        <ele>530.1</ele>
        <time>2021-08-23T11:41:15Z</time>
      </trkpt>
      <trkpt lat="45.59479" lon="5.72481">
        <ele>533.2</ele>
        <time>2021-08-23T11:41:56Z</time>
      </trkpt>
      <trkpt lat="45.59479" lon="5.72485">
        <ele>533.3</ele>
        <time>2021-08-23T11:41:57Z</time>
      </trkpt>
      <trkpt lat="45.59479" lon="5.72493">
        <ele>533.7</ele>
        <time>2021-08-23T11:41:59Z</time>
      </trkpt>
      <trkpt lat="45.59477" lon="5.72516">
        <ele>534.8</ele>
        <time>2021-08-23T11:42:01Z</time>
      </trkpt>
      <trkpt lat="45.59476" lon="5.72524">
        <ele>535.2</ele>
        <time>2021-08-23T11:42:02Z</time>
      </trkpt>
      <trkpt lat="45.59475" lon="5.72528">
        <ele>535.4</ele>
        <time>2021-08-23T11:42:04Z</time>
      </trkpt>
      <trkpt lat="45.59475" lon="5.72531">
        <ele>535.5</ele>
        <time>2021-08-23T11:42:05Z</time>
      </trkpt>
      <trkpt lat="45.59474" lon="5.72533">
        <ele>535.6</ele>
        <time>2021-08-23T11:42:06Z</time>
      </trkpt>
      <trkpt lat="45.59474" lon="5.72536">
        <ele>535.8</ele>
        <time>2021-08-23T11:42:07Z</time>
      </trkpt>
      <trkpt lat="45.59471" lon="5.72591">
        <ele>538.5</ele>
        <time>2021-08-23T11:42:30Z</time>
      </trkpt>
      <trkpt lat="45.59471" lon="5.726">
        <ele>539</ele>
        <time>2021-08-23T11:42:32Z</time>
      </trkpt>
      <trkpt lat="45.59472" lon="5.72606">
        <ele>539.3</ele>
        <time>2021-08-23T11:42:34Z</time>
      </trkpt>
      <trkpt lat="45.59472" lon="5.72613">
        <ele>539.6</ele>
        <time>2021-08-23T11:42:36Z</time>
      </trkpt>
      <trkpt lat="45.59472" lon="5.72617">
        <ele>539.8</ele>
        <time>2021-08-23T11:42:37Z</time>
      </trkpt>
      <trkpt lat="45.59473" lon="5.72622">
        <ele>540.1</ele>
        <time>2021-08-23T11:42:39Z</time>
      </trkpt>
      <trkpt lat="45.59472" lon="5.72626">
        <ele>540.4</ele>
        <time>2021-08-23T11:42:40Z</time>
      </trkpt>
      <trkpt lat="45.59471" lon="5.7263">
        <ele>540.6</ele>
        <time>2021-08-23T11:42:42Z</time>
      </trkpt>
      <trkpt lat="45.59473" lon="5.72636">
        <ele>540.9</ele>
        <time>2021-08-23T11:42:43Z</time>
      </trkpt>
      <trkpt lat="45.59472" lon="5.72638">
        <ele>541.1</ele>
        <time>2021-08-23T11:42:44Z</time>
      </trkpt>
      <trkpt lat="45.59472" lon="5.72641">
        <ele>541.2</ele>
        <time>2021-08-23T11:42:45Z</time>
      </trkpt>
      <trkpt lat="45.59473" lon="5.72641">
        <ele>541.3</ele>
        <time>2021-08-23T11:42:47Z</time>
      </trkpt>
      <trkpt lat="45.59473" lon="5.72645">
        <ele>541.5</ele>
        <time>2021-08-23T11:42:48Z</time>
      </trkpt>
      <trkpt lat="45.59473" lon="5.72647">
        <ele>541.6</ele>
        <time>2021-08-23T11:42:50Z</time>
      </trkpt>
      <trkpt lat="45.59473" lon="5.72649">
        <ele>541.8</ele>
        <time>2021-08-23T11:42:52Z</time>
      </trkpt>
      <trkpt lat="45.59473" lon="5.7265">
        <ele>541.8</ele>
        <time>2021-08-23T11:42:53Z</time>
      </trkpt>
      <trkpt lat="45.59473" lon="5.72652">
        <ele>541.9</ele>
        <time>2021-08-23T11:42:55Z</time>
      </trkpt>
      <trkpt lat="45.59473" lon="5.72653">
        <ele>542</ele>
        <time>2021-08-23T11:42:56Z</time>
      </trkpt>
      <trkpt lat="45.59473" lon="5.72656">
        <ele>542.2</ele>
        <time>2021-08-23T11:42:58Z</time>
      </trkpt>
      <trkpt lat="45.59472" lon="5.72659">
        <ele>542.4</ele>
        <time>2021-08-23T11:42:59Z</time>
      </trkpt>
      <trkpt lat="45.59471" lon="5.72661">
        <ele>542.5</ele>
        <time>2021-08-23T11:43:00Z</time>
      </trkpt>
      <trkpt lat="45.59469" lon="5.72671">
        <ele>543.2</ele>
        <time>2021-08-23T11:43:04Z</time>
      </trkpt>
      <trkpt lat="45.59467" lon="5.72676">
        <ele>543.5</ele>
        <time>2021-08-23T11:43:06Z</time>
      </trkpt>
      <trkpt lat="45.59465" lon="5.72684">
        <ele>544.1</ele>
        <time>2021-08-23T11:43:08Z</time>
      </trkpt>
      <trkpt lat="45.59464" lon="5.72688">
        <ele>544.4</ele>
        <time>2021-08-23T11:43:09Z</time>
      </trkpt>
      <trkpt lat="45.59461" lon="5.72697">
        <ele>545</ele>
        <time>2021-08-23T11:43:11Z</time>
      </trkpt>
      <trkpt lat="45.5946" lon="5.72701">
        <ele>545.3</ele>
        <time>2021-08-23T11:43:12Z</time>
      </trkpt>
      <trkpt lat="45.59458" lon="5.72705">
        <ele>545.6</ele>
        <time>2021-08-23T11:43:13Z</time>
      </trkpt>
      <trkpt lat="45.59458" lon="5.72707">
        <ele>545.7</ele>
        <time>2021-08-23T11:43:14Z</time>
      </trkpt>
      <trkpt lat="45.59456" lon="5.72712">
        <ele>546</ele>
        <time>2021-08-23T11:43:15Z</time>
      </trkpt>
      <trkpt lat="45.59455" lon="5.72718">
        <ele>546.4</ele>
        <time>2021-08-23T11:43:16Z</time>
      </trkpt>
      <trkpt lat="45.59453" lon="5.72722">
        <ele>546.8</ele>
        <time>2021-08-23T11:43:18Z</time>
      </trkpt>
      <trkpt lat="45.59451" lon="5.72726">
        <ele>547.1</ele>
        <time>2021-08-23T11:43:19Z</time>
      </trkpt>
      <trkpt lat="45.59451" lon="5.72728">
        <ele>547.2</ele>
        <time>2021-08-23T11:43:20Z</time>
      </trkpt>
      <trkpt lat="45.59449" lon="5.72733">
        <ele>547.5</ele>
        <time>2021-08-23T11:43:22Z</time>
      </trkpt>
      <trkpt lat="45.59447" lon="5.72739">
        <ele>547.9</ele>
        <time>2021-08-23T11:43:23Z</time>
      </trkpt>
      <trkpt lat="45.59447" lon="5.72741">
        <ele>548</ele>
        <time>2021-08-23T11:43:24Z</time>
      </trkpt>
      <trkpt lat="45.59445" lon="5.72742">
        <ele>548.2</ele>
        <time>2021-08-23T11:43:26Z</time>
      </trkpt>
      <trkpt lat="45.59444" lon="5.72736">
        <ele>548.6</ele>
        <time>2021-08-23T11:43:28Z</time>
      </trkpt>
      <trkpt lat="45.59442" lon="5.72734">
        <ele>548.7</ele>
        <time>2021-08-23T11:43:30Z</time>
      </trkpt>
      <trkpt lat="45.59442" lon="5.72735">
        <ele>548.8</ele>
        <time>2021-08-23T11:43:31Z</time>
      </trkpt>
      <trkpt lat="45.59441" lon="5.72735">
        <ele>548.9</ele>
        <time>2021-08-23T11:43:32Z</time>
      </trkpt>
      <trkpt lat="45.5944" lon="5.72735">
        <ele>548.9</ele>
        <time>2021-08-23T11:43:33Z</time>
      </trkpt>
      <trkpt lat="45.59426" lon="5.72741">
        <ele>550.1</ele>
        <time>2021-08-23T11:43:46Z</time>
      </trkpt>
      <trkpt lat="45.59422" lon="5.72743">
        <ele>550.5</ele>
        <time>2021-08-23T11:43:48Z</time>
      </trkpt>
      <trkpt lat="45.59418" lon="5.72745">
        <ele>550.9</ele>
        <time>2021-08-23T11:43:50Z</time>
      </trkpt>
      <trkpt lat="45.59416" lon="5.72747">
        <ele>551.7</ele>
        <time>2021-08-23T11:43:52Z</time>
      </trkpt>
      <trkpt lat="45.59414" lon="5.72747">
        <ele>551.8</ele>
        <time>2021-08-23T11:43:53Z</time>
      </trkpt>
      <trkpt lat="45.59413" lon="5.72748">
        <ele>551.8</ele>
        <time>2021-08-23T11:43:54Z</time>
      </trkpt>
      <trkpt lat="45.59412" lon="5.72748">
        <ele>551.9</ele>
        <time>2021-08-23T11:43:55Z</time>
      </trkpt>
      <trkpt lat="45.59411" lon="5.72748">
        <ele>551.9</ele>
        <time>2021-08-23T11:43:57Z</time>
      </trkpt>
      <trkpt lat="45.59409" lon="5.72748">
        <ele>552</ele>
        <time>2021-08-23T11:43:58Z</time>
      </trkpt>
      <trkpt lat="45.59408" lon="5.72748">
        <ele>552</ele>
        <time>2021-08-23T11:43:59Z</time>
      </trkpt>
      <trkpt lat="45.59407" lon="5.72748">
        <ele>552.1</ele>
        <time>2021-08-23T11:44:00Z</time>
      </trkpt>
      <trkpt lat="45.59406" lon="5.72749">
        <ele>552.1</ele>
        <time>2021-08-23T11:44:02Z</time>
      </trkpt>
      <trkpt lat="45.59405" lon="5.72749">
        <ele>552.1</ele>
        <time>2021-08-23T11:44:03Z</time>
      </trkpt>
      <trkpt lat="45.59403" lon="5.7275">
        <ele>552.2</ele>
        <time>2021-08-23T11:44:04Z</time>
      </trkpt>
      <trkpt lat="45.59402" lon="5.7275">
        <ele>552.3</ele>
        <time>2021-08-23T11:44:05Z</time>
      </trkpt>
      <trkpt lat="45.594" lon="5.7275">
        <ele>552.3</ele>
        <time>2021-08-23T11:44:07Z</time>
      </trkpt>
      <trkpt lat="45.59399" lon="5.7275">
        <ele>552.4</ele>
        <time>2021-08-23T11:44:08Z</time>
      </trkpt>
      <trkpt lat="45.59399" lon="5.72751">
        <ele>552.4</ele>
        <time>2021-08-23T11:44:09Z</time>
      </trkpt>
      <trkpt lat="45.59398" lon="5.72751">
        <ele>552.4</ele>
        <time>2021-08-23T11:44:10Z</time>
      </trkpt>
      <trkpt lat="45.59398" lon="5.72751">
        <ele>552.5</ele>
        <time>2021-08-23T11:44:11Z</time>
      </trkpt>
      <trkpt lat="45.59397" lon="5.72752">
        <ele>552.5</ele>
        <time>2021-08-23T11:44:12Z</time>
      </trkpt>
      <trkpt lat="45.59397" lon="5.72752">
        <ele>552.5</ele>
        <time>2021-08-23T11:44:13Z</time>
      </trkpt>
      <trkpt lat="45.59396" lon="5.72753">
        <ele>552.5</ele>
        <time>2021-08-23T11:44:15Z</time>
      </trkpt>
      <trkpt lat="45.59396" lon="5.72753">
        <ele>552.5</ele>
        <time>2021-08-23T11:44:16Z</time>
      </trkpt>
      <trkpt lat="45.59396" lon="5.72753">
        <ele>552.5</ele>
        <time>2021-08-23T11:44:17Z</time>
      </trkpt>
      <trkpt lat="45.59396" lon="5.72753">
        <ele>552.5</ele>
        <time>2021-08-23T11:44:18Z</time>
      </trkpt>
      <trkpt lat="45.59396" lon="5.72753">
        <ele>552.6</ele>
        <time>2021-08-23T11:44:19Z</time>
      </trkpt>
      <trkpt lat="45.59396" lon="5.72753">
        <ele>552.6</ele>
        <time>2021-08-23T11:44:22Z</time>
      </trkpt>
      <trkpt lat="45.59396" lon="5.72753">
        <ele>552.6</ele>
        <time>2021-08-23T11:44:23Z</time>
      </trkpt>
      <trkpt lat="45.59396" lon="5.72754">
        <ele>552.6</ele>
        <time>2021-08-23T11:44:24Z</time>
      </trkpt>
      <trkpt lat="45.59395" lon="5.72757">
        <ele>552.7</ele>
        <time>2021-08-23T11:44:26Z</time>
      </trkpt>
      <trkpt lat="45.59394" lon="5.72759">
        <ele>552.8</ele>
        <time>2021-08-23T11:44:28Z</time>
      </trkpt>
      <trkpt lat="45.59394" lon="5.72762">
        <ele>552.8</ele>
        <time>2021-08-23T11:44:30Z</time>
      </trkpt>
      <trkpt lat="45.59393" lon="5.72763">
        <ele>552.9</ele>
        <time>2021-08-23T11:44:32Z</time>
      </trkpt>
      <trkpt lat="45.59393" lon="5.72765">
        <ele>553</ele>
        <time>2021-08-23T11:44:34Z</time>
      </trkpt>
      <trkpt lat="45.59391" lon="5.72765">
        <ele>553</ele>
        <time>2021-08-23T11:44:36Z</time>
      </trkpt>
      <trkpt lat="45.59388" lon="5.72764">
        <ele>553.2</ele>
        <time>2021-08-23T11:44:37Z</time>
      </trkpt>
      <trkpt lat="45.59386" lon="5.72764">
        <ele>553.3</ele>
        <time>2021-08-23T11:44:39Z</time>
      </trkpt>
      <trkpt lat="45.59385" lon="5.72764">
        <ele>553.3</ele>
        <time>2021-08-23T11:44:40Z</time>
      </trkpt>
      <trkpt lat="45.59385" lon="5.72764">
        <ele>553.3</ele>
        <time>2021-08-23T11:44:41Z</time>
      </trkpt>
      <trkpt lat="45.59385" lon="5.72763">
        <ele>553.3</ele>
        <time>2021-08-23T11:44:43Z</time>
      </trkpt>
      <trkpt lat="45.59386" lon="5.72763">
        <ele>553.3</ele>
        <time>2021-08-23T11:44:44Z</time>
      </trkpt>
      <trkpt lat="45.59386" lon="5.72763">
        <ele>553.3</ele>
        <time>2021-08-23T11:44:46Z</time>
      </trkpt>
      <trkpt lat="45.59386" lon="5.72763">
        <ele>553.4</ele>
        <time>2021-08-23T11:44:47Z</time>
      </trkpt>
      <trkpt lat="45.59386" lon="5.72763">
        <ele>553.4</ele>
        <time>2021-08-23T11:44:48Z</time>
      </trkpt>
      <trkpt lat="45.59386" lon="5.72762">
        <ele>553.4</ele>
        <time>2021-08-23T11:44:50Z</time>
      </trkpt>
      <trkpt lat="45.59387" lon="5.72762">
        <ele>553.4</ele>
        <time>2021-08-23T11:44:52Z</time>
      </trkpt>
      <trkpt lat="45.59387" lon="5.72762">
        <ele>553.4</ele>
        <time>2021-08-23T11:44:54Z</time>
      </trkpt>
      <trkpt lat="45.59387" lon="5.72762">
        <ele>553.4</ele>
        <time>2021-08-23T11:44:55Z</time>
      </trkpt>
      <trkpt lat="45.59387" lon="5.72762">
        <ele>553.4</ele>
        <time>2021-08-23T11:44:57Z</time>
      </trkpt>
      <trkpt lat="45.59387" lon="5.72762">
        <ele>553.4</ele>
        <time>2021-08-23T11:44:58Z</time>
      </trkpt>
      <trkpt lat="45.59388" lon="5.72761">
        <ele>553.4</ele>
        <time>2021-08-23T11:45:00Z</time>
      </trkpt>
      <trkpt lat="45.59388" lon="5.72761">
        <ele>553.5</ele>
        <time>2021-08-23T11:45:02Z</time>
      </trkpt>
      <trkpt lat="45.59388" lon="5.72761">
        <ele>553.5</ele>
        <time>2021-08-23T11:45:04Z</time>
      </trkpt>
      <trkpt lat="45.59388" lon="5.72761">
        <ele>553.5</ele>
        <time>2021-08-23T11:45:05Z</time>
      </trkpt>
      <trkpt lat="45.59388" lon="5.72761">
        <ele>553.5</ele>
        <time>2021-08-23T11:45:06Z</time>
      </trkpt>
      <trkpt lat="45.59388" lon="5.7276">
        <ele>553.5</ele>
        <time>2021-08-23T11:45:08Z</time>
      </trkpt>
      <trkpt lat="45.59389" lon="5.7276">
        <ele>553.5</ele>
        <time>2021-08-23T11:45:10Z</time>
      </trkpt>
      <trkpt lat="45.59389" lon="5.7276">
        <ele>553.5</ele>
        <time>2021-08-23T11:45:11Z</time>
      </trkpt>
      <trkpt lat="45.59389" lon="5.7276">
        <ele>553.5</ele>
        <time>2021-08-23T11:45:13Z</time>
      </trkpt>
      <trkpt lat="45.59389" lon="5.7276">
        <ele>553.5</ele>
        <time>2021-08-23T11:45:14Z</time>
      </trkpt>
      <trkpt lat="45.59389" lon="5.7276">
        <ele>553.6</ele>
        <time>2021-08-23T11:45:16Z</time>
      </trkpt>
      <trkpt lat="45.5939" lon="5.72759">
        <ele>553.6</ele>
        <time>2021-08-23T11:45:17Z</time>
      </trkpt>
      <trkpt lat="45.5939" lon="5.72759">
        <ele>553.6</ele>
        <time>2021-08-23T11:45:19Z</time>
      </trkpt>
      <trkpt lat="45.5939" lon="5.72759">
        <ele>553.6</ele>
        <time>2021-08-23T11:45:20Z</time>
      </trkpt>
      <trkpt lat="45.5939" lon="5.72757">
        <ele>553.7</ele>
        <time>2021-08-23T11:45:22Z</time>
      </trkpt>
      <trkpt lat="45.59389" lon="5.72755">
        <ele>553.8</ele>
        <time>2021-08-23T11:45:24Z</time>
      </trkpt>
      <trkpt lat="45.59388" lon="5.72754">
        <ele>553.8</ele>
        <time>2021-08-23T11:45:25Z</time>
      </trkpt>
      <trkpt lat="45.59388" lon="5.72753">
        <ele>553.8</ele>
        <time>2021-08-23T11:45:26Z</time>
      </trkpt>
      <trkpt lat="45.59388" lon="5.72752">
        <ele>553.9</ele>
        <time>2021-08-23T11:45:28Z</time>
      </trkpt>
      <trkpt lat="45.59387" lon="5.72752">
        <ele>553.9</ele>
        <time>2021-08-23T11:45:29Z</time>
      </trkpt>
      <trkpt lat="45.59387" lon="5.72752">
        <ele>553.9</ele>
        <time>2021-08-23T11:45:30Z</time>
      </trkpt>
      <trkpt lat="45.59387" lon="5.72751">
        <ele>553.9</ele>
        <time>2021-08-23T11:45:32Z</time>
      </trkpt>
      <trkpt lat="45.59387" lon="5.72751">
        <ele>553.9</ele>
        <time>2021-08-23T11:45:34Z</time>
      </trkpt>
      <trkpt lat="45.59387" lon="5.72751">
        <ele>553.9</ele>
        <time>2021-08-23T11:45:35Z</time>
      </trkpt>
      <trkpt lat="45.59387" lon="5.72751">
        <ele>553.9</ele>
        <time>2021-08-23T11:45:36Z</time>
      </trkpt>
      <trkpt lat="45.59387" lon="5.72751">
        <ele>553.9</ele>
        <time>2021-08-23T11:45:37Z</time>
      </trkpt>
      <trkpt lat="45.59387" lon="5.72751">
        <ele>553.9</ele>
        <time>2021-08-23T11:45:39Z</time>
      </trkpt>
      <trkpt lat="45.59387" lon="5.72751">
        <ele>553.9</ele>
        <time>2021-08-23T11:45:41Z</time>
      </trkpt>
      <trkpt lat="45.59387" lon="5.72751">
        <ele>553.9</ele>
        <time>2021-08-23T11:45:42Z</time>
      </trkpt>
      <trkpt lat="45.59387" lon="5.72751">
        <ele>553.9</ele>
        <time>2021-08-23T11:45:44Z</time>
      </trkpt>
      <trkpt lat="45.59384" lon="5.72753">
        <ele>554.1</ele>
        <time>2021-08-23T11:45:46Z</time>
      </trkpt>
      <trkpt lat="45.5938" lon="5.72755">
        <ele>554.3</ele>
        <time>2021-08-23T11:45:47Z</time>
      </trkpt>
      <trkpt lat="45.59378" lon="5.72757">
        <ele>554.4</ele>
        <time>2021-08-23T11:45:49Z</time>
      </trkpt>
      <trkpt lat="45.59379" lon="5.72757">
        <ele>554.4</ele>
        <time>2021-08-23T11:45:50Z</time>
      </trkpt>
      <trkpt lat="45.5938" lon="5.72756">
        <ele>554.5</ele>
        <time>2021-08-23T11:45:52Z</time>
      </trkpt>
      <trkpt lat="45.59379" lon="5.72757">
        <ele>554.5</ele>
        <time>2021-08-23T11:45:53Z</time>
      </trkpt>
      <trkpt lat="45.59379" lon="5.72758">
        <ele>554.5</ele>
        <time>2021-08-23T11:45:54Z</time>
      </trkpt>
      <trkpt lat="45.59378" lon="5.7276">
        <ele>554.6</ele>
        <time>2021-08-23T11:45:56Z</time>
      </trkpt>
      <trkpt lat="45.59378" lon="5.72766">
        <ele>554.8</ele>
        <time>2021-08-23T11:45:58Z</time>
      </trkpt>
      <trkpt lat="45.59379" lon="5.72768">
        <ele>554.8</ele>
        <time>2021-08-23T11:45:59Z</time>
      </trkpt>
      <trkpt lat="45.59379" lon="5.7277">
        <ele>554.9</ele>
        <time>2021-08-23T11:46:00Z</time>
      </trkpt>
      <trkpt lat="45.59379" lon="5.72772">
        <ele>554.9</ele>
        <time>2021-08-23T11:46:01Z</time>
      </trkpt>
      <trkpt lat="45.59379" lon="5.72773">
        <ele>554.9</ele>
        <time>2021-08-23T11:46:02Z</time>
      </trkpt>
      <trkpt lat="45.59378" lon="5.72774">
        <ele>555</ele>
        <time>2021-08-23T11:46:04Z</time>
      </trkpt>
      <trkpt lat="45.59378" lon="5.72775">
        <ele>555</ele>
        <time>2021-08-23T11:46:05Z</time>
      </trkpt>
      <trkpt lat="45.59378" lon="5.72776">
        <ele>555</ele>
        <time>2021-08-23T11:46:06Z</time>
      </trkpt>
      <trkpt lat="45.59378" lon="5.72776">
        <ele>555.1</ele>
        <time>2021-08-23T11:46:07Z</time>
      </trkpt>
      <trkpt lat="45.59378" lon="5.72777">
        <ele>555.1</ele>
        <time>2021-08-23T11:46:08Z</time>
      </trkpt>
      <trkpt lat="45.59379" lon="5.7278">
        <ele>555.2</ele>
        <time>2021-08-23T11:46:10Z</time>
      </trkpt>
      <trkpt lat="45.5938" lon="5.72784">
        <ele>555.3</ele>
        <time>2021-08-23T11:46:11Z</time>
      </trkpt>
      <trkpt lat="45.59381" lon="5.72786">
        <ele>555.3</ele>
        <time>2021-08-23T11:46:12Z</time>
      </trkpt>
      <trkpt lat="45.59383" lon="5.7279">
        <ele>555.5</ele>
        <time>2021-08-23T11:46:14Z</time>
      </trkpt>
      <trkpt lat="45.59385" lon="5.72795">
        <ele>555.7</ele>
        <time>2021-08-23T11:46:15Z</time>
      </trkpt>
      <trkpt lat="45.59387" lon="5.728">
        <ele>555.8</ele>
        <time>2021-08-23T11:46:17Z</time>
      </trkpt>
      <trkpt lat="45.59389" lon="5.72803">
        <ele>556</ele>
        <time>2021-08-23T11:46:18Z</time>
      </trkpt>
      <trkpt lat="45.59391" lon="5.72809">
        <ele>556.2</ele>
        <time>2021-08-23T11:46:20Z</time>
      </trkpt>
      <trkpt lat="45.59391" lon="5.72811">
        <ele>556.2</ele>
        <time>2021-08-23T11:46:22Z</time>
      </trkpt>
      <trkpt lat="45.59391" lon="5.72813">
        <ele>556.3</ele>
        <time>2021-08-23T11:46:23Z</time>
      </trkpt>
      <trkpt lat="45.59391" lon="5.72818">
        <ele>556.5</ele>
        <time>2021-08-23T11:46:24Z</time>
      </trkpt>
      <trkpt lat="45.5939" lon="5.7282">
        <ele>556.5</ele>
        <time>2021-08-23T11:46:25Z</time>
      </trkpt>
      <trkpt lat="45.59389" lon="5.72824">
        <ele>556.7</ele>
        <time>2021-08-23T11:46:27Z</time>
      </trkpt>
      <trkpt lat="45.59388" lon="5.72825">
        <ele>556.8</ele>
        <time>2021-08-23T11:46:28Z</time>
      </trkpt>
      <trkpt lat="45.59386" lon="5.72829">
        <ele>557.1</ele>
        <time>2021-08-23T11:46:29Z</time>
      </trkpt>
      <trkpt lat="45.59385" lon="5.72835">
        <ele>557.4</ele>
        <time>2021-08-23T11:46:31Z</time>
      </trkpt>
      <trkpt lat="45.59385" lon="5.72839">
        <ele>557.7</ele>
        <time>2021-08-23T11:46:32Z</time>
      </trkpt>
      <trkpt lat="45.59384" lon="5.72844">
        <ele>558</ele>
        <time>2021-08-23T11:46:34Z</time>
      </trkpt>
      <trkpt lat="45.59384" lon="5.72846">
        <ele>558.1</ele>
        <time>2021-08-23T11:46:35Z</time>
      </trkpt>
      <trkpt lat="45.59385" lon="5.72848">
        <ele>558.2</ele>
        <time>2021-08-23T11:46:36Z</time>
      </trkpt>
      <trkpt lat="45.59384" lon="5.72855">
        <ele>558.6</ele>
        <time>2021-08-23T11:46:38Z</time>
      </trkpt>
      <trkpt lat="45.59384" lon="5.72857">
        <ele>558.7</ele>
        <time>2021-08-23T11:46:39Z</time>
      </trkpt>
      <trkpt lat="45.59383" lon="5.72859">
        <ele>558.8</ele>
        <time>2021-08-23T11:46:40Z</time>
      </trkpt>
      <trkpt lat="45.59381" lon="5.72862">
        <ele>559.1</ele>
        <time>2021-08-23T11:46:42Z</time>
      </trkpt>
      <trkpt lat="45.59381" lon="5.72866">
        <ele>559.3</ele>
        <time>2021-08-23T11:46:43Z</time>
      </trkpt>
      <trkpt lat="45.59381" lon="5.72867">
        <ele>559.3</ele>
        <time>2021-08-23T11:46:45Z</time>
      </trkpt>
      <trkpt lat="45.59381" lon="5.72868">
        <ele>559.4</ele>
        <time>2021-08-23T11:46:46Z</time>
      </trkpt>
      <trkpt lat="45.59381" lon="5.7287">
        <ele>559.5</ele>
        <time>2021-08-23T11:46:47Z</time>
      </trkpt>
      <trkpt lat="45.5938" lon="5.72873">
        <ele>559.6</ele>
        <time>2021-08-23T11:46:49Z</time>
      </trkpt>
      <trkpt lat="45.59379" lon="5.72876">
        <ele>559.8</ele>
        <time>2021-08-23T11:46:50Z</time>
      </trkpt>
      <trkpt lat="45.59377" lon="5.72878">
        <ele>560</ele>
        <time>2021-08-23T11:46:52Z</time>
      </trkpt>
      <trkpt lat="45.59376" lon="5.72882">
        <ele>560.2</ele>
        <time>2021-08-23T11:46:53Z</time>
      </trkpt>
      <trkpt lat="45.59376" lon="5.72885">
        <ele>560.4</ele>
        <time>2021-08-23T11:46:54Z</time>
      </trkpt>
      <trkpt lat="45.59374" lon="5.72889">
        <ele>560.6</ele>
        <time>2021-08-23T11:46:56Z</time>
      </trkpt>
      <trkpt lat="45.59373" lon="5.72893">
        <ele>560.8</ele>
        <time>2021-08-23T11:46:57Z</time>
      </trkpt>
      <trkpt lat="45.59372" lon="5.72894">
        <ele>560.9</ele>
        <time>2021-08-23T11:46:58Z</time>
      </trkpt>
      <trkpt lat="45.59372" lon="5.72899">
        <ele>561.1</ele>
        <time>2021-08-23T11:46:59Z</time>
      </trkpt>
      <trkpt lat="45.59372" lon="5.729">
        <ele>561.2</ele>
        <time>2021-08-23T11:47:00Z</time>
      </trkpt>
      <trkpt lat="45.59372" lon="5.72903">
        <ele>561.3</ele>
        <time>2021-08-23T11:47:02Z</time>
      </trkpt>
      <trkpt lat="45.59372" lon="5.72904">
        <ele>561.4</ele>
        <time>2021-08-23T11:47:03Z</time>
      </trkpt>
      <trkpt lat="45.59372" lon="5.72909">
        <ele>561.7</ele>
        <time>2021-08-23T11:47:04Z</time>
      </trkpt>
      <trkpt lat="45.59372" lon="5.7291">
        <ele>561.7</ele>
        <time>2021-08-23T11:47:05Z</time>
      </trkpt>
      <trkpt lat="45.59372" lon="5.72917">
        <ele>562.1</ele>
        <time>2021-08-23T11:47:07Z</time>
      </trkpt>
      <trkpt lat="45.59371" lon="5.7292">
        <ele>562.2</ele>
        <time>2021-08-23T11:47:09Z</time>
      </trkpt>
      <trkpt lat="45.59371" lon="5.72923">
        <ele>562.4</ele>
        <time>2021-08-23T11:47:10Z</time>
      </trkpt>
      <trkpt lat="45.59371" lon="5.72926">
        <ele>562.5</ele>
        <time>2021-08-23T11:47:11Z</time>
      </trkpt>
      <trkpt lat="45.59371" lon="5.7293">
        <ele>562.8</ele>
        <time>2021-08-23T11:47:13Z</time>
      </trkpt>
      <trkpt lat="45.5937" lon="5.72933">
        <ele>562.9</ele>
        <time>2021-08-23T11:47:15Z</time>
      </trkpt>
      <trkpt lat="45.59369" lon="5.72937">
        <ele>563.2</ele>
        <time>2021-08-23T11:47:17Z</time>
      </trkpt>
      <trkpt lat="45.59369" lon="5.72939">
        <ele>563.3</ele>
        <time>2021-08-23T11:47:19Z</time>
      </trkpt>
      <trkpt lat="45.59369" lon="5.72939">
        <ele>563.3</ele>
        <time>2021-08-23T11:47:20Z</time>
      </trkpt>
      <trkpt lat="45.59368" lon="5.72941">
        <ele>563.4</ele>
        <time>2021-08-23T11:47:21Z</time>
      </trkpt>
      <trkpt lat="45.59367" lon="5.72946">
        <ele>563.6</ele>
        <time>2021-08-23T11:47:23Z</time>
      </trkpt>
      <trkpt lat="45.59366" lon="5.7295">
        <ele>563.9</ele>
        <time>2021-08-23T11:47:25Z</time>
      </trkpt>
      <trkpt lat="45.59365" lon="5.72955">
        <ele>564.1</ele>
        <time>2021-08-23T11:47:26Z</time>
      </trkpt>
      <trkpt lat="45.59363" lon="5.72962">
        <ele>564.5</ele>
        <time>2021-08-23T11:47:28Z</time>
      </trkpt>
      <trkpt lat="45.59361" lon="5.72971">
        <ele>565</ele>
        <time>2021-08-23T11:47:30Z</time>
      </trkpt>
      <trkpt lat="45.59361" lon="5.72976">
        <ele>565.2</ele>
        <time>2021-08-23T11:47:31Z</time>
      </trkpt>
      <trkpt lat="45.5936" lon="5.72978">
        <ele>565.3</ele>
        <time>2021-08-23T11:47:32Z</time>
      </trkpt>
      <trkpt lat="45.5936" lon="5.72977">
        <ele>565.4</ele>
        <time>2021-08-23T11:47:34Z</time>
      </trkpt>
      <trkpt lat="45.59359" lon="5.72975">
        <ele>565.5</ele>
        <time>2021-08-23T11:47:35Z</time>
      </trkpt>
      <trkpt lat="45.59359" lon="5.72975">
        <ele>565.5</ele>
        <time>2021-08-23T11:47:36Z</time>
      </trkpt>
      <trkpt lat="45.59358" lon="5.72977">
        <ele>565.6</ele>
        <time>2021-08-23T11:47:37Z</time>
      </trkpt>
      <trkpt lat="45.59357" lon="5.7298">
        <ele>565.8</ele>
        <time>2021-08-23T11:47:39Z</time>
      </trkpt>
      <trkpt lat="45.59357" lon="5.72982">
        <ele>565.9</ele>
        <time>2021-08-23T11:47:40Z</time>
      </trkpt>
      <trkpt lat="45.59357" lon="5.72984">
        <ele>565.9</ele>
        <time>2021-08-23T11:47:42Z</time>
      </trkpt>
      <trkpt lat="45.59357" lon="5.72986">
        <ele>566</ele>
        <time>2021-08-23T11:47:44Z</time>
      </trkpt>
      <trkpt lat="45.59357" lon="5.72987">
        <ele>566.1</ele>
        <time>2021-08-23T11:47:45Z</time>
      </trkpt>
      <trkpt lat="45.59357" lon="5.72989">
        <ele>566.2</ele>
        <time>2021-08-23T11:47:46Z</time>
      </trkpt>
      <trkpt lat="45.59356" lon="5.72995">
        <ele>566.5</ele>
        <time>2021-08-23T11:47:48Z</time>
      </trkpt>
      <trkpt lat="45.59355" lon="5.73">
        <ele>566.8</ele>
        <time>2021-08-23T11:47:49Z</time>
      </trkpt>
      <trkpt lat="45.59355" lon="5.73004">
        <ele>567</ele>
        <time>2021-08-23T11:47:50Z</time>
      </trkpt>
      <trkpt lat="45.59356" lon="5.73008">
        <ele>567.2</ele>
        <time>2021-08-23T11:47:52Z</time>
      </trkpt>
      <trkpt lat="45.59357" lon="5.73014">
        <ele>567.5</ele>
        <time>2021-08-23T11:47:53Z</time>
      </trkpt>
      <trkpt lat="45.59357" lon="5.7302">
        <ele>567.8</ele>
        <time>2021-08-23T11:47:55Z</time>
      </trkpt>
      <trkpt lat="45.59358" lon="5.73025">
        <ele>568.1</ele>
        <time>2021-08-23T11:47:56Z</time>
      </trkpt>
      <trkpt lat="45.59359" lon="5.7303">
        <ele>568.4</ele>
        <time>2021-08-23T11:47:57Z</time>
      </trkpt>
      <trkpt lat="45.5936" lon="5.73031">
        <ele>568.5</ele>
        <time>2021-08-23T11:47:58Z</time>
      </trkpt>
      <trkpt lat="45.5936" lon="5.73036">
        <ele>568.8</ele>
        <time>2021-08-23T11:48:00Z</time>
      </trkpt>
      <trkpt lat="45.59359" lon="5.73041">
        <ele>569.1</ele>
        <time>2021-08-23T11:48:02Z</time>
      </trkpt>
      <trkpt lat="45.59359" lon="5.73043">
        <ele>569.2</ele>
        <time>2021-08-23T11:48:03Z</time>
      </trkpt>
      <trkpt lat="45.59359" lon="5.73046">
        <ele>569.4</ele>
        <time>2021-08-23T11:48:04Z</time>
      </trkpt>
      <trkpt lat="45.5936" lon="5.73047">
        <ele>569.4</ele>
        <time>2021-08-23T11:48:05Z</time>
      </trkpt>
      <trkpt lat="45.5936" lon="5.73049">
        <ele>569.5</ele>
        <time>2021-08-23T11:48:06Z</time>
      </trkpt>
      <trkpt lat="45.5936" lon="5.73052">
        <ele>569.7</ele>
        <time>2021-08-23T11:48:08Z</time>
      </trkpt>
      <trkpt lat="45.59347" lon="5.73063">
        <ele>570.8</ele>
        <time>2021-08-23T11:48:43Z</time>
      </trkpt>
      <trkpt lat="45.59343" lon="5.73058">
        <ele>571.3</ele>
        <time>2021-08-23T11:48:45Z</time>
      </trkpt>
      <trkpt lat="45.59342" lon="5.73057">
        <ele>571.5</ele>
        <time>2021-08-23T11:48:46Z</time>
      </trkpt>
      <trkpt lat="45.5934" lon="5.73057">
        <ele>571.6</ele>
        <time>2021-08-23T11:48:48Z</time>
      </trkpt>
      <trkpt lat="45.59339" lon="5.73057">
        <ele>571.7</ele>
        <time>2021-08-23T11:48:49Z</time>
      </trkpt>
      <trkpt lat="45.59337" lon="5.7306">
        <ele>572</ele>
        <time>2021-08-23T11:48:50Z</time>
      </trkpt>
      <trkpt lat="45.59337" lon="5.73061">
        <ele>572.2</ele>
        <time>2021-08-23T11:48:51Z</time>
      </trkpt>
      <trkpt lat="45.59336" lon="5.73063">
        <ele>572.4</ele>
        <time>2021-08-23T11:48:52Z</time>
      </trkpt>
      <trkpt lat="45.59334" lon="5.73068">
        <ele>572.8</ele>
        <time>2021-08-23T11:48:54Z</time>
      </trkpt>
      <trkpt lat="45.59333" lon="5.73073">
        <ele>573.4</ele>
        <time>2021-08-23T11:48:55Z</time>
      </trkpt>
      <trkpt lat="45.59331" lon="5.73078">
        <ele>574</ele>
        <time>2021-08-23T11:48:56Z</time>
      </trkpt>
      <trkpt lat="45.5933" lon="5.73082">
        <ele>574.4</ele>
        <time>2021-08-23T11:48:57Z</time>
      </trkpt>
      <trkpt lat="45.59328" lon="5.73085">
        <ele>574.9</ele>
        <time>2021-08-23T11:48:59Z</time>
      </trkpt>
      <trkpt lat="45.59325" lon="5.73088">
        <ele>575.3</ele>
        <time>2021-08-23T11:49:00Z</time>
      </trkpt>
      <trkpt lat="45.59324" lon="5.7309">
        <ele>575.6</ele>
        <time>2021-08-23T11:49:01Z</time>
      </trkpt>
      <trkpt lat="45.59322" lon="5.73092">
        <ele>576</ele>
        <time>2021-08-23T11:49:03Z</time>
      </trkpt>
      <trkpt lat="45.59321" lon="5.73093">
        <ele>576.1</ele>
        <time>2021-08-23T11:49:04Z</time>
      </trkpt>
      <trkpt lat="45.59321" lon="5.73093">
        <ele>576.2</ele>
        <time>2021-08-23T11:49:06Z</time>
      </trkpt>
      <trkpt lat="45.59126" lon="5.72983">
        <ele>585.4</ele>
        <time>2021-08-23T11:51:31Z</time>
      </trkpt>
      <trkpt lat="45.59123" lon="5.72981">
        <ele>585.6</ele>
        <time>2021-08-23T11:51:32Z</time>
      </trkpt>
      <trkpt lat="45.59119" lon="5.72978">
        <ele>586</ele>
        <time>2021-08-23T11:51:34Z</time>
      </trkpt>
      <trkpt lat="45.59116" lon="5.72978">
        <ele>586.3</ele>
        <time>2021-08-23T11:51:35Z</time>
      </trkpt>
      <trkpt lat="45.59113" lon="5.72977">
        <ele>586.7</ele>
        <time>2021-08-23T11:51:36Z</time>
      </trkpt>
      <trkpt lat="45.59109" lon="5.72976">
        <ele>587.1</ele>
        <time>2021-08-23T11:51:38Z</time>
      </trkpt>
      <trkpt lat="45.59107" lon="5.72976">
        <ele>587.4</ele>
        <time>2021-08-23T11:51:39Z</time>
      </trkpt>
      <trkpt lat="45.59106" lon="5.72976">
        <ele>587.5</ele>
        <time>2021-08-23T11:51:40Z</time>
      </trkpt>
      <trkpt lat="45.59097" lon="5.72982">
        <ele>588.6</ele>
        <time>2021-08-23T11:51:42Z</time>
      </trkpt>
      <trkpt lat="45.59086" lon="5.72989">
        <ele>590</ele>
        <time>2021-08-23T11:51:43Z</time>
      </trkpt>
      <trkpt lat="45.59079" lon="5.72993">
        <ele>590.7</ele>
        <time>2021-08-23T11:51:44Z</time>
      </trkpt>
      <trkpt lat="45.59076" lon="5.72994">
        <ele>591</ele>
        <time>2021-08-23T11:51:45Z</time>
      </trkpt>
      <trkpt lat="45.59075" lon="5.72994">
        <ele>591.1</ele>
        <time>2021-08-23T11:51:46Z</time>
      </trkpt>
      <trkpt lat="45.59073" lon="5.72994">
        <ele>591.2</ele>
        <time>2021-08-23T11:51:48Z</time>
      </trkpt>
      <trkpt lat="45.59072" lon="5.72995">
        <ele>591.3</ele>
        <time>2021-08-23T11:51:49Z</time>
      </trkpt>
      <trkpt lat="45.59071" lon="5.72997">
        <ele>591.5</ele>
        <time>2021-08-23T11:51:51Z</time>
      </trkpt>
      <trkpt lat="45.59068" lon="5.72999">
        <ele>591.7</ele>
        <time>2021-08-23T11:51:52Z</time>
      </trkpt>
      <trkpt lat="45.59064" lon="5.73001">
        <ele>592.1</ele>
        <time>2021-08-23T11:51:54Z</time>
      </trkpt>
      <trkpt lat="45.59062" lon="5.73003">
        <ele>592.4</ele>
        <time>2021-08-23T11:51:55Z</time>
      </trkpt>
      <trkpt lat="45.59058" lon="5.73006">
        <ele>592.7</ele>
        <time>2021-08-23T11:51:57Z</time>
      </trkpt>
      <trkpt lat="45.59055" lon="5.73008">
        <ele>592.9</ele>
        <time>2021-08-23T11:51:58Z</time>
      </trkpt>
      <trkpt lat="45.59054" lon="5.73009">
        <ele>593.1</ele>
        <time>2021-08-23T11:51:59Z</time>
      </trkpt>
      <trkpt lat="45.59052" lon="5.7301">
        <ele>593.3</ele>
        <time>2021-08-23T11:52:00Z</time>
      </trkpt>
      <trkpt lat="45.59049" lon="5.73012">
        <ele>593.5</ele>
        <time>2021-08-23T11:52:02Z</time>
      </trkpt>
      <trkpt lat="45.59046" lon="5.73016">
        <ele>593.8</ele>
        <time>2021-08-23T11:52:04Z</time>
      </trkpt>
      <trkpt lat="45.59042" lon="5.73019">
        <ele>594.1</ele>
        <time>2021-08-23T11:52:06Z</time>
      </trkpt>
      <trkpt lat="45.59038" lon="5.73025">
        <ele>594.5</ele>
        <time>2021-08-23T11:52:07Z</time>
      </trkpt>
      <trkpt lat="45.59037" lon="5.73027">
        <ele>594.5</ele>
        <time>2021-08-23T11:52:09Z</time>
      </trkpt>
      <trkpt lat="45.59037" lon="5.73028">
        <ele>594.6</ele>
        <time>2021-08-23T11:52:10Z</time>
      </trkpt>
      <trkpt lat="45.59036" lon="5.7303">
        <ele>594.7</ele>
        <time>2021-08-23T11:52:12Z</time>
      </trkpt>
      <trkpt lat="45.59036" lon="5.73031">
        <ele>594.8</ele>
        <time>2021-08-23T11:52:13Z</time>
      </trkpt>
      <trkpt lat="45.59035" lon="5.73032">
        <ele>594.8</ele>
        <time>2021-08-23T11:52:14Z</time>
      </trkpt>
      <trkpt lat="45.59035" lon="5.73033">
        <ele>594.8</ele>
        <time>2021-08-23T11:52:15Z</time>
      </trkpt>
      <trkpt lat="45.59035" lon="5.73035">
        <ele>594.9</ele>
        <time>2021-08-23T11:52:17Z</time>
      </trkpt>
      <trkpt lat="45.59033" lon="5.73042">
        <ele>595.2</ele>
        <time>2021-08-23T11:52:18Z</time>
      </trkpt>
      <trkpt lat="45.59033" lon="5.73043">
        <ele>595.2</ele>
        <time>2021-08-23T11:52:20Z</time>
      </trkpt>
      <trkpt lat="45.59033" lon="5.73044">
        <ele>595.3</ele>
        <time>2021-08-23T11:52:22Z</time>
      </trkpt>
      <trkpt lat="45.59033" lon="5.73045">
        <ele>595.3</ele>
        <time>2021-08-23T11:52:23Z</time>
      </trkpt>
      <trkpt lat="45.59033" lon="5.73045">
        <ele>595.3</ele>
        <time>2021-08-23T11:52:24Z</time>
      </trkpt>
      <trkpt lat="45.59031" lon="5.73048">
        <ele>595.5</ele>
        <time>2021-08-23T11:52:30Z</time>
      </trkpt>
      <trkpt lat="45.59031" lon="5.73049">
        <ele>595.5</ele>
        <time>2021-08-23T11:52:31Z</time>
      </trkpt>
      <trkpt lat="45.59031" lon="5.7305">
        <ele>595.5</ele>
        <time>2021-08-23T11:52:32Z</time>
      </trkpt>
      <trkpt lat="45.59031" lon="5.73051">
        <ele>595.6</ele>
        <time>2021-08-23T11:52:34Z</time>
      </trkpt>
      <trkpt lat="45.5903" lon="5.73052">
        <ele>595.6</ele>
        <time>2021-08-23T11:52:35Z</time>
      </trkpt>
      <trkpt lat="45.59029" lon="5.73053">
        <ele>595.7</ele>
        <time>2021-08-23T11:52:37Z</time>
      </trkpt>
      <trkpt lat="45.59028" lon="5.73054">
        <ele>595.8</ele>
        <time>2021-08-23T11:52:38Z</time>
      </trkpt>
      <trkpt lat="45.59026" lon="5.73055">
        <ele>595.9</ele>
        <time>2021-08-23T11:52:40Z</time>
      </trkpt>
      <trkpt lat="45.59026" lon="5.73056">
        <ele>595.9</ele>
        <time>2021-08-23T11:52:41Z</time>
      </trkpt>
      <trkpt lat="45.59025" lon="5.73057">
        <ele>596</ele>
        <time>2021-08-23T11:52:42Z</time>
      </trkpt>
      <trkpt lat="45.59025" lon="5.73058">
        <ele>596</ele>
        <time>2021-08-23T11:52:44Z</time>
      </trkpt>
      <trkpt lat="45.59024" lon="5.73059">
        <ele>596.1</ele>
        <time>2021-08-23T11:52:45Z</time>
      </trkpt>
      <trkpt lat="45.59023" lon="5.7306">
        <ele>596.2</ele>
        <time>2021-08-23T11:52:46Z</time>
      </trkpt>
      <trkpt lat="45.59022" lon="5.73059">
        <ele>596.2</ele>
        <time>2021-08-23T11:52:48Z</time>
      </trkpt>
      <trkpt lat="45.59021" lon="5.73058">
        <ele>596.3</ele>
        <time>2021-08-23T11:52:49Z</time>
      </trkpt>
      <trkpt lat="45.5902" lon="5.73058">
        <ele>596.4</ele>
        <time>2021-08-23T11:52:50Z</time>
      </trkpt>
      <trkpt lat="45.59017" lon="5.73052">
        <ele>596.8</ele>
        <time>2021-08-23T11:52:52Z</time>
      </trkpt>
      <trkpt lat="45.59014" lon="5.73044">
        <ele>597.4</ele>
        <time>2021-08-23T11:52:54Z</time>
      </trkpt>
      <trkpt lat="45.59014" lon="5.73039">
        <ele>597.7</ele>
        <time>2021-08-23T11:52:56Z</time>
      </trkpt>
      <trkpt lat="45.59015" lon="5.73039">
        <ele>597.9</ele>
        <time>2021-08-23T11:52:57Z</time>
      </trkpt>
      <trkpt lat="45.59016" lon="5.7304">
        <ele>597.9</ele>
        <time>2021-08-23T11:52:58Z</time>
      </trkpt>
      <trkpt lat="45.59017" lon="5.7304">
        <ele>598</ele>
        <time>2021-08-23T11:53:00Z</time>
      </trkpt>
      <trkpt lat="45.59017" lon="5.7304">
        <ele>598.1</ele>
        <time>2021-08-23T11:53:02Z</time>
      </trkpt>
      <trkpt lat="45.59017" lon="5.7304">
        <ele>598.1</ele>
        <time>2021-08-23T11:53:03Z</time>
      </trkpt>
      <trkpt lat="45.59017" lon="5.7304">
        <ele>598.1</ele>
        <time>2021-08-23T11:53:04Z</time>
      </trkpt>
      <trkpt lat="45.59017" lon="5.73041">
        <ele>598.1</ele>
        <time>2021-08-23T11:53:06Z</time>
      </trkpt>
      <trkpt lat="45.59015" lon="5.73043">
        <ele>598.4</ele>
        <time>2021-08-23T11:53:08Z</time>
      </trkpt>
      <trkpt lat="45.59015" lon="5.73045">
        <ele>598.5</ele>
        <time>2021-08-23T11:53:09Z</time>
      </trkpt>
      <trkpt lat="45.59012" lon="5.73049">
        <ele>599.1</ele>
        <time>2021-08-23T11:53:11Z</time>
      </trkpt>
      <trkpt lat="45.59009" lon="5.73054">
        <ele>599.6</ele>
        <time>2021-08-23T11:53:13Z</time>
      </trkpt>
      <trkpt lat="45.59007" lon="5.73057">
        <ele>600</ele>
        <time>2021-08-23T11:53:14Z</time>
      </trkpt>
      <trkpt lat="45.59005" lon="5.7306">
        <ele>600.3</ele>
        <time>2021-08-23T11:53:15Z</time>
      </trkpt>
      <trkpt lat="45.59003" lon="5.73065">
        <ele>600.8</ele>
        <time>2021-08-23T11:53:17Z</time>
      </trkpt>
      <trkpt lat="45.59002" lon="5.73067">
        <ele>601</ele>
        <time>2021-08-23T11:53:18Z</time>
      </trkpt>
      <trkpt lat="45.59002" lon="5.73073">
        <ele>601.5</ele>
        <time>2021-08-23T11:53:19Z</time>
      </trkpt>
      <trkpt lat="45.59002" lon="5.73083">
        <ele>602.3</ele>
        <time>2021-08-23T11:53:21Z</time>
      </trkpt>
      <trkpt lat="45.59003" lon="5.73092">
        <ele>603.1</ele>
        <time>2021-08-23T11:53:22Z</time>
      </trkpt>
      <trkpt lat="45.59002" lon="5.73098">
        <ele>603.6</ele>
        <time>2021-08-23T11:53:23Z</time>
      </trkpt>
      <trkpt lat="45.59002" lon="5.73104">
        <ele>604.1</ele>
        <time>2021-08-23T11:53:25Z</time>
      </trkpt>
      <trkpt lat="45.59001" lon="5.73106">
        <ele>604.2</ele>
        <time>2021-08-23T11:53:26Z</time>
      </trkpt>
      <trkpt lat="45.59" lon="5.73107">
        <ele>604.4</ele>
        <time>2021-08-23T11:53:27Z</time>
      </trkpt>
      <trkpt lat="45.58998" lon="5.73109">
        <ele>604.7</ele>
        <time>2021-08-23T11:53:28Z</time>
      </trkpt>
      <trkpt lat="45.58997" lon="5.73111">
        <ele>604.8</ele>
        <time>2021-08-23T11:53:30Z</time>
      </trkpt>
      <trkpt lat="45.58996" lon="5.73112">
        <ele>605</ele>
        <time>2021-08-23T11:53:31Z</time>
      </trkpt>
      <trkpt lat="45.58995" lon="5.73113">
        <ele>605.1</ele>
        <time>2021-08-23T11:53:32Z</time>
      </trkpt>
      <trkpt lat="45.58994" lon="5.73114">
        <ele>605.2</ele>
        <time>2021-08-23T11:53:33Z</time>
      </trkpt>
      <trkpt lat="45.58993" lon="5.73116">
        <ele>605.4</ele>
        <time>2021-08-23T11:53:34Z</time>
      </trkpt>
      <trkpt lat="45.58992" lon="5.7312">
        <ele>605.7</ele>
        <time>2021-08-23T11:53:36Z</time>
      </trkpt>
      <trkpt lat="45.58991" lon="5.73122">
        <ele>605.9</ele>
        <time>2021-08-23T11:53:37Z</time>
      </trkpt>
      <trkpt lat="45.5899" lon="5.73125">
        <ele>606.1</ele>
        <time>2021-08-23T11:53:39Z</time>
      </trkpt>
      <trkpt lat="45.58989" lon="5.73126">
        <ele>606.2</ele>
        <time>2021-08-23T11:53:40Z</time>
      </trkpt>
      <trkpt lat="45.58989" lon="5.73127">
        <ele>606.3</ele>
        <time>2021-08-23T11:53:41Z</time>
      </trkpt>
      <trkpt lat="45.58989" lon="5.73127">
        <ele>606.3</ele>
        <time>2021-08-23T11:53:42Z</time>
      </trkpt>
      <trkpt lat="45.58989" lon="5.73128">
        <ele>606.3</ele>
        <time>2021-08-23T11:53:44Z</time>
      </trkpt>
      <trkpt lat="45.58989" lon="5.73128">
        <ele>606.3</ele>
        <time>2021-08-23T11:53:45Z</time>
      </trkpt>
      <trkpt lat="45.58988" lon="5.73128">
        <ele>606.4</ele>
        <time>2021-08-23T11:53:46Z</time>
      </trkpt>
      <trkpt lat="45.58988" lon="5.73128">
        <ele>606.4</ele>
        <time>2021-08-23T11:53:47Z</time>
      </trkpt>
      <trkpt lat="45.58987" lon="5.73128">
        <ele>606.5</ele>
        <time>2021-08-23T11:53:48Z</time>
      </trkpt>
      <trkpt lat="45.58987" lon="5.73128">
        <ele>606.5</ele>
        <time>2021-08-23T11:53:50Z</time>
      </trkpt>
      <trkpt lat="45.58986" lon="5.73127">
        <ele>606.5</ele>
        <time>2021-08-23T11:53:52Z</time>
      </trkpt>
      <trkpt lat="45.58986" lon="5.73127">
        <ele>606.6</ele>
        <time>2021-08-23T11:53:53Z</time>
      </trkpt>
      <trkpt lat="45.58985" lon="5.73127">
        <ele>606.6</ele>
        <time>2021-08-23T11:53:54Z</time>
      </trkpt>
      <trkpt lat="45.58985" lon="5.73127">
        <ele>606.7</ele>
        <time>2021-08-23T11:53:55Z</time>
      </trkpt>
      <trkpt lat="45.58983" lon="5.73127">
        <ele>606.8</ele>
        <time>2021-08-23T11:53:56Z</time>
      </trkpt>
      <trkpt lat="45.58979" lon="5.73127">
        <ele>607</ele>
        <time>2021-08-23T11:53:58Z</time>
      </trkpt>
      <trkpt lat="45.58966" lon="5.73127">
        <ele>607.5</ele>
        <time>2021-08-23T11:53:59Z</time>
      </trkpt>
      <trkpt lat="45.58957" lon="5.73128">
        <ele>607.4</ele>
        <time>2021-08-23T11:54:00Z</time>
      </trkpt>
      <trkpt lat="45.58953" lon="5.73129">
        <ele>607.4</ele>
        <time>2021-08-23T11:54:01Z</time>
      </trkpt>
      <trkpt lat="45.5895" lon="5.73129">
        <ele>607.3</ele>
        <time>2021-08-23T11:54:03Z</time>
      </trkpt>
      <trkpt lat="45.5895" lon="5.73129">
        <ele>607.3</ele>
        <time>2021-08-23T11:54:05Z</time>
      </trkpt>
      <trkpt lat="45.5895" lon="5.7313">
        <ele>607.2</ele>
        <time>2021-08-23T11:54:06Z</time>
      </trkpt>
      <trkpt lat="45.58949" lon="5.7313">
        <ele>607.2</ele>
        <time>2021-08-23T11:54:07Z</time>
      </trkpt>
      <trkpt lat="45.58949" lon="5.7313">
        <ele>607.2</ele>
        <time>2021-08-23T11:54:09Z</time>
      </trkpt>
      <trkpt lat="45.58949" lon="5.7313">
        <ele>607.2</ele>
        <time>2021-08-23T11:54:10Z</time>
      </trkpt>
      <trkpt lat="45.58948" lon="5.73131">
        <ele>607.2</ele>
        <time>2021-08-23T11:54:11Z</time>
      </trkpt>
      <trkpt lat="45.58948" lon="5.73131">
        <ele>607.2</ele>
        <time>2021-08-23T11:54:12Z</time>
      </trkpt>
      <trkpt lat="45.58948" lon="5.73131">
        <ele>607.2</ele>
        <time>2021-08-23T11:54:13Z</time>
      </trkpt>
      <trkpt lat="45.58947" lon="5.73132">
        <ele>607.2</ele>
        <time>2021-08-23T11:54:15Z</time>
      </trkpt>
      <trkpt lat="45.58947" lon="5.73132">
        <ele>607.1</ele>
        <time>2021-08-23T11:54:16Z</time>
      </trkpt>
      <trkpt lat="45.58947" lon="5.73132">
        <ele>607.1</ele>
        <time>2021-08-23T11:54:17Z</time>
      </trkpt>
      <trkpt lat="45.58946" lon="5.73134">
        <ele>607.1</ele>
        <time>2021-08-23T11:54:18Z</time>
      </trkpt>
      <trkpt lat="45.58945" lon="5.73136">
        <ele>607</ele>
        <time>2021-08-23T11:54:19Z</time>
      </trkpt>
      <trkpt lat="45.58944" lon="5.73137">
        <ele>607</ele>
        <time>2021-08-23T11:54:21Z</time>
      </trkpt>
      <trkpt lat="45.58944" lon="5.73138">
        <ele>606.9</ele>
        <time>2021-08-23T11:54:22Z</time>
      </trkpt>
      <trkpt lat="45.58943" lon="5.73139">
        <ele>606.9</ele>
        <time>2021-08-23T11:54:23Z</time>
      </trkpt>
      <trkpt lat="45.58942" lon="5.7314">
        <ele>606.8</ele>
        <time>2021-08-23T11:54:25Z</time>
      </trkpt>
      <trkpt lat="45.58942" lon="5.7314">
        <ele>606.8</ele>
        <time>2021-08-23T11:54:27Z</time>
      </trkpt>
      <trkpt lat="45.58942" lon="5.73141">
        <ele>606.8</ele>
        <time>2021-08-23T11:54:28Z</time>
      </trkpt>
      <trkpt lat="45.5894" lon="5.73142">
        <ele>606.7</ele>
        <time>2021-08-23T11:54:30Z</time>
      </trkpt>
      <trkpt lat="45.58939" lon="5.73142">
        <ele>606.6</ele>
        <time>2021-08-23T11:54:31Z</time>
      </trkpt>
      <trkpt lat="45.58936" lon="5.73143">
        <ele>606.5</ele>
        <time>2021-08-23T11:54:33Z</time>
      </trkpt>
      <trkpt lat="45.58932" lon="5.73144">
        <ele>606.3</ele>
        <time>2021-08-23T11:54:34Z</time>
      </trkpt>
      <trkpt lat="45.58931" lon="5.73144">
        <ele>606.2</ele>
        <time>2021-08-23T11:54:35Z</time>
      </trkpt>
      <trkpt lat="45.5892" lon="5.73146">
        <ele>605.6</ele>
        <time>2021-08-23T11:54:37Z</time>
      </trkpt>
      <trkpt lat="45.5891" lon="5.73148">
        <ele>605</ele>
        <time>2021-08-23T11:54:39Z</time>
      </trkpt>
      <trkpt lat="45.58901" lon="5.73152">
        <ele>604.6</ele>
        <time>2021-08-23T11:54:41Z</time>
      </trkpt>
      <trkpt lat="45.58898" lon="5.73154">
        <ele>604.4</ele>
        <time>2021-08-23T11:54:42Z</time>
      </trkpt>
      <trkpt lat="45.58893" lon="5.73159">
        <ele>604.2</ele>
        <time>2021-08-23T11:54:43Z</time>
      </trkpt>
      <trkpt lat="45.58884" lon="5.73165">
        <ele>604</ele>
        <time>2021-08-23T11:54:45Z</time>
      </trkpt>
      <trkpt lat="45.58881" lon="5.73168">
        <ele>603.9</ele>
        <time>2021-08-23T11:54:46Z</time>
      </trkpt>
      <trkpt lat="45.58878" lon="5.73171">
        <ele>603.9</ele>
        <time>2021-08-23T11:54:48Z</time>
      </trkpt>
      <trkpt lat="45.58876" lon="5.73173">
        <ele>603.8</ele>
        <time>2021-08-23T11:54:49Z</time>
      </trkpt>
      <trkpt lat="45.58872" lon="5.73175">
        <ele>603.8</ele>
        <time>2021-08-23T11:54:50Z</time>
      </trkpt>
      <trkpt lat="45.58874" lon="5.73175">
        <ele>603.8</ele>
        <time>2021-08-23T11:54:52Z</time>
      </trkpt>
      <trkpt lat="45.58781" lon="5.73209">
        <ele>606</ele>
        <time>2021-08-23T11:55:18Z</time>
      </trkpt>
      <trkpt lat="45.58777" lon="5.73207">
        <ele>606.2</ele>
        <time>2021-08-23T11:55:19Z</time>
      </trkpt>
      <trkpt lat="45.58771" lon="5.732">
        <ele>606.5</ele>
        <time>2021-08-23T11:55:21Z</time>
      </trkpt>
      <trkpt lat="45.58761" lon="5.73179">
        <ele>607.4</ele>
        <time>2021-08-23T11:55:22Z</time>
      </trkpt>
      <trkpt lat="45.58754" lon="5.73167">
        <ele>608.1</ele>
        <time>2021-08-23T11:55:23Z</time>
      </trkpt>
      <trkpt lat="45.58751" lon="5.73161">
        <ele>608.5</ele>
        <time>2021-08-23T11:55:24Z</time>
      </trkpt>
      <trkpt lat="45.58749" lon="5.73155">
        <ele>608.9</ele>
        <time>2021-08-23T11:55:25Z</time>
      </trkpt>
      <trkpt lat="45.58747" lon="5.7315">
        <ele>609.3</ele>
        <time>2021-08-23T11:55:26Z</time>
      </trkpt>
      <trkpt lat="45.58746" lon="5.73147">
        <ele>609.5</ele>
        <time>2021-08-23T11:55:27Z</time>
      </trkpt>
      <trkpt lat="45.58743" lon="5.73142">
        <ele>610</ele>
        <time>2021-08-23T11:55:29Z</time>
      </trkpt>
      <trkpt lat="45.58742" lon="5.7314">
        <ele>610.1</ele>
        <time>2021-08-23T11:55:30Z</time>
      </trkpt>
      <trkpt lat="45.58741" lon="5.73138">
        <ele>610.3</ele>
        <time>2021-08-23T11:55:31Z</time>
      </trkpt>
      <trkpt lat="45.5874" lon="5.73136">
        <ele>610.5</ele>
        <time>2021-08-23T11:55:33Z</time>
      </trkpt>
      <trkpt lat="45.58738" lon="5.73136">
        <ele>610.7</ele>
        <time>2021-08-23T11:55:34Z</time>
      </trkpt>
      <trkpt lat="45.58736" lon="5.73135">
        <ele>610.9</ele>
        <time>2021-08-23T11:55:35Z</time>
      </trkpt>
      <trkpt lat="45.58734" lon="5.73136">
        <ele>611.1</ele>
        <time>2021-08-23T11:55:37Z</time>
      </trkpt>
      <trkpt lat="45.58731" lon="5.73125">
        <ele>612</ele>
        <time>2021-08-23T11:55:48Z</time>
      </trkpt>
      <trkpt lat="45.58731" lon="5.73122">
        <ele>612.2</ele>
        <time>2021-08-23T11:55:49Z</time>
      </trkpt>
      <trkpt lat="45.58732" lon="5.7312">
        <ele>612.4</ele>
        <time>2021-08-23T11:55:50Z</time>
      </trkpt>
      <trkpt lat="45.58735" lon="5.73114">
        <ele>612.9</ele>
        <time>2021-08-23T11:55:52Z</time>
      </trkpt>
      <trkpt lat="45.58736" lon="5.7311">
        <ele>613.2</ele>
        <time>2021-08-23T11:55:53Z</time>
      </trkpt>
      <trkpt lat="45.58736" lon="5.7311">
        <ele>613.3</ele>
        <time>2021-08-23T11:55:54Z</time>
      </trkpt>
      <trkpt lat="45.58738" lon="5.73107">
        <ele>613.5</ele>
        <time>2021-08-23T11:55:55Z</time>
      </trkpt>
      <trkpt lat="45.58739" lon="5.73104">
        <ele>613.9</ele>
        <time>2021-08-23T11:55:57Z</time>
      </trkpt>
      <trkpt lat="45.5874" lon="5.73103">
        <ele>613.9</ele>
        <time>2021-08-23T11:55:58Z</time>
      </trkpt>
      <trkpt lat="45.5874" lon="5.73102">
        <ele>613.9</ele>
        <time>2021-08-23T11:55:59Z</time>
      </trkpt>
      <trkpt lat="45.5874" lon="5.73102">
        <ele>614</ele>
        <time>2021-08-23T11:56:01Z</time>
      </trkpt>
      <trkpt lat="45.5874" lon="5.73102">
        <ele>614</ele>
        <time>2021-08-23T11:56:02Z</time>
      </trkpt>
      <trkpt lat="45.58707" lon="5.7305">
        <ele>617.8</ele>
        <time>2021-08-23T11:56:51Z</time>
      </trkpt>
      <trkpt lat="45.58705" lon="5.73048">
        <ele>617.9</ele>
        <time>2021-08-23T11:56:52Z</time>
      </trkpt>
      <trkpt lat="45.58704" lon="5.73047">
        <ele>617.9</ele>
        <time>2021-08-23T11:56:53Z</time>
      </trkpt>
      <trkpt lat="45.58704" lon="5.73047">
        <ele>618</ele>
        <time>2021-08-23T11:56:54Z</time>
      </trkpt>
      <trkpt lat="45.58696" lon="5.73041">
        <ele>618.4</ele>
        <time>2021-08-23T11:56:56Z</time>
      </trkpt>
      <trkpt lat="45.58685" lon="5.73032">
        <ele>618.7</ele>
        <time>2021-08-23T11:56:57Z</time>
      </trkpt>
      <trkpt lat="45.58682" lon="5.73028">
        <ele>618.8</ele>
        <time>2021-08-23T11:56:58Z</time>
      </trkpt>
      <trkpt lat="45.58682" lon="5.73027">
        <ele>618.8</ele>
        <time>2021-08-23T11:56:59Z</time>
      </trkpt>
      <trkpt lat="45.5868" lon="5.73024">
        <ele>618.9</ele>
        <time>2021-08-23T11:57:01Z</time>
      </trkpt>
      <trkpt lat="45.58678" lon="5.73022">
        <ele>618.9</ele>
        <time>2021-08-23T11:57:02Z</time>
      </trkpt>
      <trkpt lat="45.58671" lon="5.73018">
        <ele>618.9</ele>
        <time>2021-08-23T11:57:07Z</time>
      </trkpt>
      <trkpt lat="45.58667" lon="5.73015">
        <ele>618.9</ele>
        <time>2021-08-23T11:57:08Z</time>
      </trkpt>
      <trkpt lat="45.58666" lon="5.73013">
        <ele>618.9</ele>
        <time>2021-08-23T11:57:09Z</time>
      </trkpt>
      <trkpt lat="45.58661" lon="5.7301">
        <ele>618.9</ele>
        <time>2021-08-23T11:57:11Z</time>
      </trkpt>
      <trkpt lat="45.58656" lon="5.73005">
        <ele>618.8</ele>
        <time>2021-08-23T11:57:13Z</time>
      </trkpt>
      <trkpt lat="45.58651" lon="5.73003">
        <ele>618.7</ele>
        <time>2021-08-23T11:57:15Z</time>
      </trkpt>
      <trkpt lat="45.58649" lon="5.73002">
        <ele>618.7</ele>
        <time>2021-08-23T11:57:16Z</time>
      </trkpt>
      <trkpt lat="45.58648" lon="5.73002">
        <ele>618.6</ele>
        <time>2021-08-23T11:57:17Z</time>
      </trkpt>
      <trkpt lat="45.58645" lon="5.73002">
        <ele>618.5</ele>
        <time>2021-08-23T11:57:18Z</time>
      </trkpt>
      <trkpt lat="45.58644" lon="5.73002">
        <ele>618.5</ele>
        <time>2021-08-23T11:57:19Z</time>
      </trkpt>
      <trkpt lat="45.5864" lon="5.73">
        <ele>618.4</ele>
        <time>2021-08-23T11:57:20Z</time>
      </trkpt>
      <trkpt lat="45.58636" lon="5.72999">
        <ele>618.3</ele>
        <time>2021-08-23T11:57:21Z</time>
      </trkpt>
      <trkpt lat="45.58632" lon="5.72998">
        <ele>618.2</ele>
        <time>2021-08-23T11:57:23Z</time>
      </trkpt>
      <trkpt lat="45.58625" lon="5.72993">
        <ele>618</ele>
        <time>2021-08-23T11:57:24Z</time>
      </trkpt>
      <trkpt lat="45.58624" lon="5.7299">
        <ele>617.9</ele>
        <time>2021-08-23T11:57:25Z</time>
      </trkpt>
      <trkpt lat="45.58623" lon="5.72988">
        <ele>617.8</ele>
        <time>2021-08-23T11:57:27Z</time>
      </trkpt>
      <trkpt lat="45.58621" lon="5.72986">
        <ele>617.8</ele>
        <time>2021-08-23T11:57:28Z</time>
      </trkpt>
      <trkpt lat="45.5862" lon="5.72985">
        <ele>617.7</ele>
        <time>2021-08-23T11:57:29Z</time>
      </trkpt>
      <trkpt lat="45.58617" lon="5.72984">
        <ele>617.7</ele>
        <time>2021-08-23T11:57:31Z</time>
      </trkpt>
      <trkpt lat="45.58615" lon="5.72982">
        <ele>617.6</ele>
        <time>2021-08-23T11:57:32Z</time>
      </trkpt>
      <trkpt lat="45.58611" lon="5.72981">
        <ele>617.6</ele>
        <time>2021-08-23T11:57:34Z</time>
      </trkpt>
      <trkpt lat="45.58399" lon="5.73143">
        <ele>631.6</ele>
        <time>2021-08-23T12:01:03Z</time>
      </trkpt>
      <trkpt lat="45.58392" lon="5.7315">
        <ele>631.7</ele>
        <time>2021-08-23T12:01:04Z</time>
      </trkpt>
      <trkpt lat="45.58385" lon="5.7316">
        <ele>631.9</ele>
        <time>2021-08-23T12:01:05Z</time>
      </trkpt>
      <trkpt lat="45.58378" lon="5.73169">
        <ele>632.2</ele>
        <time>2021-08-23T12:01:06Z</time>
      </trkpt>
      <trkpt lat="45.58374" lon="5.73176">
        <ele>632.4</ele>
        <time>2021-08-23T12:01:08Z</time>
      </trkpt>
      <trkpt lat="45.58371" lon="5.73183">
        <ele>632.6</ele>
        <time>2021-08-23T12:01:09Z</time>
      </trkpt>
      <trkpt lat="45.58369" lon="5.73187">
        <ele>632.8</ele>
        <time>2021-08-23T12:01:10Z</time>
      </trkpt>
      <trkpt lat="45.58367" lon="5.73191">
        <ele>632.9</ele>
        <time>2021-08-23T12:01:12Z</time>
      </trkpt>
      <trkpt lat="45.58367" lon="5.73193">
        <ele>633</ele>
        <time>2021-08-23T12:01:13Z</time>
      </trkpt>
      <trkpt lat="45.58366" lon="5.73197">
        <ele>633.2</ele>
        <time>2021-08-23T12:01:14Z</time>
      </trkpt>
      <trkpt lat="45.58272" lon="5.73572">
        <ele>640.9</ele>
        <time>2021-08-23T12:04:01Z</time>
      </trkpt>
      <trkpt lat="45.58272" lon="5.73577">
        <ele>640.8</ele>
        <time>2021-08-23T12:04:02Z</time>
      </trkpt>
      <trkpt lat="45.58271" lon="5.73581">
        <ele>640.7</ele>
        <time>2021-08-23T12:04:03Z</time>
      </trkpt>
      <trkpt lat="45.58271" lon="5.73583">
        <ele>640.7</ele>
        <time>2021-08-23T12:04:04Z</time>
      </trkpt>
      <trkpt lat="45.5827" lon="5.73588">
        <ele>640.6</ele>
        <time>2021-08-23T12:04:05Z</time>
      </trkpt>
      <trkpt lat="45.5827" lon="5.73589">
        <ele>640.6</ele>
        <time>2021-08-23T12:04:06Z</time>
      </trkpt>
      <trkpt lat="45.58269" lon="5.73591">
        <ele>640.6</ele>
        <time>2021-08-23T12:04:07Z</time>
      </trkpt>
      <trkpt lat="45.58269" lon="5.73594">
        <ele>640.6</ele>
        <time>2021-08-23T12:04:08Z</time>
      </trkpt>
      <trkpt lat="45.58268" lon="5.73605">
        <ele>640.7</ele>
        <time>2021-08-23T12:04:10Z</time>
      </trkpt>
      <trkpt lat="45.58268" lon="5.73615">
        <ele>640.8</ele>
        <time>2021-08-23T12:04:12Z</time>
      </trkpt>
      <trkpt lat="45.58267" lon="5.73641">
        <ele>641.9</ele>
        <time>2021-08-23T12:04:13Z</time>
      </trkpt>
      <trkpt lat="45.58038" lon="5.73425">
        <ele>667.3</ele>
        <time>2021-08-23T12:08:13Z</time>
      </trkpt>
      <trkpt lat="45.58033" lon="5.73422">
        <ele>667.8</ele>
        <time>2021-08-23T12:08:14Z</time>
      </trkpt>
      <trkpt lat="45.58029" lon="5.7342">
        <ele>668.1</ele>
        <time>2021-08-23T12:08:15Z</time>
      </trkpt>
      <trkpt lat="45.58027" lon="5.7342">
        <ele>668.3</ele>
        <time>2021-08-23T12:08:16Z</time>
      </trkpt>
      <trkpt lat="45.58025" lon="5.7342">
        <ele>668.4</ele>
        <time>2021-08-23T12:08:18Z</time>
      </trkpt>
      <trkpt lat="45.58024" lon="5.73419">
        <ele>668.5</ele>
        <time>2021-08-23T12:08:19Z</time>
      </trkpt>
      <trkpt lat="45.5802" lon="5.73418">
        <ele>668.7</ele>
        <time>2021-08-23T12:08:21Z</time>
      </trkpt>
      <trkpt lat="45.58016" lon="5.73414">
        <ele>669.1</ele>
        <time>2021-08-23T12:08:22Z</time>
      </trkpt>
      <trkpt lat="45.58013" lon="5.73411">
        <ele>672.8</ele>
        <time>2021-08-23T12:08:24Z</time>
      </trkpt>
      <trkpt lat="45.58009" lon="5.7341">
        <ele>673.3</ele>
        <time>2021-08-23T12:08:25Z</time>
      </trkpt>
      <trkpt lat="45.58006" lon="5.7341">
        <ele>673.7</ele>
        <time>2021-08-23T12:08:26Z</time>
      </trkpt>
      <trkpt lat="45.58004" lon="5.7341">
        <ele>673.8</ele>
        <time>2021-08-23T12:08:27Z</time>
      </trkpt>
      <trkpt lat="45.58001" lon="5.7341">
        <ele>674.1</ele>
        <time>2021-08-23T12:08:29Z</time>
      </trkpt>
      <trkpt lat="45.57997" lon="5.73409">
        <ele>674.5</ele>
        <time>2021-08-23T12:08:30Z</time>
      </trkpt>
      <trkpt lat="45.57995" lon="5.73408">
        <ele>674.7</ele>
        <time>2021-08-23T12:08:31Z</time>
      </trkpt>
      <trkpt lat="45.57993" lon="5.73409">
        <ele>674.8</ele>
        <time>2021-08-23T12:08:33Z</time>
      </trkpt>
      <trkpt lat="45.57992" lon="5.73409">
        <ele>674.8</ele>
        <time>2021-08-23T12:08:35Z</time>
      </trkpt>
      <trkpt lat="45.57993" lon="5.7341">
        <ele>674.9</ele>
        <time>2021-08-23T12:08:36Z</time>
      </trkpt>
      <trkpt lat="45.57993" lon="5.73411">
        <ele>675</ele>
        <time>2021-08-23T12:08:37Z</time>
      </trkpt>
      <trkpt lat="45.57994" lon="5.73412">
        <ele>675</ele>
        <time>2021-08-23T12:08:38Z</time>
      </trkpt>
      <trkpt lat="45.57993" lon="5.7341">
        <ele>675</ele>
        <time>2021-08-23T12:08:40Z</time>
      </trkpt>
      <trkpt lat="45.57993" lon="5.7341">
        <ele>675</ele>
        <time>2021-08-23T12:08:42Z</time>
      </trkpt>
      <trkpt lat="45.57993" lon="5.73409">
        <ele>675.1</ele>
        <time>2021-08-23T12:08:44Z</time>
      </trkpt>
      <trkpt lat="45.57993" lon="5.73409">
        <ele>675.1</ele>
        <time>2021-08-23T12:08:45Z</time>
      </trkpt>
      <trkpt lat="45.57993" lon="5.73409">
        <ele>675.1</ele>
        <time>2021-08-23T12:08:47Z</time>
      </trkpt>
      <trkpt lat="45.57979" lon="5.73425">
        <ele>674.8</ele>
        <time>2021-08-23T12:09:42Z</time>
      </trkpt>
      <trkpt lat="45.57978" lon="5.73427">
        <ele>674.7</ele>
        <time>2021-08-23T12:09:43Z</time>
      </trkpt>
      <trkpt lat="45.57978" lon="5.73428">
        <ele>674.7</ele>
        <time>2021-08-23T12:09:45Z</time>
      </trkpt>
      <trkpt lat="45.57978" lon="5.73429">
        <ele>674.6</ele>
        <time>2021-08-23T12:09:46Z</time>
      </trkpt>
      <trkpt lat="45.57979" lon="5.7343">
        <ele>674.5</ele>
        <time>2021-08-23T12:09:47Z</time>
      </trkpt>
      <trkpt lat="45.57979" lon="5.73432">
        <ele>674.4</ele>
        <time>2021-08-23T12:09:48Z</time>
      </trkpt>
      <trkpt lat="45.5798" lon="5.73432">
        <ele>674.4</ele>
        <time>2021-08-23T12:09:49Z</time>
      </trkpt>
      <trkpt lat="45.5798" lon="5.73433">
        <ele>674.4</ele>
        <time>2021-08-23T12:09:51Z</time>
      </trkpt>
      <trkpt lat="45.5798" lon="5.73434">
        <ele>674.3</ele>
        <time>2021-08-23T12:09:53Z</time>
      </trkpt>
      <trkpt lat="45.57978" lon="5.73436">
        <ele>674.1</ele>
        <time>2021-08-23T12:09:54Z</time>
      </trkpt>
      <trkpt lat="45.57976" lon="5.7344">
        <ele>673.8</ele>
        <time>2021-08-23T12:09:56Z</time>
      </trkpt>
      <trkpt lat="45.57975" lon="5.73442">
        <ele>673.6</ele>
        <time>2021-08-23T12:09:57Z</time>
      </trkpt>
      <trkpt lat="45.57974" lon="5.73446">
        <ele>673.2</ele>
        <time>2021-08-23T12:09:58Z</time>
      </trkpt>
      <trkpt lat="45.57972" lon="5.73451">
        <ele>672.9</ele>
        <time>2021-08-23T12:09:59Z</time>
      </trkpt>
      <trkpt lat="45.57971" lon="5.73454">
        <ele>672.6</ele>
        <time>2021-08-23T12:10:00Z</time>
      </trkpt>
      <trkpt lat="45.57968" lon="5.7346">
        <ele>672</ele>
        <time>2021-08-23T12:10:02Z</time>
      </trkpt>
      <trkpt lat="45.57965" lon="5.73467">
        <ele>671.3</ele>
        <time>2021-08-23T12:10:03Z</time>
      </trkpt>
      <trkpt lat="45.57962" lon="5.73471">
        <ele>670.9</ele>
        <time>2021-08-23T12:10:04Z</time>
      </trkpt>
      <trkpt lat="45.57958" lon="5.73485">
        <ele>669.6</ele>
        <time>2021-08-23T12:10:06Z</time>
      </trkpt>
      <trkpt lat="45.57952" lon="5.73503">
        <ele>667.9</ele>
        <time>2021-08-23T12:10:08Z</time>
      </trkpt>
      <trkpt lat="45.57949" lon="5.73512">
        <ele>667.1</ele>
        <time>2021-08-23T12:10:09Z</time>
      </trkpt>
      <trkpt lat="45.57943" lon="5.73529">
        <ele>665.6</ele>
        <time>2021-08-23T12:10:11Z</time>
      </trkpt>
      <trkpt lat="45.57935" lon="5.73547">
        <ele>664.2</ele>
        <time>2021-08-23T12:10:13Z</time>
      </trkpt>
      <trkpt lat="45.57931" lon="5.73557">
        <ele>663.5</ele>
        <time>2021-08-23T12:10:14Z</time>
      </trkpt>
      <trkpt lat="45.57923" lon="5.73575">
        <ele>662.5</ele>
        <time>2021-08-23T12:10:16Z</time>
      </trkpt>
      <trkpt lat="45.5792" lon="5.73584">
        <ele>662.1</ele>
        <time>2021-08-23T12:10:17Z</time>
      </trkpt>
      <trkpt lat="45.57917" lon="5.73604">
        <ele>661.4</ele>
        <time>2021-08-23T12:10:19Z</time>
      </trkpt>
      <trkpt lat="45.57915" lon="5.73613">
        <ele>661</ele>
        <time>2021-08-23T12:10:20Z</time>
      </trkpt>
      <trkpt lat="45.5791" lon="5.73634">
        <ele>660.5</ele>
        <time>2021-08-23T12:10:22Z</time>
      </trkpt>
      <trkpt lat="45.57907" lon="5.73643">
        <ele>660.3</ele>
        <time>2021-08-23T12:10:23Z</time>
      </trkpt>
      <trkpt lat="45.57903" lon="5.73661">
        <ele>660.3</ele>
        <time>2021-08-23T12:10:25Z</time>
      </trkpt>
      <trkpt lat="45.57901" lon="5.7367">
        <ele>660.2</ele>
        <time>2021-08-23T12:10:26Z</time>
      </trkpt>
      <trkpt lat="45.57899" lon="5.73687">
        <ele>660.3</ele>
        <time>2021-08-23T12:10:28Z</time>
      </trkpt>
      <trkpt lat="45.57899" lon="5.73697">
        <ele>660.4</ele>
        <time>2021-08-23T12:10:30Z</time>
      </trkpt>
      <trkpt lat="45.57898" lon="5.73699">
        <ele>660.4</ele>
        <time>2021-08-23T12:10:31Z</time>
      </trkpt>
      <trkpt lat="45.57897" lon="5.73701">
        <ele>660.4</ele>
        <time>2021-08-23T12:10:32Z</time>
      </trkpt>
      <trkpt lat="45.57893" lon="5.7371">
        <ele>660.6</ele>
        <time>2021-08-23T12:10:34Z</time>
      </trkpt>
      <trkpt lat="45.5789" lon="5.73715">
        <ele>660.6</ele>
        <time>2021-08-23T12:10:35Z</time>
      </trkpt>
      <trkpt lat="45.57882" lon="5.73725">
        <ele>660.8</ele>
        <time>2021-08-23T12:10:37Z</time>
      </trkpt>
      <trkpt lat="45.57882" lon="5.7373">
        <ele>660.9</ele>
        <time>2021-08-23T12:10:39Z</time>
      </trkpt>
      <trkpt lat="45.5788" lon="5.73732">
        <ele>660.9</ele>
        <time>2021-08-23T12:10:40Z</time>
      </trkpt>
      <trkpt lat="45.57874" lon="5.73738">
        <ele>661.1</ele>
        <time>2021-08-23T12:10:41Z</time>
      </trkpt>
      <trkpt lat="45.5787" lon="5.73742">
        <ele>661.3</ele>
        <time>2021-08-23T12:10:43Z</time>
      </trkpt>
      <trkpt lat="45.57865" lon="5.73745">
        <ele>661.4</ele>
        <time>2021-08-23T12:10:44Z</time>
      </trkpt>
      <trkpt lat="45.5786" lon="5.73744">
        <ele>661.7</ele>
        <time>2021-08-23T12:10:46Z</time>
      </trkpt>
      <trkpt lat="45.57856" lon="5.73744">
        <ele>661.9</ele>
        <time>2021-08-23T12:10:47Z</time>
      </trkpt>
      <trkpt lat="45.57852" lon="5.73744">
        <ele>662.2</ele>
        <time>2021-08-23T12:10:49Z</time>
      </trkpt>
      <trkpt lat="45.57849" lon="5.73744">
        <ele>662.4</ele>
        <time>2021-08-23T12:10:50Z</time>
      </trkpt>
      <trkpt lat="45.57847" lon="5.73743">
        <ele>662.5</ele>
        <time>2021-08-23T12:10:51Z</time>
      </trkpt>
      <trkpt lat="45.57843" lon="5.7374">
        <ele>662.8</ele>
        <time>2021-08-23T12:10:53Z</time>
      </trkpt>
      <trkpt lat="45.5784" lon="5.73739">
        <ele>662.9</ele>
        <time>2021-08-23T12:10:54Z</time>
      </trkpt>
      <trkpt lat="45.57837" lon="5.73737">
        <ele>663.2</ele>
        <time>2021-08-23T12:10:55Z</time>
      </trkpt>
      <trkpt lat="45.57832" lon="5.73737">
        <ele>663.4</ele>
        <time>2021-08-23T12:10:57Z</time>
      </trkpt>
      <trkpt lat="45.5783" lon="5.73738">
        <ele>663.6</ele>
        <time>2021-08-23T12:10:58Z</time>
      </trkpt>
      <trkpt lat="45.57829" lon="5.73739">
        <ele>663.6</ele>
        <time>2021-08-23T12:11:00Z</time>
      </trkpt>
      <trkpt lat="45.57828" lon="5.7374">
        <ele>663.7</ele>
        <time>2021-08-23T12:11:01Z</time>
      </trkpt>
      <trkpt lat="45.57825" lon="5.73741">
        <ele>663.8</ele>
        <time>2021-08-23T12:11:03Z</time>
      </trkpt>
      <trkpt lat="45.57824" lon="5.73742">
        <ele>663.9</ele>
        <time>2021-08-23T12:11:04Z</time>
      </trkpt>
      <trkpt lat="45.5782" lon="5.73746">
        <ele>664.1</ele>
        <time>2021-08-23T12:11:06Z</time>
      </trkpt>
      <trkpt lat="45.57819" lon="5.73747">
        <ele>664.2</ele>
        <time>2021-08-23T12:11:07Z</time>
      </trkpt>
      <trkpt lat="45.57818" lon="5.73749">
        <ele>664.2</ele>
        <time>2021-08-23T12:11:08Z</time>
      </trkpt>
      <trkpt lat="45.57816" lon="5.73753">
        <ele>664.7</ele>
        <time>2021-08-23T12:11:09Z</time>
      </trkpt>
      <trkpt lat="45.57815" lon="5.73757">
        <ele>664.9</ele>
        <time>2021-08-23T12:11:10Z</time>
      </trkpt>
      <trkpt lat="45.57814" lon="5.73758">
        <ele>664.9</ele>
        <time>2021-08-23T12:11:12Z</time>
      </trkpt>
      <trkpt lat="45.57814" lon="5.73758">
        <ele>665</ele>
        <time>2021-08-23T12:11:13Z</time>
      </trkpt>
      <trkpt lat="45.57814" lon="5.73757">
        <ele>665</ele>
        <time>2021-08-23T12:11:14Z</time>
      </trkpt>
      <trkpt lat="45.57813" lon="5.73755">
        <ele>665.1</ele>
        <time>2021-08-23T12:11:15Z</time>
      </trkpt>
      <trkpt lat="45.57813" lon="5.73752">
        <ele>665.2</ele>
        <time>2021-08-23T12:11:17Z</time>
      </trkpt>
      <trkpt lat="45.57833" lon="5.73665">
        <ele>669.9</ele>
        <time>2021-08-23T12:11:47Z</time>
      </trkpt>
      <trkpt lat="45.57835" lon="5.73664">
        <ele>670</ele>
        <time>2021-08-23T12:11:48Z</time>
      </trkpt>
      <trkpt lat="45.57838" lon="5.73659">
        <ele>670.1</ele>
        <time>2021-08-23T12:11:50Z</time>
      </trkpt>
      <trkpt lat="45.57839" lon="5.73657">
        <ele>670.1</ele>
        <time>2021-08-23T12:11:51Z</time>
      </trkpt>
      <trkpt lat="45.5784" lon="5.73655">
        <ele>670.1</ele>
        <time>2021-08-23T12:11:53Z</time>
      </trkpt>
      <trkpt lat="45.5784" lon="5.73654">
        <ele>670.1</ele>
        <time>2021-08-23T12:11:54Z</time>
      </trkpt>
      <trkpt lat="45.57841" lon="5.73652">
        <ele>670.1</ele>
        <time>2021-08-23T12:11:55Z</time>
      </trkpt>
      <trkpt lat="45.57841" lon="5.73651">
        <ele>670.1</ele>
        <time>2021-08-23T12:11:57Z</time>
      </trkpt>
      <trkpt lat="45.57842" lon="5.7365">
        <ele>670.1</ele>
        <time>2021-08-23T12:11:58Z</time>
      </trkpt>
      <trkpt lat="45.57842" lon="5.73649">
        <ele>670.1</ele>
        <time>2021-08-23T12:11:59Z</time>
      </trkpt>
      <trkpt lat="45.57843" lon="5.73647">
        <ele>670.1</ele>
        <time>2021-08-23T12:12:00Z</time>
      </trkpt>
      <trkpt lat="45.57844" lon="5.73645">
        <ele>670.1</ele>
        <time>2021-08-23T12:12:01Z</time>
      </trkpt>
      <trkpt lat="45.57844" lon="5.73643">
        <ele>670.1</ele>
        <time>2021-08-23T12:12:03Z</time>
      </trkpt>
      <trkpt lat="45.57845" lon="5.73642">
        <ele>670.1</ele>
        <time>2021-08-23T12:12:05Z</time>
      </trkpt>
      <trkpt lat="45.57846" lon="5.7364">
        <ele>670.1</ele>
        <time>2021-08-23T12:12:06Z</time>
      </trkpt>
      <trkpt lat="45.57846" lon="5.73639">
        <ele>670.1</ele>
        <time>2021-08-23T12:12:07Z</time>
      </trkpt>
      <trkpt lat="45.57846" lon="5.73638">
        <ele>670.1</ele>
        <time>2021-08-23T12:12:09Z</time>
      </trkpt>
      <trkpt lat="45.57846" lon="5.73636">
        <ele>670.1</ele>
        <time>2021-08-23T12:12:10Z</time>
      </trkpt>
      <trkpt lat="45.57845" lon="5.73635">
        <ele>670.1</ele>
        <time>2021-08-23T12:12:11Z</time>
      </trkpt>
      <trkpt lat="45.57845" lon="5.73633">
        <ele>670.2</ele>
        <time>2021-08-23T12:12:12Z</time>
      </trkpt>
      <trkpt lat="45.57845" lon="5.73631">
        <ele>670.3</ele>
        <time>2021-08-23T12:12:13Z</time>
      </trkpt>
      <trkpt lat="45.57844" lon="5.73629">
        <ele>670.4</ele>
        <time>2021-08-23T12:12:14Z</time>
      </trkpt>
      <trkpt lat="45.57843" lon="5.73628">
        <ele>670.5</ele>
        <time>2021-08-23T12:12:15Z</time>
      </trkpt>
      <trkpt lat="45.57842" lon="5.73626">
        <ele>670.6</ele>
        <time>2021-08-23T12:12:17Z</time>
      </trkpt>
      <trkpt lat="45.57842" lon="5.73626">
        <ele>670.7</ele>
        <time>2021-08-23T12:12:18Z</time>
      </trkpt>
      <trkpt lat="45.5784" lon="5.73623">
        <ele>670.9</ele>
        <time>2021-08-23T12:12:19Z</time>
      </trkpt>
      <trkpt lat="45.57825" lon="5.73605">
        <ele>673.3</ele>
        <time>2021-08-23T12:12:20Z</time>
      </trkpt>
      <trkpt lat="45.57823" lon="5.73603">
        <ele>673.7</ele>
        <time>2021-08-23T12:12:22Z</time>
      </trkpt>
      <trkpt lat="45.57819" lon="5.73601">
        <ele>674.2</ele>
        <time>2021-08-23T12:12:23Z</time>
      </trkpt>
      <trkpt lat="45.57817" lon="5.73598">
        <ele>674.6</ele>
        <time>2021-08-23T12:12:24Z</time>
      </trkpt>
      <trkpt lat="45.57816" lon="5.73597">
        <ele>674.7</ele>
        <time>2021-08-23T12:12:25Z</time>
      </trkpt>
      <trkpt lat="45.57815" lon="5.73595">
        <ele>674.9</ele>
        <time>2021-08-23T12:12:27Z</time>
      </trkpt>
      <trkpt lat="45.57815" lon="5.73594">
        <ele>674.9</ele>
        <time>2021-08-23T12:12:28Z</time>
      </trkpt>
      <trkpt lat="45.57815" lon="5.73593">
        <ele>675</ele>
        <time>2021-08-23T12:12:29Z</time>
      </trkpt>
      <trkpt lat="45.57807" lon="5.73594">
        <ele>675.5</ele>
        <time>2021-08-23T12:12:30Z</time>
      </trkpt>
      <trkpt lat="45.57801" lon="5.73596">
        <ele>675.7</ele>
        <time>2021-08-23T12:12:31Z</time>
      </trkpt>
      <trkpt lat="45.57794" lon="5.73598">
        <ele>675.6</ele>
        <time>2021-08-23T12:12:33Z</time>
      </trkpt>
      <trkpt lat="45.57787" lon="5.73601">
        <ele>675.2</ele>
        <time>2021-08-23T12:12:34Z</time>
      </trkpt>
      <trkpt lat="45.5778" lon="5.73603">
        <ele>674.8</ele>
        <time>2021-08-23T12:12:35Z</time>
      </trkpt>
      <trkpt lat="45.57773" lon="5.73605">
        <ele>674.4</ele>
        <time>2021-08-23T12:12:59Z</time>
      </trkpt>
      <trkpt lat="45.57766" lon="5.73607">
        <ele>673.9</ele>
        <time>2021-08-23T12:13:00Z</time>
      </trkpt>
      <trkpt lat="45.57759" lon="5.73605">
        <ele>673.6</ele>
        <time>2021-08-23T12:13:01Z</time>
      </trkpt>
      <trkpt lat="45.57753" lon="5.73603">
        <ele>673.4</ele>
        <time>2021-08-23T12:13:02Z</time>
      </trkpt>
      <trkpt lat="45.57741" lon="5.736">
        <ele>673.2</ele>
        <time>2021-08-23T12:13:04Z</time>
      </trkpt>
      <trkpt lat="45.57736" lon="5.73597">
        <ele>673.2</ele>
        <time>2021-08-23T12:13:05Z</time>
      </trkpt>
      <trkpt lat="45.57726" lon="5.73595">
        <ele>673.3</ele>
        <time>2021-08-23T12:13:07Z</time>
      </trkpt>
      <trkpt lat="45.57723" lon="5.73595">
        <ele>673.3</ele>
        <time>2021-08-23T12:13:09Z</time>
      </trkpt>
      <trkpt lat="45.57721" lon="5.73596">
        <ele>673.4</ele>
        <time>2021-08-23T12:13:10Z</time>
      </trkpt>
      <trkpt lat="45.57718" lon="5.73597">
        <ele>673.4</ele>
        <time>2021-08-23T12:13:11Z</time>
      </trkpt>
      <trkpt lat="45.57714" lon="5.73598">
        <ele>673.5</ele>
        <time>2021-08-23T12:13:13Z</time>
      </trkpt>
      <trkpt lat="45.5771" lon="5.73601">
        <ele>673.5</ele>
        <time>2021-08-23T12:13:14Z</time>
      </trkpt>
      <trkpt lat="45.57702" lon="5.73603">
        <ele>673.5</ele>
        <time>2021-08-23T12:13:16Z</time>
      </trkpt>
      <trkpt lat="45.57696" lon="5.73604">
        <ele>673.4</ele>
        <time>2021-08-23T12:13:17Z</time>
      </trkpt>
      <trkpt lat="45.57695" lon="5.73605">
        <ele>673.4</ele>
        <time>2021-08-23T12:13:19Z</time>
      </trkpt>
      <trkpt lat="45.57693" lon="5.73605">
        <ele>673.4</ele>
        <time>2021-08-23T12:13:20Z</time>
      </trkpt>
      <trkpt lat="45.57692" lon="5.73605">
        <ele>673.4</ele>
        <time>2021-08-23T12:13:21Z</time>
      </trkpt>
      <trkpt lat="45.57688" lon="5.73605">
        <ele>673.4</ele>
        <time>2021-08-23T12:13:23Z</time>
      </trkpt>
      <trkpt lat="45.57687" lon="5.73605">
        <ele>673.5</ele>
        <time>2021-08-23T12:13:24Z</time>
      </trkpt>
      <trkpt lat="45.57682" lon="5.73605">
        <ele>673.7</ele>
        <time>2021-08-23T12:13:26Z</time>
      </trkpt>
      <trkpt lat="45.57678" lon="5.73605">
        <ele>673.9</ele>
        <time>2021-08-23T12:13:28Z</time>
      </trkpt>
      <trkpt lat="45.57676" lon="5.73606">
        <ele>674</ele>
        <time>2021-08-23T12:13:29Z</time>
      </trkpt>
      <trkpt lat="45.57673" lon="5.73607">
        <ele>674.1</ele>
        <time>2021-08-23T12:13:31Z</time>
      </trkpt>
      <trkpt lat="45.57666" lon="5.73607">
        <ele>674.5</ele>
        <time>2021-08-23T12:13:33Z</time>
      </trkpt>
      <trkpt lat="45.57663" lon="5.73605">
        <ele>674.7</ele>
        <time>2021-08-23T12:13:34Z</time>
      </trkpt>
      <trkpt lat="45.57659" lon="5.73603">
        <ele>675</ele>
        <time>2021-08-23T12:13:35Z</time>
      </trkpt>
      <trkpt lat="45.57656" lon="5.73602">
        <ele>675.2</ele>
        <time>2021-08-23T12:13:37Z</time>
      </trkpt>
      <trkpt lat="45.57655" lon="5.73602">
        <ele>675.2</ele>
        <time>2021-08-23T12:13:38Z</time>
      </trkpt>
      <trkpt lat="45.57653" lon="5.73598">
        <ele>675.5</ele>
        <time>2021-08-23T12:13:40Z</time>
      </trkpt>
      <trkpt lat="45.57652" lon="5.73595">
        <ele>675.6</ele>
        <time>2021-08-23T12:13:41Z</time>
      </trkpt>
      <trkpt lat="45.57652" lon="5.73593">
        <ele>675.8</ele>
        <time>2021-08-23T12:13:42Z</time>
      </trkpt>
      <trkpt lat="45.5765" lon="5.7359">
        <ele>676</ele>
        <time>2021-08-23T12:13:44Z</time>
      </trkpt>
      <trkpt lat="45.5765" lon="5.7359">
        <ele>676</ele>
        <time>2021-08-23T12:13:45Z</time>
      </trkpt>
      <trkpt lat="45.57647" lon="5.73592">
        <ele>676.3</ele>
        <time>2021-08-23T12:13:46Z</time>
      </trkpt>
      <trkpt lat="45.57646" lon="5.73592">
        <ele>676.3</ele>
        <time>2021-08-23T12:13:47Z</time>
      </trkpt>
      <trkpt lat="45.57644" lon="5.73594">
        <ele>676.6</ele>
        <time>2021-08-23T12:13:48Z</time>
      </trkpt>
      <trkpt lat="45.57641" lon="5.73596">
        <ele>676.8</ele>
        <time>2021-08-23T12:13:50Z</time>
      </trkpt>
      <trkpt lat="45.5764" lon="5.73598">
        <ele>677</ele>
        <time>2021-08-23T12:13:51Z</time>
      </trkpt>
      <trkpt lat="45.57637" lon="5.73599">
        <ele>677.2</ele>
        <time>2021-08-23T12:13:53Z</time>
      </trkpt>
      <trkpt lat="45.57634" lon="5.73597">
        <ele>677.5</ele>
        <time>2021-08-23T12:13:54Z</time>
      </trkpt>
      <trkpt lat="45.57631" lon="5.73594">
        <ele>677.8</ele>
        <time>2021-08-23T12:13:55Z</time>
      </trkpt>
      <trkpt lat="45.57628" lon="5.73592">
        <ele>678</ele>
        <time>2021-08-23T12:13:56Z</time>
      </trkpt>
      <trkpt lat="45.57624" lon="5.73591">
        <ele>678.2</ele>
        <time>2021-08-23T12:13:57Z</time>
      </trkpt>
      <trkpt lat="45.57619" lon="5.73591">
        <ele>678.3</ele>
        <time>2021-08-23T12:13:59Z</time>
      </trkpt>
      <trkpt lat="45.5761" lon="5.73592">
        <ele>678.3</ele>
        <time>2021-08-23T12:14:01Z</time>
      </trkpt>
      <trkpt lat="45.57605" lon="5.73594">
        <ele>678.2</ele>
        <time>2021-08-23T12:14:02Z</time>
      </trkpt>
      <trkpt lat="45.576" lon="5.73596">
        <ele>678.1</ele>
        <time>2021-08-23T12:14:03Z</time>
      </trkpt>
      <trkpt lat="45.57593" lon="5.73597">
        <ele>677.9</ele>
        <time>2021-08-23T12:14:05Z</time>
      </trkpt>
      <trkpt lat="45.57588" lon="5.73598">
        <ele>677.8</ele>
        <time>2021-08-23T12:14:06Z</time>
      </trkpt>
      <trkpt lat="45.57583" lon="5.73599">
        <ele>677.6</ele>
        <time>2021-08-23T12:14:07Z</time>
      </trkpt>
      <trkpt lat="45.57572" lon="5.73603">
        <ele>677.2</ele>
        <time>2021-08-23T12:14:09Z</time>
      </trkpt>
      <trkpt lat="45.57567" lon="5.73603">
        <ele>677</ele>
        <time>2021-08-23T12:14:10Z</time>
      </trkpt>
      <trkpt lat="45.5756" lon="5.73604">
        <ele>676.6</ele>
        <time>2021-08-23T12:14:11Z</time>
      </trkpt>
      <trkpt lat="45.57547" lon="5.73606">
        <ele>675.8</ele>
        <time>2021-08-23T12:14:13Z</time>
      </trkpt>
      <trkpt lat="45.57541" lon="5.73608">
        <ele>675.4</ele>
        <time>2021-08-23T12:14:14Z</time>
      </trkpt>
      <trkpt lat="45.5753" lon="5.73607">
        <ele>674.8</ele>
        <time>2021-08-23T12:14:16Z</time>
      </trkpt>
      <trkpt lat="45.57526" lon="5.73607">
        <ele>674.6</ele>
        <time>2021-08-23T12:14:17Z</time>
      </trkpt>
      <trkpt lat="45.57515" lon="5.73606">
        <ele>674.2</ele>
        <time>2021-08-23T12:14:19Z</time>
      </trkpt>
      <trkpt lat="45.57509" lon="5.73606">
        <ele>674</ele>
        <time>2021-08-23T12:14:20Z</time>
      </trkpt>
      <trkpt lat="45.57497" lon="5.73608">
        <ele>673.7</ele>
        <time>2021-08-23T12:14:22Z</time>
      </trkpt>
      <trkpt lat="45.57492" lon="5.73609">
        <ele>673.4</ele>
        <time>2021-08-23T12:14:23Z</time>
      </trkpt>
      <trkpt lat="45.5748" lon="5.73615">
        <ele>672.8</ele>
        <time>2021-08-23T12:14:25Z</time>
      </trkpt>
      <trkpt lat="45.57476" lon="5.73618">
        <ele>672.5</ele>
        <time>2021-08-23T12:14:26Z</time>
      </trkpt>
      <trkpt lat="45.57466" lon="5.73627">
        <ele>671.7</ele>
        <time>2021-08-23T12:14:28Z</time>
      </trkpt>
      <trkpt lat="45.57462" lon="5.73631">
        <ele>671.3</ele>
        <time>2021-08-23T12:14:29Z</time>
      </trkpt>
      <trkpt lat="45.57452" lon="5.73639">
        <ele>670.5</ele>
        <time>2021-08-23T12:14:31Z</time>
      </trkpt>
      <trkpt lat="45.57449" lon="5.73642">
        <ele>670.3</ele>
        <time>2021-08-23T12:14:32Z</time>
      </trkpt>
      <trkpt lat="45.57445" lon="5.73646">
        <ele>669.9</ele>
        <time>2021-08-23T12:14:34Z</time>
      </trkpt>
      <trkpt lat="45.57444" lon="5.73649">
        <ele>669.8</ele>
        <time>2021-08-23T12:14:36Z</time>
      </trkpt>
      <trkpt lat="45.57445" lon="5.73649">
        <ele>669.7</ele>
        <time>2021-08-23T12:14:38Z</time>
      </trkpt>
      <trkpt lat="45.57445" lon="5.73649">
        <ele>669.7</ele>
        <time>2021-08-23T12:14:39Z</time>
      </trkpt>
      <trkpt lat="45.57446" lon="5.73649">
        <ele>669.7</ele>
        <time>2021-08-23T12:14:41Z</time>
      </trkpt>
      <trkpt lat="45.57447" lon="5.73648">
        <ele>669.6</ele>
        <time>2021-08-23T12:14:42Z</time>
      </trkpt>
      <trkpt lat="45.57448" lon="5.73648">
        <ele>669.5</ele>
        <time>2021-08-23T12:14:43Z</time>
      </trkpt>
      <trkpt lat="45.57444" lon="5.73646">
        <ele>669.3</ele>
        <time>2021-08-23T12:14:45Z</time>
      </trkpt>
      <trkpt lat="45.57439" lon="5.73645">
        <ele>669</ele>
        <time>2021-08-23T12:14:47Z</time>
      </trkpt>
      <trkpt lat="45.57434" lon="5.73644">
        <ele>668.7</ele>
        <time>2021-08-23T12:14:57Z</time>
      </trkpt>
      <trkpt lat="45.57429" lon="5.73643">
        <ele>668.5</ele>
        <time>2021-08-23T12:14:58Z</time>
      </trkpt>
      <trkpt lat="45.57418" lon="5.73635">
        <ele>667.9</ele>
        <time>2021-08-23T12:14:59Z</time>
      </trkpt>
      <trkpt lat="45.5741" lon="5.73631">
        <ele>667.5</ele>
        <time>2021-08-23T12:15:00Z</time>
      </trkpt>
      <trkpt lat="45.57404" lon="5.73628">
        <ele>667.3</ele>
        <time>2021-08-23T12:15:01Z</time>
      </trkpt>
      <trkpt lat="45.57397" lon="5.73624">
        <ele>667</ele>
        <time>2021-08-23T12:15:03Z</time>
      </trkpt>
      <trkpt lat="45.57392" lon="5.73622">
        <ele>666.8</ele>
        <time>2021-08-23T12:15:04Z</time>
      </trkpt>
      <trkpt lat="45.57386" lon="5.73619">
        <ele>666.6</ele>
        <time>2021-08-23T12:15:05Z</time>
      </trkpt>
      <trkpt lat="45.5738" lon="5.73614">
        <ele>666.3</ele>
        <time>2021-08-23T12:15:07Z</time>
      </trkpt>
      <trkpt lat="45.57377" lon="5.73611">
        <ele>666.2</ele>
        <time>2021-08-23T12:15:08Z</time>
      </trkpt>
      <trkpt lat="45.57373" lon="5.73607">
        <ele>666</ele>
        <time>2021-08-23T12:15:09Z</time>
      </trkpt>
      <trkpt lat="45.5737" lon="5.73601">
        <ele>665.8</ele>
        <time>2021-08-23T12:15:10Z</time>
      </trkpt>
      <trkpt lat="45.57364" lon="5.73591">
        <ele>665.5</ele>
        <time>2021-08-23T12:15:11Z</time>
      </trkpt>
      <trkpt lat="45.57349" lon="5.73574">
        <ele>664.8</ele>
        <time>2021-08-23T12:15:13Z</time>
      </trkpt>
      <trkpt lat="45.57342" lon="5.73568">
        <ele>664.5</ele>
        <time>2021-08-23T12:15:14Z</time>
      </trkpt>
      <trkpt lat="45.57332" lon="5.73564">
        <ele>664.1</ele>
        <time>2021-08-23T12:15:16Z</time>
      </trkpt>
      <trkpt lat="45.57329" lon="5.73564">
        <ele>664</ele>
        <time>2021-08-23T12:15:17Z</time>
      </trkpt>
      <trkpt lat="45.57325" lon="5.73563">
        <ele>663.9</ele>
        <time>2021-08-23T12:15:18Z</time>
      </trkpt>
      <trkpt lat="45.57325" lon="5.73568">
        <ele>663.7</ele>
        <time>2021-08-23T12:15:20Z</time>
      </trkpt>
      <trkpt lat="45.5732" lon="5.73566">
        <ele>663.5</ele>
        <time>2021-08-23T12:15:21Z</time>
      </trkpt>
      <trkpt lat="45.57314" lon="5.73566">
        <ele>663.3</ele>
        <time>2021-08-23T12:15:22Z</time>
      </trkpt>
      <trkpt lat="45.57309" lon="5.73566">
        <ele>663</ele>
        <time>2021-08-23T12:15:23Z</time>
      </trkpt>
      <trkpt lat="45.57304" lon="5.73567">
        <ele>662.8</ele>
        <time>2021-08-23T12:15:24Z</time>
      </trkpt>
      <trkpt lat="45.573" lon="5.73568">
        <ele>662.6</ele>
        <time>2021-08-23T12:15:26Z</time>
      </trkpt>
      <trkpt lat="45.573" lon="5.73568">
        <ele>662.6</ele>
        <time>2021-08-23T12:15:27Z</time>
      </trkpt>
      <trkpt lat="45.57294" lon="5.7357">
        <ele>662.4</ele>
        <time>2021-08-23T12:15:29Z</time>
      </trkpt>
      <trkpt lat="45.5729" lon="5.73571">
        <ele>662.2</ele>
        <time>2021-08-23T12:15:30Z</time>
      </trkpt>
      <trkpt lat="45.57284" lon="5.7357">
        <ele>661.9</ele>
        <time>2021-08-23T12:15:32Z</time>
      </trkpt>
      <trkpt lat="45.57277" lon="5.73566">
        <ele>661.6</ele>
        <time>2021-08-23T12:15:34Z</time>
      </trkpt>
      <trkpt lat="45.57271" lon="5.73565">
        <ele>661.3</ele>
        <time>2021-08-23T12:15:36Z</time>
      </trkpt>
      <trkpt lat="45.57264" lon="5.73566">
        <ele>661</ele>
        <time>2021-08-23T12:15:37Z</time>
      </trkpt>
      <trkpt lat="45.5726" lon="5.73567">
        <ele>660.9</ele>
        <time>2021-08-23T12:15:39Z</time>
      </trkpt>
      <trkpt lat="45.57254" lon="5.73568">
        <ele>660.7</ele>
        <time>2021-08-23T12:15:40Z</time>
      </trkpt>
      <trkpt lat="45.57248" lon="5.73569">
        <ele>660.4</ele>
        <time>2021-08-23T12:15:41Z</time>
      </trkpt>
      <trkpt lat="45.57241" lon="5.73568">
        <ele>660.1</ele>
        <time>2021-08-23T12:15:42Z</time>
      </trkpt>
      <trkpt lat="45.57232" lon="5.73564">
        <ele>659.8</ele>
        <time>2021-08-23T12:15:44Z</time>
      </trkpt>
      <trkpt lat="45.57226" lon="5.73567">
        <ele>659.6</ele>
        <time>2021-08-23T12:15:45Z</time>
      </trkpt>
      <trkpt lat="45.57222" lon="5.73567">
        <ele>659.4</ele>
        <time>2021-08-23T12:15:47Z</time>
      </trkpt>
      <trkpt lat="45.57219" lon="5.73565">
        <ele>659.4</ele>
        <time>2021-08-23T12:15:48Z</time>
      </trkpt>
      <trkpt lat="45.57216" lon="5.73564">
        <ele>659.3</ele>
        <time>2021-08-23T12:15:49Z</time>
      </trkpt>
      <trkpt lat="45.57214" lon="5.73563">
        <ele>659.2</ele>
        <time>2021-08-23T12:15:50Z</time>
      </trkpt>
      <trkpt lat="45.57211" lon="5.73562">
        <ele>659.1</ele>
        <time>2021-08-23T12:15:52Z</time>
      </trkpt>
      <trkpt lat="45.57205" lon="5.73563">
        <ele>659</ele>
        <time>2021-08-23T12:15:54Z</time>
      </trkpt>
      <trkpt lat="45.572" lon="5.73563">
        <ele>658.9</ele>
        <time>2021-08-23T12:15:56Z</time>
      </trkpt>
      <trkpt lat="45.57198" lon="5.73563">
        <ele>658.9</ele>
        <time>2021-08-23T12:15:57Z</time>
      </trkpt>
      <trkpt lat="45.57193" lon="5.73565">
        <ele>658.8</ele>
        <time>2021-08-23T12:15:59Z</time>
      </trkpt>
      <trkpt lat="45.57188" lon="5.73566">
        <ele>658.7</ele>
        <time>2021-08-23T12:16:00Z</time>
      </trkpt>
      <trkpt lat="45.57184" lon="5.73571">
        <ele>658.6</ele>
        <time>2021-08-23T12:16:01Z</time>
      </trkpt>
      <trkpt lat="45.57182" lon="5.73574">
        <ele>658.5</ele>
        <time>2021-08-23T12:16:02Z</time>
      </trkpt>
      <trkpt lat="45.57181" lon="5.73575">
        <ele>658.5</ele>
        <time>2021-08-23T12:16:04Z</time>
      </trkpt>
      <trkpt lat="45.57181" lon="5.73576">
        <ele>658.4</ele>
        <time>2021-08-23T12:16:05Z</time>
      </trkpt>
      <trkpt lat="45.57181" lon="5.73577">
        <ele>658.4</ele>
        <time>2021-08-23T12:16:06Z</time>
      </trkpt>
      <trkpt lat="45.57181" lon="5.73582">
        <ele>658.3</ele>
        <time>2021-08-23T12:16:08Z</time>
      </trkpt>
      <trkpt lat="45.57182" lon="5.73588">
        <ele>658.1</ele>
        <time>2021-08-23T12:16:09Z</time>
      </trkpt>
      <trkpt lat="45.57094" lon="5.73502">
        <ele>656.6</ele>
        <time>2021-08-23T12:16:49Z</time>
      </trkpt>
      <trkpt lat="45.57092" lon="5.73498">
        <ele>656.4</ele>
        <time>2021-08-23T12:16:51Z</time>
      </trkpt>
      <trkpt lat="45.57092" lon="5.73496">
        <ele>656.3</ele>
        <time>2021-08-23T12:16:52Z</time>
      </trkpt>
      <trkpt lat="45.57091" lon="5.73495">
        <ele>656.3</ele>
        <time>2021-08-23T12:16:53Z</time>
      </trkpt>
      <trkpt lat="45.57091" lon="5.73494">
        <ele>656.2</ele>
        <time>2021-08-23T12:16:54Z</time>
      </trkpt>
      <trkpt lat="45.5709" lon="5.73492">
        <ele>656</ele>
        <time>2021-08-23T12:16:55Z</time>
      </trkpt>
      <trkpt lat="45.5709" lon="5.7349">
        <ele>655.9</ele>
        <time>2021-08-23T12:16:56Z</time>
      </trkpt>
      <trkpt lat="45.57088" lon="5.73486">
        <ele>655.6</ele>
        <time>2021-08-23T12:16:58Z</time>
      </trkpt>
      <trkpt lat="45.57087" lon="5.73482">
        <ele>655.3</ele>
        <time>2021-08-23T12:16:59Z</time>
      </trkpt>
      <trkpt lat="45.57085" lon="5.73478">
        <ele>654.8</ele>
        <time>2021-08-23T12:17:01Z</time>
      </trkpt>
      <trkpt lat="45.57083" lon="5.73474">
        <ele>654.5</ele>
        <time>2021-08-23T12:17:02Z</time>
      </trkpt>
      <trkpt lat="45.57082" lon="5.73473">
        <ele>654.3</ele>
        <time>2021-08-23T12:17:03Z</time>
      </trkpt>
      <trkpt lat="45.57079" lon="5.7347">
        <ele>654</ele>
        <time>2021-08-23T12:17:04Z</time>
      </trkpt>
      <trkpt lat="45.57078" lon="5.7347">
        <ele>653.9</ele>
        <time>2021-08-23T12:17:05Z</time>
      </trkpt>
      <trkpt lat="45.57077" lon="5.7347">
        <ele>653.8</ele>
        <time>2021-08-23T12:17:06Z</time>
      </trkpt>
      <trkpt lat="45.57076" lon="5.73469">
        <ele>653.7</ele>
        <time>2021-08-23T12:17:08Z</time>
      </trkpt>
      <trkpt lat="45.57075" lon="5.73469">
        <ele>653.5</ele>
        <time>2021-08-23T12:17:09Z</time>
      </trkpt>
      <trkpt lat="45.57074" lon="5.73468">
        <ele>653.4</ele>
        <time>2021-08-23T12:17:10Z</time>
      </trkpt>
      <trkpt lat="45.57073" lon="5.73467">
        <ele>653.3</ele>
        <time>2021-08-23T12:17:11Z</time>
      </trkpt>
      <trkpt lat="45.57072" lon="5.73467">
        <ele>653.2</ele>
        <time>2021-08-23T12:17:13Z</time>
      </trkpt>
      <trkpt lat="45.57072" lon="5.73466">
        <ele>653.1</ele>
        <time>2021-08-23T12:17:14Z</time>
      </trkpt>
      <trkpt lat="45.57069" lon="5.73464">
        <ele>652.4</ele>
        <time>2021-08-23T12:17:15Z</time>
      </trkpt>
      <trkpt lat="45.57068" lon="5.73463">
        <ele>652.4</ele>
        <time>2021-08-23T12:17:17Z</time>
      </trkpt>
      <trkpt lat="45.57068" lon="5.73462">
        <ele>652.3</ele>
        <time>2021-08-23T12:17:18Z</time>
      </trkpt>
      <trkpt lat="45.57067" lon="5.73461">
        <ele>652.2</ele>
        <time>2021-08-23T12:17:19Z</time>
      </trkpt>
      <trkpt lat="45.57066" lon="5.7346">
        <ele>652.1</ele>
        <time>2021-08-23T12:17:21Z</time>
      </trkpt>
      <trkpt lat="45.57065" lon="5.73459">
        <ele>652</ele>
        <time>2021-08-23T12:17:22Z</time>
      </trkpt>
      <trkpt lat="45.57065" lon="5.73458">
        <ele>651.9</ele>
        <time>2021-08-23T12:17:23Z</time>
      </trkpt>
      <trkpt lat="45.57064" lon="5.73457">
        <ele>651.8</ele>
        <time>2021-08-23T12:17:24Z</time>
      </trkpt>
      <trkpt lat="45.57063" lon="5.73453">
        <ele>651.5</ele>
        <time>2021-08-23T12:17:25Z</time>
      </trkpt>
      <trkpt lat="45.57055" lon="5.73437">
        <ele>650.3</ele>
        <time>2021-08-23T12:17:27Z</time>
      </trkpt>
      <trkpt lat="45.57047" lon="5.73419">
        <ele>648.8</ele>
        <time>2021-08-23T12:17:28Z</time>
      </trkpt>
      <trkpt lat="45.57046" lon="5.73416">
        <ele>648.4</ele>
        <time>2021-08-23T12:17:30Z</time>
      </trkpt>
      <trkpt lat="45.57045" lon="5.73413">
        <ele>648.2</ele>
        <time>2021-08-23T12:17:31Z</time>
      </trkpt>
      <trkpt lat="45.57044" lon="5.73412">
        <ele>647.9</ele>
        <time>2021-08-23T12:17:32Z</time>
      </trkpt>
      <trkpt lat="45.57042" lon="5.7341">
        <ele>647.6</ele>
        <time>2021-08-23T12:17:33Z</time>
      </trkpt>
      <trkpt lat="45.57041" lon="5.73409">
        <ele>647.4</ele>
        <time>2021-08-23T12:17:34Z</time>
      </trkpt>
      <trkpt lat="45.5704" lon="5.73408">
        <ele>647.1</ele>
        <time>2021-08-23T12:17:36Z</time>
      </trkpt>
      <trkpt lat="45.57039" lon="5.73406">
        <ele>646.8</ele>
        <time>2021-08-23T12:17:37Z</time>
      </trkpt>
      <trkpt lat="45.57038" lon="5.73405">
        <ele>646.6</ele>
        <time>2021-08-23T12:17:38Z</time>
      </trkpt>
      <trkpt lat="45.57038" lon="5.73405">
        <ele>646.4</ele>
        <time>2021-08-23T12:17:40Z</time>
      </trkpt>
      <trkpt lat="45.57037" lon="5.73406">
        <ele>646.2</ele>
        <time>2021-08-23T12:17:41Z</time>
      </trkpt>
      <trkpt lat="45.57036" lon="5.73408">
        <ele>645.8</ele>
        <time>2021-08-23T12:17:42Z</time>
      </trkpt>
      <trkpt lat="45.57034" lon="5.73412">
        <ele>644.8</ele>
        <time>2021-08-23T12:17:43Z</time>
      </trkpt>
      <trkpt lat="45.57031" lon="5.73416">
        <ele>644</ele>
        <time>2021-08-23T12:17:45Z</time>
      </trkpt>
      <trkpt lat="45.57029" lon="5.73418">
        <ele>643.4</ele>
        <time>2021-08-23T12:17:46Z</time>
      </trkpt>
      <trkpt lat="45.57029" lon="5.73418">
        <ele>643.2</ele>
        <time>2021-08-23T12:17:47Z</time>
      </trkpt>
      <trkpt lat="45.57024" lon="5.73419">
        <ele>642</ele>
        <time>2021-08-23T12:17:48Z</time>
      </trkpt>
      <trkpt lat="45.5702" lon="5.7342">
        <ele>640.9</ele>
        <time>2021-08-23T12:17:50Z</time>
      </trkpt>
      <trkpt lat="45.57016" lon="5.7342">
        <ele>639.9</ele>
        <time>2021-08-23T12:17:51Z</time>
      </trkpt>
      <trkpt lat="45.57011" lon="5.73422">
        <ele>638.9</ele>
        <time>2021-08-23T12:17:52Z</time>
      </trkpt>
      <trkpt lat="45.5701" lon="5.73423">
        <ele>638.7</ele>
        <time>2021-08-23T12:17:53Z</time>
      </trkpt>
      <trkpt lat="45.57009" lon="5.73424">
        <ele>638.4</ele>
        <time>2021-08-23T12:17:55Z</time>
      </trkpt>
      <trkpt lat="45.57007" lon="5.73427">
        <ele>637.8</ele>
        <time>2021-08-23T12:17:56Z</time>
      </trkpt>
      <trkpt lat="45.57004" lon="5.73427">
        <ele>637.4</ele>
        <time>2021-08-23T12:17:58Z</time>
      </trkpt>
      <trkpt lat="45.57003" lon="5.73427">
        <ele>637.3</ele>
        <time>2021-08-23T12:17:59Z</time>
      </trkpt>
      <trkpt lat="45.57" lon="5.73425">
        <ele>636.9</ele>
        <time>2021-08-23T12:18:00Z</time>
      </trkpt>
      <trkpt lat="45.56997" lon="5.73422">
        <ele>636.5</ele>
        <time>2021-08-23T12:18:02Z</time>
      </trkpt>
      <trkpt lat="45.56994" lon="5.7342">
        <ele>636.2</ele>
        <time>2021-08-23T12:18:03Z</time>
      </trkpt>
      <trkpt lat="45.56991" lon="5.73418">
        <ele>635.9</ele>
        <time>2021-08-23T12:18:04Z</time>
      </trkpt>
      <trkpt lat="45.56987" lon="5.73416">
        <ele>635.7</ele>
        <time>2021-08-23T12:18:06Z</time>
      </trkpt>
      <trkpt lat="45.56983" lon="5.73415">
        <ele>635.5</ele>
        <time>2021-08-23T12:18:07Z</time>
      </trkpt>
      <trkpt lat="45.56981" lon="5.73413">
        <ele>635.4</ele>
        <time>2021-08-23T12:18:08Z</time>
      </trkpt>
      <trkpt lat="45.56979" lon="5.73411">
        <ele>635.3</ele>
        <time>2021-08-23T12:18:09Z</time>
      </trkpt>
      <trkpt lat="45.56976" lon="5.73409">
        <ele>635.2</ele>
        <time>2021-08-23T12:18:11Z</time>
      </trkpt>
      <trkpt lat="45.56974" lon="5.73407">
        <ele>635.2</ele>
        <time>2021-08-23T12:18:12Z</time>
      </trkpt>
      <trkpt lat="45.56972" lon="5.73406">
        <ele>635.2</ele>
        <time>2021-08-23T12:18:13Z</time>
      </trkpt>
      <trkpt lat="45.56972" lon="5.73241">
        <ele>630.4</ele>
        <time>2021-08-23T12:18:38Z</time>
      </trkpt>
      <trkpt lat="45.5697" lon="5.73227">
        <ele>629</ele>
        <time>2021-08-23T12:18:39Z</time>
      </trkpt>
      <trkpt lat="45.56968" lon="5.73223">
        <ele>628.5</ele>
        <time>2021-08-23T12:18:41Z</time>
      </trkpt>
      <trkpt lat="45.5697" lon="5.73214">
        <ele>627.6</ele>
        <time>2021-08-23T12:18:42Z</time>
      </trkpt>
      <trkpt lat="45.5697" lon="5.73207">
        <ele>627</ele>
        <time>2021-08-23T12:18:43Z</time>
      </trkpt>
      <trkpt lat="45.56968" lon="5.73203">
        <ele>626.6</ele>
        <time>2021-08-23T12:18:45Z</time>
      </trkpt>
      <trkpt lat="45.56966" lon="5.73199">
        <ele>626.2</ele>
        <time>2021-08-23T12:18:46Z</time>
      </trkpt>
      <trkpt lat="45.56965" lon="5.73196">
        <ele>625.8</ele>
        <time>2021-08-23T12:18:47Z</time>
      </trkpt>
      <trkpt lat="45.56964" lon="5.73194">
        <ele>625.6</ele>
        <time>2021-08-23T12:18:48Z</time>
      </trkpt>
      <trkpt lat="45.56962" lon="5.73193">
        <ele>625.5</ele>
        <time>2021-08-23T12:18:49Z</time>
      </trkpt>
      <trkpt lat="45.56932" lon="5.73214">
        <ele>621.5</ele>
        <time>2021-08-23T12:18:57Z</time>
      </trkpt>
      <trkpt lat="45.56928" lon="5.73215">
        <ele>620.9</ele>
        <time>2021-08-23T12:18:58Z</time>
      </trkpt>
      <trkpt lat="45.56925" lon="5.73224">
        <ele>620</ele>
        <time>2021-08-23T12:19:00Z</time>
      </trkpt>
      <trkpt lat="45.56924" lon="5.7323">
        <ele>619.4</ele>
        <time>2021-08-23T12:19:01Z</time>
      </trkpt>
      <trkpt lat="45.56923" lon="5.73234">
        <ele>619</ele>
        <time>2021-08-23T12:19:03Z</time>
      </trkpt>
      <trkpt lat="45.56921" lon="5.73235">
        <ele>618.7</ele>
        <time>2021-08-23T12:19:04Z</time>
      </trkpt>
      <trkpt lat="45.5692" lon="5.73234">
        <ele>618.5</ele>
        <time>2021-08-23T12:19:05Z</time>
      </trkpt>
      <trkpt lat="45.56916" lon="5.73233">
        <ele>618.1</ele>
        <time>2021-08-23T12:19:06Z</time>
      </trkpt>
      <trkpt lat="45.56913" lon="5.73232">
        <ele>617.7</ele>
        <time>2021-08-23T12:19:08Z</time>
      </trkpt>
      <trkpt lat="45.56904" lon="5.73231">
        <ele>616.8</ele>
        <time>2021-08-23T12:19:11Z</time>
      </trkpt>
      <trkpt lat="45.56874" lon="5.73226">
        <ele>612.5</ele>
        <time>2021-08-23T12:19:12Z</time>
      </trkpt>
      <trkpt lat="45.56863" lon="5.73223">
        <ele>610.5</ele>
        <time>2021-08-23T12:19:14Z</time>
      </trkpt>
      <trkpt lat="45.56843" lon="5.73215">
        <ele>607.3</ele>
        <time>2021-08-23T12:19:16Z</time>
      </trkpt>
      <trkpt lat="45.56836" lon="5.73215">
        <ele>606.4</ele>
        <time>2021-08-23T12:19:17Z</time>
      </trkpt>
      <trkpt lat="45.56821" lon="5.73211">
        <ele>604.8</ele>
        <time>2021-08-23T12:19:19Z</time>
      </trkpt>
      <trkpt lat="45.56812" lon="5.73206">
        <ele>604.1</ele>
        <time>2021-08-23T12:19:20Z</time>
      </trkpt>
      <trkpt lat="45.56794" lon="5.73197">
        <ele>603</ele>
        <time>2021-08-23T12:19:22Z</time>
      </trkpt>
      <trkpt lat="45.56776" lon="5.73182">
        <ele>602.1</ele>
        <time>2021-08-23T12:19:24Z</time>
      </trkpt>
      <trkpt lat="45.56769" lon="5.73176">
        <ele>601.9</ele>
        <time>2021-08-23T12:19:25Z</time>
      </trkpt>
      <trkpt lat="45.56763" lon="5.73172">
        <ele>601.8</ele>
        <time>2021-08-23T12:19:26Z</time>
      </trkpt>
      <trkpt lat="45.56762" lon="5.73177">
        <ele>601.8</ele>
        <time>2021-08-23T12:19:28Z</time>
      </trkpt>
      <trkpt lat="45.56762" lon="5.73182">
        <ele>601.9</ele>
        <time>2021-08-23T12:19:29Z</time>
      </trkpt>
      <trkpt lat="45.56761" lon="5.73189">
        <ele>602</ele>
        <time>2021-08-23T12:19:31Z</time>
      </trkpt>
      <trkpt lat="45.5676" lon="5.73195">
        <ele>602.1</ele>
        <time>2021-08-23T12:19:32Z</time>
      </trkpt>
      <trkpt lat="45.56761" lon="5.732">
        <ele>602.3</ele>
        <time>2021-08-23T12:19:34Z</time>
      </trkpt>
      <trkpt lat="45.56761" lon="5.732">
        <ele>602.3</ele>
        <time>2021-08-23T12:19:35Z</time>
      </trkpt>
      <trkpt lat="45.5676" lon="5.73206">
        <ele>602.5</ele>
        <time>2021-08-23T12:19:36Z</time>
      </trkpt>
      <trkpt lat="45.5677" lon="5.73291">
        <ele>605.9</ele>
        <time>2021-08-23T12:19:50Z</time>
      </trkpt>
      <trkpt lat="45.56769" lon="5.73296">
        <ele>605.9</ele>
        <time>2021-08-23T12:19:51Z</time>
      </trkpt>
      <trkpt lat="45.56768" lon="5.73304">
        <ele>605.9</ele>
        <time>2021-08-23T12:19:52Z</time>
      </trkpt>
      <trkpt lat="45.56766" lon="5.73312">
        <ele>606</ele>
        <time>2021-08-23T12:19:54Z</time>
      </trkpt>
      <trkpt lat="45.56763" lon="5.73318">
        <ele>606</ele>
        <time>2021-08-23T12:19:55Z</time>
      </trkpt>
      <trkpt lat="45.56761" lon="5.73323">
        <ele>606.1</ele>
        <time>2021-08-23T12:19:56Z</time>
      </trkpt>
      <trkpt lat="45.56757" lon="5.7333">
        <ele>606.4</ele>
        <time>2021-08-23T12:19:58Z</time>
      </trkpt>
      <trkpt lat="45.56755" lon="5.73335">
        <ele>606.6</ele>
        <time>2021-08-23T12:19:59Z</time>
      </trkpt>
      <trkpt lat="45.56753" lon="5.7334">
        <ele>606.9</ele>
        <time>2021-08-23T12:20:00Z</time>
      </trkpt>
      <trkpt lat="45.56747" lon="5.73346">
        <ele>607.3</ele>
        <time>2021-08-23T12:20:02Z</time>
      </trkpt>
      <trkpt lat="45.56743" lon="5.73348">
        <ele>607.6</ele>
        <time>2021-08-23T12:20:04Z</time>
      </trkpt>
      <trkpt lat="45.5674" lon="5.73352">
        <ele>607.9</ele>
        <time>2021-08-23T12:20:05Z</time>
      </trkpt>
      <trkpt lat="45.56739" lon="5.73354">
        <ele>607.9</ele>
        <time>2021-08-23T12:20:06Z</time>
      </trkpt>
      <trkpt lat="45.56735" lon="5.73356">
        <ele>607.4</ele>
        <time>2021-08-23T12:20:08Z</time>
      </trkpt>
      <trkpt lat="45.56732" lon="5.73349">
        <ele>606.8</ele>
        <time>2021-08-23T12:20:09Z</time>
      </trkpt>
      <trkpt lat="45.56728" lon="5.73345">
        <ele>606.4</ele>
        <time>2021-08-23T12:20:11Z</time>
      </trkpt>
      <trkpt lat="45.56725" lon="5.73345">
        <ele>606</ele>
        <time>2021-08-23T12:20:12Z</time>
      </trkpt>
      <trkpt lat="45.56723" lon="5.73341">
        <ele>605.7</ele>
        <time>2021-08-23T12:20:13Z</time>
      </trkpt>
      <trkpt lat="45.56722" lon="5.73341">
        <ele>605.6</ele>
        <time>2021-08-23T12:20:14Z</time>
      </trkpt>
      <trkpt lat="45.56717" lon="5.73332">
        <ele>604.8</ele>
        <time>2021-08-23T12:20:16Z</time>
      </trkpt>
      <trkpt lat="45.56717" lon="5.73332">
        <ele>604.7</ele>
        <time>2021-08-23T12:20:17Z</time>
      </trkpt>
      <trkpt lat="45.56717" lon="5.73332">
        <ele>604.7</ele>
        <time>2021-08-23T12:20:18Z</time>
      </trkpt>
      <trkpt lat="45.56717" lon="5.73332">
        <ele>604.7</ele>
        <time>2021-08-23T12:20:20Z</time>
      </trkpt>
      <trkpt lat="45.56717" lon="5.73333">
        <ele>604.6</ele>
        <time>2021-08-23T12:20:21Z</time>
      </trkpt>
      <trkpt lat="45.56717" lon="5.73334">
        <ele>604.5</ele>
        <time>2021-08-23T12:20:22Z</time>
      </trkpt>
      <trkpt lat="45.56717" lon="5.73336">
        <ele>604.4</ele>
        <time>2021-08-23T12:20:23Z</time>
      </trkpt>
      <trkpt lat="45.56716" lon="5.73336">
        <ele>604.3</ele>
        <time>2021-08-23T12:20:25Z</time>
      </trkpt>
      <trkpt lat="45.56702" lon="5.73335">
        <ele>603.1</ele>
        <time>2021-08-23T12:20:28Z</time>
      </trkpt>
      <trkpt lat="45.56693" lon="5.73331">
        <ele>602.4</ele>
        <time>2021-08-23T12:20:29Z</time>
      </trkpt>
      <trkpt lat="45.56686" lon="5.73327">
        <ele>601.9</ele>
        <time>2021-08-23T12:20:30Z</time>
      </trkpt>
      <trkpt lat="45.56679" lon="5.73326">
        <ele>601.5</ele>
        <time>2021-08-23T12:20:31Z</time>
      </trkpt>
      <trkpt lat="45.56673" lon="5.73324">
        <ele>601.2</ele>
        <time>2021-08-23T12:20:32Z</time>
      </trkpt>
      <trkpt lat="45.56661" lon="5.7332">
        <ele>600.8</ele>
        <time>2021-08-23T12:20:34Z</time>
      </trkpt>
      <trkpt lat="45.56652" lon="5.73318">
        <ele>600.9</ele>
        <time>2021-08-23T12:20:36Z</time>
      </trkpt>
      <trkpt lat="45.56651" lon="5.73317">
        <ele>600.9</ele>
        <time>2021-08-23T12:20:37Z</time>
      </trkpt>
      <trkpt lat="45.56647" lon="5.73316">
        <ele>601</ele>
        <time>2021-08-23T12:20:39Z</time>
      </trkpt>
      <trkpt lat="45.56644" lon="5.73316">
        <ele>601</ele>
        <time>2021-08-23T12:20:40Z</time>
      </trkpt>
      <trkpt lat="45.56639" lon="5.73316">
        <ele>601.1</ele>
        <time>2021-08-23T12:20:42Z</time>
      </trkpt>
      <trkpt lat="45.56638" lon="5.73317">
        <ele>601.1</ele>
        <time>2021-08-23T12:20:43Z</time>
      </trkpt>
      <trkpt lat="45.56636" lon="5.73318">
        <ele>601.1</ele>
        <time>2021-08-23T12:20:44Z</time>
      </trkpt>
      <trkpt lat="45.56633" lon="5.73319">
        <ele>601.1</ele>
        <time>2021-08-23T12:20:45Z</time>
      </trkpt>
      <trkpt lat="45.56632" lon="5.73319">
        <ele>601.1</ele>
        <time>2021-08-23T12:20:46Z</time>
      </trkpt>
      <trkpt lat="45.56629" lon="5.73321">
        <ele>601.1</ele>
        <time>2021-08-23T12:20:48Z</time>
      </trkpt>
      <trkpt lat="45.56626" lon="5.73321">
        <ele>601</ele>
        <time>2021-08-23T12:20:50Z</time>
      </trkpt>
      <trkpt lat="45.56622" lon="5.7332">
        <ele>600.9</ele>
        <time>2021-08-23T12:20:51Z</time>
      </trkpt>
      <trkpt lat="45.56618" lon="5.73318">
        <ele>600.8</ele>
        <time>2021-08-23T12:20:52Z</time>
      </trkpt>
      <trkpt lat="45.56616" lon="5.73316">
        <ele>600.7</ele>
        <time>2021-08-23T12:20:54Z</time>
      </trkpt>
      <trkpt lat="45.56614" lon="5.73313">
        <ele>600.5</ele>
        <time>2021-08-23T12:20:55Z</time>
      </trkpt>
      <trkpt lat="45.56612" lon="5.73309">
        <ele>600.2</ele>
        <time>2021-08-23T12:20:57Z</time>
      </trkpt>
      <trkpt lat="45.56611" lon="5.73307">
        <ele>600.2</ele>
        <time>2021-08-23T12:20:58Z</time>
      </trkpt>
      <trkpt lat="45.56611" lon="5.73306">
        <ele>600.2</ele>
        <time>2021-08-23T12:21:00Z</time>
      </trkpt>
      <trkpt lat="45.56611" lon="5.73306">
        <ele>599.5</ele>
        <time>2021-08-23T12:21:01Z</time>
      </trkpt>
      <trkpt lat="45.5661" lon="5.73306">
        <ele>599.5</ele>
        <time>2021-08-23T12:21:03Z</time>
      </trkpt>
      <trkpt lat="45.5661" lon="5.73306">
        <ele>599.5</ele>
        <time>2021-08-23T12:21:04Z</time>
      </trkpt>
      <trkpt lat="45.5661" lon="5.73306">
        <ele>599.5</ele>
        <time>2021-08-23T12:21:05Z</time>
      </trkpt>
      <trkpt lat="45.56604" lon="5.73291">
        <ele>596.9</ele>
        <time>2021-08-23T12:21:43Z</time>
      </trkpt>
      <trkpt lat="45.56603" lon="5.73291">
        <ele>596.9</ele>
        <time>2021-08-23T12:21:45Z</time>
      </trkpt>
      <trkpt lat="45.56602" lon="5.73291">
        <ele>596.9</ele>
        <time>2021-08-23T12:21:46Z</time>
      </trkpt>
      <trkpt lat="45.56601" lon="5.73291">
        <ele>596.7</ele>
        <time>2021-08-23T12:21:47Z</time>
      </trkpt>
      <trkpt lat="45.56601" lon="5.73291">
        <ele>596.7</ele>
        <time>2021-08-23T12:21:48Z</time>
      </trkpt>
      <trkpt lat="45.56601" lon="5.7329">
        <ele>596.7</ele>
        <time>2021-08-23T12:21:50Z</time>
      </trkpt>
      <trkpt lat="45.56602" lon="5.7329">
        <ele>596.9</ele>
        <time>2021-08-23T12:21:52Z</time>
      </trkpt>
      <trkpt lat="45.56603" lon="5.73289">
        <ele>596</ele>
        <time>2021-08-23T12:21:54Z</time>
      </trkpt>
      <trkpt lat="45.56604" lon="5.73289">
        <ele>596</ele>
        <time>2021-08-23T12:21:55Z</time>
      </trkpt>
      <trkpt lat="45.56605" lon="5.73288">
        <ele>596.2</ele>
        <time>2021-08-23T12:21:56Z</time>
      </trkpt>
      <trkpt lat="45.56606" lon="5.73288">
        <ele>596.2</ele>
        <time>2021-08-23T12:21:58Z</time>
      </trkpt>
      <trkpt lat="45.56607" lon="5.73287">
        <ele>596.2</ele>
        <time>2021-08-23T12:21:59Z</time>
      </trkpt>
      <trkpt lat="45.56608" lon="5.73287">
        <ele>596.4</ele>
        <time>2021-08-23T12:22:00Z</time>
      </trkpt>
      <trkpt lat="45.56609" lon="5.73286">
        <ele>596.4</ele>
        <time>2021-08-23T12:22:01Z</time>
      </trkpt>
      <trkpt lat="45.5661" lon="5.73286">
        <ele>596.4</ele>
        <time>2021-08-23T12:22:02Z</time>
      </trkpt>
      <trkpt lat="45.56611" lon="5.73286">
        <ele>596.7</ele>
        <time>2021-08-23T12:22:04Z</time>
      </trkpt>
      <trkpt lat="45.56612" lon="5.73285">
        <ele>596.7</ele>
        <time>2021-08-23T12:22:05Z</time>
      </trkpt>
      <trkpt lat="45.56613" lon="5.73285">
        <ele>596.7</ele>
        <time>2021-08-23T12:22:06Z</time>
      </trkpt>
      <trkpt lat="45.56614" lon="5.73285">
        <ele>595.9</ele>
        <time>2021-08-23T12:22:07Z</time>
      </trkpt>
      <trkpt lat="45.56615" lon="5.73284">
        <ele>595.9</ele>
        <time>2021-08-23T12:22:08Z</time>
      </trkpt>
      <trkpt lat="45.56617" lon="5.73284">
        <ele>595.9</ele>
        <time>2021-08-23T12:22:10Z</time>
      </trkpt>
      <trkpt lat="45.56618" lon="5.73284">
        <ele>596.1</ele>
        <time>2021-08-23T12:22:12Z</time>
      </trkpt>
      <trkpt lat="45.56618" lon="5.73284">
        <ele>596.1</ele>
        <time>2021-08-23T12:22:13Z</time>
      </trkpt>
      <trkpt lat="45.56619" lon="5.73284">
        <ele>596.1</ele>
        <time>2021-08-23T12:22:14Z</time>
      </trkpt>
      <trkpt lat="45.56619" lon="5.73284">
        <ele>596.1</ele>
        <time>2021-08-23T12:22:16Z</time>
      </trkpt>
      <trkpt lat="45.5662" lon="5.73283">
        <ele>596.1</ele>
        <time>2021-08-23T12:22:18Z</time>
      </trkpt>
      <trkpt lat="45.5662" lon="5.73283">
        <ele>596.1</ele>
        <time>2021-08-23T12:22:20Z</time>
      </trkpt>
      <trkpt lat="45.5662" lon="5.73283">
        <ele>596.3</ele>
        <time>2021-08-23T12:22:21Z</time>
      </trkpt>
      <trkpt lat="45.5662" lon="5.73283">
        <ele>596.3</ele>
        <time>2021-08-23T12:22:22Z</time>
      </trkpt>
      <trkpt lat="45.5662" lon="5.73283">
        <ele>596.3</ele>
        <time>2021-08-23T12:22:24Z</time>
      </trkpt>
      <trkpt lat="45.5662" lon="5.73283">
        <ele>596.3</ele>
        <time>2021-08-23T12:22:26Z</time>
      </trkpt>
      <trkpt lat="45.5662" lon="5.73283">
        <ele>596.3</ele>
        <time>2021-08-23T12:22:28Z</time>
      </trkpt>
      <trkpt lat="45.5662" lon="5.73283">
        <ele>596.3</ele>
        <time>2021-08-23T12:22:30Z</time>
      </trkpt>
      <trkpt lat="45.5662" lon="5.73283">
        <ele>596.3</ele>
        <time>2021-08-23T12:22:32Z</time>
      </trkpt>
      <trkpt lat="45.56608" lon="5.73275">
        <ele>593.3</ele>
        <time>2021-08-23T12:22:34Z</time>
      </trkpt>
      <trkpt lat="45.56617" lon="5.7328">
        <ele>595</ele>
        <time>2021-08-23T12:22:36Z</time>
      </trkpt>
      <trkpt lat="45.56616" lon="5.73282">
        <ele>595.9</ele>
        <time>2021-08-23T12:22:38Z</time>
      </trkpt>
      <trkpt lat="45.56615" lon="5.73284">
        <ele>595.9</ele>
        <time>2021-08-23T12:22:39Z</time>
      </trkpt>
      <trkpt lat="45.56629" lon="5.73272">
        <ele>594.8</ele>
        <time>2021-08-23T12:22:41Z</time>
      </trkpt>
      <trkpt lat="45.56638" lon="5.73264">
        <ele>593.2</ele>
        <time>2021-08-23T12:22:42Z</time>
      </trkpt>
      <trkpt lat="45.56652" lon="5.73248">
        <ele>589.8</ele>
        <time>2021-08-23T12:22:44Z</time>
      </trkpt>
      <trkpt lat="45.56661" lon="5.73232">
        <ele>584.8</ele>
        <time>2021-08-23T12:22:46Z</time>
      </trkpt>
      <trkpt lat="45.56666" lon="5.73223">
        <ele>582.3</ele>
        <time>2021-08-23T12:22:47Z</time>
      </trkpt>
      <trkpt lat="45.56669" lon="5.73216">
        <ele>579.6</ele>
        <time>2021-08-23T12:22:48Z</time>
      </trkpt>
      <trkpt lat="45.56668" lon="5.73216">
        <ele>579.3</ele>
        <time>2021-08-23T12:22:50Z</time>
      </trkpt>
      <trkpt lat="45.56658" lon="5.73224">
        <ele>581.7</ele>
        <time>2021-08-23T12:22:52Z</time>
      </trkpt>
      <trkpt lat="45.56656" lon="5.73227">
        <ele>583.2</ele>
        <time>2021-08-23T12:22:54Z</time>
      </trkpt>
      <trkpt lat="45.56655" lon="5.73228">
        <ele>583</ele>
        <time>2021-08-23T12:22:55Z</time>
      </trkpt>
      <trkpt lat="45.56655" lon="5.73229">
        <ele>583</ele>
        <time>2021-08-23T12:22:56Z</time>
      </trkpt>
      <trkpt lat="45.56653" lon="5.73233">
        <ele>585.8</ele>
        <time>2021-08-23T12:22:58Z</time>
      </trkpt>
      <trkpt lat="45.56604" lon="5.73293">
        <ele>596.9</ele>
        <time>2021-08-23T12:23:38Z</time>
      </trkpt>
      <trkpt lat="45.56598" lon="5.73293">
        <ele>597.4</ele>
        <time>2021-08-23T12:23:40Z</time>
      </trkpt>
      <trkpt lat="45.56599" lon="5.73292">
        <ele>596.7</ele>
        <time>2021-08-23T12:23:42Z</time>
      </trkpt>
      <trkpt lat="45.566" lon="5.73291">
        <ele>596.7</ele>
        <time>2021-08-23T12:23:44Z</time>
      </trkpt>
      <trkpt lat="45.56601" lon="5.7329">
        <ele>596.7</ele>
        <time>2021-08-23T12:23:46Z</time>
      </trkpt>
      <trkpt lat="45.56601" lon="5.7329">
        <ele>596.7</ele>
        <time>2021-08-23T12:23:47Z</time>
      </trkpt>
      <trkpt lat="45.56601" lon="5.7329">
        <ele>596.7</ele>
        <time>2021-08-23T12:23:48Z</time>
      </trkpt>
      <trkpt lat="45.56601" lon="5.7329">
        <ele>596.7</ele>
        <time>2021-08-23T12:23:50Z</time>
      </trkpt>
      <trkpt lat="45.56601" lon="5.7329">
        <ele>596.7</ele>
        <time>2021-08-23T12:23:51Z</time>
      </trkpt>
      <trkpt lat="45.56601" lon="5.7329">
        <ele>596.7</ele>
        <time>2021-08-23T12:23:53Z</time>
      </trkpt>
      <trkpt lat="45.56601" lon="5.7329">
        <ele>596.7</ele>
        <time>2021-08-23T12:23:55Z</time>
      </trkpt>
      <trkpt lat="45.56601" lon="5.7329">
        <ele>596.7</ele>
        <time>2021-08-23T12:23:56Z</time>
      </trkpt>
      <trkpt lat="45.56601" lon="5.7329">
        <ele>596.7</ele>
        <time>2021-08-23T12:23:58Z</time>
      </trkpt>
      <trkpt lat="45.56601" lon="5.7329">
        <ele>596.7</ele>
        <time>2021-08-23T12:24:00Z</time>
      </trkpt>
      <trkpt lat="45.56601" lon="5.7329">
        <ele>596.7</ele>
        <time>2021-08-23T12:24:02Z</time>
      </trkpt>
      <trkpt lat="45.56601" lon="5.7329">
        <ele>596.7</ele>
        <time>2021-08-23T12:24:04Z</time>
      </trkpt>
      <trkpt lat="45.56605" lon="5.73293">
        <ele>597.1</ele>
        <time>2021-08-23T12:24:06Z</time>
      </trkpt>
      <trkpt lat="45.56609" lon="5.73296">
        <ele>598.2</ele>
        <time>2021-08-23T12:24:08Z</time>
      </trkpt>
      <trkpt lat="45.5661" lon="5.73296">
        <ele>598.2</ele>
        <time>2021-08-23T12:24:10Z</time>
      </trkpt>
      <trkpt lat="45.5661" lon="5.73297">
        <ele>598.2</ele>
        <time>2021-08-23T12:24:11Z</time>
      </trkpt>
      <trkpt lat="45.5661" lon="5.73297">
        <ele>598.2</ele>
        <time>2021-08-23T12:24:12Z</time>
      </trkpt>
      <trkpt lat="45.5661" lon="5.73297">
        <ele>598.2</ele>
        <time>2021-08-23T12:24:14Z</time>
      </trkpt>
      <trkpt lat="45.5661" lon="5.73297">
        <ele>598.2</ele>
        <time>2021-08-23T12:24:16Z</time>
      </trkpt>
      <trkpt lat="45.5661" lon="5.73297">
        <ele>598.2</ele>
        <time>2021-08-23T12:24:17Z</time>
      </trkpt>
      <trkpt lat="45.5661" lon="5.73297">
        <ele>598.2</ele>
        <time>2021-08-23T12:24:19Z</time>
      </trkpt>
      <trkpt lat="45.5661" lon="5.73297">
        <ele>598.2</ele>
        <time>2021-08-23T12:24:20Z</time>
      </trkpt>
      <trkpt lat="45.5661" lon="5.73297">
        <ele>598.2</ele>
        <time>2021-08-23T12:24:21Z</time>
      </trkpt>
      <trkpt lat="45.5661" lon="5.73297">
        <ele>598.2</ele>
        <time>2021-08-23T12:24:22Z</time>
      </trkpt>
      <trkpt lat="45.5661" lon="5.73297">
        <ele>598.2</ele>
        <time>2021-08-23T12:24:23Z</time>
      </trkpt>
      <trkpt lat="45.5661" lon="5.73297">
        <ele>598.2</ele>
        <time>2021-08-23T12:24:24Z</time>
      </trkpt>
      <trkpt lat="45.5661" lon="5.73297">
        <ele>598.2</ele>
        <time>2021-08-23T12:24:25Z</time>
      </trkpt>
      <trkpt lat="45.5661" lon="5.73297">
        <ele>598.2</ele>
        <time>2021-08-23T12:24:27Z</time>
      </trkpt>
      <trkpt lat="45.5661" lon="5.73297">
        <ele>598.2</ele>
        <time>2021-08-23T12:24:28Z</time>
      </trkpt>
      <trkpt lat="45.5661" lon="5.73297">
        <ele>598.2</ele>
        <time>2021-08-23T12:24:30Z</time>
      </trkpt>
      <trkpt lat="45.5661" lon="5.73297">
        <ele>598.2</ele>
        <time>2021-08-23T12:24:31Z</time>
      </trkpt>
      <trkpt lat="45.5661" lon="5.73297">
        <ele>598.2</ele>
        <time>2021-08-23T12:24:33Z</time>
      </trkpt>
      <trkpt lat="45.5661" lon="5.73297">
        <ele>598.2</ele>
        <time>2021-08-23T12:24:34Z</time>
      </trkpt>
      <trkpt lat="45.5661" lon="5.73297">
        <ele>598.2</ele>
        <time>2021-08-23T12:24:35Z</time>
      </trkpt>
      <trkpt lat="45.5661" lon="5.73297">
        <ele>598.2</ele>
        <time>2021-08-23T12:24:36Z</time>
      </trkpt>
      <trkpt lat="45.5661" lon="5.73297">
        <ele>598.2</ele>
        <time>2021-08-23T12:24:38Z</time>
      </trkpt>
      <trkpt lat="45.5661" lon="5.73297">
        <ele>598.2</ele>
        <time>2021-08-23T12:24:39Z</time>
      </trkpt>
      <trkpt lat="45.5661" lon="5.73297">
        <ele>598.2</ele>
        <time>2021-08-23T12:24:41Z</time>
      </trkpt>
      <trkpt lat="45.5661" lon="5.73297">
        <ele>598.2</ele>
        <time>2021-08-23T12:24:43Z</time>
      </trkpt>
      <trkpt lat="45.5661" lon="5.73297">
        <ele>598.2</ele>
        <time>2021-08-23T12:24:45Z</time>
      </trkpt>
      <trkpt lat="45.5661" lon="5.73297">
        <ele>598.2</ele>
        <time>2021-08-23T12:24:46Z</time>
      </trkpt>
      <trkpt lat="45.5661" lon="5.73297">
        <ele>598.2</ele>
        <time>2021-08-23T12:24:47Z</time>
      </trkpt>
      <trkpt lat="45.5661" lon="5.73297">
        <ele>598.2</ele>
        <time>2021-08-23T12:24:48Z</time>
      </trkpt>
      <trkpt lat="45.56617" lon="5.73294">
        <ele>598.7</ele>
        <time>2021-08-23T12:24:50Z</time>
      </trkpt>
      <trkpt lat="45.5662" lon="5.73293">
        <ele>598.1</ele>
        <time>2021-08-23T12:24:52Z</time>
      </trkpt>
      <trkpt lat="45.56621" lon="5.73291">
        <ele>598.1</ele>
        <time>2021-08-23T12:24:53Z</time>
      </trkpt>
      <trkpt lat="45.56621" lon="5.7329">
        <ele>598.1</ele>
        <time>2021-08-23T12:24:54Z</time>
      </trkpt>
      <trkpt lat="45.56622" lon="5.7329">
        <ele>598.1</ele>
        <time>2021-08-23T12:24:56Z</time>
      </trkpt>
      <trkpt lat="45.56622" lon="5.7329">
        <ele>598.1</ele>
        <time>2021-08-23T12:24:58Z</time>
      </trkpt>
      <trkpt lat="45.56622" lon="5.7329">
        <ele>598.1</ele>
        <time>2021-08-23T12:24:59Z</time>
      </trkpt>
      <trkpt lat="45.56622" lon="5.7329">
        <ele>598.1</ele>
        <time>2021-08-23T12:25:01Z</time>
      </trkpt>
      <trkpt lat="45.56622" lon="5.7329">
        <ele>598.1</ele>
        <time>2021-08-23T12:25:02Z</time>
      </trkpt>
      <trkpt lat="45.56622" lon="5.7329">
        <ele>598.1</ele>
        <time>2021-08-23T12:25:04Z</time>
      </trkpt>
      <trkpt lat="45.56622" lon="5.7329">
        <ele>598.1</ele>
        <time>2021-08-23T12:25:05Z</time>
      </trkpt>
      <trkpt lat="45.56622" lon="5.7329">
        <ele>598.1</ele>
        <time>2021-08-23T12:25:06Z</time>
      </trkpt>
      <trkpt lat="45.56622" lon="5.7329">
        <ele>598.1</ele>
        <time>2021-08-23T12:25:08Z</time>
      </trkpt>
      <trkpt lat="45.56622" lon="5.7329">
        <ele>598.1</ele>
        <time>2021-08-23T12:25:09Z</time>
      </trkpt>
      <trkpt lat="45.56622" lon="5.7329">
        <ele>598.1</ele>
        <time>2021-08-23T12:25:11Z</time>
      </trkpt>
      <trkpt lat="45.56622" lon="5.7329">
        <ele>598.1</ele>
        <time>2021-08-23T12:25:12Z</time>
      </trkpt>
      <trkpt lat="45.56622" lon="5.7329">
        <ele>598.1</ele>
        <time>2021-08-23T12:25:14Z</time>
      </trkpt>
      <trkpt lat="45.56622" lon="5.7329">
        <ele>598.1</ele>
        <time>2021-08-23T12:25:16Z</time>
      </trkpt>
      <trkpt lat="45.56622" lon="5.7329">
        <ele>598.1</ele>
        <time>2021-08-23T12:25:17Z</time>
      </trkpt>
      <trkpt lat="45.56622" lon="5.7329">
        <ele>598.1</ele>
        <time>2021-08-23T12:25:18Z</time>
      </trkpt>
      <trkpt lat="45.56622" lon="5.7329">
        <ele>598.1</ele>
        <time>2021-08-23T12:25:20Z</time>
      </trkpt>
      <trkpt lat="45.56622" lon="5.7329">
        <ele>598.1</ele>
        <time>2021-08-23T12:25:22Z</time>
      </trkpt>
      <trkpt lat="45.56622" lon="5.7329">
        <ele>598.1</ele>
        <time>2021-08-23T12:25:23Z</time>
      </trkpt>
      <trkpt lat="45.56622" lon="5.7329">
        <ele>598.1</ele>
        <time>2021-08-23T12:25:24Z</time>
      </trkpt>
      <trkpt lat="45.56622" lon="5.7329">
        <ele>598.1</ele>
        <time>2021-08-23T12:25:26Z</time>
      </trkpt>
      <trkpt lat="45.56622" lon="5.7329">
        <ele>598.1</ele>
        <time>2021-08-23T12:25:28Z</time>
      </trkpt>
      <trkpt lat="45.56622" lon="5.7329">
        <ele>598.1</ele>
        <time>2021-08-23T12:25:30Z</time>
      </trkpt>
      <trkpt lat="45.56622" lon="5.7329">
        <ele>598.1</ele>
        <time>2021-08-23T12:25:32Z</time>
      </trkpt>
      <trkpt lat="45.56622" lon="5.7329">
        <ele>598.1</ele>
        <time>2021-08-23T12:25:34Z</time>
      </trkpt>
      <trkpt lat="45.56622" lon="5.7329">
        <ele>598.1</ele>
        <time>2021-08-23T12:25:36Z</time>
      </trkpt>
      <trkpt lat="45.56622" lon="5.7329">
        <ele>598.1</ele>
        <time>2021-08-23T12:25:37Z</time>
      </trkpt>
      <trkpt lat="45.56622" lon="5.7329">
        <ele>598.1</ele>
        <time>2021-08-23T12:25:39Z</time>
      </trkpt>
      <trkpt lat="45.56622" lon="5.7329">
        <ele>598.1</ele>
        <time>2021-08-23T12:25:40Z</time>
      </trkpt>
      <trkpt lat="45.56622" lon="5.7329">
        <ele>598.1</ele>
        <time>2021-08-23T12:25:42Z</time>
      </trkpt>
      <trkpt lat="45.56622" lon="5.7329">
        <ele>598.1</ele>
        <time>2021-08-23T12:25:44Z</time>
      </trkpt>
      <trkpt lat="45.56622" lon="5.7329">
        <ele>598.1</ele>
        <time>2021-08-23T12:25:46Z</time>
      </trkpt>
      <trkpt lat="45.56622" lon="5.7329">
        <ele>598.1</ele>
        <time>2021-08-23T12:25:48Z</time>
      </trkpt>
      <trkpt lat="45.5662" lon="5.73291">
        <ele>598.1</ele>
        <time>2021-08-23T12:25:50Z</time>
      </trkpt>
      <trkpt lat="45.56619" lon="5.73293">
        <ele>598</ele>
        <time>2021-08-23T12:25:52Z</time>
      </trkpt>
      <trkpt lat="45.56617" lon="5.73294">
        <ele>598.6</ele>
        <time>2021-08-23T12:25:55Z</time>
      </trkpt>
      <trkpt lat="45.56616" lon="5.73295">
        <ele>598.6</ele>
        <time>2021-08-23T12:25:57Z</time>
      </trkpt>
      <trkpt lat="45.56615" lon="5.73295">
        <ele>598.6</ele>
        <time>2021-08-23T12:25:58Z</time>
      </trkpt>
      <trkpt lat="45.56614" lon="5.73296">
        <ele>598.6</ele>
        <time>2021-08-23T12:26:01Z</time>
      </trkpt>
      <trkpt lat="45.56614" lon="5.73296">
        <ele>598.6</ele>
        <time>2021-08-23T12:26:02Z</time>
      </trkpt>
      <trkpt lat="45.56614" lon="5.73297">
        <ele>598.4</ele>
        <time>2021-08-23T12:26:04Z</time>
      </trkpt>
      <trkpt lat="45.56613" lon="5.73297">
        <ele>598.4</ele>
        <time>2021-08-23T12:26:06Z</time>
      </trkpt>
      <trkpt lat="45.56613" lon="5.73297">
        <ele>598.4</ele>
        <time>2021-08-23T12:26:08Z</time>
      </trkpt>
      <trkpt lat="45.56613" lon="5.73297">
        <ele>598.4</ele>
        <time>2021-08-23T12:26:10Z</time>
      </trkpt>
      <trkpt lat="45.56613" lon="5.73297">
        <ele>598.4</ele>
        <time>2021-08-23T12:26:12Z</time>
      </trkpt>
      <trkpt lat="45.56613" lon="5.73297">
        <ele>598.4</ele>
        <time>2021-08-23T12:26:13Z</time>
      </trkpt>
      <trkpt lat="45.56613" lon="5.73297">
        <ele>598.4</ele>
        <time>2021-08-23T12:26:15Z</time>
      </trkpt>
      <trkpt lat="45.56613" lon="5.73297">
        <ele>598.4</ele>
        <time>2021-08-23T12:26:17Z</time>
      </trkpt>
      <trkpt lat="45.56613" lon="5.73297">
        <ele>598.4</ele>
        <time>2021-08-23T12:26:19Z</time>
      </trkpt>
      <trkpt lat="45.56613" lon="5.73297">
        <ele>598.4</ele>
        <time>2021-08-23T12:26:20Z</time>
      </trkpt>
      <trkpt lat="45.56613" lon="5.73297">
        <ele>598.3</ele>
        <time>2021-08-23T12:26:22Z</time>
      </trkpt>
      <trkpt lat="45.56613" lon="5.73297">
        <ele>598.3</ele>
        <time>2021-08-23T12:26:23Z</time>
      </trkpt>
      <trkpt lat="45.56613" lon="5.73297">
        <ele>598.3</ele>
        <time>2021-08-23T12:26:25Z</time>
      </trkpt>
      <trkpt lat="45.56613" lon="5.73297">
        <ele>598.3</ele>
        <time>2021-08-23T12:26:26Z</time>
      </trkpt>
      <trkpt lat="45.56613" lon="5.73297">
        <ele>598.2</ele>
        <time>2021-08-23T12:26:28Z</time>
      </trkpt>
      <trkpt lat="45.56613" lon="5.73297">
        <ele>598.2</ele>
        <time>2021-08-23T12:26:29Z</time>
      </trkpt>
      <trkpt lat="45.56613" lon="5.73297">
        <ele>598.2</ele>
        <time>2021-08-23T12:26:31Z</time>
      </trkpt>
      <trkpt lat="45.56613" lon="5.73297">
        <ele>598.2</ele>
        <time>2021-08-23T12:26:32Z</time>
      </trkpt>
      <trkpt lat="45.56613" lon="5.73297">
        <ele>598.1</ele>
        <time>2021-08-23T12:26:34Z</time>
      </trkpt>
      <trkpt lat="45.56613" lon="5.73297">
        <ele>598.1</ele>
        <time>2021-08-23T12:26:35Z</time>
      </trkpt>
      <trkpt lat="45.56613" lon="5.73297">
        <ele>598.1</ele>
        <time>2021-08-23T12:26:37Z</time>
      </trkpt>
      <trkpt lat="45.56613" lon="5.73297">
        <ele>598.1</ele>
        <time>2021-08-23T12:26:39Z</time>
      </trkpt>
      <trkpt lat="45.56613" lon="5.73297">
        <ele>598</ele>
        <time>2021-08-23T12:26:41Z</time>
      </trkpt>
      <trkpt lat="45.56613" lon="5.73297">
        <ele>598</ele>
        <time>2021-08-23T12:26:43Z</time>
      </trkpt>
      <trkpt lat="45.56613" lon="5.73297">
        <ele>598</ele>
        <time>2021-08-23T12:26:44Z</time>
      </trkpt>
      <trkpt lat="45.56613" lon="5.73297">
        <ele>598</ele>
        <time>2021-08-23T12:26:46Z</time>
      </trkpt>
      <trkpt lat="45.56613" lon="5.73297">
        <ele>597.9</ele>
        <time>2021-08-23T12:26:47Z</time>
      </trkpt>
      <trkpt lat="45.56613" lon="5.73297">
        <ele>597.9</ele>
        <time>2021-08-23T12:26:48Z</time>
      </trkpt>
      <trkpt lat="45.56613" lon="5.73297">
        <ele>597.9</ele>
        <time>2021-08-23T12:26:50Z</time>
      </trkpt>
      <trkpt lat="45.56613" lon="5.73296">
        <ele>597.9</ele>
        <time>2021-08-23T12:26:52Z</time>
      </trkpt>
      <trkpt lat="45.56613" lon="5.73296">
        <ele>597.8</ele>
        <time>2021-08-23T12:26:53Z</time>
      </trkpt>
      <trkpt lat="45.56612" lon="5.73296">
        <ele>597.8</ele>
        <time>2021-08-23T12:26:55Z</time>
      </trkpt>
      <trkpt lat="45.56612" lon="5.73296">
        <ele>597.8</ele>
        <time>2021-08-23T12:26:56Z</time>
      </trkpt>
      <trkpt lat="45.56612" lon="5.73296">
        <ele>597.8</ele>
        <time>2021-08-23T12:26:58Z</time>
      </trkpt>
      <trkpt lat="45.56612" lon="5.73296">
        <ele>597.7</ele>
        <time>2021-08-23T12:26:59Z</time>
      </trkpt>
      <trkpt lat="45.56612" lon="5.73296">
        <ele>597.7</ele>
        <time>2021-08-23T12:27:00Z</time>
      </trkpt>
      <trkpt lat="45.56612" lon="5.73296">
        <ele>597.7</ele>
        <time>2021-08-23T12:27:02Z</time>
      </trkpt>
      <trkpt lat="45.56612" lon="5.73296">
        <ele>597.6</ele>
        <time>2021-08-23T12:27:04Z</time>
      </trkpt>
      <trkpt lat="45.56612" lon="5.73296">
        <ele>597.6</ele>
        <time>2021-08-23T12:27:05Z</time>
      </trkpt>
      <trkpt lat="45.56612" lon="5.73296">
        <ele>597.6</ele>
        <time>2021-08-23T12:27:06Z</time>
      </trkpt>
      <trkpt lat="45.56612" lon="5.73296">
        <ele>597.6</ele>
        <time>2021-08-23T12:27:08Z</time>
      </trkpt>
      <trkpt lat="45.56612" lon="5.73296">
        <ele>597.6</ele>
        <time>2021-08-23T12:27:10Z</time>
      </trkpt>
      <trkpt lat="45.56612" lon="5.73296">
        <ele>597.5</ele>
        <time>2021-08-23T12:27:11Z</time>
      </trkpt>
      <trkpt lat="45.56612" lon="5.73296">
        <ele>597.5</ele>
        <time>2021-08-23T12:27:13Z</time>
      </trkpt>
      <trkpt lat="45.56612" lon="5.73296">
        <ele>597.5</ele>
        <time>2021-08-23T12:27:15Z</time>
      </trkpt>
      <trkpt lat="45.56612" lon="5.73296">
        <ele>597.5</ele>
        <time>2021-08-23T12:27:16Z</time>
      </trkpt>
      <trkpt lat="45.56612" lon="5.73296">
        <ele>597.4</ele>
        <time>2021-08-23T12:27:18Z</time>
      </trkpt>
      <trkpt lat="45.56612" lon="5.73296">
        <ele>597.4</ele>
        <time>2021-08-23T12:27:21Z</time>
      </trkpt>
      <trkpt lat="45.56612" lon="5.73296">
        <ele>597.4</ele>
        <time>2021-08-23T12:27:22Z</time>
      </trkpt>
      <trkpt lat="45.56612" lon="5.73296">
        <ele>597.4</ele>
        <time>2021-08-23T12:27:24Z</time>
      </trkpt>
      <trkpt lat="45.56612" lon="5.73296">
        <ele>597.3</ele>
        <time>2021-08-23T12:27:26Z</time>
      </trkpt>
      <trkpt lat="45.56612" lon="5.73296">
        <ele>597.3</ele>
        <time>2021-08-23T12:27:27Z</time>
      </trkpt>
      <trkpt lat="45.56612" lon="5.73296">
        <ele>597.3</ele>
        <time>2021-08-23T12:27:28Z</time>
      </trkpt>
      <trkpt lat="45.56612" lon="5.73296">
        <ele>597.3</ele>
        <time>2021-08-23T12:27:29Z</time>
      </trkpt>
      <trkpt lat="45.56612" lon="5.73296">
        <ele>597.2</ele>
        <time>2021-08-23T12:27:31Z</time>
      </trkpt>
      <trkpt lat="45.56612" lon="5.73296">
        <ele>597.2</ele>
        <time>2021-08-23T12:27:33Z</time>
      </trkpt>
      <trkpt lat="45.56612" lon="5.73296">
        <ele>597.2</ele>
        <time>2021-08-23T12:27:34Z</time>
      </trkpt>
      <trkpt lat="45.56612" lon="5.73296">
        <ele>597.1</ele>
        <time>2021-08-23T12:27:36Z</time>
      </trkpt>
      <trkpt lat="45.56612" lon="5.73296">
        <ele>597.1</ele>
        <time>2021-08-23T12:27:38Z</time>
      </trkpt>
      <trkpt lat="45.56612" lon="5.73296">
        <ele>597</ele>
        <time>2021-08-23T12:27:39Z</time>
      </trkpt>
      <trkpt lat="45.56611" lon="5.73296">
        <ele>597</ele>
        <time>2021-08-23T12:27:41Z</time>
      </trkpt>
      <trkpt lat="45.56611" lon="5.73296">
        <ele>597</ele>
        <time>2021-08-23T12:27:42Z</time>
      </trkpt>
      <trkpt lat="45.56611" lon="5.73296">
        <ele>597</ele>
        <time>2021-08-23T12:27:44Z</time>
      </trkpt>
      <trkpt lat="45.56611" lon="5.73296">
        <ele>596.9</ele>
        <time>2021-08-23T12:27:45Z</time>
      </trkpt>
      <trkpt lat="45.56611" lon="5.73296">
        <ele>596.9</ele>
        <time>2021-08-23T12:27:46Z</time>
      </trkpt>
      <trkpt lat="45.56611" lon="5.73296">
        <ele>596.9</ele>
        <time>2021-08-23T12:27:48Z</time>
      </trkpt>
      <trkpt lat="45.56611" lon="5.73296">
        <ele>596.9</ele>
        <time>2021-08-23T12:27:50Z</time>
      </trkpt>
      <trkpt lat="45.56611" lon="5.73296">
        <ele>596.8</ele>
        <time>2021-08-23T12:27:51Z</time>
      </trkpt>
      <trkpt lat="45.56611" lon="5.73296">
        <ele>596.8</ele>
        <time>2021-08-23T12:27:53Z</time>
      </trkpt>
      <trkpt lat="45.56611" lon="5.73296">
        <ele>596.8</ele>
        <time>2021-08-23T12:27:54Z</time>
      </trkpt>
      <trkpt lat="45.56611" lon="5.73296">
        <ele>596.8</ele>
        <time>2021-08-23T12:27:56Z</time>
      </trkpt>
      <trkpt lat="45.56611" lon="5.73296">
        <ele>596.7</ele>
        <time>2021-08-23T12:27:57Z</time>
      </trkpt>
      <trkpt lat="45.56611" lon="5.73296">
        <ele>596.7</ele>
        <time>2021-08-23T12:27:58Z</time>
      </trkpt>
      <trkpt lat="45.56611" lon="5.73296">
        <ele>596.7</ele>
        <time>2021-08-23T12:27:59Z</time>
      </trkpt>
      <trkpt lat="45.56611" lon="5.73296">
        <ele>596.7</ele>
        <time>2021-08-23T12:28:00Z</time>
      </trkpt>
      <trkpt lat="45.56611" lon="5.73296">
        <ele>596.6</ele>
        <time>2021-08-23T12:28:02Z</time>
      </trkpt>
      <trkpt lat="45.56611" lon="5.73296">
        <ele>596.6</ele>
        <time>2021-08-23T12:28:03Z</time>
      </trkpt>
      <trkpt lat="45.56611" lon="5.73296">
        <ele>596.6</ele>
        <time>2021-08-23T12:28:04Z</time>
      </trkpt>
      <trkpt lat="45.56611" lon="5.73296">
        <ele>596.6</ele>
        <time>2021-08-23T12:28:05Z</time>
      </trkpt>
      <trkpt lat="45.56611" lon="5.73296">
        <ele>596.5</ele>
        <time>2021-08-23T12:28:06Z</time>
      </trkpt>
      <trkpt lat="45.56611" lon="5.73296">
        <ele>596.5</ele>
        <time>2021-08-23T12:28:08Z</time>
      </trkpt>
      <trkpt lat="45.56611" lon="5.73296">
        <ele>596.5</ele>
        <time>2021-08-23T12:28:10Z</time>
      </trkpt>
      <trkpt lat="45.56611" lon="5.73296">
        <ele>596.4</ele>
        <time>2021-08-23T12:28:11Z</time>
      </trkpt>
      <trkpt lat="45.56611" lon="5.73296">
        <ele>596.4</ele>
        <time>2021-08-23T12:28:12Z</time>
      </trkpt>
      <trkpt lat="45.56611" lon="5.73296">
        <ele>596.4</ele>
        <time>2021-08-23T12:28:14Z</time>
      </trkpt>
      <trkpt lat="45.56611" lon="5.73296">
        <ele>596.3</ele>
        <time>2021-08-23T12:28:16Z</time>
      </trkpt>
      <trkpt lat="45.56611" lon="5.73296">
        <ele>596.3</ele>
        <time>2021-08-23T12:28:17Z</time>
      </trkpt>
      <trkpt lat="45.56611" lon="5.73296">
        <ele>596.3</ele>
        <time>2021-08-23T12:28:19Z</time>
      </trkpt>
      <trkpt lat="45.56611" lon="5.73296">
        <ele>596.3</ele>
        <time>2021-08-23T12:28:20Z</time>
      </trkpt>
      <trkpt lat="45.56611" lon="5.73296">
        <ele>596.2</ele>
        <time>2021-08-23T12:28:22Z</time>
      </trkpt>
      <trkpt lat="45.5661" lon="5.73296">
        <ele>596.2</ele>
        <time>2021-08-23T12:28:24Z</time>
      </trkpt>
      <trkpt lat="45.5661" lon="5.73296">
        <ele>596.2</ele>
        <time>2021-08-23T12:28:26Z</time>
      </trkpt>
      <trkpt lat="45.5661" lon="5.73296">
        <ele>596.2</ele>
        <time>2021-08-23T12:28:28Z</time>
      </trkpt>
      <trkpt lat="45.5661" lon="5.73296">
        <ele>596.1</ele>
        <time>2021-08-23T12:28:30Z</time>
      </trkpt>
      <trkpt lat="45.5661" lon="5.73296">
        <ele>596.1</ele>
        <time>2021-08-23T12:28:32Z</time>
      </trkpt>
      <trkpt lat="45.5661" lon="5.73296">
        <ele>596.1</ele>
        <time>2021-08-23T12:28:34Z</time>
      </trkpt>
      <trkpt lat="45.5661" lon="5.73296">
        <ele>596.1</ele>
        <time>2021-08-23T12:28:35Z</time>
      </trkpt>
      <trkpt lat="45.5661" lon="5.73296">
        <ele>596</ele>
        <time>2021-08-23T12:28:36Z</time>
      </trkpt>
      <trkpt lat="45.5661" lon="5.73296">
        <ele>596</ele>
        <time>2021-08-23T12:28:37Z</time>
      </trkpt>
      <trkpt lat="45.5661" lon="5.73296">
        <ele>596</ele>
        <time>2021-08-23T12:28:39Z</time>
      </trkpt>
      <trkpt lat="45.5661" lon="5.73296">
        <ele>596</ele>
        <time>2021-08-23T12:28:40Z</time>
      </trkpt>
      <trkpt lat="45.5661" lon="5.73296">
        <ele>595.9</ele>
        <time>2021-08-23T12:28:42Z</time>
      </trkpt>
      <trkpt lat="45.5661" lon="5.73296">
        <ele>595.9</ele>
        <time>2021-08-23T12:28:44Z</time>
      </trkpt>
      <trkpt lat="45.5661" lon="5.73296">
        <ele>595.9</ele>
        <time>2021-08-23T12:28:46Z</time>
      </trkpt>
      <trkpt lat="45.5661" lon="5.73296">
        <ele>595.9</ele>
        <time>2021-08-23T12:28:47Z</time>
      </trkpt>
      <trkpt lat="45.5661" lon="5.73296">
        <ele>595.8</ele>
        <time>2021-08-23T12:28:48Z</time>
      </trkpt>
      <trkpt lat="45.5661" lon="5.73296">
        <ele>595.8</ele>
        <time>2021-08-23T12:28:50Z</time>
      </trkpt>
      <trkpt lat="45.5661" lon="5.73296">
        <ele>595.8</ele>
        <time>2021-08-23T12:28:51Z</time>
      </trkpt>
      <trkpt lat="45.5661" lon="5.73296">
        <ele>595.8</ele>
        <time>2021-08-23T12:28:53Z</time>
      </trkpt>
      <trkpt lat="45.5661" lon="5.73296">
        <ele>595.8</ele>
        <time>2021-08-23T12:28:54Z</time>
      </trkpt>
      <trkpt lat="45.5661" lon="5.73296">
        <ele>595.7</ele>
        <time>2021-08-23T12:28:56Z</time>
      </trkpt>
      <trkpt lat="45.5661" lon="5.73296">
        <ele>595.7</ele>
        <time>2021-08-23T12:28:57Z</time>
      </trkpt>
      <trkpt lat="45.5661" lon="5.73296">
        <ele>595.7</ele>
        <time>2021-08-23T12:28:59Z</time>
      </trkpt>
      <trkpt lat="45.5661" lon="5.73296">
        <ele>595.7</ele>
        <time>2021-08-23T12:29:01Z</time>
      </trkpt>
      <trkpt lat="45.5661" lon="5.73296">
        <ele>595.7</ele>
        <time>2021-08-23T12:29:02Z</time>
      </trkpt>
      <trkpt lat="45.5661" lon="5.73296">
        <ele>595.7</ele>
        <time>2021-08-23T12:29:04Z</time>
      </trkpt>
      <trkpt lat="45.5661" lon="5.73296">
        <ele>595.7</ele>
        <time>2021-08-23T12:29:05Z</time>
      </trkpt>
      <trkpt lat="45.5661" lon="5.73296">
        <ele>595.7</ele>
        <time>2021-08-23T12:29:06Z</time>
      </trkpt>
      <trkpt lat="45.5661" lon="5.73296">
        <ele>595.7</ele>
        <time>2021-08-23T12:29:08Z</time>
      </trkpt>
      <trkpt lat="45.56609" lon="5.73296">
        <ele>595.7</ele>
        <time>2021-08-23T12:29:10Z</time>
      </trkpt>
      <trkpt lat="45.56609" lon="5.73296">
        <ele>595.7</ele>
        <time>2021-08-23T12:29:11Z</time>
      </trkpt>
      <trkpt lat="45.56609" lon="5.73296">
        <ele>595.7</ele>
        <time>2021-08-23T12:29:12Z</time>
      </trkpt>
      <trkpt lat="45.56609" lon="5.73296">
        <ele>595.7</ele>
        <time>2021-08-23T12:29:14Z</time>
      </trkpt>
      <trkpt lat="45.56609" lon="5.73296">
        <ele>595.7</ele>
        <time>2021-08-23T12:29:15Z</time>
      </trkpt>
      <trkpt lat="45.56609" lon="5.73296">
        <ele>595.7</ele>
        <time>2021-08-23T12:29:16Z</time>
      </trkpt>
      <trkpt lat="45.56609" lon="5.73296">
        <ele>595.7</ele>
        <time>2021-08-23T12:29:18Z</time>
      </trkpt>
      <trkpt lat="45.56609" lon="5.73296">
        <ele>595.7</ele>
        <time>2021-08-23T12:29:20Z</time>
      </trkpt>
      <trkpt lat="45.56609" lon="5.73296">
        <ele>595.7</ele>
        <time>2021-08-23T12:29:21Z</time>
      </trkpt>
      <trkpt lat="45.56609" lon="5.73296">
        <ele>595.7</ele>
        <time>2021-08-23T12:29:23Z</time>
      </trkpt>
      <trkpt lat="45.56609" lon="5.73296">
        <ele>595.7</ele>
        <time>2021-08-23T12:29:24Z</time>
      </trkpt>
      <trkpt lat="45.56606" lon="5.73295">
        <ele>595.6</ele>
        <time>2021-08-23T12:29:25Z</time>
      </trkpt>
      <trkpt lat="45.56604" lon="5.73295">
        <ele>595.4</ele>
        <time>2021-08-23T12:29:27Z</time>
      </trkpt>
      <trkpt lat="45.56604" lon="5.73295">
        <ele>595.4</ele>
        <time>2021-08-23T12:29:29Z</time>
      </trkpt>
      <trkpt lat="45.56604" lon="5.73295">
        <ele>595.4</ele>
        <time>2021-08-23T12:29:31Z</time>
      </trkpt>
      <trkpt lat="45.56604" lon="5.73295">
        <ele>595.4</ele>
        <time>2021-08-23T12:29:32Z</time>
      </trkpt>
      <trkpt lat="45.56604" lon="5.73295">
        <ele>595.4</ele>
        <time>2021-08-23T12:29:34Z</time>
      </trkpt>
      <trkpt lat="45.56603" lon="5.73289">
        <ele>595.2</ele>
        <time>2021-08-23T12:29:37Z</time>
      </trkpt>
      <trkpt lat="45.56603" lon="5.73287">
        <ele>595.1</ele>
        <time>2021-08-23T12:29:38Z</time>
      </trkpt>
      <trkpt lat="45.56603" lon="5.73284">
        <ele>595</ele>
        <time>2021-08-23T12:29:40Z</time>
      </trkpt>
      <trkpt lat="45.56602" lon="5.73278">
        <ele>594.8</ele>
        <time>2021-08-23T12:29:42Z</time>
      </trkpt>
      <trkpt lat="45.56602" lon="5.73274">
        <ele>594.7</ele>
        <time>2021-08-23T12:29:44Z</time>
      </trkpt>
      <trkpt lat="45.56602" lon="5.73273">
        <ele>594.6</ele>
        <time>2021-08-23T12:29:46Z</time>
      </trkpt>
      <trkpt lat="45.56602" lon="5.73272">
        <ele>594.6</ele>
        <time>2021-08-23T12:29:48Z</time>
      </trkpt>
      <trkpt lat="45.56602" lon="5.73272">
        <ele>594.6</ele>
        <time>2021-08-23T12:29:50Z</time>
      </trkpt>
      <trkpt lat="45.56602" lon="5.73272">
        <ele>594.6</ele>
        <time>2021-08-23T12:29:52Z</time>
      </trkpt>
      <trkpt lat="45.56602" lon="5.73272">
        <ele>594.6</ele>
        <time>2021-08-23T12:29:54Z</time>
      </trkpt>
      <trkpt lat="45.56602" lon="5.73272">
        <ele>594.6</ele>
        <time>2021-08-23T12:29:55Z</time>
      </trkpt>
      <trkpt lat="45.56602" lon="5.73272">
        <ele>594.6</ele>
        <time>2021-08-23T12:29:57Z</time>
      </trkpt>
      <trkpt lat="45.56602" lon="5.73272">
        <ele>594.6</ele>
        <time>2021-08-23T12:29:58Z</time>
      </trkpt>
      <trkpt lat="45.56602" lon="5.73272">
        <ele>594.6</ele>
        <time>2021-08-23T12:29:59Z</time>
      </trkpt>
      <trkpt lat="45.56606" lon="5.73274">
        <ele>594.4</ele>
        <time>2021-08-23T12:30:01Z</time>
      </trkpt>
      <trkpt lat="45.56609" lon="5.73275">
        <ele>594.3</ele>
        <time>2021-08-23T12:30:02Z</time>
      </trkpt>
      <trkpt lat="45.56612" lon="5.73278">
        <ele>594.1</ele>
        <time>2021-08-23T12:30:04Z</time>
      </trkpt>
      <trkpt lat="45.56612" lon="5.73278">
        <ele>594.1</ele>
        <time>2021-08-23T12:30:05Z</time>
      </trkpt>
      <trkpt lat="45.56613" lon="5.73279">
        <ele>594.1</ele>
        <time>2021-08-23T12:30:07Z</time>
      </trkpt>
      <trkpt lat="45.56613" lon="5.73279">
        <ele>594.1</ele>
        <time>2021-08-23T12:30:08Z</time>
      </trkpt>
      <trkpt lat="45.56613" lon="5.73279">
        <ele>594.1</ele>
        <time>2021-08-23T12:30:09Z</time>
      </trkpt>
      <trkpt lat="45.56613" lon="5.73279">
        <ele>594.1</ele>
        <time>2021-08-23T12:30:11Z</time>
      </trkpt>
      <trkpt lat="45.56613" lon="5.73279">
        <ele>594.1</ele>
        <time>2021-08-23T12:30:12Z</time>
      </trkpt>
      <trkpt lat="45.56613" lon="5.73279">
        <ele>594.1</ele>
        <time>2021-08-23T12:30:14Z</time>
      </trkpt>
      <trkpt lat="45.56611" lon="5.73276">
        <ele>593.9</ele>
        <time>2021-08-23T12:30:16Z</time>
      </trkpt>
      <trkpt lat="45.56612" lon="5.73277">
        <ele>593.9</ele>
        <time>2021-08-23T12:30:17Z</time>
      </trkpt>
      <trkpt lat="45.56612" lon="5.73278">
        <ele>593.8</ele>
        <time>2021-08-23T12:30:18Z</time>
      </trkpt>
      <trkpt lat="45.56613" lon="5.73279">
        <ele>593.8</ele>
        <time>2021-08-23T12:30:20Z</time>
      </trkpt>
      <trkpt lat="45.56613" lon="5.73279">
        <ele>593.8</ele>
        <time>2021-08-23T12:30:22Z</time>
      </trkpt>
      <trkpt lat="45.56613" lon="5.73279">
        <ele>593.8</ele>
        <time>2021-08-23T12:30:23Z</time>
      </trkpt>
      <trkpt lat="45.56613" lon="5.73279">
        <ele>593.8</ele>
        <time>2021-08-23T12:30:24Z</time>
      </trkpt>
      <trkpt lat="45.56613" lon="5.73279">
        <ele>593.8</ele>
        <time>2021-08-23T12:30:26Z</time>
      </trkpt>
      <trkpt lat="45.56613" lon="5.73279">
        <ele>593.8</ele>
        <time>2021-08-23T12:30:28Z</time>
      </trkpt>
      <trkpt lat="45.56613" lon="5.73279">
        <ele>593.8</ele>
        <time>2021-08-23T12:30:29Z</time>
      </trkpt>
      <trkpt lat="45.56613" lon="5.73279">
        <ele>593.8</ele>
        <time>2021-08-23T12:30:31Z</time>
      </trkpt>
      <trkpt lat="45.56612" lon="5.7328">
        <ele>593.7</ele>
        <time>2021-08-23T12:30:32Z</time>
      </trkpt>
      <trkpt lat="45.56612" lon="5.73281">
        <ele>593.7</ele>
        <time>2021-08-23T12:30:33Z</time>
      </trkpt>
      <trkpt lat="45.56611" lon="5.73283">
        <ele>593.6</ele>
        <time>2021-08-23T12:30:34Z</time>
      </trkpt>
      <trkpt lat="45.5661" lon="5.73285">
        <ele>593.5</ele>
        <time>2021-08-23T12:30:36Z</time>
      </trkpt>
      <trkpt lat="45.56608" lon="5.73289">
        <ele>593.4</ele>
        <time>2021-08-23T12:30:38Z</time>
      </trkpt>
      <trkpt lat="45.56607" lon="5.73288">
        <ele>593.3</ele>
        <time>2021-08-23T12:30:40Z</time>
      </trkpt>
      <trkpt lat="45.56607" lon="5.73288">
        <ele>593.3</ele>
        <time>2021-08-23T12:30:41Z</time>
      </trkpt>
      <trkpt lat="45.56607" lon="5.73289">
        <ele>593.3</ele>
        <time>2021-08-23T12:30:42Z</time>
      </trkpt>
      <trkpt lat="45.56606" lon="5.73291">
        <ele>593.2</ele>
        <time>2021-08-23T12:30:45Z</time>
      </trkpt>
      <trkpt lat="45.56606" lon="5.73291">
        <ele>593.2</ele>
        <time>2021-08-23T12:30:46Z</time>
      </trkpt>
      <trkpt lat="45.56606" lon="5.73292">
        <ele>593.2</ele>
        <time>2021-08-23T12:30:48Z</time>
      </trkpt>
      <trkpt lat="45.56606" lon="5.73293">
        <ele>593.1</ele>
        <time>2021-08-23T12:30:49Z</time>
      </trkpt>
      <trkpt lat="45.56606" lon="5.73293">
        <ele>593.1</ele>
        <time>2021-08-23T12:30:50Z</time>
      </trkpt>
      <trkpt lat="45.56606" lon="5.73294">
        <ele>593.1</ele>
        <time>2021-08-23T12:30:52Z</time>
      </trkpt>
      <trkpt lat="45.56606" lon="5.73294">
        <ele>593.1</ele>
        <time>2021-08-23T12:30:53Z</time>
      </trkpt>
      <trkpt lat="45.56606" lon="5.73294">
        <ele>593.1</ele>
        <time>2021-08-23T12:30:54Z</time>
      </trkpt>
      <trkpt lat="45.56606" lon="5.73293">
        <ele>593</ele>
        <time>2021-08-23T12:30:56Z</time>
      </trkpt>
      <trkpt lat="45.56605" lon="5.7329">
        <ele>592.9</ele>
        <time>2021-08-23T12:30:58Z</time>
      </trkpt>
      <trkpt lat="45.56604" lon="5.73289">
        <ele>592.9</ele>
        <time>2021-08-23T12:30:59Z</time>
      </trkpt>
      <trkpt lat="45.56603" lon="5.73288">
        <ele>592.9</ele>
        <time>2021-08-23T12:31:00Z</time>
      </trkpt>
      <trkpt lat="45.56597" lon="5.73287">
        <ele>592.5</ele>
        <time>2021-08-23T12:31:02Z</time>
      </trkpt>
      <trkpt lat="45.56589" lon="5.73286">
        <ele>592.2</ele>
        <time>2021-08-23T12:31:04Z</time>
      </trkpt>
      <trkpt lat="45.56586" lon="5.73287">
        <ele>592.1</ele>
        <time>2021-08-23T12:31:05Z</time>
      </trkpt>
      <trkpt lat="45.56585" lon="5.73287">
        <ele>592.1</ele>
        <time>2021-08-23T12:31:06Z</time>
      </trkpt>
      <trkpt lat="45.56585" lon="5.7329">
        <ele>592</ele>
        <time>2021-08-23T12:31:08Z</time>
      </trkpt>
      <trkpt lat="45.56585" lon="5.73292">
        <ele>591.9</ele>
        <time>2021-08-23T12:31:09Z</time>
      </trkpt>
      <trkpt lat="45.56586" lon="5.73295">
        <ele>591.8</ele>
        <time>2021-08-23T12:31:10Z</time>
      </trkpt>
      <trkpt lat="45.56586" lon="5.73298">
        <ele>591.7</ele>
        <time>2021-08-23T12:31:11Z</time>
      </trkpt>
      <trkpt lat="45.56587" lon="5.73301">
        <ele>591.7</ele>
        <time>2021-08-23T12:31:13Z</time>
      </trkpt>
      <trkpt lat="45.56587" lon="5.73304">
        <ele>591.6</ele>
        <time>2021-08-23T12:31:14Z</time>
      </trkpt>
      <trkpt lat="45.56588" lon="5.73306">
        <ele>591.5</ele>
        <time>2021-08-23T12:31:16Z</time>
      </trkpt>
      <trkpt lat="45.56589" lon="5.73309">
        <ele>591.4</ele>
        <time>2021-08-23T13:01:15Z</time>
      </trkpt>
      <trkpt lat="45.56589" lon="5.73312">
        <ele>591.4</ele>
        <time>2021-08-23T13:01:16Z</time>
      </trkpt>
      <trkpt lat="45.56584" lon="5.73319">
        <ele>591.1</ele>
        <time>2021-08-23T13:01:18Z</time>
      </trkpt>
      <trkpt lat="45.56582" lon="5.73322">
        <ele>591</ele>
        <time>2021-08-23T13:01:19Z</time>
      </trkpt>
      <trkpt lat="45.56575" lon="5.73329">
        <ele>590.8</ele>
        <time>2021-08-23T13:01:21Z</time>
      </trkpt>
      <trkpt lat="45.56568" lon="5.73337">
        <ele>590.5</ele>
        <time>2021-08-23T13:01:23Z</time>
      </trkpt>
      <trkpt lat="45.56566" lon="5.7334">
        <ele>590.4</ele>
        <time>2021-08-23T13:01:24Z</time>
      </trkpt>
      <trkpt lat="45.56563" lon="5.7335">
        <ele>590.2</ele>
        <time>2021-08-23T13:01:26Z</time>
      </trkpt>
      <trkpt lat="45.56562" lon="5.73355">
        <ele>590.1</ele>
        <time>2021-08-23T13:01:27Z</time>
      </trkpt>
      <trkpt lat="45.56563" lon="5.73368">
        <ele>589.8</ele>
        <time>2021-08-23T13:01:29Z</time>
      </trkpt>
      <trkpt lat="45.56565" lon="5.73379">
        <ele>589.6</ele>
        <time>2021-08-23T13:01:31Z</time>
      </trkpt>
      <trkpt lat="45.56567" lon="5.73384">
        <ele>589.5</ele>
        <time>2021-08-23T13:01:32Z</time>
      </trkpt>
      <trkpt lat="45.5657" lon="5.73391">
        <ele>589.6</ele>
        <time>2021-08-23T13:01:34Z</time>
      </trkpt>
      <trkpt lat="45.56571" lon="5.73399">
        <ele>589.5</ele>
        <time>2021-08-23T13:01:36Z</time>
      </trkpt>
      <trkpt lat="45.56572" lon="5.73402">
        <ele>589.5</ele>
        <time>2021-08-23T13:01:38Z</time>
      </trkpt>
      <trkpt lat="45.56573" lon="5.734">
        <ele>589.4</ele>
        <time>2021-08-23T13:01:40Z</time>
      </trkpt>
      <trkpt lat="45.56574" lon="5.73399">
        <ele>589.4</ele>
        <time>2021-08-23T13:01:41Z</time>
      </trkpt>
      <trkpt lat="45.56575" lon="5.73398">
        <ele>589.4</ele>
        <time>2021-08-23T13:01:42Z</time>
      </trkpt>
      <trkpt lat="45.56574" lon="5.73397">
        <ele>589.4</ele>
        <time>2021-08-23T13:01:44Z</time>
      </trkpt>
      <trkpt lat="45.56572" lon="5.7339">
        <ele>589.3</ele>
        <time>2021-08-23T13:01:46Z</time>
      </trkpt>
      <trkpt lat="45.56571" lon="5.73377">
        <ele>594.3</ele>
        <time>2021-08-23T13:01:48Z</time>
      </trkpt>
      <trkpt lat="45.56571" lon="5.73368">
        <ele>594.7</ele>
        <time>2021-08-23T13:01:50Z</time>
      </trkpt>
      <trkpt lat="45.5657" lon="5.73358">
        <ele>595.2</ele>
        <time>2021-08-23T13:01:52Z</time>
      </trkpt>
      <trkpt lat="45.5657" lon="5.73358">
        <ele>595.2</ele>
        <time>2021-08-23T13:01:52Z</time>
      </trkpt>
      <trkpt lat="45.5657" lon="5.73349">
        <ele>595.7</ele>
        <time>2021-08-23T13:01:54Z</time>
      </trkpt>
      <trkpt lat="45.56571" lon="5.73344">
        <ele>596.1</ele>
        <time>2021-08-23T13:01:55Z</time>
      </trkpt>
      <trkpt lat="45.56571" lon="5.7334">
        <ele>596.4</ele>
        <time>2021-08-23T13:01:56Z</time>
      </trkpt>
      <trkpt lat="45.56572" lon="5.73337">
        <ele>596.7</ele>
        <time>2021-08-23T13:01:58Z</time>
      </trkpt>
      <trkpt lat="45.56572" lon="5.73338">
        <ele>596.7</ele>
        <time>2021-08-23T13:01:59Z</time>
      </trkpt>
      <trkpt lat="45.56572" lon="5.73337">
        <ele>596.8</ele>
        <time>2021-08-23T13:02:01Z</time>
      </trkpt>
      <trkpt lat="45.56573" lon="5.73337">
        <ele>596.8</ele>
        <time>2021-08-23T13:02:02Z</time>
      </trkpt>
      <trkpt lat="45.56573" lon="5.73337">
        <ele>596.9</ele>
        <time>2021-08-23T13:02:04Z</time>
      </trkpt>
      <trkpt lat="45.56573" lon="5.73337">
        <ele>596.9</ele>
        <time>2021-08-23T13:02:06Z</time>
      </trkpt>
      <trkpt lat="45.56573" lon="5.73337">
        <ele>596.9</ele>
        <time>2021-08-23T13:02:08Z</time>
      </trkpt>
      <trkpt lat="45.56466" lon="5.73344">
        <ele>607</ele>
        <time>2021-08-23T13:03:59Z</time>
      </trkpt>
      <trkpt lat="45.56461" lon="5.73348">
        <ele>607</ele>
        <time>2021-08-23T13:04:01Z</time>
      </trkpt>
      <trkpt lat="45.56458" lon="5.7335">
        <ele>607.1</ele>
        <time>2021-08-23T13:04:02Z</time>
      </trkpt>
      <trkpt lat="45.56452" lon="5.73353">
        <ele>607.3</ele>
        <time>2021-08-23T13:04:03Z</time>
      </trkpt>
      <trkpt lat="45.56449" lon="5.73355">
        <ele>607.5</ele>
        <time>2021-08-23T13:04:04Z</time>
      </trkpt>
      <trkpt lat="45.56444" lon="5.73355">
        <ele>607.8</ele>
        <time>2021-08-23T13:04:06Z</time>
      </trkpt>
      <trkpt lat="45.56441" lon="5.73355">
        <ele>608</ele>
        <time>2021-08-23T13:04:07Z</time>
      </trkpt>
      <trkpt lat="45.56437" lon="5.73354">
        <ele>608.3</ele>
        <time>2021-08-23T13:04:08Z</time>
      </trkpt>
      <trkpt lat="45.56431" lon="5.73352">
        <ele>608.7</ele>
        <time>2021-08-23T13:04:09Z</time>
      </trkpt>
      <trkpt lat="45.56427" lon="5.7335">
        <ele>609</ele>
        <time>2021-08-23T13:04:10Z</time>
      </trkpt>
      <trkpt lat="45.56422" lon="5.73348">
        <ele>609.2</ele>
        <time>2021-08-23T13:04:11Z</time>
      </trkpt>
      <trkpt lat="45.56415" lon="5.73343">
        <ele>609.4</ele>
        <time>2021-08-23T13:04:13Z</time>
      </trkpt>
      <trkpt lat="45.56412" lon="5.7334">
        <ele>609.4</ele>
        <time>2021-08-23T13:04:14Z</time>
      </trkpt>
      <trkpt lat="45.56408" lon="5.73335">
        <ele>609.4</ele>
        <time>2021-08-23T13:04:17Z</time>
      </trkpt>
      <trkpt lat="45.56406" lon="5.73332">
        <ele>609.3</ele>
        <time>2021-08-23T13:04:18Z</time>
      </trkpt>
      <trkpt lat="45.56403" lon="5.7333">
        <ele>609.3</ele>
        <time>2021-08-23T13:04:19Z</time>
      </trkpt>
      <trkpt lat="45.564" lon="5.73328">
        <ele>609.1</ele>
        <time>2021-08-23T13:04:20Z</time>
      </trkpt>
      <trkpt lat="45.56396" lon="5.73327">
        <ele>609</ele>
        <time>2021-08-23T13:04:21Z</time>
      </trkpt>
      <trkpt lat="45.56392" lon="5.73327">
        <ele>608.8</ele>
        <time>2021-08-23T13:04:23Z</time>
      </trkpt>
      <trkpt lat="45.56387" lon="5.73326">
        <ele>608.5</ele>
        <time>2021-08-23T13:04:24Z</time>
      </trkpt>
      <trkpt lat="45.56385" lon="5.73325">
        <ele>608.3</ele>
        <time>2021-08-23T13:04:26Z</time>
      </trkpt>
      <trkpt lat="45.56384" lon="5.73324">
        <ele>608.3</ele>
        <time>2021-08-23T13:04:27Z</time>
      </trkpt>
      <trkpt lat="45.5638" lon="5.73323">
        <ele>607.9</ele>
        <time>2021-08-23T13:04:29Z</time>
      </trkpt>
      <trkpt lat="45.56378" lon="5.73322">
        <ele>607.8</ele>
        <time>2021-08-23T13:04:30Z</time>
      </trkpt>
      <trkpt lat="45.56374" lon="5.73322">
        <ele>607.5</ele>
        <time>2021-08-23T13:04:31Z</time>
      </trkpt>
      <trkpt lat="45.5637" lon="5.73323">
        <ele>607.1</ele>
        <time>2021-08-23T13:04:33Z</time>
      </trkpt>
      <trkpt lat="45.56369" lon="5.73323">
        <ele>607</ele>
        <time>2021-08-23T13:04:34Z</time>
      </trkpt>
      <trkpt lat="45.56366" lon="5.73324">
        <ele>606.7</ele>
        <time>2021-08-23T13:04:36Z</time>
      </trkpt>
      <trkpt lat="45.56363" lon="5.73327">
        <ele>606.3</ele>
        <time>2021-08-23T13:04:37Z</time>
      </trkpt>
      <trkpt lat="45.56359" lon="5.73328">
        <ele>605.9</ele>
        <time>2021-08-23T13:04:38Z</time>
      </trkpt>
      <trkpt lat="45.56356" lon="5.7333">
        <ele>605.5</ele>
        <time>2021-08-23T13:04:40Z</time>
      </trkpt>
      <trkpt lat="45.56351" lon="5.73332">
        <ele>605</ele>
        <time>2021-08-23T13:04:41Z</time>
      </trkpt>
      <trkpt lat="45.56349" lon="5.73332">
        <ele>604.8</ele>
        <time>2021-08-23T13:04:42Z</time>
      </trkpt>
      <trkpt lat="45.56344" lon="5.73332">
        <ele>604.2</ele>
        <time>2021-08-23T13:04:43Z</time>
      </trkpt>
      <trkpt lat="45.56338" lon="5.73331">
        <ele>603.6</ele>
        <time>2021-08-23T13:04:44Z</time>
      </trkpt>
      <trkpt lat="45.5633" lon="5.73328">
        <ele>602.9</ele>
        <time>2021-08-23T13:04:46Z</time>
      </trkpt>
      <trkpt lat="45.56326" lon="5.73328">
        <ele>602.6</ele>
        <time>2021-08-23T13:04:47Z</time>
      </trkpt>
      <trkpt lat="45.56322" lon="5.73328">
        <ele>602.2</ele>
        <time>2021-08-23T13:04:48Z</time>
      </trkpt>
      <trkpt lat="45.56319" lon="5.73328">
        <ele>602</ele>
        <time>2021-08-23T13:04:49Z</time>
      </trkpt>
      <trkpt lat="45.56314" lon="5.73326">
        <ele>601.6</ele>
        <time>2021-08-23T13:04:51Z</time>
      </trkpt>
      <trkpt lat="45.5631" lon="5.73322">
        <ele>601.2</ele>
        <time>2021-08-23T13:04:52Z</time>
      </trkpt>
      <trkpt lat="45.56306" lon="5.73319">
        <ele>600.8</ele>
        <time>2021-08-23T13:04:53Z</time>
      </trkpt>
      <trkpt lat="45.56304" lon="5.73318">
        <ele>600.6</ele>
        <time>2021-08-23T13:04:54Z</time>
      </trkpt>
      <trkpt lat="45.56302" lon="5.73317">
        <ele>600.4</ele>
        <time>2021-08-23T13:04:56Z</time>
      </trkpt>
      <trkpt lat="45.56297" lon="5.73318">
        <ele>599.9</ele>
        <time>2021-08-23T13:04:57Z</time>
      </trkpt>
      <trkpt lat="45.56293" lon="5.73318">
        <ele>599.3</ele>
        <time>2021-08-23T13:04:58Z</time>
      </trkpt>
      <trkpt lat="45.56289" lon="5.73317">
        <ele>598.8</ele>
        <time>2021-08-23T13:04:59Z</time>
      </trkpt>
      <trkpt lat="45.56283" lon="5.73316">
        <ele>598.2</ele>
        <time>2021-08-23T13:05:00Z</time>
      </trkpt>
      <trkpt lat="45.56276" lon="5.73311">
        <ele>597.4</ele>
        <time>2021-08-23T13:05:01Z</time>
      </trkpt>
      <trkpt lat="45.56269" lon="5.73306">
        <ele>596.7</ele>
        <time>2021-08-23T13:05:03Z</time>
      </trkpt>
      <trkpt lat="45.56261" lon="5.73303">
        <ele>596.1</ele>
        <time>2021-08-23T13:05:04Z</time>
      </trkpt>
      <trkpt lat="45.56256" lon="5.73304">
        <ele>595.8</ele>
        <time>2021-08-23T13:05:05Z</time>
      </trkpt>
      <trkpt lat="45.5625" lon="5.73307">
        <ele>595.6</ele>
        <time>2021-08-23T13:05:07Z</time>
      </trkpt>
      <trkpt lat="45.56247" lon="5.7331">
        <ele>595.5</ele>
        <time>2021-08-23T13:05:08Z</time>
      </trkpt>
      <trkpt lat="45.56244" lon="5.73314">
        <ele>595.3</ele>
        <time>2021-08-23T13:05:09Z</time>
      </trkpt>
      <trkpt lat="45.56241" lon="5.73318">
        <ele>595.5</ele>
        <time>2021-08-23T13:05:10Z</time>
      </trkpt>
      <trkpt lat="45.56239" lon="5.73319">
        <ele>595.6</ele>
        <time>2021-08-23T13:05:11Z</time>
      </trkpt>
      <trkpt lat="45.56237" lon="5.73321">
        <ele>595.7</ele>
        <time>2021-08-23T13:05:13Z</time>
      </trkpt>
      <trkpt lat="45.56238" lon="5.73322">
        <ele>595.8</ele>
        <time>2021-08-23T13:05:14Z</time>
      </trkpt>
      <trkpt lat="45.56241" lon="5.73324">
        <ele>596</ele>
        <time>2021-08-23T13:05:16Z</time>
      </trkpt>
      <trkpt lat="45.56241" lon="5.73324">
        <ele>596</ele>
        <time>2021-08-23T13:05:18Z</time>
      </trkpt>
      <trkpt lat="45.56242" lon="5.73324">
        <ele>596.1</ele>
        <time>2021-08-23T13:05:19Z</time>
      </trkpt>
      <trkpt lat="45.56242" lon="5.73325">
        <ele>596.1</ele>
        <time>2021-08-23T13:05:20Z</time>
      </trkpt>
      <trkpt lat="45.56242" lon="5.73326">
        <ele>596.2</ele>
        <time>2021-08-23T13:05:21Z</time>
      </trkpt>
      <trkpt lat="45.56242" lon="5.73327">
        <ele>596.2</ele>
        <time>2021-08-23T13:05:22Z</time>
      </trkpt>
      <trkpt lat="45.56243" lon="5.73328">
        <ele>596.3</ele>
        <time>2021-08-23T13:05:23Z</time>
      </trkpt>
      <trkpt lat="45.5624" lon="5.73348">
        <ele>597.8</ele>
        <time>2021-08-23T13:05:35Z</time>
      </trkpt>
      <trkpt lat="45.56239" lon="5.73352">
        <ele>598.2</ele>
        <time>2021-08-23T13:05:36Z</time>
      </trkpt>
      <trkpt lat="45.56236" lon="5.73358">
        <ele>598.8</ele>
        <time>2021-08-23T13:05:37Z</time>
      </trkpt>
      <trkpt lat="45.56234" lon="5.73364">
        <ele>599.4</ele>
        <time>2021-08-23T13:05:38Z</time>
      </trkpt>
      <trkpt lat="45.56233" lon="5.73367">
        <ele>599.6</ele>
        <time>2021-08-23T13:05:39Z</time>
      </trkpt>
      <trkpt lat="45.56231" lon="5.73372">
        <ele>600.2</ele>
        <time>2021-08-23T13:05:40Z</time>
      </trkpt>
      <trkpt lat="45.56229" lon="5.73375">
        <ele>600.5</ele>
        <time>2021-08-23T13:05:41Z</time>
      </trkpt>
      <trkpt lat="45.56225" lon="5.73381">
        <ele>601.2</ele>
        <time>2021-08-23T13:05:43Z</time>
      </trkpt>
      <trkpt lat="45.56221" lon="5.73383">
        <ele>601.7</ele>
        <time>2021-08-23T13:05:44Z</time>
      </trkpt>
      <trkpt lat="45.56218" lon="5.73386">
        <ele>602</ele>
        <time>2021-08-23T13:05:45Z</time>
      </trkpt>
      <trkpt lat="45.56214" lon="5.73391">
        <ele>602.4</ele>
        <time>2021-08-23T13:05:46Z</time>
      </trkpt>
      <trkpt lat="45.56212" lon="5.73394">
        <ele>602.6</ele>
        <time>2021-08-23T13:05:47Z</time>
      </trkpt>
      <trkpt lat="45.56212" lon="5.73395">
        <ele>602.7</ele>
        <time>2021-08-23T13:05:49Z</time>
      </trkpt>
      <trkpt lat="45.56207" lon="5.73399">
        <ele>603</ele>
        <time>2021-08-23T13:05:50Z</time>
      </trkpt>
      <trkpt lat="45.56204" lon="5.734">
        <ele>603.2</ele>
        <time>2021-08-23T13:05:51Z</time>
      </trkpt>
      <trkpt lat="45.56199" lon="5.734">
        <ele>602.7</ele>
        <time>2021-08-23T13:05:52Z</time>
      </trkpt>
      <trkpt lat="45.56196" lon="5.734">
        <ele>602.3</ele>
        <time>2021-08-23T13:05:54Z</time>
      </trkpt>
      <trkpt lat="45.56194" lon="5.734">
        <ele>601.8</ele>
        <time>2021-08-23T13:05:55Z</time>
      </trkpt>
      <trkpt lat="45.56193" lon="5.734">
        <ele>601.8</ele>
        <time>2021-08-23T13:05:56Z</time>
      </trkpt>
      <trkpt lat="45.56134" lon="5.73431">
        <ele>602.1</ele>
        <time>2021-08-23T13:06:55Z</time>
      </trkpt>
      <trkpt lat="45.56127" lon="5.7343">
        <ele>602.3</ele>
        <time>2021-08-23T13:06:56Z</time>
      </trkpt>
      <trkpt lat="45.56119" lon="5.73431">
        <ele>603.5</ele>
        <time>2021-08-23T13:06:57Z</time>
      </trkpt>
      <trkpt lat="45.56114" lon="5.73433">
        <ele>604</ele>
        <time>2021-08-23T13:06:58Z</time>
      </trkpt>
      <trkpt lat="45.56113" lon="5.73434">
        <ele>604</ele>
        <time>2021-08-23T13:06:59Z</time>
      </trkpt>
      <trkpt lat="45.56113" lon="5.73434">
        <ele>604</ele>
        <time>2021-08-23T13:07:00Z</time>
      </trkpt>
      <trkpt lat="45.56113" lon="5.73434">
        <ele>604.1</ele>
        <time>2021-08-23T13:07:02Z</time>
      </trkpt>
      <trkpt lat="45.56113" lon="5.73434">
        <ele>604.1</ele>
        <time>2021-08-23T13:07:03Z</time>
      </trkpt>
      <trkpt lat="45.56113" lon="5.73435">
        <ele>604.2</ele>
        <time>2021-08-23T13:07:04Z</time>
      </trkpt>
      <trkpt lat="45.56113" lon="5.73435">
        <ele>604.2</ele>
        <time>2021-08-23T13:07:06Z</time>
      </trkpt>
      <trkpt lat="45.56113" lon="5.73435">
        <ele>604.3</ele>
        <time>2021-08-23T13:07:07Z</time>
      </trkpt>
      <trkpt lat="45.56113" lon="5.73435">
        <ele>605.2</ele>
        <time>2021-08-23T13:07:08Z</time>
      </trkpt>
      <trkpt lat="45.56112" lon="5.73435">
        <ele>605.2</ele>
        <time>2021-08-23T13:07:10Z</time>
      </trkpt>
      <trkpt lat="45.56112" lon="5.73435">
        <ele>605.3</ele>
        <time>2021-08-23T13:07:11Z</time>
      </trkpt>
      <trkpt lat="45.56112" lon="5.73435">
        <ele>605.3</ele>
        <time>2021-08-23T13:07:13Z</time>
      </trkpt>
      <trkpt lat="45.56112" lon="5.73436">
        <ele>605.4</ele>
        <time>2021-08-23T13:07:14Z</time>
      </trkpt>
      <trkpt lat="45.56109" lon="5.73432">
        <ele>604.8</ele>
        <time>2021-08-23T13:07:15Z</time>
      </trkpt>
      <trkpt lat="45.56107" lon="5.73429">
        <ele>604.3</ele>
        <time>2021-08-23T13:07:16Z</time>
      </trkpt>
      <trkpt lat="45.56107" lon="5.73428">
        <ele>604.4</ele>
        <time>2021-08-23T13:07:17Z</time>
      </trkpt>
      <trkpt lat="45.56106" lon="5.73422">
        <ele>603</ele>
        <time>2021-08-23T13:07:18Z</time>
      </trkpt>
      <trkpt lat="45.56105" lon="5.73417">
        <ele>602.2</ele>
        <time>2021-08-23T13:07:20Z</time>
      </trkpt>
      <trkpt lat="45.56104" lon="5.73415">
        <ele>602.2</ele>
        <time>2021-08-23T13:07:21Z</time>
      </trkpt>
      <trkpt lat="45.56103" lon="5.73414">
        <ele>602.3</ele>
        <time>2021-08-23T13:07:22Z</time>
      </trkpt>
      <trkpt lat="45.56102" lon="5.73414">
        <ele>602.7</ele>
        <time>2021-08-23T13:07:23Z</time>
      </trkpt>
      <trkpt lat="45.56101" lon="5.73413">
        <ele>601.9</ele>
        <time>2021-08-23T13:07:24Z</time>
      </trkpt>
      <trkpt lat="45.56101" lon="5.73413">
        <ele>602</ele>
        <time>2021-08-23T13:07:26Z</time>
      </trkpt>
      <trkpt lat="45.561" lon="5.73412">
        <ele>602</ele>
        <time>2021-08-23T13:07:27Z</time>
      </trkpt>
      <trkpt lat="45.56101" lon="5.73419">
        <ele>603.8</ele>
        <time>2021-08-23T13:07:29Z</time>
      </trkpt>
      <trkpt lat="45.56103" lon="5.73426">
        <ele>604.7</ele>
        <time>2021-08-23T13:07:30Z</time>
      </trkpt>
      <trkpt lat="45.56104" lon="5.73432">
        <ele>606.1</ele>
        <time>2021-08-23T13:07:31Z</time>
      </trkpt>
      <trkpt lat="45.56108" lon="5.73445">
        <ele>608.3</ele>
        <time>2021-08-23T13:07:33Z</time>
      </trkpt>
      <trkpt lat="45.56111" lon="5.73453">
        <ele>610.1</ele>
        <time>2021-08-23T13:07:35Z</time>
      </trkpt>
      <trkpt lat="45.56111" lon="5.73455">
        <ele>610.1</ele>
        <time>2021-08-23T13:07:36Z</time>
      </trkpt>
      <trkpt lat="45.56112" lon="5.73457">
        <ele>611.2</ele>
        <time>2021-08-23T13:07:37Z</time>
      </trkpt>
      <trkpt lat="45.56112" lon="5.73458">
        <ele>611.1</ele>
        <time>2021-08-23T13:07:38Z</time>
      </trkpt>
      <trkpt lat="45.56113" lon="5.73459">
        <ele>611.1</ele>
        <time>2021-08-23T13:07:40Z</time>
      </trkpt>
      <trkpt lat="45.56113" lon="5.7346">
        <ele>611.2</ele>
        <time>2021-08-23T13:07:41Z</time>
      </trkpt>
      <trkpt lat="45.56114" lon="5.73461">
        <ele>612.3</ele>
        <time>2021-08-23T13:07:42Z</time>
      </trkpt>
      <trkpt lat="45.56115" lon="5.73462">
        <ele>612.3</ele>
        <time>2021-08-23T13:07:44Z</time>
      </trkpt>
      <trkpt lat="45.56115" lon="5.73462">
        <ele>612.3</ele>
        <time>2021-08-23T13:07:46Z</time>
      </trkpt>
      <trkpt lat="45.56115" lon="5.73462">
        <ele>612.4</ele>
        <time>2021-08-23T13:07:47Z</time>
      </trkpt>
      <trkpt lat="45.56115" lon="5.73462">
        <ele>612.3</ele>
        <time>2021-08-23T13:07:48Z</time>
      </trkpt>
      <trkpt lat="45.56115" lon="5.73463">
        <ele>612.4</ele>
        <time>2021-08-23T13:07:50Z</time>
      </trkpt>
      <trkpt lat="45.56115" lon="5.73463">
        <ele>612.5</ele>
        <time>2021-08-23T13:07:52Z</time>
      </trkpt>
      <trkpt lat="45.56114" lon="5.73465">
        <ele>612.6</ele>
        <time>2021-08-23T13:07:53Z</time>
      </trkpt>
      <trkpt lat="45.56111" lon="5.73467">
        <ele>613.8</ele>
        <time>2021-08-23T13:07:55Z</time>
      </trkpt>
      <trkpt lat="45.5611" lon="5.73468">
        <ele>613.9</ele>
        <time>2021-08-23T13:07:56Z</time>
      </trkpt>
      <trkpt lat="45.56107" lon="5.73469">
        <ele>615.2</ele>
        <time>2021-08-23T13:07:58Z</time>
      </trkpt>
      <trkpt lat="45.56105" lon="5.7347">
        <ele>615.4</ele>
        <time>2021-08-23T13:08:00Z</time>
      </trkpt>
      <trkpt lat="45.56105" lon="5.7347">
        <ele>615.4</ele>
        <time>2021-08-23T13:08:01Z</time>
      </trkpt>
      <trkpt lat="45.56104" lon="5.7347">
        <ele>615.5</ele>
        <time>2021-08-23T13:08:02Z</time>
      </trkpt>
      <trkpt lat="45.56104" lon="5.73469">
        <ele>615.5</ele>
        <time>2021-08-23T13:08:03Z</time>
      </trkpt>
      <trkpt lat="45.56103" lon="5.73469">
        <ele>614.5</ele>
        <time>2021-08-23T13:08:04Z</time>
      </trkpt>
      <trkpt lat="45.56102" lon="5.73468">
        <ele>614.8</ele>
        <time>2021-08-23T13:08:06Z</time>
      </trkpt>
      <trkpt lat="45.56101" lon="5.73469">
        <ele>615.8</ele>
        <time>2021-08-23T13:08:07Z</time>
      </trkpt>
      <trkpt lat="45.56098" lon="5.73473">
        <ele>616.1</ele>
        <time>2021-08-23T13:08:09Z</time>
      </trkpt>
      <trkpt lat="45.56096" lon="5.73476">
        <ele>617.3</ele>
        <time>2021-08-23T13:08:10Z</time>
      </trkpt>
      <trkpt lat="45.56094" lon="5.7348">
        <ele>618.4</ele>
        <time>2021-08-23T13:08:13Z</time>
      </trkpt>
      <trkpt lat="45.56091" lon="5.73483">
        <ele>619.3</ele>
        <time>2021-08-23T13:08:14Z</time>
      </trkpt>
      <trkpt lat="45.56085" lon="5.73491">
        <ele>621.5</ele>
        <time>2021-08-23T13:08:15Z</time>
      </trkpt>
      <trkpt lat="45.56083" lon="5.73494">
        <ele>621.9</ele>
        <time>2021-08-23T13:08:17Z</time>
      </trkpt>
      <trkpt lat="45.56081" lon="5.73496">
        <ele>622.8</ele>
        <time>2021-08-23T13:08:19Z</time>
      </trkpt>
      <trkpt lat="45.5608" lon="5.73497">
        <ele>622.9</ele>
        <time>2021-08-23T13:08:20Z</time>
      </trkpt>
      <trkpt lat="45.56079" lon="5.73499">
        <ele>622.9</ele>
        <time>2021-08-23T13:08:21Z</time>
      </trkpt>
      <trkpt lat="45.56078" lon="5.735">
        <ele>623.8</ele>
        <time>2021-08-23T13:08:22Z</time>
      </trkpt>
      <trkpt lat="45.56077" lon="5.73502">
        <ele>623.9</ele>
        <time>2021-08-23T13:08:23Z</time>
      </trkpt>
      <trkpt lat="45.56075" lon="5.73503">
        <ele>624.3</ele>
        <time>2021-08-23T13:08:25Z</time>
      </trkpt>
      <trkpt lat="45.56074" lon="5.73505">
        <ele>624.8</ele>
        <time>2021-08-23T13:08:26Z</time>
      </trkpt>
      <trkpt lat="45.56067" lon="5.73514">
        <ele>626.6</ele>
        <time>2021-08-23T13:08:27Z</time>
      </trkpt>
      <trkpt lat="45.56064" lon="5.73518">
        <ele>628</ele>
        <time>2021-08-23T13:08:29Z</time>
      </trkpt>
      <trkpt lat="45.56062" lon="5.73518">
        <ele>628</ele>
        <time>2021-08-23T13:08:30Z</time>
      </trkpt>
      <trkpt lat="45.56061" lon="5.73516">
        <ele>628.1</ele>
        <time>2021-08-23T13:08:32Z</time>
      </trkpt>
      <trkpt lat="45.56061" lon="5.73515">
        <ele>628.1</ele>
        <time>2021-08-23T13:08:33Z</time>
      </trkpt>
      <trkpt lat="45.56058" lon="5.73514">
        <ele>628.2</ele>
        <time>2021-08-23T13:08:34Z</time>
      </trkpt>
      <trkpt lat="45.56057" lon="5.73512">
        <ele>628.8</ele>
        <time>2021-08-23T13:08:36Z</time>
      </trkpt>
      <trkpt lat="45.56051" lon="5.73511">
        <ele>629.6</ele>
        <time>2021-08-23T13:08:37Z</time>
      </trkpt>
      <trkpt lat="45.56047" lon="5.7351">
        <ele>630.3</ele>
        <time>2021-08-23T13:08:38Z</time>
      </trkpt>
      <trkpt lat="45.56042" lon="5.7351">
        <ele>631.7</ele>
        <time>2021-08-23T13:08:40Z</time>
      </trkpt>
      <trkpt lat="45.56037" lon="5.73508">
        <ele>632.5</ele>
        <time>2021-08-23T13:08:41Z</time>
      </trkpt>
      <trkpt lat="45.56037" lon="5.73507">
        <ele>632.1</ele>
        <time>2021-08-23T13:08:43Z</time>
      </trkpt>
      <trkpt lat="45.56037" lon="5.73506">
        <ele>632.1</ele>
        <time>2021-08-23T13:08:44Z</time>
      </trkpt>
      <trkpt lat="45.56038" lon="5.73506">
        <ele>632.2</ele>
        <time>2021-08-23T13:08:45Z</time>
      </trkpt>
      <trkpt lat="45.56038" lon="5.73506">
        <ele>632.2</ele>
        <time>2021-08-23T13:08:46Z</time>
      </trkpt>
      <trkpt lat="45.56038" lon="5.73505">
        <ele>632.3</ele>
        <time>2021-08-23T13:08:48Z</time>
      </trkpt>
      <trkpt lat="45.56038" lon="5.73505">
        <ele>632.3</ele>
        <time>2021-08-23T13:08:49Z</time>
      </trkpt>
      <trkpt lat="45.56038" lon="5.73505">
        <ele>632.3</ele>
        <time>2021-08-23T13:08:50Z</time>
      </trkpt>
      <trkpt lat="45.56038" lon="5.73505">
        <ele>632.4</ele>
        <time>2021-08-23T13:08:52Z</time>
      </trkpt>
      <trkpt lat="45.56038" lon="5.73505">
        <ele>632.4</ele>
        <time>2021-08-23T13:08:53Z</time>
      </trkpt>
      <trkpt lat="45.56038" lon="5.73504">
        <ele>632.5</ele>
        <time>2021-08-23T13:08:54Z</time>
      </trkpt>
      <trkpt lat="45.56038" lon="5.73504">
        <ele>632.5</ele>
        <time>2021-08-23T13:08:55Z</time>
      </trkpt>
      <trkpt lat="45.56039" lon="5.73503">
        <ele>632.1</ele>
        <time>2021-08-23T13:08:57Z</time>
      </trkpt>
      <trkpt lat="45.56045" lon="5.73494">
        <ele>629.9</ele>
        <time>2021-08-23T13:08:59Z</time>
      </trkpt>
      <trkpt lat="45.5605" lon="5.73485">
        <ele>627.5</ele>
        <time>2021-08-23T13:09:00Z</time>
      </trkpt>
      <trkpt lat="45.56051" lon="5.73484">
        <ele>627.5</ele>
        <time>2021-08-23T13:09:01Z</time>
      </trkpt>
      <trkpt lat="45.56051" lon="5.73484">
        <ele>627.6</ele>
        <time>2021-08-23T13:09:03Z</time>
      </trkpt>
      <trkpt lat="45.56051" lon="5.73484">
        <ele>627.6</ele>
        <time>2021-08-23T13:09:04Z</time>
      </trkpt>
      <trkpt lat="45.56051" lon="5.73484">
        <ele>627.6</ele>
        <time>2021-08-23T13:09:05Z</time>
      </trkpt>
      <trkpt lat="45.56051" lon="5.73484">
        <ele>627.7</ele>
        <time>2021-08-23T13:09:08Z</time>
      </trkpt>
      <trkpt lat="45.56052" lon="5.73484">
        <ele>627.7</ele>
        <time>2021-08-23T13:09:09Z</time>
      </trkpt>
      <trkpt lat="45.56052" lon="5.73483">
        <ele>627</ele>
        <time>2021-08-23T13:09:10Z</time>
      </trkpt>
      <trkpt lat="45.56053" lon="5.73479">
        <ele>626.7</ele>
        <time>2021-08-23T13:09:12Z</time>
      </trkpt>
      <trkpt lat="45.56053" lon="5.73477">
        <ele>626.2</ele>
        <time>2021-08-23T13:09:14Z</time>
      </trkpt>
      <trkpt lat="45.56053" lon="5.73475">
        <ele>626.3</ele>
        <time>2021-08-23T13:09:15Z</time>
      </trkpt>
      <trkpt lat="45.56053" lon="5.73472">
        <ele>625.8</ele>
        <time>2021-08-23T13:09:17Z</time>
      </trkpt>
      <trkpt lat="45.56053" lon="5.7347">
        <ele>625.9</ele>
        <time>2021-08-23T13:09:18Z</time>
      </trkpt>
      <trkpt lat="45.56053" lon="5.73468">
        <ele>625.4</ele>
        <time>2021-08-23T13:09:19Z</time>
      </trkpt>
      <trkpt lat="45.56053" lon="5.73466">
        <ele>625.4</ele>
        <time>2021-08-23T13:09:21Z</time>
      </trkpt>
      <trkpt lat="45.56054" lon="5.73464">
        <ele>624.9</ele>
        <time>2021-08-23T13:09:23Z</time>
      </trkpt>
      <trkpt lat="45.56053" lon="5.73462">
        <ele>625</ele>
        <time>2021-08-23T13:09:24Z</time>
      </trkpt>
      <trkpt lat="45.56052" lon="5.73461">
        <ele>625</ele>
        <time>2021-08-23T13:09:26Z</time>
      </trkpt>
      <trkpt lat="45.56051" lon="5.7346">
        <ele>625.4</ele>
        <time>2021-08-23T13:09:27Z</time>
      </trkpt>
      <trkpt lat="45.5605" lon="5.73459">
        <ele>625.5</ele>
        <time>2021-08-23T13:09:28Z</time>
      </trkpt>
      <trkpt lat="45.56048" lon="5.73459">
        <ele>626.5</ele>
        <time>2021-08-23T13:09:30Z</time>
      </trkpt>
      <trkpt lat="45.56046" lon="5.73459">
        <ele>626.5</ele>
        <time>2021-08-23T13:09:32Z</time>
      </trkpt>
      <trkpt lat="45.56045" lon="5.73459">
        <ele>627.5</ele>
        <time>2021-08-23T13:09:33Z</time>
      </trkpt>
      <trkpt lat="45.56045" lon="5.73459">
        <ele>627.5</ele>
        <time>2021-08-23T13:09:35Z</time>
      </trkpt>
      <trkpt lat="45.56044" lon="5.73459">
        <ele>627.6</ele>
        <time>2021-08-23T13:09:37Z</time>
      </trkpt>
      <trkpt lat="45.56044" lon="5.73459">
        <ele>627.6</ele>
        <time>2021-08-23T13:09:39Z</time>
      </trkpt>
      <trkpt lat="45.56044" lon="5.73459">
        <ele>627.7</ele>
        <time>2021-08-23T13:09:40Z</time>
      </trkpt>
      <trkpt lat="45.56044" lon="5.7346">
        <ele>627.7</ele>
        <time>2021-08-23T13:09:42Z</time>
      </trkpt>
      <trkpt lat="45.56045" lon="5.73461">
        <ele>628.2</ele>
        <time>2021-08-23T13:09:43Z</time>
      </trkpt>
      <trkpt lat="45.56045" lon="5.73462">
        <ele>628.3</ele>
        <time>2021-08-23T13:09:44Z</time>
      </trkpt>
      <trkpt lat="45.56045" lon="5.73463">
        <ele>628.3</ele>
        <time>2021-08-23T13:09:45Z</time>
      </trkpt>
      <trkpt lat="45.56045" lon="5.73464">
        <ele>628.4</ele>
        <time>2021-08-23T13:09:47Z</time>
      </trkpt>
      <trkpt lat="45.56046" lon="5.73464">
        <ele>628.4</ele>
        <time>2021-08-23T13:09:48Z</time>
      </trkpt>
      <trkpt lat="45.56046" lon="5.73465">
        <ele>628</ele>
        <time>2021-08-23T13:09:51Z</time>
      </trkpt>
      <trkpt lat="45.56046" lon="5.73465">
        <ele>628.1</ele>
        <time>2021-08-23T13:09:52Z</time>
      </trkpt>
      <trkpt lat="45.56046" lon="5.73465">
        <ele>628.1</ele>
        <time>2021-08-23T13:09:54Z</time>
      </trkpt>
      <trkpt lat="45.56047" lon="5.73465">
        <ele>628.2</ele>
        <time>2021-08-23T13:09:55Z</time>
      </trkpt>
      <trkpt lat="45.56047" lon="5.73465">
        <ele>628.2</ele>
        <time>2021-08-23T13:09:56Z</time>
      </trkpt>
      <trkpt lat="45.56046" lon="5.73465">
        <ele>628.3</ele>
        <time>2021-08-23T13:09:57Z</time>
      </trkpt>
      <trkpt lat="45.56044" lon="5.73467">
        <ele>629.2</ele>
        <time>2021-08-23T13:09:59Z</time>
      </trkpt>
      <trkpt lat="45.56041" lon="5.73468">
        <ele>630.1</ele>
        <time>2021-08-23T13:10:00Z</time>
      </trkpt>
      <trkpt lat="45.56039" lon="5.73468">
        <ele>631.1</ele>
        <time>2021-08-23T13:10:01Z</time>
      </trkpt>
      <trkpt lat="45.56038" lon="5.73469">
        <ele>631.1</ele>
        <time>2021-08-23T13:10:02Z</time>
      </trkpt>
      <trkpt lat="45.56037" lon="5.73471">
        <ele>631.6</ele>
        <time>2021-08-23T13:10:03Z</time>
      </trkpt>
      <trkpt lat="45.56036" lon="5.73473">
        <ele>632.6</ele>
        <time>2021-08-23T13:10:05Z</time>
      </trkpt>
      <trkpt lat="45.56034" lon="5.73476">
        <ele>633</ele>
        <time>2021-08-23T13:10:06Z</time>
      </trkpt>
      <trkpt lat="45.56033" lon="5.73477">
        <ele>634</ele>
        <time>2021-08-23T13:10:08Z</time>
      </trkpt>
      <trkpt lat="45.56032" lon="5.7348">
        <ele>634.3</ele>
        <time>2021-08-23T13:10:09Z</time>
      </trkpt>
      <trkpt lat="45.56031" lon="5.73486">
        <ele>635.6</ele>
        <time>2021-08-23T13:10:10Z</time>
      </trkpt>
      <trkpt lat="45.5603" lon="5.73488">
        <ele>636</ele>
        <time>2021-08-23T13:10:11Z</time>
      </trkpt>
      <trkpt lat="45.56029" lon="5.73493">
        <ele>636.3</ele>
        <time>2021-08-23T13:10:12Z</time>
      </trkpt>
      <trkpt lat="45.56029" lon="5.73495">
        <ele>636.4</ele>
        <time>2021-08-23T13:10:13Z</time>
      </trkpt>
      <trkpt lat="45.56028" lon="5.73497">
        <ele>636.7</ele>
        <time>2021-08-23T13:10:15Z</time>
      </trkpt>
      <trkpt lat="45.56027" lon="5.73499">
        <ele>638</ele>
        <time>2021-08-23T13:10:17Z</time>
      </trkpt>
      <trkpt lat="45.56026" lon="5.735">
        <ele>638.1</ele>
        <time>2021-08-23T13:10:18Z</time>
      </trkpt>
      <trkpt lat="45.56026" lon="5.73501">
        <ele>638.1</ele>
        <time>2021-08-23T13:10:19Z</time>
      </trkpt>
      <trkpt lat="45.56025" lon="5.73502">
        <ele>638.2</ele>
        <time>2021-08-23T13:10:21Z</time>
      </trkpt>
      <trkpt lat="45.56025" lon="5.73503">
        <ele>639.2</ele>
        <time>2021-08-23T13:10:22Z</time>
      </trkpt>
      <trkpt lat="45.56023" lon="5.73505">
        <ele>639.5</ele>
        <time>2021-08-23T13:10:23Z</time>
      </trkpt>
      <trkpt lat="45.56022" lon="5.73506">
        <ele>639.6</ele>
        <time>2021-08-23T13:10:24Z</time>
      </trkpt>
      <trkpt lat="45.56021" lon="5.73507">
        <ele>641.1</ele>
        <time>2021-08-23T13:10:25Z</time>
      </trkpt>
      <trkpt lat="45.5602" lon="5.73508">
        <ele>641.2</ele>
        <time>2021-08-23T13:10:27Z</time>
      </trkpt>
      <trkpt lat="45.5602" lon="5.73508">
        <ele>641.2</ele>
        <time>2021-08-23T13:10:28Z</time>
      </trkpt>
      <trkpt lat="45.5602" lon="5.73508">
        <ele>641.2</ele>
        <time>2021-08-23T13:10:30Z</time>
      </trkpt>
      <trkpt lat="45.56021" lon="5.73507">
        <ele>641.3</ele>
        <time>2021-08-23T13:10:31Z</time>
      </trkpt>
      <trkpt lat="45.56024" lon="5.73505">
        <ele>639.9</ele>
        <time>2021-08-23T13:10:33Z</time>
      </trkpt>
      <trkpt lat="45.56025" lon="5.73504">
        <ele>639</ele>
        <time>2021-08-23T13:10:34Z</time>
      </trkpt>
      <trkpt lat="45.56026" lon="5.73503">
        <ele>638.7</ele>
        <time>2021-08-23T13:10:36Z</time>
      </trkpt>
      <trkpt lat="45.56027" lon="5.735">
        <ele>638.7</ele>
        <time>2021-08-23T13:10:38Z</time>
      </trkpt>
      <trkpt lat="45.56028" lon="5.73497">
        <ele>637.5</ele>
        <time>2021-08-23T13:10:39Z</time>
      </trkpt>
      <trkpt lat="45.56029" lon="5.73494">
        <ele>637.2</ele>
        <time>2021-08-23T13:10:40Z</time>
      </trkpt>
      <trkpt lat="45.56029" lon="5.73491">
        <ele>637.3</ele>
        <time>2021-08-23T13:10:42Z</time>
      </trkpt>
      <trkpt lat="45.5603" lon="5.73486">
        <ele>636.7</ele>
        <time>2021-08-23T13:10:43Z</time>
      </trkpt>
      <trkpt lat="45.56031" lon="5.73483">
        <ele>635.8</ele>
        <time>2021-08-23T13:10:44Z</time>
      </trkpt>
      <trkpt lat="45.56034" lon="5.73477">
        <ele>635.3</ele>
        <time>2021-08-23T13:10:46Z</time>
      </trkpt>
      <trkpt lat="45.56035" lon="5.73475">
        <ele>634.3</ele>
        <time>2021-08-23T13:10:47Z</time>
      </trkpt>
      <trkpt lat="45.56035" lon="5.73472">
        <ele>634</ele>
        <time>2021-08-23T13:10:48Z</time>
      </trkpt>
      <trkpt lat="45.56037" lon="5.73467">
        <ele>632.7</ele>
        <time>2021-08-23T13:10:50Z</time>
      </trkpt>
      <trkpt lat="45.5604" lon="5.73461">
        <ele>632.4</ele>
        <time>2021-08-23T13:10:51Z</time>
      </trkpt>
      <trkpt lat="45.56043" lon="5.73456">
        <ele>630.6</ele>
        <time>2021-08-23T13:10:53Z</time>
      </trkpt>
      <trkpt lat="45.56045" lon="5.73452">
        <ele>629.6</ele>
        <time>2021-08-23T13:10:54Z</time>
      </trkpt>
      <trkpt lat="45.56047" lon="5.73447">
        <ele>627.7</ele>
        <time>2021-08-23T13:10:55Z</time>
      </trkpt>
      <trkpt lat="45.56047" lon="5.73445">
        <ele>627.7</ele>
        <time>2021-08-23T13:10:56Z</time>
      </trkpt>
      <trkpt lat="45.56048" lon="5.73433">
        <ele>626.2</ele>
        <time>2021-08-23T13:10:58Z</time>
      </trkpt>
      <trkpt lat="45.56048" lon="5.73425">
        <ele>625</ele>
        <time>2021-08-23T13:11:00Z</time>
      </trkpt>
      <trkpt lat="45.56048" lon="5.73418">
        <ele>624.3</ele>
        <time>2021-08-23T13:11:02Z</time>
      </trkpt>
      <trkpt lat="45.56046" lon="5.73408">
        <ele>623.1</ele>
        <time>2021-08-23T13:11:04Z</time>
      </trkpt>
      <trkpt lat="45.56043" lon="5.73405">
        <ele>623.2</ele>
        <time>2021-08-23T13:11:05Z</time>
      </trkpt>
      <trkpt lat="45.56038" lon="5.73402">
        <ele>624.4</ele>
        <time>2021-08-23T13:11:06Z</time>
      </trkpt>
      <trkpt lat="45.56032" lon="5.73398">
        <ele>625.5</ele>
        <time>2021-08-23T13:11:07Z</time>
      </trkpt>
      <trkpt lat="45.56028" lon="5.73395">
        <ele>626.4</ele>
        <time>2021-08-23T13:11:09Z</time>
      </trkpt>
      <trkpt lat="45.56024" lon="5.73392">
        <ele>627.3</ele>
        <time>2021-08-23T13:11:10Z</time>
      </trkpt>
      <trkpt lat="45.56021" lon="5.73391">
        <ele>627.6</ele>
        <time>2021-08-23T13:11:11Z</time>
      </trkpt>
      <trkpt lat="45.56016" lon="5.7339">
        <ele>628.4</ele>
        <time>2021-08-23T13:11:13Z</time>
      </trkpt>
      <trkpt lat="45.55986" lon="5.73387">
        <ele>635.5</ele>
        <time>2021-08-23T13:11:14Z</time>
      </trkpt>
      <trkpt lat="45.55974" lon="5.73386">
        <ele>636.9</ele>
        <time>2021-08-23T13:11:15Z</time>
      </trkpt>
      <trkpt lat="45.55968" lon="5.73385">
        <ele>637.6</ele>
        <time>2021-08-23T13:11:16Z</time>
      </trkpt>
      <trkpt lat="45.55964" lon="5.73382">
        <ele>636.4</ele>
        <time>2021-08-23T13:11:18Z</time>
      </trkpt>
      <trkpt lat="45.55963" lon="5.73381">
        <ele>636.5</ele>
        <time>2021-08-23T13:11:19Z</time>
      </trkpt>
      <trkpt lat="45.55962" lon="5.73381">
        <ele>636.5</ele>
        <time>2021-08-23T13:11:21Z</time>
      </trkpt>
      <trkpt lat="45.55961" lon="5.7338">
        <ele>636.6</ele>
        <time>2021-08-23T13:11:23Z</time>
      </trkpt>
      <trkpt lat="45.55959" lon="5.73378">
        <ele>636.7</ele>
        <time>2021-08-23T13:11:24Z</time>
      </trkpt>
      <trkpt lat="45.55956" lon="5.73376">
        <ele>636.8</ele>
        <time>2021-08-23T13:11:25Z</time>
      </trkpt>
      <trkpt lat="45.55953" lon="5.73374">
        <ele>636.9</ele>
        <time>2021-08-23T13:11:26Z</time>
      </trkpt>
      <trkpt lat="45.5595" lon="5.73373">
        <ele>637.1</ele>
        <time>2021-08-23T13:11:28Z</time>
      </trkpt>
      <trkpt lat="45.55949" lon="5.73372">
        <ele>637.1</ele>
        <time>2021-08-23T13:11:29Z</time>
      </trkpt>
      <trkpt lat="45.55948" lon="5.73372">
        <ele>637.1</ele>
        <time>2021-08-23T13:11:30Z</time>
      </trkpt>
      <trkpt lat="45.55946" lon="5.73374">
        <ele>637.2</ele>
        <time>2021-08-23T13:11:31Z</time>
      </trkpt>
      <trkpt lat="45.55939" lon="5.73383">
        <ele>637.5</ele>
        <time>2021-08-23T13:11:32Z</time>
      </trkpt>
      <trkpt lat="45.55931" lon="5.73395">
        <ele>637</ele>
        <time>2021-08-23T13:11:33Z</time>
      </trkpt>
      <trkpt lat="45.55922" lon="5.73406">
        <ele>635.9</ele>
        <time>2021-08-23T13:11:34Z</time>
      </trkpt>
      <trkpt lat="45.55913" lon="5.73417">
        <ele>634.7</ele>
        <time>2021-08-23T13:11:36Z</time>
      </trkpt>
      <trkpt lat="45.55898" lon="5.7343">
        <ele>632.7</ele>
        <time>2021-08-23T13:11:37Z</time>
      </trkpt>
      <trkpt lat="45.55885" lon="5.73438">
        <ele>631.9</ele>
        <time>2021-08-23T13:11:38Z</time>
      </trkpt>
      <trkpt lat="45.55865" lon="5.73451">
        <ele>632.1</ele>
        <time>2021-08-23T13:11:40Z</time>
      </trkpt>
      <trkpt lat="45.55852" lon="5.73448">
        <ele>633.5</ele>
        <time>2021-08-23T13:11:42Z</time>
      </trkpt>
      <trkpt lat="45.55841" lon="5.7344">
        <ele>635.1</ele>
        <time>2021-08-23T13:11:44Z</time>
      </trkpt>
      <trkpt lat="45.55836" lon="5.73439">
        <ele>635.7</ele>
        <time>2021-08-23T13:11:45Z</time>
      </trkpt>
      <trkpt lat="45.55834" lon="5.73441">
        <ele>636</ele>
        <time>2021-08-23T13:11:46Z</time>
      </trkpt>
      <trkpt lat="45.55831" lon="5.73441">
        <ele>636.2</ele>
        <time>2021-08-23T13:11:47Z</time>
      </trkpt>
      <trkpt lat="45.55826" lon="5.73439">
        <ele>636.5</ele>
        <time>2021-08-23T13:11:49Z</time>
      </trkpt>
      <trkpt lat="45.55826" lon="5.73439">
        <ele>636.5</ele>
        <time>2021-08-23T13:11:50Z</time>
      </trkpt>
      <trkpt lat="45.55832" lon="5.73448">
        <ele>636.7</ele>
        <time>2021-08-23T13:11:52Z</time>
      </trkpt>
      <trkpt lat="45.55838" lon="5.73456">
        <ele>636.6</ele>
        <time>2021-08-23T13:11:53Z</time>
      </trkpt>
      <trkpt lat="45.5584" lon="5.73459">
        <ele>636.5</ele>
        <time>2021-08-23T13:11:54Z</time>
      </trkpt>
      <trkpt lat="45.5584" lon="5.73462">
        <ele>636.4</ele>
        <time>2021-08-23T13:11:56Z</time>
      </trkpt>
      <trkpt lat="45.5584" lon="5.73463">
        <ele>636.3</ele>
        <time>2021-08-23T13:11:57Z</time>
      </trkpt>
      <trkpt lat="45.55839" lon="5.73465">
        <ele>636.3</ele>
        <time>2021-08-23T13:11:58Z</time>
      </trkpt>
      <trkpt lat="45.55838" lon="5.73472">
        <ele>636</ele>
        <time>2021-08-23T13:11:59Z</time>
      </trkpt>
      <trkpt lat="45.55837" lon="5.73477">
        <ele>635.7</ele>
        <time>2021-08-23T13:12:01Z</time>
      </trkpt>
      <trkpt lat="45.55836" lon="5.7348">
        <ele>635.5</ele>
        <time>2021-08-23T13:12:02Z</time>
      </trkpt>
      <trkpt lat="45.55836" lon="5.73482">
        <ele>635.5</ele>
        <time>2021-08-23T13:12:04Z</time>
      </trkpt>
      <trkpt lat="45.55835" lon="5.73484">
        <ele>635.4</ele>
        <time>2021-08-23T13:12:05Z</time>
      </trkpt>
      <trkpt lat="45.55835" lon="5.73486">
        <ele>635.2</ele>
        <time>2021-08-23T13:12:06Z</time>
      </trkpt>
      <trkpt lat="45.55835" lon="5.73488">
        <ele>635.2</ele>
        <time>2021-08-23T13:12:08Z</time>
      </trkpt>
      <trkpt lat="45.55788" lon="5.73577">
        <ele>633.7</ele>
        <time>2021-08-23T13:12:19Z</time>
      </trkpt>
      <trkpt lat="45.55784" lon="5.73582">
        <ele>633.8</ele>
        <time>2021-08-23T13:12:20Z</time>
      </trkpt>
      <trkpt lat="45.55782" lon="5.73584">
        <ele>633.9</ele>
        <time>2021-08-23T13:12:21Z</time>
      </trkpt>
      <trkpt lat="45.5578" lon="5.73586">
        <ele>633.9</ele>
        <time>2021-08-23T13:12:22Z</time>
      </trkpt>
      <trkpt lat="45.55779" lon="5.73587">
        <ele>633.9</ele>
        <time>2021-08-23T13:12:24Z</time>
      </trkpt>
      <trkpt lat="45.55778" lon="5.73587">
        <ele>634</ele>
        <time>2021-08-23T13:12:25Z</time>
      </trkpt>
      <trkpt lat="45.55777" lon="5.73587">
        <ele>634</ele>
        <time>2021-08-23T13:12:26Z</time>
      </trkpt>
      <trkpt lat="45.55776" lon="5.73588">
        <ele>634</ele>
        <time>2021-08-23T13:12:28Z</time>
      </trkpt>
      <trkpt lat="45.55774" lon="5.73589">
        <ele>634</ele>
        <time>2021-08-23T13:12:29Z</time>
      </trkpt>
      <trkpt lat="45.55773" lon="5.7359">
        <ele>634.1</ele>
        <time>2021-08-23T13:12:30Z</time>
      </trkpt>
      <trkpt lat="45.55772" lon="5.73592">
        <ele>634.1</ele>
        <time>2021-08-23T13:12:31Z</time>
      </trkpt>
      <trkpt lat="45.55767" lon="5.73597">
        <ele>634.2</ele>
        <time>2021-08-23T13:12:32Z</time>
      </trkpt>
      <trkpt lat="45.55765" lon="5.73602">
        <ele>634.3</ele>
        <time>2021-08-23T13:12:34Z</time>
      </trkpt>
      <trkpt lat="45.55764" lon="5.73603">
        <ele>634.3</ele>
        <time>2021-08-23T13:12:35Z</time>
      </trkpt>
      <trkpt lat="45.55764" lon="5.73605">
        <ele>634.3</ele>
        <time>2021-08-23T13:12:37Z</time>
      </trkpt>
      <trkpt lat="45.55763" lon="5.73606">
        <ele>634.3</ele>
        <time>2021-08-23T13:12:38Z</time>
      </trkpt>
      <trkpt lat="45.55763" lon="5.73609">
        <ele>634.3</ele>
        <time>2021-08-23T13:12:39Z</time>
      </trkpt>
      <trkpt lat="45.55763" lon="5.73613">
        <ele>634.4</ele>
        <time>2021-08-23T13:12:41Z</time>
      </trkpt>
      <trkpt lat="45.55763" lon="5.73618">
        <ele>634.4</ele>
        <time>2021-08-23T13:12:42Z</time>
      </trkpt>
      <trkpt lat="45.55763" lon="5.73619">
        <ele>634.4</ele>
        <time>2021-08-23T13:12:43Z</time>
      </trkpt>
      <trkpt lat="45.55763" lon="5.73621">
        <ele>634.4</ele>
        <time>2021-08-23T13:12:45Z</time>
      </trkpt>
      <trkpt lat="45.55764" lon="5.73622">
        <ele>634.5</ele>
        <time>2021-08-23T13:12:46Z</time>
      </trkpt>
      <trkpt lat="45.55763" lon="5.73623">
        <ele>634.5</ele>
        <time>2021-08-23T13:12:48Z</time>
      </trkpt>
      <trkpt lat="45.55763" lon="5.73624">
        <ele>634.5</ele>
        <time>2021-08-23T13:12:50Z</time>
      </trkpt>
      <trkpt lat="45.55763" lon="5.73627">
        <ele>634.5</ele>
        <time>2021-08-23T13:12:51Z</time>
      </trkpt>
      <trkpt lat="45.55764" lon="5.73632">
        <ele>634.5</ele>
        <time>2021-08-23T13:12:53Z</time>
      </trkpt>
      <trkpt lat="45.55765" lon="5.73636">
        <ele>634.6</ele>
        <time>2021-08-23T13:12:54Z</time>
      </trkpt>
      <trkpt lat="45.55765" lon="5.73644">
        <ele>634.6</ele>
        <time>2021-08-23T13:12:55Z</time>
      </trkpt>
      <trkpt lat="45.55764" lon="5.73649">
        <ele>634.5</ele>
        <time>2021-08-23T13:12:56Z</time>
      </trkpt>
      <trkpt lat="45.55762" lon="5.73654">
        <ele>634.4</ele>
        <time>2021-08-23T13:12:57Z</time>
      </trkpt>
      <trkpt lat="45.55758" lon="5.73664">
        <ele>633.9</ele>
        <time>2021-08-23T13:12:59Z</time>
      </trkpt>
      <trkpt lat="45.55756" lon="5.73669">
        <ele>633.5</ele>
        <time>2021-08-23T13:13:00Z</time>
      </trkpt>
      <trkpt lat="45.55753" lon="5.73675">
        <ele>633</ele>
        <time>2021-08-23T13:13:02Z</time>
      </trkpt>
      <trkpt lat="45.5575" lon="5.7368">
        <ele>632.4</ele>
        <time>2021-08-23T13:13:03Z</time>
      </trkpt>
      <trkpt lat="45.55748" lon="5.73684">
        <ele>632</ele>
        <time>2021-08-23T13:13:04Z</time>
      </trkpt>
      <trkpt lat="45.55747" lon="5.73689">
        <ele>631.5</ele>
        <time>2021-08-23T13:13:06Z</time>
      </trkpt>
      <trkpt lat="45.55745" lon="5.73698">
        <ele>630.5</ele>
        <time>2021-08-23T13:13:07Z</time>
      </trkpt>
      <trkpt lat="45.55743" lon="5.73706">
        <ele>629.7</ele>
        <time>2021-08-23T13:13:08Z</time>
      </trkpt>
      <trkpt lat="45.5574" lon="5.7372">
        <ele>628.3</ele>
        <time>2021-08-23T13:13:10Z</time>
      </trkpt>
      <trkpt lat="45.55739" lon="5.73731">
        <ele>627.2</ele>
        <time>2021-08-23T13:13:12Z</time>
      </trkpt>
      <trkpt lat="45.55738" lon="5.73736">
        <ele>626.6</ele>
        <time>2021-08-23T13:13:13Z</time>
      </trkpt>
      <trkpt lat="45.55737" lon="5.73746">
        <ele>625.3</ele>
        <time>2021-08-23T13:13:14Z</time>
      </trkpt>
      <trkpt lat="45.55736" lon="5.73753">
        <ele>624.4</ele>
        <time>2021-08-23T13:13:16Z</time>
      </trkpt>
      <trkpt lat="45.55735" lon="5.73759">
        <ele>623.6</ele>
        <time>2021-08-23T13:13:17Z</time>
      </trkpt>
      <trkpt lat="45.55734" lon="5.73765">
        <ele>622.8</ele>
        <time>2021-08-23T13:13:18Z</time>
      </trkpt>
      <trkpt lat="45.55732" lon="5.73774">
        <ele>621.5</ele>
        <time>2021-08-23T13:13:20Z</time>
      </trkpt>
      <trkpt lat="45.55728" lon="5.73784">
        <ele>620.1</ele>
        <time>2021-08-23T13:13:22Z</time>
      </trkpt>
      <trkpt lat="45.55724" lon="5.73789">
        <ele>619.2</ele>
        <time>2021-08-23T13:13:23Z</time>
      </trkpt>
      <trkpt lat="45.55721" lon="5.73794">
        <ele>618.4</ele>
        <time>2021-08-23T13:13:24Z</time>
      </trkpt>
      <trkpt lat="45.55718" lon="5.73798">
        <ele>617.7</ele>
        <time>2021-08-23T13:13:25Z</time>
      </trkpt>
      <trkpt lat="45.55716" lon="5.73799">
        <ele>617.3</ele>
        <time>2021-08-23T13:13:26Z</time>
      </trkpt>
      <trkpt lat="45.55709" lon="5.73801">
        <ele>616.2</ele>
        <time>2021-08-23T13:13:28Z</time>
      </trkpt>
      <trkpt lat="45.55704" lon="5.738">
        <ele>615.4</ele>
        <time>2021-08-23T13:13:29Z</time>
      </trkpt>
      <trkpt lat="45.55699" lon="5.73798">
        <ele>614.7</ele>
        <time>2021-08-23T13:13:30Z</time>
      </trkpt>
      <trkpt lat="45.55696" lon="5.73794">
        <ele>614.2</ele>
        <time>2021-08-23T13:13:31Z</time>
      </trkpt>
      <trkpt lat="45.55693" lon="5.73788">
        <ele>613.5</ele>
        <time>2021-08-23T13:13:33Z</time>
      </trkpt>
      <trkpt lat="45.5569" lon="5.73783">
        <ele>613</ele>
        <time>2021-08-23T13:13:34Z</time>
      </trkpt>
      <trkpt lat="45.55685" lon="5.73776">
        <ele>612.3</ele>
        <time>2021-08-23T13:13:36Z</time>
      </trkpt>
      <trkpt lat="45.55681" lon="5.73772">
        <ele>611.8</ele>
        <time>2021-08-23T13:13:37Z</time>
      </trkpt>
      <trkpt lat="45.55675" lon="5.73769">
        <ele>611.1</ele>
        <time>2021-08-23T13:13:38Z</time>
      </trkpt>
      <trkpt lat="45.55669" lon="5.73766">
        <ele>610.5</ele>
        <time>2021-08-23T13:13:40Z</time>
      </trkpt>
      <trkpt lat="45.55666" lon="5.73764">
        <ele>610.1</ele>
        <time>2021-08-23T13:13:41Z</time>
      </trkpt>
      <trkpt lat="45.55661" lon="5.73762">
        <ele>609.5</ele>
        <time>2021-08-23T13:13:42Z</time>
      </trkpt>
      <trkpt lat="45.55657" lon="5.73761">
        <ele>609</ele>
        <time>2021-08-23T13:13:43Z</time>
      </trkpt>
      <trkpt lat="45.55652" lon="5.73762">
        <ele>608.3</ele>
        <time>2021-08-23T13:13:44Z</time>
      </trkpt>
      <trkpt lat="45.55647" lon="5.73766">
        <ele>607.4</ele>
        <time>2021-08-23T13:13:45Z</time>
      </trkpt>
      <trkpt lat="45.55642" lon="5.73769">
        <ele>606.5</ele>
        <time>2021-08-23T13:13:47Z</time>
      </trkpt>
      <trkpt lat="45.55638" lon="5.73772">
        <ele>605.7</ele>
        <time>2021-08-23T13:13:48Z</time>
      </trkpt>
      <trkpt lat="45.55632" lon="5.73772">
        <ele>604.7</ele>
        <time>2021-08-23T13:13:49Z</time>
      </trkpt>
      <trkpt lat="45.55627" lon="5.73771">
        <ele>603.9</ele>
        <time>2021-08-23T13:13:50Z</time>
      </trkpt>
      <trkpt lat="45.55621" lon="5.73767">
        <ele>602.9</ele>
        <time>2021-08-23T13:13:52Z</time>
      </trkpt>
      <trkpt lat="45.55615" lon="5.73765">
        <ele>601.9</ele>
        <time>2021-08-23T13:13:53Z</time>
      </trkpt>
      <trkpt lat="45.55608" lon="5.73763">
        <ele>601</ele>
        <time>2021-08-23T13:13:54Z</time>
      </trkpt>
      <trkpt lat="45.55597" lon="5.73758">
        <ele>599.9</ele>
        <time>2021-08-23T13:13:56Z</time>
      </trkpt>
      <trkpt lat="45.5559" lon="5.73756">
        <ele>599.2</ele>
        <time>2021-08-23T13:13:57Z</time>
      </trkpt>
      <trkpt lat="45.55586" lon="5.73758">
        <ele>598.9</ele>
        <time>2021-08-23T13:13:59Z</time>
      </trkpt>
      <trkpt lat="45.55582" lon="5.73757">
        <ele>598.5</ele>
        <time>2021-08-23T13:14:00Z</time>
      </trkpt>
      <trkpt lat="45.55577" lon="5.73757">
        <ele>598</ele>
        <time>2021-08-23T13:14:01Z</time>
      </trkpt>
      <trkpt lat="45.55578" lon="5.73764">
        <ele>597.4</ele>
        <time>2021-08-23T13:14:03Z</time>
      </trkpt>
      <trkpt lat="45.55578" lon="5.73768">
        <ele>597</ele>
        <time>2021-08-23T13:14:04Z</time>
      </trkpt>
      <trkpt lat="45.55581" lon="5.73779">
        <ele>595.7</ele>
        <time>2021-08-23T13:14:05Z</time>
      </trkpt>
      <trkpt lat="45.55584" lon="5.73788">
        <ele>594.5</ele>
        <time>2021-08-23T13:14:07Z</time>
      </trkpt>
      <trkpt lat="45.55588" lon="5.73798">
        <ele>593.4</ele>
        <time>2021-08-23T13:14:08Z</time>
      </trkpt>
      <trkpt lat="45.5559" lon="5.73806">
        <ele>592.5</ele>
        <time>2021-08-23T13:14:10Z</time>
      </trkpt>
      <trkpt lat="45.55598" lon="5.73842">
        <ele>589.8</ele>
        <time>2021-08-23T13:14:12Z</time>
      </trkpt>
      <trkpt lat="45.55598" lon="5.73842">
        <ele>589.8</ele>
        <time>2021-08-23T13:14:12Z</time>
      </trkpt>
      <trkpt lat="45.556" lon="5.73855">
        <ele>589.1</ele>
        <time>2021-08-23T13:14:13Z</time>
      </trkpt>
      <trkpt lat="45.556" lon="5.73865">
        <ele>588.6</ele>
        <time>2021-08-23T13:14:14Z</time>
      </trkpt>
      <trkpt lat="45.55603" lon="5.73884">
        <ele>587.4</ele>
        <time>2021-08-23T13:14:16Z</time>
      </trkpt>
      <trkpt lat="45.55603" lon="5.73893">
        <ele>586.7</ele>
        <time>2021-08-23T13:14:17Z</time>
      </trkpt>
      <trkpt lat="45.55603" lon="5.73902">
        <ele>585.9</ele>
        <time>2021-08-23T13:14:18Z</time>
      </trkpt>
      <trkpt lat="45.55602" lon="5.7391">
        <ele>585.1</ele>
        <time>2021-08-23T13:14:19Z</time>
      </trkpt>
      <trkpt lat="45.55601" lon="5.73916">
        <ele>584.5</ele>
        <time>2021-08-23T13:14:20Z</time>
      </trkpt>
      <trkpt lat="45.556" lon="5.73923">
        <ele>583.7</ele>
        <time>2021-08-23T13:14:21Z</time>
      </trkpt>
      <trkpt lat="45.55598" lon="5.73925">
        <ele>583.4</ele>
        <time>2021-08-23T13:14:22Z</time>
      </trkpt>
      <trkpt lat="45.55596" lon="5.7393">
        <ele>582.7</ele>
        <time>2021-08-23T13:14:23Z</time>
      </trkpt>
      <trkpt lat="45.55595" lon="5.73936">
        <ele>582.1</ele>
        <time>2021-08-23T13:14:25Z</time>
      </trkpt>
      <trkpt lat="45.55595" lon="5.73938">
        <ele>581.9</ele>
        <time>2021-08-23T13:14:26Z</time>
      </trkpt>
      <trkpt lat="45.55599" lon="5.73944">
        <ele>581</ele>
        <time>2021-08-23T13:14:27Z</time>
      </trkpt>
      <trkpt lat="45.55609" lon="5.73957">
        <ele>579.6</ele>
        <time>2021-08-23T13:14:29Z</time>
      </trkpt>
      <trkpt lat="45.55614" lon="5.73964">
        <ele>579</ele>
        <time>2021-08-23T13:14:30Z</time>
      </trkpt>
      <trkpt lat="45.55618" lon="5.73971">
        <ele>578.5</ele>
        <time>2021-08-23T13:14:31Z</time>
      </trkpt>
      <trkpt lat="45.55622" lon="5.73983">
        <ele>577.7</ele>
        <time>2021-08-23T13:14:32Z</time>
      </trkpt>
      <trkpt lat="45.55624" lon="5.7399">
        <ele>577.2</ele>
        <time>2021-08-23T13:14:33Z</time>
      </trkpt>
      <trkpt lat="45.55626" lon="5.73997">
        <ele>576.6</ele>
        <time>2021-08-23T13:14:35Z</time>
      </trkpt>
      <trkpt lat="45.55629" lon="5.74004">
        <ele>575.9</ele>
        <time>2021-08-23T13:14:36Z</time>
      </trkpt>
      <trkpt lat="45.55633" lon="5.74022">
        <ele>574.1</ele>
        <time>2021-08-23T13:14:38Z</time>
      </trkpt>
      <trkpt lat="45.55637" lon="5.74041">
        <ele>572.3</ele>
        <time>2021-08-23T13:14:40Z</time>
      </trkpt>
      <trkpt lat="45.55639" lon="5.7405">
        <ele>571.4</ele>
        <time>2021-08-23T13:14:41Z</time>
      </trkpt>
      <trkpt lat="45.55641" lon="5.74058">
        <ele>570.6</ele>
        <time>2021-08-23T13:14:42Z</time>
      </trkpt>
      <trkpt lat="45.55645" lon="5.74075">
        <ele>568.9</ele>
        <time>2021-08-23T13:14:44Z</time>
      </trkpt>
      <trkpt lat="45.55649" lon="5.74098">
        <ele>566.7</ele>
        <time>2021-08-23T13:14:46Z</time>
      </trkpt>
      <trkpt lat="45.55653" lon="5.74119">
        <ele>565</ele>
        <time>2021-08-23T13:14:48Z</time>
      </trkpt>
      <trkpt lat="45.55651" lon="5.7414">
        <ele>563.5</ele>
        <time>2021-08-23T13:14:50Z</time>
      </trkpt>
      <trkpt lat="45.55646" lon="5.7416">
        <ele>561.6</ele>
        <time>2021-08-23T13:14:52Z</time>
      </trkpt>
      <trkpt lat="45.55639" lon="5.74179">
        <ele>559.5</ele>
        <time>2021-08-23T13:14:54Z</time>
      </trkpt>
      <trkpt lat="45.55635" lon="5.74187">
        <ele>558.5</ele>
        <time>2021-08-23T13:14:55Z</time>
      </trkpt>
      <trkpt lat="45.55633" lon="5.74194">
        <ele>557.7</ele>
        <time>2021-08-23T13:14:56Z</time>
      </trkpt>
      <trkpt lat="45.55627" lon="5.74207">
        <ele>556.1</ele>
        <time>2021-08-23T13:14:58Z</time>
      </trkpt>
      <trkpt lat="45.55625" lon="5.74211">
        <ele>555.6</ele>
        <time>2021-08-23T13:14:59Z</time>
      </trkpt>
      <trkpt lat="45.55621" lon="5.74217">
        <ele>555.1</ele>
        <time>2021-08-23T13:15:00Z</time>
      </trkpt>
      <trkpt lat="45.55615" lon="5.74232">
        <ele>553.9</ele>
        <time>2021-08-23T13:15:02Z</time>
      </trkpt>
      <trkpt lat="45.5561" lon="5.7425">
        <ele>552.8</ele>
        <time>2021-08-23T13:15:04Z</time>
      </trkpt>
      <trkpt lat="45.55609" lon="5.74259">
        <ele>552.3</ele>
        <time>2021-08-23T13:15:05Z</time>
      </trkpt>
      <trkpt lat="45.55607" lon="5.74277">
        <ele>551.3</ele>
        <time>2021-08-23T13:15:07Z</time>
      </trkpt>
      <trkpt lat="45.55607" lon="5.74287">
        <ele>550.7</ele>
        <time>2021-08-23T13:15:08Z</time>
      </trkpt>
      <trkpt lat="45.55606" lon="5.74306">
        <ele>549.5</ele>
        <time>2021-08-23T13:15:10Z</time>
      </trkpt>
      <trkpt lat="45.55604" lon="5.74314">
        <ele>549</ele>
        <time>2021-08-23T13:15:11Z</time>
      </trkpt>
      <trkpt lat="45.55602" lon="5.74322">
        <ele>548.5</ele>
        <time>2021-08-23T13:15:12Z</time>
      </trkpt>
      <trkpt lat="45.55597" lon="5.74337">
        <ele>547.6</ele>
        <time>2021-08-23T13:15:14Z</time>
      </trkpt>
      <trkpt lat="45.55588" lon="5.74346">
        <ele>546.7</ele>
        <time>2021-08-23T13:15:16Z</time>
      </trkpt>
      <trkpt lat="45.55584" lon="5.74349">
        <ele>546.2</ele>
        <time>2021-08-23T13:15:17Z</time>
      </trkpt>
      <trkpt lat="45.55579" lon="5.74352">
        <ele>546.2</ele>
        <time>2021-08-23T13:15:18Z</time>
      </trkpt>
      <trkpt lat="45.55571" lon="5.74355">
        <ele>545.8</ele>
        <time>2021-08-23T13:15:20Z</time>
      </trkpt>
      <trkpt lat="45.55558" lon="5.7435">
        <ele>545.3</ele>
        <time>2021-08-23T13:15:22Z</time>
      </trkpt>
      <trkpt lat="45.55551" lon="5.74346">
        <ele>545.1</ele>
        <time>2021-08-23T13:15:23Z</time>
      </trkpt>
      <trkpt lat="45.55544" lon="5.74343">
        <ele>544.9</ele>
        <time>2021-08-23T13:15:24Z</time>
      </trkpt>
      <trkpt lat="45.5553" lon="5.74336">
        <ele>544.7</ele>
        <time>2021-08-23T13:15:26Z</time>
      </trkpt>
      <trkpt lat="45.55507" lon="5.7433">
        <ele>544.4</ele>
        <time>2021-08-23T13:15:28Z</time>
      </trkpt>
      <trkpt lat="45.55494" lon="5.74328">
        <ele>544.3</ele>
        <time>2021-08-23T13:15:29Z</time>
      </trkpt>
      <trkpt lat="45.55485" lon="5.74327">
        <ele>544.4</ele>
        <time>2021-08-23T13:15:30Z</time>
      </trkpt>
      <trkpt lat="45.55482" lon="5.74324">
        <ele>544.4</ele>
        <time>2021-08-23T13:15:31Z</time>
      </trkpt>
      <trkpt lat="45.55481" lon="5.74324">
        <ele>544.4</ele>
        <time>2021-08-23T13:15:32Z</time>
      </trkpt>
      <trkpt lat="45.55471" lon="5.74318">
        <ele>544.2</ele>
        <time>2021-08-23T13:15:34Z</time>
      </trkpt>
      <trkpt lat="45.55465" lon="5.74315">
        <ele>543.9</ele>
        <time>2021-08-23T13:15:35Z</time>
      </trkpt>
      <trkpt lat="45.55456" lon="5.74311">
        <ele>543.1</ele>
        <time>2021-08-23T13:15:36Z</time>
      </trkpt>
      <trkpt lat="45.55451" lon="5.74304">
        <ele>542.3</ele>
        <time>2021-08-23T13:15:38Z</time>
      </trkpt>
      <trkpt lat="45.55443" lon="5.74287">
        <ele>540.5</ele>
        <time>2021-08-23T13:15:40Z</time>
      </trkpt>
      <trkpt lat="45.55437" lon="5.74284">
        <ele>539.8</ele>
        <time>2021-08-23T13:15:41Z</time>
      </trkpt>
      <trkpt lat="45.55431" lon="5.74285">
        <ele>539.2</ele>
        <time>2021-08-23T13:15:42Z</time>
      </trkpt>
      <trkpt lat="45.5542" lon="5.74294">
        <ele>538.1</ele>
        <time>2021-08-23T13:15:44Z</time>
      </trkpt>
      <trkpt lat="45.55414" lon="5.74302">
        <ele>537.6</ele>
        <time>2021-08-23T13:15:45Z</time>
      </trkpt>
      <trkpt lat="45.55403" lon="5.74315">
        <ele>537.1</ele>
        <time>2021-08-23T13:15:47Z</time>
      </trkpt>
      <trkpt lat="45.55399" lon="5.74323">
        <ele>536.8</ele>
        <time>2021-08-23T13:15:48Z</time>
      </trkpt>
      <trkpt lat="45.55391" lon="5.74341">
        <ele>536.4</ele>
        <time>2021-08-23T13:15:50Z</time>
      </trkpt>
      <trkpt lat="45.55388" lon="5.74349">
        <ele>536.2</ele>
        <time>2021-08-23T13:15:51Z</time>
      </trkpt>
      <trkpt lat="45.5538" lon="5.74365">
        <ele>535.9</ele>
        <time>2021-08-23T13:15:53Z</time>
      </trkpt>
      <trkpt lat="45.55376" lon="5.74371">
        <ele>535.9</ele>
        <time>2021-08-23T13:15:54Z</time>
      </trkpt>
      <trkpt lat="45.55379" lon="5.74383">
        <ele>535.9</ele>
        <time>2021-08-23T13:15:55Z</time>
      </trkpt>
      <trkpt lat="45.55381" lon="5.74392">
        <ele>535.8</ele>
        <time>2021-08-23T13:15:56Z</time>
      </trkpt>
      <trkpt lat="45.5538" lon="5.74398">
        <ele>535.8</ele>
        <time>2021-08-23T13:15:57Z</time>
      </trkpt>
      <trkpt lat="45.55375" lon="5.74402">
        <ele>535.8</ele>
        <time>2021-08-23T13:15:59Z</time>
      </trkpt>
      <trkpt lat="45.55372" lon="5.74404">
        <ele>535.7</ele>
        <time>2021-08-23T13:16:00Z</time>
      </trkpt>
      <trkpt lat="45.55366" lon="5.74401">
        <ele>535.7</ele>
        <time>2021-08-23T13:16:02Z</time>
      </trkpt>
      <trkpt lat="45.55367" lon="5.744">
        <ele>535.6</ele>
        <time>2021-08-23T13:16:03Z</time>
      </trkpt>
      <trkpt lat="45.5536" lon="5.74397">
        <ele>535.5</ele>
        <time>2021-08-23T13:16:05Z</time>
      </trkpt>
      <trkpt lat="45.55357" lon="5.74395">
        <ele>535.3</ele>
        <time>2021-08-23T13:16:06Z</time>
      </trkpt>
      <trkpt lat="45.55354" lon="5.7439">
        <ele>535.1</ele>
        <time>2021-08-23T13:16:07Z</time>
      </trkpt>
      <trkpt lat="45.55348" lon="5.74381">
        <ele>534.8</ele>
        <time>2021-08-23T13:16:09Z</time>
      </trkpt>
      <trkpt lat="45.55343" lon="5.74371">
        <ele>534.4</ele>
        <time>2021-08-23T13:16:11Z</time>
      </trkpt>
      <trkpt lat="45.5534" lon="5.74368">
        <ele>534.3</ele>
        <time>2021-08-23T13:16:12Z</time>
      </trkpt>
      <trkpt lat="45.55335" lon="5.74366">
        <ele>534.1</ele>
        <time>2021-08-23T13:16:13Z</time>
      </trkpt>
      <trkpt lat="45.55331" lon="5.74365">
        <ele>534</ele>
        <time>2021-08-23T13:16:14Z</time>
      </trkpt>
      <trkpt lat="45.55327" lon="5.74362">
        <ele>533.8</ele>
        <time>2021-08-23T13:16:15Z</time>
      </trkpt>
      <trkpt lat="45.5532" lon="5.74358">
        <ele>533.6</ele>
        <time>2021-08-23T13:16:17Z</time>
      </trkpt>
      <trkpt lat="45.55316" lon="5.74356">
        <ele>533.4</ele>
        <time>2021-08-23T13:16:18Z</time>
      </trkpt>
      <trkpt lat="45.55305" lon="5.74354">
        <ele>532.9</ele>
        <time>2021-08-23T13:16:20Z</time>
      </trkpt>
      <trkpt lat="45.55295" lon="5.7436">
        <ele>532.4</ele>
        <time>2021-08-23T13:16:22Z</time>
      </trkpt>
      <trkpt lat="45.55291" lon="5.74363">
        <ele>532.1</ele>
        <time>2021-08-23T13:16:23Z</time>
      </trkpt>
      <trkpt lat="45.55287" lon="5.74365">
        <ele>531.9</ele>
        <time>2021-08-23T13:16:24Z</time>
      </trkpt>
      <trkpt lat="45.55282" lon="5.74371">
        <ele>531.6</ele>
        <time>2021-08-23T13:16:26Z</time>
      </trkpt>
      <trkpt lat="45.55282" lon="5.74375">
        <ele>531.4</ele>
        <time>2021-08-23T13:16:27Z</time>
      </trkpt>
      <trkpt lat="45.55279" lon="5.74377">
        <ele>531.3</ele>
        <time>2021-08-23T13:16:28Z</time>
      </trkpt>
      <trkpt lat="45.55275" lon="5.74377">
        <ele>531.1</ele>
        <time>2021-08-23T13:16:29Z</time>
      </trkpt>
      <trkpt lat="45.55271" lon="5.74373">
        <ele>530.8</ele>
        <time>2021-08-23T13:16:31Z</time>
      </trkpt>
      <trkpt lat="45.55269" lon="5.7437">
        <ele>529.4</ele>
        <time>2021-08-23T13:16:32Z</time>
      </trkpt>
      <trkpt lat="45.55266" lon="5.74364">
        <ele>529</ele>
        <time>2021-08-23T13:16:33Z</time>
      </trkpt>
      <trkpt lat="45.55263" lon="5.74344">
        <ele>527.7</ele>
        <time>2021-08-23T13:16:35Z</time>
      </trkpt>
      <trkpt lat="45.55261" lon="5.74334">
        <ele>527</ele>
        <time>2021-08-23T13:16:36Z</time>
      </trkpt>
      <trkpt lat="45.55258" lon="5.74312">
        <ele>525.8</ele>
        <time>2021-08-23T13:16:38Z</time>
      </trkpt>
      <trkpt lat="45.55256" lon="5.74296">
        <ele>524.9</ele>
        <time>2021-08-23T13:16:40Z</time>
      </trkpt>
      <trkpt lat="45.55252" lon="5.7429">
        <ele>524.5</ele>
        <time>2021-08-23T13:16:41Z</time>
      </trkpt>
      <trkpt lat="45.55248" lon="5.74285">
        <ele>524.2</ele>
        <time>2021-08-23T13:16:42Z</time>
      </trkpt>
      <trkpt lat="45.55246" lon="5.7428">
        <ele>523.8</ele>
        <time>2021-08-23T13:16:43Z</time>
      </trkpt>
      <trkpt lat="45.55243" lon="5.74278">
        <ele>523.6</ele>
        <time>2021-08-23T13:16:44Z</time>
      </trkpt>
      <trkpt lat="45.55239" lon="5.74273">
        <ele>523.3</ele>
        <time>2021-08-23T13:16:45Z</time>
      </trkpt>
      <trkpt lat="45.55236" lon="5.7427">
        <ele>523</ele>
        <time>2021-08-23T13:16:46Z</time>
      </trkpt>
      <trkpt lat="45.5523" lon="5.74272">
        <ele>522.5</ele>
        <time>2021-08-23T13:16:47Z</time>
      </trkpt>
      <trkpt lat="45.55223" lon="5.74277">
        <ele>521.7</ele>
        <time>2021-08-23T13:16:49Z</time>
      </trkpt>
      <trkpt lat="45.55218" lon="5.74279">
        <ele>521.1</ele>
        <time>2021-08-23T13:16:50Z</time>
      </trkpt>
      <trkpt lat="45.55215" lon="5.74282">
        <ele>520.6</ele>
        <time>2021-08-23T13:16:51Z</time>
      </trkpt>
      <trkpt lat="45.5521" lon="5.74285">
        <ele>520</ele>
        <time>2021-08-23T13:16:53Z</time>
      </trkpt>
      <trkpt lat="45.55207" lon="5.74286">
        <ele>519.4</ele>
        <time>2021-08-23T13:16:54Z</time>
      </trkpt>
      <trkpt lat="45.55202" lon="5.74289">
        <ele>518.7</ele>
        <time>2021-08-23T13:16:56Z</time>
      </trkpt>
      <trkpt lat="45.552" lon="5.74291">
        <ele>518.3</ele>
        <time>2021-08-23T13:16:57Z</time>
      </trkpt>
      <trkpt lat="45.55197" lon="5.74292">
        <ele>517.8</ele>
        <time>2021-08-23T13:16:58Z</time>
      </trkpt>
      <trkpt lat="45.55193" lon="5.74293">
        <ele>517.2</ele>
        <time>2021-08-23T13:16:59Z</time>
      </trkpt>
      <trkpt lat="45.55183" lon="5.74291">
        <ele>515.8</ele>
        <time>2021-08-23T13:17:01Z</time>
      </trkpt>
      <trkpt lat="45.55176" lon="5.74287">
        <ele>514.8</ele>
        <time>2021-08-23T13:17:02Z</time>
      </trkpt>
      <trkpt lat="45.55157" lon="5.74278">
        <ele>512.8</ele>
        <time>2021-08-23T13:17:04Z</time>
      </trkpt>
      <trkpt lat="45.55148" lon="5.74273">
        <ele>512</ele>
        <time>2021-08-23T13:17:05Z</time>
      </trkpt>
      <trkpt lat="45.5514" lon="5.74268">
        <ele>511.3</ele>
        <time>2021-08-23T13:17:06Z</time>
      </trkpt>
      <trkpt lat="45.55133" lon="5.74263">
        <ele>510.9</ele>
        <time>2021-08-23T13:17:07Z</time>
      </trkpt>
      <trkpt lat="45.55126" lon="5.74258">
        <ele>510.6</ele>
        <time>2021-08-23T13:17:08Z</time>
      </trkpt>
      <trkpt lat="45.55112" lon="5.74251">
        <ele>510.2</ele>
        <time>2021-08-23T13:17:10Z</time>
      </trkpt>
      <trkpt lat="45.55105" lon="5.74247">
        <ele>510.1</ele>
        <time>2021-08-23T13:17:11Z</time>
      </trkpt>
      <trkpt lat="45.55098" lon="5.74244">
        <ele>509.9</ele>
        <time>2021-08-23T13:17:12Z</time>
      </trkpt>
      <trkpt lat="45.55086" lon="5.74238">
        <ele>509.6</ele>
        <time>2021-08-23T13:17:14Z</time>
      </trkpt>
      <trkpt lat="45.55077" lon="5.74233">
        <ele>509</ele>
        <time>2021-08-23T13:17:16Z</time>
      </trkpt>
      <trkpt lat="45.55074" lon="5.74231">
        <ele>508.8</ele>
        <time>2021-08-23T13:17:17Z</time>
      </trkpt>
      <trkpt lat="45.55073" lon="5.7423">
        <ele>508.8</ele>
        <time>2021-08-23T13:17:18Z</time>
      </trkpt>
      <trkpt lat="45.55067" lon="5.74225">
        <ele>508.3</ele>
        <time>2021-08-23T13:17:20Z</time>
      </trkpt>
      <trkpt lat="45.5506" lon="5.74222">
        <ele>507.8</ele>
        <time>2021-08-23T13:17:22Z</time>
      </trkpt>
      <trkpt lat="45.55063" lon="5.74222">
        <ele>507.7</ele>
        <time>2021-08-23T13:17:23Z</time>
      </trkpt>
      <trkpt lat="45.55058" lon="5.7422">
        <ele>507.4</ele>
        <time>2021-08-23T13:17:24Z</time>
      </trkpt>
      <trkpt lat="45.55052" lon="5.74217">
        <ele>507.2</ele>
        <time>2021-08-23T13:17:26Z</time>
      </trkpt>
      <trkpt lat="45.55049" lon="5.74214">
        <ele>507</ele>
        <time>2021-08-23T13:17:27Z</time>
      </trkpt>
      <trkpt lat="45.55045" lon="5.74209">
        <ele>506.8</ele>
        <time>2021-08-23T13:17:29Z</time>
      </trkpt>
      <trkpt lat="45.55045" lon="5.74207">
        <ele>506.8</ele>
        <time>2021-08-23T13:17:30Z</time>
      </trkpt>
      <trkpt lat="45.55044" lon="5.74205">
        <ele>506.7</ele>
        <time>2021-08-23T13:17:31Z</time>
      </trkpt>
      <trkpt lat="45.55046" lon="5.74199">
        <ele>506.6</ele>
        <time>2021-08-23T13:17:33Z</time>
      </trkpt>
      <trkpt lat="45.55046" lon="5.74196">
        <ele>506.5</ele>
        <time>2021-08-23T13:17:34Z</time>
      </trkpt>
      <trkpt lat="45.55044" lon="5.74193">
        <ele>506.5</ele>
        <time>2021-08-23T13:17:36Z</time>
      </trkpt>
      <trkpt lat="45.55043" lon="5.74192">
        <ele>506.4</ele>
        <time>2021-08-23T13:17:37Z</time>
      </trkpt>
      <trkpt lat="45.55041" lon="5.74192">
        <ele>506.4</ele>
        <time>2021-08-23T13:17:38Z</time>
      </trkpt>
      <trkpt lat="45.55039" lon="5.74191">
        <ele>506.3</ele>
        <time>2021-08-23T13:17:40Z</time>
      </trkpt>
      <trkpt lat="45.55038" lon="5.7419">
        <ele>506.3</ele>
        <time>2021-08-23T13:17:41Z</time>
      </trkpt>
      <trkpt lat="45.55037" lon="5.7419">
        <ele>506.2</ele>
        <time>2021-08-23T13:17:42Z</time>
      </trkpt>
      <trkpt lat="45.55036" lon="5.74189">
        <ele>506.2</ele>
        <time>2021-08-23T13:17:43Z</time>
      </trkpt>
      <trkpt lat="45.55036" lon="5.74189">
        <ele>506.2</ele>
        <time>2021-08-23T13:17:44Z</time>
      </trkpt>
      <trkpt lat="45.55034" lon="5.74189">
        <ele>506.2</ele>
        <time>2021-08-23T13:17:46Z</time>
      </trkpt>
      <trkpt lat="45.55033" lon="5.74189">
        <ele>506.2</ele>
        <time>2021-08-23T13:17:47Z</time>
      </trkpt>
      <trkpt lat="45.55031" lon="5.7419">
        <ele>506.1</ele>
        <time>2021-08-23T13:17:49Z</time>
      </trkpt>
      <trkpt lat="45.55027" lon="5.74191">
        <ele>506</ele>
        <time>2021-08-23T13:17:50Z</time>
      </trkpt>
      <trkpt lat="45.55014" lon="5.74198">
        <ele>505.7</ele>
        <time>2021-08-23T13:17:58Z</time>
      </trkpt>
      <trkpt lat="45.55009" lon="5.74198">
        <ele>505.6</ele>
        <time>2021-08-23T13:17:59Z</time>
      </trkpt>
      <trkpt lat="45.55004" lon="5.742">
        <ele>505.5</ele>
        <time>2021-08-23T13:18:00Z</time>
      </trkpt>
      <trkpt lat="45.54994" lon="5.74204">
        <ele>505.3</ele>
        <time>2021-08-23T13:18:02Z</time>
      </trkpt>
      <trkpt lat="45.54988" lon="5.7421">
        <ele>505.2</ele>
        <time>2021-08-23T13:18:03Z</time>
      </trkpt>
      <trkpt lat="45.54981" lon="5.74216">
        <ele>505.3</ele>
        <time>2021-08-23T13:18:05Z</time>
      </trkpt>
      <trkpt lat="45.54975" lon="5.74222">
        <ele>505.4</ele>
        <time>2021-08-23T13:18:06Z</time>
      </trkpt>
      <trkpt lat="45.54968" lon="5.74225">
        <ele>505.4</ele>
        <time>2021-08-23T13:18:07Z</time>
      </trkpt>
      <trkpt lat="45.54964" lon="5.74228">
        <ele>505.4</ele>
        <time>2021-08-23T13:18:09Z</time>
      </trkpt>
      <trkpt lat="45.54956" lon="5.74232">
        <ele>505.1</ele>
        <time>2021-08-23T13:18:10Z</time>
      </trkpt>
      <trkpt lat="45.54949" lon="5.74234">
        <ele>504.9</ele>
        <time>2021-08-23T13:18:12Z</time>
      </trkpt>
      <trkpt lat="45.54942" lon="5.74237">
        <ele>504.7</ele>
        <time>2021-08-23T13:18:13Z</time>
      </trkpt>
      <trkpt lat="45.54933" lon="5.74239">
        <ele>504.6</ele>
        <time>2021-08-23T13:18:14Z</time>
      </trkpt>
      <trkpt lat="45.54927" lon="5.7424">
        <ele>504.6</ele>
        <time>2021-08-23T13:18:16Z</time>
      </trkpt>
      <trkpt lat="45.54914" lon="5.74242">
        <ele>505.1</ele>
        <time>2021-08-23T13:18:17Z</time>
      </trkpt>
      <trkpt lat="45.54912" lon="5.74242">
        <ele>505.2</ele>
        <time>2021-08-23T13:18:19Z</time>
      </trkpt>
      <trkpt lat="45.54912" lon="5.74242">
        <ele>505.3</ele>
        <time>2021-08-23T13:18:20Z</time>
      </trkpt>
      <trkpt lat="45.54911" lon="5.74241">
        <ele>505.3</ele>
        <time>2021-08-23T13:18:21Z</time>
      </trkpt>
      <trkpt lat="45.54912" lon="5.74242">
        <ele>505.3</ele>
        <time>2021-08-23T13:18:22Z</time>
      </trkpt>
      <trkpt lat="45.54912" lon="5.74242">
        <ele>505.4</ele>
        <time>2021-08-23T13:18:24Z</time>
      </trkpt>
      <trkpt lat="45.54861" lon="5.74161">
        <ele>513.5</ele>
        <time>2021-08-23T13:19:42Z</time>
      </trkpt>
      <trkpt lat="45.54858" lon="5.7416">
        <ele>513.5</ele>
        <time>2021-08-23T13:19:43Z</time>
      </trkpt>
      <trkpt lat="45.54857" lon="5.7416">
        <ele>513.6</ele>
        <time>2021-08-23T13:19:44Z</time>
      </trkpt>
      <trkpt lat="45.54854" lon="5.74159">
        <ele>513.6</ele>
        <time>2021-08-23T13:19:45Z</time>
      </trkpt>
      <trkpt lat="45.54851" lon="5.74158">
        <ele>513.6</ele>
        <time>2021-08-23T13:19:47Z</time>
      </trkpt>
      <trkpt lat="45.54851" lon="5.74158">
        <ele>513.6</ele>
        <time>2021-08-23T13:19:48Z</time>
      </trkpt>
      <trkpt lat="45.54847" lon="5.74159">
        <ele>513.6</ele>
        <time>2021-08-23T13:19:50Z</time>
      </trkpt>
      <trkpt lat="45.54844" lon="5.74159">
        <ele>513.5</ele>
        <time>2021-08-23T13:19:51Z</time>
      </trkpt>
      <trkpt lat="45.54844" lon="5.74159">
        <ele>513.5</ele>
        <time>2021-08-23T13:19:52Z</time>
      </trkpt>
      <trkpt lat="45.54841" lon="5.74157">
        <ele>513.5</ele>
        <time>2021-08-23T13:19:54Z</time>
      </trkpt>
      <trkpt lat="45.54838" lon="5.74155">
        <ele>513.4</ele>
        <time>2021-08-23T13:19:55Z</time>
      </trkpt>
      <trkpt lat="45.54836" lon="5.74155">
        <ele>513.4</ele>
        <time>2021-08-23T13:19:56Z</time>
      </trkpt>
      <trkpt lat="45.54833" lon="5.74157">
        <ele>513.3</ele>
        <time>2021-08-23T13:19:58Z</time>
      </trkpt>
      <trkpt lat="45.54824" lon="5.74163">
        <ele>512.7</ele>
        <time>2021-08-23T13:20:00Z</time>
      </trkpt>
      <trkpt lat="45.54819" lon="5.7416">
        <ele>512.2</ele>
        <time>2021-08-23T13:20:01Z</time>
      </trkpt>
      <trkpt lat="45.54814" lon="5.74158">
        <ele>511.7</ele>
        <time>2021-08-23T13:20:03Z</time>
      </trkpt>
      <trkpt lat="45.5481" lon="5.74158">
        <ele>511.2</ele>
        <time>2021-08-23T13:20:04Z</time>
      </trkpt>
      <trkpt lat="45.54805" lon="5.7416">
        <ele>510.8</ele>
        <time>2021-08-23T13:20:05Z</time>
      </trkpt>
      <trkpt lat="45.54802" lon="5.74161">
        <ele>510.4</ele>
        <time>2021-08-23T13:20:06Z</time>
      </trkpt>
      <trkpt lat="45.54791" lon="5.74162">
        <ele>509.1</ele>
        <time>2021-08-23T13:20:08Z</time>
      </trkpt>
      <trkpt lat="45.54785" lon="5.74163">
        <ele>508.5</ele>
        <time>2021-08-23T13:20:09Z</time>
      </trkpt>
      <trkpt lat="45.54776" lon="5.74166">
        <ele>507.4</ele>
        <time>2021-08-23T13:20:11Z</time>
      </trkpt>
      <trkpt lat="45.54769" lon="5.74167">
        <ele>506.6</ele>
        <time>2021-08-23T13:20:12Z</time>
      </trkpt>
      <trkpt lat="45.54759" lon="5.7417">
        <ele>505.3</ele>
        <time>2021-08-23T13:20:14Z</time>
      </trkpt>
      <trkpt lat="45.54755" lon="5.74167">
        <ele>504.7</ele>
        <time>2021-08-23T13:20:15Z</time>
      </trkpt>
      <trkpt lat="45.54749" lon="5.74169">
        <ele>504</ele>
        <time>2021-08-23T13:20:16Z</time>
      </trkpt>
      <trkpt lat="45.54745" lon="5.74175">
        <ele>503.4</ele>
        <time>2021-08-23T13:20:17Z</time>
      </trkpt>
      <trkpt lat="45.54741" lon="5.74181">
        <ele>503</ele>
        <time>2021-08-23T13:20:18Z</time>
      </trkpt>
      <trkpt lat="45.54738" lon="5.74186">
        <ele>502.7</ele>
        <time>2021-08-23T13:20:19Z</time>
      </trkpt>
      <trkpt lat="45.54732" lon="5.74193">
        <ele>502.2</ele>
        <time>2021-08-23T13:20:21Z</time>
      </trkpt>
      <trkpt lat="45.54728" lon="5.74196">
        <ele>501.8</ele>
        <time>2021-08-23T13:20:22Z</time>
      </trkpt>
      <trkpt lat="45.54721" lon="5.74204">
        <ele>501.1</ele>
        <time>2021-08-23T13:20:24Z</time>
      </trkpt>
      <trkpt lat="45.54713" lon="5.74224">
        <ele>499.7</ele>
        <time>2021-08-23T13:20:26Z</time>
      </trkpt>
      <trkpt lat="45.54704" lon="5.74231">
        <ele>498.9</ele>
        <time>2021-08-23T13:20:27Z</time>
      </trkpt>
      <trkpt lat="45.54695" lon="5.74237">
        <ele>498.1</ele>
        <time>2021-08-23T13:20:28Z</time>
      </trkpt>
      <trkpt lat="45.54687" lon="5.74245">
        <ele>497.2</ele>
        <time>2021-08-23T13:20:29Z</time>
      </trkpt>
      <trkpt lat="45.5468" lon="5.74253">
        <ele>496.5</ele>
        <time>2021-08-23T13:20:30Z</time>
      </trkpt>
      <trkpt lat="45.5467" lon="5.74268">
        <ele>495.5</ele>
        <time>2021-08-23T13:20:32Z</time>
      </trkpt>
      <trkpt lat="45.54659" lon="5.74283">
        <ele>495.2</ele>
        <time>2021-08-23T13:20:34Z</time>
      </trkpt>
      <trkpt lat="45.54654" lon="5.74289">
        <ele>495.3</ele>
        <time>2021-08-23T13:20:35Z</time>
      </trkpt>
      <trkpt lat="45.54649" lon="5.74293">
        <ele>495.5</ele>
        <time>2021-08-23T13:20:36Z</time>
      </trkpt>
      <trkpt lat="45.54656" lon="5.74295">
        <ele>495.9</ele>
        <time>2021-08-23T13:20:38Z</time>
      </trkpt>
      <trkpt lat="45.54656" lon="5.7429">
        <ele>496.1</ele>
        <time>2021-08-23T13:20:39Z</time>
      </trkpt>
      <trkpt lat="45.54656" lon="5.74285">
        <ele>496.4</ele>
        <time>2021-08-23T13:20:40Z</time>
      </trkpt>
      <trkpt lat="45.54655" lon="5.74281">
        <ele>496.7</ele>
        <time>2021-08-23T13:20:41Z</time>
      </trkpt>
      <trkpt lat="45.54654" lon="5.74276">
        <ele>497</ele>
        <time>2021-08-23T13:20:42Z</time>
      </trkpt>
      <trkpt lat="45.54653" lon="5.74275">
        <ele>497.1</ele>
        <time>2021-08-23T13:20:43Z</time>
      </trkpt>
      <trkpt lat="45.54651" lon="5.74273">
        <ele>497.4</ele>
        <time>2021-08-23T13:20:45Z</time>
      </trkpt>
      <trkpt lat="45.54649" lon="5.74272">
        <ele>497.5</ele>
        <time>2021-08-23T13:20:46Z</time>
      </trkpt>
      <trkpt lat="45.54643" lon="5.7427">
        <ele>498</ele>
        <time>2021-08-23T13:20:47Z</time>
      </trkpt>
      <trkpt lat="45.54637" lon="5.74268">
        <ele>498.2</ele>
        <time>2021-08-23T13:20:48Z</time>
      </trkpt>
      <trkpt lat="45.54632" lon="5.74266">
        <ele>498.2</ele>
        <time>2021-08-23T13:20:50Z</time>
      </trkpt>
      <trkpt lat="45.54626" lon="5.74264">
        <ele>498</ele>
        <time>2021-08-23T13:20:51Z</time>
      </trkpt>
      <trkpt lat="45.54622" lon="5.74262">
        <ele>497.7</ele>
        <time>2021-08-23T13:20:52Z</time>
      </trkpt>
      <trkpt lat="45.54616" lon="5.7426">
        <ele>497.4</ele>
        <time>2021-08-23T13:20:53Z</time>
      </trkpt>
      <trkpt lat="45.54604" lon="5.74254">
        <ele>496.6</ele>
        <time>2021-08-23T13:20:55Z</time>
      </trkpt>
      <trkpt lat="45.54599" lon="5.74254">
        <ele>496.4</ele>
        <time>2021-08-23T13:20:56Z</time>
      </trkpt>
      <trkpt lat="45.54595" lon="5.7425">
        <ele>496.3</ele>
        <time>2021-08-23T13:20:57Z</time>
      </trkpt>
      <trkpt lat="45.54589" lon="5.74247">
        <ele>496.1</ele>
        <time>2021-08-23T13:20:58Z</time>
      </trkpt>
      <trkpt lat="45.54584" lon="5.74245">
        <ele>496.1</ele>
        <time>2021-08-23T13:20:59Z</time>
      </trkpt>
      <trkpt lat="45.54578" lon="5.74242">
        <ele>496.2</ele>
        <time>2021-08-23T13:21:00Z</time>
      </trkpt>
      <trkpt lat="45.54574" lon="5.74242">
        <ele>496.2</ele>
        <time>2021-08-23T13:21:02Z</time>
      </trkpt>
      <trkpt lat="45.5457" lon="5.74244">
        <ele>496.3</ele>
        <time>2021-08-23T13:21:03Z</time>
      </trkpt>
      <trkpt lat="45.54566" lon="5.74245">
        <ele>496.5</ele>
        <time>2021-08-23T13:21:04Z</time>
      </trkpt>
      <trkpt lat="45.54562" lon="5.74247">
        <ele>496.7</ele>
        <time>2021-08-23T13:21:06Z</time>
      </trkpt>
      <trkpt lat="45.5456" lon="5.74247">
        <ele>496.9</ele>
        <time>2021-08-23T13:21:07Z</time>
      </trkpt>
      <trkpt lat="45.54558" lon="5.74248">
        <ele>497</ele>
        <time>2021-08-23T13:21:09Z</time>
      </trkpt>
      <trkpt lat="45.54556" lon="5.74248">
        <ele>497.2</ele>
        <time>2021-08-23T13:21:10Z</time>
      </trkpt>
      <trkpt lat="45.54447" lon="5.74242">
        <ele>507.4</ele>
        <time>2021-08-23T13:22:13Z</time>
      </trkpt>
      <trkpt lat="45.54446" lon="5.7424">
        <ele>507.4</ele>
        <time>2021-08-23T13:22:15Z</time>
      </trkpt>
      <trkpt lat="45.54445" lon="5.74238">
        <ele>507.4</ele>
        <time>2021-08-23T13:22:16Z</time>
      </trkpt>
      <trkpt lat="45.54444" lon="5.74237">
        <ele>507.4</ele>
        <time>2021-08-23T13:22:17Z</time>
      </trkpt>
      <trkpt lat="45.54444" lon="5.74236">
        <ele>507.4</ele>
        <time>2021-08-23T13:22:19Z</time>
      </trkpt>
      <trkpt lat="45.54444" lon="5.74235">
        <ele>507.4</ele>
        <time>2021-08-23T13:22:20Z</time>
      </trkpt>
      <trkpt lat="45.54443" lon="5.74235">
        <ele>507.4</ele>
        <time>2021-08-23T13:22:21Z</time>
      </trkpt>
      <trkpt lat="45.54444" lon="5.74234">
        <ele>507.4</ele>
        <time>2021-08-23T13:22:22Z</time>
      </trkpt>
      <trkpt lat="45.54444" lon="5.74234">
        <ele>507.4</ele>
        <time>2021-08-23T13:22:23Z</time>
      </trkpt>
      <trkpt lat="45.54446" lon="5.74233">
        <ele>507.4</ele>
        <time>2021-08-23T13:22:25Z</time>
      </trkpt>
      <trkpt lat="45.54447" lon="5.74232">
        <ele>507.4</ele>
        <time>2021-08-23T13:22:27Z</time>
      </trkpt>
      <trkpt lat="45.5447" lon="5.74263">
        <ele>507.6</ele>
        <time>2021-08-23T13:22:40Z</time>
      </trkpt>
      <trkpt lat="45.54471" lon="5.74268">
        <ele>507.6</ele>
        <time>2021-08-23T13:22:41Z</time>
      </trkpt>
      <trkpt lat="45.54471" lon="5.74272">
        <ele>507.7</ele>
        <time>2021-08-23T13:22:43Z</time>
      </trkpt>
      <trkpt lat="45.54472" lon="5.74274">
        <ele>507.7</ele>
        <time>2021-08-23T13:22:45Z</time>
      </trkpt>
      <trkpt lat="45.54471" lon="5.74274">
        <ele>507.7</ele>
        <time>2021-08-23T13:22:46Z</time>
      </trkpt>
      <trkpt lat="45.54471" lon="5.74274">
        <ele>507.7</ele>
        <time>2021-08-23T13:22:48Z</time>
      </trkpt>
      <trkpt lat="45.54471" lon="5.74274">
        <ele>507.7</ele>
        <time>2021-08-23T13:22:49Z</time>
      </trkpt>
      <trkpt lat="45.54469" lon="5.74274">
        <ele>507.8</ele>
        <time>2021-08-23T13:22:50Z</time>
      </trkpt>
      <trkpt lat="45.54469" lon="5.74274">
        <ele>507.8</ele>
        <time>2021-08-23T13:22:51Z</time>
      </trkpt>
      <trkpt lat="45.54466" lon="5.74278">
        <ele>507.8</ele>
        <time>2021-08-23T13:22:53Z</time>
      </trkpt>
      <trkpt lat="45.54463" lon="5.74282">
        <ele>507.9</ele>
        <time>2021-08-23T13:22:54Z</time>
      </trkpt>
      <trkpt lat="45.54461" lon="5.74286">
        <ele>507.9</ele>
        <time>2021-08-23T13:22:55Z</time>
      </trkpt>
      <trkpt lat="45.54455" lon="5.74295">
        <ele>507.8</ele>
        <time>2021-08-23T13:22:56Z</time>
      </trkpt>
      <trkpt lat="45.54453" lon="5.743">
        <ele>506.7</ele>
        <time>2021-08-23T13:22:58Z</time>
      </trkpt>
      <trkpt lat="45.54453" lon="5.74305">
        <ele>506.4</ele>
        <time>2021-08-23T13:22:59Z</time>
      </trkpt>
      <trkpt lat="45.54457" lon="5.74321">
        <ele>505.6</ele>
        <time>2021-08-23T13:23:01Z</time>
      </trkpt>
      <trkpt lat="45.5446" lon="5.74332">
        <ele>505.1</ele>
        <time>2021-08-23T13:23:02Z</time>
      </trkpt>
      <trkpt lat="45.54467" lon="5.74353">
        <ele>504.2</ele>
        <time>2021-08-23T13:23:04Z</time>
      </trkpt>
      <trkpt lat="45.54471" lon="5.74364">
        <ele>503.8</ele>
        <time>2021-08-23T13:23:05Z</time>
      </trkpt>
      <trkpt lat="45.54477" lon="5.74386">
        <ele>503.1</ele>
        <time>2021-08-23T13:23:07Z</time>
      </trkpt>
      <trkpt lat="45.54478" lon="5.74398">
        <ele>502.7</ele>
        <time>2021-08-23T13:23:08Z</time>
      </trkpt>
      <trkpt lat="45.54477" lon="5.74423">
        <ele>501.8</ele>
        <time>2021-08-23T13:23:10Z</time>
      </trkpt>
      <trkpt lat="45.54479" lon="5.74433">
        <ele>501.5</ele>
        <time>2021-08-23T13:23:11Z</time>
      </trkpt>
      <trkpt lat="45.5448" lon="5.74443">
        <ele>501.1</ele>
        <time>2021-08-23T13:23:12Z</time>
      </trkpt>
      <trkpt lat="45.54483" lon="5.74461">
        <ele>500.4</ele>
        <time>2021-08-23T13:23:14Z</time>
      </trkpt>
      <trkpt lat="45.54485" lon="5.74481">
        <ele>499.7</ele>
        <time>2021-08-23T13:23:16Z</time>
      </trkpt>
      <trkpt lat="45.54488" lon="5.74501">
        <ele>499</ele>
        <time>2021-08-23T13:23:18Z</time>
      </trkpt>
      <trkpt lat="45.5449" lon="5.74518">
        <ele>498.1</ele>
        <time>2021-08-23T13:23:20Z</time>
      </trkpt>
      <trkpt lat="45.54486" lon="5.74538">
        <ele>496.9</ele>
        <time>2021-08-23T13:23:22Z</time>
      </trkpt>
      <trkpt lat="45.54485" lon="5.74547">
        <ele>496.3</ele>
        <time>2021-08-23T13:23:23Z</time>
      </trkpt>
      <trkpt lat="45.54484" lon="5.74555">
        <ele>495.8</ele>
        <time>2021-08-23T13:23:24Z</time>
      </trkpt>
      <trkpt lat="45.54485" lon="5.74564">
        <ele>495.3</ele>
        <time>2021-08-23T13:23:25Z</time>
      </trkpt>
      <trkpt lat="45.54487" lon="5.74571">
        <ele>494.9</ele>
        <time>2021-08-23T13:23:26Z</time>
      </trkpt>
      <trkpt lat="45.54489" lon="5.74587">
        <ele>494</ele>
        <time>2021-08-23T13:23:28Z</time>
      </trkpt>
      <trkpt lat="45.54489" lon="5.74594">
        <ele>493.6</ele>
        <time>2021-08-23T13:23:29Z</time>
      </trkpt>
      <trkpt lat="45.54488" lon="5.746">
        <ele>493.3</ele>
        <time>2021-08-23T13:23:30Z</time>
      </trkpt>
      <trkpt lat="45.54486" lon="5.74607">
        <ele>493</ele>
        <time>2021-08-23T13:23:32Z</time>
      </trkpt>
      <trkpt lat="45.54481" lon="5.74614">
        <ele>492.4</ele>
        <time>2021-08-23T13:23:34Z</time>
      </trkpt>
      <trkpt lat="45.54479" lon="5.74614">
        <ele>492.4</ele>
        <time>2021-08-23T13:23:35Z</time>
      </trkpt>
      <trkpt lat="45.54473" lon="5.74616">
        <ele>492.3</ele>
        <time>2021-08-23T13:23:37Z</time>
      </trkpt>
      <trkpt lat="45.5447" lon="5.74615">
        <ele>492.3</ele>
        <time>2021-08-23T13:23:38Z</time>
      </trkpt>
      <trkpt lat="45.54469" lon="5.74613">
        <ele>492.2</ele>
        <time>2021-08-23T13:23:39Z</time>
      </trkpt>
      <trkpt lat="45.54464" lon="5.74605">
        <ele>492.1</ele>
        <time>2021-08-23T13:23:40Z</time>
      </trkpt>
      <trkpt lat="45.54455" lon="5.74591">
        <ele>491.7</ele>
        <time>2021-08-23T13:23:42Z</time>
      </trkpt>
      <trkpt lat="45.5445" lon="5.74585">
        <ele>491.5</ele>
        <time>2021-08-23T13:23:43Z</time>
      </trkpt>
      <trkpt lat="45.54444" lon="5.7458">
        <ele>491.2</ele>
        <time>2021-08-23T13:23:44Z</time>
      </trkpt>
      <trkpt lat="45.54433" lon="5.74569">
        <ele>490.7</ele>
        <time>2021-08-23T13:23:46Z</time>
      </trkpt>
      <trkpt lat="45.54427" lon="5.74565">
        <ele>490.4</ele>
        <time>2021-08-23T13:23:47Z</time>
      </trkpt>
      <trkpt lat="45.54412" lon="5.74555">
        <ele>489.7</ele>
        <time>2021-08-23T13:23:49Z</time>
      </trkpt>
      <trkpt lat="45.54407" lon="5.74548">
        <ele>489.4</ele>
        <time>2021-08-23T13:23:50Z</time>
      </trkpt>
      <trkpt lat="45.54396" lon="5.74534">
        <ele>488.8</ele>
        <time>2021-08-23T13:23:52Z</time>
      </trkpt>
      <trkpt lat="45.54391" lon="5.74527">
        <ele>488.4</ele>
        <time>2021-08-23T13:23:53Z</time>
      </trkpt>
      <trkpt lat="45.54385" lon="5.74521">
        <ele>488.1</ele>
        <time>2021-08-23T13:23:54Z</time>
      </trkpt>
      <trkpt lat="45.54373" lon="5.74511">
        <ele>487.5</ele>
        <time>2021-08-23T13:23:56Z</time>
      </trkpt>
      <trkpt lat="45.54363" lon="5.74506">
        <ele>487</ele>
        <time>2021-08-23T13:23:58Z</time>
      </trkpt>
      <trkpt lat="45.54356" lon="5.74502">
        <ele>486.7</ele>
        <time>2021-08-23T13:24:00Z</time>
      </trkpt>
      <trkpt lat="45.54354" lon="5.74501">
        <ele>486.6</ele>
        <time>2021-08-23T13:24:01Z</time>
      </trkpt>
      <trkpt lat="45.54353" lon="5.745">
        <ele>486.5</ele>
        <time>2021-08-23T13:24:03Z</time>
      </trkpt>
      <trkpt lat="45.54354" lon="5.745">
        <ele>486.5</ele>
        <time>2021-08-23T13:24:04Z</time>
      </trkpt>
      <trkpt lat="45.54354" lon="5.74501">
        <ele>486.4</ele>
        <time>2021-08-23T13:24:05Z</time>
      </trkpt>
      <trkpt lat="45.54355" lon="5.74502">
        <ele>486.4</ele>
        <time>2021-08-23T13:24:06Z</time>
      </trkpt>
      <trkpt lat="45.54355" lon="5.74502">
        <ele>486.4</ele>
        <time>2021-08-23T13:24:07Z</time>
      </trkpt>
      <trkpt lat="45.54355" lon="5.74502">
        <ele>486.3</ele>
        <time>2021-08-23T13:24:10Z</time>
      </trkpt>
      <trkpt lat="45.54355" lon="5.74502">
        <ele>486.3</ele>
        <time>2021-08-23T13:24:12Z</time>
      </trkpt>
      <trkpt lat="45.54354" lon="5.74501">
        <ele>486.3</ele>
        <time>2021-08-23T13:24:14Z</time>
      </trkpt>
      <trkpt lat="45.54351" lon="5.74464">
        <ele>485.1</ele>
        <time>2021-08-23T13:24:26Z</time>
      </trkpt>
      <trkpt lat="45.5435" lon="5.74459">
        <ele>484.9</ele>
        <time>2021-08-23T13:24:27Z</time>
      </trkpt>
      <trkpt lat="45.54347" lon="5.74459">
        <ele>484.8</ele>
        <time>2021-08-23T13:24:29Z</time>
      </trkpt>
      <trkpt lat="45.54345" lon="5.74458">
        <ele>484.7</ele>
        <time>2021-08-23T13:24:30Z</time>
      </trkpt>
      <trkpt lat="45.54338" lon="5.74449">
        <ele>484.2</ele>
        <time>2021-08-23T13:24:32Z</time>
      </trkpt>
      <trkpt lat="45.54335" lon="5.74437">
        <ele>483.8</ele>
        <time>2021-08-23T13:24:34Z</time>
      </trkpt>
      <trkpt lat="45.54334" lon="5.74433">
        <ele>483.6</ele>
        <time>2021-08-23T13:24:35Z</time>
      </trkpt>
      <trkpt lat="45.54334" lon="5.7443">
        <ele>483.5</ele>
        <time>2021-08-23T13:24:36Z</time>
      </trkpt>
      <trkpt lat="45.54334" lon="5.74431">
        <ele>483.5</ele>
        <time>2021-08-23T13:24:37Z</time>
      </trkpt>
      <trkpt lat="45.54352" lon="5.74502">
        <ele>480.8</ele>
        <time>2021-08-23T13:25:13Z</time>
      </trkpt>
      <trkpt lat="45.54351" lon="5.74506">
        <ele>480.6</ele>
        <time>2021-08-23T13:25:14Z</time>
      </trkpt>
      <trkpt lat="45.54338" lon="5.74503">
        <ele>480</ele>
        <time>2021-08-23T13:25:16Z</time>
      </trkpt>
      <trkpt lat="45.54323" lon="5.74496">
        <ele>479.2</ele>
        <time>2021-08-23T13:25:18Z</time>
      </trkpt>
      <trkpt lat="45.54309" lon="5.74489">
        <ele>478.5</ele>
        <time>2021-08-23T13:25:20Z</time>
      </trkpt>
      <trkpt lat="45.54302" lon="5.74485">
        <ele>478.1</ele>
        <time>2021-08-23T13:25:21Z</time>
      </trkpt>
      <trkpt lat="45.54294" lon="5.74481">
        <ele>477.8</ele>
        <time>2021-08-23T13:25:22Z</time>
      </trkpt>
      <trkpt lat="45.54286" lon="5.74478">
        <ele>477.4</ele>
        <time>2021-08-23T13:25:23Z</time>
      </trkpt>
      <trkpt lat="45.54271" lon="5.74473">
        <ele>476.6</ele>
        <time>2021-08-23T13:25:25Z</time>
      </trkpt>
      <trkpt lat="45.54263" lon="5.74471">
        <ele>476.2</ele>
        <time>2021-08-23T13:25:26Z</time>
      </trkpt>
      <trkpt lat="45.54248" lon="5.74465">
        <ele>475.3</ele>
        <time>2021-08-23T13:25:28Z</time>
      </trkpt>
      <trkpt lat="45.5424" lon="5.74463">
        <ele>474.9</ele>
        <time>2021-08-23T13:25:29Z</time>
      </trkpt>
      <trkpt lat="45.54232" lon="5.74462">
        <ele>474.4</ele>
        <time>2021-08-23T13:25:30Z</time>
      </trkpt>
      <trkpt lat="45.54218" lon="5.74459">
        <ele>473.5</ele>
        <time>2021-08-23T13:25:32Z</time>
      </trkpt>
      <trkpt lat="45.54204" lon="5.74456">
        <ele>472.6</ele>
        <time>2021-08-23T13:25:34Z</time>
      </trkpt>
      <trkpt lat="45.54197" lon="5.74454">
        <ele>472</ele>
        <time>2021-08-23T13:25:35Z</time>
      </trkpt>
      <trkpt lat="45.54184" lon="5.74452">
        <ele>470.9</ele>
        <time>2021-08-23T13:25:37Z</time>
      </trkpt>
      <trkpt lat="45.54177" lon="5.74452">
        <ele>470.3</ele>
        <time>2021-08-23T13:25:38Z</time>
      </trkpt>
      <trkpt lat="45.54163" lon="5.74454">
        <ele>469.1</ele>
        <time>2021-08-23T13:25:40Z</time>
      </trkpt>
      <trkpt lat="45.54156" lon="5.74456">
        <ele>468.6</ele>
        <time>2021-08-23T13:25:41Z</time>
      </trkpt>
      <trkpt lat="45.5415" lon="5.74458">
        <ele>468.1</ele>
        <time>2021-08-23T13:25:42Z</time>
      </trkpt>
      <trkpt lat="45.54138" lon="5.74462">
        <ele>467.3</ele>
        <time>2021-08-23T13:25:44Z</time>
      </trkpt>
      <trkpt lat="45.54127" lon="5.74463">
        <ele>466.1</ele>
        <time>2021-08-23T13:25:46Z</time>
      </trkpt>
      <trkpt lat="45.54121" lon="5.74462">
        <ele>465.4</ele>
        <time>2021-08-23T13:25:47Z</time>
      </trkpt>
      <trkpt lat="45.54114" lon="5.74461">
        <ele>464.4</ele>
        <time>2021-08-23T13:25:48Z</time>
      </trkpt>
      <trkpt lat="45.54106" lon="5.74459">
        <ele>463.3</ele>
        <time>2021-08-23T13:25:49Z</time>
      </trkpt>
      <trkpt lat="45.54098" lon="5.74455">
        <ele>462</ele>
        <time>2021-08-23T13:25:50Z</time>
      </trkpt>
      <trkpt lat="45.54081" lon="5.74444">
        <ele>459.5</ele>
        <time>2021-08-23T13:25:52Z</time>
      </trkpt>
      <trkpt lat="45.54071" lon="5.74438">
        <ele>458.3</ele>
        <time>2021-08-23T13:25:53Z</time>
      </trkpt>
      <trkpt lat="45.54052" lon="5.74426">
        <ele>456.4</ele>
        <time>2021-08-23T13:25:55Z</time>
      </trkpt>
      <trkpt lat="45.54043" lon="5.74421">
        <ele>455.6</ele>
        <time>2021-08-23T13:25:56Z</time>
      </trkpt>
      <trkpt lat="45.54026" lon="5.74414">
        <ele>453.9</ele>
        <time>2021-08-23T13:25:58Z</time>
      </trkpt>
      <trkpt lat="45.54009" lon="5.74414">
        <ele>452.2</ele>
        <time>2021-08-23T13:26:00Z</time>
      </trkpt>
      <trkpt lat="45.54001" lon="5.74418">
        <ele>451.3</ele>
        <time>2021-08-23T13:26:01Z</time>
      </trkpt>
      <trkpt lat="45.53992" lon="5.74426">
        <ele>450.4</ele>
        <time>2021-08-23T13:26:02Z</time>
      </trkpt>
      <trkpt lat="45.53976" lon="5.74438">
        <ele>448.7</ele>
        <time>2021-08-23T13:26:04Z</time>
      </trkpt>
      <trkpt lat="45.53969" lon="5.74444">
        <ele>448</ele>
        <time>2021-08-23T13:26:05Z</time>
      </trkpt>
      <trkpt lat="45.53963" lon="5.7445">
        <ele>447.4</ele>
        <time>2021-08-23T13:26:06Z</time>
      </trkpt>
      <trkpt lat="45.53957" lon="5.74456">
        <ele>446.8</ele>
        <time>2021-08-23T13:26:07Z</time>
      </trkpt>
      <trkpt lat="45.53952" lon="5.74461">
        <ele>446.3</ele>
        <time>2021-08-23T13:26:08Z</time>
      </trkpt>
      <trkpt lat="45.53942" lon="5.74472">
        <ele>445.3</ele>
        <time>2021-08-23T13:26:10Z</time>
      </trkpt>
      <trkpt lat="45.53936" lon="5.74476">
        <ele>444.9</ele>
        <time>2021-08-23T13:26:11Z</time>
      </trkpt>
      <trkpt lat="45.53931" lon="5.7448">
        <ele>444.5</ele>
        <time>2021-08-23T13:26:12Z</time>
      </trkpt>
      <trkpt lat="45.53918" lon="5.74487">
        <ele>443.6</ele>
        <time>2021-08-23T13:26:14Z</time>
      </trkpt>
      <trkpt lat="45.53912" lon="5.74491">
        <ele>443.2</ele>
        <time>2021-08-23T13:26:15Z</time>
      </trkpt>
      <trkpt lat="45.53908" lon="5.74494">
        <ele>442.8</ele>
        <time>2021-08-23T13:26:16Z</time>
      </trkpt>
      <trkpt lat="45.539" lon="5.74497">
        <ele>442.2</ele>
        <time>2021-08-23T13:26:18Z</time>
      </trkpt>
      <trkpt lat="45.53894" lon="5.74498">
        <ele>439.8</ele>
        <time>2021-08-23T13:26:19Z</time>
      </trkpt>
      <trkpt lat="45.53884" lon="5.74505">
        <ele>438.6</ele>
        <time>2021-08-23T13:26:21Z</time>
      </trkpt>
      <trkpt lat="45.53872" lon="5.74515">
        <ele>437.3</ele>
        <time>2021-08-23T13:26:23Z</time>
      </trkpt>
      <trkpt lat="45.53865" lon="5.74519">
        <ele>436.6</ele>
        <time>2021-08-23T13:26:24Z</time>
      </trkpt>
      <trkpt lat="45.53851" lon="5.74529">
        <ele>435.1</ele>
        <time>2021-08-23T13:26:26Z</time>
      </trkpt>
      <trkpt lat="45.53836" lon="5.74542">
        <ele>433.7</ele>
        <time>2021-08-23T13:26:28Z</time>
      </trkpt>
      <trkpt lat="45.53824" lon="5.74558">
        <ele>432.8</ele>
        <time>2021-08-23T13:26:30Z</time>
      </trkpt>
      <trkpt lat="45.53819" lon="5.74574">
        <ele>432.3</ele>
        <time>2021-08-23T13:26:32Z</time>
      </trkpt>
      <trkpt lat="45.53817" lon="5.74587">
        <ele>432</ele>
        <time>2021-08-23T13:26:34Z</time>
      </trkpt>
      <trkpt lat="45.53817" lon="5.74592">
        <ele>431.9</ele>
        <time>2021-08-23T13:26:35Z</time>
      </trkpt>
      <trkpt lat="45.53818" lon="5.74594">
        <ele>431.9</ele>
        <time>2021-08-23T13:26:36Z</time>
      </trkpt>
      <trkpt lat="45.53818" lon="5.74603">
        <ele>431.8</ele>
        <time>2021-08-23T13:26:38Z</time>
      </trkpt>
      <trkpt lat="45.5382" lon="5.74613">
        <ele>431.8</ele>
        <time>2021-08-23T13:26:40Z</time>
      </trkpt>
      <trkpt lat="45.5382" lon="5.7462">
        <ele>431.8</ele>
        <time>2021-08-23T13:26:41Z</time>
      </trkpt>
      <trkpt lat="45.53821" lon="5.74625">
        <ele>431.8</ele>
        <time>2021-08-23T13:26:42Z</time>
      </trkpt>
      <trkpt lat="45.53822" lon="5.74635">
        <ele>431.8</ele>
        <time>2021-08-23T13:26:44Z</time>
      </trkpt>
      <trkpt lat="45.53821" lon="5.74644">
        <ele>431.9</ele>
        <time>2021-08-23T13:26:46Z</time>
      </trkpt>
      <trkpt lat="45.5382" lon="5.74656">
        <ele>432</ele>
        <time>2021-08-23T13:26:48Z</time>
      </trkpt>
      <trkpt lat="45.5382" lon="5.74667">
        <ele>432.1</ele>
        <time>2021-08-23T13:26:50Z</time>
      </trkpt>
      <trkpt lat="45.5382" lon="5.74679">
        <ele>432.3</ele>
        <time>2021-08-23T13:26:52Z</time>
      </trkpt>
      <trkpt lat="45.5382" lon="5.74684">
        <ele>432.4</ele>
        <time>2021-08-23T13:26:53Z</time>
      </trkpt>
      <trkpt lat="45.5382" lon="5.7469">
        <ele>432.4</ele>
        <time>2021-08-23T13:26:54Z</time>
      </trkpt>
      <trkpt lat="45.5382" lon="5.74696">
        <ele>432.5</ele>
        <time>2021-08-23T13:26:55Z</time>
      </trkpt>
      <trkpt lat="45.53821" lon="5.74702">
        <ele>432.6</ele>
        <time>2021-08-23T13:26:56Z</time>
      </trkpt>
      <trkpt lat="45.53821" lon="5.74716">
        <ele>432.8</ele>
        <time>2021-08-23T13:26:58Z</time>
      </trkpt>
      <trkpt lat="45.53821" lon="5.74724">
        <ele>432.9</ele>
        <time>2021-08-23T13:26:59Z</time>
      </trkpt>
      <trkpt lat="45.5382" lon="5.74739">
        <ele>433.2</ele>
        <time>2021-08-23T13:27:01Z</time>
      </trkpt>
      <trkpt lat="45.53819" lon="5.74746">
        <ele>433.4</ele>
        <time>2021-08-23T13:27:02Z</time>
      </trkpt>
      <trkpt lat="45.53817" lon="5.74757">
        <ele>433.8</ele>
        <time>2021-08-23T13:27:04Z</time>
      </trkpt>
      <trkpt lat="45.53816" lon="5.74762">
        <ele>434.1</ele>
        <time>2021-08-23T13:27:05Z</time>
      </trkpt>
      <trkpt lat="45.53815" lon="5.74766">
        <ele>434.2</ele>
        <time>2021-08-23T13:27:06Z</time>
      </trkpt>
      <trkpt lat="45.53814" lon="5.74773">
        <ele>434.5</ele>
        <time>2021-08-23T13:27:08Z</time>
      </trkpt>
      <trkpt lat="45.53812" lon="5.7478">
        <ele>434.7</ele>
        <time>2021-08-23T13:27:10Z</time>
      </trkpt>
      <trkpt lat="45.5381" lon="5.74784">
        <ele>434.8</ele>
        <time>2021-08-23T13:27:11Z</time>
      </trkpt>
      <trkpt lat="45.5381" lon="5.74788">
        <ele>434.8</ele>
        <time>2021-08-23T13:27:12Z</time>
      </trkpt>
      <trkpt lat="45.53807" lon="5.748">
        <ele>434.5</ele>
        <time>2021-08-23T13:27:14Z</time>
      </trkpt>
      <trkpt lat="45.53804" lon="5.74809">
        <ele>434.1</ele>
        <time>2021-08-23T13:27:16Z</time>
      </trkpt>
      <trkpt lat="45.53802" lon="5.74814">
        <ele>434</ele>
        <time>2021-08-23T13:27:17Z</time>
      </trkpt>
      <trkpt lat="45.53799" lon="5.7482">
        <ele>433.9</ele>
        <time>2021-08-23T13:27:18Z</time>
      </trkpt>
      <trkpt lat="45.53791" lon="5.74837">
        <ele>430.5</ele>
        <time>2021-08-23T13:27:20Z</time>
      </trkpt>
      <trkpt lat="45.53784" lon="5.74851">
        <ele>427.9</ele>
        <time>2021-08-23T13:27:22Z</time>
      </trkpt>
      <trkpt lat="45.53783" lon="5.74855">
        <ele>427.4</ele>
        <time>2021-08-23T13:27:23Z</time>
      </trkpt>
      <trkpt lat="45.53781" lon="5.74859">
        <ele>427</ele>
        <time>2021-08-23T13:27:24Z</time>
      </trkpt>
      <trkpt lat="45.53781" lon="5.74861">
        <ele>426.8</ele>
        <time>2021-08-23T13:27:26Z</time>
      </trkpt>
      <trkpt lat="45.53784" lon="5.74863">
        <ele>426.3</ele>
        <time>2021-08-23T13:27:28Z</time>
      </trkpt>
      <trkpt lat="45.53798" lon="5.74866">
        <ele>424.2</ele>
        <time>2021-08-23T13:27:30Z</time>
      </trkpt>
      <trkpt lat="45.5381" lon="5.74867">
        <ele>422.1</ele>
        <time>2021-08-23T13:27:32Z</time>
      </trkpt>
      <trkpt lat="45.5382" lon="5.74868">
        <ele>420.2</ele>
        <time>2021-08-23T13:27:34Z</time>
      </trkpt>
      <trkpt lat="45.53823" lon="5.74873">
        <ele>419.1</ele>
        <time>2021-08-23T13:27:35Z</time>
      </trkpt>
      <trkpt lat="45.53825" lon="5.74869">
        <ele>418.4</ele>
        <time>2021-08-23T13:27:36Z</time>
      </trkpt>
      <trkpt lat="45.53829" lon="5.74868">
        <ele>417.6</ele>
        <time>2021-08-23T13:27:38Z</time>
      </trkpt>
      <trkpt lat="45.5383" lon="5.74869">
        <ele>417.2</ele>
        <time>2021-08-23T13:27:39Z</time>
      </trkpt>
      <trkpt lat="45.53833" lon="5.7487">
        <ele>416.5</ele>
        <time>2021-08-23T13:27:41Z</time>
      </trkpt>
      <trkpt lat="45.53836" lon="5.7487">
        <ele>415.8</ele>
        <time>2021-08-23T13:27:42Z</time>
      </trkpt>
      <trkpt lat="45.5384" lon="5.74871">
        <ele>415</ele>
        <time>2021-08-23T13:27:43Z</time>
      </trkpt>
      <trkpt lat="45.53843" lon="5.74871">
        <ele>414.3</ele>
        <time>2021-08-23T13:27:45Z</time>
      </trkpt>
      <trkpt lat="45.53848" lon="5.74871">
        <ele>413.4</ele>
        <time>2021-08-23T13:27:46Z</time>
      </trkpt>
      <trkpt lat="45.53853" lon="5.74872">
        <ele>412.5</ele>
        <time>2021-08-23T13:27:47Z</time>
      </trkpt>
      <trkpt lat="45.53857" lon="5.74872">
        <ele>411.7</ele>
        <time>2021-08-23T13:27:48Z</time>
      </trkpt>
      <trkpt lat="45.53865" lon="5.74875">
        <ele>410.3</ele>
        <time>2021-08-23T13:27:50Z</time>
      </trkpt>
      <trkpt lat="45.53874" lon="5.74878">
        <ele>408.8</ele>
        <time>2021-08-23T13:27:52Z</time>
      </trkpt>
      <trkpt lat="45.53878" lon="5.7488">
        <ele>408.2</ele>
        <time>2021-08-23T13:27:53Z</time>
      </trkpt>
      <trkpt lat="45.53879" lon="5.74881">
        <ele>408</ele>
        <time>2021-08-23T13:27:54Z</time>
      </trkpt>
      <trkpt lat="45.53885" lon="5.74884">
        <ele>407.1</ele>
        <time>2021-08-23T13:27:56Z</time>
      </trkpt>
      <trkpt lat="45.53889" lon="5.74887">
        <ele>406.4</ele>
        <time>2021-08-23T13:27:57Z</time>
      </trkpt>
      <trkpt lat="45.53894" lon="5.74889">
        <ele>405.6</ele>
        <time>2021-08-23T13:27:58Z</time>
      </trkpt>
      <trkpt lat="45.53899" lon="5.74892">
        <ele>404.8</ele>
        <time>2021-08-23T13:27:59Z</time>
      </trkpt>
      <trkpt lat="45.53903" lon="5.74894">
        <ele>404.2</ele>
        <time>2021-08-23T13:28:01Z</time>
      </trkpt>
      <trkpt lat="45.53908" lon="5.74902">
        <ele>403</ele>
        <time>2021-08-23T13:28:02Z</time>
      </trkpt>
      <trkpt lat="45.53913" lon="5.74906">
        <ele>402.1</ele>
        <time>2021-08-23T13:28:04Z</time>
      </trkpt>
      <trkpt lat="45.53919" lon="5.74911">
        <ele>401.1</ele>
        <time>2021-08-23T13:28:05Z</time>
      </trkpt>
      <trkpt lat="45.53928" lon="5.74912">
        <ele>399.7</ele>
        <time>2021-08-23T13:28:07Z</time>
      </trkpt>
      <trkpt lat="45.53932" lon="5.74915">
        <ele>399</ele>
        <time>2021-08-23T13:28:08Z</time>
      </trkpt>
      <trkpt lat="45.53942" lon="5.74925">
        <ele>397.2</ele>
        <time>2021-08-23T13:28:10Z</time>
      </trkpt>
      <trkpt lat="45.53948" lon="5.74931">
        <ele>396.3</ele>
        <time>2021-08-23T13:28:11Z</time>
      </trkpt>
      <trkpt lat="45.53954" lon="5.74935">
        <ele>395.5</ele>
        <time>2021-08-23T13:28:12Z</time>
      </trkpt>
      <trkpt lat="45.53964" lon="5.74943">
        <ele>393.8</ele>
        <time>2021-08-23T13:28:14Z</time>
      </trkpt>
      <trkpt lat="45.5398" lon="5.74946">
        <ele>392.9</ele>
        <time>2021-08-23T13:28:16Z</time>
      </trkpt>
      <trkpt lat="45.53987" lon="5.74949">
        <ele>392.4</ele>
        <time>2021-08-23T13:28:17Z</time>
      </trkpt>
      <trkpt lat="45.53994" lon="5.74953">
        <ele>392</ele>
        <time>2021-08-23T13:28:18Z</time>
      </trkpt>
      <trkpt lat="45.54006" lon="5.74954">
        <ele>391.2</ele>
        <time>2021-08-23T13:28:20Z</time>
      </trkpt>
      <trkpt lat="45.54015" lon="5.74952">
        <ele>390.8</ele>
        <time>2021-08-23T13:28:22Z</time>
      </trkpt>
      <trkpt lat="45.54033" lon="5.7494">
        <ele>390.3</ele>
        <time>2021-08-23T13:28:24Z</time>
      </trkpt>
      <trkpt lat="45.54047" lon="5.74924">
        <ele>390.4</ele>
        <time>2021-08-23T13:28:26Z</time>
      </trkpt>
      <trkpt lat="45.54057" lon="5.74903">
        <ele>391</ele>
        <time>2021-08-23T13:28:28Z</time>
      </trkpt>
      <trkpt lat="45.5406" lon="5.74894">
        <ele>391.3</ele>
        <time>2021-08-23T13:28:29Z</time>
      </trkpt>
      <trkpt lat="45.54065" lon="5.74887">
        <ele>391.5</ele>
        <time>2021-08-23T13:28:30Z</time>
      </trkpt>
      <trkpt lat="45.54071" lon="5.74875">
        <ele>391.7</ele>
        <time>2021-08-23T13:28:32Z</time>
      </trkpt>
      <trkpt lat="45.54075" lon="5.74865">
        <ele>391.6</ele>
        <time>2021-08-23T13:28:34Z</time>
      </trkpt>
      <trkpt lat="45.54077" lon="5.7486">
        <ele>391.5</ele>
        <time>2021-08-23T13:28:35Z</time>
      </trkpt>
      <trkpt lat="45.54078" lon="5.74859">
        <ele>391.5</ele>
        <time>2021-08-23T13:28:36Z</time>
      </trkpt>
      <trkpt lat="45.5408" lon="5.74854">
        <ele>391.3</ele>
        <time>2021-08-23T13:28:38Z</time>
      </trkpt>
      <trkpt lat="45.5408" lon="5.74856">
        <ele>391.3</ele>
        <time>2021-08-23T13:28:39Z</time>
      </trkpt>
      <trkpt lat="45.54082" lon="5.74851">
        <ele>391.1</ele>
        <time>2021-08-23T13:28:40Z</time>
      </trkpt>
      <trkpt lat="45.54083" lon="5.74848">
        <ele>391</ele>
        <time>2021-08-23T13:28:42Z</time>
      </trkpt>
      <trkpt lat="45.54084" lon="5.74841">
        <ele>390.8</ele>
        <time>2021-08-23T13:28:43Z</time>
      </trkpt>
      <trkpt lat="45.54085" lon="5.74837">
        <ele>390.7</ele>
        <time>2021-08-23T13:28:44Z</time>
      </trkpt>
      <trkpt lat="45.54086" lon="5.74833">
        <ele>390.6</ele>
        <time>2021-08-23T13:28:45Z</time>
      </trkpt>
      <trkpt lat="45.54088" lon="5.74827">
        <ele>390.5</ele>
        <time>2021-08-23T13:28:47Z</time>
      </trkpt>
      <trkpt lat="45.54088" lon="5.74825">
        <ele>390.5</ele>
        <time>2021-08-23T13:28:48Z</time>
      </trkpt>
      <trkpt lat="45.54089" lon="5.74823">
        <ele>390.5</ele>
        <time>2021-08-23T13:28:49Z</time>
      </trkpt>
      <trkpt lat="45.54091" lon="5.74821">
        <ele>390.5</ele>
        <time>2021-08-23T13:28:50Z</time>
      </trkpt>
      <trkpt lat="45.54094" lon="5.74819">
        <ele>390.5</ele>
        <time>2021-08-23T13:28:52Z</time>
      </trkpt>
      <trkpt lat="45.54097" lon="5.74819">
        <ele>390.5</ele>
        <time>2021-08-23T13:28:54Z</time>
      </trkpt>
      <trkpt lat="45.54098" lon="5.74818">
        <ele>390.5</ele>
        <time>2021-08-23T13:28:56Z</time>
      </trkpt>
      <trkpt lat="45.54099" lon="5.74817">
        <ele>390.5</ele>
        <time>2021-08-23T13:28:57Z</time>
      </trkpt>
      <trkpt lat="45.54099" lon="5.74816">
        <ele>390.5</ele>
        <time>2021-08-23T13:28:59Z</time>
      </trkpt>
      <trkpt lat="45.54099" lon="5.74816">
        <ele>390.5</ele>
        <time>2021-08-23T13:29:00Z</time>
      </trkpt>
      <trkpt lat="45.54099" lon="5.74816">
        <ele>390.5</ele>
        <time>2021-08-23T13:29:02Z</time>
      </trkpt>
      <trkpt lat="45.54135" lon="5.74845">
        <ele>391.6</ele>
        <time>2021-08-23T13:30:44Z</time>
      </trkpt>
      <trkpt lat="45.54135" lon="5.74849">
        <ele>391.5</ele>
        <time>2021-08-23T13:30:46Z</time>
      </trkpt>
      <trkpt lat="45.54134" lon="5.74852">
        <ele>391.4</ele>
        <time>2021-08-23T13:30:47Z</time>
      </trkpt>
      <trkpt lat="45.54131" lon="5.74863">
        <ele>391.2</ele>
        <time>2021-08-23T13:30:49Z</time>
      </trkpt>
      <trkpt lat="45.5413" lon="5.74867">
        <ele>391.1</ele>
        <time>2021-08-23T13:30:50Z</time>
      </trkpt>
      <trkpt lat="45.54128" lon="5.74876">
        <ele>390.8</ele>
        <time>2021-08-23T13:30:51Z</time>
      </trkpt>
      <trkpt lat="45.54126" lon="5.74883">
        <ele>390.6</ele>
        <time>2021-08-23T13:30:53Z</time>
      </trkpt>
      <trkpt lat="45.54122" lon="5.74895">
        <ele>390.2</ele>
        <time>2021-08-23T13:30:55Z</time>
      </trkpt>
      <trkpt lat="45.54117" lon="5.74908">
        <ele>389.6</ele>
        <time>2021-08-23T13:30:56Z</time>
      </trkpt>
      <trkpt lat="45.54114" lon="5.74915">
        <ele>389.3</ele>
        <time>2021-08-23T13:30:57Z</time>
      </trkpt>
      <trkpt lat="45.54112" lon="5.74929">
        <ele>388.7</ele>
        <time>2021-08-23T13:30:59Z</time>
      </trkpt>
      <trkpt lat="45.54111" lon="5.74942">
        <ele>388.1</ele>
        <time>2021-08-23T13:31:01Z</time>
      </trkpt>
      <trkpt lat="45.54112" lon="5.74957">
        <ele>387.4</ele>
        <time>2021-08-23T13:31:03Z</time>
      </trkpt>
      <trkpt lat="45.54116" lon="5.74972">
        <ele>386.7</ele>
        <time>2021-08-23T13:31:05Z</time>
      </trkpt>
      <trkpt lat="45.54124" lon="5.74989">
        <ele>385.8</ele>
        <time>2021-08-23T13:31:07Z</time>
      </trkpt>
      <trkpt lat="45.5413" lon="5.74999">
        <ele>385.2</ele>
        <time>2021-08-23T13:31:08Z</time>
      </trkpt>
      <trkpt lat="45.54142" lon="5.75016">
        <ele>384.2</ele>
        <time>2021-08-23T13:31:10Z</time>
      </trkpt>
      <trkpt lat="45.54148" lon="5.75023">
        <ele>383.7</ele>
        <time>2021-08-23T13:31:11Z</time>
      </trkpt>
      <trkpt lat="45.54154" lon="5.75031">
        <ele>383.3</ele>
        <time>2021-08-23T13:31:12Z</time>
      </trkpt>
      <trkpt lat="45.54167" lon="5.75045">
        <ele>382.4</ele>
        <time>2021-08-23T13:31:14Z</time>
      </trkpt>
      <trkpt lat="45.54173" lon="5.75052">
        <ele>381.9</ele>
        <time>2021-08-23T13:31:15Z</time>
      </trkpt>
      <trkpt lat="45.54186" lon="5.7507">
        <ele>381</ele>
        <time>2021-08-23T13:31:17Z</time>
      </trkpt>
      <trkpt lat="45.54195" lon="5.75089">
        <ele>380.2</ele>
        <time>2021-08-23T13:31:19Z</time>
      </trkpt>
      <trkpt lat="45.54198" lon="5.75099">
        <ele>379.8</ele>
        <time>2021-08-23T13:31:20Z</time>
      </trkpt>
      <trkpt lat="45.54201" lon="5.7512">
        <ele>379</ele>
        <time>2021-08-23T13:31:22Z</time>
      </trkpt>
      <trkpt lat="45.54202" lon="5.7513">
        <ele>378.6</ele>
        <time>2021-08-23T13:31:23Z</time>
      </trkpt>
      <trkpt lat="45.54202" lon="5.7514">
        <ele>378.3</ele>
        <time>2021-08-23T13:31:24Z</time>
      </trkpt>
      <trkpt lat="45.54197" lon="5.75161">
        <ele>377.5</ele>
        <time>2021-08-23T13:31:26Z</time>
      </trkpt>
      <trkpt lat="45.54194" lon="5.75187">
        <ele>376.7</ele>
        <time>2021-08-23T13:31:28Z</time>
      </trkpt>
      <trkpt lat="45.54195" lon="5.75213">
        <ele>375.7</ele>
        <time>2021-08-23T13:31:30Z</time>
      </trkpt>
      <trkpt lat="45.54203" lon="5.75229">
        <ele>375.1</ele>
        <time>2021-08-23T13:31:32Z</time>
      </trkpt>
      <trkpt lat="45.54211" lon="5.75246">
        <ele>374.6</ele>
        <time>2021-08-23T13:31:34Z</time>
      </trkpt>
      <trkpt lat="45.54214" lon="5.75256">
        <ele>374.4</ele>
        <time>2021-08-23T13:31:35Z</time>
      </trkpt>
      <trkpt lat="45.54215" lon="5.75267">
        <ele>374.1</ele>
        <time>2021-08-23T13:31:36Z</time>
      </trkpt>
      <trkpt lat="45.54216" lon="5.75288">
        <ele>373.7</ele>
        <time>2021-08-23T13:31:38Z</time>
      </trkpt>
      <trkpt lat="45.5421" lon="5.75309">
        <ele>373.3</ele>
        <time>2021-08-23T13:31:40Z</time>
      </trkpt>
      <trkpt lat="45.54206" lon="5.75319">
        <ele>373.1</ele>
        <time>2021-08-23T13:31:41Z</time>
      </trkpt>
      <trkpt lat="45.54201" lon="5.7533">
        <ele>373</ele>
        <time>2021-08-23T13:31:42Z</time>
      </trkpt>
      <trkpt lat="45.54193" lon="5.75338">
        <ele>372.9</ele>
        <time>2021-08-23T13:31:43Z</time>
      </trkpt>
      <trkpt lat="45.54186" lon="5.75346">
        <ele>372.8</ele>
        <time>2021-08-23T13:31:44Z</time>
      </trkpt>
      <trkpt lat="45.54176" lon="5.75354">
        <ele>372.9</ele>
        <time>2021-08-23T13:31:46Z</time>
      </trkpt>
      <trkpt lat="45.54171" lon="5.75355">
        <ele>372.9</ele>
        <time>2021-08-23T13:31:47Z</time>
      </trkpt>
      <trkpt lat="45.54167" lon="5.75356">
        <ele>372.9</ele>
        <time>2021-08-23T13:31:48Z</time>
      </trkpt>
      <trkpt lat="45.54164" lon="5.75356">
        <ele>373</ele>
        <time>2021-08-23T13:31:49Z</time>
      </trkpt>
      <trkpt lat="45.54162" lon="5.75356">
        <ele>373</ele>
        <time>2021-08-23T13:31:50Z</time>
      </trkpt>
      <trkpt lat="45.54155" lon="5.75352">
        <ele>373.1</ele>
        <time>2021-08-23T13:31:52Z</time>
      </trkpt>
      <trkpt lat="45.5415" lon="5.75348">
        <ele>373</ele>
        <time>2021-08-23T13:31:53Z</time>
      </trkpt>
      <trkpt lat="45.54145" lon="5.75344">
        <ele>373</ele>
        <time>2021-08-23T13:31:55Z</time>
      </trkpt>
      <trkpt lat="45.54139" lon="5.75339">
        <ele>372.9</ele>
        <time>2021-08-23T13:31:57Z</time>
      </trkpt>
      <trkpt lat="45.54135" lon="5.75333">
        <ele>372.8</ele>
        <time>2021-08-23T13:31:58Z</time>
      </trkpt>
      <trkpt lat="45.54132" lon="5.75329">
        <ele>372.8</ele>
        <time>2021-08-23T13:32:00Z</time>
      </trkpt>
      <trkpt lat="45.5413" lon="5.75325">
        <ele>372.8</ele>
        <time>2021-08-23T13:32:01Z</time>
      </trkpt>
      <trkpt lat="45.54129" lon="5.75318">
        <ele>372.7</ele>
        <time>2021-08-23T13:32:02Z</time>
      </trkpt>
      <trkpt lat="45.54128" lon="5.75313">
        <ele>372.7</ele>
        <time>2021-08-23T13:32:03Z</time>
      </trkpt>
      <trkpt lat="45.54127" lon="5.75308">
        <ele>372.7</ele>
        <time>2021-08-23T13:32:04Z</time>
      </trkpt>
      <trkpt lat="45.54128" lon="5.75302">
        <ele>372.7</ele>
        <time>2021-08-23T13:32:05Z</time>
      </trkpt>
      <trkpt lat="45.54129" lon="5.75298">
        <ele>372.7</ele>
        <time>2021-08-23T13:32:06Z</time>
      </trkpt>
      <trkpt lat="45.54131" lon="5.753">
        <ele>372.7</ele>
        <time>2021-08-23T13:32:08Z</time>
      </trkpt>
      <trkpt lat="45.54132" lon="5.75302">
        <ele>372.7</ele>
        <time>2021-08-23T13:32:09Z</time>
      </trkpt>
      <trkpt lat="45.54133" lon="5.75306">
        <ele>372.7</ele>
        <time>2021-08-23T13:32:10Z</time>
      </trkpt>
      <trkpt lat="45.54138" lon="5.7531">
        <ele>372.8</ele>
        <time>2021-08-23T13:32:12Z</time>
      </trkpt>
      <trkpt lat="45.54141" lon="5.75312">
        <ele>372.8</ele>
        <time>2021-08-23T13:32:13Z</time>
      </trkpt>
      <trkpt lat="45.54143" lon="5.75313">
        <ele>372.8</ele>
        <time>2021-08-23T13:32:14Z</time>
      </trkpt>
      <trkpt lat="45.54144" lon="5.75315">
        <ele>372.8</ele>
        <time>2021-08-23T13:32:16Z</time>
      </trkpt>
      <trkpt lat="45.54175" lon="5.75383">
        <ele>373.3</ele>
        <time>2021-08-23T13:32:27Z</time>
      </trkpt>
      <trkpt lat="45.54179" lon="5.7539">
        <ele>373.4</ele>
        <time>2021-08-23T13:32:29Z</time>
      </trkpt>
      <trkpt lat="45.54187" lon="5.75404">
        <ele>373.7</ele>
        <time>2021-08-23T13:32:30Z</time>
      </trkpt>
      <trkpt lat="45.54192" lon="5.75413">
        <ele>373.9</ele>
        <time>2021-08-23T13:32:32Z</time>
      </trkpt>
      <trkpt lat="45.54196" lon="5.75426">
        <ele>374.3</ele>
        <time>2021-08-23T13:32:33Z</time>
      </trkpt>
      <trkpt lat="45.54201" lon="5.7544">
        <ele>374.7</ele>
        <time>2021-08-23T13:32:35Z</time>
      </trkpt>
      <trkpt lat="45.54203" lon="5.75446">
        <ele>374.9</ele>
        <time>2021-08-23T13:32:36Z</time>
      </trkpt>
      <trkpt lat="45.54204" lon="5.75455">
        <ele>375.2</ele>
        <time>2021-08-23T13:32:37Z</time>
      </trkpt>
      <trkpt lat="45.54206" lon="5.75462">
        <ele>375.4</ele>
        <time>2021-08-23T13:32:39Z</time>
      </trkpt>
      <trkpt lat="45.54208" lon="5.75468">
        <ele>375.6</ele>
        <time>2021-08-23T13:32:40Z</time>
      </trkpt>
      <trkpt lat="45.54213" lon="5.75477">
        <ele>375.9</ele>
        <time>2021-08-23T13:32:42Z</time>
      </trkpt>
      <trkpt lat="45.54217" lon="5.75481">
        <ele>376.2</ele>
        <time>2021-08-23T13:32:43Z</time>
      </trkpt>
      <trkpt lat="45.54225" lon="5.75489">
        <ele>376.6</ele>
        <time>2021-08-23T13:32:44Z</time>
      </trkpt>
      <trkpt lat="45.54229" lon="5.75494">
        <ele>376.8</ele>
        <time>2021-08-23T13:32:46Z</time>
      </trkpt>
      <trkpt lat="45.54234" lon="5.75499">
        <ele>377.1</ele>
        <time>2021-08-23T13:32:47Z</time>
      </trkpt>
      <trkpt lat="45.54238" lon="5.75506">
        <ele>377.3</ele>
        <time>2021-08-23T13:32:48Z</time>
      </trkpt>
      <trkpt lat="45.5424" lon="5.75512">
        <ele>377.5</ele>
        <time>2021-08-23T13:32:50Z</time>
      </trkpt>
      <trkpt lat="45.54242" lon="5.75521">
        <ele>377.7</ele>
        <time>2021-08-23T13:32:51Z</time>
      </trkpt>
      <trkpt lat="45.54244" lon="5.75528">
        <ele>377.9</ele>
        <time>2021-08-23T13:32:53Z</time>
      </trkpt>
      <trkpt lat="45.54245" lon="5.75537">
        <ele>378.2</ele>
        <time>2021-08-23T13:32:55Z</time>
      </trkpt>
      <trkpt lat="45.54246" lon="5.75543">
        <ele>378.4</ele>
        <time>2021-08-23T13:32:56Z</time>
      </trkpt>
      <trkpt lat="45.54248" lon="5.75548">
        <ele>378.5</ele>
        <time>2021-08-23T13:32:57Z</time>
      </trkpt>
      <trkpt lat="45.5425" lon="5.75552">
        <ele>378.6</ele>
        <time>2021-08-23T13:32:59Z</time>
      </trkpt>
      <trkpt lat="45.5425" lon="5.75553">
        <ele>378.7</ele>
        <time>2021-08-23T13:33:00Z</time>
      </trkpt>
      <trkpt lat="45.5425" lon="5.75557">
        <ele>378.8</ele>
        <time>2021-08-23T13:33:01Z</time>
      </trkpt>
      <trkpt lat="45.5425" lon="5.75562">
        <ele>378.9</ele>
        <time>2021-08-23T13:33:02Z</time>
      </trkpt>
      <trkpt lat="45.5425" lon="5.75568">
        <ele>379</ele>
        <time>2021-08-23T13:33:03Z</time>
      </trkpt>
      <trkpt lat="45.5425" lon="5.75574">
        <ele>379.2</ele>
        <time>2021-08-23T13:33:04Z</time>
      </trkpt>
      <trkpt lat="45.5425" lon="5.75579">
        <ele>379.3</ele>
        <time>2021-08-23T13:33:06Z</time>
      </trkpt>
      <trkpt lat="45.54251" lon="5.75587">
        <ele>379.4</ele>
        <time>2021-08-23T13:33:07Z</time>
      </trkpt>
      <trkpt lat="45.54251" lon="5.75596">
        <ele>379.6</ele>
        <time>2021-08-23T13:33:09Z</time>
      </trkpt>
      <trkpt lat="45.54251" lon="5.75607">
        <ele>379.8</ele>
        <time>2021-08-23T13:33:10Z</time>
      </trkpt>
      <trkpt lat="45.54252" lon="5.75614">
        <ele>379.9</ele>
        <time>2021-08-23T13:33:12Z</time>
      </trkpt>
      <trkpt lat="45.54253" lon="5.75622">
        <ele>380.1</ele>
        <time>2021-08-23T13:33:13Z</time>
      </trkpt>
      <trkpt lat="45.54255" lon="5.7563">
        <ele>380.2</ele>
        <time>2021-08-23T13:33:15Z</time>
      </trkpt>
      <trkpt lat="45.54257" lon="5.75639">
        <ele>380.3</ele>
        <time>2021-08-23T13:33:16Z</time>
      </trkpt>
      <trkpt lat="45.54257" lon="5.75649">
        <ele>380.4</ele>
        <time>2021-08-23T13:33:17Z</time>
      </trkpt>
      <trkpt lat="45.54258" lon="5.75659">
        <ele>380.4</ele>
        <time>2021-08-23T13:33:19Z</time>
      </trkpt>
      <trkpt lat="45.54259" lon="5.75667">
        <ele>380.5</ele>
        <time>2021-08-23T13:33:20Z</time>
      </trkpt>
      <trkpt lat="45.5426" lon="5.75678">
        <ele>380.5</ele>
        <time>2021-08-23T13:33:21Z</time>
      </trkpt>
      <trkpt lat="45.54262" lon="5.75687">
        <ele>380.6</ele>
        <time>2021-08-23T13:33:23Z</time>
      </trkpt>
      <trkpt lat="45.54264" lon="5.75693">
        <ele>380.5</ele>
        <time>2021-08-23T13:33:24Z</time>
      </trkpt>
      <trkpt lat="45.54265" lon="5.757">
        <ele>380.5</ele>
        <time>2021-08-23T13:33:26Z</time>
      </trkpt>
      <trkpt lat="45.54268" lon="5.75708">
        <ele>380.5</ele>
        <time>2021-08-23T13:33:28Z</time>
      </trkpt>
      <trkpt lat="45.54269" lon="5.75711">
        <ele>380.5</ele>
        <time>2021-08-23T13:33:29Z</time>
      </trkpt>
      <trkpt lat="45.5427" lon="5.75715">
        <ele>380.5</ele>
        <time>2021-08-23T13:33:30Z</time>
      </trkpt>
      <trkpt lat="45.54272" lon="5.75721">
        <ele>380.4</ele>
        <time>2021-08-23T13:33:31Z</time>
      </trkpt>
      <trkpt lat="45.54274" lon="5.75727">
        <ele>380.4</ele>
        <time>2021-08-23T13:33:33Z</time>
      </trkpt>
      <trkpt lat="45.54276" lon="5.75732">
        <ele>380.4</ele>
        <time>2021-08-23T13:33:34Z</time>
      </trkpt>
      <trkpt lat="45.54276" lon="5.75735">
        <ele>380.4</ele>
        <time>2021-08-23T13:33:35Z</time>
      </trkpt>
      <trkpt lat="45.54275" lon="5.75741">
        <ele>380.4</ele>
        <time>2021-08-23T13:33:36Z</time>
      </trkpt>
      <trkpt lat="45.54274" lon="5.75748">
        <ele>380.3</ele>
        <time>2021-08-23T13:33:38Z</time>
      </trkpt>
      <trkpt lat="45.54275" lon="5.75756">
        <ele>380.3</ele>
        <time>2021-08-23T13:33:39Z</time>
      </trkpt>
      <trkpt lat="45.54275" lon="5.75768">
        <ele>380.3</ele>
        <time>2021-08-23T13:33:41Z</time>
      </trkpt>
      <trkpt lat="45.54277" lon="5.75778">
        <ele>380.2</ele>
        <time>2021-08-23T13:33:42Z</time>
      </trkpt>
      <trkpt lat="45.54279" lon="5.75786">
        <ele>380.2</ele>
        <time>2021-08-23T13:33:43Z</time>
      </trkpt>
      <trkpt lat="45.5428" lon="5.75794">
        <ele>380.3</ele>
        <time>2021-08-23T13:33:44Z</time>
      </trkpt>
      <trkpt lat="45.54282" lon="5.75809">
        <ele>380.3</ele>
        <time>2021-08-23T13:33:46Z</time>
      </trkpt>
      <trkpt lat="45.54283" lon="5.75816">
        <ele>380.4</ele>
        <time>2021-08-23T13:33:47Z</time>
      </trkpt>
      <trkpt lat="45.54284" lon="5.75828">
        <ele>380.5</ele>
        <time>2021-08-23T13:33:49Z</time>
      </trkpt>
      <trkpt lat="45.54285" lon="5.75834">
        <ele>380.6</ele>
        <time>2021-08-23T13:33:50Z</time>
      </trkpt>
      <trkpt lat="45.54284" lon="5.75841">
        <ele>380.7</ele>
        <time>2021-08-23T13:33:51Z</time>
      </trkpt>
      <trkpt lat="45.54285" lon="5.7585">
        <ele>380.8</ele>
        <time>2021-08-23T13:33:53Z</time>
      </trkpt>
      <trkpt lat="45.54284" lon="5.75859">
        <ele>380.9</ele>
        <time>2021-08-23T13:33:54Z</time>
      </trkpt>
      <trkpt lat="45.54282" lon="5.75866">
        <ele>381</ele>
        <time>2021-08-23T13:33:56Z</time>
      </trkpt>
      <trkpt lat="45.54281" lon="5.75874">
        <ele>381.1</ele>
        <time>2021-08-23T13:33:57Z</time>
      </trkpt>
      <trkpt lat="45.54281" lon="5.75883">
        <ele>381.1</ele>
        <time>2021-08-23T13:33:59Z</time>
      </trkpt>
      <trkpt lat="45.54282" lon="5.75889">
        <ele>381.2</ele>
        <time>2021-08-23T13:34:00Z</time>
      </trkpt>
      <trkpt lat="45.54282" lon="5.75897">
        <ele>381.2</ele>
        <time>2021-08-23T13:34:02Z</time>
      </trkpt>
      <trkpt lat="45.54283" lon="5.75903">
        <ele>381.2</ele>
        <time>2021-08-23T13:34:03Z</time>
      </trkpt>
      <trkpt lat="45.54283" lon="5.75909">
        <ele>381.2</ele>
        <time>2021-08-23T13:34:04Z</time>
      </trkpt>
      <trkpt lat="45.54283" lon="5.75914">
        <ele>381.2</ele>
        <time>2021-08-23T13:34:05Z</time>
      </trkpt>
      <trkpt lat="45.54283" lon="5.75919">
        <ele>381.2</ele>
        <time>2021-08-23T13:34:06Z</time>
      </trkpt>
      <trkpt lat="45.54283" lon="5.75924">
        <ele>381.2</ele>
        <time>2021-08-23T13:34:07Z</time>
      </trkpt>
      <trkpt lat="45.54283" lon="5.75929">
        <ele>381.2</ele>
        <time>2021-08-23T13:34:08Z</time>
      </trkpt>
      <trkpt lat="45.54284" lon="5.75937">
        <ele>381.1</ele>
        <time>2021-08-23T13:34:10Z</time>
      </trkpt>
      <trkpt lat="45.54284" lon="5.75945">
        <ele>381.1</ele>
        <time>2021-08-23T13:34:11Z</time>
      </trkpt>
      <trkpt lat="45.54284" lon="5.75954">
        <ele>381.1</ele>
        <time>2021-08-23T13:34:13Z</time>
      </trkpt>
      <trkpt lat="45.54284" lon="5.7596">
        <ele>381</ele>
        <time>2021-08-23T13:34:14Z</time>
      </trkpt>
      <trkpt lat="45.54283" lon="5.75969">
        <ele>381</ele>
        <time>2021-08-23T13:34:15Z</time>
      </trkpt>
      <trkpt lat="45.54282" lon="5.75975">
        <ele>380.9</ele>
        <time>2021-08-23T13:34:16Z</time>
      </trkpt>
      <trkpt lat="45.54281" lon="5.75983">
        <ele>380.9</ele>
        <time>2021-08-23T13:34:17Z</time>
      </trkpt>
      <trkpt lat="45.54282" lon="5.75996">
        <ele>380.8</ele>
        <time>2021-08-23T13:34:19Z</time>
      </trkpt>
      <trkpt lat="45.54283" lon="5.76005">
        <ele>380.8</ele>
        <time>2021-08-23T13:34:20Z</time>
      </trkpt>
      <trkpt lat="45.54286" lon="5.76021">
        <ele>380.8</ele>
        <time>2021-08-23T13:34:22Z</time>
      </trkpt>
      <trkpt lat="45.54289" lon="5.76028">
        <ele>380.8</ele>
        <time>2021-08-23T13:34:23Z</time>
      </trkpt>
      <trkpt lat="45.54294" lon="5.7604">
        <ele>380.8</ele>
        <time>2021-08-23T13:34:25Z</time>
      </trkpt>
      <trkpt lat="45.54294" lon="5.76048">
        <ele>380.9</ele>
        <time>2021-08-23T13:34:26Z</time>
      </trkpt>
      <trkpt lat="45.54297" lon="5.76062">
        <ele>381</ele>
        <time>2021-08-23T13:34:28Z</time>
      </trkpt>
      <trkpt lat="45.54301" lon="5.76068">
        <ele>381</ele>
        <time>2021-08-23T13:34:29Z</time>
      </trkpt>
      <trkpt lat="45.54305" lon="5.76077">
        <ele>381.2</ele>
        <time>2021-08-23T13:34:30Z</time>
      </trkpt>
      <trkpt lat="45.54306" lon="5.76082">
        <ele>381.4</ele>
        <time>2021-08-23T13:34:31Z</time>
      </trkpt>
      <trkpt lat="45.54306" lon="5.7609">
        <ele>381.6</ele>
        <time>2021-08-23T13:34:33Z</time>
      </trkpt>
      <trkpt lat="45.54305" lon="5.76099">
        <ele>381.6</ele>
        <time>2021-08-23T13:34:34Z</time>
      </trkpt>
      <trkpt lat="45.54303" lon="5.76106">
        <ele>381.9</ele>
        <time>2021-08-23T13:34:35Z</time>
      </trkpt>
      <trkpt lat="45.54302" lon="5.76111">
        <ele>381.9</ele>
        <time>2021-08-23T13:34:36Z</time>
      </trkpt>
      <trkpt lat="45.54301" lon="5.76114">
        <ele>381.9</ele>
        <time>2021-08-23T13:34:38Z</time>
      </trkpt>
      <trkpt lat="45.54301" lon="5.76113">
        <ele>381.9</ele>
        <time>2021-08-23T13:34:39Z</time>
      </trkpt>
      <trkpt lat="45.54299" lon="5.76108">
        <ele>381.9</ele>
        <time>2021-08-23T13:34:40Z</time>
      </trkpt>
      <trkpt lat="45.54297" lon="5.76105">
        <ele>381.9</ele>
        <time>2021-08-23T13:34:42Z</time>
      </trkpt>
      <trkpt lat="45.54293" lon="5.76101">
        <ele>381.9</ele>
        <time>2021-08-23T13:34:43Z</time>
      </trkpt>
      <trkpt lat="45.54291" lon="5.76098">
        <ele>381.9</ele>
        <time>2021-08-23T13:34:44Z</time>
      </trkpt>
      <trkpt lat="45.54287" lon="5.76093">
        <ele>382</ele>
        <time>2021-08-23T13:34:45Z</time>
      </trkpt>
      <trkpt lat="45.54281" lon="5.76089">
        <ele>382</ele>
        <time>2021-08-23T13:34:46Z</time>
      </trkpt>
      <trkpt lat="45.54276" lon="5.76086">
        <ele>382</ele>
        <time>2021-08-23T13:34:47Z</time>
      </trkpt>
      <trkpt lat="45.54271" lon="5.76085">
        <ele>382.1</ele>
        <time>2021-08-23T13:34:49Z</time>
      </trkpt>
      <trkpt lat="45.54268" lon="5.76086">
        <ele>382.1</ele>
        <time>2021-08-23T13:34:50Z</time>
      </trkpt>
      <trkpt lat="45.54261" lon="5.76091">
        <ele>381.7</ele>
        <time>2021-08-23T13:34:51Z</time>
      </trkpt>
      <trkpt lat="45.54255" lon="5.76097">
        <ele>381.4</ele>
        <time>2021-08-23T13:34:52Z</time>
      </trkpt>
      <trkpt lat="45.54245" lon="5.76109">
        <ele>380.9</ele>
        <time>2021-08-23T13:34:54Z</time>
      </trkpt>
      <trkpt lat="45.54238" lon="5.76123">
        <ele>380.7</ele>
        <time>2021-08-23T13:34:56Z</time>
      </trkpt>
      <trkpt lat="45.54232" lon="5.76135">
        <ele>380.6</ele>
        <time>2021-08-23T13:34:58Z</time>
      </trkpt>
      <trkpt lat="45.54225" lon="5.76149">
        <ele>380.5</ele>
        <time>2021-08-23T13:35:00Z</time>
      </trkpt>
      <trkpt lat="45.54222" lon="5.76158">
        <ele>380.5</ele>
        <time>2021-08-23T13:35:01Z</time>
      </trkpt>
      <trkpt lat="45.54218" lon="5.76166">
        <ele>380.5</ele>
        <time>2021-08-23T13:35:02Z</time>
      </trkpt>
      <trkpt lat="45.54214" lon="5.76174">
        <ele>380.5</ele>
        <time>2021-08-23T13:35:03Z</time>
      </trkpt>
      <trkpt lat="45.54212" lon="5.76188">
        <ele>380.5</ele>
        <time>2021-08-23T13:35:05Z</time>
      </trkpt>
      <trkpt lat="45.54212" lon="5.76195">
        <ele>380.5</ele>
        <time>2021-08-23T13:35:06Z</time>
      </trkpt>
      <trkpt lat="45.54211" lon="5.76202">
        <ele>380.5</ele>
        <time>2021-08-23T13:35:07Z</time>
      </trkpt>
      <trkpt lat="45.5421" lon="5.76206">
        <ele>380.5</ele>
        <time>2021-08-23T13:35:08Z</time>
      </trkpt>
      <trkpt lat="45.54207" lon="5.76218">
        <ele>380.5</ele>
        <time>2021-08-23T13:35:10Z</time>
      </trkpt>
      <trkpt lat="45.54207" lon="5.76224">
        <ele>380.5</ele>
        <time>2021-08-23T13:35:11Z</time>
      </trkpt>
      <trkpt lat="45.54206" lon="5.76237">
        <ele>380.5</ele>
        <time>2021-08-23T13:35:13Z</time>
      </trkpt>
      <trkpt lat="45.54206" lon="5.76244">
        <ele>380.5</ele>
        <time>2021-08-23T13:35:14Z</time>
      </trkpt>
      <trkpt lat="45.54204" lon="5.76259">
        <ele>380.6</ele>
        <time>2021-08-23T13:35:16Z</time>
      </trkpt>
      <trkpt lat="45.54203" lon="5.76266">
        <ele>380.6</ele>
        <time>2021-08-23T13:35:17Z</time>
      </trkpt>
      <trkpt lat="45.542" lon="5.76269">
        <ele>380.6</ele>
        <time>2021-08-23T13:35:18Z</time>
      </trkpt>
      <trkpt lat="45.54198" lon="5.76269">
        <ele>380.6</ele>
        <time>2021-08-23T13:35:19Z</time>
      </trkpt>
      <trkpt lat="45.54198" lon="5.76271">
        <ele>380.6</ele>
        <time>2021-08-23T13:35:20Z</time>
      </trkpt>
      <trkpt lat="45.54194" lon="5.76293">
        <ele>380.8</ele>
        <time>2021-08-23T13:35:22Z</time>
      </trkpt>
      <trkpt lat="45.54193" lon="5.76298">
        <ele>380.9</ele>
        <time>2021-08-23T13:35:23Z</time>
      </trkpt>
      <trkpt lat="45.54191" lon="5.76312">
        <ele>381</ele>
        <time>2021-08-23T13:35:25Z</time>
      </trkpt>
      <trkpt lat="45.5419" lon="5.76318">
        <ele>381.1</ele>
        <time>2021-08-23T13:35:26Z</time>
      </trkpt>
      <trkpt lat="45.54187" lon="5.76325">
        <ele>381.2</ele>
        <time>2021-08-23T13:35:27Z</time>
      </trkpt>
      <trkpt lat="45.54184" lon="5.76335">
        <ele>381.3</ele>
        <time>2021-08-23T13:35:29Z</time>
      </trkpt>
      <trkpt lat="45.54181" lon="5.76346">
        <ele>381.4</ele>
        <time>2021-08-23T13:35:31Z</time>
      </trkpt>
      <trkpt lat="45.54179" lon="5.76348">
        <ele>381.4</ele>
        <time>2021-08-23T13:35:32Z</time>
      </trkpt>
      <trkpt lat="45.54178" lon="5.76351">
        <ele>381.5</ele>
        <time>2021-08-23T13:35:33Z</time>
      </trkpt>
      <trkpt lat="45.54178" lon="5.76355">
        <ele>381.5</ele>
        <time>2021-08-23T13:35:35Z</time>
      </trkpt>
      <trkpt lat="45.54176" lon="5.76369">
        <ele>381.5</ele>
        <time>2021-08-23T13:35:37Z</time>
      </trkpt>
      <trkpt lat="45.54177" lon="5.76374">
        <ele>381.5</ele>
        <time>2021-08-23T13:35:38Z</time>
      </trkpt>
      <trkpt lat="45.54183" lon="5.76388">
        <ele>381.5</ele>
        <time>2021-08-23T13:35:39Z</time>
      </trkpt>
      <trkpt lat="45.54185" lon="5.76396">
        <ele>381.5</ele>
        <time>2021-08-23T13:35:41Z</time>
      </trkpt>
      <trkpt lat="45.54184" lon="5.76401">
        <ele>381.5</ele>
        <time>2021-08-23T13:35:42Z</time>
      </trkpt>
      <trkpt lat="45.54183" lon="5.76412">
        <ele>381.5</ele>
        <time>2021-08-23T13:35:44Z</time>
      </trkpt>
      <trkpt lat="45.54183" lon="5.76424">
        <ele>381.5</ele>
        <time>2021-08-23T13:35:45Z</time>
      </trkpt>
      <trkpt lat="45.54183" lon="5.7643">
        <ele>381.5</ele>
        <time>2021-08-23T13:35:46Z</time>
      </trkpt>
      <trkpt lat="45.54184" lon="5.76438">
        <ele>381.5</ele>
        <time>2021-08-23T13:35:48Z</time>
      </trkpt>
      <trkpt lat="45.54186" lon="5.76443">
        <ele>381.5</ele>
        <time>2021-08-23T13:35:49Z</time>
      </trkpt>
      <trkpt lat="45.54188" lon="5.76447">
        <ele>381.5</ele>
        <time>2021-08-23T13:35:50Z</time>
      </trkpt>
      <trkpt lat="45.5419" lon="5.76454">
        <ele>381.5</ele>
        <time>2021-08-23T13:35:52Z</time>
      </trkpt>
      <trkpt lat="45.54193" lon="5.7646">
        <ele>381.5</ele>
        <time>2021-08-23T13:35:53Z</time>
      </trkpt>
      <trkpt lat="45.54196" lon="5.76468">
        <ele>381.4</ele>
        <time>2021-08-23T13:35:54Z</time>
      </trkpt>
      <trkpt lat="45.54197" lon="5.76472">
        <ele>381.4</ele>
        <time>2021-08-23T13:35:55Z</time>
      </trkpt>
      <trkpt lat="45.54197" lon="5.76473">
        <ele>381.4</ele>
        <time>2021-08-23T13:35:56Z</time>
      </trkpt>
      <trkpt lat="45.54198" lon="5.7648">
        <ele>381.4</ele>
        <time>2021-08-23T13:35:58Z</time>
      </trkpt>
      <trkpt lat="45.54199" lon="5.76486">
        <ele>381.4</ele>
        <time>2021-08-23T13:35:59Z</time>
      </trkpt>
      <trkpt lat="45.54199" lon="5.76487">
        <ele>381.3</ele>
        <time>2021-08-23T13:36:00Z</time>
      </trkpt>
      <trkpt lat="45.542" lon="5.76493">
        <ele>381.3</ele>
        <time>2021-08-23T13:36:01Z</time>
      </trkpt>
      <trkpt lat="45.542" lon="5.76496">
        <ele>381.3</ele>
        <time>2021-08-23T13:36:02Z</time>
      </trkpt>
      <trkpt lat="45.54202" lon="5.76506">
        <ele>381.2</ele>
        <time>2021-08-23T13:36:04Z</time>
      </trkpt>
      <trkpt lat="45.54202" lon="5.76517">
        <ele>381.2</ele>
        <time>2021-08-23T13:36:05Z</time>
      </trkpt>
      <trkpt lat="45.54201" lon="5.7653">
        <ele>381.1</ele>
        <time>2021-08-23T13:36:07Z</time>
      </trkpt>
      <trkpt lat="45.54201" lon="5.76549">
        <ele>381.1</ele>
        <time>2021-08-23T13:36:09Z</time>
      </trkpt>
      <trkpt lat="45.54199" lon="5.76568">
        <ele>381.3</ele>
        <time>2021-08-23T13:36:11Z</time>
      </trkpt>
      <trkpt lat="45.54199" lon="5.7658">
        <ele>381.5</ele>
        <time>2021-08-23T13:36:12Z</time>
      </trkpt>
      <trkpt lat="45.54199" lon="5.76589">
        <ele>381.6</ele>
        <time>2021-08-23T13:36:14Z</time>
      </trkpt>
      <trkpt lat="45.54198" lon="5.76598">
        <ele>381.7</ele>
        <time>2021-08-23T13:36:15Z</time>
      </trkpt>
      <trkpt lat="45.54199" lon="5.76608">
        <ele>381.9</ele>
        <time>2021-08-23T13:36:17Z</time>
      </trkpt>
      <trkpt lat="45.542" lon="5.76609">
        <ele>381.9</ele>
        <time>2021-08-23T13:36:18Z</time>
      </trkpt>
      <trkpt lat="45.54203" lon="5.76627">
        <ele>382</ele>
        <time>2021-08-23T13:36:20Z</time>
      </trkpt>
      <trkpt lat="45.54205" lon="5.76642">
        <ele>382.1</ele>
        <time>2021-08-23T13:36:22Z</time>
      </trkpt>
      <trkpt lat="45.54207" lon="5.76644">
        <ele>382.2</ele>
        <time>2021-08-23T13:36:23Z</time>
      </trkpt>
      <trkpt lat="45.54209" lon="5.76656">
        <ele>382.3</ele>
        <time>2021-08-23T13:36:25Z</time>
      </trkpt>
      <trkpt lat="45.5421" lon="5.76663">
        <ele>382.4</ele>
        <time>2021-08-23T13:36:26Z</time>
      </trkpt>
      <trkpt lat="45.54212" lon="5.76677">
        <ele>382.6</ele>
        <time>2021-08-23T13:36:28Z</time>
      </trkpt>
      <trkpt lat="45.54213" lon="5.76681">
        <ele>382.6</ele>
        <time>2021-08-23T13:36:29Z</time>
      </trkpt>
      <trkpt lat="45.54214" lon="5.76687">
        <ele>382.7</ele>
        <time>2021-08-23T13:36:30Z</time>
      </trkpt>
      <trkpt lat="45.54215" lon="5.76691">
        <ele>382.7</ele>
        <time>2021-08-23T13:36:31Z</time>
      </trkpt>
      <trkpt lat="45.54217" lon="5.76697">
        <ele>382.8</ele>
        <time>2021-08-23T13:36:32Z</time>
      </trkpt>
      <trkpt lat="45.5422" lon="5.76702">
        <ele>382.9</ele>
        <time>2021-08-23T13:36:34Z</time>
      </trkpt>
      <trkpt lat="45.54222" lon="5.76705">
        <ele>382.9</ele>
        <time>2021-08-23T13:36:35Z</time>
      </trkpt>
      <trkpt lat="45.54223" lon="5.7672">
        <ele>383.1</ele>
        <time>2021-08-23T13:36:37Z</time>
      </trkpt>
      <trkpt lat="45.54223" lon="5.76727">
        <ele>383.1</ele>
        <time>2021-08-23T13:36:38Z</time>
      </trkpt>
      <trkpt lat="45.54223" lon="5.76738">
        <ele>383.2</ele>
        <time>2021-08-23T13:36:40Z</time>
      </trkpt>
      <trkpt lat="45.54224" lon="5.76743">
        <ele>383.2</ele>
        <time>2021-08-23T13:36:41Z</time>
      </trkpt>
      <trkpt lat="45.54224" lon="5.76748">
        <ele>383.2</ele>
        <time>2021-08-23T13:36:42Z</time>
      </trkpt>
      <trkpt lat="45.54224" lon="5.76754">
        <ele>383.2</ele>
        <time>2021-08-23T13:36:43Z</time>
      </trkpt>
      <trkpt lat="45.54224" lon="5.76759">
        <ele>383.2</ele>
        <time>2021-08-23T13:36:44Z</time>
      </trkpt>
      <trkpt lat="45.54223" lon="5.76767">
        <ele>383.2</ele>
        <time>2021-08-23T13:36:46Z</time>
      </trkpt>
      <trkpt lat="45.54223" lon="5.76775">
        <ele>383.1</ele>
        <time>2021-08-23T13:36:47Z</time>
      </trkpt>
      <trkpt lat="45.54224" lon="5.76781">
        <ele>383.1</ele>
        <time>2021-08-23T13:36:48Z</time>
      </trkpt>
      <trkpt lat="45.54225" lon="5.76787">
        <ele>383</ele>
        <time>2021-08-23T13:36:49Z</time>
      </trkpt>
      <trkpt lat="45.54225" lon="5.76793">
        <ele>383</ele>
        <time>2021-08-23T13:36:50Z</time>
      </trkpt>
      <trkpt lat="45.54222" lon="5.76803">
        <ele>382.9</ele>
        <time>2021-08-23T13:36:52Z</time>
      </trkpt>
      <trkpt lat="45.5422" lon="5.76812">
        <ele>382.8</ele>
        <time>2021-08-23T13:36:53Z</time>
      </trkpt>
      <trkpt lat="45.54217" lon="5.76823">
        <ele>382.7</ele>
        <time>2021-08-23T13:36:54Z</time>
      </trkpt>
      <trkpt lat="45.5422" lon="5.76832">
        <ele>382.6</ele>
        <time>2021-08-23T13:36:56Z</time>
      </trkpt>
      <trkpt lat="45.54223" lon="5.76849">
        <ele>382.5</ele>
        <time>2021-08-23T13:36:58Z</time>
      </trkpt>
      <trkpt lat="45.54225" lon="5.76856">
        <ele>382.4</ele>
        <time>2021-08-23T13:36:59Z</time>
      </trkpt>
      <trkpt lat="45.54225" lon="5.76862">
        <ele>382.3</ele>
        <time>2021-08-23T13:37:00Z</time>
      </trkpt>
      <trkpt lat="45.54227" lon="5.76876">
        <ele>382.2</ele>
        <time>2021-08-23T13:37:02Z</time>
      </trkpt>
      <trkpt lat="45.54229" lon="5.76892">
        <ele>382.1</ele>
        <time>2021-08-23T13:37:04Z</time>
      </trkpt>
      <trkpt lat="45.5423" lon="5.76899">
        <ele>382</ele>
        <time>2021-08-23T13:37:05Z</time>
      </trkpt>
      <trkpt lat="45.54231" lon="5.76905">
        <ele>381.9</ele>
        <time>2021-08-23T13:37:06Z</time>
      </trkpt>
      <trkpt lat="45.54235" lon="5.76913">
        <ele>381.8</ele>
        <time>2021-08-23T13:37:08Z</time>
      </trkpt>
      <trkpt lat="45.54237" lon="5.76929">
        <ele>381.6</ele>
        <time>2021-08-23T13:37:10Z</time>
      </trkpt>
      <trkpt lat="45.54238" lon="5.76935">
        <ele>381.6</ele>
        <time>2021-08-23T13:37:11Z</time>
      </trkpt>
      <trkpt lat="45.54239" lon="5.76946">
        <ele>381.5</ele>
        <time>2021-08-23T13:37:13Z</time>
      </trkpt>
      <trkpt lat="45.54239" lon="5.76953">
        <ele>381.5</ele>
        <time>2021-08-23T13:37:14Z</time>
      </trkpt>
      <trkpt lat="45.54239" lon="5.76968">
        <ele>381.5</ele>
        <time>2021-08-23T13:37:16Z</time>
      </trkpt>
      <trkpt lat="45.54239" lon="5.76975">
        <ele>381.5</ele>
        <time>2021-08-23T13:37:17Z</time>
      </trkpt>
      <trkpt lat="45.54241" lon="5.76984">
        <ele>381.6</ele>
        <time>2021-08-23T13:37:18Z</time>
      </trkpt>
      <trkpt lat="45.54244" lon="5.76989">
        <ele>381.7</ele>
        <time>2021-08-23T13:37:19Z</time>
      </trkpt>
      <trkpt lat="45.54244" lon="5.76997">
        <ele>381.7</ele>
        <time>2021-08-23T13:37:20Z</time>
      </trkpt>
      <trkpt lat="45.54243" lon="5.77003">
        <ele>381.8</ele>
        <time>2021-08-23T13:37:22Z</time>
      </trkpt>
      <trkpt lat="45.54242" lon="5.77013">
        <ele>381.8</ele>
        <time>2021-08-23T13:37:24Z</time>
      </trkpt>
      <trkpt lat="45.54243" lon="5.77018">
        <ele>381.8</ele>
        <time>2021-08-23T13:37:25Z</time>
      </trkpt>
      <trkpt lat="45.54243" lon="5.7702">
        <ele>381.8</ele>
        <time>2021-08-23T13:37:26Z</time>
      </trkpt>
      <trkpt lat="45.54243" lon="5.77027">
        <ele>381.8</ele>
        <time>2021-08-23T13:37:28Z</time>
      </trkpt>
      <trkpt lat="45.54243" lon="5.77032">
        <ele>381.8</ele>
        <time>2021-08-23T13:37:29Z</time>
      </trkpt>
      <trkpt lat="45.54244" lon="5.77037">
        <ele>381.8</ele>
        <time>2021-08-23T13:37:30Z</time>
      </trkpt>
      <trkpt lat="45.54247" lon="5.77041">
        <ele>381.7</ele>
        <time>2021-08-23T13:37:31Z</time>
      </trkpt>
      <trkpt lat="45.54248" lon="5.77046">
        <ele>381.7</ele>
        <time>2021-08-23T13:37:32Z</time>
      </trkpt>
      <trkpt lat="45.54247" lon="5.77051">
        <ele>381.7</ele>
        <time>2021-08-23T13:37:34Z</time>
      </trkpt>
      <trkpt lat="45.54246" lon="5.77056">
        <ele>381.6</ele>
        <time>2021-08-23T13:37:35Z</time>
      </trkpt>
      <trkpt lat="45.54243" lon="5.77071">
        <ele>381.4</ele>
        <time>2021-08-23T13:37:37Z</time>
      </trkpt>
      <trkpt lat="45.54241" lon="5.77077">
        <ele>381.4</ele>
        <time>2021-08-23T13:37:38Z</time>
      </trkpt>
      <trkpt lat="45.5424" lon="5.77091">
        <ele>381.2</ele>
        <time>2021-08-23T13:37:40Z</time>
      </trkpt>
      <trkpt lat="45.54236" lon="5.77104">
        <ele>381.1</ele>
        <time>2021-08-23T13:37:41Z</time>
      </trkpt>
      <trkpt lat="45.54236" lon="5.7711">
        <ele>381</ele>
        <time>2021-08-23T13:37:42Z</time>
      </trkpt>
      <trkpt lat="45.54235" lon="5.7712">
        <ele>380.9</ele>
        <time>2021-08-23T13:37:44Z</time>
      </trkpt>
      <trkpt lat="45.54235" lon="5.7714">
        <ele>380.7</ele>
        <time>2021-08-23T13:37:46Z</time>
      </trkpt>
      <trkpt lat="45.54234" lon="5.77158">
        <ele>380.5</ele>
        <time>2021-08-23T13:37:48Z</time>
      </trkpt>
      <trkpt lat="45.54235" lon="5.77175">
        <ele>380.4</ele>
        <time>2021-08-23T13:37:50Z</time>
      </trkpt>
      <trkpt lat="45.54234" lon="5.77189">
        <ele>380.2</ele>
        <time>2021-08-23T13:37:52Z</time>
      </trkpt>
      <trkpt lat="45.54239" lon="5.77194">
        <ele>380.1</ele>
        <time>2021-08-23T13:37:54Z</time>
      </trkpt>
      <trkpt lat="45.54235" lon="5.77203">
        <ele>380</ele>
        <time>2021-08-23T13:37:55Z</time>
      </trkpt>
      <trkpt lat="45.54234" lon="5.77209">
        <ele>380</ele>
        <time>2021-08-23T13:37:56Z</time>
      </trkpt>
      <trkpt lat="45.54236" lon="5.77216">
        <ele>379.9</ele>
        <time>2021-08-23T13:37:58Z</time>
      </trkpt>
      <trkpt lat="45.54235" lon="5.77221">
        <ele>379.8</ele>
        <time>2021-08-23T13:37:59Z</time>
      </trkpt>
      <trkpt lat="45.5423" lon="5.77235">
        <ele>379.7</ele>
        <time>2021-08-23T13:38:01Z</time>
      </trkpt>
      <trkpt lat="45.54229" lon="5.77241">
        <ele>379.6</ele>
        <time>2021-08-23T13:38:02Z</time>
      </trkpt>
      <trkpt lat="45.54226" lon="5.77254">
        <ele>379.5</ele>
        <time>2021-08-23T13:38:04Z</time>
      </trkpt>
      <trkpt lat="45.54225" lon="5.77261">
        <ele>379.5</ele>
        <time>2021-08-23T13:38:05Z</time>
      </trkpt>
      <trkpt lat="45.54224" lon="5.77268">
        <ele>379.4</ele>
        <time>2021-08-23T13:38:06Z</time>
      </trkpt>
      <trkpt lat="45.54223" lon="5.77281">
        <ele>379.3</ele>
        <time>2021-08-23T13:38:08Z</time>
      </trkpt>
      <trkpt lat="45.54221" lon="5.77295">
        <ele>379.2</ele>
        <time>2021-08-23T13:38:10Z</time>
      </trkpt>
      <trkpt lat="45.54219" lon="5.77303">
        <ele>379.2</ele>
        <time>2021-08-23T13:38:11Z</time>
      </trkpt>
      <trkpt lat="45.54217" lon="5.77311">
        <ele>379.2</ele>
        <time>2021-08-23T13:38:12Z</time>
      </trkpt>
      <trkpt lat="45.54215" lon="5.77327">
        <ele>379.2</ele>
        <time>2021-08-23T13:38:14Z</time>
      </trkpt>
      <trkpt lat="45.5421" lon="5.77345">
        <ele>379.2</ele>
        <time>2021-08-23T13:38:16Z</time>
      </trkpt>
      <trkpt lat="45.54206" lon="5.77353">
        <ele>379.3</ele>
        <time>2021-08-23T13:38:17Z</time>
      </trkpt>
      <trkpt lat="45.542" lon="5.77359">
        <ele>379.3</ele>
        <time>2021-08-23T13:38:18Z</time>
      </trkpt>
      <trkpt lat="45.54195" lon="5.7737">
        <ele>379.3</ele>
        <time>2021-08-23T13:38:20Z</time>
      </trkpt>
      <trkpt lat="45.54191" lon="5.77378">
        <ele>379.3</ele>
        <time>2021-08-23T13:38:22Z</time>
      </trkpt>
      <trkpt lat="45.54189" lon="5.77383">
        <ele>379.3</ele>
        <time>2021-08-23T13:38:23Z</time>
      </trkpt>
      <trkpt lat="45.54187" lon="5.77388">
        <ele>379.3</ele>
        <time>2021-08-23T13:38:24Z</time>
      </trkpt>
      <trkpt lat="45.5418" lon="5.77403">
        <ele>379.4</ele>
        <time>2021-08-23T13:38:25Z</time>
      </trkpt>
      <trkpt lat="45.54179" lon="5.77407">
        <ele>379.4</ele>
        <time>2021-08-23T13:38:26Z</time>
      </trkpt>
      <trkpt lat="45.54176" lon="5.77412">
        <ele>379.4</ele>
        <time>2021-08-23T13:38:28Z</time>
      </trkpt>
      <trkpt lat="45.54172" lon="5.77417">
        <ele>379.5</ele>
        <time>2021-08-23T13:38:29Z</time>
      </trkpt>
      <trkpt lat="45.54167" lon="5.77422">
        <ele>379.5</ele>
        <time>2021-08-23T13:38:30Z</time>
      </trkpt>
      <trkpt lat="45.54164" lon="5.77427">
        <ele>379.5</ele>
        <time>2021-08-23T13:38:31Z</time>
      </trkpt>
      <trkpt lat="45.5416" lon="5.77432">
        <ele>379.6</ele>
        <time>2021-08-23T13:38:32Z</time>
      </trkpt>
      <trkpt lat="45.54156" lon="5.7744">
        <ele>379.6</ele>
        <time>2021-08-23T13:38:33Z</time>
      </trkpt>
      <trkpt lat="45.54155" lon="5.77436">
        <ele>379.7</ele>
        <time>2021-08-23T13:38:34Z</time>
      </trkpt>
      <trkpt lat="45.54152" lon="5.77442">
        <ele>379.7</ele>
        <time>2021-08-23T13:38:35Z</time>
      </trkpt>
      <trkpt lat="45.5415" lon="5.77448">
        <ele>379.8</ele>
        <time>2021-08-23T13:38:37Z</time>
      </trkpt>
      <trkpt lat="45.54148" lon="5.77454">
        <ele>379.8</ele>
        <time>2021-08-23T13:38:38Z</time>
      </trkpt>
      <trkpt lat="45.54145" lon="5.77462">
        <ele>379.9</ele>
        <time>2021-08-23T13:38:39Z</time>
      </trkpt>
      <trkpt lat="45.54142" lon="5.77468">
        <ele>380</ele>
        <time>2021-08-23T13:38:40Z</time>
      </trkpt>
      <trkpt lat="45.54139" lon="5.77474">
        <ele>380.1</ele>
        <time>2021-08-23T13:38:41Z</time>
      </trkpt>
      <trkpt lat="45.54136" lon="5.77479">
        <ele>380.2</ele>
        <time>2021-08-23T13:38:42Z</time>
      </trkpt>
      <trkpt lat="45.54134" lon="5.77485">
        <ele>380.3</ele>
        <time>2021-08-23T13:38:43Z</time>
      </trkpt>
      <trkpt lat="45.54131" lon="5.77492">
        <ele>380.3</ele>
        <time>2021-08-23T13:38:45Z</time>
      </trkpt>
      <trkpt lat="45.54129" lon="5.77497">
        <ele>380.4</ele>
        <time>2021-08-23T13:38:46Z</time>
      </trkpt>
      <trkpt lat="45.54127" lon="5.77502">
        <ele>380.4</ele>
        <time>2021-08-23T13:38:47Z</time>
      </trkpt>
      <trkpt lat="45.54125" lon="5.77508">
        <ele>380.5</ele>
        <time>2021-08-23T13:38:49Z</time>
      </trkpt>
      <trkpt lat="45.54124" lon="5.77514">
        <ele>380.5</ele>
        <time>2021-08-23T13:38:50Z</time>
      </trkpt>
      <trkpt lat="45.54122" lon="5.77519">
        <ele>380.6</ele>
        <time>2021-08-23T13:38:51Z</time>
      </trkpt>
      <trkpt lat="45.54121" lon="5.77523">
        <ele>380.6</ele>
        <time>2021-08-23T13:38:53Z</time>
      </trkpt>
      <trkpt lat="45.5412" lon="5.77527">
        <ele>380.7</ele>
        <time>2021-08-23T13:38:54Z</time>
      </trkpt>
      <trkpt lat="45.54119" lon="5.7753">
        <ele>380.7</ele>
        <time>2021-08-23T13:38:55Z</time>
      </trkpt>
      <trkpt lat="45.54118" lon="5.77534">
        <ele>380.7</ele>
        <time>2021-08-23T13:38:57Z</time>
      </trkpt>
      <trkpt lat="45.54117" lon="5.77538">
        <ele>380.8</ele>
        <time>2021-08-23T13:38:58Z</time>
      </trkpt>
      <trkpt lat="45.54116" lon="5.77543">
        <ele>380.8</ele>
        <time>2021-08-23T13:39:00Z</time>
      </trkpt>
      <trkpt lat="45.54114" lon="5.7755">
        <ele>380.9</ele>
        <time>2021-08-23T13:39:02Z</time>
      </trkpt>
      <trkpt lat="45.54112" lon="5.77556">
        <ele>380.9</ele>
        <time>2021-08-23T13:39:03Z</time>
      </trkpt>
      <trkpt lat="45.54111" lon="5.77561">
        <ele>380.9</ele>
        <time>2021-08-23T13:39:04Z</time>
      </trkpt>
      <trkpt lat="45.5411" lon="5.77566">
        <ele>380.9</ele>
        <time>2021-08-23T13:39:06Z</time>
      </trkpt>
      <trkpt lat="45.54109" lon="5.77571">
        <ele>380.9</ele>
        <time>2021-08-23T13:39:07Z</time>
      </trkpt>
      <trkpt lat="45.54111" lon="5.77578">
        <ele>380.9</ele>
        <time>2021-08-23T13:39:08Z</time>
      </trkpt>
      <trkpt lat="45.54114" lon="5.77585">
        <ele>380.8</ele>
        <time>2021-08-23T13:39:09Z</time>
      </trkpt>
      <trkpt lat="45.54116" lon="5.7759">
        <ele>380.2</ele>
        <time>2021-08-23T13:39:11Z</time>
      </trkpt>
      <trkpt lat="45.54121" lon="5.77597">
        <ele>379.8</ele>
        <time>2021-08-23T13:39:13Z</time>
      </trkpt>
      <trkpt lat="45.54124" lon="5.77599">
        <ele>379.6</ele>
        <time>2021-08-23T13:39:14Z</time>
      </trkpt>
      <trkpt lat="45.54129" lon="5.77599">
        <ele>379.3</ele>
        <time>2021-08-23T13:39:15Z</time>
      </trkpt>
      <trkpt lat="45.54138" lon="5.77597">
        <ele>378.9</ele>
        <time>2021-08-23T13:39:17Z</time>
      </trkpt>
      <trkpt lat="45.54142" lon="5.77595">
        <ele>378.7</ele>
        <time>2021-08-23T13:39:18Z</time>
      </trkpt>
      <trkpt lat="45.54146" lon="5.77595">
        <ele>378.5</ele>
        <time>2021-08-23T13:39:19Z</time>
      </trkpt>
      <trkpt lat="45.5415" lon="5.77594">
        <ele>378.4</ele>
        <time>2021-08-23T13:39:20Z</time>
      </trkpt>
      <trkpt lat="45.54156" lon="5.7759">
        <ele>378.1</ele>
        <time>2021-08-23T13:39:21Z</time>
      </trkpt>
      <trkpt lat="45.54159" lon="5.77586">
        <ele>377.9</ele>
        <time>2021-08-23T13:39:22Z</time>
      </trkpt>
      <trkpt lat="45.54161" lon="5.77581">
        <ele>377.9</ele>
        <time>2021-08-23T13:39:24Z</time>
      </trkpt>
      <trkpt lat="45.54161" lon="5.7758">
        <ele>378</ele>
        <time>2021-08-23T13:39:25Z</time>
      </trkpt>
      <trkpt lat="45.54159" lon="5.77582">
        <ele>378.1</ele>
        <time>2021-08-23T13:39:26Z</time>
      </trkpt>
      <trkpt lat="45.54157" lon="5.77584">
        <ele>378.2</ele>
        <time>2021-08-23T13:39:27Z</time>
      </trkpt>
      <trkpt lat="45.54154" lon="5.77582">
        <ele>378.3</ele>
        <time>2021-08-23T13:39:29Z</time>
      </trkpt>
      <trkpt lat="45.54148" lon="5.77587">
        <ele>378.6</ele>
        <time>2021-08-23T13:39:31Z</time>
      </trkpt>
      <trkpt lat="45.54144" lon="5.77591">
        <ele>378.8</ele>
        <time>2021-08-23T13:39:33Z</time>
      </trkpt>
      <trkpt lat="45.54141" lon="5.77593">
        <ele>378.9</ele>
        <time>2021-08-23T13:39:34Z</time>
      </trkpt>
      <trkpt lat="45.54137" lon="5.77595">
        <ele>379.1</ele>
        <time>2021-08-23T13:39:35Z</time>
      </trkpt>
      <trkpt lat="45.54132" lon="5.77596">
        <ele>379.4</ele>
        <time>2021-08-23T13:39:37Z</time>
      </trkpt>
      <trkpt lat="45.54129" lon="5.77594">
        <ele>379.5</ele>
        <time>2021-08-23T13:39:38Z</time>
      </trkpt>
      <trkpt lat="45.54123" lon="5.7759">
        <ele>379.9</ele>
        <time>2021-08-23T13:39:40Z</time>
      </trkpt>
      <trkpt lat="45.54117" lon="5.77588">
        <ele>380.2</ele>
        <time>2021-08-23T13:39:41Z</time>
      </trkpt>
      <trkpt lat="45.54115" lon="5.77587">
        <ele>380.4</ele>
        <time>2021-08-23T13:39:43Z</time>
      </trkpt>
      <trkpt lat="45.5411" lon="5.77589">
        <ele>380.6</ele>
        <time>2021-08-23T13:39:44Z</time>
      </trkpt>
      <trkpt lat="45.54106" lon="5.77595">
        <ele>380.8</ele>
        <time>2021-08-23T13:39:46Z</time>
      </trkpt>
      <trkpt lat="45.54102" lon="5.77599">
        <ele>380.9</ele>
        <time>2021-08-23T13:39:48Z</time>
      </trkpt>
      <trkpt lat="45.54099" lon="5.77605">
        <ele>380.9</ele>
        <time>2021-08-23T13:39:49Z</time>
      </trkpt>
      <trkpt lat="45.54095" lon="5.77612">
        <ele>381.1</ele>
        <time>2021-08-23T13:39:51Z</time>
      </trkpt>
      <trkpt lat="45.54092" lon="5.77617">
        <ele>381.1</ele>
        <time>2021-08-23T13:39:52Z</time>
      </trkpt>
      <trkpt lat="45.54089" lon="5.7762">
        <ele>381.2</ele>
        <time>2021-08-23T13:39:53Z</time>
      </trkpt>
      <trkpt lat="45.54087" lon="5.77622">
        <ele>381.2</ele>
        <time>2021-08-23T13:39:54Z</time>
      </trkpt>
      <trkpt lat="45.54085" lon="5.77625">
        <ele>381.3</ele>
        <time>2021-08-23T13:39:55Z</time>
      </trkpt>
      <trkpt lat="45.54083" lon="5.7763">
        <ele>381.3</ele>
        <time>2021-08-23T13:39:56Z</time>
      </trkpt>
      <trkpt lat="45.5408" lon="5.77637">
        <ele>381.4</ele>
        <time>2021-08-23T13:39:57Z</time>
      </trkpt>
      <trkpt lat="45.54078" lon="5.77643">
        <ele>381.5</ele>
        <time>2021-08-23T13:39:58Z</time>
      </trkpt>
      <trkpt lat="45.54074" lon="5.77652">
        <ele>381.6</ele>
        <time>2021-08-23T13:40:00Z</time>
      </trkpt>
      <trkpt lat="45.54072" lon="5.77662">
        <ele>381.8</ele>
        <time>2021-08-23T13:40:02Z</time>
      </trkpt>
      <trkpt lat="45.54069" lon="5.77674">
        <ele>382</ele>
        <time>2021-08-23T13:40:03Z</time>
      </trkpt>
      <trkpt lat="45.54067" lon="5.77681">
        <ele>382.1</ele>
        <time>2021-08-23T13:40:05Z</time>
      </trkpt>
      <trkpt lat="45.54066" lon="5.77687">
        <ele>382.2</ele>
        <time>2021-08-23T13:40:06Z</time>
      </trkpt>
      <trkpt lat="45.54064" lon="5.77696">
        <ele>382.4</ele>
        <time>2021-08-23T13:40:07Z</time>
      </trkpt>
      <trkpt lat="45.54062" lon="5.77705">
        <ele>382.5</ele>
        <time>2021-08-23T13:40:09Z</time>
      </trkpt>
      <trkpt lat="45.5406" lon="5.77711">
        <ele>382.6</ele>
        <time>2021-08-23T13:40:10Z</time>
      </trkpt>
      <trkpt lat="45.54058" lon="5.77715">
        <ele>382.7</ele>
        <time>2021-08-23T13:40:11Z</time>
      </trkpt>
      <trkpt lat="45.54056" lon="5.7772">
        <ele>382.8</ele>
        <time>2021-08-23T13:40:12Z</time>
      </trkpt>
      <trkpt lat="45.54055" lon="5.77724">
        <ele>382.9</ele>
        <time>2021-08-23T13:40:13Z</time>
      </trkpt>
      <trkpt lat="45.54053" lon="5.77729">
        <ele>383</ele>
        <time>2021-08-23T13:40:15Z</time>
      </trkpt>
      <trkpt lat="45.54051" lon="5.77733">
        <ele>383.1</ele>
        <time>2021-08-23T13:40:16Z</time>
      </trkpt>
      <trkpt lat="45.54051" lon="5.77737">
        <ele>383.2</ele>
        <time>2021-08-23T13:40:18Z</time>
      </trkpt>
      <trkpt lat="45.5405" lon="5.77743">
        <ele>383.3</ele>
        <time>2021-08-23T13:40:19Z</time>
      </trkpt>
      <trkpt lat="45.54048" lon="5.77747">
        <ele>383.4</ele>
        <time>2021-08-23T13:40:20Z</time>
      </trkpt>
      <trkpt lat="45.54046" lon="5.77751">
        <ele>383.5</ele>
        <time>2021-08-23T13:40:21Z</time>
      </trkpt>
      <trkpt lat="45.54045" lon="5.77755">
        <ele>383.5</ele>
        <time>2021-08-23T13:40:22Z</time>
      </trkpt>
      <trkpt lat="45.54043" lon="5.77759">
        <ele>383.6</ele>
        <time>2021-08-23T13:40:24Z</time>
      </trkpt>
      <trkpt lat="45.54042" lon="5.77761">
        <ele>383.6</ele>
        <time>2021-08-23T13:40:25Z</time>
      </trkpt>
      <trkpt lat="45.54041" lon="5.77765">
        <ele>383.7</ele>
        <time>2021-08-23T13:40:26Z</time>
      </trkpt>
      <trkpt lat="45.54038" lon="5.77769">
        <ele>383.8</ele>
        <time>2021-08-23T13:40:27Z</time>
      </trkpt>
      <trkpt lat="45.54035" lon="5.77775">
        <ele>383.9</ele>
        <time>2021-08-23T13:40:28Z</time>
      </trkpt>
      <trkpt lat="45.54032" lon="5.77781">
        <ele>383.8</ele>
        <time>2021-08-23T13:40:30Z</time>
      </trkpt>
      <trkpt lat="45.54031" lon="5.77786">
        <ele>383.8</ele>
        <time>2021-08-23T13:40:31Z</time>
      </trkpt>
      <trkpt lat="45.54029" lon="5.7779">
        <ele>383.8</ele>
        <time>2021-08-23T13:40:32Z</time>
      </trkpt>
      <trkpt lat="45.54027" lon="5.77796">
        <ele>383.7</ele>
        <time>2021-08-23T13:40:33Z</time>
      </trkpt>
      <trkpt lat="45.54025" lon="5.778">
        <ele>383.7</ele>
        <time>2021-08-23T13:40:34Z</time>
      </trkpt>
      <trkpt lat="45.54023" lon="5.77804">
        <ele>383.7</ele>
        <time>2021-08-23T13:40:35Z</time>
      </trkpt>
      <trkpt lat="45.54022" lon="5.77808">
        <ele>383.7</ele>
        <time>2021-08-23T13:40:36Z</time>
      </trkpt>
      <trkpt lat="45.5402" lon="5.77814">
        <ele>383.7</ele>
        <time>2021-08-23T13:40:37Z</time>
      </trkpt>
      <trkpt lat="45.54016" lon="5.77822">
        <ele>383.7</ele>
        <time>2021-08-23T13:40:39Z</time>
      </trkpt>
      <trkpt lat="45.54014" lon="5.77825">
        <ele>383.7</ele>
        <time>2021-08-23T13:40:40Z</time>
      </trkpt>
      <trkpt lat="45.54012" lon="5.7783">
        <ele>383.6</ele>
        <time>2021-08-23T13:40:41Z</time>
      </trkpt>
      <trkpt lat="45.54009" lon="5.77837">
        <ele>383.6</ele>
        <time>2021-08-23T13:40:43Z</time>
      </trkpt>
      <trkpt lat="45.54008" lon="5.77841">
        <ele>383.6</ele>
        <time>2021-08-23T13:40:44Z</time>
      </trkpt>
      <trkpt lat="45.54004" lon="5.77847">
        <ele>383.5</ele>
        <time>2021-08-23T13:40:46Z</time>
      </trkpt>
      <trkpt lat="45.54004" lon="5.77848">
        <ele>383.5</ele>
        <time>2021-08-23T13:40:47Z</time>
      </trkpt>
      <trkpt lat="45.54004" lon="5.77846">
        <ele>383.5</ele>
        <time>2021-08-23T13:40:48Z</time>
      </trkpt>
      <trkpt lat="45.54004" lon="5.77844">
        <ele>383.6</ele>
        <time>2021-08-23T13:40:49Z</time>
      </trkpt>
      <trkpt lat="45.54004" lon="5.77843">
        <ele>383.6</ele>
        <time>2021-08-23T13:40:50Z</time>
      </trkpt>
      <trkpt lat="45.54004" lon="5.77841">
        <ele>383.6</ele>
        <time>2021-08-23T13:40:51Z</time>
      </trkpt>
      <trkpt lat="45.54004" lon="5.77839">
        <ele>383.6</ele>
        <time>2021-08-23T13:40:52Z</time>
      </trkpt>
      <trkpt lat="45.54006" lon="5.77832">
        <ele>383.6</ele>
        <time>2021-08-23T13:40:53Z</time>
      </trkpt>
      <trkpt lat="45.54007" lon="5.77825">
        <ele>383.6</ele>
        <time>2021-08-23T13:40:54Z</time>
      </trkpt>
      <trkpt lat="45.54009" lon="5.77814">
        <ele>383.7</ele>
        <time>2021-08-23T13:40:56Z</time>
      </trkpt>
      <trkpt lat="45.54012" lon="5.77808">
        <ele>383.7</ele>
        <time>2021-08-23T13:40:58Z</time>
      </trkpt>
      <trkpt lat="45.54016" lon="5.77801">
        <ele>383.7</ele>
        <time>2021-08-23T13:40:59Z</time>
      </trkpt>
      <trkpt lat="45.54023" lon="5.77793">
        <ele>383.7</ele>
        <time>2021-08-23T13:41:01Z</time>
      </trkpt>
      <trkpt lat="45.54027" lon="5.77796">
        <ele>383.7</ele>
        <time>2021-08-23T13:41:02Z</time>
      </trkpt>
      <trkpt lat="45.5403" lon="5.77789">
        <ele>383.8</ele>
        <time>2021-08-23T13:41:04Z</time>
      </trkpt>
      <trkpt lat="45.54031" lon="5.77779">
        <ele>383.9</ele>
        <time>2021-08-23T13:41:05Z</time>
      </trkpt>
      <trkpt lat="45.5403" lon="5.77773">
        <ele>384</ele>
        <time>2021-08-23T13:41:06Z</time>
      </trkpt>
      <trkpt lat="45.54026" lon="5.77766">
        <ele>384</ele>
        <time>2021-08-23T13:41:08Z</time>
      </trkpt>
      <trkpt lat="45.54023" lon="5.77762">
        <ele>384.1</ele>
        <time>2021-08-23T13:41:09Z</time>
      </trkpt>
      <trkpt lat="45.54018" lon="5.77757">
        <ele>384.2</ele>
        <time>2021-08-23T13:41:10Z</time>
      </trkpt>
      <trkpt lat="45.54013" lon="5.77754">
        <ele>384.2</ele>
        <time>2021-08-23T13:41:12Z</time>
      </trkpt>
      <trkpt lat="45.54003" lon="5.7775">
        <ele>384.4</ele>
        <time>2021-08-23T13:41:13Z</time>
      </trkpt>
      <trkpt lat="45.53995" lon="5.77749">
        <ele>384.6</ele>
        <time>2021-08-23T13:41:15Z</time>
      </trkpt>
      <trkpt lat="45.53988" lon="5.7775">
        <ele>384.8</ele>
        <time>2021-08-23T13:41:17Z</time>
      </trkpt>
      <trkpt lat="45.53982" lon="5.77751">
        <ele>385</ele>
        <time>2021-08-23T13:41:19Z</time>
      </trkpt>
      <trkpt lat="45.53978" lon="5.77752">
        <ele>385.2</ele>
        <time>2021-08-23T13:41:20Z</time>
      </trkpt>
      <trkpt lat="45.53973" lon="5.77754">
        <ele>385.1</ele>
        <time>2021-08-23T13:41:21Z</time>
      </trkpt>
      <trkpt lat="45.53969" lon="5.77757">
        <ele>385.1</ele>
        <time>2021-08-23T13:41:22Z</time>
      </trkpt>
      <trkpt lat="45.53965" lon="5.7776">
        <ele>385</ele>
        <time>2021-08-23T13:41:23Z</time>
      </trkpt>
      <trkpt lat="45.53962" lon="5.77766">
        <ele>385</ele>
        <time>2021-08-23T13:41:24Z</time>
      </trkpt>
      <trkpt lat="45.53956" lon="5.77779">
        <ele>384.9</ele>
        <time>2021-08-23T13:41:26Z</time>
      </trkpt>
      <trkpt lat="45.53953" lon="5.77785">
        <ele>384.8</ele>
        <time>2021-08-23T13:41:27Z</time>
      </trkpt>
      <trkpt lat="45.5395" lon="5.77793">
        <ele>384.8</ele>
        <time>2021-08-23T13:41:28Z</time>
      </trkpt>
      <trkpt lat="45.53949" lon="5.77799">
        <ele>384.8</ele>
        <time>2021-08-23T13:41:29Z</time>
      </trkpt>
      <trkpt lat="45.5395" lon="5.77807">
        <ele>384.8</ele>
        <time>2021-08-23T13:41:31Z</time>
      </trkpt>
      <trkpt lat="45.53952" lon="5.77814">
        <ele>384.8</ele>
        <time>2021-08-23T13:41:33Z</time>
      </trkpt>
      <trkpt lat="45.53954" lon="5.7782">
        <ele>384.8</ele>
        <time>2021-08-23T13:41:34Z</time>
      </trkpt>
      <trkpt lat="45.53955" lon="5.77827">
        <ele>384.8</ele>
        <time>2021-08-23T13:41:35Z</time>
      </trkpt>
      <trkpt lat="45.53957" lon="5.77833">
        <ele>384.8</ele>
        <time>2021-08-23T13:41:37Z</time>
      </trkpt>
      <trkpt lat="45.53956" lon="5.77839">
        <ele>384.8</ele>
        <time>2021-08-23T13:41:38Z</time>
      </trkpt>
      <trkpt lat="45.53956" lon="5.77846">
        <ele>384.8</ele>
        <time>2021-08-23T13:41:39Z</time>
      </trkpt>
      <trkpt lat="45.53955" lon="5.77857">
        <ele>384.9</ele>
        <time>2021-08-23T13:41:41Z</time>
      </trkpt>
      <trkpt lat="45.53954" lon="5.77873">
        <ele>385</ele>
        <time>2021-08-23T13:41:43Z</time>
      </trkpt>
      <trkpt lat="45.53952" lon="5.7788">
        <ele>385</ele>
        <time>2021-08-23T13:41:44Z</time>
      </trkpt>
      <trkpt lat="45.53951" lon="5.77889">
        <ele>385.1</ele>
        <time>2021-08-23T13:41:45Z</time>
      </trkpt>
      <trkpt lat="45.53949" lon="5.77899">
        <ele>385.2</ele>
        <time>2021-08-23T13:41:47Z</time>
      </trkpt>
      <trkpt lat="45.53947" lon="5.77906">
        <ele>385.3</ele>
        <time>2021-08-23T13:41:48Z</time>
      </trkpt>
      <trkpt lat="45.53944" lon="5.7792">
        <ele>385.4</ele>
        <time>2021-08-23T13:41:50Z</time>
      </trkpt>
      <trkpt lat="45.5394" lon="5.77934">
        <ele>385.5</ele>
        <time>2021-08-23T13:41:52Z</time>
      </trkpt>
      <trkpt lat="45.53936" lon="5.77954">
        <ele>385.7</ele>
        <time>2021-08-23T13:41:54Z</time>
      </trkpt>
      <trkpt lat="45.53933" lon="5.77968">
        <ele>385.9</ele>
        <time>2021-08-23T13:41:56Z</time>
      </trkpt>
      <trkpt lat="45.53931" lon="5.77981">
        <ele>386.1</ele>
        <time>2021-08-23T13:41:58Z</time>
      </trkpt>
      <trkpt lat="45.5393" lon="5.77987">
        <ele>386.2</ele>
        <time>2021-08-23T13:41:59Z</time>
      </trkpt>
      <trkpt lat="45.5393" lon="5.77988">
        <ele>386.2</ele>
        <time>2021-08-23T13:42:00Z</time>
      </trkpt>
      <trkpt lat="45.53929" lon="5.77996">
        <ele>386.4</ele>
        <time>2021-08-23T13:42:02Z</time>
      </trkpt>
      <trkpt lat="45.53929" lon="5.78002">
        <ele>386.5</ele>
        <time>2021-08-23T13:42:03Z</time>
      </trkpt>
      <trkpt lat="45.53929" lon="5.78007">
        <ele>386.6</ele>
        <time>2021-08-23T13:42:04Z</time>
      </trkpt>
      <trkpt lat="45.5393" lon="5.78011">
        <ele>386.6</ele>
        <time>2021-08-23T13:42:05Z</time>
      </trkpt>
      <trkpt lat="45.53932" lon="5.78016">
        <ele>386.7</ele>
        <time>2021-08-23T13:42:06Z</time>
      </trkpt>
      <trkpt lat="45.53934" lon="5.78022">
        <ele>386.9</ele>
        <time>2021-08-23T13:42:08Z</time>
      </trkpt>
      <trkpt lat="45.53936" lon="5.78028">
        <ele>387</ele>
        <time>2021-08-23T13:42:10Z</time>
      </trkpt>
      <trkpt lat="45.53937" lon="5.78033">
        <ele>387.1</ele>
        <time>2021-08-23T13:42:11Z</time>
      </trkpt>
      <trkpt lat="45.53938" lon="5.78038">
        <ele>387.1</ele>
        <time>2021-08-23T13:42:12Z</time>
      </trkpt>
      <trkpt lat="45.53938" lon="5.78045">
        <ele>387.3</ele>
        <time>2021-08-23T13:42:14Z</time>
      </trkpt>
      <trkpt lat="45.53935" lon="5.78053">
        <ele>387.4</ele>
        <time>2021-08-23T13:42:15Z</time>
      </trkpt>
      <trkpt lat="45.5393" lon="5.78062">
        <ele>387.6</ele>
        <time>2021-08-23T13:42:17Z</time>
      </trkpt>
      <trkpt lat="45.53928" lon="5.78068">
        <ele>387.7</ele>
        <time>2021-08-23T13:42:18Z</time>
      </trkpt>
      <trkpt lat="45.53927" lon="5.78075">
        <ele>387.8</ele>
        <time>2021-08-23T13:42:19Z</time>
      </trkpt>
      <trkpt lat="45.53926" lon="5.78082">
        <ele>387.9</ele>
        <time>2021-08-23T13:42:21Z</time>
      </trkpt>
      <trkpt lat="45.53926" lon="5.78087">
        <ele>387.9</ele>
        <time>2021-08-23T13:42:22Z</time>
      </trkpt>
      <trkpt lat="45.53925" lon="5.78092">
        <ele>388</ele>
        <time>2021-08-23T13:42:23Z</time>
      </trkpt>
      <trkpt lat="45.53924" lon="5.78099">
        <ele>388.2</ele>
        <time>2021-08-23T13:42:24Z</time>
      </trkpt>
      <trkpt lat="45.53923" lon="5.78105">
        <ele>388.3</ele>
        <time>2021-08-23T13:42:25Z</time>
      </trkpt>
      <trkpt lat="45.53923" lon="5.78109">
        <ele>388.3</ele>
        <time>2021-08-23T13:42:27Z</time>
      </trkpt>
      <trkpt lat="45.53923" lon="5.78115">
        <ele>388.4</ele>
        <time>2021-08-23T13:42:29Z</time>
      </trkpt>
      <trkpt lat="45.53923" lon="5.78122">
        <ele>388.5</ele>
        <time>2021-08-23T13:42:30Z</time>
      </trkpt>
      <trkpt lat="45.53923" lon="5.78127">
        <ele>388.6</ele>
        <time>2021-08-23T13:42:31Z</time>
      </trkpt>
      <trkpt lat="45.53924" lon="5.78133">
        <ele>388.7</ele>
        <time>2021-08-23T13:42:33Z</time>
      </trkpt>
      <trkpt lat="45.53925" lon="5.78135">
        <ele>388.7</ele>
        <time>2021-08-23T13:42:34Z</time>
      </trkpt>
      <trkpt lat="45.53925" lon="5.78137">
        <ele>388.7</ele>
        <time>2021-08-23T13:42:35Z</time>
      </trkpt>
      <trkpt lat="45.53925" lon="5.78145">
        <ele>388.8</ele>
        <time>2021-08-23T13:42:36Z</time>
      </trkpt>
      <trkpt lat="45.53925" lon="5.78151">
        <ele>388.9</ele>
        <time>2021-08-23T13:42:38Z</time>
      </trkpt>
      <trkpt lat="45.53926" lon="5.78155">
        <ele>389</ele>
        <time>2021-08-23T13:42:39Z</time>
      </trkpt>
      <trkpt lat="45.53926" lon="5.7816">
        <ele>389</ele>
        <time>2021-08-23T13:42:40Z</time>
      </trkpt>
      <trkpt lat="45.53926" lon="5.78165">
        <ele>389.1</ele>
        <time>2021-08-23T13:42:41Z</time>
      </trkpt>
      <trkpt lat="45.53926" lon="5.78169">
        <ele>389.2</ele>
        <time>2021-08-23T13:42:42Z</time>
      </trkpt>
      <trkpt lat="45.53925" lon="5.78176">
        <ele>389.3</ele>
        <time>2021-08-23T13:42:44Z</time>
      </trkpt>
      <trkpt lat="45.53926" lon="5.78182">
        <ele>389.4</ele>
        <time>2021-08-23T13:42:45Z</time>
      </trkpt>
      <trkpt lat="45.53929" lon="5.78187">
        <ele>389.5</ele>
        <time>2021-08-23T13:42:47Z</time>
      </trkpt>
      <trkpt lat="45.5393" lon="5.78191">
        <ele>389.5</ele>
        <time>2021-08-23T13:42:48Z</time>
      </trkpt>
      <trkpt lat="45.5393" lon="5.78196">
        <ele>389.6</ele>
        <time>2021-08-23T13:42:49Z</time>
      </trkpt>
      <trkpt lat="45.5393" lon="5.78201">
        <ele>389.7</ele>
        <time>2021-08-23T13:42:50Z</time>
      </trkpt>
      <trkpt lat="45.53929" lon="5.7821">
        <ele>389.8</ele>
        <time>2021-08-23T13:42:51Z</time>
      </trkpt>
      <trkpt lat="45.5393" lon="5.78215">
        <ele>389.8</ele>
        <time>2021-08-23T13:42:52Z</time>
      </trkpt>
      <trkpt lat="45.5393" lon="5.78222">
        <ele>389.9</ele>
        <time>2021-08-23T13:42:54Z</time>
      </trkpt>
      <trkpt lat="45.5393" lon="5.78227">
        <ele>390</ele>
        <time>2021-08-23T13:42:55Z</time>
      </trkpt>
      <trkpt lat="45.53931" lon="5.78233">
        <ele>390</ele>
        <time>2021-08-23T13:42:56Z</time>
      </trkpt>
      <trkpt lat="45.53932" lon="5.78241">
        <ele>390.1</ele>
        <time>2021-08-23T13:42:57Z</time>
      </trkpt>
      <trkpt lat="45.53933" lon="5.78247">
        <ele>390.2</ele>
        <time>2021-08-23T13:42:58Z</time>
      </trkpt>
      <trkpt lat="45.53933" lon="5.78253">
        <ele>390.2</ele>
        <time>2021-08-23T13:42:59Z</time>
      </trkpt>
      <trkpt lat="45.53933" lon="5.7826">
        <ele>390.3</ele>
        <time>2021-08-23T13:43:00Z</time>
      </trkpt>
      <trkpt lat="45.53934" lon="5.78267">
        <ele>390.4</ele>
        <time>2021-08-23T13:43:02Z</time>
      </trkpt>
      <trkpt lat="45.53935" lon="5.78273">
        <ele>390.4</ele>
        <time>2021-08-23T13:43:03Z</time>
      </trkpt>
      <trkpt lat="45.53936" lon="5.78277">
        <ele>390.5</ele>
        <time>2021-08-23T13:43:04Z</time>
      </trkpt>
      <trkpt lat="45.53936" lon="5.78278">
        <ele>390.5</ele>
        <time>2021-08-23T13:43:05Z</time>
      </trkpt>
      <trkpt lat="45.53936" lon="5.78286">
        <ele>390.5</ele>
        <time>2021-08-23T13:43:07Z</time>
      </trkpt>
      <trkpt lat="45.53936" lon="5.78291">
        <ele>390.6</ele>
        <time>2021-08-23T13:43:08Z</time>
      </trkpt>
      <trkpt lat="45.53936" lon="5.78296">
        <ele>390.6</ele>
        <time>2021-08-23T13:43:09Z</time>
      </trkpt>
      <trkpt lat="45.53936" lon="5.78301">
        <ele>390.6</ele>
        <time>2021-08-23T13:43:10Z</time>
      </trkpt>
      <trkpt lat="45.53935" lon="5.78311">
        <ele>390.7</ele>
        <time>2021-08-23T13:43:12Z</time>
      </trkpt>
      <trkpt lat="45.53935" lon="5.7832">
        <ele>390.7</ele>
        <time>2021-08-23T13:43:13Z</time>
      </trkpt>
      <trkpt lat="45.53934" lon="5.78325">
        <ele>390.8</ele>
        <time>2021-08-23T13:43:14Z</time>
      </trkpt>
      <trkpt lat="45.53932" lon="5.78336">
        <ele>390.8</ele>
        <time>2021-08-23T13:43:16Z</time>
      </trkpt>
      <trkpt lat="45.53932" lon="5.78342">
        <ele>390.9</ele>
        <time>2021-08-23T13:43:18Z</time>
      </trkpt>
      <trkpt lat="45.53932" lon="5.78348">
        <ele>390.9</ele>
        <time>2021-08-23T13:43:19Z</time>
      </trkpt>
      <trkpt lat="45.53933" lon="5.78354">
        <ele>390.9</ele>
        <time>2021-08-23T13:43:20Z</time>
      </trkpt>
      <trkpt lat="45.53936" lon="5.7836">
        <ele>391</ele>
        <time>2021-08-23T13:43:22Z</time>
      </trkpt>
      <trkpt lat="45.53938" lon="5.78364">
        <ele>391</ele>
        <time>2021-08-23T13:43:23Z</time>
      </trkpt>
      <trkpt lat="45.53941" lon="5.78371">
        <ele>391</ele>
        <time>2021-08-23T13:43:24Z</time>
      </trkpt>
      <trkpt lat="45.53944" lon="5.78377">
        <ele>391.1</ele>
        <time>2021-08-23T13:43:26Z</time>
      </trkpt>
      <trkpt lat="45.53947" lon="5.78382">
        <ele>391.1</ele>
        <time>2021-08-23T13:43:27Z</time>
      </trkpt>
      <trkpt lat="45.53952" lon="5.7839">
        <ele>391.2</ele>
        <time>2021-08-23T13:43:28Z</time>
      </trkpt>
      <trkpt lat="45.53953" lon="5.78395">
        <ele>391.2</ele>
        <time>2021-08-23T13:43:30Z</time>
      </trkpt>
      <trkpt lat="45.53949" lon="5.78406">
        <ele>391.2</ele>
        <time>2021-08-23T13:43:31Z</time>
      </trkpt>
      <trkpt lat="45.53947" lon="5.78418">
        <ele>391.2</ele>
        <time>2021-08-23T13:43:33Z</time>
      </trkpt>
      <trkpt lat="45.53947" lon="5.78425">
        <ele>391.2</ele>
        <time>2021-08-23T13:43:34Z</time>
      </trkpt>
      <trkpt lat="45.53945" lon="5.7843">
        <ele>391.2</ele>
        <time>2021-08-23T13:43:35Z</time>
      </trkpt>
      <trkpt lat="45.53945" lon="5.78439">
        <ele>391.1</ele>
        <time>2021-08-23T13:43:37Z</time>
      </trkpt>
      <trkpt lat="45.53945" lon="5.78447">
        <ele>391.1</ele>
        <time>2021-08-23T13:43:38Z</time>
      </trkpt>
      <trkpt lat="45.53946" lon="5.78459">
        <ele>391.1</ele>
        <time>2021-08-23T13:43:39Z</time>
      </trkpt>
      <trkpt lat="45.53946" lon="5.78467">
        <ele>391.1</ele>
        <time>2021-08-23T13:43:40Z</time>
      </trkpt>
      <trkpt lat="45.53946" lon="5.78474">
        <ele>391.1</ele>
        <time>2021-08-23T13:43:41Z</time>
      </trkpt>
      <trkpt lat="45.53945" lon="5.78482">
        <ele>391.1</ele>
        <time>2021-08-23T13:43:42Z</time>
      </trkpt>
      <trkpt lat="45.53945" lon="5.7849">
        <ele>391.1</ele>
        <time>2021-08-23T13:43:44Z</time>
      </trkpt>
      <trkpt lat="45.53946" lon="5.78506">
        <ele>391.1</ele>
        <time>2021-08-23T13:43:46Z</time>
      </trkpt>
      <trkpt lat="45.53944" lon="5.78515">
        <ele>391.1</ele>
        <time>2021-08-23T13:43:47Z</time>
      </trkpt>
      <trkpt lat="45.53945" lon="5.78525">
        <ele>391.1</ele>
        <time>2021-08-23T13:43:49Z</time>
      </trkpt>
      <trkpt lat="45.53946" lon="5.78533">
        <ele>391.1</ele>
        <time>2021-08-23T13:43:50Z</time>
      </trkpt>
      <trkpt lat="45.53948" lon="5.78543">
        <ele>391.1</ele>
        <time>2021-08-23T13:43:52Z</time>
      </trkpt>
      <trkpt lat="45.53948" lon="5.78558">
        <ele>391.1</ele>
        <time>2021-08-23T13:43:54Z</time>
      </trkpt>
      <trkpt lat="45.53948" lon="5.78571">
        <ele>391.1</ele>
        <time>2021-08-23T13:43:56Z</time>
      </trkpt>
      <trkpt lat="45.53948" lon="5.78578">
        <ele>391.1</ele>
        <time>2021-08-23T13:43:57Z</time>
      </trkpt>
      <trkpt lat="45.53948" lon="5.78591">
        <ele>391.1</ele>
        <time>2021-08-23T13:43:58Z</time>
      </trkpt>
      <trkpt lat="45.53947" lon="5.78605">
        <ele>391.1</ele>
        <time>2021-08-23T13:44:00Z</time>
      </trkpt>
      <trkpt lat="45.53948" lon="5.78613">
        <ele>391</ele>
        <time>2021-08-23T13:44:01Z</time>
      </trkpt>
      <trkpt lat="45.53949" lon="5.78619">
        <ele>391</ele>
        <time>2021-08-23T13:44:02Z</time>
      </trkpt>
      <trkpt lat="45.53949" lon="5.78626">
        <ele>391</ele>
        <time>2021-08-23T13:44:04Z</time>
      </trkpt>
      <trkpt lat="45.5395" lon="5.78637">
        <ele>390.9</ele>
        <time>2021-08-23T13:44:05Z</time>
      </trkpt>
      <trkpt lat="45.53951" lon="5.78643">
        <ele>390.9</ele>
        <time>2021-08-23T13:44:06Z</time>
      </trkpt>
      <trkpt lat="45.53952" lon="5.7865">
        <ele>390.9</ele>
        <time>2021-08-23T13:44:07Z</time>
      </trkpt>
      <trkpt lat="45.53952" lon="5.78659">
        <ele>390.8</ele>
        <time>2021-08-23T13:44:08Z</time>
      </trkpt>
      <trkpt lat="45.53952" lon="5.78668">
        <ele>390.8</ele>
        <time>2021-08-23T13:44:10Z</time>
      </trkpt>
      <trkpt lat="45.53952" lon="5.78674">
        <ele>390.8</ele>
        <time>2021-08-23T13:44:11Z</time>
      </trkpt>
      <trkpt lat="45.53953" lon="5.78682">
        <ele>390.7</ele>
        <time>2021-08-23T13:44:12Z</time>
      </trkpt>
      <trkpt lat="45.53955" lon="5.78692">
        <ele>390.7</ele>
        <time>2021-08-23T13:44:14Z</time>
      </trkpt>
      <trkpt lat="45.53955" lon="5.78714">
        <ele>390.5</ele>
        <time>2021-08-23T13:44:16Z</time>
      </trkpt>
      <trkpt lat="45.53953" lon="5.78723">
        <ele>390.5</ele>
        <time>2021-08-23T13:44:17Z</time>
      </trkpt>
      <trkpt lat="45.53951" lon="5.78731">
        <ele>390.4</ele>
        <time>2021-08-23T13:44:18Z</time>
      </trkpt>
      <trkpt lat="45.53948" lon="5.78745">
        <ele>390.4</ele>
        <time>2021-08-23T13:44:20Z</time>
      </trkpt>
      <trkpt lat="45.53947" lon="5.78761">
        <ele>390.3</ele>
        <time>2021-08-23T13:44:22Z</time>
      </trkpt>
      <trkpt lat="45.53947" lon="5.7878">
        <ele>390.2</ele>
        <time>2021-08-23T13:44:24Z</time>
      </trkpt>
      <trkpt lat="45.53945" lon="5.78796">
        <ele>390.2</ele>
        <time>2021-08-23T13:44:26Z</time>
      </trkpt>
      <trkpt lat="45.53944" lon="5.78812">
        <ele>390.2</ele>
        <time>2021-08-23T13:44:28Z</time>
      </trkpt>
      <trkpt lat="45.53946" lon="5.78827">
        <ele>390.1</ele>
        <time>2021-08-23T13:44:30Z</time>
      </trkpt>
      <trkpt lat="45.53947" lon="5.78835">
        <ele>390.1</ele>
        <time>2021-08-23T13:44:31Z</time>
      </trkpt>
      <trkpt lat="45.53948" lon="5.78842">
        <ele>390.1</ele>
        <time>2021-08-23T13:44:32Z</time>
      </trkpt>
      <trkpt lat="45.5395" lon="5.78856">
        <ele>390.1</ele>
        <time>2021-08-23T13:44:34Z</time>
      </trkpt>
      <trkpt lat="45.53952" lon="5.78867">
        <ele>390</ele>
        <time>2021-08-23T13:44:36Z</time>
      </trkpt>
      <trkpt lat="45.53953" lon="5.78874">
        <ele>390</ele>
        <time>2021-08-23T13:44:37Z</time>
      </trkpt>
      <trkpt lat="45.53953" lon="5.78882">
        <ele>390</ele>
        <time>2021-08-23T13:44:38Z</time>
      </trkpt>
      <trkpt lat="45.53949" lon="5.789">
        <ele>389.9</ele>
        <time>2021-08-23T13:44:40Z</time>
      </trkpt>
      <trkpt lat="45.53945" lon="5.78916">
        <ele>389.9</ele>
        <time>2021-08-23T13:44:42Z</time>
      </trkpt>
      <trkpt lat="45.53936" lon="5.78931">
        <ele>389.8</ele>
        <time>2021-08-23T13:44:44Z</time>
      </trkpt>
      <trkpt lat="45.53929" lon="5.78944">
        <ele>389.8</ele>
        <time>2021-08-23T13:44:46Z</time>
      </trkpt>
      <trkpt lat="45.53917" lon="5.78949">
        <ele>389.7</ele>
        <time>2021-08-23T13:44:48Z</time>
      </trkpt>
      <trkpt lat="45.53911" lon="5.78954">
        <ele>389.7</ele>
        <time>2021-08-23T13:44:50Z</time>
      </trkpt>
      <trkpt lat="45.53907" lon="5.78957">
        <ele>389.6</ele>
        <time>2021-08-23T13:44:51Z</time>
      </trkpt>
      <trkpt lat="45.53896" lon="5.78964">
        <ele>389.6</ele>
        <time>2021-08-23T13:44:53Z</time>
      </trkpt>
      <trkpt lat="45.53891" lon="5.78967">
        <ele>389.5</ele>
        <time>2021-08-23T13:44:54Z</time>
      </trkpt>
      <trkpt lat="45.53882" lon="5.78973">
        <ele>389.5</ele>
        <time>2021-08-23T13:44:56Z</time>
      </trkpt>
      <trkpt lat="45.53879" lon="5.78977">
        <ele>389.4</ele>
        <time>2021-08-23T13:44:57Z</time>
      </trkpt>
      <trkpt lat="45.53876" lon="5.78982">
        <ele>389.4</ele>
        <time>2021-08-23T13:44:58Z</time>
      </trkpt>
      <trkpt lat="45.5387" lon="5.78998">
        <ele>389.4</ele>
        <time>2021-08-23T13:45:00Z</time>
      </trkpt>
      <trkpt lat="45.53867" lon="5.79009">
        <ele>389.3</ele>
        <time>2021-08-23T13:45:01Z</time>
      </trkpt>
      <trkpt lat="45.53863" lon="5.79018">
        <ele>389.3</ele>
        <time>2021-08-23T13:45:03Z</time>
      </trkpt>
      <trkpt lat="45.53856" lon="5.79031">
        <ele>389.2</ele>
        <time>2021-08-23T13:45:04Z</time>
      </trkpt>
      <trkpt lat="45.53854" lon="5.79037">
        <ele>389.2</ele>
        <time>2021-08-23T13:45:06Z</time>
      </trkpt>
      <trkpt lat="45.53853" lon="5.79042">
        <ele>389.1</ele>
        <time>2021-08-23T13:45:07Z</time>
      </trkpt>
      <trkpt lat="45.53849" lon="5.79054">
        <ele>389</ele>
        <time>2021-08-23T13:45:09Z</time>
      </trkpt>
      <trkpt lat="45.53847" lon="5.7906">
        <ele>389</ele>
        <time>2021-08-23T13:45:10Z</time>
      </trkpt>
      <trkpt lat="45.53845" lon="5.79066">
        <ele>388.9</ele>
        <time>2021-08-23T13:45:11Z</time>
      </trkpt>
      <trkpt lat="45.53842" lon="5.79079">
        <ele>388.8</ele>
        <time>2021-08-23T13:45:13Z</time>
      </trkpt>
      <trkpt lat="45.53842" lon="5.79084">
        <ele>388.7</ele>
        <time>2021-08-23T13:45:14Z</time>
      </trkpt>
      <trkpt lat="45.53842" lon="5.7909">
        <ele>388.7</ele>
        <time>2021-08-23T13:45:15Z</time>
      </trkpt>
      <trkpt lat="45.53841" lon="5.791">
        <ele>388.6</ele>
        <time>2021-08-23T13:45:16Z</time>
      </trkpt>
      <trkpt lat="45.53841" lon="5.79107">
        <ele>388.6</ele>
        <time>2021-08-23T13:45:18Z</time>
      </trkpt>
      <trkpt lat="45.53841" lon="5.79119">
        <ele>388.5</ele>
        <time>2021-08-23T13:45:20Z</time>
      </trkpt>
      <trkpt lat="45.5384" lon="5.79128">
        <ele>388.4</ele>
        <time>2021-08-23T13:45:21Z</time>
      </trkpt>
      <trkpt lat="45.53839" lon="5.79138">
        <ele>388.4</ele>
        <time>2021-08-23T13:45:22Z</time>
      </trkpt>
      <trkpt lat="45.53837" lon="5.79148">
        <ele>388.3</ele>
        <time>2021-08-23T13:45:24Z</time>
      </trkpt>
      <trkpt lat="45.53834" lon="5.79156">
        <ele>388.2</ele>
        <time>2021-08-23T13:45:25Z</time>
      </trkpt>
      <trkpt lat="45.53831" lon="5.7917">
        <ele>388.1</ele>
        <time>2021-08-23T13:45:27Z</time>
      </trkpt>
      <trkpt lat="45.53831" lon="5.79172">
        <ele>388.1</ele>
        <time>2021-08-23T13:45:28Z</time>
      </trkpt>
      <trkpt lat="45.53827" lon="5.79188">
        <ele>388</ele>
        <time>2021-08-23T13:45:30Z</time>
      </trkpt>
      <trkpt lat="45.53824" lon="5.79202">
        <ele>387.9</ele>
        <time>2021-08-23T13:45:32Z</time>
      </trkpt>
      <trkpt lat="45.53819" lon="5.79207">
        <ele>387.9</ele>
        <time>2021-08-23T13:45:33Z</time>
      </trkpt>
      <trkpt lat="45.53818" lon="5.79215">
        <ele>387.9</ele>
        <time>2021-08-23T13:45:34Z</time>
      </trkpt>
      <trkpt lat="45.53817" lon="5.79221">
        <ele>387.9</ele>
        <time>2021-08-23T13:45:36Z</time>
      </trkpt>
      <trkpt lat="45.53816" lon="5.79228">
        <ele>387.8</ele>
        <time>2021-08-23T13:45:37Z</time>
      </trkpt>
      <trkpt lat="45.53812" lon="5.79236">
        <ele>388.4</ele>
        <time>2021-08-23T13:45:38Z</time>
      </trkpt>
      <trkpt lat="45.5381" lon="5.7924">
        <ele>388.6</ele>
        <time>2021-08-23T13:45:40Z</time>
      </trkpt>
      <trkpt lat="45.53809" lon="5.79241">
        <ele>388.7</ele>
        <time>2021-08-23T13:45:41Z</time>
      </trkpt>
      <trkpt lat="45.53809" lon="5.79241">
        <ele>388.8</ele>
        <time>2021-08-23T13:45:42Z</time>
      </trkpt>
      <trkpt lat="45.53807" lon="5.79245">
        <ele>389</ele>
        <time>2021-08-23T13:45:43Z</time>
      </trkpt>
      <trkpt lat="45.53806" lon="5.79248">
        <ele>389.2</ele>
        <time>2021-08-23T13:45:44Z</time>
      </trkpt>
      <trkpt lat="45.53801" lon="5.79253">
        <ele>389.6</ele>
        <time>2021-08-23T13:45:46Z</time>
      </trkpt>
      <trkpt lat="45.53797" lon="5.79257">
        <ele>390</ele>
        <time>2021-08-23T13:45:47Z</time>
      </trkpt>
      <trkpt lat="45.53793" lon="5.79264">
        <ele>390.5</ele>
        <time>2021-08-23T13:45:49Z</time>
      </trkpt>
      <trkpt lat="45.53789" lon="5.7927">
        <ele>391</ele>
        <time>2021-08-23T13:45:51Z</time>
      </trkpt>
      <trkpt lat="45.53786" lon="5.79271">
        <ele>391.3</ele>
        <time>2021-08-23T13:45:52Z</time>
      </trkpt>
      <trkpt lat="45.53785" lon="5.79272">
        <ele>391.4</ele>
        <time>2021-08-23T13:45:53Z</time>
      </trkpt>
      <trkpt lat="45.53783" lon="5.79274">
        <ele>391.6</ele>
        <time>2021-08-23T13:45:55Z</time>
      </trkpt>
      <trkpt lat="45.53782" lon="5.79275">
        <ele>391.7</ele>
        <time>2021-08-23T13:45:56Z</time>
      </trkpt>
      <trkpt lat="45.53781" lon="5.79277">
        <ele>391.9</ele>
        <time>2021-08-23T13:45:57Z</time>
      </trkpt>
      <trkpt lat="45.5378" lon="5.79279">
        <ele>392.1</ele>
        <time>2021-08-23T13:45:58Z</time>
      </trkpt>
      <trkpt lat="45.53779" lon="5.7928">
        <ele>392.2</ele>
        <time>2021-08-23T13:45:59Z</time>
      </trkpt>
      <trkpt lat="45.53776" lon="5.79282">
        <ele>392.5</ele>
        <time>2021-08-23T13:46:01Z</time>
      </trkpt>
      <trkpt lat="45.53775" lon="5.79283">
        <ele>392.6</ele>
        <time>2021-08-23T13:46:02Z</time>
      </trkpt>
      <trkpt lat="45.53773" lon="5.79286">
        <ele>392.8</ele>
        <time>2021-08-23T13:46:03Z</time>
      </trkpt>
      <trkpt lat="45.53771" lon="5.79291">
        <ele>393.2</ele>
        <time>2021-08-23T13:46:04Z</time>
      </trkpt>
      <trkpt lat="45.53769" lon="5.79294">
        <ele>393.5</ele>
        <time>2021-08-23T13:46:05Z</time>
      </trkpt>
      <trkpt lat="45.53765" lon="5.79298">
        <ele>394</ele>
        <time>2021-08-23T13:46:07Z</time>
      </trkpt>
      <trkpt lat="45.53763" lon="5.79302">
        <ele>394.3</ele>
        <time>2021-08-23T13:46:09Z</time>
      </trkpt>
      <trkpt lat="45.53762" lon="5.79303">
        <ele>394.4</ele>
        <time>2021-08-23T13:46:10Z</time>
      </trkpt>
      <trkpt lat="45.53759" lon="5.79306">
        <ele>394.8</ele>
        <time>2021-08-23T13:46:12Z</time>
      </trkpt>
      <trkpt lat="45.53758" lon="5.79308">
        <ele>395</ele>
        <time>2021-08-23T13:46:13Z</time>
      </trkpt>
      <trkpt lat="45.53758" lon="5.79309">
        <ele>395.1</ele>
        <time>2021-08-23T13:46:14Z</time>
      </trkpt>
      <trkpt lat="45.53756" lon="5.79312">
        <ele>395.3</ele>
        <time>2021-08-23T13:46:16Z</time>
      </trkpt>
      <trkpt lat="45.53756" lon="5.79314">
        <ele>395.5</ele>
        <time>2021-08-23T13:46:18Z</time>
      </trkpt>
      <trkpt lat="45.53754" lon="5.79316">
        <ele>395.6</ele>
        <time>2021-08-23T13:46:19Z</time>
      </trkpt>
      <trkpt lat="45.53754" lon="5.79317">
        <ele>395.7</ele>
        <time>2021-08-23T13:46:21Z</time>
      </trkpt>
      <trkpt lat="45.53755" lon="5.79317">
        <ele>395.8</ele>
        <time>2021-08-23T13:46:22Z</time>
      </trkpt>
      <trkpt lat="45.53753" lon="5.7932">
        <ele>396</ele>
        <time>2021-08-23T13:46:24Z</time>
      </trkpt>
      <trkpt lat="45.53751" lon="5.79323">
        <ele>396.3</ele>
        <time>2021-08-23T13:46:25Z</time>
      </trkpt>
      <trkpt lat="45.5375" lon="5.79324">
        <ele>396.4</ele>
        <time>2021-08-23T13:46:26Z</time>
      </trkpt>
      <trkpt lat="45.53749" lon="5.79325">
        <ele>396.6</ele>
        <time>2021-08-23T13:46:27Z</time>
      </trkpt>
      <trkpt lat="45.53747" lon="5.79328">
        <ele>396.9</ele>
        <time>2021-08-23T13:46:29Z</time>
      </trkpt>
      <trkpt lat="45.53744" lon="5.7933">
        <ele>397.2</ele>
        <time>2021-08-23T13:46:30Z</time>
      </trkpt>
      <trkpt lat="45.53742" lon="5.79333">
        <ele>397.4</ele>
        <time>2021-08-23T13:46:32Z</time>
      </trkpt>
      <trkpt lat="45.53741" lon="5.79334">
        <ele>397.6</ele>
        <time>2021-08-23T13:46:33Z</time>
      </trkpt>
      <trkpt lat="45.53738" lon="5.79337">
        <ele>398</ele>
        <time>2021-08-23T13:46:34Z</time>
      </trkpt>
      <trkpt lat="45.53735" lon="5.79341">
        <ele>398.4</ele>
        <time>2021-08-23T13:46:36Z</time>
      </trkpt>
      <trkpt lat="45.53733" lon="5.79344">
        <ele>398.5</ele>
        <time>2021-08-23T13:46:38Z</time>
      </trkpt>
      <trkpt lat="45.53732" lon="5.79344">
        <ele>398.6</ele>
        <time>2021-08-23T13:46:39Z</time>
      </trkpt>
      <trkpt lat="45.5373" lon="5.79349">
        <ele>398.9</ele>
        <time>2021-08-23T13:46:41Z</time>
      </trkpt>
      <trkpt lat="45.53729" lon="5.7935">
        <ele>398.9</ele>
        <time>2021-08-23T13:46:42Z</time>
      </trkpt>
      <trkpt lat="45.53728" lon="5.79352">
        <ele>399.1</ele>
        <time>2021-08-23T13:46:43Z</time>
      </trkpt>
      <trkpt lat="45.53725" lon="5.79355">
        <ele>399.3</ele>
        <time>2021-08-23T13:46:45Z</time>
      </trkpt>
      <trkpt lat="45.53723" lon="5.79356">
        <ele>400.1</ele>
        <time>2021-08-23T13:46:46Z</time>
      </trkpt>
      <trkpt lat="45.53722" lon="5.79355">
        <ele>400.2</ele>
        <time>2021-08-23T13:46:48Z</time>
      </trkpt>
      <trkpt lat="45.53721" lon="5.79355">
        <ele>400.3</ele>
        <time>2021-08-23T13:46:49Z</time>
      </trkpt>
      <trkpt lat="45.5372" lon="5.79353">
        <ele>400.5</ele>
        <time>2021-08-23T13:46:50Z</time>
      </trkpt>
      <trkpt lat="45.5372" lon="5.79353">
        <ele>400.5</ele>
        <time>2021-08-23T13:46:51Z</time>
      </trkpt>
      <trkpt lat="45.53721" lon="5.79353">
        <ele>400.6</ele>
        <time>2021-08-23T13:46:53Z</time>
      </trkpt>
      <trkpt lat="45.53721" lon="5.79353">
        <ele>400.6</ele>
        <time>2021-08-23T13:46:54Z</time>
      </trkpt>
      <trkpt lat="45.53721" lon="5.79353">
        <ele>400.6</ele>
        <time>2021-08-23T13:46:55Z</time>
      </trkpt>
      <trkpt lat="45.53721" lon="5.79353">
        <ele>400.6</ele>
        <time>2021-08-23T13:46:56Z</time>
      </trkpt>
      <trkpt lat="45.5372" lon="5.79353">
        <ele>400.6</ele>
        <time>2021-08-23T13:46:58Z</time>
      </trkpt>
      <trkpt lat="45.5372" lon="5.79353">
        <ele>400.6</ele>
        <time>2021-08-23T13:46:59Z</time>
      </trkpt>
      <trkpt lat="45.5372" lon="5.79353">
        <ele>400.6</ele>
        <time>2021-08-23T13:47:00Z</time>
      </trkpt>
      <trkpt lat="45.53728" lon="5.79364">
        <ele>401.6</ele>
        <time>2021-08-23T13:47:26Z</time>
      </trkpt>
      <trkpt lat="45.53729" lon="5.79367">
        <ele>401.9</ele>
        <time>2021-08-23T13:47:27Z</time>
      </trkpt>
      <trkpt lat="45.53731" lon="5.79369">
        <ele>402.1</ele>
        <time>2021-08-23T13:47:29Z</time>
      </trkpt>
      <trkpt lat="45.53732" lon="5.7937">
        <ele>402.2</ele>
        <time>2021-08-23T13:47:30Z</time>
      </trkpt>
      <trkpt lat="45.53732" lon="5.7937">
        <ele>402.3</ele>
        <time>2021-08-23T13:47:31Z</time>
      </trkpt>
      <trkpt lat="45.53732" lon="5.79368">
        <ele>402.4</ele>
        <time>2021-08-23T13:47:33Z</time>
      </trkpt>
      <trkpt lat="45.53731" lon="5.79368">
        <ele>402.5</ele>
        <time>2021-08-23T13:47:35Z</time>
      </trkpt>
      <trkpt lat="45.53731" lon="5.79367">
        <ele>402.5</ele>
        <time>2021-08-23T13:47:36Z</time>
      </trkpt>
      <trkpt lat="45.5373" lon="5.79367">
        <ele>402.7</ele>
        <time>2021-08-23T13:47:37Z</time>
      </trkpt>
      <trkpt lat="45.53728" lon="5.79368">
        <ele>402.8</ele>
        <time>2021-08-23T13:47:39Z</time>
      </trkpt>
      <trkpt lat="45.53716" lon="5.79373">
        <ele>404.1</ele>
        <time>2021-08-23T13:47:40Z</time>
      </trkpt>
      <trkpt lat="45.53708" lon="5.79377">
        <ele>405</ele>
        <time>2021-08-23T13:48:09Z</time>
      </trkpt>
      <trkpt lat="45.53699" lon="5.79382">
        <ele>405.9</ele>
        <time>2021-08-23T13:48:10Z</time>
      </trkpt>
      <trkpt lat="45.5369" lon="5.79386">
        <ele>406.8</ele>
        <time>2021-08-23T13:48:11Z</time>
      </trkpt>
      <trkpt lat="45.53687" lon="5.79387">
        <ele>407.1</ele>
        <time>2021-08-23T13:48:12Z</time>
      </trkpt>
      <trkpt lat="45.53686" lon="5.79388">
        <ele>407.2</ele>
        <time>2021-08-23T13:48:14Z</time>
      </trkpt>
      <trkpt lat="45.53684" lon="5.79388">
        <ele>407.3</ele>
        <time>2021-08-23T13:48:15Z</time>
      </trkpt>
      <trkpt lat="45.53683" lon="5.79389">
        <ele>407.5</ele>
        <time>2021-08-23T13:48:16Z</time>
      </trkpt>
      <trkpt lat="45.5368" lon="5.7939">
        <ele>407.7</ele>
        <time>2021-08-23T13:48:17Z</time>
      </trkpt>
      <trkpt lat="45.53676" lon="5.79391">
        <ele>408</ele>
        <time>2021-08-23T13:48:18Z</time>
      </trkpt>
      <trkpt lat="45.53673" lon="5.79391">
        <ele>408.3</ele>
        <time>2021-08-23T13:48:19Z</time>
      </trkpt>
      <trkpt lat="45.53668" lon="5.79391">
        <ele>408.7</ele>
        <time>2021-08-23T13:48:20Z</time>
      </trkpt>
      <trkpt lat="45.53664" lon="5.79391">
        <ele>409</ele>
        <time>2021-08-23T13:48:22Z</time>
      </trkpt>
      <trkpt lat="45.53661" lon="5.79391">
        <ele>409.3</ele>
        <time>2021-08-23T13:48:23Z</time>
      </trkpt>
      <trkpt lat="45.53657" lon="5.79391">
        <ele>409.5</ele>
        <time>2021-08-23T13:48:25Z</time>
      </trkpt>
      <trkpt lat="45.53653" lon="5.79391">
        <ele>409.8</ele>
        <time>2021-08-23T13:48:27Z</time>
      </trkpt>
      <trkpt lat="45.53649" lon="5.79391">
        <ele>410</ele>
        <time>2021-08-23T13:48:29Z</time>
      </trkpt>
      <trkpt lat="45.53646" lon="5.79391">
        <ele>410.2</ele>
        <time>2021-08-23T13:48:43Z</time>
      </trkpt>
      <trkpt lat="45.53642" lon="5.79391">
        <ele>410.3</ele>
        <time>2021-08-23T13:48:44Z</time>
      </trkpt>
      <trkpt lat="45.53638" lon="5.79391">
        <ele>410.4</ele>
        <time>2021-08-23T13:48:45Z</time>
      </trkpt>
      <trkpt lat="45.53636" lon="5.79391">
        <ele>410.5</ele>
        <time>2021-08-23T13:48:47Z</time>
      </trkpt>
      <trkpt lat="45.53635" lon="5.79392">
        <ele>410.5</ele>
        <time>2021-08-23T13:48:48Z</time>
      </trkpt>
      <trkpt lat="45.53634" lon="5.79392">
        <ele>410.6</ele>
        <time>2021-08-23T13:48:49Z</time>
      </trkpt>
      <trkpt lat="45.5363" lon="5.79393">
        <ele>410.7</ele>
        <time>2021-08-23T13:48:50Z</time>
      </trkpt>
      <trkpt lat="45.53625" lon="5.79395">
        <ele>411.1</ele>
        <time>2021-08-23T13:48:53Z</time>
      </trkpt>
      <trkpt lat="45.53621" lon="5.79399">
        <ele>411.4</ele>
        <time>2021-08-23T13:48:55Z</time>
      </trkpt>
      <trkpt lat="45.53619" lon="5.79401">
        <ele>411.6</ele>
        <time>2021-08-23T13:48:56Z</time>
      </trkpt>
      <trkpt lat="45.53615" lon="5.79406">
        <ele>411.8</ele>
        <time>2021-08-23T13:48:58Z</time>
      </trkpt>
      <trkpt lat="45.53612" lon="5.79409">
        <ele>412</ele>
        <time>2021-08-23T13:48:59Z</time>
      </trkpt>
      <trkpt lat="45.53611" lon="5.79409">
        <ele>412.1</ele>
        <time>2021-08-23T13:49:00Z</time>
      </trkpt>
      <trkpt lat="45.53608" lon="5.79411">
        <ele>412.2</ele>
        <time>2021-08-23T13:49:02Z</time>
      </trkpt>
      <trkpt lat="45.53607" lon="5.79411">
        <ele>412.3</ele>
        <time>2021-08-23T13:49:03Z</time>
      </trkpt>
      <trkpt lat="45.53605" lon="5.79411">
        <ele>412.4</ele>
        <time>2021-08-23T13:49:04Z</time>
      </trkpt>
      <trkpt lat="45.53603" lon="5.79409">
        <ele>412.5</ele>
        <time>2021-08-23T13:49:06Z</time>
      </trkpt>
      <trkpt lat="45.53601" lon="5.79408">
        <ele>412.6</ele>
        <time>2021-08-23T13:49:07Z</time>
      </trkpt>
      <trkpt lat="45.53598" lon="5.79407">
        <ele>412.7</ele>
        <time>2021-08-23T13:49:08Z</time>
      </trkpt>
      <trkpt lat="45.53597" lon="5.79407">
        <ele>412.8</ele>
        <time>2021-08-23T13:49:09Z</time>
      </trkpt>
      <trkpt lat="45.53596" lon="5.79406">
        <ele>412.9</ele>
        <time>2021-08-23T13:49:10Z</time>
      </trkpt>
      <trkpt lat="45.53596" lon="5.79403">
        <ele>413</ele>
        <time>2021-08-23T13:49:12Z</time>
      </trkpt>
      <trkpt lat="45.53596" lon="5.79403">
        <ele>413.1</ele>
        <time>2021-08-23T13:49:13Z</time>
      </trkpt>
      <trkpt lat="45.53596" lon="5.79402">
        <ele>413.1</ele>
        <time>2021-08-23T13:49:14Z</time>
      </trkpt>
      <trkpt lat="45.53596" lon="5.79402">
        <ele>413.1</ele>
        <time>2021-08-23T13:49:16Z</time>
      </trkpt>
      <trkpt lat="45.53596" lon="5.79402">
        <ele>413.1</ele>
        <time>2021-08-23T13:49:17Z</time>
      </trkpt>
      <trkpt lat="45.53596" lon="5.79402">
        <ele>413.1</ele>
        <time>2021-08-23T13:49:19Z</time>
      </trkpt>
      <trkpt lat="45.53593" lon="5.79402">
        <ele>413.3</ele>
        <time>2021-08-23T13:49:20Z</time>
      </trkpt>
      <trkpt lat="45.53573" lon="5.79399">
        <ele>414.6</ele>
        <time>2021-08-23T13:49:29Z</time>
      </trkpt>
      <trkpt lat="45.5357" lon="5.79398">
        <ele>414.8</ele>
        <time>2021-08-23T13:49:31Z</time>
      </trkpt>
      <trkpt lat="45.53567" lon="5.79397">
        <ele>414.9</ele>
        <time>2021-08-23T13:49:33Z</time>
      </trkpt>
      <trkpt lat="45.53565" lon="5.79393">
        <ele>415</ele>
        <time>2021-08-23T13:49:34Z</time>
      </trkpt>
      <trkpt lat="45.53565" lon="5.79391">
        <ele>415</ele>
        <time>2021-08-23T13:49:35Z</time>
      </trkpt>
      <trkpt lat="45.53565" lon="5.79391">
        <ele>415</ele>
        <time>2021-08-23T13:49:36Z</time>
      </trkpt>
      <trkpt lat="45.53564" lon="5.79392">
        <ele>415</ele>
        <time>2021-08-23T13:49:38Z</time>
      </trkpt>
      <trkpt lat="45.53566" lon="5.79397">
        <ele>414.8</ele>
        <time>2021-08-23T13:49:39Z</time>
      </trkpt>
      <trkpt lat="45.53569" lon="5.794">
        <ele>414.7</ele>
        <time>2021-08-23T13:49:41Z</time>
      </trkpt>
      <trkpt lat="45.53571" lon="5.79401">
        <ele>414.6</ele>
        <time>2021-08-23T13:49:42Z</time>
      </trkpt>
      <trkpt lat="45.53575" lon="5.79405">
        <ele>414.4</ele>
        <time>2021-08-23T13:49:44Z</time>
      </trkpt>
      <trkpt lat="45.53581" lon="5.79407">
        <ele>414.2</ele>
        <time>2021-08-23T13:49:46Z</time>
      </trkpt>
      <trkpt lat="45.53587" lon="5.79407">
        <ele>413.9</ele>
        <time>2021-08-23T13:49:47Z</time>
      </trkpt>
      <trkpt lat="45.53593" lon="5.79409">
        <ele>413.7</ele>
        <time>2021-08-23T13:49:49Z</time>
      </trkpt>
      <trkpt lat="45.53597" lon="5.79411">
        <ele>413.5</ele>
        <time>2021-08-23T13:49:50Z</time>
      </trkpt>
      <trkpt lat="45.53602" lon="5.79421">
        <ele>413.1</ele>
        <time>2021-08-23T13:49:52Z</time>
      </trkpt>
      <trkpt lat="45.536" lon="5.79426">
        <ele>412.9</ele>
        <time>2021-08-23T13:49:54Z</time>
      </trkpt>
      <trkpt lat="45.53594" lon="5.79428">
        <ele>413</ele>
        <time>2021-08-23T13:49:55Z</time>
      </trkpt>
      <trkpt lat="45.53586" lon="5.79434">
        <ele>412.9</ele>
        <time>2021-08-23T13:49:56Z</time>
      </trkpt>
      <trkpt lat="45.53579" lon="5.79438">
        <ele>412.8</ele>
        <time>2021-08-23T13:49:58Z</time>
      </trkpt>
      <trkpt lat="45.53571" lon="5.7944">
        <ele>412.6</ele>
        <time>2021-08-23T13:49:59Z</time>
      </trkpt>
      <trkpt lat="45.53565" lon="5.79442">
        <ele>412.5</ele>
        <time>2021-08-23T13:50:00Z</time>
      </trkpt>
      <trkpt lat="45.53553" lon="5.79445">
        <ele>412.2</ele>
        <time>2021-08-23T13:50:02Z</time>
      </trkpt>
      <trkpt lat="45.53547" lon="5.79445">
        <ele>412.1</ele>
        <time>2021-08-23T13:50:03Z</time>
      </trkpt>
      <trkpt lat="45.53542" lon="5.79445">
        <ele>412.1</ele>
        <time>2021-08-23T13:50:04Z</time>
      </trkpt>
      <trkpt lat="45.53532" lon="5.79449">
        <ele>411.9</ele>
        <time>2021-08-23T13:50:06Z</time>
      </trkpt>
      <trkpt lat="45.53528" lon="5.7945">
        <ele>411.8</ele>
        <time>2021-08-23T13:50:08Z</time>
      </trkpt>
      <trkpt lat="45.5352" lon="5.79454">
        <ele>411.7</ele>
        <time>2021-08-23T13:50:10Z</time>
      </trkpt>
      <trkpt lat="45.5351" lon="5.79463">
        <ele>411.6</ele>
        <time>2021-08-23T13:50:12Z</time>
      </trkpt>
      <trkpt lat="45.53504" lon="5.79469">
        <ele>411.5</ele>
        <time>2021-08-23T13:50:13Z</time>
      </trkpt>
      <trkpt lat="45.53497" lon="5.79477">
        <ele>411.4</ele>
        <time>2021-08-23T13:50:14Z</time>
      </trkpt>
      <trkpt lat="45.53486" lon="5.7949">
        <ele>411</ele>
        <time>2021-08-23T13:50:16Z</time>
      </trkpt>
      <trkpt lat="45.53483" lon="5.79496">
        <ele>410.8</ele>
        <time>2021-08-23T13:50:17Z</time>
      </trkpt>
      <trkpt lat="45.5348" lon="5.79501">
        <ele>410.7</ele>
        <time>2021-08-23T13:50:18Z</time>
      </trkpt>
      <trkpt lat="45.53475" lon="5.79508">
        <ele>410.4</ele>
        <time>2021-08-23T13:50:20Z</time>
      </trkpt>
      <trkpt lat="45.53467" lon="5.7951">
        <ele>410.1</ele>
        <time>2021-08-23T13:50:22Z</time>
      </trkpt>
      <trkpt lat="45.53463" lon="5.79509">
        <ele>410</ele>
        <time>2021-08-23T13:50:23Z</time>
      </trkpt>
      <trkpt lat="45.53458" lon="5.79508">
        <ele>409.8</ele>
        <time>2021-08-23T13:50:24Z</time>
      </trkpt>
      <trkpt lat="45.53446" lon="5.79503">
        <ele>409.6</ele>
        <time>2021-08-23T13:50:26Z</time>
      </trkpt>
      <trkpt lat="45.53442" lon="5.795">
        <ele>409.6</ele>
        <time>2021-08-23T13:50:27Z</time>
      </trkpt>
      <trkpt lat="45.53434" lon="5.79499">
        <ele>409.6</ele>
        <time>2021-08-23T13:50:29Z</time>
      </trkpt>
      <trkpt lat="45.53427" lon="5.79495">
        <ele>409.6</ele>
        <time>2021-08-23T13:50:30Z</time>
      </trkpt>
      <trkpt lat="45.53424" lon="5.79489">
        <ele>409.7</ele>
        <time>2021-08-23T13:50:32Z</time>
      </trkpt>
      <trkpt lat="45.5342" lon="5.79486">
        <ele>409.7</ele>
        <time>2021-08-23T13:50:33Z</time>
      </trkpt>
      <trkpt lat="45.53416" lon="5.79483">
        <ele>409.7</ele>
        <time>2021-08-23T13:50:34Z</time>
      </trkpt>
      <trkpt lat="45.53413" lon="5.79482">
        <ele>409.8</ele>
        <time>2021-08-23T13:50:36Z</time>
      </trkpt>
      <trkpt lat="45.53408" lon="5.79481">
        <ele>409.8</ele>
        <time>2021-08-23T13:50:37Z</time>
      </trkpt>
      <trkpt lat="45.53402" lon="5.79479">
        <ele>409.8</ele>
        <time>2021-08-23T13:50:39Z</time>
      </trkpt>
      <trkpt lat="45.53396" lon="5.79475">
        <ele>409.8</ele>
        <time>2021-08-23T13:50:40Z</time>
      </trkpt>
      <trkpt lat="45.53388" lon="5.7947">
        <ele>409.7</ele>
        <time>2021-08-23T13:50:42Z</time>
      </trkpt>
      <trkpt lat="45.53384" lon="5.79469">
        <ele>409.7</ele>
        <time>2021-08-23T13:50:43Z</time>
      </trkpt>
      <trkpt lat="45.5338" lon="5.7947">
        <ele>409.6</ele>
        <time>2021-08-23T13:50:44Z</time>
      </trkpt>
      <trkpt lat="45.53374" lon="5.79468">
        <ele>409.6</ele>
        <time>2021-08-23T13:50:45Z</time>
      </trkpt>
      <trkpt lat="45.53369" lon="5.79466">
        <ele>409.5</ele>
        <time>2021-08-23T13:50:46Z</time>
      </trkpt>
      <trkpt lat="45.53364" lon="5.79464">
        <ele>409.5</ele>
        <time>2021-08-23T13:50:47Z</time>
      </trkpt>
      <trkpt lat="45.53358" lon="5.79463">
        <ele>409.5</ele>
        <time>2021-08-23T13:50:48Z</time>
      </trkpt>
      <trkpt lat="45.5335" lon="5.79465">
        <ele>409.4</ele>
        <time>2021-08-23T13:50:50Z</time>
      </trkpt>
      <trkpt lat="45.53343" lon="5.79467">
        <ele>409.4</ele>
        <time>2021-08-23T13:50:52Z</time>
      </trkpt>
      <trkpt lat="45.53338" lon="5.79465">
        <ele>409.4</ele>
        <time>2021-08-23T13:50:53Z</time>
      </trkpt>
      <trkpt lat="45.53335" lon="5.7947">
        <ele>409.4</ele>
        <time>2021-08-23T13:50:55Z</time>
      </trkpt>
      <trkpt lat="45.53333" lon="5.79474">
        <ele>409.4</ele>
        <time>2021-08-23T13:50:56Z</time>
      </trkpt>
      <trkpt lat="45.5333" lon="5.79477">
        <ele>409.4</ele>
        <time>2021-08-23T13:50:57Z</time>
      </trkpt>
      <trkpt lat="45.53324" lon="5.79487">
        <ele>409.3</ele>
        <time>2021-08-23T13:50:59Z</time>
      </trkpt>
      <trkpt lat="45.53323" lon="5.79489">
        <ele>409.3</ele>
        <time>2021-08-23T13:51:00Z</time>
      </trkpt>
      <trkpt lat="45.53323" lon="5.79491">
        <ele>409.3</ele>
        <time>2021-08-23T13:51:01Z</time>
      </trkpt>
      <trkpt lat="45.53325" lon="5.79494">
        <ele>409.2</ele>
        <time>2021-08-23T13:51:02Z</time>
      </trkpt>
      <trkpt lat="45.53326" lon="5.79495">
        <ele>409.2</ele>
        <time>2021-08-23T13:51:03Z</time>
      </trkpt>
      <trkpt lat="45.53326" lon="5.79496">
        <ele>409.2</ele>
        <time>2021-08-23T13:51:04Z</time>
      </trkpt>
      <trkpt lat="45.53326" lon="5.79496">
        <ele>409.2</ele>
        <time>2021-08-23T13:51:06Z</time>
      </trkpt>
      <trkpt lat="45.53327" lon="5.79496">
        <ele>409.2</ele>
        <time>2021-08-23T13:51:07Z</time>
      </trkpt>
      <trkpt lat="45.53327" lon="5.79496">
        <ele>409.2</ele>
        <time>2021-08-23T13:51:08Z</time>
      </trkpt>
      <trkpt lat="45.53327" lon="5.79497">
        <ele>409.2</ele>
        <time>2021-08-23T13:51:09Z</time>
      </trkpt>
      <trkpt lat="45.53327" lon="5.79497">
        <ele>409.2</ele>
        <time>2021-08-23T13:51:10Z</time>
      </trkpt>
      <trkpt lat="45.53327" lon="5.79497">
        <ele>409.2</ele>
        <time>2021-08-23T13:51:12Z</time>
      </trkpt>
      <trkpt lat="45.53344" lon="5.79501">
        <ele>408.9</ele>
        <time>2021-08-23T13:52:05Z</time>
      </trkpt>
      <trkpt lat="45.53349" lon="5.79511">
        <ele>408.5</ele>
        <time>2021-08-23T13:52:07Z</time>
      </trkpt>
      <trkpt lat="45.5336" lon="5.7952">
        <ele>408.1</ele>
        <time>2021-08-23T13:52:08Z</time>
      </trkpt>
      <trkpt lat="45.53374" lon="5.79534">
        <ele>407.8</ele>
        <time>2021-08-23T13:52:10Z</time>
      </trkpt>
      <trkpt lat="45.53377" lon="5.79542">
        <ele>407.8</ele>
        <time>2021-08-23T13:52:11Z</time>
      </trkpt>
      <trkpt lat="45.53381" lon="5.79557">
        <ele>407.8</ele>
        <time>2021-08-23T13:52:13Z</time>
      </trkpt>
      <trkpt lat="45.53383" lon="5.79563">
        <ele>407.8</ele>
        <time>2021-08-23T13:52:14Z</time>
      </trkpt>
      <trkpt lat="45.53385" lon="5.79571">
        <ele>407.8</ele>
        <time>2021-08-23T13:52:15Z</time>
      </trkpt>
      <trkpt lat="45.53386" lon="5.79577">
        <ele>407.9</ele>
        <time>2021-08-23T13:52:16Z</time>
      </trkpt>
      <trkpt lat="45.53387" lon="5.79582">
        <ele>407.9</ele>
        <time>2021-08-23T13:52:17Z</time>
      </trkpt>
      <trkpt lat="45.53388" lon="5.7959">
        <ele>408</ele>
        <time>2021-08-23T13:52:18Z</time>
      </trkpt>
      <trkpt lat="45.53389" lon="5.79602">
        <ele>408.1</ele>
        <time>2021-08-23T13:52:20Z</time>
      </trkpt>
      <trkpt lat="45.53387" lon="5.79614">
        <ele>408.3</ele>
        <time>2021-08-23T13:52:22Z</time>
      </trkpt>
      <trkpt lat="45.53385" lon="5.79624">
        <ele>408.5</ele>
        <time>2021-08-23T13:52:23Z</time>
      </trkpt>
      <trkpt lat="45.53384" lon="5.79631">
        <ele>408.7</ele>
        <time>2021-08-23T13:52:24Z</time>
      </trkpt>
      <trkpt lat="45.53382" lon="5.7964">
        <ele>408.9</ele>
        <time>2021-08-23T13:52:25Z</time>
      </trkpt>
      <trkpt lat="45.53379" lon="5.79644">
        <ele>409.1</ele>
        <time>2021-08-23T13:52:27Z</time>
      </trkpt>
      <trkpt lat="45.53376" lon="5.79648">
        <ele>408.6</ele>
        <time>2021-08-23T13:52:28Z</time>
      </trkpt>
      <trkpt lat="45.53371" lon="5.7965">
        <ele>408.6</ele>
        <time>2021-08-23T13:52:30Z</time>
      </trkpt>
      <trkpt lat="45.53367" lon="5.79652">
        <ele>409</ele>
        <time>2021-08-23T13:52:31Z</time>
      </trkpt>
      <trkpt lat="45.53362" lon="5.79655">
        <ele>409.6</ele>
        <time>2021-08-23T13:52:33Z</time>
      </trkpt>
      <trkpt lat="45.5336" lon="5.79657">
        <ele>409.8</ele>
        <time>2021-08-23T13:52:34Z</time>
      </trkpt>
      <trkpt lat="45.53358" lon="5.79658">
        <ele>410</ele>
        <time>2021-08-23T13:52:35Z</time>
      </trkpt>
      <trkpt lat="45.53356" lon="5.7966">
        <ele>410.3</ele>
        <time>2021-08-23T13:52:36Z</time>
      </trkpt>
      <trkpt lat="45.53354" lon="5.79662">
        <ele>410.6</ele>
        <time>2021-08-23T13:52:38Z</time>
      </trkpt>
      <trkpt lat="45.53352" lon="5.79662">
        <ele>410.9</ele>
        <time>2021-08-23T13:52:39Z</time>
      </trkpt>
      <trkpt lat="45.53351" lon="5.79662">
        <ele>411</ele>
        <time>2021-08-23T13:52:41Z</time>
      </trkpt>
      <trkpt lat="45.5335" lon="5.79662">
        <ele>411.2</ele>
        <time>2021-08-23T13:52:43Z</time>
      </trkpt>
      <trkpt lat="45.53348" lon="5.79662">
        <ele>411.4</ele>
        <time>2021-08-23T13:52:44Z</time>
      </trkpt>
      <trkpt lat="45.53347" lon="5.79662">
        <ele>411.5</ele>
        <time>2021-08-23T13:52:45Z</time>
      </trkpt>
      <trkpt lat="45.53343" lon="5.79664">
        <ele>412.2</ele>
        <time>2021-08-23T13:52:47Z</time>
      </trkpt>
      <trkpt lat="45.53342" lon="5.79664">
        <ele>412.2</ele>
        <time>2021-08-23T13:52:48Z</time>
      </trkpt>
      <trkpt lat="45.5334" lon="5.79667">
        <ele>412.2</ele>
        <time>2021-08-23T13:52:49Z</time>
      </trkpt>
      <trkpt lat="45.53337" lon="5.79671">
        <ele>412.2</ele>
        <time>2021-08-23T13:52:52Z</time>
      </trkpt>
      <trkpt lat="45.53334" lon="5.79673">
        <ele>412.2</ele>
        <time>2021-08-23T13:52:53Z</time>
      </trkpt>
      <trkpt lat="45.53331" lon="5.79675">
        <ele>412.3</ele>
        <time>2021-08-23T13:52:54Z</time>
      </trkpt>
      <trkpt lat="45.5333" lon="5.79676">
        <ele>412.3</ele>
        <time>2021-08-23T13:52:55Z</time>
      </trkpt>
      <trkpt lat="45.53326" lon="5.79678">
        <ele>412.6</ele>
        <time>2021-08-23T13:52:57Z</time>
      </trkpt>
      <trkpt lat="45.53325" lon="5.79678">
        <ele>412.8</ele>
        <time>2021-08-23T13:52:58Z</time>
      </trkpt>
      <trkpt lat="45.53323" lon="5.79679">
        <ele>413</ele>
        <time>2021-08-23T13:52:59Z</time>
      </trkpt>
      <trkpt lat="45.53322" lon="5.79679">
        <ele>413.2</ele>
        <time>2021-08-23T13:53:00Z</time>
      </trkpt>
      <trkpt lat="45.5332" lon="5.79679">
        <ele>413.4</ele>
        <time>2021-08-23T13:53:01Z</time>
      </trkpt>
      <trkpt lat="45.53318" lon="5.7968">
        <ele>413.6</ele>
        <time>2021-08-23T13:53:02Z</time>
      </trkpt>
      <trkpt lat="45.53315" lon="5.7968">
        <ele>413.9</ele>
        <time>2021-08-23T13:53:04Z</time>
      </trkpt>
      <trkpt lat="45.53312" lon="5.79681">
        <ele>414.4</ele>
        <time>2021-08-23T13:53:05Z</time>
      </trkpt>
      <trkpt lat="45.53308" lon="5.79684">
        <ele>414.9</ele>
        <time>2021-08-23T13:53:07Z</time>
      </trkpt>
      <trkpt lat="45.53306" lon="5.79687">
        <ele>415.3</ele>
        <time>2021-08-23T13:53:09Z</time>
      </trkpt>
      <trkpt lat="45.53304" lon="5.79688">
        <ele>415.5</ele>
        <time>2021-08-23T13:53:10Z</time>
      </trkpt>
      <trkpt lat="45.53302" lon="5.7969">
        <ele>415.9</ele>
        <time>2021-08-23T13:53:12Z</time>
      </trkpt>
      <trkpt lat="45.53301" lon="5.7969">
        <ele>416</ele>
        <time>2021-08-23T13:53:13Z</time>
      </trkpt>
      <trkpt lat="45.53299" lon="5.79692">
        <ele>416.2</ele>
        <time>2021-08-23T13:53:15Z</time>
      </trkpt>
      <trkpt lat="45.53299" lon="5.79692">
        <ele>416.3</ele>
        <time>2021-08-23T13:53:16Z</time>
      </trkpt>
      <trkpt lat="45.53299" lon="5.79693">
        <ele>416.4</ele>
        <time>2021-08-23T13:53:17Z</time>
      </trkpt>
      <trkpt lat="45.53298" lon="5.79695">
        <ele>416.6</ele>
        <time>2021-08-23T13:53:19Z</time>
      </trkpt>
      <trkpt lat="45.53297" lon="5.79695">
        <ele>416.6</ele>
        <time>2021-08-23T13:53:20Z</time>
      </trkpt>
      <trkpt lat="45.53297" lon="5.79696">
        <ele>416.8</ele>
        <time>2021-08-23T13:53:22Z</time>
      </trkpt>
      <trkpt lat="45.53296" lon="5.79697">
        <ele>416.8</ele>
        <time>2021-08-23T13:53:23Z</time>
      </trkpt>
      <trkpt lat="45.53296" lon="5.79697">
        <ele>416.9</ele>
        <time>2021-08-23T13:53:25Z</time>
      </trkpt>
      <trkpt lat="45.53296" lon="5.79698">
        <ele>417</ele>
        <time>2021-08-23T13:53:26Z</time>
      </trkpt>
      <trkpt lat="45.53294" lon="5.79698">
        <ele>417.1</ele>
        <time>2021-08-23T13:53:28Z</time>
      </trkpt>
      <trkpt lat="45.5327" lon="5.79735">
        <ele>420.5</ele>
        <time>2021-08-23T13:53:56Z</time>
      </trkpt>
      <trkpt lat="45.53268" lon="5.79741">
        <ele>420.9</ele>
        <time>2021-08-23T13:53:57Z</time>
      </trkpt>
      <trkpt lat="45.53267" lon="5.79745">
        <ele>421.1</ele>
        <time>2021-08-23T13:53:59Z</time>
      </trkpt>
      <trkpt lat="45.53265" lon="5.79748">
        <ele>421.4</ele>
        <time>2021-08-23T13:54:00Z</time>
      </trkpt>
      <trkpt lat="45.53264" lon="5.79751">
        <ele>421.7</ele>
        <time>2021-08-23T13:54:01Z</time>
      </trkpt>
      <trkpt lat="45.53261" lon="5.79756">
        <ele>422.1</ele>
        <time>2021-08-23T13:54:03Z</time>
      </trkpt>
      <trkpt lat="45.5326" lon="5.79757">
        <ele>422.3</ele>
        <time>2021-08-23T13:54:04Z</time>
      </trkpt>
      <trkpt lat="45.53259" lon="5.7976">
        <ele>422.5</ele>
        <time>2021-08-23T13:54:05Z</time>
      </trkpt>
      <trkpt lat="45.53257" lon="5.7976">
        <ele>422.7</ele>
        <time>2021-08-23T13:54:07Z</time>
      </trkpt>
      <trkpt lat="45.53256" lon="5.79761">
        <ele>422.8</ele>
        <time>2021-08-23T13:54:08Z</time>
      </trkpt>
      <trkpt lat="45.53257" lon="5.79761">
        <ele>422.9</ele>
        <time>2021-08-23T13:54:09Z</time>
      </trkpt>
      <trkpt lat="45.53257" lon="5.7976">
        <ele>422.9</ele>
        <time>2021-08-23T13:54:11Z</time>
      </trkpt>
      <trkpt lat="45.53257" lon="5.79761">
        <ele>422.9</ele>
        <time>2021-08-23T13:54:12Z</time>
      </trkpt>
      <trkpt lat="45.53257" lon="5.79761">
        <ele>423</ele>
        <time>2021-08-23T13:54:13Z</time>
      </trkpt>
      <trkpt lat="45.53257" lon="5.79762">
        <ele>423.1</ele>
        <time>2021-08-23T13:54:14Z</time>
      </trkpt>
      <trkpt lat="45.53256" lon="5.79765">
        <ele>423.3</ele>
        <time>2021-08-23T13:54:15Z</time>
      </trkpt>
      <trkpt lat="45.53256" lon="5.79767">
        <ele>423.5</ele>
        <time>2021-08-23T13:54:17Z</time>
      </trkpt>
      <trkpt lat="45.53255" lon="5.79768">
        <ele>423.7</ele>
        <time>2021-08-23T13:54:18Z</time>
      </trkpt>
      <trkpt lat="45.53249" lon="5.79788">
        <ele>425.6</ele>
        <time>2021-08-23T13:54:27Z</time>
      </trkpt>
      <trkpt lat="45.53248" lon="5.79791">
        <ele>425.9</ele>
        <time>2021-08-23T13:54:28Z</time>
      </trkpt>
      <trkpt lat="45.53248" lon="5.79793">
        <ele>426</ele>
        <time>2021-08-23T13:54:29Z</time>
      </trkpt>
      <trkpt lat="45.53247" lon="5.79797">
        <ele>426.4</ele>
        <time>2021-08-23T13:54:30Z</time>
      </trkpt>
      <trkpt lat="45.53247" lon="5.79802">
        <ele>426.7</ele>
        <time>2021-08-23T13:54:31Z</time>
      </trkpt>
      <trkpt lat="45.53247" lon="5.79803">
        <ele>426.8</ele>
        <time>2021-08-23T13:54:32Z</time>
      </trkpt>
      <trkpt lat="45.53246" lon="5.79808">
        <ele>427.2</ele>
        <time>2021-08-23T13:54:33Z</time>
      </trkpt>
      <trkpt lat="45.53246" lon="5.79811">
        <ele>427.4</ele>
        <time>2021-08-23T13:54:35Z</time>
      </trkpt>
      <trkpt lat="45.53246" lon="5.79813">
        <ele>427.5</ele>
        <time>2021-08-23T13:54:36Z</time>
      </trkpt>
      <trkpt lat="45.53245" lon="5.79818">
        <ele>427.9</ele>
        <time>2021-08-23T13:54:37Z</time>
      </trkpt>
      <trkpt lat="45.53245" lon="5.7982">
        <ele>428</ele>
        <time>2021-08-23T13:54:38Z</time>
      </trkpt>
      <trkpt lat="45.53245" lon="5.79823">
        <ele>428.2</ele>
        <time>2021-08-23T13:54:40Z</time>
      </trkpt>
      <trkpt lat="45.53245" lon="5.79825">
        <ele>428.3</ele>
        <time>2021-08-23T13:54:41Z</time>
      </trkpt>
      <trkpt lat="45.53245" lon="5.79829">
        <ele>428.6</ele>
        <time>2021-08-23T13:54:42Z</time>
      </trkpt>
      <trkpt lat="45.53245" lon="5.79831">
        <ele>428.7</ele>
        <time>2021-08-23T13:54:43Z</time>
      </trkpt>
      <trkpt lat="45.53247" lon="5.79835">
        <ele>428.9</ele>
        <time>2021-08-23T13:54:45Z</time>
      </trkpt>
      <trkpt lat="45.53247" lon="5.79837">
        <ele>429.1</ele>
        <time>2021-08-23T13:54:46Z</time>
      </trkpt>
      <trkpt lat="45.53248" lon="5.79839">
        <ele>429.2</ele>
        <time>2021-08-23T13:54:48Z</time>
      </trkpt>
      <trkpt lat="45.53249" lon="5.79841">
        <ele>429.3</ele>
        <time>2021-08-23T13:54:49Z</time>
      </trkpt>
      <trkpt lat="45.5325" lon="5.79842">
        <ele>429.5</ele>
        <time>2021-08-23T13:54:50Z</time>
      </trkpt>
      <trkpt lat="45.53252" lon="5.79843">
        <ele>429.6</ele>
        <time>2021-08-23T13:54:51Z</time>
      </trkpt>
      <trkpt lat="45.53254" lon="5.79846">
        <ele>429.9</ele>
        <time>2021-08-23T13:54:52Z</time>
      </trkpt>
      <trkpt lat="45.53254" lon="5.79847">
        <ele>429.9</ele>
        <time>2021-08-23T13:54:53Z</time>
      </trkpt>
      <trkpt lat="45.53257" lon="5.7985">
        <ele>430.2</ele>
        <time>2021-08-23T13:54:55Z</time>
      </trkpt>
      <trkpt lat="45.53258" lon="5.79853">
        <ele>430.3</ele>
        <time>2021-08-23T13:54:56Z</time>
      </trkpt>
      <trkpt lat="45.5326" lon="5.79855">
        <ele>430.5</ele>
        <time>2021-08-23T13:54:58Z</time>
      </trkpt>
      <trkpt lat="45.53262" lon="5.79858">
        <ele>430.7</ele>
        <time>2021-08-23T13:54:59Z</time>
      </trkpt>
      <trkpt lat="45.53263" lon="5.79858">
        <ele>430.8</ele>
        <time>2021-08-23T13:55:00Z</time>
      </trkpt>
      <trkpt lat="45.53265" lon="5.79859">
        <ele>430.9</ele>
        <time>2021-08-23T13:55:01Z</time>
      </trkpt>
      <trkpt lat="45.53268" lon="5.7986">
        <ele>431.2</ele>
        <time>2021-08-23T13:55:03Z</time>
      </trkpt>
      <trkpt lat="45.5327" lon="5.79861">
        <ele>431.3</ele>
        <time>2021-08-23T13:55:04Z</time>
      </trkpt>
      <trkpt lat="45.53272" lon="5.79862">
        <ele>431.5</ele>
        <time>2021-08-23T13:55:06Z</time>
      </trkpt>
      <trkpt lat="45.53274" lon="5.79863">
        <ele>431.7</ele>
        <time>2021-08-23T13:55:07Z</time>
      </trkpt>
      <trkpt lat="45.53276" lon="5.79864">
        <ele>431.8</ele>
        <time>2021-08-23T13:55:08Z</time>
      </trkpt>
      <trkpt lat="45.53278" lon="5.79867">
        <ele>432.1</ele>
        <time>2021-08-23T13:55:11Z</time>
      </trkpt>
      <trkpt lat="45.53279" lon="5.79871">
        <ele>432.3</ele>
        <time>2021-08-23T13:55:12Z</time>
      </trkpt>
      <trkpt lat="45.5328" lon="5.79876">
        <ele>432.7</ele>
        <time>2021-08-23T13:55:14Z</time>
      </trkpt>
      <trkpt lat="45.53281" lon="5.7988">
        <ele>433</ele>
        <time>2021-08-23T13:55:16Z</time>
      </trkpt>
      <trkpt lat="45.53281" lon="5.79886">
        <ele>433.5</ele>
        <time>2021-08-23T13:55:18Z</time>
      </trkpt>
      <trkpt lat="45.53283" lon="5.7989">
        <ele>433.9</ele>
        <time>2021-08-23T13:55:19Z</time>
      </trkpt>
      <trkpt lat="45.53283" lon="5.79891">
        <ele>434</ele>
        <time>2021-08-23T13:55:20Z</time>
      </trkpt>
      <trkpt lat="45.53284" lon="5.79895">
        <ele>434.4</ele>
        <time>2021-08-23T13:55:22Z</time>
      </trkpt>
      <trkpt lat="45.53284" lon="5.79897">
        <ele>434.5</ele>
        <time>2021-08-23T13:55:23Z</time>
      </trkpt>
      <trkpt lat="45.53283" lon="5.79898">
        <ele>434.7</ele>
        <time>2021-08-23T13:55:24Z</time>
      </trkpt>
      <trkpt lat="45.53282" lon="5.79899">
        <ele>434.8</ele>
        <time>2021-08-23T13:55:25Z</time>
      </trkpt>
      <trkpt lat="45.53282" lon="5.79899">
        <ele>434.9</ele>
        <time>2021-08-23T13:55:27Z</time>
      </trkpt>
      <trkpt lat="45.53281" lon="5.799">
        <ele>435</ele>
        <time>2021-08-23T13:55:28Z</time>
      </trkpt>
      <trkpt lat="45.53281" lon="5.79901">
        <ele>435.1</ele>
        <time>2021-08-23T13:55:30Z</time>
      </trkpt>
      <trkpt lat="45.5328" lon="5.79902">
        <ele>435.3</ele>
        <time>2021-08-23T13:55:31Z</time>
      </trkpt>
      <trkpt lat="45.5328" lon="5.79903">
        <ele>435.4</ele>
        <time>2021-08-23T13:55:32Z</time>
      </trkpt>
      <trkpt lat="45.53279" lon="5.79904">
        <ele>435.6</ele>
        <time>2021-08-23T13:55:34Z</time>
      </trkpt>
      <trkpt lat="45.53276" lon="5.79933">
        <ele>438.3</ele>
        <time>2021-08-23T13:55:49Z</time>
      </trkpt>
      <trkpt lat="45.53277" lon="5.79938">
        <ele>438.8</ele>
        <time>2021-08-23T13:55:50Z</time>
      </trkpt>
      <trkpt lat="45.53278" lon="5.79942">
        <ele>439.3</ele>
        <time>2021-08-23T13:55:51Z</time>
      </trkpt>
      <trkpt lat="45.53279" lon="5.79945">
        <ele>439.7</ele>
        <time>2021-08-23T13:55:53Z</time>
      </trkpt>
      <trkpt lat="45.53279" lon="5.79947">
        <ele>439.8</ele>
        <time>2021-08-23T13:55:55Z</time>
      </trkpt>
      <trkpt lat="45.5328" lon="5.7995">
        <ele>440.2</ele>
        <time>2021-08-23T13:55:56Z</time>
      </trkpt>
      <trkpt lat="45.5328" lon="5.79951">
        <ele>440.3</ele>
        <time>2021-08-23T13:55:57Z</time>
      </trkpt>
      <trkpt lat="45.5328" lon="5.79955">
        <ele>440.7</ele>
        <time>2021-08-23T13:55:59Z</time>
      </trkpt>
      <trkpt lat="45.5328" lon="5.79958">
        <ele>441</ele>
        <time>2021-08-23T13:56:00Z</time>
      </trkpt>
      <trkpt lat="45.53279" lon="5.79959">
        <ele>441.2</ele>
        <time>2021-08-23T13:56:01Z</time>
      </trkpt>
      <trkpt lat="45.53277" lon="5.79963">
        <ele>441.6</ele>
        <time>2021-08-23T13:56:03Z</time>
      </trkpt>
      <trkpt lat="45.53277" lon="5.79965">
        <ele>441.8</ele>
        <time>2021-08-23T13:56:04Z</time>
      </trkpt>
      <trkpt lat="45.53277" lon="5.79968">
        <ele>442</ele>
        <time>2021-08-23T13:56:06Z</time>
      </trkpt>
      <trkpt lat="45.53276" lon="5.79971">
        <ele>442.3</ele>
        <time>2021-08-23T13:56:07Z</time>
      </trkpt>
      <trkpt lat="45.53276" lon="5.79973">
        <ele>442.5</ele>
        <time>2021-08-23T13:56:09Z</time>
      </trkpt>
      <trkpt lat="45.53276" lon="5.79976">
        <ele>442.7</ele>
        <time>2021-08-23T13:56:10Z</time>
      </trkpt>
      <trkpt lat="45.53275" lon="5.79979">
        <ele>442.9</ele>
        <time>2021-08-23T13:56:16Z</time>
      </trkpt>
      <trkpt lat="45.53275" lon="5.79981">
        <ele>443</ele>
        <time>2021-08-23T13:56:18Z</time>
      </trkpt>
      <trkpt lat="45.53275" lon="5.79984">
        <ele>443.2</ele>
        <time>2021-08-23T13:56:19Z</time>
      </trkpt>
      <trkpt lat="45.53272" lon="5.79987">
        <ele>443.5</ele>
        <time>2021-08-23T13:56:20Z</time>
      </trkpt>
      <trkpt lat="45.53271" lon="5.79988">
        <ele>443.5</ele>
        <time>2021-08-23T13:56:21Z</time>
      </trkpt>
      <trkpt lat="45.53268" lon="5.79991">
        <ele>443.8</ele>
        <time>2021-08-23T13:56:22Z</time>
      </trkpt>
      <trkpt lat="45.53263" lon="5.7999">
        <ele>444.3</ele>
        <time>2021-08-23T13:56:24Z</time>
      </trkpt>
      <trkpt lat="45.53261" lon="5.79989">
        <ele>444.2</ele>
        <time>2021-08-23T13:56:25Z</time>
      </trkpt>
      <trkpt lat="45.5326" lon="5.79988">
        <ele>444.1</ele>
        <time>2021-08-23T13:56:26Z</time>
      </trkpt>
      <trkpt lat="45.53255" lon="5.79985">
        <ele>443.9</ele>
        <time>2021-08-23T13:56:28Z</time>
      </trkpt>
      <trkpt lat="45.53251" lon="5.79983">
        <ele>443.7</ele>
        <time>2021-08-23T13:56:29Z</time>
      </trkpt>
      <trkpt lat="45.53245" lon="5.7998">
        <ele>443.4</ele>
        <time>2021-08-23T13:56:30Z</time>
      </trkpt>
      <trkpt lat="45.53235" lon="5.79976">
        <ele>442.8</ele>
        <time>2021-08-23T13:56:32Z</time>
      </trkpt>
      <trkpt lat="45.53229" lon="5.79973">
        <ele>442.5</ele>
        <time>2021-08-23T13:56:33Z</time>
      </trkpt>
      <trkpt lat="45.53219" lon="5.79971">
        <ele>441.8</ele>
        <time>2021-08-23T13:56:35Z</time>
      </trkpt>
      <trkpt lat="45.53217" lon="5.79969">
        <ele>441.7</ele>
        <time>2021-08-23T13:56:36Z</time>
      </trkpt>
      <trkpt lat="45.53206" lon="5.79966">
        <ele>441</ele>
        <time>2021-08-23T13:56:38Z</time>
      </trkpt>
      <trkpt lat="45.532" lon="5.79963">
        <ele>440.7</ele>
        <time>2021-08-23T13:56:39Z</time>
      </trkpt>
      <trkpt lat="45.53188" lon="5.79959">
        <ele>440.2</ele>
        <time>2021-08-23T13:56:41Z</time>
      </trkpt>
      <trkpt lat="45.53183" lon="5.79957">
        <ele>440</ele>
        <time>2021-08-23T13:56:42Z</time>
      </trkpt>
      <trkpt lat="45.53171" lon="5.79953">
        <ele>439.5</ele>
        <time>2021-08-23T13:56:44Z</time>
      </trkpt>
      <trkpt lat="45.53161" lon="5.79947">
        <ele>439.1</ele>
        <time>2021-08-23T13:56:46Z</time>
      </trkpt>
      <trkpt lat="45.53152" lon="5.79943">
        <ele>438.7</ele>
        <time>2021-08-23T13:56:48Z</time>
      </trkpt>
      <trkpt lat="45.53147" lon="5.79941">
        <ele>438.5</ele>
        <time>2021-08-23T13:56:49Z</time>
      </trkpt>
      <trkpt lat="45.53141" lon="5.79939">
        <ele>438.3</ele>
        <time>2021-08-23T13:56:50Z</time>
      </trkpt>
      <trkpt lat="45.53136" lon="5.79937">
        <ele>438.1</ele>
        <time>2021-08-23T13:56:51Z</time>
      </trkpt>
      <trkpt lat="45.53124" lon="5.79934">
        <ele>437.6</ele>
        <time>2021-08-23T13:56:53Z</time>
      </trkpt>
      <trkpt lat="45.53117" lon="5.79933">
        <ele>437.3</ele>
        <time>2021-08-23T13:56:54Z</time>
      </trkpt>
      <trkpt lat="45.53111" lon="5.79932">
        <ele>437.1</ele>
        <time>2021-08-23T13:56:55Z</time>
      </trkpt>
      <trkpt lat="45.53101" lon="5.79932">
        <ele>436.9</ele>
        <time>2021-08-23T13:56:57Z</time>
      </trkpt>
      <trkpt lat="45.53096" lon="5.79932">
        <ele>436.8</ele>
        <time>2021-08-23T13:56:58Z</time>
      </trkpt>
      <trkpt lat="45.53087" lon="5.79934">
        <ele>436.8</ele>
        <time>2021-08-23T13:57:00Z</time>
      </trkpt>
      <trkpt lat="45.53083" lon="5.79935">
        <ele>436.8</ele>
        <time>2021-08-23T13:57:01Z</time>
      </trkpt>
      <trkpt lat="45.5308" lon="5.79935">
        <ele>436.9</ele>
        <time>2021-08-23T13:57:02Z</time>
      </trkpt>
      <trkpt lat="45.53073" lon="5.79937">
        <ele>437</ele>
        <time>2021-08-23T13:57:04Z</time>
      </trkpt>
      <trkpt lat="45.53071" lon="5.79939">
        <ele>437.1</ele>
        <time>2021-08-23T13:57:05Z</time>
      </trkpt>
      <trkpt lat="45.53066" lon="5.79941">
        <ele>437.3</ele>
        <time>2021-08-23T13:57:07Z</time>
      </trkpt>
      <trkpt lat="45.53063" lon="5.79941">
        <ele>437.6</ele>
        <time>2021-08-23T13:57:08Z</time>
      </trkpt>
      <trkpt lat="45.53061" lon="5.7994">
        <ele>437.7</ele>
        <time>2021-08-23T13:57:09Z</time>
      </trkpt>
      <trkpt lat="45.5306" lon="5.79943">
        <ele>437.8</ele>
        <time>2021-08-23T13:57:11Z</time>
      </trkpt>
      <trkpt lat="45.53059" lon="5.79945">
        <ele>438</ele>
        <time>2021-08-23T13:57:13Z</time>
      </trkpt>
      <trkpt lat="45.53058" lon="5.79946">
        <ele>438.2</ele>
        <time>2021-08-23T13:57:14Z</time>
      </trkpt>
      <trkpt lat="45.53056" lon="5.79947">
        <ele>438.3</ele>
        <time>2021-08-23T13:57:15Z</time>
      </trkpt>
      <trkpt lat="45.53053" lon="5.79947">
        <ele>438.6</ele>
        <time>2021-08-23T13:57:16Z</time>
      </trkpt>
      <trkpt lat="45.53052" lon="5.79946">
        <ele>438.7</ele>
        <time>2021-08-23T13:57:18Z</time>
      </trkpt>
      <trkpt lat="45.53051" lon="5.79946">
        <ele>438.8</ele>
        <time>2021-08-23T13:57:19Z</time>
      </trkpt>
      <trkpt lat="45.53049" lon="5.79946">
        <ele>439</ele>
        <time>2021-08-23T13:57:22Z</time>
      </trkpt>
      <trkpt lat="45.53048" lon="5.79945">
        <ele>439.1</ele>
        <time>2021-08-23T13:57:23Z</time>
      </trkpt>
      <trkpt lat="45.53047" lon="5.79945">
        <ele>439.2</ele>
        <time>2021-08-23T13:57:25Z</time>
      </trkpt>
      <trkpt lat="45.53046" lon="5.79945">
        <ele>439.3</ele>
        <time>2021-08-23T13:57:26Z</time>
      </trkpt>
      <trkpt lat="45.53046" lon="5.79945">
        <ele>439.4</ele>
        <time>2021-08-23T13:57:27Z</time>
      </trkpt>
      <trkpt lat="45.53045" lon="5.79945">
        <ele>439.5</ele>
        <time>2021-08-23T13:57:28Z</time>
      </trkpt>
      <trkpt lat="45.53043" lon="5.79946">
        <ele>439.6</ele>
        <time>2021-08-23T13:57:29Z</time>
      </trkpt>
      <trkpt lat="45.53024" lon="5.79951">
        <ele>442</ele>
        <time>2021-08-23T13:57:43Z</time>
      </trkpt>
      <trkpt lat="45.53019" lon="5.79951">
        <ele>442.6</ele>
        <time>2021-08-23T13:57:45Z</time>
      </trkpt>
      <trkpt lat="45.53017" lon="5.79952">
        <ele>442.8</ele>
        <time>2021-08-23T13:57:46Z</time>
      </trkpt>
      <trkpt lat="45.53016" lon="5.79953">
        <ele>443</ele>
        <time>2021-08-23T13:57:47Z</time>
      </trkpt>
      <trkpt lat="45.53014" lon="5.79954">
        <ele>443.2</ele>
        <time>2021-08-23T13:57:49Z</time>
      </trkpt>
      <trkpt lat="45.53012" lon="5.79954">
        <ele>443.5</ele>
        <time>2021-08-23T13:57:51Z</time>
      </trkpt>
      <trkpt lat="45.53009" lon="5.79954">
        <ele>443.9</ele>
        <time>2021-08-23T13:57:53Z</time>
      </trkpt>
      <trkpt lat="45.53009" lon="5.79954">
        <ele>443.9</ele>
        <time>2021-08-23T13:57:54Z</time>
      </trkpt>
      <trkpt lat="45.53008" lon="5.79953">
        <ele>444</ele>
        <time>2021-08-23T13:57:55Z</time>
      </trkpt>
      <trkpt lat="45.53007" lon="5.79953">
        <ele>444.1</ele>
        <time>2021-08-23T13:57:56Z</time>
      </trkpt>
      <trkpt lat="45.53007" lon="5.79952">
        <ele>444.2</ele>
        <time>2021-08-23T13:57:57Z</time>
      </trkpt>
      <trkpt lat="45.53006" lon="5.79951">
        <ele>444.3</ele>
        <time>2021-08-23T13:57:59Z</time>
      </trkpt>
      <trkpt lat="45.53006" lon="5.79949">
        <ele>444.4</ele>
        <time>2021-08-23T13:58:00Z</time>
      </trkpt>
      <trkpt lat="45.53005" lon="5.79948">
        <ele>444.6</ele>
        <time>2021-08-23T13:58:02Z</time>
      </trkpt>
      <trkpt lat="45.5298" lon="5.79899">
        <ele>450.7</ele>
        <time>2021-08-23T13:58:27Z</time>
      </trkpt>
      <trkpt lat="45.52978" lon="5.79896">
        <ele>451</ele>
        <time>2021-08-23T13:58:29Z</time>
      </trkpt>
      <trkpt lat="45.52975" lon="5.79892">
        <ele>451.4</ele>
        <time>2021-08-23T13:58:30Z</time>
      </trkpt>
      <trkpt lat="45.52972" lon="5.79889">
        <ele>451.8</ele>
        <time>2021-08-23T13:58:31Z</time>
      </trkpt>
      <trkpt lat="45.5297" lon="5.79886">
        <ele>452.1</ele>
        <time>2021-08-23T13:58:32Z</time>
      </trkpt>
      <trkpt lat="45.52966" lon="5.7988">
        <ele>452.6</ele>
        <time>2021-08-23T13:58:34Z</time>
      </trkpt>
      <trkpt lat="45.52964" lon="5.79878">
        <ele>452.8</ele>
        <time>2021-08-23T13:58:35Z</time>
      </trkpt>
      <trkpt lat="45.52963" lon="5.79876">
        <ele>453</ele>
        <time>2021-08-23T13:58:36Z</time>
      </trkpt>
      <trkpt lat="45.52958" lon="5.79875">
        <ele>453.5</ele>
        <time>2021-08-23T13:58:38Z</time>
      </trkpt>
      <trkpt lat="45.52955" lon="5.79874">
        <ele>453.7</ele>
        <time>2021-08-23T13:58:39Z</time>
      </trkpt>
      <trkpt lat="45.52953" lon="5.79872">
        <ele>454</ele>
        <time>2021-08-23T13:58:40Z</time>
      </trkpt>
      <trkpt lat="45.52951" lon="5.7987">
        <ele>454.2</ele>
        <time>2021-08-23T13:58:41Z</time>
      </trkpt>
      <trkpt lat="45.5295" lon="5.7987">
        <ele>454.3</ele>
        <time>2021-08-23T13:58:43Z</time>
      </trkpt>
      <trkpt lat="45.52949" lon="5.79869">
        <ele>454.4</ele>
        <time>2021-08-23T13:58:44Z</time>
      </trkpt>
      <trkpt lat="45.52946" lon="5.79868">
        <ele>454.8</ele>
        <time>2021-08-23T13:58:46Z</time>
      </trkpt>
      <trkpt lat="45.52945" lon="5.79867">
        <ele>454.9</ele>
        <time>2021-08-23T13:58:47Z</time>
      </trkpt>
      <trkpt lat="45.52944" lon="5.79866">
        <ele>455</ele>
        <time>2021-08-23T13:58:48Z</time>
      </trkpt>
      <trkpt lat="45.52943" lon="5.79866">
        <ele>455.1</ele>
        <time>2021-08-23T13:58:49Z</time>
      </trkpt>
      <trkpt lat="45.52942" lon="5.79865">
        <ele>455.2</ele>
        <time>2021-08-23T13:58:50Z</time>
      </trkpt>
      <trkpt lat="45.5294" lon="5.79864">
        <ele>455.4</ele>
        <time>2021-08-23T13:58:51Z</time>
      </trkpt>
      <trkpt lat="45.52937" lon="5.7986">
        <ele>455.8</ele>
        <time>2021-08-23T13:58:52Z</time>
      </trkpt>
      <trkpt lat="45.52937" lon="5.79859">
        <ele>456.3</ele>
        <time>2021-08-23T13:58:53Z</time>
      </trkpt>
      <trkpt lat="45.52935" lon="5.79852">
        <ele>456.5</ele>
        <time>2021-08-23T13:58:55Z</time>
      </trkpt>
      <trkpt lat="45.52933" lon="5.79848">
        <ele>456.7</ele>
        <time>2021-08-23T13:58:56Z</time>
      </trkpt>
      <trkpt lat="45.52932" lon="5.79844">
        <ele>456.9</ele>
        <time>2021-08-23T13:58:57Z</time>
      </trkpt>
      <trkpt lat="45.5293" lon="5.7984">
        <ele>457.1</ele>
        <time>2021-08-23T13:58:58Z</time>
      </trkpt>
      <trkpt lat="45.52929" lon="5.79836">
        <ele>457.3</ele>
        <time>2021-08-23T13:58:59Z</time>
      </trkpt>
      <trkpt lat="45.52928" lon="5.79832">
        <ele>457.5</ele>
        <time>2021-08-23T13:59:00Z</time>
      </trkpt>
      <trkpt lat="45.52926" lon="5.79828">
        <ele>457.7</ele>
        <time>2021-08-23T13:59:02Z</time>
      </trkpt>
      <trkpt lat="45.52925" lon="5.79824">
        <ele>457.9</ele>
        <time>2021-08-23T13:59:04Z</time>
      </trkpt>
      <trkpt lat="45.52923" lon="5.7982">
        <ele>458.2</ele>
        <time>2021-08-23T13:59:05Z</time>
      </trkpt>
      <trkpt lat="45.52922" lon="5.79816">
        <ele>458.4</ele>
        <time>2021-08-23T13:59:07Z</time>
      </trkpt>
      <trkpt lat="45.5292" lon="5.79812">
        <ele>458.6</ele>
        <time>2021-08-23T13:59:40Z</time>
      </trkpt>
      <trkpt lat="45.52919" lon="5.79808">
        <ele>458.9</ele>
        <time>2021-08-23T13:59:41Z</time>
      </trkpt>
      <trkpt lat="45.52917" lon="5.79804">
        <ele>459.1</ele>
        <time>2021-08-23T13:59:42Z</time>
      </trkpt>
      <trkpt lat="45.52915" lon="5.79799">
        <ele>459.4</ele>
        <time>2021-08-23T13:59:44Z</time>
      </trkpt>
      <trkpt lat="45.52914" lon="5.79797">
        <ele>459.6</ele>
        <time>2021-08-23T13:59:45Z</time>
      </trkpt>
      <trkpt lat="45.52913" lon="5.79792">
        <ele>459.7</ele>
        <time>2021-08-23T13:59:46Z</time>
      </trkpt>
      <trkpt lat="45.52912" lon="5.79787">
        <ele>459.9</ele>
        <time>2021-08-23T13:59:47Z</time>
      </trkpt>
      <trkpt lat="45.5291" lon="5.79783">
        <ele>460</ele>
        <time>2021-08-23T13:59:48Z</time>
      </trkpt>
      <trkpt lat="45.52906" lon="5.79778">
        <ele>460.1</ele>
        <time>2021-08-23T13:59:50Z</time>
      </trkpt>
      <trkpt lat="45.52901" lon="5.79775">
        <ele>460</ele>
        <time>2021-08-23T13:59:51Z</time>
      </trkpt>
      <trkpt lat="45.52895" lon="5.79771">
        <ele>459.7</ele>
        <time>2021-08-23T13:59:52Z</time>
      </trkpt>
      <trkpt lat="45.5289" lon="5.79767">
        <ele>459.3</ele>
        <time>2021-08-23T13:59:53Z</time>
      </trkpt>
      <trkpt lat="45.52886" lon="5.79763">
        <ele>458.8</ele>
        <time>2021-08-23T13:59:55Z</time>
      </trkpt>
      <trkpt lat="45.5288" lon="5.79757">
        <ele>458.2</ele>
        <time>2021-08-23T13:59:56Z</time>
      </trkpt>
      <trkpt lat="45.52876" lon="5.79753">
        <ele>457.9</ele>
        <time>2021-08-23T13:59:57Z</time>
      </trkpt>
      <trkpt lat="45.52871" lon="5.79748">
        <ele>457.6</ele>
        <time>2021-08-23T13:59:59Z</time>
      </trkpt>
      <trkpt lat="45.52866" lon="5.79743">
        <ele>457.5</ele>
        <time>2021-08-23T14:00:01Z</time>
      </trkpt>
      <trkpt lat="45.52864" lon="5.79742">
        <ele>457.4</ele>
        <time>2021-08-23T14:00:02Z</time>
      </trkpt>
      <trkpt lat="45.52863" lon="5.79742">
        <ele>457.4</ele>
        <time>2021-08-23T14:00:03Z</time>
      </trkpt>
      <trkpt lat="45.52863" lon="5.79746">
        <ele>457.4</ele>
        <time>2021-08-23T14:00:04Z</time>
      </trkpt>
      <trkpt lat="45.52863" lon="5.79749">
        <ele>457.4</ele>
        <time>2021-08-23T14:00:05Z</time>
      </trkpt>
      <trkpt lat="45.52864" lon="5.79751">
        <ele>457.5</ele>
        <time>2021-08-23T14:00:08Z</time>
      </trkpt>
      <trkpt lat="45.52864" lon="5.79751">
        <ele>457.5</ele>
        <time>2021-08-23T14:00:09Z</time>
      </trkpt>
      <trkpt lat="45.52864" lon="5.7975">
        <ele>457.5</ele>
        <time>2021-08-23T14:00:10Z</time>
      </trkpt>
      <trkpt lat="45.52864" lon="5.7975">
        <ele>457.5</ele>
        <time>2021-08-23T14:00:11Z</time>
      </trkpt>
      <trkpt lat="45.52864" lon="5.7975">
        <ele>457.5</ele>
        <time>2021-08-23T14:00:12Z</time>
      </trkpt>
      <trkpt lat="45.52864" lon="5.7975">
        <ele>457.5</ele>
        <time>2021-08-23T14:00:14Z</time>
      </trkpt>
      <trkpt lat="45.52824" lon="5.79736">
        <ele>462.4</ele>
        <time>2021-08-23T14:01:43Z</time>
      </trkpt>
      <trkpt lat="45.52822" lon="5.79741">
        <ele>462.3</ele>
        <time>2021-08-23T14:01:44Z</time>
      </trkpt>
      <trkpt lat="45.52821" lon="5.79745">
        <ele>462.3</ele>
        <time>2021-08-23T14:01:45Z</time>
      </trkpt>
      <trkpt lat="45.5282" lon="5.7975">
        <ele>462.4</ele>
        <time>2021-08-23T14:01:46Z</time>
      </trkpt>
      <trkpt lat="45.5282" lon="5.79755">
        <ele>462.4</ele>
        <time>2021-08-23T14:01:47Z</time>
      </trkpt>
      <trkpt lat="45.52819" lon="5.7976">
        <ele>462.5</ele>
        <time>2021-08-23T14:01:49Z</time>
      </trkpt>
      <trkpt lat="45.52818" lon="5.79764">
        <ele>462.6</ele>
        <time>2021-08-23T14:01:50Z</time>
      </trkpt>
      <trkpt lat="45.52818" lon="5.79768">
        <ele>462.7</ele>
        <time>2021-08-23T14:01:51Z</time>
      </trkpt>
      <trkpt lat="45.52818" lon="5.79769">
        <ele>462.7</ele>
        <time>2021-08-23T14:01:52Z</time>
      </trkpt>
      <trkpt lat="45.52818" lon="5.79772">
        <ele>462.8</ele>
        <time>2021-08-23T14:01:54Z</time>
      </trkpt>
      <trkpt lat="45.52819" lon="5.79777">
        <ele>462.9</ele>
        <time>2021-08-23T14:01:56Z</time>
      </trkpt>
      <trkpt lat="45.5282" lon="5.79779">
        <ele>463</ele>
        <time>2021-08-23T14:01:57Z</time>
      </trkpt>
      <trkpt lat="45.5282" lon="5.79781">
        <ele>463</ele>
        <time>2021-08-23T14:01:58Z</time>
      </trkpt>
      <trkpt lat="45.5282" lon="5.79786">
        <ele>463.2</ele>
        <time>2021-08-23T14:02:00Z</time>
      </trkpt>
      <trkpt lat="45.5282" lon="5.79788">
        <ele>463.2</ele>
        <time>2021-08-23T14:02:01Z</time>
      </trkpt>
      <trkpt lat="45.5282" lon="5.79791">
        <ele>463.3</ele>
        <time>2021-08-23T14:02:02Z</time>
      </trkpt>
      <trkpt lat="45.5282" lon="5.79795">
        <ele>463.3</ele>
        <time>2021-08-23T14:02:04Z</time>
      </trkpt>
      <trkpt lat="45.52819" lon="5.79799">
        <ele>463.4</ele>
        <time>2021-08-23T14:02:05Z</time>
      </trkpt>
      <trkpt lat="45.52818" lon="5.79801">
        <ele>463.4</ele>
        <time>2021-08-23T14:02:06Z</time>
      </trkpt>
      <trkpt lat="45.52815" lon="5.79806">
        <ele>463.5</ele>
        <time>2021-08-23T14:02:08Z</time>
      </trkpt>
      <trkpt lat="45.52814" lon="5.79808">
        <ele>463.6</ele>
        <time>2021-08-23T14:02:09Z</time>
      </trkpt>
      <trkpt lat="45.52813" lon="5.79812">
        <ele>463.7</ele>
        <time>2021-08-23T14:02:11Z</time>
      </trkpt>
      <trkpt lat="45.52814" lon="5.79817">
        <ele>463.9</ele>
        <time>2021-08-23T14:02:13Z</time>
      </trkpt>
      <trkpt lat="45.52814" lon="5.7982">
        <ele>464</ele>
        <time>2021-08-23T14:02:14Z</time>
      </trkpt>
      <trkpt lat="45.52815" lon="5.79825">
        <ele>464.3</ele>
        <time>2021-08-23T14:02:16Z</time>
      </trkpt>
      <trkpt lat="45.52815" lon="5.79826">
        <ele>464.4</ele>
        <time>2021-08-23T14:02:17Z</time>
      </trkpt>
      <trkpt lat="45.52816" lon="5.79833">
        <ele>464.8</ele>
        <time>2021-08-23T14:02:18Z</time>
      </trkpt>
      <trkpt lat="45.52817" lon="5.79836">
        <ele>465.1</ele>
        <time>2021-08-23T14:02:19Z</time>
      </trkpt>
      <trkpt lat="45.52817" lon="5.79841">
        <ele>465.5</ele>
        <time>2021-08-23T14:02:20Z</time>
      </trkpt>
      <trkpt lat="45.52818" lon="5.79845">
        <ele>465.9</ele>
        <time>2021-08-23T14:02:22Z</time>
      </trkpt>
      <trkpt lat="45.52818" lon="5.79849">
        <ele>466.1</ele>
        <time>2021-08-23T14:02:23Z</time>
      </trkpt>
      <trkpt lat="45.52818" lon="5.79852">
        <ele>466.4</ele>
        <time>2021-08-23T14:02:25Z</time>
      </trkpt>
      <trkpt lat="45.52818" lon="5.79854">
        <ele>466.6</ele>
        <time>2021-08-23T14:02:26Z</time>
      </trkpt>
      <trkpt lat="45.52818" lon="5.79855">
        <ele>466.7</ele>
        <time>2021-08-23T14:02:28Z</time>
      </trkpt>
      <trkpt lat="45.52816" lon="5.79855">
        <ele>466.9</ele>
        <time>2021-08-23T14:02:29Z</time>
      </trkpt>
      <trkpt lat="45.52816" lon="5.79855">
        <ele>466.9</ele>
        <time>2021-08-23T14:02:30Z</time>
      </trkpt>
      <trkpt lat="45.52816" lon="5.79857">
        <ele>467.1</ele>
        <time>2021-08-23T14:02:32Z</time>
      </trkpt>
      <trkpt lat="45.52816" lon="5.7986">
        <ele>467.3</ele>
        <time>2021-08-23T14:02:34Z</time>
      </trkpt>
      <trkpt lat="45.52816" lon="5.79863">
        <ele>467.6</ele>
        <time>2021-08-23T14:02:36Z</time>
      </trkpt>
      <trkpt lat="45.52816" lon="5.79885">
        <ele>469.2</ele>
        <time>2021-08-23T14:02:50Z</time>
      </trkpt>
      <trkpt lat="45.52816" lon="5.79886">
        <ele>469.4</ele>
        <time>2021-08-23T14:02:51Z</time>
      </trkpt>
      <trkpt lat="45.52816" lon="5.79887">
        <ele>469.5</ele>
        <time>2021-08-23T14:02:52Z</time>
      </trkpt>
      <trkpt lat="45.52816" lon="5.79888">
        <ele>469.6</ele>
        <time>2021-08-23T14:02:54Z</time>
      </trkpt>
      <trkpt lat="45.52816" lon="5.7989">
        <ele>469.7</ele>
        <time>2021-08-23T14:02:55Z</time>
      </trkpt>
      <trkpt lat="45.52817" lon="5.79892">
        <ele>469.9</ele>
        <time>2021-08-23T14:02:56Z</time>
      </trkpt>
      <trkpt lat="45.52818" lon="5.79894">
        <ele>470.1</ele>
        <time>2021-08-23T14:02:58Z</time>
      </trkpt>
      <trkpt lat="45.52818" lon="5.79895">
        <ele>470.2</ele>
        <time>2021-08-23T14:02:59Z</time>
      </trkpt>
      <trkpt lat="45.52819" lon="5.79898">
        <ele>470.5</ele>
        <time>2021-08-23T14:03:01Z</time>
      </trkpt>
      <trkpt lat="45.5282" lon="5.799">
        <ele>470.6</ele>
        <time>2021-08-23T14:03:02Z</time>
      </trkpt>
      <trkpt lat="45.5282" lon="5.79901">
        <ele>470.8</ele>
        <time>2021-08-23T14:03:03Z</time>
      </trkpt>
      <trkpt lat="45.5282" lon="5.79905">
        <ele>471.1</ele>
        <time>2021-08-23T14:03:04Z</time>
      </trkpt>
      <trkpt lat="45.5282" lon="5.79906">
        <ele>471.2</ele>
        <time>2021-08-23T14:03:05Z</time>
      </trkpt>
      <trkpt lat="45.52819" lon="5.7991">
        <ele>471.5</ele>
        <time>2021-08-23T14:03:07Z</time>
      </trkpt>
      <trkpt lat="45.52819" lon="5.79911">
        <ele>471.7</ele>
        <time>2021-08-23T14:03:08Z</time>
      </trkpt>
      <trkpt lat="45.52819" lon="5.79912">
        <ele>471.7</ele>
        <time>2021-08-23T14:03:09Z</time>
      </trkpt>
      <trkpt lat="45.52818" lon="5.79913">
        <ele>471.8</ele>
        <time>2021-08-23T14:03:11Z</time>
      </trkpt>
      <trkpt lat="45.52818" lon="5.79915">
        <ele>471.9</ele>
        <time>2021-08-23T14:03:12Z</time>
      </trkpt>
      <trkpt lat="45.52817" lon="5.79919">
        <ele>472.3</ele>
        <time>2021-08-23T14:03:14Z</time>
      </trkpt>
      <trkpt lat="45.52817" lon="5.79921">
        <ele>472.4</ele>
        <time>2021-08-23T14:03:15Z</time>
      </trkpt>
      <trkpt lat="45.52817" lon="5.79922">
        <ele>472.5</ele>
        <time>2021-08-23T14:03:16Z</time>
      </trkpt>
      <trkpt lat="45.52816" lon="5.79923">
        <ele>472.6</ele>
        <time>2021-08-23T14:03:17Z</time>
      </trkpt>
      <trkpt lat="45.52816" lon="5.79924">
        <ele>474.3</ele>
        <time>2021-08-23T14:03:18Z</time>
      </trkpt>
      <trkpt lat="45.52815" lon="5.79925">
        <ele>474.3</ele>
        <time>2021-08-23T14:03:20Z</time>
      </trkpt>
      <trkpt lat="45.52815" lon="5.79926">
        <ele>474.4</ele>
        <time>2021-08-23T14:03:21Z</time>
      </trkpt>
      <trkpt lat="45.52814" lon="5.79927">
        <ele>474.4</ele>
        <time>2021-08-23T14:03:22Z</time>
      </trkpt>
      <trkpt lat="45.52813" lon="5.79929">
        <ele>474.4</ele>
        <time>2021-08-23T14:03:23Z</time>
      </trkpt>
      <trkpt lat="45.52811" lon="5.79933">
        <ele>474.5</ele>
        <time>2021-08-23T14:03:24Z</time>
      </trkpt>
      <trkpt lat="45.52746" lon="5.7994">
        <ele>479.6</ele>
        <time>2021-08-23T14:04:35Z</time>
      </trkpt>
      <trkpt lat="45.52742" lon="5.79938">
        <ele>480.1</ele>
        <time>2021-08-23T14:04:37Z</time>
      </trkpt>
      <trkpt lat="45.52735" lon="5.79937">
        <ele>480.7</ele>
        <time>2021-08-23T14:04:38Z</time>
      </trkpt>
      <trkpt lat="45.52733" lon="5.79934">
        <ele>481</ele>
        <time>2021-08-23T14:04:40Z</time>
      </trkpt>
      <trkpt lat="45.52731" lon="5.79933">
        <ele>481.2</ele>
        <time>2021-08-23T14:04:41Z</time>
      </trkpt>
      <trkpt lat="45.52729" lon="5.79932">
        <ele>481.4</ele>
        <time>2021-08-23T14:04:42Z</time>
      </trkpt>
      <trkpt lat="45.52728" lon="5.79931">
        <ele>481.5</ele>
        <time>2021-08-23T14:04:44Z</time>
      </trkpt>
      <trkpt lat="45.52727" lon="5.79933">
        <ele>481.7</ele>
        <time>2021-08-23T14:04:45Z</time>
      </trkpt>
      <trkpt lat="45.52726" lon="5.79933">
        <ele>481.8</ele>
        <time>2021-08-23T14:04:47Z</time>
      </trkpt>
      <trkpt lat="45.52726" lon="5.79933">
        <ele>481.8</ele>
        <time>2021-08-23T14:04:48Z</time>
      </trkpt>
      <trkpt lat="45.52723" lon="5.79933">
        <ele>482.1</ele>
        <time>2021-08-23T14:04:50Z</time>
      </trkpt>
      <trkpt lat="45.5272" lon="5.79932">
        <ele>482.4</ele>
        <time>2021-08-23T14:04:51Z</time>
      </trkpt>
      <trkpt lat="45.52718" lon="5.7993">
        <ele>482.6</ele>
        <time>2021-08-23T14:04:53Z</time>
      </trkpt>
      <trkpt lat="45.52715" lon="5.79927">
        <ele>483</ele>
        <time>2021-08-23T14:04:55Z</time>
      </trkpt>
      <trkpt lat="45.52714" lon="5.79926">
        <ele>483.1</ele>
        <time>2021-08-23T14:04:57Z</time>
      </trkpt>
      <trkpt lat="45.52712" lon="5.79925">
        <ele>483.3</ele>
        <time>2021-08-23T14:04:58Z</time>
      </trkpt>
      <trkpt lat="45.52711" lon="5.79923">
        <ele>483.4</ele>
        <time>2021-08-23T14:04:59Z</time>
      </trkpt>
      <trkpt lat="45.5271" lon="5.79922">
        <ele>483.5</ele>
        <time>2021-08-23T14:05:00Z</time>
      </trkpt>
      <trkpt lat="45.52709" lon="5.79921">
        <ele>483.7</ele>
        <time>2021-08-23T14:05:02Z</time>
      </trkpt>
      <trkpt lat="45.52708" lon="5.79919">
        <ele>483.8</ele>
        <time>2021-08-23T14:05:04Z</time>
      </trkpt>
      <trkpt lat="45.52707" lon="5.79918">
        <ele>483.9</ele>
        <time>2021-08-23T14:05:05Z</time>
      </trkpt>
      <trkpt lat="45.52706" lon="5.79917">
        <ele>484</ele>
        <time>2021-08-23T14:05:06Z</time>
      </trkpt>
      <trkpt lat="45.52705" lon="5.79915">
        <ele>484.2</ele>
        <time>2021-08-23T14:05:08Z</time>
      </trkpt>
      <trkpt lat="45.52704" lon="5.79913">
        <ele>484.3</ele>
        <time>2021-08-23T14:05:09Z</time>
      </trkpt>
      <trkpt lat="45.52701" lon="5.79911">
        <ele>484.7</ele>
        <time>2021-08-23T14:05:10Z</time>
      </trkpt>
      <trkpt lat="45.52697" lon="5.79909">
        <ele>485</ele>
        <time>2021-08-23T14:05:12Z</time>
      </trkpt>
      <trkpt lat="45.52693" lon="5.79908">
        <ele>485.4</ele>
        <time>2021-08-23T14:05:13Z</time>
      </trkpt>
      <trkpt lat="45.5269" lon="5.79906">
        <ele>485.8</ele>
        <time>2021-08-23T14:05:15Z</time>
      </trkpt>
      <trkpt lat="45.52686" lon="5.79904">
        <ele>486.1</ele>
        <time>2021-08-23T14:05:16Z</time>
      </trkpt>
      <trkpt lat="45.52682" lon="5.79902">
        <ele>486.5</ele>
        <time>2021-08-23T14:05:18Z</time>
      </trkpt>
      <trkpt lat="45.52678" lon="5.79901">
        <ele>486.8</ele>
        <time>2021-08-23T14:05:48Z</time>
      </trkpt>
      <trkpt lat="45.52675" lon="5.79899">
        <ele>487.2</ele>
        <time>2021-08-23T14:05:49Z</time>
      </trkpt>
      <trkpt lat="45.52671" lon="5.79899">
        <ele>487.5</ele>
        <time>2021-08-23T14:05:50Z</time>
      </trkpt>
      <trkpt lat="45.52668" lon="5.79899">
        <ele>487.7</ele>
        <time>2021-08-23T14:05:52Z</time>
      </trkpt>
      <trkpt lat="45.52665" lon="5.79899">
        <ele>488</ele>
        <time>2021-08-23T14:05:53Z</time>
      </trkpt>
      <trkpt lat="45.52663" lon="5.799">
        <ele>488.2</ele>
        <time>2021-08-23T14:05:54Z</time>
      </trkpt>
      <trkpt lat="45.5266" lon="5.79903">
        <ele>488.4</ele>
        <time>2021-08-23T14:05:56Z</time>
      </trkpt>
      <trkpt lat="45.52659" lon="5.79907">
        <ele>488.7</ele>
        <time>2021-08-23T14:05:57Z</time>
      </trkpt>
      <trkpt lat="45.52657" lon="5.79909">
        <ele>488.9</ele>
        <time>2021-08-23T14:05:59Z</time>
      </trkpt>
      <trkpt lat="45.52657" lon="5.79908">
        <ele>488.9</ele>
        <time>2021-08-23T14:06:00Z</time>
      </trkpt>
      <trkpt lat="45.52656" lon="5.79909">
        <ele>489</ele>
        <time>2021-08-23T14:06:02Z</time>
      </trkpt>
      <trkpt lat="45.52656" lon="5.79909">
        <ele>489</ele>
        <time>2021-08-23T14:06:04Z</time>
      </trkpt>
      <trkpt lat="45.52656" lon="5.79908">
        <ele>489</ele>
        <time>2021-08-23T14:06:06Z</time>
      </trkpt>
      <trkpt lat="45.52656" lon="5.79909">
        <ele>489.1</ele>
        <time>2021-08-23T14:06:07Z</time>
      </trkpt>
      <trkpt lat="45.52657" lon="5.79912">
        <ele>489.2</ele>
        <time>2021-08-23T14:06:08Z</time>
      </trkpt>
      <trkpt lat="45.52657" lon="5.79916">
        <ele>489.4</ele>
        <time>2021-08-23T14:06:10Z</time>
      </trkpt>
      <trkpt lat="45.52658" lon="5.7992">
        <ele>489.7</ele>
        <time>2021-08-23T14:06:11Z</time>
      </trkpt>
      <trkpt lat="45.52659" lon="5.79922">
        <ele>489.7</ele>
        <time>2021-08-23T14:06:12Z</time>
      </trkpt>
      <trkpt lat="45.52659" lon="5.79926">
        <ele>490</ele>
        <time>2021-08-23T14:06:13Z</time>
      </trkpt>
      <trkpt lat="45.52661" lon="5.79931">
        <ele>490.2</ele>
        <time>2021-08-23T14:06:14Z</time>
      </trkpt>
      <trkpt lat="45.52663" lon="5.79935">
        <ele>490.4</ele>
        <time>2021-08-23T14:06:16Z</time>
      </trkpt>
      <trkpt lat="45.52665" lon="5.79941">
        <ele>490.7</ele>
        <time>2021-08-23T14:06:18Z</time>
      </trkpt>
      <trkpt lat="45.52667" lon="5.79947">
        <ele>491</ele>
        <time>2021-08-23T14:06:19Z</time>
      </trkpt>
      <trkpt lat="45.52666" lon="5.7995">
        <ele>491.1</ele>
        <time>2021-08-23T14:06:20Z</time>
      </trkpt>
      <trkpt lat="45.52665" lon="5.79954">
        <ele>491.3</ele>
        <time>2021-08-23T14:06:22Z</time>
      </trkpt>
      <trkpt lat="45.52664" lon="5.79953">
        <ele>491.4</ele>
        <time>2021-08-23T14:06:24Z</time>
      </trkpt>
      <trkpt lat="45.52663" lon="5.79953">
        <ele>491.4</ele>
        <time>2021-08-23T14:06:25Z</time>
      </trkpt>
      <trkpt lat="45.52664" lon="5.79953">
        <ele>491.5</ele>
        <time>2021-08-23T14:06:27Z</time>
      </trkpt>
      <trkpt lat="45.52664" lon="5.79953">
        <ele>491.5</ele>
        <time>2021-08-23T14:06:29Z</time>
      </trkpt>
      <trkpt lat="45.52665" lon="5.79953">
        <ele>491.5</ele>
        <time>2021-08-23T14:06:30Z</time>
      </trkpt>
      <trkpt lat="45.52666" lon="5.79954">
        <ele>491.6</ele>
        <time>2021-08-23T14:06:31Z</time>
      </trkpt>
      <trkpt lat="45.52667" lon="5.79954">
        <ele>491.7</ele>
        <time>2021-08-23T14:06:33Z</time>
      </trkpt>
      <trkpt lat="45.52677" lon="5.79966">
        <ele>492.4</ele>
        <time>2021-08-23T14:06:42Z</time>
      </trkpt>
      <trkpt lat="45.52681" lon="5.7997">
        <ele>492.7</ele>
        <time>2021-08-23T14:06:44Z</time>
      </trkpt>
      <trkpt lat="45.52683" lon="5.79974">
        <ele>492.9</ele>
        <time>2021-08-23T14:06:45Z</time>
      </trkpt>
      <trkpt lat="45.52684" lon="5.79976">
        <ele>493</ele>
        <time>2021-08-23T14:06:46Z</time>
      </trkpt>
      <trkpt lat="45.52686" lon="5.79978">
        <ele>493.2</ele>
        <time>2021-08-23T14:06:47Z</time>
      </trkpt>
      <trkpt lat="45.52689" lon="5.79981">
        <ele>493.4</ele>
        <time>2021-08-23T14:06:49Z</time>
      </trkpt>
      <trkpt lat="45.52689" lon="5.79982">
        <ele>493.4</ele>
        <time>2021-08-23T14:06:51Z</time>
      </trkpt>
      <trkpt lat="45.52689" lon="5.79984">
        <ele>493.5</ele>
        <time>2021-08-23T14:06:52Z</time>
      </trkpt>
      <trkpt lat="45.52689" lon="5.79985">
        <ele>493.6</ele>
        <time>2021-08-23T14:06:53Z</time>
      </trkpt>
      <trkpt lat="45.52689" lon="5.79987">
        <ele>493.6</ele>
        <time>2021-08-23T14:06:54Z</time>
      </trkpt>
      <trkpt lat="45.52689" lon="5.79989">
        <ele>493.7</ele>
        <time>2021-08-23T14:06:56Z</time>
      </trkpt>
      <trkpt lat="45.52704" lon="5.8">
        <ele>494.9</ele>
        <time>2021-08-23T14:07:06Z</time>
      </trkpt>
      <trkpt lat="45.52709" lon="5.8">
        <ele>495.2</ele>
        <time>2021-08-23T14:07:08Z</time>
      </trkpt>
      <trkpt lat="45.52712" lon="5.80002">
        <ele>495.5</ele>
        <time>2021-08-23T14:07:10Z</time>
      </trkpt>
      <trkpt lat="45.52712" lon="5.80006">
        <ele>495.7</ele>
        <time>2021-08-23T14:07:11Z</time>
      </trkpt>
      <trkpt lat="45.52712" lon="5.80013">
        <ele>496</ele>
        <time>2021-08-23T14:07:12Z</time>
      </trkpt>
      <trkpt lat="45.52712" lon="5.80015">
        <ele>496.1</ele>
        <time>2021-08-23T14:07:13Z</time>
      </trkpt>
      <trkpt lat="45.52712" lon="5.80017">
        <ele>496.2</ele>
        <time>2021-08-23T14:07:15Z</time>
      </trkpt>
      <trkpt lat="45.52712" lon="5.80019">
        <ele>496.2</ele>
        <time>2021-08-23T14:07:16Z</time>
      </trkpt>
      <trkpt lat="45.52713" lon="5.80021">
        <ele>496.3</ele>
        <time>2021-08-23T14:07:17Z</time>
      </trkpt>
      <trkpt lat="45.52713" lon="5.80023">
        <ele>496.4</ele>
        <time>2021-08-23T14:07:18Z</time>
      </trkpt>
      <trkpt lat="45.52714" lon="5.80024">
        <ele>496.5</ele>
        <time>2021-08-23T14:07:19Z</time>
      </trkpt>
      <trkpt lat="45.52715" lon="5.80026">
        <ele>496.6</ele>
        <time>2021-08-23T14:07:21Z</time>
      </trkpt>
      <trkpt lat="45.52716" lon="5.80026">
        <ele>496.6</ele>
        <time>2021-08-23T14:07:22Z</time>
      </trkpt>
      <trkpt lat="45.52718" lon="5.80028">
        <ele>496.8</ele>
        <time>2021-08-23T14:07:23Z</time>
      </trkpt>
      <trkpt lat="45.52717" lon="5.80032">
        <ele>497</ele>
        <time>2021-08-23T14:07:25Z</time>
      </trkpt>
      <trkpt lat="45.52717" lon="5.80033">
        <ele>497.1</ele>
        <time>2021-08-23T14:07:26Z</time>
      </trkpt>
      <trkpt lat="45.52714" lon="5.80037">
        <ele>497.3</ele>
        <time>2021-08-23T14:07:28Z</time>
      </trkpt>
      <trkpt lat="45.52662" lon="5.80076">
        <ele>501.7</ele>
        <time>2021-08-23T14:08:11Z</time>
      </trkpt>
      <trkpt lat="45.5266" lon="5.80074">
        <ele>501.9</ele>
        <time>2021-08-23T14:08:12Z</time>
      </trkpt>
      <trkpt lat="45.52655" lon="5.8007">
        <ele>502.3</ele>
        <time>2021-08-23T14:08:14Z</time>
      </trkpt>
      <trkpt lat="45.52653" lon="5.80068">
        <ele>502.4</ele>
        <time>2021-08-23T14:08:15Z</time>
      </trkpt>
      <trkpt lat="45.52651" lon="5.80062">
        <ele>502.7</ele>
        <time>2021-08-23T14:08:17Z</time>
      </trkpt>
      <trkpt lat="45.5265" lon="5.80055">
        <ele>503.1</ele>
        <time>2021-08-23T14:08:19Z</time>
      </trkpt>
      <trkpt lat="45.52648" lon="5.80052">
        <ele>503.3</ele>
        <time>2021-08-23T14:08:20Z</time>
      </trkpt>
      <trkpt lat="45.52647" lon="5.80049">
        <ele>503.4</ele>
        <time>2021-08-23T14:08:22Z</time>
      </trkpt>
      <trkpt lat="45.52645" lon="5.80047">
        <ele>503.6</ele>
        <time>2021-08-23T14:08:24Z</time>
      </trkpt>
      <trkpt lat="45.52643" lon="5.80044">
        <ele>503.7</ele>
        <time>2021-08-23T14:08:25Z</time>
      </trkpt>
      <trkpt lat="45.52642" lon="5.80041">
        <ele>503.9</ele>
        <time>2021-08-23T14:08:26Z</time>
      </trkpt>
      <trkpt lat="45.52641" lon="5.80038">
        <ele>504</ele>
        <time>2021-08-23T14:08:27Z</time>
      </trkpt>
      <trkpt lat="45.52641" lon="5.80037">
        <ele>504.1</ele>
        <time>2021-08-23T14:08:29Z</time>
      </trkpt>
      <trkpt lat="45.5264" lon="5.80037">
        <ele>504.2</ele>
        <time>2021-08-23T14:08:30Z</time>
      </trkpt>
      <trkpt lat="45.52639" lon="5.80037">
        <ele>504.2</ele>
        <time>2021-08-23T14:08:32Z</time>
      </trkpt>
      <trkpt lat="45.52638" lon="5.80038">
        <ele>504.3</ele>
        <time>2021-08-23T14:08:33Z</time>
      </trkpt>
      <trkpt lat="45.52636" lon="5.80039">
        <ele>504.3</ele>
        <time>2021-08-23T14:08:35Z</time>
      </trkpt>
      <trkpt lat="45.52617" lon="5.80041">
        <ele>505.5</ele>
        <time>2021-08-23T14:08:47Z</time>
      </trkpt>
      <trkpt lat="45.52615" lon="5.80037">
        <ele>505.8</ele>
        <time>2021-08-23T14:08:48Z</time>
      </trkpt>
      <trkpt lat="45.52611" lon="5.8003">
        <ele>506.1</ele>
        <time>2021-08-23T14:08:49Z</time>
      </trkpt>
      <trkpt lat="45.52608" lon="5.80026">
        <ele>506.4</ele>
        <time>2021-08-23T14:08:50Z</time>
      </trkpt>
      <trkpt lat="45.52603" lon="5.80018">
        <ele>506.9</ele>
        <time>2021-08-23T14:08:52Z</time>
      </trkpt>
      <trkpt lat="45.526" lon="5.80009">
        <ele>507.3</ele>
        <time>2021-08-23T14:08:53Z</time>
      </trkpt>
      <trkpt lat="45.52597" lon="5.80005">
        <ele>507.6</ele>
        <time>2021-08-23T14:08:55Z</time>
      </trkpt>
      <trkpt lat="45.52593" lon="5.80002">
        <ele>507.9</ele>
        <time>2021-08-23T14:08:56Z</time>
      </trkpt>
      <trkpt lat="45.52591" lon="5.80002">
        <ele>507.9</ele>
        <time>2021-08-23T14:08:57Z</time>
      </trkpt>
      <trkpt lat="45.5259" lon="5.80002">
        <ele>508.1</ele>
        <time>2021-08-23T14:08:58Z</time>
      </trkpt>
      <trkpt lat="45.52589" lon="5.80003">
        <ele>508.1</ele>
        <time>2021-08-23T14:08:59Z</time>
      </trkpt>
      <trkpt lat="45.52588" lon="5.80005">
        <ele>508.3</ele>
        <time>2021-08-23T14:09:01Z</time>
      </trkpt>
      <trkpt lat="45.52586" lon="5.80006">
        <ele>508.4</ele>
        <time>2021-08-23T14:09:02Z</time>
      </trkpt>
      <trkpt lat="45.52586" lon="5.80006">
        <ele>508.4</ele>
        <time>2021-08-23T14:09:03Z</time>
      </trkpt>
      <trkpt lat="45.52585" lon="5.80006">
        <ele>508.4</ele>
        <time>2021-08-23T14:09:04Z</time>
      </trkpt>
      <trkpt lat="45.52585" lon="5.80005">
        <ele>508.5</ele>
        <time>2021-08-23T14:09:05Z</time>
      </trkpt>
      <trkpt lat="45.52584" lon="5.80005">
        <ele>508.5</ele>
        <time>2021-08-23T14:09:07Z</time>
      </trkpt>
      <trkpt lat="45.52583" lon="5.80005">
        <ele>508.6</ele>
        <time>2021-08-23T14:09:08Z</time>
      </trkpt>
      <trkpt lat="45.52575" lon="5.79983">
        <ele>509.9</ele>
        <time>2021-08-23T14:09:21Z</time>
      </trkpt>
      <trkpt lat="45.52575" lon="5.79979">
        <ele>510.2</ele>
        <time>2021-08-23T14:09:22Z</time>
      </trkpt>
      <trkpt lat="45.52574" lon="5.79975">
        <ele>510.4</ele>
        <time>2021-08-23T14:09:23Z</time>
      </trkpt>
      <trkpt lat="45.52573" lon="5.79974">
        <ele>510.5</ele>
        <time>2021-08-23T14:09:24Z</time>
      </trkpt>
      <trkpt lat="45.52573" lon="5.79972">
        <ele>510.6</ele>
        <time>2021-08-23T14:09:25Z</time>
      </trkpt>
      <trkpt lat="45.52572" lon="5.79968">
        <ele>510.8</ele>
        <time>2021-08-23T14:09:26Z</time>
      </trkpt>
      <trkpt lat="45.52571" lon="5.79962">
        <ele>511.1</ele>
        <time>2021-08-23T14:09:27Z</time>
      </trkpt>
      <trkpt lat="45.5257" lon="5.7996">
        <ele>511.2</ele>
        <time>2021-08-23T14:09:28Z</time>
      </trkpt>
      <trkpt lat="45.52569" lon="5.79958">
        <ele>511.4</ele>
        <time>2021-08-23T14:09:29Z</time>
      </trkpt>
      <trkpt lat="45.52568" lon="5.79955">
        <ele>511.6</ele>
        <time>2021-08-23T14:09:31Z</time>
      </trkpt>
      <trkpt lat="45.52565" lon="5.79952">
        <ele>511.9</ele>
        <time>2021-08-23T14:09:32Z</time>
      </trkpt>
      <trkpt lat="45.52565" lon="5.7995">
        <ele>512</ele>
        <time>2021-08-23T14:09:33Z</time>
      </trkpt>
      <trkpt lat="45.52562" lon="5.79948">
        <ele>512.3</ele>
        <time>2021-08-23T14:09:34Z</time>
      </trkpt>
      <trkpt lat="45.52561" lon="5.79948">
        <ele>512.3</ele>
        <time>2021-08-23T14:09:35Z</time>
      </trkpt>
      <trkpt lat="45.52557" lon="5.79946">
        <ele>512.6</ele>
        <time>2021-08-23T14:09:37Z</time>
      </trkpt>
      <trkpt lat="45.52554" lon="5.79945">
        <ele>512.8</ele>
        <time>2021-08-23T14:09:39Z</time>
      </trkpt>
      <trkpt lat="45.52553" lon="5.79946">
        <ele>512.9</ele>
        <time>2021-08-23T14:09:40Z</time>
      </trkpt>
      <trkpt lat="45.52552" lon="5.79947">
        <ele>513</ele>
        <time>2021-08-23T14:09:42Z</time>
      </trkpt>
      <trkpt lat="45.52551" lon="5.79947">
        <ele>513.1</ele>
        <time>2021-08-23T14:09:44Z</time>
      </trkpt>
      <trkpt lat="45.52549" lon="5.79946">
        <ele>513.3</ele>
        <time>2021-08-23T14:09:46Z</time>
      </trkpt>
      <trkpt lat="45.52547" lon="5.79943">
        <ele>513.5</ele>
        <time>2021-08-23T14:09:48Z</time>
      </trkpt>
      <trkpt lat="45.52545" lon="5.79941">
        <ele>513.7</ele>
        <time>2021-08-23T14:09:49Z</time>
      </trkpt>
      <trkpt lat="45.52544" lon="5.7994">
        <ele>513.8</ele>
        <time>2021-08-23T14:09:50Z</time>
      </trkpt>
      <trkpt lat="45.52542" lon="5.79937">
        <ele>514</ele>
        <time>2021-08-23T14:09:51Z</time>
      </trkpt>
      <trkpt lat="45.52538" lon="5.79934">
        <ele>514.4</ele>
        <time>2021-08-23T14:09:52Z</time>
      </trkpt>
      <trkpt lat="45.52536" lon="5.79934">
        <ele>514.6</ele>
        <time>2021-08-23T14:09:53Z</time>
      </trkpt>
      <trkpt lat="45.52532" lon="5.79934">
        <ele>514.9</ele>
        <time>2021-08-23T14:09:54Z</time>
      </trkpt>
      <trkpt lat="45.5253" lon="5.79934">
        <ele>515.1</ele>
        <time>2021-08-23T14:09:55Z</time>
      </trkpt>
      <trkpt lat="45.52528" lon="5.79936">
        <ele>515.3</ele>
        <time>2021-08-23T14:09:56Z</time>
      </trkpt>
      <trkpt lat="45.52527" lon="5.79937">
        <ele>515.4</ele>
        <time>2021-08-23T14:09:57Z</time>
      </trkpt>
      <trkpt lat="45.52525" lon="5.79938">
        <ele>515.6</ele>
        <time>2021-08-23T14:09:58Z</time>
      </trkpt>
      <trkpt lat="45.52524" lon="5.79938">
        <ele>515.7</ele>
        <time>2021-08-23T14:09:59Z</time>
      </trkpt>
      <trkpt lat="45.52522" lon="5.79938">
        <ele>515.8</ele>
        <time>2021-08-23T14:10:00Z</time>
      </trkpt>
      <trkpt lat="45.5252" lon="5.79938">
        <ele>515.9</ele>
        <time>2021-08-23T14:10:01Z</time>
      </trkpt>
      <trkpt lat="45.52517" lon="5.79938">
        <ele>516.2</ele>
        <time>2021-08-23T14:10:03Z</time>
      </trkpt>
      <trkpt lat="45.52516" lon="5.79938">
        <ele>516.3</ele>
        <time>2021-08-23T14:10:04Z</time>
      </trkpt>
      <trkpt lat="45.52513" lon="5.79939">
        <ele>516.5</ele>
        <time>2021-08-23T14:10:05Z</time>
      </trkpt>
      <trkpt lat="45.52512" lon="5.7994">
        <ele>516.7</ele>
        <time>2021-08-23T14:10:07Z</time>
      </trkpt>
      <trkpt lat="45.52509" lon="5.7994">
        <ele>516.9</ele>
        <time>2021-08-23T14:10:09Z</time>
      </trkpt>
      <trkpt lat="45.52505" lon="5.7994">
        <ele>517.2</ele>
        <time>2021-08-23T14:10:11Z</time>
      </trkpt>
      <trkpt lat="45.52504" lon="5.7994">
        <ele>517.3</ele>
        <time>2021-08-23T14:10:12Z</time>
      </trkpt>
      <trkpt lat="45.52502" lon="5.7994">
        <ele>517.5</ele>
        <time>2021-08-23T14:10:14Z</time>
      </trkpt>
      <trkpt lat="45.52502" lon="5.7994">
        <ele>517.5</ele>
        <time>2021-08-23T14:10:15Z</time>
      </trkpt>
      <trkpt lat="45.52499" lon="5.7994">
        <ele>517.8</ele>
        <time>2021-08-23T14:10:17Z</time>
      </trkpt>
      <trkpt lat="45.52497" lon="5.7994">
        <ele>517.9</ele>
        <time>2021-08-23T14:10:18Z</time>
      </trkpt>
      <trkpt lat="45.52495" lon="5.79941">
        <ele>518.1</ele>
        <time>2021-08-23T14:10:19Z</time>
      </trkpt>
      <trkpt lat="45.52493" lon="5.7994">
        <ele>518.3</ele>
        <time>2021-08-23T14:10:21Z</time>
      </trkpt>
      <trkpt lat="45.52492" lon="5.7994">
        <ele>518.4</ele>
        <time>2021-08-23T14:10:22Z</time>
      </trkpt>
      <trkpt lat="45.52488" lon="5.79938">
        <ele>518.8</ele>
        <time>2021-08-23T14:10:23Z</time>
      </trkpt>
      <trkpt lat="45.52487" lon="5.79939">
        <ele>518.9</ele>
        <time>2021-08-23T14:10:24Z</time>
      </trkpt>
      <trkpt lat="45.52486" lon="5.79939">
        <ele>518.9</ele>
        <time>2021-08-23T14:10:25Z</time>
      </trkpt>
      <trkpt lat="45.52486" lon="5.79939">
        <ele>518.9</ele>
        <time>2021-08-23T14:10:26Z</time>
      </trkpt>
      <trkpt lat="45.52486" lon="5.79939">
        <ele>519</ele>
        <time>2021-08-23T14:10:27Z</time>
      </trkpt>
      <trkpt lat="45.52485" lon="5.79939">
        <ele>519</ele>
        <time>2021-08-23T14:10:28Z</time>
      </trkpt>
      <trkpt lat="45.52483" lon="5.79939">
        <ele>519.2</ele>
        <time>2021-08-23T14:10:29Z</time>
      </trkpt>
      <trkpt lat="45.52482" lon="5.79939">
        <ele>519.3</ele>
        <time>2021-08-23T14:10:31Z</time>
      </trkpt>
      <trkpt lat="45.52482" lon="5.79939">
        <ele>519.3</ele>
        <time>2021-08-23T14:10:32Z</time>
      </trkpt>
      <trkpt lat="45.52481" lon="5.7994">
        <ele>519.4</ele>
        <time>2021-08-23T14:10:34Z</time>
      </trkpt>
      <trkpt lat="45.52481" lon="5.7994">
        <ele>519.4</ele>
        <time>2021-08-23T14:10:35Z</time>
      </trkpt>
      <trkpt lat="45.5248" lon="5.79941">
        <ele>519.5</ele>
        <time>2021-08-23T14:10:36Z</time>
      </trkpt>
      <trkpt lat="45.5248" lon="5.79942">
        <ele>519.6</ele>
        <time>2021-08-23T14:10:37Z</time>
      </trkpt>
      <trkpt lat="45.52479" lon="5.79943">
        <ele>519.6</ele>
        <time>2021-08-23T14:10:39Z</time>
      </trkpt>
      <trkpt lat="45.52464" lon="5.7996">
        <ele>521.3</ele>
        <time>2021-08-23T14:10:51Z</time>
      </trkpt>
      <trkpt lat="45.52458" lon="5.79964">
        <ele>521.9</ele>
        <time>2021-08-23T14:10:53Z</time>
      </trkpt>
      <trkpt lat="45.52456" lon="5.79966">
        <ele>522.1</ele>
        <time>2021-08-23T14:10:54Z</time>
      </trkpt>
      <trkpt lat="45.52454" lon="5.79967">
        <ele>522.3</ele>
        <time>2021-08-23T14:10:56Z</time>
      </trkpt>
      <trkpt lat="45.52452" lon="5.79968">
        <ele>522.4</ele>
        <time>2021-08-23T14:10:58Z</time>
      </trkpt>
      <trkpt lat="45.52451" lon="5.79969">
        <ele>522.5</ele>
        <time>2021-08-23T14:10:59Z</time>
      </trkpt>
      <trkpt lat="45.5245" lon="5.79969">
        <ele>522.5</ele>
        <time>2021-08-23T14:11:00Z</time>
      </trkpt>
      <trkpt lat="45.5245" lon="5.79969">
        <ele>522.6</ele>
        <time>2021-08-23T14:11:02Z</time>
      </trkpt>
      <trkpt lat="45.52448" lon="5.7997">
        <ele>522.8</ele>
        <time>2021-08-23T14:11:03Z</time>
      </trkpt>
      <trkpt lat="45.524" lon="5.79859">
        <ele>530.3</ele>
        <time>2021-08-23T14:14:15Z</time>
      </trkpt>
      <trkpt lat="45.52399" lon="5.79854">
        <ele>530.6</ele>
        <time>2021-08-23T14:14:16Z</time>
      </trkpt>
      <trkpt lat="45.52398" lon="5.79849">
        <ele>530.9</ele>
        <time>2021-08-23T14:14:18Z</time>
      </trkpt>
      <trkpt lat="45.52398" lon="5.79845">
        <ele>531.1</ele>
        <time>2021-08-23T14:14:19Z</time>
      </trkpt>
      <trkpt lat="45.52397" lon="5.7984">
        <ele>531.5</ele>
        <time>2021-08-23T14:14:20Z</time>
      </trkpt>
      <trkpt lat="45.52395" lon="5.79836">
        <ele>531.7</ele>
        <time>2021-08-23T14:14:22Z</time>
      </trkpt>
      <trkpt lat="45.52394" lon="5.79834">
        <ele>531.9</ele>
        <time>2021-08-23T14:14:23Z</time>
      </trkpt>
      <trkpt lat="45.52392" lon="5.79829">
        <ele>532.2</ele>
        <time>2021-08-23T14:14:25Z</time>
      </trkpt>
      <trkpt lat="45.5239" lon="5.79828">
        <ele>532.4</ele>
        <time>2021-08-23T14:14:26Z</time>
      </trkpt>
      <trkpt lat="45.52387" lon="5.79825">
        <ele>532.7</ele>
        <time>2021-08-23T14:14:28Z</time>
      </trkpt>
      <trkpt lat="45.52386" lon="5.79824">
        <ele>532.8</ele>
        <time>2021-08-23T14:14:29Z</time>
      </trkpt>
      <trkpt lat="45.52387" lon="5.79821">
        <ele>533</ele>
        <time>2021-08-23T14:14:30Z</time>
      </trkpt>
      <trkpt lat="45.52388" lon="5.79818">
        <ele>533.2</ele>
        <time>2021-08-23T14:14:32Z</time>
      </trkpt>
      <trkpt lat="45.52387" lon="5.79815">
        <ele>533.4</ele>
        <time>2021-08-23T14:14:34Z</time>
      </trkpt>
      <trkpt lat="45.52386" lon="5.79813">
        <ele>533.5</ele>
        <time>2021-08-23T14:14:35Z</time>
      </trkpt>
      <trkpt lat="45.52384" lon="5.79813">
        <ele>533.7</ele>
        <time>2021-08-23T14:14:37Z</time>
      </trkpt>
      <trkpt lat="45.52383" lon="5.79812">
        <ele>533.8</ele>
        <time>2021-08-23T14:14:38Z</time>
      </trkpt>
      <trkpt lat="45.52384" lon="5.79812">
        <ele>533.9</ele>
        <time>2021-08-23T14:14:39Z</time>
      </trkpt>
      <trkpt lat="45.52385" lon="5.79813">
        <ele>534</ele>
        <time>2021-08-23T14:14:41Z</time>
      </trkpt>
      <trkpt lat="45.52385" lon="5.79812">
        <ele>534</ele>
        <time>2021-08-23T14:14:42Z</time>
      </trkpt>
      <trkpt lat="45.52383" lon="5.7981">
        <ele>534.2</ele>
        <time>2021-08-23T14:14:43Z</time>
      </trkpt>
      <trkpt lat="45.52381" lon="5.79806">
        <ele>534.5</ele>
        <time>2021-08-23T14:14:45Z</time>
      </trkpt>
      <trkpt lat="45.52379" lon="5.79804">
        <ele>534.7</ele>
        <time>2021-08-23T14:14:46Z</time>
      </trkpt>
      <trkpt lat="45.52378" lon="5.79803">
        <ele>534.8</ele>
        <time>2021-08-23T14:14:47Z</time>
      </trkpt>
      <trkpt lat="45.52378" lon="5.79802">
        <ele>534.9</ele>
        <time>2021-08-23T14:14:48Z</time>
      </trkpt>
      <trkpt lat="45.52378" lon="5.79801">
        <ele>534.9</ele>
        <time>2021-08-23T14:14:50Z</time>
      </trkpt>
      <trkpt lat="45.52377" lon="5.798">
        <ele>535</ele>
        <time>2021-08-23T14:14:51Z</time>
      </trkpt>
      <trkpt lat="45.52377" lon="5.79798">
        <ele>535.1</ele>
        <time>2021-08-23T14:14:53Z</time>
      </trkpt>
      <trkpt lat="45.52377" lon="5.79798">
        <ele>535.1</ele>
        <time>2021-08-23T14:14:54Z</time>
      </trkpt>
      <trkpt lat="45.52377" lon="5.79798">
        <ele>535.1</ele>
        <time>2021-08-23T14:14:55Z</time>
      </trkpt>
      <trkpt lat="45.52377" lon="5.79797">
        <ele>535.2</ele>
        <time>2021-08-23T14:14:56Z</time>
      </trkpt>
      <trkpt lat="45.52375" lon="5.79794">
        <ele>535.4</ele>
        <time>2021-08-23T14:14:58Z</time>
      </trkpt>
      <trkpt lat="45.52373" lon="5.7979">
        <ele>535.6</ele>
        <time>2021-08-23T14:14:59Z</time>
      </trkpt>
      <trkpt lat="45.52371" lon="5.79785">
        <ele>536</ele>
        <time>2021-08-23T14:15:01Z</time>
      </trkpt>
      <trkpt lat="45.5237" lon="5.79783">
        <ele>536.1</ele>
        <time>2021-08-23T14:15:02Z</time>
      </trkpt>
      <trkpt lat="45.52369" lon="5.79781">
        <ele>536.2</ele>
        <time>2021-08-23T14:15:03Z</time>
      </trkpt>
      <trkpt lat="45.52367" lon="5.79779">
        <ele>536.4</ele>
        <time>2021-08-23T14:15:04Z</time>
      </trkpt>
      <trkpt lat="45.52366" lon="5.79773">
        <ele>536.7</ele>
        <time>2021-08-23T14:15:06Z</time>
      </trkpt>
      <trkpt lat="45.52365" lon="5.79767">
        <ele>537</ele>
        <time>2021-08-23T14:15:08Z</time>
      </trkpt>
      <trkpt lat="45.52364" lon="5.79762">
        <ele>537.2</ele>
        <time>2021-08-23T14:15:10Z</time>
      </trkpt>
      <trkpt lat="45.52363" lon="5.79758">
        <ele>537.4</ele>
        <time>2021-08-23T14:15:12Z</time>
      </trkpt>
      <trkpt lat="45.52362" lon="5.79757">
        <ele>537.5</ele>
        <time>2021-08-23T14:15:13Z</time>
      </trkpt>
      <trkpt lat="45.52361" lon="5.79754">
        <ele>537.7</ele>
        <time>2021-08-23T14:15:15Z</time>
      </trkpt>
      <trkpt lat="45.5236" lon="5.79753">
        <ele>537.7</ele>
        <time>2021-08-23T14:15:16Z</time>
      </trkpt>
      <trkpt lat="45.52359" lon="5.79753">
        <ele>537.8</ele>
        <time>2021-08-23T14:15:17Z</time>
      </trkpt>
      <trkpt lat="45.52357" lon="5.79752">
        <ele>537.9</ele>
        <time>2021-08-23T14:15:18Z</time>
      </trkpt>
      <trkpt lat="45.52356" lon="5.79751">
        <ele>538</ele>
        <time>2021-08-23T14:15:19Z</time>
      </trkpt>
      <trkpt lat="45.52355" lon="5.7975">
        <ele>538.1</ele>
        <time>2021-08-23T14:15:20Z</time>
      </trkpt>
      <trkpt lat="45.52352" lon="5.79751">
        <ele>538.3</ele>
        <time>2021-08-23T14:15:21Z</time>
      </trkpt>
      <trkpt lat="45.52351" lon="5.79751">
        <ele>538.4</ele>
        <time>2021-08-23T14:15:23Z</time>
      </trkpt>
      <trkpt lat="45.52351" lon="5.79752">
        <ele>538.4</ele>
        <time>2021-08-23T14:15:24Z</time>
      </trkpt>
      <trkpt lat="45.5235" lon="5.79753">
        <ele>538.5</ele>
        <time>2021-08-23T14:15:26Z</time>
      </trkpt>
      <trkpt lat="45.52349" lon="5.79754">
        <ele>538.5</ele>
        <time>2021-08-23T14:15:27Z</time>
      </trkpt>
      <trkpt lat="45.52349" lon="5.79756">
        <ele>538.6</ele>
        <time>2021-08-23T14:15:28Z</time>
      </trkpt>
      <trkpt lat="45.52349" lon="5.79759">
        <ele>538.8</ele>
        <time>2021-08-23T14:15:30Z</time>
      </trkpt>
      <trkpt lat="45.5235" lon="5.79761">
        <ele>538.9</ele>
        <time>2021-08-23T14:15:32Z</time>
      </trkpt>
      <trkpt lat="45.52354" lon="5.79768">
        <ele>539.2</ele>
        <time>2021-08-23T14:15:34Z</time>
      </trkpt>
      <trkpt lat="45.52356" lon="5.7977">
        <ele>539.4</ele>
        <time>2021-08-23T14:15:35Z</time>
      </trkpt>
      <trkpt lat="45.5236" lon="5.79773">
        <ele>539.1</ele>
        <time>2021-08-23T14:15:37Z</time>
      </trkpt>
      <trkpt lat="45.52361" lon="5.79778">
        <ele>539.2</ele>
        <time>2021-08-23T14:15:39Z</time>
      </trkpt>
      <trkpt lat="45.5236" lon="5.79787">
        <ele>540.9</ele>
        <time>2021-08-23T14:15:42Z</time>
      </trkpt>
      <trkpt lat="45.5236" lon="5.79789">
        <ele>541.5</ele>
        <time>2021-08-23T14:15:43Z</time>
      </trkpt>
      <trkpt lat="45.5236" lon="5.79791">
        <ele>542.2</ele>
        <time>2021-08-23T14:15:44Z</time>
      </trkpt>
      <trkpt lat="45.5236" lon="5.79793">
        <ele>542.7</ele>
        <time>2021-08-23T14:15:45Z</time>
      </trkpt>
      <trkpt lat="45.52359" lon="5.79796">
        <ele>543.4</ele>
        <time>2021-08-23T14:15:47Z</time>
      </trkpt>
      <trkpt lat="45.52359" lon="5.79798">
        <ele>544</ele>
        <time>2021-08-23T14:15:48Z</time>
      </trkpt>
      <trkpt lat="45.5236" lon="5.798">
        <ele>544.7</ele>
        <time>2021-08-23T14:15:49Z</time>
      </trkpt>
      <trkpt lat="45.5236" lon="5.79803">
        <ele>544.9</ele>
        <time>2021-08-23T14:15:50Z</time>
      </trkpt>
      <trkpt lat="45.5236" lon="5.79805">
        <ele>545</ele>
        <time>2021-08-23T14:15:51Z</time>
      </trkpt>
      <trkpt lat="45.52361" lon="5.79811">
        <ele>545.3</ele>
        <time>2021-08-23T14:15:53Z</time>
      </trkpt>
      <trkpt lat="45.52361" lon="5.79813">
        <ele>545.4</ele>
        <time>2021-08-23T14:15:54Z</time>
      </trkpt>
      <trkpt lat="45.52361" lon="5.79815">
        <ele>545.5</ele>
        <time>2021-08-23T14:15:55Z</time>
      </trkpt>
      <trkpt lat="45.52362" lon="5.79817">
        <ele>545.7</ele>
        <time>2021-08-23T14:15:57Z</time>
      </trkpt>
      <trkpt lat="45.52363" lon="5.79822">
        <ele>546</ele>
        <time>2021-08-23T14:15:59Z</time>
      </trkpt>
      <trkpt lat="45.52365" lon="5.79827">
        <ele>546.2</ele>
        <time>2021-08-23T14:16:00Z</time>
      </trkpt>
      <trkpt lat="45.52365" lon="5.79829">
        <ele>546.4</ele>
        <time>2021-08-23T14:16:01Z</time>
      </trkpt>
      <trkpt lat="45.52364" lon="5.79834">
        <ele>546.7</ele>
        <time>2021-08-23T14:16:03Z</time>
      </trkpt>
      <trkpt lat="45.52365" lon="5.7984">
        <ele>547</ele>
        <time>2021-08-23T14:16:05Z</time>
      </trkpt>
      <trkpt lat="45.52367" lon="5.79845">
        <ele>547.3</ele>
        <time>2021-08-23T14:16:07Z</time>
      </trkpt>
      <trkpt lat="45.52368" lon="5.79847">
        <ele>547.4</ele>
        <time>2021-08-23T14:16:08Z</time>
      </trkpt>
      <trkpt lat="45.52368" lon="5.79851">
        <ele>547.7</ele>
        <time>2021-08-23T14:16:10Z</time>
      </trkpt>
      <trkpt lat="45.52369" lon="5.79854">
        <ele>547.9</ele>
        <time>2021-08-23T14:16:11Z</time>
      </trkpt>
      <trkpt lat="45.5237" lon="5.79857">
        <ele>548</ele>
        <time>2021-08-23T14:16:13Z</time>
      </trkpt>
      <trkpt lat="45.52371" lon="5.79861">
        <ele>548.2</ele>
        <time>2021-08-23T14:16:14Z</time>
      </trkpt>
      <trkpt lat="45.52371" lon="5.79864">
        <ele>548.4</ele>
        <time>2021-08-23T14:16:16Z</time>
      </trkpt>
      <trkpt lat="45.52371" lon="5.79867">
        <ele>548.5</ele>
        <time>2021-08-23T14:16:18Z</time>
      </trkpt>
      <trkpt lat="45.52371" lon="5.79868">
        <ele>548.6</ele>
        <time>2021-08-23T14:16:19Z</time>
      </trkpt>
      <trkpt lat="45.52371" lon="5.79869">
        <ele>548.7</ele>
        <time>2021-08-23T14:16:20Z</time>
      </trkpt>
      <trkpt lat="45.5237" lon="5.7987">
        <ele>548.7</ele>
        <time>2021-08-23T14:16:22Z</time>
      </trkpt>
      <trkpt lat="45.5237" lon="5.79873">
        <ele>548.9</ele>
        <time>2021-08-23T14:16:23Z</time>
      </trkpt>
      <trkpt lat="45.5237" lon="5.79878">
        <ele>549.1</ele>
        <time>2021-08-23T14:16:25Z</time>
      </trkpt>
      <trkpt lat="45.52369" lon="5.79884">
        <ele>549.5</ele>
        <time>2021-08-23T14:16:26Z</time>
      </trkpt>
      <trkpt lat="45.52365" lon="5.79888">
        <ele>549.8</ele>
        <time>2021-08-23T14:16:28Z</time>
      </trkpt>
      <trkpt lat="45.52364" lon="5.79888">
        <ele>549.9</ele>
        <time>2021-08-23T14:16:29Z</time>
      </trkpt>
      <trkpt lat="45.52363" lon="5.79889">
        <ele>550</ele>
        <time>2021-08-23T14:16:30Z</time>
      </trkpt>
      <trkpt lat="45.52359" lon="5.79888">
        <ele>550.4</ele>
        <time>2021-08-23T14:16:31Z</time>
      </trkpt>
      <trkpt lat="45.52357" lon="5.79887">
        <ele>550.6</ele>
        <time>2021-08-23T14:16:32Z</time>
      </trkpt>
      <trkpt lat="45.52354" lon="5.79884">
        <ele>550.9</ele>
        <time>2021-08-23T14:16:33Z</time>
      </trkpt>
      <trkpt lat="45.52351" lon="5.79879">
        <ele>551.2</ele>
        <time>2021-08-23T14:16:35Z</time>
      </trkpt>
      <trkpt lat="45.52349" lon="5.79871">
        <ele>551.6</ele>
        <time>2021-08-23T14:16:36Z</time>
      </trkpt>
      <trkpt lat="45.52349" lon="5.79865">
        <ele>551.9</ele>
        <time>2021-08-23T14:16:38Z</time>
      </trkpt>
      <trkpt lat="45.52349" lon="5.79863">
        <ele>552</ele>
        <time>2021-08-23T14:16:39Z</time>
      </trkpt>
      <trkpt lat="45.5235" lon="5.79861">
        <ele>552.1</ele>
        <time>2021-08-23T14:16:40Z</time>
      </trkpt>
      <trkpt lat="45.52349" lon="5.79859">
        <ele>552.3</ele>
        <time>2021-08-23T14:16:41Z</time>
      </trkpt>
      <trkpt lat="45.52348" lon="5.79857">
        <ele>552.4</ele>
        <time>2021-08-23T14:16:42Z</time>
      </trkpt>
      <trkpt lat="45.52346" lon="5.79853">
        <ele>552.6</ele>
        <time>2021-08-23T14:16:43Z</time>
      </trkpt>
      <trkpt lat="45.52344" lon="5.79851">
        <ele>552.9</ele>
        <time>2021-08-23T14:16:45Z</time>
      </trkpt>
      <trkpt lat="45.52341" lon="5.79851">
        <ele>553.1</ele>
        <time>2021-08-23T14:16:46Z</time>
      </trkpt>
      <trkpt lat="45.5234" lon="5.79851">
        <ele>553.2</ele>
        <time>2021-08-23T14:16:48Z</time>
      </trkpt>
      <trkpt lat="45.52337" lon="5.79849">
        <ele>553.4</ele>
        <time>2021-08-23T14:16:49Z</time>
      </trkpt>
      <trkpt lat="45.52336" lon="5.79848">
        <ele>553.5</ele>
        <time>2021-08-23T14:16:50Z</time>
      </trkpt>
      <trkpt lat="45.52334" lon="5.79846">
        <ele>553.7</ele>
        <time>2021-08-23T14:16:52Z</time>
      </trkpt>
      <trkpt lat="45.52333" lon="5.79845">
        <ele>553.8</ele>
        <time>2021-08-23T14:16:53Z</time>
      </trkpt>
      <trkpt lat="45.52331" lon="5.79842">
        <ele>554</ele>
        <time>2021-08-23T14:16:54Z</time>
      </trkpt>
      <trkpt lat="45.5233" lon="5.7984">
        <ele>554.1</ele>
        <time>2021-08-23T14:16:55Z</time>
      </trkpt>
      <trkpt lat="45.52329" lon="5.79837">
        <ele>554.3</ele>
        <time>2021-08-23T14:16:57Z</time>
      </trkpt>
      <trkpt lat="45.52328" lon="5.79837">
        <ele>554.4</ele>
        <time>2021-08-23T14:16:58Z</time>
      </trkpt>
      <trkpt lat="45.52327" lon="5.79835">
        <ele>554.5</ele>
        <time>2021-08-23T14:17:00Z</time>
      </trkpt>
      <trkpt lat="45.52325" lon="5.79833">
        <ele>554.7</ele>
        <time>2021-08-23T14:17:01Z</time>
      </trkpt>
      <trkpt lat="45.52322" lon="5.79829">
        <ele>555.1</ele>
        <time>2021-08-23T14:17:03Z</time>
      </trkpt>
      <trkpt lat="45.5232" lon="5.79828">
        <ele>555.2</ele>
        <time>2021-08-23T14:17:05Z</time>
      </trkpt>
      <trkpt lat="45.52319" lon="5.79827">
        <ele>555.3</ele>
        <time>2021-08-23T14:17:06Z</time>
      </trkpt>
      <trkpt lat="45.52318" lon="5.79826">
        <ele>555.4</ele>
        <time>2021-08-23T14:17:07Z</time>
      </trkpt>
      <trkpt lat="45.52316" lon="5.79824">
        <ele>555.6</ele>
        <time>2021-08-23T14:17:08Z</time>
      </trkpt>
      <trkpt lat="45.52315" lon="5.79822">
        <ele>555.8</ele>
        <time>2021-08-23T14:17:10Z</time>
      </trkpt>
      <trkpt lat="45.52314" lon="5.7982">
        <ele>555.9</ele>
        <time>2021-08-23T14:17:11Z</time>
      </trkpt>
      <trkpt lat="45.52313" lon="5.79819">
        <ele>556</ele>
        <time>2021-08-23T14:17:12Z</time>
      </trkpt>
      <trkpt lat="45.5231" lon="5.79817">
        <ele>556.3</ele>
        <time>2021-08-23T14:17:14Z</time>
      </trkpt>
      <trkpt lat="45.52308" lon="5.79815">
        <ele>556.5</ele>
        <time>2021-08-23T14:17:15Z</time>
      </trkpt>
      <trkpt lat="45.52306" lon="5.79815">
        <ele>556.6</ele>
        <time>2021-08-23T14:17:17Z</time>
      </trkpt>
      <trkpt lat="45.52304" lon="5.79813">
        <ele>556.8</ele>
        <time>2021-08-23T14:17:18Z</time>
      </trkpt>
      <trkpt lat="45.52303" lon="5.79812">
        <ele>556.8</ele>
        <time>2021-08-23T14:17:19Z</time>
      </trkpt>
      <trkpt lat="45.52302" lon="5.79812">
        <ele>556.9</ele>
        <time>2021-08-23T14:17:21Z</time>
      </trkpt>
      <trkpt lat="45.52302" lon="5.79814">
        <ele>557</ele>
        <time>2021-08-23T14:17:22Z</time>
      </trkpt>
      <trkpt lat="45.52302" lon="5.79814">
        <ele>557</ele>
        <time>2021-08-23T14:17:24Z</time>
      </trkpt>
      <trkpt lat="45.52302" lon="5.79813">
        <ele>557</ele>
        <time>2021-08-23T14:17:26Z</time>
      </trkpt>
      <trkpt lat="45.52301" lon="5.79812">
        <ele>557.1</ele>
        <time>2021-08-23T14:17:27Z</time>
      </trkpt>
      <trkpt lat="45.523" lon="5.7981">
        <ele>557.2</ele>
        <time>2021-08-23T14:17:29Z</time>
      </trkpt>
      <trkpt lat="45.52286" lon="5.79794">
        <ele>558.4</ele>
        <time>2021-08-23T14:17:37Z</time>
      </trkpt>
      <trkpt lat="45.52284" lon="5.7979">
        <ele>558.6</ele>
        <time>2021-08-23T14:17:39Z</time>
      </trkpt>
      <trkpt lat="45.52283" lon="5.79785">
        <ele>558.9</ele>
        <time>2021-08-23T14:17:40Z</time>
      </trkpt>
      <trkpt lat="45.5228" lon="5.79779">
        <ele>559.2</ele>
        <time>2021-08-23T14:17:42Z</time>
      </trkpt>
      <trkpt lat="45.52279" lon="5.79777">
        <ele>559.3</ele>
        <time>2021-08-23T14:17:43Z</time>
      </trkpt>
      <trkpt lat="45.52277" lon="5.79776">
        <ele>559.4</ele>
        <time>2021-08-23T14:17:44Z</time>
      </trkpt>
      <trkpt lat="45.52275" lon="5.79773">
        <ele>559.6</ele>
        <time>2021-08-23T14:17:46Z</time>
      </trkpt>
      <trkpt lat="45.52275" lon="5.79772">
        <ele>559.7</ele>
        <time>2021-08-23T14:17:47Z</time>
      </trkpt>
      <trkpt lat="45.52276" lon="5.79768">
        <ele>559.9</ele>
        <time>2021-08-23T14:17:48Z</time>
      </trkpt>
      <trkpt lat="45.52275" lon="5.79767">
        <ele>559.9</ele>
        <time>2021-08-23T14:17:49Z</time>
      </trkpt>
      <trkpt lat="45.52274" lon="5.79766">
        <ele>560</ele>
        <time>2021-08-23T14:17:50Z</time>
      </trkpt>
      <trkpt lat="45.52274" lon="5.79764">
        <ele>560.1</ele>
        <time>2021-08-23T14:17:52Z</time>
      </trkpt>
      <trkpt lat="45.52274" lon="5.79764">
        <ele>560.1</ele>
        <time>2021-08-23T14:17:53Z</time>
      </trkpt>
      <trkpt lat="45.52273" lon="5.79763">
        <ele>560.1</ele>
        <time>2021-08-23T14:17:54Z</time>
      </trkpt>
      <trkpt lat="45.52272" lon="5.79762">
        <ele>560.2</ele>
        <time>2021-08-23T14:17:55Z</time>
      </trkpt>
      <trkpt lat="45.52271" lon="5.7976">
        <ele>560.4</ele>
        <time>2021-08-23T14:17:57Z</time>
      </trkpt>
      <trkpt lat="45.52269" lon="5.79758">
        <ele>560.6</ele>
        <time>2021-08-23T14:17:58Z</time>
      </trkpt>
      <trkpt lat="45.52268" lon="5.79758">
        <ele>560.6</ele>
        <time>2021-08-23T14:17:59Z</time>
      </trkpt>
      <trkpt lat="45.52268" lon="5.79757">
        <ele>560.7</ele>
        <time>2021-08-23T14:18:00Z</time>
      </trkpt>
      <trkpt lat="45.52267" lon="5.79755">
        <ele>560.7</ele>
        <time>2021-08-23T14:18:02Z</time>
      </trkpt>
      <trkpt lat="45.52266" lon="5.79752">
        <ele>560.9</ele>
        <time>2021-08-23T14:18:04Z</time>
      </trkpt>
      <trkpt lat="45.52264" lon="5.79748">
        <ele>561.2</ele>
        <time>2021-08-23T14:18:05Z</time>
      </trkpt>
      <trkpt lat="45.52263" lon="5.79746">
        <ele>561.3</ele>
        <time>2021-08-23T14:18:06Z</time>
      </trkpt>
      <trkpt lat="45.5226" lon="5.79743">
        <ele>561.5</ele>
        <time>2021-08-23T14:18:08Z</time>
      </trkpt>
      <trkpt lat="45.52258" lon="5.79739">
        <ele>561.8</ele>
        <time>2021-08-23T14:18:09Z</time>
      </trkpt>
      <trkpt lat="45.52256" lon="5.79734">
        <ele>562.1</ele>
        <time>2021-08-23T14:18:11Z</time>
      </trkpt>
      <trkpt lat="45.52256" lon="5.79732">
        <ele>562.2</ele>
        <time>2021-08-23T14:18:12Z</time>
      </trkpt>
      <trkpt lat="45.52255" lon="5.79727">
        <ele>562.4</ele>
        <time>2021-08-23T14:18:14Z</time>
      </trkpt>
      <trkpt lat="45.52255" lon="5.79726">
        <ele>562.5</ele>
        <time>2021-08-23T14:18:15Z</time>
      </trkpt>
      <trkpt lat="45.52255" lon="5.79723">
        <ele>562.6</ele>
        <time>2021-08-23T14:18:16Z</time>
      </trkpt>
      <trkpt lat="45.52255" lon="5.79722">
        <ele>562.7</ele>
        <time>2021-08-23T14:18:18Z</time>
      </trkpt>
      <trkpt lat="45.52254" lon="5.79722">
        <ele>562.8</ele>
        <time>2021-08-23T14:18:19Z</time>
      </trkpt>
      <trkpt lat="45.52253" lon="5.79722">
        <ele>562.8</ele>
        <time>2021-08-23T14:18:20Z</time>
      </trkpt>
      <trkpt lat="45.52252" lon="5.79723">
        <ele>562.9</ele>
        <time>2021-08-23T14:18:22Z</time>
      </trkpt>
      <trkpt lat="45.52252" lon="5.79723">
        <ele>562.9</ele>
        <time>2021-08-23T14:18:23Z</time>
      </trkpt>
      <trkpt lat="45.5225" lon="5.79723">
        <ele>563.1</ele>
        <time>2021-08-23T14:18:25Z</time>
      </trkpt>
      <trkpt lat="45.52249" lon="5.79723">
        <ele>563.1</ele>
        <time>2021-08-23T14:18:26Z</time>
      </trkpt>
      <trkpt lat="45.52241" lon="5.79686">
        <ele>565</ele>
        <time>2021-08-23T14:18:46Z</time>
      </trkpt>
      <trkpt lat="45.5224" lon="5.79683">
        <ele>565.2</ele>
        <time>2021-08-23T14:18:48Z</time>
      </trkpt>
      <trkpt lat="45.52236" lon="5.79681">
        <ele>565.5</ele>
        <time>2021-08-23T14:18:50Z</time>
      </trkpt>
      <trkpt lat="45.52234" lon="5.79679">
        <ele>565.6</ele>
        <time>2021-08-23T14:18:51Z</time>
      </trkpt>
      <trkpt lat="45.52234" lon="5.79679">
        <ele>565.6</ele>
        <time>2021-08-23T14:18:52Z</time>
      </trkpt>
      <trkpt lat="45.52233" lon="5.79678">
        <ele>565.7</ele>
        <time>2021-08-23T14:18:53Z</time>
      </trkpt>
      <trkpt lat="45.52231" lon="5.79678">
        <ele>565.8</ele>
        <time>2021-08-23T14:18:55Z</time>
      </trkpt>
      <trkpt lat="45.5223" lon="5.79677">
        <ele>565.9</ele>
        <time>2021-08-23T14:18:56Z</time>
      </trkpt>
      <trkpt lat="45.5223" lon="5.79677">
        <ele>565.9</ele>
        <time>2021-08-23T14:18:57Z</time>
      </trkpt>
      <trkpt lat="45.52223" lon="5.79671">
        <ele>566.3</ele>
        <time>2021-08-23T14:18:59Z</time>
      </trkpt>
      <trkpt lat="45.52218" lon="5.79667">
        <ele>566.7</ele>
        <time>2021-08-23T14:19:00Z</time>
      </trkpt>
      <trkpt lat="45.52213" lon="5.79659">
        <ele>567.1</ele>
        <time>2021-08-23T14:19:02Z</time>
      </trkpt>
      <trkpt lat="45.52212" lon="5.79655">
        <ele>567.3</ele>
        <time>2021-08-23T14:19:04Z</time>
      </trkpt>
      <trkpt lat="45.5221" lon="5.7965">
        <ele>567.5</ele>
        <time>2021-08-23T14:19:05Z</time>
      </trkpt>
      <trkpt lat="45.52209" lon="5.79648">
        <ele>567.6</ele>
        <time>2021-08-23T14:19:06Z</time>
      </trkpt>
      <trkpt lat="45.52206" lon="5.79644">
        <ele>567.9</ele>
        <time>2021-08-23T14:19:07Z</time>
      </trkpt>
      <trkpt lat="45.52205" lon="5.79639">
        <ele>568.1</ele>
        <time>2021-08-23T14:19:09Z</time>
      </trkpt>
      <trkpt lat="45.52203" lon="5.79634">
        <ele>568.3</ele>
        <time>2021-08-23T14:19:10Z</time>
      </trkpt>
      <trkpt lat="45.52201" lon="5.7963">
        <ele>568.5</ele>
        <time>2021-08-23T14:19:12Z</time>
      </trkpt>
      <trkpt lat="45.522" lon="5.79627">
        <ele>568.6</ele>
        <time>2021-08-23T14:19:13Z</time>
      </trkpt>
      <trkpt lat="45.52199" lon="5.79622">
        <ele>568.8</ele>
        <time>2021-08-23T14:19:15Z</time>
      </trkpt>
      <trkpt lat="45.52198" lon="5.79618">
        <ele>569</ele>
        <time>2021-08-23T14:19:16Z</time>
      </trkpt>
      <trkpt lat="45.52198" lon="5.79617">
        <ele>569</ele>
        <time>2021-08-23T14:19:17Z</time>
      </trkpt>
      <trkpt lat="45.52197" lon="5.79615">
        <ele>569.1</ele>
        <time>2021-08-23T14:19:18Z</time>
      </trkpt>
      <trkpt lat="45.52197" lon="5.79612">
        <ele>569.2</ele>
        <time>2021-08-23T14:19:19Z</time>
      </trkpt>
      <trkpt lat="45.52195" lon="5.79608">
        <ele>569.3</ele>
        <time>2021-08-23T14:19:21Z</time>
      </trkpt>
      <trkpt lat="45.52193" lon="5.79606">
        <ele>569.5</ele>
        <time>2021-08-23T14:19:22Z</time>
      </trkpt>
      <trkpt lat="45.52189" lon="5.79604">
        <ele>569.6</ele>
        <time>2021-08-23T14:19:24Z</time>
      </trkpt>
      <trkpt lat="45.52188" lon="5.79603">
        <ele>569.7</ele>
        <time>2021-08-23T14:19:25Z</time>
      </trkpt>
      <trkpt lat="45.52186" lon="5.79598">
        <ele>569.8</ele>
        <time>2021-08-23T14:19:27Z</time>
      </trkpt>
      <trkpt lat="45.52185" lon="5.79595">
        <ele>569.9</ele>
        <time>2021-08-23T14:19:28Z</time>
      </trkpt>
      <trkpt lat="45.5218" lon="5.7959">
        <ele>570.1</ele>
        <time>2021-08-23T14:19:29Z</time>
      </trkpt>
      <trkpt lat="45.52173" lon="5.79588">
        <ele>570.3</ele>
        <time>2021-08-23T14:19:31Z</time>
      </trkpt>
      <trkpt lat="45.52163" lon="5.79586">
        <ele>570.5</ele>
        <time>2021-08-23T14:19:32Z</time>
      </trkpt>
      <trkpt lat="45.52156" lon="5.79585">
        <ele>570.6</ele>
        <time>2021-08-23T14:19:34Z</time>
      </trkpt>
      <trkpt lat="45.52151" lon="5.79584">
        <ele>570.7</ele>
        <time>2021-08-23T14:19:35Z</time>
      </trkpt>
      <trkpt lat="45.52148" lon="5.79579">
        <ele>570.8</ele>
        <time>2021-08-23T14:19:37Z</time>
      </trkpt>
      <trkpt lat="45.52144" lon="5.79574">
        <ele>570.8</ele>
        <time>2021-08-23T14:19:39Z</time>
      </trkpt>
      <trkpt lat="45.52144" lon="5.79567">
        <ele>570.9</ele>
        <time>2021-08-23T14:19:41Z</time>
      </trkpt>
      <trkpt lat="45.52144" lon="5.79563">
        <ele>570.9</ele>
        <time>2021-08-23T14:19:42Z</time>
      </trkpt>
      <trkpt lat="45.52144" lon="5.79562">
        <ele>571</ele>
        <time>2021-08-23T14:19:43Z</time>
      </trkpt>
      <trkpt lat="45.52144" lon="5.79557">
        <ele>571</ele>
        <time>2021-08-23T14:19:44Z</time>
      </trkpt>
      <trkpt lat="45.52143" lon="5.79556">
        <ele>571</ele>
        <time>2021-08-23T14:19:45Z</time>
      </trkpt>
      <trkpt lat="45.52143" lon="5.79552">
        <ele>571</ele>
        <time>2021-08-23T14:19:46Z</time>
      </trkpt>
      <trkpt lat="45.52143" lon="5.79549">
        <ele>571</ele>
        <time>2021-08-23T14:19:48Z</time>
      </trkpt>
      <trkpt lat="45.52143" lon="5.79547">
        <ele>571</ele>
        <time>2021-08-23T14:19:49Z</time>
      </trkpt>
      <trkpt lat="45.52143" lon="5.79545">
        <ele>571</ele>
        <time>2021-08-23T14:19:50Z</time>
      </trkpt>
      <trkpt lat="45.52142" lon="5.79538">
        <ele>571.1</ele>
        <time>2021-08-23T14:19:52Z</time>
      </trkpt>
      <trkpt lat="45.52142" lon="5.79535">
        <ele>571.1</ele>
        <time>2021-08-23T14:19:53Z</time>
      </trkpt>
      <trkpt lat="45.52142" lon="5.79532">
        <ele>571.1</ele>
        <time>2021-08-23T14:19:54Z</time>
      </trkpt>
      <trkpt lat="45.52141" lon="5.79526">
        <ele>571.1</ele>
        <time>2021-08-23T14:19:56Z</time>
      </trkpt>
      <trkpt lat="45.52142" lon="5.79518">
        <ele>571.1</ele>
        <time>2021-08-23T14:19:57Z</time>
      </trkpt>
      <trkpt lat="45.52143" lon="5.79511">
        <ele>571.2</ele>
        <time>2021-08-23T14:19:59Z</time>
      </trkpt>
      <trkpt lat="45.52143" lon="5.79506">
        <ele>571.2</ele>
        <time>2021-08-23T14:20:01Z</time>
      </trkpt>
      <trkpt lat="45.52143" lon="5.79499">
        <ele>571.2</ele>
        <time>2021-08-23T14:20:02Z</time>
      </trkpt>
      <trkpt lat="45.52145" lon="5.79496">
        <ele>571.2</ele>
        <time>2021-08-23T14:20:03Z</time>
      </trkpt>
      <trkpt lat="45.52147" lon="5.79492">
        <ele>571.2</ele>
        <time>2021-08-23T14:20:05Z</time>
      </trkpt>
      <trkpt lat="45.52148" lon="5.79491">
        <ele>571.2</ele>
        <time>2021-08-23T14:20:06Z</time>
      </trkpt>
      <trkpt lat="45.52152" lon="5.79488">
        <ele>571.2</ele>
        <time>2021-08-23T14:20:07Z</time>
      </trkpt>
      <trkpt lat="45.52155" lon="5.79486">
        <ele>571.2</ele>
        <time>2021-08-23T14:20:08Z</time>
      </trkpt>
      <trkpt lat="45.52155" lon="5.79485">
        <ele>571.2</ele>
        <time>2021-08-23T14:20:09Z</time>
      </trkpt>
      <trkpt lat="45.52156" lon="5.7948">
        <ele>571.2</ele>
        <time>2021-08-23T14:20:10Z</time>
      </trkpt>
      <trkpt lat="45.52156" lon="5.79479">
        <ele>571.2</ele>
        <time>2021-08-23T14:20:11Z</time>
      </trkpt>
      <trkpt lat="45.52157" lon="5.79475">
        <ele>571.2</ele>
        <time>2021-08-23T14:20:13Z</time>
      </trkpt>
      <trkpt lat="45.52161" lon="5.79467">
        <ele>571.1</ele>
        <time>2021-08-23T14:20:15Z</time>
      </trkpt>
      <trkpt lat="45.52164" lon="5.79462">
        <ele>571.1</ele>
        <time>2021-08-23T14:20:16Z</time>
      </trkpt>
      <trkpt lat="45.52167" lon="5.79457">
        <ele>571</ele>
        <time>2021-08-23T14:20:18Z</time>
      </trkpt>
      <trkpt lat="45.5217" lon="5.79454">
        <ele>570.9</ele>
        <time>2021-08-23T14:20:19Z</time>
      </trkpt>
      <trkpt lat="45.52175" lon="5.79448">
        <ele>570.7</ele>
        <time>2021-08-23T14:20:20Z</time>
      </trkpt>
      <trkpt lat="45.5218" lon="5.79441">
        <ele>570.5</ele>
        <time>2021-08-23T14:20:22Z</time>
      </trkpt>
      <trkpt lat="45.52185" lon="5.79435">
        <ele>570.2</ele>
        <time>2021-08-23T14:20:23Z</time>
      </trkpt>
      <trkpt lat="45.52188" lon="5.7943">
        <ele>570</ele>
        <time>2021-08-23T14:20:24Z</time>
      </trkpt>
      <trkpt lat="45.52192" lon="5.79423">
        <ele>569.7</ele>
        <time>2021-08-23T14:20:26Z</time>
      </trkpt>
      <trkpt lat="45.52198" lon="5.79419">
        <ele>569.3</ele>
        <time>2021-08-23T14:20:28Z</time>
      </trkpt>
      <trkpt lat="45.52201" lon="5.79418">
        <ele>569.2</ele>
        <time>2021-08-23T14:20:29Z</time>
      </trkpt>
      <trkpt lat="45.52205" lon="5.79416">
        <ele>569</ele>
        <time>2021-08-23T14:20:30Z</time>
      </trkpt>
      <trkpt lat="45.52209" lon="5.79413">
        <ele>568.8</ele>
        <time>2021-08-23T14:20:31Z</time>
      </trkpt>
      <trkpt lat="45.52213" lon="5.79405">
        <ele>568.5</ele>
        <time>2021-08-23T14:20:32Z</time>
      </trkpt>
      <trkpt lat="45.52215" lon="5.79399">
        <ele>568.7</ele>
        <time>2021-08-23T14:20:34Z</time>
      </trkpt>
      <trkpt lat="45.52211" lon="5.79395">
        <ele>568.9</ele>
        <time>2021-08-23T14:20:35Z</time>
      </trkpt>
      <trkpt lat="45.52207" lon="5.79391">
        <ele>569.3</ele>
        <time>2021-08-23T14:20:37Z</time>
      </trkpt>
      <trkpt lat="45.52204" lon="5.7939">
        <ele>569.5</ele>
        <time>2021-08-23T14:20:38Z</time>
      </trkpt>
      <trkpt lat="45.52202" lon="5.7939">
        <ele>569.7</ele>
        <time>2021-08-23T14:20:39Z</time>
      </trkpt>
      <trkpt lat="45.52201" lon="5.79389">
        <ele>569.8</ele>
        <time>2021-08-23T14:20:40Z</time>
      </trkpt>
      <trkpt lat="45.522" lon="5.79389">
        <ele>569.8</ele>
        <time>2021-08-23T14:20:42Z</time>
      </trkpt>
      <trkpt lat="45.522" lon="5.79389">
        <ele>569.8</ele>
        <time>2021-08-23T14:20:43Z</time>
      </trkpt>
      <trkpt lat="45.522" lon="5.79389">
        <ele>569.8</ele>
        <time>2021-08-23T14:20:44Z</time>
      </trkpt>
      <trkpt lat="45.522" lon="5.79389">
        <ele>569.8</ele>
        <time>2021-08-23T14:20:46Z</time>
      </trkpt>
      <trkpt lat="45.52199" lon="5.7939">
        <ele>570</ele>
        <time>2021-08-23T14:20:48Z</time>
      </trkpt>
      <trkpt lat="45.52196" lon="5.79391">
        <ele>570.3</ele>
        <time>2021-08-23T14:20:50Z</time>
      </trkpt>
      <trkpt lat="45.52193" lon="5.79393">
        <ele>570.7</ele>
        <time>2021-08-23T14:20:52Z</time>
      </trkpt>
      <trkpt lat="45.52189" lon="5.79394">
        <ele>571.1</ele>
        <time>2021-08-23T14:20:53Z</time>
      </trkpt>
      <trkpt lat="45.52188" lon="5.79394">
        <ele>571.2</ele>
        <time>2021-08-23T14:20:54Z</time>
      </trkpt>
      <trkpt lat="45.52184" lon="5.79397">
        <ele>571.7</ele>
        <time>2021-08-23T14:20:55Z</time>
      </trkpt>
      <trkpt lat="45.52181" lon="5.79398">
        <ele>572</ele>
        <time>2021-08-23T14:20:56Z</time>
      </trkpt>
      <trkpt lat="45.52178" lon="5.79399">
        <ele>572.3</ele>
        <time>2021-08-23T14:20:57Z</time>
      </trkpt>
      <trkpt lat="45.52177" lon="5.794">
        <ele>572.4</ele>
        <time>2021-08-23T14:20:58Z</time>
      </trkpt>
      <trkpt lat="45.52174" lon="5.79401">
        <ele>572.8</ele>
        <time>2021-08-23T14:21:00Z</time>
      </trkpt>
      <trkpt lat="45.5217" lon="5.79403">
        <ele>573.1</ele>
        <time>2021-08-23T14:21:01Z</time>
      </trkpt>
      <trkpt lat="45.52169" lon="5.79404">
        <ele>573.2</ele>
        <time>2021-08-23T14:21:02Z</time>
      </trkpt>
      <trkpt lat="45.52167" lon="5.79405">
        <ele>573.5</ele>
        <time>2021-08-23T14:21:03Z</time>
      </trkpt>
      <trkpt lat="45.52164" lon="5.79406">
        <ele>573.8</ele>
        <time>2021-08-23T14:21:05Z</time>
      </trkpt>
      <trkpt lat="45.52161" lon="5.79409">
        <ele>574.2</ele>
        <time>2021-08-23T14:21:06Z</time>
      </trkpt>
      <trkpt lat="45.52157" lon="5.79411">
        <ele>574.6</ele>
        <time>2021-08-23T14:21:08Z</time>
      </trkpt>
      <trkpt lat="45.52152" lon="5.79415">
        <ele>575.1</ele>
        <time>2021-08-23T14:21:10Z</time>
      </trkpt>
      <trkpt lat="45.52149" lon="5.79418">
        <ele>575.5</ele>
        <time>2021-08-23T14:21:11Z</time>
      </trkpt>
      <trkpt lat="45.52148" lon="5.79418">
        <ele>575.6</ele>
        <time>2021-08-23T14:21:12Z</time>
      </trkpt>
      <trkpt lat="45.52146" lon="5.79421">
        <ele>576</ele>
        <time>2021-08-23T14:21:14Z</time>
      </trkpt>
      <trkpt lat="45.52145" lon="5.79421">
        <ele>576</ele>
        <time>2021-08-23T14:21:15Z</time>
      </trkpt>
      <trkpt lat="45.52144" lon="5.79422">
        <ele>576.1</ele>
        <time>2021-08-23T14:21:16Z</time>
      </trkpt>
      <trkpt lat="45.52143" lon="5.79422">
        <ele>576.2</ele>
        <time>2021-08-23T14:21:18Z</time>
      </trkpt>
      <trkpt lat="45.52141" lon="5.79422">
        <ele>576.4</ele>
        <time>2021-08-23T14:21:19Z</time>
      </trkpt>
      <trkpt lat="45.5214" lon="5.79422">
        <ele>576.5</ele>
        <time>2021-08-23T14:21:21Z</time>
      </trkpt>
      <trkpt lat="45.52127" lon="5.79428">
        <ele>577.9</ele>
        <time>2021-08-23T14:21:34Z</time>
      </trkpt>
      <trkpt lat="45.52127" lon="5.79429">
        <ele>578</ele>
        <time>2021-08-23T14:21:35Z</time>
      </trkpt>
      <trkpt lat="45.52127" lon="5.79431">
        <ele>578.2</ele>
        <time>2021-08-23T14:21:36Z</time>
      </trkpt>
      <trkpt lat="45.52127" lon="5.79432">
        <ele>578.2</ele>
        <time>2021-08-23T14:21:37Z</time>
      </trkpt>
      <trkpt lat="45.52126" lon="5.79433">
        <ele>578.3</ele>
        <time>2021-08-23T14:21:38Z</time>
      </trkpt>
      <trkpt lat="45.52126" lon="5.79433">
        <ele>578.3</ele>
        <time>2021-08-23T14:21:39Z</time>
      </trkpt>
      <trkpt lat="45.52126" lon="5.79434">
        <ele>578.4</ele>
        <time>2021-08-23T14:21:41Z</time>
      </trkpt>
      <trkpt lat="45.52126" lon="5.79434">
        <ele>578.4</ele>
        <time>2021-08-23T14:21:42Z</time>
      </trkpt>
      <trkpt lat="45.52125" lon="5.79436">
        <ele>578.6</ele>
        <time>2021-08-23T14:21:43Z</time>
      </trkpt>
      <trkpt lat="45.52124" lon="5.79437">
        <ele>578.7</ele>
        <time>2021-08-23T14:21:44Z</time>
      </trkpt>
      <trkpt lat="45.52122" lon="5.79438">
        <ele>578.9</ele>
        <time>2021-08-23T14:21:46Z</time>
      </trkpt>
      <trkpt lat="45.52122" lon="5.79438">
        <ele>579</ele>
        <time>2021-08-23T14:21:47Z</time>
      </trkpt>
      <trkpt lat="45.52121" lon="5.79439">
        <ele>579.1</ele>
        <time>2021-08-23T14:21:48Z</time>
      </trkpt>
      <trkpt lat="45.52119" lon="5.79439">
        <ele>579.4</ele>
        <time>2021-08-23T14:21:49Z</time>
      </trkpt>
      <trkpt lat="45.52117" lon="5.79439">
        <ele>579.6</ele>
        <time>2021-08-23T14:21:51Z</time>
      </trkpt>
      <trkpt lat="45.52116" lon="5.79439">
        <ele>579.6</ele>
        <time>2021-08-23T14:21:52Z</time>
      </trkpt>
      <trkpt lat="45.52117" lon="5.7944">
        <ele>579.7</ele>
        <time>2021-08-23T14:21:53Z</time>
      </trkpt>
      <trkpt lat="45.52116" lon="5.79442">
        <ele>579.9</ele>
        <time>2021-08-23T14:21:54Z</time>
      </trkpt>
      <trkpt lat="45.52116" lon="5.79444">
        <ele>580</ele>
        <time>2021-08-23T14:21:55Z</time>
      </trkpt>
      <trkpt lat="45.52114" lon="5.79446">
        <ele>580.3</ele>
        <time>2021-08-23T14:21:57Z</time>
      </trkpt>
      <trkpt lat="45.52113" lon="5.79447">
        <ele>580.4</ele>
        <time>2021-08-23T14:21:58Z</time>
      </trkpt>
      <trkpt lat="45.5211" lon="5.79449">
        <ele>580.8</ele>
        <time>2021-08-23T14:21:59Z</time>
      </trkpt>
      <trkpt lat="45.52107" lon="5.79451">
        <ele>581.2</ele>
        <time>2021-08-23T14:22:01Z</time>
      </trkpt>
      <trkpt lat="45.52102" lon="5.79452">
        <ele>581.7</ele>
        <time>2021-08-23T14:22:02Z</time>
      </trkpt>
      <trkpt lat="45.521" lon="5.79452">
        <ele>581.9</ele>
        <time>2021-08-23T14:22:03Z</time>
      </trkpt>
      <trkpt lat="45.52097" lon="5.79452">
        <ele>582.2</ele>
        <time>2021-08-23T14:22:04Z</time>
      </trkpt>
      <trkpt lat="45.52097" lon="5.79452">
        <ele>582.2</ele>
        <time>2021-08-23T14:22:06Z</time>
      </trkpt>
      <trkpt lat="45.52096" lon="5.79452">
        <ele>582.3</ele>
        <time>2021-08-23T14:22:07Z</time>
      </trkpt>
      <trkpt lat="45.52096" lon="5.79452">
        <ele>582.3</ele>
        <time>2021-08-23T14:22:08Z</time>
      </trkpt>
      <trkpt lat="45.52096" lon="5.79451">
        <ele>582.3</ele>
        <time>2021-08-23T14:22:09Z</time>
      </trkpt>
      <trkpt lat="45.52095" lon="5.79451">
        <ele>582.4</ele>
        <time>2021-08-23T14:22:10Z</time>
      </trkpt>
      <trkpt lat="45.52095" lon="5.7945">
        <ele>582.5</ele>
        <time>2021-08-23T14:22:12Z</time>
      </trkpt>
      <trkpt lat="45.52065" lon="5.79461">
        <ele>585.3</ele>
        <time>2021-08-23T14:22:55Z</time>
      </trkpt>
      <trkpt lat="45.52061" lon="5.79466">
        <ele>585.8</ele>
        <time>2021-08-23T14:22:57Z</time>
      </trkpt>
      <trkpt lat="45.52059" lon="5.79471">
        <ele>586.1</ele>
        <time>2021-08-23T14:22:59Z</time>
      </trkpt>
      <trkpt lat="45.52058" lon="5.79472">
        <ele>586.3</ele>
        <time>2021-08-23T14:23:00Z</time>
      </trkpt>
      <trkpt lat="45.52055" lon="5.79477">
        <ele>586.6</ele>
        <time>2021-08-23T14:23:02Z</time>
      </trkpt>
      <trkpt lat="45.52053" lon="5.7948">
        <ele>586.9</ele>
        <time>2021-08-23T14:23:03Z</time>
      </trkpt>
      <trkpt lat="45.52052" lon="5.79481">
        <ele>587</ele>
        <time>2021-08-23T14:23:04Z</time>
      </trkpt>
      <trkpt lat="45.52051" lon="5.79482">
        <ele>587.1</ele>
        <time>2021-08-23T14:23:05Z</time>
      </trkpt>
      <trkpt lat="45.5205" lon="5.79482">
        <ele>587.2</ele>
        <time>2021-08-23T14:23:07Z</time>
      </trkpt>
      <trkpt lat="45.52049" lon="5.79482">
        <ele>587.3</ele>
        <time>2021-08-23T14:23:08Z</time>
      </trkpt>
      <trkpt lat="45.52049" lon="5.79483">
        <ele>587.3</ele>
        <time>2021-08-23T14:23:09Z</time>
      </trkpt>
      <trkpt lat="45.5205" lon="5.79486">
        <ele>587.5</ele>
        <time>2021-08-23T14:23:10Z</time>
      </trkpt>
      <trkpt lat="45.52049" lon="5.79489">
        <ele>587.7</ele>
        <time>2021-08-23T14:23:12Z</time>
      </trkpt>
      <trkpt lat="45.52048" lon="5.7949">
        <ele>587.8</ele>
        <time>2021-08-23T14:23:13Z</time>
      </trkpt>
      <trkpt lat="45.52048" lon="5.79497">
        <ele>588.2</ele>
        <time>2021-08-23T14:23:15Z</time>
      </trkpt>
      <trkpt lat="45.52049" lon="5.795">
        <ele>588.4</ele>
        <time>2021-08-23T14:23:16Z</time>
      </trkpt>
      <trkpt lat="45.52049" lon="5.795">
        <ele>588.4</ele>
        <time>2021-08-23T14:23:17Z</time>
      </trkpt>
      <trkpt lat="45.52049" lon="5.79501">
        <ele>588.5</ele>
        <time>2021-08-23T14:23:18Z</time>
      </trkpt>
      <trkpt lat="45.52051" lon="5.79505">
        <ele>588.8</ele>
        <time>2021-08-23T14:23:20Z</time>
      </trkpt>
      <trkpt lat="45.52052" lon="5.79506">
        <ele>588.9</ele>
        <time>2021-08-23T14:23:21Z</time>
      </trkpt>
      <trkpt lat="45.52053" lon="5.79509">
        <ele>589.1</ele>
        <time>2021-08-23T14:23:22Z</time>
      </trkpt>
      <trkpt lat="45.52052" lon="5.79512">
        <ele>589.3</ele>
        <time>2021-08-23T14:23:24Z</time>
      </trkpt>
      <trkpt lat="45.52052" lon="5.79514">
        <ele>589.5</ele>
        <time>2021-08-23T14:23:25Z</time>
      </trkpt>
      <trkpt lat="45.52051" lon="5.79515">
        <ele>589.6</ele>
        <time>2021-08-23T14:23:26Z</time>
      </trkpt>
      <trkpt lat="45.5205" lon="5.79517">
        <ele>589.7</ele>
        <time>2021-08-23T14:23:28Z</time>
      </trkpt>
      <trkpt lat="45.5205" lon="5.7952">
        <ele>589.9</ele>
        <time>2021-08-23T14:23:29Z</time>
      </trkpt>
      <trkpt lat="45.5205" lon="5.79521">
        <ele>590</ele>
        <time>2021-08-23T14:23:31Z</time>
      </trkpt>
      <trkpt lat="45.52051" lon="5.79522">
        <ele>590.1</ele>
        <time>2021-08-23T14:23:32Z</time>
      </trkpt>
      <trkpt lat="45.52055" lon="5.79528">
        <ele>590.7</ele>
        <time>2021-08-23T14:23:36Z</time>
      </trkpt>
      <trkpt lat="45.52058" lon="5.79532">
        <ele>591.1</ele>
        <time>2021-08-23T14:23:37Z</time>
      </trkpt>
      <trkpt lat="45.5206" lon="5.79534">
        <ele>591.3</ele>
        <time>2021-08-23T14:23:38Z</time>
      </trkpt>
      <trkpt lat="45.52061" lon="5.79536">
        <ele>591.5</ele>
        <time>2021-08-23T14:23:39Z</time>
      </trkpt>
      <trkpt lat="45.52063" lon="5.79539">
        <ele>591.8</ele>
        <time>2021-08-23T14:23:41Z</time>
      </trkpt>
      <trkpt lat="45.52064" lon="5.79545">
        <ele>592.2</ele>
        <time>2021-08-23T14:23:42Z</time>
      </trkpt>
      <trkpt lat="45.52064" lon="5.79548">
        <ele>592.5</ele>
        <time>2021-08-23T14:23:43Z</time>
      </trkpt>
      <trkpt lat="45.52065" lon="5.79555">
        <ele>592.9</ele>
        <time>2021-08-23T14:23:45Z</time>
      </trkpt>
      <trkpt lat="45.52065" lon="5.79558">
        <ele>593.1</ele>
        <time>2021-08-23T14:23:46Z</time>
      </trkpt>
      <trkpt lat="45.52065" lon="5.7956">
        <ele>593.3</ele>
        <time>2021-08-23T14:23:47Z</time>
      </trkpt>
      <trkpt lat="45.52064" lon="5.79561">
        <ele>593.3</ele>
        <time>2021-08-23T14:23:49Z</time>
      </trkpt>
      <trkpt lat="45.52064" lon="5.79565">
        <ele>593.6</ele>
        <time>2021-08-23T14:23:50Z</time>
      </trkpt>
      <trkpt lat="45.52064" lon="5.79566">
        <ele>593.7</ele>
        <time>2021-08-23T14:23:52Z</time>
      </trkpt>
      <trkpt lat="45.52064" lon="5.79567">
        <ele>593.7</ele>
        <time>2021-08-23T14:23:53Z</time>
      </trkpt>
      <trkpt lat="45.52064" lon="5.79568">
        <ele>593.8</ele>
        <time>2021-08-23T14:23:54Z</time>
      </trkpt>
      <trkpt lat="45.52064" lon="5.79569">
        <ele>593.8</ele>
        <time>2021-08-23T14:23:55Z</time>
      </trkpt>
      <trkpt lat="45.52064" lon="5.79571">
        <ele>594</ele>
        <time>2021-08-23T14:23:57Z</time>
      </trkpt>
      <trkpt lat="45.52083" lon="5.79588">
        <ele>595.8</ele>
        <time>2021-08-23T14:24:21Z</time>
      </trkpt>
      <trkpt lat="45.52084" lon="5.79591">
        <ele>596</ele>
        <time>2021-08-23T14:24:22Z</time>
      </trkpt>
      <trkpt lat="45.52084" lon="5.79596">
        <ele>596.3</ele>
        <time>2021-08-23T14:24:23Z</time>
      </trkpt>
      <trkpt lat="45.52085" lon="5.79604">
        <ele>596.6</ele>
        <time>2021-08-23T14:24:25Z</time>
      </trkpt>
      <trkpt lat="45.52086" lon="5.79607">
        <ele>596.8</ele>
        <time>2021-08-23T14:24:26Z</time>
      </trkpt>
      <trkpt lat="45.52086" lon="5.7961">
        <ele>596.9</ele>
        <time>2021-08-23T14:24:27Z</time>
      </trkpt>
      <trkpt lat="45.52087" lon="5.79614">
        <ele>597.1</ele>
        <time>2021-08-23T14:24:28Z</time>
      </trkpt>
      <trkpt lat="45.52088" lon="5.79618">
        <ele>597.2</ele>
        <time>2021-08-23T14:24:29Z</time>
      </trkpt>
      <trkpt lat="45.52089" lon="5.79622">
        <ele>597.4</ele>
        <time>2021-08-23T14:24:31Z</time>
      </trkpt>
      <trkpt lat="45.52089" lon="5.79623">
        <ele>597.4</ele>
        <time>2021-08-23T14:24:32Z</time>
      </trkpt>
      <trkpt lat="45.52089" lon="5.79628">
        <ele>597.6</ele>
        <time>2021-08-23T14:24:34Z</time>
      </trkpt>
      <trkpt lat="45.5209" lon="5.79633">
        <ele>597.7</ele>
        <time>2021-08-23T14:24:35Z</time>
      </trkpt>
      <trkpt lat="45.5209" lon="5.79635">
        <ele>597.8</ele>
        <time>2021-08-23T14:24:36Z</time>
      </trkpt>
      <trkpt lat="45.5209" lon="5.79639">
        <ele>597.9</ele>
        <time>2021-08-23T14:24:37Z</time>
      </trkpt>
      <trkpt lat="45.5209" lon="5.79641">
        <ele>597.9</ele>
        <time>2021-08-23T14:24:38Z</time>
      </trkpt>
      <trkpt lat="45.52091" lon="5.79643">
        <ele>598</ele>
        <time>2021-08-23T14:24:39Z</time>
      </trkpt>
      <trkpt lat="45.52092" lon="5.79643">
        <ele>598</ele>
        <time>2021-08-23T14:24:40Z</time>
      </trkpt>
      <trkpt lat="45.52093" lon="5.79643">
        <ele>598.1</ele>
        <time>2021-08-23T14:24:41Z</time>
      </trkpt>
      <trkpt lat="45.52093" lon="5.79644">
        <ele>598.1</ele>
        <time>2021-08-23T14:24:42Z</time>
      </trkpt>
      <trkpt lat="45.52093" lon="5.79644">
        <ele>598.1</ele>
        <time>2021-08-23T14:24:43Z</time>
      </trkpt>
      <trkpt lat="45.52093" lon="5.79644">
        <ele>598.1</ele>
        <time>2021-08-23T14:24:44Z</time>
      </trkpt>
      <trkpt lat="45.52094" lon="5.79645">
        <ele>598.1</ele>
        <time>2021-08-23T14:24:45Z</time>
      </trkpt>
      <trkpt lat="45.52094" lon="5.79646">
        <ele>598.2</ele>
        <time>2021-08-23T14:24:47Z</time>
      </trkpt>
      <trkpt lat="45.52095" lon="5.79646">
        <ele>598.2</ele>
        <time>2021-08-23T14:24:48Z</time>
      </trkpt>
      <trkpt lat="45.52095" lon="5.79648">
        <ele>598.2</ele>
        <time>2021-08-23T14:24:49Z</time>
      </trkpt>
      <trkpt lat="45.52074" lon="5.79746">
        <ele>603.7</ele>
        <time>2021-08-23T14:25:37Z</time>
      </trkpt>
      <trkpt lat="45.52075" lon="5.79751">
        <ele>604</ele>
        <time>2021-08-23T14:25:38Z</time>
      </trkpt>
      <trkpt lat="45.52076" lon="5.79756">
        <ele>604.3</ele>
        <time>2021-08-23T14:25:40Z</time>
      </trkpt>
      <trkpt lat="45.52079" lon="5.79761">
        <ele>604.7</ele>
        <time>2021-08-23T14:25:41Z</time>
      </trkpt>
      <trkpt lat="45.52079" lon="5.79766">
        <ele>605</ele>
        <time>2021-08-23T14:25:42Z</time>
      </trkpt>
      <trkpt lat="45.5208" lon="5.7977">
        <ele>605.2</ele>
        <time>2021-08-23T14:25:43Z</time>
      </trkpt>
      <trkpt lat="45.5208" lon="5.79772">
        <ele>605.3</ele>
        <time>2021-08-23T14:25:44Z</time>
      </trkpt>
      <trkpt lat="45.52081" lon="5.79776">
        <ele>605.5</ele>
        <time>2021-08-23T14:25:45Z</time>
      </trkpt>
      <trkpt lat="45.52082" lon="5.79778">
        <ele>605.6</ele>
        <time>2021-08-23T14:25:46Z</time>
      </trkpt>
      <trkpt lat="45.52082" lon="5.79781">
        <ele>605.8</ele>
        <time>2021-08-23T14:25:47Z</time>
      </trkpt>
      <trkpt lat="45.52082" lon="5.79782">
        <ele>605.8</ele>
        <time>2021-08-23T14:25:48Z</time>
      </trkpt>
      <trkpt lat="45.52083" lon="5.79787">
        <ele>606.1</ele>
        <time>2021-08-23T14:25:50Z</time>
      </trkpt>
      <trkpt lat="45.52083" lon="5.79788">
        <ele>606.1</ele>
        <time>2021-08-23T14:25:51Z</time>
      </trkpt>
      <trkpt lat="45.52083" lon="5.7979">
        <ele>606.2</ele>
        <time>2021-08-23T14:25:52Z</time>
      </trkpt>
      <trkpt lat="45.52084" lon="5.79793">
        <ele>606.3</ele>
        <time>2021-08-23T14:25:53Z</time>
      </trkpt>
      <trkpt lat="45.52084" lon="5.79795">
        <ele>606.4</ele>
        <time>2021-08-23T14:25:54Z</time>
      </trkpt>
      <trkpt lat="45.52084" lon="5.79796">
        <ele>606.5</ele>
        <time>2021-08-23T14:25:55Z</time>
      </trkpt>
      <trkpt lat="45.52084" lon="5.79797">
        <ele>606.5</ele>
        <time>2021-08-23T14:25:56Z</time>
      </trkpt>
      <trkpt lat="45.52085" lon="5.79798">
        <ele>606.6</ele>
        <time>2021-08-23T14:25:57Z</time>
      </trkpt>
      <trkpt lat="45.52084" lon="5.79801">
        <ele>606.7</ele>
        <time>2021-08-23T14:25:59Z</time>
      </trkpt>
      <trkpt lat="45.52085" lon="5.79802">
        <ele>606.8</ele>
        <time>2021-08-23T14:26:00Z</time>
      </trkpt>
      <trkpt lat="45.52085" lon="5.79804">
        <ele>606.9</ele>
        <time>2021-08-23T14:26:01Z</time>
      </trkpt>
      <trkpt lat="45.52086" lon="5.7981">
        <ele>607.2</ele>
        <time>2021-08-23T14:26:02Z</time>
      </trkpt>
      <trkpt lat="45.52086" lon="5.79811">
        <ele>607.2</ele>
        <time>2021-08-23T14:26:04Z</time>
      </trkpt>
      <trkpt lat="45.52086" lon="5.79811">
        <ele>607.3</ele>
        <time>2021-08-23T14:26:05Z</time>
      </trkpt>
      <trkpt lat="45.52086" lon="5.7981">
        <ele>607.3</ele>
        <time>2021-08-23T14:26:07Z</time>
      </trkpt>
      <trkpt lat="45.52086" lon="5.7981">
        <ele>607.3</ele>
        <time>2021-08-23T14:26:09Z</time>
      </trkpt>
      <trkpt lat="45.52085" lon="5.79809">
        <ele>607.4</ele>
        <time>2021-08-23T14:26:11Z</time>
      </trkpt>
      <trkpt lat="45.52085" lon="5.79809">
        <ele>607.4</ele>
        <time>2021-08-23T14:26:12Z</time>
      </trkpt>
      <trkpt lat="45.52093" lon="5.79853">
        <ele>610.6</ele>
        <time>2021-08-23T14:26:52Z</time>
      </trkpt>
      <trkpt lat="45.52095" lon="5.79852">
        <ele>610.8</ele>
        <time>2021-08-23T14:26:53Z</time>
      </trkpt>
      <trkpt lat="45.521" lon="5.79856">
        <ele>611.5</ele>
        <time>2021-08-23T14:26:55Z</time>
      </trkpt>
      <trkpt lat="45.52109" lon="5.79863">
        <ele>612.8</ele>
        <time>2021-08-23T14:26:56Z</time>
      </trkpt>
      <trkpt lat="45.52115" lon="5.79868">
        <ele>613.7</ele>
        <time>2021-08-23T14:26:57Z</time>
      </trkpt>
      <trkpt lat="45.52117" lon="5.79872">
        <ele>614.1</ele>
        <time>2021-08-23T14:26:59Z</time>
      </trkpt>
      <trkpt lat="45.52119" lon="5.79875">
        <ele>614.5</ele>
        <time>2021-08-23T14:27:00Z</time>
      </trkpt>
      <trkpt lat="45.52119" lon="5.79878">
        <ele>614.8</ele>
        <time>2021-08-23T14:27:01Z</time>
      </trkpt>
      <trkpt lat="45.52118" lon="5.7988">
        <ele>614.9</ele>
        <time>2021-08-23T14:27:02Z</time>
      </trkpt>
      <trkpt lat="45.52116" lon="5.79879">
        <ele>615.1</ele>
        <time>2021-08-23T14:27:04Z</time>
      </trkpt>
      <trkpt lat="45.52116" lon="5.79879">
        <ele>615.2</ele>
        <time>2021-08-23T14:27:05Z</time>
      </trkpt>
      <trkpt lat="45.52116" lon="5.79879">
        <ele>615.2</ele>
        <time>2021-08-23T14:27:07Z</time>
      </trkpt>
      <trkpt lat="45.52115" lon="5.7988">
        <ele>615.3</ele>
        <time>2021-08-23T14:27:08Z</time>
      </trkpt>
      <trkpt lat="45.52114" lon="5.7988">
        <ele>615.5</ele>
        <time>2021-08-23T14:27:10Z</time>
      </trkpt>
      <trkpt lat="45.52113" lon="5.79881">
        <ele>615.6</ele>
        <time>2021-08-23T14:27:11Z</time>
      </trkpt>
      <trkpt lat="45.52127" lon="5.80063">
        <ele>631.3</ele>
        <time>2021-08-23T14:30:07Z</time>
      </trkpt>
      <trkpt lat="45.52125" lon="5.80066">
        <ele>631.6</ele>
        <time>2021-08-23T14:30:08Z</time>
      </trkpt>
      <trkpt lat="45.52122" lon="5.80068">
        <ele>631.9</ele>
        <time>2021-08-23T14:30:09Z</time>
      </trkpt>
      <trkpt lat="45.5212" lon="5.80068">
        <ele>632</ele>
        <time>2021-08-23T14:30:10Z</time>
      </trkpt>
      <trkpt lat="45.52118" lon="5.80068">
        <ele>632.1</ele>
        <time>2021-08-23T14:30:11Z</time>
      </trkpt>
      <trkpt lat="45.52116" lon="5.80068">
        <ele>632.3</ele>
        <time>2021-08-23T14:30:13Z</time>
      </trkpt>
      <trkpt lat="45.52115" lon="5.80068">
        <ele>632.4</ele>
        <time>2021-08-23T14:30:14Z</time>
      </trkpt>
      <trkpt lat="45.52114" lon="5.80069">
        <ele>632.4</ele>
        <time>2021-08-23T14:30:15Z</time>
      </trkpt>
      <trkpt lat="45.52113" lon="5.80069">
        <ele>632.5</ele>
        <time>2021-08-23T14:30:16Z</time>
      </trkpt>
      <trkpt lat="45.52112" lon="5.80071">
        <ele>632.5</ele>
        <time>2021-08-23T14:30:17Z</time>
      </trkpt>
      <trkpt lat="45.52112" lon="5.80072">
        <ele>632.5</ele>
        <time>2021-08-23T14:30:18Z</time>
      </trkpt>
      <trkpt lat="45.52109" lon="5.80077">
        <ele>632.7</ele>
        <time>2021-08-23T14:30:20Z</time>
      </trkpt>
      <trkpt lat="45.52106" lon="5.80079">
        <ele>632.8</ele>
        <time>2021-08-23T14:30:21Z</time>
      </trkpt>
      <trkpt lat="45.52105" lon="5.8008">
        <ele>632.8</ele>
        <time>2021-08-23T14:30:22Z</time>
      </trkpt>
      <trkpt lat="45.52102" lon="5.80084">
        <ele>632.9</ele>
        <time>2021-08-23T14:30:23Z</time>
      </trkpt>
      <trkpt lat="45.52098" lon="5.80093">
        <ele>633</ele>
        <time>2021-08-23T14:30:26Z</time>
      </trkpt>
      <trkpt lat="45.52095" lon="5.80099">
        <ele>633.1</ele>
        <time>2021-08-23T14:30:28Z</time>
      </trkpt>
      <trkpt lat="45.52092" lon="5.80103">
        <ele>633.2</ele>
        <time>2021-08-23T14:30:29Z</time>
      </trkpt>
      <trkpt lat="45.5209" lon="5.80105">
        <ele>633.2</ele>
        <time>2021-08-23T14:30:30Z</time>
      </trkpt>
      <trkpt lat="45.52087" lon="5.80107">
        <ele>633.2</ele>
        <time>2021-08-23T14:30:31Z</time>
      </trkpt>
      <trkpt lat="45.52086" lon="5.80108">
        <ele>633.3</ele>
        <time>2021-08-23T14:30:32Z</time>
      </trkpt>
      <trkpt lat="45.52083" lon="5.80111">
        <ele>633.3</ele>
        <time>2021-08-23T14:30:34Z</time>
      </trkpt>
      <trkpt lat="45.5208" lon="5.80113">
        <ele>633.3</ele>
        <time>2021-08-23T14:30:35Z</time>
      </trkpt>
      <trkpt lat="45.52078" lon="5.80116">
        <ele>633.3</ele>
        <time>2021-08-23T14:30:36Z</time>
      </trkpt>
      <trkpt lat="45.52075" lon="5.80118">
        <ele>633.4</ele>
        <time>2021-08-23T14:30:38Z</time>
      </trkpt>
      <trkpt lat="45.52074" lon="5.80118">
        <ele>633.4</ele>
        <time>2021-08-23T14:30:39Z</time>
      </trkpt>
      <trkpt lat="45.52072" lon="5.8012">
        <ele>633.4</ele>
        <time>2021-08-23T14:30:40Z</time>
      </trkpt>
      <trkpt lat="45.5207" lon="5.8012">
        <ele>633.4</ele>
        <time>2021-08-23T14:30:41Z</time>
      </trkpt>
      <trkpt lat="45.52067" lon="5.80121">
        <ele>633.5</ele>
        <time>2021-08-23T14:30:42Z</time>
      </trkpt>
      <trkpt lat="45.52066" lon="5.80121">
        <ele>633.5</ele>
        <time>2021-08-23T14:30:43Z</time>
      </trkpt>
      <trkpt lat="45.52065" lon="5.80121">
        <ele>633.5</ele>
        <time>2021-08-23T14:30:45Z</time>
      </trkpt>
      <trkpt lat="45.52062" lon="5.8012">
        <ele>633.6</ele>
        <time>2021-08-23T14:30:47Z</time>
      </trkpt>
      <trkpt lat="45.52061" lon="5.80122">
        <ele>633.6</ele>
        <time>2021-08-23T14:30:49Z</time>
      </trkpt>
      <trkpt lat="45.52061" lon="5.80125">
        <ele>633.7</ele>
        <time>2021-08-23T14:30:50Z</time>
      </trkpt>
      <trkpt lat="45.52062" lon="5.80128">
        <ele>633.7</ele>
        <time>2021-08-23T14:30:51Z</time>
      </trkpt>
      <trkpt lat="45.52064" lon="5.80132">
        <ele>633.9</ele>
        <time>2021-08-23T14:30:52Z</time>
      </trkpt>
      <trkpt lat="45.52065" lon="5.80134">
        <ele>633.9</ele>
        <time>2021-08-23T14:30:53Z</time>
      </trkpt>
      <trkpt lat="45.52067" lon="5.8014">
        <ele>634.1</ele>
        <time>2021-08-23T14:30:55Z</time>
      </trkpt>
      <trkpt lat="45.52068" lon="5.80143">
        <ele>634.2</ele>
        <time>2021-08-23T14:30:56Z</time>
      </trkpt>
      <trkpt lat="45.52069" lon="5.80146">
        <ele>634.4</ele>
        <time>2021-08-23T14:30:57Z</time>
      </trkpt>
      <trkpt lat="45.5207" lon="5.80149">
        <ele>634.5</ele>
        <time>2021-08-23T14:30:58Z</time>
      </trkpt>
      <trkpt lat="45.5207" lon="5.80152">
        <ele>634.6</ele>
        <time>2021-08-23T14:31:00Z</time>
      </trkpt>
      <trkpt lat="45.52071" lon="5.80157">
        <ele>634.8</ele>
        <time>2021-08-23T14:31:01Z</time>
      </trkpt>
      <trkpt lat="45.52073" lon="5.80159">
        <ele>635</ele>
        <time>2021-08-23T14:31:02Z</time>
      </trkpt>
      <trkpt lat="45.52073" lon="5.80158">
        <ele>635</ele>
        <time>2021-08-23T14:31:03Z</time>
      </trkpt>
      <trkpt lat="45.52074" lon="5.80157">
        <ele>635.1</ele>
        <time>2021-08-23T14:31:04Z</time>
      </trkpt>
      <trkpt lat="45.52076" lon="5.80155">
        <ele>635.3</ele>
        <time>2021-08-23T14:31:05Z</time>
      </trkpt>
      <trkpt lat="45.52077" lon="5.80154">
        <ele>635.4</ele>
        <time>2021-08-23T14:31:07Z</time>
      </trkpt>
      <trkpt lat="45.52078" lon="5.80154">
        <ele>635.4</ele>
        <time>2021-08-23T14:31:08Z</time>
      </trkpt>
      <trkpt lat="45.52079" lon="5.80154">
        <ele>635.5</ele>
        <time>2021-08-23T14:31:10Z</time>
      </trkpt>
      <trkpt lat="45.52079" lon="5.80154">
        <ele>635.6</ele>
        <time>2021-08-23T14:31:11Z</time>
      </trkpt>
      <trkpt lat="45.52102" lon="5.80445">
        <ele>657.7</ele>
        <time>2021-08-23T14:34:15Z</time>
      </trkpt>
      <trkpt lat="45.52102" lon="5.80448">
        <ele>657.8</ele>
        <time>2021-08-23T14:34:16Z</time>
      </trkpt>
      <trkpt lat="45.52102" lon="5.80451">
        <ele>658</ele>
        <time>2021-08-23T14:34:18Z</time>
      </trkpt>
      <trkpt lat="45.52102" lon="5.80454">
        <ele>658.1</ele>
        <time>2021-08-23T14:34:19Z</time>
      </trkpt>
      <trkpt lat="45.52102" lon="5.80456">
        <ele>658.2</ele>
        <time>2021-08-23T14:34:21Z</time>
      </trkpt>
      <trkpt lat="45.52102" lon="5.80456">
        <ele>658.2</ele>
        <time>2021-08-23T14:34:22Z</time>
      </trkpt>
      <trkpt lat="45.52102" lon="5.80457">
        <ele>658.3</ele>
        <time>2021-08-23T14:34:23Z</time>
      </trkpt>
      <trkpt lat="45.52102" lon="5.8046">
        <ele>658.4</ele>
        <time>2021-08-23T14:34:25Z</time>
      </trkpt>
      <trkpt lat="45.52101" lon="5.80463">
        <ele>658.5</ele>
        <time>2021-08-23T14:34:26Z</time>
      </trkpt>
      <trkpt lat="45.52092" lon="5.805">
        <ele>660.2</ele>
        <time>2021-08-23T14:35:03Z</time>
      </trkpt>
      <trkpt lat="45.52089" lon="5.8051">
        <ele>660.6</ele>
        <time>2021-08-23T14:35:05Z</time>
      </trkpt>
      <trkpt lat="45.52087" lon="5.80515">
        <ele>660.9</ele>
        <time>2021-08-23T14:35:06Z</time>
      </trkpt>
      <trkpt lat="45.52085" lon="5.80529">
        <ele>661.4</ele>
        <time>2021-08-23T14:35:08Z</time>
      </trkpt>
      <trkpt lat="45.52088" lon="5.8053">
        <ele>661.6</ele>
        <time>2021-08-23T14:35:09Z</time>
      </trkpt>
      <trkpt lat="45.52092" lon="5.8053">
        <ele>661.8</ele>
        <time>2021-08-23T14:35:11Z</time>
      </trkpt>
      <trkpt lat="45.52092" lon="5.8053">
        <ele>661.8</ele>
        <time>2021-08-23T14:35:12Z</time>
      </trkpt>
      <trkpt lat="45.52094" lon="5.8053">
        <ele>662</ele>
        <time>2021-08-23T14:35:13Z</time>
      </trkpt>
      <trkpt lat="45.52107" lon="5.80528">
        <ele>662.7</ele>
        <time>2021-08-23T14:35:14Z</time>
      </trkpt>
      <trkpt lat="45.52117" lon="5.80526">
        <ele>663.2</ele>
        <time>2021-08-23T14:35:16Z</time>
      </trkpt>
      <trkpt lat="45.52133" lon="5.80525">
        <ele>664.1</ele>
        <time>2021-08-23T14:35:22Z</time>
      </trkpt>
      <trkpt lat="45.52136" lon="5.80526">
        <ele>664.3</ele>
        <time>2021-08-23T14:35:23Z</time>
      </trkpt>
      <trkpt lat="45.52138" lon="5.80527">
        <ele>664.4</ele>
        <time>2021-08-23T14:35:24Z</time>
      </trkpt>
      <trkpt lat="45.5214" lon="5.80527">
        <ele>664.5</ele>
        <time>2021-08-23T14:35:26Z</time>
      </trkpt>
      <trkpt lat="45.52143" lon="5.80525">
        <ele>664.7</ele>
        <time>2021-08-23T14:35:28Z</time>
      </trkpt>
      <trkpt lat="45.52147" lon="5.80523">
        <ele>664.9</ele>
        <time>2021-08-23T14:35:29Z</time>
      </trkpt>
      <trkpt lat="45.52149" lon="5.80522">
        <ele>665.1</ele>
        <time>2021-08-23T14:35:30Z</time>
      </trkpt>
      <trkpt lat="45.52151" lon="5.80522">
        <ele>665.2</ele>
        <time>2021-08-23T14:35:32Z</time>
      </trkpt>
      <trkpt lat="45.52152" lon="5.80522">
        <ele>665.3</ele>
        <time>2021-08-23T14:35:33Z</time>
      </trkpt>
      <trkpt lat="45.52138" lon="5.80553">
        <ele>666.9</ele>
        <time>2021-08-23T14:36:23Z</time>
      </trkpt>
      <trkpt lat="45.52139" lon="5.80573">
        <ele>667.8</ele>
        <time>2021-08-23T14:36:29Z</time>
      </trkpt>
      <trkpt lat="45.52139" lon="5.80577">
        <ele>668</ele>
        <time>2021-08-23T14:36:35Z</time>
      </trkpt>
      <trkpt lat="45.52194" lon="5.80635">
        <ele>672.2</ele>
        <time>2021-08-23T14:37:06Z</time>
      </trkpt>
      <trkpt lat="45.52196" lon="5.80633">
        <ele>672.3</ele>
        <time>2021-08-23T14:37:07Z</time>
      </trkpt>
      <trkpt lat="45.52197" lon="5.8063">
        <ele>672.4</ele>
        <time>2021-08-23T14:37:08Z</time>
      </trkpt>
      <trkpt lat="45.52196" lon="5.80628">
        <ele>672.5</ele>
        <time>2021-08-23T14:37:09Z</time>
      </trkpt>
      <trkpt lat="45.52197" lon="5.80627">
        <ele>672.6</ele>
        <time>2021-08-23T14:37:11Z</time>
      </trkpt>
      <trkpt lat="45.52199" lon="5.80627">
        <ele>672.6</ele>
        <time>2021-08-23T14:37:12Z</time>
      </trkpt>
      <trkpt lat="45.52199" lon="5.8063">
        <ele>672.7</ele>
        <time>2021-08-23T14:37:14Z</time>
      </trkpt>
      <trkpt lat="45.52199" lon="5.80632">
        <ele>672.8</ele>
        <time>2021-08-23T14:37:15Z</time>
      </trkpt>
      <trkpt lat="45.52197" lon="5.80637">
        <ele>673</ele>
        <time>2021-08-23T14:37:17Z</time>
      </trkpt>
      <trkpt lat="45.52195" lon="5.80637">
        <ele>673.1</ele>
        <time>2021-08-23T14:37:18Z</time>
      </trkpt>
      <trkpt lat="45.52196" lon="5.80685">
        <ele>674.7</ele>
        <time>2021-08-23T14:39:01Z</time>
      </trkpt>
      <trkpt lat="45.52195" lon="5.8068">
        <ele>674.8</ele>
        <time>2021-08-23T14:39:02Z</time>
      </trkpt>
      <trkpt lat="45.52195" lon="5.80677">
        <ele>674.9</ele>
        <time>2021-08-23T14:39:03Z</time>
      </trkpt>
      <trkpt lat="45.52194" lon="5.80676">
        <ele>675</ele>
        <time>2021-08-23T14:39:04Z</time>
      </trkpt>
      <trkpt lat="45.52192" lon="5.80674">
        <ele>675.1</ele>
        <time>2021-08-23T14:39:05Z</time>
      </trkpt>
      <trkpt lat="45.5219" lon="5.80673">
        <ele>675.2</ele>
        <time>2021-08-23T14:39:07Z</time>
      </trkpt>
      <trkpt lat="45.52188" lon="5.80674">
        <ele>675.9</ele>
        <time>2021-08-23T14:39:08Z</time>
      </trkpt>
      <trkpt lat="45.52187" lon="5.80675">
        <ele>675.9</ele>
        <time>2021-08-23T14:39:10Z</time>
      </trkpt>
      <trkpt lat="45.52185" lon="5.80675">
        <ele>677.9</ele>
        <time>2021-08-23T14:39:11Z</time>
      </trkpt>
      <trkpt lat="45.52184" lon="5.80675">
        <ele>677.9</ele>
        <time>2021-08-23T14:39:12Z</time>
      </trkpt>
      <trkpt lat="45.52182" lon="5.80675">
        <ele>678.6</ele>
        <time>2021-08-23T14:39:13Z</time>
      </trkpt>
      <trkpt lat="45.52181" lon="5.80675">
        <ele>678.7</ele>
        <time>2021-08-23T14:39:15Z</time>
      </trkpt>
      <trkpt lat="45.52179" lon="5.80676">
        <ele>679.5</ele>
        <time>2021-08-23T14:39:16Z</time>
      </trkpt>
      <trkpt lat="45.52178" lon="5.80676">
        <ele>679.5</ele>
        <time>2021-08-23T14:39:18Z</time>
      </trkpt>
      <trkpt lat="45.52176" lon="5.80676">
        <ele>680.3</ele>
        <time>2021-08-23T14:39:19Z</time>
      </trkpt>
      <trkpt lat="45.52175" lon="5.80676">
        <ele>680.3</ele>
        <time>2021-08-23T14:39:20Z</time>
      </trkpt>
      <trkpt lat="45.52173" lon="5.80676">
        <ele>681.9</ele>
        <time>2021-08-23T14:39:21Z</time>
      </trkpt>
      <trkpt lat="45.52172" lon="5.80677">
        <ele>681.9</ele>
        <time>2021-08-23T14:39:22Z</time>
      </trkpt>
      <trkpt lat="45.5217" lon="5.80677">
        <ele>682.9</ele>
        <time>2021-08-23T14:39:33Z</time>
      </trkpt>
      <trkpt lat="45.52169" lon="5.80677">
        <ele>682.9</ele>
        <time>2021-08-23T14:39:34Z</time>
      </trkpt>
      <trkpt lat="45.52167" lon="5.80677">
        <ele>684.1</ele>
        <time>2021-08-23T14:39:35Z</time>
      </trkpt>
      <trkpt lat="45.52165" lon="5.80678">
        <ele>685.3</ele>
        <time>2021-08-23T14:39:37Z</time>
      </trkpt>
      <trkpt lat="45.52164" lon="5.80678">
        <ele>685.3</ele>
        <time>2021-08-23T14:39:38Z</time>
      </trkpt>
      <trkpt lat="45.52163" lon="5.80678">
        <ele>685.3</ele>
        <time>2021-08-23T14:39:39Z</time>
      </trkpt>
      <trkpt lat="45.52161" lon="5.80678">
        <ele>686.5</ele>
        <time>2021-08-23T14:39:40Z</time>
      </trkpt>
      <trkpt lat="45.5216" lon="5.80678">
        <ele>686.6</ele>
        <time>2021-08-23T14:39:42Z</time>
      </trkpt>
      <trkpt lat="45.52159" lon="5.80677">
        <ele>686.6</ele>
        <time>2021-08-23T14:39:43Z</time>
      </trkpt>
      <trkpt lat="45.52159" lon="5.80676">
        <ele>686.7</ele>
        <time>2021-08-23T14:39:44Z</time>
      </trkpt>
      <trkpt lat="45.52158" lon="5.80675">
        <ele>686.8</ele>
        <time>2021-08-23T14:39:46Z</time>
      </trkpt>
      <trkpt lat="45.52157" lon="5.80675">
        <ele>686.9</ele>
        <time>2021-08-23T14:39:47Z</time>
      </trkpt>
      <trkpt lat="45.521" lon="5.80596">
        <ele>695</ele>
        <time>2021-08-23T14:41:07Z</time>
      </trkpt>
      <trkpt lat="45.52099" lon="5.80595">
        <ele>695.1</ele>
        <time>2021-08-23T14:41:08Z</time>
      </trkpt>
      <trkpt lat="45.52099" lon="5.80593">
        <ele>695.2</ele>
        <time>2021-08-23T14:41:09Z</time>
      </trkpt>
      <trkpt lat="45.52098" lon="5.8059">
        <ele>695.4</ele>
        <time>2021-08-23T14:41:11Z</time>
      </trkpt>
      <trkpt lat="45.52097" lon="5.80589">
        <ele>695.6</ele>
        <time>2021-08-23T14:41:12Z</time>
      </trkpt>
      <trkpt lat="45.52096" lon="5.80588">
        <ele>695.7</ele>
        <time>2021-08-23T14:41:13Z</time>
      </trkpt>
      <trkpt lat="45.52095" lon="5.80585">
        <ele>695.9</ele>
        <time>2021-08-23T14:41:15Z</time>
      </trkpt>
      <trkpt lat="45.52095" lon="5.80583">
        <ele>696</ele>
        <time>2021-08-23T14:41:16Z</time>
      </trkpt>
      <trkpt lat="45.52096" lon="5.80581">
        <ele>696.2</ele>
        <time>2021-08-23T14:41:17Z</time>
      </trkpt>
      <trkpt lat="45.52096" lon="5.8058">
        <ele>696.2</ele>
        <time>2021-08-23T14:41:18Z</time>
      </trkpt>
      <trkpt lat="45.52096" lon="5.80578">
        <ele>696.3</ele>
        <time>2021-08-23T14:41:19Z</time>
      </trkpt>
      <trkpt lat="45.52096" lon="5.80577">
        <ele>696.4</ele>
        <time>2021-08-23T14:41:21Z</time>
      </trkpt>
      <trkpt lat="45.52096" lon="5.80577">
        <ele>696.4</ele>
        <time>2021-08-23T14:41:22Z</time>
      </trkpt>
      <trkpt lat="45.52095" lon="5.80576">
        <ele>696.4</ele>
        <time>2021-08-23T14:41:23Z</time>
      </trkpt>
      <trkpt lat="45.52095" lon="5.80576">
        <ele>696.4</ele>
        <time>2021-08-23T14:41:25Z</time>
      </trkpt>
      <trkpt lat="45.52095" lon="5.80576">
        <ele>696.5</ele>
        <time>2021-08-23T14:41:26Z</time>
      </trkpt>
      <trkpt lat="45.52095" lon="5.80576">
        <ele>696.5</ele>
        <time>2021-08-23T14:41:27Z</time>
      </trkpt>
      <trkpt lat="45.52095" lon="5.80576">
        <ele>696.5</ele>
        <time>2021-08-23T14:41:28Z</time>
      </trkpt>
      <trkpt lat="45.52094" lon="5.80575">
        <ele>696.5</ele>
        <time>2021-08-23T14:41:30Z</time>
      </trkpt>
      <trkpt lat="45.52092" lon="5.80575">
        <ele>696.6</ele>
        <time>2021-08-23T14:41:31Z</time>
      </trkpt>
      <trkpt lat="45.52091" lon="5.80574">
        <ele>696.7</ele>
        <time>2021-08-23T14:41:32Z</time>
      </trkpt>
      <trkpt lat="45.5209" lon="5.80574">
        <ele>696.8</ele>
        <time>2021-08-23T14:41:33Z</time>
      </trkpt>
      <trkpt lat="45.52017" lon="5.80518">
        <ele>704.4</ele>
        <time>2021-08-23T14:42:51Z</time>
      </trkpt>
      <trkpt lat="45.52016" lon="5.80513">
        <ele>704.7</ele>
        <time>2021-08-23T14:42:52Z</time>
      </trkpt>
      <trkpt lat="45.52016" lon="5.8051">
        <ele>705</ele>
        <time>2021-08-23T14:42:53Z</time>
      </trkpt>
      <trkpt lat="45.52015" lon="5.80506">
        <ele>705.2</ele>
        <time>2021-08-23T14:42:55Z</time>
      </trkpt>
      <trkpt lat="45.52013" lon="5.80501">
        <ele>705.7</ele>
        <time>2021-08-23T14:42:56Z</time>
      </trkpt>
      <trkpt lat="45.52011" lon="5.80495">
        <ele>706.2</ele>
        <time>2021-08-23T14:42:57Z</time>
      </trkpt>
      <trkpt lat="45.5201" lon="5.80492">
        <ele>706.4</ele>
        <time>2021-08-23T14:42:58Z</time>
      </trkpt>
      <trkpt lat="45.52007" lon="5.80489">
        <ele>706.8</ele>
        <time>2021-08-23T14:43:00Z</time>
      </trkpt>
      <trkpt lat="45.52005" lon="5.80488">
        <ele>707</ele>
        <time>2021-08-23T14:43:01Z</time>
      </trkpt>
      <trkpt lat="45.52004" lon="5.80487">
        <ele>707.2</ele>
        <time>2021-08-23T14:43:02Z</time>
      </trkpt>
      <trkpt lat="45.52002" lon="5.80485">
        <ele>707.4</ele>
        <time>2021-08-23T14:43:04Z</time>
      </trkpt>
      <trkpt lat="45.52001" lon="5.80485">
        <ele>707.5</ele>
        <time>2021-08-23T14:43:05Z</time>
      </trkpt>
      <trkpt lat="45.52001" lon="5.80484">
        <ele>707.5</ele>
        <time>2021-08-23T14:43:06Z</time>
      </trkpt>
      <trkpt lat="45.52" lon="5.80484">
        <ele>707.6</ele>
        <time>2021-08-23T14:43:07Z</time>
      </trkpt>
      <trkpt lat="45.52" lon="5.80483">
        <ele>707.7</ele>
        <time>2021-08-23T14:43:09Z</time>
      </trkpt>
      <trkpt lat="45.52" lon="5.80482">
        <ele>707.7</ele>
        <time>2021-08-23T14:43:10Z</time>
      </trkpt>
      <trkpt lat="45.52" lon="5.80481">
        <ele>707.8</ele>
        <time>2021-08-23T14:43:11Z</time>
      </trkpt>
      <trkpt lat="45.52001" lon="5.8048">
        <ele>707.9</ele>
        <time>2021-08-23T14:43:12Z</time>
      </trkpt>
      <trkpt lat="45.52002" lon="5.80478">
        <ele>708.1</ele>
        <time>2021-08-23T14:43:13Z</time>
      </trkpt>
      <trkpt lat="45.52002" lon="5.80477">
        <ele>708.2</ele>
        <time>2021-08-23T14:43:15Z</time>
      </trkpt>
      <trkpt lat="45.52003" lon="5.80476">
        <ele>708.3</ele>
        <time>2021-08-23T14:43:16Z</time>
      </trkpt>
      <trkpt lat="45.51944" lon="5.80396">
        <ele>715.6</ele>
        <time>2021-08-23T14:44:16Z</time>
      </trkpt>
      <trkpt lat="45.51942" lon="5.80391">
        <ele>716</ele>
        <time>2021-08-23T14:44:17Z</time>
      </trkpt>
      <trkpt lat="45.51939" lon="5.8039">
        <ele>716.4</ele>
        <time>2021-08-23T14:44:18Z</time>
      </trkpt>
      <trkpt lat="45.51936" lon="5.8039">
        <ele>716.7</ele>
        <time>2021-08-23T14:44:19Z</time>
      </trkpt>
      <trkpt lat="45.51935" lon="5.80391">
        <ele>716.9</ele>
        <time>2021-08-23T14:44:21Z</time>
      </trkpt>
      <trkpt lat="45.5193" lon="5.80394">
        <ele>717.5</ele>
        <time>2021-08-23T14:44:22Z</time>
      </trkpt>
      <trkpt lat="45.51928" lon="5.80394">
        <ele>717.7</ele>
        <time>2021-08-23T14:44:23Z</time>
      </trkpt>
      <trkpt lat="45.51927" lon="5.80394">
        <ele>717.8</ele>
        <time>2021-08-23T14:44:24Z</time>
      </trkpt>
      <trkpt lat="45.51923" lon="5.80386">
        <ele>718.6</ele>
        <time>2021-08-23T14:44:26Z</time>
      </trkpt>
      <trkpt lat="45.51921" lon="5.80378">
        <ele>719.3</ele>
        <time>2021-08-23T14:44:28Z</time>
      </trkpt>
      <trkpt lat="45.51919" lon="5.8037">
        <ele>720</ele>
        <time>2021-08-23T14:45:02Z</time>
      </trkpt>
      <trkpt lat="45.51916" lon="5.80362">
        <ele>720.8</ele>
        <time>2021-08-23T14:45:04Z</time>
      </trkpt>
      <trkpt lat="45.51914" lon="5.80355">
        <ele>721.6</ele>
        <time>2021-08-23T14:45:05Z</time>
      </trkpt>
      <trkpt lat="45.51911" lon="5.80347">
        <ele>722.3</ele>
        <time>2021-08-23T14:45:06Z</time>
      </trkpt>
      <trkpt lat="45.51909" lon="5.80339">
        <ele>723.1</ele>
        <time>2021-08-23T14:45:07Z</time>
      </trkpt>
      <trkpt lat="45.51908" lon="5.80339">
        <ele>723.2</ele>
        <time>2021-08-23T14:45:09Z</time>
      </trkpt>
      <trkpt lat="45.51906" lon="5.80338">
        <ele>723.4</ele>
        <time>2021-08-23T14:45:11Z</time>
      </trkpt>
      <trkpt lat="45.51906" lon="5.80338">
        <ele>723.5</ele>
        <time>2021-08-23T14:45:12Z</time>
      </trkpt>
      <trkpt lat="45.51905" lon="5.80338">
        <ele>723.5</ele>
        <time>2021-08-23T14:45:13Z</time>
      </trkpt>
      <trkpt lat="45.51905" lon="5.80337">
        <ele>723.6</ele>
        <time>2021-08-23T14:45:14Z</time>
      </trkpt>
      <trkpt lat="45.51659" lon="5.80122">
        <ele>757.2</ele>
        <time>2021-08-23T14:51:30Z</time>
      </trkpt>
      <trkpt lat="45.51657" lon="5.8012">
        <ele>757.3</ele>
        <time>2021-08-23T14:51:31Z</time>
      </trkpt>
      <trkpt lat="45.51656" lon="5.80119">
        <ele>757.5</ele>
        <time>2021-08-23T14:51:33Z</time>
      </trkpt>
      <trkpt lat="45.51654" lon="5.80115">
        <ele>757.7</ele>
        <time>2021-08-23T14:51:35Z</time>
      </trkpt>
      <trkpt lat="45.51653" lon="5.8011">
        <ele>758</ele>
        <time>2021-08-23T14:51:36Z</time>
      </trkpt>
      <trkpt lat="45.5165" lon="5.80107">
        <ele>758.3</ele>
        <time>2021-08-23T14:51:38Z</time>
      </trkpt>
      <trkpt lat="45.51648" lon="5.80106">
        <ele>758.4</ele>
        <time>2021-08-23T14:51:39Z</time>
      </trkpt>
      <trkpt lat="45.51644" lon="5.80106">
        <ele>758.7</ele>
        <time>2021-08-23T14:51:40Z</time>
      </trkpt>
      <trkpt lat="45.51641" lon="5.80106">
        <ele>759</ele>
        <time>2021-08-23T14:51:41Z</time>
      </trkpt>
      <trkpt lat="45.51637" lon="5.80105">
        <ele>759.4</ele>
        <time>2021-08-23T14:51:43Z</time>
      </trkpt>
      <trkpt lat="45.51633" lon="5.80103">
        <ele>759.8</ele>
        <time>2021-08-23T14:51:44Z</time>
      </trkpt>
      <trkpt lat="45.51632" lon="5.80102">
        <ele>759.9</ele>
        <time>2021-08-23T14:51:45Z</time>
      </trkpt>
      <trkpt lat="45.51632" lon="5.80101">
        <ele>760</ele>
        <time>2021-08-23T14:51:46Z</time>
      </trkpt>
      <trkpt lat="45.51631" lon="5.801">
        <ele>760.1</ele>
        <time>2021-08-23T14:51:48Z</time>
      </trkpt>
      <trkpt lat="45.5163" lon="5.801">
        <ele>760.1</ele>
        <time>2021-08-23T14:51:50Z</time>
      </trkpt>
      <trkpt lat="45.5163" lon="5.80099">
        <ele>760.2</ele>
        <time>2021-08-23T14:51:51Z</time>
      </trkpt>
      <trkpt lat="45.51623" lon="5.80084">
        <ele>761.4</ele>
        <time>2021-08-23T14:51:52Z</time>
      </trkpt>
      <trkpt lat="45.51617" lon="5.8007">
        <ele>762.6</ele>
        <time>2021-08-23T14:51:53Z</time>
      </trkpt>
      <trkpt lat="45.51612" lon="5.80055">
        <ele>763.8</ele>
        <time>2021-08-23T14:52:22Z</time>
      </trkpt>
      <trkpt lat="45.51606" lon="5.80041">
        <ele>764.9</ele>
        <time>2021-08-23T14:52:23Z</time>
      </trkpt>
      <trkpt lat="45.51603" lon="5.80038">
        <ele>765.1</ele>
        <time>2021-08-23T14:52:24Z</time>
      </trkpt>
      <trkpt lat="45.51602" lon="5.80037">
        <ele>765.2</ele>
        <time>2021-08-23T14:52:25Z</time>
      </trkpt>
      <trkpt lat="45.51599" lon="5.80035">
        <ele>765.5</ele>
        <time>2021-08-23T14:52:26Z</time>
      </trkpt>
      <trkpt lat="45.51598" lon="5.80035">
        <ele>765.6</ele>
        <time>2021-08-23T14:52:27Z</time>
      </trkpt>
      <trkpt lat="45.51597" lon="5.80034">
        <ele>765.7</ele>
        <time>2021-08-23T14:52:28Z</time>
      </trkpt>
      <trkpt lat="45.51597" lon="5.80034">
        <ele>765.7</ele>
        <time>2021-08-23T14:52:29Z</time>
      </trkpt>
      <trkpt lat="45.51596" lon="5.80033">
        <ele>766.5</ele>
        <time>2021-08-23T14:52:30Z</time>
      </trkpt>
      <trkpt lat="45.51595" lon="5.80033">
        <ele>766.5</ele>
        <time>2021-08-23T14:52:32Z</time>
      </trkpt>
      <trkpt lat="45.51594" lon="5.80033">
        <ele>766.6</ele>
        <time>2021-08-23T14:52:33Z</time>
      </trkpt>
      <trkpt lat="45.51594" lon="5.80033">
        <ele>766.6</ele>
        <time>2021-08-23T14:52:34Z</time>
      </trkpt>
      <trkpt lat="45.51594" lon="5.80033">
        <ele>766.6</ele>
        <time>2021-08-23T14:52:35Z</time>
      </trkpt>
      <trkpt lat="45.51594" lon="5.80033">
        <ele>766.6</ele>
        <time>2021-08-23T14:52:37Z</time>
      </trkpt>
      <trkpt lat="45.51594" lon="5.80033">
        <ele>766.6</ele>
        <time>2021-08-23T14:52:38Z</time>
      </trkpt>
      <trkpt lat="45.51594" lon="5.80032">
        <ele>767.5</ele>
        <time>2021-08-23T14:52:39Z</time>
      </trkpt>
      <trkpt lat="45.51593" lon="5.80032">
        <ele>767.5</ele>
        <time>2021-08-23T14:52:40Z</time>
      </trkpt>
      <trkpt lat="45.51592" lon="5.80031">
        <ele>766.6</ele>
        <time>2021-08-23T14:52:41Z</time>
      </trkpt>
      <trkpt lat="45.51542" lon="5.80018">
        <ele>780</ele>
        <time>2021-08-23T14:59:05Z</time>
      </trkpt>
      <trkpt lat="45.51543" lon="5.80023">
        <ele>780.5</ele>
        <time>2021-08-23T14:59:06Z</time>
      </trkpt>
      <trkpt lat="45.51544" lon="5.80025">
        <ele>780.5</ele>
        <time>2021-08-23T14:59:07Z</time>
      </trkpt>
      <trkpt lat="45.51546" lon="5.80026">
        <ele>779.5</ele>
        <time>2021-08-23T14:59:09Z</time>
      </trkpt>
      <trkpt lat="45.5155" lon="5.80023">
        <ele>778.6</ele>
        <time>2021-08-23T14:59:10Z</time>
      </trkpt>
      <trkpt lat="45.51552" lon="5.80022">
        <ele>777.8</ele>
        <time>2021-08-23T14:59:12Z</time>
      </trkpt>
      <trkpt lat="45.51553" lon="5.80023">
        <ele>777.7</ele>
        <time>2021-08-23T14:59:14Z</time>
      </trkpt>
      <trkpt lat="45.51554" lon="5.80024">
        <ele>777.7</ele>
        <time>2021-08-23T14:59:15Z</time>
      </trkpt>
      <trkpt lat="45.51554" lon="5.80025">
        <ele>777.7</ele>
        <time>2021-08-23T14:59:16Z</time>
      </trkpt>
      <trkpt lat="45.51554" lon="5.80026">
        <ele>777.7</ele>
        <time>2021-08-23T14:59:17Z</time>
      </trkpt>
      <trkpt lat="45.51554" lon="5.80028">
        <ele>778.6</ele>
        <time>2021-08-23T14:59:18Z</time>
      </trkpt>
      <trkpt lat="45.51554" lon="5.80031">
        <ele>778.6</ele>
        <time>2021-08-23T14:59:20Z</time>
      </trkpt>
      <trkpt lat="45.51553" lon="5.80036">
        <ele>780.2</ele>
        <time>2021-08-23T14:59:22Z</time>
      </trkpt>
      <trkpt lat="45.51552" lon="5.8004">
        <ele>781</ele>
        <time>2021-08-23T14:59:23Z</time>
      </trkpt>
      <trkpt lat="45.51552" lon="5.80045">
        <ele>782.8</ele>
        <time>2021-08-23T14:59:25Z</time>
      </trkpt>
      <trkpt lat="45.51552" lon="5.80046">
        <ele>782.8</ele>
        <time>2021-08-23T14:59:26Z</time>
      </trkpt>
      <trkpt lat="45.51552" lon="5.80048">
        <ele>781.8</ele>
        <time>2021-08-23T14:59:28Z</time>
      </trkpt>
      <trkpt lat="45.51553" lon="5.80051">
        <ele>782.6</ele>
        <time>2021-08-23T14:59:30Z</time>
      </trkpt>
      <trkpt lat="45.51553" lon="5.80055">
        <ele>783.4</ele>
        <time>2021-08-23T14:59:31Z</time>
      </trkpt>
      <trkpt lat="45.51553" lon="5.80059">
        <ele>784.2</ele>
        <time>2021-08-23T14:59:33Z</time>
      </trkpt>
      <trkpt lat="45.51554" lon="5.80063">
        <ele>785.1</ele>
        <time>2021-08-23T14:59:34Z</time>
      </trkpt>
      <trkpt lat="45.51554" lon="5.80065">
        <ele>785.1</ele>
        <time>2021-08-23T14:59:35Z</time>
      </trkpt>
      <trkpt lat="45.51555" lon="5.80066">
        <ele>786</ele>
        <time>2021-08-23T14:59:37Z</time>
      </trkpt>
      <trkpt lat="45.51556" lon="5.80067">
        <ele>785</ele>
        <time>2021-08-23T14:59:38Z</time>
      </trkpt>
      <trkpt lat="45.51556" lon="5.80068">
        <ele>785</ele>
        <time>2021-08-23T14:59:40Z</time>
      </trkpt>
      <trkpt lat="45.51558" lon="5.8007">
        <ele>786</ele>
        <time>2021-08-23T14:59:42Z</time>
      </trkpt>
      <trkpt lat="45.51558" lon="5.80073">
        <ele>785</ele>
        <time>2021-08-23T14:59:43Z</time>
      </trkpt>
      <trkpt lat="45.5156" lon="5.80077">
        <ele>785.9</ele>
        <time>2021-08-23T14:59:44Z</time>
      </trkpt>
      <trkpt lat="45.51562" lon="5.80081">
        <ele>786.5</ele>
        <time>2021-08-23T14:59:46Z</time>
      </trkpt>
      <trkpt lat="45.51564" lon="5.80083">
        <ele>786.6</ele>
        <time>2021-08-23T14:59:47Z</time>
      </trkpt>
      <trkpt lat="45.51565" lon="5.80085">
        <ele>786.6</ele>
        <time>2021-08-23T14:59:48Z</time>
      </trkpt>
      <trkpt lat="45.51565" lon="5.80089">
        <ele>787.6</ele>
        <time>2021-08-23T14:59:49Z</time>
      </trkpt>
      <trkpt lat="45.51564" lon="5.8009">
        <ele>787.6</ele>
        <time>2021-08-23T14:59:50Z</time>
      </trkpt>
      <trkpt lat="45.51563" lon="5.80097">
        <ele>790.5</ele>
        <time>2021-08-23T14:59:52Z</time>
      </trkpt>
      <trkpt lat="45.51563" lon="5.80098">
        <ele>790.5</ele>
        <time>2021-08-23T14:59:53Z</time>
      </trkpt>
      <trkpt lat="45.51562" lon="5.801">
        <ele>791.6</ele>
        <time>2021-08-23T14:59:54Z</time>
      </trkpt>
      <trkpt lat="45.51562" lon="5.80102">
        <ele>791.6</ele>
        <time>2021-08-23T14:59:56Z</time>
      </trkpt>
      <trkpt lat="45.51561" lon="5.80103">
        <ele>792.6</ele>
        <time>2021-08-23T14:59:57Z</time>
      </trkpt>
      <trkpt lat="45.5156" lon="5.80105">
        <ele>793.7</ele>
        <time>2021-08-23T14:59:59Z</time>
      </trkpt>
      <trkpt lat="45.51647" lon="5.80179">
        <ele>792.7</ele>
        <time>2021-08-23T15:02:50Z</time>
      </trkpt>
      <trkpt lat="45.51652" lon="5.80174">
        <ele>790.7</ele>
        <time>2021-08-23T15:02:52Z</time>
      </trkpt>
      <trkpt lat="45.51653" lon="5.80173">
        <ele>790.7</ele>
        <time>2021-08-23T15:02:53Z</time>
      </trkpt>
      <trkpt lat="45.5166" lon="5.8017">
        <ele>788</ele>
        <time>2021-08-23T15:02:55Z</time>
      </trkpt>
      <trkpt lat="45.51662" lon="5.80171">
        <ele>788</ele>
        <time>2021-08-23T15:02:56Z</time>
      </trkpt>
      <trkpt lat="45.51662" lon="5.80172">
        <ele>788</ele>
        <time>2021-08-23T15:02:58Z</time>
      </trkpt>
      <trkpt lat="45.51662" lon="5.80173">
        <ele>789.2</ele>
        <time>2021-08-23T15:02:59Z</time>
      </trkpt>
      <trkpt lat="45.51662" lon="5.80175">
        <ele>789.2</ele>
        <time>2021-08-23T15:03:01Z</time>
      </trkpt>
      <trkpt lat="45.51662" lon="5.80176">
        <ele>789.2</ele>
        <time>2021-08-23T15:03:02Z</time>
      </trkpt>
      <trkpt lat="45.51662" lon="5.80177">
        <ele>790.2</ele>
        <time>2021-08-23T15:03:04Z</time>
      </trkpt>
      <trkpt lat="45.51662" lon="5.80178">
        <ele>790.2</ele>
        <time>2021-08-23T15:03:05Z</time>
      </trkpt>
      <trkpt lat="45.51661" lon="5.8018">
        <ele>790.2</ele>
        <time>2021-08-23T15:03:06Z</time>
      </trkpt>
      <trkpt lat="45.51647" lon="5.80205">
        <ele>797.7</ele>
        <time>2021-08-23T15:03:07Z</time>
      </trkpt>
      <trkpt lat="45.51643" lon="5.80212">
        <ele>799.8</ele>
        <time>2021-08-23T15:03:08Z</time>
      </trkpt>
      <trkpt lat="45.51642" lon="5.80216">
        <ele>800.5</ele>
        <time>2021-08-23T15:03:10Z</time>
      </trkpt>
      <trkpt lat="45.51643" lon="5.80217">
        <ele>800.5</ele>
        <time>2021-08-23T15:03:11Z</time>
      </trkpt>
      <trkpt lat="45.51642" lon="5.80219">
        <ele>800.5</ele>
        <time>2021-08-23T15:03:13Z</time>
      </trkpt>
      <trkpt lat="45.51642" lon="5.8022">
        <ele>801.9</ele>
        <time>2021-08-23T15:03:14Z</time>
      </trkpt>
      <trkpt lat="45.51642" lon="5.80222">
        <ele>801.9</ele>
        <time>2021-08-23T15:03:16Z</time>
      </trkpt>
      <trkpt lat="45.51642" lon="5.80223">
        <ele>802</ele>
        <time>2021-08-23T15:03:17Z</time>
      </trkpt>
      <trkpt lat="45.51643" lon="5.80225">
        <ele>801.9</ele>
        <time>2021-08-23T15:03:19Z</time>
      </trkpt>
      <trkpt lat="45.51645" lon="5.80226">
        <ele>801.9</ele>
        <time>2021-08-23T15:03:21Z</time>
      </trkpt>
      <trkpt lat="45.51646" lon="5.80226">
        <ele>801.2</ele>
        <time>2021-08-23T15:03:22Z</time>
      </trkpt>
      <trkpt lat="45.51647" lon="5.80225">
        <ele>801.2</ele>
        <time>2021-08-23T15:03:24Z</time>
      </trkpt>
      <trkpt lat="45.51648" lon="5.80226">
        <ele>800.5</ele>
        <time>2021-08-23T15:03:25Z</time>
      </trkpt>
      <trkpt lat="45.51649" lon="5.80228">
        <ele>800.5</ele>
        <time>2021-08-23T15:03:26Z</time>
      </trkpt>
      <trkpt lat="45.5165" lon="5.8023">
        <ele>801.2</ele>
        <time>2021-08-23T15:03:28Z</time>
      </trkpt>
      <trkpt lat="45.5165" lon="5.80232">
        <ele>801.2</ele>
        <time>2021-08-23T15:03:29Z</time>
      </trkpt>
      <trkpt lat="45.5165" lon="5.80234">
        <ele>801.8</ele>
        <time>2021-08-23T15:03:30Z</time>
      </trkpt>
      <trkpt lat="45.51648" lon="5.80237">
        <ele>802.6</ele>
        <time>2021-08-23T15:03:32Z</time>
      </trkpt>
      <trkpt lat="45.51646" lon="5.80237">
        <ele>803.4</ele>
        <time>2021-08-23T15:03:33Z</time>
      </trkpt>
      <trkpt lat="45.51643" lon="5.80237">
        <ele>803.5</ele>
        <time>2021-08-23T15:03:35Z</time>
      </trkpt>
      <trkpt lat="45.51642" lon="5.80237">
        <ele>803.5</ele>
        <time>2021-08-23T15:03:36Z</time>
      </trkpt>
      <trkpt lat="45.51642" lon="5.80237">
        <ele>805.2</ele>
        <time>2021-08-23T15:03:37Z</time>
      </trkpt>
      <trkpt lat="45.51642" lon="5.80237">
        <ele>805.2</ele>
        <time>2021-08-23T15:03:38Z</time>
      </trkpt>
      <trkpt lat="45.51642" lon="5.80237">
        <ele>805.2</ele>
        <time>2021-08-23T15:03:39Z</time>
      </trkpt>
      <trkpt lat="45.51641" lon="5.80237">
        <ele>805.2</ele>
        <time>2021-08-23T15:03:40Z</time>
      </trkpt>
      <trkpt lat="45.51642" lon="5.80239">
        <ele>805.2</ele>
        <time>2021-08-23T15:03:42Z</time>
      </trkpt>
      <trkpt lat="45.51642" lon="5.8024">
        <ele>805.2</ele>
        <time>2021-08-23T15:03:43Z</time>
      </trkpt>
      <trkpt lat="45.51642" lon="5.80241">
        <ele>805.2</ele>
        <time>2021-08-23T15:03:44Z</time>
      </trkpt>
      <trkpt lat="45.51644" lon="5.80245">
        <ele>805.2</ele>
        <time>2021-08-23T15:03:45Z</time>
      </trkpt>
      <trkpt lat="45.51645" lon="5.80248">
        <ele>805.3</ele>
        <time>2021-08-23T15:05:26Z</time>
      </trkpt>
      <trkpt lat="45.51647" lon="5.80252">
        <ele>806.2</ele>
        <time>2021-08-23T15:05:27Z</time>
      </trkpt>
      <trkpt lat="45.51648" lon="5.80255">
        <ele>807.1</ele>
        <time>2021-08-23T15:05:29Z</time>
      </trkpt>
      <trkpt lat="45.51649" lon="5.80259">
        <ele>807</ele>
        <time>2021-08-23T15:05:30Z</time>
      </trkpt>
      <trkpt lat="45.51651" lon="5.80262">
        <ele>807</ele>
        <time>2021-08-23T15:05:32Z</time>
      </trkpt>
      <trkpt lat="45.51652" lon="5.80266">
        <ele>806.9</ele>
        <time>2021-08-23T15:05:33Z</time>
      </trkpt>
      <trkpt lat="45.51654" lon="5.80269">
        <ele>807.7</ele>
        <time>2021-08-23T15:05:35Z</time>
      </trkpt>
      <trkpt lat="45.51655" lon="5.80273">
        <ele>807.4</ele>
        <time>2021-08-23T15:05:36Z</time>
      </trkpt>
      <trkpt lat="45.51656" lon="5.80276">
        <ele>808.2</ele>
        <time>2021-08-23T15:05:37Z</time>
      </trkpt>
      <trkpt lat="45.51658" lon="5.8028">
        <ele>807.1</ele>
        <time>2021-08-23T15:05:38Z</time>
      </trkpt>
      <trkpt lat="45.51659" lon="5.80283">
        <ele>806.7</ele>
        <time>2021-08-23T15:05:40Z</time>
      </trkpt>
      <trkpt lat="45.51661" lon="5.80287">
        <ele>806.3</ele>
        <time>2021-08-23T15:05:41Z</time>
      </trkpt>
      <trkpt lat="45.51661" lon="5.80288">
        <ele>806.2</ele>
        <time>2021-08-23T15:05:42Z</time>
      </trkpt>
      <trkpt lat="45.51663" lon="5.8029">
        <ele>805.9</ele>
        <time>2021-08-23T15:05:44Z</time>
      </trkpt>
      <trkpt lat="45.51665" lon="5.80291">
        <ele>805.6</ele>
        <time>2021-08-23T15:05:45Z</time>
      </trkpt>
      <trkpt lat="45.51669" lon="5.80294">
        <ele>804.9</ele>
        <time>2021-08-23T15:05:47Z</time>
      </trkpt>
      <trkpt lat="45.51673" lon="5.80295">
        <ele>804.4</ele>
        <time>2021-08-23T15:05:49Z</time>
      </trkpt>
      <trkpt lat="45.51674" lon="5.80295">
        <ele>804.3</ele>
        <time>2021-08-23T15:05:50Z</time>
      </trkpt>
      <trkpt lat="45.51677" lon="5.80296">
        <ele>803.9</ele>
        <time>2021-08-23T15:05:51Z</time>
      </trkpt>
      <trkpt lat="45.51684" lon="5.80297">
        <ele>802.8</ele>
        <time>2021-08-23T15:05:53Z</time>
      </trkpt>
      <trkpt lat="45.51689" lon="5.80298">
        <ele>802</ele>
        <time>2021-08-23T15:05:55Z</time>
      </trkpt>
      <trkpt lat="45.51691" lon="5.80299">
        <ele>801.7</ele>
        <time>2021-08-23T15:05:56Z</time>
      </trkpt>
      <trkpt lat="45.51692" lon="5.80299">
        <ele>801.6</ele>
        <time>2021-08-23T15:05:58Z</time>
      </trkpt>
      <trkpt lat="45.51692" lon="5.80299">
        <ele>801.6</ele>
        <time>2021-08-23T15:05:59Z</time>
      </trkpt>
      <trkpt lat="45.51692" lon="5.803">
        <ele>801.5</ele>
        <time>2021-08-23T15:06:01Z</time>
      </trkpt>
      <trkpt lat="45.51698" lon="5.80327">
        <ele>798.7</ele>
        <time>2021-08-23T15:06:49Z</time>
      </trkpt>
      <trkpt lat="45.51701" lon="5.80328">
        <ele>798.3</ele>
        <time>2021-08-23T15:06:50Z</time>
      </trkpt>
      <trkpt lat="45.51706" lon="5.80329">
        <ele>797.7</ele>
        <time>2021-08-23T15:06:52Z</time>
      </trkpt>
      <trkpt lat="45.51709" lon="5.8033">
        <ele>797.3</ele>
        <time>2021-08-23T15:06:53Z</time>
      </trkpt>
      <trkpt lat="45.51713" lon="5.80331">
        <ele>796.8</ele>
        <time>2021-08-23T15:06:54Z</time>
      </trkpt>
      <trkpt lat="45.51714" lon="5.80332">
        <ele>796.6</ele>
        <time>2021-08-23T15:06:55Z</time>
      </trkpt>
      <trkpt lat="45.51716" lon="5.80332">
        <ele>796.3</ele>
        <time>2021-08-23T15:06:56Z</time>
      </trkpt>
      <trkpt lat="45.51717" lon="5.80332">
        <ele>796.2</ele>
        <time>2021-08-23T15:06:57Z</time>
      </trkpt>
      <trkpt lat="45.51718" lon="5.80333">
        <ele>796.1</ele>
        <time>2021-08-23T15:06:59Z</time>
      </trkpt>
      <trkpt lat="45.51719" lon="5.80333">
        <ele>796</ele>
        <time>2021-08-23T15:07:00Z</time>
      </trkpt>
      <trkpt lat="45.51719" lon="5.80333">
        <ele>795.9</ele>
        <time>2021-08-23T15:07:01Z</time>
      </trkpt>
      <trkpt lat="45.5172" lon="5.80333">
        <ele>795.9</ele>
        <time>2021-08-23T15:07:03Z</time>
      </trkpt>
      <trkpt lat="45.51721" lon="5.80333">
        <ele>795.8</ele>
        <time>2021-08-23T15:07:04Z</time>
      </trkpt>
      <trkpt lat="45.51723" lon="5.80334">
        <ele>795.4</ele>
        <time>2021-08-23T15:07:06Z</time>
      </trkpt>
      <trkpt lat="45.51724" lon="5.80334">
        <ele>795.3</ele>
        <time>2021-08-23T15:07:07Z</time>
      </trkpt>
      <trkpt lat="45.51726" lon="5.80335">
        <ele>795.1</ele>
        <time>2021-08-23T15:07:08Z</time>
      </trkpt>
      <trkpt lat="45.51727" lon="5.80336">
        <ele>794.9</ele>
        <time>2021-08-23T15:07:09Z</time>
      </trkpt>
      <trkpt lat="45.51728" lon="5.80337">
        <ele>794.7</ele>
        <time>2021-08-23T15:07:11Z</time>
      </trkpt>
      <trkpt lat="45.5173" lon="5.80338">
        <ele>794.6</ele>
        <time>2021-08-23T15:07:12Z</time>
      </trkpt>
      <trkpt lat="45.51731" lon="5.80338">
        <ele>794.7</ele>
        <time>2021-08-23T15:07:13Z</time>
      </trkpt>
      <trkpt lat="45.51441" lon="5.80159">
        <ele>831.4</ele>
        <time>2021-08-23T15:15:55Z</time>
      </trkpt>
      <trkpt lat="45.5144" lon="5.80157">
        <ele>831.7</ele>
        <time>2021-08-23T15:15:56Z</time>
      </trkpt>
      <trkpt lat="45.51439" lon="5.80156">
        <ele>831.8</ele>
        <time>2021-08-23T15:15:57Z</time>
      </trkpt>
      <trkpt lat="45.51438" lon="5.80155">
        <ele>831.9</ele>
        <time>2021-08-23T15:15:59Z</time>
      </trkpt>
      <trkpt lat="45.51438" lon="5.80155">
        <ele>832</ele>
        <time>2021-08-23T15:16:00Z</time>
      </trkpt>
      <trkpt lat="45.51437" lon="5.80154">
        <ele>832.1</ele>
        <time>2021-08-23T15:16:02Z</time>
      </trkpt>
      <trkpt lat="45.51437" lon="5.80153">
        <ele>832.1</ele>
        <time>2021-08-23T15:16:04Z</time>
      </trkpt>
      <trkpt lat="45.51437" lon="5.80153">
        <ele>832.1</ele>
        <time>2021-08-23T15:16:05Z</time>
      </trkpt>
      <trkpt lat="45.51436" lon="5.80153">
        <ele>832.2</ele>
        <time>2021-08-23T15:16:06Z</time>
      </trkpt>
      <trkpt lat="45.51434" lon="5.80151">
        <ele>832.5</ele>
        <time>2021-08-23T15:16:08Z</time>
      </trkpt>
      <trkpt lat="45.51433" lon="5.8015">
        <ele>832.7</ele>
        <time>2021-08-23T15:16:09Z</time>
      </trkpt>
      <trkpt lat="45.51432" lon="5.80148">
        <ele>832.9</ele>
        <time>2021-08-23T15:16:11Z</time>
      </trkpt>
      <trkpt lat="45.51431" lon="5.80147">
        <ele>833</ele>
        <time>2021-08-23T15:16:12Z</time>
      </trkpt>
      <trkpt lat="45.51431" lon="5.80146">
        <ele>833</ele>
        <time>2021-08-23T15:16:13Z</time>
      </trkpt>
      <trkpt lat="45.5143" lon="5.80146">
        <ele>833.1</ele>
        <time>2021-08-23T15:16:15Z</time>
      </trkpt>
      <trkpt lat="45.5143" lon="5.80145">
        <ele>833.2</ele>
        <time>2021-08-23T15:16:16Z</time>
      </trkpt>
      <trkpt lat="45.5143" lon="5.80143">
        <ele>833.3</ele>
        <time>2021-08-23T15:16:17Z</time>
      </trkpt>
      <trkpt lat="45.5143" lon="5.80141">
        <ele>833.5</ele>
        <time>2021-08-23T15:16:18Z</time>
      </trkpt>
      <trkpt lat="45.5143" lon="5.80139">
        <ele>833.7</ele>
        <time>2021-08-23T15:16:20Z</time>
      </trkpt>
      <trkpt lat="45.5143" lon="5.80138">
        <ele>833.8</ele>
        <time>2021-08-23T15:16:21Z</time>
      </trkpt>
      <trkpt lat="45.5143" lon="5.80137">
        <ele>833.8</ele>
        <time>2021-08-23T15:16:22Z</time>
      </trkpt>
      <trkpt lat="45.51429" lon="5.80137">
        <ele>833.9</ele>
        <time>2021-08-23T15:16:24Z</time>
      </trkpt>
      <trkpt lat="45.51429" lon="5.80136">
        <ele>833.9</ele>
        <time>2021-08-23T15:16:25Z</time>
      </trkpt>
      <trkpt lat="45.51428" lon="5.80135">
        <ele>834.1</ele>
        <time>2021-08-23T15:16:26Z</time>
      </trkpt>
      <trkpt lat="45.51427" lon="5.80134">
        <ele>834.2</ele>
        <time>2021-08-23T15:16:27Z</time>
      </trkpt>
      <trkpt lat="45.51427" lon="5.80134">
        <ele>834.3</ele>
        <time>2021-08-23T15:16:28Z</time>
      </trkpt>
      <trkpt lat="45.51426" lon="5.80132">
        <ele>834.5</ele>
        <time>2021-08-23T15:16:30Z</time>
      </trkpt>
      <trkpt lat="45.51425" lon="5.80131">
        <ele>834.6</ele>
        <time>2021-08-23T15:16:31Z</time>
      </trkpt>
      <trkpt lat="45.51423" lon="5.8013">
        <ele>834.9</ele>
        <time>2021-08-23T15:16:33Z</time>
      </trkpt>
      <trkpt lat="45.51421" lon="5.8013">
        <ele>835.1</ele>
        <time>2021-08-23T15:16:35Z</time>
      </trkpt>
      <trkpt lat="45.51419" lon="5.80129">
        <ele>835.3</ele>
        <time>2021-08-23T15:16:37Z</time>
      </trkpt>
      <trkpt lat="45.51418" lon="5.80129">
        <ele>835.5</ele>
        <time>2021-08-23T15:16:38Z</time>
      </trkpt>
      <trkpt lat="45.51417" lon="5.80129">
        <ele>835.6</ele>
        <time>2021-08-23T15:16:39Z</time>
      </trkpt>
      <trkpt lat="45.51416" lon="5.80128">
        <ele>835.8</ele>
        <time>2021-08-23T15:16:41Z</time>
      </trkpt>
      <trkpt lat="45.51415" lon="5.80128">
        <ele>835.9</ele>
        <time>2021-08-23T15:16:42Z</time>
      </trkpt>
      <trkpt lat="45.51414" lon="5.80127">
        <ele>836</ele>
        <time>2021-08-23T15:16:43Z</time>
      </trkpt>
      <trkpt lat="45.51413" lon="5.80126">
        <ele>836.2</ele>
        <time>2021-08-23T15:16:45Z</time>
      </trkpt>
      <trkpt lat="45.51412" lon="5.80125">
        <ele>836.3</ele>
        <time>2021-08-23T15:16:47Z</time>
      </trkpt>
      <trkpt lat="45.51411" lon="5.80124">
        <ele>836.4</ele>
        <time>2021-08-23T15:16:48Z</time>
      </trkpt>
      <trkpt lat="45.51411" lon="5.80123">
        <ele>836.5</ele>
        <time>2021-08-23T15:16:50Z</time>
      </trkpt>
      <trkpt lat="45.51411" lon="5.80122">
        <ele>836.5</ele>
        <time>2021-08-23T15:16:51Z</time>
      </trkpt>
      <trkpt lat="45.51411" lon="5.80122">
        <ele>836.5</ele>
        <time>2021-08-23T15:16:52Z</time>
      </trkpt>
      <trkpt lat="45.51411" lon="5.80122">
        <ele>836.6</ele>
        <time>2021-08-23T15:16:53Z</time>
      </trkpt>
      <trkpt lat="45.5141" lon="5.80122">
        <ele>836.6</ele>
        <time>2021-08-23T15:16:55Z</time>
      </trkpt>
      <trkpt lat="45.5141" lon="5.80121">
        <ele>836.7</ele>
        <time>2021-08-23T15:16:56Z</time>
      </trkpt>
      <trkpt lat="45.51407" lon="5.8012">
        <ele>837</ele>
        <time>2021-08-23T15:16:58Z</time>
      </trkpt>
      <trkpt lat="45.51406" lon="5.80118">
        <ele>837.2</ele>
        <time>2021-08-23T15:16:59Z</time>
      </trkpt>
      <trkpt lat="45.51405" lon="5.80116">
        <ele>837.4</ele>
        <time>2021-08-23T15:17:01Z</time>
      </trkpt>
      <trkpt lat="45.51404" lon="5.80115">
        <ele>837.6</ele>
        <time>2021-08-23T15:17:02Z</time>
      </trkpt>
      <trkpt lat="45.51403" lon="5.80114">
        <ele>837.7</ele>
        <time>2021-08-23T15:17:04Z</time>
      </trkpt>
      <trkpt lat="45.51403" lon="5.80113">
        <ele>837.8</ele>
        <time>2021-08-23T15:17:05Z</time>
      </trkpt>
      <trkpt lat="45.51402" lon="5.80112">
        <ele>837.9</ele>
        <time>2021-08-23T15:17:06Z</time>
      </trkpt>
      <trkpt lat="45.51402" lon="5.80111">
        <ele>838</ele>
        <time>2021-08-23T15:17:08Z</time>
      </trkpt>
      <trkpt lat="45.51403" lon="5.8011">
        <ele>838</ele>
        <time>2021-08-23T15:17:09Z</time>
      </trkpt>
      <trkpt lat="45.51403" lon="5.8011">
        <ele>838.1</ele>
        <time>2021-08-23T15:17:10Z</time>
      </trkpt>
      <trkpt lat="45.51403" lon="5.8011">
        <ele>838.1</ele>
        <time>2021-08-23T15:17:12Z</time>
      </trkpt>
      <trkpt lat="45.51403" lon="5.80109">
        <ele>838.1</ele>
        <time>2021-08-23T15:17:13Z</time>
      </trkpt>
      <trkpt lat="45.51403" lon="5.80109">
        <ele>838.1</ele>
        <time>2021-08-23T15:17:15Z</time>
      </trkpt>
      <trkpt lat="45.51402" lon="5.80109">
        <ele>838.2</ele>
        <time>2021-08-23T15:17:16Z</time>
      </trkpt>
      <trkpt lat="45.51402" lon="5.80109">
        <ele>838.2</ele>
        <time>2021-08-23T15:17:17Z</time>
      </trkpt>
      <trkpt lat="45.51402" lon="5.80109">
        <ele>838.2</ele>
        <time>2021-08-23T15:17:18Z</time>
      </trkpt>
      <trkpt lat="45.51402" lon="5.80109">
        <ele>838.2</ele>
        <time>2021-08-23T15:17:19Z</time>
      </trkpt>
      <trkpt lat="45.51402" lon="5.80108">
        <ele>838.3</ele>
        <time>2021-08-23T15:17:20Z</time>
      </trkpt>
      <trkpt lat="45.514" lon="5.80105">
        <ele>838.7</ele>
        <time>2021-08-23T15:17:22Z</time>
      </trkpt>
      <trkpt lat="45.51399" lon="5.80104">
        <ele>838.8</ele>
        <time>2021-08-23T15:17:23Z</time>
      </trkpt>
      <trkpt lat="45.51398" lon="5.80103">
        <ele>839</ele>
        <time>2021-08-23T15:17:25Z</time>
      </trkpt>
      <trkpt lat="45.51397" lon="5.80102">
        <ele>839.1</ele>
        <time>2021-08-23T15:17:26Z</time>
      </trkpt>
      <trkpt lat="45.51397" lon="5.80101">
        <ele>839.2</ele>
        <time>2021-08-23T15:17:28Z</time>
      </trkpt>
      <trkpt lat="45.51396" lon="5.80099">
        <ele>839.4</ele>
        <time>2021-08-23T15:17:30Z</time>
      </trkpt>
      <trkpt lat="45.51396" lon="5.80098">
        <ele>839.5</ele>
        <time>2021-08-23T15:17:31Z</time>
      </trkpt>
      <trkpt lat="45.51395" lon="5.80097">
        <ele>839.6</ele>
        <time>2021-08-23T15:17:32Z</time>
      </trkpt>
      <trkpt lat="45.51395" lon="5.80095">
        <ele>839.7</ele>
        <time>2021-08-23T15:17:33Z</time>
      </trkpt>
      <trkpt lat="45.51395" lon="5.80094">
        <ele>839.8</ele>
        <time>2021-08-23T15:17:34Z</time>
      </trkpt>
      <trkpt lat="45.51394" lon="5.80091">
        <ele>840.1</ele>
        <time>2021-08-23T15:17:36Z</time>
      </trkpt>
      <trkpt lat="45.51395" lon="5.8009">
        <ele>840.3</ele>
        <time>2021-08-23T15:17:37Z</time>
      </trkpt>
      <trkpt lat="45.51395" lon="5.80088">
        <ele>840.4</ele>
        <time>2021-08-23T15:17:39Z</time>
      </trkpt>
      <trkpt lat="45.51395" lon="5.80087">
        <ele>840.5</ele>
        <time>2021-08-23T15:17:41Z</time>
      </trkpt>
      <trkpt lat="45.51395" lon="5.80086">
        <ele>840.6</ele>
        <time>2021-08-23T15:17:42Z</time>
      </trkpt>
      <trkpt lat="45.51396" lon="5.80084">
        <ele>840.7</ele>
        <time>2021-08-23T15:17:44Z</time>
      </trkpt>
      <trkpt lat="45.51396" lon="5.80083">
        <ele>840.9</ele>
        <time>2021-08-23T15:17:45Z</time>
      </trkpt>
      <trkpt lat="45.51396" lon="5.80082">
        <ele>841</ele>
        <time>2021-08-23T15:17:46Z</time>
      </trkpt>
      <trkpt lat="45.51401" lon="5.80076">
        <ele>841.7</ele>
        <time>2021-08-23T15:17:48Z</time>
      </trkpt>
      <trkpt lat="45.51401" lon="5.80075">
        <ele>841.9</ele>
        <time>2021-08-23T15:17:50Z</time>
      </trkpt>
      <trkpt lat="45.51397" lon="5.80078">
        <ele>842.5</ele>
        <time>2021-08-23T15:17:52Z</time>
      </trkpt>
      <trkpt lat="45.51394" lon="5.80081">
        <ele>842.9</ele>
        <time>2021-08-23T15:17:53Z</time>
      </trkpt>
      <trkpt lat="45.51394" lon="5.80081">
        <ele>843</ele>
        <time>2021-08-23T15:17:54Z</time>
      </trkpt>
      <trkpt lat="45.5139" lon="5.80084">
        <ele>843.5</ele>
        <time>2021-08-23T15:17:56Z</time>
      </trkpt>
      <trkpt lat="45.51389" lon="5.80085">
        <ele>843.7</ele>
        <time>2021-08-23T15:17:57Z</time>
      </trkpt>
      <trkpt lat="45.51388" lon="5.80086">
        <ele>843.8</ele>
        <time>2021-08-23T15:17:58Z</time>
      </trkpt>
      <trkpt lat="45.51385" lon="5.80087">
        <ele>844.2</ele>
        <time>2021-08-23T15:18:00Z</time>
      </trkpt>
      <trkpt lat="45.51383" lon="5.80086">
        <ele>844.5</ele>
        <time>2021-08-23T15:18:02Z</time>
      </trkpt>
      <trkpt lat="45.51381" lon="5.80084">
        <ele>844.9</ele>
        <time>2021-08-23T15:18:04Z</time>
      </trkpt>
      <trkpt lat="45.51378" lon="5.80082">
        <ele>845.2</ele>
        <time>2021-08-23T15:18:05Z</time>
      </trkpt>
      <trkpt lat="45.51377" lon="5.80082">
        <ele>845.4</ele>
        <time>2021-08-23T15:18:06Z</time>
      </trkpt>
      <trkpt lat="45.51375" lon="5.8008">
        <ele>845.6</ele>
        <time>2021-08-23T15:18:07Z</time>
      </trkpt>
      <trkpt lat="45.51373" lon="5.80078">
        <ele>845.9</ele>
        <time>2021-08-23T15:18:09Z</time>
      </trkpt>
      <trkpt lat="45.51371" lon="5.80077">
        <ele>846.1</ele>
        <time>2021-08-23T15:18:11Z</time>
      </trkpt>
      <trkpt lat="45.51371" lon="5.80075">
        <ele>846.3</ele>
        <time>2021-08-23T15:18:12Z</time>
      </trkpt>
      <trkpt lat="45.5137" lon="5.80074">
        <ele>846.4</ele>
        <time>2021-08-23T15:18:13Z</time>
      </trkpt>
      <trkpt lat="45.51369" lon="5.80073">
        <ele>846.5</ele>
        <time>2021-08-23T15:18:14Z</time>
      </trkpt>
      <trkpt lat="45.51369" lon="5.80073">
        <ele>846.6</ele>
        <time>2021-08-23T15:18:15Z</time>
      </trkpt>
      <trkpt lat="45.51368" lon="5.80072">
        <ele>846.7</ele>
        <time>2021-08-23T15:18:17Z</time>
      </trkpt>
      <trkpt lat="45.51368" lon="5.80072">
        <ele>846.7</ele>
        <time>2021-08-23T15:18:18Z</time>
      </trkpt>
      <trkpt lat="45.51367" lon="5.8007">
        <ele>846.9</ele>
        <time>2021-08-23T15:18:19Z</time>
      </trkpt>
      <trkpt lat="45.51366" lon="5.80069">
        <ele>847</ele>
        <time>2021-08-23T15:18:21Z</time>
      </trkpt>
      <trkpt lat="45.51366" lon="5.80068">
        <ele>847.1</ele>
        <time>2021-08-23T15:18:22Z</time>
      </trkpt>
      <trkpt lat="45.51364" lon="5.8007">
        <ele>847.3</ele>
        <time>2021-08-23T15:18:23Z</time>
      </trkpt>
      <trkpt lat="45.51363" lon="5.80071">
        <ele>847.5</ele>
        <time>2021-08-23T15:18:25Z</time>
      </trkpt>
      <trkpt lat="45.51362" lon="5.80072">
        <ele>847.6</ele>
        <time>2021-08-23T15:18:26Z</time>
      </trkpt>
      <trkpt lat="45.51358" lon="5.80073">
        <ele>848</ele>
        <time>2021-08-23T15:18:28Z</time>
      </trkpt>
      <trkpt lat="45.51348" lon="5.80081">
        <ele>849.3</ele>
        <time>2021-08-23T15:18:30Z</time>
      </trkpt>
      <trkpt lat="45.51333" lon="5.80092">
        <ele>851.1</ele>
        <time>2021-08-23T15:18:32Z</time>
      </trkpt>
      <trkpt lat="45.51329" lon="5.80093">
        <ele>851.6</ele>
        <time>2021-08-23T15:18:33Z</time>
      </trkpt>
      <trkpt lat="45.51325" lon="5.80092">
        <ele>851.9</ele>
        <time>2021-08-23T15:18:34Z</time>
      </trkpt>
      <trkpt lat="45.51322" lon="5.8009">
        <ele>852.3</ele>
        <time>2021-08-23T15:18:36Z</time>
      </trkpt>
      <trkpt lat="45.5132" lon="5.80089">
        <ele>852.5</ele>
        <time>2021-08-23T15:18:37Z</time>
      </trkpt>
      <trkpt lat="45.51318" lon="5.80087">
        <ele>852.8</ele>
        <time>2021-08-23T15:18:39Z</time>
      </trkpt>
      <trkpt lat="45.51317" lon="5.80084">
        <ele>853</ele>
        <time>2021-08-23T15:18:40Z</time>
      </trkpt>
      <trkpt lat="45.51316" lon="5.80083">
        <ele>853.1</ele>
        <time>2021-08-23T15:18:41Z</time>
      </trkpt>
      <trkpt lat="45.51316" lon="5.80082">
        <ele>853.2</ele>
        <time>2021-08-23T15:18:42Z</time>
      </trkpt>
      <trkpt lat="45.51316" lon="5.80082">
        <ele>853.2</ele>
        <time>2021-08-23T15:18:44Z</time>
      </trkpt>
      <trkpt lat="45.51316" lon="5.80084">
        <ele>853.3</ele>
        <time>2021-08-23T15:18:45Z</time>
      </trkpt>
      <trkpt lat="45.51316" lon="5.80085">
        <ele>853.3</ele>
        <time>2021-08-23T15:18:46Z</time>
      </trkpt>
      <trkpt lat="45.51316" lon="5.80086">
        <ele>853.4</ele>
        <time>2021-08-23T15:18:48Z</time>
      </trkpt>
      <trkpt lat="45.51316" lon="5.80088">
        <ele>853.5</ele>
        <time>2021-08-23T15:18:49Z</time>
      </trkpt>
      <trkpt lat="45.51316" lon="5.80089">
        <ele>853.6</ele>
        <time>2021-08-23T15:18:50Z</time>
      </trkpt>
      <trkpt lat="45.51316" lon="5.80093">
        <ele>853.9</ele>
        <time>2021-08-23T15:18:52Z</time>
      </trkpt>
      <trkpt lat="45.51316" lon="5.80095">
        <ele>854</ele>
        <time>2021-08-23T15:18:53Z</time>
      </trkpt>
      <trkpt lat="45.51316" lon="5.80096">
        <ele>854.1</ele>
        <time>2021-08-23T15:18:55Z</time>
      </trkpt>
      <trkpt lat="45.51316" lon="5.80098">
        <ele>854.2</ele>
        <time>2021-08-23T15:18:56Z</time>
      </trkpt>
      <trkpt lat="45.51316" lon="5.80098">
        <ele>854.3</ele>
        <time>2021-08-23T15:18:57Z</time>
      </trkpt>
      <trkpt lat="45.51316" lon="5.80101">
        <ele>854.4</ele>
        <time>2021-08-23T15:18:58Z</time>
      </trkpt>
      <trkpt lat="45.51315" lon="5.80104">
        <ele>854.7</ele>
        <time>2021-08-23T15:19:00Z</time>
      </trkpt>
      <trkpt lat="45.51313" lon="5.80107">
        <ele>854.9</ele>
        <time>2021-08-23T15:19:01Z</time>
      </trkpt>
      <trkpt lat="45.51313" lon="5.80108">
        <ele>855</ele>
        <time>2021-08-23T15:19:02Z</time>
      </trkpt>
      <trkpt lat="45.51313" lon="5.80109">
        <ele>855</ele>
        <time>2021-08-23T15:19:03Z</time>
      </trkpt>
      <trkpt lat="45.51312" lon="5.8011">
        <ele>855.1</ele>
        <time>2021-08-23T15:19:05Z</time>
      </trkpt>
      <trkpt lat="45.51312" lon="5.8011">
        <ele>855.1</ele>
        <time>2021-08-23T15:19:06Z</time>
      </trkpt>
      <trkpt lat="45.51312" lon="5.80111">
        <ele>855.2</ele>
        <time>2021-08-23T15:19:07Z</time>
      </trkpt>
      <trkpt lat="45.51312" lon="5.80112">
        <ele>855.2</ele>
        <time>2021-08-23T15:19:09Z</time>
      </trkpt>
      <trkpt lat="45.51312" lon="5.80112">
        <ele>855.3</ele>
        <time>2021-08-23T15:19:10Z</time>
      </trkpt>
      <trkpt lat="45.51312" lon="5.80112">
        <ele>855.3</ele>
        <time>2021-08-23T15:19:11Z</time>
      </trkpt>
      <trkpt lat="45.51312" lon="5.80112">
        <ele>855.3</ele>
        <time>2021-08-23T15:19:12Z</time>
      </trkpt>
      <trkpt lat="45.51311" lon="5.80112">
        <ele>855.4</ele>
        <time>2021-08-23T15:19:14Z</time>
      </trkpt>
      <trkpt lat="45.5131" lon="5.80112">
        <ele>855.4</ele>
        <time>2021-08-23T15:19:15Z</time>
      </trkpt>
      <trkpt lat="45.51309" lon="5.80111">
        <ele>855.5</ele>
        <time>2021-08-23T15:19:16Z</time>
      </trkpt>
      <trkpt lat="45.51308" lon="5.8011">
        <ele>855.7</ele>
        <time>2021-08-23T15:19:18Z</time>
      </trkpt>
      <trkpt lat="45.51307" lon="5.8011">
        <ele>855.7</ele>
        <time>2021-08-23T15:19:19Z</time>
      </trkpt>
      <trkpt lat="45.51305" lon="5.80108">
        <ele>856</ele>
        <time>2021-08-23T15:19:20Z</time>
      </trkpt>
      <trkpt lat="45.51303" lon="5.80105">
        <ele>856.2</ele>
        <time>2021-08-23T15:19:22Z</time>
      </trkpt>
      <trkpt lat="45.51302" lon="5.80104">
        <ele>856.3</ele>
        <time>2021-08-23T15:19:23Z</time>
      </trkpt>
      <trkpt lat="45.51301" lon="5.80103">
        <ele>856.5</ele>
        <time>2021-08-23T15:19:24Z</time>
      </trkpt>
      <trkpt lat="45.513" lon="5.80101">
        <ele>856.6</ele>
        <time>2021-08-23T15:19:26Z</time>
      </trkpt>
      <trkpt lat="45.513" lon="5.801">
        <ele>856.7</ele>
        <time>2021-08-23T15:19:27Z</time>
      </trkpt>
      <trkpt lat="45.513" lon="5.80099">
        <ele>856.7</ele>
        <time>2021-08-23T15:19:28Z</time>
      </trkpt>
      <trkpt lat="45.513" lon="5.80099">
        <ele>856.8</ele>
        <time>2021-08-23T15:19:29Z</time>
      </trkpt>
      <trkpt lat="45.51299" lon="5.80095">
        <ele>857</ele>
        <time>2021-08-23T15:19:31Z</time>
      </trkpt>
      <trkpt lat="45.51298" lon="5.80091">
        <ele>857.3</ele>
        <time>2021-08-23T15:19:32Z</time>
      </trkpt>
      <trkpt lat="45.51299" lon="5.80072">
        <ele>858.6</ele>
        <time>2021-08-23T15:19:34Z</time>
      </trkpt>
      <trkpt lat="45.51299" lon="5.80065">
        <ele>859.2</ele>
        <time>2021-08-23T15:19:35Z</time>
      </trkpt>
      <trkpt lat="45.513" lon="5.80057">
        <ele>859.8</ele>
        <time>2021-08-23T15:19:36Z</time>
      </trkpt>
      <trkpt lat="45.51299" lon="5.80051">
        <ele>860.3</ele>
        <time>2021-08-23T15:19:38Z</time>
      </trkpt>
      <trkpt lat="45.51299" lon="5.80051">
        <ele>860.4</ele>
        <time>2021-08-23T15:19:39Z</time>
      </trkpt>
      <trkpt lat="45.51299" lon="5.80051">
        <ele>860.4</ele>
        <time>2021-08-23T15:19:40Z</time>
      </trkpt>
      <trkpt lat="45.51298" lon="5.8005">
        <ele>860.5</ele>
        <time>2021-08-23T15:19:42Z</time>
      </trkpt>
      <trkpt lat="45.51297" lon="5.8005">
        <ele>860.6</ele>
        <time>2021-08-23T15:19:43Z</time>
      </trkpt>
      <trkpt lat="45.51297" lon="5.8005">
        <ele>860.6</ele>
        <time>2021-08-23T15:19:44Z</time>
      </trkpt>
      <trkpt lat="45.51296" lon="5.8005">
        <ele>860.7</ele>
        <time>2021-08-23T15:19:46Z</time>
      </trkpt>
      <trkpt lat="45.51296" lon="5.8005">
        <ele>860.7</ele>
        <time>2021-08-23T15:19:47Z</time>
      </trkpt>
      <trkpt lat="45.51296" lon="5.8005">
        <ele>860.7</ele>
        <time>2021-08-23T15:19:48Z</time>
      </trkpt>
      <trkpt lat="45.51296" lon="5.8005">
        <ele>860.7</ele>
        <time>2021-08-23T15:19:49Z</time>
      </trkpt>
      <trkpt lat="45.51295" lon="5.80049">
        <ele>860.9</ele>
        <time>2021-08-23T15:19:51Z</time>
      </trkpt>
      <trkpt lat="45.51292" lon="5.80044">
        <ele>861.4</ele>
        <time>2021-08-23T15:19:53Z</time>
      </trkpt>
      <trkpt lat="45.5129" lon="5.80042">
        <ele>861.7</ele>
        <time>2021-08-23T15:19:54Z</time>
      </trkpt>
      <trkpt lat="45.51289" lon="5.80042">
        <ele>861.8</ele>
        <time>2021-08-23T15:19:55Z</time>
      </trkpt>
      <trkpt lat="45.51287" lon="5.8004">
        <ele>862</ele>
        <time>2021-08-23T15:19:57Z</time>
      </trkpt>
      <trkpt lat="45.51286" lon="5.80039">
        <ele>862.2</ele>
        <time>2021-08-23T15:19:58Z</time>
      </trkpt>
      <trkpt lat="45.51285" lon="5.80038">
        <ele>862.3</ele>
        <time>2021-08-23T15:19:59Z</time>
      </trkpt>
      <trkpt lat="45.51282" lon="5.80036">
        <ele>862.7</ele>
        <time>2021-08-23T15:20:00Z</time>
      </trkpt>
      <trkpt lat="45.51281" lon="5.80036">
        <ele>862.8</ele>
        <time>2021-08-23T15:20:01Z</time>
      </trkpt>
      <trkpt lat="45.51277" lon="5.80033">
        <ele>863.2</ele>
        <time>2021-08-23T15:20:03Z</time>
      </trkpt>
      <trkpt lat="45.51276" lon="5.80032">
        <ele>863.4</ele>
        <time>2021-08-23T15:20:04Z</time>
      </trkpt>
      <trkpt lat="45.51274" lon="5.80031">
        <ele>863.6</ele>
        <time>2021-08-23T15:20:05Z</time>
      </trkpt>
      <trkpt lat="45.51273" lon="5.8003">
        <ele>863.8</ele>
        <time>2021-08-23T15:20:07Z</time>
      </trkpt>
      <trkpt lat="45.51272" lon="5.80029">
        <ele>863.9</ele>
        <time>2021-08-23T15:20:08Z</time>
      </trkpt>
      <trkpt lat="45.51271" lon="5.80028">
        <ele>864</ele>
        <time>2021-08-23T15:20:10Z</time>
      </trkpt>
      <trkpt lat="45.5127" lon="5.80027">
        <ele>864.1</ele>
        <time>2021-08-23T15:20:11Z</time>
      </trkpt>
      <trkpt lat="45.5127" lon="5.80026">
        <ele>864.2</ele>
        <time>2021-08-23T15:20:12Z</time>
      </trkpt>
      <trkpt lat="45.51269" lon="5.80026">
        <ele>864.3</ele>
        <time>2021-08-23T15:20:13Z</time>
      </trkpt>
      <trkpt lat="45.51268" lon="5.80026">
        <ele>864.4</ele>
        <time>2021-08-23T15:20:15Z</time>
      </trkpt>
      <trkpt lat="45.51268" lon="5.80025">
        <ele>864.4</ele>
        <time>2021-08-23T15:20:16Z</time>
      </trkpt>
      <trkpt lat="45.51268" lon="5.80025">
        <ele>864.4</ele>
        <time>2021-08-23T15:20:18Z</time>
      </trkpt>
      <trkpt lat="45.51268" lon="5.80025">
        <ele>864.4</ele>
        <time>2021-08-23T15:20:19Z</time>
      </trkpt>
      <trkpt lat="45.51268" lon="5.80025">
        <ele>864.5</ele>
        <time>2021-08-23T15:20:21Z</time>
      </trkpt>
      <trkpt lat="45.51268" lon="5.80025">
        <ele>864.5</ele>
        <time>2021-08-23T15:20:22Z</time>
      </trkpt>
      <trkpt lat="45.51267" lon="5.80023">
        <ele>864.6</ele>
        <time>2021-08-23T15:20:23Z</time>
      </trkpt>
      <trkpt lat="45.51266" lon="5.80022">
        <ele>864.8</ele>
        <time>2021-08-23T15:20:25Z</time>
      </trkpt>
      <trkpt lat="45.51265" lon="5.8002">
        <ele>865</ele>
        <time>2021-08-23T15:20:26Z</time>
      </trkpt>
      <trkpt lat="45.51263" lon="5.80016">
        <ele>865.4</ele>
        <time>2021-08-23T15:20:28Z</time>
      </trkpt>
      <trkpt lat="45.51261" lon="5.80011">
        <ele>865.8</ele>
        <time>2021-08-23T15:20:29Z</time>
      </trkpt>
      <trkpt lat="45.5126" lon="5.80009">
        <ele>866</ele>
        <time>2021-08-23T15:20:30Z</time>
      </trkpt>
      <trkpt lat="45.51259" lon="5.80005">
        <ele>866.4</ele>
        <time>2021-08-23T15:20:32Z</time>
      </trkpt>
      <trkpt lat="45.51258" lon="5.80004">
        <ele>866.5</ele>
        <time>2021-08-23T15:20:33Z</time>
      </trkpt>
      <trkpt lat="45.51257" lon="5.80002">
        <ele>866.7</ele>
        <time>2021-08-23T15:20:34Z</time>
      </trkpt>
      <trkpt lat="45.51256" lon="5.8">
        <ele>866.8</ele>
        <time>2021-08-23T15:20:36Z</time>
      </trkpt>
      <trkpt lat="45.51256" lon="5.8">
        <ele>866.9</ele>
        <time>2021-08-23T15:20:37Z</time>
      </trkpt>
      <trkpt lat="45.51255" lon="5.79999">
        <ele>867</ele>
        <time>2021-08-23T15:20:39Z</time>
      </trkpt>
      <trkpt lat="45.51255" lon="5.79998">
        <ele>867.1</ele>
        <time>2021-08-23T15:20:40Z</time>
      </trkpt>
      <trkpt lat="45.51254" lon="5.79998">
        <ele>867.2</ele>
        <time>2021-08-23T15:20:42Z</time>
      </trkpt>
      <trkpt lat="45.51253" lon="5.79997">
        <ele>867.3</ele>
        <time>2021-08-23T15:20:44Z</time>
      </trkpt>
      <trkpt lat="45.51253" lon="5.79997">
        <ele>867.4</ele>
        <time>2021-08-23T15:20:46Z</time>
      </trkpt>
      <trkpt lat="45.51253" lon="5.79996">
        <ele>867.4</ele>
        <time>2021-08-23T15:20:47Z</time>
      </trkpt>
      <trkpt lat="45.51252" lon="5.79996">
        <ele>867.4</ele>
        <time>2021-08-23T15:20:48Z</time>
      </trkpt>
      <trkpt lat="45.51252" lon="5.79996">
        <ele>867.5</ele>
        <time>2021-08-23T15:20:49Z</time>
      </trkpt>
      <trkpt lat="45.51252" lon="5.79996">
        <ele>867.5</ele>
        <time>2021-08-23T15:20:50Z</time>
      </trkpt>
      <trkpt lat="45.51252" lon="5.79997">
        <ele>867.6</ele>
        <time>2021-08-23T15:20:52Z</time>
      </trkpt>
      <trkpt lat="45.51252" lon="5.79999">
        <ele>867.7</ele>
        <time>2021-08-23T15:20:53Z</time>
      </trkpt>
      <trkpt lat="45.51252" lon="5.8">
        <ele>867.8</ele>
        <time>2021-08-23T15:20:54Z</time>
      </trkpt>
      <trkpt lat="45.51252" lon="5.80004">
        <ele>868.2</ele>
        <time>2021-08-23T15:20:55Z</time>
      </trkpt>
      <trkpt lat="45.51252" lon="5.80006">
        <ele>868.3</ele>
        <time>2021-08-23T15:20:57Z</time>
      </trkpt>
      <trkpt lat="45.51253" lon="5.80008">
        <ele>868.5</ele>
        <time>2021-08-23T15:20:59Z</time>
      </trkpt>
      <trkpt lat="45.51253" lon="5.80009">
        <ele>868.6</ele>
        <time>2021-08-23T15:21:00Z</time>
      </trkpt>
      <trkpt lat="45.51254" lon="5.80011">
        <ele>868.8</ele>
        <time>2021-08-23T15:21:01Z</time>
      </trkpt>
      <trkpt lat="45.51254" lon="5.80012">
        <ele>868.9</ele>
        <time>2021-08-23T15:21:03Z</time>
      </trkpt>
      <trkpt lat="45.51254" lon="5.80014">
        <ele>869</ele>
        <time>2021-08-23T15:21:05Z</time>
      </trkpt>
      <trkpt lat="45.51254" lon="5.80015">
        <ele>869.1</ele>
        <time>2021-08-23T15:21:06Z</time>
      </trkpt>
      <trkpt lat="45.51254" lon="5.80017">
        <ele>869.3</ele>
        <time>2021-08-23T15:21:07Z</time>
      </trkpt>
      <trkpt lat="45.51253" lon="5.80021">
        <ele>869.6</ele>
        <time>2021-08-23T15:21:09Z</time>
      </trkpt>
      <trkpt lat="45.51252" lon="5.80022">
        <ele>869.7</ele>
        <time>2021-08-23T15:21:10Z</time>
      </trkpt>
      <trkpt lat="45.51252" lon="5.80022">
        <ele>869.8</ele>
        <time>2021-08-23T15:21:11Z</time>
      </trkpt>
      <trkpt lat="45.51251" lon="5.80024">
        <ele>869.9</ele>
        <time>2021-08-23T15:21:13Z</time>
      </trkpt>
      <trkpt lat="45.5125" lon="5.80025">
        <ele>870.1</ele>
        <time>2021-08-23T15:21:14Z</time>
      </trkpt>
      <trkpt lat="45.51249" lon="5.80025">
        <ele>870.2</ele>
        <time>2021-08-23T15:21:15Z</time>
      </trkpt>
      <trkpt lat="45.51246" lon="5.80025">
        <ele>870.5</ele>
        <time>2021-08-23T15:21:17Z</time>
      </trkpt>
      <trkpt lat="45.51242" lon="5.80023">
        <ele>870.9</ele>
        <time>2021-08-23T15:21:18Z</time>
      </trkpt>
      <trkpt lat="45.5124" lon="5.80023">
        <ele>871.1</ele>
        <time>2021-08-23T15:21:19Z</time>
      </trkpt>
      <trkpt lat="45.51239" lon="5.80022">
        <ele>871.3</ele>
        <time>2021-08-23T15:21:21Z</time>
      </trkpt>
      <trkpt lat="45.51237" lon="5.8002">
        <ele>871.6</ele>
        <time>2021-08-23T15:21:23Z</time>
      </trkpt>
      <trkpt lat="45.51236" lon="5.8002">
        <ele>871.7</ele>
        <time>2021-08-23T15:21:24Z</time>
      </trkpt>
      <trkpt lat="45.51235" lon="5.80019">
        <ele>871.8</ele>
        <time>2021-08-23T15:21:25Z</time>
      </trkpt>
      <trkpt lat="45.51234" lon="5.80018">
        <ele>871.9</ele>
        <time>2021-08-23T15:21:27Z</time>
      </trkpt>
      <trkpt lat="45.51233" lon="5.80018">
        <ele>872.1</ele>
        <time>2021-08-23T15:21:29Z</time>
      </trkpt>
      <trkpt lat="45.51233" lon="5.80019">
        <ele>872.2</ele>
        <time>2021-08-23T15:21:30Z</time>
      </trkpt>
      <trkpt lat="45.51232" lon="5.80019">
        <ele>872.3</ele>
        <time>2021-08-23T15:21:31Z</time>
      </trkpt>
      <trkpt lat="45.51231" lon="5.80019">
        <ele>872.4</ele>
        <time>2021-08-23T15:21:33Z</time>
      </trkpt>
      <trkpt lat="45.5123" lon="5.80019">
        <ele>872.5</ele>
        <time>2021-08-23T15:21:34Z</time>
      </trkpt>
      <trkpt lat="45.51229" lon="5.80018">
        <ele>872.7</ele>
        <time>2021-08-23T15:21:35Z</time>
      </trkpt>
      <trkpt lat="45.51229" lon="5.80017">
        <ele>872.8</ele>
        <time>2021-08-23T15:21:36Z</time>
      </trkpt>
      <trkpt lat="45.51228" lon="5.80017">
        <ele>872.9</ele>
        <time>2021-08-23T15:21:38Z</time>
      </trkpt>
      <trkpt lat="45.51227" lon="5.80016">
        <ele>873.1</ele>
        <time>2021-08-23T15:21:39Z</time>
      </trkpt>
      <trkpt lat="45.51226" lon="5.80015">
        <ele>873.2</ele>
        <time>2021-08-23T15:21:41Z</time>
      </trkpt>
      <trkpt lat="45.51226" lon="5.80015">
        <ele>873.2</ele>
        <time>2021-08-23T15:21:43Z</time>
      </trkpt>
      <trkpt lat="45.51225" lon="5.80014">
        <ele>873.3</ele>
        <time>2021-08-23T15:21:44Z</time>
      </trkpt>
      <trkpt lat="45.51224" lon="5.80013">
        <ele>873.4</ele>
        <time>2021-08-23T15:21:45Z</time>
      </trkpt>
      <trkpt lat="45.51224" lon="5.80013">
        <ele>873.6</ele>
        <time>2021-08-23T15:21:48Z</time>
      </trkpt>
      <trkpt lat="45.51223" lon="5.80012">
        <ele>873.7</ele>
        <time>2021-08-23T15:21:49Z</time>
      </trkpt>
      <trkpt lat="45.51222" lon="5.80011">
        <ele>873.8</ele>
        <time>2021-08-23T15:21:50Z</time>
      </trkpt>
      <trkpt lat="45.51221" lon="5.8001">
        <ele>874</ele>
        <time>2021-08-23T15:21:52Z</time>
      </trkpt>
      <trkpt lat="45.5122" lon="5.80009">
        <ele>874.2</ele>
        <time>2021-08-23T15:21:53Z</time>
      </trkpt>
      <trkpt lat="45.51218" lon="5.80008">
        <ele>874.4</ele>
        <time>2021-08-23T15:21:54Z</time>
      </trkpt>
      <trkpt lat="45.51217" lon="5.80006">
        <ele>874.7</ele>
        <time>2021-08-23T15:21:55Z</time>
      </trkpt>
      <trkpt lat="45.51213" lon="5.80004">
        <ele>875.2</ele>
        <time>2021-08-23T15:21:57Z</time>
      </trkpt>
      <trkpt lat="45.51212" lon="5.80003">
        <ele>875.4</ele>
        <time>2021-08-23T15:21:58Z</time>
      </trkpt>
      <trkpt lat="45.51208" lon="5.80001">
        <ele>875.8</ele>
        <time>2021-08-23T15:22:00Z</time>
      </trkpt>
      <trkpt lat="45.51207" lon="5.8">
        <ele>876</ele>
        <time>2021-08-23T15:22:01Z</time>
      </trkpt>
      <trkpt lat="45.51206" lon="5.79999">
        <ele>876.1</ele>
        <time>2021-08-23T15:22:03Z</time>
      </trkpt>
      <trkpt lat="45.51205" lon="5.79998">
        <ele>876.3</ele>
        <time>2021-08-23T15:22:04Z</time>
      </trkpt>
      <trkpt lat="45.51204" lon="5.79996">
        <ele>876.4</ele>
        <time>2021-08-23T15:22:05Z</time>
      </trkpt>
      <trkpt lat="45.51204" lon="5.79995">
        <ele>876.5</ele>
        <time>2021-08-23T15:22:07Z</time>
      </trkpt>
      <trkpt lat="45.51204" lon="5.79995">
        <ele>876.6</ele>
        <time>2021-08-23T15:22:08Z</time>
      </trkpt>
      <trkpt lat="45.51204" lon="5.79994">
        <ele>876.7</ele>
        <time>2021-08-23T15:22:09Z</time>
      </trkpt>
      <trkpt lat="45.51204" lon="5.79992">
        <ele>876.9</ele>
        <time>2021-08-23T15:22:10Z</time>
      </trkpt>
      <trkpt lat="45.51204" lon="5.79989">
        <ele>877.1</ele>
        <time>2021-08-23T15:22:12Z</time>
      </trkpt>
      <trkpt lat="45.51204" lon="5.79985">
        <ele>877.4</ele>
        <time>2021-08-23T15:22:13Z</time>
      </trkpt>
      <trkpt lat="45.51204" lon="5.79979">
        <ele>877.9</ele>
        <time>2021-08-23T15:22:15Z</time>
      </trkpt>
      <trkpt lat="45.51204" lon="5.79976">
        <ele>878.2</ele>
        <time>2021-08-23T15:22:16Z</time>
      </trkpt>
      <trkpt lat="45.51203" lon="5.79971">
        <ele>878.6</ele>
        <time>2021-08-23T15:22:18Z</time>
      </trkpt>
      <trkpt lat="45.51202" lon="5.79968">
        <ele>878.9</ele>
        <time>2021-08-23T15:22:19Z</time>
      </trkpt>
      <trkpt lat="45.51202" lon="5.79967">
        <ele>879</ele>
        <time>2021-08-23T15:22:20Z</time>
      </trkpt>
      <trkpt lat="45.51201" lon="5.79966">
        <ele>879.1</ele>
        <time>2021-08-23T15:22:21Z</time>
      </trkpt>
      <trkpt lat="45.512" lon="5.79964">
        <ele>879.3</ele>
        <time>2021-08-23T15:22:22Z</time>
      </trkpt>
      <trkpt lat="45.51198" lon="5.7996">
        <ele>879.7</ele>
        <time>2021-08-23T15:22:24Z</time>
      </trkpt>
      <trkpt lat="45.51197" lon="5.79959">
        <ele>880</ele>
        <time>2021-08-23T15:22:26Z</time>
      </trkpt>
      <trkpt lat="45.51195" lon="5.79958">
        <ele>880.1</ele>
        <time>2021-08-23T15:22:27Z</time>
      </trkpt>
      <trkpt lat="45.51191" lon="5.79956">
        <ele>880.6</ele>
        <time>2021-08-23T15:22:29Z</time>
      </trkpt>
      <trkpt lat="45.5119" lon="5.79956">
        <ele>880.8</ele>
        <time>2021-08-23T15:22:30Z</time>
      </trkpt>
      <trkpt lat="45.51189" lon="5.79955">
        <ele>880.9</ele>
        <time>2021-08-23T15:22:31Z</time>
      </trkpt>
      <trkpt lat="45.51188" lon="5.79955">
        <ele>881</ele>
        <time>2021-08-23T15:22:33Z</time>
      </trkpt>
      <trkpt lat="45.51187" lon="5.79955">
        <ele>881.1</ele>
        <time>2021-08-23T15:22:34Z</time>
      </trkpt>
      <trkpt lat="45.51186" lon="5.79955">
        <ele>881.2</ele>
        <time>2021-08-23T15:22:36Z</time>
      </trkpt>
      <trkpt lat="45.51186" lon="5.79955">
        <ele>881.2</ele>
        <time>2021-08-23T15:22:37Z</time>
      </trkpt>
      <trkpt lat="45.51185" lon="5.79955">
        <ele>881.4</ele>
        <time>2021-08-23T15:22:38Z</time>
      </trkpt>
      <trkpt lat="45.51184" lon="5.79955">
        <ele>881.5</ele>
        <time>2021-08-23T15:22:40Z</time>
      </trkpt>
      <trkpt lat="45.51183" lon="5.79956">
        <ele>881.7</ele>
        <time>2021-08-23T15:22:41Z</time>
      </trkpt>
      <trkpt lat="45.51182" lon="5.79956">
        <ele>881.7</ele>
        <time>2021-08-23T15:22:42Z</time>
      </trkpt>
      <trkpt lat="45.51179" lon="5.79956">
        <ele>882.1</ele>
        <time>2021-08-23T15:22:44Z</time>
      </trkpt>
      <trkpt lat="45.51178" lon="5.79956">
        <ele>882.2</ele>
        <time>2021-08-23T15:22:45Z</time>
      </trkpt>
      <trkpt lat="45.51175" lon="5.79957">
        <ele>882.4</ele>
        <time>2021-08-23T15:22:46Z</time>
      </trkpt>
      <trkpt lat="45.51172" lon="5.79957">
        <ele>882.7</ele>
        <time>2021-08-23T15:22:48Z</time>
      </trkpt>
      <trkpt lat="45.51171" lon="5.79957">
        <ele>882.8</ele>
        <time>2021-08-23T15:22:49Z</time>
      </trkpt>
      <trkpt lat="45.51169" lon="5.79958">
        <ele>883</ele>
        <time>2021-08-23T15:22:50Z</time>
      </trkpt>
      <trkpt lat="45.51168" lon="5.79958">
        <ele>883.1</ele>
        <time>2021-08-23T15:22:51Z</time>
      </trkpt>
      <trkpt lat="45.51165" lon="5.79959">
        <ele>883.3</ele>
        <time>2021-08-23T15:22:52Z</time>
      </trkpt>
      <trkpt lat="45.51164" lon="5.79959">
        <ele>883.4</ele>
        <time>2021-08-23T15:22:54Z</time>
      </trkpt>
      <trkpt lat="45.51162" lon="5.7996">
        <ele>883.5</ele>
        <time>2021-08-23T15:22:55Z</time>
      </trkpt>
      <trkpt lat="45.51158" lon="5.7996">
        <ele>883.9</ele>
        <time>2021-08-23T15:22:56Z</time>
      </trkpt>
      <trkpt lat="45.51153" lon="5.79962">
        <ele>884.3</ele>
        <time>2021-08-23T15:22:58Z</time>
      </trkpt>
      <trkpt lat="45.5115" lon="5.79964">
        <ele>884.6</ele>
        <time>2021-08-23T15:22:59Z</time>
      </trkpt>
      <trkpt lat="45.51147" lon="5.79966">
        <ele>884.8</ele>
        <time>2021-08-23T15:23:00Z</time>
      </trkpt>
      <trkpt lat="45.51145" lon="5.79967">
        <ele>885</ele>
        <time>2021-08-23T15:23:01Z</time>
      </trkpt>
      <trkpt lat="45.51143" lon="5.79968">
        <ele>885.1</ele>
        <time>2021-08-23T15:23:03Z</time>
      </trkpt>
      <trkpt lat="45.51142" lon="5.79969">
        <ele>885.3</ele>
        <time>2021-08-23T15:23:04Z</time>
      </trkpt>
      <trkpt lat="45.5114" lon="5.79972">
        <ele>885.5</ele>
        <time>2021-08-23T15:23:06Z</time>
      </trkpt>
      <trkpt lat="45.51139" lon="5.79976">
        <ele>885.7</ele>
        <time>2021-08-23T15:23:07Z</time>
      </trkpt>
      <trkpt lat="45.51138" lon="5.79978">
        <ele>885.9</ele>
        <time>2021-08-23T15:23:08Z</time>
      </trkpt>
      <trkpt lat="45.50882" lon="5.79744">
        <ele>919.5</ele>
        <time>2021-08-23T15:28:52Z</time>
      </trkpt>
      <trkpt lat="45.5088" lon="5.79741">
        <ele>919.7</ele>
        <time>2021-08-23T15:28:54Z</time>
      </trkpt>
      <trkpt lat="45.50877" lon="5.79734">
        <ele>920</ele>
        <time>2021-08-23T15:28:56Z</time>
      </trkpt>
      <trkpt lat="45.50875" lon="5.79729">
        <ele>920.2</ele>
        <time>2021-08-23T15:28:57Z</time>
      </trkpt>
      <trkpt lat="45.50874" lon="5.79727">
        <ele>920.3</ele>
        <time>2021-08-23T15:28:58Z</time>
      </trkpt>
      <trkpt lat="45.50874" lon="5.79725">
        <ele>920.3</ele>
        <time>2021-08-23T15:28:59Z</time>
      </trkpt>
      <trkpt lat="45.50873" lon="5.79722">
        <ele>920.5</ele>
        <time>2021-08-23T15:29:00Z</time>
      </trkpt>
      <trkpt lat="45.50873" lon="5.79717">
        <ele>920.6</ele>
        <time>2021-08-23T15:29:02Z</time>
      </trkpt>
      <trkpt lat="45.50873" lon="5.79713">
        <ele>920.8</ele>
        <time>2021-08-23T15:29:03Z</time>
      </trkpt>
      <trkpt lat="45.50873" lon="5.79711">
        <ele>920.8</ele>
        <time>2021-08-23T15:29:04Z</time>
      </trkpt>
      <trkpt lat="45.50873" lon="5.79709">
        <ele>920.9</ele>
        <time>2021-08-23T15:29:05Z</time>
      </trkpt>
      <trkpt lat="45.50873" lon="5.79706">
        <ele>921</ele>
        <time>2021-08-23T15:29:07Z</time>
      </trkpt>
      <trkpt lat="45.50873" lon="5.79703">
        <ele>921.1</ele>
        <time>2021-08-23T15:29:08Z</time>
      </trkpt>
      <trkpt lat="45.50873" lon="5.797">
        <ele>921.2</ele>
        <time>2021-08-23T15:29:10Z</time>
      </trkpt>
      <trkpt lat="45.50873" lon="5.79699">
        <ele>921.2</ele>
        <time>2021-08-23T15:29:11Z</time>
      </trkpt>
      <trkpt lat="45.50873" lon="5.79696">
        <ele>921.3</ele>
        <time>2021-08-23T15:29:12Z</time>
      </trkpt>
      <trkpt lat="45.50873" lon="5.79694">
        <ele>921.3</ele>
        <time>2021-08-23T15:29:14Z</time>
      </trkpt>
      <trkpt lat="45.50872" lon="5.79694">
        <ele>921.4</ele>
        <time>2021-08-23T15:29:15Z</time>
      </trkpt>
      <trkpt lat="45.50872" lon="5.79694">
        <ele>921.4</ele>
        <time>2021-08-23T15:29:16Z</time>
      </trkpt>
      <trkpt lat="45.50872" lon="5.79694">
        <ele>921.4</ele>
        <time>2021-08-23T15:29:18Z</time>
      </trkpt>
      <trkpt lat="45.50872" lon="5.79694">
        <ele>921.4</ele>
        <time>2021-08-23T15:29:19Z</time>
      </trkpt>
      <trkpt lat="45.50871" lon="5.79694">
        <ele>921.4</ele>
        <time>2021-08-23T15:29:20Z</time>
      </trkpt>
      <trkpt lat="45.5087" lon="5.79695">
        <ele>921.5</ele>
        <time>2021-08-23T15:29:21Z</time>
      </trkpt>
      <trkpt lat="45.50866" lon="5.79695">
        <ele>921.6</ele>
        <time>2021-08-23T15:29:23Z</time>
      </trkpt>
      <trkpt lat="45.50864" lon="5.79694">
        <ele>921.7</ele>
        <time>2021-08-23T15:29:24Z</time>
      </trkpt>
      <trkpt lat="45.50861" lon="5.79694">
        <ele>921.8</ele>
        <time>2021-08-23T15:29:26Z</time>
      </trkpt>
      <trkpt lat="45.5086" lon="5.79694">
        <ele>921.9</ele>
        <time>2021-08-23T15:29:27Z</time>
      </trkpt>
      <trkpt lat="45.50856" lon="5.79695">
        <ele>922</ele>
        <time>2021-08-23T15:29:28Z</time>
      </trkpt>
      <trkpt lat="45.50853" lon="5.79696">
        <ele>922.1</ele>
        <time>2021-08-23T15:29:30Z</time>
      </trkpt>
      <trkpt lat="45.50849" lon="5.79697">
        <ele>922.3</ele>
        <time>2021-08-23T15:29:31Z</time>
      </trkpt>
      <trkpt lat="45.50844" lon="5.79697">
        <ele>922.4</ele>
        <time>2021-08-23T15:29:33Z</time>
      </trkpt>
      <trkpt lat="45.50843" lon="5.79697">
        <ele>922.5</ele>
        <time>2021-08-23T15:29:34Z</time>
      </trkpt>
      <trkpt lat="45.50841" lon="5.79697">
        <ele>922.6</ele>
        <time>2021-08-23T15:29:35Z</time>
      </trkpt>
      <trkpt lat="45.50839" lon="5.79697">
        <ele>922.6</ele>
        <time>2021-08-23T15:29:37Z</time>
      </trkpt>
      <trkpt lat="45.50839" lon="5.79697">
        <ele>922.7</ele>
        <time>2021-08-23T15:29:38Z</time>
      </trkpt>
      <trkpt lat="45.50835" lon="5.79696">
        <ele>922.8</ele>
        <time>2021-08-23T15:29:40Z</time>
      </trkpt>
      <trkpt lat="45.50825" lon="5.79694">
        <ele>923.3</ele>
        <time>2021-08-23T15:29:41Z</time>
      </trkpt>
      <trkpt lat="45.5082" lon="5.79692">
        <ele>923.5</ele>
        <time>2021-08-23T15:29:42Z</time>
      </trkpt>
      <trkpt lat="45.50817" lon="5.79691">
        <ele>923.7</ele>
        <time>2021-08-23T15:29:44Z</time>
      </trkpt>
      <trkpt lat="45.50813" lon="5.79688">
        <ele>924</ele>
        <time>2021-08-23T15:29:46Z</time>
      </trkpt>
      <trkpt lat="45.50807" lon="5.79683">
        <ele>924.4</ele>
        <time>2021-08-23T15:29:47Z</time>
      </trkpt>
      <trkpt lat="45.50803" lon="5.79681">
        <ele>924.6</ele>
        <time>2021-08-23T15:29:49Z</time>
      </trkpt>
      <trkpt lat="45.508" lon="5.79678">
        <ele>924.9</ele>
        <time>2021-08-23T15:29:50Z</time>
      </trkpt>
      <trkpt lat="45.50798" lon="5.79676">
        <ele>925.1</ele>
        <time>2021-08-23T15:29:51Z</time>
      </trkpt>
      <trkpt lat="45.50795" lon="5.79672">
        <ele>925.5</ele>
        <time>2021-08-23T15:29:53Z</time>
      </trkpt>
      <trkpt lat="45.50794" lon="5.79668">
        <ele>925.7</ele>
        <time>2021-08-23T15:29:54Z</time>
      </trkpt>
      <trkpt lat="45.50794" lon="5.79667">
        <ele>925.8</ele>
        <time>2021-08-23T15:29:55Z</time>
      </trkpt>
      <trkpt lat="45.50793" lon="5.79664">
        <ele>925.9</ele>
        <time>2021-08-23T15:29:57Z</time>
      </trkpt>
      <trkpt lat="45.50793" lon="5.79663">
        <ele>926</ele>
        <time>2021-08-23T15:29:58Z</time>
      </trkpt>
      <trkpt lat="45.50792" lon="5.7966">
        <ele>926.1</ele>
        <time>2021-08-23T15:29:59Z</time>
      </trkpt>
      <trkpt lat="45.50792" lon="5.79659">
        <ele>926.2</ele>
        <time>2021-08-23T15:30:00Z</time>
      </trkpt>
      <trkpt lat="45.50792" lon="5.79657">
        <ele>926.3</ele>
        <time>2021-08-23T15:30:02Z</time>
      </trkpt>
      <trkpt lat="45.50791" lon="5.79654">
        <ele>926.5</ele>
        <time>2021-08-23T15:30:03Z</time>
      </trkpt>
      <trkpt lat="45.50606" lon="5.79515">
        <ele>947.6</ele>
        <time>2021-08-23T15:34:04Z</time>
      </trkpt>
      <trkpt lat="45.50603" lon="5.79516">
        <ele>947.9</ele>
        <time>2021-08-23T15:34:06Z</time>
      </trkpt>
      <trkpt lat="45.506" lon="5.79515">
        <ele>948.3</ele>
        <time>2021-08-23T15:34:07Z</time>
      </trkpt>
      <trkpt lat="45.50598" lon="5.79514">
        <ele>948.5</ele>
        <time>2021-08-23T15:34:08Z</time>
      </trkpt>
      <trkpt lat="45.50596" lon="5.79513">
        <ele>948.7</ele>
        <time>2021-08-23T15:34:10Z</time>
      </trkpt>
      <trkpt lat="45.50595" lon="5.79512">
        <ele>947.9</ele>
        <time>2021-08-23T15:34:11Z</time>
      </trkpt>
      <trkpt lat="45.50595" lon="5.79511">
        <ele>947.8</ele>
        <time>2021-08-23T15:34:12Z</time>
      </trkpt>
      <trkpt lat="45.50596" lon="5.79509">
        <ele>947.1</ele>
        <time>2021-08-23T15:34:13Z</time>
      </trkpt>
      <trkpt lat="45.50596" lon="5.79509">
        <ele>946.9</ele>
        <time>2021-08-23T15:34:14Z</time>
      </trkpt>
      <trkpt lat="45.50597" lon="5.79509">
        <ele>946.8</ele>
        <time>2021-08-23T15:34:15Z</time>
      </trkpt>
      <trkpt lat="45.50597" lon="5.79509">
        <ele>946.7</ele>
        <time>2021-08-23T15:34:17Z</time>
      </trkpt>
      <trkpt lat="45.50597" lon="5.79509">
        <ele>946.5</ele>
        <time>2021-08-23T15:34:18Z</time>
      </trkpt>
      <trkpt lat="45.50597" lon="5.79509">
        <ele>946.4</ele>
        <time>2021-08-23T15:34:20Z</time>
      </trkpt>
      <trkpt lat="45.50597" lon="5.79509">
        <ele>946.2</ele>
        <time>2021-08-23T15:34:24Z</time>
      </trkpt>
      <trkpt lat="45.50597" lon="5.79509">
        <ele>946.1</ele>
        <time>2021-08-23T15:34:27Z</time>
      </trkpt>
      <trkpt lat="45.50597" lon="5.79508">
        <ele>946</ele>
        <time>2021-08-23T15:34:33Z</time>
      </trkpt>
      <trkpt lat="45.50597" lon="5.79508">
        <ele>945.8</ele>
        <time>2021-08-23T15:34:41Z</time>
      </trkpt>
      <trkpt lat="45.50597" lon="5.79507">
        <ele>944.5</ele>
        <time>2021-08-23T15:34:42Z</time>
      </trkpt>
      <trkpt lat="45.50597" lon="5.79507">
        <ele>944.3</ele>
        <time>2021-08-23T15:34:44Z</time>
      </trkpt>
      <trkpt lat="45.50597" lon="5.79507">
        <ele>944.2</ele>
        <time>2021-08-23T15:34:45Z</time>
      </trkpt>
      <trkpt lat="45.50597" lon="5.79506">
        <ele>944.1</ele>
        <time>2021-08-23T15:34:48Z</time>
      </trkpt>
      <trkpt lat="45.50597" lon="5.79506">
        <ele>943.9</ele>
        <time>2021-08-23T15:34:51Z</time>
      </trkpt>
      <trkpt lat="45.50597" lon="5.79506">
        <ele>943.8</ele>
        <time>2021-08-23T15:34:52Z</time>
      </trkpt>
      <trkpt lat="45.50598" lon="5.79506">
        <ele>943.7</ele>
        <time>2021-08-23T15:34:54Z</time>
      </trkpt>
      <trkpt lat="45.50598" lon="5.79506">
        <ele>943.5</ele>
        <time>2021-08-23T15:34:55Z</time>
      </trkpt>
      <trkpt lat="45.50598" lon="5.79506">
        <ele>943.4</ele>
        <time>2021-08-23T15:34:57Z</time>
      </trkpt>
      <trkpt lat="45.50598" lon="5.79506">
        <ele>943.2</ele>
        <time>2021-08-23T15:34:58Z</time>
      </trkpt>
      <trkpt lat="45.50598" lon="5.79506">
        <ele>943.1</ele>
        <time>2021-08-23T15:35:00Z</time>
      </trkpt>
      <trkpt lat="45.50598" lon="5.79506">
        <ele>943</ele>
        <time>2021-08-23T15:35:02Z</time>
      </trkpt>
      <trkpt lat="45.50598" lon="5.79506">
        <ele>942.8</ele>
        <time>2021-08-23T15:35:04Z</time>
      </trkpt>
      <trkpt lat="45.50594" lon="5.79476">
        <ele>935.3</ele>
        <time>2021-08-23T15:35:19Z</time>
      </trkpt>
      <trkpt lat="45.50593" lon="5.79473">
        <ele>934.2</ele>
        <time>2021-08-23T15:35:20Z</time>
      </trkpt>
      <trkpt lat="45.50593" lon="5.79472">
        <ele>934.1</ele>
        <time>2021-08-23T15:35:22Z</time>
      </trkpt>
      <trkpt lat="45.50593" lon="5.79472">
        <ele>933.9</ele>
        <time>2021-08-23T15:35:23Z</time>
      </trkpt>
      <trkpt lat="45.50593" lon="5.79471">
        <ele>933.8</ele>
        <time>2021-08-23T15:35:25Z</time>
      </trkpt>
      <trkpt lat="45.50593" lon="5.79471">
        <ele>933.7</ele>
        <time>2021-08-23T15:35:27Z</time>
      </trkpt>
      <trkpt lat="45.50593" lon="5.79472">
        <ele>933.5</ele>
        <time>2021-08-23T15:35:28Z</time>
      </trkpt>
      <trkpt lat="45.50592" lon="5.79472">
        <ele>934.2</ele>
        <time>2021-08-23T15:35:30Z</time>
      </trkpt>
      <trkpt lat="45.50628" lon="5.79385">
        <ele>903</ele>
        <time>2021-08-23T15:36:16Z</time>
      </trkpt>
      <trkpt lat="45.50631" lon="5.79385">
        <ele>902</ele>
        <time>2021-08-23T15:36:17Z</time>
      </trkpt>
      <trkpt lat="45.50635" lon="5.79387">
        <ele>901</ele>
        <time>2021-08-23T15:36:19Z</time>
      </trkpt>
      <trkpt lat="45.5064" lon="5.79391">
        <ele>899.3</ele>
        <time>2021-08-23T15:36:20Z</time>
      </trkpt>
      <trkpt lat="45.50644" lon="5.79393">
        <ele>898.4</ele>
        <time>2021-08-23T15:36:21Z</time>
      </trkpt>
      <trkpt lat="45.50645" lon="5.79394">
        <ele>898.3</ele>
        <time>2021-08-23T15:36:22Z</time>
      </trkpt>
      <trkpt lat="45.50645" lon="5.79394">
        <ele>898.1</ele>
        <time>2021-08-23T15:36:23Z</time>
      </trkpt>
      <trkpt lat="45.50645" lon="5.79394">
        <ele>898</ele>
        <time>2021-08-23T15:36:24Z</time>
      </trkpt>
      <trkpt lat="45.50644" lon="5.79394">
        <ele>897.8</ele>
        <time>2021-08-23T15:36:25Z</time>
      </trkpt>
      <trkpt lat="45.50644" lon="5.79393">
        <ele>897.7</ele>
        <time>2021-08-23T15:36:27Z</time>
      </trkpt>
      <trkpt lat="45.50647" lon="5.79362">
        <ele>891</ele>
        <time>2021-08-23T15:36:42Z</time>
      </trkpt>
      <trkpt lat="45.50648" lon="5.79361">
        <ele>890.1</ele>
        <time>2021-08-23T15:36:43Z</time>
      </trkpt>
      <trkpt lat="45.50648" lon="5.79359">
        <ele>890</ele>
        <time>2021-08-23T15:36:45Z</time>
      </trkpt>
      <trkpt lat="45.50648" lon="5.79357">
        <ele>889.9</ele>
        <time>2021-08-23T15:36:47Z</time>
      </trkpt>
      <trkpt lat="45.50648" lon="5.79356">
        <ele>888.9</ele>
        <time>2021-08-23T15:36:48Z</time>
      </trkpt>
      <trkpt lat="45.50648" lon="5.79354">
        <ele>888.8</ele>
        <time>2021-08-23T15:36:49Z</time>
      </trkpt>
      <trkpt lat="45.50648" lon="5.79353">
        <ele>888.6</ele>
        <time>2021-08-23T15:36:50Z</time>
      </trkpt>
      <trkpt lat="45.50647" lon="5.79353">
        <ele>888.5</ele>
        <time>2021-08-23T15:36:51Z</time>
      </trkpt>
      <trkpt lat="45.50646" lon="5.79353">
        <ele>888.4</ele>
        <time>2021-08-23T15:36:52Z</time>
      </trkpt>
      <trkpt lat="45.50645" lon="5.79353">
        <ele>889</ele>
        <time>2021-08-23T15:36:54Z</time>
      </trkpt>
      <trkpt lat="45.50645" lon="5.79353">
        <ele>888.9</ele>
        <time>2021-08-23T15:36:55Z</time>
      </trkpt>
      <trkpt lat="45.50644" lon="5.79353">
        <ele>888.8</ele>
        <time>2021-08-23T15:36:56Z</time>
      </trkpt>
      <trkpt lat="45.50643" lon="5.79353">
        <ele>889.4</ele>
        <time>2021-08-23T15:36:58Z</time>
      </trkpt>
      <trkpt lat="45.50643" lon="5.79352">
        <ele>888.5</ele>
        <time>2021-08-23T15:37:00Z</time>
      </trkpt>
      <trkpt lat="45.50644" lon="5.79351">
        <ele>888.3</ele>
        <time>2021-08-23T15:37:01Z</time>
      </trkpt>
      <trkpt lat="45.50644" lon="5.79351">
        <ele>887.4</ele>
        <time>2021-08-23T15:37:02Z</time>
      </trkpt>
      <trkpt lat="45.50644" lon="5.79349">
        <ele>887.2</ele>
        <time>2021-08-23T15:37:04Z</time>
      </trkpt>
      <trkpt lat="45.50645" lon="5.79349">
        <ele>887.1</ele>
        <time>2021-08-23T15:37:05Z</time>
      </trkpt>
      <trkpt lat="45.50645" lon="5.79348">
        <ele>886.1</ele>
        <time>2021-08-23T15:37:06Z</time>
      </trkpt>
      <trkpt lat="45.50645" lon="5.79347">
        <ele>886</ele>
        <time>2021-08-23T15:37:07Z</time>
      </trkpt>
      <trkpt lat="45.50646" lon="5.79347">
        <ele>885.9</ele>
        <time>2021-08-23T15:37:09Z</time>
      </trkpt>
      <trkpt lat="45.50646" lon="5.79346">
        <ele>885.7</ele>
        <time>2021-08-23T15:37:10Z</time>
      </trkpt>
      <trkpt lat="45.50646" lon="5.79346">
        <ele>885.6</ele>
        <time>2021-08-23T15:37:12Z</time>
      </trkpt>
      <trkpt lat="45.50646" lon="5.79346">
        <ele>885.5</ele>
        <time>2021-08-23T15:37:13Z</time>
      </trkpt>
      <trkpt lat="45.50646" lon="5.79345">
        <ele>885.3</ele>
        <time>2021-08-23T15:37:14Z</time>
      </trkpt>
      <trkpt lat="45.50646" lon="5.79345">
        <ele>885.2</ele>
        <time>2021-08-23T15:37:16Z</time>
      </trkpt>
      <trkpt lat="45.50646" lon="5.79345">
        <ele>885</ele>
        <time>2021-08-23T15:37:18Z</time>
      </trkpt>
      <trkpt lat="45.50646" lon="5.79345">
        <ele>884.9</ele>
        <time>2021-08-23T15:37:19Z</time>
      </trkpt>
      <trkpt lat="45.50646" lon="5.79344">
        <ele>884.8</ele>
        <time>2021-08-23T15:37:20Z</time>
      </trkpt>
      <trkpt lat="45.50646" lon="5.79344">
        <ele>883.8</ele>
        <time>2021-08-23T15:37:21Z</time>
      </trkpt>
      <trkpt lat="45.50646" lon="5.79344">
        <ele>883.7</ele>
        <time>2021-08-23T15:37:22Z</time>
      </trkpt>
      <trkpt lat="45.50647" lon="5.79344">
        <ele>883.5</ele>
        <time>2021-08-23T15:37:24Z</time>
      </trkpt>
      <trkpt lat="45.50648" lon="5.79343">
        <ele>882.6</ele>
        <time>2021-08-23T15:37:25Z</time>
      </trkpt>
      <trkpt lat="45.5065" lon="5.79344">
        <ele>881.7</ele>
        <time>2021-08-23T15:37:27Z</time>
      </trkpt>
      <trkpt lat="45.50653" lon="5.79344">
        <ele>881.5</ele>
        <time>2021-08-23T15:37:29Z</time>
      </trkpt>
      <trkpt lat="45.50656" lon="5.79342">
        <ele>879.8</ele>
        <time>2021-08-23T15:37:30Z</time>
      </trkpt>
      <trkpt lat="45.50657" lon="5.79342">
        <ele>879.6</ele>
        <time>2021-08-23T15:37:31Z</time>
      </trkpt>
      <trkpt lat="45.5066" lon="5.79339">
        <ele>877.8</ele>
        <time>2021-08-23T15:37:33Z</time>
      </trkpt>
      <trkpt lat="45.5066" lon="5.79338">
        <ele>877.7</ele>
        <time>2021-08-23T15:37:34Z</time>
      </trkpt>
      <trkpt lat="45.5066" lon="5.79335">
        <ele>876.7</ele>
        <time>2021-08-23T15:37:36Z</time>
      </trkpt>
      <trkpt lat="45.50659" lon="5.79333">
        <ele>876.5</ele>
        <time>2021-08-23T15:37:37Z</time>
      </trkpt>
      <trkpt lat="45.50658" lon="5.79332">
        <ele>877.2</ele>
        <time>2021-08-23T15:37:38Z</time>
      </trkpt>
      <trkpt lat="45.50657" lon="5.79331">
        <ele>876.2</ele>
        <time>2021-08-23T15:37:40Z</time>
      </trkpt>
      <trkpt lat="45.50657" lon="5.7933">
        <ele>876.1</ele>
        <time>2021-08-23T15:37:41Z</time>
      </trkpt>
      <trkpt lat="45.50657" lon="5.79328">
        <ele>875.9</ele>
        <time>2021-08-23T15:37:43Z</time>
      </trkpt>
      <trkpt lat="45.50656" lon="5.79326">
        <ele>874.9</ele>
        <time>2021-08-23T15:37:44Z</time>
      </trkpt>
      <trkpt lat="45.50656" lon="5.79323">
        <ele>874.6</ele>
        <time>2021-08-23T15:37:46Z</time>
      </trkpt>
      <trkpt lat="45.50655" lon="5.79322">
        <ele>874.4</ele>
        <time>2021-08-23T15:37:47Z</time>
      </trkpt>
      <trkpt lat="45.50655" lon="5.7932">
        <ele>874.3</ele>
        <time>2021-08-23T15:37:48Z</time>
      </trkpt>
      <trkpt lat="45.50653" lon="5.79319">
        <ele>874.1</ele>
        <time>2021-08-23T15:37:50Z</time>
      </trkpt>
      <trkpt lat="45.50652" lon="5.7932">
        <ele>874.8</ele>
        <time>2021-08-23T15:37:52Z</time>
      </trkpt>
      <trkpt lat="45.5065" lon="5.79319">
        <ele>874.6</ele>
        <time>2021-08-23T15:37:53Z</time>
      </trkpt>
      <trkpt lat="45.50649" lon="5.79317">
        <ele>874.2</ele>
        <time>2021-08-23T15:37:54Z</time>
      </trkpt>
      <trkpt lat="45.50648" lon="5.79315">
        <ele>874</ele>
        <time>2021-08-23T15:37:56Z</time>
      </trkpt>
      <trkpt lat="45.50647" lon="5.7931">
        <ele>871.4</ele>
        <time>2021-08-23T15:37:58Z</time>
      </trkpt>
      <trkpt lat="45.50647" lon="5.79307">
        <ele>871.3</ele>
        <time>2021-08-23T15:38:00Z</time>
      </trkpt>
      <trkpt lat="45.50647" lon="5.79305">
        <ele>869.8</ele>
        <time>2021-08-23T15:38:01Z</time>
      </trkpt>
      <trkpt lat="45.50647" lon="5.79302">
        <ele>869.7</ele>
        <time>2021-08-23T15:38:02Z</time>
      </trkpt>
      <trkpt lat="45.50647" lon="5.79301">
        <ele>868.9</ele>
        <time>2021-08-23T15:38:04Z</time>
      </trkpt>
      <trkpt lat="45.50647" lon="5.793">
        <ele>868.7</ele>
        <time>2021-08-23T15:38:05Z</time>
      </trkpt>
      <trkpt lat="45.50647" lon="5.793">
        <ele>868.6</ele>
        <time>2021-08-23T15:38:07Z</time>
      </trkpt>
      <trkpt lat="45.50647" lon="5.793">
        <ele>868.4</ele>
        <time>2021-08-23T15:38:08Z</time>
      </trkpt>
      <trkpt lat="45.50646" lon="5.793">
        <ele>868.3</ele>
        <time>2021-08-23T15:38:10Z</time>
      </trkpt>
      <trkpt lat="45.50646" lon="5.79301">
        <ele>868.2</ele>
        <time>2021-08-23T15:38:11Z</time>
      </trkpt>
      <trkpt lat="45.50646" lon="5.79301">
        <ele>868</ele>
        <time>2021-08-23T15:38:12Z</time>
      </trkpt>
      <trkpt lat="45.50645" lon="5.793">
        <ele>867.9</ele>
        <time>2021-08-23T15:38:14Z</time>
      </trkpt>
      <trkpt lat="45.50645" lon="5.793">
        <ele>867.8</ele>
        <time>2021-08-23T15:38:15Z</time>
      </trkpt>
      <trkpt lat="45.50645" lon="5.79299">
        <ele>867.6</ele>
        <time>2021-08-23T15:38:16Z</time>
      </trkpt>
      <trkpt lat="45.50646" lon="5.79297">
        <ele>867.5</ele>
        <time>2021-08-23T15:38:18Z</time>
      </trkpt>
      <trkpt lat="45.50646" lon="5.79296">
        <ele>866</ele>
        <time>2021-08-23T15:38:19Z</time>
      </trkpt>
      <trkpt lat="45.50646" lon="5.79295">
        <ele>865.9</ele>
        <time>2021-08-23T15:38:20Z</time>
      </trkpt>
      <trkpt lat="45.50646" lon="5.79295">
        <ele>865.7</ele>
        <time>2021-08-23T15:38:21Z</time>
      </trkpt>
      <trkpt lat="45.50646" lon="5.79294">
        <ele>865.6</ele>
        <time>2021-08-23T15:38:23Z</time>
      </trkpt>
      <trkpt lat="45.50646" lon="5.79294">
        <ele>865.5</ele>
        <time>2021-08-23T15:38:24Z</time>
      </trkpt>
      <trkpt lat="45.50647" lon="5.79295">
        <ele>865.3</ele>
        <time>2021-08-23T15:38:25Z</time>
      </trkpt>
      <trkpt lat="45.50647" lon="5.79295">
        <ele>864.6</ele>
        <time>2021-08-23T15:38:26Z</time>
      </trkpt>
      <trkpt lat="45.50648" lon="5.79297">
        <ele>864.4</ele>
        <time>2021-08-23T15:38:28Z</time>
      </trkpt>
      <trkpt lat="45.50649" lon="5.79299">
        <ele>865.6</ele>
        <time>2021-08-23T15:38:30Z</time>
      </trkpt>
      <trkpt lat="45.5065" lon="5.79301">
        <ele>864.8</ele>
        <time>2021-08-23T15:38:31Z</time>
      </trkpt>
      <trkpt lat="45.50651" lon="5.79303">
        <ele>866</ele>
        <time>2021-08-23T15:38:32Z</time>
      </trkpt>
      <trkpt lat="45.50653" lon="5.79304">
        <ele>865.8</ele>
        <time>2021-08-23T15:38:34Z</time>
      </trkpt>
      <trkpt lat="45.50653" lon="5.79304">
        <ele>865</ele>
        <time>2021-08-23T15:38:35Z</time>
      </trkpt>
      <trkpt lat="45.50654" lon="5.79304">
        <ele>864.8</ele>
        <time>2021-08-23T15:38:37Z</time>
      </trkpt>
      <trkpt lat="45.50654" lon="5.79304">
        <ele>864.7</ele>
        <time>2021-08-23T15:38:39Z</time>
      </trkpt>
      <trkpt lat="45.50655" lon="5.79304">
        <ele>864.6</ele>
        <time>2021-08-23T15:38:40Z</time>
      </trkpt>
      <trkpt lat="45.50656" lon="5.79304">
        <ele>864.4</ele>
        <time>2021-08-23T15:38:41Z</time>
      </trkpt>
      <trkpt lat="45.50656" lon="5.79304">
        <ele>863.6</ele>
        <time>2021-08-23T15:38:42Z</time>
      </trkpt>
      <trkpt lat="45.50657" lon="5.79304">
        <ele>863.4</ele>
        <time>2021-08-23T15:38:43Z</time>
      </trkpt>
      <trkpt lat="45.50658" lon="5.79305">
        <ele>863.3</ele>
        <time>2021-08-23T15:38:44Z</time>
      </trkpt>
      <trkpt lat="45.50661" lon="5.79301">
        <ele>861.2</ele>
        <time>2021-08-23T15:38:46Z</time>
      </trkpt>
      <trkpt lat="45.50663" lon="5.79298">
        <ele>860.3</ele>
        <time>2021-08-23T15:38:47Z</time>
      </trkpt>
      <trkpt lat="45.50664" lon="5.79296">
        <ele>859</ele>
        <time>2021-08-23T15:38:48Z</time>
      </trkpt>
      <trkpt lat="45.50665" lon="5.79294">
        <ele>858.9</ele>
        <time>2021-08-23T15:38:49Z</time>
      </trkpt>
      <trkpt lat="45.5067" lon="5.79295">
        <ele>857.2</ele>
        <time>2021-08-23T15:38:51Z</time>
      </trkpt>
      <trkpt lat="45.50672" lon="5.79296">
        <ele>856.3</ele>
        <time>2021-08-23T15:38:52Z</time>
      </trkpt>
      <trkpt lat="45.50674" lon="5.79297">
        <ele>856.1</ele>
        <time>2021-08-23T15:38:53Z</time>
      </trkpt>
      <trkpt lat="45.50678" lon="5.79299">
        <ele>855.5</ele>
        <time>2021-08-23T15:38:54Z</time>
      </trkpt>
      <trkpt lat="45.50679" lon="5.793">
        <ele>855.3</ele>
        <time>2021-08-23T15:38:55Z</time>
      </trkpt>
      <trkpt lat="45.50684" lon="5.79303">
        <ele>854.7</ele>
        <time>2021-08-23T15:38:57Z</time>
      </trkpt>
      <trkpt lat="45.50685" lon="5.79304">
        <ele>854.6</ele>
        <time>2021-08-23T15:38:58Z</time>
      </trkpt>
      <trkpt lat="45.50686" lon="5.79304">
        <ele>854.4</ele>
        <time>2021-08-23T15:38:59Z</time>
      </trkpt>
      <trkpt lat="45.50686" lon="5.79304">
        <ele>854.3</ele>
        <time>2021-08-23T15:39:00Z</time>
      </trkpt>
      <trkpt lat="45.50686" lon="5.79304">
        <ele>853.3</ele>
        <time>2021-08-23T15:39:02Z</time>
      </trkpt>
      <trkpt lat="45.50686" lon="5.79305">
        <ele>854</ele>
        <time>2021-08-23T15:39:04Z</time>
      </trkpt>
      <trkpt lat="45.50685" lon="5.79305">
        <ele>853.9</ele>
        <time>2021-08-23T15:39:05Z</time>
      </trkpt>
      <trkpt lat="45.50683" lon="5.79301">
        <ele>853.5</ele>
        <time>2021-08-23T15:39:07Z</time>
      </trkpt>
      <trkpt lat="45.50682" lon="5.79299">
        <ele>853.4</ele>
        <time>2021-08-23T15:39:09Z</time>
      </trkpt>
      <trkpt lat="45.50681" lon="5.79298">
        <ele>853.2</ele>
        <time>2021-08-23T15:39:10Z</time>
      </trkpt>
      <trkpt lat="45.50681" lon="5.79298">
        <ele>853.1</ele>
        <time>2021-08-23T15:39:11Z</time>
      </trkpt>
      <trkpt lat="45.50681" lon="5.79297">
        <ele>853</ele>
        <time>2021-08-23T15:39:12Z</time>
      </trkpt>
      <trkpt lat="45.50681" lon="5.79297">
        <ele>851.9</ele>
        <time>2021-08-23T15:39:14Z</time>
      </trkpt>
      <trkpt lat="45.50681" lon="5.79296">
        <ele>851.7</ele>
        <time>2021-08-23T15:39:15Z</time>
      </trkpt>
      <trkpt lat="45.50681" lon="5.79295">
        <ele>851.6</ele>
        <time>2021-08-23T15:39:16Z</time>
      </trkpt>
      <trkpt lat="45.50681" lon="5.79295">
        <ele>851.5</ele>
        <time>2021-08-23T15:39:17Z</time>
      </trkpt>
      <trkpt lat="45.50681" lon="5.79294">
        <ele>851.3</ele>
        <time>2021-08-23T15:39:18Z</time>
      </trkpt>
      <trkpt lat="45.50682" lon="5.79293">
        <ele>851.2</ele>
        <time>2021-08-23T15:39:19Z</time>
      </trkpt>
      <trkpt lat="45.50685" lon="5.7929">
        <ele>849.5</ele>
        <time>2021-08-23T15:39:21Z</time>
      </trkpt>
      <trkpt lat="45.50688" lon="5.79287">
        <ele>847.8</ele>
        <time>2021-08-23T15:39:22Z</time>
      </trkpt>
      <trkpt lat="45.50692" lon="5.79285">
        <ele>845.9</ele>
        <time>2021-08-23T15:39:23Z</time>
      </trkpt>
      <trkpt lat="45.50699" lon="5.79282">
        <ele>843</ele>
        <time>2021-08-23T15:39:25Z</time>
      </trkpt>
      <trkpt lat="45.50702" lon="5.79281">
        <ele>842</ele>
        <time>2021-08-23T15:39:26Z</time>
      </trkpt>
      <trkpt lat="45.50703" lon="5.79281">
        <ele>841.9</ele>
        <time>2021-08-23T15:39:27Z</time>
      </trkpt>
      <trkpt lat="45.50705" lon="5.79279">
        <ele>840</ele>
        <time>2021-08-23T15:39:28Z</time>
      </trkpt>
      <trkpt lat="45.50706" lon="5.79278">
        <ele>839.9</ele>
        <time>2021-08-23T15:39:30Z</time>
      </trkpt>
      <trkpt lat="45.50707" lon="5.79277">
        <ele>838.9</ele>
        <time>2021-08-23T15:39:31Z</time>
      </trkpt>
      <trkpt lat="45.50709" lon="5.79276">
        <ele>838.8</ele>
        <time>2021-08-23T15:39:32Z</time>
      </trkpt>
      <trkpt lat="45.5071" lon="5.79274">
        <ele>837.7</ele>
        <time>2021-08-23T15:39:33Z</time>
      </trkpt>
      <trkpt lat="45.50709" lon="5.79273">
        <ele>837.6</ele>
        <time>2021-08-23T15:39:35Z</time>
      </trkpt>
      <trkpt lat="45.50709" lon="5.79271">
        <ele>836.4</ele>
        <time>2021-08-23T15:39:36Z</time>
      </trkpt>
      <trkpt lat="45.50703" lon="5.79267">
        <ele>838</ele>
        <time>2021-08-23T15:39:38Z</time>
      </trkpt>
      <trkpt lat="45.507" lon="5.79266">
        <ele>837.7</ele>
        <time>2021-08-23T15:39:39Z</time>
      </trkpt>
      <trkpt lat="45.50695" lon="5.79262">
        <ele>838.5</ele>
        <time>2021-08-23T15:39:41Z</time>
      </trkpt>
      <trkpt lat="45.50691" lon="5.7926">
        <ele>839.2</ele>
        <time>2021-08-23T15:39:42Z</time>
      </trkpt>
      <trkpt lat="45.50678" lon="5.7925">
        <ele>838.8</ele>
        <time>2021-08-23T15:39:43Z</time>
      </trkpt>
      <trkpt lat="45.50666" lon="5.7924">
        <ele>838.7</ele>
        <time>2021-08-23T15:39:45Z</time>
      </trkpt>
      <trkpt lat="45.50662" lon="5.79236">
        <ele>837.1</ele>
        <time>2021-08-23T15:39:47Z</time>
      </trkpt>
      <trkpt lat="45.50661" lon="5.79235">
        <ele>836.7</ele>
        <time>2021-08-23T15:39:49Z</time>
      </trkpt>
      <trkpt lat="45.5066" lon="5.79235">
        <ele>836.5</ele>
        <time>2021-08-23T15:39:51Z</time>
      </trkpt>
      <trkpt lat="45.5066" lon="5.79235">
        <ele>836.5</ele>
        <time>2021-08-23T15:39:53Z</time>
      </trkpt>
      <trkpt lat="45.5066" lon="5.79235">
        <ele>836.5</ele>
        <time>2021-08-23T15:39:54Z</time>
      </trkpt>
      <trkpt lat="45.50661" lon="5.79235">
        <ele>836.5</ele>
        <time>2021-08-23T15:39:56Z</time>
      </trkpt>
      <trkpt lat="45.50661" lon="5.79235">
        <ele>836.4</ele>
        <time>2021-08-23T15:39:57Z</time>
      </trkpt>
      <trkpt lat="45.50661" lon="5.79235">
        <ele>836.4</ele>
        <time>2021-08-23T15:39:58Z</time>
      </trkpt>
      <trkpt lat="45.50661" lon="5.79235">
        <ele>836.3</ele>
        <time>2021-08-23T15:39:59Z</time>
      </trkpt>
      <trkpt lat="45.50661" lon="5.79235">
        <ele>836.3</ele>
        <time>2021-08-23T15:40:00Z</time>
      </trkpt>
      <trkpt lat="45.50661" lon="5.79235">
        <ele>836.2</ele>
        <time>2021-08-23T15:40:02Z</time>
      </trkpt>
      <trkpt lat="45.50662" lon="5.79235">
        <ele>836.1</ele>
        <time>2021-08-23T15:40:03Z</time>
      </trkpt>
      <trkpt lat="45.50662" lon="5.79235">
        <ele>836</ele>
        <time>2021-08-23T15:40:04Z</time>
      </trkpt>
      <trkpt lat="45.50662" lon="5.79235">
        <ele>835.9</ele>
        <time>2021-08-23T15:40:05Z</time>
      </trkpt>
      <trkpt lat="45.50663" lon="5.79235">
        <ele>835.8</ele>
        <time>2021-08-23T15:40:06Z</time>
      </trkpt>
      <trkpt lat="45.50667" lon="5.79233">
        <ele>834.4</ele>
        <time>2021-08-23T15:40:08Z</time>
      </trkpt>
      <trkpt lat="45.50671" lon="5.7923">
        <ele>833.2</ele>
        <time>2021-08-23T15:40:09Z</time>
      </trkpt>
      <trkpt lat="45.50672" lon="5.79229">
        <ele>832.8</ele>
        <time>2021-08-23T15:40:10Z</time>
      </trkpt>
      <trkpt lat="45.50675" lon="5.79227">
        <ele>831.6</ele>
        <time>2021-08-23T15:40:11Z</time>
      </trkpt>
      <trkpt lat="45.50678" lon="5.79223">
        <ele>830.4</ele>
        <time>2021-08-23T15:40:13Z</time>
      </trkpt>
      <trkpt lat="45.50681" lon="5.79218">
        <ele>829.1</ele>
        <time>2021-08-23T15:40:14Z</time>
      </trkpt>
      <trkpt lat="45.50684" lon="5.79213">
        <ele>827.7</ele>
        <time>2021-08-23T15:40:16Z</time>
      </trkpt>
      <trkpt lat="45.50685" lon="5.79208">
        <ele>826.6</ele>
        <time>2021-08-23T15:40:17Z</time>
      </trkpt>
      <trkpt lat="45.50685" lon="5.79207">
        <ele>826.3</ele>
        <time>2021-08-23T15:40:18Z</time>
      </trkpt>
      <trkpt lat="45.50684" lon="5.79196">
        <ele>823.7</ele>
        <time>2021-08-23T15:40:20Z</time>
      </trkpt>
      <trkpt lat="45.50683" lon="5.79189">
        <ele>822</ele>
        <time>2021-08-23T15:40:21Z</time>
      </trkpt>
      <trkpt lat="45.50681" lon="5.79181">
        <ele>820.3</ele>
        <time>2021-08-23T15:40:23Z</time>
      </trkpt>
      <trkpt lat="45.5068" lon="5.79173">
        <ele>818.5</ele>
        <time>2021-08-23T15:40:24Z</time>
      </trkpt>
      <trkpt lat="45.5068" lon="5.79164">
        <ele>816.6</ele>
        <time>2021-08-23T15:40:25Z</time>
      </trkpt>
      <trkpt lat="45.5068" lon="5.79153">
        <ele>814.5</ele>
        <time>2021-08-23T15:40:26Z</time>
      </trkpt>
      <trkpt lat="45.50681" lon="5.79143">
        <ele>812.7</ele>
        <time>2021-08-23T15:40:27Z</time>
      </trkpt>
      <trkpt lat="45.50681" lon="5.79134">
        <ele>811.1</ele>
        <time>2021-08-23T15:40:28Z</time>
      </trkpt>
      <trkpt lat="45.50682" lon="5.7912">
        <ele>808.6</ele>
        <time>2021-08-23T15:40:30Z</time>
      </trkpt>
      <trkpt lat="45.50685" lon="5.79108">
        <ele>806.6</ele>
        <time>2021-08-23T15:40:31Z</time>
      </trkpt>
      <trkpt lat="45.50686" lon="5.79102">
        <ele>805.3</ele>
        <time>2021-08-23T15:40:32Z</time>
      </trkpt>
      <trkpt lat="45.50686" lon="5.79097">
        <ele>804.4</ele>
        <time>2021-08-23T15:40:33Z</time>
      </trkpt>
      <trkpt lat="45.50686" lon="5.79091">
        <ele>803.5</ele>
        <time>2021-08-23T15:40:35Z</time>
      </trkpt>
      <trkpt lat="45.50687" lon="5.79085">
        <ele>802.5</ele>
        <time>2021-08-23T15:40:36Z</time>
      </trkpt>
      <trkpt lat="45.50688" lon="5.79083">
        <ele>802.2</ele>
        <time>2021-08-23T15:40:37Z</time>
      </trkpt>
      <trkpt lat="45.50689" lon="5.79074">
        <ele>800.5</ele>
        <time>2021-08-23T15:40:39Z</time>
      </trkpt>
      <trkpt lat="45.50689" lon="5.79067">
        <ele>799.4</ele>
        <time>2021-08-23T15:40:40Z</time>
      </trkpt>
      <trkpt lat="45.50688" lon="5.7906">
        <ele>798.3</ele>
        <time>2021-08-23T15:40:41Z</time>
      </trkpt>
      <trkpt lat="45.50687" lon="5.79057">
        <ele>797.5</ele>
        <time>2021-08-23T15:40:42Z</time>
      </trkpt>
      <trkpt lat="45.50684" lon="5.79051">
        <ele>796.4</ele>
        <time>2021-08-23T15:40:44Z</time>
      </trkpt>
      <trkpt lat="45.50682" lon="5.79046">
        <ele>795.5</ele>
        <time>2021-08-23T15:40:45Z</time>
      </trkpt>
      <trkpt lat="45.5068" lon="5.7904">
        <ele>794.2</ele>
        <time>2021-08-23T15:40:46Z</time>
      </trkpt>
      <trkpt lat="45.50677" lon="5.7903">
        <ele>792.2</ele>
        <time>2021-08-23T15:40:48Z</time>
      </trkpt>
      <trkpt lat="45.50674" lon="5.79021">
        <ele>790.5</ele>
        <time>2021-08-23T15:40:49Z</time>
      </trkpt>
      <trkpt lat="45.50671" lon="5.79012">
        <ele>788.7</ele>
        <time>2021-08-23T15:40:50Z</time>
      </trkpt>
      <trkpt lat="45.5067" lon="5.79">
        <ele>786.5</ele>
        <time>2021-08-23T15:40:51Z</time>
      </trkpt>
      <trkpt lat="45.50667" lon="5.78981">
        <ele>783.1</ele>
        <time>2021-08-23T15:40:53Z</time>
      </trkpt>
      <trkpt lat="45.50666" lon="5.78971">
        <ele>781.5</ele>
        <time>2021-08-23T15:40:54Z</time>
      </trkpt>
      <trkpt lat="45.50662" lon="5.78961">
        <ele>779.6</ele>
        <time>2021-08-23T15:40:55Z</time>
      </trkpt>
      <trkpt lat="45.50659" lon="5.78945">
        <ele>776.9</ele>
        <time>2021-08-23T15:40:57Z</time>
      </trkpt>
      <trkpt lat="45.50659" lon="5.78939">
        <ele>775.8</ele>
        <time>2021-08-23T15:40:58Z</time>
      </trkpt>
      <trkpt lat="45.50658" lon="5.78933">
        <ele>774.9</ele>
        <time>2021-08-23T15:40:59Z</time>
      </trkpt>
      <trkpt lat="45.50655" lon="5.78927">
        <ele>773.7</ele>
        <time>2021-08-23T15:41:00Z</time>
      </trkpt>
      <trkpt lat="45.5065" lon="5.78918">
        <ele>771.8</ele>
        <time>2021-08-23T15:41:02Z</time>
      </trkpt>
      <trkpt lat="45.50636" lon="5.78911">
        <ele>768.2</ele>
        <time>2021-08-23T15:41:03Z</time>
      </trkpt>
      <trkpt lat="45.5063" lon="5.78905">
        <ele>766.5</ele>
        <time>2021-08-23T15:41:04Z</time>
      </trkpt>
      <trkpt lat="45.50625" lon="5.78898">
        <ele>764.9</ele>
        <time>2021-08-23T15:41:05Z</time>
      </trkpt>
      <trkpt lat="45.50619" lon="5.78891">
        <ele>763.3</ele>
        <time>2021-08-23T15:41:06Z</time>
      </trkpt>
      <trkpt lat="45.50616" lon="5.78887">
        <ele>762.4</ele>
        <time>2021-08-23T15:41:07Z</time>
      </trkpt>
      <trkpt lat="45.50612" lon="5.78882">
        <ele>761.4</ele>
        <time>2021-08-23T15:41:08Z</time>
      </trkpt>
      <trkpt lat="45.50604" lon="5.78868">
        <ele>759.1</ele>
        <time>2021-08-23T15:41:10Z</time>
      </trkpt>
      <trkpt lat="45.50599" lon="5.78862">
        <ele>758</ele>
        <time>2021-08-23T15:41:11Z</time>
      </trkpt>
      <trkpt lat="45.50588" lon="5.78853">
        <ele>756</ele>
        <time>2021-08-23T15:41:13Z</time>
      </trkpt>
      <trkpt lat="45.50583" lon="5.78849">
        <ele>754.9</ele>
        <time>2021-08-23T15:41:14Z</time>
      </trkpt>
      <trkpt lat="45.50577" lon="5.7884">
        <ele>753.1</ele>
        <time>2021-08-23T15:41:16Z</time>
      </trkpt>
      <trkpt lat="45.50575" lon="5.78835">
        <ele>752.4</ele>
        <time>2021-08-23T15:41:17Z</time>
      </trkpt>
      <trkpt lat="45.50575" lon="5.78834">
        <ele>752.1</ele>
        <time>2021-08-23T15:41:18Z</time>
      </trkpt>
      <trkpt lat="45.50577" lon="5.7883">
        <ele>751.4</ele>
        <time>2021-08-23T15:41:19Z</time>
      </trkpt>
      <trkpt lat="45.50578" lon="5.78822">
        <ele>750.3</ele>
        <time>2021-08-23T15:41:21Z</time>
      </trkpt>
      <trkpt lat="45.50574" lon="5.78813">
        <ele>748.6</ele>
        <time>2021-08-23T15:41:23Z</time>
      </trkpt>
      <trkpt lat="45.50572" lon="5.78809">
        <ele>747.8</ele>
        <time>2021-08-23T15:41:25Z</time>
      </trkpt>
      <trkpt lat="45.50571" lon="5.78812">
        <ele>747.3</ele>
        <time>2021-08-23T15:41:27Z</time>
      </trkpt>
      <trkpt lat="45.5057" lon="5.78813">
        <ele>747</ele>
        <time>2021-08-23T15:41:28Z</time>
      </trkpt>
      <trkpt lat="45.5057" lon="5.78814">
        <ele>747</ele>
        <time>2021-08-23T15:41:30Z</time>
      </trkpt>
      <trkpt lat="45.5057" lon="5.78814">
        <ele>746.9</ele>
        <time>2021-08-23T15:41:31Z</time>
      </trkpt>
      <trkpt lat="45.5057" lon="5.78813">
        <ele>746.9</ele>
        <time>2021-08-23T15:41:33Z</time>
      </trkpt>
      <trkpt lat="45.5053" lon="5.78755">
        <ele>734.7</ele>
        <time>2021-08-23T15:41:56Z</time>
      </trkpt>
      <trkpt lat="45.50525" lon="5.78738">
        <ele>732.4</ele>
        <time>2021-08-23T15:41:57Z</time>
      </trkpt>
      <trkpt lat="45.50522" lon="5.78724">
        <ele>730.7</ele>
        <time>2021-08-23T15:41:58Z</time>
      </trkpt>
      <trkpt lat="45.50522" lon="5.78714">
        <ele>729.1</ele>
        <time>2021-08-23T15:41:59Z</time>
      </trkpt>
      <trkpt lat="45.50521" lon="5.78698">
        <ele>727</ele>
        <time>2021-08-23T15:42:01Z</time>
      </trkpt>
      <trkpt lat="45.50519" lon="5.78683">
        <ele>725.3</ele>
        <time>2021-08-23T15:42:03Z</time>
      </trkpt>
      <trkpt lat="45.50516" lon="5.78665">
        <ele>723.4</ele>
        <time>2021-08-23T15:42:05Z</time>
      </trkpt>
      <trkpt lat="45.50514" lon="5.78656">
        <ele>722.6</ele>
        <time>2021-08-23T15:42:06Z</time>
      </trkpt>
      <trkpt lat="45.50508" lon="5.78638">
        <ele>721</ele>
        <time>2021-08-23T15:42:08Z</time>
      </trkpt>
      <trkpt lat="45.50499" lon="5.78623">
        <ele>719.2</ele>
        <time>2021-08-23T15:42:10Z</time>
      </trkpt>
      <trkpt lat="45.50495" lon="5.78616">
        <ele>718.2</ele>
        <time>2021-08-23T15:42:11Z</time>
      </trkpt>
      <trkpt lat="45.50486" lon="5.78606">
        <ele>716.4</ele>
        <time>2021-08-23T15:42:13Z</time>
      </trkpt>
      <trkpt lat="45.50481" lon="5.78603">
        <ele>715.6</ele>
        <time>2021-08-23T15:42:14Z</time>
      </trkpt>
      <trkpt lat="45.50477" lon="5.78601">
        <ele>715</ele>
        <time>2021-08-23T15:42:15Z</time>
      </trkpt>
      <trkpt lat="45.50473" lon="5.78592">
        <ele>714</ele>
        <time>2021-08-23T15:42:17Z</time>
      </trkpt>
      <trkpt lat="45.50472" lon="5.78584">
        <ele>713.4</ele>
        <time>2021-08-23T15:42:18Z</time>
      </trkpt>
      <trkpt lat="45.50471" lon="5.78577">
        <ele>712.9</ele>
        <time>2021-08-23T15:42:20Z</time>
      </trkpt>
      <trkpt lat="45.5047" lon="5.7857">
        <ele>712.5</ele>
        <time>2021-08-23T15:42:22Z</time>
      </trkpt>
      <trkpt lat="45.50469" lon="5.78562">
        <ele>712.1</ele>
        <time>2021-08-23T15:42:23Z</time>
      </trkpt>
      <trkpt lat="45.50469" lon="5.78555">
        <ele>711.7</ele>
        <time>2021-08-23T15:42:25Z</time>
      </trkpt>
      <trkpt lat="45.50468" lon="5.78547">
        <ele>711.3</ele>
        <time>2021-08-23T15:42:27Z</time>
      </trkpt>
      <trkpt lat="45.50467" lon="5.7854">
        <ele>710.9</ele>
        <time>2021-08-23T15:43:11Z</time>
      </trkpt>
      <trkpt lat="45.50466" lon="5.78533">
        <ele>710.5</ele>
        <time>2021-08-23T15:43:12Z</time>
      </trkpt>
      <trkpt lat="45.50466" lon="5.7851">
        <ele>709.1</ele>
        <time>2021-08-23T15:43:14Z</time>
      </trkpt>
      <trkpt lat="45.50465" lon="5.7849">
        <ele>708</ele>
        <time>2021-08-23T15:43:16Z</time>
      </trkpt>
      <trkpt lat="45.50462" lon="5.78474">
        <ele>707</ele>
        <time>2021-08-23T15:43:18Z</time>
      </trkpt>
      <trkpt lat="45.50458" lon="5.78459">
        <ele>705.9</ele>
        <time>2021-08-23T15:43:20Z</time>
      </trkpt>
      <trkpt lat="45.50457" lon="5.78454">
        <ele>705.5</ele>
        <time>2021-08-23T15:43:22Z</time>
      </trkpt>
      <trkpt lat="45.50455" lon="5.7845">
        <ele>705.8</ele>
        <time>2021-08-23T15:43:23Z</time>
      </trkpt>
      <trkpt lat="45.50453" lon="5.78446">
        <ele>706.2</ele>
        <time>2021-08-23T15:43:24Z</time>
      </trkpt>
      <trkpt lat="45.5045" lon="5.78445">
        <ele>706.5</ele>
        <time>2021-08-23T15:43:26Z</time>
      </trkpt>
      <trkpt lat="45.50448" lon="5.78445">
        <ele>706.6</ele>
        <time>2021-08-23T15:43:27Z</time>
      </trkpt>
      <trkpt lat="45.50446" lon="5.78444">
        <ele>706.8</ele>
        <time>2021-08-23T15:43:28Z</time>
      </trkpt>
      <trkpt lat="45.50446" lon="5.78443">
        <ele>706.8</ele>
        <time>2021-08-23T15:43:29Z</time>
      </trkpt>
      <trkpt lat="45.50446" lon="5.78443">
        <ele>706.9</ele>
        <time>2021-08-23T15:43:31Z</time>
      </trkpt>
      <trkpt lat="45.50444" lon="5.78446">
        <ele>707</ele>
        <time>2021-08-23T15:43:33Z</time>
      </trkpt>
      <trkpt lat="45.50444" lon="5.78447">
        <ele>707.1</ele>
        <time>2021-08-23T15:43:34Z</time>
      </trkpt>
      <trkpt lat="45.50444" lon="5.7845">
        <ele>707.2</ele>
        <time>2021-08-23T15:43:36Z</time>
      </trkpt>
      <trkpt lat="45.50444" lon="5.7845">
        <ele>707.3</ele>
        <time>2021-08-23T15:43:37Z</time>
      </trkpt>
      <trkpt lat="45.50444" lon="5.7845">
        <ele>707.3</ele>
        <time>2021-08-23T15:43:39Z</time>
      </trkpt>
      <trkpt lat="45.50462" lon="5.7846">
        <ele>708.5</ele>
        <time>2021-08-23T15:44:19Z</time>
      </trkpt>
      <trkpt lat="45.50463" lon="5.78463">
        <ele>708.6</ele>
        <time>2021-08-23T15:44:20Z</time>
      </trkpt>
      <trkpt lat="45.50466" lon="5.78477">
        <ele>709.3</ele>
        <time>2021-08-23T15:44:22Z</time>
      </trkpt>
      <trkpt lat="45.50466" lon="5.78484">
        <ele>709.7</ele>
        <time>2021-08-23T15:44:23Z</time>
      </trkpt>
      <trkpt lat="45.50466" lon="5.78498">
        <ele>710.4</ele>
        <time>2021-08-23T15:44:25Z</time>
      </trkpt>
      <trkpt lat="45.50466" lon="5.78499">
        <ele>710.5</ele>
        <time>2021-08-23T15:44:26Z</time>
      </trkpt>
      <trkpt lat="45.50466" lon="5.785">
        <ele>710.5</ele>
        <time>2021-08-23T15:44:27Z</time>
      </trkpt>
      <trkpt lat="45.50466" lon="5.78501">
        <ele>710.6</ele>
        <time>2021-08-23T15:44:28Z</time>
      </trkpt>
      <trkpt lat="45.50465" lon="5.78502">
        <ele>710.6</ele>
        <time>2021-08-23T15:44:30Z</time>
      </trkpt>
      <trkpt lat="45.50465" lon="5.78503">
        <ele>710.7</ele>
        <time>2021-08-23T15:44:31Z</time>
      </trkpt>
      <trkpt lat="45.50464" lon="5.78504">
        <ele>710.7</ele>
        <time>2021-08-23T15:44:32Z</time>
      </trkpt>
      <trkpt lat="45.50473" lon="5.78561">
        <ele>713.4</ele>
        <time>2021-08-23T15:44:59Z</time>
      </trkpt>
      <trkpt lat="45.50474" lon="5.78566">
        <ele>713.7</ele>
        <time>2021-08-23T15:45:00Z</time>
      </trkpt>
      <trkpt lat="45.50473" lon="5.78569">
        <ele>713.9</ele>
        <time>2021-08-23T15:45:01Z</time>
      </trkpt>
      <trkpt lat="45.50473" lon="5.7857">
        <ele>714</ele>
        <time>2021-08-23T15:45:02Z</time>
      </trkpt>
      <trkpt lat="45.50473" lon="5.7858">
        <ele>714.8</ele>
        <time>2021-08-23T15:45:04Z</time>
      </trkpt>
      <trkpt lat="45.50473" lon="5.78584">
        <ele>715.1</ele>
        <time>2021-08-23T15:45:05Z</time>
      </trkpt>
      <trkpt lat="45.50474" lon="5.78586">
        <ele>715.3</ele>
        <time>2021-08-23T15:45:06Z</time>
      </trkpt>
      <trkpt lat="45.50474" lon="5.78587">
        <ele>715.4</ele>
        <time>2021-08-23T15:45:08Z</time>
      </trkpt>
      <trkpt lat="45.50474" lon="5.78587">
        <ele>715.4</ele>
        <time>2021-08-23T15:45:09Z</time>
      </trkpt>
      <trkpt lat="45.50474" lon="5.78587">
        <ele>715.4</ele>
        <time>2021-08-23T15:45:10Z</time>
      </trkpt>
      <trkpt lat="45.50482" lon="5.78628">
        <ele>719.2</ele>
        <time>2021-08-23T15:45:25Z</time>
      </trkpt>
      <trkpt lat="45.50484" lon="5.78633">
        <ele>719.7</ele>
        <time>2021-08-23T15:45:26Z</time>
      </trkpt>
      <trkpt lat="45.50484" lon="5.78635">
        <ele>719.8</ele>
        <time>2021-08-23T15:45:27Z</time>
      </trkpt>
      <trkpt lat="45.50487" lon="5.78641">
        <ele>720.4</ele>
        <time>2021-08-23T15:45:29Z</time>
      </trkpt>
      <trkpt lat="45.50488" lon="5.78642">
        <ele>720.5</ele>
        <time>2021-08-23T15:45:30Z</time>
      </trkpt>
      <trkpt lat="45.50489" lon="5.78644">
        <ele>720.7</ele>
        <time>2021-08-23T15:45:31Z</time>
      </trkpt>
      <trkpt lat="45.50489" lon="5.78645">
        <ele>720.8</ele>
        <time>2021-08-23T15:45:33Z</time>
      </trkpt>
      <trkpt lat="45.5049" lon="5.78646">
        <ele>720.9</ele>
        <time>2021-08-23T15:45:34Z</time>
      </trkpt>
      <trkpt lat="45.50491" lon="5.78648">
        <ele>721.1</ele>
        <time>2021-08-23T15:45:35Z</time>
      </trkpt>
      <trkpt lat="45.50493" lon="5.78652">
        <ele>721.4</ele>
        <time>2021-08-23T15:45:36Z</time>
      </trkpt>
      <trkpt lat="45.50493" lon="5.78654">
        <ele>721.5</ele>
        <time>2021-08-23T15:45:37Z</time>
      </trkpt>
      <trkpt lat="45.50494" lon="5.78655">
        <ele>721.6</ele>
        <time>2021-08-23T15:45:38Z</time>
      </trkpt>
      <trkpt lat="45.50495" lon="5.78658">
        <ele>721.8</ele>
        <time>2021-08-23T15:45:40Z</time>
      </trkpt>
      <trkpt lat="45.50497" lon="5.78661">
        <ele>722.1</ele>
        <time>2021-08-23T15:45:41Z</time>
      </trkpt>
      <trkpt lat="45.50497" lon="5.7866">
        <ele>722.2</ele>
        <time>2021-08-23T15:45:43Z</time>
      </trkpt>
      <trkpt lat="45.50497" lon="5.7866">
        <ele>722.2</ele>
        <time>2021-08-23T15:45:44Z</time>
      </trkpt>
      <trkpt lat="45.50497" lon="5.7866">
        <ele>722.2</ele>
        <time>2021-08-23T15:45:45Z</time>
      </trkpt>
      <trkpt lat="45.50497" lon="5.7866">
        <ele>722.2</ele>
        <time>2021-08-23T15:45:47Z</time>
      </trkpt>
      <trkpt lat="45.50497" lon="5.7866">
        <ele>722.2</ele>
        <time>2021-08-23T15:45:49Z</time>
      </trkpt>
      <trkpt lat="45.50497" lon="5.78661">
        <ele>722.3</ele>
        <time>2021-08-23T15:45:51Z</time>
      </trkpt>
      <trkpt lat="45.50497" lon="5.78661">
        <ele>722.3</ele>
        <time>2021-08-23T15:45:53Z</time>
      </trkpt>
      <trkpt lat="45.50497" lon="5.78661">
        <ele>722.3</ele>
        <time>2021-08-23T15:45:55Z</time>
      </trkpt>
      <trkpt lat="45.50444" lon="5.78571">
        <ele>712.4</ele>
        <time>2021-08-23T15:46:39Z</time>
      </trkpt>
      <trkpt lat="45.50441" lon="5.78563">
        <ele>711.9</ele>
        <time>2021-08-23T15:46:40Z</time>
      </trkpt>
      <trkpt lat="45.50437" lon="5.78552">
        <ele>711.3</ele>
        <time>2021-08-23T15:46:42Z</time>
      </trkpt>
      <trkpt lat="45.50435" lon="5.78535">
        <ele>710.3</ele>
        <time>2021-08-23T15:46:43Z</time>
      </trkpt>
      <trkpt lat="45.50444" lon="5.78526">
        <ele>709.4</ele>
        <time>2021-08-23T15:46:45Z</time>
      </trkpt>
      <trkpt lat="45.5045" lon="5.78513">
        <ele>708.5</ele>
        <time>2021-08-23T15:46:47Z</time>
      </trkpt>
      <trkpt lat="45.50451" lon="5.78513">
        <ele>708.4</ele>
        <time>2021-08-23T15:46:48Z</time>
      </trkpt>
      <trkpt lat="45.50451" lon="5.78508">
        <ele>708.2</ele>
        <time>2021-08-23T15:46:50Z</time>
      </trkpt>
      <trkpt lat="45.50451" lon="5.7849">
        <ele>707.3</ele>
        <time>2021-08-23T15:46:51Z</time>
      </trkpt>
      <trkpt lat="45.50449" lon="5.78472">
        <ele>706</ele>
        <time>2021-08-23T15:46:53Z</time>
      </trkpt>
      <trkpt lat="45.50448" lon="5.78463">
        <ele>705.2</ele>
        <time>2021-08-23T15:46:54Z</time>
      </trkpt>
      <trkpt lat="45.50447" lon="5.78453">
        <ele>704.3</ele>
        <time>2021-08-23T15:46:55Z</time>
      </trkpt>
      <trkpt lat="45.50443" lon="5.78432">
        <ele>702.1</ele>
        <time>2021-08-23T15:46:57Z</time>
      </trkpt>
      <trkpt lat="45.5044" lon="5.78416">
        <ele>700.3</ele>
        <time>2021-08-23T15:46:59Z</time>
      </trkpt>
      <trkpt lat="45.50436" lon="5.78398">
        <ele>698.1</ele>
        <time>2021-08-23T15:47:01Z</time>
      </trkpt>
      <trkpt lat="45.50434" lon="5.7839">
        <ele>697.4</ele>
        <time>2021-08-23T15:47:02Z</time>
      </trkpt>
      <trkpt lat="45.50433" lon="5.7839">
        <ele>697.6</ele>
        <time>2021-08-23T15:47:04Z</time>
      </trkpt>
      <trkpt lat="45.50427" lon="5.78391">
        <ele>698.4</ele>
        <time>2021-08-23T15:47:06Z</time>
      </trkpt>
      <trkpt lat="45.50423" lon="5.78389">
        <ele>698.9</ele>
        <time>2021-08-23T15:47:08Z</time>
      </trkpt>
      <trkpt lat="45.50423" lon="5.78389">
        <ele>698.9</ele>
        <time>2021-08-23T15:47:09Z</time>
      </trkpt>
      <trkpt lat="45.50422" lon="5.78389">
        <ele>699</ele>
        <time>2021-08-23T15:47:10Z</time>
      </trkpt>
      <trkpt lat="45.50421" lon="5.78388">
        <ele>699.1</ele>
        <time>2021-08-23T15:47:11Z</time>
      </trkpt>
      <trkpt lat="45.5042" lon="5.78388">
        <ele>699.2</ele>
        <time>2021-08-23T15:47:12Z</time>
      </trkpt>
      <trkpt lat="45.50421" lon="5.78468">
        <ele>705.7</ele>
        <time>2021-08-23T15:48:00Z</time>
      </trkpt>
      <trkpt lat="45.50421" lon="5.78474">
        <ele>706.1</ele>
        <time>2021-08-23T15:48:02Z</time>
      </trkpt>
      <trkpt lat="45.50423" lon="5.78485">
        <ele>706.8</ele>
        <time>2021-08-23T15:48:03Z</time>
      </trkpt>
      <trkpt lat="45.50428" lon="5.78505">
        <ele>707.7</ele>
        <time>2021-08-23T15:48:05Z</time>
      </trkpt>
      <trkpt lat="45.5043" lon="5.78516">
        <ele>708.2</ele>
        <time>2021-08-23T15:48:07Z</time>
      </trkpt>
      <trkpt lat="45.5043" lon="5.78525">
        <ele>708.5</ele>
        <time>2021-08-23T15:48:08Z</time>
      </trkpt>
      <trkpt lat="45.5043" lon="5.78538">
        <ele>709.1</ele>
        <time>2021-08-23T15:48:10Z</time>
      </trkpt>
      <trkpt lat="45.50429" lon="5.78545">
        <ele>709.5</ele>
        <time>2021-08-23T15:48:12Z</time>
      </trkpt>
      <trkpt lat="45.50429" lon="5.78548">
        <ele>709.6</ele>
        <time>2021-08-23T15:48:13Z</time>
      </trkpt>
      <trkpt lat="45.50428" lon="5.78551">
        <ele>709.8</ele>
        <time>2021-08-23T15:48:15Z</time>
      </trkpt>
      <trkpt lat="45.50427" lon="5.78552">
        <ele>709.8</ele>
        <time>2021-08-23T15:48:16Z</time>
      </trkpt>
      <trkpt lat="45.50426" lon="5.78554">
        <ele>709.9</ele>
        <time>2021-08-23T15:48:18Z</time>
      </trkpt>
      <trkpt lat="45.50426" lon="5.78555">
        <ele>710</ele>
        <time>2021-08-23T15:48:20Z</time>
      </trkpt>
      <trkpt lat="45.50425" lon="5.78556">
        <ele>710.1</ele>
        <time>2021-08-23T15:48:21Z</time>
      </trkpt>
      <trkpt lat="45.50423" lon="5.78552">
        <ele>710.3</ele>
        <time>2021-08-23T15:48:23Z</time>
      </trkpt>
      <trkpt lat="45.50422" lon="5.78548">
        <ele>710.6</ele>
        <time>2021-08-23T15:48:24Z</time>
      </trkpt>
      <trkpt lat="45.5042" lon="5.78541">
        <ele>710.1</ele>
        <time>2021-08-23T15:48:26Z</time>
      </trkpt>
      <trkpt lat="45.5042" lon="5.7854">
        <ele>710</ele>
        <time>2021-08-23T15:48:27Z</time>
      </trkpt>
      <trkpt lat="45.50421" lon="5.78533">
        <ele>709.6</ele>
        <time>2021-08-23T15:48:29Z</time>
      </trkpt>
      <trkpt lat="45.50421" lon="5.78527">
        <ele>709.2</ele>
        <time>2021-08-23T15:48:30Z</time>
      </trkpt>
      <trkpt lat="45.5042" lon="5.78522">
        <ele>708.9</ele>
        <time>2021-08-23T15:48:33Z</time>
      </trkpt>
      <trkpt lat="45.5042" lon="5.78518">
        <ele>708.6</ele>
        <time>2021-08-23T15:48:34Z</time>
      </trkpt>
      <trkpt lat="45.50424" lon="5.78506">
        <ele>707.8</ele>
        <time>2021-08-23T15:48:36Z</time>
      </trkpt>
      <trkpt lat="45.50428" lon="5.78497">
        <ele>707.2</ele>
        <time>2021-08-23T15:48:37Z</time>
      </trkpt>
      <trkpt lat="45.50432" lon="5.7849">
        <ele>706.6</ele>
        <time>2021-08-23T15:48:39Z</time>
      </trkpt>
      <trkpt lat="45.50432" lon="5.78488">
        <ele>706.4</ele>
        <time>2021-08-23T15:48:40Z</time>
      </trkpt>
      <trkpt lat="45.50432" lon="5.78487">
        <ele>706.4</ele>
        <time>2021-08-23T15:48:41Z</time>
      </trkpt>
      <trkpt lat="45.50432" lon="5.78487">
        <ele>706.3</ele>
        <time>2021-08-23T15:48:43Z</time>
      </trkpt>
      <trkpt lat="45.50432" lon="5.78486">
        <ele>706.3</ele>
        <time>2021-08-23T15:48:44Z</time>
      </trkpt>
      <trkpt lat="45.50431" lon="5.78486">
        <ele>706.2</ele>
        <time>2021-08-23T15:48:46Z</time>
      </trkpt>
      <trkpt lat="45.50431" lon="5.78485">
        <ele>706.1</ele>
        <time>2021-08-23T15:48:48Z</time>
      </trkpt>
      <trkpt lat="45.50431" lon="5.78485">
        <ele>706.1</ele>
        <time>2021-08-23T15:48:49Z</time>
      </trkpt>
      <trkpt lat="45.5043" lon="5.78484">
        <ele>706</ele>
        <time>2021-08-23T15:48:50Z</time>
      </trkpt>
      <trkpt lat="45.50426" lon="5.78481">
        <ele>705.4</ele>
        <time>2021-08-23T15:48:52Z</time>
      </trkpt>
      <trkpt lat="45.50425" lon="5.7848">
        <ele>705.2</ele>
        <time>2021-08-23T15:48:53Z</time>
      </trkpt>
      <trkpt lat="45.50424" lon="5.78479">
        <ele>705.2</ele>
        <time>2021-08-23T15:48:55Z</time>
      </trkpt>
      <trkpt lat="45.50424" lon="5.78479">
        <ele>705.2</ele>
        <time>2021-08-23T15:48:56Z</time>
      </trkpt>
      <trkpt lat="45.50424" lon="5.78479">
        <ele>705.2</ele>
        <time>2021-08-23T15:48:58Z</time>
      </trkpt>
      <trkpt lat="45.50424" lon="5.78479">
        <ele>705.2</ele>
        <time>2021-08-23T15:48:59Z</time>
      </trkpt>
      <trkpt lat="45.50424" lon="5.78479">
        <ele>705.2</ele>
        <time>2021-08-23T15:49:01Z</time>
      </trkpt>
      <trkpt lat="45.50424" lon="5.78479">
        <ele>705.2</ele>
        <time>2021-08-23T15:49:02Z</time>
      </trkpt>
      <trkpt lat="45.50423" lon="5.78475">
        <ele>705.4</ele>
        <time>2021-08-23T15:49:04Z</time>
      </trkpt>
      <trkpt lat="45.50422" lon="5.78474">
        <ele>705.5</ele>
        <time>2021-08-23T15:49:06Z</time>
      </trkpt>
      <trkpt lat="45.50422" lon="5.78472">
        <ele>705.6</ele>
        <time>2021-08-23T15:49:07Z</time>
      </trkpt>
      <trkpt lat="45.50421" lon="5.78471">
        <ele>705.7</ele>
        <time>2021-08-23T15:49:09Z</time>
      </trkpt>
      <trkpt lat="45.50421" lon="5.7847">
        <ele>705.7</ele>
        <time>2021-08-23T15:49:10Z</time>
      </trkpt>
      <trkpt lat="45.5042" lon="5.78469">
        <ele>705.8</ele>
        <time>2021-08-23T15:49:11Z</time>
      </trkpt>
      <trkpt lat="45.5042" lon="5.78468">
        <ele>705.8</ele>
        <time>2021-08-23T15:49:12Z</time>
      </trkpt>
      <trkpt lat="45.5042" lon="5.78467">
        <ele>705.9</ele>
        <time>2021-08-23T15:49:14Z</time>
      </trkpt>
      <trkpt lat="45.5042" lon="5.78466">
        <ele>705.9</ele>
        <time>2021-08-23T15:49:15Z</time>
      </trkpt>
      <trkpt lat="45.50419" lon="5.78465">
        <ele>706</ele>
        <time>2021-08-23T15:49:16Z</time>
      </trkpt>
      <trkpt lat="45.50419" lon="5.78465">
        <ele>706</ele>
        <time>2021-08-23T15:49:18Z</time>
      </trkpt>
      <trkpt lat="45.50419" lon="5.78464">
        <ele>706</ele>
        <time>2021-08-23T15:49:19Z</time>
      </trkpt>
      <trkpt lat="45.50419" lon="5.78464">
        <ele>706</ele>
        <time>2021-08-23T15:49:20Z</time>
      </trkpt>
      <trkpt lat="45.50419" lon="5.78464">
        <ele>706</ele>
        <time>2021-08-23T15:49:21Z</time>
      </trkpt>
      <trkpt lat="45.50419" lon="5.78464">
        <ele>706</ele>
        <time>2021-08-23T15:49:22Z</time>
      </trkpt>
      <trkpt lat="45.5042" lon="5.78464">
        <ele>706.1</ele>
        <time>2021-08-23T15:49:23Z</time>
      </trkpt>
      <trkpt lat="45.5042" lon="5.78466">
        <ele>706.2</ele>
        <time>2021-08-23T15:49:24Z</time>
      </trkpt>
      <trkpt lat="45.5042" lon="5.78468">
        <ele>706.3</ele>
        <time>2021-08-23T15:49:26Z</time>
      </trkpt>
      <trkpt lat="45.5042" lon="5.78471">
        <ele>706.4</ele>
        <time>2021-08-23T15:49:27Z</time>
      </trkpt>
      <trkpt lat="45.5042" lon="5.78472">
        <ele>706.4</ele>
        <time>2021-08-23T15:49:28Z</time>
      </trkpt>
      <trkpt lat="45.5042" lon="5.78474">
        <ele>706.5</ele>
        <time>2021-08-23T15:49:30Z</time>
      </trkpt>
      <trkpt lat="45.50421" lon="5.78475">
        <ele>706.6</ele>
        <time>2021-08-23T15:49:31Z</time>
      </trkpt>
      <trkpt lat="45.50422" lon="5.78478">
        <ele>706.7</ele>
        <time>2021-08-23T15:49:32Z</time>
      </trkpt>
      <trkpt lat="45.50422" lon="5.7848">
        <ele>706.8</ele>
        <time>2021-08-23T15:49:34Z</time>
      </trkpt>
      <trkpt lat="45.50423" lon="5.78481">
        <ele>706.9</ele>
        <time>2021-08-23T15:49:35Z</time>
      </trkpt>
      <trkpt lat="45.50426" lon="5.78485">
        <ele>707.1</ele>
        <time>2021-08-23T15:49:37Z</time>
      </trkpt>
      <trkpt lat="45.50428" lon="5.78486">
        <ele>707.2</ele>
        <time>2021-08-23T15:49:38Z</time>
      </trkpt>
      <trkpt lat="45.50431" lon="5.78487">
        <ele>707.3</ele>
        <time>2021-08-23T15:49:40Z</time>
      </trkpt>
      <trkpt lat="45.50432" lon="5.78487">
        <ele>707.4</ele>
        <time>2021-08-23T15:49:41Z</time>
      </trkpt>
      <trkpt lat="45.50433" lon="5.78486">
        <ele>707.4</ele>
        <time>2021-08-23T15:49:42Z</time>
      </trkpt>
      <trkpt lat="45.50433" lon="5.78486">
        <ele>707.4</ele>
        <time>2021-08-23T15:49:43Z</time>
      </trkpt>
      <trkpt lat="45.50434" lon="5.78485">
        <ele>707.5</ele>
        <time>2021-08-23T15:49:45Z</time>
      </trkpt>
      <trkpt lat="45.50434" lon="5.78484">
        <ele>707.5</ele>
        <time>2021-08-23T15:49:46Z</time>
      </trkpt>
      <trkpt lat="45.50434" lon="5.78484">
        <ele>707.5</ele>
        <time>2021-08-23T15:49:48Z</time>
      </trkpt>
      <trkpt lat="45.50435" lon="5.78484">
        <ele>707.5</ele>
        <time>2021-08-23T15:49:49Z</time>
      </trkpt>
      <trkpt lat="45.50435" lon="5.78484">
        <ele>707.5</ele>
        <time>2021-08-23T15:49:50Z</time>
      </trkpt>
      <trkpt lat="45.50435" lon="5.78485">
        <ele>707.6</ele>
        <time>2021-08-23T15:49:51Z</time>
      </trkpt>
      <trkpt lat="45.50436" lon="5.78485">
        <ele>707.6</ele>
        <time>2021-08-23T15:49:53Z</time>
      </trkpt>
      <trkpt lat="45.50437" lon="5.78485">
        <ele>707.6</ele>
        <time>2021-08-23T15:49:54Z</time>
      </trkpt>
      <trkpt lat="45.50437" lon="5.78486">
        <ele>707.6</ele>
        <time>2021-08-23T15:49:56Z</time>
      </trkpt>
      <trkpt lat="45.50438" lon="5.78486">
        <ele>707.7</ele>
        <time>2021-08-23T15:49:57Z</time>
      </trkpt>
      <trkpt lat="45.50438" lon="5.78486">
        <ele>707.7</ele>
        <time>2021-08-23T15:49:58Z</time>
      </trkpt>
      <trkpt lat="45.50438" lon="5.78484">
        <ele>707.7</ele>
        <time>2021-08-23T15:50:00Z</time>
      </trkpt>
      <trkpt lat="45.50438" lon="5.7848">
        <ele>707.8</ele>
        <time>2021-08-23T15:50:02Z</time>
      </trkpt>
      <trkpt lat="45.50438" lon="5.78478">
        <ele>707.9</ele>
        <time>2021-08-23T15:50:04Z</time>
      </trkpt>
      <trkpt lat="45.50439" lon="5.78475">
        <ele>708</ele>
        <time>2021-08-23T15:50:06Z</time>
      </trkpt>
      <trkpt lat="45.50439" lon="5.78474">
        <ele>708</ele>
        <time>2021-08-23T15:50:07Z</time>
      </trkpt>
      <trkpt lat="45.50438" lon="5.78472">
        <ele>708.1</ele>
        <time>2021-08-23T15:50:09Z</time>
      </trkpt>
      <trkpt lat="45.50438" lon="5.78471">
        <ele>708.1</ele>
        <time>2021-08-23T15:50:10Z</time>
      </trkpt>
      <trkpt lat="45.50438" lon="5.7847">
        <ele>708.1</ele>
        <time>2021-08-23T15:50:12Z</time>
      </trkpt>
      <trkpt lat="45.50439" lon="5.78469">
        <ele>708.2</ele>
        <time>2021-08-23T15:50:14Z</time>
      </trkpt>
      <trkpt lat="45.50439" lon="5.78468">
        <ele>708.2</ele>
        <time>2021-08-23T15:50:15Z</time>
      </trkpt>
      <trkpt lat="45.50439" lon="5.78466">
        <ele>708.3</ele>
        <time>2021-08-23T15:50:16Z</time>
      </trkpt>
      <trkpt lat="45.50439" lon="5.78464">
        <ele>708.3</ele>
        <time>2021-08-23T15:50:18Z</time>
      </trkpt>
      <trkpt lat="45.5044" lon="5.78463">
        <ele>708.4</ele>
        <time>2021-08-23T15:50:19Z</time>
      </trkpt>
      <trkpt lat="45.5044" lon="5.78461">
        <ele>708.4</ele>
        <time>2021-08-23T15:50:21Z</time>
      </trkpt>
      <trkpt lat="45.5044" lon="5.78461">
        <ele>708.4</ele>
        <time>2021-08-23T15:50:23Z</time>
      </trkpt>
      <trkpt lat="45.50441" lon="5.7846">
        <ele>708.5</ele>
        <time>2021-08-23T15:50:24Z</time>
      </trkpt>
      <trkpt lat="45.50441" lon="5.78459">
        <ele>708.5</ele>
        <time>2021-08-23T15:50:25Z</time>
      </trkpt>
      <trkpt lat="45.50442" lon="5.78458">
        <ele>708.5</ele>
        <time>2021-08-23T15:50:26Z</time>
      </trkpt>
      <trkpt lat="45.50442" lon="5.78457">
        <ele>708.6</ele>
        <time>2021-08-23T15:50:28Z</time>
      </trkpt>
      <trkpt lat="45.50442" lon="5.78456">
        <ele>708.6</ele>
        <time>2021-08-23T15:50:29Z</time>
      </trkpt>
      <trkpt lat="45.50443" lon="5.78455">
        <ele>708.7</ele>
        <time>2021-08-23T15:50:30Z</time>
      </trkpt>
      <trkpt lat="45.50443" lon="5.78455">
        <ele>708.7</ele>
        <time>2021-08-23T15:50:31Z</time>
      </trkpt>
      <trkpt lat="45.50444" lon="5.78453">
        <ele>708.7</ele>
        <time>2021-08-23T15:50:33Z</time>
      </trkpt>
      <trkpt lat="45.50444" lon="5.78452">
        <ele>708.8</ele>
        <time>2021-08-23T15:50:35Z</time>
      </trkpt>
      <trkpt lat="45.50444" lon="5.78451">
        <ele>708.8</ele>
        <time>2021-08-23T15:50:38Z</time>
      </trkpt>
      <trkpt lat="45.50445" lon="5.78451">
        <ele>708.8</ele>
        <time>2021-08-23T15:50:41Z</time>
      </trkpt>
      <trkpt lat="45.50445" lon="5.7845">
        <ele>708.9</ele>
        <time>2021-08-23T15:50:42Z</time>
      </trkpt>
      <trkpt lat="45.50445" lon="5.7845">
        <ele>708.9</ele>
        <time>2021-08-23T15:50:44Z</time>
      </trkpt>
      <trkpt lat="45.50445" lon="5.7845">
        <ele>708.9</ele>
        <time>2021-08-23T15:50:45Z</time>
      </trkpt>
      <trkpt lat="45.50446" lon="5.7845">
        <ele>708.9</ele>
        <time>2021-08-23T15:50:46Z</time>
      </trkpt>
      <trkpt lat="45.50445" lon="5.7845">
        <ele>708.9</ele>
        <time>2021-08-23T15:50:53Z</time>
      </trkpt>
      <trkpt lat="45.50443" lon="5.78453">
        <ele>709</ele>
        <time>2021-08-23T15:50:59Z</time>
      </trkpt>
      <trkpt lat="45.50437" lon="5.78461">
        <ele>709.5</ele>
        <time>2021-08-23T15:51:06Z</time>
      </trkpt>
      <trkpt lat="45.50433" lon="5.78615">
        <ele>715.1</ele>
        <time>2021-08-23T15:51:41Z</time>
      </trkpt>
      <trkpt lat="45.50432" lon="5.78616">
        <ele>715.1</ele>
        <time>2021-08-23T15:51:42Z</time>
      </trkpt>
      <trkpt lat="45.50431" lon="5.78617">
        <ele>715.1</ele>
        <time>2021-08-23T15:51:43Z</time>
      </trkpt>
      <trkpt lat="45.50431" lon="5.78618">
        <ele>715.1</ele>
        <time>2021-08-23T15:51:44Z</time>
      </trkpt>
      <trkpt lat="45.5043" lon="5.78619">
        <ele>715.7</ele>
        <time>2021-08-23T15:51:45Z</time>
      </trkpt>
      <trkpt lat="45.50428" lon="5.78621">
        <ele>715.8</ele>
        <time>2021-08-23T15:51:47Z</time>
      </trkpt>
      <trkpt lat="45.50428" lon="5.78621">
        <ele>715.8</ele>
        <time>2021-08-23T15:51:48Z</time>
      </trkpt>
      <trkpt lat="45.50424" lon="5.78622">
        <ele>716.5</ele>
        <time>2021-08-23T15:51:49Z</time>
      </trkpt>
      <trkpt lat="45.50416" lon="5.7862">
        <ele>718.9</ele>
        <time>2021-08-23T15:51:51Z</time>
      </trkpt>
      <trkpt lat="45.50413" lon="5.78619">
        <ele>719.7</ele>
        <time>2021-08-23T15:51:52Z</time>
      </trkpt>
      <trkpt lat="45.50409" lon="5.78619">
        <ele>721.2</ele>
        <time>2021-08-23T15:51:54Z</time>
      </trkpt>
      <trkpt lat="45.50405" lon="5.78617">
        <ele>721.9</ele>
        <time>2021-08-23T15:51:55Z</time>
      </trkpt>
      <trkpt lat="45.50395" lon="5.78609">
        <ele>724.3</ele>
        <time>2021-08-23T15:51:57Z</time>
      </trkpt>
      <trkpt lat="45.50389" lon="5.78605">
        <ele>726</ele>
        <time>2021-08-23T15:51:59Z</time>
      </trkpt>
      <trkpt lat="45.50389" lon="5.78605">
        <ele>726</ele>
        <time>2021-08-23T15:52:00Z</time>
      </trkpt>
      <trkpt lat="45.50389" lon="5.78605">
        <ele>726</ele>
        <time>2021-08-23T15:52:02Z</time>
      </trkpt>
      <trkpt lat="45.50389" lon="5.78605">
        <ele>726</ele>
        <time>2021-08-23T15:52:03Z</time>
      </trkpt>
      <trkpt lat="45.50389" lon="5.78605">
        <ele>726</ele>
        <time>2021-08-23T15:52:05Z</time>
      </trkpt>
      <trkpt lat="45.50389" lon="5.78605">
        <ele>726</ele>
        <time>2021-08-23T15:52:07Z</time>
      </trkpt>
      <trkpt lat="45.5039" lon="5.78606">
        <ele>725.9</ele>
        <time>2021-08-23T15:52:09Z</time>
      </trkpt>
      <trkpt lat="45.50391" lon="5.78608">
        <ele>725</ele>
        <time>2021-08-23T15:52:12Z</time>
      </trkpt>
      <trkpt lat="45.50392" lon="5.78608">
        <ele>725</ele>
        <time>2021-08-23T15:52:13Z</time>
      </trkpt>
      <trkpt lat="45.50392" lon="5.78609">
        <ele>725</ele>
        <time>2021-08-23T15:52:14Z</time>
      </trkpt>
      <trkpt lat="45.50392" lon="5.78609">
        <ele>725</ele>
        <time>2021-08-23T15:52:15Z</time>
      </trkpt>
      <trkpt lat="45.50393" lon="5.7861">
        <ele>725</ele>
        <time>2021-08-23T15:52:17Z</time>
      </trkpt>
      <trkpt lat="45.50393" lon="5.7861">
        <ele>725</ele>
        <time>2021-08-23T15:52:18Z</time>
      </trkpt>
      <trkpt lat="45.50393" lon="5.78611">
        <ele>724.9</ele>
        <time>2021-08-23T15:52:19Z</time>
      </trkpt>
      <trkpt lat="45.50393" lon="5.78611">
        <ele>724.9</ele>
        <time>2021-08-23T15:52:21Z</time>
      </trkpt>
      <trkpt lat="45.50393" lon="5.78611">
        <ele>724.9</ele>
        <time>2021-08-23T15:52:22Z</time>
      </trkpt>
      <trkpt lat="45.50393" lon="5.78612">
        <ele>724.9</ele>
        <time>2021-08-23T15:52:24Z</time>
      </trkpt>
      <trkpt lat="45.50393" lon="5.78612">
        <ele>724.9</ele>
        <time>2021-08-23T15:52:25Z</time>
      </trkpt>
      <trkpt lat="45.50392" lon="5.78613">
        <ele>724.9</ele>
        <time>2021-08-23T15:52:26Z</time>
      </trkpt>
      <trkpt lat="45.50391" lon="5.78614">
        <ele>725.7</ele>
        <time>2021-08-23T15:52:28Z</time>
      </trkpt>
      <trkpt lat="45.50391" lon="5.78614">
        <ele>725.7</ele>
        <time>2021-08-23T15:52:30Z</time>
      </trkpt>
      <trkpt lat="45.5039" lon="5.78614">
        <ele>725.7</ele>
        <time>2021-08-23T15:52:31Z</time>
      </trkpt>
      <trkpt lat="45.5039" lon="5.78614">
        <ele>725.7</ele>
        <time>2021-08-23T15:52:32Z</time>
      </trkpt>
      <trkpt lat="45.5039" lon="5.78614">
        <ele>725.7</ele>
        <time>2021-08-23T15:52:36Z</time>
      </trkpt>
      <trkpt lat="45.5039" lon="5.78614">
        <ele>725.6</ele>
        <time>2021-08-23T15:52:38Z</time>
      </trkpt>
      <trkpt lat="45.5039" lon="5.78614">
        <ele>725.6</ele>
        <time>2021-08-23T15:52:39Z</time>
      </trkpt>
      <trkpt lat="45.5039" lon="5.78614">
        <ele>725.6</ele>
        <time>2021-08-23T15:52:41Z</time>
      </trkpt>
      <trkpt lat="45.5039" lon="5.78614">
        <ele>725.6</ele>
        <time>2021-08-23T15:52:42Z</time>
      </trkpt>
      <trkpt lat="45.5039" lon="5.78614">
        <ele>725.6</ele>
        <time>2021-08-23T15:52:43Z</time>
      </trkpt>
      <trkpt lat="45.5039" lon="5.78614">
        <ele>725.6</ele>
        <time>2021-08-23T15:52:45Z</time>
      </trkpt>
      <trkpt lat="45.5039" lon="5.78614">
        <ele>725.6</ele>
        <time>2021-08-23T15:52:46Z</time>
      </trkpt>
      <trkpt lat="45.5039" lon="5.78614">
        <ele>725.6</ele>
        <time>2021-08-23T15:52:48Z</time>
      </trkpt>
      <trkpt lat="45.5039" lon="5.78614">
        <ele>725.6</ele>
        <time>2021-08-23T15:52:49Z</time>
      </trkpt>
      <trkpt lat="45.5039" lon="5.78614">
        <ele>725.5</ele>
        <time>2021-08-23T15:52:50Z</time>
      </trkpt>
      <trkpt lat="45.5039" lon="5.78614">
        <ele>725.5</ele>
        <time>2021-08-23T15:52:52Z</time>
      </trkpt>
      <trkpt lat="45.5039" lon="5.78614">
        <ele>725.5</ele>
        <time>2021-08-23T15:52:54Z</time>
      </trkpt>
      <trkpt lat="45.5039" lon="5.78614">
        <ele>725.5</ele>
        <time>2021-08-23T15:52:55Z</time>
      </trkpt>
      <trkpt lat="45.5039" lon="5.78614">
        <ele>725.5</ele>
        <time>2021-08-23T15:52:56Z</time>
      </trkpt>
      <trkpt lat="45.5039" lon="5.78615">
        <ele>725.5</ele>
        <time>2021-08-23T15:52:57Z</time>
      </trkpt>
      <trkpt lat="45.5039" lon="5.78615">
        <ele>725.5</ele>
        <time>2021-08-23T15:52:59Z</time>
      </trkpt>
      <trkpt lat="45.5039" lon="5.78615">
        <ele>725.4</ele>
        <time>2021-08-23T15:53:00Z</time>
      </trkpt>
      <trkpt lat="45.5039" lon="5.78615">
        <ele>725.4</ele>
        <time>2021-08-23T15:53:01Z</time>
      </trkpt>
      <trkpt lat="45.5039" lon="5.78615">
        <ele>725.4</ele>
        <time>2021-08-23T15:53:02Z</time>
      </trkpt>
      <trkpt lat="45.5039" lon="5.78616">
        <ele>725.4</ele>
        <time>2021-08-23T15:53:05Z</time>
      </trkpt>
      <trkpt lat="45.5039" lon="5.78616">
        <ele>725.4</ele>
        <time>2021-08-23T15:53:06Z</time>
      </trkpt>
      <trkpt lat="45.5039" lon="5.78616">
        <ele>725.4</ele>
        <time>2021-08-23T15:53:08Z</time>
      </trkpt>
      <trkpt lat="45.5039" lon="5.78616">
        <ele>725.4</ele>
        <time>2021-08-23T15:53:09Z</time>
      </trkpt>
      <trkpt lat="45.50389" lon="5.78616">
        <ele>725.3</ele>
        <time>2021-08-23T15:53:12Z</time>
      </trkpt>
      <trkpt lat="45.50389" lon="5.78616">
        <ele>725.3</ele>
        <time>2021-08-23T15:53:13Z</time>
      </trkpt>
      <trkpt lat="45.5038" lon="5.78601">
        <ele>728.1</ele>
        <time>2021-08-23T15:53:15Z</time>
      </trkpt>
      <trkpt lat="45.50363" lon="5.78581">
        <ele>734.2</ele>
        <time>2021-08-23T15:53:17Z</time>
      </trkpt>
      <trkpt lat="45.50356" lon="5.78576">
        <ele>736.6</ele>
        <time>2021-08-23T15:53:18Z</time>
      </trkpt>
      <trkpt lat="45.50353" lon="5.78574">
        <ele>737.5</ele>
        <time>2021-08-23T15:53:20Z</time>
      </trkpt>
      <trkpt lat="45.50353" lon="5.78573">
        <ele>737.5</ele>
        <time>2021-08-23T15:53:23Z</time>
      </trkpt>
      <trkpt lat="45.50352" lon="5.78573">
        <ele>737.5</ele>
        <time>2021-08-23T15:53:24Z</time>
      </trkpt>
      <trkpt lat="45.50352" lon="5.78573">
        <ele>737.5</ele>
        <time>2021-08-23T15:53:25Z</time>
      </trkpt>
      <trkpt lat="45.50352" lon="5.78573">
        <ele>738.3</ele>
        <time>2021-08-23T15:53:27Z</time>
      </trkpt>
      <trkpt lat="45.50352" lon="5.78573">
        <ele>738.3</ele>
        <time>2021-08-23T15:53:28Z</time>
      </trkpt>
      <trkpt lat="45.50352" lon="5.78572">
        <ele>738.3</ele>
        <time>2021-08-23T15:53:30Z</time>
      </trkpt>
      <trkpt lat="45.50351" lon="5.78572">
        <ele>738.3</ele>
        <time>2021-08-23T15:53:32Z</time>
      </trkpt>
      <trkpt lat="45.50351" lon="5.78572">
        <ele>738.3</ele>
        <time>2021-08-23T15:53:34Z</time>
      </trkpt>
      <trkpt lat="45.50351" lon="5.78572">
        <ele>738.3</ele>
        <time>2021-08-23T15:53:36Z</time>
      </trkpt>
      <trkpt lat="45.50351" lon="5.78572">
        <ele>738.5</ele>
        <time>2021-08-23T15:53:38Z</time>
      </trkpt>
      <trkpt lat="45.50351" lon="5.78572">
        <ele>738.4</ele>
        <time>2021-08-23T15:53:40Z</time>
      </trkpt>
      <trkpt lat="45.50351" lon="5.78572">
        <ele>738.4</ele>
        <time>2021-08-23T15:53:42Z</time>
      </trkpt>
      <trkpt lat="45.50351" lon="5.78572">
        <ele>738.4</ele>
        <time>2021-08-23T15:53:43Z</time>
      </trkpt>
      <trkpt lat="45.50351" lon="5.78572">
        <ele>738.4</ele>
        <time>2021-08-23T15:53:44Z</time>
      </trkpt>
      <trkpt lat="45.50351" lon="5.78572">
        <ele>738.2</ele>
        <time>2021-08-23T15:53:45Z</time>
      </trkpt>
      <trkpt lat="45.50351" lon="5.78572">
        <ele>738.2</ele>
        <time>2021-08-23T15:53:47Z</time>
      </trkpt>
      <trkpt lat="45.50351" lon="5.78572">
        <ele>738.2</ele>
        <time>2021-08-23T15:53:48Z</time>
      </trkpt>
      <trkpt lat="45.50352" lon="5.78573">
        <ele>738.2</ele>
        <time>2021-08-23T15:53:49Z</time>
      </trkpt>
      <trkpt lat="45.50353" lon="5.78574">
        <ele>737.3</ele>
        <time>2021-08-23T15:53:51Z</time>
      </trkpt>
      <trkpt lat="45.5035" lon="5.78572">
        <ele>738.3</ele>
        <time>2021-08-23T15:53:53Z</time>
      </trkpt>
      <trkpt lat="45.5035" lon="5.78572">
        <ele>738.3</ele>
        <time>2021-08-23T15:53:54Z</time>
      </trkpt>
      <trkpt lat="45.50349" lon="5.78571">
        <ele>738.3</ele>
        <time>2021-08-23T15:53:55Z</time>
      </trkpt>
      <trkpt lat="45.50349" lon="5.78571">
        <ele>738.3</ele>
        <time>2021-08-23T15:53:56Z</time>
      </trkpt>
      <trkpt lat="45.50349" lon="5.78571">
        <ele>738.3</ele>
        <time>2021-08-23T15:53:58Z</time>
      </trkpt>
      <trkpt lat="45.50349" lon="5.78571">
        <ele>739.1</ele>
        <time>2021-08-23T15:54:00Z</time>
      </trkpt>
      <trkpt lat="45.5035" lon="5.78571">
        <ele>738.3</ele>
        <time>2021-08-23T15:54:01Z</time>
      </trkpt>
      <trkpt lat="45.50357" lon="5.78574">
        <ele>736.2</ele>
        <time>2021-08-23T15:54:03Z</time>
      </trkpt>
      <trkpt lat="45.50359" lon="5.78575">
        <ele>735.2</ele>
        <time>2021-08-23T15:54:04Z</time>
      </trkpt>
      <trkpt lat="45.50361" lon="5.78576">
        <ele>735.2</ele>
        <time>2021-08-23T15:54:05Z</time>
      </trkpt>
      <trkpt lat="45.50362" lon="5.78577">
        <ele>734</ele>
        <time>2021-08-23T15:54:07Z</time>
      </trkpt>
      <trkpt lat="45.50364" lon="5.78579">
        <ele>734</ele>
        <time>2021-08-23T15:54:09Z</time>
      </trkpt>
      <trkpt lat="45.50365" lon="5.7858">
        <ele>733</ele>
        <time>2021-08-23T15:54:10Z</time>
      </trkpt>
      <trkpt lat="45.50367" lon="5.78583">
        <ele>732.8</ele>
        <time>2021-08-23T15:54:12Z</time>
      </trkpt>
      <trkpt lat="45.50368" lon="5.7859">
        <ele>731.5</ele>
        <time>2021-08-23T15:54:13Z</time>
      </trkpt>
      <trkpt lat="45.50368" lon="5.78594">
        <ele>731.3</ele>
        <time>2021-08-23T15:54:14Z</time>
      </trkpt>
      <trkpt lat="45.50366" lon="5.78613">
        <ele>731.3</ele>
        <time>2021-08-23T15:54:15Z</time>
      </trkpt>
      <trkpt lat="45.50365" lon="5.78623">
        <ele>731</ele>
        <time>2021-08-23T15:54:17Z</time>
      </trkpt>
      <trkpt lat="45.50365" lon="5.78632">
        <ele>730.7</ele>
        <time>2021-08-23T15:54:19Z</time>
      </trkpt>
      <trkpt lat="45.50366" lon="5.78639">
        <ele>730.6</ele>
        <time>2021-08-23T15:54:20Z</time>
      </trkpt>
      <trkpt lat="45.50366" lon="5.78641">
        <ele>730.6</ele>
        <time>2021-08-23T15:54:21Z</time>
      </trkpt>
      <trkpt lat="45.50366" lon="5.78641">
        <ele>730.6</ele>
        <time>2021-08-23T15:54:23Z</time>
      </trkpt>
      <trkpt lat="45.50366" lon="5.78641">
        <ele>730.6</ele>
        <time>2021-08-23T15:54:26Z</time>
      </trkpt>
      <trkpt lat="45.50366" lon="5.78641">
        <ele>730.5</ele>
        <time>2021-08-23T15:54:28Z</time>
      </trkpt>
      <trkpt lat="45.50366" lon="5.78641">
        <ele>730.5</ele>
        <time>2021-08-23T15:54:29Z</time>
      </trkpt>
      <trkpt lat="45.50366" lon="5.78641">
        <ele>730.5</ele>
        <time>2021-08-23T15:54:31Z</time>
      </trkpt>
      <trkpt lat="45.50367" lon="5.78641">
        <ele>730.5</ele>
        <time>2021-08-23T15:54:32Z</time>
      </trkpt>
      <trkpt lat="45.50367" lon="5.78641">
        <ele>730.5</ele>
        <time>2021-08-23T15:54:34Z</time>
      </trkpt>
      <trkpt lat="45.50367" lon="5.78641">
        <ele>730.5</ele>
        <time>2021-08-23T15:54:35Z</time>
      </trkpt>
      <trkpt lat="45.50367" lon="5.78641">
        <ele>730.5</ele>
        <time>2021-08-23T15:54:37Z</time>
      </trkpt>
      <trkpt lat="45.50367" lon="5.78641">
        <ele>730.5</ele>
        <time>2021-08-23T15:54:38Z</time>
      </trkpt>
      <trkpt lat="45.50367" lon="5.78641">
        <ele>730.4</ele>
        <time>2021-08-23T15:54:39Z</time>
      </trkpt>
      <trkpt lat="45.50367" lon="5.78641">
        <ele>730.4</ele>
        <time>2021-08-23T15:54:41Z</time>
      </trkpt>
      <trkpt lat="45.50367" lon="5.78641">
        <ele>730.4</ele>
        <time>2021-08-23T15:54:42Z</time>
      </trkpt>
      <trkpt lat="45.50364" lon="5.78639">
        <ele>731.3</ele>
        <time>2021-08-23T15:54:43Z</time>
      </trkpt>
      <trkpt lat="45.50363" lon="5.7864">
        <ele>731.3</ele>
        <time>2021-08-23T15:54:44Z</time>
      </trkpt>
      <trkpt lat="45.50364" lon="5.78642">
        <ele>731.2</ele>
        <time>2021-08-23T15:54:45Z</time>
      </trkpt>
      <trkpt lat="45.50365" lon="5.78644">
        <ele>730.4</ele>
        <time>2021-08-23T15:54:46Z</time>
      </trkpt>
      <trkpt lat="45.50365" lon="5.78645">
        <ele>730.4</ele>
        <time>2021-08-23T15:54:47Z</time>
      </trkpt>
      <trkpt lat="45.50373" lon="5.78665">
        <ele>729.3</ele>
        <time>2021-08-23T15:54:49Z</time>
      </trkpt>
      <trkpt lat="45.50375" lon="5.78672">
        <ele>729.1</ele>
        <time>2021-08-23T15:54:50Z</time>
      </trkpt>
      <trkpt lat="45.50376" lon="5.78675">
        <ele>729.4</ele>
        <time>2021-08-23T15:54:52Z</time>
      </trkpt>
      <trkpt lat="45.50376" lon="5.78676">
        <ele>728.8</ele>
        <time>2021-08-23T15:54:53Z</time>
      </trkpt>
      <trkpt lat="45.50376" lon="5.78676">
        <ele>728.8</ele>
        <time>2021-08-23T15:54:54Z</time>
      </trkpt>
      <trkpt lat="45.50376" lon="5.78676">
        <ele>728.7</ele>
        <time>2021-08-23T15:54:56Z</time>
      </trkpt>
      <trkpt lat="45.50376" lon="5.78676">
        <ele>728.7</ele>
        <time>2021-08-23T15:54:57Z</time>
      </trkpt>
      <trkpt lat="45.50376" lon="5.78676">
        <ele>728.7</ele>
        <time>2021-08-23T15:54:58Z</time>
      </trkpt>
      <trkpt lat="45.50376" lon="5.78676">
        <ele>728.7</ele>
        <time>2021-08-23T15:55:00Z</time>
      </trkpt>
      <trkpt lat="45.50376" lon="5.78676">
        <ele>728.7</ele>
        <time>2021-08-23T15:55:01Z</time>
      </trkpt>
      <trkpt lat="45.50377" lon="5.78676">
        <ele>728.7</ele>
        <time>2021-08-23T15:55:02Z</time>
      </trkpt>
      <trkpt lat="45.50377" lon="5.78676">
        <ele>728.7</ele>
        <time>2021-08-23T15:55:04Z</time>
      </trkpt>
      <trkpt lat="45.50377" lon="5.78676">
        <ele>728.7</ele>
        <time>2021-08-23T15:55:05Z</time>
      </trkpt>
      <trkpt lat="45.50374" lon="5.78678">
        <ele>729.3</ele>
        <time>2021-08-23T15:55:07Z</time>
      </trkpt>
      <trkpt lat="45.50369" lon="5.78679">
        <ele>730.6</ele>
        <time>2021-08-23T15:55:09Z</time>
      </trkpt>
      <trkpt lat="45.50367" lon="5.7868">
        <ele>730.9</ele>
        <time>2021-08-23T15:55:11Z</time>
      </trkpt>
      <trkpt lat="45.50366" lon="5.78681">
        <ele>731.6</ele>
        <time>2021-08-23T15:55:12Z</time>
      </trkpt>
      <trkpt lat="45.50365" lon="5.78682">
        <ele>731.6</ele>
        <time>2021-08-23T15:55:14Z</time>
      </trkpt>
      <trkpt lat="45.50365" lon="5.78682">
        <ele>731.5</ele>
        <time>2021-08-23T15:55:15Z</time>
      </trkpt>
      <trkpt lat="45.50365" lon="5.78683">
        <ele>731.5</ele>
        <time>2021-08-23T15:55:17Z</time>
      </trkpt>
      <trkpt lat="45.50366" lon="5.78684">
        <ele>731.9</ele>
        <time>2021-08-23T15:55:19Z</time>
      </trkpt>
      <trkpt lat="45.50367" lon="5.78685">
        <ele>731.2</ele>
        <time>2021-08-23T15:55:20Z</time>
      </trkpt>
      <trkpt lat="45.50369" lon="5.78687">
        <ele>731.2</ele>
        <time>2021-08-23T15:55:22Z</time>
      </trkpt>
      <trkpt lat="45.5037" lon="5.78689">
        <ele>731.5</ele>
        <time>2021-08-23T15:55:24Z</time>
      </trkpt>
      <trkpt lat="45.5037" lon="5.7869">
        <ele>731.5</ele>
        <time>2021-08-23T15:55:25Z</time>
      </trkpt>
      <trkpt lat="45.50371" lon="5.78693">
        <ele>731.2</ele>
        <time>2021-08-23T15:55:27Z</time>
      </trkpt>
      <trkpt lat="45.5037" lon="5.78695">
        <ele>731.2</ele>
        <time>2021-08-23T15:55:29Z</time>
      </trkpt>
      <trkpt lat="45.50371" lon="5.78697">
        <ele>731.6</ele>
        <time>2021-08-23T15:55:30Z</time>
      </trkpt>
      <trkpt lat="45.50371" lon="5.78698">
        <ele>731.6</ele>
        <time>2021-08-23T15:55:32Z</time>
      </trkpt>
      <trkpt lat="45.50371" lon="5.78699">
        <ele>731.6</ele>
        <time>2021-08-23T15:55:33Z</time>
      </trkpt>
      <trkpt lat="45.50371" lon="5.78699">
        <ele>731.6</ele>
        <time>2021-08-23T15:55:34Z</time>
      </trkpt>
      <trkpt lat="45.50371" lon="5.787">
        <ele>731.6</ele>
        <time>2021-08-23T15:55:35Z</time>
      </trkpt>
      <trkpt lat="45.50371" lon="5.787">
        <ele>731.6</ele>
        <time>2021-08-23T15:55:39Z</time>
      </trkpt>
      <trkpt lat="45.50371" lon="5.787">
        <ele>731.5</ele>
        <time>2021-08-23T15:55:41Z</time>
      </trkpt>
      <trkpt lat="45.5037" lon="5.787">
        <ele>731.5</ele>
        <time>2021-08-23T15:55:42Z</time>
      </trkpt>
      <trkpt lat="45.5037" lon="5.787">
        <ele>731.5</ele>
        <time>2021-08-23T15:55:44Z</time>
      </trkpt>
      <trkpt lat="45.5037" lon="5.78701">
        <ele>732.1</ele>
        <time>2021-08-23T15:55:45Z</time>
      </trkpt>
      <trkpt lat="45.5037" lon="5.78701">
        <ele>732.5</ele>
        <time>2021-08-23T15:55:46Z</time>
      </trkpt>
      <trkpt lat="45.5037" lon="5.78701">
        <ele>732.5</ele>
        <time>2021-08-23T15:55:48Z</time>
      </trkpt>
      <trkpt lat="45.5037" lon="5.78702">
        <ele>732.5</ele>
        <time>2021-08-23T15:55:49Z</time>
      </trkpt>
      <trkpt lat="45.5037" lon="5.78702">
        <ele>732.5</ele>
        <time>2021-08-23T15:55:50Z</time>
      </trkpt>
      <trkpt lat="45.5037" lon="5.78703">
        <ele>732.5</ele>
        <time>2021-08-23T15:55:52Z</time>
      </trkpt>
      <trkpt lat="45.5037" lon="5.78704">
        <ele>732.5</ele>
        <time>2021-08-23T15:55:54Z</time>
      </trkpt>
      <trkpt lat="45.5037" lon="5.78705">
        <ele>732.5</ele>
        <time>2021-08-23T15:55:55Z</time>
      </trkpt>
      <trkpt lat="45.5037" lon="5.78706">
        <ele>732.9</ele>
        <time>2021-08-23T15:55:57Z</time>
      </trkpt>
      <trkpt lat="45.5037" lon="5.78706">
        <ele>732.9</ele>
        <time>2021-08-23T15:55:58Z</time>
      </trkpt>
      <trkpt lat="45.5037" lon="5.78707">
        <ele>732.9</ele>
        <time>2021-08-23T15:55:59Z</time>
      </trkpt>
      <trkpt lat="45.5037" lon="5.78708">
        <ele>732.9</ele>
        <time>2021-08-23T15:56:01Z</time>
      </trkpt>
      <trkpt lat="45.50369" lon="5.78707">
        <ele>732.8</ele>
        <time>2021-08-23T15:56:02Z</time>
      </trkpt>
      <trkpt lat="45.50359" lon="5.78696">
        <ele>733.8</ele>
        <time>2021-08-23T15:56:04Z</time>
      </trkpt>
      <trkpt lat="45.50355" lon="5.78688">
        <ele>734.2</ele>
        <time>2021-08-23T15:56:05Z</time>
      </trkpt>
      <trkpt lat="45.50353" lon="5.78683">
        <ele>734.3</ele>
        <time>2021-08-23T15:56:06Z</time>
      </trkpt>
      <trkpt lat="45.50352" lon="5.78681">
        <ele>734.3</ele>
        <time>2021-08-23T15:56:07Z</time>
      </trkpt>
      <trkpt lat="45.50351" lon="5.7868">
        <ele>735</ele>
        <time>2021-08-23T15:56:09Z</time>
      </trkpt>
      <trkpt lat="45.5035" lon="5.7868">
        <ele>735</ele>
        <time>2021-08-23T15:56:10Z</time>
      </trkpt>
      <trkpt lat="45.50349" lon="5.78681">
        <ele>735</ele>
        <time>2021-08-23T15:56:11Z</time>
      </trkpt>
      <trkpt lat="45.50348" lon="5.78682">
        <ele>735.7</ele>
        <time>2021-08-23T15:56:12Z</time>
      </trkpt>
      <trkpt lat="45.50351" lon="5.78684">
        <ele>735.2</ele>
        <time>2021-08-23T15:56:14Z</time>
      </trkpt>
      <trkpt lat="45.50354" lon="5.78686">
        <ele>734.5</ele>
        <time>2021-08-23T15:56:15Z</time>
      </trkpt>
      <trkpt lat="45.50358" lon="5.78688">
        <ele>732.9</ele>
        <time>2021-08-23T15:56:16Z</time>
      </trkpt>
      <trkpt lat="45.50362" lon="5.78689">
        <ele>732.5</ele>
        <time>2021-08-23T15:56:18Z</time>
      </trkpt>
      <trkpt lat="45.50365" lon="5.78691">
        <ele>731.7</ele>
        <time>2021-08-23T15:56:20Z</time>
      </trkpt>
      <trkpt lat="45.50371" lon="5.78693">
        <ele>730.8</ele>
        <time>2021-08-23T15:56:21Z</time>
      </trkpt>
      <trkpt lat="45.50373" lon="5.78695">
        <ele>730.8</ele>
        <time>2021-08-23T15:56:22Z</time>
      </trkpt>
      <trkpt lat="45.50374" lon="5.78696">
        <ele>730.1</ele>
        <time>2021-08-23T15:56:24Z</time>
      </trkpt>
      <trkpt lat="45.50375" lon="5.78698">
        <ele>730.5</ele>
        <time>2021-08-23T15:56:25Z</time>
      </trkpt>
      <trkpt lat="45.50374" lon="5.787">
        <ele>730.5</ele>
        <time>2021-08-23T15:56:27Z</time>
      </trkpt>
      <trkpt lat="45.50365" lon="5.78709">
        <ele>733.7</ele>
        <time>2021-08-23T15:56:29Z</time>
      </trkpt>
      <trkpt lat="45.50359" lon="5.78718">
        <ele>736.2</ele>
        <time>2021-08-23T15:56:31Z</time>
      </trkpt>
      <trkpt lat="45.50358" lon="5.7872">
        <ele>736.9</ele>
        <time>2021-08-23T15:56:32Z</time>
      </trkpt>
      <trkpt lat="45.50356" lon="5.78722">
        <ele>736.9</ele>
        <time>2021-08-23T15:56:34Z</time>
      </trkpt>
      <trkpt lat="45.50356" lon="5.78723">
        <ele>737.4</ele>
        <time>2021-08-23T15:56:35Z</time>
      </trkpt>
      <trkpt lat="45.50355" lon="5.78724">
        <ele>738.1</ele>
        <time>2021-08-23T15:56:37Z</time>
      </trkpt>
      <trkpt lat="45.50354" lon="5.78725">
        <ele>738.1</ele>
        <time>2021-08-23T15:56:38Z</time>
      </trkpt>
      <trkpt lat="45.50354" lon="5.78725">
        <ele>738.1</ele>
        <time>2021-08-23T15:56:40Z</time>
      </trkpt>
      <trkpt lat="45.50353" lon="5.78726">
        <ele>738</ele>
        <time>2021-08-23T15:56:41Z</time>
      </trkpt>
      <trkpt lat="45.50352" lon="5.78726">
        <ele>738</ele>
        <time>2021-08-23T15:56:42Z</time>
      </trkpt>
      <trkpt lat="45.50349" lon="5.78727">
        <ele>739.8</ele>
        <time>2021-08-23T15:56:44Z</time>
      </trkpt>
      <trkpt lat="45.50346" lon="5.78727">
        <ele>739.7</ele>
        <time>2021-08-23T15:56:45Z</time>
      </trkpt>
      <trkpt lat="45.50344" lon="5.78728">
        <ele>740.3</ele>
        <time>2021-08-23T15:56:47Z</time>
      </trkpt>
      <trkpt lat="45.50343" lon="5.78728">
        <ele>740.3</ele>
        <time>2021-08-23T15:56:48Z</time>
      </trkpt>
      <trkpt lat="45.50342" lon="5.78728">
        <ele>740.9</ele>
        <time>2021-08-23T15:56:50Z</time>
      </trkpt>
      <trkpt lat="45.50341" lon="5.78728">
        <ele>740.9</ele>
        <time>2021-08-23T15:56:51Z</time>
      </trkpt>
      <trkpt lat="45.5034" lon="5.78728">
        <ele>741.6</ele>
        <time>2021-08-23T15:56:52Z</time>
      </trkpt>
      <trkpt lat="45.50339" lon="5.78729">
        <ele>741.6</ele>
        <time>2021-08-23T15:56:54Z</time>
      </trkpt>
      <trkpt lat="45.50338" lon="5.7873">
        <ele>741.6</ele>
        <time>2021-08-23T15:56:55Z</time>
      </trkpt>
      <trkpt lat="45.50334" lon="5.78732">
        <ele>742.7</ele>
        <time>2021-08-23T15:56:57Z</time>
      </trkpt>
      <trkpt lat="45.50323" lon="5.78738">
        <ele>746.1</ele>
        <time>2021-08-23T15:56:58Z</time>
      </trkpt>
      <trkpt lat="45.50317" lon="5.78742">
        <ele>747.8</ele>
        <time>2021-08-23T15:56:59Z</time>
      </trkpt>
      <trkpt lat="45.50315" lon="5.78743">
        <ele>748.6</ele>
        <time>2021-08-23T15:57:00Z</time>
      </trkpt>
      <trkpt lat="45.50314" lon="5.78743">
        <ele>748.6</ele>
        <time>2021-08-23T15:57:01Z</time>
      </trkpt>
      <trkpt lat="45.50314" lon="5.78744">
        <ele>748.8</ele>
        <time>2021-08-23T15:57:02Z</time>
      </trkpt>
      <trkpt lat="45.50313" lon="5.78744">
        <ele>748.8</ele>
        <time>2021-08-23T15:57:04Z</time>
      </trkpt>
      <trkpt lat="45.50313" lon="5.78744">
        <ele>748.8</ele>
        <time>2021-08-23T15:57:05Z</time>
      </trkpt>
      <trkpt lat="45.50313" lon="5.78744">
        <ele>748.8</ele>
        <time>2021-08-23T15:57:06Z</time>
      </trkpt>
      <trkpt lat="45.50313" lon="5.78744">
        <ele>749.7</ele>
        <time>2021-08-23T15:57:07Z</time>
      </trkpt>
      <trkpt lat="45.50313" lon="5.78744">
        <ele>749.6</ele>
        <time>2021-08-23T15:57:09Z</time>
      </trkpt>
      <trkpt lat="45.50313" lon="5.78744">
        <ele>749.6</ele>
        <time>2021-08-23T15:57:10Z</time>
      </trkpt>
      <trkpt lat="45.50313" lon="5.78744">
        <ele>749.6</ele>
        <time>2021-08-23T15:57:11Z</time>
      </trkpt>
      <trkpt lat="45.50313" lon="5.78747">
        <ele>748.7</ele>
        <time>2021-08-23T15:57:13Z</time>
      </trkpt>
      <trkpt lat="45.50313" lon="5.78749">
        <ele>749</ele>
        <time>2021-08-23T15:57:14Z</time>
      </trkpt>
      <trkpt lat="45.50313" lon="5.78752">
        <ele>749.3</ele>
        <time>2021-08-23T15:57:16Z</time>
      </trkpt>
      <trkpt lat="45.50313" lon="5.78755">
        <ele>749.3</ele>
        <time>2021-08-23T15:57:17Z</time>
      </trkpt>
      <trkpt lat="45.50313" lon="5.78757">
        <ele>749.6</ele>
        <time>2021-08-23T15:57:18Z</time>
      </trkpt>
      <trkpt lat="45.50314" lon="5.78759">
        <ele>749.6</ele>
        <time>2021-08-23T15:57:19Z</time>
      </trkpt>
      <trkpt lat="45.50313" lon="5.78761">
        <ele>750</ele>
        <time>2021-08-23T15:57:21Z</time>
      </trkpt>
      <trkpt lat="45.50313" lon="5.78763">
        <ele>750.7</ele>
        <time>2021-08-23T15:57:22Z</time>
      </trkpt>
      <trkpt lat="45.5031" lon="5.78768">
        <ele>751.1</ele>
        <time>2021-08-23T15:57:24Z</time>
      </trkpt>
      <trkpt lat="45.50308" lon="5.78771">
        <ele>752.2</ele>
        <time>2021-08-23T15:57:26Z</time>
      </trkpt>
      <trkpt lat="45.50307" lon="5.78772">
        <ele>752.2</ele>
        <time>2021-08-23T15:57:27Z</time>
      </trkpt>
      <trkpt lat="45.50306" lon="5.78773">
        <ele>752.9</ele>
        <time>2021-08-23T15:57:28Z</time>
      </trkpt>
      <trkpt lat="45.50304" lon="5.78774">
        <ele>753.3</ele>
        <time>2021-08-23T15:57:30Z</time>
      </trkpt>
      <trkpt lat="45.50304" lon="5.78775">
        <ele>754</ele>
        <time>2021-08-23T15:57:31Z</time>
      </trkpt>
      <trkpt lat="45.50303" lon="5.78775">
        <ele>753.9</ele>
        <time>2021-08-23T15:57:32Z</time>
      </trkpt>
      <trkpt lat="45.50302" lon="5.78776">
        <ele>753.9</ele>
        <time>2021-08-23T15:57:33Z</time>
      </trkpt>
      <trkpt lat="45.50301" lon="5.78776">
        <ele>753.9</ele>
        <time>2021-08-23T15:57:35Z</time>
      </trkpt>
      <trkpt lat="45.50301" lon="5.78777">
        <ele>753.9</ele>
        <time>2021-08-23T15:57:36Z</time>
      </trkpt>
      <trkpt lat="45.503" lon="5.78778">
        <ele>754.9</ele>
        <time>2021-08-23T15:57:37Z</time>
      </trkpt>
      <trkpt lat="45.50299" lon="5.78779">
        <ele>754.9</ele>
        <time>2021-08-23T15:57:38Z</time>
      </trkpt>
      <trkpt lat="45.50297" lon="5.78781">
        <ele>755.5</ele>
        <time>2021-08-23T15:57:40Z</time>
      </trkpt>
      <trkpt lat="45.50296" lon="5.78781">
        <ele>755.4</ele>
        <time>2021-08-23T15:57:41Z</time>
      </trkpt>
      <trkpt lat="45.50295" lon="5.78782">
        <ele>756</ele>
        <time>2021-08-23T15:57:42Z</time>
      </trkpt>
      <trkpt lat="45.50293" lon="5.78782">
        <ele>756.3</ele>
        <time>2021-08-23T15:57:44Z</time>
      </trkpt>
      <trkpt lat="45.50291" lon="5.78783">
        <ele>756.9</ele>
        <time>2021-08-23T15:57:45Z</time>
      </trkpt>
      <trkpt lat="45.50289" lon="5.78783">
        <ele>756.9</ele>
        <time>2021-08-23T15:57:46Z</time>
      </trkpt>
      <trkpt lat="45.50284" lon="5.78783">
        <ele>758.1</ele>
        <time>2021-08-23T15:57:48Z</time>
      </trkpt>
      <trkpt lat="45.50281" lon="5.78782">
        <ele>758.5</ele>
        <time>2021-08-23T15:57:50Z</time>
      </trkpt>
      <trkpt lat="45.50279" lon="5.78782">
        <ele>759.3</ele>
        <time>2021-08-23T15:57:51Z</time>
      </trkpt>
      <trkpt lat="45.50277" lon="5.78782">
        <ele>759.2</ele>
        <time>2021-08-23T15:57:53Z</time>
      </trkpt>
      <trkpt lat="45.50276" lon="5.78782">
        <ele>760.2</ele>
        <time>2021-08-23T15:57:54Z</time>
      </trkpt>
      <trkpt lat="45.50275" lon="5.78783">
        <ele>760.2</ele>
        <time>2021-08-23T15:57:56Z</time>
      </trkpt>
      <trkpt lat="45.50275" lon="5.78783">
        <ele>760.2</ele>
        <time>2021-08-23T15:57:58Z</time>
      </trkpt>
      <trkpt lat="45.50274" lon="5.78784">
        <ele>760.2</ele>
        <time>2021-08-23T15:57:59Z</time>
      </trkpt>
      <trkpt lat="45.50274" lon="5.78784">
        <ele>760.9</ele>
        <time>2021-08-23T15:58:00Z</time>
      </trkpt>
      <trkpt lat="45.50273" lon="5.78785">
        <ele>760.9</ele>
        <time>2021-08-23T15:58:02Z</time>
      </trkpt>
      <trkpt lat="45.50273" lon="5.78785">
        <ele>760.9</ele>
        <time>2021-08-23T15:58:03Z</time>
      </trkpt>
      <trkpt lat="45.50272" lon="5.78786">
        <ele>760.9</ele>
        <time>2021-08-23T15:58:04Z</time>
      </trkpt>
      <trkpt lat="45.50272" lon="5.78786">
        <ele>760.9</ele>
        <time>2021-08-23T15:58:05Z</time>
      </trkpt>
      <trkpt lat="45.50271" lon="5.78787">
        <ele>761.1</ele>
        <time>2021-08-23T15:58:06Z</time>
      </trkpt>
      <trkpt lat="45.5027" lon="5.78789">
        <ele>761.9</ele>
        <time>2021-08-23T15:58:07Z</time>
      </trkpt>
      <trkpt lat="45.50269" lon="5.78792">
        <ele>762.2</ele>
        <time>2021-08-23T15:58:09Z</time>
      </trkpt>
      <trkpt lat="45.50267" lon="5.78794">
        <ele>762.8</ele>
        <time>2021-08-23T15:58:11Z</time>
      </trkpt>
      <trkpt lat="45.50266" lon="5.78795">
        <ele>762.8</ele>
        <time>2021-08-23T15:58:12Z</time>
      </trkpt>
      <trkpt lat="45.50265" lon="5.78795">
        <ele>762.8</ele>
        <time>2021-08-23T15:58:13Z</time>
      </trkpt>
      <trkpt lat="45.50265" lon="5.78796">
        <ele>763.8</ele>
        <time>2021-08-23T15:58:15Z</time>
      </trkpt>
      <trkpt lat="45.50264" lon="5.78797">
        <ele>763.8</ele>
        <time>2021-08-23T15:58:16Z</time>
      </trkpt>
      <trkpt lat="45.50265" lon="5.78798">
        <ele>763.8</ele>
        <time>2021-08-23T15:58:17Z</time>
      </trkpt>
      <trkpt lat="45.50265" lon="5.78801">
        <ele>763.6</ele>
        <time>2021-08-23T15:58:19Z</time>
      </trkpt>
      <trkpt lat="45.50265" lon="5.78802">
        <ele>763.6</ele>
        <time>2021-08-23T15:58:20Z</time>
      </trkpt>
      <trkpt lat="45.50265" lon="5.78803">
        <ele>763.6</ele>
        <time>2021-08-23T15:58:21Z</time>
      </trkpt>
      <trkpt lat="45.50265" lon="5.78805">
        <ele>764.1</ele>
        <time>2021-08-23T15:58:23Z</time>
      </trkpt>
      <trkpt lat="45.50265" lon="5.78806">
        <ele>764.1</ele>
        <time>2021-08-23T15:58:24Z</time>
      </trkpt>
      <trkpt lat="45.50265" lon="5.78806">
        <ele>764.1</ele>
        <time>2021-08-23T15:58:25Z</time>
      </trkpt>
      <trkpt lat="45.50265" lon="5.78807">
        <ele>764.1</ele>
        <time>2021-08-23T15:58:26Z</time>
      </trkpt>
      <trkpt lat="45.50265" lon="5.78807">
        <ele>764.1</ele>
        <time>2021-08-23T15:58:28Z</time>
      </trkpt>
      <trkpt lat="45.50265" lon="5.78808">
        <ele>764.1</ele>
        <time>2021-08-23T15:58:29Z</time>
      </trkpt>
      <trkpt lat="45.50266" lon="5.78808">
        <ele>764.1</ele>
        <time>2021-08-23T15:58:32Z</time>
      </trkpt>
      <trkpt lat="45.50266" lon="5.78808">
        <ele>764.7</ele>
        <time>2021-08-23T15:58:33Z</time>
      </trkpt>
      <trkpt lat="45.50265" lon="5.78808">
        <ele>765.2</ele>
        <time>2021-08-23T15:58:35Z</time>
      </trkpt>
      <trkpt lat="45.50263" lon="5.78808">
        <ele>765.2</ele>
        <time>2021-08-23T15:58:36Z</time>
      </trkpt>
      <trkpt lat="45.50259" lon="5.78808">
        <ele>765.8</ele>
        <time>2021-08-23T15:58:38Z</time>
      </trkpt>
      <trkpt lat="45.50258" lon="5.78808">
        <ele>766.3</ele>
        <time>2021-08-23T15:58:39Z</time>
      </trkpt>
      <trkpt lat="45.50256" lon="5.78808">
        <ele>766.3</ele>
        <time>2021-08-23T15:58:40Z</time>
      </trkpt>
      <trkpt lat="45.50254" lon="5.78808">
        <ele>767</ele>
        <time>2021-08-23T15:58:42Z</time>
      </trkpt>
      <trkpt lat="45.50253" lon="5.78808">
        <ele>766.9</ele>
        <time>2021-08-23T15:58:43Z</time>
      </trkpt>
      <trkpt lat="45.50251" lon="5.7881">
        <ele>767.6</ele>
        <time>2021-08-23T15:58:44Z</time>
      </trkpt>
      <trkpt lat="45.50251" lon="5.78811">
        <ele>767.6</ele>
        <time>2021-08-23T15:58:45Z</time>
      </trkpt>
      <trkpt lat="45.5025" lon="5.78812">
        <ele>768.2</ele>
        <time>2021-08-23T15:58:47Z</time>
      </trkpt>
      <trkpt lat="45.50249" lon="5.78813">
        <ele>768.9</ele>
        <time>2021-08-23T15:58:48Z</time>
      </trkpt>
      <trkpt lat="45.50246" lon="5.78816">
        <ele>769.5</ele>
        <time>2021-08-23T15:58:50Z</time>
      </trkpt>
      <trkpt lat="45.50243" lon="5.78818">
        <ele>770.8</ele>
        <time>2021-08-23T15:58:52Z</time>
      </trkpt>
      <trkpt lat="45.5024" lon="5.78819">
        <ele>771.4</ele>
        <time>2021-08-23T15:58:54Z</time>
      </trkpt>
      <trkpt lat="45.50239" lon="5.78819">
        <ele>771.4</ele>
        <time>2021-08-23T15:58:56Z</time>
      </trkpt>
      <trkpt lat="45.50239" lon="5.78819">
        <ele>771.3</ele>
        <time>2021-08-23T15:58:58Z</time>
      </trkpt>
      <trkpt lat="45.50238" lon="5.78819">
        <ele>771.3</ele>
        <time>2021-08-23T15:58:59Z</time>
      </trkpt>
      <trkpt lat="45.50238" lon="5.78819">
        <ele>771.3</ele>
        <time>2021-08-23T15:59:01Z</time>
      </trkpt>
      <trkpt lat="45.50238" lon="5.78819">
        <ele>771.3</ele>
        <time>2021-08-23T15:59:02Z</time>
      </trkpt>
      <trkpt lat="45.50238" lon="5.78819">
        <ele>771.3</ele>
        <time>2021-08-23T15:59:03Z</time>
      </trkpt>
      <trkpt lat="45.50236" lon="5.78817">
        <ele>771.9</ele>
        <time>2021-08-23T15:59:05Z</time>
      </trkpt>
      <trkpt lat="45.50235" lon="5.78816">
        <ele>771.4</ele>
        <time>2021-08-23T15:59:07Z</time>
      </trkpt>
      <trkpt lat="45.50233" lon="5.78815">
        <ele>772</ele>
        <time>2021-08-23T15:59:09Z</time>
      </trkpt>
      <trkpt lat="45.50233" lon="5.78814">
        <ele>772</ele>
        <time>2021-08-23T15:59:10Z</time>
      </trkpt>
      <trkpt lat="45.50231" lon="5.78813">
        <ele>772.7</ele>
        <time>2021-08-23T15:59:12Z</time>
      </trkpt>
      <trkpt lat="45.50231" lon="5.78813">
        <ele>772.7</ele>
        <time>2021-08-23T15:59:14Z</time>
      </trkpt>
      <trkpt lat="45.50231" lon="5.78812">
        <ele>772.7</ele>
        <time>2021-08-23T15:59:15Z</time>
      </trkpt>
      <trkpt lat="45.50231" lon="5.78812">
        <ele>772.7</ele>
        <time>2021-08-23T15:59:16Z</time>
      </trkpt>
      <trkpt lat="45.5023" lon="5.78812">
        <ele>772.2</ele>
        <time>2021-08-23T15:59:17Z</time>
      </trkpt>
      <trkpt lat="45.5023" lon="5.78812">
        <ele>772.2</ele>
        <time>2021-08-23T15:59:18Z</time>
      </trkpt>
      <trkpt lat="45.5023" lon="5.78812">
        <ele>772.1</ele>
        <time>2021-08-23T15:59:20Z</time>
      </trkpt>
      <trkpt lat="45.5023" lon="5.78812">
        <ele>772.1</ele>
        <time>2021-08-23T15:59:21Z</time>
      </trkpt>
      <trkpt lat="45.5023" lon="5.78812">
        <ele>772.1</ele>
        <time>2021-08-23T15:59:22Z</time>
      </trkpt>
      <trkpt lat="45.50229" lon="5.78812">
        <ele>772.1</ele>
        <time>2021-08-23T15:59:24Z</time>
      </trkpt>
      <trkpt lat="45.50229" lon="5.78812">
        <ele>772.1</ele>
        <time>2021-08-23T15:59:26Z</time>
      </trkpt>
      <trkpt lat="45.50229" lon="5.78812">
        <ele>772.9</ele>
        <time>2021-08-23T15:59:27Z</time>
      </trkpt>
      <trkpt lat="45.50228" lon="5.78812">
        <ele>773.4</ele>
        <time>2021-08-23T15:59:28Z</time>
      </trkpt>
      <trkpt lat="45.50228" lon="5.78813">
        <ele>773.4</ele>
        <time>2021-08-23T15:59:29Z</time>
      </trkpt>
      <trkpt lat="45.50227" lon="5.78814">
        <ele>773.3</ele>
        <time>2021-08-23T15:59:30Z</time>
      </trkpt>
      <trkpt lat="45.50227" lon="5.78815">
        <ele>773.3</ele>
        <time>2021-08-23T15:59:32Z</time>
      </trkpt>
      <trkpt lat="45.50227" lon="5.78816">
        <ele>773.3</ele>
        <time>2021-08-23T15:59:33Z</time>
      </trkpt>
      <trkpt lat="45.50226" lon="5.78817">
        <ele>773.8</ele>
        <time>2021-08-23T15:59:34Z</time>
      </trkpt>
      <trkpt lat="45.50225" lon="5.78818">
        <ele>774.6</ele>
        <time>2021-08-23T15:59:35Z</time>
      </trkpt>
      <trkpt lat="45.50219" lon="5.78823">
        <ele>776.7</ele>
        <time>2021-08-23T15:59:37Z</time>
      </trkpt>
      <trkpt lat="45.50215" lon="5.78829">
        <ele>777.9</ele>
        <time>2021-08-23T15:59:39Z</time>
      </trkpt>
      <trkpt lat="45.50214" lon="5.78833">
        <ele>779</ele>
        <time>2021-08-23T15:59:40Z</time>
      </trkpt>
      <trkpt lat="45.50213" lon="5.78836">
        <ele>779.5</ele>
        <time>2021-08-23T15:59:41Z</time>
      </trkpt>
      <trkpt lat="45.50213" lon="5.78838">
        <ele>779.5</ele>
        <time>2021-08-23T15:59:42Z</time>
      </trkpt>
      <trkpt lat="45.50214" lon="5.7884">
        <ele>779.3</ele>
        <time>2021-08-23T15:59:44Z</time>
      </trkpt>
      <trkpt lat="45.50216" lon="5.7884">
        <ele>779.3</ele>
        <time>2021-08-23T15:59:45Z</time>
      </trkpt>
      <trkpt lat="45.50217" lon="5.7884">
        <ele>778.7</ele>
        <time>2021-08-23T15:59:46Z</time>
      </trkpt>
      <trkpt lat="45.50222" lon="5.78842">
        <ele>778</ele>
        <time>2021-08-23T15:59:48Z</time>
      </trkpt>
      <trkpt lat="45.50224" lon="5.78843">
        <ele>777.8</ele>
        <time>2021-08-23T15:59:49Z</time>
      </trkpt>
      <trkpt lat="45.50225" lon="5.78844">
        <ele>777.8</ele>
        <time>2021-08-23T15:59:50Z</time>
      </trkpt>
      <trkpt lat="45.50226" lon="5.78846">
        <ele>777.1</ele>
        <time>2021-08-23T15:59:52Z</time>
      </trkpt>
      <trkpt lat="45.50227" lon="5.78847">
        <ele>777.6</ele>
        <time>2021-08-23T15:59:54Z</time>
      </trkpt>
      <trkpt lat="45.50228" lon="5.78847">
        <ele>777.6</ele>
        <time>2021-08-23T15:59:56Z</time>
      </trkpt>
      <trkpt lat="45.50228" lon="5.78846">
        <ele>777</ele>
        <time>2021-08-23T15:59:57Z</time>
      </trkpt>
      <trkpt lat="45.50228" lon="5.78844">
        <ele>777</ele>
        <time>2021-08-23T15:59:58Z</time>
      </trkpt>
      <trkpt lat="45.50228" lon="5.78842">
        <ele>777</ele>
        <time>2021-08-23T15:59:59Z</time>
      </trkpt>
      <trkpt lat="45.50228" lon="5.78841">
        <ele>776.4</ele>
        <time>2021-08-23T16:00:01Z</time>
      </trkpt>
      <trkpt lat="45.50227" lon="5.7884">
        <ele>776.4</ele>
        <time>2021-08-23T16:00:03Z</time>
      </trkpt>
      <trkpt lat="45.50226" lon="5.78839">
        <ele>776.4</ele>
        <time>2021-08-23T16:00:04Z</time>
      </trkpt>
      <trkpt lat="45.50225" lon="5.78838">
        <ele>776.6</ele>
        <time>2021-08-23T16:00:06Z</time>
      </trkpt>
      <trkpt lat="45.50225" lon="5.78837">
        <ele>776.6</ele>
        <time>2021-08-23T16:00:07Z</time>
      </trkpt>
      <trkpt lat="45.50225" lon="5.78837">
        <ele>776.5</ele>
        <time>2021-08-23T16:00:08Z</time>
      </trkpt>
      <trkpt lat="45.50225" lon="5.78837">
        <ele>776.5</ele>
        <time>2021-08-23T16:00:09Z</time>
      </trkpt>
      <trkpt lat="45.50225" lon="5.78837">
        <ele>776.5</ele>
        <time>2021-08-23T16:00:11Z</time>
      </trkpt>
      <trkpt lat="45.50225" lon="5.78837">
        <ele>776.5</ele>
        <time>2021-08-23T16:00:12Z</time>
      </trkpt>
      <trkpt lat="45.50225" lon="5.78838">
        <ele>776.5</ele>
        <time>2021-08-23T16:00:14Z</time>
      </trkpt>
      <trkpt lat="45.50225" lon="5.78838">
        <ele>777</ele>
        <time>2021-08-23T16:00:17Z</time>
      </trkpt>
      <trkpt lat="45.50225" lon="5.78838">
        <ele>777</ele>
        <time>2021-08-23T16:00:19Z</time>
      </trkpt>
      <trkpt lat="45.50225" lon="5.78839">
        <ele>777</ele>
        <time>2021-08-23T16:00:20Z</time>
      </trkpt>
      <trkpt lat="45.50227" lon="5.78839">
        <ele>776.3</ele>
        <time>2021-08-23T16:00:22Z</time>
      </trkpt>
      <trkpt lat="45.50228" lon="5.78839">
        <ele>776.2</ele>
        <time>2021-08-23T16:00:23Z</time>
      </trkpt>
      <trkpt lat="45.50228" lon="5.78839">
        <ele>776.2</ele>
        <time>2021-08-23T16:00:24Z</time>
      </trkpt>
      <trkpt lat="45.50227" lon="5.78839">
        <ele>776.2</ele>
        <time>2021-08-23T16:00:26Z</time>
      </trkpt>
      <trkpt lat="45.50226" lon="5.7884">
        <ele>776.2</ele>
        <time>2021-08-23T16:00:28Z</time>
      </trkpt>
      <trkpt lat="45.50225" lon="5.78841">
        <ele>776.9</ele>
        <time>2021-08-23T16:00:30Z</time>
      </trkpt>
      <trkpt lat="45.50225" lon="5.78841">
        <ele>776.9</ele>
        <time>2021-08-23T16:00:31Z</time>
      </trkpt>
      <trkpt lat="45.50225" lon="5.78842">
        <ele>776.9</ele>
        <time>2021-08-23T16:00:33Z</time>
      </trkpt>
      <trkpt lat="45.50226" lon="5.78843">
        <ele>776.7</ele>
        <time>2021-08-23T16:00:36Z</time>
      </trkpt>
      <trkpt lat="45.50226" lon="5.78843">
        <ele>776.7</ele>
        <time>2021-08-23T16:00:37Z</time>
      </trkpt>
      <trkpt lat="45.50226" lon="5.78844">
        <ele>776.7</ele>
        <time>2021-08-23T16:00:39Z</time>
      </trkpt>
      <trkpt lat="45.50226" lon="5.78844">
        <ele>776.7</ele>
        <time>2021-08-23T16:00:42Z</time>
      </trkpt>
      <trkpt lat="45.50226" lon="5.78844">
        <ele>776.7</ele>
        <time>2021-08-23T16:00:44Z</time>
      </trkpt>
      <trkpt lat="45.50226" lon="5.78844">
        <ele>776.7</ele>
        <time>2021-08-23T16:00:45Z</time>
      </trkpt>
      <trkpt lat="45.50226" lon="5.78844">
        <ele>776.7</ele>
        <time>2021-08-23T16:00:46Z</time>
      </trkpt>
      <trkpt lat="45.50226" lon="5.78844">
        <ele>776.7</ele>
        <time>2021-08-23T16:00:48Z</time>
      </trkpt>
      <trkpt lat="45.50226" lon="5.78844">
        <ele>776.6</ele>
        <time>2021-08-23T16:00:49Z</time>
      </trkpt>
      <trkpt lat="45.50226" lon="5.78844">
        <ele>776.6</ele>
        <time>2021-08-23T16:00:50Z</time>
      </trkpt>
      <trkpt lat="45.50226" lon="5.78844">
        <ele>776.6</ele>
        <time>2021-08-23T16:00:51Z</time>
      </trkpt>
      <trkpt lat="45.50226" lon="5.78844">
        <ele>776.6</ele>
        <time>2021-08-23T16:00:53Z</time>
      </trkpt>
      <trkpt lat="45.50226" lon="5.78845">
        <ele>776.6</ele>
        <time>2021-08-23T16:00:54Z</time>
      </trkpt>
      <trkpt lat="45.50227" lon="5.78845">
        <ele>776.6</ele>
        <time>2021-08-23T16:00:55Z</time>
      </trkpt>
      <trkpt lat="45.50226" lon="5.78846">
        <ele>776.6</ele>
        <time>2021-08-23T16:00:56Z</time>
      </trkpt>
      <trkpt lat="45.50226" lon="5.78847">
        <ele>777.1</ele>
        <time>2021-08-23T16:00:57Z</time>
      </trkpt>
      <trkpt lat="45.50226" lon="5.78848">
        <ele>777.1</ele>
        <time>2021-08-23T16:00:59Z</time>
      </trkpt>
      <trkpt lat="45.50226" lon="5.78851">
        <ele>777.7</ele>
        <time>2021-08-23T16:01:00Z</time>
      </trkpt>
      <trkpt lat="45.50225" lon="5.78856">
        <ele>779</ele>
        <time>2021-08-23T16:01:02Z</time>
      </trkpt>
      <trkpt lat="45.50222" lon="5.7887">
        <ele>781.4</ele>
        <time>2021-08-23T16:01:03Z</time>
      </trkpt>
      <trkpt lat="45.50221" lon="5.78878">
        <ele>782.5</ele>
        <time>2021-08-23T16:01:05Z</time>
      </trkpt>
      <trkpt lat="45.50219" lon="5.78881">
        <ele>783</ele>
        <time>2021-08-23T16:01:06Z</time>
      </trkpt>
      <trkpt lat="45.50218" lon="5.78884">
        <ele>783.6</ele>
        <time>2021-08-23T16:01:08Z</time>
      </trkpt>
      <trkpt lat="45.50217" lon="5.78889">
        <ele>784.7</ele>
        <time>2021-08-23T16:01:09Z</time>
      </trkpt>
      <trkpt lat="45.50215" lon="5.78892">
        <ele>785.3</ele>
        <time>2021-08-23T16:01:10Z</time>
      </trkpt>
      <trkpt lat="45.50215" lon="5.78894">
        <ele>785.3</ele>
        <time>2021-08-23T16:01:12Z</time>
      </trkpt>
      <trkpt lat="45.50215" lon="5.78894">
        <ele>786</ele>
        <time>2021-08-23T16:01:13Z</time>
      </trkpt>
      <trkpt lat="45.50215" lon="5.78894">
        <ele>785.3</ele>
        <time>2021-08-23T16:01:14Z</time>
      </trkpt>
      <trkpt lat="45.50216" lon="5.78893">
        <ele>785.3</ele>
        <time>2021-08-23T16:01:15Z</time>
      </trkpt>
      <trkpt lat="45.50216" lon="5.78893">
        <ele>785.3</ele>
        <time>2021-08-23T16:01:16Z</time>
      </trkpt>
      <trkpt lat="45.50216" lon="5.78893">
        <ele>785.3</ele>
        <time>2021-08-23T16:01:18Z</time>
      </trkpt>
      <trkpt lat="45.50217" lon="5.78893">
        <ele>785.2</ele>
        <time>2021-08-23T16:01:19Z</time>
      </trkpt>
      <trkpt lat="45.50217" lon="5.78892">
        <ele>784.8</ele>
        <time>2021-08-23T16:01:21Z</time>
      </trkpt>
      <trkpt lat="45.50217" lon="5.78892">
        <ele>784.8</ele>
        <time>2021-08-23T16:01:22Z</time>
      </trkpt>
      <trkpt lat="45.50218" lon="5.78892">
        <ele>784.8</ele>
        <time>2021-08-23T16:01:24Z</time>
      </trkpt>
      <trkpt lat="45.50218" lon="5.78892">
        <ele>784.7</ele>
        <time>2021-08-23T16:01:25Z</time>
      </trkpt>
      <trkpt lat="45.5022" lon="5.78891">
        <ele>784.3</ele>
        <time>2021-08-23T16:01:27Z</time>
      </trkpt>
      <trkpt lat="45.50221" lon="5.78889">
        <ele>783.5</ele>
        <time>2021-08-23T16:01:28Z</time>
      </trkpt>
      <trkpt lat="45.50223" lon="5.78887">
        <ele>783</ele>
        <time>2021-08-23T16:01:30Z</time>
      </trkpt>
      <trkpt lat="45.50224" lon="5.78887">
        <ele>783</ele>
        <time>2021-08-23T16:01:31Z</time>
      </trkpt>
      <trkpt lat="45.50226" lon="5.78886">
        <ele>782.5</ele>
        <time>2021-08-23T16:01:32Z</time>
      </trkpt>
      <trkpt lat="45.50227" lon="5.78886">
        <ele>782.5</ele>
        <time>2021-08-23T16:01:33Z</time>
      </trkpt>
      <trkpt lat="45.50229" lon="5.78885">
        <ele>782</ele>
        <time>2021-08-23T16:01:35Z</time>
      </trkpt>
      <trkpt lat="45.5023" lon="5.78885">
        <ele>782</ele>
        <time>2021-08-23T16:01:36Z</time>
      </trkpt>
      <trkpt lat="45.50231" lon="5.78885">
        <ele>781.3</ele>
        <time>2021-08-23T16:01:38Z</time>
      </trkpt>
      <trkpt lat="45.50231" lon="5.78884">
        <ele>781.3</ele>
        <time>2021-08-23T16:01:39Z</time>
      </trkpt>
      <trkpt lat="45.50232" lon="5.78884">
        <ele>780.8</ele>
        <time>2021-08-23T16:01:41Z</time>
      </trkpt>
      <trkpt lat="45.50232" lon="5.78884">
        <ele>780.8</ele>
        <time>2021-08-23T16:01:42Z</time>
      </trkpt>
      <trkpt lat="45.50233" lon="5.78883">
        <ele>780.8</ele>
        <time>2021-08-23T16:01:43Z</time>
      </trkpt>
      <trkpt lat="45.50234" lon="5.78881">
        <ele>780.8</ele>
        <time>2021-08-23T16:01:45Z</time>
      </trkpt>
      <trkpt lat="45.50237" lon="5.78879">
        <ele>779.6</ele>
        <time>2021-08-23T16:01:46Z</time>
      </trkpt>
      <trkpt lat="45.50238" lon="5.78878">
        <ele>779.3</ele>
        <time>2021-08-23T16:01:47Z</time>
      </trkpt>
      <trkpt lat="45.5024" lon="5.78877">
        <ele>779.2</ele>
        <time>2021-08-23T16:01:48Z</time>
      </trkpt>
      <trkpt lat="45.50242" lon="5.78875">
        <ele>778.1</ele>
        <time>2021-08-23T16:01:50Z</time>
      </trkpt>
      <trkpt lat="45.50243" lon="5.78873">
        <ele>778.1</ele>
        <time>2021-08-23T16:01:51Z</time>
      </trkpt>
      <trkpt lat="45.50245" lon="5.78871">
        <ele>776.8</ele>
        <time>2021-08-23T16:01:53Z</time>
      </trkpt>
      <trkpt lat="45.50245" lon="5.7887">
        <ele>776.8</ele>
        <time>2021-08-23T16:01:54Z</time>
      </trkpt>
      <trkpt lat="45.50246" lon="5.78869">
        <ele>776.8</ele>
        <time>2021-08-23T16:01:55Z</time>
      </trkpt>
      <trkpt lat="45.50246" lon="5.78868">
        <ele>776.8</ele>
        <time>2021-08-23T16:01:56Z</time>
      </trkpt>
      <trkpt lat="45.50247" lon="5.78868">
        <ele>775.4</ele>
        <time>2021-08-23T16:01:57Z</time>
      </trkpt>
      <trkpt lat="45.50248" lon="5.78867">
        <ele>775.4</ele>
        <time>2021-08-23T16:01:59Z</time>
      </trkpt>
      <trkpt lat="45.50249" lon="5.78867">
        <ele>775.4</ele>
        <time>2021-08-23T16:02:00Z</time>
      </trkpt>
      <trkpt lat="45.50251" lon="5.78867">
        <ele>774.8</ele>
        <time>2021-08-23T16:02:02Z</time>
      </trkpt>
      <trkpt lat="45.50256" lon="5.78868">
        <ele>775.3</ele>
        <time>2021-08-23T16:02:04Z</time>
      </trkpt>
      <trkpt lat="45.50258" lon="5.78869">
        <ele>774.8</ele>
        <time>2021-08-23T16:02:05Z</time>
      </trkpt>
      <trkpt lat="45.50259" lon="5.78869">
        <ele>774.4</ele>
        <time>2021-08-23T16:02:06Z</time>
      </trkpt>
      <trkpt lat="45.50261" lon="5.7887">
        <ele>774.4</ele>
        <time>2021-08-23T16:02:07Z</time>
      </trkpt>
      <trkpt lat="45.50262" lon="5.78872">
        <ele>774.4</ele>
        <time>2021-08-23T16:02:09Z</time>
      </trkpt>
      <trkpt lat="45.50262" lon="5.78873">
        <ele>775.4</ele>
        <time>2021-08-23T16:02:10Z</time>
      </trkpt>
      <trkpt lat="45.50262" lon="5.78873">
        <ele>775</ele>
        <time>2021-08-23T16:02:11Z</time>
      </trkpt>
      <trkpt lat="45.50262" lon="5.78872">
        <ele>774</ele>
        <time>2021-08-23T16:02:13Z</time>
      </trkpt>
      <trkpt lat="45.50262" lon="5.78872">
        <ele>774</ele>
        <time>2021-08-23T16:02:14Z</time>
      </trkpt>
      <trkpt lat="45.50262" lon="5.78872">
        <ele>774</ele>
        <time>2021-08-23T16:02:16Z</time>
      </trkpt>
      <trkpt lat="45.50263" lon="5.78871">
        <ele>774</ele>
        <time>2021-08-23T16:02:17Z</time>
      </trkpt>
      <trkpt lat="45.50263" lon="5.78871">
        <ele>774</ele>
        <time>2021-08-23T16:02:18Z</time>
      </trkpt>
      <trkpt lat="45.50263" lon="5.78871">
        <ele>774</ele>
        <time>2021-08-23T16:02:20Z</time>
      </trkpt>
      <trkpt lat="45.50263" lon="5.78871">
        <ele>774</ele>
        <time>2021-08-23T16:02:21Z</time>
      </trkpt>
      <trkpt lat="45.50264" lon="5.78871">
        <ele>773.9</ele>
        <time>2021-08-23T16:02:22Z</time>
      </trkpt>
      <trkpt lat="45.50263" lon="5.78873">
        <ele>774.9</ele>
        <time>2021-08-23T16:02:23Z</time>
      </trkpt>
      <trkpt lat="45.50261" lon="5.78879">
        <ele>776.2</ele>
        <time>2021-08-23T16:02:25Z</time>
      </trkpt>
      <trkpt lat="45.50251" lon="5.78894">
        <ele>781.2</ele>
        <time>2021-08-23T16:02:26Z</time>
      </trkpt>
      <trkpt lat="45.50247" lon="5.78902">
        <ele>782.8</ele>
        <time>2021-08-23T16:02:28Z</time>
      </trkpt>
      <trkpt lat="45.50246" lon="5.78903">
        <ele>783.9</ele>
        <time>2021-08-23T16:02:29Z</time>
      </trkpt>
      <trkpt lat="45.50245" lon="5.78904">
        <ele>783.8</ele>
        <time>2021-08-23T16:02:30Z</time>
      </trkpt>
      <trkpt lat="45.50243" lon="5.78906">
        <ele>784.1</ele>
        <time>2021-08-23T16:02:32Z</time>
      </trkpt>
      <trkpt lat="45.50241" lon="5.78908">
        <ele>785.1</ele>
        <time>2021-08-23T16:02:33Z</time>
      </trkpt>
      <trkpt lat="45.50239" lon="5.7891">
        <ele>785.2</ele>
        <time>2021-08-23T16:02:35Z</time>
      </trkpt>
      <trkpt lat="45.50237" lon="5.78911">
        <ele>786.4</ele>
        <time>2021-08-23T16:02:36Z</time>
      </trkpt>
      <trkpt lat="45.50236" lon="5.78913">
        <ele>786.3</ele>
        <time>2021-08-23T16:02:37Z</time>
      </trkpt>
      <trkpt lat="45.50235" lon="5.78914">
        <ele>786.5</ele>
        <time>2021-08-23T16:02:39Z</time>
      </trkpt>
      <trkpt lat="45.50234" lon="5.78914">
        <ele>786.5</ele>
        <time>2021-08-23T16:02:40Z</time>
      </trkpt>
      <trkpt lat="45.50233" lon="5.78914">
        <ele>786.5</ele>
        <time>2021-08-23T16:02:42Z</time>
      </trkpt>
      <trkpt lat="45.50232" lon="5.78914">
        <ele>786.5</ele>
        <time>2021-08-23T16:02:43Z</time>
      </trkpt>
      <trkpt lat="45.50232" lon="5.78914">
        <ele>786.5</ele>
        <time>2021-08-23T16:02:44Z</time>
      </trkpt>
      <trkpt lat="45.50231" lon="5.78914">
        <ele>786.6</ele>
        <time>2021-08-23T16:02:46Z</time>
      </trkpt>
      <trkpt lat="45.50231" lon="5.78914">
        <ele>786.6</ele>
        <time>2021-08-23T16:02:47Z</time>
      </trkpt>
      <trkpt lat="45.50231" lon="5.78914">
        <ele>786.6</ele>
        <time>2021-08-23T16:02:48Z</time>
      </trkpt>
      <trkpt lat="45.5023" lon="5.78914">
        <ele>786.6</ele>
        <time>2021-08-23T16:02:50Z</time>
      </trkpt>
      <trkpt lat="45.5023" lon="5.78914">
        <ele>786.6</ele>
        <time>2021-08-23T16:02:51Z</time>
      </trkpt>
      <trkpt lat="45.5023" lon="5.78914">
        <ele>786.6</ele>
        <time>2021-08-23T16:02:52Z</time>
      </trkpt>
      <trkpt lat="45.50229" lon="5.78915">
        <ele>786.6</ele>
        <time>2021-08-23T16:02:54Z</time>
      </trkpt>
      <trkpt lat="45.50229" lon="5.78915">
        <ele>787.4</ele>
        <time>2021-08-23T16:02:55Z</time>
      </trkpt>
      <trkpt lat="45.50229" lon="5.78916">
        <ele>787.4</ele>
        <time>2021-08-23T16:02:56Z</time>
      </trkpt>
      <trkpt lat="45.50229" lon="5.78916">
        <ele>787.6</ele>
        <time>2021-08-23T16:02:57Z</time>
      </trkpt>
      <trkpt lat="45.50228" lon="5.78917">
        <ele>787.6</ele>
        <time>2021-08-23T16:02:59Z</time>
      </trkpt>
      <trkpt lat="45.50228" lon="5.78917">
        <ele>787.6</ele>
        <time>2021-08-23T16:03:00Z</time>
      </trkpt>
      <trkpt lat="45.50228" lon="5.78917">
        <ele>787.6</ele>
        <time>2021-08-23T16:03:02Z</time>
      </trkpt>
      <trkpt lat="45.50228" lon="5.78918">
        <ele>787.6</ele>
        <time>2021-08-23T16:03:03Z</time>
      </trkpt>
      <trkpt lat="45.50227" lon="5.78918">
        <ele>787.6</ele>
        <time>2021-08-23T16:03:04Z</time>
      </trkpt>
      <trkpt lat="45.50227" lon="5.78919">
        <ele>787.6</ele>
        <time>2021-08-23T16:03:05Z</time>
      </trkpt>
      <trkpt lat="45.50227" lon="5.78919">
        <ele>787.6</ele>
        <time>2021-08-23T16:03:06Z</time>
      </trkpt>
      <trkpt lat="45.50226" lon="5.78919">
        <ele>787.6</ele>
        <time>2021-08-23T16:03:08Z</time>
      </trkpt>
      <trkpt lat="45.50226" lon="5.7892">
        <ele>788.4</ele>
        <time>2021-08-23T16:03:09Z</time>
      </trkpt>
      <trkpt lat="45.50226" lon="5.7892">
        <ele>788.4</ele>
        <time>2021-08-23T16:03:11Z</time>
      </trkpt>
      <trkpt lat="45.50226" lon="5.78921">
        <ele>788.6</ele>
        <time>2021-08-23T16:03:12Z</time>
      </trkpt>
      <trkpt lat="45.50223" lon="5.78923">
        <ele>788.6</ele>
        <time>2021-08-23T16:03:14Z</time>
      </trkpt>
      <trkpt lat="45.50222" lon="5.78925">
        <ele>789.6</ele>
        <time>2021-08-23T16:03:15Z</time>
      </trkpt>
      <trkpt lat="45.50221" lon="5.78926">
        <ele>789.6</ele>
        <time>2021-08-23T16:03:16Z</time>
      </trkpt>
      <trkpt lat="45.5022" lon="5.78926">
        <ele>789.6</ele>
        <time>2021-08-23T16:03:18Z</time>
      </trkpt>
      <trkpt lat="45.5022" lon="5.78927">
        <ele>789.6</ele>
        <time>2021-08-23T16:03:19Z</time>
      </trkpt>
      <trkpt lat="45.50218" lon="5.7893">
        <ele>790.6</ele>
        <time>2021-08-23T16:03:21Z</time>
      </trkpt>
      <trkpt lat="45.50216" lon="5.78934">
        <ele>791.7</ele>
        <time>2021-08-23T16:03:22Z</time>
      </trkpt>
      <trkpt lat="45.50213" lon="5.7894">
        <ele>792.9</ele>
        <time>2021-08-23T16:03:24Z</time>
      </trkpt>
      <trkpt lat="45.5021" lon="5.78943">
        <ele>794.1</ele>
        <time>2021-08-23T16:03:26Z</time>
      </trkpt>
      <trkpt lat="45.50209" lon="5.78943">
        <ele>794.1</ele>
        <time>2021-08-23T16:03:27Z</time>
      </trkpt>
      <trkpt lat="45.50209" lon="5.78943">
        <ele>794.1</ele>
        <time>2021-08-23T16:03:28Z</time>
      </trkpt>
      <trkpt lat="45.50208" lon="5.78944">
        <ele>794.1</ele>
        <time>2021-08-23T16:03:30Z</time>
      </trkpt>
      <trkpt lat="45.50207" lon="5.78945">
        <ele>794.4</ele>
        <time>2021-08-23T16:03:32Z</time>
      </trkpt>
      <trkpt lat="45.50207" lon="5.78945">
        <ele>795.3</ele>
        <time>2021-08-23T16:03:34Z</time>
      </trkpt>
      <trkpt lat="45.50206" lon="5.78947">
        <ele>795.3</ele>
        <time>2021-08-23T16:03:35Z</time>
      </trkpt>
      <trkpt lat="45.50206" lon="5.78947">
        <ele>795.3</ele>
        <time>2021-08-23T16:03:36Z</time>
      </trkpt>
      <trkpt lat="45.50206" lon="5.78948">
        <ele>795.3</ele>
        <time>2021-08-23T16:03:37Z</time>
      </trkpt>
      <trkpt lat="45.50205" lon="5.78949">
        <ele>795.3</ele>
        <time>2021-08-23T16:03:39Z</time>
      </trkpt>
      <trkpt lat="45.50206" lon="5.78951">
        <ele>796.2</ele>
        <time>2021-08-23T16:03:41Z</time>
      </trkpt>
      <trkpt lat="45.50207" lon="5.78954">
        <ele>797.2</ele>
        <time>2021-08-23T16:03:42Z</time>
      </trkpt>
      <trkpt lat="45.50208" lon="5.78956">
        <ele>796.9</ele>
        <time>2021-08-23T16:03:44Z</time>
      </trkpt>
      <trkpt lat="45.50209" lon="5.78959">
        <ele>797.9</ele>
        <time>2021-08-23T16:03:45Z</time>
      </trkpt>
      <trkpt lat="45.50212" lon="5.78965">
        <ele>798.6</ele>
        <time>2021-08-23T16:03:47Z</time>
      </trkpt>
      <trkpt lat="45.50214" lon="5.78968">
        <ele>799.4</ele>
        <time>2021-08-23T16:03:48Z</time>
      </trkpt>
      <trkpt lat="45.50216" lon="5.78973">
        <ele>800.4</ele>
        <time>2021-08-23T16:03:50Z</time>
      </trkpt>
      <trkpt lat="45.50219" lon="5.78979">
        <ele>801.3</ele>
        <time>2021-08-23T16:03:51Z</time>
      </trkpt>
      <trkpt lat="45.50222" lon="5.78986">
        <ele>804.1</ele>
        <time>2021-08-23T16:03:53Z</time>
      </trkpt>
      <trkpt lat="45.50221" lon="5.78989">
        <ele>805.3</ele>
        <time>2021-08-23T16:03:54Z</time>
      </trkpt>
      <trkpt lat="45.5022" lon="5.78989">
        <ele>805.3</ele>
        <time>2021-08-23T16:03:55Z</time>
      </trkpt>
      <trkpt lat="45.50219" lon="5.7899">
        <ele>805.4</ele>
        <time>2021-08-23T16:03:56Z</time>
      </trkpt>
      <trkpt lat="45.50218" lon="5.78992">
        <ele>805.4</ele>
        <time>2021-08-23T16:03:58Z</time>
      </trkpt>
      <trkpt lat="45.50256" lon="5.78911">
        <ele>784.6</ele>
        <time>2021-08-23T16:05:15Z</time>
      </trkpt>
      <trkpt lat="45.50254" lon="5.78906">
        <ele>782.3</ele>
        <time>2021-08-23T16:05:16Z</time>
      </trkpt>
      <trkpt lat="45.50252" lon="5.78902">
        <ele>781.4</ele>
        <time>2021-08-23T16:05:17Z</time>
      </trkpt>
      <trkpt lat="45.50251" lon="5.78897">
        <ele>780.3</ele>
        <time>2021-08-23T16:05:19Z</time>
      </trkpt>
      <trkpt lat="45.5025" lon="5.78894">
        <ele>780.3</ele>
        <time>2021-08-23T16:05:20Z</time>
      </trkpt>
      <trkpt lat="45.5025" lon="5.78893">
        <ele>779.3</ele>
        <time>2021-08-23T16:05:21Z</time>
      </trkpt>
      <trkpt lat="45.5025" lon="5.78892">
        <ele>779.6</ele>
        <time>2021-08-23T16:05:22Z</time>
      </trkpt>
      <trkpt lat="45.50248" lon="5.78886">
        <ele>778.6</ele>
        <time>2021-08-23T16:05:24Z</time>
      </trkpt>
      <trkpt lat="45.50247" lon="5.78884">
        <ele>777.7</ele>
        <time>2021-08-23T16:05:25Z</time>
      </trkpt>
      <trkpt lat="45.50246" lon="5.78882">
        <ele>778</ele>
        <time>2021-08-23T16:05:27Z</time>
      </trkpt>
      <trkpt lat="45.50326" lon="5.78733">
        <ele>741.3</ele>
        <time>2021-08-23T16:05:50Z</time>
      </trkpt>
      <trkpt lat="45.50332" lon="5.78726">
        <ele>738.9</ele>
        <time>2021-08-23T16:05:51Z</time>
      </trkpt>
      <trkpt lat="45.50348" lon="5.78702">
        <ele>733.2</ele>
        <time>2021-08-23T16:05:53Z</time>
      </trkpt>
      <trkpt lat="45.50364" lon="5.78681">
        <ele>727.6</ele>
        <time>2021-08-23T16:05:55Z</time>
      </trkpt>
      <trkpt lat="45.50368" lon="5.78677">
        <ele>725.9</ele>
        <time>2021-08-23T16:05:57Z</time>
      </trkpt>
      <trkpt lat="45.50373" lon="5.78672">
        <ele>724.9</ele>
        <time>2021-08-23T16:05:59Z</time>
      </trkpt>
      <trkpt lat="45.50373" lon="5.78666">
        <ele>723.7</ele>
        <time>2021-08-23T16:06:00Z</time>
      </trkpt>
      <trkpt lat="45.50374" lon="5.78663">
        <ele>723.7</ele>
        <time>2021-08-23T16:06:01Z</time>
      </trkpt>
      <trkpt lat="45.50373" lon="5.78655">
        <ele>723.4</ele>
        <time>2021-08-23T16:06:02Z</time>
      </trkpt>
      <trkpt lat="45.50374" lon="5.78649">
        <ele>723.2</ele>
        <time>2021-08-23T16:06:03Z</time>
      </trkpt>
      <trkpt lat="45.50377" lon="5.78636">
        <ele>722.4</ele>
        <time>2021-08-23T16:06:05Z</time>
      </trkpt>
      <trkpt lat="45.50416" lon="5.7842">
        <ele>700</ele>
        <time>2021-08-23T16:06:24Z</time>
      </trkpt>
      <trkpt lat="45.5044" lon="5.78377">
        <ele>693.6</ele>
        <time>2021-08-23T16:06:26Z</time>
      </trkpt>
      <trkpt lat="45.50463" lon="5.78348">
        <ele>688.6</ele>
        <time>2021-08-23T16:06:28Z</time>
      </trkpt>
      <trkpt lat="45.50471" lon="5.78337">
        <ele>686.8</ele>
        <time>2021-08-23T16:06:29Z</time>
      </trkpt>
      <trkpt lat="45.50488" lon="5.78318">
        <ele>683.4</ele>
        <time>2021-08-23T16:06:31Z</time>
      </trkpt>
      <trkpt lat="45.50496" lon="5.783">
        <ele>681</ele>
        <time>2021-08-23T16:06:33Z</time>
      </trkpt>
      <trkpt lat="45.50502" lon="5.7829">
        <ele>679.3</ele>
        <time>2021-08-23T16:06:34Z</time>
      </trkpt>
      <trkpt lat="45.50509" lon="5.78278">
        <ele>677.4</ele>
        <time>2021-08-23T16:06:35Z</time>
      </trkpt>
      <trkpt lat="45.5052" lon="5.78249">
        <ele>673.2</ele>
        <time>2021-08-23T16:06:37Z</time>
      </trkpt>
      <trkpt lat="45.50526" lon="5.78233">
        <ele>670.7</ele>
        <time>2021-08-23T16:06:38Z</time>
      </trkpt>
      <trkpt lat="45.50538" lon="5.78198">
        <ele>665.5</ele>
        <time>2021-08-23T16:06:40Z</time>
      </trkpt>
      <trkpt lat="45.50544" lon="5.78179">
        <ele>662.7</ele>
        <time>2021-08-23T16:06:41Z</time>
      </trkpt>
      <trkpt lat="45.50547" lon="5.78158">
        <ele>659.9</ele>
        <time>2021-08-23T16:06:42Z</time>
      </trkpt>
      <trkpt lat="45.50556" lon="5.78113">
        <ele>654.3</ele>
        <time>2021-08-23T16:06:44Z</time>
      </trkpt>
      <trkpt lat="45.50558" lon="5.7809">
        <ele>651.8</ele>
        <time>2021-08-23T16:06:45Z</time>
      </trkpt>
      <trkpt lat="45.50563" lon="5.78046">
        <ele>646.8</ele>
        <time>2021-08-23T16:06:47Z</time>
      </trkpt>
      <trkpt lat="45.50571" lon="5.78006">
        <ele>642.3</ele>
        <time>2021-08-23T16:06:49Z</time>
      </trkpt>
      <trkpt lat="45.50577" lon="5.77972">
        <ele>638.9</ele>
        <time>2021-08-23T16:06:51Z</time>
      </trkpt>
      <trkpt lat="45.50581" lon="5.77955">
        <ele>637.3</ele>
        <time>2021-08-23T16:06:52Z</time>
      </trkpt>
      <trkpt lat="45.50585" lon="5.77941">
        <ele>636</ele>
        <time>2021-08-23T16:06:53Z</time>
      </trkpt>
      <trkpt lat="45.50592" lon="5.77917">
        <ele>633.8</ele>
        <time>2021-08-23T16:06:55Z</time>
      </trkpt>
      <trkpt lat="45.50597" lon="5.77906">
        <ele>632.6</ele>
        <time>2021-08-23T16:06:56Z</time>
      </trkpt>
      <trkpt lat="45.50606" lon="5.77883">
        <ele>629.9</ele>
        <time>2021-08-23T16:06:58Z</time>
      </trkpt>
      <trkpt lat="45.50616" lon="5.77857">
        <ele>626.7</ele>
        <time>2021-08-23T16:07:00Z</time>
      </trkpt>
      <trkpt lat="45.50625" lon="5.77832">
        <ele>623.8</ele>
        <time>2021-08-23T16:07:02Z</time>
      </trkpt>
      <trkpt lat="45.50629" lon="5.77811">
        <ele>621.3</ele>
        <time>2021-08-23T16:07:04Z</time>
      </trkpt>
      <trkpt lat="45.50631" lon="5.77802">
        <ele>620.3</ele>
        <time>2021-08-23T16:07:05Z</time>
      </trkpt>
      <trkpt lat="45.50631" lon="5.77794">
        <ele>619.5</ele>
        <time>2021-08-23T16:07:06Z</time>
      </trkpt>
      <trkpt lat="45.50629" lon="5.77782">
        <ele>618.3</ele>
        <time>2021-08-23T16:07:08Z</time>
      </trkpt>
      <trkpt lat="45.50628" lon="5.77774">
        <ele>617.6</ele>
        <time>2021-08-23T16:07:10Z</time>
      </trkpt>
      <trkpt lat="45.50629" lon="5.77769">
        <ele>617.2</ele>
        <time>2021-08-23T16:07:11Z</time>
      </trkpt>
      <trkpt lat="45.50633" lon="5.77758">
        <ele>616.1</ele>
        <time>2021-08-23T16:07:13Z</time>
      </trkpt>
      <trkpt lat="45.50634" lon="5.77753">
        <ele>615.6</ele>
        <time>2021-08-23T16:07:14Z</time>
      </trkpt>
      <trkpt lat="45.50636" lon="5.77748">
        <ele>615.1</ele>
        <time>2021-08-23T16:07:15Z</time>
      </trkpt>
      <trkpt lat="45.5064" lon="5.77745">
        <ele>614.5</ele>
        <time>2021-08-23T16:07:17Z</time>
      </trkpt>
      <trkpt lat="45.50641" lon="5.77744">
        <ele>614.3</ele>
        <time>2021-08-23T16:07:18Z</time>
      </trkpt>
      <trkpt lat="45.50642" lon="5.77743">
        <ele>614.1</ele>
        <time>2021-08-23T16:07:19Z</time>
      </trkpt>
      <trkpt lat="45.50644" lon="5.77742">
        <ele>613.8</ele>
        <time>2021-08-23T16:07:21Z</time>
      </trkpt>
      <trkpt lat="45.50645" lon="5.77742">
        <ele>613.7</ele>
        <time>2021-08-23T16:07:22Z</time>
      </trkpt>
      <trkpt lat="45.50646" lon="5.7774">
        <ele>613.5</ele>
        <time>2021-08-23T16:07:23Z</time>
      </trkpt>
      <trkpt lat="45.50646" lon="5.77738">
        <ele>613.3</ele>
        <time>2021-08-23T16:07:24Z</time>
      </trkpt>
      <trkpt lat="45.50648" lon="5.77733">
        <ele>612.8</ele>
        <time>2021-08-23T16:07:25Z</time>
      </trkpt>
      <trkpt lat="45.5065" lon="5.77728">
        <ele>612.9</ele>
        <time>2021-08-23T16:07:27Z</time>
      </trkpt>
      <trkpt lat="45.50653" lon="5.77726">
        <ele>612.9</ele>
        <time>2021-08-23T16:07:29Z</time>
      </trkpt>
      <trkpt lat="45.50653" lon="5.77725">
        <ele>612.9</ele>
        <time>2021-08-23T16:07:30Z</time>
      </trkpt>
      <trkpt lat="45.50651" lon="5.77721">
        <ele>613</ele>
        <time>2021-08-23T16:07:32Z</time>
      </trkpt>
      <trkpt lat="45.50645" lon="5.77717">
        <ele>613</ele>
        <time>2021-08-23T16:07:34Z</time>
      </trkpt>
      <trkpt lat="45.5064" lon="5.77712">
        <ele>613.1</ele>
        <time>2021-08-23T16:07:36Z</time>
      </trkpt>
      <trkpt lat="45.50637" lon="5.77709">
        <ele>613</ele>
        <time>2021-08-23T16:07:37Z</time>
      </trkpt>
      <trkpt lat="45.5063" lon="5.77705">
        <ele>613</ele>
        <time>2021-08-23T16:07:39Z</time>
      </trkpt>
      <trkpt lat="45.50626" lon="5.777">
        <ele>612.9</ele>
        <time>2021-08-23T16:07:40Z</time>
      </trkpt>
      <trkpt lat="45.5062" lon="5.77694">
        <ele>612.7</ele>
        <time>2021-08-23T16:07:42Z</time>
      </trkpt>
      <trkpt lat="45.50615" lon="5.77687">
        <ele>612.5</ele>
        <time>2021-08-23T16:07:43Z</time>
      </trkpt>
      <trkpt lat="45.50609" lon="5.77681">
        <ele>612.3</ele>
        <time>2021-08-23T16:07:45Z</time>
      </trkpt>
      <trkpt lat="45.50607" lon="5.77676">
        <ele>612.2</ele>
        <time>2021-08-23T16:07:46Z</time>
      </trkpt>
      <trkpt lat="45.50605" lon="5.77669">
        <ele>612</ele>
        <time>2021-08-23T16:07:47Z</time>
      </trkpt>
      <trkpt lat="45.50601" lon="5.77655">
        <ele>611.6</ele>
        <time>2021-08-23T16:07:49Z</time>
      </trkpt>
      <trkpt lat="45.50599" lon="5.77648">
        <ele>611.4</ele>
        <time>2021-08-23T16:07:50Z</time>
      </trkpt>
      <trkpt lat="45.50598" lon="5.77641">
        <ele>611.3</ele>
        <time>2021-08-23T16:07:51Z</time>
      </trkpt>
      <trkpt lat="45.50596" lon="5.77634">
        <ele>611.1</ele>
        <time>2021-08-23T16:07:52Z</time>
      </trkpt>
      <trkpt lat="45.50594" lon="5.77619">
        <ele>610.9</ele>
        <time>2021-08-23T16:07:54Z</time>
      </trkpt>
      <trkpt lat="45.50594" lon="5.77611">
        <ele>610.8</ele>
        <time>2021-08-23T16:07:55Z</time>
      </trkpt>
      <trkpt lat="45.50593" lon="5.77602">
        <ele>610.8</ele>
        <time>2021-08-23T16:07:56Z</time>
      </trkpt>
      <trkpt lat="45.50593" lon="5.77586">
        <ele>610.7</ele>
        <time>2021-08-23T16:07:58Z</time>
      </trkpt>
      <trkpt lat="45.50593" lon="5.77577">
        <ele>610.7</ele>
        <time>2021-08-23T16:07:59Z</time>
      </trkpt>
      <trkpt lat="45.50591" lon="5.77561">
        <ele>610.7</ele>
        <time>2021-08-23T16:08:01Z</time>
      </trkpt>
      <trkpt lat="45.50589" lon="5.77553">
        <ele>610.7</ele>
        <time>2021-08-23T16:08:02Z</time>
      </trkpt>
      <trkpt lat="45.50585" lon="5.77545">
        <ele>610.8</ele>
        <time>2021-08-23T16:08:03Z</time>
      </trkpt>
      <trkpt lat="45.50579" lon="5.77531">
        <ele>610.8</ele>
        <time>2021-08-23T16:08:05Z</time>
      </trkpt>
      <trkpt lat="45.50574" lon="5.77523">
        <ele>610.8</ele>
        <time>2021-08-23T16:08:06Z</time>
      </trkpt>
      <trkpt lat="45.50564" lon="5.77506">
        <ele>610.9</ele>
        <time>2021-08-23T16:08:08Z</time>
      </trkpt>
      <trkpt lat="45.50557" lon="5.77488">
        <ele>611.1</ele>
        <time>2021-08-23T16:08:10Z</time>
      </trkpt>
      <trkpt lat="45.5055" lon="5.77472">
        <ele>611.4</ele>
        <time>2021-08-23T16:08:12Z</time>
      </trkpt>
      <trkpt lat="45.50544" lon="5.77457">
        <ele>611.9</ele>
        <time>2021-08-23T16:08:14Z</time>
      </trkpt>
      <trkpt lat="45.50542" lon="5.77451">
        <ele>612.1</ele>
        <time>2021-08-23T16:08:15Z</time>
      </trkpt>
      <trkpt lat="45.50534" lon="5.77441">
        <ele>612.6</ele>
        <time>2021-08-23T16:08:17Z</time>
      </trkpt>
      <trkpt lat="45.50528" lon="5.77437">
        <ele>612.9</ele>
        <time>2021-08-23T16:08:18Z</time>
      </trkpt>
      <trkpt lat="45.50522" lon="5.77434">
        <ele>613.1</ele>
        <time>2021-08-23T16:08:19Z</time>
      </trkpt>
      <trkpt lat="45.50517" lon="5.77432">
        <ele>613.3</ele>
        <time>2021-08-23T16:08:20Z</time>
      </trkpt>
      <trkpt lat="45.50508" lon="5.7743">
        <ele>613.6</ele>
        <time>2021-08-23T16:08:22Z</time>
      </trkpt>
      <trkpt lat="45.50504" lon="5.77429">
        <ele>613.6</ele>
        <time>2021-08-23T16:08:23Z</time>
      </trkpt>
      <trkpt lat="45.50499" lon="5.77427">
        <ele>613.6</ele>
        <time>2021-08-23T16:08:24Z</time>
      </trkpt>
      <trkpt lat="45.50491" lon="5.77425">
        <ele>613.6</ele>
        <time>2021-08-23T16:08:26Z</time>
      </trkpt>
      <trkpt lat="45.50482" lon="5.77425">
        <ele>613.5</ele>
        <time>2021-08-23T16:08:28Z</time>
      </trkpt>
      <trkpt lat="45.5048" lon="5.77425">
        <ele>613.5</ele>
        <time>2021-08-23T16:08:29Z</time>
      </trkpt>
      <trkpt lat="45.50475" lon="5.77426">
        <ele>613.4</ele>
        <time>2021-08-23T16:08:31Z</time>
      </trkpt>
      <trkpt lat="45.50473" lon="5.77425">
        <ele>613.3</ele>
        <time>2021-08-23T16:08:32Z</time>
      </trkpt>
      <trkpt lat="45.50472" lon="5.77425">
        <ele>613.3</ele>
        <time>2021-08-23T16:08:34Z</time>
      </trkpt>
      <trkpt lat="45.50471" lon="5.77425">
        <ele>613.2</ele>
        <time>2021-08-23T16:08:35Z</time>
      </trkpt>
      <trkpt lat="45.50471" lon="5.77425">
        <ele>613.2</ele>
        <time>2021-08-23T16:08:36Z</time>
      </trkpt>
      <trkpt lat="45.50472" lon="5.77421">
        <ele>613.2</ele>
        <time>2021-08-23T16:08:37Z</time>
      </trkpt>
      <trkpt lat="45.5047" lon="5.77419">
        <ele>613.1</ele>
        <time>2021-08-23T16:08:38Z</time>
      </trkpt>
      <trkpt lat="45.50469" lon="5.77418">
        <ele>613.1</ele>
        <time>2021-08-23T16:08:40Z</time>
      </trkpt>
      <trkpt lat="45.50468" lon="5.77418">
        <ele>613</ele>
        <time>2021-08-23T16:08:41Z</time>
      </trkpt>
      <trkpt lat="45.50464" lon="5.77416">
        <ele>612.9</ele>
        <time>2021-08-23T16:08:42Z</time>
      </trkpt>
      <trkpt lat="45.50448" lon="5.77409">
        <ele>612.3</ele>
        <time>2021-08-23T16:08:44Z</time>
      </trkpt>
      <trkpt lat="45.50434" lon="5.77407">
        <ele>611.8</ele>
        <time>2021-08-23T16:08:46Z</time>
      </trkpt>
      <trkpt lat="45.50419" lon="5.77409">
        <ele>611.1</ele>
        <time>2021-08-23T16:08:48Z</time>
      </trkpt>
      <trkpt lat="45.50412" lon="5.77412">
        <ele>610.7</ele>
        <time>2021-08-23T16:08:49Z</time>
      </trkpt>
      <trkpt lat="45.50398" lon="5.77417">
        <ele>609.8</ele>
        <time>2021-08-23T16:08:51Z</time>
      </trkpt>
      <trkpt lat="45.50388" lon="5.77422">
        <ele>609.2</ele>
        <time>2021-08-23T16:08:52Z</time>
      </trkpt>
      <trkpt lat="45.50377" lon="5.77428">
        <ele>608.6</ele>
        <time>2021-08-23T16:08:53Z</time>
      </trkpt>
      <trkpt lat="45.50366" lon="5.77433">
        <ele>608</ele>
        <time>2021-08-23T16:08:54Z</time>
      </trkpt>
      <trkpt lat="45.50345" lon="5.77437">
        <ele>607.1</ele>
        <time>2021-08-23T16:08:56Z</time>
      </trkpt>
      <trkpt lat="45.50336" lon="5.77439">
        <ele>606.7</ele>
        <time>2021-08-23T16:08:57Z</time>
      </trkpt>
      <trkpt lat="45.5032" lon="5.77447">
        <ele>605.8</ele>
        <time>2021-08-23T16:08:59Z</time>
      </trkpt>
      <trkpt lat="45.50312" lon="5.7745">
        <ele>605.4</ele>
        <time>2021-08-23T16:09:00Z</time>
      </trkpt>
      <trkpt lat="45.50297" lon="5.7746">
        <ele>604.6</ele>
        <time>2021-08-23T16:09:02Z</time>
      </trkpt>
      <trkpt lat="45.50281" lon="5.77469">
        <ele>603.9</ele>
        <time>2021-08-23T16:09:04Z</time>
      </trkpt>
      <trkpt lat="45.50265" lon="5.7748">
        <ele>603.2</ele>
        <time>2021-08-23T16:09:06Z</time>
      </trkpt>
      <trkpt lat="45.50251" lon="5.7749">
        <ele>602.8</ele>
        <time>2021-08-23T16:09:08Z</time>
      </trkpt>
      <trkpt lat="45.50238" lon="5.77497">
        <ele>602.6</ele>
        <time>2021-08-23T16:09:10Z</time>
      </trkpt>
      <trkpt lat="45.50231" lon="5.775">
        <ele>602.5</ele>
        <time>2021-08-23T16:09:11Z</time>
      </trkpt>
      <trkpt lat="45.50218" lon="5.77504">
        <ele>602.4</ele>
        <time>2021-08-23T16:09:13Z</time>
      </trkpt>
      <trkpt lat="45.50204" lon="5.77496">
        <ele>602.3</ele>
        <time>2021-08-23T16:09:15Z</time>
      </trkpt>
      <trkpt lat="45.50197" lon="5.77491">
        <ele>602.3</ele>
        <time>2021-08-23T16:09:16Z</time>
      </trkpt>
      <trkpt lat="45.5019" lon="5.77488">
        <ele>602.3</ele>
        <time>2021-08-23T16:09:17Z</time>
      </trkpt>
      <trkpt lat="45.50184" lon="5.77484">
        <ele>602.2</ele>
        <time>2021-08-23T16:09:18Z</time>
      </trkpt>
      <trkpt lat="45.50173" lon="5.77474">
        <ele>602.2</ele>
        <time>2021-08-23T16:09:20Z</time>
      </trkpt>
      <trkpt lat="45.50168" lon="5.77468">
        <ele>602.2</ele>
        <time>2021-08-23T16:09:21Z</time>
      </trkpt>
      <trkpt lat="45.50157" lon="5.77456">
        <ele>602.3</ele>
        <time>2021-08-23T16:09:23Z</time>
      </trkpt>
      <trkpt lat="45.50152" lon="5.77451">
        <ele>602.1</ele>
        <time>2021-08-23T16:09:24Z</time>
      </trkpt>
      <trkpt lat="45.50149" lon="5.77445">
        <ele>601.9</ele>
        <time>2021-08-23T16:09:25Z</time>
      </trkpt>
      <trkpt lat="45.50145" lon="5.77438">
        <ele>601.6</ele>
        <time>2021-08-23T16:09:26Z</time>
      </trkpt>
      <trkpt lat="45.50136" lon="5.77424">
        <ele>600.9</ele>
        <time>2021-08-23T16:09:28Z</time>
      </trkpt>
      <trkpt lat="45.50131" lon="5.77417">
        <ele>600.5</ele>
        <time>2021-08-23T16:09:29Z</time>
      </trkpt>
      <trkpt lat="45.50121" lon="5.77401">
        <ele>599.6</ele>
        <time>2021-08-23T16:09:31Z</time>
      </trkpt>
      <trkpt lat="45.50111" lon="5.77383">
        <ele>598.5</ele>
        <time>2021-08-23T16:09:33Z</time>
      </trkpt>
      <trkpt lat="45.50106" lon="5.77373">
        <ele>597.9</ele>
        <time>2021-08-23T16:09:34Z</time>
      </trkpt>
      <trkpt lat="45.50097" lon="5.77355">
        <ele>596.8</ele>
        <time>2021-08-23T16:09:36Z</time>
      </trkpt>
      <trkpt lat="45.50087" lon="5.77337">
        <ele>595.6</ele>
        <time>2021-08-23T16:09:38Z</time>
      </trkpt>
      <trkpt lat="45.50075" lon="5.77319">
        <ele>594.3</ele>
        <time>2021-08-23T16:09:40Z</time>
      </trkpt>
      <trkpt lat="45.50068" lon="5.77311">
        <ele>593.9</ele>
        <time>2021-08-23T16:09:41Z</time>
      </trkpt>
      <trkpt lat="45.50053" lon="5.77298">
        <ele>593.3</ele>
        <time>2021-08-23T16:09:43Z</time>
      </trkpt>
      <trkpt lat="45.50038" lon="5.77286">
        <ele>592.9</ele>
        <time>2021-08-23T16:09:45Z</time>
      </trkpt>
      <trkpt lat="45.5003" lon="5.7728">
        <ele>592.8</ele>
        <time>2021-08-23T16:09:46Z</time>
      </trkpt>
      <trkpt lat="45.50016" lon="5.77271">
        <ele>592.5</ele>
        <time>2021-08-23T16:09:48Z</time>
      </trkpt>
      <trkpt lat="45.50001" lon="5.77261">
        <ele>592.2</ele>
        <time>2021-08-23T16:09:50Z</time>
      </trkpt>
      <trkpt lat="45.49988" lon="5.77252">
        <ele>591.8</ele>
        <time>2021-08-23T16:09:52Z</time>
      </trkpt>
      <trkpt lat="45.49981" lon="5.77248">
        <ele>591.4</ele>
        <time>2021-08-23T16:09:53Z</time>
      </trkpt>
      <trkpt lat="45.49968" lon="5.77241">
        <ele>590.6</ele>
        <time>2021-08-23T16:09:55Z</time>
      </trkpt>
      <trkpt lat="45.4996" lon="5.77238">
        <ele>590.2</ele>
        <time>2021-08-23T16:09:56Z</time>
      </trkpt>
      <trkpt lat="45.49947" lon="5.77229">
        <ele>589.3</ele>
        <time>2021-08-23T16:09:58Z</time>
      </trkpt>
      <trkpt lat="45.4994" lon="5.77224">
        <ele>588.9</ele>
        <time>2021-08-23T16:09:59Z</time>
      </trkpt>
      <trkpt lat="45.49927" lon="5.77211">
        <ele>588</ele>
        <time>2021-08-23T16:10:01Z</time>
      </trkpt>
      <trkpt lat="45.49921" lon="5.77205">
        <ele>587.5</ele>
        <time>2021-08-23T16:10:02Z</time>
      </trkpt>
      <trkpt lat="45.4991" lon="5.77191">
        <ele>586.6</ele>
        <time>2021-08-23T16:10:04Z</time>
      </trkpt>
      <trkpt lat="45.49903" lon="5.77185">
        <ele>586.2</ele>
        <time>2021-08-23T16:10:05Z</time>
      </trkpt>
      <trkpt lat="45.49889" lon="5.77176">
        <ele>585.3</ele>
        <time>2021-08-23T16:10:07Z</time>
      </trkpt>
      <trkpt lat="45.49882" lon="5.77172">
        <ele>584.9</ele>
        <time>2021-08-23T16:10:08Z</time>
      </trkpt>
      <trkpt lat="45.49876" lon="5.77166">
        <ele>584.5</ele>
        <time>2021-08-23T16:10:09Z</time>
      </trkpt>
      <trkpt lat="45.49871" lon="5.77161">
        <ele>584.1</ele>
        <time>2021-08-23T16:10:10Z</time>
      </trkpt>
      <trkpt lat="45.4986" lon="5.77153">
        <ele>583.2</ele>
        <time>2021-08-23T16:10:12Z</time>
      </trkpt>
      <trkpt lat="45.49849" lon="5.77144">
        <ele>582.3</ele>
        <time>2021-08-23T16:10:14Z</time>
      </trkpt>
      <trkpt lat="45.49835" lon="5.77126">
        <ele>580.9</ele>
        <time>2021-08-23T16:10:16Z</time>
      </trkpt>
      <trkpt lat="45.49827" lon="5.77117">
        <ele>580.1</ele>
        <time>2021-08-23T16:10:17Z</time>
      </trkpt>
      <trkpt lat="45.49819" lon="5.77111">
        <ele>579.4</ele>
        <time>2021-08-23T16:10:18Z</time>
      </trkpt>
      <trkpt lat="45.49801" lon="5.77105">
        <ele>578.1</ele>
        <time>2021-08-23T16:10:20Z</time>
      </trkpt>
      <trkpt lat="45.49791" lon="5.77105">
        <ele>577.6</ele>
        <time>2021-08-23T16:10:21Z</time>
      </trkpt>
      <trkpt lat="45.49772" lon="5.77098">
        <ele>576.7</ele>
        <time>2021-08-23T16:10:23Z</time>
      </trkpt>
      <trkpt lat="45.49763" lon="5.77094">
        <ele>576.3</ele>
        <time>2021-08-23T16:10:24Z</time>
      </trkpt>
      <trkpt lat="45.49755" lon="5.77088">
        <ele>576</ele>
        <time>2021-08-23T16:10:25Z</time>
      </trkpt>
      <trkpt lat="45.49747" lon="5.77081">
        <ele>575.7</ele>
        <time>2021-08-23T16:10:26Z</time>
      </trkpt>
      <trkpt lat="45.49732" lon="5.77064">
        <ele>575</ele>
        <time>2021-08-23T16:10:28Z</time>
      </trkpt>
      <trkpt lat="45.49724" lon="5.77055">
        <ele>574.7</ele>
        <time>2021-08-23T16:10:29Z</time>
      </trkpt>
      <trkpt lat="45.49717" lon="5.77046">
        <ele>574.4</ele>
        <time>2021-08-23T16:10:30Z</time>
      </trkpt>
      <trkpt lat="45.49705" lon="5.77028">
        <ele>573.9</ele>
        <time>2021-08-23T16:10:32Z</time>
      </trkpt>
      <trkpt lat="45.49694" lon="5.77009">
        <ele>573.6</ele>
        <time>2021-08-23T16:10:34Z</time>
      </trkpt>
      <trkpt lat="45.49688" lon="5.76999">
        <ele>573.5</ele>
        <time>2021-08-23T16:10:35Z</time>
      </trkpt>
      <trkpt lat="45.49676" lon="5.76985">
        <ele>573.5</ele>
        <time>2021-08-23T16:10:37Z</time>
      </trkpt>
      <trkpt lat="45.49666" lon="5.76972">
        <ele>573.7</ele>
        <time>2021-08-23T16:10:39Z</time>
      </trkpt>
      <trkpt lat="45.49653" lon="5.76963">
        <ele>574</ele>
        <time>2021-08-23T16:10:41Z</time>
      </trkpt>
      <trkpt lat="45.49644" lon="5.7696">
        <ele>574.2</ele>
        <time>2021-08-23T16:10:42Z</time>
      </trkpt>
      <trkpt lat="45.49628" lon="5.76956">
        <ele>574.5</ele>
        <time>2021-08-23T16:10:44Z</time>
      </trkpt>
      <trkpt lat="45.49622" lon="5.76956">
        <ele>574.7</ele>
        <time>2021-08-23T16:10:45Z</time>
      </trkpt>
      <trkpt lat="45.49614" lon="5.76958">
        <ele>574.9</ele>
        <time>2021-08-23T16:10:46Z</time>
      </trkpt>
      <trkpt lat="45.49596" lon="5.76961">
        <ele>575.3</ele>
        <time>2021-08-23T16:10:48Z</time>
      </trkpt>
      <trkpt lat="45.49584" lon="5.76963">
        <ele>575.6</ele>
        <time>2021-08-23T16:10:50Z</time>
      </trkpt>
      <trkpt lat="45.49572" lon="5.76966">
        <ele>575.8</ele>
        <time>2021-08-23T16:10:52Z</time>
      </trkpt>
      <trkpt lat="45.49568" lon="5.76966">
        <ele>575.9</ele>
        <time>2021-08-23T16:10:53Z</time>
      </trkpt>
      <trkpt lat="45.49558" lon="5.7697">
        <ele>576.2</ele>
        <time>2021-08-23T16:10:55Z</time>
      </trkpt>
      <trkpt lat="45.49547" lon="5.76974">
        <ele>576.5</ele>
        <time>2021-08-23T16:10:57Z</time>
      </trkpt>
      <trkpt lat="45.49538" lon="5.76978">
        <ele>576.8</ele>
        <time>2021-08-23T16:10:59Z</time>
      </trkpt>
      <trkpt lat="45.49533" lon="5.76979">
        <ele>576.9</ele>
        <time>2021-08-23T16:11:00Z</time>
      </trkpt>
      <trkpt lat="45.49526" lon="5.76982">
        <ele>577.1</ele>
        <time>2021-08-23T16:11:02Z</time>
      </trkpt>
      <trkpt lat="45.49517" lon="5.76986">
        <ele>577.3</ele>
        <time>2021-08-23T16:11:04Z</time>
      </trkpt>
      <trkpt lat="45.49513" lon="5.76988">
        <ele>577.3</ele>
        <time>2021-08-23T16:11:05Z</time>
      </trkpt>
      <trkpt lat="45.49505" lon="5.76995">
        <ele>577.4</ele>
        <time>2021-08-23T16:11:07Z</time>
      </trkpt>
      <trkpt lat="45.49502" lon="5.76997">
        <ele>577.4</ele>
        <time>2021-08-23T16:11:08Z</time>
      </trkpt>
      <trkpt lat="45.49497" lon="5.76996">
        <ele>577.4</ele>
        <time>2021-08-23T16:11:10Z</time>
      </trkpt>
      <trkpt lat="45.49495" lon="5.76997">
        <ele>577.4</ele>
        <time>2021-08-23T16:11:11Z</time>
      </trkpt>
      <trkpt lat="45.49489" lon="5.77001">
        <ele>577.4</ele>
        <time>2021-08-23T16:11:12Z</time>
      </trkpt>
      <trkpt lat="45.4948" lon="5.77007">
        <ele>577.2</ele>
        <time>2021-08-23T16:11:14Z</time>
      </trkpt>
      <trkpt lat="45.49474" lon="5.77011">
        <ele>576.9</ele>
        <time>2021-08-23T16:11:15Z</time>
      </trkpt>
      <trkpt lat="45.49465" lon="5.77013">
        <ele>576.6</ele>
        <time>2021-08-23T16:11:17Z</time>
      </trkpt>
      <trkpt lat="45.4946" lon="5.77015">
        <ele>576.3</ele>
        <time>2021-08-23T16:11:18Z</time>
      </trkpt>
      <trkpt lat="45.49457" lon="5.77015">
        <ele>576.2</ele>
        <time>2021-08-23T16:11:19Z</time>
      </trkpt>
      <trkpt lat="45.49452" lon="5.77017">
        <ele>576</ele>
        <time>2021-08-23T16:11:20Z</time>
      </trkpt>
      <trkpt lat="45.49445" lon="5.77019">
        <ele>575.7</ele>
        <time>2021-08-23T16:11:22Z</time>
      </trkpt>
      <trkpt lat="45.49441" lon="5.7702">
        <ele>575.5</ele>
        <time>2021-08-23T16:11:23Z</time>
      </trkpt>
      <trkpt lat="45.49437" lon="5.7702">
        <ele>575.3</ele>
        <time>2021-08-23T16:11:25Z</time>
      </trkpt>
      <trkpt lat="45.49429" lon="5.77024">
        <ele>574.9</ele>
        <time>2021-08-23T16:11:26Z</time>
      </trkpt>
      <trkpt lat="45.49419" lon="5.77028">
        <ele>574.4</ele>
        <time>2021-08-23T16:11:27Z</time>
      </trkpt>
      <trkpt lat="45.49409" lon="5.7703">
        <ele>574</ele>
        <time>2021-08-23T16:11:29Z</time>
      </trkpt>
      <trkpt lat="45.49367" lon="5.77044">
        <ele>571.6</ele>
        <time>2021-08-23T16:11:33Z</time>
      </trkpt>
      <trkpt lat="45.49356" lon="5.77048">
        <ele>571</ele>
        <time>2021-08-23T16:11:34Z</time>
      </trkpt>
      <trkpt lat="45.4934" lon="5.77056">
        <ele>570</ele>
        <time>2021-08-23T16:11:36Z</time>
      </trkpt>
      <trkpt lat="45.49332" lon="5.77058">
        <ele>569.6</ele>
        <time>2021-08-23T16:11:37Z</time>
      </trkpt>
      <trkpt lat="45.49317" lon="5.77061">
        <ele>568.9</ele>
        <time>2021-08-23T16:11:39Z</time>
      </trkpt>
      <trkpt lat="45.4931" lon="5.77062">
        <ele>568.6</ele>
        <time>2021-08-23T16:11:40Z</time>
      </trkpt>
      <trkpt lat="45.49303" lon="5.77063">
        <ele>568.2</ele>
        <time>2021-08-23T16:11:41Z</time>
      </trkpt>
      <trkpt lat="45.49296" lon="5.77065">
        <ele>567.9</ele>
        <time>2021-08-23T16:11:42Z</time>
      </trkpt>
      <trkpt lat="45.4928" lon="5.77069">
        <ele>567.1</ele>
        <time>2021-08-23T16:11:44Z</time>
      </trkpt>
      <trkpt lat="45.49265" lon="5.77069">
        <ele>566.3</ele>
        <time>2021-08-23T16:11:46Z</time>
      </trkpt>
      <trkpt lat="45.49251" lon="5.77068">
        <ele>565.6</ele>
        <time>2021-08-23T16:11:48Z</time>
      </trkpt>
      <trkpt lat="45.49243" lon="5.77067">
        <ele>565.3</ele>
        <time>2021-08-23T16:11:49Z</time>
      </trkpt>
      <trkpt lat="45.49236" lon="5.77065">
        <ele>564.9</ele>
        <time>2021-08-23T16:11:50Z</time>
      </trkpt>
      <trkpt lat="45.4922" lon="5.7706">
        <ele>564.4</ele>
        <time>2021-08-23T16:11:52Z</time>
      </trkpt>
      <trkpt lat="45.49212" lon="5.77057">
        <ele>564.2</ele>
        <time>2021-08-23T16:11:53Z</time>
      </trkpt>
      <trkpt lat="45.49204" lon="5.77052">
        <ele>564</ele>
        <time>2021-08-23T16:11:54Z</time>
      </trkpt>
      <trkpt lat="45.49189" lon="5.77043">
        <ele>563.7</ele>
        <time>2021-08-23T16:11:56Z</time>
      </trkpt>
      <trkpt lat="45.49174" lon="5.77034">
        <ele>563.4</ele>
        <time>2021-08-23T16:11:58Z</time>
      </trkpt>
      <trkpt lat="45.49159" lon="5.77024">
        <ele>563.1</ele>
        <time>2021-08-23T16:12:00Z</time>
      </trkpt>
      <trkpt lat="45.49153" lon="5.7702">
        <ele>563</ele>
        <time>2021-08-23T16:12:01Z</time>
      </trkpt>
      <trkpt lat="45.49141" lon="5.77012">
        <ele>562.8</ele>
        <time>2021-08-23T16:12:03Z</time>
      </trkpt>
      <trkpt lat="45.49136" lon="5.77009">
        <ele>562.7</ele>
        <time>2021-08-23T16:12:04Z</time>
      </trkpt>
      <trkpt lat="45.4913" lon="5.77007">
        <ele>562.6</ele>
        <time>2021-08-23T16:12:05Z</time>
      </trkpt>
      <trkpt lat="45.4912" lon="5.77003">
        <ele>562.4</ele>
        <time>2021-08-23T16:12:07Z</time>
      </trkpt>
      <trkpt lat="45.49109" lon="5.77">
        <ele>562.1</ele>
        <time>2021-08-23T16:12:09Z</time>
      </trkpt>
      <trkpt lat="45.49095" lon="5.76997">
        <ele>562</ele>
        <time>2021-08-23T16:12:11Z</time>
      </trkpt>
      <trkpt lat="45.49083" lon="5.76993">
        <ele>561.8</ele>
        <time>2021-08-23T16:12:13Z</time>
      </trkpt>
      <trkpt lat="45.49072" lon="5.76987">
        <ele>561.7</ele>
        <time>2021-08-23T16:12:15Z</time>
      </trkpt>
      <trkpt lat="45.49067" lon="5.76984">
        <ele>561.6</ele>
        <time>2021-08-23T16:12:16Z</time>
      </trkpt>
      <trkpt lat="45.49056" lon="5.76981">
        <ele>561.4</ele>
        <time>2021-08-23T16:12:18Z</time>
      </trkpt>
      <trkpt lat="45.49048" lon="5.76981">
        <ele>561.3</ele>
        <time>2021-08-23T16:12:20Z</time>
      </trkpt>
      <trkpt lat="45.49039" lon="5.7698">
        <ele>561.1</ele>
        <time>2021-08-23T16:12:22Z</time>
      </trkpt>
      <trkpt lat="45.49035" lon="5.7698">
        <ele>561</ele>
        <time>2021-08-23T16:12:23Z</time>
      </trkpt>
      <trkpt lat="45.49024" lon="5.76979">
        <ele>560.6</ele>
        <time>2021-08-23T16:12:25Z</time>
      </trkpt>
      <trkpt lat="45.49018" lon="5.76979">
        <ele>560.5</ele>
        <time>2021-08-23T16:12:26Z</time>
      </trkpt>
      <trkpt lat="45.49004" lon="5.76981">
        <ele>560</ele>
        <time>2021-08-23T16:12:28Z</time>
      </trkpt>
      <trkpt lat="45.48997" lon="5.76981">
        <ele>559.8</ele>
        <time>2021-08-23T16:12:29Z</time>
      </trkpt>
      <trkpt lat="45.48991" lon="5.7698">
        <ele>559.6</ele>
        <time>2021-08-23T16:12:30Z</time>
      </trkpt>
      <trkpt lat="45.48982" lon="5.76977">
        <ele>559.4</ele>
        <time>2021-08-23T16:12:32Z</time>
      </trkpt>
      <trkpt lat="45.48973" lon="5.76979">
        <ele>559.1</ele>
        <time>2021-08-23T16:12:34Z</time>
      </trkpt>
      <trkpt lat="45.48968" lon="5.7698">
        <ele>558.9</ele>
        <time>2021-08-23T16:12:35Z</time>
      </trkpt>
      <trkpt lat="45.48964" lon="5.7698">
        <ele>558.8</ele>
        <time>2021-08-23T16:12:36Z</time>
      </trkpt>
      <trkpt lat="45.48955" lon="5.76982">
        <ele>558.5</ele>
        <time>2021-08-23T16:12:38Z</time>
      </trkpt>
      <trkpt lat="45.48947" lon="5.76983">
        <ele>558.3</ele>
        <time>2021-08-23T16:12:40Z</time>
      </trkpt>
      <trkpt lat="45.48944" lon="5.76984">
        <ele>558.2</ele>
        <time>2021-08-23T16:12:41Z</time>
      </trkpt>
      <trkpt lat="45.4894" lon="5.76985">
        <ele>558.1</ele>
        <time>2021-08-23T16:12:42Z</time>
      </trkpt>
      <trkpt lat="45.48936" lon="5.76985">
        <ele>558</ele>
        <time>2021-08-23T16:12:43Z</time>
      </trkpt>
      <trkpt lat="45.48932" lon="5.76982">
        <ele>557.8</ele>
        <time>2021-08-23T16:12:45Z</time>
      </trkpt>
      <trkpt lat="45.48931" lon="5.76981">
        <ele>557.8</ele>
        <time>2021-08-23T16:12:46Z</time>
      </trkpt>
      <trkpt lat="45.48932" lon="5.76983">
        <ele>557.8</ele>
        <time>2021-08-23T16:12:47Z</time>
      </trkpt>
      <trkpt lat="45.48931" lon="5.76986">
        <ele>557.7</ele>
        <time>2021-08-23T16:12:48Z</time>
      </trkpt>
      <trkpt lat="45.48926" lon="5.7699">
        <ele>557.6</ele>
        <time>2021-08-23T16:12:50Z</time>
      </trkpt>
      <trkpt lat="45.48922" lon="5.76994">
        <ele>557.4</ele>
        <time>2021-08-23T16:12:52Z</time>
      </trkpt>
      <trkpt lat="45.48917" lon="5.76997">
        <ele>557.3</ele>
        <time>2021-08-23T16:12:53Z</time>
      </trkpt>
      <trkpt lat="45.4891" lon="5.77001">
        <ele>557</ele>
        <time>2021-08-23T16:12:54Z</time>
      </trkpt>
      <trkpt lat="45.48896" lon="5.77004">
        <ele>556.7</ele>
        <time>2021-08-23T16:12:56Z</time>
      </trkpt>
      <trkpt lat="45.48885" lon="5.77003">
        <ele>556.3</ele>
        <time>2021-08-23T16:12:58Z</time>
      </trkpt>
      <trkpt lat="45.48878" lon="5.77001">
        <ele>556.1</ele>
        <time>2021-08-23T16:12:59Z</time>
      </trkpt>
      <trkpt lat="45.48871" lon="5.77">
        <ele>555.9</ele>
        <time>2021-08-23T16:13:00Z</time>
      </trkpt>
      <trkpt lat="45.48858" lon="5.76992">
        <ele>555.4</ele>
        <time>2021-08-23T16:13:02Z</time>
      </trkpt>
      <trkpt lat="45.48848" lon="5.76985">
        <ele>554.9</ele>
        <time>2021-08-23T16:13:04Z</time>
      </trkpt>
      <trkpt lat="45.48837" lon="5.76978">
        <ele>554.5</ele>
        <time>2021-08-23T16:13:06Z</time>
      </trkpt>
      <trkpt lat="45.48826" lon="5.76968">
        <ele>554.1</ele>
        <time>2021-08-23T16:13:08Z</time>
      </trkpt>
      <trkpt lat="45.48821" lon="5.76963">
        <ele>553.9</ele>
        <time>2021-08-23T16:13:09Z</time>
      </trkpt>
      <trkpt lat="45.48815" lon="5.76959">
        <ele>553.7</ele>
        <time>2021-08-23T16:13:10Z</time>
      </trkpt>
      <trkpt lat="45.48809" lon="5.76955">
        <ele>553.5</ele>
        <time>2021-08-23T16:13:11Z</time>
      </trkpt>
      <trkpt lat="45.48797" lon="5.76947">
        <ele>553</ele>
        <time>2021-08-23T16:13:13Z</time>
      </trkpt>
      <trkpt lat="45.48784" lon="5.7694">
        <ele>552.6</ele>
        <time>2021-08-23T16:13:15Z</time>
      </trkpt>
      <trkpt lat="45.48771" lon="5.76937">
        <ele>552.3</ele>
        <time>2021-08-23T16:13:17Z</time>
      </trkpt>
      <trkpt lat="45.48764" lon="5.76934">
        <ele>552</ele>
        <time>2021-08-23T16:13:18Z</time>
      </trkpt>
      <trkpt lat="45.48752" lon="5.76928">
        <ele>551.7</ele>
        <time>2021-08-23T16:13:20Z</time>
      </trkpt>
      <trkpt lat="45.4874" lon="5.76919">
        <ele>551.4</ele>
        <time>2021-08-23T16:13:22Z</time>
      </trkpt>
      <trkpt lat="45.48735" lon="5.76913">
        <ele>551.3</ele>
        <time>2021-08-23T16:13:23Z</time>
      </trkpt>
      <trkpt lat="45.48726" lon="5.76898">
        <ele>551</ele>
        <time>2021-08-23T16:13:25Z</time>
      </trkpt>
      <trkpt lat="45.48718" lon="5.76881">
        <ele>550.7</ele>
        <time>2021-08-23T16:13:27Z</time>
      </trkpt>
      <trkpt lat="45.48714" lon="5.76871">
        <ele>550.5</ele>
        <time>2021-08-23T16:13:28Z</time>
      </trkpt>
      <trkpt lat="45.48706" lon="5.76854">
        <ele>550.2</ele>
        <time>2021-08-23T16:13:30Z</time>
      </trkpt>
      <trkpt lat="45.487" lon="5.76836">
        <ele>550</ele>
        <time>2021-08-23T16:13:32Z</time>
      </trkpt>
      <trkpt lat="45.48695" lon="5.76821">
        <ele>549.7</ele>
        <time>2021-08-23T16:13:34Z</time>
      </trkpt>
      <trkpt lat="45.48695" lon="5.76819">
        <ele>549.7</ele>
        <time>2021-08-23T16:13:36Z</time>
      </trkpt>
      <trkpt lat="45.48693" lon="5.76815">
        <ele>549.7</ele>
        <time>2021-08-23T16:13:38Z</time>
      </trkpt>
      <trkpt lat="45.48692" lon="5.76814">
        <ele>549.6</ele>
        <time>2021-08-23T16:13:39Z</time>
      </trkpt>
      <trkpt lat="45.4869" lon="5.76813">
        <ele>549.6</ele>
        <time>2021-08-23T16:13:40Z</time>
      </trkpt>
      <trkpt lat="45.48689" lon="5.76811">
        <ele>549.6</ele>
        <time>2021-08-23T16:13:42Z</time>
      </trkpt>
      <trkpt lat="45.48687" lon="5.76808">
        <ele>549.5</ele>
        <time>2021-08-23T16:13:44Z</time>
      </trkpt>
      <trkpt lat="45.48685" lon="5.76806">
        <ele>549.5</ele>
        <time>2021-08-23T16:13:45Z</time>
      </trkpt>
      <trkpt lat="45.48682" lon="5.76803">
        <ele>549.4</ele>
        <time>2021-08-23T16:13:46Z</time>
      </trkpt>
      <trkpt lat="45.4868" lon="5.768">
        <ele>549.4</ele>
        <time>2021-08-23T16:13:47Z</time>
      </trkpt>
      <trkpt lat="45.48676" lon="5.76796">
        <ele>549.3</ele>
        <time>2021-08-23T16:13:49Z</time>
      </trkpt>
      <trkpt lat="45.48671" lon="5.7679">
        <ele>549.3</ele>
        <time>2021-08-23T16:13:50Z</time>
      </trkpt>
      <trkpt lat="45.48665" lon="5.76785">
        <ele>549.2</ele>
        <time>2021-08-23T16:13:51Z</time>
      </trkpt>
      <trkpt lat="45.48652" lon="5.76777">
        <ele>549.1</ele>
        <time>2021-08-23T16:13:53Z</time>
      </trkpt>
      <trkpt lat="45.48647" lon="5.76772">
        <ele>549.1</ele>
        <time>2021-08-23T16:13:54Z</time>
      </trkpt>
      <trkpt lat="45.48642" lon="5.76768">
        <ele>549.1</ele>
        <time>2021-08-23T16:13:55Z</time>
      </trkpt>
      <trkpt lat="45.48637" lon="5.76765">
        <ele>549</ele>
        <time>2021-08-23T16:13:56Z</time>
      </trkpt>
      <trkpt lat="45.48631" lon="5.76761">
        <ele>549</ele>
        <time>2021-08-23T16:13:58Z</time>
      </trkpt>
      <trkpt lat="45.48629" lon="5.76764">
        <ele>549</ele>
        <time>2021-08-23T16:13:59Z</time>
      </trkpt>
      <trkpt lat="45.48624" lon="5.7676">
        <ele>548.9</ele>
        <time>2021-08-23T16:14:01Z</time>
      </trkpt>
      <trkpt lat="45.48619" lon="5.76756">
        <ele>548.8</ele>
        <time>2021-08-23T16:14:02Z</time>
      </trkpt>
      <trkpt lat="45.48614" lon="5.76753">
        <ele>548.8</ele>
        <time>2021-08-23T16:14:03Z</time>
      </trkpt>
      <trkpt lat="45.4861" lon="5.76751">
        <ele>548.8</ele>
        <time>2021-08-23T16:14:04Z</time>
      </trkpt>
      <trkpt lat="45.48606" lon="5.7675">
        <ele>548.7</ele>
        <time>2021-08-23T16:14:05Z</time>
      </trkpt>
      <trkpt lat="45.48601" lon="5.76746">
        <ele>548.7</ele>
        <time>2021-08-23T16:14:06Z</time>
      </trkpt>
      <trkpt lat="45.48596" lon="5.76745">
        <ele>548.6</ele>
        <time>2021-08-23T16:14:07Z</time>
      </trkpt>
      <trkpt lat="45.48592" lon="5.76749">
        <ele>548.5</ele>
        <time>2021-08-23T16:14:08Z</time>
      </trkpt>
      <trkpt lat="45.48583" lon="5.76742">
        <ele>548.4</ele>
        <time>2021-08-23T16:14:10Z</time>
      </trkpt>
      <trkpt lat="45.48568" lon="5.76736">
        <ele>548.1</ele>
        <time>2021-08-23T16:14:12Z</time>
      </trkpt>
      <trkpt lat="45.4856" lon="5.76734">
        <ele>548</ele>
        <time>2021-08-23T16:14:13Z</time>
      </trkpt>
      <trkpt lat="45.48554" lon="5.76732">
        <ele>547.9</ele>
        <time>2021-08-23T16:14:14Z</time>
      </trkpt>
      <trkpt lat="45.48548" lon="5.76729">
        <ele>547.8</ele>
        <time>2021-08-23T16:14:15Z</time>
      </trkpt>
      <trkpt lat="45.48542" lon="5.76726">
        <ele>547.7</ele>
        <time>2021-08-23T16:14:16Z</time>
      </trkpt>
      <trkpt lat="45.48527" lon="5.76718">
        <ele>547.4</ele>
        <time>2021-08-23T16:14:18Z</time>
      </trkpt>
      <trkpt lat="45.48519" lon="5.76714">
        <ele>547.2</ele>
        <time>2021-08-23T16:14:19Z</time>
      </trkpt>
      <trkpt lat="45.48506" lon="5.76709">
        <ele>546.8</ele>
        <time>2021-08-23T16:14:21Z</time>
      </trkpt>
      <trkpt lat="45.48489" lon="5.76707">
        <ele>546.4</ele>
        <time>2021-08-23T16:14:23Z</time>
      </trkpt>
      <trkpt lat="45.4848" lon="5.76706">
        <ele>546.1</ele>
        <time>2021-08-23T16:14:24Z</time>
      </trkpt>
      <trkpt lat="45.48464" lon="5.76707">
        <ele>545.6</ele>
        <time>2021-08-23T16:14:26Z</time>
      </trkpt>
      <trkpt lat="45.48449" lon="5.76709">
        <ele>545.1</ele>
        <time>2021-08-23T16:14:28Z</time>
      </trkpt>
      <trkpt lat="45.48443" lon="5.7671">
        <ele>544.9</ele>
        <time>2021-08-23T16:14:29Z</time>
      </trkpt>
      <trkpt lat="45.48436" lon="5.7671">
        <ele>544.8</ele>
        <time>2021-08-23T16:14:30Z</time>
      </trkpt>
      <trkpt lat="45.48422" lon="5.76707">
        <ele>544.4</ele>
        <time>2021-08-23T16:14:32Z</time>
      </trkpt>
      <trkpt lat="45.48409" lon="5.76704">
        <ele>544.1</ele>
        <time>2021-08-23T16:14:34Z</time>
      </trkpt>
      <trkpt lat="45.48402" lon="5.76701">
        <ele>544</ele>
        <time>2021-08-23T16:14:35Z</time>
      </trkpt>
      <trkpt lat="45.48397" lon="5.76698">
        <ele>543.9</ele>
        <time>2021-08-23T16:14:36Z</time>
      </trkpt>
      <trkpt lat="45.48384" lon="5.76687">
        <ele>543.7</ele>
        <time>2021-08-23T16:14:38Z</time>
      </trkpt>
      <trkpt lat="45.48376" lon="5.7668">
        <ele>543.6</ele>
        <time>2021-08-23T16:14:39Z</time>
      </trkpt>
      <trkpt lat="45.48361" lon="5.76668">
        <ele>543.5</ele>
        <time>2021-08-23T16:14:41Z</time>
      </trkpt>
      <trkpt lat="45.48355" lon="5.76664">
        <ele>543.5</ele>
        <time>2021-08-23T16:14:42Z</time>
      </trkpt>
      <trkpt lat="45.48343" lon="5.7666">
        <ele>543.5</ele>
        <time>2021-08-23T16:14:44Z</time>
      </trkpt>
      <trkpt lat="45.48334" lon="5.76654">
        <ele>543.5</ele>
        <time>2021-08-23T16:14:46Z</time>
      </trkpt>
      <trkpt lat="45.48324" lon="5.76645">
        <ele>543.4</ele>
        <time>2021-08-23T16:14:48Z</time>
      </trkpt>
      <trkpt lat="45.48314" lon="5.76636">
        <ele>543.4</ele>
        <time>2021-08-23T16:14:50Z</time>
      </trkpt>
      <trkpt lat="45.4831" lon="5.76632">
        <ele>543.4</ele>
        <time>2021-08-23T16:14:51Z</time>
      </trkpt>
      <trkpt lat="45.48304" lon="5.76629">
        <ele>543.4</ele>
        <time>2021-08-23T16:14:52Z</time>
      </trkpt>
      <trkpt lat="45.48294" lon="5.76619">
        <ele>543.3</ele>
        <time>2021-08-23T16:14:54Z</time>
      </trkpt>
      <trkpt lat="45.48285" lon="5.7661">
        <ele>543.3</ele>
        <time>2021-08-23T16:14:56Z</time>
      </trkpt>
      <trkpt lat="45.48275" lon="5.76601">
        <ele>543.2</ele>
        <time>2021-08-23T16:14:58Z</time>
      </trkpt>
      <trkpt lat="45.4827" lon="5.76597">
        <ele>543.2</ele>
        <time>2021-08-23T16:14:59Z</time>
      </trkpt>
      <trkpt lat="45.48265" lon="5.76592">
        <ele>543.1</ele>
        <time>2021-08-23T16:15:00Z</time>
      </trkpt>
      <trkpt lat="45.48255" lon="5.76583">
        <ele>543.1</ele>
        <time>2021-08-23T16:15:02Z</time>
      </trkpt>
      <trkpt lat="45.48245" lon="5.76574">
        <ele>543.1</ele>
        <time>2021-08-23T16:15:04Z</time>
      </trkpt>
      <trkpt lat="45.48237" lon="5.76567">
        <ele>543</ele>
        <time>2021-08-23T16:15:06Z</time>
      </trkpt>
      <trkpt lat="45.48225" lon="5.76562">
        <ele>543</ele>
        <time>2021-08-23T16:15:08Z</time>
      </trkpt>
      <trkpt lat="45.48219" lon="5.76558">
        <ele>543</ele>
        <time>2021-08-23T16:15:09Z</time>
      </trkpt>
      <trkpt lat="45.48209" lon="5.76552">
        <ele>543</ele>
        <time>2021-08-23T16:15:11Z</time>
      </trkpt>
      <trkpt lat="45.48199" lon="5.76546">
        <ele>543</ele>
        <time>2021-08-23T16:15:13Z</time>
      </trkpt>
      <trkpt lat="45.48187" lon="5.7654">
        <ele>543</ele>
        <time>2021-08-23T16:15:15Z</time>
      </trkpt>
      <trkpt lat="45.48172" lon="5.76538">
        <ele>542.9</ele>
        <time>2021-08-23T16:15:17Z</time>
      </trkpt>
      <trkpt lat="45.48164" lon="5.76536">
        <ele>542.9</ele>
        <time>2021-08-23T16:15:18Z</time>
      </trkpt>
      <trkpt lat="45.48149" lon="5.76531">
        <ele>542.8</ele>
        <time>2021-08-23T16:15:20Z</time>
      </trkpt>
      <trkpt lat="45.48142" lon="5.76529">
        <ele>542.7</ele>
        <time>2021-08-23T16:15:21Z</time>
      </trkpt>
      <trkpt lat="45.48128" lon="5.76526">
        <ele>542.6</ele>
        <time>2021-08-23T16:15:23Z</time>
      </trkpt>
      <trkpt lat="45.48121" lon="5.76525">
        <ele>542.6</ele>
        <time>2021-08-23T16:15:24Z</time>
      </trkpt>
      <trkpt lat="45.48107" lon="5.76518">
        <ele>542.7</ele>
        <time>2021-08-23T16:15:26Z</time>
      </trkpt>
      <trkpt lat="45.481" lon="5.76515">
        <ele>542.7</ele>
        <time>2021-08-23T16:15:27Z</time>
      </trkpt>
      <trkpt lat="45.48094" lon="5.76511">
        <ele>542.8</ele>
        <time>2021-08-23T16:15:28Z</time>
      </trkpt>
      <trkpt lat="45.48081" lon="5.76505">
        <ele>542.9</ele>
        <time>2021-08-23T16:15:30Z</time>
      </trkpt>
      <trkpt lat="45.48076" lon="5.76493">
        <ele>542.9</ele>
        <time>2021-08-23T16:15:32Z</time>
      </trkpt>
      <trkpt lat="45.48076" lon="5.76487">
        <ele>543</ele>
        <time>2021-08-23T16:15:33Z</time>
      </trkpt>
      <trkpt lat="45.4807" lon="5.76468">
        <ele>543.2</ele>
        <time>2021-08-23T16:15:34Z</time>
      </trkpt>
      <trkpt lat="45.48063" lon="5.76457">
        <ele>543.3</ele>
        <time>2021-08-23T16:15:36Z</time>
      </trkpt>
      <trkpt lat="45.48045" lon="5.7644">
        <ele>543.7</ele>
        <time>2021-08-23T16:15:38Z</time>
      </trkpt>
      <trkpt lat="45.48028" lon="5.76428">
        <ele>544.1</ele>
        <time>2021-08-23T16:15:40Z</time>
      </trkpt>
      <trkpt lat="45.48022" lon="5.76421">
        <ele>544.2</ele>
        <time>2021-08-23T16:15:41Z</time>
      </trkpt>
      <trkpt lat="45.48019" lon="5.76416">
        <ele>544.3</ele>
        <time>2021-08-23T16:15:42Z</time>
      </trkpt>
      <trkpt lat="45.48014" lon="5.76409">
        <ele>544.4</ele>
        <time>2021-08-23T16:15:44Z</time>
      </trkpt>
      <trkpt lat="45.48009" lon="5.76403">
        <ele>544.5</ele>
        <time>2021-08-23T16:15:46Z</time>
      </trkpt>
      <trkpt lat="45.48005" lon="5.76394">
        <ele>544.5</ele>
        <time>2021-08-23T16:15:48Z</time>
      </trkpt>
      <trkpt lat="45.48005" lon="5.76389">
        <ele>544.6</ele>
        <time>2021-08-23T16:15:50Z</time>
      </trkpt>
      <trkpt lat="45.4801" lon="5.76384">
        <ele>544.7</ele>
        <time>2021-08-23T16:15:52Z</time>
      </trkpt>
      <trkpt lat="45.48013" lon="5.7638">
        <ele>544.7</ele>
        <time>2021-08-23T16:15:53Z</time>
      </trkpt>
      <trkpt lat="45.48016" lon="5.76373">
        <ele>544.8</ele>
        <time>2021-08-23T16:15:54Z</time>
      </trkpt>
      <trkpt lat="45.48017" lon="5.76363">
        <ele>544.9</ele>
        <time>2021-08-23T16:15:56Z</time>
      </trkpt>
      <trkpt lat="45.48018" lon="5.76357">
        <ele>545</ele>
        <time>2021-08-23T16:15:57Z</time>
      </trkpt>
      <trkpt lat="45.4802" lon="5.76353">
        <ele>545</ele>
        <time>2021-08-23T16:15:58Z</time>
      </trkpt>
      <trkpt lat="45.4802" lon="5.76347">
        <ele>545.1</ele>
        <time>2021-08-23T16:16:00Z</time>
      </trkpt>
      <trkpt lat="45.48019" lon="5.76341">
        <ele>545.2</ele>
        <time>2021-08-23T16:16:01Z</time>
      </trkpt>
      <trkpt lat="45.48019" lon="5.76334">
        <ele>545.3</ele>
        <time>2021-08-23T16:16:02Z</time>
      </trkpt>
      <trkpt lat="45.4802" lon="5.76328">
        <ele>545.3</ele>
        <time>2021-08-23T16:16:03Z</time>
      </trkpt>
      <trkpt lat="45.48021" lon="5.76325">
        <ele>545.4</ele>
        <time>2021-08-23T16:16:04Z</time>
      </trkpt>
      <trkpt lat="45.4802" lon="5.76319">
        <ele>545.4</ele>
        <time>2021-08-23T16:16:06Z</time>
      </trkpt>
      <trkpt lat="45.4802" lon="5.76313">
        <ele>545.5</ele>
        <time>2021-08-23T16:16:07Z</time>
      </trkpt>
      <trkpt lat="45.48021" lon="5.76307">
        <ele>545.6</ele>
        <time>2021-08-23T16:16:08Z</time>
      </trkpt>
      <trkpt lat="45.48021" lon="5.76304">
        <ele>545.7</ele>
        <time>2021-08-23T16:16:09Z</time>
      </trkpt>
      <trkpt lat="45.48021" lon="5.76299">
        <ele>545.7</ele>
        <time>2021-08-23T16:16:10Z</time>
      </trkpt>
      <trkpt lat="45.48023" lon="5.76294">
        <ele>545.8</ele>
        <time>2021-08-23T16:16:11Z</time>
      </trkpt>
      <trkpt lat="45.48023" lon="5.7629">
        <ele>545.9</ele>
        <time>2021-08-23T16:16:12Z</time>
      </trkpt>
      <trkpt lat="45.48023" lon="5.76282">
        <ele>546</ele>
        <time>2021-08-23T16:16:13Z</time>
      </trkpt>
      <trkpt lat="45.48023" lon="5.76278">
        <ele>546.1</ele>
        <time>2021-08-23T16:16:14Z</time>
      </trkpt>
      <trkpt lat="45.48022" lon="5.76275">
        <ele>546.1</ele>
        <time>2021-08-23T16:16:15Z</time>
      </trkpt>
      <trkpt lat="45.4802" lon="5.76272">
        <ele>546.2</ele>
        <time>2021-08-23T16:16:17Z</time>
      </trkpt>
      <trkpt lat="45.48018" lon="5.76265">
        <ele>546.3</ele>
        <time>2021-08-23T16:16:18Z</time>
      </trkpt>
      <trkpt lat="45.48016" lon="5.76262">
        <ele>546.3</ele>
        <time>2021-08-23T16:16:19Z</time>
      </trkpt>
      <trkpt lat="45.48013" lon="5.76258">
        <ele>546.4</ele>
        <time>2021-08-23T16:16:21Z</time>
      </trkpt>
      <trkpt lat="45.4801" lon="5.76254">
        <ele>546.5</ele>
        <time>2021-08-23T16:16:22Z</time>
      </trkpt>
      <trkpt lat="45.48006" lon="5.7625">
        <ele>546.6</ele>
        <time>2021-08-23T16:16:23Z</time>
      </trkpt>
      <trkpt lat="45.48001" lon="5.76248">
        <ele>546.7</ele>
        <time>2021-08-23T16:16:24Z</time>
      </trkpt>
      <trkpt lat="45.47995" lon="5.76245">
        <ele>546.8</ele>
        <time>2021-08-23T16:16:25Z</time>
      </trkpt>
      <trkpt lat="45.47987" lon="5.76241">
        <ele>546.9</ele>
        <time>2021-08-23T16:16:26Z</time>
      </trkpt>
      <trkpt lat="45.47982" lon="5.7624">
        <ele>546.9</ele>
        <time>2021-08-23T16:16:27Z</time>
      </trkpt>
      <trkpt lat="45.47974" lon="5.76239">
        <ele>547</ele>
        <time>2021-08-23T16:16:29Z</time>
      </trkpt>
      <trkpt lat="45.4797" lon="5.76239">
        <ele>547</ele>
        <time>2021-08-23T16:16:30Z</time>
      </trkpt>
      <trkpt lat="45.47966" lon="5.76239">
        <ele>547.1</ele>
        <time>2021-08-23T16:16:31Z</time>
      </trkpt>
      <trkpt lat="45.47961" lon="5.76239">
        <ele>547.1</ele>
        <time>2021-08-23T16:16:32Z</time>
      </trkpt>
      <trkpt lat="45.47955" lon="5.76239">
        <ele>547.1</ele>
        <time>2021-08-23T16:16:33Z</time>
      </trkpt>
      <trkpt lat="45.4795" lon="5.76238">
        <ele>547.1</ele>
        <time>2021-08-23T16:16:34Z</time>
      </trkpt>
      <trkpt lat="45.47946" lon="5.76237">
        <ele>547</ele>
        <time>2021-08-23T16:16:35Z</time>
      </trkpt>
      <trkpt lat="45.47941" lon="5.76236">
        <ele>547</ele>
        <time>2021-08-23T16:16:36Z</time>
      </trkpt>
      <trkpt lat="45.47933" lon="5.76235">
        <ele>546.8</ele>
        <time>2021-08-23T16:16:37Z</time>
      </trkpt>
      <trkpt lat="45.47927" lon="5.76236">
        <ele>546.7</ele>
        <time>2021-08-23T16:16:38Z</time>
      </trkpt>
      <trkpt lat="45.47917" lon="5.7624">
        <ele>546.5</ele>
        <time>2021-08-23T16:16:40Z</time>
      </trkpt>
      <trkpt lat="45.47911" lon="5.76244">
        <ele>546.3</ele>
        <time>2021-08-23T16:16:41Z</time>
      </trkpt>
      <trkpt lat="45.47899" lon="5.76247">
        <ele>546</ele>
        <time>2021-08-23T16:16:43Z</time>
      </trkpt>
      <trkpt lat="45.47894" lon="5.76246">
        <ele>545.9</ele>
        <time>2021-08-23T16:16:44Z</time>
      </trkpt>
      <trkpt lat="45.47889" lon="5.76246">
        <ele>545.8</ele>
        <time>2021-08-23T16:16:45Z</time>
      </trkpt>
      <trkpt lat="45.47884" lon="5.76246">
        <ele>545.7</ele>
        <time>2021-08-23T16:16:46Z</time>
      </trkpt>
      <trkpt lat="45.47879" lon="5.76248">
        <ele>545.5</ele>
        <time>2021-08-23T16:16:47Z</time>
      </trkpt>
      <trkpt lat="45.47868" lon="5.7625">
        <ele>545.3</ele>
        <time>2021-08-23T16:16:49Z</time>
      </trkpt>
      <trkpt lat="45.47862" lon="5.76251">
        <ele>545.1</ele>
        <time>2021-08-23T16:16:50Z</time>
      </trkpt>
      <trkpt lat="45.47856" lon="5.76253">
        <ele>545</ele>
        <time>2021-08-23T16:16:51Z</time>
      </trkpt>
      <trkpt lat="45.47849" lon="5.76252">
        <ele>544.8</ele>
        <time>2021-08-23T16:16:52Z</time>
      </trkpt>
      <trkpt lat="45.47842" lon="5.76251">
        <ele>544.6</ele>
        <time>2021-08-23T16:16:53Z</time>
      </trkpt>
      <trkpt lat="45.47829" lon="5.76251">
        <ele>544.4</ele>
        <time>2021-08-23T16:16:55Z</time>
      </trkpt>
      <trkpt lat="45.47816" lon="5.76253">
        <ele>544.2</ele>
        <time>2021-08-23T16:16:57Z</time>
      </trkpt>
      <trkpt lat="45.47809" lon="5.76254">
        <ele>544</ele>
        <time>2021-08-23T16:16:58Z</time>
      </trkpt>
      <trkpt lat="45.47802" lon="5.76256">
        <ele>544</ele>
        <time>2021-08-23T16:16:59Z</time>
      </trkpt>
      <trkpt lat="45.47791" lon="5.76258">
        <ele>543.8</ele>
        <time>2021-08-23T16:17:01Z</time>
      </trkpt>
      <trkpt lat="45.47782" lon="5.76262">
        <ele>543.7</ele>
        <time>2021-08-23T16:17:03Z</time>
      </trkpt>
      <trkpt lat="45.47777" lon="5.76263">
        <ele>543.7</ele>
        <time>2021-08-23T16:17:04Z</time>
      </trkpt>
      <trkpt lat="45.47774" lon="5.76263">
        <ele>543.6</ele>
        <time>2021-08-23T16:17:05Z</time>
      </trkpt>
      <trkpt lat="45.47764" lon="5.76262">
        <ele>543.5</ele>
        <time>2021-08-23T16:17:07Z</time>
      </trkpt>
      <trkpt lat="45.47753" lon="5.76261">
        <ele>543.3</ele>
        <time>2021-08-23T16:17:09Z</time>
      </trkpt>
      <trkpt lat="45.47747" lon="5.7626">
        <ele>543.2</ele>
        <time>2021-08-23T16:17:10Z</time>
      </trkpt>
      <trkpt lat="45.4774" lon="5.76258">
        <ele>543.1</ele>
        <time>2021-08-23T16:17:11Z</time>
      </trkpt>
      <trkpt lat="45.47723" lon="5.7626">
        <ele>542.7</ele>
        <time>2021-08-23T16:17:13Z</time>
      </trkpt>
      <trkpt lat="45.47714" lon="5.7626">
        <ele>542.5</ele>
        <time>2021-08-23T16:17:14Z</time>
      </trkpt>
      <trkpt lat="45.47699" lon="5.76258">
        <ele>542</ele>
        <time>2021-08-23T16:17:16Z</time>
      </trkpt>
      <trkpt lat="45.47691" lon="5.76257">
        <ele>541.8</ele>
        <time>2021-08-23T16:17:17Z</time>
      </trkpt>
      <trkpt lat="45.47678" lon="5.76254">
        <ele>541.4</ele>
        <time>2021-08-23T16:17:19Z</time>
      </trkpt>
      <trkpt lat="45.47671" lon="5.76253">
        <ele>541.2</ele>
        <time>2021-08-23T16:17:20Z</time>
      </trkpt>
      <trkpt lat="45.47656" lon="5.76254">
        <ele>540.7</ele>
        <time>2021-08-23T16:17:22Z</time>
      </trkpt>
      <trkpt lat="45.47648" lon="5.76255">
        <ele>540.4</ele>
        <time>2021-08-23T16:17:23Z</time>
      </trkpt>
      <trkpt lat="45.47633" lon="5.76255">
        <ele>540</ele>
        <time>2021-08-23T16:17:25Z</time>
      </trkpt>
      <trkpt lat="45.47613" lon="5.76264">
        <ele>539.3</ele>
        <time>2021-08-23T16:17:27Z</time>
      </trkpt>
      <trkpt lat="45.47604" lon="5.76265">
        <ele>539</ele>
        <time>2021-08-23T16:17:28Z</time>
      </trkpt>
      <trkpt lat="45.47588" lon="5.76266">
        <ele>538.5</ele>
        <time>2021-08-23T16:17:30Z</time>
      </trkpt>
      <trkpt lat="45.47578" lon="5.7627">
        <ele>538.1</ele>
        <time>2021-08-23T16:17:31Z</time>
      </trkpt>
      <trkpt lat="45.47558" lon="5.76271">
        <ele>537.3</ele>
        <time>2021-08-23T16:17:33Z</time>
      </trkpt>
      <trkpt lat="45.47551" lon="5.7627">
        <ele>537</ele>
        <time>2021-08-23T16:17:34Z</time>
      </trkpt>
      <trkpt lat="45.47543" lon="5.76269">
        <ele>536.7</ele>
        <time>2021-08-23T16:17:35Z</time>
      </trkpt>
      <trkpt lat="45.47526" lon="5.76261">
        <ele>536</ele>
        <time>2021-08-23T16:17:37Z</time>
      </trkpt>
      <trkpt lat="45.47518" lon="5.76257">
        <ele>535.6</ele>
        <time>2021-08-23T16:17:38Z</time>
      </trkpt>
      <trkpt lat="45.47505" lon="5.76256">
        <ele>535.1</ele>
        <time>2021-08-23T16:17:40Z</time>
      </trkpt>
      <trkpt lat="45.47499" lon="5.76256">
        <ele>534.9</ele>
        <time>2021-08-23T16:17:41Z</time>
      </trkpt>
      <trkpt lat="45.47485" lon="5.76256">
        <ele>534.5</ele>
        <time>2021-08-23T16:17:43Z</time>
      </trkpt>
      <trkpt lat="45.47478" lon="5.76254">
        <ele>534.3</ele>
        <time>2021-08-23T16:17:44Z</time>
      </trkpt>
      <trkpt lat="45.47465" lon="5.7625">
        <ele>534</ele>
        <time>2021-08-23T16:17:46Z</time>
      </trkpt>
      <trkpt lat="45.47457" lon="5.76248">
        <ele>533.7</ele>
        <time>2021-08-23T16:17:47Z</time>
      </trkpt>
      <trkpt lat="45.47443" lon="5.76245">
        <ele>533.2</ele>
        <time>2021-08-23T16:17:49Z</time>
      </trkpt>
      <trkpt lat="45.47437" lon="5.76242">
        <ele>532.9</ele>
        <time>2021-08-23T16:17:50Z</time>
      </trkpt>
      <trkpt lat="45.47422" lon="5.76235">
        <ele>532.3</ele>
        <time>2021-08-23T16:17:52Z</time>
      </trkpt>
      <trkpt lat="45.47416" lon="5.76231">
        <ele>532.1</ele>
        <time>2021-08-23T16:17:53Z</time>
      </trkpt>
      <trkpt lat="45.47402" lon="5.7622">
        <ele>531.6</ele>
        <time>2021-08-23T16:17:55Z</time>
      </trkpt>
      <trkpt lat="45.47388" lon="5.76208">
        <ele>531.1</ele>
        <time>2021-08-23T16:17:57Z</time>
      </trkpt>
      <trkpt lat="45.47379" lon="5.76198">
        <ele>530.8</ele>
        <time>2021-08-23T16:17:58Z</time>
      </trkpt>
      <trkpt lat="45.47364" lon="5.76183">
        <ele>530.5</ele>
        <time>2021-08-23T16:18:00Z</time>
      </trkpt>
      <trkpt lat="45.47356" lon="5.76174">
        <ele>530.4</ele>
        <time>2021-08-23T16:18:01Z</time>
      </trkpt>
      <trkpt lat="45.4734" lon="5.76157">
        <ele>530.2</ele>
        <time>2021-08-23T16:18:03Z</time>
      </trkpt>
      <trkpt lat="45.47332" lon="5.76151">
        <ele>530.2</ele>
        <time>2021-08-23T16:18:04Z</time>
      </trkpt>
      <trkpt lat="45.47324" lon="5.76145">
        <ele>530.1</ele>
        <time>2021-08-23T16:18:05Z</time>
      </trkpt>
      <trkpt lat="45.47309" lon="5.76132">
        <ele>529.8</ele>
        <time>2021-08-23T16:18:07Z</time>
      </trkpt>
      <trkpt lat="45.47295" lon="5.76123">
        <ele>529.7</ele>
        <time>2021-08-23T16:18:09Z</time>
      </trkpt>
      <trkpt lat="45.47289" lon="5.76118">
        <ele>529.6</ele>
        <time>2021-08-23T16:18:10Z</time>
      </trkpt>
      <trkpt lat="45.47283" lon="5.76115">
        <ele>529.6</ele>
        <time>2021-08-23T16:18:11Z</time>
      </trkpt>
      <trkpt lat="45.47271" lon="5.76107">
        <ele>529.5</ele>
        <time>2021-08-23T16:18:13Z</time>
      </trkpt>
      <trkpt lat="45.47258" lon="5.76098">
        <ele>529.3</ele>
        <time>2021-08-23T16:18:15Z</time>
      </trkpt>
      <trkpt lat="45.47245" lon="5.76088">
        <ele>529.1</ele>
        <time>2021-08-23T16:18:17Z</time>
      </trkpt>
      <trkpt lat="45.47238" lon="5.76082">
        <ele>529</ele>
        <time>2021-08-23T16:18:18Z</time>
      </trkpt>
      <trkpt lat="45.47224" lon="5.76063">
        <ele>528.8</ele>
        <time>2021-08-23T16:18:20Z</time>
      </trkpt>
      <trkpt lat="45.47211" lon="5.76047">
        <ele>528.6</ele>
        <time>2021-08-23T16:18:22Z</time>
      </trkpt>
      <trkpt lat="45.47205" lon="5.76041">
        <ele>528.5</ele>
        <time>2021-08-23T16:18:23Z</time>
      </trkpt>
      <trkpt lat="45.47192" lon="5.76034">
        <ele>528.4</ele>
        <time>2021-08-23T16:18:25Z</time>
      </trkpt>
      <trkpt lat="45.47186" lon="5.76031">
        <ele>528.4</ele>
        <time>2021-08-23T16:18:26Z</time>
      </trkpt>
      <trkpt lat="45.47173" lon="5.76025">
        <ele>528.2</ele>
        <time>2021-08-23T16:18:28Z</time>
      </trkpt>
      <trkpt lat="45.47167" lon="5.7602">
        <ele>528.1</ele>
        <time>2021-08-23T16:18:29Z</time>
      </trkpt>
      <trkpt lat="45.47156" lon="5.76009">
        <ele>527.9</ele>
        <time>2021-08-23T16:18:31Z</time>
      </trkpt>
      <trkpt lat="45.47143" lon="5.75999">
        <ele>527.7</ele>
        <time>2021-08-23T16:18:33Z</time>
      </trkpt>
      <trkpt lat="45.47129" lon="5.75993">
        <ele>527.5</ele>
        <time>2021-08-23T16:18:35Z</time>
      </trkpt>
      <trkpt lat="45.47118" lon="5.75987">
        <ele>527.4</ele>
        <time>2021-08-23T16:18:37Z</time>
      </trkpt>
      <trkpt lat="45.4711" lon="5.75987">
        <ele>527.2</ele>
        <time>2021-08-23T16:18:39Z</time>
      </trkpt>
      <trkpt lat="45.47106" lon="5.75989">
        <ele>527.2</ele>
        <time>2021-08-23T16:18:40Z</time>
      </trkpt>
      <trkpt lat="45.47102" lon="5.7599">
        <ele>527.1</ele>
        <time>2021-08-23T16:18:41Z</time>
      </trkpt>
      <trkpt lat="45.47098" lon="5.7599">
        <ele>527</ele>
        <time>2021-08-23T16:18:42Z</time>
      </trkpt>
      <trkpt lat="45.47093" lon="5.75985">
        <ele>526.9</ele>
        <time>2021-08-23T16:18:44Z</time>
      </trkpt>
      <trkpt lat="45.47085" lon="5.75975">
        <ele>526.7</ele>
        <time>2021-08-23T16:18:46Z</time>
      </trkpt>
      <trkpt lat="45.4708" lon="5.75969">
        <ele>526.6</ele>
        <time>2021-08-23T16:18:47Z</time>
      </trkpt>
      <trkpt lat="45.47074" lon="5.75956">
        <ele>526.4</ele>
        <time>2021-08-23T16:18:49Z</time>
      </trkpt>
      <trkpt lat="45.47066" lon="5.75944">
        <ele>526.3</ele>
        <time>2021-08-23T16:18:50Z</time>
      </trkpt>
      <trkpt lat="45.47059" lon="5.75933">
        <ele>526.2</ele>
        <time>2021-08-23T16:18:52Z</time>
      </trkpt>
      <trkpt lat="45.47048" lon="5.75916">
        <ele>526</ele>
        <time>2021-08-23T16:18:54Z</time>
      </trkpt>
      <trkpt lat="45.47043" lon="5.75909">
        <ele>526</ele>
        <time>2021-08-23T16:18:55Z</time>
      </trkpt>
      <trkpt lat="45.47038" lon="5.75902">
        <ele>525.9</ele>
        <time>2021-08-23T16:18:56Z</time>
      </trkpt>
      <trkpt lat="45.47034" lon="5.75895">
        <ele>525.8</ele>
        <time>2021-08-23T16:18:57Z</time>
      </trkpt>
      <trkpt lat="45.47029" lon="5.7589">
        <ele>525.7</ele>
        <time>2021-08-23T16:18:58Z</time>
      </trkpt>
      <trkpt lat="45.47023" lon="5.75884">
        <ele>525.7</ele>
        <time>2021-08-23T16:18:59Z</time>
      </trkpt>
      <trkpt lat="45.47017" lon="5.75878">
        <ele>525.6</ele>
        <time>2021-08-23T16:19:00Z</time>
      </trkpt>
      <trkpt lat="45.47006" lon="5.75867">
        <ele>525.4</ele>
        <time>2021-08-23T16:19:02Z</time>
      </trkpt>
      <trkpt lat="45.47" lon="5.75863">
        <ele>525.3</ele>
        <time>2021-08-23T16:19:03Z</time>
      </trkpt>
      <trkpt lat="45.46989" lon="5.75851">
        <ele>525.2</ele>
        <time>2021-08-23T16:19:05Z</time>
      </trkpt>
      <trkpt lat="45.46984" lon="5.75842">
        <ele>525.1</ele>
        <time>2021-08-23T16:19:06Z</time>
      </trkpt>
      <trkpt lat="45.46977" lon="5.75825">
        <ele>525</ele>
        <time>2021-08-23T16:19:08Z</time>
      </trkpt>
      <trkpt lat="45.4697" lon="5.7581">
        <ele>525</ele>
        <time>2021-08-23T16:19:10Z</time>
      </trkpt>
      <trkpt lat="45.46962" lon="5.75794">
        <ele>525</ele>
        <time>2021-08-23T16:19:12Z</time>
      </trkpt>
      <trkpt lat="45.46955" lon="5.75777">
        <ele>525.2</ele>
        <time>2021-08-23T16:19:14Z</time>
      </trkpt>
      <trkpt lat="45.46953" lon="5.75769">
        <ele>525.3</ele>
        <time>2021-08-23T16:19:15Z</time>
      </trkpt>
      <trkpt lat="45.46951" lon="5.75761">
        <ele>525.5</ele>
        <time>2021-08-23T16:19:16Z</time>
      </trkpt>
      <trkpt lat="45.46946" lon="5.75749">
        <ele>525.8</ele>
        <time>2021-08-23T16:19:18Z</time>
      </trkpt>
      <trkpt lat="45.46944" lon="5.75744">
        <ele>526</ele>
        <time>2021-08-23T16:19:19Z</time>
      </trkpt>
      <trkpt lat="45.46943" lon="5.75739">
        <ele>526.1</ele>
        <time>2021-08-23T16:19:20Z</time>
      </trkpt>
      <trkpt lat="45.4694" lon="5.75732">
        <ele>526.3</ele>
        <time>2021-08-23T16:19:22Z</time>
      </trkpt>
      <trkpt lat="45.4694" lon="5.7573">
        <ele>526.4</ele>
        <time>2021-08-23T16:19:23Z</time>
      </trkpt>
      <trkpt lat="45.46939" lon="5.75721">
        <ele>526.6</ele>
        <time>2021-08-23T16:19:25Z</time>
      </trkpt>
      <trkpt lat="45.46936" lon="5.75709">
        <ele>527</ele>
        <time>2021-08-23T16:19:27Z</time>
      </trkpt>
      <trkpt lat="45.46938" lon="5.75708">
        <ele>527.1</ele>
        <time>2021-08-23T16:19:28Z</time>
      </trkpt>
      <trkpt lat="45.46934" lon="5.75703">
        <ele>527.4</ele>
        <time>2021-08-23T16:19:30Z</time>
      </trkpt>
      <trkpt lat="45.46929" lon="5.75699">
        <ele>527.6</ele>
        <time>2021-08-23T16:19:31Z</time>
      </trkpt>
      <trkpt lat="45.46922" lon="5.75695">
        <ele>527.9</ele>
        <time>2021-08-23T16:19:33Z</time>
      </trkpt>
      <trkpt lat="45.46914" lon="5.75693">
        <ele>528.2</ele>
        <time>2021-08-23T16:19:34Z</time>
      </trkpt>
      <trkpt lat="45.46907" lon="5.75694">
        <ele>528.5</ele>
        <time>2021-08-23T16:19:35Z</time>
      </trkpt>
      <trkpt lat="45.469" lon="5.75693">
        <ele>528.8</ele>
        <time>2021-08-23T16:19:36Z</time>
      </trkpt>
      <trkpt lat="45.46879" lon="5.75694">
        <ele>529.7</ele>
        <time>2021-08-23T16:19:37Z</time>
      </trkpt>
      <trkpt lat="45.46875" lon="5.75693">
        <ele>529.8</ele>
        <time>2021-08-23T16:19:39Z</time>
      </trkpt>
      <trkpt lat="45.46867" lon="5.75692">
        <ele>530.2</ele>
        <time>2021-08-23T16:19:40Z</time>
      </trkpt>
      <trkpt lat="45.46861" lon="5.75691">
        <ele>530.4</ele>
        <time>2021-08-23T16:19:41Z</time>
      </trkpt>
      <trkpt lat="45.46855" lon="5.7569">
        <ele>530.6</ele>
        <time>2021-08-23T16:19:43Z</time>
      </trkpt>
      <trkpt lat="45.46849" lon="5.75686">
        <ele>530.9</ele>
        <time>2021-08-23T16:19:45Z</time>
      </trkpt>
      <trkpt lat="45.46845" lon="5.75683">
        <ele>531</ele>
        <time>2021-08-23T16:19:47Z</time>
      </trkpt>
      <trkpt lat="45.46842" lon="5.75679">
        <ele>531.1</ele>
        <time>2021-08-23T16:19:49Z</time>
      </trkpt>
      <trkpt lat="45.4684" lon="5.75676">
        <ele>531.3</ele>
        <time>2021-08-23T16:19:50Z</time>
      </trkpt>
      <trkpt lat="45.46836" lon="5.75675">
        <ele>531.4</ele>
        <time>2021-08-23T16:19:52Z</time>
      </trkpt>
      <trkpt lat="45.46832" lon="5.75676">
        <ele>531.5</ele>
        <time>2021-08-23T16:19:53Z</time>
      </trkpt>
      <trkpt lat="45.46825" lon="5.75678">
        <ele>531.8</ele>
        <time>2021-08-23T16:19:55Z</time>
      </trkpt>
      <trkpt lat="45.46823" lon="5.7568">
        <ele>531.9</ele>
        <time>2021-08-23T16:19:56Z</time>
      </trkpt>
      <trkpt lat="45.46819" lon="5.75681">
        <ele>532</ele>
        <time>2021-08-23T16:19:58Z</time>
      </trkpt>
      <trkpt lat="45.46816" lon="5.7568">
        <ele>532.1</ele>
        <time>2021-08-23T16:19:59Z</time>
      </trkpt>
      <trkpt lat="45.46814" lon="5.75683">
        <ele>532.2</ele>
        <time>2021-08-23T16:20:00Z</time>
      </trkpt>
      <trkpt lat="45.46813" lon="5.75683">
        <ele>532.2</ele>
        <time>2021-08-23T16:20:01Z</time>
      </trkpt>
      <trkpt lat="45.46809" lon="5.75682">
        <ele>532.4</ele>
        <time>2021-08-23T16:20:02Z</time>
      </trkpt>
      <trkpt lat="45.46806" lon="5.7568">
        <ele>532.5</ele>
        <time>2021-08-23T16:20:03Z</time>
      </trkpt>
      <trkpt lat="45.46801" lon="5.75678">
        <ele>532.7</ele>
        <time>2021-08-23T16:20:05Z</time>
      </trkpt>
      <trkpt lat="45.46799" lon="5.75678">
        <ele>532.7</ele>
        <time>2021-08-23T16:20:06Z</time>
      </trkpt>
      <trkpt lat="45.46797" lon="5.75678">
        <ele>532.8</ele>
        <time>2021-08-23T16:20:07Z</time>
      </trkpt>
      <trkpt lat="45.46795" lon="5.75677">
        <ele>532.9</ele>
        <time>2021-08-23T16:20:08Z</time>
      </trkpt>
      <trkpt lat="45.46791" lon="5.75676">
        <ele>533</ele>
        <time>2021-08-23T16:20:10Z</time>
      </trkpt>
      <trkpt lat="45.46786" lon="5.75673">
        <ele>533.2</ele>
        <time>2021-08-23T16:20:11Z</time>
      </trkpt>
      <trkpt lat="45.46782" lon="5.7567">
        <ele>533.4</ele>
        <time>2021-08-23T16:20:13Z</time>
      </trkpt>
      <trkpt lat="45.46779" lon="5.75669">
        <ele>533.5</ele>
        <time>2021-08-23T16:20:14Z</time>
      </trkpt>
      <trkpt lat="45.46776" lon="5.75667">
        <ele>533.6</ele>
        <time>2021-08-23T16:20:15Z</time>
      </trkpt>
      <trkpt lat="45.46773" lon="5.75664">
        <ele>533.7</ele>
        <time>2021-08-23T16:20:16Z</time>
      </trkpt>
      <trkpt lat="45.46772" lon="5.75662">
        <ele>533.8</ele>
        <time>2021-08-23T16:20:17Z</time>
      </trkpt>
      <trkpt lat="45.4677" lon="5.7566">
        <ele>533.9</ele>
        <time>2021-08-23T16:20:18Z</time>
      </trkpt>
      <trkpt lat="45.4677" lon="5.75658">
        <ele>533.9</ele>
        <time>2021-08-23T16:20:19Z</time>
      </trkpt>
      <trkpt lat="45.46768" lon="5.75649">
        <ele>534.1</ele>
        <time>2021-08-23T16:20:21Z</time>
      </trkpt>
      <trkpt lat="45.46767" lon="5.75645">
        <ele>534.3</ele>
        <time>2021-08-23T16:20:22Z</time>
      </trkpt>
      <trkpt lat="45.46766" lon="5.75641">
        <ele>534.4</ele>
        <time>2021-08-23T16:20:24Z</time>
      </trkpt>
      <trkpt lat="45.46765" lon="5.75639">
        <ele>534.4</ele>
        <time>2021-08-23T16:20:25Z</time>
      </trkpt>
      <trkpt lat="45.46763" lon="5.75636">
        <ele>534.5</ele>
        <time>2021-08-23T16:20:26Z</time>
      </trkpt>
      <trkpt lat="45.46762" lon="5.75634">
        <ele>534.6</ele>
        <time>2021-08-23T16:20:27Z</time>
      </trkpt>
      <trkpt lat="45.46755" lon="5.75623">
        <ele>534.9</ele>
        <time>2021-08-23T16:20:31Z</time>
      </trkpt>
      <trkpt lat="45.46751" lon="5.7562">
        <ele>535.1</ele>
        <time>2021-08-23T16:20:32Z</time>
      </trkpt>
      <trkpt lat="45.46746" lon="5.75617">
        <ele>535.3</ele>
        <time>2021-08-23T16:20:33Z</time>
      </trkpt>
      <trkpt lat="45.46738" lon="5.75613">
        <ele>535.6</ele>
        <time>2021-08-23T16:20:35Z</time>
      </trkpt>
      <trkpt lat="45.46733" lon="5.7561">
        <ele>535.7</ele>
        <time>2021-08-23T16:20:36Z</time>
      </trkpt>
      <trkpt lat="45.46728" lon="5.75608">
        <ele>535.9</ele>
        <time>2021-08-23T16:20:38Z</time>
      </trkpt>
      <trkpt lat="45.46723" lon="5.75607">
        <ele>536</ele>
        <time>2021-08-23T16:20:39Z</time>
      </trkpt>
      <trkpt lat="45.4672" lon="5.75606">
        <ele>536.1</ele>
        <time>2021-08-23T16:20:40Z</time>
      </trkpt>
      <trkpt lat="45.46717" lon="5.75605">
        <ele>536.2</ele>
        <time>2021-08-23T16:20:41Z</time>
      </trkpt>
      <trkpt lat="45.46713" lon="5.75604">
        <ele>536.3</ele>
        <time>2021-08-23T16:20:42Z</time>
      </trkpt>
      <trkpt lat="45.46706" lon="5.75602">
        <ele>536.6</ele>
        <time>2021-08-23T16:20:44Z</time>
      </trkpt>
      <trkpt lat="45.46699" lon="5.75601">
        <ele>536.8</ele>
        <time>2021-08-23T16:20:46Z</time>
      </trkpt>
      <trkpt lat="45.46693" lon="5.75599">
        <ele>537</ele>
        <time>2021-08-23T16:20:48Z</time>
      </trkpt>
      <trkpt lat="45.46688" lon="5.75598">
        <ele>537.2</ele>
        <time>2021-08-23T16:20:50Z</time>
      </trkpt>
      <trkpt lat="45.46684" lon="5.75597">
        <ele>537.3</ele>
        <time>2021-08-23T16:20:51Z</time>
      </trkpt>
      <trkpt lat="45.4668" lon="5.75596">
        <ele>537.5</ele>
        <time>2021-08-23T16:20:52Z</time>
      </trkpt>
      <trkpt lat="45.46676" lon="5.75595">
        <ele>537.6</ele>
        <time>2021-08-23T16:20:53Z</time>
      </trkpt>
      <trkpt lat="45.46673" lon="5.75595">
        <ele>537.7</ele>
        <time>2021-08-23T16:20:54Z</time>
      </trkpt>
      <trkpt lat="45.46668" lon="5.75597">
        <ele>537.9</ele>
        <time>2021-08-23T16:20:56Z</time>
      </trkpt>
      <trkpt lat="45.46662" lon="5.75598">
        <ele>538.1</ele>
        <time>2021-08-23T16:20:57Z</time>
      </trkpt>
      <trkpt lat="45.46659" lon="5.75597">
        <ele>538.2</ele>
        <time>2021-08-23T16:20:58Z</time>
      </trkpt>
      <trkpt lat="45.46656" lon="5.75595">
        <ele>538.4</ele>
        <time>2021-08-23T16:20:59Z</time>
      </trkpt>
      <trkpt lat="45.46654" lon="5.75592">
        <ele>538.5</ele>
        <time>2021-08-23T16:21:00Z</time>
      </trkpt>
      <trkpt lat="45.46651" lon="5.75589">
        <ele>538.6</ele>
        <time>2021-08-23T16:21:02Z</time>
      </trkpt>
      <trkpt lat="45.46649" lon="5.75586">
        <ele>538.7</ele>
        <time>2021-08-23T16:21:03Z</time>
      </trkpt>
      <trkpt lat="45.46648" lon="5.75586">
        <ele>538.7</ele>
        <time>2021-08-23T16:21:04Z</time>
      </trkpt>
      <trkpt lat="45.46647" lon="5.75585">
        <ele>538.8</ele>
        <time>2021-08-23T16:21:05Z</time>
      </trkpt>
      <trkpt lat="45.46646" lon="5.75581">
        <ele>538.9</ele>
        <time>2021-08-23T16:21:07Z</time>
      </trkpt>
      <trkpt lat="45.46642" lon="5.75577">
        <ele>539</ele>
        <time>2021-08-23T16:21:08Z</time>
      </trkpt>
      <trkpt lat="45.46641" lon="5.75576">
        <ele>539.1</ele>
        <time>2021-08-23T16:21:09Z</time>
      </trkpt>
      <trkpt lat="45.46636" lon="5.75572">
        <ele>539.2</ele>
        <time>2021-08-23T16:21:10Z</time>
      </trkpt>
      <trkpt lat="45.46631" lon="5.75567">
        <ele>539.4</ele>
        <time>2021-08-23T16:21:12Z</time>
      </trkpt>
      <trkpt lat="45.46625" lon="5.75561">
        <ele>539.6</ele>
        <time>2021-08-23T16:21:13Z</time>
      </trkpt>
      <trkpt lat="45.46622" lon="5.75557">
        <ele>539.7</ele>
        <time>2021-08-23T16:21:14Z</time>
      </trkpt>
      <trkpt lat="45.46616" lon="5.75554">
        <ele>539.9</ele>
        <time>2021-08-23T16:21:16Z</time>
      </trkpt>
      <trkpt lat="45.46609" lon="5.75551">
        <ele>540</ele>
        <time>2021-08-23T16:21:17Z</time>
      </trkpt>
      <trkpt lat="45.46602" lon="5.75547">
        <ele>540.1</ele>
        <time>2021-08-23T16:21:19Z</time>
      </trkpt>
      <trkpt lat="45.46598" lon="5.75545">
        <ele>540.2</ele>
        <time>2021-08-23T16:21:20Z</time>
      </trkpt>
      <trkpt lat="45.46591" lon="5.75541">
        <ele>540.3</ele>
        <time>2021-08-23T16:21:22Z</time>
      </trkpt>
      <trkpt lat="45.46588" lon="5.75537">
        <ele>540.4</ele>
        <time>2021-08-23T16:21:24Z</time>
      </trkpt>
      <trkpt lat="45.46584" lon="5.75534">
        <ele>540.6</ele>
        <time>2021-08-23T16:21:26Z</time>
      </trkpt>
      <trkpt lat="45.46581" lon="5.7553">
        <ele>540.6</ele>
        <time>2021-08-23T16:21:27Z</time>
      </trkpt>
      <trkpt lat="45.46578" lon="5.75527">
        <ele>540.7</ele>
        <time>2021-08-23T16:21:29Z</time>
      </trkpt>
      <trkpt lat="45.46575" lon="5.75522">
        <ele>540.9</ele>
        <time>2021-08-23T16:21:30Z</time>
      </trkpt>
      <trkpt lat="45.46571" lon="5.75517">
        <ele>541</ele>
        <time>2021-08-23T16:21:32Z</time>
      </trkpt>
      <trkpt lat="45.46567" lon="5.75513">
        <ele>541.1</ele>
        <time>2021-08-23T16:21:33Z</time>
      </trkpt>
      <trkpt lat="45.46562" lon="5.7551">
        <ele>541.2</ele>
        <time>2021-08-23T16:21:34Z</time>
      </trkpt>
      <trkpt lat="45.46557" lon="5.75506">
        <ele>541.4</ele>
        <time>2021-08-23T16:21:35Z</time>
      </trkpt>
      <trkpt lat="45.46549" lon="5.75502">
        <ele>541.6</ele>
        <time>2021-08-23T16:21:37Z</time>
      </trkpt>
      <trkpt lat="45.46543" lon="5.75498">
        <ele>541.7</ele>
        <time>2021-08-23T16:21:38Z</time>
      </trkpt>
      <trkpt lat="45.46536" lon="5.75493">
        <ele>541.9</ele>
        <time>2021-08-23T16:21:40Z</time>
      </trkpt>
      <trkpt lat="45.46532" lon="5.75489">
        <ele>542.1</ele>
        <time>2021-08-23T16:21:41Z</time>
      </trkpt>
      <trkpt lat="45.4653" lon="5.75485">
        <ele>542.2</ele>
        <time>2021-08-23T16:21:42Z</time>
      </trkpt>
      <trkpt lat="45.46527" lon="5.75481">
        <ele>542.3</ele>
        <time>2021-08-23T16:21:44Z</time>
      </trkpt>
      <trkpt lat="45.46523" lon="5.75476">
        <ele>542.4</ele>
        <time>2021-08-23T16:21:45Z</time>
      </trkpt>
      <trkpt lat="45.4652" lon="5.75473">
        <ele>542.5</ele>
        <time>2021-08-23T16:21:46Z</time>
      </trkpt>
      <trkpt lat="45.46514" lon="5.75468">
        <ele>542.6</ele>
        <time>2021-08-23T16:21:48Z</time>
      </trkpt>
      <trkpt lat="45.46508" lon="5.75463">
        <ele>542.8</ele>
        <time>2021-08-23T16:21:49Z</time>
      </trkpt>
      <trkpt lat="45.46505" lon="5.75461">
        <ele>542.8</ele>
        <time>2021-08-23T16:21:50Z</time>
      </trkpt>
      <trkpt lat="45.46499" lon="5.75454">
        <ele>543</ele>
        <time>2021-08-23T16:21:52Z</time>
      </trkpt>
      <trkpt lat="45.46493" lon="5.75448">
        <ele>543.2</ele>
        <time>2021-08-23T16:21:54Z</time>
      </trkpt>
      <trkpt lat="45.4649" lon="5.75444">
        <ele>543.3</ele>
        <time>2021-08-23T16:21:55Z</time>
      </trkpt>
      <trkpt lat="45.46485" lon="5.75438">
        <ele>543.5</ele>
        <time>2021-08-23T16:21:57Z</time>
      </trkpt>
      <trkpt lat="45.46482" lon="5.75436">
        <ele>543.6</ele>
        <time>2021-08-23T16:21:58Z</time>
      </trkpt>
      <trkpt lat="45.46479" lon="5.75433">
        <ele>543.6</ele>
        <time>2021-08-23T16:21:59Z</time>
      </trkpt>
      <trkpt lat="45.46475" lon="5.75431">
        <ele>543.7</ele>
        <time>2021-08-23T16:22:00Z</time>
      </trkpt>
      <trkpt lat="45.4647" lon="5.75425">
        <ele>543.8</ele>
        <time>2021-08-23T16:22:02Z</time>
      </trkpt>
      <trkpt lat="45.46467" lon="5.75422">
        <ele>543.9</ele>
        <time>2021-08-23T16:22:03Z</time>
      </trkpt>
      <trkpt lat="45.46463" lon="5.75419">
        <ele>543.9</ele>
        <time>2021-08-23T16:22:04Z</time>
      </trkpt>
      <trkpt lat="45.4646" lon="5.75417">
        <ele>544</ele>
        <time>2021-08-23T16:22:05Z</time>
      </trkpt>
      <trkpt lat="45.46457" lon="5.75414">
        <ele>544</ele>
        <time>2021-08-23T16:22:06Z</time>
      </trkpt>
      <trkpt lat="45.46453" lon="5.75412">
        <ele>544</ele>
        <time>2021-08-23T16:22:08Z</time>
      </trkpt>
      <trkpt lat="45.4645" lon="5.75409">
        <ele>544</ele>
        <time>2021-08-23T16:22:09Z</time>
      </trkpt>
      <trkpt lat="45.46446" lon="5.75407">
        <ele>544</ele>
        <time>2021-08-23T16:22:10Z</time>
      </trkpt>
      <trkpt lat="45.4644" lon="5.75403">
        <ele>544</ele>
        <time>2021-08-23T16:22:11Z</time>
      </trkpt>
      <trkpt lat="45.46437" lon="5.754">
        <ele>544</ele>
        <time>2021-08-23T16:22:12Z</time>
      </trkpt>
      <trkpt lat="45.46433" lon="5.75398">
        <ele>544</ele>
        <time>2021-08-23T16:22:13Z</time>
      </trkpt>
      <trkpt lat="45.46428" lon="5.75393">
        <ele>544</ele>
        <time>2021-08-23T16:22:15Z</time>
      </trkpt>
      <trkpt lat="45.46421" lon="5.75386">
        <ele>544</ele>
        <time>2021-08-23T16:22:16Z</time>
      </trkpt>
      <trkpt lat="45.46418" lon="5.75382">
        <ele>544</ele>
        <time>2021-08-23T16:22:17Z</time>
      </trkpt>
      <trkpt lat="45.46414" lon="5.75377">
        <ele>543.9</ele>
        <time>2021-08-23T16:22:18Z</time>
      </trkpt>
      <trkpt lat="45.46408" lon="5.75367">
        <ele>543.9</ele>
        <time>2021-08-23T16:22:20Z</time>
      </trkpt>
      <trkpt lat="45.464" lon="5.75356">
        <ele>543.8</ele>
        <time>2021-08-23T16:22:22Z</time>
      </trkpt>
      <trkpt lat="45.46397" lon="5.7535">
        <ele>543.8</ele>
        <time>2021-08-23T16:22:23Z</time>
      </trkpt>
      <trkpt lat="45.46392" lon="5.75339">
        <ele>543.7</ele>
        <time>2021-08-23T16:22:25Z</time>
      </trkpt>
      <trkpt lat="45.46386" lon="5.75328">
        <ele>543.6</ele>
        <time>2021-08-23T16:22:27Z</time>
      </trkpt>
      <trkpt lat="45.46382" lon="5.75317">
        <ele>543.4</ele>
        <time>2021-08-23T16:22:29Z</time>
      </trkpt>
      <trkpt lat="45.46379" lon="5.75307">
        <ele>543.2</ele>
        <time>2021-08-23T16:22:31Z</time>
      </trkpt>
      <trkpt lat="45.46374" lon="5.75295">
        <ele>542.9</ele>
        <time>2021-08-23T16:22:33Z</time>
      </trkpt>
      <trkpt lat="45.46372" lon="5.75289">
        <ele>542.7</ele>
        <time>2021-08-23T16:22:34Z</time>
      </trkpt>
      <trkpt lat="45.46371" lon="5.75282">
        <ele>542.5</ele>
        <time>2021-08-23T16:22:35Z</time>
      </trkpt>
      <trkpt lat="45.46369" lon="5.75268">
        <ele>542.1</ele>
        <time>2021-08-23T16:22:37Z</time>
      </trkpt>
      <trkpt lat="45.46367" lon="5.75259">
        <ele>541.9</ele>
        <time>2021-08-23T16:22:38Z</time>
      </trkpt>
      <trkpt lat="45.46364" lon="5.7525">
        <ele>541.6</ele>
        <time>2021-08-23T16:22:39Z</time>
      </trkpt>
      <trkpt lat="45.46362" lon="5.7524">
        <ele>541.3</ele>
        <time>2021-08-23T16:22:40Z</time>
      </trkpt>
      <trkpt lat="45.46361" lon="5.7522">
        <ele>540.7</ele>
        <time>2021-08-23T16:22:42Z</time>
      </trkpt>
      <trkpt lat="45.46361" lon="5.75211">
        <ele>540.4</ele>
        <time>2021-08-23T16:22:43Z</time>
      </trkpt>
      <trkpt lat="45.46361" lon="5.75201">
        <ele>540.1</ele>
        <time>2021-08-23T16:22:44Z</time>
      </trkpt>
      <trkpt lat="45.46355" lon="5.75184">
        <ele>539.5</ele>
        <time>2021-08-23T16:22:46Z</time>
      </trkpt>
      <trkpt lat="45.46352" lon="5.75176">
        <ele>539.2</ele>
        <time>2021-08-23T16:22:47Z</time>
      </trkpt>
      <trkpt lat="45.46349" lon="5.75157">
        <ele>538.5</ele>
        <time>2021-08-23T16:22:49Z</time>
      </trkpt>
      <trkpt lat="45.46349" lon="5.75147">
        <ele>538.1</ele>
        <time>2021-08-23T16:22:50Z</time>
      </trkpt>
      <trkpt lat="45.4635" lon="5.75126">
        <ele>537.4</ele>
        <time>2021-08-23T16:22:52Z</time>
      </trkpt>
      <trkpt lat="45.46347" lon="5.75117">
        <ele>537</ele>
        <time>2021-08-23T16:22:53Z</time>
      </trkpt>
      <trkpt lat="45.46343" lon="5.75108">
        <ele>536.7</ele>
        <time>2021-08-23T16:22:54Z</time>
      </trkpt>
      <trkpt lat="45.46337" lon="5.751">
        <ele>536.3</ele>
        <time>2021-08-23T16:22:55Z</time>
      </trkpt>
      <trkpt lat="45.46325" lon="5.75082">
        <ele>535.5</ele>
        <time>2021-08-23T16:22:57Z</time>
      </trkpt>
      <trkpt lat="45.46321" lon="5.75073">
        <ele>535.1</ele>
        <time>2021-08-23T16:22:58Z</time>
      </trkpt>
      <trkpt lat="45.46312" lon="5.75053">
        <ele>534.4</ele>
        <time>2021-08-23T16:23:00Z</time>
      </trkpt>
      <trkpt lat="45.46308" lon="5.75043">
        <ele>534</ele>
        <time>2021-08-23T16:23:01Z</time>
      </trkpt>
      <trkpt lat="45.463" lon="5.75024">
        <ele>533.3</ele>
        <time>2021-08-23T16:23:03Z</time>
      </trkpt>
      <trkpt lat="45.46297" lon="5.75014">
        <ele>533</ele>
        <time>2021-08-23T16:23:04Z</time>
      </trkpt>
      <trkpt lat="45.46295" lon="5.75004">
        <ele>532.7</ele>
        <time>2021-08-23T16:23:05Z</time>
      </trkpt>
      <trkpt lat="45.46293" lon="5.74994">
        <ele>532.4</ele>
        <time>2021-08-23T16:23:06Z</time>
      </trkpt>
      <trkpt lat="45.46291" lon="5.74973">
        <ele>531.6</ele>
        <time>2021-08-23T16:23:08Z</time>
      </trkpt>
      <trkpt lat="45.46288" lon="5.74953">
        <ele>530.9</ele>
        <time>2021-08-23T16:23:10Z</time>
      </trkpt>
      <trkpt lat="45.46286" lon="5.74943">
        <ele>530.5</ele>
        <time>2021-08-23T16:23:11Z</time>
      </trkpt>
      <trkpt lat="45.46285" lon="5.74923">
        <ele>529.6</ele>
        <time>2021-08-23T16:23:13Z</time>
      </trkpt>
      <trkpt lat="45.46284" lon="5.74913">
        <ele>529.2</ele>
        <time>2021-08-23T16:23:14Z</time>
      </trkpt>
      <trkpt lat="45.46282" lon="5.74893">
        <ele>528.4</ele>
        <time>2021-08-23T16:23:16Z</time>
      </trkpt>
      <trkpt lat="45.4628" lon="5.74883">
        <ele>528</ele>
        <time>2021-08-23T16:23:17Z</time>
      </trkpt>
      <trkpt lat="45.46272" lon="5.74865">
        <ele>527.3</ele>
        <time>2021-08-23T16:23:19Z</time>
      </trkpt>
      <trkpt lat="45.46268" lon="5.74856">
        <ele>526.9</ele>
        <time>2021-08-23T16:23:20Z</time>
      </trkpt>
      <trkpt lat="45.46258" lon="5.7484">
        <ele>526.1</ele>
        <time>2021-08-23T16:23:22Z</time>
      </trkpt>
      <trkpt lat="45.46251" lon="5.74832">
        <ele>525.7</ele>
        <time>2021-08-23T16:23:23Z</time>
      </trkpt>
      <trkpt lat="45.46246" lon="5.74824">
        <ele>525.2</ele>
        <time>2021-08-23T16:23:24Z</time>
      </trkpt>
      <trkpt lat="45.4624" lon="5.74815">
        <ele>524.8</ele>
        <time>2021-08-23T16:23:25Z</time>
      </trkpt>
      <trkpt lat="45.46227" lon="5.74799">
        <ele>523.8</ele>
        <time>2021-08-23T16:23:27Z</time>
      </trkpt>
      <trkpt lat="45.4622" lon="5.74791">
        <ele>523.3</ele>
        <time>2021-08-23T16:23:28Z</time>
      </trkpt>
      <trkpt lat="45.46204" lon="5.74777">
        <ele>522.3</ele>
        <time>2021-08-23T16:23:30Z</time>
      </trkpt>
      <trkpt lat="45.46189" lon="5.74763">
        <ele>521.3</ele>
        <time>2021-08-23T16:23:32Z</time>
      </trkpt>
      <trkpt lat="45.46171" lon="5.74753">
        <ele>520.3</ele>
        <time>2021-08-23T16:23:34Z</time>
      </trkpt>
      <trkpt lat="45.46153" lon="5.74742">
        <ele>519.1</ele>
        <time>2021-08-23T16:23:36Z</time>
      </trkpt>
      <trkpt lat="45.46136" lon="5.7473">
        <ele>518</ele>
        <time>2021-08-23T16:23:38Z</time>
      </trkpt>
      <trkpt lat="45.46118" lon="5.7472">
        <ele>516.9</ele>
        <time>2021-08-23T16:23:40Z</time>
      </trkpt>
      <trkpt lat="45.461" lon="5.74714">
        <ele>515.9</ele>
        <time>2021-08-23T16:23:42Z</time>
      </trkpt>
      <trkpt lat="45.46091" lon="5.74713">
        <ele>515.3</ele>
        <time>2021-08-23T16:23:43Z</time>
      </trkpt>
      <trkpt lat="45.46081" lon="5.74712">
        <ele>514.8</ele>
        <time>2021-08-23T16:23:44Z</time>
      </trkpt>
      <trkpt lat="45.46061" lon="5.74715">
        <ele>513.6</ele>
        <time>2021-08-23T16:23:46Z</time>
      </trkpt>
      <trkpt lat="45.46051" lon="5.74718">
        <ele>513</ele>
        <time>2021-08-23T16:23:47Z</time>
      </trkpt>
      <trkpt lat="45.4603" lon="5.74721">
        <ele>511.7</ele>
        <time>2021-08-23T16:23:49Z</time>
      </trkpt>
      <trkpt lat="45.4602" lon="5.74723">
        <ele>511.1</ele>
        <time>2021-08-23T16:23:50Z</time>
      </trkpt>
      <trkpt lat="45.46001" lon="5.74728">
        <ele>509.9</ele>
        <time>2021-08-23T16:23:52Z</time>
      </trkpt>
      <trkpt lat="45.45981" lon="5.74733">
        <ele>508.6</ele>
        <time>2021-08-23T16:23:54Z</time>
      </trkpt>
      <trkpt lat="45.4597" lon="5.74734">
        <ele>507.9</ele>
        <time>2021-08-23T16:23:55Z</time>
      </trkpt>
      <trkpt lat="45.45951" lon="5.74737">
        <ele>506.7</ele>
        <time>2021-08-23T16:23:57Z</time>
      </trkpt>
      <trkpt lat="45.45941" lon="5.74736">
        <ele>506</ele>
        <time>2021-08-23T16:23:58Z</time>
      </trkpt>
      <trkpt lat="45.45922" lon="5.74729">
        <ele>504.7</ele>
        <time>2021-08-23T16:24:00Z</time>
      </trkpt>
      <trkpt lat="45.45912" lon="5.74722">
        <ele>504</ele>
        <time>2021-08-23T16:24:01Z</time>
      </trkpt>
      <trkpt lat="45.45894" lon="5.74697">
        <ele>502.4</ele>
        <time>2021-08-23T16:24:03Z</time>
      </trkpt>
      <trkpt lat="45.45885" lon="5.74682">
        <ele>501.7</ele>
        <time>2021-08-23T16:24:04Z</time>
      </trkpt>
      <trkpt lat="45.45878" lon="5.74666">
        <ele>501</ele>
        <time>2021-08-23T16:24:05Z</time>
      </trkpt>
      <trkpt lat="45.45866" lon="5.7464">
        <ele>500</ele>
        <time>2021-08-23T16:24:07Z</time>
      </trkpt>
      <trkpt lat="45.45857" lon="5.74617">
        <ele>499.2</ele>
        <time>2021-08-23T16:24:09Z</time>
      </trkpt>
      <trkpt lat="45.45852" lon="5.74606">
        <ele>498.9</ele>
        <time>2021-08-23T16:24:10Z</time>
      </trkpt>
      <trkpt lat="45.45843" lon="5.74584">
        <ele>498.2</ele>
        <time>2021-08-23T16:24:12Z</time>
      </trkpt>
      <trkpt lat="45.45834" lon="5.74566">
        <ele>497.7</ele>
        <time>2021-08-23T16:24:14Z</time>
      </trkpt>
      <trkpt lat="45.45829" lon="5.74557">
        <ele>497.4</ele>
        <time>2021-08-23T16:24:15Z</time>
      </trkpt>
      <trkpt lat="45.45817" lon="5.74541">
        <ele>496.9</ele>
        <time>2021-08-23T16:24:17Z</time>
      </trkpt>
      <trkpt lat="45.45805" lon="5.74527">
        <ele>496.4</ele>
        <time>2021-08-23T16:24:19Z</time>
      </trkpt>
      <trkpt lat="45.45799" lon="5.74521">
        <ele>496.2</ele>
        <time>2021-08-23T16:24:20Z</time>
      </trkpt>
      <trkpt lat="45.45785" lon="5.74508">
        <ele>495.7</ele>
        <time>2021-08-23T16:24:22Z</time>
      </trkpt>
      <trkpt lat="45.45778" lon="5.74502">
        <ele>495.4</ele>
        <time>2021-08-23T16:24:23Z</time>
      </trkpt>
      <trkpt lat="45.45764" lon="5.74495">
        <ele>494.9</ele>
        <time>2021-08-23T16:24:25Z</time>
      </trkpt>
      <trkpt lat="45.45751" lon="5.74489">
        <ele>494.5</ele>
        <time>2021-08-23T16:24:27Z</time>
      </trkpt>
      <trkpt lat="45.45737" lon="5.74481">
        <ele>494</ele>
        <time>2021-08-23T16:24:29Z</time>
      </trkpt>
      <trkpt lat="45.45724" lon="5.74475">
        <ele>493.4</ele>
        <time>2021-08-23T16:24:31Z</time>
      </trkpt>
      <trkpt lat="45.45709" lon="5.74467">
        <ele>492.7</ele>
        <time>2021-08-23T16:24:33Z</time>
      </trkpt>
      <trkpt lat="45.45703" lon="5.74462">
        <ele>492.3</ele>
        <time>2021-08-23T16:24:34Z</time>
      </trkpt>
      <trkpt lat="45.45689" lon="5.74454">
        <ele>491.5</ele>
        <time>2021-08-23T16:24:36Z</time>
      </trkpt>
      <trkpt lat="45.45672" lon="5.74443">
        <ele>490.4</ele>
        <time>2021-08-23T16:24:38Z</time>
      </trkpt>
      <trkpt lat="45.45653" lon="5.74435">
        <ele>489.2</ele>
        <time>2021-08-23T16:24:40Z</time>
      </trkpt>
      <trkpt lat="45.45634" lon="5.74427">
        <ele>488</ele>
        <time>2021-08-23T16:24:42Z</time>
      </trkpt>
      <trkpt lat="45.45616" lon="5.74426">
        <ele>487</ele>
        <time>2021-08-23T16:24:44Z</time>
      </trkpt>
      <trkpt lat="45.45606" lon="5.74428">
        <ele>486.4</ele>
        <time>2021-08-23T16:24:45Z</time>
      </trkpt>
      <trkpt lat="45.45597" lon="5.74429">
        <ele>485.9</ele>
        <time>2021-08-23T16:24:46Z</time>
      </trkpt>
      <trkpt lat="45.45587" lon="5.74429">
        <ele>485.3</ele>
        <time>2021-08-23T16:24:47Z</time>
      </trkpt>
      <trkpt lat="45.45577" lon="5.74427">
        <ele>484.7</ele>
        <time>2021-08-23T16:24:48Z</time>
      </trkpt>
      <trkpt lat="45.45556" lon="5.7443">
        <ele>483.5</ele>
        <time>2021-08-23T16:24:50Z</time>
      </trkpt>
      <trkpt lat="45.45545" lon="5.74432">
        <ele>482.8</ele>
        <time>2021-08-23T16:24:51Z</time>
      </trkpt>
      <trkpt lat="45.45534" lon="5.74432">
        <ele>482.1</ele>
        <time>2021-08-23T16:24:52Z</time>
      </trkpt>
      <trkpt lat="45.45512" lon="5.74435">
        <ele>480.8</ele>
        <time>2021-08-23T16:24:54Z</time>
      </trkpt>
      <trkpt lat="45.45491" lon="5.74445">
        <ele>479.6</ele>
        <time>2021-08-23T16:24:56Z</time>
      </trkpt>
      <trkpt lat="45.45482" lon="5.74452">
        <ele>479</ele>
        <time>2021-08-23T16:24:57Z</time>
      </trkpt>
      <trkpt lat="45.45463" lon="5.74465">
        <ele>477.8</ele>
        <time>2021-08-23T16:24:59Z</time>
      </trkpt>
      <trkpt lat="45.45446" lon="5.74479">
        <ele>476.6</ele>
        <time>2021-08-23T16:25:01Z</time>
      </trkpt>
      <trkpt lat="45.45427" lon="5.74492">
        <ele>475.6</ele>
        <time>2021-08-23T16:25:03Z</time>
      </trkpt>
      <trkpt lat="45.45418" lon="5.74497">
        <ele>475.3</ele>
        <time>2021-08-23T16:25:04Z</time>
      </trkpt>
      <trkpt lat="45.45401" lon="5.74514">
        <ele>474.5</ele>
        <time>2021-08-23T16:25:06Z</time>
      </trkpt>
      <trkpt lat="45.45392" lon="5.7452">
        <ele>474</ele>
        <time>2021-08-23T16:25:07Z</time>
      </trkpt>
      <trkpt lat="45.45375" lon="5.74537">
        <ele>472.9</ele>
        <time>2021-08-23T16:25:09Z</time>
      </trkpt>
      <trkpt lat="45.45367" lon="5.74547">
        <ele>472.3</ele>
        <time>2021-08-23T16:25:10Z</time>
      </trkpt>
      <trkpt lat="45.45359" lon="5.74557">
        <ele>471.7</ele>
        <time>2021-08-23T16:25:11Z</time>
      </trkpt>
      <trkpt lat="45.45346" lon="5.74581">
        <ele>470.5</ele>
        <time>2021-08-23T16:25:13Z</time>
      </trkpt>
      <trkpt lat="45.45341" lon="5.74595">
        <ele>469.8</ele>
        <time>2021-08-23T16:25:14Z</time>
      </trkpt>
      <trkpt lat="45.45336" lon="5.74625">
        <ele>468.6</ele>
        <time>2021-08-23T16:25:16Z</time>
      </trkpt>
      <trkpt lat="45.45337" lon="5.74643">
        <ele>467.9</ele>
        <time>2021-08-23T16:25:17Z</time>
      </trkpt>
      <trkpt lat="45.4533" lon="5.74671">
        <ele>466.8</ele>
        <time>2021-08-23T16:25:19Z</time>
      </trkpt>
      <trkpt lat="45.45318" lon="5.74693">
        <ele>465.7</ele>
        <time>2021-08-23T16:25:21Z</time>
      </trkpt>
      <trkpt lat="45.45312" lon="5.747">
        <ele>465.2</ele>
        <time>2021-08-23T16:25:22Z</time>
      </trkpt>
      <trkpt lat="45.45306" lon="5.74708">
        <ele>464.7</ele>
        <time>2021-08-23T16:25:23Z</time>
      </trkpt>
      <trkpt lat="45.45293" lon="5.74717">
        <ele>463.9</ele>
        <time>2021-08-23T16:25:25Z</time>
      </trkpt>
      <trkpt lat="45.45284" lon="5.74709">
        <ele>463.3</ele>
        <time>2021-08-23T16:25:26Z</time>
      </trkpt>
      <trkpt lat="45.45275" lon="5.74698">
        <ele>462.6</ele>
        <time>2021-08-23T16:25:27Z</time>
      </trkpt>
      <trkpt lat="45.45261" lon="5.74691">
        <ele>461.9</ele>
        <time>2021-08-23T16:25:28Z</time>
      </trkpt>
      <trkpt lat="45.45247" lon="5.74685">
        <ele>461.1</ele>
        <time>2021-08-23T16:25:29Z</time>
      </trkpt>
      <trkpt lat="45.45222" lon="5.74673">
        <ele>459.8</ele>
        <time>2021-08-23T16:25:31Z</time>
      </trkpt>
      <trkpt lat="45.45201" lon="5.74656">
        <ele>458.5</ele>
        <time>2021-08-23T16:25:33Z</time>
      </trkpt>
      <trkpt lat="45.45191" lon="5.7465">
        <ele>457.9</ele>
        <time>2021-08-23T16:25:34Z</time>
      </trkpt>
      <trkpt lat="45.45173" lon="5.7464">
        <ele>456.9</ele>
        <time>2021-08-23T16:25:36Z</time>
      </trkpt>
      <trkpt lat="45.45164" lon="5.74635">
        <ele>456.4</ele>
        <time>2021-08-23T16:25:37Z</time>
      </trkpt>
      <trkpt lat="45.45143" lon="5.74638">
        <ele>455.2</ele>
        <time>2021-08-23T16:25:39Z</time>
      </trkpt>
      <trkpt lat="45.45133" lon="5.7464">
        <ele>454.7</ele>
        <time>2021-08-23T16:25:40Z</time>
      </trkpt>
      <trkpt lat="45.45116" lon="5.74659">
        <ele>453.5</ele>
        <time>2021-08-23T16:25:42Z</time>
      </trkpt>
      <trkpt lat="45.45101" lon="5.74689">
        <ele>452.1</ele>
        <time>2021-08-23T16:25:44Z</time>
      </trkpt>
      <trkpt lat="45.45094" lon="5.74703">
        <ele>451.5</ele>
        <time>2021-08-23T16:25:45Z</time>
      </trkpt>
      <trkpt lat="45.45087" lon="5.74716">
        <ele>450.9</ele>
        <time>2021-08-23T16:25:46Z</time>
      </trkpt>
      <trkpt lat="45.45075" lon="5.7474">
        <ele>449.7</ele>
        <time>2021-08-23T16:25:48Z</time>
      </trkpt>
      <trkpt lat="45.4507" lon="5.74751">
        <ele>449.1</ele>
        <time>2021-08-23T16:25:49Z</time>
      </trkpt>
      <trkpt lat="45.45065" lon="5.74779">
        <ele>448</ele>
        <time>2021-08-23T16:25:51Z</time>
      </trkpt>
      <trkpt lat="45.45061" lon="5.74804">
        <ele>447</ele>
        <time>2021-08-23T16:25:53Z</time>
      </trkpt>
      <trkpt lat="45.45059" lon="5.7483">
        <ele>446</ele>
        <time>2021-08-23T16:25:55Z</time>
      </trkpt>
      <trkpt lat="45.45058" lon="5.74843">
        <ele>445.5</ele>
        <time>2021-08-23T16:25:56Z</time>
      </trkpt>
      <trkpt lat="45.45057" lon="5.7487">
        <ele>444.4</ele>
        <time>2021-08-23T16:25:58Z</time>
      </trkpt>
      <trkpt lat="45.45056" lon="5.74883">
        <ele>443.9</ele>
        <time>2021-08-23T16:25:59Z</time>
      </trkpt>
      <trkpt lat="45.45055" lon="5.74897">
        <ele>443.4</ele>
        <time>2021-08-23T16:26:00Z</time>
      </trkpt>
      <trkpt lat="45.45054" lon="5.7491">
        <ele>442.9</ele>
        <time>2021-08-23T16:26:01Z</time>
      </trkpt>
      <trkpt lat="45.4505" lon="5.74935">
        <ele>441.9</ele>
        <time>2021-08-23T16:26:03Z</time>
      </trkpt>
      <trkpt lat="45.45047" lon="5.74947">
        <ele>441.4</ele>
        <time>2021-08-23T16:26:04Z</time>
      </trkpt>
      <trkpt lat="45.45044" lon="5.74959">
        <ele>440.9</ele>
        <time>2021-08-23T16:26:05Z</time>
      </trkpt>
      <trkpt lat="45.4504" lon="5.74971">
        <ele>440.5</ele>
        <time>2021-08-23T16:26:06Z</time>
      </trkpt>
      <trkpt lat="45.45037" lon="5.74983">
        <ele>440.1</ele>
        <time>2021-08-23T16:26:07Z</time>
      </trkpt>
      <trkpt lat="45.45032" lon="5.74995">
        <ele>439.6</ele>
        <time>2021-08-23T16:26:08Z</time>
      </trkpt>
      <trkpt lat="45.45024" lon="5.75019">
        <ele>438.8</ele>
        <time>2021-08-23T16:26:10Z</time>
      </trkpt>
      <trkpt lat="45.45015" lon="5.75041">
        <ele>438</ele>
        <time>2021-08-23T16:26:12Z</time>
      </trkpt>
      <trkpt lat="45.45003" lon="5.75062">
        <ele>437.2</ele>
        <time>2021-08-23T16:26:14Z</time>
      </trkpt>
      <trkpt lat="45.44997" lon="5.75072">
        <ele>436.8</ele>
        <time>2021-08-23T16:26:15Z</time>
      </trkpt>
      <trkpt lat="45.44991" lon="5.75081">
        <ele>436.4</ele>
        <time>2021-08-23T16:26:16Z</time>
      </trkpt>
      <trkpt lat="45.44983" lon="5.75087">
        <ele>435.9</ele>
        <time>2021-08-23T16:26:17Z</time>
      </trkpt>
      <trkpt lat="45.44962" lon="5.75084">
        <ele>434.9</ele>
        <time>2021-08-23T16:26:19Z</time>
      </trkpt>
      <trkpt lat="45.44943" lon="5.75075">
        <ele>434.1</ele>
        <time>2021-08-23T16:26:21Z</time>
      </trkpt>
      <trkpt lat="45.44925" lon="5.75069">
        <ele>433.2</ele>
        <time>2021-08-23T16:26:23Z</time>
      </trkpt>
      <trkpt lat="45.44905" lon="5.75064">
        <ele>432.3</ele>
        <time>2021-08-23T16:26:25Z</time>
      </trkpt>
      <trkpt lat="45.44895" lon="5.75062">
        <ele>431.8</ele>
        <time>2021-08-23T16:26:26Z</time>
      </trkpt>
      <trkpt lat="45.44885" lon="5.75061">
        <ele>431.3</ele>
        <time>2021-08-23T16:26:27Z</time>
      </trkpt>
      <trkpt lat="45.44864" lon="5.75054">
        <ele>430.3</ele>
        <time>2021-08-23T16:26:29Z</time>
      </trkpt>
      <trkpt lat="45.44854" lon="5.7505">
        <ele>429.8</ele>
        <time>2021-08-23T16:26:30Z</time>
      </trkpt>
      <trkpt lat="45.44845" lon="5.75048">
        <ele>429.3</ele>
        <time>2021-08-23T16:26:31Z</time>
      </trkpt>
      <trkpt lat="45.44824" lon="5.75047">
        <ele>428.2</ele>
        <time>2021-08-23T16:26:33Z</time>
      </trkpt>
      <trkpt lat="45.44813" lon="5.75049">
        <ele>427.6</ele>
        <time>2021-08-23T16:26:34Z</time>
      </trkpt>
      <trkpt lat="45.44797" lon="5.75056">
        <ele>426.7</ele>
        <time>2021-08-23T16:26:36Z</time>
      </trkpt>
      <trkpt lat="45.44789" lon="5.75059">
        <ele>426.3</ele>
        <time>2021-08-23T16:26:37Z</time>
      </trkpt>
      <trkpt lat="45.44773" lon="5.7507">
        <ele>425.5</ele>
        <time>2021-08-23T16:26:39Z</time>
      </trkpt>
      <trkpt lat="45.4476" lon="5.75085">
        <ele>424.7</ele>
        <time>2021-08-23T16:26:41Z</time>
      </trkpt>
      <trkpt lat="45.44755" lon="5.75095">
        <ele>424.2</ele>
        <time>2021-08-23T16:26:42Z</time>
      </trkpt>
      <trkpt lat="45.44755" lon="5.75112">
        <ele>423.6</ele>
        <time>2021-08-23T16:26:43Z</time>
      </trkpt>
      <trkpt lat="45.44755" lon="5.75131">
        <ele>422.9</ele>
        <time>2021-08-23T16:26:44Z</time>
      </trkpt>
      <trkpt lat="45.44755" lon="5.75147">
        <ele>422.4</ele>
        <time>2021-08-23T16:26:45Z</time>
      </trkpt>
      <trkpt lat="45.44753" lon="5.75178">
        <ele>421.2</ele>
        <time>2021-08-23T16:26:47Z</time>
      </trkpt>
      <trkpt lat="45.44751" lon="5.75192">
        <ele>420.7</ele>
        <time>2021-08-23T16:26:48Z</time>
      </trkpt>
      <trkpt lat="45.4475" lon="5.75205">
        <ele>420.3</ele>
        <time>2021-08-23T16:26:49Z</time>
      </trkpt>
      <trkpt lat="45.44749" lon="5.75219">
        <ele>419.8</ele>
        <time>2021-08-23T16:26:50Z</time>
      </trkpt>
      <trkpt lat="45.44748" lon="5.75246">
        <ele>418.9</ele>
        <time>2021-08-23T16:26:52Z</time>
      </trkpt>
      <trkpt lat="45.44747" lon="5.75258">
        <ele>418.5</ele>
        <time>2021-08-23T16:26:53Z</time>
      </trkpt>
      <trkpt lat="45.44743" lon="5.75284">
        <ele>417.5</ele>
        <time>2021-08-23T16:26:56Z</time>
      </trkpt>
      <trkpt lat="45.44738" lon="5.75311">
        <ele>416.5</ele>
        <time>2021-08-23T16:26:58Z</time>
      </trkpt>
      <trkpt lat="45.44734" lon="5.75323">
        <ele>415.9</ele>
        <time>2021-08-23T16:26:59Z</time>
      </trkpt>
      <trkpt lat="45.44729" lon="5.75335">
        <ele>415.3</ele>
        <time>2021-08-23T16:27:00Z</time>
      </trkpt>
      <trkpt lat="45.44715" lon="5.75356">
        <ele>414.2</ele>
        <time>2021-08-23T16:27:02Z</time>
      </trkpt>
      <trkpt lat="45.44697" lon="5.75371">
        <ele>413.3</ele>
        <time>2021-08-23T16:27:04Z</time>
      </trkpt>
      <trkpt lat="45.44687" lon="5.75376">
        <ele>412.8</ele>
        <time>2021-08-23T16:27:05Z</time>
      </trkpt>
      <trkpt lat="45.44679" lon="5.75382">
        <ele>412.3</ele>
        <time>2021-08-23T16:27:06Z</time>
      </trkpt>
      <trkpt lat="45.44671" lon="5.75385">
        <ele>411.8</ele>
        <time>2021-08-23T16:27:07Z</time>
      </trkpt>
      <trkpt lat="45.4465" lon="5.7538">
        <ele>410.7</ele>
        <time>2021-08-23T16:27:09Z</time>
      </trkpt>
      <trkpt lat="45.44639" lon="5.75375">
        <ele>410</ele>
        <time>2021-08-23T16:27:10Z</time>
      </trkpt>
      <trkpt lat="45.44616" lon="5.75366">
        <ele>408.8</ele>
        <time>2021-08-23T16:27:12Z</time>
      </trkpt>
      <trkpt lat="45.44594" lon="5.7536">
        <ele>407.7</ele>
        <time>2021-08-23T16:27:14Z</time>
      </trkpt>
      <trkpt lat="45.44584" lon="5.75357">
        <ele>407.1</ele>
        <time>2021-08-23T16:27:15Z</time>
      </trkpt>
      <trkpt lat="45.44573" lon="5.75354">
        <ele>406.6</ele>
        <time>2021-08-23T16:27:16Z</time>
      </trkpt>
      <trkpt lat="45.44563" lon="5.75352">
        <ele>406.1</ele>
        <time>2021-08-23T16:27:17Z</time>
      </trkpt>
      <trkpt lat="45.44543" lon="5.75348">
        <ele>405.2</ele>
        <time>2021-08-23T16:27:19Z</time>
      </trkpt>
      <trkpt lat="45.44523" lon="5.75344">
        <ele>404.3</ele>
        <time>2021-08-23T16:27:21Z</time>
      </trkpt>
      <trkpt lat="45.44504" lon="5.75341">
        <ele>403.4</ele>
        <time>2021-08-23T16:27:23Z</time>
      </trkpt>
      <trkpt lat="45.44484" lon="5.75339">
        <ele>402.4</ele>
        <time>2021-08-23T16:27:25Z</time>
      </trkpt>
      <trkpt lat="45.44474" lon="5.75337">
        <ele>401.9</ele>
        <time>2021-08-23T16:27:26Z</time>
      </trkpt>
      <trkpt lat="45.44454" lon="5.75331">
        <ele>401</ele>
        <time>2021-08-23T16:27:28Z</time>
      </trkpt>
      <trkpt lat="45.44444" lon="5.75329">
        <ele>400.6</ele>
        <time>2021-08-23T16:27:29Z</time>
      </trkpt>
      <trkpt lat="45.44435" lon="5.75328">
        <ele>400.3</ele>
        <time>2021-08-23T16:27:30Z</time>
      </trkpt>
      <trkpt lat="45.44416" lon="5.75324">
        <ele>399.7</ele>
        <time>2021-08-23T16:27:32Z</time>
      </trkpt>
      <trkpt lat="45.44398" lon="5.75319">
        <ele>399.2</ele>
        <time>2021-08-23T16:27:34Z</time>
      </trkpt>
      <trkpt lat="45.4439" lon="5.75318">
        <ele>399</ele>
        <time>2021-08-23T16:27:35Z</time>
      </trkpt>
      <trkpt lat="45.44382" lon="5.75316">
        <ele>398.7</ele>
        <time>2021-08-23T16:27:36Z</time>
      </trkpt>
      <trkpt lat="45.44373" lon="5.75316">
        <ele>398.5</ele>
        <time>2021-08-23T16:27:37Z</time>
      </trkpt>
      <trkpt lat="45.44358" lon="5.75315">
        <ele>398.1</ele>
        <time>2021-08-23T16:27:39Z</time>
      </trkpt>
      <trkpt lat="45.44349" lon="5.75314">
        <ele>397.8</ele>
        <time>2021-08-23T16:27:40Z</time>
      </trkpt>
      <trkpt lat="45.44341" lon="5.75313">
        <ele>397.5</ele>
        <time>2021-08-23T16:27:41Z</time>
      </trkpt>
      <trkpt lat="45.44332" lon="5.75313">
        <ele>397.3</ele>
        <time>2021-08-23T16:27:42Z</time>
      </trkpt>
      <trkpt lat="45.44318" lon="5.75318">
        <ele>396.9</ele>
        <time>2021-08-23T16:27:44Z</time>
      </trkpt>
      <trkpt lat="45.44303" lon="5.75316">
        <ele>396.5</ele>
        <time>2021-08-23T16:27:46Z</time>
      </trkpt>
      <trkpt lat="45.44287" lon="5.75314">
        <ele>396.1</ele>
        <time>2021-08-23T16:27:48Z</time>
      </trkpt>
      <trkpt lat="45.44272" lon="5.75313">
        <ele>395.7</ele>
        <time>2021-08-23T16:27:50Z</time>
      </trkpt>
      <trkpt lat="45.44265" lon="5.75314">
        <ele>395.5</ele>
        <time>2021-08-23T16:27:51Z</time>
      </trkpt>
      <trkpt lat="45.44258" lon="5.75315">
        <ele>395.3</ele>
        <time>2021-08-23T16:27:52Z</time>
      </trkpt>
      <trkpt lat="45.44251" lon="5.75314">
        <ele>395.1</ele>
        <time>2021-08-23T16:27:53Z</time>
      </trkpt>
      <trkpt lat="45.44243" lon="5.75312">
        <ele>395</ele>
        <time>2021-08-23T16:27:54Z</time>
      </trkpt>
      <trkpt lat="45.44235" lon="5.7531">
        <ele>394.8</ele>
        <time>2021-08-23T16:27:55Z</time>
      </trkpt>
      <trkpt lat="45.4422" lon="5.75303">
        <ele>394.4</ele>
        <time>2021-08-23T16:27:57Z</time>
      </trkpt>
      <trkpt lat="45.44207" lon="5.75299">
        <ele>394</ele>
        <time>2021-08-23T16:27:59Z</time>
      </trkpt>
      <trkpt lat="45.44198" lon="5.75295">
        <ele>393.8</ele>
        <time>2021-08-23T16:28:00Z</time>
      </trkpt>
      <trkpt lat="45.4418" lon="5.75286">
        <ele>393.2</ele>
        <time>2021-08-23T16:28:02Z</time>
      </trkpt>
      <trkpt lat="45.4416" lon="5.75279">
        <ele>392.7</ele>
        <time>2021-08-23T16:28:04Z</time>
      </trkpt>
      <trkpt lat="45.44152" lon="5.75278">
        <ele>392.4</ele>
        <time>2021-08-23T16:28:05Z</time>
      </trkpt>
      <trkpt lat="45.44144" lon="5.75276">
        <ele>392.3</ele>
        <time>2021-08-23T16:28:06Z</time>
      </trkpt>
      <trkpt lat="45.44128" lon="5.75272">
        <ele>391.9</ele>
        <time>2021-08-23T16:28:08Z</time>
      </trkpt>
      <trkpt lat="45.44119" lon="5.7527">
        <ele>391.7</ele>
        <time>2021-08-23T16:28:09Z</time>
      </trkpt>
      <trkpt lat="45.44101" lon="5.75268">
        <ele>391.5</ele>
        <time>2021-08-23T16:28:11Z</time>
      </trkpt>
      <trkpt lat="45.44083" lon="5.75266">
        <ele>391.3</ele>
        <time>2021-08-23T16:28:13Z</time>
      </trkpt>
      <trkpt lat="45.44068" lon="5.75264">
        <ele>391.2</ele>
        <time>2021-08-23T16:28:15Z</time>
      </trkpt>
      <trkpt lat="45.44054" lon="5.75261">
        <ele>391.1</ele>
        <time>2021-08-23T16:28:17Z</time>
      </trkpt>
      <trkpt lat="45.44048" lon="5.75259">
        <ele>391.1</ele>
        <time>2021-08-23T16:28:18Z</time>
      </trkpt>
      <trkpt lat="45.44041" lon="5.75257">
        <ele>391.1</ele>
        <time>2021-08-23T16:28:19Z</time>
      </trkpt>
      <trkpt lat="45.44028" lon="5.75255">
        <ele>391</ele>
        <time>2021-08-23T16:28:21Z</time>
      </trkpt>
      <trkpt lat="45.44015" lon="5.75255">
        <ele>391</ele>
        <time>2021-08-23T16:28:23Z</time>
      </trkpt>
      <trkpt lat="45.44" lon="5.75253">
        <ele>391</ele>
        <time>2021-08-23T16:28:25Z</time>
      </trkpt>
      <trkpt lat="45.43993" lon="5.75252">
        <ele>391</ele>
        <time>2021-08-23T16:28:26Z</time>
      </trkpt>
      <trkpt lat="45.43978" lon="5.75249">
        <ele>391</ele>
        <time>2021-08-23T16:28:28Z</time>
      </trkpt>
      <trkpt lat="45.43971" lon="5.75247">
        <ele>391</ele>
        <time>2021-08-23T16:28:29Z</time>
      </trkpt>
      <trkpt lat="45.43965" lon="5.75245">
        <ele>391</ele>
        <time>2021-08-23T16:28:30Z</time>
      </trkpt>
      <trkpt lat="45.43951" lon="5.7524">
        <ele>390.9</ele>
        <time>2021-08-23T16:28:32Z</time>
      </trkpt>
      <trkpt lat="45.43939" lon="5.75237">
        <ele>390.9</ele>
        <time>2021-08-23T16:28:34Z</time>
      </trkpt>
      <trkpt lat="45.43933" lon="5.75235">
        <ele>390.8</ele>
        <time>2021-08-23T16:28:35Z</time>
      </trkpt>
      <trkpt lat="45.4392" lon="5.75232">
        <ele>390.8</ele>
        <time>2021-08-23T16:28:37Z</time>
      </trkpt>
      <trkpt lat="45.43915" lon="5.75231">
        <ele>390.8</ele>
        <time>2021-08-23T16:28:38Z</time>
      </trkpt>
      <trkpt lat="45.43909" lon="5.7523">
        <ele>390.8</ele>
        <time>2021-08-23T16:28:39Z</time>
      </trkpt>
      <trkpt lat="45.43903" lon="5.75229">
        <ele>390.8</ele>
        <time>2021-08-23T16:28:40Z</time>
      </trkpt>
      <trkpt lat="45.43894" lon="5.75225">
        <ele>390.8</ele>
        <time>2021-08-23T16:28:42Z</time>
      </trkpt>
      <trkpt lat="45.43886" lon="5.75221">
        <ele>390.8</ele>
        <time>2021-08-23T16:28:44Z</time>
      </trkpt>
      <trkpt lat="45.43881" lon="5.7522">
        <ele>390.8</ele>
        <time>2021-08-23T16:28:45Z</time>
      </trkpt>
      <trkpt lat="45.43876" lon="5.75219">
        <ele>390.8</ele>
        <time>2021-08-23T16:28:46Z</time>
      </trkpt>
      <trkpt lat="45.43866" lon="5.7522">
        <ele>390.7</ele>
        <time>2021-08-23T16:28:48Z</time>
      </trkpt>
      <trkpt lat="45.43861" lon="5.75221">
        <ele>390.7</ele>
        <time>2021-08-23T16:28:49Z</time>
      </trkpt>
      <trkpt lat="45.43856" lon="5.75221">
        <ele>390.6</ele>
        <time>2021-08-23T16:28:50Z</time>
      </trkpt>
      <trkpt lat="45.43847" lon="5.75223">
        <ele>390.6</ele>
        <time>2021-08-23T16:28:52Z</time>
      </trkpt>
      <trkpt lat="45.43842" lon="5.75223">
        <ele>390.6</ele>
        <time>2021-08-23T16:28:53Z</time>
      </trkpt>
      <trkpt lat="45.43832" lon="5.75224">
        <ele>390.6</ele>
        <time>2021-08-23T16:28:55Z</time>
      </trkpt>
      <trkpt lat="45.43826" lon="5.75226">
        <ele>390.7</ele>
        <time>2021-08-23T16:28:56Z</time>
      </trkpt>
      <trkpt lat="45.43815" lon="5.75228">
        <ele>390.7</ele>
        <time>2021-08-23T16:28:58Z</time>
      </trkpt>
      <trkpt lat="45.4381" lon="5.75229">
        <ele>390.7</ele>
        <time>2021-08-23T16:28:59Z</time>
      </trkpt>
      <trkpt lat="45.43801" lon="5.75228">
        <ele>390.8</ele>
        <time>2021-08-23T16:29:01Z</time>
      </trkpt>
      <trkpt lat="45.43798" lon="5.75227">
        <ele>390.9</ele>
        <time>2021-08-23T16:29:02Z</time>
      </trkpt>
      <trkpt lat="45.4379" lon="5.75226">
        <ele>391</ele>
        <time>2021-08-23T16:29:04Z</time>
      </trkpt>
      <trkpt lat="45.43786" lon="5.75225">
        <ele>391</ele>
        <time>2021-08-23T16:29:05Z</time>
      </trkpt>
      <trkpt lat="45.43781" lon="5.75224">
        <ele>391</ele>
        <time>2021-08-23T16:29:06Z</time>
      </trkpt>
      <trkpt lat="45.43777" lon="5.75221">
        <ele>390.9</ele>
        <time>2021-08-23T16:29:08Z</time>
      </trkpt>
      <trkpt lat="45.43776" lon="5.75221">
        <ele>390.9</ele>
        <time>2021-08-23T16:29:09Z</time>
      </trkpt>
      <trkpt lat="45.43775" lon="5.7522">
        <ele>390.9</ele>
        <time>2021-08-23T16:29:11Z</time>
      </trkpt>
      <trkpt lat="45.43776" lon="5.75221">
        <ele>390.9</ele>
        <time>2021-08-23T16:29:12Z</time>
      </trkpt>
      <trkpt lat="45.43777" lon="5.7522">
        <ele>390.9</ele>
        <time>2021-08-23T16:29:14Z</time>
      </trkpt>
      <trkpt lat="45.43777" lon="5.7522">
        <ele>390.9</ele>
        <time>2021-08-23T16:29:15Z</time>
      </trkpt>
      <trkpt lat="45.43777" lon="5.7522">
        <ele>390.9</ele>
        <time>2021-08-23T16:29:16Z</time>
      </trkpt>
      <trkpt lat="45.43777" lon="5.7522">
        <ele>390.9</ele>
        <time>2021-08-23T16:29:18Z</time>
      </trkpt>
      <trkpt lat="45.43776" lon="5.75221">
        <ele>390.9</ele>
        <time>2021-08-23T16:29:20Z</time>
      </trkpt>
      <trkpt lat="45.4377" lon="5.75224">
        <ele>390.8</ele>
        <time>2021-08-23T16:29:24Z</time>
      </trkpt>
      <trkpt lat="45.43766" lon="5.75226">
        <ele>390.8</ele>
        <time>2021-08-23T16:29:25Z</time>
      </trkpt>
      <trkpt lat="45.43762" lon="5.75231">
        <ele>390.8</ele>
        <time>2021-08-23T16:29:26Z</time>
      </trkpt>
      <trkpt lat="45.43758" lon="5.75234">
        <ele>390.8</ele>
        <time>2021-08-23T16:29:27Z</time>
      </trkpt>
      <trkpt lat="45.43752" lon="5.7524">
        <ele>390.9</ele>
        <time>2021-08-23T16:29:29Z</time>
      </trkpt>
      <trkpt lat="45.43745" lon="5.75247">
        <ele>391</ele>
        <time>2021-08-23T16:29:30Z</time>
      </trkpt>
      <trkpt lat="45.43739" lon="5.75254">
        <ele>391.1</ele>
        <time>2021-08-23T16:29:31Z</time>
      </trkpt>
      <trkpt lat="45.43736" lon="5.75259">
        <ele>391.1</ele>
        <time>2021-08-23T16:29:32Z</time>
      </trkpt>
      <trkpt lat="45.43735" lon="5.75264">
        <ele>391.2</ele>
        <time>2021-08-23T16:29:34Z</time>
      </trkpt>
      <trkpt lat="45.43735" lon="5.75265">
        <ele>391.2</ele>
        <time>2021-08-23T16:29:35Z</time>
      </trkpt>
      <trkpt lat="45.43735" lon="5.75274">
        <ele>391.3</ele>
        <time>2021-08-23T16:29:36Z</time>
      </trkpt>
      <trkpt lat="45.43735" lon="5.75274">
        <ele>391.3</ele>
        <time>2021-08-23T16:29:36Z</time>
      </trkpt>
      <trkpt lat="45.43734" lon="5.75286">
        <ele>391.4</ele>
        <time>2021-08-23T16:29:38Z</time>
      </trkpt>
      <trkpt lat="45.43736" lon="5.75305">
        <ele>391.7</ele>
        <time>2021-08-23T16:29:40Z</time>
      </trkpt>
      <trkpt lat="45.43735" lon="5.7532">
        <ele>391.9</ele>
        <time>2021-08-23T16:29:41Z</time>
      </trkpt>
      <trkpt lat="45.43731" lon="5.75329">
        <ele>392</ele>
        <time>2021-08-23T16:29:42Z</time>
      </trkpt>
      <trkpt lat="45.43727" lon="5.75334">
        <ele>392.2</ele>
        <time>2021-08-23T16:29:43Z</time>
      </trkpt>
      <trkpt lat="45.43724" lon="5.75337">
        <ele>392.2</ele>
        <time>2021-08-23T16:29:45Z</time>
      </trkpt>
      <trkpt lat="45.4372" lon="5.75338">
        <ele>392.2</ele>
        <time>2021-08-23T16:29:46Z</time>
      </trkpt>
      <trkpt lat="45.43712" lon="5.7534">
        <ele>392.2</ele>
        <time>2021-08-23T16:29:47Z</time>
      </trkpt>
      <trkpt lat="45.43708" lon="5.7534">
        <ele>392.2</ele>
        <time>2021-08-23T16:29:48Z</time>
      </trkpt>
      <trkpt lat="45.43702" lon="5.75339">
        <ele>392.1</ele>
        <time>2021-08-23T16:29:50Z</time>
      </trkpt>
      <trkpt lat="45.43697" lon="5.75339">
        <ele>392.1</ele>
        <time>2021-08-23T16:29:51Z</time>
      </trkpt>
      <trkpt lat="45.43692" lon="5.7534">
        <ele>392.1</ele>
        <time>2021-08-23T16:29:52Z</time>
      </trkpt>
      <trkpt lat="45.43687" lon="5.75343">
        <ele>392.2</ele>
        <time>2021-08-23T16:29:54Z</time>
      </trkpt>
      <trkpt lat="45.43683" lon="5.75342">
        <ele>392.2</ele>
        <time>2021-08-23T16:29:55Z</time>
      </trkpt>
      <trkpt lat="45.4368" lon="5.75342">
        <ele>392.2</ele>
        <time>2021-08-23T16:29:56Z</time>
      </trkpt>
      <trkpt lat="45.43676" lon="5.75344">
        <ele>392.2</ele>
        <time>2021-08-23T16:29:57Z</time>
      </trkpt>
      <trkpt lat="45.43677" lon="5.75349">
        <ele>392.3</ele>
        <time>2021-08-23T16:29:59Z</time>
      </trkpt>
      <trkpt lat="45.43676" lon="5.75356">
        <ele>392.3</ele>
        <time>2021-08-23T16:30:00Z</time>
      </trkpt>
      <trkpt lat="45.43674" lon="5.75363">
        <ele>392.3</ele>
        <time>2021-08-23T16:30:02Z</time>
      </trkpt>
      <trkpt lat="45.43673" lon="5.75366">
        <ele>392.4</ele>
        <time>2021-08-23T16:30:03Z</time>
      </trkpt>
      <trkpt lat="45.43671" lon="5.75369">
        <ele>392.4</ele>
        <time>2021-08-23T16:30:05Z</time>
      </trkpt>
      <trkpt lat="45.43669" lon="5.7537">
        <ele>392.4</ele>
        <time>2021-08-23T16:30:06Z</time>
      </trkpt>
      <trkpt lat="45.43664" lon="5.75366">
        <ele>392.5</ele>
        <time>2021-08-23T16:30:08Z</time>
      </trkpt>
      <trkpt lat="45.43659" lon="5.75363">
        <ele>392.5</ele>
        <time>2021-08-23T16:30:09Z</time>
      </trkpt>
      <trkpt lat="45.43655" lon="5.7536">
        <ele>392.6</ele>
        <time>2021-08-23T16:30:10Z</time>
      </trkpt>
      <trkpt lat="45.43651" lon="5.75359">
        <ele>392.7</ele>
        <time>2021-08-23T16:30:12Z</time>
      </trkpt>
      <trkpt lat="45.43646" lon="5.7536">
        <ele>392.7</ele>
        <time>2021-08-23T16:30:13Z</time>
      </trkpt>
      <trkpt lat="45.43642" lon="5.75362">
        <ele>392.8</ele>
        <time>2021-08-23T16:30:14Z</time>
      </trkpt>
      <trkpt lat="45.43638" lon="5.75363">
        <ele>392.9</ele>
        <time>2021-08-23T16:30:15Z</time>
      </trkpt>
      <trkpt lat="45.43634" lon="5.75363">
        <ele>393</ele>
        <time>2021-08-23T16:30:17Z</time>
      </trkpt>
      <trkpt lat="45.43631" lon="5.75363">
        <ele>393.1</ele>
        <time>2021-08-23T16:30:18Z</time>
      </trkpt>
      <trkpt lat="45.43629" lon="5.75364">
        <ele>393.2</ele>
        <time>2021-08-23T16:30:19Z</time>
      </trkpt>
      <trkpt lat="45.43628" lon="5.75364">
        <ele>393.2</ele>
        <time>2021-08-23T16:30:21Z</time>
      </trkpt>
      <trkpt lat="45.43628" lon="5.75364">
        <ele>393.3</ele>
        <time>2021-08-23T16:30:22Z</time>
      </trkpt>
      <trkpt lat="45.43627" lon="5.75364">
        <ele>393.3</ele>
        <time>2021-08-23T16:30:23Z</time>
      </trkpt>
      <trkpt lat="45.43626" lon="5.7537">
        <ele>393.5</ele>
        <time>2021-08-23T16:30:25Z</time>
      </trkpt>
      <trkpt lat="45.43623" lon="5.75376">
        <ele>393.7</ele>
        <time>2021-08-23T16:30:27Z</time>
      </trkpt>
      <trkpt lat="45.43622" lon="5.7538">
        <ele>393.9</ele>
        <time>2021-08-23T16:30:28Z</time>
      </trkpt>
      <trkpt lat="45.4362" lon="5.75389">
        <ele>394.3</ele>
        <time>2021-08-23T16:30:30Z</time>
      </trkpt>
      <trkpt lat="45.4362" lon="5.75394">
        <ele>394.5</ele>
        <time>2021-08-23T16:30:31Z</time>
      </trkpt>
      <trkpt lat="45.4362" lon="5.75399">
        <ele>394.8</ele>
        <time>2021-08-23T16:30:32Z</time>
      </trkpt>
      <trkpt lat="45.43621" lon="5.75401">
        <ele>394.9</ele>
        <time>2021-08-23T16:30:34Z</time>
      </trkpt>
      <trkpt lat="45.43618" lon="5.75402">
        <ele>395.1</ele>
        <time>2021-08-23T16:30:35Z</time>
      </trkpt>
      <trkpt lat="45.43616" lon="5.75403">
        <ele>395</ele>
        <time>2021-08-23T16:30:36Z</time>
      </trkpt>
      <trkpt lat="45.43612" lon="5.75403">
        <ele>394.9</ele>
        <time>2021-08-23T16:30:38Z</time>
      </trkpt>
      <trkpt lat="45.43609" lon="5.75403">
        <ele>394.7</ele>
        <time>2021-08-23T16:30:39Z</time>
      </trkpt>
      <trkpt lat="45.43606" lon="5.75403">
        <ele>394.6</ele>
        <time>2021-08-23T16:30:40Z</time>
      </trkpt>
      <trkpt lat="45.436" lon="5.75402">
        <ele>394.4</ele>
        <time>2021-08-23T16:30:42Z</time>
      </trkpt>
      <trkpt lat="45.43597" lon="5.75401">
        <ele>394.2</ele>
        <time>2021-08-23T16:30:43Z</time>
      </trkpt>
      <trkpt lat="45.43594" lon="5.754">
        <ele>394.1</ele>
        <time>2021-08-23T16:30:44Z</time>
      </trkpt>
      <trkpt lat="45.43589" lon="5.754">
        <ele>393.9</ele>
        <time>2021-08-23T16:30:46Z</time>
      </trkpt>
      <trkpt lat="45.43585" lon="5.75402">
        <ele>393.7</ele>
        <time>2021-08-23T16:30:47Z</time>
      </trkpt>
      <trkpt lat="45.43582" lon="5.75403">
        <ele>393.6</ele>
        <time>2021-08-23T16:30:48Z</time>
      </trkpt>
      <trkpt lat="45.43578" lon="5.75404">
        <ele>393.4</ele>
        <time>2021-08-23T16:30:49Z</time>
      </trkpt>
      <trkpt lat="45.43577" lon="5.75405">
        <ele>393.4</ele>
        <time>2021-08-23T16:30:51Z</time>
      </trkpt>
      <trkpt lat="45.43577" lon="5.75405">
        <ele>393.4</ele>
        <time>2021-08-23T16:30:52Z</time>
      </trkpt>
      <trkpt lat="45.43529" lon="5.75408">
        <ele>391.4</ele>
        <time>2021-08-23T16:31:07Z</time>
      </trkpt>
      <trkpt lat="45.43515" lon="5.75421">
        <ele>390.6</ele>
        <time>2021-08-23T16:31:09Z</time>
      </trkpt>
      <trkpt lat="45.43508" lon="5.75427">
        <ele>390.5</ele>
        <time>2021-08-23T16:31:10Z</time>
      </trkpt>
      <trkpt lat="45.43501" lon="5.75434">
        <ele>390.5</ele>
        <time>2021-08-23T16:31:11Z</time>
      </trkpt>
      <trkpt lat="45.4349" lon="5.75455">
        <ele>390.2</ele>
        <time>2021-08-23T16:31:13Z</time>
      </trkpt>
      <trkpt lat="45.43481" lon="5.75467">
        <ele>390.1</ele>
        <time>2021-08-23T16:31:15Z</time>
      </trkpt>
      <trkpt lat="45.43476" lon="5.75476">
        <ele>390.1</ele>
        <time>2021-08-23T16:31:16Z</time>
      </trkpt>
      <trkpt lat="45.43471" lon="5.75486">
        <ele>390</ele>
        <time>2021-08-23T16:31:18Z</time>
      </trkpt>
      <trkpt lat="45.43468" lon="5.7549">
        <ele>390</ele>
        <time>2021-08-23T16:31:19Z</time>
      </trkpt>
      <trkpt lat="45.43462" lon="5.75498">
        <ele>389.9</ele>
        <time>2021-08-23T16:31:21Z</time>
      </trkpt>
      <trkpt lat="45.43459" lon="5.75501">
        <ele>389.9</ele>
        <time>2021-08-23T16:31:22Z</time>
      </trkpt>
      <trkpt lat="45.43456" lon="5.75503">
        <ele>389.9</ele>
        <time>2021-08-23T16:31:23Z</time>
      </trkpt>
      <trkpt lat="45.43452" lon="5.75506">
        <ele>389.9</ele>
        <time>2021-08-23T16:31:24Z</time>
      </trkpt>
      <trkpt lat="45.43447" lon="5.75509">
        <ele>389.8</ele>
        <time>2021-08-23T16:31:25Z</time>
      </trkpt>
      <trkpt lat="45.43443" lon="5.75512">
        <ele>389.8</ele>
        <time>2021-08-23T16:31:26Z</time>
      </trkpt>
      <trkpt lat="45.43439" lon="5.75516">
        <ele>389.8</ele>
        <time>2021-08-23T16:31:28Z</time>
      </trkpt>
      <trkpt lat="45.43434" lon="5.75523">
        <ele>389.7</ele>
        <time>2021-08-23T16:31:29Z</time>
      </trkpt>
      <trkpt lat="45.43432" lon="5.75527">
        <ele>387.5</ele>
        <time>2021-08-23T16:31:30Z</time>
      </trkpt>
      <trkpt lat="45.43433" lon="5.75527">
        <ele>387.4</ele>
        <time>2021-08-23T16:31:32Z</time>
      </trkpt>
      <trkpt lat="45.43435" lon="5.75526">
        <ele>387.4</ele>
        <time>2021-08-23T16:31:33Z</time>
      </trkpt>
      <trkpt lat="45.43435" lon="5.75525">
        <ele>387.4</ele>
        <time>2021-08-23T16:31:34Z</time>
      </trkpt>
      <trkpt lat="45.43435" lon="5.75525">
        <ele>387.4</ele>
        <time>2021-08-23T16:31:36Z</time>
      </trkpt>
      <trkpt lat="45.43434" lon="5.75524">
        <ele>387.4</ele>
        <time>2021-08-23T16:31:37Z</time>
      </trkpt>
      <trkpt lat="45.43433" lon="5.75522">
        <ele>387.3</ele>
        <time>2021-08-23T16:31:39Z</time>
      </trkpt>
      <trkpt lat="45.43432" lon="5.75522">
        <ele>387.3</ele>
        <time>2021-08-23T16:31:40Z</time>
      </trkpt>
      <trkpt lat="45.43422" lon="5.75448">
        <ele>386.5</ele>
        <time>2021-08-23T16:32:05Z</time>
      </trkpt>
      <trkpt lat="45.43422" lon="5.75443">
        <ele>386.4</ele>
        <time>2021-08-23T16:32:06Z</time>
      </trkpt>
      <trkpt lat="45.43421" lon="5.75439">
        <ele>386.4</ele>
        <time>2021-08-23T16:32:07Z</time>
      </trkpt>
      <trkpt lat="45.4342" lon="5.75437">
        <ele>386.4</ele>
        <time>2021-08-23T16:32:08Z</time>
      </trkpt>
      <trkpt lat="45.4342" lon="5.75435">
        <ele>386.3</ele>
        <time>2021-08-23T16:32:09Z</time>
      </trkpt>
      <trkpt lat="45.4342" lon="5.75435">
        <ele>386.3</ele>
        <time>2021-08-23T16:32:11Z</time>
      </trkpt>
      <trkpt lat="45.4342" lon="5.75434">
        <ele>386.3</ele>
        <time>2021-08-23T16:32:12Z</time>
      </trkpt>
      <trkpt lat="45.4342" lon="5.75434">
        <ele>386.4</ele>
        <time>2021-08-23T16:32:13Z</time>
      </trkpt>
      <trkpt lat="45.4342" lon="5.75433">
        <ele>386.4</ele>
        <time>2021-08-23T16:32:14Z</time>
      </trkpt>
      <trkpt lat="45.43419" lon="5.75431">
        <ele>386.4</ele>
        <time>2021-08-23T16:32:17Z</time>
      </trkpt>
      <trkpt lat="45.4342" lon="5.75424">
        <ele>386.5</ele>
        <time>2021-08-23T16:32:20Z</time>
      </trkpt>
      <trkpt lat="45.4342" lon="5.75424">
        <ele>386.5</ele>
        <time>2021-08-23T16:32:23Z</time>
      </trkpt>
      <trkpt lat="45.43419" lon="5.75425">
        <ele>386.5</ele>
        <time>2021-08-23T16:32:24Z</time>
      </trkpt>
      <trkpt lat="45.43409" lon="5.75488">
        <ele>387.4</ele>
        <time>2021-08-23T16:32:31Z</time>
      </trkpt>
      <trkpt lat="45.43408" lon="5.75502">
        <ele>389.7</ele>
        <time>2021-08-23T16:32:37Z</time>
      </trkpt>
      <trkpt lat="45.43408" lon="5.75502">
        <ele>389.7</ele>
        <time>2021-08-23T16:32:44Z</time>
      </trkpt>
      <trkpt lat="45.43409" lon="5.75503">
        <ele>389.7</ele>
        <time>2021-08-23T16:32:50Z</time>
      </trkpt>
      <trkpt lat="45.4341" lon="5.75503">
        <ele>389.7</ele>
        <time>2021-08-23T16:35:12Z</time>
      </trkpt>
      <trkpt lat="45.43411" lon="5.75504">
        <ele>389.7</ele>
        <time>2021-08-23T16:35:19Z</time>
      </trkpt>
      <trkpt lat="45.43412" lon="5.75504">
        <ele>389.7</ele>
        <time>2021-08-23T16:35:20Z</time>
      </trkpt>
      <trkpt lat="45.43413" lon="5.75505">
        <ele>389.7</ele>
        <time>2021-08-23T16:35:25Z</time>
      </trkpt>
      <trkpt lat="45.43414" lon="5.75505">
        <ele>389.7</ele>
        <time>2021-08-23T16:35:32Z</time>
      </trkpt>
      <trkpt lat="45.43414" lon="5.75505">
        <ele>389.7</ele>
        <time>2021-08-23T16:35:38Z</time>
      </trkpt>
      <trkpt lat="45.43415" lon="5.75506">
        <ele>389.7</ele>
        <time>2021-08-23T16:35:52Z</time>
      </trkpt>
      <trkpt lat="45.43416" lon="5.75506">
        <ele>389.7</ele>
        <time>2021-08-23T16:35:59Z</time>
      </trkpt>
      <trkpt lat="45.43417" lon="5.75507">
        <ele>389.7</ele>
        <time>2021-08-23T16:36:01Z</time>
      </trkpt>
      <trkpt lat="45.43418" lon="5.75507">
        <ele>389.7</ele>
        <time>2021-08-23T16:36:05Z</time>
      </trkpt>
      <trkpt lat="45.43419" lon="5.75508">
        <ele>389.7</ele>
        <time>2021-08-23T16:36:11Z</time>
      </trkpt>
      <trkpt lat="45.43419" lon="5.75508">
        <ele>389.7</ele>
        <time>2021-08-23T16:36:13Z</time>
      </trkpt>
      <trkpt lat="45.4342" lon="5.75509">
        <ele>389.7</ele>
        <time>2021-08-23T16:36:15Z</time>
      </trkpt>
      <trkpt lat="45.43421" lon="5.75509">
        <ele>389.7</ele>
        <time>2021-08-23T16:36:17Z</time>
      </trkpt>
      <trkpt lat="45.43422" lon="5.7551">
        <ele>389.7</ele>
        <time>2021-08-23T16:36:18Z</time>
      </trkpt>
      <trkpt lat="45.43423" lon="5.7551">
        <ele>389.7</ele>
        <time>2021-08-23T16:36:25Z</time>
      </trkpt>
      <trkpt lat="45.43424" lon="5.75511">
        <ele>389.7</ele>
        <time>2021-08-23T16:36:45Z</time>
      </trkpt>
      <trkpt lat="45.43425" lon="5.75511">
        <ele>389.7</ele>
        <time>2021-08-23T16:36:46Z</time>
      </trkpt>
      <trkpt lat="45.43429" lon="5.75515">
        <ele>389.8</ele>
        <time>2021-08-23T16:36:47Z</time>
      </trkpt>
      <trkpt lat="45.43439" lon="5.75525">
        <ele>389.3</ele>
        <time>2021-08-23T16:36:49Z</time>
      </trkpt>
      <trkpt lat="45.43451" lon="5.75534">
        <ele>388.9</ele>
        <time>2021-08-23T16:36:50Z</time>
      </trkpt>
      <trkpt lat="45.43456" lon="5.75539">
        <ele>388.7</ele>
        <time>2021-08-23T16:36:52Z</time>
      </trkpt>
      <trkpt lat="45.43462" lon="5.75547">
        <ele>388.5</ele>
        <time>2021-08-23T16:36:53Z</time>
      </trkpt>
      <trkpt lat="45.43466" lon="5.75552">
        <ele>388.3</ele>
        <time>2021-08-23T16:36:55Z</time>
      </trkpt>
      <trkpt lat="45.43468" lon="5.75556">
        <ele>388.2</ele>
        <time>2021-08-23T16:36:56Z</time>
      </trkpt>
      <trkpt lat="45.4347" lon="5.75561">
        <ele>388.1</ele>
        <time>2021-08-23T16:36:57Z</time>
      </trkpt>
      <trkpt lat="45.43473" lon="5.75569">
        <ele>388</ele>
        <time>2021-08-23T16:36:58Z</time>
      </trkpt>
      <trkpt lat="45.43476" lon="5.75575">
        <ele>388</ele>
        <time>2021-08-23T16:36:59Z</time>
      </trkpt>
      <trkpt lat="45.43477" lon="5.75581">
        <ele>387.9</ele>
        <time>2021-08-23T16:37:01Z</time>
      </trkpt>
      <trkpt lat="45.43478" lon="5.75591">
        <ele>387.8</ele>
        <time>2021-08-23T16:37:03Z</time>
      </trkpt>
      <trkpt lat="45.43478" lon="5.75596">
        <ele>387.8</ele>
        <time>2021-08-23T16:37:04Z</time>
      </trkpt>
      <trkpt lat="45.43478" lon="5.75603">
        <ele>387.7</ele>
        <time>2021-08-23T16:37:06Z</time>
      </trkpt>
      <trkpt lat="45.43478" lon="5.75608">
        <ele>387.7</ele>
        <time>2021-08-23T16:37:07Z</time>
      </trkpt>
      <trkpt lat="45.43477" lon="5.75611">
        <ele>387.7</ele>
        <time>2021-08-23T16:37:08Z</time>
      </trkpt>
      <trkpt lat="45.43477" lon="5.75615">
        <ele>387.7</ele>
        <time>2021-08-23T16:37:10Z</time>
      </trkpt>
      <trkpt lat="45.43474" lon="5.7562">
        <ele>387.7</ele>
        <time>2021-08-23T16:37:12Z</time>
      </trkpt>
      <trkpt lat="45.43473" lon="5.75624">
        <ele>387.7</ele>
        <time>2021-08-23T16:37:14Z</time>
      </trkpt>
      <trkpt lat="45.43469" lon="5.75625">
        <ele>387.7</ele>
        <time>2021-08-23T16:37:15Z</time>
      </trkpt>
      <trkpt lat="45.43467" lon="5.75626">
        <ele>387.7</ele>
        <time>2021-08-23T16:37:17Z</time>
      </trkpt>
      <trkpt lat="45.43467" lon="5.75625">
        <ele>387.7</ele>
        <time>2021-08-23T16:37:18Z</time>
      </trkpt>
      <trkpt lat="45.43465" lon="5.75625">
        <ele>387.7</ele>
        <time>2021-08-23T16:37:20Z</time>
      </trkpt>
      <trkpt lat="45.43464" lon="5.75626">
        <ele>387.7</ele>
        <time>2021-08-23T16:37:21Z</time>
      </trkpt>
      <trkpt lat="45.43463" lon="5.75626">
        <ele>387.7</ele>
        <time>2021-08-23T16:37:22Z</time>
      </trkpt>
      <trkpt lat="45.43462" lon="5.75627">
        <ele>387.7</ele>
        <time>2021-08-23T16:37:23Z</time>
      </trkpt>
      <trkpt lat="45.43461" lon="5.75628">
        <ele>387.7</ele>
        <time>2021-08-23T16:37:24Z</time>
      </trkpt>
      <trkpt lat="45.4346" lon="5.75629">
        <ele>387.7</ele>
        <time>2021-08-23T16:37:25Z</time>
      </trkpt>
      <trkpt lat="45.43458" lon="5.7563">
        <ele>387.7</ele>
        <time>2021-08-23T16:37:26Z</time>
      </trkpt>
      <trkpt lat="45.43457" lon="5.75631">
        <ele>387.7</ele>
        <time>2021-08-23T16:37:28Z</time>
      </trkpt>
      <trkpt lat="45.43456" lon="5.75631">
        <ele>387.7</ele>
        <time>2021-08-23T16:44:01Z</time>
      </trkpt>
      <trkpt lat="45.43455" lon="5.75632">
        <ele>387.7</ele>
        <time>2021-08-23T16:44:03Z</time>
      </trkpt>
      <trkpt lat="45.43454" lon="5.75633">
        <ele>387.7</ele>
        <time>2021-08-23T16:44:04Z</time>
      </trkpt>
      <trkpt lat="45.43453" lon="5.75634">
        <ele>387.7</ele>
        <time>2021-08-23T16:44:05Z</time>
      </trkpt>
      <trkpt lat="45.43452" lon="5.75636">
        <ele>387.7</ele>
        <time>2021-08-23T16:44:06Z</time>
      </trkpt>
      <trkpt lat="45.43452" lon="5.75637">
        <ele>387.7</ele>
        <time>2021-08-23T16:44:08Z</time>
      </trkpt>
      <trkpt lat="45.43451" lon="5.75638">
        <ele>387.7</ele>
        <time>2021-08-23T16:44:09Z</time>
      </trkpt>
      <trkpt lat="45.43451" lon="5.75639">
        <ele>387.7</ele>
        <time>2021-08-23T16:44:10Z</time>
      </trkpt>
      <trkpt lat="45.4345" lon="5.75641">
        <ele>387.7</ele>
        <time>2021-08-23T16:44:12Z</time>
      </trkpt>
      <trkpt lat="45.4345" lon="5.75644">
        <ele>387.7</ele>
        <time>2021-08-23T16:44:13Z</time>
      </trkpt>
      <trkpt lat="45.43449" lon="5.75646">
        <ele>387.7</ele>
        <time>2021-08-23T16:44:14Z</time>
      </trkpt>
      <trkpt lat="45.43449" lon="5.75648">
        <ele>387.7</ele>
        <time>2021-08-23T16:44:15Z</time>
      </trkpt>
      <trkpt lat="45.43448" lon="5.75653">
        <ele>387.7</ele>
        <time>2021-08-23T16:44:17Z</time>
      </trkpt>
      <trkpt lat="45.43448" lon="5.75655">
        <ele>387.7</ele>
        <time>2021-08-23T16:44:18Z</time>
      </trkpt>
      <trkpt lat="45.43447" lon="5.7566">
        <ele>387.7</ele>
        <time>2021-08-23T16:44:19Z</time>
      </trkpt>
      <trkpt lat="45.43446" lon="5.75665">
        <ele>387.7</ele>
        <time>2021-08-23T16:44:20Z</time>
      </trkpt>
      <trkpt lat="45.43445" lon="5.75671">
        <ele>387.7</ele>
        <time>2021-08-23T16:44:22Z</time>
      </trkpt>
      <trkpt lat="45.43445" lon="5.75676">
        <ele>387.7</ele>
        <time>2021-08-23T16:44:23Z</time>
      </trkpt>
      <trkpt lat="45.43446" lon="5.75677">
        <ele>387.7</ele>
        <time>2021-08-23T16:44:24Z</time>
      </trkpt>
      <trkpt lat="45.43446" lon="5.75679">
        <ele>387.7</ele>
        <time>2021-08-23T16:44:25Z</time>
      </trkpt>
      <trkpt lat="45.43446" lon="5.75682">
        <ele>387.7</ele>
        <time>2021-08-23T16:44:27Z</time>
      </trkpt>
      <trkpt lat="45.43447" lon="5.75683">
        <ele>387.7</ele>
        <time>2021-08-23T16:44:28Z</time>
      </trkpt>
      <trkpt lat="45.43447" lon="5.75684">
        <ele>387.7</ele>
        <time>2021-08-23T16:44:29Z</time>
      </trkpt>
      <trkpt lat="45.43447" lon="5.75684">
        <ele>387.7</ele>
        <time>2021-08-23T16:44:30Z</time>
      </trkpt>
      <trkpt lat="45.43447" lon="5.75684">
        <ele>387.7</ele>
        <time>2021-08-23T16:44:31Z</time>
      </trkpt>
      <trkpt lat="45.43448" lon="5.75685">
        <ele>387.7</ele>
        <time>2021-08-23T16:44:33Z</time>
      </trkpt>
      <trkpt lat="45.43448" lon="5.75685">
        <ele>387.7</ele>
        <time>2021-08-23T16:44:34Z</time>
      </trkpt>
      <trkpt lat="45.43448" lon="5.75685">
        <ele>387.7</ele>
        <time>2021-08-23T16:44:35Z</time>
      </trkpt>
      <trkpt lat="45.43448" lon="5.75685">
        <ele>387.7</ele>
        <time>2021-08-23T16:44:36Z</time>
      </trkpt>
      <trkpt lat="45.43448" lon="5.75686">
        <ele>387.7</ele>
        <time>2021-08-23T16:44:37Z</time>
      </trkpt>
      <trkpt lat="45.43449" lon="5.75686">
        <ele>387.7</ele>
        <time>2021-08-23T16:44:39Z</time>
      </trkpt>
      <trkpt lat="45.43449" lon="5.75686">
        <ele>387.7</ele>
        <time>2021-08-23T16:44:40Z</time>
      </trkpt>
      <trkpt lat="45.43475" lon="5.75712">
        <ele>387.7</ele>
        <time>2021-08-23T16:45:07Z</time>
      </trkpt>
      <trkpt lat="45.43479" lon="5.75715">
        <ele>387.7</ele>
        <time>2021-08-23T16:45:09Z</time>
      </trkpt>
      <trkpt lat="45.43482" lon="5.75717">
        <ele>387.7</ele>
        <time>2021-08-23T16:45:11Z</time>
      </trkpt>
      <trkpt lat="45.43485" lon="5.75719">
        <ele>387.7</ele>
        <time>2021-08-23T16:45:12Z</time>
      </trkpt>
      <trkpt lat="45.43489" lon="5.75722">
        <ele>387.6</ele>
        <time>2021-08-23T16:45:14Z</time>
      </trkpt>
      <trkpt lat="45.43491" lon="5.75723">
        <ele>387.7</ele>
        <time>2021-08-23T16:45:15Z</time>
      </trkpt>
      <trkpt lat="45.43493" lon="5.75725">
        <ele>387.7</ele>
        <time>2021-08-23T16:45:17Z</time>
      </trkpt>
      <trkpt lat="45.43494" lon="5.75726">
        <ele>387.7</ele>
        <time>2021-08-23T16:45:18Z</time>
      </trkpt>
      <trkpt lat="45.43494" lon="5.75727">
        <ele>387.7</ele>
        <time>2021-08-23T16:45:19Z</time>
      </trkpt>
      <trkpt lat="45.43494" lon="5.75728">
        <ele>387.7</ele>
        <time>2021-08-23T16:45:21Z</time>
      </trkpt>
      <trkpt lat="45.43495" lon="5.7573">
        <ele>387.7</ele>
        <time>2021-08-23T16:45:22Z</time>
      </trkpt>
      <trkpt lat="45.43497" lon="5.75732">
        <ele>387.7</ele>
        <time>2021-08-23T16:45:23Z</time>
      </trkpt>
      <trkpt lat="45.43498" lon="5.75733">
        <ele>387.7</ele>
        <time>2021-08-23T16:45:24Z</time>
      </trkpt>
      <trkpt lat="45.43499" lon="5.75734">
        <ele>387.7</ele>
        <time>2021-08-23T16:45:26Z</time>
      </trkpt>
      <trkpt lat="45.43501" lon="5.75735">
        <ele>387.7</ele>
        <time>2021-08-23T16:45:27Z</time>
      </trkpt>
      <trkpt lat="45.43501" lon="5.75734">
        <ele>387.7</ele>
        <time>2021-08-23T16:45:29Z</time>
      </trkpt>
      <trkpt lat="45.43501" lon="5.75733">
        <ele>387.7</ele>
        <time>2021-08-23T16:45:30Z</time>
      </trkpt>
      <trkpt lat="45.43501" lon="5.75733">
        <ele>387.7</ele>
        <time>2021-08-23T16:45:31Z</time>
      </trkpt>
      <trkpt lat="45.43501" lon="5.75732">
        <ele>387.7</ele>
        <time>2021-08-23T16:45:33Z</time>
      </trkpt>
      <trkpt lat="45.43502" lon="5.75731">
        <ele>387.7</ele>
        <time>2021-08-23T16:45:34Z</time>
      </trkpt>
      <trkpt lat="45.43503" lon="5.7572">
        <ele>387.7</ele>
        <time>2021-08-23T16:45:36Z</time>
      </trkpt>
      <trkpt lat="45.43504" lon="5.7571">
        <ele>387.6</ele>
        <time>2021-08-23T16:45:37Z</time>
      </trkpt>
      <trkpt lat="45.43504" lon="5.75699">
        <ele>387.5</ele>
        <time>2021-08-23T16:46:08Z</time>
      </trkpt>
      <trkpt lat="45.43505" lon="5.75689">
        <ele>387.5</ele>
        <time>2021-08-23T16:46:09Z</time>
      </trkpt>
      <trkpt lat="45.43506" lon="5.75678">
        <ele>387.5</ele>
        <time>2021-08-23T16:46:10Z</time>
      </trkpt>
      <trkpt lat="45.43505" lon="5.75674">
        <ele>387.4</ele>
        <time>2021-08-23T16:46:12Z</time>
      </trkpt>
      <trkpt lat="45.43505" lon="5.75673">
        <ele>387.4</ele>
        <time>2021-08-23T16:46:13Z</time>
      </trkpt>
      <trkpt lat="45.43506" lon="5.75671">
        <ele>387.4</ele>
        <time>2021-08-23T16:46:14Z</time>
      </trkpt>
      <trkpt lat="45.43506" lon="5.7567">
        <ele>387.4</ele>
        <time>2021-08-23T16:46:15Z</time>
      </trkpt>
      <trkpt lat="45.43507" lon="5.75669">
        <ele>387.4</ele>
        <time>2021-08-23T16:46:16Z</time>
      </trkpt>
      <trkpt lat="45.43507" lon="5.75667">
        <ele>387.4</ele>
        <time>2021-08-23T16:46:17Z</time>
      </trkpt>
      <trkpt lat="45.43508" lon="5.75665">
        <ele>387.4</ele>
        <time>2021-08-23T16:46:19Z</time>
      </trkpt>
      <trkpt lat="45.43509" lon="5.75663">
        <ele>387.4</ele>
        <time>2021-08-23T16:46:20Z</time>
      </trkpt>
      <trkpt lat="45.43509" lon="5.7566">
        <ele>387.4</ele>
        <time>2021-08-23T16:46:21Z</time>
      </trkpt>
      <trkpt lat="45.4351" lon="5.75659">
        <ele>387.4</ele>
        <time>2021-08-23T16:46:22Z</time>
      </trkpt>
      <trkpt lat="45.4351" lon="5.75658">
        <ele>387.4</ele>
        <time>2021-08-23T16:46:24Z</time>
      </trkpt>
      <trkpt lat="45.43511" lon="5.75656">
        <ele>387.4</ele>
        <time>2021-08-23T16:46:25Z</time>
      </trkpt>
      <trkpt lat="45.43512" lon="5.75654">
        <ele>387.4</ele>
        <time>2021-08-23T16:46:27Z</time>
      </trkpt>
      <trkpt lat="45.43513" lon="5.75653">
        <ele>387.4</ele>
        <time>2021-08-23T16:46:29Z</time>
      </trkpt>
      <trkpt lat="45.43513" lon="5.75652">
        <ele>387.4</ele>
        <time>2021-08-23T16:46:30Z</time>
      </trkpt>
      <trkpt lat="45.43514" lon="5.75652">
        <ele>387.4</ele>
        <time>2021-08-23T16:46:32Z</time>
      </trkpt>
      <trkpt lat="45.43529" lon="5.756">
        <ele>387.4</ele>
        <time>2021-08-23T16:47:07Z</time>
      </trkpt>
      <trkpt lat="45.4353" lon="5.75598">
        <ele>387.5</ele>
        <time>2021-08-23T16:47:09Z</time>
      </trkpt>
      <trkpt lat="45.43531" lon="5.75596">
        <ele>387.5</ele>
        <time>2021-08-23T16:47:11Z</time>
      </trkpt>
      <trkpt lat="45.43531" lon="5.75594">
        <ele>387.5</ele>
        <time>2021-08-23T16:47:12Z</time>
      </trkpt>
      <trkpt lat="45.43531" lon="5.75594">
        <ele>387.5</ele>
        <time>2021-08-23T16:47:13Z</time>
      </trkpt>
      <trkpt lat="45.43531" lon="5.75593">
        <ele>387.6</ele>
        <time>2021-08-23T16:47:15Z</time>
      </trkpt>
      <trkpt lat="45.43531" lon="5.75593">
        <ele>387.6</ele>
        <time>2021-08-23T16:47:16Z</time>
      </trkpt>
      <trkpt lat="45.43531" lon="5.75593">
        <ele>387.6</ele>
        <time>2021-08-23T16:47:17Z</time>
      </trkpt>
      <trkpt lat="45.43531" lon="5.75592">
        <ele>387.6</ele>
        <time>2021-08-23T16:47:19Z</time>
      </trkpt>
      <trkpt lat="45.43531" lon="5.75592">
        <ele>387.6</ele>
        <time>2021-08-23T16:47:20Z</time>
      </trkpt>
      <trkpt lat="45.43531" lon="5.75592">
        <ele>387.6</ele>
        <time>2021-08-23T16:47:21Z</time>
      </trkpt>
      <trkpt lat="45.43534" lon="5.75591">
        <ele>387.6</ele>
        <time>2021-08-23T16:47:23Z</time>
      </trkpt>
      <trkpt lat="45.43537" lon="5.7559">
        <ele>387.6</ele>
        <time>2021-08-23T16:48:29Z</time>
      </trkpt>
      <trkpt lat="45.43539" lon="5.7559">
        <ele>387.7</ele>
        <time>2021-08-23T16:48:31Z</time>
      </trkpt>
      <trkpt lat="45.43542" lon="5.75589">
        <ele>387.9</ele>
        <time>2021-08-23T16:48:32Z</time>
      </trkpt>
      <trkpt lat="45.43545" lon="5.75588">
        <ele>388</ele>
        <time>2021-08-23T16:48:33Z</time>
      </trkpt>
      <trkpt lat="45.43546" lon="5.75592">
        <ele>387.8</ele>
        <time>2021-08-23T16:48:35Z</time>
      </trkpt>
      <trkpt lat="45.43547" lon="5.75593">
        <ele>387.8</ele>
        <time>2021-08-23T16:48:37Z</time>
      </trkpt>
      <trkpt lat="45.43547" lon="5.75593">
        <ele>387.8</ele>
        <time>2021-08-23T16:48:38Z</time>
      </trkpt>
      <trkpt lat="45.43547" lon="5.75594">
        <ele>387.7</ele>
        <time>2021-08-23T16:48:39Z</time>
      </trkpt>
      <trkpt lat="45.43547" lon="5.75593">
        <ele>388</ele>
        <time>2021-08-23T16:48:41Z</time>
      </trkpt>
      <trkpt lat="45.43363" lon="5.75353">
        <ele>386.6</ele>
        <time>2021-08-24T07:35:31Z</time>
      </trkpt>
      <trkpt lat="45.43363" lon="5.75353">
        <ele>386.6</ele>
        <time>2021-08-24T07:35:31Z</time>
      </trkpt>
      <trkpt lat="45.43478" lon="5.75496">
        <ele>387.9</ele>
        <time>2021-08-24T07:35:33Z</time>
      </trkpt>
      <trkpt lat="45.43528" lon="5.75549">
        <ele>389.3</ele>
        <time>2021-08-24T07:35:34Z</time>
      </trkpt>
      <trkpt lat="45.43536" lon="5.75558">
        <ele>389.4</ele>
        <time>2021-08-24T07:35:36Z</time>
      </trkpt>
      <trkpt lat="45.43542" lon="5.75566">
        <ele>389.3</ele>
        <time>2021-08-24T07:35:37Z</time>
      </trkpt>
      <trkpt lat="45.43544" lon="5.75569">
        <ele>389</ele>
        <time>2021-08-24T07:35:39Z</time>
      </trkpt>
      <trkpt lat="45.43532" lon="5.75559">
        <ele>389.1</ele>
        <time>2021-08-24T07:35:41Z</time>
      </trkpt>
      <trkpt lat="45.43526" lon="5.75551">
        <ele>389.1</ele>
        <time>2021-08-24T07:35:43Z</time>
      </trkpt>
      <trkpt lat="45.43513" lon="5.75555">
        <ele>388.5</ele>
        <time>2021-08-24T07:35:57Z</time>
      </trkpt>
      <trkpt lat="45.43505" lon="5.75557">
        <ele>388.4</ele>
        <time>2021-08-24T07:35:59Z</time>
      </trkpt>
      <trkpt lat="45.43507" lon="5.75561">
        <ele>388.4</ele>
        <time>2021-08-24T07:36:00Z</time>
      </trkpt>
      <trkpt lat="45.43508" lon="5.75562">
        <ele>388.4</ele>
        <time>2021-08-24T07:36:01Z</time>
      </trkpt>
      <trkpt lat="45.43513" lon="5.75567">
        <ele>388.4</ele>
        <time>2021-08-24T07:36:03Z</time>
      </trkpt>
      <trkpt lat="45.43516" lon="5.75568">
        <ele>388.4</ele>
        <time>2021-08-24T07:36:04Z</time>
      </trkpt>
      <trkpt lat="45.43522" lon="5.75569">
        <ele>388.4</ele>
        <time>2021-08-24T07:36:06Z</time>
      </trkpt>
      <trkpt lat="45.43525" lon="5.75569">
        <ele>388.4</ele>
        <time>2021-08-24T07:36:07Z</time>
      </trkpt>
      <trkpt lat="45.43526" lon="5.75567">
        <ele>388.5</ele>
        <time>2021-08-24T07:36:09Z</time>
      </trkpt>
      <trkpt lat="45.43526" lon="5.75567">
        <ele>388.5</ele>
        <time>2021-08-24T07:36:10Z</time>
      </trkpt>
      <trkpt lat="45.43526" lon="5.75566">
        <ele>388.5</ele>
        <time>2021-08-24T07:36:12Z</time>
      </trkpt>
      <trkpt lat="45.43525" lon="5.75566">
        <ele>388.5</ele>
        <time>2021-08-24T07:36:13Z</time>
      </trkpt>
      <trkpt lat="45.43524" lon="5.75566">
        <ele>388.5</ele>
        <time>2021-08-24T07:36:14Z</time>
      </trkpt>
      <trkpt lat="45.43524" lon="5.75567">
        <ele>388.5</ele>
        <time>2021-08-24T07:36:16Z</time>
      </trkpt>
      <trkpt lat="45.43524" lon="5.75566">
        <ele>388.5</ele>
        <time>2021-08-24T07:36:18Z</time>
      </trkpt>
      <trkpt lat="45.43525" lon="5.75566">
        <ele>388.5</ele>
        <time>2021-08-24T07:36:20Z</time>
      </trkpt>
      <trkpt lat="45.43525" lon="5.75565">
        <ele>388.5</ele>
        <time>2021-08-24T07:36:21Z</time>
      </trkpt>
      <trkpt lat="45.43526" lon="5.75564">
        <ele>388.5</ele>
        <time>2021-08-24T07:36:23Z</time>
      </trkpt>
      <trkpt lat="45.43527" lon="5.75564">
        <ele>388.6</ele>
        <time>2021-08-24T07:36:24Z</time>
      </trkpt>
      <trkpt lat="45.43528" lon="5.75562">
        <ele>388.7</ele>
        <time>2021-08-24T07:36:25Z</time>
      </trkpt>
      <trkpt lat="45.4353" lon="5.75562">
        <ele>388.9</ele>
        <time>2021-08-24T07:36:27Z</time>
      </trkpt>
      <trkpt lat="45.43531" lon="5.75562">
        <ele>388.8</ele>
        <time>2021-08-24T07:36:28Z</time>
      </trkpt>
      <trkpt lat="45.43531" lon="5.75562">
        <ele>388.8</ele>
        <time>2021-08-24T07:36:29Z</time>
      </trkpt>
      <trkpt lat="45.43531" lon="5.75562">
        <ele>388.8</ele>
        <time>2021-08-24T07:36:31Z</time>
      </trkpt>
      <trkpt lat="45.43531" lon="5.75562">
        <ele>388.8</ele>
        <time>2021-08-24T07:36:32Z</time>
      </trkpt>
      <trkpt lat="45.4353" lon="5.75561">
        <ele>388.8</ele>
        <time>2021-08-24T07:36:34Z</time>
      </trkpt>
      <trkpt lat="45.4353" lon="5.75562">
        <ele>388.8</ele>
        <time>2021-08-24T07:36:36Z</time>
      </trkpt>
      <trkpt lat="45.43529" lon="5.75562">
        <ele>388.7</ele>
        <time>2021-08-24T07:36:38Z</time>
      </trkpt>
      <trkpt lat="45.43529" lon="5.75563">
        <ele>388.7</ele>
        <time>2021-08-24T07:36:40Z</time>
      </trkpt>
      <trkpt lat="45.43529" lon="5.75563">
        <ele>388.7</ele>
        <time>2021-08-24T07:36:41Z</time>
      </trkpt>
      <trkpt lat="45.43528" lon="5.75565">
        <ele>388.6</ele>
        <time>2021-08-24T07:36:43Z</time>
      </trkpt>
      <trkpt lat="45.43529" lon="5.75566">
        <ele>388.5</ele>
        <time>2021-08-24T07:36:45Z</time>
      </trkpt>
      <trkpt lat="45.43529" lon="5.75567">
        <ele>388.5</ele>
        <time>2021-08-24T07:36:46Z</time>
      </trkpt>
      <trkpt lat="45.4353" lon="5.75568">
        <ele>388.5</ele>
        <time>2021-08-24T07:36:48Z</time>
      </trkpt>
      <trkpt lat="45.4353" lon="5.75568">
        <ele>388.5</ele>
        <time>2021-08-24T07:36:50Z</time>
      </trkpt>
      <trkpt lat="45.4353" lon="5.75568">
        <ele>388.6</ele>
        <time>2021-08-24T07:36:51Z</time>
      </trkpt>
      <trkpt lat="45.4353" lon="5.75568">
        <ele>388.5</ele>
        <time>2021-08-24T07:36:53Z</time>
      </trkpt>
      <trkpt lat="45.43529" lon="5.75568">
        <ele>388.5</ele>
        <time>2021-08-24T07:36:54Z</time>
      </trkpt>
      <trkpt lat="45.43529" lon="5.75568">
        <ele>388.4</ele>
        <time>2021-08-24T07:36:56Z</time>
      </trkpt>
      <trkpt lat="45.43529" lon="5.75569">
        <ele>388.4</ele>
        <time>2021-08-24T07:36:57Z</time>
      </trkpt>
      <trkpt lat="45.43529" lon="5.75569">
        <ele>388.4</ele>
        <time>2021-08-24T07:36:59Z</time>
      </trkpt>
      <trkpt lat="45.43529" lon="5.75569">
        <ele>388.4</ele>
        <time>2021-08-24T07:37:00Z</time>
      </trkpt>
      <trkpt lat="45.43529" lon="5.75569">
        <ele>388.4</ele>
        <time>2021-08-24T07:37:02Z</time>
      </trkpt>
      <trkpt lat="45.43529" lon="5.75568">
        <ele>388.4</ele>
        <time>2021-08-24T07:37:03Z</time>
      </trkpt>
      <trkpt lat="45.4353" lon="5.75568">
        <ele>388.6</ele>
        <time>2021-08-24T07:37:04Z</time>
      </trkpt>
      <trkpt lat="45.43531" lon="5.75567">
        <ele>388.6</ele>
        <time>2021-08-24T07:37:05Z</time>
      </trkpt>
      <trkpt lat="45.43532" lon="5.75567">
        <ele>388.6</ele>
        <time>2021-08-24T07:37:06Z</time>
      </trkpt>
      <trkpt lat="45.43534" lon="5.75568">
        <ele>388.5</ele>
        <time>2021-08-24T07:37:08Z</time>
      </trkpt>
      <trkpt lat="45.43535" lon="5.75569">
        <ele>388.5</ele>
        <time>2021-08-24T07:37:09Z</time>
      </trkpt>
      <trkpt lat="45.43536" lon="5.7557">
        <ele>388.6</ele>
        <time>2021-08-24T07:37:10Z</time>
      </trkpt>
      <trkpt lat="45.43537" lon="5.75572">
        <ele>388.5</ele>
        <time>2021-08-24T07:37:12Z</time>
      </trkpt>
      <trkpt lat="45.43535" lon="5.75576">
        <ele>388.5</ele>
        <time>2021-08-24T07:37:14Z</time>
      </trkpt>
      <trkpt lat="45.43534" lon="5.75581">
        <ele>388.1</ele>
        <time>2021-08-24T07:37:15Z</time>
      </trkpt>
      <trkpt lat="45.43532" lon="5.75586">
        <ele>388</ele>
        <time>2021-08-24T07:37:16Z</time>
      </trkpt>
      <trkpt lat="45.43531" lon="5.7559">
        <ele>387.8</ele>
        <time>2021-08-24T07:37:17Z</time>
      </trkpt>
      <trkpt lat="45.43528" lon="5.75596">
        <ele>387.8</ele>
        <time>2021-08-24T07:37:18Z</time>
      </trkpt>
      <trkpt lat="45.43524" lon="5.75605">
        <ele>387.7</ele>
        <time>2021-08-24T07:37:19Z</time>
      </trkpt>
      <trkpt lat="45.4352" lon="5.7561">
        <ele>387.7</ele>
        <time>2021-08-24T07:37:21Z</time>
      </trkpt>
      <trkpt lat="45.43517" lon="5.75612">
        <ele>387.7</ele>
        <time>2021-08-24T07:37:22Z</time>
      </trkpt>
      <trkpt lat="45.43512" lon="5.75614">
        <ele>387.7</ele>
        <time>2021-08-24T07:37:23Z</time>
      </trkpt>
      <trkpt lat="45.43508" lon="5.75615">
        <ele>387.7</ele>
        <time>2021-08-24T07:37:24Z</time>
      </trkpt>
      <trkpt lat="45.43502" lon="5.75617">
        <ele>387.7</ele>
        <time>2021-08-24T07:37:26Z</time>
      </trkpt>
      <trkpt lat="45.43499" lon="5.75617">
        <ele>387.7</ele>
        <time>2021-08-24T07:37:27Z</time>
      </trkpt>
      <trkpt lat="45.43494" lon="5.75618">
        <ele>387.7</ele>
        <time>2021-08-24T07:37:29Z</time>
      </trkpt>
      <trkpt lat="45.43492" lon="5.75619">
        <ele>387.7</ele>
        <time>2021-08-24T07:37:30Z</time>
      </trkpt>
      <trkpt lat="45.43489" lon="5.7562">
        <ele>387.7</ele>
        <time>2021-08-24T07:37:31Z</time>
      </trkpt>
      <trkpt lat="45.43484" lon="5.75621">
        <ele>387.7</ele>
        <time>2021-08-24T07:37:32Z</time>
      </trkpt>
      <trkpt lat="45.4348" lon="5.75621">
        <ele>387.7</ele>
        <time>2021-08-24T07:37:34Z</time>
      </trkpt>
      <trkpt lat="45.43477" lon="5.7562">
        <ele>387.7</ele>
        <time>2021-08-24T07:37:35Z</time>
      </trkpt>
      <trkpt lat="45.43475" lon="5.75618">
        <ele>387.7</ele>
        <time>2021-08-24T07:37:36Z</time>
      </trkpt>
      <trkpt lat="45.43473" lon="5.75616">
        <ele>387.7</ele>
        <time>2021-08-24T07:37:38Z</time>
      </trkpt>
      <trkpt lat="45.4347" lon="5.75613">
        <ele>387.7</ele>
        <time>2021-08-24T07:37:39Z</time>
      </trkpt>
      <trkpt lat="45.4347" lon="5.75612">
        <ele>387.7</ele>
        <time>2021-08-24T07:37:40Z</time>
      </trkpt>
      <trkpt lat="45.43469" lon="5.75607">
        <ele>387.8</ele>
        <time>2021-08-24T07:37:42Z</time>
      </trkpt>
      <trkpt lat="45.43469" lon="5.75606">
        <ele>387.8</ele>
        <time>2021-08-24T07:37:43Z</time>
      </trkpt>
      <trkpt lat="45.43467" lon="5.75602">
        <ele>387.8</ele>
        <time>2021-08-24T07:37:45Z</time>
      </trkpt>
      <trkpt lat="45.43467" lon="5.75601">
        <ele>387.8</ele>
        <time>2021-08-24T07:37:46Z</time>
      </trkpt>
      <trkpt lat="45.43466" lon="5.75598">
        <ele>387.9</ele>
        <time>2021-08-24T07:37:47Z</time>
      </trkpt>
      <trkpt lat="45.43465" lon="5.75594">
        <ele>387.9</ele>
        <time>2021-08-24T07:37:49Z</time>
      </trkpt>
      <trkpt lat="45.43464" lon="5.7559">
        <ele>387.9</ele>
        <time>2021-08-24T07:37:50Z</time>
      </trkpt>
      <trkpt lat="45.43464" lon="5.75588">
        <ele>387.9</ele>
        <time>2021-08-24T07:37:51Z</time>
      </trkpt>
      <trkpt lat="45.43463" lon="5.75585">
        <ele>388</ele>
        <time>2021-08-24T07:37:52Z</time>
      </trkpt>
      <trkpt lat="45.43463" lon="5.75583">
        <ele>388</ele>
        <time>2021-08-24T07:37:53Z</time>
      </trkpt>
      <trkpt lat="45.43461" lon="5.75578">
        <ele>388.1</ele>
        <time>2021-08-24T07:37:55Z</time>
      </trkpt>
      <trkpt lat="45.43461" lon="5.75577">
        <ele>388.1</ele>
        <time>2021-08-24T07:37:56Z</time>
      </trkpt>
      <trkpt lat="45.4346" lon="5.75573">
        <ele>388.1</ele>
        <time>2021-08-24T07:37:57Z</time>
      </trkpt>
      <trkpt lat="45.43459" lon="5.75572">
        <ele>388.2</ele>
        <time>2021-08-24T07:37:58Z</time>
      </trkpt>
      <trkpt lat="45.43459" lon="5.75568">
        <ele>388.2</ele>
        <time>2021-08-24T07:37:59Z</time>
      </trkpt>
      <trkpt lat="45.43459" lon="5.75567">
        <ele>388.3</ele>
        <time>2021-08-24T07:38:00Z</time>
      </trkpt>
      <trkpt lat="45.43458" lon="5.75562">
        <ele>388.4</ele>
        <time>2021-08-24T07:38:02Z</time>
      </trkpt>
      <trkpt lat="45.43456" lon="5.75556">
        <ele>388.5</ele>
        <time>2021-08-24T07:38:04Z</time>
      </trkpt>
      <trkpt lat="45.43454" lon="5.75553">
        <ele>388.6</ele>
        <time>2021-08-24T07:38:05Z</time>
      </trkpt>
      <trkpt lat="45.43452" lon="5.7555">
        <ele>388.7</ele>
        <time>2021-08-24T07:38:06Z</time>
      </trkpt>
      <trkpt lat="45.43452" lon="5.75545">
        <ele>388.7</ele>
        <time>2021-08-24T07:38:07Z</time>
      </trkpt>
      <trkpt lat="45.43451" lon="5.75542">
        <ele>388.8</ele>
        <time>2021-08-24T07:38:08Z</time>
      </trkpt>
      <trkpt lat="45.4345" lon="5.75537">
        <ele>388.9</ele>
        <time>2021-08-24T07:38:10Z</time>
      </trkpt>
      <trkpt lat="45.43449" lon="5.75533">
        <ele>389</ele>
        <time>2021-08-24T07:38:11Z</time>
      </trkpt>
      <trkpt lat="45.43448" lon="5.75529">
        <ele>389.1</ele>
        <time>2021-08-24T07:38:12Z</time>
      </trkpt>
      <trkpt lat="45.43447" lon="5.75522">
        <ele>389.3</ele>
        <time>2021-08-24T07:38:14Z</time>
      </trkpt>
      <trkpt lat="45.43446" lon="5.7552">
        <ele>389.3</ele>
        <time>2021-08-24T07:38:15Z</time>
      </trkpt>
      <trkpt lat="45.43446" lon="5.75518">
        <ele>389.4</ele>
        <time>2021-08-24T07:38:16Z</time>
      </trkpt>
      <trkpt lat="45.43447" lon="5.75513">
        <ele>389.5</ele>
        <time>2021-08-24T07:38:17Z</time>
      </trkpt>
      <trkpt lat="45.43447" lon="5.75511">
        <ele>389.5</ele>
        <time>2021-08-24T07:38:18Z</time>
      </trkpt>
      <trkpt lat="45.43447" lon="5.75505">
        <ele>389.6</ele>
        <time>2021-08-24T07:38:20Z</time>
      </trkpt>
      <trkpt lat="45.43449" lon="5.75501">
        <ele>389.7</ele>
        <time>2021-08-24T07:38:22Z</time>
      </trkpt>
      <trkpt lat="45.43451" lon="5.75498">
        <ele>389.9</ele>
        <time>2021-08-24T07:38:23Z</time>
      </trkpt>
      <trkpt lat="45.43455" lon="5.75495">
        <ele>389.9</ele>
        <time>2021-08-24T07:38:25Z</time>
      </trkpt>
      <trkpt lat="45.43458" lon="5.75493">
        <ele>389.9</ele>
        <time>2021-08-24T07:38:26Z</time>
      </trkpt>
      <trkpt lat="45.43461" lon="5.75491">
        <ele>389.9</ele>
        <time>2021-08-24T07:38:27Z</time>
      </trkpt>
      <trkpt lat="45.43464" lon="5.75488">
        <ele>389.9</ele>
        <time>2021-08-24T07:38:28Z</time>
      </trkpt>
      <trkpt lat="45.43467" lon="5.75486">
        <ele>390</ele>
        <time>2021-08-24T07:38:30Z</time>
      </trkpt>
      <trkpt lat="45.43472" lon="5.75482">
        <ele>390</ele>
        <time>2021-08-24T07:38:32Z</time>
      </trkpt>
      <trkpt lat="45.43475" lon="5.75481">
        <ele>390</ele>
        <time>2021-08-24T07:38:33Z</time>
      </trkpt>
      <trkpt lat="45.43479" lon="5.75479">
        <ele>390.1</ele>
        <time>2021-08-24T07:38:34Z</time>
      </trkpt>
      <trkpt lat="45.43481" lon="5.75478">
        <ele>390.1</ele>
        <time>2021-08-24T07:38:36Z</time>
      </trkpt>
      <trkpt lat="45.43484" lon="5.75476">
        <ele>390.1</ele>
        <time>2021-08-24T07:38:37Z</time>
      </trkpt>
      <trkpt lat="45.43487" lon="5.75474">
        <ele>390.2</ele>
        <time>2021-08-24T07:38:38Z</time>
      </trkpt>
      <trkpt lat="45.43493" lon="5.75471">
        <ele>390.2</ele>
        <time>2021-08-24T07:38:40Z</time>
      </trkpt>
      <trkpt lat="45.43496" lon="5.7547">
        <ele>390.2</ele>
        <time>2021-08-24T07:38:41Z</time>
      </trkpt>
      <trkpt lat="45.435" lon="5.75468">
        <ele>390.3</ele>
        <time>2021-08-24T07:38:42Z</time>
      </trkpt>
      <trkpt lat="45.43503" lon="5.75467">
        <ele>390.3</ele>
        <time>2021-08-24T07:38:43Z</time>
      </trkpt>
      <trkpt lat="45.43507" lon="5.75465">
        <ele>390.4</ele>
        <time>2021-08-24T07:38:44Z</time>
      </trkpt>
      <trkpt lat="45.43514" lon="5.75462">
        <ele>390.4</ele>
        <time>2021-08-24T07:38:46Z</time>
      </trkpt>
      <trkpt lat="45.43517" lon="5.7546">
        <ele>390.5</ele>
        <time>2021-08-24T07:38:47Z</time>
      </trkpt>
      <trkpt lat="45.43523" lon="5.75459">
        <ele>390.6</ele>
        <time>2021-08-24T07:38:49Z</time>
      </trkpt>
      <trkpt lat="45.43528" lon="5.75457">
        <ele>390.6</ele>
        <time>2021-08-24T07:38:50Z</time>
      </trkpt>
      <trkpt lat="45.43531" lon="5.75456">
        <ele>390.6</ele>
        <time>2021-08-24T07:38:51Z</time>
      </trkpt>
      <trkpt lat="45.43535" lon="5.75454">
        <ele>390.7</ele>
        <time>2021-08-24T07:38:52Z</time>
      </trkpt>
      <trkpt lat="45.43539" lon="5.75451">
        <ele>390.9</ele>
        <time>2021-08-24T07:38:53Z</time>
      </trkpt>
      <trkpt lat="45.43543" lon="5.75448">
        <ele>391.1</ele>
        <time>2021-08-24T07:38:55Z</time>
      </trkpt>
      <trkpt lat="45.43547" lon="5.75444">
        <ele>391.3</ele>
        <time>2021-08-24T07:38:56Z</time>
      </trkpt>
      <trkpt lat="45.43551" lon="5.75441">
        <ele>391.5</ele>
        <time>2021-08-24T07:38:57Z</time>
      </trkpt>
      <trkpt lat="45.43555" lon="5.7544">
        <ele>391.7</ele>
        <time>2021-08-24T07:38:58Z</time>
      </trkpt>
      <trkpt lat="45.4356" lon="5.75436">
        <ele>392.1</ele>
        <time>2021-08-24T07:39:00Z</time>
      </trkpt>
      <trkpt lat="45.43562" lon="5.75433">
        <ele>392.2</ele>
        <time>2021-08-24T07:39:01Z</time>
      </trkpt>
      <trkpt lat="45.43563" lon="5.75431">
        <ele>392.3</ele>
        <time>2021-08-24T07:39:02Z</time>
      </trkpt>
      <trkpt lat="45.43566" lon="5.75429">
        <ele>392.6</ele>
        <time>2021-08-24T07:39:04Z</time>
      </trkpt>
      <trkpt lat="45.4357" lon="5.75427">
        <ele>392.8</ele>
        <time>2021-08-24T07:39:06Z</time>
      </trkpt>
      <trkpt lat="45.43573" lon="5.75426">
        <ele>393</ele>
        <time>2021-08-24T07:39:07Z</time>
      </trkpt>
      <trkpt lat="45.43576" lon="5.75425">
        <ele>393.2</ele>
        <time>2021-08-24T07:39:08Z</time>
      </trkpt>
      <trkpt lat="45.43578" lon="5.75424">
        <ele>393.3</ele>
        <time>2021-08-24T07:39:09Z</time>
      </trkpt>
      <trkpt lat="45.43583" lon="5.75421">
        <ele>393.5</ele>
        <time>2021-08-24T07:39:11Z</time>
      </trkpt>
      <trkpt lat="45.43587" lon="5.75421">
        <ele>393.7</ele>
        <time>2021-08-24T07:39:12Z</time>
      </trkpt>
      <trkpt lat="45.4359" lon="5.7542">
        <ele>393.9</ele>
        <time>2021-08-24T07:39:13Z</time>
      </trkpt>
      <trkpt lat="45.43595" lon="5.75417">
        <ele>394.1</ele>
        <time>2021-08-24T07:39:15Z</time>
      </trkpt>
      <trkpt lat="45.43598" lon="5.75415">
        <ele>394.2</ele>
        <time>2021-08-24T07:39:16Z</time>
      </trkpt>
      <trkpt lat="45.43601" lon="5.75414">
        <ele>394.4</ele>
        <time>2021-08-24T07:39:18Z</time>
      </trkpt>
      <trkpt lat="45.43604" lon="5.75414">
        <ele>394.5</ele>
        <time>2021-08-24T07:39:19Z</time>
      </trkpt>
      <trkpt lat="45.43607" lon="5.75414">
        <ele>394.6</ele>
        <time>2021-08-24T07:39:20Z</time>
      </trkpt>
      <trkpt lat="45.4361" lon="5.75415">
        <ele>394.8</ele>
        <time>2021-08-24T07:39:22Z</time>
      </trkpt>
      <trkpt lat="45.43613" lon="5.75416">
        <ele>394.9</ele>
        <time>2021-08-24T07:39:23Z</time>
      </trkpt>
      <trkpt lat="45.43616" lon="5.75416">
        <ele>395</ele>
        <time>2021-08-24T07:39:24Z</time>
      </trkpt>
      <trkpt lat="45.43618" lon="5.75415">
        <ele>395.4</ele>
        <time>2021-08-24T07:39:25Z</time>
      </trkpt>
      <trkpt lat="45.43621" lon="5.75415">
        <ele>395.5</ele>
        <time>2021-08-24T07:39:27Z</time>
      </trkpt>
      <trkpt lat="45.43622" lon="5.75415">
        <ele>395.5</ele>
        <time>2021-08-24T07:39:28Z</time>
      </trkpt>
      <trkpt lat="45.43622" lon="5.75415">
        <ele>395.6</ele>
        <time>2021-08-24T07:39:29Z</time>
      </trkpt>
      <trkpt lat="45.43621" lon="5.75418">
        <ele>395.7</ele>
        <time>2021-08-24T07:39:30Z</time>
      </trkpt>
      <trkpt lat="45.43621" lon="5.7542">
        <ele>395.7</ele>
        <time>2021-08-24T07:39:31Z</time>
      </trkpt>
      <trkpt lat="45.43621" lon="5.75422">
        <ele>395.8</ele>
        <time>2021-08-24T07:39:32Z</time>
      </trkpt>
      <trkpt lat="45.43621" lon="5.75423">
        <ele>395.8</ele>
        <time>2021-08-24T07:39:34Z</time>
      </trkpt>
      <trkpt lat="45.43624" lon="5.75427">
        <ele>396</ele>
        <time>2021-08-24T07:39:35Z</time>
      </trkpt>
      <trkpt lat="45.43624" lon="5.75429">
        <ele>396</ele>
        <time>2021-08-24T07:39:36Z</time>
      </trkpt>
      <trkpt lat="45.43624" lon="5.75435">
        <ele>396.2</ele>
        <time>2021-08-24T07:39:37Z</time>
      </trkpt>
      <trkpt lat="45.43624" lon="5.75442">
        <ele>396.4</ele>
        <time>2021-08-24T07:39:39Z</time>
      </trkpt>
      <trkpt lat="45.43624" lon="5.75451">
        <ele>396.7</ele>
        <time>2021-08-24T07:39:40Z</time>
      </trkpt>
      <trkpt lat="45.43625" lon="5.75459">
        <ele>396.9</ele>
        <time>2021-08-24T07:39:42Z</time>
      </trkpt>
      <trkpt lat="45.43624" lon="5.75465">
        <ele>397.1</ele>
        <time>2021-08-24T07:39:43Z</time>
      </trkpt>
      <trkpt lat="45.43624" lon="5.7547">
        <ele>397.3</ele>
        <time>2021-08-24T07:39:45Z</time>
      </trkpt>
      <trkpt lat="45.43625" lon="5.75475">
        <ele>397.3</ele>
        <time>2021-08-24T07:39:46Z</time>
      </trkpt>
      <trkpt lat="45.43627" lon="5.7548">
        <ele>397.4</ele>
        <time>2021-08-24T07:39:48Z</time>
      </trkpt>
      <trkpt lat="45.43628" lon="5.75484">
        <ele>397.4</ele>
        <time>2021-08-24T07:39:49Z</time>
      </trkpt>
      <trkpt lat="45.4363" lon="5.75487">
        <ele>397.4</ele>
        <time>2021-08-24T07:39:50Z</time>
      </trkpt>
      <trkpt lat="45.4363" lon="5.75489">
        <ele>397.5</ele>
        <time>2021-08-24T07:39:51Z</time>
      </trkpt>
      <trkpt lat="45.43629" lon="5.75495">
        <ele>397.5</ele>
        <time>2021-08-24T07:39:53Z</time>
      </trkpt>
      <trkpt lat="45.43629" lon="5.75498">
        <ele>397.4</ele>
        <time>2021-08-24T07:39:54Z</time>
      </trkpt>
      <trkpt lat="45.43629" lon="5.75498">
        <ele>397.4</ele>
        <time>2021-08-24T07:39:55Z</time>
      </trkpt>
      <trkpt lat="45.43629" lon="5.755">
        <ele>397.4</ele>
        <time>2021-08-24T07:39:56Z</time>
      </trkpt>
      <trkpt lat="45.43631" lon="5.75506">
        <ele>397.4</ele>
        <time>2021-08-24T07:39:58Z</time>
      </trkpt>
      <trkpt lat="45.43632" lon="5.75508">
        <ele>397.4</ele>
        <time>2021-08-24T07:39:59Z</time>
      </trkpt>
      <trkpt lat="45.43633" lon="5.75511">
        <ele>397.4</ele>
        <time>2021-08-24T07:40:00Z</time>
      </trkpt>
      <trkpt lat="45.43635" lon="5.75514">
        <ele>397.4</ele>
        <time>2021-08-24T07:40:01Z</time>
      </trkpt>
      <trkpt lat="45.4364" lon="5.75519">
        <ele>397.3</ele>
        <time>2021-08-24T07:40:03Z</time>
      </trkpt>
      <trkpt lat="45.43642" lon="5.75524">
        <ele>397.3</ele>
        <time>2021-08-24T07:40:04Z</time>
      </trkpt>
      <trkpt lat="45.43644" lon="5.75527">
        <ele>397.3</ele>
        <time>2021-08-24T07:40:05Z</time>
      </trkpt>
      <trkpt lat="45.43646" lon="5.75532">
        <ele>397.3</ele>
        <time>2021-08-24T07:40:06Z</time>
      </trkpt>
      <trkpt lat="45.4365" lon="5.7554">
        <ele>397.2</ele>
        <time>2021-08-24T07:40:08Z</time>
      </trkpt>
      <trkpt lat="45.43652" lon="5.75546">
        <ele>397.2</ele>
        <time>2021-08-24T07:40:09Z</time>
      </trkpt>
      <trkpt lat="45.43653" lon="5.7555">
        <ele>397.2</ele>
        <time>2021-08-24T07:40:10Z</time>
      </trkpt>
      <trkpt lat="45.43655" lon="5.75552">
        <ele>397.2</ele>
        <time>2021-08-24T07:40:12Z</time>
      </trkpt>
      <trkpt lat="45.43657" lon="5.75553">
        <ele>397.2</ele>
        <time>2021-08-24T07:40:14Z</time>
      </trkpt>
      <trkpt lat="45.43657" lon="5.75556">
        <ele>397.2</ele>
        <time>2021-08-24T07:40:15Z</time>
      </trkpt>
      <trkpt lat="45.43658" lon="5.75558">
        <ele>397.2</ele>
        <time>2021-08-24T07:40:16Z</time>
      </trkpt>
      <trkpt lat="45.4366" lon="5.75564">
        <ele>397.2</ele>
        <time>2021-08-24T07:40:18Z</time>
      </trkpt>
      <trkpt lat="45.43663" lon="5.75571">
        <ele>397.3</ele>
        <time>2021-08-24T07:40:20Z</time>
      </trkpt>
      <trkpt lat="45.43667" lon="5.75578">
        <ele>397.3</ele>
        <time>2021-08-24T07:40:22Z</time>
      </trkpt>
      <trkpt lat="45.43669" lon="5.75582">
        <ele>397.4</ele>
        <time>2021-08-24T07:40:23Z</time>
      </trkpt>
      <trkpt lat="45.4367" lon="5.75586">
        <ele>397.4</ele>
        <time>2021-08-24T07:40:24Z</time>
      </trkpt>
      <trkpt lat="45.43672" lon="5.75593">
        <ele>397.4</ele>
        <time>2021-08-24T07:40:26Z</time>
      </trkpt>
      <trkpt lat="45.43673" lon="5.75596">
        <ele>397.5</ele>
        <time>2021-08-24T07:40:27Z</time>
      </trkpt>
      <trkpt lat="45.43676" lon="5.75603">
        <ele>397.5</ele>
        <time>2021-08-24T07:40:29Z</time>
      </trkpt>
      <trkpt lat="45.43678" lon="5.75611">
        <ele>397.6</ele>
        <time>2021-08-24T07:40:31Z</time>
      </trkpt>
      <trkpt lat="45.43681" lon="5.75619">
        <ele>397.7</ele>
        <time>2021-08-24T07:40:33Z</time>
      </trkpt>
      <trkpt lat="45.43684" lon="5.75623">
        <ele>397.8</ele>
        <time>2021-08-24T07:40:34Z</time>
      </trkpt>
      <trkpt lat="45.43687" lon="5.75625">
        <ele>397.8</ele>
        <time>2021-08-24T07:40:35Z</time>
      </trkpt>
      <trkpt lat="45.4369" lon="5.75626">
        <ele>397.8</ele>
        <time>2021-08-24T07:40:37Z</time>
      </trkpt>
      <trkpt lat="45.4369" lon="5.75627">
        <ele>397.9</ele>
        <time>2021-08-24T07:40:38Z</time>
      </trkpt>
      <trkpt lat="45.4369" lon="5.75628">
        <ele>397.9</ele>
        <time>2021-08-24T07:40:40Z</time>
      </trkpt>
      <trkpt lat="45.4369" lon="5.75629">
        <ele>397.9</ele>
        <time>2021-08-24T07:40:41Z</time>
      </trkpt>
      <trkpt lat="45.43692" lon="5.75631">
        <ele>397.9</ele>
        <time>2021-08-24T07:40:42Z</time>
      </trkpt>
      <trkpt lat="45.43692" lon="5.75631">
        <ele>397.9</ele>
        <time>2021-08-24T07:40:44Z</time>
      </trkpt>
      <trkpt lat="45.43695" lon="5.75634">
        <ele>398</ele>
        <time>2021-08-24T07:40:49Z</time>
      </trkpt>
      <trkpt lat="45.43705" lon="5.75637">
        <ele>398.1</ele>
        <time>2021-08-24T07:40:51Z</time>
      </trkpt>
      <trkpt lat="45.43713" lon="5.75637">
        <ele>398.1</ele>
        <time>2021-08-24T07:40:52Z</time>
      </trkpt>
      <trkpt lat="45.4372" lon="5.75637">
        <ele>398.2</ele>
        <time>2021-08-24T07:40:53Z</time>
      </trkpt>
      <trkpt lat="45.43727" lon="5.75637">
        <ele>398.2</ele>
        <time>2021-08-24T07:40:54Z</time>
      </trkpt>
      <trkpt lat="45.43739" lon="5.75638">
        <ele>398.1</ele>
        <time>2021-08-24T07:40:56Z</time>
      </trkpt>
      <trkpt lat="45.43747" lon="5.75642">
        <ele>398</ele>
        <time>2021-08-24T07:40:57Z</time>
      </trkpt>
      <trkpt lat="45.43752" lon="5.75644">
        <ele>397.9</ele>
        <time>2021-08-24T07:40:58Z</time>
      </trkpt>
      <trkpt lat="45.43757" lon="5.75647">
        <ele>397.8</ele>
        <time>2021-08-24T07:40:59Z</time>
      </trkpt>
      <trkpt lat="45.43765" lon="5.75652">
        <ele>397.6</ele>
        <time>2021-08-24T07:41:01Z</time>
      </trkpt>
      <trkpt lat="45.4377" lon="5.75654">
        <ele>397.5</ele>
        <time>2021-08-24T07:41:02Z</time>
      </trkpt>
      <trkpt lat="45.43774" lon="5.75658">
        <ele>397.4</ele>
        <time>2021-08-24T07:41:03Z</time>
      </trkpt>
      <trkpt lat="45.43778" lon="5.75662">
        <ele>397.3</ele>
        <time>2021-08-24T07:41:04Z</time>
      </trkpt>
      <trkpt lat="45.43782" lon="5.75665">
        <ele>397.2</ele>
        <time>2021-08-24T07:41:05Z</time>
      </trkpt>
      <trkpt lat="45.43787" lon="5.75669">
        <ele>397.1</ele>
        <time>2021-08-24T07:41:06Z</time>
      </trkpt>
      <trkpt lat="45.43791" lon="5.75672">
        <ele>397</ele>
        <time>2021-08-24T07:41:07Z</time>
      </trkpt>
      <trkpt lat="45.43796" lon="5.75675">
        <ele>396.9</ele>
        <time>2021-08-24T07:41:08Z</time>
      </trkpt>
      <trkpt lat="45.43802" lon="5.75678">
        <ele>396.8</ele>
        <time>2021-08-24T07:41:09Z</time>
      </trkpt>
      <trkpt lat="45.43812" lon="5.75685">
        <ele>396.7</ele>
        <time>2021-08-24T07:41:11Z</time>
      </trkpt>
      <trkpt lat="45.43818" lon="5.75688">
        <ele>396.6</ele>
        <time>2021-08-24T07:41:12Z</time>
      </trkpt>
      <trkpt lat="45.43832" lon="5.75692">
        <ele>396.6</ele>
        <time>2021-08-24T07:41:14Z</time>
      </trkpt>
      <trkpt lat="45.43837" lon="5.75693">
        <ele>396.7</ele>
        <time>2021-08-24T07:41:15Z</time>
      </trkpt>
      <trkpt lat="45.43847" lon="5.75697">
        <ele>396.6</ele>
        <time>2021-08-24T07:41:17Z</time>
      </trkpt>
      <trkpt lat="45.43851" lon="5.75699">
        <ele>396.6</ele>
        <time>2021-08-24T07:41:18Z</time>
      </trkpt>
      <trkpt lat="45.43855" lon="5.75702">
        <ele>396.6</ele>
        <time>2021-08-24T07:41:19Z</time>
      </trkpt>
      <trkpt lat="45.43859" lon="5.75706">
        <ele>396.6</ele>
        <time>2021-08-24T07:41:20Z</time>
      </trkpt>
      <trkpt lat="45.43868" lon="5.75712">
        <ele>396.5</ele>
        <time>2021-08-24T07:41:22Z</time>
      </trkpt>
      <trkpt lat="45.43876" lon="5.7572">
        <ele>396.5</ele>
        <time>2021-08-24T07:41:24Z</time>
      </trkpt>
      <trkpt lat="45.43886" lon="5.75726">
        <ele>396.6</ele>
        <time>2021-08-24T07:41:26Z</time>
      </trkpt>
      <trkpt lat="45.43894" lon="5.75733">
        <ele>396.6</ele>
        <time>2021-08-24T07:41:28Z</time>
      </trkpt>
      <trkpt lat="45.43904" lon="5.75741">
        <ele>396.6</ele>
        <time>2021-08-24T07:41:30Z</time>
      </trkpt>
      <trkpt lat="45.43912" lon="5.75747">
        <ele>396.6</ele>
        <time>2021-08-24T07:41:32Z</time>
      </trkpt>
      <trkpt lat="45.43917" lon="5.7575">
        <ele>396.6</ele>
        <time>2021-08-24T07:41:33Z</time>
      </trkpt>
      <trkpt lat="45.43924" lon="5.75757">
        <ele>396.6</ele>
        <time>2021-08-24T07:41:35Z</time>
      </trkpt>
      <trkpt lat="45.43928" lon="5.7576">
        <ele>396.6</ele>
        <time>2021-08-24T07:41:36Z</time>
      </trkpt>
      <trkpt lat="45.43936" lon="5.75766">
        <ele>396.6</ele>
        <time>2021-08-24T07:41:38Z</time>
      </trkpt>
      <trkpt lat="45.43942" lon="5.75773">
        <ele>396.6</ele>
        <time>2021-08-24T07:41:40Z</time>
      </trkpt>
      <trkpt lat="45.43949" lon="5.75779">
        <ele>396.6</ele>
        <time>2021-08-24T07:41:42Z</time>
      </trkpt>
      <trkpt lat="45.43953" lon="5.75782">
        <ele>396.6</ele>
        <time>2021-08-24T07:41:43Z</time>
      </trkpt>
      <trkpt lat="45.43957" lon="5.75777">
        <ele>396.6</ele>
        <time>2021-08-24T07:41:45Z</time>
      </trkpt>
      <trkpt lat="45.4396" lon="5.75782">
        <ele>396.7</ele>
        <time>2021-08-24T07:41:46Z</time>
      </trkpt>
      <trkpt lat="45.43967" lon="5.75793">
        <ele>396.7</ele>
        <time>2021-08-24T07:41:48Z</time>
      </trkpt>
      <trkpt lat="45.43972" lon="5.75802">
        <ele>396.7</ele>
        <time>2021-08-24T07:41:50Z</time>
      </trkpt>
      <trkpt lat="45.43977" lon="5.75809">
        <ele>396.7</ele>
        <time>2021-08-24T07:41:52Z</time>
      </trkpt>
      <trkpt lat="45.43982" lon="5.75815">
        <ele>396.7</ele>
        <time>2021-08-24T07:41:54Z</time>
      </trkpt>
      <trkpt lat="45.43984" lon="5.75819">
        <ele>396.7</ele>
        <time>2021-08-24T07:41:55Z</time>
      </trkpt>
      <trkpt lat="45.43985" lon="5.75823">
        <ele>396.7</ele>
        <time>2021-08-24T07:41:56Z</time>
      </trkpt>
      <trkpt lat="45.43987" lon="5.75828">
        <ele>396.8</ele>
        <time>2021-08-24T07:41:57Z</time>
      </trkpt>
      <trkpt lat="45.4399" lon="5.75835">
        <ele>396.8</ele>
        <time>2021-08-24T07:41:59Z</time>
      </trkpt>
      <trkpt lat="45.43994" lon="5.75836">
        <ele>396.8</ele>
        <time>2021-08-24T07:42:00Z</time>
      </trkpt>
      <trkpt lat="45.43999" lon="5.75842">
        <ele>396.9</ele>
        <time>2021-08-24T07:42:02Z</time>
      </trkpt>
      <trkpt lat="45.44002" lon="5.75851">
        <ele>399.9</ele>
        <time>2021-08-24T07:42:04Z</time>
      </trkpt>
      <trkpt lat="45.44002" lon="5.75859">
        <ele>401.9</ele>
        <time>2021-08-24T07:42:05Z</time>
      </trkpt>
      <trkpt lat="45.44001" lon="5.75866">
        <ele>404</ele>
        <time>2021-08-24T07:42:07Z</time>
      </trkpt>
      <trkpt lat="45.44" lon="5.75868">
        <ele>404.5</ele>
        <time>2021-08-24T07:42:08Z</time>
      </trkpt>
      <trkpt lat="45.43998" lon="5.75873">
        <ele>404.9</ele>
        <time>2021-08-24T07:42:10Z</time>
      </trkpt>
      <trkpt lat="45.43992" lon="5.75883">
        <ele>403.7</ele>
        <time>2021-08-24T07:42:12Z</time>
      </trkpt>
      <trkpt lat="45.43989" lon="5.75887">
        <ele>403.1</ele>
        <time>2021-08-24T07:42:13Z</time>
      </trkpt>
      <trkpt lat="45.43983" lon="5.75895">
        <ele>401.8</ele>
        <time>2021-08-24T07:42:15Z</time>
      </trkpt>
      <trkpt lat="45.43979" lon="5.75899">
        <ele>401.1</ele>
        <time>2021-08-24T07:42:16Z</time>
      </trkpt>
      <trkpt lat="45.43972" lon="5.75906">
        <ele>399.9</ele>
        <time>2021-08-24T07:42:18Z</time>
      </trkpt>
      <trkpt lat="45.43968" lon="5.75909">
        <ele>399.3</ele>
        <time>2021-08-24T07:42:19Z</time>
      </trkpt>
      <trkpt lat="45.43963" lon="5.75912">
        <ele>398.5</ele>
        <time>2021-08-24T07:42:21Z</time>
      </trkpt>
      <trkpt lat="45.43957" lon="5.75912">
        <ele>398.1</ele>
        <time>2021-08-24T07:42:22Z</time>
      </trkpt>
      <trkpt lat="45.43952" lon="5.75904">
        <ele>398.2</ele>
        <time>2021-08-24T07:42:24Z</time>
      </trkpt>
      <trkpt lat="45.43949" lon="5.75897">
        <ele>398.2</ele>
        <time>2021-08-24T07:42:25Z</time>
      </trkpt>
      <trkpt lat="45.43947" lon="5.7589">
        <ele>398.3</ele>
        <time>2021-08-24T07:42:26Z</time>
      </trkpt>
      <trkpt lat="45.43944" lon="5.7588">
        <ele>398.3</ele>
        <time>2021-08-24T07:42:28Z</time>
      </trkpt>
      <trkpt lat="45.43942" lon="5.75874">
        <ele>398.4</ele>
        <time>2021-08-24T07:42:29Z</time>
      </trkpt>
      <trkpt lat="45.43939" lon="5.75868">
        <ele>398.4</ele>
        <time>2021-08-24T07:42:30Z</time>
      </trkpt>
      <trkpt lat="45.43933" lon="5.75863">
        <ele>398.4</ele>
        <time>2021-08-24T07:42:32Z</time>
      </trkpt>
      <trkpt lat="45.43929" lon="5.75859">
        <ele>398.4</ele>
        <time>2021-08-24T07:42:33Z</time>
      </trkpt>
      <trkpt lat="45.43924" lon="5.75855">
        <ele>398.4</ele>
        <time>2021-08-24T07:42:34Z</time>
      </trkpt>
      <trkpt lat="45.43919" lon="5.75852">
        <ele>398.4</ele>
        <time>2021-08-24T07:42:35Z</time>
      </trkpt>
      <trkpt lat="45.43915" lon="5.75848">
        <ele>398.4</ele>
        <time>2021-08-24T07:42:36Z</time>
      </trkpt>
      <trkpt lat="45.43911" lon="5.75845">
        <ele>398.4</ele>
        <time>2021-08-24T07:42:37Z</time>
      </trkpt>
      <trkpt lat="45.43907" lon="5.7584">
        <ele>398.4</ele>
        <time>2021-08-24T07:42:38Z</time>
      </trkpt>
      <trkpt lat="45.43904" lon="5.75833">
        <ele>398.4</ele>
        <time>2021-08-24T07:42:39Z</time>
      </trkpt>
      <trkpt lat="45.43901" lon="5.75828">
        <ele>398.3</ele>
        <time>2021-08-24T07:42:40Z</time>
      </trkpt>
      <trkpt lat="45.43899" lon="5.75823">
        <ele>398.3</ele>
        <time>2021-08-24T07:42:41Z</time>
      </trkpt>
      <trkpt lat="45.43895" lon="5.75819">
        <ele>398.1</ele>
        <time>2021-08-24T07:42:43Z</time>
      </trkpt>
      <trkpt lat="45.43892" lon="5.75814">
        <ele>397.8</ele>
        <time>2021-08-24T07:42:44Z</time>
      </trkpt>
      <trkpt lat="45.43887" lon="5.7581">
        <ele>397.5</ele>
        <time>2021-08-24T07:42:45Z</time>
      </trkpt>
      <trkpt lat="45.43884" lon="5.75808">
        <ele>397.3</ele>
        <time>2021-08-24T07:42:46Z</time>
      </trkpt>
      <trkpt lat="45.43881" lon="5.75805">
        <ele>397</ele>
        <time>2021-08-24T07:42:47Z</time>
      </trkpt>
      <trkpt lat="45.43878" lon="5.75802">
        <ele>396.8</ele>
        <time>2021-08-24T07:42:48Z</time>
      </trkpt>
      <trkpt lat="45.43873" lon="5.75799">
        <ele>396.5</ele>
        <time>2021-08-24T07:42:50Z</time>
      </trkpt>
      <trkpt lat="45.43869" lon="5.75798">
        <ele>396.3</ele>
        <time>2021-08-24T07:42:51Z</time>
      </trkpt>
      <trkpt lat="45.43862" lon="5.75802">
        <ele>395.9</ele>
        <time>2021-08-24T07:42:53Z</time>
      </trkpt>
      <trkpt lat="45.43859" lon="5.75804">
        <ele>395.6</ele>
        <time>2021-08-24T07:42:54Z</time>
      </trkpt>
      <trkpt lat="45.43859" lon="5.7581">
        <ele>395.6</ele>
        <time>2021-08-24T07:42:56Z</time>
      </trkpt>
      <trkpt lat="45.43861" lon="5.75815">
        <ele>395.6</ele>
        <time>2021-08-24T07:42:57Z</time>
      </trkpt>
      <trkpt lat="45.43864" lon="5.7582">
        <ele>395.6</ele>
        <time>2021-08-24T07:42:58Z</time>
      </trkpt>
      <trkpt lat="45.43867" lon="5.7583">
        <ele>395.6</ele>
        <time>2021-08-24T07:43:00Z</time>
      </trkpt>
      <trkpt lat="45.4387" lon="5.75839">
        <ele>395.6</ele>
        <time>2021-08-24T07:43:01Z</time>
      </trkpt>
      <trkpt lat="45.43872" lon="5.75846">
        <ele>395.6</ele>
        <time>2021-08-24T07:43:02Z</time>
      </trkpt>
      <trkpt lat="45.43874" lon="5.75855">
        <ele>395.5</ele>
        <time>2021-08-24T07:43:04Z</time>
      </trkpt>
      <trkpt lat="45.43878" lon="5.75862">
        <ele>395.5</ele>
        <time>2021-08-24T07:43:05Z</time>
      </trkpt>
      <trkpt lat="45.43881" lon="5.75869">
        <ele>395.5</ele>
        <time>2021-08-24T07:43:06Z</time>
      </trkpt>
      <trkpt lat="45.43885" lon="5.7588">
        <ele>395.5</ele>
        <time>2021-08-24T07:43:08Z</time>
      </trkpt>
      <trkpt lat="45.43887" lon="5.75887">
        <ele>395.5</ele>
        <time>2021-08-24T07:43:09Z</time>
      </trkpt>
      <trkpt lat="45.43891" lon="5.75894">
        <ele>395.5</ele>
        <time>2021-08-24T07:43:11Z</time>
      </trkpt>
      <trkpt lat="45.43895" lon="5.759">
        <ele>395.5</ele>
        <time>2021-08-24T07:43:12Z</time>
      </trkpt>
      <trkpt lat="45.43898" lon="5.75902">
        <ele>395.5</ele>
        <time>2021-08-24T07:43:13Z</time>
      </trkpt>
      <trkpt lat="45.43901" lon="5.75904">
        <ele>395.5</ele>
        <time>2021-08-24T07:43:14Z</time>
      </trkpt>
      <trkpt lat="45.43905" lon="5.75909">
        <ele>395.5</ele>
        <time>2021-08-24T07:43:16Z</time>
      </trkpt>
      <trkpt lat="45.43909" lon="5.75909">
        <ele>395.5</ele>
        <time>2021-08-24T07:43:17Z</time>
      </trkpt>
      <trkpt lat="45.43917" lon="5.7591">
        <ele>395.5</ele>
        <time>2021-08-24T07:43:19Z</time>
      </trkpt>
      <trkpt lat="45.43924" lon="5.7591">
        <ele>395.5</ele>
        <time>2021-08-24T07:43:20Z</time>
      </trkpt>
      <trkpt lat="45.43932" lon="5.75911">
        <ele>395.5</ele>
        <time>2021-08-24T07:43:22Z</time>
      </trkpt>
      <trkpt lat="45.43939" lon="5.75913">
        <ele>395.5</ele>
        <time>2021-08-24T07:43:24Z</time>
      </trkpt>
      <trkpt lat="45.43943" lon="5.75915">
        <ele>395.5</ele>
        <time>2021-08-24T07:43:25Z</time>
      </trkpt>
      <trkpt lat="45.43948" lon="5.75917">
        <ele>395.5</ele>
        <time>2021-08-24T07:43:27Z</time>
      </trkpt>
      <trkpt lat="45.43945" lon="5.75922">
        <ele>395.5</ele>
        <time>2021-08-24T07:43:28Z</time>
      </trkpt>
      <trkpt lat="45.43943" lon="5.75926">
        <ele>395.5</ele>
        <time>2021-08-24T07:43:29Z</time>
      </trkpt>
      <trkpt lat="45.43942" lon="5.75928">
        <ele>395.5</ele>
        <time>2021-08-24T07:43:31Z</time>
      </trkpt>
      <trkpt lat="45.43943" lon="5.75929">
        <ele>395.5</ele>
        <time>2021-08-24T07:43:32Z</time>
      </trkpt>
      <trkpt lat="45.43945" lon="5.7593">
        <ele>395.4</ele>
        <time>2021-08-24T07:43:34Z</time>
      </trkpt>
      <trkpt lat="45.43948" lon="5.75933">
        <ele>395.4</ele>
        <time>2021-08-24T07:43:35Z</time>
      </trkpt>
      <trkpt lat="45.43951" lon="5.75936">
        <ele>395.4</ele>
        <time>2021-08-24T07:43:36Z</time>
      </trkpt>
      <trkpt lat="45.43953" lon="5.75969">
        <ele>395.2</ele>
        <time>2021-08-24T07:43:38Z</time>
      </trkpt>
      <trkpt lat="45.43955" lon="5.76001">
        <ele>395.1</ele>
        <time>2021-08-24T07:45:44Z</time>
      </trkpt>
      <trkpt lat="45.43956" lon="5.76033">
        <ele>395.1</ele>
        <time>2021-08-24T07:45:45Z</time>
      </trkpt>
      <trkpt lat="45.4396" lon="5.76037">
        <ele>395.1</ele>
        <time>2021-08-24T07:45:46Z</time>
      </trkpt>
      <trkpt lat="45.43965" lon="5.76042">
        <ele>395.2</ele>
        <time>2021-08-24T07:45:47Z</time>
      </trkpt>
      <trkpt lat="45.43969" lon="5.76047">
        <ele>395.2</ele>
        <time>2021-08-24T07:45:48Z</time>
      </trkpt>
      <trkpt lat="45.43973" lon="5.76053">
        <ele>395.2</ele>
        <time>2021-08-24T07:45:49Z</time>
      </trkpt>
      <trkpt lat="45.43977" lon="5.76058">
        <ele>395.2</ele>
        <time>2021-08-24T07:45:50Z</time>
      </trkpt>
      <trkpt lat="45.43981" lon="5.76065">
        <ele>395.1</ele>
        <time>2021-08-24T07:45:51Z</time>
      </trkpt>
      <trkpt lat="45.43985" lon="5.76071">
        <ele>395.1</ele>
        <time>2021-08-24T07:45:52Z</time>
      </trkpt>
      <trkpt lat="45.43989" lon="5.76076">
        <ele>395.1</ele>
        <time>2021-08-24T07:45:54Z</time>
      </trkpt>
      <trkpt lat="45.43993" lon="5.76083">
        <ele>395</ele>
        <time>2021-08-24T07:45:55Z</time>
      </trkpt>
      <trkpt lat="45.43999" lon="5.7609">
        <ele>395</ele>
        <time>2021-08-24T07:45:57Z</time>
      </trkpt>
      <trkpt lat="45.44003" lon="5.76096">
        <ele>395</ele>
        <time>2021-08-24T07:45:58Z</time>
      </trkpt>
      <trkpt lat="45.44008" lon="5.76105">
        <ele>395</ele>
        <time>2021-08-24T07:46:00Z</time>
      </trkpt>
      <trkpt lat="45.44012" lon="5.76111">
        <ele>395</ele>
        <time>2021-08-24T07:46:01Z</time>
      </trkpt>
      <trkpt lat="45.44015" lon="5.76116">
        <ele>395</ele>
        <time>2021-08-24T07:46:02Z</time>
      </trkpt>
      <trkpt lat="45.44018" lon="5.76123">
        <ele>395</ele>
        <time>2021-08-24T07:46:03Z</time>
      </trkpt>
      <trkpt lat="45.44022" lon="5.76131">
        <ele>395</ele>
        <time>2021-08-24T07:46:05Z</time>
      </trkpt>
      <trkpt lat="45.44025" lon="5.76135">
        <ele>395</ele>
        <time>2021-08-24T07:46:06Z</time>
      </trkpt>
      <trkpt lat="45.44028" lon="5.76138">
        <ele>395</ele>
        <time>2021-08-24T07:46:07Z</time>
      </trkpt>
      <trkpt lat="45.44031" lon="5.76142">
        <ele>395</ele>
        <time>2021-08-24T07:46:08Z</time>
      </trkpt>
      <trkpt lat="45.44037" lon="5.76148">
        <ele>395</ele>
        <time>2021-08-24T07:46:10Z</time>
      </trkpt>
      <trkpt lat="45.44039" lon="5.76152">
        <ele>395.1</ele>
        <time>2021-08-24T07:46:11Z</time>
      </trkpt>
      <trkpt lat="45.44042" lon="5.76157">
        <ele>395.1</ele>
        <time>2021-08-24T07:46:13Z</time>
      </trkpt>
      <trkpt lat="45.44046" lon="5.7616">
        <ele>395.2</ele>
        <time>2021-08-24T07:46:14Z</time>
      </trkpt>
      <trkpt lat="45.44049" lon="5.76162">
        <ele>395.2</ele>
        <time>2021-08-24T07:46:15Z</time>
      </trkpt>
      <trkpt lat="45.44052" lon="5.76166">
        <ele>395.3</ele>
        <time>2021-08-24T07:46:17Z</time>
      </trkpt>
      <trkpt lat="45.44053" lon="5.76171">
        <ele>395.3</ele>
        <time>2021-08-24T07:46:18Z</time>
      </trkpt>
      <trkpt lat="45.44058" lon="5.76176">
        <ele>395.5</ele>
        <time>2021-08-24T07:46:20Z</time>
      </trkpt>
      <trkpt lat="45.44062" lon="5.76179">
        <ele>395.5</ele>
        <time>2021-08-24T07:46:21Z</time>
      </trkpt>
      <trkpt lat="45.44064" lon="5.76182">
        <ele>395.6</ele>
        <time>2021-08-24T07:46:23Z</time>
      </trkpt>
      <trkpt lat="45.44067" lon="5.76186">
        <ele>395.7</ele>
        <time>2021-08-24T07:46:24Z</time>
      </trkpt>
      <trkpt lat="45.4407" lon="5.7619">
        <ele>395.8</ele>
        <time>2021-08-24T07:46:25Z</time>
      </trkpt>
      <trkpt lat="45.44072" lon="5.76194">
        <ele>395.9</ele>
        <time>2021-08-24T07:46:26Z</time>
      </trkpt>
      <trkpt lat="45.44073" lon="5.76202">
        <ele>396</ele>
        <time>2021-08-24T07:46:28Z</time>
      </trkpt>
      <trkpt lat="45.44075" lon="5.76207">
        <ele>396.1</ele>
        <time>2021-08-24T07:46:29Z</time>
      </trkpt>
      <trkpt lat="45.44074" lon="5.76212">
        <ele>396.2</ele>
        <time>2021-08-24T07:46:30Z</time>
      </trkpt>
      <trkpt lat="45.44075" lon="5.76217">
        <ele>396.3</ele>
        <time>2021-08-24T07:46:32Z</time>
      </trkpt>
      <trkpt lat="45.44075" lon="5.76222">
        <ele>396.3</ele>
        <time>2021-08-24T07:46:33Z</time>
      </trkpt>
      <trkpt lat="45.44075" lon="5.76224">
        <ele>396.4</ele>
        <time>2021-08-24T07:46:34Z</time>
      </trkpt>
      <trkpt lat="45.44075" lon="5.76226">
        <ele>396.4</ele>
        <time>2021-08-24T07:46:35Z</time>
      </trkpt>
      <trkpt lat="45.44076" lon="5.76226">
        <ele>396.4</ele>
        <time>2021-08-24T07:46:36Z</time>
      </trkpt>
      <trkpt lat="45.44076" lon="5.7623">
        <ele>396.5</ele>
        <time>2021-08-24T07:46:38Z</time>
      </trkpt>
      <trkpt lat="45.44077" lon="5.76233">
        <ele>396.6</ele>
        <time>2021-08-24T07:46:39Z</time>
      </trkpt>
      <trkpt lat="45.44078" lon="5.76234">
        <ele>396.6</ele>
        <time>2021-08-24T07:46:40Z</time>
      </trkpt>
      <trkpt lat="45.44079" lon="5.76235">
        <ele>396.6</ele>
        <time>2021-08-24T07:46:41Z</time>
      </trkpt>
      <trkpt lat="45.4408" lon="5.76239">
        <ele>396.7</ele>
        <time>2021-08-24T07:46:42Z</time>
      </trkpt>
      <trkpt lat="45.44081" lon="5.7624">
        <ele>396.7</ele>
        <time>2021-08-24T07:46:43Z</time>
      </trkpt>
      <trkpt lat="45.44082" lon="5.76243">
        <ele>396.8</ele>
        <time>2021-08-24T07:46:44Z</time>
      </trkpt>
      <trkpt lat="45.44085" lon="5.76248">
        <ele>396.9</ele>
        <time>2021-08-24T07:46:46Z</time>
      </trkpt>
      <trkpt lat="45.44086" lon="5.76251">
        <ele>397</ele>
        <time>2021-08-24T07:46:47Z</time>
      </trkpt>
      <trkpt lat="45.44088" lon="5.76255">
        <ele>397.1</ele>
        <time>2021-08-24T07:46:48Z</time>
      </trkpt>
      <trkpt lat="45.44091" lon="5.76261">
        <ele>397.2</ele>
        <time>2021-08-24T07:46:50Z</time>
      </trkpt>
      <trkpt lat="45.44093" lon="5.76266">
        <ele>397.3</ele>
        <time>2021-08-24T07:46:51Z</time>
      </trkpt>
      <trkpt lat="45.44096" lon="5.7627">
        <ele>397.4</ele>
        <time>2021-08-24T07:46:52Z</time>
      </trkpt>
      <trkpt lat="45.44099" lon="5.76276">
        <ele>397.5</ele>
        <time>2021-08-24T07:46:53Z</time>
      </trkpt>
      <trkpt lat="45.44101" lon="5.7628">
        <ele>397.6</ele>
        <time>2021-08-24T07:46:55Z</time>
      </trkpt>
      <trkpt lat="45.44105" lon="5.76284">
        <ele>397.7</ele>
        <time>2021-08-24T07:46:56Z</time>
      </trkpt>
      <trkpt lat="45.4411" lon="5.7629">
        <ele>397.9</ele>
        <time>2021-08-24T07:46:58Z</time>
      </trkpt>
      <trkpt lat="45.44115" lon="5.76295">
        <ele>398</ele>
        <time>2021-08-24T07:47:00Z</time>
      </trkpt>
      <trkpt lat="45.44118" lon="5.76299">
        <ele>398.1</ele>
        <time>2021-08-24T07:47:01Z</time>
      </trkpt>
      <trkpt lat="45.44121" lon="5.76303">
        <ele>398.1</ele>
        <time>2021-08-24T07:47:02Z</time>
      </trkpt>
      <trkpt lat="45.44124" lon="5.76306">
        <ele>398.2</ele>
        <time>2021-08-24T07:47:03Z</time>
      </trkpt>
      <trkpt lat="45.44129" lon="5.76314">
        <ele>398.3</ele>
        <time>2021-08-24T07:47:05Z</time>
      </trkpt>
      <trkpt lat="45.44135" lon="5.7632">
        <ele>398.5</ele>
        <time>2021-08-24T07:47:07Z</time>
      </trkpt>
      <trkpt lat="45.4414" lon="5.76323">
        <ele>398.6</ele>
        <time>2021-08-24T07:47:09Z</time>
      </trkpt>
      <trkpt lat="45.44143" lon="5.76324">
        <ele>398.6</ele>
        <time>2021-08-24T07:47:10Z</time>
      </trkpt>
      <trkpt lat="45.44145" lon="5.76326">
        <ele>398.6</ele>
        <time>2021-08-24T07:47:11Z</time>
      </trkpt>
      <trkpt lat="45.44149" lon="5.76329">
        <ele>398.7</ele>
        <time>2021-08-24T07:47:13Z</time>
      </trkpt>
      <trkpt lat="45.44151" lon="5.76331">
        <ele>398.8</ele>
        <time>2021-08-24T07:47:14Z</time>
      </trkpt>
      <trkpt lat="45.44154" lon="5.76334">
        <ele>398.8</ele>
        <time>2021-08-24T07:47:16Z</time>
      </trkpt>
      <trkpt lat="45.44158" lon="5.76339">
        <ele>398.9</ele>
        <time>2021-08-24T07:47:18Z</time>
      </trkpt>
      <trkpt lat="45.44162" lon="5.76345">
        <ele>399</ele>
        <time>2021-08-24T07:47:20Z</time>
      </trkpt>
      <trkpt lat="45.44166" lon="5.7635">
        <ele>399.1</ele>
        <time>2021-08-24T07:47:22Z</time>
      </trkpt>
      <trkpt lat="45.44168" lon="5.76353">
        <ele>399.2</ele>
        <time>2021-08-24T07:47:23Z</time>
      </trkpt>
      <trkpt lat="45.44172" lon="5.76359">
        <ele>399.3</ele>
        <time>2021-08-24T07:47:25Z</time>
      </trkpt>
      <trkpt lat="45.44174" lon="5.76362">
        <ele>399.3</ele>
        <time>2021-08-24T07:47:26Z</time>
      </trkpt>
      <trkpt lat="45.44178" lon="5.76367">
        <ele>399.4</ele>
        <time>2021-08-24T07:47:28Z</time>
      </trkpt>
      <trkpt lat="45.4418" lon="5.7637">
        <ele>399.4</ele>
        <time>2021-08-24T07:47:29Z</time>
      </trkpt>
      <trkpt lat="45.44183" lon="5.76376">
        <ele>399.4</ele>
        <time>2021-08-24T07:47:31Z</time>
      </trkpt>
      <trkpt lat="45.44184" lon="5.76379">
        <ele>399.5</ele>
        <time>2021-08-24T07:47:32Z</time>
      </trkpt>
      <trkpt lat="45.44187" lon="5.76385">
        <ele>399.5</ele>
        <time>2021-08-24T07:47:34Z</time>
      </trkpt>
      <trkpt lat="45.44189" lon="5.76388">
        <ele>399.5</ele>
        <time>2021-08-24T07:47:35Z</time>
      </trkpt>
      <trkpt lat="45.44193" lon="5.76394">
        <ele>399.5</ele>
        <time>2021-08-24T07:47:37Z</time>
      </trkpt>
      <trkpt lat="45.44195" lon="5.76396">
        <ele>399.5</ele>
        <time>2021-08-24T07:47:38Z</time>
      </trkpt>
      <trkpt lat="45.44199" lon="5.764">
        <ele>399.5</ele>
        <time>2021-08-24T07:47:40Z</time>
      </trkpt>
      <trkpt lat="45.44202" lon="5.76403">
        <ele>399.5</ele>
        <time>2021-08-24T07:47:41Z</time>
      </trkpt>
      <trkpt lat="45.44204" lon="5.76405">
        <ele>399.4</ele>
        <time>2021-08-24T07:47:42Z</time>
      </trkpt>
      <trkpt lat="45.44207" lon="5.7641">
        <ele>399.4</ele>
        <time>2021-08-24T07:47:43Z</time>
      </trkpt>
      <trkpt lat="45.4421" lon="5.76414">
        <ele>399.4</ele>
        <time>2021-08-24T07:47:44Z</time>
      </trkpt>
      <trkpt lat="45.44215" lon="5.76421">
        <ele>399.3</ele>
        <time>2021-08-24T07:47:46Z</time>
      </trkpt>
      <trkpt lat="45.44219" lon="5.76425">
        <ele>399.2</ele>
        <time>2021-08-24T07:47:47Z</time>
      </trkpt>
      <trkpt lat="45.44222" lon="5.7643">
        <ele>399.2</ele>
        <time>2021-08-24T07:47:48Z</time>
      </trkpt>
      <trkpt lat="45.44227" lon="5.76437">
        <ele>399.1</ele>
        <time>2021-08-24T07:47:49Z</time>
      </trkpt>
      <trkpt lat="45.4423" lon="5.76441">
        <ele>399.1</ele>
        <time>2021-08-24T07:47:51Z</time>
      </trkpt>
      <trkpt lat="45.44235" lon="5.76448">
        <ele>399.3</ele>
        <time>2021-08-24T07:47:52Z</time>
      </trkpt>
      <trkpt lat="45.44237" lon="5.76452">
        <ele>399.3</ele>
        <time>2021-08-24T07:47:53Z</time>
      </trkpt>
      <trkpt lat="45.44242" lon="5.76455">
        <ele>399.4</ele>
        <time>2021-08-24T07:47:54Z</time>
      </trkpt>
      <trkpt lat="45.44246" lon="5.76461">
        <ele>399.5</ele>
        <time>2021-08-24T07:47:56Z</time>
      </trkpt>
      <trkpt lat="45.44251" lon="5.76468">
        <ele>399.7</ele>
        <time>2021-08-24T07:47:58Z</time>
      </trkpt>
      <trkpt lat="45.44256" lon="5.76472">
        <ele>399.8</ele>
        <time>2021-08-24T07:48:00Z</time>
      </trkpt>
      <trkpt lat="45.44261" lon="5.76477">
        <ele>400</ele>
        <time>2021-08-24T07:48:02Z</time>
      </trkpt>
      <trkpt lat="45.44264" lon="5.76485">
        <ele>400.2</ele>
        <time>2021-08-24T07:48:04Z</time>
      </trkpt>
      <trkpt lat="45.44266" lon="5.76488">
        <ele>400.3</ele>
        <time>2021-08-24T07:48:05Z</time>
      </trkpt>
      <trkpt lat="45.44268" lon="5.76491">
        <ele>400.3</ele>
        <time>2021-08-24T07:48:06Z</time>
      </trkpt>
      <trkpt lat="45.4427" lon="5.76496">
        <ele>400.4</ele>
        <time>2021-08-24T07:48:07Z</time>
      </trkpt>
      <trkpt lat="45.44272" lon="5.765">
        <ele>400.5</ele>
        <time>2021-08-24T07:48:09Z</time>
      </trkpt>
      <trkpt lat="45.44275" lon="5.76503">
        <ele>400.5</ele>
        <time>2021-08-24T07:48:10Z</time>
      </trkpt>
      <trkpt lat="45.44279" lon="5.76507">
        <ele>400.6</ele>
        <time>2021-08-24T07:48:12Z</time>
      </trkpt>
      <trkpt lat="45.44283" lon="5.76512">
        <ele>400.7</ele>
        <time>2021-08-24T07:48:13Z</time>
      </trkpt>
      <trkpt lat="45.44285" lon="5.76516">
        <ele>400.8</ele>
        <time>2021-08-24T07:48:14Z</time>
      </trkpt>
      <trkpt lat="45.44287" lon="5.7652">
        <ele>400.9</ele>
        <time>2021-08-24T07:48:15Z</time>
      </trkpt>
      <trkpt lat="45.44291" lon="5.76529">
        <ele>401</ele>
        <time>2021-08-24T07:48:17Z</time>
      </trkpt>
      <trkpt lat="45.44296" lon="5.76538">
        <ele>401.2</ele>
        <time>2021-08-24T07:48:19Z</time>
      </trkpt>
      <trkpt lat="45.443" lon="5.76542">
        <ele>401.2</ele>
        <time>2021-08-24T07:48:20Z</time>
      </trkpt>
      <trkpt lat="45.44304" lon="5.76547">
        <ele>401.3</ele>
        <time>2021-08-24T07:48:22Z</time>
      </trkpt>
      <trkpt lat="45.44307" lon="5.7655">
        <ele>401.4</ele>
        <time>2021-08-24T07:48:23Z</time>
      </trkpt>
      <trkpt lat="45.44309" lon="5.76554">
        <ele>401.4</ele>
        <time>2021-08-24T07:48:24Z</time>
      </trkpt>
      <trkpt lat="45.44311" lon="5.76556">
        <ele>401.4</ele>
        <time>2021-08-24T07:48:25Z</time>
      </trkpt>
      <trkpt lat="45.44314" lon="5.76558">
        <ele>401.5</ele>
        <time>2021-08-24T07:48:26Z</time>
      </trkpt>
      <trkpt lat="45.44316" lon="5.76561">
        <ele>401.5</ele>
        <time>2021-08-24T07:48:27Z</time>
      </trkpt>
      <trkpt lat="45.44319" lon="5.76565">
        <ele>401.6</ele>
        <time>2021-08-24T07:48:29Z</time>
      </trkpt>
      <trkpt lat="45.44323" lon="5.7657">
        <ele>401.6</ele>
        <time>2021-08-24T07:48:30Z</time>
      </trkpt>
      <trkpt lat="45.44326" lon="5.76573">
        <ele>401.7</ele>
        <time>2021-08-24T07:48:31Z</time>
      </trkpt>
      <trkpt lat="45.44328" lon="5.76577">
        <ele>401.8</ele>
        <time>2021-08-24T07:48:32Z</time>
      </trkpt>
      <trkpt lat="45.44334" lon="5.76584">
        <ele>401.9</ele>
        <time>2021-08-24T07:48:34Z</time>
      </trkpt>
      <trkpt lat="45.44339" lon="5.76589">
        <ele>401.9</ele>
        <time>2021-08-24T07:48:36Z</time>
      </trkpt>
      <trkpt lat="45.44344" lon="5.76592">
        <ele>402</ele>
        <time>2021-08-24T07:48:37Z</time>
      </trkpt>
      <trkpt lat="45.44347" lon="5.76594">
        <ele>402.1</ele>
        <time>2021-08-24T07:48:38Z</time>
      </trkpt>
      <trkpt lat="45.44355" lon="5.76597">
        <ele>402.2</ele>
        <time>2021-08-24T07:48:40Z</time>
      </trkpt>
      <trkpt lat="45.44362" lon="5.766">
        <ele>402.3</ele>
        <time>2021-08-24T07:48:41Z</time>
      </trkpt>
      <trkpt lat="45.44369" lon="5.76603">
        <ele>402.4</ele>
        <time>2021-08-24T07:48:43Z</time>
      </trkpt>
      <trkpt lat="45.44373" lon="5.76608">
        <ele>402.5</ele>
        <time>2021-08-24T07:48:44Z</time>
      </trkpt>
      <trkpt lat="45.44376" lon="5.76615">
        <ele>402.7</ele>
        <time>2021-08-24T07:48:46Z</time>
      </trkpt>
      <trkpt lat="45.44375" lon="5.76616">
        <ele>402.7</ele>
        <time>2021-08-24T07:48:47Z</time>
      </trkpt>
      <trkpt lat="45.44375" lon="5.76621">
        <ele>402.8</ele>
        <time>2021-08-24T07:48:49Z</time>
      </trkpt>
      <trkpt lat="45.44376" lon="5.76624">
        <ele>402.9</ele>
        <time>2021-08-24T07:48:50Z</time>
      </trkpt>
      <trkpt lat="45.44378" lon="5.76629">
        <ele>403.1</ele>
        <time>2021-08-24T07:48:52Z</time>
      </trkpt>
      <trkpt lat="45.44383" lon="5.76637">
        <ele>403.4</ele>
        <time>2021-08-24T07:48:54Z</time>
      </trkpt>
      <trkpt lat="45.44386" lon="5.76642">
        <ele>403.7</ele>
        <time>2021-08-24T07:48:55Z</time>
      </trkpt>
      <trkpt lat="45.44389" lon="5.76647">
        <ele>403.8</ele>
        <time>2021-08-24T07:48:56Z</time>
      </trkpt>
      <trkpt lat="45.4439" lon="5.76651">
        <ele>404</ele>
        <time>2021-08-24T07:48:57Z</time>
      </trkpt>
      <trkpt lat="45.44392" lon="5.76657">
        <ele>404.3</ele>
        <time>2021-08-24T07:48:58Z</time>
      </trkpt>
      <trkpt lat="45.44393" lon="5.76662">
        <ele>404.5</ele>
        <time>2021-08-24T07:49:00Z</time>
      </trkpt>
      <trkpt lat="45.44393" lon="5.76665">
        <ele>404.6</ele>
        <time>2021-08-24T07:49:01Z</time>
      </trkpt>
      <trkpt lat="45.44393" lon="5.76673">
        <ele>404.9</ele>
        <time>2021-08-24T07:49:03Z</time>
      </trkpt>
      <trkpt lat="45.44393" lon="5.76681">
        <ele>405.2</ele>
        <time>2021-08-24T07:49:05Z</time>
      </trkpt>
      <trkpt lat="45.44393" lon="5.76684">
        <ele>405.3</ele>
        <time>2021-08-24T07:49:06Z</time>
      </trkpt>
      <trkpt lat="45.44392" lon="5.76691">
        <ele>405.5</ele>
        <time>2021-08-24T07:49:08Z</time>
      </trkpt>
      <trkpt lat="45.44392" lon="5.76697">
        <ele>405.7</ele>
        <time>2021-08-24T07:49:10Z</time>
      </trkpt>
      <trkpt lat="45.44392" lon="5.76701">
        <ele>405.9</ele>
        <time>2021-08-24T07:49:11Z</time>
      </trkpt>
      <trkpt lat="45.44392" lon="5.76705">
        <ele>406</ele>
        <time>2021-08-24T07:49:12Z</time>
      </trkpt>
      <trkpt lat="45.44392" lon="5.76708">
        <ele>406.1</ele>
        <time>2021-08-24T07:49:14Z</time>
      </trkpt>
      <trkpt lat="45.44392" lon="5.76713">
        <ele>406.2</ele>
        <time>2021-08-24T07:49:15Z</time>
      </trkpt>
      <trkpt lat="45.44393" lon="5.76714">
        <ele>406.3</ele>
        <time>2021-08-24T07:49:16Z</time>
      </trkpt>
      <trkpt lat="45.44396" lon="5.7672">
        <ele>406.4</ele>
        <time>2021-08-24T07:49:18Z</time>
      </trkpt>
      <trkpt lat="45.44397" lon="5.76721">
        <ele>406.5</ele>
        <time>2021-08-24T07:49:19Z</time>
      </trkpt>
      <trkpt lat="45.44398" lon="5.76723">
        <ele>406.6</ele>
        <time>2021-08-24T07:49:20Z</time>
      </trkpt>
      <trkpt lat="45.44405" lon="5.76729">
        <ele>406.8</ele>
        <time>2021-08-24T07:49:22Z</time>
      </trkpt>
      <trkpt lat="45.44408" lon="5.76737">
        <ele>406.9</ele>
        <time>2021-08-24T07:49:24Z</time>
      </trkpt>
      <trkpt lat="45.44411" lon="5.76741">
        <ele>406.9</ele>
        <time>2021-08-24T07:49:25Z</time>
      </trkpt>
      <trkpt lat="45.44413" lon="5.76744">
        <ele>406.9</ele>
        <time>2021-08-24T07:49:26Z</time>
      </trkpt>
      <trkpt lat="45.44418" lon="5.76749">
        <ele>407</ele>
        <time>2021-08-24T07:49:27Z</time>
      </trkpt>
      <trkpt lat="45.44422" lon="5.76753">
        <ele>407</ele>
        <time>2021-08-24T07:49:29Z</time>
      </trkpt>
      <trkpt lat="45.44426" lon="5.76757">
        <ele>406.9</ele>
        <time>2021-08-24T07:49:30Z</time>
      </trkpt>
      <trkpt lat="45.4443" lon="5.76761">
        <ele>406.9</ele>
        <time>2021-08-24T07:49:32Z</time>
      </trkpt>
      <trkpt lat="45.44434" lon="5.76762">
        <ele>406.9</ele>
        <time>2021-08-24T07:49:33Z</time>
      </trkpt>
      <trkpt lat="45.44435" lon="5.76762">
        <ele>406.9</ele>
        <time>2021-08-24T07:49:34Z</time>
      </trkpt>
      <trkpt lat="45.44439" lon="5.76761">
        <ele>406.8</ele>
        <time>2021-08-24T07:49:35Z</time>
      </trkpt>
      <trkpt lat="45.44442" lon="5.76762">
        <ele>406.8</ele>
        <time>2021-08-24T07:49:36Z</time>
      </trkpt>
      <trkpt lat="45.44445" lon="5.76764">
        <ele>406.7</ele>
        <time>2021-08-24T07:49:37Z</time>
      </trkpt>
      <trkpt lat="45.44448" lon="5.76767">
        <ele>406.7</ele>
        <time>2021-08-24T07:49:38Z</time>
      </trkpt>
      <trkpt lat="45.44453" lon="5.76774">
        <ele>406.5</ele>
        <time>2021-08-24T07:49:40Z</time>
      </trkpt>
      <trkpt lat="45.44456" lon="5.76781">
        <ele>406.4</ele>
        <time>2021-08-24T07:49:41Z</time>
      </trkpt>
      <trkpt lat="45.44459" lon="5.76786">
        <ele>406.2</ele>
        <time>2021-08-24T07:49:42Z</time>
      </trkpt>
      <trkpt lat="45.44463" lon="5.76795">
        <ele>406</ele>
        <time>2021-08-24T07:49:43Z</time>
      </trkpt>
      <trkpt lat="45.44468" lon="5.76804">
        <ele>405.8</ele>
        <time>2021-08-24T07:49:45Z</time>
      </trkpt>
      <trkpt lat="45.44471" lon="5.76813">
        <ele>405.6</ele>
        <time>2021-08-24T07:49:46Z</time>
      </trkpt>
      <trkpt lat="45.44476" lon="5.76824">
        <ele>405.4</ele>
        <time>2021-08-24T07:49:48Z</time>
      </trkpt>
      <trkpt lat="45.44481" lon="5.76837">
        <ele>405.2</ele>
        <time>2021-08-24T07:49:49Z</time>
      </trkpt>
      <trkpt lat="45.44485" lon="5.76845">
        <ele>405.1</ele>
        <time>2021-08-24T07:49:50Z</time>
      </trkpt>
      <trkpt lat="45.44489" lon="5.76859">
        <ele>405</ele>
        <time>2021-08-24T07:49:52Z</time>
      </trkpt>
      <trkpt lat="45.44491" lon="5.76866">
        <ele>405</ele>
        <time>2021-08-24T07:49:53Z</time>
      </trkpt>
      <trkpt lat="45.44494" lon="5.76878">
        <ele>405.1</ele>
        <time>2021-08-24T07:49:55Z</time>
      </trkpt>
      <trkpt lat="45.44497" lon="5.76883">
        <ele>405.1</ele>
        <time>2021-08-24T07:49:56Z</time>
      </trkpt>
      <trkpt lat="45.44501" lon="5.76893">
        <ele>405.2</ele>
        <time>2021-08-24T07:49:58Z</time>
      </trkpt>
      <trkpt lat="45.44504" lon="5.769">
        <ele>405.2</ele>
        <time>2021-08-24T07:49:59Z</time>
      </trkpt>
      <trkpt lat="45.44506" lon="5.76906">
        <ele>405.3</ele>
        <time>2021-08-24T07:50:01Z</time>
      </trkpt>
      <trkpt lat="45.44508" lon="5.76914">
        <ele>405.3</ele>
        <time>2021-08-24T07:50:02Z</time>
      </trkpt>
      <trkpt lat="45.44509" lon="5.76921">
        <ele>405.4</ele>
        <time>2021-08-24T07:50:03Z</time>
      </trkpt>
      <trkpt lat="45.4451" lon="5.7693">
        <ele>405.4</ele>
        <time>2021-08-24T07:50:04Z</time>
      </trkpt>
      <trkpt lat="45.4451" lon="5.76938">
        <ele>405.5</ele>
        <time>2021-08-24T07:50:05Z</time>
      </trkpt>
      <trkpt lat="45.44511" lon="5.76947">
        <ele>405.5</ele>
        <time>2021-08-24T07:50:06Z</time>
      </trkpt>
      <trkpt lat="45.44513" lon="5.76955">
        <ele>405.6</ele>
        <time>2021-08-24T07:50:07Z</time>
      </trkpt>
      <trkpt lat="45.44515" lon="5.76962">
        <ele>405.6</ele>
        <time>2021-08-24T07:50:09Z</time>
      </trkpt>
      <trkpt lat="45.44517" lon="5.76969">
        <ele>405.6</ele>
        <time>2021-08-24T07:50:10Z</time>
      </trkpt>
      <trkpt lat="45.4452" lon="5.76975">
        <ele>405.6</ele>
        <time>2021-08-24T07:50:11Z</time>
      </trkpt>
      <trkpt lat="45.44522" lon="5.76982">
        <ele>405.6</ele>
        <time>2021-08-24T07:50:12Z</time>
      </trkpt>
      <trkpt lat="45.44524" lon="5.76989">
        <ele>405.6</ele>
        <time>2021-08-24T07:50:13Z</time>
      </trkpt>
      <trkpt lat="45.44526" lon="5.76996">
        <ele>405.6</ele>
        <time>2021-08-24T07:50:14Z</time>
      </trkpt>
      <trkpt lat="45.44528" lon="5.77003">
        <ele>405.6</ele>
        <time>2021-08-24T07:50:15Z</time>
      </trkpt>
      <trkpt lat="45.44531" lon="5.7701">
        <ele>405.5</ele>
        <time>2021-08-24T07:50:16Z</time>
      </trkpt>
      <trkpt lat="45.44533" lon="5.77016">
        <ele>405.5</ele>
        <time>2021-08-24T07:50:18Z</time>
      </trkpt>
      <trkpt lat="45.44536" lon="5.77024">
        <ele>405.5</ele>
        <time>2021-08-24T07:50:19Z</time>
      </trkpt>
      <trkpt lat="45.44538" lon="5.77031">
        <ele>405.5</ele>
        <time>2021-08-24T07:50:20Z</time>
      </trkpt>
      <trkpt lat="45.4454" lon="5.77038">
        <ele>405.5</ele>
        <time>2021-08-24T07:50:21Z</time>
      </trkpt>
      <trkpt lat="45.44541" lon="5.77045">
        <ele>405.4</ele>
        <time>2021-08-24T07:50:22Z</time>
      </trkpt>
      <trkpt lat="45.44541" lon="5.77051">
        <ele>405.4</ele>
        <time>2021-08-24T07:50:23Z</time>
      </trkpt>
      <trkpt lat="45.44541" lon="5.77059">
        <ele>405.4</ele>
        <time>2021-08-24T07:50:24Z</time>
      </trkpt>
      <trkpt lat="45.44541" lon="5.77066">
        <ele>405.4</ele>
        <time>2021-08-24T07:50:25Z</time>
      </trkpt>
      <trkpt lat="45.44541" lon="5.77073">
        <ele>405.4</ele>
        <time>2021-08-24T07:50:27Z</time>
      </trkpt>
      <trkpt lat="45.44542" lon="5.7708">
        <ele>405.3</ele>
        <time>2021-08-24T07:50:28Z</time>
      </trkpt>
      <trkpt lat="45.44542" lon="5.77087">
        <ele>405.3</ele>
        <time>2021-08-24T07:50:29Z</time>
      </trkpt>
      <trkpt lat="45.44544" lon="5.77095">
        <ele>405.3</ele>
        <time>2021-08-24T07:50:30Z</time>
      </trkpt>
      <trkpt lat="45.44548" lon="5.77101">
        <ele>405.3</ele>
        <time>2021-08-24T07:50:31Z</time>
      </trkpt>
      <trkpt lat="45.44552" lon="5.77107">
        <ele>405.3</ele>
        <time>2021-08-24T07:50:32Z</time>
      </trkpt>
      <trkpt lat="45.44554" lon="5.77112">
        <ele>405.3</ele>
        <time>2021-08-24T07:50:34Z</time>
      </trkpt>
      <trkpt lat="45.44555" lon="5.77117">
        <ele>405.3</ele>
        <time>2021-08-24T07:50:35Z</time>
      </trkpt>
      <trkpt lat="45.44554" lon="5.77121">
        <ele>405.3</ele>
        <time>2021-08-24T07:50:36Z</time>
      </trkpt>
      <trkpt lat="45.44554" lon="5.77123">
        <ele>405.3</ele>
        <time>2021-08-24T07:50:37Z</time>
      </trkpt>
      <trkpt lat="45.44554" lon="5.7713">
        <ele>405.4</ele>
        <time>2021-08-24T07:50:38Z</time>
      </trkpt>
      <trkpt lat="45.44553" lon="5.77135">
        <ele>405.4</ele>
        <time>2021-08-24T07:50:39Z</time>
      </trkpt>
      <trkpt lat="45.4455" lon="5.77145">
        <ele>405.4</ele>
        <time>2021-08-24T07:50:40Z</time>
      </trkpt>
      <trkpt lat="45.44547" lon="5.77154">
        <ele>405.4</ele>
        <time>2021-08-24T07:50:41Z</time>
      </trkpt>
      <trkpt lat="45.44544" lon="5.77164">
        <ele>405.5</ele>
        <time>2021-08-24T07:50:42Z</time>
      </trkpt>
      <trkpt lat="45.4454" lon="5.77175">
        <ele>405.6</ele>
        <time>2021-08-24T07:50:43Z</time>
      </trkpt>
      <trkpt lat="45.44537" lon="5.77185">
        <ele>405.7</ele>
        <time>2021-08-24T07:50:44Z</time>
      </trkpt>
      <trkpt lat="45.44533" lon="5.77194">
        <ele>405.9</ele>
        <time>2021-08-24T07:50:46Z</time>
      </trkpt>
      <trkpt lat="45.4453" lon="5.77201">
        <ele>406</ele>
        <time>2021-08-24T07:50:47Z</time>
      </trkpt>
      <trkpt lat="45.44527" lon="5.77211">
        <ele>406.1</ele>
        <time>2021-08-24T07:50:48Z</time>
      </trkpt>
      <trkpt lat="45.44524" lon="5.77217">
        <ele>406.3</ele>
        <time>2021-08-24T07:50:49Z</time>
      </trkpt>
      <trkpt lat="45.44522" lon="5.77223">
        <ele>406.4</ele>
        <time>2021-08-24T07:50:50Z</time>
      </trkpt>
      <trkpt lat="45.4452" lon="5.77228">
        <ele>406.4</ele>
        <time>2021-08-24T07:50:52Z</time>
      </trkpt>
      <trkpt lat="45.44519" lon="5.77234">
        <ele>406.5</ele>
        <time>2021-08-24T07:50:53Z</time>
      </trkpt>
      <trkpt lat="45.44517" lon="5.77238">
        <ele>406.5</ele>
        <time>2021-08-24T07:50:54Z</time>
      </trkpt>
      <trkpt lat="45.44516" lon="5.77243">
        <ele>406.6</ele>
        <time>2021-08-24T07:50:55Z</time>
      </trkpt>
      <trkpt lat="45.44516" lon="5.77249">
        <ele>406.6</ele>
        <time>2021-08-24T07:50:56Z</time>
      </trkpt>
      <trkpt lat="45.44515" lon="5.77255">
        <ele>406.7</ele>
        <time>2021-08-24T07:50:58Z</time>
      </trkpt>
      <trkpt lat="45.44515" lon="5.77261">
        <ele>406.8</ele>
        <time>2021-08-24T07:50:59Z</time>
      </trkpt>
      <trkpt lat="45.44516" lon="5.77267">
        <ele>406.9</ele>
        <time>2021-08-24T07:51:00Z</time>
      </trkpt>
      <trkpt lat="45.44516" lon="5.77271">
        <ele>406.9</ele>
        <time>2021-08-24T07:51:01Z</time>
      </trkpt>
      <trkpt lat="45.44518" lon="5.77275">
        <ele>407</ele>
        <time>2021-08-24T07:51:02Z</time>
      </trkpt>
      <trkpt lat="45.4452" lon="5.77274">
        <ele>407</ele>
        <time>2021-08-24T07:51:03Z</time>
      </trkpt>
      <trkpt lat="45.44522" lon="5.77274">
        <ele>407.1</ele>
        <time>2021-08-24T07:51:04Z</time>
      </trkpt>
      <trkpt lat="45.44525" lon="5.77274">
        <ele>407.2</ele>
        <time>2021-08-24T07:51:06Z</time>
      </trkpt>
      <trkpt lat="45.44527" lon="5.77275">
        <ele>407.2</ele>
        <time>2021-08-24T07:51:07Z</time>
      </trkpt>
      <trkpt lat="45.44529" lon="5.77278">
        <ele>407.3</ele>
        <time>2021-08-24T07:51:08Z</time>
      </trkpt>
      <trkpt lat="45.4453" lon="5.77281">
        <ele>407.4</ele>
        <time>2021-08-24T07:51:09Z</time>
      </trkpt>
      <trkpt lat="45.4453" lon="5.77283">
        <ele>407.4</ele>
        <time>2021-08-24T07:51:10Z</time>
      </trkpt>
      <trkpt lat="45.44531" lon="5.77292">
        <ele>407.6</ele>
        <time>2021-08-24T07:51:11Z</time>
      </trkpt>
      <trkpt lat="45.44532" lon="5.77299">
        <ele>407.7</ele>
        <time>2021-08-24T07:51:13Z</time>
      </trkpt>
      <trkpt lat="45.44533" lon="5.77307">
        <ele>407.7</ele>
        <time>2021-08-24T07:51:14Z</time>
      </trkpt>
      <trkpt lat="45.44535" lon="5.77315">
        <ele>407.8</ele>
        <time>2021-08-24T07:51:15Z</time>
      </trkpt>
      <trkpt lat="45.44536" lon="5.7732">
        <ele>407.9</ele>
        <time>2021-08-24T07:51:16Z</time>
      </trkpt>
      <trkpt lat="45.44537" lon="5.77324">
        <ele>407.9</ele>
        <time>2021-08-24T07:51:17Z</time>
      </trkpt>
      <trkpt lat="45.44538" lon="5.77327">
        <ele>407.9</ele>
        <time>2021-08-24T07:51:18Z</time>
      </trkpt>
      <trkpt lat="45.44538" lon="5.77329">
        <ele>407.9</ele>
        <time>2021-08-24T07:51:19Z</time>
      </trkpt>
      <trkpt lat="45.44538" lon="5.7733">
        <ele>407.9</ele>
        <time>2021-08-24T07:51:20Z</time>
      </trkpt>
      <trkpt lat="45.44539" lon="5.77332">
        <ele>408</ele>
        <time>2021-08-24T07:51:21Z</time>
      </trkpt>
      <trkpt lat="45.44539" lon="5.77338">
        <ele>408</ele>
        <time>2021-08-24T07:51:23Z</time>
      </trkpt>
      <trkpt lat="45.44539" lon="5.77343">
        <ele>408</ele>
        <time>2021-08-24T07:51:24Z</time>
      </trkpt>
      <trkpt lat="45.44539" lon="5.77343">
        <ele>408</ele>
        <time>2021-08-24T07:51:24Z</time>
      </trkpt>
      <trkpt lat="45.44538" lon="5.77352">
        <ele>408.1</ele>
        <time>2021-08-24T07:51:26Z</time>
      </trkpt>
      <trkpt lat="45.44537" lon="5.7736">
        <ele>408.2</ele>
        <time>2021-08-24T07:51:27Z</time>
      </trkpt>
      <trkpt lat="45.44537" lon="5.77372">
        <ele>408.2</ele>
        <time>2021-08-24T07:51:29Z</time>
      </trkpt>
      <trkpt lat="45.44536" lon="5.77382">
        <ele>408.3</ele>
        <time>2021-08-24T07:51:30Z</time>
      </trkpt>
      <trkpt lat="45.44535" lon="5.77392">
        <ele>408.3</ele>
        <time>2021-08-24T07:51:31Z</time>
      </trkpt>
      <trkpt lat="45.44534" lon="5.774">
        <ele>408.3</ele>
        <time>2021-08-24T07:51:33Z</time>
      </trkpt>
      <trkpt lat="45.44533" lon="5.77406">
        <ele>408.4</ele>
        <time>2021-08-24T07:51:34Z</time>
      </trkpt>
      <trkpt lat="45.44531" lon="5.77413">
        <ele>408.4</ele>
        <time>2021-08-24T07:51:35Z</time>
      </trkpt>
      <trkpt lat="45.4453" lon="5.77419">
        <ele>408.4</ele>
        <time>2021-08-24T07:51:36Z</time>
      </trkpt>
      <trkpt lat="45.44528" lon="5.77426">
        <ele>408.4</ele>
        <time>2021-08-24T07:51:37Z</time>
      </trkpt>
      <trkpt lat="45.44526" lon="5.77432">
        <ele>408.5</ele>
        <time>2021-08-24T07:51:38Z</time>
      </trkpt>
      <trkpt lat="45.44525" lon="5.77437">
        <ele>408.5</ele>
        <time>2021-08-24T07:51:39Z</time>
      </trkpt>
      <trkpt lat="45.44522" lon="5.77443">
        <ele>408.5</ele>
        <time>2021-08-24T07:51:40Z</time>
      </trkpt>
      <trkpt lat="45.4452" lon="5.77449">
        <ele>408.5</ele>
        <time>2021-08-24T07:51:42Z</time>
      </trkpt>
      <trkpt lat="45.44518" lon="5.77454">
        <ele>408.5</ele>
        <time>2021-08-24T07:51:43Z</time>
      </trkpt>
      <trkpt lat="45.44515" lon="5.77459">
        <ele>408.6</ele>
        <time>2021-08-24T07:51:44Z</time>
      </trkpt>
      <trkpt lat="45.44513" lon="5.77465">
        <ele>408.6</ele>
        <time>2021-08-24T07:51:45Z</time>
      </trkpt>
      <trkpt lat="45.44512" lon="5.7747">
        <ele>408.6</ele>
        <time>2021-08-24T07:51:46Z</time>
      </trkpt>
      <trkpt lat="45.44509" lon="5.77475">
        <ele>408.6</ele>
        <time>2021-08-24T07:51:47Z</time>
      </trkpt>
      <trkpt lat="45.44505" lon="5.77481">
        <ele>408.7</ele>
        <time>2021-08-24T07:51:48Z</time>
      </trkpt>
      <trkpt lat="45.44503" lon="5.77485">
        <ele>408.7</ele>
        <time>2021-08-24T07:51:49Z</time>
      </trkpt>
      <trkpt lat="45.44502" lon="5.7749">
        <ele>408.7</ele>
        <time>2021-08-24T07:51:50Z</time>
      </trkpt>
      <trkpt lat="45.44501" lon="5.77495">
        <ele>408.8</ele>
        <time>2021-08-24T07:51:51Z</time>
      </trkpt>
      <trkpt lat="45.445" lon="5.775">
        <ele>408.8</ele>
        <time>2021-08-24T07:51:52Z</time>
      </trkpt>
      <trkpt lat="45.44499" lon="5.77506">
        <ele>408.9</ele>
        <time>2021-08-24T07:51:54Z</time>
      </trkpt>
      <trkpt lat="45.44497" lon="5.77511">
        <ele>408.9</ele>
        <time>2021-08-24T07:51:55Z</time>
      </trkpt>
      <trkpt lat="45.44495" lon="5.77517">
        <ele>409</ele>
        <time>2021-08-24T07:51:56Z</time>
      </trkpt>
      <trkpt lat="45.44495" lon="5.77523">
        <ele>409.1</ele>
        <time>2021-08-24T07:51:57Z</time>
      </trkpt>
      <trkpt lat="45.44494" lon="5.77529">
        <ele>409.2</ele>
        <time>2021-08-24T07:51:58Z</time>
      </trkpt>
      <trkpt lat="45.44493" lon="5.77533">
        <ele>409.3</ele>
        <time>2021-08-24T07:51:59Z</time>
      </trkpt>
      <trkpt lat="45.44492" lon="5.77538">
        <ele>409.3</ele>
        <time>2021-08-24T07:52:00Z</time>
      </trkpt>
      <trkpt lat="45.44491" lon="5.7754">
        <ele>409.4</ele>
        <time>2021-08-24T07:52:01Z</time>
      </trkpt>
      <trkpt lat="45.44491" lon="5.77546">
        <ele>409.5</ele>
        <time>2021-08-24T07:52:03Z</time>
      </trkpt>
      <trkpt lat="45.4449" lon="5.77552">
        <ele>409.6</ele>
        <time>2021-08-24T07:52:04Z</time>
      </trkpt>
      <trkpt lat="45.44489" lon="5.77558">
        <ele>409.7</ele>
        <time>2021-08-24T07:52:05Z</time>
      </trkpt>
      <trkpt lat="45.44489" lon="5.77558">
        <ele>409.7</ele>
        <time>2021-08-24T07:52:06Z</time>
      </trkpt>
      <trkpt lat="45.44489" lon="5.7756">
        <ele>409.7</ele>
        <time>2021-08-24T07:52:07Z</time>
      </trkpt>
      <trkpt lat="45.44488" lon="5.77562">
        <ele>409.8</ele>
        <time>2021-08-24T07:52:08Z</time>
      </trkpt>
      <trkpt lat="45.44489" lon="5.77567">
        <ele>409.9</ele>
        <time>2021-08-24T07:52:10Z</time>
      </trkpt>
      <trkpt lat="45.44489" lon="5.77568">
        <ele>409.9</ele>
        <time>2021-08-24T07:52:11Z</time>
      </trkpt>
      <trkpt lat="45.44489" lon="5.7757">
        <ele>409.9</ele>
        <time>2021-08-24T07:52:12Z</time>
      </trkpt>
      <trkpt lat="45.44489" lon="5.77572">
        <ele>410</ele>
        <time>2021-08-24T07:52:14Z</time>
      </trkpt>
      <trkpt lat="45.44487" lon="5.77622">
        <ele>410.7</ele>
        <time>2021-08-24T07:52:20Z</time>
      </trkpt>
      <trkpt lat="45.44488" lon="5.77628">
        <ele>410.8</ele>
        <time>2021-08-24T07:52:21Z</time>
      </trkpt>
      <trkpt lat="45.44488" lon="5.77636">
        <ele>410.9</ele>
        <time>2021-08-24T07:52:22Z</time>
      </trkpt>
      <trkpt lat="45.44487" lon="5.77645">
        <ele>411</ele>
        <time>2021-08-24T07:52:23Z</time>
      </trkpt>
      <trkpt lat="45.44485" lon="5.77653">
        <ele>411.1</ele>
        <time>2021-08-24T07:52:24Z</time>
      </trkpt>
      <trkpt lat="45.44482" lon="5.77666">
        <ele>411.2</ele>
        <time>2021-08-24T07:52:26Z</time>
      </trkpt>
      <trkpt lat="45.4448" lon="5.77674">
        <ele>411.3</ele>
        <time>2021-08-24T07:52:27Z</time>
      </trkpt>
      <trkpt lat="45.44479" lon="5.7768">
        <ele>411.3</ele>
        <time>2021-08-24T07:52:28Z</time>
      </trkpt>
      <trkpt lat="45.44478" lon="5.77687">
        <ele>411.4</ele>
        <time>2021-08-24T07:52:30Z</time>
      </trkpt>
      <trkpt lat="45.44477" lon="5.77692">
        <ele>411.4</ele>
        <time>2021-08-24T07:52:31Z</time>
      </trkpt>
      <trkpt lat="45.44476" lon="5.77698">
        <ele>411.4</ele>
        <time>2021-08-24T07:52:32Z</time>
      </trkpt>
      <trkpt lat="45.44474" lon="5.77705">
        <ele>411.5</ele>
        <time>2021-08-24T07:52:34Z</time>
      </trkpt>
      <trkpt lat="45.44474" lon="5.7771">
        <ele>411.5</ele>
        <time>2021-08-24T07:52:35Z</time>
      </trkpt>
      <trkpt lat="45.44473" lon="5.77712">
        <ele>411.5</ele>
        <time>2021-08-24T07:52:36Z</time>
      </trkpt>
      <trkpt lat="45.44472" lon="5.7772">
        <ele>411.6</ele>
        <time>2021-08-24T07:52:38Z</time>
      </trkpt>
      <trkpt lat="45.44471" lon="5.77724">
        <ele>411.6</ele>
        <time>2021-08-24T07:52:39Z</time>
      </trkpt>
      <trkpt lat="45.44471" lon="5.77728">
        <ele>411.6</ele>
        <time>2021-08-24T07:52:40Z</time>
      </trkpt>
      <trkpt lat="45.4447" lon="5.77732">
        <ele>411.7</ele>
        <time>2021-08-24T07:52:41Z</time>
      </trkpt>
      <trkpt lat="45.44468" lon="5.77741">
        <ele>411.7</ele>
        <time>2021-08-24T07:52:43Z</time>
      </trkpt>
      <trkpt lat="45.44468" lon="5.77751">
        <ele>411.8</ele>
        <time>2021-08-24T07:52:45Z</time>
      </trkpt>
      <trkpt lat="45.44467" lon="5.77758">
        <ele>411.9</ele>
        <time>2021-08-24T07:52:47Z</time>
      </trkpt>
      <trkpt lat="45.44466" lon="5.77764">
        <ele>412</ele>
        <time>2021-08-24T07:52:48Z</time>
      </trkpt>
      <trkpt lat="45.44465" lon="5.77768">
        <ele>412.1</ele>
        <time>2021-08-24T07:52:49Z</time>
      </trkpt>
      <trkpt lat="45.44465" lon="5.77772">
        <ele>412.1</ele>
        <time>2021-08-24T07:52:50Z</time>
      </trkpt>
      <trkpt lat="45.44465" lon="5.77778">
        <ele>412.2</ele>
        <time>2021-08-24T07:52:52Z</time>
      </trkpt>
      <trkpt lat="45.44464" lon="5.77782">
        <ele>412.3</ele>
        <time>2021-08-24T07:52:53Z</time>
      </trkpt>
      <trkpt lat="45.44463" lon="5.77786">
        <ele>412.3</ele>
        <time>2021-08-24T07:52:54Z</time>
      </trkpt>
      <trkpt lat="45.44462" lon="5.77791">
        <ele>412.4</ele>
        <time>2021-08-24T07:52:56Z</time>
      </trkpt>
      <trkpt lat="45.44461" lon="5.77795">
        <ele>412.5</ele>
        <time>2021-08-24T07:52:57Z</time>
      </trkpt>
      <trkpt lat="45.44459" lon="5.778">
        <ele>412.6</ele>
        <time>2021-08-24T07:52:58Z</time>
      </trkpt>
      <trkpt lat="45.44458" lon="5.77802">
        <ele>412.6</ele>
        <time>2021-08-24T07:52:59Z</time>
      </trkpt>
      <trkpt lat="45.44455" lon="5.77806">
        <ele>412.7</ele>
        <time>2021-08-24T07:53:00Z</time>
      </trkpt>
      <trkpt lat="45.44453" lon="5.77811">
        <ele>412.8</ele>
        <time>2021-08-24T07:53:02Z</time>
      </trkpt>
      <trkpt lat="45.44454" lon="5.7781">
        <ele>412.8</ele>
        <time>2021-08-24T07:53:03Z</time>
      </trkpt>
      <trkpt lat="45.44455" lon="5.77809">
        <ele>412.8</ele>
        <time>2021-08-24T07:53:04Z</time>
      </trkpt>
      <trkpt lat="45.44456" lon="5.7781">
        <ele>412.9</ele>
        <time>2021-08-24T07:53:05Z</time>
      </trkpt>
      <trkpt lat="45.44455" lon="5.77814">
        <ele>412.9</ele>
        <time>2021-08-24T07:53:07Z</time>
      </trkpt>
      <trkpt lat="45.44454" lon="5.77819">
        <ele>413</ele>
        <time>2021-08-24T07:53:09Z</time>
      </trkpt>
      <trkpt lat="45.44453" lon="5.77825">
        <ele>413.1</ele>
        <time>2021-08-24T07:53:10Z</time>
      </trkpt>
      <trkpt lat="45.44453" lon="5.77825">
        <ele>413.1</ele>
        <time>2021-08-24T07:53:10Z</time>
      </trkpt>
      <trkpt lat="45.44452" lon="5.77834">
        <ele>413.2</ele>
        <time>2021-08-24T07:53:12Z</time>
      </trkpt>
      <trkpt lat="45.44451" lon="5.77844">
        <ele>413.4</ele>
        <time>2021-08-24T07:53:13Z</time>
      </trkpt>
      <trkpt lat="45.44451" lon="5.77853">
        <ele>413.5</ele>
        <time>2021-08-24T07:53:14Z</time>
      </trkpt>
      <trkpt lat="45.44452" lon="5.7786">
        <ele>413.7</ele>
        <time>2021-08-24T07:53:16Z</time>
      </trkpt>
      <trkpt lat="45.44453" lon="5.77867">
        <ele>413.8</ele>
        <time>2021-08-24T07:53:17Z</time>
      </trkpt>
      <trkpt lat="45.44454" lon="5.77871">
        <ele>413.9</ele>
        <time>2021-08-24T07:53:18Z</time>
      </trkpt>
      <trkpt lat="45.44454" lon="5.77876">
        <ele>414</ele>
        <time>2021-08-24T07:53:19Z</time>
      </trkpt>
      <trkpt lat="45.44454" lon="5.77877">
        <ele>414</ele>
        <time>2021-08-24T07:53:20Z</time>
      </trkpt>
      <trkpt lat="45.44454" lon="5.77882">
        <ele>414.1</ele>
        <time>2021-08-24T07:53:22Z</time>
      </trkpt>
      <trkpt lat="45.44454" lon="5.77887">
        <ele>414.2</ele>
        <time>2021-08-24T07:53:23Z</time>
      </trkpt>
      <trkpt lat="45.44454" lon="5.7789">
        <ele>414.2</ele>
        <time>2021-08-24T07:53:24Z</time>
      </trkpt>
      <trkpt lat="45.44454" lon="5.77897">
        <ele>414.3</ele>
        <time>2021-08-24T07:53:25Z</time>
      </trkpt>
      <trkpt lat="45.44454" lon="5.77905">
        <ele>414.4</ele>
        <time>2021-08-24T07:53:26Z</time>
      </trkpt>
      <trkpt lat="45.44454" lon="5.77914">
        <ele>414.6</ele>
        <time>2021-08-24T07:53:27Z</time>
      </trkpt>
      <trkpt lat="45.44453" lon="5.77927">
        <ele>414.8</ele>
        <time>2021-08-24T07:53:29Z</time>
      </trkpt>
      <trkpt lat="45.44452" lon="5.77934">
        <ele>414.9</ele>
        <time>2021-08-24T07:53:30Z</time>
      </trkpt>
      <trkpt lat="45.44452" lon="5.7794">
        <ele>415.1</ele>
        <time>2021-08-24T07:53:31Z</time>
      </trkpt>
      <trkpt lat="45.44451" lon="5.77946">
        <ele>415.2</ele>
        <time>2021-08-24T07:53:32Z</time>
      </trkpt>
      <trkpt lat="45.4445" lon="5.77952">
        <ele>415.4</ele>
        <time>2021-08-24T07:53:33Z</time>
      </trkpt>
      <trkpt lat="45.44448" lon="5.77957">
        <ele>415.5</ele>
        <time>2021-08-24T07:53:34Z</time>
      </trkpt>
      <trkpt lat="45.44446" lon="5.77966">
        <ele>415.6</ele>
        <time>2021-08-24T07:53:36Z</time>
      </trkpt>
      <trkpt lat="45.44445" lon="5.7797">
        <ele>415.8</ele>
        <time>2021-08-24T07:53:37Z</time>
      </trkpt>
      <trkpt lat="45.44444" lon="5.77974">
        <ele>415.9</ele>
        <time>2021-08-24T07:53:38Z</time>
      </trkpt>
      <trkpt lat="45.44444" lon="5.77977">
        <ele>415.9</ele>
        <time>2021-08-24T07:53:39Z</time>
      </trkpt>
      <trkpt lat="45.44445" lon="5.77978">
        <ele>416</ele>
        <time>2021-08-24T07:53:40Z</time>
      </trkpt>
      <trkpt lat="45.44446" lon="5.77978">
        <ele>416</ele>
        <time>2021-08-24T07:53:41Z</time>
      </trkpt>
      <trkpt lat="45.44446" lon="5.77979">
        <ele>416</ele>
        <time>2021-08-24T07:53:42Z</time>
      </trkpt>
      <trkpt lat="45.44445" lon="5.77981">
        <ele>416.1</ele>
        <time>2021-08-24T07:53:43Z</time>
      </trkpt>
      <trkpt lat="45.44444" lon="5.77982">
        <ele>416.1</ele>
        <time>2021-08-24T07:53:45Z</time>
      </trkpt>
      <trkpt lat="45.44442" lon="5.77988">
        <ele>416.2</ele>
        <time>2021-08-24T07:53:46Z</time>
      </trkpt>
      <trkpt lat="45.44439" lon="5.77993">
        <ele>416.4</ele>
        <time>2021-08-24T07:53:47Z</time>
      </trkpt>
      <trkpt lat="45.44435" lon="5.77997">
        <ele>416.5</ele>
        <time>2021-08-24T07:53:49Z</time>
      </trkpt>
      <trkpt lat="45.44432" lon="5.77998">
        <ele>416.5</ele>
        <time>2021-08-24T07:53:50Z</time>
      </trkpt>
      <trkpt lat="45.44427" lon="5.78001">
        <ele>416.6</ele>
        <time>2021-08-24T07:53:51Z</time>
      </trkpt>
      <trkpt lat="45.44422" lon="5.78004">
        <ele>416.7</ele>
        <time>2021-08-24T07:53:53Z</time>
      </trkpt>
      <trkpt lat="45.44417" lon="5.78006">
        <ele>416.8</ele>
        <time>2021-08-24T07:53:54Z</time>
      </trkpt>
      <trkpt lat="45.44413" lon="5.78009">
        <ele>416.9</ele>
        <time>2021-08-24T07:53:56Z</time>
      </trkpt>
      <trkpt lat="45.44408" lon="5.78012">
        <ele>417</ele>
        <time>2021-08-24T07:53:57Z</time>
      </trkpt>
      <trkpt lat="45.44402" lon="5.78013">
        <ele>417.1</ele>
        <time>2021-08-24T07:53:59Z</time>
      </trkpt>
      <trkpt lat="45.44402" lon="5.78012">
        <ele>417.1</ele>
        <time>2021-08-24T07:54:00Z</time>
      </trkpt>
      <trkpt lat="45.44398" lon="5.78008">
        <ele>417.2</ele>
        <time>2021-08-24T07:54:02Z</time>
      </trkpt>
      <trkpt lat="45.44394" lon="5.78009">
        <ele>417.3</ele>
        <time>2021-08-24T07:54:04Z</time>
      </trkpt>
      <trkpt lat="45.44392" lon="5.78009">
        <ele>417.3</ele>
        <time>2021-08-24T07:54:05Z</time>
      </trkpt>
      <trkpt lat="45.44391" lon="5.7801">
        <ele>417.4</ele>
        <time>2021-08-24T07:54:06Z</time>
      </trkpt>
      <trkpt lat="45.44388" lon="5.78011">
        <ele>417.4</ele>
        <time>2021-08-24T07:54:07Z</time>
      </trkpt>
      <trkpt lat="45.44387" lon="5.78012">
        <ele>417.5</ele>
        <time>2021-08-24T07:54:08Z</time>
      </trkpt>
      <trkpt lat="45.44384" lon="5.78013">
        <ele>417.5</ele>
        <time>2021-08-24T07:54:10Z</time>
      </trkpt>
      <trkpt lat="45.44383" lon="5.78014">
        <ele>417.6</ele>
        <time>2021-08-24T07:54:11Z</time>
      </trkpt>
      <trkpt lat="45.44382" lon="5.78015">
        <ele>417.6</ele>
        <time>2021-08-24T07:54:13Z</time>
      </trkpt>
      <trkpt lat="45.4438" lon="5.78016">
        <ele>417.6</ele>
        <time>2021-08-24T07:54:14Z</time>
      </trkpt>
      <trkpt lat="45.44379" lon="5.78017">
        <ele>417.7</ele>
        <time>2021-08-24T07:54:15Z</time>
      </trkpt>
      <trkpt lat="45.44377" lon="5.7802">
        <ele>417.7</ele>
        <time>2021-08-24T07:54:17Z</time>
      </trkpt>
      <trkpt lat="45.44375" lon="5.78023">
        <ele>417.8</ele>
        <time>2021-08-24T07:54:18Z</time>
      </trkpt>
      <trkpt lat="45.44334" lon="5.78106">
        <ele>419.2</ele>
        <time>2021-08-24T07:54:44Z</time>
      </trkpt>
      <trkpt lat="45.44332" lon="5.78111">
        <ele>419.3</ele>
        <time>2021-08-24T07:54:45Z</time>
      </trkpt>
      <trkpt lat="45.44322" lon="5.78116">
        <ele>419.4</ele>
        <time>2021-08-24T07:54:46Z</time>
      </trkpt>
      <trkpt lat="45.44315" lon="5.7812">
        <ele>419.6</ele>
        <time>2021-08-24T07:54:47Z</time>
      </trkpt>
      <trkpt lat="45.44307" lon="5.78124">
        <ele>419.7</ele>
        <time>2021-08-24T07:54:48Z</time>
      </trkpt>
      <trkpt lat="45.44301" lon="5.78128">
        <ele>419.8</ele>
        <time>2021-08-24T07:54:49Z</time>
      </trkpt>
      <trkpt lat="45.44293" lon="5.78138">
        <ele>419.9</ele>
        <time>2021-08-24T07:54:50Z</time>
      </trkpt>
      <trkpt lat="45.44291" lon="5.7814">
        <ele>420</ele>
        <time>2021-08-24T07:54:52Z</time>
      </trkpt>
      <trkpt lat="45.44289" lon="5.78142">
        <ele>420</ele>
        <time>2021-08-24T07:54:53Z</time>
      </trkpt>
      <trkpt lat="45.44289" lon="5.78144">
        <ele>420</ele>
        <time>2021-08-24T07:54:54Z</time>
      </trkpt>
      <trkpt lat="45.44288" lon="5.78149">
        <ele>420</ele>
        <time>2021-08-24T07:54:56Z</time>
      </trkpt>
      <trkpt lat="45.44288" lon="5.78151">
        <ele>420</ele>
        <time>2021-08-24T07:54:57Z</time>
      </trkpt>
      <trkpt lat="45.44288" lon="5.78153">
        <ele>420.1</ele>
        <time>2021-08-24T07:54:58Z</time>
      </trkpt>
      <trkpt lat="45.44288" lon="5.78155">
        <ele>420.1</ele>
        <time>2021-08-24T07:54:59Z</time>
      </trkpt>
      <trkpt lat="45.44289" lon="5.7816">
        <ele>420.1</ele>
        <time>2021-08-24T07:55:01Z</time>
      </trkpt>
      <trkpt lat="45.44291" lon="5.78175">
        <ele>420.2</ele>
        <time>2021-08-24T07:55:03Z</time>
      </trkpt>
      <trkpt lat="45.44291" lon="5.78178">
        <ele>420.3</ele>
        <time>2021-08-24T07:55:04Z</time>
      </trkpt>
      <trkpt lat="45.44291" lon="5.78179">
        <ele>420.3</ele>
        <time>2021-08-24T07:55:05Z</time>
      </trkpt>
      <trkpt lat="45.4429" lon="5.7818">
        <ele>420.3</ele>
        <time>2021-08-24T07:55:07Z</time>
      </trkpt>
      <trkpt lat="45.4429" lon="5.7818">
        <ele>420.3</ele>
        <time>2021-08-24T07:55:08Z</time>
      </trkpt>
      <trkpt lat="45.44287" lon="5.78182">
        <ele>420.3</ele>
        <time>2021-08-24T07:55:10Z</time>
      </trkpt>
      <trkpt lat="45.44286" lon="5.78183">
        <ele>420.4</ele>
        <time>2021-08-24T07:55:11Z</time>
      </trkpt>
      <trkpt lat="45.44286" lon="5.78183">
        <ele>420.4</ele>
        <time>2021-08-24T07:55:12Z</time>
      </trkpt>
      <trkpt lat="45.44282" lon="5.78189">
        <ele>420.5</ele>
        <time>2021-08-24T07:55:14Z</time>
      </trkpt>
      <trkpt lat="45.44278" lon="5.78193">
        <ele>420.6</ele>
        <time>2021-08-24T07:55:15Z</time>
      </trkpt>
      <trkpt lat="45.44273" lon="5.78202">
        <ele>420.7</ele>
        <time>2021-08-24T07:55:16Z</time>
      </trkpt>
      <trkpt lat="45.44271" lon="5.78207">
        <ele>420.8</ele>
        <time>2021-08-24T07:55:18Z</time>
      </trkpt>
      <trkpt lat="45.44263" lon="5.78229">
        <ele>420.9</ele>
        <time>2021-08-24T07:55:20Z</time>
      </trkpt>
      <trkpt lat="45.44262" lon="5.78237">
        <ele>420.6</ele>
        <time>2021-08-24T07:55:22Z</time>
      </trkpt>
      <trkpt lat="45.44262" lon="5.78239">
        <ele>420.5</ele>
        <time>2021-08-24T07:55:23Z</time>
      </trkpt>
      <trkpt lat="45.4426" lon="5.78242">
        <ele>420.4</ele>
        <time>2021-08-24T07:55:25Z</time>
      </trkpt>
      <trkpt lat="45.44259" lon="5.78243">
        <ele>420.3</ele>
        <time>2021-08-24T07:55:26Z</time>
      </trkpt>
      <trkpt lat="45.44254" lon="5.78244">
        <ele>420</ele>
        <time>2021-08-24T07:55:28Z</time>
      </trkpt>
      <trkpt lat="45.44248" lon="5.78247">
        <ele>419.7</ele>
        <time>2021-08-24T07:55:29Z</time>
      </trkpt>
      <trkpt lat="45.44244" lon="5.7825">
        <ele>419.6</ele>
        <time>2021-08-24T07:55:30Z</time>
      </trkpt>
      <trkpt lat="45.44239" lon="5.78255">
        <ele>419.6</ele>
        <time>2021-08-24T07:55:32Z</time>
      </trkpt>
      <trkpt lat="45.44236" lon="5.78255">
        <ele>419.6</ele>
        <time>2021-08-24T07:55:34Z</time>
      </trkpt>
      <trkpt lat="45.44236" lon="5.78255">
        <ele>419.6</ele>
        <time>2021-08-24T07:55:35Z</time>
      </trkpt>
      <trkpt lat="45.44236" lon="5.78259">
        <ele>419.6</ele>
        <time>2021-08-24T07:55:37Z</time>
      </trkpt>
      <trkpt lat="45.44235" lon="5.7826">
        <ele>419.6</ele>
        <time>2021-08-24T07:55:38Z</time>
      </trkpt>
      <trkpt lat="45.44238" lon="5.78262">
        <ele>419.6</ele>
        <time>2021-08-24T07:55:40Z</time>
      </trkpt>
      <trkpt lat="45.44239" lon="5.78264">
        <ele>419.6</ele>
        <time>2021-08-24T07:55:41Z</time>
      </trkpt>
      <trkpt lat="45.4424" lon="5.78266">
        <ele>419.6</ele>
        <time>2021-08-24T07:55:43Z</time>
      </trkpt>
      <trkpt lat="45.44241" lon="5.78267">
        <ele>419.6</ele>
        <time>2021-08-24T07:55:45Z</time>
      </trkpt>
      <trkpt lat="45.44241" lon="5.78267">
        <ele>419.6</ele>
        <time>2021-08-24T07:55:46Z</time>
      </trkpt>
      <trkpt lat="45.44242" lon="5.78268">
        <ele>419.6</ele>
        <time>2021-08-24T07:55:47Z</time>
      </trkpt>
      <trkpt lat="45.44245" lon="5.78279">
        <ele>419.7</ele>
        <time>2021-08-24T07:55:59Z</time>
      </trkpt>
      <trkpt lat="45.44248" lon="5.78282">
        <ele>419.7</ele>
        <time>2021-08-24T07:56:00Z</time>
      </trkpt>
      <trkpt lat="45.4425" lon="5.78283">
        <ele>419.8</ele>
        <time>2021-08-24T07:56:01Z</time>
      </trkpt>
      <trkpt lat="45.44252" lon="5.78283">
        <ele>419.8</ele>
        <time>2021-08-24T07:56:02Z</time>
      </trkpt>
      <trkpt lat="45.44253" lon="5.78284">
        <ele>419.8</ele>
        <time>2021-08-24T07:56:04Z</time>
      </trkpt>
      <trkpt lat="45.44253" lon="5.78283">
        <ele>419.8</ele>
        <time>2021-08-24T07:56:06Z</time>
      </trkpt>
      <trkpt lat="45.44252" lon="5.78283">
        <ele>419.8</ele>
        <time>2021-08-24T07:56:07Z</time>
      </trkpt>
      <trkpt lat="45.44251" lon="5.78284">
        <ele>419.9</ele>
        <time>2021-08-24T07:56:09Z</time>
      </trkpt>
      <trkpt lat="45.4425" lon="5.78284">
        <ele>419.9</ele>
        <time>2021-08-24T07:56:10Z</time>
      </trkpt>
      <trkpt lat="45.44249" lon="5.78283">
        <ele>419.9</ele>
        <time>2021-08-24T07:56:12Z</time>
      </trkpt>
      <trkpt lat="45.44249" lon="5.78283">
        <ele>419.9</ele>
        <time>2021-08-24T07:56:14Z</time>
      </trkpt>
      <trkpt lat="45.44248" lon="5.78282">
        <ele>419.9</ele>
        <time>2021-08-24T07:56:16Z</time>
      </trkpt>
      <trkpt lat="45.44248" lon="5.78282">
        <ele>419.9</ele>
        <time>2021-08-24T07:56:18Z</time>
      </trkpt>
      <trkpt lat="45.44248" lon="5.78281">
        <ele>419.9</ele>
        <time>2021-08-24T07:56:20Z</time>
      </trkpt>
      <trkpt lat="45.4426" lon="5.78282">
        <ele>420.2</ele>
        <time>2021-08-24T07:56:48Z</time>
      </trkpt>
      <trkpt lat="45.44263" lon="5.78279">
        <ele>420.2</ele>
        <time>2021-08-24T07:56:50Z</time>
      </trkpt>
      <trkpt lat="45.44266" lon="5.78276">
        <ele>420.3</ele>
        <time>2021-08-24T07:56:51Z</time>
      </trkpt>
      <trkpt lat="45.4427" lon="5.78273">
        <ele>420.4</ele>
        <time>2021-08-24T07:56:52Z</time>
      </trkpt>
      <trkpt lat="45.44273" lon="5.7827">
        <ele>420.5</ele>
        <time>2021-08-24T07:56:53Z</time>
      </trkpt>
      <trkpt lat="45.44276" lon="5.78268">
        <ele>420.5</ele>
        <time>2021-08-24T07:56:54Z</time>
      </trkpt>
      <trkpt lat="45.44278" lon="5.78265">
        <ele>420.6</ele>
        <time>2021-08-24T07:56:55Z</time>
      </trkpt>
      <trkpt lat="45.44282" lon="5.78258">
        <ele>420.7</ele>
        <time>2021-08-24T07:56:57Z</time>
      </trkpt>
      <trkpt lat="45.44283" lon="5.78255">
        <ele>420.7</ele>
        <time>2021-08-24T07:56:58Z</time>
      </trkpt>
      <trkpt lat="45.44284" lon="5.78254">
        <ele>420.7</ele>
        <time>2021-08-24T07:56:59Z</time>
      </trkpt>
      <trkpt lat="45.44287" lon="5.78249">
        <ele>420.8</ele>
        <time>2021-08-24T07:57:00Z</time>
      </trkpt>
      <trkpt lat="45.4429" lon="5.78249">
        <ele>420.9</ele>
        <time>2021-08-24T07:57:02Z</time>
      </trkpt>
      <trkpt lat="45.44291" lon="5.78249">
        <ele>420.9</ele>
        <time>2021-08-24T07:57:03Z</time>
      </trkpt>
      <trkpt lat="45.44292" lon="5.78249">
        <ele>420.9</ele>
        <time>2021-08-24T07:57:04Z</time>
      </trkpt>
      <trkpt lat="45.44294" lon="5.78249">
        <ele>421</ele>
        <time>2021-08-24T07:57:05Z</time>
      </trkpt>
      <trkpt lat="45.44295" lon="5.78248">
        <ele>421</ele>
        <time>2021-08-24T07:57:06Z</time>
      </trkpt>
      <trkpt lat="45.44298" lon="5.78248">
        <ele>421</ele>
        <time>2021-08-24T07:57:08Z</time>
      </trkpt>
      <trkpt lat="45.44321" lon="5.7824">
        <ele>421.4</ele>
        <time>2021-08-24T07:57:20Z</time>
      </trkpt>
      <trkpt lat="45.44327" lon="5.7824">
        <ele>421.4</ele>
        <time>2021-08-24T07:57:21Z</time>
      </trkpt>
      <trkpt lat="45.44332" lon="5.78241">
        <ele>421.4</ele>
        <time>2021-08-24T07:57:22Z</time>
      </trkpt>
      <trkpt lat="45.44339" lon="5.78242">
        <ele>421.5</ele>
        <time>2021-08-24T07:57:23Z</time>
      </trkpt>
      <trkpt lat="45.44349" lon="5.78244">
        <ele>421.5</ele>
        <time>2021-08-24T07:57:25Z</time>
      </trkpt>
      <trkpt lat="45.44355" lon="5.78245">
        <ele>421.5</ele>
        <time>2021-08-24T07:57:26Z</time>
      </trkpt>
      <trkpt lat="45.44361" lon="5.78246">
        <ele>421.5</ele>
        <time>2021-08-24T07:57:27Z</time>
      </trkpt>
      <trkpt lat="45.44366" lon="5.78246">
        <ele>421.6</ele>
        <time>2021-08-24T07:57:28Z</time>
      </trkpt>
      <trkpt lat="45.44372" lon="5.78247">
        <ele>421.6</ele>
        <time>2021-08-24T07:57:29Z</time>
      </trkpt>
      <trkpt lat="45.44376" lon="5.78247">
        <ele>421.6</ele>
        <time>2021-08-24T07:57:31Z</time>
      </trkpt>
      <trkpt lat="45.44381" lon="5.78248">
        <ele>421.6</ele>
        <time>2021-08-24T07:57:32Z</time>
      </trkpt>
      <trkpt lat="45.44385" lon="5.78249">
        <ele>421.5</ele>
        <time>2021-08-24T07:57:33Z</time>
      </trkpt>
      <trkpt lat="45.44388" lon="5.78251">
        <ele>421.5</ele>
        <time>2021-08-24T07:57:34Z</time>
      </trkpt>
      <trkpt lat="45.44395" lon="5.78254">
        <ele>421.5</ele>
        <time>2021-08-24T07:57:36Z</time>
      </trkpt>
      <trkpt lat="45.44398" lon="5.78256">
        <ele>421.5</ele>
        <time>2021-08-24T07:57:37Z</time>
      </trkpt>
      <trkpt lat="45.44403" lon="5.78258">
        <ele>421.5</ele>
        <time>2021-08-24T07:57:39Z</time>
      </trkpt>
      <trkpt lat="45.44406" lon="5.78259">
        <ele>421.5</ele>
        <time>2021-08-24T07:57:40Z</time>
      </trkpt>
      <trkpt lat="45.4441" lon="5.78261">
        <ele>421.4</ele>
        <time>2021-08-24T07:57:42Z</time>
      </trkpt>
      <trkpt lat="45.44413" lon="5.78263">
        <ele>421.4</ele>
        <time>2021-08-24T07:57:43Z</time>
      </trkpt>
      <trkpt lat="45.44416" lon="5.78265">
        <ele>421.3</ele>
        <time>2021-08-24T07:57:44Z</time>
      </trkpt>
      <trkpt lat="45.4442" lon="5.78267">
        <ele>421.3</ele>
        <time>2021-08-24T07:57:45Z</time>
      </trkpt>
      <trkpt lat="45.44423" lon="5.7827">
        <ele>421.2</ele>
        <time>2021-08-24T07:57:46Z</time>
      </trkpt>
      <trkpt lat="45.44427" lon="5.78273">
        <ele>421.4</ele>
        <time>2021-08-24T07:57:47Z</time>
      </trkpt>
      <trkpt lat="45.44431" lon="5.78275">
        <ele>421.5</ele>
        <time>2021-08-24T07:57:49Z</time>
      </trkpt>
      <trkpt lat="45.44435" lon="5.78277">
        <ele>421.7</ele>
        <time>2021-08-24T07:57:50Z</time>
      </trkpt>
      <trkpt lat="45.44437" lon="5.78278">
        <ele>421.8</ele>
        <time>2021-08-24T07:57:51Z</time>
      </trkpt>
      <trkpt lat="45.44443" lon="5.78277">
        <ele>422</ele>
        <time>2021-08-24T07:57:53Z</time>
      </trkpt>
      <trkpt lat="45.44443" lon="5.78273">
        <ele>422.1</ele>
        <time>2021-08-24T07:57:54Z</time>
      </trkpt>
      <trkpt lat="45.44444" lon="5.7827">
        <ele>422.2</ele>
        <time>2021-08-24T07:57:56Z</time>
      </trkpt>
      <trkpt lat="45.44445" lon="5.78271">
        <ele>422.3</ele>
        <time>2021-08-24T07:57:57Z</time>
      </trkpt>
      <trkpt lat="45.44441" lon="5.78271">
        <ele>422.4</ele>
        <time>2021-08-24T07:57:59Z</time>
      </trkpt>
      <trkpt lat="45.4444" lon="5.78271">
        <ele>422.5</ele>
        <time>2021-08-24T07:58:00Z</time>
      </trkpt>
      <trkpt lat="45.4444" lon="5.78271">
        <ele>422.5</ele>
        <time>2021-08-24T07:58:01Z</time>
      </trkpt>
      <trkpt lat="45.44441" lon="5.78271">
        <ele>422.5</ele>
        <time>2021-08-24T07:58:03Z</time>
      </trkpt>
      <trkpt lat="45.44443" lon="5.78271">
        <ele>422.6</ele>
        <time>2021-08-24T07:58:04Z</time>
      </trkpt>
      <trkpt lat="45.44444" lon="5.7827">
        <ele>422.6</ele>
        <time>2021-08-24T07:58:06Z</time>
      </trkpt>
      <trkpt lat="45.44437" lon="5.78264">
        <ele>422.8</ele>
        <time>2021-08-24T07:58:38Z</time>
      </trkpt>
      <trkpt lat="45.44438" lon="5.78264">
        <ele>422.9</ele>
        <time>2021-08-24T07:58:39Z</time>
      </trkpt>
      <trkpt lat="45.44437" lon="5.78264">
        <ele>422.9</ele>
        <time>2021-08-24T07:58:40Z</time>
      </trkpt>
      <trkpt lat="45.44437" lon="5.78265">
        <ele>422.9</ele>
        <time>2021-08-24T07:58:41Z</time>
      </trkpt>
      <trkpt lat="45.44442" lon="5.78268">
        <ele>423</ele>
        <time>2021-08-24T07:58:43Z</time>
      </trkpt>
      <trkpt lat="45.4445" lon="5.78273">
        <ele>423.1</ele>
        <time>2021-08-24T07:58:45Z</time>
      </trkpt>
      <trkpt lat="45.44453" lon="5.78275">
        <ele>423.2</ele>
        <time>2021-08-24T07:58:46Z</time>
      </trkpt>
      <trkpt lat="45.44459" lon="5.7828">
        <ele>423.3</ele>
        <time>2021-08-24T07:58:48Z</time>
      </trkpt>
      <trkpt lat="45.44463" lon="5.78284">
        <ele>423.4</ele>
        <time>2021-08-24T07:58:49Z</time>
      </trkpt>
      <trkpt lat="45.44467" lon="5.78288">
        <ele>423.4</ele>
        <time>2021-08-24T07:58:51Z</time>
      </trkpt>
      <trkpt lat="45.4447" lon="5.7829">
        <ele>423.5</ele>
        <time>2021-08-24T07:58:52Z</time>
      </trkpt>
      <trkpt lat="45.44473" lon="5.78292">
        <ele>423.5</ele>
        <time>2021-08-24T07:58:54Z</time>
      </trkpt>
      <trkpt lat="45.44476" lon="5.78294">
        <ele>423.6</ele>
        <time>2021-08-24T07:58:55Z</time>
      </trkpt>
      <trkpt lat="45.44478" lon="5.78295">
        <ele>423.6</ele>
        <time>2021-08-24T07:58:56Z</time>
      </trkpt>
      <trkpt lat="45.44481" lon="5.78297">
        <ele>423.7</ele>
        <time>2021-08-24T07:58:58Z</time>
      </trkpt>
      <trkpt lat="45.44484" lon="5.78299">
        <ele>423.7</ele>
        <time>2021-08-24T07:58:59Z</time>
      </trkpt>
      <trkpt lat="45.44486" lon="5.783">
        <ele>423.8</ele>
        <time>2021-08-24T07:59:00Z</time>
      </trkpt>
      <trkpt lat="45.44489" lon="5.78302">
        <ele>423.8</ele>
        <time>2021-08-24T07:59:02Z</time>
      </trkpt>
      <trkpt lat="45.44493" lon="5.78303">
        <ele>423.9</ele>
        <time>2021-08-24T07:59:03Z</time>
      </trkpt>
      <trkpt lat="45.44495" lon="5.78307">
        <ele>424</ele>
        <time>2021-08-24T07:59:04Z</time>
      </trkpt>
      <trkpt lat="45.44498" lon="5.7831">
        <ele>424.1</ele>
        <time>2021-08-24T07:59:05Z</time>
      </trkpt>
      <trkpt lat="45.445" lon="5.78315">
        <ele>424.1</ele>
        <time>2021-08-24T07:59:06Z</time>
      </trkpt>
      <trkpt lat="45.44504" lon="5.78319">
        <ele>424.3</ele>
        <time>2021-08-24T07:59:08Z</time>
      </trkpt>
      <trkpt lat="45.44506" lon="5.78323">
        <ele>424.4</ele>
        <time>2021-08-24T07:59:09Z</time>
      </trkpt>
      <trkpt lat="45.44508" lon="5.78326">
        <ele>424.5</ele>
        <time>2021-08-24T07:59:10Z</time>
      </trkpt>
      <trkpt lat="45.44511" lon="5.78331">
        <ele>424.6</ele>
        <time>2021-08-24T07:59:11Z</time>
      </trkpt>
      <trkpt lat="45.44513" lon="5.78334">
        <ele>424.7</ele>
        <time>2021-08-24T07:59:12Z</time>
      </trkpt>
      <trkpt lat="45.44516" lon="5.78336">
        <ele>424.9</ele>
        <time>2021-08-24T07:59:13Z</time>
      </trkpt>
      <trkpt lat="45.44521" lon="5.78338">
        <ele>425.1</ele>
        <time>2021-08-24T07:59:15Z</time>
      </trkpt>
      <trkpt lat="45.44524" lon="5.78339">
        <ele>425.2</ele>
        <time>2021-08-24T07:59:16Z</time>
      </trkpt>
      <trkpt lat="45.44527" lon="5.7834">
        <ele>425.4</ele>
        <time>2021-08-24T07:59:17Z</time>
      </trkpt>
      <trkpt lat="45.44529" lon="5.78343">
        <ele>425.5</ele>
        <time>2021-08-24T07:59:19Z</time>
      </trkpt>
      <trkpt lat="45.44531" lon="5.78345">
        <ele>425.7</ele>
        <time>2021-08-24T07:59:20Z</time>
      </trkpt>
      <trkpt lat="45.44528" lon="5.78344">
        <ele>425.8</ele>
        <time>2021-08-24T07:59:22Z</time>
      </trkpt>
      <trkpt lat="45.44528" lon="5.78345">
        <ele>425.9</ele>
        <time>2021-08-24T07:59:24Z</time>
      </trkpt>
      <trkpt lat="45.44528" lon="5.78344">
        <ele>425.9</ele>
        <time>2021-08-24T07:59:25Z</time>
      </trkpt>
      <trkpt lat="45.44528" lon="5.78344">
        <ele>425.9</ele>
        <time>2021-08-24T07:59:26Z</time>
      </trkpt>
      <trkpt lat="45.44529" lon="5.78344">
        <ele>426</ele>
        <time>2021-08-24T07:59:27Z</time>
      </trkpt>
      <trkpt lat="45.4453" lon="5.78344">
        <ele>426</ele>
        <time>2021-08-24T07:59:29Z</time>
      </trkpt>
      <trkpt lat="45.44539" lon="5.78348">
        <ele>426.6</ele>
        <time>2021-08-24T07:59:34Z</time>
      </trkpt>
      <trkpt lat="45.44541" lon="5.78348">
        <ele>426.7</ele>
        <time>2021-08-24T07:59:35Z</time>
      </trkpt>
      <trkpt lat="45.44545" lon="5.78348">
        <ele>426.9</ele>
        <time>2021-08-24T07:59:36Z</time>
      </trkpt>
      <trkpt lat="45.4455" lon="5.78351">
        <ele>427.2</ele>
        <time>2021-08-24T07:59:38Z</time>
      </trkpt>
      <trkpt lat="45.44556" lon="5.78353">
        <ele>427.5</ele>
        <time>2021-08-24T07:59:40Z</time>
      </trkpt>
      <trkpt lat="45.44561" lon="5.78354">
        <ele>427.7</ele>
        <time>2021-08-24T07:59:41Z</time>
      </trkpt>
      <trkpt lat="45.44564" lon="5.78355">
        <ele>427.8</ele>
        <time>2021-08-24T07:59:42Z</time>
      </trkpt>
      <trkpt lat="45.44568" lon="5.78355">
        <ele>428</ele>
        <time>2021-08-24T07:59:43Z</time>
      </trkpt>
      <trkpt lat="45.44572" lon="5.78357">
        <ele>428.1</ele>
        <time>2021-08-24T07:59:45Z</time>
      </trkpt>
      <trkpt lat="45.44574" lon="5.78358">
        <ele>428.2</ele>
        <time>2021-08-24T07:59:46Z</time>
      </trkpt>
      <trkpt lat="45.44579" lon="5.78361">
        <ele>428.4</ele>
        <time>2021-08-24T07:59:48Z</time>
      </trkpt>
      <trkpt lat="45.44581" lon="5.78367">
        <ele>428.6</ele>
        <time>2021-08-24T07:59:50Z</time>
      </trkpt>
      <trkpt lat="45.44584" lon="5.7837">
        <ele>428.7</ele>
        <time>2021-08-24T07:59:52Z</time>
      </trkpt>
      <trkpt lat="45.44586" lon="5.78372">
        <ele>428.8</ele>
        <time>2021-08-24T07:59:53Z</time>
      </trkpt>
      <trkpt lat="45.44589" lon="5.78375">
        <ele>428.9</ele>
        <time>2021-08-24T07:59:55Z</time>
      </trkpt>
      <trkpt lat="45.44591" lon="5.78377">
        <ele>429</ele>
        <time>2021-08-24T07:59:56Z</time>
      </trkpt>
      <trkpt lat="45.44593" lon="5.78381">
        <ele>429.1</ele>
        <time>2021-08-24T07:59:58Z</time>
      </trkpt>
      <trkpt lat="45.44596" lon="5.78384">
        <ele>429.3</ele>
        <time>2021-08-24T07:59:59Z</time>
      </trkpt>
      <trkpt lat="45.44598" lon="5.78387">
        <ele>429.4</ele>
        <time>2021-08-24T08:00:00Z</time>
      </trkpt>
      <trkpt lat="45.44602" lon="5.78392">
        <ele>429.6</ele>
        <time>2021-08-24T08:00:02Z</time>
      </trkpt>
      <trkpt lat="45.44605" lon="5.78396">
        <ele>429.7</ele>
        <time>2021-08-24T08:00:04Z</time>
      </trkpt>
      <trkpt lat="45.44607" lon="5.78399">
        <ele>429.8</ele>
        <time>2021-08-24T08:00:05Z</time>
      </trkpt>
      <trkpt lat="45.44611" lon="5.78403">
        <ele>430</ele>
        <time>2021-08-24T08:00:07Z</time>
      </trkpt>
      <trkpt lat="45.44612" lon="5.78404">
        <ele>430</ele>
        <time>2021-08-24T08:00:08Z</time>
      </trkpt>
      <trkpt lat="45.44614" lon="5.78405">
        <ele>430.1</ele>
        <time>2021-08-24T08:00:09Z</time>
      </trkpt>
      <trkpt lat="45.44614" lon="5.78409">
        <ele>430.2</ele>
        <time>2021-08-24T08:00:11Z</time>
      </trkpt>
      <trkpt lat="45.44615" lon="5.78411">
        <ele>430.2</ele>
        <time>2021-08-24T08:00:12Z</time>
      </trkpt>
      <trkpt lat="45.44617" lon="5.78413">
        <ele>430.3</ele>
        <time>2021-08-24T08:00:14Z</time>
      </trkpt>
      <trkpt lat="45.44618" lon="5.78414">
        <ele>430.3</ele>
        <time>2021-08-24T08:00:15Z</time>
      </trkpt>
      <trkpt lat="45.4462" lon="5.78416">
        <ele>430.4</ele>
        <time>2021-08-24T08:00:16Z</time>
      </trkpt>
      <trkpt lat="45.44624" lon="5.78418">
        <ele>432</ele>
        <time>2021-08-24T08:00:18Z</time>
      </trkpt>
      <trkpt lat="45.44627" lon="5.78419">
        <ele>434.6</ele>
        <time>2021-08-24T08:00:19Z</time>
      </trkpt>
      <trkpt lat="45.4463" lon="5.7842">
        <ele>437.3</ele>
        <time>2021-08-24T08:00:20Z</time>
      </trkpt>
      <trkpt lat="45.44635" lon="5.78421">
        <ele>441</ele>
        <time>2021-08-24T08:00:22Z</time>
      </trkpt>
      <trkpt lat="45.44639" lon="5.78423">
        <ele>444</ele>
        <time>2021-08-24T08:00:23Z</time>
      </trkpt>
      <trkpt lat="45.44641" lon="5.78425">
        <ele>445.8</ele>
        <time>2021-08-24T08:00:24Z</time>
      </trkpt>
      <trkpt lat="45.44645" lon="5.78428">
        <ele>448.9</ele>
        <time>2021-08-24T08:00:26Z</time>
      </trkpt>
      <trkpt lat="45.44647" lon="5.78426">
        <ele>450.6</ele>
        <time>2021-08-24T08:00:28Z</time>
      </trkpt>
      <trkpt lat="45.44649" lon="5.7842">
        <ele>454.2</ele>
        <time>2021-08-24T08:00:30Z</time>
      </trkpt>
      <trkpt lat="45.4465" lon="5.7842">
        <ele>461.2</ele>
        <time>2021-08-24T08:00:31Z</time>
      </trkpt>
      <trkpt lat="45.44651" lon="5.7842">
        <ele>461.1</ele>
        <time>2021-08-24T08:00:32Z</time>
      </trkpt>
      <trkpt lat="45.44652" lon="5.78421">
        <ele>461.1</ele>
        <time>2021-08-24T08:00:33Z</time>
      </trkpt>
      <trkpt lat="45.44653" lon="5.78422">
        <ele>461.1</ele>
        <time>2021-08-24T08:00:34Z</time>
      </trkpt>
      <trkpt lat="45.44654" lon="5.78425">
        <ele>461.1</ele>
        <time>2021-08-24T08:00:35Z</time>
      </trkpt>
      <trkpt lat="45.44656" lon="5.78427">
        <ele>461</ele>
        <time>2021-08-24T08:00:36Z</time>
      </trkpt>
      <trkpt lat="45.44703" lon="5.78467">
        <ele>459.7</ele>
        <time>2021-08-24T08:01:58Z</time>
      </trkpt>
      <trkpt lat="45.44707" lon="5.7847">
        <ele>459.6</ele>
        <time>2021-08-24T08:01:59Z</time>
      </trkpt>
      <trkpt lat="45.44711" lon="5.78472">
        <ele>459.4</ele>
        <time>2021-08-24T08:02:00Z</time>
      </trkpt>
      <trkpt lat="45.44714" lon="5.78475">
        <ele>459.3</ele>
        <time>2021-08-24T08:02:02Z</time>
      </trkpt>
      <trkpt lat="45.44718" lon="5.78479">
        <ele>461.4</ele>
        <time>2021-08-24T08:02:03Z</time>
      </trkpt>
      <trkpt lat="45.44723" lon="5.78486">
        <ele>466.1</ele>
        <time>2021-08-24T08:02:05Z</time>
      </trkpt>
      <trkpt lat="45.44725" lon="5.7849">
        <ele>465.3</ele>
        <time>2021-08-24T08:02:06Z</time>
      </trkpt>
      <trkpt lat="45.44727" lon="5.78495">
        <ele>472.3</ele>
        <time>2021-08-24T08:02:07Z</time>
      </trkpt>
      <trkpt lat="45.44731" lon="5.78498">
        <ele>470.6</ele>
        <time>2021-08-24T08:02:09Z</time>
      </trkpt>
      <trkpt lat="45.44733" lon="5.78501">
        <ele>474.3</ele>
        <time>2021-08-24T08:02:11Z</time>
      </trkpt>
      <trkpt lat="45.44734" lon="5.78502">
        <ele>473.5</ele>
        <time>2021-08-24T08:02:12Z</time>
      </trkpt>
      <trkpt lat="45.44737" lon="5.78504">
        <ele>477.1</ele>
        <time>2021-08-24T08:02:13Z</time>
      </trkpt>
      <trkpt lat="45.44741" lon="5.78508">
        <ele>478.9</ele>
        <time>2021-08-24T08:02:14Z</time>
      </trkpt>
      <trkpt lat="45.44743" lon="5.78512">
        <ele>478</ele>
        <time>2021-08-24T08:02:15Z</time>
      </trkpt>
      <trkpt lat="45.44744" lon="5.78513">
        <ele>481.2</ele>
        <time>2021-08-24T08:02:16Z</time>
      </trkpt>
      <trkpt lat="45.44744" lon="5.78516">
        <ele>481.3</ele>
        <time>2021-08-24T08:02:17Z</time>
      </trkpt>
      <trkpt lat="45.4476" lon="5.78541">
        <ele>495.8</ele>
        <time>2021-08-24T08:02:36Z</time>
      </trkpt>
      <trkpt lat="45.44763" lon="5.78543">
        <ele>498.7</ele>
        <time>2021-08-24T08:02:38Z</time>
      </trkpt>
      <trkpt lat="45.44766" lon="5.78547">
        <ele>501.5</ele>
        <time>2021-08-24T08:02:39Z</time>
      </trkpt>
      <trkpt lat="45.44768" lon="5.78551">
        <ele>504.3</ele>
        <time>2021-08-24T08:02:41Z</time>
      </trkpt>
      <trkpt lat="45.44769" lon="5.78554">
        <ele>504.4</ele>
        <time>2021-08-24T08:02:42Z</time>
      </trkpt>
      <trkpt lat="45.44771" lon="5.78558">
        <ele>507</ele>
        <time>2021-08-24T08:02:44Z</time>
      </trkpt>
      <trkpt lat="45.44774" lon="5.78561">
        <ele>509.3</ele>
        <time>2021-08-24T08:02:45Z</time>
      </trkpt>
      <trkpt lat="45.44777" lon="5.78563">
        <ele>508.4</ele>
        <time>2021-08-24T08:02:46Z</time>
      </trkpt>
      <trkpt lat="45.44781" lon="5.78565">
        <ele>510.6</ele>
        <time>2021-08-24T08:02:47Z</time>
      </trkpt>
      <trkpt lat="45.44783" lon="5.78566">
        <ele>509.8</ele>
        <time>2021-08-24T08:02:48Z</time>
      </trkpt>
      <trkpt lat="45.44787" lon="5.78569">
        <ele>512.2</ele>
        <time>2021-08-24T08:02:50Z</time>
      </trkpt>
      <trkpt lat="45.4479" lon="5.78572">
        <ele>511.5</ele>
        <time>2021-08-24T08:02:51Z</time>
      </trkpt>
      <trkpt lat="45.44792" lon="5.78583">
        <ele>520.6</ele>
        <time>2021-08-24T08:02:53Z</time>
      </trkpt>
      <trkpt lat="45.44794" lon="5.78592">
        <ele>526.7</ele>
        <time>2021-08-24T08:02:54Z</time>
      </trkpt>
      <trkpt lat="45.44796" lon="5.78599">
        <ele>532.7</ele>
        <time>2021-08-24T08:02:56Z</time>
      </trkpt>
      <trkpt lat="45.44797" lon="5.78602">
        <ele>534.6</ele>
        <time>2021-08-24T08:02:57Z</time>
      </trkpt>
      <trkpt lat="45.44799" lon="5.78606">
        <ele>534.7</ele>
        <time>2021-08-24T08:02:59Z</time>
      </trkpt>
      <trkpt lat="45.448" lon="5.78608">
        <ele>536.4</ele>
        <time>2021-08-24T08:03:00Z</time>
      </trkpt>
      <trkpt lat="45.45024" lon="5.80068">
        <ele>576.8</ele>
        <time>2021-08-24T08:29:16Z</time>
      </trkpt>
      <trkpt lat="45.45002" lon="5.80097">
        <ele>578.2</ele>
        <time>2021-08-24T08:29:17Z</time>
      </trkpt>
      <trkpt lat="45.44998" lon="5.80103">
        <ele>578.6</ele>
        <time>2021-08-24T08:29:18Z</time>
      </trkpt>
      <trkpt lat="45.44994" lon="5.80109">
        <ele>579.1</ele>
        <time>2021-08-24T08:29:20Z</time>
      </trkpt>
      <trkpt lat="45.44991" lon="5.80116">
        <ele>579.4</ele>
        <time>2021-08-24T08:29:21Z</time>
      </trkpt>
      <trkpt lat="45.44987" lon="5.80124">
        <ele>579.9</ele>
        <time>2021-08-24T08:29:22Z</time>
      </trkpt>
      <trkpt lat="45.44985" lon="5.80128">
        <ele>580.7</ele>
        <time>2021-08-24T08:29:23Z</time>
      </trkpt>
      <trkpt lat="45.44983" lon="5.80131">
        <ele>581</ele>
        <time>2021-08-24T08:29:25Z</time>
      </trkpt>
      <trkpt lat="45.44983" lon="5.80131">
        <ele>581.1</ele>
        <time>2021-08-24T08:29:26Z</time>
      </trkpt>
      <trkpt lat="45.44982" lon="5.80132">
        <ele>581.2</ele>
        <time>2021-08-24T08:29:28Z</time>
      </trkpt>
      <trkpt lat="45.4497" lon="5.80298">
        <ele>605.8</ele>
        <time>2021-08-24T08:32:01Z</time>
      </trkpt>
      <trkpt lat="45.4497" lon="5.80304">
        <ele>606</ele>
        <time>2021-08-24T08:32:02Z</time>
      </trkpt>
      <trkpt lat="45.44969" lon="5.80305">
        <ele>606.1</ele>
        <time>2021-08-24T08:32:03Z</time>
      </trkpt>
      <trkpt lat="45.44968" lon="5.80308">
        <ele>606.2</ele>
        <time>2021-08-24T08:32:04Z</time>
      </trkpt>
      <trkpt lat="45.44967" lon="5.80309">
        <ele>606.3</ele>
        <time>2021-08-24T08:32:05Z</time>
      </trkpt>
      <trkpt lat="45.44965" lon="5.80312">
        <ele>606.5</ele>
        <time>2021-08-24T08:32:06Z</time>
      </trkpt>
      <trkpt lat="45.44964" lon="5.80313">
        <ele>607.1</ele>
        <time>2021-08-24T08:32:07Z</time>
      </trkpt>
      <trkpt lat="45.44963" lon="5.80314">
        <ele>607.7</ele>
        <time>2021-08-24T08:32:09Z</time>
      </trkpt>
      <trkpt lat="45.44962" lon="5.80313">
        <ele>609</ele>
        <time>2021-08-24T08:32:11Z</time>
      </trkpt>
      <trkpt lat="45.44962" lon="5.80313">
        <ele>609.6</ele>
        <time>2021-08-24T08:32:12Z</time>
      </trkpt>
      <trkpt lat="45.44962" lon="5.80313">
        <ele>610.2</ele>
        <time>2021-08-24T08:32:14Z</time>
      </trkpt>
      <trkpt lat="45.44877" lon="5.80486">
        <ele>630.1</ele>
        <time>2021-08-24T08:36:42Z</time>
      </trkpt>
      <trkpt lat="45.44877" lon="5.80493">
        <ele>630.7</ele>
        <time>2021-08-24T08:36:43Z</time>
      </trkpt>
      <trkpt lat="45.44877" lon="5.80501">
        <ele>631.4</ele>
        <time>2021-08-24T08:36:45Z</time>
      </trkpt>
      <trkpt lat="45.44876" lon="5.80508">
        <ele>632</ele>
        <time>2021-08-24T08:36:46Z</time>
      </trkpt>
      <trkpt lat="45.44874" lon="5.80518">
        <ele>632.3</ele>
        <time>2021-08-24T08:36:47Z</time>
      </trkpt>
      <trkpt lat="45.4487" lon="5.80526">
        <ele>632.7</ele>
        <time>2021-08-24T08:36:49Z</time>
      </trkpt>
      <trkpt lat="45.44869" lon="5.80531">
        <ele>633.1</ele>
        <time>2021-08-24T08:36:51Z</time>
      </trkpt>
      <trkpt lat="45.44869" lon="5.80539">
        <ele>633.2</ele>
        <time>2021-08-24T08:36:53Z</time>
      </trkpt>
      <trkpt lat="45.4487" lon="5.8054">
        <ele>633.3</ele>
        <time>2021-08-24T08:36:54Z</time>
      </trkpt>
      <trkpt lat="45.44871" lon="5.8054">
        <ele>633.3</ele>
        <time>2021-08-24T08:36:56Z</time>
      </trkpt>
      <trkpt lat="45.44872" lon="5.80541">
        <ele>633.3</ele>
        <time>2021-08-24T08:36:57Z</time>
      </trkpt>
      <trkpt lat="45.44873" lon="5.80541">
        <ele>633.3</ele>
        <time>2021-08-24T08:36:58Z</time>
      </trkpt>
      <trkpt lat="45.44874" lon="5.80542">
        <ele>633.3</ele>
        <time>2021-08-24T08:36:59Z</time>
      </trkpt>
      <trkpt lat="45.44996" lon="5.8058">
        <ele>643.1</ele>
        <time>2021-08-24T08:39:25Z</time>
      </trkpt>
      <trkpt lat="45.44998" lon="5.80581">
        <ele>643.2</ele>
        <time>2021-08-24T08:39:27Z</time>
      </trkpt>
      <trkpt lat="45.44998" lon="5.80581">
        <ele>643.2</ele>
        <time>2021-08-24T08:39:29Z</time>
      </trkpt>
      <trkpt lat="45.44998" lon="5.80581">
        <ele>643.2</ele>
        <time>2021-08-24T08:39:30Z</time>
      </trkpt>
      <trkpt lat="45.44998" lon="5.80581">
        <ele>643.2</ele>
        <time>2021-08-24T08:39:31Z</time>
      </trkpt>
      <trkpt lat="45.44998" lon="5.80581">
        <ele>643.2</ele>
        <time>2021-08-24T08:39:32Z</time>
      </trkpt>
      <trkpt lat="45.44999" lon="5.80581">
        <ele>643.2</ele>
        <time>2021-08-24T08:39:33Z</time>
      </trkpt>
      <trkpt lat="45.45001" lon="5.80581">
        <ele>643.4</ele>
        <time>2021-08-24T08:39:34Z</time>
      </trkpt>
      <trkpt lat="45.45002" lon="5.80583">
        <ele>643.4</ele>
        <time>2021-08-24T08:39:36Z</time>
      </trkpt>
      <trkpt lat="45.45002" lon="5.80584">
        <ele>643.5</ele>
        <time>2021-08-24T08:39:37Z</time>
      </trkpt>
      <trkpt lat="45.45002" lon="5.80586">
        <ele>643.6</ele>
        <time>2021-08-24T08:39:39Z</time>
      </trkpt>
      <trkpt lat="45.45001" lon="5.80587">
        <ele>643.6</ele>
        <time>2021-08-24T08:39:40Z</time>
      </trkpt>
      <trkpt lat="45.44999" lon="5.80591">
        <ele>643.9</ele>
        <time>2021-08-24T08:39:42Z</time>
      </trkpt>
      <trkpt lat="45.44999" lon="5.80592">
        <ele>644</ele>
        <time>2021-08-24T08:39:43Z</time>
      </trkpt>
      <trkpt lat="45.44998" lon="5.80594">
        <ele>644.2</ele>
        <time>2021-08-24T08:39:44Z</time>
      </trkpt>
      <trkpt lat="45.44997" lon="5.80596">
        <ele>644.3</ele>
        <time>2021-08-24T08:39:46Z</time>
      </trkpt>
      <trkpt lat="45.44997" lon="5.80597">
        <ele>644.4</ele>
        <time>2021-08-24T08:39:48Z</time>
      </trkpt>
      <trkpt lat="45.44997" lon="5.80597">
        <ele>644.4</ele>
        <time>2021-08-24T08:39:49Z</time>
      </trkpt>
      <trkpt lat="45.44997" lon="5.80597">
        <ele>644.4</ele>
        <time>2021-08-24T08:39:50Z</time>
      </trkpt>
      <trkpt lat="45.44997" lon="5.80598">
        <ele>644.4</ele>
        <time>2021-08-24T08:39:52Z</time>
      </trkpt>
      <trkpt lat="45.44997" lon="5.80597">
        <ele>644.4</ele>
        <time>2021-08-24T08:39:54Z</time>
      </trkpt>
      <trkpt lat="45.44997" lon="5.80597">
        <ele>644.4</ele>
        <time>2021-08-24T08:39:55Z</time>
      </trkpt>
      <trkpt lat="45.44998" lon="5.80598">
        <ele>644.5</ele>
        <time>2021-08-24T08:39:56Z</time>
      </trkpt>
      <trkpt lat="45.44998" lon="5.80598">
        <ele>644.5</ele>
        <time>2021-08-24T08:39:58Z</time>
      </trkpt>
      <trkpt lat="45.44998" lon="5.80598">
        <ele>644.5</ele>
        <time>2021-08-24T08:40:00Z</time>
      </trkpt>
      <trkpt lat="45.44998" lon="5.80598">
        <ele>644.5</ele>
        <time>2021-08-24T08:40:01Z</time>
      </trkpt>
      <trkpt lat="45.44998" lon="5.80598">
        <ele>644.5</ele>
        <time>2021-08-24T08:40:02Z</time>
      </trkpt>
      <trkpt lat="45.44998" lon="5.80598">
        <ele>644.6</ele>
        <time>2021-08-24T08:40:04Z</time>
      </trkpt>
      <trkpt lat="45.44999" lon="5.80598">
        <ele>644.6</ele>
        <time>2021-08-24T08:40:06Z</time>
      </trkpt>
      <trkpt lat="45.44999" lon="5.80599">
        <ele>644.6</ele>
        <time>2021-08-24T08:40:07Z</time>
      </trkpt>
      <trkpt lat="45.44999" lon="5.80599">
        <ele>644.6</ele>
        <time>2021-08-24T08:40:08Z</time>
      </trkpt>
      <trkpt lat="45.44999" lon="5.80599">
        <ele>644.7</ele>
        <time>2021-08-24T08:40:10Z</time>
      </trkpt>
      <trkpt lat="45.44999" lon="5.806">
        <ele>644.7</ele>
        <time>2021-08-24T08:40:11Z</time>
      </trkpt>
      <trkpt lat="45.44999" lon="5.806">
        <ele>644.7</ele>
        <time>2021-08-24T08:40:12Z</time>
      </trkpt>
      <trkpt lat="45.44999" lon="5.806">
        <ele>644.8</ele>
        <time>2021-08-24T08:40:13Z</time>
      </trkpt>
      <trkpt lat="45.44992" lon="5.80609">
        <ele>645.8</ele>
        <time>2021-08-24T08:40:15Z</time>
      </trkpt>
      <trkpt lat="45.44986" lon="5.80624">
        <ele>647.5</ele>
        <time>2021-08-24T08:40:16Z</time>
      </trkpt>
      <trkpt lat="45.44984" lon="5.8063">
        <ele>648.2</ele>
        <time>2021-08-24T08:40:18Z</time>
      </trkpt>
      <trkpt lat="45.44984" lon="5.80635">
        <ele>648.8</ele>
        <time>2021-08-24T08:40:19Z</time>
      </trkpt>
      <trkpt lat="45.44984" lon="5.8064">
        <ele>649.2</ele>
        <time>2021-08-24T08:40:20Z</time>
      </trkpt>
      <trkpt lat="45.44985" lon="5.80641">
        <ele>649.3</ele>
        <time>2021-08-24T08:40:21Z</time>
      </trkpt>
      <trkpt lat="45.44985" lon="5.80642">
        <ele>649.4</ele>
        <time>2021-08-24T08:40:22Z</time>
      </trkpt>
      <trkpt lat="45.44985" lon="5.80642">
        <ele>649.5</ele>
        <time>2021-08-24T08:40:24Z</time>
      </trkpt>
      <trkpt lat="45.44984" lon="5.80642">
        <ele>649.5</ele>
        <time>2021-08-24T08:40:25Z</time>
      </trkpt>
      <trkpt lat="45.44983" lon="5.80642">
        <ele>649.7</ele>
        <time>2021-08-24T08:40:27Z</time>
      </trkpt>
      <trkpt lat="45.44982" lon="5.80642">
        <ele>649.8</ele>
        <time>2021-08-24T08:40:28Z</time>
      </trkpt>
      <trkpt lat="45.44982" lon="5.80641">
        <ele>649.8</ele>
        <time>2021-08-24T08:40:29Z</time>
      </trkpt>
      <trkpt lat="45.44981" lon="5.80641">
        <ele>650</ele>
        <time>2021-08-24T08:40:31Z</time>
      </trkpt>
      <trkpt lat="45.4498" lon="5.80641">
        <ele>650.1</ele>
        <time>2021-08-24T08:40:33Z</time>
      </trkpt>
      <trkpt lat="45.44979" lon="5.80641">
        <ele>650.1</ele>
        <time>2021-08-24T08:40:34Z</time>
      </trkpt>
      <trkpt lat="45.44978" lon="5.80641">
        <ele>650.2</ele>
        <time>2021-08-24T08:40:35Z</time>
      </trkpt>
      <trkpt lat="45.44977" lon="5.80641">
        <ele>650.3</ele>
        <time>2021-08-24T08:40:37Z</time>
      </trkpt>
      <trkpt lat="45.44976" lon="5.80641">
        <ele>650.4</ele>
        <time>2021-08-24T08:40:38Z</time>
      </trkpt>
      <trkpt lat="45.44975" lon="5.80642">
        <ele>650.4</ele>
        <time>2021-08-24T08:40:40Z</time>
      </trkpt>
      <trkpt lat="45.44974" lon="5.80642">
        <ele>650.5</ele>
        <time>2021-08-24T08:40:41Z</time>
      </trkpt>
      <trkpt lat="45.44973" lon="5.80642">
        <ele>650.6</ele>
        <time>2021-08-24T08:40:43Z</time>
      </trkpt>
      <trkpt lat="45.44972" lon="5.80642">
        <ele>650.6</ele>
        <time>2021-08-24T08:40:45Z</time>
      </trkpt>
      <trkpt lat="45.44972" lon="5.80642">
        <ele>650.6</ele>
        <time>2021-08-24T08:40:46Z</time>
      </trkpt>
      <trkpt lat="45.44971" lon="5.80642">
        <ele>650.6</ele>
        <time>2021-08-24T08:40:47Z</time>
      </trkpt>
      <trkpt lat="45.44972" lon="5.80642">
        <ele>650.6</ele>
        <time>2021-08-24T08:40:48Z</time>
      </trkpt>
      <trkpt lat="45.44972" lon="5.80641">
        <ele>650.7</ele>
        <time>2021-08-24T08:40:50Z</time>
      </trkpt>
      <trkpt lat="45.44973" lon="5.8064">
        <ele>650.7</ele>
        <time>2021-08-24T08:40:51Z</time>
      </trkpt>
      <trkpt lat="45.44976" lon="5.80639">
        <ele>650.8</ele>
        <time>2021-08-24T08:40:53Z</time>
      </trkpt>
      <trkpt lat="45.44977" lon="5.80638">
        <ele>650.8</ele>
        <time>2021-08-24T08:40:54Z</time>
      </trkpt>
      <trkpt lat="45.44982" lon="5.80636">
        <ele>650.8</ele>
        <time>2021-08-24T08:40:56Z</time>
      </trkpt>
      <trkpt lat="45.44985" lon="5.80636">
        <ele>650.8</ele>
        <time>2021-08-24T08:40:58Z</time>
      </trkpt>
      <trkpt lat="45.44986" lon="5.80636">
        <ele>650.8</ele>
        <time>2021-08-24T08:40:59Z</time>
      </trkpt>
      <trkpt lat="45.44988" lon="5.80636">
        <ele>650.8</ele>
        <time>2021-08-24T08:41:00Z</time>
      </trkpt>
      <trkpt lat="45.44991" lon="5.80637">
        <ele>650.8</ele>
        <time>2021-08-24T08:41:02Z</time>
      </trkpt>
      <trkpt lat="45.44993" lon="5.80637">
        <ele>650.8</ele>
        <time>2021-08-24T08:41:03Z</time>
      </trkpt>
      <trkpt lat="45.44997" lon="5.80638">
        <ele>650.8</ele>
        <time>2021-08-24T08:41:05Z</time>
      </trkpt>
      <trkpt lat="45.45" lon="5.80639">
        <ele>650.7</ele>
        <time>2021-08-24T08:41:07Z</time>
      </trkpt>
      <trkpt lat="45.45004" lon="5.80641">
        <ele>650.7</ele>
        <time>2021-08-24T08:41:08Z</time>
      </trkpt>
      <trkpt lat="45.45012" lon="5.80643">
        <ele>650.6</ele>
        <time>2021-08-24T08:41:10Z</time>
      </trkpt>
      <trkpt lat="45.45027" lon="5.80644">
        <ele>650.4</ele>
        <time>2021-08-24T08:41:11Z</time>
      </trkpt>
      <trkpt lat="45.45044" lon="5.80648">
        <ele>650.3</ele>
        <time>2021-08-24T08:41:13Z</time>
      </trkpt>
      <trkpt lat="45.45049" lon="5.80651">
        <ele>650.2</ele>
        <time>2021-08-24T08:41:14Z</time>
      </trkpt>
      <trkpt lat="45.45053" lon="5.80655">
        <ele>650.1</ele>
        <time>2021-08-24T08:41:16Z</time>
      </trkpt>
      <trkpt lat="45.45059" lon="5.80659">
        <ele>650</ele>
        <time>2021-08-24T08:41:17Z</time>
      </trkpt>
      <trkpt lat="45.45064" lon="5.80662">
        <ele>650</ele>
        <time>2021-08-24T08:41:18Z</time>
      </trkpt>
      <trkpt lat="45.45072" lon="5.80665">
        <ele>649.8</ele>
        <time>2021-08-24T08:41:20Z</time>
      </trkpt>
      <trkpt lat="45.45077" lon="5.80668">
        <ele>649.8</ele>
        <time>2021-08-24T08:41:21Z</time>
      </trkpt>
      <trkpt lat="45.45082" lon="5.80671">
        <ele>649.6</ele>
        <time>2021-08-24T08:41:22Z</time>
      </trkpt>
      <trkpt lat="45.45087" lon="5.80676">
        <ele>649.5</ele>
        <time>2021-08-24T08:41:23Z</time>
      </trkpt>
      <trkpt lat="45.45091" lon="5.8068">
        <ele>649.3</ele>
        <time>2021-08-24T08:41:24Z</time>
      </trkpt>
      <trkpt lat="45.45096" lon="5.80686">
        <ele>648.9</ele>
        <time>2021-08-24T08:41:26Z</time>
      </trkpt>
      <trkpt lat="45.451" lon="5.80689">
        <ele>648.7</ele>
        <time>2021-08-24T08:41:27Z</time>
      </trkpt>
      <trkpt lat="45.45103" lon="5.80691">
        <ele>648.4</ele>
        <time>2021-08-24T08:41:28Z</time>
      </trkpt>
      <trkpt lat="45.45107" lon="5.80693">
        <ele>648</ele>
        <time>2021-08-24T08:41:29Z</time>
      </trkpt>
      <trkpt lat="45.45109" lon="5.80695">
        <ele>647.8</ele>
        <time>2021-08-24T08:41:31Z</time>
      </trkpt>
      <trkpt lat="45.4511" lon="5.80696">
        <ele>647.7</ele>
        <time>2021-08-24T08:41:32Z</time>
      </trkpt>
      <trkpt lat="45.45111" lon="5.80697">
        <ele>647.6</ele>
        <time>2021-08-24T08:41:33Z</time>
      </trkpt>
      <trkpt lat="45.45111" lon="5.80698">
        <ele>647.5</ele>
        <time>2021-08-24T08:41:34Z</time>
      </trkpt>
      <trkpt lat="45.45112" lon="5.807">
        <ele>647.4</ele>
        <time>2021-08-24T08:41:35Z</time>
      </trkpt>
      <trkpt lat="45.45113" lon="5.80703">
        <ele>647.2</ele>
        <time>2021-08-24T08:41:36Z</time>
      </trkpt>
      <trkpt lat="45.45114" lon="5.80704">
        <ele>647.1</ele>
        <time>2021-08-24T08:41:37Z</time>
      </trkpt>
      <trkpt lat="45.45116" lon="5.80707">
        <ele>646.8</ele>
        <time>2021-08-24T08:41:39Z</time>
      </trkpt>
      <trkpt lat="45.45202" lon="5.80733">
        <ele>640.9</ele>
        <time>2021-08-24T08:41:52Z</time>
      </trkpt>
      <trkpt lat="45.45215" lon="5.80733">
        <ele>639.8</ele>
        <time>2021-08-24T08:41:53Z</time>
      </trkpt>
      <trkpt lat="45.45234" lon="5.8073">
        <ele>637.7</ele>
        <time>2021-08-24T08:41:55Z</time>
      </trkpt>
      <trkpt lat="45.45249" lon="5.80726">
        <ele>635.6</ele>
        <time>2021-08-24T08:41:57Z</time>
      </trkpt>
      <trkpt lat="45.45255" lon="5.80725">
        <ele>634.7</ele>
        <time>2021-08-24T08:41:58Z</time>
      </trkpt>
      <trkpt lat="45.45267" lon="5.80723">
        <ele>632.9</ele>
        <time>2021-08-24T08:42:00Z</time>
      </trkpt>
      <trkpt lat="45.4528" lon="5.80726">
        <ele>631</ele>
        <time>2021-08-24T08:42:02Z</time>
      </trkpt>
      <trkpt lat="45.45294" lon="5.8073">
        <ele>629.3</ele>
        <time>2021-08-24T08:42:04Z</time>
      </trkpt>
      <trkpt lat="45.45302" lon="5.80736">
        <ele>628.3</ele>
        <time>2021-08-24T08:42:05Z</time>
      </trkpt>
      <trkpt lat="45.45317" lon="5.80747">
        <ele>626.7</ele>
        <time>2021-08-24T08:42:07Z</time>
      </trkpt>
      <trkpt lat="45.45324" lon="5.80754">
        <ele>626</ele>
        <time>2021-08-24T08:42:08Z</time>
      </trkpt>
      <trkpt lat="45.45331" lon="5.80763">
        <ele>625.2</ele>
        <time>2021-08-24T08:42:09Z</time>
      </trkpt>
      <trkpt lat="45.45339" lon="5.80772">
        <ele>624.5</ele>
        <time>2021-08-24T08:42:10Z</time>
      </trkpt>
      <trkpt lat="45.45346" lon="5.80781">
        <ele>623.8</ele>
        <time>2021-08-24T08:42:11Z</time>
      </trkpt>
      <trkpt lat="45.45352" lon="5.80792">
        <ele>623.1</ele>
        <time>2021-08-24T08:42:12Z</time>
      </trkpt>
      <trkpt lat="45.45357" lon="5.80804">
        <ele>622.5</ele>
        <time>2021-08-24T08:42:13Z</time>
      </trkpt>
      <trkpt lat="45.45367" lon="5.80825">
        <ele>621.2</ele>
        <time>2021-08-24T08:42:15Z</time>
      </trkpt>
      <trkpt lat="45.4537" lon="5.80839">
        <ele>620.5</ele>
        <time>2021-08-24T08:42:16Z</time>
      </trkpt>
      <trkpt lat="45.45374" lon="5.80851">
        <ele>619.9</ele>
        <time>2021-08-24T08:42:17Z</time>
      </trkpt>
      <trkpt lat="45.45383" lon="5.8087">
        <ele>618.7</ele>
        <time>2021-08-24T08:42:19Z</time>
      </trkpt>
      <trkpt lat="45.45388" lon="5.8088">
        <ele>618.1</ele>
        <time>2021-08-24T08:42:20Z</time>
      </trkpt>
      <trkpt lat="45.45396" lon="5.80902">
        <ele>616.9</ele>
        <time>2021-08-24T08:42:22Z</time>
      </trkpt>
      <trkpt lat="45.45404" lon="5.80926">
        <ele>615.8</ele>
        <time>2021-08-24T08:42:24Z</time>
      </trkpt>
      <trkpt lat="45.45409" lon="5.80937">
        <ele>615.2</ele>
        <time>2021-08-24T08:42:25Z</time>
      </trkpt>
      <trkpt lat="45.45418" lon="5.80959">
        <ele>614.1</ele>
        <time>2021-08-24T08:42:27Z</time>
      </trkpt>
      <trkpt lat="45.45423" lon="5.8097">
        <ele>613.5</ele>
        <time>2021-08-24T08:42:28Z</time>
      </trkpt>
      <trkpt lat="45.45428" lon="5.80979">
        <ele>612.9</ele>
        <time>2021-08-24T08:42:29Z</time>
      </trkpt>
      <trkpt lat="45.45433" lon="5.80986">
        <ele>612.4</ele>
        <time>2021-08-24T08:42:30Z</time>
      </trkpt>
      <trkpt lat="45.45439" lon="5.80993">
        <ele>611.9</ele>
        <time>2021-08-24T08:42:31Z</time>
      </trkpt>
      <trkpt lat="45.45452" lon="5.81005">
        <ele>611</ele>
        <time>2021-08-24T08:42:33Z</time>
      </trkpt>
      <trkpt lat="45.45458" lon="5.81009">
        <ele>610.6</ele>
        <time>2021-08-24T08:42:34Z</time>
      </trkpt>
      <trkpt lat="45.45466" lon="5.81014">
        <ele>610.1</ele>
        <time>2021-08-24T08:42:35Z</time>
      </trkpt>
      <trkpt lat="45.4548" lon="5.81021">
        <ele>609.2</ele>
        <time>2021-08-24T08:42:37Z</time>
      </trkpt>
      <trkpt lat="45.45493" lon="5.8103">
        <ele>608.4</ele>
        <time>2021-08-24T08:42:39Z</time>
      </trkpt>
      <trkpt lat="45.45499" lon="5.81035">
        <ele>607.9</ele>
        <time>2021-08-24T08:42:40Z</time>
      </trkpt>
      <trkpt lat="45.45506" lon="5.81039">
        <ele>607.4</ele>
        <time>2021-08-24T08:42:41Z</time>
      </trkpt>
      <trkpt lat="45.45519" lon="5.81048">
        <ele>606.5</ele>
        <time>2021-08-24T08:42:43Z</time>
      </trkpt>
      <trkpt lat="45.45525" lon="5.81053">
        <ele>606.1</ele>
        <time>2021-08-24T08:42:44Z</time>
      </trkpt>
      <trkpt lat="45.45531" lon="5.8106">
        <ele>605.7</ele>
        <time>2021-08-24T08:42:45Z</time>
      </trkpt>
      <trkpt lat="45.45536" lon="5.81068">
        <ele>605.3</ele>
        <time>2021-08-24T08:42:46Z</time>
      </trkpt>
      <trkpt lat="45.45545" lon="5.81083">
        <ele>604.7</ele>
        <time>2021-08-24T08:42:48Z</time>
      </trkpt>
      <trkpt lat="45.45551" lon="5.81091">
        <ele>604.5</ele>
        <time>2021-08-24T08:42:49Z</time>
      </trkpt>
      <trkpt lat="45.4556" lon="5.81104">
        <ele>604.2</ele>
        <time>2021-08-24T08:42:51Z</time>
      </trkpt>
      <trkpt lat="45.45566" lon="5.81109">
        <ele>604.1</ele>
        <time>2021-08-24T08:42:52Z</time>
      </trkpt>
      <trkpt lat="45.4557" lon="5.81115">
        <ele>604</ele>
        <time>2021-08-24T08:42:53Z</time>
      </trkpt>
      <trkpt lat="45.45579" lon="5.81124">
        <ele>603.8</ele>
        <time>2021-08-24T08:42:55Z</time>
      </trkpt>
      <trkpt lat="45.45584" lon="5.81127">
        <ele>603.6</ele>
        <time>2021-08-24T08:42:56Z</time>
      </trkpt>
      <trkpt lat="45.45589" lon="5.81131">
        <ele>603.5</ele>
        <time>2021-08-24T08:42:57Z</time>
      </trkpt>
      <trkpt lat="45.45599" lon="5.81137">
        <ele>603.3</ele>
        <time>2021-08-24T08:42:59Z</time>
      </trkpt>
      <trkpt lat="45.45604" lon="5.8114">
        <ele>603.3</ele>
        <time>2021-08-24T08:43:00Z</time>
      </trkpt>
      <trkpt lat="45.45609" lon="5.81143">
        <ele>603.2</ele>
        <time>2021-08-24T08:43:01Z</time>
      </trkpt>
      <trkpt lat="45.45618" lon="5.81148">
        <ele>603.2</ele>
        <time>2021-08-24T08:43:03Z</time>
      </trkpt>
      <trkpt lat="45.45621" lon="5.81151">
        <ele>603.2</ele>
        <time>2021-08-24T08:43:04Z</time>
      </trkpt>
      <trkpt lat="45.45624" lon="5.81153">
        <ele>603.1</ele>
        <time>2021-08-24T08:43:05Z</time>
      </trkpt>
      <trkpt lat="45.45631" lon="5.81157">
        <ele>603.1</ele>
        <time>2021-08-24T08:43:07Z</time>
      </trkpt>
      <trkpt lat="45.45638" lon="5.81162">
        <ele>603</ele>
        <time>2021-08-24T08:43:09Z</time>
      </trkpt>
      <trkpt lat="45.45643" lon="5.81167">
        <ele>603</ele>
        <time>2021-08-24T08:43:10Z</time>
      </trkpt>
      <trkpt lat="45.45646" lon="5.81169">
        <ele>603</ele>
        <time>2021-08-24T08:43:12Z</time>
      </trkpt>
      <trkpt lat="45.4565" lon="5.8117">
        <ele>602.9</ele>
        <time>2021-08-24T08:43:14Z</time>
      </trkpt>
      <trkpt lat="45.45655" lon="5.81176">
        <ele>602.9</ele>
        <time>2021-08-24T08:43:15Z</time>
      </trkpt>
      <trkpt lat="45.45659" lon="5.8118">
        <ele>603</ele>
        <time>2021-08-24T08:43:16Z</time>
      </trkpt>
      <trkpt lat="45.45663" lon="5.81183">
        <ele>603</ele>
        <time>2021-08-24T08:43:17Z</time>
      </trkpt>
      <trkpt lat="45.45667" lon="5.81187">
        <ele>603</ele>
        <time>2021-08-24T08:43:18Z</time>
      </trkpt>
      <trkpt lat="45.4567" lon="5.8119">
        <ele>603.1</ele>
        <time>2021-08-24T08:43:19Z</time>
      </trkpt>
      <trkpt lat="45.45674" lon="5.81192">
        <ele>603.1</ele>
        <time>2021-08-24T08:43:20Z</time>
      </trkpt>
      <trkpt lat="45.45677" lon="5.81194">
        <ele>603.2</ele>
        <time>2021-08-24T08:43:22Z</time>
      </trkpt>
      <trkpt lat="45.4568" lon="5.81197">
        <ele>603.2</ele>
        <time>2021-08-24T08:43:23Z</time>
      </trkpt>
      <trkpt lat="45.45685" lon="5.81201">
        <ele>603.3</ele>
        <time>2021-08-24T08:43:24Z</time>
      </trkpt>
      <trkpt lat="45.45691" lon="5.81206">
        <ele>603.3</ele>
        <time>2021-08-24T08:43:26Z</time>
      </trkpt>
      <trkpt lat="45.45693" lon="5.81208">
        <ele>603.4</ele>
        <time>2021-08-24T08:43:27Z</time>
      </trkpt>
      <trkpt lat="45.45696" lon="5.81213">
        <ele>603.6</ele>
        <time>2021-08-24T08:43:29Z</time>
      </trkpt>
      <trkpt lat="45.45697" lon="5.81217">
        <ele>603.7</ele>
        <time>2021-08-24T08:43:30Z</time>
      </trkpt>
      <trkpt lat="45.45694" lon="5.81222">
        <ele>603.9</ele>
        <time>2021-08-24T08:43:32Z</time>
      </trkpt>
      <trkpt lat="45.45692" lon="5.81225">
        <ele>604</ele>
        <time>2021-08-24T08:43:33Z</time>
      </trkpt>
      <trkpt lat="45.4569" lon="5.81229">
        <ele>604.2</ele>
        <time>2021-08-24T08:43:34Z</time>
      </trkpt>
      <trkpt lat="45.45689" lon="5.81233">
        <ele>604.3</ele>
        <time>2021-08-24T08:43:35Z</time>
      </trkpt>
      <trkpt lat="45.45688" lon="5.81237">
        <ele>604.4</ele>
        <time>2021-08-24T08:43:36Z</time>
      </trkpt>
      <trkpt lat="45.45688" lon="5.8124">
        <ele>604.5</ele>
        <time>2021-08-24T08:43:37Z</time>
      </trkpt>
      <trkpt lat="45.45686" lon="5.81247">
        <ele>604.7</ele>
        <time>2021-08-24T08:43:38Z</time>
      </trkpt>
      <trkpt lat="45.45685" lon="5.8125">
        <ele>604.8</ele>
        <time>2021-08-24T08:43:39Z</time>
      </trkpt>
      <trkpt lat="45.45684" lon="5.81256">
        <ele>605</ele>
        <time>2021-08-24T08:43:41Z</time>
      </trkpt>
      <trkpt lat="45.45683" lon="5.8126">
        <ele>605.1</ele>
        <time>2021-08-24T08:43:42Z</time>
      </trkpt>
      <trkpt lat="45.45681" lon="5.81265">
        <ele>605.3</ele>
        <time>2021-08-24T08:43:43Z</time>
      </trkpt>
      <trkpt lat="45.45679" lon="5.81269">
        <ele>605.5</ele>
        <time>2021-08-24T08:43:44Z</time>
      </trkpt>
      <trkpt lat="45.45676" lon="5.81277">
        <ele>605.8</ele>
        <time>2021-08-24T08:43:46Z</time>
      </trkpt>
      <trkpt lat="45.45675" lon="5.81284">
        <ele>606</ele>
        <time>2021-08-24T08:43:47Z</time>
      </trkpt>
      <trkpt lat="45.45674" lon="5.8129">
        <ele>606.3</ele>
        <time>2021-08-24T08:43:49Z</time>
      </trkpt>
      <trkpt lat="45.45674" lon="5.81295">
        <ele>606.4</ele>
        <time>2021-08-24T08:43:50Z</time>
      </trkpt>
      <trkpt lat="45.45674" lon="5.81298">
        <ele>606.5</ele>
        <time>2021-08-24T08:43:52Z</time>
      </trkpt>
      <trkpt lat="45.45674" lon="5.813">
        <ele>606.6</ele>
        <time>2021-08-24T08:43:53Z</time>
      </trkpt>
      <trkpt lat="45.45674" lon="5.81302">
        <ele>606.7</ele>
        <time>2021-08-24T08:43:54Z</time>
      </trkpt>
      <trkpt lat="45.45674" lon="5.81304">
        <ele>606.8</ele>
        <time>2021-08-24T08:43:55Z</time>
      </trkpt>
      <trkpt lat="45.45673" lon="5.81307">
        <ele>606.9</ele>
        <time>2021-08-24T08:43:56Z</time>
      </trkpt>
      <trkpt lat="45.45673" lon="5.81309">
        <ele>607</ele>
        <time>2021-08-24T08:43:57Z</time>
      </trkpt>
      <trkpt lat="45.45673" lon="5.81312">
        <ele>607.1</ele>
        <time>2021-08-24T08:43:58Z</time>
      </trkpt>
      <trkpt lat="45.45673" lon="5.81314">
        <ele>607.2</ele>
        <time>2021-08-24T08:43:59Z</time>
      </trkpt>
      <trkpt lat="45.45674" lon="5.81315">
        <ele>607.2</ele>
        <time>2021-08-24T08:44:00Z</time>
      </trkpt>
      <trkpt lat="45.45674" lon="5.8132">
        <ele>607.4</ele>
        <time>2021-08-24T08:44:02Z</time>
      </trkpt>
      <trkpt lat="45.45674" lon="5.81322">
        <ele>607.5</ele>
        <time>2021-08-24T08:44:03Z</time>
      </trkpt>
      <trkpt lat="45.45674" lon="5.81326">
        <ele>607.6</ele>
        <time>2021-08-24T08:44:04Z</time>
      </trkpt>
      <trkpt lat="45.45674" lon="5.81327">
        <ele>607.7</ele>
        <time>2021-08-24T08:44:05Z</time>
      </trkpt>
      <trkpt lat="45.45674" lon="5.81332">
        <ele>607.9</ele>
        <time>2021-08-24T08:44:06Z</time>
      </trkpt>
      <trkpt lat="45.45674" lon="5.81337">
        <ele>608.2</ele>
        <time>2021-08-24T08:44:07Z</time>
      </trkpt>
      <trkpt lat="45.45674" lon="5.8134">
        <ele>608.4</ele>
        <time>2021-08-24T08:44:08Z</time>
      </trkpt>
      <trkpt lat="45.45674" lon="5.81347">
        <ele>608.7</ele>
        <time>2021-08-24T08:44:10Z</time>
      </trkpt>
      <trkpt lat="45.45675" lon="5.8135">
        <ele>608.9</ele>
        <time>2021-08-24T08:44:11Z</time>
      </trkpt>
      <trkpt lat="45.45677" lon="5.81355">
        <ele>609.2</ele>
        <time>2021-08-24T08:44:12Z</time>
      </trkpt>
      <trkpt lat="45.45677" lon="5.81357">
        <ele>609.3</ele>
        <time>2021-08-24T08:44:13Z</time>
      </trkpt>
      <trkpt lat="45.45679" lon="5.81362">
        <ele>609.6</ele>
        <time>2021-08-24T08:44:15Z</time>
      </trkpt>
      <trkpt lat="45.4568" lon="5.81367">
        <ele>609.9</ele>
        <time>2021-08-24T08:44:17Z</time>
      </trkpt>
      <trkpt lat="45.45682" lon="5.81372">
        <ele>610.2</ele>
        <time>2021-08-24T08:44:18Z</time>
      </trkpt>
      <trkpt lat="45.45684" lon="5.81376">
        <ele>610.5</ele>
        <time>2021-08-24T08:44:20Z</time>
      </trkpt>
      <trkpt lat="45.45685" lon="5.81381">
        <ele>610.8</ele>
        <time>2021-08-24T08:44:21Z</time>
      </trkpt>
      <trkpt lat="45.45686" lon="5.81387">
        <ele>611.2</ele>
        <time>2021-08-24T08:44:23Z</time>
      </trkpt>
      <trkpt lat="45.45685" lon="5.81391">
        <ele>611.4</ele>
        <time>2021-08-24T08:44:24Z</time>
      </trkpt>
      <trkpt lat="45.45683" lon="5.81394">
        <ele>611.6</ele>
        <time>2021-08-24T08:44:26Z</time>
      </trkpt>
      <trkpt lat="45.45682" lon="5.81399">
        <ele>611.9</ele>
        <time>2021-08-24T08:44:27Z</time>
      </trkpt>
      <trkpt lat="45.45681" lon="5.81401">
        <ele>612</ele>
        <time>2021-08-24T08:44:28Z</time>
      </trkpt>
      <trkpt lat="45.4568" lon="5.81404">
        <ele>612.3</ele>
        <time>2021-08-24T08:44:29Z</time>
      </trkpt>
      <trkpt lat="45.45679" lon="5.81409">
        <ele>612.6</ele>
        <time>2021-08-24T08:44:30Z</time>
      </trkpt>
      <trkpt lat="45.45679" lon="5.8141">
        <ele>612.7</ele>
        <time>2021-08-24T08:44:31Z</time>
      </trkpt>
      <trkpt lat="45.45679" lon="5.81416">
        <ele>613</ele>
        <time>2021-08-24T08:44:33Z</time>
      </trkpt>
      <trkpt lat="45.45679" lon="5.81418">
        <ele>613.1</ele>
        <time>2021-08-24T08:44:34Z</time>
      </trkpt>
      <trkpt lat="45.45678" lon="5.8142">
        <ele>613.2</ele>
        <time>2021-08-24T08:44:35Z</time>
      </trkpt>
      <trkpt lat="45.45679" lon="5.81425">
        <ele>613.5</ele>
        <time>2021-08-24T08:44:36Z</time>
      </trkpt>
      <trkpt lat="45.45679" lon="5.81426">
        <ele>613.6</ele>
        <time>2021-08-24T08:44:37Z</time>
      </trkpt>
      <trkpt lat="45.45678" lon="5.81429">
        <ele>613.7</ele>
        <time>2021-08-24T08:44:38Z</time>
      </trkpt>
      <trkpt lat="45.45677" lon="5.81432">
        <ele>614</ele>
        <time>2021-08-24T08:44:40Z</time>
      </trkpt>
      <trkpt lat="45.45676" lon="5.81436">
        <ele>614.3</ele>
        <time>2021-08-24T08:44:41Z</time>
      </trkpt>
      <trkpt lat="45.45676" lon="5.81438">
        <ele>614.4</ele>
        <time>2021-08-24T08:44:42Z</time>
      </trkpt>
      <trkpt lat="45.45674" lon="5.8144">
        <ele>614.6</ele>
        <time>2021-08-24T08:44:43Z</time>
      </trkpt>
      <trkpt lat="45.45672" lon="5.81443">
        <ele>614.9</ele>
        <time>2021-08-24T08:44:45Z</time>
      </trkpt>
      <trkpt lat="45.45671" lon="5.81447">
        <ele>615.2</ele>
        <time>2021-08-24T08:44:46Z</time>
      </trkpt>
      <trkpt lat="45.4567" lon="5.81448">
        <ele>615.3</ele>
        <time>2021-08-24T08:44:47Z</time>
      </trkpt>
      <trkpt lat="45.45669" lon="5.81449">
        <ele>615.4</ele>
        <time>2021-08-24T08:44:48Z</time>
      </trkpt>
      <trkpt lat="45.45667" lon="5.81452">
        <ele>615.7</ele>
        <time>2021-08-24T08:44:50Z</time>
      </trkpt>
      <trkpt lat="45.45666" lon="5.81454">
        <ele>615.9</ele>
        <time>2021-08-24T08:44:51Z</time>
      </trkpt>
      <trkpt lat="45.45664" lon="5.81457">
        <ele>616.4</ele>
        <time>2021-08-24T08:44:53Z</time>
      </trkpt>
      <trkpt lat="45.4566" lon="5.81461">
        <ele>617</ele>
        <time>2021-08-24T08:44:55Z</time>
      </trkpt>
      <trkpt lat="45.45658" lon="5.81461">
        <ele>617.2</ele>
        <time>2021-08-24T08:44:56Z</time>
      </trkpt>
      <trkpt lat="45.45657" lon="5.81462">
        <ele>617.3</ele>
        <time>2021-08-24T08:44:57Z</time>
      </trkpt>
      <trkpt lat="45.45657" lon="5.81463">
        <ele>617.5</ele>
        <time>2021-08-24T08:44:59Z</time>
      </trkpt>
      <trkpt lat="45.45658" lon="5.81464">
        <ele>617.7</ele>
        <time>2021-08-24T08:45:01Z</time>
      </trkpt>
      <trkpt lat="45.45658" lon="5.81465">
        <ele>617.8</ele>
        <time>2021-08-24T08:45:02Z</time>
      </trkpt>
      <trkpt lat="45.45658" lon="5.81466">
        <ele>617.9</ele>
        <time>2021-08-24T08:45:03Z</time>
      </trkpt>
      <trkpt lat="45.45658" lon="5.81468">
        <ele>618.1</ele>
        <time>2021-08-24T08:45:04Z</time>
      </trkpt>
      <trkpt lat="45.45657" lon="5.81469">
        <ele>618.2</ele>
        <time>2021-08-24T08:45:05Z</time>
      </trkpt>
      <trkpt lat="45.45657" lon="5.8147">
        <ele>618.4</ele>
        <time>2021-08-24T08:45:06Z</time>
      </trkpt>
      <trkpt lat="45.45656" lon="5.81471">
        <ele>618.4</ele>
        <time>2021-08-24T08:45:07Z</time>
      </trkpt>
      <trkpt lat="45.45697" lon="5.81645">
        <ele>657.7</ele>
        <time>2021-08-24T08:54:05Z</time>
      </trkpt>
      <trkpt lat="45.45704" lon="5.81645">
        <ele>659.1</ele>
        <time>2021-08-24T08:54:06Z</time>
      </trkpt>
      <trkpt lat="45.45708" lon="5.81646">
        <ele>660.2</ele>
        <time>2021-08-24T08:54:08Z</time>
      </trkpt>
      <trkpt lat="45.4571" lon="5.81647">
        <ele>660.6</ele>
        <time>2021-08-24T08:54:09Z</time>
      </trkpt>
      <trkpt lat="45.45711" lon="5.81648">
        <ele>660.9</ele>
        <time>2021-08-24T08:54:10Z</time>
      </trkpt>
      <trkpt lat="45.45711" lon="5.81648">
        <ele>661</ele>
        <time>2021-08-24T08:54:12Z</time>
      </trkpt>
      <trkpt lat="45.45711" lon="5.81649">
        <ele>661.1</ele>
        <time>2021-08-24T08:54:13Z</time>
      </trkpt>
      <trkpt lat="45.45711" lon="5.81649">
        <ele>661.1</ele>
        <time>2021-08-24T08:54:14Z</time>
      </trkpt>
      <trkpt lat="45.45711" lon="5.81649">
        <ele>661.2</ele>
        <time>2021-08-24T08:54:16Z</time>
      </trkpt>
      <trkpt lat="45.45711" lon="5.81649">
        <ele>661.2</ele>
        <time>2021-08-24T08:54:18Z</time>
      </trkpt>
      <trkpt lat="45.45718" lon="5.81651">
        <ele>662.8</ele>
        <time>2021-08-24T08:54:54Z</time>
      </trkpt>
      <trkpt lat="45.45715" lon="5.81651">
        <ele>663.6</ele>
        <time>2021-08-24T08:54:55Z</time>
      </trkpt>
      <trkpt lat="45.4571" lon="5.81651">
        <ele>664.8</ele>
        <time>2021-08-24T08:54:56Z</time>
      </trkpt>
      <trkpt lat="45.45709" lon="5.81652">
        <ele>665</ele>
        <time>2021-08-24T08:54:57Z</time>
      </trkpt>
      <trkpt lat="45.45709" lon="5.81652">
        <ele>665.1</ele>
        <time>2021-08-24T08:54:58Z</time>
      </trkpt>
      <trkpt lat="45.45709" lon="5.81652">
        <ele>665.2</ele>
        <time>2021-08-24T08:55:00Z</time>
      </trkpt>
      <trkpt lat="45.45709" lon="5.81653">
        <ele>665.3</ele>
        <time>2021-08-24T08:55:01Z</time>
      </trkpt>
      <trkpt lat="45.45709" lon="5.81653">
        <ele>665.3</ele>
        <time>2021-08-24T08:55:02Z</time>
      </trkpt>
      <trkpt lat="45.4571" lon="5.81653">
        <ele>665.4</ele>
        <time>2021-08-24T08:55:04Z</time>
      </trkpt>
      <trkpt lat="45.4571" lon="5.81653">
        <ele>665.6</ele>
        <time>2021-08-24T08:55:05Z</time>
      </trkpt>
      <trkpt lat="45.45787" lon="5.81743">
        <ele>688.2</ele>
        <time>2021-08-24T08:57:52Z</time>
      </trkpt>
      <trkpt lat="45.45796" lon="5.81742">
        <ele>689.8</ele>
        <time>2021-08-24T08:57:54Z</time>
      </trkpt>
      <trkpt lat="45.45799" lon="5.81741">
        <ele>690.4</ele>
        <time>2021-08-24T08:57:56Z</time>
      </trkpt>
      <trkpt lat="45.45799" lon="5.8174">
        <ele>690.5</ele>
        <time>2021-08-24T08:57:57Z</time>
      </trkpt>
      <trkpt lat="45.458" lon="5.8174">
        <ele>690.6</ele>
        <time>2021-08-24T08:57:58Z</time>
      </trkpt>
      <trkpt lat="45.45798" lon="5.81743">
        <ele>691.1</ele>
        <time>2021-08-24T08:58:00Z</time>
      </trkpt>
      <trkpt lat="45.45797" lon="5.81744">
        <ele>691.3</ele>
        <time>2021-08-24T08:58:01Z</time>
      </trkpt>
      <trkpt lat="45.45799" lon="5.81749">
        <ele>692.3</ele>
        <time>2021-08-24T08:58:02Z</time>
      </trkpt>
      <trkpt lat="45.45801" lon="5.81753">
        <ele>693.2</ele>
        <time>2021-08-24T08:58:03Z</time>
      </trkpt>
      <trkpt lat="45.45804" lon="5.81757">
        <ele>694.2</ele>
        <time>2021-08-24T08:58:05Z</time>
      </trkpt>
      <trkpt lat="45.45806" lon="5.81762">
        <ele>695.2</ele>
        <time>2021-08-24T08:58:06Z</time>
      </trkpt>
      <trkpt lat="45.45808" lon="5.81766">
        <ele>696.3</ele>
        <time>2021-08-24T08:58:08Z</time>
      </trkpt>
      <trkpt lat="45.4581" lon="5.8177">
        <ele>697.3</ele>
        <time>2021-08-24T08:58:52Z</time>
      </trkpt>
      <trkpt lat="45.45812" lon="5.81774">
        <ele>698.3</ele>
        <time>2021-08-24T08:58:53Z</time>
      </trkpt>
      <trkpt lat="45.45817" lon="5.81774">
        <ele>699.6</ele>
        <time>2021-08-24T08:58:55Z</time>
      </trkpt>
      <trkpt lat="45.4582" lon="5.81774">
        <ele>700.5</ele>
        <time>2021-08-24T08:58:56Z</time>
      </trkpt>
      <trkpt lat="45.45822" lon="5.81773">
        <ele>701</ele>
        <time>2021-08-24T08:58:57Z</time>
      </trkpt>
      <trkpt lat="45.45824" lon="5.81773">
        <ele>701.5</ele>
        <time>2021-08-24T08:58:58Z</time>
      </trkpt>
      <trkpt lat="45.45825" lon="5.81774">
        <ele>701.8</ele>
        <time>2021-08-24T08:59:00Z</time>
      </trkpt>
      <trkpt lat="45.45825" lon="5.81775">
        <ele>702.2</ele>
        <time>2021-08-24T08:59:02Z</time>
      </trkpt>
      <trkpt lat="45.45824" lon="5.81776">
        <ele>702.4</ele>
        <time>2021-08-24T08:59:03Z</time>
      </trkpt>
      <trkpt lat="45.45824" lon="5.81777">
        <ele>702.7</ele>
        <time>2021-08-24T08:59:05Z</time>
      </trkpt>
      <trkpt lat="45.45824" lon="5.81778">
        <ele>702.9</ele>
        <time>2021-08-24T08:59:06Z</time>
      </trkpt>
      <trkpt lat="45.45824" lon="5.81779">
        <ele>703</ele>
        <time>2021-08-24T08:59:07Z</time>
      </trkpt>
      <trkpt lat="45.45823" lon="5.8178">
        <ele>703.4</ele>
        <time>2021-08-24T08:59:08Z</time>
      </trkpt>
      <trkpt lat="45.45821" lon="5.81783">
        <ele>704.2</ele>
        <time>2021-08-24T08:59:10Z</time>
      </trkpt>
      <trkpt lat="45.45821" lon="5.81784">
        <ele>704.6</ele>
        <time>2021-08-24T08:59:11Z</time>
      </trkpt>
      <trkpt lat="45.4582" lon="5.81785">
        <ele>704.8</ele>
        <time>2021-08-24T08:59:12Z</time>
      </trkpt>
      <trkpt lat="45.45819" lon="5.81786">
        <ele>705.3</ele>
        <time>2021-08-24T08:59:14Z</time>
      </trkpt>
      <trkpt lat="45.45917" lon="5.81924">
        <ele>706.5</ele>
        <time>2021-08-24T09:01:31Z</time>
      </trkpt>
      <trkpt lat="45.45921" lon="5.81926">
        <ele>706.5</ele>
        <time>2021-08-24T09:01:32Z</time>
      </trkpt>
      <trkpt lat="45.45922" lon="5.81926">
        <ele>706.5</ele>
        <time>2021-08-24T09:01:33Z</time>
      </trkpt>
      <trkpt lat="45.45932" lon="5.81931">
        <ele>706.7</ele>
        <time>2021-08-24T09:01:35Z</time>
      </trkpt>
      <trkpt lat="45.45936" lon="5.81932">
        <ele>706.7</ele>
        <time>2021-08-24T09:01:37Z</time>
      </trkpt>
      <trkpt lat="45.45938" lon="5.81932">
        <ele>706.8</ele>
        <time>2021-08-24T09:01:38Z</time>
      </trkpt>
      <trkpt lat="45.45942" lon="5.81933">
        <ele>706.9</ele>
        <time>2021-08-24T09:01:40Z</time>
      </trkpt>
      <trkpt lat="45.45945" lon="5.81933">
        <ele>707</ele>
        <time>2021-08-24T09:01:41Z</time>
      </trkpt>
      <trkpt lat="45.45949" lon="5.81935">
        <ele>707.1</ele>
        <time>2021-08-24T09:01:43Z</time>
      </trkpt>
      <trkpt lat="45.45953" lon="5.81936">
        <ele>707.2</ele>
        <time>2021-08-24T09:01:44Z</time>
      </trkpt>
      <trkpt lat="45.45954" lon="5.81937">
        <ele>707.3</ele>
        <time>2021-08-24T09:01:45Z</time>
      </trkpt>
      <trkpt lat="45.45959" lon="5.81938">
        <ele>707.4</ele>
        <time>2021-08-24T09:01:47Z</time>
      </trkpt>
      <trkpt lat="45.45963" lon="5.81938">
        <ele>707.6</ele>
        <time>2021-08-24T09:01:49Z</time>
      </trkpt>
      <trkpt lat="45.45966" lon="5.81938">
        <ele>707.7</ele>
        <time>2021-08-24T09:01:50Z</time>
      </trkpt>
      <trkpt lat="45.45966" lon="5.81938">
        <ele>707.7</ele>
        <time>2021-08-24T09:01:50Z</time>
      </trkpt>
      <trkpt lat="45.45969" lon="5.81939">
        <ele>707.8</ele>
        <time>2021-08-24T09:01:51Z</time>
      </trkpt>
      <trkpt lat="45.4597" lon="5.81939">
        <ele>707.9</ele>
        <time>2021-08-24T09:01:52Z</time>
      </trkpt>
      <trkpt lat="45.45971" lon="5.8194">
        <ele>707.9</ele>
        <time>2021-08-24T09:01:53Z</time>
      </trkpt>
      <trkpt lat="45.45971" lon="5.81943">
        <ele>708</ele>
        <time>2021-08-24T09:01:55Z</time>
      </trkpt>
      <trkpt lat="45.45972" lon="5.81946">
        <ele>708.1</ele>
        <time>2021-08-24T09:01:57Z</time>
      </trkpt>
      <trkpt lat="45.45972" lon="5.81948">
        <ele>708.2</ele>
        <time>2021-08-24T09:01:58Z</time>
      </trkpt>
      <trkpt lat="45.45973" lon="5.8195">
        <ele>708.3</ele>
        <time>2021-08-24T09:02:00Z</time>
      </trkpt>
      <trkpt lat="45.45974" lon="5.81952">
        <ele>708.4</ele>
        <time>2021-08-24T09:02:01Z</time>
      </trkpt>
      <trkpt lat="45.46041" lon="5.81941">
        <ele>712.7</ele>
        <time>2021-08-24T09:02:35Z</time>
      </trkpt>
      <trkpt lat="45.46038" lon="5.81947">
        <ele>713.1</ele>
        <time>2021-08-24T09:02:36Z</time>
      </trkpt>
      <trkpt lat="45.46036" lon="5.81953">
        <ele>713.4</ele>
        <time>2021-08-24T09:02:38Z</time>
      </trkpt>
      <trkpt lat="45.4603" lon="5.81968">
        <ele>714.4</ele>
        <time>2021-08-24T09:02:40Z</time>
      </trkpt>
      <trkpt lat="45.46026" lon="5.81977">
        <ele>715</ele>
        <time>2021-08-24T09:02:41Z</time>
      </trkpt>
      <trkpt lat="45.46021" lon="5.81987">
        <ele>715.7</ele>
        <time>2021-08-24T09:02:43Z</time>
      </trkpt>
      <trkpt lat="45.46021" lon="5.81992">
        <ele>716</ele>
        <time>2021-08-24T09:02:44Z</time>
      </trkpt>
      <trkpt lat="45.46022" lon="5.81996">
        <ele>716.2</ele>
        <time>2021-08-24T09:02:46Z</time>
      </trkpt>
      <trkpt lat="45.46022" lon="5.81998">
        <ele>716.3</ele>
        <time>2021-08-24T09:02:47Z</time>
      </trkpt>
      <trkpt lat="45.46019" lon="5.82006">
        <ele>716.8</ele>
        <time>2021-08-24T09:02:49Z</time>
      </trkpt>
      <trkpt lat="45.46018" lon="5.82011">
        <ele>717</ele>
        <time>2021-08-24T09:02:50Z</time>
      </trkpt>
      <trkpt lat="45.46017" lon="5.82013">
        <ele>717.2</ele>
        <time>2021-08-24T09:02:52Z</time>
      </trkpt>
      <trkpt lat="45.46017" lon="5.82015">
        <ele>717.3</ele>
        <time>2021-08-24T09:02:53Z</time>
      </trkpt>
      <trkpt lat="45.46017" lon="5.82017">
        <ele>717.4</ele>
        <time>2021-08-24T09:02:55Z</time>
      </trkpt>
      <trkpt lat="45.46017" lon="5.8202">
        <ele>717.5</ele>
        <time>2021-08-24T09:02:56Z</time>
      </trkpt>
      <trkpt lat="45.46018" lon="5.82022">
        <ele>717.7</ele>
        <time>2021-08-24T09:02:58Z</time>
      </trkpt>
      <trkpt lat="45.46018" lon="5.82024">
        <ele>717.7</ele>
        <time>2021-08-24T09:02:59Z</time>
      </trkpt>
      <trkpt lat="45.46061" lon="5.82053">
        <ele>721.3</ele>
        <time>2021-08-24T09:03:37Z</time>
      </trkpt>
      <trkpt lat="45.46064" lon="5.82055">
        <ele>721.6</ele>
        <time>2021-08-24T09:03:38Z</time>
      </trkpt>
      <trkpt lat="45.46066" lon="5.82056">
        <ele>721.7</ele>
        <time>2021-08-24T09:03:39Z</time>
      </trkpt>
      <trkpt lat="45.46067" lon="5.82056">
        <ele>721.8</ele>
        <time>2021-08-24T09:03:40Z</time>
      </trkpt>
      <trkpt lat="45.46073" lon="5.82061">
        <ele>722.3</ele>
        <time>2021-08-24T09:03:42Z</time>
      </trkpt>
      <trkpt lat="45.46074" lon="5.82062">
        <ele>722.4</ele>
        <time>2021-08-24T09:03:43Z</time>
      </trkpt>
      <trkpt lat="45.46075" lon="5.82063">
        <ele>722.5</ele>
        <time>2021-08-24T09:03:44Z</time>
      </trkpt>
      <trkpt lat="45.46076" lon="5.82063">
        <ele>722.5</ele>
        <time>2021-08-24T09:03:45Z</time>
      </trkpt>
      <trkpt lat="45.46077" lon="5.82064">
        <ele>722.6</ele>
        <time>2021-08-24T09:03:47Z</time>
      </trkpt>
      <trkpt lat="45.46078" lon="5.82064">
        <ele>722.7</ele>
        <time>2021-08-24T09:03:48Z</time>
      </trkpt>
      <trkpt lat="45.46089" lon="5.82064">
        <ele>723.5</ele>
        <time>2021-08-24T09:03:57Z</time>
      </trkpt>
      <trkpt lat="45.46092" lon="5.82063">
        <ele>723.8</ele>
        <time>2021-08-24T09:03:59Z</time>
      </trkpt>
      <trkpt lat="45.46096" lon="5.82063">
        <ele>724.1</ele>
        <time>2021-08-24T09:04:01Z</time>
      </trkpt>
      <trkpt lat="45.46096" lon="5.82064">
        <ele>724.1</ele>
        <time>2021-08-24T09:04:02Z</time>
      </trkpt>
      <trkpt lat="45.46096" lon="5.82066">
        <ele>724.2</ele>
        <time>2021-08-24T09:04:04Z</time>
      </trkpt>
      <trkpt lat="45.46096" lon="5.82067">
        <ele>724.3</ele>
        <time>2021-08-24T09:04:05Z</time>
      </trkpt>
      <trkpt lat="45.46096" lon="5.82072">
        <ele>724.6</ele>
        <time>2021-08-24T09:04:07Z</time>
      </trkpt>
      <trkpt lat="45.46096" lon="5.82073">
        <ele>724.6</ele>
        <time>2021-08-24T09:04:08Z</time>
      </trkpt>
      <trkpt lat="45.46113" lon="5.82079">
        <ele>726</ele>
        <time>2021-08-24T09:04:10Z</time>
      </trkpt>
      <trkpt lat="45.4613" lon="5.82083">
        <ele>727.3</ele>
        <time>2021-08-24T09:05:00Z</time>
      </trkpt>
      <trkpt lat="45.46146" lon="5.82088">
        <ele>728.5</ele>
        <time>2021-08-24T09:05:01Z</time>
      </trkpt>
      <trkpt lat="45.46163" lon="5.82092">
        <ele>729.7</ele>
        <time>2021-08-24T09:05:02Z</time>
      </trkpt>
      <trkpt lat="45.46165" lon="5.82093">
        <ele>729.9</ele>
        <time>2021-08-24T09:05:04Z</time>
      </trkpt>
      <trkpt lat="45.46165" lon="5.82093">
        <ele>729.9</ele>
        <time>2021-08-24T09:05:05Z</time>
      </trkpt>
      <trkpt lat="45.46165" lon="5.82094">
        <ele>729.9</ele>
        <time>2021-08-24T09:05:07Z</time>
      </trkpt>
      <trkpt lat="45.46165" lon="5.82094">
        <ele>729.9</ele>
        <time>2021-08-24T09:05:08Z</time>
      </trkpt>
      <trkpt lat="45.46166" lon="5.82094">
        <ele>730</ele>
        <time>2021-08-24T09:05:09Z</time>
      </trkpt>
      <trkpt lat="45.46167" lon="5.82094">
        <ele>730</ele>
        <time>2021-08-24T09:05:10Z</time>
      </trkpt>
      <trkpt lat="45.46168" lon="5.82095">
        <ele>730.1</ele>
        <time>2021-08-24T09:05:12Z</time>
      </trkpt>
      <trkpt lat="45.46172" lon="5.82096">
        <ele>730.4</ele>
        <time>2021-08-24T09:05:14Z</time>
      </trkpt>
      <trkpt lat="45.46173" lon="5.82096">
        <ele>730.5</ele>
        <time>2021-08-24T09:05:15Z</time>
      </trkpt>
      <trkpt lat="45.46174" lon="5.82096">
        <ele>730.6</ele>
        <time>2021-08-24T09:05:16Z</time>
      </trkpt>
      <trkpt lat="45.46176" lon="5.82097">
        <ele>730.7</ele>
        <time>2021-08-24T09:05:18Z</time>
      </trkpt>
      <trkpt lat="45.46178" lon="5.82098">
        <ele>730.8</ele>
        <time>2021-08-24T09:05:19Z</time>
      </trkpt>
      <trkpt lat="45.46178" lon="5.82098">
        <ele>730.9</ele>
        <time>2021-08-24T09:05:20Z</time>
      </trkpt>
      <trkpt lat="45.4618" lon="5.821">
        <ele>731</ele>
        <time>2021-08-24T09:05:22Z</time>
      </trkpt>
      <trkpt lat="45.4618" lon="5.82101">
        <ele>731.1</ele>
        <time>2021-08-24T09:05:23Z</time>
      </trkpt>
      <trkpt lat="45.46183" lon="5.82107">
        <ele>731.4</ele>
        <time>2021-08-24T09:05:26Z</time>
      </trkpt>
      <trkpt lat="45.46185" lon="5.8211">
        <ele>731.6</ele>
        <time>2021-08-24T09:05:27Z</time>
      </trkpt>
      <trkpt lat="45.46186" lon="5.82111">
        <ele>731.7</ele>
        <time>2021-08-24T09:05:28Z</time>
      </trkpt>
      <trkpt lat="45.46187" lon="5.82115">
        <ele>732</ele>
        <time>2021-08-24T09:05:29Z</time>
      </trkpt>
      <trkpt lat="45.46188" lon="5.82117">
        <ele>732.1</ele>
        <time>2021-08-24T09:05:30Z</time>
      </trkpt>
      <trkpt lat="45.46191" lon="5.82124">
        <ele>732.5</ele>
        <time>2021-08-24T09:05:32Z</time>
      </trkpt>
      <trkpt lat="45.46195" lon="5.82131">
        <ele>732.9</ele>
        <time>2021-08-24T09:05:34Z</time>
      </trkpt>
      <trkpt lat="45.46197" lon="5.82135">
        <ele>733.2</ele>
        <time>2021-08-24T09:05:36Z</time>
      </trkpt>
      <trkpt lat="45.46199" lon="5.82137">
        <ele>733.4</ele>
        <time>2021-08-24T09:05:37Z</time>
      </trkpt>
      <trkpt lat="45.46202" lon="5.82138">
        <ele>733.6</ele>
        <time>2021-08-24T09:05:38Z</time>
      </trkpt>
      <trkpt lat="45.46206" lon="5.82141">
        <ele>733.9</ele>
        <time>2021-08-24T09:05:40Z</time>
      </trkpt>
      <trkpt lat="45.4621" lon="5.82144">
        <ele>734.2</ele>
        <time>2021-08-24T09:05:42Z</time>
      </trkpt>
      <trkpt lat="45.46212" lon="5.82146">
        <ele>734.5</ele>
        <time>2021-08-24T09:05:43Z</time>
      </trkpt>
      <trkpt lat="45.46216" lon="5.82149">
        <ele>734.8</ele>
        <time>2021-08-24T09:05:45Z</time>
      </trkpt>
      <trkpt lat="45.46216" lon="5.82151">
        <ele>734.8</ele>
        <time>2021-08-24T09:05:46Z</time>
      </trkpt>
      <trkpt lat="45.46217" lon="5.82153">
        <ele>734.9</ele>
        <time>2021-08-24T09:05:47Z</time>
      </trkpt>
      <trkpt lat="45.46217" lon="5.82154">
        <ele>735</ele>
        <time>2021-08-24T09:05:48Z</time>
      </trkpt>
      <trkpt lat="45.46219" lon="5.82158">
        <ele>735.2</ele>
        <time>2021-08-24T09:05:49Z</time>
      </trkpt>
      <trkpt lat="45.46219" lon="5.82159">
        <ele>735.3</ele>
        <time>2021-08-24T09:05:50Z</time>
      </trkpt>
      <trkpt lat="45.4622" lon="5.82162">
        <ele>735.4</ele>
        <time>2021-08-24T09:05:52Z</time>
      </trkpt>
      <trkpt lat="45.46221" lon="5.82165">
        <ele>735.6</ele>
        <time>2021-08-24T09:05:54Z</time>
      </trkpt>
      <trkpt lat="45.46223" lon="5.82168">
        <ele>735.8</ele>
        <time>2021-08-24T09:05:56Z</time>
      </trkpt>
      <trkpt lat="45.46226" lon="5.82173">
        <ele>736.2</ele>
        <time>2021-08-24T09:05:59Z</time>
      </trkpt>
      <trkpt lat="45.46229" lon="5.82176">
        <ele>736.5</ele>
        <time>2021-08-24T09:06:01Z</time>
      </trkpt>
      <trkpt lat="45.46232" lon="5.8218">
        <ele>736.7</ele>
        <time>2021-08-24T09:06:03Z</time>
      </trkpt>
      <trkpt lat="45.46234" lon="5.82182">
        <ele>737</ele>
        <time>2021-08-24T09:06:04Z</time>
      </trkpt>
      <trkpt lat="45.46235" lon="5.82183">
        <ele>737</ele>
        <time>2021-08-24T09:06:05Z</time>
      </trkpt>
      <trkpt lat="45.46235" lon="5.82184">
        <ele>737.1</ele>
        <time>2021-08-24T09:06:06Z</time>
      </trkpt>
      <trkpt lat="45.46236" lon="5.82184">
        <ele>737.1</ele>
        <time>2021-08-24T09:06:08Z</time>
      </trkpt>
      <trkpt lat="45.46237" lon="5.82185">
        <ele>737.2</ele>
        <time>2021-08-24T09:06:09Z</time>
      </trkpt>
      <trkpt lat="45.46238" lon="5.82185">
        <ele>737.3</ele>
        <time>2021-08-24T09:06:10Z</time>
      </trkpt>
      <trkpt lat="45.46238" lon="5.82186">
        <ele>737.3</ele>
        <time>2021-08-24T09:06:11Z</time>
      </trkpt>
      <trkpt lat="45.46239" lon="5.82187">
        <ele>737.5</ele>
        <time>2021-08-24T09:06:12Z</time>
      </trkpt>
      <trkpt lat="45.4624" lon="5.8219">
        <ele>737.6</ele>
        <time>2021-08-24T09:06:14Z</time>
      </trkpt>
      <trkpt lat="45.4624" lon="5.82191">
        <ele>737.7</ele>
        <time>2021-08-24T09:06:15Z</time>
      </trkpt>
      <trkpt lat="45.46241" lon="5.82192">
        <ele>737.8</ele>
        <time>2021-08-24T09:06:16Z</time>
      </trkpt>
      <trkpt lat="45.46241" lon="5.82194">
        <ele>737.9</ele>
        <time>2021-08-24T09:06:18Z</time>
      </trkpt>
      <trkpt lat="45.46242" lon="5.82196">
        <ele>738</ele>
        <time>2021-08-24T09:06:20Z</time>
      </trkpt>
      <trkpt lat="45.46243" lon="5.82197">
        <ele>738.1</ele>
        <time>2021-08-24T09:06:21Z</time>
      </trkpt>
      <trkpt lat="45.46244" lon="5.822">
        <ele>738.4</ele>
        <time>2021-08-24T09:06:23Z</time>
      </trkpt>
      <trkpt lat="45.46248" lon="5.82207">
        <ele>738.9</ele>
        <time>2021-08-24T09:06:25Z</time>
      </trkpt>
      <trkpt lat="45.46248" lon="5.82212">
        <ele>739.2</ele>
        <time>2021-08-24T09:06:26Z</time>
      </trkpt>
      <trkpt lat="45.46251" lon="5.82216">
        <ele>739.5</ele>
        <time>2021-08-24T09:06:28Z</time>
      </trkpt>
      <trkpt lat="45.46252" lon="5.82218">
        <ele>739.6</ele>
        <time>2021-08-24T09:06:29Z</time>
      </trkpt>
      <trkpt lat="45.46254" lon="5.82219">
        <ele>739.9</ele>
        <time>2021-08-24T09:06:30Z</time>
      </trkpt>
      <trkpt lat="45.46255" lon="5.8222">
        <ele>740</ele>
        <time>2021-08-24T09:06:31Z</time>
      </trkpt>
      <trkpt lat="45.46259" lon="5.82222">
        <ele>740.3</ele>
        <time>2021-08-24T09:06:32Z</time>
      </trkpt>
      <trkpt lat="45.4626" lon="5.82223">
        <ele>740.4</ele>
        <time>2021-08-24T09:06:33Z</time>
      </trkpt>
      <trkpt lat="45.46264" lon="5.82228">
        <ele>740.8</ele>
        <time>2021-08-24T09:06:35Z</time>
      </trkpt>
      <trkpt lat="45.46266" lon="5.82231">
        <ele>741.1</ele>
        <time>2021-08-24T09:06:36Z</time>
      </trkpt>
      <trkpt lat="45.46266" lon="5.82233">
        <ele>741.2</ele>
        <time>2021-08-24T09:06:37Z</time>
      </trkpt>
      <trkpt lat="45.46266" lon="5.82234">
        <ele>741.3</ele>
        <time>2021-08-24T09:06:38Z</time>
      </trkpt>
      <trkpt lat="45.46267" lon="5.82238">
        <ele>741.5</ele>
        <time>2021-08-24T09:06:40Z</time>
      </trkpt>
      <trkpt lat="45.46266" lon="5.82239">
        <ele>741.6</ele>
        <time>2021-08-24T09:06:41Z</time>
      </trkpt>
      <trkpt lat="45.46266" lon="5.8224">
        <ele>741.6</ele>
        <time>2021-08-24T09:06:42Z</time>
      </trkpt>
      <trkpt lat="45.46266" lon="5.82243">
        <ele>741.8</ele>
        <time>2021-08-24T09:06:43Z</time>
      </trkpt>
      <trkpt lat="45.46265" lon="5.82246">
        <ele>741.9</ele>
        <time>2021-08-24T09:06:45Z</time>
      </trkpt>
      <trkpt lat="45.46262" lon="5.82249">
        <ele>742.2</ele>
        <time>2021-08-24T09:06:46Z</time>
      </trkpt>
      <trkpt lat="45.46262" lon="5.8225">
        <ele>742.3</ele>
        <time>2021-08-24T09:06:47Z</time>
      </trkpt>
      <trkpt lat="45.46257" lon="5.82254">
        <ele>742.7</ele>
        <time>2021-08-24T09:06:48Z</time>
      </trkpt>
      <trkpt lat="45.46253" lon="5.82257">
        <ele>743.1</ele>
        <time>2021-08-24T09:06:49Z</time>
      </trkpt>
      <trkpt lat="45.4625" lon="5.82261">
        <ele>743.4</ele>
        <time>2021-08-24T09:06:50Z</time>
      </trkpt>
      <trkpt lat="45.46248" lon="5.82263">
        <ele>743.5</ele>
        <time>2021-08-24T09:06:51Z</time>
      </trkpt>
      <trkpt lat="45.46246" lon="5.82267">
        <ele>743.8</ele>
        <time>2021-08-24T09:06:53Z</time>
      </trkpt>
      <trkpt lat="45.46245" lon="5.8227">
        <ele>744</ele>
        <time>2021-08-24T09:06:54Z</time>
      </trkpt>
      <trkpt lat="45.46242" lon="5.82276">
        <ele>744.4</ele>
        <time>2021-08-24T09:06:55Z</time>
      </trkpt>
      <trkpt lat="45.4624" lon="5.82282">
        <ele>744.8</ele>
        <time>2021-08-24T09:06:57Z</time>
      </trkpt>
      <trkpt lat="45.46389" lon="5.82411">
        <ele>760</ele>
        <time>2021-08-24T09:09:27Z</time>
      </trkpt>
      <trkpt lat="45.46391" lon="5.82412">
        <ele>760.2</ele>
        <time>2021-08-24T09:09:28Z</time>
      </trkpt>
      <trkpt lat="45.46392" lon="5.82412">
        <ele>760.4</ele>
        <time>2021-08-24T09:09:30Z</time>
      </trkpt>
      <trkpt lat="45.46393" lon="5.82413">
        <ele>760.5</ele>
        <time>2021-08-24T09:09:32Z</time>
      </trkpt>
      <trkpt lat="45.46393" lon="5.82415">
        <ele>760.6</ele>
        <time>2021-08-24T09:09:34Z</time>
      </trkpt>
      <trkpt lat="45.46394" lon="5.82416">
        <ele>760.6</ele>
        <time>2021-08-24T09:09:36Z</time>
      </trkpt>
      <trkpt lat="45.46394" lon="5.82417">
        <ele>760.7</ele>
        <time>2021-08-24T09:09:38Z</time>
      </trkpt>
      <trkpt lat="45.46208" lon="5.82419">
        <ele>792.9</ele>
        <time>2021-08-24T09:16:23Z</time>
      </trkpt>
      <trkpt lat="45.46205" lon="5.82418">
        <ele>793.2</ele>
        <time>2021-08-24T09:16:25Z</time>
      </trkpt>
      <trkpt lat="45.46204" lon="5.82418">
        <ele>793.2</ele>
        <time>2021-08-24T09:16:26Z</time>
      </trkpt>
      <trkpt lat="45.46201" lon="5.82417">
        <ele>793.4</ele>
        <time>2021-08-24T09:16:28Z</time>
      </trkpt>
      <trkpt lat="45.462" lon="5.82417">
        <ele>793.5</ele>
        <time>2021-08-24T09:16:29Z</time>
      </trkpt>
      <trkpt lat="45.46199" lon="5.82417">
        <ele>793.6</ele>
        <time>2021-08-24T09:16:30Z</time>
      </trkpt>
      <trkpt lat="45.46198" lon="5.82416">
        <ele>793.7</ele>
        <time>2021-08-24T09:16:32Z</time>
      </trkpt>
      <trkpt lat="45.46198" lon="5.82416">
        <ele>793.7</ele>
        <time>2021-08-24T09:16:33Z</time>
      </trkpt>
      <trkpt lat="45.46197" lon="5.82415">
        <ele>793.7</ele>
        <time>2021-08-24T09:16:34Z</time>
      </trkpt>
      <trkpt lat="45.46196" lon="5.82414">
        <ele>793.9</ele>
        <time>2021-08-24T09:16:36Z</time>
      </trkpt>
      <trkpt lat="45.46195" lon="5.82414">
        <ele>793.9</ele>
        <time>2021-08-24T09:16:37Z</time>
      </trkpt>
      <trkpt lat="45.46195" lon="5.82414">
        <ele>793.9</ele>
        <time>2021-08-24T09:16:39Z</time>
      </trkpt>
      <trkpt lat="45.46195" lon="5.82414">
        <ele>793.9</ele>
        <time>2021-08-24T09:16:40Z</time>
      </trkpt>
      <trkpt lat="45.46195" lon="5.82414">
        <ele>793.9</ele>
        <time>2021-08-24T09:16:41Z</time>
      </trkpt>
      <trkpt lat="45.46196" lon="5.82414">
        <ele>794</ele>
        <time>2021-08-24T09:16:42Z</time>
      </trkpt>
      <trkpt lat="45.46196" lon="5.82414">
        <ele>794</ele>
        <time>2021-08-24T09:16:44Z</time>
      </trkpt>
      <trkpt lat="45.46196" lon="5.82414">
        <ele>794</ele>
        <time>2021-08-24T09:16:45Z</time>
      </trkpt>
      <trkpt lat="45.46195" lon="5.82414">
        <ele>794</ele>
        <time>2021-08-24T09:16:46Z</time>
      </trkpt>
      <trkpt lat="45.46194" lon="5.82414">
        <ele>794.1</ele>
        <time>2021-08-24T09:16:48Z</time>
      </trkpt>
      <trkpt lat="45.46194" lon="5.82414">
        <ele>794.1</ele>
        <time>2021-08-24T09:16:49Z</time>
      </trkpt>
      <trkpt lat="45.46192" lon="5.82414">
        <ele>794.2</ele>
        <time>2021-08-24T09:16:50Z</time>
      </trkpt>
      <trkpt lat="45.46191" lon="5.82414">
        <ele>794.3</ele>
        <time>2021-08-24T09:16:52Z</time>
      </trkpt>
      <trkpt lat="45.4619" lon="5.82414">
        <ele>794.4</ele>
        <time>2021-08-24T09:16:54Z</time>
      </trkpt>
      <trkpt lat="45.46148" lon="5.82388">
        <ele>794.9</ele>
        <time>2021-08-24T09:17:24Z</time>
      </trkpt>
      <trkpt lat="45.46146" lon="5.82387">
        <ele>794.9</ele>
        <time>2021-08-24T09:17:25Z</time>
      </trkpt>
      <trkpt lat="45.46142" lon="5.82384">
        <ele>794.9</ele>
        <time>2021-08-24T09:17:27Z</time>
      </trkpt>
      <trkpt lat="45.46137" lon="5.82381">
        <ele>795</ele>
        <time>2021-08-24T09:17:28Z</time>
      </trkpt>
      <trkpt lat="45.46133" lon="5.82378">
        <ele>795.1</ele>
        <time>2021-08-24T09:17:30Z</time>
      </trkpt>
      <trkpt lat="45.4613" lon="5.82376">
        <ele>795.2</ele>
        <time>2021-08-24T09:17:31Z</time>
      </trkpt>
      <trkpt lat="45.46126" lon="5.82372">
        <ele>795.4</ele>
        <time>2021-08-24T09:17:33Z</time>
      </trkpt>
      <trkpt lat="45.46124" lon="5.8237">
        <ele>795.4</ele>
        <time>2021-08-24T09:17:35Z</time>
      </trkpt>
      <trkpt lat="45.46123" lon="5.82369">
        <ele>795.5</ele>
        <time>2021-08-24T09:17:36Z</time>
      </trkpt>
      <trkpt lat="45.46122" lon="5.82367">
        <ele>795.6</ele>
        <time>2021-08-24T09:17:37Z</time>
      </trkpt>
      <trkpt lat="45.4612" lon="5.82365">
        <ele>795.7</ele>
        <time>2021-08-24T09:17:39Z</time>
      </trkpt>
      <trkpt lat="45.46119" lon="5.82364">
        <ele>795.7</ele>
        <time>2021-08-24T09:17:40Z</time>
      </trkpt>
      <trkpt lat="45.46115" lon="5.82361">
        <ele>795.9</ele>
        <time>2021-08-24T09:17:41Z</time>
      </trkpt>
      <trkpt lat="45.46113" lon="5.82361">
        <ele>796</ele>
        <time>2021-08-24T09:17:43Z</time>
      </trkpt>
      <trkpt lat="45.46111" lon="5.8236">
        <ele>796.1</ele>
        <time>2021-08-24T09:17:45Z</time>
      </trkpt>
      <trkpt lat="45.46109" lon="5.8236">
        <ele>796.2</ele>
        <time>2021-08-24T09:17:46Z</time>
      </trkpt>
      <trkpt lat="45.46107" lon="5.82361">
        <ele>796.2</ele>
        <time>2021-08-24T09:17:47Z</time>
      </trkpt>
      <trkpt lat="45.46106" lon="5.8236">
        <ele>796.3</ele>
        <time>2021-08-24T09:17:48Z</time>
      </trkpt>
      <trkpt lat="45.46102" lon="5.82359">
        <ele>796.3</ele>
        <time>2021-08-24T09:17:50Z</time>
      </trkpt>
      <trkpt lat="45.461" lon="5.82358">
        <ele>796.4</ele>
        <time>2021-08-24T09:17:51Z</time>
      </trkpt>
      <trkpt lat="45.461" lon="5.82358">
        <ele>796.4</ele>
        <time>2021-08-24T09:17:52Z</time>
      </trkpt>
      <trkpt lat="45.46099" lon="5.82358">
        <ele>796.4</ele>
        <time>2021-08-24T09:17:53Z</time>
      </trkpt>
      <trkpt lat="45.46098" lon="5.82358">
        <ele>796.4</ele>
        <time>2021-08-24T09:17:55Z</time>
      </trkpt>
      <trkpt lat="45.46096" lon="5.82359">
        <ele>796.4</ele>
        <time>2021-08-24T09:17:56Z</time>
      </trkpt>
      <trkpt lat="45.46095" lon="5.82358">
        <ele>796.4</ele>
        <time>2021-08-24T09:17:57Z</time>
      </trkpt>
      <trkpt lat="45.46094" lon="5.82357">
        <ele>796.4</ele>
        <time>2021-08-24T09:17:58Z</time>
      </trkpt>
      <trkpt lat="45.46093" lon="5.82357">
        <ele>796.5</ele>
        <time>2021-08-24T09:17:59Z</time>
      </trkpt>
      <trkpt lat="45.4609" lon="5.82355">
        <ele>796.5</ele>
        <time>2021-08-24T09:18:01Z</time>
      </trkpt>
      <trkpt lat="45.46088" lon="5.82355">
        <ele>796.5</ele>
        <time>2021-08-24T09:18:02Z</time>
      </trkpt>
      <trkpt lat="45.46085" lon="5.82354">
        <ele>796.5</ele>
        <time>2021-08-24T09:18:03Z</time>
      </trkpt>
      <trkpt lat="45.46084" lon="5.82354">
        <ele>796.5</ele>
        <time>2021-08-24T09:18:04Z</time>
      </trkpt>
      <trkpt lat="45.4608" lon="5.82353">
        <ele>796.6</ele>
        <time>2021-08-24T09:18:06Z</time>
      </trkpt>
      <trkpt lat="45.46079" lon="5.82353">
        <ele>796.6</ele>
        <time>2021-08-24T09:18:07Z</time>
      </trkpt>
      <trkpt lat="45.46076" lon="5.82352">
        <ele>796.7</ele>
        <time>2021-08-24T09:18:08Z</time>
      </trkpt>
      <trkpt lat="45.46073" lon="5.82352">
        <ele>796.8</ele>
        <time>2021-08-24T09:18:09Z</time>
      </trkpt>
      <trkpt lat="45.4607" lon="5.82352">
        <ele>796.9</ele>
        <time>2021-08-24T09:18:10Z</time>
      </trkpt>
      <trkpt lat="45.46064" lon="5.82352">
        <ele>797.1</ele>
        <time>2021-08-24T09:18:12Z</time>
      </trkpt>
      <trkpt lat="45.4606" lon="5.82352">
        <ele>797.2</ele>
        <time>2021-08-24T09:18:13Z</time>
      </trkpt>
      <trkpt lat="45.46056" lon="5.82351">
        <ele>797.3</ele>
        <time>2021-08-24T09:18:14Z</time>
      </trkpt>
      <trkpt lat="45.46049" lon="5.82349">
        <ele>797.5</ele>
        <time>2021-08-24T09:18:15Z</time>
      </trkpt>
      <trkpt lat="45.46045" lon="5.82347">
        <ele>797.6</ele>
        <time>2021-08-24T09:18:17Z</time>
      </trkpt>
      <trkpt lat="45.4604" lon="5.82345">
        <ele>797.7</ele>
        <time>2021-08-24T09:18:18Z</time>
      </trkpt>
      <trkpt lat="45.46036" lon="5.82344">
        <ele>797.8</ele>
        <time>2021-08-24T09:18:19Z</time>
      </trkpt>
      <trkpt lat="45.46032" lon="5.82343">
        <ele>798</ele>
        <time>2021-08-24T09:18:20Z</time>
      </trkpt>
      <trkpt lat="45.46028" lon="5.82343">
        <ele>798.2</ele>
        <time>2021-08-24T09:18:22Z</time>
      </trkpt>
      <trkpt lat="45.46025" lon="5.82342">
        <ele>798.4</ele>
        <time>2021-08-24T09:18:23Z</time>
      </trkpt>
      <trkpt lat="45.46023" lon="5.82342">
        <ele>798.5</ele>
        <time>2021-08-24T09:18:24Z</time>
      </trkpt>
      <trkpt lat="45.4602" lon="5.82342">
        <ele>798.8</ele>
        <time>2021-08-24T09:18:26Z</time>
      </trkpt>
      <trkpt lat="45.46019" lon="5.82342">
        <ele>798.8</ele>
        <time>2021-08-24T09:18:27Z</time>
      </trkpt>
      <trkpt lat="45.46017" lon="5.82341">
        <ele>799</ele>
        <time>2021-08-24T09:18:28Z</time>
      </trkpt>
      <trkpt lat="45.46016" lon="5.82341">
        <ele>799.1</ele>
        <time>2021-08-24T09:18:29Z</time>
      </trkpt>
      <trkpt lat="45.46015" lon="5.82341">
        <ele>799.3</ele>
        <time>2021-08-24T09:18:30Z</time>
      </trkpt>
      <trkpt lat="45.46012" lon="5.82339">
        <ele>799.8</ele>
        <time>2021-08-24T09:18:32Z</time>
      </trkpt>
      <trkpt lat="45.46011" lon="5.82339">
        <ele>799.9</ele>
        <time>2021-08-24T09:18:33Z</time>
      </trkpt>
      <trkpt lat="45.46007" lon="5.82337">
        <ele>800.5</ele>
        <time>2021-08-24T09:18:35Z</time>
      </trkpt>
      <trkpt lat="45.46006" lon="5.82336">
        <ele>800.7</ele>
        <time>2021-08-24T09:18:36Z</time>
      </trkpt>
      <trkpt lat="45.46005" lon="5.82335">
        <ele>801</ele>
        <time>2021-08-24T09:18:37Z</time>
      </trkpt>
      <trkpt lat="45.46002" lon="5.82334">
        <ele>801.5</ele>
        <time>2021-08-24T09:18:39Z</time>
      </trkpt>
      <trkpt lat="45.46" lon="5.82334">
        <ele>801.8</ele>
        <time>2021-08-24T09:18:41Z</time>
      </trkpt>
      <trkpt lat="45.45999" lon="5.82333">
        <ele>802</ele>
        <time>2021-08-24T09:18:42Z</time>
      </trkpt>
      <trkpt lat="45.45996" lon="5.82333">
        <ele>802.5</ele>
        <time>2021-08-24T09:18:43Z</time>
      </trkpt>
      <trkpt lat="45.45994" lon="5.82333">
        <ele>802.8</ele>
        <time>2021-08-24T09:18:45Z</time>
      </trkpt>
      <trkpt lat="45.45992" lon="5.82331">
        <ele>803.3</ele>
        <time>2021-08-24T09:18:46Z</time>
      </trkpt>
      <trkpt lat="45.45988" lon="5.82329">
        <ele>803.8</ele>
        <time>2021-08-24T09:18:48Z</time>
      </trkpt>
      <trkpt lat="45.45987" lon="5.82328">
        <ele>803.9</ele>
        <time>2021-08-24T09:18:49Z</time>
      </trkpt>
      <trkpt lat="45.45986" lon="5.82327">
        <ele>804.2</ele>
        <time>2021-08-24T09:18:50Z</time>
      </trkpt>
      <trkpt lat="45.45983" lon="5.82325">
        <ele>804.5</ele>
        <time>2021-08-24T09:18:52Z</time>
      </trkpt>
      <trkpt lat="45.45982" lon="5.82323">
        <ele>804.7</ele>
        <time>2021-08-24T09:18:53Z</time>
      </trkpt>
      <trkpt lat="45.4598" lon="5.8232">
        <ele>805</ele>
        <time>2021-08-24T09:18:55Z</time>
      </trkpt>
      <trkpt lat="45.45977" lon="5.82318">
        <ele>805.3</ele>
        <time>2021-08-24T09:18:56Z</time>
      </trkpt>
      <trkpt lat="45.45974" lon="5.82313">
        <ele>805.7</ele>
        <time>2021-08-24T09:18:58Z</time>
      </trkpt>
      <trkpt lat="45.45972" lon="5.8231">
        <ele>806</ele>
        <time>2021-08-24T09:19:00Z</time>
      </trkpt>
      <trkpt lat="45.45969" lon="5.82308">
        <ele>806.2</ele>
        <time>2021-08-24T09:19:01Z</time>
      </trkpt>
      <trkpt lat="45.45968" lon="5.82306">
        <ele>806.4</ele>
        <time>2021-08-24T09:19:02Z</time>
      </trkpt>
      <trkpt lat="45.45965" lon="5.82304">
        <ele>806.6</ele>
        <time>2021-08-24T09:19:04Z</time>
      </trkpt>
      <trkpt lat="45.45964" lon="5.82302">
        <ele>806.7</ele>
        <time>2021-08-24T09:19:05Z</time>
      </trkpt>
      <trkpt lat="45.45962" lon="5.823">
        <ele>806.9</ele>
        <time>2021-08-24T09:19:07Z</time>
      </trkpt>
      <trkpt lat="45.45961" lon="5.82297">
        <ele>807</ele>
        <time>2021-08-24T09:19:09Z</time>
      </trkpt>
      <trkpt lat="45.45961" lon="5.82295">
        <ele>807.1</ele>
        <time>2021-08-24T09:19:11Z</time>
      </trkpt>
      <trkpt lat="45.4596" lon="5.82292">
        <ele>807.2</ele>
        <time>2021-08-24T09:19:13Z</time>
      </trkpt>
      <trkpt lat="45.45961" lon="5.82289">
        <ele>807.3</ele>
        <time>2021-08-24T09:19:15Z</time>
      </trkpt>
      <trkpt lat="45.45961" lon="5.82288">
        <ele>807.3</ele>
        <time>2021-08-24T09:19:17Z</time>
      </trkpt>
      <trkpt lat="45.45961" lon="5.82288">
        <ele>807.3</ele>
        <time>2021-08-24T09:19:19Z</time>
      </trkpt>
      <trkpt lat="45.45961" lon="5.82289">
        <ele>807.3</ele>
        <time>2021-08-24T09:19:20Z</time>
      </trkpt>
      <trkpt lat="45.45961" lon="5.82289">
        <ele>807.3</ele>
        <time>2021-08-24T09:19:21Z</time>
      </trkpt>
      <trkpt lat="45.4596" lon="5.82289">
        <ele>807.3</ele>
        <time>2021-08-24T09:19:23Z</time>
      </trkpt>
      <trkpt lat="45.45959" lon="5.82289">
        <ele>807.4</ele>
        <time>2021-08-24T09:19:25Z</time>
      </trkpt>
      <trkpt lat="45.45958" lon="5.82289">
        <ele>807.4</ele>
        <time>2021-08-24T09:19:26Z</time>
      </trkpt>
      <trkpt lat="45.45957" lon="5.82289">
        <ele>807.4</ele>
        <time>2021-08-24T09:19:27Z</time>
      </trkpt>
      <trkpt lat="45.45827" lon="5.82223">
        <ele>820.9</ele>
        <time>2021-08-24T09:23:44Z</time>
      </trkpt>
      <trkpt lat="45.45825" lon="5.82222">
        <ele>821</ele>
        <time>2021-08-24T09:23:45Z</time>
      </trkpt>
      <trkpt lat="45.45824" lon="5.8222">
        <ele>821.3</ele>
        <time>2021-08-24T09:23:47Z</time>
      </trkpt>
      <trkpt lat="45.45823" lon="5.8222">
        <ele>821.4</ele>
        <time>2021-08-24T09:23:48Z</time>
      </trkpt>
      <trkpt lat="45.45821" lon="5.82218">
        <ele>821.7</ele>
        <time>2021-08-24T09:23:50Z</time>
      </trkpt>
      <trkpt lat="45.4582" lon="5.82217">
        <ele>821.8</ele>
        <time>2021-08-24T09:23:51Z</time>
      </trkpt>
      <trkpt lat="45.45818" lon="5.82216">
        <ele>822.1</ele>
        <time>2021-08-24T09:23:53Z</time>
      </trkpt>
      <trkpt lat="45.45817" lon="5.82215">
        <ele>822.2</ele>
        <time>2021-08-24T09:23:54Z</time>
      </trkpt>
      <trkpt lat="45.45816" lon="5.82214">
        <ele>822.4</ele>
        <time>2021-08-24T09:23:55Z</time>
      </trkpt>
      <trkpt lat="45.45815" lon="5.82213">
        <ele>822.5</ele>
        <time>2021-08-24T09:23:57Z</time>
      </trkpt>
      <trkpt lat="45.45814" lon="5.82212">
        <ele>822.7</ele>
        <time>2021-08-24T09:23:58Z</time>
      </trkpt>
      <trkpt lat="45.45813" lon="5.82211">
        <ele>822.8</ele>
        <time>2021-08-24T09:23:59Z</time>
      </trkpt>
      <trkpt lat="45.45812" lon="5.8221">
        <ele>822.9</ele>
        <time>2021-08-24T09:24:00Z</time>
      </trkpt>
      <trkpt lat="45.4581" lon="5.82208">
        <ele>823.2</ele>
        <time>2021-08-24T09:24:02Z</time>
      </trkpt>
      <trkpt lat="45.4576" lon="5.82161">
        <ele>830.3</ele>
        <time>2021-08-24T09:25:29Z</time>
      </trkpt>
      <trkpt lat="45.45755" lon="5.82162">
        <ele>830.7</ele>
        <time>2021-08-24T09:25:31Z</time>
      </trkpt>
      <trkpt lat="45.45751" lon="5.82162">
        <ele>831</ele>
        <time>2021-08-24T09:25:32Z</time>
      </trkpt>
      <trkpt lat="45.45746" lon="5.82163">
        <ele>831.3</ele>
        <time>2021-08-24T09:25:34Z</time>
      </trkpt>
      <trkpt lat="45.45742" lon="5.82162">
        <ele>831.6</ele>
        <time>2021-08-24T09:25:35Z</time>
      </trkpt>
      <trkpt lat="45.45739" lon="5.8216">
        <ele>831.8</ele>
        <time>2021-08-24T09:25:36Z</time>
      </trkpt>
      <trkpt lat="45.45738" lon="5.82159">
        <ele>831.8</ele>
        <time>2021-08-24T09:25:38Z</time>
      </trkpt>
      <trkpt lat="45.45737" lon="5.82158">
        <ele>831.9</ele>
        <time>2021-08-24T09:25:39Z</time>
      </trkpt>
      <trkpt lat="45.45736" lon="5.82157">
        <ele>832</ele>
        <time>2021-08-24T09:25:40Z</time>
      </trkpt>
      <trkpt lat="45.45735" lon="5.82157">
        <ele>832</ele>
        <time>2021-08-24T09:25:42Z</time>
      </trkpt>
      <trkpt lat="45.45737" lon="5.82155">
        <ele>832.1</ele>
        <time>2021-08-24T09:25:43Z</time>
      </trkpt>
      <trkpt lat="45.45737" lon="5.82154">
        <ele>832.2</ele>
        <time>2021-08-24T09:25:45Z</time>
      </trkpt>
      <trkpt lat="45.45736" lon="5.82154">
        <ele>832.2</ele>
        <time>2021-08-24T09:25:46Z</time>
      </trkpt>
      <trkpt lat="45.45735" lon="5.82153">
        <ele>832.3</ele>
        <time>2021-08-24T09:25:47Z</time>
      </trkpt>
      <trkpt lat="45.45735" lon="5.82153">
        <ele>832.3</ele>
        <time>2021-08-24T09:25:48Z</time>
      </trkpt>
      <trkpt lat="45.45735" lon="5.82153">
        <ele>832.3</ele>
        <time>2021-08-24T09:25:49Z</time>
      </trkpt>
      <trkpt lat="45.45734" lon="5.82152">
        <ele>832.4</ele>
        <time>2021-08-24T09:25:51Z</time>
      </trkpt>
      <trkpt lat="45.45733" lon="5.82151">
        <ele>832.4</ele>
        <time>2021-08-24T09:25:52Z</time>
      </trkpt>
      <trkpt lat="45.45732" lon="5.8215">
        <ele>832.5</ele>
        <time>2021-08-24T09:25:53Z</time>
      </trkpt>
      <trkpt lat="45.45732" lon="5.82149">
        <ele>832.5</ele>
        <time>2021-08-24T09:25:55Z</time>
      </trkpt>
      <trkpt lat="45.45732" lon="5.82148">
        <ele>832.6</ele>
        <time>2021-08-24T09:25:56Z</time>
      </trkpt>
      <trkpt lat="45.45732" lon="5.82147">
        <ele>832.6</ele>
        <time>2021-08-24T09:25:57Z</time>
      </trkpt>
      <trkpt lat="45.45732" lon="5.82146">
        <ele>832.7</ele>
        <time>2021-08-24T09:25:59Z</time>
      </trkpt>
      <trkpt lat="45.45732" lon="5.82145">
        <ele>832.7</ele>
        <time>2021-08-24T09:26:00Z</time>
      </trkpt>
      <trkpt lat="45.45732" lon="5.82144">
        <ele>832.8</ele>
        <time>2021-08-24T09:26:02Z</time>
      </trkpt>
      <trkpt lat="45.4576" lon="5.82191">
        <ele>836.9</ele>
        <time>2021-08-24T09:28:50Z</time>
      </trkpt>
      <trkpt lat="45.45763" lon="5.82196">
        <ele>837.3</ele>
        <time>2021-08-24T09:28:52Z</time>
      </trkpt>
      <trkpt lat="45.45765" lon="5.82198">
        <ele>837.5</ele>
        <time>2021-08-24T09:28:53Z</time>
      </trkpt>
      <trkpt lat="45.45766" lon="5.82198">
        <ele>837.6</ele>
        <time>2021-08-24T09:28:54Z</time>
      </trkpt>
      <trkpt lat="45.45765" lon="5.82196">
        <ele>837.7</ele>
        <time>2021-08-24T09:28:55Z</time>
      </trkpt>
      <trkpt lat="45.45765" lon="5.82195">
        <ele>837.8</ele>
        <time>2021-08-24T09:28:56Z</time>
      </trkpt>
      <trkpt lat="45.45764" lon="5.82194">
        <ele>837.9</ele>
        <time>2021-08-24T09:28:57Z</time>
      </trkpt>
      <trkpt lat="45.45762" lon="5.82191">
        <ele>838.1</ele>
        <time>2021-08-24T09:28:59Z</time>
      </trkpt>
      <trkpt lat="45.45762" lon="5.8219">
        <ele>838.2</ele>
        <time>2021-08-24T09:29:00Z</time>
      </trkpt>
      <trkpt lat="45.45762" lon="5.82188">
        <ele>838.3</ele>
        <time>2021-08-24T09:29:01Z</time>
      </trkpt>
      <trkpt lat="45.45761" lon="5.82186">
        <ele>838.5</ele>
        <time>2021-08-24T09:29:02Z</time>
      </trkpt>
      <trkpt lat="45.45759" lon="5.82183">
        <ele>838.7</ele>
        <time>2021-08-24T09:29:04Z</time>
      </trkpt>
      <trkpt lat="45.45758" lon="5.82182">
        <ele>838.9</ele>
        <time>2021-08-24T09:29:05Z</time>
      </trkpt>
      <trkpt lat="45.45756" lon="5.82179">
        <ele>839.1</ele>
        <time>2021-08-24T09:29:07Z</time>
      </trkpt>
      <trkpt lat="45.45754" lon="5.82177">
        <ele>839.4</ele>
        <time>2021-08-24T09:29:09Z</time>
      </trkpt>
      <trkpt lat="45.4564" lon="5.82119">
        <ele>853.1</ele>
        <time>2021-08-24T09:31:02Z</time>
      </trkpt>
      <trkpt lat="45.45639" lon="5.82117">
        <ele>853.2</ele>
        <time>2021-08-24T09:31:03Z</time>
      </trkpt>
      <trkpt lat="45.45638" lon="5.82116">
        <ele>853.4</ele>
        <time>2021-08-24T09:31:04Z</time>
      </trkpt>
      <trkpt lat="45.45636" lon="5.82112">
        <ele>853.7</ele>
        <time>2021-08-24T09:31:06Z</time>
      </trkpt>
      <trkpt lat="45.45635" lon="5.82111">
        <ele>853.8</ele>
        <time>2021-08-24T09:31:07Z</time>
      </trkpt>
      <trkpt lat="45.45634" lon="5.82109">
        <ele>854</ele>
        <time>2021-08-24T09:31:09Z</time>
      </trkpt>
      <trkpt lat="45.45634" lon="5.82107">
        <ele>854.1</ele>
        <time>2021-08-24T09:31:10Z</time>
      </trkpt>
      <trkpt lat="45.45632" lon="5.82105">
        <ele>854.3</ele>
        <time>2021-08-24T09:31:11Z</time>
      </trkpt>
      <trkpt lat="45.45631" lon="5.82103">
        <ele>854.5</ele>
        <time>2021-08-24T09:31:12Z</time>
      </trkpt>
      <trkpt lat="45.45629" lon="5.82101">
        <ele>854.7</ele>
        <time>2021-08-24T09:31:13Z</time>
      </trkpt>
      <trkpt lat="45.45628" lon="5.82099">
        <ele>854.9</ele>
        <time>2021-08-24T09:31:15Z</time>
      </trkpt>
      <trkpt lat="45.45626" lon="5.82097">
        <ele>855</ele>
        <time>2021-08-24T09:31:17Z</time>
      </trkpt>
      <trkpt lat="45.45625" lon="5.82095">
        <ele>855.2</ele>
        <time>2021-08-24T09:31:18Z</time>
      </trkpt>
      <trkpt lat="45.45624" lon="5.82093">
        <ele>855.4</ele>
        <time>2021-08-24T09:31:19Z</time>
      </trkpt>
      <trkpt lat="45.45622" lon="5.82092">
        <ele>855.5</ele>
        <time>2021-08-24T09:31:26Z</time>
      </trkpt>
      <trkpt lat="45.45621" lon="5.8209">
        <ele>855.7</ele>
        <time>2021-08-24T09:31:28Z</time>
      </trkpt>
      <trkpt lat="45.45619" lon="5.82088">
        <ele>855.9</ele>
        <time>2021-08-24T09:31:29Z</time>
      </trkpt>
      <trkpt lat="45.45617" lon="5.82084">
        <ele>856.1</ele>
        <time>2021-08-24T09:31:30Z</time>
      </trkpt>
      <trkpt lat="45.45615" lon="5.82081">
        <ele>856.4</ele>
        <time>2021-08-24T09:31:32Z</time>
      </trkpt>
      <trkpt lat="45.45614" lon="5.8208">
        <ele>856.5</ele>
        <time>2021-08-24T09:31:33Z</time>
      </trkpt>
      <trkpt lat="45.45612" lon="5.82076">
        <ele>856.9</ele>
        <time>2021-08-24T09:31:35Z</time>
      </trkpt>
      <trkpt lat="45.45611" lon="5.82075">
        <ele>857</ele>
        <time>2021-08-24T09:31:36Z</time>
      </trkpt>
      <trkpt lat="45.45609" lon="5.82072">
        <ele>857.3</ele>
        <time>2021-08-24T09:31:38Z</time>
      </trkpt>
      <trkpt lat="45.45608" lon="5.82071">
        <ele>857.4</ele>
        <time>2021-08-24T09:31:39Z</time>
      </trkpt>
      <trkpt lat="45.45607" lon="5.8207">
        <ele>857.6</ele>
        <time>2021-08-24T09:31:41Z</time>
      </trkpt>
      <trkpt lat="45.45605" lon="5.82068">
        <ele>857.8</ele>
        <time>2021-08-24T09:31:42Z</time>
      </trkpt>
      <trkpt lat="45.45603" lon="5.82067">
        <ele>858</ele>
        <time>2021-08-24T09:31:43Z</time>
      </trkpt>
      <trkpt lat="45.456" lon="5.82067">
        <ele>858.4</ele>
        <time>2021-08-24T09:31:45Z</time>
      </trkpt>
      <trkpt lat="45.45599" lon="5.82067">
        <ele>858.5</ele>
        <time>2021-08-24T09:31:47Z</time>
      </trkpt>
      <trkpt lat="45.45597" lon="5.82067">
        <ele>858.7</ele>
        <time>2021-08-24T09:31:48Z</time>
      </trkpt>
      <trkpt lat="45.45596" lon="5.82066">
        <ele>858.8</ele>
        <time>2021-08-24T09:31:50Z</time>
      </trkpt>
      <trkpt lat="45.45594" lon="5.82066">
        <ele>859.1</ele>
        <time>2021-08-24T09:31:51Z</time>
      </trkpt>
      <trkpt lat="45.45592" lon="5.82065">
        <ele>859.3</ele>
        <time>2021-08-24T09:31:52Z</time>
      </trkpt>
      <trkpt lat="45.45591" lon="5.82064">
        <ele>859.4</ele>
        <time>2021-08-24T09:31:54Z</time>
      </trkpt>
      <trkpt lat="45.4559" lon="5.82063">
        <ele>859.5</ele>
        <time>2021-08-24T09:31:55Z</time>
      </trkpt>
      <trkpt lat="45.45588" lon="5.8206">
        <ele>859.8</ele>
        <time>2021-08-24T09:31:56Z</time>
      </trkpt>
      <trkpt lat="45.45587" lon="5.82059">
        <ele>859.9</ele>
        <time>2021-08-24T09:31:57Z</time>
      </trkpt>
      <trkpt lat="45.45587" lon="5.82058">
        <ele>860</ele>
        <time>2021-08-24T09:31:59Z</time>
      </trkpt>
      <trkpt lat="45.45587" lon="5.82057">
        <ele>860.1</ele>
        <time>2021-08-24T09:32:00Z</time>
      </trkpt>
      <trkpt lat="45.45586" lon="5.82056">
        <ele>860.2</ele>
        <time>2021-08-24T09:32:01Z</time>
      </trkpt>
      <trkpt lat="45.45586" lon="5.82054">
        <ele>860.3</ele>
        <time>2021-08-24T09:32:02Z</time>
      </trkpt>
      <trkpt lat="45.45586" lon="5.82053">
        <ele>860.4</ele>
        <time>2021-08-24T09:32:03Z</time>
      </trkpt>
      <trkpt lat="45.45585" lon="5.82052">
        <ele>860.5</ele>
        <time>2021-08-24T09:32:05Z</time>
      </trkpt>
      <trkpt lat="45.45584" lon="5.8205">
        <ele>860.7</ele>
        <time>2021-08-24T09:32:07Z</time>
      </trkpt>
      <trkpt lat="45.45435" lon="5.81949">
        <ele>881.8</ele>
        <time>2021-08-24T09:36:41Z</time>
      </trkpt>
      <trkpt lat="45.45432" lon="5.8195">
        <ele>882.2</ele>
        <time>2021-08-24T09:36:42Z</time>
      </trkpt>
      <trkpt lat="45.45431" lon="5.81949">
        <ele>882.4</ele>
        <time>2021-08-24T09:36:43Z</time>
      </trkpt>
      <trkpt lat="45.4543" lon="5.81949">
        <ele>882.5</ele>
        <time>2021-08-24T09:36:44Z</time>
      </trkpt>
      <trkpt lat="45.4543" lon="5.81948">
        <ele>882.6</ele>
        <time>2021-08-24T09:36:45Z</time>
      </trkpt>
      <trkpt lat="45.45429" lon="5.81947">
        <ele>882.8</ele>
        <time>2021-08-24T09:36:47Z</time>
      </trkpt>
      <trkpt lat="45.45427" lon="5.81947">
        <ele>883</ele>
        <time>2021-08-24T09:36:48Z</time>
      </trkpt>
      <trkpt lat="45.45427" lon="5.81945">
        <ele>883.3</ele>
        <time>2021-08-24T09:36:50Z</time>
      </trkpt>
      <trkpt lat="45.45427" lon="5.81944">
        <ele>883.3</ele>
        <time>2021-08-24T09:36:51Z</time>
      </trkpt>
      <trkpt lat="45.45428" lon="5.81943">
        <ele>883.4</ele>
        <time>2021-08-24T09:36:53Z</time>
      </trkpt>
      <trkpt lat="45.45428" lon="5.81942">
        <ele>883.5</ele>
        <time>2021-08-24T09:36:54Z</time>
      </trkpt>
      <trkpt lat="45.45429" lon="5.81943">
        <ele>883.7</ele>
        <time>2021-08-24T09:36:56Z</time>
      </trkpt>
      <trkpt lat="45.4543" lon="5.81943">
        <ele>883.7</ele>
        <time>2021-08-24T09:36:57Z</time>
      </trkpt>
      <trkpt lat="45.4543" lon="5.81943">
        <ele>883.8</ele>
        <time>2021-08-24T09:36:58Z</time>
      </trkpt>
      <trkpt lat="45.4543" lon="5.81943">
        <ele>883.8</ele>
        <time>2021-08-24T09:37:00Z</time>
      </trkpt>
      <trkpt lat="45.4543" lon="5.81943">
        <ele>883.8</ele>
        <time>2021-08-24T09:37:02Z</time>
      </trkpt>
      <trkpt lat="45.4543" lon="5.81943">
        <ele>883.9</ele>
        <time>2021-08-24T09:37:04Z</time>
      </trkpt>
      <trkpt lat="45.45389" lon="5.81897">
        <ele>888.4</ele>
        <time>2021-08-24T09:38:42Z</time>
      </trkpt>
      <trkpt lat="45.45388" lon="5.81894">
        <ele>888.6</ele>
        <time>2021-08-24T09:38:43Z</time>
      </trkpt>
      <trkpt lat="45.45387" lon="5.8189">
        <ele>888.8</ele>
        <time>2021-08-24T09:38:44Z</time>
      </trkpt>
      <trkpt lat="45.45383" lon="5.81886">
        <ele>889.1</ele>
        <time>2021-08-24T09:38:45Z</time>
      </trkpt>
      <trkpt lat="45.4538" lon="5.81883">
        <ele>889.4</ele>
        <time>2021-08-24T09:38:47Z</time>
      </trkpt>
      <trkpt lat="45.45377" lon="5.81881">
        <ele>889.7</ele>
        <time>2021-08-24T09:38:48Z</time>
      </trkpt>
      <trkpt lat="45.45374" lon="5.81879">
        <ele>889.9</ele>
        <time>2021-08-24T09:38:50Z</time>
      </trkpt>
      <trkpt lat="45.45371" lon="5.81876">
        <ele>890.2</ele>
        <time>2021-08-24T09:38:52Z</time>
      </trkpt>
      <trkpt lat="45.45368" lon="5.81874">
        <ele>890.5</ele>
        <time>2021-08-24T09:38:53Z</time>
      </trkpt>
      <trkpt lat="45.45365" lon="5.81872">
        <ele>890.7</ele>
        <time>2021-08-24T09:38:55Z</time>
      </trkpt>
      <trkpt lat="45.45362" lon="5.81869">
        <ele>891</ele>
        <time>2021-08-24T09:38:56Z</time>
      </trkpt>
      <trkpt lat="45.45359" lon="5.81867">
        <ele>891.2</ele>
        <time>2021-08-24T09:38:58Z</time>
      </trkpt>
      <trkpt lat="45.45356" lon="5.81865">
        <ele>891.5</ele>
        <time>2021-08-24T09:39:38Z</time>
      </trkpt>
      <trkpt lat="45.45353" lon="5.81862">
        <ele>891.8</ele>
        <time>2021-08-24T09:39:39Z</time>
      </trkpt>
      <trkpt lat="45.4535" lon="5.8186">
        <ele>892.1</ele>
        <time>2021-08-24T09:39:40Z</time>
      </trkpt>
      <trkpt lat="45.45347" lon="5.81857">
        <ele>892.4</ele>
        <time>2021-08-24T09:39:41Z</time>
      </trkpt>
      <trkpt lat="45.45346" lon="5.81855">
        <ele>892.6</ele>
        <time>2021-08-24T09:39:42Z</time>
      </trkpt>
      <trkpt lat="45.45343" lon="5.81852">
        <ele>892.9</ele>
        <time>2021-08-24T09:39:44Z</time>
      </trkpt>
      <trkpt lat="45.45338" lon="5.81851">
        <ele>893.4</ele>
        <time>2021-08-24T09:39:46Z</time>
      </trkpt>
      <trkpt lat="45.45335" lon="5.8185">
        <ele>893.7</ele>
        <time>2021-08-24T09:39:47Z</time>
      </trkpt>
      <trkpt lat="45.4533" lon="5.81849">
        <ele>894.2</ele>
        <time>2021-08-24T09:39:49Z</time>
      </trkpt>
      <trkpt lat="45.45326" lon="5.81849">
        <ele>894.6</ele>
        <time>2021-08-24T09:39:50Z</time>
      </trkpt>
      <trkpt lat="45.45322" lon="5.81847">
        <ele>894.9</ele>
        <time>2021-08-24T09:39:51Z</time>
      </trkpt>
      <trkpt lat="45.45321" lon="5.81847">
        <ele>895</ele>
        <time>2021-08-24T09:39:52Z</time>
      </trkpt>
      <trkpt lat="45.45318" lon="5.81845">
        <ele>895.3</ele>
        <time>2021-08-24T09:39:54Z</time>
      </trkpt>
      <trkpt lat="45.45316" lon="5.81845">
        <ele>895.4</ele>
        <time>2021-08-24T09:39:55Z</time>
      </trkpt>
      <trkpt lat="45.45314" lon="5.81844">
        <ele>895.6</ele>
        <time>2021-08-24T09:39:57Z</time>
      </trkpt>
      <trkpt lat="45.45311" lon="5.81842">
        <ele>895.9</ele>
        <time>2021-08-24T09:39:58Z</time>
      </trkpt>
      <trkpt lat="45.4531" lon="5.81841">
        <ele>896</ele>
        <time>2021-08-24T09:39:59Z</time>
      </trkpt>
      <trkpt lat="45.45309" lon="5.8184">
        <ele>896.1</ele>
        <time>2021-08-24T09:40:01Z</time>
      </trkpt>
      <trkpt lat="45.45308" lon="5.81839">
        <ele>896.3</ele>
        <time>2021-08-24T09:40:02Z</time>
      </trkpt>
      <trkpt lat="45.45307" lon="5.81838">
        <ele>896.4</ele>
        <time>2021-08-24T09:40:03Z</time>
      </trkpt>
      <trkpt lat="45.45306" lon="5.81837">
        <ele>896.5</ele>
        <time>2021-08-24T09:40:05Z</time>
      </trkpt>
      <trkpt lat="45.45307" lon="5.81837">
        <ele>896.5</ele>
        <time>2021-08-24T09:40:06Z</time>
      </trkpt>
      <trkpt lat="45.45307" lon="5.81836">
        <ele>896.6</ele>
        <time>2021-08-24T09:40:08Z</time>
      </trkpt>
      <trkpt lat="45.45307" lon="5.81835">
        <ele>896.6</ele>
        <time>2021-08-24T09:40:10Z</time>
      </trkpt>
      <trkpt lat="45.45306" lon="5.81834">
        <ele>896.7</ele>
        <time>2021-08-24T09:40:11Z</time>
      </trkpt>
      <trkpt lat="45.45305" lon="5.81833">
        <ele>896.9</ele>
        <time>2021-08-24T09:40:13Z</time>
      </trkpt>
      <trkpt lat="45.45285" lon="5.81822">
        <ele>899.2</ele>
        <time>2021-08-24T09:40:28Z</time>
      </trkpt>
      <trkpt lat="45.45284" lon="5.8182">
        <ele>899.4</ele>
        <time>2021-08-24T09:40:29Z</time>
      </trkpt>
      <trkpt lat="45.45279" lon="5.81819">
        <ele>899.9</ele>
        <time>2021-08-24T09:40:31Z</time>
      </trkpt>
      <trkpt lat="45.45273" lon="5.81819">
        <ele>900.5</ele>
        <time>2021-08-24T09:40:33Z</time>
      </trkpt>
      <trkpt lat="45.4527" lon="5.81818">
        <ele>900.9</ele>
        <time>2021-08-24T09:40:35Z</time>
      </trkpt>
      <trkpt lat="45.45266" lon="5.81817">
        <ele>901.2</ele>
        <time>2021-08-24T09:40:36Z</time>
      </trkpt>
      <trkpt lat="45.45265" lon="5.81817">
        <ele>901.3</ele>
        <time>2021-08-24T09:40:37Z</time>
      </trkpt>
      <trkpt lat="45.45263" lon="5.81817">
        <ele>901.5</ele>
        <time>2021-08-24T09:40:38Z</time>
      </trkpt>
      <trkpt lat="45.45262" lon="5.81818">
        <ele>901.7</ele>
        <time>2021-08-24T09:40:39Z</time>
      </trkpt>
      <trkpt lat="45.45261" lon="5.81819">
        <ele>901.7</ele>
        <time>2021-08-24T09:40:40Z</time>
      </trkpt>
      <trkpt lat="45.45262" lon="5.81819">
        <ele>901.8</ele>
        <time>2021-08-24T09:40:42Z</time>
      </trkpt>
      <trkpt lat="45.45264" lon="5.8182">
        <ele>902</ele>
        <time>2021-08-24T09:40:43Z</time>
      </trkpt>
      <trkpt lat="45.45267" lon="5.8182">
        <ele>902.2</ele>
        <time>2021-08-24T09:40:45Z</time>
      </trkpt>
      <trkpt lat="45.45268" lon="5.8182">
        <ele>902.4</ele>
        <time>2021-08-24T09:40:47Z</time>
      </trkpt>
      <trkpt lat="45.45269" lon="5.8182">
        <ele>902.5</ele>
        <time>2021-08-24T09:40:48Z</time>
      </trkpt>
      <trkpt lat="45.45272" lon="5.8182">
        <ele>902.8</ele>
        <time>2021-08-24T09:40:51Z</time>
      </trkpt>
      <trkpt lat="45.45287" lon="5.81853">
        <ele>905.2</ele>
        <time>2021-08-24T09:43:18Z</time>
      </trkpt>
      <trkpt lat="45.45287" lon="5.81852">
        <ele>905.2</ele>
        <time>2021-08-24T09:43:20Z</time>
      </trkpt>
      <trkpt lat="45.45287" lon="5.81852">
        <ele>905.3</ele>
        <time>2021-08-24T09:43:21Z</time>
      </trkpt>
      <trkpt lat="45.45286" lon="5.81851">
        <ele>905.4</ele>
        <time>2021-08-24T09:43:23Z</time>
      </trkpt>
      <trkpt lat="45.45285" lon="5.8185">
        <ele>905.5</ele>
        <time>2021-08-24T09:43:25Z</time>
      </trkpt>
      <trkpt lat="45.45285" lon="5.81849">
        <ele>905.5</ele>
        <time>2021-08-24T09:43:26Z</time>
      </trkpt>
      <trkpt lat="45.45285" lon="5.81847">
        <ele>905.6</ele>
        <time>2021-08-24T09:43:28Z</time>
      </trkpt>
      <trkpt lat="45.45285" lon="5.81846">
        <ele>905.7</ele>
        <time>2021-08-24T09:43:29Z</time>
      </trkpt>
      <trkpt lat="45.45285" lon="5.81844">
        <ele>905.9</ele>
        <time>2021-08-24T09:43:31Z</time>
      </trkpt>
      <trkpt lat="45.45286" lon="5.81842">
        <ele>906</ele>
        <time>2021-08-24T09:43:32Z</time>
      </trkpt>
      <trkpt lat="45.45286" lon="5.81841">
        <ele>906.2</ele>
        <time>2021-08-24T09:43:33Z</time>
      </trkpt>
      <trkpt lat="45.45287" lon="5.81838">
        <ele>906.4</ele>
        <time>2021-08-24T09:43:35Z</time>
      </trkpt>
      <trkpt lat="45.45288" lon="5.81836">
        <ele>906.6</ele>
        <time>2021-08-24T09:43:36Z</time>
      </trkpt>
      <trkpt lat="45.45289" lon="5.81832">
        <ele>906.9</ele>
        <time>2021-08-24T09:43:38Z</time>
      </trkpt>
      <trkpt lat="45.4529" lon="5.81829">
        <ele>907.2</ele>
        <time>2021-08-24T09:43:40Z</time>
      </trkpt>
      <trkpt lat="45.45291" lon="5.81828">
        <ele>907.3</ele>
        <time>2021-08-24T09:43:41Z</time>
      </trkpt>
      <trkpt lat="45.45291" lon="5.81827">
        <ele>907.4</ele>
        <time>2021-08-24T09:43:42Z</time>
      </trkpt>
      <trkpt lat="45.45292" lon="5.81825">
        <ele>907.5</ele>
        <time>2021-08-24T09:43:44Z</time>
      </trkpt>
      <trkpt lat="45.45293" lon="5.81824">
        <ele>907.7</ele>
        <time>2021-08-24T09:43:46Z</time>
      </trkpt>
      <trkpt lat="45.45294" lon="5.81823">
        <ele>907.7</ele>
        <time>2021-08-24T09:43:47Z</time>
      </trkpt>
      <trkpt lat="45.45294" lon="5.81822">
        <ele>907.8</ele>
        <time>2021-08-24T09:43:49Z</time>
      </trkpt>
      <trkpt lat="45.45295" lon="5.81822">
        <ele>907.9</ele>
        <time>2021-08-24T09:43:50Z</time>
      </trkpt>
      <trkpt lat="45.45295" lon="5.81821">
        <ele>907.9</ele>
        <time>2021-08-24T09:43:52Z</time>
      </trkpt>
      <trkpt lat="45.45295" lon="5.81821">
        <ele>907.9</ele>
        <time>2021-08-24T09:43:54Z</time>
      </trkpt>
      <trkpt lat="45.45296" lon="5.81821">
        <ele>908</ele>
        <time>2021-08-24T09:43:55Z</time>
      </trkpt>
      <trkpt lat="45.45296" lon="5.81821">
        <ele>908</ele>
        <time>2021-08-24T09:43:56Z</time>
      </trkpt>
      <trkpt lat="45.45296" lon="5.81821">
        <ele>908</ele>
        <time>2021-08-24T09:43:57Z</time>
      </trkpt>
      <trkpt lat="45.45295" lon="5.8182">
        <ele>908</ele>
        <time>2021-08-24T09:43:59Z</time>
      </trkpt>
      <trkpt lat="45.45295" lon="5.81819">
        <ele>908.1</ele>
        <time>2021-08-24T09:44:00Z</time>
      </trkpt>
      <trkpt lat="45.45295" lon="5.81819">
        <ele>908.2</ele>
        <time>2021-08-24T09:44:01Z</time>
      </trkpt>
      <trkpt lat="45.45294" lon="5.81818">
        <ele>908.2</ele>
        <time>2021-08-24T09:44:03Z</time>
      </trkpt>
      <trkpt lat="45.45294" lon="5.81817">
        <ele>908.3</ele>
        <time>2021-08-24T09:44:04Z</time>
      </trkpt>
      <trkpt lat="45.45292" lon="5.81815">
        <ele>908.4</ele>
        <time>2021-08-24T09:44:05Z</time>
      </trkpt>
      <trkpt lat="45.45291" lon="5.81814">
        <ele>908.5</ele>
        <time>2021-08-24T09:44:07Z</time>
      </trkpt>
      <trkpt lat="45.45291" lon="5.81813">
        <ele>908.6</ele>
        <time>2021-08-24T09:44:09Z</time>
      </trkpt>
      <trkpt lat="45.4529" lon="5.81811">
        <ele>908.7</ele>
        <time>2021-08-24T09:44:10Z</time>
      </trkpt>
      <trkpt lat="45.45289" lon="5.8181">
        <ele>908.8</ele>
        <time>2021-08-24T09:44:12Z</time>
      </trkpt>
      <trkpt lat="45.45288" lon="5.81808">
        <ele>908.9</ele>
        <time>2021-08-24T09:44:14Z</time>
      </trkpt>
      <trkpt lat="45.45287" lon="5.81807">
        <ele>909</ele>
        <time>2021-08-24T09:44:15Z</time>
      </trkpt>
      <trkpt lat="45.45286" lon="5.81805">
        <ele>909.1</ele>
        <time>2021-08-24T09:44:17Z</time>
      </trkpt>
      <trkpt lat="45.45286" lon="5.81804">
        <ele>909.1</ele>
        <time>2021-08-24T09:44:19Z</time>
      </trkpt>
      <trkpt lat="45.45285" lon="5.81802">
        <ele>909.2</ele>
        <time>2021-08-24T09:44:20Z</time>
      </trkpt>
      <trkpt lat="45.45283" lon="5.81801">
        <ele>909.3</ele>
        <time>2021-08-24T09:44:21Z</time>
      </trkpt>
      <trkpt lat="45.45282" lon="5.818">
        <ele>909.4</ele>
        <time>2021-08-24T09:44:22Z</time>
      </trkpt>
      <trkpt lat="45.45281" lon="5.81799">
        <ele>909.5</ele>
        <time>2021-08-24T09:44:23Z</time>
      </trkpt>
      <trkpt lat="45.4528" lon="5.81798">
        <ele>909.5</ele>
        <time>2021-08-24T09:44:24Z</time>
      </trkpt>
      <trkpt lat="45.45278" lon="5.81796">
        <ele>909.6</ele>
        <time>2021-08-24T09:44:26Z</time>
      </trkpt>
      <trkpt lat="45.45277" lon="5.81795">
        <ele>909.7</ele>
        <time>2021-08-24T09:44:27Z</time>
      </trkpt>
      <trkpt lat="45.45276" lon="5.81794">
        <ele>909.8</ele>
        <time>2021-08-24T09:44:29Z</time>
      </trkpt>
      <trkpt lat="45.45275" lon="5.81793">
        <ele>909.8</ele>
        <time>2021-08-24T09:44:30Z</time>
      </trkpt>
      <trkpt lat="45.45275" lon="5.81793">
        <ele>909.8</ele>
        <time>2021-08-24T09:44:31Z</time>
      </trkpt>
      <trkpt lat="45.45274" lon="5.81793">
        <ele>909.8</ele>
        <time>2021-08-24T09:44:33Z</time>
      </trkpt>
      <trkpt lat="45.45274" lon="5.81793">
        <ele>909.9</ele>
        <time>2021-08-24T09:44:34Z</time>
      </trkpt>
      <trkpt lat="45.45274" lon="5.81792">
        <ele>909.9</ele>
        <time>2021-08-24T09:44:36Z</time>
      </trkpt>
      <trkpt lat="45.45273" lon="5.81792">
        <ele>909.9</ele>
        <time>2021-08-24T09:44:37Z</time>
      </trkpt>
      <trkpt lat="45.45272" lon="5.81791">
        <ele>910</ele>
        <time>2021-08-24T09:44:39Z</time>
      </trkpt>
      <trkpt lat="45.45272" lon="5.81791">
        <ele>910</ele>
        <time>2021-08-24T09:44:40Z</time>
      </trkpt>
      <trkpt lat="45.45271" lon="5.8179">
        <ele>910</ele>
        <time>2021-08-24T09:44:41Z</time>
      </trkpt>
      <trkpt lat="45.4527" lon="5.81789">
        <ele>910.1</ele>
        <time>2021-08-24T09:44:43Z</time>
      </trkpt>
      <trkpt lat="45.45269" lon="5.81788">
        <ele>910.1</ele>
        <time>2021-08-24T09:44:44Z</time>
      </trkpt>
      <trkpt lat="45.45269" lon="5.81787">
        <ele>910.2</ele>
        <time>2021-08-24T09:44:45Z</time>
      </trkpt>
      <trkpt lat="45.45268" lon="5.81786">
        <ele>910.2</ele>
        <time>2021-08-24T09:44:46Z</time>
      </trkpt>
      <trkpt lat="45.45268" lon="5.81785">
        <ele>910.2</ele>
        <time>2021-08-24T09:44:48Z</time>
      </trkpt>
      <trkpt lat="45.45268" lon="5.81785">
        <ele>910.2</ele>
        <time>2021-08-24T09:44:49Z</time>
      </trkpt>
      <trkpt lat="45.45267" lon="5.81785">
        <ele>910.2</ele>
        <time>2021-08-24T09:44:50Z</time>
      </trkpt>
      <trkpt lat="45.45267" lon="5.81785">
        <ele>910.3</ele>
        <time>2021-08-24T09:44:52Z</time>
      </trkpt>
      <trkpt lat="45.45266" lon="5.81785">
        <ele>910.3</ele>
        <time>2021-08-24T09:44:53Z</time>
      </trkpt>
      <trkpt lat="45.45266" lon="5.81785">
        <ele>910.3</ele>
        <time>2021-08-24T09:44:54Z</time>
      </trkpt>
      <trkpt lat="45.45266" lon="5.81785">
        <ele>910.3</ele>
        <time>2021-08-24T09:44:55Z</time>
      </trkpt>
      <trkpt lat="45.45266" lon="5.81785">
        <ele>910.3</ele>
        <time>2021-08-24T09:44:56Z</time>
      </trkpt>
      <trkpt lat="45.45266" lon="5.81785">
        <ele>910.3</ele>
        <time>2021-08-24T09:44:58Z</time>
      </trkpt>
      <trkpt lat="45.45266" lon="5.81785">
        <ele>910.3</ele>
        <time>2021-08-24T09:44:59Z</time>
      </trkpt>
      <trkpt lat="45.45266" lon="5.81785">
        <ele>910.3</ele>
        <time>2021-08-24T09:45:00Z</time>
      </trkpt>
      <trkpt lat="45.45265" lon="5.81784">
        <ele>910.3</ele>
        <time>2021-08-24T09:45:02Z</time>
      </trkpt>
      <trkpt lat="45.45265" lon="5.81783">
        <ele>910.3</ele>
        <time>2021-08-24T09:45:03Z</time>
      </trkpt>
      <trkpt lat="45.45265" lon="5.81783">
        <ele>910.4</ele>
        <time>2021-08-24T09:45:04Z</time>
      </trkpt>
      <trkpt lat="45.45265" lon="5.81783">
        <ele>910.4</ele>
        <time>2021-08-24T09:45:06Z</time>
      </trkpt>
      <trkpt lat="45.45265" lon="5.81784">
        <ele>910.4</ele>
        <time>2021-08-24T09:45:07Z</time>
      </trkpt>
      <trkpt lat="45.45265" lon="5.81784">
        <ele>910.4</ele>
        <time>2021-08-24T09:45:09Z</time>
      </trkpt>
      <trkpt lat="45.45266" lon="5.81784">
        <ele>910.4</ele>
        <time>2021-08-24T09:45:10Z</time>
      </trkpt>
      <trkpt lat="45.45266" lon="5.81784">
        <ele>910.4</ele>
        <time>2021-08-24T09:45:11Z</time>
      </trkpt>
      <trkpt lat="45.45266" lon="5.81784">
        <ele>910.4</ele>
        <time>2021-08-24T09:45:12Z</time>
      </trkpt>
      <trkpt lat="45.45266" lon="5.81783">
        <ele>910.4</ele>
        <time>2021-08-24T09:45:14Z</time>
      </trkpt>
      <trkpt lat="45.45266" lon="5.81782">
        <ele>910.5</ele>
        <time>2021-08-24T09:45:15Z</time>
      </trkpt>
      <trkpt lat="45.45266" lon="5.81781">
        <ele>910.5</ele>
        <time>2021-08-24T09:45:16Z</time>
      </trkpt>
      <trkpt lat="45.45266" lon="5.8178">
        <ele>910.5</ele>
        <time>2021-08-24T09:45:18Z</time>
      </trkpt>
      <trkpt lat="45.45266" lon="5.81778">
        <ele>910.5</ele>
        <time>2021-08-24T09:45:20Z</time>
      </trkpt>
      <trkpt lat="45.45266" lon="5.81777">
        <ele>910.6</ele>
        <time>2021-08-24T09:45:23Z</time>
      </trkpt>
      <trkpt lat="45.45266" lon="5.81778">
        <ele>910.6</ele>
        <time>2021-08-24T09:45:25Z</time>
      </trkpt>
      <trkpt lat="45.45267" lon="5.81778">
        <ele>910.6</ele>
        <time>2021-08-24T09:45:27Z</time>
      </trkpt>
      <trkpt lat="45.45267" lon="5.81778">
        <ele>910.6</ele>
        <time>2021-08-24T09:45:28Z</time>
      </trkpt>
      <trkpt lat="45.45268" lon="5.81778">
        <ele>910.7</ele>
        <time>2021-08-24T09:45:29Z</time>
      </trkpt>
      <trkpt lat="45.45269" lon="5.81777">
        <ele>910.7</ele>
        <time>2021-08-24T09:45:31Z</time>
      </trkpt>
      <trkpt lat="45.45269" lon="5.81777">
        <ele>910.7</ele>
        <time>2021-08-24T09:45:32Z</time>
      </trkpt>
      <trkpt lat="45.45269" lon="5.81777">
        <ele>910.7</ele>
        <time>2021-08-24T09:45:34Z</time>
      </trkpt>
      <trkpt lat="45.45269" lon="5.81777">
        <ele>910.7</ele>
        <time>2021-08-24T09:45:35Z</time>
      </trkpt>
      <trkpt lat="45.45269" lon="5.81777">
        <ele>910.7</ele>
        <time>2021-08-24T09:45:36Z</time>
      </trkpt>
      <trkpt lat="45.45269" lon="5.81777">
        <ele>910.7</ele>
        <time>2021-08-24T09:45:39Z</time>
      </trkpt>
      <trkpt lat="45.45269" lon="5.81777">
        <ele>910.7</ele>
        <time>2021-08-24T09:45:44Z</time>
      </trkpt>
      <trkpt lat="45.45269" lon="5.81776">
        <ele>910.7</ele>
        <time>2021-08-24T09:45:46Z</time>
      </trkpt>
      <trkpt lat="45.45269" lon="5.81776">
        <ele>910.7</ele>
        <time>2021-08-24T09:45:49Z</time>
      </trkpt>
      <trkpt lat="45.45269" lon="5.81776">
        <ele>910.8</ele>
        <time>2021-08-24T09:45:51Z</time>
      </trkpt>
      <trkpt lat="45.4527" lon="5.81775">
        <ele>910.8</ele>
        <time>2021-08-24T09:45:52Z</time>
      </trkpt>
      <trkpt lat="45.4527" lon="5.81775">
        <ele>910.8</ele>
        <time>2021-08-24T09:45:54Z</time>
      </trkpt>
      <trkpt lat="45.4527" lon="5.81775">
        <ele>910.8</ele>
        <time>2021-08-24T09:45:56Z</time>
      </trkpt>
      <trkpt lat="45.45269" lon="5.81775">
        <ele>910.8</ele>
        <time>2021-08-24T09:45:57Z</time>
      </trkpt>
      <trkpt lat="45.45269" lon="5.81775">
        <ele>910.8</ele>
        <time>2021-08-24T09:45:58Z</time>
      </trkpt>
      <trkpt lat="45.45269" lon="5.81775">
        <ele>910.8</ele>
        <time>2021-08-24T09:45:59Z</time>
      </trkpt>
      <trkpt lat="45.45269" lon="5.81775">
        <ele>910.8</ele>
        <time>2021-08-24T09:46:01Z</time>
      </trkpt>
      <trkpt lat="45.45268" lon="5.81775">
        <ele>910.8</ele>
        <time>2021-08-24T09:46:02Z</time>
      </trkpt>
      <trkpt lat="45.45268" lon="5.81775">
        <ele>910.8</ele>
        <time>2021-08-24T09:46:03Z</time>
      </trkpt>
      <trkpt lat="45.45268" lon="5.81775">
        <ele>910.9</ele>
        <time>2021-08-24T09:46:04Z</time>
      </trkpt>
      <trkpt lat="45.45267" lon="5.81775">
        <ele>910.9</ele>
        <time>2021-08-24T09:46:05Z</time>
      </trkpt>
      <trkpt lat="45.45267" lon="5.81775">
        <ele>910.9</ele>
        <time>2021-08-24T09:46:07Z</time>
      </trkpt>
      <trkpt lat="45.45267" lon="5.81775">
        <ele>910.9</ele>
        <time>2021-08-24T09:46:08Z</time>
      </trkpt>
      <trkpt lat="45.45266" lon="5.81775">
        <ele>910.9</ele>
        <time>2021-08-24T09:46:09Z</time>
      </trkpt>
      <trkpt lat="45.45266" lon="5.81776">
        <ele>911</ele>
        <time>2021-08-24T09:46:11Z</time>
      </trkpt>
      <trkpt lat="45.45265" lon="5.81776">
        <ele>911</ele>
        <time>2021-08-24T09:46:12Z</time>
      </trkpt>
      <trkpt lat="45.45265" lon="5.81776">
        <ele>911</ele>
        <time>2021-08-24T09:46:13Z</time>
      </trkpt>
      <trkpt lat="45.45265" lon="5.81777">
        <ele>911</ele>
        <time>2021-08-24T09:46:14Z</time>
      </trkpt>
      <trkpt lat="45.45264" lon="5.81777">
        <ele>911</ele>
        <time>2021-08-24T09:46:15Z</time>
      </trkpt>
      <trkpt lat="45.45264" lon="5.81777">
        <ele>911.1</ele>
        <time>2021-08-24T09:46:17Z</time>
      </trkpt>
      <trkpt lat="45.45263" lon="5.81778">
        <ele>911.1</ele>
        <time>2021-08-24T09:46:18Z</time>
      </trkpt>
      <trkpt lat="45.45263" lon="5.81778">
        <ele>911.1</ele>
        <time>2021-08-24T09:46:20Z</time>
      </trkpt>
      <trkpt lat="45.45263" lon="5.81778">
        <ele>911.1</ele>
        <time>2021-08-24T09:46:21Z</time>
      </trkpt>
      <trkpt lat="45.45262" lon="5.81779">
        <ele>911.2</ele>
        <time>2021-08-24T09:46:22Z</time>
      </trkpt>
      <trkpt lat="45.45262" lon="5.8178">
        <ele>911.2</ele>
        <time>2021-08-24T09:46:23Z</time>
      </trkpt>
      <trkpt lat="45.45257" lon="5.81778">
        <ele>911.6</ele>
        <time>2021-08-24T09:46:25Z</time>
      </trkpt>
      <trkpt lat="45.45242" lon="5.8177">
        <ele>912.6</ele>
        <time>2021-08-24T09:46:26Z</time>
      </trkpt>
      <trkpt lat="45.45218" lon="5.81759">
        <ele>913.7</ele>
        <time>2021-08-24T09:46:27Z</time>
      </trkpt>
      <trkpt lat="45.45208" lon="5.81756">
        <ele>914</ele>
        <time>2021-08-24T09:46:28Z</time>
      </trkpt>
      <trkpt lat="45.45205" lon="5.81756">
        <ele>914.1</ele>
        <time>2021-08-24T09:46:29Z</time>
      </trkpt>
      <trkpt lat="45.45205" lon="5.81757">
        <ele>914.1</ele>
        <time>2021-08-24T09:46:30Z</time>
      </trkpt>
      <trkpt lat="45.45207" lon="5.8176">
        <ele>914.2</ele>
        <time>2021-08-24T09:46:32Z</time>
      </trkpt>
      <trkpt lat="45.45208" lon="5.81761">
        <ele>914.2</ele>
        <time>2021-08-24T09:46:33Z</time>
      </trkpt>
      <trkpt lat="45.45209" lon="5.81762">
        <ele>914.2</ele>
        <time>2021-08-24T09:46:34Z</time>
      </trkpt>
      <trkpt lat="45.45211" lon="5.81763">
        <ele>914.3</ele>
        <time>2021-08-24T09:46:36Z</time>
      </trkpt>
      <trkpt lat="45.45212" lon="5.81764">
        <ele>914.3</ele>
        <time>2021-08-24T09:46:37Z</time>
      </trkpt>
      <trkpt lat="45.45213" lon="5.81765">
        <ele>914.4</ele>
        <time>2021-08-24T09:46:38Z</time>
      </trkpt>
      <trkpt lat="45.45214" lon="5.81765">
        <ele>914.4</ele>
        <time>2021-08-24T09:46:40Z</time>
      </trkpt>
      <trkpt lat="45.45214" lon="5.81766">
        <ele>914.4</ele>
        <time>2021-08-24T09:46:41Z</time>
      </trkpt>
      <trkpt lat="45.45215" lon="5.81767">
        <ele>914.4</ele>
        <time>2021-08-24T09:46:43Z</time>
      </trkpt>
      <trkpt lat="45.45215" lon="5.81767">
        <ele>914.4</ele>
        <time>2021-08-24T09:46:44Z</time>
      </trkpt>
      <trkpt lat="45.45216" lon="5.81768">
        <ele>914.4</ele>
        <time>2021-08-24T09:46:46Z</time>
      </trkpt>
      <trkpt lat="45.45216" lon="5.81768">
        <ele>914.4</ele>
        <time>2021-08-24T09:46:47Z</time>
      </trkpt>
      <trkpt lat="45.45216" lon="5.81769">
        <ele>914.5</ele>
        <time>2021-08-24T09:46:48Z</time>
      </trkpt>
      <trkpt lat="45.45217" lon="5.8177">
        <ele>914.5</ele>
        <time>2021-08-24T09:46:50Z</time>
      </trkpt>
      <trkpt lat="45.45218" lon="5.81771">
        <ele>914.5</ele>
        <time>2021-08-24T09:46:52Z</time>
      </trkpt>
      <trkpt lat="45.45218" lon="5.81772">
        <ele>914.5</ele>
        <time>2021-08-24T09:46:53Z</time>
      </trkpt>
      <trkpt lat="45.45219" lon="5.81772">
        <ele>914.5</ele>
        <time>2021-08-24T09:46:54Z</time>
      </trkpt>
      <trkpt lat="45.45219" lon="5.81773">
        <ele>914.5</ele>
        <time>2021-08-24T09:46:55Z</time>
      </trkpt>
      <trkpt lat="45.45218" lon="5.81773">
        <ele>914.5</ele>
        <time>2021-08-24T09:46:57Z</time>
      </trkpt>
      <trkpt lat="45.45218" lon="5.81773">
        <ele>914.6</ele>
        <time>2021-08-24T09:46:58Z</time>
      </trkpt>
      <trkpt lat="45.45217" lon="5.81773">
        <ele>914.6</ele>
        <time>2021-08-24T09:47:00Z</time>
      </trkpt>
      <trkpt lat="45.45216" lon="5.81772">
        <ele>914.6</ele>
        <time>2021-08-24T09:47:02Z</time>
      </trkpt>
      <trkpt lat="45.45215" lon="5.81772">
        <ele>914.6</ele>
        <time>2021-08-24T09:47:03Z</time>
      </trkpt>
      <trkpt lat="45.45215" lon="5.81772">
        <ele>914.6</ele>
        <time>2021-08-24T09:47:04Z</time>
      </trkpt>
      <trkpt lat="45.45216" lon="5.81773">
        <ele>914.6</ele>
        <time>2021-08-24T09:47:06Z</time>
      </trkpt>
      <trkpt lat="45.45216" lon="5.81774">
        <ele>914.6</ele>
        <time>2021-08-24T09:47:07Z</time>
      </trkpt>
      <trkpt lat="45.45217" lon="5.81775">
        <ele>914.6</ele>
        <time>2021-08-24T09:47:08Z</time>
      </trkpt>
      <trkpt lat="45.45218" lon="5.81776">
        <ele>914.6</ele>
        <time>2021-08-24T09:47:10Z</time>
      </trkpt>
      <trkpt lat="45.45218" lon="5.81777">
        <ele>914.6</ele>
        <time>2021-08-24T09:47:12Z</time>
      </trkpt>
      <trkpt lat="45.45218" lon="5.81777">
        <ele>914.6</ele>
        <time>2021-08-24T09:47:13Z</time>
      </trkpt>
      <trkpt lat="45.45218" lon="5.81778">
        <ele>914.6</ele>
        <time>2021-08-24T09:47:14Z</time>
      </trkpt>
      <trkpt lat="45.45217" lon="5.81778">
        <ele>914.6</ele>
        <time>2021-08-24T09:47:16Z</time>
      </trkpt>
      <trkpt lat="45.45217" lon="5.81779">
        <ele>914.7</ele>
        <time>2021-08-24T09:47:17Z</time>
      </trkpt>
      <trkpt lat="45.45218" lon="5.81781">
        <ele>914.7</ele>
        <time>2021-08-24T09:47:19Z</time>
      </trkpt>
      <trkpt lat="45.45218" lon="5.81784">
        <ele>914.7</ele>
        <time>2021-08-24T09:47:20Z</time>
      </trkpt>
      <trkpt lat="45.45218" lon="5.81785">
        <ele>914.7</ele>
        <time>2021-08-24T09:47:21Z</time>
      </trkpt>
      <trkpt lat="45.45217" lon="5.81788">
        <ele>914.7</ele>
        <time>2021-08-24T09:47:22Z</time>
      </trkpt>
      <trkpt lat="45.45216" lon="5.81789">
        <ele>914.7</ele>
        <time>2021-08-24T09:47:24Z</time>
      </trkpt>
      <trkpt lat="45.45215" lon="5.8179">
        <ele>914.7</ele>
        <time>2021-08-24T09:47:25Z</time>
      </trkpt>
      <trkpt lat="45.45211" lon="5.8179">
        <ele>914.7</ele>
        <time>2021-08-24T09:47:27Z</time>
      </trkpt>
      <trkpt lat="45.45208" lon="5.81791">
        <ele>914.7</ele>
        <time>2021-08-24T09:47:28Z</time>
      </trkpt>
      <trkpt lat="45.45203" lon="5.81789">
        <ele>914.6</ele>
        <time>2021-08-24T09:47:30Z</time>
      </trkpt>
      <trkpt lat="45.45198" lon="5.81788">
        <ele>915</ele>
        <time>2021-08-24T09:47:32Z</time>
      </trkpt>
      <trkpt lat="45.45195" lon="5.81786">
        <ele>915.2</ele>
        <time>2021-08-24T09:47:33Z</time>
      </trkpt>
      <trkpt lat="45.45191" lon="5.81784">
        <ele>915.4</ele>
        <time>2021-08-24T09:47:34Z</time>
      </trkpt>
      <trkpt lat="45.45189" lon="5.81782">
        <ele>915.6</ele>
        <time>2021-08-24T09:47:35Z</time>
      </trkpt>
      <trkpt lat="45.45186" lon="5.81781">
        <ele>915.8</ele>
        <time>2021-08-24T09:47:36Z</time>
      </trkpt>
      <trkpt lat="45.45181" lon="5.81778">
        <ele>916</ele>
        <time>2021-08-24T09:47:38Z</time>
      </trkpt>
      <trkpt lat="45.45177" lon="5.81775">
        <ele>916.3</ele>
        <time>2021-08-24T09:47:39Z</time>
      </trkpt>
      <trkpt lat="45.45175" lon="5.81774">
        <ele>916.4</ele>
        <time>2021-08-24T09:47:40Z</time>
      </trkpt>
      <trkpt lat="45.45172" lon="5.81773">
        <ele>916.6</ele>
        <time>2021-08-24T09:47:42Z</time>
      </trkpt>
      <trkpt lat="45.45169" lon="5.81771">
        <ele>916.8</ele>
        <time>2021-08-24T09:47:43Z</time>
      </trkpt>
      <trkpt lat="45.45167" lon="5.8177">
        <ele>916.9</ele>
        <time>2021-08-24T09:47:44Z</time>
      </trkpt>
      <trkpt lat="45.45164" lon="5.81769">
        <ele>917.1</ele>
        <time>2021-08-24T09:47:46Z</time>
      </trkpt>
      <trkpt lat="45.45161" lon="5.81766">
        <ele>917.3</ele>
        <time>2021-08-24T09:47:48Z</time>
      </trkpt>
      <trkpt lat="45.45158" lon="5.81765">
        <ele>917.5</ele>
        <time>2021-08-24T09:47:49Z</time>
      </trkpt>
      <trkpt lat="45.45154" lon="5.81763">
        <ele>917.8</ele>
        <time>2021-08-24T09:47:51Z</time>
      </trkpt>
      <trkpt lat="45.45152" lon="5.81762">
        <ele>917.9</ele>
        <time>2021-08-24T09:47:53Z</time>
      </trkpt>
      <trkpt lat="45.4515" lon="5.81761">
        <ele>918</ele>
        <time>2021-08-24T09:47:54Z</time>
      </trkpt>
      <trkpt lat="45.45149" lon="5.8176">
        <ele>918.1</ele>
        <time>2021-08-24T09:47:55Z</time>
      </trkpt>
      <trkpt lat="45.45146" lon="5.81758">
        <ele>918.3</ele>
        <time>2021-08-24T09:47:56Z</time>
      </trkpt>
      <trkpt lat="45.45145" lon="5.81758">
        <ele>918.3</ele>
        <time>2021-08-24T09:47:57Z</time>
      </trkpt>
      <trkpt lat="45.45144" lon="5.81755">
        <ele>918.5</ele>
        <time>2021-08-24T09:47:58Z</time>
      </trkpt>
      <trkpt lat="45.45142" lon="5.81749">
        <ele>918.8</ele>
        <time>2021-08-24T09:48:00Z</time>
      </trkpt>
      <trkpt lat="45.4514" lon="5.81743">
        <ele>919.1</ele>
        <time>2021-08-24T09:48:02Z</time>
      </trkpt>
      <trkpt lat="45.45138" lon="5.81738">
        <ele>919.3</ele>
        <time>2021-08-24T09:48:03Z</time>
      </trkpt>
      <trkpt lat="45.45138" lon="5.81737">
        <ele>919.4</ele>
        <time>2021-08-24T09:48:04Z</time>
      </trkpt>
      <trkpt lat="45.45136" lon="5.81732">
        <ele>919.7</ele>
        <time>2021-08-24T09:48:05Z</time>
      </trkpt>
      <trkpt lat="45.45135" lon="5.8173">
        <ele>919.8</ele>
        <time>2021-08-24T09:48:06Z</time>
      </trkpt>
      <trkpt lat="45.45134" lon="5.81727">
        <ele>919.9</ele>
        <time>2021-08-24T09:48:07Z</time>
      </trkpt>
      <trkpt lat="45.45133" lon="5.81724">
        <ele>920.1</ele>
        <time>2021-08-24T09:48:09Z</time>
      </trkpt>
      <trkpt lat="45.45132" lon="5.8172">
        <ele>920.4</ele>
        <time>2021-08-24T09:48:10Z</time>
      </trkpt>
      <trkpt lat="45.45131" lon="5.81719">
        <ele>920.5</ele>
        <time>2021-08-24T09:48:11Z</time>
      </trkpt>
      <trkpt lat="45.45129" lon="5.81713">
        <ele>920.8</ele>
        <time>2021-08-24T09:48:13Z</time>
      </trkpt>
      <trkpt lat="45.45128" lon="5.81712">
        <ele>920.9</ele>
        <time>2021-08-24T09:48:15Z</time>
      </trkpt>
      <trkpt lat="45.45127" lon="5.81711">
        <ele>921.1</ele>
        <time>2021-08-24T09:48:16Z</time>
      </trkpt>
      <trkpt lat="45.45126" lon="5.8171">
        <ele>921.1</ele>
        <time>2021-08-24T09:48:17Z</time>
      </trkpt>
      <trkpt lat="45.45126" lon="5.81709">
        <ele>921.2</ele>
        <time>2021-08-24T09:48:18Z</time>
      </trkpt>
      <trkpt lat="45.45125" lon="5.81708">
        <ele>921.3</ele>
        <time>2021-08-24T09:48:19Z</time>
      </trkpt>
      <trkpt lat="45.45125" lon="5.81708">
        <ele>921.3</ele>
        <time>2021-08-24T09:48:20Z</time>
      </trkpt>
      <trkpt lat="45.45124" lon="5.81707">
        <ele>921.3</ele>
        <time>2021-08-24T09:48:21Z</time>
      </trkpt>
      <trkpt lat="45.45124" lon="5.81707">
        <ele>921.4</ele>
        <time>2021-08-24T09:48:22Z</time>
      </trkpt>
      <trkpt lat="45.45123" lon="5.81705">
        <ele>921.5</ele>
        <time>2021-08-24T09:48:24Z</time>
      </trkpt>
      <trkpt lat="45.45122" lon="5.81705">
        <ele>921.6</ele>
        <time>2021-08-24T09:48:25Z</time>
      </trkpt>
      <trkpt lat="45.4512" lon="5.81704">
        <ele>921.8</ele>
        <time>2021-08-24T09:48:26Z</time>
      </trkpt>
      <trkpt lat="45.45119" lon="5.81703">
        <ele>921.9</ele>
        <time>2021-08-24T09:48:27Z</time>
      </trkpt>
      <trkpt lat="45.45118" lon="5.81703">
        <ele>921.9</ele>
        <time>2021-08-24T09:48:29Z</time>
      </trkpt>
      <trkpt lat="45.45118" lon="5.81703">
        <ele>922</ele>
        <time>2021-08-24T09:48:30Z</time>
      </trkpt>
      <trkpt lat="45.45117" lon="5.81702">
        <ele>922.1</ele>
        <time>2021-08-24T09:48:31Z</time>
      </trkpt>
      <trkpt lat="45.45116" lon="5.81702">
        <ele>922.2</ele>
        <time>2021-08-24T09:48:32Z</time>
      </trkpt>
      <trkpt lat="45.45114" lon="5.817">
        <ele>922.4</ele>
        <time>2021-08-24T09:48:34Z</time>
      </trkpt>
      <trkpt lat="45.45112" lon="5.81699">
        <ele>922.6</ele>
        <time>2021-08-24T09:48:36Z</time>
      </trkpt>
      <trkpt lat="45.45111" lon="5.81697">
        <ele>922.7</ele>
        <time>2021-08-24T09:48:37Z</time>
      </trkpt>
      <trkpt lat="45.45109" lon="5.81695">
        <ele>922.9</ele>
        <time>2021-08-24T09:48:39Z</time>
      </trkpt>
      <trkpt lat="45.45107" lon="5.81694">
        <ele>923.1</ele>
        <time>2021-08-24T09:48:41Z</time>
      </trkpt>
      <trkpt lat="45.45106" lon="5.81693">
        <ele>923.2</ele>
        <time>2021-08-24T09:48:42Z</time>
      </trkpt>
      <trkpt lat="45.45104" lon="5.81691">
        <ele>923.4</ele>
        <time>2021-08-24T09:48:43Z</time>
      </trkpt>
      <trkpt lat="45.45103" lon="5.8169">
        <ele>923.5</ele>
        <time>2021-08-24T09:48:44Z</time>
      </trkpt>
      <trkpt lat="45.451" lon="5.81689">
        <ele>923.8</ele>
        <time>2021-08-24T09:48:46Z</time>
      </trkpt>
      <trkpt lat="45.451" lon="5.81688">
        <ele>923.8</ele>
        <time>2021-08-24T09:48:47Z</time>
      </trkpt>
      <trkpt lat="45.45098" lon="5.81687">
        <ele>924</ele>
        <time>2021-08-24T09:48:48Z</time>
      </trkpt>
      <trkpt lat="45.45096" lon="5.81686">
        <ele>924.2</ele>
        <time>2021-08-24T09:48:49Z</time>
      </trkpt>
      <trkpt lat="45.45095" lon="5.81684">
        <ele>924.3</ele>
        <time>2021-08-24T09:48:50Z</time>
      </trkpt>
      <trkpt lat="45.45094" lon="5.81683">
        <ele>924.5</ele>
        <time>2021-08-24T09:48:51Z</time>
      </trkpt>
      <trkpt lat="45.45093" lon="5.81682">
        <ele>924.6</ele>
        <time>2021-08-24T09:48:52Z</time>
      </trkpt>
      <trkpt lat="45.45092" lon="5.81681">
        <ele>924.7</ele>
        <time>2021-08-24T09:48:53Z</time>
      </trkpt>
      <trkpt lat="45.45092" lon="5.8168">
        <ele>924.8</ele>
        <time>2021-08-24T09:48:54Z</time>
      </trkpt>
      <trkpt lat="45.45091" lon="5.81679">
        <ele>924.9</ele>
        <time>2021-08-24T09:48:55Z</time>
      </trkpt>
      <trkpt lat="45.4509" lon="5.81678">
        <ele>925</ele>
        <time>2021-08-24T09:48:56Z</time>
      </trkpt>
      <trkpt lat="45.45089" lon="5.81677">
        <ele>925</ele>
        <time>2021-08-24T09:48:57Z</time>
      </trkpt>
      <trkpt lat="45.45088" lon="5.81676">
        <ele>925.2</ele>
        <time>2021-08-24T09:48:58Z</time>
      </trkpt>
      <trkpt lat="45.45087" lon="5.81675">
        <ele>925.3</ele>
        <time>2021-08-24T09:49:00Z</time>
      </trkpt>
      <trkpt lat="45.45086" lon="5.81675">
        <ele>925.4</ele>
        <time>2021-08-24T09:49:01Z</time>
      </trkpt>
      <trkpt lat="45.45084" lon="5.81674">
        <ele>925.6</ele>
        <time>2021-08-24T09:49:03Z</time>
      </trkpt>
      <trkpt lat="45.45082" lon="5.81674">
        <ele>925.7</ele>
        <time>2021-08-24T09:49:04Z</time>
      </trkpt>
      <trkpt lat="45.45081" lon="5.81674">
        <ele>925.8</ele>
        <time>2021-08-24T09:49:05Z</time>
      </trkpt>
      <trkpt lat="45.45077" lon="5.81672">
        <ele>926.2</ele>
        <time>2021-08-24T09:49:07Z</time>
      </trkpt>
      <trkpt lat="45.45075" lon="5.81671">
        <ele>926.4</ele>
        <time>2021-08-24T09:49:08Z</time>
      </trkpt>
      <trkpt lat="45.45074" lon="5.8167">
        <ele>926.5</ele>
        <time>2021-08-24T09:49:09Z</time>
      </trkpt>
      <trkpt lat="45.45073" lon="5.81669">
        <ele>926.7</ele>
        <time>2021-08-24T09:49:10Z</time>
      </trkpt>
      <trkpt lat="45.45071" lon="5.81668">
        <ele>926.8</ele>
        <time>2021-08-24T09:49:11Z</time>
      </trkpt>
      <trkpt lat="45.45068" lon="5.81666">
        <ele>927.1</ele>
        <time>2021-08-24T09:49:13Z</time>
      </trkpt>
      <trkpt lat="45.45066" lon="5.81666">
        <ele>927.2</ele>
        <time>2021-08-24T09:49:14Z</time>
      </trkpt>
      <trkpt lat="45.45065" lon="5.81665">
        <ele>927.4</ele>
        <time>2021-08-24T09:49:15Z</time>
      </trkpt>
      <trkpt lat="45.45062" lon="5.81663">
        <ele>927.6</ele>
        <time>2021-08-24T09:49:16Z</time>
      </trkpt>
      <trkpt lat="45.4506" lon="5.81663">
        <ele>927.7</ele>
        <time>2021-08-24T09:49:17Z</time>
      </trkpt>
      <trkpt lat="45.45058" lon="5.81662">
        <ele>928</ele>
        <time>2021-08-24T09:49:19Z</time>
      </trkpt>
      <trkpt lat="45.45057" lon="5.81661">
        <ele>928.1</ele>
        <time>2021-08-24T09:49:20Z</time>
      </trkpt>
      <trkpt lat="45.45055" lon="5.8166">
        <ele>928.2</ele>
        <time>2021-08-24T09:49:21Z</time>
      </trkpt>
      <trkpt lat="45.45052" lon="5.81658">
        <ele>928.4</ele>
        <time>2021-08-24T09:49:23Z</time>
      </trkpt>
      <trkpt lat="45.4505" lon="5.81657">
        <ele>928.7</ele>
        <time>2021-08-24T09:49:24Z</time>
      </trkpt>
      <trkpt lat="45.45048" lon="5.81656">
        <ele>928.8</ele>
        <time>2021-08-24T09:49:26Z</time>
      </trkpt>
      <trkpt lat="45.45046" lon="5.81655">
        <ele>929</ele>
        <time>2021-08-24T09:49:27Z</time>
      </trkpt>
      <trkpt lat="45.45045" lon="5.81655">
        <ele>929.1</ele>
        <time>2021-08-24T09:49:28Z</time>
      </trkpt>
      <trkpt lat="45.45041" lon="5.81653">
        <ele>929.4</ele>
        <time>2021-08-24T09:49:30Z</time>
      </trkpt>
      <trkpt lat="45.45039" lon="5.81652">
        <ele>929.6</ele>
        <time>2021-08-24T09:49:31Z</time>
      </trkpt>
      <trkpt lat="45.45038" lon="5.81652">
        <ele>929.7</ele>
        <time>2021-08-24T09:49:32Z</time>
      </trkpt>
      <trkpt lat="45.45037" lon="5.81652">
        <ele>929.8</ele>
        <time>2021-08-24T09:49:33Z</time>
      </trkpt>
      <trkpt lat="45.45035" lon="5.81651">
        <ele>929.9</ele>
        <time>2021-08-24T09:49:34Z</time>
      </trkpt>
      <trkpt lat="45.45033" lon="5.8165">
        <ele>930.2</ele>
        <time>2021-08-24T09:49:36Z</time>
      </trkpt>
      <trkpt lat="45.45031" lon="5.8165">
        <ele>930.3</ele>
        <time>2021-08-24T09:49:37Z</time>
      </trkpt>
      <trkpt lat="45.45028" lon="5.81648">
        <ele>930.6</ele>
        <time>2021-08-24T09:49:39Z</time>
      </trkpt>
      <trkpt lat="45.45027" lon="5.81647">
        <ele>930.7</ele>
        <time>2021-08-24T09:49:40Z</time>
      </trkpt>
      <trkpt lat="45.45024" lon="5.81646">
        <ele>930.9</ele>
        <time>2021-08-24T09:49:42Z</time>
      </trkpt>
      <trkpt lat="45.45021" lon="5.81644">
        <ele>931.2</ele>
        <time>2021-08-24T09:49:44Z</time>
      </trkpt>
      <trkpt lat="45.4502" lon="5.81644">
        <ele>931.3</ele>
        <time>2021-08-24T09:49:45Z</time>
      </trkpt>
      <trkpt lat="45.45017" lon="5.81643">
        <ele>931.5</ele>
        <time>2021-08-24T09:49:47Z</time>
      </trkpt>
      <trkpt lat="45.45016" lon="5.81643">
        <ele>931.7</ele>
        <time>2021-08-24T09:49:49Z</time>
      </trkpt>
      <trkpt lat="45.45013" lon="5.81641">
        <ele>931.9</ele>
        <time>2021-08-24T09:49:51Z</time>
      </trkpt>
      <trkpt lat="45.45012" lon="5.81641">
        <ele>932</ele>
        <time>2021-08-24T09:49:52Z</time>
      </trkpt>
      <trkpt lat="45.4501" lon="5.8164">
        <ele>932.2</ele>
        <time>2021-08-24T09:49:53Z</time>
      </trkpt>
      <trkpt lat="45.45008" lon="5.81639">
        <ele>932.4</ele>
        <time>2021-08-24T09:49:54Z</time>
      </trkpt>
      <trkpt lat="45.45007" lon="5.81638">
        <ele>932.5</ele>
        <time>2021-08-24T09:49:55Z</time>
      </trkpt>
      <trkpt lat="45.45004" lon="5.81636">
        <ele>932.8</ele>
        <time>2021-08-24T09:49:57Z</time>
      </trkpt>
      <trkpt lat="45.45003" lon="5.81636">
        <ele>932.9</ele>
        <time>2021-08-24T09:49:58Z</time>
      </trkpt>
      <trkpt lat="45.45001" lon="5.81635">
        <ele>933.1</ele>
        <time>2021-08-24T09:50:00Z</time>
      </trkpt>
      <trkpt lat="45.44998" lon="5.81634">
        <ele>933.4</ele>
        <time>2021-08-24T09:50:02Z</time>
      </trkpt>
      <trkpt lat="45.44996" lon="5.81633">
        <ele>933.6</ele>
        <time>2021-08-24T09:50:03Z</time>
      </trkpt>
      <trkpt lat="45.44994" lon="5.81633">
        <ele>933.7</ele>
        <time>2021-08-24T09:50:04Z</time>
      </trkpt>
      <trkpt lat="45.44993" lon="5.81632">
        <ele>933.8</ele>
        <time>2021-08-24T09:50:05Z</time>
      </trkpt>
      <trkpt lat="45.4499" lon="5.8163">
        <ele>934.1</ele>
        <time>2021-08-24T09:50:07Z</time>
      </trkpt>
      <trkpt lat="45.44989" lon="5.81629">
        <ele>934.3</ele>
        <time>2021-08-24T09:50:08Z</time>
      </trkpt>
      <trkpt lat="45.44987" lon="5.81626">
        <ele>934.5</ele>
        <time>2021-08-24T09:50:10Z</time>
      </trkpt>
      <trkpt lat="45.44985" lon="5.81624">
        <ele>934.8</ele>
        <time>2021-08-24T09:50:11Z</time>
      </trkpt>
      <trkpt lat="45.44984" lon="5.81623">
        <ele>934.9</ele>
        <time>2021-08-24T09:50:13Z</time>
      </trkpt>
      <trkpt lat="45.44983" lon="5.8162">
        <ele>935.1</ele>
        <time>2021-08-24T09:50:14Z</time>
      </trkpt>
      <trkpt lat="45.44982" lon="5.81619">
        <ele>935.2</ele>
        <time>2021-08-24T09:50:15Z</time>
      </trkpt>
      <trkpt lat="45.44981" lon="5.81618">
        <ele>935.3</ele>
        <time>2021-08-24T09:50:16Z</time>
      </trkpt>
      <trkpt lat="45.4498" lon="5.81616">
        <ele>935.5</ele>
        <time>2021-08-24T09:50:18Z</time>
      </trkpt>
      <trkpt lat="45.44979" lon="5.81614">
        <ele>935.7</ele>
        <time>2021-08-24T09:50:19Z</time>
      </trkpt>
      <trkpt lat="45.44978" lon="5.81612">
        <ele>935.9</ele>
        <time>2021-08-24T09:50:21Z</time>
      </trkpt>
      <trkpt lat="45.44977" lon="5.81611">
        <ele>936</ele>
        <time>2021-08-24T09:50:22Z</time>
      </trkpt>
      <trkpt lat="45.44974" lon="5.81611">
        <ele>936.3</ele>
        <time>2021-08-24T09:50:23Z</time>
      </trkpt>
      <trkpt lat="45.44973" lon="5.81611">
        <ele>936.4</ele>
        <time>2021-08-24T09:50:24Z</time>
      </trkpt>
      <trkpt lat="45.44972" lon="5.8161">
        <ele>936.5</ele>
        <time>2021-08-24T09:50:25Z</time>
      </trkpt>
      <trkpt lat="45.4497" lon="5.81611">
        <ele>936.7</ele>
        <time>2021-08-24T09:50:27Z</time>
      </trkpt>
      <trkpt lat="45.44969" lon="5.8161">
        <ele>936.9</ele>
        <time>2021-08-24T09:50:28Z</time>
      </trkpt>
      <trkpt lat="45.44966" lon="5.8161">
        <ele>937.2</ele>
        <time>2021-08-24T09:50:29Z</time>
      </trkpt>
      <trkpt lat="45.44964" lon="5.81609">
        <ele>937.4</ele>
        <time>2021-08-24T09:50:31Z</time>
      </trkpt>
      <trkpt lat="45.44962" lon="5.81608">
        <ele>937.6</ele>
        <time>2021-08-24T09:50:34Z</time>
      </trkpt>
      <trkpt lat="45.44959" lon="5.81607">
        <ele>937.9</ele>
        <time>2021-08-24T09:50:36Z</time>
      </trkpt>
      <trkpt lat="45.44958" lon="5.81606">
        <ele>938</ele>
        <time>2021-08-24T09:50:37Z</time>
      </trkpt>
      <trkpt lat="45.44956" lon="5.81605">
        <ele>938.2</ele>
        <time>2021-08-24T09:50:38Z</time>
      </trkpt>
      <trkpt lat="45.44953" lon="5.81604">
        <ele>938.6</ele>
        <time>2021-08-24T09:50:40Z</time>
      </trkpt>
      <trkpt lat="45.44952" lon="5.81603">
        <ele>938.6</ele>
        <time>2021-08-24T09:50:41Z</time>
      </trkpt>
      <trkpt lat="45.44949" lon="5.81601">
        <ele>939</ele>
        <time>2021-08-24T09:50:43Z</time>
      </trkpt>
      <trkpt lat="45.44948" lon="5.816">
        <ele>939.1</ele>
        <time>2021-08-24T09:50:44Z</time>
      </trkpt>
      <trkpt lat="45.44946" lon="5.81599">
        <ele>939.3</ele>
        <time>2021-08-24T09:50:45Z</time>
      </trkpt>
      <trkpt lat="45.44944" lon="5.81599">
        <ele>939.5</ele>
        <time>2021-08-24T09:50:47Z</time>
      </trkpt>
      <trkpt lat="45.44943" lon="5.81598">
        <ele>939.6</ele>
        <time>2021-08-24T09:50:48Z</time>
      </trkpt>
      <trkpt lat="45.44941" lon="5.81597">
        <ele>939.8</ele>
        <time>2021-08-24T09:50:49Z</time>
      </trkpt>
      <trkpt lat="45.4494" lon="5.81596">
        <ele>940</ele>
        <time>2021-08-24T09:50:50Z</time>
      </trkpt>
      <trkpt lat="45.44937" lon="5.81593">
        <ele>940.2</ele>
        <time>2021-08-24T09:50:52Z</time>
      </trkpt>
      <trkpt lat="45.44935" lon="5.81589">
        <ele>940.5</ele>
        <time>2021-08-24T09:50:54Z</time>
      </trkpt>
      <trkpt lat="45.44934" lon="5.81585">
        <ele>940.8</ele>
        <time>2021-08-24T09:50:55Z</time>
      </trkpt>
      <trkpt lat="45.44932" lon="5.81581">
        <ele>941.1</ele>
        <time>2021-08-24T09:50:57Z</time>
      </trkpt>
      <trkpt lat="45.44931" lon="5.8158">
        <ele>941.2</ele>
        <time>2021-08-24T09:50:58Z</time>
      </trkpt>
      <trkpt lat="45.4493" lon="5.81578">
        <ele>941.4</ele>
        <time>2021-08-24T09:50:59Z</time>
      </trkpt>
      <trkpt lat="45.44927" lon="5.81575">
        <ele>941.6</ele>
        <time>2021-08-24T09:51:01Z</time>
      </trkpt>
      <trkpt lat="45.44924" lon="5.81571">
        <ele>941.9</ele>
        <time>2021-08-24T09:51:02Z</time>
      </trkpt>
      <trkpt lat="45.44923" lon="5.8157">
        <ele>942</ele>
        <time>2021-08-24T09:51:03Z</time>
      </trkpt>
      <trkpt lat="45.44921" lon="5.81567">
        <ele>942.3</ele>
        <time>2021-08-24T09:51:05Z</time>
      </trkpt>
      <trkpt lat="45.44919" lon="5.81565">
        <ele>942.5</ele>
        <time>2021-08-24T09:51:06Z</time>
      </trkpt>
      <trkpt lat="45.44917" lon="5.81562">
        <ele>942.7</ele>
        <time>2021-08-24T09:51:08Z</time>
      </trkpt>
      <trkpt lat="45.44915" lon="5.8156">
        <ele>942.9</ele>
        <time>2021-08-24T09:51:10Z</time>
      </trkpt>
      <trkpt lat="45.44913" lon="5.81557">
        <ele>943.1</ele>
        <time>2021-08-24T09:51:12Z</time>
      </trkpt>
      <trkpt lat="45.44911" lon="5.81554">
        <ele>943.3</ele>
        <time>2021-08-24T09:51:14Z</time>
      </trkpt>
      <trkpt lat="45.4491" lon="5.81553">
        <ele>943.4</ele>
        <time>2021-08-24T09:51:15Z</time>
      </trkpt>
      <trkpt lat="45.44909" lon="5.81552">
        <ele>943.5</ele>
        <time>2021-08-24T09:51:16Z</time>
      </trkpt>
      <trkpt lat="45.44908" lon="5.8155">
        <ele>943.6</ele>
        <time>2021-08-24T09:51:18Z</time>
      </trkpt>
      <trkpt lat="45.44906" lon="5.81549">
        <ele>943.7</ele>
        <time>2021-08-24T09:51:19Z</time>
      </trkpt>
      <trkpt lat="45.44905" lon="5.81547">
        <ele>943.8</ele>
        <time>2021-08-24T09:51:20Z</time>
      </trkpt>
      <trkpt lat="45.44902" lon="5.81545">
        <ele>944</ele>
        <time>2021-08-24T09:51:21Z</time>
      </trkpt>
      <trkpt lat="45.44901" lon="5.81545">
        <ele>944.1</ele>
        <time>2021-08-24T09:51:22Z</time>
      </trkpt>
      <trkpt lat="45.44898" lon="5.81543">
        <ele>944.3</ele>
        <time>2021-08-24T09:51:24Z</time>
      </trkpt>
      <trkpt lat="45.44897" lon="5.81542">
        <ele>944.4</ele>
        <time>2021-08-24T09:51:25Z</time>
      </trkpt>
      <trkpt lat="45.44893" lon="5.8154">
        <ele>944.6</ele>
        <time>2021-08-24T09:51:27Z</time>
      </trkpt>
      <trkpt lat="45.44891" lon="5.8154">
        <ele>944.7</ele>
        <time>2021-08-24T09:51:28Z</time>
      </trkpt>
      <trkpt lat="45.44886" lon="5.81541">
        <ele>944.9</ele>
        <time>2021-08-24T09:51:29Z</time>
      </trkpt>
      <trkpt lat="45.44883" lon="5.81541">
        <ele>945.1</ele>
        <time>2021-08-24T09:51:31Z</time>
      </trkpt>
      <trkpt lat="45.44882" lon="5.81541">
        <ele>945.1</ele>
        <time>2021-08-24T09:51:32Z</time>
      </trkpt>
      <trkpt lat="45.44878" lon="5.81541">
        <ele>945.3</ele>
        <time>2021-08-24T09:51:33Z</time>
      </trkpt>
      <trkpt lat="45.44877" lon="5.81542">
        <ele>945.3</ele>
        <time>2021-08-24T09:51:34Z</time>
      </trkpt>
      <trkpt lat="45.44873" lon="5.81542">
        <ele>945.5</ele>
        <time>2021-08-24T09:51:36Z</time>
      </trkpt>
      <trkpt lat="45.44871" lon="5.81541">
        <ele>945.6</ele>
        <time>2021-08-24T09:51:37Z</time>
      </trkpt>
      <trkpt lat="45.4487" lon="5.81541">
        <ele>945.6</ele>
        <time>2021-08-24T09:51:38Z</time>
      </trkpt>
      <trkpt lat="45.44867" lon="5.81542">
        <ele>945.7</ele>
        <time>2021-08-24T09:51:39Z</time>
      </trkpt>
      <trkpt lat="45.44865" lon="5.81542">
        <ele>945.8</ele>
        <time>2021-08-24T09:51:40Z</time>
      </trkpt>
      <trkpt lat="45.44862" lon="5.81542">
        <ele>945.9</ele>
        <time>2021-08-24T09:51:42Z</time>
      </trkpt>
      <trkpt lat="45.44859" lon="5.81543">
        <ele>946</ele>
        <time>2021-08-24T09:51:43Z</time>
      </trkpt>
      <trkpt lat="45.44856" lon="5.81543">
        <ele>946.2</ele>
        <time>2021-08-24T09:51:44Z</time>
      </trkpt>
      <trkpt lat="45.44852" lon="5.81543">
        <ele>946.3</ele>
        <time>2021-08-24T09:51:46Z</time>
      </trkpt>
      <trkpt lat="45.44848" lon="5.81544">
        <ele>946.5</ele>
        <time>2021-08-24T09:51:47Z</time>
      </trkpt>
      <trkpt lat="45.44845" lon="5.81544">
        <ele>946.6</ele>
        <time>2021-08-24T09:51:48Z</time>
      </trkpt>
      <trkpt lat="45.44842" lon="5.81544">
        <ele>946.8</ele>
        <time>2021-08-24T09:51:49Z</time>
      </trkpt>
      <trkpt lat="45.44837" lon="5.81545">
        <ele>947</ele>
        <time>2021-08-24T09:51:51Z</time>
      </trkpt>
      <trkpt lat="45.44835" lon="5.81545">
        <ele>947.1</ele>
        <time>2021-08-24T09:51:52Z</time>
      </trkpt>
      <trkpt lat="45.44831" lon="5.81545">
        <ele>947.3</ele>
        <time>2021-08-24T09:51:53Z</time>
      </trkpt>
      <trkpt lat="45.44829" lon="5.81545">
        <ele>947.4</ele>
        <time>2021-08-24T09:51:54Z</time>
      </trkpt>
      <trkpt lat="45.44823" lon="5.81545">
        <ele>947.6</ele>
        <time>2021-08-24T09:51:56Z</time>
      </trkpt>
      <trkpt lat="45.44818" lon="5.81546">
        <ele>947.9</ele>
        <time>2021-08-24T09:51:58Z</time>
      </trkpt>
      <trkpt lat="45.44815" lon="5.81545">
        <ele>948</ele>
        <time>2021-08-24T09:51:59Z</time>
      </trkpt>
      <trkpt lat="45.44812" lon="5.81545">
        <ele>948.1</ele>
        <time>2021-08-24T09:52:00Z</time>
      </trkpt>
      <trkpt lat="45.44808" lon="5.81546">
        <ele>948.3</ele>
        <time>2021-08-24T09:52:02Z</time>
      </trkpt>
      <trkpt lat="45.44804" lon="5.81547">
        <ele>948.5</ele>
        <time>2021-08-24T09:52:03Z</time>
      </trkpt>
      <trkpt lat="45.448" lon="5.81547">
        <ele>948.6</ele>
        <time>2021-08-24T09:52:04Z</time>
      </trkpt>
      <trkpt lat="45.44798" lon="5.81546">
        <ele>948.7</ele>
        <time>2021-08-24T09:52:05Z</time>
      </trkpt>
      <trkpt lat="45.44794" lon="5.81545">
        <ele>948.8</ele>
        <time>2021-08-24T09:52:07Z</time>
      </trkpt>
      <trkpt lat="45.44792" lon="5.81543">
        <ele>948.9</ele>
        <time>2021-08-24T09:52:08Z</time>
      </trkpt>
      <trkpt lat="45.44789" lon="5.81541">
        <ele>948.9</ele>
        <time>2021-08-24T09:52:09Z</time>
      </trkpt>
      <trkpt lat="45.44786" lon="5.81539">
        <ele>949</ele>
        <time>2021-08-24T09:52:10Z</time>
      </trkpt>
      <trkpt lat="45.44782" lon="5.81537">
        <ele>949.1</ele>
        <time>2021-08-24T09:52:11Z</time>
      </trkpt>
      <trkpt lat="45.44779" lon="5.81535">
        <ele>949.1</ele>
        <time>2021-08-24T09:52:13Z</time>
      </trkpt>
      <trkpt lat="45.44776" lon="5.81533">
        <ele>949.1</ele>
        <time>2021-08-24T09:52:14Z</time>
      </trkpt>
      <trkpt lat="45.44773" lon="5.81529">
        <ele>949.2</ele>
        <time>2021-08-24T09:52:15Z</time>
      </trkpt>
      <trkpt lat="45.4477" lon="5.81526">
        <ele>949.2</ele>
        <time>2021-08-24T09:52:16Z</time>
      </trkpt>
      <trkpt lat="45.44768" lon="5.81523">
        <ele>949.2</ele>
        <time>2021-08-24T09:52:17Z</time>
      </trkpt>
      <trkpt lat="45.44766" lon="5.8152">
        <ele>949.3</ele>
        <time>2021-08-24T09:52:18Z</time>
      </trkpt>
      <trkpt lat="45.44761" lon="5.81515">
        <ele>949.3</ele>
        <time>2021-08-24T09:52:20Z</time>
      </trkpt>
      <trkpt lat="45.44758" lon="5.81511">
        <ele>949.3</ele>
        <time>2021-08-24T09:52:21Z</time>
      </trkpt>
      <trkpt lat="45.44756" lon="5.81508">
        <ele>949.3</ele>
        <time>2021-08-24T09:52:22Z</time>
      </trkpt>
      <trkpt lat="45.44753" lon="5.81505">
        <ele>949.4</ele>
        <time>2021-08-24T09:52:23Z</time>
      </trkpt>
      <trkpt lat="45.44749" lon="5.81501">
        <ele>949.4</ele>
        <time>2021-08-24T09:52:24Z</time>
      </trkpt>
      <trkpt lat="45.44746" lon="5.81497">
        <ele>949.4</ele>
        <time>2021-08-24T09:52:26Z</time>
      </trkpt>
      <trkpt lat="45.44743" lon="5.81493">
        <ele>949.4</ele>
        <time>2021-08-24T09:52:27Z</time>
      </trkpt>
      <trkpt lat="45.44739" lon="5.81489">
        <ele>949.5</ele>
        <time>2021-08-24T09:52:28Z</time>
      </trkpt>
      <trkpt lat="45.44736" lon="5.81486">
        <ele>949.5</ele>
        <time>2021-08-24T09:52:29Z</time>
      </trkpt>
      <trkpt lat="45.44731" lon="5.8148">
        <ele>949.5</ele>
        <time>2021-08-24T09:52:31Z</time>
      </trkpt>
      <trkpt lat="45.44726" lon="5.81476">
        <ele>949.6</ele>
        <time>2021-08-24T09:52:32Z</time>
      </trkpt>
      <trkpt lat="45.44721" lon="5.81469">
        <ele>949.6</ele>
        <time>2021-08-24T09:52:34Z</time>
      </trkpt>
      <trkpt lat="45.44719" lon="5.81465">
        <ele>949.7</ele>
        <time>2021-08-24T09:52:35Z</time>
      </trkpt>
      <trkpt lat="45.44714" lon="5.81457">
        <ele>949.7</ele>
        <time>2021-08-24T09:52:37Z</time>
      </trkpt>
      <trkpt lat="45.44711" lon="5.81452">
        <ele>949.8</ele>
        <time>2021-08-24T09:52:38Z</time>
      </trkpt>
      <trkpt lat="45.44707" lon="5.81446">
        <ele>949.8</ele>
        <time>2021-08-24T09:52:39Z</time>
      </trkpt>
      <trkpt lat="45.44702" lon="5.81441">
        <ele>949.9</ele>
        <time>2021-08-24T09:52:41Z</time>
      </trkpt>
      <trkpt lat="45.44699" lon="5.81437">
        <ele>950</ele>
        <time>2021-08-24T09:52:42Z</time>
      </trkpt>
      <trkpt lat="45.44694" lon="5.8143">
        <ele>950.1</ele>
        <time>2021-08-24T09:52:44Z</time>
      </trkpt>
      <trkpt lat="45.4469" lon="5.81425">
        <ele>950.2</ele>
        <time>2021-08-24T09:52:45Z</time>
      </trkpt>
      <trkpt lat="45.44685" lon="5.81419">
        <ele>950.3</ele>
        <time>2021-08-24T09:52:47Z</time>
      </trkpt>
      <trkpt lat="45.4468" lon="5.81415">
        <ele>950.5</ele>
        <time>2021-08-24T09:52:48Z</time>
      </trkpt>
      <trkpt lat="45.44674" lon="5.81408">
        <ele>950.6</ele>
        <time>2021-08-24T09:52:50Z</time>
      </trkpt>
      <trkpt lat="45.44668" lon="5.81401">
        <ele>950.8</ele>
        <time>2021-08-24T09:52:52Z</time>
      </trkpt>
      <trkpt lat="45.44665" lon="5.81398">
        <ele>950.9</ele>
        <time>2021-08-24T09:52:53Z</time>
      </trkpt>
      <trkpt lat="45.44662" lon="5.81395">
        <ele>951</ele>
        <time>2021-08-24T09:52:54Z</time>
      </trkpt>
      <trkpt lat="45.44659" lon="5.81392">
        <ele>951.1</ele>
        <time>2021-08-24T09:52:55Z</time>
      </trkpt>
      <trkpt lat="45.44656" lon="5.81389">
        <ele>951.2</ele>
        <time>2021-08-24T09:52:56Z</time>
      </trkpt>
      <trkpt lat="45.44653" lon="5.81385">
        <ele>951.3</ele>
        <time>2021-08-24T09:52:57Z</time>
      </trkpt>
      <trkpt lat="45.44648" lon="5.8138">
        <ele>951.4</ele>
        <time>2021-08-24T09:52:59Z</time>
      </trkpt>
      <trkpt lat="45.44645" lon="5.81375">
        <ele>951.5</ele>
        <time>2021-08-24T09:53:00Z</time>
      </trkpt>
      <trkpt lat="45.44641" lon="5.8137">
        <ele>951.6</ele>
        <time>2021-08-24T09:53:01Z</time>
      </trkpt>
      <trkpt lat="45.44637" lon="5.81365">
        <ele>951.8</ele>
        <time>2021-08-24T09:53:03Z</time>
      </trkpt>
      <trkpt lat="45.44634" lon="5.81363">
        <ele>951.9</ele>
        <time>2021-08-24T09:53:04Z</time>
      </trkpt>
      <trkpt lat="45.44631" lon="5.8136">
        <ele>952</ele>
        <time>2021-08-24T09:53:05Z</time>
      </trkpt>
      <trkpt lat="45.44628" lon="5.81357">
        <ele>952</ele>
        <time>2021-08-24T09:53:06Z</time>
      </trkpt>
      <trkpt lat="45.44625" lon="5.81354">
        <ele>952.1</ele>
        <time>2021-08-24T09:53:07Z</time>
      </trkpt>
      <trkpt lat="45.44619" lon="5.81347">
        <ele>952.3</ele>
        <time>2021-08-24T09:53:09Z</time>
      </trkpt>
      <trkpt lat="45.44617" lon="5.81344">
        <ele>952.4</ele>
        <time>2021-08-24T09:53:10Z</time>
      </trkpt>
      <trkpt lat="45.44614" lon="5.8134">
        <ele>952.5</ele>
        <time>2021-08-24T09:53:11Z</time>
      </trkpt>
      <trkpt lat="45.44611" lon="5.81337">
        <ele>952.6</ele>
        <time>2021-08-24T09:53:12Z</time>
      </trkpt>
      <trkpt lat="45.44607" lon="5.81332">
        <ele>952.7</ele>
        <time>2021-08-24T09:53:14Z</time>
      </trkpt>
      <trkpt lat="45.44603" lon="5.81328">
        <ele>952.8</ele>
        <time>2021-08-24T09:53:15Z</time>
      </trkpt>
      <trkpt lat="45.44599" lon="5.81325">
        <ele>952.9</ele>
        <time>2021-08-24T09:53:16Z</time>
      </trkpt>
      <trkpt lat="45.44593" lon="5.81319">
        <ele>953</ele>
        <time>2021-08-24T09:53:18Z</time>
      </trkpt>
      <trkpt lat="45.44587" lon="5.81314">
        <ele>953.1</ele>
        <time>2021-08-24T09:53:20Z</time>
      </trkpt>
      <trkpt lat="45.44583" lon="5.81311">
        <ele>953.2</ele>
        <time>2021-08-24T09:53:21Z</time>
      </trkpt>
      <trkpt lat="45.44577" lon="5.81306">
        <ele>953.3</ele>
        <time>2021-08-24T09:53:23Z</time>
      </trkpt>
      <trkpt lat="45.44572" lon="5.81302">
        <ele>953.4</ele>
        <time>2021-08-24T09:53:24Z</time>
      </trkpt>
      <trkpt lat="45.44566" lon="5.81297">
        <ele>953.6</ele>
        <time>2021-08-24T09:53:26Z</time>
      </trkpt>
      <trkpt lat="45.44562" lon="5.81294">
        <ele>953.7</ele>
        <time>2021-08-24T09:53:27Z</time>
      </trkpt>
      <trkpt lat="45.44558" lon="5.81289">
        <ele>953.8</ele>
        <time>2021-08-24T09:53:29Z</time>
      </trkpt>
      <trkpt lat="45.44555" lon="5.81286">
        <ele>953.9</ele>
        <time>2021-08-24T09:53:30Z</time>
      </trkpt>
      <trkpt lat="45.4455" lon="5.81282">
        <ele>954</ele>
        <time>2021-08-24T09:53:31Z</time>
      </trkpt>
      <trkpt lat="45.44547" lon="5.8128">
        <ele>954</ele>
        <time>2021-08-24T09:53:32Z</time>
      </trkpt>
      <trkpt lat="45.44544" lon="5.81277">
        <ele>954.1</ele>
        <time>2021-08-24T09:53:33Z</time>
      </trkpt>
      <trkpt lat="45.4454" lon="5.81272">
        <ele>954.2</ele>
        <time>2021-08-24T09:53:35Z</time>
      </trkpt>
      <trkpt lat="45.44537" lon="5.8127">
        <ele>954.2</ele>
        <time>2021-08-24T09:53:36Z</time>
      </trkpt>
      <trkpt lat="45.44533" lon="5.81266">
        <ele>954.3</ele>
        <time>2021-08-24T09:53:37Z</time>
      </trkpt>
      <trkpt lat="45.4453" lon="5.81263">
        <ele>954.4</ele>
        <time>2021-08-24T09:53:38Z</time>
      </trkpt>
      <trkpt lat="45.44527" lon="5.8126">
        <ele>954.4</ele>
        <time>2021-08-24T09:53:39Z</time>
      </trkpt>
      <trkpt lat="45.44521" lon="5.81255">
        <ele>954.6</ele>
        <time>2021-08-24T09:53:41Z</time>
      </trkpt>
      <trkpt lat="45.44517" lon="5.81252">
        <ele>954.6</ele>
        <time>2021-08-24T09:53:42Z</time>
      </trkpt>
      <trkpt lat="45.4451" lon="5.81247">
        <ele>954.8</ele>
        <time>2021-08-24T09:53:44Z</time>
      </trkpt>
      <trkpt lat="45.44507" lon="5.81244">
        <ele>954.8</ele>
        <time>2021-08-24T09:53:45Z</time>
      </trkpt>
      <trkpt lat="45.44503" lon="5.81241">
        <ele>954.9</ele>
        <time>2021-08-24T09:53:46Z</time>
      </trkpt>
      <trkpt lat="45.44498" lon="5.81236">
        <ele>955.1</ele>
        <time>2021-08-24T09:53:48Z</time>
      </trkpt>
      <trkpt lat="45.44493" lon="5.81232">
        <ele>955.2</ele>
        <time>2021-08-24T09:53:49Z</time>
      </trkpt>
      <trkpt lat="45.44489" lon="5.81229">
        <ele>955.3</ele>
        <time>2021-08-24T09:53:50Z</time>
      </trkpt>
      <trkpt lat="45.44481" lon="5.81224">
        <ele>955.5</ele>
        <time>2021-08-24T09:53:52Z</time>
      </trkpt>
      <trkpt lat="45.44474" lon="5.81218">
        <ele>955.6</ele>
        <time>2021-08-24T09:53:54Z</time>
      </trkpt>
      <trkpt lat="45.4447" lon="5.81216">
        <ele>955.8</ele>
        <time>2021-08-24T09:53:55Z</time>
      </trkpt>
      <trkpt lat="45.44462" lon="5.81211">
        <ele>956</ele>
        <time>2021-08-24T09:53:57Z</time>
      </trkpt>
      <trkpt lat="45.44454" lon="5.81207">
        <ele>956.2</ele>
        <time>2021-08-24T09:53:59Z</time>
      </trkpt>
      <trkpt lat="45.44451" lon="5.81205">
        <ele>956.3</ele>
        <time>2021-08-24T09:54:00Z</time>
      </trkpt>
      <trkpt lat="45.44443" lon="5.81201">
        <ele>956.6</ele>
        <time>2021-08-24T09:54:02Z</time>
      </trkpt>
      <trkpt lat="45.44438" lon="5.81198">
        <ele>956.7</ele>
        <time>2021-08-24T09:54:04Z</time>
      </trkpt>
      <trkpt lat="45.44434" lon="5.81196">
        <ele>956.8</ele>
        <time>2021-08-24T09:54:05Z</time>
      </trkpt>
      <trkpt lat="45.4443" lon="5.81193">
        <ele>956.9</ele>
        <time>2021-08-24T09:54:06Z</time>
      </trkpt>
      <trkpt lat="45.44426" lon="5.81192">
        <ele>957</ele>
        <time>2021-08-24T09:54:07Z</time>
      </trkpt>
      <trkpt lat="45.44422" lon="5.8119">
        <ele>957.1</ele>
        <time>2021-08-24T09:54:08Z</time>
      </trkpt>
      <trkpt lat="45.44419" lon="5.81189">
        <ele>957.1</ele>
        <time>2021-08-24T09:54:09Z</time>
      </trkpt>
      <trkpt lat="45.44414" lon="5.81186">
        <ele>957.2</ele>
        <time>2021-08-24T09:54:10Z</time>
      </trkpt>
      <trkpt lat="45.44409" lon="5.81185">
        <ele>957.2</ele>
        <time>2021-08-24T09:54:12Z</time>
      </trkpt>
      <trkpt lat="45.44402" lon="5.81183">
        <ele>957.2</ele>
        <time>2021-08-24T09:54:14Z</time>
      </trkpt>
      <trkpt lat="45.44399" lon="5.81183">
        <ele>957.3</ele>
        <time>2021-08-24T09:54:15Z</time>
      </trkpt>
      <trkpt lat="45.44395" lon="5.81181">
        <ele>957.2</ele>
        <time>2021-08-24T09:54:17Z</time>
      </trkpt>
      <trkpt lat="45.44392" lon="5.8118">
        <ele>957.1</ele>
        <time>2021-08-24T09:54:18Z</time>
      </trkpt>
      <trkpt lat="45.4439" lon="5.81179">
        <ele>957.1</ele>
        <time>2021-08-24T09:54:19Z</time>
      </trkpt>
      <trkpt lat="45.4439" lon="5.81178">
        <ele>957.1</ele>
        <time>2021-08-24T09:54:21Z</time>
      </trkpt>
      <trkpt lat="45.4439" lon="5.81176">
        <ele>957.1</ele>
        <time>2021-08-24T09:54:22Z</time>
      </trkpt>
      <trkpt lat="45.44389" lon="5.81177">
        <ele>957</ele>
        <time>2021-08-24T09:54:24Z</time>
      </trkpt>
      <trkpt lat="45.44392" lon="5.81177">
        <ele>957</ele>
        <time>2021-08-24T09:54:26Z</time>
      </trkpt>
      <trkpt lat="45.44393" lon="5.81176">
        <ele>957</ele>
        <time>2021-08-24T09:54:27Z</time>
      </trkpt>
      <trkpt lat="45.44394" lon="5.81174">
        <ele>957</ele>
        <time>2021-08-24T09:54:29Z</time>
      </trkpt>
      <trkpt lat="45.44394" lon="5.81174">
        <ele>956.9</ele>
        <time>2021-08-24T09:54:30Z</time>
      </trkpt>
      <trkpt lat="45.44397" lon="5.81173">
        <ele>956.9</ele>
        <time>2021-08-24T09:54:32Z</time>
      </trkpt>
      <trkpt lat="45.44399" lon="5.81173">
        <ele>956.9</ele>
        <time>2021-08-24T09:54:33Z</time>
      </trkpt>
      <trkpt lat="45.444" lon="5.81173">
        <ele>956.8</ele>
        <time>2021-08-24T09:54:35Z</time>
      </trkpt>
      <trkpt lat="45.44401" lon="5.81173">
        <ele>956.8</ele>
        <time>2021-08-24T09:54:37Z</time>
      </trkpt>
      <trkpt lat="45.44402" lon="5.81174">
        <ele>956.8</ele>
        <time>2021-08-24T09:54:38Z</time>
      </trkpt>
      <trkpt lat="45.44403" lon="5.81174">
        <ele>956.8</ele>
        <time>2021-08-24T09:54:39Z</time>
      </trkpt>
      <trkpt lat="45.44401" lon="5.81174">
        <ele>956.8</ele>
        <time>2021-08-24T09:54:53Z</time>
      </trkpt>
      <trkpt lat="45.44396" lon="5.81166">
        <ele>956.6</ele>
        <time>2021-08-24T09:54:55Z</time>
      </trkpt>
      <trkpt lat="45.44391" lon="5.81161">
        <ele>956.5</ele>
        <time>2021-08-24T09:54:56Z</time>
      </trkpt>
      <trkpt lat="45.44387" lon="5.81157">
        <ele>956.4</ele>
        <time>2021-08-24T09:54:57Z</time>
      </trkpt>
      <trkpt lat="45.44378" lon="5.81148">
        <ele>956.2</ele>
        <time>2021-08-24T09:54:59Z</time>
      </trkpt>
      <trkpt lat="45.44372" lon="5.81142">
        <ele>956</ele>
        <time>2021-08-24T09:55:00Z</time>
      </trkpt>
      <trkpt lat="45.44363" lon="5.81135">
        <ele>955.7</ele>
        <time>2021-08-24T09:55:02Z</time>
      </trkpt>
      <trkpt lat="45.44353" lon="5.81126">
        <ele>955.4</ele>
        <time>2021-08-24T09:55:04Z</time>
      </trkpt>
      <trkpt lat="45.44342" lon="5.81118">
        <ele>954.9</ele>
        <time>2021-08-24T09:55:05Z</time>
      </trkpt>
      <trkpt lat="45.44336" lon="5.81114">
        <ele>954.7</ele>
        <time>2021-08-24T09:55:06Z</time>
      </trkpt>
      <trkpt lat="45.44325" lon="5.81107">
        <ele>954.2</ele>
        <time>2021-08-24T09:55:08Z</time>
      </trkpt>
      <trkpt lat="45.44313" lon="5.81102">
        <ele>953.6</ele>
        <time>2021-08-24T09:55:10Z</time>
      </trkpt>
      <trkpt lat="45.44307" lon="5.811">
        <ele>953.3</ele>
        <time>2021-08-24T09:55:11Z</time>
      </trkpt>
      <trkpt lat="45.44301" lon="5.81097">
        <ele>952.9</ele>
        <time>2021-08-24T09:55:12Z</time>
      </trkpt>
      <trkpt lat="45.44289" lon="5.8109">
        <ele>952.1</ele>
        <time>2021-08-24T09:55:14Z</time>
      </trkpt>
      <trkpt lat="45.44275" lon="5.81082">
        <ele>951.2</ele>
        <time>2021-08-24T09:55:16Z</time>
      </trkpt>
      <trkpt lat="45.44267" lon="5.81078">
        <ele>950.6</ele>
        <time>2021-08-24T09:55:17Z</time>
      </trkpt>
      <trkpt lat="45.44259" lon="5.81074">
        <ele>950</ele>
        <time>2021-08-24T09:55:18Z</time>
      </trkpt>
      <trkpt lat="45.44245" lon="5.81066">
        <ele>949</ele>
        <time>2021-08-24T09:55:20Z</time>
      </trkpt>
      <trkpt lat="45.44233" lon="5.81064">
        <ele>948.2</ele>
        <time>2021-08-24T09:55:22Z</time>
      </trkpt>
      <trkpt lat="45.44222" lon="5.81062">
        <ele>947.5</ele>
        <time>2021-08-24T09:55:24Z</time>
      </trkpt>
      <trkpt lat="45.44212" lon="5.81064">
        <ele>947.3</ele>
        <time>2021-08-24T09:55:26Z</time>
      </trkpt>
      <trkpt lat="45.44202" lon="5.81069">
        <ele>947.8</ele>
        <time>2021-08-24T09:55:28Z</time>
      </trkpt>
      <trkpt lat="45.44198" lon="5.81072">
        <ele>948.1</ele>
        <time>2021-08-24T09:55:29Z</time>
      </trkpt>
      <trkpt lat="45.44194" lon="5.81078">
        <ele>948.5</ele>
        <time>2021-08-24T09:55:31Z</time>
      </trkpt>
      <trkpt lat="45.44194" lon="5.81083">
        <ele>948.9</ele>
        <time>2021-08-24T09:55:32Z</time>
      </trkpt>
      <trkpt lat="45.44195" lon="5.81096">
        <ele>949.7</ele>
        <time>2021-08-24T09:55:34Z</time>
      </trkpt>
      <trkpt lat="45.44196" lon="5.81101">
        <ele>950.1</ele>
        <time>2021-08-24T09:55:35Z</time>
      </trkpt>
      <trkpt lat="45.44196" lon="5.81106">
        <ele>950.5</ele>
        <time>2021-08-24T09:55:36Z</time>
      </trkpt>
      <trkpt lat="45.44197" lon="5.81108">
        <ele>950.7</ele>
        <time>2021-08-24T09:55:38Z</time>
      </trkpt>
      <trkpt lat="45.44198" lon="5.81111">
        <ele>951</ele>
        <time>2021-08-24T09:55:39Z</time>
      </trkpt>
      <trkpt lat="45.44196" lon="5.81116">
        <ele>951.4</ele>
        <time>2021-08-24T09:55:40Z</time>
      </trkpt>
      <trkpt lat="45.44194" lon="5.81121">
        <ele>951.9</ele>
        <time>2021-08-24T09:55:41Z</time>
      </trkpt>
      <trkpt lat="45.44193" lon="5.81125">
        <ele>952.3</ele>
        <time>2021-08-24T09:55:42Z</time>
      </trkpt>
      <trkpt lat="45.44192" lon="5.81128">
        <ele>952.6</ele>
        <time>2021-08-24T09:55:43Z</time>
      </trkpt>
      <trkpt lat="45.44189" lon="5.81134">
        <ele>953</ele>
        <time>2021-08-24T09:55:45Z</time>
      </trkpt>
      <trkpt lat="45.44188" lon="5.81138">
        <ele>953.3</ele>
        <time>2021-08-24T09:55:46Z</time>
      </trkpt>
      <trkpt lat="45.44185" lon="5.81143">
        <ele>953.7</ele>
        <time>2021-08-24T09:55:48Z</time>
      </trkpt>
      <trkpt lat="45.44182" lon="5.81148">
        <ele>954</ele>
        <time>2021-08-24T09:55:50Z</time>
      </trkpt>
      <trkpt lat="45.44181" lon="5.81151">
        <ele>954.2</ele>
        <time>2021-08-24T09:55:51Z</time>
      </trkpt>
      <trkpt lat="45.44181" lon="5.81153">
        <ele>954.3</ele>
        <time>2021-08-24T09:55:52Z</time>
      </trkpt>
      <trkpt lat="45.44179" lon="5.81156">
        <ele>954.5</ele>
        <time>2021-08-24T09:55:54Z</time>
      </trkpt>
      <trkpt lat="45.44176" lon="5.8116">
        <ele>954.7</ele>
        <time>2021-08-24T09:55:56Z</time>
      </trkpt>
      <trkpt lat="45.44174" lon="5.81162">
        <ele>954.8</ele>
        <time>2021-08-24T09:55:57Z</time>
      </trkpt>
      <trkpt lat="45.44171" lon="5.81164">
        <ele>954.9</ele>
        <time>2021-08-24T09:55:59Z</time>
      </trkpt>
      <trkpt lat="45.44169" lon="5.81166">
        <ele>955</ele>
        <time>2021-08-24T09:56:00Z</time>
      </trkpt>
      <trkpt lat="45.44166" lon="5.81169">
        <ele>955.2</ele>
        <time>2021-08-24T09:56:02Z</time>
      </trkpt>
      <trkpt lat="45.44161" lon="5.81172">
        <ele>955.4</ele>
        <time>2021-08-24T09:56:04Z</time>
      </trkpt>
      <trkpt lat="45.44159" lon="5.81173">
        <ele>955.5</ele>
        <time>2021-08-24T09:56:05Z</time>
      </trkpt>
      <trkpt lat="45.44156" lon="5.81173">
        <ele>955.6</ele>
        <time>2021-08-24T09:56:06Z</time>
      </trkpt>
      <trkpt lat="45.44151" lon="5.81173">
        <ele>955.7</ele>
        <time>2021-08-24T09:56:08Z</time>
      </trkpt>
      <trkpt lat="45.44149" lon="5.81173">
        <ele>955.8</ele>
        <time>2021-08-24T09:56:10Z</time>
      </trkpt>
      <trkpt lat="45.44148" lon="5.81174">
        <ele>955.8</ele>
        <time>2021-08-24T09:56:12Z</time>
      </trkpt>
      <trkpt lat="45.44147" lon="5.81174">
        <ele>955.8</ele>
        <time>2021-08-24T09:56:13Z</time>
      </trkpt>
      <trkpt lat="45.44146" lon="5.81174">
        <ele>955.9</ele>
        <time>2021-08-24T09:56:14Z</time>
      </trkpt>
      <trkpt lat="45.44144" lon="5.81174">
        <ele>955.9</ele>
        <time>2021-08-24T09:56:16Z</time>
      </trkpt>
      <trkpt lat="45.44143" lon="5.81175">
        <ele>955.9</ele>
        <time>2021-08-24T09:56:18Z</time>
      </trkpt>
      <trkpt lat="45.44142" lon="5.81175">
        <ele>955.9</ele>
        <time>2021-08-24T09:57:08Z</time>
      </trkpt>
      <trkpt lat="45.44141" lon="5.81175">
        <ele>955.9</ele>
        <time>2021-08-24T09:57:09Z</time>
      </trkpt>
      <trkpt lat="45.44132" lon="5.81179">
        <ele>956.1</ele>
        <time>2021-08-24T09:57:11Z</time>
      </trkpt>
      <trkpt lat="45.44124" lon="5.81184">
        <ele>956.3</ele>
        <time>2021-08-24T09:57:13Z</time>
      </trkpt>
      <trkpt lat="45.44113" lon="5.81189">
        <ele>956.5</ele>
        <time>2021-08-24T09:57:14Z</time>
      </trkpt>
      <trkpt lat="45.44107" lon="5.81192">
        <ele>956.5</ele>
        <time>2021-08-24T09:57:15Z</time>
      </trkpt>
      <trkpt lat="45.44095" lon="5.81194">
        <ele>956.5</ele>
        <time>2021-08-24T09:57:17Z</time>
      </trkpt>
      <trkpt lat="45.44089" lon="5.81194">
        <ele>956.5</ele>
        <time>2021-08-24T09:57:18Z</time>
      </trkpt>
      <trkpt lat="45.44076" lon="5.81193">
        <ele>956.7</ele>
        <time>2021-08-24T09:57:20Z</time>
      </trkpt>
      <trkpt lat="45.4407" lon="5.81192">
        <ele>956.9</ele>
        <time>2021-08-24T09:57:21Z</time>
      </trkpt>
      <trkpt lat="45.44056" lon="5.8119">
        <ele>957.2</ele>
        <time>2021-08-24T09:57:23Z</time>
      </trkpt>
      <trkpt lat="45.44048" lon="5.81189">
        <ele>957.3</ele>
        <time>2021-08-24T09:57:24Z</time>
      </trkpt>
      <trkpt lat="45.44041" lon="5.81189">
        <ele>957.1</ele>
        <time>2021-08-24T09:57:25Z</time>
      </trkpt>
      <trkpt lat="45.44034" lon="5.81188">
        <ele>956.9</ele>
        <time>2021-08-24T09:57:26Z</time>
      </trkpt>
      <trkpt lat="45.4402" lon="5.81187">
        <ele>956.6</ele>
        <time>2021-08-24T09:57:28Z</time>
      </trkpt>
      <trkpt lat="45.44013" lon="5.81187">
        <ele>956.4</ele>
        <time>2021-08-24T09:57:29Z</time>
      </trkpt>
      <trkpt lat="45.44" lon="5.81187">
        <ele>956.1</ele>
        <time>2021-08-24T09:57:31Z</time>
      </trkpt>
      <trkpt lat="45.43994" lon="5.81187">
        <ele>955.9</ele>
        <time>2021-08-24T09:57:32Z</time>
      </trkpt>
      <trkpt lat="45.43983" lon="5.81189">
        <ele>955.6</ele>
        <time>2021-08-24T09:57:34Z</time>
      </trkpt>
      <trkpt lat="45.43978" lon="5.8119">
        <ele>955.4</ele>
        <time>2021-08-24T09:57:35Z</time>
      </trkpt>
      <trkpt lat="45.43974" lon="5.81192">
        <ele>955.2</ele>
        <time>2021-08-24T09:57:36Z</time>
      </trkpt>
      <trkpt lat="45.43965" lon="5.81196">
        <ele>954.6</ele>
        <time>2021-08-24T09:57:38Z</time>
      </trkpt>
      <trkpt lat="45.43956" lon="5.81202">
        <ele>954.1</ele>
        <time>2021-08-24T09:57:40Z</time>
      </trkpt>
      <trkpt lat="45.43952" lon="5.81205">
        <ele>953.9</ele>
        <time>2021-08-24T09:57:41Z</time>
      </trkpt>
      <trkpt lat="45.43946" lon="5.8121">
        <ele>953.7</ele>
        <time>2021-08-24T09:57:43Z</time>
      </trkpt>
      <trkpt lat="45.43943" lon="5.81213">
        <ele>953.8</ele>
        <time>2021-08-24T09:57:44Z</time>
      </trkpt>
      <trkpt lat="45.4394" lon="5.81216">
        <ele>953.9</ele>
        <time>2021-08-24T09:57:45Z</time>
      </trkpt>
      <trkpt lat="45.43933" lon="5.81223">
        <ele>954.2</ele>
        <time>2021-08-24T09:57:47Z</time>
      </trkpt>
      <trkpt lat="45.43934" lon="5.81223">
        <ele>954.3</ele>
        <time>2021-08-24T09:57:48Z</time>
      </trkpt>
      <trkpt lat="45.43934" lon="5.81226">
        <ele>954.4</ele>
        <time>2021-08-24T09:57:49Z</time>
      </trkpt>
      <trkpt lat="45.4393" lon="5.81229">
        <ele>954.7</ele>
        <time>2021-08-24T09:57:51Z</time>
      </trkpt>
      <trkpt lat="45.43926" lon="5.81231">
        <ele>955</ele>
        <time>2021-08-24T09:57:52Z</time>
      </trkpt>
      <trkpt lat="45.43923" lon="5.81234">
        <ele>955.2</ele>
        <time>2021-08-24T09:57:53Z</time>
      </trkpt>
      <trkpt lat="45.4392" lon="5.81238">
        <ele>955.6</ele>
        <time>2021-08-24T09:57:55Z</time>
      </trkpt>
      <trkpt lat="45.43916" lon="5.81241">
        <ele>955.9</ele>
        <time>2021-08-24T09:57:57Z</time>
      </trkpt>
      <trkpt lat="45.43914" lon="5.81244">
        <ele>956.1</ele>
        <time>2021-08-24T09:57:58Z</time>
      </trkpt>
      <trkpt lat="45.43912" lon="5.81246">
        <ele>956.3</ele>
        <time>2021-08-24T09:57:59Z</time>
      </trkpt>
      <trkpt lat="45.4391" lon="5.81248">
        <ele>956.5</ele>
        <time>2021-08-24T09:58:01Z</time>
      </trkpt>
      <trkpt lat="45.43908" lon="5.8125">
        <ele>956.6</ele>
        <time>2021-08-24T09:58:02Z</time>
      </trkpt>
      <trkpt lat="45.43907" lon="5.81252">
        <ele>956.8</ele>
        <time>2021-08-24T09:58:03Z</time>
      </trkpt>
      <trkpt lat="45.43905" lon="5.81255">
        <ele>957</ele>
        <time>2021-08-24T09:58:05Z</time>
      </trkpt>
      <trkpt lat="45.43905" lon="5.81256">
        <ele>957</ele>
        <time>2021-08-24T09:58:06Z</time>
      </trkpt>
      <trkpt lat="45.43904" lon="5.81258">
        <ele>957.1</ele>
        <time>2021-08-24T09:58:07Z</time>
      </trkpt>
      <trkpt lat="45.43902" lon="5.81261">
        <ele>957.3</ele>
        <time>2021-08-24T09:58:09Z</time>
      </trkpt>
      <trkpt lat="45.43898" lon="5.81265">
        <ele>957.5</ele>
        <time>2021-08-24T09:58:11Z</time>
      </trkpt>
      <trkpt lat="45.43897" lon="5.81267">
        <ele>957.6</ele>
        <time>2021-08-24T09:58:12Z</time>
      </trkpt>
      <trkpt lat="45.43896" lon="5.81268">
        <ele>957.7</ele>
        <time>2021-08-24T09:58:13Z</time>
      </trkpt>
      <trkpt lat="45.43894" lon="5.81272">
        <ele>957.8</ele>
        <time>2021-08-24T09:58:15Z</time>
      </trkpt>
      <trkpt lat="45.43893" lon="5.81273">
        <ele>957.8</ele>
        <time>2021-08-24T09:58:16Z</time>
      </trkpt>
      <trkpt lat="45.43892" lon="5.81275">
        <ele>957.8</ele>
        <time>2021-08-24T09:58:18Z</time>
      </trkpt>
      <trkpt lat="45.43891" lon="5.81276">
        <ele>957.9</ele>
        <time>2021-08-24T09:58:19Z</time>
      </trkpt>
      <trkpt lat="45.43889" lon="5.81278">
        <ele>957.9</ele>
        <time>2021-08-24T09:58:20Z</time>
      </trkpt>
      <trkpt lat="45.43888" lon="5.81279">
        <ele>958</ele>
        <time>2021-08-24T09:58:21Z</time>
      </trkpt>
      <trkpt lat="45.43886" lon="5.81282">
        <ele>958</ele>
        <time>2021-08-24T09:58:23Z</time>
      </trkpt>
      <trkpt lat="45.43885" lon="5.81283">
        <ele>958.1</ele>
        <time>2021-08-24T09:58:24Z</time>
      </trkpt>
      <trkpt lat="45.43883" lon="5.81285">
        <ele>958.1</ele>
        <time>2021-08-24T09:58:25Z</time>
      </trkpt>
      <trkpt lat="45.43881" lon="5.81286">
        <ele>958.1</ele>
        <time>2021-08-24T09:58:26Z</time>
      </trkpt>
      <trkpt lat="45.43878" lon="5.81288">
        <ele>958.2</ele>
        <time>2021-08-24T09:58:28Z</time>
      </trkpt>
      <trkpt lat="45.43877" lon="5.81289">
        <ele>958.2</ele>
        <time>2021-08-24T09:58:29Z</time>
      </trkpt>
      <trkpt lat="45.43874" lon="5.81291">
        <ele>958.3</ele>
        <time>2021-08-24T09:58:31Z</time>
      </trkpt>
      <trkpt lat="45.43873" lon="5.81291">
        <ele>958.3</ele>
        <time>2021-08-24T09:58:32Z</time>
      </trkpt>
      <trkpt lat="45.43872" lon="5.81293">
        <ele>958.2</ele>
        <time>2021-08-24T09:58:33Z</time>
      </trkpt>
      <trkpt lat="45.43871" lon="5.81293">
        <ele>958.2</ele>
        <time>2021-08-24T09:58:35Z</time>
      </trkpt>
      <trkpt lat="45.43872" lon="5.81292">
        <ele>958.2</ele>
        <time>2021-08-24T09:58:37Z</time>
      </trkpt>
      <trkpt lat="45.43872" lon="5.81292">
        <ele>958.2</ele>
        <time>2021-08-24T09:58:38Z</time>
      </trkpt>
      <trkpt lat="45.43872" lon="5.81292">
        <ele>958.2</ele>
        <time>2021-08-24T09:58:39Z</time>
      </trkpt>
      <trkpt lat="45.43872" lon="5.81292">
        <ele>958.2</ele>
        <time>2021-08-24T09:58:40Z</time>
      </trkpt>
      <trkpt lat="45.43872" lon="5.81292">
        <ele>958.2</ele>
        <time>2021-08-24T09:58:41Z</time>
      </trkpt>
      <trkpt lat="45.43872" lon="5.81292">
        <ele>958.2</ele>
        <time>2021-08-24T09:58:43Z</time>
      </trkpt>
      <trkpt lat="45.43874" lon="5.81287">
        <ele>958.1</ele>
        <time>2021-08-24T09:58:51Z</time>
      </trkpt>
      <trkpt lat="45.43871" lon="5.81285">
        <ele>958</ele>
        <time>2021-08-24T09:58:52Z</time>
      </trkpt>
      <trkpt lat="45.43866" lon="5.81286">
        <ele>958</ele>
        <time>2021-08-24T09:58:53Z</time>
      </trkpt>
      <trkpt lat="45.43861" lon="5.81288">
        <ele>958.2</ele>
        <time>2021-08-24T09:58:55Z</time>
      </trkpt>
      <trkpt lat="45.43856" lon="5.8129">
        <ele>958.4</ele>
        <time>2021-08-24T09:58:56Z</time>
      </trkpt>
      <trkpt lat="45.4385" lon="5.81292">
        <ele>958.7</ele>
        <time>2021-08-24T09:58:58Z</time>
      </trkpt>
      <trkpt lat="45.43845" lon="5.81293">
        <ele>959</ele>
        <time>2021-08-24T09:58:59Z</time>
      </trkpt>
      <trkpt lat="45.43841" lon="5.81294">
        <ele>959.2</ele>
        <time>2021-08-24T09:59:01Z</time>
      </trkpt>
      <trkpt lat="45.43835" lon="5.81296">
        <ele>959.6</ele>
        <time>2021-08-24T09:59:03Z</time>
      </trkpt>
      <trkpt lat="45.4383" lon="5.81298">
        <ele>960</ele>
        <time>2021-08-24T09:59:05Z</time>
      </trkpt>
      <trkpt lat="45.43827" lon="5.81299">
        <ele>960.2</ele>
        <time>2021-08-24T09:59:06Z</time>
      </trkpt>
      <trkpt lat="45.43824" lon="5.813">
        <ele>960.5</ele>
        <time>2021-08-24T09:59:07Z</time>
      </trkpt>
      <trkpt lat="45.4382" lon="5.81302">
        <ele>960.8</ele>
        <time>2021-08-24T09:59:09Z</time>
      </trkpt>
      <trkpt lat="45.43819" lon="5.81303">
        <ele>961</ele>
        <time>2021-08-24T09:59:10Z</time>
      </trkpt>
      <trkpt lat="45.43816" lon="5.81305">
        <ele>961.3</ele>
        <time>2021-08-24T09:59:12Z</time>
      </trkpt>
      <trkpt lat="45.43816" lon="5.81305">
        <ele>961.4</ele>
        <time>2021-08-24T09:59:13Z</time>
      </trkpt>
      <trkpt lat="45.43816" lon="5.81305">
        <ele>961.5</ele>
        <time>2021-08-24T09:59:15Z</time>
      </trkpt>
      <trkpt lat="45.43816" lon="5.81306">
        <ele>961.6</ele>
        <time>2021-08-24T09:59:17Z</time>
      </trkpt>
      <trkpt lat="45.43817" lon="5.81307">
        <ele>961.6</ele>
        <time>2021-08-24T09:59:18Z</time>
      </trkpt>
      <trkpt lat="45.43817" lon="5.81307">
        <ele>961.7</ele>
        <time>2021-08-24T09:59:20Z</time>
      </trkpt>
      <trkpt lat="45.43817" lon="5.81307">
        <ele>961.7</ele>
        <time>2021-08-24T09:59:21Z</time>
      </trkpt>
      <trkpt lat="45.43817" lon="5.81307">
        <ele>961.7</ele>
        <time>2021-08-24T09:59:23Z</time>
      </trkpt>
      <trkpt lat="45.43818" lon="5.81308">
        <ele>961.8</ele>
        <time>2021-08-24T09:59:24Z</time>
      </trkpt>
      <trkpt lat="45.43818" lon="5.81308">
        <ele>961.8</ele>
        <time>2021-08-24T09:59:25Z</time>
      </trkpt>
      <trkpt lat="45.43804" lon="5.81302">
        <ele>963.8</ele>
        <time>2021-08-24T09:59:42Z</time>
      </trkpt>
      <trkpt lat="45.438" lon="5.813">
        <ele>964.6</ele>
        <time>2021-08-24T09:59:44Z</time>
      </trkpt>
      <trkpt lat="45.43796" lon="5.81298">
        <ele>965.3</ele>
        <time>2021-08-24T09:59:45Z</time>
      </trkpt>
      <trkpt lat="45.43795" lon="5.81297">
        <ele>965.5</ele>
        <time>2021-08-24T09:59:46Z</time>
      </trkpt>
      <trkpt lat="45.43793" lon="5.81295">
        <ele>966</ele>
        <time>2021-08-24T09:59:47Z</time>
      </trkpt>
      <trkpt lat="45.4379" lon="5.81291">
        <ele>966.8</ele>
        <time>2021-08-24T09:59:48Z</time>
      </trkpt>
      <trkpt lat="45.43788" lon="5.8129">
        <ele>967.3</ele>
        <time>2021-08-24T09:59:49Z</time>
      </trkpt>
      <trkpt lat="45.43786" lon="5.81289">
        <ele>967.6</ele>
        <time>2021-08-24T09:59:51Z</time>
      </trkpt>
      <trkpt lat="45.43785" lon="5.81289">
        <ele>967.9</ele>
        <time>2021-08-24T09:59:52Z</time>
      </trkpt>
      <trkpt lat="45.43783" lon="5.81288">
        <ele>968.3</ele>
        <time>2021-08-24T09:59:54Z</time>
      </trkpt>
      <trkpt lat="45.43782" lon="5.81287">
        <ele>968.5</ele>
        <time>2021-08-24T09:59:55Z</time>
      </trkpt>
      <trkpt lat="45.43782" lon="5.81287">
        <ele>968.5</ele>
        <time>2021-08-24T09:59:56Z</time>
      </trkpt>
      <trkpt lat="45.43782" lon="5.81287">
        <ele>968.5</ele>
        <time>2021-08-24T09:59:58Z</time>
      </trkpt>
      <trkpt lat="45.43782" lon="5.81288">
        <ele>968.5</ele>
        <time>2021-08-24T09:59:59Z</time>
      </trkpt>
      <trkpt lat="45.43782" lon="5.81288">
        <ele>968.6</ele>
        <time>2021-08-24T10:00:01Z</time>
      </trkpt>
      <trkpt lat="45.43782" lon="5.81288">
        <ele>968.6</ele>
        <time>2021-08-24T10:00:02Z</time>
      </trkpt>
      <trkpt lat="45.43782" lon="5.81288">
        <ele>968.6</ele>
        <time>2021-08-24T10:00:03Z</time>
      </trkpt>
      <trkpt lat="45.43782" lon="5.81288">
        <ele>968.6</ele>
        <time>2021-08-24T10:00:05Z</time>
      </trkpt>
      <trkpt lat="45.43782" lon="5.81288">
        <ele>968.6</ele>
        <time>2021-08-24T10:00:06Z</time>
      </trkpt>
      <trkpt lat="45.43782" lon="5.81288">
        <ele>968.6</ele>
        <time>2021-08-24T10:00:07Z</time>
      </trkpt>
      <trkpt lat="45.43782" lon="5.81288">
        <ele>968.6</ele>
        <time>2021-08-24T10:00:09Z</time>
      </trkpt>
      <trkpt lat="45.43773" lon="5.81316">
        <ele>973.4</ele>
        <time>2021-08-24T10:01:12Z</time>
      </trkpt>
      <trkpt lat="45.43772" lon="5.81317">
        <ele>973.7</ele>
        <time>2021-08-24T10:01:14Z</time>
      </trkpt>
      <trkpt lat="45.43771" lon="5.81319">
        <ele>974.1</ele>
        <time>2021-08-24T10:01:15Z</time>
      </trkpt>
      <trkpt lat="45.43769" lon="5.81318">
        <ele>974.4</ele>
        <time>2021-08-24T10:01:16Z</time>
      </trkpt>
      <trkpt lat="45.43769" lon="5.81317">
        <ele>974.6</ele>
        <time>2021-08-24T10:01:17Z</time>
      </trkpt>
      <trkpt lat="45.43767" lon="5.81318">
        <ele>975</ele>
        <time>2021-08-24T10:01:19Z</time>
      </trkpt>
      <trkpt lat="45.43765" lon="5.81317">
        <ele>975.5</ele>
        <time>2021-08-24T10:01:20Z</time>
      </trkpt>
      <trkpt lat="45.43763" lon="5.81316">
        <ele>975.8</ele>
        <time>2021-08-24T10:01:22Z</time>
      </trkpt>
      <trkpt lat="45.43762" lon="5.81314">
        <ele>976.2</ele>
        <time>2021-08-24T10:01:24Z</time>
      </trkpt>
      <trkpt lat="45.4376" lon="5.81314">
        <ele>976.5</ele>
        <time>2021-08-24T10:01:25Z</time>
      </trkpt>
      <trkpt lat="45.43757" lon="5.81313">
        <ele>977</ele>
        <time>2021-08-24T10:01:27Z</time>
      </trkpt>
      <trkpt lat="45.43756" lon="5.81311">
        <ele>977.5</ele>
        <time>2021-08-24T10:01:28Z</time>
      </trkpt>
      <trkpt lat="45.43755" lon="5.81309">
        <ele>977.8</ele>
        <time>2021-08-24T10:01:30Z</time>
      </trkpt>
      <trkpt lat="45.43754" lon="5.81308">
        <ele>978</ele>
        <time>2021-08-24T10:01:31Z</time>
      </trkpt>
      <trkpt lat="45.43753" lon="5.81306">
        <ele>978.2</ele>
        <time>2021-08-24T10:01:33Z</time>
      </trkpt>
      <trkpt lat="45.43753" lon="5.81306">
        <ele>978.3</ele>
        <time>2021-08-24T10:01:34Z</time>
      </trkpt>
      <trkpt lat="45.43753" lon="5.81306">
        <ele>978.3</ele>
        <time>2021-08-24T10:01:36Z</time>
      </trkpt>
      <trkpt lat="45.43753" lon="5.81306">
        <ele>978.3</ele>
        <time>2021-08-24T10:01:37Z</time>
      </trkpt>
      <trkpt lat="45.43753" lon="5.81306">
        <ele>978.3</ele>
        <time>2021-08-24T10:01:38Z</time>
      </trkpt>
      <trkpt lat="45.43753" lon="5.81306">
        <ele>978.4</ele>
        <time>2021-08-24T10:01:40Z</time>
      </trkpt>
      <trkpt lat="45.43752" lon="5.81306">
        <ele>978.4</ele>
        <time>2021-08-24T10:01:41Z</time>
      </trkpt>
      <trkpt lat="45.43728" lon="5.81427">
        <ele>993.7</ele>
        <time>2021-08-24T10:04:12Z</time>
      </trkpt>
      <trkpt lat="45.43725" lon="5.81431">
        <ele>994.3</ele>
        <time>2021-08-24T10:04:14Z</time>
      </trkpt>
      <trkpt lat="45.43724" lon="5.81433">
        <ele>994.5</ele>
        <time>2021-08-24T10:04:15Z</time>
      </trkpt>
      <trkpt lat="45.43723" lon="5.81434">
        <ele>994.7</ele>
        <time>2021-08-24T10:04:16Z</time>
      </trkpt>
      <trkpt lat="45.43722" lon="5.81435">
        <ele>994.9</ele>
        <time>2021-08-24T10:04:17Z</time>
      </trkpt>
      <trkpt lat="45.43721" lon="5.81437">
        <ele>995.1</ele>
        <time>2021-08-24T10:04:18Z</time>
      </trkpt>
      <trkpt lat="45.4372" lon="5.81437">
        <ele>995.2</ele>
        <time>2021-08-24T10:04:19Z</time>
      </trkpt>
      <trkpt lat="45.4372" lon="5.81438">
        <ele>995.3</ele>
        <time>2021-08-24T10:04:21Z</time>
      </trkpt>
      <trkpt lat="45.43719" lon="5.81438">
        <ele>995.4</ele>
        <time>2021-08-24T10:04:22Z</time>
      </trkpt>
      <trkpt lat="45.43719" lon="5.81439">
        <ele>995.5</ele>
        <time>2021-08-24T10:04:24Z</time>
      </trkpt>
      <trkpt lat="45.43718" lon="5.8144">
        <ele>995.6</ele>
        <time>2021-08-24T10:04:25Z</time>
      </trkpt>
      <trkpt lat="45.43717" lon="5.81441">
        <ele>995.8</ele>
        <time>2021-08-24T10:04:26Z</time>
      </trkpt>
      <trkpt lat="45.43716" lon="5.81442">
        <ele>996</ele>
        <time>2021-08-24T10:04:27Z</time>
      </trkpt>
      <trkpt lat="45.43659" lon="5.81539">
        <ele>1012.2</ele>
        <time>2021-08-24T10:07:22Z</time>
      </trkpt>
      <trkpt lat="45.43657" lon="5.81542">
        <ele>1011.8</ele>
        <time>2021-08-24T10:07:23Z</time>
      </trkpt>
      <trkpt lat="45.43652" lon="5.81546">
        <ele>1011.1</ele>
        <time>2021-08-24T10:07:25Z</time>
      </trkpt>
      <trkpt lat="45.43649" lon="5.81549">
        <ele>1010.4</ele>
        <time>2021-08-24T10:07:26Z</time>
      </trkpt>
      <trkpt lat="45.43643" lon="5.81553">
        <ele>1009.1</ele>
        <time>2021-08-24T10:07:28Z</time>
      </trkpt>
      <trkpt lat="45.4364" lon="5.81556">
        <ele>1008.1</ele>
        <time>2021-08-24T10:07:29Z</time>
      </trkpt>
      <trkpt lat="45.43636" lon="5.81559">
        <ele>1007</ele>
        <time>2021-08-24T10:07:30Z</time>
      </trkpt>
      <trkpt lat="45.43635" lon="5.8156">
        <ele>1006.6</ele>
        <time>2021-08-24T10:07:31Z</time>
      </trkpt>
      <trkpt lat="45.43633" lon="5.81562">
        <ele>1005.9</ele>
        <time>2021-08-24T10:07:32Z</time>
      </trkpt>
      <trkpt lat="45.43632" lon="5.81565">
        <ele>1005.1</ele>
        <time>2021-08-24T10:07:34Z</time>
      </trkpt>
      <trkpt lat="45.43631" lon="5.8157">
        <ele>1003.8</ele>
        <time>2021-08-24T10:07:35Z</time>
      </trkpt>
      <trkpt lat="45.43631" lon="5.81573">
        <ele>1003.1</ele>
        <time>2021-08-24T10:07:36Z</time>
      </trkpt>
      <trkpt lat="45.43631" lon="5.81576">
        <ele>1002.4</ele>
        <time>2021-08-24T10:07:38Z</time>
      </trkpt>
      <trkpt lat="45.43632" lon="5.8158">
        <ele>1001.2</ele>
        <time>2021-08-24T10:07:40Z</time>
      </trkpt>
      <trkpt lat="45.43634" lon="5.81584">
        <ele>1000</ele>
        <time>2021-08-24T10:07:42Z</time>
      </trkpt>
      <trkpt lat="45.43636" lon="5.81588">
        <ele>999</ele>
        <time>2021-08-24T10:07:44Z</time>
      </trkpt>
      <trkpt lat="45.43637" lon="5.81591">
        <ele>998.3</ele>
        <time>2021-08-24T10:07:45Z</time>
      </trkpt>
      <trkpt lat="45.43639" lon="5.81596">
        <ele>997.1</ele>
        <time>2021-08-24T10:07:47Z</time>
      </trkpt>
      <trkpt lat="45.43641" lon="5.81599">
        <ele>996.3</ele>
        <time>2021-08-24T10:07:48Z</time>
      </trkpt>
      <trkpt lat="45.43644" lon="5.81604">
        <ele>995.1</ele>
        <time>2021-08-24T10:07:49Z</time>
      </trkpt>
      <trkpt lat="45.43646" lon="5.81607">
        <ele>994.3</ele>
        <time>2021-08-24T10:07:50Z</time>
      </trkpt>
      <trkpt lat="45.43648" lon="5.81611">
        <ele>993.4</ele>
        <time>2021-08-24T10:07:51Z</time>
      </trkpt>
      <trkpt lat="45.43651" lon="5.81615">
        <ele>992.2</ele>
        <time>2021-08-24T10:07:53Z</time>
      </trkpt>
      <trkpt lat="45.43657" lon="5.81619">
        <ele>990.5</ele>
        <time>2021-08-24T10:07:54Z</time>
      </trkpt>
      <trkpt lat="45.43661" lon="5.81623">
        <ele>989.2</ele>
        <time>2021-08-24T10:07:56Z</time>
      </trkpt>
      <trkpt lat="45.43664" lon="5.81626">
        <ele>988.1</ele>
        <time>2021-08-24T10:07:57Z</time>
      </trkpt>
      <trkpt lat="45.43666" lon="5.8163">
        <ele>987.1</ele>
        <time>2021-08-24T10:07:58Z</time>
      </trkpt>
      <trkpt lat="45.43668" lon="5.81633">
        <ele>986.4</ele>
        <time>2021-08-24T10:07:59Z</time>
      </trkpt>
      <trkpt lat="45.4367" lon="5.81636">
        <ele>985.8</ele>
        <time>2021-08-24T10:08:00Z</time>
      </trkpt>
      <trkpt lat="45.43672" lon="5.81639">
        <ele>985</ele>
        <time>2021-08-24T10:08:02Z</time>
      </trkpt>
      <trkpt lat="45.43674" lon="5.81642">
        <ele>984.5</ele>
        <time>2021-08-24T10:08:03Z</time>
      </trkpt>
      <trkpt lat="45.43674" lon="5.81643">
        <ele>984.2</ele>
        <time>2021-08-24T10:08:04Z</time>
      </trkpt>
      <trkpt lat="45.43677" lon="5.81647">
        <ele>983.4</ele>
        <time>2021-08-24T10:08:06Z</time>
      </trkpt>
      <trkpt lat="45.43678" lon="5.81653">
        <ele>982.6</ele>
        <time>2021-08-24T10:08:07Z</time>
      </trkpt>
      <trkpt lat="45.43678" lon="5.8166">
        <ele>981.7</ele>
        <time>2021-08-24T10:08:08Z</time>
      </trkpt>
      <trkpt lat="45.43679" lon="5.81667">
        <ele>980.9</ele>
        <time>2021-08-24T10:08:10Z</time>
      </trkpt>
      <trkpt lat="45.43681" lon="5.81672">
        <ele>980.3</ele>
        <time>2021-08-24T10:08:11Z</time>
      </trkpt>
      <trkpt lat="45.43683" lon="5.8168">
        <ele>979.6</ele>
        <time>2021-08-24T10:08:13Z</time>
      </trkpt>
      <trkpt lat="45.43684" lon="5.81686">
        <ele>979.3</ele>
        <time>2021-08-24T10:08:14Z</time>
      </trkpt>
      <trkpt lat="45.43687" lon="5.81695">
        <ele>978.8</ele>
        <time>2021-08-24T10:08:16Z</time>
      </trkpt>
      <trkpt lat="45.43689" lon="5.81702">
        <ele>978.6</ele>
        <time>2021-08-24T10:08:17Z</time>
      </trkpt>
      <trkpt lat="45.43692" lon="5.81711">
        <ele>978.5</ele>
        <time>2021-08-24T10:08:18Z</time>
      </trkpt>
      <trkpt lat="45.43694" lon="5.81719">
        <ele>978.6</ele>
        <time>2021-08-24T10:08:20Z</time>
      </trkpt>
      <trkpt lat="45.43695" lon="5.81724">
        <ele>978.7</ele>
        <time>2021-08-24T10:08:21Z</time>
      </trkpt>
      <trkpt lat="45.43698" lon="5.81732">
        <ele>978.8</ele>
        <time>2021-08-24T10:08:23Z</time>
      </trkpt>
      <trkpt lat="45.437" lon="5.81739">
        <ele>978.9</ele>
        <time>2021-08-24T10:08:25Z</time>
      </trkpt>
      <trkpt lat="45.43703" lon="5.81743">
        <ele>978.9</ele>
        <time>2021-08-24T10:08:26Z</time>
      </trkpt>
      <trkpt lat="45.43705" lon="5.81748">
        <ele>978.8</ele>
        <time>2021-08-24T10:08:27Z</time>
      </trkpt>
      <trkpt lat="45.43707" lon="5.81751">
        <ele>978.6</ele>
        <time>2021-08-24T10:08:29Z</time>
      </trkpt>
      <trkpt lat="45.43707" lon="5.81753">
        <ele>978.5</ele>
        <time>2021-08-24T10:08:31Z</time>
      </trkpt>
      <trkpt lat="45.43707" lon="5.81754">
        <ele>978.4</ele>
        <time>2021-08-24T10:08:32Z</time>
      </trkpt>
      <trkpt lat="45.43707" lon="5.81755">
        <ele>978.4</ele>
        <time>2021-08-24T10:08:34Z</time>
      </trkpt>
      <trkpt lat="45.43707" lon="5.81755">
        <ele>978.3</ele>
        <time>2021-08-24T10:08:35Z</time>
      </trkpt>
      <trkpt lat="45.43707" lon="5.81755">
        <ele>978.3</ele>
        <time>2021-08-24T10:08:36Z</time>
      </trkpt>
      <trkpt lat="45.43706" lon="5.81755">
        <ele>978.3</ele>
        <time>2021-08-24T10:08:37Z</time>
      </trkpt>
      <trkpt lat="45.43706" lon="5.81755">
        <ele>978.2</ele>
        <time>2021-08-24T10:08:38Z</time>
      </trkpt>
      <trkpt lat="45.43706" lon="5.81756">
        <ele>978.2</ele>
        <time>2021-08-24T10:08:39Z</time>
      </trkpt>
      <trkpt lat="45.43674" lon="5.81766">
        <ele>975</ele>
        <time>2021-08-24T10:09:05Z</time>
      </trkpt>
      <trkpt lat="45.43664" lon="5.81771">
        <ele>974.3</ele>
        <time>2021-08-24T10:09:07Z</time>
      </trkpt>
      <trkpt lat="45.43658" lon="5.81772">
        <ele>974</ele>
        <time>2021-08-24T10:09:08Z</time>
      </trkpt>
      <trkpt lat="45.43655" lon="5.81773">
        <ele>973.7</ele>
        <time>2021-08-24T10:09:09Z</time>
      </trkpt>
      <trkpt lat="45.4365" lon="5.81773">
        <ele>973.3</ele>
        <time>2021-08-24T10:09:10Z</time>
      </trkpt>
      <trkpt lat="45.43646" lon="5.81773">
        <ele>972.8</ele>
        <time>2021-08-24T10:09:11Z</time>
      </trkpt>
      <trkpt lat="45.43643" lon="5.81772">
        <ele>972.4</ele>
        <time>2021-08-24T10:09:12Z</time>
      </trkpt>
      <trkpt lat="45.43637" lon="5.81771">
        <ele>971.4</ele>
        <time>2021-08-24T10:09:14Z</time>
      </trkpt>
      <trkpt lat="45.43633" lon="5.81771">
        <ele>970.8</ele>
        <time>2021-08-24T10:09:15Z</time>
      </trkpt>
      <trkpt lat="45.43631" lon="5.8177">
        <ele>970.4</ele>
        <time>2021-08-24T10:09:16Z</time>
      </trkpt>
      <trkpt lat="45.43627" lon="5.8177">
        <ele>969.7</ele>
        <time>2021-08-24T10:09:18Z</time>
      </trkpt>
      <trkpt lat="45.43624" lon="5.81769">
        <ele>969.2</ele>
        <time>2021-08-24T10:09:19Z</time>
      </trkpt>
      <trkpt lat="45.4362" lon="5.81768">
        <ele>968.5</ele>
        <time>2021-08-24T10:09:20Z</time>
      </trkpt>
      <trkpt lat="45.43619" lon="5.81767">
        <ele>968.3</ele>
        <time>2021-08-24T10:09:21Z</time>
      </trkpt>
      <trkpt lat="45.43616" lon="5.81765">
        <ele>967.5</ele>
        <time>2021-08-24T10:09:22Z</time>
      </trkpt>
      <trkpt lat="45.43615" lon="5.81764">
        <ele>967.3</ele>
        <time>2021-08-24T10:09:23Z</time>
      </trkpt>
      <trkpt lat="45.43612" lon="5.8176">
        <ele>966.4</ele>
        <time>2021-08-24T10:09:25Z</time>
      </trkpt>
      <trkpt lat="45.43609" lon="5.81756">
        <ele>965.5</ele>
        <time>2021-08-24T10:09:26Z</time>
      </trkpt>
      <trkpt lat="45.43608" lon="5.81755">
        <ele>965.2</ele>
        <time>2021-08-24T10:09:27Z</time>
      </trkpt>
      <trkpt lat="45.43607" lon="5.81753">
        <ele>964.6</ele>
        <time>2021-08-24T10:09:28Z</time>
      </trkpt>
      <trkpt lat="45.43603" lon="5.81749">
        <ele>963.6</ele>
        <time>2021-08-24T10:09:30Z</time>
      </trkpt>
      <trkpt lat="45.436" lon="5.81747">
        <ele>962.6</ele>
        <time>2021-08-24T10:09:31Z</time>
      </trkpt>
      <trkpt lat="45.43598" lon="5.81746">
        <ele>962.2</ele>
        <time>2021-08-24T10:09:32Z</time>
      </trkpt>
      <trkpt lat="45.43596" lon="5.81744">
        <ele>961.6</ele>
        <time>2021-08-24T10:09:33Z</time>
      </trkpt>
      <trkpt lat="45.43593" lon="5.81742">
        <ele>961</ele>
        <time>2021-08-24T10:09:35Z</time>
      </trkpt>
      <trkpt lat="45.4359" lon="5.81741">
        <ele>960.4</ele>
        <time>2021-08-24T10:09:36Z</time>
      </trkpt>
      <trkpt lat="45.43585" lon="5.81742">
        <ele>959.3</ele>
        <time>2021-08-24T10:09:38Z</time>
      </trkpt>
      <trkpt lat="45.43581" lon="5.81743">
        <ele>958.5</ele>
        <time>2021-08-24T10:09:39Z</time>
      </trkpt>
      <trkpt lat="45.43578" lon="5.81745">
        <ele>957.8</ele>
        <time>2021-08-24T10:09:40Z</time>
      </trkpt>
      <trkpt lat="45.43573" lon="5.81748">
        <ele>956.7</ele>
        <time>2021-08-24T10:09:42Z</time>
      </trkpt>
      <trkpt lat="45.43568" lon="5.8175">
        <ele>955.6</ele>
        <time>2021-08-24T10:09:44Z</time>
      </trkpt>
      <trkpt lat="45.43564" lon="5.81751">
        <ele>954.6</ele>
        <time>2021-08-24T10:09:45Z</time>
      </trkpt>
      <trkpt lat="45.43557" lon="5.81753">
        <ele>953.1</ele>
        <time>2021-08-24T10:09:47Z</time>
      </trkpt>
      <trkpt lat="45.43551" lon="5.81753">
        <ele>951.9</ele>
        <time>2021-08-24T10:09:48Z</time>
      </trkpt>
      <trkpt lat="45.43544" lon="5.81748">
        <ele>950.5</ele>
        <time>2021-08-24T10:09:50Z</time>
      </trkpt>
      <trkpt lat="45.4354" lon="5.81746">
        <ele>949.9</ele>
        <time>2021-08-24T10:09:51Z</time>
      </trkpt>
      <trkpt lat="45.43534" lon="5.81746">
        <ele>949</ele>
        <time>2021-08-24T10:09:53Z</time>
      </trkpt>
      <trkpt lat="45.43531" lon="5.81747">
        <ele>948.6</ele>
        <time>2021-08-24T10:09:54Z</time>
      </trkpt>
      <trkpt lat="45.43525" lon="5.81749">
        <ele>947.6</ele>
        <time>2021-08-24T10:09:56Z</time>
      </trkpt>
      <trkpt lat="45.43523" lon="5.8175">
        <ele>947.3</ele>
        <time>2021-08-24T10:09:57Z</time>
      </trkpt>
      <trkpt lat="45.43519" lon="5.81753">
        <ele>946.5</ele>
        <time>2021-08-24T10:09:59Z</time>
      </trkpt>
      <trkpt lat="45.43517" lon="5.81754">
        <ele>946.2</ele>
        <time>2021-08-24T10:10:00Z</time>
      </trkpt>
      <trkpt lat="45.43515" lon="5.81756">
        <ele>945.8</ele>
        <time>2021-08-24T10:10:02Z</time>
      </trkpt>
      <trkpt lat="45.43514" lon="5.81756">
        <ele>945.6</ele>
        <time>2021-08-24T10:10:03Z</time>
      </trkpt>
      <trkpt lat="45.43514" lon="5.81757">
        <ele>945.6</ele>
        <time>2021-08-24T10:10:05Z</time>
      </trkpt>
      <trkpt lat="45.43514" lon="5.81757">
        <ele>945.6</ele>
        <time>2021-08-24T10:10:07Z</time>
      </trkpt>
      <trkpt lat="45.43461" lon="5.81767">
        <ele>939.2</ele>
        <time>2021-08-24T10:10:42Z</time>
      </trkpt>
      <trkpt lat="45.43452" lon="5.81771">
        <ele>938.4</ele>
        <time>2021-08-24T10:10:44Z</time>
      </trkpt>
      <trkpt lat="45.43444" lon="5.81775">
        <ele>937.7</ele>
        <time>2021-08-24T10:10:46Z</time>
      </trkpt>
      <trkpt lat="45.43441" lon="5.81776">
        <ele>937.4</ele>
        <time>2021-08-24T10:10:47Z</time>
      </trkpt>
      <trkpt lat="45.43437" lon="5.81777">
        <ele>937</ele>
        <time>2021-08-24T10:10:48Z</time>
      </trkpt>
      <trkpt lat="45.43433" lon="5.81778">
        <ele>936.5</ele>
        <time>2021-08-24T10:10:50Z</time>
      </trkpt>
      <trkpt lat="45.43427" lon="5.81775">
        <ele>935.9</ele>
        <time>2021-08-24T10:10:52Z</time>
      </trkpt>
      <trkpt lat="45.43419" lon="5.81771">
        <ele>935.1</ele>
        <time>2021-08-24T10:10:54Z</time>
      </trkpt>
      <trkpt lat="45.43416" lon="5.81769">
        <ele>934.8</ele>
        <time>2021-08-24T10:10:55Z</time>
      </trkpt>
      <trkpt lat="45.43412" lon="5.81766">
        <ele>934.4</ele>
        <time>2021-08-24T10:10:56Z</time>
      </trkpt>
      <trkpt lat="45.43403" lon="5.81759">
        <ele>933.7</ele>
        <time>2021-08-24T10:10:58Z</time>
      </trkpt>
      <trkpt lat="45.43395" lon="5.81754">
        <ele>933.3</ele>
        <time>2021-08-24T10:11:00Z</time>
      </trkpt>
      <trkpt lat="45.43388" lon="5.8175">
        <ele>932.9</ele>
        <time>2021-08-24T10:11:02Z</time>
      </trkpt>
      <trkpt lat="45.43381" lon="5.81748">
        <ele>932.6</ele>
        <time>2021-08-24T10:11:04Z</time>
      </trkpt>
      <trkpt lat="45.43377" lon="5.81747">
        <ele>932.4</ele>
        <time>2021-08-24T10:11:05Z</time>
      </trkpt>
      <trkpt lat="45.43374" lon="5.81747">
        <ele>932.3</ele>
        <time>2021-08-24T10:11:06Z</time>
      </trkpt>
      <trkpt lat="45.43349" lon="5.81731">
        <ele>933.1</ele>
        <time>2021-08-24T10:11:19Z</time>
      </trkpt>
      <trkpt lat="45.43344" lon="5.81736">
        <ele>933.6</ele>
        <time>2021-08-24T10:11:21Z</time>
      </trkpt>
      <trkpt lat="45.43342" lon="5.81739">
        <ele>934</ele>
        <time>2021-08-24T10:11:22Z</time>
      </trkpt>
      <trkpt lat="45.4334" lon="5.81744">
        <ele>934.4</ele>
        <time>2021-08-24T10:11:23Z</time>
      </trkpt>
      <trkpt lat="45.43338" lon="5.81749">
        <ele>934.8</ele>
        <time>2021-08-24T10:11:25Z</time>
      </trkpt>
      <trkpt lat="45.43336" lon="5.81751">
        <ele>935</ele>
        <time>2021-08-24T10:11:26Z</time>
      </trkpt>
      <trkpt lat="45.43334" lon="5.81756">
        <ele>935.3</ele>
        <time>2021-08-24T10:11:28Z</time>
      </trkpt>
      <trkpt lat="45.43332" lon="5.8176">
        <ele>935.5</ele>
        <time>2021-08-24T10:11:29Z</time>
      </trkpt>
      <trkpt lat="45.43331" lon="5.81763">
        <ele>935.6</ele>
        <time>2021-08-24T10:11:30Z</time>
      </trkpt>
      <trkpt lat="45.43328" lon="5.81768">
        <ele>935.7</ele>
        <time>2021-08-24T10:11:32Z</time>
      </trkpt>
      <trkpt lat="45.43326" lon="5.8177">
        <ele>935.7</ele>
        <time>2021-08-24T10:11:33Z</time>
      </trkpt>
      <trkpt lat="45.43324" lon="5.81772">
        <ele>935.6</ele>
        <time>2021-08-24T10:11:34Z</time>
      </trkpt>
      <trkpt lat="45.43322" lon="5.81776">
        <ele>935.6</ele>
        <time>2021-08-24T10:11:36Z</time>
      </trkpt>
      <trkpt lat="45.43322" lon="5.81781">
        <ele>935.5</ele>
        <time>2021-08-24T10:11:37Z</time>
      </trkpt>
      <trkpt lat="45.43321" lon="5.81782">
        <ele>935.5</ele>
        <time>2021-08-24T10:11:38Z</time>
      </trkpt>
      <trkpt lat="45.4332" lon="5.81789">
        <ele>935.2</ele>
        <time>2021-08-24T10:11:39Z</time>
      </trkpt>
      <trkpt lat="45.4332" lon="5.81792">
        <ele>935.1</ele>
        <time>2021-08-24T10:11:40Z</time>
      </trkpt>
      <trkpt lat="45.43318" lon="5.81799">
        <ele>934.9</ele>
        <time>2021-08-24T10:11:42Z</time>
      </trkpt>
      <trkpt lat="45.43316" lon="5.81804">
        <ele>934.7</ele>
        <time>2021-08-24T10:11:43Z</time>
      </trkpt>
      <trkpt lat="45.43311" lon="5.81811">
        <ele>934.3</ele>
        <time>2021-08-24T10:11:44Z</time>
      </trkpt>
      <trkpt lat="45.43306" lon="5.81816">
        <ele>933.9</ele>
        <time>2021-08-24T10:11:46Z</time>
      </trkpt>
      <trkpt lat="45.43301" lon="5.81819">
        <ele>933.5</ele>
        <time>2021-08-24T10:11:47Z</time>
      </trkpt>
      <trkpt lat="45.43296" lon="5.8182">
        <ele>933.1</ele>
        <time>2021-08-24T10:11:48Z</time>
      </trkpt>
      <trkpt lat="45.43291" lon="5.81821">
        <ele>932.6</ele>
        <time>2021-08-24T10:11:49Z</time>
      </trkpt>
      <trkpt lat="45.43286" lon="5.81822">
        <ele>932</ele>
        <time>2021-08-24T10:11:51Z</time>
      </trkpt>
      <trkpt lat="45.43281" lon="5.81822">
        <ele>931.4</ele>
        <time>2021-08-24T10:11:53Z</time>
      </trkpt>
      <trkpt lat="45.43276" lon="5.81822">
        <ele>930.9</ele>
        <time>2021-08-24T10:11:54Z</time>
      </trkpt>
      <trkpt lat="45.4327" lon="5.81819">
        <ele>930</ele>
        <time>2021-08-24T10:11:55Z</time>
      </trkpt>
      <trkpt lat="45.43264" lon="5.81816">
        <ele>929.2</ele>
        <time>2021-08-24T10:11:56Z</time>
      </trkpt>
      <trkpt lat="45.43257" lon="5.81812">
        <ele>928.1</ele>
        <time>2021-08-24T10:11:58Z</time>
      </trkpt>
      <trkpt lat="45.43251" lon="5.81809">
        <ele>927.3</ele>
        <time>2021-08-24T10:11:59Z</time>
      </trkpt>
      <trkpt lat="45.43247" lon="5.81809">
        <ele>926.8</ele>
        <time>2021-08-24T10:12:00Z</time>
      </trkpt>
      <trkpt lat="45.43238" lon="5.81808">
        <ele>925.8</ele>
        <time>2021-08-24T10:12:02Z</time>
      </trkpt>
      <trkpt lat="45.43231" lon="5.8181">
        <ele>925.1</ele>
        <time>2021-08-24T10:12:04Z</time>
      </trkpt>
      <trkpt lat="45.43227" lon="5.81813">
        <ele>924.7</ele>
        <time>2021-08-24T10:12:05Z</time>
      </trkpt>
      <trkpt lat="45.43224" lon="5.81814">
        <ele>924.4</ele>
        <time>2021-08-24T10:12:06Z</time>
      </trkpt>
      <trkpt lat="45.4322" lon="5.8182">
        <ele>923.8</ele>
        <time>2021-08-24T10:12:08Z</time>
      </trkpt>
      <trkpt lat="45.43216" lon="5.81825">
        <ele>923.3</ele>
        <time>2021-08-24T10:12:09Z</time>
      </trkpt>
      <trkpt lat="45.43213" lon="5.8183">
        <ele>922.9</ele>
        <time>2021-08-24T10:12:10Z</time>
      </trkpt>
      <trkpt lat="45.4321" lon="5.81835">
        <ele>922.5</ele>
        <time>2021-08-24T10:12:11Z</time>
      </trkpt>
      <trkpt lat="45.43205" lon="5.81844">
        <ele>921.7</ele>
        <time>2021-08-24T10:12:13Z</time>
      </trkpt>
      <trkpt lat="45.43202" lon="5.8185">
        <ele>921</ele>
        <time>2021-08-24T10:12:14Z</time>
      </trkpt>
      <trkpt lat="45.43198" lon="5.81858">
        <ele>920</ele>
        <time>2021-08-24T10:12:15Z</time>
      </trkpt>
      <trkpt lat="45.43194" lon="5.81865">
        <ele>919.1</ele>
        <time>2021-08-24T10:12:17Z</time>
      </trkpt>
      <trkpt lat="45.43191" lon="5.8187">
        <ele>918.4</ele>
        <time>2021-08-24T10:12:18Z</time>
      </trkpt>
      <trkpt lat="45.43185" lon="5.81879">
        <ele>917.1</ele>
        <time>2021-08-24T10:12:20Z</time>
      </trkpt>
      <trkpt lat="45.43182" lon="5.81884">
        <ele>916.5</ele>
        <time>2021-08-24T10:12:21Z</time>
      </trkpt>
      <trkpt lat="45.43182" lon="5.81887">
        <ele>916.3</ele>
        <time>2021-08-24T10:12:22Z</time>
      </trkpt>
      <trkpt lat="45.43179" lon="5.81898">
        <ele>915.3</ele>
        <time>2021-08-24T10:12:24Z</time>
      </trkpt>
      <trkpt lat="45.43176" lon="5.81903">
        <ele>914.7</ele>
        <time>2021-08-24T10:12:26Z</time>
      </trkpt>
      <trkpt lat="45.43172" lon="5.81908">
        <ele>914</ele>
        <time>2021-08-24T10:12:27Z</time>
      </trkpt>
      <trkpt lat="45.43166" lon="5.81913">
        <ele>913.4</ele>
        <time>2021-08-24T10:12:29Z</time>
      </trkpt>
      <trkpt lat="45.43163" lon="5.81915">
        <ele>913</ele>
        <time>2021-08-24T10:12:30Z</time>
      </trkpt>
      <trkpt lat="45.43153" lon="5.8192">
        <ele>912</ele>
        <time>2021-08-24T10:12:31Z</time>
      </trkpt>
      <trkpt lat="45.43146" lon="5.81925">
        <ele>911.3</ele>
        <time>2021-08-24T10:12:33Z</time>
      </trkpt>
      <trkpt lat="45.4314" lon="5.81931">
        <ele>910.3</ele>
        <time>2021-08-24T10:12:34Z</time>
      </trkpt>
      <trkpt lat="45.43134" lon="5.81936">
        <ele>909.3</ele>
        <time>2021-08-24T10:12:36Z</time>
      </trkpt>
      <trkpt lat="45.43129" lon="5.8194">
        <ele>908.5</ele>
        <time>2021-08-24T10:12:37Z</time>
      </trkpt>
      <trkpt lat="45.43126" lon="5.81943">
        <ele>908.1</ele>
        <time>2021-08-24T10:12:38Z</time>
      </trkpt>
      <trkpt lat="45.43125" lon="5.81943">
        <ele>907.9</ele>
        <time>2021-08-24T10:12:39Z</time>
      </trkpt>
      <trkpt lat="45.43123" lon="5.81945">
        <ele>907.6</ele>
        <time>2021-08-24T10:12:41Z</time>
      </trkpt>
      <trkpt lat="45.43122" lon="5.81945">
        <ele>907.6</ele>
        <time>2021-08-24T10:12:42Z</time>
      </trkpt>
      <trkpt lat="45.43119" lon="5.81948">
        <ele>907.2</ele>
        <time>2021-08-24T10:12:43Z</time>
      </trkpt>
      <trkpt lat="45.43117" lon="5.8195">
        <ele>906.8</ele>
        <time>2021-08-24T10:12:44Z</time>
      </trkpt>
      <trkpt lat="45.43114" lon="5.81953">
        <ele>906.5</ele>
        <time>2021-08-24T10:12:46Z</time>
      </trkpt>
      <trkpt lat="45.43111" lon="5.81956">
        <ele>906</ele>
        <time>2021-08-24T10:12:47Z</time>
      </trkpt>
      <trkpt lat="45.43108" lon="5.81958">
        <ele>905.8</ele>
        <time>2021-08-24T10:12:48Z</time>
      </trkpt>
      <trkpt lat="45.43106" lon="5.81961">
        <ele>905.6</ele>
        <time>2021-08-24T10:13:17Z</time>
      </trkpt>
      <trkpt lat="45.43103" lon="5.81964">
        <ele>905.4</ele>
        <time>2021-08-24T10:13:18Z</time>
      </trkpt>
      <trkpt lat="45.43096" lon="5.81977">
        <ele>904.7</ele>
        <time>2021-08-24T10:13:20Z</time>
      </trkpt>
      <trkpt lat="45.43089" lon="5.81989">
        <ele>904.2</ele>
        <time>2021-08-24T10:13:22Z</time>
      </trkpt>
      <trkpt lat="45.43085" lon="5.81997">
        <ele>904.2</ele>
        <time>2021-08-24T10:13:23Z</time>
      </trkpt>
      <trkpt lat="45.43083" lon="5.82003">
        <ele>904.4</ele>
        <time>2021-08-24T10:13:24Z</time>
      </trkpt>
      <trkpt lat="45.43079" lon="5.82012">
        <ele>904.6</ele>
        <time>2021-08-24T10:13:26Z</time>
      </trkpt>
      <trkpt lat="45.43076" lon="5.82019">
        <ele>904.8</ele>
        <time>2021-08-24T10:13:27Z</time>
      </trkpt>
      <trkpt lat="45.43072" lon="5.82033">
        <ele>905.1</ele>
        <time>2021-08-24T10:13:30Z</time>
      </trkpt>
      <trkpt lat="45.4307" lon="5.82038">
        <ele>905.2</ele>
        <time>2021-08-24T10:13:31Z</time>
      </trkpt>
      <trkpt lat="45.43069" lon="5.82042">
        <ele>905.4</ele>
        <time>2021-08-24T10:13:33Z</time>
      </trkpt>
      <trkpt lat="45.43068" lon="5.82044">
        <ele>905.5</ele>
        <time>2021-08-24T10:13:34Z</time>
      </trkpt>
      <trkpt lat="45.43066" lon="5.82048">
        <ele>905.6</ele>
        <time>2021-08-24T10:13:36Z</time>
      </trkpt>
      <trkpt lat="45.43063" lon="5.82052">
        <ele>905.7</ele>
        <time>2021-08-24T10:13:37Z</time>
      </trkpt>
      <trkpt lat="45.43062" lon="5.82052">
        <ele>905.8</ele>
        <time>2021-08-24T10:13:38Z</time>
      </trkpt>
      <trkpt lat="45.43058" lon="5.82055">
        <ele>906</ele>
        <time>2021-08-24T10:13:40Z</time>
      </trkpt>
      <trkpt lat="45.43054" lon="5.82057">
        <ele>906.2</ele>
        <time>2021-08-24T10:13:41Z</time>
      </trkpt>
      <trkpt lat="45.43051" lon="5.82059">
        <ele>906.3</ele>
        <time>2021-08-24T10:13:42Z</time>
      </trkpt>
      <trkpt lat="45.43044" lon="5.82063">
        <ele>906.4</ele>
        <time>2021-08-24T10:13:44Z</time>
      </trkpt>
      <trkpt lat="45.4304" lon="5.82065">
        <ele>906.4</ele>
        <time>2021-08-24T10:13:45Z</time>
      </trkpt>
      <trkpt lat="45.43033" lon="5.82069">
        <ele>906.1</ele>
        <time>2021-08-24T10:13:47Z</time>
      </trkpt>
      <trkpt lat="45.43026" lon="5.82074">
        <ele>905.5</ele>
        <time>2021-08-24T10:13:49Z</time>
      </trkpt>
      <trkpt lat="45.4302" lon="5.82076">
        <ele>904.8</ele>
        <time>2021-08-24T10:13:50Z</time>
      </trkpt>
      <trkpt lat="45.43013" lon="5.82077">
        <ele>903.8</ele>
        <time>2021-08-24T10:13:52Z</time>
      </trkpt>
      <trkpt lat="45.43008" lon="5.82078">
        <ele>903.2</ele>
        <time>2021-08-24T10:13:53Z</time>
      </trkpt>
      <trkpt lat="45.43006" lon="5.82078">
        <ele>902.9</ele>
        <time>2021-08-24T10:13:54Z</time>
      </trkpt>
      <trkpt lat="45.43002" lon="5.82078">
        <ele>902.5</ele>
        <time>2021-08-24T10:13:56Z</time>
      </trkpt>
      <trkpt lat="45.43001" lon="5.82075">
        <ele>902.2</ele>
        <time>2021-08-24T10:13:57Z</time>
      </trkpt>
      <trkpt lat="45.42999" lon="5.82074">
        <ele>902</ele>
        <time>2021-08-24T10:13:59Z</time>
      </trkpt>
      <trkpt lat="45.42999" lon="5.82073">
        <ele>902</ele>
        <time>2021-08-24T10:14:00Z</time>
      </trkpt>
      <trkpt lat="45.42999" lon="5.82073">
        <ele>901.9</ele>
        <time>2021-08-24T10:14:02Z</time>
      </trkpt>
      <trkpt lat="45.42999" lon="5.82073">
        <ele>901.9</ele>
        <time>2021-08-24T10:14:03Z</time>
      </trkpt>
      <trkpt lat="45.42999" lon="5.82073">
        <ele>901.9</ele>
        <time>2021-08-24T10:14:05Z</time>
      </trkpt>
      <trkpt lat="45.42967" lon="5.82101">
        <ele>897.1</ele>
        <time>2021-08-24T10:14:35Z</time>
      </trkpt>
      <trkpt lat="45.42964" lon="5.82104">
        <ele>896.5</ele>
        <time>2021-08-24T10:14:36Z</time>
      </trkpt>
      <trkpt lat="45.42962" lon="5.82108">
        <ele>895.8</ele>
        <time>2021-08-24T10:14:37Z</time>
      </trkpt>
      <trkpt lat="45.42958" lon="5.82114">
        <ele>894.6</ele>
        <time>2021-08-24T10:14:38Z</time>
      </trkpt>
      <trkpt lat="45.42954" lon="5.82119">
        <ele>893.5</ele>
        <time>2021-08-24T10:14:39Z</time>
      </trkpt>
      <trkpt lat="45.42949" lon="5.82126">
        <ele>892.2</ele>
        <time>2021-08-24T10:14:41Z</time>
      </trkpt>
      <trkpt lat="45.42942" lon="5.82135">
        <ele>891</ele>
        <time>2021-08-24T10:14:43Z</time>
      </trkpt>
      <trkpt lat="45.42939" lon="5.82138">
        <ele>890.6</ele>
        <time>2021-08-24T10:14:44Z</time>
      </trkpt>
      <trkpt lat="45.42937" lon="5.8214">
        <ele>890.3</ele>
        <time>2021-08-24T10:14:45Z</time>
      </trkpt>
      <trkpt lat="45.42936" lon="5.82145">
        <ele>890</ele>
        <time>2021-08-24T10:14:47Z</time>
      </trkpt>
      <trkpt lat="45.42935" lon="5.8215">
        <ele>889.6</ele>
        <time>2021-08-24T10:14:48Z</time>
      </trkpt>
      <trkpt lat="45.42934" lon="5.82158">
        <ele>889.1</ele>
        <time>2021-08-24T10:14:49Z</time>
      </trkpt>
      <trkpt lat="45.42933" lon="5.82165">
        <ele>888.6</ele>
        <time>2021-08-24T10:14:50Z</time>
      </trkpt>
      <trkpt lat="45.42933" lon="5.82171">
        <ele>888.2</ele>
        <time>2021-08-24T10:14:51Z</time>
      </trkpt>
      <trkpt lat="45.42933" lon="5.82179">
        <ele>887.6</ele>
        <time>2021-08-24T10:14:52Z</time>
      </trkpt>
      <trkpt lat="45.42935" lon="5.82185">
        <ele>887.2</ele>
        <time>2021-08-24T10:14:54Z</time>
      </trkpt>
      <trkpt lat="45.42937" lon="5.8219">
        <ele>886.7</ele>
        <time>2021-08-24T10:14:55Z</time>
      </trkpt>
      <trkpt lat="45.4294" lon="5.82196">
        <ele>886.2</ele>
        <time>2021-08-24T10:14:57Z</time>
      </trkpt>
      <trkpt lat="45.42941" lon="5.82198">
        <ele>885.9</ele>
        <time>2021-08-24T10:14:58Z</time>
      </trkpt>
      <trkpt lat="45.42943" lon="5.822">
        <ele>885.7</ele>
        <time>2021-08-24T10:14:59Z</time>
      </trkpt>
      <trkpt lat="45.42945" lon="5.82204">
        <ele>885.3</ele>
        <time>2021-08-24T10:15:00Z</time>
      </trkpt>
      <trkpt lat="45.42947" lon="5.82208">
        <ele>884.8</ele>
        <time>2021-08-24T10:15:01Z</time>
      </trkpt>
      <trkpt lat="45.42949" lon="5.82211">
        <ele>884.4</ele>
        <time>2021-08-24T10:15:02Z</time>
      </trkpt>
      <trkpt lat="45.42951" lon="5.82216">
        <ele>883.8</ele>
        <time>2021-08-24T10:15:04Z</time>
      </trkpt>
      <trkpt lat="45.42953" lon="5.8222">
        <ele>883.3</ele>
        <time>2021-08-24T10:15:05Z</time>
      </trkpt>
      <trkpt lat="45.42954" lon="5.82223">
        <ele>883</ele>
        <time>2021-08-24T10:15:06Z</time>
      </trkpt>
      <trkpt lat="45.42954" lon="5.8223">
        <ele>882.1</ele>
        <time>2021-08-24T10:15:08Z</time>
      </trkpt>
      <trkpt lat="45.42955" lon="5.82234">
        <ele>881.6</ele>
        <time>2021-08-24T10:15:09Z</time>
      </trkpt>
      <trkpt lat="45.42955" lon="5.8224">
        <ele>880.8</ele>
        <time>2021-08-24T10:15:11Z</time>
      </trkpt>
      <trkpt lat="45.42956" lon="5.82243">
        <ele>880.4</ele>
        <time>2021-08-24T10:15:12Z</time>
      </trkpt>
      <trkpt lat="45.42956" lon="5.82248">
        <ele>879.8</ele>
        <time>2021-08-24T10:15:14Z</time>
      </trkpt>
      <trkpt lat="45.42956" lon="5.82252">
        <ele>879.3</ele>
        <time>2021-08-24T10:15:15Z</time>
      </trkpt>
      <trkpt lat="45.42955" lon="5.82255">
        <ele>878.8</ele>
        <time>2021-08-24T10:15:16Z</time>
      </trkpt>
      <trkpt lat="45.42954" lon="5.82259">
        <ele>878.3</ele>
        <time>2021-08-24T10:15:17Z</time>
      </trkpt>
      <trkpt lat="45.42954" lon="5.82263">
        <ele>877.8</ele>
        <time>2021-08-24T10:15:18Z</time>
      </trkpt>
      <trkpt lat="45.42952" lon="5.82269">
        <ele>876.9</ele>
        <time>2021-08-24T10:15:20Z</time>
      </trkpt>
      <trkpt lat="45.4295" lon="5.82274">
        <ele>876.2</ele>
        <time>2021-08-24T10:15:21Z</time>
      </trkpt>
      <trkpt lat="45.42948" lon="5.82278">
        <ele>875.4</ele>
        <time>2021-08-24T10:15:23Z</time>
      </trkpt>
      <trkpt lat="45.42945" lon="5.8228">
        <ele>874.9</ele>
        <time>2021-08-24T10:15:24Z</time>
      </trkpt>
      <trkpt lat="45.42942" lon="5.82286">
        <ele>874.1</ele>
        <time>2021-08-24T10:15:26Z</time>
      </trkpt>
      <trkpt lat="45.42941" lon="5.8229">
        <ele>873.6</ele>
        <time>2021-08-24T10:15:27Z</time>
      </trkpt>
      <trkpt lat="45.4294" lon="5.82294">
        <ele>873.1</ele>
        <time>2021-08-24T10:15:29Z</time>
      </trkpt>
      <trkpt lat="45.42939" lon="5.82299">
        <ele>872.7</ele>
        <time>2021-08-24T10:15:30Z</time>
      </trkpt>
      <trkpt lat="45.42938" lon="5.82303">
        <ele>872.2</ele>
        <time>2021-08-24T10:15:31Z</time>
      </trkpt>
      <trkpt lat="45.42937" lon="5.82307">
        <ele>871.8</ele>
        <time>2021-08-24T10:15:33Z</time>
      </trkpt>
      <trkpt lat="45.42936" lon="5.82312">
        <ele>871.4</ele>
        <time>2021-08-24T10:15:45Z</time>
      </trkpt>
      <trkpt lat="45.42935" lon="5.82316">
        <ele>871</ele>
        <time>2021-08-24T10:15:46Z</time>
      </trkpt>
      <trkpt lat="45.42933" lon="5.82328">
        <ele>869.8</ele>
        <time>2021-08-24T10:15:47Z</time>
      </trkpt>
      <trkpt lat="45.42932" lon="5.82338">
        <ele>868.8</ele>
        <time>2021-08-24T10:15:49Z</time>
      </trkpt>
      <trkpt lat="45.42931" lon="5.82348">
        <ele>867.9</ele>
        <time>2021-08-24T10:15:50Z</time>
      </trkpt>
      <trkpt lat="45.42931" lon="5.82354">
        <ele>867.4</ele>
        <time>2021-08-24T10:15:51Z</time>
      </trkpt>
      <trkpt lat="45.42931" lon="5.82361">
        <ele>866.7</ele>
        <time>2021-08-24T10:15:53Z</time>
      </trkpt>
      <trkpt lat="45.42932" lon="5.82365">
        <ele>866.3</ele>
        <time>2021-08-24T10:15:54Z</time>
      </trkpt>
      <trkpt lat="45.42932" lon="5.82367">
        <ele>866.2</ele>
        <time>2021-08-24T10:15:55Z</time>
      </trkpt>
      <trkpt lat="45.42933" lon="5.82367">
        <ele>866</ele>
        <time>2021-08-24T10:15:56Z</time>
      </trkpt>
      <trkpt lat="45.42934" lon="5.82365">
        <ele>865.8</ele>
        <time>2021-08-24T10:15:58Z</time>
      </trkpt>
      <trkpt lat="45.42934" lon="5.82366">
        <ele>865.8</ele>
        <time>2021-08-24T10:15:59Z</time>
      </trkpt>
      <trkpt lat="45.42934" lon="5.82366">
        <ele>865.8</ele>
        <time>2021-08-24T10:16:01Z</time>
      </trkpt>
      <trkpt lat="45.42934" lon="5.82365">
        <ele>865.8</ele>
        <time>2021-08-24T10:16:03Z</time>
      </trkpt>
      <trkpt lat="45.42934" lon="5.82365">
        <ele>865.7</ele>
        <time>2021-08-24T10:16:04Z</time>
      </trkpt>
      <trkpt lat="45.42934" lon="5.82365">
        <ele>865.7</ele>
        <time>2021-08-24T10:16:05Z</time>
      </trkpt>
      <trkpt lat="45.42938" lon="5.82345">
        <ele>864</ele>
        <time>2021-08-24T10:17:21Z</time>
      </trkpt>
      <trkpt lat="45.42942" lon="5.82342">
        <ele>866.1</ele>
        <time>2021-08-24T10:17:22Z</time>
      </trkpt>
      <trkpt lat="45.42947" lon="5.8234">
        <ele>870</ele>
        <time>2021-08-24T10:17:23Z</time>
      </trkpt>
      <trkpt lat="45.42954" lon="5.82335">
        <ele>875</ele>
        <time>2021-08-24T10:17:25Z</time>
      </trkpt>
      <trkpt lat="45.42958" lon="5.82333">
        <ele>876.5</ele>
        <time>2021-08-24T10:17:26Z</time>
      </trkpt>
      <trkpt lat="45.42967" lon="5.82331">
        <ele>881.7</ele>
        <time>2021-08-24T10:17:28Z</time>
      </trkpt>
      <trkpt lat="45.4297" lon="5.8233">
        <ele>883.4</ele>
        <time>2021-08-24T10:17:29Z</time>
      </trkpt>
      <trkpt lat="45.42973" lon="5.82329">
        <ele>885</ele>
        <time>2021-08-24T10:17:31Z</time>
      </trkpt>
      <trkpt lat="45.42974" lon="5.8233">
        <ele>885</ele>
        <time>2021-08-24T10:17:32Z</time>
      </trkpt>
      <trkpt lat="45.42971" lon="5.82332">
        <ele>882.9</ele>
        <time>2021-08-24T10:17:34Z</time>
      </trkpt>
      <trkpt lat="45.4297" lon="5.82333">
        <ele>882.9</ele>
        <time>2021-08-24T10:17:36Z</time>
      </trkpt>
      <trkpt lat="45.4297" lon="5.82333">
        <ele>882.8</ele>
        <time>2021-08-24T10:17:38Z</time>
      </trkpt>
      <trkpt lat="45.42969" lon="5.82333">
        <ele>882.8</ele>
        <time>2021-08-24T10:17:39Z</time>
      </trkpt>
      <trkpt lat="45.42969" lon="5.82333">
        <ele>881.2</ele>
        <time>2021-08-24T10:17:41Z</time>
      </trkpt>
      <trkpt lat="45.42956" lon="5.82322">
        <ele>876</ele>
        <time>2021-08-24T10:22:29Z</time>
      </trkpt>
      <trkpt lat="45.42958" lon="5.82321">
        <ele>877.6</ele>
        <time>2021-08-24T10:22:30Z</time>
      </trkpt>
      <trkpt lat="45.42958" lon="5.82322">
        <ele>877.6</ele>
        <time>2021-08-24T10:22:32Z</time>
      </trkpt>
      <trkpt lat="45.42959" lon="5.82321">
        <ele>877.6</ele>
        <time>2021-08-24T10:22:34Z</time>
      </trkpt>
      <trkpt lat="45.4296" lon="5.8232">
        <ele>877.5</ele>
        <time>2021-08-24T10:22:36Z</time>
      </trkpt>
      <trkpt lat="45.4296" lon="5.82319">
        <ele>879.2</ele>
        <time>2021-08-24T10:22:38Z</time>
      </trkpt>
      <trkpt lat="45.42961" lon="5.82318">
        <ele>879.5</ele>
        <time>2021-08-24T10:22:40Z</time>
      </trkpt>
      <trkpt lat="45.42961" lon="5.82318">
        <ele>879.5</ele>
        <time>2021-08-24T10:22:42Z</time>
      </trkpt>
      <trkpt lat="45.42961" lon="5.82318">
        <ele>879.5</ele>
        <time>2021-08-24T10:22:44Z</time>
      </trkpt>
      <trkpt lat="45.42961" lon="5.82318">
        <ele>879.5</ele>
        <time>2021-08-24T10:22:46Z</time>
      </trkpt>
      <trkpt lat="45.42961" lon="5.82318">
        <ele>879.5</ele>
        <time>2021-08-24T10:22:48Z</time>
      </trkpt>
      <trkpt lat="45.42961" lon="5.82318">
        <ele>879.5</ele>
        <time>2021-08-24T10:22:49Z</time>
      </trkpt>
      <trkpt lat="45.42961" lon="5.82318">
        <ele>879.5</ele>
        <time>2021-08-24T10:22:50Z</time>
      </trkpt>
      <trkpt lat="45.42961" lon="5.82318">
        <ele>879.5</ele>
        <time>2021-08-24T10:22:51Z</time>
      </trkpt>
      <trkpt lat="45.42961" lon="5.82318">
        <ele>879.5</ele>
        <time>2021-08-24T10:22:52Z</time>
      </trkpt>
      <trkpt lat="45.42961" lon="5.82318">
        <ele>879.5</ele>
        <time>2021-08-24T10:22:54Z</time>
      </trkpt>
      <trkpt lat="45.42961" lon="5.82318">
        <ele>879.5</ele>
        <time>2021-08-24T10:22:56Z</time>
      </trkpt>
      <trkpt lat="45.42961" lon="5.82318">
        <ele>879.4</ele>
        <time>2021-08-24T10:22:57Z</time>
      </trkpt>
      <trkpt lat="45.42961" lon="5.82318">
        <ele>879.4</ele>
        <time>2021-08-24T10:22:59Z</time>
      </trkpt>
      <trkpt lat="45.42961" lon="5.82318">
        <ele>879.4</ele>
        <time>2021-08-24T10:23:00Z</time>
      </trkpt>
      <trkpt lat="45.42961" lon="5.82318">
        <ele>879.4</ele>
        <time>2021-08-24T10:23:01Z</time>
      </trkpt>
      <trkpt lat="45.42961" lon="5.82318">
        <ele>879.4</ele>
        <time>2021-08-24T10:23:02Z</time>
      </trkpt>
      <trkpt lat="45.42961" lon="5.82318">
        <ele>879.4</ele>
        <time>2021-08-24T10:23:03Z</time>
      </trkpt>
      <trkpt lat="45.42961" lon="5.82318">
        <ele>879.4</ele>
        <time>2021-08-24T10:23:05Z</time>
      </trkpt>
      <trkpt lat="45.42961" lon="5.82318">
        <ele>879.4</ele>
        <time>2021-08-24T10:23:07Z</time>
      </trkpt>
      <trkpt lat="45.42961" lon="5.82318">
        <ele>879.4</ele>
        <time>2021-08-24T10:23:09Z</time>
      </trkpt>
      <trkpt lat="45.42961" lon="5.82318">
        <ele>879.4</ele>
        <time>2021-08-24T10:23:10Z</time>
      </trkpt>
      <trkpt lat="45.42961" lon="5.82318">
        <ele>879.4</ele>
        <time>2021-08-24T10:23:11Z</time>
      </trkpt>
      <trkpt lat="45.42961" lon="5.82318">
        <ele>879.4</ele>
        <time>2021-08-24T10:23:13Z</time>
      </trkpt>
      <trkpt lat="45.42961" lon="5.82318">
        <ele>879.4</ele>
        <time>2021-08-24T10:23:14Z</time>
      </trkpt>
      <trkpt lat="45.42961" lon="5.82318">
        <ele>879.4</ele>
        <time>2021-08-24T10:23:15Z</time>
      </trkpt>
      <trkpt lat="45.42961" lon="5.82318">
        <ele>879.4</ele>
        <time>2021-08-24T10:23:17Z</time>
      </trkpt>
      <trkpt lat="45.42961" lon="5.82318">
        <ele>879.4</ele>
        <time>2021-08-24T10:23:19Z</time>
      </trkpt>
      <trkpt lat="45.42961" lon="5.82318">
        <ele>879.4</ele>
        <time>2021-08-24T10:23:20Z</time>
      </trkpt>
      <trkpt lat="45.42961" lon="5.82318">
        <ele>879.4</ele>
        <time>2021-08-24T10:23:22Z</time>
      </trkpt>
      <trkpt lat="45.42961" lon="5.82318">
        <ele>879.4</ele>
        <time>2021-08-24T10:23:23Z</time>
      </trkpt>
      <trkpt lat="45.42961" lon="5.82318">
        <ele>879.3</ele>
        <time>2021-08-24T10:23:25Z</time>
      </trkpt>
      <trkpt lat="45.42961" lon="5.82318">
        <ele>879.3</ele>
        <time>2021-08-24T10:23:26Z</time>
      </trkpt>
      <trkpt lat="45.42961" lon="5.82318">
        <ele>879.3</ele>
        <time>2021-08-24T10:23:28Z</time>
      </trkpt>
      <trkpt lat="45.42961" lon="5.82318">
        <ele>879.3</ele>
        <time>2021-08-24T10:23:29Z</time>
      </trkpt>
      <trkpt lat="45.42961" lon="5.82318">
        <ele>879.3</ele>
        <time>2021-08-24T10:23:31Z</time>
      </trkpt>
      <trkpt lat="45.42961" lon="5.82318">
        <ele>879.3</ele>
        <time>2021-08-24T10:23:33Z</time>
      </trkpt>
      <trkpt lat="45.42961" lon="5.82318">
        <ele>879.3</ele>
        <time>2021-08-24T10:23:35Z</time>
      </trkpt>
      <trkpt lat="45.42961" lon="5.82318">
        <ele>879.3</ele>
        <time>2021-08-24T10:23:37Z</time>
      </trkpt>
      <trkpt lat="45.42961" lon="5.82318">
        <ele>879.3</ele>
        <time>2021-08-24T10:23:38Z</time>
      </trkpt>
      <trkpt lat="45.42961" lon="5.82318">
        <ele>879.3</ele>
        <time>2021-08-24T10:23:40Z</time>
      </trkpt>
      <trkpt lat="45.42961" lon="5.82318">
        <ele>879.3</ele>
        <time>2021-08-24T10:23:41Z</time>
      </trkpt>
      <trkpt lat="45.42961" lon="5.82318">
        <ele>879.3</ele>
        <time>2021-08-24T10:23:43Z</time>
      </trkpt>
      <trkpt lat="45.42961" lon="5.82318">
        <ele>879.3</ele>
        <time>2021-08-24T10:23:44Z</time>
      </trkpt>
      <trkpt lat="45.42961" lon="5.82318">
        <ele>879.3</ele>
        <time>2021-08-24T10:23:45Z</time>
      </trkpt>
      <trkpt lat="45.42961" lon="5.82318">
        <ele>879.3</ele>
        <time>2021-08-24T10:23:46Z</time>
      </trkpt>
      <trkpt lat="45.42961" lon="5.82318">
        <ele>879.3</ele>
        <time>2021-08-24T10:23:47Z</time>
      </trkpt>
      <trkpt lat="45.42961" lon="5.82318">
        <ele>879.3</ele>
        <time>2021-08-24T10:23:49Z</time>
      </trkpt>
      <trkpt lat="45.42961" lon="5.82318">
        <ele>879.3</ele>
        <time>2021-08-24T10:23:50Z</time>
      </trkpt>
      <trkpt lat="45.42961" lon="5.82318">
        <ele>879.3</ele>
        <time>2021-08-24T10:23:52Z</time>
      </trkpt>
      <trkpt lat="45.42961" lon="5.82318">
        <ele>879.2</ele>
        <time>2021-08-24T10:23:53Z</time>
      </trkpt>
      <trkpt lat="45.42961" lon="5.82318">
        <ele>879.2</ele>
        <time>2021-08-24T10:23:55Z</time>
      </trkpt>
      <trkpt lat="45.42961" lon="5.82318">
        <ele>879.2</ele>
        <time>2021-08-24T10:23:56Z</time>
      </trkpt>
      <trkpt lat="45.42961" lon="5.82318">
        <ele>879.2</ele>
        <time>2021-08-24T10:23:58Z</time>
      </trkpt>
      <trkpt lat="45.42961" lon="5.82318">
        <ele>879.2</ele>
        <time>2021-08-24T10:23:59Z</time>
      </trkpt>
      <trkpt lat="45.42961" lon="5.82318">
        <ele>879.2</ele>
        <time>2021-08-24T10:24:00Z</time>
      </trkpt>
      <trkpt lat="45.42961" lon="5.82318">
        <ele>879.2</ele>
        <time>2021-08-24T10:24:02Z</time>
      </trkpt>
      <trkpt lat="45.42961" lon="5.82318">
        <ele>879.2</ele>
        <time>2021-08-24T10:24:04Z</time>
      </trkpt>
      <trkpt lat="45.42961" lon="5.82318">
        <ele>879.2</ele>
        <time>2021-08-24T10:24:05Z</time>
      </trkpt>
      <trkpt lat="45.42961" lon="5.82318">
        <ele>879.2</ele>
        <time>2021-08-24T10:24:07Z</time>
      </trkpt>
      <trkpt lat="45.42961" lon="5.82318">
        <ele>879.2</ele>
        <time>2021-08-24T10:24:08Z</time>
      </trkpt>
      <trkpt lat="45.42961" lon="5.82318">
        <ele>879.2</ele>
        <time>2021-08-24T10:24:09Z</time>
      </trkpt>
      <trkpt lat="45.42961" lon="5.82318">
        <ele>879.2</ele>
        <time>2021-08-24T10:24:11Z</time>
      </trkpt>
      <trkpt lat="45.42961" lon="5.82318">
        <ele>879.2</ele>
        <time>2021-08-24T10:24:13Z</time>
      </trkpt>
      <trkpt lat="45.42961" lon="5.82318">
        <ele>879.2</ele>
        <time>2021-08-24T10:24:14Z</time>
      </trkpt>
      <trkpt lat="45.42961" lon="5.82318">
        <ele>879.2</ele>
        <time>2021-08-24T10:24:16Z</time>
      </trkpt>
      <trkpt lat="45.42961" lon="5.82318">
        <ele>879.2</ele>
        <time>2021-08-24T10:24:17Z</time>
      </trkpt>
      <trkpt lat="45.42961" lon="5.82318">
        <ele>879.2</ele>
        <time>2021-08-24T10:24:18Z</time>
      </trkpt>
      <trkpt lat="45.42961" lon="5.82318">
        <ele>879.2</ele>
        <time>2021-08-24T10:24:20Z</time>
      </trkpt>
      <trkpt lat="45.42961" lon="5.82318">
        <ele>879.1</ele>
        <time>2021-08-24T10:24:21Z</time>
      </trkpt>
      <trkpt lat="45.42961" lon="5.82318">
        <ele>879.1</ele>
        <time>2021-08-24T10:24:23Z</time>
      </trkpt>
      <trkpt lat="45.42961" lon="5.82318">
        <ele>879.1</ele>
        <time>2021-08-24T10:24:25Z</time>
      </trkpt>
      <trkpt lat="45.42961" lon="5.82318">
        <ele>879.1</ele>
        <time>2021-08-24T10:24:26Z</time>
      </trkpt>
      <trkpt lat="45.42961" lon="5.82318">
        <ele>879.1</ele>
        <time>2021-08-24T10:24:28Z</time>
      </trkpt>
      <trkpt lat="45.42961" lon="5.82318">
        <ele>879.1</ele>
        <time>2021-08-24T10:24:30Z</time>
      </trkpt>
      <trkpt lat="45.42961" lon="5.82318">
        <ele>879.1</ele>
        <time>2021-08-24T10:24:32Z</time>
      </trkpt>
      <trkpt lat="45.42961" lon="5.82318">
        <ele>879.1</ele>
        <time>2021-08-24T10:24:33Z</time>
      </trkpt>
      <trkpt lat="45.42961" lon="5.82318">
        <ele>879.1</ele>
        <time>2021-08-24T10:24:34Z</time>
      </trkpt>
      <trkpt lat="45.42961" lon="5.82318">
        <ele>879.1</ele>
        <time>2021-08-24T10:24:36Z</time>
      </trkpt>
      <trkpt lat="45.42961" lon="5.82318">
        <ele>879.1</ele>
        <time>2021-08-24T10:24:37Z</time>
      </trkpt>
      <trkpt lat="45.42961" lon="5.82318">
        <ele>879.1</ele>
        <time>2021-08-24T10:24:39Z</time>
      </trkpt>
      <trkpt lat="45.42961" lon="5.82318">
        <ele>879.1</ele>
        <time>2021-08-24T10:24:40Z</time>
      </trkpt>
      <trkpt lat="45.42961" lon="5.82318">
        <ele>879.1</ele>
        <time>2021-08-24T10:24:41Z</time>
      </trkpt>
      <trkpt lat="45.42961" lon="5.82318">
        <ele>879.1</ele>
        <time>2021-08-24T10:24:43Z</time>
      </trkpt>
      <trkpt lat="45.42961" lon="5.82318">
        <ele>879.1</ele>
        <time>2021-08-24T10:24:45Z</time>
      </trkpt>
      <trkpt lat="45.42961" lon="5.82318">
        <ele>879.1</ele>
        <time>2021-08-24T10:24:46Z</time>
      </trkpt>
      <trkpt lat="45.42961" lon="5.82318">
        <ele>879.1</ele>
        <time>2021-08-24T10:24:47Z</time>
      </trkpt>
      <trkpt lat="45.42961" lon="5.82318">
        <ele>879.1</ele>
        <time>2021-08-24T10:24:49Z</time>
      </trkpt>
      <trkpt lat="45.42961" lon="5.82318">
        <ele>879</ele>
        <time>2021-08-24T10:24:51Z</time>
      </trkpt>
      <trkpt lat="45.42961" lon="5.82318">
        <ele>879</ele>
        <time>2021-08-24T10:24:52Z</time>
      </trkpt>
      <trkpt lat="45.42961" lon="5.82318">
        <ele>879</ele>
        <time>2021-08-24T10:24:53Z</time>
      </trkpt>
      <trkpt lat="45.42961" lon="5.82318">
        <ele>879</ele>
        <time>2021-08-24T10:24:55Z</time>
      </trkpt>
      <trkpt lat="45.42961" lon="5.82318">
        <ele>879</ele>
        <time>2021-08-24T10:24:57Z</time>
      </trkpt>
      <trkpt lat="45.42961" lon="5.82318">
        <ele>879</ele>
        <time>2021-08-24T10:24:59Z</time>
      </trkpt>
      <trkpt lat="45.42961" lon="5.82318">
        <ele>879</ele>
        <time>2021-08-24T10:25:01Z</time>
      </trkpt>
      <trkpt lat="45.42961" lon="5.82318">
        <ele>879</ele>
        <time>2021-08-24T10:25:02Z</time>
      </trkpt>
      <trkpt lat="45.42961" lon="5.82318">
        <ele>879</ele>
        <time>2021-08-24T10:25:03Z</time>
      </trkpt>
      <trkpt lat="45.42961" lon="5.82318">
        <ele>879</ele>
        <time>2021-08-24T10:25:05Z</time>
      </trkpt>
      <trkpt lat="45.42961" lon="5.82318">
        <ele>879</ele>
        <time>2021-08-24T10:25:06Z</time>
      </trkpt>
      <trkpt lat="45.42961" lon="5.82318">
        <ele>879</ele>
        <time>2021-08-24T10:25:08Z</time>
      </trkpt>
      <trkpt lat="45.42963" lon="5.82326">
        <ele>878.3</ele>
        <time>2021-08-24T10:25:10Z</time>
      </trkpt>
      <trkpt lat="45.42963" lon="5.8233">
        <ele>877.9</ele>
        <time>2021-08-24T10:25:11Z</time>
      </trkpt>
      <trkpt lat="45.42963" lon="5.82331">
        <ele>877.4</ele>
        <time>2021-08-24T10:25:13Z</time>
      </trkpt>
      <trkpt lat="45.42963" lon="5.82332">
        <ele>877.4</ele>
        <time>2021-08-24T10:25:14Z</time>
      </trkpt>
      <trkpt lat="45.42963" lon="5.82332">
        <ele>877.4</ele>
        <time>2021-08-24T10:25:16Z</time>
      </trkpt>
      <trkpt lat="45.42963" lon="5.82332">
        <ele>877.4</ele>
        <time>2021-08-24T10:25:18Z</time>
      </trkpt>
      <trkpt lat="45.42963" lon="5.82332">
        <ele>877.4</ele>
        <time>2021-08-24T10:25:20Z</time>
      </trkpt>
      <trkpt lat="45.42963" lon="5.82332">
        <ele>877.4</ele>
        <time>2021-08-24T10:25:22Z</time>
      </trkpt>
      <trkpt lat="45.42963" lon="5.82332">
        <ele>877.4</ele>
        <time>2021-08-24T10:25:23Z</time>
      </trkpt>
      <trkpt lat="45.42963" lon="5.82332">
        <ele>877.4</ele>
        <time>2021-08-24T10:25:25Z</time>
      </trkpt>
      <trkpt lat="45.42963" lon="5.82332">
        <ele>877.4</ele>
        <time>2021-08-24T10:25:26Z</time>
      </trkpt>
      <trkpt lat="45.42963" lon="5.82332">
        <ele>877.4</ele>
        <time>2021-08-24T10:25:28Z</time>
      </trkpt>
      <trkpt lat="45.42963" lon="5.82332">
        <ele>877.4</ele>
        <time>2021-08-24T10:25:29Z</time>
      </trkpt>
      <trkpt lat="45.42963" lon="5.82332">
        <ele>877.4</ele>
        <time>2021-08-24T10:25:31Z</time>
      </trkpt>
      <trkpt lat="45.42963" lon="5.82332">
        <ele>877.4</ele>
        <time>2021-08-24T10:25:32Z</time>
      </trkpt>
      <trkpt lat="45.42963" lon="5.82332">
        <ele>877.4</ele>
        <time>2021-08-24T10:25:34Z</time>
      </trkpt>
      <trkpt lat="45.42963" lon="5.82332">
        <ele>877.4</ele>
        <time>2021-08-24T10:25:35Z</time>
      </trkpt>
      <trkpt lat="45.42963" lon="5.82332">
        <ele>877.4</ele>
        <time>2021-08-24T10:25:37Z</time>
      </trkpt>
      <trkpt lat="45.42963" lon="5.82332">
        <ele>877.4</ele>
        <time>2021-08-24T10:25:38Z</time>
      </trkpt>
      <trkpt lat="45.42963" lon="5.82332">
        <ele>877.4</ele>
        <time>2021-08-24T10:25:40Z</time>
      </trkpt>
      <trkpt lat="45.42963" lon="5.82332">
        <ele>877.3</ele>
        <time>2021-08-24T10:25:41Z</time>
      </trkpt>
      <trkpt lat="45.42963" lon="5.82332">
        <ele>877.3</ele>
        <time>2021-08-24T10:25:43Z</time>
      </trkpt>
      <trkpt lat="45.42963" lon="5.82332">
        <ele>877.3</ele>
        <time>2021-08-24T10:25:44Z</time>
      </trkpt>
      <trkpt lat="45.42963" lon="5.82332">
        <ele>877.3</ele>
        <time>2021-08-24T10:25:46Z</time>
      </trkpt>
      <trkpt lat="45.42963" lon="5.82332">
        <ele>877.3</ele>
        <time>2021-08-24T10:25:47Z</time>
      </trkpt>
      <trkpt lat="45.42963" lon="5.82332">
        <ele>877.3</ele>
        <time>2021-08-24T10:25:49Z</time>
      </trkpt>
      <trkpt lat="45.42963" lon="5.82332">
        <ele>877.3</ele>
        <time>2021-08-24T10:25:50Z</time>
      </trkpt>
      <trkpt lat="45.42963" lon="5.82332">
        <ele>877.3</ele>
        <time>2021-08-24T10:25:52Z</time>
      </trkpt>
      <trkpt lat="45.42963" lon="5.82332">
        <ele>877.3</ele>
        <time>2021-08-24T10:25:53Z</time>
      </trkpt>
      <trkpt lat="45.42963" lon="5.82332">
        <ele>877.3</ele>
        <time>2021-08-24T10:25:55Z</time>
      </trkpt>
      <trkpt lat="45.42963" lon="5.82332">
        <ele>877.3</ele>
        <time>2021-08-24T10:25:56Z</time>
      </trkpt>
      <trkpt lat="45.42963" lon="5.82332">
        <ele>877.3</ele>
        <time>2021-08-24T10:25:58Z</time>
      </trkpt>
      <trkpt lat="45.42963" lon="5.82332">
        <ele>877.3</ele>
        <time>2021-08-24T10:25:59Z</time>
      </trkpt>
      <trkpt lat="45.42963" lon="5.82332">
        <ele>877.3</ele>
        <time>2021-08-24T10:26:00Z</time>
      </trkpt>
      <trkpt lat="45.42963" lon="5.82332">
        <ele>877.3</ele>
        <time>2021-08-24T10:26:02Z</time>
      </trkpt>
      <trkpt lat="45.42963" lon="5.82332">
        <ele>877.3</ele>
        <time>2021-08-24T10:26:03Z</time>
      </trkpt>
      <trkpt lat="45.42963" lon="5.82332">
        <ele>877.3</ele>
        <time>2021-08-24T10:26:05Z</time>
      </trkpt>
      <trkpt lat="45.42963" lon="5.82332">
        <ele>877.3</ele>
        <time>2021-08-24T10:26:06Z</time>
      </trkpt>
      <trkpt lat="45.42963" lon="5.82332">
        <ele>877.3</ele>
        <time>2021-08-24T10:26:08Z</time>
      </trkpt>
      <trkpt lat="45.42963" lon="5.82332">
        <ele>877.2</ele>
        <time>2021-08-24T10:26:09Z</time>
      </trkpt>
      <trkpt lat="45.42963" lon="5.82332">
        <ele>877.2</ele>
        <time>2021-08-24T10:26:11Z</time>
      </trkpt>
      <trkpt lat="45.42963" lon="5.82332">
        <ele>877.2</ele>
        <time>2021-08-24T10:26:12Z</time>
      </trkpt>
      <trkpt lat="45.42963" lon="5.82332">
        <ele>877.2</ele>
        <time>2021-08-24T10:26:14Z</time>
      </trkpt>
      <trkpt lat="45.42963" lon="5.82332">
        <ele>877.2</ele>
        <time>2021-08-24T10:26:16Z</time>
      </trkpt>
      <trkpt lat="45.42963" lon="5.82332">
        <ele>877.2</ele>
        <time>2021-08-24T10:26:18Z</time>
      </trkpt>
      <trkpt lat="45.42963" lon="5.82332">
        <ele>877.2</ele>
        <time>2021-08-24T10:26:19Z</time>
      </trkpt>
      <trkpt lat="45.42963" lon="5.82332">
        <ele>877.2</ele>
        <time>2021-08-24T10:26:21Z</time>
      </trkpt>
      <trkpt lat="45.42963" lon="5.82332">
        <ele>877.2</ele>
        <time>2021-08-24T10:26:23Z</time>
      </trkpt>
      <trkpt lat="45.42963" lon="5.82332">
        <ele>877.2</ele>
        <time>2021-08-24T10:26:24Z</time>
      </trkpt>
      <trkpt lat="45.42963" lon="5.82332">
        <ele>877.2</ele>
        <time>2021-08-24T10:26:25Z</time>
      </trkpt>
      <trkpt lat="45.42963" lon="5.82332">
        <ele>877.2</ele>
        <time>2021-08-24T10:26:27Z</time>
      </trkpt>
      <trkpt lat="45.42963" lon="5.82332">
        <ele>877.2</ele>
        <time>2021-08-24T10:26:29Z</time>
      </trkpt>
      <trkpt lat="45.42963" lon="5.82332">
        <ele>877.2</ele>
        <time>2021-08-24T10:26:30Z</time>
      </trkpt>
      <trkpt lat="45.42963" lon="5.82332">
        <ele>877.2</ele>
        <time>2021-08-24T10:26:31Z</time>
      </trkpt>
      <trkpt lat="45.42963" lon="5.82332">
        <ele>877.2</ele>
        <time>2021-08-24T10:26:32Z</time>
      </trkpt>
      <trkpt lat="45.42963" lon="5.82332">
        <ele>877.2</ele>
        <time>2021-08-24T10:26:33Z</time>
      </trkpt>
      <trkpt lat="45.42963" lon="5.82332">
        <ele>877.2</ele>
        <time>2021-08-24T10:26:35Z</time>
      </trkpt>
      <trkpt lat="45.42963" lon="5.82332">
        <ele>877.2</ele>
        <time>2021-08-24T10:26:36Z</time>
      </trkpt>
      <trkpt lat="45.42963" lon="5.82332">
        <ele>877.1</ele>
        <time>2021-08-24T10:26:37Z</time>
      </trkpt>
      <trkpt lat="45.42963" lon="5.82332">
        <ele>877.1</ele>
        <time>2021-08-24T10:26:39Z</time>
      </trkpt>
      <trkpt lat="45.42963" lon="5.82332">
        <ele>877.1</ele>
        <time>2021-08-24T10:26:41Z</time>
      </trkpt>
      <trkpt lat="45.42963" lon="5.82332">
        <ele>877.1</ele>
        <time>2021-08-24T10:26:43Z</time>
      </trkpt>
      <trkpt lat="45.42963" lon="5.82332">
        <ele>877.1</ele>
        <time>2021-08-24T10:26:44Z</time>
      </trkpt>
      <trkpt lat="45.42963" lon="5.82332">
        <ele>877.1</ele>
        <time>2021-08-24T10:26:45Z</time>
      </trkpt>
      <trkpt lat="45.42963" lon="5.82332">
        <ele>877.1</ele>
        <time>2021-08-24T10:26:46Z</time>
      </trkpt>
      <trkpt lat="45.42956" lon="5.82337">
        <ele>873.7</ele>
        <time>2021-08-24T10:26:48Z</time>
      </trkpt>
      <trkpt lat="45.42954" lon="5.82339">
        <ele>872.2</ele>
        <time>2021-08-24T10:26:49Z</time>
      </trkpt>
      <trkpt lat="45.42953" lon="5.8234">
        <ele>872.2</ele>
        <time>2021-08-24T10:26:50Z</time>
      </trkpt>
      <trkpt lat="45.42952" lon="5.8234">
        <ele>871.8</ele>
        <time>2021-08-24T10:26:52Z</time>
      </trkpt>
      <trkpt lat="45.42952" lon="5.82341">
        <ele>871.8</ele>
        <time>2021-08-24T10:26:54Z</time>
      </trkpt>
      <trkpt lat="45.42952" lon="5.82341">
        <ele>871.8</ele>
        <time>2021-08-24T10:26:55Z</time>
      </trkpt>
      <trkpt lat="45.42952" lon="5.82341">
        <ele>871.8</ele>
        <time>2021-08-24T10:26:57Z</time>
      </trkpt>
      <trkpt lat="45.42952" lon="5.82341">
        <ele>871.7</ele>
        <time>2021-08-24T10:26:58Z</time>
      </trkpt>
      <trkpt lat="45.42952" lon="5.82341">
        <ele>871.7</ele>
        <time>2021-08-24T10:26:59Z</time>
      </trkpt>
      <trkpt lat="45.42952" lon="5.82341">
        <ele>871.7</ele>
        <time>2021-08-24T10:27:01Z</time>
      </trkpt>
      <trkpt lat="45.42952" lon="5.82341">
        <ele>871.7</ele>
        <time>2021-08-24T10:27:02Z</time>
      </trkpt>
      <trkpt lat="45.42952" lon="5.82341">
        <ele>871.7</ele>
        <time>2021-08-24T10:27:03Z</time>
      </trkpt>
      <trkpt lat="45.42952" lon="5.82341">
        <ele>871.7</ele>
        <time>2021-08-24T10:27:05Z</time>
      </trkpt>
      <trkpt lat="45.42952" lon="5.82341">
        <ele>871.7</ele>
        <time>2021-08-24T10:27:07Z</time>
      </trkpt>
      <trkpt lat="45.42952" lon="5.82341">
        <ele>871.7</ele>
        <time>2021-08-24T10:27:08Z</time>
      </trkpt>
      <trkpt lat="45.42952" lon="5.82341">
        <ele>871.7</ele>
        <time>2021-08-24T10:27:10Z</time>
      </trkpt>
      <trkpt lat="45.42952" lon="5.82341">
        <ele>871.7</ele>
        <time>2021-08-24T10:27:11Z</time>
      </trkpt>
      <trkpt lat="45.42952" lon="5.82341">
        <ele>871.7</ele>
        <time>2021-08-24T10:27:13Z</time>
      </trkpt>
      <trkpt lat="45.42952" lon="5.82341">
        <ele>871.7</ele>
        <time>2021-08-24T10:27:14Z</time>
      </trkpt>
      <trkpt lat="45.42952" lon="5.82341">
        <ele>871.7</ele>
        <time>2021-08-24T10:27:15Z</time>
      </trkpt>
      <trkpt lat="45.42952" lon="5.82341">
        <ele>871.7</ele>
        <time>2021-08-24T10:27:17Z</time>
      </trkpt>
      <trkpt lat="45.42952" lon="5.82341">
        <ele>871.7</ele>
        <time>2021-08-24T10:27:18Z</time>
      </trkpt>
      <trkpt lat="45.42952" lon="5.82341">
        <ele>871.7</ele>
        <time>2021-08-24T10:27:19Z</time>
      </trkpt>
      <trkpt lat="45.42952" lon="5.82341">
        <ele>871.7</ele>
        <time>2021-08-24T10:27:21Z</time>
      </trkpt>
      <trkpt lat="45.42952" lon="5.82341">
        <ele>871.7</ele>
        <time>2021-08-24T10:27:22Z</time>
      </trkpt>
      <trkpt lat="45.42952" lon="5.82341">
        <ele>871.7</ele>
        <time>2021-08-24T10:27:23Z</time>
      </trkpt>
      <trkpt lat="45.42952" lon="5.82341">
        <ele>871.6</ele>
        <time>2021-08-24T10:27:25Z</time>
      </trkpt>
      <trkpt lat="45.42952" lon="5.82341">
        <ele>871.6</ele>
        <time>2021-08-24T10:27:26Z</time>
      </trkpt>
      <trkpt lat="45.42952" lon="5.82341">
        <ele>871.6</ele>
        <time>2021-08-24T10:27:28Z</time>
      </trkpt>
      <trkpt lat="45.42952" lon="5.82341">
        <ele>871.6</ele>
        <time>2021-08-24T10:27:30Z</time>
      </trkpt>
      <trkpt lat="45.42952" lon="5.82341">
        <ele>871.6</ele>
        <time>2021-08-24T10:27:32Z</time>
      </trkpt>
      <trkpt lat="45.42952" lon="5.82341">
        <ele>871.6</ele>
        <time>2021-08-24T10:27:33Z</time>
      </trkpt>
      <trkpt lat="45.42952" lon="5.82341">
        <ele>871.6</ele>
        <time>2021-08-24T10:27:35Z</time>
      </trkpt>
      <trkpt lat="45.42952" lon="5.82341">
        <ele>871.6</ele>
        <time>2021-08-24T10:27:37Z</time>
      </trkpt>
      <trkpt lat="45.42952" lon="5.82341">
        <ele>871.6</ele>
        <time>2021-08-24T10:27:38Z</time>
      </trkpt>
      <trkpt lat="45.42945" lon="5.82342">
        <ele>866.7</ele>
        <time>2021-08-24T10:27:40Z</time>
      </trkpt>
      <trkpt lat="45.42943" lon="5.82343">
        <ele>866.7</ele>
        <time>2021-08-24T10:27:41Z</time>
      </trkpt>
      <trkpt lat="45.42942" lon="5.82343">
        <ele>866.7</ele>
        <time>2021-08-24T10:27:43Z</time>
      </trkpt>
      <trkpt lat="45.42942" lon="5.82343">
        <ele>866.7</ele>
        <time>2021-08-24T10:27:44Z</time>
      </trkpt>
      <trkpt lat="45.42942" lon="5.82344">
        <ele>864.9</ele>
        <time>2021-08-24T10:27:46Z</time>
      </trkpt>
      <trkpt lat="45.42941" lon="5.82344">
        <ele>864.9</ele>
        <time>2021-08-24T10:27:47Z</time>
      </trkpt>
      <trkpt lat="45.42941" lon="5.82344">
        <ele>864.9</ele>
        <time>2021-08-24T10:27:48Z</time>
      </trkpt>
      <trkpt lat="45.42941" lon="5.82344">
        <ele>864.9</ele>
        <time>2021-08-24T10:27:50Z</time>
      </trkpt>
      <trkpt lat="45.4294" lon="5.82344">
        <ele>864.9</ele>
        <time>2021-08-24T10:27:51Z</time>
      </trkpt>
      <trkpt lat="45.4294" lon="5.82344">
        <ele>864.9</ele>
        <time>2021-08-24T10:27:52Z</time>
      </trkpt>
      <trkpt lat="45.42939" lon="5.82344">
        <ele>864.9</ele>
        <time>2021-08-24T10:27:53Z</time>
      </trkpt>
      <trkpt lat="45.42939" lon="5.82344">
        <ele>864.9</ele>
        <time>2021-08-24T10:27:55Z</time>
      </trkpt>
      <trkpt lat="45.42939" lon="5.82344">
        <ele>863.2</ele>
        <time>2021-08-24T10:27:56Z</time>
      </trkpt>
      <trkpt lat="45.42938" lon="5.82344">
        <ele>863.2</ele>
        <time>2021-08-24T10:27:58Z</time>
      </trkpt>
      <trkpt lat="45.42938" lon="5.82344">
        <ele>863.2</ele>
        <time>2021-08-24T10:27:59Z</time>
      </trkpt>
      <trkpt lat="45.42938" lon="5.82344">
        <ele>863.2</ele>
        <time>2021-08-24T10:28:01Z</time>
      </trkpt>
      <trkpt lat="45.42937" lon="5.82344">
        <ele>863.2</ele>
        <time>2021-08-24T10:28:03Z</time>
      </trkpt>
      <trkpt lat="45.42937" lon="5.82344">
        <ele>863.1</ele>
        <time>2021-08-24T10:28:04Z</time>
      </trkpt>
      <trkpt lat="45.42934" lon="5.82344">
        <ele>861.5</ele>
        <time>2021-08-24T10:28:05Z</time>
      </trkpt>
      <trkpt lat="45.42932" lon="5.82344">
        <ele>860.1</ele>
        <time>2021-08-24T10:28:06Z</time>
      </trkpt>
      <trkpt lat="45.42931" lon="5.82345">
        <ele>859.7</ele>
        <time>2021-08-24T10:28:08Z</time>
      </trkpt>
      <trkpt lat="45.4293" lon="5.82345">
        <ele>859.7</ele>
        <time>2021-08-24T10:28:09Z</time>
      </trkpt>
      <trkpt lat="45.4293" lon="5.82345">
        <ele>859.7</ele>
        <time>2021-08-24T10:28:10Z</time>
      </trkpt>
      <trkpt lat="45.4293" lon="5.82345">
        <ele>859.7</ele>
        <time>2021-08-24T10:28:11Z</time>
      </trkpt>
      <trkpt lat="45.4293" lon="5.82346">
        <ele>857.4</ele>
        <time>2021-08-24T10:28:13Z</time>
      </trkpt>
      <trkpt lat="45.4293" lon="5.82346">
        <ele>857.4</ele>
        <time>2021-08-24T10:28:15Z</time>
      </trkpt>
      <trkpt lat="45.4293" lon="5.82346">
        <ele>857.4</ele>
        <time>2021-08-24T10:28:16Z</time>
      </trkpt>
      <trkpt lat="45.4293" lon="5.82346">
        <ele>857.4</ele>
        <time>2021-08-24T10:28:17Z</time>
      </trkpt>
      <trkpt lat="45.4293" lon="5.82346">
        <ele>857.4</ele>
        <time>2021-08-24T10:28:19Z</time>
      </trkpt>
      <trkpt lat="45.4293" lon="5.82346">
        <ele>857.4</ele>
        <time>2021-08-24T10:28:21Z</time>
      </trkpt>
      <trkpt lat="45.4293" lon="5.82346">
        <ele>857.4</ele>
        <time>2021-08-24T10:28:22Z</time>
      </trkpt>
      <trkpt lat="45.4293" lon="5.82346">
        <ele>857.4</ele>
        <time>2021-08-24T10:28:23Z</time>
      </trkpt>
      <trkpt lat="45.42932" lon="5.82351">
        <ele>859.2</ele>
        <time>2021-08-24T10:28:25Z</time>
      </trkpt>
      <trkpt lat="45.42935" lon="5.82356">
        <ele>860.1</ele>
        <time>2021-08-24T10:28:27Z</time>
      </trkpt>
      <trkpt lat="45.42936" lon="5.82358">
        <ele>861.1</ele>
        <time>2021-08-24T10:28:28Z</time>
      </trkpt>
      <trkpt lat="45.42936" lon="5.82358">
        <ele>861.1</ele>
        <time>2021-08-24T10:28:29Z</time>
      </trkpt>
      <trkpt lat="45.42937" lon="5.82359">
        <ele>861.1</ele>
        <time>2021-08-24T10:28:31Z</time>
      </trkpt>
      <trkpt lat="45.42937" lon="5.82359">
        <ele>861.1</ele>
        <time>2021-08-24T10:28:32Z</time>
      </trkpt>
      <trkpt lat="45.42937" lon="5.82359">
        <ele>861.1</ele>
        <time>2021-08-24T10:28:34Z</time>
      </trkpt>
      <trkpt lat="45.42937" lon="5.82359">
        <ele>861.1</ele>
        <time>2021-08-24T10:28:35Z</time>
      </trkpt>
      <trkpt lat="45.42937" lon="5.82359">
        <ele>861.1</ele>
        <time>2021-08-24T10:28:36Z</time>
      </trkpt>
      <trkpt lat="45.42937" lon="5.82359">
        <ele>861.1</ele>
        <time>2021-08-24T10:28:38Z</time>
      </trkpt>
      <trkpt lat="45.42937" lon="5.82359">
        <ele>861.1</ele>
        <time>2021-08-24T10:28:40Z</time>
      </trkpt>
      <trkpt lat="45.42937" lon="5.82359">
        <ele>861.1</ele>
        <time>2021-08-24T10:28:41Z</time>
      </trkpt>
      <trkpt lat="45.42937" lon="5.82359">
        <ele>861.1</ele>
        <time>2021-08-24T10:28:43Z</time>
      </trkpt>
      <trkpt lat="45.42937" lon="5.82359">
        <ele>861.1</ele>
        <time>2021-08-24T10:28:44Z</time>
      </trkpt>
      <trkpt lat="45.42937" lon="5.82359">
        <ele>861.1</ele>
        <time>2021-08-24T10:28:46Z</time>
      </trkpt>
      <trkpt lat="45.42937" lon="5.82359">
        <ele>861.1</ele>
        <time>2021-08-24T10:28:47Z</time>
      </trkpt>
      <trkpt lat="45.42942" lon="5.82353">
        <ele>865</ele>
        <time>2021-08-24T10:28:49Z</time>
      </trkpt>
      <trkpt lat="45.42945" lon="5.8235">
        <ele>867.3</ele>
        <time>2021-08-24T10:28:51Z</time>
      </trkpt>
      <trkpt lat="45.42946" lon="5.82348">
        <ele>867.3</ele>
        <time>2021-08-24T10:28:52Z</time>
      </trkpt>
      <trkpt lat="45.42948" lon="5.82346">
        <ele>867.8</ele>
        <time>2021-08-24T10:28:53Z</time>
      </trkpt>
      <trkpt lat="45.4295" lon="5.82342">
        <ele>869.8</ele>
        <time>2021-08-24T10:28:55Z</time>
      </trkpt>
      <trkpt lat="45.42951" lon="5.82339">
        <ele>870.2</ele>
        <time>2021-08-24T10:28:57Z</time>
      </trkpt>
      <trkpt lat="45.42951" lon="5.82338">
        <ele>871.7</ele>
        <time>2021-08-24T10:28:58Z</time>
      </trkpt>
      <trkpt lat="45.42951" lon="5.82338">
        <ele>871.7</ele>
        <time>2021-08-24T10:28:59Z</time>
      </trkpt>
      <trkpt lat="45.42951" lon="5.82338">
        <ele>871.7</ele>
        <time>2021-08-24T10:29:00Z</time>
      </trkpt>
      <trkpt lat="45.42951" lon="5.82338">
        <ele>871.7</ele>
        <time>2021-08-24T10:29:02Z</time>
      </trkpt>
      <trkpt lat="45.42951" lon="5.82338">
        <ele>871.7</ele>
        <time>2021-08-24T10:29:03Z</time>
      </trkpt>
      <trkpt lat="45.42951" lon="5.82338">
        <ele>871.7</ele>
        <time>2021-08-24T10:29:05Z</time>
      </trkpt>
      <trkpt lat="45.42951" lon="5.82338">
        <ele>871.7</ele>
        <time>2021-08-24T10:29:06Z</time>
      </trkpt>
      <trkpt lat="45.42951" lon="5.82338">
        <ele>871.7</ele>
        <time>2021-08-24T10:29:08Z</time>
      </trkpt>
      <trkpt lat="45.42951" lon="5.82338">
        <ele>871.7</ele>
        <time>2021-08-24T10:29:10Z</time>
      </trkpt>
      <trkpt lat="45.42951" lon="5.82338">
        <ele>871.7</ele>
        <time>2021-08-24T10:29:11Z</time>
      </trkpt>
      <trkpt lat="45.42951" lon="5.82338">
        <ele>871.7</ele>
        <time>2021-08-24T10:29:13Z</time>
      </trkpt>
      <trkpt lat="45.42951" lon="5.82338">
        <ele>871.7</ele>
        <time>2021-08-24T10:29:15Z</time>
      </trkpt>
      <trkpt lat="45.42951" lon="5.82338">
        <ele>871.7</ele>
        <time>2021-08-24T10:29:17Z</time>
      </trkpt>
      <trkpt lat="45.42951" lon="5.82338">
        <ele>871.7</ele>
        <time>2021-08-24T10:29:18Z</time>
      </trkpt>
      <trkpt lat="45.42951" lon="5.82338">
        <ele>871.7</ele>
        <time>2021-08-24T10:29:20Z</time>
      </trkpt>
      <trkpt lat="45.42951" lon="5.82338">
        <ele>871.7</ele>
        <time>2021-08-24T10:29:21Z</time>
      </trkpt>
      <trkpt lat="45.42951" lon="5.82338">
        <ele>871.6</ele>
        <time>2021-08-24T10:29:23Z</time>
      </trkpt>
      <trkpt lat="45.42951" lon="5.82338">
        <ele>871.6</ele>
        <time>2021-08-24T10:29:24Z</time>
      </trkpt>
      <trkpt lat="45.42951" lon="5.82338">
        <ele>871.6</ele>
        <time>2021-08-24T10:29:26Z</time>
      </trkpt>
      <trkpt lat="45.42951" lon="5.82338">
        <ele>871.6</ele>
        <time>2021-08-24T10:29:28Z</time>
      </trkpt>
      <trkpt lat="45.42951" lon="5.82338">
        <ele>871.6</ele>
        <time>2021-08-24T10:29:29Z</time>
      </trkpt>
      <trkpt lat="45.42951" lon="5.82338">
        <ele>871.6</ele>
        <time>2021-08-24T10:29:30Z</time>
      </trkpt>
      <trkpt lat="45.42951" lon="5.82338">
        <ele>871.6</ele>
        <time>2021-08-24T10:29:32Z</time>
      </trkpt>
      <trkpt lat="45.42951" lon="5.82338">
        <ele>871.6</ele>
        <time>2021-08-24T10:29:34Z</time>
      </trkpt>
      <trkpt lat="45.42951" lon="5.82338">
        <ele>871.6</ele>
        <time>2021-08-24T10:29:36Z</time>
      </trkpt>
      <trkpt lat="45.42951" lon="5.82338">
        <ele>871.6</ele>
        <time>2021-08-24T10:29:37Z</time>
      </trkpt>
      <trkpt lat="45.42951" lon="5.82338">
        <ele>871.6</ele>
        <time>2021-08-24T10:29:39Z</time>
      </trkpt>
      <trkpt lat="45.42951" lon="5.82338">
        <ele>871.6</ele>
        <time>2021-08-24T10:29:40Z</time>
      </trkpt>
      <trkpt lat="45.42951" lon="5.82338">
        <ele>871.6</ele>
        <time>2021-08-24T10:29:42Z</time>
      </trkpt>
      <trkpt lat="45.42951" lon="5.82338">
        <ele>871.6</ele>
        <time>2021-08-24T10:29:43Z</time>
      </trkpt>
      <trkpt lat="45.42951" lon="5.82338">
        <ele>871.6</ele>
        <time>2021-08-24T10:29:44Z</time>
      </trkpt>
      <trkpt lat="45.42951" lon="5.82338">
        <ele>871.6</ele>
        <time>2021-08-24T10:29:46Z</time>
      </trkpt>
      <trkpt lat="45.42951" lon="5.82338">
        <ele>871.6</ele>
        <time>2021-08-24T10:29:48Z</time>
      </trkpt>
      <trkpt lat="45.42951" lon="5.82338">
        <ele>871.6</ele>
        <time>2021-08-24T10:29:50Z</time>
      </trkpt>
      <trkpt lat="45.42958" lon="5.82338">
        <ele>874.5</ele>
        <time>2021-08-24T10:29:52Z</time>
      </trkpt>
      <trkpt lat="45.4296" lon="5.82338">
        <ele>874.5</ele>
        <time>2021-08-24T10:29:54Z</time>
      </trkpt>
      <trkpt lat="45.4296" lon="5.82338">
        <ele>876</ele>
        <time>2021-08-24T10:29:55Z</time>
      </trkpt>
      <trkpt lat="45.42962" lon="5.82337">
        <ele>876</ele>
        <time>2021-08-24T10:29:57Z</time>
      </trkpt>
      <trkpt lat="45.42963" lon="5.82336">
        <ele>876</ele>
        <time>2021-08-24T10:29:58Z</time>
      </trkpt>
      <trkpt lat="45.42964" lon="5.82336">
        <ele>877.6</ele>
        <time>2021-08-24T10:30:00Z</time>
      </trkpt>
      <trkpt lat="45.42965" lon="5.82335">
        <ele>878</ele>
        <time>2021-08-24T10:30:01Z</time>
      </trkpt>
      <trkpt lat="45.42965" lon="5.82335">
        <ele>878</ele>
        <time>2021-08-24T10:30:02Z</time>
      </trkpt>
      <trkpt lat="45.42966" lon="5.82335">
        <ele>878</ele>
        <time>2021-08-24T10:30:04Z</time>
      </trkpt>
      <trkpt lat="45.42966" lon="5.82335">
        <ele>878</ele>
        <time>2021-08-24T10:30:06Z</time>
      </trkpt>
      <trkpt lat="45.42966" lon="5.82335">
        <ele>878</ele>
        <time>2021-08-24T10:30:07Z</time>
      </trkpt>
      <trkpt lat="45.42966" lon="5.82335">
        <ele>878</ele>
        <time>2021-08-24T10:30:09Z</time>
      </trkpt>
      <trkpt lat="45.42966" lon="5.82335">
        <ele>878</ele>
        <time>2021-08-24T10:30:10Z</time>
      </trkpt>
      <trkpt lat="45.42966" lon="5.82335">
        <ele>878</ele>
        <time>2021-08-24T10:30:12Z</time>
      </trkpt>
      <trkpt lat="45.42966" lon="5.82335">
        <ele>878</ele>
        <time>2021-08-24T10:30:13Z</time>
      </trkpt>
      <trkpt lat="45.42966" lon="5.82335">
        <ele>878</ele>
        <time>2021-08-24T10:30:14Z</time>
      </trkpt>
      <trkpt lat="45.42966" lon="5.82335">
        <ele>878</ele>
        <time>2021-08-24T10:30:16Z</time>
      </trkpt>
      <trkpt lat="45.42966" lon="5.82335">
        <ele>878</ele>
        <time>2021-08-24T10:30:17Z</time>
      </trkpt>
      <trkpt lat="45.42966" lon="5.82335">
        <ele>878</ele>
        <time>2021-08-24T10:30:19Z</time>
      </trkpt>
      <trkpt lat="45.42966" lon="5.82335">
        <ele>878</ele>
        <time>2021-08-24T10:30:20Z</time>
      </trkpt>
      <trkpt lat="45.4297" lon="5.82335">
        <ele>881.2</ele>
        <time>2021-08-24T10:30:22Z</time>
      </trkpt>
      <trkpt lat="45.42973" lon="5.82336">
        <ele>882.3</ele>
        <time>2021-08-24T10:30:24Z</time>
      </trkpt>
      <trkpt lat="45.42973" lon="5.82336">
        <ele>882.3</ele>
        <time>2021-08-24T10:30:25Z</time>
      </trkpt>
      <trkpt lat="45.42974" lon="5.82336">
        <ele>882.3</ele>
        <time>2021-08-24T10:30:26Z</time>
      </trkpt>
      <trkpt lat="45.42974" lon="5.82336">
        <ele>882.3</ele>
        <time>2021-08-24T10:30:28Z</time>
      </trkpt>
      <trkpt lat="45.42974" lon="5.82336">
        <ele>882.3</ele>
        <time>2021-08-24T10:30:29Z</time>
      </trkpt>
      <trkpt lat="45.42974" lon="5.82336">
        <ele>882.2</ele>
        <time>2021-08-24T10:30:31Z</time>
      </trkpt>
      <trkpt lat="45.42974" lon="5.82336">
        <ele>882.2</ele>
        <time>2021-08-24T10:30:33Z</time>
      </trkpt>
      <trkpt lat="45.42974" lon="5.82336">
        <ele>882.2</ele>
        <time>2021-08-24T10:30:35Z</time>
      </trkpt>
      <trkpt lat="45.42974" lon="5.82336">
        <ele>882.2</ele>
        <time>2021-08-24T10:30:37Z</time>
      </trkpt>
      <trkpt lat="45.42974" lon="5.82336">
        <ele>882.2</ele>
        <time>2021-08-24T10:30:38Z</time>
      </trkpt>
      <trkpt lat="45.42974" lon="5.82336">
        <ele>882.2</ele>
        <time>2021-08-24T10:30:39Z</time>
      </trkpt>
      <trkpt lat="45.42974" lon="5.82336">
        <ele>882.2</ele>
        <time>2021-08-24T10:30:40Z</time>
      </trkpt>
      <trkpt lat="45.42974" lon="5.82336">
        <ele>882.2</ele>
        <time>2021-08-24T10:30:41Z</time>
      </trkpt>
      <trkpt lat="45.42974" lon="5.82336">
        <ele>882.2</ele>
        <time>2021-08-24T10:30:43Z</time>
      </trkpt>
      <trkpt lat="45.42974" lon="5.82336">
        <ele>882.2</ele>
        <time>2021-08-24T10:30:45Z</time>
      </trkpt>
      <trkpt lat="45.42974" lon="5.82336">
        <ele>882.2</ele>
        <time>2021-08-24T10:30:46Z</time>
      </trkpt>
      <trkpt lat="45.42975" lon="5.82339">
        <ele>883.8</ele>
        <time>2021-08-24T10:30:48Z</time>
      </trkpt>
      <trkpt lat="45.42977" lon="5.8234">
        <ele>883.2</ele>
        <time>2021-08-24T10:30:49Z</time>
      </trkpt>
      <trkpt lat="45.42978" lon="5.82342">
        <ele>883.2</ele>
        <time>2021-08-24T10:30:50Z</time>
      </trkpt>
      <trkpt lat="45.42979" lon="5.82342">
        <ele>884.7</ele>
        <time>2021-08-24T10:30:51Z</time>
      </trkpt>
      <trkpt lat="45.4298" lon="5.82342">
        <ele>884.7</ele>
        <time>2021-08-24T10:30:52Z</time>
      </trkpt>
      <trkpt lat="45.42981" lon="5.82343">
        <ele>886.2</ele>
        <time>2021-08-24T10:30:54Z</time>
      </trkpt>
      <trkpt lat="45.42982" lon="5.82343">
        <ele>886.2</ele>
        <time>2021-08-24T10:30:56Z</time>
      </trkpt>
      <trkpt lat="45.42982" lon="5.82343">
        <ele>886.2</ele>
        <time>2021-08-24T10:30:57Z</time>
      </trkpt>
      <trkpt lat="45.42982" lon="5.82343">
        <ele>886.2</ele>
        <time>2021-08-24T10:30:59Z</time>
      </trkpt>
      <trkpt lat="45.42982" lon="5.82343">
        <ele>886.2</ele>
        <time>2021-08-24T10:31:00Z</time>
      </trkpt>
      <trkpt lat="45.42982" lon="5.82343">
        <ele>886.2</ele>
        <time>2021-08-24T10:31:02Z</time>
      </trkpt>
      <trkpt lat="45.42982" lon="5.82343">
        <ele>886.2</ele>
        <time>2021-08-24T10:31:03Z</time>
      </trkpt>
      <trkpt lat="45.42982" lon="5.82343">
        <ele>886.1</ele>
        <time>2021-08-24T10:31:05Z</time>
      </trkpt>
      <trkpt lat="45.42982" lon="5.82343">
        <ele>886.1</ele>
        <time>2021-08-24T10:31:07Z</time>
      </trkpt>
      <trkpt lat="45.42982" lon="5.82343">
        <ele>886.1</ele>
        <time>2021-08-24T10:31:08Z</time>
      </trkpt>
      <trkpt lat="45.42982" lon="5.82343">
        <ele>886.1</ele>
        <time>2021-08-24T10:31:10Z</time>
      </trkpt>
      <trkpt lat="45.42982" lon="5.82343">
        <ele>886.1</ele>
        <time>2021-08-24T10:31:11Z</time>
      </trkpt>
      <trkpt lat="45.42982" lon="5.82343">
        <ele>886.1</ele>
        <time>2021-08-24T10:31:12Z</time>
      </trkpt>
      <trkpt lat="45.42982" lon="5.82343">
        <ele>886.1</ele>
        <time>2021-08-24T10:31:14Z</time>
      </trkpt>
      <trkpt lat="45.42982" lon="5.82343">
        <ele>886.1</ele>
        <time>2021-08-24T10:31:15Z</time>
      </trkpt>
      <trkpt lat="45.42982" lon="5.82343">
        <ele>886.1</ele>
        <time>2021-08-24T10:31:16Z</time>
      </trkpt>
      <trkpt lat="45.42982" lon="5.82343">
        <ele>886.1</ele>
        <time>2021-08-24T10:31:17Z</time>
      </trkpt>
      <trkpt lat="45.42982" lon="5.82343">
        <ele>886.1</ele>
        <time>2021-08-24T10:31:18Z</time>
      </trkpt>
      <trkpt lat="45.42986" lon="5.82342">
        <ele>887.5</ele>
        <time>2021-08-24T10:31:20Z</time>
      </trkpt>
      <trkpt lat="45.42986" lon="5.82342">
        <ele>887.5</ele>
        <time>2021-08-24T10:31:22Z</time>
      </trkpt>
      <trkpt lat="45.42986" lon="5.82342">
        <ele>887.5</ele>
        <time>2021-08-24T10:31:23Z</time>
      </trkpt>
      <trkpt lat="45.42986" lon="5.82342">
        <ele>887.5</ele>
        <time>2021-08-24T10:31:24Z</time>
      </trkpt>
      <trkpt lat="45.42986" lon="5.82341">
        <ele>887.5</ele>
        <time>2021-08-24T10:31:26Z</time>
      </trkpt>
      <trkpt lat="45.42986" lon="5.82341">
        <ele>887.5</ele>
        <time>2021-08-24T10:31:27Z</time>
      </trkpt>
      <trkpt lat="45.42986" lon="5.82341">
        <ele>887.5</ele>
        <time>2021-08-24T10:31:28Z</time>
      </trkpt>
      <trkpt lat="45.42986" lon="5.82341">
        <ele>887.5</ele>
        <time>2021-08-24T10:31:30Z</time>
      </trkpt>
      <trkpt lat="45.42986" lon="5.82341">
        <ele>887.5</ele>
        <time>2021-08-24T10:31:31Z</time>
      </trkpt>
      <trkpt lat="45.42986" lon="5.82341">
        <ele>887.5</ele>
        <time>2021-08-24T10:31:33Z</time>
      </trkpt>
      <trkpt lat="45.42986" lon="5.82341">
        <ele>887.5</ele>
        <time>2021-08-24T10:31:34Z</time>
      </trkpt>
      <trkpt lat="45.42986" lon="5.8234">
        <ele>887.5</ele>
        <time>2021-08-24T10:31:36Z</time>
      </trkpt>
      <trkpt lat="45.42986" lon="5.8234">
        <ele>887.4</ele>
        <time>2021-08-24T10:31:38Z</time>
      </trkpt>
      <trkpt lat="45.42986" lon="5.8234">
        <ele>887.4</ele>
        <time>2021-08-24T10:31:39Z</time>
      </trkpt>
      <trkpt lat="45.42986" lon="5.8234">
        <ele>887.4</ele>
        <time>2021-08-24T10:31:41Z</time>
      </trkpt>
      <trkpt lat="45.42986" lon="5.8234">
        <ele>888.1</ele>
        <time>2021-08-24T10:31:43Z</time>
      </trkpt>
      <trkpt lat="45.42986" lon="5.8234">
        <ele>888.1</ele>
        <time>2021-08-24T10:31:45Z</time>
      </trkpt>
      <trkpt lat="45.42986" lon="5.82339">
        <ele>888.1</ele>
        <time>2021-08-24T10:31:46Z</time>
      </trkpt>
      <trkpt lat="45.42986" lon="5.82339">
        <ele>888.1</ele>
        <time>2021-08-24T10:31:48Z</time>
      </trkpt>
      <trkpt lat="45.42986" lon="5.82339">
        <ele>888.1</ele>
        <time>2021-08-24T10:31:50Z</time>
      </trkpt>
      <trkpt lat="45.42987" lon="5.82339">
        <ele>888.1</ele>
        <time>2021-08-24T10:31:51Z</time>
      </trkpt>
      <trkpt lat="45.42987" lon="5.82339">
        <ele>888.1</ele>
        <time>2021-08-24T10:31:53Z</time>
      </trkpt>
      <trkpt lat="45.42987" lon="5.82339">
        <ele>888.1</ele>
        <time>2021-08-24T10:31:55Z</time>
      </trkpt>
      <trkpt lat="45.42987" lon="5.82338">
        <ele>888.1</ele>
        <time>2021-08-24T10:31:57Z</time>
      </trkpt>
      <trkpt lat="45.42987" lon="5.82338">
        <ele>888</ele>
        <time>2021-08-24T10:31:59Z</time>
      </trkpt>
      <trkpt lat="45.42987" lon="5.82338">
        <ele>888</ele>
        <time>2021-08-24T10:32:01Z</time>
      </trkpt>
      <trkpt lat="45.42987" lon="5.82338">
        <ele>888</ele>
        <time>2021-08-24T10:32:03Z</time>
      </trkpt>
      <trkpt lat="45.42987" lon="5.82338">
        <ele>888</ele>
        <time>2021-08-24T10:32:04Z</time>
      </trkpt>
      <trkpt lat="45.42987" lon="5.82338">
        <ele>888</ele>
        <time>2021-08-24T10:32:06Z</time>
      </trkpt>
      <trkpt lat="45.42987" lon="5.82337">
        <ele>888</ele>
        <time>2021-08-24T10:32:08Z</time>
      </trkpt>
      <trkpt lat="45.42987" lon="5.82337">
        <ele>888</ele>
        <time>2021-08-24T10:32:10Z</time>
      </trkpt>
      <trkpt lat="45.42987" lon="5.82337">
        <ele>888</ele>
        <time>2021-08-24T10:32:12Z</time>
      </trkpt>
      <trkpt lat="45.42987" lon="5.82337">
        <ele>889.4</ele>
        <time>2021-08-24T10:32:13Z</time>
      </trkpt>
      <trkpt lat="45.42987" lon="5.82337">
        <ele>889.4</ele>
        <time>2021-08-24T10:32:14Z</time>
      </trkpt>
      <trkpt lat="45.42987" lon="5.82337">
        <ele>889.4</ele>
        <time>2021-08-24T10:32:16Z</time>
      </trkpt>
      <trkpt lat="45.42987" lon="5.82336">
        <ele>889.4</ele>
        <time>2021-08-24T10:32:17Z</time>
      </trkpt>
      <trkpt lat="45.42987" lon="5.82336">
        <ele>889.4</ele>
        <time>2021-08-24T10:32:19Z</time>
      </trkpt>
      <trkpt lat="45.42987" lon="5.82336">
        <ele>889.4</ele>
        <time>2021-08-24T10:32:20Z</time>
      </trkpt>
      <trkpt lat="45.42987" lon="5.82336">
        <ele>889.4</ele>
        <time>2021-08-24T10:32:22Z</time>
      </trkpt>
      <trkpt lat="45.42987" lon="5.82336">
        <ele>889.4</ele>
        <time>2021-08-24T10:32:23Z</time>
      </trkpt>
      <trkpt lat="45.42988" lon="5.82336">
        <ele>889.4</ele>
        <time>2021-08-24T10:32:24Z</time>
      </trkpt>
      <trkpt lat="45.42988" lon="5.82335">
        <ele>890</ele>
        <time>2021-08-24T10:32:25Z</time>
      </trkpt>
      <trkpt lat="45.42988" lon="5.82335">
        <ele>890</ele>
        <time>2021-08-24T10:32:27Z</time>
      </trkpt>
      <trkpt lat="45.42988" lon="5.82335">
        <ele>890</ele>
        <time>2021-08-24T10:32:28Z</time>
      </trkpt>
      <trkpt lat="45.42988" lon="5.82335">
        <ele>890</ele>
        <time>2021-08-24T10:32:30Z</time>
      </trkpt>
      <trkpt lat="45.42988" lon="5.82335">
        <ele>890</ele>
        <time>2021-08-24T10:32:31Z</time>
      </trkpt>
      <trkpt lat="45.42989" lon="5.82329">
        <ele>890.7</ele>
        <time>2021-08-24T10:32:33Z</time>
      </trkpt>
      <trkpt lat="45.42989" lon="5.82327">
        <ele>891.3</ele>
        <time>2021-08-24T10:32:34Z</time>
      </trkpt>
      <trkpt lat="45.42989" lon="5.82326">
        <ele>891.3</ele>
        <time>2021-08-24T10:32:36Z</time>
      </trkpt>
      <trkpt lat="45.42989" lon="5.82325">
        <ele>891.3</ele>
        <time>2021-08-24T10:32:37Z</time>
      </trkpt>
      <trkpt lat="45.4299" lon="5.82325">
        <ele>891.3</ele>
        <time>2021-08-24T10:32:39Z</time>
      </trkpt>
      <trkpt lat="45.4299" lon="5.82325">
        <ele>891.3</ele>
        <time>2021-08-24T10:32:40Z</time>
      </trkpt>
      <trkpt lat="45.4299" lon="5.82325">
        <ele>891.3</ele>
        <time>2021-08-24T10:32:41Z</time>
      </trkpt>
      <trkpt lat="45.4299" lon="5.82325">
        <ele>891.3</ele>
        <time>2021-08-24T10:32:42Z</time>
      </trkpt>
      <trkpt lat="45.4299" lon="5.82325">
        <ele>891.3</ele>
        <time>2021-08-24T10:32:44Z</time>
      </trkpt>
      <trkpt lat="45.4299" lon="5.82325">
        <ele>891.3</ele>
        <time>2021-08-24T10:32:46Z</time>
      </trkpt>
      <trkpt lat="45.4299" lon="5.82325">
        <ele>891.3</ele>
        <time>2021-08-24T10:32:47Z</time>
      </trkpt>
      <trkpt lat="45.4299" lon="5.82325">
        <ele>891.3</ele>
        <time>2021-08-24T10:32:49Z</time>
      </trkpt>
      <trkpt lat="45.4299" lon="5.82325">
        <ele>891.3</ele>
        <time>2021-08-24T10:32:50Z</time>
      </trkpt>
      <trkpt lat="45.4299" lon="5.82325">
        <ele>891.2</ele>
        <time>2021-08-24T10:32:51Z</time>
      </trkpt>
      <trkpt lat="45.4299" lon="5.82325">
        <ele>891.2</ele>
        <time>2021-08-24T10:32:53Z</time>
      </trkpt>
      <trkpt lat="45.4299" lon="5.82325">
        <ele>891.2</ele>
        <time>2021-08-24T10:32:54Z</time>
      </trkpt>
      <trkpt lat="45.4299" lon="5.82325">
        <ele>891.2</ele>
        <time>2021-08-24T10:32:55Z</time>
      </trkpt>
      <trkpt lat="45.4299" lon="5.82325">
        <ele>891.2</ele>
        <time>2021-08-24T10:32:56Z</time>
      </trkpt>
      <trkpt lat="45.4299" lon="5.82325">
        <ele>891.2</ele>
        <time>2021-08-24T10:32:58Z</time>
      </trkpt>
      <trkpt lat="45.4299" lon="5.82325">
        <ele>891.2</ele>
        <time>2021-08-24T10:32:59Z</time>
      </trkpt>
      <trkpt lat="45.4299" lon="5.82325">
        <ele>891.2</ele>
        <time>2021-08-24T10:33:00Z</time>
      </trkpt>
      <trkpt lat="45.4299" lon="5.82325">
        <ele>891.2</ele>
        <time>2021-08-24T10:33:02Z</time>
      </trkpt>
      <trkpt lat="45.4299" lon="5.82325">
        <ele>891.2</ele>
        <time>2021-08-24T10:33:04Z</time>
      </trkpt>
      <trkpt lat="45.4299" lon="5.82325">
        <ele>891.2</ele>
        <time>2021-08-24T10:33:05Z</time>
      </trkpt>
      <trkpt lat="45.4299" lon="5.82325">
        <ele>891.2</ele>
        <time>2021-08-24T10:33:06Z</time>
      </trkpt>
      <trkpt lat="45.4299" lon="5.82325">
        <ele>891.2</ele>
        <time>2021-08-24T10:33:08Z</time>
      </trkpt>
      <trkpt lat="45.42994" lon="5.82321">
        <ele>894.9</ele>
        <time>2021-08-24T10:33:10Z</time>
      </trkpt>
      <trkpt lat="45.42995" lon="5.8232">
        <ele>894.9</ele>
        <time>2021-08-24T10:33:11Z</time>
      </trkpt>
      <trkpt lat="45.42995" lon="5.8232">
        <ele>894.9</ele>
        <time>2021-08-24T10:33:13Z</time>
      </trkpt>
      <trkpt lat="45.42995" lon="5.82321">
        <ele>894.9</ele>
        <time>2021-08-24T10:33:15Z</time>
      </trkpt>
      <trkpt lat="45.42995" lon="5.82321">
        <ele>894.9</ele>
        <time>2021-08-24T10:33:17Z</time>
      </trkpt>
      <trkpt lat="45.42995" lon="5.82321">
        <ele>894.8</ele>
        <time>2021-08-24T10:33:19Z</time>
      </trkpt>
      <trkpt lat="45.42995" lon="5.82321">
        <ele>894.8</ele>
        <time>2021-08-24T10:33:20Z</time>
      </trkpt>
      <trkpt lat="45.42995" lon="5.82321">
        <ele>894.8</ele>
        <time>2021-08-24T10:33:22Z</time>
      </trkpt>
      <trkpt lat="45.42995" lon="5.82321">
        <ele>894.8</ele>
        <time>2021-08-24T10:33:24Z</time>
      </trkpt>
      <trkpt lat="45.42995" lon="5.82321">
        <ele>894.8</ele>
        <time>2021-08-24T10:33:25Z</time>
      </trkpt>
      <trkpt lat="45.42995" lon="5.82321">
        <ele>894.8</ele>
        <time>2021-08-24T10:33:27Z</time>
      </trkpt>
      <trkpt lat="45.42995" lon="5.82321">
        <ele>894.8</ele>
        <time>2021-08-24T10:33:28Z</time>
      </trkpt>
      <trkpt lat="45.42989" lon="5.82321">
        <ele>891.7</ele>
        <time>2021-08-24T10:33:30Z</time>
      </trkpt>
      <trkpt lat="45.42985" lon="5.82321">
        <ele>890.2</ele>
        <time>2021-08-24T10:33:31Z</time>
      </trkpt>
      <trkpt lat="45.42983" lon="5.82322">
        <ele>888.7</ele>
        <time>2021-08-24T10:33:32Z</time>
      </trkpt>
      <trkpt lat="45.42983" lon="5.82322">
        <ele>888.7</ele>
        <time>2021-08-24T10:33:34Z</time>
      </trkpt>
      <trkpt lat="45.42983" lon="5.82323">
        <ele>888.1</ele>
        <time>2021-08-24T10:33:36Z</time>
      </trkpt>
      <trkpt lat="45.42982" lon="5.82323">
        <ele>888.1</ele>
        <time>2021-08-24T10:33:38Z</time>
      </trkpt>
      <trkpt lat="45.42982" lon="5.82323">
        <ele>888.1</ele>
        <time>2021-08-24T10:33:39Z</time>
      </trkpt>
      <trkpt lat="45.42981" lon="5.82323">
        <ele>888.1</ele>
        <time>2021-08-24T10:33:40Z</time>
      </trkpt>
      <trkpt lat="45.42981" lon="5.82324">
        <ele>886.5</ele>
        <time>2021-08-24T10:33:42Z</time>
      </trkpt>
      <trkpt lat="45.4298" lon="5.82325">
        <ele>886.5</ele>
        <time>2021-08-24T10:33:43Z</time>
      </trkpt>
      <trkpt lat="45.4298" lon="5.82325">
        <ele>886.5</ele>
        <time>2021-08-24T10:33:45Z</time>
      </trkpt>
      <trkpt lat="45.4298" lon="5.82324">
        <ele>886.5</ele>
        <time>2021-08-24T10:33:47Z</time>
      </trkpt>
      <trkpt lat="45.42979" lon="5.82324">
        <ele>886.5</ele>
        <time>2021-08-24T10:33:48Z</time>
      </trkpt>
      <trkpt lat="45.42978" lon="5.82324">
        <ele>884.8</ele>
        <time>2021-08-24T10:33:49Z</time>
      </trkpt>
      <trkpt lat="45.42977" lon="5.82325">
        <ele>884.8</ele>
        <time>2021-08-24T10:33:50Z</time>
      </trkpt>
      <trkpt lat="45.42976" lon="5.82326">
        <ele>884.8</ele>
        <time>2021-08-24T10:33:52Z</time>
      </trkpt>
      <trkpt lat="45.42976" lon="5.82326">
        <ele>884.8</ele>
        <time>2021-08-24T10:33:54Z</time>
      </trkpt>
      <trkpt lat="45.42976" lon="5.82327">
        <ele>884.8</ele>
        <time>2021-08-24T10:33:56Z</time>
      </trkpt>
      <trkpt lat="45.42975" lon="5.82327">
        <ele>884.3</ele>
        <time>2021-08-24T10:33:58Z</time>
      </trkpt>
      <trkpt lat="45.42975" lon="5.82328">
        <ele>882.6</ele>
        <time>2021-08-24T10:34:00Z</time>
      </trkpt>
      <trkpt lat="45.42974" lon="5.82328">
        <ele>882.6</ele>
        <time>2021-08-24T10:34:01Z</time>
      </trkpt>
      <trkpt lat="45.42974" lon="5.82329">
        <ele>882.6</ele>
        <time>2021-08-24T10:34:02Z</time>
      </trkpt>
      <trkpt lat="45.42972" lon="5.82331">
        <ele>880.4</ele>
        <time>2021-08-24T10:34:03Z</time>
      </trkpt>
      <trkpt lat="45.4297" lon="5.82334">
        <ele>880.4</ele>
        <time>2021-08-24T10:34:05Z</time>
      </trkpt>
      <trkpt lat="45.4297" lon="5.82335">
        <ele>880.4</ele>
        <time>2021-08-24T10:34:07Z</time>
      </trkpt>
      <trkpt lat="45.4297" lon="5.82335">
        <ele>880.4</ele>
        <time>2021-08-24T10:34:09Z</time>
      </trkpt>
      <trkpt lat="45.4297" lon="5.82335">
        <ele>880.4</ele>
        <time>2021-08-24T10:34:10Z</time>
      </trkpt>
      <trkpt lat="45.42969" lon="5.82336">
        <ele>879.9</ele>
        <time>2021-08-24T10:34:11Z</time>
      </trkpt>
      <trkpt lat="45.4297" lon="5.82335">
        <ele>880.4</ele>
        <time>2021-08-24T10:34:13Z</time>
      </trkpt>
      <trkpt lat="45.4297" lon="5.82335">
        <ele>880.4</ele>
        <time>2021-08-24T10:34:15Z</time>
      </trkpt>
      <trkpt lat="45.4297" lon="5.82335">
        <ele>880.4</ele>
        <time>2021-08-24T10:34:16Z</time>
      </trkpt>
      <trkpt lat="45.4297" lon="5.82334">
        <ele>880.4</ele>
        <time>2021-08-24T10:34:17Z</time>
      </trkpt>
      <trkpt lat="45.42969" lon="5.82334">
        <ele>878.7</ele>
        <time>2021-08-24T10:34:19Z</time>
      </trkpt>
      <trkpt lat="45.42968" lon="5.82333">
        <ele>878.7</ele>
        <time>2021-08-24T10:34:21Z</time>
      </trkpt>
      <trkpt lat="45.42967" lon="5.82332">
        <ele>878.7</ele>
        <time>2021-08-24T10:34:23Z</time>
      </trkpt>
      <trkpt lat="45.42966" lon="5.82332">
        <ele>878.7</ele>
        <time>2021-08-24T10:34:25Z</time>
      </trkpt>
      <trkpt lat="45.42966" lon="5.82332">
        <ele>878.7</ele>
        <time>2021-08-24T10:34:26Z</time>
      </trkpt>
      <trkpt lat="45.42967" lon="5.82333">
        <ele>878.7</ele>
        <time>2021-08-24T10:34:28Z</time>
      </trkpt>
      <trkpt lat="45.42967" lon="5.82334">
        <ele>878.7</ele>
        <time>2021-08-24T10:34:29Z</time>
      </trkpt>
      <trkpt lat="45.42968" lon="5.82335">
        <ele>878.7</ele>
        <time>2021-08-24T10:34:31Z</time>
      </trkpt>
      <trkpt lat="45.42968" lon="5.82334">
        <ele>878.7</ele>
        <time>2021-08-24T10:34:33Z</time>
      </trkpt>
      <trkpt lat="45.42968" lon="5.82335">
        <ele>878.7</ele>
        <time>2021-08-24T10:34:35Z</time>
      </trkpt>
      <trkpt lat="45.42969" lon="5.82335">
        <ele>878.7</ele>
        <time>2021-08-24T10:34:38Z</time>
      </trkpt>
      <trkpt lat="45.42969" lon="5.82336">
        <ele>878.2</ele>
        <time>2021-08-24T10:34:40Z</time>
      </trkpt>
      <trkpt lat="45.42969" lon="5.82336">
        <ele>879.8</ele>
        <time>2021-08-24T10:34:41Z</time>
      </trkpt>
      <trkpt lat="45.42969" lon="5.82336">
        <ele>879.8</ele>
        <time>2021-08-24T10:34:42Z</time>
      </trkpt>
      <trkpt lat="45.42969" lon="5.82337">
        <ele>879.8</ele>
        <time>2021-08-24T10:34:44Z</time>
      </trkpt>
      <trkpt lat="45.4297" lon="5.82337">
        <ele>879.8</ele>
        <time>2021-08-24T10:34:45Z</time>
      </trkpt>
      <trkpt lat="45.4297" lon="5.82337">
        <ele>879.8</ele>
        <time>2021-08-24T10:34:47Z</time>
      </trkpt>
      <trkpt lat="45.4297" lon="5.82337">
        <ele>879.8</ele>
        <time>2021-08-24T10:34:48Z</time>
      </trkpt>
      <trkpt lat="45.4297" lon="5.82336">
        <ele>879.8</ele>
        <time>2021-08-24T10:34:50Z</time>
      </trkpt>
      <trkpt lat="45.42971" lon="5.82336">
        <ele>879.7</ele>
        <time>2021-08-24T10:34:51Z</time>
      </trkpt>
      <trkpt lat="45.4297" lon="5.82336">
        <ele>879.7</ele>
        <time>2021-08-24T10:34:53Z</time>
      </trkpt>
      <trkpt lat="45.42968" lon="5.82338">
        <ele>878.1</ele>
        <time>2021-08-24T10:34:55Z</time>
      </trkpt>
      <trkpt lat="45.42966" lon="5.8234">
        <ele>876</ele>
        <time>2021-08-24T10:34:57Z</time>
      </trkpt>
      <trkpt lat="45.42965" lon="5.82341">
        <ele>876</ele>
        <time>2021-08-24T10:34:58Z</time>
      </trkpt>
      <trkpt lat="45.42961" lon="5.82344">
        <ele>874</ele>
        <time>2021-08-24T10:35:00Z</time>
      </trkpt>
      <trkpt lat="45.4296" lon="5.82345">
        <ele>872.5</ele>
        <time>2021-08-24T10:35:01Z</time>
      </trkpt>
      <trkpt lat="45.42958" lon="5.82346">
        <ele>872.5</ele>
        <time>2021-08-24T10:35:03Z</time>
      </trkpt>
      <trkpt lat="45.42957" lon="5.82347">
        <ele>872.5</ele>
        <time>2021-08-24T10:35:05Z</time>
      </trkpt>
      <trkpt lat="45.42957" lon="5.82347">
        <ele>871.1</ele>
        <time>2021-08-24T10:35:07Z</time>
      </trkpt>
      <trkpt lat="45.42956" lon="5.82347">
        <ele>871</ele>
        <time>2021-08-24T10:35:08Z</time>
      </trkpt>
      <trkpt lat="45.42956" lon="5.82348">
        <ele>871</ele>
        <time>2021-08-24T10:35:09Z</time>
      </trkpt>
      <trkpt lat="45.42956" lon="5.82348">
        <ele>871</ele>
        <time>2021-08-24T10:35:10Z</time>
      </trkpt>
      <trkpt lat="45.42956" lon="5.82348">
        <ele>871</ele>
        <time>2021-08-24T10:35:12Z</time>
      </trkpt>
      <trkpt lat="45.42955" lon="5.82348">
        <ele>871</ele>
        <time>2021-08-24T10:35:13Z</time>
      </trkpt>
      <trkpt lat="45.42955" lon="5.82348">
        <ele>871</ele>
        <time>2021-08-24T10:35:15Z</time>
      </trkpt>
      <trkpt lat="45.42955" lon="5.82348">
        <ele>871</ele>
        <time>2021-08-24T10:35:16Z</time>
      </trkpt>
      <trkpt lat="45.42955" lon="5.82348">
        <ele>871</ele>
        <time>2021-08-24T10:35:18Z</time>
      </trkpt>
      <trkpt lat="45.42955" lon="5.82348">
        <ele>871</ele>
        <time>2021-08-24T10:35:20Z</time>
      </trkpt>
      <trkpt lat="45.42955" lon="5.82348">
        <ele>871</ele>
        <time>2021-08-24T10:35:22Z</time>
      </trkpt>
      <trkpt lat="45.42955" lon="5.82348">
        <ele>871</ele>
        <time>2021-08-24T10:35:23Z</time>
      </trkpt>
      <trkpt lat="45.42955" lon="5.82348">
        <ele>871</ele>
        <time>2021-08-24T10:35:25Z</time>
      </trkpt>
      <trkpt lat="45.42955" lon="5.82348">
        <ele>871</ele>
        <time>2021-08-24T10:35:27Z</time>
      </trkpt>
      <trkpt lat="45.42955" lon="5.82348">
        <ele>871</ele>
        <time>2021-08-24T10:35:28Z</time>
      </trkpt>
      <trkpt lat="45.42955" lon="5.82348">
        <ele>871</ele>
        <time>2021-08-24T10:35:29Z</time>
      </trkpt>
      <trkpt lat="45.42955" lon="5.82348">
        <ele>871</ele>
        <time>2021-08-24T10:35:31Z</time>
      </trkpt>
      <trkpt lat="45.42955" lon="5.82348">
        <ele>871</ele>
        <time>2021-08-24T10:35:33Z</time>
      </trkpt>
      <trkpt lat="45.42955" lon="5.82348">
        <ele>871</ele>
        <time>2021-08-24T10:35:34Z</time>
      </trkpt>
      <trkpt lat="45.42955" lon="5.82348">
        <ele>871</ele>
        <time>2021-08-24T10:35:36Z</time>
      </trkpt>
      <trkpt lat="45.42955" lon="5.82348">
        <ele>870.9</ele>
        <time>2021-08-24T10:35:38Z</time>
      </trkpt>
      <trkpt lat="45.42955" lon="5.82348">
        <ele>870.9</ele>
        <time>2021-08-24T10:35:39Z</time>
      </trkpt>
      <trkpt lat="45.42955" lon="5.82348">
        <ele>870.9</ele>
        <time>2021-08-24T10:35:41Z</time>
      </trkpt>
      <trkpt lat="45.42955" lon="5.82348">
        <ele>870.9</ele>
        <time>2021-08-24T10:35:43Z</time>
      </trkpt>
      <trkpt lat="45.42955" lon="5.82348">
        <ele>870.9</ele>
        <time>2021-08-24T10:35:45Z</time>
      </trkpt>
      <trkpt lat="45.42955" lon="5.82348">
        <ele>870.9</ele>
        <time>2021-08-24T10:35:46Z</time>
      </trkpt>
      <trkpt lat="45.42955" lon="5.82348">
        <ele>870.9</ele>
        <time>2021-08-24T10:35:48Z</time>
      </trkpt>
      <trkpt lat="45.42955" lon="5.82348">
        <ele>870.9</ele>
        <time>2021-08-24T10:35:50Z</time>
      </trkpt>
      <trkpt lat="45.42955" lon="5.82348">
        <ele>870.9</ele>
        <time>2021-08-24T10:35:52Z</time>
      </trkpt>
      <trkpt lat="45.42955" lon="5.82348">
        <ele>870.9</ele>
        <time>2021-08-24T10:35:53Z</time>
      </trkpt>
      <trkpt lat="45.42955" lon="5.82348">
        <ele>870.9</ele>
        <time>2021-08-24T10:35:55Z</time>
      </trkpt>
      <trkpt lat="45.42955" lon="5.82348">
        <ele>870.9</ele>
        <time>2021-08-24T10:35:56Z</time>
      </trkpt>
      <trkpt lat="45.42955" lon="5.82348">
        <ele>870.9</ele>
        <time>2021-08-24T10:35:58Z</time>
      </trkpt>
      <trkpt lat="45.42955" lon="5.82348">
        <ele>870.9</ele>
        <time>2021-08-24T10:35:59Z</time>
      </trkpt>
      <trkpt lat="45.42955" lon="5.82348">
        <ele>870.9</ele>
        <time>2021-08-24T10:36:00Z</time>
      </trkpt>
      <trkpt lat="45.42955" lon="5.82348">
        <ele>870.9</ele>
        <time>2021-08-24T10:36:02Z</time>
      </trkpt>
      <trkpt lat="45.42955" lon="5.82348">
        <ele>870.9</ele>
        <time>2021-08-24T10:36:04Z</time>
      </trkpt>
      <trkpt lat="45.42955" lon="5.82348">
        <ele>870.9</ele>
        <time>2021-08-24T10:36:05Z</time>
      </trkpt>
      <trkpt lat="45.42955" lon="5.82348">
        <ele>870.9</ele>
        <time>2021-08-24T10:36:07Z</time>
      </trkpt>
      <trkpt lat="45.42955" lon="5.82348">
        <ele>870.8</ele>
        <time>2021-08-24T10:36:08Z</time>
      </trkpt>
      <trkpt lat="45.42955" lon="5.82348">
        <ele>870.8</ele>
        <time>2021-08-24T10:36:10Z</time>
      </trkpt>
      <trkpt lat="45.42955" lon="5.82348">
        <ele>870.8</ele>
        <time>2021-08-24T10:36:12Z</time>
      </trkpt>
      <trkpt lat="45.42955" lon="5.82348">
        <ele>870.8</ele>
        <time>2021-08-24T10:36:14Z</time>
      </trkpt>
      <trkpt lat="45.42955" lon="5.82348">
        <ele>870.8</ele>
        <time>2021-08-24T10:36:15Z</time>
      </trkpt>
      <trkpt lat="45.42955" lon="5.82348">
        <ele>870.8</ele>
        <time>2021-08-24T10:36:16Z</time>
      </trkpt>
      <trkpt lat="45.42955" lon="5.82348">
        <ele>870.8</ele>
        <time>2021-08-24T10:36:18Z</time>
      </trkpt>
      <trkpt lat="45.42955" lon="5.82348">
        <ele>870.8</ele>
        <time>2021-08-24T10:36:19Z</time>
      </trkpt>
      <trkpt lat="45.42955" lon="5.82348">
        <ele>870.8</ele>
        <time>2021-08-24T10:36:21Z</time>
      </trkpt>
      <trkpt lat="45.42955" lon="5.82348">
        <ele>870.8</ele>
        <time>2021-08-24T10:36:23Z</time>
      </trkpt>
      <trkpt lat="45.42955" lon="5.82348">
        <ele>870.8</ele>
        <time>2021-08-24T10:36:24Z</time>
      </trkpt>
      <trkpt lat="45.42955" lon="5.82348">
        <ele>870.8</ele>
        <time>2021-08-24T10:36:26Z</time>
      </trkpt>
      <trkpt lat="45.42955" lon="5.82348">
        <ele>870.8</ele>
        <time>2021-08-24T10:36:27Z</time>
      </trkpt>
      <trkpt lat="45.42955" lon="5.82348">
        <ele>870.8</ele>
        <time>2021-08-24T10:36:29Z</time>
      </trkpt>
      <trkpt lat="45.42955" lon="5.82348">
        <ele>870.8</ele>
        <time>2021-08-24T10:36:30Z</time>
      </trkpt>
      <trkpt lat="45.42955" lon="5.82348">
        <ele>870.8</ele>
        <time>2021-08-24T10:36:31Z</time>
      </trkpt>
      <trkpt lat="45.42955" lon="5.82348">
        <ele>870.8</ele>
        <time>2021-08-24T10:36:33Z</time>
      </trkpt>
      <trkpt lat="45.42955" lon="5.82348">
        <ele>870.8</ele>
        <time>2021-08-24T10:36:35Z</time>
      </trkpt>
      <trkpt lat="45.42955" lon="5.82348">
        <ele>870.8</ele>
        <time>2021-08-24T10:36:36Z</time>
      </trkpt>
      <trkpt lat="45.42955" lon="5.82348">
        <ele>870.7</ele>
        <time>2021-08-24T10:36:38Z</time>
      </trkpt>
      <trkpt lat="45.42955" lon="5.82348">
        <ele>870.7</ele>
        <time>2021-08-24T10:36:39Z</time>
      </trkpt>
      <trkpt lat="45.42949" lon="5.82346">
        <ele>867.8</ele>
        <time>2021-08-24T10:36:41Z</time>
      </trkpt>
      <trkpt lat="45.42947" lon="5.82345">
        <ele>866.2</ele>
        <time>2021-08-24T10:36:42Z</time>
      </trkpt>
      <trkpt lat="45.42946" lon="5.82345">
        <ele>866.2</ele>
        <time>2021-08-24T10:36:43Z</time>
      </trkpt>
      <trkpt lat="45.42946" lon="5.82345">
        <ele>866.2</ele>
        <time>2021-08-24T10:36:44Z</time>
      </trkpt>
      <trkpt lat="45.42946" lon="5.82345">
        <ele>866.2</ele>
        <time>2021-08-24T10:36:46Z</time>
      </trkpt>
      <trkpt lat="45.42946" lon="5.82345">
        <ele>866.2</ele>
        <time>2021-08-24T10:36:48Z</time>
      </trkpt>
      <trkpt lat="45.42946" lon="5.82345">
        <ele>866.2</ele>
        <time>2021-08-24T10:36:49Z</time>
      </trkpt>
      <trkpt lat="45.42946" lon="5.82345">
        <ele>866.2</ele>
        <time>2021-08-24T10:36:51Z</time>
      </trkpt>
      <trkpt lat="45.42946" lon="5.82345">
        <ele>866.1</ele>
        <time>2021-08-24T10:36:52Z</time>
      </trkpt>
      <trkpt lat="45.42946" lon="5.82345">
        <ele>866.1</ele>
        <time>2021-08-24T10:36:54Z</time>
      </trkpt>
      <trkpt lat="45.42946" lon="5.82345">
        <ele>866.1</ele>
        <time>2021-08-24T10:36:55Z</time>
      </trkpt>
      <trkpt lat="45.42946" lon="5.82345">
        <ele>866.1</ele>
        <time>2021-08-24T10:36:56Z</time>
      </trkpt>
      <trkpt lat="45.42946" lon="5.82345">
        <ele>866.1</ele>
        <time>2021-08-24T10:36:58Z</time>
      </trkpt>
      <trkpt lat="45.42946" lon="5.82345">
        <ele>866.1</ele>
        <time>2021-08-24T10:37:00Z</time>
      </trkpt>
      <trkpt lat="45.42946" lon="5.82345">
        <ele>866.1</ele>
        <time>2021-08-24T10:37:01Z</time>
      </trkpt>
      <trkpt lat="45.42946" lon="5.82345">
        <ele>866.1</ele>
        <time>2021-08-24T10:37:02Z</time>
      </trkpt>
      <trkpt lat="45.42946" lon="5.82345">
        <ele>866.1</ele>
        <time>2021-08-24T10:37:03Z</time>
      </trkpt>
      <trkpt lat="45.42946" lon="5.82345">
        <ele>866.1</ele>
        <time>2021-08-24T10:37:05Z</time>
      </trkpt>
      <trkpt lat="45.42946" lon="5.82345">
        <ele>866.1</ele>
        <time>2021-08-24T10:37:06Z</time>
      </trkpt>
      <trkpt lat="45.42946" lon="5.82345">
        <ele>866.1</ele>
        <time>2021-08-24T10:37:07Z</time>
      </trkpt>
      <trkpt lat="45.42946" lon="5.82345">
        <ele>866.1</ele>
        <time>2021-08-24T10:37:09Z</time>
      </trkpt>
      <trkpt lat="45.42946" lon="5.82345">
        <ele>866.1</ele>
        <time>2021-08-24T10:37:10Z</time>
      </trkpt>
      <trkpt lat="45.42946" lon="5.82345">
        <ele>866.1</ele>
        <time>2021-08-24T10:37:12Z</time>
      </trkpt>
      <trkpt lat="45.42946" lon="5.82345">
        <ele>866.1</ele>
        <time>2021-08-24T10:37:13Z</time>
      </trkpt>
      <trkpt lat="45.42946" lon="5.82345">
        <ele>866.1</ele>
        <time>2021-08-24T10:37:14Z</time>
      </trkpt>
      <trkpt lat="45.42946" lon="5.82345">
        <ele>866.1</ele>
        <time>2021-08-24T10:37:15Z</time>
      </trkpt>
      <trkpt lat="45.42946" lon="5.82345">
        <ele>866.1</ele>
        <time>2021-08-24T10:37:16Z</time>
      </trkpt>
      <trkpt lat="45.42946" lon="5.82345">
        <ele>866</ele>
        <time>2021-08-24T10:37:18Z</time>
      </trkpt>
      <trkpt lat="45.42946" lon="5.82345">
        <ele>866</ele>
        <time>2021-08-24T10:37:19Z</time>
      </trkpt>
      <trkpt lat="45.42946" lon="5.82345">
        <ele>866</ele>
        <time>2021-08-24T10:37:20Z</time>
      </trkpt>
      <trkpt lat="45.42946" lon="5.82345">
        <ele>866</ele>
        <time>2021-08-24T10:37:22Z</time>
      </trkpt>
      <trkpt lat="45.42946" lon="5.82345">
        <ele>866</ele>
        <time>2021-08-24T10:37:23Z</time>
      </trkpt>
      <trkpt lat="45.42946" lon="5.82345">
        <ele>866</ele>
        <time>2021-08-24T10:37:25Z</time>
      </trkpt>
      <trkpt lat="45.42946" lon="5.82345">
        <ele>866</ele>
        <time>2021-08-24T10:37:26Z</time>
      </trkpt>
      <trkpt lat="45.42946" lon="5.82345">
        <ele>866</ele>
        <time>2021-08-24T10:37:28Z</time>
      </trkpt>
      <trkpt lat="45.42946" lon="5.82345">
        <ele>866</ele>
        <time>2021-08-24T10:37:30Z</time>
      </trkpt>
      <trkpt lat="45.42946" lon="5.82345">
        <ele>866</ele>
        <time>2021-08-24T10:37:31Z</time>
      </trkpt>
      <trkpt lat="45.42946" lon="5.82345">
        <ele>866</ele>
        <time>2021-08-24T10:37:32Z</time>
      </trkpt>
      <trkpt lat="45.42946" lon="5.82345">
        <ele>866</ele>
        <time>2021-08-24T10:37:34Z</time>
      </trkpt>
      <trkpt lat="45.42946" lon="5.82345">
        <ele>866</ele>
        <time>2021-08-24T10:37:36Z</time>
      </trkpt>
      <trkpt lat="45.42946" lon="5.82345">
        <ele>866</ele>
        <time>2021-08-24T10:37:37Z</time>
      </trkpt>
      <trkpt lat="45.42946" lon="5.82345">
        <ele>866</ele>
        <time>2021-08-24T10:37:39Z</time>
      </trkpt>
      <trkpt lat="45.42946" lon="5.82345">
        <ele>866</ele>
        <time>2021-08-24T10:37:40Z</time>
      </trkpt>
      <trkpt lat="45.42946" lon="5.82345">
        <ele>866</ele>
        <time>2021-08-24T10:37:42Z</time>
      </trkpt>
      <trkpt lat="45.42946" lon="5.82345">
        <ele>866</ele>
        <time>2021-08-24T10:37:43Z</time>
      </trkpt>
      <trkpt lat="45.42946" lon="5.82345">
        <ele>866</ele>
        <time>2021-08-24T10:37:45Z</time>
      </trkpt>
      <trkpt lat="45.42946" lon="5.82345">
        <ele>865.9</ele>
        <time>2021-08-24T10:37:46Z</time>
      </trkpt>
      <trkpt lat="45.42946" lon="5.82345">
        <ele>865.9</ele>
        <time>2021-08-24T10:37:48Z</time>
      </trkpt>
      <trkpt lat="45.42946" lon="5.82345">
        <ele>865.9</ele>
        <time>2021-08-24T10:37:49Z</time>
      </trkpt>
      <trkpt lat="45.42946" lon="5.82345">
        <ele>865.9</ele>
        <time>2021-08-24T10:37:50Z</time>
      </trkpt>
      <trkpt lat="45.42946" lon="5.82345">
        <ele>865.9</ele>
        <time>2021-08-24T10:37:52Z</time>
      </trkpt>
      <trkpt lat="45.42946" lon="5.82345">
        <ele>865.9</ele>
        <time>2021-08-24T10:37:53Z</time>
      </trkpt>
      <trkpt lat="45.42946" lon="5.82345">
        <ele>865.9</ele>
        <time>2021-08-24T10:37:55Z</time>
      </trkpt>
      <trkpt lat="45.42946" lon="5.82345">
        <ele>865.9</ele>
        <time>2021-08-24T10:37:56Z</time>
      </trkpt>
      <trkpt lat="45.42946" lon="5.82345">
        <ele>865.9</ele>
        <time>2021-08-24T10:37:57Z</time>
      </trkpt>
      <trkpt lat="45.42946" lon="5.82345">
        <ele>865.9</ele>
        <time>2021-08-24T10:37:59Z</time>
      </trkpt>
      <trkpt lat="45.42946" lon="5.82345">
        <ele>865.9</ele>
        <time>2021-08-24T10:38:00Z</time>
      </trkpt>
      <trkpt lat="45.42946" lon="5.82345">
        <ele>865.9</ele>
        <time>2021-08-24T10:38:02Z</time>
      </trkpt>
      <trkpt lat="45.42946" lon="5.82345">
        <ele>865.9</ele>
        <time>2021-08-24T10:38:04Z</time>
      </trkpt>
      <trkpt lat="45.42946" lon="5.82345">
        <ele>865.9</ele>
        <time>2021-08-24T10:38:05Z</time>
      </trkpt>
      <trkpt lat="45.42946" lon="5.82345">
        <ele>865.9</ele>
        <time>2021-08-24T10:38:07Z</time>
      </trkpt>
      <trkpt lat="45.42946" lon="5.82345">
        <ele>865.9</ele>
        <time>2021-08-24T10:38:08Z</time>
      </trkpt>
      <trkpt lat="45.42946" lon="5.82345">
        <ele>865.9</ele>
        <time>2021-08-24T10:38:10Z</time>
      </trkpt>
      <trkpt lat="45.42946" lon="5.82345">
        <ele>865.9</ele>
        <time>2021-08-24T10:38:12Z</time>
      </trkpt>
      <trkpt lat="45.42946" lon="5.82345">
        <ele>865.9</ele>
        <time>2021-08-24T10:38:14Z</time>
      </trkpt>
      <trkpt lat="45.42946" lon="5.82345">
        <ele>865.8</ele>
        <time>2021-08-24T10:38:15Z</time>
      </trkpt>
      <trkpt lat="45.42946" lon="5.82345">
        <ele>865.8</ele>
        <time>2021-08-24T10:38:17Z</time>
      </trkpt>
      <trkpt lat="45.42946" lon="5.82345">
        <ele>865.8</ele>
        <time>2021-08-24T10:38:19Z</time>
      </trkpt>
      <trkpt lat="45.42946" lon="5.82345">
        <ele>865.8</ele>
        <time>2021-08-24T10:38:20Z</time>
      </trkpt>
      <trkpt lat="45.42946" lon="5.82345">
        <ele>865.8</ele>
        <time>2021-08-24T10:38:22Z</time>
      </trkpt>
      <trkpt lat="45.42946" lon="5.82345">
        <ele>865.8</ele>
        <time>2021-08-24T10:38:23Z</time>
      </trkpt>
      <trkpt lat="45.42946" lon="5.82345">
        <ele>865.8</ele>
        <time>2021-08-24T10:38:25Z</time>
      </trkpt>
      <trkpt lat="45.42946" lon="5.82345">
        <ele>865.8</ele>
        <time>2021-08-24T10:38:26Z</time>
      </trkpt>
      <trkpt lat="45.42946" lon="5.82345">
        <ele>865.8</ele>
        <time>2021-08-24T10:38:27Z</time>
      </trkpt>
      <trkpt lat="45.42946" lon="5.82345">
        <ele>865.8</ele>
        <time>2021-08-24T10:38:29Z</time>
      </trkpt>
      <trkpt lat="45.42946" lon="5.82345">
        <ele>865.8</ele>
        <time>2021-08-24T10:38:31Z</time>
      </trkpt>
      <trkpt lat="45.42946" lon="5.82345">
        <ele>865.8</ele>
        <time>2021-08-24T10:38:32Z</time>
      </trkpt>
      <trkpt lat="45.42946" lon="5.82345">
        <ele>865.8</ele>
        <time>2021-08-24T10:38:34Z</time>
      </trkpt>
      <trkpt lat="45.42946" lon="5.82345">
        <ele>865.8</ele>
        <time>2021-08-24T10:38:35Z</time>
      </trkpt>
      <trkpt lat="45.42946" lon="5.82345">
        <ele>865.8</ele>
        <time>2021-08-24T10:38:37Z</time>
      </trkpt>
      <trkpt lat="45.42946" lon="5.82345">
        <ele>865.8</ele>
        <time>2021-08-24T10:38:39Z</time>
      </trkpt>
      <trkpt lat="45.42946" lon="5.82345">
        <ele>865.8</ele>
        <time>2021-08-24T10:38:41Z</time>
      </trkpt>
      <trkpt lat="45.42946" lon="5.82345">
        <ele>865.8</ele>
        <time>2021-08-24T10:38:43Z</time>
      </trkpt>
      <trkpt lat="45.42946" lon="5.82345">
        <ele>865.8</ele>
        <time>2021-08-24T10:38:44Z</time>
      </trkpt>
      <trkpt lat="45.42946" lon="5.82345">
        <ele>865.7</ele>
        <time>2021-08-24T10:38:46Z</time>
      </trkpt>
      <trkpt lat="45.42946" lon="5.82345">
        <ele>865.7</ele>
        <time>2021-08-24T10:38:48Z</time>
      </trkpt>
      <trkpt lat="45.42946" lon="5.82345">
        <ele>865.7</ele>
        <time>2021-08-24T10:38:50Z</time>
      </trkpt>
      <trkpt lat="45.42946" lon="5.82345">
        <ele>865.7</ele>
        <time>2021-08-24T10:38:51Z</time>
      </trkpt>
      <trkpt lat="45.42946" lon="5.82345">
        <ele>865.7</ele>
        <time>2021-08-24T10:38:52Z</time>
      </trkpt>
      <trkpt lat="45.42946" lon="5.82345">
        <ele>865.7</ele>
        <time>2021-08-24T10:38:54Z</time>
      </trkpt>
      <trkpt lat="45.42946" lon="5.82345">
        <ele>865.7</ele>
        <time>2021-08-24T10:38:56Z</time>
      </trkpt>
      <trkpt lat="45.42946" lon="5.82345">
        <ele>865.7</ele>
        <time>2021-08-24T10:38:58Z</time>
      </trkpt>
      <trkpt lat="45.42946" lon="5.82345">
        <ele>865.7</ele>
        <time>2021-08-24T10:38:59Z</time>
      </trkpt>
      <trkpt lat="45.42946" lon="5.82345">
        <ele>865.7</ele>
        <time>2021-08-24T10:39:01Z</time>
      </trkpt>
      <trkpt lat="45.42946" lon="5.82345">
        <ele>865.7</ele>
        <time>2021-08-24T10:39:02Z</time>
      </trkpt>
      <trkpt lat="45.42946" lon="5.82345">
        <ele>865.7</ele>
        <time>2021-08-24T10:39:03Z</time>
      </trkpt>
      <trkpt lat="45.42946" lon="5.82345">
        <ele>865.7</ele>
        <time>2021-08-24T10:39:05Z</time>
      </trkpt>
      <trkpt lat="45.42946" lon="5.82345">
        <ele>865.7</ele>
        <time>2021-08-24T10:39:07Z</time>
      </trkpt>
      <trkpt lat="45.42946" lon="5.82345">
        <ele>865.7</ele>
        <time>2021-08-24T10:39:08Z</time>
      </trkpt>
      <trkpt lat="45.42946" lon="5.82345">
        <ele>865.7</ele>
        <time>2021-08-24T10:39:10Z</time>
      </trkpt>
      <trkpt lat="45.42946" lon="5.82345">
        <ele>865.7</ele>
        <time>2021-08-24T10:39:12Z</time>
      </trkpt>
      <trkpt lat="45.42946" lon="5.82345">
        <ele>865.7</ele>
        <time>2021-08-24T10:39:14Z</time>
      </trkpt>
      <trkpt lat="45.42946" lon="5.82345">
        <ele>865.7</ele>
        <time>2021-08-24T10:39:15Z</time>
      </trkpt>
      <trkpt lat="45.42946" lon="5.82345">
        <ele>865.6</ele>
        <time>2021-08-24T10:39:16Z</time>
      </trkpt>
      <trkpt lat="45.42946" lon="5.82345">
        <ele>865.6</ele>
        <time>2021-08-24T10:39:18Z</time>
      </trkpt>
      <trkpt lat="45.42946" lon="5.82345">
        <ele>865.6</ele>
        <time>2021-08-24T10:39:19Z</time>
      </trkpt>
      <trkpt lat="45.42946" lon="5.82345">
        <ele>865.6</ele>
        <time>2021-08-24T10:39:20Z</time>
      </trkpt>
      <trkpt lat="45.42946" lon="5.82345">
        <ele>865.6</ele>
        <time>2021-08-24T10:39:22Z</time>
      </trkpt>
      <trkpt lat="45.42946" lon="5.82345">
        <ele>865.6</ele>
        <time>2021-08-24T10:39:23Z</time>
      </trkpt>
      <trkpt lat="45.42946" lon="5.82345">
        <ele>865.6</ele>
        <time>2021-08-24T10:39:25Z</time>
      </trkpt>
      <trkpt lat="45.42946" lon="5.82345">
        <ele>865.6</ele>
        <time>2021-08-24T10:39:27Z</time>
      </trkpt>
      <trkpt lat="45.42946" lon="5.82345">
        <ele>865.6</ele>
        <time>2021-08-24T10:39:28Z</time>
      </trkpt>
      <trkpt lat="45.42946" lon="5.82345">
        <ele>865.6</ele>
        <time>2021-08-24T10:39:29Z</time>
      </trkpt>
      <trkpt lat="45.42946" lon="5.82345">
        <ele>865.6</ele>
        <time>2021-08-24T10:39:30Z</time>
      </trkpt>
      <trkpt lat="45.42946" lon="5.82345">
        <ele>865.6</ele>
        <time>2021-08-24T10:39:31Z</time>
      </trkpt>
      <trkpt lat="45.42946" lon="5.82345">
        <ele>865.6</ele>
        <time>2021-08-24T10:39:33Z</time>
      </trkpt>
      <trkpt lat="45.42946" lon="5.82345">
        <ele>865.6</ele>
        <time>2021-08-24T10:39:34Z</time>
      </trkpt>
      <trkpt lat="45.42946" lon="5.82345">
        <ele>865.6</ele>
        <time>2021-08-24T10:39:35Z</time>
      </trkpt>
      <trkpt lat="45.42946" lon="5.82345">
        <ele>865.6</ele>
        <time>2021-08-24T10:39:37Z</time>
      </trkpt>
      <trkpt lat="45.42946" lon="5.82345">
        <ele>865.6</ele>
        <time>2021-08-24T10:39:39Z</time>
      </trkpt>
      <trkpt lat="45.42946" lon="5.82345">
        <ele>865.6</ele>
        <time>2021-08-24T10:39:40Z</time>
      </trkpt>
      <trkpt lat="45.42946" lon="5.82345">
        <ele>865.6</ele>
        <time>2021-08-24T10:39:41Z</time>
      </trkpt>
      <trkpt lat="45.42946" lon="5.82345">
        <ele>865.5</ele>
        <time>2021-08-24T10:39:43Z</time>
      </trkpt>
      <trkpt lat="45.42946" lon="5.82345">
        <ele>865.5</ele>
        <time>2021-08-24T10:39:45Z</time>
      </trkpt>
      <trkpt lat="45.42946" lon="5.82345">
        <ele>865.5</ele>
        <time>2021-08-24T10:39:46Z</time>
      </trkpt>
      <trkpt lat="45.42946" lon="5.82345">
        <ele>865.5</ele>
        <time>2021-08-24T10:39:47Z</time>
      </trkpt>
      <trkpt lat="45.42946" lon="5.82345">
        <ele>865.5</ele>
        <time>2021-08-24T10:39:48Z</time>
      </trkpt>
      <trkpt lat="45.42946" lon="5.82345">
        <ele>865.5</ele>
        <time>2021-08-24T10:39:50Z</time>
      </trkpt>
      <trkpt lat="45.42946" lon="5.82345">
        <ele>865.5</ele>
        <time>2021-08-24T10:39:52Z</time>
      </trkpt>
      <trkpt lat="45.42946" lon="5.82345">
        <ele>865.5</ele>
        <time>2021-08-24T10:39:53Z</time>
      </trkpt>
      <trkpt lat="45.42946" lon="5.82345">
        <ele>865.5</ele>
        <time>2021-08-24T10:39:55Z</time>
      </trkpt>
      <trkpt lat="45.42946" lon="5.82345">
        <ele>865.5</ele>
        <time>2021-08-24T10:39:57Z</time>
      </trkpt>
      <trkpt lat="45.42946" lon="5.82345">
        <ele>865.5</ele>
        <time>2021-08-24T10:39:58Z</time>
      </trkpt>
      <trkpt lat="45.42946" lon="5.82345">
        <ele>865.5</ele>
        <time>2021-08-24T10:40:00Z</time>
      </trkpt>
      <trkpt lat="45.42946" lon="5.82345">
        <ele>865.5</ele>
        <time>2021-08-24T10:40:02Z</time>
      </trkpt>
      <trkpt lat="45.42946" lon="5.82345">
        <ele>865.5</ele>
        <time>2021-08-24T10:40:04Z</time>
      </trkpt>
      <trkpt lat="45.42946" lon="5.82345">
        <ele>865.5</ele>
        <time>2021-08-24T10:40:05Z</time>
      </trkpt>
      <trkpt lat="45.42946" lon="5.82345">
        <ele>865.5</ele>
        <time>2021-08-24T10:40:07Z</time>
      </trkpt>
      <trkpt lat="45.42946" lon="5.82345">
        <ele>865.5</ele>
        <time>2021-08-24T10:40:08Z</time>
      </trkpt>
      <trkpt lat="45.42946" lon="5.82345">
        <ele>865.5</ele>
        <time>2021-08-24T10:40:10Z</time>
      </trkpt>
      <trkpt lat="45.42946" lon="5.82345">
        <ele>865.5</ele>
        <time>2021-08-24T10:40:11Z</time>
      </trkpt>
      <trkpt lat="45.42946" lon="5.82345">
        <ele>865.4</ele>
        <time>2021-08-24T10:40:12Z</time>
      </trkpt>
      <trkpt lat="45.42946" lon="5.82345">
        <ele>865.4</ele>
        <time>2021-08-24T10:40:14Z</time>
      </trkpt>
      <trkpt lat="45.42946" lon="5.82345">
        <ele>865.4</ele>
        <time>2021-08-24T10:40:16Z</time>
      </trkpt>
      <trkpt lat="45.42946" lon="5.82345">
        <ele>865.4</ele>
        <time>2021-08-24T10:40:17Z</time>
      </trkpt>
      <trkpt lat="45.42946" lon="5.82345">
        <ele>865.4</ele>
        <time>2021-08-24T10:40:19Z</time>
      </trkpt>
      <trkpt lat="45.42946" lon="5.82345">
        <ele>865.4</ele>
        <time>2021-08-24T10:40:21Z</time>
      </trkpt>
      <trkpt lat="45.42946" lon="5.82345">
        <ele>865.4</ele>
        <time>2021-08-24T10:40:22Z</time>
      </trkpt>
      <trkpt lat="45.42946" lon="5.82345">
        <ele>865.4</ele>
        <time>2021-08-24T10:40:23Z</time>
      </trkpt>
      <trkpt lat="45.42946" lon="5.82345">
        <ele>865.4</ele>
        <time>2021-08-24T10:40:24Z</time>
      </trkpt>
      <trkpt lat="45.42946" lon="5.82345">
        <ele>865.4</ele>
        <time>2021-08-24T10:40:25Z</time>
      </trkpt>
      <trkpt lat="45.42946" lon="5.82345">
        <ele>865.4</ele>
        <time>2021-08-24T10:40:26Z</time>
      </trkpt>
      <trkpt lat="45.42946" lon="5.82345">
        <ele>865.4</ele>
        <time>2021-08-24T10:40:28Z</time>
      </trkpt>
      <trkpt lat="45.42946" lon="5.82345">
        <ele>865.4</ele>
        <time>2021-08-24T10:40:29Z</time>
      </trkpt>
      <trkpt lat="45.42946" lon="5.82345">
        <ele>865.4</ele>
        <time>2021-08-24T10:40:31Z</time>
      </trkpt>
      <trkpt lat="45.42946" lon="5.82345">
        <ele>865.4</ele>
        <time>2021-08-24T10:40:32Z</time>
      </trkpt>
      <trkpt lat="45.42946" lon="5.82345">
        <ele>865.4</ele>
        <time>2021-08-24T10:40:34Z</time>
      </trkpt>
      <trkpt lat="45.42946" lon="5.82345">
        <ele>865.4</ele>
        <time>2021-08-24T10:40:35Z</time>
      </trkpt>
      <trkpt lat="45.42946" lon="5.82345">
        <ele>865.4</ele>
        <time>2021-08-24T10:40:37Z</time>
      </trkpt>
      <trkpt lat="45.42946" lon="5.82345">
        <ele>865.4</ele>
        <time>2021-08-24T10:40:38Z</time>
      </trkpt>
      <trkpt lat="45.42946" lon="5.82345">
        <ele>865.3</ele>
        <time>2021-08-24T10:40:40Z</time>
      </trkpt>
      <trkpt lat="45.42946" lon="5.82345">
        <ele>865.3</ele>
        <time>2021-08-24T10:40:41Z</time>
      </trkpt>
      <trkpt lat="45.42946" lon="5.82345">
        <ele>865.3</ele>
        <time>2021-08-24T10:40:42Z</time>
      </trkpt>
      <trkpt lat="45.42946" lon="5.82345">
        <ele>865.3</ele>
        <time>2021-08-24T10:40:43Z</time>
      </trkpt>
      <trkpt lat="45.42946" lon="5.82345">
        <ele>865.3</ele>
        <time>2021-08-24T10:40:44Z</time>
      </trkpt>
      <trkpt lat="45.42946" lon="5.82345">
        <ele>865.3</ele>
        <time>2021-08-24T10:40:45Z</time>
      </trkpt>
      <trkpt lat="45.42946" lon="5.82345">
        <ele>865.3</ele>
        <time>2021-08-24T10:40:47Z</time>
      </trkpt>
      <trkpt lat="45.42946" lon="5.82345">
        <ele>865.3</ele>
        <time>2021-08-24T10:40:48Z</time>
      </trkpt>
      <trkpt lat="45.42946" lon="5.82345">
        <ele>865.3</ele>
        <time>2021-08-24T10:40:50Z</time>
      </trkpt>
      <trkpt lat="45.42946" lon="5.82345">
        <ele>865.3</ele>
        <time>2021-08-24T10:40:52Z</time>
      </trkpt>
      <trkpt lat="45.42946" lon="5.82345">
        <ele>865.3</ele>
        <time>2021-08-24T10:40:53Z</time>
      </trkpt>
      <trkpt lat="45.42946" lon="5.82345">
        <ele>865.3</ele>
        <time>2021-08-24T10:40:55Z</time>
      </trkpt>
      <trkpt lat="45.42946" lon="5.82345">
        <ele>865.3</ele>
        <time>2021-08-24T10:40:56Z</time>
      </trkpt>
      <trkpt lat="45.42946" lon="5.82345">
        <ele>865.3</ele>
        <time>2021-08-24T10:40:58Z</time>
      </trkpt>
      <trkpt lat="45.42946" lon="5.82345">
        <ele>865.3</ele>
        <time>2021-08-24T10:40:59Z</time>
      </trkpt>
      <trkpt lat="45.42946" lon="5.82345">
        <ele>865.3</ele>
        <time>2021-08-24T10:41:01Z</time>
      </trkpt>
      <trkpt lat="45.42946" lon="5.82345">
        <ele>865.3</ele>
        <time>2021-08-24T10:41:03Z</time>
      </trkpt>
      <trkpt lat="45.42946" lon="5.82345">
        <ele>865.3</ele>
        <time>2021-08-24T10:41:04Z</time>
      </trkpt>
      <trkpt lat="45.42946" lon="5.82345">
        <ele>865.3</ele>
        <time>2021-08-24T10:41:06Z</time>
      </trkpt>
      <trkpt lat="45.42946" lon="5.82345">
        <ele>865.2</ele>
        <time>2021-08-24T10:41:07Z</time>
      </trkpt>
      <trkpt lat="45.42946" lon="5.82345">
        <ele>865.2</ele>
        <time>2021-08-24T10:41:08Z</time>
      </trkpt>
      <trkpt lat="45.42946" lon="5.82345">
        <ele>865.2</ele>
        <time>2021-08-24T10:41:10Z</time>
      </trkpt>
      <trkpt lat="45.42946" lon="5.82345">
        <ele>865.2</ele>
        <time>2021-08-24T10:41:11Z</time>
      </trkpt>
      <trkpt lat="45.42946" lon="5.82345">
        <ele>865.2</ele>
        <time>2021-08-24T10:41:13Z</time>
      </trkpt>
      <trkpt lat="45.42946" lon="5.82345">
        <ele>865.2</ele>
        <time>2021-08-24T10:41:14Z</time>
      </trkpt>
      <trkpt lat="45.42946" lon="5.82345">
        <ele>865.2</ele>
        <time>2021-08-24T10:41:15Z</time>
      </trkpt>
      <trkpt lat="45.42946" lon="5.82345">
        <ele>865.2</ele>
        <time>2021-08-24T10:41:17Z</time>
      </trkpt>
      <trkpt lat="45.42946" lon="5.82345">
        <ele>865.2</ele>
        <time>2021-08-24T10:41:18Z</time>
      </trkpt>
      <trkpt lat="45.42946" lon="5.82345">
        <ele>865.2</ele>
        <time>2021-08-24T10:41:20Z</time>
      </trkpt>
      <trkpt lat="45.42946" lon="5.82345">
        <ele>865.2</ele>
        <time>2021-08-24T10:41:21Z</time>
      </trkpt>
      <trkpt lat="45.42946" lon="5.82345">
        <ele>865.2</ele>
        <time>2021-08-24T10:41:23Z</time>
      </trkpt>
      <trkpt lat="45.42946" lon="5.82345">
        <ele>865.2</ele>
        <time>2021-08-24T10:41:24Z</time>
      </trkpt>
      <trkpt lat="45.42946" lon="5.82345">
        <ele>865.2</ele>
        <time>2021-08-24T10:41:26Z</time>
      </trkpt>
      <trkpt lat="45.42946" lon="5.82345">
        <ele>865.2</ele>
        <time>2021-08-24T10:41:28Z</time>
      </trkpt>
      <trkpt lat="45.42946" lon="5.82345">
        <ele>865.2</ele>
        <time>2021-08-24T10:41:30Z</time>
      </trkpt>
      <trkpt lat="45.42946" lon="5.82345">
        <ele>865.2</ele>
        <time>2021-08-24T10:41:31Z</time>
      </trkpt>
      <trkpt lat="45.42946" lon="5.82345">
        <ele>865.2</ele>
        <time>2021-08-24T10:41:33Z</time>
      </trkpt>
      <trkpt lat="45.42946" lon="5.82345">
        <ele>865.2</ele>
        <time>2021-08-24T10:41:35Z</time>
      </trkpt>
      <trkpt lat="45.42946" lon="5.82345">
        <ele>865.1</ele>
        <time>2021-08-24T10:41:36Z</time>
      </trkpt>
      <trkpt lat="45.42946" lon="5.82345">
        <ele>865.1</ele>
        <time>2021-08-24T10:41:37Z</time>
      </trkpt>
      <trkpt lat="45.42946" lon="5.82345">
        <ele>865.1</ele>
        <time>2021-08-24T10:41:38Z</time>
      </trkpt>
      <trkpt lat="45.42946" lon="5.82345">
        <ele>865.1</ele>
        <time>2021-08-24T10:41:39Z</time>
      </trkpt>
      <trkpt lat="45.42946" lon="5.82345">
        <ele>865.1</ele>
        <time>2021-08-24T10:41:40Z</time>
      </trkpt>
      <trkpt lat="45.42943" lon="5.82349">
        <ele>862.9</ele>
        <time>2021-08-24T10:41:42Z</time>
      </trkpt>
      <trkpt lat="45.42941" lon="5.82352">
        <ele>861.2</ele>
        <time>2021-08-24T10:41:43Z</time>
      </trkpt>
      <trkpt lat="45.4294" lon="5.82354">
        <ele>860.6</ele>
        <time>2021-08-24T10:41:45Z</time>
      </trkpt>
      <trkpt lat="45.4294" lon="5.82354">
        <ele>860.6</ele>
        <time>2021-08-24T10:41:46Z</time>
      </trkpt>
      <trkpt lat="45.4294" lon="5.82354">
        <ele>860.6</ele>
        <time>2021-08-24T10:41:48Z</time>
      </trkpt>
      <trkpt lat="45.4294" lon="5.82354">
        <ele>860.6</ele>
        <time>2021-08-24T10:41:49Z</time>
      </trkpt>
      <trkpt lat="45.4294" lon="5.82354">
        <ele>860.6</ele>
        <time>2021-08-24T10:41:50Z</time>
      </trkpt>
      <trkpt lat="45.4294" lon="5.82354">
        <ele>860.6</ele>
        <time>2021-08-24T10:41:52Z</time>
      </trkpt>
      <trkpt lat="45.4294" lon="5.82354">
        <ele>860.6</ele>
        <time>2021-08-24T10:41:53Z</time>
      </trkpt>
      <trkpt lat="45.4294" lon="5.82354">
        <ele>860.6</ele>
        <time>2021-08-24T10:41:54Z</time>
      </trkpt>
      <trkpt lat="45.4294" lon="5.82354">
        <ele>860.6</ele>
        <time>2021-08-24T10:41:55Z</time>
      </trkpt>
      <trkpt lat="45.4294" lon="5.82354">
        <ele>860.6</ele>
        <time>2021-08-24T10:41:56Z</time>
      </trkpt>
      <trkpt lat="45.4294" lon="5.82354">
        <ele>860.6</ele>
        <time>2021-08-24T10:41:58Z</time>
      </trkpt>
      <trkpt lat="45.4294" lon="5.82354">
        <ele>860.6</ele>
        <time>2021-08-24T10:42:00Z</time>
      </trkpt>
      <trkpt lat="45.4294" lon="5.82354">
        <ele>860.6</ele>
        <time>2021-08-24T10:42:01Z</time>
      </trkpt>
      <trkpt lat="45.4294" lon="5.82354">
        <ele>860.6</ele>
        <time>2021-08-24T10:42:03Z</time>
      </trkpt>
      <trkpt lat="45.4294" lon="5.82354">
        <ele>860.6</ele>
        <time>2021-08-24T10:42:05Z</time>
      </trkpt>
      <trkpt lat="45.4294" lon="5.82354">
        <ele>860.6</ele>
        <time>2021-08-24T10:42:07Z</time>
      </trkpt>
      <trkpt lat="45.4294" lon="5.82354">
        <ele>860.6</ele>
        <time>2021-08-24T10:42:08Z</time>
      </trkpt>
      <trkpt lat="45.4294" lon="5.82354">
        <ele>860.6</ele>
        <time>2021-08-24T10:42:10Z</time>
      </trkpt>
      <trkpt lat="45.4294" lon="5.82354">
        <ele>860.6</ele>
        <time>2021-08-24T10:42:12Z</time>
      </trkpt>
      <trkpt lat="45.4294" lon="5.82354">
        <ele>860.5</ele>
        <time>2021-08-24T10:42:13Z</time>
      </trkpt>
      <trkpt lat="45.4294" lon="5.82354">
        <ele>860.5</ele>
        <time>2021-08-24T10:42:14Z</time>
      </trkpt>
      <trkpt lat="45.4294" lon="5.82354">
        <ele>860.5</ele>
        <time>2021-08-24T10:42:16Z</time>
      </trkpt>
      <trkpt lat="45.4294" lon="5.82354">
        <ele>860.5</ele>
        <time>2021-08-24T10:42:17Z</time>
      </trkpt>
      <trkpt lat="45.4294" lon="5.82354">
        <ele>860.5</ele>
        <time>2021-08-24T10:42:19Z</time>
      </trkpt>
      <trkpt lat="45.4294" lon="5.82354">
        <ele>860.5</ele>
        <time>2021-08-24T10:42:20Z</time>
      </trkpt>
      <trkpt lat="45.4294" lon="5.82354">
        <ele>860.5</ele>
        <time>2021-08-24T10:42:22Z</time>
      </trkpt>
      <trkpt lat="45.4294" lon="5.82354">
        <ele>860.5</ele>
        <time>2021-08-24T10:42:23Z</time>
      </trkpt>
      <trkpt lat="45.4294" lon="5.82354">
        <ele>860.5</ele>
        <time>2021-08-24T10:42:24Z</time>
      </trkpt>
      <trkpt lat="45.4294" lon="5.82354">
        <ele>860.5</ele>
        <time>2021-08-24T10:42:26Z</time>
      </trkpt>
      <trkpt lat="45.4294" lon="5.82354">
        <ele>860.5</ele>
        <time>2021-08-24T10:42:27Z</time>
      </trkpt>
      <trkpt lat="45.4294" lon="5.82354">
        <ele>860.5</ele>
        <time>2021-08-24T10:42:29Z</time>
      </trkpt>
      <trkpt lat="45.4294" lon="5.82354">
        <ele>860.5</ele>
        <time>2021-08-24T10:42:31Z</time>
      </trkpt>
      <trkpt lat="45.4294" lon="5.82354">
        <ele>860.5</ele>
        <time>2021-08-24T10:42:32Z</time>
      </trkpt>
      <trkpt lat="45.4294" lon="5.82354">
        <ele>860.5</ele>
        <time>2021-08-24T10:42:34Z</time>
      </trkpt>
      <trkpt lat="45.4294" lon="5.82354">
        <ele>860.5</ele>
        <time>2021-08-24T10:42:35Z</time>
      </trkpt>
      <trkpt lat="45.4294" lon="5.82354">
        <ele>860.5</ele>
        <time>2021-08-24T10:42:37Z</time>
      </trkpt>
      <trkpt lat="45.4294" lon="5.82354">
        <ele>860.5</ele>
        <time>2021-08-24T10:42:38Z</time>
      </trkpt>
      <trkpt lat="45.4294" lon="5.82354">
        <ele>860.5</ele>
        <time>2021-08-24T10:42:40Z</time>
      </trkpt>
      <trkpt lat="45.4294" lon="5.82354">
        <ele>860.4</ele>
        <time>2021-08-24T10:42:41Z</time>
      </trkpt>
      <trkpt lat="45.4294" lon="5.82354">
        <ele>860.4</ele>
        <time>2021-08-24T10:42:42Z</time>
      </trkpt>
      <trkpt lat="45.4294" lon="5.82354">
        <ele>860.4</ele>
        <time>2021-08-24T10:42:44Z</time>
      </trkpt>
      <trkpt lat="45.4294" lon="5.82354">
        <ele>860.4</ele>
        <time>2021-08-24T10:42:45Z</time>
      </trkpt>
      <trkpt lat="45.4294" lon="5.82354">
        <ele>860.4</ele>
        <time>2021-08-24T10:42:46Z</time>
      </trkpt>
      <trkpt lat="45.4294" lon="5.82354">
        <ele>860.4</ele>
        <time>2021-08-24T10:42:47Z</time>
      </trkpt>
      <trkpt lat="45.4294" lon="5.82354">
        <ele>860.4</ele>
        <time>2021-08-24T10:42:48Z</time>
      </trkpt>
      <trkpt lat="45.4294" lon="5.82354">
        <ele>860.4</ele>
        <time>2021-08-24T10:42:50Z</time>
      </trkpt>
      <trkpt lat="45.4294" lon="5.82354">
        <ele>860.4</ele>
        <time>2021-08-24T10:42:52Z</time>
      </trkpt>
      <trkpt lat="45.4294" lon="5.82354">
        <ele>860.4</ele>
        <time>2021-08-24T10:42:53Z</time>
      </trkpt>
      <trkpt lat="45.4294" lon="5.82354">
        <ele>860.5</ele>
        <time>2021-08-24T10:42:55Z</time>
      </trkpt>
      <trkpt lat="45.4294" lon="5.82354">
        <ele>860.5</ele>
        <time>2021-08-24T10:42:56Z</time>
      </trkpt>
      <trkpt lat="45.4294" lon="5.82354">
        <ele>860.5</ele>
        <time>2021-08-24T10:42:58Z</time>
      </trkpt>
      <trkpt lat="45.4294" lon="5.82354">
        <ele>860.6</ele>
        <time>2021-08-24T10:43:00Z</time>
      </trkpt>
      <trkpt lat="45.4294" lon="5.82354">
        <ele>860.6</ele>
        <time>2021-08-24T10:43:02Z</time>
      </trkpt>
      <trkpt lat="45.4294" lon="5.82354">
        <ele>860.6</ele>
        <time>2021-08-24T10:43:03Z</time>
      </trkpt>
      <trkpt lat="45.4294" lon="5.82354">
        <ele>860.6</ele>
        <time>2021-08-24T10:43:05Z</time>
      </trkpt>
      <trkpt lat="45.4294" lon="5.82354">
        <ele>860.7</ele>
        <time>2021-08-24T10:43:06Z</time>
      </trkpt>
      <trkpt lat="45.4294" lon="5.82354">
        <ele>860.7</ele>
        <time>2021-08-24T10:43:07Z</time>
      </trkpt>
      <trkpt lat="45.4294" lon="5.82354">
        <ele>860.7</ele>
        <time>2021-08-24T10:43:09Z</time>
      </trkpt>
      <trkpt lat="45.4294" lon="5.82354">
        <ele>860.7</ele>
        <time>2021-08-24T10:43:10Z</time>
      </trkpt>
      <trkpt lat="45.4294" lon="5.82354">
        <ele>860.7</ele>
        <time>2021-08-24T10:43:11Z</time>
      </trkpt>
      <trkpt lat="45.4294" lon="5.82354">
        <ele>860.7</ele>
        <time>2021-08-24T10:43:12Z</time>
      </trkpt>
      <trkpt lat="45.4294" lon="5.82354">
        <ele>860.8</ele>
        <time>2021-08-24T10:43:14Z</time>
      </trkpt>
      <trkpt lat="45.4294" lon="5.82354">
        <ele>860.8</ele>
        <time>2021-08-24T10:43:15Z</time>
      </trkpt>
      <trkpt lat="45.4294" lon="5.82354">
        <ele>860.8</ele>
        <time>2021-08-24T10:43:16Z</time>
      </trkpt>
      <trkpt lat="45.4294" lon="5.82354">
        <ele>860.9</ele>
        <time>2021-08-24T10:43:17Z</time>
      </trkpt>
      <trkpt lat="45.4294" lon="5.82354">
        <ele>860.9</ele>
        <time>2021-08-24T10:43:19Z</time>
      </trkpt>
      <trkpt lat="45.4294" lon="5.82354">
        <ele>860.9</ele>
        <time>2021-08-24T10:43:21Z</time>
      </trkpt>
      <trkpt lat="45.4294" lon="5.82354">
        <ele>861</ele>
        <time>2021-08-24T10:43:22Z</time>
      </trkpt>
      <trkpt lat="45.4294" lon="5.82354">
        <ele>861</ele>
        <time>2021-08-24T10:43:23Z</time>
      </trkpt>
      <trkpt lat="45.4294" lon="5.82354">
        <ele>861</ele>
        <time>2021-08-24T10:43:24Z</time>
      </trkpt>
      <trkpt lat="45.4294" lon="5.82354">
        <ele>861.1</ele>
        <time>2021-08-24T10:43:26Z</time>
      </trkpt>
      <trkpt lat="45.4294" lon="5.82354">
        <ele>861.1</ele>
        <time>2021-08-24T10:43:27Z</time>
      </trkpt>
      <trkpt lat="45.4294" lon="5.82354">
        <ele>861.1</ele>
        <time>2021-08-24T10:43:29Z</time>
      </trkpt>
      <trkpt lat="45.4294" lon="5.82354">
        <ele>861.2</ele>
        <time>2021-08-24T10:43:30Z</time>
      </trkpt>
      <trkpt lat="45.4294" lon="5.82354">
        <ele>861.2</ele>
        <time>2021-08-24T10:43:31Z</time>
      </trkpt>
      <trkpt lat="45.4294" lon="5.82354">
        <ele>861.2</ele>
        <time>2021-08-24T10:43:33Z</time>
      </trkpt>
      <trkpt lat="45.4294" lon="5.82354">
        <ele>861.2</ele>
        <time>2021-08-24T10:43:34Z</time>
      </trkpt>
      <trkpt lat="45.4294" lon="5.82354">
        <ele>861.2</ele>
        <time>2021-08-24T10:43:35Z</time>
      </trkpt>
      <trkpt lat="45.4294" lon="5.82354">
        <ele>861.3</ele>
        <time>2021-08-24T10:43:37Z</time>
      </trkpt>
      <trkpt lat="45.4294" lon="5.82354">
        <ele>861.3</ele>
        <time>2021-08-24T10:43:39Z</time>
      </trkpt>
      <trkpt lat="45.4294" lon="5.82354">
        <ele>861.3</ele>
        <time>2021-08-24T10:43:40Z</time>
      </trkpt>
      <trkpt lat="45.4294" lon="5.82354">
        <ele>861.4</ele>
        <time>2021-08-24T10:43:41Z</time>
      </trkpt>
      <trkpt lat="45.4294" lon="5.82354">
        <ele>861.4</ele>
        <time>2021-08-24T10:43:42Z</time>
      </trkpt>
      <trkpt lat="45.4294" lon="5.82354">
        <ele>861.4</ele>
        <time>2021-08-24T10:43:44Z</time>
      </trkpt>
      <trkpt lat="45.4294" lon="5.82354">
        <ele>861.5</ele>
        <time>2021-08-24T10:43:46Z</time>
      </trkpt>
      <trkpt lat="45.4294" lon="5.82354">
        <ele>861.5</ele>
        <time>2021-08-24T10:43:47Z</time>
      </trkpt>
      <trkpt lat="45.4294" lon="5.82354">
        <ele>861.5</ele>
        <time>2021-08-24T10:43:49Z</time>
      </trkpt>
      <trkpt lat="45.4294" lon="5.82354">
        <ele>861.6</ele>
        <time>2021-08-24T10:43:51Z</time>
      </trkpt>
      <trkpt lat="45.4294" lon="5.82354">
        <ele>861.6</ele>
        <time>2021-08-24T10:43:52Z</time>
      </trkpt>
      <trkpt lat="45.4294" lon="5.82354">
        <ele>861.6</ele>
        <time>2021-08-24T10:43:53Z</time>
      </trkpt>
      <trkpt lat="45.4294" lon="5.82354">
        <ele>861.7</ele>
        <time>2021-08-24T10:43:55Z</time>
      </trkpt>
      <trkpt lat="45.4294" lon="5.82354">
        <ele>861.7</ele>
        <time>2021-08-24T10:43:56Z</time>
      </trkpt>
      <trkpt lat="45.4294" lon="5.82354">
        <ele>861.7</ele>
        <time>2021-08-24T10:43:58Z</time>
      </trkpt>
      <trkpt lat="45.4294" lon="5.82354">
        <ele>861.8</ele>
        <time>2021-08-24T10:43:59Z</time>
      </trkpt>
      <trkpt lat="45.4294" lon="5.82354">
        <ele>861.8</ele>
        <time>2021-08-24T10:44:01Z</time>
      </trkpt>
      <trkpt lat="45.4294" lon="5.82354">
        <ele>861.8</ele>
        <time>2021-08-24T10:44:02Z</time>
      </trkpt>
      <trkpt lat="45.4294" lon="5.82354">
        <ele>861.8</ele>
        <time>2021-08-24T10:44:04Z</time>
      </trkpt>
      <trkpt lat="45.4294" lon="5.82354">
        <ele>861.8</ele>
        <time>2021-08-24T10:44:05Z</time>
      </trkpt>
      <trkpt lat="45.4294" lon="5.82354">
        <ele>861.9</ele>
        <time>2021-08-24T10:44:07Z</time>
      </trkpt>
      <trkpt lat="45.4294" lon="5.82354">
        <ele>861.9</ele>
        <time>2021-08-24T10:44:08Z</time>
      </trkpt>
      <trkpt lat="45.4294" lon="5.82354">
        <ele>861.9</ele>
        <time>2021-08-24T10:44:10Z</time>
      </trkpt>
      <trkpt lat="45.4294" lon="5.82354">
        <ele>862</ele>
        <time>2021-08-24T10:44:11Z</time>
      </trkpt>
      <trkpt lat="45.4294" lon="5.82354">
        <ele>862</ele>
        <time>2021-08-24T10:44:13Z</time>
      </trkpt>
      <trkpt lat="45.4294" lon="5.82354">
        <ele>862</ele>
        <time>2021-08-24T10:44:15Z</time>
      </trkpt>
      <trkpt lat="45.4294" lon="5.82354">
        <ele>862.1</ele>
        <time>2021-08-24T10:44:17Z</time>
      </trkpt>
      <trkpt lat="45.4294" lon="5.82354">
        <ele>862.1</ele>
        <time>2021-08-24T10:44:18Z</time>
      </trkpt>
      <trkpt lat="45.4294" lon="5.82354">
        <ele>862.1</ele>
        <time>2021-08-24T10:44:19Z</time>
      </trkpt>
      <trkpt lat="45.4294" lon="5.82354">
        <ele>862.2</ele>
        <time>2021-08-24T10:44:20Z</time>
      </trkpt>
      <trkpt lat="45.4294" lon="5.82354">
        <ele>862.2</ele>
        <time>2021-08-24T10:44:22Z</time>
      </trkpt>
      <trkpt lat="45.4294" lon="5.82354">
        <ele>862.2</ele>
        <time>2021-08-24T10:44:23Z</time>
      </trkpt>
      <trkpt lat="45.4294" lon="5.82354">
        <ele>862.3</ele>
        <time>2021-08-24T10:44:25Z</time>
      </trkpt>
      <trkpt lat="45.4294" lon="5.82354">
        <ele>862.3</ele>
        <time>2021-08-24T10:44:26Z</time>
      </trkpt>
      <trkpt lat="45.4294" lon="5.82354">
        <ele>862.3</ele>
        <time>2021-08-24T10:44:28Z</time>
      </trkpt>
      <trkpt lat="45.4294" lon="5.82354">
        <ele>862.4</ele>
        <time>2021-08-24T10:44:29Z</time>
      </trkpt>
      <trkpt lat="45.4294" lon="5.82354">
        <ele>862.4</ele>
        <time>2021-08-24T10:44:30Z</time>
      </trkpt>
      <trkpt lat="45.4294" lon="5.82354">
        <ele>862.4</ele>
        <time>2021-08-24T10:44:32Z</time>
      </trkpt>
      <trkpt lat="45.4294" lon="5.82354">
        <ele>862.5</ele>
        <time>2021-08-24T10:44:34Z</time>
      </trkpt>
      <trkpt lat="45.4294" lon="5.82354">
        <ele>862.5</ele>
        <time>2021-08-24T10:44:35Z</time>
      </trkpt>
      <trkpt lat="45.4294" lon="5.82354">
        <ele>862.5</ele>
        <time>2021-08-24T10:44:37Z</time>
      </trkpt>
      <trkpt lat="45.4294" lon="5.82354">
        <ele>862.6</ele>
        <time>2021-08-24T10:44:39Z</time>
      </trkpt>
      <trkpt lat="45.4294" lon="5.82354">
        <ele>862.6</ele>
        <time>2021-08-24T10:44:40Z</time>
      </trkpt>
      <trkpt lat="45.4294" lon="5.82354">
        <ele>862.6</ele>
        <time>2021-08-24T10:44:42Z</time>
      </trkpt>
      <trkpt lat="45.4294" lon="5.82354">
        <ele>862.7</ele>
        <time>2021-08-24T10:44:44Z</time>
      </trkpt>
      <trkpt lat="45.4294" lon="5.82354">
        <ele>862.7</ele>
        <time>2021-08-24T10:44:46Z</time>
      </trkpt>
      <trkpt lat="45.4294" lon="5.82354">
        <ele>862.7</ele>
        <time>2021-08-24T10:44:47Z</time>
      </trkpt>
      <trkpt lat="45.4294" lon="5.82354">
        <ele>862.8</ele>
        <time>2021-08-24T10:44:49Z</time>
      </trkpt>
      <trkpt lat="45.4294" lon="5.82354">
        <ele>862.8</ele>
        <time>2021-08-24T10:44:50Z</time>
      </trkpt>
      <trkpt lat="45.4294" lon="5.82354">
        <ele>862.8</ele>
        <time>2021-08-24T10:44:52Z</time>
      </trkpt>
      <trkpt lat="45.4294" lon="5.82354">
        <ele>862.9</ele>
        <time>2021-08-24T10:44:53Z</time>
      </trkpt>
      <trkpt lat="45.4294" lon="5.82354">
        <ele>862.9</ele>
        <time>2021-08-24T10:44:54Z</time>
      </trkpt>
      <trkpt lat="45.4294" lon="5.82354">
        <ele>862.9</ele>
        <time>2021-08-24T10:44:55Z</time>
      </trkpt>
      <trkpt lat="45.4294" lon="5.82354">
        <ele>863</ele>
        <time>2021-08-24T10:44:56Z</time>
      </trkpt>
      <trkpt lat="45.4294" lon="5.82354">
        <ele>863</ele>
        <time>2021-08-24T10:44:58Z</time>
      </trkpt>
      <trkpt lat="45.4294" lon="5.82354">
        <ele>863</ele>
        <time>2021-08-24T10:45:00Z</time>
      </trkpt>
      <trkpt lat="45.4294" lon="5.82354">
        <ele>863.1</ele>
        <time>2021-08-24T10:45:01Z</time>
      </trkpt>
      <trkpt lat="45.4294" lon="5.82354">
        <ele>863.1</ele>
        <time>2021-08-24T10:45:02Z</time>
      </trkpt>
      <trkpt lat="45.4294" lon="5.82354">
        <ele>863.1</ele>
        <time>2021-08-24T10:45:04Z</time>
      </trkpt>
      <trkpt lat="45.4294" lon="5.82354">
        <ele>863.2</ele>
        <time>2021-08-24T10:45:06Z</time>
      </trkpt>
      <trkpt lat="45.4294" lon="5.82354">
        <ele>863.2</ele>
        <time>2021-08-24T10:45:07Z</time>
      </trkpt>
      <trkpt lat="45.4294" lon="5.82354">
        <ele>863.2</ele>
        <time>2021-08-24T10:45:08Z</time>
      </trkpt>
      <trkpt lat="45.4294" lon="5.82354">
        <ele>863.3</ele>
        <time>2021-08-24T10:45:10Z</time>
      </trkpt>
      <trkpt lat="45.4294" lon="5.82354">
        <ele>863.3</ele>
        <time>2021-08-24T10:45:11Z</time>
      </trkpt>
      <trkpt lat="45.4294" lon="5.82354">
        <ele>863.4</ele>
        <time>2021-08-24T10:45:12Z</time>
      </trkpt>
      <trkpt lat="45.4294" lon="5.82354">
        <ele>863.4</ele>
        <time>2021-08-24T10:45:14Z</time>
      </trkpt>
      <trkpt lat="45.4294" lon="5.82354">
        <ele>863.4</ele>
        <time>2021-08-24T10:45:16Z</time>
      </trkpt>
      <trkpt lat="45.4294" lon="5.82354">
        <ele>863.5</ele>
        <time>2021-08-24T10:45:17Z</time>
      </trkpt>
      <trkpt lat="45.4294" lon="5.82354">
        <ele>863.5</ele>
        <time>2021-08-24T10:45:19Z</time>
      </trkpt>
      <trkpt lat="45.4294" lon="5.82354">
        <ele>863.5</ele>
        <time>2021-08-24T10:45:20Z</time>
      </trkpt>
      <trkpt lat="45.4294" lon="5.82354">
        <ele>863.5</ele>
        <time>2021-08-24T10:45:21Z</time>
      </trkpt>
      <trkpt lat="45.4294" lon="5.82354">
        <ele>863.5</ele>
        <time>2021-08-24T10:45:22Z</time>
      </trkpt>
      <trkpt lat="45.4294" lon="5.82354">
        <ele>863.5</ele>
        <time>2021-08-24T10:45:24Z</time>
      </trkpt>
      <trkpt lat="45.4294" lon="5.82354">
        <ele>863.5</ele>
        <time>2021-08-24T10:45:25Z</time>
      </trkpt>
      <trkpt lat="45.4294" lon="5.82354">
        <ele>863.5</ele>
        <time>2021-08-24T10:45:27Z</time>
      </trkpt>
      <trkpt lat="45.4294" lon="5.82354">
        <ele>863.5</ele>
        <time>2021-08-24T10:45:28Z</time>
      </trkpt>
      <trkpt lat="45.4294" lon="5.82354">
        <ele>863.5</ele>
        <time>2021-08-24T10:45:29Z</time>
      </trkpt>
      <trkpt lat="45.4294" lon="5.82354">
        <ele>863.5</ele>
        <time>2021-08-24T10:45:31Z</time>
      </trkpt>
      <trkpt lat="45.4294" lon="5.82354">
        <ele>863.5</ele>
        <time>2021-08-24T10:45:32Z</time>
      </trkpt>
      <trkpt lat="45.4294" lon="5.82354">
        <ele>863.5</ele>
        <time>2021-08-24T10:45:33Z</time>
      </trkpt>
      <trkpt lat="45.4294" lon="5.82354">
        <ele>863.5</ele>
        <time>2021-08-24T10:45:35Z</time>
      </trkpt>
      <trkpt lat="45.4294" lon="5.82354">
        <ele>863.5</ele>
        <time>2021-08-24T10:45:37Z</time>
      </trkpt>
      <trkpt lat="45.4294" lon="5.82354">
        <ele>863.5</ele>
        <time>2021-08-24T10:45:38Z</time>
      </trkpt>
      <trkpt lat="45.4294" lon="5.82354">
        <ele>863.5</ele>
        <time>2021-08-24T10:45:39Z</time>
      </trkpt>
      <trkpt lat="45.4294" lon="5.82354">
        <ele>863.5</ele>
        <time>2021-08-24T10:45:41Z</time>
      </trkpt>
      <trkpt lat="45.4294" lon="5.82354">
        <ele>863.5</ele>
        <time>2021-08-24T10:45:42Z</time>
      </trkpt>
      <trkpt lat="45.4294" lon="5.82354">
        <ele>863.5</ele>
        <time>2021-08-24T10:45:43Z</time>
      </trkpt>
      <trkpt lat="45.4294" lon="5.82354">
        <ele>863.5</ele>
        <time>2021-08-24T10:45:45Z</time>
      </trkpt>
      <trkpt lat="45.4294" lon="5.82354">
        <ele>863.5</ele>
        <time>2021-08-24T10:45:46Z</time>
      </trkpt>
      <trkpt lat="45.4294" lon="5.82354">
        <ele>863.5</ele>
        <time>2021-08-24T10:45:47Z</time>
      </trkpt>
      <trkpt lat="45.4294" lon="5.82354">
        <ele>863.5</ele>
        <time>2021-08-24T10:45:49Z</time>
      </trkpt>
      <trkpt lat="45.4294" lon="5.82354">
        <ele>863.5</ele>
        <time>2021-08-24T10:45:50Z</time>
      </trkpt>
      <trkpt lat="45.4294" lon="5.82354">
        <ele>863.5</ele>
        <time>2021-08-24T10:45:52Z</time>
      </trkpt>
      <trkpt lat="45.4294" lon="5.82354">
        <ele>863.5</ele>
        <time>2021-08-24T10:45:54Z</time>
      </trkpt>
      <trkpt lat="45.4294" lon="5.82354">
        <ele>863.5</ele>
        <time>2021-08-24T10:45:56Z</time>
      </trkpt>
      <trkpt lat="45.4294" lon="5.82354">
        <ele>863.5</ele>
        <time>2021-08-24T10:45:57Z</time>
      </trkpt>
      <trkpt lat="45.4294" lon="5.82354">
        <ele>863.5</ele>
        <time>2021-08-24T10:45:59Z</time>
      </trkpt>
      <trkpt lat="45.4294" lon="5.82354">
        <ele>863.5</ele>
        <time>2021-08-24T10:46:00Z</time>
      </trkpt>
      <trkpt lat="45.4294" lon="5.82354">
        <ele>863.5</ele>
        <time>2021-08-24T10:46:02Z</time>
      </trkpt>
      <trkpt lat="45.4294" lon="5.82354">
        <ele>863.5</ele>
        <time>2021-08-24T10:46:03Z</time>
      </trkpt>
      <trkpt lat="45.4294" lon="5.82354">
        <ele>863.5</ele>
        <time>2021-08-24T10:46:04Z</time>
      </trkpt>
      <trkpt lat="45.4294" lon="5.82354">
        <ele>863.5</ele>
        <time>2021-08-24T10:46:05Z</time>
      </trkpt>
      <trkpt lat="45.4294" lon="5.82354">
        <ele>863.5</ele>
        <time>2021-08-24T10:46:07Z</time>
      </trkpt>
      <trkpt lat="45.4294" lon="5.82354">
        <ele>863.5</ele>
        <time>2021-08-24T10:46:08Z</time>
      </trkpt>
      <trkpt lat="45.4294" lon="5.82354">
        <ele>863.5</ele>
        <time>2021-08-24T10:46:10Z</time>
      </trkpt>
      <trkpt lat="45.4294" lon="5.82354">
        <ele>863.5</ele>
        <time>2021-08-24T10:46:12Z</time>
      </trkpt>
      <trkpt lat="45.4294" lon="5.82354">
        <ele>863.5</ele>
        <time>2021-08-24T10:46:13Z</time>
      </trkpt>
      <trkpt lat="45.4294" lon="5.82354">
        <ele>863.5</ele>
        <time>2021-08-24T10:46:15Z</time>
      </trkpt>
      <trkpt lat="45.42941" lon="5.82352">
        <ele>863.5</ele>
        <time>2021-08-24T10:46:16Z</time>
      </trkpt>
      <trkpt lat="45.42943" lon="5.8235">
        <ele>863.3</ele>
        <time>2021-08-24T10:46:18Z</time>
      </trkpt>
      <trkpt lat="45.42943" lon="5.8235">
        <ele>863.3</ele>
        <time>2021-08-24T10:46:19Z</time>
      </trkpt>
      <trkpt lat="45.42944" lon="5.8235">
        <ele>863.2</ele>
        <time>2021-08-24T10:46:21Z</time>
      </trkpt>
      <trkpt lat="45.42944" lon="5.82351">
        <ele>863.2</ele>
        <time>2021-08-24T10:46:22Z</time>
      </trkpt>
      <trkpt lat="45.42945" lon="5.82351">
        <ele>863.2</ele>
        <time>2021-08-24T10:46:23Z</time>
      </trkpt>
      <trkpt lat="45.42945" lon="5.82351">
        <ele>863.2</ele>
        <time>2021-08-24T10:46:25Z</time>
      </trkpt>
      <trkpt lat="45.42945" lon="5.82351">
        <ele>863.1</ele>
        <time>2021-08-24T10:46:27Z</time>
      </trkpt>
      <trkpt lat="45.42945" lon="5.82351">
        <ele>863.1</ele>
        <time>2021-08-24T10:46:28Z</time>
      </trkpt>
      <trkpt lat="45.42945" lon="5.82351">
        <ele>863.1</ele>
        <time>2021-08-24T10:46:29Z</time>
      </trkpt>
      <trkpt lat="45.42945" lon="5.82351">
        <ele>863.1</ele>
        <time>2021-08-24T10:46:31Z</time>
      </trkpt>
      <trkpt lat="45.42946" lon="5.82349">
        <ele>863</ele>
        <time>2021-08-24T10:46:32Z</time>
      </trkpt>
      <trkpt lat="45.42946" lon="5.82347">
        <ele>862.9</ele>
        <time>2021-08-24T10:46:33Z</time>
      </trkpt>
      <trkpt lat="45.42947" lon="5.82344">
        <ele>862.8</ele>
        <time>2021-08-24T10:46:35Z</time>
      </trkpt>
      <trkpt lat="45.42947" lon="5.82343">
        <ele>862.8</ele>
        <time>2021-08-24T10:46:36Z</time>
      </trkpt>
      <trkpt lat="45.42948" lon="5.82341">
        <ele>862.6</ele>
        <time>2021-08-24T10:46:38Z</time>
      </trkpt>
      <trkpt lat="45.42947" lon="5.82339">
        <ele>862.5</ele>
        <time>2021-08-24T10:46:40Z</time>
      </trkpt>
      <trkpt lat="45.42947" lon="5.82337">
        <ele>862.5</ele>
        <time>2021-08-24T10:46:41Z</time>
      </trkpt>
      <trkpt lat="45.42931" lon="5.82383">
        <ele>859.9</ele>
        <time>2021-08-24T10:57:15Z</time>
      </trkpt>
      <trkpt lat="45.42931" lon="5.82385">
        <ele>859.9</ele>
        <time>2021-08-24T10:57:16Z</time>
      </trkpt>
      <trkpt lat="45.42931" lon="5.82387">
        <ele>859.8</ele>
        <time>2021-08-24T10:57:17Z</time>
      </trkpt>
      <trkpt lat="45.4293" lon="5.82388">
        <ele>859.7</ele>
        <time>2021-08-24T10:57:18Z</time>
      </trkpt>
      <trkpt lat="45.4293" lon="5.8239">
        <ele>859.7</ele>
        <time>2021-08-24T10:57:20Z</time>
      </trkpt>
      <trkpt lat="45.4293" lon="5.82391">
        <ele>859.8</ele>
        <time>2021-08-24T10:57:21Z</time>
      </trkpt>
      <trkpt lat="45.4293" lon="5.82392">
        <ele>859.9</ele>
        <time>2021-08-24T10:57:22Z</time>
      </trkpt>
      <trkpt lat="45.4293" lon="5.82392">
        <ele>860</ele>
        <time>2021-08-24T10:57:23Z</time>
      </trkpt>
      <trkpt lat="45.4293" lon="5.82393">
        <ele>860.1</ele>
        <time>2021-08-24T10:57:25Z</time>
      </trkpt>
      <trkpt lat="45.4293" lon="5.82394">
        <ele>860.2</ele>
        <time>2021-08-24T10:57:26Z</time>
      </trkpt>
      <trkpt lat="45.42931" lon="5.82395">
        <ele>860.4</ele>
        <time>2021-08-24T10:57:28Z</time>
      </trkpt>
      <trkpt lat="45.42931" lon="5.82396">
        <ele>860.6</ele>
        <time>2021-08-24T10:57:29Z</time>
      </trkpt>
      <trkpt lat="45.42932" lon="5.82398">
        <ele>860.8</ele>
        <time>2021-08-24T10:57:31Z</time>
      </trkpt>
      <trkpt lat="45.42933" lon="5.824">
        <ele>861.1</ele>
        <time>2021-08-24T10:57:32Z</time>
      </trkpt>
      <trkpt lat="45.42934" lon="5.82404">
        <ele>861.7</ele>
        <time>2021-08-24T10:57:34Z</time>
      </trkpt>
      <trkpt lat="45.42935" lon="5.82406">
        <ele>862</ele>
        <time>2021-08-24T10:57:35Z</time>
      </trkpt>
      <trkpt lat="45.42936" lon="5.82409">
        <ele>862.5</ele>
        <time>2021-08-24T10:57:36Z</time>
      </trkpt>
      <trkpt lat="45.42936" lon="5.8241">
        <ele>862.7</ele>
        <time>2021-08-24T10:57:37Z</time>
      </trkpt>
      <trkpt lat="45.42936" lon="5.82416">
        <ele>863.4</ele>
        <time>2021-08-24T10:57:39Z</time>
      </trkpt>
      <trkpt lat="45.42936" lon="5.82417">
        <ele>863.6</ele>
        <time>2021-08-24T10:57:40Z</time>
      </trkpt>
      <trkpt lat="45.42936" lon="5.82418">
        <ele>863.7</ele>
        <time>2021-08-24T10:57:42Z</time>
      </trkpt>
      <trkpt lat="45.42936" lon="5.82418">
        <ele>863.8</ele>
        <time>2021-08-24T10:57:43Z</time>
      </trkpt>
      <trkpt lat="45.42936" lon="5.82418">
        <ele>863.8</ele>
        <time>2021-08-24T10:57:45Z</time>
      </trkpt>
      <trkpt lat="45.42936" lon="5.82419">
        <ele>863.8</ele>
        <time>2021-08-24T10:57:47Z</time>
      </trkpt>
      <trkpt lat="45.42936" lon="5.82419">
        <ele>863.9</ele>
        <time>2021-08-24T10:57:48Z</time>
      </trkpt>
      <trkpt lat="45.42936" lon="5.82419">
        <ele>863.9</ele>
        <time>2021-08-24T10:57:50Z</time>
      </trkpt>
      <trkpt lat="45.42939" lon="5.82435">
        <ele>862.2</ele>
        <time>2021-08-24T10:57:59Z</time>
      </trkpt>
      <trkpt lat="45.42944" lon="5.82446">
        <ele>858.8</ele>
        <time>2021-08-24T10:58:01Z</time>
      </trkpt>
      <trkpt lat="45.42953" lon="5.82464">
        <ele>855.8</ele>
        <time>2021-08-24T10:58:03Z</time>
      </trkpt>
      <trkpt lat="45.42959" lon="5.8247">
        <ele>854.8</ele>
        <time>2021-08-24T10:58:04Z</time>
      </trkpt>
      <trkpt lat="45.42964" lon="5.82475">
        <ele>853.8</ele>
        <time>2021-08-24T10:58:05Z</time>
      </trkpt>
      <trkpt lat="45.42975" lon="5.82486">
        <ele>851.8</ele>
        <time>2021-08-24T10:58:07Z</time>
      </trkpt>
      <trkpt lat="45.42986" lon="5.82499">
        <ele>849.9</ele>
        <time>2021-08-24T10:58:09Z</time>
      </trkpt>
      <trkpt lat="45.42997" lon="5.82511">
        <ele>847.9</ele>
        <time>2021-08-24T10:58:11Z</time>
      </trkpt>
      <trkpt lat="45.43009" lon="5.82522">
        <ele>845.7</ele>
        <time>2021-08-24T10:58:13Z</time>
      </trkpt>
      <trkpt lat="45.4302" lon="5.82532">
        <ele>843.6</ele>
        <time>2021-08-24T10:58:15Z</time>
      </trkpt>
      <trkpt lat="45.43025" lon="5.82537">
        <ele>842.6</ele>
        <time>2021-08-24T10:58:16Z</time>
      </trkpt>
      <trkpt lat="45.43035" lon="5.82546">
        <ele>840.6</ele>
        <time>2021-08-24T10:58:18Z</time>
      </trkpt>
      <trkpt lat="45.43039" lon="5.82551">
        <ele>839.7</ele>
        <time>2021-08-24T10:58:19Z</time>
      </trkpt>
      <trkpt lat="45.43042" lon="5.82557">
        <ele>838.8</ele>
        <time>2021-08-24T10:58:20Z</time>
      </trkpt>
      <trkpt lat="45.43046" lon="5.82571">
        <ele>837.3</ele>
        <time>2021-08-24T10:58:22Z</time>
      </trkpt>
      <trkpt lat="45.43048" lon="5.82578">
        <ele>836.9</ele>
        <time>2021-08-24T10:58:23Z</time>
      </trkpt>
      <trkpt lat="45.43053" lon="5.8259">
        <ele>836</ele>
        <time>2021-08-24T10:58:25Z</time>
      </trkpt>
      <trkpt lat="45.43056" lon="5.82597">
        <ele>835.4</ele>
        <time>2021-08-24T10:58:27Z</time>
      </trkpt>
      <trkpt lat="45.43057" lon="5.82599">
        <ele>835.1</ele>
        <time>2021-08-24T10:58:29Z</time>
      </trkpt>
      <trkpt lat="45.43058" lon="5.82602">
        <ele>834.8</ele>
        <time>2021-08-24T10:58:31Z</time>
      </trkpt>
      <trkpt lat="45.4306" lon="5.82608">
        <ele>834.3</ele>
        <time>2021-08-24T10:58:32Z</time>
      </trkpt>
      <trkpt lat="45.43065" lon="5.82616">
        <ele>833.4</ele>
        <time>2021-08-24T10:58:34Z</time>
      </trkpt>
      <trkpt lat="45.43067" lon="5.82622">
        <ele>832.8</ele>
        <time>2021-08-24T10:58:35Z</time>
      </trkpt>
      <trkpt lat="45.43073" lon="5.82634">
        <ele>831.5</ele>
        <time>2021-08-24T10:58:37Z</time>
      </trkpt>
      <trkpt lat="45.43076" lon="5.82641">
        <ele>830.9</ele>
        <time>2021-08-24T10:58:38Z</time>
      </trkpt>
      <trkpt lat="45.43081" lon="5.82653">
        <ele>829.8</ele>
        <time>2021-08-24T10:58:40Z</time>
      </trkpt>
      <trkpt lat="45.43083" lon="5.82659">
        <ele>829.3</ele>
        <time>2021-08-24T10:58:41Z</time>
      </trkpt>
      <trkpt lat="45.43087" lon="5.82666">
        <ele>828.8</ele>
        <time>2021-08-24T10:58:42Z</time>
      </trkpt>
      <trkpt lat="45.4309" lon="5.82672">
        <ele>828.4</ele>
        <time>2021-08-24T10:58:43Z</time>
      </trkpt>
      <trkpt lat="45.43099" lon="5.82683">
        <ele>827.6</ele>
        <time>2021-08-24T10:58:45Z</time>
      </trkpt>
      <trkpt lat="45.43104" lon="5.82689">
        <ele>827.3</ele>
        <time>2021-08-24T10:58:46Z</time>
      </trkpt>
      <trkpt lat="45.43115" lon="5.827">
        <ele>826.6</ele>
        <time>2021-08-24T10:58:48Z</time>
      </trkpt>
      <trkpt lat="45.43121" lon="5.82705">
        <ele>826.4</ele>
        <time>2021-08-24T10:58:49Z</time>
      </trkpt>
      <trkpt lat="45.4313" lon="5.82717">
        <ele>826</ele>
        <time>2021-08-24T10:58:51Z</time>
      </trkpt>
      <trkpt lat="45.43137" lon="5.82732">
        <ele>825.6</ele>
        <time>2021-08-24T10:58:53Z</time>
      </trkpt>
      <trkpt lat="45.43145" lon="5.82747">
        <ele>825.1</ele>
        <time>2021-08-24T10:58:55Z</time>
      </trkpt>
      <trkpt lat="45.43154" lon="5.82761">
        <ele>824.7</ele>
        <time>2021-08-24T10:58:57Z</time>
      </trkpt>
      <trkpt lat="45.4316" lon="5.82768">
        <ele>824.5</ele>
        <time>2021-08-24T10:58:58Z</time>
      </trkpt>
      <trkpt lat="45.4317" lon="5.82781">
        <ele>824.4</ele>
        <time>2021-08-24T10:59:00Z</time>
      </trkpt>
      <trkpt lat="45.4318" lon="5.82793">
        <ele>824.4</ele>
        <time>2021-08-24T10:59:02Z</time>
      </trkpt>
      <trkpt lat="45.4319" lon="5.82801">
        <ele>824.4</ele>
        <time>2021-08-24T10:59:04Z</time>
      </trkpt>
      <trkpt lat="45.43199" lon="5.82806">
        <ele>824.3</ele>
        <time>2021-08-24T10:59:06Z</time>
      </trkpt>
      <trkpt lat="45.43204" lon="5.82808">
        <ele>824.1</ele>
        <time>2021-08-24T10:59:07Z</time>
      </trkpt>
      <trkpt lat="45.43208" lon="5.82811">
        <ele>823.8</ele>
        <time>2021-08-24T10:59:08Z</time>
      </trkpt>
      <trkpt lat="45.4322" lon="5.82816">
        <ele>822.9</ele>
        <time>2021-08-24T10:59:10Z</time>
      </trkpt>
      <trkpt lat="45.43234" lon="5.82822">
        <ele>821.2</ele>
        <time>2021-08-24T10:59:12Z</time>
      </trkpt>
      <trkpt lat="45.43242" lon="5.82826">
        <ele>820.3</ele>
        <time>2021-08-24T10:59:13Z</time>
      </trkpt>
      <trkpt lat="45.43259" lon="5.82834">
        <ele>818.6</ele>
        <time>2021-08-24T10:59:15Z</time>
      </trkpt>
      <trkpt lat="45.43267" lon="5.82839">
        <ele>818</ele>
        <time>2021-08-24T10:59:16Z</time>
      </trkpt>
      <trkpt lat="45.43275" lon="5.82844">
        <ele>817.5</ele>
        <time>2021-08-24T10:59:17Z</time>
      </trkpt>
      <trkpt lat="45.4329" lon="5.82854">
        <ele>816.8</ele>
        <time>2021-08-24T10:59:19Z</time>
      </trkpt>
      <trkpt lat="45.43303" lon="5.82865">
        <ele>816.3</ele>
        <time>2021-08-24T10:59:21Z</time>
      </trkpt>
      <trkpt lat="45.43316" lon="5.82879">
        <ele>815.8</ele>
        <time>2021-08-24T10:59:23Z</time>
      </trkpt>
      <trkpt lat="45.43322" lon="5.82885">
        <ele>815.6</ele>
        <time>2021-08-24T10:59:24Z</time>
      </trkpt>
      <trkpt lat="45.43337" lon="5.82896">
        <ele>815</ele>
        <time>2021-08-24T10:59:26Z</time>
      </trkpt>
      <trkpt lat="45.43344" lon="5.82903">
        <ele>814.6</ele>
        <time>2021-08-24T10:59:27Z</time>
      </trkpt>
      <trkpt lat="45.43357" lon="5.82922">
        <ele>813.6</ele>
        <time>2021-08-24T10:59:29Z</time>
      </trkpt>
      <trkpt lat="45.43367" lon="5.82945">
        <ele>812.3</ele>
        <time>2021-08-24T10:59:31Z</time>
      </trkpt>
      <trkpt lat="45.43372" lon="5.82966">
        <ele>811.2</ele>
        <time>2021-08-24T10:59:33Z</time>
      </trkpt>
      <trkpt lat="45.43375" lon="5.82975">
        <ele>810.7</ele>
        <time>2021-08-24T10:59:34Z</time>
      </trkpt>
      <trkpt lat="45.43379" lon="5.82984">
        <ele>810.1</ele>
        <time>2021-08-24T10:59:35Z</time>
      </trkpt>
      <trkpt lat="45.43387" lon="5.82997">
        <ele>809</ele>
        <time>2021-08-24T10:59:37Z</time>
      </trkpt>
      <trkpt lat="45.43391" lon="5.83004">
        <ele>808.1</ele>
        <time>2021-08-24T10:59:38Z</time>
      </trkpt>
      <trkpt lat="45.43395" lon="5.83022">
        <ele>807.8</ele>
        <time>2021-08-24T10:59:40Z</time>
      </trkpt>
      <trkpt lat="45.43396" lon="5.8304">
        <ele>807.4</ele>
        <time>2021-08-24T10:59:42Z</time>
      </trkpt>
      <trkpt lat="45.43395" lon="5.83049">
        <ele>807.3</ele>
        <time>2021-08-24T10:59:43Z</time>
      </trkpt>
      <trkpt lat="45.43393" lon="5.83068">
        <ele>807.1</ele>
        <time>2021-08-24T10:59:45Z</time>
      </trkpt>
      <trkpt lat="45.43391" lon="5.83078">
        <ele>807</ele>
        <time>2021-08-24T10:59:46Z</time>
      </trkpt>
      <trkpt lat="45.4339" lon="5.83088">
        <ele>806.9</ele>
        <time>2021-08-24T10:59:47Z</time>
      </trkpt>
      <trkpt lat="45.4339" lon="5.83105">
        <ele>806.8</ele>
        <time>2021-08-24T10:59:49Z</time>
      </trkpt>
      <trkpt lat="45.4339" lon="5.83123">
        <ele>806.7</ele>
        <time>2021-08-24T10:59:51Z</time>
      </trkpt>
      <trkpt lat="45.43389" lon="5.83139">
        <ele>806.6</ele>
        <time>2021-08-24T10:59:53Z</time>
      </trkpt>
      <trkpt lat="45.43389" lon="5.8315">
        <ele>806.6</ele>
        <time>2021-08-24T10:59:55Z</time>
      </trkpt>
      <trkpt lat="45.43388" lon="5.83162">
        <ele>806.7</ele>
        <time>2021-08-24T10:59:57Z</time>
      </trkpt>
      <trkpt lat="45.43388" lon="5.83168">
        <ele>806.7</ele>
        <time>2021-08-24T10:59:58Z</time>
      </trkpt>
      <trkpt lat="45.43386" lon="5.83173">
        <ele>806.7</ele>
        <time>2021-08-24T10:59:59Z</time>
      </trkpt>
      <trkpt lat="45.43383" lon="5.83182">
        <ele>806.6</ele>
        <time>2021-08-24T11:00:01Z</time>
      </trkpt>
      <trkpt lat="45.4338" lon="5.83187">
        <ele>806.6</ele>
        <time>2021-08-24T11:00:03Z</time>
      </trkpt>
      <trkpt lat="45.43375" lon="5.83192">
        <ele>806.7</ele>
        <time>2021-08-24T11:00:05Z</time>
      </trkpt>
      <trkpt lat="45.43372" lon="5.83196">
        <ele>806.8</ele>
        <time>2021-08-24T11:00:07Z</time>
      </trkpt>
      <trkpt lat="45.43371" lon="5.83197">
        <ele>806.8</ele>
        <time>2021-08-24T11:00:08Z</time>
      </trkpt>
      <trkpt lat="45.4337" lon="5.83201">
        <ele>806.9</ele>
        <time>2021-08-24T11:00:10Z</time>
      </trkpt>
      <trkpt lat="45.43369" lon="5.83203">
        <ele>807</ele>
        <time>2021-08-24T11:00:11Z</time>
      </trkpt>
      <trkpt lat="45.43368" lon="5.83206">
        <ele>807.2</ele>
        <time>2021-08-24T11:00:13Z</time>
      </trkpt>
      <trkpt lat="45.43367" lon="5.83208">
        <ele>807.3</ele>
        <time>2021-08-24T11:00:14Z</time>
      </trkpt>
      <trkpt lat="45.43365" lon="5.83212">
        <ele>807.6</ele>
        <time>2021-08-24T11:00:16Z</time>
      </trkpt>
      <trkpt lat="45.43361" lon="5.83216">
        <ele>807.9</ele>
        <time>2021-08-24T11:00:18Z</time>
      </trkpt>
      <trkpt lat="45.43359" lon="5.83217">
        <ele>808.1</ele>
        <time>2021-08-24T11:00:19Z</time>
      </trkpt>
      <trkpt lat="45.43356" lon="5.83221">
        <ele>808.5</ele>
        <time>2021-08-24T11:00:21Z</time>
      </trkpt>
      <trkpt lat="45.43352" lon="5.83225">
        <ele>808.9</ele>
        <time>2021-08-24T11:00:23Z</time>
      </trkpt>
      <trkpt lat="45.43351" lon="5.83226">
        <ele>809.3</ele>
        <time>2021-08-24T11:00:24Z</time>
      </trkpt>
      <trkpt lat="45.43349" lon="5.83227">
        <ele>809.9</ele>
        <time>2021-08-24T11:00:25Z</time>
      </trkpt>
      <trkpt lat="45.43346" lon="5.83229">
        <ele>811.2</ele>
        <time>2021-08-24T11:00:27Z</time>
      </trkpt>
      <trkpt lat="45.43342" lon="5.83234">
        <ele>812.2</ele>
        <time>2021-08-24T11:00:29Z</time>
      </trkpt>
      <trkpt lat="45.4334" lon="5.83237">
        <ele>813.7</ele>
        <time>2021-08-24T11:00:30Z</time>
      </trkpt>
      <trkpt lat="45.43339" lon="5.83238">
        <ele>814.1</ele>
        <time>2021-08-24T11:00:31Z</time>
      </trkpt>
      <trkpt lat="45.43336" lon="5.83243">
        <ele>815.4</ele>
        <time>2021-08-24T11:00:33Z</time>
      </trkpt>
      <trkpt lat="45.43334" lon="5.83247">
        <ele>816.9</ele>
        <time>2021-08-24T11:00:34Z</time>
      </trkpt>
      <trkpt lat="45.43333" lon="5.83248">
        <ele>817.4</ele>
        <time>2021-08-24T11:00:35Z</time>
      </trkpt>
      <trkpt lat="45.4333" lon="5.83252">
        <ele>818.8</ele>
        <time>2021-08-24T11:00:37Z</time>
      </trkpt>
      <trkpt lat="45.43329" lon="5.83254">
        <ele>819.4</ele>
        <time>2021-08-24T11:00:38Z</time>
      </trkpt>
      <trkpt lat="45.43328" lon="5.83255">
        <ele>821</ele>
        <time>2021-08-24T11:00:39Z</time>
      </trkpt>
      <trkpt lat="45.43326" lon="5.83259">
        <ele>822.6</ele>
        <time>2021-08-24T11:00:40Z</time>
      </trkpt>
      <trkpt lat="45.43325" lon="5.8326">
        <ele>823.2</ele>
        <time>2021-08-24T11:00:41Z</time>
      </trkpt>
      <trkpt lat="45.43323" lon="5.83262">
        <ele>823.7</ele>
        <time>2021-08-24T11:00:42Z</time>
      </trkpt>
      <trkpt lat="45.43322" lon="5.83262">
        <ele>824.3</ele>
        <time>2021-08-24T11:00:44Z</time>
      </trkpt>
      <trkpt lat="45.4332" lon="5.8326">
        <ele>824.8</ele>
        <time>2021-08-24T11:00:45Z</time>
      </trkpt>
      <trkpt lat="45.43319" lon="5.83258">
        <ele>824.4</ele>
        <time>2021-08-24T11:00:46Z</time>
      </trkpt>
      <trkpt lat="45.43318" lon="5.83257">
        <ele>824.9</ele>
        <time>2021-08-24T11:00:48Z</time>
      </trkpt>
      <trkpt lat="45.43318" lon="5.83256">
        <ele>825.5</ele>
        <time>2021-08-24T11:00:49Z</time>
      </trkpt>
      <trkpt lat="45.4331" lon="5.83272">
        <ele>830</ele>
        <time>2021-08-24T11:00:51Z</time>
      </trkpt>
      <trkpt lat="45.43303" lon="5.83289">
        <ele>833.8</ele>
        <time>2021-08-24T11:00:53Z</time>
      </trkpt>
      <trkpt lat="45.43296" lon="5.83305">
        <ele>836.5</ele>
        <time>2021-08-24T11:00:54Z</time>
      </trkpt>
      <trkpt lat="45.43289" lon="5.83322">
        <ele>839.8</ele>
        <time>2021-08-24T11:06:29Z</time>
      </trkpt>
      <trkpt lat="45.43281" lon="5.83338">
        <ele>841.4</ele>
        <time>2021-08-24T11:06:30Z</time>
      </trkpt>
      <trkpt lat="45.43278" lon="5.83339">
        <ele>840.6</ele>
        <time>2021-08-24T11:06:31Z</time>
      </trkpt>
      <trkpt lat="45.43276" lon="5.83339">
        <ele>839.9</ele>
        <time>2021-08-24T11:06:32Z</time>
      </trkpt>
      <trkpt lat="45.43273" lon="5.83339">
        <ele>839</ele>
        <time>2021-08-24T11:06:34Z</time>
      </trkpt>
      <trkpt lat="45.4327" lon="5.83338">
        <ele>838.2</ele>
        <time>2021-08-24T11:06:35Z</time>
      </trkpt>
      <trkpt lat="45.43264" lon="5.83337">
        <ele>836.6</ele>
        <time>2021-08-24T11:06:36Z</time>
      </trkpt>
      <trkpt lat="45.43261" lon="5.83335">
        <ele>835.6</ele>
        <time>2021-08-24T11:06:38Z</time>
      </trkpt>
      <trkpt lat="45.43258" lon="5.83334">
        <ele>835.2</ele>
        <time>2021-08-24T11:06:39Z</time>
      </trkpt>
      <trkpt lat="45.43254" lon="5.83334">
        <ele>834.6</ele>
        <time>2021-08-24T11:06:40Z</time>
      </trkpt>
      <trkpt lat="45.4325" lon="5.83333">
        <ele>833.9</ele>
        <time>2021-08-24T11:06:41Z</time>
      </trkpt>
      <trkpt lat="45.43247" lon="5.83332">
        <ele>833.4</ele>
        <time>2021-08-24T11:06:42Z</time>
      </trkpt>
      <trkpt lat="45.43243" lon="5.83331">
        <ele>832.8</ele>
        <time>2021-08-24T11:06:44Z</time>
      </trkpt>
      <trkpt lat="45.43238" lon="5.8333">
        <ele>832</ele>
        <time>2021-08-24T11:06:45Z</time>
      </trkpt>
      <trkpt lat="45.43234" lon="5.83329">
        <ele>831.3</ele>
        <time>2021-08-24T11:06:46Z</time>
      </trkpt>
      <trkpt lat="45.43228" lon="5.83329">
        <ele>830.3</ele>
        <time>2021-08-24T11:06:48Z</time>
      </trkpt>
      <trkpt lat="45.43222" lon="5.83328">
        <ele>829.4</ele>
        <time>2021-08-24T11:06:49Z</time>
      </trkpt>
      <trkpt lat="45.43217" lon="5.83327">
        <ele>828.6</ele>
        <time>2021-08-24T11:06:50Z</time>
      </trkpt>
      <trkpt lat="45.43208" lon="5.83328">
        <ele>827.1</ele>
        <time>2021-08-24T11:06:52Z</time>
      </trkpt>
      <trkpt lat="45.43199" lon="5.83326">
        <ele>825.8</ele>
        <time>2021-08-24T11:06:53Z</time>
      </trkpt>
      <trkpt lat="45.43188" lon="5.83324">
        <ele>824</ele>
        <time>2021-08-24T11:06:55Z</time>
      </trkpt>
      <trkpt lat="45.43174" lon="5.8333">
        <ele>821.7</ele>
        <time>2021-08-24T11:06:57Z</time>
      </trkpt>
      <trkpt lat="45.4316" lon="5.83334">
        <ele>819.3</ele>
        <time>2021-08-24T11:06:59Z</time>
      </trkpt>
      <trkpt lat="45.43152" lon="5.83336">
        <ele>818.1</ele>
        <time>2021-08-24T11:07:00Z</time>
      </trkpt>
      <trkpt lat="45.43145" lon="5.83338">
        <ele>816.9</ele>
        <time>2021-08-24T11:07:01Z</time>
      </trkpt>
      <trkpt lat="45.43132" lon="5.83343">
        <ele>814.8</ele>
        <time>2021-08-24T11:07:03Z</time>
      </trkpt>
      <trkpt lat="45.43126" lon="5.83344">
        <ele>813.8</ele>
        <time>2021-08-24T11:07:04Z</time>
      </trkpt>
      <trkpt lat="45.4312" lon="5.83345">
        <ele>812.9</ele>
        <time>2021-08-24T11:07:05Z</time>
      </trkpt>
      <trkpt lat="45.43108" lon="5.83344">
        <ele>811.1</ele>
        <time>2021-08-24T11:07:07Z</time>
      </trkpt>
      <trkpt lat="45.43097" lon="5.83341">
        <ele>809.3</ele>
        <time>2021-08-24T11:07:09Z</time>
      </trkpt>
      <trkpt lat="45.43085" lon="5.83337">
        <ele>807.3</ele>
        <time>2021-08-24T11:07:11Z</time>
      </trkpt>
      <trkpt lat="45.4308" lon="5.83335">
        <ele>806.4</ele>
        <time>2021-08-24T11:07:12Z</time>
      </trkpt>
      <trkpt lat="45.43075" lon="5.83333">
        <ele>805.6</ele>
        <time>2021-08-24T11:07:13Z</time>
      </trkpt>
      <trkpt lat="45.43068" lon="5.83329">
        <ele>804.5</ele>
        <time>2021-08-24T11:07:15Z</time>
      </trkpt>
      <trkpt lat="45.43065" lon="5.83328">
        <ele>803.9</ele>
        <time>2021-08-24T11:07:16Z</time>
      </trkpt>
      <trkpt lat="45.43061" lon="5.83327">
        <ele>803.3</ele>
        <time>2021-08-24T11:07:17Z</time>
      </trkpt>
      <trkpt lat="45.43055" lon="5.83328">
        <ele>802.3</ele>
        <time>2021-08-24T11:07:19Z</time>
      </trkpt>
      <trkpt lat="45.43048" lon="5.83326">
        <ele>801.2</ele>
        <time>2021-08-24T11:07:21Z</time>
      </trkpt>
      <trkpt lat="45.43044" lon="5.83326">
        <ele>800.5</ele>
        <time>2021-08-24T11:07:22Z</time>
      </trkpt>
      <trkpt lat="45.43039" lon="5.83328">
        <ele>799.7</ele>
        <time>2021-08-24T11:07:23Z</time>
      </trkpt>
      <trkpt lat="45.43034" lon="5.83329">
        <ele>798.9</ele>
        <time>2021-08-24T11:07:24Z</time>
      </trkpt>
      <trkpt lat="45.43029" lon="5.83329">
        <ele>798.2</ele>
        <time>2021-08-24T11:07:25Z</time>
      </trkpt>
      <trkpt lat="45.43023" lon="5.83328">
        <ele>797.3</ele>
        <time>2021-08-24T11:07:27Z</time>
      </trkpt>
      <trkpt lat="45.43013" lon="5.83324">
        <ele>795.6</ele>
        <time>2021-08-24T11:07:28Z</time>
      </trkpt>
      <trkpt lat="45.43008" lon="5.83318">
        <ele>794.6</ele>
        <time>2021-08-24T11:07:30Z</time>
      </trkpt>
      <trkpt lat="45.42998" lon="5.8331">
        <ele>792.7</ele>
        <time>2021-08-24T11:07:31Z</time>
      </trkpt>
      <trkpt lat="45.42993" lon="5.83304">
        <ele>791.7</ele>
        <time>2021-08-24T11:07:32Z</time>
      </trkpt>
      <trkpt lat="45.42982" lon="5.83294">
        <ele>789.6</ele>
        <time>2021-08-24T11:07:34Z</time>
      </trkpt>
      <trkpt lat="45.42977" lon="5.83292">
        <ele>788.9</ele>
        <time>2021-08-24T11:07:35Z</time>
      </trkpt>
      <trkpt lat="45.42973" lon="5.83291">
        <ele>788.1</ele>
        <time>2021-08-24T11:07:37Z</time>
      </trkpt>
      <trkpt lat="45.42968" lon="5.83289">
        <ele>787.3</ele>
        <time>2021-08-24T11:07:38Z</time>
      </trkpt>
      <trkpt lat="45.42962" lon="5.83286">
        <ele>786.3</ele>
        <time>2021-08-24T11:07:39Z</time>
      </trkpt>
      <trkpt lat="45.42956" lon="5.83284">
        <ele>785.4</ele>
        <time>2021-08-24T11:07:40Z</time>
      </trkpt>
      <trkpt lat="45.4295" lon="5.83281">
        <ele>784.4</ele>
        <time>2021-08-24T11:07:41Z</time>
      </trkpt>
      <trkpt lat="45.42945" lon="5.83279">
        <ele>783.5</ele>
        <time>2021-08-24T11:07:43Z</time>
      </trkpt>
      <trkpt lat="45.42937" lon="5.83276">
        <ele>782.2</ele>
        <time>2021-08-24T11:07:44Z</time>
      </trkpt>
      <trkpt lat="45.42928" lon="5.83272">
        <ele>780.7</ele>
        <time>2021-08-24T11:07:45Z</time>
      </trkpt>
      <trkpt lat="45.42917" lon="5.8327">
        <ele>779</ele>
        <time>2021-08-24T11:07:47Z</time>
      </trkpt>
      <trkpt lat="45.42909" lon="5.83265">
        <ele>777.5</ele>
        <time>2021-08-24T11:07:49Z</time>
      </trkpt>
      <trkpt lat="45.42898" lon="5.83259">
        <ele>775.7</ele>
        <time>2021-08-24T11:07:51Z</time>
      </trkpt>
      <trkpt lat="45.42887" lon="5.83253">
        <ele>773.9</ele>
        <time>2021-08-24T11:07:53Z</time>
      </trkpt>
      <trkpt lat="45.42876" lon="5.83249">
        <ele>772.1</ele>
        <time>2021-08-24T11:07:55Z</time>
      </trkpt>
      <trkpt lat="45.42865" lon="5.83245">
        <ele>770.2</ele>
        <time>2021-08-24T11:07:57Z</time>
      </trkpt>
      <trkpt lat="45.42859" lon="5.83243">
        <ele>769.2</ele>
        <time>2021-08-24T11:07:58Z</time>
      </trkpt>
      <trkpt lat="45.42853" lon="5.83241">
        <ele>768.2</ele>
        <time>2021-08-24T11:07:59Z</time>
      </trkpt>
      <trkpt lat="45.42842" lon="5.83242">
        <ele>766.5</ele>
        <time>2021-08-24T11:08:01Z</time>
      </trkpt>
      <trkpt lat="45.42834" lon="5.83245">
        <ele>764.5</ele>
        <time>2021-08-24T11:08:03Z</time>
      </trkpt>
      <trkpt lat="45.4283" lon="5.83247">
        <ele>762.7</ele>
        <time>2021-08-24T11:08:04Z</time>
      </trkpt>
      <trkpt lat="45.42827" lon="5.8325">
        <ele>761.8</ele>
        <time>2021-08-24T11:08:05Z</time>
      </trkpt>
      <trkpt lat="45.42825" lon="5.83253">
        <ele>761.5</ele>
        <time>2021-08-24T11:08:06Z</time>
      </trkpt>
      <trkpt lat="45.42823" lon="5.83256">
        <ele>760.7</ele>
        <time>2021-08-24T11:08:07Z</time>
      </trkpt>
      <trkpt lat="45.42822" lon="5.83257">
        <ele>760.4</ele>
        <time>2021-08-24T11:08:09Z</time>
      </trkpt>
      <trkpt lat="45.42823" lon="5.83264">
        <ele>760.3</ele>
        <time>2021-08-24T11:08:10Z</time>
      </trkpt>
      <trkpt lat="45.42824" lon="5.83269">
        <ele>760</ele>
        <time>2021-08-24T11:08:11Z</time>
      </trkpt>
      <trkpt lat="45.42824" lon="5.83274">
        <ele>759.7</ele>
        <time>2021-08-24T11:08:12Z</time>
      </trkpt>
      <trkpt lat="45.42825" lon="5.83282">
        <ele>760.1</ele>
        <time>2021-08-24T11:08:14Z</time>
      </trkpt>
      <trkpt lat="45.42826" lon="5.83288">
        <ele>759.7</ele>
        <time>2021-08-24T11:08:15Z</time>
      </trkpt>
      <trkpt lat="45.42826" lon="5.83292">
        <ele>759.4</ele>
        <time>2021-08-24T11:08:17Z</time>
      </trkpt>
      <trkpt lat="45.42826" lon="5.83295">
        <ele>759.2</ele>
        <time>2021-08-24T11:08:18Z</time>
      </trkpt>
      <trkpt lat="45.42827" lon="5.83296">
        <ele>758.9</ele>
        <time>2021-08-24T11:08:19Z</time>
      </trkpt>
      <trkpt lat="45.42827" lon="5.83297">
        <ele>758.6</ele>
        <time>2021-08-24T11:08:21Z</time>
      </trkpt>
      <trkpt lat="45.42826" lon="5.83297">
        <ele>758.3</ele>
        <time>2021-08-24T11:08:22Z</time>
      </trkpt>
      <trkpt lat="45.42825" lon="5.83298">
        <ele>758</ele>
        <time>2021-08-24T11:08:23Z</time>
      </trkpt>
      <trkpt lat="45.42824" lon="5.83299">
        <ele>757</ele>
        <time>2021-08-24T11:08:24Z</time>
      </trkpt>
      <trkpt lat="45.42822" lon="5.833">
        <ele>756.6</ele>
        <time>2021-08-24T11:08:26Z</time>
      </trkpt>
      <trkpt lat="45.42821" lon="5.83301">
        <ele>755.6</ele>
        <time>2021-08-24T11:08:27Z</time>
      </trkpt>
      <trkpt lat="45.42821" lon="5.83301">
        <ele>755.3</ele>
        <time>2021-08-24T11:08:28Z</time>
      </trkpt>
      <trkpt lat="45.42812" lon="5.83305">
        <ele>753</ele>
        <time>2021-08-24T11:08:30Z</time>
      </trkpt>
      <trkpt lat="45.42805" lon="5.83311">
        <ele>751.5</ele>
        <time>2021-08-24T11:08:31Z</time>
      </trkpt>
      <trkpt lat="45.428" lon="5.83315">
        <ele>750.1</ele>
        <time>2021-08-24T11:08:32Z</time>
      </trkpt>
      <trkpt lat="45.42795" lon="5.83318">
        <ele>749.2</ele>
        <time>2021-08-24T11:08:33Z</time>
      </trkpt>
      <trkpt lat="45.42789" lon="5.83324">
        <ele>748</ele>
        <time>2021-08-24T11:08:35Z</time>
      </trkpt>
      <trkpt lat="45.42786" lon="5.83329">
        <ele>747.3</ele>
        <time>2021-08-24T11:08:36Z</time>
      </trkpt>
      <trkpt lat="45.42784" lon="5.83335">
        <ele>746.6</ele>
        <time>2021-08-24T11:08:37Z</time>
      </trkpt>
      <trkpt lat="45.42783" lon="5.83339">
        <ele>746.5</ele>
        <time>2021-08-24T11:08:38Z</time>
      </trkpt>
      <trkpt lat="45.42782" lon="5.83342">
        <ele>745.9</ele>
        <time>2021-08-24T11:08:39Z</time>
      </trkpt>
      <trkpt lat="45.4278" lon="5.83344">
        <ele>746</ele>
        <time>2021-08-24T11:08:41Z</time>
      </trkpt>
      <trkpt lat="45.42779" lon="5.83346">
        <ele>745.1</ele>
        <time>2021-08-24T11:08:42Z</time>
      </trkpt>
      <trkpt lat="45.42778" lon="5.83348">
        <ele>744.8</ele>
        <time>2021-08-24T11:08:43Z</time>
      </trkpt>
      <trkpt lat="45.42776" lon="5.83353">
        <ele>745.5</ele>
        <time>2021-08-24T11:08:45Z</time>
      </trkpt>
      <trkpt lat="45.42775" lon="5.83358">
        <ele>745.2</ele>
        <time>2021-08-24T11:08:47Z</time>
      </trkpt>
      <trkpt lat="45.42775" lon="5.83361">
        <ele>745.5</ele>
        <time>2021-08-24T11:08:48Z</time>
      </trkpt>
      <trkpt lat="45.42775" lon="5.83366">
        <ele>745.8</ele>
        <time>2021-08-24T11:08:50Z</time>
      </trkpt>
      <trkpt lat="45.42774" lon="5.83369">
        <ele>745.5</ele>
        <time>2021-08-24T11:08:51Z</time>
      </trkpt>
      <trkpt lat="45.42771" lon="5.83374">
        <ele>745.4</ele>
        <time>2021-08-24T11:08:53Z</time>
      </trkpt>
      <trkpt lat="45.42769" lon="5.83375">
        <ele>745.7</ele>
        <time>2021-08-24T11:08:54Z</time>
      </trkpt>
      <trkpt lat="45.42768" lon="5.83376">
        <ele>745.4</ele>
        <time>2021-08-24T11:08:55Z</time>
      </trkpt>
      <trkpt lat="45.42764" lon="5.83379">
        <ele>745.4</ele>
        <time>2021-08-24T11:08:56Z</time>
      </trkpt>
      <trkpt lat="45.42763" lon="5.8338">
        <ele>744.7</ele>
        <time>2021-08-24T11:08:57Z</time>
      </trkpt>
      <trkpt lat="45.42761" lon="5.83381">
        <ele>744</ele>
        <time>2021-08-24T11:08:58Z</time>
      </trkpt>
      <trkpt lat="45.42757" lon="5.83382">
        <ele>743.3</ele>
        <time>2021-08-24T11:09:00Z</time>
      </trkpt>
      <trkpt lat="45.42754" lon="5.83383">
        <ele>743.5</ele>
        <time>2021-08-24T11:09:01Z</time>
      </trkpt>
      <trkpt lat="45.42752" lon="5.83383">
        <ele>742.7</ele>
        <time>2021-08-24T11:09:02Z</time>
      </trkpt>
      <trkpt lat="45.42748" lon="5.83382">
        <ele>740.9</ele>
        <time>2021-08-24T11:09:04Z</time>
      </trkpt>
      <trkpt lat="45.42745" lon="5.83382">
        <ele>740.1</ele>
        <time>2021-08-24T11:09:05Z</time>
      </trkpt>
      <trkpt lat="45.42742" lon="5.8338">
        <ele>739.3</ele>
        <time>2021-08-24T11:09:06Z</time>
      </trkpt>
      <trkpt lat="45.42739" lon="5.8338">
        <ele>738.6</ele>
        <time>2021-08-24T11:09:07Z</time>
      </trkpt>
      <trkpt lat="45.42737" lon="5.8338">
        <ele>738.3</ele>
        <time>2021-08-24T11:09:09Z</time>
      </trkpt>
      <trkpt lat="45.42737" lon="5.8338">
        <ele>737.5</ele>
        <time>2021-08-24T11:09:10Z</time>
      </trkpt>
      <trkpt lat="45.42736" lon="5.8338">
        <ele>737.2</ele>
        <time>2021-08-24T11:09:11Z</time>
      </trkpt>
      <trkpt lat="45.42732" lon="5.83379">
        <ele>736.5</ele>
        <time>2021-08-24T11:09:13Z</time>
      </trkpt>
      <trkpt lat="45.42728" lon="5.83377">
        <ele>734.7</ele>
        <time>2021-08-24T11:09:14Z</time>
      </trkpt>
      <trkpt lat="45.42727" lon="5.83377">
        <ele>733.8</ele>
        <time>2021-08-24T11:09:15Z</time>
      </trkpt>
      <trkpt lat="45.42722" lon="5.83374">
        <ele>732.3</ele>
        <time>2021-08-24T11:09:17Z</time>
      </trkpt>
      <trkpt lat="45.42717" lon="5.83372">
        <ele>730</ele>
        <time>2021-08-24T11:09:18Z</time>
      </trkpt>
      <trkpt lat="45.42712" lon="5.83367">
        <ele>727.7</ele>
        <time>2021-08-24T11:09:20Z</time>
      </trkpt>
      <trkpt lat="45.42701" lon="5.83352">
        <ele>721.9</ele>
        <time>2021-08-24T11:09:21Z</time>
      </trkpt>
      <trkpt lat="45.42694" lon="5.83343">
        <ele>719.2</ele>
        <time>2021-08-24T11:09:22Z</time>
      </trkpt>
      <trkpt lat="45.42683" lon="5.83328">
        <ele>715.8</ele>
        <time>2021-08-24T11:09:24Z</time>
      </trkpt>
      <trkpt lat="45.42678" lon="5.83321">
        <ele>713.7</ele>
        <time>2021-08-24T11:09:25Z</time>
      </trkpt>
      <trkpt lat="45.42672" lon="5.83315">
        <ele>712.1</ele>
        <time>2021-08-24T11:09:26Z</time>
      </trkpt>
      <trkpt lat="45.42667" lon="5.83312">
        <ele>710.5</ele>
        <time>2021-08-24T11:09:27Z</time>
      </trkpt>
      <trkpt lat="45.42663" lon="5.83309">
        <ele>709.4</ele>
        <time>2021-08-24T11:09:28Z</time>
      </trkpt>
      <trkpt lat="45.42657" lon="5.83304">
        <ele>708.1</ele>
        <time>2021-08-24T11:09:30Z</time>
      </trkpt>
      <trkpt lat="45.42654" lon="5.83305">
        <ele>707.6</ele>
        <time>2021-08-24T11:09:31Z</time>
      </trkpt>
      <trkpt lat="45.42648" lon="5.83296">
        <ele>706.4</ele>
        <time>2021-08-24T11:09:33Z</time>
      </trkpt>
      <trkpt lat="45.42643" lon="5.83291">
        <ele>705.7</ele>
        <time>2021-08-24T11:09:34Z</time>
      </trkpt>
      <trkpt lat="45.42639" lon="5.83288">
        <ele>705</ele>
        <time>2021-08-24T11:09:35Z</time>
      </trkpt>
      <trkpt lat="45.42632" lon="5.83278">
        <ele>704.1</ele>
        <time>2021-08-24T11:09:37Z</time>
      </trkpt>
      <trkpt lat="45.42626" lon="5.83269">
        <ele>703.2</ele>
        <time>2021-08-24T11:09:39Z</time>
      </trkpt>
      <trkpt lat="45.4262" lon="5.83262">
        <ele>702.3</ele>
        <time>2021-08-24T11:09:41Z</time>
      </trkpt>
      <trkpt lat="45.42618" lon="5.83257">
        <ele>701.7</ele>
        <time>2021-08-24T11:09:42Z</time>
      </trkpt>
      <trkpt lat="45.42615" lon="5.83252">
        <ele>701.1</ele>
        <time>2021-08-24T11:09:43Z</time>
      </trkpt>
      <trkpt lat="45.42611" lon="5.83247">
        <ele>700.5</ele>
        <time>2021-08-24T11:09:44Z</time>
      </trkpt>
      <trkpt lat="45.42607" lon="5.83243">
        <ele>699.9</ele>
        <time>2021-08-24T11:09:45Z</time>
      </trkpt>
      <trkpt lat="45.42603" lon="5.83239">
        <ele>699.2</ele>
        <time>2021-08-24T11:09:46Z</time>
      </trkpt>
      <trkpt lat="45.426" lon="5.83236">
        <ele>698.5</ele>
        <time>2021-08-24T11:09:47Z</time>
      </trkpt>
      <trkpt lat="45.42595" lon="5.83232">
        <ele>697.8</ele>
        <time>2021-08-24T11:09:49Z</time>
      </trkpt>
      <trkpt lat="45.42593" lon="5.8323">
        <ele>697.6</ele>
        <time>2021-08-24T11:09:50Z</time>
      </trkpt>
      <trkpt lat="45.4259" lon="5.83228">
        <ele>696.7</ele>
        <time>2021-08-24T11:09:51Z</time>
      </trkpt>
      <trkpt lat="45.42587" lon="5.83226">
        <ele>696.4</ele>
        <time>2021-08-24T11:09:52Z</time>
      </trkpt>
      <trkpt lat="45.42584" lon="5.83224">
        <ele>695.5</ele>
        <time>2021-08-24T11:09:53Z</time>
      </trkpt>
      <trkpt lat="45.42577" lon="5.83221">
        <ele>695</ele>
        <time>2021-08-24T11:09:55Z</time>
      </trkpt>
      <trkpt lat="45.42573" lon="5.8322">
        <ele>694.6</ele>
        <time>2021-08-24T11:09:57Z</time>
      </trkpt>
      <trkpt lat="45.42569" lon="5.83222">
        <ele>694.2</ele>
        <time>2021-08-24T11:09:58Z</time>
      </trkpt>
      <trkpt lat="45.42566" lon="5.83226">
        <ele>694.4</ele>
        <time>2021-08-24T11:09:59Z</time>
      </trkpt>
      <trkpt lat="45.42564" lon="5.83228">
        <ele>694</ele>
        <time>2021-08-24T11:10:01Z</time>
      </trkpt>
      <trkpt lat="45.42563" lon="5.83227">
        <ele>693.8</ele>
        <time>2021-08-24T11:10:02Z</time>
      </trkpt>
      <trkpt lat="45.42563" lon="5.83226">
        <ele>693.7</ele>
        <time>2021-08-24T11:10:03Z</time>
      </trkpt>
      <trkpt lat="45.42563" lon="5.83224">
        <ele>693.5</ele>
        <time>2021-08-24T11:10:04Z</time>
      </trkpt>
      <trkpt lat="45.42563" lon="5.83223">
        <ele>693.4</ele>
        <time>2021-08-24T11:10:05Z</time>
      </trkpt>
      <trkpt lat="45.42562" lon="5.83222">
        <ele>693.3</ele>
        <time>2021-08-24T11:10:06Z</time>
      </trkpt>
      <trkpt lat="45.42562" lon="5.83215">
        <ele>692.2</ele>
        <time>2021-08-24T11:10:08Z</time>
      </trkpt>
      <trkpt lat="45.42561" lon="5.83208">
        <ele>691.3</ele>
        <time>2021-08-24T11:10:09Z</time>
      </trkpt>
      <trkpt lat="45.42561" lon="5.832">
        <ele>690.3</ele>
        <time>2021-08-24T11:10:11Z</time>
      </trkpt>
      <trkpt lat="45.42561" lon="5.83192">
        <ele>689.2</ele>
        <time>2021-08-24T11:10:12Z</time>
      </trkpt>
      <trkpt lat="45.4256" lon="5.83186">
        <ele>688.4</ele>
        <time>2021-08-24T11:10:13Z</time>
      </trkpt>
      <trkpt lat="45.4256" lon="5.83179">
        <ele>687.5</ele>
        <time>2021-08-24T11:10:15Z</time>
      </trkpt>
      <trkpt lat="45.42561" lon="5.83171">
        <ele>686.4</ele>
        <time>2021-08-24T11:10:16Z</time>
      </trkpt>
      <trkpt lat="45.42561" lon="5.83164">
        <ele>685.6</ele>
        <time>2021-08-24T11:10:17Z</time>
      </trkpt>
      <trkpt lat="45.42561" lon="5.83158">
        <ele>684.8</ele>
        <time>2021-08-24T11:10:18Z</time>
      </trkpt>
      <trkpt lat="45.4256" lon="5.83146">
        <ele>684.7</ele>
        <time>2021-08-24T11:10:20Z</time>
      </trkpt>
      <trkpt lat="45.42559" lon="5.8314">
        <ele>684.8</ele>
        <time>2021-08-24T11:10:21Z</time>
      </trkpt>
      <trkpt lat="45.42557" lon="5.83135">
        <ele>684.8</ele>
        <time>2021-08-24T11:10:22Z</time>
      </trkpt>
      <trkpt lat="45.42555" lon="5.8313">
        <ele>684.8</ele>
        <time>2021-08-24T11:10:23Z</time>
      </trkpt>
      <trkpt lat="45.42551" lon="5.83119">
        <ele>684.8</ele>
        <time>2021-08-24T11:10:25Z</time>
      </trkpt>
      <trkpt lat="45.42552" lon="5.8311">
        <ele>684.7</ele>
        <time>2021-08-24T11:10:27Z</time>
      </trkpt>
      <trkpt lat="45.42553" lon="5.83106">
        <ele>684.6</ele>
        <time>2021-08-24T11:10:28Z</time>
      </trkpt>
      <trkpt lat="45.42554" lon="5.83102">
        <ele>684.5</ele>
        <time>2021-08-24T11:10:29Z</time>
      </trkpt>
      <trkpt lat="45.42554" lon="5.83096">
        <ele>684.1</ele>
        <time>2021-08-24T11:10:31Z</time>
      </trkpt>
      <trkpt lat="45.42553" lon="5.83094">
        <ele>684</ele>
        <time>2021-08-24T11:10:32Z</time>
      </trkpt>
      <trkpt lat="45.42551" lon="5.83096">
        <ele>683.9</ele>
        <time>2021-08-24T11:10:34Z</time>
      </trkpt>
      <trkpt lat="45.4255" lon="5.83097">
        <ele>683.8</ele>
        <time>2021-08-24T11:10:35Z</time>
      </trkpt>
      <trkpt lat="45.42548" lon="5.83098">
        <ele>683.7</ele>
        <time>2021-08-24T11:10:37Z</time>
      </trkpt>
      <trkpt lat="45.42546" lon="5.831">
        <ele>683.5</ele>
        <time>2021-08-24T11:10:38Z</time>
      </trkpt>
      <trkpt lat="45.42545" lon="5.83101">
        <ele>683.4</ele>
        <time>2021-08-24T11:10:40Z</time>
      </trkpt>
      <trkpt lat="45.42543" lon="5.83102">
        <ele>683.3</ele>
        <time>2021-08-24T11:10:41Z</time>
      </trkpt>
      <trkpt lat="45.42541" lon="5.83104">
        <ele>683.2</ele>
        <time>2021-08-24T11:10:42Z</time>
      </trkpt>
      <trkpt lat="45.4254" lon="5.83105">
        <ele>683.1</ele>
        <time>2021-08-24T11:11:30Z</time>
      </trkpt>
      <trkpt lat="45.42538" lon="5.83106">
        <ele>683</ele>
        <time>2021-08-24T11:11:31Z</time>
      </trkpt>
      <trkpt lat="45.42536" lon="5.83108">
        <ele>682.9</ele>
        <time>2021-08-24T11:11:32Z</time>
      </trkpt>
      <trkpt lat="45.42531" lon="5.83107">
        <ele>682.6</ele>
        <time>2021-08-24T11:11:33Z</time>
      </trkpt>
      <trkpt lat="45.42528" lon="5.83101">
        <ele>682.4</ele>
        <time>2021-08-24T11:11:35Z</time>
      </trkpt>
      <trkpt lat="45.42519" lon="5.83101">
        <ele>682</ele>
        <time>2021-08-24T11:11:37Z</time>
      </trkpt>
      <trkpt lat="45.42516" lon="5.831">
        <ele>681.9</ele>
        <time>2021-08-24T11:11:38Z</time>
      </trkpt>
      <trkpt lat="45.42511" lon="5.83102">
        <ele>681.7</ele>
        <time>2021-08-24T11:11:40Z</time>
      </trkpt>
      <trkpt lat="45.42507" lon="5.83107">
        <ele>681.5</ele>
        <time>2021-08-24T11:11:42Z</time>
      </trkpt>
      <trkpt lat="45.42506" lon="5.83112">
        <ele>681.4</ele>
        <time>2021-08-24T11:11:43Z</time>
      </trkpt>
      <trkpt lat="45.42505" lon="5.83122">
        <ele>681</ele>
        <time>2021-08-24T11:11:45Z</time>
      </trkpt>
      <trkpt lat="45.42504" lon="5.83132">
        <ele>680.6</ele>
        <time>2021-08-24T11:11:46Z</time>
      </trkpt>
      <trkpt lat="45.42503" lon="5.8314">
        <ele>680.2</ele>
        <time>2021-08-24T11:11:47Z</time>
      </trkpt>
      <trkpt lat="45.42503" lon="5.83158">
        <ele>679.3</ele>
        <time>2021-08-24T11:11:49Z</time>
      </trkpt>
      <trkpt lat="45.42502" lon="5.83166">
        <ele>678.9</ele>
        <time>2021-08-24T11:11:50Z</time>
      </trkpt>
      <trkpt lat="45.42501" lon="5.83173">
        <ele>678.6</ele>
        <time>2021-08-24T11:11:51Z</time>
      </trkpt>
      <trkpt lat="45.42498" lon="5.83187">
        <ele>677.7</ele>
        <time>2021-08-24T11:11:53Z</time>
      </trkpt>
      <trkpt lat="45.42494" lon="5.83201">
        <ele>676.8</ele>
        <time>2021-08-24T11:11:55Z</time>
      </trkpt>
      <trkpt lat="45.42487" lon="5.83216">
        <ele>675.5</ele>
        <time>2021-08-24T11:11:57Z</time>
      </trkpt>
      <trkpt lat="45.42482" lon="5.83228">
        <ele>674.5</ele>
        <time>2021-08-24T11:11:59Z</time>
      </trkpt>
      <trkpt lat="45.42479" lon="5.83235">
        <ele>674</ele>
        <time>2021-08-24T11:12:01Z</time>
      </trkpt>
      <trkpt lat="45.42478" lon="5.83239">
        <ele>673.7</ele>
        <time>2021-08-24T11:12:02Z</time>
      </trkpt>
      <trkpt lat="45.42476" lon="5.83246">
        <ele>673.3</ele>
        <time>2021-08-24T11:12:04Z</time>
      </trkpt>
      <trkpt lat="45.42472" lon="5.83253">
        <ele>672.8</ele>
        <time>2021-08-24T11:12:06Z</time>
      </trkpt>
      <trkpt lat="45.4247" lon="5.83257">
        <ele>672.5</ele>
        <time>2021-08-24T11:12:07Z</time>
      </trkpt>
      <trkpt lat="45.42468" lon="5.83261">
        <ele>672.3</ele>
        <time>2021-08-24T11:12:08Z</time>
      </trkpt>
      <trkpt lat="45.42465" lon="5.83264">
        <ele>672</ele>
        <time>2021-08-24T11:12:10Z</time>
      </trkpt>
      <trkpt lat="45.42463" lon="5.83268">
        <ele>671.7</ele>
        <time>2021-08-24T11:12:12Z</time>
      </trkpt>
      <trkpt lat="45.42461" lon="5.83272">
        <ele>671.4</ele>
        <time>2021-08-24T11:12:13Z</time>
      </trkpt>
      <trkpt lat="45.42459" lon="5.83276">
        <ele>671.1</ele>
        <time>2021-08-24T11:12:15Z</time>
      </trkpt>
      <trkpt lat="45.42457" lon="5.83279">
        <ele>670.8</ele>
        <time>2021-08-24T11:12:16Z</time>
      </trkpt>
      <trkpt lat="45.42455" lon="5.83283">
        <ele>670.5</ele>
        <time>2021-08-24T11:13:09Z</time>
      </trkpt>
      <trkpt lat="45.42453" lon="5.83287">
        <ele>670.2</ele>
        <time>2021-08-24T11:13:10Z</time>
      </trkpt>
      <trkpt lat="45.42453" lon="5.83294">
        <ele>669.6</ele>
        <time>2021-08-24T11:13:12Z</time>
      </trkpt>
      <trkpt lat="45.4245" lon="5.83298">
        <ele>669.3</ele>
        <time>2021-08-24T11:13:13Z</time>
      </trkpt>
      <trkpt lat="45.4245" lon="5.83321">
        <ele>667.8</ele>
        <time>2021-08-24T11:13:15Z</time>
      </trkpt>
      <trkpt lat="45.42445" lon="5.83336">
        <ele>666.8</ele>
        <time>2021-08-24T11:13:17Z</time>
      </trkpt>
      <trkpt lat="45.42439" lon="5.83349">
        <ele>665.9</ele>
        <time>2021-08-24T11:13:19Z</time>
      </trkpt>
      <trkpt lat="45.42429" lon="5.8336">
        <ele>665.2</ele>
        <time>2021-08-24T11:13:21Z</time>
      </trkpt>
      <trkpt lat="45.42423" lon="5.83364">
        <ele>664.8</ele>
        <time>2021-08-24T11:13:22Z</time>
      </trkpt>
      <trkpt lat="45.42417" lon="5.83367">
        <ele>664.5</ele>
        <time>2021-08-24T11:13:23Z</time>
      </trkpt>
      <trkpt lat="45.42411" lon="5.8337">
        <ele>664.3</ele>
        <time>2021-08-24T11:13:24Z</time>
      </trkpt>
      <trkpt lat="45.42405" lon="5.83373">
        <ele>664</ele>
        <time>2021-08-24T11:13:25Z</time>
      </trkpt>
      <trkpt lat="45.4239" lon="5.83379">
        <ele>663.4</ele>
        <time>2021-08-24T11:13:27Z</time>
      </trkpt>
      <trkpt lat="45.42377" lon="5.83389">
        <ele>662.7</ele>
        <time>2021-08-24T11:13:29Z</time>
      </trkpt>
      <trkpt lat="45.42371" lon="5.83395">
        <ele>662.3</ele>
        <time>2021-08-24T11:13:30Z</time>
      </trkpt>
      <trkpt lat="45.42365" lon="5.83399">
        <ele>662</ele>
        <time>2021-08-24T11:13:31Z</time>
      </trkpt>
      <trkpt lat="45.42355" lon="5.83406">
        <ele>661.3</ele>
        <time>2021-08-24T11:13:33Z</time>
      </trkpt>
      <trkpt lat="45.4235" lon="5.83409">
        <ele>661</ele>
        <time>2021-08-24T11:13:34Z</time>
      </trkpt>
      <trkpt lat="45.42339" lon="5.83422">
        <ele>660.3</ele>
        <time>2021-08-24T11:13:36Z</time>
      </trkpt>
      <trkpt lat="45.42329" lon="5.83431">
        <ele>659.7</ele>
        <time>2021-08-24T11:13:37Z</time>
      </trkpt>
      <trkpt lat="45.42317" lon="5.83443">
        <ele>658.8</ele>
        <time>2021-08-24T11:13:39Z</time>
      </trkpt>
      <trkpt lat="45.42308" lon="5.83456">
        <ele>657.7</ele>
        <time>2021-08-24T11:13:40Z</time>
      </trkpt>
      <trkpt lat="45.42295" lon="5.83471">
        <ele>655.8</ele>
        <time>2021-08-24T11:13:41Z</time>
      </trkpt>
      <trkpt lat="45.42269" lon="5.83495">
        <ele>652.7</ele>
        <time>2021-08-24T11:13:43Z</time>
      </trkpt>
      <trkpt lat="45.42248" lon="5.83516">
        <ele>650.8</ele>
        <time>2021-08-24T11:13:45Z</time>
      </trkpt>
      <trkpt lat="45.4223" lon="5.83535">
        <ele>649.5</ele>
        <time>2021-08-24T11:13:47Z</time>
      </trkpt>
      <trkpt lat="45.42212" lon="5.83553">
        <ele>649</ele>
        <time>2021-08-24T11:13:49Z</time>
      </trkpt>
      <trkpt lat="45.42195" lon="5.8357">
        <ele>648.9</ele>
        <time>2021-08-24T11:13:51Z</time>
      </trkpt>
      <trkpt lat="45.42186" lon="5.83579">
        <ele>649.2</ele>
        <time>2021-08-24T11:13:52Z</time>
      </trkpt>
      <trkpt lat="45.42177" lon="5.83586">
        <ele>649.5</ele>
        <time>2021-08-24T11:13:53Z</time>
      </trkpt>
      <trkpt lat="45.42159" lon="5.83598">
        <ele>650.5</ele>
        <time>2021-08-24T11:13:55Z</time>
      </trkpt>
      <trkpt lat="45.42144" lon="5.83609">
        <ele>651.6</ele>
        <time>2021-08-24T11:13:57Z</time>
      </trkpt>
      <trkpt lat="45.42133" lon="5.8362">
        <ele>652.4</ele>
        <time>2021-08-24T11:13:59Z</time>
      </trkpt>
      <trkpt lat="45.42127" lon="5.8363">
        <ele>652.9</ele>
        <time>2021-08-24T11:14:01Z</time>
      </trkpt>
      <trkpt lat="45.42116" lon="5.83644">
        <ele>653.3</ele>
        <time>2021-08-24T11:14:03Z</time>
      </trkpt>
      <trkpt lat="45.42106" lon="5.83656">
        <ele>653.3</ele>
        <time>2021-08-24T11:14:05Z</time>
      </trkpt>
      <trkpt lat="45.421" lon="5.83662">
        <ele>653</ele>
        <time>2021-08-24T11:14:06Z</time>
      </trkpt>
      <trkpt lat="45.42095" lon="5.83668">
        <ele>652.6</ele>
        <time>2021-08-24T11:14:07Z</time>
      </trkpt>
      <trkpt lat="45.42082" lon="5.83686">
        <ele>651</ele>
        <time>2021-08-24T11:14:09Z</time>
      </trkpt>
      <trkpt lat="45.42079" lon="5.83691">
        <ele>650.2</ele>
        <time>2021-08-24T11:14:11Z</time>
      </trkpt>
      <trkpt lat="45.42071" lon="5.83704">
        <ele>648.2</ele>
        <time>2021-08-24T11:14:12Z</time>
      </trkpt>
      <trkpt lat="45.42057" lon="5.83726">
        <ele>644.8</ele>
        <time>2021-08-24T11:14:14Z</time>
      </trkpt>
      <trkpt lat="45.42049" lon="5.83736">
        <ele>643.5</ele>
        <time>2021-08-24T11:14:15Z</time>
      </trkpt>
      <trkpt lat="45.42041" lon="5.83744">
        <ele>642.4</ele>
        <time>2021-08-24T11:14:16Z</time>
      </trkpt>
      <trkpt lat="45.42033" lon="5.83753">
        <ele>641.3</ele>
        <time>2021-08-24T11:14:17Z</time>
      </trkpt>
      <trkpt lat="45.42016" lon="5.83769">
        <ele>639.1</ele>
        <time>2021-08-24T11:14:19Z</time>
      </trkpt>
      <trkpt lat="45.42009" lon="5.83776">
        <ele>638</ele>
        <time>2021-08-24T11:14:20Z</time>
      </trkpt>
      <trkpt lat="45.41994" lon="5.83786">
        <ele>635.3</ele>
        <time>2021-08-24T11:14:22Z</time>
      </trkpt>
      <trkpt lat="45.41987" lon="5.83792">
        <ele>633.6</ele>
        <time>2021-08-24T11:14:23Z</time>
      </trkpt>
      <trkpt lat="45.4198" lon="5.83799">
        <ele>631.6</ele>
        <time>2021-08-24T11:14:24Z</time>
      </trkpt>
      <trkpt lat="45.41972" lon="5.83805">
        <ele>629.5</ele>
        <time>2021-08-24T11:14:25Z</time>
      </trkpt>
      <trkpt lat="45.41964" lon="5.83811">
        <ele>627.4</ele>
        <time>2021-08-24T11:14:26Z</time>
      </trkpt>
      <trkpt lat="45.41948" lon="5.83822">
        <ele>624.9</ele>
        <time>2021-08-24T11:14:28Z</time>
      </trkpt>
      <trkpt lat="45.41939" lon="5.83827">
        <ele>623.9</ele>
        <time>2021-08-24T11:14:29Z</time>
      </trkpt>
      <trkpt lat="45.41922" lon="5.83834">
        <ele>624.6</ele>
        <time>2021-08-24T11:14:31Z</time>
      </trkpt>
      <trkpt lat="45.41905" lon="5.83844">
        <ele>628.4</ele>
        <time>2021-08-24T11:14:33Z</time>
      </trkpt>
      <trkpt lat="45.41888" lon="5.83857">
        <ele>633.3</ele>
        <time>2021-08-24T11:14:35Z</time>
      </trkpt>
      <trkpt lat="45.41873" lon="5.83867">
        <ele>640.2</ele>
        <time>2021-08-24T11:14:37Z</time>
      </trkpt>
      <trkpt lat="45.41866" lon="5.8387">
        <ele>641.5</ele>
        <time>2021-08-24T11:14:39Z</time>
      </trkpt>
      <trkpt lat="45.41861" lon="5.83873">
        <ele>643.3</ele>
        <time>2021-08-24T11:14:41Z</time>
      </trkpt>
      <trkpt lat="45.41856" lon="5.83879">
        <ele>643.1</ele>
        <time>2021-08-24T11:14:43Z</time>
      </trkpt>
      <trkpt lat="45.4185" lon="5.83885">
        <ele>643.6</ele>
        <time>2021-08-24T11:14:45Z</time>
      </trkpt>
      <trkpt lat="45.4185" lon="5.83885">
        <ele>642.2</ele>
        <time>2021-08-24T11:14:47Z</time>
      </trkpt>
      <trkpt lat="45.41893" lon="5.8397">
        <ele>619.5</ele>
        <time>2021-08-24T11:15:38Z</time>
      </trkpt>
      <trkpt lat="45.41901" lon="5.83975">
        <ele>620.6</ele>
        <time>2021-08-24T11:15:39Z</time>
      </trkpt>
      <trkpt lat="45.41907" lon="5.83979">
        <ele>621.4</ele>
        <time>2021-08-24T11:15:40Z</time>
      </trkpt>
      <trkpt lat="45.41917" lon="5.83988">
        <ele>622.8</ele>
        <time>2021-08-24T11:15:42Z</time>
      </trkpt>
      <trkpt lat="45.4192" lon="5.83991">
        <ele>623.2</ele>
        <time>2021-08-24T11:15:43Z</time>
      </trkpt>
      <trkpt lat="45.41924" lon="5.83996">
        <ele>623.7</ele>
        <time>2021-08-24T11:15:44Z</time>
      </trkpt>
      <trkpt lat="45.41924" lon="5.84">
        <ele>624.1</ele>
        <time>2021-08-24T11:15:46Z</time>
      </trkpt>
      <trkpt lat="45.41924" lon="5.84001">
        <ele>624.1</ele>
        <time>2021-08-24T11:15:47Z</time>
      </trkpt>
      <trkpt lat="45.41925" lon="5.84003">
        <ele>624.3</ele>
        <time>2021-08-24T11:15:49Z</time>
      </trkpt>
      <trkpt lat="45.41926" lon="5.84004">
        <ele>624.4</ele>
        <time>2021-08-24T11:15:50Z</time>
      </trkpt>
      <trkpt lat="45.41931" lon="5.84005">
        <ele>624.9</ele>
        <time>2021-08-24T11:15:52Z</time>
      </trkpt>
      <trkpt lat="45.41936" lon="5.84005">
        <ele>625.3</ele>
        <time>2021-08-24T11:15:54Z</time>
      </trkpt>
      <trkpt lat="45.4194" lon="5.84005">
        <ele>625.7</ele>
        <time>2021-08-24T11:15:55Z</time>
      </trkpt>
      <trkpt lat="45.41948" lon="5.84006">
        <ele>626.4</ele>
        <time>2021-08-24T11:15:57Z</time>
      </trkpt>
      <trkpt lat="45.4195" lon="5.84007">
        <ele>626.5</ele>
        <time>2021-08-24T11:15:58Z</time>
      </trkpt>
      <trkpt lat="45.41954" lon="5.84008">
        <ele>626.9</ele>
        <time>2021-08-24T11:16:00Z</time>
      </trkpt>
      <trkpt lat="45.41958" lon="5.84012">
        <ele>627.3</ele>
        <time>2021-08-24T11:16:01Z</time>
      </trkpt>
      <trkpt lat="45.41961" lon="5.84016">
        <ele>627.7</ele>
        <time>2021-08-24T11:16:03Z</time>
      </trkpt>
      <trkpt lat="45.41965" lon="5.8402">
        <ele>628.1</ele>
        <time>2021-08-24T11:16:04Z</time>
      </trkpt>
      <trkpt lat="45.41968" lon="5.84024">
        <ele>628.5</ele>
        <time>2021-08-24T11:16:05Z</time>
      </trkpt>
      <trkpt lat="45.41972" lon="5.84028">
        <ele>628.9</ele>
        <time>2021-08-24T11:16:07Z</time>
      </trkpt>
      <trkpt lat="45.41972" lon="5.84029">
        <ele>628.9</ele>
        <time>2021-08-24T11:16:08Z</time>
      </trkpt>
      <trkpt lat="45.41973" lon="5.84032">
        <ele>629.1</ele>
        <time>2021-08-24T11:16:10Z</time>
      </trkpt>
      <trkpt lat="45.41973" lon="5.84033">
        <ele>629.2</ele>
        <time>2021-08-24T11:16:11Z</time>
      </trkpt>
      <trkpt lat="45.41973" lon="5.84033">
        <ele>629.2</ele>
        <time>2021-08-24T11:16:12Z</time>
      </trkpt>
      <trkpt lat="45.41975" lon="5.84035">
        <ele>629.4</ele>
        <time>2021-08-24T11:16:14Z</time>
      </trkpt>
      <trkpt lat="45.41974" lon="5.84037">
        <ele>629.4</ele>
        <time>2021-08-24T11:16:15Z</time>
      </trkpt>
      <trkpt lat="45.41974" lon="5.84038">
        <ele>629.5</ele>
        <time>2021-08-24T11:16:16Z</time>
      </trkpt>
      <trkpt lat="45.41974" lon="5.84038">
        <ele>629.5</ele>
        <time>2021-08-24T11:16:17Z</time>
      </trkpt>
      <trkpt lat="45.41974" lon="5.84039">
        <ele>629.5</ele>
        <time>2021-08-24T11:16:18Z</time>
      </trkpt>
      <trkpt lat="45.41973" lon="5.8404">
        <ele>629.6</ele>
        <time>2021-08-24T11:16:19Z</time>
      </trkpt>
      <trkpt lat="45.41971" lon="5.84043">
        <ele>629.8</ele>
        <time>2021-08-24T11:16:21Z</time>
      </trkpt>
      <trkpt lat="45.41969" lon="5.84046">
        <ele>629.9</ele>
        <time>2021-08-24T11:16:22Z</time>
      </trkpt>
      <trkpt lat="45.41968" lon="5.84049">
        <ele>630</ele>
        <time>2021-08-24T11:16:24Z</time>
      </trkpt>
      <trkpt lat="45.41967" lon="5.84055">
        <ele>630.1</ele>
        <time>2021-08-24T11:16:25Z</time>
      </trkpt>
      <trkpt lat="45.41967" lon="5.84057">
        <ele>630.1</ele>
        <time>2021-08-24T11:16:26Z</time>
      </trkpt>
      <trkpt lat="45.41967" lon="5.84063">
        <ele>630.1</ele>
        <time>2021-08-24T11:16:27Z</time>
      </trkpt>
      <trkpt lat="45.41966" lon="5.84069">
        <ele>630.1</ele>
        <time>2021-08-24T11:16:28Z</time>
      </trkpt>
      <trkpt lat="45.41966" lon="5.84081">
        <ele>629.8</ele>
        <time>2021-08-24T11:16:30Z</time>
      </trkpt>
      <trkpt lat="45.41966" lon="5.84088">
        <ele>629.6</ele>
        <time>2021-08-24T11:16:31Z</time>
      </trkpt>
      <trkpt lat="45.41967" lon="5.84108">
        <ele>628.8</ele>
        <time>2021-08-24T11:16:33Z</time>
      </trkpt>
      <trkpt lat="45.41967" lon="5.84116">
        <ele>628.4</ele>
        <time>2021-08-24T11:16:34Z</time>
      </trkpt>
      <trkpt lat="45.41966" lon="5.84123">
        <ele>628</ele>
        <time>2021-08-24T11:16:35Z</time>
      </trkpt>
      <trkpt lat="45.41966" lon="5.84134">
        <ele>627.5</ele>
        <time>2021-08-24T11:16:37Z</time>
      </trkpt>
      <trkpt lat="45.41967" lon="5.8414">
        <ele>627.2</ele>
        <time>2021-08-24T11:16:38Z</time>
      </trkpt>
      <trkpt lat="45.41969" lon="5.84143">
        <ele>627</ele>
        <time>2021-08-24T11:16:39Z</time>
      </trkpt>
      <trkpt lat="45.41962" lon="5.84147">
        <ele>626.5</ele>
        <time>2021-08-24T11:16:41Z</time>
      </trkpt>
      <trkpt lat="45.41956" lon="5.84152">
        <ele>626</ele>
        <time>2021-08-24T11:16:42Z</time>
      </trkpt>
      <trkpt lat="45.41942" lon="5.84163">
        <ele>625.2</ele>
        <time>2021-08-24T11:16:44Z</time>
      </trkpt>
      <trkpt lat="45.41938" lon="5.84167">
        <ele>625</ele>
        <time>2021-08-24T11:16:45Z</time>
      </trkpt>
      <trkpt lat="45.4193" lon="5.84173">
        <ele>624.8</ele>
        <time>2021-08-24T11:16:47Z</time>
      </trkpt>
      <trkpt lat="45.41924" lon="5.84177">
        <ele>624.7</ele>
        <time>2021-08-24T11:16:48Z</time>
      </trkpt>
      <trkpt lat="45.41912" lon="5.84184">
        <ele>624.8</ele>
        <time>2021-08-24T11:16:50Z</time>
      </trkpt>
      <trkpt lat="45.41903" lon="5.8419">
        <ele>625.2</ele>
        <time>2021-08-24T11:16:53Z</time>
      </trkpt>
      <trkpt lat="45.41897" lon="5.84196">
        <ele>625.6</ele>
        <time>2021-08-24T11:16:55Z</time>
      </trkpt>
      <trkpt lat="45.41892" lon="5.84201">
        <ele>626.1</ele>
        <time>2021-08-24T11:16:56Z</time>
      </trkpt>
      <trkpt lat="45.41885" lon="5.84208">
        <ele>626.8</ele>
        <time>2021-08-24T11:16:58Z</time>
      </trkpt>
      <trkpt lat="45.4188" lon="5.84213">
        <ele>627.5</ele>
        <time>2021-08-24T11:17:00Z</time>
      </trkpt>
      <trkpt lat="45.41877" lon="5.84217">
        <ele>627.9</ele>
        <time>2021-08-24T11:17:01Z</time>
      </trkpt>
      <trkpt lat="45.41875" lon="5.84221">
        <ele>628.4</ele>
        <time>2021-08-24T11:17:03Z</time>
      </trkpt>
      <trkpt lat="45.41873" lon="5.84225">
        <ele>628.8</ele>
        <time>2021-08-24T11:17:04Z</time>
      </trkpt>
      <trkpt lat="45.4187" lon="5.8423">
        <ele>629.3</ele>
        <time>2021-08-24T11:17:06Z</time>
      </trkpt>
      <trkpt lat="45.41869" lon="5.84237">
        <ele>629.8</ele>
        <time>2021-08-24T11:17:08Z</time>
      </trkpt>
      <trkpt lat="45.4187" lon="5.84241">
        <ele>630.2</ele>
        <time>2021-08-24T11:17:10Z</time>
      </trkpt>
      <trkpt lat="45.4187" lon="5.84243">
        <ele>630.4</ele>
        <time>2021-08-24T11:17:11Z</time>
      </trkpt>
      <trkpt lat="45.4187" lon="5.84247">
        <ele>630.7</ele>
        <time>2021-08-24T11:17:13Z</time>
      </trkpt>
      <trkpt lat="45.4187" lon="5.84249">
        <ele>630.9</ele>
        <time>2021-08-24T11:17:14Z</time>
      </trkpt>
      <trkpt lat="45.41871" lon="5.84251">
        <ele>631</ele>
        <time>2021-08-24T11:17:15Z</time>
      </trkpt>
      <trkpt lat="45.4187" lon="5.84254">
        <ele>631.2</ele>
        <time>2021-08-24T11:17:17Z</time>
      </trkpt>
      <trkpt lat="45.41868" lon="5.84292">
        <ele>633.8</ele>
        <time>2021-08-24T11:17:27Z</time>
      </trkpt>
      <trkpt lat="45.41867" lon="5.84298">
        <ele>634.2</ele>
        <time>2021-08-24T11:17:28Z</time>
      </trkpt>
      <trkpt lat="45.41866" lon="5.84303">
        <ele>634.6</ele>
        <time>2021-08-24T11:17:30Z</time>
      </trkpt>
      <trkpt lat="45.41866" lon="5.84309">
        <ele>635</ele>
        <time>2021-08-24T11:17:31Z</time>
      </trkpt>
      <trkpt lat="45.41866" lon="5.84312">
        <ele>635.3</ele>
        <time>2021-08-24T11:17:32Z</time>
      </trkpt>
      <trkpt lat="45.41864" lon="5.84319">
        <ele>635.8</ele>
        <time>2021-08-24T11:17:34Z</time>
      </trkpt>
      <trkpt lat="45.41862" lon="5.84323">
        <ele>636.1</ele>
        <time>2021-08-24T11:17:35Z</time>
      </trkpt>
      <trkpt lat="45.4186" lon="5.84328">
        <ele>636.6</ele>
        <time>2021-08-24T11:17:37Z</time>
      </trkpt>
      <trkpt lat="45.41857" lon="5.84331">
        <ele>637</ele>
        <time>2021-08-24T11:17:38Z</time>
      </trkpt>
      <trkpt lat="45.41855" lon="5.84333">
        <ele>637.3</ele>
        <time>2021-08-24T11:17:39Z</time>
      </trkpt>
      <trkpt lat="45.41852" lon="5.84336">
        <ele>637.8</ele>
        <time>2021-08-24T11:17:41Z</time>
      </trkpt>
      <trkpt lat="45.41849" lon="5.84338">
        <ele>638.2</ele>
        <time>2021-08-24T11:17:42Z</time>
      </trkpt>
      <trkpt lat="45.41847" lon="5.84339">
        <ele>638.5</ele>
        <time>2021-08-24T11:17:43Z</time>
      </trkpt>
      <trkpt lat="45.41844" lon="5.8434">
        <ele>638.8</ele>
        <time>2021-08-24T11:17:45Z</time>
      </trkpt>
      <trkpt lat="45.41842" lon="5.84343">
        <ele>639.3</ele>
        <time>2021-08-24T11:17:46Z</time>
      </trkpt>
      <trkpt lat="45.41841" lon="5.84344">
        <ele>639.4</ele>
        <time>2021-08-24T11:17:48Z</time>
      </trkpt>
      <trkpt lat="45.4184" lon="5.84345">
        <ele>639.5</ele>
        <time>2021-08-24T11:17:49Z</time>
      </trkpt>
      <trkpt lat="45.4184" lon="5.84346">
        <ele>639.6</ele>
        <time>2021-08-24T11:17:51Z</time>
      </trkpt>
      <trkpt lat="45.41839" lon="5.84347">
        <ele>639.8</ele>
        <time>2021-08-24T11:17:52Z</time>
      </trkpt>
      <trkpt lat="45.41837" lon="5.84348">
        <ele>640.1</ele>
        <time>2021-08-24T11:17:54Z</time>
      </trkpt>
      <trkpt lat="45.41836" lon="5.84349">
        <ele>640.2</ele>
        <time>2021-08-24T11:17:55Z</time>
      </trkpt>
      <trkpt lat="45.41816" lon="5.84352">
        <ele>642.6</ele>
        <time>2021-08-24T11:18:09Z</time>
      </trkpt>
      <trkpt lat="45.41813" lon="5.84355">
        <ele>643</ele>
        <time>2021-08-24T11:18:11Z</time>
      </trkpt>
      <trkpt lat="45.41811" lon="5.84356">
        <ele>643.1</ele>
        <time>2021-08-24T11:18:13Z</time>
      </trkpt>
      <trkpt lat="45.4181" lon="5.84356">
        <ele>643.2</ele>
        <time>2021-08-24T11:18:14Z</time>
      </trkpt>
      <trkpt lat="45.41809" lon="5.84357">
        <ele>643.3</ele>
        <time>2021-08-24T11:18:16Z</time>
      </trkpt>
      <trkpt lat="45.41809" lon="5.84358">
        <ele>643.5</ele>
        <time>2021-08-24T11:18:17Z</time>
      </trkpt>
      <trkpt lat="45.41808" lon="5.84361">
        <ele>643.6</ele>
        <time>2021-08-24T11:18:19Z</time>
      </trkpt>
      <trkpt lat="45.41808" lon="5.84363">
        <ele>643.8</ele>
        <time>2021-08-24T11:18:21Z</time>
      </trkpt>
      <trkpt lat="45.41808" lon="5.84366">
        <ele>643.9</ele>
        <time>2021-08-24T11:18:22Z</time>
      </trkpt>
      <trkpt lat="45.41808" lon="5.84368">
        <ele>644.1</ele>
        <time>2021-08-24T11:18:23Z</time>
      </trkpt>
      <trkpt lat="45.41809" lon="5.84371">
        <ele>644.3</ele>
        <time>2021-08-24T11:18:25Z</time>
      </trkpt>
      <trkpt lat="45.41809" lon="5.84374">
        <ele>644.4</ele>
        <time>2021-08-24T11:18:26Z</time>
      </trkpt>
      <trkpt lat="45.4181" lon="5.84375">
        <ele>644.5</ele>
        <time>2021-08-24T11:18:27Z</time>
      </trkpt>
      <trkpt lat="45.41811" lon="5.84377">
        <ele>644.6</ele>
        <time>2021-08-24T11:18:28Z</time>
      </trkpt>
      <trkpt lat="45.41812" lon="5.84378">
        <ele>644.7</ele>
        <time>2021-08-24T11:18:29Z</time>
      </trkpt>
      <trkpt lat="45.41812" lon="5.84379">
        <ele>644.8</ele>
        <time>2021-08-24T11:18:31Z</time>
      </trkpt>
      <trkpt lat="45.41813" lon="5.8438">
        <ele>644.8</ele>
        <time>2021-08-24T11:18:32Z</time>
      </trkpt>
      <trkpt lat="45.41813" lon="5.84385">
        <ele>645</ele>
        <time>2021-08-24T11:18:33Z</time>
      </trkpt>
      <trkpt lat="45.41813" lon="5.84387">
        <ele>645.1</ele>
        <time>2021-08-24T11:18:34Z</time>
      </trkpt>
      <trkpt lat="45.41813" lon="5.84391">
        <ele>645.3</ele>
        <time>2021-08-24T11:18:36Z</time>
      </trkpt>
      <trkpt lat="45.41813" lon="5.84394">
        <ele>645.4</ele>
        <time>2021-08-24T11:18:37Z</time>
      </trkpt>
      <trkpt lat="45.41813" lon="5.84398">
        <ele>645.4</ele>
        <time>2021-08-24T11:18:39Z</time>
      </trkpt>
      <trkpt lat="45.41813" lon="5.84403">
        <ele>645.5</ele>
        <time>2021-08-24T11:18:40Z</time>
      </trkpt>
      <trkpt lat="45.41812" lon="5.84406">
        <ele>645.5</ele>
        <time>2021-08-24T11:18:41Z</time>
      </trkpt>
      <trkpt lat="45.41812" lon="5.84412">
        <ele>645.6</ele>
        <time>2021-08-24T11:18:43Z</time>
      </trkpt>
      <trkpt lat="45.41811" lon="5.84417">
        <ele>645.6</ele>
        <time>2021-08-24T11:18:44Z</time>
      </trkpt>
      <trkpt lat="45.4181" lon="5.84424">
        <ele>645.7</ele>
        <time>2021-08-24T11:18:46Z</time>
      </trkpt>
      <trkpt lat="45.41809" lon="5.84429">
        <ele>645.8</ele>
        <time>2021-08-24T11:18:47Z</time>
      </trkpt>
      <trkpt lat="45.41808" lon="5.84435">
        <ele>645.8</ele>
        <time>2021-08-24T11:18:49Z</time>
      </trkpt>
      <trkpt lat="45.41807" lon="5.8444">
        <ele>645.9</ele>
        <time>2021-08-24T11:18:51Z</time>
      </trkpt>
      <trkpt lat="45.41807" lon="5.84446">
        <ele>645.9</ele>
        <time>2021-08-24T11:18:52Z</time>
      </trkpt>
      <trkpt lat="45.41806" lon="5.84453">
        <ele>646</ele>
        <time>2021-08-24T11:18:54Z</time>
      </trkpt>
      <trkpt lat="45.41805" lon="5.84457">
        <ele>646</ele>
        <time>2021-08-24T11:18:55Z</time>
      </trkpt>
      <trkpt lat="45.41804" lon="5.84461">
        <ele>646</ele>
        <time>2021-08-24T11:18:56Z</time>
      </trkpt>
      <trkpt lat="45.41803" lon="5.84466">
        <ele>646</ele>
        <time>2021-08-24T11:18:57Z</time>
      </trkpt>
      <trkpt lat="45.41802" lon="5.8447">
        <ele>646</ele>
        <time>2021-08-24T11:18:59Z</time>
      </trkpt>
      <trkpt lat="45.41802" lon="5.84474">
        <ele>646</ele>
        <time>2021-08-24T11:19:00Z</time>
      </trkpt>
      <trkpt lat="45.41801" lon="5.84482">
        <ele>645.9</ele>
        <time>2021-08-24T11:19:01Z</time>
      </trkpt>
      <trkpt lat="45.418" lon="5.84488">
        <ele>645.9</ele>
        <time>2021-08-24T11:19:02Z</time>
      </trkpt>
      <trkpt lat="45.418" lon="5.84493">
        <ele>645.8</ele>
        <time>2021-08-24T11:19:04Z</time>
      </trkpt>
      <trkpt lat="45.418" lon="5.84498">
        <ele>645.8</ele>
        <time>2021-08-24T11:19:05Z</time>
      </trkpt>
      <trkpt lat="45.41799" lon="5.84506">
        <ele>645.7</ele>
        <time>2021-08-24T11:19:06Z</time>
      </trkpt>
      <trkpt lat="45.41798" lon="5.84513">
        <ele>645.5</ele>
        <time>2021-08-24T11:19:07Z</time>
      </trkpt>
      <trkpt lat="45.41797" lon="5.84523">
        <ele>645.3</ele>
        <time>2021-08-24T11:19:09Z</time>
      </trkpt>
      <trkpt lat="45.41794" lon="5.84531">
        <ele>645</ele>
        <time>2021-08-24T11:19:10Z</time>
      </trkpt>
      <trkpt lat="45.4179" lon="5.84546">
        <ele>644.4</ele>
        <time>2021-08-24T11:19:12Z</time>
      </trkpt>
      <trkpt lat="45.41788" lon="5.84555">
        <ele>643.8</ele>
        <time>2021-08-24T11:19:13Z</time>
      </trkpt>
      <trkpt lat="45.41785" lon="5.84576">
        <ele>642.3</ele>
        <time>2021-08-24T11:19:15Z</time>
      </trkpt>
      <trkpt lat="45.41784" lon="5.84588">
        <ele>641.4</ele>
        <time>2021-08-24T11:19:16Z</time>
      </trkpt>
      <trkpt lat="45.41784" lon="5.84601">
        <ele>640.5</ele>
        <time>2021-08-24T11:19:17Z</time>
      </trkpt>
      <trkpt lat="45.41782" lon="5.84625">
        <ele>639.3</ele>
        <time>2021-08-24T11:19:19Z</time>
      </trkpt>
      <trkpt lat="45.41778" lon="5.8465">
        <ele>639.1</ele>
        <time>2021-08-24T11:19:21Z</time>
      </trkpt>
      <trkpt lat="45.41775" lon="5.84664">
        <ele>639</ele>
        <time>2021-08-24T11:19:22Z</time>
      </trkpt>
      <trkpt lat="45.41772" lon="5.84677">
        <ele>639</ele>
        <time>2021-08-24T11:19:23Z</time>
      </trkpt>
      <trkpt lat="45.41764" lon="5.84707">
        <ele>639</ele>
        <time>2021-08-24T11:19:25Z</time>
      </trkpt>
      <trkpt lat="45.41758" lon="5.84734">
        <ele>639</ele>
        <time>2021-08-24T11:19:27Z</time>
      </trkpt>
      <trkpt lat="45.41755" lon="5.84746">
        <ele>639.1</ele>
        <time>2021-08-24T11:19:28Z</time>
      </trkpt>
      <trkpt lat="45.41752" lon="5.84757">
        <ele>639.1</ele>
        <time>2021-08-24T11:19:29Z</time>
      </trkpt>
      <trkpt lat="45.41747" lon="5.84781">
        <ele>639.4</ele>
        <time>2021-08-24T11:19:31Z</time>
      </trkpt>
      <trkpt lat="45.41745" lon="5.84792">
        <ele>639.5</ele>
        <time>2021-08-24T11:19:32Z</time>
      </trkpt>
      <trkpt lat="45.41744" lon="5.84803">
        <ele>639.6</ele>
        <time>2021-08-24T11:19:33Z</time>
      </trkpt>
      <trkpt lat="45.41743" lon="5.84813">
        <ele>639.7</ele>
        <time>2021-08-24T11:19:34Z</time>
      </trkpt>
      <trkpt lat="45.41742" lon="5.84823">
        <ele>639.9</ele>
        <time>2021-08-24T11:19:35Z</time>
      </trkpt>
      <trkpt lat="45.4174" lon="5.84842">
        <ele>640.1</ele>
        <time>2021-08-24T11:19:37Z</time>
      </trkpt>
      <trkpt lat="45.41736" lon="5.84861">
        <ele>640.5</ele>
        <time>2021-08-24T11:19:39Z</time>
      </trkpt>
      <trkpt lat="45.41735" lon="5.8487">
        <ele>640.6</ele>
        <time>2021-08-24T11:19:40Z</time>
      </trkpt>
      <trkpt lat="45.41734" lon="5.84887">
        <ele>640.8</ele>
        <time>2021-08-24T11:19:42Z</time>
      </trkpt>
      <trkpt lat="45.41734" lon="5.84896">
        <ele>640.8</ele>
        <time>2021-08-24T11:19:43Z</time>
      </trkpt>
      <trkpt lat="45.41734" lon="5.84911">
        <ele>640.8</ele>
        <time>2021-08-24T11:19:45Z</time>
      </trkpt>
      <trkpt lat="45.41735" lon="5.84919">
        <ele>640.8</ele>
        <time>2021-08-24T11:19:46Z</time>
      </trkpt>
      <trkpt lat="45.41735" lon="5.84926">
        <ele>640.8</ele>
        <time>2021-08-24T11:19:47Z</time>
      </trkpt>
      <trkpt lat="45.41735" lon="5.84934">
        <ele>640.9</ele>
        <time>2021-08-24T11:19:48Z</time>
      </trkpt>
      <trkpt lat="45.41734" lon="5.84941">
        <ele>640.9</ele>
        <time>2021-08-24T11:19:49Z</time>
      </trkpt>
      <trkpt lat="45.41732" lon="5.84955">
        <ele>641</ele>
        <time>2021-08-24T11:19:51Z</time>
      </trkpt>
      <trkpt lat="45.41729" lon="5.8497">
        <ele>641</ele>
        <time>2021-08-24T11:19:53Z</time>
      </trkpt>
      <trkpt lat="45.41726" lon="5.84986">
        <ele>641.1</ele>
        <time>2021-08-24T11:19:55Z</time>
      </trkpt>
      <trkpt lat="45.41725" lon="5.85003">
        <ele>641.1</ele>
        <time>2021-08-24T11:19:57Z</time>
      </trkpt>
      <trkpt lat="45.41724" lon="5.8501">
        <ele>641.2</ele>
        <time>2021-08-24T11:19:58Z</time>
      </trkpt>
      <trkpt lat="45.41724" lon="5.85018">
        <ele>641.2</ele>
        <time>2021-08-24T11:19:59Z</time>
      </trkpt>
      <trkpt lat="45.41722" lon="5.85034">
        <ele>641.3</ele>
        <time>2021-08-24T11:20:01Z</time>
      </trkpt>
      <trkpt lat="45.4172" lon="5.85049">
        <ele>641.4</ele>
        <time>2021-08-24T11:20:03Z</time>
      </trkpt>
      <trkpt lat="45.41721" lon="5.85061">
        <ele>641.4</ele>
        <time>2021-08-24T11:20:05Z</time>
      </trkpt>
      <trkpt lat="45.4172" lon="5.85074">
        <ele>641.4</ele>
        <time>2021-08-24T11:20:07Z</time>
      </trkpt>
      <trkpt lat="45.41719" lon="5.85088">
        <ele>641.4</ele>
        <time>2021-08-24T11:20:09Z</time>
      </trkpt>
      <trkpt lat="45.41718" lon="5.85095">
        <ele>641.5</ele>
        <time>2021-08-24T11:20:10Z</time>
      </trkpt>
      <trkpt lat="45.41717" lon="5.85102">
        <ele>641.5</ele>
        <time>2021-08-24T11:20:11Z</time>
      </trkpt>
      <trkpt lat="45.41715" lon="5.85115">
        <ele>641.6</ele>
        <time>2021-08-24T11:20:13Z</time>
      </trkpt>
      <trkpt lat="45.41714" lon="5.8513">
        <ele>641.7</ele>
        <time>2021-08-24T11:20:15Z</time>
      </trkpt>
      <trkpt lat="45.41713" lon="5.85137">
        <ele>641.7</ele>
        <time>2021-08-24T11:20:16Z</time>
      </trkpt>
      <trkpt lat="45.41713" lon="5.85145">
        <ele>641.8</ele>
        <time>2021-08-24T11:20:17Z</time>
      </trkpt>
      <trkpt lat="45.41713" lon="5.85153">
        <ele>641.8</ele>
        <time>2021-08-24T11:20:18Z</time>
      </trkpt>
      <trkpt lat="45.41712" lon="5.85161">
        <ele>641.9</ele>
        <time>2021-08-24T11:20:19Z</time>
      </trkpt>
      <trkpt lat="45.41711" lon="5.85176">
        <ele>642</ele>
        <time>2021-08-24T11:20:21Z</time>
      </trkpt>
      <trkpt lat="45.4171" lon="5.85183">
        <ele>642.1</ele>
        <time>2021-08-24T11:20:22Z</time>
      </trkpt>
      <trkpt lat="45.41709" lon="5.85198">
        <ele>642.2</ele>
        <time>2021-08-24T11:20:24Z</time>
      </trkpt>
      <trkpt lat="45.41709" lon="5.85205">
        <ele>642.3</ele>
        <time>2021-08-24T11:20:25Z</time>
      </trkpt>
      <trkpt lat="45.41709" lon="5.85219">
        <ele>642.4</ele>
        <time>2021-08-24T11:20:27Z</time>
      </trkpt>
      <trkpt lat="45.41709" lon="5.85226">
        <ele>642.4</ele>
        <time>2021-08-24T11:20:28Z</time>
      </trkpt>
      <trkpt lat="45.4171" lon="5.85233">
        <ele>642.5</ele>
        <time>2021-08-24T11:20:29Z</time>
      </trkpt>
      <trkpt lat="45.41712" lon="5.85245">
        <ele>642.6</ele>
        <time>2021-08-24T11:20:31Z</time>
      </trkpt>
      <trkpt lat="45.41716" lon="5.85258">
        <ele>642.7</ele>
        <time>2021-08-24T11:20:33Z</time>
      </trkpt>
      <trkpt lat="45.41718" lon="5.85264">
        <ele>642.7</ele>
        <time>2021-08-24T11:20:34Z</time>
      </trkpt>
      <trkpt lat="45.41722" lon="5.85276">
        <ele>642.9</ele>
        <time>2021-08-24T11:20:36Z</time>
      </trkpt>
      <trkpt lat="45.41725" lon="5.85283">
        <ele>642.9</ele>
        <time>2021-08-24T11:20:37Z</time>
      </trkpt>
      <trkpt lat="45.4173" lon="5.85295">
        <ele>643.1</ele>
        <time>2021-08-24T11:20:39Z</time>
      </trkpt>
      <trkpt lat="45.41735" lon="5.85308">
        <ele>643.3</ele>
        <time>2021-08-24T11:20:41Z</time>
      </trkpt>
      <trkpt lat="45.41738" lon="5.85314">
        <ele>643.4</ele>
        <time>2021-08-24T11:20:42Z</time>
      </trkpt>
      <trkpt lat="45.41741" lon="5.8532">
        <ele>643.5</ele>
        <time>2021-08-24T11:20:43Z</time>
      </trkpt>
      <trkpt lat="45.41746" lon="5.85331">
        <ele>643.7</ele>
        <time>2021-08-24T11:20:45Z</time>
      </trkpt>
      <trkpt lat="45.41751" lon="5.85341">
        <ele>643.9</ele>
        <time>2021-08-24T11:20:47Z</time>
      </trkpt>
      <trkpt lat="45.41756" lon="5.8535">
        <ele>644</ele>
        <time>2021-08-24T11:20:49Z</time>
      </trkpt>
      <trkpt lat="45.41761" lon="5.85359">
        <ele>644.2</ele>
        <time>2021-08-24T11:20:51Z</time>
      </trkpt>
      <trkpt lat="45.41763" lon="5.85362">
        <ele>644.2</ele>
        <time>2021-08-24T11:20:52Z</time>
      </trkpt>
      <trkpt lat="45.41765" lon="5.85366">
        <ele>644.3</ele>
        <time>2021-08-24T11:20:53Z</time>
      </trkpt>
      <trkpt lat="45.41768" lon="5.85373">
        <ele>644.4</ele>
        <time>2021-08-24T11:20:55Z</time>
      </trkpt>
      <trkpt lat="45.41771" lon="5.85379">
        <ele>644.5</ele>
        <time>2021-08-24T11:20:56Z</time>
      </trkpt>
      <trkpt lat="45.41774" lon="5.85384">
        <ele>644.6</ele>
        <time>2021-08-24T11:20:57Z</time>
      </trkpt>
      <trkpt lat="45.41776" lon="5.85389">
        <ele>644.6</ele>
        <time>2021-08-24T11:20:58Z</time>
      </trkpt>
      <trkpt lat="45.41778" lon="5.85395">
        <ele>644.7</ele>
        <time>2021-08-24T11:20:59Z</time>
      </trkpt>
      <trkpt lat="45.41781" lon="5.85402">
        <ele>644.8</ele>
        <time>2021-08-24T11:21:01Z</time>
      </trkpt>
      <trkpt lat="45.41784" lon="5.85407">
        <ele>644.9</ele>
        <time>2021-08-24T11:21:02Z</time>
      </trkpt>
      <trkpt lat="45.41787" lon="5.85412">
        <ele>645</ele>
        <time>2021-08-24T11:21:03Z</time>
      </trkpt>
      <trkpt lat="45.41789" lon="5.85416">
        <ele>645.1</ele>
        <time>2021-08-24T11:21:04Z</time>
      </trkpt>
      <trkpt lat="45.41792" lon="5.8542">
        <ele>645.2</ele>
        <time>2021-08-24T11:21:05Z</time>
      </trkpt>
      <trkpt lat="45.41795" lon="5.85424">
        <ele>645.3</ele>
        <time>2021-08-24T11:21:06Z</time>
      </trkpt>
      <trkpt lat="45.41798" lon="5.85428">
        <ele>645.4</ele>
        <time>2021-08-24T11:21:07Z</time>
      </trkpt>
      <trkpt lat="45.418" lon="5.85433">
        <ele>645.5</ele>
        <time>2021-08-24T11:21:08Z</time>
      </trkpt>
      <trkpt lat="45.41802" lon="5.85437">
        <ele>645.6</ele>
        <time>2021-08-24T11:21:09Z</time>
      </trkpt>
      <trkpt lat="45.41805" lon="5.85441">
        <ele>645.7</ele>
        <time>2021-08-24T11:21:10Z</time>
      </trkpt>
      <trkpt lat="45.41807" lon="5.85444">
        <ele>645.7</ele>
        <time>2021-08-24T11:21:11Z</time>
      </trkpt>
      <trkpt lat="45.41809" lon="5.85448">
        <ele>645.8</ele>
        <time>2021-08-24T11:21:12Z</time>
      </trkpt>
      <trkpt lat="45.41811" lon="5.85451">
        <ele>645.8</ele>
        <time>2021-08-24T11:21:14Z</time>
      </trkpt>
      <trkpt lat="45.41814" lon="5.85457">
        <ele>645.8</ele>
        <time>2021-08-24T11:21:15Z</time>
      </trkpt>
      <trkpt lat="45.41816" lon="5.85461">
        <ele>645.8</ele>
        <time>2021-08-24T11:21:16Z</time>
      </trkpt>
      <trkpt lat="45.41818" lon="5.85465">
        <ele>645.9</ele>
        <time>2021-08-24T11:21:17Z</time>
      </trkpt>
      <trkpt lat="45.41819" lon="5.85472">
        <ele>645.9</ele>
        <time>2021-08-24T11:21:19Z</time>
      </trkpt>
      <trkpt lat="45.41822" lon="5.85477">
        <ele>645.9</ele>
        <time>2021-08-24T11:21:20Z</time>
      </trkpt>
      <trkpt lat="45.41824" lon="5.85482">
        <ele>646</ele>
        <time>2021-08-24T11:21:21Z</time>
      </trkpt>
      <trkpt lat="45.41825" lon="5.85487">
        <ele>646</ele>
        <time>2021-08-24T11:21:22Z</time>
      </trkpt>
      <trkpt lat="45.41825" lon="5.85496">
        <ele>646.1</ele>
        <time>2021-08-24T11:21:24Z</time>
      </trkpt>
      <trkpt lat="45.41824" lon="5.85501">
        <ele>646</ele>
        <time>2021-08-24T11:21:25Z</time>
      </trkpt>
      <trkpt lat="45.41823" lon="5.85503">
        <ele>646</ele>
        <time>2021-08-24T11:21:27Z</time>
      </trkpt>
      <trkpt lat="45.41823" lon="5.85502">
        <ele>646</ele>
        <time>2021-08-24T11:21:28Z</time>
      </trkpt>
      <trkpt lat="45.41823" lon="5.85502">
        <ele>646</ele>
        <time>2021-08-24T11:21:29Z</time>
      </trkpt>
      <trkpt lat="45.41823" lon="5.85503">
        <ele>646</ele>
        <time>2021-08-24T11:21:31Z</time>
      </trkpt>
      <trkpt lat="45.41823" lon="5.85503">
        <ele>646</ele>
        <time>2021-08-24T11:21:33Z</time>
      </trkpt>
      <trkpt lat="45.41823" lon="5.85503">
        <ele>646</ele>
        <time>2021-08-24T11:21:34Z</time>
      </trkpt>
      <trkpt lat="45.41823" lon="5.85503">
        <ele>646</ele>
        <time>2021-08-24T11:21:35Z</time>
      </trkpt>
      <trkpt lat="45.41796" lon="5.85495">
        <ele>643.8</ele>
        <time>2021-08-24T11:22:16Z</time>
      </trkpt>
      <trkpt lat="45.41791" lon="5.85495">
        <ele>643.7</ele>
        <time>2021-08-24T11:22:18Z</time>
      </trkpt>
      <trkpt lat="45.41788" lon="5.85496">
        <ele>643.7</ele>
        <time>2021-08-24T11:22:19Z</time>
      </trkpt>
      <trkpt lat="45.41784" lon="5.85498">
        <ele>643.6</ele>
        <time>2021-08-24T11:22:20Z</time>
      </trkpt>
      <trkpt lat="45.41783" lon="5.85498">
        <ele>643.6</ele>
        <time>2021-08-24T11:22:21Z</time>
      </trkpt>
      <trkpt lat="45.41781" lon="5.85495">
        <ele>643.6</ele>
        <time>2021-08-24T11:22:22Z</time>
      </trkpt>
      <trkpt lat="45.4178" lon="5.85492">
        <ele>643.6</ele>
        <time>2021-08-24T11:22:23Z</time>
      </trkpt>
      <trkpt lat="45.41779" lon="5.8549">
        <ele>643.5</ele>
        <time>2021-08-24T11:22:24Z</time>
      </trkpt>
      <trkpt lat="45.41777" lon="5.85487">
        <ele>643.5</ele>
        <time>2021-08-24T11:22:26Z</time>
      </trkpt>
      <trkpt lat="45.41776" lon="5.85485">
        <ele>643.5</ele>
        <time>2021-08-24T11:22:28Z</time>
      </trkpt>
      <trkpt lat="45.41775" lon="5.85483">
        <ele>643.5</ele>
        <time>2021-08-24T11:22:29Z</time>
      </trkpt>
      <trkpt lat="45.41774" lon="5.8548">
        <ele>643.5</ele>
        <time>2021-08-24T11:22:31Z</time>
      </trkpt>
      <trkpt lat="45.41773" lon="5.85478">
        <ele>643.5</ele>
        <time>2021-08-24T11:22:32Z</time>
      </trkpt>
      <trkpt lat="45.41772" lon="5.85475">
        <ele>643.5</ele>
        <time>2021-08-24T11:23:03Z</time>
      </trkpt>
      <trkpt lat="45.4177" lon="5.85473">
        <ele>643.5</ele>
        <time>2021-08-24T11:23:04Z</time>
      </trkpt>
      <trkpt lat="45.41768" lon="5.85466">
        <ele>643.5</ele>
        <time>2021-08-24T11:23:05Z</time>
      </trkpt>
      <trkpt lat="45.41765" lon="5.85459">
        <ele>643.5</ele>
        <time>2021-08-24T11:23:07Z</time>
      </trkpt>
      <trkpt lat="45.41763" lon="5.85454">
        <ele>643.4</ele>
        <time>2021-08-24T11:23:08Z</time>
      </trkpt>
      <trkpt lat="45.4176" lon="5.85451">
        <ele>643.4</ele>
        <time>2021-08-24T11:23:09Z</time>
      </trkpt>
      <trkpt lat="45.41757" lon="5.85447">
        <ele>643.4</ele>
        <time>2021-08-24T11:23:10Z</time>
      </trkpt>
      <trkpt lat="45.41754" lon="5.85444">
        <ele>643.4</ele>
        <time>2021-08-24T11:23:11Z</time>
      </trkpt>
      <trkpt lat="45.41752" lon="5.85442">
        <ele>643.4</ele>
        <time>2021-08-24T11:23:12Z</time>
      </trkpt>
      <trkpt lat="45.41749" lon="5.85441">
        <ele>643.4</ele>
        <time>2021-08-24T11:23:13Z</time>
      </trkpt>
      <trkpt lat="45.41744" lon="5.8544">
        <ele>643.4</ele>
        <time>2021-08-24T11:23:15Z</time>
      </trkpt>
      <trkpt lat="45.41739" lon="5.85441">
        <ele>643.4</ele>
        <time>2021-08-24T11:23:17Z</time>
      </trkpt>
      <trkpt lat="45.41733" lon="5.85444">
        <ele>643.5</ele>
        <time>2021-08-24T11:23:18Z</time>
      </trkpt>
      <trkpt lat="45.41729" lon="5.85445">
        <ele>643.5</ele>
        <time>2021-08-24T11:23:19Z</time>
      </trkpt>
      <trkpt lat="45.41724" lon="5.85448">
        <ele>643.5</ele>
        <time>2021-08-24T11:23:21Z</time>
      </trkpt>
      <trkpt lat="45.4172" lon="5.85451">
        <ele>643.5</ele>
        <time>2021-08-24T11:23:22Z</time>
      </trkpt>
      <trkpt lat="45.41713" lon="5.85455">
        <ele>643.6</ele>
        <time>2021-08-24T11:23:24Z</time>
      </trkpt>
      <trkpt lat="45.4171" lon="5.85456">
        <ele>643.6</ele>
        <time>2021-08-24T11:23:25Z</time>
      </trkpt>
      <trkpt lat="45.41704" lon="5.85457">
        <ele>643.7</ele>
        <time>2021-08-24T11:23:27Z</time>
      </trkpt>
      <trkpt lat="45.41699" lon="5.85459">
        <ele>643.7</ele>
        <time>2021-08-24T11:23:28Z</time>
      </trkpt>
      <trkpt lat="45.41692" lon="5.85462">
        <ele>643.7</ele>
        <time>2021-08-24T11:23:30Z</time>
      </trkpt>
      <trkpt lat="45.41688" lon="5.85463">
        <ele>643.8</ele>
        <time>2021-08-24T11:23:31Z</time>
      </trkpt>
      <trkpt lat="45.41684" lon="5.85462">
        <ele>643.8</ele>
        <time>2021-08-24T11:23:33Z</time>
      </trkpt>
      <trkpt lat="45.4168" lon="5.85461">
        <ele>643.9</ele>
        <time>2021-08-24T11:23:34Z</time>
      </trkpt>
      <trkpt lat="45.41677" lon="5.85459">
        <ele>643.9</ele>
        <time>2021-08-24T11:23:35Z</time>
      </trkpt>
      <trkpt lat="45.41675" lon="5.85455">
        <ele>643.9</ele>
        <time>2021-08-24T11:23:36Z</time>
      </trkpt>
      <trkpt lat="45.41674" lon="5.85453">
        <ele>644</ele>
        <time>2021-08-24T11:23:37Z</time>
      </trkpt>
      <trkpt lat="45.41672" lon="5.85449">
        <ele>644</ele>
        <time>2021-08-24T11:23:38Z</time>
      </trkpt>
      <trkpt lat="45.41671" lon="5.85445">
        <ele>644.1</ele>
        <time>2021-08-24T11:23:39Z</time>
      </trkpt>
      <trkpt lat="45.41669" lon="5.85441">
        <ele>644.1</ele>
        <time>2021-08-24T11:23:40Z</time>
      </trkpt>
      <trkpt lat="45.41666" lon="5.85434">
        <ele>644.2</ele>
        <time>2021-08-24T11:23:42Z</time>
      </trkpt>
      <trkpt lat="45.41664" lon="5.85431">
        <ele>644.2</ele>
        <time>2021-08-24T11:23:43Z</time>
      </trkpt>
      <trkpt lat="45.41661" lon="5.85428">
        <ele>644.3</ele>
        <time>2021-08-24T11:23:45Z</time>
      </trkpt>
      <trkpt lat="45.41657" lon="5.85426">
        <ele>644.3</ele>
        <time>2021-08-24T11:23:46Z</time>
      </trkpt>
      <trkpt lat="45.41655" lon="5.85425">
        <ele>644.4</ele>
        <time>2021-08-24T11:23:47Z</time>
      </trkpt>
      <trkpt lat="45.41651" lon="5.85424">
        <ele>644.4</ele>
        <time>2021-08-24T11:23:49Z</time>
      </trkpt>
      <trkpt lat="45.41647" lon="5.85423">
        <ele>644.5</ele>
        <time>2021-08-24T11:23:50Z</time>
      </trkpt>
      <trkpt lat="45.41646" lon="5.85423">
        <ele>644.5</ele>
        <time>2021-08-24T11:23:51Z</time>
      </trkpt>
      <trkpt lat="45.41643" lon="5.85423">
        <ele>644.5</ele>
        <time>2021-08-24T11:23:52Z</time>
      </trkpt>
      <trkpt lat="45.4164" lon="5.85424">
        <ele>644.5</ele>
        <time>2021-08-24T11:23:53Z</time>
      </trkpt>
      <trkpt lat="45.41637" lon="5.85425">
        <ele>644.5</ele>
        <time>2021-08-24T11:23:54Z</time>
      </trkpt>
      <trkpt lat="45.41634" lon="5.85427">
        <ele>644.5</ele>
        <time>2021-08-24T11:23:55Z</time>
      </trkpt>
      <trkpt lat="45.41631" lon="5.85429">
        <ele>644.5</ele>
        <time>2021-08-24T11:23:56Z</time>
      </trkpt>
      <trkpt lat="45.41627" lon="5.85431">
        <ele>644.5</ele>
        <time>2021-08-24T11:23:58Z</time>
      </trkpt>
      <trkpt lat="45.41623" lon="5.85433">
        <ele>644.5</ele>
        <time>2021-08-24T11:23:59Z</time>
      </trkpt>
      <trkpt lat="45.4162" lon="5.85434">
        <ele>644.5</ele>
        <time>2021-08-24T11:24:00Z</time>
      </trkpt>
      <trkpt lat="45.41614" lon="5.85436">
        <ele>644.5</ele>
        <time>2021-08-24T11:24:02Z</time>
      </trkpt>
      <trkpt lat="45.41608" lon="5.85437">
        <ele>644.5</ele>
        <time>2021-08-24T11:24:04Z</time>
      </trkpt>
      <trkpt lat="45.41605" lon="5.85437">
        <ele>644.5</ele>
        <time>2021-08-24T11:24:05Z</time>
      </trkpt>
      <trkpt lat="45.41599" lon="5.85438">
        <ele>644.6</ele>
        <time>2021-08-24T11:24:07Z</time>
      </trkpt>
      <trkpt lat="45.41595" lon="5.85438">
        <ele>644.6</ele>
        <time>2021-08-24T11:24:08Z</time>
      </trkpt>
      <trkpt lat="45.41592" lon="5.85439">
        <ele>644.7</ele>
        <time>2021-08-24T11:24:09Z</time>
      </trkpt>
      <trkpt lat="45.41588" lon="5.8544">
        <ele>644.8</ele>
        <time>2021-08-24T11:24:10Z</time>
      </trkpt>
      <trkpt lat="45.41584" lon="5.85441">
        <ele>644.9</ele>
        <time>2021-08-24T11:24:11Z</time>
      </trkpt>
      <trkpt lat="45.4158" lon="5.85442">
        <ele>645</ele>
        <time>2021-08-24T11:24:12Z</time>
      </trkpt>
      <trkpt lat="45.41577" lon="5.85445">
        <ele>645.1</ele>
        <time>2021-08-24T11:24:13Z</time>
      </trkpt>
      <trkpt lat="45.41574" lon="5.85446">
        <ele>645.2</ele>
        <time>2021-08-24T11:24:14Z</time>
      </trkpt>
      <trkpt lat="45.4157" lon="5.85447">
        <ele>645.4</ele>
        <time>2021-08-24T11:24:15Z</time>
      </trkpt>
      <trkpt lat="45.41569" lon="5.85448">
        <ele>645.4</ele>
        <time>2021-08-24T11:24:16Z</time>
      </trkpt>
      <trkpt lat="45.41566" lon="5.85448">
        <ele>645.5</ele>
        <time>2021-08-24T11:24:17Z</time>
      </trkpt>
      <trkpt lat="45.41562" lon="5.85448">
        <ele>645.6</ele>
        <time>2021-08-24T11:24:19Z</time>
      </trkpt>
      <trkpt lat="45.4156" lon="5.85447">
        <ele>645.7</ele>
        <time>2021-08-24T11:24:20Z</time>
      </trkpt>
      <trkpt lat="45.41557" lon="5.85446">
        <ele>645.8</ele>
        <time>2021-08-24T11:24:21Z</time>
      </trkpt>
      <trkpt lat="45.41554" lon="5.85444">
        <ele>646</ele>
        <time>2021-08-24T11:24:22Z</time>
      </trkpt>
      <trkpt lat="45.41551" lon="5.85443">
        <ele>646.1</ele>
        <time>2021-08-24T11:24:24Z</time>
      </trkpt>
      <trkpt lat="45.41548" lon="5.85441">
        <ele>646.2</ele>
        <time>2021-08-24T11:24:25Z</time>
      </trkpt>
      <trkpt lat="45.41547" lon="5.8544">
        <ele>646.2</ele>
        <time>2021-08-24T11:24:26Z</time>
      </trkpt>
      <trkpt lat="45.41546" lon="5.8544">
        <ele>646.3</ele>
        <time>2021-08-24T11:24:28Z</time>
      </trkpt>
      <trkpt lat="45.41546" lon="5.8544">
        <ele>646.3</ele>
        <time>2021-08-24T11:24:29Z</time>
      </trkpt>
      <trkpt lat="45.41544" lon="5.85441">
        <ele>646.4</ele>
        <time>2021-08-24T11:24:30Z</time>
      </trkpt>
      <trkpt lat="45.41542" lon="5.85442">
        <ele>646.5</ele>
        <time>2021-08-24T11:24:32Z</time>
      </trkpt>
      <trkpt lat="45.41538" lon="5.85443">
        <ele>646.6</ele>
        <time>2021-08-24T11:24:34Z</time>
      </trkpt>
      <trkpt lat="45.41534" lon="5.85444">
        <ele>646.8</ele>
        <time>2021-08-24T11:24:35Z</time>
      </trkpt>
      <trkpt lat="45.41527" lon="5.85443">
        <ele>647.2</ele>
        <time>2021-08-24T11:24:37Z</time>
      </trkpt>
      <trkpt lat="45.41522" lon="5.85443">
        <ele>647.4</ele>
        <time>2021-08-24T11:24:39Z</time>
      </trkpt>
      <trkpt lat="45.41518" lon="5.85443">
        <ele>647.6</ele>
        <time>2021-08-24T11:24:40Z</time>
      </trkpt>
      <trkpt lat="45.41515" lon="5.85445">
        <ele>647.7</ele>
        <time>2021-08-24T11:24:42Z</time>
      </trkpt>
      <trkpt lat="45.41515" lon="5.85446">
        <ele>647.7</ele>
        <time>2021-08-24T11:24:43Z</time>
      </trkpt>
      <trkpt lat="45.41515" lon="5.85447">
        <ele>647.7</ele>
        <time>2021-08-24T11:24:44Z</time>
      </trkpt>
      <trkpt lat="45.41514" lon="5.85448">
        <ele>647.7</ele>
        <time>2021-08-24T11:24:46Z</time>
      </trkpt>
      <trkpt lat="45.41514" lon="5.8545">
        <ele>647.7</ele>
        <time>2021-08-24T11:24:47Z</time>
      </trkpt>
      <trkpt lat="45.41514" lon="5.85451">
        <ele>647.7</ele>
        <time>2021-08-24T11:24:48Z</time>
      </trkpt>
      <trkpt lat="45.41514" lon="5.85452">
        <ele>647.7</ele>
        <time>2021-08-24T11:24:49Z</time>
      </trkpt>
      <trkpt lat="45.41513" lon="5.85453">
        <ele>647.7</ele>
        <time>2021-08-24T11:24:50Z</time>
      </trkpt>
      <trkpt lat="45.41515" lon="5.85461">
        <ele>647.8</ele>
        <time>2021-08-24T11:24:52Z</time>
      </trkpt>
      <trkpt lat="45.41516" lon="5.85465">
        <ele>647.8</ele>
        <time>2021-08-24T11:24:53Z</time>
      </trkpt>
      <trkpt lat="45.41516" lon="5.85469">
        <ele>647.9</ele>
        <time>2021-08-24T11:24:55Z</time>
      </trkpt>
      <trkpt lat="45.41516" lon="5.85473">
        <ele>647.9</ele>
        <time>2021-08-24T11:24:56Z</time>
      </trkpt>
      <trkpt lat="45.41516" lon="5.85477">
        <ele>647.9</ele>
        <time>2021-08-24T11:24:58Z</time>
      </trkpt>
      <trkpt lat="45.41516" lon="5.85478">
        <ele>647.9</ele>
        <time>2021-08-24T11:24:59Z</time>
      </trkpt>
      <trkpt lat="45.41516" lon="5.8548">
        <ele>647.9</ele>
        <time>2021-08-24T11:25:00Z</time>
      </trkpt>
      <trkpt lat="45.41515" lon="5.8548">
        <ele>647.9</ele>
        <time>2021-08-24T11:25:01Z</time>
      </trkpt>
      <trkpt lat="45.41516" lon="5.8548">
        <ele>647.9</ele>
        <time>2021-08-24T11:25:02Z</time>
      </trkpt>
      <trkpt lat="45.41516" lon="5.8548">
        <ele>647.9</ele>
        <time>2021-08-24T11:25:04Z</time>
      </trkpt>
      <trkpt lat="45.41516" lon="5.8548">
        <ele>647.9</ele>
        <time>2021-08-24T11:25:05Z</time>
      </trkpt>
      <trkpt lat="45.41516" lon="5.8548">
        <ele>647.9</ele>
        <time>2021-08-24T11:25:06Z</time>
      </trkpt>
      <trkpt lat="45.41516" lon="5.85481">
        <ele>648</ele>
        <time>2021-08-24T11:25:08Z</time>
      </trkpt>
      <trkpt lat="45.41516" lon="5.85481">
        <ele>648</ele>
        <time>2021-08-24T11:25:10Z</time>
      </trkpt>
      <trkpt lat="45.41487" lon="5.85506">
        <ele>648.8</ele>
        <time>2021-08-24T11:25:54Z</time>
      </trkpt>
      <trkpt lat="45.41488" lon="5.85504">
        <ele>648.8</ele>
        <time>2021-08-24T11:26:01Z</time>
      </trkpt>
      <trkpt lat="45.415" lon="5.85493">
        <ele>648.8</ele>
        <time>2021-08-24T11:26:07Z</time>
      </trkpt>
      <trkpt lat="45.41499" lon="5.85491">
        <ele>648.8</ele>
        <time>2021-08-24T11:26:13Z</time>
      </trkpt>
      <trkpt lat="45.41492" lon="5.85507">
        <ele>648.8</ele>
        <time>2021-08-24T11:26:20Z</time>
      </trkpt>
      <trkpt lat="45.41488" lon="5.85506">
        <ele>648.8</ele>
        <time>2021-08-24T11:26:26Z</time>
      </trkpt>
      <trkpt lat="45.41485" lon="5.85512">
        <ele>648.8</ele>
        <time>2021-08-24T11:26:32Z</time>
      </trkpt>
      <trkpt lat="45.41481" lon="5.85531">
        <ele>648.8</ele>
        <time>2021-08-24T11:26:38Z</time>
      </trkpt>
      <trkpt lat="45.41482" lon="5.85529">
        <ele>648.8</ele>
        <time>2021-08-24T11:26:45Z</time>
      </trkpt>
      <trkpt lat="45.41481" lon="5.8553">
        <ele>648.8</ele>
        <time>2021-08-24T11:26:51Z</time>
      </trkpt>
      <trkpt lat="45.41481" lon="5.85531">
        <ele>648.8</ele>
        <time>2021-08-24T11:26:57Z</time>
      </trkpt>
      <trkpt lat="45.4148" lon="5.85532">
        <ele>648.8</ele>
        <time>2021-08-24T11:26:57Z</time>
      </trkpt>
      <trkpt lat="45.41488" lon="5.85516">
        <ele>648.8</ele>
        <time>2021-08-24T11:27:04Z</time>
      </trkpt>
      <trkpt lat="45.4149" lon="5.85509">
        <ele>648.8</ele>
        <time>2021-08-24T11:27:10Z</time>
      </trkpt>
      <trkpt lat="45.41483" lon="5.85521">
        <ele>648.8</ele>
        <time>2021-08-24T11:27:16Z</time>
      </trkpt>
      <trkpt lat="45.41485" lon="5.85516">
        <ele>648.8</ele>
        <time>2021-08-24T11:27:23Z</time>
      </trkpt>
      <trkpt lat="45.41486" lon="5.85513">
        <ele>648.8</ele>
        <time>2021-08-24T11:27:29Z</time>
      </trkpt>
      <trkpt lat="45.41487" lon="5.85511">
        <ele>648.8</ele>
        <time>2021-08-24T11:27:29Z</time>
      </trkpt>
      <trkpt lat="45.41495" lon="5.85497">
        <ele>648.8</ele>
        <time>2021-08-24T11:27:35Z</time>
      </trkpt>
      <trkpt lat="45.41498" lon="5.85485">
        <ele>648.8</ele>
        <time>2021-08-24T11:27:41Z</time>
      </trkpt>
      <trkpt lat="45.41498" lon="5.8549">
        <ele>648.8</ele>
        <time>2021-08-24T11:27:48Z</time>
      </trkpt>
      <trkpt lat="45.41499" lon="5.85499">
        <ele>648.8</ele>
        <time>2021-08-24T11:27:54Z</time>
      </trkpt>
      <trkpt lat="45.41504" lon="5.85493">
        <ele>648.8</ele>
        <time>2021-08-24T11:28:00Z</time>
      </trkpt>
      <trkpt lat="45.41499" lon="5.85502">
        <ele>648.7</ele>
        <time>2021-08-24T11:28:07Z</time>
      </trkpt>
      <trkpt lat="45.41491" lon="5.85521">
        <ele>648.7</ele>
        <time>2021-08-24T11:28:13Z</time>
      </trkpt>
      <trkpt lat="45.415" lon="5.85502">
        <ele>648.7</ele>
        <time>2021-08-24T11:28:19Z</time>
      </trkpt>
      <trkpt lat="45.41498" lon="5.85501">
        <ele>648.7</ele>
        <time>2021-08-24T11:28:26Z</time>
      </trkpt>
      <trkpt lat="45.41477" lon="5.85526">
        <ele>648.7</ele>
        <time>2021-08-24T11:28:32Z</time>
      </trkpt>
      <trkpt lat="45.41479" lon="5.85523">
        <ele>648.7</ele>
        <time>2021-08-24T11:28:38Z</time>
      </trkpt>
      <trkpt lat="45.41483" lon="5.85517">
        <ele>648.7</ele>
        <time>2021-08-24T11:28:44Z</time>
      </trkpt>
      <trkpt lat="45.41485" lon="5.85517">
        <ele>648.7</ele>
        <time>2021-08-24T11:28:51Z</time>
      </trkpt>
      <trkpt lat="45.415" lon="5.85496">
        <ele>648.7</ele>
        <time>2021-08-24T11:29:03Z</time>
      </trkpt>
      <trkpt lat="45.415" lon="5.85496">
        <ele>648.7</ele>
        <time>2021-08-24T11:29:10Z</time>
      </trkpt>
      <trkpt lat="45.41499" lon="5.85498">
        <ele>648.7</ele>
        <time>2021-08-24T11:29:11Z</time>
      </trkpt>
      <trkpt lat="45.41497" lon="5.855">
        <ele>648.7</ele>
        <time>2021-08-24T11:29:12Z</time>
      </trkpt>
      <trkpt lat="45.41496" lon="5.85502">
        <ele>648.7</ele>
        <time>2021-08-24T11:29:14Z</time>
      </trkpt>
      <trkpt lat="45.41496" lon="5.85497">
        <ele>648.7</ele>
        <time>2021-08-24T11:29:16Z</time>
      </trkpt>
      <trkpt lat="45.41496" lon="5.85496">
        <ele>648.7</ele>
        <time>2021-08-24T11:29:17Z</time>
      </trkpt>
      <trkpt lat="45.41497" lon="5.85493">
        <ele>648.7</ele>
        <time>2021-08-24T11:29:19Z</time>
      </trkpt>
      <trkpt lat="45.41497" lon="5.85493">
        <ele>648.7</ele>
        <time>2021-08-24T11:29:20Z</time>
      </trkpt>
      <trkpt lat="45.41496" lon="5.8549">
        <ele>648.7</ele>
        <time>2021-08-24T11:29:22Z</time>
      </trkpt>
      <trkpt lat="45.41496" lon="5.85487">
        <ele>648.7</ele>
        <time>2021-08-24T11:29:23Z</time>
      </trkpt>
      <trkpt lat="45.41494" lon="5.85483">
        <ele>648.7</ele>
        <time>2021-08-24T11:29:25Z</time>
      </trkpt>
      <trkpt lat="45.41493" lon="5.85471">
        <ele>648.7</ele>
        <time>2021-08-24T11:29:29Z</time>
      </trkpt>
      <trkpt lat="45.41489" lon="5.85464">
        <ele>648.7</ele>
        <time>2021-08-24T11:29:30Z</time>
      </trkpt>
      <trkpt lat="45.41486" lon="5.85459">
        <ele>648.8</ele>
        <time>2021-08-24T11:29:31Z</time>
      </trkpt>
      <trkpt lat="45.41481" lon="5.85455">
        <ele>648.9</ele>
        <time>2021-08-24T11:29:33Z</time>
      </trkpt>
      <trkpt lat="45.41474" lon="5.85451">
        <ele>649</ele>
        <time>2021-08-24T11:29:34Z</time>
      </trkpt>
      <trkpt lat="45.41468" lon="5.85449">
        <ele>649.1</ele>
        <time>2021-08-24T11:29:36Z</time>
      </trkpt>
      <trkpt lat="45.41465" lon="5.85449">
        <ele>649.2</ele>
        <time>2021-08-24T11:29:37Z</time>
      </trkpt>
      <trkpt lat="45.41459" lon="5.85449">
        <ele>649.3</ele>
        <time>2021-08-24T11:29:38Z</time>
      </trkpt>
      <trkpt lat="45.41456" lon="5.85449">
        <ele>649.4</ele>
        <time>2021-08-24T11:29:39Z</time>
      </trkpt>
      <trkpt lat="45.4145" lon="5.85448">
        <ele>649.5</ele>
        <time>2021-08-24T11:29:41Z</time>
      </trkpt>
      <trkpt lat="45.41448" lon="5.85446">
        <ele>649.5</ele>
        <time>2021-08-24T11:29:42Z</time>
      </trkpt>
      <trkpt lat="45.41447" lon="5.85445">
        <ele>649.6</ele>
        <time>2021-08-24T11:29:43Z</time>
      </trkpt>
      <trkpt lat="45.41444" lon="5.8544">
        <ele>649.6</ele>
        <time>2021-08-24T11:29:45Z</time>
      </trkpt>
      <trkpt lat="45.41443" lon="5.85439">
        <ele>649.8</ele>
        <time>2021-08-24T11:29:46Z</time>
      </trkpt>
      <trkpt lat="45.41442" lon="5.85439">
        <ele>649.8</ele>
        <time>2021-08-24T11:29:47Z</time>
      </trkpt>
      <trkpt lat="45.41441" lon="5.85437">
        <ele>649.8</ele>
        <time>2021-08-24T11:29:49Z</time>
      </trkpt>
      <trkpt lat="45.4144" lon="5.85436">
        <ele>649.8</ele>
        <time>2021-08-24T11:29:50Z</time>
      </trkpt>
      <trkpt lat="45.41438" lon="5.85434">
        <ele>649.8</ele>
        <time>2021-08-24T11:29:52Z</time>
      </trkpt>
      <trkpt lat="45.41378" lon="5.85384">
        <ele>652.2</ele>
        <time>2021-08-24T11:30:13Z</time>
      </trkpt>
      <trkpt lat="45.41374" lon="5.85382">
        <ele>652.4</ele>
        <time>2021-08-24T11:30:14Z</time>
      </trkpt>
      <trkpt lat="45.41366" lon="5.85381">
        <ele>652.7</ele>
        <time>2021-08-24T11:30:16Z</time>
      </trkpt>
      <trkpt lat="45.41359" lon="5.85384">
        <ele>653</ele>
        <time>2021-08-24T11:30:18Z</time>
      </trkpt>
      <trkpt lat="45.41355" lon="5.85385">
        <ele>653.2</ele>
        <time>2021-08-24T11:30:19Z</time>
      </trkpt>
      <trkpt lat="45.41348" lon="5.85388">
        <ele>653.4</ele>
        <time>2021-08-24T11:30:21Z</time>
      </trkpt>
      <trkpt lat="45.41342" lon="5.85389">
        <ele>653.5</ele>
        <time>2021-08-24T11:30:23Z</time>
      </trkpt>
      <trkpt lat="45.41339" lon="5.85389">
        <ele>653.6</ele>
        <time>2021-08-24T11:30:24Z</time>
      </trkpt>
      <trkpt lat="45.41338" lon="5.85389">
        <ele>653.6</ele>
        <time>2021-08-24T11:30:25Z</time>
      </trkpt>
      <trkpt lat="45.41334" lon="5.85388">
        <ele>653.7</ele>
        <time>2021-08-24T11:30:27Z</time>
      </trkpt>
      <trkpt lat="45.41331" lon="5.85386">
        <ele>653.8</ele>
        <time>2021-08-24T11:30:28Z</time>
      </trkpt>
      <trkpt lat="45.41329" lon="5.85384">
        <ele>653.9</ele>
        <time>2021-08-24T11:30:29Z</time>
      </trkpt>
      <trkpt lat="45.41325" lon="5.85382">
        <ele>654.1</ele>
        <time>2021-08-24T11:30:31Z</time>
      </trkpt>
      <trkpt lat="45.41322" lon="5.8538">
        <ele>654.2</ele>
        <time>2021-08-24T11:30:32Z</time>
      </trkpt>
      <trkpt lat="45.41319" lon="5.85377">
        <ele>654.4</ele>
        <time>2021-08-24T11:30:33Z</time>
      </trkpt>
      <trkpt lat="45.41318" lon="5.85376">
        <ele>654.5</ele>
        <time>2021-08-24T11:30:34Z</time>
      </trkpt>
      <trkpt lat="45.41317" lon="5.85374">
        <ele>654.6</ele>
        <time>2021-08-24T11:30:35Z</time>
      </trkpt>
      <trkpt lat="45.41314" lon="5.8537">
        <ele>654.8</ele>
        <time>2021-08-24T11:30:37Z</time>
      </trkpt>
      <trkpt lat="45.41311" lon="5.85367">
        <ele>654.9</ele>
        <time>2021-08-24T11:30:39Z</time>
      </trkpt>
      <trkpt lat="45.41308" lon="5.85363">
        <ele>655.1</ele>
        <time>2021-08-24T11:30:40Z</time>
      </trkpt>
      <trkpt lat="45.41308" lon="5.85363">
        <ele>655.2</ele>
        <time>2021-08-24T11:30:41Z</time>
      </trkpt>
      <trkpt lat="45.41306" lon="5.85361">
        <ele>655.2</ele>
        <time>2021-08-24T11:30:42Z</time>
      </trkpt>
      <trkpt lat="45.41303" lon="5.85356">
        <ele>655.3</ele>
        <time>2021-08-24T11:30:44Z</time>
      </trkpt>
      <trkpt lat="45.413" lon="5.85355">
        <ele>655.4</ele>
        <time>2021-08-24T11:30:46Z</time>
      </trkpt>
      <trkpt lat="45.41297" lon="5.85354">
        <ele>655.5</ele>
        <time>2021-08-24T11:30:47Z</time>
      </trkpt>
      <trkpt lat="45.41292" lon="5.85351">
        <ele>655.6</ele>
        <time>2021-08-24T11:30:49Z</time>
      </trkpt>
      <trkpt lat="45.41288" lon="5.8535">
        <ele>655.8</ele>
        <time>2021-08-24T11:30:51Z</time>
      </trkpt>
      <trkpt lat="45.41284" lon="5.85349">
        <ele>656.2</ele>
        <time>2021-08-24T11:30:53Z</time>
      </trkpt>
      <trkpt lat="45.41281" lon="5.85348">
        <ele>656.4</ele>
        <time>2021-08-24T11:30:54Z</time>
      </trkpt>
      <trkpt lat="45.41279" lon="5.85346">
        <ele>656.7</ele>
        <time>2021-08-24T11:30:56Z</time>
      </trkpt>
      <trkpt lat="45.41277" lon="5.85344">
        <ele>656.9</ele>
        <time>2021-08-24T11:30:57Z</time>
      </trkpt>
      <trkpt lat="45.41274" lon="5.85342">
        <ele>657.2</ele>
        <time>2021-08-24T11:30:59Z</time>
      </trkpt>
      <trkpt lat="45.41271" lon="5.8534">
        <ele>657.5</ele>
        <time>2021-08-24T11:31:01Z</time>
      </trkpt>
      <trkpt lat="45.41269" lon="5.85339">
        <ele>657.7</ele>
        <time>2021-08-24T11:31:02Z</time>
      </trkpt>
      <trkpt lat="45.41266" lon="5.85338">
        <ele>658</ele>
        <time>2021-08-24T11:31:04Z</time>
      </trkpt>
      <trkpt lat="45.41263" lon="5.85337">
        <ele>658.3</ele>
        <time>2021-08-24T11:31:05Z</time>
      </trkpt>
      <trkpt lat="45.4126" lon="5.85336">
        <ele>658.6</ele>
        <time>2021-08-24T11:31:06Z</time>
      </trkpt>
      <trkpt lat="45.41259" lon="5.85335">
        <ele>658.7</ele>
        <time>2021-08-24T11:31:07Z</time>
      </trkpt>
      <trkpt lat="45.41255" lon="5.85334">
        <ele>659</ele>
        <time>2021-08-24T11:31:09Z</time>
      </trkpt>
      <trkpt lat="45.41252" lon="5.85332">
        <ele>659.3</ele>
        <time>2021-08-24T11:31:10Z</time>
      </trkpt>
      <trkpt lat="45.41249" lon="5.85331">
        <ele>659.6</ele>
        <time>2021-08-24T11:31:12Z</time>
      </trkpt>
      <trkpt lat="45.41246" lon="5.8533">
        <ele>659.9</ele>
        <time>2021-08-24T11:31:13Z</time>
      </trkpt>
      <trkpt lat="45.41242" lon="5.85329">
        <ele>660.3</ele>
        <time>2021-08-24T11:31:15Z</time>
      </trkpt>
      <trkpt lat="45.41239" lon="5.85328">
        <ele>660.6</ele>
        <time>2021-08-24T11:31:16Z</time>
      </trkpt>
      <trkpt lat="45.41237" lon="5.85327">
        <ele>660.7</ele>
        <time>2021-08-24T11:31:17Z</time>
      </trkpt>
      <trkpt lat="45.41235" lon="5.85326">
        <ele>660.9</ele>
        <time>2021-08-24T11:31:19Z</time>
      </trkpt>
      <trkpt lat="45.41232" lon="5.85326">
        <ele>661.2</ele>
        <time>2021-08-24T11:31:20Z</time>
      </trkpt>
      <trkpt lat="45.41227" lon="5.85324">
        <ele>661.6</ele>
        <time>2021-08-24T11:31:22Z</time>
      </trkpt>
      <trkpt lat="45.41225" lon="5.85323">
        <ele>661.8</ele>
        <time>2021-08-24T11:31:23Z</time>
      </trkpt>
      <trkpt lat="45.41221" lon="5.85321">
        <ele>662.2</ele>
        <time>2021-08-24T11:31:25Z</time>
      </trkpt>
      <trkpt lat="45.41218" lon="5.85318">
        <ele>662.4</ele>
        <time>2021-08-24T11:31:26Z</time>
      </trkpt>
      <trkpt lat="45.41215" lon="5.85315">
        <ele>662.9</ele>
        <time>2021-08-24T11:31:28Z</time>
      </trkpt>
      <trkpt lat="45.41213" lon="5.85311">
        <ele>663.2</ele>
        <time>2021-08-24T11:31:29Z</time>
      </trkpt>
      <trkpt lat="45.41209" lon="5.85306">
        <ele>663.7</ele>
        <time>2021-08-24T11:31:31Z</time>
      </trkpt>
      <trkpt lat="45.41206" lon="5.85301">
        <ele>664.1</ele>
        <time>2021-08-24T11:31:33Z</time>
      </trkpt>
      <trkpt lat="45.41203" lon="5.85298">
        <ele>664.5</ele>
        <time>2021-08-24T11:31:34Z</time>
      </trkpt>
      <trkpt lat="45.41201" lon="5.85296">
        <ele>664.8</ele>
        <time>2021-08-24T11:31:35Z</time>
      </trkpt>
      <trkpt lat="45.41197" lon="5.85293">
        <ele>665.2</ele>
        <time>2021-08-24T11:31:37Z</time>
      </trkpt>
      <trkpt lat="45.41195" lon="5.8529">
        <ele>665.5</ele>
        <time>2021-08-24T11:31:38Z</time>
      </trkpt>
      <trkpt lat="45.41192" lon="5.85287">
        <ele>665.9</ele>
        <time>2021-08-24T11:31:40Z</time>
      </trkpt>
      <trkpt lat="45.41189" lon="5.85283">
        <ele>666.4</ele>
        <time>2021-08-24T11:31:42Z</time>
      </trkpt>
      <trkpt lat="45.41188" lon="5.85282">
        <ele>666.5</ele>
        <time>2021-08-24T11:31:43Z</time>
      </trkpt>
      <trkpt lat="45.41187" lon="5.85281">
        <ele>666.6</ele>
        <time>2021-08-24T11:31:44Z</time>
      </trkpt>
      <trkpt lat="45.41184" lon="5.85279">
        <ele>667</ele>
        <time>2021-08-24T11:31:46Z</time>
      </trkpt>
      <trkpt lat="45.41183" lon="5.85278">
        <ele>667.2</ele>
        <time>2021-08-24T11:31:47Z</time>
      </trkpt>
      <trkpt lat="45.4118" lon="5.85276">
        <ele>667.5</ele>
        <time>2021-08-24T11:31:49Z</time>
      </trkpt>
      <trkpt lat="45.41176" lon="5.85276">
        <ele>667.9</ele>
        <time>2021-08-24T11:31:51Z</time>
      </trkpt>
      <trkpt lat="45.41175" lon="5.85276">
        <ele>668.1</ele>
        <time>2021-08-24T11:31:52Z</time>
      </trkpt>
      <trkpt lat="45.41172" lon="5.85277">
        <ele>668.5</ele>
        <time>2021-08-24T11:31:54Z</time>
      </trkpt>
      <trkpt lat="45.41168" lon="5.85279">
        <ele>668.8</ele>
        <time>2021-08-24T11:31:55Z</time>
      </trkpt>
      <trkpt lat="45.41165" lon="5.8528">
        <ele>669.2</ele>
        <time>2021-08-24T11:31:57Z</time>
      </trkpt>
      <trkpt lat="45.41163" lon="5.8528">
        <ele>669.4</ele>
        <time>2021-08-24T11:31:58Z</time>
      </trkpt>
      <trkpt lat="45.41161" lon="5.85278">
        <ele>669.6</ele>
        <time>2021-08-24T11:32:00Z</time>
      </trkpt>
      <trkpt lat="45.4116" lon="5.85277">
        <ele>669.8</ele>
        <time>2021-08-24T11:32:02Z</time>
      </trkpt>
      <trkpt lat="45.41159" lon="5.85274">
        <ele>670</ele>
        <time>2021-08-24T11:32:03Z</time>
      </trkpt>
      <trkpt lat="45.41158" lon="5.85273">
        <ele>670.1</ele>
        <time>2021-08-24T11:32:04Z</time>
      </trkpt>
      <trkpt lat="45.41157" lon="5.85272">
        <ele>670.3</ele>
        <time>2021-08-24T11:32:05Z</time>
      </trkpt>
      <trkpt lat="45.41155" lon="5.85271">
        <ele>670.4</ele>
        <time>2021-08-24T11:32:06Z</time>
      </trkpt>
      <trkpt lat="45.41155" lon="5.8527">
        <ele>670.5</ele>
        <time>2021-08-24T11:32:08Z</time>
      </trkpt>
      <trkpt lat="45.41155" lon="5.8527">
        <ele>670.5</ele>
        <time>2021-08-24T11:32:09Z</time>
      </trkpt>
      <trkpt lat="45.41154" lon="5.85269">
        <ele>670.7</ele>
        <time>2021-08-24T11:32:11Z</time>
      </trkpt>
      <trkpt lat="45.41152" lon="5.85269">
        <ele>670.8</ele>
        <time>2021-08-24T11:32:13Z</time>
      </trkpt>
      <trkpt lat="45.41151" lon="5.85269">
        <ele>670.9</ele>
        <time>2021-08-24T11:32:14Z</time>
      </trkpt>
      <trkpt lat="45.41149" lon="5.85269">
        <ele>671.1</ele>
        <time>2021-08-24T11:32:15Z</time>
      </trkpt>
      <trkpt lat="45.41149" lon="5.85269">
        <ele>671.1</ele>
        <time>2021-08-24T11:32:17Z</time>
      </trkpt>
      <trkpt lat="45.41147" lon="5.8527">
        <ele>671.3</ele>
        <time>2021-08-24T11:32:18Z</time>
      </trkpt>
      <trkpt lat="45.41146" lon="5.85271">
        <ele>671.4</ele>
        <time>2021-08-24T11:32:19Z</time>
      </trkpt>
      <trkpt lat="45.41144" lon="5.85272">
        <ele>671.6</ele>
        <time>2021-08-24T11:32:21Z</time>
      </trkpt>
      <trkpt lat="45.41143" lon="5.85274">
        <ele>671.7</ele>
        <time>2021-08-24T11:32:22Z</time>
      </trkpt>
      <trkpt lat="45.41142" lon="5.85276">
        <ele>671.9</ele>
        <time>2021-08-24T11:32:23Z</time>
      </trkpt>
      <trkpt lat="45.41139" lon="5.85277">
        <ele>672.1</ele>
        <time>2021-08-24T11:32:25Z</time>
      </trkpt>
      <trkpt lat="45.41136" lon="5.85279">
        <ele>672.4</ele>
        <time>2021-08-24T11:32:27Z</time>
      </trkpt>
      <trkpt lat="45.41135" lon="5.85279">
        <ele>672.5</ele>
        <time>2021-08-24T11:32:28Z</time>
      </trkpt>
      <trkpt lat="45.41134" lon="5.8528">
        <ele>672.7</ele>
        <time>2021-08-24T11:32:29Z</time>
      </trkpt>
      <trkpt lat="45.41132" lon="5.85281">
        <ele>672.8</ele>
        <time>2021-08-24T11:32:30Z</time>
      </trkpt>
      <trkpt lat="45.41128" lon="5.85281">
        <ele>673.2</ele>
        <time>2021-08-24T11:32:32Z</time>
      </trkpt>
      <trkpt lat="45.41126" lon="5.85281">
        <ele>673.4</ele>
        <time>2021-08-24T11:32:34Z</time>
      </trkpt>
      <trkpt lat="45.41125" lon="5.85281">
        <ele>673.5</ele>
        <time>2021-08-24T11:32:35Z</time>
      </trkpt>
      <trkpt lat="45.41124" lon="5.8528">
        <ele>673.6</ele>
        <time>2021-08-24T11:32:36Z</time>
      </trkpt>
      <trkpt lat="45.41123" lon="5.85279">
        <ele>673.8</ele>
        <time>2021-08-24T11:32:37Z</time>
      </trkpt>
      <trkpt lat="45.4112" lon="5.85275">
        <ele>674.1</ele>
        <time>2021-08-24T11:32:39Z</time>
      </trkpt>
      <trkpt lat="45.41119" lon="5.85273">
        <ele>674.3</ele>
        <time>2021-08-24T11:32:40Z</time>
      </trkpt>
      <trkpt lat="45.41118" lon="5.85271">
        <ele>674.4</ele>
        <time>2021-08-24T11:32:41Z</time>
      </trkpt>
      <trkpt lat="45.41117" lon="5.85267">
        <ele>674.7</ele>
        <time>2021-08-24T11:32:43Z</time>
      </trkpt>
      <trkpt lat="45.41116" lon="5.85262">
        <ele>675</ele>
        <time>2021-08-24T11:32:45Z</time>
      </trkpt>
      <trkpt lat="45.41116" lon="5.8526">
        <ele>675.2</ele>
        <time>2021-08-24T11:32:46Z</time>
      </trkpt>
      <trkpt lat="45.41114" lon="5.85258">
        <ele>675.4</ele>
        <time>2021-08-24T11:32:48Z</time>
      </trkpt>
      <trkpt lat="45.41113" lon="5.85254">
        <ele>675.7</ele>
        <time>2021-08-24T11:32:49Z</time>
      </trkpt>
      <trkpt lat="45.41113" lon="5.85253">
        <ele>675.7</ele>
        <time>2021-08-24T11:32:50Z</time>
      </trkpt>
      <trkpt lat="45.41112" lon="5.85251">
        <ele>675.9</ele>
        <time>2021-08-24T11:32:51Z</time>
      </trkpt>
      <trkpt lat="45.41111" lon="5.85248">
        <ele>676.1</ele>
        <time>2021-08-24T11:32:53Z</time>
      </trkpt>
      <trkpt lat="45.4111" lon="5.85246">
        <ele>676.2</ele>
        <time>2021-08-24T11:32:54Z</time>
      </trkpt>
      <trkpt lat="45.41109" lon="5.85245">
        <ele>676.4</ele>
        <time>2021-08-24T11:32:55Z</time>
      </trkpt>
      <trkpt lat="45.41108" lon="5.85242">
        <ele>676.6</ele>
        <time>2021-08-24T11:32:57Z</time>
      </trkpt>
      <trkpt lat="45.41107" lon="5.8524">
        <ele>676.8</ele>
        <time>2021-08-24T11:32:59Z</time>
      </trkpt>
      <trkpt lat="45.41106" lon="5.85236">
        <ele>677</ele>
        <time>2021-08-24T11:33:00Z</time>
      </trkpt>
      <trkpt lat="45.41105" lon="5.85235">
        <ele>677.1</ele>
        <time>2021-08-24T11:33:01Z</time>
      </trkpt>
      <trkpt lat="45.41103" lon="5.85229">
        <ele>677.5</ele>
        <time>2021-08-24T11:33:03Z</time>
      </trkpt>
      <trkpt lat="45.41102" lon="5.85228">
        <ele>677.7</ele>
        <time>2021-08-24T11:33:04Z</time>
      </trkpt>
      <trkpt lat="45.411" lon="5.85227">
        <ele>677.8</ele>
        <time>2021-08-24T11:33:06Z</time>
      </trkpt>
      <trkpt lat="45.41099" lon="5.85226">
        <ele>678</ele>
        <time>2021-08-24T11:33:07Z</time>
      </trkpt>
      <trkpt lat="45.41098" lon="5.85225">
        <ele>678.3</ele>
        <time>2021-08-24T11:33:09Z</time>
      </trkpt>
      <trkpt lat="45.41096" lon="5.85224">
        <ele>678.6</ele>
        <time>2021-08-24T11:33:11Z</time>
      </trkpt>
      <trkpt lat="45.41095" lon="5.85223">
        <ele>678.8</ele>
        <time>2021-08-24T11:33:12Z</time>
      </trkpt>
      <trkpt lat="45.41094" lon="5.85221">
        <ele>679</ele>
        <time>2021-08-24T11:33:13Z</time>
      </trkpt>
      <trkpt lat="45.41091" lon="5.8522">
        <ele>679.5</ele>
        <time>2021-08-24T11:33:14Z</time>
      </trkpt>
      <trkpt lat="45.4109" lon="5.8522">
        <ele>679.6</ele>
        <time>2021-08-24T11:33:15Z</time>
      </trkpt>
      <trkpt lat="45.41087" lon="5.85218">
        <ele>680.1</ele>
        <time>2021-08-24T11:33:17Z</time>
      </trkpt>
      <trkpt lat="45.41084" lon="5.85216">
        <ele>680.5</ele>
        <time>2021-08-24T11:33:18Z</time>
      </trkpt>
      <trkpt lat="45.41082" lon="5.85215">
        <ele>680.8</ele>
        <time>2021-08-24T11:33:19Z</time>
      </trkpt>
      <trkpt lat="45.41077" lon="5.85211">
        <ele>681.4</ele>
        <time>2021-08-24T11:33:21Z</time>
      </trkpt>
      <trkpt lat="45.41074" lon="5.85208">
        <ele>681.8</ele>
        <time>2021-08-24T11:33:22Z</time>
      </trkpt>
      <trkpt lat="45.4107" lon="5.85204">
        <ele>682.4</ele>
        <time>2021-08-24T11:33:23Z</time>
      </trkpt>
      <trkpt lat="45.41066" lon="5.85201">
        <ele>682.9</ele>
        <time>2021-08-24T11:33:24Z</time>
      </trkpt>
      <trkpt lat="45.4106" lon="5.85196">
        <ele>683.7</ele>
        <time>2021-08-24T11:33:26Z</time>
      </trkpt>
      <trkpt lat="45.41055" lon="5.85194">
        <ele>684.3</ele>
        <time>2021-08-24T11:33:27Z</time>
      </trkpt>
      <trkpt lat="45.41049" lon="5.85188">
        <ele>685.1</ele>
        <time>2021-08-24T11:33:28Z</time>
      </trkpt>
      <trkpt lat="45.4104" lon="5.85179">
        <ele>686.4</ele>
        <time>2021-08-24T11:33:30Z</time>
      </trkpt>
      <trkpt lat="45.41035" lon="5.85175">
        <ele>687.1</ele>
        <time>2021-08-24T11:33:31Z</time>
      </trkpt>
      <trkpt lat="45.41025" lon="5.85167">
        <ele>687.4</ele>
        <time>2021-08-24T11:33:33Z</time>
      </trkpt>
      <trkpt lat="45.41021" lon="5.85161">
        <ele>687.3</ele>
        <time>2021-08-24T11:33:34Z</time>
      </trkpt>
      <trkpt lat="45.41018" lon="5.85156">
        <ele>687.3</ele>
        <time>2021-08-24T11:33:35Z</time>
      </trkpt>
      <trkpt lat="45.41011" lon="5.85148">
        <ele>687.4</ele>
        <time>2021-08-24T11:33:37Z</time>
      </trkpt>
      <trkpt lat="45.41007" lon="5.85144">
        <ele>687.4</ele>
        <time>2021-08-24T11:33:38Z</time>
      </trkpt>
      <trkpt lat="45.41001" lon="5.85142">
        <ele>687.7</ele>
        <time>2021-08-24T11:33:40Z</time>
      </trkpt>
      <trkpt lat="45.40996" lon="5.85142">
        <ele>687.9</ele>
        <time>2021-08-24T11:33:41Z</time>
      </trkpt>
      <trkpt lat="45.40992" lon="5.85142">
        <ele>688.2</ele>
        <time>2021-08-24T11:33:43Z</time>
      </trkpt>
      <trkpt lat="45.40987" lon="5.85142">
        <ele>688.5</ele>
        <time>2021-08-24T11:33:44Z</time>
      </trkpt>
      <trkpt lat="45.40983" lon="5.85143">
        <ele>688.8</ele>
        <time>2021-08-24T11:33:45Z</time>
      </trkpt>
      <trkpt lat="45.40979" lon="5.85142">
        <ele>689.1</ele>
        <time>2021-08-24T11:33:47Z</time>
      </trkpt>
      <trkpt lat="45.40975" lon="5.85141">
        <ele>689.4</ele>
        <time>2021-08-24T11:33:48Z</time>
      </trkpt>
      <trkpt lat="45.40973" lon="5.8514">
        <ele>689.6</ele>
        <time>2021-08-24T11:33:49Z</time>
      </trkpt>
      <trkpt lat="45.4097" lon="5.85139">
        <ele>689.8</ele>
        <time>2021-08-24T11:33:51Z</time>
      </trkpt>
      <trkpt lat="45.40969" lon="5.85138">
        <ele>690.1</ele>
        <time>2021-08-24T11:33:52Z</time>
      </trkpt>
      <trkpt lat="45.40967" lon="5.85137">
        <ele>690.8</ele>
        <time>2021-08-24T11:33:53Z</time>
      </trkpt>
      <trkpt lat="45.40965" lon="5.85137">
        <ele>691.1</ele>
        <time>2021-08-24T11:33:55Z</time>
      </trkpt>
      <trkpt lat="45.40964" lon="5.85138">
        <ele>691.3</ele>
        <time>2021-08-24T11:33:56Z</time>
      </trkpt>
      <trkpt lat="45.4096" lon="5.85137">
        <ele>691.6</ele>
        <time>2021-08-24T11:33:57Z</time>
      </trkpt>
      <trkpt lat="45.40959" lon="5.85137">
        <ele>691.8</ele>
        <time>2021-08-24T11:33:58Z</time>
      </trkpt>
      <trkpt lat="45.40957" lon="5.85136">
        <ele>692</ele>
        <time>2021-08-24T11:34:00Z</time>
      </trkpt>
      <trkpt lat="45.40957" lon="5.85135">
        <ele>692.2</ele>
        <time>2021-08-24T11:34:01Z</time>
      </trkpt>
      <trkpt lat="45.40957" lon="5.85135">
        <ele>692.3</ele>
        <time>2021-08-24T11:34:03Z</time>
      </trkpt>
      <trkpt lat="45.40957" lon="5.85135">
        <ele>692.5</ele>
        <time>2021-08-24T11:34:04Z</time>
      </trkpt>
      <trkpt lat="45.40957" lon="5.85135">
        <ele>692.7</ele>
        <time>2021-08-24T11:34:06Z</time>
      </trkpt>
      <trkpt lat="45.40957" lon="5.85136">
        <ele>692.9</ele>
        <time>2021-08-24T11:34:07Z</time>
      </trkpt>
      <trkpt lat="45.40957" lon="5.85137">
        <ele>693.1</ele>
        <time>2021-08-24T11:34:08Z</time>
      </trkpt>
      <trkpt lat="45.40956" lon="5.85138">
        <ele>692.7</ele>
        <time>2021-08-24T11:34:09Z</time>
      </trkpt>
      <trkpt lat="45.40956" lon="5.8514">
        <ele>692.9</ele>
        <time>2021-08-24T11:34:11Z</time>
      </trkpt>
      <trkpt lat="45.4094" lon="5.85146">
        <ele>693.2</ele>
        <time>2021-08-24T11:34:22Z</time>
      </trkpt>
      <trkpt lat="45.40937" lon="5.85147">
        <ele>693.1</ele>
        <time>2021-08-24T11:34:23Z</time>
      </trkpt>
      <trkpt lat="45.40932" lon="5.85149">
        <ele>693.6</ele>
        <time>2021-08-24T11:34:24Z</time>
      </trkpt>
      <trkpt lat="45.4093" lon="5.85149">
        <ele>693.7</ele>
        <time>2021-08-24T11:34:25Z</time>
      </trkpt>
      <trkpt lat="45.40926" lon="5.85151">
        <ele>693.8</ele>
        <time>2021-08-24T11:34:26Z</time>
      </trkpt>
      <trkpt lat="45.40924" lon="5.85152">
        <ele>693.9</ele>
        <time>2021-08-24T11:34:27Z</time>
      </trkpt>
      <trkpt lat="45.40924" lon="5.85152">
        <ele>694.1</ele>
        <time>2021-08-24T11:34:28Z</time>
      </trkpt>
      <trkpt lat="45.40923" lon="5.85153">
        <ele>694.4</ele>
        <time>2021-08-24T11:34:29Z</time>
      </trkpt>
      <trkpt lat="45.40918" lon="5.85154">
        <ele>694.7</ele>
        <time>2021-08-24T11:34:31Z</time>
      </trkpt>
      <trkpt lat="45.40913" lon="5.85156">
        <ele>694.8</ele>
        <time>2021-08-24T11:34:32Z</time>
      </trkpt>
      <trkpt lat="45.40908" lon="5.85157">
        <ele>695.2</ele>
        <time>2021-08-24T11:34:33Z</time>
      </trkpt>
      <trkpt lat="45.40903" lon="5.85159">
        <ele>695.4</ele>
        <time>2021-08-24T11:34:35Z</time>
      </trkpt>
      <trkpt lat="45.40898" lon="5.85161">
        <ele>695.4</ele>
        <time>2021-08-24T11:34:36Z</time>
      </trkpt>
      <trkpt lat="45.40893" lon="5.85162">
        <ele>696</ele>
        <time>2021-08-24T11:34:37Z</time>
      </trkpt>
      <trkpt lat="45.40888" lon="5.85164">
        <ele>696</ele>
        <time>2021-08-24T11:34:39Z</time>
      </trkpt>
      <trkpt lat="45.40883" lon="5.85166">
        <ele>696.6</ele>
        <time>2021-08-24T11:34:40Z</time>
      </trkpt>
      <trkpt lat="45.40878" lon="5.85167">
        <ele>697.3</ele>
        <time>2021-08-24T11:34:42Z</time>
      </trkpt>
      <trkpt lat="45.40873" lon="5.85169">
        <ele>697.3</ele>
        <time>2021-08-24T11:35:40Z</time>
      </trkpt>
      <trkpt lat="45.40868" lon="5.85171">
        <ele>698</ele>
        <time>2021-08-24T11:35:41Z</time>
      </trkpt>
      <trkpt lat="45.4087" lon="5.85166">
        <ele>698.3</ele>
        <time>2021-08-24T11:35:43Z</time>
      </trkpt>
      <trkpt lat="45.40873" lon="5.85162">
        <ele>698.6</ele>
        <time>2021-08-24T11:35:44Z</time>
      </trkpt>
      <trkpt lat="45.40876" lon="5.85157">
        <ele>698.9</ele>
        <time>2021-08-24T11:35:46Z</time>
      </trkpt>
      <trkpt lat="45.4088" lon="5.85152">
        <ele>699.3</ele>
        <time>2021-08-24T11:35:47Z</time>
      </trkpt>
      <trkpt lat="45.40885" lon="5.85147">
        <ele>699.5</ele>
        <time>2021-08-24T11:35:49Z</time>
      </trkpt>
      <trkpt lat="45.40889" lon="5.85143">
        <ele>700</ele>
        <time>2021-08-24T11:35:50Z</time>
      </trkpt>
      <trkpt lat="45.40893" lon="5.85139">
        <ele>700.5</ele>
        <time>2021-08-24T11:35:51Z</time>
      </trkpt>
      <trkpt lat="45.40898" lon="5.85135">
        <ele>700.8</ele>
        <time>2021-08-24T11:35:53Z</time>
      </trkpt>
      <trkpt lat="45.40901" lon="5.85132">
        <ele>701.3</ele>
        <time>2021-08-24T11:35:54Z</time>
      </trkpt>
      <trkpt lat="45.40905" lon="5.85129">
        <ele>701.7</ele>
        <time>2021-08-24T11:35:56Z</time>
      </trkpt>
      <trkpt lat="45.40908" lon="5.85126">
        <ele>701.7</ele>
        <time>2021-08-24T11:35:57Z</time>
      </trkpt>
      <trkpt lat="45.40911" lon="5.85124">
        <ele>702.2</ele>
        <time>2021-08-24T11:35:58Z</time>
      </trkpt>
      <trkpt lat="45.40913" lon="5.85122">
        <ele>702.2</ele>
        <time>2021-08-24T11:35:59Z</time>
      </trkpt>
      <trkpt lat="45.40917" lon="5.85119">
        <ele>702</ele>
        <time>2021-08-24T11:36:01Z</time>
      </trkpt>
      <trkpt lat="45.40919" lon="5.85117">
        <ele>701.8</ele>
        <time>2021-08-24T11:36:02Z</time>
      </trkpt>
      <trkpt lat="45.40922" lon="5.85116">
        <ele>701.7</ele>
        <time>2021-08-24T11:36:03Z</time>
      </trkpt>
      <trkpt lat="45.40925" lon="5.85116">
        <ele>701.5</ele>
        <time>2021-08-24T11:36:05Z</time>
      </trkpt>
      <trkpt lat="45.40928" lon="5.85116">
        <ele>701.3</ele>
        <time>2021-08-24T11:36:06Z</time>
      </trkpt>
      <trkpt lat="45.4093" lon="5.85116">
        <ele>701.2</ele>
        <time>2021-08-24T11:36:07Z</time>
      </trkpt>
      <trkpt lat="45.40933" lon="5.85115">
        <ele>701</ele>
        <time>2021-08-24T11:36:09Z</time>
      </trkpt>
      <trkpt lat="45.40935" lon="5.85114">
        <ele>700.8</ele>
        <time>2021-08-24T11:36:10Z</time>
      </trkpt>
      <trkpt lat="45.4094" lon="5.85113">
        <ele>700.5</ele>
        <time>2021-08-24T11:36:12Z</time>
      </trkpt>
      <trkpt lat="45.40943" lon="5.85111">
        <ele>700.2</ele>
        <time>2021-08-24T11:36:13Z</time>
      </trkpt>
      <trkpt lat="45.40944" lon="5.85111">
        <ele>700.1</ele>
        <time>2021-08-24T11:36:14Z</time>
      </trkpt>
      <trkpt lat="45.40947" lon="5.85108">
        <ele>700.3</ele>
        <time>2021-08-24T11:36:16Z</time>
      </trkpt>
      <trkpt lat="45.40949" lon="5.85106">
        <ele>700.4</ele>
        <time>2021-08-24T11:36:17Z</time>
      </trkpt>
      <trkpt lat="45.40952" lon="5.85105">
        <ele>700.5</ele>
        <time>2021-08-24T11:36:19Z</time>
      </trkpt>
      <trkpt lat="45.40955" lon="5.85102">
        <ele>700.7</ele>
        <time>2021-08-24T11:36:20Z</time>
      </trkpt>
      <trkpt lat="45.40955" lon="5.85101">
        <ele>700.7</ele>
        <time>2021-08-24T11:36:22Z</time>
      </trkpt>
      <trkpt lat="45.40955" lon="5.85101">
        <ele>700.7</ele>
        <time>2021-08-24T11:36:23Z</time>
      </trkpt>
      <trkpt lat="45.40955" lon="5.85101">
        <ele>700.7</ele>
        <time>2021-08-24T11:36:24Z</time>
      </trkpt>
      <trkpt lat="45.40954" lon="5.85102">
        <ele>700.7</ele>
        <time>2021-08-24T11:36:26Z</time>
      </trkpt>
      <trkpt lat="45.40954" lon="5.85102">
        <ele>700.7</ele>
        <time>2021-08-24T11:36:27Z</time>
      </trkpt>
      <trkpt lat="45.40954" lon="5.85102">
        <ele>700.7</ele>
        <time>2021-08-24T11:36:28Z</time>
      </trkpt>
      <trkpt lat="45.40954" lon="5.85102">
        <ele>700.7</ele>
        <time>2021-08-24T11:36:30Z</time>
      </trkpt>
      <trkpt lat="45.40955" lon="5.85102">
        <ele>700.7</ele>
        <time>2021-08-24T11:36:32Z</time>
      </trkpt>
      <trkpt lat="45.40944" lon="5.85098">
        <ele>701.1</ele>
        <time>2021-08-24T11:36:42Z</time>
      </trkpt>
      <trkpt lat="45.40937" lon="5.85095">
        <ele>701.4</ele>
        <time>2021-08-24T11:36:44Z</time>
      </trkpt>
      <trkpt lat="45.40933" lon="5.85092">
        <ele>701.5</ele>
        <time>2021-08-24T11:36:46Z</time>
      </trkpt>
      <trkpt lat="45.4093" lon="5.85092">
        <ele>701.6</ele>
        <time>2021-08-24T11:36:47Z</time>
      </trkpt>
      <trkpt lat="45.40926" lon="5.85092">
        <ele>701.7</ele>
        <time>2021-08-24T11:36:48Z</time>
      </trkpt>
      <trkpt lat="45.40925" lon="5.85093">
        <ele>701.7</ele>
        <time>2021-08-24T11:36:49Z</time>
      </trkpt>
      <trkpt lat="45.40924" lon="5.85093">
        <ele>701.8</ele>
        <time>2021-08-24T11:36:51Z</time>
      </trkpt>
      <trkpt lat="45.40924" lon="5.85093">
        <ele>701.8</ele>
        <time>2021-08-24T11:36:52Z</time>
      </trkpt>
      <trkpt lat="45.40924" lon="5.85093">
        <ele>701.8</ele>
        <time>2021-08-24T11:36:54Z</time>
      </trkpt>
      <trkpt lat="45.40924" lon="5.85093">
        <ele>701.8</ele>
        <time>2021-08-24T11:36:55Z</time>
      </trkpt>
      <trkpt lat="45.40924" lon="5.85093">
        <ele>701.8</ele>
        <time>2021-08-24T11:36:56Z</time>
      </trkpt>
      <trkpt lat="45.4074" lon="5.84958">
        <ele>730.9</ele>
        <time>2021-08-24T11:43:23Z</time>
      </trkpt>
      <trkpt lat="45.40737" lon="5.84953">
        <ele>731.3</ele>
        <time>2021-08-24T11:43:24Z</time>
      </trkpt>
      <trkpt lat="45.40733" lon="5.84949">
        <ele>731.8</ele>
        <time>2021-08-24T11:43:25Z</time>
      </trkpt>
      <trkpt lat="45.40728" lon="5.84942">
        <ele>732.4</ele>
        <time>2021-08-24T11:43:27Z</time>
      </trkpt>
      <trkpt lat="45.40718" lon="5.84931">
        <ele>733.2</ele>
        <time>2021-08-24T11:43:28Z</time>
      </trkpt>
      <trkpt lat="45.40715" lon="5.84927">
        <ele>733.5</ele>
        <time>2021-08-24T11:43:29Z</time>
      </trkpt>
      <trkpt lat="45.40711" lon="5.84923">
        <ele>733.8</ele>
        <time>2021-08-24T11:43:31Z</time>
      </trkpt>
      <trkpt lat="45.40707" lon="5.84918">
        <ele>734.2</ele>
        <time>2021-08-24T11:43:33Z</time>
      </trkpt>
      <trkpt lat="45.40705" lon="5.84915">
        <ele>734.5</ele>
        <time>2021-08-24T11:43:34Z</time>
      </trkpt>
      <trkpt lat="45.40703" lon="5.84908">
        <ele>735</ele>
        <time>2021-08-24T11:43:36Z</time>
      </trkpt>
      <trkpt lat="45.40702" lon="5.84905">
        <ele>735.3</ele>
        <time>2021-08-24T11:43:37Z</time>
      </trkpt>
      <trkpt lat="45.40699" lon="5.84898">
        <ele>735.9</ele>
        <time>2021-08-24T11:43:39Z</time>
      </trkpt>
      <trkpt lat="45.40698" lon="5.84892">
        <ele>736.6</ele>
        <time>2021-08-24T11:43:41Z</time>
      </trkpt>
      <trkpt lat="45.40696" lon="5.84886">
        <ele>737.4</ele>
        <time>2021-08-24T11:43:43Z</time>
      </trkpt>
      <trkpt lat="45.40695" lon="5.84879">
        <ele>738.2</ele>
        <time>2021-08-24T11:43:45Z</time>
      </trkpt>
      <trkpt lat="45.40695" lon="5.84874">
        <ele>738.9</ele>
        <time>2021-08-24T11:43:46Z</time>
      </trkpt>
      <trkpt lat="45.40695" lon="5.84873">
        <ele>739.2</ele>
        <time>2021-08-24T11:43:47Z</time>
      </trkpt>
      <trkpt lat="45.40695" lon="5.84869">
        <ele>740</ele>
        <time>2021-08-24T11:43:49Z</time>
      </trkpt>
      <trkpt lat="45.40695" lon="5.84864">
        <ele>740.5</ele>
        <time>2021-08-24T11:43:51Z</time>
      </trkpt>
      <trkpt lat="45.40694" lon="5.84861">
        <ele>741</ele>
        <time>2021-08-24T11:43:53Z</time>
      </trkpt>
      <trkpt lat="45.40694" lon="5.8486">
        <ele>741.2</ele>
        <time>2021-08-24T11:43:54Z</time>
      </trkpt>
      <trkpt lat="45.40693" lon="5.8486">
        <ele>741.4</ele>
        <time>2021-08-24T11:43:55Z</time>
      </trkpt>
      <trkpt lat="45.40689" lon="5.84857">
        <ele>742.2</ele>
        <time>2021-08-24T11:43:57Z</time>
      </trkpt>
      <trkpt lat="45.40688" lon="5.84857">
        <ele>742.3</ele>
        <time>2021-08-24T11:43:58Z</time>
      </trkpt>
      <trkpt lat="45.40687" lon="5.84857">
        <ele>742.5</ele>
        <time>2021-08-24T11:43:59Z</time>
      </trkpt>
      <trkpt lat="45.40685" lon="5.84855">
        <ele>742.9</ele>
        <time>2021-08-24T11:44:01Z</time>
      </trkpt>
      <trkpt lat="45.40684" lon="5.84852">
        <ele>743.5</ele>
        <time>2021-08-24T11:44:03Z</time>
      </trkpt>
      <trkpt lat="45.40683" lon="5.84849">
        <ele>743.9</ele>
        <time>2021-08-24T11:44:05Z</time>
      </trkpt>
      <trkpt lat="45.40682" lon="5.84849">
        <ele>744.1</ele>
        <time>2021-08-24T11:44:06Z</time>
      </trkpt>
      <trkpt lat="45.40681" lon="5.84848">
        <ele>744.3</ele>
        <time>2021-08-24T11:44:07Z</time>
      </trkpt>
      <trkpt lat="45.4068" lon="5.84847">
        <ele>744.5</ele>
        <time>2021-08-24T11:44:08Z</time>
      </trkpt>
      <trkpt lat="45.40679" lon="5.84847">
        <ele>744.7</ele>
        <time>2021-08-24T11:44:09Z</time>
      </trkpt>
      <trkpt lat="45.40677" lon="5.84845">
        <ele>745.1</ele>
        <time>2021-08-24T11:44:10Z</time>
      </trkpt>
      <trkpt lat="45.40676" lon="5.84844">
        <ele>745.3</ele>
        <time>2021-08-24T11:44:11Z</time>
      </trkpt>
      <trkpt lat="45.40676" lon="5.84843">
        <ele>745.5</ele>
        <time>2021-08-24T11:44:12Z</time>
      </trkpt>
      <trkpt lat="45.40675" lon="5.84841">
        <ele>745.8</ele>
        <time>2021-08-24T11:44:13Z</time>
      </trkpt>
      <trkpt lat="45.40674" lon="5.84838">
        <ele>746.2</ele>
        <time>2021-08-24T11:44:15Z</time>
      </trkpt>
      <trkpt lat="45.40673" lon="5.84837">
        <ele>746.5</ele>
        <time>2021-08-24T11:44:16Z</time>
      </trkpt>
      <trkpt lat="45.40672" lon="5.84835">
        <ele>746.7</ele>
        <time>2021-08-24T11:44:17Z</time>
      </trkpt>
      <trkpt lat="45.40671" lon="5.84833">
        <ele>746.9</ele>
        <time>2021-08-24T11:44:18Z</time>
      </trkpt>
      <trkpt lat="45.40671" lon="5.84832">
        <ele>747.1</ele>
        <time>2021-08-24T11:44:19Z</time>
      </trkpt>
      <trkpt lat="45.4067" lon="5.84832">
        <ele>747.2</ele>
        <time>2021-08-24T11:44:21Z</time>
      </trkpt>
      <trkpt lat="45.4067" lon="5.84832">
        <ele>747.2</ele>
        <time>2021-08-24T11:44:22Z</time>
      </trkpt>
      <trkpt lat="45.4067" lon="5.84832">
        <ele>747.3</ele>
        <time>2021-08-24T11:44:24Z</time>
      </trkpt>
      <trkpt lat="45.4067" lon="5.84831">
        <ele>747.3</ele>
        <time>2021-08-24T11:44:25Z</time>
      </trkpt>
      <trkpt lat="45.40669" lon="5.8483">
        <ele>747.5</ele>
        <time>2021-08-24T11:44:27Z</time>
      </trkpt>
      <trkpt lat="45.40669" lon="5.84829">
        <ele>747.7</ele>
        <time>2021-08-24T11:44:28Z</time>
      </trkpt>
      <trkpt lat="45.40668" lon="5.84828">
        <ele>747.8</ele>
        <time>2021-08-24T11:44:30Z</time>
      </trkpt>
      <trkpt lat="45.4066" lon="5.84819">
        <ele>749.6</ele>
        <time>2021-08-24T11:44:40Z</time>
      </trkpt>
      <trkpt lat="45.40657" lon="5.84818">
        <ele>750</ele>
        <time>2021-08-24T11:44:42Z</time>
      </trkpt>
      <trkpt lat="45.40656" lon="5.84817">
        <ele>750.2</ele>
        <time>2021-08-24T11:44:43Z</time>
      </trkpt>
      <trkpt lat="45.40654" lon="5.84816">
        <ele>750.5</ele>
        <time>2021-08-24T11:44:45Z</time>
      </trkpt>
      <trkpt lat="45.40653" lon="5.84816">
        <ele>750.7</ele>
        <time>2021-08-24T11:44:46Z</time>
      </trkpt>
      <trkpt lat="45.40652" lon="5.84815">
        <ele>750.8</ele>
        <time>2021-08-24T11:44:48Z</time>
      </trkpt>
      <trkpt lat="45.40651" lon="5.84815">
        <ele>750.9</ele>
        <time>2021-08-24T11:44:50Z</time>
      </trkpt>
      <trkpt lat="45.40651" lon="5.84815">
        <ele>750.9</ele>
        <time>2021-08-24T11:44:51Z</time>
      </trkpt>
      <trkpt lat="45.4065" lon="5.84815">
        <ele>751</ele>
        <time>2021-08-24T11:44:53Z</time>
      </trkpt>
      <trkpt lat="45.4065" lon="5.84815">
        <ele>751</ele>
        <time>2021-08-24T11:44:54Z</time>
      </trkpt>
      <trkpt lat="45.4065" lon="5.84815">
        <ele>751.1</ele>
        <time>2021-08-24T11:44:56Z</time>
      </trkpt>
      <trkpt lat="45.4065" lon="5.84815">
        <ele>751.1</ele>
        <time>2021-08-24T11:44:57Z</time>
      </trkpt>
      <trkpt lat="45.4065" lon="5.84815">
        <ele>751.1</ele>
        <time>2021-08-24T11:44:58Z</time>
      </trkpt>
      <trkpt lat="45.4065" lon="5.84815">
        <ele>751.1</ele>
        <time>2021-08-24T11:45:00Z</time>
      </trkpt>
      <trkpt lat="45.4065" lon="5.84815">
        <ele>751.1</ele>
        <time>2021-08-24T11:45:01Z</time>
      </trkpt>
      <trkpt lat="45.4065" lon="5.84815">
        <ele>751.1</ele>
        <time>2021-08-24T11:45:02Z</time>
      </trkpt>
      <trkpt lat="45.40649" lon="5.84815">
        <ele>751.1</ele>
        <time>2021-08-24T11:45:04Z</time>
      </trkpt>
      <trkpt lat="45.40649" lon="5.84815">
        <ele>751.1</ele>
        <time>2021-08-24T11:45:05Z</time>
      </trkpt>
      <trkpt lat="45.40649" lon="5.84815">
        <ele>751.2</ele>
        <time>2021-08-24T11:45:07Z</time>
      </trkpt>
      <trkpt lat="45.40648" lon="5.84815">
        <ele>751.4</ele>
        <time>2021-08-24T11:45:08Z</time>
      </trkpt>
      <trkpt lat="45.40643" lon="5.84815">
        <ele>751.9</ele>
        <time>2021-08-24T11:45:10Z</time>
      </trkpt>
      <trkpt lat="45.40641" lon="5.84815">
        <ele>752.1</ele>
        <time>2021-08-24T11:45:11Z</time>
      </trkpt>
      <trkpt lat="45.40638" lon="5.84815">
        <ele>752.5</ele>
        <time>2021-08-24T11:45:12Z</time>
      </trkpt>
      <trkpt lat="45.40636" lon="5.84815">
        <ele>752.6</ele>
        <time>2021-08-24T11:45:13Z</time>
      </trkpt>
      <trkpt lat="45.40635" lon="5.84815">
        <ele>752.8</ele>
        <time>2021-08-24T11:45:15Z</time>
      </trkpt>
      <trkpt lat="45.40634" lon="5.84815">
        <ele>752.8</ele>
        <time>2021-08-24T11:45:16Z</time>
      </trkpt>
      <trkpt lat="45.40634" lon="5.84815">
        <ele>752.8</ele>
        <time>2021-08-24T11:45:17Z</time>
      </trkpt>
      <trkpt lat="45.40634" lon="5.84815">
        <ele>752.9</ele>
        <time>2021-08-24T11:45:19Z</time>
      </trkpt>
      <trkpt lat="45.40634" lon="5.84815">
        <ele>752.9</ele>
        <time>2021-08-24T11:45:21Z</time>
      </trkpt>
      <trkpt lat="45.40634" lon="5.84815">
        <ele>752.9</ele>
        <time>2021-08-24T11:45:22Z</time>
      </trkpt>
      <trkpt lat="45.40634" lon="5.84815">
        <ele>752.9</ele>
        <time>2021-08-24T11:45:24Z</time>
      </trkpt>
      <trkpt lat="45.40634" lon="5.84815">
        <ele>752.9</ele>
        <time>2021-08-24T11:45:25Z</time>
      </trkpt>
      <trkpt lat="45.40634" lon="5.84815">
        <ele>752.9</ele>
        <time>2021-08-24T11:45:27Z</time>
      </trkpt>
      <trkpt lat="45.40634" lon="5.84815">
        <ele>752.9</ele>
        <time>2021-08-24T11:45:28Z</time>
      </trkpt>
      <trkpt lat="45.40632" lon="5.84816">
        <ele>753.2</ele>
        <time>2021-08-24T11:45:29Z</time>
      </trkpt>
      <trkpt lat="45.40632" lon="5.84816">
        <ele>753.2</ele>
        <time>2021-08-24T11:45:31Z</time>
      </trkpt>
      <trkpt lat="45.40631" lon="5.84816">
        <ele>753.3</ele>
        <time>2021-08-24T11:45:32Z</time>
      </trkpt>
      <trkpt lat="45.4063" lon="5.84817">
        <ele>753.5</ele>
        <time>2021-08-24T11:45:33Z</time>
      </trkpt>
      <trkpt lat="45.40629" lon="5.84817">
        <ele>753.6</ele>
        <time>2021-08-24T11:45:35Z</time>
      </trkpt>
      <trkpt lat="45.40628" lon="5.84817">
        <ele>753.7</ele>
        <time>2021-08-24T11:45:36Z</time>
      </trkpt>
      <trkpt lat="45.40625" lon="5.84817">
        <ele>754</ele>
        <time>2021-08-24T11:45:38Z</time>
      </trkpt>
      <trkpt lat="45.40622" lon="5.84815">
        <ele>754.4</ele>
        <time>2021-08-24T11:45:39Z</time>
      </trkpt>
      <trkpt lat="45.40621" lon="5.84813">
        <ele>754.7</ele>
        <time>2021-08-24T11:45:40Z</time>
      </trkpt>
      <trkpt lat="45.40616" lon="5.8481">
        <ele>755.3</ele>
        <time>2021-08-24T11:45:42Z</time>
      </trkpt>
      <trkpt lat="45.40615" lon="5.84809">
        <ele>755.5</ele>
        <time>2021-08-24T11:45:43Z</time>
      </trkpt>
      <trkpt lat="45.40613" lon="5.84808">
        <ele>755.7</ele>
        <time>2021-08-24T11:45:44Z</time>
      </trkpt>
      <trkpt lat="45.4061" lon="5.84807">
        <ele>756.2</ele>
        <time>2021-08-24T11:45:46Z</time>
      </trkpt>
      <trkpt lat="45.40607" lon="5.84805">
        <ele>756.7</ele>
        <time>2021-08-24T11:45:47Z</time>
      </trkpt>
      <trkpt lat="45.40602" lon="5.84803">
        <ele>757.6</ele>
        <time>2021-08-24T11:45:49Z</time>
      </trkpt>
      <trkpt lat="45.40601" lon="5.84802">
        <ele>757.8</ele>
        <time>2021-08-24T11:45:50Z</time>
      </trkpt>
      <trkpt lat="45.40599" lon="5.84801">
        <ele>758.1</ele>
        <time>2021-08-24T11:45:51Z</time>
      </trkpt>
      <trkpt lat="45.40597" lon="5.848">
        <ele>758.6</ele>
        <time>2021-08-24T11:45:52Z</time>
      </trkpt>
      <trkpt lat="45.40594" lon="5.84798">
        <ele>759.2</ele>
        <time>2021-08-24T11:45:54Z</time>
      </trkpt>
      <trkpt lat="45.40591" lon="5.84796">
        <ele>759.8</ele>
        <time>2021-08-24T11:45:56Z</time>
      </trkpt>
      <trkpt lat="45.4059" lon="5.84794">
        <ele>760.3</ele>
        <time>2021-08-24T11:45:57Z</time>
      </trkpt>
      <trkpt lat="45.40588" lon="5.84792">
        <ele>760.8</ele>
        <time>2021-08-24T11:45:59Z</time>
      </trkpt>
      <trkpt lat="45.40586" lon="5.84789">
        <ele>761.3</ele>
        <time>2021-08-24T11:46:00Z</time>
      </trkpt>
      <trkpt lat="45.40585" lon="5.84786">
        <ele>761.9</ele>
        <time>2021-08-24T11:46:02Z</time>
      </trkpt>
      <trkpt lat="45.40584" lon="5.84782">
        <ele>762.6</ele>
        <time>2021-08-24T11:46:04Z</time>
      </trkpt>
      <trkpt lat="45.40583" lon="5.8478">
        <ele>762.9</ele>
        <time>2021-08-24T11:46:05Z</time>
      </trkpt>
      <trkpt lat="45.40583" lon="5.84775">
        <ele>763.6</ele>
        <time>2021-08-24T11:46:07Z</time>
      </trkpt>
      <trkpt lat="45.40583" lon="5.84774">
        <ele>763.7</ele>
        <time>2021-08-24T11:46:08Z</time>
      </trkpt>
      <trkpt lat="45.40583" lon="5.84772">
        <ele>764.1</ele>
        <time>2021-08-24T11:46:09Z</time>
      </trkpt>
      <trkpt lat="45.40582" lon="5.84769">
        <ele>764.6</ele>
        <time>2021-08-24T11:46:11Z</time>
      </trkpt>
      <trkpt lat="45.40582" lon="5.84769">
        <ele>764.6</ele>
        <time>2021-08-24T11:46:12Z</time>
      </trkpt>
      <trkpt lat="45.40582" lon="5.84768">
        <ele>764.6</ele>
        <time>2021-08-24T11:46:13Z</time>
      </trkpt>
      <trkpt lat="45.40581" lon="5.84767">
        <ele>764.7</ele>
        <time>2021-08-24T11:46:15Z</time>
      </trkpt>
      <trkpt lat="45.40581" lon="5.84767">
        <ele>764.7</ele>
        <time>2021-08-24T11:46:16Z</time>
      </trkpt>
      <trkpt lat="45.40581" lon="5.84766">
        <ele>764.8</ele>
        <time>2021-08-24T11:46:17Z</time>
      </trkpt>
      <trkpt lat="45.40579" lon="5.84765">
        <ele>764.9</ele>
        <time>2021-08-24T11:46:19Z</time>
      </trkpt>
      <trkpt lat="45.40488" lon="5.84847">
        <ele>777.4</ele>
        <time>2021-08-24T11:48:35Z</time>
      </trkpt>
      <trkpt lat="45.40486" lon="5.84849">
        <ele>777.9</ele>
        <time>2021-08-24T11:48:37Z</time>
      </trkpt>
      <trkpt lat="45.40485" lon="5.84849">
        <ele>778</ele>
        <time>2021-08-24T11:48:38Z</time>
      </trkpt>
      <trkpt lat="45.40483" lon="5.8485">
        <ele>778.3</ele>
        <time>2021-08-24T11:48:39Z</time>
      </trkpt>
      <trkpt lat="45.40482" lon="5.8485">
        <ele>778.5</ele>
        <time>2021-08-24T11:48:40Z</time>
      </trkpt>
      <trkpt lat="45.40481" lon="5.8485">
        <ele>778.6</ele>
        <time>2021-08-24T11:48:41Z</time>
      </trkpt>
      <trkpt lat="45.40479" lon="5.84851">
        <ele>778.9</ele>
        <time>2021-08-24T11:48:43Z</time>
      </trkpt>
      <trkpt lat="45.40477" lon="5.84852">
        <ele>779.3</ele>
        <time>2021-08-24T11:48:44Z</time>
      </trkpt>
      <trkpt lat="45.40476" lon="5.84853">
        <ele>779.5</ele>
        <time>2021-08-24T11:48:45Z</time>
      </trkpt>
      <trkpt lat="45.40474" lon="5.84853">
        <ele>779.7</ele>
        <time>2021-08-24T11:48:46Z</time>
      </trkpt>
      <trkpt lat="45.40471" lon="5.84853">
        <ele>780.1</ele>
        <time>2021-08-24T11:48:48Z</time>
      </trkpt>
      <trkpt lat="45.40468" lon="5.84852">
        <ele>780.5</ele>
        <time>2021-08-24T11:48:49Z</time>
      </trkpt>
      <trkpt lat="45.40467" lon="5.84852">
        <ele>780.6</ele>
        <time>2021-08-24T11:48:50Z</time>
      </trkpt>
      <trkpt lat="45.40466" lon="5.84851">
        <ele>780.9</ele>
        <time>2021-08-24T11:48:51Z</time>
      </trkpt>
      <trkpt lat="45.40462" lon="5.84848">
        <ele>781.3</ele>
        <time>2021-08-24T11:48:53Z</time>
      </trkpt>
      <trkpt lat="45.4046" lon="5.84847">
        <ele>781.6</ele>
        <time>2021-08-24T11:48:54Z</time>
      </trkpt>
      <trkpt lat="45.40457" lon="5.84845">
        <ele>782</ele>
        <time>2021-08-24T11:48:56Z</time>
      </trkpt>
      <trkpt lat="45.40455" lon="5.84842">
        <ele>782.3</ele>
        <time>2021-08-24T11:48:57Z</time>
      </trkpt>
      <trkpt lat="45.40453" lon="5.8484">
        <ele>782.6</ele>
        <time>2021-08-24T11:48:59Z</time>
      </trkpt>
      <trkpt lat="45.40452" lon="5.84839">
        <ele>782.7</ele>
        <time>2021-08-24T11:49:00Z</time>
      </trkpt>
      <trkpt lat="45.40451" lon="5.84838">
        <ele>782.8</ele>
        <time>2021-08-24T11:49:02Z</time>
      </trkpt>
      <trkpt lat="45.40451" lon="5.84838">
        <ele>782.8</ele>
        <time>2021-08-24T11:49:03Z</time>
      </trkpt>
      <trkpt lat="45.40451" lon="5.84838">
        <ele>782.8</ele>
        <time>2021-08-24T11:49:05Z</time>
      </trkpt>
      <trkpt lat="45.40451" lon="5.84837">
        <ele>782.8</ele>
        <time>2021-08-24T11:49:06Z</time>
      </trkpt>
      <trkpt lat="45.40451" lon="5.84836">
        <ele>783</ele>
        <time>2021-08-24T11:49:08Z</time>
      </trkpt>
      <trkpt lat="45.40449" lon="5.84834">
        <ele>783.1</ele>
        <time>2021-08-24T11:49:09Z</time>
      </trkpt>
      <trkpt lat="45.40448" lon="5.84833">
        <ele>783.2</ele>
        <time>2021-08-24T11:49:10Z</time>
      </trkpt>
      <trkpt lat="45.40447" lon="5.84832">
        <ele>783.3</ele>
        <time>2021-08-24T11:49:11Z</time>
      </trkpt>
      <trkpt lat="45.40445" lon="5.8483">
        <ele>783.5</ele>
        <time>2021-08-24T11:49:13Z</time>
      </trkpt>
      <trkpt lat="45.40443" lon="5.84826">
        <ele>783.7</ele>
        <time>2021-08-24T11:49:15Z</time>
      </trkpt>
      <trkpt lat="45.40439" lon="5.84823">
        <ele>783.9</ele>
        <time>2021-08-24T11:49:16Z</time>
      </trkpt>
      <trkpt lat="45.40432" lon="5.84818">
        <ele>784.1</ele>
        <time>2021-08-24T11:49:19Z</time>
      </trkpt>
      <trkpt lat="45.40429" lon="5.84816">
        <ele>784.2</ele>
        <time>2021-08-24T11:49:20Z</time>
      </trkpt>
      <trkpt lat="45.40425" lon="5.84815">
        <ele>784.4</ele>
        <time>2021-08-24T11:49:21Z</time>
      </trkpt>
      <trkpt lat="45.40422" lon="5.84814">
        <ele>784.6</ele>
        <time>2021-08-24T11:49:23Z</time>
      </trkpt>
      <trkpt lat="45.40418" lon="5.84813">
        <ele>784.8</ele>
        <time>2021-08-24T11:49:24Z</time>
      </trkpt>
      <trkpt lat="45.40414" lon="5.84813">
        <ele>785.1</ele>
        <time>2021-08-24T11:49:26Z</time>
      </trkpt>
      <trkpt lat="45.40413" lon="5.84814">
        <ele>785.2</ele>
        <time>2021-08-24T11:49:27Z</time>
      </trkpt>
      <trkpt lat="45.40411" lon="5.84814">
        <ele>785.3</ele>
        <time>2021-08-24T11:49:28Z</time>
      </trkpt>
      <trkpt lat="45.40407" lon="5.84816">
        <ele>785.5</ele>
        <time>2021-08-24T11:49:30Z</time>
      </trkpt>
      <trkpt lat="45.40406" lon="5.84817">
        <ele>785.6</ele>
        <time>2021-08-24T11:49:31Z</time>
      </trkpt>
      <trkpt lat="45.40404" lon="5.84818">
        <ele>785.7</ele>
        <time>2021-08-24T11:49:32Z</time>
      </trkpt>
      <trkpt lat="45.40403" lon="5.8482">
        <ele>785.9</ele>
        <time>2021-08-24T11:49:33Z</time>
      </trkpt>
      <trkpt lat="45.40401" lon="5.84821">
        <ele>786</ele>
        <time>2021-08-24T11:49:35Z</time>
      </trkpt>
      <trkpt lat="45.40398" lon="5.84823">
        <ele>786.2</ele>
        <time>2021-08-24T11:49:36Z</time>
      </trkpt>
      <trkpt lat="45.40397" lon="5.84823">
        <ele>786.2</ele>
        <time>2021-08-24T11:49:37Z</time>
      </trkpt>
      <trkpt lat="45.40395" lon="5.84823">
        <ele>786.3</ele>
        <time>2021-08-24T11:49:38Z</time>
      </trkpt>
      <trkpt lat="45.40392" lon="5.84822">
        <ele>786.5</ele>
        <time>2021-08-24T11:49:40Z</time>
      </trkpt>
      <trkpt lat="45.40389" lon="5.84821">
        <ele>786.6</ele>
        <time>2021-08-24T11:49:41Z</time>
      </trkpt>
      <trkpt lat="45.40386" lon="5.8482">
        <ele>786.8</ele>
        <time>2021-08-24T11:49:42Z</time>
      </trkpt>
      <trkpt lat="45.40383" lon="5.84819">
        <ele>786.9</ele>
        <time>2021-08-24T11:49:43Z</time>
      </trkpt>
      <trkpt lat="45.40377" lon="5.84817">
        <ele>787</ele>
        <time>2021-08-24T11:49:45Z</time>
      </trkpt>
      <trkpt lat="45.40374" lon="5.84816">
        <ele>787.2</ele>
        <time>2021-08-24T11:49:47Z</time>
      </trkpt>
      <trkpt lat="45.40371" lon="5.84815">
        <ele>787.2</ele>
        <time>2021-08-24T11:49:48Z</time>
      </trkpt>
      <trkpt lat="45.40368" lon="5.84813">
        <ele>787.3</ele>
        <time>2021-08-24T11:49:49Z</time>
      </trkpt>
      <trkpt lat="45.40365" lon="5.84811">
        <ele>787.4</ele>
        <time>2021-08-24T11:49:50Z</time>
      </trkpt>
      <trkpt lat="45.40364" lon="5.84811">
        <ele>787.5</ele>
        <time>2021-08-24T11:49:51Z</time>
      </trkpt>
      <trkpt lat="45.40362" lon="5.8481">
        <ele>787.5</ele>
        <time>2021-08-24T11:49:52Z</time>
      </trkpt>
      <trkpt lat="45.40359" lon="5.84808">
        <ele>787.7</ele>
        <time>2021-08-24T11:49:54Z</time>
      </trkpt>
      <trkpt lat="45.40356" lon="5.84806">
        <ele>787.8</ele>
        <time>2021-08-24T11:49:55Z</time>
      </trkpt>
      <trkpt lat="45.40355" lon="5.84805">
        <ele>787.9</ele>
        <time>2021-08-24T11:49:56Z</time>
      </trkpt>
      <trkpt lat="45.40352" lon="5.84805">
        <ele>788</ele>
        <time>2021-08-24T11:49:57Z</time>
      </trkpt>
      <trkpt lat="45.4035" lon="5.84805">
        <ele>788.1</ele>
        <time>2021-08-24T11:49:58Z</time>
      </trkpt>
      <trkpt lat="45.40348" lon="5.84804">
        <ele>788.2</ele>
        <time>2021-08-24T11:50:00Z</time>
      </trkpt>
      <trkpt lat="45.40344" lon="5.84804">
        <ele>788.4</ele>
        <time>2021-08-24T11:50:01Z</time>
      </trkpt>
      <trkpt lat="45.40343" lon="5.84803">
        <ele>788.5</ele>
        <time>2021-08-24T11:50:02Z</time>
      </trkpt>
      <trkpt lat="45.4034" lon="5.84802">
        <ele>788.7</ele>
        <time>2021-08-24T11:50:04Z</time>
      </trkpt>
      <trkpt lat="45.40339" lon="5.84802">
        <ele>788.8</ele>
        <time>2021-08-24T11:50:05Z</time>
      </trkpt>
      <trkpt lat="45.40337" lon="5.84802">
        <ele>788.9</ele>
        <time>2021-08-24T11:50:06Z</time>
      </trkpt>
      <trkpt lat="45.40335" lon="5.84802">
        <ele>789.1</ele>
        <time>2021-08-24T11:50:08Z</time>
      </trkpt>
      <trkpt lat="45.40334" lon="5.84802">
        <ele>789.2</ele>
        <time>2021-08-24T11:50:09Z</time>
      </trkpt>
      <trkpt lat="45.40331" lon="5.84803">
        <ele>789.5</ele>
        <time>2021-08-24T11:50:11Z</time>
      </trkpt>
      <trkpt lat="45.40329" lon="5.84804">
        <ele>789.7</ele>
        <time>2021-08-24T11:50:12Z</time>
      </trkpt>
      <trkpt lat="45.40327" lon="5.84805">
        <ele>789.9</ele>
        <time>2021-08-24T11:50:13Z</time>
      </trkpt>
      <trkpt lat="45.40324" lon="5.84806">
        <ele>790.2</ele>
        <time>2021-08-24T11:50:15Z</time>
      </trkpt>
      <trkpt lat="45.40323" lon="5.84806">
        <ele>790.3</ele>
        <time>2021-08-24T11:50:16Z</time>
      </trkpt>
      <trkpt lat="45.40319" lon="5.84808">
        <ele>790.8</ele>
        <time>2021-08-24T11:50:18Z</time>
      </trkpt>
      <trkpt lat="45.40318" lon="5.84809">
        <ele>791</ele>
        <time>2021-08-24T11:50:19Z</time>
      </trkpt>
      <trkpt lat="45.40317" lon="5.84809">
        <ele>791.1</ele>
        <time>2021-08-24T11:50:20Z</time>
      </trkpt>
      <trkpt lat="45.40314" lon="5.84812">
        <ele>791.5</ele>
        <time>2021-08-24T11:50:22Z</time>
      </trkpt>
      <trkpt lat="45.40313" lon="5.84814">
        <ele>791.7</ele>
        <time>2021-08-24T11:50:24Z</time>
      </trkpt>
      <trkpt lat="45.40313" lon="5.84815">
        <ele>791.8</ele>
        <time>2021-08-24T11:50:25Z</time>
      </trkpt>
      <trkpt lat="45.40312" lon="5.84815">
        <ele>791.9</ele>
        <time>2021-08-24T11:50:26Z</time>
      </trkpt>
      <trkpt lat="45.40307" lon="5.84817">
        <ele>792.4</ele>
        <time>2021-08-24T11:50:28Z</time>
      </trkpt>
      <trkpt lat="45.40305" lon="5.84817">
        <ele>792.6</ele>
        <time>2021-08-24T11:50:29Z</time>
      </trkpt>
      <trkpt lat="45.40304" lon="5.84817">
        <ele>792.8</ele>
        <time>2021-08-24T11:50:30Z</time>
      </trkpt>
      <trkpt lat="45.40303" lon="5.84816">
        <ele>792.9</ele>
        <time>2021-08-24T11:50:32Z</time>
      </trkpt>
      <trkpt lat="45.40303" lon="5.84816">
        <ele>793</ele>
        <time>2021-08-24T11:50:34Z</time>
      </trkpt>
      <trkpt lat="45.40302" lon="5.84815">
        <ele>793.1</ele>
        <time>2021-08-24T11:50:36Z</time>
      </trkpt>
      <trkpt lat="45.40302" lon="5.84815">
        <ele>793.1</ele>
        <time>2021-08-24T11:50:37Z</time>
      </trkpt>
      <trkpt lat="45.40301" lon="5.84815">
        <ele>793.1</ele>
        <time>2021-08-24T11:50:39Z</time>
      </trkpt>
      <trkpt lat="45.40301" lon="5.84815">
        <ele>793.1</ele>
        <time>2021-08-24T11:50:40Z</time>
      </trkpt>
      <trkpt lat="45.40215" lon="5.84843">
        <ele>802.8</ele>
        <time>2021-08-24T11:52:34Z</time>
      </trkpt>
      <trkpt lat="45.40214" lon="5.84844">
        <ele>802.9</ele>
        <time>2021-08-24T11:52:35Z</time>
      </trkpt>
      <trkpt lat="45.40213" lon="5.84845">
        <ele>803</ele>
        <time>2021-08-24T11:52:36Z</time>
      </trkpt>
      <trkpt lat="45.4021" lon="5.84847">
        <ele>803.2</ele>
        <time>2021-08-24T11:52:37Z</time>
      </trkpt>
      <trkpt lat="45.40209" lon="5.84848">
        <ele>803.3</ele>
        <time>2021-08-24T11:52:38Z</time>
      </trkpt>
      <trkpt lat="45.40208" lon="5.84849">
        <ele>803.4</ele>
        <time>2021-08-24T11:52:39Z</time>
      </trkpt>
      <trkpt lat="45.40206" lon="5.8485">
        <ele>803.5</ele>
        <time>2021-08-24T11:52:40Z</time>
      </trkpt>
      <trkpt lat="45.40204" lon="5.84852">
        <ele>803.8</ele>
        <time>2021-08-24T11:52:41Z</time>
      </trkpt>
      <trkpt lat="45.40203" lon="5.84854">
        <ele>803.9</ele>
        <time>2021-08-24T11:52:42Z</time>
      </trkpt>
      <trkpt lat="45.402" lon="5.84856">
        <ele>804.1</ele>
        <time>2021-08-24T11:52:44Z</time>
      </trkpt>
      <trkpt lat="45.40199" lon="5.84858">
        <ele>804.2</ele>
        <time>2021-08-24T11:52:45Z</time>
      </trkpt>
      <trkpt lat="45.40198" lon="5.8486">
        <ele>804.3</ele>
        <time>2021-08-24T11:52:47Z</time>
      </trkpt>
      <trkpt lat="45.40198" lon="5.8486">
        <ele>804.4</ele>
        <time>2021-08-24T11:52:48Z</time>
      </trkpt>
      <trkpt lat="45.40198" lon="5.84864">
        <ele>804.6</ele>
        <time>2021-08-24T11:52:50Z</time>
      </trkpt>
      <trkpt lat="45.40198" lon="5.84867">
        <ele>804.8</ele>
        <time>2021-08-24T11:52:52Z</time>
      </trkpt>
      <trkpt lat="45.40198" lon="5.84869">
        <ele>804.9</ele>
        <time>2021-08-24T11:52:54Z</time>
      </trkpt>
      <trkpt lat="45.40198" lon="5.8487">
        <ele>805</ele>
        <time>2021-08-24T11:52:55Z</time>
      </trkpt>
      <trkpt lat="45.40198" lon="5.84871">
        <ele>805</ele>
        <time>2021-08-24T11:52:56Z</time>
      </trkpt>
      <trkpt lat="45.40198" lon="5.84872">
        <ele>805</ele>
        <time>2021-08-24T11:52:57Z</time>
      </trkpt>
      <trkpt lat="45.40198" lon="5.84872">
        <ele>805.1</ele>
        <time>2021-08-24T11:52:59Z</time>
      </trkpt>
      <trkpt lat="45.40168" lon="5.84885">
        <ele>807.4</ele>
        <time>2021-08-24T11:53:24Z</time>
      </trkpt>
      <trkpt lat="45.40164" lon="5.84889">
        <ele>807.6</ele>
        <time>2021-08-24T11:53:26Z</time>
      </trkpt>
      <trkpt lat="45.4016" lon="5.84893">
        <ele>807.7</ele>
        <time>2021-08-24T11:53:27Z</time>
      </trkpt>
      <trkpt lat="45.40155" lon="5.84896">
        <ele>807.8</ele>
        <time>2021-08-24T11:53:28Z</time>
      </trkpt>
      <trkpt lat="45.40149" lon="5.84899">
        <ele>808</ele>
        <time>2021-08-24T11:53:29Z</time>
      </trkpt>
      <trkpt lat="45.40143" lon="5.84902">
        <ele>808.3</ele>
        <time>2021-08-24T11:53:30Z</time>
      </trkpt>
      <trkpt lat="45.40138" lon="5.84904">
        <ele>810.9</ele>
        <time>2021-08-24T11:53:31Z</time>
      </trkpt>
      <trkpt lat="45.40135" lon="5.84907">
        <ele>811</ele>
        <time>2021-08-24T11:53:32Z</time>
      </trkpt>
      <trkpt lat="45.4013" lon="5.84909">
        <ele>811</ele>
        <time>2021-08-24T11:53:34Z</time>
      </trkpt>
      <trkpt lat="45.40124" lon="5.84912">
        <ele>811</ele>
        <time>2021-08-24T11:53:35Z</time>
      </trkpt>
      <trkpt lat="45.40119" lon="5.84913">
        <ele>810.9</ele>
        <time>2021-08-24T11:53:36Z</time>
      </trkpt>
      <trkpt lat="45.40109" lon="5.84913">
        <ele>810.6</ele>
        <time>2021-08-24T11:53:38Z</time>
      </trkpt>
      <trkpt lat="45.40105" lon="5.84912">
        <ele>810.4</ele>
        <time>2021-08-24T11:53:39Z</time>
      </trkpt>
      <trkpt lat="45.40104" lon="5.8491">
        <ele>810.4</ele>
        <time>2021-08-24T11:53:40Z</time>
      </trkpt>
      <trkpt lat="45.40096" lon="5.84906">
        <ele>810.1</ele>
        <time>2021-08-24T11:53:42Z</time>
      </trkpt>
      <trkpt lat="45.40091" lon="5.84905">
        <ele>809.9</ele>
        <time>2021-08-24T11:53:43Z</time>
      </trkpt>
      <trkpt lat="45.4009" lon="5.84906">
        <ele>809.9</ele>
        <time>2021-08-24T11:53:44Z</time>
      </trkpt>
      <trkpt lat="45.40088" lon="5.84906">
        <ele>809.8</ele>
        <time>2021-08-24T11:53:46Z</time>
      </trkpt>
      <trkpt lat="45.40085" lon="5.84905">
        <ele>809.7</ele>
        <time>2021-08-24T11:53:48Z</time>
      </trkpt>
      <trkpt lat="45.40083" lon="5.84904">
        <ele>809.6</ele>
        <time>2021-08-24T11:53:49Z</time>
      </trkpt>
      <trkpt lat="45.4008" lon="5.84901">
        <ele>809.5</ele>
        <time>2021-08-24T11:53:51Z</time>
      </trkpt>
      <trkpt lat="45.40078" lon="5.84898">
        <ele>809.5</ele>
        <time>2021-08-24T11:53:52Z</time>
      </trkpt>
      <trkpt lat="45.40077" lon="5.84897">
        <ele>809.5</ele>
        <time>2021-08-24T11:53:53Z</time>
      </trkpt>
      <trkpt lat="45.40041" lon="5.84824">
        <ele>815.7</ele>
        <time>2021-08-24T11:54:05Z</time>
      </trkpt>
      <trkpt lat="45.40034" lon="5.84812">
        <ele>816.5</ele>
        <time>2021-08-24T11:54:07Z</time>
      </trkpt>
      <trkpt lat="45.40033" lon="5.84811">
        <ele>816.6</ele>
        <time>2021-08-24T11:54:08Z</time>
      </trkpt>
      <trkpt lat="45.40032" lon="5.84808">
        <ele>816.7</ele>
        <time>2021-08-24T11:54:10Z</time>
      </trkpt>
      <trkpt lat="45.40031" lon="5.84807">
        <ele>816.8</ele>
        <time>2021-08-24T11:54:12Z</time>
      </trkpt>
      <trkpt lat="45.40031" lon="5.84806">
        <ele>816.8</ele>
        <time>2021-08-24T11:54:14Z</time>
      </trkpt>
      <trkpt lat="45.4003" lon="5.84806">
        <ele>816.9</ele>
        <time>2021-08-24T11:54:15Z</time>
      </trkpt>
      <trkpt lat="45.4003" lon="5.84806">
        <ele>816.9</ele>
        <time>2021-08-24T11:54:16Z</time>
      </trkpt>
      <trkpt lat="45.40029" lon="5.84805">
        <ele>817</ele>
        <time>2021-08-24T11:54:18Z</time>
      </trkpt>
      <trkpt lat="45.40028" lon="5.84805">
        <ele>817</ele>
        <time>2021-08-24T11:54:20Z</time>
      </trkpt>
      <trkpt lat="45.40028" lon="5.84804">
        <ele>817.1</ele>
        <time>2021-08-24T11:54:21Z</time>
      </trkpt>
      <trkpt lat="45.40027" lon="5.84804">
        <ele>817.1</ele>
        <time>2021-08-24T11:54:22Z</time>
      </trkpt>
      <trkpt lat="45.40027" lon="5.84803">
        <ele>817.1</ele>
        <time>2021-08-24T11:54:24Z</time>
      </trkpt>
      <trkpt lat="45.40026" lon="5.84803">
        <ele>817.2</ele>
        <time>2021-08-24T11:54:25Z</time>
      </trkpt>
      <trkpt lat="45.40025" lon="5.84802">
        <ele>817.3</ele>
        <time>2021-08-24T11:54:27Z</time>
      </trkpt>
      <trkpt lat="45.40023" lon="5.84801">
        <ele>817.5</ele>
        <time>2021-08-24T11:54:28Z</time>
      </trkpt>
      <trkpt lat="45.4002" lon="5.84798">
        <ele>817.9</ele>
        <time>2021-08-24T11:54:30Z</time>
      </trkpt>
      <trkpt lat="45.40019" lon="5.84797">
        <ele>818</ele>
        <time>2021-08-24T11:54:32Z</time>
      </trkpt>
      <trkpt lat="45.40017" lon="5.84797">
        <ele>818.2</ele>
        <time>2021-08-24T11:54:33Z</time>
      </trkpt>
      <trkpt lat="45.40016" lon="5.84796">
        <ele>818.4</ele>
        <time>2021-08-24T11:54:34Z</time>
      </trkpt>
      <trkpt lat="45.40014" lon="5.84795">
        <ele>818.6</ele>
        <time>2021-08-24T11:54:36Z</time>
      </trkpt>
      <trkpt lat="45.40013" lon="5.84795">
        <ele>818.7</ele>
        <time>2021-08-24T11:54:37Z</time>
      </trkpt>
      <trkpt lat="45.40012" lon="5.84795">
        <ele>818.8</ele>
        <time>2021-08-24T11:54:38Z</time>
      </trkpt>
      <trkpt lat="45.40011" lon="5.84794">
        <ele>818.9</ele>
        <time>2021-08-24T11:54:39Z</time>
      </trkpt>
      <trkpt lat="45.40003" lon="5.84796">
        <ele>819.7</ele>
        <time>2021-08-24T11:54:40Z</time>
      </trkpt>
      <trkpt lat="45.39997" lon="5.84799">
        <ele>820.2</ele>
        <time>2021-08-24T11:54:41Z</time>
      </trkpt>
      <trkpt lat="45.3999" lon="5.84801">
        <ele>820.5</ele>
        <time>2021-08-24T11:54:42Z</time>
      </trkpt>
      <trkpt lat="45.39983" lon="5.84803">
        <ele>820.8</ele>
        <time>2021-08-24T11:54:44Z</time>
      </trkpt>
      <trkpt lat="45.39976" lon="5.84805">
        <ele>821.1</ele>
        <time>2021-08-24T11:55:44Z</time>
      </trkpt>
      <trkpt lat="45.39969" lon="5.84807">
        <ele>821.5</ele>
        <time>2021-08-24T11:55:46Z</time>
      </trkpt>
      <trkpt lat="45.39962" lon="5.84809">
        <ele>821.9</ele>
        <time>2021-08-24T11:55:47Z</time>
      </trkpt>
      <trkpt lat="45.39962" lon="5.8481">
        <ele>821.9</ele>
        <time>2021-08-24T11:55:48Z</time>
      </trkpt>
      <trkpt lat="45.39961" lon="5.8481">
        <ele>821.9</ele>
        <time>2021-08-24T11:55:50Z</time>
      </trkpt>
      <trkpt lat="45.39961" lon="5.84811">
        <ele>821.9</ele>
        <time>2021-08-24T11:55:51Z</time>
      </trkpt>
      <trkpt lat="45.39961" lon="5.84811">
        <ele>822</ele>
        <time>2021-08-24T11:55:52Z</time>
      </trkpt>
      <trkpt lat="45.39961" lon="5.84811">
        <ele>822</ele>
        <time>2021-08-24T11:55:54Z</time>
      </trkpt>
      <trkpt lat="45.3996" lon="5.84811">
        <ele>822</ele>
        <time>2021-08-24T11:55:55Z</time>
      </trkpt>
      <trkpt lat="45.3996" lon="5.84811">
        <ele>822</ele>
        <time>2021-08-24T11:55:56Z</time>
      </trkpt>
      <trkpt lat="45.3996" lon="5.84811">
        <ele>822</ele>
        <time>2021-08-24T11:55:58Z</time>
      </trkpt>
      <trkpt lat="45.39923" lon="5.8481">
        <ele>823.7</ele>
        <time>2021-08-24T11:57:24Z</time>
      </trkpt>
      <trkpt lat="45.39918" lon="5.84807">
        <ele>824</ele>
        <time>2021-08-24T11:57:26Z</time>
      </trkpt>
      <trkpt lat="45.39915" lon="5.84804">
        <ele>824.1</ele>
        <time>2021-08-24T11:57:27Z</time>
      </trkpt>
      <trkpt lat="45.39912" lon="5.84802">
        <ele>824.3</ele>
        <time>2021-08-24T11:57:29Z</time>
      </trkpt>
      <trkpt lat="45.39911" lon="5.84802">
        <ele>824.3</ele>
        <time>2021-08-24T11:57:30Z</time>
      </trkpt>
      <trkpt lat="45.3991" lon="5.84801">
        <ele>824.4</ele>
        <time>2021-08-24T11:57:31Z</time>
      </trkpt>
      <trkpt lat="45.39908" lon="5.84799">
        <ele>824.4</ele>
        <time>2021-08-24T11:57:33Z</time>
      </trkpt>
      <trkpt lat="45.39906" lon="5.84798">
        <ele>824.5</ele>
        <time>2021-08-24T11:57:34Z</time>
      </trkpt>
      <trkpt lat="45.39902" lon="5.84796">
        <ele>824.6</ele>
        <time>2021-08-24T11:57:36Z</time>
      </trkpt>
      <trkpt lat="45.399" lon="5.84794">
        <ele>824.6</ele>
        <time>2021-08-24T11:57:37Z</time>
      </trkpt>
      <trkpt lat="45.39799" lon="5.84782">
        <ele>830.4</ele>
        <time>2021-08-24T11:59:23Z</time>
      </trkpt>
      <trkpt lat="45.39796" lon="5.84783">
        <ele>830.6</ele>
        <time>2021-08-24T11:59:24Z</time>
      </trkpt>
      <trkpt lat="45.3979" lon="5.84785">
        <ele>830.8</ele>
        <time>2021-08-24T11:59:26Z</time>
      </trkpt>
      <trkpt lat="45.39785" lon="5.84785">
        <ele>830.9</ele>
        <time>2021-08-24T11:59:27Z</time>
      </trkpt>
      <trkpt lat="45.39779" lon="5.84786">
        <ele>830.9</ele>
        <time>2021-08-24T11:59:29Z</time>
      </trkpt>
      <trkpt lat="45.39774" lon="5.84786">
        <ele>830.8</ele>
        <time>2021-08-24T11:59:30Z</time>
      </trkpt>
      <trkpt lat="45.3977" lon="5.84786">
        <ele>830.7</ele>
        <time>2021-08-24T11:59:31Z</time>
      </trkpt>
      <trkpt lat="45.39767" lon="5.84785">
        <ele>830.6</ele>
        <time>2021-08-24T11:59:32Z</time>
      </trkpt>
      <trkpt lat="45.3976" lon="5.84783">
        <ele>830.4</ele>
        <time>2021-08-24T11:59:34Z</time>
      </trkpt>
      <trkpt lat="45.39754" lon="5.84781">
        <ele>830.2</ele>
        <time>2021-08-24T11:59:35Z</time>
      </trkpt>
      <trkpt lat="45.3975" lon="5.84782">
        <ele>830.1</ele>
        <time>2021-08-24T11:59:36Z</time>
      </trkpt>
      <trkpt lat="45.39745" lon="5.84783">
        <ele>829.9</ele>
        <time>2021-08-24T11:59:37Z</time>
      </trkpt>
      <trkpt lat="45.39739" lon="5.84785">
        <ele>829.7</ele>
        <time>2021-08-24T11:59:39Z</time>
      </trkpt>
      <trkpt lat="45.39734" lon="5.84788">
        <ele>829.7</ele>
        <time>2021-08-24T11:59:40Z</time>
      </trkpt>
      <trkpt lat="45.39727" lon="5.84791">
        <ele>829.6</ele>
        <time>2021-08-24T11:59:42Z</time>
      </trkpt>
      <trkpt lat="45.39723" lon="5.84794">
        <ele>829.5</ele>
        <time>2021-08-24T11:59:43Z</time>
      </trkpt>
      <trkpt lat="45.3972" lon="5.84797">
        <ele>829.4</ele>
        <time>2021-08-24T11:59:44Z</time>
      </trkpt>
      <trkpt lat="45.39716" lon="5.848">
        <ele>829.4</ele>
        <time>2021-08-24T11:59:46Z</time>
      </trkpt>
      <trkpt lat="45.39713" lon="5.84803">
        <ele>829.3</ele>
        <time>2021-08-24T11:59:47Z</time>
      </trkpt>
      <trkpt lat="45.39711" lon="5.84805">
        <ele>829.3</ele>
        <time>2021-08-24T11:59:48Z</time>
      </trkpt>
      <trkpt lat="45.39708" lon="5.84806">
        <ele>829.2</ele>
        <time>2021-08-24T11:59:49Z</time>
      </trkpt>
      <trkpt lat="45.39703" lon="5.84806">
        <ele>829.1</ele>
        <time>2021-08-24T11:59:51Z</time>
      </trkpt>
      <trkpt lat="45.39701" lon="5.84806">
        <ele>829.1</ele>
        <time>2021-08-24T11:59:52Z</time>
      </trkpt>
      <trkpt lat="45.39699" lon="5.84805">
        <ele>829.1</ele>
        <time>2021-08-24T11:59:53Z</time>
      </trkpt>
      <trkpt lat="45.39696" lon="5.84803">
        <ele>829</ele>
        <time>2021-08-24T11:59:54Z</time>
      </trkpt>
      <trkpt lat="45.39692" lon="5.84801">
        <ele>829</ele>
        <time>2021-08-24T11:59:55Z</time>
      </trkpt>
      <trkpt lat="45.39691" lon="5.848">
        <ele>829</ele>
        <time>2021-08-24T11:59:56Z</time>
      </trkpt>
      <trkpt lat="45.39689" lon="5.84798">
        <ele>829</ele>
        <time>2021-08-24T11:59:58Z</time>
      </trkpt>
      <trkpt lat="45.39686" lon="5.84799">
        <ele>829.1</ele>
        <time>2021-08-24T11:59:59Z</time>
      </trkpt>
      <trkpt lat="45.39683" lon="5.84801">
        <ele>829.1</ele>
        <time>2021-08-24T12:00:00Z</time>
      </trkpt>
      <trkpt lat="45.39678" lon="5.84804">
        <ele>829.3</ele>
        <time>2021-08-24T12:00:02Z</time>
      </trkpt>
      <trkpt lat="45.39675" lon="5.84805">
        <ele>829.4</ele>
        <time>2021-08-24T12:00:03Z</time>
      </trkpt>
      <trkpt lat="45.39673" lon="5.84807">
        <ele>829.5</ele>
        <time>2021-08-24T12:00:04Z</time>
      </trkpt>
      <trkpt lat="45.39669" lon="5.84808">
        <ele>829.6</ele>
        <time>2021-08-24T12:00:06Z</time>
      </trkpt>
      <trkpt lat="45.39663" lon="5.84813">
        <ele>829.9</ele>
        <time>2021-08-24T12:00:07Z</time>
      </trkpt>
      <trkpt lat="45.39655" lon="5.84818">
        <ele>830</ele>
        <time>2021-08-24T12:00:09Z</time>
      </trkpt>
      <trkpt lat="45.3965" lon="5.84822">
        <ele>829.9</ele>
        <time>2021-08-24T12:00:11Z</time>
      </trkpt>
      <trkpt lat="45.39646" lon="5.84826">
        <ele>829.8</ele>
        <time>2021-08-24T12:00:12Z</time>
      </trkpt>
      <trkpt lat="45.39638" lon="5.84833">
        <ele>829</ele>
        <time>2021-08-24T12:00:14Z</time>
      </trkpt>
      <trkpt lat="45.39633" lon="5.84838">
        <ele>827.9</ele>
        <time>2021-08-24T12:00:15Z</time>
      </trkpt>
      <trkpt lat="45.39628" lon="5.84842">
        <ele>826.8</ele>
        <time>2021-08-24T12:00:16Z</time>
      </trkpt>
      <trkpt lat="45.39626" lon="5.84844">
        <ele>826.4</ele>
        <time>2021-08-24T12:00:17Z</time>
      </trkpt>
      <trkpt lat="45.39622" lon="5.84848">
        <ele>825.7</ele>
        <time>2021-08-24T12:00:18Z</time>
      </trkpt>
      <trkpt lat="45.39617" lon="5.84853">
        <ele>824.9</ele>
        <time>2021-08-24T12:00:20Z</time>
      </trkpt>
      <trkpt lat="45.39613" lon="5.84855">
        <ele>824.4</ele>
        <time>2021-08-24T12:00:21Z</time>
      </trkpt>
      <trkpt lat="45.3961" lon="5.84857">
        <ele>824.1</ele>
        <time>2021-08-24T12:00:23Z</time>
      </trkpt>
      <trkpt lat="45.39606" lon="5.84858">
        <ele>823.7</ele>
        <time>2021-08-24T12:00:24Z</time>
      </trkpt>
      <trkpt lat="45.39604" lon="5.84859">
        <ele>824.3</ele>
        <time>2021-08-24T12:00:25Z</time>
      </trkpt>
      <trkpt lat="45.39603" lon="5.84859">
        <ele>824.4</ele>
        <time>2021-08-24T12:00:26Z</time>
      </trkpt>
      <trkpt lat="45.39602" lon="5.84859">
        <ele>824.4</ele>
        <time>2021-08-24T12:00:27Z</time>
      </trkpt>
      <trkpt lat="45.39602" lon="5.84859">
        <ele>824.3</ele>
        <time>2021-08-24T12:00:29Z</time>
      </trkpt>
      <trkpt lat="45.39602" lon="5.84859">
        <ele>824.4</ele>
        <time>2021-08-24T12:00:31Z</time>
      </trkpt>
      <trkpt lat="45.39602" lon="5.84859">
        <ele>824.4</ele>
        <time>2021-08-24T12:00:33Z</time>
      </trkpt>
      <trkpt lat="45.39602" lon="5.84859">
        <ele>824.5</ele>
        <time>2021-08-24T12:00:34Z</time>
      </trkpt>
      <trkpt lat="45.39601" lon="5.84859">
        <ele>824.5</ele>
        <time>2021-08-24T12:00:35Z</time>
      </trkpt>
      <trkpt lat="45.39534" lon="5.84829">
        <ele>835.2</ele>
        <time>2021-08-24T12:02:11Z</time>
      </trkpt>
      <trkpt lat="45.39532" lon="5.84827">
        <ele>835.5</ele>
        <time>2021-08-24T12:02:12Z</time>
      </trkpt>
      <trkpt lat="45.3953" lon="5.84824">
        <ele>836.2</ele>
        <time>2021-08-24T12:02:14Z</time>
      </trkpt>
      <trkpt lat="45.39528" lon="5.84822">
        <ele>836.6</ele>
        <time>2021-08-24T12:02:16Z</time>
      </trkpt>
      <trkpt lat="45.39525" lon="5.84819">
        <ele>837.3</ele>
        <time>2021-08-24T12:02:18Z</time>
      </trkpt>
      <trkpt lat="45.39524" lon="5.84816">
        <ele>837.3</ele>
        <time>2021-08-24T12:02:20Z</time>
      </trkpt>
      <trkpt lat="45.39523" lon="5.84815">
        <ele>837.6</ele>
        <time>2021-08-24T12:02:21Z</time>
      </trkpt>
      <trkpt lat="45.39522" lon="5.84811">
        <ele>838.3</ele>
        <time>2021-08-24T12:02:24Z</time>
      </trkpt>
      <trkpt lat="45.39522" lon="5.8481">
        <ele>838.3</ele>
        <time>2021-08-24T12:02:26Z</time>
      </trkpt>
      <trkpt lat="45.39521" lon="5.8481">
        <ele>838.4</ele>
        <time>2021-08-24T12:02:27Z</time>
      </trkpt>
      <trkpt lat="45.39521" lon="5.8481">
        <ele>838.4</ele>
        <time>2021-08-24T12:02:29Z</time>
      </trkpt>
      <trkpt lat="45.39521" lon="5.8481">
        <ele>838.5</ele>
        <time>2021-08-24T12:02:30Z</time>
      </trkpt>
      <trkpt lat="45.39521" lon="5.84809">
        <ele>838.5</ele>
        <time>2021-08-24T12:02:31Z</time>
      </trkpt>
      <trkpt lat="45.3952" lon="5.84809">
        <ele>838.6</ele>
        <time>2021-08-24T12:02:33Z</time>
      </trkpt>
      <trkpt lat="45.3952" lon="5.84809">
        <ele>838.6</ele>
        <time>2021-08-24T12:02:34Z</time>
      </trkpt>
      <trkpt lat="45.3952" lon="5.84809">
        <ele>839</ele>
        <time>2021-08-24T12:02:35Z</time>
      </trkpt>
      <trkpt lat="45.39519" lon="5.84808">
        <ele>839.1</ele>
        <time>2021-08-24T12:02:36Z</time>
      </trkpt>
      <trkpt lat="45.39519" lon="5.84808">
        <ele>839.1</ele>
        <time>2021-08-24T12:02:37Z</time>
      </trkpt>
      <trkpt lat="45.39519" lon="5.84808">
        <ele>839.2</ele>
        <time>2021-08-24T12:02:39Z</time>
      </trkpt>
      <trkpt lat="45.39518" lon="5.84807">
        <ele>839.2</ele>
        <time>2021-08-24T12:02:40Z</time>
      </trkpt>
      <trkpt lat="45.39518" lon="5.84807">
        <ele>839.5</ele>
        <time>2021-08-24T12:02:42Z</time>
      </trkpt>
      <trkpt lat="45.39518" lon="5.84807">
        <ele>839.6</ele>
        <time>2021-08-24T12:02:43Z</time>
      </trkpt>
      <trkpt lat="45.39517" lon="5.84807">
        <ele>839.6</ele>
        <time>2021-08-24T12:02:44Z</time>
      </trkpt>
      <trkpt lat="45.39517" lon="5.84806">
        <ele>839.7</ele>
        <time>2021-08-24T12:02:45Z</time>
      </trkpt>
      <trkpt lat="45.39517" lon="5.84806">
        <ele>839.7</ele>
        <time>2021-08-24T12:02:46Z</time>
      </trkpt>
      <trkpt lat="45.39517" lon="5.84806">
        <ele>840.2</ele>
        <time>2021-08-24T12:02:48Z</time>
      </trkpt>
      <trkpt lat="45.39516" lon="5.84806">
        <ele>840.2</ele>
        <time>2021-08-24T12:02:49Z</time>
      </trkpt>
      <trkpt lat="45.39516" lon="5.84805">
        <ele>840.3</ele>
        <time>2021-08-24T12:02:51Z</time>
      </trkpt>
      <trkpt lat="45.39516" lon="5.84805">
        <ele>840.3</ele>
        <time>2021-08-24T12:02:52Z</time>
      </trkpt>
      <trkpt lat="45.39515" lon="5.84805">
        <ele>840.4</ele>
        <time>2021-08-24T12:02:53Z</time>
      </trkpt>
      <trkpt lat="45.39515" lon="5.84805">
        <ele>840.4</ele>
        <time>2021-08-24T12:02:55Z</time>
      </trkpt>
      <trkpt lat="45.39515" lon="5.84804">
        <ele>840.5</ele>
        <time>2021-08-24T12:02:56Z</time>
      </trkpt>
      <trkpt lat="45.39514" lon="5.84804">
        <ele>840.5</ele>
        <time>2021-08-24T12:02:57Z</time>
      </trkpt>
      <trkpt lat="45.3951" lon="5.84803">
        <ele>841.6</ele>
        <time>2021-08-24T12:02:59Z</time>
      </trkpt>
      <trkpt lat="45.39508" lon="5.84803">
        <ele>841.7</ele>
        <time>2021-08-24T12:03:00Z</time>
      </trkpt>
      <trkpt lat="45.39507" lon="5.84802">
        <ele>842.2</ele>
        <time>2021-08-24T12:03:01Z</time>
      </trkpt>
      <trkpt lat="45.39503" lon="5.84801">
        <ele>842.7</ele>
        <time>2021-08-24T12:03:03Z</time>
      </trkpt>
      <trkpt lat="45.39499" lon="5.84801">
        <ele>843.2</ele>
        <time>2021-08-24T12:03:04Z</time>
      </trkpt>
      <trkpt lat="45.39498" lon="5.848">
        <ele>843.7</ele>
        <time>2021-08-24T12:03:05Z</time>
      </trkpt>
      <trkpt lat="45.39496" lon="5.84799">
        <ele>843.9</ele>
        <time>2021-08-24T12:03:07Z</time>
      </trkpt>
      <trkpt lat="45.39495" lon="5.84798">
        <ele>844.5</ele>
        <time>2021-08-24T12:03:08Z</time>
      </trkpt>
      <trkpt lat="45.39493" lon="5.84796">
        <ele>844.5</ele>
        <time>2021-08-24T12:03:09Z</time>
      </trkpt>
      <trkpt lat="45.39491" lon="5.84793">
        <ele>845.2</ele>
        <time>2021-08-24T12:03:11Z</time>
      </trkpt>
      <trkpt lat="45.39487" lon="5.84781">
        <ele>846.2</ele>
        <time>2021-08-24T12:03:12Z</time>
      </trkpt>
      <trkpt lat="45.39483" lon="5.8477">
        <ele>847.5</ele>
        <time>2021-08-24T12:03:13Z</time>
      </trkpt>
      <trkpt lat="45.3948" lon="5.84759">
        <ele>848.4</ele>
        <time>2021-08-24T12:03:15Z</time>
      </trkpt>
      <trkpt lat="45.39479" lon="5.84756">
        <ele>848.5</ele>
        <time>2021-08-24T12:03:16Z</time>
      </trkpt>
      <trkpt lat="45.39477" lon="5.84753">
        <ele>849.2</ele>
        <time>2021-08-24T12:03:18Z</time>
      </trkpt>
      <trkpt lat="45.39473" lon="5.84748">
        <ele>850</ele>
        <time>2021-08-24T12:03:19Z</time>
      </trkpt>
      <trkpt lat="45.39471" lon="5.84746">
        <ele>850.8</ele>
        <time>2021-08-24T12:03:20Z</time>
      </trkpt>
      <trkpt lat="45.39469" lon="5.84744">
        <ele>850.9</ele>
        <time>2021-08-24T12:03:21Z</time>
      </trkpt>
      <trkpt lat="45.39464" lon="5.84741">
        <ele>852.2</ele>
        <time>2021-08-24T12:03:23Z</time>
      </trkpt>
      <trkpt lat="45.39462" lon="5.8474">
        <ele>852.7</ele>
        <time>2021-08-24T12:03:25Z</time>
      </trkpt>
      <trkpt lat="45.39461" lon="5.84739">
        <ele>852.8</ele>
        <time>2021-08-24T12:03:26Z</time>
      </trkpt>
      <trkpt lat="45.39457" lon="5.84735">
        <ele>853.4</ele>
        <time>2021-08-24T12:03:28Z</time>
      </trkpt>
      <trkpt lat="45.39454" lon="5.8473">
        <ele>854.1</ele>
        <time>2021-08-24T12:03:29Z</time>
      </trkpt>
      <trkpt lat="45.39451" lon="5.84726">
        <ele>854.8</ele>
        <time>2021-08-24T12:03:31Z</time>
      </trkpt>
      <trkpt lat="45.39448" lon="5.84722">
        <ele>855.6</ele>
        <time>2021-08-24T12:03:32Z</time>
      </trkpt>
      <trkpt lat="45.39445" lon="5.84717">
        <ele>856.4</ele>
        <time>2021-08-24T12:03:34Z</time>
      </trkpt>
      <trkpt lat="45.39442" lon="5.84713">
        <ele>857.2</ele>
        <time>2021-08-24T12:04:13Z</time>
      </trkpt>
      <trkpt lat="45.39439" lon="5.84709">
        <ele>857.9</ele>
        <time>2021-08-24T12:04:14Z</time>
      </trkpt>
      <trkpt lat="45.39436" lon="5.84704">
        <ele>858.8</ele>
        <time>2021-08-24T12:04:15Z</time>
      </trkpt>
      <trkpt lat="45.39435" lon="5.84703">
        <ele>859.3</ele>
        <time>2021-08-24T12:04:16Z</time>
      </trkpt>
      <trkpt lat="45.39434" lon="5.84701">
        <ele>859.4</ele>
        <time>2021-08-24T12:04:17Z</time>
      </trkpt>
      <trkpt lat="45.39433" lon="5.84699">
        <ele>859.6</ele>
        <time>2021-08-24T12:04:18Z</time>
      </trkpt>
      <trkpt lat="45.3943" lon="5.84696">
        <ele>860.2</ele>
        <time>2021-08-24T12:04:20Z</time>
      </trkpt>
      <trkpt lat="45.39427" lon="5.84693">
        <ele>860.6</ele>
        <time>2021-08-24T12:04:21Z</time>
      </trkpt>
      <trkpt lat="45.39426" lon="5.84692">
        <ele>861.1</ele>
        <time>2021-08-24T12:04:22Z</time>
      </trkpt>
      <trkpt lat="45.39423" lon="5.84689">
        <ele>861.3</ele>
        <time>2021-08-24T12:04:24Z</time>
      </trkpt>
      <trkpt lat="45.39422" lon="5.84687">
        <ele>861.9</ele>
        <time>2021-08-24T12:04:25Z</time>
      </trkpt>
      <trkpt lat="45.39418" lon="5.84681">
        <ele>862.4</ele>
        <time>2021-08-24T12:04:27Z</time>
      </trkpt>
      <trkpt lat="45.39417" lon="5.84679">
        <ele>862.5</ele>
        <time>2021-08-24T12:04:28Z</time>
      </trkpt>
      <trkpt lat="45.39416" lon="5.84677">
        <ele>863.1</ele>
        <time>2021-08-24T12:04:30Z</time>
      </trkpt>
      <trkpt lat="45.39417" lon="5.84677">
        <ele>863.1</ele>
        <time>2021-08-24T12:04:31Z</time>
      </trkpt>
      <trkpt lat="45.39417" lon="5.84678">
        <ele>863.2</ele>
        <time>2021-08-24T12:04:33Z</time>
      </trkpt>
      <trkpt lat="45.39417" lon="5.84678">
        <ele>863.2</ele>
        <time>2021-08-24T12:04:34Z</time>
      </trkpt>
      <trkpt lat="45.39415" lon="5.84678">
        <ele>863.3</ele>
        <time>2021-08-24T12:04:36Z</time>
      </trkpt>
      <trkpt lat="45.39412" lon="5.84678">
        <ele>863.7</ele>
        <time>2021-08-24T12:04:38Z</time>
      </trkpt>
      <trkpt lat="45.39409" lon="5.84677">
        <ele>864.1</ele>
        <time>2021-08-24T12:04:40Z</time>
      </trkpt>
      <trkpt lat="45.39407" lon="5.84677">
        <ele>864.5</ele>
        <time>2021-08-24T12:04:41Z</time>
      </trkpt>
      <trkpt lat="45.39406" lon="5.84677">
        <ele>864.5</ele>
        <time>2021-08-24T12:04:43Z</time>
      </trkpt>
      <trkpt lat="45.39405" lon="5.84677">
        <ele>864.9</ele>
        <time>2021-08-24T12:04:44Z</time>
      </trkpt>
      <trkpt lat="45.39403" lon="5.84677">
        <ele>865</ele>
        <time>2021-08-24T12:04:45Z</time>
      </trkpt>
      <trkpt lat="45.39399" lon="5.84677">
        <ele>865.3</ele>
        <time>2021-08-24T12:04:47Z</time>
      </trkpt>
      <trkpt lat="45.39396" lon="5.84676">
        <ele>865.6</ele>
        <time>2021-08-24T12:04:49Z</time>
      </trkpt>
      <trkpt lat="45.39395" lon="5.84675">
        <ele>866</ele>
        <time>2021-08-24T12:04:50Z</time>
      </trkpt>
      <trkpt lat="45.39394" lon="5.84674">
        <ele>866.3</ele>
        <time>2021-08-24T12:04:51Z</time>
      </trkpt>
      <trkpt lat="45.39391" lon="5.84673">
        <ele>866.7</ele>
        <time>2021-08-24T12:04:53Z</time>
      </trkpt>
      <trkpt lat="45.3939" lon="5.84673">
        <ele>867.1</ele>
        <time>2021-08-24T12:04:54Z</time>
      </trkpt>
      <trkpt lat="45.39385" lon="5.84674">
        <ele>867.5</ele>
        <time>2021-08-24T12:04:56Z</time>
      </trkpt>
      <trkpt lat="45.39382" lon="5.84676">
        <ele>867.7</ele>
        <time>2021-08-24T12:04:58Z</time>
      </trkpt>
      <trkpt lat="45.39381" lon="5.84676">
        <ele>867.8</ele>
        <time>2021-08-24T12:04:59Z</time>
      </trkpt>
      <trkpt lat="45.39377" lon="5.84677">
        <ele>868.5</ele>
        <time>2021-08-24T12:05:01Z</time>
      </trkpt>
      <trkpt lat="45.39373" lon="5.84677">
        <ele>868.8</ele>
        <time>2021-08-24T12:05:02Z</time>
      </trkpt>
      <trkpt lat="45.3937" lon="5.84676">
        <ele>869.2</ele>
        <time>2021-08-24T12:05:03Z</time>
      </trkpt>
      <trkpt lat="45.39368" lon="5.84681">
        <ele>869.3</ele>
        <time>2021-08-24T12:05:05Z</time>
      </trkpt>
      <trkpt lat="45.39368" lon="5.84682">
        <ele>869.4</ele>
        <time>2021-08-24T12:05:06Z</time>
      </trkpt>
      <trkpt lat="45.39368" lon="5.84683">
        <ele>869.2</ele>
        <time>2021-08-24T12:05:08Z</time>
      </trkpt>
      <trkpt lat="45.39368" lon="5.84683">
        <ele>869.3</ele>
        <time>2021-08-24T12:05:09Z</time>
      </trkpt>
      <trkpt lat="45.39368" lon="5.84683">
        <ele>869.3</ele>
        <time>2021-08-24T12:05:10Z</time>
      </trkpt>
      <trkpt lat="45.39368" lon="5.84683">
        <ele>869.4</ele>
        <time>2021-08-24T12:05:12Z</time>
      </trkpt>
      <trkpt lat="45.39368" lon="5.84683">
        <ele>869.4</ele>
        <time>2021-08-24T12:05:13Z</time>
      </trkpt>
      <trkpt lat="45.39428" lon="5.8479">
        <ele>856.9</ele>
        <time>2021-08-24T12:06:05Z</time>
      </trkpt>
      <trkpt lat="45.39423" lon="5.84787">
        <ele>857.4</ele>
        <time>2021-08-24T12:06:06Z</time>
      </trkpt>
      <trkpt lat="45.39417" lon="5.84784">
        <ele>858.3</ele>
        <time>2021-08-24T12:06:07Z</time>
      </trkpt>
      <trkpt lat="45.39413" lon="5.84782">
        <ele>858.6</ele>
        <time>2021-08-24T12:06:08Z</time>
      </trkpt>
      <trkpt lat="45.39408" lon="5.84779">
        <ele>859.6</ele>
        <time>2021-08-24T12:06:10Z</time>
      </trkpt>
      <trkpt lat="45.39407" lon="5.84778">
        <ele>859.7</ele>
        <time>2021-08-24T12:06:11Z</time>
      </trkpt>
      <trkpt lat="45.39407" lon="5.84778">
        <ele>859.7</ele>
        <time>2021-08-24T12:06:12Z</time>
      </trkpt>
      <trkpt lat="45.39406" lon="5.84778">
        <ele>859.8</ele>
        <time>2021-08-24T12:06:13Z</time>
      </trkpt>
      <trkpt lat="45.39405" lon="5.84775">
        <ele>860.5</ele>
        <time>2021-08-24T12:06:15Z</time>
      </trkpt>
      <trkpt lat="45.39403" lon="5.84775">
        <ele>860.6</ele>
        <time>2021-08-24T12:06:16Z</time>
      </trkpt>
      <trkpt lat="45.39403" lon="5.84777">
        <ele>860.6</ele>
        <time>2021-08-24T12:06:17Z</time>
      </trkpt>
      <trkpt lat="45.39401" lon="5.84776">
        <ele>860.9</ele>
        <time>2021-08-24T12:06:19Z</time>
      </trkpt>
      <trkpt lat="45.39402" lon="5.84778">
        <ele>860.4</ele>
        <time>2021-08-24T12:06:20Z</time>
      </trkpt>
      <trkpt lat="45.39403" lon="5.84781">
        <ele>860.3</ele>
        <time>2021-08-24T12:06:21Z</time>
      </trkpt>
      <trkpt lat="45.39405" lon="5.84783">
        <ele>859.8</ele>
        <time>2021-08-24T12:06:22Z</time>
      </trkpt>
      <trkpt lat="45.39406" lon="5.84786">
        <ele>859.6</ele>
        <time>2021-08-24T12:06:24Z</time>
      </trkpt>
      <trkpt lat="45.39407" lon="5.84788">
        <ele>859.1</ele>
        <time>2021-08-24T12:06:26Z</time>
      </trkpt>
      <trkpt lat="45.39409" lon="5.8479">
        <ele>859</ele>
        <time>2021-08-24T12:06:27Z</time>
      </trkpt>
      <trkpt lat="45.3941" lon="5.84793">
        <ele>858.5</ele>
        <time>2021-08-24T12:06:28Z</time>
      </trkpt>
      <trkpt lat="45.39411" lon="5.84795">
        <ele>857.8</ele>
        <time>2021-08-24T12:06:29Z</time>
      </trkpt>
      <trkpt lat="45.39413" lon="5.84797">
        <ele>857.9</ele>
        <time>2021-08-24T12:06:46Z</time>
      </trkpt>
      <trkpt lat="45.39414" lon="5.848">
        <ele>857.2</ele>
        <time>2021-08-24T12:06:47Z</time>
      </trkpt>
      <trkpt lat="45.39417" lon="5.84803">
        <ele>856.6</ele>
        <time>2021-08-24T12:06:48Z</time>
      </trkpt>
      <trkpt lat="45.39426" lon="5.84812">
        <ele>855.2</ele>
        <time>2021-08-24T12:06:50Z</time>
      </trkpt>
      <trkpt lat="45.39431" lon="5.84818">
        <ele>854.5</ele>
        <time>2021-08-24T12:06:51Z</time>
      </trkpt>
      <trkpt lat="45.39435" lon="5.84823">
        <ele>853.7</ele>
        <time>2021-08-24T12:06:53Z</time>
      </trkpt>
      <trkpt lat="45.39437" lon="5.84826">
        <ele>852.9</ele>
        <time>2021-08-24T12:06:54Z</time>
      </trkpt>
      <trkpt lat="45.39438" lon="5.84827">
        <ele>853</ele>
        <time>2021-08-24T12:06:55Z</time>
      </trkpt>
      <trkpt lat="45.39441" lon="5.84829">
        <ele>852.2</ele>
        <time>2021-08-24T12:06:56Z</time>
      </trkpt>
      <trkpt lat="45.39444" lon="5.8483">
        <ele>852</ele>
        <time>2021-08-24T12:06:58Z</time>
      </trkpt>
      <trkpt lat="45.39447" lon="5.84832">
        <ele>851.8</ele>
        <time>2021-08-24T12:06:59Z</time>
      </trkpt>
      <trkpt lat="45.39449" lon="5.84834">
        <ele>851</ele>
        <time>2021-08-24T12:07:00Z</time>
      </trkpt>
      <trkpt lat="45.39451" lon="5.84834">
        <ele>850.8</ele>
        <time>2021-08-24T12:07:02Z</time>
      </trkpt>
      <trkpt lat="45.39454" lon="5.84834">
        <ele>850.6</ele>
        <time>2021-08-24T12:07:04Z</time>
      </trkpt>
      <trkpt lat="45.39455" lon="5.84834">
        <ele>850.7</ele>
        <time>2021-08-24T12:07:05Z</time>
      </trkpt>
      <trkpt lat="45.39457" lon="5.84828">
        <ele>851.7</ele>
        <time>2021-08-24T12:07:06Z</time>
      </trkpt>
      <trkpt lat="45.39457" lon="5.84823">
        <ele>852.2</ele>
        <time>2021-08-24T12:07:42Z</time>
      </trkpt>
      <trkpt lat="45.39458" lon="5.84818">
        <ele>852.8</ele>
        <time>2021-08-24T12:07:43Z</time>
      </trkpt>
      <trkpt lat="45.39457" lon="5.84805">
        <ele>852.3</ele>
        <time>2021-08-24T12:07:45Z</time>
      </trkpt>
      <trkpt lat="45.39457" lon="5.84797">
        <ele>852.1</ele>
        <time>2021-08-24T12:07:46Z</time>
      </trkpt>
      <trkpt lat="45.39456" lon="5.84785">
        <ele>851.7</ele>
        <time>2021-08-24T12:07:48Z</time>
      </trkpt>
      <trkpt lat="45.39455" lon="5.8478">
        <ele>851.5</ele>
        <time>2021-08-24T12:07:49Z</time>
      </trkpt>
      <trkpt lat="45.39455" lon="5.84775">
        <ele>851.4</ele>
        <time>2021-08-24T12:07:50Z</time>
      </trkpt>
      <trkpt lat="45.39454" lon="5.8477">
        <ele>851.1</ele>
        <time>2021-08-24T12:07:52Z</time>
      </trkpt>
      <trkpt lat="45.39454" lon="5.84767">
        <ele>851</ele>
        <time>2021-08-24T12:07:53Z</time>
      </trkpt>
      <trkpt lat="45.39454" lon="5.84765">
        <ele>850.9</ele>
        <time>2021-08-24T12:07:54Z</time>
      </trkpt>
      <trkpt lat="45.39454" lon="5.84762">
        <ele>850.9</ele>
        <time>2021-08-24T12:07:56Z</time>
      </trkpt>
      <trkpt lat="45.39453" lon="5.8476">
        <ele>850.8</ele>
        <time>2021-08-24T12:07:57Z</time>
      </trkpt>
      <trkpt lat="45.39454" lon="5.84758">
        <ele>850.8</ele>
        <time>2021-08-24T12:07:58Z</time>
      </trkpt>
      <trkpt lat="45.39454" lon="5.84756">
        <ele>850.7</ele>
        <time>2021-08-24T12:07:59Z</time>
      </trkpt>
      <trkpt lat="45.39453" lon="5.84752">
        <ele>850.7</ele>
        <time>2021-08-24T12:08:01Z</time>
      </trkpt>
      <trkpt lat="45.39453" lon="5.84747">
        <ele>850.7</ele>
        <time>2021-08-24T12:08:03Z</time>
      </trkpt>
      <trkpt lat="45.39454" lon="5.84744">
        <ele>850.7</ele>
        <time>2021-08-24T12:08:05Z</time>
      </trkpt>
      <trkpt lat="45.39457" lon="5.84739">
        <ele>850.7</ele>
        <time>2021-08-24T12:08:07Z</time>
      </trkpt>
      <trkpt lat="45.39457" lon="5.84737">
        <ele>850.7</ele>
        <time>2021-08-24T12:08:08Z</time>
      </trkpt>
      <trkpt lat="45.39458" lon="5.84735">
        <ele>850.7</ele>
        <time>2021-08-24T12:08:10Z</time>
      </trkpt>
      <trkpt lat="45.39459" lon="5.84734">
        <ele>850.7</ele>
        <time>2021-08-24T12:08:11Z</time>
      </trkpt>
      <trkpt lat="45.39458" lon="5.84734">
        <ele>850.7</ele>
        <time>2021-08-24T12:08:13Z</time>
      </trkpt>
      <trkpt lat="45.39459" lon="5.84732">
        <ele>850.7</ele>
        <time>2021-08-24T12:08:14Z</time>
      </trkpt>
      <trkpt lat="45.3946" lon="5.84729">
        <ele>850.7</ele>
        <time>2021-08-24T12:08:16Z</time>
      </trkpt>
      <trkpt lat="45.39461" lon="5.84728">
        <ele>850.7</ele>
        <time>2021-08-24T12:08:17Z</time>
      </trkpt>
      <trkpt lat="45.39464" lon="5.84727">
        <ele>850.7</ele>
        <time>2021-08-24T12:08:18Z</time>
      </trkpt>
      <trkpt lat="45.39466" lon="5.84726">
        <ele>850.7</ele>
        <time>2021-08-24T12:08:19Z</time>
      </trkpt>
      <trkpt lat="45.39467" lon="5.84724">
        <ele>850.7</ele>
        <time>2021-08-24T12:08:20Z</time>
      </trkpt>
      <trkpt lat="45.39471" lon="5.84719">
        <ele>850.7</ele>
        <time>2021-08-24T12:08:22Z</time>
      </trkpt>
      <trkpt lat="45.39473" lon="5.84716">
        <ele>850.6</ele>
        <time>2021-08-24T12:08:23Z</time>
      </trkpt>
      <trkpt lat="45.39474" lon="5.84713">
        <ele>850.5</ele>
        <time>2021-08-24T12:08:24Z</time>
      </trkpt>
      <trkpt lat="45.39476" lon="5.84708">
        <ele>850.4</ele>
        <time>2021-08-24T12:08:26Z</time>
      </trkpt>
      <trkpt lat="45.39478" lon="5.84704">
        <ele>850.3</ele>
        <time>2021-08-24T12:08:28Z</time>
      </trkpt>
      <trkpt lat="45.39482" lon="5.84701">
        <ele>850.1</ele>
        <time>2021-08-24T12:08:29Z</time>
      </trkpt>
      <trkpt lat="45.39487" lon="5.84699">
        <ele>849.9</ele>
        <time>2021-08-24T12:08:31Z</time>
      </trkpt>
      <trkpt lat="45.39491" lon="5.84698">
        <ele>849.8</ele>
        <time>2021-08-24T12:08:32Z</time>
      </trkpt>
      <trkpt lat="45.39497" lon="5.84697">
        <ele>849.7</ele>
        <time>2021-08-24T12:08:34Z</time>
      </trkpt>
      <trkpt lat="45.39502" lon="5.84696">
        <ele>849.6</ele>
        <time>2021-08-24T12:08:35Z</time>
      </trkpt>
      <trkpt lat="45.39506" lon="5.84695">
        <ele>849.5</ele>
        <time>2021-08-24T12:08:36Z</time>
      </trkpt>
      <trkpt lat="45.39511" lon="5.84695">
        <ele>849.4</ele>
        <time>2021-08-24T12:08:38Z</time>
      </trkpt>
      <trkpt lat="45.39517" lon="5.84696">
        <ele>849.2</ele>
        <time>2021-08-24T12:08:39Z</time>
      </trkpt>
      <trkpt lat="45.39521" lon="5.84697">
        <ele>849.2</ele>
        <time>2021-08-24T12:08:40Z</time>
      </trkpt>
      <trkpt lat="45.39526" lon="5.84698">
        <ele>849.1</ele>
        <time>2021-08-24T12:08:41Z</time>
      </trkpt>
      <trkpt lat="45.3953" lon="5.84699">
        <ele>849</ele>
        <time>2021-08-24T12:08:43Z</time>
      </trkpt>
      <trkpt lat="45.39538" lon="5.84701">
        <ele>848.9</ele>
        <time>2021-08-24T12:08:44Z</time>
      </trkpt>
      <trkpt lat="45.39544" lon="5.84702">
        <ele>848.9</ele>
        <time>2021-08-24T12:08:45Z</time>
      </trkpt>
      <trkpt lat="45.39551" lon="5.84703">
        <ele>848.9</ele>
        <time>2021-08-24T12:08:47Z</time>
      </trkpt>
      <trkpt lat="45.39558" lon="5.84703">
        <ele>848.9</ele>
        <time>2021-08-24T12:08:48Z</time>
      </trkpt>
      <trkpt lat="45.39565" lon="5.84703">
        <ele>848.8</ele>
        <time>2021-08-24T12:08:49Z</time>
      </trkpt>
      <trkpt lat="45.39572" lon="5.84703">
        <ele>848.7</ele>
        <time>2021-08-24T12:08:50Z</time>
      </trkpt>
      <trkpt lat="45.3958" lon="5.84703">
        <ele>848.5</ele>
        <time>2021-08-24T12:08:52Z</time>
      </trkpt>
      <trkpt lat="45.39587" lon="5.84704">
        <ele>848.3</ele>
        <time>2021-08-24T12:08:54Z</time>
      </trkpt>
      <trkpt lat="45.39592" lon="5.84704">
        <ele>848.2</ele>
        <time>2021-08-24T12:08:55Z</time>
      </trkpt>
      <trkpt lat="45.39599" lon="5.84703">
        <ele>848</ele>
        <time>2021-08-24T12:08:56Z</time>
      </trkpt>
      <trkpt lat="45.39605" lon="5.84702">
        <ele>847.8</ele>
        <time>2021-08-24T12:08:58Z</time>
      </trkpt>
      <trkpt lat="45.39608" lon="5.84701">
        <ele>847.7</ele>
        <time>2021-08-24T12:08:59Z</time>
      </trkpt>
      <trkpt lat="45.39611" lon="5.84699">
        <ele>847.6</ele>
        <time>2021-08-24T12:09:00Z</time>
      </trkpt>
      <trkpt lat="45.39614" lon="5.84697">
        <ele>847.6</ele>
        <time>2021-08-24T12:09:02Z</time>
      </trkpt>
      <trkpt lat="45.39616" lon="5.84696">
        <ele>847.6</ele>
        <time>2021-08-24T12:09:03Z</time>
      </trkpt>
      <trkpt lat="45.39616" lon="5.84696">
        <ele>847.6</ele>
        <time>2021-08-24T12:09:05Z</time>
      </trkpt>
      <trkpt lat="45.39616" lon="5.84696">
        <ele>847.6</ele>
        <time>2021-08-24T12:09:06Z</time>
      </trkpt>
      <trkpt lat="45.39615" lon="5.84695">
        <ele>847.6</ele>
        <time>2021-08-24T12:09:07Z</time>
      </trkpt>
      <trkpt lat="45.39616" lon="5.84695">
        <ele>847.6</ele>
        <time>2021-08-24T12:09:08Z</time>
      </trkpt>
      <trkpt lat="45.39616" lon="5.84695">
        <ele>847.6</ele>
        <time>2021-08-24T12:09:09Z</time>
      </trkpt>
      <trkpt lat="45.39616" lon="5.84695">
        <ele>847.6</ele>
        <time>2021-08-24T12:09:10Z</time>
      </trkpt>
      <trkpt lat="45.39616" lon="5.84695">
        <ele>847.6</ele>
        <time>2021-08-24T12:09:12Z</time>
      </trkpt>
      <trkpt lat="45.39601" lon="5.84525">
        <ele>871.5</ele>
        <time>2021-08-24T12:13:03Z</time>
      </trkpt>
      <trkpt lat="45.39596" lon="5.8453">
        <ele>871.8</ele>
        <time>2021-08-24T12:13:05Z</time>
      </trkpt>
      <trkpt lat="45.39592" lon="5.84533">
        <ele>872.1</ele>
        <time>2021-08-24T12:13:06Z</time>
      </trkpt>
      <trkpt lat="45.39585" lon="5.84537">
        <ele>872.4</ele>
        <time>2021-08-24T12:13:08Z</time>
      </trkpt>
      <trkpt lat="45.3958" lon="5.8454">
        <ele>872.7</ele>
        <time>2021-08-24T12:13:10Z</time>
      </trkpt>
      <trkpt lat="45.39577" lon="5.84542">
        <ele>872.9</ele>
        <time>2021-08-24T12:13:12Z</time>
      </trkpt>
      <trkpt lat="45.39574" lon="5.84542">
        <ele>873</ele>
        <time>2021-08-24T12:13:13Z</time>
      </trkpt>
      <trkpt lat="45.39571" lon="5.84543">
        <ele>873.2</ele>
        <time>2021-08-24T12:13:14Z</time>
      </trkpt>
      <trkpt lat="45.3957" lon="5.84543">
        <ele>873.3</ele>
        <time>2021-08-24T12:13:15Z</time>
      </trkpt>
      <trkpt lat="45.39566" lon="5.84543">
        <ele>873.5</ele>
        <time>2021-08-24T12:13:17Z</time>
      </trkpt>
      <trkpt lat="45.39563" lon="5.84542">
        <ele>873.6</ele>
        <time>2021-08-24T12:13:19Z</time>
      </trkpt>
      <trkpt lat="45.3956" lon="5.84542">
        <ele>873.8</ele>
        <time>2021-08-24T12:13:20Z</time>
      </trkpt>
      <trkpt lat="45.39557" lon="5.84543">
        <ele>874</ele>
        <time>2021-08-24T12:13:21Z</time>
      </trkpt>
      <trkpt lat="45.39556" lon="5.84544">
        <ele>874</ele>
        <time>2021-08-24T12:13:22Z</time>
      </trkpt>
      <trkpt lat="45.39551" lon="5.84545">
        <ele>874.2</ele>
        <time>2021-08-24T12:13:24Z</time>
      </trkpt>
      <trkpt lat="45.3955" lon="5.84545">
        <ele>874.3</ele>
        <time>2021-08-24T12:13:26Z</time>
      </trkpt>
      <trkpt lat="45.39548" lon="5.84545">
        <ele>874.4</ele>
        <time>2021-08-24T12:13:27Z</time>
      </trkpt>
      <trkpt lat="45.39544" lon="5.84546">
        <ele>874.6</ele>
        <time>2021-08-24T12:13:29Z</time>
      </trkpt>
      <trkpt lat="45.39543" lon="5.84546">
        <ele>874.7</ele>
        <time>2021-08-24T12:13:30Z</time>
      </trkpt>
      <trkpt lat="45.39541" lon="5.84546">
        <ele>874.7</ele>
        <time>2021-08-24T12:13:31Z</time>
      </trkpt>
      <trkpt lat="45.39539" lon="5.84546">
        <ele>874.8</ele>
        <time>2021-08-24T12:13:32Z</time>
      </trkpt>
      <trkpt lat="45.39537" lon="5.84545">
        <ele>874.9</ele>
        <time>2021-08-24T12:13:34Z</time>
      </trkpt>
      <trkpt lat="45.39536" lon="5.84545">
        <ele>875</ele>
        <time>2021-08-24T12:13:35Z</time>
      </trkpt>
      <trkpt lat="45.39534" lon="5.84546">
        <ele>875.1</ele>
        <time>2021-08-24T12:13:36Z</time>
      </trkpt>
      <trkpt lat="45.39532" lon="5.84547">
        <ele>875.2</ele>
        <time>2021-08-24T12:13:38Z</time>
      </trkpt>
      <trkpt lat="45.3953" lon="5.84548">
        <ele>875.3</ele>
        <time>2021-08-24T12:13:39Z</time>
      </trkpt>
      <trkpt lat="45.39529" lon="5.84547">
        <ele>875.4</ele>
        <time>2021-08-24T12:13:40Z</time>
      </trkpt>
      <trkpt lat="45.39527" lon="5.84546">
        <ele>875.5</ele>
        <time>2021-08-24T12:13:42Z</time>
      </trkpt>
      <trkpt lat="45.39525" lon="5.84547">
        <ele>875.6</ele>
        <time>2021-08-24T12:13:43Z</time>
      </trkpt>
      <trkpt lat="45.39522" lon="5.84548">
        <ele>875.9</ele>
        <time>2021-08-24T12:13:45Z</time>
      </trkpt>
      <trkpt lat="45.3952" lon="5.84552">
        <ele>875.9</ele>
        <time>2021-08-24T12:13:46Z</time>
      </trkpt>
      <trkpt lat="45.39518" lon="5.84556">
        <ele>875.9</ele>
        <time>2021-08-24T12:13:48Z</time>
      </trkpt>
      <trkpt lat="45.39517" lon="5.84558">
        <ele>876</ele>
        <time>2021-08-24T12:13:49Z</time>
      </trkpt>
      <trkpt lat="45.39516" lon="5.84559">
        <ele>876</ele>
        <time>2021-08-24T12:13:50Z</time>
      </trkpt>
      <trkpt lat="45.39514" lon="5.84562">
        <ele>876</ele>
        <time>2021-08-24T12:13:52Z</time>
      </trkpt>
      <trkpt lat="45.39512" lon="5.84564">
        <ele>876</ele>
        <time>2021-08-24T12:13:53Z</time>
      </trkpt>
      <trkpt lat="45.39509" lon="5.84565">
        <ele>876.1</ele>
        <time>2021-08-24T12:13:54Z</time>
      </trkpt>
      <trkpt lat="45.39508" lon="5.84565">
        <ele>876.1</ele>
        <time>2021-08-24T12:13:56Z</time>
      </trkpt>
      <trkpt lat="45.39506" lon="5.84565">
        <ele>876.1</ele>
        <time>2021-08-24T12:13:58Z</time>
      </trkpt>
      <trkpt lat="45.39504" lon="5.84565">
        <ele>876.1</ele>
        <time>2021-08-24T12:13:59Z</time>
      </trkpt>
      <trkpt lat="45.39501" lon="5.84563">
        <ele>876.1</ele>
        <time>2021-08-24T12:14:01Z</time>
      </trkpt>
      <trkpt lat="45.395" lon="5.84563">
        <ele>876.1</ele>
        <time>2021-08-24T12:14:02Z</time>
      </trkpt>
      <trkpt lat="45.395" lon="5.84561">
        <ele>876.2</ele>
        <time>2021-08-24T12:14:04Z</time>
      </trkpt>
      <trkpt lat="45.39499" lon="5.84559">
        <ele>876.2</ele>
        <time>2021-08-24T12:14:05Z</time>
      </trkpt>
      <trkpt lat="45.39498" lon="5.84559">
        <ele>876.2</ele>
        <time>2021-08-24T12:14:06Z</time>
      </trkpt>
      <trkpt lat="45.39498" lon="5.84558">
        <ele>876.2</ele>
        <time>2021-08-24T12:14:07Z</time>
      </trkpt>
      <trkpt lat="45.39496" lon="5.84557">
        <ele>876.2</ele>
        <time>2021-08-24T12:14:09Z</time>
      </trkpt>
      <trkpt lat="45.39494" lon="5.84556">
        <ele>876.2</ele>
        <time>2021-08-24T12:14:12Z</time>
      </trkpt>
      <trkpt lat="45.39477" lon="5.84548">
        <ele>876.4</ele>
        <time>2021-08-24T12:14:25Z</time>
      </trkpt>
      <trkpt lat="45.39473" lon="5.84546">
        <ele>876.5</ele>
        <time>2021-08-24T12:14:27Z</time>
      </trkpt>
      <trkpt lat="45.3947" lon="5.84545">
        <ele>876.6</ele>
        <time>2021-08-24T12:14:28Z</time>
      </trkpt>
      <trkpt lat="45.39464" lon="5.84543">
        <ele>876.8</ele>
        <time>2021-08-24T12:14:30Z</time>
      </trkpt>
      <trkpt lat="45.3946" lon="5.84541">
        <ele>877</ele>
        <time>2021-08-24T12:14:31Z</time>
      </trkpt>
      <trkpt lat="45.39456" lon="5.84539">
        <ele>877.3</ele>
        <time>2021-08-24T12:14:32Z</time>
      </trkpt>
      <trkpt lat="45.3945" lon="5.84537">
        <ele>877.6</ele>
        <time>2021-08-24T12:14:34Z</time>
      </trkpt>
      <trkpt lat="45.39449" lon="5.84536">
        <ele>877.7</ele>
        <time>2021-08-24T12:14:35Z</time>
      </trkpt>
      <trkpt lat="45.39448" lon="5.84535">
        <ele>877.7</ele>
        <time>2021-08-24T12:14:37Z</time>
      </trkpt>
      <trkpt lat="45.39447" lon="5.84534">
        <ele>877.8</ele>
        <time>2021-08-24T12:14:38Z</time>
      </trkpt>
      <trkpt lat="45.39445" lon="5.84534">
        <ele>877.9</ele>
        <time>2021-08-24T12:14:39Z</time>
      </trkpt>
      <trkpt lat="45.39443" lon="5.84534">
        <ele>878</ele>
        <time>2021-08-24T12:14:41Z</time>
      </trkpt>
      <trkpt lat="45.3944" lon="5.84533">
        <ele>878.1</ele>
        <time>2021-08-24T12:14:42Z</time>
      </trkpt>
      <trkpt lat="45.39438" lon="5.84532">
        <ele>878.3</ele>
        <time>2021-08-24T12:14:44Z</time>
      </trkpt>
      <trkpt lat="45.39435" lon="5.84531">
        <ele>878.5</ele>
        <time>2021-08-24T12:14:45Z</time>
      </trkpt>
      <trkpt lat="45.39433" lon="5.84528">
        <ele>878.6</ele>
        <time>2021-08-24T12:14:47Z</time>
      </trkpt>
      <trkpt lat="45.39432" lon="5.84527">
        <ele>878.7</ele>
        <time>2021-08-24T12:14:48Z</time>
      </trkpt>
      <trkpt lat="45.39428" lon="5.84524">
        <ele>879</ele>
        <time>2021-08-24T12:14:50Z</time>
      </trkpt>
      <trkpt lat="45.39426" lon="5.84523">
        <ele>879.1</ele>
        <time>2021-08-24T12:14:51Z</time>
      </trkpt>
      <trkpt lat="45.39425" lon="5.84523">
        <ele>879.2</ele>
        <time>2021-08-24T12:14:52Z</time>
      </trkpt>
      <trkpt lat="45.39423" lon="5.84523">
        <ele>879.3</ele>
        <time>2021-08-24T12:14:53Z</time>
      </trkpt>
      <trkpt lat="45.39419" lon="5.84524">
        <ele>879.5</ele>
        <time>2021-08-24T12:14:55Z</time>
      </trkpt>
      <trkpt lat="45.39416" lon="5.84525">
        <ele>879.6</ele>
        <time>2021-08-24T12:14:56Z</time>
      </trkpt>
      <trkpt lat="45.39413" lon="5.84528">
        <ele>879.7</ele>
        <time>2021-08-24T12:14:58Z</time>
      </trkpt>
      <trkpt lat="45.39411" lon="5.84529">
        <ele>879.7</ele>
        <time>2021-08-24T12:14:59Z</time>
      </trkpt>
      <trkpt lat="45.39409" lon="5.8453">
        <ele>879.7</ele>
        <time>2021-08-24T12:15:00Z</time>
      </trkpt>
      <trkpt lat="45.39406" lon="5.84532">
        <ele>879.7</ele>
        <time>2021-08-24T12:15:02Z</time>
      </trkpt>
      <trkpt lat="45.39405" lon="5.84532">
        <ele>879.7</ele>
        <time>2021-08-24T12:15:03Z</time>
      </trkpt>
      <trkpt lat="45.39403" lon="5.84533">
        <ele>879.6</ele>
        <time>2021-08-24T12:15:04Z</time>
      </trkpt>
      <trkpt lat="45.39402" lon="5.84534">
        <ele>879.6</ele>
        <time>2021-08-24T12:15:05Z</time>
      </trkpt>
      <trkpt lat="45.394" lon="5.84534">
        <ele>879.6</ele>
        <time>2021-08-24T12:15:06Z</time>
      </trkpt>
      <trkpt lat="45.39395" lon="5.84536">
        <ele>879.4</ele>
        <time>2021-08-24T12:15:08Z</time>
      </trkpt>
      <trkpt lat="45.39393" lon="5.84537">
        <ele>879.3</ele>
        <time>2021-08-24T12:15:09Z</time>
      </trkpt>
      <trkpt lat="45.39391" lon="5.84538">
        <ele>879.3</ele>
        <time>2021-08-24T12:15:10Z</time>
      </trkpt>
      <trkpt lat="45.39387" lon="5.84539">
        <ele>879.4</ele>
        <time>2021-08-24T12:15:12Z</time>
      </trkpt>
      <trkpt lat="45.39384" lon="5.8454">
        <ele>879.5</ele>
        <time>2021-08-24T12:15:13Z</time>
      </trkpt>
      <trkpt lat="45.39382" lon="5.8454">
        <ele>879.5</ele>
        <time>2021-08-24T12:15:14Z</time>
      </trkpt>
      <trkpt lat="45.39378" lon="5.84541">
        <ele>879.6</ele>
        <time>2021-08-24T12:15:16Z</time>
      </trkpt>
      <trkpt lat="45.39375" lon="5.8454">
        <ele>879.7</ele>
        <time>2021-08-24T12:15:17Z</time>
      </trkpt>
      <trkpt lat="45.39374" lon="5.84539">
        <ele>879.8</ele>
        <time>2021-08-24T12:15:18Z</time>
      </trkpt>
      <trkpt lat="45.3937" lon="5.84537">
        <ele>879.9</ele>
        <time>2021-08-24T12:15:20Z</time>
      </trkpt>
      <trkpt lat="45.39369" lon="5.84536">
        <ele>880</ele>
        <time>2021-08-24T12:15:21Z</time>
      </trkpt>
      <trkpt lat="45.39368" lon="5.84535">
        <ele>880</ele>
        <time>2021-08-24T12:15:22Z</time>
      </trkpt>
      <trkpt lat="45.39366" lon="5.84534">
        <ele>880.1</ele>
        <time>2021-08-24T12:15:23Z</time>
      </trkpt>
      <trkpt lat="45.39363" lon="5.84531">
        <ele>880.3</ele>
        <time>2021-08-24T12:15:25Z</time>
      </trkpt>
      <trkpt lat="45.39361" lon="5.84529">
        <ele>880.4</ele>
        <time>2021-08-24T12:15:26Z</time>
      </trkpt>
      <trkpt lat="45.3936" lon="5.84529">
        <ele>880.4</ele>
        <time>2021-08-24T12:15:27Z</time>
      </trkpt>
      <trkpt lat="45.39356" lon="5.84528">
        <ele>880.6</ele>
        <time>2021-08-24T12:15:29Z</time>
      </trkpt>
      <trkpt lat="45.39355" lon="5.84528">
        <ele>880.6</ele>
        <time>2021-08-24T12:15:30Z</time>
      </trkpt>
      <trkpt lat="45.39353" lon="5.84529">
        <ele>880.7</ele>
        <time>2021-08-24T12:15:31Z</time>
      </trkpt>
      <trkpt lat="45.39349" lon="5.84528">
        <ele>880.9</ele>
        <time>2021-08-24T12:15:33Z</time>
      </trkpt>
      <trkpt lat="45.39346" lon="5.84528">
        <ele>881</ele>
        <time>2021-08-24T12:15:34Z</time>
      </trkpt>
      <trkpt lat="45.39343" lon="5.84527">
        <ele>881.1</ele>
        <time>2021-08-24T12:15:35Z</time>
      </trkpt>
      <trkpt lat="45.39341" lon="5.84527">
        <ele>881.2</ele>
        <time>2021-08-24T12:15:36Z</time>
      </trkpt>
      <trkpt lat="45.39337" lon="5.84526">
        <ele>881.3</ele>
        <time>2021-08-24T12:15:38Z</time>
      </trkpt>
      <trkpt lat="45.39332" lon="5.84525">
        <ele>881.4</ele>
        <time>2021-08-24T12:15:39Z</time>
      </trkpt>
      <trkpt lat="45.39329" lon="5.84524">
        <ele>881.4</ele>
        <time>2021-08-24T12:15:40Z</time>
      </trkpt>
      <trkpt lat="45.39324" lon="5.84522">
        <ele>881.4</ele>
        <time>2021-08-24T12:15:42Z</time>
      </trkpt>
      <trkpt lat="45.39319" lon="5.8452">
        <ele>881.5</ele>
        <time>2021-08-24T12:15:43Z</time>
      </trkpt>
      <trkpt lat="45.39316" lon="5.8452">
        <ele>881.5</ele>
        <time>2021-08-24T12:15:44Z</time>
      </trkpt>
      <trkpt lat="45.39313" lon="5.84519">
        <ele>881.4</ele>
        <time>2021-08-24T12:15:45Z</time>
      </trkpt>
      <trkpt lat="45.39311" lon="5.84519">
        <ele>881.4</ele>
        <time>2021-08-24T12:15:46Z</time>
      </trkpt>
      <trkpt lat="45.39307" lon="5.84519">
        <ele>881.4</ele>
        <time>2021-08-24T12:15:48Z</time>
      </trkpt>
      <trkpt lat="45.39303" lon="5.84519">
        <ele>881.4</ele>
        <time>2021-08-24T12:15:49Z</time>
      </trkpt>
      <trkpt lat="45.39299" lon="5.84519">
        <ele>881.4</ele>
        <time>2021-08-24T12:15:51Z</time>
      </trkpt>
      <trkpt lat="45.39295" lon="5.84519">
        <ele>881.4</ele>
        <time>2021-08-24T12:15:52Z</time>
      </trkpt>
      <trkpt lat="45.39292" lon="5.84519">
        <ele>881.4</ele>
        <time>2021-08-24T12:15:53Z</time>
      </trkpt>
      <trkpt lat="45.39289" lon="5.84518">
        <ele>881.4</ele>
        <time>2021-08-24T12:15:54Z</time>
      </trkpt>
      <trkpt lat="45.39285" lon="5.84519">
        <ele>881.4</ele>
        <time>2021-08-24T12:15:55Z</time>
      </trkpt>
      <trkpt lat="45.39284" lon="5.84519">
        <ele>881.5</ele>
        <time>2021-08-24T12:15:56Z</time>
      </trkpt>
      <trkpt lat="45.3928" lon="5.84522">
        <ele>881.5</ele>
        <time>2021-08-24T12:15:58Z</time>
      </trkpt>
      <trkpt lat="45.39277" lon="5.84525">
        <ele>881.6</ele>
        <time>2021-08-24T12:15:59Z</time>
      </trkpt>
      <trkpt lat="45.39276" lon="5.84526">
        <ele>881.7</ele>
        <time>2021-08-24T12:16:00Z</time>
      </trkpt>
      <trkpt lat="45.39272" lon="5.84531">
        <ele>881.9</ele>
        <time>2021-08-24T12:16:02Z</time>
      </trkpt>
      <trkpt lat="45.3927" lon="5.84534">
        <ele>882.1</ele>
        <time>2021-08-24T12:16:03Z</time>
      </trkpt>
      <trkpt lat="45.39269" lon="5.84538">
        <ele>882.3</ele>
        <time>2021-08-24T12:16:05Z</time>
      </trkpt>
      <trkpt lat="45.39268" lon="5.84539">
        <ele>882.3</ele>
        <time>2021-08-24T12:16:06Z</time>
      </trkpt>
      <trkpt lat="45.39268" lon="5.84541">
        <ele>882.4</ele>
        <time>2021-08-24T12:16:08Z</time>
      </trkpt>
      <trkpt lat="45.39269" lon="5.84541">
        <ele>882.5</ele>
        <time>2021-08-24T12:16:09Z</time>
      </trkpt>
      <trkpt lat="45.39269" lon="5.84542">
        <ele>882.5</ele>
        <time>2021-08-24T12:16:10Z</time>
      </trkpt>
      <trkpt lat="45.39269" lon="5.84544">
        <ele>882.6</ele>
        <time>2021-08-24T12:16:12Z</time>
      </trkpt>
      <trkpt lat="45.39269" lon="5.84544">
        <ele>882.7</ele>
        <time>2021-08-24T12:16:13Z</time>
      </trkpt>
      <trkpt lat="45.39269" lon="5.84545">
        <ele>882.7</ele>
        <time>2021-08-24T12:16:14Z</time>
      </trkpt>
      <trkpt lat="45.39268" lon="5.84546">
        <ele>882.8</ele>
        <time>2021-08-24T12:16:15Z</time>
      </trkpt>
      <trkpt lat="45.39268" lon="5.84547">
        <ele>882.9</ele>
        <time>2021-08-24T12:16:17Z</time>
      </trkpt>
      <trkpt lat="45.39247" lon="5.8458">
        <ele>886.7</ele>
        <time>2021-08-24T12:16:32Z</time>
      </trkpt>
      <trkpt lat="45.39243" lon="5.8459">
        <ele>887.6</ele>
        <time>2021-08-24T12:16:34Z</time>
      </trkpt>
      <trkpt lat="45.3924" lon="5.84595">
        <ele>888.1</ele>
        <time>2021-08-24T12:16:35Z</time>
      </trkpt>
      <trkpt lat="45.39238" lon="5.84598">
        <ele>888.4</ele>
        <time>2021-08-24T12:16:36Z</time>
      </trkpt>
      <trkpt lat="45.39237" lon="5.84599">
        <ele>888.6</ele>
        <time>2021-08-24T12:16:37Z</time>
      </trkpt>
      <trkpt lat="45.39234" lon="5.84603">
        <ele>889</ele>
        <time>2021-08-24T12:16:39Z</time>
      </trkpt>
      <trkpt lat="45.39231" lon="5.84609">
        <ele>889.6</ele>
        <time>2021-08-24T12:16:41Z</time>
      </trkpt>
      <trkpt lat="45.3923" lon="5.84611">
        <ele>889.7</ele>
        <time>2021-08-24T12:16:43Z</time>
      </trkpt>
      <trkpt lat="45.39229" lon="5.84612">
        <ele>889.8</ele>
        <time>2021-08-24T12:16:44Z</time>
      </trkpt>
      <trkpt lat="45.39228" lon="5.84615">
        <ele>890</ele>
        <time>2021-08-24T12:16:46Z</time>
      </trkpt>
      <trkpt lat="45.39227" lon="5.84616">
        <ele>890.1</ele>
        <time>2021-08-24T12:16:47Z</time>
      </trkpt>
      <trkpt lat="45.39226" lon="5.84616">
        <ele>890.3</ele>
        <time>2021-08-24T12:16:48Z</time>
      </trkpt>
      <trkpt lat="45.39224" lon="5.84616">
        <ele>890.4</ele>
        <time>2021-08-24T12:16:49Z</time>
      </trkpt>
      <trkpt lat="45.39223" lon="5.84615">
        <ele>890.5</ele>
        <time>2021-08-24T12:16:50Z</time>
      </trkpt>
      <trkpt lat="45.3922" lon="5.84616">
        <ele>890.8</ele>
        <time>2021-08-24T12:16:52Z</time>
      </trkpt>
      <trkpt lat="45.39219" lon="5.84617">
        <ele>890.9</ele>
        <time>2021-08-24T12:16:53Z</time>
      </trkpt>
      <trkpt lat="45.39217" lon="5.84618">
        <ele>891.1</ele>
        <time>2021-08-24T12:16:54Z</time>
      </trkpt>
      <trkpt lat="45.39214" lon="5.84619">
        <ele>891.4</ele>
        <time>2021-08-24T12:16:56Z</time>
      </trkpt>
      <trkpt lat="45.39213" lon="5.84619">
        <ele>891.5</ele>
        <time>2021-08-24T12:16:57Z</time>
      </trkpt>
      <trkpt lat="45.3921" lon="5.84621">
        <ele>891.7</ele>
        <time>2021-08-24T12:16:59Z</time>
      </trkpt>
      <trkpt lat="45.39209" lon="5.84621">
        <ele>891.9</ele>
        <time>2021-08-24T12:17:00Z</time>
      </trkpt>
      <trkpt lat="45.39207" lon="5.84622">
        <ele>892</ele>
        <time>2021-08-24T12:17:01Z</time>
      </trkpt>
      <trkpt lat="45.39205" lon="5.84623">
        <ele>892.2</ele>
        <time>2021-08-24T12:17:02Z</time>
      </trkpt>
      <trkpt lat="45.39202" lon="5.84624">
        <ele>892.4</ele>
        <time>2021-08-24T12:17:04Z</time>
      </trkpt>
      <trkpt lat="45.392" lon="5.84626">
        <ele>892.6</ele>
        <time>2021-08-24T12:17:05Z</time>
      </trkpt>
      <trkpt lat="45.39198" lon="5.84627">
        <ele>892.8</ele>
        <time>2021-08-24T12:17:07Z</time>
      </trkpt>
      <trkpt lat="45.39197" lon="5.84629">
        <ele>893</ele>
        <time>2021-08-24T12:17:08Z</time>
      </trkpt>
      <trkpt lat="45.39196" lon="5.8463">
        <ele>893.1</ele>
        <time>2021-08-24T12:17:09Z</time>
      </trkpt>
      <trkpt lat="45.39193" lon="5.84631">
        <ele>893.3</ele>
        <time>2021-08-24T12:17:11Z</time>
      </trkpt>
      <trkpt lat="45.39191" lon="5.84633">
        <ele>893.5</ele>
        <time>2021-08-24T12:17:12Z</time>
      </trkpt>
      <trkpt lat="45.3919" lon="5.84634">
        <ele>893.6</ele>
        <time>2021-08-24T12:17:13Z</time>
      </trkpt>
      <trkpt lat="45.39189" lon="5.84634">
        <ele>893.8</ele>
        <time>2021-08-24T12:17:14Z</time>
      </trkpt>
      <trkpt lat="45.39187" lon="5.84634">
        <ele>893.9</ele>
        <time>2021-08-24T12:17:15Z</time>
      </trkpt>
      <trkpt lat="45.39184" lon="5.84635">
        <ele>894.1</ele>
        <time>2021-08-24T12:17:17Z</time>
      </trkpt>
      <trkpt lat="45.39182" lon="5.84635">
        <ele>894.4</ele>
        <time>2021-08-24T12:17:19Z</time>
      </trkpt>
      <trkpt lat="45.39178" lon="5.84635">
        <ele>894.8</ele>
        <time>2021-08-24T12:17:21Z</time>
      </trkpt>
      <trkpt lat="45.39177" lon="5.84635">
        <ele>894.9</ele>
        <time>2021-08-24T12:17:22Z</time>
      </trkpt>
      <trkpt lat="45.39176" lon="5.84635">
        <ele>895</ele>
        <time>2021-08-24T12:17:23Z</time>
      </trkpt>
      <trkpt lat="45.39174" lon="5.84635">
        <ele>895.2</ele>
        <time>2021-08-24T12:17:24Z</time>
      </trkpt>
      <trkpt lat="45.39172" lon="5.84636">
        <ele>895.5</ele>
        <time>2021-08-24T12:17:26Z</time>
      </trkpt>
      <trkpt lat="45.39171" lon="5.84637">
        <ele>895.5</ele>
        <time>2021-08-24T12:17:27Z</time>
      </trkpt>
      <trkpt lat="45.39172" lon="5.84638">
        <ele>895.6</ele>
        <time>2021-08-24T12:17:28Z</time>
      </trkpt>
      <trkpt lat="45.39171" lon="5.84639">
        <ele>895.7</ele>
        <time>2021-08-24T12:17:30Z</time>
      </trkpt>
      <trkpt lat="45.3917" lon="5.84639">
        <ele>895.9</ele>
        <time>2021-08-24T12:17:31Z</time>
      </trkpt>
      <trkpt lat="45.39168" lon="5.84641">
        <ele>896.1</ele>
        <time>2021-08-24T12:17:33Z</time>
      </trkpt>
      <trkpt lat="45.39168" lon="5.84643">
        <ele>896.3</ele>
        <time>2021-08-24T12:17:35Z</time>
      </trkpt>
      <trkpt lat="45.39167" lon="5.84645">
        <ele>896.5</ele>
        <time>2021-08-24T12:17:36Z</time>
      </trkpt>
      <trkpt lat="45.39167" lon="5.84647">
        <ele>896.6</ele>
        <time>2021-08-24T12:17:38Z</time>
      </trkpt>
      <trkpt lat="45.39169" lon="5.84647">
        <ele>896.8</ele>
        <time>2021-08-24T12:17:39Z</time>
      </trkpt>
      <trkpt lat="45.39169" lon="5.84647">
        <ele>896.9</ele>
        <time>2021-08-24T12:17:41Z</time>
      </trkpt>
      <trkpt lat="45.39169" lon="5.84648">
        <ele>896.9</ele>
        <time>2021-08-24T12:17:42Z</time>
      </trkpt>
      <trkpt lat="45.39169" lon="5.84648">
        <ele>896.9</ele>
        <time>2021-08-24T12:17:43Z</time>
      </trkpt>
      <trkpt lat="45.39169" lon="5.84648">
        <ele>897</ele>
        <time>2021-08-24T12:17:45Z</time>
      </trkpt>
      <trkpt lat="45.39169" lon="5.84648">
        <ele>897</ele>
        <time>2021-08-24T12:17:46Z</time>
      </trkpt>
      <trkpt lat="45.3916" lon="5.84649">
        <ele>898</ele>
        <time>2021-08-24T12:17:55Z</time>
      </trkpt>
      <trkpt lat="45.39158" lon="5.84648">
        <ele>898.3</ele>
        <time>2021-08-24T12:17:56Z</time>
      </trkpt>
      <trkpt lat="45.39154" lon="5.84645">
        <ele>898.7</ele>
        <time>2021-08-24T12:17:58Z</time>
      </trkpt>
      <trkpt lat="45.3915" lon="5.84643">
        <ele>899.1</ele>
        <time>2021-08-24T12:17:59Z</time>
      </trkpt>
      <trkpt lat="45.39147" lon="5.84641">
        <ele>899.4</ele>
        <time>2021-08-24T12:18:00Z</time>
      </trkpt>
      <trkpt lat="45.39146" lon="5.8464">
        <ele>899.5</ele>
        <time>2021-08-24T12:18:02Z</time>
      </trkpt>
      <trkpt lat="45.39144" lon="5.84638">
        <ele>899.7</ele>
        <time>2021-08-24T12:18:03Z</time>
      </trkpt>
      <trkpt lat="45.39144" lon="5.84637">
        <ele>899.8</ele>
        <time>2021-08-24T12:18:05Z</time>
      </trkpt>
      <trkpt lat="45.39143" lon="5.84636">
        <ele>899.9</ele>
        <time>2021-08-24T12:18:06Z</time>
      </trkpt>
      <trkpt lat="45.39143" lon="5.84635">
        <ele>899.9</ele>
        <time>2021-08-24T12:18:07Z</time>
      </trkpt>
      <trkpt lat="45.39141" lon="5.84633">
        <ele>900.1</ele>
        <time>2021-08-24T12:18:09Z</time>
      </trkpt>
      <trkpt lat="45.3914" lon="5.84633">
        <ele>900.2</ele>
        <time>2021-08-24T12:18:11Z</time>
      </trkpt>
      <trkpt lat="45.39139" lon="5.84631">
        <ele>900.4</ele>
        <time>2021-08-24T12:18:12Z</time>
      </trkpt>
      <trkpt lat="45.39136" lon="5.84629">
        <ele>900.7</ele>
        <time>2021-08-24T12:18:13Z</time>
      </trkpt>
      <trkpt lat="45.39135" lon="5.84628">
        <ele>900.7</ele>
        <time>2021-08-24T12:18:14Z</time>
      </trkpt>
      <trkpt lat="45.39132" lon="5.84627">
        <ele>901.1</ele>
        <time>2021-08-24T12:18:16Z</time>
      </trkpt>
      <trkpt lat="45.3913" lon="5.84627">
        <ele>901.2</ele>
        <time>2021-08-24T12:18:17Z</time>
      </trkpt>
      <trkpt lat="45.39126" lon="5.84627">
        <ele>901.6</ele>
        <time>2021-08-24T12:18:19Z</time>
      </trkpt>
      <trkpt lat="45.39122" lon="5.84625">
        <ele>901.9</ele>
        <time>2021-08-24T12:18:21Z</time>
      </trkpt>
      <trkpt lat="45.39121" lon="5.84624">
        <ele>902.1</ele>
        <time>2021-08-24T12:18:22Z</time>
      </trkpt>
      <trkpt lat="45.39119" lon="5.84624">
        <ele>902.2</ele>
        <time>2021-08-24T12:18:23Z</time>
      </trkpt>
      <trkpt lat="45.39118" lon="5.84623">
        <ele>902.3</ele>
        <time>2021-08-24T12:18:24Z</time>
      </trkpt>
      <trkpt lat="45.39116" lon="5.84622">
        <ele>902.5</ele>
        <time>2021-08-24T12:18:26Z</time>
      </trkpt>
      <trkpt lat="45.39114" lon="5.84621">
        <ele>902.6</ele>
        <time>2021-08-24T12:18:27Z</time>
      </trkpt>
      <trkpt lat="45.39112" lon="5.8462">
        <ele>902.8</ele>
        <time>2021-08-24T12:18:28Z</time>
      </trkpt>
      <trkpt lat="45.3911" lon="5.8462">
        <ele>903</ele>
        <time>2021-08-24T12:18:29Z</time>
      </trkpt>
      <trkpt lat="45.39109" lon="5.8462">
        <ele>903</ele>
        <time>2021-08-24T12:18:30Z</time>
      </trkpt>
      <trkpt lat="45.39105" lon="5.8462">
        <ele>903.2</ele>
        <time>2021-08-24T12:18:32Z</time>
      </trkpt>
      <trkpt lat="45.39104" lon="5.8462">
        <ele>903.3</ele>
        <time>2021-08-24T12:18:33Z</time>
      </trkpt>
      <trkpt lat="45.39102" lon="5.8462">
        <ele>903.4</ele>
        <time>2021-08-24T12:18:34Z</time>
      </trkpt>
      <trkpt lat="45.39099" lon="5.84621">
        <ele>903.5</ele>
        <time>2021-08-24T12:18:36Z</time>
      </trkpt>
      <trkpt lat="45.39096" lon="5.84622">
        <ele>903.6</ele>
        <time>2021-08-24T12:18:37Z</time>
      </trkpt>
      <trkpt lat="45.39091" lon="5.84624">
        <ele>903.8</ele>
        <time>2021-08-24T12:18:39Z</time>
      </trkpt>
      <trkpt lat="45.39086" lon="5.84625">
        <ele>903.9</ele>
        <time>2021-08-24T12:18:40Z</time>
      </trkpt>
      <trkpt lat="45.39082" lon="5.84625">
        <ele>904.2</ele>
        <time>2021-08-24T12:18:41Z</time>
      </trkpt>
      <trkpt lat="45.39077" lon="5.84625">
        <ele>904.4</ele>
        <time>2021-08-24T12:18:43Z</time>
      </trkpt>
      <trkpt lat="45.39073" lon="5.84626">
        <ele>904.7</ele>
        <time>2021-08-24T12:18:44Z</time>
      </trkpt>
      <trkpt lat="45.3907" lon="5.84626">
        <ele>905</ele>
        <time>2021-08-24T12:18:45Z</time>
      </trkpt>
      <trkpt lat="45.39066" lon="5.84627">
        <ele>905.4</ele>
        <time>2021-08-24T12:18:46Z</time>
      </trkpt>
      <trkpt lat="45.39062" lon="5.84627">
        <ele>905.8</ele>
        <time>2021-08-24T12:18:48Z</time>
      </trkpt>
      <trkpt lat="45.39058" lon="5.84626">
        <ele>906.3</ele>
        <time>2021-08-24T12:18:50Z</time>
      </trkpt>
      <trkpt lat="45.39054" lon="5.84626">
        <ele>906.7</ele>
        <time>2021-08-24T12:18:52Z</time>
      </trkpt>
      <trkpt lat="45.39051" lon="5.84626">
        <ele>907</ele>
        <time>2021-08-24T12:18:53Z</time>
      </trkpt>
      <trkpt lat="45.39047" lon="5.84626">
        <ele>907.5</ele>
        <time>2021-08-24T12:18:55Z</time>
      </trkpt>
      <trkpt lat="45.39046" lon="5.84626">
        <ele>907.7</ele>
        <time>2021-08-24T12:18:56Z</time>
      </trkpt>
      <trkpt lat="45.39042" lon="5.84625">
        <ele>908.1</ele>
        <time>2021-08-24T12:18:58Z</time>
      </trkpt>
      <trkpt lat="45.39041" lon="5.84624">
        <ele>908.3</ele>
        <time>2021-08-24T12:18:59Z</time>
      </trkpt>
      <trkpt lat="45.39039" lon="5.84624">
        <ele>908.5</ele>
        <time>2021-08-24T12:19:00Z</time>
      </trkpt>
      <trkpt lat="45.39038" lon="5.84624">
        <ele>908.7</ele>
        <time>2021-08-24T12:19:01Z</time>
      </trkpt>
      <trkpt lat="45.39036" lon="5.84624">
        <ele>908.9</ele>
        <time>2021-08-24T12:19:03Z</time>
      </trkpt>
      <trkpt lat="45.39033" lon="5.84625">
        <ele>909.2</ele>
        <time>2021-08-24T12:19:04Z</time>
      </trkpt>
      <trkpt lat="45.39031" lon="5.84625">
        <ele>909.3</ele>
        <time>2021-08-24T12:19:06Z</time>
      </trkpt>
      <trkpt lat="45.3903" lon="5.84625">
        <ele>909.5</ele>
        <time>2021-08-24T12:19:07Z</time>
      </trkpt>
      <trkpt lat="45.39028" lon="5.84624">
        <ele>909.7</ele>
        <time>2021-08-24T12:19:08Z</time>
      </trkpt>
      <trkpt lat="45.39026" lon="5.84623">
        <ele>909.9</ele>
        <time>2021-08-24T12:19:10Z</time>
      </trkpt>
      <trkpt lat="45.39025" lon="5.84623">
        <ele>910</ele>
        <time>2021-08-24T12:19:11Z</time>
      </trkpt>
      <trkpt lat="45.39023" lon="5.84623">
        <ele>910.1</ele>
        <time>2021-08-24T12:19:12Z</time>
      </trkpt>
      <trkpt lat="45.39021" lon="5.84624">
        <ele>910.3</ele>
        <time>2021-08-24T12:19:14Z</time>
      </trkpt>
      <trkpt lat="45.39019" lon="5.84624">
        <ele>910.4</ele>
        <time>2021-08-24T12:19:15Z</time>
      </trkpt>
      <trkpt lat="45.39018" lon="5.84625">
        <ele>910.5</ele>
        <time>2021-08-24T12:19:17Z</time>
      </trkpt>
      <trkpt lat="45.39018" lon="5.84625">
        <ele>910.6</ele>
        <time>2021-08-24T12:19:19Z</time>
      </trkpt>
      <trkpt lat="45.39017" lon="5.84625">
        <ele>910.6</ele>
        <time>2021-08-24T12:19:20Z</time>
      </trkpt>
      <trkpt lat="45.39016" lon="5.84626">
        <ele>910.7</ele>
        <time>2021-08-24T12:19:21Z</time>
      </trkpt>
      <trkpt lat="45.39015" lon="5.84626">
        <ele>910.7</ele>
        <time>2021-08-24T12:19:23Z</time>
      </trkpt>
      <trkpt lat="45.39015" lon="5.84627">
        <ele>910.8</ele>
        <time>2021-08-24T12:19:24Z</time>
      </trkpt>
      <trkpt lat="45.39014" lon="5.84627">
        <ele>910.8</ele>
        <time>2021-08-24T12:19:25Z</time>
      </trkpt>
      <trkpt lat="45.39013" lon="5.84627">
        <ele>910.9</ele>
        <time>2021-08-24T12:19:26Z</time>
      </trkpt>
      <trkpt lat="45.39012" lon="5.84628">
        <ele>911</ele>
        <time>2021-08-24T12:19:27Z</time>
      </trkpt>
      <trkpt lat="45.39011" lon="5.84628">
        <ele>911</ele>
        <time>2021-08-24T12:19:36Z</time>
      </trkpt>
      <trkpt lat="45.39011" lon="5.84629">
        <ele>911.1</ele>
        <time>2021-08-24T12:19:37Z</time>
      </trkpt>
      <trkpt lat="45.3901" lon="5.84629">
        <ele>911.1</ele>
        <time>2021-08-24T12:19:38Z</time>
      </trkpt>
      <trkpt lat="45.39008" lon="5.8463">
        <ele>911.3</ele>
        <time>2021-08-24T12:19:39Z</time>
      </trkpt>
      <trkpt lat="45.39005" lon="5.84632">
        <ele>911.5</ele>
        <time>2021-08-24T12:19:41Z</time>
      </trkpt>
      <trkpt lat="45.39002" lon="5.84634">
        <ele>911.7</ele>
        <time>2021-08-24T12:19:42Z</time>
      </trkpt>
      <trkpt lat="45.39002" lon="5.84634">
        <ele>911.8</ele>
        <time>2021-08-24T12:19:44Z</time>
      </trkpt>
      <trkpt lat="45.39001" lon="5.84634">
        <ele>911.8</ele>
        <time>2021-08-24T12:19:45Z</time>
      </trkpt>
      <trkpt lat="45.39" lon="5.84634">
        <ele>911.9</ele>
        <time>2021-08-24T12:19:46Z</time>
      </trkpt>
      <trkpt lat="45.38999" lon="5.84635">
        <ele>911.9</ele>
        <time>2021-08-24T12:19:48Z</time>
      </trkpt>
      <trkpt lat="45.38998" lon="5.84636">
        <ele>912</ele>
        <time>2021-08-24T12:19:50Z</time>
      </trkpt>
      <trkpt lat="45.38997" lon="5.84636">
        <ele>912.1</ele>
        <time>2021-08-24T12:19:51Z</time>
      </trkpt>
      <trkpt lat="45.38994" lon="5.84637">
        <ele>912.3</ele>
        <time>2021-08-24T12:19:53Z</time>
      </trkpt>
      <trkpt lat="45.3899" lon="5.84638">
        <ele>912.6</ele>
        <time>2021-08-24T12:19:55Z</time>
      </trkpt>
      <trkpt lat="45.38987" lon="5.84638">
        <ele>912.9</ele>
        <time>2021-08-24T12:19:56Z</time>
      </trkpt>
      <trkpt lat="45.38983" lon="5.84639">
        <ele>913.2</ele>
        <time>2021-08-24T12:19:58Z</time>
      </trkpt>
      <trkpt lat="45.38982" lon="5.84639">
        <ele>913.3</ele>
        <time>2021-08-24T12:20:00Z</time>
      </trkpt>
      <trkpt lat="45.38982" lon="5.84639">
        <ele>913.3</ele>
        <time>2021-08-24T12:20:01Z</time>
      </trkpt>
      <trkpt lat="45.38982" lon="5.84639">
        <ele>913.3</ele>
        <time>2021-08-24T12:20:02Z</time>
      </trkpt>
      <trkpt lat="45.38981" lon="5.84639">
        <ele>913.4</ele>
        <time>2021-08-24T12:20:03Z</time>
      </trkpt>
      <trkpt lat="45.38981" lon="5.84639">
        <ele>913.4</ele>
        <time>2021-08-24T12:20:04Z</time>
      </trkpt>
      <trkpt lat="45.38979" lon="5.84638">
        <ele>913.6</ele>
        <time>2021-08-24T12:20:06Z</time>
      </trkpt>
      <trkpt lat="45.38978" lon="5.84637">
        <ele>913.7</ele>
        <time>2021-08-24T12:20:08Z</time>
      </trkpt>
      <trkpt lat="45.38941" lon="5.84611">
        <ele>918.2</ele>
        <time>2021-08-24T12:21:49Z</time>
      </trkpt>
      <trkpt lat="45.38941" lon="5.84609">
        <ele>918.4</ele>
        <time>2021-08-24T12:21:50Z</time>
      </trkpt>
      <trkpt lat="45.38941" lon="5.84607">
        <ele>918.6</ele>
        <time>2021-08-24T12:21:52Z</time>
      </trkpt>
      <trkpt lat="45.38941" lon="5.84606">
        <ele>918.6</ele>
        <time>2021-08-24T12:21:53Z</time>
      </trkpt>
      <trkpt lat="45.38943" lon="5.84606">
        <ele>918.9</ele>
        <time>2021-08-24T12:21:55Z</time>
      </trkpt>
      <trkpt lat="45.38944" lon="5.84606">
        <ele>919</ele>
        <time>2021-08-24T12:21:56Z</time>
      </trkpt>
      <trkpt lat="45.38945" lon="5.84607">
        <ele>919.1</ele>
        <time>2021-08-24T12:21:58Z</time>
      </trkpt>
      <trkpt lat="45.38945" lon="5.84608">
        <ele>919.3</ele>
        <time>2021-08-24T12:22:00Z</time>
      </trkpt>
      <trkpt lat="45.38945" lon="5.84608">
        <ele>919.3</ele>
        <time>2021-08-24T12:22:01Z</time>
      </trkpt>
      <trkpt lat="45.38945" lon="5.84609">
        <ele>919.4</ele>
        <time>2021-08-24T12:22:02Z</time>
      </trkpt>
      <trkpt lat="45.38945" lon="5.8461">
        <ele>919.4</ele>
        <time>2021-08-24T12:22:04Z</time>
      </trkpt>
      <trkpt lat="45.38945" lon="5.84609">
        <ele>919.4</ele>
        <time>2021-08-24T12:22:05Z</time>
      </trkpt>
      <trkpt lat="45.38946" lon="5.84609">
        <ele>919.5</ele>
        <time>2021-08-24T12:22:06Z</time>
      </trkpt>
      <trkpt lat="45.3893" lon="5.84618">
        <ele>921.5</ele>
        <time>2021-08-24T12:22:23Z</time>
      </trkpt>
      <trkpt lat="45.38926" lon="5.84618">
        <ele>922</ele>
        <time>2021-08-24T12:22:25Z</time>
      </trkpt>
      <trkpt lat="45.38925" lon="5.84617">
        <ele>922.2</ele>
        <time>2021-08-24T12:22:26Z</time>
      </trkpt>
      <trkpt lat="45.38923" lon="5.84616">
        <ele>922.4</ele>
        <time>2021-08-24T12:22:27Z</time>
      </trkpt>
      <trkpt lat="45.38921" lon="5.84615">
        <ele>922.6</ele>
        <time>2021-08-24T12:22:28Z</time>
      </trkpt>
      <trkpt lat="45.3892" lon="5.84614">
        <ele>922.8</ele>
        <time>2021-08-24T12:22:29Z</time>
      </trkpt>
      <trkpt lat="45.38919" lon="5.84613">
        <ele>922.9</ele>
        <time>2021-08-24T12:22:31Z</time>
      </trkpt>
      <trkpt lat="45.38919" lon="5.84613">
        <ele>923</ele>
        <time>2021-08-24T12:22:33Z</time>
      </trkpt>
      <trkpt lat="45.38919" lon="5.84612">
        <ele>923</ele>
        <time>2021-08-24T12:22:34Z</time>
      </trkpt>
      <trkpt lat="45.38918" lon="5.84612">
        <ele>923.1</ele>
        <time>2021-08-24T12:22:36Z</time>
      </trkpt>
      <trkpt lat="45.38918" lon="5.84612">
        <ele>923.1</ele>
        <time>2021-08-24T12:22:37Z</time>
      </trkpt>
      <trkpt lat="45.38881" lon="5.84572">
        <ele>927.5</ele>
        <time>2021-08-24T12:23:20Z</time>
      </trkpt>
      <trkpt lat="45.38879" lon="5.84574">
        <ele>927.6</ele>
        <time>2021-08-24T12:23:22Z</time>
      </trkpt>
      <trkpt lat="45.38875" lon="5.84573">
        <ele>927.8</ele>
        <time>2021-08-24T12:23:23Z</time>
      </trkpt>
      <trkpt lat="45.38873" lon="5.84572">
        <ele>928</ele>
        <time>2021-08-24T12:23:24Z</time>
      </trkpt>
      <trkpt lat="45.38871" lon="5.8457">
        <ele>928.1</ele>
        <time>2021-08-24T12:23:26Z</time>
      </trkpt>
      <trkpt lat="45.38867" lon="5.84569">
        <ele>928.3</ele>
        <time>2021-08-24T12:23:27Z</time>
      </trkpt>
      <trkpt lat="45.38866" lon="5.84569">
        <ele>928.4</ele>
        <time>2021-08-24T12:23:28Z</time>
      </trkpt>
      <trkpt lat="45.38865" lon="5.84569">
        <ele>928.4</ele>
        <time>2021-08-24T12:23:29Z</time>
      </trkpt>
      <trkpt lat="45.38862" lon="5.8457">
        <ele>928.6</ele>
        <time>2021-08-24T12:23:31Z</time>
      </trkpt>
      <trkpt lat="45.3886" lon="5.84571">
        <ele>928.7</ele>
        <time>2021-08-24T12:23:33Z</time>
      </trkpt>
      <trkpt lat="45.38859" lon="5.84571">
        <ele>928.8</ele>
        <time>2021-08-24T12:23:34Z</time>
      </trkpt>
      <trkpt lat="45.38858" lon="5.84571">
        <ele>928.8</ele>
        <time>2021-08-24T12:23:35Z</time>
      </trkpt>
      <trkpt lat="45.38856" lon="5.84571">
        <ele>929</ele>
        <time>2021-08-24T12:23:36Z</time>
      </trkpt>
      <trkpt lat="45.38855" lon="5.84571">
        <ele>929</ele>
        <time>2021-08-24T12:23:38Z</time>
      </trkpt>
      <trkpt lat="45.38854" lon="5.84571">
        <ele>929.1</ele>
        <time>2021-08-24T12:23:39Z</time>
      </trkpt>
      <trkpt lat="45.38851" lon="5.84572">
        <ele>929.2</ele>
        <time>2021-08-24T12:23:41Z</time>
      </trkpt>
      <trkpt lat="45.3885" lon="5.84572">
        <ele>929.3</ele>
        <time>2021-08-24T12:23:42Z</time>
      </trkpt>
      <trkpt lat="45.38849" lon="5.84573">
        <ele>929.4</ele>
        <time>2021-08-24T12:23:44Z</time>
      </trkpt>
      <trkpt lat="45.38847" lon="5.84573">
        <ele>929.5</ele>
        <time>2021-08-24T12:23:45Z</time>
      </trkpt>
      <trkpt lat="45.38846" lon="5.84573">
        <ele>929.6</ele>
        <time>2021-08-24T12:23:46Z</time>
      </trkpt>
      <trkpt lat="45.38846" lon="5.84574">
        <ele>929.6</ele>
        <time>2021-08-24T12:23:47Z</time>
      </trkpt>
      <trkpt lat="45.38845" lon="5.84574">
        <ele>929.7</ele>
        <time>2021-08-24T12:23:48Z</time>
      </trkpt>
      <trkpt lat="45.38843" lon="5.84573">
        <ele>929.8</ele>
        <time>2021-08-24T12:23:50Z</time>
      </trkpt>
      <trkpt lat="45.38841" lon="5.84573">
        <ele>929.9</ele>
        <time>2021-08-24T12:23:51Z</time>
      </trkpt>
      <trkpt lat="45.3884" lon="5.84574">
        <ele>930</ele>
        <time>2021-08-24T12:23:52Z</time>
      </trkpt>
      <trkpt lat="45.38838" lon="5.84574">
        <ele>930.1</ele>
        <time>2021-08-24T12:23:53Z</time>
      </trkpt>
      <trkpt lat="45.38836" lon="5.84574">
        <ele>930.3</ele>
        <time>2021-08-24T12:23:54Z</time>
      </trkpt>
      <trkpt lat="45.38833" lon="5.84574">
        <ele>930.5</ele>
        <time>2021-08-24T12:23:56Z</time>
      </trkpt>
      <trkpt lat="45.38832" lon="5.84574">
        <ele>930.6</ele>
        <time>2021-08-24T12:23:58Z</time>
      </trkpt>
      <trkpt lat="45.38831" lon="5.84574">
        <ele>930.6</ele>
        <time>2021-08-24T12:23:59Z</time>
      </trkpt>
      <trkpt lat="45.3883" lon="5.84574">
        <ele>930.7</ele>
        <time>2021-08-24T12:24:00Z</time>
      </trkpt>
      <trkpt lat="45.38823" lon="5.84574">
        <ele>931.1</ele>
        <time>2021-08-24T12:24:02Z</time>
      </trkpt>
      <trkpt lat="45.38819" lon="5.84573">
        <ele>931.4</ele>
        <time>2021-08-24T12:24:03Z</time>
      </trkpt>
      <trkpt lat="45.38814" lon="5.84572">
        <ele>931.7</ele>
        <time>2021-08-24T12:24:05Z</time>
      </trkpt>
      <trkpt lat="45.38809" lon="5.84571">
        <ele>932</ele>
        <time>2021-08-24T12:24:07Z</time>
      </trkpt>
      <trkpt lat="45.38804" lon="5.8457">
        <ele>932.2</ele>
        <time>2021-08-24T12:24:08Z</time>
      </trkpt>
      <trkpt lat="45.38799" lon="5.8457">
        <ele>932.5</ele>
        <time>2021-08-24T12:24:09Z</time>
      </trkpt>
      <trkpt lat="45.38794" lon="5.84569">
        <ele>932.7</ele>
        <time>2021-08-24T12:25:57Z</time>
      </trkpt>
      <trkpt lat="45.38789" lon="5.84568">
        <ele>933</ele>
        <time>2021-08-24T12:25:58Z</time>
      </trkpt>
      <trkpt lat="45.38768" lon="5.84585">
        <ele>937.5</ele>
        <time>2021-08-24T12:25:59Z</time>
      </trkpt>
      <trkpt lat="45.38761" lon="5.84591">
        <ele>937.6</ele>
        <time>2021-08-24T12:26:01Z</time>
      </trkpt>
      <trkpt lat="45.3875" lon="5.846">
        <ele>937.8</ele>
        <time>2021-08-24T12:26:03Z</time>
      </trkpt>
      <trkpt lat="45.38744" lon="5.84604">
        <ele>938</ele>
        <time>2021-08-24T12:26:04Z</time>
      </trkpt>
      <trkpt lat="45.38734" lon="5.8461">
        <ele>937.7</ele>
        <time>2021-08-24T12:26:06Z</time>
      </trkpt>
      <trkpt lat="45.38728" lon="5.84613">
        <ele>937.6</ele>
        <time>2021-08-24T12:26:08Z</time>
      </trkpt>
      <trkpt lat="45.38723" lon="5.84617">
        <ele>937.5</ele>
        <time>2021-08-24T12:26:09Z</time>
      </trkpt>
      <trkpt lat="45.3872" lon="5.84618">
        <ele>937.5</ele>
        <time>2021-08-24T12:26:10Z</time>
      </trkpt>
      <trkpt lat="45.38712" lon="5.8462">
        <ele>937.4</ele>
        <time>2021-08-24T12:26:12Z</time>
      </trkpt>
      <trkpt lat="45.38706" lon="5.84621">
        <ele>937.4</ele>
        <time>2021-08-24T12:26:14Z</time>
      </trkpt>
      <trkpt lat="45.38702" lon="5.84619">
        <ele>937.4</ele>
        <time>2021-08-24T12:26:15Z</time>
      </trkpt>
      <trkpt lat="45.38697" lon="5.84617">
        <ele>937.4</ele>
        <time>2021-08-24T12:26:16Z</time>
      </trkpt>
      <trkpt lat="45.3869" lon="5.84613">
        <ele>937.3</ele>
        <time>2021-08-24T12:26:18Z</time>
      </trkpt>
      <trkpt lat="45.38686" lon="5.8461">
        <ele>937.2</ele>
        <time>2021-08-24T12:26:19Z</time>
      </trkpt>
      <trkpt lat="45.38684" lon="5.84606">
        <ele>937.2</ele>
        <time>2021-08-24T12:26:22Z</time>
      </trkpt>
      <trkpt lat="45.38681" lon="5.84603">
        <ele>937.1</ele>
        <time>2021-08-24T12:26:23Z</time>
      </trkpt>
      <trkpt lat="45.38679" lon="5.846">
        <ele>937</ele>
        <time>2021-08-24T12:26:24Z</time>
      </trkpt>
      <trkpt lat="45.38676" lon="5.84596">
        <ele>936.9</ele>
        <time>2021-08-24T12:26:26Z</time>
      </trkpt>
      <trkpt lat="45.38673" lon="5.84593">
        <ele>936.8</ele>
        <time>2021-08-24T12:26:55Z</time>
      </trkpt>
      <trkpt lat="45.38671" lon="5.8459">
        <ele>936.7</ele>
        <time>2021-08-24T12:26:56Z</time>
      </trkpt>
      <trkpt lat="45.38663" lon="5.84581">
        <ele>936.2</ele>
        <time>2021-08-24T12:26:58Z</time>
      </trkpt>
      <trkpt lat="45.38657" lon="5.84573">
        <ele>935.8</ele>
        <time>2021-08-24T12:26:59Z</time>
      </trkpt>
      <trkpt lat="45.38651" lon="5.84566">
        <ele>935.1</ele>
        <time>2021-08-24T12:27:01Z</time>
      </trkpt>
      <trkpt lat="45.38647" lon="5.84561">
        <ele>934.1</ele>
        <time>2021-08-24T12:27:02Z</time>
      </trkpt>
      <trkpt lat="45.38643" lon="5.84554">
        <ele>933</ele>
        <time>2021-08-24T12:27:03Z</time>
      </trkpt>
      <trkpt lat="45.3864" lon="5.84549">
        <ele>932.1</ele>
        <time>2021-08-24T12:27:04Z</time>
      </trkpt>
      <trkpt lat="45.38635" lon="5.84544">
        <ele>930.9</ele>
        <time>2021-08-24T12:27:06Z</time>
      </trkpt>
      <trkpt lat="45.38631" lon="5.8454">
        <ele>929.8</ele>
        <time>2021-08-24T12:27:07Z</time>
      </trkpt>
      <trkpt lat="45.38627" lon="5.84538">
        <ele>928.8</ele>
        <time>2021-08-24T12:27:08Z</time>
      </trkpt>
      <trkpt lat="45.38622" lon="5.84539">
        <ele>927.6</ele>
        <time>2021-08-24T12:27:10Z</time>
      </trkpt>
      <trkpt lat="45.3862" lon="5.84538">
        <ele>927.2</ele>
        <time>2021-08-24T12:27:11Z</time>
      </trkpt>
      <trkpt lat="45.38619" lon="5.84538">
        <ele>926.8</ele>
        <time>2021-08-24T12:27:12Z</time>
      </trkpt>
      <trkpt lat="45.38616" lon="5.84541">
        <ele>926</ele>
        <time>2021-08-24T12:27:14Z</time>
      </trkpt>
      <trkpt lat="45.38614" lon="5.84546">
        <ele>925</ele>
        <time>2021-08-24T12:27:15Z</time>
      </trkpt>
      <trkpt lat="45.38612" lon="5.84551">
        <ele>924.2</ele>
        <time>2021-08-24T12:27:17Z</time>
      </trkpt>
      <trkpt lat="45.3861" lon="5.84554">
        <ele>923.6</ele>
        <time>2021-08-24T12:27:18Z</time>
      </trkpt>
      <trkpt lat="45.38608" lon="5.84557">
        <ele>923.1</ele>
        <time>2021-08-24T12:27:20Z</time>
      </trkpt>
      <trkpt lat="45.38607" lon="5.84556">
        <ele>922.9</ele>
        <time>2021-08-24T12:27:21Z</time>
      </trkpt>
      <trkpt lat="45.38606" lon="5.84556">
        <ele>922.8</ele>
        <time>2021-08-24T12:27:22Z</time>
      </trkpt>
      <trkpt lat="45.38605" lon="5.84556">
        <ele>922.7</ele>
        <time>2021-08-24T12:27:24Z</time>
      </trkpt>
      <trkpt lat="45.38605" lon="5.84556">
        <ele>922.7</ele>
        <time>2021-08-24T12:27:26Z</time>
      </trkpt>
      <trkpt lat="45.38605" lon="5.84556">
        <ele>922.6</ele>
        <time>2021-08-24T12:27:27Z</time>
      </trkpt>
      <trkpt lat="45.38605" lon="5.84557">
        <ele>922.6</ele>
        <time>2021-08-24T12:27:29Z</time>
      </trkpt>
      <trkpt lat="45.38562" lon="5.84675">
        <ele>935.9</ele>
        <time>2021-08-24T12:32:04Z</time>
      </trkpt>
      <trkpt lat="45.38559" lon="5.84682">
        <ele>936.8</ele>
        <time>2021-08-24T12:32:05Z</time>
      </trkpt>
      <trkpt lat="45.38556" lon="5.84684">
        <ele>937.3</ele>
        <time>2021-08-24T12:32:06Z</time>
      </trkpt>
      <trkpt lat="45.38551" lon="5.84686">
        <ele>937.8</ele>
        <time>2021-08-24T12:32:07Z</time>
      </trkpt>
      <trkpt lat="45.38548" lon="5.84689">
        <ele>938</ele>
        <time>2021-08-24T12:32:08Z</time>
      </trkpt>
      <trkpt lat="45.38541" lon="5.84693">
        <ele>938.2</ele>
        <time>2021-08-24T12:32:10Z</time>
      </trkpt>
      <trkpt lat="45.38535" lon="5.84696">
        <ele>938.1</ele>
        <time>2021-08-24T12:32:11Z</time>
      </trkpt>
      <trkpt lat="45.3853" lon="5.84699">
        <ele>938</ele>
        <time>2021-08-24T12:32:12Z</time>
      </trkpt>
      <trkpt lat="45.38524" lon="5.84702">
        <ele>937.9</ele>
        <time>2021-08-24T12:32:13Z</time>
      </trkpt>
      <trkpt lat="45.3852" lon="5.84706">
        <ele>937.7</ele>
        <time>2021-08-24T12:32:14Z</time>
      </trkpt>
      <trkpt lat="45.38516" lon="5.84711">
        <ele>937.5</ele>
        <time>2021-08-24T12:32:16Z</time>
      </trkpt>
      <trkpt lat="45.38512" lon="5.84718">
        <ele>937.3</ele>
        <time>2021-08-24T12:32:17Z</time>
      </trkpt>
      <trkpt lat="45.38508" lon="5.84725">
        <ele>937.1</ele>
        <time>2021-08-24T12:32:19Z</time>
      </trkpt>
      <trkpt lat="45.38502" lon="5.84732">
        <ele>936.8</ele>
        <time>2021-08-24T12:32:20Z</time>
      </trkpt>
      <trkpt lat="45.38498" lon="5.84735">
        <ele>936.7</ele>
        <time>2021-08-24T12:32:21Z</time>
      </trkpt>
      <trkpt lat="45.38494" lon="5.84739">
        <ele>936.5</ele>
        <time>2021-08-24T12:32:22Z</time>
      </trkpt>
      <trkpt lat="45.38487" lon="5.84743">
        <ele>936.4</ele>
        <time>2021-08-24T12:32:24Z</time>
      </trkpt>
      <trkpt lat="45.38482" lon="5.84747">
        <ele>936.2</ele>
        <time>2021-08-24T12:32:26Z</time>
      </trkpt>
      <trkpt lat="45.38477" lon="5.8475">
        <ele>936.1</ele>
        <time>2021-08-24T12:32:27Z</time>
      </trkpt>
      <trkpt lat="45.38473" lon="5.84752">
        <ele>936</ele>
        <time>2021-08-24T12:32:28Z</time>
      </trkpt>
      <trkpt lat="45.38469" lon="5.84753">
        <ele>936</ele>
        <time>2021-08-24T12:32:29Z</time>
      </trkpt>
      <trkpt lat="45.38462" lon="5.84753">
        <ele>935.9</ele>
        <time>2021-08-24T12:32:31Z</time>
      </trkpt>
      <trkpt lat="45.38458" lon="5.84752">
        <ele>935.8</ele>
        <time>2021-08-24T12:32:32Z</time>
      </trkpt>
      <trkpt lat="45.38454" lon="5.84751">
        <ele>935.8</ele>
        <time>2021-08-24T12:32:33Z</time>
      </trkpt>
      <trkpt lat="45.3845" lon="5.8475">
        <ele>935.8</ele>
        <time>2021-08-24T12:32:34Z</time>
      </trkpt>
      <trkpt lat="45.38447" lon="5.84749">
        <ele>935.8</ele>
        <time>2021-08-24T12:32:35Z</time>
      </trkpt>
      <trkpt lat="45.38443" lon="5.84749">
        <ele>935.7</ele>
        <time>2021-08-24T12:32:37Z</time>
      </trkpt>
      <trkpt lat="45.38437" lon="5.8475">
        <ele>935.7</ele>
        <time>2021-08-24T12:32:38Z</time>
      </trkpt>
      <trkpt lat="45.38431" lon="5.84752">
        <ele>935.5</ele>
        <time>2021-08-24T12:32:40Z</time>
      </trkpt>
      <trkpt lat="45.38425" lon="5.84756">
        <ele>935.2</ele>
        <time>2021-08-24T12:32:41Z</time>
      </trkpt>
      <trkpt lat="45.3842" lon="5.84758">
        <ele>934.9</ele>
        <time>2021-08-24T12:32:42Z</time>
      </trkpt>
      <trkpt lat="45.38411" lon="5.84765">
        <ele>934.2</ele>
        <time>2021-08-24T12:32:44Z</time>
      </trkpt>
      <trkpt lat="45.38406" lon="5.8477">
        <ele>933.8</ele>
        <time>2021-08-24T12:32:45Z</time>
      </trkpt>
      <trkpt lat="45.38396" lon="5.8478">
        <ele>933</ele>
        <time>2021-08-24T12:32:47Z</time>
      </trkpt>
      <trkpt lat="45.38387" lon="5.84789">
        <ele>932.2</ele>
        <time>2021-08-24T12:32:49Z</time>
      </trkpt>
      <trkpt lat="45.38383" lon="5.84793">
        <ele>931.9</ele>
        <time>2021-08-24T12:32:50Z</time>
      </trkpt>
      <trkpt lat="45.38372" lon="5.84797">
        <ele>931.5</ele>
        <time>2021-08-24T12:32:52Z</time>
      </trkpt>
      <trkpt lat="45.38366" lon="5.84798">
        <ele>931.3</ele>
        <time>2021-08-24T12:32:53Z</time>
      </trkpt>
      <trkpt lat="45.38355" lon="5.848">
        <ele>931.1</ele>
        <time>2021-08-24T12:32:55Z</time>
      </trkpt>
      <trkpt lat="45.38351" lon="5.84801">
        <ele>931</ele>
        <time>2021-08-24T12:32:56Z</time>
      </trkpt>
      <trkpt lat="45.38347" lon="5.84801">
        <ele>930.9</ele>
        <time>2021-08-24T12:32:58Z</time>
      </trkpt>
      <trkpt lat="45.38345" lon="5.84802">
        <ele>930.9</ele>
        <time>2021-08-24T12:32:59Z</time>
      </trkpt>
      <trkpt lat="45.38344" lon="5.84802">
        <ele>930.8</ele>
        <time>2021-08-24T12:33:01Z</time>
      </trkpt>
      <trkpt lat="45.38343" lon="5.84802">
        <ele>930.8</ele>
        <time>2021-08-24T12:33:03Z</time>
      </trkpt>
      <trkpt lat="45.38341" lon="5.84802">
        <ele>930.8</ele>
        <time>2021-08-24T12:33:04Z</time>
      </trkpt>
      <trkpt lat="45.3834" lon="5.84802">
        <ele>930.7</ele>
        <time>2021-08-24T12:33:06Z</time>
      </trkpt>
      <trkpt lat="45.38339" lon="5.84802">
        <ele>930.7</ele>
        <time>2021-08-24T12:33:08Z</time>
      </trkpt>
      <trkpt lat="45.38338" lon="5.84802">
        <ele>930.7</ele>
        <time>2021-08-24T12:33:10Z</time>
      </trkpt>
      <trkpt lat="45.38337" lon="5.84802">
        <ele>930.6</ele>
        <time>2021-08-24T12:34:05Z</time>
      </trkpt>
      <trkpt lat="45.38335" lon="5.84802">
        <ele>930.6</ele>
        <time>2021-08-24T12:34:06Z</time>
      </trkpt>
      <trkpt lat="45.38325" lon="5.84809">
        <ele>929.9</ele>
        <time>2021-08-24T12:34:08Z</time>
      </trkpt>
      <trkpt lat="45.3831" lon="5.84819">
        <ele>928.5</ele>
        <time>2021-08-24T12:34:09Z</time>
      </trkpt>
      <trkpt lat="45.38298" lon="5.84826">
        <ele>927.4</ele>
        <time>2021-08-24T12:34:11Z</time>
      </trkpt>
      <trkpt lat="45.38292" lon="5.84829">
        <ele>927</ele>
        <time>2021-08-24T12:34:12Z</time>
      </trkpt>
      <trkpt lat="45.38286" lon="5.84833">
        <ele>926.5</ele>
        <time>2021-08-24T12:34:13Z</time>
      </trkpt>
      <trkpt lat="45.38275" lon="5.84839">
        <ele>925.7</ele>
        <time>2021-08-24T12:34:15Z</time>
      </trkpt>
      <trkpt lat="45.38262" lon="5.84842">
        <ele>925.1</ele>
        <time>2021-08-24T12:34:17Z</time>
      </trkpt>
      <trkpt lat="45.38256" lon="5.84844">
        <ele>924.7</ele>
        <time>2021-08-24T12:34:18Z</time>
      </trkpt>
      <trkpt lat="45.38243" lon="5.84845">
        <ele>924.1</ele>
        <time>2021-08-24T12:34:20Z</time>
      </trkpt>
      <trkpt lat="45.38229" lon="5.84844">
        <ele>923.7</ele>
        <time>2021-08-24T12:34:22Z</time>
      </trkpt>
      <trkpt lat="45.38223" lon="5.84843">
        <ele>923.6</ele>
        <time>2021-08-24T12:34:23Z</time>
      </trkpt>
      <trkpt lat="45.38217" lon="5.84842">
        <ele>923.6</ele>
        <time>2021-08-24T12:34:24Z</time>
      </trkpt>
      <trkpt lat="45.38211" lon="5.84841">
        <ele>923.5</ele>
        <time>2021-08-24T12:34:25Z</time>
      </trkpt>
      <trkpt lat="45.38205" lon="5.84839">
        <ele>923.5</ele>
        <time>2021-08-24T12:34:26Z</time>
      </trkpt>
      <trkpt lat="45.38195" lon="5.84837">
        <ele>923.5</ele>
        <time>2021-08-24T12:34:28Z</time>
      </trkpt>
      <trkpt lat="45.38186" lon="5.84837">
        <ele>923.6</ele>
        <time>2021-08-24T12:34:30Z</time>
      </trkpt>
      <trkpt lat="45.3818" lon="5.84837">
        <ele>923.7</ele>
        <time>2021-08-24T12:34:32Z</time>
      </trkpt>
      <trkpt lat="45.38173" lon="5.84838">
        <ele>923.8</ele>
        <time>2021-08-24T12:34:34Z</time>
      </trkpt>
      <trkpt lat="45.38163" lon="5.84841">
        <ele>923.8</ele>
        <time>2021-08-24T12:34:36Z</time>
      </trkpt>
      <trkpt lat="45.38153" lon="5.84843">
        <ele>923.7</ele>
        <time>2021-08-24T12:34:38Z</time>
      </trkpt>
      <trkpt lat="45.38149" lon="5.84845">
        <ele>923.7</ele>
        <time>2021-08-24T12:34:39Z</time>
      </trkpt>
      <trkpt lat="45.38147" lon="5.84849">
        <ele>923.6</ele>
        <time>2021-08-24T12:34:41Z</time>
      </trkpt>
      <trkpt lat="45.38142" lon="5.84847">
        <ele>923.5</ele>
        <time>2021-08-24T12:34:42Z</time>
      </trkpt>
      <trkpt lat="45.38132" lon="5.84841">
        <ele>923.4</ele>
        <time>2021-08-24T12:34:43Z</time>
      </trkpt>
      <trkpt lat="45.38123" lon="5.8484">
        <ele>923.4</ele>
        <time>2021-08-24T12:34:45Z</time>
      </trkpt>
      <trkpt lat="45.38118" lon="5.8484">
        <ele>923.4</ele>
        <time>2021-08-24T12:34:46Z</time>
      </trkpt>
      <trkpt lat="45.38108" lon="5.84842">
        <ele>923.5</ele>
        <time>2021-08-24T12:34:48Z</time>
      </trkpt>
      <trkpt lat="45.38105" lon="5.84843">
        <ele>923.5</ele>
        <time>2021-08-24T12:34:49Z</time>
      </trkpt>
      <trkpt lat="45.38099" lon="5.84845">
        <ele>923.5</ele>
        <time>2021-08-24T12:34:51Z</time>
      </trkpt>
      <trkpt lat="45.38096" lon="5.84846">
        <ele>923.5</ele>
        <time>2021-08-24T12:34:52Z</time>
      </trkpt>
      <trkpt lat="45.38091" lon="5.84847">
        <ele>923.5</ele>
        <time>2021-08-24T12:34:53Z</time>
      </trkpt>
      <trkpt lat="45.38086" lon="5.84848">
        <ele>923.5</ele>
        <time>2021-08-24T12:34:54Z</time>
      </trkpt>
      <trkpt lat="45.38082" lon="5.84849">
        <ele>923.4</ele>
        <time>2021-08-24T12:34:55Z</time>
      </trkpt>
      <trkpt lat="45.38077" lon="5.84851">
        <ele>923.4</ele>
        <time>2021-08-24T12:34:57Z</time>
      </trkpt>
      <trkpt lat="45.38073" lon="5.84852">
        <ele>923.4</ele>
        <time>2021-08-24T12:34:58Z</time>
      </trkpt>
      <trkpt lat="45.3807" lon="5.84855">
        <ele>923.4</ele>
        <time>2021-08-24T12:34:59Z</time>
      </trkpt>
      <trkpt lat="45.38067" lon="5.84857">
        <ele>923.4</ele>
        <time>2021-08-24T12:35:00Z</time>
      </trkpt>
      <trkpt lat="45.38063" lon="5.8486">
        <ele>923.4</ele>
        <time>2021-08-24T12:35:01Z</time>
      </trkpt>
      <trkpt lat="45.38061" lon="5.84862">
        <ele>923.4</ele>
        <time>2021-08-24T12:35:02Z</time>
      </trkpt>
      <trkpt lat="45.38058" lon="5.84866">
        <ele>923.5</ele>
        <time>2021-08-24T12:35:04Z</time>
      </trkpt>
      <trkpt lat="45.38055" lon="5.84869">
        <ele>923.5</ele>
        <time>2021-08-24T12:35:05Z</time>
      </trkpt>
      <trkpt lat="45.38052" lon="5.84872">
        <ele>923.5</ele>
        <time>2021-08-24T12:35:06Z</time>
      </trkpt>
      <trkpt lat="45.38049" lon="5.84875">
        <ele>923.5</ele>
        <time>2021-08-24T12:35:08Z</time>
      </trkpt>
      <trkpt lat="45.38046" lon="5.84877">
        <ele>923.5</ele>
        <time>2021-08-24T12:35:09Z</time>
      </trkpt>
      <trkpt lat="45.38043" lon="5.84878">
        <ele>923.6</ele>
        <time>2021-08-24T12:35:10Z</time>
      </trkpt>
      <trkpt lat="45.38039" lon="5.8488">
        <ele>923.6</ele>
        <time>2021-08-24T12:35:12Z</time>
      </trkpt>
      <trkpt lat="45.38035" lon="5.84879">
        <ele>923.6</ele>
        <time>2021-08-24T12:35:14Z</time>
      </trkpt>
      <trkpt lat="45.38033" lon="5.84878">
        <ele>923.7</ele>
        <time>2021-08-24T12:35:15Z</time>
      </trkpt>
      <trkpt lat="45.38028" lon="5.84877">
        <ele>923.7</ele>
        <time>2021-08-24T12:35:17Z</time>
      </trkpt>
      <trkpt lat="45.38024" lon="5.84874">
        <ele>923.8</ele>
        <time>2021-08-24T12:35:19Z</time>
      </trkpt>
      <trkpt lat="45.38019" lon="5.84871">
        <ele>923.8</ele>
        <time>2021-08-24T12:35:21Z</time>
      </trkpt>
      <trkpt lat="45.38017" lon="5.8487">
        <ele>923.9</ele>
        <time>2021-08-24T12:35:22Z</time>
      </trkpt>
      <trkpt lat="45.38013" lon="5.84866">
        <ele>923.9</ele>
        <time>2021-08-24T12:35:24Z</time>
      </trkpt>
      <trkpt lat="45.3801" lon="5.84861">
        <ele>924</ele>
        <time>2021-08-24T12:35:26Z</time>
      </trkpt>
      <trkpt lat="45.38007" lon="5.84858">
        <ele>924</ele>
        <time>2021-08-24T12:35:27Z</time>
      </trkpt>
      <trkpt lat="45.38002" lon="5.84856">
        <ele>924.1</ele>
        <time>2021-08-24T12:35:29Z</time>
      </trkpt>
      <trkpt lat="45.38" lon="5.84855">
        <ele>924.1</ele>
        <time>2021-08-24T12:35:30Z</time>
      </trkpt>
      <trkpt lat="45.37997" lon="5.84853">
        <ele>924.2</ele>
        <time>2021-08-24T12:35:32Z</time>
      </trkpt>
      <trkpt lat="45.37995" lon="5.84851">
        <ele>924.2</ele>
        <time>2021-08-24T12:35:33Z</time>
      </trkpt>
      <trkpt lat="45.37993" lon="5.84849">
        <ele>924.2</ele>
        <time>2021-08-24T12:35:34Z</time>
      </trkpt>
      <trkpt lat="45.37991" lon="5.84846">
        <ele>924.3</ele>
        <time>2021-08-24T12:35:36Z</time>
      </trkpt>
      <trkpt lat="45.37989" lon="5.84843">
        <ele>924.3</ele>
        <time>2021-08-24T12:35:37Z</time>
      </trkpt>
      <trkpt lat="45.37988" lon="5.84842">
        <ele>924.3</ele>
        <time>2021-08-24T12:35:38Z</time>
      </trkpt>
      <trkpt lat="45.37987" lon="5.84838">
        <ele>924.4</ele>
        <time>2021-08-24T12:35:40Z</time>
      </trkpt>
      <trkpt lat="45.37986" lon="5.84836">
        <ele>924.4</ele>
        <time>2021-08-24T12:35:41Z</time>
      </trkpt>
      <trkpt lat="45.37986" lon="5.84833">
        <ele>924.4</ele>
        <time>2021-08-24T12:35:42Z</time>
      </trkpt>
      <trkpt lat="45.37984" lon="5.84829">
        <ele>924.5</ele>
        <time>2021-08-24T12:35:44Z</time>
      </trkpt>
      <trkpt lat="45.37983" lon="5.84827">
        <ele>924.5</ele>
        <time>2021-08-24T12:35:46Z</time>
      </trkpt>
      <trkpt lat="45.37983" lon="5.84825">
        <ele>924.5</ele>
        <time>2021-08-24T12:35:47Z</time>
      </trkpt>
      <trkpt lat="45.37982" lon="5.84824">
        <ele>924.5</ele>
        <time>2021-08-24T12:35:48Z</time>
      </trkpt>
      <trkpt lat="45.3798" lon="5.84822">
        <ele>924.6</ele>
        <time>2021-08-24T12:35:49Z</time>
      </trkpt>
      <trkpt lat="45.37978" lon="5.84818">
        <ele>924.6</ele>
        <time>2021-08-24T12:35:50Z</time>
      </trkpt>
      <trkpt lat="45.37978" lon="5.84816">
        <ele>924.6</ele>
        <time>2021-08-24T12:35:51Z</time>
      </trkpt>
      <trkpt lat="45.37975" lon="5.8481">
        <ele>924.7</ele>
        <time>2021-08-24T12:35:53Z</time>
      </trkpt>
      <trkpt lat="45.37974" lon="5.84808">
        <ele>924.7</ele>
        <time>2021-08-24T12:35:54Z</time>
      </trkpt>
      <trkpt lat="45.37972" lon="5.84803">
        <ele>924.8</ele>
        <time>2021-08-24T12:35:56Z</time>
      </trkpt>
      <trkpt lat="45.37971" lon="5.84801">
        <ele>924.8</ele>
        <time>2021-08-24T12:35:57Z</time>
      </trkpt>
      <trkpt lat="45.37969" lon="5.84798">
        <ele>925</ele>
        <time>2021-08-24T12:35:59Z</time>
      </trkpt>
      <trkpt lat="45.37968" lon="5.84796">
        <ele>925</ele>
        <time>2021-08-24T12:36:00Z</time>
      </trkpt>
      <trkpt lat="45.37967" lon="5.84791">
        <ele>925.2</ele>
        <time>2021-08-24T12:36:02Z</time>
      </trkpt>
      <trkpt lat="45.37965" lon="5.84788">
        <ele>925.3</ele>
        <time>2021-08-24T12:36:04Z</time>
      </trkpt>
      <trkpt lat="45.37963" lon="5.84784">
        <ele>925.4</ele>
        <time>2021-08-24T12:36:05Z</time>
      </trkpt>
      <trkpt lat="45.37962" lon="5.84782">
        <ele>925.5</ele>
        <time>2021-08-24T12:36:06Z</time>
      </trkpt>
      <trkpt lat="45.3796" lon="5.84778">
        <ele>925.6</ele>
        <time>2021-08-24T12:36:08Z</time>
      </trkpt>
      <trkpt lat="45.37959" lon="5.84775">
        <ele>925.7</ele>
        <time>2021-08-24T12:36:09Z</time>
      </trkpt>
      <trkpt lat="45.37957" lon="5.84772">
        <ele>925.8</ele>
        <time>2021-08-24T12:36:11Z</time>
      </trkpt>
      <trkpt lat="45.37956" lon="5.84768">
        <ele>925.9</ele>
        <time>2021-08-24T12:36:12Z</time>
      </trkpt>
      <trkpt lat="45.37954" lon="5.84765">
        <ele>926.1</ele>
        <time>2021-08-24T12:36:14Z</time>
      </trkpt>
      <trkpt lat="45.37952" lon="5.84763">
        <ele>926.2</ele>
        <time>2021-08-24T12:36:15Z</time>
      </trkpt>
      <trkpt lat="45.3795" lon="5.8476">
        <ele>926.3</ele>
        <time>2021-08-24T12:36:17Z</time>
      </trkpt>
      <trkpt lat="45.37948" lon="5.84755">
        <ele>926.5</ele>
        <time>2021-08-24T12:36:18Z</time>
      </trkpt>
      <trkpt lat="45.37947" lon="5.84753">
        <ele>926.6</ele>
        <time>2021-08-24T12:36:19Z</time>
      </trkpt>
      <trkpt lat="45.37946" lon="5.84749">
        <ele>926.8</ele>
        <time>2021-08-24T12:36:20Z</time>
      </trkpt>
      <trkpt lat="45.37945" lon="5.84748">
        <ele>926.8</ele>
        <time>2021-08-24T12:36:21Z</time>
      </trkpt>
      <trkpt lat="45.37943" lon="5.84743">
        <ele>927</ele>
        <time>2021-08-24T12:36:23Z</time>
      </trkpt>
      <trkpt lat="45.37941" lon="5.84741">
        <ele>927.2</ele>
        <time>2021-08-24T12:36:24Z</time>
      </trkpt>
      <trkpt lat="45.3794" lon="5.8474">
        <ele>927.2</ele>
        <time>2021-08-24T12:36:25Z</time>
      </trkpt>
      <trkpt lat="45.37939" lon="5.84737">
        <ele>927.4</ele>
        <time>2021-08-24T12:36:26Z</time>
      </trkpt>
      <trkpt lat="45.37938" lon="5.84736">
        <ele>927.4</ele>
        <time>2021-08-24T12:36:28Z</time>
      </trkpt>
      <trkpt lat="45.37938" lon="5.84735">
        <ele>927.4</ele>
        <time>2021-08-24T12:36:29Z</time>
      </trkpt>
      <trkpt lat="45.37938" lon="5.84735">
        <ele>927.5</ele>
        <time>2021-08-24T12:36:30Z</time>
      </trkpt>
      <trkpt lat="45.37937" lon="5.84735">
        <ele>927.5</ele>
        <time>2021-08-24T12:36:32Z</time>
      </trkpt>
      <trkpt lat="45.37937" lon="5.84735">
        <ele>927.5</ele>
        <time>2021-08-24T12:36:34Z</time>
      </trkpt>
      <trkpt lat="45.37937" lon="5.84735">
        <ele>927.5</ele>
        <time>2021-08-24T12:36:35Z</time>
      </trkpt>
      <trkpt lat="45.37937" lon="5.84735">
        <ele>927.6</ele>
        <time>2021-08-24T12:36:36Z</time>
      </trkpt>
      <trkpt lat="45.37931" lon="5.84729">
        <ele>928</ele>
        <time>2021-08-24T12:36:47Z</time>
      </trkpt>
      <trkpt lat="45.37928" lon="5.84727">
        <ele>928.2</ele>
        <time>2021-08-24T12:36:48Z</time>
      </trkpt>
      <trkpt lat="45.37924" lon="5.84717">
        <ele>928.7</ele>
        <time>2021-08-24T12:36:50Z</time>
      </trkpt>
      <trkpt lat="45.37922" lon="5.84713">
        <ele>928.9</ele>
        <time>2021-08-24T12:36:51Z</time>
      </trkpt>
      <trkpt lat="45.37917" lon="5.84706">
        <ele>929.4</ele>
        <time>2021-08-24T12:36:53Z</time>
      </trkpt>
      <trkpt lat="45.37913" lon="5.84699">
        <ele>929.8</ele>
        <time>2021-08-24T12:36:55Z</time>
      </trkpt>
      <trkpt lat="45.37912" lon="5.84697">
        <ele>930</ele>
        <time>2021-08-24T12:36:56Z</time>
      </trkpt>
      <trkpt lat="45.37908" lon="5.84693">
        <ele>930.4</ele>
        <time>2021-08-24T12:36:58Z</time>
      </trkpt>
      <trkpt lat="45.37905" lon="5.8469">
        <ele>930.9</ele>
        <time>2021-08-24T12:37:00Z</time>
      </trkpt>
      <trkpt lat="45.37902" lon="5.84688">
        <ele>931.2</ele>
        <time>2021-08-24T12:37:01Z</time>
      </trkpt>
      <trkpt lat="45.37899" lon="5.84686">
        <ele>931.6</ele>
        <time>2021-08-24T12:37:03Z</time>
      </trkpt>
      <trkpt lat="45.37896" lon="5.84683">
        <ele>932.2</ele>
        <time>2021-08-24T12:37:05Z</time>
      </trkpt>
      <trkpt lat="45.37894" lon="5.8468">
        <ele>932.5</ele>
        <time>2021-08-24T12:37:06Z</time>
      </trkpt>
      <trkpt lat="45.37889" lon="5.84677">
        <ele>933.1</ele>
        <time>2021-08-24T12:37:08Z</time>
      </trkpt>
      <trkpt lat="45.37884" lon="5.84675">
        <ele>933.7</ele>
        <time>2021-08-24T12:37:10Z</time>
      </trkpt>
      <trkpt lat="45.37882" lon="5.84675">
        <ele>934</ele>
        <time>2021-08-24T12:37:11Z</time>
      </trkpt>
      <trkpt lat="45.37878" lon="5.84674">
        <ele>934.5</ele>
        <time>2021-08-24T12:37:13Z</time>
      </trkpt>
      <trkpt lat="45.37876" lon="5.84672">
        <ele>934.9</ele>
        <time>2021-08-24T12:37:14Z</time>
      </trkpt>
      <trkpt lat="45.37872" lon="5.84671">
        <ele>935.3</ele>
        <time>2021-08-24T12:37:16Z</time>
      </trkpt>
      <trkpt lat="45.37871" lon="5.8467">
        <ele>935.5</ele>
        <time>2021-08-24T12:37:17Z</time>
      </trkpt>
      <trkpt lat="45.3787" lon="5.84669">
        <ele>935.7</ele>
        <time>2021-08-24T12:37:18Z</time>
      </trkpt>
      <trkpt lat="45.37867" lon="5.84667">
        <ele>936.1</ele>
        <time>2021-08-24T12:37:19Z</time>
      </trkpt>
      <trkpt lat="45.37865" lon="5.84666">
        <ele>936.2</ele>
        <time>2021-08-24T12:37:21Z</time>
      </trkpt>
      <trkpt lat="45.37864" lon="5.84666">
        <ele>936.4</ele>
        <time>2021-08-24T12:37:22Z</time>
      </trkpt>
      <trkpt lat="45.37863" lon="5.84665">
        <ele>936.6</ele>
        <time>2021-08-24T12:37:23Z</time>
      </trkpt>
      <trkpt lat="45.37861" lon="5.84664">
        <ele>936.6</ele>
        <time>2021-08-24T12:37:24Z</time>
      </trkpt>
      <trkpt lat="45.37859" lon="5.84663">
        <ele>936.9</ele>
        <time>2021-08-24T12:37:26Z</time>
      </trkpt>
      <trkpt lat="45.37858" lon="5.84664">
        <ele>937.1</ele>
        <time>2021-08-24T12:37:27Z</time>
      </trkpt>
      <trkpt lat="45.37856" lon="5.84663">
        <ele>937.2</ele>
        <time>2021-08-24T12:37:28Z</time>
      </trkpt>
      <trkpt lat="45.37854" lon="5.84662">
        <ele>937.4</ele>
        <time>2021-08-24T12:37:30Z</time>
      </trkpt>
      <trkpt lat="45.37853" lon="5.84661">
        <ele>937.5</ele>
        <time>2021-08-24T12:37:31Z</time>
      </trkpt>
      <trkpt lat="45.37852" lon="5.8466">
        <ele>937.6</ele>
        <time>2021-08-24T12:37:32Z</time>
      </trkpt>
      <trkpt lat="45.37851" lon="5.84658">
        <ele>937.7</ele>
        <time>2021-08-24T12:37:33Z</time>
      </trkpt>
      <trkpt lat="45.37849" lon="5.84657">
        <ele>937.9</ele>
        <time>2021-08-24T12:37:35Z</time>
      </trkpt>
      <trkpt lat="45.37848" lon="5.84655">
        <ele>938</ele>
        <time>2021-08-24T12:37:37Z</time>
      </trkpt>
      <trkpt lat="45.37846" lon="5.84654">
        <ele>938.2</ele>
        <time>2021-08-24T12:37:38Z</time>
      </trkpt>
      <trkpt lat="45.37845" lon="5.84653">
        <ele>938.3</ele>
        <time>2021-08-24T12:37:40Z</time>
      </trkpt>
      <trkpt lat="45.37844" lon="5.84652">
        <ele>938.4</ele>
        <time>2021-08-24T12:37:41Z</time>
      </trkpt>
      <trkpt lat="45.37843" lon="5.8465">
        <ele>938.7</ele>
        <time>2021-08-24T12:37:43Z</time>
      </trkpt>
      <trkpt lat="45.37842" lon="5.84649">
        <ele>938.8</ele>
        <time>2021-08-24T12:37:44Z</time>
      </trkpt>
      <trkpt lat="45.37841" lon="5.84647">
        <ele>938.9</ele>
        <time>2021-08-24T12:37:45Z</time>
      </trkpt>
      <trkpt lat="45.37839" lon="5.84646">
        <ele>939.1</ele>
        <time>2021-08-24T12:37:47Z</time>
      </trkpt>
      <trkpt lat="45.37838" lon="5.84645">
        <ele>939.3</ele>
        <time>2021-08-24T12:37:48Z</time>
      </trkpt>
      <trkpt lat="45.37837" lon="5.84645">
        <ele>939.4</ele>
        <time>2021-08-24T12:37:49Z</time>
      </trkpt>
      <trkpt lat="45.37835" lon="5.84644">
        <ele>939.6</ele>
        <time>2021-08-24T12:37:51Z</time>
      </trkpt>
      <trkpt lat="45.37834" lon="5.84643">
        <ele>939.8</ele>
        <time>2021-08-24T12:37:53Z</time>
      </trkpt>
      <trkpt lat="45.37833" lon="5.84641">
        <ele>940</ele>
        <time>2021-08-24T12:37:54Z</time>
      </trkpt>
      <trkpt lat="45.37832" lon="5.84639">
        <ele>940.2</ele>
        <time>2021-08-24T12:37:55Z</time>
      </trkpt>
      <trkpt lat="45.37831" lon="5.84638">
        <ele>940.3</ele>
        <time>2021-08-24T12:37:57Z</time>
      </trkpt>
      <trkpt lat="45.37831" lon="5.84637">
        <ele>940.5</ele>
        <time>2021-08-24T12:37:58Z</time>
      </trkpt>
      <trkpt lat="45.3783" lon="5.84634">
        <ele>940.7</ele>
        <time>2021-08-24T12:37:59Z</time>
      </trkpt>
      <trkpt lat="45.3783" lon="5.84632">
        <ele>940.9</ele>
        <time>2021-08-24T12:38:00Z</time>
      </trkpt>
      <trkpt lat="45.37829" lon="5.8463">
        <ele>941.1</ele>
        <time>2021-08-24T12:38:01Z</time>
      </trkpt>
      <trkpt lat="45.37828" lon="5.84628">
        <ele>941.3</ele>
        <time>2021-08-24T12:38:03Z</time>
      </trkpt>
      <trkpt lat="45.37827" lon="5.84627">
        <ele>941.5</ele>
        <time>2021-08-24T12:38:04Z</time>
      </trkpt>
      <trkpt lat="45.37825" lon="5.84625">
        <ele>941.7</ele>
        <time>2021-08-24T12:38:06Z</time>
      </trkpt>
      <trkpt lat="45.37823" lon="5.84624">
        <ele>942</ele>
        <time>2021-08-24T12:38:07Z</time>
      </trkpt>
      <trkpt lat="45.37821" lon="5.84623">
        <ele>942.2</ele>
        <time>2021-08-24T12:38:09Z</time>
      </trkpt>
      <trkpt lat="45.3782" lon="5.84622">
        <ele>942.4</ele>
        <time>2021-08-24T12:38:10Z</time>
      </trkpt>
      <trkpt lat="45.37819" lon="5.84622">
        <ele>942.5</ele>
        <time>2021-08-24T12:38:12Z</time>
      </trkpt>
      <trkpt lat="45.37818" lon="5.84622">
        <ele>942.6</ele>
        <time>2021-08-24T12:38:14Z</time>
      </trkpt>
      <trkpt lat="45.37818" lon="5.84622">
        <ele>942.6</ele>
        <time>2021-08-24T12:38:15Z</time>
      </trkpt>
      <trkpt lat="45.37818" lon="5.84622">
        <ele>942.6</ele>
        <time>2021-08-24T12:38:16Z</time>
      </trkpt>
      <trkpt lat="45.37818" lon="5.84622">
        <ele>942.6</ele>
        <time>2021-08-24T12:38:17Z</time>
      </trkpt>
      <trkpt lat="45.37818" lon="5.84622">
        <ele>942.6</ele>
        <time>2021-08-24T12:38:18Z</time>
      </trkpt>
      <trkpt lat="45.37818" lon="5.84622">
        <ele>942.7</ele>
        <time>2021-08-24T12:38:19Z</time>
      </trkpt>
      <trkpt lat="45.37739" lon="5.84594">
        <ele>952</ele>
        <time>2021-08-24T12:40:12Z</time>
      </trkpt>
      <trkpt lat="45.37737" lon="5.84591">
        <ele>952.4</ele>
        <time>2021-08-24T12:40:13Z</time>
      </trkpt>
      <trkpt lat="45.37734" lon="5.84586">
        <ele>953.1</ele>
        <time>2021-08-24T12:40:15Z</time>
      </trkpt>
      <trkpt lat="45.37732" lon="5.84583">
        <ele>953.4</ele>
        <time>2021-08-24T12:40:16Z</time>
      </trkpt>
      <trkpt lat="45.3773" lon="5.8458">
        <ele>953.8</ele>
        <time>2021-08-24T12:40:18Z</time>
      </trkpt>
      <trkpt lat="45.37728" lon="5.84576">
        <ele>954.3</ele>
        <time>2021-08-24T12:40:19Z</time>
      </trkpt>
      <trkpt lat="45.37726" lon="5.84574">
        <ele>954.5</ele>
        <time>2021-08-24T12:40:20Z</time>
      </trkpt>
      <trkpt lat="45.37723" lon="5.8457">
        <ele>954.9</ele>
        <time>2021-08-24T12:40:22Z</time>
      </trkpt>
      <trkpt lat="45.37721" lon="5.84568">
        <ele>955.2</ele>
        <time>2021-08-24T12:40:23Z</time>
      </trkpt>
      <trkpt lat="45.37717" lon="5.84563">
        <ele>955.6</ele>
        <time>2021-08-24T12:40:25Z</time>
      </trkpt>
      <trkpt lat="45.37715" lon="5.84561">
        <ele>955.8</ele>
        <time>2021-08-24T12:40:26Z</time>
      </trkpt>
      <trkpt lat="45.37714" lon="5.84559">
        <ele>955.9</ele>
        <time>2021-08-24T12:40:28Z</time>
      </trkpt>
      <trkpt lat="45.37712" lon="5.84558">
        <ele>956</ele>
        <time>2021-08-24T12:40:30Z</time>
      </trkpt>
      <trkpt lat="45.37712" lon="5.84558">
        <ele>956.1</ele>
        <time>2021-08-24T12:40:31Z</time>
      </trkpt>
      <trkpt lat="45.37712" lon="5.84557">
        <ele>956.1</ele>
        <time>2021-08-24T12:40:32Z</time>
      </trkpt>
      <trkpt lat="45.37711" lon="5.84557">
        <ele>956.1</ele>
        <time>2021-08-24T12:40:34Z</time>
      </trkpt>
      <trkpt lat="45.37711" lon="5.84556">
        <ele>956.2</ele>
        <time>2021-08-24T12:40:35Z</time>
      </trkpt>
      <trkpt lat="45.37711" lon="5.84556">
        <ele>956.2</ele>
        <time>2021-08-24T12:40:37Z</time>
      </trkpt>
      <trkpt lat="45.3765" lon="5.84477">
        <ele>966</ele>
        <time>2021-08-24T12:42:15Z</time>
      </trkpt>
      <trkpt lat="45.37647" lon="5.84473">
        <ele>966.4</ele>
        <time>2021-08-24T12:42:16Z</time>
      </trkpt>
      <trkpt lat="45.37646" lon="5.84472">
        <ele>966.5</ele>
        <time>2021-08-24T12:42:17Z</time>
      </trkpt>
      <trkpt lat="45.37645" lon="5.8447">
        <ele>966.7</ele>
        <time>2021-08-24T12:42:18Z</time>
      </trkpt>
      <trkpt lat="45.37641" lon="5.84466">
        <ele>967</ele>
        <time>2021-08-24T12:42:20Z</time>
      </trkpt>
      <trkpt lat="45.37639" lon="5.84464">
        <ele>967.2</ele>
        <time>2021-08-24T12:42:21Z</time>
      </trkpt>
      <trkpt lat="45.37637" lon="5.84461">
        <ele>967.4</ele>
        <time>2021-08-24T12:42:22Z</time>
      </trkpt>
      <trkpt lat="45.37634" lon="5.84458">
        <ele>967.6</ele>
        <time>2021-08-24T12:42:23Z</time>
      </trkpt>
      <trkpt lat="45.37633" lon="5.84457">
        <ele>967.7</ele>
        <time>2021-08-24T12:42:25Z</time>
      </trkpt>
      <trkpt lat="45.37632" lon="5.84456">
        <ele>967.8</ele>
        <time>2021-08-24T12:42:26Z</time>
      </trkpt>
      <trkpt lat="45.37632" lon="5.84456">
        <ele>967.8</ele>
        <time>2021-08-24T12:42:27Z</time>
      </trkpt>
      <trkpt lat="45.37631" lon="5.84455">
        <ele>967.8</ele>
        <time>2021-08-24T12:42:29Z</time>
      </trkpt>
      <trkpt lat="45.3763" lon="5.84455">
        <ele>967.9</ele>
        <time>2021-08-24T12:42:30Z</time>
      </trkpt>
      <trkpt lat="45.3763" lon="5.84453">
        <ele>968</ele>
        <time>2021-08-24T12:42:32Z</time>
      </trkpt>
      <trkpt lat="45.37629" lon="5.84451">
        <ele>968.1</ele>
        <time>2021-08-24T12:42:33Z</time>
      </trkpt>
      <trkpt lat="45.37628" lon="5.84449">
        <ele>968.2</ele>
        <time>2021-08-24T12:42:34Z</time>
      </trkpt>
      <trkpt lat="45.37627" lon="5.84448">
        <ele>968.2</ele>
        <time>2021-08-24T12:42:35Z</time>
      </trkpt>
      <trkpt lat="45.37627" lon="5.84447">
        <ele>968.3</ele>
        <time>2021-08-24T12:42:37Z</time>
      </trkpt>
      <trkpt lat="45.3756" lon="5.8437">
        <ele>977.9</ele>
        <time>2021-08-24T12:44:46Z</time>
      </trkpt>
      <trkpt lat="45.37551" lon="5.84363">
        <ele>978.7</ele>
        <time>2021-08-24T12:44:48Z</time>
      </trkpt>
      <trkpt lat="45.37548" lon="5.84359">
        <ele>979.1</ele>
        <time>2021-08-24T12:44:50Z</time>
      </trkpt>
      <trkpt lat="45.37543" lon="5.84357">
        <ele>979.5</ele>
        <time>2021-08-24T12:44:52Z</time>
      </trkpt>
      <trkpt lat="45.37542" lon="5.84356">
        <ele>979.6</ele>
        <time>2021-08-24T12:44:53Z</time>
      </trkpt>
      <trkpt lat="45.3754" lon="5.84355">
        <ele>979.7</ele>
        <time>2021-08-24T12:44:54Z</time>
      </trkpt>
      <trkpt lat="45.37536" lon="5.84353">
        <ele>980.1</ele>
        <time>2021-08-24T12:44:56Z</time>
      </trkpt>
      <trkpt lat="45.37535" lon="5.84352">
        <ele>980.1</ele>
        <time>2021-08-24T12:44:58Z</time>
      </trkpt>
      <trkpt lat="45.37534" lon="5.84351">
        <ele>980.2</ele>
        <time>2021-08-24T12:44:59Z</time>
      </trkpt>
      <trkpt lat="45.37533" lon="5.8435">
        <ele>980.3</ele>
        <time>2021-08-24T12:45:00Z</time>
      </trkpt>
      <trkpt lat="45.37531" lon="5.84347">
        <ele>980.5</ele>
        <time>2021-08-24T12:45:02Z</time>
      </trkpt>
      <trkpt lat="45.3753" lon="5.84344">
        <ele>980.7</ele>
        <time>2021-08-24T12:45:03Z</time>
      </trkpt>
      <trkpt lat="45.37529" lon="5.84342">
        <ele>980.8</ele>
        <time>2021-08-24T12:45:05Z</time>
      </trkpt>
      <trkpt lat="45.37528" lon="5.8434">
        <ele>980.9</ele>
        <time>2021-08-24T12:45:07Z</time>
      </trkpt>
      <trkpt lat="45.37526" lon="5.84338">
        <ele>981</ele>
        <time>2021-08-24T12:45:08Z</time>
      </trkpt>
      <trkpt lat="45.37525" lon="5.84335">
        <ele>981.1</ele>
        <time>2021-08-24T12:45:09Z</time>
      </trkpt>
      <trkpt lat="45.37525" lon="5.84334">
        <ele>981.2</ele>
        <time>2021-08-24T12:45:10Z</time>
      </trkpt>
      <trkpt lat="45.37524" lon="5.84333">
        <ele>981.3</ele>
        <time>2021-08-24T12:45:11Z</time>
      </trkpt>
      <trkpt lat="45.37523" lon="5.84332">
        <ele>981.3</ele>
        <time>2021-08-24T12:45:12Z</time>
      </trkpt>
      <trkpt lat="45.37522" lon="5.84328">
        <ele>981.5</ele>
        <time>2021-08-24T12:45:14Z</time>
      </trkpt>
      <trkpt lat="45.37521" lon="5.84327">
        <ele>981.6</ele>
        <time>2021-08-24T12:45:15Z</time>
      </trkpt>
      <trkpt lat="45.3752" lon="5.84326">
        <ele>981.6</ele>
        <time>2021-08-24T12:45:17Z</time>
      </trkpt>
      <trkpt lat="45.3752" lon="5.84324">
        <ele>981.7</ele>
        <time>2021-08-24T12:45:18Z</time>
      </trkpt>
      <trkpt lat="45.37519" lon="5.84323">
        <ele>981.8</ele>
        <time>2021-08-24T12:45:19Z</time>
      </trkpt>
      <trkpt lat="45.37518" lon="5.84322">
        <ele>981.9</ele>
        <time>2021-08-24T12:45:20Z</time>
      </trkpt>
      <trkpt lat="45.37517" lon="5.84321">
        <ele>981.9</ele>
        <time>2021-08-24T12:45:21Z</time>
      </trkpt>
      <trkpt lat="45.37516" lon="5.84321">
        <ele>982</ele>
        <time>2021-08-24T12:45:23Z</time>
      </trkpt>
      <trkpt lat="45.37516" lon="5.84321">
        <ele>982</ele>
        <time>2021-08-24T12:45:24Z</time>
      </trkpt>
      <trkpt lat="45.37515" lon="5.84321">
        <ele>982.1</ele>
        <time>2021-08-24T12:45:26Z</time>
      </trkpt>
      <trkpt lat="45.37514" lon="5.84319">
        <ele>982.2</ele>
        <time>2021-08-24T12:45:27Z</time>
      </trkpt>
      <trkpt lat="45.37513" lon="5.84317">
        <ele>982.3</ele>
        <time>2021-08-24T12:45:28Z</time>
      </trkpt>
      <trkpt lat="45.3751" lon="5.84315">
        <ele>982.5</ele>
        <time>2021-08-24T12:45:29Z</time>
      </trkpt>
      <trkpt lat="45.37509" lon="5.84314">
        <ele>982.6</ele>
        <time>2021-08-24T12:45:30Z</time>
      </trkpt>
      <trkpt lat="45.37507" lon="5.84313">
        <ele>982.8</ele>
        <time>2021-08-24T12:45:31Z</time>
      </trkpt>
      <trkpt lat="45.37503" lon="5.84312">
        <ele>983.1</ele>
        <time>2021-08-24T12:45:33Z</time>
      </trkpt>
      <trkpt lat="45.37501" lon="5.84311">
        <ele>983.3</ele>
        <time>2021-08-24T12:45:34Z</time>
      </trkpt>
      <trkpt lat="45.37498" lon="5.8431">
        <ele>983.5</ele>
        <time>2021-08-24T12:45:36Z</time>
      </trkpt>
      <trkpt lat="45.37497" lon="5.84309">
        <ele>983.7</ele>
        <time>2021-08-24T12:45:37Z</time>
      </trkpt>
      <trkpt lat="45.37495" lon="5.84309">
        <ele>983.8</ele>
        <time>2021-08-24T12:45:38Z</time>
      </trkpt>
      <trkpt lat="45.37493" lon="5.84307">
        <ele>984</ele>
        <time>2021-08-24T12:45:39Z</time>
      </trkpt>
      <trkpt lat="45.37493" lon="5.84307">
        <ele>984</ele>
        <time>2021-08-24T12:45:40Z</time>
      </trkpt>
      <trkpt lat="45.37492" lon="5.84307">
        <ele>984.1</ele>
        <time>2021-08-24T12:45:41Z</time>
      </trkpt>
      <trkpt lat="45.37492" lon="5.84307">
        <ele>984.1</ele>
        <time>2021-08-24T12:45:42Z</time>
      </trkpt>
      <trkpt lat="45.37491" lon="5.84306">
        <ele>984.1</ele>
        <time>2021-08-24T12:45:44Z</time>
      </trkpt>
      <trkpt lat="45.37491" lon="5.84306">
        <ele>984.2</ele>
        <time>2021-08-24T12:45:45Z</time>
      </trkpt>
      <trkpt lat="45.37491" lon="5.84306">
        <ele>984.2</ele>
        <time>2021-08-24T12:45:47Z</time>
      </trkpt>
      <trkpt lat="45.37491" lon="5.84306">
        <ele>984.2</ele>
        <time>2021-08-24T12:45:48Z</time>
      </trkpt>
      <trkpt lat="45.37491" lon="5.84306">
        <ele>984.2</ele>
        <time>2021-08-24T12:45:49Z</time>
      </trkpt>
      <trkpt lat="45.37469" lon="5.84288">
        <ele>987</ele>
        <time>2021-08-24T12:46:20Z</time>
      </trkpt>
      <trkpt lat="45.37463" lon="5.84286">
        <ele>987.9</ele>
        <time>2021-08-24T12:46:22Z</time>
      </trkpt>
      <trkpt lat="45.37461" lon="5.84284">
        <ele>988.2</ele>
        <time>2021-08-24T12:46:23Z</time>
      </trkpt>
      <trkpt lat="45.37458" lon="5.84279">
        <ele>989</ele>
        <time>2021-08-24T12:46:25Z</time>
      </trkpt>
      <trkpt lat="45.37457" lon="5.84276">
        <ele>989.4</ele>
        <time>2021-08-24T12:46:26Z</time>
      </trkpt>
      <trkpt lat="45.37455" lon="5.8427">
        <ele>990.2</ele>
        <time>2021-08-24T12:46:28Z</time>
      </trkpt>
      <trkpt lat="45.37454" lon="5.84268">
        <ele>990.4</ele>
        <time>2021-08-24T12:46:29Z</time>
      </trkpt>
      <trkpt lat="45.37454" lon="5.84266">
        <ele>990.6</ele>
        <time>2021-08-24T12:46:30Z</time>
      </trkpt>
      <trkpt lat="45.37454" lon="5.84266">
        <ele>990.7</ele>
        <time>2021-08-24T12:46:31Z</time>
      </trkpt>
      <trkpt lat="45.37454" lon="5.84265">
        <ele>990.8</ele>
        <time>2021-08-24T12:46:33Z</time>
      </trkpt>
      <trkpt lat="45.37454" lon="5.84265">
        <ele>990.9</ele>
        <time>2021-08-24T12:46:34Z</time>
      </trkpt>
      <trkpt lat="45.37454" lon="5.84264">
        <ele>990.9</ele>
        <time>2021-08-24T12:46:35Z</time>
      </trkpt>
      <trkpt lat="45.37454" lon="5.84264">
        <ele>991</ele>
        <time>2021-08-24T12:46:36Z</time>
      </trkpt>
      <trkpt lat="45.37454" lon="5.84263">
        <ele>991</ele>
        <time>2021-08-24T12:46:37Z</time>
      </trkpt>
      <trkpt lat="45.37453" lon="5.84263">
        <ele>991.1</ele>
        <time>2021-08-24T12:46:39Z</time>
      </trkpt>
      <trkpt lat="45.37453" lon="5.84263">
        <ele>991.1</ele>
        <time>2021-08-24T12:46:40Z</time>
      </trkpt>
      <trkpt lat="45.37361" lon="5.84214">
        <ele>1004.3</ele>
        <time>2021-08-24T12:48:45Z</time>
      </trkpt>
      <trkpt lat="45.37359" lon="5.84214">
        <ele>1004.4</ele>
        <time>2021-08-24T12:48:46Z</time>
      </trkpt>
      <trkpt lat="45.37358" lon="5.84213">
        <ele>1004.5</ele>
        <time>2021-08-24T12:48:48Z</time>
      </trkpt>
      <trkpt lat="45.37357" lon="5.84213">
        <ele>1004.6</ele>
        <time>2021-08-24T12:48:49Z</time>
      </trkpt>
      <trkpt lat="45.37355" lon="5.84212">
        <ele>1004.7</ele>
        <time>2021-08-24T12:48:51Z</time>
      </trkpt>
      <trkpt lat="45.37354" lon="5.84212">
        <ele>1004.8</ele>
        <time>2021-08-24T12:48:52Z</time>
      </trkpt>
      <trkpt lat="45.37353" lon="5.84212">
        <ele>1004.9</ele>
        <time>2021-08-24T12:48:53Z</time>
      </trkpt>
      <trkpt lat="45.37352" lon="5.84211">
        <ele>1005</ele>
        <time>2021-08-24T12:48:55Z</time>
      </trkpt>
      <trkpt lat="45.37351" lon="5.84211">
        <ele>1005</ele>
        <time>2021-08-24T12:48:56Z</time>
      </trkpt>
      <trkpt lat="45.3735" lon="5.84211">
        <ele>1005.1</ele>
        <time>2021-08-24T12:48:57Z</time>
      </trkpt>
      <trkpt lat="45.37349" lon="5.84211">
        <ele>1005.1</ele>
        <time>2021-08-24T12:48:58Z</time>
      </trkpt>
      <trkpt lat="45.37349" lon="5.84211">
        <ele>1005.2</ele>
        <time>2021-08-24T12:49:00Z</time>
      </trkpt>
      <trkpt lat="45.37349" lon="5.84211">
        <ele>1005.2</ele>
        <time>2021-08-24T12:49:01Z</time>
      </trkpt>
      <trkpt lat="45.37348" lon="5.8421">
        <ele>1005.2</ele>
        <time>2021-08-24T12:49:02Z</time>
      </trkpt>
      <trkpt lat="45.37348" lon="5.8421">
        <ele>1005.2</ele>
        <time>2021-08-24T12:49:03Z</time>
      </trkpt>
      <trkpt lat="45.37348" lon="5.8421">
        <ele>1005.3</ele>
        <time>2021-08-24T12:49:05Z</time>
      </trkpt>
      <trkpt lat="45.37348" lon="5.8421">
        <ele>1005.3</ele>
        <time>2021-08-24T12:49:06Z</time>
      </trkpt>
      <trkpt lat="45.37348" lon="5.8421">
        <ele>1005.3</ele>
        <time>2021-08-24T12:49:07Z</time>
      </trkpt>
      <trkpt lat="45.37347" lon="5.84209">
        <ele>1005.3</ele>
        <time>2021-08-24T12:49:08Z</time>
      </trkpt>
      <trkpt lat="45.37347" lon="5.84209">
        <ele>1005.3</ele>
        <time>2021-08-24T12:49:10Z</time>
      </trkpt>
      <trkpt lat="45.37347" lon="5.84209">
        <ele>1005.3</ele>
        <time>2021-08-24T12:49:11Z</time>
      </trkpt>
      <trkpt lat="45.37346" lon="5.8421">
        <ele>1005.4</ele>
        <time>2021-08-24T12:49:12Z</time>
      </trkpt>
      <trkpt lat="45.37345" lon="5.8421">
        <ele>1005.5</ele>
        <time>2021-08-24T12:49:13Z</time>
      </trkpt>
      <trkpt lat="45.37343" lon="5.84211">
        <ele>1005.7</ele>
        <time>2021-08-24T12:49:15Z</time>
      </trkpt>
      <trkpt lat="45.37341" lon="5.84211">
        <ele>1005.8</ele>
        <time>2021-08-24T12:49:17Z</time>
      </trkpt>
      <trkpt lat="45.3734" lon="5.84212">
        <ele>1005.9</ele>
        <time>2021-08-24T12:49:18Z</time>
      </trkpt>
      <trkpt lat="45.37339" lon="5.84212">
        <ele>1005.9</ele>
        <time>2021-08-24T12:49:19Z</time>
      </trkpt>
      <trkpt lat="45.37338" lon="5.84213">
        <ele>1006</ele>
        <time>2021-08-24T12:49:21Z</time>
      </trkpt>
      <trkpt lat="45.37337" lon="5.84214">
        <ele>1006.1</ele>
        <time>2021-08-24T12:49:22Z</time>
      </trkpt>
      <trkpt lat="45.37337" lon="5.84214">
        <ele>1006.1</ele>
        <time>2021-08-24T12:49:23Z</time>
      </trkpt>
      <trkpt lat="45.37336" lon="5.84215">
        <ele>1006.2</ele>
        <time>2021-08-24T12:49:25Z</time>
      </trkpt>
      <trkpt lat="45.37336" lon="5.84215">
        <ele>1006.2</ele>
        <time>2021-08-24T12:49:27Z</time>
      </trkpt>
      <trkpt lat="45.37334" lon="5.84214">
        <ele>1006.3</ele>
        <time>2021-08-24T12:49:29Z</time>
      </trkpt>
      <trkpt lat="45.37333" lon="5.84214">
        <ele>1006.4</ele>
        <time>2021-08-24T12:49:30Z</time>
      </trkpt>
      <trkpt lat="45.37332" lon="5.84214">
        <ele>1006.5</ele>
        <time>2021-08-24T12:49:32Z</time>
      </trkpt>
      <trkpt lat="45.3733" lon="5.84214">
        <ele>1006.6</ele>
        <time>2021-08-24T12:49:33Z</time>
      </trkpt>
      <trkpt lat="45.37329" lon="5.84215">
        <ele>1006.7</ele>
        <time>2021-08-24T12:49:35Z</time>
      </trkpt>
      <trkpt lat="45.37328" lon="5.84215">
        <ele>1006.8</ele>
        <time>2021-08-24T12:49:37Z</time>
      </trkpt>
      <trkpt lat="45.37327" lon="5.84215">
        <ele>1006.9</ele>
        <time>2021-08-24T12:49:39Z</time>
      </trkpt>
      <trkpt lat="45.37327" lon="5.84214">
        <ele>1006.9</ele>
        <time>2021-08-24T12:49:41Z</time>
      </trkpt>
      <trkpt lat="45.37327" lon="5.84214">
        <ele>1006.9</ele>
        <time>2021-08-24T12:49:42Z</time>
      </trkpt>
      <trkpt lat="45.37327" lon="5.84214">
        <ele>1006.9</ele>
        <time>2021-08-24T12:49:43Z</time>
      </trkpt>
      <trkpt lat="45.37326" lon="5.84214">
        <ele>1007</ele>
        <time>2021-08-24T12:49:45Z</time>
      </trkpt>
      <trkpt lat="45.37326" lon="5.84214">
        <ele>1007</ele>
        <time>2021-08-24T12:49:46Z</time>
      </trkpt>
      <trkpt lat="45.37326" lon="5.84214">
        <ele>1007</ele>
        <time>2021-08-24T12:49:48Z</time>
      </trkpt>
      <trkpt lat="45.37326" lon="5.84214">
        <ele>1007</ele>
        <time>2021-08-24T12:49:49Z</time>
      </trkpt>
      <trkpt lat="45.37326" lon="5.84214">
        <ele>1007</ele>
        <time>2021-08-24T12:49:50Z</time>
      </trkpt>
      <trkpt lat="45.37325" lon="5.84215">
        <ele>1007.1</ele>
        <time>2021-08-24T12:49:51Z</time>
      </trkpt>
      <trkpt lat="45.37325" lon="5.84219">
        <ele>1007.3</ele>
        <time>2021-08-24T12:49:53Z</time>
      </trkpt>
      <trkpt lat="45.37324" lon="5.8422">
        <ele>1007.4</ele>
        <time>2021-08-24T12:49:54Z</time>
      </trkpt>
      <trkpt lat="45.37324" lon="5.84222">
        <ele>1007.5</ele>
        <time>2021-08-24T12:49:56Z</time>
      </trkpt>
      <trkpt lat="45.37324" lon="5.84224">
        <ele>1007.6</ele>
        <time>2021-08-24T12:49:58Z</time>
      </trkpt>
      <trkpt lat="45.37324" lon="5.84226">
        <ele>1007.7</ele>
        <time>2021-08-24T12:49:59Z</time>
      </trkpt>
      <trkpt lat="45.37323" lon="5.84227">
        <ele>1007.7</ele>
        <time>2021-08-24T12:50:00Z</time>
      </trkpt>
      <trkpt lat="45.37323" lon="5.84228">
        <ele>1007.8</ele>
        <time>2021-08-24T12:50:02Z</time>
      </trkpt>
      <trkpt lat="45.37324" lon="5.84229">
        <ele>1007.9</ele>
        <time>2021-08-24T12:50:04Z</time>
      </trkpt>
      <trkpt lat="45.37324" lon="5.8423">
        <ele>1007.9</ele>
        <time>2021-08-24T12:50:06Z</time>
      </trkpt>
      <trkpt lat="45.37324" lon="5.8423">
        <ele>1008</ele>
        <time>2021-08-24T12:50:08Z</time>
      </trkpt>
      <trkpt lat="45.37324" lon="5.84231">
        <ele>1008</ele>
        <time>2021-08-24T12:50:09Z</time>
      </trkpt>
      <trkpt lat="45.37324" lon="5.84231">
        <ele>1008</ele>
        <time>2021-08-24T12:50:10Z</time>
      </trkpt>
      <trkpt lat="45.37324" lon="5.84231">
        <ele>1008</ele>
        <time>2021-08-24T12:50:12Z</time>
      </trkpt>
      <trkpt lat="45.37324" lon="5.84232">
        <ele>1008</ele>
        <time>2021-08-24T12:50:13Z</time>
      </trkpt>
      <trkpt lat="45.37324" lon="5.84232">
        <ele>1008</ele>
        <time>2021-08-24T12:50:14Z</time>
      </trkpt>
      <trkpt lat="45.37324" lon="5.84232">
        <ele>1008</ele>
        <time>2021-08-24T12:50:16Z</time>
      </trkpt>
      <trkpt lat="45.37324" lon="5.84232">
        <ele>1008.1</ele>
        <time>2021-08-24T12:50:17Z</time>
      </trkpt>
      <trkpt lat="45.37324" lon="5.84232">
        <ele>1008.1</ele>
        <time>2021-08-24T12:50:18Z</time>
      </trkpt>
      <trkpt lat="45.37324" lon="5.84232">
        <ele>1008.1</ele>
        <time>2021-08-24T12:50:20Z</time>
      </trkpt>
      <trkpt lat="45.37324" lon="5.84232">
        <ele>1008.1</ele>
        <time>2021-08-24T12:50:21Z</time>
      </trkpt>
      <trkpt lat="45.37324" lon="5.84232">
        <ele>1008.1</ele>
        <time>2021-08-24T12:50:22Z</time>
      </trkpt>
      <trkpt lat="45.37324" lon="5.84232">
        <ele>1008.1</ele>
        <time>2021-08-24T12:50:23Z</time>
      </trkpt>
      <trkpt lat="45.37324" lon="5.84232">
        <ele>1008.1</ele>
        <time>2021-08-24T12:50:24Z</time>
      </trkpt>
      <trkpt lat="45.37324" lon="5.84232">
        <ele>1008.1</ele>
        <time>2021-08-24T12:50:26Z</time>
      </trkpt>
      <trkpt lat="45.37324" lon="5.84232">
        <ele>1008.1</ele>
        <time>2021-08-24T12:50:27Z</time>
      </trkpt>
      <trkpt lat="45.37324" lon="5.84232">
        <ele>1008.1</ele>
        <time>2021-08-24T12:50:28Z</time>
      </trkpt>
      <trkpt lat="45.37324" lon="5.84232">
        <ele>1008.1</ele>
        <time>2021-08-24T12:50:30Z</time>
      </trkpt>
      <trkpt lat="45.37324" lon="5.84232">
        <ele>1008.1</ele>
        <time>2021-08-24T12:50:31Z</time>
      </trkpt>
      <trkpt lat="45.37324" lon="5.84232">
        <ele>1008.1</ele>
        <time>2021-08-24T12:50:33Z</time>
      </trkpt>
      <trkpt lat="45.37324" lon="5.84233">
        <ele>1008.1</ele>
        <time>2021-08-24T12:50:34Z</time>
      </trkpt>
      <trkpt lat="45.37324" lon="5.84233">
        <ele>1008.1</ele>
        <time>2021-08-24T12:50:36Z</time>
      </trkpt>
      <trkpt lat="45.37324" lon="5.84233">
        <ele>1008.1</ele>
        <time>2021-08-24T12:50:37Z</time>
      </trkpt>
      <trkpt lat="45.37324" lon="5.84232">
        <ele>1008.1</ele>
        <time>2021-08-24T12:50:38Z</time>
      </trkpt>
      <trkpt lat="45.37323" lon="5.84232">
        <ele>1008.2</ele>
        <time>2021-08-24T12:50:39Z</time>
      </trkpt>
      <trkpt lat="45.37321" lon="5.84232">
        <ele>1008.4</ele>
        <time>2021-08-24T12:50:41Z</time>
      </trkpt>
      <trkpt lat="45.37319" lon="5.84231">
        <ele>1008.6</ele>
        <time>2021-08-24T12:50:43Z</time>
      </trkpt>
      <trkpt lat="45.37318" lon="5.84231">
        <ele>1008.7</ele>
        <time>2021-08-24T12:50:44Z</time>
      </trkpt>
      <trkpt lat="45.37317" lon="5.84231">
        <ele>1008.8</ele>
        <time>2021-08-24T12:50:46Z</time>
      </trkpt>
      <trkpt lat="45.37316" lon="5.84231">
        <ele>1008.8</ele>
        <time>2021-08-24T12:50:47Z</time>
      </trkpt>
      <trkpt lat="45.37315" lon="5.84231">
        <ele>1008.9</ele>
        <time>2021-08-24T12:50:49Z</time>
      </trkpt>
      <trkpt lat="45.37315" lon="5.84231">
        <ele>1008.9</ele>
        <time>2021-08-24T12:50:50Z</time>
      </trkpt>
      <trkpt lat="45.37315" lon="5.84231">
        <ele>1008.9</ele>
        <time>2021-08-24T12:50:52Z</time>
      </trkpt>
      <trkpt lat="45.37314" lon="5.8423">
        <ele>1009</ele>
        <time>2021-08-24T12:50:53Z</time>
      </trkpt>
      <trkpt lat="45.37313" lon="5.84229">
        <ele>1009.1</ele>
        <time>2021-08-24T12:50:54Z</time>
      </trkpt>
      <trkpt lat="45.37312" lon="5.84229">
        <ele>1009.2</ele>
        <time>2021-08-24T12:50:55Z</time>
      </trkpt>
      <trkpt lat="45.37311" lon="5.84227">
        <ele>1009.3</ele>
        <time>2021-08-24T12:50:56Z</time>
      </trkpt>
      <trkpt lat="45.37309" lon="5.84225">
        <ele>1009.5</ele>
        <time>2021-08-24T12:50:58Z</time>
      </trkpt>
      <trkpt lat="45.37308" lon="5.84224">
        <ele>1009.6</ele>
        <time>2021-08-24T12:50:59Z</time>
      </trkpt>
      <trkpt lat="45.37306" lon="5.84222">
        <ele>1009.9</ele>
        <time>2021-08-24T12:51:01Z</time>
      </trkpt>
      <trkpt lat="45.37306" lon="5.84222">
        <ele>1010.1</ele>
        <time>2021-08-24T12:51:02Z</time>
      </trkpt>
      <trkpt lat="45.37305" lon="5.84221">
        <ele>1010.2</ele>
        <time>2021-08-24T12:51:03Z</time>
      </trkpt>
      <trkpt lat="45.37304" lon="5.84221">
        <ele>1010.3</ele>
        <time>2021-08-24T12:51:04Z</time>
      </trkpt>
      <trkpt lat="45.37302" lon="5.84219">
        <ele>1010.7</ele>
        <time>2021-08-24T12:51:06Z</time>
      </trkpt>
      <trkpt lat="45.37301" lon="5.84218">
        <ele>1011</ele>
        <time>2021-08-24T12:51:07Z</time>
      </trkpt>
      <trkpt lat="45.373" lon="5.84217">
        <ele>1011.3</ele>
        <time>2021-08-24T12:51:08Z</time>
      </trkpt>
      <trkpt lat="45.37297" lon="5.84213">
        <ele>1012</ele>
        <time>2021-08-24T12:51:10Z</time>
      </trkpt>
      <trkpt lat="45.37296" lon="5.84211">
        <ele>1012.3</ele>
        <time>2021-08-24T12:51:11Z</time>
      </trkpt>
      <trkpt lat="45.37294" lon="5.84209">
        <ele>1012.8</ele>
        <time>2021-08-24T12:51:13Z</time>
      </trkpt>
      <trkpt lat="45.37293" lon="5.84208">
        <ele>1013</ele>
        <time>2021-08-24T12:51:14Z</time>
      </trkpt>
      <trkpt lat="45.37292" lon="5.84207">
        <ele>1013.2</ele>
        <time>2021-08-24T12:51:15Z</time>
      </trkpt>
      <trkpt lat="45.37292" lon="5.84206">
        <ele>1013.4</ele>
        <time>2021-08-24T12:51:17Z</time>
      </trkpt>
      <trkpt lat="45.37292" lon="5.84206">
        <ele>1013.4</ele>
        <time>2021-08-24T12:51:18Z</time>
      </trkpt>
      <trkpt lat="45.37292" lon="5.84205">
        <ele>1013.5</ele>
        <time>2021-08-24T12:51:19Z</time>
      </trkpt>
      <trkpt lat="45.37291" lon="5.84204">
        <ele>1013.8</ele>
        <time>2021-08-24T12:51:20Z</time>
      </trkpt>
      <trkpt lat="45.37288" lon="5.84201">
        <ele>1014.4</ele>
        <time>2021-08-24T12:51:22Z</time>
      </trkpt>
      <trkpt lat="45.37286" lon="5.84199">
        <ele>1015</ele>
        <time>2021-08-24T12:51:23Z</time>
      </trkpt>
      <trkpt lat="45.37284" lon="5.84198">
        <ele>1015.5</ele>
        <time>2021-08-24T12:51:25Z</time>
      </trkpt>
      <trkpt lat="45.37283" lon="5.84197">
        <ele>1015.8</ele>
        <time>2021-08-24T12:51:26Z</time>
      </trkpt>
      <trkpt lat="45.37282" lon="5.84197">
        <ele>1015.9</ele>
        <time>2021-08-24T12:51:27Z</time>
      </trkpt>
      <trkpt lat="45.37282" lon="5.84197">
        <ele>1016</ele>
        <time>2021-08-24T12:51:29Z</time>
      </trkpt>
      <trkpt lat="45.37281" lon="5.84196">
        <ele>1016.1</ele>
        <time>2021-08-24T12:51:30Z</time>
      </trkpt>
      <trkpt lat="45.37281" lon="5.84196">
        <ele>1016.3</ele>
        <time>2021-08-24T12:51:32Z</time>
      </trkpt>
      <trkpt lat="45.3728" lon="5.84196">
        <ele>1016.4</ele>
        <time>2021-08-24T12:51:33Z</time>
      </trkpt>
      <trkpt lat="45.3728" lon="5.84196">
        <ele>1016.5</ele>
        <time>2021-08-24T12:51:35Z</time>
      </trkpt>
      <trkpt lat="45.37279" lon="5.84196">
        <ele>1016.6</ele>
        <time>2021-08-24T12:51:37Z</time>
      </trkpt>
      <trkpt lat="45.37279" lon="5.84195">
        <ele>1016.7</ele>
        <time>2021-08-24T12:51:38Z</time>
      </trkpt>
      <trkpt lat="45.37278" lon="5.84195">
        <ele>1016.9</ele>
        <time>2021-08-24T12:51:40Z</time>
      </trkpt>
      <trkpt lat="45.37278" lon="5.84195">
        <ele>1017</ele>
        <time>2021-08-24T12:51:41Z</time>
      </trkpt>
      <trkpt lat="45.37275" lon="5.84195">
        <ele>1017.5</ele>
        <time>2021-08-24T12:51:42Z</time>
      </trkpt>
      <trkpt lat="45.37273" lon="5.84195">
        <ele>1017.9</ele>
        <time>2021-08-24T12:51:44Z</time>
      </trkpt>
      <trkpt lat="45.37272" lon="5.84194">
        <ele>1018.1</ele>
        <time>2021-08-24T12:51:45Z</time>
      </trkpt>
      <trkpt lat="45.37272" lon="5.84194">
        <ele>1018.2</ele>
        <time>2021-08-24T12:51:46Z</time>
      </trkpt>
      <trkpt lat="45.37271" lon="5.84194">
        <ele>1018.3</ele>
        <time>2021-08-24T12:51:47Z</time>
      </trkpt>
      <trkpt lat="45.37271" lon="5.84194">
        <ele>1018.4</ele>
        <time>2021-08-24T12:51:48Z</time>
      </trkpt>
      <trkpt lat="45.3727" lon="5.84193">
        <ele>1018.5</ele>
        <time>2021-08-24T12:51:50Z</time>
      </trkpt>
      <trkpt lat="45.3727" lon="5.84193">
        <ele>1018.6</ele>
        <time>2021-08-24T12:51:52Z</time>
      </trkpt>
      <trkpt lat="45.37269" lon="5.84193">
        <ele>1018.9</ele>
        <time>2021-08-24T12:51:53Z</time>
      </trkpt>
      <trkpt lat="45.37267" lon="5.84194">
        <ele>1019.3</ele>
        <time>2021-08-24T12:51:55Z</time>
      </trkpt>
      <trkpt lat="45.37265" lon="5.84194">
        <ele>1019.7</ele>
        <time>2021-08-24T12:51:56Z</time>
      </trkpt>
      <trkpt lat="45.37263" lon="5.84194">
        <ele>1020</ele>
        <time>2021-08-24T12:51:58Z</time>
      </trkpt>
      <trkpt lat="45.37262" lon="5.84193">
        <ele>1020.2</ele>
        <time>2021-08-24T12:51:59Z</time>
      </trkpt>
      <trkpt lat="45.37261" lon="5.84193">
        <ele>1020.4</ele>
        <time>2021-08-24T12:52:00Z</time>
      </trkpt>
      <trkpt lat="45.3726" lon="5.84193">
        <ele>1020.7</ele>
        <time>2021-08-24T12:52:03Z</time>
      </trkpt>
      <trkpt lat="45.37259" lon="5.84193">
        <ele>1020.8</ele>
        <time>2021-08-24T12:52:04Z</time>
      </trkpt>
      <trkpt lat="45.37259" lon="5.84193">
        <ele>1020.8</ele>
        <time>2021-08-24T12:52:05Z</time>
      </trkpt>
      <trkpt lat="45.37259" lon="5.84193">
        <ele>1020.9</ele>
        <time>2021-08-24T12:52:06Z</time>
      </trkpt>
      <trkpt lat="45.37258" lon="5.84193">
        <ele>1021</ele>
        <time>2021-08-24T12:52:08Z</time>
      </trkpt>
      <trkpt lat="45.37258" lon="5.84193">
        <ele>1021</ele>
        <time>2021-08-24T12:52:09Z</time>
      </trkpt>
      <trkpt lat="45.37258" lon="5.84193">
        <ele>1021.1</ele>
        <time>2021-08-24T12:52:11Z</time>
      </trkpt>
      <trkpt lat="45.37258" lon="5.84193">
        <ele>1021.1</ele>
        <time>2021-08-24T12:52:12Z</time>
      </trkpt>
      <trkpt lat="45.37257" lon="5.84193">
        <ele>1021.1</ele>
        <time>2021-08-24T12:52:14Z</time>
      </trkpt>
      <trkpt lat="45.37257" lon="5.84193">
        <ele>1021.2</ele>
        <time>2021-08-24T12:52:15Z</time>
      </trkpt>
      <trkpt lat="45.37257" lon="5.84193">
        <ele>1021.2</ele>
        <time>2021-08-24T12:52:17Z</time>
      </trkpt>
      <trkpt lat="45.37258" lon="5.84193">
        <ele>1021.2</ele>
        <time>2021-08-24T12:52:18Z</time>
      </trkpt>
      <trkpt lat="45.37258" lon="5.84192">
        <ele>1021.2</ele>
        <time>2021-08-24T12:52:20Z</time>
      </trkpt>
      <trkpt lat="45.37258" lon="5.84192">
        <ele>1021.3</ele>
        <time>2021-08-24T12:52:21Z</time>
      </trkpt>
      <trkpt lat="45.37258" lon="5.84192">
        <ele>1021.3</ele>
        <time>2021-08-24T12:52:23Z</time>
      </trkpt>
      <trkpt lat="45.37258" lon="5.84192">
        <ele>1021.3</ele>
        <time>2021-08-24T12:52:24Z</time>
      </trkpt>
      <trkpt lat="45.37258" lon="5.84192">
        <ele>1021.3</ele>
        <time>2021-08-24T12:52:26Z</time>
      </trkpt>
      <trkpt lat="45.37258" lon="5.84192">
        <ele>1021.4</ele>
        <time>2021-08-24T12:52:27Z</time>
      </trkpt>
      <trkpt lat="45.37258" lon="5.84192">
        <ele>1021.4</ele>
        <time>2021-08-24T12:52:28Z</time>
      </trkpt>
      <trkpt lat="45.37257" lon="5.84192">
        <ele>1021.4</ele>
        <time>2021-08-24T12:52:30Z</time>
      </trkpt>
      <trkpt lat="45.37257" lon="5.84192">
        <ele>1021.4</ele>
        <time>2021-08-24T12:52:31Z</time>
      </trkpt>
      <trkpt lat="45.37257" lon="5.84192">
        <ele>1021.4</ele>
        <time>2021-08-24T12:52:33Z</time>
      </trkpt>
      <trkpt lat="45.37257" lon="5.84192">
        <ele>1021.4</ele>
        <time>2021-08-24T12:52:34Z</time>
      </trkpt>
      <trkpt lat="45.37257" lon="5.84192">
        <ele>1021.5</ele>
        <time>2021-08-24T12:52:35Z</time>
      </trkpt>
      <trkpt lat="45.37257" lon="5.84192">
        <ele>1021.5</ele>
        <time>2021-08-24T12:52:37Z</time>
      </trkpt>
      <trkpt lat="45.37256" lon="5.84191">
        <ele>1021.7</ele>
        <time>2021-08-24T12:52:38Z</time>
      </trkpt>
      <trkpt lat="45.37255" lon="5.8419">
        <ele>1021.9</ele>
        <time>2021-08-24T12:52:39Z</time>
      </trkpt>
      <trkpt lat="45.37254" lon="5.84189">
        <ele>1022.2</ele>
        <time>2021-08-24T12:52:40Z</time>
      </trkpt>
      <trkpt lat="45.37253" lon="5.84187">
        <ele>1022.5</ele>
        <time>2021-08-24T12:52:42Z</time>
      </trkpt>
      <trkpt lat="45.37252" lon="5.84186">
        <ele>1022.7</ele>
        <time>2021-08-24T12:52:43Z</time>
      </trkpt>
      <trkpt lat="45.37251" lon="5.84185">
        <ele>1022.8</ele>
        <time>2021-08-24T12:52:44Z</time>
      </trkpt>
      <trkpt lat="45.37251" lon="5.84185">
        <ele>1023</ele>
        <time>2021-08-24T12:52:45Z</time>
      </trkpt>
      <trkpt lat="45.3725" lon="5.84184">
        <ele>1023.1</ele>
        <time>2021-08-24T12:52:47Z</time>
      </trkpt>
      <trkpt lat="45.3725" lon="5.84184">
        <ele>1023.2</ele>
        <time>2021-08-24T12:52:48Z</time>
      </trkpt>
      <trkpt lat="45.37249" lon="5.84183">
        <ele>1023.3</ele>
        <time>2021-08-24T12:52:49Z</time>
      </trkpt>
      <trkpt lat="45.37249" lon="5.84183">
        <ele>1023.3</ele>
        <time>2021-08-24T12:52:50Z</time>
      </trkpt>
      <trkpt lat="45.37247" lon="5.84182">
        <ele>1023.7</ele>
        <time>2021-08-24T12:52:51Z</time>
      </trkpt>
      <trkpt lat="45.37245" lon="5.8418">
        <ele>1024</ele>
        <time>2021-08-24T12:52:53Z</time>
      </trkpt>
      <trkpt lat="45.37244" lon="5.84179">
        <ele>1024.3</ele>
        <time>2021-08-24T12:52:54Z</time>
      </trkpt>
      <trkpt lat="45.37242" lon="5.84178">
        <ele>1024.5</ele>
        <time>2021-08-24T12:52:55Z</time>
      </trkpt>
      <trkpt lat="45.37241" lon="5.84177">
        <ele>1024.8</ele>
        <time>2021-08-24T12:52:57Z</time>
      </trkpt>
      <trkpt lat="45.3724" lon="5.84177">
        <ele>1025</ele>
        <time>2021-08-24T12:52:58Z</time>
      </trkpt>
      <trkpt lat="45.37239" lon="5.84176">
        <ele>1025.2</ele>
        <time>2021-08-24T12:53:00Z</time>
      </trkpt>
      <trkpt lat="45.37238" lon="5.84175">
        <ele>1025.3</ele>
        <time>2021-08-24T12:53:02Z</time>
      </trkpt>
      <trkpt lat="45.37237" lon="5.84174">
        <ele>1025.5</ele>
        <time>2021-08-24T12:53:03Z</time>
      </trkpt>
      <trkpt lat="45.37235" lon="5.84172">
        <ele>1025.9</ele>
        <time>2021-08-24T12:53:04Z</time>
      </trkpt>
      <trkpt lat="45.37233" lon="5.84169">
        <ele>1026.3</ele>
        <time>2021-08-24T12:53:06Z</time>
      </trkpt>
      <trkpt lat="45.37233" lon="5.84168">
        <ele>1026.5</ele>
        <time>2021-08-24T12:53:07Z</time>
      </trkpt>
      <trkpt lat="45.37232" lon="5.84167">
        <ele>1026.7</ele>
        <time>2021-08-24T12:53:08Z</time>
      </trkpt>
      <trkpt lat="45.37231" lon="5.84165">
        <ele>1027</ele>
        <time>2021-08-24T12:53:10Z</time>
      </trkpt>
      <trkpt lat="45.37231" lon="5.84164">
        <ele>1027.1</ele>
        <time>2021-08-24T12:53:11Z</time>
      </trkpt>
      <trkpt lat="45.3723" lon="5.84164">
        <ele>1027.2</ele>
        <time>2021-08-24T12:53:12Z</time>
      </trkpt>
      <trkpt lat="45.37228" lon="5.84161">
        <ele>1027.7</ele>
        <time>2021-08-24T12:53:14Z</time>
      </trkpt>
      <trkpt lat="45.37224" lon="5.84159">
        <ele>1028.5</ele>
        <time>2021-08-24T12:53:17Z</time>
      </trkpt>
      <trkpt lat="45.37222" lon="5.84158">
        <ele>1028.9</ele>
        <time>2021-08-24T12:53:19Z</time>
      </trkpt>
      <trkpt lat="45.37222" lon="5.84156">
        <ele>1029.1</ele>
        <time>2021-08-24T12:53:21Z</time>
      </trkpt>
      <trkpt lat="45.37221" lon="5.84156">
        <ele>1029.2</ele>
        <time>2021-08-24T12:53:22Z</time>
      </trkpt>
      <trkpt lat="45.37221" lon="5.84155">
        <ele>1029.3</ele>
        <time>2021-08-24T12:53:23Z</time>
      </trkpt>
      <trkpt lat="45.37221" lon="5.84155">
        <ele>1029.4</ele>
        <time>2021-08-24T12:53:24Z</time>
      </trkpt>
      <trkpt lat="45.3722" lon="5.84154">
        <ele>1029.5</ele>
        <time>2021-08-24T12:53:25Z</time>
      </trkpt>
      <trkpt lat="45.3722" lon="5.84154">
        <ele>1029.6</ele>
        <time>2021-08-24T12:53:26Z</time>
      </trkpt>
      <trkpt lat="45.37219" lon="5.84152">
        <ele>1029.8</ele>
        <time>2021-08-24T12:53:28Z</time>
      </trkpt>
      <trkpt lat="45.37218" lon="5.84148">
        <ele>1030.5</ele>
        <time>2021-08-24T12:53:29Z</time>
      </trkpt>
      <trkpt lat="45.37218" lon="5.84147">
        <ele>1030.7</ele>
        <time>2021-08-24T12:53:30Z</time>
      </trkpt>
      <trkpt lat="45.37217" lon="5.84145">
        <ele>1031</ele>
        <time>2021-08-24T12:53:31Z</time>
      </trkpt>
      <trkpt lat="45.37216" lon="5.84142">
        <ele>1031.5</ele>
        <time>2021-08-24T12:53:33Z</time>
      </trkpt>
      <trkpt lat="45.37216" lon="5.8414">
        <ele>1031.7</ele>
        <time>2021-08-24T12:53:34Z</time>
      </trkpt>
      <trkpt lat="45.37216" lon="5.84138">
        <ele>1032</ele>
        <time>2021-08-24T12:53:35Z</time>
      </trkpt>
      <trkpt lat="45.37215" lon="5.84137">
        <ele>1032.2</ele>
        <time>2021-08-24T12:53:36Z</time>
      </trkpt>
      <trkpt lat="45.37215" lon="5.84135">
        <ele>1032.5</ele>
        <time>2021-08-24T12:53:38Z</time>
      </trkpt>
      <trkpt lat="45.37215" lon="5.84134">
        <ele>1032.6</ele>
        <time>2021-08-24T12:53:39Z</time>
      </trkpt>
      <trkpt lat="45.37215" lon="5.84134">
        <ele>1032.7</ele>
        <time>2021-08-24T12:53:40Z</time>
      </trkpt>
      <trkpt lat="45.37215" lon="5.84133">
        <ele>1032.8</ele>
        <time>2021-08-24T12:53:41Z</time>
      </trkpt>
      <trkpt lat="45.37214" lon="5.84129">
        <ele>1033.4</ele>
        <time>2021-08-24T12:53:43Z</time>
      </trkpt>
      <trkpt lat="45.37213" lon="5.84125">
        <ele>1034</ele>
        <time>2021-08-24T12:53:44Z</time>
      </trkpt>
      <trkpt lat="45.37212" lon="5.84124">
        <ele>1034.3</ele>
        <time>2021-08-24T12:53:45Z</time>
      </trkpt>
      <trkpt lat="45.3721" lon="5.8412">
        <ele>1035</ele>
        <time>2021-08-24T12:53:47Z</time>
      </trkpt>
      <trkpt lat="45.3721" lon="5.84119">
        <ele>1035.1</ele>
        <time>2021-08-24T12:53:48Z</time>
      </trkpt>
      <trkpt lat="45.37209" lon="5.84119">
        <ele>1035.2</ele>
        <time>2021-08-24T12:53:49Z</time>
      </trkpt>
      <trkpt lat="45.37209" lon="5.84118">
        <ele>1035.3</ele>
        <time>2021-08-24T12:53:51Z</time>
      </trkpt>
      <trkpt lat="45.37209" lon="5.84118">
        <ele>1035.4</ele>
        <time>2021-08-24T12:53:52Z</time>
      </trkpt>
      <trkpt lat="45.37209" lon="5.84117">
        <ele>1035.5</ele>
        <time>2021-08-24T12:53:53Z</time>
      </trkpt>
      <trkpt lat="45.37209" lon="5.84117">
        <ele>1035.5</ele>
        <time>2021-08-24T12:53:54Z</time>
      </trkpt>
      <trkpt lat="45.37207" lon="5.84115">
        <ele>1036.1</ele>
        <time>2021-08-24T12:53:56Z</time>
      </trkpt>
      <trkpt lat="45.37204" lon="5.84113">
        <ele>1036.9</ele>
        <time>2021-08-24T12:53:58Z</time>
      </trkpt>
      <trkpt lat="45.37202" lon="5.84111">
        <ele>1037.3</ele>
        <time>2021-08-24T12:53:59Z</time>
      </trkpt>
      <trkpt lat="45.37202" lon="5.8411">
        <ele>1037.6</ele>
        <time>2021-08-24T12:54:00Z</time>
      </trkpt>
      <trkpt lat="45.372" lon="5.84109">
        <ele>1038.1</ele>
        <time>2021-08-24T12:54:02Z</time>
      </trkpt>
      <trkpt lat="45.37199" lon="5.84108">
        <ele>1038.4</ele>
        <time>2021-08-24T12:54:03Z</time>
      </trkpt>
      <trkpt lat="45.37196" lon="5.84106">
        <ele>1039</ele>
        <time>2021-08-24T12:54:05Z</time>
      </trkpt>
      <trkpt lat="45.37193" lon="5.84104">
        <ele>1039.9</ele>
        <time>2021-08-24T12:54:06Z</time>
      </trkpt>
      <trkpt lat="45.37189" lon="5.84102">
        <ele>1040.7</ele>
        <time>2021-08-24T12:54:08Z</time>
      </trkpt>
      <trkpt lat="45.37188" lon="5.84101">
        <ele>1041.1</ele>
        <time>2021-08-24T12:54:09Z</time>
      </trkpt>
      <trkpt lat="45.37186" lon="5.84101">
        <ele>1041.4</ele>
        <time>2021-08-24T12:54:10Z</time>
      </trkpt>
      <trkpt lat="45.37183" lon="5.841">
        <ele>1042</ele>
        <time>2021-08-24T12:54:12Z</time>
      </trkpt>
      <trkpt lat="45.37182" lon="5.841">
        <ele>1042.1</ele>
        <time>2021-08-24T12:54:13Z</time>
      </trkpt>
      <trkpt lat="45.3718" lon="5.841">
        <ele>1042.5</ele>
        <time>2021-08-24T12:54:15Z</time>
      </trkpt>
      <trkpt lat="45.3718" lon="5.841">
        <ele>1042.6</ele>
        <time>2021-08-24T12:54:16Z</time>
      </trkpt>
      <trkpt lat="45.37179" lon="5.841">
        <ele>1042.8</ele>
        <time>2021-08-24T12:54:18Z</time>
      </trkpt>
      <trkpt lat="45.37178" lon="5.841">
        <ele>1042.9</ele>
        <time>2021-08-24T12:54:19Z</time>
      </trkpt>
      <trkpt lat="45.37178" lon="5.841">
        <ele>1042.9</ele>
        <time>2021-08-24T12:54:20Z</time>
      </trkpt>
      <trkpt lat="45.37178" lon="5.84099">
        <ele>1043</ele>
        <time>2021-08-24T12:54:22Z</time>
      </trkpt>
      <trkpt lat="45.37178" lon="5.84099">
        <ele>1043</ele>
        <time>2021-08-24T12:54:23Z</time>
      </trkpt>
      <trkpt lat="45.37177" lon="5.84099">
        <ele>1043</ele>
        <time>2021-08-24T12:54:24Z</time>
      </trkpt>
      <trkpt lat="45.37177" lon="5.84099">
        <ele>1043.1</ele>
        <time>2021-08-24T12:54:26Z</time>
      </trkpt>
      <trkpt lat="45.37177" lon="5.84099">
        <ele>1043.1</ele>
        <time>2021-08-24T12:54:27Z</time>
      </trkpt>
      <trkpt lat="45.37177" lon="5.84099">
        <ele>1043.1</ele>
        <time>2021-08-24T12:54:28Z</time>
      </trkpt>
      <trkpt lat="45.37177" lon="5.84099">
        <ele>1043.1</ele>
        <time>2021-08-24T12:54:29Z</time>
      </trkpt>
      <trkpt lat="45.37177" lon="5.84099">
        <ele>1043.1</ele>
        <time>2021-08-24T12:54:31Z</time>
      </trkpt>
      <trkpt lat="45.37177" lon="5.84099">
        <ele>1043.1</ele>
        <time>2021-08-24T12:54:32Z</time>
      </trkpt>
      <trkpt lat="45.37176" lon="5.84097">
        <ele>1043.4</ele>
        <time>2021-08-24T12:54:34Z</time>
      </trkpt>
      <trkpt lat="45.37174" lon="5.84095">
        <ele>1043.7</ele>
        <time>2021-08-24T12:54:35Z</time>
      </trkpt>
      <trkpt lat="45.37173" lon="5.84094">
        <ele>1043.9</ele>
        <time>2021-08-24T12:54:36Z</time>
      </trkpt>
      <trkpt lat="45.37172" lon="5.84091">
        <ele>1044.2</ele>
        <time>2021-08-24T12:54:38Z</time>
      </trkpt>
      <trkpt lat="45.37171" lon="5.8409">
        <ele>1044.4</ele>
        <time>2021-08-24T12:54:39Z</time>
      </trkpt>
      <trkpt lat="45.37171" lon="5.8409">
        <ele>1044.5</ele>
        <time>2021-08-24T12:54:41Z</time>
      </trkpt>
      <trkpt lat="45.3717" lon="5.84088">
        <ele>1044.7</ele>
        <time>2021-08-24T12:54:42Z</time>
      </trkpt>
      <trkpt lat="45.37168" lon="5.84085">
        <ele>1045.1</ele>
        <time>2021-08-24T12:54:44Z</time>
      </trkpt>
      <trkpt lat="45.37166" lon="5.84081">
        <ele>1045.4</ele>
        <time>2021-08-24T12:54:45Z</time>
      </trkpt>
      <trkpt lat="45.37166" lon="5.84079">
        <ele>1045.6</ele>
        <time>2021-08-24T12:54:46Z</time>
      </trkpt>
      <trkpt lat="45.37165" lon="5.84076">
        <ele>1045.8</ele>
        <time>2021-08-24T12:54:47Z</time>
      </trkpt>
      <trkpt lat="45.37163" lon="5.84072">
        <ele>1046.2</ele>
        <time>2021-08-24T12:54:49Z</time>
      </trkpt>
      <trkpt lat="45.37161" lon="5.84067">
        <ele>1046.6</ele>
        <time>2021-08-24T12:54:50Z</time>
      </trkpt>
      <trkpt lat="45.37161" lon="5.84066">
        <ele>1046.7</ele>
        <time>2021-08-24T12:54:51Z</time>
      </trkpt>
      <trkpt lat="45.3716" lon="5.84065">
        <ele>1046.9</ele>
        <time>2021-08-24T12:54:52Z</time>
      </trkpt>
      <trkpt lat="45.37158" lon="5.84064">
        <ele>1047</ele>
        <time>2021-08-24T12:54:54Z</time>
      </trkpt>
      <trkpt lat="45.37157" lon="5.84063">
        <ele>1047.1</ele>
        <time>2021-08-24T12:54:56Z</time>
      </trkpt>
      <trkpt lat="45.37157" lon="5.84063">
        <ele>1047.2</ele>
        <time>2021-08-24T12:54:57Z</time>
      </trkpt>
      <trkpt lat="45.37157" lon="5.84062">
        <ele>1047.2</ele>
        <time>2021-08-24T12:54:58Z</time>
      </trkpt>
      <trkpt lat="45.37157" lon="5.84062">
        <ele>1047.3</ele>
        <time>2021-08-24T12:54:59Z</time>
      </trkpt>
      <trkpt lat="45.37156" lon="5.84062">
        <ele>1047.3</ele>
        <time>2021-08-24T12:55:00Z</time>
      </trkpt>
      <trkpt lat="45.37156" lon="5.84062">
        <ele>1047.3</ele>
        <time>2021-08-24T12:55:02Z</time>
      </trkpt>
      <trkpt lat="45.36947" lon="5.83782">
        <ele>1095.3</ele>
        <time>2021-08-24T13:01:43Z</time>
      </trkpt>
      <trkpt lat="45.36944" lon="5.83781">
        <ele>1095.6</ele>
        <time>2021-08-24T13:01:44Z</time>
      </trkpt>
      <trkpt lat="45.36942" lon="5.83781">
        <ele>1095.7</ele>
        <time>2021-08-24T13:01:45Z</time>
      </trkpt>
      <trkpt lat="45.3694" lon="5.83781">
        <ele>1096</ele>
        <time>2021-08-24T13:01:46Z</time>
      </trkpt>
      <trkpt lat="45.36939" lon="5.83781">
        <ele>1096.1</ele>
        <time>2021-08-24T13:01:47Z</time>
      </trkpt>
      <trkpt lat="45.36935" lon="5.83782">
        <ele>1096.4</ele>
        <time>2021-08-24T13:01:49Z</time>
      </trkpt>
      <trkpt lat="45.36934" lon="5.83784">
        <ele>1096.5</ele>
        <time>2021-08-24T13:01:50Z</time>
      </trkpt>
      <trkpt lat="45.36933" lon="5.83783">
        <ele>1096.6</ele>
        <time>2021-08-24T13:01:52Z</time>
      </trkpt>
      <trkpt lat="45.36932" lon="5.83783">
        <ele>1096.7</ele>
        <time>2021-08-24T13:01:53Z</time>
      </trkpt>
      <trkpt lat="45.36932" lon="5.83783">
        <ele>1096.7</ele>
        <time>2021-08-24T13:01:54Z</time>
      </trkpt>
      <trkpt lat="45.36932" lon="5.83783">
        <ele>1096.7</ele>
        <time>2021-08-24T13:01:56Z</time>
      </trkpt>
      <trkpt lat="45.36932" lon="5.83783">
        <ele>1096.7</ele>
        <time>2021-08-24T13:01:57Z</time>
      </trkpt>
      <trkpt lat="45.36932" lon="5.83783">
        <ele>1096.7</ele>
        <time>2021-08-24T13:01:58Z</time>
      </trkpt>
      <trkpt lat="45.36932" lon="5.83783">
        <ele>1096.7</ele>
        <time>2021-08-24T13:01:59Z</time>
      </trkpt>
      <trkpt lat="45.36937" lon="5.83778">
        <ele>1097.3</ele>
        <time>2021-08-24T13:02:14Z</time>
      </trkpt>
      <trkpt lat="45.36939" lon="5.83777">
        <ele>1097.4</ele>
        <time>2021-08-24T13:02:16Z</time>
      </trkpt>
      <trkpt lat="45.3694" lon="5.83778">
        <ele>1097.5</ele>
        <time>2021-08-24T13:02:18Z</time>
      </trkpt>
      <trkpt lat="45.36941" lon="5.83778">
        <ele>1097.6</ele>
        <time>2021-08-24T13:02:19Z</time>
      </trkpt>
      <trkpt lat="45.36941" lon="5.83779">
        <ele>1097.6</ele>
        <time>2021-08-24T13:02:20Z</time>
      </trkpt>
      <trkpt lat="45.36941" lon="5.83779">
        <ele>1097.7</ele>
        <time>2021-08-24T13:02:22Z</time>
      </trkpt>
      <trkpt lat="45.36942" lon="5.83779">
        <ele>1097.7</ele>
        <time>2021-08-24T13:02:23Z</time>
      </trkpt>
      <trkpt lat="45.36942" lon="5.8378">
        <ele>1097.7</ele>
        <time>2021-08-24T13:02:24Z</time>
      </trkpt>
      <trkpt lat="45.36942" lon="5.8378">
        <ele>1097.8</ele>
        <time>2021-08-24T13:02:25Z</time>
      </trkpt>
      <trkpt lat="45.36943" lon="5.83779">
        <ele>1097.8</ele>
        <time>2021-08-24T13:02:26Z</time>
      </trkpt>
      <trkpt lat="45.36948" lon="5.83775">
        <ele>1098.3</ele>
        <time>2021-08-24T13:02:30Z</time>
      </trkpt>
      <trkpt lat="45.36953" lon="5.83774">
        <ele>1098.7</ele>
        <time>2021-08-24T13:02:32Z</time>
      </trkpt>
      <trkpt lat="45.36958" lon="5.83772">
        <ele>1099.1</ele>
        <time>2021-08-24T13:02:33Z</time>
      </trkpt>
      <trkpt lat="45.36962" lon="5.8377">
        <ele>1099.4</ele>
        <time>2021-08-24T13:02:34Z</time>
      </trkpt>
      <trkpt lat="45.36965" lon="5.83767">
        <ele>1099.7</ele>
        <time>2021-08-24T13:02:35Z</time>
      </trkpt>
      <trkpt lat="45.36967" lon="5.8376">
        <ele>1100.1</ele>
        <time>2021-08-24T13:02:36Z</time>
      </trkpt>
      <trkpt lat="45.36967" lon="5.83753">
        <ele>1100.5</ele>
        <time>2021-08-24T13:02:38Z</time>
      </trkpt>
      <trkpt lat="45.36967" lon="5.83749">
        <ele>1100.8</ele>
        <time>2021-08-24T13:02:39Z</time>
      </trkpt>
      <trkpt lat="45.36966" lon="5.83745">
        <ele>1101</ele>
        <time>2021-08-24T13:02:40Z</time>
      </trkpt>
      <trkpt lat="45.36965" lon="5.83741">
        <ele>1101.3</ele>
        <time>2021-08-24T13:02:42Z</time>
      </trkpt>
      <trkpt lat="45.36965" lon="5.8374">
        <ele>1101.3</ele>
        <time>2021-08-24T13:02:43Z</time>
      </trkpt>
      <trkpt lat="45.36965" lon="5.83739">
        <ele>1101.3</ele>
        <time>2021-08-24T13:02:44Z</time>
      </trkpt>
      <trkpt lat="45.36965" lon="5.83739">
        <ele>1101.4</ele>
        <time>2021-08-24T13:02:45Z</time>
      </trkpt>
      <trkpt lat="45.36965" lon="5.83739">
        <ele>1101.4</ele>
        <time>2021-08-24T13:02:46Z</time>
      </trkpt>
      <trkpt lat="45.36965" lon="5.83739">
        <ele>1101.4</ele>
        <time>2021-08-24T13:02:47Z</time>
      </trkpt>
      <trkpt lat="45.36965" lon="5.83738">
        <ele>1101.4</ele>
        <time>2021-08-24T13:02:49Z</time>
      </trkpt>
      <trkpt lat="45.36965" lon="5.83738">
        <ele>1101.4</ele>
        <time>2021-08-24T13:02:51Z</time>
      </trkpt>
      <trkpt lat="45.36801" lon="5.8358">
        <ele>1111</ele>
        <time>2021-08-24T13:07:56Z</time>
      </trkpt>
      <trkpt lat="45.368" lon="5.83575">
        <ele>1111</ele>
        <time>2021-08-24T13:07:57Z</time>
      </trkpt>
      <trkpt lat="45.368" lon="5.83574">
        <ele>1111</ele>
        <time>2021-08-24T13:07:58Z</time>
      </trkpt>
      <trkpt lat="45.36798" lon="5.83569">
        <ele>1111</ele>
        <time>2021-08-24T13:07:59Z</time>
      </trkpt>
      <trkpt lat="45.36798" lon="5.83568">
        <ele>1111</ele>
        <time>2021-08-24T13:08:00Z</time>
      </trkpt>
      <trkpt lat="45.36796" lon="5.83562">
        <ele>1110.9</ele>
        <time>2021-08-24T13:08:02Z</time>
      </trkpt>
      <trkpt lat="45.36796" lon="5.8356">
        <ele>1110.9</ele>
        <time>2021-08-24T13:08:03Z</time>
      </trkpt>
      <trkpt lat="45.36795" lon="5.83558">
        <ele>1110.8</ele>
        <time>2021-08-24T13:08:04Z</time>
      </trkpt>
      <trkpt lat="45.36793" lon="5.83554">
        <ele>1110.8</ele>
        <time>2021-08-24T13:08:05Z</time>
      </trkpt>
      <trkpt lat="45.36793" lon="5.83552">
        <ele>1110.7</ele>
        <time>2021-08-24T13:08:06Z</time>
      </trkpt>
      <trkpt lat="45.36791" lon="5.83548">
        <ele>1110.6</ele>
        <time>2021-08-24T13:08:07Z</time>
      </trkpt>
      <trkpt lat="45.36791" lon="5.83546">
        <ele>1110.6</ele>
        <time>2021-08-24T13:08:08Z</time>
      </trkpt>
      <trkpt lat="45.3679" lon="5.83542">
        <ele>1110.5</ele>
        <time>2021-08-24T13:08:10Z</time>
      </trkpt>
      <trkpt lat="45.36789" lon="5.8354">
        <ele>1110.5</ele>
        <time>2021-08-24T13:08:11Z</time>
      </trkpt>
      <trkpt lat="45.36788" lon="5.83533">
        <ele>1110.5</ele>
        <time>2021-08-24T13:08:13Z</time>
      </trkpt>
      <trkpt lat="45.36788" lon="5.83532">
        <ele>1110.5</ele>
        <time>2021-08-24T13:08:14Z</time>
      </trkpt>
      <trkpt lat="45.36787" lon="5.83533">
        <ele>1110.5</ele>
        <time>2021-08-24T13:08:15Z</time>
      </trkpt>
      <trkpt lat="45.36787" lon="5.83533">
        <ele>1110.5</ele>
        <time>2021-08-24T13:08:16Z</time>
      </trkpt>
      <trkpt lat="45.36786" lon="5.83532">
        <ele>1110.5</ele>
        <time>2021-08-24T13:08:18Z</time>
      </trkpt>
      <trkpt lat="45.36786" lon="5.83532">
        <ele>1110.5</ele>
        <time>2021-08-24T13:08:19Z</time>
      </trkpt>
      <trkpt lat="45.36786" lon="5.83532">
        <ele>1110.5</ele>
        <time>2021-08-24T13:08:20Z</time>
      </trkpt>
      <trkpt lat="45.36786" lon="5.83532">
        <ele>1110.5</ele>
        <time>2021-08-24T13:08:21Z</time>
      </trkpt>
      <trkpt lat="45.36785" lon="5.83531">
        <ele>1110.6</ele>
        <time>2021-08-24T13:08:23Z</time>
      </trkpt>
      <trkpt lat="45.36772" lon="5.83513">
        <ele>1112.3</ele>
        <time>2021-08-24T13:08:47Z</time>
      </trkpt>
      <trkpt lat="45.36771" lon="5.8351">
        <ele>1112.7</ele>
        <time>2021-08-24T13:08:48Z</time>
      </trkpt>
      <trkpt lat="45.3677" lon="5.83509">
        <ele>1112.9</ele>
        <time>2021-08-24T13:08:49Z</time>
      </trkpt>
      <trkpt lat="45.3677" lon="5.83509">
        <ele>1113</ele>
        <time>2021-08-24T13:08:51Z</time>
      </trkpt>
      <trkpt lat="45.3677" lon="5.83509">
        <ele>1113</ele>
        <time>2021-08-24T13:08:52Z</time>
      </trkpt>
      <trkpt lat="45.3677" lon="5.83508">
        <ele>1113.1</ele>
        <time>2021-08-24T13:08:53Z</time>
      </trkpt>
      <trkpt lat="45.36769" lon="5.83508">
        <ele>1113.1</ele>
        <time>2021-08-24T13:08:55Z</time>
      </trkpt>
      <trkpt lat="45.36769" lon="5.83508">
        <ele>1113.2</ele>
        <time>2021-08-24T13:08:56Z</time>
      </trkpt>
      <trkpt lat="45.36769" lon="5.83508">
        <ele>1113.2</ele>
        <time>2021-08-24T13:08:57Z</time>
      </trkpt>
      <trkpt lat="45.36769" lon="5.83507">
        <ele>1113.2</ele>
        <time>2021-08-24T13:08:59Z</time>
      </trkpt>
      <trkpt lat="45.36769" lon="5.83507">
        <ele>1113.3</ele>
        <time>2021-08-24T13:09:00Z</time>
      </trkpt>
      <trkpt lat="45.36769" lon="5.83507">
        <ele>1113.4</ele>
        <time>2021-08-24T13:09:01Z</time>
      </trkpt>
      <trkpt lat="45.36767" lon="5.83506">
        <ele>1113.7</ele>
        <time>2021-08-24T13:09:03Z</time>
      </trkpt>
      <trkpt lat="45.36766" lon="5.83505">
        <ele>1113.9</ele>
        <time>2021-08-24T13:09:04Z</time>
      </trkpt>
      <trkpt lat="45.36766" lon="5.83504">
        <ele>1114.1</ele>
        <time>2021-08-24T13:09:05Z</time>
      </trkpt>
      <trkpt lat="45.36764" lon="5.83503">
        <ele>1115.8</ele>
        <time>2021-08-24T13:09:07Z</time>
      </trkpt>
      <trkpt lat="45.36763" lon="5.83502">
        <ele>1115.9</ele>
        <time>2021-08-24T13:09:08Z</time>
      </trkpt>
      <trkpt lat="45.3676" lon="5.83501">
        <ele>1116.2</ele>
        <time>2021-08-24T13:09:10Z</time>
      </trkpt>
      <trkpt lat="45.36759" lon="5.83501">
        <ele>1116.3</ele>
        <time>2021-08-24T13:09:11Z</time>
      </trkpt>
      <trkpt lat="45.36757" lon="5.83501">
        <ele>1116.5</ele>
        <time>2021-08-24T13:09:12Z</time>
      </trkpt>
      <trkpt lat="45.36755" lon="5.835">
        <ele>1116.6</ele>
        <time>2021-08-24T13:09:13Z</time>
      </trkpt>
      <trkpt lat="45.36754" lon="5.835">
        <ele>1116.7</ele>
        <time>2021-08-24T13:09:15Z</time>
      </trkpt>
      <trkpt lat="45.36753" lon="5.835">
        <ele>1116.8</ele>
        <time>2021-08-24T13:09:16Z</time>
      </trkpt>
      <trkpt lat="45.36752" lon="5.835">
        <ele>1116.9</ele>
        <time>2021-08-24T13:09:18Z</time>
      </trkpt>
      <trkpt lat="45.36751" lon="5.83499">
        <ele>1117</ele>
        <time>2021-08-24T13:09:19Z</time>
      </trkpt>
      <trkpt lat="45.3675" lon="5.83499">
        <ele>1117.1</ele>
        <time>2021-08-24T13:09:20Z</time>
      </trkpt>
      <trkpt lat="45.36749" lon="5.83498">
        <ele>1117.1</ele>
        <time>2021-08-24T13:09:21Z</time>
      </trkpt>
      <trkpt lat="45.36749" lon="5.83498">
        <ele>1117.1</ele>
        <time>2021-08-24T13:09:23Z</time>
      </trkpt>
      <trkpt lat="45.36748" lon="5.83498">
        <ele>1117.2</ele>
        <time>2021-08-24T13:09:25Z</time>
      </trkpt>
      <trkpt lat="45.36748" lon="5.83498">
        <ele>1117.2</ele>
        <time>2021-08-24T13:09:26Z</time>
      </trkpt>
      <trkpt lat="45.36747" lon="5.83498">
        <ele>1117.3</ele>
        <time>2021-08-24T13:09:27Z</time>
      </trkpt>
      <trkpt lat="45.36747" lon="5.83498">
        <ele>1117.3</ele>
        <time>2021-08-24T13:09:28Z</time>
      </trkpt>
      <trkpt lat="45.36747" lon="5.83498">
        <ele>1117.3</ele>
        <time>2021-08-24T13:09:30Z</time>
      </trkpt>
      <trkpt lat="45.36747" lon="5.83498">
        <ele>1117.3</ele>
        <time>2021-08-24T13:09:31Z</time>
      </trkpt>
      <trkpt lat="45.36747" lon="5.83497">
        <ele>1117.3</ele>
        <time>2021-08-24T13:09:33Z</time>
      </trkpt>
      <trkpt lat="45.36747" lon="5.83497">
        <ele>1117.3</ele>
        <time>2021-08-24T13:09:34Z</time>
      </trkpt>
      <trkpt lat="45.36746" lon="5.83497">
        <ele>1117.3</ele>
        <time>2021-08-24T13:09:36Z</time>
      </trkpt>
      <trkpt lat="45.36747" lon="5.83496">
        <ele>1117.4</ele>
        <time>2021-08-24T13:09:37Z</time>
      </trkpt>
      <trkpt lat="45.36748" lon="5.83493">
        <ele>1117.6</ele>
        <time>2021-08-24T13:09:38Z</time>
      </trkpt>
      <trkpt lat="45.36749" lon="5.83491">
        <ele>1117.8</ele>
        <time>2021-08-24T13:09:40Z</time>
      </trkpt>
      <trkpt lat="45.36749" lon="5.8349">
        <ele>1117.9</ele>
        <time>2021-08-24T13:09:41Z</time>
      </trkpt>
      <trkpt lat="45.36751" lon="5.83488">
        <ele>1118</ele>
        <time>2021-08-24T13:09:43Z</time>
      </trkpt>
      <trkpt lat="45.36751" lon="5.83487">
        <ele>1118.1</ele>
        <time>2021-08-24T13:09:44Z</time>
      </trkpt>
      <trkpt lat="45.36752" lon="5.83486">
        <ele>1118.2</ele>
        <time>2021-08-24T13:09:46Z</time>
      </trkpt>
      <trkpt lat="45.36753" lon="5.83485">
        <ele>1118.3</ele>
        <time>2021-08-24T13:09:48Z</time>
      </trkpt>
      <trkpt lat="45.36753" lon="5.83485">
        <ele>1118.3</ele>
        <time>2021-08-24T13:09:49Z</time>
      </trkpt>
      <trkpt lat="45.36753" lon="5.83483">
        <ele>1118.5</ele>
        <time>2021-08-24T13:09:50Z</time>
      </trkpt>
      <trkpt lat="45.36753" lon="5.83477">
        <ele>1118.8</ele>
        <time>2021-08-24T13:09:52Z</time>
      </trkpt>
      <trkpt lat="45.36753" lon="5.83475">
        <ele>1118.9</ele>
        <time>2021-08-24T13:09:53Z</time>
      </trkpt>
      <trkpt lat="45.36753" lon="5.83473">
        <ele>1119.1</ele>
        <time>2021-08-24T13:09:55Z</time>
      </trkpt>
      <trkpt lat="45.36752" lon="5.83468">
        <ele>1119.4</ele>
        <time>2021-08-24T13:09:57Z</time>
      </trkpt>
      <trkpt lat="45.36751" lon="5.83463">
        <ele>1119.7</ele>
        <time>2021-08-24T13:09:59Z</time>
      </trkpt>
      <trkpt lat="45.36751" lon="5.83462">
        <ele>1119.8</ele>
        <time>2021-08-24T13:10:00Z</time>
      </trkpt>
      <trkpt lat="45.36752" lon="5.83458">
        <ele>1120.1</ele>
        <time>2021-08-24T13:10:01Z</time>
      </trkpt>
      <trkpt lat="45.36752" lon="5.83454">
        <ele>1120.3</ele>
        <time>2021-08-24T13:10:03Z</time>
      </trkpt>
      <trkpt lat="45.36753" lon="5.83452">
        <ele>1120.5</ele>
        <time>2021-08-24T13:10:04Z</time>
      </trkpt>
      <trkpt lat="45.36753" lon="5.83449">
        <ele>1120.7</ele>
        <time>2021-08-24T13:10:07Z</time>
      </trkpt>
      <trkpt lat="45.36753" lon="5.83448">
        <ele>1120.7</ele>
        <time>2021-08-24T13:10:08Z</time>
      </trkpt>
      <trkpt lat="45.36753" lon="5.83446">
        <ele>1120.9</ele>
        <time>2021-08-24T13:10:09Z</time>
      </trkpt>
      <trkpt lat="45.36752" lon="5.83445">
        <ele>1121</ele>
        <time>2021-08-24T13:10:11Z</time>
      </trkpt>
      <trkpt lat="45.36752" lon="5.83444">
        <ele>1121</ele>
        <time>2021-08-24T13:10:12Z</time>
      </trkpt>
      <trkpt lat="45.36751" lon="5.83443">
        <ele>1121.1</ele>
        <time>2021-08-24T13:10:13Z</time>
      </trkpt>
      <trkpt lat="45.3675" lon="5.83442">
        <ele>1121.2</ele>
        <time>2021-08-24T13:10:14Z</time>
      </trkpt>
      <trkpt lat="45.3675" lon="5.83441">
        <ele>1121.3</ele>
        <time>2021-08-24T13:10:16Z</time>
      </trkpt>
      <trkpt lat="45.36749" lon="5.8344">
        <ele>1121.4</ele>
        <time>2021-08-24T13:10:17Z</time>
      </trkpt>
      <trkpt lat="45.36748" lon="5.83439">
        <ele>1121.5</ele>
        <time>2021-08-24T13:10:18Z</time>
      </trkpt>
      <trkpt lat="45.36748" lon="5.83437">
        <ele>1121.6</ele>
        <time>2021-08-24T13:10:19Z</time>
      </trkpt>
      <trkpt lat="45.36746" lon="5.83436">
        <ele>1121.8</ele>
        <time>2021-08-24T13:10:20Z</time>
      </trkpt>
      <trkpt lat="45.36745" lon="5.83434">
        <ele>1121.9</ele>
        <time>2021-08-24T13:10:22Z</time>
      </trkpt>
      <trkpt lat="45.36744" lon="5.83434">
        <ele>1122</ele>
        <time>2021-08-24T13:10:23Z</time>
      </trkpt>
      <trkpt lat="45.36743" lon="5.83433">
        <ele>1122.1</ele>
        <time>2021-08-24T13:10:24Z</time>
      </trkpt>
      <trkpt lat="45.36742" lon="5.83433">
        <ele>1122.2</ele>
        <time>2021-08-24T13:10:25Z</time>
      </trkpt>
      <trkpt lat="45.36741" lon="5.83432">
        <ele>1122.3</ele>
        <time>2021-08-24T13:10:26Z</time>
      </trkpt>
      <trkpt lat="45.3674" lon="5.83431">
        <ele>1122.4</ele>
        <time>2021-08-24T13:10:28Z</time>
      </trkpt>
      <trkpt lat="45.3674" lon="5.8343">
        <ele>1122.5</ele>
        <time>2021-08-24T13:10:29Z</time>
      </trkpt>
      <trkpt lat="45.36739" lon="5.83429">
        <ele>1122.6</ele>
        <time>2021-08-24T13:10:30Z</time>
      </trkpt>
      <trkpt lat="45.36737" lon="5.83427">
        <ele>1122.8</ele>
        <time>2021-08-24T13:10:32Z</time>
      </trkpt>
      <trkpt lat="45.36735" lon="5.83426">
        <ele>1123</ele>
        <time>2021-08-24T13:10:34Z</time>
      </trkpt>
      <trkpt lat="45.36733" lon="5.83426">
        <ele>1123.2</ele>
        <time>2021-08-24T13:10:35Z</time>
      </trkpt>
      <trkpt lat="45.36731" lon="5.83426">
        <ele>1123.3</ele>
        <time>2021-08-24T13:10:36Z</time>
      </trkpt>
      <trkpt lat="45.36728" lon="5.83427">
        <ele>1123.6</ele>
        <time>2021-08-24T13:10:37Z</time>
      </trkpt>
      <trkpt lat="45.36727" lon="5.83427">
        <ele>1123.7</ele>
        <time>2021-08-24T13:10:38Z</time>
      </trkpt>
      <trkpt lat="45.36724" lon="5.83427">
        <ele>1124</ele>
        <time>2021-08-24T13:10:39Z</time>
      </trkpt>
      <trkpt lat="45.36722" lon="5.83427">
        <ele>1124.1</ele>
        <time>2021-08-24T13:10:40Z</time>
      </trkpt>
      <trkpt lat="45.36719" lon="5.83426">
        <ele>1124.4</ele>
        <time>2021-08-24T13:10:41Z</time>
      </trkpt>
      <trkpt lat="45.36716" lon="5.83426">
        <ele>1124.7</ele>
        <time>2021-08-24T13:10:43Z</time>
      </trkpt>
      <trkpt lat="45.36714" lon="5.83425">
        <ele>1124.8</ele>
        <time>2021-08-24T13:10:44Z</time>
      </trkpt>
      <trkpt lat="45.36708" lon="5.83425">
        <ele>1125.4</ele>
        <time>2021-08-24T13:10:47Z</time>
      </trkpt>
      <trkpt lat="45.36705" lon="5.83426">
        <ele>1125.7</ele>
        <time>2021-08-24T13:10:48Z</time>
      </trkpt>
      <trkpt lat="45.36704" lon="5.83427">
        <ele>1125.7</ele>
        <time>2021-08-24T13:10:49Z</time>
      </trkpt>
      <trkpt lat="45.36701" lon="5.83429">
        <ele>1126.1</ele>
        <time>2021-08-24T13:10:51Z</time>
      </trkpt>
      <trkpt lat="45.367" lon="5.83431">
        <ele>1126.2</ele>
        <time>2021-08-24T13:10:52Z</time>
      </trkpt>
      <trkpt lat="45.36699" lon="5.83432">
        <ele>1126.3</ele>
        <time>2021-08-24T13:10:53Z</time>
      </trkpt>
      <trkpt lat="45.36699" lon="5.83432">
        <ele>1126.3</ele>
        <time>2021-08-24T13:10:54Z</time>
      </trkpt>
      <trkpt lat="45.36698" lon="5.83432">
        <ele>1126.4</ele>
        <time>2021-08-24T13:10:55Z</time>
      </trkpt>
      <trkpt lat="45.36697" lon="5.83433">
        <ele>1126.5</ele>
        <time>2021-08-24T13:10:56Z</time>
      </trkpt>
      <trkpt lat="45.36696" lon="5.83433">
        <ele>1126.6</ele>
        <time>2021-08-24T13:10:57Z</time>
      </trkpt>
      <trkpt lat="45.36693" lon="5.83433">
        <ele>1126.9</ele>
        <time>2021-08-24T13:10:58Z</time>
      </trkpt>
      <trkpt lat="45.36692" lon="5.83433">
        <ele>1127</ele>
        <time>2021-08-24T13:10:59Z</time>
      </trkpt>
      <trkpt lat="45.36689" lon="5.83433">
        <ele>1127.2</ele>
        <time>2021-08-24T13:11:01Z</time>
      </trkpt>
      <trkpt lat="45.36688" lon="5.83433">
        <ele>1127.3</ele>
        <time>2021-08-24T13:11:02Z</time>
      </trkpt>
      <trkpt lat="45.36686" lon="5.83432">
        <ele>1127.5</ele>
        <time>2021-08-24T13:11:04Z</time>
      </trkpt>
      <trkpt lat="45.36686" lon="5.83431">
        <ele>1127.5</ele>
        <time>2021-08-24T13:11:05Z</time>
      </trkpt>
      <trkpt lat="45.36685" lon="5.8343">
        <ele>1127.6</ele>
        <time>2021-08-24T13:11:06Z</time>
      </trkpt>
      <trkpt lat="45.36684" lon="5.83429">
        <ele>1127.7</ele>
        <time>2021-08-24T13:11:08Z</time>
      </trkpt>
      <trkpt lat="45.36683" lon="5.83428">
        <ele>1127.8</ele>
        <time>2021-08-24T13:11:09Z</time>
      </trkpt>
      <trkpt lat="45.3668" lon="5.83426">
        <ele>1128.1</ele>
        <time>2021-08-24T13:11:10Z</time>
      </trkpt>
      <trkpt lat="45.36679" lon="5.83425">
        <ele>1128.2</ele>
        <time>2021-08-24T13:11:11Z</time>
      </trkpt>
      <trkpt lat="45.36677" lon="5.83424">
        <ele>1128.4</ele>
        <time>2021-08-24T13:11:12Z</time>
      </trkpt>
      <trkpt lat="45.3667" lon="5.83422">
        <ele>1129.1</ele>
        <time>2021-08-24T13:11:16Z</time>
      </trkpt>
      <trkpt lat="45.36666" lon="5.83422">
        <ele>1129.5</ele>
        <time>2021-08-24T13:11:17Z</time>
      </trkpt>
      <trkpt lat="45.36665" lon="5.83422">
        <ele>1129.6</ele>
        <time>2021-08-24T13:11:18Z</time>
      </trkpt>
      <trkpt lat="45.36659" lon="5.83423">
        <ele>1130.1</ele>
        <time>2021-08-24T13:11:19Z</time>
      </trkpt>
      <trkpt lat="45.36656" lon="5.83425">
        <ele>1130.4</ele>
        <time>2021-08-24T13:11:20Z</time>
      </trkpt>
      <trkpt lat="45.36653" lon="5.83427">
        <ele>1130.8</ele>
        <time>2021-08-24T13:11:22Z</time>
      </trkpt>
      <trkpt lat="45.36652" lon="5.83429">
        <ele>1130.9</ele>
        <time>2021-08-24T13:11:23Z</time>
      </trkpt>
      <trkpt lat="45.3665" lon="5.83432">
        <ele>1131.1</ele>
        <time>2021-08-24T13:11:24Z</time>
      </trkpt>
      <trkpt lat="45.36649" lon="5.83433">
        <ele>1131.2</ele>
        <time>2021-08-24T13:11:25Z</time>
      </trkpt>
      <trkpt lat="45.36647" lon="5.83436">
        <ele>1131.5</ele>
        <time>2021-08-24T13:11:26Z</time>
      </trkpt>
      <trkpt lat="45.36646" lon="5.83437">
        <ele>1131.6</ele>
        <time>2021-08-24T13:11:28Z</time>
      </trkpt>
      <trkpt lat="45.36646" lon="5.83438">
        <ele>1131.7</ele>
        <time>2021-08-24T13:11:29Z</time>
      </trkpt>
      <trkpt lat="45.36645" lon="5.8344">
        <ele>1131.8</ele>
        <time>2021-08-24T13:11:30Z</time>
      </trkpt>
      <trkpt lat="45.36644" lon="5.83441">
        <ele>1131.9</ele>
        <time>2021-08-24T13:11:31Z</time>
      </trkpt>
      <trkpt lat="45.36642" lon="5.83445">
        <ele>1132.2</ele>
        <time>2021-08-24T13:11:33Z</time>
      </trkpt>
      <trkpt lat="45.36642" lon="5.83446">
        <ele>1132.3</ele>
        <time>2021-08-24T13:11:34Z</time>
      </trkpt>
      <trkpt lat="45.3664" lon="5.83447">
        <ele>1132.5</ele>
        <time>2021-08-24T13:11:35Z</time>
      </trkpt>
      <trkpt lat="45.36638" lon="5.83448">
        <ele>1132.6</ele>
        <time>2021-08-24T13:11:37Z</time>
      </trkpt>
      <trkpt lat="45.36637" lon="5.83448">
        <ele>1132.7</ele>
        <time>2021-08-24T13:11:38Z</time>
      </trkpt>
      <trkpt lat="45.36636" lon="5.83448">
        <ele>1132.8</ele>
        <time>2021-08-24T13:11:39Z</time>
      </trkpt>
      <trkpt lat="45.36635" lon="5.83449">
        <ele>1132.8</ele>
        <time>2021-08-24T13:11:40Z</time>
      </trkpt>
      <trkpt lat="45.36633" lon="5.83449">
        <ele>1133.1</ele>
        <time>2021-08-24T13:11:42Z</time>
      </trkpt>
      <trkpt lat="45.36632" lon="5.83448">
        <ele>1133.2</ele>
        <time>2021-08-24T13:11:43Z</time>
      </trkpt>
      <trkpt lat="45.3663" lon="5.83447">
        <ele>1133.4</ele>
        <time>2021-08-24T13:11:45Z</time>
      </trkpt>
      <trkpt lat="45.36628" lon="5.83447">
        <ele>1133.5</ele>
        <time>2021-08-24T13:11:46Z</time>
      </trkpt>
      <trkpt lat="45.36626" lon="5.83445">
        <ele>1133.7</ele>
        <time>2021-08-24T13:11:47Z</time>
      </trkpt>
      <trkpt lat="45.36625" lon="5.83445">
        <ele>1133.8</ele>
        <time>2021-08-24T13:11:48Z</time>
      </trkpt>
      <trkpt lat="45.36624" lon="5.83445">
        <ele>1133.9</ele>
        <time>2021-08-24T13:11:49Z</time>
      </trkpt>
      <trkpt lat="45.36622" lon="5.83444">
        <ele>1134</ele>
        <time>2021-08-24T13:11:51Z</time>
      </trkpt>
      <trkpt lat="45.3662" lon="5.83444">
        <ele>1134.2</ele>
        <time>2021-08-24T13:11:53Z</time>
      </trkpt>
      <trkpt lat="45.36618" lon="5.83443">
        <ele>1134.4</ele>
        <time>2021-08-24T13:11:55Z</time>
      </trkpt>
      <trkpt lat="45.36617" lon="5.83442">
        <ele>1134.5</ele>
        <time>2021-08-24T13:11:56Z</time>
      </trkpt>
      <trkpt lat="45.36614" lon="5.83441">
        <ele>1134.8</ele>
        <time>2021-08-24T13:11:58Z</time>
      </trkpt>
      <trkpt lat="45.36613" lon="5.83441">
        <ele>1134.9</ele>
        <time>2021-08-24T13:11:59Z</time>
      </trkpt>
      <trkpt lat="45.36612" lon="5.8344">
        <ele>1135</ele>
        <time>2021-08-24T13:12:00Z</time>
      </trkpt>
      <trkpt lat="45.3661" lon="5.83439">
        <ele>1135.2</ele>
        <time>2021-08-24T13:12:02Z</time>
      </trkpt>
      <trkpt lat="45.36609" lon="5.83438">
        <ele>1135.3</ele>
        <time>2021-08-24T13:12:03Z</time>
      </trkpt>
      <trkpt lat="45.36607" lon="5.83437">
        <ele>1135.4</ele>
        <time>2021-08-24T13:12:04Z</time>
      </trkpt>
      <trkpt lat="45.36605" lon="5.83436">
        <ele>1135.7</ele>
        <time>2021-08-24T13:12:06Z</time>
      </trkpt>
      <trkpt lat="45.36604" lon="5.83436">
        <ele>1135.8</ele>
        <time>2021-08-24T13:12:07Z</time>
      </trkpt>
      <trkpt lat="45.36603" lon="5.83435">
        <ele>1135.9</ele>
        <time>2021-08-24T13:12:08Z</time>
      </trkpt>
      <trkpt lat="45.36601" lon="5.83433">
        <ele>1136</ele>
        <time>2021-08-24T13:12:09Z</time>
      </trkpt>
      <trkpt lat="45.366" lon="5.83433">
        <ele>1136.1</ele>
        <time>2021-08-24T13:12:10Z</time>
      </trkpt>
      <trkpt lat="45.366" lon="5.83432">
        <ele>1136.1</ele>
        <time>2021-08-24T13:12:12Z</time>
      </trkpt>
      <trkpt lat="45.366" lon="5.83432">
        <ele>1136.2</ele>
        <time>2021-08-24T13:12:13Z</time>
      </trkpt>
      <trkpt lat="45.36598" lon="5.83432">
        <ele>1136.3</ele>
        <time>2021-08-24T13:12:14Z</time>
      </trkpt>
      <trkpt lat="45.36594" lon="5.83429">
        <ele>1136.7</ele>
        <time>2021-08-24T13:12:16Z</time>
      </trkpt>
      <trkpt lat="45.36592" lon="5.83428">
        <ele>1136.8</ele>
        <time>2021-08-24T13:12:17Z</time>
      </trkpt>
      <trkpt lat="45.36589" lon="5.83428">
        <ele>1137.1</ele>
        <time>2021-08-24T13:12:18Z</time>
      </trkpt>
      <trkpt lat="45.36588" lon="5.83428">
        <ele>1137.2</ele>
        <time>2021-08-24T13:12:20Z</time>
      </trkpt>
      <trkpt lat="45.36587" lon="5.83427">
        <ele>1137.3</ele>
        <time>2021-08-24T13:12:21Z</time>
      </trkpt>
      <trkpt lat="45.36585" lon="5.83427">
        <ele>1137.5</ele>
        <time>2021-08-24T13:12:22Z</time>
      </trkpt>
      <trkpt lat="45.36582" lon="5.83427">
        <ele>1137.7</ele>
        <time>2021-08-24T13:12:23Z</time>
      </trkpt>
      <trkpt lat="45.36581" lon="5.83426">
        <ele>1137.8</ele>
        <time>2021-08-24T13:12:24Z</time>
      </trkpt>
      <trkpt lat="45.36579" lon="5.83426">
        <ele>1137.9</ele>
        <time>2021-08-24T13:12:25Z</time>
      </trkpt>
      <trkpt lat="45.36577" lon="5.83425">
        <ele>1138.2</ele>
        <time>2021-08-24T13:12:27Z</time>
      </trkpt>
      <trkpt lat="45.36574" lon="5.83425">
        <ele>1138.4</ele>
        <time>2021-08-24T13:12:28Z</time>
      </trkpt>
      <trkpt lat="45.3657" lon="5.83424">
        <ele>1138.6</ele>
        <time>2021-08-24T13:12:30Z</time>
      </trkpt>
      <trkpt lat="45.36567" lon="5.83423">
        <ele>1138.7</ele>
        <time>2021-08-24T13:12:31Z</time>
      </trkpt>
      <trkpt lat="45.36566" lon="5.83422">
        <ele>1138.8</ele>
        <time>2021-08-24T13:12:32Z</time>
      </trkpt>
      <trkpt lat="45.36563" lon="5.83419">
        <ele>1138.9</ele>
        <time>2021-08-24T13:12:34Z</time>
      </trkpt>
      <trkpt lat="45.36562" lon="5.83416">
        <ele>1139</ele>
        <time>2021-08-24T13:12:36Z</time>
      </trkpt>
      <trkpt lat="45.36561" lon="5.83414">
        <ele>1139.1</ele>
        <time>2021-08-24T13:12:38Z</time>
      </trkpt>
      <trkpt lat="45.3656" lon="5.83411">
        <ele>1139.2</ele>
        <time>2021-08-24T13:12:39Z</time>
      </trkpt>
      <trkpt lat="45.36559" lon="5.83408">
        <ele>1139.3</ele>
        <time>2021-08-24T13:12:41Z</time>
      </trkpt>
      <trkpt lat="45.36559" lon="5.83406">
        <ele>1139.4</ele>
        <time>2021-08-24T13:12:42Z</time>
      </trkpt>
      <trkpt lat="45.36558" lon="5.83404">
        <ele>1139.4</ele>
        <time>2021-08-24T13:12:44Z</time>
      </trkpt>
      <trkpt lat="45.36558" lon="5.83403">
        <ele>1139.4</ele>
        <time>2021-08-24T13:12:45Z</time>
      </trkpt>
      <trkpt lat="45.36557" lon="5.83402">
        <ele>1139.5</ele>
        <time>2021-08-24T13:12:46Z</time>
      </trkpt>
      <trkpt lat="45.36556" lon="5.834">
        <ele>1139.5</ele>
        <time>2021-08-24T13:12:48Z</time>
      </trkpt>
      <trkpt lat="45.36555" lon="5.83399">
        <ele>1139.6</ele>
        <time>2021-08-24T13:12:49Z</time>
      </trkpt>
      <trkpt lat="45.36553" lon="5.83397">
        <ele>1139.6</ele>
        <time>2021-08-24T13:12:51Z</time>
      </trkpt>
      <trkpt lat="45.36552" lon="5.83396">
        <ele>1139.6</ele>
        <time>2021-08-24T13:12:52Z</time>
      </trkpt>
      <trkpt lat="45.36549" lon="5.83395">
        <ele>1139.7</ele>
        <time>2021-08-24T13:12:54Z</time>
      </trkpt>
      <trkpt lat="45.36544" lon="5.83394">
        <ele>1139.6</ele>
        <time>2021-08-24T13:12:56Z</time>
      </trkpt>
      <trkpt lat="45.36541" lon="5.83393">
        <ele>1139.4</ele>
        <time>2021-08-24T13:12:57Z</time>
      </trkpt>
      <trkpt lat="45.36536" lon="5.83391">
        <ele>1139.1</ele>
        <time>2021-08-24T13:12:59Z</time>
      </trkpt>
      <trkpt lat="45.3653" lon="5.83388">
        <ele>1138.7</ele>
        <time>2021-08-24T13:13:01Z</time>
      </trkpt>
      <trkpt lat="45.36527" lon="5.83385">
        <ele>1138.4</ele>
        <time>2021-08-24T13:13:02Z</time>
      </trkpt>
      <trkpt lat="45.36516" lon="5.83378">
        <ele>1137.5</ele>
        <time>2021-08-24T13:13:04Z</time>
      </trkpt>
      <trkpt lat="45.36511" lon="5.83374">
        <ele>1137</ele>
        <time>2021-08-24T13:13:05Z</time>
      </trkpt>
      <trkpt lat="45.36506" lon="5.8337">
        <ele>1136.5</ele>
        <time>2021-08-24T13:13:06Z</time>
      </trkpt>
      <trkpt lat="45.365" lon="5.83364">
        <ele>1135.9</ele>
        <time>2021-08-24T13:13:07Z</time>
      </trkpt>
      <trkpt lat="45.36488" lon="5.83353">
        <ele>1134.7</ele>
        <time>2021-08-24T13:13:09Z</time>
      </trkpt>
      <trkpt lat="45.36481" lon="5.83346">
        <ele>1133.9</ele>
        <time>2021-08-24T13:13:10Z</time>
      </trkpt>
      <trkpt lat="45.36466" lon="5.83331">
        <ele>1132.1</ele>
        <time>2021-08-24T13:13:12Z</time>
      </trkpt>
      <trkpt lat="45.3645" lon="5.83312">
        <ele>1130.1</ele>
        <time>2021-08-24T13:13:14Z</time>
      </trkpt>
      <trkpt lat="45.36442" lon="5.83302">
        <ele>1129.1</ele>
        <time>2021-08-24T13:13:15Z</time>
      </trkpt>
      <trkpt lat="45.36425" lon="5.8328">
        <ele>1127</ele>
        <time>2021-08-24T13:13:17Z</time>
      </trkpt>
      <trkpt lat="45.36409" lon="5.83253">
        <ele>1124.6</ele>
        <time>2021-08-24T13:13:19Z</time>
      </trkpt>
      <trkpt lat="45.36394" lon="5.83223">
        <ele>1122</ele>
        <time>2021-08-24T13:13:21Z</time>
      </trkpt>
      <trkpt lat="45.36387" lon="5.83207">
        <ele>1120.6</ele>
        <time>2021-08-24T13:13:22Z</time>
      </trkpt>
      <trkpt lat="45.36372" lon="5.83178">
        <ele>1117.9</ele>
        <time>2021-08-24T13:13:24Z</time>
      </trkpt>
      <trkpt lat="45.36354" lon="5.83155">
        <ele>1115.7</ele>
        <time>2021-08-24T13:13:26Z</time>
      </trkpt>
      <trkpt lat="45.36336" lon="5.83134">
        <ele>1113.6</ele>
        <time>2021-08-24T13:13:28Z</time>
      </trkpt>
      <trkpt lat="45.36327" lon="5.83124">
        <ele>1112.7</ele>
        <time>2021-08-24T13:13:29Z</time>
      </trkpt>
      <trkpt lat="45.36319" lon="5.83115">
        <ele>1111.7</ele>
        <time>2021-08-24T13:13:30Z</time>
      </trkpt>
      <trkpt lat="45.36303" lon="5.83097">
        <ele>1110.3</ele>
        <time>2021-08-24T13:13:32Z</time>
      </trkpt>
      <trkpt lat="45.36287" lon="5.8308">
        <ele>1108.9</ele>
        <time>2021-08-24T13:13:34Z</time>
      </trkpt>
      <trkpt lat="45.36279" lon="5.83072">
        <ele>1108.1</ele>
        <time>2021-08-24T13:13:35Z</time>
      </trkpt>
      <trkpt lat="45.36271" lon="5.83063">
        <ele>1107.3</ele>
        <time>2021-08-24T13:13:36Z</time>
      </trkpt>
      <trkpt lat="45.36254" lon="5.83046">
        <ele>1105.5</ele>
        <time>2021-08-24T13:13:38Z</time>
      </trkpt>
      <trkpt lat="45.36246" lon="5.83037">
        <ele>1104.5</ele>
        <time>2021-08-24T13:13:39Z</time>
      </trkpt>
      <trkpt lat="45.3623" lon="5.83021">
        <ele>1102.6</ele>
        <time>2021-08-24T13:13:41Z</time>
      </trkpt>
      <trkpt lat="45.36223" lon="5.83014">
        <ele>1101.6</ele>
        <time>2021-08-24T13:13:42Z</time>
      </trkpt>
      <trkpt lat="45.3621" lon="5.83">
        <ele>1100.1</ele>
        <time>2021-08-24T13:13:44Z</time>
      </trkpt>
      <trkpt lat="45.36204" lon="5.82994">
        <ele>1099.4</ele>
        <time>2021-08-24T13:13:45Z</time>
      </trkpt>
      <trkpt lat="45.3619" lon="5.82986">
        <ele>1098.2</ele>
        <time>2021-08-24T13:13:47Z</time>
      </trkpt>
      <trkpt lat="45.36184" lon="5.82983">
        <ele>1097.8</ele>
        <time>2021-08-24T13:13:48Z</time>
      </trkpt>
      <trkpt lat="45.3617" lon="5.8298">
        <ele>1097</ele>
        <time>2021-08-24T13:13:50Z</time>
      </trkpt>
      <trkpt lat="45.36163" lon="5.82981">
        <ele>1096.6</ele>
        <time>2021-08-24T13:13:51Z</time>
      </trkpt>
      <trkpt lat="45.36147" lon="5.82984">
        <ele>1095.8</ele>
        <time>2021-08-24T13:13:53Z</time>
      </trkpt>
      <trkpt lat="45.3614" lon="5.82988">
        <ele>1096.5</ele>
        <time>2021-08-24T13:13:54Z</time>
      </trkpt>
      <trkpt lat="45.36133" lon="5.82992">
        <ele>1097.1</ele>
        <time>2021-08-24T13:13:55Z</time>
      </trkpt>
      <trkpt lat="45.36127" lon="5.82994">
        <ele>1097.7</ele>
        <time>2021-08-24T13:13:56Z</time>
      </trkpt>
      <trkpt lat="45.36117" lon="5.83">
        <ele>1098.7</ele>
        <time>2021-08-24T13:13:58Z</time>
      </trkpt>
      <trkpt lat="45.36112" lon="5.83002">
        <ele>1099.2</ele>
        <time>2021-08-24T13:13:59Z</time>
      </trkpt>
      <trkpt lat="45.36108" lon="5.83005">
        <ele>1099.7</ele>
        <time>2021-08-24T13:14:00Z</time>
      </trkpt>
      <trkpt lat="45.36099" lon="5.83009">
        <ele>1100.6</ele>
        <time>2021-08-24T13:14:02Z</time>
      </trkpt>
      <trkpt lat="45.36096" lon="5.83011">
        <ele>1101</ele>
        <time>2021-08-24T13:14:03Z</time>
      </trkpt>
      <trkpt lat="45.36091" lon="5.83015">
        <ele>1101.6</ele>
        <time>2021-08-24T13:14:05Z</time>
      </trkpt>
      <trkpt lat="45.36088" lon="5.83017">
        <ele>1101.9</ele>
        <time>2021-08-24T13:14:06Z</time>
      </trkpt>
      <trkpt lat="45.36086" lon="5.83019">
        <ele>1102.2</ele>
        <time>2021-08-24T13:14:08Z</time>
      </trkpt>
      <trkpt lat="45.36082" lon="5.8302">
        <ele>1102.6</ele>
        <time>2021-08-24T13:14:09Z</time>
      </trkpt>
      <trkpt lat="45.36078" lon="5.8302">
        <ele>1103</ele>
        <time>2021-08-24T13:14:11Z</time>
      </trkpt>
      <trkpt lat="45.36077" lon="5.8302">
        <ele>1103.2</ele>
        <time>2021-08-24T13:14:12Z</time>
      </trkpt>
      <trkpt lat="45.36074" lon="5.83022">
        <ele>1103.5</ele>
        <time>2021-08-24T13:14:14Z</time>
      </trkpt>
      <trkpt lat="45.3607" lon="5.83025">
        <ele>1103.8</ele>
        <time>2021-08-24T13:14:16Z</time>
      </trkpt>
      <trkpt lat="45.36069" lon="5.83027">
        <ele>1104</ele>
        <time>2021-08-24T13:14:17Z</time>
      </trkpt>
      <trkpt lat="45.36066" lon="5.83031">
        <ele>1104.4</ele>
        <time>2021-08-24T13:14:19Z</time>
      </trkpt>
      <trkpt lat="45.36063" lon="5.83034">
        <ele>1104.7</ele>
        <time>2021-08-24T13:14:21Z</time>
      </trkpt>
      <trkpt lat="45.3606" lon="5.83037">
        <ele>1105</ele>
        <time>2021-08-24T13:14:23Z</time>
      </trkpt>
      <trkpt lat="45.36056" lon="5.8304">
        <ele>1105.4</ele>
        <time>2021-08-24T13:14:25Z</time>
      </trkpt>
      <trkpt lat="45.36053" lon="5.83041">
        <ele>1105.7</ele>
        <time>2021-08-24T13:14:27Z</time>
      </trkpt>
      <trkpt lat="45.36051" lon="5.83042">
        <ele>1105.9</ele>
        <time>2021-08-24T13:14:28Z</time>
      </trkpt>
      <trkpt lat="45.36047" lon="5.83044">
        <ele>1106.3</ele>
        <time>2021-08-24T13:14:30Z</time>
      </trkpt>
      <trkpt lat="45.36044" lon="5.83046">
        <ele>1106.5</ele>
        <time>2021-08-24T13:14:31Z</time>
      </trkpt>
      <trkpt lat="45.36043" lon="5.83047">
        <ele>1106.6</ele>
        <time>2021-08-24T13:14:32Z</time>
      </trkpt>
      <trkpt lat="45.3604" lon="5.8305">
        <ele>1106.9</ele>
        <time>2021-08-24T13:14:33Z</time>
      </trkpt>
      <trkpt lat="45.36038" lon="5.83053">
        <ele>1107.2</ele>
        <time>2021-08-24T13:14:34Z</time>
      </trkpt>
      <trkpt lat="45.36036" lon="5.83057">
        <ele>1107.4</ele>
        <time>2021-08-24T13:14:35Z</time>
      </trkpt>
      <trkpt lat="45.36033" lon="5.83061">
        <ele>1107.8</ele>
        <time>2021-08-24T13:14:37Z</time>
      </trkpt>
      <trkpt lat="45.36031" lon="5.83063">
        <ele>1108</ele>
        <time>2021-08-24T13:14:38Z</time>
      </trkpt>
      <trkpt lat="45.36028" lon="5.83066">
        <ele>1108.3</ele>
        <time>2021-08-24T13:14:39Z</time>
      </trkpt>
      <trkpt lat="45.36026" lon="5.83069">
        <ele>1108.6</ele>
        <time>2021-08-24T13:14:40Z</time>
      </trkpt>
      <trkpt lat="45.36025" lon="5.8307">
        <ele>1108.7</ele>
        <time>2021-08-24T13:14:41Z</time>
      </trkpt>
      <trkpt lat="45.36022" lon="5.83071">
        <ele>1109</ele>
        <time>2021-08-24T13:14:43Z</time>
      </trkpt>
      <trkpt lat="45.3602" lon="5.83072">
        <ele>1109.1</ele>
        <time>2021-08-24T13:14:44Z</time>
      </trkpt>
      <trkpt lat="45.36019" lon="5.83073">
        <ele>1109.2</ele>
        <time>2021-08-24T13:14:45Z</time>
      </trkpt>
      <trkpt lat="45.36016" lon="5.83076">
        <ele>1109.5</ele>
        <time>2021-08-24T13:14:46Z</time>
      </trkpt>
      <trkpt lat="45.36015" lon="5.83076">
        <ele>1109.6</ele>
        <time>2021-08-24T13:14:47Z</time>
      </trkpt>
      <trkpt lat="45.36013" lon="5.83077">
        <ele>1109.8</ele>
        <time>2021-08-24T13:14:48Z</time>
      </trkpt>
      <trkpt lat="45.36012" lon="5.83077">
        <ele>1109.9</ele>
        <time>2021-08-24T13:14:49Z</time>
      </trkpt>
      <trkpt lat="45.36011" lon="5.83078">
        <ele>1110</ele>
        <time>2021-08-24T13:14:50Z</time>
      </trkpt>
      <trkpt lat="45.36008" lon="5.83078">
        <ele>1110.2</ele>
        <time>2021-08-24T13:14:51Z</time>
      </trkpt>
      <trkpt lat="45.36007" lon="5.83079">
        <ele>1110.3</ele>
        <time>2021-08-24T13:14:52Z</time>
      </trkpt>
      <trkpt lat="45.36004" lon="5.8308">
        <ele>1110.5</ele>
        <time>2021-08-24T13:14:53Z</time>
      </trkpt>
      <trkpt lat="45.36003" lon="5.83081">
        <ele>1110.6</ele>
        <time>2021-08-24T13:14:55Z</time>
      </trkpt>
      <trkpt lat="45.36001" lon="5.83082">
        <ele>1110.7</ele>
        <time>2021-08-24T13:14:56Z</time>
      </trkpt>
      <trkpt lat="45.36" lon="5.83082">
        <ele>1110.9</ele>
        <time>2021-08-24T13:14:57Z</time>
      </trkpt>
      <trkpt lat="45.35997" lon="5.83084">
        <ele>1111.2</ele>
        <time>2021-08-24T13:14:58Z</time>
      </trkpt>
      <trkpt lat="45.35996" lon="5.83085">
        <ele>1111.3</ele>
        <time>2021-08-24T13:14:59Z</time>
      </trkpt>
      <trkpt lat="45.35991" lon="5.8309">
        <ele>1111.7</ele>
        <time>2021-08-24T13:15:00Z</time>
      </trkpt>
      <trkpt lat="45.35989" lon="5.83093">
        <ele>1112</ele>
        <time>2021-08-24T13:15:01Z</time>
      </trkpt>
      <trkpt lat="45.35986" lon="5.83095">
        <ele>1112.3</ele>
        <time>2021-08-24T13:15:03Z</time>
      </trkpt>
      <trkpt lat="45.35985" lon="5.83096">
        <ele>1112.4</ele>
        <time>2021-08-24T13:15:04Z</time>
      </trkpt>
      <trkpt lat="45.35982" lon="5.83099">
        <ele>1112.7</ele>
        <time>2021-08-24T13:15:05Z</time>
      </trkpt>
      <trkpt lat="45.35979" lon="5.83101">
        <ele>1112.9</ele>
        <time>2021-08-24T13:15:06Z</time>
      </trkpt>
      <trkpt lat="45.35977" lon="5.83103">
        <ele>1113.2</ele>
        <time>2021-08-24T13:15:07Z</time>
      </trkpt>
      <trkpt lat="45.35975" lon="5.83106">
        <ele>1113.4</ele>
        <time>2021-08-24T13:15:08Z</time>
      </trkpt>
      <trkpt lat="45.35973" lon="5.83109">
        <ele>1113.7</ele>
        <time>2021-08-24T13:15:09Z</time>
      </trkpt>
      <trkpt lat="45.35971" lon="5.83111">
        <ele>1113.9</ele>
        <time>2021-08-24T13:15:10Z</time>
      </trkpt>
      <trkpt lat="45.35969" lon="5.83114">
        <ele>1114.1</ele>
        <time>2021-08-24T13:15:12Z</time>
      </trkpt>
      <trkpt lat="45.35966" lon="5.83117">
        <ele>1114.4</ele>
        <time>2021-08-24T13:15:13Z</time>
      </trkpt>
      <trkpt lat="45.35965" lon="5.83118">
        <ele>1114.5</ele>
        <time>2021-08-24T13:15:14Z</time>
      </trkpt>
      <trkpt lat="45.35961" lon="5.83121">
        <ele>1114.8</ele>
        <time>2021-08-24T13:15:15Z</time>
      </trkpt>
      <trkpt lat="45.3596" lon="5.83122">
        <ele>1114.9</ele>
        <time>2021-08-24T13:15:16Z</time>
      </trkpt>
      <trkpt lat="45.35958" lon="5.83123">
        <ele>1115.1</ele>
        <time>2021-08-24T13:15:17Z</time>
      </trkpt>
      <trkpt lat="45.35955" lon="5.83125">
        <ele>1115.3</ele>
        <time>2021-08-24T13:15:18Z</time>
      </trkpt>
      <trkpt lat="45.35953" lon="5.83127">
        <ele>1115.5</ele>
        <time>2021-08-24T13:15:19Z</time>
      </trkpt>
      <trkpt lat="45.35949" lon="5.8313">
        <ele>1115.8</ele>
        <time>2021-08-24T13:15:21Z</time>
      </trkpt>
      <trkpt lat="45.35948" lon="5.83131">
        <ele>1115.9</ele>
        <time>2021-08-24T13:15:22Z</time>
      </trkpt>
      <trkpt lat="45.35946" lon="5.83133">
        <ele>1116.2</ele>
        <time>2021-08-24T13:15:23Z</time>
      </trkpt>
      <trkpt lat="45.35945" lon="5.83134">
        <ele>1116.2</ele>
        <time>2021-08-24T13:15:24Z</time>
      </trkpt>
      <trkpt lat="45.35942" lon="5.83137">
        <ele>1116.5</ele>
        <time>2021-08-24T13:15:25Z</time>
      </trkpt>
      <trkpt lat="45.35939" lon="5.8314">
        <ele>1116.8</ele>
        <time>2021-08-24T13:15:27Z</time>
      </trkpt>
      <trkpt lat="45.35937" lon="5.83141">
        <ele>1117</ele>
        <time>2021-08-24T13:15:28Z</time>
      </trkpt>
      <trkpt lat="45.35932" lon="5.83145">
        <ele>1117.3</ele>
        <time>2021-08-24T13:15:30Z</time>
      </trkpt>
      <trkpt lat="45.35931" lon="5.83146">
        <ele>1117.4</ele>
        <time>2021-08-24T13:15:31Z</time>
      </trkpt>
      <trkpt lat="45.35929" lon="5.83147">
        <ele>1117.6</ele>
        <time>2021-08-24T13:15:32Z</time>
      </trkpt>
      <trkpt lat="45.35927" lon="5.8315">
        <ele>1117.8</ele>
        <time>2021-08-24T13:15:33Z</time>
      </trkpt>
      <trkpt lat="45.35924" lon="5.83154">
        <ele>1118.2</ele>
        <time>2021-08-24T13:15:34Z</time>
      </trkpt>
      <trkpt lat="45.35919" lon="5.8316">
        <ele>1118.7</ele>
        <time>2021-08-24T13:15:36Z</time>
      </trkpt>
      <trkpt lat="45.35916" lon="5.83166">
        <ele>1119.2</ele>
        <time>2021-08-24T13:15:37Z</time>
      </trkpt>
      <trkpt lat="45.35913" lon="5.83172">
        <ele>1119.6</ele>
        <time>2021-08-24T13:15:39Z</time>
      </trkpt>
      <trkpt lat="45.3591" lon="5.83183">
        <ele>1120.3</ele>
        <time>2021-08-24T13:15:41Z</time>
      </trkpt>
      <trkpt lat="45.35908" lon="5.83192">
        <ele>1120.8</ele>
        <time>2021-08-24T13:15:43Z</time>
      </trkpt>
      <trkpt lat="45.35905" lon="5.83198">
        <ele>1121.3</ele>
        <time>2021-08-24T13:15:44Z</time>
      </trkpt>
      <trkpt lat="45.35903" lon="5.83202">
        <ele>1121.6</ele>
        <time>2021-08-24T13:15:46Z</time>
      </trkpt>
      <trkpt lat="45.359" lon="5.83207">
        <ele>1122</ele>
        <time>2021-08-24T13:15:48Z</time>
      </trkpt>
      <trkpt lat="45.35898" lon="5.83212">
        <ele>1122.3</ele>
        <time>2021-08-24T13:15:49Z</time>
      </trkpt>
      <trkpt lat="45.35896" lon="5.83215">
        <ele>1122.6</ele>
        <time>2021-08-24T13:15:51Z</time>
      </trkpt>
      <trkpt lat="45.35895" lon="5.83218">
        <ele>1122.8</ele>
        <time>2021-08-24T13:15:52Z</time>
      </trkpt>
      <trkpt lat="45.35893" lon="5.83222">
        <ele>1123.1</ele>
        <time>2021-08-24T13:15:53Z</time>
      </trkpt>
      <trkpt lat="45.35892" lon="5.83224">
        <ele>1123.2</ele>
        <time>2021-08-24T13:15:54Z</time>
      </trkpt>
      <trkpt lat="45.3589" lon="5.83229">
        <ele>1123.6</ele>
        <time>2021-08-24T13:15:56Z</time>
      </trkpt>
      <trkpt lat="45.35887" lon="5.83234">
        <ele>1124</ele>
        <time>2021-08-24T13:15:57Z</time>
      </trkpt>
      <trkpt lat="45.35886" lon="5.83238">
        <ele>1124.3</ele>
        <time>2021-08-24T13:15:58Z</time>
      </trkpt>
      <trkpt lat="45.35884" lon="5.83243">
        <ele>1124.6</ele>
        <time>2021-08-24T13:16:00Z</time>
      </trkpt>
      <trkpt lat="45.35881" lon="5.83247">
        <ele>1125</ele>
        <time>2021-08-24T13:16:01Z</time>
      </trkpt>
      <trkpt lat="45.35878" lon="5.83254">
        <ele>1125.4</ele>
        <time>2021-08-24T13:16:03Z</time>
      </trkpt>
      <trkpt lat="45.35877" lon="5.83256">
        <ele>1125.5</ele>
        <time>2021-08-24T13:16:04Z</time>
      </trkpt>
      <trkpt lat="45.35876" lon="5.83257">
        <ele>1125.7</ele>
        <time>2021-08-24T13:16:05Z</time>
      </trkpt>
      <trkpt lat="45.35873" lon="5.83262">
        <ele>1126</ele>
        <time>2021-08-24T13:16:07Z</time>
      </trkpt>
      <trkpt lat="45.35871" lon="5.83265">
        <ele>1126.3</ele>
        <time>2021-08-24T13:16:08Z</time>
      </trkpt>
      <trkpt lat="45.35869" lon="5.83269">
        <ele>1126.6</ele>
        <time>2021-08-24T13:16:09Z</time>
      </trkpt>
      <trkpt lat="45.35868" lon="5.83271">
        <ele>1126.7</ele>
        <time>2021-08-24T13:16:10Z</time>
      </trkpt>
      <trkpt lat="45.35866" lon="5.83274">
        <ele>1127</ele>
        <time>2021-08-24T13:16:12Z</time>
      </trkpt>
      <trkpt lat="45.35865" lon="5.83275">
        <ele>1127.1</ele>
        <time>2021-08-24T13:16:13Z</time>
      </trkpt>
      <trkpt lat="45.35863" lon="5.83278">
        <ele>1127.3</ele>
        <time>2021-08-24T13:16:14Z</time>
      </trkpt>
      <trkpt lat="45.35862" lon="5.83279">
        <ele>1127.4</ele>
        <time>2021-08-24T13:16:15Z</time>
      </trkpt>
      <trkpt lat="45.35859" lon="5.83281">
        <ele>1127.7</ele>
        <time>2021-08-24T13:16:17Z</time>
      </trkpt>
      <trkpt lat="45.35858" lon="5.83282">
        <ele>1127.8</ele>
        <time>2021-08-24T13:16:18Z</time>
      </trkpt>
      <trkpt lat="45.35856" lon="5.83284">
        <ele>1128.1</ele>
        <time>2021-08-24T13:16:19Z</time>
      </trkpt>
      <trkpt lat="45.35853" lon="5.83286">
        <ele>1128.4</ele>
        <time>2021-08-24T13:16:20Z</time>
      </trkpt>
      <trkpt lat="45.3585" lon="5.83288">
        <ele>1128.6</ele>
        <time>2021-08-24T13:16:21Z</time>
      </trkpt>
      <trkpt lat="45.35848" lon="5.8329">
        <ele>1128.9</ele>
        <time>2021-08-24T13:16:22Z</time>
      </trkpt>
      <trkpt lat="45.35845" lon="5.83292">
        <ele>1129.2</ele>
        <time>2021-08-24T13:16:24Z</time>
      </trkpt>
      <trkpt lat="45.35841" lon="5.83293">
        <ele>1129.5</ele>
        <time>2021-08-24T13:16:26Z</time>
      </trkpt>
      <trkpt lat="45.3584" lon="5.83294">
        <ele>1129.7</ele>
        <time>2021-08-24T13:16:27Z</time>
      </trkpt>
      <trkpt lat="45.35838" lon="5.83295">
        <ele>1129.9</ele>
        <time>2021-08-24T13:16:28Z</time>
      </trkpt>
      <trkpt lat="45.35836" lon="5.83297">
        <ele>1130.1</ele>
        <time>2021-08-24T13:16:29Z</time>
      </trkpt>
      <trkpt lat="45.35834" lon="5.83298">
        <ele>1130.3</ele>
        <time>2021-08-24T13:16:31Z</time>
      </trkpt>
      <trkpt lat="45.35833" lon="5.83299">
        <ele>1130.4</ele>
        <time>2021-08-24T13:16:32Z</time>
      </trkpt>
      <trkpt lat="45.35831" lon="5.83298">
        <ele>1130.6</ele>
        <time>2021-08-24T13:16:33Z</time>
      </trkpt>
      <trkpt lat="45.35828" lon="5.83296">
        <ele>1130.9</ele>
        <time>2021-08-24T13:16:34Z</time>
      </trkpt>
      <trkpt lat="45.35827" lon="5.83296">
        <ele>1132</ele>
        <time>2021-08-24T13:16:35Z</time>
      </trkpt>
      <trkpt lat="45.35824" lon="5.83294">
        <ele>1132</ele>
        <time>2021-08-24T13:16:37Z</time>
      </trkpt>
      <trkpt lat="45.35823" lon="5.83293">
        <ele>1132</ele>
        <time>2021-08-24T13:16:38Z</time>
      </trkpt>
      <trkpt lat="45.3582" lon="5.83289">
        <ele>1132</ele>
        <time>2021-08-24T13:16:39Z</time>
      </trkpt>
      <trkpt lat="45.35818" lon="5.83287">
        <ele>1132</ele>
        <time>2021-08-24T13:16:40Z</time>
      </trkpt>
      <trkpt lat="45.35816" lon="5.83284">
        <ele>1132</ele>
        <time>2021-08-24T13:16:41Z</time>
      </trkpt>
      <trkpt lat="45.35814" lon="5.83282">
        <ele>1131.9</ele>
        <time>2021-08-24T13:16:43Z</time>
      </trkpt>
      <trkpt lat="45.35813" lon="5.83281">
        <ele>1131.9</ele>
        <time>2021-08-24T13:16:44Z</time>
      </trkpt>
      <trkpt lat="45.35813" lon="5.83279">
        <ele>1131.9</ele>
        <time>2021-08-24T13:16:45Z</time>
      </trkpt>
      <trkpt lat="45.35812" lon="5.83278">
        <ele>1131.9</ele>
        <time>2021-08-24T13:16:46Z</time>
      </trkpt>
      <trkpt lat="45.35812" lon="5.83277">
        <ele>1131.9</ele>
        <time>2021-08-24T13:16:47Z</time>
      </trkpt>
      <trkpt lat="45.35809" lon="5.83272">
        <ele>1131.8</ele>
        <time>2021-08-24T13:16:50Z</time>
      </trkpt>
      <trkpt lat="45.35806" lon="5.83265">
        <ele>1131.7</ele>
        <time>2021-08-24T13:16:52Z</time>
      </trkpt>
      <trkpt lat="45.35805" lon="5.8326">
        <ele>1131.7</ele>
        <time>2021-08-24T13:16:53Z</time>
      </trkpt>
      <trkpt lat="45.35804" lon="5.83256">
        <ele>1131.7</ele>
        <time>2021-08-24T13:16:54Z</time>
      </trkpt>
      <trkpt lat="45.35803" lon="5.83252">
        <ele>1131.7</ele>
        <time>2021-08-24T13:16:55Z</time>
      </trkpt>
      <trkpt lat="45.35802" lon="5.83247">
        <ele>1131.7</ele>
        <time>2021-08-24T13:16:56Z</time>
      </trkpt>
      <trkpt lat="45.35802" lon="5.83243">
        <ele>1131.7</ele>
        <time>2021-08-24T13:16:57Z</time>
      </trkpt>
      <trkpt lat="45.35801" lon="5.83239">
        <ele>1131.7</ele>
        <time>2021-08-24T13:16:59Z</time>
      </trkpt>
      <trkpt lat="45.35801" lon="5.83235">
        <ele>1131.6</ele>
        <time>2021-08-24T13:17:00Z</time>
      </trkpt>
      <trkpt lat="45.358" lon="5.83228">
        <ele>1131.6</ele>
        <time>2021-08-24T13:17:02Z</time>
      </trkpt>
      <trkpt lat="45.35799" lon="5.83223">
        <ele>1131.6</ele>
        <time>2021-08-24T13:17:03Z</time>
      </trkpt>
      <trkpt lat="45.35799" lon="5.83217">
        <ele>1131.5</ele>
        <time>2021-08-24T13:17:04Z</time>
      </trkpt>
      <trkpt lat="45.35799" lon="5.83213">
        <ele>1131.5</ele>
        <time>2021-08-24T13:17:05Z</time>
      </trkpt>
      <trkpt lat="45.35799" lon="5.83209">
        <ele>1131.4</ele>
        <time>2021-08-24T13:17:07Z</time>
      </trkpt>
      <trkpt lat="45.35799" lon="5.83205">
        <ele>1131.4</ele>
        <time>2021-08-24T13:17:08Z</time>
      </trkpt>
      <trkpt lat="45.35799" lon="5.83203">
        <ele>1131.4</ele>
        <time>2021-08-24T13:17:09Z</time>
      </trkpt>
      <trkpt lat="45.35798" lon="5.83198">
        <ele>1131.3</ele>
        <time>2021-08-24T13:17:10Z</time>
      </trkpt>
      <trkpt lat="45.35797" lon="5.83196">
        <ele>1131.3</ele>
        <time>2021-08-24T13:17:11Z</time>
      </trkpt>
      <trkpt lat="45.35795" lon="5.83191">
        <ele>1131.2</ele>
        <time>2021-08-24T13:17:13Z</time>
      </trkpt>
      <trkpt lat="45.35794" lon="5.83187">
        <ele>1131.1</ele>
        <time>2021-08-24T13:17:14Z</time>
      </trkpt>
      <trkpt lat="45.35793" lon="5.83185">
        <ele>1131</ele>
        <time>2021-08-24T13:17:15Z</time>
      </trkpt>
      <trkpt lat="45.35791" lon="5.83179">
        <ele>1130.9</ele>
        <time>2021-08-24T13:17:16Z</time>
      </trkpt>
      <trkpt lat="45.3579" lon="5.83176">
        <ele>1130.8</ele>
        <time>2021-08-24T13:17:17Z</time>
      </trkpt>
      <trkpt lat="45.3579" lon="5.83172">
        <ele>1130.8</ele>
        <time>2021-08-24T13:17:19Z</time>
      </trkpt>
      <trkpt lat="45.35789" lon="5.83168">
        <ele>1130.7</ele>
        <time>2021-08-24T13:17:20Z</time>
      </trkpt>
      <trkpt lat="45.35787" lon="5.83164">
        <ele>1130.6</ele>
        <time>2021-08-24T13:17:22Z</time>
      </trkpt>
      <trkpt lat="45.35786" lon="5.83161">
        <ele>1130.5</ele>
        <time>2021-08-24T13:17:23Z</time>
      </trkpt>
      <trkpt lat="45.35785" lon="5.8316">
        <ele>1130.5</ele>
        <time>2021-08-24T13:17:24Z</time>
      </trkpt>
      <trkpt lat="45.35785" lon="5.8316">
        <ele>1130.5</ele>
        <time>2021-08-24T13:17:25Z</time>
      </trkpt>
      <trkpt lat="45.35787" lon="5.83161">
        <ele>1130.4</ele>
        <time>2021-08-24T13:17:27Z</time>
      </trkpt>
      <trkpt lat="45.35788" lon="5.83162">
        <ele>1130.4</ele>
        <time>2021-08-24T13:17:28Z</time>
      </trkpt>
      <trkpt lat="45.35788" lon="5.83162">
        <ele>1130.4</ele>
        <time>2021-08-24T13:17:29Z</time>
      </trkpt>
      <trkpt lat="45.35788" lon="5.83162">
        <ele>1130.4</ele>
        <time>2021-08-24T13:17:30Z</time>
      </trkpt>
      <trkpt lat="45.35788" lon="5.83162">
        <ele>1130.4</ele>
        <time>2021-08-24T13:17:31Z</time>
      </trkpt>
      <trkpt lat="45.35789" lon="5.83162">
        <ele>1130.4</ele>
        <time>2021-08-24T13:17:33Z</time>
      </trkpt>
      <trkpt lat="45.35789" lon="5.83162">
        <ele>1130.4</ele>
        <time>2021-08-24T13:17:34Z</time>
      </trkpt>
      <trkpt lat="45.35779" lon="5.83171">
        <ele>1130</ele>
        <time>2021-08-24T13:18:00Z</time>
      </trkpt>
      <trkpt lat="45.35778" lon="5.83169">
        <ele>1130</ele>
        <time>2021-08-24T13:18:01Z</time>
      </trkpt>
      <trkpt lat="45.35779" lon="5.83168">
        <ele>1130</ele>
        <time>2021-08-24T13:18:02Z</time>
      </trkpt>
      <trkpt lat="45.35779" lon="5.83167">
        <ele>1130</ele>
        <time>2021-08-24T13:18:03Z</time>
      </trkpt>
      <trkpt lat="45.35779" lon="5.83166">
        <ele>1130</ele>
        <time>2021-08-24T13:18:05Z</time>
      </trkpt>
      <trkpt lat="45.35779" lon="5.83166">
        <ele>1129.9</ele>
        <time>2021-08-24T13:18:06Z</time>
      </trkpt>
      <trkpt lat="45.3578" lon="5.83166">
        <ele>1129.9</ele>
        <time>2021-08-24T13:18:07Z</time>
      </trkpt>
      <trkpt lat="45.3578" lon="5.83166">
        <ele>1129.9</ele>
        <time>2021-08-24T13:18:09Z</time>
      </trkpt>
      <trkpt lat="45.3578" lon="5.83165">
        <ele>1129.9</ele>
        <time>2021-08-24T13:18:11Z</time>
      </trkpt>
      <trkpt lat="45.3579" lon="5.8316">
        <ele>1129.7</ele>
        <time>2021-08-24T13:18:39Z</time>
      </trkpt>
      <trkpt lat="45.35788" lon="5.83156">
        <ele>1129.6</ele>
        <time>2021-08-24T13:18:40Z</time>
      </trkpt>
      <trkpt lat="45.35786" lon="5.83151">
        <ele>1129.6</ele>
        <time>2021-08-24T13:18:42Z</time>
      </trkpt>
      <trkpt lat="45.35784" lon="5.83146">
        <ele>1129.6</ele>
        <time>2021-08-24T13:18:43Z</time>
      </trkpt>
      <trkpt lat="45.35782" lon="5.83144">
        <ele>1129.6</ele>
        <time>2021-08-24T13:18:44Z</time>
      </trkpt>
      <trkpt lat="45.35779" lon="5.83141">
        <ele>1129.5</ele>
        <time>2021-08-24T13:18:45Z</time>
      </trkpt>
      <trkpt lat="45.35778" lon="5.8314">
        <ele>1129.5</ele>
        <time>2021-08-24T13:18:46Z</time>
      </trkpt>
      <trkpt lat="45.35776" lon="5.83139">
        <ele>1129.5</ele>
        <time>2021-08-24T13:18:47Z</time>
      </trkpt>
      <trkpt lat="45.35774" lon="5.83137">
        <ele>1129.5</ele>
        <time>2021-08-24T13:18:49Z</time>
      </trkpt>
      <trkpt lat="45.35773" lon="5.83135">
        <ele>1129.5</ele>
        <time>2021-08-24T13:18:50Z</time>
      </trkpt>
      <trkpt lat="45.35772" lon="5.83134">
        <ele>1129.5</ele>
        <time>2021-08-24T13:18:51Z</time>
      </trkpt>
      <trkpt lat="45.35771" lon="5.83133">
        <ele>1129.5</ele>
        <time>2021-08-24T13:18:53Z</time>
      </trkpt>
      <trkpt lat="45.3577" lon="5.83132">
        <ele>1129.5</ele>
        <time>2021-08-24T13:18:54Z</time>
      </trkpt>
      <trkpt lat="45.35768" lon="5.8313">
        <ele>1129.5</ele>
        <time>2021-08-24T13:18:55Z</time>
      </trkpt>
      <trkpt lat="45.35767" lon="5.83128">
        <ele>1129.5</ele>
        <time>2021-08-24T13:18:57Z</time>
      </trkpt>
      <trkpt lat="45.35765" lon="5.83126">
        <ele>1129.5</ele>
        <time>2021-08-24T13:18:58Z</time>
      </trkpt>
      <trkpt lat="45.35763" lon="5.83124">
        <ele>1129.7</ele>
        <time>2021-08-24T13:19:00Z</time>
      </trkpt>
      <trkpt lat="45.35759" lon="5.83123">
        <ele>1130.1</ele>
        <time>2021-08-24T13:19:02Z</time>
      </trkpt>
      <trkpt lat="45.35758" lon="5.83123">
        <ele>1130.2</ele>
        <time>2021-08-24T13:19:03Z</time>
      </trkpt>
      <trkpt lat="45.35756" lon="5.83123">
        <ele>1130.3</ele>
        <time>2021-08-24T13:19:04Z</time>
      </trkpt>
      <trkpt lat="45.35754" lon="5.83121">
        <ele>1130.6</ele>
        <time>2021-08-24T13:19:06Z</time>
      </trkpt>
      <trkpt lat="45.35752" lon="5.83121">
        <ele>1130.7</ele>
        <time>2021-08-24T13:19:07Z</time>
      </trkpt>
      <trkpt lat="45.35752" lon="5.83121">
        <ele>1130.7</ele>
        <time>2021-08-24T13:19:08Z</time>
      </trkpt>
      <trkpt lat="45.35751" lon="5.8312">
        <ele>1130.8</ele>
        <time>2021-08-24T13:19:10Z</time>
      </trkpt>
      <trkpt lat="45.3575" lon="5.8312">
        <ele>1130.9</ele>
        <time>2021-08-24T13:19:11Z</time>
      </trkpt>
      <trkpt lat="45.3575" lon="5.8312">
        <ele>1130.9</ele>
        <time>2021-08-24T13:19:12Z</time>
      </trkpt>
      <trkpt lat="45.35749" lon="5.8312">
        <ele>1130.9</ele>
        <time>2021-08-24T13:19:13Z</time>
      </trkpt>
      <trkpt lat="45.35749" lon="5.8312">
        <ele>1130.9</ele>
        <time>2021-08-24T13:19:15Z</time>
      </trkpt>
      <trkpt lat="45.35749" lon="5.8312">
        <ele>1131</ele>
        <time>2021-08-24T13:19:16Z</time>
      </trkpt>
      <trkpt lat="45.357" lon="5.83141">
        <ele>1134.9</ele>
        <time>2021-08-24T13:21:04Z</time>
      </trkpt>
      <trkpt lat="45.35697" lon="5.83143">
        <ele>1135.2</ele>
        <time>2021-08-24T13:21:05Z</time>
      </trkpt>
      <trkpt lat="45.35695" lon="5.83144">
        <ele>1135.4</ele>
        <time>2021-08-24T13:21:06Z</time>
      </trkpt>
      <trkpt lat="45.35693" lon="5.83145">
        <ele>1135.5</ele>
        <time>2021-08-24T13:21:07Z</time>
      </trkpt>
      <trkpt lat="45.35691" lon="5.83146">
        <ele>1135.7</ele>
        <time>2021-08-24T13:21:09Z</time>
      </trkpt>
      <trkpt lat="45.3569" lon="5.83147">
        <ele>1135.8</ele>
        <time>2021-08-24T13:21:10Z</time>
      </trkpt>
      <trkpt lat="45.35689" lon="5.83147">
        <ele>1135.9</ele>
        <time>2021-08-24T13:21:11Z</time>
      </trkpt>
      <trkpt lat="45.35688" lon="5.83148">
        <ele>1136</ele>
        <time>2021-08-24T13:21:12Z</time>
      </trkpt>
      <trkpt lat="45.35688" lon="5.83148">
        <ele>1136</ele>
        <time>2021-08-24T13:21:14Z</time>
      </trkpt>
      <trkpt lat="45.35688" lon="5.83148">
        <ele>1136</ele>
        <time>2021-08-24T13:21:15Z</time>
      </trkpt>
      <trkpt lat="45.35687" lon="5.83148">
        <ele>1136.1</ele>
        <time>2021-08-24T13:21:16Z</time>
      </trkpt>
      <trkpt lat="45.35687" lon="5.83148">
        <ele>1136.1</ele>
        <time>2021-08-24T13:21:18Z</time>
      </trkpt>
      <trkpt lat="45.35687" lon="5.83149">
        <ele>1136.1</ele>
        <time>2021-08-24T13:21:19Z</time>
      </trkpt>
      <trkpt lat="45.35686" lon="5.8315">
        <ele>1136.2</ele>
        <time>2021-08-24T13:21:20Z</time>
      </trkpt>
      <trkpt lat="45.35686" lon="5.83152">
        <ele>1136.3</ele>
        <time>2021-08-24T13:21:21Z</time>
      </trkpt>
      <trkpt lat="45.35662" lon="5.83093">
        <ele>1140.4</ele>
        <time>2021-08-24T13:22:21Z</time>
      </trkpt>
      <trkpt lat="45.35662" lon="5.83091">
        <ele>1140.5</ele>
        <time>2021-08-24T13:22:23Z</time>
      </trkpt>
      <trkpt lat="45.35661" lon="5.83089">
        <ele>1140.7</ele>
        <time>2021-08-24T13:22:24Z</time>
      </trkpt>
      <trkpt lat="45.3566" lon="5.83089">
        <ele>1140.7</ele>
        <time>2021-08-24T13:22:25Z</time>
      </trkpt>
      <trkpt lat="45.3566" lon="5.83088">
        <ele>1140.8</ele>
        <time>2021-08-24T13:22:27Z</time>
      </trkpt>
      <trkpt lat="45.3566" lon="5.83087">
        <ele>1140.8</ele>
        <time>2021-08-24T13:22:28Z</time>
      </trkpt>
      <trkpt lat="45.35659" lon="5.83086">
        <ele>1140.9</ele>
        <time>2021-08-24T13:22:30Z</time>
      </trkpt>
      <trkpt lat="45.35659" lon="5.83086">
        <ele>1140.9</ele>
        <time>2021-08-24T13:22:31Z</time>
      </trkpt>
      <trkpt lat="45.35659" lon="5.83086">
        <ele>1140.9</ele>
        <time>2021-08-24T13:22:33Z</time>
      </trkpt>
      <trkpt lat="45.35659" lon="5.83086">
        <ele>1140.9</ele>
        <time>2021-08-24T13:22:34Z</time>
      </trkpt>
      <trkpt lat="45.35659" lon="5.83085">
        <ele>1141</ele>
        <time>2021-08-24T13:22:36Z</time>
      </trkpt>
      <trkpt lat="45.35659" lon="5.83085">
        <ele>1141</ele>
        <time>2021-08-24T13:22:38Z</time>
      </trkpt>
      <trkpt lat="45.35659" lon="5.83085">
        <ele>1141</ele>
        <time>2021-08-24T13:22:39Z</time>
      </trkpt>
      <trkpt lat="45.35659" lon="5.83085">
        <ele>1141</ele>
        <time>2021-08-24T13:22:40Z</time>
      </trkpt>
      <trkpt lat="45.35659" lon="5.83085">
        <ele>1141</ele>
        <time>2021-08-24T13:22:41Z</time>
      </trkpt>
      <trkpt lat="45.35659" lon="5.83085">
        <ele>1141</ele>
        <time>2021-08-24T13:22:42Z</time>
      </trkpt>
      <trkpt lat="45.35659" lon="5.83085">
        <ele>1141</ele>
        <time>2021-08-24T13:22:44Z</time>
      </trkpt>
      <trkpt lat="45.35659" lon="5.83085">
        <ele>1141</ele>
        <time>2021-08-24T13:22:45Z</time>
      </trkpt>
      <trkpt lat="45.35659" lon="5.83085">
        <ele>1141</ele>
        <time>2021-08-24T13:22:47Z</time>
      </trkpt>
      <trkpt lat="45.35659" lon="5.83085">
        <ele>1141</ele>
        <time>2021-08-24T13:22:48Z</time>
      </trkpt>
      <trkpt lat="45.35658" lon="5.83085">
        <ele>1141.1</ele>
        <time>2021-08-24T13:22:49Z</time>
      </trkpt>
      <trkpt lat="45.35658" lon="5.83085">
        <ele>1141.1</ele>
        <time>2021-08-24T13:22:50Z</time>
      </trkpt>
      <trkpt lat="45.35658" lon="5.83085">
        <ele>1141.1</ele>
        <time>2021-08-24T13:22:52Z</time>
      </trkpt>
      <trkpt lat="45.35658" lon="5.83086">
        <ele>1141.1</ele>
        <time>2021-08-24T13:22:53Z</time>
      </trkpt>
      <trkpt lat="45.35656" lon="5.83086">
        <ele>1141.3</ele>
        <time>2021-08-24T13:22:54Z</time>
      </trkpt>
      <trkpt lat="45.35654" lon="5.83088">
        <ele>1141.5</ele>
        <time>2021-08-24T13:22:56Z</time>
      </trkpt>
      <trkpt lat="45.35653" lon="5.83089">
        <ele>1141.6</ele>
        <time>2021-08-24T13:22:57Z</time>
      </trkpt>
      <trkpt lat="45.35652" lon="5.8309">
        <ele>1141.6</ele>
        <time>2021-08-24T13:22:58Z</time>
      </trkpt>
      <trkpt lat="45.35652" lon="5.8309">
        <ele>1141.7</ele>
        <time>2021-08-24T13:23:00Z</time>
      </trkpt>
      <trkpt lat="45.35651" lon="5.83089">
        <ele>1141.8</ele>
        <time>2021-08-24T13:23:01Z</time>
      </trkpt>
      <trkpt lat="45.35649" lon="5.83088">
        <ele>1141.9</ele>
        <time>2021-08-24T13:23:02Z</time>
      </trkpt>
      <trkpt lat="45.35648" lon="5.83088">
        <ele>1142</ele>
        <time>2021-08-24T13:23:04Z</time>
      </trkpt>
      <trkpt lat="45.35648" lon="5.83087">
        <ele>1142.1</ele>
        <time>2021-08-24T13:23:05Z</time>
      </trkpt>
      <trkpt lat="45.35647" lon="5.83086">
        <ele>1142.2</ele>
        <time>2021-08-24T13:23:06Z</time>
      </trkpt>
      <trkpt lat="45.35646" lon="5.83086">
        <ele>1142.2</ele>
        <time>2021-08-24T13:23:07Z</time>
      </trkpt>
      <trkpt lat="45.35646" lon="5.83086">
        <ele>1142.3</ele>
        <time>2021-08-24T13:23:09Z</time>
      </trkpt>
      <trkpt lat="45.35646" lon="5.83085">
        <ele>1142.3</ele>
        <time>2021-08-24T13:23:10Z</time>
      </trkpt>
      <trkpt lat="45.35645" lon="5.83085">
        <ele>1142.3</ele>
        <time>2021-08-24T13:23:11Z</time>
      </trkpt>
      <trkpt lat="45.35645" lon="5.83085">
        <ele>1142.4</ele>
        <time>2021-08-24T13:23:13Z</time>
      </trkpt>
      <trkpt lat="45.35645" lon="5.83085">
        <ele>1142.4</ele>
        <time>2021-08-24T13:23:14Z</time>
      </trkpt>
      <trkpt lat="45.35645" lon="5.83085">
        <ele>1142.4</ele>
        <time>2021-08-24T13:23:16Z</time>
      </trkpt>
      <trkpt lat="45.35644" lon="5.83085">
        <ele>1142.5</ele>
        <time>2021-08-24T13:23:17Z</time>
      </trkpt>
      <trkpt lat="45.35644" lon="5.83084">
        <ele>1142.5</ele>
        <time>2021-08-24T13:23:18Z</time>
      </trkpt>
      <trkpt lat="45.35643" lon="5.83085">
        <ele>1143.1</ele>
        <time>2021-08-24T13:23:19Z</time>
      </trkpt>
      <trkpt lat="45.35642" lon="5.83085">
        <ele>1143.1</ele>
        <time>2021-08-24T13:23:21Z</time>
      </trkpt>
      <trkpt lat="45.3564" lon="5.83085">
        <ele>1143.2</ele>
        <time>2021-08-24T13:23:22Z</time>
      </trkpt>
      <trkpt lat="45.35638" lon="5.83086">
        <ele>1143.8</ele>
        <time>2021-08-24T13:23:23Z</time>
      </trkpt>
      <trkpt lat="45.35637" lon="5.83086">
        <ele>1144.5</ele>
        <time>2021-08-24T13:23:24Z</time>
      </trkpt>
      <trkpt lat="45.35635" lon="5.83087">
        <ele>1145.1</ele>
        <time>2021-08-24T13:23:26Z</time>
      </trkpt>
      <trkpt lat="45.35634" lon="5.83087">
        <ele>1145.1</ele>
        <time>2021-08-24T13:23:27Z</time>
      </trkpt>
      <trkpt lat="45.35633" lon="5.83087">
        <ele>1145.8</ele>
        <time>2021-08-24T13:23:28Z</time>
      </trkpt>
      <trkpt lat="45.3563" lon="5.83088">
        <ele>1146.4</ele>
        <time>2021-08-24T13:23:30Z</time>
      </trkpt>
      <trkpt lat="45.35628" lon="5.83088">
        <ele>1146.4</ele>
        <time>2021-08-24T13:23:31Z</time>
      </trkpt>
      <trkpt lat="45.35625" lon="5.83088">
        <ele>1146.9</ele>
        <time>2021-08-24T13:23:33Z</time>
      </trkpt>
      <trkpt lat="45.35624" lon="5.83088">
        <ele>1147.5</ele>
        <time>2021-08-24T13:23:34Z</time>
      </trkpt>
      <trkpt lat="45.35623" lon="5.83089">
        <ele>1147.5</ele>
        <time>2021-08-24T13:23:35Z</time>
      </trkpt>
      <trkpt lat="45.35622" lon="5.83089">
        <ele>1147.5</ele>
        <time>2021-08-24T13:23:37Z</time>
      </trkpt>
      <trkpt lat="45.35618" lon="5.83088">
        <ele>1148.7</ele>
        <time>2021-08-24T13:23:39Z</time>
      </trkpt>
      <trkpt lat="45.35616" lon="5.83088">
        <ele>1148.7</ele>
        <time>2021-08-24T13:23:40Z</time>
      </trkpt>
      <trkpt lat="45.35615" lon="5.83087">
        <ele>1149.4</ele>
        <time>2021-08-24T13:23:41Z</time>
      </trkpt>
      <trkpt lat="45.35614" lon="5.83087">
        <ele>1149.4</ele>
        <time>2021-08-24T13:23:42Z</time>
      </trkpt>
      <trkpt lat="45.35611" lon="5.83086">
        <ele>1149.5</ele>
        <time>2021-08-24T13:23:43Z</time>
      </trkpt>
      <trkpt lat="45.3561" lon="5.83085">
        <ele>1149.5</ele>
        <time>2021-08-24T13:23:45Z</time>
      </trkpt>
      <trkpt lat="45.35608" lon="5.83085">
        <ele>1150.2</ele>
        <time>2021-08-24T13:23:47Z</time>
      </trkpt>
      <trkpt lat="45.35607" lon="5.83084">
        <ele>1150.9</ele>
        <time>2021-08-24T13:23:48Z</time>
      </trkpt>
      <trkpt lat="45.35604" lon="5.83083">
        <ele>1150.9</ele>
        <time>2021-08-24T13:23:49Z</time>
      </trkpt>
      <trkpt lat="45.35601" lon="5.83082">
        <ele>1150.9</ele>
        <time>2021-08-24T13:23:50Z</time>
      </trkpt>
      <trkpt lat="45.356" lon="5.83081">
        <ele>1151.4</ele>
        <time>2021-08-24T13:23:51Z</time>
      </trkpt>
      <trkpt lat="45.35598" lon="5.83081">
        <ele>1151.4</ele>
        <time>2021-08-24T13:23:52Z</time>
      </trkpt>
      <trkpt lat="45.35597" lon="5.8308">
        <ele>1152</ele>
        <time>2021-08-24T13:23:53Z</time>
      </trkpt>
      <trkpt lat="45.35596" lon="5.8308">
        <ele>1152</ele>
        <time>2021-08-24T13:23:56Z</time>
      </trkpt>
      <trkpt lat="45.35595" lon="5.83079">
        <ele>1152.1</ele>
        <time>2021-08-24T13:23:57Z</time>
      </trkpt>
      <trkpt lat="45.35594" lon="5.83079">
        <ele>1152.6</ele>
        <time>2021-08-24T13:23:58Z</time>
      </trkpt>
      <trkpt lat="45.35593" lon="5.83078">
        <ele>1152</ele>
        <time>2021-08-24T13:23:59Z</time>
      </trkpt>
      <trkpt lat="45.35592" lon="5.83077">
        <ele>1152.1</ele>
        <time>2021-08-24T13:24:00Z</time>
      </trkpt>
      <trkpt lat="45.35591" lon="5.83077">
        <ele>1152.6</ele>
        <time>2021-08-24T13:24:01Z</time>
      </trkpt>
      <trkpt lat="45.35587" lon="5.83076">
        <ele>1153.2</ele>
        <time>2021-08-24T13:24:02Z</time>
      </trkpt>
      <trkpt lat="45.35585" lon="5.83076">
        <ele>1153.8</ele>
        <time>2021-08-24T13:24:04Z</time>
      </trkpt>
      <trkpt lat="45.35583" lon="5.83077">
        <ele>1153.8</ele>
        <time>2021-08-24T13:24:06Z</time>
      </trkpt>
      <trkpt lat="45.35581" lon="5.83077">
        <ele>1154.3</ele>
        <time>2021-08-24T13:24:08Z</time>
      </trkpt>
      <trkpt lat="45.3558" lon="5.83077">
        <ele>1154.3</ele>
        <time>2021-08-24T13:24:09Z</time>
      </trkpt>
      <trkpt lat="45.3558" lon="5.83077">
        <ele>1154.4</ele>
        <time>2021-08-24T13:24:10Z</time>
      </trkpt>
      <trkpt lat="45.35578" lon="5.83076">
        <ele>1154.9</ele>
        <time>2021-08-24T13:24:11Z</time>
      </trkpt>
      <trkpt lat="45.35577" lon="5.83075">
        <ele>1154.9</ele>
        <time>2021-08-24T13:24:13Z</time>
      </trkpt>
      <trkpt lat="45.35576" lon="5.83074">
        <ele>1155.3</ele>
        <time>2021-08-24T13:24:14Z</time>
      </trkpt>
      <trkpt lat="45.35575" lon="5.83074">
        <ele>1154.7</ele>
        <time>2021-08-24T13:24:15Z</time>
      </trkpt>
      <trkpt lat="45.35574" lon="5.83073">
        <ele>1154.8</ele>
        <time>2021-08-24T13:24:17Z</time>
      </trkpt>
      <trkpt lat="45.35574" lon="5.83072">
        <ele>1154.8</ele>
        <time>2021-08-24T13:24:18Z</time>
      </trkpt>
      <trkpt lat="45.35571" lon="5.83071">
        <ele>1155.2</ele>
        <time>2021-08-24T13:24:20Z</time>
      </trkpt>
      <trkpt lat="45.3557" lon="5.8307">
        <ele>1155.6</ele>
        <time>2021-08-24T13:24:21Z</time>
      </trkpt>
      <trkpt lat="45.35568" lon="5.83067">
        <ele>1155</ele>
        <time>2021-08-24T13:24:22Z</time>
      </trkpt>
      <trkpt lat="45.35566" lon="5.83065">
        <ele>1154.8</ele>
        <time>2021-08-24T13:24:24Z</time>
      </trkpt>
      <trkpt lat="45.35564" lon="5.83062">
        <ele>1155.1</ele>
        <time>2021-08-24T13:24:25Z</time>
      </trkpt>
      <trkpt lat="45.35563" lon="5.83059">
        <ele>1154.6</ele>
        <time>2021-08-24T13:24:26Z</time>
      </trkpt>
      <trkpt lat="45.35561" lon="5.83057">
        <ele>1154.9</ele>
        <time>2021-08-24T13:24:27Z</time>
      </trkpt>
      <trkpt lat="45.35559" lon="5.83054">
        <ele>1154.4</ele>
        <time>2021-08-24T13:24:29Z</time>
      </trkpt>
      <trkpt lat="45.35558" lon="5.83051">
        <ele>1154.2</ele>
        <time>2021-08-24T13:24:30Z</time>
      </trkpt>
      <trkpt lat="45.35556" lon="5.83049">
        <ele>1154.3</ele>
        <time>2021-08-24T13:24:43Z</time>
      </trkpt>
      <trkpt lat="45.35554" lon="5.83046">
        <ele>1154.1</ele>
        <time>2021-08-24T13:24:44Z</time>
      </trkpt>
      <trkpt lat="45.35551" lon="5.83044">
        <ele>1154.5</ele>
        <time>2021-08-24T13:24:45Z</time>
      </trkpt>
      <trkpt lat="45.35547" lon="5.83041">
        <ele>1154.4</ele>
        <time>2021-08-24T13:24:47Z</time>
      </trkpt>
      <trkpt lat="45.35544" lon="5.83037">
        <ele>1154.2</ele>
        <time>2021-08-24T13:24:48Z</time>
      </trkpt>
      <trkpt lat="45.35541" lon="5.83035">
        <ele>1153.9</ele>
        <time>2021-08-24T13:24:49Z</time>
      </trkpt>
      <trkpt lat="45.35537" lon="5.83031">
        <ele>1154.4</ele>
        <time>2021-08-24T13:24:51Z</time>
      </trkpt>
      <trkpt lat="45.35535" lon="5.83029">
        <ele>1153.8</ele>
        <time>2021-08-24T13:24:52Z</time>
      </trkpt>
      <trkpt lat="45.35532" lon="5.83026">
        <ele>1153.5</ele>
        <time>2021-08-24T13:24:53Z</time>
      </trkpt>
      <trkpt lat="45.35529" lon="5.83023">
        <ele>1153.8</ele>
        <time>2021-08-24T13:24:55Z</time>
      </trkpt>
      <trkpt lat="45.35526" lon="5.8302">
        <ele>1153.6</ele>
        <time>2021-08-24T13:24:56Z</time>
      </trkpt>
      <trkpt lat="45.35525" lon="5.83019">
        <ele>1153.9</ele>
        <time>2021-08-24T13:24:57Z</time>
      </trkpt>
      <trkpt lat="45.35523" lon="5.83016">
        <ele>1153.3</ele>
        <time>2021-08-24T13:24:58Z</time>
      </trkpt>
      <trkpt lat="45.35521" lon="5.83012">
        <ele>1153</ele>
        <time>2021-08-24T13:24:59Z</time>
      </trkpt>
      <trkpt lat="45.35518" lon="5.83008">
        <ele>1152.6</ele>
        <time>2021-08-24T13:25:01Z</time>
      </trkpt>
      <trkpt lat="45.35515" lon="5.83002">
        <ele>1152.1</ele>
        <time>2021-08-24T13:25:02Z</time>
      </trkpt>
      <trkpt lat="45.35513" lon="5.82996">
        <ele>1150.6</ele>
        <time>2021-08-24T13:25:04Z</time>
      </trkpt>
      <trkpt lat="45.35512" lon="5.82991">
        <ele>1149.9</ele>
        <time>2021-08-24T13:25:05Z</time>
      </trkpt>
      <trkpt lat="45.3551" lon="5.82988">
        <ele>1149.9</ele>
        <time>2021-08-24T13:25:06Z</time>
      </trkpt>
      <trkpt lat="45.35508" lon="5.82982">
        <ele>1148.4</ele>
        <time>2021-08-24T13:25:07Z</time>
      </trkpt>
      <trkpt lat="45.35507" lon="5.82978">
        <ele>1147.7</ele>
        <time>2021-08-24T13:25:09Z</time>
      </trkpt>
      <trkpt lat="45.35503" lon="5.82974">
        <ele>1146.9</ele>
        <time>2021-08-24T13:25:11Z</time>
      </trkpt>
      <trkpt lat="45.35499" lon="5.82972">
        <ele>1147</ele>
        <time>2021-08-24T13:25:12Z</time>
      </trkpt>
      <trkpt lat="45.35496" lon="5.82971">
        <ele>1147.1</ele>
        <time>2021-08-24T13:25:15Z</time>
      </trkpt>
      <trkpt lat="45.35494" lon="5.8297">
        <ele>1146.2</ele>
        <time>2021-08-24T13:25:16Z</time>
      </trkpt>
      <trkpt lat="45.35491" lon="5.8297">
        <ele>1146.3</ele>
        <time>2021-08-24T13:25:18Z</time>
      </trkpt>
      <trkpt lat="45.35486" lon="5.82971">
        <ele>1147.2</ele>
        <time>2021-08-24T13:25:19Z</time>
      </trkpt>
      <trkpt lat="45.35483" lon="5.82972">
        <ele>1147.3</ele>
        <time>2021-08-24T13:25:20Z</time>
      </trkpt>
      <trkpt lat="45.35479" lon="5.82974">
        <ele>1147.4</ele>
        <time>2021-08-24T13:25:21Z</time>
      </trkpt>
      <trkpt lat="45.35471" lon="5.82981">
        <ele>1149.6</ele>
        <time>2021-08-24T13:25:23Z</time>
      </trkpt>
      <trkpt lat="45.35464" lon="5.82984">
        <ele>1150.9</ele>
        <time>2021-08-24T13:25:24Z</time>
      </trkpt>
      <trkpt lat="45.35456" lon="5.82984">
        <ele>1151.3</ele>
        <time>2021-08-24T13:25:25Z</time>
      </trkpt>
      <trkpt lat="45.35442" lon="5.8298">
        <ele>1151.2</ele>
        <time>2021-08-24T13:25:27Z</time>
      </trkpt>
      <trkpt lat="45.35429" lon="5.82973">
        <ele>1149.6</ele>
        <time>2021-08-24T13:25:29Z</time>
      </trkpt>
      <trkpt lat="45.35422" lon="5.8297">
        <ele>1148.7</ele>
        <time>2021-08-24T13:25:30Z</time>
      </trkpt>
      <trkpt lat="45.35408" lon="5.82963">
        <ele>1147.7</ele>
        <time>2021-08-24T13:25:32Z</time>
      </trkpt>
      <trkpt lat="45.35395" lon="5.82956">
        <ele>1145.6</ele>
        <time>2021-08-24T13:25:34Z</time>
      </trkpt>
      <trkpt lat="45.35389" lon="5.82952">
        <ele>1144.5</ele>
        <time>2021-08-24T13:25:35Z</time>
      </trkpt>
      <trkpt lat="45.35376" lon="5.82945">
        <ele>1142</ele>
        <time>2021-08-24T13:25:37Z</time>
      </trkpt>
      <trkpt lat="45.35363" lon="5.82935">
        <ele>1139.3</ele>
        <time>2021-08-24T13:25:39Z</time>
      </trkpt>
      <trkpt lat="45.35356" lon="5.82929">
        <ele>1138</ele>
        <time>2021-08-24T13:25:40Z</time>
      </trkpt>
      <trkpt lat="45.3534" lon="5.82922">
        <ele>1135.5</ele>
        <time>2021-08-24T13:25:42Z</time>
      </trkpt>
      <trkpt lat="45.35326" lon="5.82918">
        <ele>1134.6</ele>
        <time>2021-08-24T13:25:44Z</time>
      </trkpt>
      <trkpt lat="45.3532" lon="5.82915">
        <ele>1134.8</ele>
        <time>2021-08-24T13:25:45Z</time>
      </trkpt>
      <trkpt lat="45.35315" lon="5.82914">
        <ele>1133.6</ele>
        <time>2021-08-24T13:25:46Z</time>
      </trkpt>
      <trkpt lat="45.35309" lon="5.82913">
        <ele>1133.7</ele>
        <time>2021-08-24T13:25:48Z</time>
      </trkpt>
      <trkpt lat="45.35304" lon="5.82916">
        <ele>1135.2</ele>
        <time>2021-08-24T13:25:50Z</time>
      </trkpt>
      <trkpt lat="45.35301" lon="5.82919">
        <ele>1135.3</ele>
        <time>2021-08-24T13:25:52Z</time>
      </trkpt>
      <trkpt lat="45.35299" lon="5.8292">
        <ele>1136.7</ele>
        <time>2021-08-24T13:25:53Z</time>
      </trkpt>
      <trkpt lat="45.35298" lon="5.8292">
        <ele>1136.8</ele>
        <time>2021-08-24T13:25:54Z</time>
      </trkpt>
      <trkpt lat="45.35298" lon="5.8292">
        <ele>1136.8</ele>
        <time>2021-08-24T13:25:55Z</time>
      </trkpt>
      <trkpt lat="45.35298" lon="5.8292">
        <ele>1136.8</ele>
        <time>2021-08-24T13:25:56Z</time>
      </trkpt>
      <trkpt lat="45.35298" lon="5.8292">
        <ele>1136.9</ele>
        <time>2021-08-24T13:25:57Z</time>
      </trkpt>
      <trkpt lat="45.35297" lon="5.82921">
        <ele>1136.9</ele>
        <time>2021-08-24T13:25:59Z</time>
      </trkpt>
      <trkpt lat="45.35296" lon="5.82922">
        <ele>1137</ele>
        <time>2021-08-24T13:26:00Z</time>
      </trkpt>
      <trkpt lat="45.35291" lon="5.82929">
        <ele>1139.6</ele>
        <time>2021-08-24T13:26:02Z</time>
      </trkpt>
      <trkpt lat="45.35279" lon="5.82938">
        <ele>1142.8</ele>
        <time>2021-08-24T13:26:06Z</time>
      </trkpt>
      <trkpt lat="45.35274" lon="5.82938">
        <ele>1143.3</ele>
        <time>2021-08-24T13:26:08Z</time>
      </trkpt>
      <trkpt lat="45.35271" lon="5.82936">
        <ele>1142.4</ele>
        <time>2021-08-24T13:26:09Z</time>
      </trkpt>
      <trkpt lat="45.35269" lon="5.82934">
        <ele>1142.7</ele>
        <time>2021-08-24T13:26:10Z</time>
      </trkpt>
      <trkpt lat="45.35264" lon="5.82929">
        <ele>1141.8</ele>
        <time>2021-08-24T13:26:12Z</time>
      </trkpt>
      <trkpt lat="45.35263" lon="5.82925">
        <ele>1140.7</ele>
        <time>2021-08-24T13:26:13Z</time>
      </trkpt>
      <trkpt lat="45.35262" lon="5.82923">
        <ele>1140</ele>
        <time>2021-08-24T13:26:14Z</time>
      </trkpt>
      <trkpt lat="45.35261" lon="5.82916">
        <ele>1138.9</ele>
        <time>2021-08-24T13:26:15Z</time>
      </trkpt>
      <trkpt lat="45.35257" lon="5.82899">
        <ele>1134.6</ele>
        <time>2021-08-24T13:26:17Z</time>
      </trkpt>
      <trkpt lat="45.35254" lon="5.8289">
        <ele>1132.9</ele>
        <time>2021-08-24T13:26:18Z</time>
      </trkpt>
      <trkpt lat="45.35247" lon="5.82873">
        <ele>1129.1</ele>
        <time>2021-08-24T13:26:20Z</time>
      </trkpt>
      <trkpt lat="45.35243" lon="5.82866">
        <ele>1127.1</ele>
        <time>2021-08-24T13:26:21Z</time>
      </trkpt>
      <trkpt lat="45.35237" lon="5.82854">
        <ele>1123.8</ele>
        <time>2021-08-24T13:26:23Z</time>
      </trkpt>
      <trkpt lat="45.35228" lon="5.82839">
        <ele>1121.4</ele>
        <time>2021-08-24T13:26:25Z</time>
      </trkpt>
      <trkpt lat="45.35223" lon="5.82833">
        <ele>1120.1</ele>
        <time>2021-08-24T13:26:26Z</time>
      </trkpt>
      <trkpt lat="45.35213" lon="5.82821">
        <ele>1119.6</ele>
        <time>2021-08-24T13:26:28Z</time>
      </trkpt>
      <trkpt lat="45.35207" lon="5.82817">
        <ele>1119.3</ele>
        <time>2021-08-24T13:26:29Z</time>
      </trkpt>
      <trkpt lat="45.35202" lon="5.82811">
        <ele>1119.1</ele>
        <time>2021-08-24T13:26:30Z</time>
      </trkpt>
      <trkpt lat="45.35191" lon="5.82798">
        <ele>1118.6</ele>
        <time>2021-08-24T13:26:32Z</time>
      </trkpt>
      <trkpt lat="45.35186" lon="5.8279">
        <ele>1118.3</ele>
        <time>2021-08-24T13:26:33Z</time>
      </trkpt>
      <trkpt lat="45.35177" lon="5.82776">
        <ele>1117.9</ele>
        <time>2021-08-24T13:26:35Z</time>
      </trkpt>
      <trkpt lat="45.35173" lon="5.8277">
        <ele>1117.7</ele>
        <time>2021-08-24T13:26:36Z</time>
      </trkpt>
      <trkpt lat="45.35168" lon="5.82763">
        <ele>1117.5</ele>
        <time>2021-08-24T13:26:38Z</time>
      </trkpt>
      <trkpt lat="45.35165" lon="5.82761">
        <ele>1117.5</ele>
        <time>2021-08-24T13:26:39Z</time>
      </trkpt>
      <trkpt lat="45.35164" lon="5.82762">
        <ele>1117.5</ele>
        <time>2021-08-24T13:26:41Z</time>
      </trkpt>
      <trkpt lat="45.35165" lon="5.82762">
        <ele>1117.5</ele>
        <time>2021-08-24T13:26:42Z</time>
      </trkpt>
      <trkpt lat="45.35165" lon="5.82763">
        <ele>1117.4</ele>
        <time>2021-08-24T13:26:43Z</time>
      </trkpt>
      <trkpt lat="45.35165" lon="5.82763">
        <ele>1117.4</ele>
        <time>2021-08-24T13:26:44Z</time>
      </trkpt>
      <trkpt lat="45.35165" lon="5.82763">
        <ele>1117.4</ele>
        <time>2021-08-24T13:26:45Z</time>
      </trkpt>
      <trkpt lat="45.35169" lon="5.82764">
        <ele>1117.4</ele>
        <time>2021-08-24T13:26:47Z</time>
      </trkpt>
      <trkpt lat="45.3517" lon="5.82765">
        <ele>1117.4</ele>
        <time>2021-08-24T13:26:49Z</time>
      </trkpt>
      <trkpt lat="45.35188" lon="5.8277">
        <ele>1117.3</ele>
        <time>2021-08-24T13:27:48Z</time>
      </trkpt>
      <trkpt lat="45.35183" lon="5.82767">
        <ele>1117.4</ele>
        <time>2021-08-24T13:27:50Z</time>
      </trkpt>
      <trkpt lat="45.35176" lon="5.82761">
        <ele>1117.5</ele>
        <time>2021-08-24T13:27:51Z</time>
      </trkpt>
      <trkpt lat="45.3517" lon="5.82757">
        <ele>1117.7</ele>
        <time>2021-08-24T13:27:52Z</time>
      </trkpt>
      <trkpt lat="45.35163" lon="5.82751">
        <ele>1117.8</ele>
        <time>2021-08-24T13:27:54Z</time>
      </trkpt>
      <trkpt lat="45.35157" lon="5.82746">
        <ele>1117.9</ele>
        <time>2021-08-24T13:27:55Z</time>
      </trkpt>
      <trkpt lat="45.35153" lon="5.82743">
        <ele>1118</ele>
        <time>2021-08-24T13:27:56Z</time>
      </trkpt>
      <trkpt lat="45.35149" lon="5.82739">
        <ele>1118.1</ele>
        <time>2021-08-24T13:27:57Z</time>
      </trkpt>
      <trkpt lat="45.35145" lon="5.82736">
        <ele>1118.2</ele>
        <time>2021-08-24T13:27:58Z</time>
      </trkpt>
      <trkpt lat="45.35141" lon="5.82732">
        <ele>1118.2</ele>
        <time>2021-08-24T13:27:59Z</time>
      </trkpt>
      <trkpt lat="45.35137" lon="5.82728">
        <ele>1118.3</ele>
        <time>2021-08-24T13:28:01Z</time>
      </trkpt>
      <trkpt lat="45.3513" lon="5.8272">
        <ele>1118.5</ele>
        <time>2021-08-24T13:28:02Z</time>
      </trkpt>
      <trkpt lat="45.35122" lon="5.8271">
        <ele>1118.6</ele>
        <time>2021-08-24T13:28:04Z</time>
      </trkpt>
      <trkpt lat="45.35117" lon="5.82708">
        <ele>1118.9</ele>
        <time>2021-08-24T13:28:05Z</time>
      </trkpt>
      <trkpt lat="45.35112" lon="5.82703">
        <ele>1119.3</ele>
        <time>2021-08-24T13:28:07Z</time>
      </trkpt>
      <trkpt lat="45.35109" lon="5.827">
        <ele>1119.6</ele>
        <time>2021-08-24T13:28:08Z</time>
      </trkpt>
      <trkpt lat="45.35105" lon="5.82698">
        <ele>1119.9</ele>
        <time>2021-08-24T13:28:09Z</time>
      </trkpt>
      <trkpt lat="45.351" lon="5.82696">
        <ele>1120.3</ele>
        <time>2021-08-24T13:28:11Z</time>
      </trkpt>
      <trkpt lat="45.35096" lon="5.82695">
        <ele>1120.6</ele>
        <time>2021-08-24T13:28:12Z</time>
      </trkpt>
      <trkpt lat="45.35094" lon="5.82694">
        <ele>1120.9</ele>
        <time>2021-08-24T13:28:13Z</time>
      </trkpt>
      <trkpt lat="45.3509" lon="5.82694">
        <ele>1121.2</ele>
        <time>2021-08-24T13:28:14Z</time>
      </trkpt>
      <trkpt lat="45.35088" lon="5.82694">
        <ele>1121.3</ele>
        <time>2021-08-24T13:28:15Z</time>
      </trkpt>
      <trkpt lat="45.35086" lon="5.82695">
        <ele>1121.5</ele>
        <time>2021-08-24T13:28:16Z</time>
      </trkpt>
      <trkpt lat="45.35084" lon="5.82695">
        <ele>1121.7</ele>
        <time>2021-08-24T13:28:18Z</time>
      </trkpt>
      <trkpt lat="45.35082" lon="5.82695">
        <ele>1121.8</ele>
        <time>2021-08-24T13:28:19Z</time>
      </trkpt>
      <trkpt lat="45.3508" lon="5.82694">
        <ele>1122</ele>
        <time>2021-08-24T13:28:20Z</time>
      </trkpt>
      <trkpt lat="45.35079" lon="5.82693">
        <ele>1122.1</ele>
        <time>2021-08-24T13:28:21Z</time>
      </trkpt>
      <trkpt lat="45.35078" lon="5.82692">
        <ele>1122.3</ele>
        <time>2021-08-24T13:28:22Z</time>
      </trkpt>
      <trkpt lat="45.35077" lon="5.82691">
        <ele>1122.4</ele>
        <time>2021-08-24T13:28:23Z</time>
      </trkpt>
      <trkpt lat="45.35076" lon="5.82689">
        <ele>1122.6</ele>
        <time>2021-08-24T13:28:25Z</time>
      </trkpt>
      <trkpt lat="45.35075" lon="5.82687">
        <ele>1122.7</ele>
        <time>2021-08-24T13:28:26Z</time>
      </trkpt>
      <trkpt lat="45.35073" lon="5.82685">
        <ele>1122.9</ele>
        <time>2021-08-24T13:28:28Z</time>
      </trkpt>
      <trkpt lat="45.35071" lon="5.82679">
        <ele>1123.3</ele>
        <time>2021-08-24T13:28:30Z</time>
      </trkpt>
      <trkpt lat="45.3507" lon="5.82677">
        <ele>1123.4</ele>
        <time>2021-08-24T13:28:31Z</time>
      </trkpt>
      <trkpt lat="45.3507" lon="5.82675">
        <ele>1123.6</ele>
        <time>2021-08-24T13:28:32Z</time>
      </trkpt>
      <trkpt lat="45.35069" lon="5.82673">
        <ele>1123.7</ele>
        <time>2021-08-24T13:28:33Z</time>
      </trkpt>
      <trkpt lat="45.35068" lon="5.82669">
        <ele>1124</ele>
        <time>2021-08-24T13:28:35Z</time>
      </trkpt>
      <trkpt lat="45.35067" lon="5.82668">
        <ele>1124</ele>
        <time>2021-08-24T13:28:36Z</time>
      </trkpt>
      <trkpt lat="45.35066" lon="5.82665">
        <ele>1124.3</ele>
        <time>2021-08-24T13:28:38Z</time>
      </trkpt>
      <trkpt lat="45.35066" lon="5.82663">
        <ele>1124.4</ele>
        <time>2021-08-24T13:28:39Z</time>
      </trkpt>
      <trkpt lat="45.35064" lon="5.82657">
        <ele>1124.8</ele>
        <time>2021-08-24T13:28:41Z</time>
      </trkpt>
      <trkpt lat="45.35063" lon="5.82655">
        <ele>1125</ele>
        <time>2021-08-24T13:28:42Z</time>
      </trkpt>
      <trkpt lat="45.35062" lon="5.82654">
        <ele>1125.1</ele>
        <time>2021-08-24T13:28:43Z</time>
      </trkpt>
      <trkpt lat="45.35062" lon="5.82653">
        <ele>1125.1</ele>
        <time>2021-08-24T13:28:44Z</time>
      </trkpt>
      <trkpt lat="45.35061" lon="5.82651">
        <ele>1125.3</ele>
        <time>2021-08-24T13:28:45Z</time>
      </trkpt>
      <trkpt lat="45.3506" lon="5.82649">
        <ele>1125.4</ele>
        <time>2021-08-24T13:28:46Z</time>
      </trkpt>
      <trkpt lat="45.35059" lon="5.82647">
        <ele>1125.6</ele>
        <time>2021-08-24T13:28:48Z</time>
      </trkpt>
      <trkpt lat="45.35058" lon="5.82646">
        <ele>1125.7</ele>
        <time>2021-08-24T13:28:49Z</time>
      </trkpt>
      <trkpt lat="45.35057" lon="5.82644">
        <ele>1125.9</ele>
        <time>2021-08-24T13:28:50Z</time>
      </trkpt>
      <trkpt lat="45.35056" lon="5.82642">
        <ele>1126.1</ele>
        <time>2021-08-24T13:28:51Z</time>
      </trkpt>
      <trkpt lat="45.35054" lon="5.8264">
        <ele>1126.3</ele>
        <time>2021-08-24T13:28:53Z</time>
      </trkpt>
      <trkpt lat="45.35053" lon="5.82638">
        <ele>1126.4</ele>
        <time>2021-08-24T13:28:54Z</time>
      </trkpt>
      <trkpt lat="45.35052" lon="5.82634">
        <ele>1128.5</ele>
        <time>2021-08-24T13:28:55Z</time>
      </trkpt>
      <trkpt lat="45.35052" lon="5.82631">
        <ele>1128.5</ele>
        <time>2021-08-24T13:28:56Z</time>
      </trkpt>
      <trkpt lat="45.35052" lon="5.8263">
        <ele>1128.5</ele>
        <time>2021-08-24T13:28:58Z</time>
      </trkpt>
      <trkpt lat="45.35052" lon="5.82629">
        <ele>1128.4</ele>
        <time>2021-08-24T13:28:59Z</time>
      </trkpt>
      <trkpt lat="45.3505" lon="5.82626">
        <ele>1128.4</ele>
        <time>2021-08-24T13:29:00Z</time>
      </trkpt>
      <trkpt lat="45.3505" lon="5.82625">
        <ele>1128.3</ele>
        <time>2021-08-24T13:29:01Z</time>
      </trkpt>
      <trkpt lat="45.35049" lon="5.82624">
        <ele>1128.3</ele>
        <time>2021-08-24T13:29:02Z</time>
      </trkpt>
      <trkpt lat="45.35048" lon="5.82623">
        <ele>1128.2</ele>
        <time>2021-08-24T13:29:03Z</time>
      </trkpt>
      <trkpt lat="45.35048" lon="5.82622">
        <ele>1128.2</ele>
        <time>2021-08-24T13:29:04Z</time>
      </trkpt>
      <trkpt lat="45.35048" lon="5.82621">
        <ele>1128.2</ele>
        <time>2021-08-24T13:29:05Z</time>
      </trkpt>
      <trkpt lat="45.35047" lon="5.82621">
        <ele>1128.2</ele>
        <time>2021-08-24T13:29:07Z</time>
      </trkpt>
      <trkpt lat="45.35047" lon="5.8262">
        <ele>1128.1</ele>
        <time>2021-08-24T13:29:08Z</time>
      </trkpt>
      <trkpt lat="45.35047" lon="5.82619">
        <ele>1128.1</ele>
        <time>2021-08-24T13:29:09Z</time>
      </trkpt>
      <trkpt lat="45.35046" lon="5.82618">
        <ele>1128</ele>
        <time>2021-08-24T13:29:10Z</time>
      </trkpt>
      <trkpt lat="45.35045" lon="5.82617">
        <ele>1127.9</ele>
        <time>2021-08-24T13:29:11Z</time>
      </trkpt>
      <trkpt lat="45.35043" lon="5.82615">
        <ele>1127.8</ele>
        <time>2021-08-24T13:29:12Z</time>
      </trkpt>
      <trkpt lat="45.3504" lon="5.82613">
        <ele>1127.5</ele>
        <time>2021-08-24T13:29:14Z</time>
      </trkpt>
      <trkpt lat="45.35037" lon="5.8261">
        <ele>1127.2</ele>
        <time>2021-08-24T13:29:15Z</time>
      </trkpt>
      <trkpt lat="45.35033" lon="5.82609">
        <ele>1126.9</ele>
        <time>2021-08-24T13:29:17Z</time>
      </trkpt>
      <trkpt lat="45.3503" lon="5.82607">
        <ele>1126.6</ele>
        <time>2021-08-24T13:29:18Z</time>
      </trkpt>
      <trkpt lat="45.35023" lon="5.82603">
        <ele>1125.9</ele>
        <time>2021-08-24T13:29:19Z</time>
      </trkpt>
      <trkpt lat="45.35019" lon="5.82599">
        <ele>1125.5</ele>
        <time>2021-08-24T13:29:20Z</time>
      </trkpt>
      <trkpt lat="45.35014" lon="5.82596">
        <ele>1125</ele>
        <time>2021-08-24T13:29:21Z</time>
      </trkpt>
      <trkpt lat="45.35008" lon="5.8259">
        <ele>1124.3</ele>
        <time>2021-08-24T13:29:23Z</time>
      </trkpt>
      <trkpt lat="45.34998" lon="5.82579">
        <ele>1123.3</ele>
        <time>2021-08-24T13:29:25Z</time>
      </trkpt>
      <trkpt lat="45.3499" lon="5.82566">
        <ele>1122.3</ele>
        <time>2021-08-24T13:29:27Z</time>
      </trkpt>
      <trkpt lat="45.34986" lon="5.8256">
        <ele>1121.9</ele>
        <time>2021-08-24T13:29:28Z</time>
      </trkpt>
      <trkpt lat="45.34982" lon="5.82551">
        <ele>1121.4</ele>
        <time>2021-08-24T13:29:30Z</time>
      </trkpt>
      <trkpt lat="45.3498" lon="5.82545">
        <ele>1121</ele>
        <time>2021-08-24T13:29:31Z</time>
      </trkpt>
      <trkpt lat="45.34977" lon="5.8254">
        <ele>1120.7</ele>
        <time>2021-08-24T13:29:32Z</time>
      </trkpt>
      <trkpt lat="45.34974" lon="5.8253">
        <ele>1120.1</ele>
        <time>2021-08-24T13:29:35Z</time>
      </trkpt>
      <trkpt lat="45.34971" lon="5.82522">
        <ele>1119.5</ele>
        <time>2021-08-24T13:29:36Z</time>
      </trkpt>
      <trkpt lat="45.34968" lon="5.82517">
        <ele>1119</ele>
        <time>2021-08-24T13:29:37Z</time>
      </trkpt>
      <trkpt lat="45.34966" lon="5.82512">
        <ele>1118.6</ele>
        <time>2021-08-24T13:29:39Z</time>
      </trkpt>
      <trkpt lat="45.34964" lon="5.82505">
        <ele>1118</ele>
        <time>2021-08-24T13:29:40Z</time>
      </trkpt>
      <trkpt lat="45.34962" lon="5.825">
        <ele>1117.6</ele>
        <time>2021-08-24T13:29:41Z</time>
      </trkpt>
      <trkpt lat="45.3496" lon="5.82495">
        <ele>1117.2</ele>
        <time>2021-08-24T13:29:42Z</time>
      </trkpt>
      <trkpt lat="45.34955" lon="5.8249">
        <ele>1116.6</ele>
        <time>2021-08-24T13:29:44Z</time>
      </trkpt>
      <trkpt lat="45.34948" lon="5.82486">
        <ele>1115.8</ele>
        <time>2021-08-24T13:29:46Z</time>
      </trkpt>
      <trkpt lat="45.34945" lon="5.82484">
        <ele>1115.4</ele>
        <time>2021-08-24T13:29:47Z</time>
      </trkpt>
      <trkpt lat="45.34941" lon="5.82482">
        <ele>1115</ele>
        <time>2021-08-24T13:29:48Z</time>
      </trkpt>
      <trkpt lat="45.34934" lon="5.8248">
        <ele>1114.1</ele>
        <time>2021-08-24T13:29:50Z</time>
      </trkpt>
      <trkpt lat="45.34923" lon="5.82472">
        <ele>1112.8</ele>
        <time>2021-08-24T13:29:52Z</time>
      </trkpt>
      <trkpt lat="45.34917" lon="5.82468">
        <ele>1112</ele>
        <time>2021-08-24T13:29:53Z</time>
      </trkpt>
      <trkpt lat="45.34909" lon="5.82463">
        <ele>1111.2</ele>
        <time>2021-08-24T13:29:54Z</time>
      </trkpt>
      <trkpt lat="45.34892" lon="5.82452">
        <ele>1109.5</ele>
        <time>2021-08-24T13:29:56Z</time>
      </trkpt>
      <trkpt lat="45.34877" lon="5.8244">
        <ele>1108.1</ele>
        <time>2021-08-24T13:29:58Z</time>
      </trkpt>
      <trkpt lat="45.34869" lon="5.82433">
        <ele>1107.5</ele>
        <time>2021-08-24T13:29:59Z</time>
      </trkpt>
      <trkpt lat="45.34861" lon="5.82426">
        <ele>1106.8</ele>
        <time>2021-08-24T13:30:00Z</time>
      </trkpt>
      <trkpt lat="45.34847" lon="5.82412">
        <ele>1105.5</ele>
        <time>2021-08-24T13:30:02Z</time>
      </trkpt>
      <trkpt lat="45.34841" lon="5.82405">
        <ele>1104.9</ele>
        <time>2021-08-24T13:30:03Z</time>
      </trkpt>
      <trkpt lat="45.34834" lon="5.82398">
        <ele>1104.4</ele>
        <time>2021-08-24T13:30:04Z</time>
      </trkpt>
      <trkpt lat="45.34821" lon="5.82382">
        <ele>1103.1</ele>
        <time>2021-08-24T13:30:06Z</time>
      </trkpt>
      <trkpt lat="45.34807" lon="5.82374">
        <ele>1101.8</ele>
        <time>2021-08-24T13:30:08Z</time>
      </trkpt>
      <trkpt lat="45.34792" lon="5.82372">
        <ele>1100.1</ele>
        <time>2021-08-24T13:30:10Z</time>
      </trkpt>
      <trkpt lat="45.34784" lon="5.82372">
        <ele>1099.1</ele>
        <time>2021-08-24T13:30:11Z</time>
      </trkpt>
      <trkpt lat="45.34776" lon="5.82374">
        <ele>1098.2</ele>
        <time>2021-08-24T13:30:12Z</time>
      </trkpt>
      <trkpt lat="45.3476" lon="5.82383">
        <ele>1096</ele>
        <time>2021-08-24T13:30:14Z</time>
      </trkpt>
      <trkpt lat="45.34751" lon="5.82389">
        <ele>1094.7</ele>
        <time>2021-08-24T13:30:15Z</time>
      </trkpt>
      <trkpt lat="45.34737" lon="5.82398">
        <ele>1092.2</ele>
        <time>2021-08-24T13:30:17Z</time>
      </trkpt>
      <trkpt lat="45.34726" lon="5.82407">
        <ele>1090.8</ele>
        <time>2021-08-24T13:30:19Z</time>
      </trkpt>
      <trkpt lat="45.34721" lon="5.82411">
        <ele>1090.2</ele>
        <time>2021-08-24T13:30:20Z</time>
      </trkpt>
      <trkpt lat="45.34715" lon="5.82415">
        <ele>1089.4</ele>
        <time>2021-08-24T13:30:22Z</time>
      </trkpt>
      <trkpt lat="45.34712" lon="5.82416">
        <ele>1089.1</ele>
        <time>2021-08-24T13:30:23Z</time>
      </trkpt>
      <trkpt lat="45.34709" lon="5.82415">
        <ele>1088.6</ele>
        <time>2021-08-24T13:30:25Z</time>
      </trkpt>
      <trkpt lat="45.34707" lon="5.82413">
        <ele>1088.4</ele>
        <time>2021-08-24T13:30:26Z</time>
      </trkpt>
      <trkpt lat="45.34706" lon="5.82411">
        <ele>1088.2</ele>
        <time>2021-08-24T13:30:28Z</time>
      </trkpt>
      <trkpt lat="45.34705" lon="5.82408">
        <ele>1087.9</ele>
        <time>2021-08-24T13:30:30Z</time>
      </trkpt>
      <trkpt lat="45.34703" lon="5.82406">
        <ele>1087.6</ele>
        <time>2021-08-24T13:30:32Z</time>
      </trkpt>
      <trkpt lat="45.34702" lon="5.82404">
        <ele>1087.4</ele>
        <time>2021-08-24T13:30:34Z</time>
      </trkpt>
      <trkpt lat="45.347" lon="5.82402">
        <ele>1087.2</ele>
        <time>2021-08-24T13:30:35Z</time>
      </trkpt>
      <trkpt lat="45.34699" lon="5.82399">
        <ele>1086.9</ele>
        <time>2021-08-24T13:32:06Z</time>
      </trkpt>
      <trkpt lat="45.34697" lon="5.82397">
        <ele>1086.7</ele>
        <time>2021-08-24T13:32:07Z</time>
      </trkpt>
      <trkpt lat="45.34685" lon="5.82395">
        <ele>1085.3</ele>
        <time>2021-08-24T13:32:09Z</time>
      </trkpt>
      <trkpt lat="45.34679" lon="5.82392">
        <ele>1084.7</ele>
        <time>2021-08-24T13:32:10Z</time>
      </trkpt>
      <trkpt lat="45.34669" lon="5.82388">
        <ele>1083.6</ele>
        <time>2021-08-24T13:32:12Z</time>
      </trkpt>
      <trkpt lat="45.34663" lon="5.82386">
        <ele>1083.2</ele>
        <time>2021-08-24T13:32:13Z</time>
      </trkpt>
      <trkpt lat="45.34652" lon="5.82382">
        <ele>1082.3</ele>
        <time>2021-08-24T13:32:15Z</time>
      </trkpt>
      <trkpt lat="45.34645" lon="5.82382">
        <ele>1081.9</ele>
        <time>2021-08-24T13:32:16Z</time>
      </trkpt>
      <trkpt lat="45.34634" lon="5.82388">
        <ele>1081</ele>
        <time>2021-08-24T13:32:18Z</time>
      </trkpt>
      <trkpt lat="45.34621" lon="5.82394">
        <ele>1079.9</ele>
        <time>2021-08-24T13:32:20Z</time>
      </trkpt>
      <trkpt lat="45.34614" lon="5.82394">
        <ele>1079.3</ele>
        <time>2021-08-24T13:32:21Z</time>
      </trkpt>
      <trkpt lat="45.34602" lon="5.82387">
        <ele>1078.3</ele>
        <time>2021-08-24T13:32:23Z</time>
      </trkpt>
      <trkpt lat="45.34596" lon="5.82383">
        <ele>1077.7</ele>
        <time>2021-08-24T13:32:24Z</time>
      </trkpt>
      <trkpt lat="45.34583" lon="5.82377">
        <ele>1076.9</ele>
        <time>2021-08-24T13:32:26Z</time>
      </trkpt>
      <trkpt lat="45.3457" lon="5.82375">
        <ele>1076.3</ele>
        <time>2021-08-24T13:32:28Z</time>
      </trkpt>
      <trkpt lat="45.34565" lon="5.82375">
        <ele>1076.1</ele>
        <time>2021-08-24T13:32:29Z</time>
      </trkpt>
      <trkpt lat="45.34559" lon="5.82375">
        <ele>1076</ele>
        <time>2021-08-24T13:32:30Z</time>
      </trkpt>
      <trkpt lat="45.34548" lon="5.8237">
        <ele>1075.8</ele>
        <time>2021-08-24T13:32:32Z</time>
      </trkpt>
      <trkpt lat="45.34539" lon="5.82365">
        <ele>1075.8</ele>
        <time>2021-08-24T13:32:34Z</time>
      </trkpt>
      <trkpt lat="45.34528" lon="5.82358">
        <ele>1075.9</ele>
        <time>2021-08-24T13:32:36Z</time>
      </trkpt>
      <trkpt lat="45.34525" lon="5.82353">
        <ele>1075.9</ele>
        <time>2021-08-24T13:32:37Z</time>
      </trkpt>
      <trkpt lat="45.34516" lon="5.82348">
        <ele>1076</ele>
        <time>2021-08-24T13:32:39Z</time>
      </trkpt>
      <trkpt lat="45.3451" lon="5.82346">
        <ele>1076.1</ele>
        <time>2021-08-24T13:32:41Z</time>
      </trkpt>
      <trkpt lat="45.34508" lon="5.82343">
        <ele>1076.1</ele>
        <time>2021-08-24T13:32:42Z</time>
      </trkpt>
      <trkpt lat="45.34506" lon="5.82341">
        <ele>1076.1</ele>
        <time>2021-08-24T13:32:44Z</time>
      </trkpt>
      <trkpt lat="45.34505" lon="5.82341">
        <ele>1076.1</ele>
        <time>2021-08-24T13:32:45Z</time>
      </trkpt>
      <trkpt lat="45.34502" lon="5.82339">
        <ele>1076.1</ele>
        <time>2021-08-24T13:32:47Z</time>
      </trkpt>
      <trkpt lat="45.34502" lon="5.82339">
        <ele>1076.1</ele>
        <time>2021-08-24T13:32:48Z</time>
      </trkpt>
      <trkpt lat="45.34501" lon="5.82339">
        <ele>1076.1</ele>
        <time>2021-08-24T13:32:49Z</time>
      </trkpt>
      <trkpt lat="45.34501" lon="5.82339">
        <ele>1076.1</ele>
        <time>2021-08-24T13:32:50Z</time>
      </trkpt>
      <trkpt lat="45.34501" lon="5.82339">
        <ele>1076.1</ele>
        <time>2021-08-24T13:32:51Z</time>
      </trkpt>
      <trkpt lat="45.34501" lon="5.82339">
        <ele>1076.1</ele>
        <time>2021-08-24T13:32:53Z</time>
      </trkpt>
      <trkpt lat="45.345" lon="5.82339">
        <ele>1076.1</ele>
        <time>2021-08-24T13:32:55Z</time>
      </trkpt>
      <trkpt lat="45.34504" lon="5.82321">
        <ele>1076</ele>
        <time>2021-08-24T13:33:57Z</time>
      </trkpt>
      <trkpt lat="45.34502" lon="5.82317">
        <ele>1075.3</ele>
        <time>2021-08-24T13:33:58Z</time>
      </trkpt>
      <trkpt lat="45.34501" lon="5.82313">
        <ele>1074.6</ele>
        <time>2021-08-24T13:33:59Z</time>
      </trkpt>
      <trkpt lat="45.345" lon="5.82305">
        <ele>1073.3</ele>
        <time>2021-08-24T13:34:00Z</time>
      </trkpt>
      <trkpt lat="45.34498" lon="5.82296">
        <ele>1071.8</ele>
        <time>2021-08-24T13:34:02Z</time>
      </trkpt>
      <trkpt lat="45.34496" lon="5.82285">
        <ele>1070.2</ele>
        <time>2021-08-24T13:34:04Z</time>
      </trkpt>
      <trkpt lat="45.34495" lon="5.82279">
        <ele>1069.2</ele>
        <time>2021-08-24T13:34:05Z</time>
      </trkpt>
      <trkpt lat="45.34494" lon="5.82267">
        <ele>1067.4</ele>
        <time>2021-08-24T13:34:07Z</time>
      </trkpt>
      <trkpt lat="45.34494" lon="5.82259">
        <ele>1066.3</ele>
        <time>2021-08-24T13:34:08Z</time>
      </trkpt>
      <trkpt lat="45.34495" lon="5.82253">
        <ele>1065.5</ele>
        <time>2021-08-24T13:34:09Z</time>
      </trkpt>
      <trkpt lat="45.34495" lon="5.82243">
        <ele>1064</ele>
        <time>2021-08-24T13:34:11Z</time>
      </trkpt>
      <trkpt lat="45.34496" lon="5.82238">
        <ele>1063.3</ele>
        <time>2021-08-24T13:34:12Z</time>
      </trkpt>
      <trkpt lat="45.34497" lon="5.82232">
        <ele>1062.5</ele>
        <time>2021-08-24T13:34:13Z</time>
      </trkpt>
      <trkpt lat="45.34497" lon="5.82227">
        <ele>1061.7</ele>
        <time>2021-08-24T13:34:14Z</time>
      </trkpt>
      <trkpt lat="45.34497" lon="5.82219">
        <ele>1060.7</ele>
        <time>2021-08-24T13:34:15Z</time>
      </trkpt>
      <trkpt lat="45.34496" lon="5.82214">
        <ele>1059.9</ele>
        <time>2021-08-24T13:34:17Z</time>
      </trkpt>
      <trkpt lat="45.34495" lon="5.82209">
        <ele>1059.2</ele>
        <time>2021-08-24T13:34:18Z</time>
      </trkpt>
      <trkpt lat="45.34492" lon="5.82202">
        <ele>1058</ele>
        <time>2021-08-24T13:34:19Z</time>
      </trkpt>
      <trkpt lat="45.34489" lon="5.82197">
        <ele>1057.2</ele>
        <time>2021-08-24T13:34:21Z</time>
      </trkpt>
      <trkpt lat="45.34486" lon="5.82191">
        <ele>1056.3</ele>
        <time>2021-08-24T13:34:22Z</time>
      </trkpt>
      <trkpt lat="45.34483" lon="5.82187">
        <ele>1055.5</ele>
        <time>2021-08-24T13:34:23Z</time>
      </trkpt>
      <trkpt lat="45.34481" lon="5.82183">
        <ele>1054.9</ele>
        <time>2021-08-24T13:34:25Z</time>
      </trkpt>
      <trkpt lat="45.34478" lon="5.82178">
        <ele>1054.2</ele>
        <time>2021-08-24T13:34:26Z</time>
      </trkpt>
      <trkpt lat="45.34476" lon="5.82175">
        <ele>1053.7</ele>
        <time>2021-08-24T13:34:27Z</time>
      </trkpt>
      <trkpt lat="45.34472" lon="5.8217">
        <ele>1052.8</ele>
        <time>2021-08-24T13:34:29Z</time>
      </trkpt>
      <trkpt lat="45.3447" lon="5.82166">
        <ele>1052.3</ele>
        <time>2021-08-24T13:34:30Z</time>
      </trkpt>
      <trkpt lat="45.34465" lon="5.82163">
        <ele>1051.5</ele>
        <time>2021-08-24T13:34:32Z</time>
      </trkpt>
      <trkpt lat="45.34463" lon="5.82159">
        <ele>1050.8</ele>
        <time>2021-08-24T13:34:33Z</time>
      </trkpt>
      <trkpt lat="45.34462" lon="5.82158">
        <ele>1050.6</ele>
        <time>2021-08-24T13:34:34Z</time>
      </trkpt>
      <trkpt lat="45.34459" lon="5.82155">
        <ele>1050</ele>
        <time>2021-08-24T13:34:35Z</time>
      </trkpt>
      <trkpt lat="45.34456" lon="5.82154">
        <ele>1049.4</ele>
        <time>2021-08-24T13:34:37Z</time>
      </trkpt>
      <trkpt lat="45.34455" lon="5.82153">
        <ele>1049.2</ele>
        <time>2021-08-24T13:34:38Z</time>
      </trkpt>
      <trkpt lat="45.34454" lon="5.82153">
        <ele>1049</ele>
        <time>2021-08-24T13:34:39Z</time>
      </trkpt>
      <trkpt lat="45.34455" lon="5.82154">
        <ele>1048.7</ele>
        <time>2021-08-24T13:34:41Z</time>
      </trkpt>
      <trkpt lat="45.34456" lon="5.82154">
        <ele>1048.7</ele>
        <time>2021-08-24T13:34:42Z</time>
      </trkpt>
      <trkpt lat="45.34456" lon="5.82154">
        <ele>1048.7</ele>
        <time>2021-08-24T13:34:44Z</time>
      </trkpt>
      <trkpt lat="45.34456" lon="5.82153">
        <ele>1048.7</ele>
        <time>2021-08-24T13:34:46Z</time>
      </trkpt>
      <trkpt lat="45.34456" lon="5.82153">
        <ele>1048.6</ele>
        <time>2021-08-24T13:34:47Z</time>
      </trkpt>
      <trkpt lat="45.34456" lon="5.82153">
        <ele>1048.6</ele>
        <time>2021-08-24T13:34:48Z</time>
      </trkpt>
      <trkpt lat="45.34456" lon="5.82153">
        <ele>1048.6</ele>
        <time>2021-08-24T13:34:50Z</time>
      </trkpt>
      <trkpt lat="45.34454" lon="5.82131">
        <ele>1045.4</ele>
        <time>2021-08-24T13:35:16Z</time>
      </trkpt>
      <trkpt lat="45.34453" lon="5.82125">
        <ele>1044.6</ele>
        <time>2021-08-24T13:35:18Z</time>
      </trkpt>
      <trkpt lat="45.34448" lon="5.82122">
        <ele>1043.6</ele>
        <time>2021-08-24T13:35:19Z</time>
      </trkpt>
      <trkpt lat="45.34445" lon="5.8212">
        <ele>1042.6</ele>
        <time>2021-08-24T13:35:21Z</time>
      </trkpt>
      <trkpt lat="45.34442" lon="5.8212">
        <ele>1042</ele>
        <time>2021-08-24T13:35:22Z</time>
      </trkpt>
      <trkpt lat="45.34439" lon="5.82119">
        <ele>1041.3</ele>
        <time>2021-08-24T13:35:23Z</time>
      </trkpt>
      <trkpt lat="45.34434" lon="5.82118">
        <ele>1040.2</ele>
        <time>2021-08-24T13:35:25Z</time>
      </trkpt>
      <trkpt lat="45.34432" lon="5.82117">
        <ele>1039.8</ele>
        <time>2021-08-24T13:35:26Z</time>
      </trkpt>
      <trkpt lat="45.34431" lon="5.82116">
        <ele>1039.4</ele>
        <time>2021-08-24T13:35:27Z</time>
      </trkpt>
      <trkpt lat="45.34427" lon="5.82114">
        <ele>1038.6</ele>
        <time>2021-08-24T13:35:28Z</time>
      </trkpt>
      <trkpt lat="45.34425" lon="5.82113">
        <ele>1038</ele>
        <time>2021-08-24T13:35:29Z</time>
      </trkpt>
      <trkpt lat="45.3442" lon="5.8211">
        <ele>1037</ele>
        <time>2021-08-24T13:35:31Z</time>
      </trkpt>
      <trkpt lat="45.34417" lon="5.82108">
        <ele>1036.3</ele>
        <time>2021-08-24T13:35:32Z</time>
      </trkpt>
      <trkpt lat="45.34411" lon="5.82103">
        <ele>1034.9</ele>
        <time>2021-08-24T13:35:34Z</time>
      </trkpt>
      <trkpt lat="45.34407" lon="5.821">
        <ele>1034</ele>
        <time>2021-08-24T13:35:35Z</time>
      </trkpt>
      <trkpt lat="45.34403" lon="5.82098">
        <ele>1033.2</ele>
        <time>2021-08-24T13:35:36Z</time>
      </trkpt>
      <trkpt lat="45.34399" lon="5.82095">
        <ele>1032.3</ele>
        <time>2021-08-24T13:35:37Z</time>
      </trkpt>
      <trkpt lat="45.34396" lon="5.82093">
        <ele>1031.7</ele>
        <time>2021-08-24T13:35:38Z</time>
      </trkpt>
      <trkpt lat="45.34392" lon="5.82091">
        <ele>1030.9</ele>
        <time>2021-08-24T13:35:40Z</time>
      </trkpt>
      <trkpt lat="45.34388" lon="5.82088">
        <ele>1030.1</ele>
        <time>2021-08-24T13:35:41Z</time>
      </trkpt>
      <trkpt lat="45.34384" lon="5.82085">
        <ele>1029.3</ele>
        <time>2021-08-24T13:35:43Z</time>
      </trkpt>
      <trkpt lat="45.3438" lon="5.8208">
        <ele>1028.2</ele>
        <time>2021-08-24T13:35:44Z</time>
      </trkpt>
      <trkpt lat="45.34376" lon="5.82075">
        <ele>1027.4</ele>
        <time>2021-08-24T13:35:46Z</time>
      </trkpt>
      <trkpt lat="45.34373" lon="5.82072">
        <ele>1026.9</ele>
        <time>2021-08-24T13:35:47Z</time>
      </trkpt>
      <trkpt lat="45.34368" lon="5.82069">
        <ele>1026.1</ele>
        <time>2021-08-24T13:35:49Z</time>
      </trkpt>
      <trkpt lat="45.34365" lon="5.82066">
        <ele>1025.6</ele>
        <time>2021-08-24T13:35:50Z</time>
      </trkpt>
      <trkpt lat="45.34361" lon="5.82064">
        <ele>1025.1</ele>
        <time>2021-08-24T13:35:51Z</time>
      </trkpt>
      <trkpt lat="45.34358" lon="5.82061">
        <ele>1024.5</ele>
        <time>2021-08-24T13:35:53Z</time>
      </trkpt>
      <trkpt lat="45.34355" lon="5.8206">
        <ele>1024.1</ele>
        <time>2021-08-24T13:35:54Z</time>
      </trkpt>
      <trkpt lat="45.34352" lon="5.82057">
        <ele>1023.6</ele>
        <time>2021-08-24T13:35:56Z</time>
      </trkpt>
      <trkpt lat="45.3435" lon="5.82054">
        <ele>1023.3</ele>
        <time>2021-08-24T13:35:58Z</time>
      </trkpt>
      <trkpt lat="45.34348" lon="5.82051">
        <ele>1022.9</ele>
        <time>2021-08-24T13:35:59Z</time>
      </trkpt>
      <trkpt lat="45.34346" lon="5.82048">
        <ele>1022.5</ele>
        <time>2021-08-24T13:36:00Z</time>
      </trkpt>
      <trkpt lat="45.34343" lon="5.82044">
        <ele>1022</ele>
        <time>2021-08-24T13:36:01Z</time>
      </trkpt>
      <trkpt lat="45.3434" lon="5.8204">
        <ele>1021.5</ele>
        <time>2021-08-24T13:36:02Z</time>
      </trkpt>
      <trkpt lat="45.34334" lon="5.82034">
        <ele>1020.6</ele>
        <time>2021-08-24T13:36:03Z</time>
      </trkpt>
      <trkpt lat="45.34329" lon="5.82027">
        <ele>1019.7</ele>
        <time>2021-08-24T13:36:05Z</time>
      </trkpt>
      <trkpt lat="45.34326" lon="5.82022">
        <ele>1019</ele>
        <time>2021-08-24T13:36:06Z</time>
      </trkpt>
      <trkpt lat="45.34323" lon="5.82016">
        <ele>1018.3</ele>
        <time>2021-08-24T13:36:07Z</time>
      </trkpt>
      <trkpt lat="45.34321" lon="5.82011">
        <ele>1017.7</ele>
        <time>2021-08-24T13:36:09Z</time>
      </trkpt>
      <trkpt lat="45.3432" lon="5.82007">
        <ele>1017.2</ele>
        <time>2021-08-24T13:36:10Z</time>
      </trkpt>
      <trkpt lat="45.34319" lon="5.82006">
        <ele>1017.1</ele>
        <time>2021-08-24T13:36:11Z</time>
      </trkpt>
      <trkpt lat="45.34318" lon="5.82001">
        <ele>1016.5</ele>
        <time>2021-08-24T13:36:13Z</time>
      </trkpt>
      <trkpt lat="45.34317" lon="5.82">
        <ele>1016.4</ele>
        <time>2021-08-24T13:36:14Z</time>
      </trkpt>
      <trkpt lat="45.34316" lon="5.81998">
        <ele>1016</ele>
        <time>2021-08-24T13:36:16Z</time>
      </trkpt>
      <trkpt lat="45.34315" lon="5.81997">
        <ele>1015.9</ele>
        <time>2021-08-24T13:36:17Z</time>
      </trkpt>
      <trkpt lat="45.34318" lon="5.82">
        <ele>1015.4</ele>
        <time>2021-08-24T13:36:18Z</time>
      </trkpt>
      <trkpt lat="45.3432" lon="5.82003">
        <ele>1015</ele>
        <time>2021-08-24T13:36:19Z</time>
      </trkpt>
      <trkpt lat="45.34321" lon="5.82006">
        <ele>1014.6</ele>
        <time>2021-08-24T13:36:21Z</time>
      </trkpt>
      <trkpt lat="45.34323" lon="5.82008">
        <ele>1014.3</ele>
        <time>2021-08-24T13:36:22Z</time>
      </trkpt>
      <trkpt lat="45.34325" lon="5.82011">
        <ele>1013.9</ele>
        <time>2021-08-24T13:36:24Z</time>
      </trkpt>
      <trkpt lat="45.34326" lon="5.82014">
        <ele>1013.6</ele>
        <time>2021-08-24T13:36:26Z</time>
      </trkpt>
      <trkpt lat="45.34328" lon="5.82017">
        <ele>1013.2</ele>
        <time>2021-08-24T13:40:06Z</time>
      </trkpt>
      <trkpt lat="45.34329" lon="5.8202">
        <ele>1012.9</ele>
        <time>2021-08-24T13:40:08Z</time>
      </trkpt>
      <trkpt lat="45.34331" lon="5.82022">
        <ele>1012.5</ele>
        <time>2021-08-24T13:40:09Z</time>
      </trkpt>
      <trkpt lat="45.34333" lon="5.82025">
        <ele>1012.2</ele>
        <time>2021-08-24T13:40:10Z</time>
      </trkpt>
      <trkpt lat="45.34335" lon="5.82029">
        <ele>1011.7</ele>
        <time>2021-08-24T13:40:11Z</time>
      </trkpt>
      <trkpt lat="45.3434" lon="5.82035">
        <ele>1010.8</ele>
        <time>2021-08-24T13:40:13Z</time>
      </trkpt>
      <trkpt lat="45.34341" lon="5.8204">
        <ele>1010.3</ele>
        <time>2021-08-24T13:40:14Z</time>
      </trkpt>
      <trkpt lat="45.34343" lon="5.82043">
        <ele>1009.9</ele>
        <time>2021-08-24T13:40:15Z</time>
      </trkpt>
      <trkpt lat="45.34343" lon="5.82049">
        <ele>1009.4</ele>
        <time>2021-08-24T13:40:17Z</time>
      </trkpt>
      <trkpt lat="45.34342" lon="5.82051">
        <ele>1009.1</ele>
        <time>2021-08-24T13:40:18Z</time>
      </trkpt>
      <trkpt lat="45.34341" lon="5.82052">
        <ele>1008.9</ele>
        <time>2021-08-24T13:40:19Z</time>
      </trkpt>
      <trkpt lat="45.34338" lon="5.82053">
        <ele>1008.4</ele>
        <time>2021-08-24T13:40:21Z</time>
      </trkpt>
      <trkpt lat="45.34337" lon="5.82053">
        <ele>1008.2</ele>
        <time>2021-08-24T13:40:22Z</time>
      </trkpt>
      <trkpt lat="45.34335" lon="5.82053">
        <ele>1007.9</ele>
        <time>2021-08-24T13:40:23Z</time>
      </trkpt>
      <trkpt lat="45.3433" lon="5.8205">
        <ele>1007.1</ele>
        <time>2021-08-24T13:40:25Z</time>
      </trkpt>
      <trkpt lat="45.34328" lon="5.82049">
        <ele>1006.6</ele>
        <time>2021-08-24T13:40:26Z</time>
      </trkpt>
      <trkpt lat="45.34324" lon="5.82048">
        <ele>1006.1</ele>
        <time>2021-08-24T13:40:27Z</time>
      </trkpt>
      <trkpt lat="45.34322" lon="5.82047">
        <ele>1005.6</ele>
        <time>2021-08-24T13:40:28Z</time>
      </trkpt>
      <trkpt lat="45.34316" lon="5.82044">
        <ele>1004.6</ele>
        <time>2021-08-24T13:40:29Z</time>
      </trkpt>
      <trkpt lat="45.34313" lon="5.82042">
        <ele>1003.9</ele>
        <time>2021-08-24T13:40:31Z</time>
      </trkpt>
      <trkpt lat="45.3431" lon="5.8204">
        <ele>1003.3</ele>
        <time>2021-08-24T13:40:32Z</time>
      </trkpt>
      <trkpt lat="45.34304" lon="5.82038">
        <ele>1002.2</ele>
        <time>2021-08-24T13:40:34Z</time>
      </trkpt>
      <trkpt lat="45.34302" lon="5.82036">
        <ele>1001.7</ele>
        <time>2021-08-24T13:40:35Z</time>
      </trkpt>
      <trkpt lat="45.343" lon="5.82033">
        <ele>1001</ele>
        <time>2021-08-24T13:40:36Z</time>
      </trkpt>
      <trkpt lat="45.34299" lon="5.82032">
        <ele>1000.9</ele>
        <time>2021-08-24T13:40:37Z</time>
      </trkpt>
      <trkpt lat="45.34298" lon="5.8203">
        <ele>1000.4</ele>
        <time>2021-08-24T13:40:38Z</time>
      </trkpt>
      <trkpt lat="45.34296" lon="5.82028">
        <ele>1000</ele>
        <time>2021-08-24T13:40:40Z</time>
      </trkpt>
      <trkpt lat="45.34293" lon="5.82027">
        <ele>999.3</ele>
        <time>2021-08-24T13:40:41Z</time>
      </trkpt>
      <trkpt lat="45.34292" lon="5.82026">
        <ele>999.1</ele>
        <time>2021-08-24T13:40:42Z</time>
      </trkpt>
      <trkpt lat="45.34289" lon="5.82024">
        <ele>998.4</ele>
        <time>2021-08-24T13:40:44Z</time>
      </trkpt>
      <trkpt lat="45.34285" lon="5.82022">
        <ele>997.7</ele>
        <time>2021-08-24T13:40:45Z</time>
      </trkpt>
      <trkpt lat="45.34282" lon="5.82021">
        <ele>996.9</ele>
        <time>2021-08-24T13:40:46Z</time>
      </trkpt>
      <trkpt lat="45.34279" lon="5.8202">
        <ele>996.4</ele>
        <time>2021-08-24T13:40:47Z</time>
      </trkpt>
      <trkpt lat="45.34276" lon="5.82021">
        <ele>995.7</ele>
        <time>2021-08-24T13:40:48Z</time>
      </trkpt>
      <trkpt lat="45.34275" lon="5.82021">
        <ele>995.5</ele>
        <time>2021-08-24T13:40:49Z</time>
      </trkpt>
      <trkpt lat="45.34273" lon="5.82022">
        <ele>995.1</ele>
        <time>2021-08-24T13:40:50Z</time>
      </trkpt>
      <trkpt lat="45.34272" lon="5.82022">
        <ele>994.9</ele>
        <time>2021-08-24T13:40:51Z</time>
      </trkpt>
      <trkpt lat="45.3427" lon="5.8202">
        <ele>994.4</ele>
        <time>2021-08-24T13:40:53Z</time>
      </trkpt>
      <trkpt lat="45.34269" lon="5.82019">
        <ele>990</ele>
        <time>2021-08-24T13:40:54Z</time>
      </trkpt>
      <trkpt lat="45.34268" lon="5.82017">
        <ele>989.5</ele>
        <time>2021-08-24T13:40:55Z</time>
      </trkpt>
      <trkpt lat="45.34268" lon="5.82013">
        <ele>988.9</ele>
        <time>2021-08-24T13:40:57Z</time>
      </trkpt>
      <trkpt lat="45.34267" lon="5.8201">
        <ele>988.2</ele>
        <time>2021-08-24T13:40:58Z</time>
      </trkpt>
      <trkpt lat="45.34267" lon="5.82001">
        <ele>986.7</ele>
        <time>2021-08-24T13:41:00Z</time>
      </trkpt>
      <trkpt lat="45.34268" lon="5.81997">
        <ele>985.9</ele>
        <time>2021-08-24T13:41:01Z</time>
      </trkpt>
      <trkpt lat="45.34271" lon="5.81992">
        <ele>984.8</ele>
        <time>2021-08-24T13:41:02Z</time>
      </trkpt>
      <trkpt lat="45.34273" lon="5.81987">
        <ele>983.8</ele>
        <time>2021-08-24T13:41:04Z</time>
      </trkpt>
      <trkpt lat="45.34275" lon="5.81982">
        <ele>982.8</ele>
        <time>2021-08-24T13:41:05Z</time>
      </trkpt>
      <trkpt lat="45.34277" lon="5.81977">
        <ele>981.7</ele>
        <time>2021-08-24T13:41:06Z</time>
      </trkpt>
      <trkpt lat="45.34281" lon="5.81968">
        <ele>979.9</ele>
        <time>2021-08-24T13:41:08Z</time>
      </trkpt>
      <trkpt lat="45.34286" lon="5.81962">
        <ele>978.4</ele>
        <time>2021-08-24T13:41:09Z</time>
      </trkpt>
      <trkpt lat="45.3429" lon="5.81958">
        <ele>977.2</ele>
        <time>2021-08-24T13:41:10Z</time>
      </trkpt>
      <trkpt lat="45.34297" lon="5.81951">
        <ele>975</ele>
        <time>2021-08-24T13:41:12Z</time>
      </trkpt>
      <trkpt lat="45.34302" lon="5.81946">
        <ele>973.4</ele>
        <time>2021-08-24T13:41:13Z</time>
      </trkpt>
      <trkpt lat="45.34309" lon="5.81941">
        <ele>971.4</ele>
        <time>2021-08-24T13:41:14Z</time>
      </trkpt>
      <trkpt lat="45.34314" lon="5.81938">
        <ele>970</ele>
        <time>2021-08-24T13:41:16Z</time>
      </trkpt>
      <trkpt lat="45.34319" lon="5.81935">
        <ele>968.8</ele>
        <time>2021-08-24T13:41:17Z</time>
      </trkpt>
      <trkpt lat="45.34322" lon="5.81933">
        <ele>968</ele>
        <time>2021-08-24T13:41:18Z</time>
      </trkpt>
      <trkpt lat="45.34327" lon="5.81931">
        <ele>966.7</ele>
        <time>2021-08-24T13:41:19Z</time>
      </trkpt>
      <trkpt lat="45.34332" lon="5.81928">
        <ele>965.4</ele>
        <time>2021-08-24T13:41:21Z</time>
      </trkpt>
      <trkpt lat="45.34335" lon="5.81927">
        <ele>964.5</ele>
        <time>2021-08-24T13:41:22Z</time>
      </trkpt>
      <trkpt lat="45.3434" lon="5.81923">
        <ele>963.3</ele>
        <time>2021-08-24T13:41:24Z</time>
      </trkpt>
      <trkpt lat="45.34344" lon="5.81921">
        <ele>962.2</ele>
        <time>2021-08-24T13:41:25Z</time>
      </trkpt>
      <trkpt lat="45.34347" lon="5.81919">
        <ele>961.4</ele>
        <time>2021-08-24T13:41:26Z</time>
      </trkpt>
      <trkpt lat="45.34351" lon="5.81916">
        <ele>960.1</ele>
        <time>2021-08-24T13:41:27Z</time>
      </trkpt>
      <trkpt lat="45.34354" lon="5.81915">
        <ele>959.4</ele>
        <time>2021-08-24T13:41:28Z</time>
      </trkpt>
      <trkpt lat="45.34357" lon="5.81914">
        <ele>958.7</ele>
        <time>2021-08-24T13:41:30Z</time>
      </trkpt>
      <trkpt lat="45.34359" lon="5.81912">
        <ele>958.1</ele>
        <time>2021-08-24T13:41:31Z</time>
      </trkpt>
      <trkpt lat="45.34362" lon="5.81908">
        <ele>957.1</ele>
        <time>2021-08-24T13:41:33Z</time>
      </trkpt>
      <trkpt lat="45.34365" lon="5.81906">
        <ele>956.2</ele>
        <time>2021-08-24T13:41:34Z</time>
      </trkpt>
      <trkpt lat="45.34366" lon="5.81906">
        <ele>955.8</ele>
        <time>2021-08-24T13:41:35Z</time>
      </trkpt>
      <trkpt lat="45.34369" lon="5.81903">
        <ele>955</ele>
        <time>2021-08-24T13:41:37Z</time>
      </trkpt>
      <trkpt lat="45.34372" lon="5.819">
        <ele>954</ele>
        <time>2021-08-24T13:41:39Z</time>
      </trkpt>
      <trkpt lat="45.34373" lon="5.81895">
        <ele>953.1</ele>
        <time>2021-08-24T13:41:40Z</time>
      </trkpt>
      <trkpt lat="45.34373" lon="5.81893">
        <ele>952.8</ele>
        <time>2021-08-24T13:41:41Z</time>
      </trkpt>
      <trkpt lat="45.34373" lon="5.81886">
        <ele>951.7</ele>
        <time>2021-08-24T13:41:42Z</time>
      </trkpt>
      <trkpt lat="45.34373" lon="5.81884">
        <ele>951.2</ele>
        <time>2021-08-24T13:41:43Z</time>
      </trkpt>
      <trkpt lat="45.34374" lon="5.81879">
        <ele>950.3</ele>
        <time>2021-08-24T13:41:45Z</time>
      </trkpt>
      <trkpt lat="45.34374" lon="5.81873">
        <ele>949.3</ele>
        <time>2021-08-24T13:41:46Z</time>
      </trkpt>
      <trkpt lat="45.34375" lon="5.81865">
        <ele>947.8</ele>
        <time>2021-08-24T13:41:48Z</time>
      </trkpt>
      <trkpt lat="45.34377" lon="5.8186">
        <ele>946.9</ele>
        <time>2021-08-24T13:41:49Z</time>
      </trkpt>
      <trkpt lat="45.34379" lon="5.81854">
        <ele>945.7</ele>
        <time>2021-08-24T13:41:50Z</time>
      </trkpt>
      <trkpt lat="45.34381" lon="5.81847">
        <ele>944.3</ele>
        <time>2021-08-24T13:41:52Z</time>
      </trkpt>
      <trkpt lat="45.34383" lon="5.81839">
        <ele>942.9</ele>
        <time>2021-08-24T13:41:53Z</time>
      </trkpt>
      <trkpt lat="45.34384" lon="5.81828">
        <ele>941</ele>
        <time>2021-08-24T13:41:54Z</time>
      </trkpt>
      <trkpt lat="45.34385" lon="5.81821">
        <ele>939.7</ele>
        <time>2021-08-24T13:41:56Z</time>
      </trkpt>
      <trkpt lat="45.34386" lon="5.81815">
        <ele>938.6</ele>
        <time>2021-08-24T13:41:57Z</time>
      </trkpt>
      <trkpt lat="45.34386" lon="5.8181">
        <ele>937.7</ele>
        <time>2021-08-24T13:41:59Z</time>
      </trkpt>
      <trkpt lat="45.34386" lon="5.81805">
        <ele>936.8</ele>
        <time>2021-08-24T13:42:00Z</time>
      </trkpt>
      <trkpt lat="45.34385" lon="5.818">
        <ele>936</ele>
        <time>2021-08-24T13:42:01Z</time>
      </trkpt>
      <trkpt lat="45.34384" lon="5.81793">
        <ele>934.7</ele>
        <time>2021-08-24T13:42:02Z</time>
      </trkpt>
      <trkpt lat="45.34383" lon="5.81786">
        <ele>933.5</ele>
        <time>2021-08-24T13:42:04Z</time>
      </trkpt>
      <trkpt lat="45.34383" lon="5.81781">
        <ele>932.6</ele>
        <time>2021-08-24T13:42:05Z</time>
      </trkpt>
      <trkpt lat="45.34383" lon="5.81775">
        <ele>931.4</ele>
        <time>2021-08-24T13:42:06Z</time>
      </trkpt>
      <trkpt lat="45.34383" lon="5.81771">
        <ele>930.8</ele>
        <time>2021-08-24T13:42:07Z</time>
      </trkpt>
      <trkpt lat="45.34382" lon="5.81766">
        <ele>929.9</ele>
        <time>2021-08-24T13:42:09Z</time>
      </trkpt>
      <trkpt lat="45.34383" lon="5.81764">
        <ele>929.6</ele>
        <time>2021-08-24T13:42:10Z</time>
      </trkpt>
      <trkpt lat="45.34384" lon="5.8176">
        <ele>928.8</ele>
        <time>2021-08-24T13:42:12Z</time>
      </trkpt>
      <trkpt lat="45.34385" lon="5.81759">
        <ele>928.6</ele>
        <time>2021-08-24T13:42:13Z</time>
      </trkpt>
      <trkpt lat="45.3439" lon="5.81759">
        <ele>927.2</ele>
        <time>2021-08-24T13:42:14Z</time>
      </trkpt>
      <trkpt lat="45.34392" lon="5.81758">
        <ele>926.7</ele>
        <time>2021-08-24T13:42:16Z</time>
      </trkpt>
      <trkpt lat="45.34393" lon="5.81758">
        <ele>926.5</ele>
        <time>2021-08-24T13:42:17Z</time>
      </trkpt>
      <trkpt lat="45.34393" lon="5.81758">
        <ele>926.4</ele>
        <time>2021-08-24T13:42:18Z</time>
      </trkpt>
      <trkpt lat="45.34394" lon="5.81758">
        <ele>926.3</ele>
        <time>2021-08-24T13:42:19Z</time>
      </trkpt>
      <trkpt lat="45.34395" lon="5.81759">
        <ele>926.1</ele>
        <time>2021-08-24T13:42:21Z</time>
      </trkpt>
      <trkpt lat="45.34395" lon="5.81759">
        <ele>926</ele>
        <time>2021-08-24T13:42:23Z</time>
      </trkpt>
      <trkpt lat="45.34399" lon="5.81748">
        <ele>923.9</ele>
        <time>2021-08-24T13:42:53Z</time>
      </trkpt>
      <trkpt lat="45.344" lon="5.81746">
        <ele>923.4</ele>
        <time>2021-08-24T13:42:54Z</time>
      </trkpt>
      <trkpt lat="45.34399" lon="5.81741">
        <ele>922.6</ele>
        <time>2021-08-24T13:42:56Z</time>
      </trkpt>
      <trkpt lat="45.34398" lon="5.81739">
        <ele>922.2</ele>
        <time>2021-08-24T13:42:57Z</time>
      </trkpt>
      <trkpt lat="45.34398" lon="5.81739">
        <ele>922.1</ele>
        <time>2021-08-24T13:42:58Z</time>
      </trkpt>
      <trkpt lat="45.34398" lon="5.81739">
        <ele>922.1</ele>
        <time>2021-08-24T13:42:59Z</time>
      </trkpt>
      <trkpt lat="45.34397" lon="5.81739">
        <ele>922.1</ele>
        <time>2021-08-24T13:43:00Z</time>
      </trkpt>
      <trkpt lat="45.34397" lon="5.81739">
        <ele>922</ele>
        <time>2021-08-24T13:43:02Z</time>
      </trkpt>
      <trkpt lat="45.34397" lon="5.81738">
        <ele>921.9</ele>
        <time>2021-08-24T13:43:03Z</time>
      </trkpt>
      <trkpt lat="45.34397" lon="5.81738">
        <ele>921.9</ele>
        <time>2021-08-24T13:43:04Z</time>
      </trkpt>
      <trkpt lat="45.34394" lon="5.81714">
        <ele>917.7</ele>
        <time>2021-08-24T13:43:06Z</time>
      </trkpt>
      <trkpt lat="45.34391" lon="5.81691">
        <ele>913.5</ele>
        <time>2021-08-24T13:44:23Z</time>
      </trkpt>
      <trkpt lat="45.34388" lon="5.81667">
        <ele>909.3</ele>
        <time>2021-08-24T13:44:24Z</time>
      </trkpt>
      <trkpt lat="45.34387" lon="5.81654">
        <ele>907</ele>
        <time>2021-08-24T13:44:25Z</time>
      </trkpt>
      <trkpt lat="45.34387" lon="5.81645">
        <ele>905.3</ele>
        <time>2021-08-24T13:44:27Z</time>
      </trkpt>
      <trkpt lat="45.34385" lon="5.81636">
        <ele>903.7</ele>
        <time>2021-08-24T13:44:28Z</time>
      </trkpt>
      <trkpt lat="45.34384" lon="5.81629">
        <ele>903.4</ele>
        <time>2021-08-24T13:44:29Z</time>
      </trkpt>
      <trkpt lat="45.34382" lon="5.81622">
        <ele>903.4</ele>
        <time>2021-08-24T13:44:31Z</time>
      </trkpt>
      <trkpt lat="45.34379" lon="5.81615">
        <ele>903.3</ele>
        <time>2021-08-24T13:44:33Z</time>
      </trkpt>
      <trkpt lat="45.34377" lon="5.81612">
        <ele>903.3</ele>
        <time>2021-08-24T13:44:34Z</time>
      </trkpt>
      <trkpt lat="45.34372" lon="5.8161">
        <ele>903.4</ele>
        <time>2021-08-24T13:44:35Z</time>
      </trkpt>
      <trkpt lat="45.34368" lon="5.81608">
        <ele>903.4</ele>
        <time>2021-08-24T13:44:37Z</time>
      </trkpt>
      <trkpt lat="45.34363" lon="5.81607">
        <ele>903.4</ele>
        <time>2021-08-24T13:44:39Z</time>
      </trkpt>
      <trkpt lat="45.34357" lon="5.81605">
        <ele>903.4</ele>
        <time>2021-08-24T13:44:41Z</time>
      </trkpt>
      <trkpt lat="45.34352" lon="5.81604">
        <ele>903.5</ele>
        <time>2021-08-24T13:44:42Z</time>
      </trkpt>
      <trkpt lat="45.34349" lon="5.81603">
        <ele>903.5</ele>
        <time>2021-08-24T13:44:43Z</time>
      </trkpt>
      <trkpt lat="45.34347" lon="5.81602">
        <ele>903.5</ele>
        <time>2021-08-24T13:44:44Z</time>
      </trkpt>
      <trkpt lat="45.34342" lon="5.81601">
        <ele>903.5</ele>
        <time>2021-08-24T13:44:47Z</time>
      </trkpt>
      <trkpt lat="45.34339" lon="5.81599">
        <ele>903.6</ele>
        <time>2021-08-24T13:44:48Z</time>
      </trkpt>
      <trkpt lat="45.34335" lon="5.81598">
        <ele>903.6</ele>
        <time>2021-08-24T13:44:49Z</time>
      </trkpt>
      <trkpt lat="45.34334" lon="5.81597">
        <ele>903.6</ele>
        <time>2021-08-24T13:44:50Z</time>
      </trkpt>
      <trkpt lat="45.34331" lon="5.81596">
        <ele>903.6</ele>
        <time>2021-08-24T13:44:51Z</time>
      </trkpt>
      <trkpt lat="45.34326" lon="5.81596">
        <ele>903.7</ele>
        <time>2021-08-24T13:44:53Z</time>
      </trkpt>
      <trkpt lat="45.34321" lon="5.81596">
        <ele>903.6</ele>
        <time>2021-08-24T13:44:54Z</time>
      </trkpt>
      <trkpt lat="45.34317" lon="5.81597">
        <ele>903.6</ele>
        <time>2021-08-24T13:44:55Z</time>
      </trkpt>
      <trkpt lat="45.34314" lon="5.81598">
        <ele>903.5</ele>
        <time>2021-08-24T13:44:56Z</time>
      </trkpt>
      <trkpt lat="45.34309" lon="5.816">
        <ele>903.3</ele>
        <time>2021-08-24T13:44:57Z</time>
      </trkpt>
      <trkpt lat="45.34304" lon="5.81601">
        <ele>903.1</ele>
        <time>2021-08-24T13:44:59Z</time>
      </trkpt>
      <trkpt lat="45.343" lon="5.81603">
        <ele>902.8</ele>
        <time>2021-08-24T13:45:00Z</time>
      </trkpt>
      <trkpt lat="45.34294" lon="5.81604">
        <ele>902.3</ele>
        <time>2021-08-24T13:45:02Z</time>
      </trkpt>
      <trkpt lat="45.34291" lon="5.81605">
        <ele>902.1</ele>
        <time>2021-08-24T13:45:03Z</time>
      </trkpt>
      <trkpt lat="45.34287" lon="5.81606">
        <ele>901.9</ele>
        <time>2021-08-24T13:45:04Z</time>
      </trkpt>
      <trkpt lat="45.34282" lon="5.81607">
        <ele>901.5</ele>
        <time>2021-08-24T13:45:06Z</time>
      </trkpt>
      <trkpt lat="45.34278" lon="5.81609">
        <ele>901.1</ele>
        <time>2021-08-24T13:45:07Z</time>
      </trkpt>
      <trkpt lat="45.34274" lon="5.81609">
        <ele>900.7</ele>
        <time>2021-08-24T13:45:08Z</time>
      </trkpt>
      <trkpt lat="45.34273" lon="5.8161">
        <ele>900.5</ele>
        <time>2021-08-24T13:45:09Z</time>
      </trkpt>
      <trkpt lat="45.3427" lon="5.81609">
        <ele>900.2</ele>
        <time>2021-08-24T13:45:11Z</time>
      </trkpt>
      <trkpt lat="45.34266" lon="5.81609">
        <ele>899.7</ele>
        <time>2021-08-24T13:45:12Z</time>
      </trkpt>
      <trkpt lat="45.34259" lon="5.81609">
        <ele>898.9</ele>
        <time>2021-08-24T13:45:13Z</time>
      </trkpt>
      <trkpt lat="45.34253" lon="5.81608">
        <ele>898.1</ele>
        <time>2021-08-24T13:45:15Z</time>
      </trkpt>
      <trkpt lat="45.34249" lon="5.81606">
        <ele>897.4</ele>
        <time>2021-08-24T13:45:16Z</time>
      </trkpt>
      <trkpt lat="45.34242" lon="5.81603">
        <ele>896.2</ele>
        <time>2021-08-24T13:45:17Z</time>
      </trkpt>
      <trkpt lat="45.34236" lon="5.81598">
        <ele>895.1</ele>
        <time>2021-08-24T13:45:19Z</time>
      </trkpt>
      <trkpt lat="45.34227" lon="5.81593">
        <ele>893.5</ele>
        <time>2021-08-24T13:45:21Z</time>
      </trkpt>
      <trkpt lat="45.34222" lon="5.81591">
        <ele>892.7</ele>
        <time>2021-08-24T13:45:22Z</time>
      </trkpt>
      <trkpt lat="45.34218" lon="5.81589">
        <ele>891.9</ele>
        <time>2021-08-24T13:45:23Z</time>
      </trkpt>
      <trkpt lat="45.34213" lon="5.81589">
        <ele>891.2</ele>
        <time>2021-08-24T13:45:24Z</time>
      </trkpt>
      <trkpt lat="45.34206" lon="5.81586">
        <ele>889.8</ele>
        <time>2021-08-24T13:45:26Z</time>
      </trkpt>
      <trkpt lat="45.34199" lon="5.81584">
        <ele>889</ele>
        <time>2021-08-24T13:45:28Z</time>
      </trkpt>
      <trkpt lat="45.34195" lon="5.81583">
        <ele>888.9</ele>
        <time>2021-08-24T13:45:29Z</time>
      </trkpt>
      <trkpt lat="45.34192" lon="5.81582">
        <ele>888.8</ele>
        <time>2021-08-24T13:45:30Z</time>
      </trkpt>
      <trkpt lat="45.34187" lon="5.8158">
        <ele>888.6</ele>
        <time>2021-08-24T13:45:32Z</time>
      </trkpt>
      <trkpt lat="45.34182" lon="5.81576">
        <ele>888.1</ele>
        <time>2021-08-24T13:45:34Z</time>
      </trkpt>
      <trkpt lat="45.34179" lon="5.8157">
        <ele>887.6</ele>
        <time>2021-08-24T13:45:36Z</time>
      </trkpt>
      <trkpt lat="45.34175" lon="5.81566">
        <ele>887.1</ele>
        <time>2021-08-24T13:45:37Z</time>
      </trkpt>
      <trkpt lat="45.3417" lon="5.8156">
        <ele>886.6</ele>
        <time>2021-08-24T13:45:39Z</time>
      </trkpt>
      <trkpt lat="45.34169" lon="5.81559">
        <ele>886.5</ele>
        <time>2021-08-24T13:45:40Z</time>
      </trkpt>
      <trkpt lat="45.34168" lon="5.81556">
        <ele>886.2</ele>
        <time>2021-08-24T13:45:42Z</time>
      </trkpt>
      <trkpt lat="45.34166" lon="5.81553">
        <ele>886</ele>
        <time>2021-08-24T13:45:43Z</time>
      </trkpt>
      <trkpt lat="45.34166" lon="5.81551">
        <ele>885.9</ele>
        <time>2021-08-24T13:45:44Z</time>
      </trkpt>
      <trkpt lat="45.34164" lon="5.81548">
        <ele>885.6</ele>
        <time>2021-08-24T13:45:45Z</time>
      </trkpt>
      <trkpt lat="45.34163" lon="5.81543">
        <ele>885.3</ele>
        <time>2021-08-24T13:45:47Z</time>
      </trkpt>
      <trkpt lat="45.34161" lon="5.81537">
        <ele>885</ele>
        <time>2021-08-24T13:45:48Z</time>
      </trkpt>
      <trkpt lat="45.3416" lon="5.81532">
        <ele>884.7</ele>
        <time>2021-08-24T13:45:50Z</time>
      </trkpt>
      <trkpt lat="45.34159" lon="5.81526">
        <ele>884.5</ele>
        <time>2021-08-24T13:45:51Z</time>
      </trkpt>
      <trkpt lat="45.34159" lon="5.81522">
        <ele>884.4</ele>
        <time>2021-08-24T13:45:53Z</time>
      </trkpt>
      <trkpt lat="45.34158" lon="5.81518">
        <ele>884.3</ele>
        <time>2021-08-24T13:45:55Z</time>
      </trkpt>
      <trkpt lat="45.34157" lon="5.81514">
        <ele>884.3</ele>
        <time>2021-08-24T13:45:56Z</time>
      </trkpt>
      <trkpt lat="45.34156" lon="5.81511">
        <ele>884.3</ele>
        <time>2021-08-24T13:45:57Z</time>
      </trkpt>
      <trkpt lat="45.34156" lon="5.81507">
        <ele>884.3</ele>
        <time>2021-08-24T13:45:59Z</time>
      </trkpt>
      <trkpt lat="45.34155" lon="5.81503">
        <ele>884.3</ele>
        <time>2021-08-24T13:46:01Z</time>
      </trkpt>
      <trkpt lat="45.34154" lon="5.81499">
        <ele>884.3</ele>
        <time>2021-08-24T13:46:32Z</time>
      </trkpt>
      <trkpt lat="45.34153" lon="5.81495">
        <ele>884.2</ele>
        <time>2021-08-24T13:46:33Z</time>
      </trkpt>
      <trkpt lat="45.34158" lon="5.81484">
        <ele>883.8</ele>
        <time>2021-08-24T13:46:35Z</time>
      </trkpt>
      <trkpt lat="45.34161" lon="5.81477">
        <ele>883.6</ele>
        <time>2021-08-24T13:46:36Z</time>
      </trkpt>
      <trkpt lat="45.34168" lon="5.81462">
        <ele>883.3</ele>
        <time>2021-08-24T13:46:38Z</time>
      </trkpt>
      <trkpt lat="45.34177" lon="5.8145">
        <ele>883</ele>
        <time>2021-08-24T13:46:40Z</time>
      </trkpt>
      <trkpt lat="45.34188" lon="5.8144">
        <ele>882.6</ele>
        <time>2021-08-24T13:46:42Z</time>
      </trkpt>
      <trkpt lat="45.34196" lon="5.81428">
        <ele>882.3</ele>
        <time>2021-08-24T13:46:44Z</time>
      </trkpt>
      <trkpt lat="45.34201" lon="5.81423">
        <ele>882.2</ele>
        <time>2021-08-24T13:46:45Z</time>
      </trkpt>
      <trkpt lat="45.34205" lon="5.81418">
        <ele>882</ele>
        <time>2021-08-24T13:46:46Z</time>
      </trkpt>
      <trkpt lat="45.34209" lon="5.81414">
        <ele>882</ele>
        <time>2021-08-24T13:46:47Z</time>
      </trkpt>
      <trkpt lat="45.34216" lon="5.81409">
        <ele>882.4</ele>
        <time>2021-08-24T13:46:49Z</time>
      </trkpt>
      <trkpt lat="45.34219" lon="5.81409">
        <ele>882.6</ele>
        <time>2021-08-24T13:46:50Z</time>
      </trkpt>
      <trkpt lat="45.34222" lon="5.81409">
        <ele>882.8</ele>
        <time>2021-08-24T13:46:51Z</time>
      </trkpt>
      <trkpt lat="45.34229" lon="5.8141">
        <ele>883.1</ele>
        <time>2021-08-24T13:46:53Z</time>
      </trkpt>
      <trkpt lat="45.34233" lon="5.81412">
        <ele>883.2</ele>
        <time>2021-08-24T13:46:54Z</time>
      </trkpt>
      <trkpt lat="45.34238" lon="5.81414">
        <ele>883.3</ele>
        <time>2021-08-24T13:46:55Z</time>
      </trkpt>
      <trkpt lat="45.34242" lon="5.81415">
        <ele>883.5</ele>
        <time>2021-08-24T13:46:56Z</time>
      </trkpt>
      <trkpt lat="45.34249" lon="5.81419">
        <ele>883.8</ele>
        <time>2021-08-24T13:46:57Z</time>
      </trkpt>
      <trkpt lat="45.34253" lon="5.81421">
        <ele>884</ele>
        <time>2021-08-24T13:46:58Z</time>
      </trkpt>
      <trkpt lat="45.34259" lon="5.81424">
        <ele>884.2</ele>
        <time>2021-08-24T13:47:00Z</time>
      </trkpt>
      <trkpt lat="45.34265" lon="5.81427">
        <ele>884.3</ele>
        <time>2021-08-24T13:47:02Z</time>
      </trkpt>
      <trkpt lat="45.34269" lon="5.81429">
        <ele>884.3</ele>
        <time>2021-08-24T13:47:03Z</time>
      </trkpt>
      <trkpt lat="45.34273" lon="5.81431">
        <ele>884.3</ele>
        <time>2021-08-24T13:47:05Z</time>
      </trkpt>
      <trkpt lat="45.34275" lon="5.81432">
        <ele>884.3</ele>
        <time>2021-08-24T13:47:06Z</time>
      </trkpt>
      <trkpt lat="45.34278" lon="5.81434">
        <ele>884.3</ele>
        <time>2021-08-24T13:47:08Z</time>
      </trkpt>
      <trkpt lat="45.34279" lon="5.81435">
        <ele>884.4</ele>
        <time>2021-08-24T13:47:09Z</time>
      </trkpt>
      <trkpt lat="45.34282" lon="5.81436">
        <ele>884.4</ele>
        <time>2021-08-24T13:47:11Z</time>
      </trkpt>
      <trkpt lat="45.34283" lon="5.81436">
        <ele>884.4</ele>
        <time>2021-08-24T13:47:12Z</time>
      </trkpt>
      <trkpt lat="45.34284" lon="5.81439">
        <ele>884.4</ele>
        <time>2021-08-24T13:47:14Z</time>
      </trkpt>
      <trkpt lat="45.34285" lon="5.81441">
        <ele>884.4</ele>
        <time>2021-08-24T13:47:15Z</time>
      </trkpt>
      <trkpt lat="45.34284" lon="5.81443">
        <ele>884.4</ele>
        <time>2021-08-24T13:47:17Z</time>
      </trkpt>
      <trkpt lat="45.34283" lon="5.81444">
        <ele>884.4</ele>
        <time>2021-08-24T13:47:18Z</time>
      </trkpt>
      <trkpt lat="45.34283" lon="5.81444">
        <ele>884.4</ele>
        <time>2021-08-24T13:47:19Z</time>
      </trkpt>
      <trkpt lat="45.34283" lon="5.81445">
        <ele>884.4</ele>
        <time>2021-08-24T13:47:21Z</time>
      </trkpt>
      <trkpt lat="45.34283" lon="5.81445">
        <ele>884.4</ele>
        <time>2021-08-24T13:47:22Z</time>
      </trkpt>
      <trkpt lat="45.34283" lon="5.81445">
        <ele>884.4</ele>
        <time>2021-08-24T13:47:24Z</time>
      </trkpt>
      <trkpt lat="45.3428" lon="5.81453">
        <ele>884.5</ele>
        <time>2021-08-24T13:49:33Z</time>
      </trkpt>
      <trkpt lat="45.3428" lon="5.81456">
        <ele>884.5</ele>
        <time>2021-08-24T13:49:39Z</time>
      </trkpt>
      <trkpt lat="45.34279" lon="5.81461">
        <ele>884.5</ele>
        <time>2021-08-24T13:49:46Z</time>
      </trkpt>
      <trkpt lat="45.34277" lon="5.81461">
        <ele>884.5</ele>
        <time>2021-08-24T13:49:52Z</time>
      </trkpt>
      <trkpt lat="45.34277" lon="5.81459">
        <ele>884.5</ele>
        <time>2021-08-24T13:49:53Z</time>
      </trkpt>
      <trkpt lat="45.34277" lon="5.81459">
        <ele>884.5</ele>
        <time>2021-08-24T13:49:54Z</time>
      </trkpt>
      <trkpt lat="45.34277" lon="5.8146">
        <ele>884.5</ele>
        <time>2021-08-24T13:49:56Z</time>
      </trkpt>
      <trkpt lat="45.3428" lon="5.81456">
        <ele>884.5</ele>
        <time>2021-08-24T13:50:05Z</time>
      </trkpt>
      <trkpt lat="45.34281" lon="5.81457">
        <ele>884.5</ele>
        <time>2021-08-24T13:50:11Z</time>
      </trkpt>
      <trkpt lat="45.3428" lon="5.81457">
        <ele>884.5</ele>
        <time>2021-08-24T13:50:13Z</time>
      </trkpt>
      <trkpt lat="45.3428" lon="5.81458">
        <ele>884.5</ele>
        <time>2021-08-24T13:50:14Z</time>
      </trkpt>
      <trkpt lat="45.3428" lon="5.81458">
        <ele>884.5</ele>
        <time>2021-08-24T13:50:15Z</time>
      </trkpt>
      <trkpt lat="45.3428" lon="5.81458">
        <ele>884.5</ele>
        <time>2021-08-24T13:50:16Z</time>
      </trkpt>
      <trkpt lat="45.3428" lon="5.81458">
        <ele>884.5</ele>
        <time>2021-08-24T13:50:17Z</time>
      </trkpt>
      <trkpt lat="45.3428" lon="5.81458">
        <ele>884.5</ele>
        <time>2021-08-24T13:50:19Z</time>
      </trkpt>
      <trkpt lat="45.3428" lon="5.81459">
        <ele>884.5</ele>
        <time>2021-08-24T13:50:21Z</time>
      </trkpt>
      <trkpt lat="45.3428" lon="5.81461">
        <ele>884.5</ele>
        <time>2021-08-24T13:50:24Z</time>
      </trkpt>
      <trkpt lat="45.34282" lon="5.81458">
        <ele>884.6</ele>
        <time>2021-08-24T13:50:25Z</time>
      </trkpt>
      <trkpt lat="45.34282" lon="5.81457">
        <ele>884.6</ele>
        <time>2021-08-24T13:50:26Z</time>
      </trkpt>
      <trkpt lat="45.34283" lon="5.81456">
        <ele>884.6</ele>
        <time>2021-08-24T13:50:28Z</time>
      </trkpt>
      <trkpt lat="45.34283" lon="5.81456">
        <ele>884.6</ele>
        <time>2021-08-24T13:50:29Z</time>
      </trkpt>
      <trkpt lat="45.34282" lon="5.81456">
        <ele>884.6</ele>
        <time>2021-08-24T13:50:30Z</time>
      </trkpt>
      <trkpt lat="45.34282" lon="5.81454">
        <ele>884.6</ele>
        <time>2021-08-24T13:50:32Z</time>
      </trkpt>
      <trkpt lat="45.34282" lon="5.81453">
        <ele>884.6</ele>
        <time>2021-08-24T13:50:33Z</time>
      </trkpt>
      <trkpt lat="45.34282" lon="5.81452">
        <ele>884.6</ele>
        <time>2021-08-24T13:50:34Z</time>
      </trkpt>
      <trkpt lat="45.34282" lon="5.81451">
        <ele>884.6</ele>
        <time>2021-08-24T13:50:36Z</time>
      </trkpt>
      <trkpt lat="45.34281" lon="5.81451">
        <ele>884.6</ele>
        <time>2021-08-24T13:50:43Z</time>
      </trkpt>
      <trkpt lat="45.34281" lon="5.81452">
        <ele>884.6</ele>
        <time>2021-08-24T13:50:49Z</time>
      </trkpt>
      <trkpt lat="45.3429" lon="5.81448">
        <ele>884.6</ele>
        <time>2021-08-24T13:52:42Z</time>
      </trkpt>
      <trkpt lat="45.34287" lon="5.81449">
        <ele>884.7</ele>
        <time>2021-08-24T13:52:43Z</time>
      </trkpt>
      <trkpt lat="45.34281" lon="5.81452">
        <ele>884.7</ele>
        <time>2021-08-24T13:52:45Z</time>
      </trkpt>
      <trkpt lat="45.34276" lon="5.81454">
        <ele>884.7</ele>
        <time>2021-08-24T13:52:46Z</time>
      </trkpt>
      <trkpt lat="45.34272" lon="5.81452">
        <ele>884.7</ele>
        <time>2021-08-24T13:52:47Z</time>
      </trkpt>
      <trkpt lat="45.3427" lon="5.81448">
        <ele>884.7</ele>
        <time>2021-08-24T13:52:49Z</time>
      </trkpt>
      <trkpt lat="45.3427" lon="5.81445">
        <ele>884.8</ele>
        <time>2021-08-24T13:52:50Z</time>
      </trkpt>
      <trkpt lat="45.34271" lon="5.81444">
        <ele>884.8</ele>
        <time>2021-08-24T13:52:51Z</time>
      </trkpt>
      <trkpt lat="45.34271" lon="5.81443">
        <ele>884.8</ele>
        <time>2021-08-24T13:52:52Z</time>
      </trkpt>
      <trkpt lat="45.34272" lon="5.81442">
        <ele>884.8</ele>
        <time>2021-08-24T13:52:54Z</time>
      </trkpt>
      <trkpt lat="45.34273" lon="5.8144">
        <ele>884.8</ele>
        <time>2021-08-24T13:52:55Z</time>
      </trkpt>
      <trkpt lat="45.34274" lon="5.81438">
        <ele>884.8</ele>
        <time>2021-08-24T13:52:56Z</time>
      </trkpt>
      <trkpt lat="45.34275" lon="5.81437">
        <ele>884.8</ele>
        <time>2021-08-24T13:52:57Z</time>
      </trkpt>
      <trkpt lat="45.34276" lon="5.81436">
        <ele>884.8</ele>
        <time>2021-08-24T13:52:59Z</time>
      </trkpt>
      <trkpt lat="45.34277" lon="5.81435">
        <ele>884.8</ele>
        <time>2021-08-24T13:53:00Z</time>
      </trkpt>
      <trkpt lat="45.34278" lon="5.81434">
        <ele>884.8</ele>
        <time>2021-08-24T13:53:01Z</time>
      </trkpt>
      <trkpt lat="45.34278" lon="5.81434">
        <ele>884.8</ele>
        <time>2021-08-24T13:53:02Z</time>
      </trkpt>
      <trkpt lat="45.34278" lon="5.81433">
        <ele>884.8</ele>
        <time>2021-08-24T13:53:03Z</time>
      </trkpt>
      <trkpt lat="45.34278" lon="5.81433">
        <ele>884.8</ele>
        <time>2021-08-24T13:53:05Z</time>
      </trkpt>
      <trkpt lat="45.34279" lon="5.81433">
        <ele>884.8</ele>
        <time>2021-08-24T13:53:06Z</time>
      </trkpt>
      <trkpt lat="45.34281" lon="5.81432">
        <ele>884.8</ele>
        <time>2021-08-24T13:53:07Z</time>
      </trkpt>
      <trkpt lat="45.34284" lon="5.81432">
        <ele>884.8</ele>
        <time>2021-08-24T13:53:08Z</time>
      </trkpt>
      <trkpt lat="45.34285" lon="5.81432">
        <ele>884.8</ele>
        <time>2021-08-24T13:53:09Z</time>
      </trkpt>
      <trkpt lat="45.34286" lon="5.81432">
        <ele>884.9</ele>
        <time>2021-08-24T13:53:11Z</time>
      </trkpt>
      <trkpt lat="45.34288" lon="5.81432">
        <ele>884.9</ele>
        <time>2021-08-24T13:53:12Z</time>
      </trkpt>
      <trkpt lat="45.34288" lon="5.81432">
        <ele>884.9</ele>
        <time>2021-08-24T13:53:13Z</time>
      </trkpt>
      <trkpt lat="45.34289" lon="5.81432">
        <ele>884.9</ele>
        <time>2021-08-24T13:53:14Z</time>
      </trkpt>
      <trkpt lat="45.3429" lon="5.81431">
        <ele>884.9</ele>
        <time>2021-08-24T13:53:15Z</time>
      </trkpt>
      <trkpt lat="45.34291" lon="5.81431">
        <ele>884.9</ele>
        <time>2021-08-24T13:53:16Z</time>
      </trkpt>
      <trkpt lat="45.34292" lon="5.8143">
        <ele>884.9</ele>
        <time>2021-08-24T13:53:18Z</time>
      </trkpt>
      <trkpt lat="45.34295" lon="5.8143">
        <ele>884.9</ele>
        <time>2021-08-24T13:53:20Z</time>
      </trkpt>
      <trkpt lat="45.34298" lon="5.81429">
        <ele>884.9</ele>
        <time>2021-08-24T13:53:22Z</time>
      </trkpt>
      <trkpt lat="45.34299" lon="5.81429">
        <ele>884.9</ele>
        <time>2021-08-24T13:53:23Z</time>
      </trkpt>
      <trkpt lat="45.343" lon="5.81428">
        <ele>884.9</ele>
        <time>2021-08-24T13:53:24Z</time>
      </trkpt>
      <trkpt lat="45.343" lon="5.81428">
        <ele>884.9</ele>
        <time>2021-08-24T13:53:26Z</time>
      </trkpt>
      <trkpt lat="45.34301" lon="5.81428">
        <ele>884.9</ele>
        <time>2021-08-24T13:53:28Z</time>
      </trkpt>
      <trkpt lat="45.34302" lon="5.81429">
        <ele>885</ele>
        <time>2021-08-24T13:53:30Z</time>
      </trkpt>
      <trkpt lat="45.34303" lon="5.81429">
        <ele>885</ele>
        <time>2021-08-24T13:53:32Z</time>
      </trkpt>
      <trkpt lat="45.34303" lon="5.81429">
        <ele>885</ele>
        <time>2021-08-24T13:53:34Z</time>
      </trkpt>
      <trkpt lat="45.34303" lon="5.81429">
        <ele>885</ele>
        <time>2021-08-24T13:53:35Z</time>
      </trkpt>
      <trkpt lat="45.34304" lon="5.81429">
        <ele>885</ele>
        <time>2021-08-24T13:53:36Z</time>
      </trkpt>
      <trkpt lat="45.34304" lon="5.8143">
        <ele>885</ele>
        <time>2021-08-24T13:53:38Z</time>
      </trkpt>
      <trkpt lat="45.34303" lon="5.8143">
        <ele>885</ele>
        <time>2021-08-24T13:53:39Z</time>
      </trkpt>
      <trkpt lat="45.34303" lon="5.8143">
        <ele>885</ele>
        <time>2021-08-24T13:53:40Z</time>
      </trkpt>
      <trkpt lat="45.34303" lon="5.8143">
        <ele>885</ele>
        <time>2021-08-24T13:53:42Z</time>
      </trkpt>
      <trkpt lat="45.34304" lon="5.8143">
        <ele>885</ele>
        <time>2021-08-24T13:53:43Z</time>
      </trkpt>
      <trkpt lat="45.34304" lon="5.8143">
        <ele>885</ele>
        <time>2021-08-24T13:53:44Z</time>
      </trkpt>
      <trkpt lat="45.34304" lon="5.81429">
        <ele>885</ele>
        <time>2021-08-24T13:53:46Z</time>
      </trkpt>
      <trkpt lat="45.34304" lon="5.81429">
        <ele>885</ele>
        <time>2021-08-24T13:53:48Z</time>
      </trkpt>
      <trkpt lat="45.34304" lon="5.81429">
        <ele>885</ele>
        <time>2021-08-24T13:53:49Z</time>
      </trkpt>
      <trkpt lat="45.34304" lon="5.81429">
        <ele>885</ele>
        <time>2021-08-24T13:53:50Z</time>
      </trkpt>
      <trkpt lat="45.34304" lon="5.81429">
        <ele>885</ele>
        <time>2021-08-24T13:53:52Z</time>
      </trkpt>
      <trkpt lat="45.34304" lon="5.81429">
        <ele>885</ele>
        <time>2021-08-24T13:53:53Z</time>
      </trkpt>
      <trkpt lat="45.34311" lon="5.8143">
        <ele>885</ele>
        <time>2021-08-24T13:53:55Z</time>
      </trkpt>
      <trkpt lat="45.34313" lon="5.81431">
        <ele>885.1</ele>
        <time>2021-08-24T13:53:56Z</time>
      </trkpt>
      <trkpt lat="45.34314" lon="5.81432">
        <ele>885.1</ele>
        <time>2021-08-24T13:53:58Z</time>
      </trkpt>
      <trkpt lat="45.34315" lon="5.81432">
        <ele>885.1</ele>
        <time>2021-08-24T13:53:59Z</time>
      </trkpt>
      <trkpt lat="45.34315" lon="5.81432">
        <ele>885.1</ele>
        <time>2021-08-24T13:54:00Z</time>
      </trkpt>
      <trkpt lat="45.34315" lon="5.81432">
        <ele>885.1</ele>
        <time>2021-08-24T13:54:02Z</time>
      </trkpt>
      <trkpt lat="45.34315" lon="5.81432">
        <ele>885.1</ele>
        <time>2021-08-24T13:54:03Z</time>
      </trkpt>
      <trkpt lat="45.34315" lon="5.81432">
        <ele>885.1</ele>
        <time>2021-08-24T13:54:04Z</time>
      </trkpt>
      <trkpt lat="45.34315" lon="5.81432">
        <ele>885.1</ele>
        <time>2021-08-24T13:54:06Z</time>
      </trkpt>
      <trkpt lat="45.34315" lon="5.81432">
        <ele>885.1</ele>
        <time>2021-08-24T13:54:08Z</time>
      </trkpt>
      <trkpt lat="45.34315" lon="5.81432">
        <ele>885.1</ele>
        <time>2021-08-24T13:54:09Z</time>
      </trkpt>
      <trkpt lat="45.34315" lon="5.81432">
        <ele>885.1</ele>
        <time>2021-08-24T13:54:10Z</time>
      </trkpt>
      <trkpt lat="45.34315" lon="5.81432">
        <ele>885.1</ele>
        <time>2021-08-24T13:54:12Z</time>
      </trkpt>
      <trkpt lat="45.34315" lon="5.81432">
        <ele>885.1</ele>
        <time>2021-08-24T13:54:14Z</time>
      </trkpt>
      <trkpt lat="45.34315" lon="5.81432">
        <ele>885.1</ele>
        <time>2021-08-24T13:54:15Z</time>
      </trkpt>
      <trkpt lat="45.34315" lon="5.81432">
        <ele>885.1</ele>
        <time>2021-08-24T13:54:16Z</time>
      </trkpt>
      <trkpt lat="45.34315" lon="5.81432">
        <ele>885.1</ele>
        <time>2021-08-24T13:54:17Z</time>
      </trkpt>
      <trkpt lat="45.34315" lon="5.81432">
        <ele>885.1</ele>
        <time>2021-08-24T13:54:18Z</time>
      </trkpt>
      <trkpt lat="45.34315" lon="5.81432">
        <ele>885.1</ele>
        <time>2021-08-24T13:54:20Z</time>
      </trkpt>
      <trkpt lat="45.34313" lon="5.81433">
        <ele>885.1</ele>
        <time>2021-08-24T13:54:22Z</time>
      </trkpt>
      <trkpt lat="45.34312" lon="5.81433">
        <ele>885.1</ele>
        <time>2021-08-24T13:54:23Z</time>
      </trkpt>
      <trkpt lat="45.34312" lon="5.81433">
        <ele>885.1</ele>
        <time>2021-08-24T13:54:24Z</time>
      </trkpt>
      <trkpt lat="45.34312" lon="5.81433">
        <ele>885.1</ele>
        <time>2021-08-24T13:54:26Z</time>
      </trkpt>
      <trkpt lat="45.34313" lon="5.81434">
        <ele>885.1</ele>
        <time>2021-08-24T13:54:28Z</time>
      </trkpt>
      <trkpt lat="45.34313" lon="5.81434">
        <ele>885.1</ele>
        <time>2021-08-24T13:54:29Z</time>
      </trkpt>
      <trkpt lat="45.34313" lon="5.81434">
        <ele>885.1</ele>
        <time>2021-08-24T13:54:30Z</time>
      </trkpt>
      <trkpt lat="45.34313" lon="5.81434">
        <ele>885.1</ele>
        <time>2021-08-24T13:54:31Z</time>
      </trkpt>
      <trkpt lat="45.34314" lon="5.81434">
        <ele>885.1</ele>
        <time>2021-08-24T13:54:33Z</time>
      </trkpt>
      <trkpt lat="45.34314" lon="5.81434">
        <ele>885.1</ele>
        <time>2021-08-24T13:54:34Z</time>
      </trkpt>
      <trkpt lat="45.34314" lon="5.81434">
        <ele>885.1</ele>
        <time>2021-08-24T13:54:36Z</time>
      </trkpt>
      <trkpt lat="45.34315" lon="5.81434">
        <ele>885.1</ele>
        <time>2021-08-24T13:54:38Z</time>
      </trkpt>
      <trkpt lat="45.34315" lon="5.81434">
        <ele>885.1</ele>
        <time>2021-08-24T13:54:40Z</time>
      </trkpt>
      <trkpt lat="45.34316" lon="5.81434">
        <ele>885.2</ele>
        <time>2021-08-24T13:54:42Z</time>
      </trkpt>
      <trkpt lat="45.34321" lon="5.81435">
        <ele>885.2</ele>
        <time>2021-08-24T13:54:44Z</time>
      </trkpt>
      <trkpt lat="45.34327" lon="5.81434">
        <ele>885.4</ele>
        <time>2021-08-24T13:54:46Z</time>
      </trkpt>
      <trkpt lat="45.34332" lon="5.81434">
        <ele>885.3</ele>
        <time>2021-08-24T13:54:47Z</time>
      </trkpt>
      <trkpt lat="45.34336" lon="5.81435">
        <ele>885.2</ele>
        <time>2021-08-24T13:54:48Z</time>
      </trkpt>
      <trkpt lat="45.34337" lon="5.81435">
        <ele>885.2</ele>
        <time>2021-08-24T13:54:49Z</time>
      </trkpt>
      <trkpt lat="45.34334" lon="5.81437">
        <ele>885.2</ele>
        <time>2021-08-24T13:54:52Z</time>
      </trkpt>
      <trkpt lat="45.34332" lon="5.81439">
        <ele>885.2</ele>
        <time>2021-08-24T13:54:53Z</time>
      </trkpt>
      <trkpt lat="45.3433" lon="5.8144">
        <ele>885.1</ele>
        <time>2021-08-24T13:54:57Z</time>
      </trkpt>
      <trkpt lat="45.34329" lon="5.81442">
        <ele>885.1</ele>
        <time>2021-08-24T13:54:58Z</time>
      </trkpt>
      <trkpt lat="45.34327" lon="5.81444">
        <ele>885.1</ele>
        <time>2021-08-24T13:56:48Z</time>
      </trkpt>
      <trkpt lat="45.34326" lon="5.81446">
        <ele>885.1</ele>
        <time>2021-08-24T13:56:49Z</time>
      </trkpt>
      <trkpt lat="45.3432" lon="5.81447">
        <ele>885</ele>
        <time>2021-08-24T13:56:51Z</time>
      </trkpt>
      <trkpt lat="45.34316" lon="5.81448">
        <ele>885</ele>
        <time>2021-08-24T13:56:52Z</time>
      </trkpt>
      <trkpt lat="45.34313" lon="5.81449">
        <ele>884.9</ele>
        <time>2021-08-24T13:56:53Z</time>
      </trkpt>
      <trkpt lat="45.3431" lon="5.81449">
        <ele>884.9</ele>
        <time>2021-08-24T13:56:54Z</time>
      </trkpt>
      <trkpt lat="45.34304" lon="5.81449">
        <ele>884.9</ele>
        <time>2021-08-24T13:56:56Z</time>
      </trkpt>
      <trkpt lat="45.34301" lon="5.81448">
        <ele>884.8</ele>
        <time>2021-08-24T13:56:57Z</time>
      </trkpt>
      <trkpt lat="45.34297" lon="5.81447">
        <ele>884.8</ele>
        <time>2021-08-24T13:56:58Z</time>
      </trkpt>
      <trkpt lat="45.34293" lon="5.81446">
        <ele>884.8</ele>
        <time>2021-08-24T13:56:59Z</time>
      </trkpt>
      <trkpt lat="45.3429" lon="5.81445">
        <ele>884.8</ele>
        <time>2021-08-24T13:57:00Z</time>
      </trkpt>
      <trkpt lat="45.34288" lon="5.81444">
        <ele>884.8</ele>
        <time>2021-08-24T13:57:02Z</time>
      </trkpt>
      <trkpt lat="45.34287" lon="5.81443">
        <ele>884.8</ele>
        <time>2021-08-24T13:57:03Z</time>
      </trkpt>
      <trkpt lat="45.34287" lon="5.81442">
        <ele>884.8</ele>
        <time>2021-08-24T13:57:05Z</time>
      </trkpt>
      <trkpt lat="45.34288" lon="5.81441">
        <ele>884.8</ele>
        <time>2021-08-24T13:57:06Z</time>
      </trkpt>
      <trkpt lat="45.34288" lon="5.8144">
        <ele>884.7</ele>
        <time>2021-08-24T13:57:07Z</time>
      </trkpt>
      <trkpt lat="45.34288" lon="5.81439">
        <ele>884.7</ele>
        <time>2021-08-24T13:57:09Z</time>
      </trkpt>
      <trkpt lat="45.34289" lon="5.81438">
        <ele>884.7</ele>
        <time>2021-08-24T13:57:10Z</time>
      </trkpt>
      <trkpt lat="45.34289" lon="5.81437">
        <ele>884.7</ele>
        <time>2021-08-24T13:57:11Z</time>
      </trkpt>
      <trkpt lat="45.3429" lon="5.81436">
        <ele>884.7</ele>
        <time>2021-08-24T13:57:13Z</time>
      </trkpt>
      <trkpt lat="45.3429" lon="5.81435">
        <ele>884.7</ele>
        <time>2021-08-24T13:57:14Z</time>
      </trkpt>
      <trkpt lat="45.34291" lon="5.81434">
        <ele>884.7</ele>
        <time>2021-08-24T13:57:15Z</time>
      </trkpt>
      <trkpt lat="45.34291" lon="5.81433">
        <ele>884.7</ele>
        <time>2021-08-24T13:57:26Z</time>
      </trkpt>
      <trkpt lat="45.34292" lon="5.81432">
        <ele>884.7</ele>
        <time>2021-08-24T13:57:27Z</time>
      </trkpt>
      <trkpt lat="45.34292" lon="5.81431">
        <ele>884.7</ele>
        <time>2021-08-24T13:57:28Z</time>
      </trkpt>
      <trkpt lat="45.34295" lon="5.81428">
        <ele>884.7</ele>
        <time>2021-08-24T13:57:29Z</time>
      </trkpt>
      <trkpt lat="45.34296" lon="5.81426">
        <ele>884.7</ele>
        <time>2021-08-24T13:57:30Z</time>
      </trkpt>
      <trkpt lat="45.34298" lon="5.81423">
        <ele>884.7</ele>
        <time>2021-08-24T13:57:32Z</time>
      </trkpt>
      <trkpt lat="45.343" lon="5.81422">
        <ele>884.6</ele>
        <time>2021-08-24T13:57:33Z</time>
      </trkpt>
      <trkpt lat="45.34301" lon="5.81422">
        <ele>884.6</ele>
        <time>2021-08-24T13:57:34Z</time>
      </trkpt>
      <trkpt lat="45.34303" lon="5.81424">
        <ele>884.6</ele>
        <time>2021-08-24T13:57:36Z</time>
      </trkpt>
      <trkpt lat="45.34306" lon="5.81425">
        <ele>884.6</ele>
        <time>2021-08-24T13:57:38Z</time>
      </trkpt>
      <trkpt lat="45.34307" lon="5.81425">
        <ele>884.6</ele>
        <time>2021-08-24T13:57:39Z</time>
      </trkpt>
      <trkpt lat="45.34308" lon="5.81426">
        <ele>884.6</ele>
        <time>2021-08-24T13:57:40Z</time>
      </trkpt>
      <trkpt lat="45.34308" lon="5.81427">
        <ele>884.6</ele>
        <time>2021-08-24T13:57:41Z</time>
      </trkpt>
      <trkpt lat="45.34306" lon="5.81427">
        <ele>884.6</ele>
        <time>2021-08-24T13:57:42Z</time>
      </trkpt>
      <trkpt lat="45.34305" lon="5.81426">
        <ele>884.6</ele>
        <time>2021-08-24T13:57:44Z</time>
      </trkpt>
      <trkpt lat="45.34303" lon="5.81425">
        <ele>884.5</ele>
        <time>2021-08-24T13:57:45Z</time>
      </trkpt>
      <trkpt lat="45.34302" lon="5.81424">
        <ele>884.5</ele>
        <time>2021-08-24T13:57:47Z</time>
      </trkpt>
      <trkpt lat="45.34301" lon="5.81423">
        <ele>884.5</ele>
        <time>2021-08-24T13:57:48Z</time>
      </trkpt>
      <trkpt lat="45.34299" lon="5.81422">
        <ele>884.5</ele>
        <time>2021-08-24T13:57:50Z</time>
      </trkpt>
      <trkpt lat="45.34298" lon="5.81421">
        <ele>884.5</ele>
        <time>2021-08-24T13:57:51Z</time>
      </trkpt>
      <trkpt lat="45.34296" lon="5.8142">
        <ele>884.5</ele>
        <time>2021-08-24T14:10:49Z</time>
      </trkpt>
      <trkpt lat="45.34295" lon="5.8142">
        <ele>884.5</ele>
        <time>2021-08-24T14:10:50Z</time>
      </trkpt>
      <trkpt lat="45.34287" lon="5.81415">
        <ele>884.4</ele>
        <time>2021-08-24T14:10:52Z</time>
      </trkpt>
      <trkpt lat="45.34281" lon="5.81411">
        <ele>884.4</ele>
        <time>2021-08-24T14:10:53Z</time>
      </trkpt>
      <trkpt lat="45.34274" lon="5.81408">
        <ele>884.3</ele>
        <time>2021-08-24T14:10:55Z</time>
      </trkpt>
      <trkpt lat="45.34271" lon="5.81407">
        <ele>884.3</ele>
        <time>2021-08-24T14:10:56Z</time>
      </trkpt>
      <trkpt lat="45.34265" lon="5.81406">
        <ele>884.2</ele>
        <time>2021-08-24T14:10:58Z</time>
      </trkpt>
      <trkpt lat="45.34261" lon="5.81406">
        <ele>884.2</ele>
        <time>2021-08-24T14:10:59Z</time>
      </trkpt>
      <trkpt lat="45.34258" lon="5.81404">
        <ele>884.1</ele>
        <time>2021-08-24T14:11:00Z</time>
      </trkpt>
      <trkpt lat="45.34254" lon="5.814">
        <ele>883.9</ele>
        <time>2021-08-24T14:11:02Z</time>
      </trkpt>
      <trkpt lat="45.34248" lon="5.81399">
        <ele>883.7</ele>
        <time>2021-08-24T14:11:04Z</time>
      </trkpt>
      <trkpt lat="45.34245" lon="5.81399">
        <ele>883.5</ele>
        <time>2021-08-24T14:11:05Z</time>
      </trkpt>
      <trkpt lat="45.3424" lon="5.814">
        <ele>883.3</ele>
        <time>2021-08-24T14:11:07Z</time>
      </trkpt>
      <trkpt lat="45.34236" lon="5.814">
        <ele>883.3</ele>
        <time>2021-08-24T14:11:08Z</time>
      </trkpt>
      <trkpt lat="45.34231" lon="5.81403">
        <ele>883.2</ele>
        <time>2021-08-24T14:11:10Z</time>
      </trkpt>
      <trkpt lat="45.34226" lon="5.81405">
        <ele>883</ele>
        <time>2021-08-24T14:11:11Z</time>
      </trkpt>
      <trkpt lat="45.34218" lon="5.81404">
        <ele>882.6</ele>
        <time>2021-08-24T14:11:13Z</time>
      </trkpt>
      <trkpt lat="45.34215" lon="5.81403">
        <ele>882.4</ele>
        <time>2021-08-24T14:11:14Z</time>
      </trkpt>
      <trkpt lat="45.3421" lon="5.81399">
        <ele>881.6</ele>
        <time>2021-08-24T14:11:16Z</time>
      </trkpt>
      <trkpt lat="45.34207" lon="5.81396">
        <ele>881.4</ele>
        <time>2021-08-24T14:11:17Z</time>
      </trkpt>
      <trkpt lat="45.34205" lon="5.81391">
        <ele>881</ele>
        <time>2021-08-24T14:11:18Z</time>
      </trkpt>
      <trkpt lat="45.34202" lon="5.81386">
        <ele>880.7</ele>
        <time>2021-08-24T14:11:19Z</time>
      </trkpt>
      <trkpt lat="45.34198" lon="5.81378">
        <ele>880.2</ele>
        <time>2021-08-24T14:11:20Z</time>
      </trkpt>
      <trkpt lat="45.34191" lon="5.81367">
        <ele>879.4</ele>
        <time>2021-08-24T14:11:22Z</time>
      </trkpt>
      <trkpt lat="45.34183" lon="5.81358">
        <ele>878.9</ele>
        <time>2021-08-24T14:11:24Z</time>
      </trkpt>
      <trkpt lat="45.34172" lon="5.81347">
        <ele>878</ele>
        <time>2021-08-24T14:11:26Z</time>
      </trkpt>
      <trkpt lat="45.34159" lon="5.81336">
        <ele>876.7</ele>
        <time>2021-08-24T14:11:28Z</time>
      </trkpt>
      <trkpt lat="45.34153" lon="5.81329">
        <ele>876</ele>
        <time>2021-08-24T14:11:29Z</time>
      </trkpt>
      <trkpt lat="45.34146" lon="5.81322">
        <ele>875.3</ele>
        <time>2021-08-24T14:11:30Z</time>
      </trkpt>
      <trkpt lat="45.3414" lon="5.81315">
        <ele>874.6</ele>
        <time>2021-08-24T14:11:31Z</time>
      </trkpt>
      <trkpt lat="45.34134" lon="5.81307">
        <ele>873.9</ele>
        <time>2021-08-24T14:11:32Z</time>
      </trkpt>
      <trkpt lat="45.34125" lon="5.81288">
        <ele>872.4</ele>
        <time>2021-08-24T14:11:34Z</time>
      </trkpt>
      <trkpt lat="45.34123" lon="5.81276">
        <ele>871.5</ele>
        <time>2021-08-24T14:11:35Z</time>
      </trkpt>
      <trkpt lat="45.34119" lon="5.81251">
        <ele>869.7</ele>
        <time>2021-08-24T14:11:37Z</time>
      </trkpt>
      <trkpt lat="45.34119" lon="5.81238">
        <ele>868.7</ele>
        <time>2021-08-24T14:11:38Z</time>
      </trkpt>
      <trkpt lat="45.3412" lon="5.81213">
        <ele>866.8</ele>
        <time>2021-08-24T14:11:40Z</time>
      </trkpt>
      <trkpt lat="45.3412" lon="5.81201">
        <ele>865.7</ele>
        <time>2021-08-24T14:11:41Z</time>
      </trkpt>
      <trkpt lat="45.34118" lon="5.8118">
        <ele>863.8</ele>
        <time>2021-08-24T14:11:43Z</time>
      </trkpt>
      <trkpt lat="45.34117" lon="5.8117">
        <ele>862.8</ele>
        <time>2021-08-24T14:11:44Z</time>
      </trkpt>
      <trkpt lat="45.34115" lon="5.81155">
        <ele>862.3</ele>
        <time>2021-08-24T14:11:46Z</time>
      </trkpt>
      <trkpt lat="45.34113" lon="5.8115">
        <ele>862.7</ele>
        <time>2021-08-24T14:11:47Z</time>
      </trkpt>
      <trkpt lat="45.34111" lon="5.81147">
        <ele>863.1</ele>
        <time>2021-08-24T14:11:49Z</time>
      </trkpt>
      <trkpt lat="45.34112" lon="5.81153">
        <ele>863.6</ele>
        <time>2021-08-24T14:11:50Z</time>
      </trkpt>
      <trkpt lat="45.34115" lon="5.81173">
        <ele>865.1</ele>
        <time>2021-08-24T14:11:52Z</time>
      </trkpt>
      <trkpt lat="45.34123" lon="5.81217">
        <ele>868.2</ele>
        <time>2021-08-24T14:11:54Z</time>
      </trkpt>
      <trkpt lat="45.34128" lon="5.81266">
        <ele>871.2</ele>
        <time>2021-08-24T14:11:56Z</time>
      </trkpt>
      <trkpt lat="45.34129" lon="5.81303">
        <ele>873.3</ele>
        <time>2021-08-24T14:11:58Z</time>
      </trkpt>
      <trkpt lat="45.34127" lon="5.81337">
        <ele>865.3</ele>
        <time>2021-08-24T14:12:00Z</time>
      </trkpt>
      <trkpt lat="45.3412" lon="5.81371">
        <ele>855.4</ele>
        <time>2021-08-24T14:12:02Z</time>
      </trkpt>
      <trkpt lat="45.34109" lon="5.81398">
        <ele>844.7</ele>
        <time>2021-08-24T14:12:04Z</time>
      </trkpt>
      <trkpt lat="45.34104" lon="5.81409">
        <ele>843.9</ele>
        <time>2021-08-24T14:12:05Z</time>
      </trkpt>
      <trkpt lat="45.34091" lon="5.8142">
        <ele>842.6</ele>
        <time>2021-08-24T14:12:07Z</time>
      </trkpt>
      <trkpt lat="45.34083" lon="5.8142">
        <ele>841.7</ele>
        <time>2021-08-24T14:12:08Z</time>
      </trkpt>
      <trkpt lat="45.34067" lon="5.81408">
        <ele>839.8</ele>
        <time>2021-08-24T14:12:10Z</time>
      </trkpt>
      <trkpt lat="45.34051" lon="5.81382">
        <ele>837.3</ele>
        <time>2021-08-24T14:12:12Z</time>
      </trkpt>
      <trkpt lat="45.34044" lon="5.81366">
        <ele>836.1</ele>
        <time>2021-08-24T14:12:13Z</time>
      </trkpt>
      <trkpt lat="45.34037" lon="5.81327">
        <ele>833.8</ele>
        <time>2021-08-24T14:12:15Z</time>
      </trkpt>
      <trkpt lat="45.34034" lon="5.81288">
        <ele>831.2</ele>
        <time>2021-08-24T14:12:17Z</time>
      </trkpt>
      <trkpt lat="45.3403" lon="5.81251">
        <ele>828.6</ele>
        <time>2021-08-24T14:12:19Z</time>
      </trkpt>
      <trkpt lat="45.34027" lon="5.81235">
        <ele>827.3</ele>
        <time>2021-08-24T14:12:20Z</time>
      </trkpt>
      <trkpt lat="45.34023" lon="5.81202">
        <ele>824.9</ele>
        <time>2021-08-24T14:12:22Z</time>
      </trkpt>
      <trkpt lat="45.34022" lon="5.81185">
        <ele>823.8</ele>
        <time>2021-08-24T14:12:23Z</time>
      </trkpt>
      <trkpt lat="45.34021" lon="5.81168">
        <ele>822.6</ele>
        <time>2021-08-24T14:12:24Z</time>
      </trkpt>
      <trkpt lat="45.3402" lon="5.81134">
        <ele>820.5</ele>
        <time>2021-08-24T14:12:26Z</time>
      </trkpt>
      <trkpt lat="45.34017" lon="5.81103">
        <ele>818.6</ele>
        <time>2021-08-24T14:12:28Z</time>
      </trkpt>
      <trkpt lat="45.34015" lon="5.81088">
        <ele>817.7</ele>
        <time>2021-08-24T14:12:29Z</time>
      </trkpt>
      <trkpt lat="45.34009" lon="5.81063">
        <ele>816.2</ele>
        <time>2021-08-24T14:12:31Z</time>
      </trkpt>
      <trkpt lat="45.34004" lon="5.81053">
        <ele>815.6</ele>
        <time>2021-08-24T14:12:32Z</time>
      </trkpt>
      <trkpt lat="45.33996" lon="5.81035">
        <ele>814.8</ele>
        <time>2021-08-24T14:12:34Z</time>
      </trkpt>
      <trkpt lat="45.33993" lon="5.81026">
        <ele>814.4</ele>
        <time>2021-08-24T14:12:35Z</time>
      </trkpt>
      <trkpt lat="45.3399" lon="5.81017">
        <ele>814</ele>
        <time>2021-08-24T14:12:36Z</time>
      </trkpt>
      <trkpt lat="45.33989" lon="5.80999">
        <ele>813.2</ele>
        <time>2021-08-24T14:12:38Z</time>
      </trkpt>
      <trkpt lat="45.33994" lon="5.80983">
        <ele>812.3</ele>
        <time>2021-08-24T14:12:40Z</time>
      </trkpt>
      <trkpt lat="45.33999" lon="5.80975">
        <ele>811.8</ele>
        <time>2021-08-24T14:12:41Z</time>
      </trkpt>
      <trkpt lat="45.34012" lon="5.8096">
        <ele>810.6</ele>
        <time>2021-08-24T14:12:43Z</time>
      </trkpt>
      <trkpt lat="45.34019" lon="5.80952">
        <ele>810</ele>
        <time>2021-08-24T14:12:44Z</time>
      </trkpt>
      <trkpt lat="45.34033" lon="5.80938">
        <ele>809.1</ele>
        <time>2021-08-24T14:12:46Z</time>
      </trkpt>
      <trkpt lat="45.34039" lon="5.8093">
        <ele>809.6</ele>
        <time>2021-08-24T14:12:47Z</time>
      </trkpt>
      <trkpt lat="45.34044" lon="5.80922">
        <ele>809.6</ele>
        <time>2021-08-24T14:12:48Z</time>
      </trkpt>
      <trkpt lat="45.34051" lon="5.80903">
        <ele>809.7</ele>
        <time>2021-08-24T14:12:50Z</time>
      </trkpt>
      <trkpt lat="45.34056" lon="5.80885">
        <ele>809.3</ele>
        <time>2021-08-24T14:12:52Z</time>
      </trkpt>
      <trkpt lat="45.34057" lon="5.80876">
        <ele>808.7</ele>
        <time>2021-08-24T14:12:53Z</time>
      </trkpt>
      <trkpt lat="45.34057" lon="5.80868">
        <ele>808.2</ele>
        <time>2021-08-24T14:12:54Z</time>
      </trkpt>
      <trkpt lat="45.34056" lon="5.80861">
        <ele>807.7</ele>
        <time>2021-08-24T14:12:55Z</time>
      </trkpt>
      <trkpt lat="45.34054" lon="5.80854">
        <ele>807.2</ele>
        <time>2021-08-24T14:12:56Z</time>
      </trkpt>
      <trkpt lat="45.34046" lon="5.80838">
        <ele>805.9</ele>
        <time>2021-08-24T14:12:58Z</time>
      </trkpt>
      <trkpt lat="45.34037" lon="5.80822">
        <ele>804.5</ele>
        <time>2021-08-24T14:13:00Z</time>
      </trkpt>
      <trkpt lat="45.34029" lon="5.80806">
        <ele>803.3</ele>
        <time>2021-08-24T14:13:02Z</time>
      </trkpt>
      <trkpt lat="45.34021" lon="5.80792">
        <ele>802.2</ele>
        <time>2021-08-24T14:13:04Z</time>
      </trkpt>
      <trkpt lat="45.34014" lon="5.80778">
        <ele>801.1</ele>
        <time>2021-08-24T14:13:06Z</time>
      </trkpt>
      <trkpt lat="45.34003" lon="5.80766">
        <ele>800</ele>
        <time>2021-08-24T14:13:08Z</time>
      </trkpt>
      <trkpt lat="45.33997" lon="5.80761">
        <ele>799.4</ele>
        <time>2021-08-24T14:13:09Z</time>
      </trkpt>
      <trkpt lat="45.33983" lon="5.80754">
        <ele>799.1</ele>
        <time>2021-08-24T14:13:11Z</time>
      </trkpt>
      <trkpt lat="45.33975" lon="5.8075">
        <ele>799.4</ele>
        <time>2021-08-24T14:13:12Z</time>
      </trkpt>
      <trkpt lat="45.33961" lon="5.80745">
        <ele>799.7</ele>
        <time>2021-08-24T14:13:14Z</time>
      </trkpt>
      <trkpt lat="45.33949" lon="5.80738">
        <ele>799.8</ele>
        <time>2021-08-24T14:13:16Z</time>
      </trkpt>
      <trkpt lat="45.33943" lon="5.80735">
        <ele>799.9</ele>
        <time>2021-08-24T14:13:17Z</time>
      </trkpt>
      <trkpt lat="45.33939" lon="5.80732">
        <ele>799.9</ele>
        <time>2021-08-24T14:13:18Z</time>
      </trkpt>
      <trkpt lat="45.33929" lon="5.80729">
        <ele>799.9</ele>
        <time>2021-08-24T14:13:20Z</time>
      </trkpt>
      <trkpt lat="45.33916" lon="5.80729">
        <ele>800</ele>
        <time>2021-08-24T14:13:22Z</time>
      </trkpt>
      <trkpt lat="45.33909" lon="5.8073">
        <ele>800</ele>
        <time>2021-08-24T14:13:23Z</time>
      </trkpt>
      <trkpt lat="45.33903" lon="5.80731">
        <ele>800</ele>
        <time>2021-08-24T14:13:24Z</time>
      </trkpt>
      <trkpt lat="45.3389" lon="5.80732">
        <ele>800.1</ele>
        <time>2021-08-24T14:13:26Z</time>
      </trkpt>
      <trkpt lat="45.33878" lon="5.80734">
        <ele>800.3</ele>
        <time>2021-08-24T14:13:28Z</time>
      </trkpt>
      <trkpt lat="45.33873" lon="5.80735">
        <ele>800.4</ele>
        <time>2021-08-24T14:13:29Z</time>
      </trkpt>
      <trkpt lat="45.33867" lon="5.80736">
        <ele>800.4</ele>
        <time>2021-08-24T14:13:30Z</time>
      </trkpt>
      <trkpt lat="45.33862" lon="5.80738">
        <ele>800.5</ele>
        <time>2021-08-24T14:13:31Z</time>
      </trkpt>
      <trkpt lat="45.33856" lon="5.80738">
        <ele>800.6</ele>
        <time>2021-08-24T14:13:32Z</time>
      </trkpt>
      <trkpt lat="45.33845" lon="5.80738">
        <ele>800.9</ele>
        <time>2021-08-24T14:13:34Z</time>
      </trkpt>
      <trkpt lat="45.3384" lon="5.80738">
        <ele>801</ele>
        <time>2021-08-24T14:13:35Z</time>
      </trkpt>
      <trkpt lat="45.33835" lon="5.80737">
        <ele>801.1</ele>
        <time>2021-08-24T14:13:36Z</time>
      </trkpt>
      <trkpt lat="45.33831" lon="5.80735">
        <ele>801.1</ele>
        <time>2021-08-24T14:13:37Z</time>
      </trkpt>
      <trkpt lat="45.33826" lon="5.80733">
        <ele>801.3</ele>
        <time>2021-08-24T14:13:38Z</time>
      </trkpt>
      <trkpt lat="45.33816" lon="5.80728">
        <ele>801.5</ele>
        <time>2021-08-24T14:13:40Z</time>
      </trkpt>
      <trkpt lat="45.33811" lon="5.80726">
        <ele>801.5</ele>
        <time>2021-08-24T14:13:41Z</time>
      </trkpt>
      <trkpt lat="45.33806" lon="5.80724">
        <ele>801.6</ele>
        <time>2021-08-24T14:13:42Z</time>
      </trkpt>
      <trkpt lat="45.33796" lon="5.80722">
        <ele>801.7</ele>
        <time>2021-08-24T14:13:44Z</time>
      </trkpt>
      <trkpt lat="45.33787" lon="5.80722">
        <ele>801.8</ele>
        <time>2021-08-24T14:13:46Z</time>
      </trkpt>
      <trkpt lat="45.33778" lon="5.80722">
        <ele>802</ele>
        <time>2021-08-24T14:13:48Z</time>
      </trkpt>
      <trkpt lat="45.3377" lon="5.80723">
        <ele>802.1</ele>
        <time>2021-08-24T14:13:50Z</time>
      </trkpt>
      <trkpt lat="45.33761" lon="5.80723">
        <ele>802.3</ele>
        <time>2021-08-24T14:13:52Z</time>
      </trkpt>
      <trkpt lat="45.33751" lon="5.80724">
        <ele>802.5</ele>
        <time>2021-08-24T14:13:54Z</time>
      </trkpt>
      <trkpt lat="45.33743" lon="5.80724">
        <ele>802.6</ele>
        <time>2021-08-24T14:13:56Z</time>
      </trkpt>
      <trkpt lat="45.33739" lon="5.80724">
        <ele>802.8</ele>
        <time>2021-08-24T14:13:57Z</time>
      </trkpt>
      <trkpt lat="45.33732" lon="5.80723">
        <ele>803</ele>
        <time>2021-08-24T14:13:59Z</time>
      </trkpt>
      <trkpt lat="45.33728" lon="5.80723">
        <ele>803.1</ele>
        <time>2021-08-24T14:14:00Z</time>
      </trkpt>
      <trkpt lat="45.33723" lon="5.80722">
        <ele>803.4</ele>
        <time>2021-08-24T14:14:01Z</time>
      </trkpt>
      <trkpt lat="45.33716" lon="5.80721">
        <ele>803.6</ele>
        <time>2021-08-24T14:14:03Z</time>
      </trkpt>
      <trkpt lat="45.33711" lon="5.8072">
        <ele>803.8</ele>
        <time>2021-08-24T14:14:04Z</time>
      </trkpt>
      <trkpt lat="45.33705" lon="5.80718">
        <ele>804.1</ele>
        <time>2021-08-24T14:14:06Z</time>
      </trkpt>
      <trkpt lat="45.33698" lon="5.80716">
        <ele>804.4</ele>
        <time>2021-08-24T14:14:08Z</time>
      </trkpt>
      <trkpt lat="45.33693" lon="5.80715">
        <ele>804.6</ele>
        <time>2021-08-24T14:14:09Z</time>
      </trkpt>
      <trkpt lat="45.33689" lon="5.80715">
        <ele>804.8</ele>
        <time>2021-08-24T14:14:10Z</time>
      </trkpt>
      <trkpt lat="45.33683" lon="5.80715">
        <ele>805.1</ele>
        <time>2021-08-24T14:14:12Z</time>
      </trkpt>
      <trkpt lat="45.33679" lon="5.80714">
        <ele>805.3</ele>
        <time>2021-08-24T14:14:13Z</time>
      </trkpt>
      <trkpt lat="45.33673" lon="5.80713">
        <ele>805.6</ele>
        <time>2021-08-24T14:14:15Z</time>
      </trkpt>
      <trkpt lat="45.3367" lon="5.80713">
        <ele>805.7</ele>
        <time>2021-08-24T14:14:16Z</time>
      </trkpt>
      <trkpt lat="45.33665" lon="5.80713">
        <ele>805.9</ele>
        <time>2021-08-24T14:14:17Z</time>
      </trkpt>
      <trkpt lat="45.33662" lon="5.80712">
        <ele>806</ele>
        <time>2021-08-24T14:14:18Z</time>
      </trkpt>
      <trkpt lat="45.33659" lon="5.80712">
        <ele>806.2</ele>
        <time>2021-08-24T14:14:19Z</time>
      </trkpt>
      <trkpt lat="45.33656" lon="5.80712">
        <ele>806.3</ele>
        <time>2021-08-24T14:14:20Z</time>
      </trkpt>
      <trkpt lat="45.33652" lon="5.80711">
        <ele>806.5</ele>
        <time>2021-08-24T14:14:22Z</time>
      </trkpt>
      <trkpt lat="45.33649" lon="5.80711">
        <ele>806.6</ele>
        <time>2021-08-24T14:14:23Z</time>
      </trkpt>
      <trkpt lat="45.33643" lon="5.80711">
        <ele>806.8</ele>
        <time>2021-08-24T14:14:25Z</time>
      </trkpt>
      <trkpt lat="45.3364" lon="5.8071">
        <ele>806.9</ele>
        <time>2021-08-24T14:14:26Z</time>
      </trkpt>
      <trkpt lat="45.33634" lon="5.80709">
        <ele>807.1</ele>
        <time>2021-08-24T14:14:28Z</time>
      </trkpt>
      <trkpt lat="45.33627" lon="5.80709">
        <ele>807.2</ele>
        <time>2021-08-24T14:14:30Z</time>
      </trkpt>
      <trkpt lat="45.33622" lon="5.80709">
        <ele>807.3</ele>
        <time>2021-08-24T14:14:31Z</time>
      </trkpt>
      <trkpt lat="45.33618" lon="5.8071">
        <ele>807.4</ele>
        <time>2021-08-24T14:14:33Z</time>
      </trkpt>
      <trkpt lat="45.33612" lon="5.8071">
        <ele>807.6</ele>
        <time>2021-08-24T14:14:34Z</time>
      </trkpt>
      <trkpt lat="45.33609" lon="5.80711">
        <ele>807.7</ele>
        <time>2021-08-24T14:14:35Z</time>
      </trkpt>
      <trkpt lat="45.33604" lon="5.80712">
        <ele>807.8</ele>
        <time>2021-08-24T14:14:37Z</time>
      </trkpt>
      <trkpt lat="45.336" lon="5.80713">
        <ele>807.9</ele>
        <time>2021-08-24T14:14:38Z</time>
      </trkpt>
      <trkpt lat="45.33597" lon="5.80714">
        <ele>808</ele>
        <time>2021-08-24T14:14:39Z</time>
      </trkpt>
      <trkpt lat="45.33591" lon="5.80717">
        <ele>808.1</ele>
        <time>2021-08-24T14:14:41Z</time>
      </trkpt>
      <trkpt lat="45.33587" lon="5.8072">
        <ele>808.3</ele>
        <time>2021-08-24T14:14:42Z</time>
      </trkpt>
      <trkpt lat="45.33583" lon="5.80722">
        <ele>808.4</ele>
        <time>2021-08-24T14:14:43Z</time>
      </trkpt>
      <trkpt lat="45.3358" lon="5.80724">
        <ele>808.5</ele>
        <time>2021-08-24T14:14:45Z</time>
      </trkpt>
      <trkpt lat="45.33577" lon="5.80726">
        <ele>808.6</ele>
        <time>2021-08-24T14:14:46Z</time>
      </trkpt>
      <trkpt lat="45.33573" lon="5.80729">
        <ele>808.7</ele>
        <time>2021-08-24T14:14:47Z</time>
      </trkpt>
      <trkpt lat="45.3357" lon="5.80731">
        <ele>808.8</ele>
        <time>2021-08-24T14:14:48Z</time>
      </trkpt>
      <trkpt lat="45.33567" lon="5.80733">
        <ele>809</ele>
        <time>2021-08-24T14:14:49Z</time>
      </trkpt>
      <trkpt lat="45.33562" lon="5.80736">
        <ele>809.1</ele>
        <time>2021-08-24T14:14:51Z</time>
      </trkpt>
      <trkpt lat="45.33559" lon="5.80737">
        <ele>809.2</ele>
        <time>2021-08-24T14:14:52Z</time>
      </trkpt>
      <trkpt lat="45.33556" lon="5.80739">
        <ele>809.3</ele>
        <time>2021-08-24T14:14:53Z</time>
      </trkpt>
      <trkpt lat="45.33553" lon="5.80741">
        <ele>809.4</ele>
        <time>2021-08-24T14:14:54Z</time>
      </trkpt>
      <trkpt lat="45.33549" lon="5.80744">
        <ele>809.5</ele>
        <time>2021-08-24T14:14:55Z</time>
      </trkpt>
      <trkpt lat="45.33545" lon="5.80746">
        <ele>809.7</ele>
        <time>2021-08-24T14:14:57Z</time>
      </trkpt>
      <trkpt lat="45.33541" lon="5.80747">
        <ele>809.8</ele>
        <time>2021-08-24T14:14:58Z</time>
      </trkpt>
      <trkpt lat="45.33536" lon="5.80748">
        <ele>809.9</ele>
        <time>2021-08-24T14:14:59Z</time>
      </trkpt>
      <trkpt lat="45.33533" lon="5.80749">
        <ele>810</ele>
        <time>2021-08-24T14:15:01Z</time>
      </trkpt>
      <trkpt lat="45.33529" lon="5.8075">
        <ele>810.1</ele>
        <time>2021-08-24T14:15:02Z</time>
      </trkpt>
      <trkpt lat="45.33524" lon="5.8075">
        <ele>810.2</ele>
        <time>2021-08-24T14:15:03Z</time>
      </trkpt>
      <trkpt lat="45.33521" lon="5.8075">
        <ele>810.3</ele>
        <time>2021-08-24T14:15:04Z</time>
      </trkpt>
      <trkpt lat="45.33516" lon="5.80751">
        <ele>810.4</ele>
        <time>2021-08-24T14:15:06Z</time>
      </trkpt>
      <trkpt lat="45.33512" lon="5.80752">
        <ele>810.4</ele>
        <time>2021-08-24T14:15:07Z</time>
      </trkpt>
      <trkpt lat="45.33507" lon="5.80754">
        <ele>810.6</ele>
        <time>2021-08-24T14:15:09Z</time>
      </trkpt>
      <trkpt lat="45.33501" lon="5.80757">
        <ele>810.7</ele>
        <time>2021-08-24T14:15:11Z</time>
      </trkpt>
      <trkpt lat="45.33498" lon="5.80758">
        <ele>810.9</ele>
        <time>2021-08-24T14:15:12Z</time>
      </trkpt>
      <trkpt lat="45.33493" lon="5.80758">
        <ele>811</ele>
        <time>2021-08-24T14:15:14Z</time>
      </trkpt>
      <trkpt lat="45.33489" lon="5.80758">
        <ele>811.2</ele>
        <time>2021-08-24T14:15:15Z</time>
      </trkpt>
      <trkpt lat="45.33485" lon="5.80757">
        <ele>811.4</ele>
        <time>2021-08-24T14:15:16Z</time>
      </trkpt>
      <trkpt lat="45.33479" lon="5.80756">
        <ele>811.6</ele>
        <time>2021-08-24T14:15:18Z</time>
      </trkpt>
      <trkpt lat="45.33474" lon="5.80755">
        <ele>811.9</ele>
        <time>2021-08-24T14:15:20Z</time>
      </trkpt>
      <trkpt lat="45.3347" lon="5.80753">
        <ele>812</ele>
        <time>2021-08-24T14:15:21Z</time>
      </trkpt>
      <trkpt lat="45.33466" lon="5.80751">
        <ele>812.2</ele>
        <time>2021-08-24T14:15:22Z</time>
      </trkpt>
      <trkpt lat="45.3346" lon="5.80748">
        <ele>812.4</ele>
        <time>2021-08-24T14:15:24Z</time>
      </trkpt>
      <trkpt lat="45.33455" lon="5.80746">
        <ele>812.6</ele>
        <time>2021-08-24T14:15:25Z</time>
      </trkpt>
      <trkpt lat="45.33452" lon="5.80744">
        <ele>812.8</ele>
        <time>2021-08-24T14:15:26Z</time>
      </trkpt>
      <trkpt lat="45.33447" lon="5.80743">
        <ele>812.9</ele>
        <time>2021-08-24T14:15:27Z</time>
      </trkpt>
      <trkpt lat="45.33442" lon="5.80741">
        <ele>813.1</ele>
        <time>2021-08-24T14:15:29Z</time>
      </trkpt>
      <trkpt lat="45.33435" lon="5.80739">
        <ele>813.3</ele>
        <time>2021-08-24T14:15:31Z</time>
      </trkpt>
      <trkpt lat="45.33431" lon="5.80738">
        <ele>813.5</ele>
        <time>2021-08-24T14:15:32Z</time>
      </trkpt>
      <trkpt lat="45.33426" lon="5.80737">
        <ele>813.7</ele>
        <time>2021-08-24T14:15:33Z</time>
      </trkpt>
      <trkpt lat="45.33421" lon="5.80736">
        <ele>813.9</ele>
        <time>2021-08-24T14:15:35Z</time>
      </trkpt>
      <trkpt lat="45.33416" lon="5.80735">
        <ele>814</ele>
        <time>2021-08-24T14:15:36Z</time>
      </trkpt>
      <trkpt lat="45.33412" lon="5.80734">
        <ele>814.2</ele>
        <time>2021-08-24T14:15:38Z</time>
      </trkpt>
      <trkpt lat="45.33408" lon="5.80733">
        <ele>814.3</ele>
        <time>2021-08-24T14:15:39Z</time>
      </trkpt>
      <trkpt lat="45.33404" lon="5.80731">
        <ele>814.5</ele>
        <time>2021-08-24T14:15:40Z</time>
      </trkpt>
      <trkpt lat="45.33398" lon="5.80728">
        <ele>814.7</ele>
        <time>2021-08-24T14:15:42Z</time>
      </trkpt>
      <trkpt lat="45.33394" lon="5.80727">
        <ele>814.8</ele>
        <time>2021-08-24T14:15:43Z</time>
      </trkpt>
      <trkpt lat="45.3339" lon="5.80725">
        <ele>814.9</ele>
        <time>2021-08-24T14:15:44Z</time>
      </trkpt>
      <trkpt lat="45.33385" lon="5.80722">
        <ele>815.1</ele>
        <time>2021-08-24T14:15:45Z</time>
      </trkpt>
      <trkpt lat="45.3338" lon="5.80719">
        <ele>815.3</ele>
        <time>2021-08-24T14:15:47Z</time>
      </trkpt>
      <trkpt lat="45.33375" lon="5.80716">
        <ele>815.5</ele>
        <time>2021-08-24T14:15:48Z</time>
      </trkpt>
      <trkpt lat="45.33369" lon="5.80712">
        <ele>815.8</ele>
        <time>2021-08-24T14:15:50Z</time>
      </trkpt>
      <trkpt lat="45.33364" lon="5.80708">
        <ele>815.9</ele>
        <time>2021-08-24T14:15:52Z</time>
      </trkpt>
      <trkpt lat="45.33359" lon="5.80704">
        <ele>815.8</ele>
        <time>2021-08-24T14:15:53Z</time>
      </trkpt>
      <trkpt lat="45.33355" lon="5.807">
        <ele>815.8</ele>
        <time>2021-08-24T14:15:54Z</time>
      </trkpt>
      <trkpt lat="45.33351" lon="5.80696">
        <ele>815.7</ele>
        <time>2021-08-24T14:15:56Z</time>
      </trkpt>
      <trkpt lat="45.33346" lon="5.80692">
        <ele>815.7</ele>
        <time>2021-08-24T14:15:57Z</time>
      </trkpt>
      <trkpt lat="45.33343" lon="5.80689">
        <ele>815.6</ele>
        <time>2021-08-24T14:15:58Z</time>
      </trkpt>
      <trkpt lat="45.33338" lon="5.80685">
        <ele>815.6</ele>
        <time>2021-08-24T14:16:00Z</time>
      </trkpt>
      <trkpt lat="45.33334" lon="5.80681">
        <ele>815.5</ele>
        <time>2021-08-24T14:16:01Z</time>
      </trkpt>
      <trkpt lat="45.33329" lon="5.80676">
        <ele>815.4</ele>
        <time>2021-08-24T14:16:03Z</time>
      </trkpt>
      <trkpt lat="45.33325" lon="5.80672">
        <ele>815.3</ele>
        <time>2021-08-24T14:16:04Z</time>
      </trkpt>
      <trkpt lat="45.33322" lon="5.80669">
        <ele>815.3</ele>
        <time>2021-08-24T14:16:05Z</time>
      </trkpt>
      <trkpt lat="45.33319" lon="5.80666">
        <ele>815.2</ele>
        <time>2021-08-24T14:16:06Z</time>
      </trkpt>
      <trkpt lat="45.33315" lon="5.80661">
        <ele>815.4</ele>
        <time>2021-08-24T14:16:07Z</time>
      </trkpt>
      <trkpt lat="45.33311" lon="5.80657">
        <ele>815.6</ele>
        <time>2021-08-24T14:16:09Z</time>
      </trkpt>
      <trkpt lat="45.33309" lon="5.80654">
        <ele>815.8</ele>
        <time>2021-08-24T14:16:10Z</time>
      </trkpt>
      <trkpt lat="45.33305" lon="5.80651">
        <ele>816</ele>
        <time>2021-08-24T14:16:11Z</time>
      </trkpt>
      <trkpt lat="45.33303" lon="5.80649">
        <ele>816.1</ele>
        <time>2021-08-24T14:16:12Z</time>
      </trkpt>
      <trkpt lat="45.333" lon="5.80646">
        <ele>816.3</ele>
        <time>2021-08-24T14:16:13Z</time>
      </trkpt>
      <trkpt lat="45.33297" lon="5.80643">
        <ele>816.5</ele>
        <time>2021-08-24T14:16:15Z</time>
      </trkpt>
      <trkpt lat="45.33294" lon="5.80639">
        <ele>816.7</ele>
        <time>2021-08-24T14:16:17Z</time>
      </trkpt>
      <trkpt lat="45.33291" lon="5.80637">
        <ele>817</ele>
        <time>2021-08-24T14:16:18Z</time>
      </trkpt>
      <trkpt lat="45.33288" lon="5.80635">
        <ele>817.2</ele>
        <time>2021-08-24T14:16:20Z</time>
      </trkpt>
      <trkpt lat="45.33284" lon="5.80633">
        <ele>817.5</ele>
        <time>2021-08-24T14:16:21Z</time>
      </trkpt>
      <trkpt lat="45.33283" lon="5.80633">
        <ele>817.6</ele>
        <time>2021-08-24T14:16:22Z</time>
      </trkpt>
      <trkpt lat="45.3328" lon="5.8063">
        <ele>817.9</ele>
        <time>2021-08-24T14:16:23Z</time>
      </trkpt>
      <trkpt lat="45.33279" lon="5.80629">
        <ele>818</ele>
        <time>2021-08-24T14:16:24Z</time>
      </trkpt>
      <trkpt lat="45.33276" lon="5.80628">
        <ele>818.2</ele>
        <time>2021-08-24T14:16:25Z</time>
      </trkpt>
      <trkpt lat="45.33275" lon="5.80628">
        <ele>818.2</ele>
        <time>2021-08-24T14:16:26Z</time>
      </trkpt>
      <trkpt lat="45.33272" lon="5.80626">
        <ele>818.5</ele>
        <time>2021-08-24T14:16:28Z</time>
      </trkpt>
      <trkpt lat="45.3327" lon="5.80625">
        <ele>818.7</ele>
        <time>2021-08-24T14:16:29Z</time>
      </trkpt>
      <trkpt lat="45.33268" lon="5.80623">
        <ele>818.9</ele>
        <time>2021-08-24T14:16:31Z</time>
      </trkpt>
      <trkpt lat="45.33267" lon="5.80623">
        <ele>819</ele>
        <time>2021-08-24T14:16:32Z</time>
      </trkpt>
      <trkpt lat="45.33265" lon="5.80622">
        <ele>819.1</ele>
        <time>2021-08-24T14:16:33Z</time>
      </trkpt>
      <trkpt lat="45.33261" lon="5.80619">
        <ele>819.5</ele>
        <time>2021-08-24T14:16:35Z</time>
      </trkpt>
      <trkpt lat="45.3326" lon="5.80618">
        <ele>819.6</ele>
        <time>2021-08-24T14:16:36Z</time>
      </trkpt>
      <trkpt lat="45.33259" lon="5.80617">
        <ele>819.7</ele>
        <time>2021-08-24T14:16:37Z</time>
      </trkpt>
      <trkpt lat="45.33255" lon="5.80614">
        <ele>820</ele>
        <time>2021-08-24T14:16:39Z</time>
      </trkpt>
      <trkpt lat="45.33254" lon="5.80614">
        <ele>820.1</ele>
        <time>2021-08-24T14:16:40Z</time>
      </trkpt>
      <trkpt lat="45.33252" lon="5.80613">
        <ele>820.2</ele>
        <time>2021-08-24T14:16:41Z</time>
      </trkpt>
      <trkpt lat="45.33249" lon="5.80612">
        <ele>820.5</ele>
        <time>2021-08-24T14:16:43Z</time>
      </trkpt>
      <trkpt lat="45.33247" lon="5.8061">
        <ele>820.7</ele>
        <time>2021-08-24T14:16:44Z</time>
      </trkpt>
      <trkpt lat="45.33244" lon="5.80607">
        <ele>821</ele>
        <time>2021-08-24T14:16:46Z</time>
      </trkpt>
      <trkpt lat="45.33241" lon="5.80604">
        <ele>821.3</ele>
        <time>2021-08-24T14:16:48Z</time>
      </trkpt>
      <trkpt lat="45.33238" lon="5.80601">
        <ele>821.5</ele>
        <time>2021-08-24T14:16:49Z</time>
      </trkpt>
      <trkpt lat="45.33237" lon="5.80601">
        <ele>821.6</ele>
        <time>2021-08-24T14:16:50Z</time>
      </trkpt>
      <trkpt lat="45.33235" lon="5.80598">
        <ele>821.8</ele>
        <time>2021-08-24T14:16:51Z</time>
      </trkpt>
      <trkpt lat="45.33233" lon="5.80596">
        <ele>822</ele>
        <time>2021-08-24T14:16:52Z</time>
      </trkpt>
      <trkpt lat="45.33231" lon="5.80594">
        <ele>822.2</ele>
        <time>2021-08-24T14:16:54Z</time>
      </trkpt>
      <trkpt lat="45.33229" lon="5.80593">
        <ele>822.4</ele>
        <time>2021-08-24T14:16:56Z</time>
      </trkpt>
      <trkpt lat="45.33227" lon="5.80591">
        <ele>822.6</ele>
        <time>2021-08-24T14:16:57Z</time>
      </trkpt>
      <trkpt lat="45.33225" lon="5.8059">
        <ele>822.8</ele>
        <time>2021-08-24T14:16:59Z</time>
      </trkpt>
      <trkpt lat="45.33222" lon="5.80588">
        <ele>823.1</ele>
        <time>2021-08-24T14:17:00Z</time>
      </trkpt>
      <trkpt lat="45.3322" lon="5.80587">
        <ele>823.2</ele>
        <time>2021-08-24T14:17:01Z</time>
      </trkpt>
      <trkpt lat="45.33217" lon="5.80585">
        <ele>823.5</ele>
        <time>2021-08-24T14:17:03Z</time>
      </trkpt>
      <trkpt lat="45.33214" lon="5.80584">
        <ele>823.8</ele>
        <time>2021-08-24T14:17:05Z</time>
      </trkpt>
      <trkpt lat="45.33211" lon="5.80583">
        <ele>824</ele>
        <time>2021-08-24T14:17:06Z</time>
      </trkpt>
      <trkpt lat="45.33209" lon="5.8058">
        <ele>824.3</ele>
        <time>2021-08-24T14:17:08Z</time>
      </trkpt>
      <trkpt lat="45.33206" lon="5.80578">
        <ele>824.5</ele>
        <time>2021-08-24T14:17:09Z</time>
      </trkpt>
      <trkpt lat="45.33206" lon="5.80578">
        <ele>824.6</ele>
        <time>2021-08-24T14:17:10Z</time>
      </trkpt>
      <trkpt lat="45.33204" lon="5.80577">
        <ele>824.8</ele>
        <time>2021-08-24T14:17:12Z</time>
      </trkpt>
      <trkpt lat="45.33202" lon="5.80575">
        <ele>825</ele>
        <time>2021-08-24T14:17:14Z</time>
      </trkpt>
      <trkpt lat="45.332" lon="5.80574">
        <ele>825.1</ele>
        <time>2021-08-24T14:17:15Z</time>
      </trkpt>
      <trkpt lat="45.33199" lon="5.80573">
        <ele>825.3</ele>
        <time>2021-08-24T14:17:17Z</time>
      </trkpt>
      <trkpt lat="45.33197" lon="5.80572">
        <ele>825.5</ele>
        <time>2021-08-24T14:17:18Z</time>
      </trkpt>
      <trkpt lat="45.33196" lon="5.80571">
        <ele>825.6</ele>
        <time>2021-08-24T14:17:19Z</time>
      </trkpt>
      <trkpt lat="45.33192" lon="5.80569">
        <ele>825.9</ele>
        <time>2021-08-24T14:17:21Z</time>
      </trkpt>
      <trkpt lat="45.33191" lon="5.80569">
        <ele>826</ele>
        <time>2021-08-24T14:17:22Z</time>
      </trkpt>
      <trkpt lat="45.3319" lon="5.80569">
        <ele>826.2</ele>
        <time>2021-08-24T14:17:23Z</time>
      </trkpt>
      <trkpt lat="45.33188" lon="5.80569">
        <ele>826.3</ele>
        <time>2021-08-24T14:17:24Z</time>
      </trkpt>
      <trkpt lat="45.33185" lon="5.80568">
        <ele>826.6</ele>
        <time>2021-08-24T14:17:26Z</time>
      </trkpt>
      <trkpt lat="45.33183" lon="5.80568">
        <ele>826.7</ele>
        <time>2021-08-24T14:17:27Z</time>
      </trkpt>
      <trkpt lat="45.33182" lon="5.80568">
        <ele>826.8</ele>
        <time>2021-08-24T14:17:28Z</time>
      </trkpt>
      <trkpt lat="45.33181" lon="5.80568">
        <ele>827</ele>
        <time>2021-08-24T14:17:29Z</time>
      </trkpt>
      <trkpt lat="45.3318" lon="5.80568">
        <ele>827.1</ele>
        <time>2021-08-24T14:17:30Z</time>
      </trkpt>
      <trkpt lat="45.33178" lon="5.80567">
        <ele>827.2</ele>
        <time>2021-08-24T14:17:32Z</time>
      </trkpt>
      <trkpt lat="45.33176" lon="5.80567">
        <ele>827.4</ele>
        <time>2021-08-24T14:17:33Z</time>
      </trkpt>
      <trkpt lat="45.33174" lon="5.80566">
        <ele>827.6</ele>
        <time>2021-08-24T14:17:35Z</time>
      </trkpt>
      <trkpt lat="45.33173" lon="5.80566">
        <ele>827.7</ele>
        <time>2021-08-24T14:17:36Z</time>
      </trkpt>
      <trkpt lat="45.33172" lon="5.80566">
        <ele>827.8</ele>
        <time>2021-08-24T14:17:37Z</time>
      </trkpt>
      <trkpt lat="45.33169" lon="5.80565">
        <ele>828.1</ele>
        <time>2021-08-24T14:17:39Z</time>
      </trkpt>
      <trkpt lat="45.33166" lon="5.80565">
        <ele>828.4</ele>
        <time>2021-08-24T14:17:40Z</time>
      </trkpt>
      <trkpt lat="45.33164" lon="5.80566">
        <ele>828.5</ele>
        <time>2021-08-24T14:17:42Z</time>
      </trkpt>
      <trkpt lat="45.33163" lon="5.80566">
        <ele>828.6</ele>
        <time>2021-08-24T14:17:43Z</time>
      </trkpt>
      <trkpt lat="45.33161" lon="5.80566">
        <ele>828.7</ele>
        <time>2021-08-24T14:17:44Z</time>
      </trkpt>
      <trkpt lat="45.33159" lon="5.80566">
        <ele>828.9</ele>
        <time>2021-08-24T14:17:45Z</time>
      </trkpt>
      <trkpt lat="45.33156" lon="5.80564">
        <ele>829.2</ele>
        <time>2021-08-24T14:17:47Z</time>
      </trkpt>
      <trkpt lat="45.33152" lon="5.80564">
        <ele>829.5</ele>
        <time>2021-08-24T14:17:49Z</time>
      </trkpt>
      <trkpt lat="45.33151" lon="5.80563">
        <ele>829.6</ele>
        <time>2021-08-24T14:17:50Z</time>
      </trkpt>
      <trkpt lat="45.33147" lon="5.80562">
        <ele>830</ele>
        <time>2021-08-24T14:17:52Z</time>
      </trkpt>
      <trkpt lat="45.33146" lon="5.80562">
        <ele>830.1</ele>
        <time>2021-08-24T14:17:53Z</time>
      </trkpt>
      <trkpt lat="45.33144" lon="5.80561">
        <ele>830.2</ele>
        <time>2021-08-24T14:17:54Z</time>
      </trkpt>
      <trkpt lat="45.33141" lon="5.8056">
        <ele>830.5</ele>
        <time>2021-08-24T14:17:56Z</time>
      </trkpt>
      <trkpt lat="45.33139" lon="5.80559">
        <ele>830.7</ele>
        <time>2021-08-24T14:17:57Z</time>
      </trkpt>
      <trkpt lat="45.33137" lon="5.80557">
        <ele>830.9</ele>
        <time>2021-08-24T14:17:59Z</time>
      </trkpt>
      <trkpt lat="45.33134" lon="5.80554">
        <ele>831.2</ele>
        <time>2021-08-24T14:18:00Z</time>
      </trkpt>
      <trkpt lat="45.33134" lon="5.80553">
        <ele>831.2</ele>
        <time>2021-08-24T14:18:01Z</time>
      </trkpt>
      <trkpt lat="45.33132" lon="5.80553">
        <ele>831.4</ele>
        <time>2021-08-24T14:18:02Z</time>
      </trkpt>
      <trkpt lat="45.3313" lon="5.80551">
        <ele>831.6</ele>
        <time>2021-08-24T14:18:04Z</time>
      </trkpt>
      <trkpt lat="45.33127" lon="5.80551">
        <ele>831.8</ele>
        <time>2021-08-24T14:18:05Z</time>
      </trkpt>
      <trkpt lat="45.33124" lon="5.8055">
        <ele>832</ele>
        <time>2021-08-24T14:18:06Z</time>
      </trkpt>
      <trkpt lat="45.33123" lon="5.8055">
        <ele>832.1</ele>
        <time>2021-08-24T14:18:07Z</time>
      </trkpt>
      <trkpt lat="45.3312" lon="5.80548">
        <ele>832.4</ele>
        <time>2021-08-24T14:18:09Z</time>
      </trkpt>
      <trkpt lat="45.33119" lon="5.80547">
        <ele>832.5</ele>
        <time>2021-08-24T14:18:10Z</time>
      </trkpt>
      <trkpt lat="45.33116" lon="5.80545">
        <ele>832.8</ele>
        <time>2021-08-24T14:18:12Z</time>
      </trkpt>
      <trkpt lat="45.33115" lon="5.80545">
        <ele>832.8</ele>
        <time>2021-08-24T14:18:13Z</time>
      </trkpt>
      <trkpt lat="45.33112" lon="5.80543">
        <ele>833.1</ele>
        <time>2021-08-24T14:18:15Z</time>
      </trkpt>
      <trkpt lat="45.33111" lon="5.80542">
        <ele>833.2</ele>
        <time>2021-08-24T14:18:16Z</time>
      </trkpt>
      <trkpt lat="45.33109" lon="5.80541">
        <ele>833.4</ele>
        <time>2021-08-24T14:18:17Z</time>
      </trkpt>
      <trkpt lat="45.33105" lon="5.80539">
        <ele>833.7</ele>
        <time>2021-08-24T14:18:19Z</time>
      </trkpt>
      <trkpt lat="45.33104" lon="5.80539">
        <ele>833.8</ele>
        <time>2021-08-24T14:18:20Z</time>
      </trkpt>
      <trkpt lat="45.33102" lon="5.80539">
        <ele>834</ele>
        <time>2021-08-24T14:18:22Z</time>
      </trkpt>
      <trkpt lat="45.33099" lon="5.80538">
        <ele>834.2</ele>
        <time>2021-08-24T14:18:24Z</time>
      </trkpt>
      <trkpt lat="45.33097" lon="5.80536">
        <ele>834.4</ele>
        <time>2021-08-24T14:18:25Z</time>
      </trkpt>
      <trkpt lat="45.33096" lon="5.80535">
        <ele>834.5</ele>
        <time>2021-08-24T14:18:26Z</time>
      </trkpt>
      <trkpt lat="45.33093" lon="5.80532">
        <ele>834.7</ele>
        <time>2021-08-24T14:18:28Z</time>
      </trkpt>
      <trkpt lat="45.33088" lon="5.80528">
        <ele>835.1</ele>
        <time>2021-08-24T14:18:30Z</time>
      </trkpt>
      <trkpt lat="45.33087" lon="5.80526">
        <ele>835.3</ele>
        <time>2021-08-24T14:18:32Z</time>
      </trkpt>
      <trkpt lat="45.33085" lon="5.80525">
        <ele>835.4</ele>
        <time>2021-08-24T14:18:33Z</time>
      </trkpt>
      <trkpt lat="45.33084" lon="5.80523">
        <ele>835.6</ele>
        <time>2021-08-24T14:18:34Z</time>
      </trkpt>
      <trkpt lat="45.3308" lon="5.80521">
        <ele>835.9</ele>
        <time>2021-08-24T14:18:36Z</time>
      </trkpt>
      <trkpt lat="45.3308" lon="5.8052">
        <ele>835.9</ele>
        <time>2021-08-24T14:18:37Z</time>
      </trkpt>
      <trkpt lat="45.33077" lon="5.80518">
        <ele>836.2</ele>
        <time>2021-08-24T14:18:39Z</time>
      </trkpt>
      <trkpt lat="45.33077" lon="5.80517">
        <ele>836.2</ele>
        <time>2021-08-24T14:18:40Z</time>
      </trkpt>
      <trkpt lat="45.33075" lon="5.80516">
        <ele>836.4</ele>
        <time>2021-08-24T14:18:41Z</time>
      </trkpt>
      <trkpt lat="45.33073" lon="5.80514">
        <ele>836.6</ele>
        <time>2021-08-24T14:18:43Z</time>
      </trkpt>
      <trkpt lat="45.33069" lon="5.8051">
        <ele>836.9</ele>
        <time>2021-08-24T14:18:45Z</time>
      </trkpt>
      <trkpt lat="45.33068" lon="5.80508">
        <ele>837.1</ele>
        <time>2021-08-24T14:18:47Z</time>
      </trkpt>
      <trkpt lat="45.33066" lon="5.80506">
        <ele>837.3</ele>
        <time>2021-08-24T14:18:48Z</time>
      </trkpt>
      <trkpt lat="45.33065" lon="5.80504">
        <ele>837.4</ele>
        <time>2021-08-24T14:18:49Z</time>
      </trkpt>
      <trkpt lat="45.33064" lon="5.80502">
        <ele>837.6</ele>
        <time>2021-08-24T14:18:51Z</time>
      </trkpt>
      <trkpt lat="45.33063" lon="5.805">
        <ele>837.7</ele>
        <time>2021-08-24T14:18:52Z</time>
      </trkpt>
      <trkpt lat="45.33061" lon="5.80499">
        <ele>837.8</ele>
        <time>2021-08-24T14:18:53Z</time>
      </trkpt>
      <trkpt lat="45.33059" lon="5.80496">
        <ele>838.1</ele>
        <time>2021-08-24T14:18:55Z</time>
      </trkpt>
      <trkpt lat="45.33056" lon="5.80493">
        <ele>838.3</ele>
        <time>2021-08-24T14:18:57Z</time>
      </trkpt>
      <trkpt lat="45.33055" lon="5.80491">
        <ele>838.5</ele>
        <time>2021-08-24T14:18:58Z</time>
      </trkpt>
      <trkpt lat="45.33053" lon="5.80488">
        <ele>838.7</ele>
        <time>2021-08-24T14:19:00Z</time>
      </trkpt>
      <trkpt lat="45.3305" lon="5.80486">
        <ele>838.9</ele>
        <time>2021-08-24T14:19:01Z</time>
      </trkpt>
      <trkpt lat="45.33048" lon="5.80483">
        <ele>839.2</ele>
        <time>2021-08-24T14:19:02Z</time>
      </trkpt>
      <trkpt lat="45.33047" lon="5.80482">
        <ele>839.2</ele>
        <time>2021-08-24T14:19:03Z</time>
      </trkpt>
      <trkpt lat="45.33045" lon="5.80479">
        <ele>839.5</ele>
        <time>2021-08-24T14:19:05Z</time>
      </trkpt>
      <trkpt lat="45.33044" lon="5.80478">
        <ele>839.5</ele>
        <time>2021-08-24T14:19:06Z</time>
      </trkpt>
      <trkpt lat="45.33043" lon="5.80475">
        <ele>839.8</ele>
        <time>2021-08-24T14:19:08Z</time>
      </trkpt>
      <trkpt lat="45.33041" lon="5.80471">
        <ele>840</ele>
        <time>2021-08-24T14:19:10Z</time>
      </trkpt>
      <trkpt lat="45.33039" lon="5.80469">
        <ele>840.2</ele>
        <time>2021-08-24T14:19:12Z</time>
      </trkpt>
      <trkpt lat="45.33037" lon="5.80466">
        <ele>840.4</ele>
        <time>2021-08-24T14:19:14Z</time>
      </trkpt>
      <trkpt lat="45.33035" lon="5.80465">
        <ele>840.6</ele>
        <time>2021-08-24T14:19:15Z</time>
      </trkpt>
      <trkpt lat="45.33032" lon="5.80463">
        <ele>840.9</ele>
        <time>2021-08-24T14:19:17Z</time>
      </trkpt>
      <trkpt lat="45.3303" lon="5.80462">
        <ele>841</ele>
        <time>2021-08-24T14:19:18Z</time>
      </trkpt>
      <trkpt lat="45.33026" lon="5.8046">
        <ele>841.3</ele>
        <time>2021-08-24T14:19:20Z</time>
      </trkpt>
      <trkpt lat="45.33024" lon="5.80459">
        <ele>841.5</ele>
        <time>2021-08-24T14:19:21Z</time>
      </trkpt>
      <trkpt lat="45.33021" lon="5.80457">
        <ele>841.7</ele>
        <time>2021-08-24T14:19:23Z</time>
      </trkpt>
      <trkpt lat="45.33019" lon="5.80454">
        <ele>842</ele>
        <time>2021-08-24T14:19:25Z</time>
      </trkpt>
      <trkpt lat="45.33017" lon="5.80451">
        <ele>842.2</ele>
        <time>2021-08-24T14:19:26Z</time>
      </trkpt>
      <trkpt lat="45.33016" lon="5.80448">
        <ele>842.4</ele>
        <time>2021-08-24T14:19:28Z</time>
      </trkpt>
      <trkpt lat="45.33013" lon="5.80444">
        <ele>842.7</ele>
        <time>2021-08-24T14:19:29Z</time>
      </trkpt>
      <trkpt lat="45.33012" lon="5.80443">
        <ele>842.7</ele>
        <time>2021-08-24T14:19:30Z</time>
      </trkpt>
      <trkpt lat="45.3301" lon="5.80441">
        <ele>842.9</ele>
        <time>2021-08-24T14:19:32Z</time>
      </trkpt>
      <trkpt lat="45.33007" lon="5.80438">
        <ele>843.2</ele>
        <time>2021-08-24T14:19:34Z</time>
      </trkpt>
      <trkpt lat="45.33005" lon="5.80436">
        <ele>843.4</ele>
        <time>2021-08-24T14:19:35Z</time>
      </trkpt>
      <trkpt lat="45.33004" lon="5.80435">
        <ele>843.5</ele>
        <time>2021-08-24T14:19:36Z</time>
      </trkpt>
      <trkpt lat="45.33" lon="5.8043">
        <ele>843.9</ele>
        <time>2021-08-24T14:19:38Z</time>
      </trkpt>
      <trkpt lat="45.32999" lon="5.80429">
        <ele>844.1</ele>
        <time>2021-08-24T14:19:40Z</time>
      </trkpt>
      <trkpt lat="45.32997" lon="5.80427">
        <ele>844.3</ele>
        <time>2021-08-24T14:19:42Z</time>
      </trkpt>
      <trkpt lat="45.32996" lon="5.80425">
        <ele>844.4</ele>
        <time>2021-08-24T14:19:43Z</time>
      </trkpt>
      <trkpt lat="45.32994" lon="5.80424">
        <ele>844.6</ele>
        <time>2021-08-24T14:19:44Z</time>
      </trkpt>
      <trkpt lat="45.32991" lon="5.80422">
        <ele>844.8</ele>
        <time>2021-08-24T14:19:46Z</time>
      </trkpt>
      <trkpt lat="45.32989" lon="5.8042">
        <ele>845.1</ele>
        <time>2021-08-24T14:19:47Z</time>
      </trkpt>
      <trkpt lat="45.32986" lon="5.80418">
        <ele>845.3</ele>
        <time>2021-08-24T14:19:48Z</time>
      </trkpt>
      <trkpt lat="45.32985" lon="5.80417">
        <ele>845.4</ele>
        <time>2021-08-24T14:19:49Z</time>
      </trkpt>
      <trkpt lat="45.32983" lon="5.80416">
        <ele>845.5</ele>
        <time>2021-08-24T14:19:50Z</time>
      </trkpt>
      <trkpt lat="45.3298" lon="5.80414">
        <ele>845.8</ele>
        <time>2021-08-24T14:19:52Z</time>
      </trkpt>
      <trkpt lat="45.32977" lon="5.80412">
        <ele>846.1</ele>
        <time>2021-08-24T14:19:53Z</time>
      </trkpt>
      <trkpt lat="45.32977" lon="5.80412">
        <ele>846.1</ele>
        <time>2021-08-24T14:19:54Z</time>
      </trkpt>
      <trkpt lat="45.32974" lon="5.80409">
        <ele>846.4</ele>
        <time>2021-08-24T14:19:56Z</time>
      </trkpt>
      <trkpt lat="45.32971" lon="5.80407">
        <ele>846.7</ele>
        <time>2021-08-24T14:19:58Z</time>
      </trkpt>
      <trkpt lat="45.32969" lon="5.80406">
        <ele>846.8</ele>
        <time>2021-08-24T14:19:59Z</time>
      </trkpt>
      <trkpt lat="45.32967" lon="5.80404">
        <ele>847</ele>
        <time>2021-08-24T14:20:01Z</time>
      </trkpt>
      <trkpt lat="45.32964" lon="5.80403">
        <ele>847.2</ele>
        <time>2021-08-24T14:20:02Z</time>
      </trkpt>
      <trkpt lat="45.32964" lon="5.80402">
        <ele>847.3</ele>
        <time>2021-08-24T14:20:03Z</time>
      </trkpt>
      <trkpt lat="45.32962" lon="5.80401">
        <ele>847.5</ele>
        <time>2021-08-24T14:20:04Z</time>
      </trkpt>
      <trkpt lat="45.3296" lon="5.804">
        <ele>847.6</ele>
        <time>2021-08-24T14:20:05Z</time>
      </trkpt>
      <trkpt lat="45.32959" lon="5.804">
        <ele>847.7</ele>
        <time>2021-08-24T14:20:06Z</time>
      </trkpt>
      <trkpt lat="45.32956" lon="5.80398">
        <ele>847.9</ele>
        <time>2021-08-24T14:20:08Z</time>
      </trkpt>
      <trkpt lat="45.32953" lon="5.80395">
        <ele>848.2</ele>
        <time>2021-08-24T14:20:10Z</time>
      </trkpt>
      <trkpt lat="45.32952" lon="5.80394">
        <ele>848.3</ele>
        <time>2021-08-24T14:20:11Z</time>
      </trkpt>
      <trkpt lat="45.32951" lon="5.80393">
        <ele>848.4</ele>
        <time>2021-08-24T14:20:12Z</time>
      </trkpt>
      <trkpt lat="45.32949" lon="5.80389">
        <ele>848.7</ele>
        <time>2021-08-24T14:20:14Z</time>
      </trkpt>
      <trkpt lat="45.32947" lon="5.80386">
        <ele>848.9</ele>
        <time>2021-08-24T14:20:16Z</time>
      </trkpt>
      <trkpt lat="45.32945" lon="5.80385">
        <ele>849</ele>
        <time>2021-08-24T14:20:17Z</time>
      </trkpt>
      <trkpt lat="45.32944" lon="5.80384">
        <ele>849.2</ele>
        <time>2021-08-24T14:20:18Z</time>
      </trkpt>
      <trkpt lat="45.32942" lon="5.80381">
        <ele>849.4</ele>
        <time>2021-08-24T14:20:20Z</time>
      </trkpt>
      <trkpt lat="45.3294" lon="5.80379">
        <ele>849.6</ele>
        <time>2021-08-24T14:20:21Z</time>
      </trkpt>
      <trkpt lat="45.32938" lon="5.80378">
        <ele>849.8</ele>
        <time>2021-08-24T14:20:22Z</time>
      </trkpt>
      <trkpt lat="45.32935" lon="5.80376">
        <ele>850.1</ele>
        <time>2021-08-24T14:20:24Z</time>
      </trkpt>
      <trkpt lat="45.32932" lon="5.80374">
        <ele>850.3</ele>
        <time>2021-08-24T14:20:25Z</time>
      </trkpt>
      <trkpt lat="45.3293" lon="5.80373">
        <ele>850.4</ele>
        <time>2021-08-24T14:20:26Z</time>
      </trkpt>
      <trkpt lat="45.32928" lon="5.80372">
        <ele>850.6</ele>
        <time>2021-08-24T14:20:28Z</time>
      </trkpt>
      <trkpt lat="45.32926" lon="5.80371">
        <ele>850.8</ele>
        <time>2021-08-24T14:20:29Z</time>
      </trkpt>
      <trkpt lat="45.32925" lon="5.8037">
        <ele>850.9</ele>
        <time>2021-08-24T14:20:30Z</time>
      </trkpt>
      <trkpt lat="45.32924" lon="5.80369">
        <ele>851</ele>
        <time>2021-08-24T14:20:31Z</time>
      </trkpt>
      <trkpt lat="45.32923" lon="5.80368">
        <ele>851.1</ele>
        <time>2021-08-24T14:20:32Z</time>
      </trkpt>
      <trkpt lat="45.3292" lon="5.80366">
        <ele>851.3</ele>
        <time>2021-08-24T14:20:33Z</time>
      </trkpt>
      <trkpt lat="45.32919" lon="5.80366">
        <ele>851.4</ele>
        <time>2021-08-24T14:20:34Z</time>
      </trkpt>
      <trkpt lat="45.32918" lon="5.80364">
        <ele>851.5</ele>
        <time>2021-08-24T14:20:35Z</time>
      </trkpt>
      <trkpt lat="45.32917" lon="5.80363">
        <ele>851.6</ele>
        <time>2021-08-24T14:20:36Z</time>
      </trkpt>
      <trkpt lat="45.32916" lon="5.80359">
        <ele>851.9</ele>
        <time>2021-08-24T14:20:38Z</time>
      </trkpt>
      <trkpt lat="45.32915" lon="5.80358">
        <ele>851.9</ele>
        <time>2021-08-24T14:20:39Z</time>
      </trkpt>
      <trkpt lat="45.32913" lon="5.80355">
        <ele>852.2</ele>
        <time>2021-08-24T14:20:41Z</time>
      </trkpt>
      <trkpt lat="45.32911" lon="5.80354">
        <ele>852.3</ele>
        <time>2021-08-24T14:20:42Z</time>
      </trkpt>
      <trkpt lat="45.32909" lon="5.8035">
        <ele>852.6</ele>
        <time>2021-08-24T14:20:44Z</time>
      </trkpt>
      <trkpt lat="45.32905" lon="5.80346">
        <ele>853</ele>
        <time>2021-08-24T14:20:46Z</time>
      </trkpt>
      <trkpt lat="45.32904" lon="5.80345">
        <ele>853.1</ele>
        <time>2021-08-24T14:20:47Z</time>
      </trkpt>
      <trkpt lat="45.32903" lon="5.80345">
        <ele>853.2</ele>
        <time>2021-08-24T14:20:48Z</time>
      </trkpt>
      <trkpt lat="45.32899" lon="5.80341">
        <ele>853.5</ele>
        <time>2021-08-24T14:20:50Z</time>
      </trkpt>
      <trkpt lat="45.32895" lon="5.80339">
        <ele>853.9</ele>
        <time>2021-08-24T14:20:52Z</time>
      </trkpt>
      <trkpt lat="45.32892" lon="5.80336">
        <ele>854.2</ele>
        <time>2021-08-24T14:20:54Z</time>
      </trkpt>
      <trkpt lat="45.32889" lon="5.80333">
        <ele>854.5</ele>
        <time>2021-08-24T14:20:56Z</time>
      </trkpt>
      <trkpt lat="45.32887" lon="5.80331">
        <ele>854.7</ele>
        <time>2021-08-24T14:20:57Z</time>
      </trkpt>
      <trkpt lat="45.32885" lon="5.80328">
        <ele>855</ele>
        <time>2021-08-24T14:20:59Z</time>
      </trkpt>
      <trkpt lat="45.32882" lon="5.80325">
        <ele>855.3</ele>
        <time>2021-08-24T14:21:00Z</time>
      </trkpt>
      <trkpt lat="45.32881" lon="5.80323">
        <ele>855.4</ele>
        <time>2021-08-24T14:21:01Z</time>
      </trkpt>
      <trkpt lat="45.32877" lon="5.80319">
        <ele>855.8</ele>
        <time>2021-08-24T14:21:03Z</time>
      </trkpt>
      <trkpt lat="45.32876" lon="5.80318">
        <ele>855.9</ele>
        <time>2021-08-24T14:21:04Z</time>
      </trkpt>
      <trkpt lat="45.32875" lon="5.80316">
        <ele>856</ele>
        <time>2021-08-24T14:21:05Z</time>
      </trkpt>
      <trkpt lat="45.32872" lon="5.80312">
        <ele>856.4</ele>
        <time>2021-08-24T14:21:07Z</time>
      </trkpt>
      <trkpt lat="45.32871" lon="5.8031">
        <ele>856.6</ele>
        <time>2021-08-24T14:21:08Z</time>
      </trkpt>
      <trkpt lat="45.32868" lon="5.80307">
        <ele>856.8</ele>
        <time>2021-08-24T14:21:10Z</time>
      </trkpt>
      <trkpt lat="45.32866" lon="5.80303">
        <ele>857.1</ele>
        <time>2021-08-24T14:21:11Z</time>
      </trkpt>
      <trkpt lat="45.32866" lon="5.80302">
        <ele>857.2</ele>
        <time>2021-08-24T14:21:12Z</time>
      </trkpt>
      <trkpt lat="45.32863" lon="5.80297">
        <ele>857.5</ele>
        <time>2021-08-24T14:21:14Z</time>
      </trkpt>
      <trkpt lat="45.32862" lon="5.80295">
        <ele>857.6</ele>
        <time>2021-08-24T14:21:15Z</time>
      </trkpt>
      <trkpt lat="45.3286" lon="5.80292">
        <ele>857.9</ele>
        <time>2021-08-24T14:21:16Z</time>
      </trkpt>
      <trkpt lat="45.32858" lon="5.80288">
        <ele>858.2</ele>
        <time>2021-08-24T14:21:18Z</time>
      </trkpt>
      <trkpt lat="45.32857" lon="5.80284">
        <ele>858.5</ele>
        <time>2021-08-24T14:21:19Z</time>
      </trkpt>
      <trkpt lat="45.32855" lon="5.80281">
        <ele>858.7</ele>
        <time>2021-08-24T14:21:21Z</time>
      </trkpt>
      <trkpt lat="45.32854" lon="5.80278">
        <ele>858.9</ele>
        <time>2021-08-24T14:21:22Z</time>
      </trkpt>
      <trkpt lat="45.32854" lon="5.80276">
        <ele>859</ele>
        <time>2021-08-24T14:21:23Z</time>
      </trkpt>
      <trkpt lat="45.32853" lon="5.80273">
        <ele>859.2</ele>
        <time>2021-08-24T14:21:24Z</time>
      </trkpt>
      <trkpt lat="45.32853" lon="5.80271">
        <ele>859.3</ele>
        <time>2021-08-24T14:21:25Z</time>
      </trkpt>
      <trkpt lat="45.32852" lon="5.80269">
        <ele>859.5</ele>
        <time>2021-08-24T14:21:26Z</time>
      </trkpt>
      <trkpt lat="45.32851" lon="5.80267">
        <ele>859.6</ele>
        <time>2021-08-24T14:21:27Z</time>
      </trkpt>
      <trkpt lat="45.3285" lon="5.80263">
        <ele>859.9</ele>
        <time>2021-08-24T14:21:28Z</time>
      </trkpt>
      <trkpt lat="45.3285" lon="5.80262">
        <ele>859.9</ele>
        <time>2021-08-24T14:21:29Z</time>
      </trkpt>
      <trkpt lat="45.32848" lon="5.80257">
        <ele>860.3</ele>
        <time>2021-08-24T14:21:31Z</time>
      </trkpt>
      <trkpt lat="45.32847" lon="5.80255">
        <ele>860.4</ele>
        <time>2021-08-24T14:21:32Z</time>
      </trkpt>
      <trkpt lat="45.32847" lon="5.80253">
        <ele>860.5</ele>
        <time>2021-08-24T14:21:33Z</time>
      </trkpt>
      <trkpt lat="45.32845" lon="5.80249">
        <ele>860.8</ele>
        <time>2021-08-24T14:21:35Z</time>
      </trkpt>
      <trkpt lat="45.32845" lon="5.80246">
        <ele>861</ele>
        <time>2021-08-24T14:21:36Z</time>
      </trkpt>
      <trkpt lat="45.32843" lon="5.80241">
        <ele>861.3</ele>
        <time>2021-08-24T14:21:38Z</time>
      </trkpt>
      <trkpt lat="45.32842" lon="5.80236">
        <ele>861.6</ele>
        <time>2021-08-24T14:21:40Z</time>
      </trkpt>
      <trkpt lat="45.32843" lon="5.80232">
        <ele>861.8</ele>
        <time>2021-08-24T14:21:41Z</time>
      </trkpt>
      <trkpt lat="45.32843" lon="5.8023">
        <ele>861.9</ele>
        <time>2021-08-24T14:21:42Z</time>
      </trkpt>
      <trkpt lat="45.32843" lon="5.80228">
        <ele>862</ele>
        <time>2021-08-24T14:21:43Z</time>
      </trkpt>
      <trkpt lat="45.32843" lon="5.80225">
        <ele>862.2</ele>
        <time>2021-08-24T14:21:44Z</time>
      </trkpt>
      <trkpt lat="45.32843" lon="5.8022">
        <ele>862.5</ele>
        <time>2021-08-24T14:21:46Z</time>
      </trkpt>
      <trkpt lat="45.32844" lon="5.80218">
        <ele>862.6</ele>
        <time>2021-08-24T14:21:47Z</time>
      </trkpt>
      <trkpt lat="45.32844" lon="5.80215">
        <ele>862.8</ele>
        <time>2021-08-24T14:21:48Z</time>
      </trkpt>
      <trkpt lat="45.32844" lon="5.80213">
        <ele>862.9</ele>
        <time>2021-08-24T14:21:49Z</time>
      </trkpt>
      <trkpt lat="45.32845" lon="5.8021">
        <ele>863.1</ele>
        <time>2021-08-24T14:21:51Z</time>
      </trkpt>
      <trkpt lat="45.32846" lon="5.80207">
        <ele>863.3</ele>
        <time>2021-08-24T14:21:52Z</time>
      </trkpt>
      <trkpt lat="45.32846" lon="5.80204">
        <ele>863.5</ele>
        <time>2021-08-24T14:21:54Z</time>
      </trkpt>
      <trkpt lat="45.32847" lon="5.80198">
        <ele>863.8</ele>
        <time>2021-08-24T14:21:55Z</time>
      </trkpt>
      <trkpt lat="45.32847" lon="5.80197">
        <ele>863.9</ele>
        <time>2021-08-24T14:21:56Z</time>
      </trkpt>
      <trkpt lat="45.32847" lon="5.80193">
        <ele>864.1</ele>
        <time>2021-08-24T14:21:58Z</time>
      </trkpt>
      <trkpt lat="45.32847" lon="5.80191">
        <ele>864.2</ele>
        <time>2021-08-24T14:21:59Z</time>
      </trkpt>
      <trkpt lat="45.32847" lon="5.80188">
        <ele>864.4</ele>
        <time>2021-08-24T14:22:00Z</time>
      </trkpt>
      <trkpt lat="45.32846" lon="5.80186">
        <ele>864.5</ele>
        <time>2021-08-24T14:22:01Z</time>
      </trkpt>
      <trkpt lat="45.32845" lon="5.80185">
        <ele>864.6</ele>
        <time>2021-08-24T14:22:02Z</time>
      </trkpt>
      <trkpt lat="45.32843" lon="5.80181">
        <ele>864.8</ele>
        <time>2021-08-24T14:22:04Z</time>
      </trkpt>
      <trkpt lat="45.32843" lon="5.8018">
        <ele>864.9</ele>
        <time>2021-08-24T14:22:05Z</time>
      </trkpt>
      <trkpt lat="45.32842" lon="5.80177">
        <ele>865.1</ele>
        <time>2021-08-24T14:22:06Z</time>
      </trkpt>
      <trkpt lat="45.32841" lon="5.80175">
        <ele>865.3</ele>
        <time>2021-08-24T14:22:08Z</time>
      </trkpt>
      <trkpt lat="45.32839" lon="5.80172">
        <ele>865.4</ele>
        <time>2021-08-24T14:22:09Z</time>
      </trkpt>
      <trkpt lat="45.32837" lon="5.8017">
        <ele>865.6</ele>
        <time>2021-08-24T14:22:11Z</time>
      </trkpt>
      <trkpt lat="45.32835" lon="5.80167">
        <ele>865.9</ele>
        <time>2021-08-24T14:22:12Z</time>
      </trkpt>
      <trkpt lat="45.32833" lon="5.80164">
        <ele>866.1</ele>
        <time>2021-08-24T14:22:13Z</time>
      </trkpt>
      <trkpt lat="45.32828" lon="5.80159">
        <ele>866.5</ele>
        <time>2021-08-24T14:22:15Z</time>
      </trkpt>
      <trkpt lat="45.32827" lon="5.80158">
        <ele>866.7</ele>
        <time>2021-08-24T14:22:16Z</time>
      </trkpt>
      <trkpt lat="45.32825" lon="5.80157">
        <ele>866.8</ele>
        <time>2021-08-24T14:22:17Z</time>
      </trkpt>
      <trkpt lat="45.32824" lon="5.80156">
        <ele>866.9</ele>
        <time>2021-08-24T14:22:18Z</time>
      </trkpt>
      <trkpt lat="45.32821" lon="5.80154">
        <ele>867.1</ele>
        <time>2021-08-24T14:22:20Z</time>
      </trkpt>
      <trkpt lat="45.32819" lon="5.80153">
        <ele>867.3</ele>
        <time>2021-08-24T14:22:21Z</time>
      </trkpt>
      <trkpt lat="45.32817" lon="5.80151">
        <ele>867.5</ele>
        <time>2021-08-24T14:22:23Z</time>
      </trkpt>
      <trkpt lat="45.32815" lon="5.8015">
        <ele>867.7</ele>
        <time>2021-08-24T14:22:24Z</time>
      </trkpt>
      <trkpt lat="45.32811" lon="5.80149">
        <ele>867.9</ele>
        <time>2021-08-24T14:22:26Z</time>
      </trkpt>
      <trkpt lat="45.32809" lon="5.80148">
        <ele>868.1</ele>
        <time>2021-08-24T14:22:27Z</time>
      </trkpt>
      <trkpt lat="45.32806" lon="5.80146">
        <ele>868.4</ele>
        <time>2021-08-24T14:22:29Z</time>
      </trkpt>
      <trkpt lat="45.32802" lon="5.80142">
        <ele>868.7</ele>
        <time>2021-08-24T14:22:31Z</time>
      </trkpt>
      <trkpt lat="45.32799" lon="5.8014">
        <ele>869</ele>
        <time>2021-08-24T14:22:33Z</time>
      </trkpt>
      <trkpt lat="45.32795" lon="5.80138">
        <ele>869.3</ele>
        <time>2021-08-24T14:22:35Z</time>
      </trkpt>
      <trkpt lat="45.32794" lon="5.80137">
        <ele>869.4</ele>
        <time>2021-08-24T14:22:36Z</time>
      </trkpt>
      <trkpt lat="45.3279" lon="5.80133">
        <ele>869.8</ele>
        <time>2021-08-24T14:22:38Z</time>
      </trkpt>
      <trkpt lat="45.32788" lon="5.80131">
        <ele>869.9</ele>
        <time>2021-08-24T14:22:40Z</time>
      </trkpt>
      <trkpt lat="45.32787" lon="5.8013">
        <ele>870.1</ele>
        <time>2021-08-24T14:22:41Z</time>
      </trkpt>
      <trkpt lat="45.32785" lon="5.80128">
        <ele>870.2</ele>
        <time>2021-08-24T14:22:42Z</time>
      </trkpt>
      <trkpt lat="45.32782" lon="5.80125">
        <ele>870.5</ele>
        <time>2021-08-24T14:22:43Z</time>
      </trkpt>
      <trkpt lat="45.32782" lon="5.80124">
        <ele>870.6</ele>
        <time>2021-08-24T14:22:44Z</time>
      </trkpt>
      <trkpt lat="45.3278" lon="5.80121">
        <ele>870.8</ele>
        <time>2021-08-24T14:22:46Z</time>
      </trkpt>
      <trkpt lat="45.32778" lon="5.80118">
        <ele>871</ele>
        <time>2021-08-24T14:22:47Z</time>
      </trkpt>
      <trkpt lat="45.32776" lon="5.80113">
        <ele>871.3</ele>
        <time>2021-08-24T14:22:49Z</time>
      </trkpt>
      <trkpt lat="45.32774" lon="5.80107">
        <ele>871.6</ele>
        <time>2021-08-24T14:22:51Z</time>
      </trkpt>
      <trkpt lat="45.32773" lon="5.80105">
        <ele>871.8</ele>
        <time>2021-08-24T14:22:52Z</time>
      </trkpt>
      <trkpt lat="45.32772" lon="5.80103">
        <ele>871.9</ele>
        <time>2021-08-24T14:22:53Z</time>
      </trkpt>
      <trkpt lat="45.32771" lon="5.801">
        <ele>872.1</ele>
        <time>2021-08-24T14:22:55Z</time>
      </trkpt>
      <trkpt lat="45.32769" lon="5.80097">
        <ele>872.3</ele>
        <time>2021-08-24T14:22:56Z</time>
      </trkpt>
      <trkpt lat="45.32767" lon="5.80096">
        <ele>872.4</ele>
        <time>2021-08-24T14:22:58Z</time>
      </trkpt>
      <trkpt lat="45.32764" lon="5.80093">
        <ele>872.7</ele>
        <time>2021-08-24T14:23:00Z</time>
      </trkpt>
      <trkpt lat="45.32762" lon="5.8009">
        <ele>872.9</ele>
        <time>2021-08-24T14:23:01Z</time>
      </trkpt>
      <trkpt lat="45.32761" lon="5.80089">
        <ele>873</ele>
        <time>2021-08-24T14:23:02Z</time>
      </trkpt>
      <trkpt lat="45.32758" lon="5.80086">
        <ele>873.2</ele>
        <time>2021-08-24T14:23:03Z</time>
      </trkpt>
      <trkpt lat="45.32758" lon="5.80085">
        <ele>873.3</ele>
        <time>2021-08-24T14:23:04Z</time>
      </trkpt>
      <trkpt lat="45.32757" lon="5.80083">
        <ele>873.4</ele>
        <time>2021-08-24T14:23:05Z</time>
      </trkpt>
      <trkpt lat="45.32756" lon="5.80081">
        <ele>873.5</ele>
        <time>2021-08-24T14:23:06Z</time>
      </trkpt>
      <trkpt lat="45.32755" lon="5.80079">
        <ele>873.6</ele>
        <time>2021-08-24T14:23:07Z</time>
      </trkpt>
      <trkpt lat="45.32754" lon="5.80077">
        <ele>873.8</ele>
        <time>2021-08-24T14:23:08Z</time>
      </trkpt>
      <trkpt lat="45.32753" lon="5.80076">
        <ele>873.9</ele>
        <time>2021-08-24T14:23:09Z</time>
      </trkpt>
      <trkpt lat="45.32752" lon="5.80075">
        <ele>873.9</ele>
        <time>2021-08-24T14:23:10Z</time>
      </trkpt>
      <trkpt lat="45.32751" lon="5.80072">
        <ele>874.1</ele>
        <time>2021-08-24T14:23:12Z</time>
      </trkpt>
      <trkpt lat="45.32748" lon="5.80068">
        <ele>874.4</ele>
        <time>2021-08-24T14:23:14Z</time>
      </trkpt>
      <trkpt lat="45.32747" lon="5.80066">
        <ele>874.5</ele>
        <time>2021-08-24T14:23:16Z</time>
      </trkpt>
      <trkpt lat="45.32745" lon="5.80065">
        <ele>874.7</ele>
        <time>2021-08-24T14:23:17Z</time>
      </trkpt>
      <trkpt lat="45.32743" lon="5.80063">
        <ele>874.9</ele>
        <time>2021-08-24T14:23:19Z</time>
      </trkpt>
      <trkpt lat="45.32742" lon="5.80062">
        <ele>875</ele>
        <time>2021-08-24T14:23:20Z</time>
      </trkpt>
      <trkpt lat="45.32739" lon="5.80059">
        <ele>875.2</ele>
        <time>2021-08-24T14:23:22Z</time>
      </trkpt>
      <trkpt lat="45.32737" lon="5.80056">
        <ele>875.5</ele>
        <time>2021-08-24T14:23:23Z</time>
      </trkpt>
      <trkpt lat="45.32736" lon="5.80055">
        <ele>875.6</ele>
        <time>2021-08-24T14:23:24Z</time>
      </trkpt>
      <trkpt lat="45.32732" lon="5.80052">
        <ele>875.9</ele>
        <time>2021-08-24T14:23:26Z</time>
      </trkpt>
      <trkpt lat="45.32731" lon="5.80051">
        <ele>876</ele>
        <time>2021-08-24T14:23:27Z</time>
      </trkpt>
      <trkpt lat="45.3273" lon="5.8005">
        <ele>876.1</ele>
        <time>2021-08-24T14:23:28Z</time>
      </trkpt>
      <trkpt lat="45.32728" lon="5.80048">
        <ele>876.3</ele>
        <time>2021-08-24T14:23:29Z</time>
      </trkpt>
      <trkpt lat="45.32726" lon="5.80047">
        <ele>876.4</ele>
        <time>2021-08-24T14:23:31Z</time>
      </trkpt>
      <trkpt lat="45.32725" lon="5.80045">
        <ele>876.5</ele>
        <time>2021-08-24T14:23:32Z</time>
      </trkpt>
      <trkpt lat="45.32724" lon="5.80043">
        <ele>876.7</ele>
        <time>2021-08-24T14:23:33Z</time>
      </trkpt>
      <trkpt lat="45.32722" lon="5.8004">
        <ele>876.9</ele>
        <time>2021-08-24T14:23:35Z</time>
      </trkpt>
      <trkpt lat="45.32721" lon="5.80036">
        <ele>877.2</ele>
        <time>2021-08-24T14:23:37Z</time>
      </trkpt>
      <trkpt lat="45.32718" lon="5.80031">
        <ele>877.5</ele>
        <time>2021-08-24T14:23:39Z</time>
      </trkpt>
      <trkpt lat="45.32716" lon="5.80026">
        <ele>877.7</ele>
        <time>2021-08-24T14:23:41Z</time>
      </trkpt>
      <trkpt lat="45.32716" lon="5.80024">
        <ele>877.8</ele>
        <time>2021-08-24T14:23:42Z</time>
      </trkpt>
      <trkpt lat="45.32715" lon="5.80021">
        <ele>878</ele>
        <time>2021-08-24T14:23:43Z</time>
      </trkpt>
      <trkpt lat="45.32714" lon="5.80019">
        <ele>878.1</ele>
        <time>2021-08-24T14:23:45Z</time>
      </trkpt>
      <trkpt lat="45.32713" lon="5.80016">
        <ele>878.3</ele>
        <time>2021-08-24T14:23:46Z</time>
      </trkpt>
      <trkpt lat="45.32713" lon="5.80014">
        <ele>878.4</ele>
        <time>2021-08-24T14:23:47Z</time>
      </trkpt>
      <trkpt lat="45.32712" lon="5.8001">
        <ele>878.6</ele>
        <time>2021-08-24T14:23:49Z</time>
      </trkpt>
      <trkpt lat="45.32712" lon="5.80009">
        <ele>878.7</ele>
        <time>2021-08-24T14:23:50Z</time>
      </trkpt>
      <trkpt lat="45.32712" lon="5.80006">
        <ele>878.8</ele>
        <time>2021-08-24T14:23:51Z</time>
      </trkpt>
      <trkpt lat="45.32711" lon="5.80002">
        <ele>879</ele>
        <time>2021-08-24T14:23:53Z</time>
      </trkpt>
      <trkpt lat="45.32711" lon="5.8">
        <ele>879.1</ele>
        <time>2021-08-24T14:23:54Z</time>
      </trkpt>
      <trkpt lat="45.32711" lon="5.79996">
        <ele>879.3</ele>
        <time>2021-08-24T14:23:56Z</time>
      </trkpt>
      <trkpt lat="45.32711" lon="5.79993">
        <ele>879.4</ele>
        <time>2021-08-24T14:23:57Z</time>
      </trkpt>
      <trkpt lat="45.32711" lon="5.79988">
        <ele>879.6</ele>
        <time>2021-08-24T14:23:59Z</time>
      </trkpt>
      <trkpt lat="45.32711" lon="5.79986">
        <ele>879.6</ele>
        <time>2021-08-24T14:24:00Z</time>
      </trkpt>
      <trkpt lat="45.3271" lon="5.79981">
        <ele>879.6</ele>
        <time>2021-08-24T14:24:02Z</time>
      </trkpt>
      <trkpt lat="45.32709" lon="5.79976">
        <ele>879.6</ele>
        <time>2021-08-24T14:24:04Z</time>
      </trkpt>
      <trkpt lat="45.32707" lon="5.7997">
        <ele>879.8</ele>
        <time>2021-08-24T14:24:06Z</time>
      </trkpt>
      <trkpt lat="45.32707" lon="5.79966">
        <ele>879.9</ele>
        <time>2021-08-24T14:24:07Z</time>
      </trkpt>
      <trkpt lat="45.32706" lon="5.79964">
        <ele>880</ele>
        <time>2021-08-24T14:24:08Z</time>
      </trkpt>
      <trkpt lat="45.32706" lon="5.7996">
        <ele>880.1</ele>
        <time>2021-08-24T14:24:09Z</time>
      </trkpt>
      <trkpt lat="45.32705" lon="5.79959">
        <ele>880.2</ele>
        <time>2021-08-24T14:24:10Z</time>
      </trkpt>
      <trkpt lat="45.32704" lon="5.79954">
        <ele>880.3</ele>
        <time>2021-08-24T14:24:12Z</time>
      </trkpt>
      <trkpt lat="45.32703" lon="5.79949">
        <ele>880.5</ele>
        <time>2021-08-24T14:24:14Z</time>
      </trkpt>
      <trkpt lat="45.32702" lon="5.79942">
        <ele>880.6</ele>
        <time>2021-08-24T14:24:16Z</time>
      </trkpt>
      <trkpt lat="45.32701" lon="5.79939">
        <ele>880.7</ele>
        <time>2021-08-24T14:24:17Z</time>
      </trkpt>
      <trkpt lat="45.32699" lon="5.79933">
        <ele>880.8</ele>
        <time>2021-08-24T14:24:19Z</time>
      </trkpt>
      <trkpt lat="45.32697" lon="5.79926">
        <ele>881</ele>
        <time>2021-08-24T14:24:21Z</time>
      </trkpt>
      <trkpt lat="45.32697" lon="5.79924">
        <ele>881.1</ele>
        <time>2021-08-24T14:24:22Z</time>
      </trkpt>
      <trkpt lat="45.32696" lon="5.79921">
        <ele>881.1</ele>
        <time>2021-08-24T14:24:23Z</time>
      </trkpt>
      <trkpt lat="45.32695" lon="5.79917">
        <ele>881.2</ele>
        <time>2021-08-24T14:24:24Z</time>
      </trkpt>
      <trkpt lat="45.32695" lon="5.79914">
        <ele>881.3</ele>
        <time>2021-08-24T14:24:25Z</time>
      </trkpt>
      <trkpt lat="45.32693" lon="5.79907">
        <ele>881.4</ele>
        <time>2021-08-24T14:24:27Z</time>
      </trkpt>
      <trkpt lat="45.32692" lon="5.79903">
        <ele>881.5</ele>
        <time>2021-08-24T14:24:28Z</time>
      </trkpt>
      <trkpt lat="45.32691" lon="5.79899">
        <ele>881.6</ele>
        <time>2021-08-24T14:24:29Z</time>
      </trkpt>
      <trkpt lat="45.3269" lon="5.79894">
        <ele>881.7</ele>
        <time>2021-08-24T14:24:30Z</time>
      </trkpt>
      <trkpt lat="45.32689" lon="5.79892">
        <ele>881.8</ele>
        <time>2021-08-24T14:24:31Z</time>
      </trkpt>
      <trkpt lat="45.32689" lon="5.79887">
        <ele>881.9</ele>
        <time>2021-08-24T14:24:33Z</time>
      </trkpt>
      <trkpt lat="45.32688" lon="5.79885">
        <ele>881.9</ele>
        <time>2021-08-24T14:24:34Z</time>
      </trkpt>
      <trkpt lat="45.32688" lon="5.79881">
        <ele>882</ele>
        <time>2021-08-24T14:24:35Z</time>
      </trkpt>
      <trkpt lat="45.32687" lon="5.79877">
        <ele>882.1</ele>
        <time>2021-08-24T14:24:36Z</time>
      </trkpt>
      <trkpt lat="45.32686" lon="5.79869">
        <ele>882.2</ele>
        <time>2021-08-24T14:24:38Z</time>
      </trkpt>
      <trkpt lat="45.32685" lon="5.79864">
        <ele>882.4</ele>
        <time>2021-08-24T14:24:40Z</time>
      </trkpt>
      <trkpt lat="45.32684" lon="5.79859">
        <ele>882.6</ele>
        <time>2021-08-24T14:24:41Z</time>
      </trkpt>
      <trkpt lat="45.32684" lon="5.79857">
        <ele>882.7</ele>
        <time>2021-08-24T14:24:42Z</time>
      </trkpt>
      <trkpt lat="45.32684" lon="5.79854">
        <ele>882.8</ele>
        <time>2021-08-24T14:24:43Z</time>
      </trkpt>
      <trkpt lat="45.32683" lon="5.79849">
        <ele>883</ele>
        <time>2021-08-24T14:24:45Z</time>
      </trkpt>
      <trkpt lat="45.32682" lon="5.79843">
        <ele>883.3</ele>
        <time>2021-08-24T14:24:46Z</time>
      </trkpt>
      <trkpt lat="45.32682" lon="5.79841">
        <ele>883.4</ele>
        <time>2021-08-24T14:24:47Z</time>
      </trkpt>
      <trkpt lat="45.32681" lon="5.79834">
        <ele>883.7</ele>
        <time>2021-08-24T14:24:49Z</time>
      </trkpt>
      <trkpt lat="45.32681" lon="5.79829">
        <ele>884</ele>
        <time>2021-08-24T14:24:50Z</time>
      </trkpt>
      <trkpt lat="45.3268" lon="5.79827">
        <ele>884.1</ele>
        <time>2021-08-24T14:24:51Z</time>
      </trkpt>
      <trkpt lat="45.32679" lon="5.79822">
        <ele>884.3</ele>
        <time>2021-08-24T14:24:52Z</time>
      </trkpt>
      <trkpt lat="45.32678" lon="5.79819">
        <ele>884.5</ele>
        <time>2021-08-24T14:24:53Z</time>
      </trkpt>
      <trkpt lat="45.32677" lon="5.79813">
        <ele>884.8</ele>
        <time>2021-08-24T14:24:55Z</time>
      </trkpt>
      <trkpt lat="45.32675" lon="5.79808">
        <ele>885.1</ele>
        <time>2021-08-24T14:24:56Z</time>
      </trkpt>
      <trkpt lat="45.32673" lon="5.79801">
        <ele>885.4</ele>
        <time>2021-08-24T14:24:58Z</time>
      </trkpt>
      <trkpt lat="45.32671" lon="5.79798">
        <ele>885.6</ele>
        <time>2021-08-24T14:24:59Z</time>
      </trkpt>
      <trkpt lat="45.3267" lon="5.79794">
        <ele>885.8</ele>
        <time>2021-08-24T14:25:00Z</time>
      </trkpt>
      <trkpt lat="45.32668" lon="5.79787">
        <ele>886.2</ele>
        <time>2021-08-24T14:25:01Z</time>
      </trkpt>
      <trkpt lat="45.32667" lon="5.79782">
        <ele>886.4</ele>
        <time>2021-08-24T14:25:03Z</time>
      </trkpt>
      <trkpt lat="45.32666" lon="5.79777">
        <ele>886.7</ele>
        <time>2021-08-24T14:25:04Z</time>
      </trkpt>
      <trkpt lat="45.32664" lon="5.79772">
        <ele>887</ele>
        <time>2021-08-24T14:25:06Z</time>
      </trkpt>
      <trkpt lat="45.32663" lon="5.79768">
        <ele>887.2</ele>
        <time>2021-08-24T14:25:07Z</time>
      </trkpt>
      <trkpt lat="45.32662" lon="5.79765">
        <ele>887.4</ele>
        <time>2021-08-24T14:25:08Z</time>
      </trkpt>
      <trkpt lat="45.32659" lon="5.7976">
        <ele>887.5</ele>
        <time>2021-08-24T14:25:10Z</time>
      </trkpt>
      <trkpt lat="45.32656" lon="5.79756">
        <ele>887.7</ele>
        <time>2021-08-24T14:25:11Z</time>
      </trkpt>
      <trkpt lat="45.32654" lon="5.79753">
        <ele>887.8</ele>
        <time>2021-08-24T14:25:12Z</time>
      </trkpt>
      <trkpt lat="45.32651" lon="5.79749">
        <ele>887.9</ele>
        <time>2021-08-24T14:25:13Z</time>
      </trkpt>
      <trkpt lat="45.32647" lon="5.79745">
        <ele>888.1</ele>
        <time>2021-08-24T14:25:15Z</time>
      </trkpt>
      <trkpt lat="45.32643" lon="5.79742">
        <ele>888.3</ele>
        <time>2021-08-24T14:25:16Z</time>
      </trkpt>
      <trkpt lat="45.3264" lon="5.7974">
        <ele>888.4</ele>
        <time>2021-08-24T14:25:17Z</time>
      </trkpt>
      <trkpt lat="45.32638" lon="5.79739">
        <ele>888.5</ele>
        <time>2021-08-24T14:25:18Z</time>
      </trkpt>
      <trkpt lat="45.32635" lon="5.79737">
        <ele>888.7</ele>
        <time>2021-08-24T14:25:19Z</time>
      </trkpt>
      <trkpt lat="45.32632" lon="5.79736">
        <ele>888.8</ele>
        <time>2021-08-24T14:25:20Z</time>
      </trkpt>
      <trkpt lat="45.3263" lon="5.79734">
        <ele>888.9</ele>
        <time>2021-08-24T14:25:21Z</time>
      </trkpt>
      <trkpt lat="45.32627" lon="5.79732">
        <ele>889.1</ele>
        <time>2021-08-24T14:25:22Z</time>
      </trkpt>
      <trkpt lat="45.32623" lon="5.7973">
        <ele>889.2</ele>
        <time>2021-08-24T14:25:24Z</time>
      </trkpt>
      <trkpt lat="45.3262" lon="5.79728">
        <ele>889.4</ele>
        <time>2021-08-24T14:25:25Z</time>
      </trkpt>
      <trkpt lat="45.32618" lon="5.79727">
        <ele>889.5</ele>
        <time>2021-08-24T14:25:26Z</time>
      </trkpt>
      <trkpt lat="45.32613" lon="5.79725">
        <ele>889.7</ele>
        <time>2021-08-24T14:25:28Z</time>
      </trkpt>
      <trkpt lat="45.3261" lon="5.79723">
        <ele>889.9</ele>
        <time>2021-08-24T14:25:29Z</time>
      </trkpt>
      <trkpt lat="45.32606" lon="5.7972">
        <ele>890.1</ele>
        <time>2021-08-24T14:25:31Z</time>
      </trkpt>
      <trkpt lat="45.32602" lon="5.79718">
        <ele>890.3</ele>
        <time>2021-08-24T14:25:32Z</time>
      </trkpt>
      <trkpt lat="45.32601" lon="5.79717">
        <ele>890.3</ele>
        <time>2021-08-24T14:25:33Z</time>
      </trkpt>
      <trkpt lat="45.32597" lon="5.79713">
        <ele>890.5</ele>
        <time>2021-08-24T14:25:35Z</time>
      </trkpt>
      <trkpt lat="45.32592" lon="5.7971">
        <ele>890.7</ele>
        <time>2021-08-24T14:25:37Z</time>
      </trkpt>
      <trkpt lat="45.3259" lon="5.79709">
        <ele>890.9</ele>
        <time>2021-08-24T14:25:38Z</time>
      </trkpt>
      <trkpt lat="45.32585" lon="5.79708">
        <ele>891.1</ele>
        <time>2021-08-24T14:25:40Z</time>
      </trkpt>
      <trkpt lat="45.32582" lon="5.79706">
        <ele>891.2</ele>
        <time>2021-08-24T14:25:41Z</time>
      </trkpt>
      <trkpt lat="45.3258" lon="5.79705">
        <ele>891.3</ele>
        <time>2021-08-24T14:25:42Z</time>
      </trkpt>
      <trkpt lat="45.32576" lon="5.79703">
        <ele>891.5</ele>
        <time>2021-08-24T14:25:43Z</time>
      </trkpt>
      <trkpt lat="45.32575" lon="5.79702">
        <ele>891.5</ele>
        <time>2021-08-24T14:25:44Z</time>
      </trkpt>
      <trkpt lat="45.32571" lon="5.79699">
        <ele>891.8</ele>
        <time>2021-08-24T14:25:46Z</time>
      </trkpt>
      <trkpt lat="45.32569" lon="5.79697">
        <ele>891.8</ele>
        <time>2021-08-24T14:25:47Z</time>
      </trkpt>
      <trkpt lat="45.32568" lon="5.79696">
        <ele>891.9</ele>
        <time>2021-08-24T14:25:48Z</time>
      </trkpt>
      <trkpt lat="45.32565" lon="5.79693">
        <ele>892.1</ele>
        <time>2021-08-24T14:25:49Z</time>
      </trkpt>
      <trkpt lat="45.32563" lon="5.79692">
        <ele>892.2</ele>
        <time>2021-08-24T14:25:50Z</time>
      </trkpt>
      <trkpt lat="45.3256" lon="5.79689">
        <ele>892.4</ele>
        <time>2021-08-24T14:25:51Z</time>
      </trkpt>
      <trkpt lat="45.32558" lon="5.79685">
        <ele>892.5</ele>
        <time>2021-08-24T14:25:53Z</time>
      </trkpt>
      <trkpt lat="45.32557" lon="5.79684">
        <ele>892.6</ele>
        <time>2021-08-24T14:25:54Z</time>
      </trkpt>
      <trkpt lat="45.32554" lon="5.7968">
        <ele>892.8</ele>
        <time>2021-08-24T14:25:55Z</time>
      </trkpt>
      <trkpt lat="45.32553" lon="5.79679">
        <ele>892.8</ele>
        <time>2021-08-24T14:25:56Z</time>
      </trkpt>
      <trkpt lat="45.32551" lon="5.79676">
        <ele>893</ele>
        <time>2021-08-24T14:25:57Z</time>
      </trkpt>
      <trkpt lat="45.32549" lon="5.79673">
        <ele>893.1</ele>
        <time>2021-08-24T14:25:58Z</time>
      </trkpt>
      <trkpt lat="45.32547" lon="5.79669">
        <ele>893.4</ele>
        <time>2021-08-24T14:25:59Z</time>
      </trkpt>
      <trkpt lat="45.32546" lon="5.79667">
        <ele>893.4</ele>
        <time>2021-08-24T14:26:00Z</time>
      </trkpt>
      <trkpt lat="45.32544" lon="5.79664">
        <ele>893.6</ele>
        <time>2021-08-24T14:26:01Z</time>
      </trkpt>
      <trkpt lat="45.32542" lon="5.79661">
        <ele>893.8</ele>
        <time>2021-08-24T14:26:02Z</time>
      </trkpt>
      <trkpt lat="45.32539" lon="5.79655">
        <ele>894</ele>
        <time>2021-08-24T14:26:04Z</time>
      </trkpt>
      <trkpt lat="45.32538" lon="5.79652">
        <ele>894.2</ele>
        <time>2021-08-24T14:26:05Z</time>
      </trkpt>
      <trkpt lat="45.32536" lon="5.79647">
        <ele>894.4</ele>
        <time>2021-08-24T14:26:07Z</time>
      </trkpt>
      <trkpt lat="45.32533" lon="5.79642">
        <ele>894.7</ele>
        <time>2021-08-24T14:26:09Z</time>
      </trkpt>
      <trkpt lat="45.3253" lon="5.79638">
        <ele>894.9</ele>
        <time>2021-08-24T14:26:11Z</time>
      </trkpt>
      <trkpt lat="45.32528" lon="5.79633">
        <ele>895.1</ele>
        <time>2021-08-24T14:26:13Z</time>
      </trkpt>
      <trkpt lat="45.32526" lon="5.79631">
        <ele>895.2</ele>
        <time>2021-08-24T14:26:14Z</time>
      </trkpt>
      <trkpt lat="45.32523" lon="5.79628">
        <ele>895.4</ele>
        <time>2021-08-24T14:26:16Z</time>
      </trkpt>
      <trkpt lat="45.3252" lon="5.79624">
        <ele>895.6</ele>
        <time>2021-08-24T14:26:17Z</time>
      </trkpt>
      <trkpt lat="45.3252" lon="5.79623">
        <ele>895.6</ele>
        <time>2021-08-24T14:26:18Z</time>
      </trkpt>
      <trkpt lat="45.32516" lon="5.7962">
        <ele>895.8</ele>
        <time>2021-08-24T14:26:20Z</time>
      </trkpt>
      <trkpt lat="45.32514" lon="5.79617">
        <ele>896</ele>
        <time>2021-08-24T14:26:22Z</time>
      </trkpt>
      <trkpt lat="45.32513" lon="5.79616">
        <ele>896</ele>
        <time>2021-08-24T14:26:23Z</time>
      </trkpt>
      <trkpt lat="45.32511" lon="5.79614">
        <ele>896.1</ele>
        <time>2021-08-24T14:26:24Z</time>
      </trkpt>
      <trkpt lat="45.32509" lon="5.79611">
        <ele>896.3</ele>
        <time>2021-08-24T14:26:26Z</time>
      </trkpt>
      <trkpt lat="45.32506" lon="5.79605">
        <ele>896.5</ele>
        <time>2021-08-24T14:26:28Z</time>
      </trkpt>
      <trkpt lat="45.32506" lon="5.79604">
        <ele>896.5</ele>
        <time>2021-08-24T14:26:29Z</time>
      </trkpt>
      <trkpt lat="45.32505" lon="5.79602">
        <ele>896.6</ele>
        <time>2021-08-24T14:26:30Z</time>
      </trkpt>
      <trkpt lat="45.32503" lon="5.79598">
        <ele>896.8</ele>
        <time>2021-08-24T14:26:32Z</time>
      </trkpt>
      <trkpt lat="45.325" lon="5.79594">
        <ele>897</ele>
        <time>2021-08-24T14:26:34Z</time>
      </trkpt>
      <trkpt lat="45.32498" lon="5.79592">
        <ele>897.1</ele>
        <time>2021-08-24T14:26:35Z</time>
      </trkpt>
      <trkpt lat="45.32495" lon="5.79588">
        <ele>897.3</ele>
        <time>2021-08-24T14:26:37Z</time>
      </trkpt>
      <trkpt lat="45.32493" lon="5.79587">
        <ele>897.4</ele>
        <time>2021-08-24T14:26:38Z</time>
      </trkpt>
      <trkpt lat="45.3249" lon="5.79583">
        <ele>897.6</ele>
        <time>2021-08-24T14:26:40Z</time>
      </trkpt>
      <trkpt lat="45.32487" lon="5.79581">
        <ele>897.7</ele>
        <time>2021-08-24T14:26:41Z</time>
      </trkpt>
      <trkpt lat="45.32486" lon="5.7958">
        <ele>897.8</ele>
        <time>2021-08-24T14:26:42Z</time>
      </trkpt>
      <trkpt lat="45.32484" lon="5.79576">
        <ele>897.9</ele>
        <time>2021-08-24T14:26:43Z</time>
      </trkpt>
      <trkpt lat="45.32483" lon="5.79575">
        <ele>898</ele>
        <time>2021-08-24T14:26:44Z</time>
      </trkpt>
      <trkpt lat="45.32481" lon="5.7957">
        <ele>898.2</ele>
        <time>2021-08-24T14:26:46Z</time>
      </trkpt>
      <trkpt lat="45.32478" lon="5.79566">
        <ele>898.4</ele>
        <time>2021-08-24T14:26:47Z</time>
      </trkpt>
      <trkpt lat="45.32478" lon="5.79565">
        <ele>898.4</ele>
        <time>2021-08-24T14:26:48Z</time>
      </trkpt>
      <trkpt lat="45.32474" lon="5.79561">
        <ele>898.6</ele>
        <time>2021-08-24T14:26:50Z</time>
      </trkpt>
      <trkpt lat="45.32472" lon="5.79559">
        <ele>898.7</ele>
        <time>2021-08-24T14:26:51Z</time>
      </trkpt>
      <trkpt lat="45.32469" lon="5.79554">
        <ele>899</ele>
        <time>2021-08-24T14:26:53Z</time>
      </trkpt>
      <trkpt lat="45.32466" lon="5.79551">
        <ele>899.2</ele>
        <time>2021-08-24T14:26:55Z</time>
      </trkpt>
      <trkpt lat="45.32463" lon="5.79547">
        <ele>899.4</ele>
        <time>2021-08-24T14:26:56Z</time>
      </trkpt>
      <trkpt lat="45.32462" lon="5.79546">
        <ele>899.4</ele>
        <time>2021-08-24T14:26:57Z</time>
      </trkpt>
      <trkpt lat="45.32459" lon="5.79543">
        <ele>899.6</ele>
        <time>2021-08-24T14:26:58Z</time>
      </trkpt>
      <trkpt lat="45.32457" lon="5.79541">
        <ele>899.7</ele>
        <time>2021-08-24T14:27:00Z</time>
      </trkpt>
      <trkpt lat="45.32455" lon="5.79539">
        <ele>899.9</ele>
        <time>2021-08-24T14:27:01Z</time>
      </trkpt>
      <trkpt lat="45.32453" lon="5.79537">
        <ele>900</ele>
        <time>2021-08-24T14:27:03Z</time>
      </trkpt>
      <trkpt lat="45.32451" lon="5.79534">
        <ele>900.1</ele>
        <time>2021-08-24T14:27:04Z</time>
      </trkpt>
      <trkpt lat="45.3245" lon="5.79534">
        <ele>900.2</ele>
        <time>2021-08-24T14:27:05Z</time>
      </trkpt>
      <trkpt lat="45.32449" lon="5.79532">
        <ele>900.3</ele>
        <time>2021-08-24T14:27:06Z</time>
      </trkpt>
      <trkpt lat="45.32448" lon="5.7953">
        <ele>900.4</ele>
        <time>2021-08-24T14:27:07Z</time>
      </trkpt>
      <trkpt lat="45.32445" lon="5.79527">
        <ele>900.5</ele>
        <time>2021-08-24T14:27:08Z</time>
      </trkpt>
      <trkpt lat="45.32444" lon="5.79526">
        <ele>900.6</ele>
        <time>2021-08-24T14:27:09Z</time>
      </trkpt>
      <trkpt lat="45.32443" lon="5.79525">
        <ele>900.7</ele>
        <time>2021-08-24T14:27:10Z</time>
      </trkpt>
      <trkpt lat="45.32441" lon="5.79524">
        <ele>900.8</ele>
        <time>2021-08-24T14:27:11Z</time>
      </trkpt>
      <trkpt lat="45.32439" lon="5.79521">
        <ele>900.9</ele>
        <time>2021-08-24T14:27:12Z</time>
      </trkpt>
      <trkpt lat="45.32438" lon="5.7952">
        <ele>901</ele>
        <time>2021-08-24T14:27:13Z</time>
      </trkpt>
      <trkpt lat="45.32435" lon="5.79516">
        <ele>901.2</ele>
        <time>2021-08-24T14:27:15Z</time>
      </trkpt>
      <trkpt lat="45.32434" lon="5.79515">
        <ele>901.3</ele>
        <time>2021-08-24T14:27:16Z</time>
      </trkpt>
      <trkpt lat="45.32433" lon="5.79514">
        <ele>901.4</ele>
        <time>2021-08-24T14:27:17Z</time>
      </trkpt>
      <trkpt lat="45.32432" lon="5.79512">
        <ele>901.5</ele>
        <time>2021-08-24T14:27:18Z</time>
      </trkpt>
      <trkpt lat="45.32429" lon="5.79509">
        <ele>901.7</ele>
        <time>2021-08-24T14:27:20Z</time>
      </trkpt>
      <trkpt lat="45.32428" lon="5.79505">
        <ele>901.8</ele>
        <time>2021-08-24T14:27:22Z</time>
      </trkpt>
      <trkpt lat="45.32427" lon="5.79502">
        <ele>901.9</ele>
        <time>2021-08-24T14:27:23Z</time>
      </trkpt>
      <trkpt lat="45.32427" lon="5.795">
        <ele>902</ele>
        <time>2021-08-24T14:27:24Z</time>
      </trkpt>
      <trkpt lat="45.32425" lon="5.79497">
        <ele>902.2</ele>
        <time>2021-08-24T14:27:25Z</time>
      </trkpt>
      <trkpt lat="45.32424" lon="5.79496">
        <ele>902.3</ele>
        <time>2021-08-24T14:27:26Z</time>
      </trkpt>
      <trkpt lat="45.32421" lon="5.79492">
        <ele>902.5</ele>
        <time>2021-08-24T14:27:28Z</time>
      </trkpt>
      <trkpt lat="45.3242" lon="5.7949">
        <ele>902.6</ele>
        <time>2021-08-24T14:27:29Z</time>
      </trkpt>
      <trkpt lat="45.32417" lon="5.79487">
        <ele>902.8</ele>
        <time>2021-08-24T14:27:31Z</time>
      </trkpt>
      <trkpt lat="45.32415" lon="5.79483">
        <ele>903</ele>
        <time>2021-08-24T14:27:32Z</time>
      </trkpt>
      <trkpt lat="45.32414" lon="5.79482">
        <ele>903.1</ele>
        <time>2021-08-24T14:27:33Z</time>
      </trkpt>
      <trkpt lat="45.32412" lon="5.79478">
        <ele>903.2</ele>
        <time>2021-08-24T14:27:35Z</time>
      </trkpt>
      <trkpt lat="45.32411" lon="5.79476">
        <ele>903.4</ele>
        <time>2021-08-24T14:27:36Z</time>
      </trkpt>
      <trkpt lat="45.32409" lon="5.79472">
        <ele>903.5</ele>
        <time>2021-08-24T14:27:38Z</time>
      </trkpt>
      <trkpt lat="45.32407" lon="5.79468">
        <ele>903.7</ele>
        <time>2021-08-24T14:27:39Z</time>
      </trkpt>
      <trkpt lat="45.32407" lon="5.79466">
        <ele>903.8</ele>
        <time>2021-08-24T14:27:40Z</time>
      </trkpt>
      <trkpt lat="45.32406" lon="5.79464">
        <ele>903.9</ele>
        <time>2021-08-24T14:27:41Z</time>
      </trkpt>
      <trkpt lat="45.32404" lon="5.79458">
        <ele>904.1</ele>
        <time>2021-08-24T14:27:43Z</time>
      </trkpt>
      <trkpt lat="45.32403" lon="5.79456">
        <ele>904.2</ele>
        <time>2021-08-24T14:27:44Z</time>
      </trkpt>
      <trkpt lat="45.32402" lon="5.79451">
        <ele>904.4</ele>
        <time>2021-08-24T14:27:46Z</time>
      </trkpt>
      <trkpt lat="45.32401" lon="5.79449">
        <ele>904.5</ele>
        <time>2021-08-24T14:27:47Z</time>
      </trkpt>
      <trkpt lat="45.324" lon="5.79444">
        <ele>904.7</ele>
        <time>2021-08-24T14:27:49Z</time>
      </trkpt>
      <trkpt lat="45.32399" lon="5.79442">
        <ele>904.8</ele>
        <time>2021-08-24T14:27:50Z</time>
      </trkpt>
      <trkpt lat="45.32398" lon="5.79438">
        <ele>904.9</ele>
        <time>2021-08-24T14:27:52Z</time>
      </trkpt>
      <trkpt lat="45.32396" lon="5.79434">
        <ele>905.1</ele>
        <time>2021-08-24T14:27:53Z</time>
      </trkpt>
      <trkpt lat="45.32396" lon="5.79433">
        <ele>905.2</ele>
        <time>2021-08-24T14:27:54Z</time>
      </trkpt>
      <trkpt lat="45.32395" lon="5.79431">
        <ele>905.3</ele>
        <time>2021-08-24T14:27:55Z</time>
      </trkpt>
      <trkpt lat="45.32394" lon="5.79429">
        <ele>905.4</ele>
        <time>2021-08-24T14:27:56Z</time>
      </trkpt>
      <trkpt lat="45.32391" lon="5.79424">
        <ele>905.6</ele>
        <time>2021-08-24T14:27:58Z</time>
      </trkpt>
      <trkpt lat="45.32391" lon="5.79422">
        <ele>905.7</ele>
        <time>2021-08-24T14:27:59Z</time>
      </trkpt>
      <trkpt lat="45.3239" lon="5.7942">
        <ele>905.8</ele>
        <time>2021-08-24T14:28:00Z</time>
      </trkpt>
      <trkpt lat="45.32389" lon="5.79415">
        <ele>906</ele>
        <time>2021-08-24T14:28:02Z</time>
      </trkpt>
      <trkpt lat="45.32388" lon="5.79414">
        <ele>906.1</ele>
        <time>2021-08-24T14:28:03Z</time>
      </trkpt>
      <trkpt lat="45.32387" lon="5.7941">
        <ele>906.2</ele>
        <time>2021-08-24T14:28:04Z</time>
      </trkpt>
      <trkpt lat="45.32386" lon="5.79409">
        <ele>906.3</ele>
        <time>2021-08-24T14:28:05Z</time>
      </trkpt>
      <trkpt lat="45.32384" lon="5.79406">
        <ele>906.4</ele>
        <time>2021-08-24T14:28:06Z</time>
      </trkpt>
      <trkpt lat="45.32383" lon="5.79405">
        <ele>906.5</ele>
        <time>2021-08-24T14:28:07Z</time>
      </trkpt>
      <trkpt lat="45.32381" lon="5.79402">
        <ele>906.7</ele>
        <time>2021-08-24T14:28:09Z</time>
      </trkpt>
      <trkpt lat="45.32378" lon="5.794">
        <ele>906.9</ele>
        <time>2021-08-24T14:28:10Z</time>
      </trkpt>
      <trkpt lat="45.32375" lon="5.79398">
        <ele>907.1</ele>
        <time>2021-08-24T14:28:12Z</time>
      </trkpt>
      <trkpt lat="45.32373" lon="5.79396">
        <ele>907.2</ele>
        <time>2021-08-24T14:28:13Z</time>
      </trkpt>
      <trkpt lat="45.32369" lon="5.79395">
        <ele>907.4</ele>
        <time>2021-08-24T14:28:15Z</time>
      </trkpt>
      <trkpt lat="45.32366" lon="5.79395">
        <ele>907.6</ele>
        <time>2021-08-24T14:28:16Z</time>
      </trkpt>
      <trkpt lat="45.32362" lon="5.79394">
        <ele>907.8</ele>
        <time>2021-08-24T14:28:18Z</time>
      </trkpt>
      <trkpt lat="45.32359" lon="5.79393">
        <ele>908</ele>
        <time>2021-08-24T14:28:19Z</time>
      </trkpt>
      <trkpt lat="45.32357" lon="5.79393">
        <ele>908.1</ele>
        <time>2021-08-24T14:28:20Z</time>
      </trkpt>
      <trkpt lat="45.32352" lon="5.79392">
        <ele>908.4</ele>
        <time>2021-08-24T14:28:22Z</time>
      </trkpt>
      <trkpt lat="45.32349" lon="5.79392">
        <ele>908.6</ele>
        <time>2021-08-24T14:28:23Z</time>
      </trkpt>
      <trkpt lat="45.32346" lon="5.79394">
        <ele>908.7</ele>
        <time>2021-08-24T14:28:24Z</time>
      </trkpt>
      <trkpt lat="45.32343" lon="5.79394">
        <ele>908.9</ele>
        <time>2021-08-24T14:28:25Z</time>
      </trkpt>
      <trkpt lat="45.32339" lon="5.79396">
        <ele>909.1</ele>
        <time>2021-08-24T14:28:26Z</time>
      </trkpt>
      <trkpt lat="45.32338" lon="5.79396">
        <ele>909.1</ele>
        <time>2021-08-24T14:28:27Z</time>
      </trkpt>
      <trkpt lat="45.32336" lon="5.79397">
        <ele>909.2</ele>
        <time>2021-08-24T14:28:28Z</time>
      </trkpt>
      <trkpt lat="45.32335" lon="5.79399">
        <ele>909.3</ele>
        <time>2021-08-24T14:28:30Z</time>
      </trkpt>
      <trkpt lat="45.32332" lon="5.79402">
        <ele>909.5</ele>
        <time>2021-08-24T14:28:31Z</time>
      </trkpt>
      <trkpt lat="45.32331" lon="5.79403">
        <ele>909.5</ele>
        <time>2021-08-24T14:28:32Z</time>
      </trkpt>
      <trkpt lat="45.3233" lon="5.79406">
        <ele>909.6</ele>
        <time>2021-08-24T14:28:34Z</time>
      </trkpt>
      <trkpt lat="45.32329" lon="5.79408">
        <ele>909.7</ele>
        <time>2021-08-24T14:28:35Z</time>
      </trkpt>
      <trkpt lat="45.32328" lon="5.79414">
        <ele>909.8</ele>
        <time>2021-08-24T14:28:37Z</time>
      </trkpt>
      <trkpt lat="45.32327" lon="5.79416">
        <ele>909.9</ele>
        <time>2021-08-24T14:28:38Z</time>
      </trkpt>
      <trkpt lat="45.32327" lon="5.79418">
        <ele>909.9</ele>
        <time>2021-08-24T14:28:39Z</time>
      </trkpt>
      <trkpt lat="45.32326" lon="5.79422">
        <ele>910.1</ele>
        <time>2021-08-24T14:28:40Z</time>
      </trkpt>
      <trkpt lat="45.32326" lon="5.79423">
        <ele>910.1</ele>
        <time>2021-08-24T14:28:41Z</time>
      </trkpt>
      <trkpt lat="45.32325" lon="5.79427">
        <ele>910.2</ele>
        <time>2021-08-24T14:28:42Z</time>
      </trkpt>
      <trkpt lat="45.32325" lon="5.79428">
        <ele>910.2</ele>
        <time>2021-08-24T14:28:43Z</time>
      </trkpt>
      <trkpt lat="45.32324" lon="5.79431">
        <ele>910.3</ele>
        <time>2021-08-24T14:28:44Z</time>
      </trkpt>
      <trkpt lat="45.32324" lon="5.79433">
        <ele>910.4</ele>
        <time>2021-08-24T14:28:45Z</time>
      </trkpt>
      <trkpt lat="45.32323" lon="5.79435">
        <ele>910.4</ele>
        <time>2021-08-24T14:28:46Z</time>
      </trkpt>
      <trkpt lat="45.32323" lon="5.79437">
        <ele>910.5</ele>
        <time>2021-08-24T14:28:47Z</time>
      </trkpt>
      <trkpt lat="45.32322" lon="5.79439">
        <ele>910.6</ele>
        <time>2021-08-24T14:28:48Z</time>
      </trkpt>
      <trkpt lat="45.32322" lon="5.79445">
        <ele>910.8</ele>
        <time>2021-08-24T14:28:50Z</time>
      </trkpt>
      <trkpt lat="45.32322" lon="5.79449">
        <ele>910.9</ele>
        <time>2021-08-24T14:28:51Z</time>
      </trkpt>
      <trkpt lat="45.32322" lon="5.79454">
        <ele>911.1</ele>
        <time>2021-08-24T14:28:52Z</time>
      </trkpt>
      <trkpt lat="45.32322" lon="5.79456">
        <ele>911.1</ele>
        <time>2021-08-24T14:28:53Z</time>
      </trkpt>
      <trkpt lat="45.32322" lon="5.7946">
        <ele>911.3</ele>
        <time>2021-08-24T14:28:54Z</time>
      </trkpt>
      <trkpt lat="45.32322" lon="5.79461">
        <ele>911.3</ele>
        <time>2021-08-24T14:28:55Z</time>
      </trkpt>
      <trkpt lat="45.32322" lon="5.79463">
        <ele>911.4</ele>
        <time>2021-08-24T14:28:56Z</time>
      </trkpt>
      <trkpt lat="45.32322" lon="5.79465">
        <ele>911.5</ele>
        <time>2021-08-24T14:28:57Z</time>
      </trkpt>
      <trkpt lat="45.32321" lon="5.79467">
        <ele>911.5</ele>
        <time>2021-08-24T14:28:58Z</time>
      </trkpt>
      <trkpt lat="45.32321" lon="5.7947">
        <ele>911.6</ele>
        <time>2021-08-24T14:28:59Z</time>
      </trkpt>
      <trkpt lat="45.32321" lon="5.79472">
        <ele>911.7</ele>
        <time>2021-08-24T14:29:00Z</time>
      </trkpt>
      <trkpt lat="45.3232" lon="5.79473">
        <ele>911.8</ele>
        <time>2021-08-24T14:29:01Z</time>
      </trkpt>
      <trkpt lat="45.32319" lon="5.79477">
        <ele>911.9</ele>
        <time>2021-08-24T14:29:02Z</time>
      </trkpt>
      <trkpt lat="45.32319" lon="5.79479">
        <ele>912</ele>
        <time>2021-08-24T14:29:04Z</time>
      </trkpt>
      <trkpt lat="45.32318" lon="5.79481">
        <ele>912</ele>
        <time>2021-08-24T14:29:05Z</time>
      </trkpt>
      <trkpt lat="45.32318" lon="5.79483">
        <ele>912.1</ele>
        <time>2021-08-24T14:29:06Z</time>
      </trkpt>
      <trkpt lat="45.32317" lon="5.79486">
        <ele>912.2</ele>
        <time>2021-08-24T14:29:07Z</time>
      </trkpt>
      <trkpt lat="45.32317" lon="5.79488">
        <ele>912.3</ele>
        <time>2021-08-24T14:29:08Z</time>
      </trkpt>
      <trkpt lat="45.32316" lon="5.79491">
        <ele>912.4</ele>
        <time>2021-08-24T14:29:09Z</time>
      </trkpt>
      <trkpt lat="45.32314" lon="5.79494">
        <ele>912.5</ele>
        <time>2021-08-24T14:29:11Z</time>
      </trkpt>
      <trkpt lat="45.32312" lon="5.79497">
        <ele>912.7</ele>
        <time>2021-08-24T14:29:12Z</time>
      </trkpt>
      <trkpt lat="45.3231" lon="5.795">
        <ele>912.8</ele>
        <time>2021-08-24T14:29:14Z</time>
      </trkpt>
      <trkpt lat="45.32307" lon="5.79505">
        <ele>913</ele>
        <time>2021-08-24T14:29:16Z</time>
      </trkpt>
      <trkpt lat="45.32306" lon="5.79508">
        <ele>913.1</ele>
        <time>2021-08-24T14:29:17Z</time>
      </trkpt>
      <trkpt lat="45.32305" lon="5.79509">
        <ele>913.2</ele>
        <time>2021-08-24T14:29:18Z</time>
      </trkpt>
      <trkpt lat="45.32303" lon="5.79515">
        <ele>913.4</ele>
        <time>2021-08-24T14:29:20Z</time>
      </trkpt>
      <trkpt lat="45.32301" lon="5.79519">
        <ele>913.6</ele>
        <time>2021-08-24T14:29:22Z</time>
      </trkpt>
      <trkpt lat="45.32298" lon="5.79523">
        <ele>913.7</ele>
        <time>2021-08-24T14:29:23Z</time>
      </trkpt>
      <trkpt lat="45.32295" lon="5.79527">
        <ele>913.9</ele>
        <time>2021-08-24T14:29:25Z</time>
      </trkpt>
      <trkpt lat="45.32294" lon="5.79529">
        <ele>914</ele>
        <time>2021-08-24T14:29:26Z</time>
      </trkpt>
      <trkpt lat="45.32292" lon="5.79534">
        <ele>914.1</ele>
        <time>2021-08-24T14:29:28Z</time>
      </trkpt>
      <trkpt lat="45.32291" lon="5.79536">
        <ele>914.2</ele>
        <time>2021-08-24T14:29:29Z</time>
      </trkpt>
      <trkpt lat="45.32288" lon="5.79539">
        <ele>914.3</ele>
        <time>2021-08-24T14:29:31Z</time>
      </trkpt>
      <trkpt lat="45.32287" lon="5.79539">
        <ele>914.4</ele>
        <time>2021-08-24T14:29:32Z</time>
      </trkpt>
      <trkpt lat="45.32285" lon="5.79541">
        <ele>914.5</ele>
        <time>2021-08-24T14:29:34Z</time>
      </trkpt>
      <trkpt lat="45.32284" lon="5.79542">
        <ele>914.5</ele>
        <time>2021-08-24T14:29:35Z</time>
      </trkpt>
      <trkpt lat="45.32282" lon="5.79543">
        <ele>914.6</ele>
        <time>2021-08-24T14:29:37Z</time>
      </trkpt>
      <trkpt lat="45.3228" lon="5.79545">
        <ele>914.7</ele>
        <time>2021-08-24T14:29:38Z</time>
      </trkpt>
      <trkpt lat="45.32278" lon="5.79547">
        <ele>914.8</ele>
        <time>2021-08-24T14:29:40Z</time>
      </trkpt>
      <trkpt lat="45.32274" lon="5.79551">
        <ele>915</ele>
        <time>2021-08-24T14:29:42Z</time>
      </trkpt>
      <trkpt lat="45.32273" lon="5.79552">
        <ele>915.1</ele>
        <time>2021-08-24T14:29:43Z</time>
      </trkpt>
      <trkpt lat="45.32272" lon="5.79553">
        <ele>915.1</ele>
        <time>2021-08-24T14:29:44Z</time>
      </trkpt>
      <trkpt lat="45.32269" lon="5.79554">
        <ele>915.4</ele>
        <time>2021-08-24T14:29:46Z</time>
      </trkpt>
      <trkpt lat="45.32264" lon="5.79557">
        <ele>915.7</ele>
        <time>2021-08-24T14:29:48Z</time>
      </trkpt>
      <trkpt lat="45.32261" lon="5.79558">
        <ele>915.9</ele>
        <time>2021-08-24T14:29:50Z</time>
      </trkpt>
      <trkpt lat="45.3226" lon="5.79558">
        <ele>916</ele>
        <time>2021-08-24T14:29:51Z</time>
      </trkpt>
      <trkpt lat="45.32256" lon="5.7956">
        <ele>916.3</ele>
        <time>2021-08-24T14:29:53Z</time>
      </trkpt>
      <trkpt lat="45.32255" lon="5.79561">
        <ele>916.3</ele>
        <time>2021-08-24T14:29:54Z</time>
      </trkpt>
      <trkpt lat="45.32254" lon="5.79561">
        <ele>916.4</ele>
        <time>2021-08-24T14:29:55Z</time>
      </trkpt>
      <trkpt lat="45.32252" lon="5.79563">
        <ele>916.6</ele>
        <time>2021-08-24T14:29:56Z</time>
      </trkpt>
      <trkpt lat="45.32248" lon="5.79565">
        <ele>916.8</ele>
        <time>2021-08-24T14:29:58Z</time>
      </trkpt>
      <trkpt lat="45.32244" lon="5.79569">
        <ele>917.2</ele>
        <time>2021-08-24T14:30:00Z</time>
      </trkpt>
      <trkpt lat="45.32241" lon="5.79571">
        <ele>917.4</ele>
        <time>2021-08-24T14:30:01Z</time>
      </trkpt>
      <trkpt lat="45.3224" lon="5.79572">
        <ele>917.5</ele>
        <time>2021-08-24T14:30:02Z</time>
      </trkpt>
      <trkpt lat="45.32235" lon="5.79575">
        <ele>917.8</ele>
        <time>2021-08-24T14:30:04Z</time>
      </trkpt>
      <trkpt lat="45.32232" lon="5.79577">
        <ele>918</ele>
        <time>2021-08-24T14:30:05Z</time>
      </trkpt>
      <trkpt lat="45.32229" lon="5.79578">
        <ele>918.2</ele>
        <time>2021-08-24T14:30:06Z</time>
      </trkpt>
      <trkpt lat="45.32226" lon="5.79579">
        <ele>918.4</ele>
        <time>2021-08-24T14:30:07Z</time>
      </trkpt>
      <trkpt lat="45.32223" lon="5.7958">
        <ele>918.6</ele>
        <time>2021-08-24T14:30:08Z</time>
      </trkpt>
      <trkpt lat="45.32221" lon="5.7958">
        <ele>918.8</ele>
        <time>2021-08-24T14:30:09Z</time>
      </trkpt>
      <trkpt lat="45.32217" lon="5.79581">
        <ele>919</ele>
        <time>2021-08-24T14:30:10Z</time>
      </trkpt>
      <trkpt lat="45.32216" lon="5.79581">
        <ele>919.1</ele>
        <time>2021-08-24T14:30:11Z</time>
      </trkpt>
      <trkpt lat="45.32212" lon="5.79581">
        <ele>919.3</ele>
        <time>2021-08-24T14:30:13Z</time>
      </trkpt>
      <trkpt lat="45.32209" lon="5.79581">
        <ele>919.5</ele>
        <time>2021-08-24T14:30:14Z</time>
      </trkpt>
      <trkpt lat="45.32206" lon="5.79581">
        <ele>919.7</ele>
        <time>2021-08-24T14:30:15Z</time>
      </trkpt>
      <trkpt lat="45.32201" lon="5.79581">
        <ele>919.9</ele>
        <time>2021-08-24T14:30:17Z</time>
      </trkpt>
      <trkpt lat="45.322" lon="5.7958">
        <ele>920</ele>
        <time>2021-08-24T14:30:18Z</time>
      </trkpt>
      <trkpt lat="45.32199" lon="5.7958">
        <ele>920.1</ele>
        <time>2021-08-24T14:30:19Z</time>
      </trkpt>
      <trkpt lat="45.32197" lon="5.79579">
        <ele>920.2</ele>
        <time>2021-08-24T14:30:20Z</time>
      </trkpt>
      <trkpt lat="45.32195" lon="5.79579">
        <ele>920.3</ele>
        <time>2021-08-24T14:30:21Z</time>
      </trkpt>
      <trkpt lat="45.32193" lon="5.79578">
        <ele>920.4</ele>
        <time>2021-08-24T14:30:23Z</time>
      </trkpt>
      <trkpt lat="45.32192" lon="5.79577">
        <ele>920.5</ele>
        <time>2021-08-24T14:30:24Z</time>
      </trkpt>
      <trkpt lat="45.3219" lon="5.79576">
        <ele>920.6</ele>
        <time>2021-08-24T14:30:25Z</time>
      </trkpt>
      <trkpt lat="45.32188" lon="5.79575">
        <ele>920.7</ele>
        <time>2021-08-24T14:30:27Z</time>
      </trkpt>
      <trkpt lat="45.32186" lon="5.79572">
        <ele>920.8</ele>
        <time>2021-08-24T14:30:28Z</time>
      </trkpt>
      <trkpt lat="45.32185" lon="5.79571">
        <ele>920.9</ele>
        <time>2021-08-24T14:30:29Z</time>
      </trkpt>
      <trkpt lat="45.32183" lon="5.79568">
        <ele>921.1</ele>
        <time>2021-08-24T14:30:30Z</time>
      </trkpt>
      <trkpt lat="45.32182" lon="5.79568">
        <ele>921.1</ele>
        <time>2021-08-24T14:30:31Z</time>
      </trkpt>
      <trkpt lat="45.32179" lon="5.79565">
        <ele>921.3</ele>
        <time>2021-08-24T14:30:33Z</time>
      </trkpt>
      <trkpt lat="45.32177" lon="5.79563">
        <ele>921.5</ele>
        <time>2021-08-24T14:30:34Z</time>
      </trkpt>
      <trkpt lat="45.32175" lon="5.7956">
        <ele>921.6</ele>
        <time>2021-08-24T14:30:35Z</time>
      </trkpt>
      <trkpt lat="45.32172" lon="5.79556">
        <ele>921.8</ele>
        <time>2021-08-24T14:30:37Z</time>
      </trkpt>
      <trkpt lat="45.3217" lon="5.79552">
        <ele>922.1</ele>
        <time>2021-08-24T14:30:38Z</time>
      </trkpt>
      <trkpt lat="45.32169" lon="5.7955">
        <ele>922.1</ele>
        <time>2021-08-24T14:30:39Z</time>
      </trkpt>
      <trkpt lat="45.32166" lon="5.79547">
        <ele>922.4</ele>
        <time>2021-08-24T14:30:41Z</time>
      </trkpt>
      <trkpt lat="45.32165" lon="5.79544">
        <ele>922.5</ele>
        <time>2021-08-24T14:30:42Z</time>
      </trkpt>
      <trkpt lat="45.32163" lon="5.79541">
        <ele>922.7</ele>
        <time>2021-08-24T14:30:44Z</time>
      </trkpt>
      <trkpt lat="45.32161" lon="5.79537">
        <ele>922.8</ele>
        <time>2021-08-24T14:30:45Z</time>
      </trkpt>
      <trkpt lat="45.32158" lon="5.79533">
        <ele>923.1</ele>
        <time>2021-08-24T14:30:47Z</time>
      </trkpt>
      <trkpt lat="45.32156" lon="5.79529">
        <ele>923.3</ele>
        <time>2021-08-24T14:30:49Z</time>
      </trkpt>
      <trkpt lat="45.32155" lon="5.79524">
        <ele>923.5</ele>
        <time>2021-08-24T14:30:51Z</time>
      </trkpt>
      <trkpt lat="45.32153" lon="5.79518">
        <ele>923.7</ele>
        <time>2021-08-24T14:30:53Z</time>
      </trkpt>
      <trkpt lat="45.32151" lon="5.79514">
        <ele>924</ele>
        <time>2021-08-24T14:30:54Z</time>
      </trkpt>
      <trkpt lat="45.3215" lon="5.79509">
        <ele>924.2</ele>
        <time>2021-08-24T14:30:56Z</time>
      </trkpt>
      <trkpt lat="45.32149" lon="5.79504">
        <ele>924.4</ele>
        <time>2021-08-24T14:30:58Z</time>
      </trkpt>
      <trkpt lat="45.32147" lon="5.79499">
        <ele>924.6</ele>
        <time>2021-08-24T14:30:59Z</time>
      </trkpt>
      <trkpt lat="45.32146" lon="5.79495">
        <ele>924.8</ele>
        <time>2021-08-24T14:31:00Z</time>
      </trkpt>
      <trkpt lat="45.32146" lon="5.79494">
        <ele>924.8</ele>
        <time>2021-08-24T14:31:01Z</time>
      </trkpt>
      <trkpt lat="45.32146" lon="5.79491">
        <ele>924.9</ele>
        <time>2021-08-24T14:31:02Z</time>
      </trkpt>
      <trkpt lat="45.32146" lon="5.79486">
        <ele>925.1</ele>
        <time>2021-08-24T14:31:04Z</time>
      </trkpt>
      <trkpt lat="45.32145" lon="5.79482">
        <ele>925.3</ele>
        <time>2021-08-24T14:31:05Z</time>
      </trkpt>
      <trkpt lat="45.32145" lon="5.7948">
        <ele>925.4</ele>
        <time>2021-08-24T14:31:06Z</time>
      </trkpt>
      <trkpt lat="45.32145" lon="5.79476">
        <ele>925.5</ele>
        <time>2021-08-24T14:31:07Z</time>
      </trkpt>
      <trkpt lat="45.32145" lon="5.79474">
        <ele>925.6</ele>
        <time>2021-08-24T14:31:08Z</time>
      </trkpt>
      <trkpt lat="45.32144" lon="5.7947">
        <ele>925.8</ele>
        <time>2021-08-24T14:31:09Z</time>
      </trkpt>
      <trkpt lat="45.32144" lon="5.79466">
        <ele>925.9</ele>
        <time>2021-08-24T14:31:11Z</time>
      </trkpt>
      <trkpt lat="45.32144" lon="5.79463">
        <ele>926</ele>
        <time>2021-08-24T14:31:12Z</time>
      </trkpt>
      <trkpt lat="45.32144" lon="5.7946">
        <ele>926.1</ele>
        <time>2021-08-24T14:31:13Z</time>
      </trkpt>
      <trkpt lat="45.32145" lon="5.79456">
        <ele>926.3</ele>
        <time>2021-08-24T14:31:14Z</time>
      </trkpt>
      <trkpt lat="45.32145" lon="5.79454">
        <ele>926.4</ele>
        <time>2021-08-24T14:31:15Z</time>
      </trkpt>
      <trkpt lat="45.32145" lon="5.79449">
        <ele>926.6</ele>
        <time>2021-08-24T14:31:17Z</time>
      </trkpt>
      <trkpt lat="45.32145" lon="5.79446">
        <ele>926.7</ele>
        <time>2021-08-24T14:31:18Z</time>
      </trkpt>
      <trkpt lat="45.32145" lon="5.79441">
        <ele>926.9</ele>
        <time>2021-08-24T14:31:20Z</time>
      </trkpt>
      <trkpt lat="45.32146" lon="5.79435">
        <ele>927.1</ele>
        <time>2021-08-24T14:31:22Z</time>
      </trkpt>
      <trkpt lat="45.32145" lon="5.79428">
        <ele>927.3</ele>
        <time>2021-08-24T14:31:24Z</time>
      </trkpt>
      <trkpt lat="45.32144" lon="5.79426">
        <ele>927.4</ele>
        <time>2021-08-24T14:31:25Z</time>
      </trkpt>
      <trkpt lat="45.32143" lon="5.79424">
        <ele>927.5</ele>
        <time>2021-08-24T14:31:26Z</time>
      </trkpt>
      <trkpt lat="45.32141" lon="5.79422">
        <ele>927.6</ele>
        <time>2021-08-24T14:31:27Z</time>
      </trkpt>
      <trkpt lat="45.3214" lon="5.79419">
        <ele>927.7</ele>
        <time>2021-08-24T14:31:29Z</time>
      </trkpt>
      <trkpt lat="45.32139" lon="5.79418">
        <ele>927.8</ele>
        <time>2021-08-24T14:31:30Z</time>
      </trkpt>
      <trkpt lat="45.32137" lon="5.79414">
        <ele>928</ele>
        <time>2021-08-24T14:31:31Z</time>
      </trkpt>
      <trkpt lat="45.32136" lon="5.79413">
        <ele>928</ele>
        <time>2021-08-24T14:31:32Z</time>
      </trkpt>
      <trkpt lat="45.32134" lon="5.79411">
        <ele>928.2</ele>
        <time>2021-08-24T14:31:33Z</time>
      </trkpt>
      <trkpt lat="45.32133" lon="5.79409">
        <ele>928.3</ele>
        <time>2021-08-24T14:31:34Z</time>
      </trkpt>
      <trkpt lat="45.3213" lon="5.79407">
        <ele>928.4</ele>
        <time>2021-08-24T14:31:35Z</time>
      </trkpt>
      <trkpt lat="45.32129" lon="5.79407">
        <ele>928.5</ele>
        <time>2021-08-24T14:31:36Z</time>
      </trkpt>
      <trkpt lat="45.32126" lon="5.79405">
        <ele>928.6</ele>
        <time>2021-08-24T14:31:37Z</time>
      </trkpt>
      <trkpt lat="45.32125" lon="5.79405">
        <ele>928.7</ele>
        <time>2021-08-24T14:31:38Z</time>
      </trkpt>
      <trkpt lat="45.32123" lon="5.79404">
        <ele>928.8</ele>
        <time>2021-08-24T14:31:39Z</time>
      </trkpt>
      <trkpt lat="45.3212" lon="5.79403">
        <ele>929</ele>
        <time>2021-08-24T14:31:41Z</time>
      </trkpt>
      <trkpt lat="45.32119" lon="5.79402">
        <ele>929.1</ele>
        <time>2021-08-24T14:31:42Z</time>
      </trkpt>
      <trkpt lat="45.32116" lon="5.79399">
        <ele>929.3</ele>
        <time>2021-08-24T14:31:44Z</time>
      </trkpt>
      <trkpt lat="45.32112" lon="5.79396">
        <ele>929.5</ele>
        <time>2021-08-24T14:31:46Z</time>
      </trkpt>
      <trkpt lat="45.3211" lon="5.79391">
        <ele>929.7</ele>
        <time>2021-08-24T14:31:48Z</time>
      </trkpt>
      <trkpt lat="45.32107" lon="5.79386">
        <ele>929.9</ele>
        <time>2021-08-24T14:31:50Z</time>
      </trkpt>
      <trkpt lat="45.32106" lon="5.79382">
        <ele>930.1</ele>
        <time>2021-08-24T14:31:51Z</time>
      </trkpt>
      <trkpt lat="45.32105" lon="5.79381">
        <ele>930.1</ele>
        <time>2021-08-24T14:31:52Z</time>
      </trkpt>
      <trkpt lat="45.32103" lon="5.79376">
        <ele>930.4</ele>
        <time>2021-08-24T14:31:54Z</time>
      </trkpt>
      <trkpt lat="45.32102" lon="5.79373">
        <ele>930.5</ele>
        <time>2021-08-24T14:31:55Z</time>
      </trkpt>
      <trkpt lat="45.321" lon="5.79368">
        <ele>930.7</ele>
        <time>2021-08-24T14:31:57Z</time>
      </trkpt>
      <trkpt lat="45.321" lon="5.79366">
        <ele>930.7</ele>
        <time>2021-08-24T14:31:58Z</time>
      </trkpt>
      <trkpt lat="45.32099" lon="5.79361">
        <ele>930.9</ele>
        <time>2021-08-24T14:32:00Z</time>
      </trkpt>
      <trkpt lat="45.32098" lon="5.79357">
        <ele>931.1</ele>
        <time>2021-08-24T14:32:01Z</time>
      </trkpt>
      <trkpt lat="45.32097" lon="5.79356">
        <ele>931.1</ele>
        <time>2021-08-24T14:32:02Z</time>
      </trkpt>
      <trkpt lat="45.32096" lon="5.79352">
        <ele>931.3</ele>
        <time>2021-08-24T14:32:04Z</time>
      </trkpt>
      <trkpt lat="45.32095" lon="5.79349">
        <ele>931.4</ele>
        <time>2021-08-24T14:32:05Z</time>
      </trkpt>
      <trkpt lat="45.32094" lon="5.79347">
        <ele>931.5</ele>
        <time>2021-08-24T14:32:06Z</time>
      </trkpt>
      <trkpt lat="45.32093" lon="5.79343">
        <ele>931.6</ele>
        <time>2021-08-24T14:32:07Z</time>
      </trkpt>
      <trkpt lat="45.32093" lon="5.79342">
        <ele>931.7</ele>
        <time>2021-08-24T14:32:08Z</time>
      </trkpt>
      <trkpt lat="45.32091" lon="5.79337">
        <ele>931.9</ele>
        <time>2021-08-24T14:32:10Z</time>
      </trkpt>
      <trkpt lat="45.32091" lon="5.79333">
        <ele>932</ele>
        <time>2021-08-24T14:32:11Z</time>
      </trkpt>
      <trkpt lat="45.3209" lon="5.79331">
        <ele>932.1</ele>
        <time>2021-08-24T14:32:12Z</time>
      </trkpt>
      <trkpt lat="45.32089" lon="5.79327">
        <ele>932.3</ele>
        <time>2021-08-24T14:32:13Z</time>
      </trkpt>
      <trkpt lat="45.32089" lon="5.79326">
        <ele>932.3</ele>
        <time>2021-08-24T14:32:14Z</time>
      </trkpt>
      <trkpt lat="45.32089" lon="5.79322">
        <ele>932.5</ele>
        <time>2021-08-24T14:32:15Z</time>
      </trkpt>
      <trkpt lat="45.32088" lon="5.79318">
        <ele>932.6</ele>
        <time>2021-08-24T14:32:17Z</time>
      </trkpt>
      <trkpt lat="45.32088" lon="5.79314">
        <ele>932.7</ele>
        <time>2021-08-24T14:32:18Z</time>
      </trkpt>
      <trkpt lat="45.32086" lon="5.79308">
        <ele>933</ele>
        <time>2021-08-24T14:32:20Z</time>
      </trkpt>
      <trkpt lat="45.32085" lon="5.79302">
        <ele>933.2</ele>
        <time>2021-08-24T14:32:22Z</time>
      </trkpt>
      <trkpt lat="45.32085" lon="5.79296">
        <ele>933.5</ele>
        <time>2021-08-24T14:32:24Z</time>
      </trkpt>
      <trkpt lat="45.32084" lon="5.79291">
        <ele>933.6</ele>
        <time>2021-08-24T14:32:25Z</time>
      </trkpt>
      <trkpt lat="45.32083" lon="5.7929">
        <ele>933.7</ele>
        <time>2021-08-24T14:32:26Z</time>
      </trkpt>
      <trkpt lat="45.32082" lon="5.79285">
        <ele>933.9</ele>
        <time>2021-08-24T14:32:28Z</time>
      </trkpt>
      <trkpt lat="45.32081" lon="5.79281">
        <ele>934</ele>
        <time>2021-08-24T14:32:29Z</time>
      </trkpt>
      <trkpt lat="45.3208" lon="5.79277">
        <ele>934.2</ele>
        <time>2021-08-24T14:32:30Z</time>
      </trkpt>
      <trkpt lat="45.32079" lon="5.79272">
        <ele>934.4</ele>
        <time>2021-08-24T14:32:32Z</time>
      </trkpt>
      <trkpt lat="45.32078" lon="5.79268">
        <ele>934.6</ele>
        <time>2021-08-24T14:32:33Z</time>
      </trkpt>
      <trkpt lat="45.32077" lon="5.79263">
        <ele>934.7</ele>
        <time>2021-08-24T14:32:35Z</time>
      </trkpt>
      <trkpt lat="45.32076" lon="5.79258">
        <ele>935</ele>
        <time>2021-08-24T14:32:37Z</time>
      </trkpt>
      <trkpt lat="45.32075" lon="5.79255">
        <ele>935.1</ele>
        <time>2021-08-24T14:32:38Z</time>
      </trkpt>
      <trkpt lat="45.32075" lon="5.7925">
        <ele>935.3</ele>
        <time>2021-08-24T14:32:40Z</time>
      </trkpt>
      <trkpt lat="45.32074" lon="5.79246">
        <ele>935.5</ele>
        <time>2021-08-24T14:32:41Z</time>
      </trkpt>
      <trkpt lat="45.32074" lon="5.79245">
        <ele>935.5</ele>
        <time>2021-08-24T14:32:42Z</time>
      </trkpt>
      <trkpt lat="45.32073" lon="5.7924">
        <ele>935.7</ele>
        <time>2021-08-24T14:32:44Z</time>
      </trkpt>
      <trkpt lat="45.32071" lon="5.79235">
        <ele>936</ele>
        <time>2021-08-24T14:32:46Z</time>
      </trkpt>
      <trkpt lat="45.32069" lon="5.79231">
        <ele>936.2</ele>
        <time>2021-08-24T14:32:48Z</time>
      </trkpt>
      <trkpt lat="45.32066" lon="5.79226">
        <ele>936.5</ele>
        <time>2021-08-24T14:32:50Z</time>
      </trkpt>
      <trkpt lat="45.32065" lon="5.79224">
        <ele>936.6</ele>
        <time>2021-08-24T14:32:51Z</time>
      </trkpt>
      <trkpt lat="45.32063" lon="5.79218">
        <ele>936.9</ele>
        <time>2021-08-24T14:32:53Z</time>
      </trkpt>
      <trkpt lat="45.32062" lon="5.79216">
        <ele>937</ele>
        <time>2021-08-24T14:32:54Z</time>
      </trkpt>
      <trkpt lat="45.3206" lon="5.79212">
        <ele>937.3</ele>
        <time>2021-08-24T14:32:56Z</time>
      </trkpt>
      <trkpt lat="45.32058" lon="5.79209">
        <ele>937.5</ele>
        <time>2021-08-24T14:32:57Z</time>
      </trkpt>
      <trkpt lat="45.32056" lon="5.79204">
        <ele>937.7</ele>
        <time>2021-08-24T14:32:59Z</time>
      </trkpt>
      <trkpt lat="45.32055" lon="5.79203">
        <ele>937.8</ele>
        <time>2021-08-24T14:33:00Z</time>
      </trkpt>
      <trkpt lat="45.32052" lon="5.79199">
        <ele>938</ele>
        <time>2021-08-24T14:33:01Z</time>
      </trkpt>
      <trkpt lat="45.32051" lon="5.79196">
        <ele>938.2</ele>
        <time>2021-08-24T14:33:03Z</time>
      </trkpt>
      <trkpt lat="45.32049" lon="5.79194">
        <ele>938.3</ele>
        <time>2021-08-24T14:33:04Z</time>
      </trkpt>
      <trkpt lat="45.32047" lon="5.79191">
        <ele>938.6</ele>
        <time>2021-08-24T14:33:06Z</time>
      </trkpt>
      <trkpt lat="45.32045" lon="5.79188">
        <ele>938.8</ele>
        <time>2021-08-24T14:33:07Z</time>
      </trkpt>
      <trkpt lat="45.32044" lon="5.79187">
        <ele>938.8</ele>
        <time>2021-08-24T14:33:08Z</time>
      </trkpt>
      <trkpt lat="45.32041" lon="5.79184">
        <ele>939</ele>
        <time>2021-08-24T14:33:09Z</time>
      </trkpt>
      <trkpt lat="45.3204" lon="5.79183">
        <ele>939.1</ele>
        <time>2021-08-24T14:33:10Z</time>
      </trkpt>
      <trkpt lat="45.32037" lon="5.79179">
        <ele>939.4</ele>
        <time>2021-08-24T14:33:12Z</time>
      </trkpt>
      <trkpt lat="45.32035" lon="5.79176">
        <ele>939.6</ele>
        <time>2021-08-24T14:33:13Z</time>
      </trkpt>
      <trkpt lat="45.32034" lon="5.79174">
        <ele>939.7</ele>
        <time>2021-08-24T14:33:14Z</time>
      </trkpt>
      <trkpt lat="45.32031" lon="5.7917">
        <ele>939.9</ele>
        <time>2021-08-24T14:33:16Z</time>
      </trkpt>
      <trkpt lat="45.32029" lon="5.79166">
        <ele>940.1</ele>
        <time>2021-08-24T14:33:17Z</time>
      </trkpt>
      <trkpt lat="45.32028" lon="5.79165">
        <ele>940.2</ele>
        <time>2021-08-24T14:33:18Z</time>
      </trkpt>
      <trkpt lat="45.32025" lon="5.79162">
        <ele>940.4</ele>
        <time>2021-08-24T14:33:19Z</time>
      </trkpt>
      <trkpt lat="45.32024" lon="5.79161">
        <ele>940.5</ele>
        <time>2021-08-24T14:33:20Z</time>
      </trkpt>
      <trkpt lat="45.32022" lon="5.79158">
        <ele>940.7</ele>
        <time>2021-08-24T14:33:21Z</time>
      </trkpt>
      <trkpt lat="45.32021" lon="5.79157">
        <ele>940.7</ele>
        <time>2021-08-24T14:33:22Z</time>
      </trkpt>
      <trkpt lat="45.3202" lon="5.79155">
        <ele>940.9</ele>
        <time>2021-08-24T14:33:23Z</time>
      </trkpt>
      <trkpt lat="45.32018" lon="5.79153">
        <ele>941</ele>
        <time>2021-08-24T14:33:24Z</time>
      </trkpt>
      <trkpt lat="45.32017" lon="5.79151">
        <ele>941.1</ele>
        <time>2021-08-24T14:33:25Z</time>
      </trkpt>
      <trkpt lat="45.32016" lon="5.79149">
        <ele>941.2</ele>
        <time>2021-08-24T14:33:26Z</time>
      </trkpt>
      <trkpt lat="45.32015" lon="5.79147">
        <ele>941.3</ele>
        <time>2021-08-24T14:33:27Z</time>
      </trkpt>
      <trkpt lat="45.32015" lon="5.79145">
        <ele>941.4</ele>
        <time>2021-08-24T14:33:28Z</time>
      </trkpt>
      <trkpt lat="45.32014" lon="5.79142">
        <ele>941.5</ele>
        <time>2021-08-24T14:33:29Z</time>
      </trkpt>
      <trkpt lat="45.32013" lon="5.79141">
        <ele>941.6</ele>
        <time>2021-08-24T14:33:31Z</time>
      </trkpt>
      <trkpt lat="45.32013" lon="5.79139">
        <ele>941.6</ele>
        <time>2021-08-24T14:33:32Z</time>
      </trkpt>
      <trkpt lat="45.32011" lon="5.79135">
        <ele>941.9</ele>
        <time>2021-08-24T14:33:34Z</time>
      </trkpt>
      <trkpt lat="45.3201" lon="5.79133">
        <ele>942</ele>
        <time>2021-08-24T14:33:35Z</time>
      </trkpt>
      <trkpt lat="45.32009" lon="5.79131">
        <ele>942</ele>
        <time>2021-08-24T14:33:36Z</time>
      </trkpt>
      <trkpt lat="45.32008" lon="5.79129">
        <ele>942.2</ele>
        <time>2021-08-24T14:33:37Z</time>
      </trkpt>
      <trkpt lat="45.32007" lon="5.79124">
        <ele>942.4</ele>
        <time>2021-08-24T14:33:39Z</time>
      </trkpt>
      <trkpt lat="45.32006" lon="5.79122">
        <ele>942.5</ele>
        <time>2021-08-24T14:33:40Z</time>
      </trkpt>
      <trkpt lat="45.32006" lon="5.79119">
        <ele>942.6</ele>
        <time>2021-08-24T14:33:41Z</time>
      </trkpt>
      <trkpt lat="45.32005" lon="5.79117">
        <ele>942.7</ele>
        <time>2021-08-24T14:33:42Z</time>
      </trkpt>
      <trkpt lat="45.32003" lon="5.79111">
        <ele>943</ele>
        <time>2021-08-24T14:33:44Z</time>
      </trkpt>
      <trkpt lat="45.32002" lon="5.79107">
        <ele>943.2</ele>
        <time>2021-08-24T14:33:45Z</time>
      </trkpt>
      <trkpt lat="45.32001" lon="5.79106">
        <ele>943.2</ele>
        <time>2021-08-24T14:33:46Z</time>
      </trkpt>
      <trkpt lat="45.32" lon="5.79103">
        <ele>943.4</ele>
        <time>2021-08-24T14:33:47Z</time>
      </trkpt>
      <trkpt lat="45.31999" lon="5.79102">
        <ele>943.5</ele>
        <time>2021-08-24T14:33:48Z</time>
      </trkpt>
      <trkpt lat="45.31998" lon="5.79098">
        <ele>943.7</ele>
        <time>2021-08-24T14:33:49Z</time>
      </trkpt>
      <trkpt lat="45.31997" lon="5.79097">
        <ele>943.7</ele>
        <time>2021-08-24T14:33:50Z</time>
      </trkpt>
      <trkpt lat="45.31995" lon="5.79092">
        <ele>944</ele>
        <time>2021-08-24T14:33:52Z</time>
      </trkpt>
      <trkpt lat="45.31994" lon="5.7909">
        <ele>944.1</ele>
        <time>2021-08-24T14:33:53Z</time>
      </trkpt>
      <trkpt lat="45.31992" lon="5.79086">
        <ele>944.3</ele>
        <time>2021-08-24T14:33:55Z</time>
      </trkpt>
      <trkpt lat="45.31991" lon="5.79084">
        <ele>944.5</ele>
        <time>2021-08-24T14:33:56Z</time>
      </trkpt>
      <trkpt lat="45.31989" lon="5.79079">
        <ele>944.7</ele>
        <time>2021-08-24T14:33:58Z</time>
      </trkpt>
      <trkpt lat="45.31987" lon="5.79076">
        <ele>944.9</ele>
        <time>2021-08-24T14:33:59Z</time>
      </trkpt>
      <trkpt lat="45.31986" lon="5.79076">
        <ele>945</ele>
        <time>2021-08-24T14:34:00Z</time>
      </trkpt>
      <trkpt lat="45.31983" lon="5.79072">
        <ele>945.2</ele>
        <time>2021-08-24T14:34:02Z</time>
      </trkpt>
      <trkpt lat="45.31982" lon="5.79071">
        <ele>945.3</ele>
        <time>2021-08-24T14:34:03Z</time>
      </trkpt>
      <trkpt lat="45.31981" lon="5.79069">
        <ele>945.5</ele>
        <time>2021-08-24T14:34:04Z</time>
      </trkpt>
      <trkpt lat="45.31978" lon="5.79066">
        <ele>945.6</ele>
        <time>2021-08-24T14:34:05Z</time>
      </trkpt>
      <trkpt lat="45.31978" lon="5.79066">
        <ele>945.7</ele>
        <time>2021-08-24T14:34:06Z</time>
      </trkpt>
      <trkpt lat="45.31976" lon="5.79063">
        <ele>945.9</ele>
        <time>2021-08-24T14:34:07Z</time>
      </trkpt>
      <trkpt lat="45.31975" lon="5.79062">
        <ele>946</ele>
        <time>2021-08-24T14:34:08Z</time>
      </trkpt>
      <trkpt lat="45.31973" lon="5.79057">
        <ele>946.2</ele>
        <time>2021-08-24T14:34:11Z</time>
      </trkpt>
      <trkpt lat="45.31972" lon="5.79055">
        <ele>946.4</ele>
        <time>2021-08-24T14:34:12Z</time>
      </trkpt>
      <trkpt lat="45.31971" lon="5.79053">
        <ele>946.5</ele>
        <time>2021-08-24T14:34:13Z</time>
      </trkpt>
      <trkpt lat="45.3197" lon="5.79051">
        <ele>946.6</ele>
        <time>2021-08-24T14:34:14Z</time>
      </trkpt>
      <trkpt lat="45.3197" lon="5.79049">
        <ele>946.7</ele>
        <time>2021-08-24T14:34:15Z</time>
      </trkpt>
      <trkpt lat="45.31969" lon="5.79047">
        <ele>946.8</ele>
        <time>2021-08-24T14:34:16Z</time>
      </trkpt>
      <trkpt lat="45.31968" lon="5.79045">
        <ele>946.9</ele>
        <time>2021-08-24T14:34:17Z</time>
      </trkpt>
      <trkpt lat="45.31967" lon="5.79044">
        <ele>947</ele>
        <time>2021-08-24T14:34:18Z</time>
      </trkpt>
      <trkpt lat="45.31966" lon="5.79042">
        <ele>947.1</ele>
        <time>2021-08-24T14:34:19Z</time>
      </trkpt>
      <trkpt lat="45.31965" lon="5.79038">
        <ele>947.3</ele>
        <time>2021-08-24T14:34:20Z</time>
      </trkpt>
      <trkpt lat="45.31964" lon="5.79037">
        <ele>947.4</ele>
        <time>2021-08-24T14:34:21Z</time>
      </trkpt>
      <trkpt lat="45.31963" lon="5.79033">
        <ele>947.6</ele>
        <time>2021-08-24T14:34:22Z</time>
      </trkpt>
      <trkpt lat="45.31963" lon="5.79032">
        <ele>947.6</ele>
        <time>2021-08-24T14:34:23Z</time>
      </trkpt>
      <trkpt lat="45.31963" lon="5.7903">
        <ele>947.7</ele>
        <time>2021-08-24T14:34:24Z</time>
      </trkpt>
      <trkpt lat="45.31962" lon="5.79028">
        <ele>947.8</ele>
        <time>2021-08-24T14:34:25Z</time>
      </trkpt>
      <trkpt lat="45.31961" lon="5.79025">
        <ele>948</ele>
        <time>2021-08-24T14:34:26Z</time>
      </trkpt>
      <trkpt lat="45.31961" lon="5.79024">
        <ele>948</ele>
        <time>2021-08-24T14:34:27Z</time>
      </trkpt>
      <trkpt lat="45.31961" lon="5.79023">
        <ele>948.1</ele>
        <time>2021-08-24T14:34:28Z</time>
      </trkpt>
      <trkpt lat="45.31958" lon="5.79017">
        <ele>948.4</ele>
        <time>2021-08-24T14:34:30Z</time>
      </trkpt>
      <trkpt lat="45.31957" lon="5.79015">
        <ele>948.6</ele>
        <time>2021-08-24T14:34:32Z</time>
      </trkpt>
      <trkpt lat="45.31955" lon="5.79013">
        <ele>948.7</ele>
        <time>2021-08-24T14:34:33Z</time>
      </trkpt>
      <trkpt lat="45.31954" lon="5.79011">
        <ele>948.8</ele>
        <time>2021-08-24T14:34:34Z</time>
      </trkpt>
      <trkpt lat="45.31951" lon="5.79008">
        <ele>949</ele>
        <time>2021-08-24T14:34:35Z</time>
      </trkpt>
      <trkpt lat="45.31951" lon="5.79007">
        <ele>949.1</ele>
        <time>2021-08-24T14:34:36Z</time>
      </trkpt>
      <trkpt lat="45.31949" lon="5.79003">
        <ele>949.3</ele>
        <time>2021-08-24T14:34:38Z</time>
      </trkpt>
      <trkpt lat="45.31948" lon="5.79002">
        <ele>949.4</ele>
        <time>2021-08-24T14:34:39Z</time>
      </trkpt>
      <trkpt lat="45.31947" lon="5.78998">
        <ele>949.6</ele>
        <time>2021-08-24T14:34:40Z</time>
      </trkpt>
      <trkpt lat="45.31946" lon="5.78996">
        <ele>949.7</ele>
        <time>2021-08-24T14:34:41Z</time>
      </trkpt>
      <trkpt lat="45.31945" lon="5.78992">
        <ele>949.9</ele>
        <time>2021-08-24T14:34:42Z</time>
      </trkpt>
      <trkpt lat="45.31944" lon="5.78991">
        <ele>950</ele>
        <time>2021-08-24T14:34:43Z</time>
      </trkpt>
      <trkpt lat="45.31942" lon="5.78987">
        <ele>950.2</ele>
        <time>2021-08-24T14:34:44Z</time>
      </trkpt>
      <trkpt lat="45.3194" lon="5.78983">
        <ele>950.4</ele>
        <time>2021-08-24T14:34:46Z</time>
      </trkpt>
      <trkpt lat="45.3194" lon="5.78982">
        <ele>950.5</ele>
        <time>2021-08-24T14:34:47Z</time>
      </trkpt>
      <trkpt lat="45.31939" lon="5.7898">
        <ele>950.6</ele>
        <time>2021-08-24T14:34:48Z</time>
      </trkpt>
      <trkpt lat="45.31937" lon="5.78976">
        <ele>950.9</ele>
        <time>2021-08-24T14:34:50Z</time>
      </trkpt>
      <trkpt lat="45.31935" lon="5.7897">
        <ele>951.2</ele>
        <time>2021-08-24T14:34:52Z</time>
      </trkpt>
      <trkpt lat="45.31933" lon="5.78966">
        <ele>951.4</ele>
        <time>2021-08-24T14:34:53Z</time>
      </trkpt>
      <trkpt lat="45.31933" lon="5.78965">
        <ele>951.5</ele>
        <time>2021-08-24T14:34:54Z</time>
      </trkpt>
      <trkpt lat="45.31931" lon="5.78963">
        <ele>951.6</ele>
        <time>2021-08-24T14:34:55Z</time>
      </trkpt>
      <trkpt lat="45.31931" lon="5.78961">
        <ele>951.7</ele>
        <time>2021-08-24T14:34:56Z</time>
      </trkpt>
      <trkpt lat="45.31929" lon="5.78958">
        <ele>951.9</ele>
        <time>2021-08-24T14:34:58Z</time>
      </trkpt>
      <trkpt lat="45.31927" lon="5.78954">
        <ele>952.1</ele>
        <time>2021-08-24T14:34:59Z</time>
      </trkpt>
      <trkpt lat="45.31926" lon="5.78951">
        <ele>952.3</ele>
        <time>2021-08-24T14:35:00Z</time>
      </trkpt>
      <trkpt lat="45.31924" lon="5.78947">
        <ele>952.6</ele>
        <time>2021-08-24T14:35:02Z</time>
      </trkpt>
      <trkpt lat="45.31922" lon="5.7894">
        <ele>952.9</ele>
        <time>2021-08-24T14:35:04Z</time>
      </trkpt>
      <trkpt lat="45.31921" lon="5.78938">
        <ele>953</ele>
        <time>2021-08-24T14:35:05Z</time>
      </trkpt>
      <trkpt lat="45.3192" lon="5.78936">
        <ele>953.1</ele>
        <time>2021-08-24T14:35:06Z</time>
      </trkpt>
      <trkpt lat="45.31919" lon="5.78932">
        <ele>953.3</ele>
        <time>2021-08-24T14:35:07Z</time>
      </trkpt>
      <trkpt lat="45.31918" lon="5.7893">
        <ele>953.5</ele>
        <time>2021-08-24T14:35:08Z</time>
      </trkpt>
      <trkpt lat="45.31916" lon="5.78926">
        <ele>953.7</ele>
        <time>2021-08-24T14:35:10Z</time>
      </trkpt>
      <trkpt lat="45.31915" lon="5.78922">
        <ele>953.9</ele>
        <time>2021-08-24T14:35:11Z</time>
      </trkpt>
      <trkpt lat="45.31914" lon="5.78921">
        <ele>953.9</ele>
        <time>2021-08-24T14:35:12Z</time>
      </trkpt>
      <trkpt lat="45.31913" lon="5.78917">
        <ele>954.2</ele>
        <time>2021-08-24T14:35:13Z</time>
      </trkpt>
      <trkpt lat="45.31912" lon="5.78915">
        <ele>954.2</ele>
        <time>2021-08-24T14:35:14Z</time>
      </trkpt>
      <trkpt lat="45.3191" lon="5.78912">
        <ele>954.4</ele>
        <time>2021-08-24T14:35:15Z</time>
      </trkpt>
      <trkpt lat="45.31909" lon="5.7891">
        <ele>954.5</ele>
        <time>2021-08-24T14:35:16Z</time>
      </trkpt>
      <trkpt lat="45.31906" lon="5.78905">
        <ele>954.8</ele>
        <time>2021-08-24T14:35:18Z</time>
      </trkpt>
      <trkpt lat="45.31904" lon="5.78903">
        <ele>955</ele>
        <time>2021-08-24T14:35:19Z</time>
      </trkpt>
      <trkpt lat="45.31903" lon="5.78902">
        <ele>955</ele>
        <time>2021-08-24T14:35:20Z</time>
      </trkpt>
      <trkpt lat="45.31901" lon="5.789">
        <ele>955.2</ele>
        <time>2021-08-24T14:35:21Z</time>
      </trkpt>
      <trkpt lat="45.31898" lon="5.78896">
        <ele>955.4</ele>
        <time>2021-08-24T14:35:23Z</time>
      </trkpt>
      <trkpt lat="45.31894" lon="5.78892">
        <ele>955.7</ele>
        <time>2021-08-24T14:35:25Z</time>
      </trkpt>
      <trkpt lat="45.31892" lon="5.7889">
        <ele>955.9</ele>
        <time>2021-08-24T14:35:26Z</time>
      </trkpt>
      <trkpt lat="45.31889" lon="5.78886">
        <ele>956.1</ele>
        <time>2021-08-24T14:35:28Z</time>
      </trkpt>
      <trkpt lat="45.31885" lon="5.78882">
        <ele>956.4</ele>
        <time>2021-08-24T14:35:30Z</time>
      </trkpt>
      <trkpt lat="45.31882" lon="5.78878">
        <ele>956.7</ele>
        <time>2021-08-24T14:35:32Z</time>
      </trkpt>
      <trkpt lat="45.3188" lon="5.78873">
        <ele>956.9</ele>
        <time>2021-08-24T14:35:34Z</time>
      </trkpt>
      <trkpt lat="45.31877" lon="5.78868">
        <ele>957.2</ele>
        <time>2021-08-24T14:35:36Z</time>
      </trkpt>
      <trkpt lat="45.31876" lon="5.78864">
        <ele>957.4</ele>
        <time>2021-08-24T14:35:37Z</time>
      </trkpt>
      <trkpt lat="45.31875" lon="5.78863">
        <ele>957.5</ele>
        <time>2021-08-24T14:35:38Z</time>
      </trkpt>
      <trkpt lat="45.31873" lon="5.78859">
        <ele>957.7</ele>
        <time>2021-08-24T14:35:40Z</time>
      </trkpt>
      <trkpt lat="45.31872" lon="5.78858">
        <ele>957.8</ele>
        <time>2021-08-24T14:35:41Z</time>
      </trkpt>
      <trkpt lat="45.3187" lon="5.78854">
        <ele>958</ele>
        <time>2021-08-24T14:35:42Z</time>
      </trkpt>
      <trkpt lat="45.31869" lon="5.78853">
        <ele>958.1</ele>
        <time>2021-08-24T14:35:43Z</time>
      </trkpt>
      <trkpt lat="45.31866" lon="5.7885">
        <ele>958.3</ele>
        <time>2021-08-24T14:35:45Z</time>
      </trkpt>
      <trkpt lat="45.31865" lon="5.78847">
        <ele>958.5</ele>
        <time>2021-08-24T14:35:46Z</time>
      </trkpt>
      <trkpt lat="45.31863" lon="5.78844">
        <ele>958.7</ele>
        <time>2021-08-24T14:35:48Z</time>
      </trkpt>
      <trkpt lat="45.31861" lon="5.78841">
        <ele>958.8</ele>
        <time>2021-08-24T14:35:49Z</time>
      </trkpt>
      <trkpt lat="45.3186" lon="5.7884">
        <ele>958.9</ele>
        <time>2021-08-24T14:35:50Z</time>
      </trkpt>
      <trkpt lat="45.31859" lon="5.78834">
        <ele>959.2</ele>
        <time>2021-08-24T14:35:52Z</time>
      </trkpt>
      <trkpt lat="45.31858" lon="5.78832">
        <ele>959.3</ele>
        <time>2021-08-24T14:35:53Z</time>
      </trkpt>
      <trkpt lat="45.31856" lon="5.78828">
        <ele>959.6</ele>
        <time>2021-08-24T14:35:55Z</time>
      </trkpt>
      <trkpt lat="45.31853" lon="5.78824">
        <ele>959.8</ele>
        <time>2021-08-24T14:35:57Z</time>
      </trkpt>
      <trkpt lat="45.31851" lon="5.78822">
        <ele>960</ele>
        <time>2021-08-24T14:35:58Z</time>
      </trkpt>
      <trkpt lat="45.31849" lon="5.78819">
        <ele>960.2</ele>
        <time>2021-08-24T14:36:00Z</time>
      </trkpt>
      <trkpt lat="45.31847" lon="5.78818">
        <ele>960.4</ele>
        <time>2021-08-24T14:36:01Z</time>
      </trkpt>
      <trkpt lat="45.31846" lon="5.78816">
        <ele>960.5</ele>
        <time>2021-08-24T14:36:02Z</time>
      </trkpt>
      <trkpt lat="45.31844" lon="5.78813">
        <ele>960.7</ele>
        <time>2021-08-24T14:36:04Z</time>
      </trkpt>
      <trkpt lat="45.31843" lon="5.78812">
        <ele>960.8</ele>
        <time>2021-08-24T14:36:05Z</time>
      </trkpt>
      <trkpt lat="45.31842" lon="5.7881">
        <ele>960.9</ele>
        <time>2021-08-24T14:36:06Z</time>
      </trkpt>
      <trkpt lat="45.31841" lon="5.78808">
        <ele>961</ele>
        <time>2021-08-24T14:36:07Z</time>
      </trkpt>
      <trkpt lat="45.31839" lon="5.78804">
        <ele>961.2</ele>
        <time>2021-08-24T14:36:09Z</time>
      </trkpt>
      <trkpt lat="45.31839" lon="5.78802">
        <ele>961.3</ele>
        <time>2021-08-24T14:36:10Z</time>
      </trkpt>
      <trkpt lat="45.31838" lon="5.78799">
        <ele>961.5</ele>
        <time>2021-08-24T14:36:12Z</time>
      </trkpt>
      <trkpt lat="45.31837" lon="5.78795">
        <ele>961.7</ele>
        <time>2021-08-24T14:36:13Z</time>
      </trkpt>
      <trkpt lat="45.31836" lon="5.78791">
        <ele>961.9</ele>
        <time>2021-08-24T14:36:14Z</time>
      </trkpt>
      <trkpt lat="45.31836" lon="5.78789">
        <ele>962</ele>
        <time>2021-08-24T14:36:15Z</time>
      </trkpt>
      <trkpt lat="45.31835" lon="5.78787">
        <ele>962.1</ele>
        <time>2021-08-24T14:36:16Z</time>
      </trkpt>
      <trkpt lat="45.31834" lon="5.78786">
        <ele>962.2</ele>
        <time>2021-08-24T14:36:18Z</time>
      </trkpt>
      <trkpt lat="45.31833" lon="5.78784">
        <ele>962.3</ele>
        <time>2021-08-24T14:36:19Z</time>
      </trkpt>
      <trkpt lat="45.31833" lon="5.78782">
        <ele>962.4</ele>
        <time>2021-08-24T14:36:20Z</time>
      </trkpt>
      <trkpt lat="45.31832" lon="5.78779">
        <ele>962.5</ele>
        <time>2021-08-24T14:36:21Z</time>
      </trkpt>
      <trkpt lat="45.3183" lon="5.78777">
        <ele>962.7</ele>
        <time>2021-08-24T14:36:23Z</time>
      </trkpt>
      <trkpt lat="45.31829" lon="5.78774">
        <ele>962.9</ele>
        <time>2021-08-24T14:36:24Z</time>
      </trkpt>
      <trkpt lat="45.31827" lon="5.7877">
        <ele>963.1</ele>
        <time>2021-08-24T14:36:26Z</time>
      </trkpt>
      <trkpt lat="45.31825" lon="5.78766">
        <ele>963.3</ele>
        <time>2021-08-24T14:36:28Z</time>
      </trkpt>
      <trkpt lat="45.31824" lon="5.78762">
        <ele>963.6</ele>
        <time>2021-08-24T14:36:30Z</time>
      </trkpt>
      <trkpt lat="45.31822" lon="5.78759">
        <ele>963.7</ele>
        <time>2021-08-24T14:36:31Z</time>
      </trkpt>
      <trkpt lat="45.3182" lon="5.78755">
        <ele>964</ele>
        <time>2021-08-24T14:36:33Z</time>
      </trkpt>
      <trkpt lat="45.31818" lon="5.78752">
        <ele>964.2</ele>
        <time>2021-08-24T14:36:35Z</time>
      </trkpt>
      <trkpt lat="45.31817" lon="5.78751">
        <ele>964.3</ele>
        <time>2021-08-24T14:36:36Z</time>
      </trkpt>
      <trkpt lat="45.31815" lon="5.7875">
        <ele>964.5</ele>
        <time>2021-08-24T14:36:37Z</time>
      </trkpt>
      <trkpt lat="45.31812" lon="5.78749">
        <ele>964.7</ele>
        <time>2021-08-24T14:36:39Z</time>
      </trkpt>
      <trkpt lat="45.3181" lon="5.78749">
        <ele>964.8</ele>
        <time>2021-08-24T14:36:40Z</time>
      </trkpt>
      <trkpt lat="45.31809" lon="5.78748">
        <ele>964.9</ele>
        <time>2021-08-24T14:36:41Z</time>
      </trkpt>
      <trkpt lat="45.31808" lon="5.78748">
        <ele>965</ele>
        <time>2021-08-24T14:36:42Z</time>
      </trkpt>
      <trkpt lat="45.31806" lon="5.78747">
        <ele>965.2</ele>
        <time>2021-08-24T14:36:43Z</time>
      </trkpt>
      <trkpt lat="45.31804" lon="5.78746">
        <ele>965.3</ele>
        <time>2021-08-24T14:36:44Z</time>
      </trkpt>
      <trkpt lat="45.318" lon="5.78746">
        <ele>965.6</ele>
        <time>2021-08-24T14:36:46Z</time>
      </trkpt>
      <trkpt lat="45.31797" lon="5.78746">
        <ele>965.9</ele>
        <time>2021-08-24T14:36:47Z</time>
      </trkpt>
      <trkpt lat="45.31793" lon="5.78746">
        <ele>966.2</ele>
        <time>2021-08-24T14:36:48Z</time>
      </trkpt>
      <trkpt lat="45.31792" lon="5.78746">
        <ele>966.2</ele>
        <time>2021-08-24T14:36:49Z</time>
      </trkpt>
      <trkpt lat="45.31789" lon="5.78746">
        <ele>966.4</ele>
        <time>2021-08-24T14:36:50Z</time>
      </trkpt>
      <trkpt lat="45.31786" lon="5.78746">
        <ele>966.7</ele>
        <time>2021-08-24T14:36:52Z</time>
      </trkpt>
      <trkpt lat="45.31784" lon="5.78746">
        <ele>966.8</ele>
        <time>2021-08-24T14:36:53Z</time>
      </trkpt>
      <trkpt lat="45.31782" lon="5.78746">
        <ele>966.9</ele>
        <time>2021-08-24T14:36:54Z</time>
      </trkpt>
      <trkpt lat="45.31779" lon="5.78745">
        <ele>967.2</ele>
        <time>2021-08-24T14:36:56Z</time>
      </trkpt>
      <trkpt lat="45.31778" lon="5.78745">
        <ele>967.3</ele>
        <time>2021-08-24T14:36:57Z</time>
      </trkpt>
      <trkpt lat="45.31776" lon="5.78744">
        <ele>967.4</ele>
        <time>2021-08-24T14:36:58Z</time>
      </trkpt>
      <trkpt lat="45.31774" lon="5.78742">
        <ele>967.6</ele>
        <time>2021-08-24T14:37:00Z</time>
      </trkpt>
      <trkpt lat="45.31772" lon="5.7874">
        <ele>967.8</ele>
        <time>2021-08-24T14:37:01Z</time>
      </trkpt>
      <trkpt lat="45.31771" lon="5.78739">
        <ele>967.9</ele>
        <time>2021-08-24T14:37:02Z</time>
      </trkpt>
      <trkpt lat="45.31768" lon="5.78737">
        <ele>968.1</ele>
        <time>2021-08-24T14:37:03Z</time>
      </trkpt>
      <trkpt lat="45.31767" lon="5.78737">
        <ele>968.2</ele>
        <time>2021-08-24T14:37:04Z</time>
      </trkpt>
      <trkpt lat="45.31764" lon="5.78735">
        <ele>968.4</ele>
        <time>2021-08-24T14:37:05Z</time>
      </trkpt>
      <trkpt lat="45.31763" lon="5.78734">
        <ele>968.5</ele>
        <time>2021-08-24T14:37:06Z</time>
      </trkpt>
      <trkpt lat="45.3176" lon="5.7873">
        <ele>968.8</ele>
        <time>2021-08-24T14:37:08Z</time>
      </trkpt>
      <trkpt lat="45.31759" lon="5.78729">
        <ele>968.9</ele>
        <time>2021-08-24T14:37:09Z</time>
      </trkpt>
      <trkpt lat="45.31758" lon="5.78728">
        <ele>968.9</ele>
        <time>2021-08-24T14:37:10Z</time>
      </trkpt>
      <trkpt lat="45.31756" lon="5.78725">
        <ele>969.1</ele>
        <time>2021-08-24T14:37:12Z</time>
      </trkpt>
      <trkpt lat="45.31755" lon="5.78724">
        <ele>969.3</ele>
        <time>2021-08-24T14:37:14Z</time>
      </trkpt>
      <trkpt lat="45.31753" lon="5.7872">
        <ele>969.4</ele>
        <time>2021-08-24T14:37:16Z</time>
      </trkpt>
      <trkpt lat="45.31754" lon="5.78717">
        <ele>969.6</ele>
        <time>2021-08-24T14:37:18Z</time>
      </trkpt>
      <trkpt lat="45.31755" lon="5.78714">
        <ele>969.8</ele>
        <time>2021-08-24T14:37:20Z</time>
      </trkpt>
      <trkpt lat="45.31754" lon="5.7871">
        <ele>970</ele>
        <time>2021-08-24T14:37:22Z</time>
      </trkpt>
      <trkpt lat="45.31754" lon="5.78709">
        <ele>970.1</ele>
        <time>2021-08-24T14:37:23Z</time>
      </trkpt>
      <trkpt lat="45.31754" lon="5.78707">
        <ele>970.2</ele>
        <time>2021-08-24T14:37:24Z</time>
      </trkpt>
      <trkpt lat="45.31753" lon="5.78703">
        <ele>970.4</ele>
        <time>2021-08-24T14:37:26Z</time>
      </trkpt>
      <trkpt lat="45.31753" lon="5.78702">
        <ele>970.5</ele>
        <time>2021-08-24T14:37:27Z</time>
      </trkpt>
      <trkpt lat="45.31752" lon="5.787">
        <ele>970.6</ele>
        <time>2021-08-24T14:37:28Z</time>
      </trkpt>
      <trkpt lat="45.31752" lon="5.78698">
        <ele>970.7</ele>
        <time>2021-08-24T14:37:29Z</time>
      </trkpt>
      <trkpt lat="45.31751" lon="5.78696">
        <ele>970.8</ele>
        <time>2021-08-24T14:37:30Z</time>
      </trkpt>
      <trkpt lat="45.31749" lon="5.78691">
        <ele>971.1</ele>
        <time>2021-08-24T14:37:32Z</time>
      </trkpt>
      <trkpt lat="45.31746" lon="5.78686">
        <ele>971.5</ele>
        <time>2021-08-24T14:37:34Z</time>
      </trkpt>
      <trkpt lat="45.31745" lon="5.78684">
        <ele>971.6</ele>
        <time>2021-08-24T14:37:35Z</time>
      </trkpt>
      <trkpt lat="45.31744" lon="5.78683">
        <ele>971.7</ele>
        <time>2021-08-24T14:37:36Z</time>
      </trkpt>
      <trkpt lat="45.31741" lon="5.7868">
        <ele>972</ele>
        <time>2021-08-24T14:37:38Z</time>
      </trkpt>
      <trkpt lat="45.3174" lon="5.78679">
        <ele>972.1</ele>
        <time>2021-08-24T14:37:39Z</time>
      </trkpt>
      <trkpt lat="45.31739" lon="5.78676">
        <ele>972.2</ele>
        <time>2021-08-24T14:37:41Z</time>
      </trkpt>
      <trkpt lat="45.31738" lon="5.78674">
        <ele>972.4</ele>
        <time>2021-08-24T14:37:42Z</time>
      </trkpt>
      <trkpt lat="45.31737" lon="5.78671">
        <ele>972.5</ele>
        <time>2021-08-24T14:37:44Z</time>
      </trkpt>
      <trkpt lat="45.31736" lon="5.78669">
        <ele>972.6</ele>
        <time>2021-08-24T14:37:45Z</time>
      </trkpt>
      <trkpt lat="45.31735" lon="5.78668">
        <ele>972.7</ele>
        <time>2021-08-24T14:37:46Z</time>
      </trkpt>
      <trkpt lat="45.31734" lon="5.78666">
        <ele>972.8</ele>
        <time>2021-08-24T14:37:47Z</time>
      </trkpt>
      <trkpt lat="45.31733" lon="5.78664">
        <ele>972.9</ele>
        <time>2021-08-24T14:37:48Z</time>
      </trkpt>
      <trkpt lat="45.31733" lon="5.78663">
        <ele>973</ele>
        <time>2021-08-24T14:37:49Z</time>
      </trkpt>
      <trkpt lat="45.31732" lon="5.78661">
        <ele>973.1</ele>
        <time>2021-08-24T14:37:50Z</time>
      </trkpt>
      <trkpt lat="45.31729" lon="5.78659">
        <ele>973.3</ele>
        <time>2021-08-24T14:37:52Z</time>
      </trkpt>
      <trkpt lat="45.31728" lon="5.7866">
        <ele>973.4</ele>
        <time>2021-08-24T14:37:53Z</time>
      </trkpt>
      <trkpt lat="45.31726" lon="5.78658">
        <ele>973.5</ele>
        <time>2021-08-24T14:37:54Z</time>
      </trkpt>
      <trkpt lat="45.31725" lon="5.78658">
        <ele>973.6</ele>
        <time>2021-08-24T14:37:55Z</time>
      </trkpt>
      <trkpt lat="45.31725" lon="5.78657">
        <ele>973.7</ele>
        <time>2021-08-24T14:37:56Z</time>
      </trkpt>
      <trkpt lat="45.31722" lon="5.78655">
        <ele>973.9</ele>
        <time>2021-08-24T14:37:58Z</time>
      </trkpt>
      <trkpt lat="45.31721" lon="5.78654">
        <ele>974</ele>
        <time>2021-08-24T14:37:59Z</time>
      </trkpt>
      <trkpt lat="45.31718" lon="5.78651">
        <ele>974.2</ele>
        <time>2021-08-24T14:38:01Z</time>
      </trkpt>
      <trkpt lat="45.31717" lon="5.7865">
        <ele>974.3</ele>
        <time>2021-08-24T14:38:02Z</time>
      </trkpt>
      <trkpt lat="45.31715" lon="5.78648">
        <ele>974.4</ele>
        <time>2021-08-24T14:38:03Z</time>
      </trkpt>
      <trkpt lat="45.31713" lon="5.78645">
        <ele>974.6</ele>
        <time>2021-08-24T14:38:04Z</time>
      </trkpt>
      <trkpt lat="45.31713" lon="5.78644">
        <ele>974.7</ele>
        <time>2021-08-24T14:38:05Z</time>
      </trkpt>
      <trkpt lat="45.31711" lon="5.78641">
        <ele>974.9</ele>
        <time>2021-08-24T14:38:07Z</time>
      </trkpt>
      <trkpt lat="45.31709" lon="5.78639">
        <ele>975</ele>
        <time>2021-08-24T14:38:08Z</time>
      </trkpt>
      <trkpt lat="45.31706" lon="5.78633">
        <ele>975.4</ele>
        <time>2021-08-24T14:38:10Z</time>
      </trkpt>
      <trkpt lat="45.31704" lon="5.78629">
        <ele>975.6</ele>
        <time>2021-08-24T14:38:11Z</time>
      </trkpt>
      <trkpt lat="45.31701" lon="5.78626">
        <ele>975.8</ele>
        <time>2021-08-24T14:38:13Z</time>
      </trkpt>
      <trkpt lat="45.31701" lon="5.78625">
        <ele>975.9</ele>
        <time>2021-08-24T14:38:14Z</time>
      </trkpt>
      <trkpt lat="45.31699" lon="5.78621">
        <ele>976.1</ele>
        <time>2021-08-24T14:38:16Z</time>
      </trkpt>
      <trkpt lat="45.31697" lon="5.78617">
        <ele>976.3</ele>
        <time>2021-08-24T14:38:18Z</time>
      </trkpt>
      <trkpt lat="45.31696" lon="5.78614">
        <ele>976.5</ele>
        <time>2021-08-24T14:38:20Z</time>
      </trkpt>
      <trkpt lat="45.31695" lon="5.78612">
        <ele>976.6</ele>
        <time>2021-08-24T14:38:21Z</time>
      </trkpt>
      <trkpt lat="45.31692" lon="5.78607">
        <ele>976.8</ele>
        <time>2021-08-24T14:38:23Z</time>
      </trkpt>
      <trkpt lat="45.31692" lon="5.78606">
        <ele>976.9</ele>
        <time>2021-08-24T14:38:24Z</time>
      </trkpt>
      <trkpt lat="45.3169" lon="5.78604">
        <ele>977</ele>
        <time>2021-08-24T14:38:25Z</time>
      </trkpt>
      <trkpt lat="45.3169" lon="5.78602">
        <ele>977.1</ele>
        <time>2021-08-24T14:38:26Z</time>
      </trkpt>
      <trkpt lat="45.31689" lon="5.786">
        <ele>977.2</ele>
        <time>2021-08-24T14:38:27Z</time>
      </trkpt>
      <trkpt lat="45.31688" lon="5.78598">
        <ele>977.4</ele>
        <time>2021-08-24T14:38:28Z</time>
      </trkpt>
      <trkpt lat="45.31685" lon="5.78594">
        <ele>977.6</ele>
        <time>2021-08-24T14:38:30Z</time>
      </trkpt>
      <trkpt lat="45.31683" lon="5.78591">
        <ele>977.8</ele>
        <time>2021-08-24T14:38:31Z</time>
      </trkpt>
      <trkpt lat="45.31682" lon="5.7859">
        <ele>977.9</ele>
        <time>2021-08-24T14:38:32Z</time>
      </trkpt>
      <trkpt lat="45.3168" lon="5.78587">
        <ele>978.1</ele>
        <time>2021-08-24T14:38:33Z</time>
      </trkpt>
      <trkpt lat="45.31679" lon="5.78586">
        <ele>978.1</ele>
        <time>2021-08-24T14:38:34Z</time>
      </trkpt>
      <trkpt lat="45.31677" lon="5.78583">
        <ele>978.3</ele>
        <time>2021-08-24T14:38:36Z</time>
      </trkpt>
      <trkpt lat="45.31676" lon="5.78582">
        <ele>978.4</ele>
        <time>2021-08-24T14:38:37Z</time>
      </trkpt>
      <trkpt lat="45.31675" lon="5.7858">
        <ele>978.5</ele>
        <time>2021-08-24T14:38:38Z</time>
      </trkpt>
      <trkpt lat="45.31672" lon="5.78579">
        <ele>978.7</ele>
        <time>2021-08-24T14:38:40Z</time>
      </trkpt>
      <trkpt lat="45.31671" lon="5.78579">
        <ele>978.8</ele>
        <time>2021-08-24T14:38:41Z</time>
      </trkpt>
      <trkpt lat="45.31665" lon="5.78576">
        <ele>979.1</ele>
        <time>2021-08-24T14:38:43Z</time>
      </trkpt>
      <trkpt lat="45.31664" lon="5.78576">
        <ele>979.2</ele>
        <time>2021-08-24T14:38:44Z</time>
      </trkpt>
      <trkpt lat="45.31662" lon="5.78574">
        <ele>979.3</ele>
        <time>2021-08-24T14:38:45Z</time>
      </trkpt>
      <trkpt lat="45.31661" lon="5.78571">
        <ele>979.5</ele>
        <time>2021-08-24T14:38:47Z</time>
      </trkpt>
      <trkpt lat="45.31659" lon="5.78567">
        <ele>979.7</ele>
        <time>2021-08-24T14:38:49Z</time>
      </trkpt>
      <trkpt lat="45.31658" lon="5.78564">
        <ele>979.8</ele>
        <time>2021-08-24T14:38:51Z</time>
      </trkpt>
      <trkpt lat="45.31657" lon="5.7856">
        <ele>980</ele>
        <time>2021-08-24T14:38:53Z</time>
      </trkpt>
      <trkpt lat="45.31655" lon="5.78558">
        <ele>980.1</ele>
        <time>2021-08-24T14:38:54Z</time>
      </trkpt>
      <trkpt lat="45.31653" lon="5.78555">
        <ele>980.3</ele>
        <time>2021-08-24T14:38:56Z</time>
      </trkpt>
      <trkpt lat="45.31651" lon="5.78551">
        <ele>980.5</ele>
        <time>2021-08-24T14:38:57Z</time>
      </trkpt>
      <trkpt lat="45.3165" lon="5.7855">
        <ele>980.6</ele>
        <time>2021-08-24T14:38:58Z</time>
      </trkpt>
      <trkpt lat="45.31648" lon="5.78546">
        <ele>980.8</ele>
        <time>2021-08-24T14:39:00Z</time>
      </trkpt>
      <trkpt lat="45.31646" lon="5.78544">
        <ele>981</ele>
        <time>2021-08-24T14:39:01Z</time>
      </trkpt>
      <trkpt lat="45.31643" lon="5.7854">
        <ele>981.3</ele>
        <time>2021-08-24T14:39:03Z</time>
      </trkpt>
      <trkpt lat="45.3164" lon="5.78535">
        <ele>981.6</ele>
        <time>2021-08-24T14:39:05Z</time>
      </trkpt>
      <trkpt lat="45.31639" lon="5.78529">
        <ele>981.9</ele>
        <time>2021-08-24T14:39:07Z</time>
      </trkpt>
      <trkpt lat="45.31639" lon="5.78527">
        <ele>982</ele>
        <time>2021-08-24T14:39:08Z</time>
      </trkpt>
      <trkpt lat="45.31638" lon="5.78524">
        <ele>982.1</ele>
        <time>2021-08-24T14:39:09Z</time>
      </trkpt>
      <trkpt lat="45.31638" lon="5.7852">
        <ele>982.3</ele>
        <time>2021-08-24T14:39:10Z</time>
      </trkpt>
      <trkpt lat="45.31638" lon="5.78519">
        <ele>982.4</ele>
        <time>2021-08-24T14:39:11Z</time>
      </trkpt>
      <trkpt lat="45.31637" lon="5.78517">
        <ele>982.5</ele>
        <time>2021-08-24T14:39:12Z</time>
      </trkpt>
      <trkpt lat="45.31637" lon="5.78513">
        <ele>982.7</ele>
        <time>2021-08-24T14:39:14Z</time>
      </trkpt>
      <trkpt lat="45.31637" lon="5.78511">
        <ele>982.8</ele>
        <time>2021-08-24T14:39:15Z</time>
      </trkpt>
      <trkpt lat="45.31637" lon="5.78506">
        <ele>983.1</ele>
        <time>2021-08-24T14:39:17Z</time>
      </trkpt>
      <trkpt lat="45.31637" lon="5.78503">
        <ele>983.2</ele>
        <time>2021-08-24T14:39:18Z</time>
      </trkpt>
      <trkpt lat="45.31638" lon="5.78498">
        <ele>983.5</ele>
        <time>2021-08-24T14:39:20Z</time>
      </trkpt>
      <trkpt lat="45.31638" lon="5.78493">
        <ele>983.7</ele>
        <time>2021-08-24T14:39:22Z</time>
      </trkpt>
      <trkpt lat="45.31639" lon="5.78489">
        <ele>984</ele>
        <time>2021-08-24T14:39:24Z</time>
      </trkpt>
      <trkpt lat="45.3164" lon="5.78484">
        <ele>984.3</ele>
        <time>2021-08-24T14:39:26Z</time>
      </trkpt>
      <trkpt lat="45.31641" lon="5.78479">
        <ele>984.5</ele>
        <time>2021-08-24T14:39:28Z</time>
      </trkpt>
      <trkpt lat="45.31642" lon="5.78477">
        <ele>984.7</ele>
        <time>2021-08-24T14:39:29Z</time>
      </trkpt>
      <trkpt lat="45.31643" lon="5.78473">
        <ele>985</ele>
        <time>2021-08-24T14:39:31Z</time>
      </trkpt>
      <trkpt lat="45.31644" lon="5.78471">
        <ele>985.1</ele>
        <time>2021-08-24T14:39:32Z</time>
      </trkpt>
      <trkpt lat="45.31644" lon="5.78468">
        <ele>985.2</ele>
        <time>2021-08-24T14:39:33Z</time>
      </trkpt>
      <trkpt lat="45.31644" lon="5.78463">
        <ele>985.5</ele>
        <time>2021-08-24T14:39:34Z</time>
      </trkpt>
      <trkpt lat="45.31644" lon="5.78462">
        <ele>985.6</ele>
        <time>2021-08-24T14:39:35Z</time>
      </trkpt>
      <trkpt lat="45.31644" lon="5.7846">
        <ele>985.7</ele>
        <time>2021-08-24T14:39:36Z</time>
      </trkpt>
      <trkpt lat="45.31644" lon="5.78458">
        <ele>985.9</ele>
        <time>2021-08-24T14:39:38Z</time>
      </trkpt>
      <trkpt lat="45.31644" lon="5.78456">
        <ele>986</ele>
        <time>2021-08-24T14:39:39Z</time>
      </trkpt>
      <trkpt lat="45.31644" lon="5.78453">
        <ele>986.1</ele>
        <time>2021-08-24T14:39:40Z</time>
      </trkpt>
      <trkpt lat="45.31643" lon="5.78451">
        <ele>986.1</ele>
        <time>2021-08-24T14:39:41Z</time>
      </trkpt>
      <trkpt lat="45.31643" lon="5.78449">
        <ele>986.2</ele>
        <time>2021-08-24T14:39:42Z</time>
      </trkpt>
      <trkpt lat="45.31643" lon="5.78445">
        <ele>986.3</ele>
        <time>2021-08-24T14:39:44Z</time>
      </trkpt>
      <trkpt lat="45.31642" lon="5.78442">
        <ele>986.4</ele>
        <time>2021-08-24T14:39:45Z</time>
      </trkpt>
      <trkpt lat="45.31641" lon="5.78438">
        <ele>986.5</ele>
        <time>2021-08-24T14:39:47Z</time>
      </trkpt>
      <trkpt lat="45.31639" lon="5.78434">
        <ele>986.6</ele>
        <time>2021-08-24T14:39:48Z</time>
      </trkpt>
      <trkpt lat="45.31638" lon="5.78433">
        <ele>986.7</ele>
        <time>2021-08-24T14:39:49Z</time>
      </trkpt>
      <trkpt lat="45.31635" lon="5.78429">
        <ele>986.8</ele>
        <time>2021-08-24T14:39:51Z</time>
      </trkpt>
      <trkpt lat="45.31632" lon="5.78426">
        <ele>986.9</ele>
        <time>2021-08-24T14:39:52Z</time>
      </trkpt>
      <trkpt lat="45.31631" lon="5.78425">
        <ele>986.9</ele>
        <time>2021-08-24T14:39:53Z</time>
      </trkpt>
      <trkpt lat="45.31629" lon="5.78423">
        <ele>987.2</ele>
        <time>2021-08-24T14:39:54Z</time>
      </trkpt>
      <trkpt lat="45.31627" lon="5.78421">
        <ele>987.4</ele>
        <time>2021-08-24T14:39:56Z</time>
      </trkpt>
      <trkpt lat="45.31624" lon="5.78421">
        <ele>987.5</ele>
        <time>2021-08-24T14:39:58Z</time>
      </trkpt>
      <trkpt lat="45.31624" lon="5.78421">
        <ele>987.6</ele>
        <time>2021-08-24T14:40:00Z</time>
      </trkpt>
      <trkpt lat="45.31624" lon="5.78421">
        <ele>987.6</ele>
        <time>2021-08-24T14:40:01Z</time>
      </trkpt>
      <trkpt lat="45.31623" lon="5.78421">
        <ele>987.6</ele>
        <time>2021-08-24T14:40:03Z</time>
      </trkpt>
      <trkpt lat="45.31623" lon="5.78421">
        <ele>987.6</ele>
        <time>2021-08-24T14:40:05Z</time>
      </trkpt>
      <trkpt lat="45.31623" lon="5.78421">
        <ele>987.6</ele>
        <time>2021-08-24T14:40:06Z</time>
      </trkpt>
      <trkpt lat="45.31611" lon="5.78426">
        <ele>988.5</ele>
        <time>2021-08-24T14:42:04Z</time>
      </trkpt>
      <trkpt lat="45.31608" lon="5.78427">
        <ele>988.6</ele>
        <time>2021-08-24T14:42:05Z</time>
      </trkpt>
      <trkpt lat="45.31606" lon="5.78428">
        <ele>988.8</ele>
        <time>2021-08-24T14:42:06Z</time>
      </trkpt>
      <trkpt lat="45.31602" lon="5.7843">
        <ele>989.1</ele>
        <time>2021-08-24T14:42:08Z</time>
      </trkpt>
      <trkpt lat="45.31599" lon="5.78432">
        <ele>989.3</ele>
        <time>2021-08-24T14:42:09Z</time>
      </trkpt>
      <trkpt lat="45.31598" lon="5.78433">
        <ele>989.4</ele>
        <time>2021-08-24T14:42:10Z</time>
      </trkpt>
      <trkpt lat="45.31596" lon="5.78435">
        <ele>989.6</ele>
        <time>2021-08-24T14:42:11Z</time>
      </trkpt>
      <trkpt lat="45.31593" lon="5.7844">
        <ele>989.9</ele>
        <time>2021-08-24T14:42:13Z</time>
      </trkpt>
      <trkpt lat="45.31592" lon="5.78441">
        <ele>990</ele>
        <time>2021-08-24T14:42:14Z</time>
      </trkpt>
      <trkpt lat="45.31591" lon="5.78442">
        <ele>990.1</ele>
        <time>2021-08-24T14:42:15Z</time>
      </trkpt>
      <trkpt lat="45.31589" lon="5.78444">
        <ele>990.2</ele>
        <time>2021-08-24T14:42:17Z</time>
      </trkpt>
      <trkpt lat="45.31588" lon="5.78445">
        <ele>990.3</ele>
        <time>2021-08-24T14:42:18Z</time>
      </trkpt>
      <trkpt lat="45.31585" lon="5.78446">
        <ele>990.5</ele>
        <time>2021-08-24T14:42:20Z</time>
      </trkpt>
      <trkpt lat="45.31584" lon="5.78447">
        <ele>990.6</ele>
        <time>2021-08-24T14:42:21Z</time>
      </trkpt>
      <trkpt lat="45.31581" lon="5.78447">
        <ele>990.8</ele>
        <time>2021-08-24T14:42:22Z</time>
      </trkpt>
      <trkpt lat="45.3158" lon="5.78447">
        <ele>990.9</ele>
        <time>2021-08-24T14:42:23Z</time>
      </trkpt>
      <trkpt lat="45.31577" lon="5.78446">
        <ele>991.2</ele>
        <time>2021-08-24T14:42:25Z</time>
      </trkpt>
      <trkpt lat="45.31573" lon="5.78445">
        <ele>991.4</ele>
        <time>2021-08-24T14:42:26Z</time>
      </trkpt>
      <trkpt lat="45.31569" lon="5.78443">
        <ele>991.8</ele>
        <time>2021-08-24T14:42:28Z</time>
      </trkpt>
      <trkpt lat="45.31567" lon="5.78442">
        <ele>992</ele>
        <time>2021-08-24T14:42:29Z</time>
      </trkpt>
      <trkpt lat="45.31564" lon="5.78441">
        <ele>992.2</ele>
        <time>2021-08-24T14:42:30Z</time>
      </trkpt>
      <trkpt lat="45.3156" lon="5.78439">
        <ele>992.5</ele>
        <time>2021-08-24T14:42:31Z</time>
      </trkpt>
      <trkpt lat="45.31559" lon="5.78438">
        <ele>992.6</ele>
        <time>2021-08-24T14:42:32Z</time>
      </trkpt>
      <trkpt lat="45.31557" lon="5.78436">
        <ele>992.8</ele>
        <time>2021-08-24T14:42:33Z</time>
      </trkpt>
      <trkpt lat="45.31554" lon="5.78434">
        <ele>993</ele>
        <time>2021-08-24T14:42:34Z</time>
      </trkpt>
      <trkpt lat="45.31552" lon="5.78433">
        <ele>993.1</ele>
        <time>2021-08-24T14:42:35Z</time>
      </trkpt>
      <trkpt lat="45.3155" lon="5.78431">
        <ele>993.4</ele>
        <time>2021-08-24T14:42:37Z</time>
      </trkpt>
      <trkpt lat="45.31549" lon="5.7843">
        <ele>993.4</ele>
        <time>2021-08-24T14:42:38Z</time>
      </trkpt>
      <trkpt lat="45.31546" lon="5.78429">
        <ele>993.7</ele>
        <time>2021-08-24T14:42:39Z</time>
      </trkpt>
      <trkpt lat="45.31543" lon="5.78428">
        <ele>993.9</ele>
        <time>2021-08-24T14:42:40Z</time>
      </trkpt>
      <trkpt lat="45.3154" lon="5.78426">
        <ele>994.1</ele>
        <time>2021-08-24T14:42:42Z</time>
      </trkpt>
      <trkpt lat="45.31537" lon="5.78425">
        <ele>994.4</ele>
        <time>2021-08-24T14:42:44Z</time>
      </trkpt>
      <trkpt lat="45.31534" lon="5.78422">
        <ele>994.6</ele>
        <time>2021-08-24T14:42:46Z</time>
      </trkpt>
      <trkpt lat="45.31533" lon="5.7842">
        <ele>994.8</ele>
        <time>2021-08-24T14:42:48Z</time>
      </trkpt>
      <trkpt lat="45.31531" lon="5.78418">
        <ele>994.9</ele>
        <time>2021-08-24T14:42:50Z</time>
      </trkpt>
      <trkpt lat="45.31529" lon="5.78416">
        <ele>995</ele>
        <time>2021-08-24T14:42:51Z</time>
      </trkpt>
      <trkpt lat="45.31529" lon="5.78416">
        <ele>995.1</ele>
        <time>2021-08-24T14:42:52Z</time>
      </trkpt>
      <trkpt lat="45.31528" lon="5.78416">
        <ele>995.2</ele>
        <time>2021-08-24T14:42:53Z</time>
      </trkpt>
      <trkpt lat="45.31525" lon="5.78415">
        <ele>995.4</ele>
        <time>2021-08-24T14:42:55Z</time>
      </trkpt>
      <trkpt lat="45.31524" lon="5.78414">
        <ele>995.4</ele>
        <time>2021-08-24T14:42:56Z</time>
      </trkpt>
      <trkpt lat="45.31522" lon="5.78413">
        <ele>995.6</ele>
        <time>2021-08-24T14:42:57Z</time>
      </trkpt>
      <trkpt lat="45.3152" lon="5.78412">
        <ele>995.8</ele>
        <time>2021-08-24T14:42:59Z</time>
      </trkpt>
      <trkpt lat="45.31519" lon="5.78411">
        <ele>995.9</ele>
        <time>2021-08-24T14:43:00Z</time>
      </trkpt>
      <trkpt lat="45.31517" lon="5.78409">
        <ele>996</ele>
        <time>2021-08-24T14:43:02Z</time>
      </trkpt>
      <trkpt lat="45.31515" lon="5.78407">
        <ele>996.2</ele>
        <time>2021-08-24T14:43:04Z</time>
      </trkpt>
      <trkpt lat="45.31512" lon="5.78405">
        <ele>996.4</ele>
        <time>2021-08-24T14:43:06Z</time>
      </trkpt>
      <trkpt lat="45.31509" lon="5.78402">
        <ele>996.7</ele>
        <time>2021-08-24T14:43:08Z</time>
      </trkpt>
      <trkpt lat="45.31508" lon="5.78401">
        <ele>996.8</ele>
        <time>2021-08-24T14:43:09Z</time>
      </trkpt>
      <trkpt lat="45.31507" lon="5.784">
        <ele>996.9</ele>
        <time>2021-08-24T14:43:10Z</time>
      </trkpt>
      <trkpt lat="45.31504" lon="5.78397">
        <ele>997.1</ele>
        <time>2021-08-24T14:43:12Z</time>
      </trkpt>
      <trkpt lat="45.31502" lon="5.78396">
        <ele>997.2</ele>
        <time>2021-08-24T14:43:13Z</time>
      </trkpt>
      <trkpt lat="45.315" lon="5.78394">
        <ele>997.4</ele>
        <time>2021-08-24T14:43:15Z</time>
      </trkpt>
      <trkpt lat="45.31498" lon="5.78394">
        <ele>997.5</ele>
        <time>2021-08-24T14:43:16Z</time>
      </trkpt>
      <trkpt lat="45.31498" lon="5.78394">
        <ele>997.5</ele>
        <time>2021-08-24T14:43:17Z</time>
      </trkpt>
      <trkpt lat="45.31498" lon="5.78393">
        <ele>997.6</ele>
        <time>2021-08-24T14:43:19Z</time>
      </trkpt>
      <trkpt lat="45.31496" lon="5.78392">
        <ele>997.7</ele>
        <time>2021-08-24T14:43:20Z</time>
      </trkpt>
      <trkpt lat="45.31495" lon="5.78391">
        <ele>997.8</ele>
        <time>2021-08-24T14:43:21Z</time>
      </trkpt>
      <trkpt lat="45.31493" lon="5.78389">
        <ele>998</ele>
        <time>2021-08-24T14:43:23Z</time>
      </trkpt>
      <trkpt lat="45.31491" lon="5.78389">
        <ele>998.1</ele>
        <time>2021-08-24T14:43:24Z</time>
      </trkpt>
      <trkpt lat="45.3149" lon="5.78388">
        <ele>998.2</ele>
        <time>2021-08-24T14:43:25Z</time>
      </trkpt>
      <trkpt lat="45.31488" lon="5.78386">
        <ele>998.4</ele>
        <time>2021-08-24T14:43:26Z</time>
      </trkpt>
      <trkpt lat="45.31485" lon="5.78385">
        <ele>998.6</ele>
        <time>2021-08-24T14:43:28Z</time>
      </trkpt>
      <trkpt lat="45.31484" lon="5.78385">
        <ele>998.6</ele>
        <time>2021-08-24T14:43:30Z</time>
      </trkpt>
      <trkpt lat="45.31484" lon="5.78385">
        <ele>998.7</ele>
        <time>2021-08-24T14:43:31Z</time>
      </trkpt>
      <trkpt lat="45.31484" lon="5.78385">
        <ele>998.7</ele>
        <time>2021-08-24T14:43:32Z</time>
      </trkpt>
      <trkpt lat="45.31482" lon="5.78384">
        <ele>998.8</ele>
        <time>2021-08-24T14:43:34Z</time>
      </trkpt>
      <trkpt lat="45.31481" lon="5.78384">
        <ele>998.8</ele>
        <time>2021-08-24T14:43:35Z</time>
      </trkpt>
      <trkpt lat="45.3148" lon="5.78383">
        <ele>998.9</ele>
        <time>2021-08-24T14:43:36Z</time>
      </trkpt>
      <trkpt lat="45.31477" lon="5.78376">
        <ele>999.3</ele>
        <time>2021-08-24T14:43:42Z</time>
      </trkpt>
      <trkpt lat="45.31476" lon="5.78372">
        <ele>999.6</ele>
        <time>2021-08-24T14:43:43Z</time>
      </trkpt>
      <trkpt lat="45.31476" lon="5.78368">
        <ele>999.7</ele>
        <time>2021-08-24T14:43:44Z</time>
      </trkpt>
      <trkpt lat="45.31473" lon="5.78361">
        <ele>1000.1</ele>
        <time>2021-08-24T14:43:46Z</time>
      </trkpt>
      <trkpt lat="45.31472" lon="5.78357">
        <ele>1000.3</ele>
        <time>2021-08-24T14:43:48Z</time>
      </trkpt>
      <trkpt lat="45.31471" lon="5.78353">
        <ele>1000.5</ele>
        <time>2021-08-24T14:43:49Z</time>
      </trkpt>
      <trkpt lat="45.3147" lon="5.78348">
        <ele>1000.8</ele>
        <time>2021-08-24T14:43:51Z</time>
      </trkpt>
      <trkpt lat="45.31469" lon="5.78344">
        <ele>1000.9</ele>
        <time>2021-08-24T14:43:52Z</time>
      </trkpt>
      <trkpt lat="45.31469" lon="5.78339">
        <ele>1001.2</ele>
        <time>2021-08-24T14:43:54Z</time>
      </trkpt>
      <trkpt lat="45.31469" lon="5.78332">
        <ele>1001.5</ele>
        <time>2021-08-24T14:43:56Z</time>
      </trkpt>
      <trkpt lat="45.31471" lon="5.78328">
        <ele>1001.7</ele>
        <time>2021-08-24T14:43:57Z</time>
      </trkpt>
      <trkpt lat="45.31472" lon="5.78321">
        <ele>1002</ele>
        <time>2021-08-24T14:43:59Z</time>
      </trkpt>
      <trkpt lat="45.31472" lon="5.78318">
        <ele>1002.1</ele>
        <time>2021-08-24T14:44:00Z</time>
      </trkpt>
      <trkpt lat="45.31472" lon="5.78314">
        <ele>1002.3</ele>
        <time>2021-08-24T14:44:02Z</time>
      </trkpt>
      <trkpt lat="45.31472" lon="5.7831">
        <ele>1002.5</ele>
        <time>2021-08-24T14:44:04Z</time>
      </trkpt>
      <trkpt lat="45.31471" lon="5.78308">
        <ele>1002.6</ele>
        <time>2021-08-24T14:44:05Z</time>
      </trkpt>
      <trkpt lat="45.31471" lon="5.78304">
        <ele>1002.8</ele>
        <time>2021-08-24T14:44:07Z</time>
      </trkpt>
      <trkpt lat="45.31472" lon="5.783">
        <ele>1003</ele>
        <time>2021-08-24T14:44:09Z</time>
      </trkpt>
      <trkpt lat="45.31472" lon="5.78298">
        <ele>1003.1</ele>
        <time>2021-08-24T14:44:10Z</time>
      </trkpt>
      <trkpt lat="45.31473" lon="5.78293">
        <ele>1003.3</ele>
        <time>2021-08-24T14:44:12Z</time>
      </trkpt>
      <trkpt lat="45.31474" lon="5.78288">
        <ele>1003.6</ele>
        <time>2021-08-24T14:44:14Z</time>
      </trkpt>
      <trkpt lat="45.31474" lon="5.78284">
        <ele>1003.8</ele>
        <time>2021-08-24T14:44:15Z</time>
      </trkpt>
      <trkpt lat="45.31474" lon="5.78282">
        <ele>1003.8</ele>
        <time>2021-08-24T14:44:16Z</time>
      </trkpt>
      <trkpt lat="45.31475" lon="5.7828">
        <ele>1003.9</ele>
        <time>2021-08-24T14:44:17Z</time>
      </trkpt>
      <trkpt lat="45.31475" lon="5.78278">
        <ele>1004</ele>
        <time>2021-08-24T14:44:18Z</time>
      </trkpt>
      <trkpt lat="45.31475" lon="5.78272">
        <ele>1004.3</ele>
        <time>2021-08-24T14:44:20Z</time>
      </trkpt>
      <trkpt lat="45.31475" lon="5.7827">
        <ele>1004.4</ele>
        <time>2021-08-24T14:44:22Z</time>
      </trkpt>
      <trkpt lat="45.31474" lon="5.78268">
        <ele>1004.5</ele>
        <time>2021-08-24T14:44:23Z</time>
      </trkpt>
      <trkpt lat="45.31473" lon="5.78265">
        <ele>1004.6</ele>
        <time>2021-08-24T14:44:24Z</time>
      </trkpt>
      <trkpt lat="45.31471" lon="5.78261">
        <ele>1004.9</ele>
        <time>2021-08-24T14:44:26Z</time>
      </trkpt>
      <trkpt lat="45.31468" lon="5.78257">
        <ele>1005.2</ele>
        <time>2021-08-24T14:44:28Z</time>
      </trkpt>
      <trkpt lat="45.31465" lon="5.78253">
        <ele>1005.5</ele>
        <time>2021-08-24T14:44:30Z</time>
      </trkpt>
      <trkpt lat="45.31462" lon="5.78249">
        <ele>1005.7</ele>
        <time>2021-08-24T14:44:31Z</time>
      </trkpt>
      <trkpt lat="45.31459" lon="5.78245">
        <ele>1006</ele>
        <time>2021-08-24T14:44:33Z</time>
      </trkpt>
      <trkpt lat="45.31459" lon="5.78243">
        <ele>1006.1</ele>
        <time>2021-08-24T14:44:34Z</time>
      </trkpt>
      <trkpt lat="45.31458" lon="5.78242">
        <ele>1006.2</ele>
        <time>2021-08-24T14:44:35Z</time>
      </trkpt>
      <trkpt lat="45.31456" lon="5.78238">
        <ele>1006.4</ele>
        <time>2021-08-24T14:44:37Z</time>
      </trkpt>
      <trkpt lat="45.31454" lon="5.78235">
        <ele>1006.7</ele>
        <time>2021-08-24T14:44:39Z</time>
      </trkpt>
      <trkpt lat="45.31452" lon="5.78231">
        <ele>1006.9</ele>
        <time>2021-08-24T14:44:41Z</time>
      </trkpt>
      <trkpt lat="45.31451" lon="5.78229">
        <ele>1007.1</ele>
        <time>2021-08-24T14:44:42Z</time>
      </trkpt>
      <trkpt lat="45.31451" lon="5.78227">
        <ele>1007.2</ele>
        <time>2021-08-24T14:44:43Z</time>
      </trkpt>
      <trkpt lat="45.31451" lon="5.78225">
        <ele>1007.3</ele>
        <time>2021-08-24T14:44:44Z</time>
      </trkpt>
      <trkpt lat="45.31451" lon="5.78223">
        <ele>1007.4</ele>
        <time>2021-08-24T14:44:45Z</time>
      </trkpt>
      <trkpt lat="45.31451" lon="5.7822">
        <ele>1007.6</ele>
        <time>2021-08-24T14:44:47Z</time>
      </trkpt>
      <trkpt lat="45.31451" lon="5.78218">
        <ele>1007.7</ele>
        <time>2021-08-24T14:44:48Z</time>
      </trkpt>
      <trkpt lat="45.31451" lon="5.78214">
        <ele>1008</ele>
        <time>2021-08-24T14:44:50Z</time>
      </trkpt>
      <trkpt lat="45.31452" lon="5.7821">
        <ele>1008.2</ele>
        <time>2021-08-24T14:44:52Z</time>
      </trkpt>
      <trkpt lat="45.31452" lon="5.78205">
        <ele>1008.4</ele>
        <time>2021-08-24T14:44:54Z</time>
      </trkpt>
      <trkpt lat="45.31451" lon="5.78201">
        <ele>1008.6</ele>
        <time>2021-08-24T14:44:55Z</time>
      </trkpt>
      <trkpt lat="45.31451" lon="5.78197">
        <ele>1008.9</ele>
        <time>2021-08-24T14:44:56Z</time>
      </trkpt>
      <trkpt lat="45.3145" lon="5.78195">
        <ele>1009</ele>
        <time>2021-08-24T14:44:57Z</time>
      </trkpt>
      <trkpt lat="45.3145" lon="5.78188">
        <ele>1009.4</ele>
        <time>2021-08-24T14:44:59Z</time>
      </trkpt>
      <trkpt lat="45.31451" lon="5.78185">
        <ele>1009.5</ele>
        <time>2021-08-24T14:45:01Z</time>
      </trkpt>
      <trkpt lat="45.31451" lon="5.78182">
        <ele>1009.7</ele>
        <time>2021-08-24T14:45:02Z</time>
      </trkpt>
      <trkpt lat="45.31451" lon="5.78179">
        <ele>1009.8</ele>
        <time>2021-08-24T14:45:03Z</time>
      </trkpt>
      <trkpt lat="45.31452" lon="5.78174">
        <ele>1010</ele>
        <time>2021-08-24T14:45:05Z</time>
      </trkpt>
      <trkpt lat="45.31452" lon="5.78169">
        <ele>1010.3</ele>
        <time>2021-08-24T14:45:07Z</time>
      </trkpt>
      <trkpt lat="45.31453" lon="5.78162">
        <ele>1010.6</ele>
        <time>2021-08-24T14:45:09Z</time>
      </trkpt>
      <trkpt lat="45.31454" lon="5.78156">
        <ele>1010.9</ele>
        <time>2021-08-24T14:45:11Z</time>
      </trkpt>
      <trkpt lat="45.31455" lon="5.78152">
        <ele>1011.1</ele>
        <time>2021-08-24T14:45:12Z</time>
      </trkpt>
      <trkpt lat="45.31456" lon="5.78149">
        <ele>1011.3</ele>
        <time>2021-08-24T14:45:13Z</time>
      </trkpt>
      <trkpt lat="45.31456" lon="5.78144">
        <ele>1011.5</ele>
        <time>2021-08-24T14:45:15Z</time>
      </trkpt>
      <trkpt lat="45.31457" lon="5.78138">
        <ele>1011.8</ele>
        <time>2021-08-24T14:45:17Z</time>
      </trkpt>
      <trkpt lat="45.31457" lon="5.78136">
        <ele>1011.9</ele>
        <time>2021-08-24T14:45:19Z</time>
      </trkpt>
      <trkpt lat="45.31457" lon="5.78134">
        <ele>1012</ele>
        <time>2021-08-24T14:45:20Z</time>
      </trkpt>
      <trkpt lat="45.31457" lon="5.78131">
        <ele>1012.1</ele>
        <time>2021-08-24T14:45:21Z</time>
      </trkpt>
      <trkpt lat="45.31457" lon="5.78128">
        <ele>1012.3</ele>
        <time>2021-08-24T14:45:23Z</time>
      </trkpt>
      <trkpt lat="45.31457" lon="5.78126">
        <ele>1012.4</ele>
        <time>2021-08-24T14:45:24Z</time>
      </trkpt>
      <trkpt lat="45.31456" lon="5.78123">
        <ele>1012.5</ele>
        <time>2021-08-24T14:45:26Z</time>
      </trkpt>
      <trkpt lat="45.31455" lon="5.78119">
        <ele>1012.7</ele>
        <time>2021-08-24T14:45:28Z</time>
      </trkpt>
      <trkpt lat="45.31453" lon="5.78115">
        <ele>1012.9</ele>
        <time>2021-08-24T14:45:30Z</time>
      </trkpt>
      <trkpt lat="45.31451" lon="5.78112">
        <ele>1013.2</ele>
        <time>2021-08-24T14:45:32Z</time>
      </trkpt>
      <trkpt lat="45.31449" lon="5.78109">
        <ele>1013.4</ele>
        <time>2021-08-24T14:45:34Z</time>
      </trkpt>
      <trkpt lat="45.31448" lon="5.78106">
        <ele>1013.5</ele>
        <time>2021-08-24T14:45:35Z</time>
      </trkpt>
      <trkpt lat="45.31448" lon="5.78105">
        <ele>1013.6</ele>
        <time>2021-08-24T14:45:36Z</time>
      </trkpt>
      <trkpt lat="45.31446" lon="5.78103">
        <ele>1013.7</ele>
        <time>2021-08-24T14:45:37Z</time>
      </trkpt>
      <trkpt lat="45.31444" lon="5.781">
        <ele>1013.9</ele>
        <time>2021-08-24T14:45:39Z</time>
      </trkpt>
      <trkpt lat="45.31442" lon="5.78097">
        <ele>1014.1</ele>
        <time>2021-08-24T14:45:40Z</time>
      </trkpt>
      <trkpt lat="45.31442" lon="5.78094">
        <ele>1014.3</ele>
        <time>2021-08-24T14:45:42Z</time>
      </trkpt>
      <trkpt lat="45.3144" lon="5.78088">
        <ele>1014.6</ele>
        <time>2021-08-24T14:45:44Z</time>
      </trkpt>
      <trkpt lat="45.3144" lon="5.78086">
        <ele>1014.7</ele>
        <time>2021-08-24T14:45:45Z</time>
      </trkpt>
      <trkpt lat="45.31439" lon="5.78085">
        <ele>1014.8</ele>
        <time>2021-08-24T14:45:46Z</time>
      </trkpt>
      <trkpt lat="45.31439" lon="5.78081">
        <ele>1015</ele>
        <time>2021-08-24T14:45:47Z</time>
      </trkpt>
      <trkpt lat="45.31439" lon="5.7808">
        <ele>1015</ele>
        <time>2021-08-24T14:45:48Z</time>
      </trkpt>
      <trkpt lat="45.31438" lon="5.78077">
        <ele>1015.2</ele>
        <time>2021-08-24T14:45:49Z</time>
      </trkpt>
      <trkpt lat="45.31438" lon="5.78075">
        <ele>1015.3</ele>
        <time>2021-08-24T14:45:50Z</time>
      </trkpt>
      <trkpt lat="45.31436" lon="5.7807">
        <ele>1015.5</ele>
        <time>2021-08-24T14:45:52Z</time>
      </trkpt>
      <trkpt lat="45.31433" lon="5.78068">
        <ele>1015.8</ele>
        <time>2021-08-24T14:45:54Z</time>
      </trkpt>
      <trkpt lat="45.3143" lon="5.78066">
        <ele>1016</ele>
        <time>2021-08-24T14:45:55Z</time>
      </trkpt>
      <trkpt lat="45.31427" lon="5.78064">
        <ele>1016.2</ele>
        <time>2021-08-24T14:45:56Z</time>
      </trkpt>
      <trkpt lat="45.31426" lon="5.78064">
        <ele>1016.3</ele>
        <time>2021-08-24T14:45:57Z</time>
      </trkpt>
      <trkpt lat="45.31423" lon="5.78061">
        <ele>1016.6</ele>
        <time>2021-08-24T14:45:59Z</time>
      </trkpt>
      <trkpt lat="45.3142" lon="5.78057">
        <ele>1016.8</ele>
        <time>2021-08-24T14:46:01Z</time>
      </trkpt>
      <trkpt lat="45.31418" lon="5.78054">
        <ele>1017</ele>
        <time>2021-08-24T14:46:03Z</time>
      </trkpt>
      <trkpt lat="45.31415" lon="5.78052">
        <ele>1017.3</ele>
        <time>2021-08-24T14:46:05Z</time>
      </trkpt>
      <trkpt lat="45.31413" lon="5.7805">
        <ele>1017.5</ele>
        <time>2021-08-24T14:46:06Z</time>
      </trkpt>
      <trkpt lat="45.31412" lon="5.78049">
        <ele>1017.6</ele>
        <time>2021-08-24T14:46:07Z</time>
      </trkpt>
      <trkpt lat="45.31411" lon="5.78048">
        <ele>1017.7</ele>
        <time>2021-08-24T14:46:08Z</time>
      </trkpt>
      <trkpt lat="45.3141" lon="5.78046">
        <ele>1017.8</ele>
        <time>2021-08-24T14:46:09Z</time>
      </trkpt>
      <trkpt lat="45.31408" lon="5.78043">
        <ele>1018</ele>
        <time>2021-08-24T14:46:11Z</time>
      </trkpt>
      <trkpt lat="45.31408" lon="5.78041">
        <ele>1018.1</ele>
        <time>2021-08-24T14:46:12Z</time>
      </trkpt>
      <trkpt lat="45.31406" lon="5.78038">
        <ele>1018.3</ele>
        <time>2021-08-24T14:46:14Z</time>
      </trkpt>
      <trkpt lat="45.31404" lon="5.78034">
        <ele>1018.6</ele>
        <time>2021-08-24T14:46:16Z</time>
      </trkpt>
      <trkpt lat="45.31402" lon="5.7803">
        <ele>1018.8</ele>
        <time>2021-08-24T14:46:18Z</time>
      </trkpt>
      <trkpt lat="45.31399" lon="5.78026">
        <ele>1019.1</ele>
        <time>2021-08-24T14:46:20Z</time>
      </trkpt>
      <trkpt lat="45.31398" lon="5.78023">
        <ele>1019.3</ele>
        <time>2021-08-24T14:46:21Z</time>
      </trkpt>
      <trkpt lat="45.31396" lon="5.78019">
        <ele>1019.5</ele>
        <time>2021-08-24T14:46:23Z</time>
      </trkpt>
      <trkpt lat="45.31393" lon="5.78016">
        <ele>1019.8</ele>
        <time>2021-08-24T14:46:25Z</time>
      </trkpt>
      <trkpt lat="45.31392" lon="5.78014">
        <ele>1019.9</ele>
        <time>2021-08-24T14:46:26Z</time>
      </trkpt>
      <trkpt lat="45.3139" lon="5.78011">
        <ele>1020.1</ele>
        <time>2021-08-24T14:46:28Z</time>
      </trkpt>
      <trkpt lat="45.31389" lon="5.78007">
        <ele>1020.3</ele>
        <time>2021-08-24T14:46:30Z</time>
      </trkpt>
      <trkpt lat="45.31388" lon="5.78004">
        <ele>1020.5</ele>
        <time>2021-08-24T14:46:32Z</time>
      </trkpt>
      <trkpt lat="45.31387" lon="5.78001">
        <ele>1020.6</ele>
        <time>2021-08-24T14:46:33Z</time>
      </trkpt>
      <trkpt lat="45.31387" lon="5.77999">
        <ele>1020.7</ele>
        <time>2021-08-24T14:46:34Z</time>
      </trkpt>
      <trkpt lat="45.31386" lon="5.77996">
        <ele>1020.9</ele>
        <time>2021-08-24T14:46:36Z</time>
      </trkpt>
      <trkpt lat="45.31385" lon="5.77993">
        <ele>1021.1</ele>
        <time>2021-08-24T14:46:38Z</time>
      </trkpt>
      <trkpt lat="45.31384" lon="5.77991">
        <ele>1021.2</ele>
        <time>2021-08-24T14:46:39Z</time>
      </trkpt>
      <trkpt lat="45.31383" lon="5.77987">
        <ele>1021.4</ele>
        <time>2021-08-24T14:46:41Z</time>
      </trkpt>
      <trkpt lat="45.31382" lon="5.77983">
        <ele>1021.6</ele>
        <time>2021-08-24T14:46:43Z</time>
      </trkpt>
      <trkpt lat="45.31382" lon="5.7798">
        <ele>1021.8</ele>
        <time>2021-08-24T14:46:44Z</time>
      </trkpt>
      <trkpt lat="45.3138" lon="5.77977">
        <ele>1022</ele>
        <time>2021-08-24T14:46:46Z</time>
      </trkpt>
      <trkpt lat="45.31378" lon="5.77975">
        <ele>1022.2</ele>
        <time>2021-08-24T14:46:47Z</time>
      </trkpt>
      <trkpt lat="45.31377" lon="5.77975">
        <ele>1022.3</ele>
        <time>2021-08-24T14:46:48Z</time>
      </trkpt>
      <trkpt lat="45.31375" lon="5.77972">
        <ele>1022.5</ele>
        <time>2021-08-24T14:46:49Z</time>
      </trkpt>
      <trkpt lat="45.31374" lon="5.77971">
        <ele>1022.5</ele>
        <time>2021-08-24T14:46:50Z</time>
      </trkpt>
      <trkpt lat="45.31371" lon="5.77968">
        <ele>1022.8</ele>
        <time>2021-08-24T14:46:52Z</time>
      </trkpt>
      <trkpt lat="45.31369" lon="5.77965">
        <ele>1023</ele>
        <time>2021-08-24T14:46:54Z</time>
      </trkpt>
      <trkpt lat="45.31367" lon="5.77961">
        <ele>1023.3</ele>
        <time>2021-08-24T14:46:56Z</time>
      </trkpt>
      <trkpt lat="45.31365" lon="5.77958">
        <ele>1023.5</ele>
        <time>2021-08-24T14:46:58Z</time>
      </trkpt>
      <trkpt lat="45.31365" lon="5.77955">
        <ele>1023.6</ele>
        <time>2021-08-24T14:46:59Z</time>
      </trkpt>
      <trkpt lat="45.31364" lon="5.77954">
        <ele>1023.7</ele>
        <time>2021-08-24T14:47:00Z</time>
      </trkpt>
      <trkpt lat="45.31361" lon="5.77951">
        <ele>1024</ele>
        <time>2021-08-24T14:47:02Z</time>
      </trkpt>
      <trkpt lat="45.31361" lon="5.7795">
        <ele>1024</ele>
        <time>2021-08-24T14:47:03Z</time>
      </trkpt>
      <trkpt lat="45.3136" lon="5.77948">
        <ele>1024.1</ele>
        <time>2021-08-24T14:47:04Z</time>
      </trkpt>
      <trkpt lat="45.3136" lon="5.77945">
        <ele>1024.3</ele>
        <time>2021-08-24T14:47:05Z</time>
      </trkpt>
      <trkpt lat="45.31359" lon="5.77942">
        <ele>1024.5</ele>
        <time>2021-08-24T14:47:06Z</time>
      </trkpt>
      <trkpt lat="45.31356" lon="5.77939">
        <ele>1024.7</ele>
        <time>2021-08-24T14:47:08Z</time>
      </trkpt>
      <trkpt lat="45.31354" lon="5.77936">
        <ele>1024.9</ele>
        <time>2021-08-24T14:47:09Z</time>
      </trkpt>
      <trkpt lat="45.31351" lon="5.77932">
        <ele>1025.3</ele>
        <time>2021-08-24T14:47:11Z</time>
      </trkpt>
      <trkpt lat="45.31349" lon="5.77931">
        <ele>1025.4</ele>
        <time>2021-08-24T14:47:12Z</time>
      </trkpt>
      <trkpt lat="45.31348" lon="5.77929">
        <ele>1025.5</ele>
        <time>2021-08-24T14:47:13Z</time>
      </trkpt>
      <trkpt lat="45.31345" lon="5.77927">
        <ele>1025.8</ele>
        <time>2021-08-24T14:47:15Z</time>
      </trkpt>
      <trkpt lat="45.31343" lon="5.77924">
        <ele>1025.9</ele>
        <time>2021-08-24T14:47:16Z</time>
      </trkpt>
      <trkpt lat="45.31341" lon="5.77921">
        <ele>1026.2</ele>
        <time>2021-08-24T14:47:18Z</time>
      </trkpt>
      <trkpt lat="45.31338" lon="5.77918">
        <ele>1026.5</ele>
        <time>2021-08-24T14:47:20Z</time>
      </trkpt>
      <trkpt lat="45.31335" lon="5.77914">
        <ele>1026.8</ele>
        <time>2021-08-24T14:47:22Z</time>
      </trkpt>
      <trkpt lat="45.31331" lon="5.7791">
        <ele>1027.2</ele>
        <time>2021-08-24T14:47:24Z</time>
      </trkpt>
      <trkpt lat="45.31329" lon="5.77908">
        <ele>1027.3</ele>
        <time>2021-08-24T14:47:26Z</time>
      </trkpt>
      <trkpt lat="45.31328" lon="5.77907">
        <ele>1027.5</ele>
        <time>2021-08-24T14:47:27Z</time>
      </trkpt>
      <trkpt lat="45.31327" lon="5.77905">
        <ele>1027.6</ele>
        <time>2021-08-24T14:47:28Z</time>
      </trkpt>
      <trkpt lat="45.31324" lon="5.77903">
        <ele>1027.9</ele>
        <time>2021-08-24T14:47:30Z</time>
      </trkpt>
      <trkpt lat="45.31323" lon="5.77903">
        <ele>1028</ele>
        <time>2021-08-24T14:47:31Z</time>
      </trkpt>
      <trkpt lat="45.3132" lon="5.77901">
        <ele>1028.2</ele>
        <time>2021-08-24T14:47:33Z</time>
      </trkpt>
      <trkpt lat="45.31319" lon="5.779">
        <ele>1028.3</ele>
        <time>2021-08-24T14:47:34Z</time>
      </trkpt>
      <trkpt lat="45.31318" lon="5.77899">
        <ele>1028.4</ele>
        <time>2021-08-24T14:47:35Z</time>
      </trkpt>
      <trkpt lat="45.31317" lon="5.77897">
        <ele>1028.6</ele>
        <time>2021-08-24T14:47:36Z</time>
      </trkpt>
      <trkpt lat="45.31314" lon="5.77894">
        <ele>1028.9</ele>
        <time>2021-08-24T14:47:38Z</time>
      </trkpt>
      <trkpt lat="45.31313" lon="5.77891">
        <ele>1029.1</ele>
        <time>2021-08-24T14:47:39Z</time>
      </trkpt>
      <trkpt lat="45.31311" lon="5.77888">
        <ele>1029.4</ele>
        <time>2021-08-24T14:47:41Z</time>
      </trkpt>
      <trkpt lat="45.31308" lon="5.77882">
        <ele>1029.8</ele>
        <time>2021-08-24T14:47:43Z</time>
      </trkpt>
      <trkpt lat="45.31308" lon="5.7788">
        <ele>1029.9</ele>
        <time>2021-08-24T14:47:44Z</time>
      </trkpt>
      <trkpt lat="45.31307" lon="5.77878">
        <ele>1030.1</ele>
        <time>2021-08-24T14:47:45Z</time>
      </trkpt>
      <trkpt lat="45.31306" lon="5.77875">
        <ele>1030.3</ele>
        <time>2021-08-24T14:47:46Z</time>
      </trkpt>
      <trkpt lat="45.31304" lon="5.77873">
        <ele>1030.5</ele>
        <time>2021-08-24T14:47:48Z</time>
      </trkpt>
      <trkpt lat="45.31302" lon="5.7787">
        <ele>1030.7</ele>
        <time>2021-08-24T14:47:50Z</time>
      </trkpt>
      <trkpt lat="45.31301" lon="5.77869">
        <ele>1030.8</ele>
        <time>2021-08-24T14:47:51Z</time>
      </trkpt>
      <trkpt lat="45.313" lon="5.77868">
        <ele>1031</ele>
        <time>2021-08-24T14:47:52Z</time>
      </trkpt>
      <trkpt lat="45.31298" lon="5.77866">
        <ele>1031.2</ele>
        <time>2021-08-24T14:47:53Z</time>
      </trkpt>
      <trkpt lat="45.31298" lon="5.77865">
        <ele>1031.2</ele>
        <time>2021-08-24T14:47:54Z</time>
      </trkpt>
      <trkpt lat="45.31297" lon="5.77864">
        <ele>1031.3</ele>
        <time>2021-08-24T14:47:55Z</time>
      </trkpt>
      <trkpt lat="45.31295" lon="5.77861">
        <ele>1031.6</ele>
        <time>2021-08-24T14:47:57Z</time>
      </trkpt>
      <trkpt lat="45.31294" lon="5.7786">
        <ele>1031.6</ele>
        <time>2021-08-24T14:47:59Z</time>
      </trkpt>
      <trkpt lat="45.31293" lon="5.77859">
        <ele>1031.7</ele>
        <time>2021-08-24T14:48:00Z</time>
      </trkpt>
      <trkpt lat="45.31293" lon="5.77859">
        <ele>1031.8</ele>
        <time>2021-08-24T14:48:01Z</time>
      </trkpt>
      <trkpt lat="45.31292" lon="5.77858">
        <ele>1031.9</ele>
        <time>2021-08-24T14:48:02Z</time>
      </trkpt>
      <trkpt lat="45.3129" lon="5.77857">
        <ele>1032.1</ele>
        <time>2021-08-24T14:48:04Z</time>
      </trkpt>
      <trkpt lat="45.31289" lon="5.77857">
        <ele>1032.1</ele>
        <time>2021-08-24T14:48:05Z</time>
      </trkpt>
      <trkpt lat="45.31288" lon="5.77856">
        <ele>1032.2</ele>
        <time>2021-08-24T14:48:06Z</time>
      </trkpt>
      <trkpt lat="45.31287" lon="5.77855">
        <ele>1032.3</ele>
        <time>2021-08-24T14:48:07Z</time>
      </trkpt>
      <trkpt lat="45.31286" lon="5.77853">
        <ele>1032.5</ele>
        <time>2021-08-24T14:48:09Z</time>
      </trkpt>
      <trkpt lat="45.31285" lon="5.77852">
        <ele>1032.6</ele>
        <time>2021-08-24T14:48:10Z</time>
      </trkpt>
      <trkpt lat="45.31284" lon="5.7785">
        <ele>1032.7</ele>
        <time>2021-08-24T14:48:11Z</time>
      </trkpt>
      <trkpt lat="45.31283" lon="5.77849">
        <ele>1032.8</ele>
        <time>2021-08-24T14:48:12Z</time>
      </trkpt>
      <trkpt lat="45.31282" lon="5.77847">
        <ele>1033</ele>
        <time>2021-08-24T14:48:14Z</time>
      </trkpt>
      <trkpt lat="45.31283" lon="5.77845">
        <ele>1033.2</ele>
        <time>2021-08-24T14:48:15Z</time>
      </trkpt>
      <trkpt lat="45.31282" lon="5.77843">
        <ele>1033.3</ele>
        <time>2021-08-24T14:48:16Z</time>
      </trkpt>
      <trkpt lat="45.31281" lon="5.77843">
        <ele>1033.4</ele>
        <time>2021-08-24T14:48:17Z</time>
      </trkpt>
      <trkpt lat="45.3128" lon="5.77842">
        <ele>1033.5</ele>
        <time>2021-08-24T14:48:18Z</time>
      </trkpt>
      <trkpt lat="45.31279" lon="5.77842">
        <ele>1033.6</ele>
        <time>2021-08-24T14:48:20Z</time>
      </trkpt>
      <trkpt lat="45.31277" lon="5.77842">
        <ele>1033.8</ele>
        <time>2021-08-24T14:48:21Z</time>
      </trkpt>
      <trkpt lat="45.31276" lon="5.77842">
        <ele>1033.9</ele>
        <time>2021-08-24T14:48:22Z</time>
      </trkpt>
      <trkpt lat="45.31275" lon="5.77843">
        <ele>1034</ele>
        <time>2021-08-24T14:48:23Z</time>
      </trkpt>
      <trkpt lat="45.31274" lon="5.77843">
        <ele>1034</ele>
        <time>2021-08-24T14:48:24Z</time>
      </trkpt>
      <trkpt lat="45.31273" lon="5.77844">
        <ele>1034.2</ele>
        <time>2021-08-24T14:48:25Z</time>
      </trkpt>
      <trkpt lat="45.31271" lon="5.77845">
        <ele>1034.3</ele>
        <time>2021-08-24T14:48:27Z</time>
      </trkpt>
      <trkpt lat="45.3127" lon="5.77845">
        <ele>1034.5</ele>
        <time>2021-08-24T14:48:28Z</time>
      </trkpt>
      <trkpt lat="45.31269" lon="5.77845">
        <ele>1034.5</ele>
        <time>2021-08-24T14:48:29Z</time>
      </trkpt>
      <trkpt lat="45.31268" lon="5.77845">
        <ele>1034.6</ele>
        <time>2021-08-24T14:48:30Z</time>
      </trkpt>
      <trkpt lat="45.31267" lon="5.77844">
        <ele>1034.7</ele>
        <time>2021-08-24T14:48:31Z</time>
      </trkpt>
      <trkpt lat="45.31264" lon="5.77842">
        <ele>1034.9</ele>
        <time>2021-08-24T14:48:33Z</time>
      </trkpt>
      <trkpt lat="45.31262" lon="5.77841">
        <ele>1035.1</ele>
        <time>2021-08-24T14:48:35Z</time>
      </trkpt>
      <trkpt lat="45.3126" lon="5.77839">
        <ele>1035.4</ele>
        <time>2021-08-24T14:48:37Z</time>
      </trkpt>
      <trkpt lat="45.31257" lon="5.77837">
        <ele>1035.6</ele>
        <time>2021-08-24T14:48:39Z</time>
      </trkpt>
      <trkpt lat="45.31256" lon="5.77837">
        <ele>1035.7</ele>
        <time>2021-08-24T14:48:40Z</time>
      </trkpt>
      <trkpt lat="45.31256" lon="5.77836">
        <ele>1035.8</ele>
        <time>2021-08-24T14:48:41Z</time>
      </trkpt>
      <trkpt lat="45.31255" lon="5.77834">
        <ele>1035.9</ele>
        <time>2021-08-24T14:48:42Z</time>
      </trkpt>
      <trkpt lat="45.31253" lon="5.77831">
        <ele>1036.1</ele>
        <time>2021-08-24T14:48:44Z</time>
      </trkpt>
      <trkpt lat="45.31252" lon="5.7783">
        <ele>1036.2</ele>
        <time>2021-08-24T14:48:45Z</time>
      </trkpt>
      <trkpt lat="45.3125" lon="5.77828">
        <ele>1036.4</ele>
        <time>2021-08-24T14:48:47Z</time>
      </trkpt>
      <trkpt lat="45.31247" lon="5.77824">
        <ele>1036.8</ele>
        <time>2021-08-24T14:48:49Z</time>
      </trkpt>
      <trkpt lat="45.31246" lon="5.77822">
        <ele>1036.9</ele>
        <time>2021-08-24T14:48:51Z</time>
      </trkpt>
      <trkpt lat="45.31245" lon="5.77821">
        <ele>1037</ele>
        <time>2021-08-24T14:48:52Z</time>
      </trkpt>
      <trkpt lat="45.31242" lon="5.77818">
        <ele>1037.3</ele>
        <time>2021-08-24T14:48:54Z</time>
      </trkpt>
      <trkpt lat="45.31241" lon="5.77817">
        <ele>1037.4</ele>
        <time>2021-08-24T14:48:55Z</time>
      </trkpt>
      <trkpt lat="45.3124" lon="5.77816">
        <ele>1037.6</ele>
        <time>2021-08-24T14:48:56Z</time>
      </trkpt>
      <trkpt lat="45.31239" lon="5.77814">
        <ele>1037.7</ele>
        <time>2021-08-24T14:48:57Z</time>
      </trkpt>
      <trkpt lat="45.31236" lon="5.77811">
        <ele>1038</ele>
        <time>2021-08-24T14:48:59Z</time>
      </trkpt>
      <trkpt lat="45.31235" lon="5.7781">
        <ele>1038.1</ele>
        <time>2021-08-24T14:49:00Z</time>
      </trkpt>
      <trkpt lat="45.31234" lon="5.77808">
        <ele>1038.3</ele>
        <time>2021-08-24T14:49:01Z</time>
      </trkpt>
      <trkpt lat="45.31234" lon="5.77806">
        <ele>1038.4</ele>
        <time>2021-08-24T14:49:02Z</time>
      </trkpt>
      <trkpt lat="45.31234" lon="5.77805">
        <ele>1038.5</ele>
        <time>2021-08-24T14:49:03Z</time>
      </trkpt>
      <trkpt lat="45.31234" lon="5.77804">
        <ele>1038.6</ele>
        <time>2021-08-24T14:49:05Z</time>
      </trkpt>
      <trkpt lat="45.31234" lon="5.77803">
        <ele>1038.6</ele>
        <time>2021-08-24T14:49:06Z</time>
      </trkpt>
      <trkpt lat="45.31234" lon="5.77802">
        <ele>1038.7</ele>
        <time>2021-08-24T14:49:07Z</time>
      </trkpt>
      <trkpt lat="45.31234" lon="5.77802">
        <ele>1038.7</ele>
        <time>2021-08-24T14:49:09Z</time>
      </trkpt>
      <trkpt lat="45.31234" lon="5.77801">
        <ele>1038.8</ele>
        <time>2021-08-24T14:49:11Z</time>
      </trkpt>
      <trkpt lat="45.31233" lon="5.77801">
        <ele>1038.8</ele>
        <time>2021-08-24T14:49:13Z</time>
      </trkpt>
      <trkpt lat="45.31233" lon="5.778">
        <ele>1038.9</ele>
        <time>2021-08-24T14:49:15Z</time>
      </trkpt>
      <trkpt lat="45.31231" lon="5.77798">
        <ele>1039.1</ele>
        <time>2021-08-24T14:49:17Z</time>
      </trkpt>
      <trkpt lat="45.3123" lon="5.77797">
        <ele>1039.2</ele>
        <time>2021-08-24T14:49:19Z</time>
      </trkpt>
      <trkpt lat="45.31228" lon="5.77795">
        <ele>1039.5</ele>
        <time>2021-08-24T14:49:20Z</time>
      </trkpt>
      <trkpt lat="45.31223" lon="5.77791">
        <ele>1039.9</ele>
        <time>2021-08-24T14:49:22Z</time>
      </trkpt>
      <trkpt lat="45.31219" lon="5.77788">
        <ele>1040.3</ele>
        <time>2021-08-24T14:49:24Z</time>
      </trkpt>
      <trkpt lat="45.31217" lon="5.77784">
        <ele>1040.6</ele>
        <time>2021-08-24T14:49:25Z</time>
      </trkpt>
      <trkpt lat="45.31216" lon="5.77782">
        <ele>1040.8</ele>
        <time>2021-08-24T14:49:26Z</time>
      </trkpt>
      <trkpt lat="45.31214" lon="5.77779">
        <ele>1041.1</ele>
        <time>2021-08-24T14:49:28Z</time>
      </trkpt>
      <trkpt lat="45.31212" lon="5.77775">
        <ele>1041.4</ele>
        <time>2021-08-24T14:49:29Z</time>
      </trkpt>
      <trkpt lat="45.31211" lon="5.77773">
        <ele>1041.6</ele>
        <time>2021-08-24T14:49:30Z</time>
      </trkpt>
      <trkpt lat="45.31209" lon="5.7777">
        <ele>1041.8</ele>
        <time>2021-08-24T14:49:32Z</time>
      </trkpt>
      <trkpt lat="45.31206" lon="5.77767">
        <ele>1042.1</ele>
        <time>2021-08-24T14:49:33Z</time>
      </trkpt>
      <trkpt lat="45.31206" lon="5.77766">
        <ele>1042.2</ele>
        <time>2021-08-24T14:49:34Z</time>
      </trkpt>
      <trkpt lat="45.31205" lon="5.77764">
        <ele>1042.3</ele>
        <time>2021-08-24T14:49:35Z</time>
      </trkpt>
      <trkpt lat="45.31204" lon="5.77762">
        <ele>1042.5</ele>
        <time>2021-08-24T14:49:36Z</time>
      </trkpt>
      <trkpt lat="45.31202" lon="5.77759">
        <ele>1042.8</ele>
        <time>2021-08-24T14:49:38Z</time>
      </trkpt>
      <trkpt lat="45.312" lon="5.77757">
        <ele>1043</ele>
        <time>2021-08-24T14:49:39Z</time>
      </trkpt>
      <trkpt lat="45.31197" lon="5.77755">
        <ele>1043.3</ele>
        <time>2021-08-24T14:49:41Z</time>
      </trkpt>
      <trkpt lat="45.31194" lon="5.77753">
        <ele>1043.7</ele>
        <time>2021-08-24T14:49:43Z</time>
      </trkpt>
      <trkpt lat="45.31191" lon="5.77752">
        <ele>1043.9</ele>
        <time>2021-08-24T14:49:44Z</time>
      </trkpt>
      <trkpt lat="45.31188" lon="5.7775">
        <ele>1044.2</ele>
        <time>2021-08-24T14:49:46Z</time>
      </trkpt>
      <trkpt lat="45.31186" lon="5.77749">
        <ele>1044.5</ele>
        <time>2021-08-24T14:49:47Z</time>
      </trkpt>
      <trkpt lat="45.31183" lon="5.77748">
        <ele>1044.7</ele>
        <time>2021-08-24T14:49:49Z</time>
      </trkpt>
      <trkpt lat="45.31183" lon="5.7775">
        <ele>1044.7</ele>
        <time>2021-08-24T14:49:50Z</time>
      </trkpt>
      <trkpt lat="45.31183" lon="5.7775">
        <ele>1044.8</ele>
        <time>2021-08-24T14:49:51Z</time>
      </trkpt>
      <trkpt lat="45.31183" lon="5.7775">
        <ele>1044.8</ele>
        <time>2021-08-24T14:49:53Z</time>
      </trkpt>
      <trkpt lat="45.31183" lon="5.7775">
        <ele>1044.8</ele>
        <time>2021-08-24T14:49:54Z</time>
      </trkpt>
      <trkpt lat="45.31182" lon="5.7775">
        <ele>1044.8</ele>
        <time>2021-08-24T14:49:55Z</time>
      </trkpt>
      <trkpt lat="45.31182" lon="5.7775">
        <ele>1044.9</ele>
        <time>2021-08-24T14:49:57Z</time>
      </trkpt>
      <trkpt lat="45.31166" lon="5.7771">
        <ele>1047.7</ele>
        <time>2021-08-24T14:50:25Z</time>
      </trkpt>
      <trkpt lat="45.31166" lon="5.77706">
        <ele>1047.9</ele>
        <time>2021-08-24T14:50:26Z</time>
      </trkpt>
      <trkpt lat="45.31166" lon="5.77698">
        <ele>1048.4</ele>
        <time>2021-08-24T14:50:28Z</time>
      </trkpt>
      <trkpt lat="45.31165" lon="5.77689">
        <ele>1048.9</ele>
        <time>2021-08-24T14:50:30Z</time>
      </trkpt>
      <trkpt lat="45.31165" lon="5.77685">
        <ele>1049.2</ele>
        <time>2021-08-24T14:50:31Z</time>
      </trkpt>
      <trkpt lat="45.31165" lon="5.77684">
        <ele>1049.3</ele>
        <time>2021-08-24T14:50:32Z</time>
      </trkpt>
      <trkpt lat="45.31165" lon="5.77677">
        <ele>1049.7</ele>
        <time>2021-08-24T14:50:34Z</time>
      </trkpt>
      <trkpt lat="45.31165" lon="5.77672">
        <ele>1050.1</ele>
        <time>2021-08-24T14:50:36Z</time>
      </trkpt>
      <trkpt lat="45.31165" lon="5.77669">
        <ele>1050.2</ele>
        <time>2021-08-24T14:50:37Z</time>
      </trkpt>
      <trkpt lat="45.31166" lon="5.77667">
        <ele>1050.4</ele>
        <time>2021-08-24T14:50:38Z</time>
      </trkpt>
      <trkpt lat="45.31166" lon="5.77662">
        <ele>1050.7</ele>
        <time>2021-08-24T14:50:40Z</time>
      </trkpt>
      <trkpt lat="45.31166" lon="5.77658">
        <ele>1051</ele>
        <time>2021-08-24T14:50:41Z</time>
      </trkpt>
      <trkpt lat="45.31167" lon="5.77656">
        <ele>1051.2</ele>
        <time>2021-08-24T14:50:42Z</time>
      </trkpt>
      <trkpt lat="45.31168" lon="5.7765">
        <ele>1051.5</ele>
        <time>2021-08-24T14:50:44Z</time>
      </trkpt>
      <trkpt lat="45.3117" lon="5.77646">
        <ele>1051.9</ele>
        <time>2021-08-24T14:50:46Z</time>
      </trkpt>
      <trkpt lat="45.31172" lon="5.77643">
        <ele>1052.2</ele>
        <time>2021-08-24T14:50:48Z</time>
      </trkpt>
      <trkpt lat="45.31172" lon="5.77641">
        <ele>1052.4</ele>
        <time>2021-08-24T14:50:49Z</time>
      </trkpt>
      <trkpt lat="45.31173" lon="5.77638">
        <ele>1052.5</ele>
        <time>2021-08-24T14:50:50Z</time>
      </trkpt>
      <trkpt lat="45.31176" lon="5.77633">
        <ele>1053</ele>
        <time>2021-08-24T14:50:52Z</time>
      </trkpt>
      <trkpt lat="45.31177" lon="5.77631">
        <ele>1053.2</ele>
        <time>2021-08-24T14:50:54Z</time>
      </trkpt>
      <trkpt lat="45.31179" lon="5.77629">
        <ele>1053.4</ele>
        <time>2021-08-24T14:50:56Z</time>
      </trkpt>
      <trkpt lat="45.3118" lon="5.77627">
        <ele>1053.6</ele>
        <time>2021-08-24T14:50:57Z</time>
      </trkpt>
      <trkpt lat="45.31181" lon="5.77623">
        <ele>1053.8</ele>
        <time>2021-08-24T14:50:58Z</time>
      </trkpt>
      <trkpt lat="45.31181" lon="5.77622">
        <ele>1053.9</ele>
        <time>2021-08-24T14:50:59Z</time>
      </trkpt>
      <trkpt lat="45.31182" lon="5.77618">
        <ele>1054.2</ele>
        <time>2021-08-24T14:51:00Z</time>
      </trkpt>
      <trkpt lat="45.31183" lon="5.77614">
        <ele>1054.5</ele>
        <time>2021-08-24T14:51:02Z</time>
      </trkpt>
      <trkpt lat="45.31184" lon="5.77611">
        <ele>1054.7</ele>
        <time>2021-08-24T14:51:03Z</time>
      </trkpt>
      <trkpt lat="45.31185" lon="5.77606">
        <ele>1055</ele>
        <time>2021-08-24T14:51:05Z</time>
      </trkpt>
      <trkpt lat="45.31186" lon="5.77601">
        <ele>1055.3</ele>
        <time>2021-08-24T14:51:07Z</time>
      </trkpt>
      <trkpt lat="45.31186" lon="5.77598">
        <ele>1055.6</ele>
        <time>2021-08-24T14:51:09Z</time>
      </trkpt>
      <trkpt lat="45.31185" lon="5.77597">
        <ele>1055.7</ele>
        <time>2021-08-24T14:51:10Z</time>
      </trkpt>
      <trkpt lat="45.31185" lon="5.77596">
        <ele>1055.8</ele>
        <time>2021-08-24T14:51:11Z</time>
      </trkpt>
      <trkpt lat="45.31184" lon="5.77596">
        <ele>1055.8</ele>
        <time>2021-08-24T14:51:13Z</time>
      </trkpt>
      <trkpt lat="45.31184" lon="5.77595">
        <ele>1055.9</ele>
        <time>2021-08-24T14:51:15Z</time>
      </trkpt>
      <trkpt lat="45.31183" lon="5.77594">
        <ele>1056</ele>
        <time>2021-08-24T14:51:17Z</time>
      </trkpt>
      <trkpt lat="45.31183" lon="5.77593">
        <ele>1056</ele>
        <time>2021-08-24T14:51:18Z</time>
      </trkpt>
      <trkpt lat="45.31183" lon="5.77592">
        <ele>1056.1</ele>
        <time>2021-08-24T14:51:20Z</time>
      </trkpt>
      <trkpt lat="45.31181" lon="5.7759">
        <ele>1056.3</ele>
        <time>2021-08-24T14:51:22Z</time>
      </trkpt>
      <trkpt lat="45.31181" lon="5.77585">
        <ele>1056.6</ele>
        <time>2021-08-24T14:51:24Z</time>
      </trkpt>
      <trkpt lat="45.3118" lon="5.77584">
        <ele>1056.7</ele>
        <time>2021-08-24T14:51:25Z</time>
      </trkpt>
      <trkpt lat="45.31179" lon="5.7758">
        <ele>1056.9</ele>
        <time>2021-08-24T14:51:27Z</time>
      </trkpt>
      <trkpt lat="45.31178" lon="5.77576">
        <ele>1057.2</ele>
        <time>2021-08-24T14:51:29Z</time>
      </trkpt>
      <trkpt lat="45.31178" lon="5.77575">
        <ele>1057.3</ele>
        <time>2021-08-24T14:51:30Z</time>
      </trkpt>
      <trkpt lat="45.31179" lon="5.77574">
        <ele>1057.4</ele>
        <time>2021-08-24T14:51:31Z</time>
      </trkpt>
      <trkpt lat="45.3118" lon="5.77571">
        <ele>1057.6</ele>
        <time>2021-08-24T14:51:33Z</time>
      </trkpt>
      <trkpt lat="45.31182" lon="5.77567">
        <ele>1057.8</ele>
        <time>2021-08-24T14:51:35Z</time>
      </trkpt>
      <trkpt lat="45.31185" lon="5.77565">
        <ele>1058.1</ele>
        <time>2021-08-24T14:51:36Z</time>
      </trkpt>
      <trkpt lat="45.31186" lon="5.77563">
        <ele>1058.2</ele>
        <time>2021-08-24T14:51:37Z</time>
      </trkpt>
      <trkpt lat="45.31187" lon="5.77562">
        <ele>1058.3</ele>
        <time>2021-08-24T14:51:39Z</time>
      </trkpt>
      <trkpt lat="45.31187" lon="5.77562">
        <ele>1058.4</ele>
        <time>2021-08-24T14:51:42Z</time>
      </trkpt>
      <trkpt lat="45.31187" lon="5.77562">
        <ele>1058.4</ele>
        <time>2021-08-24T14:51:43Z</time>
      </trkpt>
      <trkpt lat="45.31187" lon="5.77561">
        <ele>1058.4</ele>
        <time>2021-08-24T14:51:45Z</time>
      </trkpt>
      <trkpt lat="45.31187" lon="5.77561">
        <ele>1058.4</ele>
        <time>2021-08-24T14:51:46Z</time>
      </trkpt>
      <trkpt lat="45.31188" lon="5.7756">
        <ele>1058.5</ele>
        <time>2021-08-24T14:51:47Z</time>
      </trkpt>
      <trkpt lat="45.31191" lon="5.77554">
        <ele>1058.9</ele>
        <time>2021-08-24T14:51:51Z</time>
      </trkpt>
      <trkpt lat="45.31193" lon="5.7755">
        <ele>1059.2</ele>
        <time>2021-08-24T14:51:53Z</time>
      </trkpt>
      <trkpt lat="45.31196" lon="5.77546">
        <ele>1059.5</ele>
        <time>2021-08-24T14:51:54Z</time>
      </trkpt>
      <trkpt lat="45.31197" lon="5.77544">
        <ele>1059.6</ele>
        <time>2021-08-24T14:51:55Z</time>
      </trkpt>
      <trkpt lat="45.31199" lon="5.77541">
        <ele>1059.9</ele>
        <time>2021-08-24T14:51:56Z</time>
      </trkpt>
      <trkpt lat="45.31199" lon="5.7754">
        <ele>1060</ele>
        <time>2021-08-24T14:51:57Z</time>
      </trkpt>
      <trkpt lat="45.31201" lon="5.77537">
        <ele>1060.1</ele>
        <time>2021-08-24T14:51:59Z</time>
      </trkpt>
      <trkpt lat="45.31201" lon="5.77536">
        <ele>1060.2</ele>
        <time>2021-08-24T14:52:00Z</time>
      </trkpt>
      <trkpt lat="45.31202" lon="5.77532">
        <ele>1060.4</ele>
        <time>2021-08-24T14:52:01Z</time>
      </trkpt>
      <trkpt lat="45.31203" lon="5.77532">
        <ele>1060.5</ele>
        <time>2021-08-24T14:52:02Z</time>
      </trkpt>
      <trkpt lat="45.31203" lon="5.77531">
        <ele>1060.5</ele>
        <time>2021-08-24T14:52:03Z</time>
      </trkpt>
      <trkpt lat="45.31203" lon="5.77531">
        <ele>1060.5</ele>
        <time>2021-08-24T14:52:04Z</time>
      </trkpt>
      <trkpt lat="45.31205" lon="5.77528">
        <ele>1060.8</ele>
        <time>2021-08-24T14:52:06Z</time>
      </trkpt>
      <trkpt lat="45.31208" lon="5.77524">
        <ele>1061.1</ele>
        <time>2021-08-24T14:52:08Z</time>
      </trkpt>
      <trkpt lat="45.3121" lon="5.77523">
        <ele>1061.3</ele>
        <time>2021-08-24T14:52:09Z</time>
      </trkpt>
      <trkpt lat="45.31213" lon="5.7752">
        <ele>1061.6</ele>
        <time>2021-08-24T14:52:11Z</time>
      </trkpt>
      <trkpt lat="45.31216" lon="5.77517">
        <ele>1061.9</ele>
        <time>2021-08-24T14:52:13Z</time>
      </trkpt>
      <trkpt lat="45.31219" lon="5.77515">
        <ele>1062.2</ele>
        <time>2021-08-24T14:52:14Z</time>
      </trkpt>
      <trkpt lat="45.3122" lon="5.77514">
        <ele>1062.3</ele>
        <time>2021-08-24T14:52:15Z</time>
      </trkpt>
      <trkpt lat="45.31223" lon="5.77511">
        <ele>1062.5</ele>
        <time>2021-08-24T14:52:17Z</time>
      </trkpt>
      <trkpt lat="45.31225" lon="5.77511">
        <ele>1062.7</ele>
        <time>2021-08-24T14:52:18Z</time>
      </trkpt>
      <trkpt lat="45.31228" lon="5.77509">
        <ele>1063</ele>
        <time>2021-08-24T14:52:20Z</time>
      </trkpt>
      <trkpt lat="45.3123" lon="5.77508">
        <ele>1063.1</ele>
        <time>2021-08-24T14:52:21Z</time>
      </trkpt>
      <trkpt lat="45.31231" lon="5.77508">
        <ele>1063.2</ele>
        <time>2021-08-24T14:52:22Z</time>
      </trkpt>
      <trkpt lat="45.31233" lon="5.77507">
        <ele>1063.4</ele>
        <time>2021-08-24T14:52:23Z</time>
      </trkpt>
      <trkpt lat="45.31234" lon="5.77507">
        <ele>1063.5</ele>
        <time>2021-08-24T14:52:24Z</time>
      </trkpt>
      <trkpt lat="45.31235" lon="5.77506">
        <ele>1063.5</ele>
        <time>2021-08-24T14:52:25Z</time>
      </trkpt>
      <trkpt lat="45.31236" lon="5.77505">
        <ele>1063.7</ele>
        <time>2021-08-24T14:52:26Z</time>
      </trkpt>
      <trkpt lat="45.31238" lon="5.77505">
        <ele>1063.8</ele>
        <time>2021-08-24T14:52:27Z</time>
      </trkpt>
      <trkpt lat="45.31241" lon="5.77502">
        <ele>1064.1</ele>
        <time>2021-08-24T14:52:29Z</time>
      </trkpt>
      <trkpt lat="45.31243" lon="5.77502">
        <ele>1064.2</ele>
        <time>2021-08-24T14:52:31Z</time>
      </trkpt>
      <trkpt lat="45.31246" lon="5.77503">
        <ele>1064.4</ele>
        <time>2021-08-24T14:52:33Z</time>
      </trkpt>
      <trkpt lat="45.31248" lon="5.77502">
        <ele>1064.7</ele>
        <time>2021-08-24T14:52:35Z</time>
      </trkpt>
      <trkpt lat="45.31249" lon="5.77502">
        <ele>1064.7</ele>
        <time>2021-08-24T14:52:36Z</time>
      </trkpt>
      <trkpt lat="45.3125" lon="5.77501">
        <ele>1064.8</ele>
        <time>2021-08-24T14:52:37Z</time>
      </trkpt>
      <trkpt lat="45.31251" lon="5.77501">
        <ele>1064.9</ele>
        <time>2021-08-24T14:52:39Z</time>
      </trkpt>
      <trkpt lat="45.31253" lon="5.775">
        <ele>1065</ele>
        <time>2021-08-24T14:52:40Z</time>
      </trkpt>
      <trkpt lat="45.31254" lon="5.77499">
        <ele>1065.2</ele>
        <time>2021-08-24T14:52:41Z</time>
      </trkpt>
      <trkpt lat="45.31256" lon="5.77499">
        <ele>1065.3</ele>
        <time>2021-08-24T14:52:42Z</time>
      </trkpt>
      <trkpt lat="45.31258" lon="5.77498">
        <ele>1065.5</ele>
        <time>2021-08-24T14:52:44Z</time>
      </trkpt>
      <trkpt lat="45.3126" lon="5.77498">
        <ele>1065.6</ele>
        <time>2021-08-24T14:52:46Z</time>
      </trkpt>
      <trkpt lat="45.31261" lon="5.77499">
        <ele>1065.7</ele>
        <time>2021-08-24T14:52:48Z</time>
      </trkpt>
      <trkpt lat="45.31264" lon="5.77496">
        <ele>1066</ele>
        <time>2021-08-24T14:52:50Z</time>
      </trkpt>
      <trkpt lat="45.31267" lon="5.77494">
        <ele>1066.2</ele>
        <time>2021-08-24T14:52:51Z</time>
      </trkpt>
      <trkpt lat="45.31269" lon="5.77492">
        <ele>1066.5</ele>
        <time>2021-08-24T14:52:52Z</time>
      </trkpt>
      <trkpt lat="45.31273" lon="5.77489">
        <ele>1066.8</ele>
        <time>2021-08-24T14:52:54Z</time>
      </trkpt>
      <trkpt lat="45.31273" lon="5.77488">
        <ele>1066.9</ele>
        <time>2021-08-24T14:52:55Z</time>
      </trkpt>
      <trkpt lat="45.31275" lon="5.77485">
        <ele>1067</ele>
        <time>2021-08-24T14:52:56Z</time>
      </trkpt>
      <trkpt lat="45.31276" lon="5.77481">
        <ele>1067.3</ele>
        <time>2021-08-24T14:52:58Z</time>
      </trkpt>
      <trkpt lat="45.31277" lon="5.77477">
        <ele>1067.5</ele>
        <time>2021-08-24T14:52:59Z</time>
      </trkpt>
      <trkpt lat="45.31278" lon="5.77472">
        <ele>1067.8</ele>
        <time>2021-08-24T14:53:00Z</time>
      </trkpt>
      <trkpt lat="45.31278" lon="5.77471">
        <ele>1067.9</ele>
        <time>2021-08-24T14:53:01Z</time>
      </trkpt>
      <trkpt lat="45.31278" lon="5.77468">
        <ele>1068</ele>
        <time>2021-08-24T14:53:02Z</time>
      </trkpt>
      <trkpt lat="45.31278" lon="5.77463">
        <ele>1068.3</ele>
        <time>2021-08-24T14:53:04Z</time>
      </trkpt>
      <trkpt lat="45.31278" lon="5.77458">
        <ele>1068.5</ele>
        <time>2021-08-24T14:53:05Z</time>
      </trkpt>
      <trkpt lat="45.31277" lon="5.77457">
        <ele>1068.6</ele>
        <time>2021-08-24T14:53:06Z</time>
      </trkpt>
      <trkpt lat="45.31277" lon="5.77453">
        <ele>1068.8</ele>
        <time>2021-08-24T14:53:08Z</time>
      </trkpt>
      <trkpt lat="45.31276" lon="5.77451">
        <ele>1068.9</ele>
        <time>2021-08-24T14:53:09Z</time>
      </trkpt>
      <trkpt lat="45.31276" lon="5.77449">
        <ele>1069</ele>
        <time>2021-08-24T14:53:10Z</time>
      </trkpt>
      <trkpt lat="45.31276" lon="5.77445">
        <ele>1069.2</ele>
        <time>2021-08-24T14:53:12Z</time>
      </trkpt>
      <trkpt lat="45.31275" lon="5.77439">
        <ele>1069.5</ele>
        <time>2021-08-24T14:53:14Z</time>
      </trkpt>
      <trkpt lat="45.31273" lon="5.77434">
        <ele>1069.8</ele>
        <time>2021-08-24T14:53:16Z</time>
      </trkpt>
      <trkpt lat="45.31272" lon="5.77431">
        <ele>1070</ele>
        <time>2021-08-24T14:53:17Z</time>
      </trkpt>
      <trkpt lat="45.3127" lon="5.77426">
        <ele>1070.3</ele>
        <time>2021-08-24T14:53:19Z</time>
      </trkpt>
      <trkpt lat="45.31268" lon="5.77424">
        <ele>1070.4</ele>
        <time>2021-08-24T14:53:20Z</time>
      </trkpt>
      <trkpt lat="45.31266" lon="5.77418">
        <ele>1070.8</ele>
        <time>2021-08-24T14:53:22Z</time>
      </trkpt>
      <trkpt lat="45.31265" lon="5.77414">
        <ele>1071</ele>
        <time>2021-08-24T14:53:23Z</time>
      </trkpt>
      <trkpt lat="45.31264" lon="5.77411">
        <ele>1071.1</ele>
        <time>2021-08-24T14:53:24Z</time>
      </trkpt>
      <trkpt lat="45.31262" lon="5.77406">
        <ele>1071.4</ele>
        <time>2021-08-24T14:53:26Z</time>
      </trkpt>
      <trkpt lat="45.31261" lon="5.77403">
        <ele>1071.6</ele>
        <time>2021-08-24T14:53:27Z</time>
      </trkpt>
      <trkpt lat="45.3126" lon="5.774">
        <ele>1071.8</ele>
        <time>2021-08-24T14:53:28Z</time>
      </trkpt>
      <trkpt lat="45.31259" lon="5.77396">
        <ele>1072</ele>
        <time>2021-08-24T14:53:30Z</time>
      </trkpt>
      <trkpt lat="45.31257" lon="5.77393">
        <ele>1072.2</ele>
        <time>2021-08-24T14:53:31Z</time>
      </trkpt>
      <trkpt lat="45.31256" lon="5.77392">
        <ele>1072.3</ele>
        <time>2021-08-24T14:53:32Z</time>
      </trkpt>
      <trkpt lat="45.31254" lon="5.77389">
        <ele>1072.6</ele>
        <time>2021-08-24T14:53:34Z</time>
      </trkpt>
      <trkpt lat="45.31253" lon="5.77385">
        <ele>1072.8</ele>
        <time>2021-08-24T14:53:36Z</time>
      </trkpt>
      <trkpt lat="45.31252" lon="5.77384">
        <ele>1072.9</ele>
        <time>2021-08-24T14:53:37Z</time>
      </trkpt>
      <trkpt lat="45.31251" lon="5.77382">
        <ele>1073</ele>
        <time>2021-08-24T14:53:38Z</time>
      </trkpt>
      <trkpt lat="45.31249" lon="5.77379">
        <ele>1073.2</ele>
        <time>2021-08-24T14:53:40Z</time>
      </trkpt>
      <trkpt lat="45.31248" lon="5.77377">
        <ele>1073.4</ele>
        <time>2021-08-24T14:53:41Z</time>
      </trkpt>
      <trkpt lat="45.31247" lon="5.77375">
        <ele>1073.5</ele>
        <time>2021-08-24T14:53:42Z</time>
      </trkpt>
      <trkpt lat="45.31245" lon="5.7737">
        <ele>1073.8</ele>
        <time>2021-08-24T14:53:44Z</time>
      </trkpt>
      <trkpt lat="45.31243" lon="5.77366">
        <ele>1074.1</ele>
        <time>2021-08-24T14:53:46Z</time>
      </trkpt>
      <trkpt lat="45.31242" lon="5.77362">
        <ele>1074.4</ele>
        <time>2021-08-24T14:53:48Z</time>
      </trkpt>
      <trkpt lat="45.31241" lon="5.77359">
        <ele>1074.6</ele>
        <time>2021-08-24T14:53:50Z</time>
      </trkpt>
      <trkpt lat="45.3124" lon="5.77357">
        <ele>1074.7</ele>
        <time>2021-08-24T14:53:51Z</time>
      </trkpt>
      <trkpt lat="45.31239" lon="5.77353">
        <ele>1075</ele>
        <time>2021-08-24T14:53:53Z</time>
      </trkpt>
      <trkpt lat="45.31238" lon="5.77351">
        <ele>1075.1</ele>
        <time>2021-08-24T14:53:54Z</time>
      </trkpt>
      <trkpt lat="45.31237" lon="5.77347">
        <ele>1075.4</ele>
        <time>2021-08-24T14:53:56Z</time>
      </trkpt>
      <trkpt lat="45.31236" lon="5.77344">
        <ele>1075.6</ele>
        <time>2021-08-24T14:53:58Z</time>
      </trkpt>
      <trkpt lat="45.31234" lon="5.77341">
        <ele>1075.8</ele>
        <time>2021-08-24T14:54:00Z</time>
      </trkpt>
      <trkpt lat="45.31233" lon="5.77339">
        <ele>1076</ele>
        <time>2021-08-24T14:54:02Z</time>
      </trkpt>
      <trkpt lat="45.31231" lon="5.77337">
        <ele>1076.2</ele>
        <time>2021-08-24T14:54:04Z</time>
      </trkpt>
      <trkpt lat="45.3123" lon="5.77336">
        <ele>1076.3</ele>
        <time>2021-08-24T14:54:05Z</time>
      </trkpt>
      <trkpt lat="45.31229" lon="5.77334">
        <ele>1076.4</ele>
        <time>2021-08-24T14:54:06Z</time>
      </trkpt>
      <trkpt lat="45.31228" lon="5.77333">
        <ele>1076.6</ele>
        <time>2021-08-24T14:54:07Z</time>
      </trkpt>
      <trkpt lat="45.31227" lon="5.77332">
        <ele>1076.7</ele>
        <time>2021-08-24T14:54:08Z</time>
      </trkpt>
      <trkpt lat="45.31226" lon="5.7733">
        <ele>1076.9</ele>
        <time>2021-08-24T14:54:09Z</time>
      </trkpt>
      <trkpt lat="45.31225" lon="5.77328">
        <ele>1077</ele>
        <time>2021-08-24T14:54:10Z</time>
      </trkpt>
      <trkpt lat="45.31224" lon="5.77325">
        <ele>1077.2</ele>
        <time>2021-08-24T14:54:12Z</time>
      </trkpt>
      <trkpt lat="45.31224" lon="5.77322">
        <ele>1077.4</ele>
        <time>2021-08-24T14:54:14Z</time>
      </trkpt>
      <trkpt lat="45.31224" lon="5.77319">
        <ele>1077.6</ele>
        <time>2021-08-24T14:54:16Z</time>
      </trkpt>
      <trkpt lat="45.31224" lon="5.77317">
        <ele>1077.7</ele>
        <time>2021-08-24T14:54:17Z</time>
      </trkpt>
      <trkpt lat="45.31224" lon="5.77316">
        <ele>1077.8</ele>
        <time>2021-08-24T14:54:18Z</time>
      </trkpt>
      <trkpt lat="45.31224" lon="5.77315">
        <ele>1077.9</ele>
        <time>2021-08-24T14:54:19Z</time>
      </trkpt>
      <trkpt lat="45.31224" lon="5.77311">
        <ele>1078.1</ele>
        <time>2021-08-24T14:54:21Z</time>
      </trkpt>
      <trkpt lat="45.31224" lon="5.7731">
        <ele>1078.1</ele>
        <time>2021-08-24T14:54:22Z</time>
      </trkpt>
      <trkpt lat="45.31224" lon="5.77309">
        <ele>1078.2</ele>
        <time>2021-08-24T14:54:23Z</time>
      </trkpt>
      <trkpt lat="45.31223" lon="5.77305">
        <ele>1078.5</ele>
        <time>2021-08-24T14:54:25Z</time>
      </trkpt>
      <trkpt lat="45.31222" lon="5.77302">
        <ele>1078.7</ele>
        <time>2021-08-24T14:54:27Z</time>
      </trkpt>
      <trkpt lat="45.31221" lon="5.77299">
        <ele>1078.9</ele>
        <time>2021-08-24T14:54:29Z</time>
      </trkpt>
      <trkpt lat="45.31219" lon="5.77294">
        <ele>1079.3</ele>
        <time>2021-08-24T14:54:30Z</time>
      </trkpt>
      <trkpt lat="45.31218" lon="5.77292">
        <ele>1079.4</ele>
        <time>2021-08-24T14:54:31Z</time>
      </trkpt>
      <trkpt lat="45.31217" lon="5.77287">
        <ele>1079.7</ele>
        <time>2021-08-24T14:54:33Z</time>
      </trkpt>
      <trkpt lat="45.31215" lon="5.77284">
        <ele>1080</ele>
        <time>2021-08-24T14:54:34Z</time>
      </trkpt>
      <trkpt lat="45.31214" lon="5.7728">
        <ele>1080.3</ele>
        <time>2021-08-24T14:54:36Z</time>
      </trkpt>
      <trkpt lat="45.31213" lon="5.77277">
        <ele>1080.5</ele>
        <time>2021-08-24T14:54:37Z</time>
      </trkpt>
      <trkpt lat="45.31212" lon="5.77273">
        <ele>1080.7</ele>
        <time>2021-08-24T14:54:39Z</time>
      </trkpt>
      <trkpt lat="45.31212" lon="5.77269">
        <ele>1080.9</ele>
        <time>2021-08-24T14:54:41Z</time>
      </trkpt>
      <trkpt lat="45.31211" lon="5.77265">
        <ele>1081.2</ele>
        <time>2021-08-24T14:54:43Z</time>
      </trkpt>
      <trkpt lat="45.31211" lon="5.77262">
        <ele>1081.4</ele>
        <time>2021-08-24T14:54:45Z</time>
      </trkpt>
      <trkpt lat="45.3121" lon="5.7726">
        <ele>1081.5</ele>
        <time>2021-08-24T14:54:46Z</time>
      </trkpt>
      <trkpt lat="45.3121" lon="5.77258">
        <ele>1081.6</ele>
        <time>2021-08-24T14:54:47Z</time>
      </trkpt>
      <trkpt lat="45.31209" lon="5.77257">
        <ele>1081.7</ele>
        <time>2021-08-24T14:54:48Z</time>
      </trkpt>
      <trkpt lat="45.31209" lon="5.77255">
        <ele>1081.8</ele>
        <time>2021-08-24T14:54:49Z</time>
      </trkpt>
      <trkpt lat="45.31209" lon="5.77254">
        <ele>1081.9</ele>
        <time>2021-08-24T14:54:50Z</time>
      </trkpt>
      <trkpt lat="45.31208" lon="5.77252">
        <ele>1082</ele>
        <time>2021-08-24T14:54:51Z</time>
      </trkpt>
      <trkpt lat="45.31207" lon="5.7725">
        <ele>1082.1</ele>
        <time>2021-08-24T14:54:52Z</time>
      </trkpt>
      <trkpt lat="45.31207" lon="5.77249">
        <ele>1082.2</ele>
        <time>2021-08-24T14:54:53Z</time>
      </trkpt>
      <trkpt lat="45.31206" lon="5.77246">
        <ele>1082.4</ele>
        <time>2021-08-24T14:54:55Z</time>
      </trkpt>
      <trkpt lat="45.31206" lon="5.77245">
        <ele>1082.5</ele>
        <time>2021-08-24T14:54:56Z</time>
      </trkpt>
      <trkpt lat="45.31206" lon="5.77241">
        <ele>1082.7</ele>
        <time>2021-08-24T14:54:58Z</time>
      </trkpt>
      <trkpt lat="45.31206" lon="5.77239">
        <ele>1082.8</ele>
        <time>2021-08-24T14:54:59Z</time>
      </trkpt>
      <trkpt lat="45.31206" lon="5.77237">
        <ele>1082.9</ele>
        <time>2021-08-24T14:55:00Z</time>
      </trkpt>
      <trkpt lat="45.31205" lon="5.77234">
        <ele>1083.1</ele>
        <time>2021-08-24T14:55:01Z</time>
      </trkpt>
      <trkpt lat="45.31204" lon="5.77232">
        <ele>1083.3</ele>
        <time>2021-08-24T14:55:03Z</time>
      </trkpt>
      <trkpt lat="45.31202" lon="5.77229">
        <ele>1083.6</ele>
        <time>2021-08-24T14:55:04Z</time>
      </trkpt>
      <trkpt lat="45.312" lon="5.77228">
        <ele>1083.7</ele>
        <time>2021-08-24T14:55:06Z</time>
      </trkpt>
      <trkpt lat="45.31198" lon="5.77226">
        <ele>1084</ele>
        <time>2021-08-24T14:55:07Z</time>
      </trkpt>
      <trkpt lat="45.31197" lon="5.77226">
        <ele>1084.1</ele>
        <time>2021-08-24T14:55:08Z</time>
      </trkpt>
      <trkpt lat="45.31194" lon="5.77225">
        <ele>1084.3</ele>
        <time>2021-08-24T14:55:10Z</time>
      </trkpt>
      <trkpt lat="45.31192" lon="5.77224">
        <ele>1084.5</ele>
        <time>2021-08-24T14:55:12Z</time>
      </trkpt>
      <trkpt lat="45.31191" lon="5.77223">
        <ele>1084.6</ele>
        <time>2021-08-24T14:55:14Z</time>
      </trkpt>
      <trkpt lat="45.31191" lon="5.77222">
        <ele>1084.7</ele>
        <time>2021-08-24T14:55:15Z</time>
      </trkpt>
      <trkpt lat="45.3119" lon="5.77221">
        <ele>1084.8</ele>
        <time>2021-08-24T14:55:16Z</time>
      </trkpt>
      <trkpt lat="45.31189" lon="5.77219">
        <ele>1085</ele>
        <time>2021-08-24T14:55:18Z</time>
      </trkpt>
      <trkpt lat="45.31187" lon="5.77217">
        <ele>1085.1</ele>
        <time>2021-08-24T14:55:19Z</time>
      </trkpt>
      <trkpt lat="45.31186" lon="5.77216">
        <ele>1085.3</ele>
        <time>2021-08-24T14:55:21Z</time>
      </trkpt>
      <trkpt lat="45.31184" lon="5.77214">
        <ele>1085.5</ele>
        <time>2021-08-24T14:55:23Z</time>
      </trkpt>
      <trkpt lat="45.31182" lon="5.77211">
        <ele>1085.7</ele>
        <time>2021-08-24T14:55:25Z</time>
      </trkpt>
      <trkpt lat="45.31182" lon="5.77209">
        <ele>1085.9</ele>
        <time>2021-08-24T14:55:27Z</time>
      </trkpt>
      <trkpt lat="45.31181" lon="5.77208">
        <ele>1085.8</ele>
        <time>2021-08-24T14:55:28Z</time>
      </trkpt>
      <trkpt lat="45.3118" lon="5.77206">
        <ele>1085.8</ele>
        <time>2021-08-24T14:55:29Z</time>
      </trkpt>
      <trkpt lat="45.31179" lon="5.77204">
        <ele>1085.8</ele>
        <time>2021-08-24T14:55:31Z</time>
      </trkpt>
      <trkpt lat="45.31177" lon="5.77202">
        <ele>1085.8</ele>
        <time>2021-08-24T14:55:32Z</time>
      </trkpt>
      <trkpt lat="45.31177" lon="5.772">
        <ele>1085.8</ele>
        <time>2021-08-24T14:55:34Z</time>
      </trkpt>
      <trkpt lat="45.31176" lon="5.77198">
        <ele>1085.7</ele>
        <time>2021-08-24T14:55:36Z</time>
      </trkpt>
      <trkpt lat="45.31175" lon="5.77196">
        <ele>1085.6</ele>
        <time>2021-08-24T14:55:38Z</time>
      </trkpt>
      <trkpt lat="45.31174" lon="5.77193">
        <ele>1085.5</ele>
        <time>2021-08-24T14:55:40Z</time>
      </trkpt>
      <trkpt lat="45.31174" lon="5.77192">
        <ele>1085.4</ele>
        <time>2021-08-24T14:55:42Z</time>
      </trkpt>
      <trkpt lat="45.31174" lon="5.77192">
        <ele>1085.4</ele>
        <time>2021-08-24T14:55:43Z</time>
      </trkpt>
      <trkpt lat="45.31174" lon="5.77192">
        <ele>1085.4</ele>
        <time>2021-08-24T14:55:44Z</time>
      </trkpt>
      <trkpt lat="45.31174" lon="5.77191">
        <ele>1085.3</ele>
        <time>2021-08-24T14:55:45Z</time>
      </trkpt>
      <trkpt lat="45.31173" lon="5.77189">
        <ele>1085.2</ele>
        <time>2021-08-24T14:55:46Z</time>
      </trkpt>
      <trkpt lat="45.31173" lon="5.77186">
        <ele>1085.1</ele>
        <time>2021-08-24T14:55:47Z</time>
      </trkpt>
      <trkpt lat="45.31173" lon="5.77181">
        <ele>1085.2</ele>
        <time>2021-08-24T14:55:49Z</time>
      </trkpt>
      <trkpt lat="45.31173" lon="5.7718">
        <ele>1085.3</ele>
        <time>2021-08-24T14:55:50Z</time>
      </trkpt>
      <trkpt lat="45.31173" lon="5.77176">
        <ele>1085.6</ele>
        <time>2021-08-24T14:55:52Z</time>
      </trkpt>
      <trkpt lat="45.31173" lon="5.77174">
        <ele>1085.7</ele>
        <time>2021-08-24T14:55:53Z</time>
      </trkpt>
      <trkpt lat="45.31174" lon="5.77172">
        <ele>1085.8</ele>
        <time>2021-08-24T14:55:54Z</time>
      </trkpt>
      <trkpt lat="45.31175" lon="5.77169">
        <ele>1086.1</ele>
        <time>2021-08-24T14:55:55Z</time>
      </trkpt>
      <trkpt lat="45.31175" lon="5.77167">
        <ele>1086.2</ele>
        <time>2021-08-24T14:55:57Z</time>
      </trkpt>
      <trkpt lat="45.31173" lon="5.77163">
        <ele>1086.5</ele>
        <time>2021-08-24T14:55:58Z</time>
      </trkpt>
      <trkpt lat="45.31172" lon="5.77163">
        <ele>1086.6</ele>
        <time>2021-08-24T14:55:59Z</time>
      </trkpt>
      <trkpt lat="45.3117" lon="5.7716">
        <ele>1086.9</ele>
        <time>2021-08-24T14:56:01Z</time>
      </trkpt>
      <trkpt lat="45.31169" lon="5.77157">
        <ele>1087.1</ele>
        <time>2021-08-24T14:56:03Z</time>
      </trkpt>
      <trkpt lat="45.31168" lon="5.77154">
        <ele>1087.3</ele>
        <time>2021-08-24T14:56:05Z</time>
      </trkpt>
      <trkpt lat="45.31168" lon="5.77147">
        <ele>1087.8</ele>
        <time>2021-08-24T14:56:07Z</time>
      </trkpt>
      <trkpt lat="45.31168" lon="5.77145">
        <ele>1087.9</ele>
        <time>2021-08-24T14:56:09Z</time>
      </trkpt>
      <trkpt lat="45.31168" lon="5.77143">
        <ele>1088.1</ele>
        <time>2021-08-24T14:56:10Z</time>
      </trkpt>
      <trkpt lat="45.31168" lon="5.77139">
        <ele>1088.4</ele>
        <time>2021-08-24T14:56:12Z</time>
      </trkpt>
      <trkpt lat="45.31168" lon="5.77137">
        <ele>1088.5</ele>
        <time>2021-08-24T14:56:13Z</time>
      </trkpt>
      <trkpt lat="45.31168" lon="5.77135">
        <ele>1088.6</ele>
        <time>2021-08-24T14:56:14Z</time>
      </trkpt>
      <trkpt lat="45.31168" lon="5.77136">
        <ele>1088.7</ele>
        <time>2021-08-24T14:56:16Z</time>
      </trkpt>
      <trkpt lat="45.31168" lon="5.77137">
        <ele>1088.7</ele>
        <time>2021-08-24T14:56:18Z</time>
      </trkpt>
      <trkpt lat="45.31168" lon="5.77136">
        <ele>1088.7</ele>
        <time>2021-08-24T14:56:19Z</time>
      </trkpt>
      <trkpt lat="45.31168" lon="5.77136">
        <ele>1088.7</ele>
        <time>2021-08-24T14:56:20Z</time>
      </trkpt>
      <trkpt lat="45.31168" lon="5.77136">
        <ele>1088.7</ele>
        <time>2021-08-24T14:56:21Z</time>
      </trkpt>
      <trkpt lat="45.31167" lon="5.77136">
        <ele>1088.8</ele>
        <time>2021-08-24T14:56:23Z</time>
      </trkpt>
      <trkpt lat="45.31166" lon="5.77137">
        <ele>1088.9</ele>
        <time>2021-08-24T14:56:24Z</time>
      </trkpt>
      <trkpt lat="45.31155" lon="5.77129">
        <ele>1090.1</ele>
        <time>2021-08-24T14:56:37Z</time>
      </trkpt>
      <trkpt lat="45.31153" lon="5.77126">
        <ele>1090.4</ele>
        <time>2021-08-24T14:56:38Z</time>
      </trkpt>
      <trkpt lat="45.3115" lon="5.77123">
        <ele>1090.7</ele>
        <time>2021-08-24T14:56:40Z</time>
      </trkpt>
      <trkpt lat="45.31146" lon="5.77119">
        <ele>1091.2</ele>
        <time>2021-08-24T14:56:41Z</time>
      </trkpt>
      <trkpt lat="45.31145" lon="5.77118">
        <ele>1091.4</ele>
        <time>2021-08-24T14:56:43Z</time>
      </trkpt>
      <trkpt lat="45.31144" lon="5.77117">
        <ele>1091.5</ele>
        <time>2021-08-24T14:56:44Z</time>
      </trkpt>
      <trkpt lat="45.31142" lon="5.77115">
        <ele>1091.7</ele>
        <time>2021-08-24T14:56:46Z</time>
      </trkpt>
      <trkpt lat="45.31141" lon="5.77114">
        <ele>1091.8</ele>
        <time>2021-08-24T14:56:48Z</time>
      </trkpt>
      <trkpt lat="45.31141" lon="5.77113">
        <ele>1091.9</ele>
        <time>2021-08-24T14:56:50Z</time>
      </trkpt>
      <trkpt lat="45.31141" lon="5.77113">
        <ele>1091.9</ele>
        <time>2021-08-24T14:56:51Z</time>
      </trkpt>
      <trkpt lat="45.3114" lon="5.77112">
        <ele>1092</ele>
        <time>2021-08-24T14:56:53Z</time>
      </trkpt>
      <trkpt lat="45.3114" lon="5.77112">
        <ele>1092</ele>
        <time>2021-08-24T14:56:54Z</time>
      </trkpt>
      <trkpt lat="45.3114" lon="5.77112">
        <ele>1092</ele>
        <time>2021-08-24T14:56:55Z</time>
      </trkpt>
      <trkpt lat="45.3114" lon="5.77111">
        <ele>1092</ele>
        <time>2021-08-24T14:56:56Z</time>
      </trkpt>
      <trkpt lat="45.3107" lon="5.77015">
        <ele>1101.2</ele>
        <time>2021-08-24T14:58:54Z</time>
      </trkpt>
      <trkpt lat="45.31068" lon="5.77013">
        <ele>1101.5</ele>
        <time>2021-08-24T14:58:55Z</time>
      </trkpt>
      <trkpt lat="45.31066" lon="5.7701">
        <ele>1101.7</ele>
        <time>2021-08-24T14:58:56Z</time>
      </trkpt>
      <trkpt lat="45.31064" lon="5.77008">
        <ele>1102</ele>
        <time>2021-08-24T14:58:57Z</time>
      </trkpt>
      <trkpt lat="45.31061" lon="5.77006">
        <ele>1102.2</ele>
        <time>2021-08-24T14:58:59Z</time>
      </trkpt>
      <trkpt lat="45.31058" lon="5.77005">
        <ele>1102.5</ele>
        <time>2021-08-24T14:59:00Z</time>
      </trkpt>
      <trkpt lat="45.31057" lon="5.77005">
        <ele>1102.7</ele>
        <time>2021-08-24T14:59:01Z</time>
      </trkpt>
      <trkpt lat="45.31053" lon="5.77005">
        <ele>1103</ele>
        <time>2021-08-24T14:59:03Z</time>
      </trkpt>
      <trkpt lat="45.3105" lon="5.77006">
        <ele>1103.2</ele>
        <time>2021-08-24T14:59:04Z</time>
      </trkpt>
      <trkpt lat="45.31049" lon="5.77007">
        <ele>1103.3</ele>
        <time>2021-08-24T14:59:05Z</time>
      </trkpt>
      <trkpt lat="45.31048" lon="5.77008">
        <ele>1103.5</ele>
        <time>2021-08-24T14:59:07Z</time>
      </trkpt>
      <trkpt lat="45.31047" lon="5.77009">
        <ele>1103.6</ele>
        <time>2021-08-24T14:59:08Z</time>
      </trkpt>
      <trkpt lat="45.31046" lon="5.77011">
        <ele>1103.7</ele>
        <time>2021-08-24T14:59:09Z</time>
      </trkpt>
      <trkpt lat="45.31046" lon="5.77012">
        <ele>1103.8</ele>
        <time>2021-08-24T14:59:11Z</time>
      </trkpt>
      <trkpt lat="45.31046" lon="5.77012">
        <ele>1103.8</ele>
        <time>2021-08-24T14:59:12Z</time>
      </trkpt>
      <trkpt lat="45.31045" lon="5.77013">
        <ele>1103.9</ele>
        <time>2021-08-24T14:59:13Z</time>
      </trkpt>
      <trkpt lat="45.31044" lon="5.77014">
        <ele>1104</ele>
        <time>2021-08-24T14:59:15Z</time>
      </trkpt>
      <trkpt lat="45.31044" lon="5.77014">
        <ele>1104.1</ele>
        <time>2021-08-24T14:59:17Z</time>
      </trkpt>
      <trkpt lat="45.31043" lon="5.77014">
        <ele>1104.1</ele>
        <time>2021-08-24T14:59:18Z</time>
      </trkpt>
      <trkpt lat="45.31042" lon="5.77014">
        <ele>1104.2</ele>
        <time>2021-08-24T14:59:19Z</time>
      </trkpt>
      <trkpt lat="45.31041" lon="5.77015">
        <ele>1104.3</ele>
        <time>2021-08-24T14:59:20Z</time>
      </trkpt>
      <trkpt lat="45.31039" lon="5.77015">
        <ele>1104.4</ele>
        <time>2021-08-24T14:59:22Z</time>
      </trkpt>
      <trkpt lat="45.31008" lon="5.76989">
        <ele>1107.9</ele>
        <time>2021-08-24T15:00:00Z</time>
      </trkpt>
      <trkpt lat="45.31007" lon="5.76987">
        <ele>1108</ele>
        <time>2021-08-24T15:00:01Z</time>
      </trkpt>
      <trkpt lat="45.31006" lon="5.76984">
        <ele>1108.2</ele>
        <time>2021-08-24T15:00:02Z</time>
      </trkpt>
      <trkpt lat="45.31006" lon="5.76982">
        <ele>1108.4</ele>
        <time>2021-08-24T15:00:03Z</time>
      </trkpt>
      <trkpt lat="45.31005" lon="5.76979">
        <ele>1108.6</ele>
        <time>2021-08-24T15:00:05Z</time>
      </trkpt>
      <trkpt lat="45.31004" lon="5.76979">
        <ele>1108.6</ele>
        <time>2021-08-24T15:00:06Z</time>
      </trkpt>
      <trkpt lat="45.31004" lon="5.76978">
        <ele>1108.7</ele>
        <time>2021-08-24T15:00:08Z</time>
      </trkpt>
      <trkpt lat="45.31002" lon="5.76976">
        <ele>1108.8</ele>
        <time>2021-08-24T15:00:09Z</time>
      </trkpt>
      <trkpt lat="45.31002" lon="5.76976">
        <ele>1108.9</ele>
        <time>2021-08-24T15:00:10Z</time>
      </trkpt>
      <trkpt lat="45.31001" lon="5.76975">
        <ele>1109</ele>
        <time>2021-08-24T15:00:11Z</time>
      </trkpt>
      <trkpt lat="45.31" lon="5.76974">
        <ele>1109.1</ele>
        <time>2021-08-24T15:00:13Z</time>
      </trkpt>
      <trkpt lat="45.30999" lon="5.76973">
        <ele>1109.2</ele>
        <time>2021-08-24T15:00:14Z</time>
      </trkpt>
      <trkpt lat="45.30999" lon="5.76971">
        <ele>1109.3</ele>
        <time>2021-08-24T15:00:15Z</time>
      </trkpt>
      <trkpt lat="45.30998" lon="5.7697">
        <ele>1109.4</ele>
        <time>2021-08-24T15:00:16Z</time>
      </trkpt>
      <trkpt lat="45.30997" lon="5.76968">
        <ele>1109.5</ele>
        <time>2021-08-24T15:00:18Z</time>
      </trkpt>
      <trkpt lat="45.30996" lon="5.76966">
        <ele>1109.7</ele>
        <time>2021-08-24T15:00:19Z</time>
      </trkpt>
      <trkpt lat="45.30995" lon="5.76965">
        <ele>1109.8</ele>
        <time>2021-08-24T15:00:20Z</time>
      </trkpt>
      <trkpt lat="45.30993" lon="5.76964">
        <ele>1109.9</ele>
        <time>2021-08-24T15:00:21Z</time>
      </trkpt>
      <trkpt lat="45.30988" lon="5.7696">
        <ele>1110.3</ele>
        <time>2021-08-24T15:00:24Z</time>
      </trkpt>
      <trkpt lat="45.30987" lon="5.76959">
        <ele>1110.4</ele>
        <time>2021-08-24T15:00:25Z</time>
      </trkpt>
      <trkpt lat="45.30986" lon="5.76958">
        <ele>1110.5</ele>
        <time>2021-08-24T15:00:26Z</time>
      </trkpt>
      <trkpt lat="45.30984" lon="5.76954">
        <ele>1110.7</ele>
        <time>2021-08-24T15:00:27Z</time>
      </trkpt>
      <trkpt lat="45.30983" lon="5.76953">
        <ele>1110.8</ele>
        <time>2021-08-24T15:00:28Z</time>
      </trkpt>
      <trkpt lat="45.30981" lon="5.7695">
        <ele>1111</ele>
        <time>2021-08-24T15:00:30Z</time>
      </trkpt>
      <trkpt lat="45.3098" lon="5.7695">
        <ele>1111</ele>
        <time>2021-08-24T15:00:32Z</time>
      </trkpt>
      <trkpt lat="45.3098" lon="5.76949">
        <ele>1111.1</ele>
        <time>2021-08-24T15:00:33Z</time>
      </trkpt>
      <trkpt lat="45.30979" lon="5.76949">
        <ele>1111.1</ele>
        <time>2021-08-24T15:00:34Z</time>
      </trkpt>
      <trkpt lat="45.30979" lon="5.76949">
        <ele>1111.1</ele>
        <time>2021-08-24T15:00:35Z</time>
      </trkpt>
      <trkpt lat="45.30978" lon="5.76948">
        <ele>1111.2</ele>
        <time>2021-08-24T15:00:37Z</time>
      </trkpt>
      <trkpt lat="45.30978" lon="5.76948">
        <ele>1111.2</ele>
        <time>2021-08-24T15:00:38Z</time>
      </trkpt>
      <trkpt lat="45.30977" lon="5.76948">
        <ele>1111.3</ele>
        <time>2021-08-24T15:00:39Z</time>
      </trkpt>
      <trkpt lat="45.30976" lon="5.76947">
        <ele>1111.3</ele>
        <time>2021-08-24T15:00:40Z</time>
      </trkpt>
      <trkpt lat="45.30974" lon="5.76946">
        <ele>1111.5</ele>
        <time>2021-08-24T15:00:41Z</time>
      </trkpt>
      <trkpt lat="45.30972" lon="5.76946">
        <ele>1111.6</ele>
        <time>2021-08-24T15:00:43Z</time>
      </trkpt>
      <trkpt lat="45.30945" lon="5.76956">
        <ele>1112.7</ele>
        <time>2021-08-24T15:01:06Z</time>
      </trkpt>
      <trkpt lat="45.30942" lon="5.76966">
        <ele>1113.2</ele>
        <time>2021-08-24T15:01:08Z</time>
      </trkpt>
      <trkpt lat="45.30942" lon="5.76971">
        <ele>1113.4</ele>
        <time>2021-08-24T15:01:10Z</time>
      </trkpt>
      <trkpt lat="45.30942" lon="5.76973">
        <ele>1113.4</ele>
        <time>2021-08-24T15:01:11Z</time>
      </trkpt>
      <trkpt lat="45.30942" lon="5.76975">
        <ele>1113.5</ele>
        <time>2021-08-24T15:01:12Z</time>
      </trkpt>
      <trkpt lat="45.30942" lon="5.76977">
        <ele>1113.6</ele>
        <time>2021-08-24T15:01:13Z</time>
      </trkpt>
      <trkpt lat="45.30942" lon="5.7698">
        <ele>1113.7</ele>
        <time>2021-08-24T15:01:14Z</time>
      </trkpt>
      <trkpt lat="45.30942" lon="5.76983">
        <ele>1113.8</ele>
        <time>2021-08-24T15:01:15Z</time>
      </trkpt>
      <trkpt lat="45.30943" lon="5.76986">
        <ele>1114</ele>
        <time>2021-08-24T15:01:17Z</time>
      </trkpt>
      <trkpt lat="45.30944" lon="5.7699">
        <ele>1114.2</ele>
        <time>2021-08-24T15:01:19Z</time>
      </trkpt>
      <trkpt lat="45.30944" lon="5.76992">
        <ele>1114.2</ele>
        <time>2021-08-24T15:01:20Z</time>
      </trkpt>
      <trkpt lat="45.30944" lon="5.76995">
        <ele>1114.3</ele>
        <time>2021-08-24T15:01:21Z</time>
      </trkpt>
      <trkpt lat="45.30944" lon="5.76997">
        <ele>1114.4</ele>
        <time>2021-08-24T15:01:23Z</time>
      </trkpt>
      <trkpt lat="45.30944" lon="5.76998">
        <ele>1114.5</ele>
        <time>2021-08-24T15:01:24Z</time>
      </trkpt>
      <trkpt lat="45.30944" lon="5.77">
        <ele>1114.5</ele>
        <time>2021-08-24T15:01:25Z</time>
      </trkpt>
      <trkpt lat="45.30944" lon="5.77002">
        <ele>1114.6</ele>
        <time>2021-08-24T15:01:26Z</time>
      </trkpt>
      <trkpt lat="45.30945" lon="5.77006">
        <ele>1114.8</ele>
        <time>2021-08-24T15:01:28Z</time>
      </trkpt>
      <trkpt lat="45.30945" lon="5.77009">
        <ele>1114.9</ele>
        <time>2021-08-24T15:01:29Z</time>
      </trkpt>
      <trkpt lat="45.30945" lon="5.77011">
        <ele>1115</ele>
        <time>2021-08-24T15:01:30Z</time>
      </trkpt>
      <trkpt lat="45.30944" lon="5.77015">
        <ele>1115.2</ele>
        <time>2021-08-24T15:01:32Z</time>
      </trkpt>
      <trkpt lat="45.30945" lon="5.77021">
        <ele>1115.5</ele>
        <time>2021-08-24T15:01:34Z</time>
      </trkpt>
      <trkpt lat="45.30945" lon="5.77023">
        <ele>1115.6</ele>
        <time>2021-08-24T15:01:35Z</time>
      </trkpt>
      <trkpt lat="45.30944" lon="5.77024">
        <ele>1115.7</ele>
        <time>2021-08-24T15:01:37Z</time>
      </trkpt>
      <trkpt lat="45.30944" lon="5.77025">
        <ele>1115.7</ele>
        <time>2021-08-24T15:01:38Z</time>
      </trkpt>
      <trkpt lat="45.30944" lon="5.77026">
        <ele>1115.7</ele>
        <time>2021-08-24T15:01:40Z</time>
      </trkpt>
      <trkpt lat="45.30944" lon="5.77027">
        <ele>1115.8</ele>
        <time>2021-08-24T15:01:42Z</time>
      </trkpt>
      <trkpt lat="45.30945" lon="5.77027">
        <ele>1115.8</ele>
        <time>2021-08-24T15:01:43Z</time>
      </trkpt>
      <trkpt lat="45.30945" lon="5.77029">
        <ele>1115.9</ele>
        <time>2021-08-24T15:01:45Z</time>
      </trkpt>
      <trkpt lat="45.30947" lon="5.77045">
        <ele>1116.7</ele>
        <time>2021-08-24T15:01:53Z</time>
      </trkpt>
      <trkpt lat="45.30947" lon="5.77051">
        <ele>1117</ele>
        <time>2021-08-24T15:01:54Z</time>
      </trkpt>
      <trkpt lat="45.30946" lon="5.77055">
        <ele>1117.3</ele>
        <time>2021-08-24T15:01:55Z</time>
      </trkpt>
      <trkpt lat="45.30946" lon="5.77057">
        <ele>1117.4</ele>
        <time>2021-08-24T15:01:56Z</time>
      </trkpt>
      <trkpt lat="45.30946" lon="5.77062">
        <ele>1117.6</ele>
        <time>2021-08-24T15:01:58Z</time>
      </trkpt>
      <trkpt lat="45.30947" lon="5.77067">
        <ele>1117.9</ele>
        <time>2021-08-24T15:01:59Z</time>
      </trkpt>
      <trkpt lat="45.30948" lon="5.77069">
        <ele>1118.1</ele>
        <time>2021-08-24T15:02:00Z</time>
      </trkpt>
      <trkpt lat="45.30949" lon="5.77071">
        <ele>1118.2</ele>
        <time>2021-08-24T15:02:01Z</time>
      </trkpt>
      <trkpt lat="45.3095" lon="5.77073">
        <ele>1118.3</ele>
        <time>2021-08-24T15:02:02Z</time>
      </trkpt>
      <trkpt lat="45.30951" lon="5.77075">
        <ele>1118.5</ele>
        <time>2021-08-24T15:02:03Z</time>
      </trkpt>
      <trkpt lat="45.30953" lon="5.77079">
        <ele>1118.7</ele>
        <time>2021-08-24T15:02:05Z</time>
      </trkpt>
      <trkpt lat="45.30955" lon="5.77082">
        <ele>1119</ele>
        <time>2021-08-24T15:02:06Z</time>
      </trkpt>
      <trkpt lat="45.30956" lon="5.77086">
        <ele>1119.2</ele>
        <time>2021-08-24T15:02:07Z</time>
      </trkpt>
      <trkpt lat="45.30957" lon="5.77089">
        <ele>1119.4</ele>
        <time>2021-08-24T15:02:09Z</time>
      </trkpt>
      <trkpt lat="45.30957" lon="5.77091">
        <ele>1119.5</ele>
        <time>2021-08-24T15:02:10Z</time>
      </trkpt>
      <trkpt lat="45.30958" lon="5.77094">
        <ele>1119.7</ele>
        <time>2021-08-24T15:02:11Z</time>
      </trkpt>
      <trkpt lat="45.30958" lon="5.77095">
        <ele>1119.7</ele>
        <time>2021-08-24T15:02:13Z</time>
      </trkpt>
      <trkpt lat="45.30959" lon="5.77096">
        <ele>1119.8</ele>
        <time>2021-08-24T15:02:14Z</time>
      </trkpt>
      <trkpt lat="45.30959" lon="5.77098">
        <ele>1119.9</ele>
        <time>2021-08-24T15:02:15Z</time>
      </trkpt>
      <trkpt lat="45.30959" lon="5.77099">
        <ele>1120</ele>
        <time>2021-08-24T15:02:17Z</time>
      </trkpt>
      <trkpt lat="45.3096" lon="5.771">
        <ele>1120.1</ele>
        <time>2021-08-24T15:02:18Z</time>
      </trkpt>
      <trkpt lat="45.3096" lon="5.77102">
        <ele>1120.2</ele>
        <time>2021-08-24T15:02:20Z</time>
      </trkpt>
      <trkpt lat="45.3096" lon="5.77104">
        <ele>1120.3</ele>
        <time>2021-08-24T15:02:21Z</time>
      </trkpt>
      <trkpt lat="45.3096" lon="5.77105">
        <ele>1120.4</ele>
        <time>2021-08-24T15:02:23Z</time>
      </trkpt>
      <trkpt lat="45.30961" lon="5.77106">
        <ele>1120.4</ele>
        <time>2021-08-24T15:02:24Z</time>
      </trkpt>
      <trkpt lat="45.30961" lon="5.77107">
        <ele>1120.4</ele>
        <time>2021-08-24T15:02:25Z</time>
      </trkpt>
      <trkpt lat="45.30961" lon="5.77107">
        <ele>1120.5</ele>
        <time>2021-08-24T15:02:26Z</time>
      </trkpt>
      <trkpt lat="45.30961" lon="5.77108">
        <ele>1120.5</ele>
        <time>2021-08-24T15:02:28Z</time>
      </trkpt>
      <trkpt lat="45.30961" lon="5.77108">
        <ele>1120.5</ele>
        <time>2021-08-24T15:02:29Z</time>
      </trkpt>
      <trkpt lat="45.30961" lon="5.77109">
        <ele>1120.6</ele>
        <time>2021-08-24T15:02:30Z</time>
      </trkpt>
      <trkpt lat="45.30966" lon="5.77128">
        <ele>1121.7</ele>
        <time>2021-08-24T15:02:37Z</time>
      </trkpt>
      <trkpt lat="45.30967" lon="5.77133">
        <ele>1122</ele>
        <time>2021-08-24T15:02:38Z</time>
      </trkpt>
      <trkpt lat="45.30968" lon="5.77136">
        <ele>1122.2</ele>
        <time>2021-08-24T15:02:39Z</time>
      </trkpt>
      <trkpt lat="45.30969" lon="5.77139">
        <ele>1122.4</ele>
        <time>2021-08-24T15:02:40Z</time>
      </trkpt>
      <trkpt lat="45.3097" lon="5.77143">
        <ele>1122.6</ele>
        <time>2021-08-24T15:02:41Z</time>
      </trkpt>
      <trkpt lat="45.30972" lon="5.77147">
        <ele>1122.9</ele>
        <time>2021-08-24T15:02:42Z</time>
      </trkpt>
      <trkpt lat="45.30972" lon="5.77149">
        <ele>1123</ele>
        <time>2021-08-24T15:02:43Z</time>
      </trkpt>
      <trkpt lat="45.30975" lon="5.77151">
        <ele>1123.3</ele>
        <time>2021-08-24T15:02:44Z</time>
      </trkpt>
      <trkpt lat="45.30975" lon="5.77153">
        <ele>1123.4</ele>
        <time>2021-08-24T15:02:45Z</time>
      </trkpt>
      <trkpt lat="45.30976" lon="5.77154">
        <ele>1123.5</ele>
        <time>2021-08-24T15:02:46Z</time>
      </trkpt>
      <trkpt lat="45.30977" lon="5.77154">
        <ele>1123.5</ele>
        <time>2021-08-24T15:02:47Z</time>
      </trkpt>
      <trkpt lat="45.30977" lon="5.77155">
        <ele>1123.6</ele>
        <time>2021-08-24T15:02:48Z</time>
      </trkpt>
      <trkpt lat="45.30978" lon="5.77156">
        <ele>1123.7</ele>
        <time>2021-08-24T15:02:49Z</time>
      </trkpt>
      <trkpt lat="45.30979" lon="5.77157">
        <ele>1123.8</ele>
        <time>2021-08-24T15:02:50Z</time>
      </trkpt>
      <trkpt lat="45.30981" lon="5.7716">
        <ele>1124.1</ele>
        <time>2021-08-24T15:02:52Z</time>
      </trkpt>
      <trkpt lat="45.30983" lon="5.77162">
        <ele>1124.3</ele>
        <time>2021-08-24T15:02:54Z</time>
      </trkpt>
      <trkpt lat="45.30984" lon="5.77163">
        <ele>1124.4</ele>
        <time>2021-08-24T15:02:56Z</time>
      </trkpt>
      <trkpt lat="45.30985" lon="5.77164">
        <ele>1124.6</ele>
        <time>2021-08-24T15:02:57Z</time>
      </trkpt>
      <trkpt lat="45.30988" lon="5.77169">
        <ele>1125</ele>
        <time>2021-08-24T15:02:59Z</time>
      </trkpt>
      <trkpt lat="45.30991" lon="5.77175">
        <ele>1125.4</ele>
        <time>2021-08-24T15:03:00Z</time>
      </trkpt>
      <trkpt lat="45.30993" lon="5.7718">
        <ele>1125.8</ele>
        <time>2021-08-24T15:03:02Z</time>
      </trkpt>
      <trkpt lat="45.30995" lon="5.77184">
        <ele>1126.1</ele>
        <time>2021-08-24T15:03:03Z</time>
      </trkpt>
      <trkpt lat="45.30998" lon="5.77189">
        <ele>1126.4</ele>
        <time>2021-08-24T15:03:04Z</time>
      </trkpt>
      <trkpt lat="45.31001" lon="5.77193">
        <ele>1126.7</ele>
        <time>2021-08-24T15:03:06Z</time>
      </trkpt>
      <trkpt lat="45.31004" lon="5.77199">
        <ele>1127.2</ele>
        <time>2021-08-24T15:03:08Z</time>
      </trkpt>
      <trkpt lat="45.31006" lon="5.77204">
        <ele>1127.5</ele>
        <time>2021-08-24T15:03:09Z</time>
      </trkpt>
      <trkpt lat="45.31007" lon="5.77209">
        <ele>1127.8</ele>
        <time>2021-08-24T15:03:11Z</time>
      </trkpt>
      <trkpt lat="45.31007" lon="5.77211">
        <ele>1127.9</ele>
        <time>2021-08-24T15:03:13Z</time>
      </trkpt>
      <trkpt lat="45.31007" lon="5.77213">
        <ele>1128</ele>
        <time>2021-08-24T15:03:14Z</time>
      </trkpt>
      <trkpt lat="45.31005" lon="5.77217">
        <ele>1128.2</ele>
        <time>2021-08-24T15:03:16Z</time>
      </trkpt>
      <trkpt lat="45.31004" lon="5.77218">
        <ele>1128.3</ele>
        <time>2021-08-24T15:03:17Z</time>
      </trkpt>
      <trkpt lat="45.31002" lon="5.77221">
        <ele>1128.5</ele>
        <time>2021-08-24T15:03:18Z</time>
      </trkpt>
      <trkpt lat="45.31001" lon="5.77221">
        <ele>1128.6</ele>
        <time>2021-08-24T15:03:19Z</time>
      </trkpt>
      <trkpt lat="45.31" lon="5.77221">
        <ele>1128.6</ele>
        <time>2021-08-24T15:03:21Z</time>
      </trkpt>
      <trkpt lat="45.31" lon="5.77222">
        <ele>1128.7</ele>
        <time>2021-08-24T15:03:23Z</time>
      </trkpt>
      <trkpt lat="45.30999" lon="5.77222">
        <ele>1128.7</ele>
        <time>2021-08-24T15:03:24Z</time>
      </trkpt>
      <trkpt lat="45.30999" lon="5.77222">
        <ele>1128.7</ele>
        <time>2021-08-24T15:03:25Z</time>
      </trkpt>
      <trkpt lat="45.30998" lon="5.77223">
        <ele>1128.8</ele>
        <time>2021-08-24T15:03:27Z</time>
      </trkpt>
      <trkpt lat="45.30997" lon="5.77224">
        <ele>1128.9</ele>
        <time>2021-08-24T15:03:28Z</time>
      </trkpt>
      <trkpt lat="45.30969" lon="5.77248">
        <ele>1131.2</ele>
        <time>2021-08-24T15:03:52Z</time>
      </trkpt>
      <trkpt lat="45.30967" lon="5.77252">
        <ele>1131.5</ele>
        <time>2021-08-24T15:03:53Z</time>
      </trkpt>
      <trkpt lat="45.30965" lon="5.77256">
        <ele>1131.8</ele>
        <time>2021-08-24T15:03:55Z</time>
      </trkpt>
      <trkpt lat="45.30965" lon="5.77258">
        <ele>1131.8</ele>
        <time>2021-08-24T15:03:56Z</time>
      </trkpt>
      <trkpt lat="45.30965" lon="5.7726">
        <ele>1132</ele>
        <time>2021-08-24T15:03:58Z</time>
      </trkpt>
      <trkpt lat="45.30965" lon="5.77261">
        <ele>1132</ele>
        <time>2021-08-24T15:03:59Z</time>
      </trkpt>
      <trkpt lat="45.30964" lon="5.77262">
        <ele>1132.1</ele>
        <time>2021-08-24T15:04:01Z</time>
      </trkpt>
      <trkpt lat="45.30964" lon="5.77263">
        <ele>1132.2</ele>
        <time>2021-08-24T15:04:03Z</time>
      </trkpt>
      <trkpt lat="45.30886" lon="5.77303">
        <ele>1140.9</ele>
        <time>2021-08-24T15:05:09Z</time>
      </trkpt>
      <trkpt lat="45.30883" lon="5.77305">
        <ele>1141.2</ele>
        <time>2021-08-24T15:05:10Z</time>
      </trkpt>
      <trkpt lat="45.3088" lon="5.77308">
        <ele>1141.5</ele>
        <time>2021-08-24T15:05:11Z</time>
      </trkpt>
      <trkpt lat="45.30876" lon="5.77313">
        <ele>1142.1</ele>
        <time>2021-08-24T15:05:13Z</time>
      </trkpt>
      <trkpt lat="45.30873" lon="5.77316">
        <ele>1142.5</ele>
        <time>2021-08-24T15:05:14Z</time>
      </trkpt>
      <trkpt lat="45.3087" lon="5.77318">
        <ele>1142.9</ele>
        <time>2021-08-24T15:05:16Z</time>
      </trkpt>
      <trkpt lat="45.30868" lon="5.77319">
        <ele>1143.1</ele>
        <time>2021-08-24T15:05:17Z</time>
      </trkpt>
      <trkpt lat="45.30866" lon="5.77321">
        <ele>1143.4</ele>
        <time>2021-08-24T15:05:19Z</time>
      </trkpt>
      <trkpt lat="45.30865" lon="5.77322">
        <ele>1143.5</ele>
        <time>2021-08-24T15:05:21Z</time>
      </trkpt>
      <trkpt lat="45.30865" lon="5.77322">
        <ele>1143.6</ele>
        <time>2021-08-24T15:05:22Z</time>
      </trkpt>
      <trkpt lat="45.30865" lon="5.77322">
        <ele>1143.6</ele>
        <time>2021-08-24T15:05:23Z</time>
      </trkpt>
      <trkpt lat="45.30865" lon="5.77323">
        <ele>1143.6</ele>
        <time>2021-08-24T15:05:25Z</time>
      </trkpt>
      <trkpt lat="45.30865" lon="5.77323">
        <ele>1143.6</ele>
        <time>2021-08-24T15:05:26Z</time>
      </trkpt>
      <trkpt lat="45.30864" lon="5.77323">
        <ele>1143.8</ele>
        <time>2021-08-24T15:05:28Z</time>
      </trkpt>
      <trkpt lat="45.30822" lon="5.77298">
        <ele>1148.8</ele>
        <time>2021-08-24T15:06:22Z</time>
      </trkpt>
      <trkpt lat="45.3082" lon="5.77296">
        <ele>1149</ele>
        <time>2021-08-24T15:06:23Z</time>
      </trkpt>
      <trkpt lat="45.30817" lon="5.77293">
        <ele>1149.4</ele>
        <time>2021-08-24T15:06:25Z</time>
      </trkpt>
      <trkpt lat="45.30816" lon="5.77292">
        <ele>1149.5</ele>
        <time>2021-08-24T15:06:26Z</time>
      </trkpt>
      <trkpt lat="45.30814" lon="5.77291">
        <ele>1149.6</ele>
        <time>2021-08-24T15:06:27Z</time>
      </trkpt>
      <trkpt lat="45.30813" lon="5.7729">
        <ele>1149.8</ele>
        <time>2021-08-24T15:06:28Z</time>
      </trkpt>
      <trkpt lat="45.30811" lon="5.77289">
        <ele>1149.9</ele>
        <time>2021-08-24T15:06:29Z</time>
      </trkpt>
      <trkpt lat="45.30809" lon="5.77287">
        <ele>1150.1</ele>
        <time>2021-08-24T15:06:31Z</time>
      </trkpt>
      <trkpt lat="45.30809" lon="5.77287">
        <ele>1150.2</ele>
        <time>2021-08-24T15:06:32Z</time>
      </trkpt>
      <trkpt lat="45.30808" lon="5.77286">
        <ele>1150.3</ele>
        <time>2021-08-24T15:06:33Z</time>
      </trkpt>
      <trkpt lat="45.30807" lon="5.77286">
        <ele>1150.4</ele>
        <time>2021-08-24T15:06:35Z</time>
      </trkpt>
      <trkpt lat="45.30807" lon="5.77286">
        <ele>1150.4</ele>
        <time>2021-08-24T15:06:36Z</time>
      </trkpt>
      <trkpt lat="45.30807" lon="5.77286">
        <ele>1150.4</ele>
        <time>2021-08-24T15:06:37Z</time>
      </trkpt>
      <trkpt lat="45.30806" lon="5.77286">
        <ele>1150.4</ele>
        <time>2021-08-24T15:06:38Z</time>
      </trkpt>
      <trkpt lat="45.30806" lon="5.77286">
        <ele>1150.5</ele>
        <time>2021-08-24T15:06:40Z</time>
      </trkpt>
      <trkpt lat="45.30805" lon="5.77285">
        <ele>1150.5</ele>
        <time>2021-08-24T15:06:41Z</time>
      </trkpt>
      <trkpt lat="45.30804" lon="5.77283">
        <ele>1150.7</ele>
        <time>2021-08-24T15:06:42Z</time>
      </trkpt>
      <trkpt lat="45.30796" lon="5.7727">
        <ele>1151.8</ele>
        <time>2021-08-24T15:06:49Z</time>
      </trkpt>
      <trkpt lat="45.30795" lon="5.77266">
        <ele>1152.2</ele>
        <time>2021-08-24T15:06:50Z</time>
      </trkpt>
      <trkpt lat="45.30793" lon="5.77258">
        <ele>1152.7</ele>
        <time>2021-08-24T15:06:52Z</time>
      </trkpt>
      <trkpt lat="45.30791" lon="5.77252">
        <ele>1153.2</ele>
        <time>2021-08-24T15:06:54Z</time>
      </trkpt>
      <trkpt lat="45.30789" lon="5.77244">
        <ele>1153.7</ele>
        <time>2021-08-24T15:06:55Z</time>
      </trkpt>
      <trkpt lat="45.30788" lon="5.77241">
        <ele>1153.8</ele>
        <time>2021-08-24T15:06:57Z</time>
      </trkpt>
      <trkpt lat="45.30788" lon="5.77238">
        <ele>1153.8</ele>
        <time>2021-08-24T15:06:58Z</time>
      </trkpt>
      <trkpt lat="45.30786" lon="5.77233">
        <ele>1153.8</ele>
        <time>2021-08-24T15:07:00Z</time>
      </trkpt>
      <trkpt lat="45.30784" lon="5.77227">
        <ele>1153.9</ele>
        <time>2021-08-24T15:07:01Z</time>
      </trkpt>
      <trkpt lat="45.30784" lon="5.77222">
        <ele>1153.9</ele>
        <time>2021-08-24T15:07:03Z</time>
      </trkpt>
      <trkpt lat="45.30783" lon="5.7722">
        <ele>1153.9</ele>
        <time>2021-08-24T15:07:04Z</time>
      </trkpt>
      <trkpt lat="45.30783" lon="5.77219">
        <ele>1153.9</ele>
        <time>2021-08-24T15:07:05Z</time>
      </trkpt>
      <trkpt lat="45.30783" lon="5.77217">
        <ele>1153.9</ele>
        <time>2021-08-24T15:07:07Z</time>
      </trkpt>
      <trkpt lat="45.30782" lon="5.77217">
        <ele>1153.9</ele>
        <time>2021-08-24T15:07:08Z</time>
      </trkpt>
      <trkpt lat="45.30781" lon="5.77217">
        <ele>1153.9</ele>
        <time>2021-08-24T15:07:09Z</time>
      </trkpt>
      <trkpt lat="45.30781" lon="5.77216">
        <ele>1153.9</ele>
        <time>2021-08-24T15:07:10Z</time>
      </trkpt>
      <trkpt lat="45.30781" lon="5.77216">
        <ele>1153.9</ele>
        <time>2021-08-24T15:07:12Z</time>
      </trkpt>
      <trkpt lat="45.3078" lon="5.77217">
        <ele>1153.9</ele>
        <time>2021-08-24T15:07:13Z</time>
      </trkpt>
      <trkpt lat="45.3078" lon="5.77217">
        <ele>1153.9</ele>
        <time>2021-08-24T15:07:14Z</time>
      </trkpt>
      <trkpt lat="45.3078" lon="5.77217">
        <ele>1153.9</ele>
        <time>2021-08-24T15:07:15Z</time>
      </trkpt>
      <trkpt lat="45.3078" lon="5.77217">
        <ele>1153.9</ele>
        <time>2021-08-24T15:07:17Z</time>
      </trkpt>
      <trkpt lat="45.30781" lon="5.77217">
        <ele>1153.9</ele>
        <time>2021-08-24T15:07:19Z</time>
      </trkpt>
      <trkpt lat="45.30781" lon="5.77217">
        <ele>1153.9</ele>
        <time>2021-08-24T15:07:20Z</time>
      </trkpt>
      <trkpt lat="45.30683" lon="5.77264">
        <ele>1161.6</ele>
        <time>2021-08-24T15:08:40Z</time>
      </trkpt>
      <trkpt lat="45.30685" lon="5.77263">
        <ele>1161.8</ele>
        <time>2021-08-24T15:08:41Z</time>
      </trkpt>
      <trkpt lat="45.30689" lon="5.77262">
        <ele>1162.1</ele>
        <time>2021-08-24T15:08:42Z</time>
      </trkpt>
      <trkpt lat="45.30707" lon="5.77255">
        <ele>1163.6</ele>
        <time>2021-08-24T15:08:44Z</time>
      </trkpt>
      <trkpt lat="45.30707" lon="5.77253">
        <ele>1163.7</ele>
        <time>2021-08-24T15:08:46Z</time>
      </trkpt>
      <trkpt lat="45.30707" lon="5.77251">
        <ele>1163.8</ele>
        <time>2021-08-24T15:08:47Z</time>
      </trkpt>
      <trkpt lat="45.3071" lon="5.77248">
        <ele>1164.1</ele>
        <time>2021-08-24T15:08:48Z</time>
      </trkpt>
      <trkpt lat="45.30712" lon="5.77245">
        <ele>1164.3</ele>
        <time>2021-08-24T15:08:50Z</time>
      </trkpt>
      <trkpt lat="45.30712" lon="5.77244">
        <ele>1164.4</ele>
        <time>2021-08-24T15:08:51Z</time>
      </trkpt>
      <trkpt lat="45.30712" lon="5.77244">
        <ele>1164.4</ele>
        <time>2021-08-24T15:08:52Z</time>
      </trkpt>
      <trkpt lat="45.30712" lon="5.77243">
        <ele>1164.4</ele>
        <time>2021-08-24T15:08:53Z</time>
      </trkpt>
      <trkpt lat="45.30712" lon="5.77244">
        <ele>1164.4</ele>
        <time>2021-08-24T15:08:55Z</time>
      </trkpt>
      <trkpt lat="45.30711" lon="5.77245">
        <ele>1164.5</ele>
        <time>2021-08-24T15:08:56Z</time>
      </trkpt>
      <trkpt lat="45.30711" lon="5.77246">
        <ele>1164.6</ele>
        <time>2021-08-24T15:08:58Z</time>
      </trkpt>
      <trkpt lat="45.30662" lon="5.77211">
        <ele>1169.3</ele>
        <time>2021-08-24T15:09:51Z</time>
      </trkpt>
      <trkpt lat="45.3066" lon="5.77208">
        <ele>1169.5</ele>
        <time>2021-08-24T15:09:52Z</time>
      </trkpt>
      <trkpt lat="45.30659" lon="5.77206">
        <ele>1169.7</ele>
        <time>2021-08-24T15:09:53Z</time>
      </trkpt>
      <trkpt lat="45.30658" lon="5.77202">
        <ele>1169.9</ele>
        <time>2021-08-24T15:09:55Z</time>
      </trkpt>
      <trkpt lat="45.30655" lon="5.77198">
        <ele>1170.2</ele>
        <time>2021-08-24T15:09:56Z</time>
      </trkpt>
      <trkpt lat="45.30654" lon="5.77197">
        <ele>1170.3</ele>
        <time>2021-08-24T15:09:57Z</time>
      </trkpt>
      <trkpt lat="45.30653" lon="5.77195">
        <ele>1170.5</ele>
        <time>2021-08-24T15:09:59Z</time>
      </trkpt>
      <trkpt lat="45.30653" lon="5.77195">
        <ele>1170.5</ele>
        <time>2021-08-24T15:10:00Z</time>
      </trkpt>
      <trkpt lat="45.30652" lon="5.77194">
        <ele>1170.6</ele>
        <time>2021-08-24T15:10:02Z</time>
      </trkpt>
      <trkpt lat="45.30652" lon="5.77193">
        <ele>1170.7</ele>
        <time>2021-08-24T15:10:04Z</time>
      </trkpt>
      <trkpt lat="45.30651" lon="5.77191">
        <ele>1170.8</ele>
        <time>2021-08-24T15:10:05Z</time>
      </trkpt>
      <trkpt lat="45.30615" lon="5.77138">
        <ele>1175.1</ele>
        <time>2021-08-24T15:10:46Z</time>
      </trkpt>
      <trkpt lat="45.30614" lon="5.77135">
        <ele>1175.3</ele>
        <time>2021-08-24T15:10:47Z</time>
      </trkpt>
      <trkpt lat="45.30612" lon="5.77129">
        <ele>1175.6</ele>
        <time>2021-08-24T15:10:49Z</time>
      </trkpt>
      <trkpt lat="45.30612" lon="5.77124">
        <ele>1176</ele>
        <time>2021-08-24T15:10:50Z</time>
      </trkpt>
      <trkpt lat="45.30611" lon="5.77118">
        <ele>1176.4</ele>
        <time>2021-08-24T15:10:52Z</time>
      </trkpt>
      <trkpt lat="45.3061" lon="5.77115">
        <ele>1176.6</ele>
        <time>2021-08-24T15:10:53Z</time>
      </trkpt>
      <trkpt lat="45.30609" lon="5.77113">
        <ele>1176.7</ele>
        <time>2021-08-24T15:10:55Z</time>
      </trkpt>
      <trkpt lat="45.30609" lon="5.77113">
        <ele>1176.7</ele>
        <time>2021-08-24T15:10:56Z</time>
      </trkpt>
      <trkpt lat="45.30609" lon="5.77113">
        <ele>1176.7</ele>
        <time>2021-08-24T15:10:57Z</time>
      </trkpt>
      <trkpt lat="45.30609" lon="5.77112">
        <ele>1176.8</ele>
        <time>2021-08-24T15:10:59Z</time>
      </trkpt>
      <trkpt lat="45.30608" lon="5.77112">
        <ele>1176.8</ele>
        <time>2021-08-24T15:11:00Z</time>
      </trkpt>
      <trkpt lat="45.30608" lon="5.77112">
        <ele>1176.8</ele>
        <time>2021-08-24T15:11:01Z</time>
      </trkpt>
      <trkpt lat="45.30608" lon="5.77111">
        <ele>1176.8</ele>
        <time>2021-08-24T15:11:03Z</time>
      </trkpt>
      <trkpt lat="45.30604" lon="5.77095">
        <ele>1177.9</ele>
        <time>2021-08-24T15:11:10Z</time>
      </trkpt>
      <trkpt lat="45.30603" lon="5.77088">
        <ele>1178.2</ele>
        <time>2021-08-24T15:11:12Z</time>
      </trkpt>
      <trkpt lat="45.30602" lon="5.77085">
        <ele>1178.4</ele>
        <time>2021-08-24T15:11:13Z</time>
      </trkpt>
      <trkpt lat="45.30601" lon="5.77079">
        <ele>1178.8</ele>
        <time>2021-08-24T15:11:15Z</time>
      </trkpt>
      <trkpt lat="45.30601" lon="5.77076">
        <ele>1179</ele>
        <time>2021-08-24T15:11:16Z</time>
      </trkpt>
      <trkpt lat="45.306" lon="5.7707">
        <ele>1179.3</ele>
        <time>2021-08-24T15:11:18Z</time>
      </trkpt>
      <trkpt lat="45.30601" lon="5.77068">
        <ele>1179.4</ele>
        <time>2021-08-24T15:11:19Z</time>
      </trkpt>
      <trkpt lat="45.30601" lon="5.77063">
        <ele>1179.7</ele>
        <time>2021-08-24T15:11:21Z</time>
      </trkpt>
      <trkpt lat="45.30602" lon="5.77061">
        <ele>1179.8</ele>
        <time>2021-08-24T15:11:22Z</time>
      </trkpt>
      <trkpt lat="45.30602" lon="5.77059">
        <ele>1179.9</ele>
        <time>2021-08-24T15:11:23Z</time>
      </trkpt>
      <trkpt lat="45.30602" lon="5.77057">
        <ele>1180.1</ele>
        <time>2021-08-24T15:11:25Z</time>
      </trkpt>
      <trkpt lat="45.30602" lon="5.77055">
        <ele>1180.2</ele>
        <time>2021-08-24T15:11:26Z</time>
      </trkpt>
      <trkpt lat="45.30603" lon="5.77054">
        <ele>1180.3</ele>
        <time>2021-08-24T15:11:27Z</time>
      </trkpt>
      <trkpt lat="45.30604" lon="5.77052">
        <ele>1180.4</ele>
        <time>2021-08-24T15:11:28Z</time>
      </trkpt>
      <trkpt lat="45.30604" lon="5.7705">
        <ele>1180.5</ele>
        <time>2021-08-24T15:11:30Z</time>
      </trkpt>
      <trkpt lat="45.30604" lon="5.77048">
        <ele>1180.6</ele>
        <time>2021-08-24T15:11:31Z</time>
      </trkpt>
      <trkpt lat="45.30604" lon="5.77045">
        <ele>1180.8</ele>
        <time>2021-08-24T15:11:33Z</time>
      </trkpt>
      <trkpt lat="45.30605" lon="5.77042">
        <ele>1180.9</ele>
        <time>2021-08-24T15:11:34Z</time>
      </trkpt>
      <trkpt lat="45.30604" lon="5.77041">
        <ele>1180.9</ele>
        <time>2021-08-24T15:11:35Z</time>
      </trkpt>
      <trkpt lat="45.30604" lon="5.77039">
        <ele>1181.1</ele>
        <time>2021-08-24T15:11:37Z</time>
      </trkpt>
      <trkpt lat="45.30604" lon="5.77036">
        <ele>1181.2</ele>
        <time>2021-08-24T15:11:39Z</time>
      </trkpt>
      <trkpt lat="45.30604" lon="5.77034">
        <ele>1181.3</ele>
        <time>2021-08-24T15:11:40Z</time>
      </trkpt>
      <trkpt lat="45.30603" lon="5.77033">
        <ele>1181.4</ele>
        <time>2021-08-24T15:11:41Z</time>
      </trkpt>
      <trkpt lat="45.30603" lon="5.77032">
        <ele>1181.5</ele>
        <time>2021-08-24T15:11:42Z</time>
      </trkpt>
      <trkpt lat="45.30602" lon="5.77031">
        <ele>1181.6</ele>
        <time>2021-08-24T15:11:43Z</time>
      </trkpt>
      <trkpt lat="45.30599" lon="5.77027">
        <ele>1181.9</ele>
        <time>2021-08-24T15:11:45Z</time>
      </trkpt>
      <trkpt lat="45.30597" lon="5.77023">
        <ele>1182.2</ele>
        <time>2021-08-24T15:11:46Z</time>
      </trkpt>
      <trkpt lat="45.30595" lon="5.7702">
        <ele>1182.4</ele>
        <time>2021-08-24T15:11:48Z</time>
      </trkpt>
      <trkpt lat="45.30594" lon="5.77016">
        <ele>1182.7</ele>
        <time>2021-08-24T15:11:49Z</time>
      </trkpt>
      <trkpt lat="45.30592" lon="5.77012">
        <ele>1182.9</ele>
        <time>2021-08-24T15:11:51Z</time>
      </trkpt>
      <trkpt lat="45.3059" lon="5.77008">
        <ele>1183.2</ele>
        <time>2021-08-24T15:11:52Z</time>
      </trkpt>
      <trkpt lat="45.30588" lon="5.77005">
        <ele>1183.5</ele>
        <time>2021-08-24T15:11:53Z</time>
      </trkpt>
      <trkpt lat="45.30587" lon="5.77001">
        <ele>1183.7</ele>
        <time>2021-08-24T15:12:15Z</time>
      </trkpt>
      <trkpt lat="45.30585" lon="5.76997">
        <ele>1184</ele>
        <time>2021-08-24T15:12:16Z</time>
      </trkpt>
      <trkpt lat="45.30583" lon="5.76994">
        <ele>1184.3</ele>
        <time>2021-08-24T15:12:17Z</time>
      </trkpt>
      <trkpt lat="45.30578" lon="5.76991">
        <ele>1184.7</ele>
        <time>2021-08-24T15:12:19Z</time>
      </trkpt>
      <trkpt lat="45.30576" lon="5.7699">
        <ele>1184.9</ele>
        <time>2021-08-24T15:12:20Z</time>
      </trkpt>
      <trkpt lat="45.30574" lon="5.76989">
        <ele>1185.1</ele>
        <time>2021-08-24T15:12:21Z</time>
      </trkpt>
      <trkpt lat="45.30571" lon="5.76987">
        <ele>1185.4</ele>
        <time>2021-08-24T15:12:23Z</time>
      </trkpt>
      <trkpt lat="45.3057" lon="5.76986">
        <ele>1185.5</ele>
        <time>2021-08-24T15:12:24Z</time>
      </trkpt>
      <trkpt lat="45.30569" lon="5.76985">
        <ele>1185.6</ele>
        <time>2021-08-24T15:12:25Z</time>
      </trkpt>
      <trkpt lat="45.30569" lon="5.76984">
        <ele>1185.6</ele>
        <time>2021-08-24T15:12:26Z</time>
      </trkpt>
      <trkpt lat="45.30568" lon="5.7698">
        <ele>1185.9</ele>
        <time>2021-08-24T15:12:27Z</time>
      </trkpt>
      <trkpt lat="45.30568" lon="5.76979">
        <ele>1186</ele>
        <time>2021-08-24T15:12:28Z</time>
      </trkpt>
      <trkpt lat="45.30567" lon="5.76974">
        <ele>1186.3</ele>
        <time>2021-08-24T15:12:30Z</time>
      </trkpt>
      <trkpt lat="45.30568" lon="5.76973">
        <ele>1186.3</ele>
        <time>2021-08-24T15:12:31Z</time>
      </trkpt>
      <trkpt lat="45.30568" lon="5.76971">
        <ele>1186.5</ele>
        <time>2021-08-24T15:12:32Z</time>
      </trkpt>
      <trkpt lat="45.30567" lon="5.76969">
        <ele>1186.6</ele>
        <time>2021-08-24T15:12:33Z</time>
      </trkpt>
      <trkpt lat="45.30567" lon="5.76967">
        <ele>1186.7</ele>
        <time>2021-08-24T15:12:34Z</time>
      </trkpt>
      <trkpt lat="45.30567" lon="5.76966">
        <ele>1186.8</ele>
        <time>2021-08-24T15:12:37Z</time>
      </trkpt>
      <trkpt lat="45.30566" lon="5.76965">
        <ele>1186.8</ele>
        <time>2021-08-24T15:12:38Z</time>
      </trkpt>
      <trkpt lat="45.30566" lon="5.76964">
        <ele>1186.9</ele>
        <time>2021-08-24T15:12:40Z</time>
      </trkpt>
      <trkpt lat="45.30565" lon="5.76963">
        <ele>1187</ele>
        <time>2021-08-24T15:12:41Z</time>
      </trkpt>
      <trkpt lat="45.30565" lon="5.7696">
        <ele>1187.1</ele>
        <time>2021-08-24T15:12:43Z</time>
      </trkpt>
      <trkpt lat="45.30562" lon="5.76948">
        <ele>1187.9</ele>
        <time>2021-08-24T15:12:47Z</time>
      </trkpt>
      <trkpt lat="45.3056" lon="5.76943">
        <ele>1188.2</ele>
        <time>2021-08-24T15:12:48Z</time>
      </trkpt>
      <trkpt lat="45.30559" lon="5.76941">
        <ele>1188.3</ele>
        <time>2021-08-24T15:12:49Z</time>
      </trkpt>
      <trkpt lat="45.30556" lon="5.76934">
        <ele>1188.8</ele>
        <time>2021-08-24T15:12:50Z</time>
      </trkpt>
      <trkpt lat="45.30553" lon="5.7693">
        <ele>1189</ele>
        <time>2021-08-24T15:12:51Z</time>
      </trkpt>
      <trkpt lat="45.30552" lon="5.76927">
        <ele>1189.3</ele>
        <time>2021-08-24T15:12:53Z</time>
      </trkpt>
      <trkpt lat="45.30551" lon="5.76925">
        <ele>1189.4</ele>
        <time>2021-08-24T15:12:54Z</time>
      </trkpt>
      <trkpt lat="45.3055" lon="5.76922">
        <ele>1189.5</ele>
        <time>2021-08-24T15:12:56Z</time>
      </trkpt>
      <trkpt lat="45.30549" lon="5.7692">
        <ele>1189.7</ele>
        <time>2021-08-24T15:12:57Z</time>
      </trkpt>
      <trkpt lat="45.30548" lon="5.76922">
        <ele>1189.8</ele>
        <time>2021-08-24T15:12:58Z</time>
      </trkpt>
      <trkpt lat="45.30548" lon="5.76922">
        <ele>1189.8</ele>
        <time>2021-08-24T15:13:00Z</time>
      </trkpt>
      <trkpt lat="45.30547" lon="5.76922">
        <ele>1189.9</ele>
        <time>2021-08-24T15:13:01Z</time>
      </trkpt>
      <trkpt lat="45.30547" lon="5.76922">
        <ele>1189.9</ele>
        <time>2021-08-24T15:13:03Z</time>
      </trkpt>
      <trkpt lat="45.30547" lon="5.76921">
        <ele>1189.9</ele>
        <time>2021-08-24T15:13:04Z</time>
      </trkpt>
      <trkpt lat="45.30546" lon="5.7692">
        <ele>1190</ele>
        <time>2021-08-24T15:13:06Z</time>
      </trkpt>
      <trkpt lat="45.30544" lon="5.76917">
        <ele>1190.2</ele>
        <time>2021-08-24T15:13:07Z</time>
      </trkpt>
      <trkpt lat="45.30534" lon="5.76891">
        <ele>1191.8</ele>
        <time>2021-08-24T15:13:24Z</time>
      </trkpt>
      <trkpt lat="45.30534" lon="5.76888">
        <ele>1192</ele>
        <time>2021-08-24T15:13:25Z</time>
      </trkpt>
      <trkpt lat="45.30533" lon="5.76886">
        <ele>1192.1</ele>
        <time>2021-08-24T15:13:26Z</time>
      </trkpt>
      <trkpt lat="45.30533" lon="5.76883">
        <ele>1192.2</ele>
        <time>2021-08-24T15:13:27Z</time>
      </trkpt>
      <trkpt lat="45.30533" lon="5.76882">
        <ele>1192.3</ele>
        <time>2021-08-24T15:13:29Z</time>
      </trkpt>
      <trkpt lat="45.30533" lon="5.76881">
        <ele>1192.3</ele>
        <time>2021-08-24T15:13:30Z</time>
      </trkpt>
      <trkpt lat="45.30532" lon="5.7688">
        <ele>1192.4</ele>
        <time>2021-08-24T15:13:31Z</time>
      </trkpt>
      <trkpt lat="45.30532" lon="5.76877">
        <ele>1192.6</ele>
        <time>2021-08-24T15:13:32Z</time>
      </trkpt>
      <trkpt lat="45.30532" lon="5.76874">
        <ele>1192.7</ele>
        <time>2021-08-24T15:13:34Z</time>
      </trkpt>
      <trkpt lat="45.30532" lon="5.76873">
        <ele>1192.8</ele>
        <time>2021-08-24T15:13:35Z</time>
      </trkpt>
      <trkpt lat="45.30517" lon="5.76837">
        <ele>1195</ele>
        <time>2021-08-24T15:14:00Z</time>
      </trkpt>
      <trkpt lat="45.30513" lon="5.76829">
        <ele>1195.5</ele>
        <time>2021-08-24T15:14:02Z</time>
      </trkpt>
      <trkpt lat="45.30507" lon="5.76825">
        <ele>1196</ele>
        <time>2021-08-24T15:14:03Z</time>
      </trkpt>
      <trkpt lat="45.30501" lon="5.76822">
        <ele>1196.4</ele>
        <time>2021-08-24T15:14:05Z</time>
      </trkpt>
      <trkpt lat="45.30496" lon="5.76819">
        <ele>1196.9</ele>
        <time>2021-08-24T15:14:06Z</time>
      </trkpt>
      <trkpt lat="45.30491" lon="5.76815">
        <ele>1197.2</ele>
        <time>2021-08-24T15:14:08Z</time>
      </trkpt>
      <trkpt lat="45.30489" lon="5.76814">
        <ele>1197.4</ele>
        <time>2021-08-24T15:14:09Z</time>
      </trkpt>
      <trkpt lat="45.30485" lon="5.76811">
        <ele>1197.8</ele>
        <time>2021-08-24T15:14:11Z</time>
      </trkpt>
      <trkpt lat="45.30482" lon="5.76808">
        <ele>1198</ele>
        <time>2021-08-24T15:14:13Z</time>
      </trkpt>
      <trkpt lat="45.30479" lon="5.76806">
        <ele>1198.3</ele>
        <time>2021-08-24T15:14:15Z</time>
      </trkpt>
      <trkpt lat="45.30476" lon="5.76805">
        <ele>1198.5</ele>
        <time>2021-08-24T15:14:16Z</time>
      </trkpt>
      <trkpt lat="45.30473" lon="5.76805">
        <ele>1198.6</ele>
        <time>2021-08-24T15:14:17Z</time>
      </trkpt>
      <trkpt lat="45.30472" lon="5.76804">
        <ele>1198.7</ele>
        <time>2021-08-24T15:14:19Z</time>
      </trkpt>
      <trkpt lat="45.30471" lon="5.76803">
        <ele>1198.8</ele>
        <time>2021-08-24T15:14:20Z</time>
      </trkpt>
      <trkpt lat="45.30469" lon="5.76803">
        <ele>1198.9</ele>
        <time>2021-08-24T15:14:21Z</time>
      </trkpt>
      <trkpt lat="45.30467" lon="5.76801">
        <ele>1199.1</ele>
        <time>2021-08-24T15:14:23Z</time>
      </trkpt>
      <trkpt lat="45.30465" lon="5.76802">
        <ele>1199.2</ele>
        <time>2021-08-24T15:14:25Z</time>
      </trkpt>
      <trkpt lat="45.30465" lon="5.76803">
        <ele>1199.3</ele>
        <time>2021-08-24T15:14:26Z</time>
      </trkpt>
      <trkpt lat="45.30464" lon="5.76804">
        <ele>1199.3</ele>
        <time>2021-08-24T15:14:28Z</time>
      </trkpt>
      <trkpt lat="45.30463" lon="5.76804">
        <ele>1199.4</ele>
        <time>2021-08-24T15:14:29Z</time>
      </trkpt>
      <trkpt lat="45.30459" lon="5.76803">
        <ele>1199.6</ele>
        <time>2021-08-24T15:14:31Z</time>
      </trkpt>
      <trkpt lat="45.30457" lon="5.76802">
        <ele>1199.7</ele>
        <time>2021-08-24T15:14:32Z</time>
      </trkpt>
      <trkpt lat="45.30454" lon="5.76801">
        <ele>1199.9</ele>
        <time>2021-08-24T15:14:34Z</time>
      </trkpt>
      <trkpt lat="45.30452" lon="5.768">
        <ele>1200</ele>
        <time>2021-08-24T15:14:35Z</time>
      </trkpt>
      <trkpt lat="45.3045" lon="5.76798">
        <ele>1200.2</ele>
        <time>2021-08-24T15:14:37Z</time>
      </trkpt>
      <trkpt lat="45.30449" lon="5.76798">
        <ele>1200.2</ele>
        <time>2021-08-24T15:14:39Z</time>
      </trkpt>
      <trkpt lat="45.30449" lon="5.76797">
        <ele>1200.2</ele>
        <time>2021-08-24T15:14:40Z</time>
      </trkpt>
      <trkpt lat="45.30448" lon="5.76797">
        <ele>1200.3</ele>
        <time>2021-08-24T15:14:42Z</time>
      </trkpt>
      <trkpt lat="45.30447" lon="5.76797">
        <ele>1200.3</ele>
        <time>2021-08-24T15:14:43Z</time>
      </trkpt>
      <trkpt lat="45.30447" lon="5.76797">
        <ele>1200.3</ele>
        <time>2021-08-24T15:14:44Z</time>
      </trkpt>
      <trkpt lat="45.30447" lon="5.76797">
        <ele>1200.4</ele>
        <time>2021-08-24T15:14:46Z</time>
      </trkpt>
      <trkpt lat="45.3029" lon="5.76795">
        <ele>1204.1</ele>
        <time>2021-08-24T15:15:48Z</time>
      </trkpt>
      <trkpt lat="45.30287" lon="5.76796">
        <ele>1204.1</ele>
        <time>2021-08-24T15:15:49Z</time>
      </trkpt>
      <trkpt lat="45.30282" lon="5.76796">
        <ele>1204.1</ele>
        <time>2021-08-24T15:15:51Z</time>
      </trkpt>
      <trkpt lat="45.30281" lon="5.76796">
        <ele>1204.1</ele>
        <time>2021-08-24T15:15:52Z</time>
      </trkpt>
      <trkpt lat="45.30279" lon="5.76796">
        <ele>1204.2</ele>
        <time>2021-08-24T15:15:53Z</time>
      </trkpt>
      <trkpt lat="45.30277" lon="5.76797">
        <ele>1204.2</ele>
        <time>2021-08-24T15:15:54Z</time>
      </trkpt>
      <trkpt lat="45.30274" lon="5.76798">
        <ele>1204.2</ele>
        <time>2021-08-24T15:15:55Z</time>
      </trkpt>
      <trkpt lat="45.30273" lon="5.76798">
        <ele>1204.2</ele>
        <time>2021-08-24T15:15:56Z</time>
      </trkpt>
      <trkpt lat="45.30273" lon="5.76799">
        <ele>1204.2</ele>
        <time>2021-08-24T15:15:57Z</time>
      </trkpt>
      <trkpt lat="45.30272" lon="5.768">
        <ele>1204.2</ele>
        <time>2021-08-24T15:15:58Z</time>
      </trkpt>
      <trkpt lat="45.30272" lon="5.768">
        <ele>1204.2</ele>
        <time>2021-08-24T15:15:59Z</time>
      </trkpt>
      <trkpt lat="45.30271" lon="5.76801">
        <ele>1204.2</ele>
        <time>2021-08-24T15:16:01Z</time>
      </trkpt>
      <trkpt lat="45.30271" lon="5.76801">
        <ele>1204.2</ele>
        <time>2021-08-24T15:16:02Z</time>
      </trkpt>
      <trkpt lat="45.30271" lon="5.76801">
        <ele>1204.2</ele>
        <time>2021-08-24T15:16:03Z</time>
      </trkpt>
      <trkpt lat="45.30271" lon="5.76802">
        <ele>1204.2</ele>
        <time>2021-08-24T15:16:05Z</time>
      </trkpt>
      <trkpt lat="45.3027" lon="5.76803">
        <ele>1204.2</ele>
        <time>2021-08-24T15:16:06Z</time>
      </trkpt>
      <trkpt lat="45.30255" lon="5.76826">
        <ele>1204.5</ele>
        <time>2021-08-24T15:16:13Z</time>
      </trkpt>
      <trkpt lat="45.3025" lon="5.76833">
        <ele>1204.7</ele>
        <time>2021-08-24T15:16:15Z</time>
      </trkpt>
      <trkpt lat="45.30246" lon="5.76837">
        <ele>1204.8</ele>
        <time>2021-08-24T15:16:17Z</time>
      </trkpt>
      <trkpt lat="45.30243" lon="5.7684">
        <ele>1204.9</ele>
        <time>2021-08-24T15:16:19Z</time>
      </trkpt>
      <trkpt lat="45.30241" lon="5.76842">
        <ele>1205</ele>
        <time>2021-08-24T15:16:20Z</time>
      </trkpt>
      <trkpt lat="45.30239" lon="5.76843">
        <ele>1205</ele>
        <time>2021-08-24T15:16:21Z</time>
      </trkpt>
      <trkpt lat="45.30236" lon="5.76846">
        <ele>1205.1</ele>
        <time>2021-08-24T15:16:22Z</time>
      </trkpt>
      <trkpt lat="45.30235" lon="5.76847">
        <ele>1205.2</ele>
        <time>2021-08-24T15:16:23Z</time>
      </trkpt>
      <trkpt lat="45.30233" lon="5.7685">
        <ele>1205.3</ele>
        <time>2021-08-24T15:16:25Z</time>
      </trkpt>
      <trkpt lat="45.30231" lon="5.76851">
        <ele>1205.3</ele>
        <time>2021-08-24T15:16:26Z</time>
      </trkpt>
      <trkpt lat="45.30229" lon="5.76853">
        <ele>1205.4</ele>
        <time>2021-08-24T15:16:27Z</time>
      </trkpt>
      <trkpt lat="45.30227" lon="5.76855">
        <ele>1205.5</ele>
        <time>2021-08-24T15:16:28Z</time>
      </trkpt>
      <trkpt lat="45.30223" lon="5.76858">
        <ele>1205.6</ele>
        <time>2021-08-24T15:16:30Z</time>
      </trkpt>
      <trkpt lat="45.30222" lon="5.76859">
        <ele>1205.7</ele>
        <time>2021-08-24T15:16:31Z</time>
      </trkpt>
      <trkpt lat="45.3022" lon="5.7686">
        <ele>1205.7</ele>
        <time>2021-08-24T15:16:32Z</time>
      </trkpt>
      <trkpt lat="45.30216" lon="5.76863">
        <ele>1205.9</ele>
        <time>2021-08-24T15:16:34Z</time>
      </trkpt>
      <trkpt lat="45.30214" lon="5.76866">
        <ele>1206</ele>
        <time>2021-08-24T15:16:35Z</time>
      </trkpt>
      <trkpt lat="45.30212" lon="5.76869">
        <ele>1206.1</ele>
        <time>2021-08-24T15:16:36Z</time>
      </trkpt>
      <trkpt lat="45.30209" lon="5.76873">
        <ele>1206.3</ele>
        <time>2021-08-24T15:16:38Z</time>
      </trkpt>
      <trkpt lat="45.30207" lon="5.76878">
        <ele>1206.6</ele>
        <time>2021-08-24T15:16:40Z</time>
      </trkpt>
      <trkpt lat="45.30205" lon="5.76884">
        <ele>1207</ele>
        <time>2021-08-24T15:16:42Z</time>
      </trkpt>
      <trkpt lat="45.30204" lon="5.76892">
        <ele>1207.5</ele>
        <time>2021-08-24T15:16:44Z</time>
      </trkpt>
      <trkpt lat="45.30203" lon="5.76898">
        <ele>1207.8</ele>
        <time>2021-08-24T15:16:45Z</time>
      </trkpt>
      <trkpt lat="45.30203" lon="5.76902">
        <ele>1208.1</ele>
        <time>2021-08-24T15:16:47Z</time>
      </trkpt>
      <trkpt lat="45.30203" lon="5.76909">
        <ele>1208.6</ele>
        <time>2021-08-24T15:16:49Z</time>
      </trkpt>
      <trkpt lat="45.30203" lon="5.76915">
        <ele>1209.1</ele>
        <time>2021-08-24T15:16:50Z</time>
      </trkpt>
      <trkpt lat="45.30203" lon="5.76918">
        <ele>1209.3</ele>
        <time>2021-08-24T15:16:51Z</time>
      </trkpt>
      <trkpt lat="45.30203" lon="5.76922">
        <ele>1209.6</ele>
        <time>2021-08-24T15:16:52Z</time>
      </trkpt>
      <trkpt lat="45.30203" lon="5.76928">
        <ele>1210.1</ele>
        <time>2021-08-24T15:16:54Z</time>
      </trkpt>
      <trkpt lat="45.30203" lon="5.76933">
        <ele>1210.4</ele>
        <time>2021-08-24T15:16:55Z</time>
      </trkpt>
      <trkpt lat="45.30203" lon="5.76934">
        <ele>1210.5</ele>
        <time>2021-08-24T15:16:56Z</time>
      </trkpt>
      <trkpt lat="45.30202" lon="5.76936">
        <ele>1210.7</ele>
        <time>2021-08-24T15:16:58Z</time>
      </trkpt>
      <trkpt lat="45.30202" lon="5.76937">
        <ele>1210.7</ele>
        <time>2021-08-24T15:16:59Z</time>
      </trkpt>
      <trkpt lat="45.30202" lon="5.76937">
        <ele>1210.8</ele>
        <time>2021-08-24T15:17:01Z</time>
      </trkpt>
      <trkpt lat="45.30202" lon="5.76937">
        <ele>1210.8</ele>
        <time>2021-08-24T15:17:02Z</time>
      </trkpt>
      <trkpt lat="45.30202" lon="5.76937">
        <ele>1210.8</ele>
        <time>2021-08-24T15:17:03Z</time>
      </trkpt>
      <trkpt lat="45.30202" lon="5.76937">
        <ele>1210.8</ele>
        <time>2021-08-24T15:17:05Z</time>
      </trkpt>
      <trkpt lat="45.30188" lon="5.77037">
        <ele>1218.5</ele>
        <time>2021-08-24T15:18:48Z</time>
      </trkpt>
      <trkpt lat="45.30186" lon="5.77037">
        <ele>1218.6</ele>
        <time>2021-08-24T15:18:49Z</time>
      </trkpt>
      <trkpt lat="45.30185" lon="5.77037">
        <ele>1218.8</ele>
        <time>2021-08-24T15:18:51Z</time>
      </trkpt>
      <trkpt lat="45.30185" lon="5.77038">
        <ele>1218.8</ele>
        <time>2021-08-24T15:18:52Z</time>
      </trkpt>
      <trkpt lat="45.30184" lon="5.77038">
        <ele>1218.9</ele>
        <time>2021-08-24T15:18:54Z</time>
      </trkpt>
      <trkpt lat="45.30184" lon="5.77039">
        <ele>1218.9</ele>
        <time>2021-08-24T15:18:55Z</time>
      </trkpt>
      <trkpt lat="45.30184" lon="5.77039">
        <ele>1218.9</ele>
        <time>2021-08-24T15:18:56Z</time>
      </trkpt>
      <trkpt lat="45.30184" lon="5.77039">
        <ele>1218.9</ele>
        <time>2021-08-24T15:18:57Z</time>
      </trkpt>
      <trkpt lat="45.30184" lon="5.77039">
        <ele>1219</ele>
        <time>2021-08-24T15:18:59Z</time>
      </trkpt>
      <trkpt lat="45.30184" lon="5.77039">
        <ele>1219</ele>
        <time>2021-08-24T15:19:00Z</time>
      </trkpt>
      <trkpt lat="45.30184" lon="5.77039">
        <ele>1219</ele>
        <time>2021-08-24T15:19:01Z</time>
      </trkpt>
      <trkpt lat="45.30184" lon="5.77039">
        <ele>1219</ele>
        <time>2021-08-24T15:19:02Z</time>
      </trkpt>
      <trkpt lat="45.30184" lon="5.77039">
        <ele>1219</ele>
        <time>2021-08-24T15:19:03Z</time>
      </trkpt>
      <trkpt lat="45.30184" lon="5.77039">
        <ele>1219</ele>
        <time>2021-08-24T15:19:04Z</time>
      </trkpt>
      <trkpt lat="45.30162" lon="5.77055">
        <ele>1221.9</ele>
        <time>2021-08-24T15:19:26Z</time>
      </trkpt>
      <trkpt lat="45.30161" lon="5.77057">
        <ele>1222.2</ele>
        <time>2021-08-24T15:19:28Z</time>
      </trkpt>
      <trkpt lat="45.3016" lon="5.77058">
        <ele>1222.4</ele>
        <time>2021-08-24T15:19:29Z</time>
      </trkpt>
      <trkpt lat="45.30159" lon="5.77059">
        <ele>1222.5</ele>
        <time>2021-08-24T15:19:31Z</time>
      </trkpt>
      <trkpt lat="45.30157" lon="5.7706">
        <ele>1222.8</ele>
        <time>2021-08-24T15:19:33Z</time>
      </trkpt>
      <trkpt lat="45.30158" lon="5.7706">
        <ele>1222.9</ele>
        <time>2021-08-24T15:19:34Z</time>
      </trkpt>
      <trkpt lat="45.30156" lon="5.77059">
        <ele>1223.1</ele>
        <time>2021-08-24T15:19:36Z</time>
      </trkpt>
      <trkpt lat="45.30156" lon="5.77059">
        <ele>1223.2</ele>
        <time>2021-08-24T15:19:37Z</time>
      </trkpt>
      <trkpt lat="45.30155" lon="5.77058">
        <ele>1223.3</ele>
        <time>2021-08-24T15:19:38Z</time>
      </trkpt>
      <trkpt lat="45.30154" lon="5.77058">
        <ele>1223.5</ele>
        <time>2021-08-24T15:19:39Z</time>
      </trkpt>
      <trkpt lat="45.30152" lon="5.77058">
        <ele>1223.8</ele>
        <time>2021-08-24T15:19:41Z</time>
      </trkpt>
      <trkpt lat="45.30148" lon="5.77056">
        <ele>1224.3</ele>
        <time>2021-08-24T15:19:42Z</time>
      </trkpt>
      <trkpt lat="45.30144" lon="5.77054">
        <ele>1225</ele>
        <time>2021-08-24T15:19:43Z</time>
      </trkpt>
      <trkpt lat="45.30142" lon="5.77053">
        <ele>1225.3</ele>
        <time>2021-08-24T15:19:44Z</time>
      </trkpt>
      <trkpt lat="45.30141" lon="5.77052">
        <ele>1225.5</ele>
        <time>2021-08-24T15:19:45Z</time>
      </trkpt>
      <trkpt lat="45.30138" lon="5.77049">
        <ele>1225.9</ele>
        <time>2021-08-24T15:19:47Z</time>
      </trkpt>
      <trkpt lat="45.30138" lon="5.77049">
        <ele>1226</ele>
        <time>2021-08-24T15:19:48Z</time>
      </trkpt>
      <trkpt lat="45.30137" lon="5.77048">
        <ele>1226.1</ele>
        <time>2021-08-24T15:19:49Z</time>
      </trkpt>
      <trkpt lat="45.30138" lon="5.77048">
        <ele>1226.1</ele>
        <time>2021-08-24T15:19:50Z</time>
      </trkpt>
      <trkpt lat="45.3014" lon="5.77049">
        <ele>1226.5</ele>
        <time>2021-08-24T15:19:52Z</time>
      </trkpt>
      <trkpt lat="45.3014" lon="5.77049">
        <ele>1226.5</ele>
        <time>2021-08-24T15:19:53Z</time>
      </trkpt>
      <trkpt lat="45.3014" lon="5.77049">
        <ele>1226.5</ele>
        <time>2021-08-24T15:19:54Z</time>
      </trkpt>
      <trkpt lat="45.3014" lon="5.77049">
        <ele>1226.6</ele>
        <time>2021-08-24T15:19:55Z</time>
      </trkpt>
      <trkpt lat="45.3014" lon="5.77049">
        <ele>1226.6</ele>
        <time>2021-08-24T15:19:57Z</time>
      </trkpt>
      <trkpt lat="45.3014" lon="5.77048">
        <ele>1226.7</ele>
        <time>2021-08-24T15:19:58Z</time>
      </trkpt>
      <trkpt lat="45.3014" lon="5.77047">
        <ele>1226.8</ele>
        <time>2021-08-24T15:19:59Z</time>
      </trkpt>
      <trkpt lat="45.30107" lon="5.7703">
        <ele>1231.1</ele>
        <time>2021-08-24T15:20:44Z</time>
      </trkpt>
      <trkpt lat="45.30105" lon="5.77029">
        <ele>1231.3</ele>
        <time>2021-08-24T15:20:45Z</time>
      </trkpt>
      <trkpt lat="45.30101" lon="5.77028">
        <ele>1231.7</ele>
        <time>2021-08-24T15:20:47Z</time>
      </trkpt>
      <trkpt lat="45.301" lon="5.77027">
        <ele>1231.8</ele>
        <time>2021-08-24T15:20:48Z</time>
      </trkpt>
      <trkpt lat="45.30101" lon="5.77026">
        <ele>1231.9</ele>
        <time>2021-08-24T15:20:49Z</time>
      </trkpt>
      <trkpt lat="45.30099" lon="5.77025">
        <ele>1232.2</ele>
        <time>2021-08-24T15:20:51Z</time>
      </trkpt>
      <trkpt lat="45.30097" lon="5.77023">
        <ele>1232.5</ele>
        <time>2021-08-24T15:20:52Z</time>
      </trkpt>
      <trkpt lat="45.30093" lon="5.77021">
        <ele>1232.8</ele>
        <time>2021-08-24T15:20:54Z</time>
      </trkpt>
      <trkpt lat="45.30092" lon="5.77021">
        <ele>1232.9</ele>
        <time>2021-08-24T15:20:55Z</time>
      </trkpt>
      <trkpt lat="45.30089" lon="5.77019">
        <ele>1233.2</ele>
        <time>2021-08-24T15:20:56Z</time>
      </trkpt>
      <trkpt lat="45.30088" lon="5.77018">
        <ele>1233.3</ele>
        <time>2021-08-24T15:20:57Z</time>
      </trkpt>
      <trkpt lat="45.30086" lon="5.77015">
        <ele>1233.6</ele>
        <time>2021-08-24T15:20:59Z</time>
      </trkpt>
      <trkpt lat="45.30085" lon="5.77014">
        <ele>1233.7</ele>
        <time>2021-08-24T15:21:00Z</time>
      </trkpt>
      <trkpt lat="45.30084" lon="5.77013">
        <ele>1233.8</ele>
        <time>2021-08-24T15:21:02Z</time>
      </trkpt>
      <trkpt lat="45.30084" lon="5.77013">
        <ele>1233.9</ele>
        <time>2021-08-24T15:21:03Z</time>
      </trkpt>
      <trkpt lat="45.30083" lon="5.77012">
        <ele>1234</ele>
        <time>2021-08-24T15:21:04Z</time>
      </trkpt>
      <trkpt lat="45.30082" lon="5.77012">
        <ele>1234</ele>
        <time>2021-08-24T15:21:05Z</time>
      </trkpt>
      <trkpt lat="45.30082" lon="5.77011">
        <ele>1234.1</ele>
        <time>2021-08-24T15:21:07Z</time>
      </trkpt>
      <trkpt lat="45.30081" lon="5.77011">
        <ele>1234.2</ele>
        <time>2021-08-24T15:21:08Z</time>
      </trkpt>
      <trkpt lat="45.30078" lon="5.77012">
        <ele>1234.5</ele>
        <time>2021-08-24T15:21:09Z</time>
      </trkpt>
      <trkpt lat="45.30076" lon="5.77013">
        <ele>1234.7</ele>
        <time>2021-08-24T15:21:10Z</time>
      </trkpt>
      <trkpt lat="45.30075" lon="5.77014">
        <ele>1234.8</ele>
        <time>2021-08-24T15:21:12Z</time>
      </trkpt>
      <trkpt lat="45.30075" lon="5.77015">
        <ele>1234.9</ele>
        <time>2021-08-24T15:21:13Z</time>
      </trkpt>
      <trkpt lat="45.30074" lon="5.77016">
        <ele>1235</ele>
        <time>2021-08-24T15:21:14Z</time>
      </trkpt>
      <trkpt lat="45.30074" lon="5.77016">
        <ele>1235</ele>
        <time>2021-08-24T15:21:15Z</time>
      </trkpt>
      <trkpt lat="45.30071" lon="5.77016">
        <ele>1235.3</ele>
        <time>2021-08-24T15:21:16Z</time>
      </trkpt>
      <trkpt lat="45.3007" lon="5.77016">
        <ele>1235.4</ele>
        <time>2021-08-24T15:21:18Z</time>
      </trkpt>
      <trkpt lat="45.30069" lon="5.77016">
        <ele>1235.5</ele>
        <time>2021-08-24T15:21:19Z</time>
      </trkpt>
      <trkpt lat="45.30068" lon="5.77015">
        <ele>1235.6</ele>
        <time>2021-08-24T15:21:21Z</time>
      </trkpt>
      <trkpt lat="45.30067" lon="5.77015">
        <ele>1235.7</ele>
        <time>2021-08-24T15:21:22Z</time>
      </trkpt>
      <trkpt lat="45.30066" lon="5.77015">
        <ele>1235.7</ele>
        <time>2021-08-24T15:21:23Z</time>
      </trkpt>
      <trkpt lat="45.30065" lon="5.77015">
        <ele>1235.9</ele>
        <time>2021-08-24T15:21:24Z</time>
      </trkpt>
      <trkpt lat="45.30064" lon="5.77015">
        <ele>1236</ele>
        <time>2021-08-24T15:21:25Z</time>
      </trkpt>
      <trkpt lat="45.30062" lon="5.77016">
        <ele>1236.2</ele>
        <time>2021-08-24T15:21:27Z</time>
      </trkpt>
      <trkpt lat="45.30016" lon="5.76985">
        <ele>1241.3</ele>
        <time>2021-08-24T15:22:28Z</time>
      </trkpt>
      <trkpt lat="45.30014" lon="5.76983">
        <ele>1241.4</ele>
        <time>2021-08-24T15:22:30Z</time>
      </trkpt>
      <trkpt lat="45.30013" lon="5.76981">
        <ele>1241.6</ele>
        <time>2021-08-24T15:22:32Z</time>
      </trkpt>
      <trkpt lat="45.30013" lon="5.76981">
        <ele>1241.7</ele>
        <time>2021-08-24T15:22:33Z</time>
      </trkpt>
      <trkpt lat="45.30012" lon="5.7698">
        <ele>1241.8</ele>
        <time>2021-08-24T15:22:35Z</time>
      </trkpt>
      <trkpt lat="45.30011" lon="5.76978">
        <ele>1241.9</ele>
        <time>2021-08-24T15:22:36Z</time>
      </trkpt>
      <trkpt lat="45.3001" lon="5.76977">
        <ele>1242</ele>
        <time>2021-08-24T15:22:38Z</time>
      </trkpt>
      <trkpt lat="45.30008" lon="5.76973">
        <ele>1242.4</ele>
        <time>2021-08-24T15:22:40Z</time>
      </trkpt>
      <trkpt lat="45.30008" lon="5.76973">
        <ele>1242.4</ele>
        <time>2021-08-24T15:22:40Z</time>
      </trkpt>
      <trkpt lat="45.30006" lon="5.7697">
        <ele>1242.7</ele>
        <time>2021-08-24T15:22:41Z</time>
      </trkpt>
      <trkpt lat="45.30003" lon="5.76968">
        <ele>1243</ele>
        <time>2021-08-24T15:22:43Z</time>
      </trkpt>
      <trkpt lat="45.30001" lon="5.76968">
        <ele>1243.2</ele>
        <time>2021-08-24T15:22:44Z</time>
      </trkpt>
      <trkpt lat="45.29999" lon="5.76968">
        <ele>1243.3</ele>
        <time>2021-08-24T15:22:45Z</time>
      </trkpt>
      <trkpt lat="45.29997" lon="5.76969">
        <ele>1243.5</ele>
        <time>2021-08-24T15:22:46Z</time>
      </trkpt>
      <trkpt lat="45.29997" lon="5.76969">
        <ele>1243.6</ele>
        <time>2021-08-24T15:22:48Z</time>
      </trkpt>
      <trkpt lat="45.29996" lon="5.7697">
        <ele>1243.7</ele>
        <time>2021-08-24T15:22:49Z</time>
      </trkpt>
      <trkpt lat="45.29995" lon="5.7697">
        <ele>1243.8</ele>
        <time>2021-08-24T15:22:50Z</time>
      </trkpt>
      <trkpt lat="45.29994" lon="5.7697">
        <ele>1243.9</ele>
        <time>2021-08-24T15:22:51Z</time>
      </trkpt>
      <trkpt lat="45.29992" lon="5.76971">
        <ele>1244.1</ele>
        <time>2021-08-24T15:22:53Z</time>
      </trkpt>
      <trkpt lat="45.29992" lon="5.76971">
        <ele>1244.1</ele>
        <time>2021-08-24T15:22:55Z</time>
      </trkpt>
      <trkpt lat="45.29991" lon="5.7697">
        <ele>1244.2</ele>
        <time>2021-08-24T15:22:57Z</time>
      </trkpt>
      <trkpt lat="45.29989" lon="5.76969">
        <ele>1244.4</ele>
        <time>2021-08-24T15:22:58Z</time>
      </trkpt>
      <trkpt lat="45.29987" lon="5.76969">
        <ele>1244.6</ele>
        <time>2021-08-24T15:23:00Z</time>
      </trkpt>
      <trkpt lat="45.29965" lon="5.7696">
        <ele>1247</ele>
        <time>2021-08-24T15:23:36Z</time>
      </trkpt>
      <trkpt lat="45.29963" lon="5.76958">
        <ele>1247.3</ele>
        <time>2021-08-24T15:23:37Z</time>
      </trkpt>
      <trkpt lat="45.2996" lon="5.76955">
        <ele>1247.6</ele>
        <time>2021-08-24T15:23:39Z</time>
      </trkpt>
      <trkpt lat="45.29958" lon="5.76952">
        <ele>1248</ele>
        <time>2021-08-24T15:23:40Z</time>
      </trkpt>
      <trkpt lat="45.29954" lon="5.7695">
        <ele>1248.4</ele>
        <time>2021-08-24T15:23:41Z</time>
      </trkpt>
      <trkpt lat="45.29953" lon="5.76949">
        <ele>1248.6</ele>
        <time>2021-08-24T15:23:42Z</time>
      </trkpt>
      <trkpt lat="45.29951" lon="5.76949">
        <ele>1248.7</ele>
        <time>2021-08-24T15:23:43Z</time>
      </trkpt>
      <trkpt lat="45.29949" lon="5.76952">
        <ele>1249</ele>
        <time>2021-08-24T15:23:45Z</time>
      </trkpt>
      <trkpt lat="45.29947" lon="5.76953">
        <ele>1249.2</ele>
        <time>2021-08-24T15:23:46Z</time>
      </trkpt>
      <trkpt lat="45.29946" lon="5.76953">
        <ele>1249.3</ele>
        <time>2021-08-24T15:23:47Z</time>
      </trkpt>
      <trkpt lat="45.29943" lon="5.76953">
        <ele>1249.6</ele>
        <time>2021-08-24T15:23:48Z</time>
      </trkpt>
      <trkpt lat="45.29939" lon="5.76955">
        <ele>1250</ele>
        <time>2021-08-24T15:23:50Z</time>
      </trkpt>
      <trkpt lat="45.29938" lon="5.76956">
        <ele>1250.2</ele>
        <time>2021-08-24T15:23:51Z</time>
      </trkpt>
      <trkpt lat="45.29935" lon="5.76957">
        <ele>1250.4</ele>
        <time>2021-08-24T15:23:53Z</time>
      </trkpt>
      <trkpt lat="45.29929" lon="5.76961">
        <ele>1251.1</ele>
        <time>2021-08-24T15:23:55Z</time>
      </trkpt>
      <trkpt lat="45.29928" lon="5.76962">
        <ele>1251.3</ele>
        <time>2021-08-24T15:23:56Z</time>
      </trkpt>
      <trkpt lat="45.29927" lon="5.76962">
        <ele>1251.3</ele>
        <time>2021-08-24T15:23:58Z</time>
      </trkpt>
      <trkpt lat="45.29926" lon="5.76962">
        <ele>1251.4</ele>
        <time>2021-08-24T15:23:59Z</time>
      </trkpt>
      <trkpt lat="45.29926" lon="5.76962">
        <ele>1251.4</ele>
        <time>2021-08-24T15:24:01Z</time>
      </trkpt>
      <trkpt lat="45.29925" lon="5.76962">
        <ele>1251.5</ele>
        <time>2021-08-24T15:24:02Z</time>
      </trkpt>
      <trkpt lat="45.29925" lon="5.76962">
        <ele>1251.5</ele>
        <time>2021-08-24T15:24:03Z</time>
      </trkpt>
      <trkpt lat="45.29924" lon="5.76962">
        <ele>1251.6</ele>
        <time>2021-08-24T15:24:05Z</time>
      </trkpt>
      <trkpt lat="45.29924" lon="5.76962">
        <ele>1251.7</ele>
        <time>2021-08-24T15:24:06Z</time>
      </trkpt>
      <trkpt lat="45.29923" lon="5.76962">
        <ele>1251.7</ele>
        <time>2021-08-24T15:24:07Z</time>
      </trkpt>
      <trkpt lat="45.29923" lon="5.76962">
        <ele>1251.8</ele>
        <time>2021-08-24T15:24:09Z</time>
      </trkpt>
      <trkpt lat="45.29922" lon="5.76962">
        <ele>1251.8</ele>
        <time>2021-08-24T15:24:10Z</time>
      </trkpt>
      <trkpt lat="45.29921" lon="5.76962">
        <ele>1251.9</ele>
        <time>2021-08-24T15:24:11Z</time>
      </trkpt>
      <trkpt lat="45.29921" lon="5.76962">
        <ele>1251.9</ele>
        <time>2021-08-24T15:24:12Z</time>
      </trkpt>
      <trkpt lat="45.2992" lon="5.76962">
        <ele>1252</ele>
        <time>2021-08-24T15:24:14Z</time>
      </trkpt>
      <trkpt lat="45.2992" lon="5.76962">
        <ele>1252</ele>
        <time>2021-08-24T15:24:15Z</time>
      </trkpt>
      <trkpt lat="45.29919" lon="5.76962">
        <ele>1252.1</ele>
        <time>2021-08-24T15:24:16Z</time>
      </trkpt>
      <trkpt lat="45.29899" lon="5.76969">
        <ele>1254</ele>
        <time>2021-08-24T15:24:34Z</time>
      </trkpt>
      <trkpt lat="45.29898" lon="5.76969">
        <ele>1254.2</ele>
        <time>2021-08-24T15:24:35Z</time>
      </trkpt>
      <trkpt lat="45.29896" lon="5.76968">
        <ele>1254.3</ele>
        <time>2021-08-24T15:24:36Z</time>
      </trkpt>
      <trkpt lat="45.29893" lon="5.76968">
        <ele>1254.6</ele>
        <time>2021-08-24T15:24:38Z</time>
      </trkpt>
      <trkpt lat="45.29892" lon="5.76968">
        <ele>1254.6</ele>
        <time>2021-08-24T15:24:39Z</time>
      </trkpt>
      <trkpt lat="45.29892" lon="5.76968">
        <ele>1254.7</ele>
        <time>2021-08-24T15:24:40Z</time>
      </trkpt>
      <trkpt lat="45.2989" lon="5.76968">
        <ele>1254.8</ele>
        <time>2021-08-24T15:24:41Z</time>
      </trkpt>
      <trkpt lat="45.29888" lon="5.76968">
        <ele>1255</ele>
        <time>2021-08-24T15:24:42Z</time>
      </trkpt>
      <trkpt lat="45.29887" lon="5.76969">
        <ele>1255.2</ele>
        <time>2021-08-24T15:24:44Z</time>
      </trkpt>
      <trkpt lat="45.29884" lon="5.76969">
        <ele>1255.4</ele>
        <time>2021-08-24T15:24:45Z</time>
      </trkpt>
      <trkpt lat="45.29883" lon="5.76969">
        <ele>1255.5</ele>
        <time>2021-08-24T15:24:47Z</time>
      </trkpt>
      <trkpt lat="45.29882" lon="5.76968">
        <ele>1255.5</ele>
        <time>2021-08-24T15:24:48Z</time>
      </trkpt>
      <trkpt lat="45.2988" lon="5.76967">
        <ele>1255.8</ele>
        <time>2021-08-24T15:24:50Z</time>
      </trkpt>
      <trkpt lat="45.29879" lon="5.76967">
        <ele>1255.9</ele>
        <time>2021-08-24T15:24:51Z</time>
      </trkpt>
      <trkpt lat="45.29878" lon="5.76967">
        <ele>1255.9</ele>
        <time>2021-08-24T15:24:52Z</time>
      </trkpt>
      <trkpt lat="45.29845" lon="5.76966">
        <ele>1259.2</ele>
        <time>2021-08-24T15:25:18Z</time>
      </trkpt>
      <trkpt lat="45.29843" lon="5.76967">
        <ele>1259.5</ele>
        <time>2021-08-24T15:25:19Z</time>
      </trkpt>
      <trkpt lat="45.29839" lon="5.76969">
        <ele>1259.8</ele>
        <time>2021-08-24T15:25:21Z</time>
      </trkpt>
      <trkpt lat="45.29838" lon="5.76969">
        <ele>1259.9</ele>
        <time>2021-08-24T15:25:22Z</time>
      </trkpt>
      <trkpt lat="45.29838" lon="5.76969">
        <ele>1260</ele>
        <time>2021-08-24T15:25:24Z</time>
      </trkpt>
      <trkpt lat="45.29837" lon="5.76969">
        <ele>1260</ele>
        <time>2021-08-24T15:25:25Z</time>
      </trkpt>
      <trkpt lat="45.29837" lon="5.7697">
        <ele>1260.1</ele>
        <time>2021-08-24T15:25:27Z</time>
      </trkpt>
      <trkpt lat="45.29836" lon="5.7697">
        <ele>1260.1</ele>
        <time>2021-08-24T15:25:28Z</time>
      </trkpt>
      <trkpt lat="45.29836" lon="5.7697">
        <ele>1260.1</ele>
        <time>2021-08-24T15:25:29Z</time>
      </trkpt>
      <trkpt lat="45.29836" lon="5.7697">
        <ele>1260.1</ele>
        <time>2021-08-24T15:25:30Z</time>
      </trkpt>
      <trkpt lat="45.29836" lon="5.7697">
        <ele>1260.2</ele>
        <time>2021-08-24T15:25:31Z</time>
      </trkpt>
      <trkpt lat="45.29836" lon="5.7697">
        <ele>1260.2</ele>
        <time>2021-08-24T15:25:33Z</time>
      </trkpt>
      <trkpt lat="45.29811" lon="5.76966">
        <ele>1262.7</ele>
        <time>2021-08-24T15:26:31Z</time>
      </trkpt>
      <trkpt lat="45.29807" lon="5.76965">
        <ele>1263.2</ele>
        <time>2021-08-24T15:26:33Z</time>
      </trkpt>
      <trkpt lat="45.29802" lon="5.76967">
        <ele>1263.8</ele>
        <time>2021-08-24T15:26:34Z</time>
      </trkpt>
      <trkpt lat="45.29797" lon="5.76969">
        <ele>1264.3</ele>
        <time>2021-08-24T15:26:36Z</time>
      </trkpt>
      <trkpt lat="45.29789" lon="5.76971">
        <ele>1265.2</ele>
        <time>2021-08-24T15:26:37Z</time>
      </trkpt>
      <trkpt lat="45.29785" lon="5.76973">
        <ele>1265.7</ele>
        <time>2021-08-24T15:26:39Z</time>
      </trkpt>
      <trkpt lat="45.29779" lon="5.7697">
        <ele>1266.3</ele>
        <time>2021-08-24T15:26:41Z</time>
      </trkpt>
      <trkpt lat="45.29775" lon="5.76968">
        <ele>1266.7</ele>
        <time>2021-08-24T15:26:43Z</time>
      </trkpt>
      <trkpt lat="45.29773" lon="5.76967">
        <ele>1266.9</ele>
        <time>2021-08-24T15:26:44Z</time>
      </trkpt>
      <trkpt lat="45.29772" lon="5.76965">
        <ele>1267.1</ele>
        <time>2021-08-24T15:26:46Z</time>
      </trkpt>
      <trkpt lat="45.2977" lon="5.76964">
        <ele>1267.3</ele>
        <time>2021-08-24T15:26:47Z</time>
      </trkpt>
      <trkpt lat="45.29769" lon="5.76962">
        <ele>1267.5</ele>
        <time>2021-08-24T15:26:49Z</time>
      </trkpt>
      <trkpt lat="45.29768" lon="5.76962">
        <ele>1267.6</ele>
        <time>2021-08-24T15:26:50Z</time>
      </trkpt>
      <trkpt lat="45.29767" lon="5.76961">
        <ele>1267.7</ele>
        <time>2021-08-24T15:26:51Z</time>
      </trkpt>
      <trkpt lat="45.29767" lon="5.76961">
        <ele>1267.7</ele>
        <time>2021-08-24T15:26:52Z</time>
      </trkpt>
      <trkpt lat="45.29766" lon="5.76961">
        <ele>1267.7</ele>
        <time>2021-08-24T15:26:53Z</time>
      </trkpt>
      <trkpt lat="45.29766" lon="5.76961">
        <ele>1267.8</ele>
        <time>2021-08-24T15:26:55Z</time>
      </trkpt>
      <trkpt lat="45.29765" lon="5.7696">
        <ele>1267.9</ele>
        <time>2021-08-24T15:26:57Z</time>
      </trkpt>
      <trkpt lat="45.29727" lon="5.7694">
        <ele>1272.1</ele>
        <time>2021-08-24T15:27:39Z</time>
      </trkpt>
      <trkpt lat="45.29723" lon="5.76936">
        <ele>1274.2</ele>
        <time>2021-08-24T15:27:41Z</time>
      </trkpt>
      <trkpt lat="45.29718" lon="5.76932">
        <ele>1275.4</ele>
        <time>2021-08-24T15:27:43Z</time>
      </trkpt>
      <trkpt lat="45.29712" lon="5.7693">
        <ele>1276.5</ele>
        <time>2021-08-24T15:27:45Z</time>
      </trkpt>
      <trkpt lat="45.29707" lon="5.76927">
        <ele>1277.9</ele>
        <time>2021-08-24T15:27:47Z</time>
      </trkpt>
      <trkpt lat="45.29701" lon="5.76925">
        <ele>1278.9</ele>
        <time>2021-08-24T15:27:48Z</time>
      </trkpt>
      <trkpt lat="45.29698" lon="5.76923">
        <ele>1280</ele>
        <time>2021-08-24T15:27:49Z</time>
      </trkpt>
      <trkpt lat="45.29696" lon="5.76922">
        <ele>1280</ele>
        <time>2021-08-24T15:27:51Z</time>
      </trkpt>
      <trkpt lat="45.29694" lon="5.76919">
        <ele>1281</ele>
        <time>2021-08-24T15:27:53Z</time>
      </trkpt>
      <trkpt lat="45.29693" lon="5.7692">
        <ele>1281</ele>
        <time>2021-08-24T15:27:55Z</time>
      </trkpt>
      <trkpt lat="45.29692" lon="5.7692">
        <ele>1281</ele>
        <time>2021-08-24T15:27:56Z</time>
      </trkpt>
      <trkpt lat="45.29691" lon="5.76921">
        <ele>1281</ele>
        <time>2021-08-24T15:27:58Z</time>
      </trkpt>
      <trkpt lat="45.2969" lon="5.76921">
        <ele>1281</ele>
        <time>2021-08-24T15:27:59Z</time>
      </trkpt>
      <trkpt lat="45.2969" lon="5.76921">
        <ele>1281.5</ele>
        <time>2021-08-24T15:28:00Z</time>
      </trkpt>
      <trkpt lat="45.29689" lon="5.76921">
        <ele>1281.5</ele>
        <time>2021-08-24T15:28:02Z</time>
      </trkpt>
      <trkpt lat="45.29689" lon="5.76921">
        <ele>1281.5</ele>
        <time>2021-08-24T15:28:03Z</time>
      </trkpt>
      <trkpt lat="45.29679" lon="5.76908">
        <ele>1284.3</ele>
        <time>2021-08-24T15:28:19Z</time>
      </trkpt>
      <trkpt lat="45.29677" lon="5.76903">
        <ele>1285.1</ele>
        <time>2021-08-24T15:28:21Z</time>
      </trkpt>
      <trkpt lat="45.29674" lon="5.76896">
        <ele>1286.2</ele>
        <time>2021-08-24T15:28:23Z</time>
      </trkpt>
      <trkpt lat="45.29671" lon="5.76893">
        <ele>1287</ele>
        <time>2021-08-24T15:28:24Z</time>
      </trkpt>
      <trkpt lat="45.29666" lon="5.76888">
        <ele>1287.7</ele>
        <time>2021-08-24T15:28:26Z</time>
      </trkpt>
      <trkpt lat="45.29664" lon="5.76884">
        <ele>1288.4</ele>
        <time>2021-08-24T15:28:28Z</time>
      </trkpt>
      <trkpt lat="45.29663" lon="5.76883">
        <ele>1288.4</ele>
        <time>2021-08-24T15:28:29Z</time>
      </trkpt>
      <trkpt lat="45.29662" lon="5.76879">
        <ele>1289.1</ele>
        <time>2021-08-24T15:28:30Z</time>
      </trkpt>
      <trkpt lat="45.2966" lon="5.76876">
        <ele>1289.5</ele>
        <time>2021-08-24T15:28:32Z</time>
      </trkpt>
      <trkpt lat="45.29659" lon="5.76872">
        <ele>1290.1</ele>
        <time>2021-08-24T15:28:33Z</time>
      </trkpt>
      <trkpt lat="45.29657" lon="5.76868">
        <ele>1290.5</ele>
        <time>2021-08-24T15:28:35Z</time>
      </trkpt>
      <trkpt lat="45.29654" lon="5.76863">
        <ele>1291.1</ele>
        <time>2021-08-24T15:28:36Z</time>
      </trkpt>
      <trkpt lat="45.29653" lon="5.76859">
        <ele>1291.8</ele>
        <time>2021-08-24T15:28:38Z</time>
      </trkpt>
      <trkpt lat="45.29652" lon="5.76855">
        <ele>1291.8</ele>
        <time>2021-08-24T15:28:39Z</time>
      </trkpt>
      <trkpt lat="45.29651" lon="5.76854">
        <ele>1292.2</ele>
        <time>2021-08-24T15:28:40Z</time>
      </trkpt>
      <trkpt lat="45.2965" lon="5.76852">
        <ele>1292.4</ele>
        <time>2021-08-24T15:28:41Z</time>
      </trkpt>
      <trkpt lat="45.29648" lon="5.76851">
        <ele>1292.4</ele>
        <time>2021-08-24T15:28:42Z</time>
      </trkpt>
      <trkpt lat="45.29645" lon="5.76849">
        <ele>1293</ele>
        <time>2021-08-24T15:28:44Z</time>
      </trkpt>
      <trkpt lat="45.29641" lon="5.76846">
        <ele>1293.6</ele>
        <time>2021-08-24T15:28:46Z</time>
      </trkpt>
      <trkpt lat="45.2964" lon="5.76846">
        <ele>1293.6</ele>
        <time>2021-08-24T15:28:47Z</time>
      </trkpt>
      <trkpt lat="45.29639" lon="5.76845">
        <ele>1293.7</ele>
        <time>2021-08-24T15:28:48Z</time>
      </trkpt>
      <trkpt lat="45.29635" lon="5.76845">
        <ele>1293.9</ele>
        <time>2021-08-24T15:28:50Z</time>
      </trkpt>
      <trkpt lat="45.29632" lon="5.76844">
        <ele>1294</ele>
        <time>2021-08-24T15:28:51Z</time>
      </trkpt>
      <trkpt lat="45.29629" lon="5.76843">
        <ele>1294</ele>
        <time>2021-08-24T15:28:52Z</time>
      </trkpt>
      <trkpt lat="45.29625" lon="5.76843">
        <ele>1294</ele>
        <time>2021-08-24T15:28:54Z</time>
      </trkpt>
      <trkpt lat="45.29619" lon="5.76842">
        <ele>1294.3</ele>
        <time>2021-08-24T15:28:56Z</time>
      </trkpt>
      <trkpt lat="45.29615" lon="5.76842">
        <ele>1294.3</ele>
        <time>2021-08-24T15:28:57Z</time>
      </trkpt>
      <trkpt lat="45.29612" lon="5.76841">
        <ele>1294.3</ele>
        <time>2021-08-24T15:28:58Z</time>
      </trkpt>
      <trkpt lat="45.29607" lon="5.7684">
        <ele>1294.3</ele>
        <time>2021-08-24T15:29:00Z</time>
      </trkpt>
      <trkpt lat="45.29603" lon="5.76839">
        <ele>1294.3</ele>
        <time>2021-08-24T15:29:01Z</time>
      </trkpt>
      <trkpt lat="45.296" lon="5.76838">
        <ele>1294.3</ele>
        <time>2021-08-24T15:29:02Z</time>
      </trkpt>
      <trkpt lat="45.29595" lon="5.76837">
        <ele>1294.4</ele>
        <time>2021-08-24T15:29:04Z</time>
      </trkpt>
      <trkpt lat="45.2959" lon="5.76836">
        <ele>1294.4</ele>
        <time>2021-08-24T15:29:06Z</time>
      </trkpt>
      <trkpt lat="45.29586" lon="5.76833">
        <ele>1294.5</ele>
        <time>2021-08-24T15:29:08Z</time>
      </trkpt>
      <trkpt lat="45.29585" lon="5.76832">
        <ele>1294.5</ele>
        <time>2021-08-24T15:29:09Z</time>
      </trkpt>
      <trkpt lat="45.29584" lon="5.7683">
        <ele>1294.4</ele>
        <time>2021-08-24T15:29:10Z</time>
      </trkpt>
      <trkpt lat="45.29582" lon="5.76829">
        <ele>1294.6</ele>
        <time>2021-08-24T15:29:11Z</time>
      </trkpt>
      <trkpt lat="45.2958" lon="5.76828">
        <ele>1294.6</ele>
        <time>2021-08-24T15:29:13Z</time>
      </trkpt>
      <trkpt lat="45.29578" lon="5.76828">
        <ele>1294.5</ele>
        <time>2021-08-24T15:29:14Z</time>
      </trkpt>
      <trkpt lat="45.29576" lon="5.76828">
        <ele>1294.5</ele>
        <time>2021-08-24T15:29:16Z</time>
      </trkpt>
      <trkpt lat="45.29575" lon="5.76828">
        <ele>1294.5</ele>
        <time>2021-08-24T15:29:17Z</time>
      </trkpt>
      <trkpt lat="45.29572" lon="5.76828">
        <ele>1294.5</ele>
        <time>2021-08-24T15:29:19Z</time>
      </trkpt>
      <trkpt lat="45.2957" lon="5.76828">
        <ele>1294.5</ele>
        <time>2021-08-24T15:29:20Z</time>
      </trkpt>
      <trkpt lat="45.29569" lon="5.76828">
        <ele>1294.5</ele>
        <time>2021-08-24T15:29:21Z</time>
      </trkpt>
      <trkpt lat="45.29566" lon="5.76827">
        <ele>1294.5</ele>
        <time>2021-08-24T15:29:23Z</time>
      </trkpt>
      <trkpt lat="45.29563" lon="5.76827">
        <ele>1294.5</ele>
        <time>2021-08-24T15:29:25Z</time>
      </trkpt>
      <trkpt lat="45.2956" lon="5.76826">
        <ele>1294.5</ele>
        <time>2021-08-24T15:29:27Z</time>
      </trkpt>
      <trkpt lat="45.2956" lon="5.76825">
        <ele>1294.6</ele>
        <time>2021-08-24T15:29:28Z</time>
      </trkpt>
      <trkpt lat="45.29559" lon="5.76824">
        <ele>1294.6</ele>
        <time>2021-08-24T15:29:29Z</time>
      </trkpt>
      <trkpt lat="45.29556" lon="5.76822">
        <ele>1294.6</ele>
        <time>2021-08-24T15:29:31Z</time>
      </trkpt>
      <trkpt lat="45.29555" lon="5.7682">
        <ele>1294.8</ele>
        <time>2021-08-24T15:29:32Z</time>
      </trkpt>
      <trkpt lat="45.29554" lon="5.76818">
        <ele>1294.8</ele>
        <time>2021-08-24T15:29:34Z</time>
      </trkpt>
      <trkpt lat="45.29552" lon="5.76815">
        <ele>1295</ele>
        <time>2021-08-24T15:29:35Z</time>
      </trkpt>
      <trkpt lat="45.29551" lon="5.76814">
        <ele>1295</ele>
        <time>2021-08-24T15:29:36Z</time>
      </trkpt>
      <trkpt lat="45.2955" lon="5.76815">
        <ele>1295</ele>
        <time>2021-08-24T15:29:38Z</time>
      </trkpt>
      <trkpt lat="45.2955" lon="5.76816">
        <ele>1295.1</ele>
        <time>2021-08-24T15:29:39Z</time>
      </trkpt>
      <trkpt lat="45.29549" lon="5.76815">
        <ele>1295.1</ele>
        <time>2021-08-24T15:29:40Z</time>
      </trkpt>
      <trkpt lat="45.29548" lon="5.76814">
        <ele>1295.1</ele>
        <time>2021-08-24T15:29:41Z</time>
      </trkpt>
      <trkpt lat="45.29546" lon="5.76815">
        <ele>1295.2</ele>
        <time>2021-08-24T15:29:43Z</time>
      </trkpt>
      <trkpt lat="45.29543" lon="5.76817">
        <ele>1295.1</ele>
        <time>2021-08-24T15:29:45Z</time>
      </trkpt>
      <trkpt lat="45.29541" lon="5.7682">
        <ele>1295.1</ele>
        <time>2021-08-24T15:29:47Z</time>
      </trkpt>
      <trkpt lat="45.29538" lon="5.76823">
        <ele>1295.1</ele>
        <time>2021-08-24T15:29:49Z</time>
      </trkpt>
      <trkpt lat="45.29535" lon="5.76824">
        <ele>1295.1</ele>
        <time>2021-08-24T15:29:50Z</time>
      </trkpt>
      <trkpt lat="45.29529" lon="5.76828">
        <ele>1295.1</ele>
        <time>2021-08-24T15:29:52Z</time>
      </trkpt>
      <trkpt lat="45.29527" lon="5.76829">
        <ele>1295.1</ele>
        <time>2021-08-24T15:29:53Z</time>
      </trkpt>
      <trkpt lat="45.29525" lon="5.76831">
        <ele>1294.9</ele>
        <time>2021-08-24T15:29:54Z</time>
      </trkpt>
      <trkpt lat="45.29523" lon="5.76832">
        <ele>1294.9</ele>
        <time>2021-08-24T15:29:56Z</time>
      </trkpt>
      <trkpt lat="45.29519" lon="5.76832">
        <ele>1294.9</ele>
        <time>2021-08-24T15:29:58Z</time>
      </trkpt>
      <trkpt lat="45.29515" lon="5.76831">
        <ele>1294.9</ele>
        <time>2021-08-24T15:30:00Z</time>
      </trkpt>
      <trkpt lat="45.29513" lon="5.7683">
        <ele>1294.9</ele>
        <time>2021-08-24T15:30:01Z</time>
      </trkpt>
      <trkpt lat="45.29511" lon="5.76829">
        <ele>1295.1</ele>
        <time>2021-08-24T15:30:02Z</time>
      </trkpt>
      <trkpt lat="45.29488" lon="5.76823">
        <ele>1295.1</ele>
        <time>2021-08-24T15:30:18Z</time>
      </trkpt>
      <trkpt lat="45.29486" lon="5.76821">
        <ele>1295.2</ele>
        <time>2021-08-24T15:30:19Z</time>
      </trkpt>
      <trkpt lat="45.29482" lon="5.76818">
        <ele>1295.8</ele>
        <time>2021-08-24T15:30:21Z</time>
      </trkpt>
      <trkpt lat="45.29478" lon="5.76812">
        <ele>1297.2</ele>
        <time>2021-08-24T15:30:23Z</time>
      </trkpt>
      <trkpt lat="45.29474" lon="5.76804">
        <ele>1298</ele>
        <time>2021-08-24T15:30:25Z</time>
      </trkpt>
      <trkpt lat="45.29472" lon="5.76798">
        <ele>1299.5</ele>
        <time>2021-08-24T15:30:27Z</time>
      </trkpt>
      <trkpt lat="45.29471" lon="5.76794">
        <ele>1300.1</ele>
        <time>2021-08-24T15:30:28Z</time>
      </trkpt>
      <trkpt lat="45.29472" lon="5.76792">
        <ele>1300.2</ele>
        <time>2021-08-24T15:30:29Z</time>
      </trkpt>
      <trkpt lat="45.29472" lon="5.7679">
        <ele>1300.8</ele>
        <time>2021-08-24T15:30:30Z</time>
      </trkpt>
      <trkpt lat="45.29471" lon="5.76789">
        <ele>1300.8</ele>
        <time>2021-08-24T15:30:31Z</time>
      </trkpt>
      <trkpt lat="45.29471" lon="5.76788">
        <ele>1300.9</ele>
        <time>2021-08-24T15:30:32Z</time>
      </trkpt>
      <trkpt lat="45.29471" lon="5.76788">
        <ele>1300.9</ele>
        <time>2021-08-24T15:30:34Z</time>
      </trkpt>
      <trkpt lat="45.29471" lon="5.76788">
        <ele>1300.9</ele>
        <time>2021-08-24T15:30:35Z</time>
      </trkpt>
      <trkpt lat="45.29471" lon="5.76788">
        <ele>1300.9</ele>
        <time>2021-08-24T15:30:36Z</time>
      </trkpt>
      <trkpt lat="45.29471" lon="5.76788">
        <ele>1301</ele>
        <time>2021-08-24T15:30:37Z</time>
      </trkpt>
      <trkpt lat="45.29445" lon="5.76754">
        <ele>1306.9</ele>
        <time>2021-08-24T15:31:10Z</time>
      </trkpt>
      <trkpt lat="45.2944" lon="5.76754">
        <ele>1307.1</ele>
        <time>2021-08-24T15:31:12Z</time>
      </trkpt>
      <trkpt lat="45.29436" lon="5.76756">
        <ele>1307.3</ele>
        <time>2021-08-24T15:31:14Z</time>
      </trkpt>
      <trkpt lat="45.29432" lon="5.7676">
        <ele>1306.7</ele>
        <time>2021-08-24T15:31:15Z</time>
      </trkpt>
      <trkpt lat="45.29429" lon="5.76761">
        <ele>1306.2</ele>
        <time>2021-08-24T15:31:16Z</time>
      </trkpt>
      <trkpt lat="45.29426" lon="5.76763">
        <ele>1306.2</ele>
        <time>2021-08-24T15:31:18Z</time>
      </trkpt>
      <trkpt lat="45.29422" lon="5.76764">
        <ele>1306.2</ele>
        <time>2021-08-24T15:31:19Z</time>
      </trkpt>
      <trkpt lat="45.29421" lon="5.76764">
        <ele>1306.1</ele>
        <time>2021-08-24T15:31:20Z</time>
      </trkpt>
      <trkpt lat="45.29419" lon="5.76763">
        <ele>1306.1</ele>
        <time>2021-08-24T15:31:22Z</time>
      </trkpt>
      <trkpt lat="45.29415" lon="5.76763">
        <ele>1306.1</ele>
        <time>2021-08-24T15:31:24Z</time>
      </trkpt>
      <trkpt lat="45.29414" lon="5.76762">
        <ele>1306</ele>
        <time>2021-08-24T15:31:26Z</time>
      </trkpt>
      <trkpt lat="45.29414" lon="5.76762">
        <ele>1306</ele>
        <time>2021-08-24T15:31:27Z</time>
      </trkpt>
      <trkpt lat="45.29413" lon="5.76761">
        <ele>1306.1</ele>
        <time>2021-08-24T15:31:28Z</time>
      </trkpt>
      <trkpt lat="45.29412" lon="5.76761">
        <ele>1306.1</ele>
        <time>2021-08-24T15:31:30Z</time>
      </trkpt>
      <trkpt lat="45.29412" lon="5.76761">
        <ele>1306.1</ele>
        <time>2021-08-24T15:31:31Z</time>
      </trkpt>
      <trkpt lat="45.29412" lon="5.76761">
        <ele>1306</ele>
        <time>2021-08-24T15:31:32Z</time>
      </trkpt>
      <trkpt lat="45.29412" lon="5.76761">
        <ele>1306.1</ele>
        <time>2021-08-24T15:31:33Z</time>
      </trkpt>
      <trkpt lat="45.29412" lon="5.76761">
        <ele>1306.1</ele>
        <time>2021-08-24T15:31:35Z</time>
      </trkpt>
      <trkpt lat="45.29392" lon="5.76757">
        <ele>1305.9</ele>
        <time>2021-08-24T15:31:49Z</time>
      </trkpt>
      <trkpt lat="45.29388" lon="5.76756">
        <ele>1306.2</ele>
        <time>2021-08-24T15:31:50Z</time>
      </trkpt>
      <trkpt lat="45.29384" lon="5.76755">
        <ele>1306</ele>
        <time>2021-08-24T15:31:52Z</time>
      </trkpt>
      <trkpt lat="45.2938" lon="5.76754">
        <ele>1305.9</ele>
        <time>2021-08-24T15:31:53Z</time>
      </trkpt>
      <trkpt lat="45.29375" lon="5.76753">
        <ele>1305.6</ele>
        <time>2021-08-24T15:31:55Z</time>
      </trkpt>
      <trkpt lat="45.29373" lon="5.76752">
        <ele>1305.9</ele>
        <time>2021-08-24T15:31:56Z</time>
      </trkpt>
      <trkpt lat="45.29368" lon="5.7675">
        <ele>1305.8</ele>
        <time>2021-08-24T15:31:58Z</time>
      </trkpt>
      <trkpt lat="45.29366" lon="5.76749">
        <ele>1305.7</ele>
        <time>2021-08-24T15:32:00Z</time>
      </trkpt>
      <trkpt lat="45.29365" lon="5.76748">
        <ele>1305.7</ele>
        <time>2021-08-24T15:32:01Z</time>
      </trkpt>
      <trkpt lat="45.29364" lon="5.76748">
        <ele>1306.1</ele>
        <time>2021-08-24T15:32:02Z</time>
      </trkpt>
      <trkpt lat="45.29363" lon="5.76747">
        <ele>1306</ele>
        <time>2021-08-24T15:32:04Z</time>
      </trkpt>
      <trkpt lat="45.29361" lon="5.76746">
        <ele>1306</ele>
        <time>2021-08-24T15:32:05Z</time>
      </trkpt>
      <trkpt lat="45.29359" lon="5.76745">
        <ele>1305.9</ele>
        <time>2021-08-24T15:32:07Z</time>
      </trkpt>
      <trkpt lat="45.29308" lon="5.7672">
        <ele>1307.9</ele>
        <time>2021-08-24T15:32:49Z</time>
      </trkpt>
      <trkpt lat="45.29304" lon="5.7672">
        <ele>1307.7</ele>
        <time>2021-08-24T15:32:50Z</time>
      </trkpt>
      <trkpt lat="45.29303" lon="5.76719">
        <ele>1307.6</ele>
        <time>2021-08-24T15:32:51Z</time>
      </trkpt>
      <trkpt lat="45.29302" lon="5.76718">
        <ele>1307.5</ele>
        <time>2021-08-24T15:32:52Z</time>
      </trkpt>
      <trkpt lat="45.293" lon="5.76715">
        <ele>1307.4</ele>
        <time>2021-08-24T15:32:54Z</time>
      </trkpt>
      <trkpt lat="45.29299" lon="5.76713">
        <ele>1307.3</ele>
        <time>2021-08-24T15:32:56Z</time>
      </trkpt>
      <trkpt lat="45.29298" lon="5.76711">
        <ele>1307.2</ele>
        <time>2021-08-24T15:32:57Z</time>
      </trkpt>
      <trkpt lat="45.29298" lon="5.76709">
        <ele>1307.2</ele>
        <time>2021-08-24T15:32:59Z</time>
      </trkpt>
      <trkpt lat="45.29297" lon="5.76707">
        <ele>1307.1</ele>
        <time>2021-08-24T15:33:00Z</time>
      </trkpt>
      <trkpt lat="45.29297" lon="5.76706">
        <ele>1307.1</ele>
        <time>2021-08-24T15:33:01Z</time>
      </trkpt>
      <trkpt lat="45.29297" lon="5.76705">
        <ele>1307</ele>
        <time>2021-08-24T15:33:03Z</time>
      </trkpt>
      <trkpt lat="45.29296" lon="5.76704">
        <ele>1307</ele>
        <time>2021-08-24T15:33:05Z</time>
      </trkpt>
      <trkpt lat="45.29245" lon="5.76704">
        <ele>1305.4</ele>
        <time>2021-08-24T15:33:42Z</time>
      </trkpt>
      <trkpt lat="45.29242" lon="5.76703">
        <ele>1305.7</ele>
        <time>2021-08-24T15:33:43Z</time>
      </trkpt>
      <trkpt lat="45.29237" lon="5.76704">
        <ele>1306</ele>
        <time>2021-08-24T15:33:45Z</time>
      </trkpt>
      <trkpt lat="45.29235" lon="5.76706">
        <ele>1306.2</ele>
        <time>2021-08-24T15:33:47Z</time>
      </trkpt>
      <trkpt lat="45.29233" lon="5.76706">
        <ele>1306.3</ele>
        <time>2021-08-24T15:33:49Z</time>
      </trkpt>
      <trkpt lat="45.29232" lon="5.76707">
        <ele>1306.4</ele>
        <time>2021-08-24T15:33:50Z</time>
      </trkpt>
      <trkpt lat="45.29232" lon="5.76707">
        <ele>1306.5</ele>
        <time>2021-08-24T15:33:51Z</time>
      </trkpt>
      <trkpt lat="45.2923" lon="5.76709">
        <ele>1306.6</ele>
        <time>2021-08-24T15:33:53Z</time>
      </trkpt>
      <trkpt lat="45.29171" lon="5.76718">
        <ele>1310.9</ele>
        <time>2021-08-24T15:34:44Z</time>
      </trkpt>
      <trkpt lat="45.29167" lon="5.76715">
        <ele>1311.1</ele>
        <time>2021-08-24T15:34:45Z</time>
      </trkpt>
      <trkpt lat="45.29164" lon="5.76713">
        <ele>1311.4</ele>
        <time>2021-08-24T15:34:46Z</time>
      </trkpt>
      <trkpt lat="45.29163" lon="5.76712">
        <ele>1311.5</ele>
        <time>2021-08-24T15:34:47Z</time>
      </trkpt>
      <trkpt lat="45.2916" lon="5.76711">
        <ele>1311.7</ele>
        <time>2021-08-24T15:34:48Z</time>
      </trkpt>
      <trkpt lat="45.29159" lon="5.7671">
        <ele>1311.8</ele>
        <time>2021-08-24T15:34:49Z</time>
      </trkpt>
      <trkpt lat="45.29157" lon="5.7671">
        <ele>1311.9</ele>
        <time>2021-08-24T15:34:50Z</time>
      </trkpt>
      <trkpt lat="45.29153" lon="5.76708">
        <ele>1312.2</ele>
        <time>2021-08-24T15:34:52Z</time>
      </trkpt>
      <trkpt lat="45.29151" lon="5.76707">
        <ele>1312.3</ele>
        <time>2021-08-24T15:34:54Z</time>
      </trkpt>
      <trkpt lat="45.29151" lon="5.76709">
        <ele>1312.4</ele>
        <time>2021-08-24T15:34:56Z</time>
      </trkpt>
      <trkpt lat="45.2915" lon="5.7671">
        <ele>1312.5</ele>
        <time>2021-08-24T15:34:57Z</time>
      </trkpt>
      <trkpt lat="45.2915" lon="5.76711">
        <ele>1312.6</ele>
        <time>2021-08-24T15:34:58Z</time>
      </trkpt>
      <trkpt lat="45.29148" lon="5.76712">
        <ele>1312.7</ele>
        <time>2021-08-24T15:34:59Z</time>
      </trkpt>
      <trkpt lat="45.29147" lon="5.76712">
        <ele>1312.8</ele>
        <time>2021-08-24T15:35:00Z</time>
      </trkpt>
      <trkpt lat="45.29146" lon="5.76711">
        <ele>1312.8</ele>
        <time>2021-08-24T15:35:02Z</time>
      </trkpt>
      <trkpt lat="45.29145" lon="5.76711">
        <ele>1312.9</ele>
        <time>2021-08-24T15:35:03Z</time>
      </trkpt>
      <trkpt lat="45.29144" lon="5.7671">
        <ele>1313</ele>
        <time>2021-08-24T15:35:05Z</time>
      </trkpt>
      <trkpt lat="45.29143" lon="5.7671">
        <ele>1313.1</ele>
        <time>2021-08-24T15:35:06Z</time>
      </trkpt>
      <trkpt lat="45.29143" lon="5.76709">
        <ele>1313.1</ele>
        <time>2021-08-24T15:35:07Z</time>
      </trkpt>
      <trkpt lat="45.29143" lon="5.76709">
        <ele>1313.1</ele>
        <time>2021-08-24T15:35:08Z</time>
      </trkpt>
      <trkpt lat="45.29143" lon="5.76709">
        <ele>1313.1</ele>
        <time>2021-08-24T15:35:09Z</time>
      </trkpt>
      <trkpt lat="45.29121" lon="5.7671">
        <ele>1314.6</ele>
        <time>2021-08-24T15:35:29Z</time>
      </trkpt>
      <trkpt lat="45.29117" lon="5.76708">
        <ele>1314.9</ele>
        <time>2021-08-24T15:35:30Z</time>
      </trkpt>
      <trkpt lat="45.29113" lon="5.76707">
        <ele>1315.2</ele>
        <time>2021-08-24T15:35:31Z</time>
      </trkpt>
      <trkpt lat="45.29109" lon="5.76705">
        <ele>1315.5</ele>
        <time>2021-08-24T15:35:33Z</time>
      </trkpt>
      <trkpt lat="45.29107" lon="5.76703">
        <ele>1315.7</ele>
        <time>2021-08-24T15:35:34Z</time>
      </trkpt>
      <trkpt lat="45.29103" lon="5.76702">
        <ele>1315.9</ele>
        <time>2021-08-24T15:35:36Z</time>
      </trkpt>
      <trkpt lat="45.29102" lon="5.76702">
        <ele>1316</ele>
        <time>2021-08-24T15:35:37Z</time>
      </trkpt>
      <trkpt lat="45.29101" lon="5.76702">
        <ele>1316.1</ele>
        <time>2021-08-24T15:35:38Z</time>
      </trkpt>
      <trkpt lat="45.291" lon="5.76703">
        <ele>1316.2</ele>
        <time>2021-08-24T15:35:39Z</time>
      </trkpt>
      <trkpt lat="45.29099" lon="5.76703">
        <ele>1316.3</ele>
        <time>2021-08-24T15:35:41Z</time>
      </trkpt>
      <trkpt lat="45.29099" lon="5.76703">
        <ele>1316.3</ele>
        <time>2021-08-24T15:35:42Z</time>
      </trkpt>
      <trkpt lat="45.29096" lon="5.76705">
        <ele>1316.6</ele>
        <time>2021-08-24T15:35:43Z</time>
      </trkpt>
      <trkpt lat="45.29095" lon="5.76706">
        <ele>1316.6</ele>
        <time>2021-08-24T15:35:44Z</time>
      </trkpt>
      <trkpt lat="45.29092" lon="5.76707">
        <ele>1316.9</ele>
        <time>2021-08-24T15:35:46Z</time>
      </trkpt>
      <trkpt lat="45.29091" lon="5.76708">
        <ele>1316.9</ele>
        <time>2021-08-24T15:35:47Z</time>
      </trkpt>
      <trkpt lat="45.2909" lon="5.76708">
        <ele>1317</ele>
        <time>2021-08-24T15:35:48Z</time>
      </trkpt>
      <trkpt lat="45.29089" lon="5.76708">
        <ele>1317.1</ele>
        <time>2021-08-24T15:35:49Z</time>
      </trkpt>
      <trkpt lat="45.29086" lon="5.76708">
        <ele>1317.3</ele>
        <time>2021-08-24T15:35:51Z</time>
      </trkpt>
      <trkpt lat="45.29085" lon="5.76707">
        <ele>1317.4</ele>
        <time>2021-08-24T15:35:53Z</time>
      </trkpt>
      <trkpt lat="45.29084" lon="5.76707">
        <ele>1317.5</ele>
        <time>2021-08-24T15:35:54Z</time>
      </trkpt>
      <trkpt lat="45.29082" lon="5.76707">
        <ele>1317.6</ele>
        <time>2021-08-24T15:35:56Z</time>
      </trkpt>
      <trkpt lat="45.29081" lon="5.76706">
        <ele>1317.7</ele>
        <time>2021-08-24T15:35:57Z</time>
      </trkpt>
      <trkpt lat="45.2908" lon="5.76705">
        <ele>1317.8</ele>
        <time>2021-08-24T15:35:58Z</time>
      </trkpt>
      <trkpt lat="45.29079" lon="5.76705">
        <ele>1317.8</ele>
        <time>2021-08-24T15:35:59Z</time>
      </trkpt>
      <trkpt lat="45.29078" lon="5.76704">
        <ele>1317.9</ele>
        <time>2021-08-24T15:36:00Z</time>
      </trkpt>
      <trkpt lat="45.29078" lon="5.76704">
        <ele>1318</ele>
        <time>2021-08-24T15:36:02Z</time>
      </trkpt>
      <trkpt lat="45.29077" lon="5.76704">
        <ele>1318</ele>
        <time>2021-08-24T15:36:03Z</time>
      </trkpt>
      <trkpt lat="45.29077" lon="5.76703">
        <ele>1318</ele>
        <time>2021-08-24T15:36:04Z</time>
      </trkpt>
      <trkpt lat="45.29033" lon="5.76691">
        <ele>1321.3</ele>
        <time>2021-08-24T15:36:46Z</time>
      </trkpt>
      <trkpt lat="45.29031" lon="5.76685">
        <ele>1324.4</ele>
        <time>2021-08-24T15:36:47Z</time>
      </trkpt>
      <trkpt lat="45.29029" lon="5.76681">
        <ele>1324.4</ele>
        <time>2021-08-24T15:36:49Z</time>
      </trkpt>
      <trkpt lat="45.2903" lon="5.7668">
        <ele>1324.4</ele>
        <time>2021-08-24T15:36:50Z</time>
      </trkpt>
      <trkpt lat="45.2903" lon="5.76679">
        <ele>1324.4</ele>
        <time>2021-08-24T15:36:51Z</time>
      </trkpt>
      <trkpt lat="45.2903" lon="5.76679">
        <ele>1324.4</ele>
        <time>2021-08-24T15:36:52Z</time>
      </trkpt>
      <trkpt lat="45.2903" lon="5.76679">
        <ele>1324.4</ele>
        <time>2021-08-24T15:36:53Z</time>
      </trkpt>
      <trkpt lat="45.2903" lon="5.76679">
        <ele>1324.4</ele>
        <time>2021-08-24T15:36:55Z</time>
      </trkpt>
      <trkpt lat="45.2903" lon="5.76679">
        <ele>1324.4</ele>
        <time>2021-08-24T15:36:56Z</time>
      </trkpt>
      <trkpt lat="45.2903" lon="5.76679">
        <ele>1324.4</ele>
        <time>2021-08-24T15:36:57Z</time>
      </trkpt>
      <trkpt lat="45.2903" lon="5.76679">
        <ele>1324.4</ele>
        <time>2021-08-24T15:36:58Z</time>
      </trkpt>
      <trkpt lat="45.2903" lon="5.76679">
        <ele>1324.4</ele>
        <time>2021-08-24T15:37:00Z</time>
      </trkpt>
      <trkpt lat="45.29031" lon="5.76679">
        <ele>1324.4</ele>
        <time>2021-08-24T15:37:01Z</time>
      </trkpt>
      <trkpt lat="45.29031" lon="5.76679">
        <ele>1324.4</ele>
        <time>2021-08-24T15:37:03Z</time>
      </trkpt>
      <trkpt lat="45.29039" lon="5.76677">
        <ele>1324.4</ele>
        <time>2021-08-24T15:37:09Z</time>
      </trkpt>
      <trkpt lat="45.29043" lon="5.76677">
        <ele>1324.8</ele>
        <time>2021-08-24T15:37:10Z</time>
      </trkpt>
      <trkpt lat="45.29047" lon="5.76678">
        <ele>1325</ele>
        <time>2021-08-24T15:37:11Z</time>
      </trkpt>
      <trkpt lat="45.29051" lon="5.76678">
        <ele>1325.1</ele>
        <time>2021-08-24T15:37:12Z</time>
      </trkpt>
      <trkpt lat="45.29055" lon="5.76679">
        <ele>1325.3</ele>
        <time>2021-08-24T15:37:13Z</time>
      </trkpt>
      <trkpt lat="45.2906" lon="5.76678">
        <ele>1325.5</ele>
        <time>2021-08-24T15:37:15Z</time>
      </trkpt>
      <trkpt lat="45.29063" lon="5.76678">
        <ele>1325.7</ele>
        <time>2021-08-24T15:37:16Z</time>
      </trkpt>
      <trkpt lat="45.29068" lon="5.76677">
        <ele>1326</ele>
        <time>2021-08-24T15:37:18Z</time>
      </trkpt>
      <trkpt lat="45.29071" lon="5.76676">
        <ele>1326.1</ele>
        <time>2021-08-24T15:37:19Z</time>
      </trkpt>
      <trkpt lat="45.29074" lon="5.76675">
        <ele>1326.3</ele>
        <time>2021-08-24T15:37:20Z</time>
      </trkpt>
      <trkpt lat="45.29078" lon="5.76673">
        <ele>1326.5</ele>
        <time>2021-08-24T15:37:22Z</time>
      </trkpt>
      <trkpt lat="45.29082" lon="5.76671">
        <ele>1326.7</ele>
        <time>2021-08-24T15:37:23Z</time>
      </trkpt>
      <trkpt lat="45.29086" lon="5.7667">
        <ele>1326.9</ele>
        <time>2021-08-24T15:37:24Z</time>
      </trkpt>
      <trkpt lat="45.29087" lon="5.7667">
        <ele>1327</ele>
        <time>2021-08-24T15:37:25Z</time>
      </trkpt>
      <trkpt lat="45.29089" lon="5.76669">
        <ele>1327.1</ele>
        <time>2021-08-24T15:37:26Z</time>
      </trkpt>
      <trkpt lat="45.29093" lon="5.76667">
        <ele>1327.3</ele>
        <time>2021-08-24T15:37:28Z</time>
      </trkpt>
      <trkpt lat="45.29096" lon="5.76665">
        <ele>1327.5</ele>
        <time>2021-08-24T15:37:29Z</time>
      </trkpt>
      <trkpt lat="45.29097" lon="5.76664">
        <ele>1327.6</ele>
        <time>2021-08-24T15:37:30Z</time>
      </trkpt>
      <trkpt lat="45.291" lon="5.76662">
        <ele>1327.7</ele>
        <time>2021-08-24T15:37:31Z</time>
      </trkpt>
      <trkpt lat="45.29102" lon="5.76661">
        <ele>1327.8</ele>
        <time>2021-08-24T15:37:32Z</time>
      </trkpt>
      <trkpt lat="45.29105" lon="5.76659">
        <ele>1328</ele>
        <time>2021-08-24T15:37:33Z</time>
      </trkpt>
      <trkpt lat="45.29107" lon="5.76658">
        <ele>1328.1</ele>
        <time>2021-08-24T15:37:34Z</time>
      </trkpt>
      <trkpt lat="45.29111" lon="5.76656">
        <ele>1328.3</ele>
        <time>2021-08-24T15:37:36Z</time>
      </trkpt>
      <trkpt lat="45.29114" lon="5.76655">
        <ele>1328.4</ele>
        <time>2021-08-24T15:37:37Z</time>
      </trkpt>
      <trkpt lat="45.29116" lon="5.76654">
        <ele>1328.5</ele>
        <time>2021-08-24T15:37:38Z</time>
      </trkpt>
      <trkpt lat="45.2912" lon="5.76653">
        <ele>1328.7</ele>
        <time>2021-08-24T15:37:40Z</time>
      </trkpt>
      <trkpt lat="45.29123" lon="5.76652">
        <ele>1328.8</ele>
        <time>2021-08-24T15:37:41Z</time>
      </trkpt>
      <trkpt lat="45.29124" lon="5.76651">
        <ele>1328.9</ele>
        <time>2021-08-24T15:37:42Z</time>
      </trkpt>
      <trkpt lat="45.29128" lon="5.76651">
        <ele>1329</ele>
        <time>2021-08-24T15:37:43Z</time>
      </trkpt>
      <trkpt lat="45.29129" lon="5.76651">
        <ele>1329.1</ele>
        <time>2021-08-24T15:37:44Z</time>
      </trkpt>
      <trkpt lat="45.29132" lon="5.7665">
        <ele>1329.3</ele>
        <time>2021-08-24T15:37:45Z</time>
      </trkpt>
      <trkpt lat="45.29133" lon="5.76649">
        <ele>1329.3</ele>
        <time>2021-08-24T15:37:46Z</time>
      </trkpt>
      <trkpt lat="45.29136" lon="5.76648">
        <ele>1329.4</ele>
        <time>2021-08-24T15:37:47Z</time>
      </trkpt>
      <trkpt lat="45.29137" lon="5.76648">
        <ele>1329.5</ele>
        <time>2021-08-24T15:37:48Z</time>
      </trkpt>
      <trkpt lat="45.2914" lon="5.76648">
        <ele>1329.6</ele>
        <time>2021-08-24T15:37:50Z</time>
      </trkpt>
      <trkpt lat="45.29142" lon="5.76648">
        <ele>1329.7</ele>
        <time>2021-08-24T15:37:51Z</time>
      </trkpt>
      <trkpt lat="45.29146" lon="5.76649">
        <ele>1329.9</ele>
        <time>2021-08-24T15:37:53Z</time>
      </trkpt>
      <trkpt lat="45.29149" lon="5.7665">
        <ele>1330</ele>
        <time>2021-08-24T15:37:54Z</time>
      </trkpt>
      <trkpt lat="45.2915" lon="5.7665">
        <ele>1330</ele>
        <time>2021-08-24T15:37:55Z</time>
      </trkpt>
      <trkpt lat="45.29153" lon="5.76651">
        <ele>1330.1</ele>
        <time>2021-08-24T15:37:57Z</time>
      </trkpt>
      <trkpt lat="45.29157" lon="5.76651">
        <ele>1330.2</ele>
        <time>2021-08-24T15:37:59Z</time>
      </trkpt>
      <trkpt lat="45.2916" lon="5.76653">
        <ele>1330.3</ele>
        <time>2021-08-24T15:38:00Z</time>
      </trkpt>
      <trkpt lat="45.29161" lon="5.76653">
        <ele>1330.3</ele>
        <time>2021-08-24T15:38:01Z</time>
      </trkpt>
      <trkpt lat="45.29165" lon="5.76654">
        <ele>1330.4</ele>
        <time>2021-08-24T15:38:02Z</time>
      </trkpt>
      <trkpt lat="45.29166" lon="5.76654">
        <ele>1330.4</ele>
        <time>2021-08-24T15:38:03Z</time>
      </trkpt>
      <trkpt lat="45.29169" lon="5.76654">
        <ele>1330.4</ele>
        <time>2021-08-24T15:38:04Z</time>
      </trkpt>
      <trkpt lat="45.29171" lon="5.76652">
        <ele>1330.4</ele>
        <time>2021-08-24T15:38:06Z</time>
      </trkpt>
      <trkpt lat="45.29175" lon="5.76649">
        <ele>1330.3</ele>
        <time>2021-08-24T15:38:07Z</time>
      </trkpt>
      <trkpt lat="45.2918" lon="5.76644">
        <ele>1330.2</ele>
        <time>2021-08-24T15:38:09Z</time>
      </trkpt>
      <trkpt lat="45.29184" lon="5.76638">
        <ele>1330.1</ele>
        <time>2021-08-24T15:38:10Z</time>
      </trkpt>
      <trkpt lat="45.29189" lon="5.76632">
        <ele>1330</ele>
        <time>2021-08-24T15:38:11Z</time>
      </trkpt>
      <trkpt lat="45.29193" lon="5.76626">
        <ele>1329.8</ele>
        <time>2021-08-24T15:38:13Z</time>
      </trkpt>
      <trkpt lat="45.29199" lon="5.7662">
        <ele>1329.6</ele>
        <time>2021-08-24T15:38:14Z</time>
      </trkpt>
      <trkpt lat="45.29208" lon="5.76611">
        <ele>1329.3</ele>
        <time>2021-08-24T15:38:16Z</time>
      </trkpt>
      <trkpt lat="45.29217" lon="5.76605">
        <ele>1329</ele>
        <time>2021-08-24T15:38:18Z</time>
      </trkpt>
      <trkpt lat="45.29221" lon="5.76603">
        <ele>1328.9</ele>
        <time>2021-08-24T15:38:19Z</time>
      </trkpt>
      <trkpt lat="45.29226" lon="5.76601">
        <ele>1328.8</ele>
        <time>2021-08-24T15:38:20Z</time>
      </trkpt>
      <trkpt lat="45.2923" lon="5.766">
        <ele>1328.7</ele>
        <time>2021-08-24T15:38:21Z</time>
      </trkpt>
      <trkpt lat="45.2924" lon="5.76598">
        <ele>1328.6</ele>
        <time>2021-08-24T15:38:23Z</time>
      </trkpt>
      <trkpt lat="45.29249" lon="5.76597">
        <ele>1328.5</ele>
        <time>2021-08-24T15:38:25Z</time>
      </trkpt>
      <trkpt lat="45.29254" lon="5.76597">
        <ele>1328.5</ele>
        <time>2021-08-24T15:38:26Z</time>
      </trkpt>
      <trkpt lat="45.29261" lon="5.76595">
        <ele>1328.5</ele>
        <time>2021-08-24T15:38:28Z</time>
      </trkpt>
      <trkpt lat="45.29265" lon="5.76594">
        <ele>1328.5</ele>
        <time>2021-08-24T15:38:29Z</time>
      </trkpt>
      <trkpt lat="45.2927" lon="5.76593">
        <ele>1328.5</ele>
        <time>2021-08-24T15:38:30Z</time>
      </trkpt>
      <trkpt lat="45.29274" lon="5.76592">
        <ele>1328.6</ele>
        <time>2021-08-24T15:38:31Z</time>
      </trkpt>
      <trkpt lat="45.29277" lon="5.76589">
        <ele>1328.6</ele>
        <time>2021-08-24T15:38:32Z</time>
      </trkpt>
      <trkpt lat="45.29283" lon="5.76587">
        <ele>1328.7</ele>
        <time>2021-08-24T15:38:34Z</time>
      </trkpt>
      <trkpt lat="45.29284" lon="5.76586">
        <ele>1328.7</ele>
        <time>2021-08-24T15:38:35Z</time>
      </trkpt>
      <trkpt lat="45.29289" lon="5.76584">
        <ele>1328.8</ele>
        <time>2021-08-24T15:38:37Z</time>
      </trkpt>
      <trkpt lat="45.29292" lon="5.76582">
        <ele>1328.9</ele>
        <time>2021-08-24T15:38:38Z</time>
      </trkpt>
      <trkpt lat="45.29297" lon="5.76581">
        <ele>1329</ele>
        <time>2021-08-24T15:38:39Z</time>
      </trkpt>
      <trkpt lat="45.29302" lon="5.76579">
        <ele>1329.2</ele>
        <time>2021-08-24T15:38:41Z</time>
      </trkpt>
      <trkpt lat="45.29311" lon="5.76578">
        <ele>1329.5</ele>
        <time>2021-08-24T15:38:43Z</time>
      </trkpt>
      <trkpt lat="45.2932" lon="5.76576">
        <ele>1329.8</ele>
        <time>2021-08-24T15:38:45Z</time>
      </trkpt>
      <trkpt lat="45.2933" lon="5.76574">
        <ele>1330.2</ele>
        <time>2021-08-24T15:38:47Z</time>
      </trkpt>
      <trkpt lat="45.29334" lon="5.76573">
        <ele>1330.3</ele>
        <time>2021-08-24T15:38:48Z</time>
      </trkpt>
      <trkpt lat="45.29338" lon="5.76571">
        <ele>1330.5</ele>
        <time>2021-08-24T15:38:49Z</time>
      </trkpt>
      <trkpt lat="45.29344" lon="5.76568">
        <ele>1330.8</ele>
        <time>2021-08-24T15:38:51Z</time>
      </trkpt>
      <trkpt lat="45.29347" lon="5.76566">
        <ele>1330.9</ele>
        <time>2021-08-24T15:38:52Z</time>
      </trkpt>
      <trkpt lat="45.2935" lon="5.76564">
        <ele>1331</ele>
        <time>2021-08-24T15:38:53Z</time>
      </trkpt>
      <trkpt lat="45.29352" lon="5.76562">
        <ele>1331</ele>
        <time>2021-08-24T15:38:54Z</time>
      </trkpt>
      <trkpt lat="45.29355" lon="5.76561">
        <ele>1331.1</ele>
        <time>2021-08-24T15:38:55Z</time>
      </trkpt>
      <trkpt lat="45.29358" lon="5.7656">
        <ele>1331.2</ele>
        <time>2021-08-24T15:38:56Z</time>
      </trkpt>
      <trkpt lat="45.29361" lon="5.76558">
        <ele>1331.3</ele>
        <time>2021-08-24T15:38:57Z</time>
      </trkpt>
      <trkpt lat="45.29364" lon="5.76556">
        <ele>1331.4</ele>
        <time>2021-08-24T15:38:59Z</time>
      </trkpt>
      <trkpt lat="45.29367" lon="5.76554">
        <ele>1331.4</ele>
        <time>2021-08-24T15:39:00Z</time>
      </trkpt>
      <trkpt lat="45.29369" lon="5.76555">
        <ele>1331.5</ele>
        <time>2021-08-24T15:39:01Z</time>
      </trkpt>
      <trkpt lat="45.2937" lon="5.76556">
        <ele>1331.5</ele>
        <time>2021-08-24T15:39:02Z</time>
      </trkpt>
      <trkpt lat="45.29375" lon="5.76559">
        <ele>1331.7</ele>
        <time>2021-08-24T15:39:03Z</time>
      </trkpt>
      <trkpt lat="45.29377" lon="5.7656">
        <ele>1331.8</ele>
        <time>2021-08-24T15:39:05Z</time>
      </trkpt>
      <trkpt lat="45.29381" lon="5.76563">
        <ele>1331.9</ele>
        <time>2021-08-24T15:39:06Z</time>
      </trkpt>
      <trkpt lat="45.29385" lon="5.76566">
        <ele>1332</ele>
        <time>2021-08-24T15:39:08Z</time>
      </trkpt>
      <trkpt lat="45.29387" lon="5.76568">
        <ele>1332.1</ele>
        <time>2021-08-24T15:39:09Z</time>
      </trkpt>
      <trkpt lat="45.29392" lon="5.76566">
        <ele>1332.2</ele>
        <time>2021-08-24T15:39:11Z</time>
      </trkpt>
      <trkpt lat="45.29395" lon="5.76565">
        <ele>1332.3</ele>
        <time>2021-08-24T15:39:12Z</time>
      </trkpt>
      <trkpt lat="45.29398" lon="5.76563">
        <ele>1332.4</ele>
        <time>2021-08-24T15:39:14Z</time>
      </trkpt>
      <trkpt lat="45.29401" lon="5.7656">
        <ele>1332.5</ele>
        <time>2021-08-24T15:39:16Z</time>
      </trkpt>
      <trkpt lat="45.29402" lon="5.76558">
        <ele>1332.5</ele>
        <time>2021-08-24T15:39:17Z</time>
      </trkpt>
      <trkpt lat="45.29403" lon="5.76557">
        <ele>1332.5</ele>
        <time>2021-08-24T15:39:18Z</time>
      </trkpt>
      <trkpt lat="45.29405" lon="5.76556">
        <ele>1332.5</ele>
        <time>2021-08-24T15:39:19Z</time>
      </trkpt>
      <trkpt lat="45.29406" lon="5.76556">
        <ele>1332.5</ele>
        <time>2021-08-24T15:39:21Z</time>
      </trkpt>
      <trkpt lat="45.29407" lon="5.76556">
        <ele>1332.6</ele>
        <time>2021-08-24T15:39:22Z</time>
      </trkpt>
      <trkpt lat="45.29412" lon="5.76558">
        <ele>1332.6</ele>
        <time>2021-08-24T15:39:23Z</time>
      </trkpt>
      <trkpt lat="45.29416" lon="5.76559">
        <ele>1332.6</ele>
        <time>2021-08-24T15:39:25Z</time>
      </trkpt>
      <trkpt lat="45.2942" lon="5.76558">
        <ele>1332.6</ele>
        <time>2021-08-24T15:39:26Z</time>
      </trkpt>
      <trkpt lat="45.29426" lon="5.76553">
        <ele>1332.5</ele>
        <time>2021-08-24T15:39:27Z</time>
      </trkpt>
      <trkpt lat="45.29434" lon="5.76545">
        <ele>1332.2</ele>
        <time>2021-08-24T15:39:29Z</time>
      </trkpt>
      <trkpt lat="45.29439" lon="5.7654">
        <ele>1331.9</ele>
        <time>2021-08-24T15:39:30Z</time>
      </trkpt>
      <trkpt lat="45.29447" lon="5.76528">
        <ele>1331.1</ele>
        <time>2021-08-24T15:39:32Z</time>
      </trkpt>
      <trkpt lat="45.29455" lon="5.76514">
        <ele>1331</ele>
        <time>2021-08-24T15:39:34Z</time>
      </trkpt>
      <trkpt lat="45.29459" lon="5.76499">
        <ele>1330.9</ele>
        <time>2021-08-24T15:39:36Z</time>
      </trkpt>
      <trkpt lat="45.2946" lon="5.76482">
        <ele>1330.6</ele>
        <time>2021-08-24T15:39:38Z</time>
      </trkpt>
      <trkpt lat="45.29455" lon="5.76464">
        <ele>1329.9</ele>
        <time>2021-08-24T15:39:40Z</time>
      </trkpt>
      <trkpt lat="45.29452" lon="5.76454">
        <ele>1329.4</ele>
        <time>2021-08-24T15:39:41Z</time>
      </trkpt>
      <trkpt lat="45.29445" lon="5.76436">
        <ele>1328.6</ele>
        <time>2021-08-24T15:39:43Z</time>
      </trkpt>
      <trkpt lat="45.29442" lon="5.76426">
        <ele>1328.2</ele>
        <time>2021-08-24T15:39:44Z</time>
      </trkpt>
      <trkpt lat="45.29436" lon="5.76405">
        <ele>1327.5</ele>
        <time>2021-08-24T15:39:46Z</time>
      </trkpt>
      <trkpt lat="45.29434" lon="5.76393">
        <ele>1327.1</ele>
        <time>2021-08-24T15:39:47Z</time>
      </trkpt>
      <trkpt lat="45.2943" lon="5.76369">
        <ele>1326.7</ele>
        <time>2021-08-24T15:39:49Z</time>
      </trkpt>
      <trkpt lat="45.29429" lon="5.76357">
        <ele>1326.4</ele>
        <time>2021-08-24T15:39:50Z</time>
      </trkpt>
      <trkpt lat="45.29427" lon="5.76335">
        <ele>1326.4</ele>
        <time>2021-08-24T15:39:52Z</time>
      </trkpt>
      <trkpt lat="45.29426" lon="5.76316">
        <ele>1326.8</ele>
        <time>2021-08-24T15:39:54Z</time>
      </trkpt>
      <trkpt lat="45.29427" lon="5.763">
        <ele>1328</ele>
        <time>2021-08-24T15:39:56Z</time>
      </trkpt>
      <trkpt lat="45.29428" lon="5.7629">
        <ele>1328.9</ele>
        <time>2021-08-24T15:39:58Z</time>
      </trkpt>
      <trkpt lat="45.29428" lon="5.76286">
        <ele>1329.3</ele>
        <time>2021-08-24T15:39:59Z</time>
      </trkpt>
      <trkpt lat="45.2943" lon="5.76276">
        <ele>1330.3</ele>
        <time>2021-08-24T15:40:01Z</time>
      </trkpt>
      <trkpt lat="45.29431" lon="5.76271">
        <ele>1330.7</ele>
        <time>2021-08-24T15:40:02Z</time>
      </trkpt>
      <trkpt lat="45.29432" lon="5.76267">
        <ele>1331.2</ele>
        <time>2021-08-24T15:40:03Z</time>
      </trkpt>
      <trkpt lat="45.29432" lon="5.76264">
        <ele>1331.4</ele>
        <time>2021-08-24T15:40:04Z</time>
      </trkpt>
      <trkpt lat="45.29434" lon="5.76264">
        <ele>1331.6</ele>
        <time>2021-08-24T15:40:05Z</time>
      </trkpt>
      <trkpt lat="45.29435" lon="5.76258">
        <ele>1332.1</ele>
        <time>2021-08-24T15:40:07Z</time>
      </trkpt>
      <trkpt lat="45.29437" lon="5.76254">
        <ele>1332.5</ele>
        <time>2021-08-24T15:40:08Z</time>
      </trkpt>
      <trkpt lat="45.29438" lon="5.76251">
        <ele>1332.8</ele>
        <time>2021-08-24T15:40:09Z</time>
      </trkpt>
      <trkpt lat="45.2944" lon="5.76247">
        <ele>1333.2</ele>
        <time>2021-08-24T15:40:11Z</time>
      </trkpt>
      <trkpt lat="45.29442" lon="5.76244">
        <ele>1333.6</ele>
        <time>2021-08-24T15:40:12Z</time>
      </trkpt>
      <trkpt lat="45.29443" lon="5.76242">
        <ele>1333.8</ele>
        <time>2021-08-24T15:40:13Z</time>
      </trkpt>
      <trkpt lat="45.29445" lon="5.7624">
        <ele>1334.2</ele>
        <time>2021-08-24T15:40:14Z</time>
      </trkpt>
      <trkpt lat="45.29446" lon="5.76239">
        <ele>1334.3</ele>
        <time>2021-08-24T15:40:15Z</time>
      </trkpt>
      <trkpt lat="45.29448" lon="5.76238">
        <ele>1334.5</ele>
        <time>2021-08-24T15:40:17Z</time>
      </trkpt>
      <trkpt lat="45.29449" lon="5.76236">
        <ele>1334.8</ele>
        <time>2021-08-24T15:40:18Z</time>
      </trkpt>
      <trkpt lat="45.29451" lon="5.76235">
        <ele>1335.1</ele>
        <time>2021-08-24T15:40:19Z</time>
      </trkpt>
      <trkpt lat="45.29453" lon="5.76234">
        <ele>1335</ele>
        <time>2021-08-24T15:40:20Z</time>
      </trkpt>
      <trkpt lat="45.29455" lon="5.76231">
        <ele>1335</ele>
        <time>2021-08-24T15:40:22Z</time>
      </trkpt>
      <trkpt lat="45.29456" lon="5.76231">
        <ele>1334.8</ele>
        <time>2021-08-24T15:40:23Z</time>
      </trkpt>
      <trkpt lat="45.29459" lon="5.76231">
        <ele>1334.3</ele>
        <time>2021-08-24T15:40:25Z</time>
      </trkpt>
      <trkpt lat="45.2946" lon="5.76232">
        <ele>1334.2</ele>
        <time>2021-08-24T15:40:26Z</time>
      </trkpt>
      <trkpt lat="45.29462" lon="5.76231">
        <ele>1333.7</ele>
        <time>2021-08-24T15:40:27Z</time>
      </trkpt>
      <trkpt lat="45.29465" lon="5.7623">
        <ele>1333.2</ele>
        <time>2021-08-24T15:40:29Z</time>
      </trkpt>
      <trkpt lat="45.29468" lon="5.76229">
        <ele>1333</ele>
        <time>2021-08-24T15:40:31Z</time>
      </trkpt>
      <trkpt lat="45.2947" lon="5.7623">
        <ele>1332</ele>
        <time>2021-08-24T15:40:32Z</time>
      </trkpt>
      <trkpt lat="45.2947" lon="5.76231">
        <ele>1331.9</ele>
        <time>2021-08-24T15:40:33Z</time>
      </trkpt>
      <trkpt lat="45.2947" lon="5.76231">
        <ele>1331.8</ele>
        <time>2021-08-24T15:40:35Z</time>
      </trkpt>
      <trkpt lat="45.29469" lon="5.76231">
        <ele>1332.2</ele>
        <time>2021-08-24T15:40:36Z</time>
      </trkpt>
      <trkpt lat="45.29469" lon="5.76231">
        <ele>1332</ele>
        <time>2021-08-24T15:40:38Z</time>
      </trkpt>
      <trkpt lat="45.29469" lon="5.76231">
        <ele>1331.9</ele>
        <time>2021-08-24T15:40:39Z</time>
      </trkpt>
      <trkpt lat="45.29469" lon="5.76231">
        <ele>1331.8</ele>
        <time>2021-08-24T15:40:41Z</time>
      </trkpt>
      <trkpt lat="45.29469" lon="5.76233">
        <ele>1331.7</ele>
        <time>2021-08-24T15:40:42Z</time>
      </trkpt>
      <trkpt lat="45.29471" lon="5.76238">
        <ele>1330.2</ele>
        <time>2021-08-24T15:40:46Z</time>
      </trkpt>
      <trkpt lat="45.29472" lon="5.76244">
        <ele>1329.6</ele>
        <time>2021-08-24T15:40:48Z</time>
      </trkpt>
      <trkpt lat="45.29471" lon="5.76249">
        <ele>1329</ele>
        <time>2021-08-24T15:40:49Z</time>
      </trkpt>
      <trkpt lat="45.29471" lon="5.76257">
        <ele>1327.8</ele>
        <time>2021-08-24T15:40:50Z</time>
      </trkpt>
      <trkpt lat="45.2947" lon="5.76263">
        <ele>1326.7</ele>
        <time>2021-08-24T15:40:52Z</time>
      </trkpt>
      <trkpt lat="45.2947" lon="5.76269">
        <ele>1326.2</ele>
        <time>2021-08-24T15:40:53Z</time>
      </trkpt>
      <trkpt lat="45.29469" lon="5.76274">
        <ele>1326</ele>
        <time>2021-08-24T15:40:54Z</time>
      </trkpt>
      <trkpt lat="45.29468" lon="5.7628">
        <ele>1325.5</ele>
        <time>2021-08-24T15:40:55Z</time>
      </trkpt>
      <trkpt lat="45.29465" lon="5.76292">
        <ele>1324.8</ele>
        <time>2021-08-24T15:40:57Z</time>
      </trkpt>
      <trkpt lat="45.29464" lon="5.76299">
        <ele>1324</ele>
        <time>2021-08-24T15:40:58Z</time>
      </trkpt>
      <trkpt lat="45.29463" lon="5.7631">
        <ele>1323.6</ele>
        <time>2021-08-24T15:40:59Z</time>
      </trkpt>
      <trkpt lat="45.29464" lon="5.76318">
        <ele>1323</ele>
        <time>2021-08-24T15:41:01Z</time>
      </trkpt>
      <trkpt lat="45.29465" lon="5.76324">
        <ele>1322.7</ele>
        <time>2021-08-24T15:41:02Z</time>
      </trkpt>
      <trkpt lat="45.29465" lon="5.76329">
        <ele>1322.6</ele>
        <time>2021-08-24T15:41:03Z</time>
      </trkpt>
      <trkpt lat="45.29466" lon="5.76334">
        <ele>1322.4</ele>
        <time>2021-08-24T15:41:04Z</time>
      </trkpt>
      <trkpt lat="45.29465" lon="5.76336">
        <ele>1322.4</ele>
        <time>2021-08-24T15:41:05Z</time>
      </trkpt>
      <trkpt lat="45.29463" lon="5.76341">
        <ele>1322.6</ele>
        <time>2021-08-24T15:41:06Z</time>
      </trkpt>
      <trkpt lat="45.29461" lon="5.76344">
        <ele>1322.5</ele>
        <time>2021-08-24T15:41:07Z</time>
      </trkpt>
      <trkpt lat="45.29458" lon="5.76346">
        <ele>1322.7</ele>
        <time>2021-08-24T15:41:09Z</time>
      </trkpt>
      <trkpt lat="45.29456" lon="5.76348">
        <ele>1322.9</ele>
        <time>2021-08-24T15:41:10Z</time>
      </trkpt>
      <trkpt lat="45.29454" lon="5.76351">
        <ele>1323</ele>
        <time>2021-08-24T15:41:11Z</time>
      </trkpt>
      <trkpt lat="45.2945" lon="5.76351">
        <ele>1323.2</ele>
        <time>2021-08-24T15:41:12Z</time>
      </trkpt>
      <trkpt lat="45.29445" lon="5.76351">
        <ele>1323.6</ele>
        <time>2021-08-24T15:41:13Z</time>
      </trkpt>
      <trkpt lat="45.29441" lon="5.7635">
        <ele>1323.7</ele>
        <time>2021-08-24T15:41:14Z</time>
      </trkpt>
      <trkpt lat="45.2943" lon="5.76342">
        <ele>1324.3</ele>
        <time>2021-08-24T15:41:16Z</time>
      </trkpt>
      <trkpt lat="45.29418" lon="5.76332">
        <ele>1325.1</ele>
        <time>2021-08-24T15:41:18Z</time>
      </trkpt>
      <trkpt lat="45.29408" lon="5.76321">
        <ele>1326.1</ele>
        <time>2021-08-24T15:41:20Z</time>
      </trkpt>
      <trkpt lat="45.29398" lon="5.76309">
        <ele>1327</ele>
        <time>2021-08-24T15:41:22Z</time>
      </trkpt>
      <trkpt lat="45.29393" lon="5.76303">
        <ele>1327.2</ele>
        <time>2021-08-24T15:41:23Z</time>
      </trkpt>
      <trkpt lat="45.29388" lon="5.76294">
        <ele>1327.7</ele>
        <time>2021-08-24T15:41:25Z</time>
      </trkpt>
      <trkpt lat="45.29385" lon="5.76288">
        <ele>1328.2</ele>
        <time>2021-08-24T15:41:26Z</time>
      </trkpt>
      <trkpt lat="45.29378" lon="5.76276">
        <ele>1329.2</ele>
        <time>2021-08-24T15:41:28Z</time>
      </trkpt>
      <trkpt lat="45.2937" lon="5.76262">
        <ele>1330.2</ele>
        <time>2021-08-24T15:41:30Z</time>
      </trkpt>
      <trkpt lat="45.29361" lon="5.76249">
        <ele>1330.4</ele>
        <time>2021-08-24T15:41:32Z</time>
      </trkpt>
      <trkpt lat="45.29354" lon="5.76241">
        <ele>1330.6</ele>
        <time>2021-08-24T15:41:33Z</time>
      </trkpt>
      <trkpt lat="45.29348" lon="5.76234">
        <ele>1330.9</ele>
        <time>2021-08-24T15:41:34Z</time>
      </trkpt>
      <trkpt lat="45.29339" lon="5.76219">
        <ele>1331.3</ele>
        <time>2021-08-24T15:41:36Z</time>
      </trkpt>
      <trkpt lat="45.29332" lon="5.76208">
        <ele>1331.6</ele>
        <time>2021-08-24T15:41:38Z</time>
      </trkpt>
      <trkpt lat="45.29326" lon="5.76202">
        <ele>1331.8</ele>
        <time>2021-08-24T15:41:40Z</time>
      </trkpt>
      <trkpt lat="45.29323" lon="5.76198">
        <ele>1331.9</ele>
        <time>2021-08-24T15:41:41Z</time>
      </trkpt>
      <trkpt lat="45.29321" lon="5.76193">
        <ele>1332</ele>
        <time>2021-08-24T15:41:42Z</time>
      </trkpt>
      <trkpt lat="45.29318" lon="5.76189">
        <ele>1331.5</ele>
        <time>2021-08-24T15:41:43Z</time>
      </trkpt>
      <trkpt lat="45.29314" lon="5.76183">
        <ele>1330.4</ele>
        <time>2021-08-24T15:41:44Z</time>
      </trkpt>
      <trkpt lat="45.29305" lon="5.76176">
        <ele>1328</ele>
        <time>2021-08-24T15:41:46Z</time>
      </trkpt>
      <trkpt lat="45.29301" lon="5.76172">
        <ele>1326.8</ele>
        <time>2021-08-24T15:41:47Z</time>
      </trkpt>
      <trkpt lat="45.29297" lon="5.76168">
        <ele>1325.7</ele>
        <time>2021-08-24T15:41:48Z</time>
      </trkpt>
      <trkpt lat="45.29289" lon="5.76159">
        <ele>1323.5</ele>
        <time>2021-08-24T15:41:50Z</time>
      </trkpt>
      <trkpt lat="45.29286" lon="5.76157">
        <ele>1322.6</ele>
        <time>2021-08-24T15:41:51Z</time>
      </trkpt>
      <trkpt lat="45.29276" lon="5.76154">
        <ele>1320.3</ele>
        <time>2021-08-24T15:41:53Z</time>
      </trkpt>
      <trkpt lat="45.29271" lon="5.76153">
        <ele>1319</ele>
        <time>2021-08-24T15:41:54Z</time>
      </trkpt>
      <trkpt lat="45.29265" lon="5.76152">
        <ele>1317.6</ele>
        <time>2021-08-24T15:41:55Z</time>
      </trkpt>
      <trkpt lat="45.29259" lon="5.76149">
        <ele>1316.2</ele>
        <time>2021-08-24T15:41:56Z</time>
      </trkpt>
      <trkpt lat="45.29247" lon="5.76138">
        <ele>1312.9</ele>
        <time>2021-08-24T15:41:58Z</time>
      </trkpt>
      <trkpt lat="45.29235" lon="5.76126">
        <ele>1309.5</ele>
        <time>2021-08-24T15:42:00Z</time>
      </trkpt>
      <trkpt lat="45.29222" lon="5.76119">
        <ele>1306.8</ele>
        <time>2021-08-24T15:42:02Z</time>
      </trkpt>
      <trkpt lat="45.29211" lon="5.76116">
        <ele>1304.7</ele>
        <time>2021-08-24T15:42:04Z</time>
      </trkpt>
      <trkpt lat="45.29205" lon="5.76115">
        <ele>1303.9</ele>
        <time>2021-08-24T15:42:05Z</time>
      </trkpt>
      <trkpt lat="45.29199" lon="5.76116">
        <ele>1303</ele>
        <time>2021-08-24T15:42:06Z</time>
      </trkpt>
      <trkpt lat="45.29188" lon="5.76118">
        <ele>1301.4</ele>
        <time>2021-08-24T15:42:08Z</time>
      </trkpt>
      <trkpt lat="45.29175" lon="5.7612">
        <ele>1299.7</ele>
        <time>2021-08-24T15:42:10Z</time>
      </trkpt>
      <trkpt lat="45.29161" lon="5.76123">
        <ele>1297.8</ele>
        <time>2021-08-24T15:42:12Z</time>
      </trkpt>
      <trkpt lat="45.29144" lon="5.76123">
        <ele>1296.9</ele>
        <time>2021-08-24T15:42:14Z</time>
      </trkpt>
      <trkpt lat="45.29136" lon="5.76121">
        <ele>1296.5</ele>
        <time>2021-08-24T15:42:15Z</time>
      </trkpt>
      <trkpt lat="45.29118" lon="5.76115">
        <ele>1295.4</ele>
        <time>2021-08-24T15:42:17Z</time>
      </trkpt>
      <trkpt lat="45.291" lon="5.76107">
        <ele>1294</ele>
        <time>2021-08-24T15:42:19Z</time>
      </trkpt>
      <trkpt lat="45.29091" lon="5.76103">
        <ele>1293.4</ele>
        <time>2021-08-24T15:42:20Z</time>
      </trkpt>
      <trkpt lat="45.29075" lon="5.76094">
        <ele>1292.4</ele>
        <time>2021-08-24T15:42:22Z</time>
      </trkpt>
      <trkpt lat="45.29067" lon="5.76088">
        <ele>1292.1</ele>
        <time>2021-08-24T15:42:23Z</time>
      </trkpt>
      <trkpt lat="45.29052" lon="5.76076">
        <ele>1291.6</ele>
        <time>2021-08-24T15:42:25Z</time>
      </trkpt>
      <trkpt lat="45.29044" lon="5.76069">
        <ele>1291.3</ele>
        <time>2021-08-24T15:42:26Z</time>
      </trkpt>
      <trkpt lat="45.29028" lon="5.76056">
        <ele>1290.8</ele>
        <time>2021-08-24T15:42:28Z</time>
      </trkpt>
      <trkpt lat="45.2902" lon="5.7605">
        <ele>1290.5</ele>
        <time>2021-08-24T15:42:29Z</time>
      </trkpt>
      <trkpt lat="45.29012" lon="5.76045">
        <ele>1290.2</ele>
        <time>2021-08-24T15:42:30Z</time>
      </trkpt>
      <trkpt lat="45.28995" lon="5.76036">
        <ele>1289.6</ele>
        <time>2021-08-24T15:42:32Z</time>
      </trkpt>
      <trkpt lat="45.2898" lon="5.76027">
        <ele>1288.7</ele>
        <time>2021-08-24T15:42:34Z</time>
      </trkpt>
      <trkpt lat="45.28972" lon="5.76022">
        <ele>1288</ele>
        <time>2021-08-24T15:42:35Z</time>
      </trkpt>
      <trkpt lat="45.28955" lon="5.76014">
        <ele>1285.4</ele>
        <time>2021-08-24T15:42:37Z</time>
      </trkpt>
      <trkpt lat="45.28946" lon="5.76009">
        <ele>1284</ele>
        <time>2021-08-24T15:42:38Z</time>
      </trkpt>
      <trkpt lat="45.28928" lon="5.75999">
        <ele>1281.1</ele>
        <time>2021-08-24T15:42:40Z</time>
      </trkpt>
      <trkpt lat="45.28918" lon="5.75993">
        <ele>1279.6</ele>
        <time>2021-08-24T15:42:41Z</time>
      </trkpt>
      <trkpt lat="45.28909" lon="5.75988">
        <ele>1278</ele>
        <time>2021-08-24T15:42:42Z</time>
      </trkpt>
      <trkpt lat="45.28899" lon="5.75983">
        <ele>1276.4</ele>
        <time>2021-08-24T15:42:43Z</time>
      </trkpt>
      <trkpt lat="45.2889" lon="5.75977">
        <ele>1275</ele>
        <time>2021-08-24T15:42:44Z</time>
      </trkpt>
      <trkpt lat="45.28872" lon="5.75966">
        <ele>1272.9</ele>
        <time>2021-08-24T15:42:46Z</time>
      </trkpt>
      <trkpt lat="45.28863" lon="5.7596">
        <ele>1271.8</ele>
        <time>2021-08-24T15:42:47Z</time>
      </trkpt>
      <trkpt lat="45.28845" lon="5.75946">
        <ele>1269.6</ele>
        <time>2021-08-24T15:42:49Z</time>
      </trkpt>
      <trkpt lat="45.28827" lon="5.75931">
        <ele>1267.8</ele>
        <time>2021-08-24T15:42:51Z</time>
      </trkpt>
      <trkpt lat="45.2881" lon="5.75917">
        <ele>1266.2</ele>
        <time>2021-08-24T15:42:53Z</time>
      </trkpt>
      <trkpt lat="45.28802" lon="5.7591">
        <ele>1265.5</ele>
        <time>2021-08-24T15:42:54Z</time>
      </trkpt>
      <trkpt lat="45.28794" lon="5.75903">
        <ele>1264.9</ele>
        <time>2021-08-24T15:42:55Z</time>
      </trkpt>
      <trkpt lat="45.28786" lon="5.75896">
        <ele>1264.4</ele>
        <time>2021-08-24T15:42:56Z</time>
      </trkpt>
      <trkpt lat="45.28771" lon="5.75882">
        <ele>1263.2</ele>
        <time>2021-08-24T15:42:58Z</time>
      </trkpt>
      <trkpt lat="45.28763" lon="5.75875">
        <ele>1262.5</ele>
        <time>2021-08-24T15:42:59Z</time>
      </trkpt>
      <trkpt lat="45.28755" lon="5.75867">
        <ele>1261.9</ele>
        <time>2021-08-24T15:43:00Z</time>
      </trkpt>
      <trkpt lat="45.2874" lon="5.7585">
        <ele>1260.8</ele>
        <time>2021-08-24T15:43:02Z</time>
      </trkpt>
      <trkpt lat="45.28725" lon="5.75834">
        <ele>1259.9</ele>
        <time>2021-08-24T15:43:04Z</time>
      </trkpt>
      <trkpt lat="45.28718" lon="5.75827">
        <ele>1259.6</ele>
        <time>2021-08-24T15:43:05Z</time>
      </trkpt>
      <trkpt lat="45.28711" lon="5.7582">
        <ele>1259.2</ele>
        <time>2021-08-24T15:43:06Z</time>
      </trkpt>
      <trkpt lat="45.28704" lon="5.75813">
        <ele>1259</ele>
        <time>2021-08-24T15:43:07Z</time>
      </trkpt>
      <trkpt lat="45.28698" lon="5.75806">
        <ele>1258.7</ele>
        <time>2021-08-24T15:43:08Z</time>
      </trkpt>
      <trkpt lat="45.28686" lon="5.75793">
        <ele>1258.2</ele>
        <time>2021-08-24T15:43:10Z</time>
      </trkpt>
      <trkpt lat="45.28674" lon="5.75781">
        <ele>1257.6</ele>
        <time>2021-08-24T15:43:12Z</time>
      </trkpt>
      <trkpt lat="45.28662" lon="5.7577">
        <ele>1257.1</ele>
        <time>2021-08-24T15:43:14Z</time>
      </trkpt>
      <trkpt lat="45.28652" lon="5.75758">
        <ele>1256.2</ele>
        <time>2021-08-24T15:43:16Z</time>
      </trkpt>
      <trkpt lat="45.28643" lon="5.75748">
        <ele>1254.8</ele>
        <time>2021-08-24T15:43:18Z</time>
      </trkpt>
      <trkpt lat="45.28639" lon="5.75744">
        <ele>1254.2</ele>
        <time>2021-08-24T15:43:19Z</time>
      </trkpt>
      <trkpt lat="45.28635" lon="5.75741">
        <ele>1253.8</ele>
        <time>2021-08-24T15:43:20Z</time>
      </trkpt>
      <trkpt lat="45.28633" lon="5.75739">
        <ele>1253.4</ele>
        <time>2021-08-24T15:43:21Z</time>
      </trkpt>
      <trkpt lat="45.28629" lon="5.75736">
        <ele>1252.7</ele>
        <time>2021-08-24T15:43:23Z</time>
      </trkpt>
      <trkpt lat="45.28628" lon="5.75734">
        <ele>1252.5</ele>
        <time>2021-08-24T15:43:24Z</time>
      </trkpt>
      <trkpt lat="45.28627" lon="5.75731">
        <ele>1252</ele>
        <time>2021-08-24T15:43:26Z</time>
      </trkpt>
      <trkpt lat="45.28626" lon="5.7573">
        <ele>1251.8</ele>
        <time>2021-08-24T15:43:27Z</time>
      </trkpt>
      <trkpt lat="45.28625" lon="5.75725">
        <ele>1251.2</ele>
        <time>2021-08-24T15:43:29Z</time>
      </trkpt>
      <trkpt lat="45.28624" lon="5.75722">
        <ele>1250.8</ele>
        <time>2021-08-24T15:43:30Z</time>
      </trkpt>
      <trkpt lat="45.28622" lon="5.75717">
        <ele>1250.1</ele>
        <time>2021-08-24T15:43:32Z</time>
      </trkpt>
      <trkpt lat="45.28622" lon="5.75714">
        <ele>1249.7</ele>
        <time>2021-08-24T15:43:34Z</time>
      </trkpt>
      <trkpt lat="45.28621" lon="5.7571">
        <ele>1249.1</ele>
        <time>2021-08-24T15:43:36Z</time>
      </trkpt>
      <trkpt lat="45.2862" lon="5.75707">
        <ele>1248.6</ele>
        <time>2021-08-24T15:43:37Z</time>
      </trkpt>
      <trkpt lat="45.28618" lon="5.75704">
        <ele>1248.1</ele>
        <time>2021-08-24T15:43:38Z</time>
      </trkpt>
      <trkpt lat="45.28613" lon="5.75697">
        <ele>1246.6</ele>
        <time>2021-08-24T15:43:40Z</time>
      </trkpt>
      <trkpt lat="45.28604" lon="5.75686">
        <ele>1244</ele>
        <time>2021-08-24T15:43:42Z</time>
      </trkpt>
      <trkpt lat="45.28592" lon="5.75672">
        <ele>1241</ele>
        <time>2021-08-24T15:43:44Z</time>
      </trkpt>
      <trkpt lat="45.28579" lon="5.75656">
        <ele>1238.6</ele>
        <time>2021-08-24T15:43:46Z</time>
      </trkpt>
      <trkpt lat="45.28573" lon="5.75648">
        <ele>1237.4</ele>
        <time>2021-08-24T15:43:47Z</time>
      </trkpt>
      <trkpt lat="45.28567" lon="5.7564">
        <ele>1236.3</ele>
        <time>2021-08-24T15:43:48Z</time>
      </trkpt>
      <trkpt lat="45.28556" lon="5.75625">
        <ele>1234.3</ele>
        <time>2021-08-24T15:43:50Z</time>
      </trkpt>
      <trkpt lat="45.28546" lon="5.75611">
        <ele>1232.6</ele>
        <time>2021-08-24T15:43:52Z</time>
      </trkpt>
      <trkpt lat="45.28541" lon="5.75603">
        <ele>1231.7</ele>
        <time>2021-08-24T15:43:53Z</time>
      </trkpt>
      <trkpt lat="45.28537" lon="5.75596">
        <ele>1230.8</ele>
        <time>2021-08-24T15:43:54Z</time>
      </trkpt>
      <trkpt lat="45.28532" lon="5.75588">
        <ele>1229.8</ele>
        <time>2021-08-24T15:43:55Z</time>
      </trkpt>
      <trkpt lat="45.28527" lon="5.75581">
        <ele>1228.8</ele>
        <time>2021-08-24T15:43:56Z</time>
      </trkpt>
      <trkpt lat="45.28516" lon="5.75567">
        <ele>1227</ele>
        <time>2021-08-24T15:43:58Z</time>
      </trkpt>
      <trkpt lat="45.28505" lon="5.75554">
        <ele>1225.5</ele>
        <time>2021-08-24T15:44:00Z</time>
      </trkpt>
      <trkpt lat="45.28499" lon="5.75548">
        <ele>1224.7</ele>
        <time>2021-08-24T15:44:01Z</time>
      </trkpt>
      <trkpt lat="45.28492" lon="5.75542">
        <ele>1224.1</ele>
        <time>2021-08-24T15:44:02Z</time>
      </trkpt>
      <trkpt lat="45.28486" lon="5.75537">
        <ele>1223.5</ele>
        <time>2021-08-24T15:44:03Z</time>
      </trkpt>
      <trkpt lat="45.28474" lon="5.75525">
        <ele>1222.4</ele>
        <time>2021-08-24T15:44:05Z</time>
      </trkpt>
      <trkpt lat="45.28468" lon="5.75519">
        <ele>1221.9</ele>
        <time>2021-08-24T15:44:06Z</time>
      </trkpt>
      <trkpt lat="45.28457" lon="5.75505">
        <ele>1220.7</ele>
        <time>2021-08-24T15:44:08Z</time>
      </trkpt>
      <trkpt lat="45.28448" lon="5.75491">
        <ele>1219.5</ele>
        <time>2021-08-24T15:44:10Z</time>
      </trkpt>
      <trkpt lat="45.2844" lon="5.75476">
        <ele>1218.2</ele>
        <time>2021-08-24T15:44:12Z</time>
      </trkpt>
      <trkpt lat="45.28437" lon="5.75469">
        <ele>1217.7</ele>
        <time>2021-08-24T15:44:13Z</time>
      </trkpt>
      <trkpt lat="45.28434" lon="5.75461">
        <ele>1217.1</ele>
        <time>2021-08-24T15:44:14Z</time>
      </trkpt>
      <trkpt lat="45.28428" lon="5.75448">
        <ele>1216.2</ele>
        <time>2021-08-24T15:44:16Z</time>
      </trkpt>
      <trkpt lat="45.28425" lon="5.75441">
        <ele>1215.7</ele>
        <time>2021-08-24T15:44:17Z</time>
      </trkpt>
      <trkpt lat="45.28418" lon="5.75427">
        <ele>1214.6</ele>
        <time>2021-08-24T15:44:19Z</time>
      </trkpt>
      <trkpt lat="45.28414" lon="5.75421">
        <ele>1213.7</ele>
        <time>2021-08-24T15:44:20Z</time>
      </trkpt>
      <trkpt lat="45.28406" lon="5.7541">
        <ele>1212.3</ele>
        <time>2021-08-24T15:44:22Z</time>
      </trkpt>
      <trkpt lat="45.28402" lon="5.75406">
        <ele>1211.6</ele>
        <time>2021-08-24T15:44:23Z</time>
      </trkpt>
      <trkpt lat="45.28394" lon="5.75401">
        <ele>1210.5</ele>
        <time>2021-08-24T15:44:25Z</time>
      </trkpt>
      <trkpt lat="45.2839" lon="5.754">
        <ele>1210</ele>
        <time>2021-08-24T15:44:26Z</time>
      </trkpt>
      <trkpt lat="45.28384" lon="5.75398">
        <ele>1209.1</ele>
        <time>2021-08-24T15:44:28Z</time>
      </trkpt>
      <trkpt lat="45.2838" lon="5.75397">
        <ele>1208.6</ele>
        <time>2021-08-24T15:44:29Z</time>
      </trkpt>
      <trkpt lat="45.28374" lon="5.75398">
        <ele>1207.5</ele>
        <time>2021-08-24T15:44:31Z</time>
      </trkpt>
      <trkpt lat="45.28371" lon="5.75399">
        <ele>1206.9</ele>
        <time>2021-08-24T15:44:32Z</time>
      </trkpt>
      <trkpt lat="45.2837" lon="5.754">
        <ele>1206.6</ele>
        <time>2021-08-24T15:44:33Z</time>
      </trkpt>
      <trkpt lat="45.28366" lon="5.754">
        <ele>1206.1</ele>
        <time>2021-08-24T15:44:34Z</time>
      </trkpt>
      <trkpt lat="45.28362" lon="5.75399">
        <ele>1205.3</ele>
        <time>2021-08-24T15:44:36Z</time>
      </trkpt>
      <trkpt lat="45.28358" lon="5.75398">
        <ele>1204.6</ele>
        <time>2021-08-24T15:44:37Z</time>
      </trkpt>
      <trkpt lat="45.28353" lon="5.75398">
        <ele>1203.6</ele>
        <time>2021-08-24T15:44:39Z</time>
      </trkpt>
      <trkpt lat="45.28346" lon="5.75395">
        <ele>1202.3</ele>
        <time>2021-08-24T15:44:41Z</time>
      </trkpt>
      <trkpt lat="45.28342" lon="5.75393">
        <ele>1201.3</ele>
        <time>2021-08-24T15:44:42Z</time>
      </trkpt>
      <trkpt lat="45.28337" lon="5.75389">
        <ele>1200.2</ele>
        <time>2021-08-24T15:44:44Z</time>
      </trkpt>
      <trkpt lat="45.28334" lon="5.75385">
        <ele>1199.4</ele>
        <time>2021-08-24T15:44:45Z</time>
      </trkpt>
      <trkpt lat="45.2833" lon="5.75383">
        <ele>1198.5</ele>
        <time>2021-08-24T15:44:46Z</time>
      </trkpt>
      <trkpt lat="45.28327" lon="5.75379">
        <ele>1197.6</ele>
        <time>2021-08-24T15:44:48Z</time>
      </trkpt>
      <trkpt lat="45.28324" lon="5.75376">
        <ele>1196.7</ele>
        <time>2021-08-24T15:44:49Z</time>
      </trkpt>
      <trkpt lat="45.28321" lon="5.75372">
        <ele>1195.8</ele>
        <time>2021-08-24T15:44:51Z</time>
      </trkpt>
      <trkpt lat="45.2832" lon="5.75371">
        <ele>1195.6</ele>
        <time>2021-08-24T15:44:52Z</time>
      </trkpt>
      <trkpt lat="45.28317" lon="5.75367">
        <ele>1194.7</ele>
        <time>2021-08-24T15:44:53Z</time>
      </trkpt>
      <trkpt lat="45.28316" lon="5.75365">
        <ele>1194.4</ele>
        <time>2021-08-24T15:44:54Z</time>
      </trkpt>
      <trkpt lat="45.28314" lon="5.75362">
        <ele>1193.8</ele>
        <time>2021-08-24T15:44:56Z</time>
      </trkpt>
      <trkpt lat="45.28313" lon="5.7536">
        <ele>1193.4</ele>
        <time>2021-08-24T15:44:57Z</time>
      </trkpt>
      <trkpt lat="45.28311" lon="5.75357">
        <ele>1192.9</ele>
        <time>2021-08-24T15:44:59Z</time>
      </trkpt>
      <trkpt lat="45.28308" lon="5.75354">
        <ele>1192.2</ele>
        <time>2021-08-24T15:45:00Z</time>
      </trkpt>
      <trkpt lat="45.28307" lon="5.75353">
        <ele>1191.9</ele>
        <time>2021-08-24T15:45:01Z</time>
      </trkpt>
      <trkpt lat="45.28306" lon="5.7535">
        <ele>1191.5</ele>
        <time>2021-08-24T15:45:02Z</time>
      </trkpt>
      <trkpt lat="45.28304" lon="5.75347">
        <ele>1191</ele>
        <time>2021-08-24T15:45:04Z</time>
      </trkpt>
      <trkpt lat="45.28303" lon="5.75343">
        <ele>1190.3</ele>
        <time>2021-08-24T15:45:05Z</time>
      </trkpt>
      <trkpt lat="45.28302" lon="5.75342">
        <ele>1190.1</ele>
        <time>2021-08-24T15:45:06Z</time>
      </trkpt>
      <trkpt lat="45.28301" lon="5.75338">
        <ele>1189.5</ele>
        <time>2021-08-24T15:45:07Z</time>
      </trkpt>
      <trkpt lat="45.28298" lon="5.75333">
        <ele>1188.6</ele>
        <time>2021-08-24T15:45:09Z</time>
      </trkpt>
      <trkpt lat="45.28297" lon="5.75332">
        <ele>1188.3</ele>
        <time>2021-08-24T15:45:10Z</time>
      </trkpt>
      <trkpt lat="45.28296" lon="5.7533">
        <ele>1187.9</ele>
        <time>2021-08-24T15:45:11Z</time>
      </trkpt>
      <trkpt lat="45.28293" lon="5.75326">
        <ele>1187</ele>
        <time>2021-08-24T15:45:13Z</time>
      </trkpt>
      <trkpt lat="45.2829" lon="5.75324">
        <ele>1186.3</ele>
        <time>2021-08-24T15:45:14Z</time>
      </trkpt>
      <trkpt lat="45.28285" lon="5.75322">
        <ele>1184</ele>
        <time>2021-08-24T15:45:16Z</time>
      </trkpt>
      <trkpt lat="45.28281" lon="5.75318">
        <ele>1182.8</ele>
        <time>2021-08-24T15:45:18Z</time>
      </trkpt>
      <trkpt lat="45.2828" lon="5.75318">
        <ele>1181.6</ele>
        <time>2021-08-24T15:45:19Z</time>
      </trkpt>
      <trkpt lat="45.28278" lon="5.75318">
        <ele>1181.5</ele>
        <time>2021-08-24T15:45:20Z</time>
      </trkpt>
      <trkpt lat="45.28274" lon="5.75322">
        <ele>1178.8</ele>
        <time>2021-08-24T15:45:22Z</time>
      </trkpt>
      <trkpt lat="45.28272" lon="5.75324">
        <ele>1178.6</ele>
        <time>2021-08-24T15:45:23Z</time>
      </trkpt>
      <trkpt lat="45.28271" lon="5.75325">
        <ele>1178.5</ele>
        <time>2021-08-24T15:45:24Z</time>
      </trkpt>
      <trkpt lat="45.28269" lon="5.75328">
        <ele>1177.1</ele>
        <time>2021-08-24T15:45:25Z</time>
      </trkpt>
      <trkpt lat="45.28265" lon="5.75334">
        <ele>1175.6</ele>
        <time>2021-08-24T15:45:27Z</time>
      </trkpt>
      <trkpt lat="45.28262" lon="5.75338">
        <ele>1174.2</ele>
        <time>2021-08-24T15:45:28Z</time>
      </trkpt>
      <trkpt lat="45.28258" lon="5.75342">
        <ele>1171.2</ele>
        <time>2021-08-24T15:45:29Z</time>
      </trkpt>
      <trkpt lat="45.28255" lon="5.75345">
        <ele>1169.7</ele>
        <time>2021-08-24T15:45:30Z</time>
      </trkpt>
      <trkpt lat="45.28252" lon="5.75348">
        <ele>1168.4</ele>
        <time>2021-08-24T15:45:31Z</time>
      </trkpt>
      <trkpt lat="45.28248" lon="5.75353">
        <ele>1166.9</ele>
        <time>2021-08-24T15:45:32Z</time>
      </trkpt>
      <trkpt lat="45.28241" lon="5.7536">
        <ele>1164.3</ele>
        <time>2021-08-24T15:45:34Z</time>
      </trkpt>
      <trkpt lat="45.28238" lon="5.75364">
        <ele>1162.1</ele>
        <time>2021-08-24T15:45:35Z</time>
      </trkpt>
      <trkpt lat="45.28233" lon="5.75366">
        <ele>1161.1</ele>
        <time>2021-08-24T15:45:36Z</time>
      </trkpt>
      <trkpt lat="45.28226" lon="5.75371">
        <ele>1158.3</ele>
        <time>2021-08-24T15:45:38Z</time>
      </trkpt>
      <trkpt lat="45.28219" lon="5.75372">
        <ele>1154.9</ele>
        <time>2021-08-24T15:45:40Z</time>
      </trkpt>
      <trkpt lat="45.28215" lon="5.7537">
        <ele>1154.1</ele>
        <time>2021-08-24T15:45:41Z</time>
      </trkpt>
      <trkpt lat="45.2821" lon="5.75368">
        <ele>1152.1</ele>
        <time>2021-08-24T15:45:42Z</time>
      </trkpt>
      <trkpt lat="45.28207" lon="5.75365">
        <ele>1151.5</ele>
        <time>2021-08-24T15:45:43Z</time>
      </trkpt>
      <trkpt lat="45.28203" lon="5.7536">
        <ele>1150.8</ele>
        <time>2021-08-24T15:45:45Z</time>
      </trkpt>
      <trkpt lat="45.28201" lon="5.75355">
        <ele>1150.1</ele>
        <time>2021-08-24T15:45:46Z</time>
      </trkpt>
      <trkpt lat="45.28199" lon="5.75351">
        <ele>1150.4</ele>
        <time>2021-08-24T15:45:47Z</time>
      </trkpt>
      <trkpt lat="45.28197" lon="5.75348">
        <ele>1149.6</ele>
        <time>2021-08-24T15:45:48Z</time>
      </trkpt>
      <trkpt lat="45.28195" lon="5.75343">
        <ele>1148.9</ele>
        <time>2021-08-24T15:45:50Z</time>
      </trkpt>
      <trkpt lat="45.28194" lon="5.75341">
        <ele>1148.8</ele>
        <time>2021-08-24T15:45:51Z</time>
      </trkpt>
      <trkpt lat="45.28193" lon="5.75339">
        <ele>1149.1</ele>
        <time>2021-08-24T15:45:52Z</time>
      </trkpt>
      <trkpt lat="45.28197" lon="5.75327">
        <ele>1151.2</ele>
        <time>2021-08-24T15:45:54Z</time>
      </trkpt>
      <trkpt lat="45.28199" lon="5.75316">
        <ele>1153</ele>
        <time>2021-08-24T15:45:55Z</time>
      </trkpt>
      <trkpt lat="45.28201" lon="5.75306">
        <ele>1154.1</ele>
        <time>2021-08-24T15:45:57Z</time>
      </trkpt>
      <trkpt lat="45.28203" lon="5.75296">
        <ele>1156.7</ele>
        <time>2021-08-24T15:45:59Z</time>
      </trkpt>
      <trkpt lat="45.28205" lon="5.75285">
        <ele>1158.5</ele>
        <time>2021-08-24T15:46:01Z</time>
      </trkpt>
      <trkpt lat="45.28207" lon="5.75275">
        <ele>1160.3</ele>
        <time>2021-08-24T15:46:02Z</time>
      </trkpt>
      <trkpt lat="45.2821" lon="5.75265">
        <ele>1162.3</ele>
        <time>2021-08-24T15:49:23Z</time>
      </trkpt>
      <trkpt lat="45.28212" lon="5.75254">
        <ele>1165.4</ele>
        <time>2021-08-24T15:49:24Z</time>
      </trkpt>
      <trkpt lat="45.28214" lon="5.75244">
        <ele>1167.6</ele>
        <time>2021-08-24T15:49:25Z</time>
      </trkpt>
      <trkpt lat="45.28213" lon="5.75242">
        <ele>1166.9</ele>
        <time>2021-08-24T15:49:26Z</time>
      </trkpt>
      <trkpt lat="45.28209" lon="5.75236">
        <ele>1167.9</ele>
        <time>2021-08-24T15:49:28Z</time>
      </trkpt>
      <trkpt lat="45.28209" lon="5.75235">
        <ele>1167.8</ele>
        <time>2021-08-24T15:49:29Z</time>
      </trkpt>
      <trkpt lat="45.28208" lon="5.75233">
        <ele>1168.6</ele>
        <time>2021-08-24T15:49:31Z</time>
      </trkpt>
      <trkpt lat="45.28208" lon="5.75231">
        <ele>1168.5</ele>
        <time>2021-08-24T15:49:32Z</time>
      </trkpt>
      <trkpt lat="45.28208" lon="5.7523">
        <ele>1168.4</ele>
        <time>2021-08-24T15:49:34Z</time>
      </trkpt>
      <trkpt lat="45.28184" lon="5.75191">
        <ele>1173.8</ele>
        <time>2021-08-24T15:50:35Z</time>
      </trkpt>
      <trkpt lat="45.28182" lon="5.7519">
        <ele>1174.5</ele>
        <time>2021-08-24T15:50:37Z</time>
      </trkpt>
      <trkpt lat="45.28181" lon="5.7519">
        <ele>1174.4</ele>
        <time>2021-08-24T15:50:38Z</time>
      </trkpt>
      <trkpt lat="45.2818" lon="5.7519">
        <ele>1174.1</ele>
        <time>2021-08-24T15:50:40Z</time>
      </trkpt>
      <trkpt lat="45.28179" lon="5.7519">
        <ele>1173</ele>
        <time>2021-08-24T15:50:41Z</time>
      </trkpt>
      <trkpt lat="45.28178" lon="5.75191">
        <ele>1172.9</ele>
        <time>2021-08-24T15:50:42Z</time>
      </trkpt>
      <trkpt lat="45.28177" lon="5.75192">
        <ele>1172.6</ele>
        <time>2021-08-24T15:50:44Z</time>
      </trkpt>
      <trkpt lat="45.28176" lon="5.75192">
        <ele>1172.6</ele>
        <time>2021-08-24T15:50:45Z</time>
      </trkpt>
      <trkpt lat="45.28174" lon="5.75192">
        <ele>1172.2</ele>
        <time>2021-08-24T15:50:47Z</time>
      </trkpt>
      <trkpt lat="45.28171" lon="5.75193">
        <ele>1171.9</ele>
        <time>2021-08-24T15:50:48Z</time>
      </trkpt>
      <trkpt lat="45.28165" lon="5.75194">
        <ele>1171.5</ele>
        <time>2021-08-24T15:50:49Z</time>
      </trkpt>
      <trkpt lat="45.28163" lon="5.75195">
        <ele>1170</ele>
        <time>2021-08-24T15:50:51Z</time>
      </trkpt>
      <trkpt lat="45.28162" lon="5.75195">
        <ele>1169.9</ele>
        <time>2021-08-24T15:50:52Z</time>
      </trkpt>
      <trkpt lat="45.28162" lon="5.75195">
        <ele>1169.6</ele>
        <time>2021-08-24T15:50:54Z</time>
      </trkpt>
      <trkpt lat="45.28162" lon="5.75195">
        <ele>1169.5</ele>
        <time>2021-08-24T15:50:55Z</time>
      </trkpt>
      <trkpt lat="45.28161" lon="5.75194">
        <ele>1170.6</ele>
        <time>2021-08-24T15:50:56Z</time>
      </trkpt>
      <trkpt lat="45.28161" lon="5.75193">
        <ele>1170.5</ele>
        <time>2021-08-24T15:50:57Z</time>
      </trkpt>
      <trkpt lat="45.28161" lon="5.75192">
        <ele>1170.4</ele>
        <time>2021-08-24T15:50:59Z</time>
      </trkpt>
      <trkpt lat="45.28161" lon="5.75189">
        <ele>1171.5</ele>
        <time>2021-08-24T15:51:01Z</time>
      </trkpt>
      <trkpt lat="45.28161" lon="5.75187">
        <ele>1171.4</ele>
        <time>2021-08-24T15:51:02Z</time>
      </trkpt>
      <trkpt lat="45.28161" lon="5.75185">
        <ele>1172.4</ele>
        <time>2021-08-24T15:51:03Z</time>
      </trkpt>
      <trkpt lat="45.28161" lon="5.75184">
        <ele>1172.3</ele>
        <time>2021-08-24T15:51:04Z</time>
      </trkpt>
      <trkpt lat="45.28162" lon="5.75182">
        <ele>1172.5</ele>
        <time>2021-08-24T15:51:06Z</time>
      </trkpt>
      <trkpt lat="45.28163" lon="5.75178">
        <ele>1173.6</ele>
        <time>2021-08-24T15:51:07Z</time>
      </trkpt>
      <trkpt lat="45.28164" lon="5.75176">
        <ele>1174.6</ele>
        <time>2021-08-24T15:51:09Z</time>
      </trkpt>
      <trkpt lat="45.28164" lon="5.75174">
        <ele>1174.5</ele>
        <time>2021-08-24T15:51:10Z</time>
      </trkpt>
      <trkpt lat="45.28164" lon="5.7517">
        <ele>1175.5</ele>
        <time>2021-08-24T15:51:12Z</time>
      </trkpt>
      <trkpt lat="45.28163" lon="5.75166">
        <ele>1176.5</ele>
        <time>2021-08-24T15:51:13Z</time>
      </trkpt>
      <trkpt lat="45.28163" lon="5.75164">
        <ele>1177.5</ele>
        <time>2021-08-24T15:51:14Z</time>
      </trkpt>
      <trkpt lat="45.28162" lon="5.75161">
        <ele>1177.1</ele>
        <time>2021-08-24T15:51:16Z</time>
      </trkpt>
      <trkpt lat="45.28161" lon="5.75157">
        <ele>1178</ele>
        <time>2021-08-24T15:51:18Z</time>
      </trkpt>
      <trkpt lat="45.2816" lon="5.75156">
        <ele>1178.9</ele>
        <time>2021-08-24T15:51:19Z</time>
      </trkpt>
      <trkpt lat="45.28158" lon="5.75153">
        <ele>1178.5</ele>
        <time>2021-08-24T15:51:21Z</time>
      </trkpt>
      <trkpt lat="45.28156" lon="5.7515">
        <ele>1179.1</ele>
        <time>2021-08-24T15:51:22Z</time>
      </trkpt>
      <trkpt lat="45.28155" lon="5.75149">
        <ele>1179.1</ele>
        <time>2021-08-24T15:51:23Z</time>
      </trkpt>
      <trkpt lat="45.28154" lon="5.75148">
        <ele>1179</ele>
        <time>2021-08-24T15:51:24Z</time>
      </trkpt>
      <trkpt lat="45.28151" lon="5.75145">
        <ele>1179.6</ele>
        <time>2021-08-24T15:51:26Z</time>
      </trkpt>
      <trkpt lat="45.28147" lon="5.75142">
        <ele>1180.3</ele>
        <time>2021-08-24T15:51:27Z</time>
      </trkpt>
      <trkpt lat="45.28144" lon="5.75139">
        <ele>1181.1</ele>
        <time>2021-08-24T15:51:29Z</time>
      </trkpt>
      <trkpt lat="45.28143" lon="5.75137">
        <ele>1180.7</ele>
        <time>2021-08-24T15:51:30Z</time>
      </trkpt>
      <trkpt lat="45.2814" lon="5.75134">
        <ele>1181.5</ele>
        <time>2021-08-24T15:51:31Z</time>
      </trkpt>
      <trkpt lat="45.28136" lon="5.75131">
        <ele>1181.2</ele>
        <time>2021-08-24T15:51:33Z</time>
      </trkpt>
      <trkpt lat="45.2813" lon="5.75127">
        <ele>1181.7</ele>
        <time>2021-08-24T15:51:35Z</time>
      </trkpt>
      <trkpt lat="45.28125" lon="5.75122">
        <ele>1182.2</ele>
        <time>2021-08-24T15:51:36Z</time>
      </trkpt>
      <trkpt lat="45.28121" lon="5.75119">
        <ele>1182.9</ele>
        <time>2021-08-24T15:51:38Z</time>
      </trkpt>
      <trkpt lat="45.28119" lon="5.75118">
        <ele>1182.4</ele>
        <time>2021-08-24T15:51:39Z</time>
      </trkpt>
      <trkpt lat="45.28116" lon="5.75116">
        <ele>1183</ele>
        <time>2021-08-24T15:51:41Z</time>
      </trkpt>
      <trkpt lat="45.28111" lon="5.75116">
        <ele>1182</ele>
        <time>2021-08-24T15:51:43Z</time>
      </trkpt>
      <trkpt lat="45.2808" lon="5.75108">
        <ele>1178.2</ele>
        <time>2021-08-24T15:51:54Z</time>
      </trkpt>
      <trkpt lat="45.28076" lon="5.75108">
        <ele>1177.5</ele>
        <time>2021-08-24T15:51:55Z</time>
      </trkpt>
      <trkpt lat="45.28075" lon="5.75107">
        <ele>1177.4</ele>
        <time>2021-08-24T15:51:56Z</time>
      </trkpt>
      <trkpt lat="45.28072" lon="5.75104">
        <ele>1177.3</ele>
        <time>2021-08-24T15:51:58Z</time>
      </trkpt>
      <trkpt lat="45.28071" lon="5.75102">
        <ele>1176.6</ele>
        <time>2021-08-24T15:51:59Z</time>
      </trkpt>
      <trkpt lat="45.28071" lon="5.751">
        <ele>1176.5</ele>
        <time>2021-08-24T15:52:00Z</time>
      </trkpt>
      <trkpt lat="45.2807" lon="5.751">
        <ele>1177</ele>
        <time>2021-08-24T15:52:02Z</time>
      </trkpt>
      <trkpt lat="45.2807" lon="5.75099">
        <ele>1176.9</ele>
        <time>2021-08-24T15:52:03Z</time>
      </trkpt>
      <trkpt lat="45.2807" lon="5.75099">
        <ele>1176.8</ele>
        <time>2021-08-24T15:52:05Z</time>
      </trkpt>
      <trkpt lat="45.28069" lon="5.75099">
        <ele>1176.8</ele>
        <time>2021-08-24T15:52:08Z</time>
      </trkpt>
      <trkpt lat="45.28055" lon="5.75104">
        <ele>1172.9</ele>
        <time>2021-08-24T15:52:15Z</time>
      </trkpt>
      <trkpt lat="45.28051" lon="5.75105">
        <ele>1171.8</ele>
        <time>2021-08-24T15:52:16Z</time>
      </trkpt>
      <trkpt lat="45.28046" lon="5.75107">
        <ele>1170.7</ele>
        <time>2021-08-24T15:52:17Z</time>
      </trkpt>
      <trkpt lat="45.28042" lon="5.75108">
        <ele>1170.2</ele>
        <time>2021-08-24T15:52:19Z</time>
      </trkpt>
      <trkpt lat="45.28036" lon="5.7511">
        <ele>1169</ele>
        <time>2021-08-24T15:52:21Z</time>
      </trkpt>
      <trkpt lat="45.28033" lon="5.75111">
        <ele>1168.5</ele>
        <time>2021-08-24T15:52:22Z</time>
      </trkpt>
      <trkpt lat="45.2803" lon="5.75112">
        <ele>1168</ele>
        <time>2021-08-24T15:52:23Z</time>
      </trkpt>
      <trkpt lat="45.28029" lon="5.75114">
        <ele>1167.1</ele>
        <time>2021-08-24T15:52:24Z</time>
      </trkpt>
      <trkpt lat="45.28028" lon="5.75115">
        <ele>1167.1</ele>
        <time>2021-08-24T15:52:26Z</time>
      </trkpt>
      <trkpt lat="45.28028" lon="5.75115">
        <ele>1167</ele>
        <time>2021-08-24T15:52:27Z</time>
      </trkpt>
      <trkpt lat="45.28026" lon="5.75114">
        <ele>1166.5</ele>
        <time>2021-08-24T15:52:28Z</time>
      </trkpt>
      <trkpt lat="45.28023" lon="5.75113">
        <ele>1166.4</ele>
        <time>2021-08-24T15:52:29Z</time>
      </trkpt>
      <trkpt lat="45.28022" lon="5.75113">
        <ele>1166.3</ele>
        <time>2021-08-24T15:52:30Z</time>
      </trkpt>
      <trkpt lat="45.2802" lon="5.75112">
        <ele>1166.2</ele>
        <time>2021-08-24T15:52:31Z</time>
      </trkpt>
      <trkpt lat="45.28019" lon="5.75111">
        <ele>1165.8</ele>
        <time>2021-08-24T15:52:32Z</time>
      </trkpt>
      <trkpt lat="45.28018" lon="5.75111">
        <ele>1165.7</ele>
        <time>2021-08-24T15:52:34Z</time>
      </trkpt>
      <trkpt lat="45.28015" lon="5.7511">
        <ele>1165.3</ele>
        <time>2021-08-24T15:52:35Z</time>
      </trkpt>
      <trkpt lat="45.27997" lon="5.75105">
        <ele>1162.9</ele>
        <time>2021-08-24T15:52:37Z</time>
      </trkpt>
      <trkpt lat="45.27992" lon="5.75105">
        <ele>1161.9</ele>
        <time>2021-08-24T15:52:38Z</time>
      </trkpt>
      <trkpt lat="45.27983" lon="5.751">
        <ele>1160.9</ele>
        <time>2021-08-24T15:52:40Z</time>
      </trkpt>
      <trkpt lat="45.27977" lon="5.75096">
        <ele>1160.4</ele>
        <time>2021-08-24T15:52:41Z</time>
      </trkpt>
      <trkpt lat="45.27973" lon="5.75094">
        <ele>1160.2</ele>
        <time>2021-08-24T15:52:42Z</time>
      </trkpt>
      <trkpt lat="45.27951" lon="5.75088">
        <ele>1158.1</ele>
        <time>2021-08-24T15:52:44Z</time>
      </trkpt>
      <trkpt lat="45.27943" lon="5.75084">
        <ele>1157.2</ele>
        <time>2021-08-24T15:52:45Z</time>
      </trkpt>
      <trkpt lat="45.27935" lon="5.7508">
        <ele>1156.5</ele>
        <time>2021-08-24T15:52:46Z</time>
      </trkpt>
      <trkpt lat="45.27921" lon="5.7507">
        <ele>1156.1</ele>
        <time>2021-08-24T15:52:48Z</time>
      </trkpt>
      <trkpt lat="45.27903" lon="5.75055">
        <ele>1155.8</ele>
        <time>2021-08-24T15:52:50Z</time>
      </trkpt>
      <trkpt lat="45.27882" lon="5.75041">
        <ele>1154.9</ele>
        <time>2021-08-24T15:52:52Z</time>
      </trkpt>
      <trkpt lat="45.27872" lon="5.75036">
        <ele>1153.9</ele>
        <time>2021-08-24T15:52:53Z</time>
      </trkpt>
      <trkpt lat="45.27863" lon="5.75031">
        <ele>1153</ele>
        <time>2021-08-24T15:52:54Z</time>
      </trkpt>
      <trkpt lat="45.27845" lon="5.75024">
        <ele>1151.4</ele>
        <time>2021-08-24T15:52:56Z</time>
      </trkpt>
      <trkpt lat="45.27829" lon="5.75023">
        <ele>1147.7</ele>
        <time>2021-08-24T15:52:58Z</time>
      </trkpt>
      <trkpt lat="45.2782" lon="5.75023">
        <ele>1146.9</ele>
        <time>2021-08-24T15:52:59Z</time>
      </trkpt>
      <trkpt lat="45.27803" lon="5.75025">
        <ele>1145.3</ele>
        <time>2021-08-24T15:53:01Z</time>
      </trkpt>
      <trkpt lat="45.27794" lon="5.75028">
        <ele>1144.2</ele>
        <time>2021-08-24T15:53:02Z</time>
      </trkpt>
      <trkpt lat="45.27774" lon="5.75034">
        <ele>1141.5</ele>
        <time>2021-08-24T15:53:04Z</time>
      </trkpt>
      <trkpt lat="45.27756" lon="5.7504">
        <ele>1138.6</ele>
        <time>2021-08-24T15:53:06Z</time>
      </trkpt>
      <trkpt lat="45.27738" lon="5.75049">
        <ele>1135.3</ele>
        <time>2021-08-24T15:53:08Z</time>
      </trkpt>
      <trkpt lat="45.27719" lon="5.75061">
        <ele>1132.1</ele>
        <time>2021-08-24T15:53:10Z</time>
      </trkpt>
      <trkpt lat="45.2771" lon="5.75067">
        <ele>1130.6</ele>
        <time>2021-08-24T15:53:11Z</time>
      </trkpt>
      <trkpt lat="45.27701" lon="5.75073">
        <ele>1129</ele>
        <time>2021-08-24T15:53:12Z</time>
      </trkpt>
      <trkpt lat="45.27682" lon="5.75085">
        <ele>1125.1</ele>
        <time>2021-08-24T15:53:14Z</time>
      </trkpt>
      <trkpt lat="45.27662" lon="5.75098">
        <ele>1120.5</ele>
        <time>2021-08-24T15:53:16Z</time>
      </trkpt>
      <trkpt lat="45.27652" lon="5.75104">
        <ele>1118.2</ele>
        <time>2021-08-24T15:53:17Z</time>
      </trkpt>
      <trkpt lat="45.27641" lon="5.75111">
        <ele>1116</ele>
        <time>2021-08-24T15:53:18Z</time>
      </trkpt>
      <trkpt lat="45.27621" lon="5.75124">
        <ele>1112.1</ele>
        <time>2021-08-24T15:53:20Z</time>
      </trkpt>
      <trkpt lat="45.27602" lon="5.75135">
        <ele>1109.1</ele>
        <time>2021-08-24T15:53:22Z</time>
      </trkpt>
      <trkpt lat="45.27594" lon="5.7514">
        <ele>1107.9</ele>
        <time>2021-08-24T15:53:23Z</time>
      </trkpt>
      <trkpt lat="45.27587" lon="5.75143">
        <ele>1106.7</ele>
        <time>2021-08-24T15:53:24Z</time>
      </trkpt>
      <trkpt lat="45.27575" lon="5.75148">
        <ele>1104.9</ele>
        <time>2021-08-24T15:53:26Z</time>
      </trkpt>
      <trkpt lat="45.27569" lon="5.7515">
        <ele>1103.9</ele>
        <time>2021-08-24T15:53:28Z</time>
      </trkpt>
      <trkpt lat="45.27567" lon="5.75151">
        <ele>1103.5</ele>
        <time>2021-08-24T15:53:29Z</time>
      </trkpt>
      <trkpt lat="45.27564" lon="5.75156">
        <ele>1103</ele>
        <time>2021-08-24T15:53:31Z</time>
      </trkpt>
      <trkpt lat="45.27562" lon="5.75161">
        <ele>1102.4</ele>
        <time>2021-08-24T15:53:32Z</time>
      </trkpt>
      <trkpt lat="45.27561" lon="5.75163">
        <ele>1102.1</ele>
        <time>2021-08-24T15:53:33Z</time>
      </trkpt>
      <trkpt lat="45.27558" lon="5.75171">
        <ele>1101.9</ele>
        <time>2021-08-24T15:53:35Z</time>
      </trkpt>
      <trkpt lat="45.27558" lon="5.75176">
        <ele>1101.6</ele>
        <time>2021-08-24T15:53:36Z</time>
      </trkpt>
      <trkpt lat="45.27559" lon="5.75183">
        <ele>1101.2</ele>
        <time>2021-08-24T15:53:37Z</time>
      </trkpt>
      <trkpt lat="45.2756" lon="5.75191">
        <ele>1100.8</ele>
        <time>2021-08-24T15:53:38Z</time>
      </trkpt>
      <trkpt lat="45.27565" lon="5.75208">
        <ele>1100.5</ele>
        <time>2021-08-24T15:53:40Z</time>
      </trkpt>
      <trkpt lat="45.27569" lon="5.75225">
        <ele>1099.6</ele>
        <time>2021-08-24T15:53:42Z</time>
      </trkpt>
      <trkpt lat="45.27571" lon="5.75246">
        <ele>1098.2</ele>
        <time>2021-08-24T15:53:44Z</time>
      </trkpt>
      <trkpt lat="45.27571" lon="5.75269">
        <ele>1096.1</ele>
        <time>2021-08-24T15:53:46Z</time>
      </trkpt>
      <trkpt lat="45.27571" lon="5.7528">
        <ele>1095</ele>
        <time>2021-08-24T15:53:47Z</time>
      </trkpt>
      <trkpt lat="45.2757" lon="5.75291">
        <ele>1093.4</ele>
        <time>2021-08-24T15:53:48Z</time>
      </trkpt>
      <trkpt lat="45.27567" lon="5.75313">
        <ele>1090.9</ele>
        <time>2021-08-24T15:53:50Z</time>
      </trkpt>
      <trkpt lat="45.27566" lon="5.75324">
        <ele>1089.1</ele>
        <time>2021-08-24T15:53:51Z</time>
      </trkpt>
      <trkpt lat="45.27562" lon="5.75348">
        <ele>1086.3</ele>
        <time>2021-08-24T15:53:53Z</time>
      </trkpt>
      <trkpt lat="45.27559" lon="5.75374">
        <ele>1083.3</ele>
        <time>2021-08-24T15:53:55Z</time>
      </trkpt>
      <trkpt lat="45.27558" lon="5.75386">
        <ele>1082</ele>
        <time>2021-08-24T15:53:56Z</time>
      </trkpt>
      <trkpt lat="45.27556" lon="5.7541">
        <ele>1080.7</ele>
        <time>2021-08-24T15:53:58Z</time>
      </trkpt>
      <trkpt lat="45.27552" lon="5.75432">
        <ele>1079.6</ele>
        <time>2021-08-24T15:54:00Z</time>
      </trkpt>
      <trkpt lat="45.27549" lon="5.75448">
        <ele>1078.9</ele>
        <time>2021-08-24T15:54:02Z</time>
      </trkpt>
      <trkpt lat="45.27544" lon="5.75459">
        <ele>1078.3</ele>
        <time>2021-08-24T15:54:04Z</time>
      </trkpt>
      <trkpt lat="45.27537" lon="5.75469">
        <ele>1077.5</ele>
        <time>2021-08-24T15:54:06Z</time>
      </trkpt>
      <trkpt lat="45.2753" lon="5.75474">
        <ele>1077.2</ele>
        <time>2021-08-24T15:54:08Z</time>
      </trkpt>
      <trkpt lat="45.27519" lon="5.7548">
        <ele>1076.4</ele>
        <time>2021-08-24T15:54:10Z</time>
      </trkpt>
      <trkpt lat="45.27513" lon="5.75481">
        <ele>1076</ele>
        <time>2021-08-24T15:54:11Z</time>
      </trkpt>
      <trkpt lat="45.27507" lon="5.75481">
        <ele>1075.6</ele>
        <time>2021-08-24T15:54:12Z</time>
      </trkpt>
      <trkpt lat="45.27497" lon="5.75476">
        <ele>1075</ele>
        <time>2021-08-24T15:54:14Z</time>
      </trkpt>
      <trkpt lat="45.27492" lon="5.75471">
        <ele>1075</ele>
        <time>2021-08-24T15:54:15Z</time>
      </trkpt>
      <trkpt lat="45.27484" lon="5.75457">
        <ele>1074.6</ele>
        <time>2021-08-24T15:54:17Z</time>
      </trkpt>
      <trkpt lat="45.27475" lon="5.75442">
        <ele>1073.9</ele>
        <time>2021-08-24T15:54:19Z</time>
      </trkpt>
      <trkpt lat="45.2747" lon="5.75433">
        <ele>1073.5</ele>
        <time>2021-08-24T15:54:20Z</time>
      </trkpt>
      <trkpt lat="45.27459" lon="5.75418">
        <ele>1073</ele>
        <time>2021-08-24T15:54:22Z</time>
      </trkpt>
      <trkpt lat="45.27454" lon="5.7541">
        <ele>1072.8</ele>
        <time>2021-08-24T15:54:23Z</time>
      </trkpt>
      <trkpt lat="45.27443" lon="5.75393">
        <ele>1072.7</ele>
        <time>2021-08-24T15:54:25Z</time>
      </trkpt>
      <trkpt lat="45.27437" lon="5.75385">
        <ele>1072.8</ele>
        <time>2021-08-24T15:54:26Z</time>
      </trkpt>
      <trkpt lat="45.27426" lon="5.7537">
        <ele>1073.1</ele>
        <time>2021-08-24T15:54:28Z</time>
      </trkpt>
      <trkpt lat="45.27421" lon="5.75363">
        <ele>1073.2</ele>
        <time>2021-08-24T15:54:29Z</time>
      </trkpt>
      <trkpt lat="45.27411" lon="5.75348">
        <ele>1073.2</ele>
        <time>2021-08-24T15:54:31Z</time>
      </trkpt>
      <trkpt lat="45.27406" lon="5.75341">
        <ele>1073.2</ele>
        <time>2021-08-24T15:54:32Z</time>
      </trkpt>
      <trkpt lat="45.27395" lon="5.75325">
        <ele>1073.1</ele>
        <time>2021-08-24T15:54:34Z</time>
      </trkpt>
      <trkpt lat="45.27384" lon="5.75307">
        <ele>1073</ele>
        <time>2021-08-24T15:54:36Z</time>
      </trkpt>
      <trkpt lat="45.27374" lon="5.7529">
        <ele>1072.8</ele>
        <time>2021-08-24T15:54:38Z</time>
      </trkpt>
      <trkpt lat="45.27368" lon="5.75282">
        <ele>1072.7</ele>
        <time>2021-08-24T15:54:39Z</time>
      </trkpt>
      <trkpt lat="45.27358" lon="5.75266">
        <ele>1072.5</ele>
        <time>2021-08-24T15:54:41Z</time>
      </trkpt>
      <trkpt lat="45.27346" lon="5.75253">
        <ele>1072.5</ele>
        <time>2021-08-24T15:54:43Z</time>
      </trkpt>
      <trkpt lat="45.27339" lon="5.75246">
        <ele>1072.4</ele>
        <time>2021-08-24T15:54:44Z</time>
      </trkpt>
      <trkpt lat="45.27323" lon="5.75235">
        <ele>1072.3</ele>
        <time>2021-08-24T15:54:46Z</time>
      </trkpt>
      <trkpt lat="45.27314" lon="5.75229">
        <ele>1071.7</ele>
        <time>2021-08-24T15:54:47Z</time>
      </trkpt>
      <trkpt lat="45.27306" lon="5.75223">
        <ele>1071</ele>
        <time>2021-08-24T15:54:48Z</time>
      </trkpt>
      <trkpt lat="45.27291" lon="5.7521">
        <ele>1069.5</ele>
        <time>2021-08-24T15:54:50Z</time>
      </trkpt>
      <trkpt lat="45.27277" lon="5.75201">
        <ele>1068.3</ele>
        <time>2021-08-24T15:54:52Z</time>
      </trkpt>
      <trkpt lat="45.2727" lon="5.75196">
        <ele>1067.8</ele>
        <time>2021-08-24T15:54:53Z</time>
      </trkpt>
      <trkpt lat="45.27264" lon="5.75192">
        <ele>1067.3</ele>
        <time>2021-08-24T15:54:54Z</time>
      </trkpt>
      <trkpt lat="45.27257" lon="5.75188">
        <ele>1066.7</ele>
        <time>2021-08-24T15:54:55Z</time>
      </trkpt>
      <trkpt lat="45.27251" lon="5.75184">
        <ele>1066.1</ele>
        <time>2021-08-24T15:54:56Z</time>
      </trkpt>
      <trkpt lat="45.27246" lon="5.75181">
        <ele>1064.9</ele>
        <time>2021-08-24T15:54:57Z</time>
      </trkpt>
      <trkpt lat="45.27236" lon="5.75177">
        <ele>1062.7</ele>
        <time>2021-08-24T15:54:59Z</time>
      </trkpt>
      <trkpt lat="45.27231" lon="5.75175">
        <ele>1061.5</ele>
        <time>2021-08-24T15:55:00Z</time>
      </trkpt>
      <trkpt lat="45.27226" lon="5.75173">
        <ele>1060.1</ele>
        <time>2021-08-24T15:55:01Z</time>
      </trkpt>
      <trkpt lat="45.27221" lon="5.7517">
        <ele>1058.7</ele>
        <time>2021-08-24T15:55:02Z</time>
      </trkpt>
      <trkpt lat="45.27211" lon="5.75165">
        <ele>1055.4</ele>
        <time>2021-08-24T15:55:04Z</time>
      </trkpt>
      <trkpt lat="45.27205" lon="5.75161">
        <ele>1053.6</ele>
        <time>2021-08-24T15:55:05Z</time>
      </trkpt>
      <trkpt lat="45.27195" lon="5.75153">
        <ele>1049.7</ele>
        <time>2021-08-24T15:55:07Z</time>
      </trkpt>
      <trkpt lat="45.27189" lon="5.75148">
        <ele>1047.8</ele>
        <time>2021-08-24T15:55:08Z</time>
      </trkpt>
      <trkpt lat="45.27179" lon="5.75138">
        <ele>1044.3</ele>
        <time>2021-08-24T15:55:10Z</time>
      </trkpt>
      <trkpt lat="45.27173" lon="5.75133">
        <ele>1042.7</ele>
        <time>2021-08-24T15:55:11Z</time>
      </trkpt>
      <trkpt lat="45.27168" lon="5.75129">
        <ele>1041.1</ele>
        <time>2021-08-24T15:55:12Z</time>
      </trkpt>
      <trkpt lat="45.27157" lon="5.75119">
        <ele>1038</ele>
        <time>2021-08-24T15:55:14Z</time>
      </trkpt>
      <trkpt lat="45.27145" lon="5.75109">
        <ele>1034.9</ele>
        <time>2021-08-24T15:55:16Z</time>
      </trkpt>
      <trkpt lat="45.27133" lon="5.751">
        <ele>1032.1</ele>
        <time>2021-08-24T15:55:18Z</time>
      </trkpt>
      <trkpt lat="45.27122" lon="5.75093">
        <ele>1029.7</ele>
        <time>2021-08-24T15:55:20Z</time>
      </trkpt>
      <trkpt lat="45.27112" lon="5.75085">
        <ele>1027.7</ele>
        <time>2021-08-24T15:55:22Z</time>
      </trkpt>
      <trkpt lat="45.27107" lon="5.75081">
        <ele>1026.8</ele>
        <time>2021-08-24T15:55:23Z</time>
      </trkpt>
      <trkpt lat="45.27099" lon="5.75072">
        <ele>1024.9</ele>
        <time>2021-08-24T15:55:25Z</time>
      </trkpt>
      <trkpt lat="45.27095" lon="5.75067">
        <ele>1024</ele>
        <time>2021-08-24T15:55:26Z</time>
      </trkpt>
      <trkpt lat="45.27086" lon="5.75057">
        <ele>1021.9</ele>
        <time>2021-08-24T15:55:28Z</time>
      </trkpt>
      <trkpt lat="45.27077" lon="5.75051">
        <ele>1019.6</ele>
        <time>2021-08-24T15:55:30Z</time>
      </trkpt>
      <trkpt lat="45.27068" lon="5.75048">
        <ele>1017</ele>
        <time>2021-08-24T15:55:32Z</time>
      </trkpt>
      <trkpt lat="45.27061" lon="5.75045">
        <ele>1015.2</ele>
        <time>2021-08-24T15:55:34Z</time>
      </trkpt>
      <trkpt lat="45.27057" lon="5.75042">
        <ele>1013.9</ele>
        <time>2021-08-24T15:55:35Z</time>
      </trkpt>
      <trkpt lat="45.27052" lon="5.7504">
        <ele>1012.8</ele>
        <time>2021-08-24T15:55:36Z</time>
      </trkpt>
      <trkpt lat="45.27044" lon="5.75033">
        <ele>1010.2</ele>
        <time>2021-08-24T15:55:38Z</time>
      </trkpt>
      <trkpt lat="45.27037" lon="5.75027">
        <ele>1008.3</ele>
        <time>2021-08-24T15:55:39Z</time>
      </trkpt>
      <trkpt lat="45.27033" lon="5.75024">
        <ele>1007.2</ele>
        <time>2021-08-24T15:55:40Z</time>
      </trkpt>
      <trkpt lat="45.27031" lon="5.75021">
        <ele>1006.4</ele>
        <time>2021-08-24T15:55:41Z</time>
      </trkpt>
      <trkpt lat="45.27023" lon="5.75013">
        <ele>1004.1</ele>
        <time>2021-08-24T15:55:43Z</time>
      </trkpt>
      <trkpt lat="45.27018" lon="5.75008">
        <ele>1002.6</ele>
        <time>2021-08-24T15:55:44Z</time>
      </trkpt>
      <trkpt lat="45.27012" lon="5.75004">
        <ele>1001.1</ele>
        <time>2021-08-24T15:55:45Z</time>
      </trkpt>
      <trkpt lat="45.27007" lon="5.75001">
        <ele>999.7</ele>
        <time>2021-08-24T15:55:46Z</time>
      </trkpt>
      <trkpt lat="45.26996" lon="5.74994">
        <ele>996.6</ele>
        <time>2021-08-24T15:55:48Z</time>
      </trkpt>
      <trkpt lat="45.26987" lon="5.7499">
        <ele>994</ele>
        <time>2021-08-24T15:55:50Z</time>
      </trkpt>
      <trkpt lat="45.26983" lon="5.74989">
        <ele>993</ele>
        <time>2021-08-24T15:55:51Z</time>
      </trkpt>
      <trkpt lat="45.26978" lon="5.74989">
        <ele>991.9</ele>
        <time>2021-08-24T15:55:52Z</time>
      </trkpt>
      <trkpt lat="45.26974" lon="5.7499">
        <ele>990</ele>
        <time>2021-08-24T15:55:54Z</time>
      </trkpt>
      <trkpt lat="45.26971" lon="5.7499">
        <ele>989.4</ele>
        <time>2021-08-24T15:55:55Z</time>
      </trkpt>
      <trkpt lat="45.26968" lon="5.74992">
        <ele>988.8</ele>
        <time>2021-08-24T15:55:56Z</time>
      </trkpt>
      <trkpt lat="45.26963" lon="5.74994">
        <ele>987.9</ele>
        <time>2021-08-24T15:55:58Z</time>
      </trkpt>
      <trkpt lat="45.26962" lon="5.74994">
        <ele>987.7</ele>
        <time>2021-08-24T15:55:59Z</time>
      </trkpt>
      <trkpt lat="45.2696" lon="5.74994">
        <ele>987.4</ele>
        <time>2021-08-24T15:56:00Z</time>
      </trkpt>
      <trkpt lat="45.26957" lon="5.74994">
        <ele>986.8</ele>
        <time>2021-08-24T15:56:02Z</time>
      </trkpt>
      <trkpt lat="45.26956" lon="5.74993">
        <ele>986.7</ele>
        <time>2021-08-24T15:56:03Z</time>
      </trkpt>
      <trkpt lat="45.26953" lon="5.74993">
        <ele>986</ele>
        <time>2021-08-24T15:56:04Z</time>
      </trkpt>
      <trkpt lat="45.26952" lon="5.74993">
        <ele>985.8</ele>
        <time>2021-08-24T15:56:05Z</time>
      </trkpt>
      <trkpt lat="45.26948" lon="5.74994">
        <ele>985.2</ele>
        <time>2021-08-24T15:56:06Z</time>
      </trkpt>
      <trkpt lat="45.26944" lon="5.74995">
        <ele>984.2</ele>
        <time>2021-08-24T15:56:08Z</time>
      </trkpt>
      <trkpt lat="45.26941" lon="5.74999">
        <ele>983</ele>
        <time>2021-08-24T15:56:09Z</time>
      </trkpt>
      <trkpt lat="45.26937" lon="5.75003">
        <ele>981.8</ele>
        <time>2021-08-24T15:56:10Z</time>
      </trkpt>
      <trkpt lat="45.26932" lon="5.75008">
        <ele>980.3</ele>
        <time>2021-08-24T15:56:12Z</time>
      </trkpt>
      <trkpt lat="45.26927" lon="5.75013">
        <ele>978.8</ele>
        <time>2021-08-24T15:56:13Z</time>
      </trkpt>
      <trkpt lat="45.26923" lon="5.75018">
        <ele>977.6</ele>
        <time>2021-08-24T15:56:15Z</time>
      </trkpt>
      <trkpt lat="45.26919" lon="5.75023">
        <ele>976.4</ele>
        <time>2021-08-24T15:56:16Z</time>
      </trkpt>
      <trkpt lat="45.26915" lon="5.75028">
        <ele>975.5</ele>
        <time>2021-08-24T15:56:18Z</time>
      </trkpt>
      <trkpt lat="45.26912" lon="5.75031">
        <ele>974.6</ele>
        <time>2021-08-24T15:56:19Z</time>
      </trkpt>
      <trkpt lat="45.2691" lon="5.75035">
        <ele>973.9</ele>
        <time>2021-08-24T15:56:20Z</time>
      </trkpt>
      <trkpt lat="45.26905" lon="5.7504">
        <ele>972.4</ele>
        <time>2021-08-24T15:56:22Z</time>
      </trkpt>
      <trkpt lat="45.26903" lon="5.75043">
        <ele>971.6</ele>
        <time>2021-08-24T15:56:23Z</time>
      </trkpt>
      <trkpt lat="45.26899" lon="5.75047">
        <ele>970.1</ele>
        <time>2021-08-24T15:56:24Z</time>
      </trkpt>
      <trkpt lat="45.26895" lon="5.75051">
        <ele>968.8</ele>
        <time>2021-08-24T15:56:26Z</time>
      </trkpt>
      <trkpt lat="45.26893" lon="5.75054">
        <ele>967.6</ele>
        <time>2021-08-24T15:56:27Z</time>
      </trkpt>
      <trkpt lat="45.2689" lon="5.75057">
        <ele>966.5</ele>
        <time>2021-08-24T15:56:28Z</time>
      </trkpt>
      <trkpt lat="45.26887" lon="5.7506">
        <ele>965.2</ele>
        <time>2021-08-24T15:56:29Z</time>
      </trkpt>
      <trkpt lat="45.26884" lon="5.75062">
        <ele>964.1</ele>
        <time>2021-08-24T15:56:31Z</time>
      </trkpt>
      <trkpt lat="45.26881" lon="5.75062">
        <ele>963</ele>
        <time>2021-08-24T15:56:32Z</time>
      </trkpt>
      <trkpt lat="45.26878" lon="5.75062">
        <ele>962</ele>
        <time>2021-08-24T15:56:33Z</time>
      </trkpt>
      <trkpt lat="45.26875" lon="5.75063">
        <ele>960.8</ele>
        <time>2021-08-24T15:56:34Z</time>
      </trkpt>
      <trkpt lat="45.26872" lon="5.75063">
        <ele>959.4</ele>
        <time>2021-08-24T15:56:35Z</time>
      </trkpt>
      <trkpt lat="45.26868" lon="5.75063">
        <ele>957.9</ele>
        <time>2021-08-24T15:56:37Z</time>
      </trkpt>
      <trkpt lat="45.26864" lon="5.75063">
        <ele>956.4</ele>
        <time>2021-08-24T15:56:38Z</time>
      </trkpt>
      <trkpt lat="45.26858" lon="5.75062">
        <ele>954</ele>
        <time>2021-08-24T15:56:40Z</time>
      </trkpt>
      <trkpt lat="45.26855" lon="5.75059">
        <ele>936.3</ele>
        <time>2021-08-24T15:56:41Z</time>
      </trkpt>
      <trkpt lat="45.26852" lon="5.75054">
        <ele>935.6</ele>
        <time>2021-08-24T15:56:43Z</time>
      </trkpt>
      <trkpt lat="45.26851" lon="5.75048">
        <ele>934.9</ele>
        <time>2021-08-24T15:56:44Z</time>
      </trkpt>
      <trkpt lat="45.2685" lon="5.75038">
        <ele>933.9</ele>
        <time>2021-08-24T15:56:45Z</time>
      </trkpt>
      <trkpt lat="45.2685" lon="5.75031">
        <ele>933.2</ele>
        <time>2021-08-24T15:56:47Z</time>
      </trkpt>
      <trkpt lat="45.26847" lon="5.75019">
        <ele>931.9</ele>
        <time>2021-08-24T15:56:48Z</time>
      </trkpt>
      <trkpt lat="45.26845" lon="5.75012">
        <ele>931.2</ele>
        <time>2021-08-24T15:56:49Z</time>
      </trkpt>
      <trkpt lat="45.26844" lon="5.75007">
        <ele>930.6</ele>
        <time>2021-08-24T15:56:50Z</time>
      </trkpt>
      <trkpt lat="45.26841" lon="5.74996">
        <ele>929.5</ele>
        <time>2021-08-24T15:56:52Z</time>
      </trkpt>
      <trkpt lat="45.26839" lon="5.7499">
        <ele>928.8</ele>
        <time>2021-08-24T15:56:53Z</time>
      </trkpt>
      <trkpt lat="45.26837" lon="5.74983">
        <ele>928.1</ele>
        <time>2021-08-24T15:56:55Z</time>
      </trkpt>
      <trkpt lat="45.26826" lon="5.74944">
        <ele>923.5</ele>
        <time>2021-08-24T15:57:01Z</time>
      </trkpt>
      <trkpt lat="45.26825" lon="5.74938">
        <ele>922.6</ele>
        <time>2021-08-24T15:57:03Z</time>
      </trkpt>
      <trkpt lat="45.26823" lon="5.74933">
        <ele>921.9</ele>
        <time>2021-08-24T15:57:05Z</time>
      </trkpt>
      <trkpt lat="45.2682" lon="5.74919">
        <ele>920.1</ele>
        <time>2021-08-24T15:57:07Z</time>
      </trkpt>
      <trkpt lat="45.26819" lon="5.74917">
        <ele>919.7</ele>
        <time>2021-08-24T15:57:08Z</time>
      </trkpt>
      <trkpt lat="45.2682" lon="5.74915">
        <ele>919.5</ele>
        <time>2021-08-24T15:57:10Z</time>
      </trkpt>
      <trkpt lat="45.26821" lon="5.74913">
        <ele>919.2</ele>
        <time>2021-08-24T15:57:12Z</time>
      </trkpt>
      <trkpt lat="45.26821" lon="5.74913">
        <ele>919.1</ele>
        <time>2021-08-24T15:57:13Z</time>
      </trkpt>
      <trkpt lat="45.26817" lon="5.7491">
        <ele>918.2</ele>
        <time>2021-08-24T15:57:29Z</time>
      </trkpt>
      <trkpt lat="45.26807" lon="5.74923">
        <ele>915</ele>
        <time>2021-08-24T15:57:31Z</time>
      </trkpt>
      <trkpt lat="45.26805" lon="5.74927">
        <ele>914</ele>
        <time>2021-08-24T15:57:32Z</time>
      </trkpt>
      <trkpt lat="45.26802" lon="5.7493">
        <ele>913.2</ele>
        <time>2021-08-24T15:57:33Z</time>
      </trkpt>
      <trkpt lat="45.26801" lon="5.74933">
        <ele>912.5</ele>
        <time>2021-08-24T15:57:34Z</time>
      </trkpt>
      <trkpt lat="45.26798" lon="5.7494">
        <ele>910.8</ele>
        <time>2021-08-24T15:57:36Z</time>
      </trkpt>
      <trkpt lat="45.26797" lon="5.74945">
        <ele>909.9</ele>
        <time>2021-08-24T15:57:37Z</time>
      </trkpt>
      <trkpt lat="45.26796" lon="5.74951">
        <ele>908.7</ele>
        <time>2021-08-24T15:57:38Z</time>
      </trkpt>
      <trkpt lat="45.26797" lon="5.74955">
        <ele>907.9</ele>
        <time>2021-08-24T15:57:40Z</time>
      </trkpt>
      <trkpt lat="45.26798" lon="5.74956">
        <ele>907.7</ele>
        <time>2021-08-24T15:57:41Z</time>
      </trkpt>
      <trkpt lat="45.268" lon="5.7495">
        <ele>906.4</ele>
        <time>2021-08-24T15:57:43Z</time>
      </trkpt>
      <trkpt lat="45.268" lon="5.74948">
        <ele>905.9</ele>
        <time>2021-08-24T15:57:44Z</time>
      </trkpt>
      <trkpt lat="45.268" lon="5.74945">
        <ele>905.4</ele>
        <time>2021-08-24T15:57:45Z</time>
      </trkpt>
      <trkpt lat="45.268" lon="5.74942">
        <ele>904.9</ele>
        <time>2021-08-24T15:57:46Z</time>
      </trkpt>
      <trkpt lat="45.268" lon="5.7494">
        <ele>904.4</ele>
        <time>2021-08-24T15:57:48Z</time>
      </trkpt>
      <trkpt lat="45.268" lon="5.74937">
        <ele>903.9</ele>
        <time>2021-08-24T15:57:49Z</time>
      </trkpt>
      <trkpt lat="45.26798" lon="5.74928">
        <ele>902.1</ele>
        <time>2021-08-24T15:57:51Z</time>
      </trkpt>
      <trkpt lat="45.26797" lon="5.74923">
        <ele>901</ele>
        <time>2021-08-24T15:57:52Z</time>
      </trkpt>
      <trkpt lat="45.26796" lon="5.74916">
        <ele>899.6</ele>
        <time>2021-08-24T15:57:53Z</time>
      </trkpt>
      <trkpt lat="45.26796" lon="5.74908">
        <ele>898.2</ele>
        <time>2021-08-24T15:57:55Z</time>
      </trkpt>
      <trkpt lat="45.26795" lon="5.74898">
        <ele>896.4</ele>
        <time>2021-08-24T15:57:56Z</time>
      </trkpt>
      <trkpt lat="45.26794" lon="5.74892">
        <ele>895.3</ele>
        <time>2021-08-24T15:57:58Z</time>
      </trkpt>
      <trkpt lat="45.26794" lon="5.74886">
        <ele>894.1</ele>
        <time>2021-08-24T15:57:59Z</time>
      </trkpt>
      <trkpt lat="45.26792" lon="5.74877">
        <ele>892.6</ele>
        <time>2021-08-24T15:58:00Z</time>
      </trkpt>
      <trkpt lat="45.26791" lon="5.74868">
        <ele>891</ele>
        <time>2021-08-24T15:58:02Z</time>
      </trkpt>
      <trkpt lat="45.26789" lon="5.74859">
        <ele>889.5</ele>
        <time>2021-08-24T15:58:03Z</time>
      </trkpt>
      <trkpt lat="45.26788" lon="5.74852">
        <ele>888.3</ele>
        <time>2021-08-24T15:58:04Z</time>
      </trkpt>
      <trkpt lat="45.26786" lon="5.74844">
        <ele>887.1</ele>
        <time>2021-08-24T15:58:06Z</time>
      </trkpt>
      <trkpt lat="45.26784" lon="5.74836">
        <ele>885.7</ele>
        <time>2021-08-24T15:58:07Z</time>
      </trkpt>
      <trkpt lat="45.26783" lon="5.7483">
        <ele>884.7</ele>
        <time>2021-08-24T15:58:08Z</time>
      </trkpt>
      <trkpt lat="45.2678" lon="5.74818">
        <ele>882.6</ele>
        <time>2021-08-24T15:58:10Z</time>
      </trkpt>
      <trkpt lat="45.26779" lon="5.74811">
        <ele>881.5</ele>
        <time>2021-08-24T15:58:11Z</time>
      </trkpt>
      <trkpt lat="45.26778" lon="5.74805">
        <ele>880.5</ele>
        <time>2021-08-24T15:58:12Z</time>
      </trkpt>
      <trkpt lat="45.26778" lon="5.74799">
        <ele>879.6</ele>
        <time>2021-08-24T15:58:13Z</time>
      </trkpt>
      <trkpt lat="45.26777" lon="5.74794">
        <ele>878.7</ele>
        <time>2021-08-24T15:58:15Z</time>
      </trkpt>
      <trkpt lat="45.26777" lon="5.74788">
        <ele>877.8</ele>
        <time>2021-08-24T15:58:16Z</time>
      </trkpt>
      <trkpt lat="45.26776" lon="5.74782">
        <ele>877</ele>
        <time>2021-08-24T15:58:17Z</time>
      </trkpt>
      <trkpt lat="45.26777" lon="5.74773">
        <ele>875.7</ele>
        <time>2021-08-24T15:58:18Z</time>
      </trkpt>
      <trkpt lat="45.26777" lon="5.74763">
        <ele>874.4</ele>
        <time>2021-08-24T15:58:20Z</time>
      </trkpt>
      <trkpt lat="45.26778" lon="5.74756">
        <ele>873.4</ele>
        <time>2021-08-24T15:58:21Z</time>
      </trkpt>
      <trkpt lat="45.26778" lon="5.74746">
        <ele>872.2</ele>
        <time>2021-08-24T15:58:22Z</time>
      </trkpt>
      <trkpt lat="45.26778" lon="5.74739">
        <ele>871.4</ele>
        <time>2021-08-24T15:58:24Z</time>
      </trkpt>
      <trkpt lat="45.26779" lon="5.74732">
        <ele>870.5</ele>
        <time>2021-08-24T15:58:25Z</time>
      </trkpt>
      <trkpt lat="45.26782" lon="5.74721">
        <ele>869.2</ele>
        <time>2021-08-24T15:58:27Z</time>
      </trkpt>
      <trkpt lat="45.26783" lon="5.74714">
        <ele>868.4</ele>
        <time>2021-08-24T15:58:28Z</time>
      </trkpt>
      <trkpt lat="45.26785" lon="5.74706">
        <ele>867.3</ele>
        <time>2021-08-24T15:58:29Z</time>
      </trkpt>
      <trkpt lat="45.26787" lon="5.74697">
        <ele>866</ele>
        <time>2021-08-24T15:58:30Z</time>
      </trkpt>
      <trkpt lat="45.26789" lon="5.7469">
        <ele>865.1</ele>
        <time>2021-08-24T15:58:32Z</time>
      </trkpt>
      <trkpt lat="45.26791" lon="5.74682">
        <ele>863.9</ele>
        <time>2021-08-24T15:58:33Z</time>
      </trkpt>
      <trkpt lat="45.26792" lon="5.74675">
        <ele>863</ele>
        <time>2021-08-24T15:58:34Z</time>
      </trkpt>
      <trkpt lat="45.26794" lon="5.74664">
        <ele>861.7</ele>
        <time>2021-08-24T15:58:35Z</time>
      </trkpt>
      <trkpt lat="45.26794" lon="5.74653">
        <ele>860.4</ele>
        <time>2021-08-24T15:58:37Z</time>
      </trkpt>
      <trkpt lat="45.26794" lon="5.74646">
        <ele>859.6</ele>
        <time>2021-08-24T15:58:38Z</time>
      </trkpt>
      <trkpt lat="45.26794" lon="5.74635">
        <ele>858.4</ele>
        <time>2021-08-24T15:58:40Z</time>
      </trkpt>
      <trkpt lat="45.26795" lon="5.74629">
        <ele>857.7</ele>
        <time>2021-08-24T15:58:41Z</time>
      </trkpt>
      <trkpt lat="45.26795" lon="5.74622">
        <ele>857</ele>
        <time>2021-08-24T15:58:42Z</time>
      </trkpt>
      <trkpt lat="45.26796" lon="5.74613">
        <ele>856</ele>
        <time>2021-08-24T15:58:43Z</time>
      </trkpt>
      <trkpt lat="45.26796" lon="5.74608">
        <ele>855.4</ele>
        <time>2021-08-24T15:58:44Z</time>
      </trkpt>
      <trkpt lat="45.26797" lon="5.74601">
        <ele>854.6</ele>
        <time>2021-08-24T15:58:46Z</time>
      </trkpt>
      <trkpt lat="45.26798" lon="5.74596">
        <ele>853.9</ele>
        <time>2021-08-24T15:58:47Z</time>
      </trkpt>
      <trkpt lat="45.26798" lon="5.7459">
        <ele>853.2</ele>
        <time>2021-08-24T15:58:48Z</time>
      </trkpt>
      <trkpt lat="45.268" lon="5.74581">
        <ele>852</ele>
        <time>2021-08-24T15:58:49Z</time>
      </trkpt>
      <trkpt lat="45.26802" lon="5.74574">
        <ele>851.1</ele>
        <time>2021-08-24T15:58:51Z</time>
      </trkpt>
      <trkpt lat="45.26803" lon="5.74569">
        <ele>850.4</ele>
        <time>2021-08-24T15:58:52Z</time>
      </trkpt>
      <trkpt lat="45.26802" lon="5.74559">
        <ele>849.2</ele>
        <time>2021-08-24T15:58:53Z</time>
      </trkpt>
      <trkpt lat="45.26801" lon="5.74552">
        <ele>848.3</ele>
        <time>2021-08-24T15:58:55Z</time>
      </trkpt>
      <trkpt lat="45.268" lon="5.74542">
        <ele>847.1</ele>
        <time>2021-08-24T15:58:57Z</time>
      </trkpt>
      <trkpt lat="45.26797" lon="5.74537">
        <ele>844.2</ele>
        <time>2021-08-24T15:58:58Z</time>
      </trkpt>
      <trkpt lat="45.26794" lon="5.74532">
        <ele>841.8</ele>
        <time>2021-08-24T15:58:59Z</time>
      </trkpt>
      <trkpt lat="45.26791" lon="5.74527">
        <ele>838.5</ele>
        <time>2021-08-24T15:59:01Z</time>
      </trkpt>
      <trkpt lat="45.26788" lon="5.74524">
        <ele>836.1</ele>
        <time>2021-08-24T15:59:02Z</time>
      </trkpt>
      <trkpt lat="45.26785" lon="5.74521">
        <ele>834.6</ele>
        <time>2021-08-24T15:59:03Z</time>
      </trkpt>
      <trkpt lat="45.26781" lon="5.74516">
        <ele>831.1</ele>
        <time>2021-08-24T15:59:05Z</time>
      </trkpt>
      <trkpt lat="45.2678" lon="5.74515">
        <ele>830.5</ele>
        <time>2021-08-24T15:59:06Z</time>
      </trkpt>
      <trkpt lat="45.26779" lon="5.74513">
        <ele>829.9</ele>
        <time>2021-08-24T15:59:07Z</time>
      </trkpt>
      <trkpt lat="45.26778" lon="5.74511">
        <ele>827.1</ele>
        <time>2021-08-24T15:59:08Z</time>
      </trkpt>
      <trkpt lat="45.26776" lon="5.74508">
        <ele>825.2</ele>
        <time>2021-08-24T15:59:10Z</time>
      </trkpt>
      <trkpt lat="45.26774" lon="5.74505">
        <ele>823.6</ele>
        <time>2021-08-24T15:59:11Z</time>
      </trkpt>
      <trkpt lat="45.26773" lon="5.74505">
        <ele>823.1</ele>
        <time>2021-08-24T15:59:12Z</time>
      </trkpt>
      <trkpt lat="45.2677" lon="5.74502">
        <ele>820.1</ele>
        <time>2021-08-24T15:59:14Z</time>
      </trkpt>
      <trkpt lat="45.26768" lon="5.745">
        <ele>818.1</ele>
        <time>2021-08-24T15:59:15Z</time>
      </trkpt>
      <trkpt lat="45.26764" lon="5.74497">
        <ele>813.9</ele>
        <time>2021-08-24T15:59:17Z</time>
      </trkpt>
      <trkpt lat="45.2676" lon="5.74495">
        <ele>811</ele>
        <time>2021-08-24T15:59:18Z</time>
      </trkpt>
      <trkpt lat="45.26755" lon="5.74492">
        <ele>809</ele>
        <time>2021-08-24T15:59:20Z</time>
      </trkpt>
      <trkpt lat="45.26751" lon="5.74489">
        <ele>804.3</ele>
        <time>2021-08-24T15:59:22Z</time>
      </trkpt>
      <trkpt lat="45.26748" lon="5.74487">
        <ele>802.1</ele>
        <time>2021-08-24T15:59:23Z</time>
      </trkpt>
      <trkpt lat="45.26744" lon="5.74485">
        <ele>799.3</ele>
        <time>2021-08-24T15:59:25Z</time>
      </trkpt>
      <trkpt lat="45.26742" lon="5.74483">
        <ele>797.2</ele>
        <time>2021-08-24T15:59:26Z</time>
      </trkpt>
      <trkpt lat="45.26739" lon="5.74482">
        <ele>794.7</ele>
        <time>2021-08-24T15:59:27Z</time>
      </trkpt>
      <trkpt lat="45.26737" lon="5.7448">
        <ele>794.2</ele>
        <time>2021-08-24T15:59:29Z</time>
      </trkpt>
      <trkpt lat="45.26735" lon="5.74477">
        <ele>791.8</ele>
        <time>2021-08-24T15:59:30Z</time>
      </trkpt>
      <trkpt lat="45.26734" lon="5.74476">
        <ele>791.2</ele>
        <time>2021-08-24T15:59:31Z</time>
      </trkpt>
      <trkpt lat="45.26732" lon="5.74475">
        <ele>789.2</ele>
        <time>2021-08-24T15:59:33Z</time>
      </trkpt>
      <trkpt lat="45.26729" lon="5.74473">
        <ele>786.7</ele>
        <time>2021-08-24T15:59:35Z</time>
      </trkpt>
      <trkpt lat="45.26728" lon="5.74471">
        <ele>786.2</ele>
        <time>2021-08-24T15:59:37Z</time>
      </trkpt>
      <trkpt lat="45.26728" lon="5.7447">
        <ele>784</ele>
        <time>2021-08-24T15:59:38Z</time>
      </trkpt>
      <trkpt lat="45.26727" lon="5.7447">
        <ele>783.5</ele>
        <time>2021-08-24T15:59:39Z</time>
      </trkpt>
      <trkpt lat="45.26727" lon="5.74469">
        <ele>782.5</ele>
        <time>2021-08-24T15:59:40Z</time>
      </trkpt>
      <trkpt lat="45.26726" lon="5.74468">
        <ele>781.9</ele>
        <time>2021-08-24T15:59:42Z</time>
      </trkpt>
      <trkpt lat="45.26724" lon="5.74465">
        <ele>779.8</ele>
        <time>2021-08-24T15:59:44Z</time>
      </trkpt>
      <trkpt lat="45.26723" lon="5.74463">
        <ele>778.8</ele>
        <time>2021-08-24T15:59:45Z</time>
      </trkpt>
      <trkpt lat="45.26717" lon="5.74454">
        <ele>774.4</ele>
        <time>2021-08-24T15:59:49Z</time>
      </trkpt>
      <trkpt lat="45.26712" lon="5.74445">
        <ele>769.6</ele>
        <time>2021-08-24T15:59:51Z</time>
      </trkpt>
      <trkpt lat="45.26709" lon="5.74438">
        <ele>767.4</ele>
        <time>2021-08-24T15:59:52Z</time>
      </trkpt>
      <trkpt lat="45.26706" lon="5.74431">
        <ele>767.7</ele>
        <time>2021-08-24T15:59:53Z</time>
      </trkpt>
      <trkpt lat="45.26704" lon="5.74424">
        <ele>768</ele>
        <time>2021-08-24T15:59:54Z</time>
      </trkpt>
      <trkpt lat="45.26701" lon="5.74418">
        <ele>768.3</ele>
        <time>2021-08-24T15:59:55Z</time>
      </trkpt>
      <trkpt lat="45.267" lon="5.74413">
        <ele>768.5</ele>
        <time>2021-08-24T15:59:56Z</time>
      </trkpt>
      <trkpt lat="45.26699" lon="5.74412">
        <ele>768.5</ele>
        <time>2021-08-24T15:59:57Z</time>
      </trkpt>
      <trkpt lat="45.26698" lon="5.74407">
        <ele>768.7</ele>
        <time>2021-08-24T15:59:59Z</time>
      </trkpt>
      <trkpt lat="45.26698" lon="5.74406">
        <ele>768.7</ele>
        <time>2021-08-24T16:00:00Z</time>
      </trkpt>
      <trkpt lat="45.26698" lon="5.744">
        <ele>768.9</ele>
        <time>2021-08-24T16:00:01Z</time>
      </trkpt>
      <trkpt lat="45.26699" lon="5.74395">
        <ele>769.1</ele>
        <time>2021-08-24T16:00:02Z</time>
      </trkpt>
      <trkpt lat="45.26699" lon="5.74389">
        <ele>769.3</ele>
        <time>2021-08-24T16:00:03Z</time>
      </trkpt>
      <trkpt lat="45.26699" lon="5.74384">
        <ele>769.5</ele>
        <time>2021-08-24T16:00:05Z</time>
      </trkpt>
      <trkpt lat="45.267" lon="5.74379">
        <ele>769.7</ele>
        <time>2021-08-24T16:00:06Z</time>
      </trkpt>
      <trkpt lat="45.267" lon="5.74374">
        <ele>769.9</ele>
        <time>2021-08-24T16:00:25Z</time>
      </trkpt>
      <trkpt lat="45.267" lon="5.74368">
        <ele>770.1</ele>
        <time>2021-08-24T16:00:26Z</time>
      </trkpt>
      <trkpt lat="45.26696" lon="5.74363">
        <ele>770.3</ele>
        <time>2021-08-24T16:00:27Z</time>
      </trkpt>
      <trkpt lat="45.26691" lon="5.74356">
        <ele>770.7</ele>
        <time>2021-08-24T16:00:28Z</time>
      </trkpt>
      <trkpt lat="45.26688" lon="5.7435">
        <ele>770.9</ele>
        <time>2021-08-24T16:00:30Z</time>
      </trkpt>
      <trkpt lat="45.26685" lon="5.7434">
        <ele>771.3</ele>
        <time>2021-08-24T16:00:31Z</time>
      </trkpt>
      <trkpt lat="45.26683" lon="5.74334">
        <ele>771.6</ele>
        <time>2021-08-24T16:00:32Z</time>
      </trkpt>
      <trkpt lat="45.2668" lon="5.74323">
        <ele>770.9</ele>
        <time>2021-08-24T16:00:33Z</time>
      </trkpt>
      <trkpt lat="45.26677" lon="5.74316">
        <ele>769.6</ele>
        <time>2021-08-24T16:00:35Z</time>
      </trkpt>
      <trkpt lat="45.26674" lon="5.74307">
        <ele>768.3</ele>
        <time>2021-08-24T16:00:36Z</time>
      </trkpt>
      <trkpt lat="45.2667" lon="5.74297">
        <ele>766.5</ele>
        <time>2021-08-24T16:00:38Z</time>
      </trkpt>
      <trkpt lat="45.26667" lon="5.74289">
        <ele>765.3</ele>
        <time>2021-08-24T16:00:39Z</time>
      </trkpt>
      <trkpt lat="45.26664" lon="5.7428">
        <ele>763.9</ele>
        <time>2021-08-24T16:00:40Z</time>
      </trkpt>
      <trkpt lat="45.26658" lon="5.74262">
        <ele>760.8</ele>
        <time>2021-08-24T16:00:42Z</time>
      </trkpt>
      <trkpt lat="45.26652" lon="5.74248">
        <ele>758.5</ele>
        <time>2021-08-24T16:00:44Z</time>
      </trkpt>
      <trkpt lat="45.26649" lon="5.74241">
        <ele>757.4</ele>
        <time>2021-08-24T16:00:45Z</time>
      </trkpt>
      <trkpt lat="45.26643" lon="5.74234">
        <ele>755.7</ele>
        <time>2021-08-24T16:00:47Z</time>
      </trkpt>
      <trkpt lat="45.26639" lon="5.7423">
        <ele>754.7</ele>
        <time>2021-08-24T16:00:48Z</time>
      </trkpt>
      <trkpt lat="45.26629" lon="5.74221">
        <ele>752.3</ele>
        <time>2021-08-24T16:00:50Z</time>
      </trkpt>
      <trkpt lat="45.26624" lon="5.74216">
        <ele>751</ele>
        <time>2021-08-24T16:00:51Z</time>
      </trkpt>
      <trkpt lat="45.26618" lon="5.74211">
        <ele>749.5</ele>
        <time>2021-08-24T16:00:52Z</time>
      </trkpt>
      <trkpt lat="45.26611" lon="5.74206">
        <ele>748</ele>
        <time>2021-08-24T16:00:53Z</time>
      </trkpt>
      <trkpt lat="45.26605" lon="5.74201">
        <ele>746.5</ele>
        <time>2021-08-24T16:00:54Z</time>
      </trkpt>
      <trkpt lat="45.26592" lon="5.7419">
        <ele>743.3</ele>
        <time>2021-08-24T16:00:56Z</time>
      </trkpt>
      <trkpt lat="45.26581" lon="5.74177">
        <ele>740.4</ele>
        <time>2021-08-24T16:00:58Z</time>
      </trkpt>
      <trkpt lat="45.26572" lon="5.74166">
        <ele>737.9</ele>
        <time>2021-08-24T16:01:00Z</time>
      </trkpt>
      <trkpt lat="45.26569" lon="5.74162">
        <ele>737.1</ele>
        <time>2021-08-24T16:01:01Z</time>
      </trkpt>
      <trkpt lat="45.26567" lon="5.74158">
        <ele>736.4</ele>
        <time>2021-08-24T16:01:02Z</time>
      </trkpt>
      <trkpt lat="45.26565" lon="5.7415">
        <ele>735.3</ele>
        <time>2021-08-24T16:01:04Z</time>
      </trkpt>
      <trkpt lat="45.26564" lon="5.74146">
        <ele>734.6</ele>
        <time>2021-08-24T16:01:05Z</time>
      </trkpt>
      <trkpt lat="45.2656" lon="5.74137">
        <ele>733.1</ele>
        <time>2021-08-24T16:01:07Z</time>
      </trkpt>
      <trkpt lat="45.2656" lon="5.74132">
        <ele>732.2</ele>
        <time>2021-08-24T16:01:08Z</time>
      </trkpt>
      <trkpt lat="45.2656" lon="5.74128">
        <ele>731.7</ele>
        <time>2021-08-24T16:01:09Z</time>
      </trkpt>
      <trkpt lat="45.26561" lon="5.74117">
        <ele>730.1</ele>
        <time>2021-08-24T16:01:10Z</time>
      </trkpt>
      <trkpt lat="45.26562" lon="5.7411">
        <ele>729</ele>
        <time>2021-08-24T16:01:11Z</time>
      </trkpt>
      <trkpt lat="45.26563" lon="5.74101">
        <ele>727.7</ele>
        <time>2021-08-24T16:01:13Z</time>
      </trkpt>
      <trkpt lat="45.26565" lon="5.74087">
        <ele>725.7</ele>
        <time>2021-08-24T16:01:14Z</time>
      </trkpt>
      <trkpt lat="45.26567" lon="5.74069">
        <ele>723</ele>
        <time>2021-08-24T16:01:16Z</time>
      </trkpt>
      <trkpt lat="45.26568" lon="5.74059">
        <ele>721.6</ele>
        <time>2021-08-24T16:01:17Z</time>
      </trkpt>
      <trkpt lat="45.26569" lon="5.74052">
        <ele>720.5</ele>
        <time>2021-08-24T16:01:18Z</time>
      </trkpt>
      <trkpt lat="45.2657" lon="5.74043">
        <ele>719.2</ele>
        <time>2021-08-24T16:01:19Z</time>
      </trkpt>
      <trkpt lat="45.26571" lon="5.74036">
        <ele>718.2</ele>
        <time>2021-08-24T16:01:20Z</time>
      </trkpt>
      <trkpt lat="45.26571" lon="5.74031">
        <ele>717.5</ele>
        <time>2021-08-24T16:01:22Z</time>
      </trkpt>
      <trkpt lat="45.26571" lon="5.74027">
        <ele>716.9</ele>
        <time>2021-08-24T16:01:23Z</time>
      </trkpt>
      <trkpt lat="45.26571" lon="5.74025">
        <ele>716.6</ele>
        <time>2021-08-24T16:01:24Z</time>
      </trkpt>
      <trkpt lat="45.26571" lon="5.74024">
        <ele>716.3</ele>
        <time>2021-08-24T16:01:26Z</time>
      </trkpt>
      <trkpt lat="45.26571" lon="5.74022">
        <ele>716.1</ele>
        <time>2021-08-24T16:01:28Z</time>
      </trkpt>
      <trkpt lat="45.26571" lon="5.74022">
        <ele>716</ele>
        <time>2021-08-24T16:01:29Z</time>
      </trkpt>
      <trkpt lat="45.26571" lon="5.74021">
        <ele>716</ele>
        <time>2021-08-24T16:01:30Z</time>
      </trkpt>
      <trkpt lat="45.26571" lon="5.74022">
        <ele>716</ele>
        <time>2021-08-24T16:01:32Z</time>
      </trkpt>
      <trkpt lat="45.26571" lon="5.74022">
        <ele>716</ele>
        <time>2021-08-24T16:01:34Z</time>
      </trkpt>
      <trkpt lat="45.26577" lon="5.74012">
        <ele>714.1</ele>
        <time>2021-08-24T16:01:58Z</time>
      </trkpt>
      <trkpt lat="45.2658" lon="5.74008">
        <ele>713.3</ele>
        <time>2021-08-24T16:01:59Z</time>
      </trkpt>
      <trkpt lat="45.26583" lon="5.74004">
        <ele>712.3</ele>
        <time>2021-08-24T16:02:01Z</time>
      </trkpt>
      <trkpt lat="45.26586" lon="5.73999">
        <ele>711.4</ele>
        <time>2021-08-24T16:02:02Z</time>
      </trkpt>
      <trkpt lat="45.26588" lon="5.73994">
        <ele>710.6</ele>
        <time>2021-08-24T16:02:04Z</time>
      </trkpt>
      <trkpt lat="45.26593" lon="5.7399">
        <ele>709.5</ele>
        <time>2021-08-24T16:02:05Z</time>
      </trkpt>
      <trkpt lat="45.26593" lon="5.73989">
        <ele>709.3</ele>
        <time>2021-08-24T16:02:07Z</time>
      </trkpt>
      <trkpt lat="45.26593" lon="5.73986">
        <ele>708.9</ele>
        <time>2021-08-24T16:02:08Z</time>
      </trkpt>
      <trkpt lat="45.26591" lon="5.73984">
        <ele>708.4</ele>
        <time>2021-08-24T16:02:09Z</time>
      </trkpt>
      <trkpt lat="45.2659" lon="5.7398">
        <ele>707.8</ele>
        <time>2021-08-24T16:02:11Z</time>
      </trkpt>
      <trkpt lat="45.26589" lon="5.73974">
        <ele>707</ele>
        <time>2021-08-24T16:02:12Z</time>
      </trkpt>
      <trkpt lat="45.26588" lon="5.73972">
        <ele>706.6</ele>
        <time>2021-08-24T16:02:13Z</time>
      </trkpt>
      <trkpt lat="45.26588" lon="5.73967">
        <ele>705.9</ele>
        <time>2021-08-24T16:02:14Z</time>
      </trkpt>
      <trkpt lat="45.26588" lon="5.73961">
        <ele>704</ele>
        <time>2021-08-24T16:02:15Z</time>
      </trkpt>
      <trkpt lat="45.26588" lon="5.73956">
        <ele>703.9</ele>
        <time>2021-08-24T16:02:17Z</time>
      </trkpt>
      <trkpt lat="45.26589" lon="5.73949">
        <ele>703.8</ele>
        <time>2021-08-24T16:02:18Z</time>
      </trkpt>
      <trkpt lat="45.26589" lon="5.73945">
        <ele>703.7</ele>
        <time>2021-08-24T16:02:19Z</time>
      </trkpt>
      <trkpt lat="45.2659" lon="5.7394">
        <ele>703.5</ele>
        <time>2021-08-24T16:02:21Z</time>
      </trkpt>
      <trkpt lat="45.2659" lon="5.73936">
        <ele>703.3</ele>
        <time>2021-08-24T16:02:22Z</time>
      </trkpt>
      <trkpt lat="45.26591" lon="5.7393">
        <ele>702.9</ele>
        <time>2021-08-24T16:02:23Z</time>
      </trkpt>
      <trkpt lat="45.26591" lon="5.73928">
        <ele>702.8</ele>
        <time>2021-08-24T16:02:24Z</time>
      </trkpt>
      <trkpt lat="45.26592" lon="5.73923">
        <ele>702.4</ele>
        <time>2021-08-24T16:02:25Z</time>
      </trkpt>
      <trkpt lat="45.26593" lon="5.73918">
        <ele>701.9</ele>
        <time>2021-08-24T16:02:27Z</time>
      </trkpt>
      <trkpt lat="45.26595" lon="5.73912">
        <ele>701.3</ele>
        <time>2021-08-24T16:02:28Z</time>
      </trkpt>
      <trkpt lat="45.26598" lon="5.73908">
        <ele>700.9</ele>
        <time>2021-08-24T16:02:29Z</time>
      </trkpt>
      <trkpt lat="45.26601" lon="5.73905">
        <ele>700.5</ele>
        <time>2021-08-24T16:02:30Z</time>
      </trkpt>
      <trkpt lat="45.26603" lon="5.73903">
        <ele>700.2</ele>
        <time>2021-08-24T16:02:31Z</time>
      </trkpt>
      <trkpt lat="45.26606" lon="5.739">
        <ele>699.8</ele>
        <time>2021-08-24T16:02:32Z</time>
      </trkpt>
      <trkpt lat="45.26611" lon="5.73897">
        <ele>699.2</ele>
        <time>2021-08-24T16:02:34Z</time>
      </trkpt>
      <trkpt lat="45.26616" lon="5.7389">
        <ele>698.5</ele>
        <time>2021-08-24T16:02:35Z</time>
      </trkpt>
      <trkpt lat="45.26619" lon="5.73882">
        <ele>697.8</ele>
        <time>2021-08-24T16:02:37Z</time>
      </trkpt>
      <trkpt lat="45.2662" lon="5.73876">
        <ele>697.4</ele>
        <time>2021-08-24T16:02:38Z</time>
      </trkpt>
      <trkpt lat="45.26619" lon="5.73866">
        <ele>696.4</ele>
        <time>2021-08-24T16:02:39Z</time>
      </trkpt>
      <trkpt lat="45.26618" lon="5.73856">
        <ele>695.4</ele>
        <time>2021-08-24T16:02:41Z</time>
      </trkpt>
      <trkpt lat="45.26616" lon="5.73848">
        <ele>695.4</ele>
        <time>2021-08-24T16:02:42Z</time>
      </trkpt>
      <trkpt lat="45.26612" lon="5.73836">
        <ele>695.6</ele>
        <time>2021-08-24T16:02:44Z</time>
      </trkpt>
      <trkpt lat="45.26611" lon="5.73832">
        <ele>695.6</ele>
        <time>2021-08-24T16:02:45Z</time>
      </trkpt>
      <trkpt lat="45.26609" lon="5.73826">
        <ele>695.7</ele>
        <time>2021-08-24T16:02:46Z</time>
      </trkpt>
      <trkpt lat="45.26608" lon="5.73822">
        <ele>695.7</ele>
        <time>2021-08-24T16:02:48Z</time>
      </trkpt>
      <trkpt lat="45.26607" lon="5.73818">
        <ele>695.8</ele>
        <time>2021-08-24T16:02:49Z</time>
      </trkpt>
      <trkpt lat="45.26604" lon="5.73813">
        <ele>695.8</ele>
        <time>2021-08-24T16:02:51Z</time>
      </trkpt>
      <trkpt lat="45.26601" lon="5.7381">
        <ele>695.9</ele>
        <time>2021-08-24T16:02:52Z</time>
      </trkpt>
      <trkpt lat="45.266" lon="5.73809">
        <ele>695.9</ele>
        <time>2021-08-24T16:02:53Z</time>
      </trkpt>
      <trkpt lat="45.26597" lon="5.73804">
        <ele>695.9</ele>
        <time>2021-08-24T16:02:54Z</time>
      </trkpt>
      <trkpt lat="45.26593" lon="5.73799">
        <ele>695.8</ele>
        <time>2021-08-24T16:02:56Z</time>
      </trkpt>
      <trkpt lat="45.26589" lon="5.73794">
        <ele>695.8</ele>
        <time>2021-08-24T16:02:57Z</time>
      </trkpt>
      <trkpt lat="45.26584" lon="5.73787">
        <ele>695.8</ele>
        <time>2021-08-24T16:02:59Z</time>
      </trkpt>
      <trkpt lat="45.26581" lon="5.73782">
        <ele>695.8</ele>
        <time>2021-08-24T16:03:00Z</time>
      </trkpt>
      <trkpt lat="45.26576" lon="5.73776">
        <ele>695.8</ele>
        <time>2021-08-24T16:03:01Z</time>
      </trkpt>
      <trkpt lat="45.26573" lon="5.7377">
        <ele>695.9</ele>
        <time>2021-08-24T16:03:03Z</time>
      </trkpt>
      <trkpt lat="45.2657" lon="5.73765">
        <ele>695.9</ele>
        <time>2021-08-24T16:03:05Z</time>
      </trkpt>
      <trkpt lat="45.26567" lon="5.73761">
        <ele>695.8</ele>
        <time>2021-08-24T16:03:06Z</time>
      </trkpt>
      <trkpt lat="45.26563" lon="5.73757">
        <ele>695.7</ele>
        <time>2021-08-24T16:03:07Z</time>
      </trkpt>
      <trkpt lat="45.2656" lon="5.73754">
        <ele>695.7</ele>
        <time>2021-08-24T16:03:09Z</time>
      </trkpt>
      <trkpt lat="45.26557" lon="5.73752">
        <ele>695.6</ele>
        <time>2021-08-24T16:03:10Z</time>
      </trkpt>
      <trkpt lat="45.26556" lon="5.7375">
        <ele>695.6</ele>
        <time>2021-08-24T16:03:11Z</time>
      </trkpt>
      <trkpt lat="45.26553" lon="5.73748">
        <ele>695.6</ele>
        <time>2021-08-24T16:03:13Z</time>
      </trkpt>
      <trkpt lat="45.2655" lon="5.73747">
        <ele>695.5</ele>
        <time>2021-08-24T16:03:14Z</time>
      </trkpt>
      <trkpt lat="45.26547" lon="5.73745">
        <ele>695.4</ele>
        <time>2021-08-24T16:03:15Z</time>
      </trkpt>
      <trkpt lat="45.26543" lon="5.73744">
        <ele>695.3</ele>
        <time>2021-08-24T16:03:16Z</time>
      </trkpt>
      <trkpt lat="45.26538" lon="5.73742">
        <ele>694.9</ele>
        <time>2021-08-24T16:03:17Z</time>
      </trkpt>
      <trkpt lat="45.26533" lon="5.7374">
        <ele>694.4</ele>
        <time>2021-08-24T16:03:19Z</time>
      </trkpt>
      <trkpt lat="45.26526" lon="5.73736">
        <ele>693.7</ele>
        <time>2021-08-24T16:03:20Z</time>
      </trkpt>
      <trkpt lat="45.26521" lon="5.73731">
        <ele>692.9</ele>
        <time>2021-08-24T16:03:22Z</time>
      </trkpt>
      <trkpt lat="45.26517" lon="5.73728">
        <ele>692.4</ele>
        <time>2021-08-24T16:03:23Z</time>
      </trkpt>
      <trkpt lat="45.26512" lon="5.73723">
        <ele>691.7</ele>
        <time>2021-08-24T16:03:24Z</time>
      </trkpt>
      <trkpt lat="45.26509" lon="5.7372">
        <ele>691.2</ele>
        <time>2021-08-24T16:03:25Z</time>
      </trkpt>
      <trkpt lat="45.26505" lon="5.73716">
        <ele>690.7</ele>
        <time>2021-08-24T16:03:27Z</time>
      </trkpt>
      <trkpt lat="45.26499" lon="5.73711">
        <ele>690.1</ele>
        <time>2021-08-24T16:03:29Z</time>
      </trkpt>
      <trkpt lat="45.26495" lon="5.73706">
        <ele>689.8</ele>
        <time>2021-08-24T16:03:30Z</time>
      </trkpt>
      <trkpt lat="45.26492" lon="5.73703">
        <ele>689.7</ele>
        <time>2021-08-24T16:03:31Z</time>
      </trkpt>
      <trkpt lat="45.2649" lon="5.73699">
        <ele>689.6</ele>
        <time>2021-08-24T16:03:32Z</time>
      </trkpt>
      <trkpt lat="45.26486" lon="5.73694">
        <ele>689.6</ele>
        <time>2021-08-24T16:03:34Z</time>
      </trkpt>
      <trkpt lat="45.26483" lon="5.7369">
        <ele>689.5</ele>
        <time>2021-08-24T16:03:35Z</time>
      </trkpt>
      <trkpt lat="45.26478" lon="5.73684">
        <ele>689.3</ele>
        <time>2021-08-24T16:03:36Z</time>
      </trkpt>
      <trkpt lat="45.26474" lon="5.7368">
        <ele>689.1</ele>
        <time>2021-08-24T16:03:37Z</time>
      </trkpt>
      <trkpt lat="45.26468" lon="5.73677">
        <ele>688.6</ele>
        <time>2021-08-24T16:03:39Z</time>
      </trkpt>
      <trkpt lat="45.26464" lon="5.73675">
        <ele>688.2</ele>
        <time>2021-08-24T16:03:40Z</time>
      </trkpt>
      <trkpt lat="45.26455" lon="5.73672">
        <ele>687.4</ele>
        <time>2021-08-24T16:03:42Z</time>
      </trkpt>
      <trkpt lat="45.26448" lon="5.73668">
        <ele>686.8</ele>
        <time>2021-08-24T16:03:44Z</time>
      </trkpt>
      <trkpt lat="45.26444" lon="5.73667">
        <ele>686.6</ele>
        <time>2021-08-24T16:03:45Z</time>
      </trkpt>
      <trkpt lat="45.26439" lon="5.73663">
        <ele>686.4</ele>
        <time>2021-08-24T16:03:47Z</time>
      </trkpt>
      <trkpt lat="45.26435" lon="5.73658">
        <ele>686.2</ele>
        <time>2021-08-24T16:03:48Z</time>
      </trkpt>
      <trkpt lat="45.26432" lon="5.73654">
        <ele>686.1</ele>
        <time>2021-08-24T16:03:50Z</time>
      </trkpt>
      <trkpt lat="45.26429" lon="5.73652">
        <ele>686</ele>
        <time>2021-08-24T16:03:51Z</time>
      </trkpt>
      <trkpt lat="45.26426" lon="5.73647">
        <ele>685.8</ele>
        <time>2021-08-24T16:03:52Z</time>
      </trkpt>
      <trkpt lat="45.26423" lon="5.73644">
        <ele>685.7</ele>
        <time>2021-08-24T16:03:53Z</time>
      </trkpt>
      <trkpt lat="45.2642" lon="5.73639">
        <ele>685.6</ele>
        <time>2021-08-24T16:03:55Z</time>
      </trkpt>
      <trkpt lat="45.26417" lon="5.73635">
        <ele>685.5</ele>
        <time>2021-08-24T16:03:56Z</time>
      </trkpt>
      <trkpt lat="45.26413" lon="5.73626">
        <ele>685.3</ele>
        <time>2021-08-24T16:03:58Z</time>
      </trkpt>
      <trkpt lat="45.26411" lon="5.7362">
        <ele>685.2</ele>
        <time>2021-08-24T16:04:00Z</time>
      </trkpt>
      <trkpt lat="45.26409" lon="5.73615">
        <ele>685.2</ele>
        <time>2021-08-24T16:04:01Z</time>
      </trkpt>
      <trkpt lat="45.26409" lon="5.73614">
        <ele>685.2</ele>
        <time>2021-08-24T16:04:02Z</time>
      </trkpt>
      <trkpt lat="45.26407" lon="5.7361">
        <ele>685.2</ele>
        <time>2021-08-24T16:04:04Z</time>
      </trkpt>
      <trkpt lat="45.26407" lon="5.73609">
        <ele>685.2</ele>
        <time>2021-08-24T16:04:05Z</time>
      </trkpt>
      <trkpt lat="45.26406" lon="5.73606">
        <ele>685.2</ele>
        <time>2021-08-24T16:04:06Z</time>
      </trkpt>
      <trkpt lat="45.26406" lon="5.73605">
        <ele>685.2</ele>
        <time>2021-08-24T16:04:07Z</time>
      </trkpt>
      <trkpt lat="45.26405" lon="5.73604">
        <ele>685.2</ele>
        <time>2021-08-24T16:04:08Z</time>
      </trkpt>
      <trkpt lat="45.26404" lon="5.73603">
        <ele>685.2</ele>
        <time>2021-08-24T16:04:10Z</time>
      </trkpt>
      <trkpt lat="45.26403" lon="5.73601">
        <ele>685.2</ele>
        <time>2021-08-24T16:04:11Z</time>
      </trkpt>
      <trkpt lat="45.26401" lon="5.73598">
        <ele>685.2</ele>
        <time>2021-08-24T16:04:13Z</time>
      </trkpt>
      <trkpt lat="45.26399" lon="5.73595">
        <ele>685.2</ele>
        <time>2021-08-24T16:04:14Z</time>
      </trkpt>
      <trkpt lat="45.26397" lon="5.73592">
        <ele>685.1</ele>
        <time>2021-08-24T16:04:15Z</time>
      </trkpt>
      <trkpt lat="45.2639" lon="5.73589">
        <ele>684.8</ele>
        <time>2021-08-24T16:04:17Z</time>
      </trkpt>
      <trkpt lat="45.26385" lon="5.73587">
        <ele>684.3</ele>
        <time>2021-08-24T16:04:18Z</time>
      </trkpt>
      <trkpt lat="45.26374" lon="5.73586">
        <ele>683</ele>
        <time>2021-08-24T16:04:20Z</time>
      </trkpt>
      <trkpt lat="45.26367" lon="5.73585">
        <ele>682</ele>
        <time>2021-08-24T16:04:21Z</time>
      </trkpt>
      <trkpt lat="45.26355" lon="5.73585">
        <ele>680</ele>
        <time>2021-08-24T16:04:23Z</time>
      </trkpt>
      <trkpt lat="45.26348" lon="5.73584">
        <ele>679.1</ele>
        <time>2021-08-24T16:04:24Z</time>
      </trkpt>
      <trkpt lat="45.26342" lon="5.73583">
        <ele>678.3</ele>
        <time>2021-08-24T16:04:25Z</time>
      </trkpt>
      <trkpt lat="45.26335" lon="5.73583">
        <ele>677.6</ele>
        <time>2021-08-24T16:04:26Z</time>
      </trkpt>
      <trkpt lat="45.26321" lon="5.73581">
        <ele>676.3</ele>
        <time>2021-08-24T16:04:28Z</time>
      </trkpt>
      <trkpt lat="45.26315" lon="5.7358">
        <ele>675.7</ele>
        <time>2021-08-24T16:04:29Z</time>
      </trkpt>
      <trkpt lat="45.26308" lon="5.73578">
        <ele>675.2</ele>
        <time>2021-08-24T16:04:30Z</time>
      </trkpt>
      <trkpt lat="45.26296" lon="5.73576">
        <ele>674.3</ele>
        <time>2021-08-24T16:04:32Z</time>
      </trkpt>
      <trkpt lat="45.26288" lon="5.73573">
        <ele>673.9</ele>
        <time>2021-08-24T16:04:34Z</time>
      </trkpt>
      <trkpt lat="45.26285" lon="5.73571">
        <ele>673.7</ele>
        <time>2021-08-24T16:04:35Z</time>
      </trkpt>
      <trkpt lat="45.26281" lon="5.7357">
        <ele>673.6</ele>
        <time>2021-08-24T16:04:36Z</time>
      </trkpt>
      <trkpt lat="45.26275" lon="5.73566">
        <ele>673.5</ele>
        <time>2021-08-24T16:04:38Z</time>
      </trkpt>
      <trkpt lat="45.26271" lon="5.73564">
        <ele>673.4</ele>
        <time>2021-08-24T16:04:39Z</time>
      </trkpt>
      <trkpt lat="45.26268" lon="5.73562">
        <ele>673.4</ele>
        <time>2021-08-24T16:04:40Z</time>
      </trkpt>
      <trkpt lat="45.26265" lon="5.73561">
        <ele>673.5</ele>
        <time>2021-08-24T16:04:42Z</time>
      </trkpt>
      <trkpt lat="45.26263" lon="5.7356">
        <ele>673.5</ele>
        <time>2021-08-24T16:04:43Z</time>
      </trkpt>
      <trkpt lat="45.26259" lon="5.73559">
        <ele>673.5</ele>
        <time>2021-08-24T16:04:45Z</time>
      </trkpt>
      <trkpt lat="45.26255" lon="5.73558">
        <ele>673.6</ele>
        <time>2021-08-24T16:04:47Z</time>
      </trkpt>
      <trkpt lat="45.26254" lon="5.73558">
        <ele>673.6</ele>
        <time>2021-08-24T16:04:48Z</time>
      </trkpt>
      <trkpt lat="45.26253" lon="5.73558">
        <ele>673.6</ele>
        <time>2021-08-24T16:04:50Z</time>
      </trkpt>
      <trkpt lat="45.26252" lon="5.73557">
        <ele>673.6</ele>
        <time>2021-08-24T16:04:51Z</time>
      </trkpt>
      <trkpt lat="45.26251" lon="5.73557">
        <ele>673.7</ele>
        <time>2021-08-24T16:04:52Z</time>
      </trkpt>
      <trkpt lat="45.26248" lon="5.73557">
        <ele>673.7</ele>
        <time>2021-08-24T16:04:54Z</time>
      </trkpt>
      <trkpt lat="45.26247" lon="5.73558">
        <ele>673.7</ele>
        <time>2021-08-24T16:04:55Z</time>
      </trkpt>
      <trkpt lat="45.26245" lon="5.73558">
        <ele>673.8</ele>
        <time>2021-08-24T16:04:57Z</time>
      </trkpt>
      <trkpt lat="45.26243" lon="5.73558">
        <ele>673.8</ele>
        <time>2021-08-24T16:04:58Z</time>
      </trkpt>
      <trkpt lat="45.26241" lon="5.73558">
        <ele>673.8</ele>
        <time>2021-08-24T16:04:59Z</time>
      </trkpt>
      <trkpt lat="45.2624" lon="5.73556">
        <ele>673.8</ele>
        <time>2021-08-24T16:05:01Z</time>
      </trkpt>
      <trkpt lat="45.26239" lon="5.73554">
        <ele>673.9</ele>
        <time>2021-08-24T16:05:03Z</time>
      </trkpt>
      <trkpt lat="45.26237" lon="5.73553">
        <ele>673.9</ele>
        <time>2021-08-24T16:05:04Z</time>
      </trkpt>
      <trkpt lat="45.26235" lon="5.73551">
        <ele>673.9</ele>
        <time>2021-08-24T16:05:05Z</time>
      </trkpt>
      <trkpt lat="45.26234" lon="5.73551">
        <ele>673.9</ele>
        <time>2021-08-24T16:05:06Z</time>
      </trkpt>
      <trkpt lat="45.26233" lon="5.7355">
        <ele>673.9</ele>
        <time>2021-08-24T16:05:07Z</time>
      </trkpt>
      <trkpt lat="45.2623" lon="5.73549">
        <ele>673.9</ele>
        <time>2021-08-24T16:05:09Z</time>
      </trkpt>
      <trkpt lat="45.26229" lon="5.73549">
        <ele>673.9</ele>
        <time>2021-08-24T16:05:10Z</time>
      </trkpt>
      <trkpt lat="45.26227" lon="5.73547">
        <ele>673.8</ele>
        <time>2021-08-24T16:05:11Z</time>
      </trkpt>
      <trkpt lat="45.26224" lon="5.73544">
        <ele>673.8</ele>
        <time>2021-08-24T16:05:13Z</time>
      </trkpt>
      <trkpt lat="45.26223" lon="5.73543">
        <ele>673.8</ele>
        <time>2021-08-24T16:05:14Z</time>
      </trkpt>
      <trkpt lat="45.2622" lon="5.73541">
        <ele>673.7</ele>
        <time>2021-08-24T16:05:15Z</time>
      </trkpt>
      <trkpt lat="45.26218" lon="5.73539">
        <ele>673.7</ele>
        <time>2021-08-24T16:05:17Z</time>
      </trkpt>
      <trkpt lat="45.26215" lon="5.73538">
        <ele>673.6</ele>
        <time>2021-08-24T16:05:18Z</time>
      </trkpt>
      <trkpt lat="45.26211" lon="5.73535">
        <ele>673.5</ele>
        <time>2021-08-24T16:05:20Z</time>
      </trkpt>
      <trkpt lat="45.2621" lon="5.73532">
        <ele>673.4</ele>
        <time>2021-08-24T16:05:21Z</time>
      </trkpt>
      <trkpt lat="45.26208" lon="5.73528">
        <ele>673.3</ele>
        <time>2021-08-24T16:05:22Z</time>
      </trkpt>
      <trkpt lat="45.26206" lon="5.73525">
        <ele>673.3</ele>
        <time>2021-08-24T16:05:23Z</time>
      </trkpt>
      <trkpt lat="45.262" lon="5.73518">
        <ele>673.4</ele>
        <time>2021-08-24T16:05:25Z</time>
      </trkpt>
      <trkpt lat="45.26196" lon="5.73515">
        <ele>673.6</ele>
        <time>2021-08-24T16:05:26Z</time>
      </trkpt>
      <trkpt lat="45.26192" lon="5.73512">
        <ele>673.7</ele>
        <time>2021-08-24T16:05:27Z</time>
      </trkpt>
      <trkpt lat="45.26185" lon="5.73504">
        <ele>674.1</ele>
        <time>2021-08-24T16:05:29Z</time>
      </trkpt>
      <trkpt lat="45.26181" lon="5.735">
        <ele>674.2</ele>
        <time>2021-08-24T16:05:30Z</time>
      </trkpt>
      <trkpt lat="45.26171" lon="5.7349">
        <ele>674.6</ele>
        <time>2021-08-24T16:05:32Z</time>
      </trkpt>
      <trkpt lat="45.26162" lon="5.7348">
        <ele>674.9</ele>
        <time>2021-08-24T16:05:34Z</time>
      </trkpt>
      <trkpt lat="45.26157" lon="5.73474">
        <ele>675</ele>
        <time>2021-08-24T16:05:35Z</time>
      </trkpt>
      <trkpt lat="45.26153" lon="5.73468">
        <ele>675.1</ele>
        <time>2021-08-24T16:05:36Z</time>
      </trkpt>
      <trkpt lat="45.26148" lon="5.73461">
        <ele>675.3</ele>
        <time>2021-08-24T16:05:37Z</time>
      </trkpt>
      <trkpt lat="45.26142" lon="5.73454">
        <ele>675.5</ele>
        <time>2021-08-24T16:05:38Z</time>
      </trkpt>
      <trkpt lat="45.26131" lon="5.73439">
        <ele>675.5</ele>
        <time>2021-08-24T16:05:40Z</time>
      </trkpt>
      <trkpt lat="45.26124" lon="5.73432">
        <ele>674.8</ele>
        <time>2021-08-24T16:05:41Z</time>
      </trkpt>
      <trkpt lat="45.26117" lon="5.73427">
        <ele>674.1</ele>
        <time>2021-08-24T16:05:42Z</time>
      </trkpt>
      <trkpt lat="45.26102" lon="5.73419">
        <ele>671</ele>
        <time>2021-08-24T16:05:44Z</time>
      </trkpt>
      <trkpt lat="45.26094" lon="5.73414">
        <ele>670.5</ele>
        <time>2021-08-24T16:05:45Z</time>
      </trkpt>
      <trkpt lat="45.26086" lon="5.7341">
        <ele>670</ele>
        <time>2021-08-24T16:05:46Z</time>
      </trkpt>
      <trkpt lat="45.26071" lon="5.73401">
        <ele>669.2</ele>
        <time>2021-08-24T16:05:48Z</time>
      </trkpt>
      <trkpt lat="45.26064" lon="5.73396">
        <ele>668.9</ele>
        <time>2021-08-24T16:05:49Z</time>
      </trkpt>
      <trkpt lat="45.26051" lon="5.73387">
        <ele>668.5</ele>
        <time>2021-08-24T16:05:51Z</time>
      </trkpt>
      <trkpt lat="45.26045" lon="5.7338">
        <ele>668.2</ele>
        <time>2021-08-24T16:05:52Z</time>
      </trkpt>
      <trkpt lat="45.2604" lon="5.73373">
        <ele>668</ele>
        <time>2021-08-24T16:05:53Z</time>
      </trkpt>
      <trkpt lat="45.26032" lon="5.73358">
        <ele>667.5</ele>
        <time>2021-08-24T16:05:55Z</time>
      </trkpt>
      <trkpt lat="45.26025" lon="5.73342">
        <ele>668.2</ele>
        <time>2021-08-24T16:05:57Z</time>
      </trkpt>
      <trkpt lat="45.26018" lon="5.73327">
        <ele>670.7</ele>
        <time>2021-08-24T16:05:59Z</time>
      </trkpt>
      <trkpt lat="45.26014" lon="5.73319">
        <ele>671</ele>
        <time>2021-08-24T16:06:00Z</time>
      </trkpt>
      <trkpt lat="45.26006" lon="5.73306">
        <ele>671.6</ele>
        <time>2021-08-24T16:06:02Z</time>
      </trkpt>
      <trkpt lat="45.26002" lon="5.73299">
        <ele>672</ele>
        <time>2021-08-24T16:06:03Z</time>
      </trkpt>
      <trkpt lat="45.25994" lon="5.73287">
        <ele>672.7</ele>
        <time>2021-08-24T16:06:05Z</time>
      </trkpt>
      <trkpt lat="45.25989" lon="5.73279">
        <ele>673.2</ele>
        <time>2021-08-24T16:06:07Z</time>
      </trkpt>
      <trkpt lat="45.25983" lon="5.73269">
        <ele>673.8</ele>
        <time>2021-08-24T16:06:09Z</time>
      </trkpt>
      <trkpt lat="45.2598" lon="5.73262">
        <ele>674.2</ele>
        <time>2021-08-24T16:06:11Z</time>
      </trkpt>
      <trkpt lat="45.25979" lon="5.73259">
        <ele>674.3</ele>
        <time>2021-08-24T16:06:12Z</time>
      </trkpt>
      <trkpt lat="45.25977" lon="5.73255">
        <ele>674.5</ele>
        <time>2021-08-24T16:06:13Z</time>
      </trkpt>
      <trkpt lat="45.25975" lon="5.73254">
        <ele>674.6</ele>
        <time>2021-08-24T16:06:14Z</time>
      </trkpt>
      <trkpt lat="45.25972" lon="5.7325">
        <ele>675</ele>
        <time>2021-08-24T16:06:16Z</time>
      </trkpt>
      <trkpt lat="45.25969" lon="5.73247">
        <ele>675.2</ele>
        <time>2021-08-24T16:06:17Z</time>
      </trkpt>
      <trkpt lat="45.25966" lon="5.73243">
        <ele>675.5</ele>
        <time>2021-08-24T16:06:18Z</time>
      </trkpt>
      <trkpt lat="45.25964" lon="5.73239">
        <ele>675.8</ele>
        <time>2021-08-24T16:06:19Z</time>
      </trkpt>
      <trkpt lat="45.25958" lon="5.73231">
        <ele>676.3</ele>
        <time>2021-08-24T16:06:21Z</time>
      </trkpt>
      <trkpt lat="45.25954" lon="5.73226">
        <ele>676.7</ele>
        <time>2021-08-24T16:06:23Z</time>
      </trkpt>
      <trkpt lat="45.25951" lon="5.73221">
        <ele>677</ele>
        <time>2021-08-24T16:06:25Z</time>
      </trkpt>
      <trkpt lat="45.25949" lon="5.73218">
        <ele>677.1</ele>
        <time>2021-08-24T16:06:26Z</time>
      </trkpt>
      <trkpt lat="45.25948" lon="5.73217">
        <ele>677.2</ele>
        <time>2021-08-24T16:06:27Z</time>
      </trkpt>
      <trkpt lat="45.25946" lon="5.73215">
        <ele>677.4</ele>
        <time>2021-08-24T16:06:29Z</time>
      </trkpt>
      <trkpt lat="45.25945" lon="5.73214">
        <ele>677.4</ele>
        <time>2021-08-24T16:06:30Z</time>
      </trkpt>
      <trkpt lat="45.25943" lon="5.73211">
        <ele>677.6</ele>
        <time>2021-08-24T16:06:32Z</time>
      </trkpt>
      <trkpt lat="45.25941" lon="5.73206">
        <ele>677.8</ele>
        <time>2021-08-24T16:06:34Z</time>
      </trkpt>
      <trkpt lat="45.2594" lon="5.73204">
        <ele>677.9</ele>
        <time>2021-08-24T16:06:35Z</time>
      </trkpt>
      <trkpt lat="45.25939" lon="5.73202">
        <ele>678</ele>
        <time>2021-08-24T16:06:36Z</time>
      </trkpt>
      <trkpt lat="45.25937" lon="5.732">
        <ele>678.1</ele>
        <time>2021-08-24T16:06:38Z</time>
      </trkpt>
      <trkpt lat="45.25937" lon="5.73199">
        <ele>678.1</ele>
        <time>2021-08-24T16:06:39Z</time>
      </trkpt>
      <trkpt lat="45.25936" lon="5.73195">
        <ele>678.3</ele>
        <time>2021-08-24T16:06:40Z</time>
      </trkpt>
      <trkpt lat="45.25935" lon="5.73194">
        <ele>678.3</ele>
        <time>2021-08-24T16:06:41Z</time>
      </trkpt>
      <trkpt lat="45.25934" lon="5.73191">
        <ele>678.4</ele>
        <time>2021-08-24T16:06:42Z</time>
      </trkpt>
      <trkpt lat="45.25933" lon="5.73185">
        <ele>678.6</ele>
        <time>2021-08-24T16:06:44Z</time>
      </trkpt>
      <trkpt lat="45.25932" lon="5.73182">
        <ele>678.7</ele>
        <time>2021-08-24T16:06:45Z</time>
      </trkpt>
      <trkpt lat="45.2593" lon="5.73178">
        <ele>678.8</ele>
        <time>2021-08-24T16:06:47Z</time>
      </trkpt>
      <trkpt lat="45.25929" lon="5.73175">
        <ele>678.9</ele>
        <time>2021-08-24T16:06:48Z</time>
      </trkpt>
      <trkpt lat="45.25926" lon="5.7317">
        <ele>679</ele>
        <time>2021-08-24T16:06:50Z</time>
      </trkpt>
      <trkpt lat="45.25921" lon="5.73165">
        <ele>679.1</ele>
        <time>2021-08-24T16:06:51Z</time>
      </trkpt>
      <trkpt lat="45.25918" lon="5.73162">
        <ele>679.1</ele>
        <time>2021-08-24T16:06:53Z</time>
      </trkpt>
      <trkpt lat="45.25915" lon="5.73158">
        <ele>679.2</ele>
        <time>2021-08-24T16:06:54Z</time>
      </trkpt>
      <trkpt lat="45.25913" lon="5.73154">
        <ele>679.2</ele>
        <time>2021-08-24T16:06:55Z</time>
      </trkpt>
      <trkpt lat="45.25911" lon="5.7315">
        <ele>679.2</ele>
        <time>2021-08-24T16:06:56Z</time>
      </trkpt>
      <trkpt lat="45.25909" lon="5.73145">
        <ele>679.2</ele>
        <time>2021-08-24T16:06:57Z</time>
      </trkpt>
      <trkpt lat="45.25907" lon="5.73142">
        <ele>679.3</ele>
        <time>2021-08-24T16:06:58Z</time>
      </trkpt>
      <trkpt lat="45.25905" lon="5.73135">
        <ele>679.3</ele>
        <time>2021-08-24T16:06:59Z</time>
      </trkpt>
      <trkpt lat="45.25902" lon="5.73129">
        <ele>679.2</ele>
        <time>2021-08-24T16:07:01Z</time>
      </trkpt>
      <trkpt lat="45.259" lon="5.73125">
        <ele>679.1</ele>
        <time>2021-08-24T16:07:02Z</time>
      </trkpt>
      <trkpt lat="45.25896" lon="5.73115">
        <ele>678.9</ele>
        <time>2021-08-24T16:07:04Z</time>
      </trkpt>
      <trkpt lat="45.2589" lon="5.73109">
        <ele>678.5</ele>
        <time>2021-08-24T16:07:05Z</time>
      </trkpt>
      <trkpt lat="45.25886" lon="5.73104">
        <ele>678.1</ele>
        <time>2021-08-24T16:07:06Z</time>
      </trkpt>
      <trkpt lat="45.25876" lon="5.73093">
        <ele>677.3</ele>
        <time>2021-08-24T16:07:08Z</time>
      </trkpt>
      <trkpt lat="45.25871" lon="5.73089">
        <ele>676.7</ele>
        <time>2021-08-24T16:07:09Z</time>
      </trkpt>
      <trkpt lat="45.25859" lon="5.73081">
        <ele>675.5</ele>
        <time>2021-08-24T16:07:11Z</time>
      </trkpt>
      <trkpt lat="45.25844" lon="5.73075">
        <ele>673.9</ele>
        <time>2021-08-24T16:07:13Z</time>
      </trkpt>
      <trkpt lat="45.25837" lon="5.73071">
        <ele>673</ele>
        <time>2021-08-24T16:07:14Z</time>
      </trkpt>
      <trkpt lat="45.25821" lon="5.7306">
        <ele>671.5</ele>
        <time>2021-08-24T16:07:16Z</time>
      </trkpt>
      <trkpt lat="45.25813" lon="5.73055">
        <ele>671</ele>
        <time>2021-08-24T16:07:17Z</time>
      </trkpt>
      <trkpt lat="45.25806" lon="5.73049">
        <ele>670.6</ele>
        <time>2021-08-24T16:07:18Z</time>
      </trkpt>
      <trkpt lat="45.25791" lon="5.73037">
        <ele>670</ele>
        <time>2021-08-24T16:07:20Z</time>
      </trkpt>
      <trkpt lat="45.25777" lon="5.73023">
        <ele>669.4</ele>
        <time>2021-08-24T16:07:22Z</time>
      </trkpt>
      <trkpt lat="45.25763" lon="5.73009">
        <ele>668.9</ele>
        <time>2021-08-24T16:07:24Z</time>
      </trkpt>
      <trkpt lat="45.2575" lon="5.72995">
        <ele>668.6</ele>
        <time>2021-08-24T16:07:26Z</time>
      </trkpt>
      <trkpt lat="45.25738" lon="5.72981">
        <ele>668.4</ele>
        <time>2021-08-24T16:07:28Z</time>
      </trkpt>
      <trkpt lat="45.25732" lon="5.72974">
        <ele>668.3</ele>
        <time>2021-08-24T16:07:29Z</time>
      </trkpt>
      <trkpt lat="45.25727" lon="5.72966">
        <ele>668.4</ele>
        <time>2021-08-24T16:07:30Z</time>
      </trkpt>
      <trkpt lat="45.25717" lon="5.7295">
        <ele>668.9</ele>
        <time>2021-08-24T16:07:32Z</time>
      </trkpt>
      <trkpt lat="45.25706" lon="5.72936">
        <ele>669.4</ele>
        <time>2021-08-24T16:07:34Z</time>
      </trkpt>
      <trkpt lat="45.25701" lon="5.7293">
        <ele>669.6</ele>
        <time>2021-08-24T16:07:35Z</time>
      </trkpt>
      <trkpt lat="45.25692" lon="5.7292">
        <ele>669.8</ele>
        <time>2021-08-24T16:07:37Z</time>
      </trkpt>
      <trkpt lat="45.25684" lon="5.72911">
        <ele>670</ele>
        <time>2021-08-24T16:07:39Z</time>
      </trkpt>
      <trkpt lat="45.2568" lon="5.72907">
        <ele>670.1</ele>
        <time>2021-08-24T16:07:40Z</time>
      </trkpt>
      <trkpt lat="45.25676" lon="5.72903">
        <ele>670.2</ele>
        <time>2021-08-24T16:07:41Z</time>
      </trkpt>
      <trkpt lat="45.25667" lon="5.72898">
        <ele>670.4</ele>
        <time>2021-08-24T16:07:43Z</time>
      </trkpt>
      <trkpt lat="45.25663" lon="5.72895">
        <ele>670.6</ele>
        <time>2021-08-24T16:07:44Z</time>
      </trkpt>
      <trkpt lat="45.25656" lon="5.7289">
        <ele>670.7</ele>
        <time>2021-08-24T16:07:46Z</time>
      </trkpt>
      <trkpt lat="45.25652" lon="5.72888">
        <ele>670.8</ele>
        <time>2021-08-24T16:07:47Z</time>
      </trkpt>
      <trkpt lat="45.25647" lon="5.72886">
        <ele>670.9</ele>
        <time>2021-08-24T16:07:48Z</time>
      </trkpt>
      <trkpt lat="45.25641" lon="5.72881">
        <ele>671</ele>
        <time>2021-08-24T16:07:50Z</time>
      </trkpt>
      <trkpt lat="45.25637" lon="5.72877">
        <ele>671</ele>
        <time>2021-08-24T16:07:51Z</time>
      </trkpt>
      <trkpt lat="45.25637" lon="5.72873">
        <ele>671</ele>
        <time>2021-08-24T16:07:52Z</time>
      </trkpt>
      <trkpt lat="45.25634" lon="5.72871">
        <ele>671</ele>
        <time>2021-08-24T16:07:54Z</time>
      </trkpt>
      <trkpt lat="45.25631" lon="5.72868">
        <ele>671</ele>
        <time>2021-08-24T16:07:55Z</time>
      </trkpt>
      <trkpt lat="45.25629" lon="5.72863">
        <ele>670.9</ele>
        <time>2021-08-24T16:07:57Z</time>
      </trkpt>
      <trkpt lat="45.25628" lon="5.72857">
        <ele>670.9</ele>
        <time>2021-08-24T16:07:58Z</time>
      </trkpt>
      <trkpt lat="45.25628" lon="5.7285">
        <ele>670.8</ele>
        <time>2021-08-24T16:07:59Z</time>
      </trkpt>
      <trkpt lat="45.25628" lon="5.72843">
        <ele>670.5</ele>
        <time>2021-08-24T16:08:01Z</time>
      </trkpt>
      <trkpt lat="45.25627" lon="5.72834">
        <ele>670.2</ele>
        <time>2021-08-24T16:08:02Z</time>
      </trkpt>
      <trkpt lat="45.25627" lon="5.72825">
        <ele>669.6</ele>
        <time>2021-08-24T16:08:04Z</time>
      </trkpt>
      <trkpt lat="45.25627" lon="5.72818">
        <ele>669.1</ele>
        <time>2021-08-24T16:08:05Z</time>
      </trkpt>
      <trkpt lat="45.25626" lon="5.72809">
        <ele>668.4</ele>
        <time>2021-08-24T16:08:06Z</time>
      </trkpt>
      <trkpt lat="45.25625" lon="5.728">
        <ele>667.6</ele>
        <time>2021-08-24T16:08:08Z</time>
      </trkpt>
      <trkpt lat="45.25624" lon="5.72792">
        <ele>666.9</ele>
        <time>2021-08-24T16:08:09Z</time>
      </trkpt>
      <trkpt lat="45.25621" lon="5.72786">
        <ele>666.4</ele>
        <time>2021-08-24T16:08:10Z</time>
      </trkpt>
      <trkpt lat="45.25618" lon="5.72776">
        <ele>665.7</ele>
        <time>2021-08-24T16:08:12Z</time>
      </trkpt>
      <trkpt lat="45.25612" lon="5.72762">
        <ele>664.9</ele>
        <time>2021-08-24T16:08:13Z</time>
      </trkpt>
      <trkpt lat="45.25605" lon="5.72747">
        <ele>664</ele>
        <time>2021-08-24T16:08:15Z</time>
      </trkpt>
      <trkpt lat="45.25597" lon="5.72729">
        <ele>662.7</ele>
        <time>2021-08-24T16:08:17Z</time>
      </trkpt>
      <trkpt lat="45.25593" lon="5.72719">
        <ele>662</ele>
        <time>2021-08-24T16:08:18Z</time>
      </trkpt>
      <trkpt lat="45.25585" lon="5.72695">
        <ele>660.5</ele>
        <time>2021-08-24T16:08:20Z</time>
      </trkpt>
      <trkpt lat="45.25581" lon="5.72685">
        <ele>659.9</ele>
        <time>2021-08-24T16:08:21Z</time>
      </trkpt>
      <trkpt lat="45.25577" lon="5.72674">
        <ele>659.2</ele>
        <time>2021-08-24T16:08:22Z</time>
      </trkpt>
      <trkpt lat="45.25572" lon="5.72664">
        <ele>658.5</ele>
        <time>2021-08-24T16:08:24Z</time>
      </trkpt>
      <trkpt lat="45.25572" lon="5.72662">
        <ele>658.5</ele>
        <time>2021-08-24T16:08:25Z</time>
      </trkpt>
      <trkpt lat="45.25565" lon="5.72649">
        <ele>657.7</ele>
        <time>2021-08-24T16:08:27Z</time>
      </trkpt>
      <trkpt lat="45.25561" lon="5.72644">
        <ele>657.5</ele>
        <time>2021-08-24T16:08:28Z</time>
      </trkpt>
      <trkpt lat="45.25559" lon="5.72641">
        <ele>657.4</ele>
        <time>2021-08-24T16:08:29Z</time>
      </trkpt>
      <trkpt lat="45.25551" lon="5.72634">
        <ele>657.2</ele>
        <time>2021-08-24T16:08:31Z</time>
      </trkpt>
      <trkpt lat="45.25545" lon="5.72629">
        <ele>657.3</ele>
        <time>2021-08-24T16:08:32Z</time>
      </trkpt>
      <trkpt lat="45.2553" lon="5.7262">
        <ele>657.5</ele>
        <time>2021-08-24T16:08:34Z</time>
      </trkpt>
      <trkpt lat="45.25528" lon="5.72619">
        <ele>657.5</ele>
        <time>2021-08-24T16:08:35Z</time>
      </trkpt>
      <trkpt lat="45.25522" lon="5.72616">
        <ele>657.5</ele>
        <time>2021-08-24T16:08:36Z</time>
      </trkpt>
      <trkpt lat="45.25514" lon="5.72608">
        <ele>657.3</ele>
        <time>2021-08-24T16:08:38Z</time>
      </trkpt>
      <trkpt lat="45.2551" lon="5.72603">
        <ele>656.9</ele>
        <time>2021-08-24T16:08:39Z</time>
      </trkpt>
      <trkpt lat="45.25506" lon="5.72598">
        <ele>656.4</ele>
        <time>2021-08-24T16:08:40Z</time>
      </trkpt>
      <trkpt lat="45.25497" lon="5.72585">
        <ele>654.4</ele>
        <time>2021-08-24T16:08:42Z</time>
      </trkpt>
      <trkpt lat="45.25494" lon="5.72576">
        <ele>653.4</ele>
        <time>2021-08-24T16:08:43Z</time>
      </trkpt>
      <trkpt lat="45.25491" lon="5.72557">
        <ele>652.2</ele>
        <time>2021-08-24T16:08:45Z</time>
      </trkpt>
      <trkpt lat="45.25488" lon="5.72539">
        <ele>651.4</ele>
        <time>2021-08-24T16:08:47Z</time>
      </trkpt>
      <trkpt lat="45.25487" lon="5.7253">
        <ele>650.9</ele>
        <time>2021-08-24T16:08:48Z</time>
      </trkpt>
      <trkpt lat="45.25486" lon="5.72513">
        <ele>649.8</ele>
        <time>2021-08-24T16:08:50Z</time>
      </trkpt>
      <trkpt lat="45.25487" lon="5.72504">
        <ele>649.2</ele>
        <time>2021-08-24T16:08:51Z</time>
      </trkpt>
      <trkpt lat="45.25489" lon="5.72494">
        <ele>648.6</ele>
        <time>2021-08-24T16:08:52Z</time>
      </trkpt>
      <trkpt lat="45.25491" lon="5.72484">
        <ele>648</ele>
        <time>2021-08-24T16:08:53Z</time>
      </trkpt>
      <trkpt lat="45.25495" lon="5.72471">
        <ele>647.4</ele>
        <time>2021-08-24T16:08:54Z</time>
      </trkpt>
      <trkpt lat="45.25503" lon="5.72447">
        <ele>646.8</ele>
        <time>2021-08-24T16:08:56Z</time>
      </trkpt>
      <trkpt lat="45.2551" lon="5.72424">
        <ele>646.6</ele>
        <time>2021-08-24T16:08:58Z</time>
      </trkpt>
      <trkpt lat="45.25514" lon="5.72413">
        <ele>646.3</ele>
        <time>2021-08-24T16:08:59Z</time>
      </trkpt>
      <trkpt lat="45.25518" lon="5.72403">
        <ele>645.8</ele>
        <time>2021-08-24T16:09:00Z</time>
      </trkpt>
      <trkpt lat="45.25525" lon="5.72386">
        <ele>644</ele>
        <time>2021-08-24T16:09:02Z</time>
      </trkpt>
      <trkpt lat="45.25531" lon="5.7237">
        <ele>641.7</ele>
        <time>2021-08-24T16:09:04Z</time>
      </trkpt>
      <trkpt lat="45.25533" lon="5.72362">
        <ele>640.6</ele>
        <time>2021-08-24T16:09:05Z</time>
      </trkpt>
      <trkpt lat="45.25536" lon="5.72354">
        <ele>639.5</ele>
        <time>2021-08-24T16:09:06Z</time>
      </trkpt>
      <trkpt lat="45.25542" lon="5.72338">
        <ele>637.3</ele>
        <time>2021-08-24T16:09:08Z</time>
      </trkpt>
      <trkpt lat="45.25545" lon="5.7233">
        <ele>636.1</ele>
        <time>2021-08-24T16:09:09Z</time>
      </trkpt>
      <trkpt lat="45.25551" lon="5.72313">
        <ele>633.7</ele>
        <time>2021-08-24T16:09:11Z</time>
      </trkpt>
      <trkpt lat="45.25553" lon="5.72305">
        <ele>632.4</ele>
        <time>2021-08-24T16:09:12Z</time>
      </trkpt>
      <trkpt lat="45.25555" lon="5.72296">
        <ele>631.1</ele>
        <time>2021-08-24T16:09:13Z</time>
      </trkpt>
      <trkpt lat="45.25556" lon="5.72277">
        <ele>628.5</ele>
        <time>2021-08-24T16:09:15Z</time>
      </trkpt>
      <trkpt lat="45.25557" lon="5.72267">
        <ele>627.3</ele>
        <time>2021-08-24T16:09:16Z</time>
      </trkpt>
      <trkpt lat="45.25556" lon="5.72257">
        <ele>626.3</ele>
        <time>2021-08-24T16:09:17Z</time>
      </trkpt>
      <trkpt lat="45.25554" lon="5.72246">
        <ele>625.4</ele>
        <time>2021-08-24T16:09:18Z</time>
      </trkpt>
      <trkpt lat="45.25552" lon="5.72227">
        <ele>623.9</ele>
        <time>2021-08-24T16:09:20Z</time>
      </trkpt>
      <trkpt lat="45.25551" lon="5.72211">
        <ele>623.5</ele>
        <time>2021-08-24T16:09:22Z</time>
      </trkpt>
      <trkpt lat="45.25549" lon="5.72205">
        <ele>623.3</ele>
        <time>2021-08-24T16:09:23Z</time>
      </trkpt>
      <trkpt lat="45.25547" lon="5.72196">
        <ele>623</ele>
        <time>2021-08-24T16:09:25Z</time>
      </trkpt>
      <trkpt lat="45.25548" lon="5.72193">
        <ele>622.9</ele>
        <time>2021-08-24T16:09:26Z</time>
      </trkpt>
      <trkpt lat="45.25553" lon="5.72189">
        <ele>622.7</ele>
        <time>2021-08-24T16:09:28Z</time>
      </trkpt>
      <trkpt lat="45.25556" lon="5.72188">
        <ele>622.6</ele>
        <time>2021-08-24T16:09:29Z</time>
      </trkpt>
      <trkpt lat="45.25559" lon="5.72187">
        <ele>622.4</ele>
        <time>2021-08-24T16:09:30Z</time>
      </trkpt>
      <trkpt lat="45.25561" lon="5.72186">
        <ele>622.3</ele>
        <time>2021-08-24T16:09:32Z</time>
      </trkpt>
      <trkpt lat="45.25562" lon="5.72185">
        <ele>622.3</ele>
        <time>2021-08-24T16:09:33Z</time>
      </trkpt>
      <trkpt lat="45.25561" lon="5.72186">
        <ele>622.2</ele>
        <time>2021-08-24T16:09:35Z</time>
      </trkpt>
      <trkpt lat="45.25556" lon="5.72192">
        <ele>622</ele>
        <time>2021-08-24T16:09:37Z</time>
      </trkpt>
      <trkpt lat="45.25554" lon="5.72196">
        <ele>621.8</ele>
        <time>2021-08-24T16:09:38Z</time>
      </trkpt>
      <trkpt lat="45.25551" lon="5.72205">
        <ele>621.6</ele>
        <time>2021-08-24T16:09:40Z</time>
      </trkpt>
      <trkpt lat="45.2555" lon="5.72209">
        <ele>621.4</ele>
        <time>2021-08-24T16:09:41Z</time>
      </trkpt>
      <trkpt lat="45.2555" lon="5.72213">
        <ele>621.3</ele>
        <time>2021-08-24T16:09:42Z</time>
      </trkpt>
      <trkpt lat="45.25552" lon="5.72221">
        <ele>621.1</ele>
        <time>2021-08-24T16:09:44Z</time>
      </trkpt>
      <trkpt lat="45.25553" lon="5.72228">
        <ele>620.9</ele>
        <time>2021-08-24T16:09:46Z</time>
      </trkpt>
      <trkpt lat="45.25556" lon="5.72235">
        <ele>620.7</ele>
        <time>2021-08-24T16:09:48Z</time>
      </trkpt>
      <trkpt lat="45.25558" lon="5.72239">
        <ele>620.6</ele>
        <time>2021-08-24T16:09:50Z</time>
      </trkpt>
      <trkpt lat="45.2556" lon="5.72239">
        <ele>620.5</ele>
        <time>2021-08-24T16:09:52Z</time>
      </trkpt>
      <trkpt lat="45.25561" lon="5.72239">
        <ele>620.5</ele>
        <time>2021-08-24T16:09:53Z</time>
      </trkpt>
      <trkpt lat="45.25562" lon="5.72238">
        <ele>620.4</ele>
        <time>2021-08-24T16:09:54Z</time>
      </trkpt>
      <trkpt lat="45.25563" lon="5.72237">
        <ele>620.4</ele>
        <time>2021-08-24T16:09:55Z</time>
      </trkpt>
      <trkpt lat="45.25564" lon="5.72237">
        <ele>620.4</ele>
        <time>2021-08-24T16:09:57Z</time>
      </trkpt>
      <trkpt lat="45.25565" lon="5.72236">
        <ele>620.3</ele>
        <time>2021-08-24T16:09:58Z</time>
      </trkpt>
      <trkpt lat="45.25565" lon="5.72236">
        <ele>620.3</ele>
        <time>2021-08-24T16:11:55Z</time>
      </trkpt>
      <trkpt lat="45.25566" lon="5.72235">
        <ele>620.3</ele>
        <time>2021-08-24T16:11:56Z</time>
      </trkpt>
      <trkpt lat="45.25567" lon="5.7223">
        <ele>620.1</ele>
        <time>2021-08-24T16:11:57Z</time>
      </trkpt>
      <trkpt lat="45.25567" lon="5.72223">
        <ele>620</ele>
        <time>2021-08-24T16:11:58Z</time>
      </trkpt>
      <trkpt lat="45.25567" lon="5.72218">
        <ele>619.9</ele>
        <time>2021-08-24T16:12:00Z</time>
      </trkpt>
      <trkpt lat="45.25568" lon="5.72214">
        <ele>619.8</ele>
        <time>2021-08-24T16:12:01Z</time>
      </trkpt>
      <trkpt lat="45.25569" lon="5.72209">
        <ele>619.7</ele>
        <time>2021-08-24T16:12:02Z</time>
      </trkpt>
      <trkpt lat="45.25571" lon="5.72205">
        <ele>619.6</ele>
        <time>2021-08-24T16:12:04Z</time>
      </trkpt>
      <trkpt lat="45.25571" lon="5.72202">
        <ele>619.5</ele>
        <time>2021-08-24T16:12:05Z</time>
      </trkpt>
      <trkpt lat="45.25571" lon="5.72197">
        <ele>619.4</ele>
        <time>2021-08-24T16:12:07Z</time>
      </trkpt>
      <trkpt lat="45.2557" lon="5.72191">
        <ele>619.3</ele>
        <time>2021-08-24T16:12:09Z</time>
      </trkpt>
      <trkpt lat="45.25569" lon="5.72189">
        <ele>619.3</ele>
        <time>2021-08-24T16:12:10Z</time>
      </trkpt>
      <trkpt lat="45.25569" lon="5.72186">
        <ele>619.2</ele>
        <time>2021-08-24T16:12:11Z</time>
      </trkpt>
      <trkpt lat="45.25569" lon="5.72184">
        <ele>619.2</ele>
        <time>2021-08-24T16:12:12Z</time>
      </trkpt>
      <trkpt lat="45.25569" lon="5.72183">
        <ele>619.2</ele>
        <time>2021-08-24T16:12:13Z</time>
      </trkpt>
      <trkpt lat="45.25569" lon="5.7218">
        <ele>619.1</ele>
        <time>2021-08-24T16:12:15Z</time>
      </trkpt>
      <trkpt lat="45.25568" lon="5.7218">
        <ele>619.1</ele>
        <time>2021-08-24T16:12:17Z</time>
      </trkpt>
      <trkpt lat="45.25568" lon="5.7218">
        <ele>619.1</ele>
        <time>2021-08-24T16:12:18Z</time>
      </trkpt>
      <trkpt lat="45.25568" lon="5.72179">
        <ele>619.1</ele>
        <time>2021-08-24T16:12:19Z</time>
      </trkpt>
      <trkpt lat="45.25568" lon="5.72179">
        <ele>619.1</ele>
        <time>2021-08-24T16:12:21Z</time>
      </trkpt>
      <trkpt lat="45.25571" lon="5.72172">
        <ele>619</ele>
        <time>2021-08-24T16:12:23Z</time>
      </trkpt>
      <trkpt lat="45.25574" lon="5.72156">
        <ele>617.7</ele>
        <time>2021-08-24T16:12:29Z</time>
      </trkpt>
      <trkpt lat="45.25574" lon="5.72149">
        <ele>617.1</ele>
        <time>2021-08-24T16:12:30Z</time>
      </trkpt>
      <trkpt lat="45.25575" lon="5.72142">
        <ele>616.4</ele>
        <time>2021-08-24T16:12:31Z</time>
      </trkpt>
      <trkpt lat="45.25576" lon="5.72135">
        <ele>615.7</ele>
        <time>2021-08-24T16:12:32Z</time>
      </trkpt>
      <trkpt lat="45.25577" lon="5.72125">
        <ele>614.7</ele>
        <time>2021-08-24T16:12:34Z</time>
      </trkpt>
      <trkpt lat="45.25578" lon="5.72118">
        <ele>613.8</ele>
        <time>2021-08-24T16:12:35Z</time>
      </trkpt>
      <trkpt lat="45.25579" lon="5.72109">
        <ele>612.7</ele>
        <time>2021-08-24T16:12:36Z</time>
      </trkpt>
      <trkpt lat="45.2558" lon="5.72102">
        <ele>611.6</ele>
        <time>2021-08-24T16:12:38Z</time>
      </trkpt>
      <trkpt lat="45.2558" lon="5.72095">
        <ele>610.4</ele>
        <time>2021-08-24T16:12:39Z</time>
      </trkpt>
      <trkpt lat="45.25581" lon="5.72086">
        <ele>608.6</ele>
        <time>2021-08-24T16:12:41Z</time>
      </trkpt>
      <trkpt lat="45.25582" lon="5.72081">
        <ele>607.4</ele>
        <time>2021-08-24T16:12:42Z</time>
      </trkpt>
      <trkpt lat="45.25582" lon="5.72074">
        <ele>605.8</ele>
        <time>2021-08-24T16:12:43Z</time>
      </trkpt>
      <trkpt lat="45.25582" lon="5.72068">
        <ele>604.5</ele>
        <time>2021-08-24T16:12:45Z</time>
      </trkpt>
      <trkpt lat="45.25582" lon="5.72064">
        <ele>603.4</ele>
        <time>2021-08-24T16:12:46Z</time>
      </trkpt>
      <trkpt lat="45.25584" lon="5.72058">
        <ele>602.1</ele>
        <time>2021-08-24T16:12:47Z</time>
      </trkpt>
      <trkpt lat="45.25586" lon="5.72053">
        <ele>600.8</ele>
        <time>2021-08-24T16:12:49Z</time>
      </trkpt>
      <trkpt lat="45.25587" lon="5.72047">
        <ele>599.7</ele>
        <time>2021-08-24T16:12:50Z</time>
      </trkpt>
      <trkpt lat="45.25588" lon="5.72042">
        <ele>598.5</ele>
        <time>2021-08-24T16:12:52Z</time>
      </trkpt>
      <trkpt lat="45.25589" lon="5.72036">
        <ele>597.2</ele>
        <time>2021-08-24T16:12:54Z</time>
      </trkpt>
      <trkpt lat="45.25588" lon="5.72032">
        <ele>596.3</ele>
        <time>2021-08-24T16:12:55Z</time>
      </trkpt>
      <trkpt lat="45.25589" lon="5.72025">
        <ele>594.8</ele>
        <time>2021-08-24T16:12:56Z</time>
      </trkpt>
      <trkpt lat="45.25589" lon="5.72021">
        <ele>594.1</ele>
        <time>2021-08-24T16:12:57Z</time>
      </trkpt>
      <trkpt lat="45.25589" lon="5.72014">
        <ele>592.5</ele>
        <time>2021-08-24T16:12:59Z</time>
      </trkpt>
      <trkpt lat="45.25589" lon="5.72008">
        <ele>590.9</ele>
        <time>2021-08-24T16:13:00Z</time>
      </trkpt>
      <trkpt lat="45.25589" lon="5.72">
        <ele>589.1</ele>
        <time>2021-08-24T16:13:01Z</time>
      </trkpt>
      <trkpt lat="45.25588" lon="5.7199">
        <ele>587</ele>
        <time>2021-08-24T16:13:03Z</time>
      </trkpt>
      <trkpt lat="45.25587" lon="5.71982">
        <ele>585.1</ele>
        <time>2021-08-24T16:13:04Z</time>
      </trkpt>
      <trkpt lat="45.25588" lon="5.71974">
        <ele>583.4</ele>
        <time>2021-08-24T16:13:05Z</time>
      </trkpt>
      <trkpt lat="45.25588" lon="5.71964">
        <ele>581.5</ele>
        <time>2021-08-24T16:13:07Z</time>
      </trkpt>
      <trkpt lat="45.25589" lon="5.71956">
        <ele>580</ele>
        <time>2021-08-24T16:13:08Z</time>
      </trkpt>
      <trkpt lat="45.25589" lon="5.71949">
        <ele>578.6</ele>
        <time>2021-08-24T16:13:09Z</time>
      </trkpt>
      <trkpt lat="45.25588" lon="5.71937">
        <ele>576.2</ele>
        <time>2021-08-24T16:13:10Z</time>
      </trkpt>
      <trkpt lat="45.25588" lon="5.71927">
        <ele>574.3</ele>
        <time>2021-08-24T16:13:12Z</time>
      </trkpt>
      <trkpt lat="45.25586" lon="5.71919">
        <ele>572.8</ele>
        <time>2021-08-24T16:13:13Z</time>
      </trkpt>
      <trkpt lat="45.25585" lon="5.71914">
        <ele>571.8</ele>
        <time>2021-08-24T16:13:15Z</time>
      </trkpt>
      <trkpt lat="45.25584" lon="5.71909">
        <ele>571</ele>
        <time>2021-08-24T16:13:16Z</time>
      </trkpt>
      <trkpt lat="45.25582" lon="5.71906">
        <ele>570.4</ele>
        <time>2021-08-24T16:13:17Z</time>
      </trkpt>
      <trkpt lat="45.25579" lon="5.71899">
        <ele>569.1</ele>
        <time>2021-08-24T16:13:19Z</time>
      </trkpt>
      <trkpt lat="45.25574" lon="5.71895">
        <ele>566.2</ele>
        <time>2021-08-24T16:13:21Z</time>
      </trkpt>
      <trkpt lat="45.2557" lon="5.71893">
        <ele>565.2</ele>
        <time>2021-08-24T16:13:22Z</time>
      </trkpt>
      <trkpt lat="45.25567" lon="5.71891">
        <ele>564.6</ele>
        <time>2021-08-24T16:13:23Z</time>
      </trkpt>
      <trkpt lat="45.25562" lon="5.71888">
        <ele>563.4</ele>
        <time>2021-08-24T16:13:25Z</time>
      </trkpt>
      <trkpt lat="45.25557" lon="5.71886">
        <ele>563.3</ele>
        <time>2021-08-24T16:13:27Z</time>
      </trkpt>
      <trkpt lat="45.25551" lon="5.71886">
        <ele>563</ele>
        <time>2021-08-24T16:13:29Z</time>
      </trkpt>
      <trkpt lat="45.25542" lon="5.71888">
        <ele>561.6</ele>
        <time>2021-08-24T16:13:30Z</time>
      </trkpt>
      <trkpt lat="45.25535" lon="5.7189">
        <ele>560.5</ele>
        <time>2021-08-24T16:13:31Z</time>
      </trkpt>
      <trkpt lat="45.25528" lon="5.71894">
        <ele>559.3</ele>
        <time>2021-08-24T16:13:32Z</time>
      </trkpt>
      <trkpt lat="45.25511" lon="5.719">
        <ele>556.6</ele>
        <time>2021-08-24T16:13:34Z</time>
      </trkpt>
      <trkpt lat="45.25501" lon="5.71902">
        <ele>555.4</ele>
        <time>2021-08-24T16:13:35Z</time>
      </trkpt>
      <trkpt lat="45.25492" lon="5.71904">
        <ele>554.2</ele>
        <time>2021-08-24T16:13:36Z</time>
      </trkpt>
      <trkpt lat="45.25473" lon="5.71909">
        <ele>552.5</ele>
        <time>2021-08-24T16:13:38Z</time>
      </trkpt>
      <trkpt lat="45.25464" lon="5.71912">
        <ele>551.7</ele>
        <time>2021-08-24T16:13:39Z</time>
      </trkpt>
      <trkpt lat="45.25449" lon="5.71918">
        <ele>551.2</ele>
        <time>2021-08-24T16:13:41Z</time>
      </trkpt>
      <trkpt lat="45.25432" lon="5.71921">
        <ele>550.8</ele>
        <time>2021-08-24T16:13:43Z</time>
      </trkpt>
      <trkpt lat="45.25417" lon="5.7192">
        <ele>550.5</ele>
        <time>2021-08-24T16:13:45Z</time>
      </trkpt>
      <trkpt lat="45.25409" lon="5.71917">
        <ele>550.2</ele>
        <time>2021-08-24T16:13:46Z</time>
      </trkpt>
      <trkpt lat="45.25402" lon="5.71911">
        <ele>549.8</ele>
        <time>2021-08-24T16:13:47Z</time>
      </trkpt>
      <trkpt lat="45.25396" lon="5.71901">
        <ele>549.4</ele>
        <time>2021-08-24T16:13:48Z</time>
      </trkpt>
      <trkpt lat="45.25391" lon="5.71889">
        <ele>549.1</ele>
        <time>2021-08-24T16:13:49Z</time>
      </trkpt>
      <trkpt lat="45.25381" lon="5.71865">
        <ele>548.6</ele>
        <time>2021-08-24T16:13:51Z</time>
      </trkpt>
      <trkpt lat="45.25372" lon="5.71844">
        <ele>548.1</ele>
        <time>2021-08-24T16:13:53Z</time>
      </trkpt>
      <trkpt lat="45.25367" lon="5.71836">
        <ele>547.7</ele>
        <time>2021-08-24T16:13:54Z</time>
      </trkpt>
      <trkpt lat="45.25362" lon="5.7183">
        <ele>547.1</ele>
        <time>2021-08-24T16:13:55Z</time>
      </trkpt>
      <trkpt lat="45.25357" lon="5.71826">
        <ele>546.7</ele>
        <time>2021-08-24T16:13:56Z</time>
      </trkpt>
      <trkpt lat="45.25347" lon="5.7182">
        <ele>545.9</ele>
        <time>2021-08-24T16:13:58Z</time>
      </trkpt>
      <trkpt lat="45.25338" lon="5.71817">
        <ele>545.2</ele>
        <time>2021-08-24T16:14:00Z</time>
      </trkpt>
      <trkpt lat="45.25334" lon="5.71816">
        <ele>544.9</ele>
        <time>2021-08-24T16:14:01Z</time>
      </trkpt>
      <trkpt lat="45.25326" lon="5.71816">
        <ele>544.1</ele>
        <time>2021-08-24T16:14:03Z</time>
      </trkpt>
      <trkpt lat="45.25319" lon="5.71816">
        <ele>543.4</ele>
        <time>2021-08-24T16:14:05Z</time>
      </trkpt>
      <trkpt lat="45.25315" lon="5.71816">
        <ele>542.8</ele>
        <time>2021-08-24T16:14:06Z</time>
      </trkpt>
      <trkpt lat="45.25309" lon="5.71815">
        <ele>542.1</ele>
        <time>2021-08-24T16:14:08Z</time>
      </trkpt>
      <trkpt lat="45.25306" lon="5.71814">
        <ele>541.8</ele>
        <time>2021-08-24T16:14:09Z</time>
      </trkpt>
      <trkpt lat="45.25301" lon="5.71812">
        <ele>541.2</ele>
        <time>2021-08-24T16:14:11Z</time>
      </trkpt>
      <trkpt lat="45.25299" lon="5.71811">
        <ele>540.8</ele>
        <time>2021-08-24T16:14:12Z</time>
      </trkpt>
      <trkpt lat="45.25296" lon="5.7181">
        <ele>540.3</ele>
        <time>2021-08-24T16:14:14Z</time>
      </trkpt>
      <trkpt lat="45.25293" lon="5.71807">
        <ele>539.8</ele>
        <time>2021-08-24T16:14:16Z</time>
      </trkpt>
      <trkpt lat="45.25292" lon="5.71804">
        <ele>539.1</ele>
        <time>2021-08-24T16:14:17Z</time>
      </trkpt>
      <trkpt lat="45.25291" lon="5.71802">
        <ele>539.1</ele>
        <time>2021-08-24T16:14:18Z</time>
      </trkpt>
      <trkpt lat="45.25292" lon="5.71803">
        <ele>539.1</ele>
        <time>2021-08-24T16:14:20Z</time>
      </trkpt>
      <trkpt lat="45.25293" lon="5.71804">
        <ele>539.1</ele>
        <time>2021-08-24T16:14:21Z</time>
      </trkpt>
      <trkpt lat="45.25294" lon="5.71805">
        <ele>539.1</ele>
        <time>2021-08-24T16:14:22Z</time>
      </trkpt>
      <trkpt lat="45.25295" lon="5.71806">
        <ele>539.1</ele>
        <time>2021-08-24T16:14:23Z</time>
      </trkpt>
      <trkpt lat="45.25296" lon="5.71807">
        <ele>539.1</ele>
        <time>2021-08-24T16:14:25Z</time>
      </trkpt>
      <trkpt lat="45.25297" lon="5.71808">
        <ele>539.1</ele>
        <time>2021-08-24T16:14:26Z</time>
      </trkpt>
      <trkpt lat="45.25298" lon="5.71809">
        <ele>539.1</ele>
        <time>2021-08-24T16:14:28Z</time>
      </trkpt>
      <trkpt lat="45.25299" lon="5.7181">
        <ele>539.1</ele>
        <time>2021-08-24T16:14:29Z</time>
      </trkpt>
      <trkpt lat="45.253" lon="5.71811">
        <ele>539.1</ele>
        <time>2021-08-24T16:14:30Z</time>
      </trkpt>
      <trkpt lat="45.25301" lon="5.71812">
        <ele>539.1</ele>
        <time>2021-08-24T16:14:32Z</time>
      </trkpt>
      <trkpt lat="45.25302" lon="5.71813">
        <ele>539.1</ele>
        <time>2021-08-24T16:14:34Z</time>
      </trkpt>
      <trkpt lat="45.25303" lon="5.71814">
        <ele>539.1</ele>
        <time>2021-08-24T16:16:47Z</time>
      </trkpt>
      <trkpt lat="45.25303" lon="5.71815">
        <ele>539.1</ele>
        <time>2021-08-24T16:16:49Z</time>
      </trkpt>
      <trkpt lat="45.25311" lon="5.7178">
        <ele>532.4</ele>
        <time>2021-08-24T16:16:50Z</time>
      </trkpt>
      <trkpt lat="45.25321" lon="5.71762">
        <ele>532.1</ele>
        <time>2021-08-24T16:16:52Z</time>
      </trkpt>
      <trkpt lat="45.25326" lon="5.71756">
        <ele>532</ele>
        <time>2021-08-24T16:16:53Z</time>
      </trkpt>
      <trkpt lat="45.2533" lon="5.71752">
        <ele>532</ele>
        <time>2021-08-24T16:16:54Z</time>
      </trkpt>
      <trkpt lat="45.25334" lon="5.71738">
        <ele>531.8</ele>
        <time>2021-08-24T16:16:56Z</time>
      </trkpt>
      <trkpt lat="45.25332" lon="5.71722">
        <ele>531.7</ele>
        <time>2021-08-24T16:16:58Z</time>
      </trkpt>
      <trkpt lat="45.25329" lon="5.71705">
        <ele>531.5</ele>
        <time>2021-08-24T16:17:00Z</time>
      </trkpt>
      <trkpt lat="45.25326" lon="5.71697">
        <ele>531.5</ele>
        <time>2021-08-24T16:17:01Z</time>
      </trkpt>
      <trkpt lat="45.25324" lon="5.71689">
        <ele>531.5</ele>
        <time>2021-08-24T16:17:02Z</time>
      </trkpt>
      <trkpt lat="45.25317" lon="5.71676">
        <ele>531.4</ele>
        <time>2021-08-24T16:17:04Z</time>
      </trkpt>
      <trkpt lat="45.25314" lon="5.7167">
        <ele>531.4</ele>
        <time>2021-08-24T16:17:05Z</time>
      </trkpt>
      <trkpt lat="45.25311" lon="5.71664">
        <ele>531.4</ele>
        <time>2021-08-24T16:17:06Z</time>
      </trkpt>
      <trkpt lat="45.25304" lon="5.71653">
        <ele>531.3</ele>
        <time>2021-08-24T16:17:08Z</time>
      </trkpt>
      <trkpt lat="45.253" lon="5.71648">
        <ele>531.2</ele>
        <time>2021-08-24T16:17:09Z</time>
      </trkpt>
      <trkpt lat="45.25295" lon="5.71642">
        <ele>531.1</ele>
        <time>2021-08-24T16:17:10Z</time>
      </trkpt>
      <trkpt lat="45.25289" lon="5.7163">
        <ele>531</ele>
        <time>2021-08-24T16:17:12Z</time>
      </trkpt>
      <trkpt lat="45.25287" lon="5.71623">
        <ele>530.9</ele>
        <time>2021-08-24T16:17:13Z</time>
      </trkpt>
      <trkpt lat="45.25285" lon="5.71608">
        <ele>530.8</ele>
        <time>2021-08-24T16:17:15Z</time>
      </trkpt>
      <trkpt lat="45.25284" lon="5.71601">
        <ele>530.8</ele>
        <time>2021-08-24T16:17:16Z</time>
      </trkpt>
      <trkpt lat="45.25284" lon="5.71586">
        <ele>530.7</ele>
        <time>2021-08-24T16:17:18Z</time>
      </trkpt>
      <trkpt lat="45.25287" lon="5.71571">
        <ele>530.6</ele>
        <time>2021-08-24T16:17:20Z</time>
      </trkpt>
      <trkpt lat="45.25289" lon="5.71563">
        <ele>530.5</ele>
        <time>2021-08-24T16:17:21Z</time>
      </trkpt>
      <trkpt lat="45.2529" lon="5.71555">
        <ele>530.5</ele>
        <time>2021-08-24T16:17:22Z</time>
      </trkpt>
      <trkpt lat="45.2529" lon="5.71547">
        <ele>530.4</ele>
        <time>2021-08-24T16:17:23Z</time>
      </trkpt>
      <trkpt lat="45.2529" lon="5.71539">
        <ele>530.4</ele>
        <time>2021-08-24T16:17:24Z</time>
      </trkpt>
      <trkpt lat="45.2529" lon="5.71531">
        <ele>530.3</ele>
        <time>2021-08-24T16:17:25Z</time>
      </trkpt>
      <trkpt lat="45.25292" lon="5.71523">
        <ele>530.2</ele>
        <time>2021-08-24T16:17:26Z</time>
      </trkpt>
      <trkpt lat="45.25297" lon="5.71508">
        <ele>530</ele>
        <time>2021-08-24T16:17:28Z</time>
      </trkpt>
      <trkpt lat="45.25302" lon="5.71493">
        <ele>529.9</ele>
        <time>2021-08-24T16:17:30Z</time>
      </trkpt>
      <trkpt lat="45.25306" lon="5.71477">
        <ele>529.7</ele>
        <time>2021-08-24T16:17:32Z</time>
      </trkpt>
      <trkpt lat="45.2531" lon="5.71461">
        <ele>529.6</ele>
        <time>2021-08-24T16:17:34Z</time>
      </trkpt>
      <trkpt lat="45.25311" lon="5.71453">
        <ele>529.5</ele>
        <time>2021-08-24T16:17:35Z</time>
      </trkpt>
      <trkpt lat="45.25313" lon="5.71446">
        <ele>529.5</ele>
        <time>2021-08-24T16:17:36Z</time>
      </trkpt>
      <trkpt lat="45.25315" lon="5.71439">
        <ele>529.4</ele>
        <time>2021-08-24T16:17:37Z</time>
      </trkpt>
      <trkpt lat="45.2532" lon="5.71425">
        <ele>529.3</ele>
        <time>2021-08-24T16:17:39Z</time>
      </trkpt>
      <trkpt lat="45.25322" lon="5.71419">
        <ele>529.3</ele>
        <time>2021-08-24T16:17:40Z</time>
      </trkpt>
      <trkpt lat="45.25325" lon="5.71412">
        <ele>529.2</ele>
        <time>2021-08-24T16:17:41Z</time>
      </trkpt>
      <trkpt lat="45.2533" lon="5.71399">
        <ele>529</ele>
        <time>2021-08-24T16:17:43Z</time>
      </trkpt>
      <trkpt lat="45.25336" lon="5.71388">
        <ele>528.8</ele>
        <time>2021-08-24T16:17:45Z</time>
      </trkpt>
      <trkpt lat="45.25339" lon="5.71383">
        <ele>528.7</ele>
        <time>2021-08-24T16:17:46Z</time>
      </trkpt>
      <trkpt lat="45.25346" lon="5.71374">
        <ele>528.5</ele>
        <time>2021-08-24T16:17:48Z</time>
      </trkpt>
      <trkpt lat="45.25349" lon="5.71369">
        <ele>528.4</ele>
        <time>2021-08-24T16:17:49Z</time>
      </trkpt>
      <trkpt lat="45.25352" lon="5.71364">
        <ele>528.4</ele>
        <time>2021-08-24T16:17:50Z</time>
      </trkpt>
      <trkpt lat="45.25354" lon="5.71363">
        <ele>528.3</ele>
        <time>2021-08-24T16:17:51Z</time>
      </trkpt>
      <trkpt lat="45.25362" lon="5.71357">
        <ele>528.2</ele>
        <time>2021-08-24T16:17:53Z</time>
      </trkpt>
      <trkpt lat="45.25368" lon="5.71353">
        <ele>528.1</ele>
        <time>2021-08-24T16:17:54Z</time>
      </trkpt>
      <trkpt lat="45.25381" lon="5.71344">
        <ele>527.9</ele>
        <time>2021-08-24T16:17:56Z</time>
      </trkpt>
      <trkpt lat="45.25392" lon="5.71336">
        <ele>527.7</ele>
        <time>2021-08-24T16:17:58Z</time>
      </trkpt>
      <trkpt lat="45.25403" lon="5.7133">
        <ele>527.5</ele>
        <time>2021-08-24T16:18:00Z</time>
      </trkpt>
      <trkpt lat="45.25408" lon="5.71328">
        <ele>527.4</ele>
        <time>2021-08-24T16:18:01Z</time>
      </trkpt>
      <trkpt lat="45.25412" lon="5.71326">
        <ele>527.3</ele>
        <time>2021-08-24T16:18:02Z</time>
      </trkpt>
      <trkpt lat="45.25423" lon="5.71325">
        <ele>526.9</ele>
        <time>2021-08-24T16:18:04Z</time>
      </trkpt>
      <trkpt lat="45.25428" lon="5.71324">
        <ele>526.7</ele>
        <time>2021-08-24T16:18:05Z</time>
      </trkpt>
      <trkpt lat="45.25439" lon="5.71323">
        <ele>526.2</ele>
        <time>2021-08-24T16:18:07Z</time>
      </trkpt>
      <trkpt lat="45.25445" lon="5.71322">
        <ele>526</ele>
        <time>2021-08-24T16:18:08Z</time>
      </trkpt>
      <trkpt lat="45.25451" lon="5.71322">
        <ele>525.8</ele>
        <time>2021-08-24T16:18:09Z</time>
      </trkpt>
      <trkpt lat="45.25456" lon="5.7132">
        <ele>525.7</ele>
        <time>2021-08-24T16:18:10Z</time>
      </trkpt>
      <trkpt lat="45.25462" lon="5.71319">
        <ele>525.5</ele>
        <time>2021-08-24T16:18:11Z</time>
      </trkpt>
      <trkpt lat="45.25475" lon="5.71314">
        <ele>525.1</ele>
        <time>2021-08-24T16:18:13Z</time>
      </trkpt>
      <trkpt lat="45.25489" lon="5.71308">
        <ele>524.7</ele>
        <time>2021-08-24T16:18:15Z</time>
      </trkpt>
      <trkpt lat="45.25496" lon="5.71305">
        <ele>524.6</ele>
        <time>2021-08-24T16:18:16Z</time>
      </trkpt>
      <trkpt lat="45.25501" lon="5.71301">
        <ele>524.5</ele>
        <time>2021-08-24T16:18:17Z</time>
      </trkpt>
      <trkpt lat="45.25512" lon="5.71291">
        <ele>524.6</ele>
        <time>2021-08-24T16:18:19Z</time>
      </trkpt>
      <trkpt lat="45.25517" lon="5.71288">
        <ele>524.7</ele>
        <time>2021-08-24T16:18:20Z</time>
      </trkpt>
      <trkpt lat="45.25522" lon="5.71285">
        <ele>524.8</ele>
        <time>2021-08-24T16:18:21Z</time>
      </trkpt>
      <trkpt lat="45.25533" lon="5.71279">
        <ele>525</ele>
        <time>2021-08-24T16:18:23Z</time>
      </trkpt>
      <trkpt lat="45.25544" lon="5.71274">
        <ele>525.3</ele>
        <time>2021-08-24T16:18:25Z</time>
      </trkpt>
      <trkpt lat="45.25549" lon="5.71273">
        <ele>525.5</ele>
        <time>2021-08-24T16:18:26Z</time>
      </trkpt>
      <trkpt lat="45.25557" lon="5.71272">
        <ele>525.7</ele>
        <time>2021-08-24T16:18:28Z</time>
      </trkpt>
      <trkpt lat="45.25566" lon="5.7127">
        <ele>526.1</ele>
        <time>2021-08-24T16:18:30Z</time>
      </trkpt>
      <trkpt lat="45.25576" lon="5.71271">
        <ele>526.4</ele>
        <time>2021-08-24T16:18:32Z</time>
      </trkpt>
      <trkpt lat="45.2558" lon="5.71272">
        <ele>526.5</ele>
        <time>2021-08-24T16:18:33Z</time>
      </trkpt>
      <trkpt lat="45.25582" lon="5.71272">
        <ele>526.6</ele>
        <time>2021-08-24T16:18:35Z</time>
      </trkpt>
      <trkpt lat="45.2559" lon="5.71271">
        <ele>526.8</ele>
        <time>2021-08-24T16:18:36Z</time>
      </trkpt>
      <trkpt lat="45.25641" lon="5.71227">
        <ele>529.2</ele>
        <time>2021-08-24T16:18:59Z</time>
      </trkpt>
      <trkpt lat="45.25644" lon="5.71222">
        <ele>529.4</ele>
        <time>2021-08-24T16:19:00Z</time>
      </trkpt>
      <trkpt lat="45.25647" lon="5.71216">
        <ele>529.5</ele>
        <time>2021-08-24T16:19:02Z</time>
      </trkpt>
      <trkpt lat="45.2565" lon="5.71212">
        <ele>529.6</ele>
        <time>2021-08-24T16:19:03Z</time>
      </trkpt>
      <trkpt lat="45.25652" lon="5.71206">
        <ele>529.6</ele>
        <time>2021-08-24T16:19:04Z</time>
      </trkpt>
      <trkpt lat="45.25654" lon="5.712">
        <ele>529.6</ele>
        <time>2021-08-24T16:19:06Z</time>
      </trkpt>
      <trkpt lat="45.25656" lon="5.71195">
        <ele>529.7</ele>
        <time>2021-08-24T16:19:07Z</time>
      </trkpt>
      <trkpt lat="45.25657" lon="5.71191">
        <ele>529.7</ele>
        <time>2021-08-24T16:19:08Z</time>
      </trkpt>
      <trkpt lat="45.25658" lon="5.71185">
        <ele>529.7</ele>
        <time>2021-08-24T16:19:09Z</time>
      </trkpt>
      <trkpt lat="45.25658" lon="5.71178">
        <ele>529.7</ele>
        <time>2021-08-24T16:19:11Z</time>
      </trkpt>
      <trkpt lat="45.25657" lon="5.71169">
        <ele>529.8</ele>
        <time>2021-08-24T16:19:13Z</time>
      </trkpt>
      <trkpt lat="45.25655" lon="5.71161">
        <ele>529.9</ele>
        <time>2021-08-24T16:19:14Z</time>
      </trkpt>
      <trkpt lat="45.25653" lon="5.71153">
        <ele>529.9</ele>
        <time>2021-08-24T16:19:16Z</time>
      </trkpt>
      <trkpt lat="45.25652" lon="5.71146">
        <ele>530</ele>
        <time>2021-08-24T16:19:17Z</time>
      </trkpt>
      <trkpt lat="45.2565" lon="5.71141">
        <ele>530</ele>
        <time>2021-08-24T16:19:18Z</time>
      </trkpt>
      <trkpt lat="45.25649" lon="5.71135">
        <ele>530</ele>
        <time>2021-08-24T16:19:19Z</time>
      </trkpt>
      <trkpt lat="45.25647" lon="5.71126">
        <ele>530.1</ele>
        <time>2021-08-24T16:19:20Z</time>
      </trkpt>
      <trkpt lat="45.25646" lon="5.71121">
        <ele>530.2</ele>
        <time>2021-08-24T16:19:21Z</time>
      </trkpt>
      <trkpt lat="45.25645" lon="5.71114">
        <ele>530.2</ele>
        <time>2021-08-24T16:19:22Z</time>
      </trkpt>
      <trkpt lat="45.25645" lon="5.71105">
        <ele>530.3</ele>
        <time>2021-08-24T16:19:24Z</time>
      </trkpt>
      <trkpt lat="45.25645" lon="5.71099">
        <ele>530.3</ele>
        <time>2021-08-24T16:19:25Z</time>
      </trkpt>
      <trkpt lat="45.25645" lon="5.71093">
        <ele>530.4</ele>
        <time>2021-08-24T16:19:26Z</time>
      </trkpt>
      <trkpt lat="45.25647" lon="5.71085">
        <ele>530.5</ele>
        <time>2021-08-24T16:19:27Z</time>
      </trkpt>
      <trkpt lat="45.25648" lon="5.71075">
        <ele>530.6</ele>
        <time>2021-08-24T16:19:29Z</time>
      </trkpt>
      <trkpt lat="45.25649" lon="5.7107">
        <ele>530.6</ele>
        <time>2021-08-24T16:19:30Z</time>
      </trkpt>
      <trkpt lat="45.25649" lon="5.71062">
        <ele>530.8</ele>
        <time>2021-08-24T16:19:31Z</time>
      </trkpt>
      <trkpt lat="45.25649" lon="5.71053">
        <ele>530.9</ele>
        <time>2021-08-24T16:19:33Z</time>
      </trkpt>
      <trkpt lat="45.25649" lon="5.71046">
        <ele>530.9</ele>
        <time>2021-08-24T16:19:34Z</time>
      </trkpt>
      <trkpt lat="45.25648" lon="5.71038">
        <ele>530.9</ele>
        <time>2021-08-24T16:19:36Z</time>
      </trkpt>
      <trkpt lat="45.25647" lon="5.71032">
        <ele>530.9</ele>
        <time>2021-08-24T16:19:37Z</time>
      </trkpt>
      <trkpt lat="45.25646" lon="5.71024">
        <ele>531</ele>
        <time>2021-08-24T16:19:38Z</time>
      </trkpt>
      <trkpt lat="45.25644" lon="5.71018">
        <ele>531</ele>
        <time>2021-08-24T16:19:40Z</time>
      </trkpt>
      <trkpt lat="45.25643" lon="5.71014">
        <ele>531</ele>
        <time>2021-08-24T16:19:41Z</time>
      </trkpt>
      <trkpt lat="45.25641" lon="5.71005">
        <ele>531.1</ele>
        <time>2021-08-24T16:19:43Z</time>
      </trkpt>
      <trkpt lat="45.2564" lon="5.71">
        <ele>531.1</ele>
        <time>2021-08-24T16:19:44Z</time>
      </trkpt>
      <trkpt lat="45.2564" lon="5.70995">
        <ele>531.1</ele>
        <time>2021-08-24T16:19:45Z</time>
      </trkpt>
      <trkpt lat="45.25641" lon="5.70988">
        <ele>531</ele>
        <time>2021-08-24T16:19:46Z</time>
      </trkpt>
      <trkpt lat="45.25642" lon="5.70982">
        <ele>531</ele>
        <time>2021-08-24T16:19:47Z</time>
      </trkpt>
      <trkpt lat="45.25643" lon="5.70972">
        <ele>531</ele>
        <time>2021-08-24T16:19:49Z</time>
      </trkpt>
      <trkpt lat="45.25645" lon="5.70963">
        <ele>530.9</ele>
        <time>2021-08-24T16:19:50Z</time>
      </trkpt>
      <trkpt lat="45.25646" lon="5.70957">
        <ele>530.9</ele>
        <time>2021-08-24T16:19:51Z</time>
      </trkpt>
      <trkpt lat="45.25648" lon="5.70949">
        <ele>530.9</ele>
        <time>2021-08-24T16:19:53Z</time>
      </trkpt>
      <trkpt lat="45.25649" lon="5.70942">
        <ele>530.9</ele>
        <time>2021-08-24T16:19:54Z</time>
      </trkpt>
      <trkpt lat="45.25652" lon="5.70932">
        <ele>531</ele>
        <time>2021-08-24T16:19:56Z</time>
      </trkpt>
      <trkpt lat="45.25654" lon="5.70924">
        <ele>531</ele>
        <time>2021-08-24T16:19:57Z</time>
      </trkpt>
      <trkpt lat="45.25656" lon="5.70918">
        <ele>531.1</ele>
        <time>2021-08-24T16:19:58Z</time>
      </trkpt>
      <trkpt lat="45.25658" lon="5.70913">
        <ele>531.1</ele>
        <time>2021-08-24T16:19:59Z</time>
      </trkpt>
      <trkpt lat="45.25661" lon="5.70902">
        <ele>531.2</ele>
        <time>2021-08-24T16:20:01Z</time>
      </trkpt>
      <trkpt lat="45.25662" lon="5.70897">
        <ele>531.2</ele>
        <time>2021-08-24T16:20:02Z</time>
      </trkpt>
      <trkpt lat="45.25663" lon="5.70892">
        <ele>531.2</ele>
        <time>2021-08-24T16:20:03Z</time>
      </trkpt>
      <trkpt lat="45.25668" lon="5.70885">
        <ele>531.3</ele>
        <time>2021-08-24T16:20:05Z</time>
      </trkpt>
      <trkpt lat="45.2567" lon="5.70882">
        <ele>531.3</ele>
        <time>2021-08-24T16:20:06Z</time>
      </trkpt>
      <trkpt lat="45.25675" lon="5.70875">
        <ele>531.4</ele>
        <time>2021-08-24T16:20:08Z</time>
      </trkpt>
      <trkpt lat="45.25679" lon="5.70868">
        <ele>531.5</ele>
        <time>2021-08-24T16:20:10Z</time>
      </trkpt>
      <trkpt lat="45.25681" lon="5.70864">
        <ele>531.5</ele>
        <time>2021-08-24T16:20:11Z</time>
      </trkpt>
      <trkpt lat="45.25684" lon="5.70858">
        <ele>531.5</ele>
        <time>2021-08-24T16:20:12Z</time>
      </trkpt>
      <trkpt lat="45.25685" lon="5.70851">
        <ele>531.6</ele>
        <time>2021-08-24T16:20:14Z</time>
      </trkpt>
      <trkpt lat="45.25688" lon="5.7084">
        <ele>531.6</ele>
        <time>2021-08-24T16:20:16Z</time>
      </trkpt>
      <trkpt lat="45.2569" lon="5.70835">
        <ele>531.6</ele>
        <time>2021-08-24T16:20:17Z</time>
      </trkpt>
      <trkpt lat="45.25693" lon="5.70824">
        <ele>531.7</ele>
        <time>2021-08-24T16:20:19Z</time>
      </trkpt>
      <trkpt lat="45.25696" lon="5.70816">
        <ele>531.7</ele>
        <time>2021-08-24T16:20:20Z</time>
      </trkpt>
      <trkpt lat="45.257" lon="5.70809">
        <ele>531.7</ele>
        <time>2021-08-24T16:20:22Z</time>
      </trkpt>
      <trkpt lat="45.25704" lon="5.70804">
        <ele>531.7</ele>
        <time>2021-08-24T16:20:23Z</time>
      </trkpt>
      <trkpt lat="45.25707" lon="5.708">
        <ele>531.7</ele>
        <time>2021-08-24T16:20:24Z</time>
      </trkpt>
      <trkpt lat="45.25712" lon="5.70792">
        <ele>531.8</ele>
        <time>2021-08-24T16:20:26Z</time>
      </trkpt>
      <trkpt lat="45.25719" lon="5.70784">
        <ele>531.8</ele>
        <time>2021-08-24T16:20:28Z</time>
      </trkpt>
      <trkpt lat="45.25722" lon="5.70781">
        <ele>531.8</ele>
        <time>2021-08-24T16:20:29Z</time>
      </trkpt>
      <trkpt lat="45.25725" lon="5.70779">
        <ele>531.8</ele>
        <time>2021-08-24T16:20:30Z</time>
      </trkpt>
      <trkpt lat="45.25731" lon="5.70776">
        <ele>531.7</ele>
        <time>2021-08-24T16:20:32Z</time>
      </trkpt>
      <trkpt lat="45.25735" lon="5.70776">
        <ele>531.7</ele>
        <time>2021-08-24T16:20:33Z</time>
      </trkpt>
      <trkpt lat="45.25743" lon="5.70777">
        <ele>531.5</ele>
        <time>2021-08-24T16:20:35Z</time>
      </trkpt>
      <trkpt lat="45.25749" lon="5.7078">
        <ele>531.3</ele>
        <time>2021-08-24T16:20:36Z</time>
      </trkpt>
      <trkpt lat="45.25756" lon="5.70783">
        <ele>530.9</ele>
        <time>2021-08-24T16:20:38Z</time>
      </trkpt>
      <trkpt lat="45.25761" lon="5.70785">
        <ele>530.8</ele>
        <time>2021-08-24T16:20:39Z</time>
      </trkpt>
      <trkpt lat="45.25765" lon="5.70789">
        <ele>530.4</ele>
        <time>2021-08-24T16:20:40Z</time>
      </trkpt>
      <trkpt lat="45.25773" lon="5.708">
        <ele>529.6</ele>
        <time>2021-08-24T16:20:42Z</time>
      </trkpt>
      <trkpt lat="45.2578" lon="5.70809">
        <ele>528.8</ele>
        <time>2021-08-24T16:20:44Z</time>
      </trkpt>
      <trkpt lat="45.25784" lon="5.70814">
        <ele>528.3</ele>
        <time>2021-08-24T16:20:45Z</time>
      </trkpt>
      <trkpt lat="45.25788" lon="5.70817">
        <ele>527.9</ele>
        <time>2021-08-24T16:20:46Z</time>
      </trkpt>
      <trkpt lat="45.25792" lon="5.70819">
        <ele>527.5</ele>
        <time>2021-08-24T16:20:48Z</time>
      </trkpt>
      <trkpt lat="45.25796" lon="5.70818">
        <ele>527.2</ele>
        <time>2021-08-24T16:20:49Z</time>
      </trkpt>
      <trkpt lat="45.258" lon="5.70818">
        <ele>526.7</ele>
        <time>2021-08-24T16:20:50Z</time>
      </trkpt>
      <trkpt lat="45.25805" lon="5.70815">
        <ele>526.9</ele>
        <time>2021-08-24T16:20:52Z</time>
      </trkpt>
      <trkpt lat="45.25809" lon="5.70805">
        <ele>527.4</ele>
        <time>2021-08-24T16:20:53Z</time>
      </trkpt>
      <trkpt lat="45.25811" lon="5.70794">
        <ele>528.1</ele>
        <time>2021-08-24T16:20:55Z</time>
      </trkpt>
      <trkpt lat="45.25814" lon="5.70783">
        <ele>528.8</ele>
        <time>2021-08-24T16:20:56Z</time>
      </trkpt>
      <trkpt lat="45.25815" lon="5.70767">
        <ele>530</ele>
        <time>2021-08-24T16:20:58Z</time>
      </trkpt>
      <trkpt lat="45.25817" lon="5.70759">
        <ele>530.7</ele>
        <time>2021-08-24T16:21:00Z</time>
      </trkpt>
      <trkpt lat="45.25818" lon="5.70754">
        <ele>531.1</ele>
        <time>2021-08-24T16:21:01Z</time>
      </trkpt>
      <trkpt lat="45.25818" lon="5.7075">
        <ele>531.4</ele>
        <time>2021-08-24T16:21:02Z</time>
      </trkpt>
      <trkpt lat="45.25819" lon="5.70742">
        <ele>532.1</ele>
        <time>2021-08-24T16:21:04Z</time>
      </trkpt>
      <trkpt lat="45.25819" lon="5.70739">
        <ele>532.4</ele>
        <time>2021-08-24T16:21:05Z</time>
      </trkpt>
      <trkpt lat="45.25819" lon="5.70735">
        <ele>532.7</ele>
        <time>2021-08-24T16:21:07Z</time>
      </trkpt>
      <trkpt lat="45.2582" lon="5.70731">
        <ele>533.1</ele>
        <time>2021-08-24T16:21:09Z</time>
      </trkpt>
      <trkpt lat="45.2582" lon="5.70727">
        <ele>533.4</ele>
        <time>2021-08-24T16:21:10Z</time>
      </trkpt>
      <trkpt lat="45.25822" lon="5.70723">
        <ele>533.9</ele>
        <time>2021-08-24T16:21:11Z</time>
      </trkpt>
      <trkpt lat="45.25823" lon="5.7072">
        <ele>534.1</ele>
        <time>2021-08-24T16:21:12Z</time>
      </trkpt>
      <trkpt lat="45.25824" lon="5.70717">
        <ele>534.4</ele>
        <time>2021-08-24T16:21:14Z</time>
      </trkpt>
      <trkpt lat="45.25826" lon="5.70711">
        <ele>535</ele>
        <time>2021-08-24T16:21:16Z</time>
      </trkpt>
      <trkpt lat="45.25827" lon="5.70706">
        <ele>535.4</ele>
        <time>2021-08-24T16:21:17Z</time>
      </trkpt>
      <trkpt lat="45.25827" lon="5.70704">
        <ele>535.6</ele>
        <time>2021-08-24T16:21:18Z</time>
      </trkpt>
      <trkpt lat="45.25827" lon="5.70699">
        <ele>536</ele>
        <time>2021-08-24T16:21:19Z</time>
      </trkpt>
      <trkpt lat="45.25827" lon="5.70697">
        <ele>536.2</ele>
        <time>2021-08-24T16:21:20Z</time>
      </trkpt>
      <trkpt lat="45.25828" lon="5.70692">
        <ele>536.5</ele>
        <time>2021-08-24T16:21:21Z</time>
      </trkpt>
      <trkpt lat="45.25828" lon="5.70691">
        <ele>536.6</ele>
        <time>2021-08-24T16:21:22Z</time>
      </trkpt>
      <trkpt lat="45.25828" lon="5.70686">
        <ele>536.9</ele>
        <time>2021-08-24T16:21:23Z</time>
      </trkpt>
      <trkpt lat="45.25828" lon="5.70685">
        <ele>537</ele>
        <time>2021-08-24T16:21:24Z</time>
      </trkpt>
      <trkpt lat="45.25827" lon="5.70681">
        <ele>537.3</ele>
        <time>2021-08-24T16:21:25Z</time>
      </trkpt>
      <trkpt lat="45.25827" lon="5.70679">
        <ele>537.4</ele>
        <time>2021-08-24T16:21:26Z</time>
      </trkpt>
      <trkpt lat="45.25827" lon="5.70677">
        <ele>537.6</ele>
        <time>2021-08-24T16:21:27Z</time>
      </trkpt>
      <trkpt lat="45.25827" lon="5.70674">
        <ele>537.7</ele>
        <time>2021-08-24T16:21:29Z</time>
      </trkpt>
      <trkpt lat="45.25826" lon="5.70671">
        <ele>537.9</ele>
        <time>2021-08-24T16:21:30Z</time>
      </trkpt>
      <trkpt lat="45.25826" lon="5.70667">
        <ele>538.1</ele>
        <time>2021-08-24T16:21:32Z</time>
      </trkpt>
      <trkpt lat="45.25826" lon="5.7066">
        <ele>538.1</ele>
        <time>2021-08-24T16:21:34Z</time>
      </trkpt>
      <trkpt lat="45.25826" lon="5.70656">
        <ele>538.1</ele>
        <time>2021-08-24T16:21:35Z</time>
      </trkpt>
      <trkpt lat="45.25827" lon="5.70652">
        <ele>538.1</ele>
        <time>2021-08-24T16:21:36Z</time>
      </trkpt>
      <trkpt lat="45.25829" lon="5.70646">
        <ele>538</ele>
        <time>2021-08-24T16:21:37Z</time>
      </trkpt>
      <trkpt lat="45.25833" lon="5.7064">
        <ele>537.9</ele>
        <time>2021-08-24T16:21:39Z</time>
      </trkpt>
      <trkpt lat="45.25837" lon="5.7063">
        <ele>537.6</ele>
        <time>2021-08-24T16:21:41Z</time>
      </trkpt>
      <trkpt lat="45.2584" lon="5.70623">
        <ele>537.2</ele>
        <time>2021-08-24T16:21:42Z</time>
      </trkpt>
      <trkpt lat="45.25842" lon="5.70617">
        <ele>536.5</ele>
        <time>2021-08-24T16:21:43Z</time>
      </trkpt>
      <trkpt lat="45.25845" lon="5.70608">
        <ele>535.4</ele>
        <time>2021-08-24T16:21:44Z</time>
      </trkpt>
      <trkpt lat="45.2585" lon="5.70593">
        <ele>533.5</ele>
        <time>2021-08-24T16:21:46Z</time>
      </trkpt>
      <trkpt lat="45.25853" lon="5.70586">
        <ele>532.4</ele>
        <time>2021-08-24T16:21:47Z</time>
      </trkpt>
      <trkpt lat="45.25858" lon="5.70571">
        <ele>530</ele>
        <time>2021-08-24T16:21:49Z</time>
      </trkpt>
      <trkpt lat="45.25863" lon="5.70555">
        <ele>527.5</ele>
        <time>2021-08-24T16:21:51Z</time>
      </trkpt>
      <trkpt lat="45.25867" lon="5.7054">
        <ele>525.1</ele>
        <time>2021-08-24T16:21:53Z</time>
      </trkpt>
      <trkpt lat="45.2587" lon="5.70528">
        <ele>523.3</ele>
        <time>2021-08-24T16:21:55Z</time>
      </trkpt>
      <trkpt lat="45.25871" lon="5.70523">
        <ele>522.5</ele>
        <time>2021-08-24T16:21:56Z</time>
      </trkpt>
      <trkpt lat="45.25873" lon="5.70515">
        <ele>521.5</ele>
        <time>2021-08-24T16:21:58Z</time>
      </trkpt>
      <trkpt lat="45.25874" lon="5.70512">
        <ele>521.5</ele>
        <time>2021-08-24T16:22:00Z</time>
      </trkpt>
      <trkpt lat="45.25875" lon="5.70514">
        <ele>521.5</ele>
        <time>2021-08-24T16:22:01Z</time>
      </trkpt>
      <trkpt lat="45.25875" lon="5.70515">
        <ele>521.5</ele>
        <time>2021-08-24T16:22:02Z</time>
      </trkpt>
      <trkpt lat="45.25874" lon="5.70515">
        <ele>521.5</ele>
        <time>2021-08-24T16:22:03Z</time>
      </trkpt>
      <trkpt lat="45.25874" lon="5.70515">
        <ele>521.5</ele>
        <time>2021-08-24T16:22:05Z</time>
      </trkpt>
      <trkpt lat="45.25874" lon="5.70516">
        <ele>521.5</ele>
        <time>2021-08-24T16:22:06Z</time>
      </trkpt>
      <trkpt lat="45.25874" lon="5.70516">
        <ele>521.5</ele>
        <time>2021-08-24T16:22:08Z</time>
      </trkpt>
      <trkpt lat="45.18048" lon="5.70527">
        <ele>220.2</ele>
        <time>2021-08-30T08:13:54Z</time>
      </trkpt>
      <trkpt lat="45.18048" lon="5.70527">
        <ele>220.2</ele>
        <time>2021-08-30T08:13:54Z</time>
      </trkpt>
      <trkpt lat="45.18042" lon="5.70525">
        <ele>220.6</ele>
        <time>2021-08-30T08:13:56Z</time>
      </trkpt>
      <trkpt lat="45.18039" lon="5.70526">
        <ele>220.9</ele>
        <time>2021-08-30T08:13:57Z</time>
      </trkpt>
      <trkpt lat="45.18035" lon="5.70527">
        <ele>221.2</ele>
        <time>2021-08-30T08:13:58Z</time>
      </trkpt>
      <trkpt lat="45.18032" lon="5.70527">
        <ele>221.4</ele>
        <time>2021-08-30T08:14:00Z</time>
      </trkpt>
      <trkpt lat="45.18029" lon="5.70526">
        <ele>221.6</ele>
        <time>2021-08-30T08:14:01Z</time>
      </trkpt>
      <trkpt lat="45.18027" lon="5.70525">
        <ele>221.8</ele>
        <time>2021-08-30T08:14:02Z</time>
      </trkpt>
      <trkpt lat="45.18024" lon="5.70524">
        <ele>221.8</ele>
        <time>2021-08-30T08:14:04Z</time>
      </trkpt>
      <trkpt lat="45.18021" lon="5.70521">
        <ele>221.9</ele>
        <time>2021-08-30T08:14:05Z</time>
      </trkpt>
      <trkpt lat="45.18017" lon="5.70518">
        <ele>222</ele>
        <time>2021-08-30T08:14:07Z</time>
      </trkpt>
      <trkpt lat="45.18016" lon="5.70516">
        <ele>222</ele>
        <time>2021-08-30T08:14:08Z</time>
      </trkpt>
      <trkpt lat="45.18015" lon="5.70515">
        <ele>222</ele>
        <time>2021-08-30T08:14:09Z</time>
      </trkpt>
      <trkpt lat="45.18013" lon="5.70509">
        <ele>222.1</ele>
        <time>2021-08-30T08:14:10Z</time>
      </trkpt>
      <trkpt lat="45.18013" lon="5.70507">
        <ele>222.1</ele>
        <time>2021-08-30T08:14:11Z</time>
      </trkpt>
      <trkpt lat="45.18015" lon="5.70503">
        <ele>222.1</ele>
        <time>2021-08-30T08:14:13Z</time>
      </trkpt>
      <trkpt lat="45.18016" lon="5.70503">
        <ele>222.1</ele>
        <time>2021-08-30T08:14:14Z</time>
      </trkpt>
      <trkpt lat="45.18017" lon="5.70498">
        <ele>222.2</ele>
        <time>2021-08-30T08:14:15Z</time>
      </trkpt>
      <trkpt lat="45.18018" lon="5.70494">
        <ele>222.2</ele>
        <time>2021-08-30T08:14:16Z</time>
      </trkpt>
      <trkpt lat="45.18018" lon="5.7049">
        <ele>222.3</ele>
        <time>2021-08-30T08:14:18Z</time>
      </trkpt>
      <trkpt lat="45.18017" lon="5.70485">
        <ele>222.4</ele>
        <time>2021-08-30T08:14:19Z</time>
      </trkpt>
      <trkpt lat="45.18017" lon="5.70476">
        <ele>222.5</ele>
        <time>2021-08-30T08:14:20Z</time>
      </trkpt>
      <trkpt lat="45.18016" lon="5.70467">
        <ele>222.7</ele>
        <time>2021-08-30T08:14:22Z</time>
      </trkpt>
      <trkpt lat="45.18015" lon="5.70456">
        <ele>223</ele>
        <time>2021-08-30T08:14:23Z</time>
      </trkpt>
      <trkpt lat="45.18015" lon="5.70447">
        <ele>223.2</ele>
        <time>2021-08-30T08:14:24Z</time>
      </trkpt>
      <trkpt lat="45.18014" lon="5.70438">
        <ele>223.4</ele>
        <time>2021-08-30T08:14:26Z</time>
      </trkpt>
      <trkpt lat="45.18013" lon="5.70426">
        <ele>223.7</ele>
        <time>2021-08-30T08:14:27Z</time>
      </trkpt>
      <trkpt lat="45.18013" lon="5.70412">
        <ele>224.1</ele>
        <time>2021-08-30T08:14:29Z</time>
      </trkpt>
      <trkpt lat="45.18012" lon="5.704">
        <ele>224.5</ele>
        <time>2021-08-30T08:14:31Z</time>
      </trkpt>
      <trkpt lat="45.18011" lon="5.70393">
        <ele>224.7</ele>
        <time>2021-08-30T08:14:32Z</time>
      </trkpt>
      <trkpt lat="45.18012" lon="5.70385">
        <ele>225</ele>
        <time>2021-08-30T08:14:34Z</time>
      </trkpt>
      <trkpt lat="45.18013" lon="5.70374">
        <ele>225.2</ele>
        <time>2021-08-30T08:14:35Z</time>
      </trkpt>
      <trkpt lat="45.18014" lon="5.70367">
        <ele>225.4</ele>
        <time>2021-08-30T08:14:36Z</time>
      </trkpt>
      <trkpt lat="45.18015" lon="5.70358">
        <ele>225.6</ele>
        <time>2021-08-30T08:14:38Z</time>
      </trkpt>
      <trkpt lat="45.18016" lon="5.7035">
        <ele>225.8</ele>
        <time>2021-08-30T08:14:39Z</time>
      </trkpt>
      <trkpt lat="45.18015" lon="5.70341">
        <ele>226</ele>
        <time>2021-08-30T08:14:40Z</time>
      </trkpt>
      <trkpt lat="45.18015" lon="5.70334">
        <ele>226.1</ele>
        <time>2021-08-30T08:14:41Z</time>
      </trkpt>
      <trkpt lat="45.18015" lon="5.70327">
        <ele>226.3</ele>
        <time>2021-08-30T08:14:42Z</time>
      </trkpt>
      <trkpt lat="45.18015" lon="5.7032">
        <ele>226.4</ele>
        <time>2021-08-30T08:14:43Z</time>
      </trkpt>
      <trkpt lat="45.18016" lon="5.7031">
        <ele>226.7</ele>
        <time>2021-08-30T08:14:46Z</time>
      </trkpt>
      <trkpt lat="45.18016" lon="5.70304">
        <ele>226.8</ele>
        <time>2021-08-30T08:14:47Z</time>
      </trkpt>
      <trkpt lat="45.18016" lon="5.70296">
        <ele>227</ele>
        <time>2021-08-30T08:14:49Z</time>
      </trkpt>
      <trkpt lat="45.18016" lon="5.70292">
        <ele>227.1</ele>
        <time>2021-08-30T08:14:50Z</time>
      </trkpt>
      <trkpt lat="45.18016" lon="5.70285">
        <ele>227.3</ele>
        <time>2021-08-30T08:14:51Z</time>
      </trkpt>
      <trkpt lat="45.18016" lon="5.70279">
        <ele>227.5</ele>
        <time>2021-08-30T08:14:53Z</time>
      </trkpt>
      <trkpt lat="45.18016" lon="5.70274">
        <ele>227.6</ele>
        <time>2021-08-30T08:14:54Z</time>
      </trkpt>
      <trkpt lat="45.18015" lon="5.7027">
        <ele>227.7</ele>
        <time>2021-08-30T08:14:55Z</time>
      </trkpt>
      <trkpt lat="45.18015" lon="5.70266">
        <ele>227.9</ele>
        <time>2021-08-30T08:14:56Z</time>
      </trkpt>
      <trkpt lat="45.18015" lon="5.70258">
        <ele>228.1</ele>
        <time>2021-08-30T08:14:57Z</time>
      </trkpt>
      <trkpt lat="45.18014" lon="5.70252">
        <ele>228.3</ele>
        <time>2021-08-30T08:14:59Z</time>
      </trkpt>
      <trkpt lat="45.18014" lon="5.70247">
        <ele>228.4</ele>
        <time>2021-08-30T08:15:00Z</time>
      </trkpt>
      <trkpt lat="45.18014" lon="5.7024">
        <ele>228.6</ele>
        <time>2021-08-30T08:15:01Z</time>
      </trkpt>
      <trkpt lat="45.18014" lon="5.70234">
        <ele>228.7</ele>
        <time>2021-08-30T08:15:03Z</time>
      </trkpt>
      <trkpt lat="45.18015" lon="5.70226">
        <ele>228.9</ele>
        <time>2021-08-30T08:15:04Z</time>
      </trkpt>
      <trkpt lat="45.18016" lon="5.7022">
        <ele>229.1</ele>
        <time>2021-08-30T08:15:06Z</time>
      </trkpt>
      <trkpt lat="45.18016" lon="5.70215">
        <ele>229.2</ele>
        <time>2021-08-30T08:15:07Z</time>
      </trkpt>
      <trkpt lat="45.18017" lon="5.70208">
        <ele>229.4</ele>
        <time>2021-08-30T08:15:08Z</time>
      </trkpt>
      <trkpt lat="45.18017" lon="5.70201">
        <ele>229.5</ele>
        <time>2021-08-30T08:15:10Z</time>
      </trkpt>
      <trkpt lat="45.18018" lon="5.70195">
        <ele>229.5</ele>
        <time>2021-08-30T08:15:11Z</time>
      </trkpt>
      <trkpt lat="45.18019" lon="5.70183">
        <ele>229.6</ele>
        <time>2021-08-30T08:15:13Z</time>
      </trkpt>
      <trkpt lat="45.18019" lon="5.70172">
        <ele>229.7</ele>
        <time>2021-08-30T08:15:15Z</time>
      </trkpt>
      <trkpt lat="45.18019" lon="5.70166">
        <ele>229.7</ele>
        <time>2021-08-30T08:15:16Z</time>
      </trkpt>
      <trkpt lat="45.18019" lon="5.70162">
        <ele>229.7</ele>
        <time>2021-08-30T08:15:17Z</time>
      </trkpt>
      <trkpt lat="45.1802" lon="5.70155">
        <ele>229.8</ele>
        <time>2021-08-30T08:15:18Z</time>
      </trkpt>
      <trkpt lat="45.18019" lon="5.7015">
        <ele>229.8</ele>
        <time>2021-08-30T08:15:19Z</time>
      </trkpt>
      <trkpt lat="45.18019" lon="5.70144">
        <ele>229.8</ele>
        <time>2021-08-30T08:15:21Z</time>
      </trkpt>
      <trkpt lat="45.18018" lon="5.70137">
        <ele>229.8</ele>
        <time>2021-08-30T08:15:22Z</time>
      </trkpt>
      <trkpt lat="45.18018" lon="5.70132">
        <ele>229.8</ele>
        <time>2021-08-30T08:15:23Z</time>
      </trkpt>
      <trkpt lat="45.18018" lon="5.70127">
        <ele>229.8</ele>
        <time>2021-08-30T08:15:24Z</time>
      </trkpt>
      <trkpt lat="45.18018" lon="5.70122">
        <ele>229.8</ele>
        <time>2021-08-30T08:15:25Z</time>
      </trkpt>
      <trkpt lat="45.18018" lon="5.70116">
        <ele>229.8</ele>
        <time>2021-08-30T08:15:27Z</time>
      </trkpt>
      <trkpt lat="45.18018" lon="5.7011">
        <ele>229.9</ele>
        <time>2021-08-30T08:15:28Z</time>
      </trkpt>
      <trkpt lat="45.18019" lon="5.70103">
        <ele>229.9</ele>
        <time>2021-08-30T08:15:29Z</time>
      </trkpt>
      <trkpt lat="45.18018" lon="5.70096">
        <ele>229.9</ele>
        <time>2021-08-30T08:15:31Z</time>
      </trkpt>
      <trkpt lat="45.18019" lon="5.70091">
        <ele>229.8</ele>
        <time>2021-08-30T08:15:32Z</time>
      </trkpt>
      <trkpt lat="45.18019" lon="5.70081">
        <ele>229.8</ele>
        <time>2021-08-30T08:15:33Z</time>
      </trkpt>
      <trkpt lat="45.18019" lon="5.70074">
        <ele>229.7</ele>
        <time>2021-08-30T08:15:34Z</time>
      </trkpt>
      <trkpt lat="45.18018" lon="5.70067">
        <ele>229.6</ele>
        <time>2021-08-30T08:15:36Z</time>
      </trkpt>
      <trkpt lat="45.18018" lon="5.70055">
        <ele>229.5</ele>
        <time>2021-08-30T08:15:38Z</time>
      </trkpt>
      <trkpt lat="45.18018" lon="5.70047">
        <ele>229.4</ele>
        <time>2021-08-30T08:15:39Z</time>
      </trkpt>
      <trkpt lat="45.18018" lon="5.70035">
        <ele>229.2</ele>
        <time>2021-08-30T08:15:41Z</time>
      </trkpt>
      <trkpt lat="45.18017" lon="5.70022">
        <ele>229</ele>
        <time>2021-08-30T08:15:42Z</time>
      </trkpt>
      <trkpt lat="45.18017" lon="5.70014">
        <ele>228.9</ele>
        <time>2021-08-30T08:15:44Z</time>
      </trkpt>
      <trkpt lat="45.18018" lon="5.70001">
        <ele>228.6</ele>
        <time>2021-08-30T08:15:45Z</time>
      </trkpt>
      <trkpt lat="45.18019" lon="5.69989">
        <ele>228.4</ele>
        <time>2021-08-30T08:15:47Z</time>
      </trkpt>
      <trkpt lat="45.18019" lon="5.69982">
        <ele>228.2</ele>
        <time>2021-08-30T08:15:48Z</time>
      </trkpt>
      <trkpt lat="45.18019" lon="5.69966">
        <ele>227.8</ele>
        <time>2021-08-30T08:15:50Z</time>
      </trkpt>
      <trkpt lat="45.18019" lon="5.6995">
        <ele>227.3</ele>
        <time>2021-08-30T08:15:52Z</time>
      </trkpt>
      <trkpt lat="45.18019" lon="5.69933">
        <ele>226.7</ele>
        <time>2021-08-30T08:15:54Z</time>
      </trkpt>
      <trkpt lat="45.1802" lon="5.69925">
        <ele>226.3</ele>
        <time>2021-08-30T08:15:55Z</time>
      </trkpt>
      <trkpt lat="45.18022" lon="5.69907">
        <ele>225.5</ele>
        <time>2021-08-30T08:15:57Z</time>
      </trkpt>
      <trkpt lat="45.18024" lon="5.69898">
        <ele>225</ele>
        <time>2021-08-30T08:15:58Z</time>
      </trkpt>
      <trkpt lat="45.18026" lon="5.69887">
        <ele>224.5</ele>
        <time>2021-08-30T08:15:59Z</time>
      </trkpt>
      <trkpt lat="45.18027" lon="5.69875">
        <ele>223.9</ele>
        <time>2021-08-30T08:16:00Z</time>
      </trkpt>
      <trkpt lat="45.18029" lon="5.69864">
        <ele>223.3</ele>
        <time>2021-08-30T08:16:01Z</time>
      </trkpt>
      <trkpt lat="45.18031" lon="5.69852">
        <ele>222.8</ele>
        <time>2021-08-30T08:16:02Z</time>
      </trkpt>
      <trkpt lat="45.18034" lon="5.69831">
        <ele>222</ele>
        <time>2021-08-30T08:16:04Z</time>
      </trkpt>
      <trkpt lat="45.18035" lon="5.69821">
        <ele>221.7</ele>
        <time>2021-08-30T08:16:05Z</time>
      </trkpt>
      <trkpt lat="45.18037" lon="5.69803">
        <ele>221.1</ele>
        <time>2021-08-30T08:16:07Z</time>
      </trkpt>
      <trkpt lat="45.18039" lon="5.69786">
        <ele>221.1</ele>
        <time>2021-08-30T08:16:09Z</time>
      </trkpt>
      <trkpt lat="45.1804" lon="5.69771">
        <ele>221.1</ele>
        <time>2021-08-30T08:16:11Z</time>
      </trkpt>
      <trkpt lat="45.1804" lon="5.69764">
        <ele>221</ele>
        <time>2021-08-30T08:16:12Z</time>
      </trkpt>
      <trkpt lat="45.1804" lon="5.6975">
        <ele>220.9</ele>
        <time>2021-08-30T08:16:14Z</time>
      </trkpt>
      <trkpt lat="45.18039" lon="5.69738">
        <ele>220.7</ele>
        <time>2021-08-30T08:16:16Z</time>
      </trkpt>
      <trkpt lat="45.18037" lon="5.69727">
        <ele>220.7</ele>
        <time>2021-08-30T08:16:18Z</time>
      </trkpt>
      <trkpt lat="45.18036" lon="5.69715">
        <ele>220.6</ele>
        <time>2021-08-30T08:16:20Z</time>
      </trkpt>
      <trkpt lat="45.18035" lon="5.69706">
        <ele>220.6</ele>
        <time>2021-08-30T08:16:22Z</time>
      </trkpt>
      <trkpt lat="45.18034" lon="5.69701">
        <ele>220.6</ele>
        <time>2021-08-30T08:16:23Z</time>
      </trkpt>
      <trkpt lat="45.18035" lon="5.69694">
        <ele>220.7</ele>
        <time>2021-08-30T08:16:24Z</time>
      </trkpt>
      <trkpt lat="45.18038" lon="5.69693">
        <ele>220.7</ele>
        <time>2021-08-30T08:16:25Z</time>
      </trkpt>
      <trkpt lat="45.18038" lon="5.69686">
        <ele>220.7</ele>
        <time>2021-08-30T08:16:26Z</time>
      </trkpt>
      <trkpt lat="45.18036" lon="5.69677">
        <ele>220.7</ele>
        <time>2021-08-30T08:16:27Z</time>
      </trkpt>
      <trkpt lat="45.18035" lon="5.6967">
        <ele>220.7</ele>
        <time>2021-08-30T08:16:29Z</time>
      </trkpt>
      <trkpt lat="45.18033" lon="5.69661">
        <ele>220.8</ele>
        <time>2021-08-30T08:16:30Z</time>
      </trkpt>
      <trkpt lat="45.18032" lon="5.69649">
        <ele>220.8</ele>
        <time>2021-08-30T08:16:32Z</time>
      </trkpt>
      <trkpt lat="45.18032" lon="5.69644">
        <ele>220.8</ele>
        <time>2021-08-30T08:16:33Z</time>
      </trkpt>
      <trkpt lat="45.18033" lon="5.69638">
        <ele>220.8</ele>
        <time>2021-08-30T08:16:34Z</time>
      </trkpt>
      <trkpt lat="45.18033" lon="5.69632">
        <ele>220.8</ele>
        <time>2021-08-30T08:16:35Z</time>
      </trkpt>
      <trkpt lat="45.18034" lon="5.69626">
        <ele>220.8</ele>
        <time>2021-08-30T08:16:36Z</time>
      </trkpt>
      <trkpt lat="45.18035" lon="5.69621">
        <ele>220.8</ele>
        <time>2021-08-30T08:16:37Z</time>
      </trkpt>
      <trkpt lat="45.18036" lon="5.69616">
        <ele>220.8</ele>
        <time>2021-08-30T08:16:38Z</time>
      </trkpt>
      <trkpt lat="45.18036" lon="5.6961">
        <ele>220.8</ele>
        <time>2021-08-30T08:16:40Z</time>
      </trkpt>
      <trkpt lat="45.18036" lon="5.69603">
        <ele>220.8</ele>
        <time>2021-08-30T08:16:41Z</time>
      </trkpt>
      <trkpt lat="45.18037" lon="5.69597">
        <ele>220.8</ele>
        <time>2021-08-30T08:16:43Z</time>
      </trkpt>
      <trkpt lat="45.18039" lon="5.69591">
        <ele>220.8</ele>
        <time>2021-08-30T08:16:44Z</time>
      </trkpt>
      <trkpt lat="45.1804" lon="5.69585">
        <ele>220.8</ele>
        <time>2021-08-30T08:16:46Z</time>
      </trkpt>
      <trkpt lat="45.1804" lon="5.69578">
        <ele>220.8</ele>
        <time>2021-08-30T08:16:47Z</time>
      </trkpt>
      <trkpt lat="45.1804" lon="5.69572">
        <ele>220.8</ele>
        <time>2021-08-30T08:16:49Z</time>
      </trkpt>
      <trkpt lat="45.1804" lon="5.69567">
        <ele>220.8</ele>
        <time>2021-08-30T08:16:50Z</time>
      </trkpt>
      <trkpt lat="45.1804" lon="5.69562">
        <ele>220.8</ele>
        <time>2021-08-30T08:16:51Z</time>
      </trkpt>
      <trkpt lat="45.1804" lon="5.69557">
        <ele>220.8</ele>
        <time>2021-08-30T08:16:52Z</time>
      </trkpt>
      <trkpt lat="45.18041" lon="5.69551">
        <ele>220.8</ele>
        <time>2021-08-30T08:16:54Z</time>
      </trkpt>
      <trkpt lat="45.18042" lon="5.69543">
        <ele>220.8</ele>
        <time>2021-08-30T08:16:55Z</time>
      </trkpt>
      <trkpt lat="45.18042" lon="5.69539">
        <ele>220.8</ele>
        <time>2021-08-30T08:16:56Z</time>
      </trkpt>
      <trkpt lat="45.18043" lon="5.69533">
        <ele>220.8</ele>
        <time>2021-08-30T08:16:58Z</time>
      </trkpt>
      <trkpt lat="45.18043" lon="5.69526">
        <ele>220.8</ele>
        <time>2021-08-30T08:16:59Z</time>
      </trkpt>
      <trkpt lat="45.18043" lon="5.6952">
        <ele>220.7</ele>
        <time>2021-08-30T08:17:00Z</time>
      </trkpt>
      <trkpt lat="45.18044" lon="5.69514">
        <ele>220.7</ele>
        <time>2021-08-30T08:17:01Z</time>
      </trkpt>
      <trkpt lat="45.18046" lon="5.69508">
        <ele>220.7</ele>
        <time>2021-08-30T08:17:02Z</time>
      </trkpt>
      <trkpt lat="45.18047" lon="5.69501">
        <ele>220.7</ele>
        <time>2021-08-30T08:17:03Z</time>
      </trkpt>
      <trkpt lat="45.18047" lon="5.69494">
        <ele>220.7</ele>
        <time>2021-08-30T08:17:05Z</time>
      </trkpt>
      <trkpt lat="45.18048" lon="5.69485">
        <ele>220.6</ele>
        <time>2021-08-30T08:17:06Z</time>
      </trkpt>
      <trkpt lat="45.18048" lon="5.69478">
        <ele>220.6</ele>
        <time>2021-08-30T08:17:07Z</time>
      </trkpt>
      <trkpt lat="45.18048" lon="5.6947">
        <ele>220.6</ele>
        <time>2021-08-30T08:17:09Z</time>
      </trkpt>
      <trkpt lat="45.18047" lon="5.6946">
        <ele>220.6</ele>
        <time>2021-08-30T08:17:10Z</time>
      </trkpt>
      <trkpt lat="45.18047" lon="5.69451">
        <ele>220.5</ele>
        <time>2021-08-30T08:17:12Z</time>
      </trkpt>
      <trkpt lat="45.18048" lon="5.69446">
        <ele>220.5</ele>
        <time>2021-08-30T08:17:13Z</time>
      </trkpt>
      <trkpt lat="45.18049" lon="5.69441">
        <ele>220.5</ele>
        <time>2021-08-30T08:17:14Z</time>
      </trkpt>
      <trkpt lat="45.18051" lon="5.69435">
        <ele>220.4</ele>
        <time>2021-08-30T08:17:15Z</time>
      </trkpt>
      <trkpt lat="45.18053" lon="5.69428">
        <ele>220.4</ele>
        <time>2021-08-30T08:17:17Z</time>
      </trkpt>
      <trkpt lat="45.18056" lon="5.69423">
        <ele>220.3</ele>
        <time>2021-08-30T08:17:18Z</time>
      </trkpt>
      <trkpt lat="45.18058" lon="5.69419">
        <ele>220.3</ele>
        <time>2021-08-30T08:17:19Z</time>
      </trkpt>
      <trkpt lat="45.18061" lon="5.69414">
        <ele>220.2</ele>
        <time>2021-08-30T08:17:20Z</time>
      </trkpt>
      <trkpt lat="45.18063" lon="5.69409">
        <ele>220.2</ele>
        <time>2021-08-30T08:17:21Z</time>
      </trkpt>
      <trkpt lat="45.18064" lon="5.69403">
        <ele>220.1</ele>
        <time>2021-08-30T08:17:23Z</time>
      </trkpt>
      <trkpt lat="45.18063" lon="5.69395">
        <ele>220.1</ele>
        <time>2021-08-30T08:17:24Z</time>
      </trkpt>
      <trkpt lat="45.18062" lon="5.69388">
        <ele>220</ele>
        <time>2021-08-30T08:17:25Z</time>
      </trkpt>
      <trkpt lat="45.18063" lon="5.6938">
        <ele>220</ele>
        <time>2021-08-30T08:17:27Z</time>
      </trkpt>
      <trkpt lat="45.18065" lon="5.69375">
        <ele>219.9</ele>
        <time>2021-08-30T08:17:28Z</time>
      </trkpt>
      <trkpt lat="45.18066" lon="5.69369">
        <ele>219.8</ele>
        <time>2021-08-30T08:17:30Z</time>
      </trkpt>
      <trkpt lat="45.18067" lon="5.69365">
        <ele>219.8</ele>
        <time>2021-08-30T08:17:31Z</time>
      </trkpt>
      <trkpt lat="45.18069" lon="5.69361">
        <ele>219.8</ele>
        <time>2021-08-30T08:17:32Z</time>
      </trkpt>
      <trkpt lat="45.18071" lon="5.69353">
        <ele>219.7</ele>
        <time>2021-08-30T08:17:33Z</time>
      </trkpt>
      <trkpt lat="45.18074" lon="5.69348">
        <ele>219.7</ele>
        <time>2021-08-30T08:17:35Z</time>
      </trkpt>
      <trkpt lat="45.18075" lon="5.69342">
        <ele>219.6</ele>
        <time>2021-08-30T08:17:36Z</time>
      </trkpt>
      <trkpt lat="45.18077" lon="5.69337">
        <ele>219.6</ele>
        <time>2021-08-30T08:17:37Z</time>
      </trkpt>
      <trkpt lat="45.18078" lon="5.69331">
        <ele>219.5</ele>
        <time>2021-08-30T08:17:38Z</time>
      </trkpt>
      <trkpt lat="45.18081" lon="5.69324">
        <ele>219.5</ele>
        <time>2021-08-30T08:17:39Z</time>
      </trkpt>
      <trkpt lat="45.18083" lon="5.69319">
        <ele>219.4</ele>
        <time>2021-08-30T08:17:40Z</time>
      </trkpt>
      <trkpt lat="45.18087" lon="5.6931">
        <ele>219.4</ele>
        <time>2021-08-30T08:17:42Z</time>
      </trkpt>
      <trkpt lat="45.18095" lon="5.693">
        <ele>219.2</ele>
        <time>2021-08-30T08:17:44Z</time>
      </trkpt>
      <trkpt lat="45.18103" lon="5.69292">
        <ele>219.2</ele>
        <time>2021-08-30T08:17:46Z</time>
      </trkpt>
      <trkpt lat="45.18107" lon="5.69288">
        <ele>219.1</ele>
        <time>2021-08-30T08:17:47Z</time>
      </trkpt>
      <trkpt lat="45.18109" lon="5.69284">
        <ele>219.1</ele>
        <time>2021-08-30T08:17:48Z</time>
      </trkpt>
      <trkpt lat="45.1811" lon="5.69282">
        <ele>219.1</ele>
        <time>2021-08-30T08:17:49Z</time>
      </trkpt>
      <trkpt lat="45.18114" lon="5.6928">
        <ele>219</ele>
        <time>2021-08-30T08:17:50Z</time>
      </trkpt>
      <trkpt lat="45.18119" lon="5.69276">
        <ele>219</ele>
        <time>2021-08-30T08:17:51Z</time>
      </trkpt>
      <trkpt lat="45.18123" lon="5.69272">
        <ele>219</ele>
        <time>2021-08-30T08:17:52Z</time>
      </trkpt>
      <trkpt lat="45.18127" lon="5.69268">
        <ele>219</ele>
        <time>2021-08-30T08:17:53Z</time>
      </trkpt>
      <trkpt lat="45.18135" lon="5.69258">
        <ele>218.8</ele>
        <time>2021-08-30T08:17:55Z</time>
      </trkpt>
      <trkpt lat="45.18134" lon="5.69252">
        <ele>218.8</ele>
        <time>2021-08-30T08:17:56Z</time>
      </trkpt>
      <trkpt lat="45.18142" lon="5.69241">
        <ele>218.7</ele>
        <time>2021-08-30T08:17:58Z</time>
      </trkpt>
      <trkpt lat="45.18146" lon="5.69235">
        <ele>218.6</ele>
        <time>2021-08-30T08:17:59Z</time>
      </trkpt>
      <trkpt lat="45.1815" lon="5.69228">
        <ele>218.5</ele>
        <time>2021-08-30T08:18:00Z</time>
      </trkpt>
      <trkpt lat="45.18153" lon="5.69223">
        <ele>218.4</ele>
        <time>2021-08-30T08:18:01Z</time>
      </trkpt>
      <trkpt lat="45.18151" lon="5.69218">
        <ele>218.4</ele>
        <time>2021-08-30T08:18:02Z</time>
      </trkpt>
      <trkpt lat="45.18155" lon="5.69207">
        <ele>218.2</ele>
        <time>2021-08-30T08:18:04Z</time>
      </trkpt>
      <trkpt lat="45.1816" lon="5.69195">
        <ele>218.1</ele>
        <time>2021-08-30T08:18:06Z</time>
      </trkpt>
      <trkpt lat="45.18164" lon="5.69191">
        <ele>218.1</ele>
        <time>2021-08-30T08:18:07Z</time>
      </trkpt>
      <trkpt lat="45.18169" lon="5.69184">
        <ele>218</ele>
        <time>2021-08-30T08:18:09Z</time>
      </trkpt>
      <trkpt lat="45.18175" lon="5.69176">
        <ele>217.9</ele>
        <time>2021-08-30T08:18:10Z</time>
      </trkpt>
      <trkpt lat="45.18183" lon="5.69168">
        <ele>217.8</ele>
        <time>2021-08-30T08:18:12Z</time>
      </trkpt>
      <trkpt lat="45.18191" lon="5.69158">
        <ele>217.7</ele>
        <time>2021-08-30T08:18:14Z</time>
      </trkpt>
      <trkpt lat="45.18191" lon="5.69153">
        <ele>217.7</ele>
        <time>2021-08-30T08:18:15Z</time>
      </trkpt>
      <trkpt lat="45.18194" lon="5.69148">
        <ele>217.7</ele>
        <time>2021-08-30T08:18:16Z</time>
      </trkpt>
      <trkpt lat="45.18198" lon="5.69144">
        <ele>217.7</ele>
        <time>2021-08-30T08:18:18Z</time>
      </trkpt>
      <trkpt lat="45.18206" lon="5.69138">
        <ele>217.6</ele>
        <time>2021-08-30T08:18:20Z</time>
      </trkpt>
      <trkpt lat="45.1821" lon="5.69135">
        <ele>217.6</ele>
        <time>2021-08-30T08:18:21Z</time>
      </trkpt>
      <trkpt lat="45.18215" lon="5.69132">
        <ele>217.6</ele>
        <time>2021-08-30T08:18:22Z</time>
      </trkpt>
      <trkpt lat="45.18219" lon="5.6913">
        <ele>217.6</ele>
        <time>2021-08-30T08:18:23Z</time>
      </trkpt>
      <trkpt lat="45.18223" lon="5.69129">
        <ele>217.5</ele>
        <time>2021-08-30T08:18:24Z</time>
      </trkpt>
      <trkpt lat="45.18228" lon="5.69127">
        <ele>217.5</ele>
        <time>2021-08-30T08:18:25Z</time>
      </trkpt>
      <trkpt lat="45.18238" lon="5.69123">
        <ele>217.4</ele>
        <time>2021-08-30T08:18:27Z</time>
      </trkpt>
      <trkpt lat="45.18242" lon="5.6912">
        <ele>217.4</ele>
        <time>2021-08-30T08:18:28Z</time>
      </trkpt>
      <trkpt lat="45.18245" lon="5.69116">
        <ele>217.4</ele>
        <time>2021-08-30T08:18:29Z</time>
      </trkpt>
      <trkpt lat="45.18254" lon="5.69108">
        <ele>217.3</ele>
        <time>2021-08-30T08:18:31Z</time>
      </trkpt>
      <trkpt lat="45.18265" lon="5.69101">
        <ele>217.2</ele>
        <time>2021-08-30T08:18:33Z</time>
      </trkpt>
      <trkpt lat="45.1827" lon="5.69097">
        <ele>217.2</ele>
        <time>2021-08-30T08:18:34Z</time>
      </trkpt>
      <trkpt lat="45.18275" lon="5.69094">
        <ele>217.2</ele>
        <time>2021-08-30T08:18:35Z</time>
      </trkpt>
      <trkpt lat="45.1828" lon="5.6909">
        <ele>217.1</ele>
        <time>2021-08-30T08:18:36Z</time>
      </trkpt>
      <trkpt lat="45.18291" lon="5.69086">
        <ele>217.1</ele>
        <time>2021-08-30T08:18:38Z</time>
      </trkpt>
      <trkpt lat="45.18302" lon="5.69081">
        <ele>217.1</ele>
        <time>2021-08-30T08:18:40Z</time>
      </trkpt>
      <trkpt lat="45.18307" lon="5.69078">
        <ele>217.1</ele>
        <time>2021-08-30T08:18:41Z</time>
      </trkpt>
      <trkpt lat="45.18311" lon="5.69074">
        <ele>217.1</ele>
        <time>2021-08-30T08:18:42Z</time>
      </trkpt>
      <trkpt lat="45.18316" lon="5.69071">
        <ele>217.1</ele>
        <time>2021-08-30T08:18:43Z</time>
      </trkpt>
      <trkpt lat="45.18324" lon="5.69065">
        <ele>217.1</ele>
        <time>2021-08-30T08:18:45Z</time>
      </trkpt>
      <trkpt lat="45.18331" lon="5.69062">
        <ele>217.1</ele>
        <time>2021-08-30T08:18:47Z</time>
      </trkpt>
      <trkpt lat="45.18335" lon="5.6906">
        <ele>217.1</ele>
        <time>2021-08-30T08:18:48Z</time>
      </trkpt>
      <trkpt lat="45.18341" lon="5.69056">
        <ele>217.1</ele>
        <time>2021-08-30T08:18:50Z</time>
      </trkpt>
      <trkpt lat="45.18346" lon="5.69052">
        <ele>217.1</ele>
        <time>2021-08-30T08:18:51Z</time>
      </trkpt>
      <trkpt lat="45.18351" lon="5.69048">
        <ele>217.1</ele>
        <time>2021-08-30T08:18:52Z</time>
      </trkpt>
      <trkpt lat="45.18356" lon="5.69043">
        <ele>217.2</ele>
        <time>2021-08-30T08:18:53Z</time>
      </trkpt>
      <trkpt lat="45.18364" lon="5.6904">
        <ele>217.2</ele>
        <time>2021-08-30T08:18:55Z</time>
      </trkpt>
      <trkpt lat="45.1837" lon="5.69038">
        <ele>217.3</ele>
        <time>2021-08-30T08:18:57Z</time>
      </trkpt>
      <trkpt lat="45.18374" lon="5.69036">
        <ele>217.3</ele>
        <time>2021-08-30T08:18:58Z</time>
      </trkpt>
      <trkpt lat="45.18376" lon="5.69035">
        <ele>217.4</ele>
        <time>2021-08-30T08:18:59Z</time>
      </trkpt>
      <trkpt lat="45.18382" lon="5.69031">
        <ele>217.5</ele>
        <time>2021-08-30T08:19:00Z</time>
      </trkpt>
      <trkpt lat="45.18388" lon="5.69028">
        <ele>217.6</ele>
        <time>2021-08-30T08:19:02Z</time>
      </trkpt>
      <trkpt lat="45.18394" lon="5.69024">
        <ele>217.7</ele>
        <time>2021-08-30T08:19:03Z</time>
      </trkpt>
      <trkpt lat="45.18404" lon="5.69015">
        <ele>217.8</ele>
        <time>2021-08-30T08:19:05Z</time>
      </trkpt>
      <trkpt lat="45.18414" lon="5.69009">
        <ele>217.9</ele>
        <time>2021-08-30T08:19:07Z</time>
      </trkpt>
      <trkpt lat="45.18418" lon="5.69006">
        <ele>217.9</ele>
        <time>2021-08-30T08:19:08Z</time>
      </trkpt>
      <trkpt lat="45.18422" lon="5.69003">
        <ele>218</ele>
        <time>2021-08-30T08:19:10Z</time>
      </trkpt>
      <trkpt lat="45.18424" lon="5.69002">
        <ele>218</ele>
        <time>2021-08-30T08:19:11Z</time>
      </trkpt>
      <trkpt lat="45.18428" lon="5.69">
        <ele>218</ele>
        <time>2021-08-30T08:19:13Z</time>
      </trkpt>
      <trkpt lat="45.18429" lon="5.69">
        <ele>218</ele>
        <time>2021-08-30T08:19:14Z</time>
      </trkpt>
      <trkpt lat="45.18431" lon="5.69002">
        <ele>218</ele>
        <time>2021-08-30T08:19:16Z</time>
      </trkpt>
      <trkpt lat="45.18431" lon="5.69002">
        <ele>218</ele>
        <time>2021-08-30T08:19:17Z</time>
      </trkpt>
      <trkpt lat="45.18431" lon="5.69002">
        <ele>218</ele>
        <time>2021-08-30T08:19:18Z</time>
      </trkpt>
      <trkpt lat="45.18431" lon="5.69002">
        <ele>218</ele>
        <time>2021-08-30T08:19:19Z</time>
      </trkpt>
      <trkpt lat="45.18432" lon="5.69003">
        <ele>218</ele>
        <time>2021-08-30T08:19:20Z</time>
      </trkpt>
      <trkpt lat="45.18431" lon="5.69002">
        <ele>218</ele>
        <time>2021-08-30T08:19:23Z</time>
      </trkpt>
      <trkpt lat="45.18431" lon="5.69">
        <ele>218</ele>
        <time>2021-08-30T08:19:24Z</time>
      </trkpt>
      <trkpt lat="45.18423" lon="5.68983">
        <ele>218.1</ele>
        <time>2021-08-30T08:19:28Z</time>
      </trkpt>
      <trkpt lat="45.1842" lon="5.68971">
        <ele>218.1</ele>
        <time>2021-08-30T08:19:30Z</time>
      </trkpt>
      <trkpt lat="45.18418" lon="5.68961">
        <ele>218.1</ele>
        <time>2021-08-30T08:19:31Z</time>
      </trkpt>
      <trkpt lat="45.18415" lon="5.68945">
        <ele>218</ele>
        <time>2021-08-30T08:19:32Z</time>
      </trkpt>
      <trkpt lat="45.18413" lon="5.68936">
        <ele>218</ele>
        <time>2021-08-30T08:19:34Z</time>
      </trkpt>
      <trkpt lat="45.18413" lon="5.68928">
        <ele>218</ele>
        <time>2021-08-30T08:19:35Z</time>
      </trkpt>
      <trkpt lat="45.18415" lon="5.68919">
        <ele>218</ele>
        <time>2021-08-30T08:19:36Z</time>
      </trkpt>
      <trkpt lat="45.18418" lon="5.68912">
        <ele>218</ele>
        <time>2021-08-30T08:19:37Z</time>
      </trkpt>
      <trkpt lat="45.1842" lon="5.68908">
        <ele>218</ele>
        <time>2021-08-30T08:19:39Z</time>
      </trkpt>
      <trkpt lat="45.1842" lon="5.68906">
        <ele>218</ele>
        <time>2021-08-30T08:19:40Z</time>
      </trkpt>
      <trkpt lat="45.1842" lon="5.68905">
        <ele>218</ele>
        <time>2021-08-30T08:19:41Z</time>
      </trkpt>
      <trkpt lat="45.1842" lon="5.68903">
        <ele>218</ele>
        <time>2021-08-30T08:19:43Z</time>
      </trkpt>
      <trkpt lat="45.1842" lon="5.68902">
        <ele>218</ele>
        <time>2021-08-30T08:19:44Z</time>
      </trkpt>
      <trkpt lat="45.1842" lon="5.68901">
        <ele>218</ele>
        <time>2021-08-30T08:19:45Z</time>
      </trkpt>
      <trkpt lat="45.1842" lon="5.689">
        <ele>218</ele>
        <time>2021-08-30T08:19:46Z</time>
      </trkpt>
      <trkpt lat="45.18421" lon="5.68899">
        <ele>218</ele>
        <time>2021-08-30T08:19:48Z</time>
      </trkpt>
      <trkpt lat="45.18423" lon="5.68899">
        <ele>218</ele>
        <time>2021-08-30T08:19:49Z</time>
      </trkpt>
      <trkpt lat="45.18477" lon="5.68889">
        <ele>217.6</ele>
        <time>2021-08-30T08:19:59Z</time>
      </trkpt>
      <trkpt lat="45.18481" lon="5.68891">
        <ele>217.5</ele>
        <time>2021-08-30T08:20:00Z</time>
      </trkpt>
      <trkpt lat="45.18485" lon="5.68892">
        <ele>217.5</ele>
        <time>2021-08-30T08:20:01Z</time>
      </trkpt>
      <trkpt lat="45.18495" lon="5.68895">
        <ele>217.5</ele>
        <time>2021-08-30T08:20:02Z</time>
      </trkpt>
      <trkpt lat="45.18499" lon="5.68898">
        <ele>217.4</ele>
        <time>2021-08-30T08:20:04Z</time>
      </trkpt>
      <trkpt lat="45.18503" lon="5.68898">
        <ele>217.4</ele>
        <time>2021-08-30T08:20:05Z</time>
      </trkpt>
      <trkpt lat="45.18507" lon="5.689">
        <ele>217.4</ele>
        <time>2021-08-30T08:20:07Z</time>
      </trkpt>
      <trkpt lat="45.18508" lon="5.689">
        <ele>217.4</ele>
        <time>2021-08-30T08:20:08Z</time>
      </trkpt>
      <trkpt lat="45.18508" lon="5.68901">
        <ele>217.4</ele>
        <time>2021-08-30T08:20:09Z</time>
      </trkpt>
      <trkpt lat="45.18508" lon="5.68901">
        <ele>217.4</ele>
        <time>2021-08-30T08:20:11Z</time>
      </trkpt>
      <trkpt lat="45.18508" lon="5.68901">
        <ele>217.4</ele>
        <time>2021-08-30T08:20:13Z</time>
      </trkpt>
      <trkpt lat="45.18508" lon="5.68901">
        <ele>217.4</ele>
        <time>2021-08-30T08:20:14Z</time>
      </trkpt>
      <trkpt lat="45.1851" lon="5.689">
        <ele>217.4</ele>
        <time>2021-08-30T08:20:25Z</time>
      </trkpt>
      <trkpt lat="45.18513" lon="5.68898">
        <ele>217.4</ele>
        <time>2021-08-30T08:20:26Z</time>
      </trkpt>
      <trkpt lat="45.18514" lon="5.68893">
        <ele>217.3</ele>
        <time>2021-08-30T08:20:28Z</time>
      </trkpt>
      <trkpt lat="45.18512" lon="5.68888">
        <ele>217.3</ele>
        <time>2021-08-30T08:20:30Z</time>
      </trkpt>
      <trkpt lat="45.1851" lon="5.68889">
        <ele>217.3</ele>
        <time>2021-08-30T08:20:31Z</time>
      </trkpt>
      <trkpt lat="45.18507" lon="5.68894">
        <ele>217.4</ele>
        <time>2021-08-30T08:20:33Z</time>
      </trkpt>
      <trkpt lat="45.18503" lon="5.68897">
        <ele>217.4</ele>
        <time>2021-08-30T08:20:35Z</time>
      </trkpt>
      <trkpt lat="45.18498" lon="5.68902">
        <ele>217.5</ele>
        <time>2021-08-30T08:20:36Z</time>
      </trkpt>
      <trkpt lat="45.18493" lon="5.68903">
        <ele>217.5</ele>
        <time>2021-08-30T08:20:38Z</time>
      </trkpt>
      <trkpt lat="45.18486" lon="5.68909">
        <ele>217.6</ele>
        <time>2021-08-30T08:20:39Z</time>
      </trkpt>
      <trkpt lat="45.18483" lon="5.68915">
        <ele>217.6</ele>
        <time>2021-08-30T08:20:40Z</time>
      </trkpt>
      <trkpt lat="45.18478" lon="5.68921">
        <ele>217.6</ele>
        <time>2021-08-30T08:20:42Z</time>
      </trkpt>
      <trkpt lat="45.18474" lon="5.68925">
        <ele>217.7</ele>
        <time>2021-08-30T08:20:43Z</time>
      </trkpt>
      <trkpt lat="45.18471" lon="5.68929">
        <ele>217.7</ele>
        <time>2021-08-30T08:20:44Z</time>
      </trkpt>
      <trkpt lat="45.18464" lon="5.68933">
        <ele>217.7</ele>
        <time>2021-08-30T08:20:45Z</time>
      </trkpt>
      <trkpt lat="45.18456" lon="5.68935">
        <ele>217.8</ele>
        <time>2021-08-30T08:20:47Z</time>
      </trkpt>
      <trkpt lat="45.18445" lon="5.68938">
        <ele>217.8</ele>
        <time>2021-08-30T08:20:49Z</time>
      </trkpt>
      <trkpt lat="45.1844" lon="5.68939">
        <ele>217.8</ele>
        <time>2021-08-30T08:20:50Z</time>
      </trkpt>
      <trkpt lat="45.18436" lon="5.68941">
        <ele>217.8</ele>
        <time>2021-08-30T08:20:51Z</time>
      </trkpt>
      <trkpt lat="45.18431" lon="5.68935">
        <ele>217.9</ele>
        <time>2021-08-30T08:20:52Z</time>
      </trkpt>
      <trkpt lat="45.18427" lon="5.68937">
        <ele>217.9</ele>
        <time>2021-08-30T08:20:54Z</time>
      </trkpt>
      <trkpt lat="45.18419" lon="5.68936">
        <ele>217.9</ele>
        <time>2021-08-30T08:20:56Z</time>
      </trkpt>
      <trkpt lat="45.18413" lon="5.68934">
        <ele>218</ele>
        <time>2021-08-30T08:20:57Z</time>
      </trkpt>
      <trkpt lat="45.18409" lon="5.68929">
        <ele>218</ele>
        <time>2021-08-30T08:20:59Z</time>
      </trkpt>
      <trkpt lat="45.18405" lon="5.68923">
        <ele>218</ele>
        <time>2021-08-30T08:21:00Z</time>
      </trkpt>
      <trkpt lat="45.18401" lon="5.68915">
        <ele>218</ele>
        <time>2021-08-30T08:21:02Z</time>
      </trkpt>
      <trkpt lat="45.18399" lon="5.6891">
        <ele>218</ele>
        <time>2021-08-30T08:21:03Z</time>
      </trkpt>
      <trkpt lat="45.18393" lon="5.68901">
        <ele>218</ele>
        <time>2021-08-30T08:21:05Z</time>
      </trkpt>
      <trkpt lat="45.1839" lon="5.68896">
        <ele>218</ele>
        <time>2021-08-30T08:21:06Z</time>
      </trkpt>
      <trkpt lat="45.18386" lon="5.6889">
        <ele>218</ele>
        <time>2021-08-30T08:21:07Z</time>
      </trkpt>
      <trkpt lat="45.18383" lon="5.68884">
        <ele>218</ele>
        <time>2021-08-30T08:21:09Z</time>
      </trkpt>
      <trkpt lat="45.18382" lon="5.68881">
        <ele>218</ele>
        <time>2021-08-30T08:21:10Z</time>
      </trkpt>
      <trkpt lat="45.18381" lon="5.68876">
        <ele>218.1</ele>
        <time>2021-08-30T08:21:12Z</time>
      </trkpt>
      <trkpt lat="45.18378" lon="5.6887">
        <ele>218.1</ele>
        <time>2021-08-30T08:21:13Z</time>
      </trkpt>
      <trkpt lat="45.18376" lon="5.68866">
        <ele>218.1</ele>
        <time>2021-08-30T08:21:15Z</time>
      </trkpt>
      <trkpt lat="45.18374" lon="5.68862">
        <ele>218.1</ele>
        <time>2021-08-30T08:21:16Z</time>
      </trkpt>
      <trkpt lat="45.18369" lon="5.68856">
        <ele>218.1</ele>
        <time>2021-08-30T08:21:17Z</time>
      </trkpt>
      <trkpt lat="45.18366" lon="5.68852">
        <ele>218.2</ele>
        <time>2021-08-30T08:21:18Z</time>
      </trkpt>
      <trkpt lat="45.18365" lon="5.68847">
        <ele>218.2</ele>
        <time>2021-08-30T08:21:19Z</time>
      </trkpt>
      <trkpt lat="45.18363" lon="5.68842">
        <ele>218.2</ele>
        <time>2021-08-30T08:21:21Z</time>
      </trkpt>
      <trkpt lat="45.1836" lon="5.68836">
        <ele>218.3</ele>
        <time>2021-08-30T08:21:22Z</time>
      </trkpt>
      <trkpt lat="45.18356" lon="5.68833">
        <ele>218.3</ele>
        <time>2021-08-30T08:21:24Z</time>
      </trkpt>
      <trkpt lat="45.18353" lon="5.68832">
        <ele>218.3</ele>
        <time>2021-08-30T08:21:25Z</time>
      </trkpt>
      <trkpt lat="45.18346" lon="5.68829">
        <ele>218.3</ele>
        <time>2021-08-30T08:21:26Z</time>
      </trkpt>
      <trkpt lat="45.18342" lon="5.68826">
        <ele>218.4</ele>
        <time>2021-08-30T08:21:28Z</time>
      </trkpt>
      <trkpt lat="45.18339" lon="5.68823">
        <ele>218.4</ele>
        <time>2021-08-30T08:21:29Z</time>
      </trkpt>
      <trkpt lat="45.18332" lon="5.68818">
        <ele>218.4</ele>
        <time>2021-08-30T08:21:31Z</time>
      </trkpt>
      <trkpt lat="45.18327" lon="5.68817">
        <ele>218.4</ele>
        <time>2021-08-30T08:21:32Z</time>
      </trkpt>
      <trkpt lat="45.18321" lon="5.68814">
        <ele>218.4</ele>
        <time>2021-08-30T08:21:33Z</time>
      </trkpt>
      <trkpt lat="45.18317" lon="5.68812">
        <ele>218.5</ele>
        <time>2021-08-30T08:21:34Z</time>
      </trkpt>
      <trkpt lat="45.18309" lon="5.68807">
        <ele>218.5</ele>
        <time>2021-08-30T08:21:35Z</time>
      </trkpt>
      <trkpt lat="45.18303" lon="5.68804">
        <ele>218.5</ele>
        <time>2021-08-30T08:21:36Z</time>
      </trkpt>
      <trkpt lat="45.18297" lon="5.68801">
        <ele>218.5</ele>
        <time>2021-08-30T08:21:38Z</time>
      </trkpt>
      <trkpt lat="45.1829" lon="5.68799">
        <ele>218.6</ele>
        <time>2021-08-30T08:21:39Z</time>
      </trkpt>
      <trkpt lat="45.18285" lon="5.68797">
        <ele>218.6</ele>
        <time>2021-08-30T08:21:41Z</time>
      </trkpt>
      <trkpt lat="45.18274" lon="5.68794">
        <ele>218.6</ele>
        <time>2021-08-30T08:21:43Z</time>
      </trkpt>
      <trkpt lat="45.1827" lon="5.68793">
        <ele>218.7</ele>
        <time>2021-08-30T08:21:44Z</time>
      </trkpt>
      <trkpt lat="45.18265" lon="5.68792">
        <ele>218.7</ele>
        <time>2021-08-30T08:21:45Z</time>
      </trkpt>
      <trkpt lat="45.18259" lon="5.68792">
        <ele>218.8</ele>
        <time>2021-08-30T08:21:46Z</time>
      </trkpt>
      <trkpt lat="45.18254" lon="5.68791">
        <ele>218.9</ele>
        <time>2021-08-30T08:21:47Z</time>
      </trkpt>
      <trkpt lat="45.1825" lon="5.68789">
        <ele>218.9</ele>
        <time>2021-08-30T08:21:48Z</time>
      </trkpt>
      <trkpt lat="45.18242" lon="5.68786">
        <ele>219</ele>
        <time>2021-08-30T08:21:50Z</time>
      </trkpt>
      <trkpt lat="45.18236" lon="5.68783">
        <ele>219.1</ele>
        <time>2021-08-30T08:21:51Z</time>
      </trkpt>
      <trkpt lat="45.18231" lon="5.68781">
        <ele>219.2</ele>
        <time>2021-08-30T08:21:53Z</time>
      </trkpt>
      <trkpt lat="45.18227" lon="5.68778">
        <ele>219.2</ele>
        <time>2021-08-30T08:21:54Z</time>
      </trkpt>
      <trkpt lat="45.18223" lon="5.68775">
        <ele>219.3</ele>
        <time>2021-08-30T08:21:55Z</time>
      </trkpt>
      <trkpt lat="45.1822" lon="5.68773">
        <ele>219.3</ele>
        <time>2021-08-30T08:21:56Z</time>
      </trkpt>
      <trkpt lat="45.18218" lon="5.6877">
        <ele>219.4</ele>
        <time>2021-08-30T08:21:58Z</time>
      </trkpt>
      <trkpt lat="45.18216" lon="5.68767">
        <ele>219.4</ele>
        <time>2021-08-30T08:22:00Z</time>
      </trkpt>
      <trkpt lat="45.18217" lon="5.68763">
        <ele>219.6</ele>
        <time>2021-08-30T08:22:01Z</time>
      </trkpt>
      <trkpt lat="45.18217" lon="5.68758">
        <ele>219.7</ele>
        <time>2021-08-30T08:22:03Z</time>
      </trkpt>
      <trkpt lat="45.18215" lon="5.68753">
        <ele>219.7</ele>
        <time>2021-08-30T08:22:04Z</time>
      </trkpt>
      <trkpt lat="45.18214" lon="5.6875">
        <ele>219.7</ele>
        <time>2021-08-30T08:22:06Z</time>
      </trkpt>
      <trkpt lat="45.18213" lon="5.68751">
        <ele>219.8</ele>
        <time>2021-08-30T08:22:07Z</time>
      </trkpt>
      <trkpt lat="45.18212" lon="5.68752">
        <ele>219.8</ele>
        <time>2021-08-30T08:22:08Z</time>
      </trkpt>
      <trkpt lat="45.18213" lon="5.6875">
        <ele>219.8</ele>
        <time>2021-08-30T08:22:10Z</time>
      </trkpt>
      <trkpt lat="45.18215" lon="5.68747">
        <ele>219.9</ele>
        <time>2021-08-30T08:22:11Z</time>
      </trkpt>
      <trkpt lat="45.18217" lon="5.68745">
        <ele>219.9</ele>
        <time>2021-08-30T08:22:12Z</time>
      </trkpt>
      <trkpt lat="45.18218" lon="5.68742">
        <ele>219.9</ele>
        <time>2021-08-30T08:22:13Z</time>
      </trkpt>
      <trkpt lat="45.18227" lon="5.68724">
        <ele>220.1</ele>
        <time>2021-08-30T08:22:15Z</time>
      </trkpt>
      <trkpt lat="45.1823" lon="5.68717">
        <ele>220.2</ele>
        <time>2021-08-30T08:22:16Z</time>
      </trkpt>
      <trkpt lat="45.18234" lon="5.68711">
        <ele>220.2</ele>
        <time>2021-08-30T08:22:17Z</time>
      </trkpt>
      <trkpt lat="45.18237" lon="5.68705">
        <ele>220.2</ele>
        <time>2021-08-30T08:22:18Z</time>
      </trkpt>
      <trkpt lat="45.18242" lon="5.68696">
        <ele>220.2</ele>
        <time>2021-08-30T08:22:19Z</time>
      </trkpt>
      <trkpt lat="45.18246" lon="5.6869">
        <ele>220.2</ele>
        <time>2021-08-30T08:22:20Z</time>
      </trkpt>
      <trkpt lat="45.18251" lon="5.68681">
        <ele>220.2</ele>
        <time>2021-08-30T08:22:22Z</time>
      </trkpt>
      <trkpt lat="45.18258" lon="5.68677">
        <ele>220.3</ele>
        <time>2021-08-30T08:22:23Z</time>
      </trkpt>
      <trkpt lat="45.18265" lon="5.68672">
        <ele>220.4</ele>
        <time>2021-08-30T08:22:25Z</time>
      </trkpt>
      <trkpt lat="45.18268" lon="5.68667">
        <ele>220.4</ele>
        <time>2021-08-30T08:22:26Z</time>
      </trkpt>
      <trkpt lat="45.18271" lon="5.68662">
        <ele>220.5</ele>
        <time>2021-08-30T08:22:27Z</time>
      </trkpt>
      <trkpt lat="45.18277" lon="5.68654">
        <ele>220.6</ele>
        <time>2021-08-30T08:22:28Z</time>
      </trkpt>
      <trkpt lat="45.1828" lon="5.68653">
        <ele>220.7</ele>
        <time>2021-08-30T08:22:30Z</time>
      </trkpt>
      <trkpt lat="45.18283" lon="5.68655">
        <ele>220.8</ele>
        <time>2021-08-30T08:22:32Z</time>
      </trkpt>
      <trkpt lat="45.18286" lon="5.68659">
        <ele>220.9</ele>
        <time>2021-08-30T08:22:33Z</time>
      </trkpt>
      <trkpt lat="45.18289" lon="5.68662">
        <ele>221</ele>
        <time>2021-08-30T08:22:35Z</time>
      </trkpt>
      <trkpt lat="45.1829" lon="5.68663">
        <ele>221</ele>
        <time>2021-08-30T08:22:36Z</time>
      </trkpt>
      <trkpt lat="45.18292" lon="5.68665">
        <ele>221.1</ele>
        <time>2021-08-30T08:22:38Z</time>
      </trkpt>
      <trkpt lat="45.1834" lon="5.68714">
        <ele>230.6</ele>
        <time>2021-08-30T08:24:02Z</time>
      </trkpt>
      <trkpt lat="45.18339" lon="5.68712">
        <ele>230.5</ele>
        <time>2021-08-30T08:24:03Z</time>
      </trkpt>
      <trkpt lat="45.18338" lon="5.68711">
        <ele>230.5</ele>
        <time>2021-08-30T08:24:04Z</time>
      </trkpt>
      <trkpt lat="45.18336" lon="5.6871">
        <ele>230.4</ele>
        <time>2021-08-30T08:24:05Z</time>
      </trkpt>
      <trkpt lat="45.18335" lon="5.6871">
        <ele>233.2</ele>
        <time>2021-08-30T08:24:07Z</time>
      </trkpt>
      <trkpt lat="45.18334" lon="5.68709">
        <ele>233.5</ele>
        <time>2021-08-30T08:24:08Z</time>
      </trkpt>
      <trkpt lat="45.18334" lon="5.68709">
        <ele>233.6</ele>
        <time>2021-08-30T08:24:11Z</time>
      </trkpt>
      <trkpt lat="45.18334" lon="5.68708">
        <ele>233.7</ele>
        <time>2021-08-30T08:24:12Z</time>
      </trkpt>
      <trkpt lat="45.18335" lon="5.68707">
        <ele>234</ele>
        <time>2021-08-30T08:24:14Z</time>
      </trkpt>
      <trkpt lat="45.18336" lon="5.68706">
        <ele>234.2</ele>
        <time>2021-08-30T08:24:15Z</time>
      </trkpt>
      <trkpt lat="45.18337" lon="5.68704">
        <ele>234.5</ele>
        <time>2021-08-30T08:24:17Z</time>
      </trkpt>
      <trkpt lat="45.18337" lon="5.68704">
        <ele>234.6</ele>
        <time>2021-08-30T08:24:18Z</time>
      </trkpt>
      <trkpt lat="45.18337" lon="5.68703">
        <ele>234.6</ele>
        <time>2021-08-30T08:24:20Z</time>
      </trkpt>
      <trkpt lat="45.18337" lon="5.68703">
        <ele>234.7</ele>
        <time>2021-08-30T08:24:21Z</time>
      </trkpt>
      <trkpt lat="45.18337" lon="5.68703">
        <ele>234.7</ele>
        <time>2021-08-30T08:24:23Z</time>
      </trkpt>
      <trkpt lat="45.18338" lon="5.68703">
        <ele>234.8</ele>
        <time>2021-08-30T08:24:24Z</time>
      </trkpt>
      <trkpt lat="45.18337" lon="5.68702">
        <ele>234.9</ele>
        <time>2021-08-30T08:24:26Z</time>
      </trkpt>
      <trkpt lat="45.18336" lon="5.68701">
        <ele>235.2</ele>
        <time>2021-08-30T08:24:27Z</time>
      </trkpt>
      <trkpt lat="45.18335" lon="5.687">
        <ele>235.4</ele>
        <time>2021-08-30T08:24:28Z</time>
      </trkpt>
      <trkpt lat="45.18335" lon="5.68699">
        <ele>235.6</ele>
        <time>2021-08-30T08:24:30Z</time>
      </trkpt>
      <trkpt lat="45.18334" lon="5.68698">
        <ele>235.8</ele>
        <time>2021-08-30T08:24:31Z</time>
      </trkpt>
      <trkpt lat="45.18334" lon="5.68697">
        <ele>236</ele>
        <time>2021-08-30T08:24:33Z</time>
      </trkpt>
      <trkpt lat="45.18333" lon="5.68696">
        <ele>236.1</ele>
        <time>2021-08-30T08:24:34Z</time>
      </trkpt>
      <trkpt lat="45.18333" lon="5.68696">
        <ele>236.2</ele>
        <time>2021-08-30T08:24:35Z</time>
      </trkpt>
      <trkpt lat="45.18332" lon="5.68695">
        <ele>236.4</ele>
        <time>2021-08-30T08:24:36Z</time>
      </trkpt>
      <trkpt lat="45.18332" lon="5.68694">
        <ele>236.5</ele>
        <time>2021-08-30T08:24:37Z</time>
      </trkpt>
      <trkpt lat="45.18331" lon="5.68694">
        <ele>236.6</ele>
        <time>2021-08-30T08:24:39Z</time>
      </trkpt>
      <trkpt lat="45.18331" lon="5.68693">
        <ele>236.8</ele>
        <time>2021-08-30T08:24:40Z</time>
      </trkpt>
      <trkpt lat="45.1833" lon="5.68693">
        <ele>237</ele>
        <time>2021-08-30T08:24:41Z</time>
      </trkpt>
      <trkpt lat="45.1833" lon="5.68692">
        <ele>237.2</ele>
        <time>2021-08-30T08:24:43Z</time>
      </trkpt>
      <trkpt lat="45.1833" lon="5.68692">
        <ele>237.3</ele>
        <time>2021-08-30T08:24:44Z</time>
      </trkpt>
      <trkpt lat="45.18329" lon="5.68692">
        <ele>237.5</ele>
        <time>2021-08-30T08:24:45Z</time>
      </trkpt>
      <trkpt lat="45.18329" lon="5.68691">
        <ele>237.7</ele>
        <time>2021-08-30T08:24:46Z</time>
      </trkpt>
      <trkpt lat="45.18328" lon="5.68691">
        <ele>238</ele>
        <time>2021-08-30T08:24:48Z</time>
      </trkpt>
      <trkpt lat="45.18328" lon="5.6869">
        <ele>238.2</ele>
        <time>2021-08-30T08:24:49Z</time>
      </trkpt>
      <trkpt lat="45.18328" lon="5.6869">
        <ele>238.3</ele>
        <time>2021-08-30T08:24:50Z</time>
      </trkpt>
      <trkpt lat="45.18327" lon="5.68688">
        <ele>238.9</ele>
        <time>2021-08-30T08:24:52Z</time>
      </trkpt>
      <trkpt lat="45.18326" lon="5.68687">
        <ele>239.1</ele>
        <time>2021-08-30T08:24:53Z</time>
      </trkpt>
      <trkpt lat="45.18326" lon="5.68686">
        <ele>239.3</ele>
        <time>2021-08-30T08:24:54Z</time>
      </trkpt>
      <trkpt lat="45.18326" lon="5.68686">
        <ele>239.5</ele>
        <time>2021-08-30T08:24:55Z</time>
      </trkpt>
      <trkpt lat="45.18326" lon="5.68685">
        <ele>239.7</ele>
        <time>2021-08-30T08:24:56Z</time>
      </trkpt>
      <trkpt lat="45.18326" lon="5.68684">
        <ele>239.9</ele>
        <time>2021-08-30T08:24:58Z</time>
      </trkpt>
      <trkpt lat="45.18326" lon="5.68684">
        <ele>241.1</ele>
        <time>2021-08-30T08:24:59Z</time>
      </trkpt>
      <trkpt lat="45.18325" lon="5.68683">
        <ele>241.3</ele>
        <time>2021-08-30T08:25:00Z</time>
      </trkpt>
      <trkpt lat="45.18325" lon="5.68682">
        <ele>241.6</ele>
        <time>2021-08-30T08:25:01Z</time>
      </trkpt>
      <trkpt lat="45.18325" lon="5.68681">
        <ele>241.8</ele>
        <time>2021-08-30T08:25:02Z</time>
      </trkpt>
      <trkpt lat="45.18326" lon="5.68677">
        <ele>243.5</ele>
        <time>2021-08-30T08:25:04Z</time>
      </trkpt>
      <trkpt lat="45.18326" lon="5.68676">
        <ele>243.7</ele>
        <time>2021-08-30T08:25:05Z</time>
      </trkpt>
      <trkpt lat="45.18328" lon="5.68675">
        <ele>244</ele>
        <time>2021-08-30T08:25:06Z</time>
      </trkpt>
      <trkpt lat="45.18329" lon="5.68675">
        <ele>244.1</ele>
        <time>2021-08-30T08:25:08Z</time>
      </trkpt>
      <trkpt lat="45.1833" lon="5.68674">
        <ele>244.3</ele>
        <time>2021-08-30T08:25:09Z</time>
      </trkpt>
      <trkpt lat="45.18331" lon="5.68673">
        <ele>244.5</ele>
        <time>2021-08-30T08:25:11Z</time>
      </trkpt>
      <trkpt lat="45.18331" lon="5.68673">
        <ele>244.6</ele>
        <time>2021-08-30T08:25:12Z</time>
      </trkpt>
      <trkpt lat="45.18332" lon="5.68672">
        <ele>244.7</ele>
        <time>2021-08-30T08:25:13Z</time>
      </trkpt>
      <trkpt lat="45.18332" lon="5.68671">
        <ele>244.9</ele>
        <time>2021-08-30T08:25:15Z</time>
      </trkpt>
      <trkpt lat="45.18333" lon="5.68668">
        <ele>245.2</ele>
        <time>2021-08-30T08:25:17Z</time>
      </trkpt>
      <trkpt lat="45.18333" lon="5.68666">
        <ele>245.5</ele>
        <time>2021-08-30T08:25:18Z</time>
      </trkpt>
      <trkpt lat="45.18333" lon="5.68665">
        <ele>245.6</ele>
        <time>2021-08-30T08:25:20Z</time>
      </trkpt>
      <trkpt lat="45.18333" lon="5.68664">
        <ele>245.6</ele>
        <time>2021-08-30T08:25:21Z</time>
      </trkpt>
      <trkpt lat="45.18334" lon="5.68664">
        <ele>245.7</ele>
        <time>2021-08-30T08:25:22Z</time>
      </trkpt>
      <trkpt lat="45.18334" lon="5.68664">
        <ele>245.7</ele>
        <time>2021-08-30T08:25:24Z</time>
      </trkpt>
      <trkpt lat="45.18334" lon="5.68663">
        <ele>245.8</ele>
        <time>2021-08-30T08:25:26Z</time>
      </trkpt>
      <trkpt lat="45.18334" lon="5.68663">
        <ele>245.8</ele>
        <time>2021-08-30T08:25:27Z</time>
      </trkpt>
      <trkpt lat="45.18334" lon="5.68663">
        <ele>245.8</ele>
        <time>2021-08-30T08:25:28Z</time>
      </trkpt>
      <trkpt lat="45.18334" lon="5.68663">
        <ele>245.8</ele>
        <time>2021-08-30T08:25:30Z</time>
      </trkpt>
      <trkpt lat="45.18333" lon="5.68663">
        <ele>245.8</ele>
        <time>2021-08-30T08:25:31Z</time>
      </trkpt>
      <trkpt lat="45.18333" lon="5.68663">
        <ele>245.8</ele>
        <time>2021-08-30T08:25:33Z</time>
      </trkpt>
      <trkpt lat="45.18334" lon="5.68663">
        <ele>245.9</ele>
        <time>2021-08-30T08:25:34Z</time>
      </trkpt>
      <trkpt lat="45.18336" lon="5.68664">
        <ele>246.2</ele>
        <time>2021-08-30T08:25:36Z</time>
      </trkpt>
      <trkpt lat="45.18338" lon="5.68665">
        <ele>246.6</ele>
        <time>2021-08-30T08:25:37Z</time>
      </trkpt>
      <trkpt lat="45.18341" lon="5.68666">
        <ele>247</ele>
        <time>2021-08-30T08:25:39Z</time>
      </trkpt>
      <trkpt lat="45.18342" lon="5.68666">
        <ele>247.2</ele>
        <time>2021-08-30T08:25:41Z</time>
      </trkpt>
      <trkpt lat="45.18342" lon="5.68666">
        <ele>247.3</ele>
        <time>2021-08-30T08:25:42Z</time>
      </trkpt>
      <trkpt lat="45.18343" lon="5.68666">
        <ele>247.4</ele>
        <time>2021-08-30T08:25:44Z</time>
      </trkpt>
      <trkpt lat="45.18344" lon="5.68665">
        <ele>247.5</ele>
        <time>2021-08-30T08:25:45Z</time>
      </trkpt>
      <trkpt lat="45.18344" lon="5.68665">
        <ele>247.6</ele>
        <time>2021-08-30T08:25:46Z</time>
      </trkpt>
      <trkpt lat="45.18345" lon="5.68665">
        <ele>247.7</ele>
        <time>2021-08-30T08:25:48Z</time>
      </trkpt>
      <trkpt lat="45.18346" lon="5.68665">
        <ele>247.9</ele>
        <time>2021-08-30T08:25:50Z</time>
      </trkpt>
      <trkpt lat="45.18347" lon="5.68665">
        <ele>248</ele>
        <time>2021-08-30T08:25:52Z</time>
      </trkpt>
      <trkpt lat="45.18347" lon="5.68665">
        <ele>248.1</ele>
        <time>2021-08-30T08:25:53Z</time>
      </trkpt>
      <trkpt lat="45.18348" lon="5.68665">
        <ele>248.2</ele>
        <time>2021-08-30T08:25:55Z</time>
      </trkpt>
      <trkpt lat="45.18349" lon="5.68665">
        <ele>248.3</ele>
        <time>2021-08-30T08:25:56Z</time>
      </trkpt>
      <trkpt lat="45.18349" lon="5.68665">
        <ele>248.5</ele>
        <time>2021-08-30T08:25:58Z</time>
      </trkpt>
      <trkpt lat="45.1835" lon="5.68665">
        <ele>248.6</ele>
        <time>2021-08-30T08:25:59Z</time>
      </trkpt>
      <trkpt lat="45.18351" lon="5.68665">
        <ele>248.7</ele>
        <time>2021-08-30T08:26:00Z</time>
      </trkpt>
      <trkpt lat="45.18352" lon="5.68664">
        <ele>248.9</ele>
        <time>2021-08-30T08:26:01Z</time>
      </trkpt>
      <trkpt lat="45.18353" lon="5.68663">
        <ele>249</ele>
        <time>2021-08-30T08:26:03Z</time>
      </trkpt>
      <trkpt lat="45.18353" lon="5.68662">
        <ele>249.2</ele>
        <time>2021-08-30T08:26:04Z</time>
      </trkpt>
      <trkpt lat="45.18354" lon="5.68661">
        <ele>249.3</ele>
        <time>2021-08-30T08:26:06Z</time>
      </trkpt>
      <trkpt lat="45.18353" lon="5.6866">
        <ele>249.5</ele>
        <time>2021-08-30T08:26:07Z</time>
      </trkpt>
      <trkpt lat="45.18353" lon="5.6866">
        <ele>249.6</ele>
        <time>2021-08-30T08:26:08Z</time>
      </trkpt>
      <trkpt lat="45.18352" lon="5.68661">
        <ele>249.7</ele>
        <time>2021-08-30T08:26:09Z</time>
      </trkpt>
      <trkpt lat="45.1835" lon="5.68661">
        <ele>250</ele>
        <time>2021-08-30T08:26:11Z</time>
      </trkpt>
      <trkpt lat="45.18349" lon="5.68662">
        <ele>250.2</ele>
        <time>2021-08-30T08:26:12Z</time>
      </trkpt>
      <trkpt lat="45.18347" lon="5.68662">
        <ele>250.5</ele>
        <time>2021-08-30T08:26:14Z</time>
      </trkpt>
      <trkpt lat="45.18346" lon="5.68662">
        <ele>250.8</ele>
        <time>2021-08-30T08:26:15Z</time>
      </trkpt>
      <trkpt lat="45.18344" lon="5.68661">
        <ele>251.1</ele>
        <time>2021-08-30T08:26:17Z</time>
      </trkpt>
      <trkpt lat="45.18341" lon="5.68658">
        <ele>251.6</ele>
        <time>2021-08-30T08:26:18Z</time>
      </trkpt>
      <trkpt lat="45.18338" lon="5.68655">
        <ele>252.2</ele>
        <time>2021-08-30T08:26:20Z</time>
      </trkpt>
      <trkpt lat="45.18337" lon="5.68655">
        <ele>252.4</ele>
        <time>2021-08-30T08:26:21Z</time>
      </trkpt>
      <trkpt lat="45.18336" lon="5.68654">
        <ele>252.6</ele>
        <time>2021-08-30T08:26:23Z</time>
      </trkpt>
      <trkpt lat="45.18335" lon="5.68653">
        <ele>252.8</ele>
        <time>2021-08-30T08:26:24Z</time>
      </trkpt>
      <trkpt lat="45.18334" lon="5.68652">
        <ele>253</ele>
        <time>2021-08-30T08:26:25Z</time>
      </trkpt>
      <trkpt lat="45.18334" lon="5.68652">
        <ele>253.1</ele>
        <time>2021-08-30T08:26:27Z</time>
      </trkpt>
      <trkpt lat="45.18333" lon="5.68652">
        <ele>253.1</ele>
        <time>2021-08-30T08:26:28Z</time>
      </trkpt>
      <trkpt lat="45.18333" lon="5.68652">
        <ele>253.2</ele>
        <time>2021-08-30T08:26:30Z</time>
      </trkpt>
      <trkpt lat="45.18334" lon="5.68652">
        <ele>253.3</ele>
        <time>2021-08-30T08:26:32Z</time>
      </trkpt>
      <trkpt lat="45.18335" lon="5.68652">
        <ele>253.5</ele>
        <time>2021-08-30T08:26:33Z</time>
      </trkpt>
      <trkpt lat="45.18336" lon="5.68651">
        <ele>253.8</ele>
        <time>2021-08-30T08:26:35Z</time>
      </trkpt>
      <trkpt lat="45.18337" lon="5.68651">
        <ele>253.9</ele>
        <time>2021-08-30T08:26:36Z</time>
      </trkpt>
      <trkpt lat="45.18339" lon="5.68651">
        <ele>254.2</ele>
        <time>2021-08-30T08:26:37Z</time>
      </trkpt>
      <trkpt lat="45.1834" lon="5.68652">
        <ele>254.4</ele>
        <time>2021-08-30T08:26:39Z</time>
      </trkpt>
      <trkpt lat="45.18341" lon="5.68653">
        <ele>254.6</ele>
        <time>2021-08-30T08:26:40Z</time>
      </trkpt>
      <trkpt lat="45.18342" lon="5.68653">
        <ele>254.7</ele>
        <time>2021-08-30T08:26:42Z</time>
      </trkpt>
      <trkpt lat="45.18343" lon="5.68654">
        <ele>259</ele>
        <time>2021-08-30T08:26:43Z</time>
      </trkpt>
      <trkpt lat="45.18343" lon="5.68655">
        <ele>259</ele>
        <time>2021-08-30T08:26:45Z</time>
      </trkpt>
      <trkpt lat="45.18343" lon="5.68655">
        <ele>259</ele>
        <time>2021-08-30T08:26:46Z</time>
      </trkpt>
      <trkpt lat="45.18344" lon="5.68655">
        <ele>259</ele>
        <time>2021-08-30T08:26:47Z</time>
      </trkpt>
      <trkpt lat="45.18344" lon="5.68655">
        <ele>259.1</ele>
        <time>2021-08-30T08:26:49Z</time>
      </trkpt>
      <trkpt lat="45.18344" lon="5.68656">
        <ele>259.1</ele>
        <time>2021-08-30T08:26:50Z</time>
      </trkpt>
      <trkpt lat="45.18344" lon="5.68656">
        <ele>259.1</ele>
        <time>2021-08-30T08:26:51Z</time>
      </trkpt>
      <trkpt lat="45.18345" lon="5.68656">
        <ele>259.2</ele>
        <time>2021-08-30T08:26:52Z</time>
      </trkpt>
      <trkpt lat="45.18347" lon="5.68655">
        <ele>259.2</ele>
        <time>2021-08-30T08:26:53Z</time>
      </trkpt>
      <trkpt lat="45.18347" lon="5.68655">
        <ele>259.3</ele>
        <time>2021-08-30T08:26:55Z</time>
      </trkpt>
      <trkpt lat="45.18348" lon="5.68654">
        <ele>259.3</ele>
        <time>2021-08-30T08:26:56Z</time>
      </trkpt>
      <trkpt lat="45.18348" lon="5.68654">
        <ele>259.3</ele>
        <time>2021-08-30T08:26:58Z</time>
      </trkpt>
      <trkpt lat="45.18349" lon="5.68654">
        <ele>259.4</ele>
        <time>2021-08-30T08:27:00Z</time>
      </trkpt>
      <trkpt lat="45.18349" lon="5.68653">
        <ele>259.4</ele>
        <time>2021-08-30T08:27:01Z</time>
      </trkpt>
      <trkpt lat="45.18349" lon="5.68653">
        <ele>259.4</ele>
        <time>2021-08-30T08:27:03Z</time>
      </trkpt>
      <trkpt lat="45.1835" lon="5.68652">
        <ele>259.5</ele>
        <time>2021-08-30T08:27:04Z</time>
      </trkpt>
      <trkpt lat="45.1835" lon="5.68652">
        <ele>259.5</ele>
        <time>2021-08-30T08:27:05Z</time>
      </trkpt>
      <trkpt lat="45.18351" lon="5.68652">
        <ele>259.5</ele>
        <time>2021-08-30T08:27:07Z</time>
      </trkpt>
      <trkpt lat="45.18351" lon="5.68651">
        <ele>259.6</ele>
        <time>2021-08-30T08:27:08Z</time>
      </trkpt>
      <trkpt lat="45.18352" lon="5.68651">
        <ele>259.6</ele>
        <time>2021-08-30T08:27:09Z</time>
      </trkpt>
      <trkpt lat="45.18352" lon="5.6865">
        <ele>259.6</ele>
        <time>2021-08-30T08:27:10Z</time>
      </trkpt>
      <trkpt lat="45.18353" lon="5.6865">
        <ele>259.7</ele>
        <time>2021-08-30T08:27:11Z</time>
      </trkpt>
      <trkpt lat="45.18352" lon="5.68647">
        <ele>259.8</ele>
        <time>2021-08-30T08:27:12Z</time>
      </trkpt>
      <trkpt lat="45.18352" lon="5.68643">
        <ele>260</ele>
        <time>2021-08-30T08:27:14Z</time>
      </trkpt>
      <trkpt lat="45.18352" lon="5.68641">
        <ele>260.1</ele>
        <time>2021-08-30T08:27:15Z</time>
      </trkpt>
      <trkpt lat="45.18353" lon="5.68639">
        <ele>260.2</ele>
        <time>2021-08-30T08:27:16Z</time>
      </trkpt>
      <trkpt lat="45.18354" lon="5.68637">
        <ele>260.3</ele>
        <time>2021-08-30T08:27:18Z</time>
      </trkpt>
      <trkpt lat="45.18354" lon="5.68636">
        <ele>260.3</ele>
        <time>2021-08-30T08:27:19Z</time>
      </trkpt>
      <trkpt lat="45.18355" lon="5.68635">
        <ele>260.4</ele>
        <time>2021-08-30T08:27:20Z</time>
      </trkpt>
      <trkpt lat="45.18355" lon="5.68633">
        <ele>260.4</ele>
        <time>2021-08-30T08:27:22Z</time>
      </trkpt>
      <trkpt lat="45.18356" lon="5.68632">
        <ele>260.5</ele>
        <time>2021-08-30T08:27:23Z</time>
      </trkpt>
      <trkpt lat="45.18356" lon="5.68631">
        <ele>260.6</ele>
        <time>2021-08-30T08:27:25Z</time>
      </trkpt>
      <trkpt lat="45.18356" lon="5.6863">
        <ele>260.6</ele>
        <time>2021-08-30T08:27:26Z</time>
      </trkpt>
      <trkpt lat="45.18357" lon="5.68629">
        <ele>260.7</ele>
        <time>2021-08-30T08:27:28Z</time>
      </trkpt>
      <trkpt lat="45.18357" lon="5.68629">
        <ele>260.7</ele>
        <time>2021-08-30T08:27:29Z</time>
      </trkpt>
      <trkpt lat="45.18358" lon="5.68628">
        <ele>260.7</ele>
        <time>2021-08-30T08:27:30Z</time>
      </trkpt>
      <trkpt lat="45.18358" lon="5.68628">
        <ele>260.8</ele>
        <time>2021-08-30T08:27:31Z</time>
      </trkpt>
      <trkpt lat="45.18358" lon="5.68627">
        <ele>260.8</ele>
        <time>2021-08-30T08:27:32Z</time>
      </trkpt>
      <trkpt lat="45.18359" lon="5.68627">
        <ele>260.9</ele>
        <time>2021-08-30T08:27:34Z</time>
      </trkpt>
      <trkpt lat="45.1836" lon="5.68626">
        <ele>260.9</ele>
        <time>2021-08-30T08:27:35Z</time>
      </trkpt>
      <trkpt lat="45.1836" lon="5.68626">
        <ele>260.9</ele>
        <time>2021-08-30T08:27:37Z</time>
      </trkpt>
      <trkpt lat="45.1836" lon="5.68626">
        <ele>260.9</ele>
        <time>2021-08-30T08:27:38Z</time>
      </trkpt>
      <trkpt lat="45.1836" lon="5.68626">
        <ele>260.9</ele>
        <time>2021-08-30T08:27:39Z</time>
      </trkpt>
      <trkpt lat="45.18361" lon="5.68626">
        <ele>261</ele>
        <time>2021-08-30T08:27:41Z</time>
      </trkpt>
      <trkpt lat="45.18361" lon="5.68626">
        <ele>261</ele>
        <time>2021-08-30T08:27:42Z</time>
      </trkpt>
      <trkpt lat="45.1836" lon="5.68626">
        <ele>261</ele>
        <time>2021-08-30T08:27:44Z</time>
      </trkpt>
      <trkpt lat="45.1836" lon="5.68626">
        <ele>261</ele>
        <time>2021-08-30T08:27:46Z</time>
      </trkpt>
      <trkpt lat="45.18359" lon="5.68626">
        <ele>261.1</ele>
        <time>2021-08-30T08:27:47Z</time>
      </trkpt>
      <trkpt lat="45.18359" lon="5.68626">
        <ele>261.1</ele>
        <time>2021-08-30T08:27:49Z</time>
      </trkpt>
      <trkpt lat="45.18358" lon="5.68626">
        <ele>261.1</ele>
        <time>2021-08-30T08:27:50Z</time>
      </trkpt>
      <trkpt lat="45.18358" lon="5.68626">
        <ele>261.2</ele>
        <time>2021-08-30T08:27:52Z</time>
      </trkpt>
      <trkpt lat="45.18357" lon="5.68627">
        <ele>261.2</ele>
        <time>2021-08-30T08:27:53Z</time>
      </trkpt>
      <trkpt lat="45.18356" lon="5.68627">
        <ele>261.3</ele>
        <time>2021-08-30T08:27:55Z</time>
      </trkpt>
      <trkpt lat="45.18356" lon="5.68627">
        <ele>261.3</ele>
        <time>2021-08-30T08:27:56Z</time>
      </trkpt>
      <trkpt lat="45.18354" lon="5.68628">
        <ele>261.4</ele>
        <time>2021-08-30T08:27:58Z</time>
      </trkpt>
      <trkpt lat="45.18354" lon="5.68628">
        <ele>261.4</ele>
        <time>2021-08-30T08:27:59Z</time>
      </trkpt>
      <trkpt lat="45.18354" lon="5.68628">
        <ele>261.4</ele>
        <time>2021-08-30T08:28:00Z</time>
      </trkpt>
      <trkpt lat="45.18353" lon="5.68629">
        <ele>261.5</ele>
        <time>2021-08-30T08:28:01Z</time>
      </trkpt>
      <trkpt lat="45.18353" lon="5.68629">
        <ele>261.5</ele>
        <time>2021-08-30T08:28:02Z</time>
      </trkpt>
      <trkpt lat="45.18352" lon="5.68629">
        <ele>261.5</ele>
        <time>2021-08-30T08:28:03Z</time>
      </trkpt>
      <trkpt lat="45.18351" lon="5.68628">
        <ele>261.6</ele>
        <time>2021-08-30T08:28:05Z</time>
      </trkpt>
      <trkpt lat="45.1835" lon="5.68624">
        <ele>261.8</ele>
        <time>2021-08-30T08:28:06Z</time>
      </trkpt>
      <trkpt lat="45.18349" lon="5.68623">
        <ele>261.9</ele>
        <time>2021-08-30T08:28:07Z</time>
      </trkpt>
      <trkpt lat="45.18349" lon="5.68621">
        <ele>262</ele>
        <time>2021-08-30T08:28:09Z</time>
      </trkpt>
      <trkpt lat="45.18349" lon="5.68619">
        <ele>262.1</ele>
        <time>2021-08-30T08:28:11Z</time>
      </trkpt>
      <trkpt lat="45.18349" lon="5.68617">
        <ele>262.1</ele>
        <time>2021-08-30T08:28:12Z</time>
      </trkpt>
      <trkpt lat="45.18349" lon="5.68616">
        <ele>262.2</ele>
        <time>2021-08-30T08:28:13Z</time>
      </trkpt>
      <trkpt lat="45.18349" lon="5.68615">
        <ele>262.2</ele>
        <time>2021-08-30T08:28:14Z</time>
      </trkpt>
      <trkpt lat="45.18349" lon="5.68614">
        <ele>262.3</ele>
        <time>2021-08-30T08:28:16Z</time>
      </trkpt>
      <trkpt lat="45.18349" lon="5.68613">
        <ele>262.3</ele>
        <time>2021-08-30T08:28:17Z</time>
      </trkpt>
      <trkpt lat="45.18349" lon="5.68612">
        <ele>262.3</ele>
        <time>2021-08-30T08:28:18Z</time>
      </trkpt>
      <trkpt lat="45.18349" lon="5.68611">
        <ele>262.4</ele>
        <time>2021-08-30T08:28:19Z</time>
      </trkpt>
      <trkpt lat="45.18349" lon="5.68611">
        <ele>262.4</ele>
        <time>2021-08-30T08:28:20Z</time>
      </trkpt>
      <trkpt lat="45.18349" lon="5.6861">
        <ele>262.4</ele>
        <time>2021-08-30T08:28:22Z</time>
      </trkpt>
      <trkpt lat="45.18349" lon="5.6861">
        <ele>262.5</ele>
        <time>2021-08-30T08:28:23Z</time>
      </trkpt>
      <trkpt lat="45.18349" lon="5.68609">
        <ele>262.5</ele>
        <time>2021-08-30T08:28:24Z</time>
      </trkpt>
      <trkpt lat="45.1835" lon="5.68608">
        <ele>262.5</ele>
        <time>2021-08-30T08:28:25Z</time>
      </trkpt>
      <trkpt lat="45.1835" lon="5.68608">
        <ele>262.5</ele>
        <time>2021-08-30T08:28:27Z</time>
      </trkpt>
      <trkpt lat="45.1835" lon="5.68607">
        <ele>262.6</ele>
        <time>2021-08-30T08:28:29Z</time>
      </trkpt>
      <trkpt lat="45.1835" lon="5.68607">
        <ele>262.6</ele>
        <time>2021-08-30T08:28:30Z</time>
      </trkpt>
      <trkpt lat="45.18351" lon="5.68606">
        <ele>262.7</ele>
        <time>2021-08-30T08:28:31Z</time>
      </trkpt>
      <trkpt lat="45.18353" lon="5.68605">
        <ele>262.8</ele>
        <time>2021-08-30T08:28:33Z</time>
      </trkpt>
      <trkpt lat="45.18354" lon="5.68604">
        <ele>262.9</ele>
        <time>2021-08-30T08:28:34Z</time>
      </trkpt>
      <trkpt lat="45.18355" lon="5.68604">
        <ele>262.9</ele>
        <time>2021-08-30T08:28:35Z</time>
      </trkpt>
      <trkpt lat="45.18355" lon="5.68604">
        <ele>262.9</ele>
        <time>2021-08-30T08:28:37Z</time>
      </trkpt>
      <trkpt lat="45.18356" lon="5.68604">
        <ele>262.9</ele>
        <time>2021-08-30T08:28:38Z</time>
      </trkpt>
      <trkpt lat="45.18357" lon="5.68604">
        <ele>263</ele>
        <time>2021-08-30T08:28:40Z</time>
      </trkpt>
      <trkpt lat="45.18357" lon="5.68604">
        <ele>263</ele>
        <time>2021-08-30T08:28:42Z</time>
      </trkpt>
      <trkpt lat="45.18357" lon="5.68605">
        <ele>263</ele>
        <time>2021-08-30T08:28:43Z</time>
      </trkpt>
      <trkpt lat="45.18357" lon="5.68606">
        <ele>263</ele>
        <time>2021-08-30T08:28:45Z</time>
      </trkpt>
      <trkpt lat="45.18356" lon="5.68607">
        <ele>263.1</ele>
        <time>2021-08-30T08:28:46Z</time>
      </trkpt>
      <trkpt lat="45.18356" lon="5.68607">
        <ele>263.1</ele>
        <time>2021-08-30T08:28:47Z</time>
      </trkpt>
      <trkpt lat="45.18356" lon="5.6861">
        <ele>263.2</ele>
        <time>2021-08-30T08:28:48Z</time>
      </trkpt>
      <trkpt lat="45.18355" lon="5.68615">
        <ele>263.4</ele>
        <time>2021-08-30T08:28:50Z</time>
      </trkpt>
      <trkpt lat="45.18354" lon="5.6862">
        <ele>263.6</ele>
        <time>2021-08-30T08:28:52Z</time>
      </trkpt>
      <trkpt lat="45.18353" lon="5.68623">
        <ele>263.7</ele>
        <time>2021-08-30T08:28:54Z</time>
      </trkpt>
      <trkpt lat="45.18353" lon="5.68625">
        <ele>263.7</ele>
        <time>2021-08-30T08:28:55Z</time>
      </trkpt>
      <trkpt lat="45.18353" lon="5.68626">
        <ele>263.8</ele>
        <time>2021-08-30T08:28:56Z</time>
      </trkpt>
      <trkpt lat="45.18353" lon="5.68626">
        <ele>263.8</ele>
        <time>2021-08-30T08:28:58Z</time>
      </trkpt>
      <trkpt lat="45.18354" lon="5.68625">
        <ele>263.8</ele>
        <time>2021-08-30T08:29:00Z</time>
      </trkpt>
      <trkpt lat="45.18354" lon="5.68624">
        <ele>263.8</ele>
        <time>2021-08-30T08:29:01Z</time>
      </trkpt>
      <trkpt lat="45.18354" lon="5.68624">
        <ele>263.9</ele>
        <time>2021-08-30T08:29:02Z</time>
      </trkpt>
      <trkpt lat="45.18353" lon="5.68624">
        <ele>263.9</ele>
        <time>2021-08-30T08:29:03Z</time>
      </trkpt>
      <trkpt lat="45.18352" lon="5.68624">
        <ele>263.9</ele>
        <time>2021-08-30T08:29:05Z</time>
      </trkpt>
      <trkpt lat="45.18351" lon="5.68624">
        <ele>264</ele>
        <time>2021-08-30T08:29:07Z</time>
      </trkpt>
      <trkpt lat="45.18351" lon="5.68624">
        <ele>264</ele>
        <time>2021-08-30T08:29:08Z</time>
      </trkpt>
      <trkpt lat="45.1835" lon="5.68625">
        <ele>264</ele>
        <time>2021-08-30T08:29:10Z</time>
      </trkpt>
      <trkpt lat="45.1835" lon="5.68627">
        <ele>264.1</ele>
        <time>2021-08-30T08:29:11Z</time>
      </trkpt>
      <trkpt lat="45.18349" lon="5.68631">
        <ele>264.2</ele>
        <time>2021-08-30T08:29:12Z</time>
      </trkpt>
      <trkpt lat="45.18347" lon="5.68642">
        <ele>264.6</ele>
        <time>2021-08-30T08:29:13Z</time>
      </trkpt>
      <trkpt lat="45.18345" lon="5.68651">
        <ele>264.9</ele>
        <time>2021-08-30T08:29:15Z</time>
      </trkpt>
      <trkpt lat="45.18343" lon="5.6866">
        <ele>265.1</ele>
        <time>2021-08-30T08:29:16Z</time>
      </trkpt>
      <trkpt lat="45.18343" lon="5.68665">
        <ele>265.3</ele>
        <time>2021-08-30T08:29:18Z</time>
      </trkpt>
      <trkpt lat="45.18346" lon="5.68667">
        <ele>265.4</ele>
        <time>2021-08-30T08:29:19Z</time>
      </trkpt>
      <trkpt lat="45.18348" lon="5.68668">
        <ele>265.5</ele>
        <time>2021-08-30T08:29:20Z</time>
      </trkpt>
      <trkpt lat="45.18351" lon="5.68671">
        <ele>265.6</ele>
        <time>2021-08-30T08:29:21Z</time>
      </trkpt>
      <trkpt lat="45.18354" lon="5.68672">
        <ele>265.7</ele>
        <time>2021-08-30T08:29:23Z</time>
      </trkpt>
      <trkpt lat="45.18356" lon="5.68673">
        <ele>265.8</ele>
        <time>2021-08-30T08:29:24Z</time>
      </trkpt>
      <trkpt lat="45.1836" lon="5.68673">
        <ele>266</ele>
        <time>2021-08-30T08:29:26Z</time>
      </trkpt>
      <trkpt lat="45.18367" lon="5.68663">
        <ele>266.4</ele>
        <time>2021-08-30T08:29:27Z</time>
      </trkpt>
      <trkpt lat="45.18369" lon="5.68658">
        <ele>266.6</ele>
        <time>2021-08-30T08:29:29Z</time>
      </trkpt>
      <trkpt lat="45.1837" lon="5.68656">
        <ele>266.6</ele>
        <time>2021-08-30T08:29:30Z</time>
      </trkpt>
      <trkpt lat="45.1837" lon="5.68655">
        <ele>266.6</ele>
        <time>2021-08-30T08:29:32Z</time>
      </trkpt>
      <trkpt lat="45.1837" lon="5.68655">
        <ele>266.6</ele>
        <time>2021-08-30T08:29:34Z</time>
      </trkpt>
      <trkpt lat="45.18379" lon="5.68669">
        <ele>269.1</ele>
        <time>2021-08-30T08:29:52Z</time>
      </trkpt>
      <trkpt lat="45.18381" lon="5.68671">
        <ele>269.2</ele>
        <time>2021-08-30T08:29:53Z</time>
      </trkpt>
      <trkpt lat="45.18381" lon="5.68672">
        <ele>269.3</ele>
        <time>2021-08-30T08:29:54Z</time>
      </trkpt>
      <trkpt lat="45.18382" lon="5.68676">
        <ele>269.5</ele>
        <time>2021-08-30T08:29:56Z</time>
      </trkpt>
      <trkpt lat="45.18383" lon="5.68677">
        <ele>269.5</ele>
        <time>2021-08-30T08:29:58Z</time>
      </trkpt>
      <trkpt lat="45.18383" lon="5.68677">
        <ele>269.5</ele>
        <time>2021-08-30T08:29:59Z</time>
      </trkpt>
      <trkpt lat="45.18383" lon="5.68676">
        <ele>269.5</ele>
        <time>2021-08-30T08:30:00Z</time>
      </trkpt>
      <trkpt lat="45.18383" lon="5.68676">
        <ele>269.6</ele>
        <time>2021-08-30T08:30:02Z</time>
      </trkpt>
      <trkpt lat="45.18383" lon="5.68676">
        <ele>269.6</ele>
        <time>2021-08-30T08:30:03Z</time>
      </trkpt>
      <trkpt lat="45.18384" lon="5.68676">
        <ele>269.6</ele>
        <time>2021-08-30T08:30:05Z</time>
      </trkpt>
      <trkpt lat="45.18384" lon="5.68677">
        <ele>269.6</ele>
        <time>2021-08-30T08:30:06Z</time>
      </trkpt>
      <trkpt lat="45.18445" lon="5.68521">
        <ele>289.7</ele>
        <time>2021-08-30T08:33:25Z</time>
      </trkpt>
      <trkpt lat="45.18445" lon="5.68519">
        <ele>289.8</ele>
        <time>2021-08-30T08:33:26Z</time>
      </trkpt>
      <trkpt lat="45.18445" lon="5.68517">
        <ele>289.9</ele>
        <time>2021-08-30T08:33:28Z</time>
      </trkpt>
      <trkpt lat="45.18444" lon="5.68517">
        <ele>290</ele>
        <time>2021-08-30T08:33:29Z</time>
      </trkpt>
      <trkpt lat="45.18443" lon="5.68516">
        <ele>290.1</ele>
        <time>2021-08-30T08:33:30Z</time>
      </trkpt>
      <trkpt lat="45.18442" lon="5.68516">
        <ele>290.1</ele>
        <time>2021-08-30T08:33:31Z</time>
      </trkpt>
      <trkpt lat="45.18441" lon="5.68515">
        <ele>290.2</ele>
        <time>2021-08-30T08:33:33Z</time>
      </trkpt>
      <trkpt lat="45.18441" lon="5.68515">
        <ele>290.2</ele>
        <time>2021-08-30T08:33:34Z</time>
      </trkpt>
      <trkpt lat="45.18439" lon="5.68515">
        <ele>290.4</ele>
        <time>2021-08-30T08:33:35Z</time>
      </trkpt>
      <trkpt lat="45.18437" lon="5.68515">
        <ele>290.5</ele>
        <time>2021-08-30T08:33:37Z</time>
      </trkpt>
      <trkpt lat="45.18437" lon="5.68515">
        <ele>290.5</ele>
        <time>2021-08-30T08:33:38Z</time>
      </trkpt>
      <trkpt lat="45.18453" lon="5.68489">
        <ele>292.5</ele>
        <time>2021-08-30T08:34:08Z</time>
      </trkpt>
      <trkpt lat="45.18456" lon="5.68485">
        <ele>292.8</ele>
        <time>2021-08-30T08:34:09Z</time>
      </trkpt>
      <trkpt lat="45.18459" lon="5.68479">
        <ele>293.2</ele>
        <time>2021-08-30T08:34:11Z</time>
      </trkpt>
      <trkpt lat="45.18461" lon="5.68477">
        <ele>293.4</ele>
        <time>2021-08-30T08:34:13Z</time>
      </trkpt>
      <trkpt lat="45.18462" lon="5.68476">
        <ele>293.5</ele>
        <time>2021-08-30T08:34:14Z</time>
      </trkpt>
      <trkpt lat="45.18461" lon="5.68474">
        <ele>293.6</ele>
        <time>2021-08-30T08:34:16Z</time>
      </trkpt>
      <trkpt lat="45.18461" lon="5.68473">
        <ele>293.7</ele>
        <time>2021-08-30T08:34:17Z</time>
      </trkpt>
      <trkpt lat="45.1846" lon="5.68473">
        <ele>293.7</ele>
        <time>2021-08-30T08:34:18Z</time>
      </trkpt>
      <trkpt lat="45.18459" lon="5.68473">
        <ele>293.8</ele>
        <time>2021-08-30T08:34:20Z</time>
      </trkpt>
      <trkpt lat="45.18458" lon="5.68473">
        <ele>293.9</ele>
        <time>2021-08-30T08:34:21Z</time>
      </trkpt>
      <trkpt lat="45.18458" lon="5.68473">
        <ele>293.9</ele>
        <time>2021-08-30T08:34:23Z</time>
      </trkpt>
      <trkpt lat="45.18458" lon="5.68473">
        <ele>293.9</ele>
        <time>2021-08-30T08:34:24Z</time>
      </trkpt>
      <trkpt lat="45.18457" lon="5.68473">
        <ele>293.9</ele>
        <time>2021-08-30T08:34:25Z</time>
      </trkpt>
      <trkpt lat="45.18458" lon="5.68472">
        <ele>294</ele>
        <time>2021-08-30T08:34:26Z</time>
      </trkpt>
      <trkpt lat="45.18463" lon="5.68427">
        <ele>297</ele>
        <time>2021-08-30T08:35:09Z</time>
      </trkpt>
      <trkpt lat="45.18464" lon="5.68422">
        <ele>297.2</ele>
        <time>2021-08-30T08:35:11Z</time>
      </trkpt>
      <trkpt lat="45.18462" lon="5.68419">
        <ele>297.4</ele>
        <time>2021-08-30T08:35:13Z</time>
      </trkpt>
      <trkpt lat="45.18461" lon="5.68414">
        <ele>297.6</ele>
        <time>2021-08-30T08:35:14Z</time>
      </trkpt>
      <trkpt lat="45.1846" lon="5.68409">
        <ele>297.9</ele>
        <time>2021-08-30T08:35:16Z</time>
      </trkpt>
      <trkpt lat="45.18454" lon="5.68401">
        <ele>298.4</ele>
        <time>2021-08-30T08:35:18Z</time>
      </trkpt>
      <trkpt lat="45.18451" lon="5.68399">
        <ele>298.6</ele>
        <time>2021-08-30T08:35:19Z</time>
      </trkpt>
      <trkpt lat="45.18447" lon="5.68396">
        <ele>298.9</ele>
        <time>2021-08-30T08:35:21Z</time>
      </trkpt>
      <trkpt lat="45.18443" lon="5.68394">
        <ele>299</ele>
        <time>2021-08-30T08:35:22Z</time>
      </trkpt>
      <trkpt lat="45.18441" lon="5.68393">
        <ele>299</ele>
        <time>2021-08-30T08:35:23Z</time>
      </trkpt>
      <trkpt lat="45.18439" lon="5.68392">
        <ele>299.1</ele>
        <time>2021-08-30T08:35:24Z</time>
      </trkpt>
      <trkpt lat="45.18435" lon="5.68391">
        <ele>299.1</ele>
        <time>2021-08-30T08:35:26Z</time>
      </trkpt>
      <trkpt lat="45.18431" lon="5.6839">
        <ele>299.2</ele>
        <time>2021-08-30T08:35:27Z</time>
      </trkpt>
      <trkpt lat="45.18428" lon="5.68391">
        <ele>299.2</ele>
        <time>2021-08-30T08:35:28Z</time>
      </trkpt>
      <trkpt lat="45.18424" lon="5.68392">
        <ele>299.2</ele>
        <time>2021-08-30T08:35:30Z</time>
      </trkpt>
      <trkpt lat="45.18423" lon="5.68392">
        <ele>299.2</ele>
        <time>2021-08-30T08:35:31Z</time>
      </trkpt>
      <trkpt lat="45.18423" lon="5.68393">
        <ele>299.2</ele>
        <time>2021-08-30T08:35:32Z</time>
      </trkpt>
      <trkpt lat="45.18423" lon="5.68393">
        <ele>299.2</ele>
        <time>2021-08-30T08:35:33Z</time>
      </trkpt>
      <trkpt lat="45.18484" lon="5.68344">
        <ele>300.9</ele>
        <time>2021-08-30T08:36:57Z</time>
      </trkpt>
      <trkpt lat="45.18487" lon="5.6834">
        <ele>301.2</ele>
        <time>2021-08-30T08:36:58Z</time>
      </trkpt>
      <trkpt lat="45.1849" lon="5.68335">
        <ele>301.6</ele>
        <time>2021-08-30T08:37:00Z</time>
      </trkpt>
      <trkpt lat="45.18493" lon="5.68331">
        <ele>301.9</ele>
        <time>2021-08-30T08:37:02Z</time>
      </trkpt>
      <trkpt lat="45.18494" lon="5.68328">
        <ele>302</ele>
        <time>2021-08-30T08:37:03Z</time>
      </trkpt>
      <trkpt lat="45.18494" lon="5.68328">
        <ele>302.1</ele>
        <time>2021-08-30T08:37:04Z</time>
      </trkpt>
      <trkpt lat="45.18495" lon="5.68327">
        <ele>302.1</ele>
        <time>2021-08-30T08:37:05Z</time>
      </trkpt>
      <trkpt lat="45.18495" lon="5.68327">
        <ele>302.1</ele>
        <time>2021-08-30T08:37:07Z</time>
      </trkpt>
      <trkpt lat="45.18495" lon="5.68327">
        <ele>302.1</ele>
        <time>2021-08-30T08:37:08Z</time>
      </trkpt>
      <trkpt lat="45.18507" lon="5.68313">
        <ele>303.4</ele>
        <time>2021-08-30T08:37:19Z</time>
      </trkpt>
      <trkpt lat="45.18511" lon="5.68312">
        <ele>303.8</ele>
        <time>2021-08-30T08:37:22Z</time>
      </trkpt>
      <trkpt lat="45.18514" lon="5.6831">
        <ele>304</ele>
        <time>2021-08-30T08:37:24Z</time>
      </trkpt>
      <trkpt lat="45.18516" lon="5.68309">
        <ele>304.2</ele>
        <time>2021-08-30T08:37:25Z</time>
      </trkpt>
      <trkpt lat="45.18518" lon="5.68308">
        <ele>304.4</ele>
        <time>2021-08-30T08:37:27Z</time>
      </trkpt>
      <trkpt lat="45.1852" lon="5.68305">
        <ele>304.6</ele>
        <time>2021-08-30T08:37:28Z</time>
      </trkpt>
      <trkpt lat="45.18521" lon="5.68304">
        <ele>304.8</ele>
        <time>2021-08-30T08:37:29Z</time>
      </trkpt>
      <trkpt lat="45.18523" lon="5.68301">
        <ele>305.1</ele>
        <time>2021-08-30T08:37:31Z</time>
      </trkpt>
      <trkpt lat="45.18524" lon="5.683">
        <ele>305.2</ele>
        <time>2021-08-30T08:37:32Z</time>
      </trkpt>
      <trkpt lat="45.18526" lon="5.68296">
        <ele>305.4</ele>
        <time>2021-08-30T08:37:34Z</time>
      </trkpt>
      <trkpt lat="45.18527" lon="5.68295">
        <ele>305.5</ele>
        <time>2021-08-30T08:37:35Z</time>
      </trkpt>
      <trkpt lat="45.18528" lon="5.68293">
        <ele>305.7</ele>
        <time>2021-08-30T08:37:36Z</time>
      </trkpt>
      <trkpt lat="45.1853" lon="5.68291">
        <ele>305.9</ele>
        <time>2021-08-30T08:37:38Z</time>
      </trkpt>
      <trkpt lat="45.18532" lon="5.68285">
        <ele>306.2</ele>
        <time>2021-08-30T08:37:40Z</time>
      </trkpt>
      <trkpt lat="45.18533" lon="5.68283">
        <ele>306.3</ele>
        <time>2021-08-30T08:37:41Z</time>
      </trkpt>
      <trkpt lat="45.18534" lon="5.6828">
        <ele>306.5</ele>
        <time>2021-08-30T08:37:43Z</time>
      </trkpt>
      <trkpt lat="45.18535" lon="5.68272">
        <ele>307</ele>
        <time>2021-08-30T08:37:44Z</time>
      </trkpt>
      <trkpt lat="45.18536" lon="5.68257">
        <ele>307.7</ele>
        <time>2021-08-30T08:37:45Z</time>
      </trkpt>
      <trkpt lat="45.18537" lon="5.68246">
        <ele>308.2</ele>
        <time>2021-08-30T08:37:47Z</time>
      </trkpt>
      <trkpt lat="45.18538" lon="5.68232">
        <ele>308.8</ele>
        <time>2021-08-30T08:37:48Z</time>
      </trkpt>
      <trkpt lat="45.18541" lon="5.68219">
        <ele>309.5</ele>
        <time>2021-08-30T08:37:50Z</time>
      </trkpt>
      <trkpt lat="45.18541" lon="5.68215">
        <ele>309.8</ele>
        <time>2021-08-30T08:37:51Z</time>
      </trkpt>
      <trkpt lat="45.18541" lon="5.68211">
        <ele>310</ele>
        <time>2021-08-30T08:37:53Z</time>
      </trkpt>
      <trkpt lat="45.1854" lon="5.68207">
        <ele>310.3</ele>
        <time>2021-08-30T08:37:55Z</time>
      </trkpt>
      <trkpt lat="45.1854" lon="5.68205">
        <ele>310.3</ele>
        <time>2021-08-30T08:37:56Z</time>
      </trkpt>
      <trkpt lat="45.1854" lon="5.68205">
        <ele>310.4</ele>
        <time>2021-08-30T08:37:58Z</time>
      </trkpt>
      <trkpt lat="45.1854" lon="5.68204">
        <ele>310.4</ele>
        <time>2021-08-30T08:37:59Z</time>
      </trkpt>
      <trkpt lat="45.18539" lon="5.68204">
        <ele>310.4</ele>
        <time>2021-08-30T08:38:00Z</time>
      </trkpt>
      <trkpt lat="45.18539" lon="5.68204">
        <ele>310.5</ele>
        <time>2021-08-30T08:38:01Z</time>
      </trkpt>
      <trkpt lat="45.18548" lon="5.68178">
        <ele>312.3</ele>
        <time>2021-08-30T08:38:15Z</time>
      </trkpt>
      <trkpt lat="45.1855" lon="5.68172">
        <ele>312.6</ele>
        <time>2021-08-30T08:38:17Z</time>
      </trkpt>
      <trkpt lat="45.18551" lon="5.68166">
        <ele>313</ele>
        <time>2021-08-30T08:38:19Z</time>
      </trkpt>
      <trkpt lat="45.18551" lon="5.68163">
        <ele>313.1</ele>
        <time>2021-08-30T08:38:20Z</time>
      </trkpt>
      <trkpt lat="45.18552" lon="5.6816">
        <ele>313.3</ele>
        <time>2021-08-30T08:38:21Z</time>
      </trkpt>
      <trkpt lat="45.18552" lon="5.68159">
        <ele>313.3</ele>
        <time>2021-08-30T08:38:22Z</time>
      </trkpt>
      <trkpt lat="45.18553" lon="5.68156">
        <ele>313.5</ele>
        <time>2021-08-30T08:38:24Z</time>
      </trkpt>
      <trkpt lat="45.18554" lon="5.68155">
        <ele>313.6</ele>
        <time>2021-08-30T08:38:26Z</time>
      </trkpt>
      <trkpt lat="45.18555" lon="5.68153">
        <ele>313.7</ele>
        <time>2021-08-30T08:38:27Z</time>
      </trkpt>
      <trkpt lat="45.18557" lon="5.68148">
        <ele>313.9</ele>
        <time>2021-08-30T08:38:29Z</time>
      </trkpt>
      <trkpt lat="45.18558" lon="5.68147">
        <ele>313.9</ele>
        <time>2021-08-30T08:38:30Z</time>
      </trkpt>
      <trkpt lat="45.18559" lon="5.68144">
        <ele>314.1</ele>
        <time>2021-08-30T08:38:32Z</time>
      </trkpt>
      <trkpt lat="45.1857" lon="5.68055">
        <ele>316.4</ele>
        <time>2021-08-30T08:39:01Z</time>
      </trkpt>
      <trkpt lat="45.18569" lon="5.68047">
        <ele>316.7</ele>
        <time>2021-08-30T08:39:02Z</time>
      </trkpt>
      <trkpt lat="45.18568" lon="5.68042">
        <ele>317</ele>
        <time>2021-08-30T08:39:04Z</time>
      </trkpt>
      <trkpt lat="45.18567" lon="5.68038">
        <ele>317.2</ele>
        <time>2021-08-30T08:39:05Z</time>
      </trkpt>
      <trkpt lat="45.18566" lon="5.68032">
        <ele>317.4</ele>
        <time>2021-08-30T08:39:06Z</time>
      </trkpt>
      <trkpt lat="45.18565" lon="5.68027">
        <ele>317.6</ele>
        <time>2021-08-30T08:39:08Z</time>
      </trkpt>
      <trkpt lat="45.18563" lon="5.68021">
        <ele>317.9</ele>
        <time>2021-08-30T08:39:10Z</time>
      </trkpt>
      <trkpt lat="45.18563" lon="5.68016">
        <ele>318.1</ele>
        <time>2021-08-30T08:39:11Z</time>
      </trkpt>
      <trkpt lat="45.18563" lon="5.68015">
        <ele>318.1</ele>
        <time>2021-08-30T08:39:12Z</time>
      </trkpt>
      <trkpt lat="45.18562" lon="5.68012">
        <ele>318.2</ele>
        <time>2021-08-30T08:39:13Z</time>
      </trkpt>
      <trkpt lat="45.18561" lon="5.68011">
        <ele>318.2</ele>
        <time>2021-08-30T08:39:14Z</time>
      </trkpt>
      <trkpt lat="45.18562" lon="5.68005">
        <ele>318.4</ele>
        <time>2021-08-30T08:39:16Z</time>
      </trkpt>
      <trkpt lat="45.18563" lon="5.68003">
        <ele>318.5</ele>
        <time>2021-08-30T08:39:17Z</time>
      </trkpt>
      <trkpt lat="45.18565" lon="5.68">
        <ele>318.6</ele>
        <time>2021-08-30T08:39:19Z</time>
      </trkpt>
      <trkpt lat="45.18564" lon="5.67999">
        <ele>318.6</ele>
        <time>2021-08-30T08:39:20Z</time>
      </trkpt>
      <trkpt lat="45.18563" lon="5.67997">
        <ele>318.7</ele>
        <time>2021-08-30T08:39:21Z</time>
      </trkpt>
      <trkpt lat="45.18563" lon="5.67996">
        <ele>318.7</ele>
        <time>2021-08-30T08:39:22Z</time>
      </trkpt>
      <trkpt lat="45.18563" lon="5.67995">
        <ele>318.8</ele>
        <time>2021-08-30T08:39:24Z</time>
      </trkpt>
      <trkpt lat="45.18563" lon="5.67993">
        <ele>318.8</ele>
        <time>2021-08-30T08:39:25Z</time>
      </trkpt>
      <trkpt lat="45.18562" lon="5.6799">
        <ele>318.9</ele>
        <time>2021-08-30T08:39:27Z</time>
      </trkpt>
      <trkpt lat="45.18563" lon="5.67986">
        <ele>319</ele>
        <time>2021-08-30T08:39:29Z</time>
      </trkpt>
      <trkpt lat="45.18564" lon="5.67979">
        <ele>319.3</ele>
        <time>2021-08-30T08:39:30Z</time>
      </trkpt>
      <trkpt lat="45.18564" lon="5.67975">
        <ele>319.4</ele>
        <time>2021-08-30T08:39:32Z</time>
      </trkpt>
      <trkpt lat="45.18561" lon="5.6797">
        <ele>319.7</ele>
        <time>2021-08-30T08:39:34Z</time>
      </trkpt>
      <trkpt lat="45.1856" lon="5.67966">
        <ele>319.9</ele>
        <time>2021-08-30T08:39:35Z</time>
      </trkpt>
      <trkpt lat="45.1856" lon="5.67959">
        <ele>320.2</ele>
        <time>2021-08-30T08:39:37Z</time>
      </trkpt>
      <trkpt lat="45.18561" lon="5.67956">
        <ele>320.3</ele>
        <time>2021-08-30T08:39:38Z</time>
      </trkpt>
      <trkpt lat="45.18561" lon="5.67954">
        <ele>320.4</ele>
        <time>2021-08-30T08:39:39Z</time>
      </trkpt>
      <trkpt lat="45.18563" lon="5.67948">
        <ele>320.7</ele>
        <time>2021-08-30T08:39:40Z</time>
      </trkpt>
      <trkpt lat="45.18564" lon="5.67944">
        <ele>321</ele>
        <time>2021-08-30T08:39:42Z</time>
      </trkpt>
      <trkpt lat="45.18565" lon="5.6794">
        <ele>321.2</ele>
        <time>2021-08-30T08:39:43Z</time>
      </trkpt>
      <trkpt lat="45.18565" lon="5.67938">
        <ele>321.3</ele>
        <time>2021-08-30T08:39:44Z</time>
      </trkpt>
      <trkpt lat="45.18564" lon="5.67936">
        <ele>321.4</ele>
        <time>2021-08-30T08:39:46Z</time>
      </trkpt>
      <trkpt lat="45.18564" lon="5.67935">
        <ele>321.5</ele>
        <time>2021-08-30T08:39:47Z</time>
      </trkpt>
      <trkpt lat="45.18564" lon="5.67935">
        <ele>321.5</ele>
        <time>2021-08-30T08:39:48Z</time>
      </trkpt>
      <trkpt lat="45.18563" lon="5.67933">
        <ele>321.6</ele>
        <time>2021-08-30T08:39:49Z</time>
      </trkpt>
      <trkpt lat="45.18564" lon="5.67929">
        <ele>321.9</ele>
        <time>2021-08-30T08:39:51Z</time>
      </trkpt>
      <trkpt lat="45.18565" lon="5.67925">
        <ele>322.1</ele>
        <time>2021-08-30T08:39:52Z</time>
      </trkpt>
      <trkpt lat="45.18565" lon="5.67923">
        <ele>322.2</ele>
        <time>2021-08-30T08:39:53Z</time>
      </trkpt>
      <trkpt lat="45.18567" lon="5.67919">
        <ele>322.6</ele>
        <time>2021-08-30T08:39:54Z</time>
      </trkpt>
      <trkpt lat="45.18568" lon="5.67917">
        <ele>322.7</ele>
        <time>2021-08-30T08:39:55Z</time>
      </trkpt>
      <trkpt lat="45.1857" lon="5.6791">
        <ele>323.3</ele>
        <time>2021-08-30T08:39:56Z</time>
      </trkpt>
      <trkpt lat="45.18572" lon="5.67905">
        <ele>323.7</ele>
        <time>2021-08-30T08:39:57Z</time>
      </trkpt>
      <trkpt lat="45.18574" lon="5.67901">
        <ele>324.1</ele>
        <time>2021-08-30T08:39:59Z</time>
      </trkpt>
      <trkpt lat="45.18576" lon="5.67897">
        <ele>324.4</ele>
        <time>2021-08-30T08:40:00Z</time>
      </trkpt>
      <trkpt lat="45.18579" lon="5.67895">
        <ele>324.7</ele>
        <time>2021-08-30T08:40:02Z</time>
      </trkpt>
      <trkpt lat="45.1858" lon="5.67894">
        <ele>324.8</ele>
        <time>2021-08-30T08:40:03Z</time>
      </trkpt>
      <trkpt lat="45.1858" lon="5.67894">
        <ele>324.9</ele>
        <time>2021-08-30T08:40:04Z</time>
      </trkpt>
      <trkpt lat="45.18581" lon="5.67894">
        <ele>325</ele>
        <time>2021-08-30T08:40:05Z</time>
      </trkpt>
      <trkpt lat="45.18582" lon="5.67892">
        <ele>325.1</ele>
        <time>2021-08-30T08:40:07Z</time>
      </trkpt>
      <trkpt lat="45.18585" lon="5.67887">
        <ele>325.6</ele>
        <time>2021-08-30T08:40:09Z</time>
      </trkpt>
      <trkpt lat="45.1859" lon="5.67881">
        <ele>326.3</ele>
        <time>2021-08-30T08:40:11Z</time>
      </trkpt>
      <trkpt lat="45.18593" lon="5.67878">
        <ele>326.7</ele>
        <time>2021-08-30T08:40:12Z</time>
      </trkpt>
      <trkpt lat="45.18597" lon="5.67875">
        <ele>327.1</ele>
        <time>2021-08-30T08:40:13Z</time>
      </trkpt>
      <trkpt lat="45.18601" lon="5.67865">
        <ele>328</ele>
        <time>2021-08-30T08:40:15Z</time>
      </trkpt>
      <trkpt lat="45.18603" lon="5.6786">
        <ele>328.4</ele>
        <time>2021-08-30T08:40:16Z</time>
      </trkpt>
      <trkpt lat="45.18606" lon="5.67857">
        <ele>328.8</ele>
        <time>2021-08-30T08:40:17Z</time>
      </trkpt>
      <trkpt lat="45.18609" lon="5.67853">
        <ele>329.1</ele>
        <time>2021-08-30T08:40:19Z</time>
      </trkpt>
      <trkpt lat="45.18607" lon="5.6785">
        <ele>329.3</ele>
        <time>2021-08-30T08:40:21Z</time>
      </trkpt>
      <trkpt lat="45.18607" lon="5.6785">
        <ele>329.4</ele>
        <time>2021-08-30T08:40:22Z</time>
      </trkpt>
      <trkpt lat="45.18607" lon="5.6785">
        <ele>329.4</ele>
        <time>2021-08-30T08:40:23Z</time>
      </trkpt>
      <trkpt lat="45.18609" lon="5.67849">
        <ele>329.6</ele>
        <time>2021-08-30T08:40:25Z</time>
      </trkpt>
      <trkpt lat="45.18609" lon="5.67848">
        <ele>329.7</ele>
        <time>2021-08-30T08:40:26Z</time>
      </trkpt>
      <trkpt lat="45.18608" lon="5.67846">
        <ele>329.8</ele>
        <time>2021-08-30T08:40:28Z</time>
      </trkpt>
      <trkpt lat="45.18609" lon="5.67839">
        <ele>330.2</ele>
        <time>2021-08-30T08:40:30Z</time>
      </trkpt>
      <trkpt lat="45.18609" lon="5.67831">
        <ele>330.7</ele>
        <time>2021-08-30T08:40:32Z</time>
      </trkpt>
      <trkpt lat="45.18611" lon="5.67829">
        <ele>330.9</ele>
        <time>2021-08-30T08:40:34Z</time>
      </trkpt>
      <trkpt lat="45.18615" lon="5.67826">
        <ele>331.2</ele>
        <time>2021-08-30T08:40:36Z</time>
      </trkpt>
      <trkpt lat="45.18618" lon="5.67823">
        <ele>331.4</ele>
        <time>2021-08-30T08:40:37Z</time>
      </trkpt>
      <trkpt lat="45.1862" lon="5.6782">
        <ele>331.6</ele>
        <time>2021-08-30T08:40:39Z</time>
      </trkpt>
      <trkpt lat="45.1862" lon="5.67818">
        <ele>331.7</ele>
        <time>2021-08-30T08:40:40Z</time>
      </trkpt>
      <trkpt lat="45.18621" lon="5.67816">
        <ele>331.8</ele>
        <time>2021-08-30T08:40:41Z</time>
      </trkpt>
      <trkpt lat="45.18624" lon="5.67813">
        <ele>332</ele>
        <time>2021-08-30T08:40:42Z</time>
      </trkpt>
      <trkpt lat="45.18625" lon="5.67812">
        <ele>332.1</ele>
        <time>2021-08-30T08:40:43Z</time>
      </trkpt>
      <trkpt lat="45.18626" lon="5.67809">
        <ele>332.2</ele>
        <time>2021-08-30T08:40:44Z</time>
      </trkpt>
      <trkpt lat="45.18626" lon="5.67807">
        <ele>332.3</ele>
        <time>2021-08-30T08:40:46Z</time>
      </trkpt>
      <trkpt lat="45.18626" lon="5.67805">
        <ele>332.4</ele>
        <time>2021-08-30T08:40:47Z</time>
      </trkpt>
      <trkpt lat="45.18625" lon="5.67803">
        <ele>332.4</ele>
        <time>2021-08-30T08:40:48Z</time>
      </trkpt>
      <trkpt lat="45.18624" lon="5.67802">
        <ele>332.5</ele>
        <time>2021-08-30T08:40:49Z</time>
      </trkpt>
      <trkpt lat="45.18623" lon="5.678">
        <ele>332.6</ele>
        <time>2021-08-30T08:40:50Z</time>
      </trkpt>
      <trkpt lat="45.18625" lon="5.67797">
        <ele>332.8</ele>
        <time>2021-08-30T08:40:52Z</time>
      </trkpt>
      <trkpt lat="45.18626" lon="5.67796">
        <ele>332.8</ele>
        <time>2021-08-30T08:40:53Z</time>
      </trkpt>
      <trkpt lat="45.18628" lon="5.67794">
        <ele>332.9</ele>
        <time>2021-08-30T08:40:54Z</time>
      </trkpt>
      <trkpt lat="45.18629" lon="5.6779">
        <ele>333.1</ele>
        <time>2021-08-30T08:40:56Z</time>
      </trkpt>
      <trkpt lat="45.1863" lon="5.67789">
        <ele>333.1</ele>
        <time>2021-08-30T08:40:57Z</time>
      </trkpt>
      <trkpt lat="45.18632" lon="5.67788">
        <ele>333.3</ele>
        <time>2021-08-30T08:40:58Z</time>
      </trkpt>
      <trkpt lat="45.18634" lon="5.67788">
        <ele>333.3</ele>
        <time>2021-08-30T08:40:59Z</time>
      </trkpt>
      <trkpt lat="45.18637" lon="5.67788">
        <ele>333.5</ele>
        <time>2021-08-30T08:41:01Z</time>
      </trkpt>
      <trkpt lat="45.18638" lon="5.67787">
        <ele>333.6</ele>
        <time>2021-08-30T08:41:02Z</time>
      </trkpt>
      <trkpt lat="45.18641" lon="5.67784">
        <ele>333.7</ele>
        <time>2021-08-30T08:41:04Z</time>
      </trkpt>
      <trkpt lat="45.18642" lon="5.6778">
        <ele>333.9</ele>
        <time>2021-08-30T08:41:05Z</time>
      </trkpt>
      <trkpt lat="45.18643" lon="5.67776">
        <ele>334.1</ele>
        <time>2021-08-30T08:41:07Z</time>
      </trkpt>
      <trkpt lat="45.18643" lon="5.67775">
        <ele>334.2</ele>
        <time>2021-08-30T08:41:08Z</time>
      </trkpt>
      <trkpt lat="45.18645" lon="5.6777">
        <ele>334.4</ele>
        <time>2021-08-30T08:41:09Z</time>
      </trkpt>
      <trkpt lat="45.18647" lon="5.67764">
        <ele>334.7</ele>
        <time>2021-08-30T08:41:11Z</time>
      </trkpt>
      <trkpt lat="45.18649" lon="5.67757">
        <ele>335.2</ele>
        <time>2021-08-30T08:41:12Z</time>
      </trkpt>
      <trkpt lat="45.18651" lon="5.67752">
        <ele>335.5</ele>
        <time>2021-08-30T08:41:14Z</time>
      </trkpt>
      <trkpt lat="45.18655" lon="5.67749">
        <ele>335.9</ele>
        <time>2021-08-30T08:41:15Z</time>
      </trkpt>
      <trkpt lat="45.18657" lon="5.67748">
        <ele>336</ele>
        <time>2021-08-30T08:41:16Z</time>
      </trkpt>
      <trkpt lat="45.18661" lon="5.67747">
        <ele>336.4</ele>
        <time>2021-08-30T08:41:18Z</time>
      </trkpt>
      <trkpt lat="45.18663" lon="5.67747">
        <ele>336.5</ele>
        <time>2021-08-30T08:41:19Z</time>
      </trkpt>
      <trkpt lat="45.18665" lon="5.67746">
        <ele>336.6</ele>
        <time>2021-08-30T08:41:20Z</time>
      </trkpt>
      <trkpt lat="45.18668" lon="5.67742">
        <ele>336.9</ele>
        <time>2021-08-30T08:41:22Z</time>
      </trkpt>
      <trkpt lat="45.18669" lon="5.6774">
        <ele>337</ele>
        <time>2021-08-30T08:41:23Z</time>
      </trkpt>
      <trkpt lat="45.18671" lon="5.67737">
        <ele>337.1</ele>
        <time>2021-08-30T08:41:25Z</time>
      </trkpt>
      <trkpt lat="45.18673" lon="5.67735">
        <ele>337.2</ele>
        <time>2021-08-30T08:41:26Z</time>
      </trkpt>
      <trkpt lat="45.18677" lon="5.67733">
        <ele>337.4</ele>
        <time>2021-08-30T08:41:28Z</time>
      </trkpt>
      <trkpt lat="45.18683" lon="5.67734">
        <ele>337.6</ele>
        <time>2021-08-30T08:41:30Z</time>
      </trkpt>
      <trkpt lat="45.18689" lon="5.67734">
        <ele>337.8</ele>
        <time>2021-08-30T08:41:32Z</time>
      </trkpt>
      <trkpt lat="45.18695" lon="5.67735">
        <ele>338</ele>
        <time>2021-08-30T08:41:34Z</time>
      </trkpt>
      <trkpt lat="45.18698" lon="5.67736">
        <ele>338.1</ele>
        <time>2021-08-30T08:41:35Z</time>
      </trkpt>
      <trkpt lat="45.18699" lon="5.67736">
        <ele>338.1</ele>
        <time>2021-08-30T08:41:36Z</time>
      </trkpt>
      <trkpt lat="45.18699" lon="5.67737">
        <ele>338.2</ele>
        <time>2021-08-30T08:41:38Z</time>
      </trkpt>
      <trkpt lat="45.187" lon="5.67737">
        <ele>338.2</ele>
        <time>2021-08-30T08:41:39Z</time>
      </trkpt>
      <trkpt lat="45.18702" lon="5.67737">
        <ele>338.2</ele>
        <time>2021-08-30T08:41:40Z</time>
      </trkpt>
      <trkpt lat="45.18704" lon="5.67734">
        <ele>338.3</ele>
        <time>2021-08-30T08:41:42Z</time>
      </trkpt>
      <trkpt lat="45.18705" lon="5.67733">
        <ele>338.3</ele>
        <time>2021-08-30T08:41:43Z</time>
      </trkpt>
      <trkpt lat="45.18708" lon="5.67731">
        <ele>338.4</ele>
        <time>2021-08-30T08:41:45Z</time>
      </trkpt>
      <trkpt lat="45.1871" lon="5.67727">
        <ele>338.4</ele>
        <time>2021-08-30T08:41:46Z</time>
      </trkpt>
      <trkpt lat="45.18713" lon="5.67722">
        <ele>338.5</ele>
        <time>2021-08-30T08:41:48Z</time>
      </trkpt>
      <trkpt lat="45.18718" lon="5.67715">
        <ele>338.6</ele>
        <time>2021-08-30T08:41:50Z</time>
      </trkpt>
      <trkpt lat="45.18721" lon="5.67707">
        <ele>338.6</ele>
        <time>2021-08-30T08:41:52Z</time>
      </trkpt>
      <trkpt lat="45.18723" lon="5.67703">
        <ele>338.7</ele>
        <time>2021-08-30T08:41:53Z</time>
      </trkpt>
      <trkpt lat="45.18726" lon="5.67698">
        <ele>338.7</ele>
        <time>2021-08-30T08:41:54Z</time>
      </trkpt>
      <trkpt lat="45.18729" lon="5.67692">
        <ele>338.8</ele>
        <time>2021-08-30T08:41:55Z</time>
      </trkpt>
      <trkpt lat="45.18732" lon="5.67682">
        <ele>338.9</ele>
        <time>2021-08-30T08:41:57Z</time>
      </trkpt>
      <trkpt lat="45.18734" lon="5.67673">
        <ele>339</ele>
        <time>2021-08-30T08:41:58Z</time>
      </trkpt>
      <trkpt lat="45.18738" lon="5.67662">
        <ele>339.3</ele>
        <time>2021-08-30T08:42:00Z</time>
      </trkpt>
      <trkpt lat="45.18744" lon="5.67649">
        <ele>339.7</ele>
        <time>2021-08-30T08:42:02Z</time>
      </trkpt>
      <trkpt lat="45.18747" lon="5.67641">
        <ele>340.1</ele>
        <time>2021-08-30T08:42:04Z</time>
      </trkpt>
      <trkpt lat="45.18746" lon="5.67636">
        <ele>340.3</ele>
        <time>2021-08-30T08:42:05Z</time>
      </trkpt>
      <trkpt lat="45.18746" lon="5.67632">
        <ele>340.5</ele>
        <time>2021-08-30T08:42:07Z</time>
      </trkpt>
      <trkpt lat="45.18746" lon="5.67627">
        <ele>340.7</ele>
        <time>2021-08-30T08:42:08Z</time>
      </trkpt>
      <trkpt lat="45.18746" lon="5.67623">
        <ele>340.9</ele>
        <time>2021-08-30T08:42:10Z</time>
      </trkpt>
      <trkpt lat="45.18747" lon="5.67617">
        <ele>341.1</ele>
        <time>2021-08-30T08:42:11Z</time>
      </trkpt>
      <trkpt lat="45.18746" lon="5.67613">
        <ele>341.3</ele>
        <time>2021-08-30T08:42:13Z</time>
      </trkpt>
      <trkpt lat="45.18746" lon="5.67609">
        <ele>341.5</ele>
        <time>2021-08-30T08:42:14Z</time>
      </trkpt>
      <trkpt lat="45.18747" lon="5.67606">
        <ele>341.6</ele>
        <time>2021-08-30T08:42:15Z</time>
      </trkpt>
      <trkpt lat="45.18748" lon="5.67604">
        <ele>341.7</ele>
        <time>2021-08-30T08:42:17Z</time>
      </trkpt>
      <trkpt lat="45.18748" lon="5.67602">
        <ele>341.8</ele>
        <time>2021-08-30T08:42:18Z</time>
      </trkpt>
      <trkpt lat="45.18751" lon="5.67599">
        <ele>342</ele>
        <time>2021-08-30T08:42:19Z</time>
      </trkpt>
      <trkpt lat="45.18752" lon="5.67598">
        <ele>342.1</ele>
        <time>2021-08-30T08:42:20Z</time>
      </trkpt>
      <trkpt lat="45.18755" lon="5.67596">
        <ele>342.3</ele>
        <time>2021-08-30T08:42:22Z</time>
      </trkpt>
      <trkpt lat="45.18759" lon="5.67597">
        <ele>342.6</ele>
        <time>2021-08-30T08:42:23Z</time>
      </trkpt>
      <trkpt lat="45.18763" lon="5.67596">
        <ele>342.9</ele>
        <time>2021-08-30T08:42:24Z</time>
      </trkpt>
      <trkpt lat="45.18764" lon="5.67595">
        <ele>343</ele>
        <time>2021-08-30T08:42:26Z</time>
      </trkpt>
      <trkpt lat="45.18766" lon="5.67594">
        <ele>343.1</ele>
        <time>2021-08-30T08:42:27Z</time>
      </trkpt>
      <trkpt lat="45.18768" lon="5.67589">
        <ele>343.4</ele>
        <time>2021-08-30T08:42:28Z</time>
      </trkpt>
      <trkpt lat="45.18768" lon="5.67585">
        <ele>343.6</ele>
        <time>2021-08-30T08:42:29Z</time>
      </trkpt>
      <trkpt lat="45.18767" lon="5.67581">
        <ele>343.7</ele>
        <time>2021-08-30T08:42:30Z</time>
      </trkpt>
      <trkpt lat="45.18767" lon="5.67576">
        <ele>343.9</ele>
        <time>2021-08-30T08:42:32Z</time>
      </trkpt>
      <trkpt lat="45.18767" lon="5.67568">
        <ele>344.5</ele>
        <time>2021-08-30T08:42:33Z</time>
      </trkpt>
      <trkpt lat="45.18765" lon="5.67561">
        <ele>344.6</ele>
        <time>2021-08-30T08:42:35Z</time>
      </trkpt>
      <trkpt lat="45.18764" lon="5.67556">
        <ele>344.7</ele>
        <time>2021-08-30T08:42:36Z</time>
      </trkpt>
      <trkpt lat="45.18763" lon="5.67549">
        <ele>344.8</ele>
        <time>2021-08-30T08:42:37Z</time>
      </trkpt>
      <trkpt lat="45.18763" lon="5.67545">
        <ele>344.9</ele>
        <time>2021-08-30T08:42:38Z</time>
      </trkpt>
      <trkpt lat="45.18764" lon="5.67541">
        <ele>345</ele>
        <time>2021-08-30T08:42:40Z</time>
      </trkpt>
      <trkpt lat="45.18767" lon="5.67536">
        <ele>345.1</ele>
        <time>2021-08-30T08:42:41Z</time>
      </trkpt>
      <trkpt lat="45.18769" lon="5.67531">
        <ele>345.3</ele>
        <time>2021-08-30T08:42:43Z</time>
      </trkpt>
      <trkpt lat="45.18769" lon="5.67521">
        <ele>345.6</ele>
        <time>2021-08-30T08:42:45Z</time>
      </trkpt>
      <trkpt lat="45.18769" lon="5.67517">
        <ele>345.7</ele>
        <time>2021-08-30T08:42:46Z</time>
      </trkpt>
      <trkpt lat="45.18769" lon="5.67513">
        <ele>345.9</ele>
        <time>2021-08-30T08:42:47Z</time>
      </trkpt>
      <trkpt lat="45.18769" lon="5.67509">
        <ele>346</ele>
        <time>2021-08-30T08:42:48Z</time>
      </trkpt>
      <trkpt lat="45.1877" lon="5.67502">
        <ele>346.3</ele>
        <time>2021-08-30T08:42:49Z</time>
      </trkpt>
      <trkpt lat="45.1877" lon="5.67495">
        <ele>346.6</ele>
        <time>2021-08-30T08:42:51Z</time>
      </trkpt>
      <trkpt lat="45.18771" lon="5.67489">
        <ele>347</ele>
        <time>2021-08-30T08:42:53Z</time>
      </trkpt>
      <trkpt lat="45.18774" lon="5.67484">
        <ele>347.3</ele>
        <time>2021-08-30T08:42:55Z</time>
      </trkpt>
      <trkpt lat="45.18774" lon="5.67482">
        <ele>347.4</ele>
        <time>2021-08-30T08:42:57Z</time>
      </trkpt>
      <trkpt lat="45.18773" lon="5.67481">
        <ele>347.5</ele>
        <time>2021-08-30T08:42:59Z</time>
      </trkpt>
      <trkpt lat="45.18771" lon="5.6748">
        <ele>347.6</ele>
        <time>2021-08-30T08:43:00Z</time>
      </trkpt>
      <trkpt lat="45.18771" lon="5.67478">
        <ele>347.7</ele>
        <time>2021-08-30T08:43:01Z</time>
      </trkpt>
      <trkpt lat="45.18771" lon="5.67477">
        <ele>347.8</ele>
        <time>2021-08-30T08:43:03Z</time>
      </trkpt>
      <trkpt lat="45.1877" lon="5.67476">
        <ele>347.9</ele>
        <time>2021-08-30T08:43:04Z</time>
      </trkpt>
      <trkpt lat="45.18769" lon="5.67476">
        <ele>348.3</ele>
        <time>2021-08-30T08:43:05Z</time>
      </trkpt>
      <trkpt lat="45.18766" lon="5.67408">
        <ele>356</ele>
        <time>2021-08-30T08:44:17Z</time>
      </trkpt>
      <trkpt lat="45.18767" lon="5.67406">
        <ele>356.3</ele>
        <time>2021-08-30T08:44:18Z</time>
      </trkpt>
      <trkpt lat="45.18768" lon="5.67405">
        <ele>356.5</ele>
        <time>2021-08-30T08:44:19Z</time>
      </trkpt>
      <trkpt lat="45.18769" lon="5.67404">
        <ele>356.7</ele>
        <time>2021-08-30T08:44:20Z</time>
      </trkpt>
      <trkpt lat="45.18769" lon="5.67403">
        <ele>356.8</ele>
        <time>2021-08-30T08:44:22Z</time>
      </trkpt>
      <trkpt lat="45.1877" lon="5.67402">
        <ele>356.9</ele>
        <time>2021-08-30T08:44:23Z</time>
      </trkpt>
      <trkpt lat="45.1877" lon="5.67402">
        <ele>357</ele>
        <time>2021-08-30T08:44:24Z</time>
      </trkpt>
      <trkpt lat="45.1877" lon="5.67401">
        <ele>357</ele>
        <time>2021-08-30T08:44:26Z</time>
      </trkpt>
      <trkpt lat="45.1877" lon="5.67399">
        <ele>357.2</ele>
        <time>2021-08-30T08:44:27Z</time>
      </trkpt>
      <trkpt lat="45.1877" lon="5.67397">
        <ele>357.4</ele>
        <time>2021-08-30T08:44:29Z</time>
      </trkpt>
      <trkpt lat="45.18768" lon="5.67376">
        <ele>359.7</ele>
        <time>2021-08-30T08:44:36Z</time>
      </trkpt>
      <trkpt lat="45.18766" lon="5.6737">
        <ele>360.5</ele>
        <time>2021-08-30T08:44:37Z</time>
      </trkpt>
      <trkpt lat="45.18763" lon="5.67365">
        <ele>361.1</ele>
        <time>2021-08-30T08:44:38Z</time>
      </trkpt>
      <trkpt lat="45.18761" lon="5.6736">
        <ele>361.7</ele>
        <time>2021-08-30T08:44:40Z</time>
      </trkpt>
      <trkpt lat="45.18759" lon="5.67355">
        <ele>362.3</ele>
        <time>2021-08-30T08:44:42Z</time>
      </trkpt>
      <trkpt lat="45.18759" lon="5.6735">
        <ele>362.7</ele>
        <time>2021-08-30T08:44:44Z</time>
      </trkpt>
      <trkpt lat="45.18759" lon="5.67347">
        <ele>363</ele>
        <time>2021-08-30T08:44:46Z</time>
      </trkpt>
      <trkpt lat="45.18759" lon="5.67341">
        <ele>363.4</ele>
        <time>2021-08-30T08:44:48Z</time>
      </trkpt>
      <trkpt lat="45.18761" lon="5.67339">
        <ele>363.7</ele>
        <time>2021-08-30T08:44:50Z</time>
      </trkpt>
      <trkpt lat="45.18764" lon="5.67337">
        <ele>364</ele>
        <time>2021-08-30T08:44:51Z</time>
      </trkpt>
      <trkpt lat="45.18767" lon="5.67334">
        <ele>364.4</ele>
        <time>2021-08-30T08:44:52Z</time>
      </trkpt>
      <trkpt lat="45.18768" lon="5.67333">
        <ele>364.5</ele>
        <time>2021-08-30T08:44:53Z</time>
      </trkpt>
      <trkpt lat="45.18773" lon="5.67332">
        <ele>365</ele>
        <time>2021-08-30T08:44:55Z</time>
      </trkpt>
      <trkpt lat="45.18774" lon="5.67333">
        <ele>365.1</ele>
        <time>2021-08-30T08:44:56Z</time>
      </trkpt>
      <trkpt lat="45.18775" lon="5.67333">
        <ele>365.3</ele>
        <time>2021-08-30T08:44:57Z</time>
      </trkpt>
      <trkpt lat="45.18777" lon="5.67334">
        <ele>365.4</ele>
        <time>2021-08-30T08:44:58Z</time>
      </trkpt>
      <trkpt lat="45.18782" lon="5.67334">
        <ele>365.9</ele>
        <time>2021-08-30T08:45:00Z</time>
      </trkpt>
      <trkpt lat="45.18786" lon="5.67333">
        <ele>366.3</ele>
        <time>2021-08-30T08:45:02Z</time>
      </trkpt>
      <trkpt lat="45.18789" lon="5.6733">
        <ele>366.7</ele>
        <time>2021-08-30T08:45:03Z</time>
      </trkpt>
      <trkpt lat="45.18789" lon="5.67329">
        <ele>366.8</ele>
        <time>2021-08-30T08:45:04Z</time>
      </trkpt>
      <trkpt lat="45.18789" lon="5.67324">
        <ele>367.1</ele>
        <time>2021-08-30T08:45:06Z</time>
      </trkpt>
      <trkpt lat="45.18789" lon="5.67322">
        <ele>367.3</ele>
        <time>2021-08-30T08:45:08Z</time>
      </trkpt>
      <trkpt lat="45.18789" lon="5.6732">
        <ele>367.5</ele>
        <time>2021-08-30T08:45:09Z</time>
      </trkpt>
      <trkpt lat="45.18789" lon="5.67318">
        <ele>367.7</ele>
        <time>2021-08-30T08:45:10Z</time>
      </trkpt>
      <trkpt lat="45.18791" lon="5.6731">
        <ele>368.5</ele>
        <time>2021-08-30T08:45:12Z</time>
      </trkpt>
      <trkpt lat="45.18791" lon="5.67299">
        <ele>369.4</ele>
        <time>2021-08-30T08:45:13Z</time>
      </trkpt>
      <trkpt lat="45.18792" lon="5.67292">
        <ele>370.2</ele>
        <time>2021-08-30T08:45:15Z</time>
      </trkpt>
      <trkpt lat="45.18792" lon="5.67286">
        <ele>370.7</ele>
        <time>2021-08-30T08:45:16Z</time>
      </trkpt>
      <trkpt lat="45.18792" lon="5.67285">
        <ele>370.8</ele>
        <time>2021-08-30T08:45:18Z</time>
      </trkpt>
      <trkpt lat="45.18792" lon="5.67283">
        <ele>370.9</ele>
        <time>2021-08-30T08:45:19Z</time>
      </trkpt>
      <trkpt lat="45.18793" lon="5.67283">
        <ele>371.1</ele>
        <time>2021-08-30T08:45:21Z</time>
      </trkpt>
      <trkpt lat="45.18794" lon="5.67283">
        <ele>371.2</ele>
        <time>2021-08-30T08:45:23Z</time>
      </trkpt>
      <trkpt lat="45.18796" lon="5.67278">
        <ele>371.8</ele>
        <time>2021-08-30T08:45:24Z</time>
      </trkpt>
      <trkpt lat="45.18798" lon="5.67272">
        <ele>372.4</ele>
        <time>2021-08-30T08:45:26Z</time>
      </trkpt>
      <trkpt lat="45.18801" lon="5.67263">
        <ele>373.5</ele>
        <time>2021-08-30T08:45:27Z</time>
      </trkpt>
      <trkpt lat="45.18803" lon="5.67255">
        <ele>374.5</ele>
        <time>2021-08-30T08:45:28Z</time>
      </trkpt>
      <trkpt lat="45.18805" lon="5.67243">
        <ele>376.2</ele>
        <time>2021-08-30T08:45:30Z</time>
      </trkpt>
      <trkpt lat="45.18807" lon="5.67235">
        <ele>377.3</ele>
        <time>2021-08-30T08:45:31Z</time>
      </trkpt>
      <trkpt lat="45.18808" lon="5.67222">
        <ele>379.1</ele>
        <time>2021-08-30T08:45:32Z</time>
      </trkpt>
      <trkpt lat="45.18809" lon="5.67215">
        <ele>382.9</ele>
        <time>2021-08-30T08:45:34Z</time>
      </trkpt>
      <trkpt lat="45.1881" lon="5.67212">
        <ele>383.1</ele>
        <time>2021-08-30T08:45:35Z</time>
      </trkpt>
      <trkpt lat="45.1881" lon="5.67211">
        <ele>383.3</ele>
        <time>2021-08-30T08:45:36Z</time>
      </trkpt>
      <trkpt lat="45.18811" lon="5.6721">
        <ele>383.4</ele>
        <time>2021-08-30T08:45:37Z</time>
      </trkpt>
      <trkpt lat="45.18812" lon="5.67209">
        <ele>383.5</ele>
        <time>2021-08-30T08:45:39Z</time>
      </trkpt>
      <trkpt lat="45.18812" lon="5.67208">
        <ele>383.6</ele>
        <time>2021-08-30T08:45:40Z</time>
      </trkpt>
      <trkpt lat="45.18813" lon="5.67207">
        <ele>383.7</ele>
        <time>2021-08-30T08:45:41Z</time>
      </trkpt>
      <trkpt lat="45.18815" lon="5.672">
        <ele>384.2</ele>
        <time>2021-08-30T08:45:43Z</time>
      </trkpt>
      <trkpt lat="45.18815" lon="5.67201">
        <ele>384.3</ele>
        <time>2021-08-30T08:45:44Z</time>
      </trkpt>
      <trkpt lat="45.18814" lon="5.67202">
        <ele>384.4</ele>
        <time>2021-08-30T08:45:45Z</time>
      </trkpt>
      <trkpt lat="45.18814" lon="5.67204">
        <ele>384.5</ele>
        <time>2021-08-30T08:45:47Z</time>
      </trkpt>
      <trkpt lat="45.18813" lon="5.67205">
        <ele>384.6</ele>
        <time>2021-08-30T08:45:49Z</time>
      </trkpt>
      <trkpt lat="45.18813" lon="5.67205">
        <ele>384.6</ele>
        <time>2021-08-30T08:45:50Z</time>
      </trkpt>
      <trkpt lat="45.18813" lon="5.67206">
        <ele>384.7</ele>
        <time>2021-08-30T08:45:52Z</time>
      </trkpt>
      <trkpt lat="45.18812" lon="5.67207">
        <ele>384.7</ele>
        <time>2021-08-30T08:45:53Z</time>
      </trkpt>
      <trkpt lat="45.18692" lon="5.67177">
        <ele>397.3</ele>
        <time>2021-08-30T08:47:56Z</time>
      </trkpt>
      <trkpt lat="45.18693" lon="5.6717">
        <ele>397.8</ele>
        <time>2021-08-30T08:47:57Z</time>
      </trkpt>
      <trkpt lat="45.18695" lon="5.67153">
        <ele>399.1</ele>
        <time>2021-08-30T08:47:59Z</time>
      </trkpt>
      <trkpt lat="45.18695" lon="5.67137">
        <ele>400.4</ele>
        <time>2021-08-30T08:48:01Z</time>
      </trkpt>
      <trkpt lat="45.18694" lon="5.67126">
        <ele>401.2</ele>
        <time>2021-08-30T08:48:02Z</time>
      </trkpt>
      <trkpt lat="45.18693" lon="5.67121">
        <ele>401.7</ele>
        <time>2021-08-30T08:48:03Z</time>
      </trkpt>
      <trkpt lat="45.1869" lon="5.6712">
        <ele>402.2</ele>
        <time>2021-08-30T08:48:04Z</time>
      </trkpt>
      <trkpt lat="45.18688" lon="5.67119">
        <ele>402.8</ele>
        <time>2021-08-30T08:48:06Z</time>
      </trkpt>
      <trkpt lat="45.18686" lon="5.67119">
        <ele>403.3</ele>
        <time>2021-08-30T08:48:07Z</time>
      </trkpt>
      <trkpt lat="45.18684" lon="5.67119">
        <ele>403.7</ele>
        <time>2021-08-30T08:48:08Z</time>
      </trkpt>
      <trkpt lat="45.18682" lon="5.67118">
        <ele>404.2</ele>
        <time>2021-08-30T08:48:09Z</time>
      </trkpt>
      <trkpt lat="45.18678" lon="5.67117">
        <ele>405.2</ele>
        <time>2021-08-30T08:48:11Z</time>
      </trkpt>
      <trkpt lat="45.18677" lon="5.67117">
        <ele>405.8</ele>
        <time>2021-08-30T08:48:12Z</time>
      </trkpt>
      <trkpt lat="45.18668" lon="5.67112">
        <ele>406.7</ele>
        <time>2021-08-30T08:48:13Z</time>
      </trkpt>
      <trkpt lat="45.18661" lon="5.67108">
        <ele>407.7</ele>
        <time>2021-08-30T08:48:15Z</time>
      </trkpt>
      <trkpt lat="45.18653" lon="5.67103">
        <ele>408.7</ele>
        <time>2021-08-30T08:48:16Z</time>
      </trkpt>
      <trkpt lat="45.18645" lon="5.67099">
        <ele>409.8</ele>
        <time>2021-08-30T08:49:20Z</time>
      </trkpt>
      <trkpt lat="45.18637" lon="5.67094">
        <ele>411</ele>
        <time>2021-08-30T08:49:21Z</time>
      </trkpt>
      <trkpt lat="45.18633" lon="5.67095">
        <ele>411.2</ele>
        <time>2021-08-30T08:49:23Z</time>
      </trkpt>
      <trkpt lat="45.18632" lon="5.67099">
        <ele>411.4</ele>
        <time>2021-08-30T08:49:24Z</time>
      </trkpt>
      <trkpt lat="45.18632" lon="5.671">
        <ele>411.4</ele>
        <time>2021-08-30T08:49:25Z</time>
      </trkpt>
      <trkpt lat="45.18632" lon="5.67102">
        <ele>411.5</ele>
        <time>2021-08-30T08:49:27Z</time>
      </trkpt>
      <trkpt lat="45.18631" lon="5.67103">
        <ele>411.6</ele>
        <time>2021-08-30T08:49:28Z</time>
      </trkpt>
      <trkpt lat="45.1863" lon="5.67105">
        <ele>411.6</ele>
        <time>2021-08-30T08:49:29Z</time>
      </trkpt>
      <trkpt lat="45.18628" lon="5.67107">
        <ele>411.8</ele>
        <time>2021-08-30T08:49:30Z</time>
      </trkpt>
      <trkpt lat="45.18628" lon="5.67108">
        <ele>411.8</ele>
        <time>2021-08-30T08:49:31Z</time>
      </trkpt>
      <trkpt lat="45.18627" lon="5.67109">
        <ele>411.8</ele>
        <time>2021-08-30T08:49:32Z</time>
      </trkpt>
      <trkpt lat="45.18626" lon="5.67111">
        <ele>411.9</ele>
        <time>2021-08-30T08:49:33Z</time>
      </trkpt>
      <trkpt lat="45.18626" lon="5.67114">
        <ele>412</ele>
        <time>2021-08-30T08:49:35Z</time>
      </trkpt>
      <trkpt lat="45.18625" lon="5.67116">
        <ele>412.1</ele>
        <time>2021-08-30T08:49:36Z</time>
      </trkpt>
      <trkpt lat="45.18624" lon="5.67118">
        <ele>412.2</ele>
        <time>2021-08-30T08:49:37Z</time>
      </trkpt>
      <trkpt lat="45.18622" lon="5.67122">
        <ele>412.3</ele>
        <time>2021-08-30T08:49:39Z</time>
      </trkpt>
      <trkpt lat="45.18622" lon="5.67123">
        <ele>412.3</ele>
        <time>2021-08-30T08:49:40Z</time>
      </trkpt>
      <trkpt lat="45.18619" lon="5.67126">
        <ele>412.4</ele>
        <time>2021-08-30T08:49:41Z</time>
      </trkpt>
      <trkpt lat="45.18617" lon="5.67129">
        <ele>412.5</ele>
        <time>2021-08-30T08:49:43Z</time>
      </trkpt>
      <trkpt lat="45.18615" lon="5.67132">
        <ele>412.6</ele>
        <time>2021-08-30T08:49:44Z</time>
      </trkpt>
      <trkpt lat="45.18614" lon="5.67134">
        <ele>412.7</ele>
        <time>2021-08-30T08:49:46Z</time>
      </trkpt>
      <trkpt lat="45.18613" lon="5.67135">
        <ele>412.7</ele>
        <time>2021-08-30T08:49:47Z</time>
      </trkpt>
      <trkpt lat="45.18612" lon="5.67136">
        <ele>412.7</ele>
        <time>2021-08-30T08:49:48Z</time>
      </trkpt>
      <trkpt lat="45.1861" lon="5.67137">
        <ele>412.8</ele>
        <time>2021-08-30T08:49:49Z</time>
      </trkpt>
      <trkpt lat="45.18608" lon="5.67138">
        <ele>412.9</ele>
        <time>2021-08-30T08:49:50Z</time>
      </trkpt>
      <trkpt lat="45.18606" lon="5.67138">
        <ele>412.9</ele>
        <time>2021-08-30T08:49:52Z</time>
      </trkpt>
      <trkpt lat="45.18604" lon="5.67138">
        <ele>413</ele>
        <time>2021-08-30T08:49:54Z</time>
      </trkpt>
      <trkpt lat="45.18602" lon="5.67138">
        <ele>413</ele>
        <time>2021-08-30T08:49:55Z</time>
      </trkpt>
      <trkpt lat="45.186" lon="5.67138">
        <ele>413.1</ele>
        <time>2021-08-30T08:49:56Z</time>
      </trkpt>
      <trkpt lat="45.18597" lon="5.67138">
        <ele>413.1</ele>
        <time>2021-08-30T08:49:58Z</time>
      </trkpt>
      <trkpt lat="45.18595" lon="5.67138">
        <ele>413.2</ele>
        <time>2021-08-30T08:49:59Z</time>
      </trkpt>
      <trkpt lat="45.18592" lon="5.67139">
        <ele>413.3</ele>
        <time>2021-08-30T08:50:01Z</time>
      </trkpt>
      <trkpt lat="45.1859" lon="5.6714">
        <ele>413.3</ele>
        <time>2021-08-30T08:50:02Z</time>
      </trkpt>
      <trkpt lat="45.18589" lon="5.67141">
        <ele>413.4</ele>
        <time>2021-08-30T08:50:03Z</time>
      </trkpt>
      <trkpt lat="45.18586" lon="5.67143">
        <ele>413.4</ele>
        <time>2021-08-30T08:50:04Z</time>
      </trkpt>
      <trkpt lat="45.18585" lon="5.67144">
        <ele>413.4</ele>
        <time>2021-08-30T08:50:06Z</time>
      </trkpt>
      <trkpt lat="45.18585" lon="5.67144">
        <ele>413.4</ele>
        <time>2021-08-30T08:50:07Z</time>
      </trkpt>
      <trkpt lat="45.18585" lon="5.67146">
        <ele>413.5</ele>
        <time>2021-08-30T08:50:09Z</time>
      </trkpt>
      <trkpt lat="45.18585" lon="5.67146">
        <ele>413.5</ele>
        <time>2021-08-30T08:50:11Z</time>
      </trkpt>
      <trkpt lat="45.18585" lon="5.67146">
        <ele>413.5</ele>
        <time>2021-08-30T08:50:12Z</time>
      </trkpt>
      <trkpt lat="45.18585" lon="5.67146">
        <ele>413.5</ele>
        <time>2021-08-30T08:50:13Z</time>
      </trkpt>
      <trkpt lat="45.18586" lon="5.67147">
        <ele>413.5</ele>
        <time>2021-08-30T08:50:15Z</time>
      </trkpt>
      <trkpt lat="45.18587" lon="5.67149">
        <ele>413.5</ele>
        <time>2021-08-30T08:53:10Z</time>
      </trkpt>
      <trkpt lat="45.18584" lon="5.67151">
        <ele>413.6</ele>
        <time>2021-08-30T08:53:12Z</time>
      </trkpt>
      <trkpt lat="45.18578" lon="5.67157">
        <ele>413.8</ele>
        <time>2021-08-30T08:53:13Z</time>
      </trkpt>
      <trkpt lat="45.18573" lon="5.6716">
        <ele>413.9</ele>
        <time>2021-08-30T08:53:15Z</time>
      </trkpt>
      <trkpt lat="45.18568" lon="5.67163">
        <ele>413.9</ele>
        <time>2021-08-30T08:53:16Z</time>
      </trkpt>
      <trkpt lat="45.18564" lon="5.67166">
        <ele>414</ele>
        <time>2021-08-30T08:53:17Z</time>
      </trkpt>
      <trkpt lat="45.1856" lon="5.67169">
        <ele>414</ele>
        <time>2021-08-30T08:53:19Z</time>
      </trkpt>
      <trkpt lat="45.18556" lon="5.67172">
        <ele>414.1</ele>
        <time>2021-08-30T08:53:20Z</time>
      </trkpt>
      <trkpt lat="45.18553" lon="5.67175">
        <ele>414.2</ele>
        <time>2021-08-30T08:53:21Z</time>
      </trkpt>
      <trkpt lat="45.1855" lon="5.6718">
        <ele>414.3</ele>
        <time>2021-08-30T08:53:23Z</time>
      </trkpt>
      <trkpt lat="45.18547" lon="5.67182">
        <ele>414.3</ele>
        <time>2021-08-30T08:53:24Z</time>
      </trkpt>
      <trkpt lat="45.18543" lon="5.67185">
        <ele>414.4</ele>
        <time>2021-08-30T08:53:26Z</time>
      </trkpt>
      <trkpt lat="45.18541" lon="5.67189">
        <ele>414.5</ele>
        <time>2021-08-30T08:53:27Z</time>
      </trkpt>
      <trkpt lat="45.1854" lon="5.67193">
        <ele>414.6</ele>
        <time>2021-08-30T08:53:29Z</time>
      </trkpt>
      <trkpt lat="45.18539" lon="5.67197">
        <ele>414.8</ele>
        <time>2021-08-30T08:53:30Z</time>
      </trkpt>
      <trkpt lat="45.1854" lon="5.67197">
        <ele>414.8</ele>
        <time>2021-08-30T08:53:31Z</time>
      </trkpt>
      <trkpt lat="45.18541" lon="5.672">
        <ele>414.9</ele>
        <time>2021-08-30T08:53:33Z</time>
      </trkpt>
      <trkpt lat="45.18541" lon="5.67201">
        <ele>414.9</ele>
        <time>2021-08-30T08:53:34Z</time>
      </trkpt>
      <trkpt lat="45.18541" lon="5.67202">
        <ele>414.9</ele>
        <time>2021-08-30T08:53:35Z</time>
      </trkpt>
      <trkpt lat="45.18541" lon="5.67202">
        <ele>415</ele>
        <time>2021-08-30T08:53:37Z</time>
      </trkpt>
      <trkpt lat="45.18541" lon="5.67206">
        <ele>415.1</ele>
        <time>2021-08-30T08:53:38Z</time>
      </trkpt>
      <trkpt lat="45.1854" lon="5.67208">
        <ele>415.2</ele>
        <time>2021-08-30T08:53:39Z</time>
      </trkpt>
      <trkpt lat="45.18539" lon="5.67209">
        <ele>415.3</ele>
        <time>2021-08-30T08:53:41Z</time>
      </trkpt>
      <trkpt lat="45.18538" lon="5.6721">
        <ele>415.3</ele>
        <time>2021-08-30T08:53:42Z</time>
      </trkpt>
      <trkpt lat="45.18538" lon="5.67211">
        <ele>415.4</ele>
        <time>2021-08-30T08:53:43Z</time>
      </trkpt>
      <trkpt lat="45.18537" lon="5.67214">
        <ele>415.5</ele>
        <time>2021-08-30T08:53:45Z</time>
      </trkpt>
      <trkpt lat="45.18537" lon="5.67214">
        <ele>415.5</ele>
        <time>2021-08-30T08:53:46Z</time>
      </trkpt>
      <trkpt lat="45.18537" lon="5.67215">
        <ele>415.6</ele>
        <time>2021-08-30T08:53:48Z</time>
      </trkpt>
      <trkpt lat="45.18535" lon="5.67217">
        <ele>415.7</ele>
        <time>2021-08-30T08:53:49Z</time>
      </trkpt>
      <trkpt lat="45.18533" lon="5.67218">
        <ele>415.9</ele>
        <time>2021-08-30T08:53:51Z</time>
      </trkpt>
      <trkpt lat="45.18531" lon="5.6722">
        <ele>416.1</ele>
        <time>2021-08-30T08:53:53Z</time>
      </trkpt>
      <trkpt lat="45.1853" lon="5.6722">
        <ele>416.2</ele>
        <time>2021-08-30T08:53:54Z</time>
      </trkpt>
      <trkpt lat="45.18527" lon="5.67224">
        <ele>416.5</ele>
        <time>2021-08-30T08:53:55Z</time>
      </trkpt>
      <trkpt lat="45.18526" lon="5.67225">
        <ele>416.6</ele>
        <time>2021-08-30T08:53:56Z</time>
      </trkpt>
      <trkpt lat="45.18524" lon="5.6723">
        <ele>417</ele>
        <time>2021-08-30T08:53:58Z</time>
      </trkpt>
      <trkpt lat="45.18518" lon="5.67231">
        <ele>417.5</ele>
        <time>2021-08-30T08:53:59Z</time>
      </trkpt>
      <trkpt lat="45.18514" lon="5.67231">
        <ele>417.8</ele>
        <time>2021-08-30T08:54:01Z</time>
      </trkpt>
      <trkpt lat="45.18509" lon="5.6723">
        <ele>418.3</ele>
        <time>2021-08-30T08:54:02Z</time>
      </trkpt>
      <trkpt lat="45.18504" lon="5.6723">
        <ele>418.7</ele>
        <time>2021-08-30T08:54:04Z</time>
      </trkpt>
      <trkpt lat="45.18501" lon="5.6723">
        <ele>418.9</ele>
        <time>2021-08-30T08:54:05Z</time>
      </trkpt>
      <trkpt lat="45.185" lon="5.6723">
        <ele>419</ele>
        <time>2021-08-30T08:54:07Z</time>
      </trkpt>
      <trkpt lat="45.18491" lon="5.67235">
        <ele>419.8</ele>
        <time>2021-08-30T08:54:09Z</time>
      </trkpt>
      <trkpt lat="45.18483" lon="5.67239">
        <ele>420.6</ele>
        <time>2021-08-30T08:54:24Z</time>
      </trkpt>
      <trkpt lat="45.18475" lon="5.67244">
        <ele>421.2</ele>
        <time>2021-08-30T08:54:25Z</time>
      </trkpt>
      <trkpt lat="45.18468" lon="5.67245">
        <ele>421.5</ele>
        <time>2021-08-30T08:54:26Z</time>
      </trkpt>
      <trkpt lat="45.18458" lon="5.67247">
        <ele>422</ele>
        <time>2021-08-30T08:54:28Z</time>
      </trkpt>
      <trkpt lat="45.18452" lon="5.67248">
        <ele>422.2</ele>
        <time>2021-08-30T08:54:29Z</time>
      </trkpt>
      <trkpt lat="45.18449" lon="5.67248">
        <ele>422.4</ele>
        <time>2021-08-30T08:54:30Z</time>
      </trkpt>
      <trkpt lat="45.18444" lon="5.6725">
        <ele>422.5</ele>
        <time>2021-08-30T08:54:32Z</time>
      </trkpt>
      <trkpt lat="45.18444" lon="5.6725">
        <ele>422.6</ele>
        <time>2021-08-30T08:54:33Z</time>
      </trkpt>
      <trkpt lat="45.18443" lon="5.6725">
        <ele>422.6</ele>
        <time>2021-08-30T08:54:34Z</time>
      </trkpt>
      <trkpt lat="45.18442" lon="5.6725">
        <ele>422.6</ele>
        <time>2021-08-30T08:54:36Z</time>
      </trkpt>
      <trkpt lat="45.18441" lon="5.67251">
        <ele>422.7</ele>
        <time>2021-08-30T08:54:37Z</time>
      </trkpt>
      <trkpt lat="45.1844" lon="5.67251">
        <ele>422.7</ele>
        <time>2021-08-30T08:54:38Z</time>
      </trkpt>
      <trkpt lat="45.18439" lon="5.67251">
        <ele>422.8</ele>
        <time>2021-08-30T08:54:39Z</time>
      </trkpt>
      <trkpt lat="45.18438" lon="5.67251">
        <ele>422.8</ele>
        <time>2021-08-30T08:54:41Z</time>
      </trkpt>
      <trkpt lat="45.18436" lon="5.67252">
        <ele>422.9</ele>
        <time>2021-08-30T08:54:42Z</time>
      </trkpt>
      <trkpt lat="45.1843" lon="5.67253">
        <ele>423.2</ele>
        <time>2021-08-30T08:54:45Z</time>
      </trkpt>
      <trkpt lat="45.18425" lon="5.67254">
        <ele>423.4</ele>
        <time>2021-08-30T08:54:46Z</time>
      </trkpt>
      <trkpt lat="45.18419" lon="5.67255">
        <ele>423.7</ele>
        <time>2021-08-30T08:54:48Z</time>
      </trkpt>
      <trkpt lat="45.18415" lon="5.67256">
        <ele>424</ele>
        <time>2021-08-30T08:54:49Z</time>
      </trkpt>
      <trkpt lat="45.18409" lon="5.67256">
        <ele>424.3</ele>
        <time>2021-08-30T08:54:51Z</time>
      </trkpt>
      <trkpt lat="45.18403" lon="5.67257">
        <ele>424.6</ele>
        <time>2021-08-30T08:54:52Z</time>
      </trkpt>
      <trkpt lat="45.18399" lon="5.67258">
        <ele>424.8</ele>
        <time>2021-08-30T08:54:53Z</time>
      </trkpt>
      <trkpt lat="45.18396" lon="5.67261">
        <ele>424.9</ele>
        <time>2021-08-30T08:54:54Z</time>
      </trkpt>
      <trkpt lat="45.18395" lon="5.67262">
        <ele>424.9</ele>
        <time>2021-08-30T08:54:55Z</time>
      </trkpt>
      <trkpt lat="45.18395" lon="5.67263">
        <ele>425</ele>
        <time>2021-08-30T08:54:57Z</time>
      </trkpt>
      <trkpt lat="45.18395" lon="5.67266">
        <ele>425</ele>
        <time>2021-08-30T08:54:58Z</time>
      </trkpt>
      <trkpt lat="45.18397" lon="5.67268">
        <ele>425.1</ele>
        <time>2021-08-30T08:55:00Z</time>
      </trkpt>
      <trkpt lat="45.18398" lon="5.67269">
        <ele>425.2</ele>
        <time>2021-08-30T08:55:01Z</time>
      </trkpt>
      <trkpt lat="45.18398" lon="5.67271">
        <ele>425.5</ele>
        <time>2021-08-30T08:55:03Z</time>
      </trkpt>
      <trkpt lat="45.18398" lon="5.6727">
        <ele>425.5</ele>
        <time>2021-08-30T08:55:04Z</time>
      </trkpt>
      <trkpt lat="45.18398" lon="5.6727">
        <ele>425.5</ele>
        <time>2021-08-30T08:55:05Z</time>
      </trkpt>
      <trkpt lat="45.18398" lon="5.67269">
        <ele>425.5</ele>
        <time>2021-08-30T08:55:06Z</time>
      </trkpt>
      <trkpt lat="45.18398" lon="5.67269">
        <ele>425.5</ele>
        <time>2021-08-30T08:55:08Z</time>
      </trkpt>
      <trkpt lat="45.18398" lon="5.67269">
        <ele>425.5</ele>
        <time>2021-08-30T08:55:09Z</time>
      </trkpt>
      <trkpt lat="45.18398" lon="5.67268">
        <ele>425.5</ele>
        <time>2021-08-30T08:55:10Z</time>
      </trkpt>
      <trkpt lat="45.18398" lon="5.67268">
        <ele>425.5</ele>
        <time>2021-08-30T08:55:12Z</time>
      </trkpt>
      <trkpt lat="45.18398" lon="5.67268">
        <ele>425.5</ele>
        <time>2021-08-30T08:55:13Z</time>
      </trkpt>
      <trkpt lat="45.18385" lon="5.6726">
        <ele>426</ele>
        <time>2021-08-30T08:55:26Z</time>
      </trkpt>
      <trkpt lat="45.18383" lon="5.67257">
        <ele>426.1</ele>
        <time>2021-08-30T08:55:27Z</time>
      </trkpt>
      <trkpt lat="45.1838" lon="5.67254">
        <ele>426.2</ele>
        <time>2021-08-30T08:55:28Z</time>
      </trkpt>
      <trkpt lat="45.18377" lon="5.67251">
        <ele>426.3</ele>
        <time>2021-08-30T08:55:29Z</time>
      </trkpt>
      <trkpt lat="45.18375" lon="5.67247">
        <ele>426.4</ele>
        <time>2021-08-30T08:55:31Z</time>
      </trkpt>
      <trkpt lat="45.18371" lon="5.67244">
        <ele>426.5</ele>
        <time>2021-08-30T08:55:32Z</time>
      </trkpt>
      <trkpt lat="45.18367" lon="5.67243">
        <ele>426.6</ele>
        <time>2021-08-30T08:55:33Z</time>
      </trkpt>
      <trkpt lat="45.18364" lon="5.67242">
        <ele>426.6</ele>
        <time>2021-08-30T08:55:35Z</time>
      </trkpt>
      <trkpt lat="45.18362" lon="5.6724">
        <ele>426.7</ele>
        <time>2021-08-30T08:55:37Z</time>
      </trkpt>
      <trkpt lat="45.18359" lon="5.67238">
        <ele>426.7</ele>
        <time>2021-08-30T08:55:38Z</time>
      </trkpt>
      <trkpt lat="45.18355" lon="5.67235">
        <ele>426.8</ele>
        <time>2021-08-30T08:55:39Z</time>
      </trkpt>
      <trkpt lat="45.18351" lon="5.67233">
        <ele>426.9</ele>
        <time>2021-08-30T08:55:41Z</time>
      </trkpt>
      <trkpt lat="45.18345" lon="5.6723">
        <ele>426.9</ele>
        <time>2021-08-30T08:55:42Z</time>
      </trkpt>
      <trkpt lat="45.18341" lon="5.67228">
        <ele>427</ele>
        <time>2021-08-30T08:55:44Z</time>
      </trkpt>
      <trkpt lat="45.18335" lon="5.67226">
        <ele>427</ele>
        <time>2021-08-30T08:55:45Z</time>
      </trkpt>
      <trkpt lat="45.1833" lon="5.67224">
        <ele>427</ele>
        <time>2021-08-30T08:55:47Z</time>
      </trkpt>
      <trkpt lat="45.18324" lon="5.67222">
        <ele>427</ele>
        <time>2021-08-30T08:55:48Z</time>
      </trkpt>
      <trkpt lat="45.1832" lon="5.67221">
        <ele>427</ele>
        <time>2021-08-30T08:55:50Z</time>
      </trkpt>
      <trkpt lat="45.18314" lon="5.67217">
        <ele>427</ele>
        <time>2021-08-30T08:55:52Z</time>
      </trkpt>
      <trkpt lat="45.18309" lon="5.67214">
        <ele>427</ele>
        <time>2021-08-30T08:55:53Z</time>
      </trkpt>
      <trkpt lat="45.18305" lon="5.67212">
        <ele>426.9</ele>
        <time>2021-08-30T08:55:55Z</time>
      </trkpt>
      <trkpt lat="45.18301" lon="5.6721">
        <ele>426.9</ele>
        <time>2021-08-30T08:55:56Z</time>
      </trkpt>
      <trkpt lat="45.18296" lon="5.67208">
        <ele>426.8</ele>
        <time>2021-08-30T08:55:57Z</time>
      </trkpt>
      <trkpt lat="45.1829" lon="5.67206">
        <ele>426.8</ele>
        <time>2021-08-30T08:55:59Z</time>
      </trkpt>
      <trkpt lat="45.18287" lon="5.67205">
        <ele>426.8</ele>
        <time>2021-08-30T08:56:00Z</time>
      </trkpt>
      <trkpt lat="45.18283" lon="5.67204">
        <ele>426.7</ele>
        <time>2021-08-30T08:56:02Z</time>
      </trkpt>
      <trkpt lat="45.18277" lon="5.67204">
        <ele>426.7</ele>
        <time>2021-08-30T08:56:03Z</time>
      </trkpt>
      <trkpt lat="45.18272" lon="5.67206">
        <ele>426.6</ele>
        <time>2021-08-30T08:56:05Z</time>
      </trkpt>
      <trkpt lat="45.1827" lon="5.67207">
        <ele>426.6</ele>
        <time>2021-08-30T08:56:06Z</time>
      </trkpt>
      <trkpt lat="45.18266" lon="5.67208">
        <ele>426.6</ele>
        <time>2021-08-30T08:56:07Z</time>
      </trkpt>
      <trkpt lat="45.18263" lon="5.67208">
        <ele>426.5</ele>
        <time>2021-08-30T08:56:08Z</time>
      </trkpt>
      <trkpt lat="45.18259" lon="5.67209">
        <ele>426.5</ele>
        <time>2021-08-30T08:56:09Z</time>
      </trkpt>
      <trkpt lat="45.18255" lon="5.6721">
        <ele>426.4</ele>
        <time>2021-08-30T08:56:10Z</time>
      </trkpt>
      <trkpt lat="45.1825" lon="5.6721">
        <ele>426.3</ele>
        <time>2021-08-30T08:56:11Z</time>
      </trkpt>
      <trkpt lat="45.18245" lon="5.6721">
        <ele>426.1</ele>
        <time>2021-08-30T08:56:13Z</time>
      </trkpt>
      <trkpt lat="45.18242" lon="5.67209">
        <ele>426</ele>
        <time>2021-08-30T08:56:14Z</time>
      </trkpt>
      <trkpt lat="45.18236" lon="5.67209">
        <ele>426</ele>
        <time>2021-08-30T08:56:15Z</time>
      </trkpt>
      <trkpt lat="45.1823" lon="5.6721">
        <ele>425.9</ele>
        <time>2021-08-30T08:56:17Z</time>
      </trkpt>
      <trkpt lat="45.18227" lon="5.6721">
        <ele>425.9</ele>
        <time>2021-08-30T08:56:18Z</time>
      </trkpt>
      <trkpt lat="45.18221" lon="5.67209">
        <ele>425.9</ele>
        <time>2021-08-30T08:56:19Z</time>
      </trkpt>
      <trkpt lat="45.18215" lon="5.6721">
        <ele>425.9</ele>
        <time>2021-08-30T08:56:22Z</time>
      </trkpt>
      <trkpt lat="45.18214" lon="5.67211">
        <ele>425.9</ele>
        <time>2021-08-30T08:56:23Z</time>
      </trkpt>
      <trkpt lat="45.18213" lon="5.67211">
        <ele>425.9</ele>
        <time>2021-08-30T08:56:24Z</time>
      </trkpt>
      <trkpt lat="45.18214" lon="5.67212">
        <ele>425.9</ele>
        <time>2021-08-30T08:56:26Z</time>
      </trkpt>
      <trkpt lat="45.18214" lon="5.67211">
        <ele>425.9</ele>
        <time>2021-08-30T08:56:27Z</time>
      </trkpt>
      <trkpt lat="45.18214" lon="5.67211">
        <ele>425.9</ele>
        <time>2021-08-30T08:56:28Z</time>
      </trkpt>
      <trkpt lat="45.18214" lon="5.67212">
        <ele>425.9</ele>
        <time>2021-08-30T08:56:30Z</time>
      </trkpt>
      <trkpt lat="45.18213" lon="5.67213">
        <ele>425.9</ele>
        <time>2021-08-30T08:56:31Z</time>
      </trkpt>
      <trkpt lat="45.18213" lon="5.67214">
        <ele>425.9</ele>
        <time>2021-08-30T08:56:33Z</time>
      </trkpt>
      <trkpt lat="45.18213" lon="5.67214">
        <ele>425.9</ele>
        <time>2021-08-30T08:56:35Z</time>
      </trkpt>
      <trkpt lat="45.18193" lon="5.67253">
        <ele>425.9</ele>
        <time>2021-08-30T08:57:47Z</time>
      </trkpt>
      <trkpt lat="45.18191" lon="5.67253">
        <ele>425.9</ele>
        <time>2021-08-30T08:57:48Z</time>
      </trkpt>
      <trkpt lat="45.18188" lon="5.67254">
        <ele>426</ele>
        <time>2021-08-30T08:57:50Z</time>
      </trkpt>
      <trkpt lat="45.18186" lon="5.67254">
        <ele>426</ele>
        <time>2021-08-30T08:57:51Z</time>
      </trkpt>
      <trkpt lat="45.18186" lon="5.67254">
        <ele>426</ele>
        <time>2021-08-30T08:57:52Z</time>
      </trkpt>
      <trkpt lat="45.18185" lon="5.67254">
        <ele>426</ele>
        <time>2021-08-30T08:57:54Z</time>
      </trkpt>
      <trkpt lat="45.18184" lon="5.67254">
        <ele>426</ele>
        <time>2021-08-30T08:57:55Z</time>
      </trkpt>
      <trkpt lat="45.18183" lon="5.67253">
        <ele>426</ele>
        <time>2021-08-30T08:57:57Z</time>
      </trkpt>
      <trkpt lat="45.18182" lon="5.67253">
        <ele>426</ele>
        <time>2021-08-30T08:57:58Z</time>
      </trkpt>
      <trkpt lat="45.18166" lon="5.67256">
        <ele>426.5</ele>
        <time>2021-08-30T08:58:08Z</time>
      </trkpt>
      <trkpt lat="45.18159" lon="5.67257">
        <ele>426.8</ele>
        <time>2021-08-30T08:58:09Z</time>
      </trkpt>
      <trkpt lat="45.18154" lon="5.67259">
        <ele>427</ele>
        <time>2021-08-30T08:58:11Z</time>
      </trkpt>
      <trkpt lat="45.1815" lon="5.67259">
        <ele>427.2</ele>
        <time>2021-08-30T08:58:12Z</time>
      </trkpt>
      <trkpt lat="45.18145" lon="5.6726">
        <ele>427.4</ele>
        <time>2021-08-30T08:58:14Z</time>
      </trkpt>
      <trkpt lat="45.18141" lon="5.6726">
        <ele>427.6</ele>
        <time>2021-08-30T08:58:16Z</time>
      </trkpt>
      <trkpt lat="45.18137" lon="5.6726">
        <ele>427.7</ele>
        <time>2021-08-30T08:58:17Z</time>
      </trkpt>
      <trkpt lat="45.18132" lon="5.6726">
        <ele>428</ele>
        <time>2021-08-30T08:58:19Z</time>
      </trkpt>
      <trkpt lat="45.18126" lon="5.67258">
        <ele>428.2</ele>
        <time>2021-08-30T08:58:21Z</time>
      </trkpt>
      <trkpt lat="45.18126" lon="5.67254">
        <ele>428.2</ele>
        <time>2021-08-30T08:58:22Z</time>
      </trkpt>
      <trkpt lat="45.18126" lon="5.67252">
        <ele>428.3</ele>
        <time>2021-08-30T08:58:23Z</time>
      </trkpt>
      <trkpt lat="45.18126" lon="5.67251">
        <ele>428.3</ele>
        <time>2021-08-30T08:58:24Z</time>
      </trkpt>
      <trkpt lat="45.18126" lon="5.6725">
        <ele>428.3</ele>
        <time>2021-08-30T08:58:26Z</time>
      </trkpt>
      <trkpt lat="45.18126" lon="5.6725">
        <ele>428.4</ele>
        <time>2021-08-30T08:58:27Z</time>
      </trkpt>
      <trkpt lat="45.18126" lon="5.67249">
        <ele>428.4</ele>
        <time>2021-08-30T08:58:28Z</time>
      </trkpt>
      <trkpt lat="45.18126" lon="5.67248">
        <ele>428.4</ele>
        <time>2021-08-30T08:58:30Z</time>
      </trkpt>
      <trkpt lat="45.18126" lon="5.67247">
        <ele>428.4</ele>
        <time>2021-08-30T08:58:31Z</time>
      </trkpt>
      <trkpt lat="45.18125" lon="5.67245">
        <ele>428.3</ele>
        <time>2021-08-30T08:58:32Z</time>
      </trkpt>
      <trkpt lat="45.18125" lon="5.67244">
        <ele>428.3</ele>
        <time>2021-08-30T08:58:34Z</time>
      </trkpt>
      <trkpt lat="45.18127" lon="5.6724">
        <ele>428.3</ele>
        <time>2021-08-30T08:58:37Z</time>
      </trkpt>
      <trkpt lat="45.1813" lon="5.67235">
        <ele>428.2</ele>
        <time>2021-08-30T08:58:38Z</time>
      </trkpt>
      <trkpt lat="45.18135" lon="5.67232">
        <ele>428.2</ele>
        <time>2021-08-30T08:58:39Z</time>
      </trkpt>
      <trkpt lat="45.18142" lon="5.67225">
        <ele>428.5</ele>
        <time>2021-08-30T08:58:40Z</time>
      </trkpt>
      <trkpt lat="45.18146" lon="5.67224">
        <ele>428.5</ele>
        <time>2021-08-30T08:58:42Z</time>
      </trkpt>
      <trkpt lat="45.18149" lon="5.67222">
        <ele>428.6</ele>
        <time>2021-08-30T08:58:43Z</time>
      </trkpt>
      <trkpt lat="45.18147" lon="5.67221">
        <ele>428.7</ele>
        <time>2021-08-30T08:58:45Z</time>
      </trkpt>
      <trkpt lat="45.18145" lon="5.6722">
        <ele>428.6</ele>
        <time>2021-08-30T08:58:46Z</time>
      </trkpt>
      <trkpt lat="45.18143" lon="5.6722">
        <ele>428.6</ele>
        <time>2021-08-30T08:58:47Z</time>
      </trkpt>
      <trkpt lat="45.18143" lon="5.67219">
        <ele>428.6</ele>
        <time>2021-08-30T08:58:48Z</time>
      </trkpt>
      <trkpt lat="45.18144" lon="5.67217">
        <ele>428.6</ele>
        <time>2021-08-30T08:58:50Z</time>
      </trkpt>
      <trkpt lat="45.18144" lon="5.67215">
        <ele>428.8</ele>
        <time>2021-08-30T08:58:51Z</time>
      </trkpt>
      <trkpt lat="45.18145" lon="5.67214">
        <ele>428.8</ele>
        <time>2021-08-30T08:58:52Z</time>
      </trkpt>
      <trkpt lat="45.18146" lon="5.67213">
        <ele>428.8</ele>
        <time>2021-08-30T08:58:54Z</time>
      </trkpt>
      <trkpt lat="45.18146" lon="5.67212">
        <ele>429</ele>
        <time>2021-08-30T08:58:56Z</time>
      </trkpt>
      <trkpt lat="45.18146" lon="5.67211">
        <ele>428.9</ele>
        <time>2021-08-30T08:58:57Z</time>
      </trkpt>
      <trkpt lat="45.18146" lon="5.67209">
        <ele>428.9</ele>
        <time>2021-08-30T08:58:59Z</time>
      </trkpt>
      <trkpt lat="45.18145" lon="5.67207">
        <ele>429</ele>
        <time>2021-08-30T08:59:00Z</time>
      </trkpt>
      <trkpt lat="45.1811" lon="5.67181">
        <ele>429.6</ele>
        <time>2021-08-30T08:59:08Z</time>
      </trkpt>
      <trkpt lat="45.18102" lon="5.67176">
        <ele>430</ele>
        <time>2021-08-30T08:59:09Z</time>
      </trkpt>
      <trkpt lat="45.18099" lon="5.67174">
        <ele>430.2</ele>
        <time>2021-08-30T08:59:10Z</time>
      </trkpt>
      <trkpt lat="45.18095" lon="5.67172">
        <ele>430.4</ele>
        <time>2021-08-30T08:59:11Z</time>
      </trkpt>
      <trkpt lat="45.1809" lon="5.67168">
        <ele>430.7</ele>
        <time>2021-08-30T08:59:13Z</time>
      </trkpt>
      <trkpt lat="45.18087" lon="5.67167">
        <ele>430.9</ele>
        <time>2021-08-30T08:59:14Z</time>
      </trkpt>
      <trkpt lat="45.18087" lon="5.67168">
        <ele>430.9</ele>
        <time>2021-08-30T08:59:15Z</time>
      </trkpt>
      <trkpt lat="45.18085" lon="5.6717">
        <ele>431</ele>
        <time>2021-08-30T08:59:16Z</time>
      </trkpt>
      <trkpt lat="45.18081" lon="5.67171">
        <ele>431.2</ele>
        <time>2021-08-30T08:59:18Z</time>
      </trkpt>
      <trkpt lat="45.18079" lon="5.67173">
        <ele>431.3</ele>
        <time>2021-08-30T08:59:19Z</time>
      </trkpt>
      <trkpt lat="45.18075" lon="5.67174">
        <ele>431.4</ele>
        <time>2021-08-30T08:59:20Z</time>
      </trkpt>
      <trkpt lat="45.18073" lon="5.67174">
        <ele>431.5</ele>
        <time>2021-08-30T08:59:21Z</time>
      </trkpt>
      <trkpt lat="45.18068" lon="5.67175">
        <ele>431.6</ele>
        <time>2021-08-30T08:59:23Z</time>
      </trkpt>
      <trkpt lat="45.18065" lon="5.67174">
        <ele>431.7</ele>
        <time>2021-08-30T08:59:25Z</time>
      </trkpt>
      <trkpt lat="45.18065" lon="5.67106">
        <ele>426.9</ele>
        <time>2021-08-30T09:00:08Z</time>
      </trkpt>
      <trkpt lat="45.18066" lon="5.671">
        <ele>426.1</ele>
        <time>2021-08-30T09:00:09Z</time>
      </trkpt>
      <trkpt lat="45.18068" lon="5.67094">
        <ele>425.7</ele>
        <time>2021-08-30T09:00:10Z</time>
      </trkpt>
      <trkpt lat="45.1807" lon="5.6709">
        <ele>425.3</ele>
        <time>2021-08-30T09:00:12Z</time>
      </trkpt>
      <trkpt lat="45.1807" lon="5.67084">
        <ele>424.9</ele>
        <time>2021-08-30T09:00:13Z</time>
      </trkpt>
      <trkpt lat="45.1807" lon="5.67077">
        <ele>424.2</ele>
        <time>2021-08-30T09:00:15Z</time>
      </trkpt>
      <trkpt lat="45.18068" lon="5.67071">
        <ele>423.9</ele>
        <time>2021-08-30T09:00:16Z</time>
      </trkpt>
      <trkpt lat="45.18068" lon="5.67069">
        <ele>423.7</ele>
        <time>2021-08-30T09:00:17Z</time>
      </trkpt>
      <trkpt lat="45.18066" lon="5.67051">
        <ele>423.1</ele>
        <time>2021-08-30T09:00:19Z</time>
      </trkpt>
      <trkpt lat="45.18065" lon="5.67037">
        <ele>422.9</ele>
        <time>2021-08-30T09:00:20Z</time>
      </trkpt>
      <trkpt lat="45.18064" lon="5.67024">
        <ele>422.9</ele>
        <time>2021-08-30T09:00:22Z</time>
      </trkpt>
      <trkpt lat="45.18066" lon="5.67012">
        <ele>422.9</ele>
        <time>2021-08-30T09:00:24Z</time>
      </trkpt>
      <trkpt lat="45.18066" lon="5.6701">
        <ele>423.1</ele>
        <time>2021-08-30T09:00:25Z</time>
      </trkpt>
      <trkpt lat="45.18066" lon="5.67008">
        <ele>423.1</ele>
        <time>2021-08-30T09:00:26Z</time>
      </trkpt>
      <trkpt lat="45.18066" lon="5.67007">
        <ele>423</ele>
        <time>2021-08-30T09:00:27Z</time>
      </trkpt>
      <trkpt lat="45.18065" lon="5.67005">
        <ele>423.3</ele>
        <time>2021-08-30T09:00:29Z</time>
      </trkpt>
      <trkpt lat="45.18065" lon="5.67003">
        <ele>423.2</ele>
        <time>2021-08-30T09:00:30Z</time>
      </trkpt>
      <trkpt lat="45.18065" lon="5.66994">
        <ele>423.9</ele>
        <time>2021-08-30T09:00:31Z</time>
      </trkpt>
      <trkpt lat="45.18065" lon="5.66987">
        <ele>424.8</ele>
        <time>2021-08-30T09:00:32Z</time>
      </trkpt>
      <trkpt lat="45.18065" lon="5.66982">
        <ele>425.3</ele>
        <time>2021-08-30T09:00:34Z</time>
      </trkpt>
      <trkpt lat="45.18068" lon="5.66957">
        <ele>428.8</ele>
        <time>2021-08-30T09:01:23Z</time>
      </trkpt>
      <trkpt lat="45.18063" lon="5.66962">
        <ele>428.8</ele>
        <time>2021-08-30T09:01:24Z</time>
      </trkpt>
      <trkpt lat="45.18055" lon="5.66968">
        <ele>428.7</ele>
        <time>2021-08-30T09:01:26Z</time>
      </trkpt>
      <trkpt lat="45.1802" lon="5.66981">
        <ele>433.1</ele>
        <time>2021-08-30T09:01:28Z</time>
      </trkpt>
      <trkpt lat="45.18011" lon="5.66982">
        <ele>434.8</ele>
        <time>2021-08-30T09:01:29Z</time>
      </trkpt>
      <trkpt lat="45.18005" lon="5.66981">
        <ele>435.8</ele>
        <time>2021-08-30T09:01:30Z</time>
      </trkpt>
      <trkpt lat="45.18" lon="5.6698">
        <ele>437.7</ele>
        <time>2021-08-30T09:01:31Z</time>
      </trkpt>
      <trkpt lat="45.17995" lon="5.6698">
        <ele>438.1</ele>
        <time>2021-08-30T09:01:32Z</time>
      </trkpt>
      <trkpt lat="45.17994" lon="5.66978">
        <ele>438.6</ele>
        <time>2021-08-30T09:01:33Z</time>
      </trkpt>
      <trkpt lat="45.17991" lon="5.66978">
        <ele>438.9</ele>
        <time>2021-08-30T09:01:35Z</time>
      </trkpt>
      <trkpt lat="45.1799" lon="5.66977">
        <ele>438.9</ele>
        <time>2021-08-30T09:01:37Z</time>
      </trkpt>
      <trkpt lat="45.17989" lon="5.66977">
        <ele>439.2</ele>
        <time>2021-08-30T09:01:38Z</time>
      </trkpt>
      <trkpt lat="45.17988" lon="5.66977">
        <ele>439.2</ele>
        <time>2021-08-30T09:01:39Z</time>
      </trkpt>
      <trkpt lat="45.17985" lon="5.66977">
        <ele>439.5</ele>
        <time>2021-08-30T09:01:41Z</time>
      </trkpt>
      <trkpt lat="45.17984" lon="5.66977">
        <ele>439.5</ele>
        <time>2021-08-30T09:01:42Z</time>
      </trkpt>
      <trkpt lat="45.17982" lon="5.66977">
        <ele>439.8</ele>
        <time>2021-08-30T09:01:44Z</time>
      </trkpt>
      <trkpt lat="45.18263" lon="5.66883">
        <ele>411.5</ele>
        <time>2021-08-30T09:02:48Z</time>
      </trkpt>
      <trkpt lat="45.1827" lon="5.66886">
        <ele>410.9</ele>
        <time>2021-08-30T09:02:50Z</time>
      </trkpt>
      <trkpt lat="45.18274" lon="5.66886">
        <ele>410.2</ele>
        <time>2021-08-30T09:02:52Z</time>
      </trkpt>
      <trkpt lat="45.18281" lon="5.66888">
        <ele>410.3</ele>
        <time>2021-08-30T09:02:53Z</time>
      </trkpt>
      <trkpt lat="45.18285" lon="5.66889">
        <ele>410.4</ele>
        <time>2021-08-30T09:02:54Z</time>
      </trkpt>
      <trkpt lat="45.18288" lon="5.66889">
        <ele>410.5</ele>
        <time>2021-08-30T09:02:55Z</time>
      </trkpt>
      <trkpt lat="45.18291" lon="5.6689">
        <ele>410.5</ele>
        <time>2021-08-30T09:02:57Z</time>
      </trkpt>
      <trkpt lat="45.18292" lon="5.6689">
        <ele>410.6</ele>
        <time>2021-08-30T09:02:58Z</time>
      </trkpt>
      <trkpt lat="45.18296" lon="5.66894">
        <ele>410.7</ele>
        <time>2021-08-30T09:03:00Z</time>
      </trkpt>
      <trkpt lat="45.18348" lon="5.66869">
        <ele>411.7</ele>
        <time>2021-08-30T09:03:26Z</time>
      </trkpt>
      <trkpt lat="45.18352" lon="5.66863">
        <ele>411.7</ele>
        <time>2021-08-30T09:03:27Z</time>
      </trkpt>
      <trkpt lat="45.18367" lon="5.66855">
        <ele>411.8</ele>
        <time>2021-08-30T09:03:29Z</time>
      </trkpt>
      <trkpt lat="45.18374" lon="5.66851">
        <ele>411.8</ele>
        <time>2021-08-30T09:03:30Z</time>
      </trkpt>
      <trkpt lat="45.1838" lon="5.66849">
        <ele>411.8</ele>
        <time>2021-08-30T09:03:31Z</time>
      </trkpt>
      <trkpt lat="45.18389" lon="5.66849">
        <ele>412.1</ele>
        <time>2021-08-30T09:03:33Z</time>
      </trkpt>
      <trkpt lat="45.18395" lon="5.66846">
        <ele>412.4</ele>
        <time>2021-08-30T09:03:35Z</time>
      </trkpt>
      <trkpt lat="45.18399" lon="5.66846">
        <ele>412.6</ele>
        <time>2021-08-30T09:03:36Z</time>
      </trkpt>
      <trkpt lat="45.18402" lon="5.66848">
        <ele>412.8</ele>
        <time>2021-08-30T09:03:37Z</time>
      </trkpt>
      <trkpt lat="45.18402" lon="5.66849">
        <ele>412.8</ele>
        <time>2021-08-30T09:03:38Z</time>
      </trkpt>
      <trkpt lat="45.18405" lon="5.66851">
        <ele>413.1</ele>
        <time>2021-08-30T09:03:39Z</time>
      </trkpt>
      <trkpt lat="45.18407" lon="5.66851">
        <ele>413.2</ele>
        <time>2021-08-30T09:03:40Z</time>
      </trkpt>
      <trkpt lat="45.18408" lon="5.66851">
        <ele>413.3</ele>
        <time>2021-08-30T09:03:41Z</time>
      </trkpt>
      <trkpt lat="45.18409" lon="5.66851">
        <ele>413.4</ele>
        <time>2021-08-30T09:03:42Z</time>
      </trkpt>
      <trkpt lat="45.1841" lon="5.6685">
        <ele>413.6</ele>
        <time>2021-08-30T09:03:43Z</time>
      </trkpt>
      <trkpt lat="45.18414" lon="5.66848">
        <ele>413.9</ele>
        <time>2021-08-30T09:03:45Z</time>
      </trkpt>
      <trkpt lat="45.18417" lon="5.66844">
        <ele>414.3</ele>
        <time>2021-08-30T09:03:46Z</time>
      </trkpt>
      <trkpt lat="45.18421" lon="5.66842">
        <ele>414.8</ele>
        <time>2021-08-30T09:03:48Z</time>
      </trkpt>
      <trkpt lat="45.18424" lon="5.6684">
        <ele>415.2</ele>
        <time>2021-08-30T09:03:49Z</time>
      </trkpt>
      <trkpt lat="45.18427" lon="5.66839">
        <ele>415.5</ele>
        <time>2021-08-30T09:03:50Z</time>
      </trkpt>
      <trkpt lat="45.18429" lon="5.66844">
        <ele>416</ele>
        <time>2021-08-30T09:03:51Z</time>
      </trkpt>
      <trkpt lat="45.18433" lon="5.66838">
        <ele>416.6</ele>
        <time>2021-08-30T09:03:53Z</time>
      </trkpt>
      <trkpt lat="45.18435" lon="5.6683">
        <ele>417.3</ele>
        <time>2021-08-30T09:03:54Z</time>
      </trkpt>
      <trkpt lat="45.18438" lon="5.66822">
        <ele>417.9</ele>
        <time>2021-08-30T09:03:56Z</time>
      </trkpt>
      <trkpt lat="45.18441" lon="5.66814">
        <ele>418.2</ele>
        <time>2021-08-30T09:03:58Z</time>
      </trkpt>
      <trkpt lat="45.18444" lon="5.66806">
        <ele>418.3</ele>
        <time>2021-08-30T09:03:59Z</time>
      </trkpt>
      <trkpt lat="45.18447" lon="5.66797">
        <ele>418.1</ele>
        <time>2021-08-30T09:05:04Z</time>
      </trkpt>
      <trkpt lat="45.1845" lon="5.66789">
        <ele>417.8</ele>
        <time>2021-08-30T09:05:05Z</time>
      </trkpt>
      <trkpt lat="45.18452" lon="5.6678">
        <ele>417.2</ele>
        <time>2021-08-30T09:05:06Z</time>
      </trkpt>
      <trkpt lat="45.18453" lon="5.66772">
        <ele>416.7</ele>
        <time>2021-08-30T09:05:08Z</time>
      </trkpt>
      <trkpt lat="45.18455" lon="5.66763">
        <ele>416.2</ele>
        <time>2021-08-30T09:05:09Z</time>
      </trkpt>
      <trkpt lat="45.18456" lon="5.66758">
        <ele>415.9</ele>
        <time>2021-08-30T09:05:11Z</time>
      </trkpt>
      <trkpt lat="45.18457" lon="5.66755">
        <ele>415.7</ele>
        <time>2021-08-30T09:05:12Z</time>
      </trkpt>
      <trkpt lat="45.18458" lon="5.66753">
        <ele>415.6</ele>
        <time>2021-08-30T09:05:14Z</time>
      </trkpt>
      <trkpt lat="45.18458" lon="5.66752">
        <ele>415.5</ele>
        <time>2021-08-30T09:05:15Z</time>
      </trkpt>
      <trkpt lat="45.18459" lon="5.66751">
        <ele>415.4</ele>
        <time>2021-08-30T09:05:16Z</time>
      </trkpt>
      <trkpt lat="45.18471" lon="5.66746">
        <ele>414.4</ele>
        <time>2021-08-30T09:05:17Z</time>
      </trkpt>
      <trkpt lat="45.18482" lon="5.66742">
        <ele>413.6</ele>
        <time>2021-08-30T09:05:19Z</time>
      </trkpt>
      <trkpt lat="45.18493" lon="5.66738">
        <ele>412.9</ele>
        <time>2021-08-30T09:05:43Z</time>
      </trkpt>
      <trkpt lat="45.18504" lon="5.66735">
        <ele>411.5</ele>
        <time>2021-08-30T09:05:44Z</time>
      </trkpt>
      <trkpt lat="45.18516" lon="5.66722">
        <ele>409.4</ele>
        <time>2021-08-30T09:05:46Z</time>
      </trkpt>
      <trkpt lat="45.18522" lon="5.66716">
        <ele>408.3</ele>
        <time>2021-08-30T09:05:47Z</time>
      </trkpt>
      <trkpt lat="45.18527" lon="5.6671">
        <ele>407.4</ele>
        <time>2021-08-30T09:05:48Z</time>
      </trkpt>
      <trkpt lat="45.18532" lon="5.6671">
        <ele>406.8</ele>
        <time>2021-08-30T09:05:50Z</time>
      </trkpt>
      <trkpt lat="45.18533" lon="5.6671">
        <ele>406.7</ele>
        <time>2021-08-30T09:05:51Z</time>
      </trkpt>
      <trkpt lat="45.18534" lon="5.6671">
        <ele>406.5</ele>
        <time>2021-08-30T09:05:52Z</time>
      </trkpt>
      <trkpt lat="45.18536" lon="5.6671">
        <ele>406.4</ele>
        <time>2021-08-30T09:05:54Z</time>
      </trkpt>
      <trkpt lat="45.18537" lon="5.6671">
        <ele>406.2</ele>
        <time>2021-08-30T09:05:55Z</time>
      </trkpt>
      <trkpt lat="45.18538" lon="5.6671">
        <ele>411.5</ele>
        <time>2021-08-30T09:05:56Z</time>
      </trkpt>
      <trkpt lat="45.18539" lon="5.6671">
        <ele>411.6</ele>
        <time>2021-08-30T09:05:58Z</time>
      </trkpt>
      <trkpt lat="45.18565" lon="5.66765">
        <ele>414.4</ele>
        <time>2021-08-30T09:06:27Z</time>
      </trkpt>
      <trkpt lat="45.18569" lon="5.66767">
        <ele>414.7</ele>
        <time>2021-08-30T09:06:29Z</time>
      </trkpt>
      <trkpt lat="45.18568" lon="5.66766">
        <ele>414.8</ele>
        <time>2021-08-30T09:06:30Z</time>
      </trkpt>
      <trkpt lat="45.18567" lon="5.66763">
        <ele>414.9</ele>
        <time>2021-08-30T09:06:32Z</time>
      </trkpt>
      <trkpt lat="45.18561" lon="5.66752">
        <ele>415.4</ele>
        <time>2021-08-30T09:06:34Z</time>
      </trkpt>
      <trkpt lat="45.18555" lon="5.66738">
        <ele>416.1</ele>
        <time>2021-08-30T09:06:35Z</time>
      </trkpt>
      <trkpt lat="45.18554" lon="5.66733">
        <ele>416.3</ele>
        <time>2021-08-30T09:06:36Z</time>
      </trkpt>
      <trkpt lat="45.18553" lon="5.66732">
        <ele>416.3</ele>
        <time>2021-08-30T09:06:37Z</time>
      </trkpt>
      <trkpt lat="45.18553" lon="5.66732">
        <ele>416.3</ele>
        <time>2021-08-30T09:06:39Z</time>
      </trkpt>
      <trkpt lat="45.18553" lon="5.66732">
        <ele>416.3</ele>
        <time>2021-08-30T09:06:40Z</time>
      </trkpt>
      <trkpt lat="45.18552" lon="5.66732">
        <ele>416.4</ele>
        <time>2021-08-30T09:06:41Z</time>
      </trkpt>
      <trkpt lat="45.18552" lon="5.66732">
        <ele>416.4</ele>
        <time>2021-08-30T09:06:43Z</time>
      </trkpt>
      <trkpt lat="45.18552" lon="5.66733">
        <ele>416.4</ele>
        <time>2021-08-30T09:06:44Z</time>
      </trkpt>
      <trkpt lat="45.18551" lon="5.66733">
        <ele>416.4</ele>
        <time>2021-08-30T09:06:45Z</time>
      </trkpt>
      <trkpt lat="45.18551" lon="5.66733">
        <ele>416.4</ele>
        <time>2021-08-30T09:06:47Z</time>
      </trkpt>
      <trkpt lat="45.18551" lon="5.66733">
        <ele>416.5</ele>
        <time>2021-08-30T09:06:48Z</time>
      </trkpt>
      <trkpt lat="45.18551" lon="5.66733">
        <ele>416.5</ele>
        <time>2021-08-30T09:06:49Z</time>
      </trkpt>
      <trkpt lat="45.1855" lon="5.66734">
        <ele>416.5</ele>
        <time>2021-08-30T09:06:51Z</time>
      </trkpt>
      <trkpt lat="45.1855" lon="5.66734">
        <ele>416.5</ele>
        <time>2021-08-30T09:06:52Z</time>
      </trkpt>
      <trkpt lat="45.1855" lon="5.66734">
        <ele>416.5</ele>
        <time>2021-08-30T09:06:53Z</time>
      </trkpt>
      <trkpt lat="45.18549" lon="5.66734">
        <ele>416.5</ele>
        <time>2021-08-30T09:06:55Z</time>
      </trkpt>
      <trkpt lat="45.18549" lon="5.66734">
        <ele>416.6</ele>
        <time>2021-08-30T09:06:56Z</time>
      </trkpt>
      <trkpt lat="45.18548" lon="5.66734">
        <ele>416.6</ele>
        <time>2021-08-30T09:06:58Z</time>
      </trkpt>
      <trkpt lat="45.18547" lon="5.66734">
        <ele>416.7</ele>
        <time>2021-08-30T09:06:59Z</time>
      </trkpt>
      <trkpt lat="45.18547" lon="5.66734">
        <ele>416.7</ele>
        <time>2021-08-30T09:07:00Z</time>
      </trkpt>
      <trkpt lat="45.18548" lon="5.66734">
        <ele>416.7</ele>
        <time>2021-08-30T09:07:01Z</time>
      </trkpt>
      <trkpt lat="45.18549" lon="5.66733">
        <ele>416.8</ele>
        <time>2021-08-30T09:07:03Z</time>
      </trkpt>
      <trkpt lat="45.1855" lon="5.66731">
        <ele>416.8</ele>
        <time>2021-08-30T09:07:05Z</time>
      </trkpt>
      <trkpt lat="45.18551" lon="5.66731">
        <ele>416.9</ele>
        <time>2021-08-30T09:07:06Z</time>
      </trkpt>
      <trkpt lat="45.18554" lon="5.6673">
        <ele>417.1</ele>
        <time>2021-08-30T09:07:08Z</time>
      </trkpt>
      <trkpt lat="45.18555" lon="5.6673">
        <ele>417.1</ele>
        <time>2021-08-30T09:07:09Z</time>
      </trkpt>
      <trkpt lat="45.18556" lon="5.66729">
        <ele>417.1</ele>
        <time>2021-08-30T09:07:10Z</time>
      </trkpt>
      <trkpt lat="45.18557" lon="5.66729">
        <ele>417.2</ele>
        <time>2021-08-30T09:07:12Z</time>
      </trkpt>
      <trkpt lat="45.18557" lon="5.66729">
        <ele>417.2</ele>
        <time>2021-08-30T09:07:14Z</time>
      </trkpt>
      <trkpt lat="45.18557" lon="5.66729">
        <ele>417.2</ele>
        <time>2021-08-30T09:07:15Z</time>
      </trkpt>
      <trkpt lat="45.18557" lon="5.66729">
        <ele>417.2</ele>
        <time>2021-08-30T09:07:17Z</time>
      </trkpt>
      <trkpt lat="45.18556" lon="5.6673">
        <ele>417.3</ele>
        <time>2021-08-30T09:07:18Z</time>
      </trkpt>
      <trkpt lat="45.18556" lon="5.66731">
        <ele>417.3</ele>
        <time>2021-08-30T09:07:20Z</time>
      </trkpt>
      <trkpt lat="45.18556" lon="5.66731">
        <ele>417.3</ele>
        <time>2021-08-30T09:07:21Z</time>
      </trkpt>
      <trkpt lat="45.18555" lon="5.66732">
        <ele>417.4</ele>
        <time>2021-08-30T09:07:22Z</time>
      </trkpt>
      <trkpt lat="45.18555" lon="5.66733">
        <ele>417.4</ele>
        <time>2021-08-30T09:07:24Z</time>
      </trkpt>
      <trkpt lat="45.18555" lon="5.66733">
        <ele>417.4</ele>
        <time>2021-08-30T09:07:25Z</time>
      </trkpt>
      <trkpt lat="45.18555" lon="5.66733">
        <ele>417.4</ele>
        <time>2021-08-30T09:07:27Z</time>
      </trkpt>
      <trkpt lat="45.18555" lon="5.66733">
        <ele>417.4</ele>
        <time>2021-08-30T09:07:28Z</time>
      </trkpt>
      <trkpt lat="45.18555" lon="5.66734">
        <ele>417.4</ele>
        <time>2021-08-30T09:07:30Z</time>
      </trkpt>
      <trkpt lat="45.18555" lon="5.66734">
        <ele>417.4</ele>
        <time>2021-08-30T09:07:31Z</time>
      </trkpt>
      <trkpt lat="45.18555" lon="5.66734">
        <ele>417.4</ele>
        <time>2021-08-30T09:07:33Z</time>
      </trkpt>
      <trkpt lat="45.18555" lon="5.66734">
        <ele>417.4</ele>
        <time>2021-08-30T09:07:35Z</time>
      </trkpt>
      <trkpt lat="45.18557" lon="5.66734">
        <ele>417.5</ele>
        <time>2021-08-30T09:07:36Z</time>
      </trkpt>
      <trkpt lat="45.18558" lon="5.66734">
        <ele>417.6</ele>
        <time>2021-08-30T09:07:38Z</time>
      </trkpt>
      <trkpt lat="45.18558" lon="5.66734">
        <ele>417.6</ele>
        <time>2021-08-30T09:07:39Z</time>
      </trkpt>
      <trkpt lat="45.18559" lon="5.66734">
        <ele>417.6</ele>
        <time>2021-08-30T09:07:40Z</time>
      </trkpt>
      <trkpt lat="45.1856" lon="5.66733">
        <ele>417.7</ele>
        <time>2021-08-30T09:07:41Z</time>
      </trkpt>
      <trkpt lat="45.18561" lon="5.66732">
        <ele>417.7</ele>
        <time>2021-08-30T09:07:43Z</time>
      </trkpt>
      <trkpt lat="45.18561" lon="5.66731">
        <ele>417.8</ele>
        <time>2021-08-30T09:07:44Z</time>
      </trkpt>
      <trkpt lat="45.18561" lon="5.66728">
        <ele>417.9</ele>
        <time>2021-08-30T09:07:45Z</time>
      </trkpt>
      <trkpt lat="45.1856" lon="5.66727">
        <ele>417.9</ele>
        <time>2021-08-30T09:07:46Z</time>
      </trkpt>
      <trkpt lat="45.1856" lon="5.66725">
        <ele>418</ele>
        <time>2021-08-30T09:07:47Z</time>
      </trkpt>
      <trkpt lat="45.18558" lon="5.66723">
        <ele>418.1</ele>
        <time>2021-08-30T09:07:49Z</time>
      </trkpt>
      <trkpt lat="45.18555" lon="5.6672">
        <ele>418.3</ele>
        <time>2021-08-30T09:07:51Z</time>
      </trkpt>
      <trkpt lat="45.18554" lon="5.66719">
        <ele>418.3</ele>
        <time>2021-08-30T09:07:52Z</time>
      </trkpt>
      <trkpt lat="45.18552" lon="5.66716">
        <ele>418.5</ele>
        <time>2021-08-30T09:07:55Z</time>
      </trkpt>
      <trkpt lat="45.18552" lon="5.66715">
        <ele>418.5</ele>
        <time>2021-08-30T09:07:56Z</time>
      </trkpt>
      <trkpt lat="45.18551" lon="5.66714">
        <ele>418.6</ele>
        <time>2021-08-30T09:07:57Z</time>
      </trkpt>
      <trkpt lat="45.18551" lon="5.66714">
        <ele>418.6</ele>
        <time>2021-08-30T09:07:59Z</time>
      </trkpt>
      <trkpt lat="45.18552" lon="5.66714">
        <ele>418.6</ele>
        <time>2021-08-30T09:08:00Z</time>
      </trkpt>
      <trkpt lat="45.18552" lon="5.66713">
        <ele>418.6</ele>
        <time>2021-08-30T09:08:01Z</time>
      </trkpt>
      <trkpt lat="45.18553" lon="5.66712">
        <ele>418.7</ele>
        <time>2021-08-30T09:08:02Z</time>
      </trkpt>
      <trkpt lat="45.18553" lon="5.6671">
        <ele>418.7</ele>
        <time>2021-08-30T09:08:03Z</time>
      </trkpt>
      <trkpt lat="45.18554" lon="5.66708">
        <ele>418.8</ele>
        <time>2021-08-30T09:08:04Z</time>
      </trkpt>
      <trkpt lat="45.18555" lon="5.66706">
        <ele>418.9</ele>
        <time>2021-08-30T09:08:05Z</time>
      </trkpt>
      <trkpt lat="45.18555" lon="5.66705">
        <ele>418.9</ele>
        <time>2021-08-30T09:08:07Z</time>
      </trkpt>
      <trkpt lat="45.18555" lon="5.66703">
        <ele>418.9</ele>
        <time>2021-08-30T09:08:08Z</time>
      </trkpt>
      <trkpt lat="45.18555" lon="5.66702">
        <ele>419</ele>
        <time>2021-08-30T09:08:09Z</time>
      </trkpt>
      <trkpt lat="45.18553" lon="5.6669">
        <ele>419.4</ele>
        <time>2021-08-30T09:08:10Z</time>
      </trkpt>
      <trkpt lat="45.18551" lon="5.66675">
        <ele>419.8</ele>
        <time>2021-08-30T09:08:12Z</time>
      </trkpt>
      <trkpt lat="45.1855" lon="5.66673">
        <ele>419.9</ele>
        <time>2021-08-30T09:08:13Z</time>
      </trkpt>
      <trkpt lat="45.18548" lon="5.66672">
        <ele>420</ele>
        <time>2021-08-30T09:08:15Z</time>
      </trkpt>
      <trkpt lat="45.18547" lon="5.66671">
        <ele>420</ele>
        <time>2021-08-30T09:08:16Z</time>
      </trkpt>
      <trkpt lat="45.18547" lon="5.6667">
        <ele>420.1</ele>
        <time>2021-08-30T09:08:17Z</time>
      </trkpt>
      <trkpt lat="45.18546" lon="5.66669">
        <ele>420.1</ele>
        <time>2021-08-30T09:08:19Z</time>
      </trkpt>
      <trkpt lat="45.18545" lon="5.66669">
        <ele>420.1</ele>
        <time>2021-08-30T09:08:21Z</time>
      </trkpt>
      <trkpt lat="45.18545" lon="5.66668">
        <ele>420.1</ele>
        <time>2021-08-30T09:08:22Z</time>
      </trkpt>
      <trkpt lat="45.18545" lon="5.66668">
        <ele>420.2</ele>
        <time>2021-08-30T09:08:23Z</time>
      </trkpt>
      <trkpt lat="45.18546" lon="5.66665">
        <ele>420.2</ele>
        <time>2021-08-30T09:08:25Z</time>
      </trkpt>
      <trkpt lat="45.18546" lon="5.66664">
        <ele>420.3</ele>
        <time>2021-08-30T09:08:26Z</time>
      </trkpt>
      <trkpt lat="45.18547" lon="5.66662">
        <ele>421.3</ele>
        <time>2021-08-30T09:08:28Z</time>
      </trkpt>
      <trkpt lat="45.18547" lon="5.66662">
        <ele>421.3</ele>
        <time>2021-08-30T09:08:29Z</time>
      </trkpt>
      <trkpt lat="45.18548" lon="5.66661">
        <ele>421.3</ele>
        <time>2021-08-30T09:08:31Z</time>
      </trkpt>
      <trkpt lat="45.18549" lon="5.6666">
        <ele>421.3</ele>
        <time>2021-08-30T09:08:33Z</time>
      </trkpt>
      <trkpt lat="45.18549" lon="5.6666">
        <ele>421.4</ele>
        <time>2021-08-30T09:08:34Z</time>
      </trkpt>
      <trkpt lat="45.1855" lon="5.66659">
        <ele>421.4</ele>
        <time>2021-08-30T09:08:35Z</time>
      </trkpt>
      <trkpt lat="45.1855" lon="5.66658">
        <ele>421.4</ele>
        <time>2021-08-30T09:08:37Z</time>
      </trkpt>
      <trkpt lat="45.18551" lon="5.66657">
        <ele>421.4</ele>
        <time>2021-08-30T09:08:38Z</time>
      </trkpt>
      <trkpt lat="45.18554" lon="5.66655">
        <ele>421.5</ele>
        <time>2021-08-30T09:08:40Z</time>
      </trkpt>
      <trkpt lat="45.18555" lon="5.66654">
        <ele>421.5</ele>
        <time>2021-08-30T09:08:41Z</time>
      </trkpt>
      <trkpt lat="45.18556" lon="5.66653">
        <ele>421.6</ele>
        <time>2021-08-30T09:08:42Z</time>
      </trkpt>
      <trkpt lat="45.18556" lon="5.66652">
        <ele>421.6</ele>
        <time>2021-08-30T09:08:43Z</time>
      </trkpt>
      <trkpt lat="45.18557" lon="5.66652">
        <ele>421.6</ele>
        <time>2021-08-30T09:08:44Z</time>
      </trkpt>
      <trkpt lat="45.18558" lon="5.66652">
        <ele>421.6</ele>
        <time>2021-08-30T09:08:46Z</time>
      </trkpt>
      <trkpt lat="45.18558" lon="5.66651">
        <ele>421.6</ele>
        <time>2021-08-30T09:08:48Z</time>
      </trkpt>
      <trkpt lat="45.18558" lon="5.66651">
        <ele>421.7</ele>
        <time>2021-08-30T09:08:49Z</time>
      </trkpt>
      <trkpt lat="45.18558" lon="5.66651">
        <ele>421.7</ele>
        <time>2021-08-30T09:08:51Z</time>
      </trkpt>
      <trkpt lat="45.18559" lon="5.66651">
        <ele>421.7</ele>
        <time>2021-08-30T09:08:52Z</time>
      </trkpt>
      <trkpt lat="45.18559" lon="5.66651">
        <ele>421.7</ele>
        <time>2021-08-30T09:08:54Z</time>
      </trkpt>
      <trkpt lat="45.18559" lon="5.66651">
        <ele>421.7</ele>
        <time>2021-08-30T09:08:55Z</time>
      </trkpt>
      <trkpt lat="45.18559" lon="5.66651">
        <ele>421.7</ele>
        <time>2021-08-30T09:08:56Z</time>
      </trkpt>
      <trkpt lat="45.18559" lon="5.66651">
        <ele>421.7</ele>
        <time>2021-08-30T09:08:57Z</time>
      </trkpt>
      <trkpt lat="45.18559" lon="5.66651">
        <ele>421.7</ele>
        <time>2021-08-30T09:08:59Z</time>
      </trkpt>
      <trkpt lat="45.18559" lon="5.66651">
        <ele>421.7</ele>
        <time>2021-08-30T09:09:01Z</time>
      </trkpt>
      <trkpt lat="45.18559" lon="5.66651">
        <ele>421.7</ele>
        <time>2021-08-30T09:09:02Z</time>
      </trkpt>
      <trkpt lat="45.18559" lon="5.66651">
        <ele>421.7</ele>
        <time>2021-08-30T09:09:03Z</time>
      </trkpt>
      <trkpt lat="45.18559" lon="5.6665">
        <ele>421.7</ele>
        <time>2021-08-30T09:09:05Z</time>
      </trkpt>
      <trkpt lat="45.18559" lon="5.66649">
        <ele>421.7</ele>
        <time>2021-08-30T09:09:06Z</time>
      </trkpt>
      <trkpt lat="45.18559" lon="5.66647">
        <ele>421.8</ele>
        <time>2021-08-30T09:09:08Z</time>
      </trkpt>
      <trkpt lat="45.18558" lon="5.66645">
        <ele>421.8</ele>
        <time>2021-08-30T09:09:09Z</time>
      </trkpt>
      <trkpt lat="45.18558" lon="5.66643">
        <ele>421.9</ele>
        <time>2021-08-30T09:09:10Z</time>
      </trkpt>
      <trkpt lat="45.18558" lon="5.66642">
        <ele>421.9</ele>
        <time>2021-08-30T09:09:11Z</time>
      </trkpt>
      <trkpt lat="45.18558" lon="5.66641">
        <ele>421.9</ele>
        <time>2021-08-30T09:09:13Z</time>
      </trkpt>
      <trkpt lat="45.18557" lon="5.6664">
        <ele>421.9</ele>
        <time>2021-08-30T09:09:14Z</time>
      </trkpt>
      <trkpt lat="45.18557" lon="5.6664">
        <ele>421.9</ele>
        <time>2021-08-30T09:09:16Z</time>
      </trkpt>
      <trkpt lat="45.18557" lon="5.66639">
        <ele>421.9</ele>
        <time>2021-08-30T09:09:17Z</time>
      </trkpt>
      <trkpt lat="45.18557" lon="5.66639">
        <ele>422</ele>
        <time>2021-08-30T09:09:18Z</time>
      </trkpt>
      <trkpt lat="45.18556" lon="5.66639">
        <ele>422</ele>
        <time>2021-08-30T09:09:20Z</time>
      </trkpt>
      <trkpt lat="45.18556" lon="5.66639">
        <ele>422</ele>
        <time>2021-08-30T09:09:21Z</time>
      </trkpt>
      <trkpt lat="45.18556" lon="5.66638">
        <ele>422</ele>
        <time>2021-08-30T09:09:23Z</time>
      </trkpt>
      <trkpt lat="45.18556" lon="5.66638">
        <ele>422</ele>
        <time>2021-08-30T09:09:24Z</time>
      </trkpt>
      <trkpt lat="45.18557" lon="5.66639">
        <ele>422</ele>
        <time>2021-08-30T09:09:26Z</time>
      </trkpt>
      <trkpt lat="45.18558" lon="5.6664">
        <ele>422</ele>
        <time>2021-08-30T09:09:28Z</time>
      </trkpt>
      <trkpt lat="45.1856" lon="5.66641">
        <ele>422.1</ele>
        <time>2021-08-30T09:09:29Z</time>
      </trkpt>
      <trkpt lat="45.18561" lon="5.66641">
        <ele>422.1</ele>
        <time>2021-08-30T09:09:31Z</time>
      </trkpt>
      <trkpt lat="45.18561" lon="5.66641">
        <ele>422.1</ele>
        <time>2021-08-30T09:09:32Z</time>
      </trkpt>
      <trkpt lat="45.18562" lon="5.66642">
        <ele>422.2</ele>
        <time>2021-08-30T09:09:33Z</time>
      </trkpt>
      <trkpt lat="45.18563" lon="5.66643">
        <ele>422.2</ele>
        <time>2021-08-30T09:09:35Z</time>
      </trkpt>
      <trkpt lat="45.18563" lon="5.66643">
        <ele>422.2</ele>
        <time>2021-08-30T09:09:36Z</time>
      </trkpt>
      <trkpt lat="45.18564" lon="5.66644">
        <ele>422.2</ele>
        <time>2021-08-30T09:09:38Z</time>
      </trkpt>
      <trkpt lat="45.18564" lon="5.66642">
        <ele>422.3</ele>
        <time>2021-08-30T09:09:39Z</time>
      </trkpt>
      <trkpt lat="45.18564" lon="5.66638">
        <ele>422.4</ele>
        <time>2021-08-30T09:09:41Z</time>
      </trkpt>
      <trkpt lat="45.18565" lon="5.6662">
        <ele>424.5</ele>
        <time>2021-08-30T09:09:42Z</time>
      </trkpt>
      <trkpt lat="45.18565" lon="5.66609">
        <ele>425.1</ele>
        <time>2021-08-30T09:09:44Z</time>
      </trkpt>
      <trkpt lat="45.18564" lon="5.66605">
        <ele>425.4</ele>
        <time>2021-08-30T09:09:45Z</time>
      </trkpt>
      <trkpt lat="45.18563" lon="5.66602">
        <ele>425.5</ele>
        <time>2021-08-30T09:09:46Z</time>
      </trkpt>
      <trkpt lat="45.18563" lon="5.666">
        <ele>425.7</ele>
        <time>2021-08-30T09:09:48Z</time>
      </trkpt>
      <trkpt lat="45.18562" lon="5.66597">
        <ele>425.9</ele>
        <time>2021-08-30T09:09:49Z</time>
      </trkpt>
      <trkpt lat="45.18561" lon="5.66596">
        <ele>425.9</ele>
        <time>2021-08-30T09:09:51Z</time>
      </trkpt>
      <trkpt lat="45.18561" lon="5.66596">
        <ele>426</ele>
        <time>2021-08-30T09:09:52Z</time>
      </trkpt>
      <trkpt lat="45.1856" lon="5.66595">
        <ele>426.1</ele>
        <time>2021-08-30T09:09:53Z</time>
      </trkpt>
      <trkpt lat="45.18558" lon="5.66594">
        <ele>426.2</ele>
        <time>2021-08-30T09:09:55Z</time>
      </trkpt>
      <trkpt lat="45.18557" lon="5.66594">
        <ele>426.3</ele>
        <time>2021-08-30T09:09:56Z</time>
      </trkpt>
      <trkpt lat="45.18556" lon="5.66593">
        <ele>426.4</ele>
        <time>2021-08-30T09:09:58Z</time>
      </trkpt>
      <trkpt lat="45.18556" lon="5.66593">
        <ele>426.4</ele>
        <time>2021-08-30T09:09:59Z</time>
      </trkpt>
      <trkpt lat="45.18556" lon="5.66593">
        <ele>426.5</ele>
        <time>2021-08-30T09:10:00Z</time>
      </trkpt>
      <trkpt lat="45.18555" lon="5.66593">
        <ele>426.5</ele>
        <time>2021-08-30T09:10:02Z</time>
      </trkpt>
      <trkpt lat="45.18555" lon="5.66592">
        <ele>426.5</ele>
        <time>2021-08-30T09:10:03Z</time>
      </trkpt>
      <trkpt lat="45.18555" lon="5.66592">
        <ele>426.6</ele>
        <time>2021-08-30T09:10:04Z</time>
      </trkpt>
      <trkpt lat="45.18556" lon="5.66592">
        <ele>426.6</ele>
        <time>2021-08-30T09:10:05Z</time>
      </trkpt>
      <trkpt lat="45.18557" lon="5.66592">
        <ele>426.7</ele>
        <time>2021-08-30T09:10:06Z</time>
      </trkpt>
      <trkpt lat="45.18559" lon="5.66591">
        <ele>426.9</ele>
        <time>2021-08-30T09:10:08Z</time>
      </trkpt>
      <trkpt lat="45.18559" lon="5.6659">
        <ele>426.9</ele>
        <time>2021-08-30T09:10:09Z</time>
      </trkpt>
      <trkpt lat="45.1856" lon="5.6659">
        <ele>427</ele>
        <time>2021-08-30T09:10:11Z</time>
      </trkpt>
      <trkpt lat="45.1856" lon="5.6659">
        <ele>427</ele>
        <time>2021-08-30T09:10:12Z</time>
      </trkpt>
      <trkpt lat="45.18561" lon="5.6659">
        <ele>427.1</ele>
        <time>2021-08-30T09:10:14Z</time>
      </trkpt>
      <trkpt lat="45.18561" lon="5.6659">
        <ele>427.1</ele>
        <time>2021-08-30T09:10:15Z</time>
      </trkpt>
      <trkpt lat="45.18561" lon="5.6659">
        <ele>427.1</ele>
        <time>2021-08-30T09:10:17Z</time>
      </trkpt>
      <trkpt lat="45.18561" lon="5.66589">
        <ele>427.1</ele>
        <time>2021-08-30T09:10:19Z</time>
      </trkpt>
      <trkpt lat="45.18561" lon="5.66589">
        <ele>427.1</ele>
        <time>2021-08-30T09:10:20Z</time>
      </trkpt>
      <trkpt lat="45.18561" lon="5.66589">
        <ele>427.2</ele>
        <time>2021-08-30T09:10:21Z</time>
      </trkpt>
      <trkpt lat="45.18562" lon="5.66589">
        <ele>427.2</ele>
        <time>2021-08-30T09:10:23Z</time>
      </trkpt>
      <trkpt lat="45.18562" lon="5.66589">
        <ele>427.2</ele>
        <time>2021-08-30T09:10:24Z</time>
      </trkpt>
      <trkpt lat="45.18561" lon="5.66589">
        <ele>427.3</ele>
        <time>2021-08-30T09:10:26Z</time>
      </trkpt>
      <trkpt lat="45.18559" lon="5.6659">
        <ele>427.5</ele>
        <time>2021-08-30T09:10:27Z</time>
      </trkpt>
      <trkpt lat="45.18558" lon="5.6659">
        <ele>427.5</ele>
        <time>2021-08-30T09:10:28Z</time>
      </trkpt>
      <trkpt lat="45.18557" lon="5.6659">
        <ele>427.6</ele>
        <time>2021-08-30T09:10:29Z</time>
      </trkpt>
      <trkpt lat="45.18555" lon="5.66589">
        <ele>427.9</ele>
        <time>2021-08-30T09:10:31Z</time>
      </trkpt>
      <trkpt lat="45.18554" lon="5.66587">
        <ele>428.1</ele>
        <time>2021-08-30T09:10:33Z</time>
      </trkpt>
      <trkpt lat="45.18553" lon="5.66585">
        <ele>428.2</ele>
        <time>2021-08-30T09:10:35Z</time>
      </trkpt>
      <trkpt lat="45.18553" lon="5.66584">
        <ele>428.3</ele>
        <time>2021-08-30T09:10:36Z</time>
      </trkpt>
      <trkpt lat="45.18553" lon="5.66583">
        <ele>428.4</ele>
        <time>2021-08-30T09:10:37Z</time>
      </trkpt>
      <trkpt lat="45.18552" lon="5.66582">
        <ele>428.4</ele>
        <time>2021-08-30T09:10:38Z</time>
      </trkpt>
      <trkpt lat="45.18552" lon="5.66582">
        <ele>428.5</ele>
        <time>2021-08-30T09:10:40Z</time>
      </trkpt>
      <trkpt lat="45.18552" lon="5.66582">
        <ele>428.5</ele>
        <time>2021-08-30T09:10:41Z</time>
      </trkpt>
      <trkpt lat="45.18552" lon="5.66582">
        <ele>428.5</ele>
        <time>2021-08-30T09:10:43Z</time>
      </trkpt>
      <trkpt lat="45.18553" lon="5.66579">
        <ele>428.7</ele>
        <time>2021-08-30T09:10:46Z</time>
      </trkpt>
      <trkpt lat="45.18553" lon="5.66578">
        <ele>428.8</ele>
        <time>2021-08-30T09:10:48Z</time>
      </trkpt>
      <trkpt lat="45.18554" lon="5.66577">
        <ele>428.9</ele>
        <time>2021-08-30T09:10:50Z</time>
      </trkpt>
      <trkpt lat="45.18554" lon="5.66576">
        <ele>429</ele>
        <time>2021-08-30T09:10:52Z</time>
      </trkpt>
      <trkpt lat="45.18554" lon="5.66576">
        <ele>429</ele>
        <time>2021-08-30T09:10:53Z</time>
      </trkpt>
      <trkpt lat="45.18554" lon="5.66575">
        <ele>429.1</ele>
        <time>2021-08-30T09:10:54Z</time>
      </trkpt>
      <trkpt lat="45.18555" lon="5.66575">
        <ele>429.1</ele>
        <time>2021-08-30T09:10:56Z</time>
      </trkpt>
      <trkpt lat="45.18555" lon="5.66574">
        <ele>429.2</ele>
        <time>2021-08-30T09:10:58Z</time>
      </trkpt>
      <trkpt lat="45.18558" lon="5.66566">
        <ele>429.9</ele>
        <time>2021-08-30T09:11:00Z</time>
      </trkpt>
      <trkpt lat="45.18559" lon="5.66565">
        <ele>430</ele>
        <time>2021-08-30T09:11:01Z</time>
      </trkpt>
      <trkpt lat="45.18559" lon="5.66565">
        <ele>430.1</ele>
        <time>2021-08-30T09:11:03Z</time>
      </trkpt>
      <trkpt lat="45.1856" lon="5.66565">
        <ele>430.1</ele>
        <time>2021-08-30T09:11:04Z</time>
      </trkpt>
      <trkpt lat="45.1856" lon="5.66565">
        <ele>430.1</ele>
        <time>2021-08-30T09:11:06Z</time>
      </trkpt>
      <trkpt lat="45.1856" lon="5.66566">
        <ele>430.1</ele>
        <time>2021-08-30T09:11:07Z</time>
      </trkpt>
      <trkpt lat="45.1856" lon="5.66566">
        <ele>430.1</ele>
        <time>2021-08-30T09:11:08Z</time>
      </trkpt>
      <trkpt lat="45.1856" lon="5.66566">
        <ele>430.1</ele>
        <time>2021-08-30T09:11:10Z</time>
      </trkpt>
      <trkpt lat="45.1856" lon="5.66566">
        <ele>430.1</ele>
        <time>2021-08-30T09:11:11Z</time>
      </trkpt>
      <trkpt lat="45.1856" lon="5.66566">
        <ele>430.1</ele>
        <time>2021-08-30T09:11:12Z</time>
      </trkpt>
      <trkpt lat="45.1856" lon="5.66566">
        <ele>430.1</ele>
        <time>2021-08-30T09:11:14Z</time>
      </trkpt>
      <trkpt lat="45.1856" lon="5.66566">
        <ele>430.1</ele>
        <time>2021-08-30T09:11:16Z</time>
      </trkpt>
      <trkpt lat="45.1856" lon="5.66571">
        <ele>430.6</ele>
        <time>2021-08-30T09:11:18Z</time>
      </trkpt>
      <trkpt lat="45.18561" lon="5.66575">
        <ele>431</ele>
        <time>2021-08-30T09:11:19Z</time>
      </trkpt>
      <trkpt lat="45.18563" lon="5.6658">
        <ele>431.4</ele>
        <time>2021-08-30T09:11:21Z</time>
      </trkpt>
      <trkpt lat="45.18564" lon="5.66582">
        <ele>431.7</ele>
        <time>2021-08-30T09:11:22Z</time>
      </trkpt>
      <trkpt lat="45.18566" lon="5.66584">
        <ele>432</ele>
        <time>2021-08-30T09:11:24Z</time>
      </trkpt>
      <trkpt lat="45.18568" lon="5.66582">
        <ele>432.3</ele>
        <time>2021-08-30T09:11:26Z</time>
      </trkpt>
      <trkpt lat="45.18569" lon="5.66581">
        <ele>432.4</ele>
        <time>2021-08-30T09:11:28Z</time>
      </trkpt>
      <trkpt lat="45.1857" lon="5.6658">
        <ele>432.5</ele>
        <time>2021-08-30T09:11:30Z</time>
      </trkpt>
      <trkpt lat="45.1857" lon="5.6658">
        <ele>432.5</ele>
        <time>2021-08-30T09:11:32Z</time>
      </trkpt>
      <trkpt lat="45.1857" lon="5.6658">
        <ele>432.6</ele>
        <time>2021-08-30T09:11:34Z</time>
      </trkpt>
      <trkpt lat="45.1857" lon="5.6658">
        <ele>432.6</ele>
        <time>2021-08-30T09:11:35Z</time>
      </trkpt>
      <trkpt lat="45.1857" lon="5.6658">
        <ele>432.6</ele>
        <time>2021-08-30T09:11:36Z</time>
      </trkpt>
      <trkpt lat="45.1857" lon="5.6658">
        <ele>432.6</ele>
        <time>2021-08-30T09:11:38Z</time>
      </trkpt>
      <trkpt lat="45.1857" lon="5.6658">
        <ele>432.6</ele>
        <time>2021-08-30T09:11:39Z</time>
      </trkpt>
      <trkpt lat="45.1857" lon="5.6658">
        <ele>432.6</ele>
        <time>2021-08-30T09:11:41Z</time>
      </trkpt>
      <trkpt lat="45.1857" lon="5.6658">
        <ele>432.6</ele>
        <time>2021-08-30T09:11:42Z</time>
      </trkpt>
      <trkpt lat="45.1857" lon="5.6658">
        <ele>432.6</ele>
        <time>2021-08-30T09:11:44Z</time>
      </trkpt>
      <trkpt lat="45.1857" lon="5.6658">
        <ele>432.6</ele>
        <time>2021-08-30T09:11:45Z</time>
      </trkpt>
      <trkpt lat="45.1857" lon="5.66581">
        <ele>432.6</ele>
        <time>2021-08-30T09:11:47Z</time>
      </trkpt>
      <trkpt lat="45.1857" lon="5.66581">
        <ele>432.7</ele>
        <time>2021-08-30T09:11:49Z</time>
      </trkpt>
      <trkpt lat="45.1857" lon="5.66581">
        <ele>432.7</ele>
        <time>2021-08-30T09:11:51Z</time>
      </trkpt>
      <trkpt lat="45.1857" lon="5.66581">
        <ele>432.7</ele>
        <time>2021-08-30T09:11:53Z</time>
      </trkpt>
      <trkpt lat="45.1857" lon="5.66581">
        <ele>432.7</ele>
        <time>2021-08-30T09:11:54Z</time>
      </trkpt>
      <trkpt lat="45.1857" lon="5.66581">
        <ele>432.7</ele>
        <time>2021-08-30T09:11:56Z</time>
      </trkpt>
      <trkpt lat="45.1857" lon="5.66581">
        <ele>432.7</ele>
        <time>2021-08-30T09:11:58Z</time>
      </trkpt>
      <trkpt lat="45.1857" lon="5.66581">
        <ele>432.7</ele>
        <time>2021-08-30T09:12:00Z</time>
      </trkpt>
      <trkpt lat="45.1857" lon="5.66582">
        <ele>432.7</ele>
        <time>2021-08-30T09:12:01Z</time>
      </trkpt>
      <trkpt lat="45.1857" lon="5.66582">
        <ele>432.7</ele>
        <time>2021-08-30T09:12:02Z</time>
      </trkpt>
      <trkpt lat="45.1857" lon="5.66581">
        <ele>432.8</ele>
        <time>2021-08-30T09:12:05Z</time>
      </trkpt>
      <trkpt lat="45.1857" lon="5.66581">
        <ele>432.8</ele>
        <time>2021-08-30T09:12:06Z</time>
      </trkpt>
      <trkpt lat="45.1857" lon="5.6658">
        <ele>432.9</ele>
        <time>2021-08-30T09:12:07Z</time>
      </trkpt>
      <trkpt lat="45.18571" lon="5.66578">
        <ele>433</ele>
        <time>2021-08-30T09:12:08Z</time>
      </trkpt>
      <trkpt lat="45.18571" lon="5.66576">
        <ele>433.2</ele>
        <time>2021-08-30T09:12:10Z</time>
      </trkpt>
      <trkpt lat="45.18571" lon="5.66576">
        <ele>433.2</ele>
        <time>2021-08-30T09:12:11Z</time>
      </trkpt>
      <trkpt lat="45.18571" lon="5.66576">
        <ele>433.3</ele>
        <time>2021-08-30T09:12:12Z</time>
      </trkpt>
      <trkpt lat="45.18571" lon="5.66576">
        <ele>433.3</ele>
        <time>2021-08-30T09:12:14Z</time>
      </trkpt>
      <trkpt lat="45.18571" lon="5.66576">
        <ele>433.3</ele>
        <time>2021-08-30T09:12:15Z</time>
      </trkpt>
      <trkpt lat="45.18571" lon="5.66575">
        <ele>433.3</ele>
        <time>2021-08-30T09:12:17Z</time>
      </trkpt>
      <trkpt lat="45.18571" lon="5.66575">
        <ele>433.3</ele>
        <time>2021-08-30T09:12:19Z</time>
      </trkpt>
      <trkpt lat="45.18571" lon="5.66575">
        <ele>433.4</ele>
        <time>2021-08-30T09:12:21Z</time>
      </trkpt>
      <trkpt lat="45.18571" lon="5.66574">
        <ele>433.4</ele>
        <time>2021-08-30T09:12:23Z</time>
      </trkpt>
      <trkpt lat="45.18571" lon="5.66574">
        <ele>433.5</ele>
        <time>2021-08-30T09:12:25Z</time>
      </trkpt>
      <trkpt lat="45.18571" lon="5.66574">
        <ele>433.5</ele>
        <time>2021-08-30T09:12:26Z</time>
      </trkpt>
      <trkpt lat="45.18572" lon="5.66574">
        <ele>433.6</ele>
        <time>2021-08-30T09:12:27Z</time>
      </trkpt>
      <trkpt lat="45.18572" lon="5.66581">
        <ele>434.3</ele>
        <time>2021-08-30T09:12:29Z</time>
      </trkpt>
      <trkpt lat="45.18572" lon="5.66585">
        <ele>434.6</ele>
        <time>2021-08-30T09:12:30Z</time>
      </trkpt>
      <trkpt lat="45.18572" lon="5.66588">
        <ele>434.9</ele>
        <time>2021-08-30T09:12:32Z</time>
      </trkpt>
      <trkpt lat="45.18572" lon="5.66588">
        <ele>434.9</ele>
        <time>2021-08-30T09:12:34Z</time>
      </trkpt>
      <trkpt lat="45.18572" lon="5.6659">
        <ele>435</ele>
        <time>2021-08-30T09:12:35Z</time>
      </trkpt>
      <trkpt lat="45.18572" lon="5.6659">
        <ele>435.1</ele>
        <time>2021-08-30T09:12:36Z</time>
      </trkpt>
      <trkpt lat="45.18572" lon="5.66591">
        <ele>435.1</ele>
        <time>2021-08-30T09:12:38Z</time>
      </trkpt>
      <trkpt lat="45.18572" lon="5.66591">
        <ele>435.1</ele>
        <time>2021-08-30T09:12:39Z</time>
      </trkpt>
      <trkpt lat="45.18572" lon="5.66591">
        <ele>435.1</ele>
        <time>2021-08-30T09:12:41Z</time>
      </trkpt>
      <trkpt lat="45.18572" lon="5.66591">
        <ele>435.1</ele>
        <time>2021-08-30T09:12:43Z</time>
      </trkpt>
      <trkpt lat="45.18572" lon="5.66591">
        <ele>435.1</ele>
        <time>2021-08-30T09:12:44Z</time>
      </trkpt>
      <trkpt lat="45.18572" lon="5.66591">
        <ele>435.1</ele>
        <time>2021-08-30T09:12:45Z</time>
      </trkpt>
      <trkpt lat="45.18572" lon="5.66591">
        <ele>435.1</ele>
        <time>2021-08-30T09:12:47Z</time>
      </trkpt>
      <trkpt lat="45.18572" lon="5.66591">
        <ele>435.1</ele>
        <time>2021-08-30T09:12:49Z</time>
      </trkpt>
      <trkpt lat="45.18572" lon="5.66591">
        <ele>435.1</ele>
        <time>2021-08-30T09:12:50Z</time>
      </trkpt>
      <trkpt lat="45.18572" lon="5.66591">
        <ele>435.1</ele>
        <time>2021-08-30T09:12:52Z</time>
      </trkpt>
      <trkpt lat="45.18572" lon="5.66591">
        <ele>435.1</ele>
        <time>2021-08-30T09:12:53Z</time>
      </trkpt>
      <trkpt lat="45.18572" lon="5.66591">
        <ele>435.1</ele>
        <time>2021-08-30T09:12:55Z</time>
      </trkpt>
      <trkpt lat="45.18572" lon="5.66591">
        <ele>435.1</ele>
        <time>2021-08-30T09:12:57Z</time>
      </trkpt>
      <trkpt lat="45.18566" lon="5.66586">
        <ele>436</ele>
        <time>2021-08-30T09:12:59Z</time>
      </trkpt>
      <trkpt lat="45.18563" lon="5.66587">
        <ele>436.4</ele>
        <time>2021-08-30T09:13:01Z</time>
      </trkpt>
      <trkpt lat="45.18562" lon="5.66588">
        <ele>436.6</ele>
        <time>2021-08-30T09:13:02Z</time>
      </trkpt>
      <trkpt lat="45.1856" lon="5.66587">
        <ele>436.8</ele>
        <time>2021-08-30T09:13:04Z</time>
      </trkpt>
      <trkpt lat="45.18559" lon="5.66585">
        <ele>437</ele>
        <time>2021-08-30T09:13:05Z</time>
      </trkpt>
      <trkpt lat="45.18559" lon="5.66582">
        <ele>437.2</ele>
        <time>2021-08-30T09:13:06Z</time>
      </trkpt>
      <trkpt lat="45.18559" lon="5.6658">
        <ele>437.4</ele>
        <time>2021-08-30T09:13:07Z</time>
      </trkpt>
      <trkpt lat="45.18559" lon="5.66579">
        <ele>437.5</ele>
        <time>2021-08-30T09:13:09Z</time>
      </trkpt>
      <trkpt lat="45.18558" lon="5.66579">
        <ele>437.5</ele>
        <time>2021-08-30T09:13:10Z</time>
      </trkpt>
      <trkpt lat="45.18558" lon="5.66578">
        <ele>437.6</ele>
        <time>2021-08-30T09:13:12Z</time>
      </trkpt>
      <trkpt lat="45.18558" lon="5.66574">
        <ele>437.9</ele>
        <time>2021-08-30T09:13:14Z</time>
      </trkpt>
      <trkpt lat="45.18559" lon="5.66569">
        <ele>438.3</ele>
        <time>2021-08-30T09:13:16Z</time>
      </trkpt>
      <trkpt lat="45.18559" lon="5.66568">
        <ele>438.4</ele>
        <time>2021-08-30T09:13:18Z</time>
      </trkpt>
      <trkpt lat="45.18559" lon="5.66567">
        <ele>438.5</ele>
        <time>2021-08-30T09:13:20Z</time>
      </trkpt>
      <trkpt lat="45.18559" lon="5.66566">
        <ele>438.5</ele>
        <time>2021-08-30T09:13:21Z</time>
      </trkpt>
      <trkpt lat="45.18559" lon="5.66566">
        <ele>438.6</ele>
        <time>2021-08-30T09:13:23Z</time>
      </trkpt>
      <trkpt lat="45.18559" lon="5.66566">
        <ele>438.6</ele>
        <time>2021-08-30T09:13:24Z</time>
      </trkpt>
      <trkpt lat="45.18559" lon="5.66566">
        <ele>438.6</ele>
        <time>2021-08-30T09:13:25Z</time>
      </trkpt>
      <trkpt lat="45.18559" lon="5.66565">
        <ele>438.6</ele>
        <time>2021-08-30T09:13:26Z</time>
      </trkpt>
      <trkpt lat="45.1856" lon="5.66564">
        <ele>438.7</ele>
        <time>2021-08-30T09:13:28Z</time>
      </trkpt>
      <trkpt lat="45.18561" lon="5.66564">
        <ele>438.9</ele>
        <time>2021-08-30T09:13:30Z</time>
      </trkpt>
      <trkpt lat="45.18562" lon="5.66564">
        <ele>439</ele>
        <time>2021-08-30T09:13:32Z</time>
      </trkpt>
      <trkpt lat="45.18563" lon="5.66565">
        <ele>439</ele>
        <time>2021-08-30T09:13:33Z</time>
      </trkpt>
      <trkpt lat="45.18563" lon="5.66565">
        <ele>439.1</ele>
        <time>2021-08-30T09:13:35Z</time>
      </trkpt>
      <trkpt lat="45.18563" lon="5.66565">
        <ele>439.1</ele>
        <time>2021-08-30T09:13:36Z</time>
      </trkpt>
      <trkpt lat="45.18563" lon="5.66565">
        <ele>439.1</ele>
        <time>2021-08-30T09:13:37Z</time>
      </trkpt>
      <trkpt lat="45.18562" lon="5.66567">
        <ele>439.3</ele>
        <time>2021-08-30T09:13:38Z</time>
      </trkpt>
      <trkpt lat="45.18561" lon="5.6657">
        <ele>439.6</ele>
        <time>2021-08-30T09:13:40Z</time>
      </trkpt>
      <trkpt lat="45.18561" lon="5.66574">
        <ele>439.9</ele>
        <time>2021-08-30T09:13:42Z</time>
      </trkpt>
      <trkpt lat="45.18561" lon="5.66575">
        <ele>440</ele>
        <time>2021-08-30T09:13:44Z</time>
      </trkpt>
      <trkpt lat="45.18561" lon="5.66575">
        <ele>440</ele>
        <time>2021-08-30T09:13:45Z</time>
      </trkpt>
      <trkpt lat="45.18561" lon="5.66576">
        <ele>440</ele>
        <time>2021-08-30T09:13:47Z</time>
      </trkpt>
      <trkpt lat="45.18561" lon="5.66576">
        <ele>440</ele>
        <time>2021-08-30T09:13:48Z</time>
      </trkpt>
      <trkpt lat="45.18561" lon="5.66576">
        <ele>440.1</ele>
        <time>2021-08-30T09:13:50Z</time>
      </trkpt>
      <trkpt lat="45.18561" lon="5.66576">
        <ele>440.1</ele>
        <time>2021-08-30T09:13:52Z</time>
      </trkpt>
      <trkpt lat="45.18561" lon="5.66576">
        <ele>440.1</ele>
        <time>2021-08-30T09:13:54Z</time>
      </trkpt>
      <trkpt lat="45.18561" lon="5.66576">
        <ele>440.1</ele>
        <time>2021-08-30T09:13:55Z</time>
      </trkpt>
      <trkpt lat="45.18561" lon="5.66576">
        <ele>440.1</ele>
        <time>2021-08-30T09:13:57Z</time>
      </trkpt>
      <trkpt lat="45.18561" lon="5.66576">
        <ele>440.1</ele>
        <time>2021-08-30T09:13:58Z</time>
      </trkpt>
      <trkpt lat="45.18561" lon="5.66576">
        <ele>440.1</ele>
        <time>2021-08-30T09:13:59Z</time>
      </trkpt>
      <trkpt lat="45.18561" lon="5.66576">
        <ele>440.1</ele>
        <time>2021-08-30T09:14:01Z</time>
      </trkpt>
      <trkpt lat="45.18561" lon="5.66576">
        <ele>440.1</ele>
        <time>2021-08-30T09:14:03Z</time>
      </trkpt>
      <trkpt lat="45.18561" lon="5.66576">
        <ele>440.1</ele>
        <time>2021-08-30T09:14:05Z</time>
      </trkpt>
      <trkpt lat="45.18561" lon="5.66576">
        <ele>440.1</ele>
        <time>2021-08-30T09:14:07Z</time>
      </trkpt>
      <trkpt lat="45.18566" lon="5.6657">
        <ele>440.7</ele>
        <time>2021-08-30T09:14:09Z</time>
      </trkpt>
      <trkpt lat="45.18567" lon="5.66569">
        <ele>440.9</ele>
        <time>2021-08-30T09:14:10Z</time>
      </trkpt>
      <trkpt lat="45.18567" lon="5.66569">
        <ele>440.9</ele>
        <time>2021-08-30T09:14:11Z</time>
      </trkpt>
      <trkpt lat="45.18567" lon="5.66569">
        <ele>440.9</ele>
        <time>2021-08-30T09:14:13Z</time>
      </trkpt>
      <trkpt lat="45.18567" lon="5.66569">
        <ele>440.9</ele>
        <time>2021-08-30T09:14:14Z</time>
      </trkpt>
      <trkpt lat="45.18567" lon="5.66569">
        <ele>440.9</ele>
        <time>2021-08-30T09:14:16Z</time>
      </trkpt>
      <trkpt lat="45.18567" lon="5.66569">
        <ele>440.9</ele>
        <time>2021-08-30T09:14:17Z</time>
      </trkpt>
      <trkpt lat="45.18567" lon="5.66569">
        <ele>440.9</ele>
        <time>2021-08-30T09:14:19Z</time>
      </trkpt>
      <trkpt lat="45.18567" lon="5.66569">
        <ele>441</ele>
        <time>2021-08-30T09:14:20Z</time>
      </trkpt>
      <trkpt lat="45.18568" lon="5.66569">
        <ele>441</ele>
        <time>2021-08-30T09:14:22Z</time>
      </trkpt>
      <trkpt lat="45.18568" lon="5.66569">
        <ele>441</ele>
        <time>2021-08-30T09:14:24Z</time>
      </trkpt>
      <trkpt lat="45.18568" lon="5.66569">
        <ele>441</ele>
        <time>2021-08-30T09:14:25Z</time>
      </trkpt>
      <trkpt lat="45.18568" lon="5.66569">
        <ele>441</ele>
        <time>2021-08-30T09:14:27Z</time>
      </trkpt>
      <trkpt lat="45.18568" lon="5.6657">
        <ele>441</ele>
        <time>2021-08-30T09:14:29Z</time>
      </trkpt>
      <trkpt lat="45.18568" lon="5.6657">
        <ele>441</ele>
        <time>2021-08-30T09:14:31Z</time>
      </trkpt>
      <trkpt lat="45.18568" lon="5.6657">
        <ele>441</ele>
        <time>2021-08-30T09:14:32Z</time>
      </trkpt>
      <trkpt lat="45.18568" lon="5.6657">
        <ele>441.1</ele>
        <time>2021-08-30T09:14:33Z</time>
      </trkpt>
      <trkpt lat="45.18568" lon="5.6657">
        <ele>441.1</ele>
        <time>2021-08-30T09:14:34Z</time>
      </trkpt>
      <trkpt lat="45.18569" lon="5.6657">
        <ele>441.1</ele>
        <time>2021-08-30T09:14:36Z</time>
      </trkpt>
      <trkpt lat="45.18569" lon="5.6657">
        <ele>441.1</ele>
        <time>2021-08-30T09:14:37Z</time>
      </trkpt>
      <trkpt lat="45.18569" lon="5.6657">
        <ele>441.1</ele>
        <time>2021-08-30T09:14:38Z</time>
      </trkpt>
      <trkpt lat="45.18569" lon="5.6657">
        <ele>441.1</ele>
        <time>2021-08-30T09:14:39Z</time>
      </trkpt>
      <trkpt lat="45.18569" lon="5.6657">
        <ele>441.1</ele>
        <time>2021-08-30T09:14:41Z</time>
      </trkpt>
      <trkpt lat="45.18569" lon="5.6657">
        <ele>441.2</ele>
        <time>2021-08-30T09:14:42Z</time>
      </trkpt>
      <trkpt lat="45.18569" lon="5.6657">
        <ele>441.2</ele>
        <time>2021-08-30T09:14:44Z</time>
      </trkpt>
      <trkpt lat="45.18569" lon="5.6657">
        <ele>441.2</ele>
        <time>2021-08-30T09:14:45Z</time>
      </trkpt>
      <trkpt lat="45.18569" lon="5.6657">
        <ele>441.2</ele>
        <time>2021-08-30T09:14:47Z</time>
      </trkpt>
      <trkpt lat="45.1857" lon="5.6657">
        <ele>441.2</ele>
        <time>2021-08-30T09:14:49Z</time>
      </trkpt>
      <trkpt lat="45.1857" lon="5.6657">
        <ele>441.2</ele>
        <time>2021-08-30T09:14:50Z</time>
      </trkpt>
      <trkpt lat="45.1857" lon="5.6657">
        <ele>441.2</ele>
        <time>2021-08-30T09:14:52Z</time>
      </trkpt>
      <trkpt lat="45.1857" lon="5.6657">
        <ele>441.3</ele>
        <time>2021-08-30T09:14:53Z</time>
      </trkpt>
      <trkpt lat="45.1857" lon="5.66571">
        <ele>441.3</ele>
        <time>2021-08-30T09:14:54Z</time>
      </trkpt>
      <trkpt lat="45.18573" lon="5.66578">
        <ele>441.9</ele>
        <time>2021-08-30T09:14:56Z</time>
      </trkpt>
      <trkpt lat="45.18574" lon="5.66579">
        <ele>442</ele>
        <time>2021-08-30T09:14:58Z</time>
      </trkpt>
      <trkpt lat="45.18574" lon="5.66579">
        <ele>442</ele>
        <time>2021-08-30T09:14:59Z</time>
      </trkpt>
      <trkpt lat="45.18574" lon="5.66579">
        <ele>442.1</ele>
        <time>2021-08-30T09:15:01Z</time>
      </trkpt>
      <trkpt lat="45.18574" lon="5.66579">
        <ele>442.1</ele>
        <time>2021-08-30T09:15:02Z</time>
      </trkpt>
      <trkpt lat="45.18574" lon="5.66579">
        <ele>442.1</ele>
        <time>2021-08-30T09:15:03Z</time>
      </trkpt>
      <trkpt lat="45.18574" lon="5.66579">
        <ele>442.1</ele>
        <time>2021-08-30T09:15:05Z</time>
      </trkpt>
      <trkpt lat="45.18574" lon="5.66579">
        <ele>442.1</ele>
        <time>2021-08-30T09:15:06Z</time>
      </trkpt>
      <trkpt lat="45.18574" lon="5.66579">
        <ele>442.1</ele>
        <time>2021-08-30T09:15:08Z</time>
      </trkpt>
      <trkpt lat="45.18573" lon="5.66578">
        <ele>442.2</ele>
        <time>2021-08-30T09:15:09Z</time>
      </trkpt>
      <trkpt lat="45.18569" lon="5.66575">
        <ele>442.7</ele>
        <time>2021-08-30T09:15:11Z</time>
      </trkpt>
      <trkpt lat="45.18565" lon="5.66576">
        <ele>443.2</ele>
        <time>2021-08-30T09:15:13Z</time>
      </trkpt>
      <trkpt lat="45.18564" lon="5.66577">
        <ele>443.3</ele>
        <time>2021-08-30T09:15:14Z</time>
      </trkpt>
      <trkpt lat="45.18564" lon="5.66576">
        <ele>443.4</ele>
        <time>2021-08-30T09:15:15Z</time>
      </trkpt>
      <trkpt lat="45.18565" lon="5.66575">
        <ele>443.5</ele>
        <time>2021-08-30T09:15:17Z</time>
      </trkpt>
      <trkpt lat="45.18566" lon="5.66574">
        <ele>443.6</ele>
        <time>2021-08-30T09:15:19Z</time>
      </trkpt>
      <trkpt lat="45.18566" lon="5.66571">
        <ele>443.9</ele>
        <time>2021-08-30T09:15:20Z</time>
      </trkpt>
      <trkpt lat="45.18567" lon="5.66566">
        <ele>444.3</ele>
        <time>2021-08-30T09:15:21Z</time>
      </trkpt>
      <trkpt lat="45.18567" lon="5.66565">
        <ele>444.4</ele>
        <time>2021-08-30T09:15:22Z</time>
      </trkpt>
      <trkpt lat="45.18567" lon="5.66563">
        <ele>444.5</ele>
        <time>2021-08-30T09:15:23Z</time>
      </trkpt>
      <trkpt lat="45.18567" lon="5.66559">
        <ele>444.9</ele>
        <time>2021-08-30T09:15:25Z</time>
      </trkpt>
      <trkpt lat="45.18566" lon="5.66551">
        <ele>445.5</ele>
        <time>2021-08-30T09:15:27Z</time>
      </trkpt>
      <trkpt lat="45.18566" lon="5.66549">
        <ele>445.6</ele>
        <time>2021-08-30T09:15:28Z</time>
      </trkpt>
      <trkpt lat="45.18565" lon="5.66545">
        <ele>445.9</ele>
        <time>2021-08-30T09:15:30Z</time>
      </trkpt>
      <trkpt lat="45.18567" lon="5.66545">
        <ele>446.1</ele>
        <time>2021-08-30T09:15:32Z</time>
      </trkpt>
      <trkpt lat="45.18567" lon="5.66544">
        <ele>446.2</ele>
        <time>2021-08-30T09:15:33Z</time>
      </trkpt>
      <trkpt lat="45.18567" lon="5.66544">
        <ele>446.2</ele>
        <time>2021-08-30T09:15:35Z</time>
      </trkpt>
      <trkpt lat="45.18567" lon="5.66544">
        <ele>446.2</ele>
        <time>2021-08-30T09:15:36Z</time>
      </trkpt>
      <trkpt lat="45.18567" lon="5.66544">
        <ele>446.2</ele>
        <time>2021-08-30T09:15:38Z</time>
      </trkpt>
      <trkpt lat="45.18567" lon="5.66544">
        <ele>446.2</ele>
        <time>2021-08-30T09:15:39Z</time>
      </trkpt>
      <trkpt lat="45.18567" lon="5.66544">
        <ele>446.2</ele>
        <time>2021-08-30T09:15:41Z</time>
      </trkpt>
      <trkpt lat="45.18567" lon="5.66544">
        <ele>446.2</ele>
        <time>2021-08-30T09:15:42Z</time>
      </trkpt>
      <trkpt lat="45.18567" lon="5.66553">
        <ele>446.9</ele>
        <time>2021-08-30T09:15:44Z</time>
      </trkpt>
      <trkpt lat="45.18567" lon="5.66556">
        <ele>447.1</ele>
        <time>2021-08-30T09:15:45Z</time>
      </trkpt>
      <trkpt lat="45.18566" lon="5.66558">
        <ele>447.2</ele>
        <time>2021-08-30T09:15:46Z</time>
      </trkpt>
      <trkpt lat="45.18566" lon="5.66559">
        <ele>447.2</ele>
        <time>2021-08-30T09:15:47Z</time>
      </trkpt>
      <trkpt lat="45.18566" lon="5.66559">
        <ele>447.3</ele>
        <time>2021-08-30T09:15:48Z</time>
      </trkpt>
      <trkpt lat="45.18566" lon="5.66559">
        <ele>447.3</ele>
        <time>2021-08-30T09:15:49Z</time>
      </trkpt>
      <trkpt lat="45.18566" lon="5.6656">
        <ele>447.3</ele>
        <time>2021-08-30T09:15:51Z</time>
      </trkpt>
      <trkpt lat="45.18566" lon="5.6656">
        <ele>447.3</ele>
        <time>2021-08-30T09:15:53Z</time>
      </trkpt>
      <trkpt lat="45.18566" lon="5.6656">
        <ele>447.3</ele>
        <time>2021-08-30T09:15:55Z</time>
      </trkpt>
      <trkpt lat="45.1857" lon="5.6655">
        <ele>448.1</ele>
        <time>2021-08-30T09:15:57Z</time>
      </trkpt>
      <trkpt lat="45.18571" lon="5.66548">
        <ele>448.3</ele>
        <time>2021-08-30T09:15:59Z</time>
      </trkpt>
      <trkpt lat="45.18572" lon="5.66548">
        <ele>448.3</ele>
        <time>2021-08-30T09:16:00Z</time>
      </trkpt>
      <trkpt lat="45.18572" lon="5.66547">
        <ele>448.3</ele>
        <time>2021-08-30T09:16:02Z</time>
      </trkpt>
      <trkpt lat="45.18572" lon="5.66547">
        <ele>448.4</ele>
        <time>2021-08-30T09:16:04Z</time>
      </trkpt>
      <trkpt lat="45.18572" lon="5.66547">
        <ele>448.4</ele>
        <time>2021-08-30T09:16:06Z</time>
      </trkpt>
      <trkpt lat="45.18572" lon="5.66547">
        <ele>448.4</ele>
        <time>2021-08-30T09:16:07Z</time>
      </trkpt>
      <trkpt lat="45.18572" lon="5.66547">
        <ele>448.4</ele>
        <time>2021-08-30T09:16:08Z</time>
      </trkpt>
      <trkpt lat="45.18572" lon="5.66547">
        <ele>448.4</ele>
        <time>2021-08-30T09:16:10Z</time>
      </trkpt>
      <trkpt lat="45.18573" lon="5.66547">
        <ele>448.5</ele>
        <time>2021-08-30T09:16:11Z</time>
      </trkpt>
      <trkpt lat="45.18574" lon="5.66546">
        <ele>448.6</ele>
        <time>2021-08-30T09:16:12Z</time>
      </trkpt>
      <trkpt lat="45.18576" lon="5.66546">
        <ele>448.8</ele>
        <time>2021-08-30T09:16:14Z</time>
      </trkpt>
      <trkpt lat="45.18577" lon="5.66547">
        <ele>449</ele>
        <time>2021-08-30T09:16:15Z</time>
      </trkpt>
      <trkpt lat="45.18578" lon="5.66549">
        <ele>449.1</ele>
        <time>2021-08-30T09:16:16Z</time>
      </trkpt>
      <trkpt lat="45.18579" lon="5.66548">
        <ele>449.2</ele>
        <time>2021-08-30T09:16:18Z</time>
      </trkpt>
      <trkpt lat="45.18579" lon="5.66545">
        <ele>449.4</ele>
        <time>2021-08-30T09:16:20Z</time>
      </trkpt>
      <trkpt lat="45.1858" lon="5.66544">
        <ele>449.5</ele>
        <time>2021-08-30T09:16:21Z</time>
      </trkpt>
      <trkpt lat="45.1858" lon="5.66542">
        <ele>449.6</ele>
        <time>2021-08-30T09:16:22Z</time>
      </trkpt>
      <trkpt lat="45.18581" lon="5.66541">
        <ele>449.7</ele>
        <time>2021-08-30T09:16:23Z</time>
      </trkpt>
      <trkpt lat="45.18581" lon="5.6654">
        <ele>449.8</ele>
        <time>2021-08-30T09:16:25Z</time>
      </trkpt>
      <trkpt lat="45.18581" lon="5.6654">
        <ele>449.8</ele>
        <time>2021-08-30T09:16:26Z</time>
      </trkpt>
      <trkpt lat="45.1858" lon="5.66538">
        <ele>449.9</ele>
        <time>2021-08-30T09:16:28Z</time>
      </trkpt>
      <trkpt lat="45.18579" lon="5.66537">
        <ele>450</ele>
        <time>2021-08-30T09:16:29Z</time>
      </trkpt>
      <trkpt lat="45.18579" lon="5.66535">
        <ele>450.2</ele>
        <time>2021-08-30T09:16:30Z</time>
      </trkpt>
      <trkpt lat="45.18578" lon="5.66532">
        <ele>450.4</ele>
        <time>2021-08-30T09:16:32Z</time>
      </trkpt>
      <trkpt lat="45.18577" lon="5.6653">
        <ele>450.5</ele>
        <time>2021-08-30T09:16:33Z</time>
      </trkpt>
      <trkpt lat="45.18577" lon="5.66529">
        <ele>450.6</ele>
        <time>2021-08-30T09:16:35Z</time>
      </trkpt>
      <trkpt lat="45.18576" lon="5.66529">
        <ele>450.7</ele>
        <time>2021-08-30T09:16:37Z</time>
      </trkpt>
      <trkpt lat="45.18576" lon="5.66528">
        <ele>450.7</ele>
        <time>2021-08-30T09:16:38Z</time>
      </trkpt>
      <trkpt lat="45.18577" lon="5.66527">
        <ele>450.8</ele>
        <time>2021-08-30T09:16:39Z</time>
      </trkpt>
      <trkpt lat="45.18577" lon="5.66526">
        <ele>450.9</ele>
        <time>2021-08-30T09:16:41Z</time>
      </trkpt>
      <trkpt lat="45.18578" lon="5.66526">
        <ele>450.9</ele>
        <time>2021-08-30T09:16:43Z</time>
      </trkpt>
      <trkpt lat="45.18578" lon="5.66525">
        <ele>451</ele>
        <time>2021-08-30T09:16:44Z</time>
      </trkpt>
      <trkpt lat="45.18578" lon="5.66525">
        <ele>451</ele>
        <time>2021-08-30T09:16:45Z</time>
      </trkpt>
      <trkpt lat="45.18578" lon="5.66526">
        <ele>451</ele>
        <time>2021-08-30T09:16:47Z</time>
      </trkpt>
      <trkpt lat="45.18577" lon="5.66528">
        <ele>451.2</ele>
        <time>2021-08-30T09:16:49Z</time>
      </trkpt>
      <trkpt lat="45.18577" lon="5.66529">
        <ele>451.3</ele>
        <time>2021-08-30T09:16:50Z</time>
      </trkpt>
      <trkpt lat="45.18577" lon="5.6653">
        <ele>451.3</ele>
        <time>2021-08-30T09:16:51Z</time>
      </trkpt>
      <trkpt lat="45.18577" lon="5.6653">
        <ele>451.4</ele>
        <time>2021-08-30T09:16:53Z</time>
      </trkpt>
      <trkpt lat="45.18578" lon="5.6653">
        <ele>451.4</ele>
        <time>2021-08-30T09:16:55Z</time>
      </trkpt>
      <trkpt lat="45.18578" lon="5.66531">
        <ele>451.5</ele>
        <time>2021-08-30T09:16:56Z</time>
      </trkpt>
      <trkpt lat="45.18578" lon="5.66531">
        <ele>451.5</ele>
        <time>2021-08-30T09:16:57Z</time>
      </trkpt>
      <trkpt lat="45.18579" lon="5.66531">
        <ele>451.6</ele>
        <time>2021-08-30T09:16:58Z</time>
      </trkpt>
      <trkpt lat="45.18579" lon="5.66531">
        <ele>451.6</ele>
        <time>2021-08-30T09:17:00Z</time>
      </trkpt>
      <trkpt lat="45.1858" lon="5.66531">
        <ele>451.7</ele>
        <time>2021-08-30T09:17:02Z</time>
      </trkpt>
      <trkpt lat="45.1858" lon="5.66531">
        <ele>451.7</ele>
        <time>2021-08-30T09:17:04Z</time>
      </trkpt>
      <trkpt lat="45.18581" lon="5.66531">
        <ele>451.7</ele>
        <time>2021-08-30T09:17:05Z</time>
      </trkpt>
      <trkpt lat="45.18581" lon="5.66531">
        <ele>451.8</ele>
        <time>2021-08-30T09:17:07Z</time>
      </trkpt>
      <trkpt lat="45.18582" lon="5.66532">
        <ele>451.8</ele>
        <time>2021-08-30T09:17:08Z</time>
      </trkpt>
      <trkpt lat="45.18582" lon="5.66532">
        <ele>451.9</ele>
        <time>2021-08-30T09:17:10Z</time>
      </trkpt>
      <trkpt lat="45.18583" lon="5.66532">
        <ele>451.9</ele>
        <time>2021-08-30T09:17:12Z</time>
      </trkpt>
      <trkpt lat="45.18583" lon="5.66532">
        <ele>452</ele>
        <time>2021-08-30T09:17:13Z</time>
      </trkpt>
      <trkpt lat="45.18583" lon="5.66532">
        <ele>452</ele>
        <time>2021-08-30T09:17:14Z</time>
      </trkpt>
      <trkpt lat="45.18584" lon="5.66532">
        <ele>452</ele>
        <time>2021-08-30T09:17:16Z</time>
      </trkpt>
      <trkpt lat="45.18584" lon="5.66532">
        <ele>452.1</ele>
        <time>2021-08-30T09:17:18Z</time>
      </trkpt>
      <trkpt lat="45.18585" lon="5.66532">
        <ele>452.1</ele>
        <time>2021-08-30T09:17:20Z</time>
      </trkpt>
      <trkpt lat="45.18585" lon="5.66532">
        <ele>452.2</ele>
        <time>2021-08-30T09:17:22Z</time>
      </trkpt>
      <trkpt lat="45.18586" lon="5.66533">
        <ele>452.2</ele>
        <time>2021-08-30T09:17:26Z</time>
      </trkpt>
      <trkpt lat="45.18586" lon="5.66533">
        <ele>452.3</ele>
        <time>2021-08-30T09:17:27Z</time>
      </trkpt>
      <trkpt lat="45.18587" lon="5.66533">
        <ele>452.3</ele>
        <time>2021-08-30T09:17:28Z</time>
      </trkpt>
      <trkpt lat="45.18587" lon="5.66533">
        <ele>452.4</ele>
        <time>2021-08-30T09:17:30Z</time>
      </trkpt>
      <trkpt lat="45.18588" lon="5.66533">
        <ele>452.5</ele>
        <time>2021-08-30T09:17:31Z</time>
      </trkpt>
      <trkpt lat="45.18589" lon="5.66533">
        <ele>452.6</ele>
        <time>2021-08-30T09:17:33Z</time>
      </trkpt>
      <trkpt lat="45.18591" lon="5.66531">
        <ele>452.8</ele>
        <time>2021-08-30T09:17:34Z</time>
      </trkpt>
      <trkpt lat="45.18593" lon="5.66529">
        <ele>453</ele>
        <time>2021-08-30T09:17:36Z</time>
      </trkpt>
      <trkpt lat="45.18594" lon="5.66528">
        <ele>453.1</ele>
        <time>2021-08-30T09:17:37Z</time>
      </trkpt>
      <trkpt lat="45.18595" lon="5.66528">
        <ele>453.2</ele>
        <time>2021-08-30T09:17:39Z</time>
      </trkpt>
      <trkpt lat="45.18596" lon="5.66528">
        <ele>453.3</ele>
        <time>2021-08-30T09:17:41Z</time>
      </trkpt>
      <trkpt lat="45.18596" lon="5.66528">
        <ele>453.3</ele>
        <time>2021-08-30T09:17:42Z</time>
      </trkpt>
      <trkpt lat="45.18597" lon="5.66528">
        <ele>453.3</ele>
        <time>2021-08-30T09:17:43Z</time>
      </trkpt>
      <trkpt lat="45.18597" lon="5.66528">
        <ele>453.4</ele>
        <time>2021-08-30T09:17:45Z</time>
      </trkpt>
      <trkpt lat="45.18598" lon="5.66529">
        <ele>453.4</ele>
        <time>2021-08-30T09:17:46Z</time>
      </trkpt>
      <trkpt lat="45.18598" lon="5.66529">
        <ele>453.5</ele>
        <time>2021-08-30T09:17:48Z</time>
      </trkpt>
      <trkpt lat="45.18599" lon="5.6653">
        <ele>453.6</ele>
        <time>2021-08-30T09:17:49Z</time>
      </trkpt>
      <trkpt lat="45.186" lon="5.6653">
        <ele>453.6</ele>
        <time>2021-08-30T09:17:51Z</time>
      </trkpt>
      <trkpt lat="45.186" lon="5.6653">
        <ele>453.7</ele>
        <time>2021-08-30T09:17:52Z</time>
      </trkpt>
      <trkpt lat="45.186" lon="5.6653">
        <ele>453.7</ele>
        <time>2021-08-30T09:17:53Z</time>
      </trkpt>
      <trkpt lat="45.18601" lon="5.6653">
        <ele>453.7</ele>
        <time>2021-08-30T09:17:55Z</time>
      </trkpt>
      <trkpt lat="45.18601" lon="5.6653">
        <ele>453.8</ele>
        <time>2021-08-30T09:17:56Z</time>
      </trkpt>
      <trkpt lat="45.18601" lon="5.6653">
        <ele>453.8</ele>
        <time>2021-08-30T09:17:58Z</time>
      </trkpt>
      <trkpt lat="45.18601" lon="5.6653">
        <ele>453.8</ele>
        <time>2021-08-30T09:17:59Z</time>
      </trkpt>
      <trkpt lat="45.18602" lon="5.66531">
        <ele>453.9</ele>
        <time>2021-08-30T09:18:00Z</time>
      </trkpt>
      <trkpt lat="45.18603" lon="5.66532">
        <ele>454</ele>
        <time>2021-08-30T09:18:01Z</time>
      </trkpt>
      <trkpt lat="45.18603" lon="5.66533">
        <ele>454.1</ele>
        <time>2021-08-30T09:18:03Z</time>
      </trkpt>
      <trkpt lat="45.18604" lon="5.66534">
        <ele>454.2</ele>
        <time>2021-08-30T09:18:04Z</time>
      </trkpt>
      <trkpt lat="45.18605" lon="5.66535">
        <ele>454.3</ele>
        <time>2021-08-30T09:18:06Z</time>
      </trkpt>
      <trkpt lat="45.18605" lon="5.66536">
        <ele>454.3</ele>
        <time>2021-08-30T09:18:07Z</time>
      </trkpt>
      <trkpt lat="45.18606" lon="5.66536">
        <ele>454.4</ele>
        <time>2021-08-30T09:18:09Z</time>
      </trkpt>
      <trkpt lat="45.18607" lon="5.66537">
        <ele>454.5</ele>
        <time>2021-08-30T09:18:11Z</time>
      </trkpt>
      <trkpt lat="45.18608" lon="5.66538">
        <ele>454.6</ele>
        <time>2021-08-30T09:18:12Z</time>
      </trkpt>
      <trkpt lat="45.18608" lon="5.66538">
        <ele>454.6</ele>
        <time>2021-08-30T09:18:13Z</time>
      </trkpt>
      <trkpt lat="45.18609" lon="5.66539">
        <ele>454.7</ele>
        <time>2021-08-30T09:18:15Z</time>
      </trkpt>
      <trkpt lat="45.1861" lon="5.6654">
        <ele>454.8</ele>
        <time>2021-08-30T09:18:16Z</time>
      </trkpt>
      <trkpt lat="45.1861" lon="5.6654">
        <ele>454.9</ele>
        <time>2021-08-30T09:18:17Z</time>
      </trkpt>
      <trkpt lat="45.1861" lon="5.66541">
        <ele>454.9</ele>
        <time>2021-08-30T09:18:18Z</time>
      </trkpt>
      <trkpt lat="45.18611" lon="5.66541">
        <ele>454.9</ele>
        <time>2021-08-30T09:18:19Z</time>
      </trkpt>
      <trkpt lat="45.18611" lon="5.66541">
        <ele>455</ele>
        <time>2021-08-30T09:18:21Z</time>
      </trkpt>
      <trkpt lat="45.18611" lon="5.66541">
        <ele>455</ele>
        <time>2021-08-30T09:18:23Z</time>
      </trkpt>
      <trkpt lat="45.18612" lon="5.66541">
        <ele>455</ele>
        <time>2021-08-30T09:18:24Z</time>
      </trkpt>
      <trkpt lat="45.18612" lon="5.66542">
        <ele>455.1</ele>
        <time>2021-08-30T09:18:26Z</time>
      </trkpt>
      <trkpt lat="45.18612" lon="5.66542">
        <ele>455.1</ele>
        <time>2021-08-30T09:18:27Z</time>
      </trkpt>
      <trkpt lat="45.18613" lon="5.66542">
        <ele>455.1</ele>
        <time>2021-08-30T09:18:29Z</time>
      </trkpt>
      <trkpt lat="45.18613" lon="5.66542">
        <ele>455.2</ele>
        <time>2021-08-30T09:18:30Z</time>
      </trkpt>
      <trkpt lat="45.18615" lon="5.66542">
        <ele>455.3</ele>
        <time>2021-08-30T09:18:32Z</time>
      </trkpt>
      <trkpt lat="45.18616" lon="5.66541">
        <ele>455.4</ele>
        <time>2021-08-30T09:18:33Z</time>
      </trkpt>
      <trkpt lat="45.18617" lon="5.66539">
        <ele>455.6</ele>
        <time>2021-08-30T09:18:35Z</time>
      </trkpt>
      <trkpt lat="45.18618" lon="5.66539">
        <ele>455.6</ele>
        <time>2021-08-30T09:18:36Z</time>
      </trkpt>
      <trkpt lat="45.18618" lon="5.66538">
        <ele>455.7</ele>
        <time>2021-08-30T09:18:38Z</time>
      </trkpt>
      <trkpt lat="45.18619" lon="5.66537">
        <ele>455.8</ele>
        <time>2021-08-30T09:18:39Z</time>
      </trkpt>
      <trkpt lat="45.1862" lon="5.66537">
        <ele>455.8</ele>
        <time>2021-08-30T09:18:41Z</time>
      </trkpt>
      <trkpt lat="45.1862" lon="5.66537">
        <ele>455.9</ele>
        <time>2021-08-30T09:18:42Z</time>
      </trkpt>
      <trkpt lat="45.1862" lon="5.66536">
        <ele>455.9</ele>
        <time>2021-08-30T09:18:44Z</time>
      </trkpt>
      <trkpt lat="45.1862" lon="5.66536">
        <ele>455.9</ele>
        <time>2021-08-30T09:18:45Z</time>
      </trkpt>
      <trkpt lat="45.1862" lon="5.66536">
        <ele>456</ele>
        <time>2021-08-30T09:18:47Z</time>
      </trkpt>
      <trkpt lat="45.1862" lon="5.66536">
        <ele>456</ele>
        <time>2021-08-30T09:18:48Z</time>
      </trkpt>
      <trkpt lat="45.1862" lon="5.66535">
        <ele>456</ele>
        <time>2021-08-30T09:18:49Z</time>
      </trkpt>
      <trkpt lat="45.1862" lon="5.66535">
        <ele>456</ele>
        <time>2021-08-30T09:18:50Z</time>
      </trkpt>
      <trkpt lat="45.1862" lon="5.66535">
        <ele>456</ele>
        <time>2021-08-30T09:18:51Z</time>
      </trkpt>
      <trkpt lat="45.18621" lon="5.66535">
        <ele>456</ele>
        <time>2021-08-30T09:18:53Z</time>
      </trkpt>
      <trkpt lat="45.18621" lon="5.66536">
        <ele>456.1</ele>
        <time>2021-08-30T09:18:54Z</time>
      </trkpt>
      <trkpt lat="45.18622" lon="5.66537">
        <ele>456.2</ele>
        <time>2021-08-30T09:18:55Z</time>
      </trkpt>
      <trkpt lat="45.18624" lon="5.66539">
        <ele>456.4</ele>
        <time>2021-08-30T09:18:57Z</time>
      </trkpt>
      <trkpt lat="45.18626" lon="5.6654">
        <ele>456.6</ele>
        <time>2021-08-30T09:18:59Z</time>
      </trkpt>
      <trkpt lat="45.18627" lon="5.66541">
        <ele>456.7</ele>
        <time>2021-08-30T09:19:01Z</time>
      </trkpt>
      <trkpt lat="45.18627" lon="5.66541">
        <ele>456.7</ele>
        <time>2021-08-30T09:19:02Z</time>
      </trkpt>
      <trkpt lat="45.18628" lon="5.6654">
        <ele>456.8</ele>
        <time>2021-08-30T09:19:04Z</time>
      </trkpt>
      <trkpt lat="45.18629" lon="5.66539">
        <ele>456.9</ele>
        <time>2021-08-30T09:19:05Z</time>
      </trkpt>
      <trkpt lat="45.18631" lon="5.66535">
        <ele>457.2</ele>
        <time>2021-08-30T09:19:07Z</time>
      </trkpt>
      <trkpt lat="45.18632" lon="5.66531">
        <ele>457.5</ele>
        <time>2021-08-30T09:19:08Z</time>
      </trkpt>
      <trkpt lat="45.18633" lon="5.66529">
        <ele>457.7</ele>
        <time>2021-08-30T09:19:10Z</time>
      </trkpt>
      <trkpt lat="45.18634" lon="5.66526">
        <ele>457.8</ele>
        <time>2021-08-30T09:19:11Z</time>
      </trkpt>
      <trkpt lat="45.18634" lon="5.66526">
        <ele>457.8</ele>
        <time>2021-08-30T09:19:12Z</time>
      </trkpt>
      <trkpt lat="45.18634" lon="5.66524">
        <ele>458</ele>
        <time>2021-08-30T09:19:14Z</time>
      </trkpt>
      <trkpt lat="45.18635" lon="5.66521">
        <ele>458.2</ele>
        <time>2021-08-30T09:19:16Z</time>
      </trkpt>
      <trkpt lat="45.18636" lon="5.6652">
        <ele>458.3</ele>
        <time>2021-08-30T09:19:17Z</time>
      </trkpt>
      <trkpt lat="45.18637" lon="5.66519">
        <ele>458.4</ele>
        <time>2021-08-30T09:19:18Z</time>
      </trkpt>
      <trkpt lat="45.18638" lon="5.66519">
        <ele>458.4</ele>
        <time>2021-08-30T09:19:19Z</time>
      </trkpt>
      <trkpt lat="45.18638" lon="5.66519">
        <ele>458.5</ele>
        <time>2021-08-30T09:19:20Z</time>
      </trkpt>
      <trkpt lat="45.18639" lon="5.66518">
        <ele>458.6</ele>
        <time>2021-08-30T09:19:22Z</time>
      </trkpt>
      <trkpt lat="45.1864" lon="5.66518">
        <ele>458.7</ele>
        <time>2021-08-30T09:19:23Z</time>
      </trkpt>
      <trkpt lat="45.18641" lon="5.66518">
        <ele>458.7</ele>
        <time>2021-08-30T09:19:24Z</time>
      </trkpt>
      <trkpt lat="45.18641" lon="5.66518">
        <ele>458.8</ele>
        <time>2021-08-30T09:19:26Z</time>
      </trkpt>
      <trkpt lat="45.18641" lon="5.66517">
        <ele>458.8</ele>
        <time>2021-08-30T09:19:27Z</time>
      </trkpt>
      <trkpt lat="45.18642" lon="5.66517">
        <ele>458.8</ele>
        <time>2021-08-30T09:19:28Z</time>
      </trkpt>
      <trkpt lat="45.18642" lon="5.66516">
        <ele>458.9</ele>
        <time>2021-08-30T09:19:30Z</time>
      </trkpt>
      <trkpt lat="45.18644" lon="5.66514">
        <ele>459.2</ele>
        <time>2021-08-30T09:19:32Z</time>
      </trkpt>
      <trkpt lat="45.18646" lon="5.66512">
        <ele>459.4</ele>
        <time>2021-08-30T09:19:33Z</time>
      </trkpt>
      <trkpt lat="45.18647" lon="5.6651">
        <ele>459.5</ele>
        <time>2021-08-30T09:19:34Z</time>
      </trkpt>
      <trkpt lat="45.18648" lon="5.66507">
        <ele>459.7</ele>
        <time>2021-08-30T09:19:36Z</time>
      </trkpt>
      <trkpt lat="45.18649" lon="5.66504">
        <ele>459.9</ele>
        <time>2021-08-30T09:19:38Z</time>
      </trkpt>
      <trkpt lat="45.18651" lon="5.66501">
        <ele>460.2</ele>
        <time>2021-08-30T09:19:39Z</time>
      </trkpt>
      <trkpt lat="45.18652" lon="5.66497">
        <ele>460.5</ele>
        <time>2021-08-30T09:19:41Z</time>
      </trkpt>
      <trkpt lat="45.18653" lon="5.66495">
        <ele>460.7</ele>
        <time>2021-08-30T09:19:42Z</time>
      </trkpt>
      <trkpt lat="45.18655" lon="5.66494">
        <ele>460.9</ele>
        <time>2021-08-30T09:19:44Z</time>
      </trkpt>
      <trkpt lat="45.18656" lon="5.66494">
        <ele>460.9</ele>
        <time>2021-08-30T09:19:45Z</time>
      </trkpt>
      <trkpt lat="45.18657" lon="5.66493">
        <ele>461.1</ele>
        <time>2021-08-30T09:19:47Z</time>
      </trkpt>
      <trkpt lat="45.18657" lon="5.66492">
        <ele>461.1</ele>
        <time>2021-08-30T09:19:48Z</time>
      </trkpt>
      <trkpt lat="45.18658" lon="5.66492">
        <ele>461.2</ele>
        <time>2021-08-30T09:19:50Z</time>
      </trkpt>
      <trkpt lat="45.18658" lon="5.66491">
        <ele>461.2</ele>
        <time>2021-08-30T09:19:51Z</time>
      </trkpt>
      <trkpt lat="45.18658" lon="5.66491">
        <ele>461.3</ele>
        <time>2021-08-30T09:19:52Z</time>
      </trkpt>
      <trkpt lat="45.18659" lon="5.66491">
        <ele>461.3</ele>
        <time>2021-08-30T09:19:54Z</time>
      </trkpt>
      <trkpt lat="45.18659" lon="5.66491">
        <ele>461.4</ele>
        <time>2021-08-30T09:19:55Z</time>
      </trkpt>
      <trkpt lat="45.18661" lon="5.66491">
        <ele>461.6</ele>
        <time>2021-08-30T09:19:57Z</time>
      </trkpt>
      <trkpt lat="45.18663" lon="5.66491">
        <ele>461.8</ele>
        <time>2021-08-30T09:19:58Z</time>
      </trkpt>
      <trkpt lat="45.18667" lon="5.66492">
        <ele>462.2</ele>
        <time>2021-08-30T09:20:00Z</time>
      </trkpt>
      <trkpt lat="45.18668" lon="5.66493">
        <ele>462.4</ele>
        <time>2021-08-30T09:20:02Z</time>
      </trkpt>
      <trkpt lat="45.1867" lon="5.66493">
        <ele>462.5</ele>
        <time>2021-08-30T09:20:03Z</time>
      </trkpt>
      <trkpt lat="45.1867" lon="5.66493">
        <ele>462.6</ele>
        <time>2021-08-30T09:20:04Z</time>
      </trkpt>
      <trkpt lat="45.18671" lon="5.66494">
        <ele>462.7</ele>
        <time>2021-08-30T09:20:06Z</time>
      </trkpt>
      <trkpt lat="45.18672" lon="5.66494">
        <ele>462.8</ele>
        <time>2021-08-30T09:20:07Z</time>
      </trkpt>
      <trkpt lat="45.18672" lon="5.66494">
        <ele>462.8</ele>
        <time>2021-08-30T09:20:08Z</time>
      </trkpt>
      <trkpt lat="45.18673" lon="5.66494">
        <ele>462.9</ele>
        <time>2021-08-30T09:20:09Z</time>
      </trkpt>
      <trkpt lat="45.18672" lon="5.66492">
        <ele>463</ele>
        <time>2021-08-30T09:20:10Z</time>
      </trkpt>
      <trkpt lat="45.18672" lon="5.66491">
        <ele>463.2</ele>
        <time>2021-08-30T09:20:12Z</time>
      </trkpt>
      <trkpt lat="45.18672" lon="5.66489">
        <ele>463.3</ele>
        <time>2021-08-30T09:20:13Z</time>
      </trkpt>
      <trkpt lat="45.18671" lon="5.66487">
        <ele>463.4</ele>
        <time>2021-08-30T09:20:15Z</time>
      </trkpt>
      <trkpt lat="45.18671" lon="5.66486">
        <ele>463.6</ele>
        <time>2021-08-30T09:20:16Z</time>
      </trkpt>
      <trkpt lat="45.18671" lon="5.66484">
        <ele>463.7</ele>
        <time>2021-08-30T09:20:17Z</time>
      </trkpt>
      <trkpt lat="45.1867" lon="5.66482">
        <ele>463.9</ele>
        <time>2021-08-30T09:20:19Z</time>
      </trkpt>
      <trkpt lat="45.1867" lon="5.6648">
        <ele>464</ele>
        <time>2021-08-30T09:20:20Z</time>
      </trkpt>
      <trkpt lat="45.18669" lon="5.66479">
        <ele>464.2</ele>
        <time>2021-08-30T09:20:22Z</time>
      </trkpt>
      <trkpt lat="45.18669" lon="5.66477">
        <ele>464.3</ele>
        <time>2021-08-30T09:20:24Z</time>
      </trkpt>
      <trkpt lat="45.18669" lon="5.66475">
        <ele>464.5</ele>
        <time>2021-08-30T09:20:25Z</time>
      </trkpt>
      <trkpt lat="45.18668" lon="5.66474">
        <ele>464.6</ele>
        <time>2021-08-30T09:20:27Z</time>
      </trkpt>
      <trkpt lat="45.18668" lon="5.66472">
        <ele>464.8</ele>
        <time>2021-08-30T09:20:28Z</time>
      </trkpt>
      <trkpt lat="45.18666" lon="5.66464">
        <ele>465.5</ele>
        <time>2021-08-30T09:20:29Z</time>
      </trkpt>
      <trkpt lat="45.18666" lon="5.66462">
        <ele>465.6</ele>
        <time>2021-08-30T09:20:31Z</time>
      </trkpt>
      <trkpt lat="45.18666" lon="5.66461">
        <ele>465.7</ele>
        <time>2021-08-30T09:20:32Z</time>
      </trkpt>
      <trkpt lat="45.18666" lon="5.6646">
        <ele>465.8</ele>
        <time>2021-08-30T09:20:34Z</time>
      </trkpt>
      <trkpt lat="45.18668" lon="5.66461">
        <ele>466</ele>
        <time>2021-08-30T09:20:36Z</time>
      </trkpt>
      <trkpt lat="45.18669" lon="5.66461">
        <ele>466.1</ele>
        <time>2021-08-30T09:20:38Z</time>
      </trkpt>
      <trkpt lat="45.1867" lon="5.66462">
        <ele>466.2</ele>
        <time>2021-08-30T09:20:39Z</time>
      </trkpt>
      <trkpt lat="45.1867" lon="5.66462">
        <ele>466.3</ele>
        <time>2021-08-30T09:20:41Z</time>
      </trkpt>
      <trkpt lat="45.1867" lon="5.66462">
        <ele>466.3</ele>
        <time>2021-08-30T09:20:42Z</time>
      </trkpt>
      <trkpt lat="45.1867" lon="5.66463">
        <ele>466.3</ele>
        <time>2021-08-30T09:20:43Z</time>
      </trkpt>
      <trkpt lat="45.18671" lon="5.66464">
        <ele>466.4</ele>
        <time>2021-08-30T09:20:45Z</time>
      </trkpt>
      <trkpt lat="45.18671" lon="5.66466">
        <ele>466.7</ele>
        <time>2021-08-30T09:20:46Z</time>
      </trkpt>
      <trkpt lat="45.18671" lon="5.66468">
        <ele>466.8</ele>
        <time>2021-08-30T09:20:47Z</time>
      </trkpt>
      <trkpt lat="45.18671" lon="5.66471">
        <ele>467</ele>
        <time>2021-08-30T09:20:50Z</time>
      </trkpt>
      <trkpt lat="45.18671" lon="5.66472">
        <ele>467.1</ele>
        <time>2021-08-30T09:20:51Z</time>
      </trkpt>
      <trkpt lat="45.18671" lon="5.66472">
        <ele>467.2</ele>
        <time>2021-08-30T09:20:53Z</time>
      </trkpt>
      <trkpt lat="45.18671" lon="5.66473">
        <ele>467.2</ele>
        <time>2021-08-30T09:20:54Z</time>
      </trkpt>
      <trkpt lat="45.18671" lon="5.66473">
        <ele>467.2</ele>
        <time>2021-08-30T09:20:55Z</time>
      </trkpt>
      <trkpt lat="45.18671" lon="5.66473">
        <ele>467.2</ele>
        <time>2021-08-30T09:20:56Z</time>
      </trkpt>
      <trkpt lat="45.18671" lon="5.66473">
        <ele>467.2</ele>
        <time>2021-08-30T09:20:57Z</time>
      </trkpt>
      <trkpt lat="45.18671" lon="5.66474">
        <ele>467.3</ele>
        <time>2021-08-30T09:20:59Z</time>
      </trkpt>
      <trkpt lat="45.18671" lon="5.66473">
        <ele>467.3</ele>
        <time>2021-08-30T09:21:00Z</time>
      </trkpt>
      <trkpt lat="45.18668" lon="5.66472">
        <ele>467.6</ele>
        <time>2021-08-30T09:21:01Z</time>
      </trkpt>
      <trkpt lat="45.18666" lon="5.66471">
        <ele>467.9</ele>
        <time>2021-08-30T09:21:03Z</time>
      </trkpt>
      <trkpt lat="45.18664" lon="5.66471">
        <ele>468.1</ele>
        <time>2021-08-30T09:21:05Z</time>
      </trkpt>
      <trkpt lat="45.18664" lon="5.66471">
        <ele>468.2</ele>
        <time>2021-08-30T09:21:07Z</time>
      </trkpt>
      <trkpt lat="45.18663" lon="5.6647">
        <ele>468.2</ele>
        <time>2021-08-30T09:21:08Z</time>
      </trkpt>
      <trkpt lat="45.18662" lon="5.6647">
        <ele>468.3</ele>
        <time>2021-08-30T09:21:10Z</time>
      </trkpt>
      <trkpt lat="45.18662" lon="5.6647">
        <ele>468.4</ele>
        <time>2021-08-30T09:21:12Z</time>
      </trkpt>
      <trkpt lat="45.18662" lon="5.66469">
        <ele>468.4</ele>
        <time>2021-08-30T09:21:13Z</time>
      </trkpt>
      <trkpt lat="45.18662" lon="5.66469">
        <ele>468.4</ele>
        <time>2021-08-30T09:21:15Z</time>
      </trkpt>
      <trkpt lat="45.18661" lon="5.66469">
        <ele>468.4</ele>
        <time>2021-08-30T09:21:17Z</time>
      </trkpt>
      <trkpt lat="45.18661" lon="5.66468">
        <ele>468.5</ele>
        <time>2021-08-30T09:21:18Z</time>
      </trkpt>
      <trkpt lat="45.18661" lon="5.66468">
        <ele>468.5</ele>
        <time>2021-08-30T09:21:19Z</time>
      </trkpt>
      <trkpt lat="45.18661" lon="5.66468">
        <ele>468.5</ele>
        <time>2021-08-30T09:21:21Z</time>
      </trkpt>
      <trkpt lat="45.18661" lon="5.66468">
        <ele>468.5</ele>
        <time>2021-08-30T09:21:22Z</time>
      </trkpt>
      <trkpt lat="45.18661" lon="5.66467">
        <ele>468.5</ele>
        <time>2021-08-30T09:21:24Z</time>
      </trkpt>
      <trkpt lat="45.18661" lon="5.66467">
        <ele>468.6</ele>
        <time>2021-08-30T09:21:25Z</time>
      </trkpt>
      <trkpt lat="45.18659" lon="5.66463">
        <ele>468.9</ele>
        <time>2021-08-30T09:21:27Z</time>
      </trkpt>
      <trkpt lat="45.18657" lon="5.66461">
        <ele>469.2</ele>
        <time>2021-08-30T09:21:29Z</time>
      </trkpt>
      <trkpt lat="45.18655" lon="5.66461">
        <ele>469.3</ele>
        <time>2021-08-30T09:21:30Z</time>
      </trkpt>
      <trkpt lat="45.18655" lon="5.6646">
        <ele>469.4</ele>
        <time>2021-08-30T09:21:31Z</time>
      </trkpt>
      <trkpt lat="45.18654" lon="5.66459">
        <ele>469.5</ele>
        <time>2021-08-30T09:21:33Z</time>
      </trkpt>
      <trkpt lat="45.18653" lon="5.66459">
        <ele>469.6</ele>
        <time>2021-08-30T09:21:34Z</time>
      </trkpt>
      <trkpt lat="45.18652" lon="5.66459">
        <ele>469.7</ele>
        <time>2021-08-30T09:21:35Z</time>
      </trkpt>
      <trkpt lat="45.18651" lon="5.66458">
        <ele>469.8</ele>
        <time>2021-08-30T09:21:37Z</time>
      </trkpt>
      <trkpt lat="45.1865" lon="5.66458">
        <ele>469.9</ele>
        <time>2021-08-30T09:21:38Z</time>
      </trkpt>
      <trkpt lat="45.18647" lon="5.66457">
        <ele>470.7</ele>
        <time>2021-08-30T09:21:40Z</time>
      </trkpt>
      <trkpt lat="45.18647" lon="5.66457">
        <ele>470.8</ele>
        <time>2021-08-30T09:21:41Z</time>
      </trkpt>
      <trkpt lat="45.18645" lon="5.66455">
        <ele>471.1</ele>
        <time>2021-08-30T09:21:42Z</time>
      </trkpt>
      <trkpt lat="45.18645" lon="5.66455">
        <ele>471.1</ele>
        <time>2021-08-30T09:21:43Z</time>
      </trkpt>
      <trkpt lat="45.18645" lon="5.66455">
        <ele>471.2</ele>
        <time>2021-08-30T09:21:45Z</time>
      </trkpt>
      <trkpt lat="45.18645" lon="5.66454">
        <ele>471.2</ele>
        <time>2021-08-30T09:21:47Z</time>
      </trkpt>
      <trkpt lat="45.18644" lon="5.66454">
        <ele>471.3</ele>
        <time>2021-08-30T09:21:48Z</time>
      </trkpt>
      <trkpt lat="45.18644" lon="5.66454">
        <ele>471.3</ele>
        <time>2021-08-30T09:21:49Z</time>
      </trkpt>
      <trkpt lat="45.18644" lon="5.66453">
        <ele>471.4</ele>
        <time>2021-08-30T09:21:51Z</time>
      </trkpt>
      <trkpt lat="45.18644" lon="5.66453">
        <ele>471.4</ele>
        <time>2021-08-30T09:21:52Z</time>
      </trkpt>
      <trkpt lat="45.18643" lon="5.66453">
        <ele>471.5</ele>
        <time>2021-08-30T09:21:54Z</time>
      </trkpt>
      <trkpt lat="45.18643" lon="5.66452">
        <ele>471.5</ele>
        <time>2021-08-30T09:21:55Z</time>
      </trkpt>
      <trkpt lat="45.18643" lon="5.66452">
        <ele>471.6</ele>
        <time>2021-08-30T09:21:57Z</time>
      </trkpt>
      <trkpt lat="45.18643" lon="5.66451">
        <ele>471.6</ele>
        <time>2021-08-30T09:21:58Z</time>
      </trkpt>
      <trkpt lat="45.18642" lon="5.66451">
        <ele>471.7</ele>
        <time>2021-08-30T09:21:59Z</time>
      </trkpt>
      <trkpt lat="45.18642" lon="5.66451">
        <ele>471.7</ele>
        <time>2021-08-30T09:22:01Z</time>
      </trkpt>
      <trkpt lat="45.18642" lon="5.6645">
        <ele>471.8</ele>
        <time>2021-08-30T09:22:02Z</time>
      </trkpt>
      <trkpt lat="45.18642" lon="5.6645">
        <ele>471.8</ele>
        <time>2021-08-30T09:22:04Z</time>
      </trkpt>
      <trkpt lat="45.18641" lon="5.6645">
        <ele>471.9</ele>
        <time>2021-08-30T09:22:05Z</time>
      </trkpt>
      <trkpt lat="45.1864" lon="5.66448">
        <ele>472.1</ele>
        <time>2021-08-30T09:22:06Z</time>
      </trkpt>
      <trkpt lat="45.18639" lon="5.66448">
        <ele>472.2</ele>
        <time>2021-08-30T09:22:08Z</time>
      </trkpt>
      <trkpt lat="45.18639" lon="5.66447">
        <ele>472.3</ele>
        <time>2021-08-30T09:22:10Z</time>
      </trkpt>
      <trkpt lat="45.18638" lon="5.66446">
        <ele>472.4</ele>
        <time>2021-08-30T09:22:11Z</time>
      </trkpt>
      <trkpt lat="45.18637" lon="5.66446">
        <ele>472.5</ele>
        <time>2021-08-30T09:22:13Z</time>
      </trkpt>
      <trkpt lat="45.18637" lon="5.66445">
        <ele>472.6</ele>
        <time>2021-08-30T09:22:14Z</time>
      </trkpt>
      <trkpt lat="45.18636" lon="5.66445">
        <ele>472.7</ele>
        <time>2021-08-30T09:22:16Z</time>
      </trkpt>
      <trkpt lat="45.18635" lon="5.66444">
        <ele>472.8</ele>
        <time>2021-08-30T09:22:17Z</time>
      </trkpt>
      <trkpt lat="45.18635" lon="5.66443">
        <ele>472.9</ele>
        <time>2021-08-30T09:22:18Z</time>
      </trkpt>
      <trkpt lat="45.18634" lon="5.66443">
        <ele>473</ele>
        <time>2021-08-30T09:22:20Z</time>
      </trkpt>
      <trkpt lat="45.18634" lon="5.66442">
        <ele>473.1</ele>
        <time>2021-08-30T09:22:21Z</time>
      </trkpt>
      <trkpt lat="45.18633" lon="5.66441">
        <ele>473.2</ele>
        <time>2021-08-30T09:22:22Z</time>
      </trkpt>
      <trkpt lat="45.18631" lon="5.66437">
        <ele>473.6</ele>
        <time>2021-08-30T09:22:24Z</time>
      </trkpt>
      <trkpt lat="45.1863" lon="5.66435">
        <ele>473.7</ele>
        <time>2021-08-30T09:22:25Z</time>
      </trkpt>
      <trkpt lat="45.18629" lon="5.66434">
        <ele>473.9</ele>
        <time>2021-08-30T09:22:27Z</time>
      </trkpt>
      <trkpt lat="45.18628" lon="5.66434">
        <ele>474</ele>
        <time>2021-08-30T09:22:28Z</time>
      </trkpt>
      <trkpt lat="45.18627" lon="5.66434">
        <ele>474.1</ele>
        <time>2021-08-30T09:22:29Z</time>
      </trkpt>
      <trkpt lat="45.18626" lon="5.66434">
        <ele>474.2</ele>
        <time>2021-08-30T09:22:30Z</time>
      </trkpt>
      <trkpt lat="45.18624" lon="5.66434">
        <ele>474.5</ele>
        <time>2021-08-30T09:22:32Z</time>
      </trkpt>
      <trkpt lat="45.18623" lon="5.66434">
        <ele>474.6</ele>
        <time>2021-08-30T09:22:33Z</time>
      </trkpt>
      <trkpt lat="45.18622" lon="5.66434">
        <ele>474.7</ele>
        <time>2021-08-30T09:22:34Z</time>
      </trkpt>
      <trkpt lat="45.18621" lon="5.66433">
        <ele>474.8</ele>
        <time>2021-08-30T09:22:36Z</time>
      </trkpt>
      <trkpt lat="45.1862" lon="5.66433">
        <ele>474.8</ele>
        <time>2021-08-30T09:22:37Z</time>
      </trkpt>
      <trkpt lat="45.1862" lon="5.66432">
        <ele>474.9</ele>
        <time>2021-08-30T09:22:38Z</time>
      </trkpt>
      <trkpt lat="45.1862" lon="5.66432">
        <ele>474.9</ele>
        <time>2021-08-30T09:22:40Z</time>
      </trkpt>
      <trkpt lat="45.1862" lon="5.66432">
        <ele>474.9</ele>
        <time>2021-08-30T09:22:41Z</time>
      </trkpt>
      <trkpt lat="45.18619" lon="5.6643">
        <ele>475</ele>
        <time>2021-08-30T09:22:43Z</time>
      </trkpt>
      <trkpt lat="45.18619" lon="5.66429">
        <ele>475.2</ele>
        <time>2021-08-30T09:22:44Z</time>
      </trkpt>
      <trkpt lat="45.18619" lon="5.66428">
        <ele>475.2</ele>
        <time>2021-08-30T09:22:45Z</time>
      </trkpt>
      <trkpt lat="45.18613" lon="5.66416">
        <ele>476.4</ele>
        <time>2021-08-30T09:22:47Z</time>
      </trkpt>
      <trkpt lat="45.18609" lon="5.66408">
        <ele>477.1</ele>
        <time>2021-08-30T09:22:48Z</time>
      </trkpt>
      <trkpt lat="45.18609" lon="5.66407">
        <ele>477.2</ele>
        <time>2021-08-30T09:22:49Z</time>
      </trkpt>
      <trkpt lat="45.18609" lon="5.66406">
        <ele>477.3</ele>
        <time>2021-08-30T09:22:51Z</time>
      </trkpt>
      <trkpt lat="45.18609" lon="5.66406">
        <ele>477.3</ele>
        <time>2021-08-30T09:22:53Z</time>
      </trkpt>
      <trkpt lat="45.18609" lon="5.66406">
        <ele>477.4</ele>
        <time>2021-08-30T09:22:54Z</time>
      </trkpt>
      <trkpt lat="45.18609" lon="5.66406">
        <ele>477.4</ele>
        <time>2021-08-30T09:22:56Z</time>
      </trkpt>
      <trkpt lat="45.18609" lon="5.66406">
        <ele>477.4</ele>
        <time>2021-08-30T09:22:57Z</time>
      </trkpt>
      <trkpt lat="45.18609" lon="5.66405">
        <ele>477.4</ele>
        <time>2021-08-30T09:22:59Z</time>
      </trkpt>
      <trkpt lat="45.18609" lon="5.66404">
        <ele>477.5</ele>
        <time>2021-08-30T09:23:01Z</time>
      </trkpt>
      <trkpt lat="45.18609" lon="5.66405">
        <ele>477.5</ele>
        <time>2021-08-30T09:23:02Z</time>
      </trkpt>
      <trkpt lat="45.18609" lon="5.66408">
        <ele>477.8</ele>
        <time>2021-08-30T09:23:03Z</time>
      </trkpt>
      <trkpt lat="45.18609" lon="5.66411">
        <ele>478.1</ele>
        <time>2021-08-30T09:23:05Z</time>
      </trkpt>
      <trkpt lat="45.18609" lon="5.66413">
        <ele>478.2</ele>
        <time>2021-08-30T09:23:06Z</time>
      </trkpt>
      <trkpt lat="45.18609" lon="5.66414">
        <ele>478.3</ele>
        <time>2021-08-30T09:23:07Z</time>
      </trkpt>
      <trkpt lat="45.18609" lon="5.66416">
        <ele>478.5</ele>
        <time>2021-08-30T09:23:09Z</time>
      </trkpt>
      <trkpt lat="45.18609" lon="5.66417">
        <ele>478.5</ele>
        <time>2021-08-30T09:23:11Z</time>
      </trkpt>
      <trkpt lat="45.18609" lon="5.66416">
        <ele>478.6</ele>
        <time>2021-08-30T09:23:12Z</time>
      </trkpt>
      <trkpt lat="45.18609" lon="5.66415">
        <ele>478.7</ele>
        <time>2021-08-30T09:23:14Z</time>
      </trkpt>
      <trkpt lat="45.18609" lon="5.66414">
        <ele>478.8</ele>
        <time>2021-08-30T09:23:15Z</time>
      </trkpt>
      <trkpt lat="45.18609" lon="5.66414">
        <ele>478.8</ele>
        <time>2021-08-30T09:23:16Z</time>
      </trkpt>
      <trkpt lat="45.1861" lon="5.66413">
        <ele>478.9</ele>
        <time>2021-08-30T09:23:18Z</time>
      </trkpt>
      <trkpt lat="45.1861" lon="5.66413">
        <ele>478.9</ele>
        <time>2021-08-30T09:23:19Z</time>
      </trkpt>
      <trkpt lat="45.1861" lon="5.66413">
        <ele>478.9</ele>
        <time>2021-08-30T09:23:20Z</time>
      </trkpt>
      <trkpt lat="45.18609" lon="5.66412">
        <ele>479</ele>
        <time>2021-08-30T09:23:21Z</time>
      </trkpt>
      <trkpt lat="45.18609" lon="5.66412">
        <ele>479.1</ele>
        <time>2021-08-30T09:23:23Z</time>
      </trkpt>
      <trkpt lat="45.18608" lon="5.66411">
        <ele>479.1</ele>
        <time>2021-08-30T09:23:25Z</time>
      </trkpt>
      <trkpt lat="45.18608" lon="5.66411">
        <ele>479.1</ele>
        <time>2021-08-30T09:23:26Z</time>
      </trkpt>
      <trkpt lat="45.18608" lon="5.6641">
        <ele>479.2</ele>
        <time>2021-08-30T09:23:27Z</time>
      </trkpt>
      <trkpt lat="45.18608" lon="5.66406">
        <ele>479.6</ele>
        <time>2021-08-30T09:23:29Z</time>
      </trkpt>
      <trkpt lat="45.18608" lon="5.66404">
        <ele>479.8</ele>
        <time>2021-08-30T09:23:30Z</time>
      </trkpt>
      <trkpt lat="45.18608" lon="5.66402">
        <ele>480</ele>
        <time>2021-08-30T09:23:31Z</time>
      </trkpt>
      <trkpt lat="45.18608" lon="5.664">
        <ele>480.1</ele>
        <time>2021-08-30T09:23:32Z</time>
      </trkpt>
      <trkpt lat="45.18608" lon="5.66398">
        <ele>480.3</ele>
        <time>2021-08-30T09:23:34Z</time>
      </trkpt>
      <trkpt lat="45.18608" lon="5.66397">
        <ele>480.4</ele>
        <time>2021-08-30T09:23:35Z</time>
      </trkpt>
      <trkpt lat="45.18608" lon="5.66395">
        <ele>480.6</ele>
        <time>2021-08-30T09:23:37Z</time>
      </trkpt>
      <trkpt lat="45.18609" lon="5.66392">
        <ele>480.9</ele>
        <time>2021-08-30T09:23:38Z</time>
      </trkpt>
      <trkpt lat="45.18609" lon="5.6639">
        <ele>481.1</ele>
        <time>2021-08-30T09:23:39Z</time>
      </trkpt>
      <trkpt lat="45.18608" lon="5.66385">
        <ele>481.6</ele>
        <time>2021-08-30T09:23:41Z</time>
      </trkpt>
      <trkpt lat="45.18607" lon="5.66382">
        <ele>482</ele>
        <time>2021-08-30T09:23:42Z</time>
      </trkpt>
      <trkpt lat="45.18606" lon="5.66379">
        <ele>482.3</ele>
        <time>2021-08-30T09:23:44Z</time>
      </trkpt>
      <trkpt lat="45.18604" lon="5.66373">
        <ele>482.9</ele>
        <time>2021-08-30T09:23:46Z</time>
      </trkpt>
      <trkpt lat="45.18604" lon="5.6637">
        <ele>483.2</ele>
        <time>2021-08-30T09:23:48Z</time>
      </trkpt>
      <trkpt lat="45.18603" lon="5.66368">
        <ele>483.4</ele>
        <time>2021-08-30T09:23:49Z</time>
      </trkpt>
      <trkpt lat="45.18602" lon="5.66365">
        <ele>483.7</ele>
        <time>2021-08-30T09:23:50Z</time>
      </trkpt>
      <trkpt lat="45.18601" lon="5.66362">
        <ele>484</ele>
        <time>2021-08-30T09:23:52Z</time>
      </trkpt>
      <trkpt lat="45.186" lon="5.6636">
        <ele>484.3</ele>
        <time>2021-08-30T09:23:54Z</time>
      </trkpt>
      <trkpt lat="45.186" lon="5.66359">
        <ele>484.4</ele>
        <time>2021-08-30T09:23:55Z</time>
      </trkpt>
      <trkpt lat="45.186" lon="5.66358">
        <ele>484.5</ele>
        <time>2021-08-30T09:23:56Z</time>
      </trkpt>
      <trkpt lat="45.18599" lon="5.66358">
        <ele>484.6</ele>
        <time>2021-08-30T09:23:58Z</time>
      </trkpt>
      <trkpt lat="45.18599" lon="5.66357">
        <ele>484.6</ele>
        <time>2021-08-30T09:23:59Z</time>
      </trkpt>
      <trkpt lat="45.18599" lon="5.66357">
        <ele>484.7</ele>
        <time>2021-08-30T09:24:00Z</time>
      </trkpt>
      <trkpt lat="45.186" lon="5.66354">
        <ele>485</ele>
        <time>2021-08-30T09:24:01Z</time>
      </trkpt>
      <trkpt lat="45.18601" lon="5.66352">
        <ele>485.2</ele>
        <time>2021-08-30T09:24:03Z</time>
      </trkpt>
      <trkpt lat="45.18601" lon="5.6635">
        <ele>485.4</ele>
        <time>2021-08-30T09:24:04Z</time>
      </trkpt>
      <trkpt lat="45.18602" lon="5.66348">
        <ele>485.6</ele>
        <time>2021-08-30T09:24:05Z</time>
      </trkpt>
      <trkpt lat="45.18602" lon="5.66345">
        <ele>485.9</ele>
        <time>2021-08-30T09:24:06Z</time>
      </trkpt>
      <trkpt lat="45.18603" lon="5.66341">
        <ele>486.2</ele>
        <time>2021-08-30T09:24:08Z</time>
      </trkpt>
      <trkpt lat="45.18603" lon="5.66334">
        <ele>486.9</ele>
        <time>2021-08-30T09:24:10Z</time>
      </trkpt>
      <trkpt lat="45.18603" lon="5.6633">
        <ele>487.2</ele>
        <time>2021-08-30T09:24:11Z</time>
      </trkpt>
      <trkpt lat="45.18602" lon="5.66324">
        <ele>487.6</ele>
        <time>2021-08-30T09:24:12Z</time>
      </trkpt>
      <trkpt lat="45.18602" lon="5.66322">
        <ele>487.8</ele>
        <time>2021-08-30T09:24:13Z</time>
      </trkpt>
      <trkpt lat="45.18602" lon="5.66318">
        <ele>488</ele>
        <time>2021-08-30T09:24:15Z</time>
      </trkpt>
      <trkpt lat="45.18601" lon="5.66315">
        <ele>488.2</ele>
        <time>2021-08-30T09:24:16Z</time>
      </trkpt>
      <trkpt lat="45.18602" lon="5.66313">
        <ele>488.3</ele>
        <time>2021-08-30T09:24:17Z</time>
      </trkpt>
      <trkpt lat="45.186" lon="5.66315">
        <ele>488.5</ele>
        <time>2021-08-30T09:24:18Z</time>
      </trkpt>
      <trkpt lat="45.18599" lon="5.66318">
        <ele>488.4</ele>
        <time>2021-08-30T09:24:19Z</time>
      </trkpt>
      <trkpt lat="45.18598" lon="5.66321">
        <ele>488.3</ele>
        <time>2021-08-30T09:24:21Z</time>
      </trkpt>
      <trkpt lat="45.18596" lon="5.66324">
        <ele>488.3</ele>
        <time>2021-08-30T09:24:22Z</time>
      </trkpt>
      <trkpt lat="45.18595" lon="5.66326">
        <ele>488.2</ele>
        <time>2021-08-30T09:24:53Z</time>
      </trkpt>
      <trkpt lat="45.18594" lon="5.66329">
        <ele>488.2</ele>
        <time>2021-08-30T09:24:54Z</time>
      </trkpt>
      <trkpt lat="45.18594" lon="5.66339">
        <ele>488</ele>
        <time>2021-08-30T09:24:55Z</time>
      </trkpt>
      <trkpt lat="45.18594" lon="5.66345">
        <ele>487.8</ele>
        <time>2021-08-30T09:24:56Z</time>
      </trkpt>
      <trkpt lat="45.1859" lon="5.6635">
        <ele>487.7</ele>
        <time>2021-08-30T09:24:57Z</time>
      </trkpt>
      <trkpt lat="45.18589" lon="5.66351">
        <ele>487.6</ele>
        <time>2021-08-30T09:24:58Z</time>
      </trkpt>
      <trkpt lat="45.18591" lon="5.66344">
        <ele>487.4</ele>
        <time>2021-08-30T09:25:00Z</time>
      </trkpt>
      <trkpt lat="45.18596" lon="5.66339">
        <ele>487.2</ele>
        <time>2021-08-30T09:25:01Z</time>
      </trkpt>
      <trkpt lat="45.18597" lon="5.66339">
        <ele>487.2</ele>
        <time>2021-08-30T09:25:03Z</time>
      </trkpt>
      <trkpt lat="45.18597" lon="5.66339">
        <ele>487.2</ele>
        <time>2021-08-30T09:25:05Z</time>
      </trkpt>
      <trkpt lat="45.18598" lon="5.66337">
        <ele>487.1</ele>
        <time>2021-08-30T09:25:06Z</time>
      </trkpt>
      <trkpt lat="45.18603" lon="5.66319">
        <ele>488.5</ele>
        <time>2021-08-30T09:25:08Z</time>
      </trkpt>
      <trkpt lat="45.18412" lon="5.66092">
        <ele>546.6</ele>
        <time>2021-08-30T09:34:19Z</time>
      </trkpt>
      <trkpt lat="45.18413" lon="5.66096">
        <ele>546.6</ele>
        <time>2021-08-30T09:34:20Z</time>
      </trkpt>
      <trkpt lat="45.18413" lon="5.66098">
        <ele>546.6</ele>
        <time>2021-08-30T09:34:21Z</time>
      </trkpt>
      <trkpt lat="45.18414" lon="5.661">
        <ele>546.6</ele>
        <time>2021-08-30T09:34:22Z</time>
      </trkpt>
      <trkpt lat="45.18415" lon="5.66101">
        <ele>546.6</ele>
        <time>2021-08-30T09:34:24Z</time>
      </trkpt>
      <trkpt lat="45.18415" lon="5.66102">
        <ele>546.6</ele>
        <time>2021-08-30T09:34:25Z</time>
      </trkpt>
      <trkpt lat="45.18415" lon="5.66102">
        <ele>546.6</ele>
        <time>2021-08-30T09:34:27Z</time>
      </trkpt>
      <trkpt lat="45.18415" lon="5.66103">
        <ele>546.6</ele>
        <time>2021-08-30T09:34:28Z</time>
      </trkpt>
      <trkpt lat="45.18416" lon="5.66106">
        <ele>546.6</ele>
        <time>2021-08-30T09:34:29Z</time>
      </trkpt>
      <trkpt lat="45.18419" lon="5.66109">
        <ele>546.6</ele>
        <time>2021-08-30T09:34:31Z</time>
      </trkpt>
      <trkpt lat="45.1842" lon="5.6611">
        <ele>546.6</ele>
        <time>2021-08-30T09:34:33Z</time>
      </trkpt>
      <trkpt lat="45.18422" lon="5.66111">
        <ele>546.6</ele>
        <time>2021-08-30T09:34:35Z</time>
      </trkpt>
      <trkpt lat="45.18425" lon="5.66113">
        <ele>546.6</ele>
        <time>2021-08-30T09:34:36Z</time>
      </trkpt>
      <trkpt lat="45.18427" lon="5.66114">
        <ele>546.9</ele>
        <time>2021-08-30T09:34:38Z</time>
      </trkpt>
      <trkpt lat="45.18428" lon="5.66115">
        <ele>546.9</ele>
        <time>2021-08-30T09:34:39Z</time>
      </trkpt>
      <trkpt lat="45.18429" lon="5.66116">
        <ele>547</ele>
        <time>2021-08-30T09:34:40Z</time>
      </trkpt>
      <trkpt lat="45.1843" lon="5.66117">
        <ele>547</ele>
        <time>2021-08-30T09:34:41Z</time>
      </trkpt>
      <trkpt lat="45.1843" lon="5.66118">
        <ele>547.1</ele>
        <time>2021-08-30T09:34:43Z</time>
      </trkpt>
      <trkpt lat="45.18431" lon="5.66118">
        <ele>547.1</ele>
        <time>2021-08-30T09:34:44Z</time>
      </trkpt>
      <trkpt lat="45.18431" lon="5.66118">
        <ele>547.1</ele>
        <time>2021-08-30T09:34:45Z</time>
      </trkpt>
      <trkpt lat="45.18431" lon="5.66118">
        <ele>547.1</ele>
        <time>2021-08-30T09:34:47Z</time>
      </trkpt>
      <trkpt lat="45.18431" lon="5.66118">
        <ele>547.1</ele>
        <time>2021-08-30T09:34:48Z</time>
      </trkpt>
      <trkpt lat="45.18431" lon="5.66118">
        <ele>547.1</ele>
        <time>2021-08-30T09:34:50Z</time>
      </trkpt>
      <trkpt lat="45.18432" lon="5.66118">
        <ele>547.1</ele>
        <time>2021-08-30T09:34:51Z</time>
      </trkpt>
      <trkpt lat="45.18431" lon="5.66118">
        <ele>547.1</ele>
        <time>2021-08-30T09:34:52Z</time>
      </trkpt>
      <trkpt lat="45.18431" lon="5.66118">
        <ele>547.1</ele>
        <time>2021-08-30T09:34:54Z</time>
      </trkpt>
      <trkpt lat="45.18431" lon="5.66118">
        <ele>547.2</ele>
        <time>2021-08-30T09:34:56Z</time>
      </trkpt>
      <trkpt lat="45.18431" lon="5.66118">
        <ele>547.2</ele>
        <time>2021-08-30T09:34:57Z</time>
      </trkpt>
      <trkpt lat="45.18431" lon="5.66118">
        <ele>547.2</ele>
        <time>2021-08-30T09:34:58Z</time>
      </trkpt>
      <trkpt lat="45.18431" lon="5.66117">
        <ele>547.2</ele>
        <time>2021-08-30T09:34:59Z</time>
      </trkpt>
      <trkpt lat="45.1843" lon="5.66115">
        <ele>547.3</ele>
        <time>2021-08-30T09:35:00Z</time>
      </trkpt>
      <trkpt lat="45.1843" lon="5.66113">
        <ele>547.3</ele>
        <time>2021-08-30T09:35:01Z</time>
      </trkpt>
      <trkpt lat="45.18428" lon="5.66109">
        <ele>547.5</ele>
        <time>2021-08-30T09:35:02Z</time>
      </trkpt>
      <trkpt lat="45.18425" lon="5.66105">
        <ele>547.7</ele>
        <time>2021-08-30T09:35:04Z</time>
      </trkpt>
      <trkpt lat="45.18423" lon="5.66101">
        <ele>547.8</ele>
        <time>2021-08-30T09:35:05Z</time>
      </trkpt>
      <trkpt lat="45.18416" lon="5.66089">
        <ele>548.3</ele>
        <time>2021-08-30T09:35:06Z</time>
      </trkpt>
      <trkpt lat="45.18415" lon="5.66088">
        <ele>548.4</ele>
        <time>2021-08-30T09:35:08Z</time>
      </trkpt>
      <trkpt lat="45.18415" lon="5.66089">
        <ele>548.4</ele>
        <time>2021-08-30T09:35:09Z</time>
      </trkpt>
      <trkpt lat="45.18416" lon="5.66089">
        <ele>548.5</ele>
        <time>2021-08-30T09:35:10Z</time>
      </trkpt>
      <trkpt lat="45.18416" lon="5.6609">
        <ele>548.5</ele>
        <time>2021-08-30T09:35:12Z</time>
      </trkpt>
      <trkpt lat="45.18417" lon="5.66091">
        <ele>548.6</ele>
        <time>2021-08-30T09:35:14Z</time>
      </trkpt>
      <trkpt lat="45.18418" lon="5.66092">
        <ele>548.6</ele>
        <time>2021-08-30T09:35:15Z</time>
      </trkpt>
      <trkpt lat="45.18418" lon="5.66093">
        <ele>548.6</ele>
        <time>2021-08-30T09:35:17Z</time>
      </trkpt>
      <trkpt lat="45.18419" lon="5.66094">
        <ele>548.7</ele>
        <time>2021-08-30T09:35:18Z</time>
      </trkpt>
      <trkpt lat="45.1842" lon="5.66096">
        <ele>548.7</ele>
        <time>2021-08-30T09:35:20Z</time>
      </trkpt>
      <trkpt lat="45.1842" lon="5.66096">
        <ele>548.8</ele>
        <time>2021-08-30T09:35:21Z</time>
      </trkpt>
      <trkpt lat="45.18421" lon="5.66097">
        <ele>548.8</ele>
        <time>2021-08-30T09:35:22Z</time>
      </trkpt>
      <trkpt lat="45.18422" lon="5.66097">
        <ele>548.8</ele>
        <time>2021-08-30T09:35:24Z</time>
      </trkpt>
      <trkpt lat="45.1842" lon="5.66098">
        <ele>548.9</ele>
        <time>2021-08-30T09:35:26Z</time>
      </trkpt>
      <trkpt lat="45.1842" lon="5.66098">
        <ele>548.9</ele>
        <time>2021-08-30T09:35:27Z</time>
      </trkpt>
      <trkpt lat="45.1842" lon="5.66099">
        <ele>548.9</ele>
        <time>2021-08-30T09:35:29Z</time>
      </trkpt>
      <trkpt lat="45.1842" lon="5.66099">
        <ele>549</ele>
        <time>2021-08-30T09:35:30Z</time>
      </trkpt>
      <trkpt lat="45.18421" lon="5.661">
        <ele>549</ele>
        <time>2021-08-30T09:35:31Z</time>
      </trkpt>
      <trkpt lat="45.18421" lon="5.661">
        <ele>549</ele>
        <time>2021-08-30T09:35:33Z</time>
      </trkpt>
      <trkpt lat="45.1842" lon="5.66102">
        <ele>549.1</ele>
        <time>2021-08-30T09:35:34Z</time>
      </trkpt>
      <trkpt lat="45.18418" lon="5.66103">
        <ele>549.2</ele>
        <time>2021-08-30T09:35:36Z</time>
      </trkpt>
      <trkpt lat="45.18417" lon="5.66104">
        <ele>549.2</ele>
        <time>2021-08-30T09:35:37Z</time>
      </trkpt>
      <trkpt lat="45.18417" lon="5.66104">
        <ele>549.3</ele>
        <time>2021-08-30T09:35:39Z</time>
      </trkpt>
      <trkpt lat="45.18416" lon="5.66104">
        <ele>549.3</ele>
        <time>2021-08-30T09:35:40Z</time>
      </trkpt>
      <trkpt lat="45.18415" lon="5.66104">
        <ele>549.3</ele>
        <time>2021-08-30T09:35:42Z</time>
      </trkpt>
      <trkpt lat="45.18415" lon="5.66105">
        <ele>549.3</ele>
        <time>2021-08-30T09:35:43Z</time>
      </trkpt>
      <trkpt lat="45.18415" lon="5.66105">
        <ele>549.4</ele>
        <time>2021-08-30T09:35:44Z</time>
      </trkpt>
      <trkpt lat="45.18413" lon="5.66104">
        <ele>549.4</ele>
        <time>2021-08-30T09:35:46Z</time>
      </trkpt>
      <trkpt lat="45.18412" lon="5.66102">
        <ele>549.5</ele>
        <time>2021-08-30T09:35:47Z</time>
      </trkpt>
      <trkpt lat="45.18412" lon="5.66101">
        <ele>549.6</ele>
        <time>2021-08-30T09:35:49Z</time>
      </trkpt>
      <trkpt lat="45.18411" lon="5.661">
        <ele>551.4</ele>
        <time>2021-08-30T09:35:50Z</time>
      </trkpt>
      <trkpt lat="45.1841" lon="5.66098">
        <ele>551.6</ele>
        <time>2021-08-30T09:35:52Z</time>
      </trkpt>
      <trkpt lat="45.18409" lon="5.66097">
        <ele>551.8</ele>
        <time>2021-08-30T09:35:53Z</time>
      </trkpt>
      <trkpt lat="45.18408" lon="5.66096">
        <ele>552</ele>
        <time>2021-08-30T09:35:54Z</time>
      </trkpt>
      <trkpt lat="45.18407" lon="5.66094">
        <ele>552.1</ele>
        <time>2021-08-30T09:35:55Z</time>
      </trkpt>
      <trkpt lat="45.18403" lon="5.66092">
        <ele>552.7</ele>
        <time>2021-08-30T09:35:57Z</time>
      </trkpt>
      <trkpt lat="45.18401" lon="5.6609">
        <ele>553</ele>
        <time>2021-08-30T09:35:58Z</time>
      </trkpt>
      <trkpt lat="45.18398" lon="5.66089">
        <ele>553.3</ele>
        <time>2021-08-30T09:36:00Z</time>
      </trkpt>
      <trkpt lat="45.18397" lon="5.66088">
        <ele>553.5</ele>
        <time>2021-08-30T09:36:01Z</time>
      </trkpt>
      <trkpt lat="45.18397" lon="5.66087">
        <ele>553.6</ele>
        <time>2021-08-30T09:36:03Z</time>
      </trkpt>
      <trkpt lat="45.18397" lon="5.66086">
        <ele>553.7</ele>
        <time>2021-08-30T09:36:04Z</time>
      </trkpt>
      <trkpt lat="45.18397" lon="5.66085">
        <ele>553.7</ele>
        <time>2021-08-30T09:36:05Z</time>
      </trkpt>
      <trkpt lat="45.18397" lon="5.66084">
        <ele>553.9</ele>
        <time>2021-08-30T09:36:07Z</time>
      </trkpt>
      <trkpt lat="45.18398" lon="5.66083">
        <ele>554</ele>
        <time>2021-08-30T09:36:09Z</time>
      </trkpt>
      <trkpt lat="45.18399" lon="5.66082">
        <ele>554.1</ele>
        <time>2021-08-30T09:36:10Z</time>
      </trkpt>
      <trkpt lat="45.1832" lon="5.66017">
        <ele>579.9</ele>
        <time>2021-08-30T09:41:43Z</time>
      </trkpt>
      <trkpt lat="45.18322" lon="5.66023">
        <ele>580.5</ele>
        <time>2021-08-30T09:41:44Z</time>
      </trkpt>
      <trkpt lat="45.18321" lon="5.66023">
        <ele>580.7</ele>
        <time>2021-08-30T09:41:46Z</time>
      </trkpt>
      <trkpt lat="45.18319" lon="5.66021">
        <ele>581</ele>
        <time>2021-08-30T09:41:47Z</time>
      </trkpt>
      <trkpt lat="45.18318" lon="5.6602">
        <ele>581.3</ele>
        <time>2021-08-30T09:41:48Z</time>
      </trkpt>
      <trkpt lat="45.18316" lon="5.66018">
        <ele>581.6</ele>
        <time>2021-08-30T09:41:50Z</time>
      </trkpt>
      <trkpt lat="45.18314" lon="5.66017">
        <ele>582</ele>
        <time>2021-08-30T09:41:51Z</time>
      </trkpt>
      <trkpt lat="45.18312" lon="5.66015">
        <ele>582.3</ele>
        <time>2021-08-30T09:41:53Z</time>
      </trkpt>
      <trkpt lat="45.1831" lon="5.66014">
        <ele>582.6</ele>
        <time>2021-08-30T09:41:54Z</time>
      </trkpt>
      <trkpt lat="45.18308" lon="5.66013">
        <ele>582.9</ele>
        <time>2021-08-30T09:41:56Z</time>
      </trkpt>
      <trkpt lat="45.18306" lon="5.6601">
        <ele>583.3</ele>
        <time>2021-08-30T09:41:57Z</time>
      </trkpt>
      <trkpt lat="45.18304" lon="5.66008">
        <ele>583.7</ele>
        <time>2021-08-30T09:41:59Z</time>
      </trkpt>
      <trkpt lat="45.18304" lon="5.66008">
        <ele>583.8</ele>
        <time>2021-08-30T09:42:00Z</time>
      </trkpt>
      <trkpt lat="45.18303" lon="5.66007">
        <ele>583.8</ele>
        <time>2021-08-30T09:42:02Z</time>
      </trkpt>
      <trkpt lat="45.18303" lon="5.66007">
        <ele>583.8</ele>
        <time>2021-08-30T09:42:03Z</time>
      </trkpt>
      <trkpt lat="45.18246" lon="5.6596">
        <ele>598</ele>
        <time>2021-08-30T09:44:14Z</time>
      </trkpt>
      <trkpt lat="45.18246" lon="5.65955">
        <ele>598</ele>
        <time>2021-08-30T09:44:16Z</time>
      </trkpt>
      <trkpt lat="45.18246" lon="5.65953">
        <ele>598</ele>
        <time>2021-08-30T09:44:17Z</time>
      </trkpt>
      <trkpt lat="45.18247" lon="5.65949">
        <ele>598</ele>
        <time>2021-08-30T09:44:19Z</time>
      </trkpt>
      <trkpt lat="45.18247" lon="5.65945">
        <ele>598</ele>
        <time>2021-08-30T09:44:21Z</time>
      </trkpt>
      <trkpt lat="45.18247" lon="5.65944">
        <ele>598</ele>
        <time>2021-08-30T09:44:22Z</time>
      </trkpt>
      <trkpt lat="45.18247" lon="5.65945">
        <ele>598</ele>
        <time>2021-08-30T09:44:23Z</time>
      </trkpt>
      <trkpt lat="45.18247" lon="5.65947">
        <ele>598</ele>
        <time>2021-08-30T09:44:25Z</time>
      </trkpt>
      <trkpt lat="45.18247" lon="5.65948">
        <ele>598</ele>
        <time>2021-08-30T09:44:26Z</time>
      </trkpt>
      <trkpt lat="45.18247" lon="5.6595">
        <ele>598</ele>
        <time>2021-08-30T09:44:28Z</time>
      </trkpt>
      <trkpt lat="45.18247" lon="5.65951">
        <ele>598</ele>
        <time>2021-08-30T09:44:29Z</time>
      </trkpt>
      <trkpt lat="45.18248" lon="5.65956">
        <ele>597.9</ele>
        <time>2021-08-30T09:44:31Z</time>
      </trkpt>
      <trkpt lat="45.18247" lon="5.65957">
        <ele>597.9</ele>
        <time>2021-08-30T09:44:32Z</time>
      </trkpt>
      <trkpt lat="45.18247" lon="5.65958">
        <ele>597.9</ele>
        <time>2021-08-30T09:44:34Z</time>
      </trkpt>
      <trkpt lat="45.18247" lon="5.65964">
        <ele>598.2</ele>
        <time>2021-08-30T09:44:36Z</time>
      </trkpt>
      <trkpt lat="45.18248" lon="5.65969">
        <ele>598.6</ele>
        <time>2021-08-30T09:44:37Z</time>
      </trkpt>
      <trkpt lat="45.18248" lon="5.65971">
        <ele>598.8</ele>
        <time>2021-08-30T09:44:38Z</time>
      </trkpt>
      <trkpt lat="45.18246" lon="5.65971">
        <ele>599.2</ele>
        <time>2021-08-30T09:44:40Z</time>
      </trkpt>
      <trkpt lat="45.18243" lon="5.65969">
        <ele>599.7</ele>
        <time>2021-08-30T09:44:42Z</time>
      </trkpt>
      <trkpt lat="45.18242" lon="5.65967">
        <ele>599.9</ele>
        <time>2021-08-30T09:44:44Z</time>
      </trkpt>
      <trkpt lat="45.18241" lon="5.65967">
        <ele>599.9</ele>
        <time>2021-08-30T09:44:46Z</time>
      </trkpt>
      <trkpt lat="45.18241" lon="5.65967">
        <ele>600</ele>
        <time>2021-08-30T09:44:47Z</time>
      </trkpt>
      <trkpt lat="45.18241" lon="5.65967">
        <ele>600</ele>
        <time>2021-08-30T09:44:49Z</time>
      </trkpt>
      <trkpt lat="45.18241" lon="5.65967">
        <ele>600</ele>
        <time>2021-08-30T09:44:50Z</time>
      </trkpt>
      <trkpt lat="45.18241" lon="5.65967">
        <ele>600</ele>
        <time>2021-08-30T09:44:52Z</time>
      </trkpt>
      <trkpt lat="45.18241" lon="5.65967">
        <ele>600</ele>
        <time>2021-08-30T09:44:53Z</time>
      </trkpt>
      <trkpt lat="45.18241" lon="5.65967">
        <ele>600</ele>
        <time>2021-08-30T09:44:54Z</time>
      </trkpt>
      <trkpt lat="45.18241" lon="5.65967">
        <ele>600</ele>
        <time>2021-08-30T09:44:56Z</time>
      </trkpt>
      <trkpt lat="45.18243" lon="5.65969">
        <ele>600.4</ele>
        <time>2021-08-30T09:44:58Z</time>
      </trkpt>
      <trkpt lat="45.18245" lon="5.65973">
        <ele>600.8</ele>
        <time>2021-08-30T09:44:59Z</time>
      </trkpt>
      <trkpt lat="45.18244" lon="5.65976">
        <ele>601.1</ele>
        <time>2021-08-30T09:45:01Z</time>
      </trkpt>
      <trkpt lat="45.18244" lon="5.65977">
        <ele>601.2</ele>
        <time>2021-08-30T09:45:02Z</time>
      </trkpt>
      <trkpt lat="45.18241" lon="5.65976">
        <ele>601.6</ele>
        <time>2021-08-30T09:45:04Z</time>
      </trkpt>
      <trkpt lat="45.18239" lon="5.65975">
        <ele>601.8</ele>
        <time>2021-08-30T09:45:05Z</time>
      </trkpt>
      <trkpt lat="45.18234" lon="5.65972">
        <ele>602.7</ele>
        <time>2021-08-30T09:45:07Z</time>
      </trkpt>
      <trkpt lat="45.18229" lon="5.65969">
        <ele>603.3</ele>
        <time>2021-08-30T09:45:08Z</time>
      </trkpt>
      <trkpt lat="45.18228" lon="5.65969">
        <ele>603.6</ele>
        <time>2021-08-30T09:45:09Z</time>
      </trkpt>
      <trkpt lat="45.18226" lon="5.65968">
        <ele>603.7</ele>
        <time>2021-08-30T09:45:10Z</time>
      </trkpt>
      <trkpt lat="45.18226" lon="5.65968">
        <ele>603.8</ele>
        <time>2021-08-30T09:45:12Z</time>
      </trkpt>
      <trkpt lat="45.18226" lon="5.65968">
        <ele>603.8</ele>
        <time>2021-08-30T09:45:13Z</time>
      </trkpt>
      <trkpt lat="45.18227" lon="5.65968">
        <ele>603.8</ele>
        <time>2021-08-30T09:45:14Z</time>
      </trkpt>
      <trkpt lat="45.18227" lon="5.65967">
        <ele>603.9</ele>
        <time>2021-08-30T09:45:15Z</time>
      </trkpt>
      <trkpt lat="45.18227" lon="5.65967">
        <ele>603.9</ele>
        <time>2021-08-30T09:45:17Z</time>
      </trkpt>
      <trkpt lat="45.18226" lon="5.65966">
        <ele>604</ele>
        <time>2021-08-30T09:45:18Z</time>
      </trkpt>
      <trkpt lat="45.18226" lon="5.65966">
        <ele>604</ele>
        <time>2021-08-30T09:45:19Z</time>
      </trkpt>
      <trkpt lat="45.18226" lon="5.65965">
        <ele>604.1</ele>
        <time>2021-08-30T09:45:20Z</time>
      </trkpt>
      <trkpt lat="45.18226" lon="5.65965">
        <ele>604.1</ele>
        <time>2021-08-30T09:45:21Z</time>
      </trkpt>
      <trkpt lat="45.18226" lon="5.65965">
        <ele>604.1</ele>
        <time>2021-08-30T09:45:23Z</time>
      </trkpt>
      <trkpt lat="45.18225" lon="5.65964">
        <ele>604.2</ele>
        <time>2021-08-30T09:45:24Z</time>
      </trkpt>
      <trkpt lat="45.18224" lon="5.65963">
        <ele>604.4</ele>
        <time>2021-08-30T09:45:25Z</time>
      </trkpt>
      <trkpt lat="45.18222" lon="5.65962">
        <ele>604.6</ele>
        <time>2021-08-30T09:45:27Z</time>
      </trkpt>
      <trkpt lat="45.1822" lon="5.65961">
        <ele>604.8</ele>
        <time>2021-08-30T09:45:28Z</time>
      </trkpt>
      <trkpt lat="45.18219" lon="5.65961">
        <ele>604.9</ele>
        <time>2021-08-30T09:45:29Z</time>
      </trkpt>
      <trkpt lat="45.18218" lon="5.65959">
        <ele>605.1</ele>
        <time>2021-08-30T09:45:31Z</time>
      </trkpt>
      <trkpt lat="45.18217" lon="5.65959">
        <ele>605.2</ele>
        <time>2021-08-30T09:45:32Z</time>
      </trkpt>
      <trkpt lat="45.18216" lon="5.65958">
        <ele>605.3</ele>
        <time>2021-08-30T09:45:33Z</time>
      </trkpt>
      <trkpt lat="45.18216" lon="5.65958">
        <ele>605.4</ele>
        <time>2021-08-30T09:45:35Z</time>
      </trkpt>
      <trkpt lat="45.18215" lon="5.65958">
        <ele>605.4</ele>
        <time>2021-08-30T09:45:36Z</time>
      </trkpt>
      <trkpt lat="45.18214" lon="5.65958">
        <ele>605.5</ele>
        <time>2021-08-30T09:45:37Z</time>
      </trkpt>
      <trkpt lat="45.18214" lon="5.65957">
        <ele>605.5</ele>
        <time>2021-08-30T09:45:39Z</time>
      </trkpt>
      <trkpt lat="45.18213" lon="5.65957">
        <ele>605.6</ele>
        <time>2021-08-30T09:45:40Z</time>
      </trkpt>
      <trkpt lat="45.18213" lon="5.65957">
        <ele>605.7</ele>
        <time>2021-08-30T09:45:42Z</time>
      </trkpt>
      <trkpt lat="45.18212" lon="5.65957">
        <ele>605.7</ele>
        <time>2021-08-30T09:45:43Z</time>
      </trkpt>
      <trkpt lat="45.18212" lon="5.65956">
        <ele>605.8</ele>
        <time>2021-08-30T09:45:44Z</time>
      </trkpt>
      <trkpt lat="45.18211" lon="5.65956">
        <ele>605.8</ele>
        <time>2021-08-30T09:45:45Z</time>
      </trkpt>
      <trkpt lat="45.18209" lon="5.65955">
        <ele>606.1</ele>
        <time>2021-08-30T09:45:46Z</time>
      </trkpt>
      <trkpt lat="45.18208" lon="5.65955">
        <ele>606.1</ele>
        <time>2021-08-30T09:45:48Z</time>
      </trkpt>
      <trkpt lat="45.18207" lon="5.65954">
        <ele>606.3</ele>
        <time>2021-08-30T09:45:49Z</time>
      </trkpt>
      <trkpt lat="45.18205" lon="5.65954">
        <ele>606.5</ele>
        <time>2021-08-30T09:45:50Z</time>
      </trkpt>
      <trkpt lat="45.18203" lon="5.65954">
        <ele>606.8</ele>
        <time>2021-08-30T09:45:52Z</time>
      </trkpt>
      <trkpt lat="45.18201" lon="5.65954">
        <ele>607</ele>
        <time>2021-08-30T09:45:53Z</time>
      </trkpt>
      <trkpt lat="45.182" lon="5.65954">
        <ele>607.3</ele>
        <time>2021-08-30T09:45:54Z</time>
      </trkpt>
      <trkpt lat="45.18198" lon="5.65954">
        <ele>607.5</ele>
        <time>2021-08-30T09:45:55Z</time>
      </trkpt>
      <trkpt lat="45.18195" lon="5.65954">
        <ele>608</ele>
        <time>2021-08-30T09:45:58Z</time>
      </trkpt>
      <trkpt lat="45.18193" lon="5.65953">
        <ele>608.2</ele>
        <time>2021-08-30T09:45:59Z</time>
      </trkpt>
      <trkpt lat="45.1819" lon="5.6595">
        <ele>608.6</ele>
        <time>2021-08-30T09:46:01Z</time>
      </trkpt>
      <trkpt lat="45.18187" lon="5.65948">
        <ele>609</ele>
        <time>2021-08-30T09:46:02Z</time>
      </trkpt>
      <trkpt lat="45.18186" lon="5.65947">
        <ele>609.2</ele>
        <time>2021-08-30T09:46:04Z</time>
      </trkpt>
      <trkpt lat="45.18184" lon="5.65946">
        <ele>609.4</ele>
        <time>2021-08-30T09:46:05Z</time>
      </trkpt>
      <trkpt lat="45.18183" lon="5.65945">
        <ele>609.5</ele>
        <time>2021-08-30T09:46:06Z</time>
      </trkpt>
      <trkpt lat="45.18182" lon="5.65944">
        <ele>609.7</ele>
        <time>2021-08-30T09:46:07Z</time>
      </trkpt>
      <trkpt lat="45.1818" lon="5.65942">
        <ele>610</ele>
        <time>2021-08-30T09:46:09Z</time>
      </trkpt>
      <trkpt lat="45.18178" lon="5.65938">
        <ele>610.4</ele>
        <time>2021-08-30T09:46:10Z</time>
      </trkpt>
      <trkpt lat="45.18178" lon="5.65937">
        <ele>610.5</ele>
        <time>2021-08-30T09:46:11Z</time>
      </trkpt>
      <trkpt lat="45.18176" lon="5.65935">
        <ele>610.7</ele>
        <time>2021-08-30T09:46:13Z</time>
      </trkpt>
      <trkpt lat="45.18175" lon="5.65934">
        <ele>610.9</ele>
        <time>2021-08-30T09:46:14Z</time>
      </trkpt>
      <trkpt lat="45.18174" lon="5.65934">
        <ele>611.2</ele>
        <time>2021-08-30T09:46:15Z</time>
      </trkpt>
      <trkpt lat="45.18173" lon="5.65934">
        <ele>611.3</ele>
        <time>2021-08-30T09:46:17Z</time>
      </trkpt>
      <trkpt lat="45.18172" lon="5.65934">
        <ele>611.4</ele>
        <time>2021-08-30T09:46:18Z</time>
      </trkpt>
      <trkpt lat="45.18171" lon="5.65934">
        <ele>611.6</ele>
        <time>2021-08-30T09:46:19Z</time>
      </trkpt>
      <trkpt lat="45.1817" lon="5.65934">
        <ele>611.7</ele>
        <time>2021-08-30T09:46:21Z</time>
      </trkpt>
      <trkpt lat="45.18169" lon="5.65934">
        <ele>611.8</ele>
        <time>2021-08-30T09:46:22Z</time>
      </trkpt>
      <trkpt lat="45.18169" lon="5.65934">
        <ele>611.9</ele>
        <time>2021-08-30T09:46:24Z</time>
      </trkpt>
      <trkpt lat="45.18168" lon="5.65934">
        <ele>612</ele>
        <time>2021-08-30T09:46:25Z</time>
      </trkpt>
      <trkpt lat="45.18165" lon="5.65935">
        <ele>612.4</ele>
        <time>2021-08-30T09:46:26Z</time>
      </trkpt>
      <trkpt lat="45.18162" lon="5.65935">
        <ele>612.9</ele>
        <time>2021-08-30T09:46:28Z</time>
      </trkpt>
      <trkpt lat="45.18161" lon="5.65935">
        <ele>613</ele>
        <time>2021-08-30T09:46:29Z</time>
      </trkpt>
      <trkpt lat="45.1816" lon="5.65935">
        <ele>613.2</ele>
        <time>2021-08-30T09:46:30Z</time>
      </trkpt>
      <trkpt lat="45.18159" lon="5.65936">
        <ele>613.5</ele>
        <time>2021-08-30T09:46:32Z</time>
      </trkpt>
      <trkpt lat="45.18156" lon="5.65938">
        <ele>613.9</ele>
        <time>2021-08-30T09:46:34Z</time>
      </trkpt>
      <trkpt lat="45.18156" lon="5.65938">
        <ele>613.9</ele>
        <time>2021-08-30T09:46:35Z</time>
      </trkpt>
      <trkpt lat="45.18155" lon="5.65939">
        <ele>614.1</ele>
        <time>2021-08-30T09:46:36Z</time>
      </trkpt>
      <trkpt lat="45.18155" lon="5.65939">
        <ele>614.2</ele>
        <time>2021-08-30T09:46:38Z</time>
      </trkpt>
      <trkpt lat="45.18154" lon="5.65939">
        <ele>614.3</ele>
        <time>2021-08-30T09:46:40Z</time>
      </trkpt>
      <trkpt lat="45.18154" lon="5.65939">
        <ele>614.3</ele>
        <time>2021-08-30T09:46:41Z</time>
      </trkpt>
      <trkpt lat="45.18154" lon="5.6594">
        <ele>614.4</ele>
        <time>2021-08-30T09:46:42Z</time>
      </trkpt>
      <trkpt lat="45.18152" lon="5.65943">
        <ele>614.8</ele>
        <time>2021-08-30T09:46:44Z</time>
      </trkpt>
      <trkpt lat="45.18151" lon="5.65944">
        <ele>615</ele>
        <time>2021-08-30T09:46:45Z</time>
      </trkpt>
      <trkpt lat="45.1815" lon="5.65946">
        <ele>615.3</ele>
        <time>2021-08-30T09:46:46Z</time>
      </trkpt>
      <trkpt lat="45.18149" lon="5.65947">
        <ele>615.4</ele>
        <time>2021-08-30T09:46:48Z</time>
      </trkpt>
      <trkpt lat="45.18148" lon="5.65948">
        <ele>615.5</ele>
        <time>2021-08-30T09:46:49Z</time>
      </trkpt>
      <trkpt lat="45.18148" lon="5.65948">
        <ele>615.6</ele>
        <time>2021-08-30T09:46:51Z</time>
      </trkpt>
      <trkpt lat="45.18147" lon="5.65949">
        <ele>615.7</ele>
        <time>2021-08-30T09:46:53Z</time>
      </trkpt>
      <trkpt lat="45.18147" lon="5.65949">
        <ele>615.7</ele>
        <time>2021-08-30T09:46:55Z</time>
      </trkpt>
      <trkpt lat="45.18147" lon="5.65949">
        <ele>615.8</ele>
        <time>2021-08-30T09:46:57Z</time>
      </trkpt>
      <trkpt lat="45.18147" lon="5.65949">
        <ele>615.8</ele>
        <time>2021-08-30T09:46:58Z</time>
      </trkpt>
      <trkpt lat="45.18146" lon="5.65951">
        <ele>616</ele>
        <time>2021-08-30T09:46:59Z</time>
      </trkpt>
      <trkpt lat="45.18146" lon="5.65952">
        <ele>616.1</ele>
        <time>2021-08-30T09:47:00Z</time>
      </trkpt>
      <trkpt lat="45.18145" lon="5.65955">
        <ele>616.4</ele>
        <time>2021-08-30T09:47:02Z</time>
      </trkpt>
      <trkpt lat="45.18144" lon="5.65957">
        <ele>616.6</ele>
        <time>2021-08-30T09:47:03Z</time>
      </trkpt>
      <trkpt lat="45.18143" lon="5.65959">
        <ele>616.9</ele>
        <time>2021-08-30T09:47:04Z</time>
      </trkpt>
      <trkpt lat="45.18142" lon="5.65961">
        <ele>617.1</ele>
        <time>2021-08-30T09:47:05Z</time>
      </trkpt>
      <trkpt lat="45.18141" lon="5.65963">
        <ele>617.2</ele>
        <time>2021-08-30T09:47:07Z</time>
      </trkpt>
      <trkpt lat="45.1814" lon="5.65965">
        <ele>617.4</ele>
        <time>2021-08-30T09:47:08Z</time>
      </trkpt>
      <trkpt lat="45.18139" lon="5.65967">
        <ele>617.5</ele>
        <time>2021-08-30T09:47:09Z</time>
      </trkpt>
      <trkpt lat="45.18138" lon="5.65968">
        <ele>617.7</ele>
        <time>2021-08-30T09:47:11Z</time>
      </trkpt>
      <trkpt lat="45.18138" lon="5.65969">
        <ele>617.7</ele>
        <time>2021-08-30T09:47:13Z</time>
      </trkpt>
      <trkpt lat="45.18137" lon="5.65969">
        <ele>617.8</ele>
        <time>2021-08-30T09:47:14Z</time>
      </trkpt>
      <trkpt lat="45.18137" lon="5.6597">
        <ele>617.8</ele>
        <time>2021-08-30T09:47:15Z</time>
      </trkpt>
      <trkpt lat="45.18136" lon="5.65971">
        <ele>617.9</ele>
        <time>2021-08-30T09:47:17Z</time>
      </trkpt>
      <trkpt lat="45.18136" lon="5.65971">
        <ele>617.9</ele>
        <time>2021-08-30T09:47:18Z</time>
      </trkpt>
      <trkpt lat="45.18136" lon="5.65971">
        <ele>617.9</ele>
        <time>2021-08-30T09:47:20Z</time>
      </trkpt>
      <trkpt lat="45.18136" lon="5.65972">
        <ele>618</ele>
        <time>2021-08-30T09:47:21Z</time>
      </trkpt>
      <trkpt lat="45.18135" lon="5.65973">
        <ele>618</ele>
        <time>2021-08-30T09:47:23Z</time>
      </trkpt>
      <trkpt lat="45.18134" lon="5.65974">
        <ele>618.1</ele>
        <time>2021-08-30T09:47:25Z</time>
      </trkpt>
      <trkpt lat="45.18134" lon="5.65975">
        <ele>618.1</ele>
        <time>2021-08-30T09:47:26Z</time>
      </trkpt>
      <trkpt lat="45.18133" lon="5.65976">
        <ele>618.2</ele>
        <time>2021-08-30T09:47:29Z</time>
      </trkpt>
      <trkpt lat="45.18132" lon="5.65977">
        <ele>618.2</ele>
        <time>2021-08-30T09:47:31Z</time>
      </trkpt>
      <trkpt lat="45.18132" lon="5.65977">
        <ele>618.2</ele>
        <time>2021-08-30T09:47:32Z</time>
      </trkpt>
      <trkpt lat="45.18132" lon="5.65977">
        <ele>618.2</ele>
        <time>2021-08-30T09:47:34Z</time>
      </trkpt>
      <trkpt lat="45.18132" lon="5.65978">
        <ele>618.2</ele>
        <time>2021-08-30T09:47:35Z</time>
      </trkpt>
      <trkpt lat="45.18132" lon="5.65978">
        <ele>618.2</ele>
        <time>2021-08-30T09:47:36Z</time>
      </trkpt>
      <trkpt lat="45.18132" lon="5.65978">
        <ele>618.2</ele>
        <time>2021-08-30T09:47:37Z</time>
      </trkpt>
      <trkpt lat="45.18132" lon="5.65978">
        <ele>618.2</ele>
        <time>2021-08-30T09:47:39Z</time>
      </trkpt>
      <trkpt lat="45.18132" lon="5.65978">
        <ele>618.2</ele>
        <time>2021-08-30T09:47:41Z</time>
      </trkpt>
      <trkpt lat="45.18132" lon="5.65978">
        <ele>618.2</ele>
        <time>2021-08-30T09:47:43Z</time>
      </trkpt>
      <trkpt lat="45.18131" lon="5.65978">
        <ele>618.2</ele>
        <time>2021-08-30T09:47:44Z</time>
      </trkpt>
      <trkpt lat="45.18131" lon="5.65978">
        <ele>618.2</ele>
        <time>2021-08-30T09:47:46Z</time>
      </trkpt>
      <trkpt lat="45.18131" lon="5.65978">
        <ele>618.3</ele>
        <time>2021-08-30T09:47:48Z</time>
      </trkpt>
      <trkpt lat="45.18131" lon="5.65977">
        <ele>618.3</ele>
        <time>2021-08-30T09:47:50Z</time>
      </trkpt>
      <trkpt lat="45.18131" lon="5.65977">
        <ele>618.3</ele>
        <time>2021-08-30T09:47:51Z</time>
      </trkpt>
      <trkpt lat="45.18131" lon="5.65977">
        <ele>618.3</ele>
        <time>2021-08-30T09:47:53Z</time>
      </trkpt>
      <trkpt lat="45.18131" lon="5.65978">
        <ele>618.3</ele>
        <time>2021-08-30T09:47:54Z</time>
      </trkpt>
      <trkpt lat="45.1813" lon="5.6598">
        <ele>618.3</ele>
        <time>2021-08-30T09:47:55Z</time>
      </trkpt>
      <trkpt lat="45.18129" lon="5.65984">
        <ele>618.4</ele>
        <time>2021-08-30T09:47:57Z</time>
      </trkpt>
      <trkpt lat="45.18128" lon="5.65984">
        <ele>618.4</ele>
        <time>2021-08-30T09:47:58Z</time>
      </trkpt>
      <trkpt lat="45.18128" lon="5.65985">
        <ele>618.4</ele>
        <time>2021-08-30T09:47:59Z</time>
      </trkpt>
      <trkpt lat="45.18127" lon="5.65987">
        <ele>618.4</ele>
        <time>2021-08-30T09:48:00Z</time>
      </trkpt>
      <trkpt lat="45.18127" lon="5.65988">
        <ele>618.4</ele>
        <time>2021-08-30T09:48:01Z</time>
      </trkpt>
      <trkpt lat="45.18126" lon="5.65988">
        <ele>618.4</ele>
        <time>2021-08-30T09:48:03Z</time>
      </trkpt>
      <trkpt lat="45.18126" lon="5.65989">
        <ele>618.4</ele>
        <time>2021-08-30T09:48:04Z</time>
      </trkpt>
      <trkpt lat="45.18126" lon="5.65989">
        <ele>618.4</ele>
        <time>2021-08-30T09:48:06Z</time>
      </trkpt>
      <trkpt lat="45.18126" lon="5.6599">
        <ele>618.4</ele>
        <time>2021-08-30T09:48:07Z</time>
      </trkpt>
      <trkpt lat="45.18126" lon="5.65992">
        <ele>618.4</ele>
        <time>2021-08-30T09:48:09Z</time>
      </trkpt>
      <trkpt lat="45.18125" lon="5.65993">
        <ele>618.3</ele>
        <time>2021-08-30T09:48:10Z</time>
      </trkpt>
      <trkpt lat="45.18123" lon="5.65995">
        <ele>618.3</ele>
        <time>2021-08-30T09:48:11Z</time>
      </trkpt>
      <trkpt lat="45.18116" lon="5.66">
        <ele>618.3</ele>
        <time>2021-08-30T09:48:13Z</time>
      </trkpt>
      <trkpt lat="45.18105" lon="5.66007">
        <ele>618.3</ele>
        <time>2021-08-30T09:48:15Z</time>
      </trkpt>
      <trkpt lat="45.181" lon="5.6601">
        <ele>618.4</ele>
        <time>2021-08-30T09:48:17Z</time>
      </trkpt>
      <trkpt lat="45.18097" lon="5.66012">
        <ele>618.4</ele>
        <time>2021-08-30T09:48:18Z</time>
      </trkpt>
      <trkpt lat="45.18093" lon="5.66013">
        <ele>618.6</ele>
        <time>2021-08-30T09:48:19Z</time>
      </trkpt>
      <trkpt lat="45.18087" lon="5.66014">
        <ele>618.8</ele>
        <time>2021-08-30T09:48:21Z</time>
      </trkpt>
      <trkpt lat="45.18084" lon="5.66014">
        <ele>619</ele>
        <time>2021-08-30T09:48:23Z</time>
      </trkpt>
      <trkpt lat="45.18082" lon="5.66014">
        <ele>619.1</ele>
        <time>2021-08-30T09:48:24Z</time>
      </trkpt>
      <trkpt lat="45.18084" lon="5.66015">
        <ele>619.2</ele>
        <time>2021-08-30T09:48:26Z</time>
      </trkpt>
      <trkpt lat="45.18082" lon="5.66016">
        <ele>619.4</ele>
        <time>2021-08-30T09:48:27Z</time>
      </trkpt>
      <trkpt lat="45.18082" lon="5.66016">
        <ele>619.4</ele>
        <time>2021-08-30T09:48:29Z</time>
      </trkpt>
      <trkpt lat="45.18081" lon="5.66016">
        <ele>619.4</ele>
        <time>2021-08-30T09:48:30Z</time>
      </trkpt>
      <trkpt lat="45.1808" lon="5.66016">
        <ele>619.5</ele>
        <time>2021-08-30T09:48:31Z</time>
      </trkpt>
      <trkpt lat="45.18078" lon="5.66015">
        <ele>619.7</ele>
        <time>2021-08-30T09:48:32Z</time>
      </trkpt>
      <trkpt lat="45.18075" lon="5.66014">
        <ele>619.9</ele>
        <time>2021-08-30T09:48:34Z</time>
      </trkpt>
      <trkpt lat="45.18056" lon="5.66007">
        <ele>621</ele>
        <time>2021-08-30T09:48:47Z</time>
      </trkpt>
      <trkpt lat="45.18053" lon="5.66007">
        <ele>621.1</ele>
        <time>2021-08-30T09:48:49Z</time>
      </trkpt>
      <trkpt lat="45.18049" lon="5.66007">
        <ele>621.2</ele>
        <time>2021-08-30T09:48:50Z</time>
      </trkpt>
      <trkpt lat="45.18044" lon="5.66009">
        <ele>621.3</ele>
        <time>2021-08-30T09:48:51Z</time>
      </trkpt>
      <trkpt lat="45.18041" lon="5.66009">
        <ele>621.4</ele>
        <time>2021-08-30T09:48:53Z</time>
      </trkpt>
      <trkpt lat="45.1804" lon="5.66009">
        <ele>621.4</ele>
        <time>2021-08-30T09:48:54Z</time>
      </trkpt>
      <trkpt lat="45.1804" lon="5.6601">
        <ele>621.4</ele>
        <time>2021-08-30T09:48:56Z</time>
      </trkpt>
      <trkpt lat="45.18039" lon="5.6601">
        <ele>621.4</ele>
        <time>2021-08-30T09:48:58Z</time>
      </trkpt>
      <trkpt lat="45.18038" lon="5.66011">
        <ele>621.5</ele>
        <time>2021-08-30T09:48:59Z</time>
      </trkpt>
      <trkpt lat="45.18042" lon="5.66023">
        <ele>621.7</ele>
        <time>2021-08-30T09:51:39Z</time>
      </trkpt>
      <trkpt lat="45.18047" lon="5.66023">
        <ele>621.8</ele>
        <time>2021-08-30T09:51:41Z</time>
      </trkpt>
      <trkpt lat="45.1805" lon="5.6602">
        <ele>621.8</ele>
        <time>2021-08-30T09:51:42Z</time>
      </trkpt>
      <trkpt lat="45.18052" lon="5.66018">
        <ele>621.9</ele>
        <time>2021-08-30T09:51:43Z</time>
      </trkpt>
      <trkpt lat="45.18051" lon="5.66016">
        <ele>621.9</ele>
        <time>2021-08-30T09:51:45Z</time>
      </trkpt>
      <trkpt lat="45.18051" lon="5.66016">
        <ele>621.9</ele>
        <time>2021-08-30T09:51:46Z</time>
      </trkpt>
      <trkpt lat="45.1805" lon="5.66016">
        <ele>621.9</ele>
        <time>2021-08-30T09:51:47Z</time>
      </trkpt>
      <trkpt lat="45.18047" lon="5.66016">
        <ele>621.9</ele>
        <time>2021-08-30T09:51:49Z</time>
      </trkpt>
      <trkpt lat="45.18045" lon="5.66016">
        <ele>621.9</ele>
        <time>2021-08-30T09:51:50Z</time>
      </trkpt>
      <trkpt lat="45.18042" lon="5.66014">
        <ele>621.9</ele>
        <time>2021-08-30T09:51:52Z</time>
      </trkpt>
      <trkpt lat="45.18037" lon="5.66016">
        <ele>621.9</ele>
        <time>2021-08-30T09:51:53Z</time>
      </trkpt>
      <trkpt lat="45.18032" lon="5.6602">
        <ele>621.8</ele>
        <time>2021-08-30T09:51:54Z</time>
      </trkpt>
      <trkpt lat="45.18028" lon="5.66022">
        <ele>621.7</ele>
        <time>2021-08-30T09:51:56Z</time>
      </trkpt>
      <trkpt lat="45.18025" lon="5.66027">
        <ele>621.6</ele>
        <time>2021-08-30T09:51:57Z</time>
      </trkpt>
      <trkpt lat="45.18025" lon="5.66032">
        <ele>621.4</ele>
        <time>2021-08-30T09:51:58Z</time>
      </trkpt>
      <trkpt lat="45.18025" lon="5.66037">
        <ele>621.3</ele>
        <time>2021-08-30T09:52:00Z</time>
      </trkpt>
      <trkpt lat="45.18025" lon="5.66042">
        <ele>621.2</ele>
        <time>2021-08-30T09:52:01Z</time>
      </trkpt>
      <trkpt lat="45.18024" lon="5.66048">
        <ele>621</ele>
        <time>2021-08-30T09:52:02Z</time>
      </trkpt>
      <trkpt lat="45.18023" lon="5.66053">
        <ele>620.9</ele>
        <time>2021-08-30T09:52:03Z</time>
      </trkpt>
      <trkpt lat="45.18021" lon="5.66059">
        <ele>620.7</ele>
        <time>2021-08-30T09:52:05Z</time>
      </trkpt>
      <trkpt lat="45.18016" lon="5.66067">
        <ele>620.4</ele>
        <time>2021-08-30T09:52:06Z</time>
      </trkpt>
      <trkpt lat="45.18009" lon="5.6608">
        <ele>620.1</ele>
        <time>2021-08-30T09:52:08Z</time>
      </trkpt>
      <trkpt lat="45.18006" lon="5.66096">
        <ele>619.8</ele>
        <time>2021-08-30T09:52:10Z</time>
      </trkpt>
      <trkpt lat="45.18004" lon="5.66103">
        <ele>619.7</ele>
        <time>2021-08-30T09:52:11Z</time>
      </trkpt>
      <trkpt lat="45.18001" lon="5.66115">
        <ele>619.5</ele>
        <time>2021-08-30T09:52:13Z</time>
      </trkpt>
      <trkpt lat="45.17998" lon="5.66121">
        <ele>619.4</ele>
        <time>2021-08-30T09:52:14Z</time>
      </trkpt>
      <trkpt lat="45.17995" lon="5.66126">
        <ele>619.3</ele>
        <time>2021-08-30T09:52:15Z</time>
      </trkpt>
      <trkpt lat="45.17988" lon="5.66135">
        <ele>619.1</ele>
        <time>2021-08-30T09:52:17Z</time>
      </trkpt>
      <trkpt lat="45.17985" lon="5.66141">
        <ele>619</ele>
        <time>2021-08-30T09:52:18Z</time>
      </trkpt>
      <trkpt lat="45.17983" lon="5.6615">
        <ele>618.8</ele>
        <time>2021-08-30T09:52:20Z</time>
      </trkpt>
      <trkpt lat="45.17977" lon="5.6616">
        <ele>618.6</ele>
        <time>2021-08-30T09:52:22Z</time>
      </trkpt>
      <trkpt lat="45.17973" lon="5.66164">
        <ele>618.6</ele>
        <time>2021-08-30T09:52:23Z</time>
      </trkpt>
      <trkpt lat="45.17965" lon="5.6617">
        <ele>618.6</ele>
        <time>2021-08-30T09:52:25Z</time>
      </trkpt>
      <trkpt lat="45.17968" lon="5.66174">
        <ele>618.6</ele>
        <time>2021-08-30T09:52:26Z</time>
      </trkpt>
      <trkpt lat="45.17965" lon="5.66178">
        <ele>618.6</ele>
        <time>2021-08-30T09:52:28Z</time>
      </trkpt>
      <trkpt lat="45.17963" lon="5.6618">
        <ele>618.7</ele>
        <time>2021-08-30T09:52:29Z</time>
      </trkpt>
      <trkpt lat="45.17959" lon="5.66182">
        <ele>618.8</ele>
        <time>2021-08-30T09:52:30Z</time>
      </trkpt>
      <trkpt lat="45.17958" lon="5.66185">
        <ele>618.8</ele>
        <time>2021-08-30T09:52:31Z</time>
      </trkpt>
      <trkpt lat="45.17959" lon="5.66186">
        <ele>618.9</ele>
        <time>2021-08-30T09:52:33Z</time>
      </trkpt>
      <trkpt lat="45.1796" lon="5.66187">
        <ele>618.9</ele>
        <time>2021-08-30T09:52:35Z</time>
      </trkpt>
      <trkpt lat="45.1796" lon="5.66187">
        <ele>618.9</ele>
        <time>2021-08-30T09:52:36Z</time>
      </trkpt>
      <trkpt lat="45.17961" lon="5.66188">
        <ele>619</ele>
        <time>2021-08-30T09:52:37Z</time>
      </trkpt>
      <trkpt lat="45.17972" lon="5.66197">
        <ele>619.6</ele>
        <time>2021-08-30T09:52:39Z</time>
      </trkpt>
      <trkpt lat="45.17981" lon="5.66204">
        <ele>620.2</ele>
        <time>2021-08-30T09:52:41Z</time>
      </trkpt>
      <trkpt lat="45.17971" lon="5.66242">
        <ele>624.8</ele>
        <time>2021-08-30T09:52:58Z</time>
      </trkpt>
      <trkpt lat="45.17967" lon="5.66251">
        <ele>626</ele>
        <time>2021-08-30T09:53:00Z</time>
      </trkpt>
      <trkpt lat="45.17966" lon="5.66258">
        <ele>626.9</ele>
        <time>2021-08-30T09:53:01Z</time>
      </trkpt>
      <trkpt lat="45.17961" lon="5.66264">
        <ele>628.1</ele>
        <time>2021-08-30T09:53:02Z</time>
      </trkpt>
      <trkpt lat="45.17958" lon="5.66268">
        <ele>628.9</ele>
        <time>2021-08-30T09:53:03Z</time>
      </trkpt>
      <trkpt lat="45.17955" lon="5.6627">
        <ele>629.6</ele>
        <time>2021-08-30T09:53:04Z</time>
      </trkpt>
      <trkpt lat="45.17953" lon="5.66271">
        <ele>630</ele>
        <time>2021-08-30T09:53:07Z</time>
      </trkpt>
      <trkpt lat="45.17953" lon="5.66272">
        <ele>630.1</ele>
        <time>2021-08-30T09:53:08Z</time>
      </trkpt>
      <trkpt lat="45.17952" lon="5.66272">
        <ele>630.3</ele>
        <time>2021-08-30T09:53:09Z</time>
      </trkpt>
      <trkpt lat="45.17951" lon="5.66273">
        <ele>630.4</ele>
        <time>2021-08-30T09:53:10Z</time>
      </trkpt>
      <trkpt lat="45.17948" lon="5.66274">
        <ele>632.8</ele>
        <time>2021-08-30T09:53:11Z</time>
      </trkpt>
      <trkpt lat="45.17952" lon="5.66272">
        <ele>632</ele>
        <time>2021-08-30T09:53:13Z</time>
      </trkpt>
      <trkpt lat="45.17956" lon="5.66271">
        <ele>630.9</ele>
        <time>2021-08-30T09:53:14Z</time>
      </trkpt>
      <trkpt lat="45.17961" lon="5.66271">
        <ele>629.8</ele>
        <time>2021-08-30T09:53:28Z</time>
      </trkpt>
      <trkpt lat="45.17965" lon="5.6627">
        <ele>628.7</ele>
        <time>2021-08-30T09:53:29Z</time>
      </trkpt>
      <trkpt lat="45.17971" lon="5.66266">
        <ele>627.2</ele>
        <time>2021-08-30T09:53:31Z</time>
      </trkpt>
      <trkpt lat="45.17976" lon="5.66265">
        <ele>626.2</ele>
        <time>2021-08-30T09:53:32Z</time>
      </trkpt>
      <trkpt lat="45.1799" lon="5.66262">
        <ele>623.6</ele>
        <time>2021-08-30T09:53:34Z</time>
      </trkpt>
      <trkpt lat="45.17995" lon="5.6626">
        <ele>622.9</ele>
        <time>2021-08-30T09:53:35Z</time>
      </trkpt>
      <trkpt lat="45.17996" lon="5.66259">
        <ele>623.1</ele>
        <time>2021-08-30T09:53:36Z</time>
      </trkpt>
      <trkpt lat="45.17995" lon="5.66259">
        <ele>623.2</ele>
        <time>2021-08-30T09:53:37Z</time>
      </trkpt>
      <trkpt lat="45.17994" lon="5.66259">
        <ele>623.3</ele>
        <time>2021-08-30T09:53:39Z</time>
      </trkpt>
      <trkpt lat="45.17963" lon="5.66257">
        <ele>627.5</ele>
        <time>2021-08-30T09:53:50Z</time>
      </trkpt>
      <trkpt lat="45.17952" lon="5.66254">
        <ele>629.2</ele>
        <time>2021-08-30T09:53:52Z</time>
      </trkpt>
      <trkpt lat="45.17924" lon="5.66243">
        <ele>635</ele>
        <time>2021-08-30T09:53:53Z</time>
      </trkpt>
      <trkpt lat="45.17918" lon="5.66241">
        <ele>635.7</ele>
        <time>2021-08-30T09:53:55Z</time>
      </trkpt>
      <trkpt lat="45.17915" lon="5.66243">
        <ele>636.1</ele>
        <time>2021-08-30T09:53:56Z</time>
      </trkpt>
      <trkpt lat="45.17907" lon="5.66233">
        <ele>637.2</ele>
        <time>2021-08-30T09:53:59Z</time>
      </trkpt>
      <trkpt lat="45.17904" lon="5.66226">
        <ele>637.9</ele>
        <time>2021-08-30T09:54:00Z</time>
      </trkpt>
      <trkpt lat="45.17901" lon="5.66219">
        <ele>638.5</ele>
        <time>2021-08-30T09:54:01Z</time>
      </trkpt>
      <trkpt lat="45.17897" lon="5.66229">
        <ele>639.3</ele>
        <time>2021-08-30T09:54:02Z</time>
      </trkpt>
      <trkpt lat="45.17892" lon="5.6624">
        <ele>640</ele>
        <time>2021-08-30T09:54:03Z</time>
      </trkpt>
      <trkpt lat="45.17888" lon="5.66251">
        <ele>640.5</ele>
        <time>2021-08-30T09:54:05Z</time>
      </trkpt>
      <trkpt lat="45.17883" lon="5.66262">
        <ele>640.5</ele>
        <time>2021-08-30T09:54:06Z</time>
      </trkpt>
      <trkpt lat="45.17879" lon="5.66272">
        <ele>640.2</ele>
        <time>2021-08-30T09:54:07Z</time>
      </trkpt>
      <trkpt lat="45.17874" lon="5.66283">
        <ele>639.6</ele>
        <time>2021-08-30T09:54:09Z</time>
      </trkpt>
      <trkpt lat="45.17869" lon="5.66294">
        <ele>639.1</ele>
        <time>2021-08-30T09:54:10Z</time>
      </trkpt>
      <trkpt lat="45.17865" lon="5.66305">
        <ele>638.6</ele>
        <time>2021-08-30T09:54:11Z</time>
      </trkpt>
      <trkpt lat="45.1786" lon="5.66316">
        <ele>638.2</ele>
        <time>2021-08-30T09:54:58Z</time>
      </trkpt>
      <trkpt lat="45.17855" lon="5.66327">
        <ele>638</ele>
        <time>2021-08-30T09:55:00Z</time>
      </trkpt>
      <trkpt lat="45.17852" lon="5.66329">
        <ele>637.9</ele>
        <time>2021-08-30T09:55:01Z</time>
      </trkpt>
      <trkpt lat="45.17845" lon="5.66333">
        <ele>637.9</ele>
        <time>2021-08-30T09:55:02Z</time>
      </trkpt>
      <trkpt lat="45.17833" lon="5.66336">
        <ele>638.1</ele>
        <time>2021-08-30T09:55:04Z</time>
      </trkpt>
      <trkpt lat="45.17827" lon="5.66338">
        <ele>638.4</ele>
        <time>2021-08-30T09:55:05Z</time>
      </trkpt>
      <trkpt lat="45.17816" lon="5.66335">
        <ele>639.3</ele>
        <time>2021-08-30T09:55:07Z</time>
      </trkpt>
      <trkpt lat="45.1781" lon="5.66332">
        <ele>640</ele>
        <time>2021-08-30T09:55:08Z</time>
      </trkpt>
      <trkpt lat="45.17807" lon="5.66333">
        <ele>640.4</ele>
        <time>2021-08-30T09:55:10Z</time>
      </trkpt>
      <trkpt lat="45.17804" lon="5.66336">
        <ele>640.7</ele>
        <time>2021-08-30T09:55:11Z</time>
      </trkpt>
      <trkpt lat="45.17801" lon="5.66339">
        <ele>641.2</ele>
        <time>2021-08-30T09:55:13Z</time>
      </trkpt>
      <trkpt lat="45.17798" lon="5.66341">
        <ele>641.4</ele>
        <time>2021-08-30T09:55:14Z</time>
      </trkpt>
      <trkpt lat="45.17795" lon="5.66342">
        <ele>641.7</ele>
        <time>2021-08-30T09:55:16Z</time>
      </trkpt>
      <trkpt lat="45.17794" lon="5.66342">
        <ele>641.8</ele>
        <time>2021-08-30T09:55:17Z</time>
      </trkpt>
      <trkpt lat="45.17793" lon="5.66343">
        <ele>641.9</ele>
        <time>2021-08-30T09:55:18Z</time>
      </trkpt>
      <trkpt lat="45.17791" lon="5.66345">
        <ele>642</ele>
        <time>2021-08-30T09:55:19Z</time>
      </trkpt>
      <trkpt lat="45.17793" lon="5.66348">
        <ele>642.2</ele>
        <time>2021-08-30T09:55:21Z</time>
      </trkpt>
      <trkpt lat="45.17793" lon="5.6635">
        <ele>642.3</ele>
        <time>2021-08-30T09:55:22Z</time>
      </trkpt>
      <trkpt lat="45.17793" lon="5.66351">
        <ele>642.3</ele>
        <time>2021-08-30T09:55:23Z</time>
      </trkpt>
      <trkpt lat="45.17793" lon="5.66351">
        <ele>642.3</ele>
        <time>2021-08-30T09:55:25Z</time>
      </trkpt>
      <trkpt lat="45.17793" lon="5.66351">
        <ele>642.3</ele>
        <time>2021-08-30T09:55:26Z</time>
      </trkpt>
      <trkpt lat="45.17792" lon="5.6635">
        <ele>642.4</ele>
        <time>2021-08-30T09:55:28Z</time>
      </trkpt>
      <trkpt lat="45.17755" lon="5.66323">
        <ele>642.9</ele>
        <time>2021-08-30T09:55:43Z</time>
      </trkpt>
      <trkpt lat="45.17751" lon="5.6632">
        <ele>642.7</ele>
        <time>2021-08-30T09:55:44Z</time>
      </trkpt>
      <trkpt lat="45.17749" lon="5.66319">
        <ele>642.6</ele>
        <time>2021-08-30T09:55:45Z</time>
      </trkpt>
      <trkpt lat="45.17745" lon="5.66317">
        <ele>642.4</ele>
        <time>2021-08-30T09:55:47Z</time>
      </trkpt>
      <trkpt lat="45.17718" lon="5.66329">
        <ele>641</ele>
        <time>2021-08-30T09:55:48Z</time>
      </trkpt>
      <trkpt lat="45.17709" lon="5.66335">
        <ele>640.9</ele>
        <time>2021-08-30T09:55:50Z</time>
      </trkpt>
      <trkpt lat="45.17704" lon="5.66344">
        <ele>640.8</ele>
        <time>2021-08-30T09:55:51Z</time>
      </trkpt>
      <trkpt lat="45.17696" lon="5.66355">
        <ele>640.8</ele>
        <time>2021-08-30T09:55:53Z</time>
      </trkpt>
      <trkpt lat="45.17693" lon="5.66358">
        <ele>640.7</ele>
        <time>2021-08-30T09:55:54Z</time>
      </trkpt>
      <trkpt lat="45.17689" lon="5.66361">
        <ele>640.7</ele>
        <time>2021-08-30T09:55:55Z</time>
      </trkpt>
      <trkpt lat="45.17687" lon="5.66365">
        <ele>640.6</ele>
        <time>2021-08-30T09:55:56Z</time>
      </trkpt>
      <trkpt lat="45.17684" lon="5.66364">
        <ele>640.5</ele>
        <time>2021-08-30T09:55:57Z</time>
      </trkpt>
      <trkpt lat="45.17683" lon="5.66362">
        <ele>640.5</ele>
        <time>2021-08-30T09:55:59Z</time>
      </trkpt>
      <trkpt lat="45.17682" lon="5.6636">
        <ele>640.5</ele>
        <time>2021-08-30T09:56:00Z</time>
      </trkpt>
      <trkpt lat="45.1768" lon="5.6636">
        <ele>640.4</ele>
        <time>2021-08-30T09:56:02Z</time>
      </trkpt>
      <trkpt lat="45.17679" lon="5.66361">
        <ele>640.4</ele>
        <time>2021-08-30T09:56:03Z</time>
      </trkpt>
      <trkpt lat="45.17676" lon="5.66361">
        <ele>640.3</ele>
        <time>2021-08-30T09:56:04Z</time>
      </trkpt>
      <trkpt lat="45.17671" lon="5.66362">
        <ele>640.2</ele>
        <time>2021-08-30T09:56:06Z</time>
      </trkpt>
      <trkpt lat="45.17666" lon="5.66363">
        <ele>640</ele>
        <time>2021-08-30T09:56:07Z</time>
      </trkpt>
      <trkpt lat="45.17659" lon="5.66364">
        <ele>639.9</ele>
        <time>2021-08-30T09:56:08Z</time>
      </trkpt>
      <trkpt lat="45.17655" lon="5.66364">
        <ele>639.7</ele>
        <time>2021-08-30T09:56:09Z</time>
      </trkpt>
      <trkpt lat="45.1765" lon="5.66364">
        <ele>639.6</ele>
        <time>2021-08-30T09:56:10Z</time>
      </trkpt>
      <trkpt lat="45.17645" lon="5.66365">
        <ele>639.5</ele>
        <time>2021-08-30T09:56:12Z</time>
      </trkpt>
      <trkpt lat="45.17641" lon="5.66366">
        <ele>639.4</ele>
        <time>2021-08-30T09:56:13Z</time>
      </trkpt>
      <trkpt lat="45.17636" lon="5.66366">
        <ele>639.3</ele>
        <time>2021-08-30T09:56:14Z</time>
      </trkpt>
      <trkpt lat="45.17633" lon="5.66366">
        <ele>639.3</ele>
        <time>2021-08-30T09:56:15Z</time>
      </trkpt>
      <trkpt lat="45.1763" lon="5.66366">
        <ele>639.3</ele>
        <time>2021-08-30T09:56:16Z</time>
      </trkpt>
      <trkpt lat="45.17627" lon="5.66367">
        <ele>639.3</ele>
        <time>2021-08-30T09:56:18Z</time>
      </trkpt>
      <trkpt lat="45.17623" lon="5.66368">
        <ele>639.3</ele>
        <time>2021-08-30T09:56:19Z</time>
      </trkpt>
      <trkpt lat="45.17618" lon="5.66368">
        <ele>641.9</ele>
        <time>2021-08-30T09:56:20Z</time>
      </trkpt>
      <trkpt lat="45.17613" lon="5.66366">
        <ele>642.4</ele>
        <time>2021-08-30T09:56:21Z</time>
      </trkpt>
      <trkpt lat="45.17602" lon="5.66363">
        <ele>643.6</ele>
        <time>2021-08-30T09:56:23Z</time>
      </trkpt>
      <trkpt lat="45.176" lon="5.66361">
        <ele>643.8</ele>
        <time>2021-08-30T09:56:24Z</time>
      </trkpt>
      <trkpt lat="45.17598" lon="5.6636">
        <ele>644</ele>
        <time>2021-08-30T09:56:25Z</time>
      </trkpt>
      <trkpt lat="45.17597" lon="5.66358">
        <ele>644.2</ele>
        <time>2021-08-30T09:56:27Z</time>
      </trkpt>
      <trkpt lat="45.17584" lon="5.66354">
        <ele>645.2</ele>
        <time>2021-08-30T09:56:29Z</time>
      </trkpt>
      <trkpt lat="45.17573" lon="5.66352">
        <ele>646</ele>
        <time>2021-08-30T09:57:46Z</time>
      </trkpt>
      <trkpt lat="45.17562" lon="5.6635">
        <ele>646.6</ele>
        <time>2021-08-30T09:57:47Z</time>
      </trkpt>
      <trkpt lat="45.17563" lon="5.66348">
        <ele>646.7</ele>
        <time>2021-08-30T09:57:49Z</time>
      </trkpt>
      <trkpt lat="45.17563" lon="5.6635">
        <ele>646.8</ele>
        <time>2021-08-30T09:57:50Z</time>
      </trkpt>
      <trkpt lat="45.17562" lon="5.66352">
        <ele>646.9</ele>
        <time>2021-08-30T09:57:51Z</time>
      </trkpt>
      <trkpt lat="45.17561" lon="5.66355">
        <ele>647</ele>
        <time>2021-08-30T09:57:53Z</time>
      </trkpt>
      <trkpt lat="45.1756" lon="5.66356">
        <ele>647.1</ele>
        <time>2021-08-30T09:57:54Z</time>
      </trkpt>
      <trkpt lat="45.17557" lon="5.66362">
        <ele>647.4</ele>
        <time>2021-08-30T09:57:55Z</time>
      </trkpt>
      <trkpt lat="45.17555" lon="5.66365">
        <ele>647.5</ele>
        <time>2021-08-30T09:57:56Z</time>
      </trkpt>
      <trkpt lat="45.17551" lon="5.6637">
        <ele>647.8</ele>
        <time>2021-08-30T09:57:57Z</time>
      </trkpt>
      <trkpt lat="45.17549" lon="5.66375">
        <ele>648.1</ele>
        <time>2021-08-30T09:57:59Z</time>
      </trkpt>
      <trkpt lat="45.17545" lon="5.6638">
        <ele>648.4</ele>
        <time>2021-08-30T09:58:00Z</time>
      </trkpt>
      <trkpt lat="45.17543" lon="5.66383">
        <ele>648.6</ele>
        <time>2021-08-30T09:58:01Z</time>
      </trkpt>
      <trkpt lat="45.17541" lon="5.66384">
        <ele>648.8</ele>
        <time>2021-08-30T09:58:03Z</time>
      </trkpt>
      <trkpt lat="45.17537" lon="5.66386">
        <ele>649</ele>
        <time>2021-08-30T09:58:04Z</time>
      </trkpt>
      <trkpt lat="45.17536" lon="5.66387">
        <ele>649.1</ele>
        <time>2021-08-30T09:58:05Z</time>
      </trkpt>
      <trkpt lat="45.17534" lon="5.66388">
        <ele>649.2</ele>
        <time>2021-08-30T09:58:06Z</time>
      </trkpt>
      <trkpt lat="45.17529" lon="5.6639">
        <ele>649.6</ele>
        <time>2021-08-30T09:58:08Z</time>
      </trkpt>
      <trkpt lat="45.17529" lon="5.6639">
        <ele>649.6</ele>
        <time>2021-08-30T09:58:08Z</time>
      </trkpt>
      <trkpt lat="45.17525" lon="5.66391">
        <ele>649.8</ele>
        <time>2021-08-30T09:58:09Z</time>
      </trkpt>
      <trkpt lat="45.17523" lon="5.66392">
        <ele>650</ele>
        <time>2021-08-30T09:58:11Z</time>
      </trkpt>
      <trkpt lat="45.17522" lon="5.66392">
        <ele>650.1</ele>
        <time>2021-08-30T09:58:12Z</time>
      </trkpt>
      <trkpt lat="45.17519" lon="5.66393">
        <ele>650.2</ele>
        <time>2021-08-30T09:58:13Z</time>
      </trkpt>
      <trkpt lat="45.17518" lon="5.66394">
        <ele>650.3</ele>
        <time>2021-08-30T09:58:14Z</time>
      </trkpt>
      <trkpt lat="45.17516" lon="5.66394">
        <ele>650.4</ele>
        <time>2021-08-30T09:58:15Z</time>
      </trkpt>
      <trkpt lat="45.17515" lon="5.66394">
        <ele>650.5</ele>
        <time>2021-08-30T09:58:16Z</time>
      </trkpt>
      <trkpt lat="45.17512" lon="5.66396">
        <ele>650.7</ele>
        <time>2021-08-30T09:58:18Z</time>
      </trkpt>
      <trkpt lat="45.17511" lon="5.66397">
        <ele>650.8</ele>
        <time>2021-08-30T09:58:19Z</time>
      </trkpt>
      <trkpt lat="45.17509" lon="5.66399">
        <ele>650.9</ele>
        <time>2021-08-30T09:58:21Z</time>
      </trkpt>
      <trkpt lat="45.17507" lon="5.664">
        <ele>651</ele>
        <time>2021-08-30T09:58:22Z</time>
      </trkpt>
      <trkpt lat="45.17506" lon="5.66401">
        <ele>651.1</ele>
        <time>2021-08-30T09:58:23Z</time>
      </trkpt>
      <trkpt lat="45.17504" lon="5.66403">
        <ele>651.2</ele>
        <time>2021-08-30T09:58:24Z</time>
      </trkpt>
      <trkpt lat="45.17502" lon="5.66404">
        <ele>651.2</ele>
        <time>2021-08-30T09:58:26Z</time>
      </trkpt>
      <trkpt lat="45.17501" lon="5.66405">
        <ele>651.3</ele>
        <time>2021-08-30T09:58:27Z</time>
      </trkpt>
      <trkpt lat="45.17499" lon="5.66406">
        <ele>651.3</ele>
        <time>2021-08-30T09:58:28Z</time>
      </trkpt>
      <trkpt lat="45.17497" lon="5.66408">
        <ele>651.3</ele>
        <time>2021-08-30T09:58:40Z</time>
      </trkpt>
      <trkpt lat="45.17496" lon="5.66409">
        <ele>651.4</ele>
        <time>2021-08-30T09:58:42Z</time>
      </trkpt>
      <trkpt lat="45.17494" lon="5.6641">
        <ele>651.4</ele>
        <time>2021-08-30T09:58:43Z</time>
      </trkpt>
      <trkpt lat="45.17492" lon="5.6641">
        <ele>651.4</ele>
        <time>2021-08-30T09:58:45Z</time>
      </trkpt>
      <trkpt lat="45.17492" lon="5.6641">
        <ele>651.4</ele>
        <time>2021-08-30T09:58:46Z</time>
      </trkpt>
      <trkpt lat="45.17491" lon="5.66409">
        <ele>651.4</ele>
        <time>2021-08-30T09:58:48Z</time>
      </trkpt>
      <trkpt lat="45.1749" lon="5.66409">
        <ele>651.4</ele>
        <time>2021-08-30T09:58:50Z</time>
      </trkpt>
      <trkpt lat="45.1749" lon="5.66408">
        <ele>651.4</ele>
        <time>2021-08-30T09:58:51Z</time>
      </trkpt>
      <trkpt lat="45.1749" lon="5.66408">
        <ele>651.4</ele>
        <time>2021-08-30T09:58:52Z</time>
      </trkpt>
      <trkpt lat="45.1749" lon="5.66408">
        <ele>651.4</ele>
        <time>2021-08-30T09:58:53Z</time>
      </trkpt>
      <trkpt lat="45.1749" lon="5.66408">
        <ele>651.4</ele>
        <time>2021-08-30T09:58:54Z</time>
      </trkpt>
      <trkpt lat="45.1749" lon="5.66408">
        <ele>651.4</ele>
        <time>2021-08-30T09:58:56Z</time>
      </trkpt>
      <trkpt lat="45.17484" lon="5.66407">
        <ele>651.3</ele>
        <time>2021-08-30T10:02:13Z</time>
      </trkpt>
      <trkpt lat="45.17478" lon="5.66406">
        <ele>651.1</ele>
        <time>2021-08-30T10:02:15Z</time>
      </trkpt>
      <trkpt lat="45.17471" lon="5.66406">
        <ele>650.9</ele>
        <time>2021-08-30T10:02:16Z</time>
      </trkpt>
      <trkpt lat="45.17466" lon="5.66404">
        <ele>650.7</ele>
        <time>2021-08-30T10:02:17Z</time>
      </trkpt>
      <trkpt lat="45.1746" lon="5.66401">
        <ele>650.5</ele>
        <time>2021-08-30T10:02:19Z</time>
      </trkpt>
      <trkpt lat="45.17447" lon="5.66392">
        <ele>649.8</ele>
        <time>2021-08-30T10:02:20Z</time>
      </trkpt>
      <trkpt lat="45.17436" lon="5.66384">
        <ele>649.2</ele>
        <time>2021-08-30T10:02:22Z</time>
      </trkpt>
      <trkpt lat="45.17431" lon="5.6638">
        <ele>648.9</ele>
        <time>2021-08-30T10:02:23Z</time>
      </trkpt>
      <trkpt lat="45.17427" lon="5.66376">
        <ele>648.6</ele>
        <time>2021-08-30T10:02:24Z</time>
      </trkpt>
      <trkpt lat="45.17418" lon="5.66367">
        <ele>648</ele>
        <time>2021-08-30T10:02:26Z</time>
      </trkpt>
      <trkpt lat="45.1741" lon="5.6636">
        <ele>647.4</ele>
        <time>2021-08-30T10:02:28Z</time>
      </trkpt>
      <trkpt lat="45.17406" lon="5.66359">
        <ele>647.1</ele>
        <time>2021-08-30T10:02:29Z</time>
      </trkpt>
      <trkpt lat="45.17403" lon="5.66361">
        <ele>646.8</ele>
        <time>2021-08-30T10:02:30Z</time>
      </trkpt>
      <trkpt lat="45.17398" lon="5.6637">
        <ele>646.3</ele>
        <time>2021-08-30T10:02:32Z</time>
      </trkpt>
      <trkpt lat="45.17387" lon="5.66384">
        <ele>645.3</ele>
        <time>2021-08-30T10:02:34Z</time>
      </trkpt>
      <trkpt lat="45.17381" lon="5.66391">
        <ele>645.1</ele>
        <time>2021-08-30T10:02:35Z</time>
      </trkpt>
      <trkpt lat="45.17373" lon="5.66398">
        <ele>644.9</ele>
        <time>2021-08-30T10:02:36Z</time>
      </trkpt>
      <trkpt lat="45.17357" lon="5.66412">
        <ele>644.7</ele>
        <time>2021-08-30T10:02:38Z</time>
      </trkpt>
      <trkpt lat="45.17348" lon="5.66419">
        <ele>644.7</ele>
        <time>2021-08-30T10:02:40Z</time>
      </trkpt>
      <trkpt lat="45.17348" lon="5.66422">
        <ele>644.7</ele>
        <time>2021-08-30T10:02:42Z</time>
      </trkpt>
      <trkpt lat="45.17348" lon="5.66424">
        <ele>644.7</ele>
        <time>2021-08-30T10:02:43Z</time>
      </trkpt>
      <trkpt lat="45.17347" lon="5.66426">
        <ele>644.7</ele>
        <time>2021-08-30T10:02:44Z</time>
      </trkpt>
      <trkpt lat="45.17344" lon="5.66434">
        <ele>644.8</ele>
        <time>2021-08-30T10:02:46Z</time>
      </trkpt>
      <trkpt lat="45.1734" lon="5.66441">
        <ele>645</ele>
        <time>2021-08-30T10:02:47Z</time>
      </trkpt>
      <trkpt lat="45.1734" lon="5.66447">
        <ele>645.2</ele>
        <time>2021-08-30T10:02:48Z</time>
      </trkpt>
      <trkpt lat="45.17339" lon="5.66452">
        <ele>645.4</ele>
        <time>2021-08-30T10:02:49Z</time>
      </trkpt>
      <trkpt lat="45.17339" lon="5.66457">
        <ele>645.7</ele>
        <time>2021-08-30T10:02:50Z</time>
      </trkpt>
      <trkpt lat="45.17336" lon="5.66462">
        <ele>646</ele>
        <time>2021-08-30T10:02:52Z</time>
      </trkpt>
      <trkpt lat="45.17335" lon="5.66463">
        <ele>646.1</ele>
        <time>2021-08-30T10:02:53Z</time>
      </trkpt>
      <trkpt lat="45.17333" lon="5.66464">
        <ele>646.3</ele>
        <time>2021-08-30T10:02:54Z</time>
      </trkpt>
      <trkpt lat="45.17327" lon="5.66469">
        <ele>646.7</ele>
        <time>2021-08-30T10:02:56Z</time>
      </trkpt>
      <trkpt lat="45.17322" lon="5.66471">
        <ele>647</ele>
        <time>2021-08-30T10:02:57Z</time>
      </trkpt>
      <trkpt lat="45.17317" lon="5.66473">
        <ele>647.1</ele>
        <time>2021-08-30T10:02:58Z</time>
      </trkpt>
      <trkpt lat="45.17307" lon="5.66474">
        <ele>647</ele>
        <time>2021-08-30T10:03:00Z</time>
      </trkpt>
      <trkpt lat="45.17296" lon="5.66476">
        <ele>646.7</ele>
        <time>2021-08-30T10:03:01Z</time>
      </trkpt>
      <trkpt lat="45.17283" lon="5.66485">
        <ele>646.3</ele>
        <time>2021-08-30T10:03:03Z</time>
      </trkpt>
      <trkpt lat="45.17278" lon="5.66488">
        <ele>646.1</ele>
        <time>2021-08-30T10:03:04Z</time>
      </trkpt>
      <trkpt lat="45.17272" lon="5.66491">
        <ele>646.1</ele>
        <time>2021-08-30T10:03:05Z</time>
      </trkpt>
      <trkpt lat="45.17267" lon="5.66493">
        <ele>646</ele>
        <time>2021-08-30T10:03:06Z</time>
      </trkpt>
      <trkpt lat="45.17263" lon="5.66495">
        <ele>646</ele>
        <time>2021-08-30T10:03:07Z</time>
      </trkpt>
      <trkpt lat="45.17258" lon="5.66496">
        <ele>646.1</ele>
        <time>2021-08-30T10:03:08Z</time>
      </trkpt>
      <trkpt lat="45.17251" lon="5.66496">
        <ele>646.1</ele>
        <time>2021-08-30T10:03:10Z</time>
      </trkpt>
      <trkpt lat="45.17249" lon="5.66493">
        <ele>646.1</ele>
        <time>2021-08-30T10:03:11Z</time>
      </trkpt>
      <trkpt lat="45.17248" lon="5.66497">
        <ele>646.1</ele>
        <time>2021-08-30T10:03:12Z</time>
      </trkpt>
      <trkpt lat="45.17245" lon="5.66503">
        <ele>646</ele>
        <time>2021-08-30T10:03:14Z</time>
      </trkpt>
      <trkpt lat="45.17242" lon="5.66507">
        <ele>645.8</ele>
        <time>2021-08-30T10:03:15Z</time>
      </trkpt>
      <trkpt lat="45.1724" lon="5.66509">
        <ele>645.7</ele>
        <time>2021-08-30T10:03:16Z</time>
      </trkpt>
      <trkpt lat="45.17236" lon="5.66513">
        <ele>645.4</ele>
        <time>2021-08-30T10:03:18Z</time>
      </trkpt>
      <trkpt lat="45.17233" lon="5.66518">
        <ele>645.1</ele>
        <time>2021-08-30T10:03:20Z</time>
      </trkpt>
      <trkpt lat="45.17229" lon="5.66521">
        <ele>644.7</ele>
        <time>2021-08-30T10:03:22Z</time>
      </trkpt>
      <trkpt lat="45.17224" lon="5.66525">
        <ele>644.2</ele>
        <time>2021-08-30T10:03:24Z</time>
      </trkpt>
      <trkpt lat="45.17222" lon="5.66526">
        <ele>644</ele>
        <time>2021-08-30T10:03:25Z</time>
      </trkpt>
      <trkpt lat="45.17221" lon="5.66524">
        <ele>643.9</ele>
        <time>2021-08-30T10:03:27Z</time>
      </trkpt>
      <trkpt lat="45.17224" lon="5.66519">
        <ele>643.5</ele>
        <time>2021-08-30T10:03:29Z</time>
      </trkpt>
      <trkpt lat="45.17224" lon="5.66518">
        <ele>643.4</ele>
        <time>2021-08-30T10:03:30Z</time>
      </trkpt>
      <trkpt lat="45.17225" lon="5.66517">
        <ele>643.3</ele>
        <time>2021-08-30T10:03:32Z</time>
      </trkpt>
      <trkpt lat="45.17225" lon="5.66516">
        <ele>643.3</ele>
        <time>2021-08-30T10:03:33Z</time>
      </trkpt>
      <trkpt lat="45.17224" lon="5.66515">
        <ele>643.2</ele>
        <time>2021-08-30T10:03:35Z</time>
      </trkpt>
      <trkpt lat="45.17223" lon="5.66516">
        <ele>643.1</ele>
        <time>2021-08-30T10:03:37Z</time>
      </trkpt>
      <trkpt lat="45.17203" lon="5.66524">
        <ele>641.8</ele>
        <time>2021-08-30T10:04:12Z</time>
      </trkpt>
      <trkpt lat="45.172" lon="5.66544">
        <ele>641.2</ele>
        <time>2021-08-30T10:04:14Z</time>
      </trkpt>
      <trkpt lat="45.17193" lon="5.66565">
        <ele>640.9</ele>
        <time>2021-08-30T10:04:16Z</time>
      </trkpt>
      <trkpt lat="45.17191" lon="5.66574">
        <ele>640.8</ele>
        <time>2021-08-30T10:04:17Z</time>
      </trkpt>
      <trkpt lat="45.17189" lon="5.66595">
        <ele>641</ele>
        <time>2021-08-30T10:04:19Z</time>
      </trkpt>
      <trkpt lat="45.17189" lon="5.66606">
        <ele>641.1</ele>
        <time>2021-08-30T10:04:20Z</time>
      </trkpt>
      <trkpt lat="45.17189" lon="5.66619">
        <ele>641.2</ele>
        <time>2021-08-30T10:04:22Z</time>
      </trkpt>
      <trkpt lat="45.17188" lon="5.66631">
        <ele>641.3</ele>
        <time>2021-08-30T10:04:23Z</time>
      </trkpt>
      <trkpt lat="45.17187" lon="5.66639">
        <ele>641.4</ele>
        <time>2021-08-30T10:04:24Z</time>
      </trkpt>
      <trkpt lat="45.17185" lon="5.66644">
        <ele>641.5</ele>
        <time>2021-08-30T10:04:25Z</time>
      </trkpt>
      <trkpt lat="45.17183" lon="5.6665">
        <ele>641.7</ele>
        <time>2021-08-30T10:04:26Z</time>
      </trkpt>
      <trkpt lat="45.1718" lon="5.66662">
        <ele>642.1</ele>
        <time>2021-08-30T10:04:28Z</time>
      </trkpt>
      <trkpt lat="45.17179" lon="5.66667">
        <ele>642.3</ele>
        <time>2021-08-30T10:04:29Z</time>
      </trkpt>
      <trkpt lat="45.17177" lon="5.66672">
        <ele>642.6</ele>
        <time>2021-08-30T10:04:31Z</time>
      </trkpt>
      <trkpt lat="45.17175" lon="5.66676">
        <ele>642.8</ele>
        <time>2021-08-30T10:04:32Z</time>
      </trkpt>
      <trkpt lat="45.17173" lon="5.66679">
        <ele>643.1</ele>
        <time>2021-08-30T10:04:33Z</time>
      </trkpt>
      <trkpt lat="45.17171" lon="5.66684">
        <ele>643.4</ele>
        <time>2021-08-30T10:04:34Z</time>
      </trkpt>
      <trkpt lat="45.1717" lon="5.66685">
        <ele>643.5</ele>
        <time>2021-08-30T10:04:35Z</time>
      </trkpt>
      <trkpt lat="45.1717" lon="5.66685">
        <ele>643.6</ele>
        <time>2021-08-30T10:04:36Z</time>
      </trkpt>
      <trkpt lat="45.17171" lon="5.66688">
        <ele>644.7</ele>
        <time>2021-08-30T10:04:38Z</time>
      </trkpt>
      <trkpt lat="45.1717" lon="5.66689">
        <ele>644.6</ele>
        <time>2021-08-30T10:04:40Z</time>
      </trkpt>
      <trkpt lat="45.17169" lon="5.66693">
        <ele>644.5</ele>
        <time>2021-08-30T10:04:42Z</time>
      </trkpt>
      <trkpt lat="45.17167" lon="5.66693">
        <ele>644.5</ele>
        <time>2021-08-30T10:04:44Z</time>
      </trkpt>
      <trkpt lat="45.17167" lon="5.66693">
        <ele>644.5</ele>
        <time>2021-08-30T10:04:45Z</time>
      </trkpt>
      <trkpt lat="45.17166" lon="5.66693">
        <ele>644.5</ele>
        <time>2021-08-30T10:04:46Z</time>
      </trkpt>
      <trkpt lat="45.17166" lon="5.66693">
        <ele>644.4</ele>
        <time>2021-08-30T10:04:47Z</time>
      </trkpt>
      <trkpt lat="45.17166" lon="5.66694">
        <ele>644.4</ele>
        <time>2021-08-30T10:04:49Z</time>
      </trkpt>
      <trkpt lat="45.17166" lon="5.66694">
        <ele>644.4</ele>
        <time>2021-08-30T10:04:51Z</time>
      </trkpt>
      <trkpt lat="45.17156" lon="5.66678">
        <ele>645.6</ele>
        <time>2021-08-30T10:06:14Z</time>
      </trkpt>
      <trkpt lat="45.17155" lon="5.6668">
        <ele>645.9</ele>
        <time>2021-08-30T10:06:15Z</time>
      </trkpt>
      <trkpt lat="45.17154" lon="5.66681">
        <ele>646.2</ele>
        <time>2021-08-30T10:06:16Z</time>
      </trkpt>
      <trkpt lat="45.17154" lon="5.66683">
        <ele>646.4</ele>
        <time>2021-08-30T10:06:17Z</time>
      </trkpt>
      <trkpt lat="45.17154" lon="5.66684">
        <ele>646.5</ele>
        <time>2021-08-30T10:06:18Z</time>
      </trkpt>
      <trkpt lat="45.17154" lon="5.66685">
        <ele>646.7</ele>
        <time>2021-08-30T10:06:19Z</time>
      </trkpt>
      <trkpt lat="45.17154" lon="5.66685">
        <ele>646.7</ele>
        <time>2021-08-30T10:06:20Z</time>
      </trkpt>
      <trkpt lat="45.17152" lon="5.66688">
        <ele>647.3</ele>
        <time>2021-08-30T10:06:22Z</time>
      </trkpt>
      <trkpt lat="45.17151" lon="5.66688">
        <ele>647.4</ele>
        <time>2021-08-30T10:06:23Z</time>
      </trkpt>
      <trkpt lat="45.17149" lon="5.66688">
        <ele>647.7</ele>
        <time>2021-08-30T10:06:24Z</time>
      </trkpt>
      <trkpt lat="45.17146" lon="5.66688">
        <ele>648.3</ele>
        <time>2021-08-30T10:06:26Z</time>
      </trkpt>
      <trkpt lat="45.17143" lon="5.66687">
        <ele>648.8</ele>
        <time>2021-08-30T10:06:27Z</time>
      </trkpt>
      <trkpt lat="45.1714" lon="5.66686">
        <ele>649.4</ele>
        <time>2021-08-30T10:06:28Z</time>
      </trkpt>
      <trkpt lat="45.17138" lon="5.66685">
        <ele>649.7</ele>
        <time>2021-08-30T10:06:30Z</time>
      </trkpt>
      <trkpt lat="45.17137" lon="5.66684">
        <ele>649.9</ele>
        <time>2021-08-30T10:06:31Z</time>
      </trkpt>
      <trkpt lat="45.17137" lon="5.66683">
        <ele>650</ele>
        <time>2021-08-30T10:06:32Z</time>
      </trkpt>
      <trkpt lat="45.17137" lon="5.66682">
        <ele>650.2</ele>
        <time>2021-08-30T10:06:34Z</time>
      </trkpt>
      <trkpt lat="45.17138" lon="5.66682">
        <ele>650.2</ele>
        <time>2021-08-30T10:06:35Z</time>
      </trkpt>
      <trkpt lat="45.17138" lon="5.66683">
        <ele>650.2</ele>
        <time>2021-08-30T10:06:36Z</time>
      </trkpt>
      <trkpt lat="45.17138" lon="5.66683">
        <ele>650.3</ele>
        <time>2021-08-30T10:06:38Z</time>
      </trkpt>
      <trkpt lat="45.17138" lon="5.66683">
        <ele>650.3</ele>
        <time>2021-08-30T10:06:40Z</time>
      </trkpt>
      <trkpt lat="45.17138" lon="5.66683">
        <ele>650.3</ele>
        <time>2021-08-30T10:06:41Z</time>
      </trkpt>
      <trkpt lat="45.17138" lon="5.66683">
        <ele>650.3</ele>
        <time>2021-08-30T10:06:42Z</time>
      </trkpt>
      <trkpt lat="45.17117" lon="5.66574">
        <ele>663.6</ele>
        <time>2021-08-30T10:08:26Z</time>
      </trkpt>
      <trkpt lat="45.17118" lon="5.66569">
        <ele>664.4</ele>
        <time>2021-08-30T10:08:27Z</time>
      </trkpt>
      <trkpt lat="45.17118" lon="5.66567">
        <ele>664.6</ele>
        <time>2021-08-30T10:08:28Z</time>
      </trkpt>
      <trkpt lat="45.17117" lon="5.66565">
        <ele>665</ele>
        <time>2021-08-30T10:08:29Z</time>
      </trkpt>
      <trkpt lat="45.17117" lon="5.66561">
        <ele>665.6</ele>
        <time>2021-08-30T10:08:31Z</time>
      </trkpt>
      <trkpt lat="45.17117" lon="5.66556">
        <ele>666.3</ele>
        <time>2021-08-30T10:08:32Z</time>
      </trkpt>
      <trkpt lat="45.17118" lon="5.66553">
        <ele>666.8</ele>
        <time>2021-08-30T10:08:33Z</time>
      </trkpt>
      <trkpt lat="45.17117" lon="5.66551">
        <ele>667.1</ele>
        <time>2021-08-30T10:08:35Z</time>
      </trkpt>
      <trkpt lat="45.17117" lon="5.6655">
        <ele>667.3</ele>
        <time>2021-08-30T10:08:36Z</time>
      </trkpt>
      <trkpt lat="45.17117" lon="5.66549">
        <ele>667.4</ele>
        <time>2021-08-30T10:08:37Z</time>
      </trkpt>
      <trkpt lat="45.17118" lon="5.66548">
        <ele>667.5</ele>
        <time>2021-08-30T10:08:38Z</time>
      </trkpt>
      <trkpt lat="45.17118" lon="5.66548">
        <ele>667.6</ele>
        <time>2021-08-30T10:08:40Z</time>
      </trkpt>
      <trkpt lat="45.17117" lon="5.66546">
        <ele>667.9</ele>
        <time>2021-08-30T10:08:41Z</time>
      </trkpt>
      <trkpt lat="45.17116" lon="5.66546">
        <ele>668.1</ele>
        <time>2021-08-30T10:08:43Z</time>
      </trkpt>
      <trkpt lat="45.17115" lon="5.66546">
        <ele>668.2</ele>
        <time>2021-08-30T10:08:44Z</time>
      </trkpt>
      <trkpt lat="45.17115" lon="5.66546">
        <ele>668.3</ele>
        <time>2021-08-30T10:08:45Z</time>
      </trkpt>
      <trkpt lat="45.17115" lon="5.66546">
        <ele>668.4</ele>
        <time>2021-08-30T10:08:46Z</time>
      </trkpt>
      <trkpt lat="45.17114" lon="5.66547">
        <ele>668.6</ele>
        <time>2021-08-30T10:08:48Z</time>
      </trkpt>
      <trkpt lat="45.17113" lon="5.66547">
        <ele>668.7</ele>
        <time>2021-08-30T10:08:50Z</time>
      </trkpt>
      <trkpt lat="45.17068" lon="5.66476">
        <ele>690.9</ele>
        <time>2021-08-30T10:12:33Z</time>
      </trkpt>
      <trkpt lat="45.17067" lon="5.66479">
        <ele>691</ele>
        <time>2021-08-30T10:12:34Z</time>
      </trkpt>
      <trkpt lat="45.17066" lon="5.6648">
        <ele>691</ele>
        <time>2021-08-30T10:12:35Z</time>
      </trkpt>
      <trkpt lat="45.17065" lon="5.66481">
        <ele>691</ele>
        <time>2021-08-30T10:12:36Z</time>
      </trkpt>
      <trkpt lat="45.17065" lon="5.66482">
        <ele>691</ele>
        <time>2021-08-30T10:12:37Z</time>
      </trkpt>
      <trkpt lat="45.17065" lon="5.66483">
        <ele>691</ele>
        <time>2021-08-30T10:12:38Z</time>
      </trkpt>
      <trkpt lat="45.17065" lon="5.66484">
        <ele>691</ele>
        <time>2021-08-30T10:12:40Z</time>
      </trkpt>
      <trkpt lat="45.17065" lon="5.66484">
        <ele>691</ele>
        <time>2021-08-30T10:12:42Z</time>
      </trkpt>
      <trkpt lat="45.17066" lon="5.66484">
        <ele>691</ele>
        <time>2021-08-30T10:12:43Z</time>
      </trkpt>
      <trkpt lat="45.17066" lon="5.66485">
        <ele>691</ele>
        <time>2021-08-30T10:12:44Z</time>
      </trkpt>
      <trkpt lat="45.17065" lon="5.66485">
        <ele>691</ele>
        <time>2021-08-30T10:12:45Z</time>
      </trkpt>
      <trkpt lat="45.17065" lon="5.66485">
        <ele>691</ele>
        <time>2021-08-30T10:12:47Z</time>
      </trkpt>
      <trkpt lat="45.17065" lon="5.66484">
        <ele>691</ele>
        <time>2021-08-30T10:12:48Z</time>
      </trkpt>
      <trkpt lat="45.17065" lon="5.66484">
        <ele>691</ele>
        <time>2021-08-30T10:12:49Z</time>
      </trkpt>
      <trkpt lat="45.17065" lon="5.66484">
        <ele>691</ele>
        <time>2021-08-30T10:12:50Z</time>
      </trkpt>
      <trkpt lat="45.17065" lon="5.66483">
        <ele>691</ele>
        <time>2021-08-30T10:12:52Z</time>
      </trkpt>
      <trkpt lat="45.17066" lon="5.66483">
        <ele>691</ele>
        <time>2021-08-30T10:12:53Z</time>
      </trkpt>
      <trkpt lat="45.17069" lon="5.66484">
        <ele>691.1</ele>
        <time>2021-08-30T10:12:55Z</time>
      </trkpt>
      <trkpt lat="45.17071" lon="5.66484">
        <ele>691.1</ele>
        <time>2021-08-30T10:12:56Z</time>
      </trkpt>
      <trkpt lat="45.17072" lon="5.66484">
        <ele>691.1</ele>
        <time>2021-08-30T10:12:57Z</time>
      </trkpt>
      <trkpt lat="45.17073" lon="5.66484">
        <ele>691.1</ele>
        <time>2021-08-30T10:12:58Z</time>
      </trkpt>
      <trkpt lat="45.17075" lon="5.66484">
        <ele>691.1</ele>
        <time>2021-08-30T10:12:59Z</time>
      </trkpt>
      <trkpt lat="45.17077" lon="5.66484">
        <ele>691.1</ele>
        <time>2021-08-30T10:13:01Z</time>
      </trkpt>
      <trkpt lat="45.17078" lon="5.66483">
        <ele>691.1</ele>
        <time>2021-08-30T10:13:02Z</time>
      </trkpt>
      <trkpt lat="45.17078" lon="5.66482">
        <ele>691.1</ele>
        <time>2021-08-30T10:13:03Z</time>
      </trkpt>
      <trkpt lat="45.17079" lon="5.6648">
        <ele>691.1</ele>
        <time>2021-08-30T10:13:05Z</time>
      </trkpt>
      <trkpt lat="45.1708" lon="5.66478">
        <ele>691.2</ele>
        <time>2021-08-30T10:13:06Z</time>
      </trkpt>
      <trkpt lat="45.1708" lon="5.66476">
        <ele>691.2</ele>
        <time>2021-08-30T10:13:08Z</time>
      </trkpt>
      <trkpt lat="45.17081" lon="5.66474">
        <ele>691.2</ele>
        <time>2021-08-30T10:13:09Z</time>
      </trkpt>
      <trkpt lat="45.17082" lon="5.66471">
        <ele>691.2</ele>
        <time>2021-08-30T10:13:11Z</time>
      </trkpt>
      <trkpt lat="45.17083" lon="5.66468">
        <ele>691.3</ele>
        <time>2021-08-30T10:13:13Z</time>
      </trkpt>
      <trkpt lat="45.17085" lon="5.66464">
        <ele>691.4</ele>
        <time>2021-08-30T10:13:14Z</time>
      </trkpt>
      <trkpt lat="45.17086" lon="5.66462">
        <ele>691.4</ele>
        <time>2021-08-30T10:13:15Z</time>
      </trkpt>
      <trkpt lat="45.17088" lon="5.66458">
        <ele>691.4</ele>
        <time>2021-08-30T10:13:17Z</time>
      </trkpt>
      <trkpt lat="45.17089" lon="5.66456">
        <ele>691.5</ele>
        <time>2021-08-30T10:13:18Z</time>
      </trkpt>
      <trkpt lat="45.17091" lon="5.66452">
        <ele>691.5</ele>
        <time>2021-08-30T10:13:20Z</time>
      </trkpt>
      <trkpt lat="45.17091" lon="5.66449">
        <ele>691.5</ele>
        <time>2021-08-30T10:13:21Z</time>
      </trkpt>
      <trkpt lat="45.17092" lon="5.66447">
        <ele>691.5</ele>
        <time>2021-08-30T10:13:23Z</time>
      </trkpt>
      <trkpt lat="45.17097" lon="5.66442">
        <ele>691.6</ele>
        <time>2021-08-30T10:13:24Z</time>
      </trkpt>
      <trkpt lat="45.17101" lon="5.66439">
        <ele>691.6</ele>
        <time>2021-08-30T10:13:25Z</time>
      </trkpt>
      <trkpt lat="45.1711" lon="5.66431">
        <ele>691.6</ele>
        <time>2021-08-30T10:13:26Z</time>
      </trkpt>
      <trkpt lat="45.17115" lon="5.66429">
        <ele>691.6</ele>
        <time>2021-08-30T10:13:28Z</time>
      </trkpt>
      <trkpt lat="45.17116" lon="5.66428">
        <ele>691.6</ele>
        <time>2021-08-30T10:13:29Z</time>
      </trkpt>
      <trkpt lat="45.17117" lon="5.66427">
        <ele>691.6</ele>
        <time>2021-08-30T10:13:30Z</time>
      </trkpt>
      <trkpt lat="45.17121" lon="5.66427">
        <ele>691.6</ele>
        <time>2021-08-30T10:13:32Z</time>
      </trkpt>
      <trkpt lat="45.17121" lon="5.66426">
        <ele>691.6</ele>
        <time>2021-08-30T10:13:33Z</time>
      </trkpt>
      <trkpt lat="45.17124" lon="5.66425">
        <ele>691.6</ele>
        <time>2021-08-30T10:13:35Z</time>
      </trkpt>
      <trkpt lat="45.17124" lon="5.66425">
        <ele>691.6</ele>
        <time>2021-08-30T10:13:36Z</time>
      </trkpt>
      <trkpt lat="45.17123" lon="5.66424">
        <ele>691.6</ele>
        <time>2021-08-30T10:13:38Z</time>
      </trkpt>
      <trkpt lat="45.17122" lon="5.66423">
        <ele>691.6</ele>
        <time>2021-08-30T10:13:40Z</time>
      </trkpt>
      <trkpt lat="45.17121" lon="5.66421">
        <ele>691.6</ele>
        <time>2021-08-30T10:13:42Z</time>
      </trkpt>
      <trkpt lat="45.17118" lon="5.66419">
        <ele>691.6</ele>
        <time>2021-08-30T10:13:44Z</time>
      </trkpt>
      <trkpt lat="45.17117" lon="5.66418">
        <ele>691.6</ele>
        <time>2021-08-30T10:13:45Z</time>
      </trkpt>
      <trkpt lat="45.17113" lon="5.66416">
        <ele>691.5</ele>
        <time>2021-08-30T10:13:47Z</time>
      </trkpt>
      <trkpt lat="45.17112" lon="5.66415">
        <ele>691.5</ele>
        <time>2021-08-30T10:13:48Z</time>
      </trkpt>
      <trkpt lat="45.17111" lon="5.66414">
        <ele>691.5</ele>
        <time>2021-08-30T10:13:49Z</time>
      </trkpt>
      <trkpt lat="45.1711" lon="5.66413">
        <ele>691.5</ele>
        <time>2021-08-30T10:13:50Z</time>
      </trkpt>
      <trkpt lat="45.17109" lon="5.66413">
        <ele>691.5</ele>
        <time>2021-08-30T10:13:52Z</time>
      </trkpt>
      <trkpt lat="45.17108" lon="5.66413">
        <ele>691.5</ele>
        <time>2021-08-30T10:13:54Z</time>
      </trkpt>
      <trkpt lat="45.17107" lon="5.66412">
        <ele>691.5</ele>
        <time>2021-08-30T10:13:57Z</time>
      </trkpt>
      <trkpt lat="45.17107" lon="5.66412">
        <ele>691.5</ele>
        <time>2021-08-30T10:13:59Z</time>
      </trkpt>
      <trkpt lat="45.17107" lon="5.66411">
        <ele>691.5</ele>
        <time>2021-08-30T10:14:00Z</time>
      </trkpt>
      <trkpt lat="45.17107" lon="5.66411">
        <ele>691.5</ele>
        <time>2021-08-30T10:14:02Z</time>
      </trkpt>
      <trkpt lat="45.17111" lon="5.6641">
        <ele>691.5</ele>
        <time>2021-08-30T10:14:03Z</time>
      </trkpt>
      <trkpt lat="45.1714" lon="5.66402">
        <ele>691.5</ele>
        <time>2021-08-30T10:14:05Z</time>
      </trkpt>
      <trkpt lat="45.1715" lon="5.664">
        <ele>691.5</ele>
        <time>2021-08-30T10:14:06Z</time>
      </trkpt>
      <trkpt lat="45.17158" lon="5.66398">
        <ele>691.5</ele>
        <time>2021-08-30T10:14:08Z</time>
      </trkpt>
      <trkpt lat="45.17161" lon="5.66397">
        <ele>691.5</ele>
        <time>2021-08-30T10:14:09Z</time>
      </trkpt>
      <trkpt lat="45.17162" lon="5.66394">
        <ele>691.6</ele>
        <time>2021-08-30T10:14:11Z</time>
      </trkpt>
      <trkpt lat="45.17162" lon="5.66392">
        <ele>691.7</ele>
        <time>2021-08-30T10:14:12Z</time>
      </trkpt>
      <trkpt lat="45.17163" lon="5.6639">
        <ele>691.7</ele>
        <time>2021-08-30T10:14:13Z</time>
      </trkpt>
      <trkpt lat="45.17163" lon="5.66389">
        <ele>691.8</ele>
        <time>2021-08-30T10:14:15Z</time>
      </trkpt>
      <trkpt lat="45.17163" lon="5.66387">
        <ele>691.8</ele>
        <time>2021-08-30T10:14:16Z</time>
      </trkpt>
      <trkpt lat="45.17164" lon="5.66385">
        <ele>691.9</ele>
        <time>2021-08-30T10:14:17Z</time>
      </trkpt>
      <trkpt lat="45.17166" lon="5.66381">
        <ele>692</ele>
        <time>2021-08-30T10:14:19Z</time>
      </trkpt>
      <trkpt lat="45.17168" lon="5.66377">
        <ele>692.1</ele>
        <time>2021-08-30T10:14:20Z</time>
      </trkpt>
      <trkpt lat="45.17169" lon="5.66376">
        <ele>692.2</ele>
        <time>2021-08-30T10:14:21Z</time>
      </trkpt>
      <trkpt lat="45.1717" lon="5.66374">
        <ele>692.2</ele>
        <time>2021-08-30T10:14:22Z</time>
      </trkpt>
      <trkpt lat="45.17171" lon="5.66373">
        <ele>692.3</ele>
        <time>2021-08-30T10:14:23Z</time>
      </trkpt>
      <trkpt lat="45.17171" lon="5.66372">
        <ele>692.3</ele>
        <time>2021-08-30T10:14:24Z</time>
      </trkpt>
      <trkpt lat="45.17174" lon="5.66369">
        <ele>692.5</ele>
        <time>2021-08-30T10:14:26Z</time>
      </trkpt>
      <trkpt lat="45.17176" lon="5.66369">
        <ele>692.6</ele>
        <time>2021-08-30T10:14:27Z</time>
      </trkpt>
      <trkpt lat="45.17177" lon="5.66369">
        <ele>692.6</ele>
        <time>2021-08-30T10:14:28Z</time>
      </trkpt>
      <trkpt lat="45.17179" lon="5.66369">
        <ele>692.7</ele>
        <time>2021-08-30T10:14:30Z</time>
      </trkpt>
      <trkpt lat="45.1718" lon="5.66369">
        <ele>692.7</ele>
        <time>2021-08-30T10:14:31Z</time>
      </trkpt>
      <trkpt lat="45.17181" lon="5.6637">
        <ele>692.8</ele>
        <time>2021-08-30T10:14:32Z</time>
      </trkpt>
      <trkpt lat="45.17182" lon="5.6637">
        <ele>692.8</ele>
        <time>2021-08-30T10:14:33Z</time>
      </trkpt>
      <trkpt lat="45.17183" lon="5.6637">
        <ele>692.9</ele>
        <time>2021-08-30T10:14:34Z</time>
      </trkpt>
      <trkpt lat="45.17184" lon="5.6637">
        <ele>692.9</ele>
        <time>2021-08-30T10:14:35Z</time>
      </trkpt>
      <trkpt lat="45.17185" lon="5.6637">
        <ele>693</ele>
        <time>2021-08-30T10:14:36Z</time>
      </trkpt>
      <trkpt lat="45.17188" lon="5.6637">
        <ele>693.1</ele>
        <time>2021-08-30T10:14:38Z</time>
      </trkpt>
      <trkpt lat="45.1719" lon="5.66371">
        <ele>693.2</ele>
        <time>2021-08-30T10:14:39Z</time>
      </trkpt>
      <trkpt lat="45.17192" lon="5.66372">
        <ele>693.3</ele>
        <time>2021-08-30T10:14:41Z</time>
      </trkpt>
      <trkpt lat="45.17193" lon="5.66374">
        <ele>693.4</ele>
        <time>2021-08-30T10:14:42Z</time>
      </trkpt>
      <trkpt lat="45.17196" lon="5.66376">
        <ele>693.5</ele>
        <time>2021-08-30T10:14:44Z</time>
      </trkpt>
      <trkpt lat="45.17198" lon="5.66376">
        <ele>693.7</ele>
        <time>2021-08-30T10:14:46Z</time>
      </trkpt>
      <trkpt lat="45.172" lon="5.66376">
        <ele>693.7</ele>
        <time>2021-08-30T10:14:47Z</time>
      </trkpt>
      <trkpt lat="45.17201" lon="5.66376">
        <ele>693.8</ele>
        <time>2021-08-30T10:14:48Z</time>
      </trkpt>
      <trkpt lat="45.17203" lon="5.66376">
        <ele>693.9</ele>
        <time>2021-08-30T10:14:49Z</time>
      </trkpt>
      <trkpt lat="45.17205" lon="5.66376">
        <ele>694</ele>
        <time>2021-08-30T10:14:50Z</time>
      </trkpt>
      <trkpt lat="45.17208" lon="5.66375">
        <ele>694.2</ele>
        <time>2021-08-30T10:14:52Z</time>
      </trkpt>
      <trkpt lat="45.17209" lon="5.66375">
        <ele>694.2</ele>
        <time>2021-08-30T10:14:53Z</time>
      </trkpt>
      <trkpt lat="45.17211" lon="5.66374">
        <ele>694.3</ele>
        <time>2021-08-30T10:14:54Z</time>
      </trkpt>
      <trkpt lat="45.17212" lon="5.66374">
        <ele>694.4</ele>
        <time>2021-08-30T10:14:55Z</time>
      </trkpt>
      <trkpt lat="45.17214" lon="5.66374">
        <ele>694.4</ele>
        <time>2021-08-30T10:14:56Z</time>
      </trkpt>
      <trkpt lat="45.17215" lon="5.66374">
        <ele>694.5</ele>
        <time>2021-08-30T10:14:58Z</time>
      </trkpt>
      <trkpt lat="45.17216" lon="5.66374">
        <ele>694.6</ele>
        <time>2021-08-30T10:14:59Z</time>
      </trkpt>
      <trkpt lat="45.17219" lon="5.66374">
        <ele>694.7</ele>
        <time>2021-08-30T10:15:01Z</time>
      </trkpt>
      <trkpt lat="45.17222" lon="5.66374">
        <ele>694.9</ele>
        <time>2021-08-30T10:15:02Z</time>
      </trkpt>
      <trkpt lat="45.17223" lon="5.66374">
        <ele>694.9</ele>
        <time>2021-08-30T10:15:03Z</time>
      </trkpt>
      <trkpt lat="45.17225" lon="5.66374">
        <ele>695</ele>
        <time>2021-08-30T10:15:04Z</time>
      </trkpt>
      <trkpt lat="45.17227" lon="5.66373">
        <ele>695.1</ele>
        <time>2021-08-30T10:15:06Z</time>
      </trkpt>
      <trkpt lat="45.17228" lon="5.66373">
        <ele>695.1</ele>
        <time>2021-08-30T10:15:07Z</time>
      </trkpt>
      <trkpt lat="45.17229" lon="5.66373">
        <ele>695.2</ele>
        <time>2021-08-30T10:15:08Z</time>
      </trkpt>
      <trkpt lat="45.17229" lon="5.66372">
        <ele>695.2</ele>
        <time>2021-08-30T10:15:10Z</time>
      </trkpt>
      <trkpt lat="45.1723" lon="5.66372">
        <ele>695.2</ele>
        <time>2021-08-30T10:15:11Z</time>
      </trkpt>
      <trkpt lat="45.17237" lon="5.66366">
        <ele>695.6</ele>
        <time>2021-08-30T10:15:12Z</time>
      </trkpt>
      <trkpt lat="45.17243" lon="5.66362">
        <ele>695.9</ele>
        <time>2021-08-30T10:15:13Z</time>
      </trkpt>
      <trkpt lat="45.17248" lon="5.66359">
        <ele>696.2</ele>
        <time>2021-08-30T10:15:14Z</time>
      </trkpt>
      <trkpt lat="45.17254" lon="5.66354">
        <ele>696.5</ele>
        <time>2021-08-30T10:15:16Z</time>
      </trkpt>
      <trkpt lat="45.17257" lon="5.66353">
        <ele>696.7</ele>
        <time>2021-08-30T10:15:17Z</time>
      </trkpt>
      <trkpt lat="45.17259" lon="5.66353">
        <ele>696.7</ele>
        <time>2021-08-30T10:15:18Z</time>
      </trkpt>
      <trkpt lat="45.1726" lon="5.66353">
        <ele>696.8</ele>
        <time>2021-08-30T10:15:19Z</time>
      </trkpt>
      <trkpt lat="45.1726" lon="5.66353">
        <ele>696.8</ele>
        <time>2021-08-30T10:15:20Z</time>
      </trkpt>
      <trkpt lat="45.17259" lon="5.66354">
        <ele>696.8</ele>
        <time>2021-08-30T10:15:22Z</time>
      </trkpt>
      <trkpt lat="45.17259" lon="5.66354">
        <ele>696.8</ele>
        <time>2021-08-30T10:15:23Z</time>
      </trkpt>
      <trkpt lat="45.17254" lon="5.66366">
        <ele>697.3</ele>
        <time>2021-08-30T10:15:25Z</time>
      </trkpt>
      <trkpt lat="45.17248" lon="5.66379">
        <ele>697.8</ele>
        <time>2021-08-30T10:15:26Z</time>
      </trkpt>
      <trkpt lat="45.17246" lon="5.66386">
        <ele>698.1</ele>
        <time>2021-08-30T10:15:27Z</time>
      </trkpt>
      <trkpt lat="45.17245" lon="5.66387">
        <ele>698.1</ele>
        <time>2021-08-30T10:15:29Z</time>
      </trkpt>
      <trkpt lat="45.17245" lon="5.66386">
        <ele>698.1</ele>
        <time>2021-08-30T10:15:30Z</time>
      </trkpt>
      <trkpt lat="45.17245" lon="5.66384">
        <ele>698.2</ele>
        <time>2021-08-30T10:15:32Z</time>
      </trkpt>
      <trkpt lat="45.17246" lon="5.66382">
        <ele>698.2</ele>
        <time>2021-08-30T10:15:33Z</time>
      </trkpt>
      <trkpt lat="45.17246" lon="5.66381">
        <ele>698.3</ele>
        <time>2021-08-30T10:15:35Z</time>
      </trkpt>
      <trkpt lat="45.17246" lon="5.6638">
        <ele>698.3</ele>
        <time>2021-08-30T10:15:36Z</time>
      </trkpt>
      <trkpt lat="45.17246" lon="5.6638">
        <ele>698.3</ele>
        <time>2021-08-30T10:15:37Z</time>
      </trkpt>
      <trkpt lat="45.17246" lon="5.66379">
        <ele>698.3</ele>
        <time>2021-08-30T10:15:38Z</time>
      </trkpt>
      <trkpt lat="45.17247" lon="5.66379">
        <ele>698.4</ele>
        <time>2021-08-30T10:15:39Z</time>
      </trkpt>
      <trkpt lat="45.17247" lon="5.66378">
        <ele>698.4</ele>
        <time>2021-08-30T10:15:41Z</time>
      </trkpt>
      <trkpt lat="45.17247" lon="5.66378">
        <ele>698.4</ele>
        <time>2021-08-30T10:15:42Z</time>
      </trkpt>
      <trkpt lat="45.17247" lon="5.66377">
        <ele>698.4</ele>
        <time>2021-08-30T10:15:43Z</time>
      </trkpt>
      <trkpt lat="45.17247" lon="5.66377">
        <ele>698.4</ele>
        <time>2021-08-30T10:15:44Z</time>
      </trkpt>
      <trkpt lat="45.17247" lon="5.66376">
        <ele>698.5</ele>
        <time>2021-08-30T10:15:46Z</time>
      </trkpt>
      <trkpt lat="45.17247" lon="5.66376">
        <ele>698.5</ele>
        <time>2021-08-30T10:15:47Z</time>
      </trkpt>
      <trkpt lat="45.17248" lon="5.66375">
        <ele>698.5</ele>
        <time>2021-08-30T10:15:48Z</time>
      </trkpt>
      <trkpt lat="45.17248" lon="5.66374">
        <ele>698.5</ele>
        <time>2021-08-30T10:15:50Z</time>
      </trkpt>
      <trkpt lat="45.17248" lon="5.66374">
        <ele>698.5</ele>
        <time>2021-08-30T10:15:51Z</time>
      </trkpt>
      <trkpt lat="45.17248" lon="5.66371">
        <ele>698.6</ele>
        <time>2021-08-30T10:15:53Z</time>
      </trkpt>
      <trkpt lat="45.17248" lon="5.66367">
        <ele>698.8</ele>
        <time>2021-08-30T10:15:55Z</time>
      </trkpt>
      <trkpt lat="45.17248" lon="5.66364">
        <ele>698.9</ele>
        <time>2021-08-30T10:15:56Z</time>
      </trkpt>
      <trkpt lat="45.17248" lon="5.66362">
        <ele>698.9</ele>
        <time>2021-08-30T10:15:57Z</time>
      </trkpt>
      <trkpt lat="45.17249" lon="5.66357">
        <ele>699.1</ele>
        <time>2021-08-30T10:15:58Z</time>
      </trkpt>
      <trkpt lat="45.1725" lon="5.66355">
        <ele>699.2</ele>
        <time>2021-08-30T10:15:59Z</time>
      </trkpt>
      <trkpt lat="45.17251" lon="5.66351">
        <ele>699.3</ele>
        <time>2021-08-30T10:16:00Z</time>
      </trkpt>
      <trkpt lat="45.17253" lon="5.6634">
        <ele>699.8</ele>
        <time>2021-08-30T10:16:01Z</time>
      </trkpt>
      <trkpt lat="45.17255" lon="5.66331">
        <ele>700.1</ele>
        <time>2021-08-30T10:16:03Z</time>
      </trkpt>
      <trkpt lat="45.17259" lon="5.66306">
        <ele>701.1</ele>
        <time>2021-08-30T10:16:04Z</time>
      </trkpt>
      <trkpt lat="45.17262" lon="5.6629">
        <ele>701.7</ele>
        <time>2021-08-30T10:16:05Z</time>
      </trkpt>
      <trkpt lat="45.17264" lon="5.66277">
        <ele>702.2</ele>
        <time>2021-08-30T10:16:07Z</time>
      </trkpt>
      <trkpt lat="45.17265" lon="5.66273">
        <ele>702.3</ele>
        <time>2021-08-30T10:16:08Z</time>
      </trkpt>
      <trkpt lat="45.17265" lon="5.6627">
        <ele>702.5</ele>
        <time>2021-08-30T10:16:09Z</time>
      </trkpt>
      <trkpt lat="45.17266" lon="5.66266">
        <ele>702.6</ele>
        <time>2021-08-30T10:16:11Z</time>
      </trkpt>
      <trkpt lat="45.17267" lon="5.66262">
        <ele>702.8</ele>
        <time>2021-08-30T10:16:12Z</time>
      </trkpt>
      <trkpt lat="45.17268" lon="5.6626">
        <ele>702.8</ele>
        <time>2021-08-30T10:16:13Z</time>
      </trkpt>
      <trkpt lat="45.17269" lon="5.66258">
        <ele>702.9</ele>
        <time>2021-08-30T10:16:14Z</time>
      </trkpt>
      <trkpt lat="45.1727" lon="5.66255">
        <ele>703.1</ele>
        <time>2021-08-30T10:16:16Z</time>
      </trkpt>
      <trkpt lat="45.17271" lon="5.66252">
        <ele>703.2</ele>
        <time>2021-08-30T10:16:18Z</time>
      </trkpt>
      <trkpt lat="45.17271" lon="5.6625">
        <ele>703.2</ele>
        <time>2021-08-30T10:16:19Z</time>
      </trkpt>
      <trkpt lat="45.17271" lon="5.66248">
        <ele>703.3</ele>
        <time>2021-08-30T10:16:20Z</time>
      </trkpt>
      <trkpt lat="45.17271" lon="5.66246">
        <ele>703.4</ele>
        <time>2021-08-30T10:16:21Z</time>
      </trkpt>
      <trkpt lat="45.17271" lon="5.66244">
        <ele>703.5</ele>
        <time>2021-08-30T10:16:22Z</time>
      </trkpt>
      <trkpt lat="45.1727" lon="5.66242">
        <ele>703.5</ele>
        <time>2021-08-30T10:16:23Z</time>
      </trkpt>
      <trkpt lat="45.17269" lon="5.66238">
        <ele>703.7</ele>
        <time>2021-08-30T10:16:25Z</time>
      </trkpt>
      <trkpt lat="45.17269" lon="5.66236">
        <ele>703.8</ele>
        <time>2021-08-30T10:16:26Z</time>
      </trkpt>
      <trkpt lat="45.17265" lon="5.66094">
        <ele>708.9</ele>
        <time>2021-08-30T10:17:36Z</time>
      </trkpt>
      <trkpt lat="45.17266" lon="5.6609">
        <ele>709</ele>
        <time>2021-08-30T10:17:37Z</time>
      </trkpt>
      <trkpt lat="45.17268" lon="5.66084">
        <ele>709.3</ele>
        <time>2021-08-30T10:17:39Z</time>
      </trkpt>
      <trkpt lat="45.17268" lon="5.66081">
        <ele>709.4</ele>
        <time>2021-08-30T10:17:40Z</time>
      </trkpt>
      <trkpt lat="45.17268" lon="5.6608">
        <ele>709.5</ele>
        <time>2021-08-30T10:17:41Z</time>
      </trkpt>
      <trkpt lat="45.17269" lon="5.66073">
        <ele>709.7</ele>
        <time>2021-08-30T10:17:43Z</time>
      </trkpt>
      <trkpt lat="45.1727" lon="5.66071">
        <ele>709.8</ele>
        <time>2021-08-30T10:17:44Z</time>
      </trkpt>
      <trkpt lat="45.1727" lon="5.6607">
        <ele>709.8</ele>
        <time>2021-08-30T10:17:45Z</time>
      </trkpt>
      <trkpt lat="45.1727" lon="5.66068">
        <ele>709.9</ele>
        <time>2021-08-30T10:17:46Z</time>
      </trkpt>
      <trkpt lat="45.17269" lon="5.66067">
        <ele>710</ele>
        <time>2021-08-30T10:17:47Z</time>
      </trkpt>
      <trkpt lat="45.17269" lon="5.66064">
        <ele>710.1</ele>
        <time>2021-08-30T10:17:49Z</time>
      </trkpt>
      <trkpt lat="45.1725" lon="5.65919">
        <ele>715.2</ele>
        <time>2021-08-30T10:19:13Z</time>
      </trkpt>
      <trkpt lat="45.17252" lon="5.65917">
        <ele>715.3</ele>
        <time>2021-08-30T10:19:14Z</time>
      </trkpt>
      <trkpt lat="45.17256" lon="5.65912">
        <ele>715.6</ele>
        <time>2021-08-30T10:19:16Z</time>
      </trkpt>
      <trkpt lat="45.17259" lon="5.65907">
        <ele>715.9</ele>
        <time>2021-08-30T10:19:18Z</time>
      </trkpt>
      <trkpt lat="45.17259" lon="5.65906">
        <ele>715.9</ele>
        <time>2021-08-30T10:19:19Z</time>
      </trkpt>
      <trkpt lat="45.17258" lon="5.65906">
        <ele>716</ele>
        <time>2021-08-30T10:19:21Z</time>
      </trkpt>
      <trkpt lat="45.17257" lon="5.65906">
        <ele>716</ele>
        <time>2021-08-30T10:19:23Z</time>
      </trkpt>
      <trkpt lat="45.17257" lon="5.65905">
        <ele>716</ele>
        <time>2021-08-30T10:19:24Z</time>
      </trkpt>
      <trkpt lat="45.17257" lon="5.65905">
        <ele>716</ele>
        <time>2021-08-30T10:19:25Z</time>
      </trkpt>
      <trkpt lat="45.17257" lon="5.65904">
        <ele>716.1</ele>
        <time>2021-08-30T10:19:27Z</time>
      </trkpt>
      <trkpt lat="45.17258" lon="5.65903">
        <ele>716.1</ele>
        <time>2021-08-30T10:19:28Z</time>
      </trkpt>
      <trkpt lat="45.17288" lon="5.65812">
        <ele>719.7</ele>
        <time>2021-08-30T10:20:04Z</time>
      </trkpt>
      <trkpt lat="45.17289" lon="5.65808">
        <ele>719.8</ele>
        <time>2021-08-30T10:20:05Z</time>
      </trkpt>
      <trkpt lat="45.17293" lon="5.658">
        <ele>720.1</ele>
        <time>2021-08-30T10:20:07Z</time>
      </trkpt>
      <trkpt lat="45.17295" lon="5.658">
        <ele>720.2</ele>
        <time>2021-08-30T10:20:08Z</time>
      </trkpt>
      <trkpt lat="45.17295" lon="5.65809">
        <ele>720.5</ele>
        <time>2021-08-30T10:20:10Z</time>
      </trkpt>
      <trkpt lat="45.17296" lon="5.65813">
        <ele>720.7</ele>
        <time>2021-08-30T10:20:11Z</time>
      </trkpt>
      <trkpt lat="45.17297" lon="5.65813">
        <ele>720.7</ele>
        <time>2021-08-30T10:20:12Z</time>
      </trkpt>
      <trkpt lat="45.17297" lon="5.65814">
        <ele>720.7</ele>
        <time>2021-08-30T10:20:14Z</time>
      </trkpt>
      <trkpt lat="45.17298" lon="5.65814">
        <ele>720.8</ele>
        <time>2021-08-30T10:20:15Z</time>
      </trkpt>
      <trkpt lat="45.17299" lon="5.65814">
        <ele>720.8</ele>
        <time>2021-08-30T10:20:17Z</time>
      </trkpt>
      <trkpt lat="45.17299" lon="5.65814">
        <ele>720.8</ele>
        <time>2021-08-30T10:20:18Z</time>
      </trkpt>
      <trkpt lat="45.173" lon="5.65814">
        <ele>720.9</ele>
        <time>2021-08-30T10:20:20Z</time>
      </trkpt>
      <trkpt lat="45.17301" lon="5.65814">
        <ele>720.9</ele>
        <time>2021-08-30T10:20:21Z</time>
      </trkpt>
      <trkpt lat="45.17302" lon="5.65814">
        <ele>720.9</ele>
        <time>2021-08-30T10:20:23Z</time>
      </trkpt>
      <trkpt lat="45.17312" lon="5.65776">
        <ele>722.3</ele>
        <time>2021-08-30T10:20:29Z</time>
      </trkpt>
      <trkpt lat="45.17313" lon="5.65774">
        <ele>722.4</ele>
        <time>2021-08-30T10:20:30Z</time>
      </trkpt>
      <trkpt lat="45.17312" lon="5.65772">
        <ele>722.5</ele>
        <time>2021-08-30T10:20:32Z</time>
      </trkpt>
      <trkpt lat="45.17311" lon="5.65771">
        <ele>722.5</ele>
        <time>2021-08-30T10:20:33Z</time>
      </trkpt>
      <trkpt lat="45.17309" lon="5.65771">
        <ele>722.6</ele>
        <time>2021-08-30T10:20:36Z</time>
      </trkpt>
      <trkpt lat="45.17309" lon="5.65771">
        <ele>722.6</ele>
        <time>2021-08-30T10:20:37Z</time>
      </trkpt>
      <trkpt lat="45.17309" lon="5.65771">
        <ele>722.6</ele>
        <time>2021-08-30T10:20:38Z</time>
      </trkpt>
      <trkpt lat="45.17303" lon="5.6578">
        <ele>723.1</ele>
        <time>2021-08-30T10:20:40Z</time>
      </trkpt>
      <trkpt lat="45.17297" lon="5.65787">
        <ele>723.5</ele>
        <time>2021-08-30T10:20:42Z</time>
      </trkpt>
      <trkpt lat="45.17296" lon="5.65789">
        <ele>723.5</ele>
        <time>2021-08-30T10:20:44Z</time>
      </trkpt>
      <trkpt lat="45.17296" lon="5.6579">
        <ele>723.6</ele>
        <time>2021-08-30T10:20:46Z</time>
      </trkpt>
      <trkpt lat="45.17296" lon="5.6579">
        <ele>723.6</ele>
        <time>2021-08-30T10:20:48Z</time>
      </trkpt>
      <trkpt lat="45.17296" lon="5.65791">
        <ele>723.6</ele>
        <time>2021-08-30T10:20:50Z</time>
      </trkpt>
      <trkpt lat="45.17296" lon="5.65793">
        <ele>723.7</ele>
        <time>2021-08-30T10:20:52Z</time>
      </trkpt>
      <trkpt lat="45.17296" lon="5.65795">
        <ele>723.8</ele>
        <time>2021-08-30T10:20:53Z</time>
      </trkpt>
      <trkpt lat="45.17297" lon="5.65797">
        <ele>723.8</ele>
        <time>2021-08-30T10:20:54Z</time>
      </trkpt>
      <trkpt lat="45.17298" lon="5.65798">
        <ele>723.9</ele>
        <time>2021-08-30T10:20:56Z</time>
      </trkpt>
      <trkpt lat="45.17299" lon="5.65798">
        <ele>723.9</ele>
        <time>2021-08-30T10:20:57Z</time>
      </trkpt>
      <trkpt lat="45.173" lon="5.65798">
        <ele>724</ele>
        <time>2021-08-30T10:20:58Z</time>
      </trkpt>
      <trkpt lat="45.17301" lon="5.65799">
        <ele>724.1</ele>
        <time>2021-08-30T10:21:00Z</time>
      </trkpt>
      <trkpt lat="45.17304" lon="5.65801">
        <ele>724.2</ele>
        <time>2021-08-30T10:21:02Z</time>
      </trkpt>
      <trkpt lat="45.17304" lon="5.65802">
        <ele>724.3</ele>
        <time>2021-08-30T10:21:04Z</time>
      </trkpt>
      <trkpt lat="45.17305" lon="5.65803">
        <ele>724.3</ele>
        <time>2021-08-30T10:21:05Z</time>
      </trkpt>
      <trkpt lat="45.17306" lon="5.65804">
        <ele>724.4</ele>
        <time>2021-08-30T10:21:06Z</time>
      </trkpt>
      <trkpt lat="45.17307" lon="5.65804">
        <ele>724.4</ele>
        <time>2021-08-30T10:21:07Z</time>
      </trkpt>
      <trkpt lat="45.17309" lon="5.65804">
        <ele>724.5</ele>
        <time>2021-08-30T10:21:08Z</time>
      </trkpt>
      <trkpt lat="45.17311" lon="5.65803">
        <ele>724.6</ele>
        <time>2021-08-30T10:21:10Z</time>
      </trkpt>
      <trkpt lat="45.17314" lon="5.65801">
        <ele>724.8</ele>
        <time>2021-08-30T10:21:11Z</time>
      </trkpt>
      <trkpt lat="45.17317" lon="5.658">
        <ele>724.9</ele>
        <time>2021-08-30T10:21:12Z</time>
      </trkpt>
      <trkpt lat="45.1732" lon="5.65798">
        <ele>725.1</ele>
        <time>2021-08-30T10:21:13Z</time>
      </trkpt>
      <trkpt lat="45.17323" lon="5.65797">
        <ele>725.3</ele>
        <time>2021-08-30T10:21:15Z</time>
      </trkpt>
      <trkpt lat="45.17323" lon="5.65796">
        <ele>725.3</ele>
        <time>2021-08-30T10:21:16Z</time>
      </trkpt>
      <trkpt lat="45.17325" lon="5.65796">
        <ele>725.4</ele>
        <time>2021-08-30T10:21:18Z</time>
      </trkpt>
      <trkpt lat="45.17326" lon="5.65797">
        <ele>725.4</ele>
        <time>2021-08-30T10:21:19Z</time>
      </trkpt>
      <trkpt lat="45.17326" lon="5.65797">
        <ele>725.5</ele>
        <time>2021-08-30T10:21:20Z</time>
      </trkpt>
      <trkpt lat="45.17329" lon="5.65797">
        <ele>725.6</ele>
        <time>2021-08-30T10:21:22Z</time>
      </trkpt>
      <trkpt lat="45.17333" lon="5.65798">
        <ele>725.8</ele>
        <time>2021-08-30T10:21:24Z</time>
      </trkpt>
      <trkpt lat="45.17334" lon="5.65799">
        <ele>725.9</ele>
        <time>2021-08-30T10:21:25Z</time>
      </trkpt>
      <trkpt lat="45.17334" lon="5.65799">
        <ele>725.9</ele>
        <time>2021-08-30T10:21:26Z</time>
      </trkpt>
      <trkpt lat="45.17334" lon="5.65799">
        <ele>725.9</ele>
        <time>2021-08-30T10:21:28Z</time>
      </trkpt>
      <trkpt lat="45.17334" lon="5.658">
        <ele>725.9</ele>
        <time>2021-08-30T10:21:29Z</time>
      </trkpt>
      <trkpt lat="45.17334" lon="5.658">
        <ele>725.9</ele>
        <time>2021-08-30T10:21:30Z</time>
      </trkpt>
      <trkpt lat="45.17334" lon="5.658">
        <ele>725.9</ele>
        <time>2021-08-30T10:21:31Z</time>
      </trkpt>
      <trkpt lat="45.17334" lon="5.65799">
        <ele>726</ele>
        <time>2021-08-30T10:21:33Z</time>
      </trkpt>
      <trkpt lat="45.17334" lon="5.65798">
        <ele>726</ele>
        <time>2021-08-30T10:21:34Z</time>
      </trkpt>
      <trkpt lat="45.17334" lon="5.65796">
        <ele>726.1</ele>
        <time>2021-08-30T10:21:35Z</time>
      </trkpt>
      <trkpt lat="45.17333" lon="5.65794">
        <ele>726.2</ele>
        <time>2021-08-30T10:21:37Z</time>
      </trkpt>
      <trkpt lat="45.17331" lon="5.65793">
        <ele>726.2</ele>
        <time>2021-08-30T10:21:38Z</time>
      </trkpt>
      <trkpt lat="45.1733" lon="5.65793">
        <ele>726.3</ele>
        <time>2021-08-30T10:21:39Z</time>
      </trkpt>
      <trkpt lat="45.17328" lon="5.65792">
        <ele>726.4</ele>
        <time>2021-08-30T10:21:40Z</time>
      </trkpt>
      <trkpt lat="45.17327" lon="5.65791">
        <ele>726.5</ele>
        <time>2021-08-30T10:21:41Z</time>
      </trkpt>
      <trkpt lat="45.17324" lon="5.65787">
        <ele>726.7</ele>
        <time>2021-08-30T10:21:43Z</time>
      </trkpt>
      <trkpt lat="45.17322" lon="5.65786">
        <ele>726.8</ele>
        <time>2021-08-30T10:21:44Z</time>
      </trkpt>
      <trkpt lat="45.17321" lon="5.65786">
        <ele>726.8</ele>
        <time>2021-08-30T10:21:46Z</time>
      </trkpt>
      <trkpt lat="45.1732" lon="5.65787">
        <ele>726.9</ele>
        <time>2021-08-30T10:21:47Z</time>
      </trkpt>
      <trkpt lat="45.17319" lon="5.65787">
        <ele>726.9</ele>
        <time>2021-08-30T10:21:48Z</time>
      </trkpt>
      <trkpt lat="45.17318" lon="5.65787">
        <ele>727</ele>
        <time>2021-08-30T10:21:49Z</time>
      </trkpt>
      <trkpt lat="45.17317" lon="5.65787">
        <ele>727</ele>
        <time>2021-08-30T10:21:50Z</time>
      </trkpt>
      <trkpt lat="45.17316" lon="5.65787">
        <ele>727.1</ele>
        <time>2021-08-30T10:21:52Z</time>
      </trkpt>
      <trkpt lat="45.17315" lon="5.65787">
        <ele>727.1</ele>
        <time>2021-08-30T10:21:53Z</time>
      </trkpt>
      <trkpt lat="45.17315" lon="5.65785">
        <ele>727.2</ele>
        <time>2021-08-30T10:21:55Z</time>
      </trkpt>
      <trkpt lat="45.17362" lon="5.65741">
        <ele>730.4</ele>
        <time>2021-08-30T10:22:29Z</time>
      </trkpt>
      <trkpt lat="45.17365" lon="5.65743">
        <ele>730.6</ele>
        <time>2021-08-30T10:22:30Z</time>
      </trkpt>
      <trkpt lat="45.17368" lon="5.65744">
        <ele>730.7</ele>
        <time>2021-08-30T10:22:31Z</time>
      </trkpt>
      <trkpt lat="45.1737" lon="5.65744">
        <ele>730.8</ele>
        <time>2021-08-30T10:22:32Z</time>
      </trkpt>
      <trkpt lat="45.17374" lon="5.65742">
        <ele>731.1</ele>
        <time>2021-08-30T10:22:34Z</time>
      </trkpt>
      <trkpt lat="45.17375" lon="5.65742">
        <ele>731.1</ele>
        <time>2021-08-30T10:22:35Z</time>
      </trkpt>
      <trkpt lat="45.17376" lon="5.65744">
        <ele>731.2</ele>
        <time>2021-08-30T10:22:36Z</time>
      </trkpt>
      <trkpt lat="45.17376" lon="5.65744">
        <ele>731.3</ele>
        <time>2021-08-30T10:22:38Z</time>
      </trkpt>
      <trkpt lat="45.17377" lon="5.65744">
        <ele>731.3</ele>
        <time>2021-08-30T10:22:39Z</time>
      </trkpt>
      <trkpt lat="45.17378" lon="5.65743">
        <ele>731.3</ele>
        <time>2021-08-30T10:22:41Z</time>
      </trkpt>
      <trkpt lat="45.17379" lon="5.65742">
        <ele>731.4</ele>
        <time>2021-08-30T10:22:42Z</time>
      </trkpt>
      <trkpt lat="45.1739" lon="5.65737">
        <ele>732.1</ele>
        <time>2021-08-30T10:22:44Z</time>
      </trkpt>
      <trkpt lat="45.17401" lon="5.65733">
        <ele>732.6</ele>
        <time>2021-08-30T10:23:14Z</time>
      </trkpt>
      <trkpt lat="45.17411" lon="5.65729">
        <ele>733.1</ele>
        <time>2021-08-30T10:23:15Z</time>
      </trkpt>
      <trkpt lat="45.17414" lon="5.65719">
        <ele>733.4</ele>
        <time>2021-08-30T10:23:17Z</time>
      </trkpt>
      <trkpt lat="45.17416" lon="5.65713">
        <ele>733.6</ele>
        <time>2021-08-30T10:23:18Z</time>
      </trkpt>
      <trkpt lat="45.17417" lon="5.65702">
        <ele>733.8</ele>
        <time>2021-08-30T10:23:20Z</time>
      </trkpt>
      <trkpt lat="45.1742" lon="5.65695">
        <ele>733.9</ele>
        <time>2021-08-30T10:23:21Z</time>
      </trkpt>
      <trkpt lat="45.17425" lon="5.65687">
        <ele>734.1</ele>
        <time>2021-08-30T10:23:23Z</time>
      </trkpt>
      <trkpt lat="45.17429" lon="5.65677">
        <ele>734.2</ele>
        <time>2021-08-30T10:23:24Z</time>
      </trkpt>
      <trkpt lat="45.17435" lon="5.65668">
        <ele>734.4</ele>
        <time>2021-08-30T10:23:26Z</time>
      </trkpt>
      <trkpt lat="45.17438" lon="5.65663">
        <ele>734.4</ele>
        <time>2021-08-30T10:23:27Z</time>
      </trkpt>
      <trkpt lat="45.1744" lon="5.65658">
        <ele>734.5</ele>
        <time>2021-08-30T10:23:28Z</time>
      </trkpt>
      <trkpt lat="45.17442" lon="5.65655">
        <ele>734.6</ele>
        <time>2021-08-30T10:23:29Z</time>
      </trkpt>
      <trkpt lat="45.17441" lon="5.65654">
        <ele>734.6</ele>
        <time>2021-08-30T10:23:30Z</time>
      </trkpt>
      <trkpt lat="45.17443" lon="5.65649">
        <ele>734.7</ele>
        <time>2021-08-30T10:23:32Z</time>
      </trkpt>
      <trkpt lat="45.17443" lon="5.65647">
        <ele>734.8</ele>
        <time>2021-08-30T10:23:33Z</time>
      </trkpt>
      <trkpt lat="45.17445" lon="5.65642">
        <ele>734.9</ele>
        <time>2021-08-30T10:23:35Z</time>
      </trkpt>
      <trkpt lat="45.17446" lon="5.65641">
        <ele>734.9</ele>
        <time>2021-08-30T10:23:36Z</time>
      </trkpt>
      <trkpt lat="45.17447" lon="5.65637">
        <ele>735</ele>
        <time>2021-08-30T10:23:38Z</time>
      </trkpt>
      <trkpt lat="45.1749" lon="5.65529">
        <ele>739.9</ele>
        <time>2021-08-30T10:24:28Z</time>
      </trkpt>
      <trkpt lat="45.17492" lon="5.65522">
        <ele>740.2</ele>
        <time>2021-08-30T10:24:29Z</time>
      </trkpt>
      <trkpt lat="45.17494" lon="5.65515">
        <ele>740.5</ele>
        <time>2021-08-30T10:24:31Z</time>
      </trkpt>
      <trkpt lat="45.17495" lon="5.65508">
        <ele>740.7</ele>
        <time>2021-08-30T10:24:32Z</time>
      </trkpt>
      <trkpt lat="45.17496" lon="5.65501">
        <ele>741.1</ele>
        <time>2021-08-30T10:24:33Z</time>
      </trkpt>
      <trkpt lat="45.17498" lon="5.65497">
        <ele>741.3</ele>
        <time>2021-08-30T10:24:34Z</time>
      </trkpt>
      <trkpt lat="45.175" lon="5.65493">
        <ele>741.4</ele>
        <time>2021-08-30T10:24:35Z</time>
      </trkpt>
      <trkpt lat="45.17506" lon="5.6549">
        <ele>741.8</ele>
        <time>2021-08-30T10:24:37Z</time>
      </trkpt>
      <trkpt lat="45.17505" lon="5.65491">
        <ele>741.8</ele>
        <time>2021-08-30T10:24:38Z</time>
      </trkpt>
      <trkpt lat="45.17506" lon="5.65494">
        <ele>741.9</ele>
        <time>2021-08-30T10:24:39Z</time>
      </trkpt>
      <trkpt lat="45.17509" lon="5.65493">
        <ele>742.1</ele>
        <time>2021-08-30T10:24:41Z</time>
      </trkpt>
      <trkpt lat="45.1751" lon="5.65492">
        <ele>742.2</ele>
        <time>2021-08-30T10:24:42Z</time>
      </trkpt>
      <trkpt lat="45.17512" lon="5.65489">
        <ele>742.4</ele>
        <time>2021-08-30T10:24:43Z</time>
      </trkpt>
      <trkpt lat="45.17516" lon="5.65486">
        <ele>742.6</ele>
        <time>2021-08-30T10:24:45Z</time>
      </trkpt>
      <trkpt lat="45.17518" lon="5.65486">
        <ele>742.7</ele>
        <time>2021-08-30T10:24:46Z</time>
      </trkpt>
      <trkpt lat="45.1752" lon="5.65485">
        <ele>742.8</ele>
        <time>2021-08-30T10:24:47Z</time>
      </trkpt>
      <trkpt lat="45.17521" lon="5.65485">
        <ele>742.9</ele>
        <time>2021-08-30T10:24:48Z</time>
      </trkpt>
      <trkpt lat="45.17525" lon="5.65485">
        <ele>743.1</ele>
        <time>2021-08-30T10:24:50Z</time>
      </trkpt>
      <trkpt lat="45.17527" lon="5.65484">
        <ele>743.2</ele>
        <time>2021-08-30T10:24:51Z</time>
      </trkpt>
      <trkpt lat="45.17529" lon="5.65483">
        <ele>743.4</ele>
        <time>2021-08-30T10:24:52Z</time>
      </trkpt>
      <trkpt lat="45.17529" lon="5.65485">
        <ele>743.4</ele>
        <time>2021-08-30T10:24:53Z</time>
      </trkpt>
      <trkpt lat="45.17529" lon="5.6549">
        <ele>743.7</ele>
        <time>2021-08-30T10:24:55Z</time>
      </trkpt>
      <trkpt lat="45.17529" lon="5.6549">
        <ele>743.7</ele>
        <time>2021-08-30T10:24:56Z</time>
      </trkpt>
      <trkpt lat="45.17529" lon="5.65489">
        <ele>743.7</ele>
        <time>2021-08-30T10:24:57Z</time>
      </trkpt>
      <trkpt lat="45.1753" lon="5.65487">
        <ele>743.8</ele>
        <time>2021-08-30T10:24:58Z</time>
      </trkpt>
      <trkpt lat="45.17531" lon="5.65483">
        <ele>744</ele>
        <time>2021-08-30T10:25:00Z</time>
      </trkpt>
      <trkpt lat="45.17533" lon="5.65479">
        <ele>744.2</ele>
        <time>2021-08-30T10:25:02Z</time>
      </trkpt>
      <trkpt lat="45.17534" lon="5.65477">
        <ele>744.4</ele>
        <time>2021-08-30T10:25:03Z</time>
      </trkpt>
      <trkpt lat="45.17536" lon="5.65471">
        <ele>744.7</ele>
        <time>2021-08-30T10:25:04Z</time>
      </trkpt>
      <trkpt lat="45.17538" lon="5.65465">
        <ele>745</ele>
        <time>2021-08-30T10:25:05Z</time>
      </trkpt>
      <trkpt lat="45.17539" lon="5.65459">
        <ele>745.2</ele>
        <time>2021-08-30T10:25:06Z</time>
      </trkpt>
      <trkpt lat="45.1754" lon="5.6545">
        <ele>745.6</ele>
        <time>2021-08-30T10:25:08Z</time>
      </trkpt>
      <trkpt lat="45.1754" lon="5.65443">
        <ele>745.9</ele>
        <time>2021-08-30T10:25:10Z</time>
      </trkpt>
      <trkpt lat="45.17541" lon="5.65437">
        <ele>746.1</ele>
        <time>2021-08-30T10:25:11Z</time>
      </trkpt>
      <trkpt lat="45.17542" lon="5.65432">
        <ele>746.2</ele>
        <time>2021-08-30T10:25:12Z</time>
      </trkpt>
      <trkpt lat="45.17542" lon="5.65428">
        <ele>746.3</ele>
        <time>2021-08-30T10:25:13Z</time>
      </trkpt>
      <trkpt lat="45.17543" lon="5.65424">
        <ele>746.4</ele>
        <time>2021-08-30T10:25:15Z</time>
      </trkpt>
      <trkpt lat="45.17544" lon="5.65421">
        <ele>746.4</ele>
        <time>2021-08-30T10:25:16Z</time>
      </trkpt>
      <trkpt lat="45.17544" lon="5.65418">
        <ele>746.4</ele>
        <time>2021-08-30T10:25:17Z</time>
      </trkpt>
      <trkpt lat="45.17545" lon="5.65414">
        <ele>746.4</ele>
        <time>2021-08-30T10:25:19Z</time>
      </trkpt>
      <trkpt lat="45.17546" lon="5.65411">
        <ele>746.4</ele>
        <time>2021-08-30T10:25:20Z</time>
      </trkpt>
      <trkpt lat="45.17548" lon="5.65397">
        <ele>746.4</ele>
        <time>2021-08-30T10:25:22Z</time>
      </trkpt>
      <trkpt lat="45.17549" lon="5.65391">
        <ele>746.4</ele>
        <time>2021-08-30T10:25:23Z</time>
      </trkpt>
      <trkpt lat="45.17549" lon="5.65386">
        <ele>746.4</ele>
        <time>2021-08-30T10:25:25Z</time>
      </trkpt>
      <trkpt lat="45.17549" lon="5.65382">
        <ele>746.4</ele>
        <time>2021-08-30T10:25:27Z</time>
      </trkpt>
      <trkpt lat="45.17548" lon="5.6538">
        <ele>746.4</ele>
        <time>2021-08-30T10:25:29Z</time>
      </trkpt>
      <trkpt lat="45.17548" lon="5.65379">
        <ele>746.4</ele>
        <time>2021-08-30T10:25:30Z</time>
      </trkpt>
      <trkpt lat="45.17548" lon="5.65378">
        <ele>746.4</ele>
        <time>2021-08-30T10:25:31Z</time>
      </trkpt>
      <trkpt lat="45.17548" lon="5.65377">
        <ele>746.5</ele>
        <time>2021-08-30T10:25:33Z</time>
      </trkpt>
      <trkpt lat="45.17548" lon="5.65376">
        <ele>746.7</ele>
        <time>2021-08-30T10:25:34Z</time>
      </trkpt>
      <trkpt lat="45.17548" lon="5.65376">
        <ele>746.7</ele>
        <time>2021-08-30T10:25:36Z</time>
      </trkpt>
      <trkpt lat="45.17548" lon="5.65375">
        <ele>746.8</ele>
        <time>2021-08-30T10:25:37Z</time>
      </trkpt>
      <trkpt lat="45.17526" lon="5.6531">
        <ele>753.4</ele>
        <time>2021-08-30T10:26:47Z</time>
      </trkpt>
      <trkpt lat="45.17522" lon="5.65309">
        <ele>753.6</ele>
        <time>2021-08-30T10:26:49Z</time>
      </trkpt>
      <trkpt lat="45.17519" lon="5.65308">
        <ele>753.7</ele>
        <time>2021-08-30T10:26:50Z</time>
      </trkpt>
      <trkpt lat="45.17515" lon="5.65305">
        <ele>753.9</ele>
        <time>2021-08-30T10:26:51Z</time>
      </trkpt>
      <trkpt lat="45.17512" lon="5.65302">
        <ele>754.1</ele>
        <time>2021-08-30T10:26:53Z</time>
      </trkpt>
      <trkpt lat="45.17512" lon="5.65297">
        <ele>754.3</ele>
        <time>2021-08-30T10:26:55Z</time>
      </trkpt>
      <trkpt lat="45.17513" lon="5.65294">
        <ele>754.4</ele>
        <time>2021-08-30T10:26:56Z</time>
      </trkpt>
      <trkpt lat="45.17513" lon="5.65292">
        <ele>754.5</ele>
        <time>2021-08-30T10:26:57Z</time>
      </trkpt>
      <trkpt lat="45.1751" lon="5.65293">
        <ele>754.6</ele>
        <time>2021-08-30T10:26:58Z</time>
      </trkpt>
      <trkpt lat="45.17509" lon="5.65295">
        <ele>754.7</ele>
        <time>2021-08-30T10:27:00Z</time>
      </trkpt>
      <trkpt lat="45.17507" lon="5.65296">
        <ele>754.8</ele>
        <time>2021-08-30T10:27:01Z</time>
      </trkpt>
      <trkpt lat="45.17505" lon="5.65298">
        <ele>754.9</ele>
        <time>2021-08-30T10:27:02Z</time>
      </trkpt>
      <trkpt lat="45.1749" lon="5.65317">
        <ele>755.8</ele>
        <time>2021-08-30T10:27:04Z</time>
      </trkpt>
      <trkpt lat="45.17487" lon="5.65319">
        <ele>755.9</ele>
        <time>2021-08-30T10:27:06Z</time>
      </trkpt>
      <trkpt lat="45.17486" lon="5.65323">
        <ele>756.1</ele>
        <time>2021-08-30T10:27:07Z</time>
      </trkpt>
      <trkpt lat="45.17485" lon="5.65323">
        <ele>756.1</ele>
        <time>2021-08-30T10:27:08Z</time>
      </trkpt>
      <trkpt lat="45.17485" lon="5.65326">
        <ele>756.2</ele>
        <time>2021-08-30T10:27:10Z</time>
      </trkpt>
      <trkpt lat="45.17485" lon="5.65327">
        <ele>756.2</ele>
        <time>2021-08-30T10:27:11Z</time>
      </trkpt>
      <trkpt lat="45.17484" lon="5.6533">
        <ele>756.4</ele>
        <time>2021-08-30T10:27:12Z</time>
      </trkpt>
      <trkpt lat="45.17483" lon="5.65331">
        <ele>756.4</ele>
        <time>2021-08-30T10:27:13Z</time>
      </trkpt>
      <trkpt lat="45.17482" lon="5.65332">
        <ele>756.4</ele>
        <time>2021-08-30T10:27:14Z</time>
      </trkpt>
      <trkpt lat="45.1748" lon="5.65334">
        <ele>756.6</ele>
        <time>2021-08-30T10:27:16Z</time>
      </trkpt>
      <trkpt lat="45.17479" lon="5.65334">
        <ele>756.6</ele>
        <time>2021-08-30T10:27:17Z</time>
      </trkpt>
      <trkpt lat="45.17477" lon="5.65335">
        <ele>756.7</ele>
        <time>2021-08-30T10:27:18Z</time>
      </trkpt>
      <trkpt lat="45.17475" lon="5.65335">
        <ele>756.8</ele>
        <time>2021-08-30T10:27:19Z</time>
      </trkpt>
      <trkpt lat="45.17473" lon="5.65335">
        <ele>756.9</ele>
        <time>2021-08-30T10:27:20Z</time>
      </trkpt>
      <trkpt lat="45.17469" lon="5.65336">
        <ele>757.1</ele>
        <time>2021-08-30T10:27:22Z</time>
      </trkpt>
      <trkpt lat="45.17465" lon="5.65338">
        <ele>757.3</ele>
        <time>2021-08-30T10:27:23Z</time>
      </trkpt>
      <trkpt lat="45.17462" lon="5.65339">
        <ele>757.4</ele>
        <time>2021-08-30T10:27:24Z</time>
      </trkpt>
      <trkpt lat="45.1746" lon="5.6534">
        <ele>757.5</ele>
        <time>2021-08-30T10:27:25Z</time>
      </trkpt>
      <trkpt lat="45.17458" lon="5.6534">
        <ele>757.6</ele>
        <time>2021-08-30T10:27:26Z</time>
      </trkpt>
      <trkpt lat="45.17454" lon="5.65339">
        <ele>757.8</ele>
        <time>2021-08-30T10:27:28Z</time>
      </trkpt>
      <trkpt lat="45.17451" lon="5.65337">
        <ele>757.9</ele>
        <time>2021-08-30T10:27:29Z</time>
      </trkpt>
      <trkpt lat="45.1745" lon="5.65337">
        <ele>757.9</ele>
        <time>2021-08-30T10:27:30Z</time>
      </trkpt>
      <trkpt lat="45.17449" lon="5.65335">
        <ele>758</ele>
        <time>2021-08-30T10:27:31Z</time>
      </trkpt>
      <trkpt lat="45.17449" lon="5.65334">
        <ele>758</ele>
        <time>2021-08-30T10:27:32Z</time>
      </trkpt>
      <trkpt lat="45.17447" lon="5.65333">
        <ele>758.1</ele>
        <time>2021-08-30T10:27:34Z</time>
      </trkpt>
      <trkpt lat="45.17445" lon="5.65334">
        <ele>758.2</ele>
        <time>2021-08-30T10:27:36Z</time>
      </trkpt>
      <trkpt lat="45.17444" lon="5.65336">
        <ele>758.2</ele>
        <time>2021-08-30T10:27:38Z</time>
      </trkpt>
      <trkpt lat="45.17443" lon="5.65338">
        <ele>758.3</ele>
        <time>2021-08-30T10:27:40Z</time>
      </trkpt>
      <trkpt lat="45.17442" lon="5.65341">
        <ele>758.4</ele>
        <time>2021-08-30T10:27:42Z</time>
      </trkpt>
      <trkpt lat="45.1744" lon="5.65344">
        <ele>758.6</ele>
        <time>2021-08-30T10:27:44Z</time>
      </trkpt>
      <trkpt lat="45.17438" lon="5.65348">
        <ele>758.7</ele>
        <time>2021-08-30T10:27:45Z</time>
      </trkpt>
      <trkpt lat="45.17434" lon="5.65354">
        <ele>759</ele>
        <time>2021-08-30T10:27:47Z</time>
      </trkpt>
      <trkpt lat="45.1743" lon="5.6536">
        <ele>759.3</ele>
        <time>2021-08-30T10:27:48Z</time>
      </trkpt>
      <trkpt lat="45.17425" lon="5.65368">
        <ele>759.7</ele>
        <time>2021-08-30T10:27:50Z</time>
      </trkpt>
      <trkpt lat="45.17423" lon="5.65371">
        <ele>759.9</ele>
        <time>2021-08-30T10:27:51Z</time>
      </trkpt>
      <trkpt lat="45.17423" lon="5.65376">
        <ele>760</ele>
        <time>2021-08-30T10:27:53Z</time>
      </trkpt>
      <trkpt lat="45.17423" lon="5.65377">
        <ele>760.1</ele>
        <time>2021-08-30T10:27:54Z</time>
      </trkpt>
      <trkpt lat="45.17423" lon="5.65379">
        <ele>760.1</ele>
        <time>2021-08-30T10:27:55Z</time>
      </trkpt>
      <trkpt lat="45.17422" lon="5.6538">
        <ele>760.2</ele>
        <time>2021-08-30T10:27:56Z</time>
      </trkpt>
      <trkpt lat="45.17423" lon="5.65381">
        <ele>760.2</ele>
        <time>2021-08-30T10:27:58Z</time>
      </trkpt>
      <trkpt lat="45.17423" lon="5.65382">
        <ele>760.3</ele>
        <time>2021-08-30T10:27:59Z</time>
      </trkpt>
      <trkpt lat="45.17423" lon="5.65383">
        <ele>760.3</ele>
        <time>2021-08-30T10:28:01Z</time>
      </trkpt>
      <trkpt lat="45.17374" lon="5.65416">
        <ele>765</ele>
        <time>2021-08-30T10:28:39Z</time>
      </trkpt>
      <trkpt lat="45.17371" lon="5.65417">
        <ele>765.1</ele>
        <time>2021-08-30T10:28:40Z</time>
      </trkpt>
      <trkpt lat="45.17367" lon="5.65417">
        <ele>765.3</ele>
        <time>2021-08-30T10:28:41Z</time>
      </trkpt>
      <trkpt lat="45.17364" lon="5.65417">
        <ele>765.5</ele>
        <time>2021-08-30T10:28:42Z</time>
      </trkpt>
      <trkpt lat="45.17348" lon="5.65415">
        <ele>766.3</ele>
        <time>2021-08-30T10:28:44Z</time>
      </trkpt>
      <trkpt lat="45.17346" lon="5.65414">
        <ele>766.4</ele>
        <time>2021-08-30T10:28:45Z</time>
      </trkpt>
      <trkpt lat="45.17345" lon="5.65414">
        <ele>766.5</ele>
        <time>2021-08-30T10:28:47Z</time>
      </trkpt>
      <trkpt lat="45.17344" lon="5.65414">
        <ele>766.5</ele>
        <time>2021-08-30T10:28:48Z</time>
      </trkpt>
      <trkpt lat="45.17342" lon="5.65414">
        <ele>766.6</ele>
        <time>2021-08-30T10:28:50Z</time>
      </trkpt>
      <trkpt lat="45.17274" lon="5.65438">
        <ele>770.3</ele>
        <time>2021-08-30T10:29:27Z</time>
      </trkpt>
      <trkpt lat="45.17271" lon="5.65441">
        <ele>770.4</ele>
        <time>2021-08-30T10:29:28Z</time>
      </trkpt>
      <trkpt lat="45.17271" lon="5.65441">
        <ele>770.5</ele>
        <time>2021-08-30T10:29:29Z</time>
      </trkpt>
      <trkpt lat="45.1727" lon="5.65443">
        <ele>770.5</ele>
        <time>2021-08-30T10:29:31Z</time>
      </trkpt>
      <trkpt lat="45.1727" lon="5.65445">
        <ele>770.6</ele>
        <time>2021-08-30T10:29:32Z</time>
      </trkpt>
      <trkpt lat="45.1727" lon="5.6545">
        <ele>770.7</ele>
        <time>2021-08-30T10:29:34Z</time>
      </trkpt>
      <trkpt lat="45.1727" lon="5.65451">
        <ele>770.7</ele>
        <time>2021-08-30T10:29:35Z</time>
      </trkpt>
      <trkpt lat="45.1727" lon="5.65453">
        <ele>770.8</ele>
        <time>2021-08-30T10:29:36Z</time>
      </trkpt>
      <trkpt lat="45.17269" lon="5.65454">
        <ele>770.8</ele>
        <time>2021-08-30T10:29:37Z</time>
      </trkpt>
      <trkpt lat="45.17269" lon="5.65455">
        <ele>770.8</ele>
        <time>2021-08-30T10:29:38Z</time>
      </trkpt>
      <trkpt lat="45.17269" lon="5.65456">
        <ele>770.9</ele>
        <time>2021-08-30T10:29:39Z</time>
      </trkpt>
      <trkpt lat="45.17268" lon="5.65458">
        <ele>770.9</ele>
        <time>2021-08-30T10:29:41Z</time>
      </trkpt>
      <trkpt lat="45.17268" lon="5.65459">
        <ele>771</ele>
        <time>2021-08-30T10:29:42Z</time>
      </trkpt>
      <trkpt lat="45.17268" lon="5.65459">
        <ele>771</ele>
        <time>2021-08-30T10:29:43Z</time>
      </trkpt>
      <trkpt lat="45.17267" lon="5.65461">
        <ele>771</ele>
        <time>2021-08-30T10:29:44Z</time>
      </trkpt>
      <trkpt lat="45.17267" lon="5.65463">
        <ele>771.1</ele>
        <time>2021-08-30T10:29:46Z</time>
      </trkpt>
      <trkpt lat="45.17266" lon="5.65464">
        <ele>771.1</ele>
        <time>2021-08-30T10:29:47Z</time>
      </trkpt>
      <trkpt lat="45.17266" lon="5.65466">
        <ele>771.2</ele>
        <time>2021-08-30T10:29:48Z</time>
      </trkpt>
      <trkpt lat="45.17266" lon="5.65467">
        <ele>771.2</ele>
        <time>2021-08-30T10:29:49Z</time>
      </trkpt>
      <trkpt lat="45.17271" lon="5.65474">
        <ele>771.5</ele>
        <time>2021-08-30T10:29:51Z</time>
      </trkpt>
      <trkpt lat="45.17274" lon="5.65478">
        <ele>771.7</ele>
        <time>2021-08-30T10:29:52Z</time>
      </trkpt>
      <trkpt lat="45.1728" lon="5.65487">
        <ele>772</ele>
        <time>2021-08-30T10:29:53Z</time>
      </trkpt>
      <trkpt lat="45.17284" lon="5.65491">
        <ele>772.2</ele>
        <time>2021-08-30T10:29:54Z</time>
      </trkpt>
      <trkpt lat="45.17287" lon="5.65496">
        <ele>772.4</ele>
        <time>2021-08-30T10:29:56Z</time>
      </trkpt>
      <trkpt lat="45.17287" lon="5.65501">
        <ele>772.6</ele>
        <time>2021-08-30T10:29:57Z</time>
      </trkpt>
      <trkpt lat="45.17286" lon="5.65503">
        <ele>772.6</ele>
        <time>2021-08-30T10:29:58Z</time>
      </trkpt>
      <trkpt lat="45.17282" lon="5.65513">
        <ele>773</ele>
        <time>2021-08-30T10:29:59Z</time>
      </trkpt>
      <trkpt lat="45.17274" lon="5.65531">
        <ele>773.7</ele>
        <time>2021-08-30T10:30:00Z</time>
      </trkpt>
      <trkpt lat="45.17268" lon="5.65545">
        <ele>774.2</ele>
        <time>2021-08-30T10:30:02Z</time>
      </trkpt>
      <trkpt lat="45.17266" lon="5.65549">
        <ele>774.3</ele>
        <time>2021-08-30T10:30:03Z</time>
      </trkpt>
      <trkpt lat="45.17265" lon="5.65551">
        <ele>774.4</ele>
        <time>2021-08-30T10:30:04Z</time>
      </trkpt>
      <trkpt lat="45.17265" lon="5.65552">
        <ele>774.5</ele>
        <time>2021-08-30T10:30:05Z</time>
      </trkpt>
      <trkpt lat="45.17264" lon="5.65553">
        <ele>774.5</ele>
        <time>2021-08-30T10:30:06Z</time>
      </trkpt>
      <trkpt lat="45.17263" lon="5.65555">
        <ele>774.7</ele>
        <time>2021-08-30T10:30:07Z</time>
      </trkpt>
      <trkpt lat="45.17262" lon="5.65556">
        <ele>774.8</ele>
        <time>2021-08-30T10:30:08Z</time>
      </trkpt>
      <trkpt lat="45.1726" lon="5.65559">
        <ele>775</ele>
        <time>2021-08-30T10:30:10Z</time>
      </trkpt>
      <trkpt lat="45.17259" lon="5.65563">
        <ele>775.2</ele>
        <time>2021-08-30T10:30:11Z</time>
      </trkpt>
      <trkpt lat="45.17259" lon="5.65564">
        <ele>775.3</ele>
        <time>2021-08-30T10:30:12Z</time>
      </trkpt>
      <trkpt lat="45.17258" lon="5.65567">
        <ele>775.4</ele>
        <time>2021-08-30T10:30:13Z</time>
      </trkpt>
      <trkpt lat="45.17255" lon="5.65572">
        <ele>775.7</ele>
        <time>2021-08-30T10:30:15Z</time>
      </trkpt>
      <trkpt lat="45.17253" lon="5.65575">
        <ele>776</ele>
        <time>2021-08-30T10:30:16Z</time>
      </trkpt>
      <trkpt lat="45.17251" lon="5.65579">
        <ele>776.2</ele>
        <time>2021-08-30T10:30:18Z</time>
      </trkpt>
      <trkpt lat="45.17249" lon="5.65581">
        <ele>776.4</ele>
        <time>2021-08-30T10:30:19Z</time>
      </trkpt>
      <trkpt lat="45.17247" lon="5.65582">
        <ele>776.5</ele>
        <time>2021-08-30T10:30:20Z</time>
      </trkpt>
      <trkpt lat="45.17245" lon="5.65583">
        <ele>776.7</ele>
        <time>2021-08-30T10:30:22Z</time>
      </trkpt>
      <trkpt lat="45.17241" lon="5.65583">
        <ele>776.9</ele>
        <time>2021-08-30T10:30:23Z</time>
      </trkpt>
      <trkpt lat="45.17241" lon="5.65583">
        <ele>777</ele>
        <time>2021-08-30T10:30:24Z</time>
      </trkpt>
      <trkpt lat="45.17238" lon="5.65584">
        <ele>777.1</ele>
        <time>2021-08-30T10:30:25Z</time>
      </trkpt>
      <trkpt lat="45.17237" lon="5.65584">
        <ele>777.2</ele>
        <time>2021-08-30T10:30:26Z</time>
      </trkpt>
      <trkpt lat="45.17235" lon="5.65586">
        <ele>777.4</ele>
        <time>2021-08-30T10:30:28Z</time>
      </trkpt>
      <trkpt lat="45.17235" lon="5.65586">
        <ele>777.4</ele>
        <time>2021-08-30T10:30:29Z</time>
      </trkpt>
      <trkpt lat="45.17236" lon="5.65588">
        <ele>777.5</ele>
        <time>2021-08-30T10:30:31Z</time>
      </trkpt>
      <trkpt lat="45.17237" lon="5.65588">
        <ele>777.5</ele>
        <time>2021-08-30T10:30:32Z</time>
      </trkpt>
      <trkpt lat="45.17236" lon="5.6559">
        <ele>777.6</ele>
        <time>2021-08-30T10:30:34Z</time>
      </trkpt>
      <trkpt lat="45.17235" lon="5.6559">
        <ele>777.7</ele>
        <time>2021-08-30T10:30:35Z</time>
      </trkpt>
      <trkpt lat="45.17235" lon="5.65591">
        <ele>777.7</ele>
        <time>2021-08-30T10:30:36Z</time>
      </trkpt>
      <trkpt lat="45.17234" lon="5.65592">
        <ele>777.8</ele>
        <time>2021-08-30T10:30:37Z</time>
      </trkpt>
      <trkpt lat="45.17234" lon="5.65592">
        <ele>777.8</ele>
        <time>2021-08-30T10:30:38Z</time>
      </trkpt>
      <trkpt lat="45.17224" lon="5.6559">
        <ele>778.5</ele>
        <time>2021-08-30T10:30:40Z</time>
      </trkpt>
      <trkpt lat="45.17207" lon="5.65585">
        <ele>779.6</ele>
        <time>2021-08-30T10:30:42Z</time>
      </trkpt>
      <trkpt lat="45.17203" lon="5.65583">
        <ele>779.9</ele>
        <time>2021-08-30T10:30:43Z</time>
      </trkpt>
      <trkpt lat="45.17202" lon="5.65582">
        <ele>780</ele>
        <time>2021-08-30T10:30:44Z</time>
      </trkpt>
      <trkpt lat="45.172" lon="5.6558">
        <ele>780.1</ele>
        <time>2021-08-30T10:30:46Z</time>
      </trkpt>
      <trkpt lat="45.17197" lon="5.65579">
        <ele>780.3</ele>
        <time>2021-08-30T10:30:47Z</time>
      </trkpt>
      <trkpt lat="45.17196" lon="5.65578">
        <ele>780.4</ele>
        <time>2021-08-30T10:30:48Z</time>
      </trkpt>
      <trkpt lat="45.17193" lon="5.65578">
        <ele>780.6</ele>
        <time>2021-08-30T10:30:50Z</time>
      </trkpt>
      <trkpt lat="45.17193" lon="5.65578">
        <ele>780.7</ele>
        <time>2021-08-30T10:30:51Z</time>
      </trkpt>
      <trkpt lat="45.17191" lon="5.65578">
        <ele>780.7</ele>
        <time>2021-08-30T10:30:53Z</time>
      </trkpt>
      <trkpt lat="45.1719" lon="5.65578">
        <ele>780.9</ele>
        <time>2021-08-30T10:30:55Z</time>
      </trkpt>
      <trkpt lat="45.17188" lon="5.65578">
        <ele>781</ele>
        <time>2021-08-30T10:30:56Z</time>
      </trkpt>
      <trkpt lat="45.17187" lon="5.65579">
        <ele>781.1</ele>
        <time>2021-08-30T10:30:57Z</time>
      </trkpt>
      <trkpt lat="45.17186" lon="5.6558">
        <ele>781.1</ele>
        <time>2021-08-30T10:30:58Z</time>
      </trkpt>
      <trkpt lat="45.17185" lon="5.65581">
        <ele>781.2</ele>
        <time>2021-08-30T10:31:00Z</time>
      </trkpt>
      <trkpt lat="45.17184" lon="5.65581">
        <ele>781.3</ele>
        <time>2021-08-30T10:31:01Z</time>
      </trkpt>
      <trkpt lat="45.17179" lon="5.65586">
        <ele>781.7</ele>
        <time>2021-08-30T10:31:02Z</time>
      </trkpt>
      <trkpt lat="45.17175" lon="5.65591">
        <ele>782.1</ele>
        <time>2021-08-30T10:31:03Z</time>
      </trkpt>
      <trkpt lat="45.17167" lon="5.65599">
        <ele>782.9</ele>
        <time>2021-08-30T10:31:05Z</time>
      </trkpt>
      <trkpt lat="45.17161" lon="5.65604">
        <ele>783.5</ele>
        <time>2021-08-30T10:31:06Z</time>
      </trkpt>
      <trkpt lat="45.17157" lon="5.65609">
        <ele>783.9</ele>
        <time>2021-08-30T10:31:07Z</time>
      </trkpt>
      <trkpt lat="45.17154" lon="5.65612">
        <ele>784.2</ele>
        <time>2021-08-30T10:31:08Z</time>
      </trkpt>
      <trkpt lat="45.17153" lon="5.65614">
        <ele>784.4</ele>
        <time>2021-08-30T10:31:10Z</time>
      </trkpt>
      <trkpt lat="45.17155" lon="5.65615">
        <ele>784.6</ele>
        <time>2021-08-30T10:31:11Z</time>
      </trkpt>
      <trkpt lat="45.17156" lon="5.65615">
        <ele>784.8</ele>
        <time>2021-08-30T10:31:12Z</time>
      </trkpt>
      <trkpt lat="45.17158" lon="5.65616">
        <ele>785</ele>
        <time>2021-08-30T10:31:13Z</time>
      </trkpt>
      <trkpt lat="45.17159" lon="5.65616">
        <ele>785.1</ele>
        <time>2021-08-30T10:31:14Z</time>
      </trkpt>
      <trkpt lat="45.1716" lon="5.65616">
        <ele>785.1</ele>
        <time>2021-08-30T10:31:15Z</time>
      </trkpt>
      <trkpt lat="45.17161" lon="5.65616">
        <ele>785.2</ele>
        <time>2021-08-30T10:31:16Z</time>
      </trkpt>
      <trkpt lat="45.17162" lon="5.65618">
        <ele>785.4</ele>
        <time>2021-08-30T10:31:18Z</time>
      </trkpt>
      <trkpt lat="45.17005" lon="5.65857">
        <ele>803.9</ele>
        <time>2021-08-30T10:35:25Z</time>
      </trkpt>
      <trkpt lat="45.17006" lon="5.65862">
        <ele>804.1</ele>
        <time>2021-08-30T10:35:26Z</time>
      </trkpt>
      <trkpt lat="45.17005" lon="5.65863">
        <ele>804.1</ele>
        <time>2021-08-30T10:35:27Z</time>
      </trkpt>
      <trkpt lat="45.17003" lon="5.65863">
        <ele>804.1</ele>
        <time>2021-08-30T10:35:29Z</time>
      </trkpt>
      <trkpt lat="45.17002" lon="5.65863">
        <ele>804.2</ele>
        <time>2021-08-30T10:35:30Z</time>
      </trkpt>
      <trkpt lat="45.17002" lon="5.65863">
        <ele>804.2</ele>
        <time>2021-08-30T10:35:31Z</time>
      </trkpt>
      <trkpt lat="45.17002" lon="5.65864">
        <ele>804.2</ele>
        <time>2021-08-30T10:35:32Z</time>
      </trkpt>
      <trkpt lat="45.17002" lon="5.65866">
        <ele>804.3</ele>
        <time>2021-08-30T10:35:33Z</time>
      </trkpt>
      <trkpt lat="45.17001" lon="5.6587">
        <ele>804.4</ele>
        <time>2021-08-30T10:35:35Z</time>
      </trkpt>
      <trkpt lat="45.17001" lon="5.65873">
        <ele>804.5</ele>
        <time>2021-08-30T10:35:36Z</time>
      </trkpt>
      <trkpt lat="45.16974" lon="5.65888">
        <ele>805.6</ele>
        <time>2021-08-30T10:35:44Z</time>
      </trkpt>
      <trkpt lat="45.16971" lon="5.65887">
        <ele>805.8</ele>
        <time>2021-08-30T10:35:45Z</time>
      </trkpt>
      <trkpt lat="45.16971" lon="5.65886">
        <ele>805.8</ele>
        <time>2021-08-30T10:35:46Z</time>
      </trkpt>
      <trkpt lat="45.1697" lon="5.65885">
        <ele>805.9</ele>
        <time>2021-08-30T10:35:47Z</time>
      </trkpt>
      <trkpt lat="45.16971" lon="5.65881">
        <ele>806</ele>
        <time>2021-08-30T10:35:49Z</time>
      </trkpt>
      <trkpt lat="45.1697" lon="5.65881">
        <ele>806</ele>
        <time>2021-08-30T10:35:51Z</time>
      </trkpt>
      <trkpt lat="45.16968" lon="5.65883">
        <ele>806.1</ele>
        <time>2021-08-30T10:35:53Z</time>
      </trkpt>
      <trkpt lat="45.16965" lon="5.65885">
        <ele>806.3</ele>
        <time>2021-08-30T10:35:54Z</time>
      </trkpt>
      <trkpt lat="45.16963" lon="5.65888">
        <ele>806.4</ele>
        <time>2021-08-30T10:35:55Z</time>
      </trkpt>
      <trkpt lat="45.16961" lon="5.65894">
        <ele>806.7</ele>
        <time>2021-08-30T10:35:57Z</time>
      </trkpt>
      <trkpt lat="45.1696" lon="5.65897">
        <ele>806.8</ele>
        <time>2021-08-30T10:35:59Z</time>
      </trkpt>
      <trkpt lat="45.16959" lon="5.65898">
        <ele>806.8</ele>
        <time>2021-08-30T10:36:00Z</time>
      </trkpt>
      <trkpt lat="45.16955" lon="5.659">
        <ele>807</ele>
        <time>2021-08-30T10:36:02Z</time>
      </trkpt>
      <trkpt lat="45.16952" lon="5.65904">
        <ele>807.1</ele>
        <time>2021-08-30T10:36:04Z</time>
      </trkpt>
      <trkpt lat="45.16951" lon="5.65908">
        <ele>807.3</ele>
        <time>2021-08-30T10:36:05Z</time>
      </trkpt>
      <trkpt lat="45.16951" lon="5.6591">
        <ele>807.3</ele>
        <time>2021-08-30T10:36:06Z</time>
      </trkpt>
      <trkpt lat="45.16951" lon="5.65911">
        <ele>807.4</ele>
        <time>2021-08-30T10:36:07Z</time>
      </trkpt>
      <trkpt lat="45.16951" lon="5.65913">
        <ele>807.4</ele>
        <time>2021-08-30T10:36:08Z</time>
      </trkpt>
      <trkpt lat="45.16951" lon="5.65914">
        <ele>807.5</ele>
        <time>2021-08-30T10:36:09Z</time>
      </trkpt>
      <trkpt lat="45.1695" lon="5.65919">
        <ele>807.6</ele>
        <time>2021-08-30T10:36:11Z</time>
      </trkpt>
      <trkpt lat="45.16949" lon="5.65923">
        <ele>807.8</ele>
        <time>2021-08-30T10:36:12Z</time>
      </trkpt>
      <trkpt lat="45.16948" lon="5.65924">
        <ele>807.8</ele>
        <time>2021-08-30T10:36:13Z</time>
      </trkpt>
      <trkpt lat="45.16946" lon="5.65927">
        <ele>808</ele>
        <time>2021-08-30T10:36:14Z</time>
      </trkpt>
      <trkpt lat="45.16944" lon="5.65931">
        <ele>808.1</ele>
        <time>2021-08-30T10:36:16Z</time>
      </trkpt>
      <trkpt lat="45.16944" lon="5.65937">
        <ele>808.3</ele>
        <time>2021-08-30T10:36:18Z</time>
      </trkpt>
      <trkpt lat="45.16944" lon="5.65938">
        <ele>808.4</ele>
        <time>2021-08-30T10:36:19Z</time>
      </trkpt>
      <trkpt lat="45.16944" lon="5.6594">
        <ele>808.4</ele>
        <time>2021-08-30T10:36:20Z</time>
      </trkpt>
      <trkpt lat="45.16943" lon="5.65942">
        <ele>808.5</ele>
        <time>2021-08-30T10:36:22Z</time>
      </trkpt>
      <trkpt lat="45.16942" lon="5.65945">
        <ele>808.6</ele>
        <time>2021-08-30T10:36:24Z</time>
      </trkpt>
      <trkpt lat="45.16937" lon="5.65981">
        <ele>809.8</ele>
        <time>2021-08-30T10:36:38Z</time>
      </trkpt>
      <trkpt lat="45.16934" lon="5.65985">
        <ele>810.1</ele>
        <time>2021-08-30T10:36:39Z</time>
      </trkpt>
      <trkpt lat="45.1693" lon="5.65987">
        <ele>810.4</ele>
        <time>2021-08-30T10:36:40Z</time>
      </trkpt>
      <trkpt lat="45.16925" lon="5.65987">
        <ele>810.8</ele>
        <time>2021-08-30T10:36:41Z</time>
      </trkpt>
      <trkpt lat="45.16921" lon="5.65988">
        <ele>811.1</ele>
        <time>2021-08-30T10:36:42Z</time>
      </trkpt>
      <trkpt lat="45.16915" lon="5.6599">
        <ele>811.3</ele>
        <time>2021-08-30T10:36:43Z</time>
      </trkpt>
      <trkpt lat="45.16909" lon="5.65991">
        <ele>811.6</ele>
        <time>2021-08-30T10:36:45Z</time>
      </trkpt>
      <trkpt lat="45.16902" lon="5.65994">
        <ele>812.2</ele>
        <time>2021-08-30T10:36:46Z</time>
      </trkpt>
      <trkpt lat="45.16897" lon="5.65995">
        <ele>812.5</ele>
        <time>2021-08-30T10:36:48Z</time>
      </trkpt>
      <trkpt lat="45.16894" lon="5.65996">
        <ele>812.7</ele>
        <time>2021-08-30T10:36:49Z</time>
      </trkpt>
      <trkpt lat="45.16888" lon="5.65996">
        <ele>813.1</ele>
        <time>2021-08-30T10:36:51Z</time>
      </trkpt>
      <trkpt lat="45.16884" lon="5.65997">
        <ele>813.3</ele>
        <time>2021-08-30T10:36:52Z</time>
      </trkpt>
      <trkpt lat="45.16879" lon="5.65996">
        <ele>813.6</ele>
        <time>2021-08-30T10:36:54Z</time>
      </trkpt>
      <trkpt lat="45.16875" lon="5.65995">
        <ele>813.8</ele>
        <time>2021-08-30T10:36:56Z</time>
      </trkpt>
      <trkpt lat="45.16874" lon="5.65995">
        <ele>813.8</ele>
        <time>2021-08-30T10:36:57Z</time>
      </trkpt>
      <trkpt lat="45.16871" lon="5.65993">
        <ele>814</ele>
        <time>2021-08-30T10:36:58Z</time>
      </trkpt>
      <trkpt lat="45.16868" lon="5.65992">
        <ele>814.2</ele>
        <time>2021-08-30T10:36:59Z</time>
      </trkpt>
      <trkpt lat="45.16866" lon="5.65991">
        <ele>814.2</ele>
        <time>2021-08-30T10:37:00Z</time>
      </trkpt>
      <trkpt lat="45.16864" lon="5.65989">
        <ele>814.4</ele>
        <time>2021-08-30T10:37:02Z</time>
      </trkpt>
      <trkpt lat="45.16863" lon="5.65988">
        <ele>814.4</ele>
        <time>2021-08-30T10:37:03Z</time>
      </trkpt>
      <trkpt lat="45.16858" lon="5.65982">
        <ele>814.7</ele>
        <time>2021-08-30T10:37:05Z</time>
      </trkpt>
      <trkpt lat="45.16856" lon="5.65981">
        <ele>814.8</ele>
        <time>2021-08-30T10:37:07Z</time>
      </trkpt>
      <trkpt lat="45.16856" lon="5.6598">
        <ele>814.9</ele>
        <time>2021-08-30T10:37:08Z</time>
      </trkpt>
      <trkpt lat="45.16854" lon="5.65977">
        <ele>815</ele>
        <time>2021-08-30T10:37:09Z</time>
      </trkpt>
      <trkpt lat="45.16853" lon="5.65975">
        <ele>815.1</ele>
        <time>2021-08-30T10:37:10Z</time>
      </trkpt>
      <trkpt lat="45.16852" lon="5.65976">
        <ele>815.2</ele>
        <time>2021-08-30T10:37:12Z</time>
      </trkpt>
      <trkpt lat="45.16853" lon="5.6598">
        <ele>815.3</ele>
        <time>2021-08-30T10:37:13Z</time>
      </trkpt>
      <trkpt lat="45.16855" lon="5.65984">
        <ele>815.5</ele>
        <time>2021-08-30T10:37:15Z</time>
      </trkpt>
      <trkpt lat="45.16858" lon="5.65997">
        <ele>816</ele>
        <time>2021-08-30T10:37:16Z</time>
      </trkpt>
      <trkpt lat="45.16859" lon="5.66002">
        <ele>816.2</ele>
        <time>2021-08-30T10:37:18Z</time>
      </trkpt>
      <trkpt lat="45.16857" lon="5.65998">
        <ele>816.3</ele>
        <time>2021-08-30T10:37:19Z</time>
      </trkpt>
      <trkpt lat="45.16856" lon="5.65997">
        <ele>816.4</ele>
        <time>2021-08-30T10:37:20Z</time>
      </trkpt>
      <trkpt lat="45.16854" lon="5.65995">
        <ele>816.5</ele>
        <time>2021-08-30T10:37:21Z</time>
      </trkpt>
      <trkpt lat="45.16852" lon="5.65993">
        <ele>816.6</ele>
        <time>2021-08-30T10:37:22Z</time>
      </trkpt>
      <trkpt lat="45.16842" lon="5.65991">
        <ele>817.1</ele>
        <time>2021-08-30T10:37:26Z</time>
      </trkpt>
      <trkpt lat="45.1684" lon="5.6599">
        <ele>817.3</ele>
        <time>2021-08-30T10:37:27Z</time>
      </trkpt>
      <trkpt lat="45.16837" lon="5.65987">
        <ele>817.4</ele>
        <time>2021-08-30T10:37:29Z</time>
      </trkpt>
      <trkpt lat="45.16836" lon="5.65986">
        <ele>817.5</ele>
        <time>2021-08-30T10:37:30Z</time>
      </trkpt>
      <trkpt lat="45.16835" lon="5.65985">
        <ele>817.6</ele>
        <time>2021-08-30T10:37:31Z</time>
      </trkpt>
      <trkpt lat="45.16833" lon="5.65983">
        <ele>817.7</ele>
        <time>2021-08-30T10:37:32Z</time>
      </trkpt>
      <trkpt lat="45.16832" lon="5.6598">
        <ele>817.8</ele>
        <time>2021-08-30T10:37:34Z</time>
      </trkpt>
      <trkpt lat="45.1683" lon="5.65977">
        <ele>818</ele>
        <time>2021-08-30T10:37:35Z</time>
      </trkpt>
      <trkpt lat="45.1683" lon="5.65976">
        <ele>818</ele>
        <time>2021-08-30T10:37:36Z</time>
      </trkpt>
      <trkpt lat="45.16829" lon="5.65973">
        <ele>818.1</ele>
        <time>2021-08-30T10:37:37Z</time>
      </trkpt>
      <trkpt lat="45.16828" lon="5.65971">
        <ele>818.2</ele>
        <time>2021-08-30T10:37:39Z</time>
      </trkpt>
      <trkpt lat="45.16831" lon="5.65967">
        <ele>818.4</ele>
        <time>2021-08-30T10:37:41Z</time>
      </trkpt>
      <trkpt lat="45.16831" lon="5.65965">
        <ele>818.5</ele>
        <time>2021-08-30T10:37:42Z</time>
      </trkpt>
      <trkpt lat="45.16831" lon="5.65965">
        <ele>818.5</ele>
        <time>2021-08-30T10:37:44Z</time>
      </trkpt>
      <trkpt lat="45.16831" lon="5.65964">
        <ele>818.5</ele>
        <time>2021-08-30T10:37:45Z</time>
      </trkpt>
      <trkpt lat="45.16831" lon="5.65964">
        <ele>818.5</ele>
        <time>2021-08-30T10:37:47Z</time>
      </trkpt>
      <trkpt lat="45.16831" lon="5.65964">
        <ele>818.5</ele>
        <time>2021-08-30T10:37:48Z</time>
      </trkpt>
      <trkpt lat="45.16831" lon="5.65964">
        <ele>818.5</ele>
        <time>2021-08-30T10:37:50Z</time>
      </trkpt>
      <trkpt lat="45.16831" lon="5.65963">
        <ele>818.6</ele>
        <time>2021-08-30T10:37:51Z</time>
      </trkpt>
      <trkpt lat="45.16834" lon="5.65953">
        <ele>819</ele>
        <time>2021-08-30T10:37:53Z</time>
      </trkpt>
      <trkpt lat="45.16835" lon="5.6595">
        <ele>819.1</ele>
        <time>2021-08-30T10:37:55Z</time>
      </trkpt>
      <trkpt lat="45.16836" lon="5.65949">
        <ele>819.1</ele>
        <time>2021-08-30T10:37:56Z</time>
      </trkpt>
      <trkpt lat="45.16836" lon="5.65947">
        <ele>819.2</ele>
        <time>2021-08-30T10:37:58Z</time>
      </trkpt>
      <trkpt lat="45.16835" lon="5.65945">
        <ele>819.3</ele>
        <time>2021-08-30T10:37:59Z</time>
      </trkpt>
      <trkpt lat="45.16834" lon="5.65943">
        <ele>819.4</ele>
        <time>2021-08-30T10:38:01Z</time>
      </trkpt>
      <trkpt lat="45.16833" lon="5.65942">
        <ele>819.5</ele>
        <time>2021-08-30T10:38:02Z</time>
      </trkpt>
      <trkpt lat="45.16832" lon="5.65941">
        <ele>819.6</ele>
        <time>2021-08-30T10:38:03Z</time>
      </trkpt>
      <trkpt lat="45.16831" lon="5.6594">
        <ele>819.6</ele>
        <time>2021-08-30T10:38:04Z</time>
      </trkpt>
      <trkpt lat="45.16823" lon="5.65936">
        <ele>820.1</ele>
        <time>2021-08-30T10:38:05Z</time>
      </trkpt>
      <trkpt lat="45.16808" lon="5.65928">
        <ele>820.9</ele>
        <time>2021-08-30T10:38:07Z</time>
      </trkpt>
      <trkpt lat="45.16805" lon="5.65926">
        <ele>821.1</ele>
        <time>2021-08-30T10:38:08Z</time>
      </trkpt>
      <trkpt lat="45.16802" lon="5.65924">
        <ele>821.2</ele>
        <time>2021-08-30T10:38:09Z</time>
      </trkpt>
      <trkpt lat="45.16799" lon="5.65922">
        <ele>821.3</ele>
        <time>2021-08-30T10:38:11Z</time>
      </trkpt>
      <trkpt lat="45.16794" lon="5.65921">
        <ele>821.6</ele>
        <time>2021-08-30T10:38:12Z</time>
      </trkpt>
      <trkpt lat="45.16789" lon="5.65921">
        <ele>821.8</ele>
        <time>2021-08-30T10:38:13Z</time>
      </trkpt>
      <trkpt lat="45.16784" lon="5.6592">
        <ele>822.1</ele>
        <time>2021-08-30T10:38:14Z</time>
      </trkpt>
      <trkpt lat="45.16781" lon="5.6592">
        <ele>822.3</ele>
        <time>2021-08-30T10:38:15Z</time>
      </trkpt>
      <trkpt lat="45.1678" lon="5.65919">
        <ele>822.3</ele>
        <time>2021-08-30T10:38:16Z</time>
      </trkpt>
      <trkpt lat="45.16781" lon="5.65916">
        <ele>822.4</ele>
        <time>2021-08-30T10:38:18Z</time>
      </trkpt>
      <trkpt lat="45.16782" lon="5.65915">
        <ele>822.5</ele>
        <time>2021-08-30T10:38:19Z</time>
      </trkpt>
      <trkpt lat="45.16784" lon="5.65911">
        <ele>822.6</ele>
        <time>2021-08-30T10:38:21Z</time>
      </trkpt>
      <trkpt lat="45.16784" lon="5.6591">
        <ele>822.7</ele>
        <time>2021-08-30T10:38:22Z</time>
      </trkpt>
      <trkpt lat="45.16786" lon="5.65904">
        <ele>822.9</ele>
        <time>2021-08-30T10:38:24Z</time>
      </trkpt>
      <trkpt lat="45.16788" lon="5.65901">
        <ele>823.1</ele>
        <time>2021-08-30T10:38:25Z</time>
      </trkpt>
      <trkpt lat="45.16788" lon="5.65899">
        <ele>823.1</ele>
        <time>2021-08-30T10:38:26Z</time>
      </trkpt>
      <trkpt lat="45.16789" lon="5.65898">
        <ele>823.2</ele>
        <time>2021-08-30T10:38:28Z</time>
      </trkpt>
      <trkpt lat="45.1679" lon="5.65897">
        <ele>823.2</ele>
        <time>2021-08-30T10:38:29Z</time>
      </trkpt>
      <trkpt lat="45.1679" lon="5.65896">
        <ele>823.3</ele>
        <time>2021-08-30T10:38:30Z</time>
      </trkpt>
      <trkpt lat="45.16791" lon="5.65893">
        <ele>823.4</ele>
        <time>2021-08-30T10:38:31Z</time>
      </trkpt>
      <trkpt lat="45.16792" lon="5.65892">
        <ele>823.5</ele>
        <time>2021-08-30T10:38:33Z</time>
      </trkpt>
      <trkpt lat="45.16793" lon="5.6589">
        <ele>823.6</ele>
        <time>2021-08-30T10:38:34Z</time>
      </trkpt>
      <trkpt lat="45.16787" lon="5.65873">
        <ele>824.3</ele>
        <time>2021-08-30T10:38:48Z</time>
      </trkpt>
      <trkpt lat="45.16786" lon="5.65869">
        <ele>824.4</ele>
        <time>2021-08-30T10:38:49Z</time>
      </trkpt>
      <trkpt lat="45.16786" lon="5.65867">
        <ele>824.5</ele>
        <time>2021-08-30T10:38:50Z</time>
      </trkpt>
      <trkpt lat="45.16785" lon="5.65864">
        <ele>824.6</ele>
        <time>2021-08-30T10:38:51Z</time>
      </trkpt>
      <trkpt lat="45.16784" lon="5.65862">
        <ele>824.7</ele>
        <time>2021-08-30T10:38:52Z</time>
      </trkpt>
      <trkpt lat="45.16782" lon="5.6586">
        <ele>824.8</ele>
        <time>2021-08-30T10:38:54Z</time>
      </trkpt>
      <trkpt lat="45.16781" lon="5.65857">
        <ele>824.9</ele>
        <time>2021-08-30T10:38:55Z</time>
      </trkpt>
      <trkpt lat="45.1678" lon="5.65856">
        <ele>825</ele>
        <time>2021-08-30T10:38:56Z</time>
      </trkpt>
      <trkpt lat="45.16779" lon="5.65854">
        <ele>825</ele>
        <time>2021-08-30T10:38:57Z</time>
      </trkpt>
      <trkpt lat="45.16777" lon="5.6585">
        <ele>825.2</ele>
        <time>2021-08-30T10:38:59Z</time>
      </trkpt>
      <trkpt lat="45.16776" lon="5.65849">
        <ele>825.3</ele>
        <time>2021-08-30T10:39:00Z</time>
      </trkpt>
      <trkpt lat="45.16775" lon="5.65846">
        <ele>825.4</ele>
        <time>2021-08-30T10:39:01Z</time>
      </trkpt>
      <trkpt lat="45.16767" lon="5.65829">
        <ele>826.1</ele>
        <time>2021-08-30T10:39:08Z</time>
      </trkpt>
      <trkpt lat="45.16765" lon="5.65824">
        <ele>826.3</ele>
        <time>2021-08-30T10:39:10Z</time>
      </trkpt>
      <trkpt lat="45.16763" lon="5.65819">
        <ele>826.5</ele>
        <time>2021-08-30T10:39:11Z</time>
      </trkpt>
      <trkpt lat="45.16762" lon="5.65818">
        <ele>826.6</ele>
        <time>2021-08-30T10:39:12Z</time>
      </trkpt>
      <trkpt lat="45.1676" lon="5.65813">
        <ele>826.8</ele>
        <time>2021-08-30T10:39:14Z</time>
      </trkpt>
      <trkpt lat="45.16757" lon="5.6581">
        <ele>826.9</ele>
        <time>2021-08-30T10:39:15Z</time>
      </trkpt>
      <trkpt lat="45.16755" lon="5.65807">
        <ele>827.1</ele>
        <time>2021-08-30T10:39:17Z</time>
      </trkpt>
      <trkpt lat="45.16753" lon="5.65803">
        <ele>827.3</ele>
        <time>2021-08-30T10:39:18Z</time>
      </trkpt>
      <trkpt lat="45.16752" lon="5.65802">
        <ele>827.3</ele>
        <time>2021-08-30T10:39:19Z</time>
      </trkpt>
      <trkpt lat="45.16751" lon="5.658">
        <ele>827.4</ele>
        <time>2021-08-30T10:39:20Z</time>
      </trkpt>
      <trkpt lat="45.16749" lon="5.65794">
        <ele>827.6</ele>
        <time>2021-08-30T10:39:22Z</time>
      </trkpt>
      <trkpt lat="45.16747" lon="5.65788">
        <ele>827.8</ele>
        <time>2021-08-30T10:39:24Z</time>
      </trkpt>
      <trkpt lat="45.16747" lon="5.65786">
        <ele>827.9</ele>
        <time>2021-08-30T10:39:25Z</time>
      </trkpt>
      <trkpt lat="45.16746" lon="5.65781">
        <ele>828.1</ele>
        <time>2021-08-30T10:39:27Z</time>
      </trkpt>
      <trkpt lat="45.16745" lon="5.65777">
        <ele>828.2</ele>
        <time>2021-08-30T10:39:28Z</time>
      </trkpt>
      <trkpt lat="45.16744" lon="5.65776">
        <ele>828.3</ele>
        <time>2021-08-30T10:39:30Z</time>
      </trkpt>
      <trkpt lat="45.16742" lon="5.65775">
        <ele>828.3</ele>
        <time>2021-08-30T10:39:31Z</time>
      </trkpt>
      <trkpt lat="45.16741" lon="5.65774">
        <ele>828.4</ele>
        <time>2021-08-30T10:39:32Z</time>
      </trkpt>
      <trkpt lat="45.1674" lon="5.65773">
        <ele>828.5</ele>
        <time>2021-08-30T10:39:33Z</time>
      </trkpt>
      <trkpt lat="45.1674" lon="5.65771">
        <ele>828.5</ele>
        <time>2021-08-30T10:39:35Z</time>
      </trkpt>
      <trkpt lat="45.16739" lon="5.6577">
        <ele>828.6</ele>
        <time>2021-08-30T10:39:36Z</time>
      </trkpt>
      <trkpt lat="45.16739" lon="5.65771">
        <ele>828.6</ele>
        <time>2021-08-30T10:39:37Z</time>
      </trkpt>
      <trkpt lat="45.16738" lon="5.6577">
        <ele>828.7</ele>
        <time>2021-08-30T10:39:38Z</time>
      </trkpt>
      <trkpt lat="45.16736" lon="5.65766">
        <ele>828.8</ele>
        <time>2021-08-30T10:39:40Z</time>
      </trkpt>
      <trkpt lat="45.16732" lon="5.65765">
        <ele>829</ele>
        <time>2021-08-30T10:39:41Z</time>
      </trkpt>
      <trkpt lat="45.16726" lon="5.65763">
        <ele>829.3</ele>
        <time>2021-08-30T10:39:43Z</time>
      </trkpt>
      <trkpt lat="45.16723" lon="5.65762">
        <ele>829.4</ele>
        <time>2021-08-30T10:39:44Z</time>
      </trkpt>
      <trkpt lat="45.16718" lon="5.6576">
        <ele>829.6</ele>
        <time>2021-08-30T10:39:46Z</time>
      </trkpt>
      <trkpt lat="45.16717" lon="5.65759">
        <ele>829.7</ele>
        <time>2021-08-30T10:39:47Z</time>
      </trkpt>
      <trkpt lat="45.16716" lon="5.65758">
        <ele>829.8</ele>
        <time>2021-08-30T10:39:48Z</time>
      </trkpt>
      <trkpt lat="45.16715" lon="5.65758">
        <ele>829.8</ele>
        <time>2021-08-30T10:39:50Z</time>
      </trkpt>
      <trkpt lat="45.16714" lon="5.65757">
        <ele>829.9</ele>
        <time>2021-08-30T10:39:51Z</time>
      </trkpt>
      <trkpt lat="45.16713" lon="5.65756">
        <ele>830</ele>
        <time>2021-08-30T10:39:53Z</time>
      </trkpt>
      <trkpt lat="45.16713" lon="5.65756">
        <ele>830</ele>
        <time>2021-08-30T10:39:54Z</time>
      </trkpt>
      <trkpt lat="45.16711" lon="5.65752">
        <ele>830.1</ele>
        <time>2021-08-30T10:39:56Z</time>
      </trkpt>
      <trkpt lat="45.16711" lon="5.65749">
        <ele>830.3</ele>
        <time>2021-08-30T10:39:57Z</time>
      </trkpt>
      <trkpt lat="45.16712" lon="5.65745">
        <ele>830.4</ele>
        <time>2021-08-30T10:39:59Z</time>
      </trkpt>
      <trkpt lat="45.1671" lon="5.6574">
        <ele>830.6</ele>
        <time>2021-08-30T10:40:01Z</time>
      </trkpt>
      <trkpt lat="45.16707" lon="5.65739">
        <ele>830.7</ele>
        <time>2021-08-30T10:40:02Z</time>
      </trkpt>
      <trkpt lat="45.16705" lon="5.65738">
        <ele>830.9</ele>
        <time>2021-08-30T10:40:04Z</time>
      </trkpt>
      <trkpt lat="45.16702" lon="5.65737">
        <ele>831</ele>
        <time>2021-08-30T10:40:05Z</time>
      </trkpt>
      <trkpt lat="45.167" lon="5.65736">
        <ele>831.1</ele>
        <time>2021-08-30T10:40:06Z</time>
      </trkpt>
      <trkpt lat="45.16689" lon="5.65735">
        <ele>831.6</ele>
        <time>2021-08-30T10:40:08Z</time>
      </trkpt>
      <trkpt lat="45.16681" lon="5.65736">
        <ele>832</ele>
        <time>2021-08-30T10:40:09Z</time>
      </trkpt>
      <trkpt lat="45.16674" lon="5.65736">
        <ele>832.3</ele>
        <time>2021-08-30T10:40:10Z</time>
      </trkpt>
      <trkpt lat="45.16665" lon="5.65737">
        <ele>832.6</ele>
        <time>2021-08-30T10:40:12Z</time>
      </trkpt>
      <trkpt lat="45.16658" lon="5.65736">
        <ele>832.9</ele>
        <time>2021-08-30T10:40:13Z</time>
      </trkpt>
      <trkpt lat="45.16658" lon="5.65735">
        <ele>832.9</ele>
        <time>2021-08-30T10:40:14Z</time>
      </trkpt>
      <trkpt lat="45.16658" lon="5.65733">
        <ele>833</ele>
        <time>2021-08-30T10:40:16Z</time>
      </trkpt>
      <trkpt lat="45.16656" lon="5.65729">
        <ele>833.2</ele>
        <time>2021-08-30T10:40:18Z</time>
      </trkpt>
      <trkpt lat="45.16657" lon="5.65725">
        <ele>833.3</ele>
        <time>2021-08-30T10:40:20Z</time>
      </trkpt>
      <trkpt lat="45.16659" lon="5.65722">
        <ele>833.5</ele>
        <time>2021-08-30T10:40:21Z</time>
      </trkpt>
      <trkpt lat="45.16662" lon="5.65715">
        <ele>833.7</ele>
        <time>2021-08-30T10:40:23Z</time>
      </trkpt>
      <trkpt lat="45.16664" lon="5.65709">
        <ele>833.9</ele>
        <time>2021-08-30T10:40:25Z</time>
      </trkpt>
      <trkpt lat="45.16667" lon="5.65704">
        <ele>834.1</ele>
        <time>2021-08-30T10:40:26Z</time>
      </trkpt>
      <trkpt lat="45.16667" lon="5.657">
        <ele>834.2</ele>
        <time>2021-08-30T10:40:27Z</time>
      </trkpt>
      <trkpt lat="45.16668" lon="5.65694">
        <ele>834.4</ele>
        <time>2021-08-30T10:40:29Z</time>
      </trkpt>
      <trkpt lat="45.16668" lon="5.65691">
        <ele>834.5</ele>
        <time>2021-08-30T10:40:30Z</time>
      </trkpt>
      <trkpt lat="45.16669" lon="5.65687">
        <ele>834.7</ele>
        <time>2021-08-30T10:40:32Z</time>
      </trkpt>
      <trkpt lat="45.16669" lon="5.65683">
        <ele>834.8</ele>
        <time>2021-08-30T10:40:33Z</time>
      </trkpt>
      <trkpt lat="45.1667" lon="5.6568">
        <ele>834.9</ele>
        <time>2021-08-30T10:40:34Z</time>
      </trkpt>
      <trkpt lat="45.16671" lon="5.65676">
        <ele>835.1</ele>
        <time>2021-08-30T10:40:36Z</time>
      </trkpt>
      <trkpt lat="45.16665" lon="5.65672">
        <ele>835.4</ele>
        <time>2021-08-30T10:40:37Z</time>
      </trkpt>
      <trkpt lat="45.16658" lon="5.6567">
        <ele>835.7</ele>
        <time>2021-08-30T10:40:38Z</time>
      </trkpt>
      <trkpt lat="45.16651" lon="5.65668">
        <ele>836.1</ele>
        <time>2021-08-30T10:40:40Z</time>
      </trkpt>
      <trkpt lat="45.16644" lon="5.65666">
        <ele>836.4</ele>
        <time>2021-08-30T10:40:41Z</time>
      </trkpt>
      <trkpt lat="45.16637" lon="5.65664">
        <ele>836.8</ele>
        <time>2021-08-30T10:40:42Z</time>
      </trkpt>
      <trkpt lat="45.1663" lon="5.65661">
        <ele>837.2</ele>
        <time>2021-08-30T10:40:44Z</time>
      </trkpt>
      <trkpt lat="45.16623" lon="5.65659">
        <ele>837.6</ele>
        <time>2021-08-30T10:41:15Z</time>
      </trkpt>
      <trkpt lat="45.16616" lon="5.65657">
        <ele>838</ele>
        <time>2021-08-30T10:41:16Z</time>
      </trkpt>
      <trkpt lat="45.16613" lon="5.65657">
        <ele>838.2</ele>
        <time>2021-08-30T10:41:17Z</time>
      </trkpt>
      <trkpt lat="45.16604" lon="5.65657">
        <ele>838.7</ele>
        <time>2021-08-30T10:41:18Z</time>
      </trkpt>
      <trkpt lat="45.166" lon="5.65658">
        <ele>838.9</ele>
        <time>2021-08-30T10:41:19Z</time>
      </trkpt>
      <trkpt lat="45.16598" lon="5.65661">
        <ele>839.1</ele>
        <time>2021-08-30T10:41:20Z</time>
      </trkpt>
      <trkpt lat="45.16597" lon="5.65663">
        <ele>839.2</ele>
        <time>2021-08-30T10:41:22Z</time>
      </trkpt>
      <trkpt lat="45.16596" lon="5.65664">
        <ele>839.3</ele>
        <time>2021-08-30T10:41:23Z</time>
      </trkpt>
      <trkpt lat="45.16593" lon="5.65666">
        <ele>839.4</ele>
        <time>2021-08-30T10:41:24Z</time>
      </trkpt>
      <trkpt lat="45.16592" lon="5.65667">
        <ele>839.5</ele>
        <time>2021-08-30T10:41:26Z</time>
      </trkpt>
      <trkpt lat="45.16591" lon="5.65668">
        <ele>839.6</ele>
        <time>2021-08-30T10:41:28Z</time>
      </trkpt>
      <trkpt lat="45.1659" lon="5.6567">
        <ele>839.7</ele>
        <time>2021-08-30T10:41:29Z</time>
      </trkpt>
      <trkpt lat="45.16587" lon="5.65671">
        <ele>839.8</ele>
        <time>2021-08-30T10:41:30Z</time>
      </trkpt>
      <trkpt lat="45.16586" lon="5.65671">
        <ele>839.9</ele>
        <time>2021-08-30T10:41:31Z</time>
      </trkpt>
      <trkpt lat="45.16583" lon="5.65671">
        <ele>840.1</ele>
        <time>2021-08-30T10:41:33Z</time>
      </trkpt>
      <trkpt lat="45.16582" lon="5.65671">
        <ele>840.1</ele>
        <time>2021-08-30T10:41:34Z</time>
      </trkpt>
      <trkpt lat="45.16577" lon="5.65672">
        <ele>840.2</ele>
        <time>2021-08-30T10:41:36Z</time>
      </trkpt>
      <trkpt lat="45.16577" lon="5.65672">
        <ele>840.2</ele>
        <time>2021-08-30T10:41:37Z</time>
      </trkpt>
      <trkpt lat="45.16576" lon="5.65672">
        <ele>840.2</ele>
        <time>2021-08-30T10:41:38Z</time>
      </trkpt>
      <trkpt lat="45.16571" lon="5.65671">
        <ele>840.2</ele>
        <time>2021-08-30T10:41:40Z</time>
      </trkpt>
      <trkpt lat="45.16567" lon="5.6567">
        <ele>840.5</ele>
        <time>2021-08-30T10:41:42Z</time>
      </trkpt>
      <trkpt lat="45.16566" lon="5.6567">
        <ele>840.5</ele>
        <time>2021-08-30T10:41:43Z</time>
      </trkpt>
      <trkpt lat="45.16564" lon="5.6567">
        <ele>840.7</ele>
        <time>2021-08-30T10:41:45Z</time>
      </trkpt>
      <trkpt lat="45.16563" lon="5.6567">
        <ele>840.7</ele>
        <time>2021-08-30T10:41:46Z</time>
      </trkpt>
      <trkpt lat="45.16562" lon="5.6567">
        <ele>840.8</ele>
        <time>2021-08-30T10:41:47Z</time>
      </trkpt>
      <trkpt lat="45.1656" lon="5.6567">
        <ele>840.9</ele>
        <time>2021-08-30T10:41:49Z</time>
      </trkpt>
      <trkpt lat="45.1656" lon="5.6567">
        <ele>840.9</ele>
        <time>2021-08-30T10:41:50Z</time>
      </trkpt>
      <trkpt lat="45.1656" lon="5.65669">
        <ele>841</ele>
        <time>2021-08-30T10:41:52Z</time>
      </trkpt>
      <trkpt lat="45.16559" lon="5.65669">
        <ele>841</ele>
        <time>2021-08-30T10:41:53Z</time>
      </trkpt>
      <trkpt lat="45.16559" lon="5.65669">
        <ele>841</ele>
        <time>2021-08-30T10:41:54Z</time>
      </trkpt>
      <trkpt lat="45.16559" lon="5.65669">
        <ele>841</ele>
        <time>2021-08-30T10:41:55Z</time>
      </trkpt>
      <trkpt lat="45.16559" lon="5.65669">
        <ele>841</ele>
        <time>2021-08-30T10:41:56Z</time>
      </trkpt>
      <trkpt lat="45.16558" lon="5.6567">
        <ele>841.1</ele>
        <time>2021-08-30T10:41:57Z</time>
      </trkpt>
      <trkpt lat="45.16556" lon="5.65671">
        <ele>841.2</ele>
        <time>2021-08-30T10:41:59Z</time>
      </trkpt>
      <trkpt lat="45.16554" lon="5.65675">
        <ele>841.4</ele>
        <time>2021-08-30T10:42:00Z</time>
      </trkpt>
      <trkpt lat="45.16552" lon="5.65677">
        <ele>841.6</ele>
        <time>2021-08-30T10:42:01Z</time>
      </trkpt>
      <trkpt lat="45.16551" lon="5.6568">
        <ele>841.8</ele>
        <time>2021-08-30T10:42:03Z</time>
      </trkpt>
      <trkpt lat="45.16544" lon="5.65684">
        <ele>842.3</ele>
        <time>2021-08-30T10:42:04Z</time>
      </trkpt>
      <trkpt lat="45.16536" lon="5.65688">
        <ele>842.9</ele>
        <time>2021-08-30T10:42:05Z</time>
      </trkpt>
      <trkpt lat="45.16525" lon="5.65687">
        <ele>843.6</ele>
        <time>2021-08-30T10:42:07Z</time>
      </trkpt>
      <trkpt lat="45.16519" lon="5.65686">
        <ele>844</ele>
        <time>2021-08-30T10:42:08Z</time>
      </trkpt>
      <trkpt lat="45.16511" lon="5.65686">
        <ele>844.6</ele>
        <time>2021-08-30T10:42:10Z</time>
      </trkpt>
      <trkpt lat="45.16506" lon="5.65688">
        <ele>844.9</ele>
        <time>2021-08-30T10:42:11Z</time>
      </trkpt>
      <trkpt lat="45.16503" lon="5.65688">
        <ele>845.1</ele>
        <time>2021-08-30T10:42:12Z</time>
      </trkpt>
      <trkpt lat="45.16496" lon="5.6569">
        <ele>845.6</ele>
        <time>2021-08-30T10:42:15Z</time>
      </trkpt>
      <trkpt lat="45.16495" lon="5.65694">
        <ele>845.8</ele>
        <time>2021-08-30T10:42:17Z</time>
      </trkpt>
      <trkpt lat="45.16495" lon="5.65697">
        <ele>845.9</ele>
        <time>2021-08-30T10:42:18Z</time>
      </trkpt>
      <trkpt lat="45.16495" lon="5.65701">
        <ele>846.1</ele>
        <time>2021-08-30T10:42:19Z</time>
      </trkpt>
      <trkpt lat="45.16494" lon="5.65702">
        <ele>846.2</ele>
        <time>2021-08-30T10:42:20Z</time>
      </trkpt>
      <trkpt lat="45.16493" lon="5.65704">
        <ele>846.3</ele>
        <time>2021-08-30T10:42:22Z</time>
      </trkpt>
      <trkpt lat="45.16492" lon="5.65704">
        <ele>846.3</ele>
        <time>2021-08-30T10:42:23Z</time>
      </trkpt>
      <trkpt lat="45.1649" lon="5.65705">
        <ele>846.4</ele>
        <time>2021-08-30T10:42:25Z</time>
      </trkpt>
      <trkpt lat="45.16458" lon="5.65693">
        <ele>848.6</ele>
        <time>2021-08-30T10:42:41Z</time>
      </trkpt>
      <trkpt lat="45.16454" lon="5.65692">
        <ele>848.8</ele>
        <time>2021-08-30T10:42:42Z</time>
      </trkpt>
      <trkpt lat="45.16451" lon="5.6569">
        <ele>849</ele>
        <time>2021-08-30T10:42:43Z</time>
      </trkpt>
      <trkpt lat="45.16449" lon="5.6569">
        <ele>849.2</ele>
        <time>2021-08-30T10:42:44Z</time>
      </trkpt>
      <trkpt lat="45.16448" lon="5.65692">
        <ele>849.3</ele>
        <time>2021-08-30T10:42:45Z</time>
      </trkpt>
      <trkpt lat="45.16448" lon="5.65699">
        <ele>849.6</ele>
        <time>2021-08-30T10:42:46Z</time>
      </trkpt>
      <trkpt lat="45.16446" lon="5.657">
        <ele>849.7</ele>
        <time>2021-08-30T10:42:47Z</time>
      </trkpt>
      <trkpt lat="45.16444" lon="5.657">
        <ele>849.8</ele>
        <time>2021-08-30T10:42:48Z</time>
      </trkpt>
      <trkpt lat="45.16441" lon="5.65702">
        <ele>850</ele>
        <time>2021-08-30T10:42:50Z</time>
      </trkpt>
      <trkpt lat="45.16437" lon="5.65704">
        <ele>850.3</ele>
        <time>2021-08-30T10:42:52Z</time>
      </trkpt>
      <trkpt lat="45.16434" lon="5.65706">
        <ele>850.5</ele>
        <time>2021-08-30T10:42:53Z</time>
      </trkpt>
      <trkpt lat="45.16433" lon="5.65707">
        <ele>850.6</ele>
        <time>2021-08-30T10:42:54Z</time>
      </trkpt>
      <trkpt lat="45.1643" lon="5.65711">
        <ele>850.9</ele>
        <time>2021-08-30T10:42:55Z</time>
      </trkpt>
      <trkpt lat="45.16427" lon="5.65714">
        <ele>851.1</ele>
        <time>2021-08-30T10:42:57Z</time>
      </trkpt>
      <trkpt lat="45.16426" lon="5.65719">
        <ele>851.3</ele>
        <time>2021-08-30T10:42:59Z</time>
      </trkpt>
      <trkpt lat="45.16426" lon="5.65719">
        <ele>851.4</ele>
        <time>2021-08-30T10:43:00Z</time>
      </trkpt>
      <trkpt lat="45.16426" lon="5.65719">
        <ele>851.4</ele>
        <time>2021-08-30T10:43:02Z</time>
      </trkpt>
      <trkpt lat="45.16426" lon="5.65719">
        <ele>851.4</ele>
        <time>2021-08-30T10:43:03Z</time>
      </trkpt>
      <trkpt lat="45.16426" lon="5.65719">
        <ele>851.4</ele>
        <time>2021-08-30T10:43:04Z</time>
      </trkpt>
      <trkpt lat="45.16426" lon="5.65719">
        <ele>851.4</ele>
        <time>2021-08-30T10:43:06Z</time>
      </trkpt>
      <trkpt lat="45.16426" lon="5.6572">
        <ele>851.4</ele>
        <time>2021-08-30T10:43:07Z</time>
      </trkpt>
      <trkpt lat="45.16338" lon="5.65716">
        <ele>857.4</ele>
        <time>2021-08-30T10:45:11Z</time>
      </trkpt>
      <trkpt lat="45.16334" lon="5.65717">
        <ele>857.6</ele>
        <time>2021-08-30T10:45:12Z</time>
      </trkpt>
      <trkpt lat="45.16333" lon="5.65717">
        <ele>857.7</ele>
        <time>2021-08-30T10:45:13Z</time>
      </trkpt>
      <trkpt lat="45.16332" lon="5.65718">
        <ele>857.8</ele>
        <time>2021-08-30T10:45:14Z</time>
      </trkpt>
      <trkpt lat="45.1633" lon="5.6572">
        <ele>858</ele>
        <time>2021-08-30T10:45:16Z</time>
      </trkpt>
      <trkpt lat="45.16329" lon="5.6572">
        <ele>858</ele>
        <time>2021-08-30T10:45:17Z</time>
      </trkpt>
      <trkpt lat="45.16326" lon="5.65721">
        <ele>858.2</ele>
        <time>2021-08-30T10:45:19Z</time>
      </trkpt>
      <trkpt lat="45.16323" lon="5.65722">
        <ele>858.5</ele>
        <time>2021-08-30T10:45:20Z</time>
      </trkpt>
      <trkpt lat="45.16322" lon="5.65723">
        <ele>858.5</ele>
        <time>2021-08-30T10:45:21Z</time>
      </trkpt>
      <trkpt lat="45.1632" lon="5.65724">
        <ele>858.7</ele>
        <time>2021-08-30T10:45:22Z</time>
      </trkpt>
      <trkpt lat="45.16317" lon="5.65727">
        <ele>858.9</ele>
        <time>2021-08-30T10:45:24Z</time>
      </trkpt>
      <trkpt lat="45.16315" lon="5.65729">
        <ele>859.1</ele>
        <time>2021-08-30T10:45:26Z</time>
      </trkpt>
      <trkpt lat="45.16314" lon="5.65729">
        <ele>859.2</ele>
        <time>2021-08-30T10:45:27Z</time>
      </trkpt>
      <trkpt lat="45.16312" lon="5.65729">
        <ele>859.3</ele>
        <time>2021-08-30T10:45:28Z</time>
      </trkpt>
      <trkpt lat="45.16311" lon="5.65728">
        <ele>859.4</ele>
        <time>2021-08-30T10:45:29Z</time>
      </trkpt>
      <trkpt lat="45.16311" lon="5.65728">
        <ele>859.4</ele>
        <time>2021-08-30T10:45:30Z</time>
      </trkpt>
      <trkpt lat="45.16311" lon="5.65727">
        <ele>859.4</ele>
        <time>2021-08-30T10:45:31Z</time>
      </trkpt>
      <trkpt lat="45.1631" lon="5.65727">
        <ele>859.5</ele>
        <time>2021-08-30T10:45:33Z</time>
      </trkpt>
      <trkpt lat="45.1631" lon="5.65726">
        <ele>859.5</ele>
        <time>2021-08-30T10:45:34Z</time>
      </trkpt>
      <trkpt lat="45.1631" lon="5.65726">
        <ele>859.5</ele>
        <time>2021-08-30T10:45:36Z</time>
      </trkpt>
      <trkpt lat="45.16309" lon="5.65725">
        <ele>859.6</ele>
        <time>2021-08-30T10:45:37Z</time>
      </trkpt>
      <trkpt lat="45.16309" lon="5.65725">
        <ele>859.6</ele>
        <time>2021-08-30T10:45:38Z</time>
      </trkpt>
      <trkpt lat="45.16309" lon="5.65724">
        <ele>859.6</ele>
        <time>2021-08-30T10:45:39Z</time>
      </trkpt>
      <trkpt lat="45.16309" lon="5.65724">
        <ele>859.6</ele>
        <time>2021-08-30T10:45:40Z</time>
      </trkpt>
      <trkpt lat="45.16308" lon="5.65723">
        <ele>859.7</ele>
        <time>2021-08-30T10:45:42Z</time>
      </trkpt>
      <trkpt lat="45.16308" lon="5.65723">
        <ele>859.7</ele>
        <time>2021-08-30T10:45:43Z</time>
      </trkpt>
      <trkpt lat="45.16308" lon="5.65722">
        <ele>859.7</ele>
        <time>2021-08-30T10:45:44Z</time>
      </trkpt>
      <trkpt lat="45.16306" lon="5.65721">
        <ele>859.8</ele>
        <time>2021-08-30T10:45:45Z</time>
      </trkpt>
      <trkpt lat="45.16304" lon="5.6572">
        <ele>860</ele>
        <time>2021-08-30T10:45:46Z</time>
      </trkpt>
      <trkpt lat="45.16259" lon="5.65678">
        <ele>863.4</ele>
        <time>2021-08-30T10:46:50Z</time>
      </trkpt>
      <trkpt lat="45.16258" lon="5.65675">
        <ele>863.6</ele>
        <time>2021-08-30T10:46:51Z</time>
      </trkpt>
      <trkpt lat="45.16257" lon="5.65674">
        <ele>863.7</ele>
        <time>2021-08-30T10:46:52Z</time>
      </trkpt>
      <trkpt lat="45.16256" lon="5.65673">
        <ele>863.8</ele>
        <time>2021-08-30T10:46:53Z</time>
      </trkpt>
      <trkpt lat="45.16255" lon="5.65673">
        <ele>863.8</ele>
        <time>2021-08-30T10:46:54Z</time>
      </trkpt>
      <trkpt lat="45.16254" lon="5.65672">
        <ele>863.9</ele>
        <time>2021-08-30T10:46:56Z</time>
      </trkpt>
      <trkpt lat="45.16252" lon="5.65669">
        <ele>864.1</ele>
        <time>2021-08-30T10:46:57Z</time>
      </trkpt>
      <trkpt lat="45.16252" lon="5.65668">
        <ele>864.2</ele>
        <time>2021-08-30T10:46:59Z</time>
      </trkpt>
      <trkpt lat="45.16251" lon="5.65666">
        <ele>864.3</ele>
        <time>2021-08-30T10:47:00Z</time>
      </trkpt>
      <trkpt lat="45.1625" lon="5.65663">
        <ele>864.4</ele>
        <time>2021-08-30T10:47:01Z</time>
      </trkpt>
      <trkpt lat="45.16249" lon="5.65661">
        <ele>864.6</ele>
        <time>2021-08-30T10:47:03Z</time>
      </trkpt>
      <trkpt lat="45.16247" lon="5.6566">
        <ele>864.7</ele>
        <time>2021-08-30T10:47:04Z</time>
      </trkpt>
      <trkpt lat="45.16246" lon="5.65659">
        <ele>864.8</ele>
        <time>2021-08-30T10:47:05Z</time>
      </trkpt>
      <trkpt lat="45.16244" lon="5.65658">
        <ele>864.9</ele>
        <time>2021-08-30T10:47:06Z</time>
      </trkpt>
      <trkpt lat="45.16242" lon="5.65658">
        <ele>865</ele>
        <time>2021-08-30T10:47:08Z</time>
      </trkpt>
      <trkpt lat="45.1624" lon="5.65658">
        <ele>865.2</ele>
        <time>2021-08-30T10:47:10Z</time>
      </trkpt>
      <trkpt lat="45.16239" lon="5.65658">
        <ele>865.2</ele>
        <time>2021-08-30T10:47:11Z</time>
      </trkpt>
      <trkpt lat="45.16238" lon="5.65657">
        <ele>865.4</ele>
        <time>2021-08-30T10:47:13Z</time>
      </trkpt>
      <trkpt lat="45.16236" lon="5.65656">
        <ele>865.5</ele>
        <time>2021-08-30T10:47:14Z</time>
      </trkpt>
      <trkpt lat="45.16229" lon="5.65651">
        <ele>866</ele>
        <time>2021-08-30T10:47:16Z</time>
      </trkpt>
      <trkpt lat="45.16224" lon="5.65647">
        <ele>866.4</ele>
        <time>2021-08-30T10:47:18Z</time>
      </trkpt>
      <trkpt lat="45.16219" lon="5.65643">
        <ele>866.8</ele>
        <time>2021-08-30T10:47:19Z</time>
      </trkpt>
      <trkpt lat="45.16215" lon="5.65639">
        <ele>867.1</ele>
        <time>2021-08-30T10:47:21Z</time>
      </trkpt>
      <trkpt lat="45.16213" lon="5.65637">
        <ele>867.2</ele>
        <time>2021-08-30T10:47:22Z</time>
      </trkpt>
      <trkpt lat="45.16212" lon="5.65637">
        <ele>867.3</ele>
        <time>2021-08-30T10:47:23Z</time>
      </trkpt>
      <trkpt lat="45.16211" lon="5.65636">
        <ele>867.4</ele>
        <time>2021-08-30T10:47:25Z</time>
      </trkpt>
      <trkpt lat="45.1621" lon="5.65636">
        <ele>867.5</ele>
        <time>2021-08-30T10:47:26Z</time>
      </trkpt>
      <trkpt lat="45.16209" lon="5.65635">
        <ele>867.5</ele>
        <time>2021-08-30T10:47:27Z</time>
      </trkpt>
      <trkpt lat="45.16208" lon="5.65633">
        <ele>867.7</ele>
        <time>2021-08-30T10:47:29Z</time>
      </trkpt>
      <trkpt lat="45.16207" lon="5.65632">
        <ele>867.7</ele>
        <time>2021-08-30T10:47:30Z</time>
      </trkpt>
      <trkpt lat="45.16206" lon="5.65631">
        <ele>867.8</ele>
        <time>2021-08-30T10:47:31Z</time>
      </trkpt>
      <trkpt lat="45.16206" lon="5.6563">
        <ele>867.8</ele>
        <time>2021-08-30T10:47:32Z</time>
      </trkpt>
      <trkpt lat="45.16205" lon="5.65629">
        <ele>867.9</ele>
        <time>2021-08-30T10:47:33Z</time>
      </trkpt>
      <trkpt lat="45.16205" lon="5.65628">
        <ele>867.9</ele>
        <time>2021-08-30T10:47:34Z</time>
      </trkpt>
      <trkpt lat="45.16203" lon="5.65627">
        <ele>868.1</ele>
        <time>2021-08-30T10:47:36Z</time>
      </trkpt>
      <trkpt lat="45.16202" lon="5.65626">
        <ele>868.2</ele>
        <time>2021-08-30T10:47:37Z</time>
      </trkpt>
      <trkpt lat="45.162" lon="5.65626">
        <ele>868.2</ele>
        <time>2021-08-30T10:47:38Z</time>
      </trkpt>
      <trkpt lat="45.16199" lon="5.65626">
        <ele>868.3</ele>
        <time>2021-08-30T10:47:40Z</time>
      </trkpt>
      <trkpt lat="45.16197" lon="5.65626">
        <ele>868.5</ele>
        <time>2021-08-30T10:47:41Z</time>
      </trkpt>
      <trkpt lat="45.16195" lon="5.65627">
        <ele>868.7</ele>
        <time>2021-08-30T10:47:42Z</time>
      </trkpt>
      <trkpt lat="45.16194" lon="5.65628">
        <ele>868.8</ele>
        <time>2021-08-30T10:47:43Z</time>
      </trkpt>
      <trkpt lat="45.16191" lon="5.65629">
        <ele>869</ele>
        <time>2021-08-30T10:47:44Z</time>
      </trkpt>
      <trkpt lat="45.16188" lon="5.65631">
        <ele>869.2</ele>
        <time>2021-08-30T10:47:46Z</time>
      </trkpt>
      <trkpt lat="45.16185" lon="5.65633">
        <ele>869.4</ele>
        <time>2021-08-30T10:47:47Z</time>
      </trkpt>
      <trkpt lat="45.16182" lon="5.65635">
        <ele>869.7</ele>
        <time>2021-08-30T10:47:48Z</time>
      </trkpt>
      <trkpt lat="45.16181" lon="5.65635">
        <ele>869.8</ele>
        <time>2021-08-30T10:47:49Z</time>
      </trkpt>
      <trkpt lat="45.16178" lon="5.65636">
        <ele>869.9</ele>
        <time>2021-08-30T10:47:50Z</time>
      </trkpt>
      <trkpt lat="45.16178" lon="5.65637">
        <ele>870</ele>
        <time>2021-08-30T10:47:51Z</time>
      </trkpt>
      <trkpt lat="45.16176" lon="5.65637">
        <ele>870.1</ele>
        <time>2021-08-30T10:47:53Z</time>
      </trkpt>
      <trkpt lat="45.16175" lon="5.65637">
        <ele>870.2</ele>
        <time>2021-08-30T10:47:54Z</time>
      </trkpt>
      <trkpt lat="45.16172" lon="5.65635">
        <ele>870.4</ele>
        <time>2021-08-30T10:47:55Z</time>
      </trkpt>
      <trkpt lat="45.16169" lon="5.65633">
        <ele>870.6</ele>
        <time>2021-08-30T10:47:56Z</time>
      </trkpt>
      <trkpt lat="45.16167" lon="5.65631">
        <ele>870.8</ele>
        <time>2021-08-30T10:47:57Z</time>
      </trkpt>
      <trkpt lat="45.16161" lon="5.65629">
        <ele>871.2</ele>
        <time>2021-08-30T10:47:59Z</time>
      </trkpt>
      <trkpt lat="45.16157" lon="5.65629">
        <ele>871.5</ele>
        <time>2021-08-30T10:48:00Z</time>
      </trkpt>
      <trkpt lat="45.16153" lon="5.65628">
        <ele>871.8</ele>
        <time>2021-08-30T10:48:01Z</time>
      </trkpt>
      <trkpt lat="45.16148" lon="5.65628">
        <ele>872.1</ele>
        <time>2021-08-30T10:48:03Z</time>
      </trkpt>
      <trkpt lat="45.16141" lon="5.65631">
        <ele>872.6</ele>
        <time>2021-08-30T10:48:05Z</time>
      </trkpt>
      <trkpt lat="45.16139" lon="5.65632">
        <ele>872.8</ele>
        <time>2021-08-30T10:48:06Z</time>
      </trkpt>
      <trkpt lat="45.16136" lon="5.65633">
        <ele>873</ele>
        <time>2021-08-30T10:48:07Z</time>
      </trkpt>
      <trkpt lat="45.16134" lon="5.65633">
        <ele>873.1</ele>
        <time>2021-08-30T10:48:09Z</time>
      </trkpt>
      <trkpt lat="45.16134" lon="5.65632">
        <ele>873.2</ele>
        <time>2021-08-30T10:48:10Z</time>
      </trkpt>
      <trkpt lat="45.16134" lon="5.65632">
        <ele>873.2</ele>
        <time>2021-08-30T10:48:11Z</time>
      </trkpt>
      <trkpt lat="45.16134" lon="5.65632">
        <ele>873.2</ele>
        <time>2021-08-30T10:48:12Z</time>
      </trkpt>
      <trkpt lat="45.16134" lon="5.65632">
        <ele>873.2</ele>
        <time>2021-08-30T10:48:14Z</time>
      </trkpt>
      <trkpt lat="45.16133" lon="5.65631">
        <ele>873.2</ele>
        <time>2021-08-30T10:48:15Z</time>
      </trkpt>
      <trkpt lat="45.16133" lon="5.6563">
        <ele>873.3</ele>
        <time>2021-08-30T10:48:16Z</time>
      </trkpt>
      <trkpt lat="45.16133" lon="5.65629">
        <ele>873.3</ele>
        <time>2021-08-30T10:48:17Z</time>
      </trkpt>
      <trkpt lat="45.16132" lon="5.65627">
        <ele>873.5</ele>
        <time>2021-08-30T10:48:19Z</time>
      </trkpt>
      <trkpt lat="45.16121" lon="5.65609">
        <ele>874.6</ele>
        <time>2021-08-30T10:48:28Z</time>
      </trkpt>
      <trkpt lat="45.16118" lon="5.65607">
        <ele>874.8</ele>
        <time>2021-08-30T10:48:30Z</time>
      </trkpt>
      <trkpt lat="45.16114" lon="5.65602">
        <ele>875.2</ele>
        <time>2021-08-30T10:48:32Z</time>
      </trkpt>
      <trkpt lat="45.16111" lon="5.65599">
        <ele>875.4</ele>
        <time>2021-08-30T10:48:33Z</time>
      </trkpt>
      <trkpt lat="45.1611" lon="5.65598">
        <ele>875.5</ele>
        <time>2021-08-30T10:48:34Z</time>
      </trkpt>
      <trkpt lat="45.16109" lon="5.65597">
        <ele>875.6</ele>
        <time>2021-08-30T10:48:35Z</time>
      </trkpt>
      <trkpt lat="45.16108" lon="5.65595">
        <ele>875.8</ele>
        <time>2021-08-30T10:48:36Z</time>
      </trkpt>
      <trkpt lat="45.16107" lon="5.65591">
        <ele>876</ele>
        <time>2021-08-30T10:48:38Z</time>
      </trkpt>
      <trkpt lat="45.16105" lon="5.65588">
        <ele>876.2</ele>
        <time>2021-08-30T10:48:39Z</time>
      </trkpt>
      <trkpt lat="45.16105" lon="5.65583">
        <ele>876.5</ele>
        <time>2021-08-30T10:48:41Z</time>
      </trkpt>
      <trkpt lat="45.16105" lon="5.6558">
        <ele>876.7</ele>
        <time>2021-08-30T10:48:42Z</time>
      </trkpt>
      <trkpt lat="45.16106" lon="5.65574">
        <ele>877.1</ele>
        <time>2021-08-30T10:48:44Z</time>
      </trkpt>
      <trkpt lat="45.16107" lon="5.6557">
        <ele>877.3</ele>
        <time>2021-08-30T10:48:46Z</time>
      </trkpt>
      <trkpt lat="45.16107" lon="5.65568">
        <ele>877.4</ele>
        <time>2021-08-30T10:48:47Z</time>
      </trkpt>
      <trkpt lat="45.16107" lon="5.65567">
        <ele>877.5</ele>
        <time>2021-08-30T10:48:48Z</time>
      </trkpt>
      <trkpt lat="45.16106" lon="5.65566">
        <ele>877.6</ele>
        <time>2021-08-30T10:48:49Z</time>
      </trkpt>
      <trkpt lat="45.16105" lon="5.65565">
        <ele>877.7</ele>
        <time>2021-08-30T10:48:51Z</time>
      </trkpt>
      <trkpt lat="45.16104" lon="5.65564">
        <ele>877.7</ele>
        <time>2021-08-30T10:48:52Z</time>
      </trkpt>
      <trkpt lat="45.16152" lon="5.65489">
        <ele>883</ele>
        <time>2021-08-30T10:49:54Z</time>
      </trkpt>
      <trkpt lat="45.16155" lon="5.6549">
        <ele>883.2</ele>
        <time>2021-08-30T10:49:55Z</time>
      </trkpt>
      <trkpt lat="45.16158" lon="5.65491">
        <ele>883.4</ele>
        <time>2021-08-30T10:49:56Z</time>
      </trkpt>
      <trkpt lat="45.16164" lon="5.65492">
        <ele>883.8</ele>
        <time>2021-08-30T10:49:58Z</time>
      </trkpt>
      <trkpt lat="45.16168" lon="5.65493">
        <ele>884.1</ele>
        <time>2021-08-30T10:49:59Z</time>
      </trkpt>
      <trkpt lat="45.16171" lon="5.65493">
        <ele>884.2</ele>
        <time>2021-08-30T10:50:00Z</time>
      </trkpt>
      <trkpt lat="45.16174" lon="5.65495">
        <ele>884.4</ele>
        <time>2021-08-30T10:50:02Z</time>
      </trkpt>
      <trkpt lat="45.16175" lon="5.65495">
        <ele>884.4</ele>
        <time>2021-08-30T10:50:03Z</time>
      </trkpt>
      <trkpt lat="45.16176" lon="5.65495">
        <ele>884.5</ele>
        <time>2021-08-30T10:50:04Z</time>
      </trkpt>
      <trkpt lat="45.16177" lon="5.65495">
        <ele>884.5</ele>
        <time>2021-08-30T10:50:05Z</time>
      </trkpt>
      <trkpt lat="45.16178" lon="5.65496">
        <ele>884.5</ele>
        <time>2021-08-30T10:50:07Z</time>
      </trkpt>
      <trkpt lat="45.16178" lon="5.65497">
        <ele>884.6</ele>
        <time>2021-08-30T10:50:09Z</time>
      </trkpt>
      <trkpt lat="45.16178" lon="5.65498">
        <ele>884.6</ele>
        <time>2021-08-30T10:50:10Z</time>
      </trkpt>
      <trkpt lat="45.16178" lon="5.655">
        <ele>884.7</ele>
        <time>2021-08-30T10:50:11Z</time>
      </trkpt>
      <trkpt lat="45.16179" lon="5.65502">
        <ele>884.7</ele>
        <time>2021-08-30T10:50:13Z</time>
      </trkpt>
      <trkpt lat="45.16194" lon="5.65521">
        <ele>885.4</ele>
        <time>2021-08-30T10:50:19Z</time>
      </trkpt>
      <trkpt lat="45.16197" lon="5.6552">
        <ele>885.5</ele>
        <time>2021-08-30T10:50:21Z</time>
      </trkpt>
      <trkpt lat="45.16198" lon="5.6552">
        <ele>885.5</ele>
        <time>2021-08-30T10:50:22Z</time>
      </trkpt>
      <trkpt lat="45.16199" lon="5.65521">
        <ele>885.5</ele>
        <time>2021-08-30T10:50:24Z</time>
      </trkpt>
      <trkpt lat="45.16201" lon="5.65524">
        <ele>885.6</ele>
        <time>2021-08-30T10:50:26Z</time>
      </trkpt>
      <trkpt lat="45.16203" lon="5.65526">
        <ele>885.6</ele>
        <time>2021-08-30T10:50:27Z</time>
      </trkpt>
      <trkpt lat="45.16204" lon="5.65528">
        <ele>885.6</ele>
        <time>2021-08-30T10:50:29Z</time>
      </trkpt>
      <trkpt lat="45.16205" lon="5.65531">
        <ele>885.7</ele>
        <time>2021-08-30T10:50:30Z</time>
      </trkpt>
      <trkpt lat="45.16206" lon="5.65532">
        <ele>885.7</ele>
        <time>2021-08-30T10:50:32Z</time>
      </trkpt>
      <trkpt lat="45.16207" lon="5.65533">
        <ele>885.7</ele>
        <time>2021-08-30T10:50:33Z</time>
      </trkpt>
      <trkpt lat="45.16208" lon="5.65534">
        <ele>885.8</ele>
        <time>2021-08-30T10:50:35Z</time>
      </trkpt>
      <trkpt lat="45.1621" lon="5.65535">
        <ele>885.8</ele>
        <time>2021-08-30T10:50:37Z</time>
      </trkpt>
      <trkpt lat="45.16212" lon="5.65538">
        <ele>885.8</ele>
        <time>2021-08-30T10:50:38Z</time>
      </trkpt>
      <trkpt lat="45.16213" lon="5.6554">
        <ele>885.9</ele>
        <time>2021-08-30T10:50:39Z</time>
      </trkpt>
      <trkpt lat="45.16215" lon="5.65541">
        <ele>885.9</ele>
        <time>2021-08-30T10:50:41Z</time>
      </trkpt>
      <trkpt lat="45.16232" lon="5.65556">
        <ele>886.6</ele>
        <time>2021-08-30T10:50:44Z</time>
      </trkpt>
      <trkpt lat="45.16236" lon="5.65558">
        <ele>886.8</ele>
        <time>2021-08-30T10:50:45Z</time>
      </trkpt>
      <trkpt lat="45.16238" lon="5.6556">
        <ele>886.9</ele>
        <time>2021-08-30T10:50:46Z</time>
      </trkpt>
      <trkpt lat="45.1624" lon="5.65564">
        <ele>887.1</ele>
        <time>2021-08-30T10:50:47Z</time>
      </trkpt>
      <trkpt lat="45.16244" lon="5.65569">
        <ele>887.4</ele>
        <time>2021-08-30T10:50:49Z</time>
      </trkpt>
      <trkpt lat="45.16246" lon="5.65572">
        <ele>887.6</ele>
        <time>2021-08-30T10:50:50Z</time>
      </trkpt>
      <trkpt lat="45.16249" lon="5.65574">
        <ele>887.7</ele>
        <time>2021-08-30T10:50:51Z</time>
      </trkpt>
      <trkpt lat="45.1625" lon="5.65574">
        <ele>887.8</ele>
        <time>2021-08-30T10:50:53Z</time>
      </trkpt>
      <trkpt lat="45.16252" lon="5.65573">
        <ele>887.9</ele>
        <time>2021-08-30T10:50:54Z</time>
      </trkpt>
      <trkpt lat="45.16258" lon="5.65575">
        <ele>888.2</ele>
        <time>2021-08-30T10:50:56Z</time>
      </trkpt>
      <trkpt lat="45.16263" lon="5.65579">
        <ele>888.6</ele>
        <time>2021-08-30T10:50:57Z</time>
      </trkpt>
      <trkpt lat="45.16269" lon="5.65584">
        <ele>888.9</ele>
        <time>2021-08-30T10:50:58Z</time>
      </trkpt>
      <trkpt lat="45.16274" lon="5.65588">
        <ele>889.2</ele>
        <time>2021-08-30T10:51:00Z</time>
      </trkpt>
      <trkpt lat="45.16279" lon="5.65592">
        <ele>889.5</ele>
        <time>2021-08-30T10:51:01Z</time>
      </trkpt>
      <trkpt lat="45.16284" lon="5.65597">
        <ele>889.9</ele>
        <time>2021-08-30T10:51:19Z</time>
      </trkpt>
      <trkpt lat="45.1629" lon="5.65601">
        <ele>890.2</ele>
        <time>2021-08-30T10:51:20Z</time>
      </trkpt>
      <trkpt lat="45.16292" lon="5.65607">
        <ele>890.4</ele>
        <time>2021-08-30T10:51:21Z</time>
      </trkpt>
      <trkpt lat="45.16293" lon="5.65611">
        <ele>890.6</ele>
        <time>2021-08-30T10:51:22Z</time>
      </trkpt>
      <trkpt lat="45.16295" lon="5.65621">
        <ele>891</ele>
        <time>2021-08-30T10:51:24Z</time>
      </trkpt>
      <trkpt lat="45.16297" lon="5.6563">
        <ele>891.4</ele>
        <time>2021-08-30T10:51:25Z</time>
      </trkpt>
      <trkpt lat="45.16298" lon="5.65633">
        <ele>891.5</ele>
        <time>2021-08-30T10:51:27Z</time>
      </trkpt>
      <trkpt lat="45.16299" lon="5.65633">
        <ele>891.5</ele>
        <time>2021-08-30T10:51:28Z</time>
      </trkpt>
      <trkpt lat="45.16299" lon="5.65634">
        <ele>891.6</ele>
        <time>2021-08-30T10:51:29Z</time>
      </trkpt>
      <trkpt lat="45.163" lon="5.65634">
        <ele>891.6</ele>
        <time>2021-08-30T10:51:30Z</time>
      </trkpt>
      <trkpt lat="45.16301" lon="5.65634">
        <ele>891.7</ele>
        <time>2021-08-30T10:51:31Z</time>
      </trkpt>
      <trkpt lat="45.16303" lon="5.65634">
        <ele>891.8</ele>
        <time>2021-08-30T10:51:32Z</time>
      </trkpt>
      <trkpt lat="45.16327" lon="5.65645">
        <ele>893</ele>
        <time>2021-08-30T10:51:40Z</time>
      </trkpt>
      <trkpt lat="45.1633" lon="5.65644">
        <ele>893.2</ele>
        <time>2021-08-30T10:51:41Z</time>
      </trkpt>
      <trkpt lat="45.16333" lon="5.65644">
        <ele>893.4</ele>
        <time>2021-08-30T10:51:42Z</time>
      </trkpt>
      <trkpt lat="45.16336" lon="5.65645">
        <ele>893.5</ele>
        <time>2021-08-30T10:51:43Z</time>
      </trkpt>
      <trkpt lat="45.1634" lon="5.65644">
        <ele>893.7</ele>
        <time>2021-08-30T10:51:44Z</time>
      </trkpt>
      <trkpt lat="45.16343" lon="5.65642">
        <ele>893.9</ele>
        <time>2021-08-30T10:51:45Z</time>
      </trkpt>
      <trkpt lat="45.16344" lon="5.65641">
        <ele>894</ele>
        <time>2021-08-30T10:51:46Z</time>
      </trkpt>
      <trkpt lat="45.16346" lon="5.65639">
        <ele>894.1</ele>
        <time>2021-08-30T10:51:47Z</time>
      </trkpt>
      <trkpt lat="45.16347" lon="5.65637">
        <ele>894.2</ele>
        <time>2021-08-30T10:51:49Z</time>
      </trkpt>
      <trkpt lat="45.16349" lon="5.65634">
        <ele>894.4</ele>
        <time>2021-08-30T10:51:50Z</time>
      </trkpt>
      <trkpt lat="45.1635" lon="5.65629">
        <ele>894.6</ele>
        <time>2021-08-30T10:51:51Z</time>
      </trkpt>
      <trkpt lat="45.16352" lon="5.65625">
        <ele>894.7</ele>
        <time>2021-08-30T10:51:52Z</time>
      </trkpt>
      <trkpt lat="45.16355" lon="5.6562">
        <ele>895</ele>
        <time>2021-08-30T10:51:53Z</time>
      </trkpt>
      <trkpt lat="45.16356" lon="5.65617">
        <ele>895.1</ele>
        <time>2021-08-30T10:51:54Z</time>
      </trkpt>
      <trkpt lat="45.16359" lon="5.6561">
        <ele>895.4</ele>
        <time>2021-08-30T10:51:56Z</time>
      </trkpt>
      <trkpt lat="45.16361" lon="5.65607">
        <ele>895.6</ele>
        <time>2021-08-30T10:51:57Z</time>
      </trkpt>
      <trkpt lat="45.16362" lon="5.65605">
        <ele>895.7</ele>
        <time>2021-08-30T10:51:58Z</time>
      </trkpt>
      <trkpt lat="45.16364" lon="5.65604">
        <ele>895.8</ele>
        <time>2021-08-30T10:52:00Z</time>
      </trkpt>
      <trkpt lat="45.16365" lon="5.65604">
        <ele>895.8</ele>
        <time>2021-08-30T10:52:01Z</time>
      </trkpt>
      <trkpt lat="45.16366" lon="5.65607">
        <ele>895.9</ele>
        <time>2021-08-30T10:52:02Z</time>
      </trkpt>
      <trkpt lat="45.16366" lon="5.65611">
        <ele>896.1</ele>
        <time>2021-08-30T10:52:04Z</time>
      </trkpt>
      <trkpt lat="45.16365" lon="5.65614">
        <ele>896.2</ele>
        <time>2021-08-30T10:52:05Z</time>
      </trkpt>
      <trkpt lat="45.16365" lon="5.65618">
        <ele>896.3</ele>
        <time>2021-08-30T10:52:06Z</time>
      </trkpt>
      <trkpt lat="45.16366" lon="5.65619">
        <ele>896.4</ele>
        <time>2021-08-30T10:52:08Z</time>
      </trkpt>
      <trkpt lat="45.16367" lon="5.65619">
        <ele>896.4</ele>
        <time>2021-08-30T10:52:09Z</time>
      </trkpt>
      <trkpt lat="45.16368" lon="5.65619">
        <ele>896.5</ele>
        <time>2021-08-30T10:52:10Z</time>
      </trkpt>
      <trkpt lat="45.16369" lon="5.65619">
        <ele>896.5</ele>
        <time>2021-08-30T10:52:11Z</time>
      </trkpt>
      <trkpt lat="45.16369" lon="5.65619">
        <ele>896.6</ele>
        <time>2021-08-30T10:52:12Z</time>
      </trkpt>
      <trkpt lat="45.16414" lon="5.65548">
        <ele>899.9</ele>
        <time>2021-08-30T10:52:48Z</time>
      </trkpt>
      <trkpt lat="45.16416" lon="5.65546">
        <ele>900.1</ele>
        <time>2021-08-30T10:52:49Z</time>
      </trkpt>
      <trkpt lat="45.16422" lon="5.65544">
        <ele>900.3</ele>
        <time>2021-08-30T10:52:51Z</time>
      </trkpt>
      <trkpt lat="45.16423" lon="5.65544">
        <ele>900.4</ele>
        <time>2021-08-30T10:52:53Z</time>
      </trkpt>
      <trkpt lat="45.16423" lon="5.65545">
        <ele>900.4</ele>
        <time>2021-08-30T10:52:55Z</time>
      </trkpt>
      <trkpt lat="45.16424" lon="5.65544">
        <ele>900.5</ele>
        <time>2021-08-30T10:52:56Z</time>
      </trkpt>
      <trkpt lat="45.16426" lon="5.65543">
        <ele>900.6</ele>
        <time>2021-08-30T10:52:58Z</time>
      </trkpt>
      <trkpt lat="45.16427" lon="5.65542">
        <ele>900.7</ele>
        <time>2021-08-30T10:52:59Z</time>
      </trkpt>
      <trkpt lat="45.16429" lon="5.65541">
        <ele>900.8</ele>
        <time>2021-08-30T10:53:01Z</time>
      </trkpt>
      <trkpt lat="45.16516" lon="5.6549">
        <ele>906.1</ele>
        <time>2021-08-30T10:54:06Z</time>
      </trkpt>
      <trkpt lat="45.16518" lon="5.65485">
        <ele>906.3</ele>
        <time>2021-08-30T10:54:08Z</time>
      </trkpt>
      <trkpt lat="45.1652" lon="5.6548">
        <ele>906.6</ele>
        <time>2021-08-30T10:54:10Z</time>
      </trkpt>
      <trkpt lat="45.16519" lon="5.65477">
        <ele>906.7</ele>
        <time>2021-08-30T10:54:11Z</time>
      </trkpt>
      <trkpt lat="45.16518" lon="5.65476">
        <ele>906.8</ele>
        <time>2021-08-30T10:54:12Z</time>
      </trkpt>
      <trkpt lat="45.16512" lon="5.65476">
        <ele>907.2</ele>
        <time>2021-08-30T10:54:13Z</time>
      </trkpt>
      <trkpt lat="45.16501" lon="5.65476">
        <ele>908</ele>
        <time>2021-08-30T10:54:15Z</time>
      </trkpt>
      <trkpt lat="45.16494" lon="5.65476">
        <ele>908.4</ele>
        <time>2021-08-30T10:54:16Z</time>
      </trkpt>
      <trkpt lat="45.16493" lon="5.65476">
        <ele>908.5</ele>
        <time>2021-08-30T10:54:18Z</time>
      </trkpt>
      <trkpt lat="45.16613" lon="5.6542">
        <ele>915.1</ele>
        <time>2021-08-30T10:55:18Z</time>
      </trkpt>
      <trkpt lat="45.16616" lon="5.65415">
        <ele>915.4</ele>
        <time>2021-08-30T10:55:19Z</time>
      </trkpt>
      <trkpt lat="45.1662" lon="5.6541">
        <ele>915.7</ele>
        <time>2021-08-30T10:55:20Z</time>
      </trkpt>
      <trkpt lat="45.16625" lon="5.65404">
        <ele>916</ele>
        <time>2021-08-30T10:55:21Z</time>
      </trkpt>
      <trkpt lat="45.16637" lon="5.65377">
        <ele>918.2</ele>
        <time>2021-08-30T10:55:23Z</time>
      </trkpt>
      <trkpt lat="45.16644" lon="5.65361">
        <ele>918.4</ele>
        <time>2021-08-30T10:55:24Z</time>
      </trkpt>
      <trkpt lat="45.16652" lon="5.6534">
        <ele>918.9</ele>
        <time>2021-08-30T10:55:26Z</time>
      </trkpt>
      <trkpt lat="45.16657" lon="5.65323">
        <ele>919.4</ele>
        <time>2021-08-30T10:55:28Z</time>
      </trkpt>
      <trkpt lat="45.16657" lon="5.6532">
        <ele>919.4</ele>
        <time>2021-08-30T10:55:29Z</time>
      </trkpt>
      <trkpt lat="45.16658" lon="5.65319">
        <ele>919.5</ele>
        <time>2021-08-30T10:55:31Z</time>
      </trkpt>
      <trkpt lat="45.16659" lon="5.65318">
        <ele>919.5</ele>
        <time>2021-08-30T10:55:32Z</time>
      </trkpt>
      <trkpt lat="45.16659" lon="5.65315">
        <ele>919.6</ele>
        <time>2021-08-30T10:55:34Z</time>
      </trkpt>
      <trkpt lat="45.16661" lon="5.65314">
        <ele>919.6</ele>
        <time>2021-08-30T10:55:36Z</time>
      </trkpt>
      <trkpt lat="45.16661" lon="5.65313">
        <ele>919.6</ele>
        <time>2021-08-30T10:55:37Z</time>
      </trkpt>
      <trkpt lat="45.16663" lon="5.65312">
        <ele>919.7</ele>
        <time>2021-08-30T10:55:39Z</time>
      </trkpt>
      <trkpt lat="45.16652" lon="5.6521">
        <ele>922.3</ele>
        <time>2021-08-30T10:57:03Z</time>
      </trkpt>
      <trkpt lat="45.16654" lon="5.65204">
        <ele>922.6</ele>
        <time>2021-08-30T10:57:04Z</time>
      </trkpt>
      <trkpt lat="45.16656" lon="5.65201">
        <ele>922.7</ele>
        <time>2021-08-30T10:57:05Z</time>
      </trkpt>
      <trkpt lat="45.16659" lon="5.65195">
        <ele>923.1</ele>
        <time>2021-08-30T10:57:07Z</time>
      </trkpt>
      <trkpt lat="45.16664" lon="5.65189">
        <ele>923.5</ele>
        <time>2021-08-30T10:57:09Z</time>
      </trkpt>
      <trkpt lat="45.16668" lon="5.65184">
        <ele>923.8</ele>
        <time>2021-08-30T10:57:10Z</time>
      </trkpt>
      <trkpt lat="45.16674" lon="5.65179">
        <ele>924.3</ele>
        <time>2021-08-30T10:57:11Z</time>
      </trkpt>
      <trkpt lat="45.16686" lon="5.65167">
        <ele>925.3</ele>
        <time>2021-08-30T10:57:13Z</time>
      </trkpt>
      <trkpt lat="45.1669" lon="5.65162">
        <ele>925.6</ele>
        <time>2021-08-30T10:57:14Z</time>
      </trkpt>
      <trkpt lat="45.16693" lon="5.65157">
        <ele>926</ele>
        <time>2021-08-30T10:57:16Z</time>
      </trkpt>
      <trkpt lat="45.16696" lon="5.65153">
        <ele>926.2</ele>
        <time>2021-08-30T10:57:18Z</time>
      </trkpt>
      <trkpt lat="45.16699" lon="5.65145">
        <ele>926.7</ele>
        <time>2021-08-30T10:57:20Z</time>
      </trkpt>
      <trkpt lat="45.16702" lon="5.6514">
        <ele>927.1</ele>
        <time>2021-08-30T10:57:22Z</time>
      </trkpt>
      <trkpt lat="45.16707" lon="5.65133">
        <ele>927.5</ele>
        <time>2021-08-30T10:57:24Z</time>
      </trkpt>
      <trkpt lat="45.16711" lon="5.65129">
        <ele>927.9</ele>
        <time>2021-08-30T10:57:25Z</time>
      </trkpt>
      <trkpt lat="45.16713" lon="5.65128">
        <ele>928</ele>
        <time>2021-08-30T10:57:26Z</time>
      </trkpt>
      <trkpt lat="45.16716" lon="5.65125">
        <ele>928.2</ele>
        <time>2021-08-30T10:57:28Z</time>
      </trkpt>
      <trkpt lat="45.16719" lon="5.65125">
        <ele>928.4</ele>
        <time>2021-08-30T10:57:29Z</time>
      </trkpt>
      <trkpt lat="45.1672" lon="5.65124">
        <ele>928.5</ele>
        <time>2021-08-30T10:57:31Z</time>
      </trkpt>
      <trkpt lat="45.16721" lon="5.65122">
        <ele>928.6</ele>
        <time>2021-08-30T10:57:33Z</time>
      </trkpt>
      <trkpt lat="45.16723" lon="5.65119">
        <ele>928.8</ele>
        <time>2021-08-30T10:57:35Z</time>
      </trkpt>
      <trkpt lat="45.16724" lon="5.65116">
        <ele>928.9</ele>
        <time>2021-08-30T10:57:36Z</time>
      </trkpt>
      <trkpt lat="45.16738" lon="5.65071">
        <ele>931.2</ele>
        <time>2021-08-30T10:57:55Z</time>
      </trkpt>
      <trkpt lat="45.16742" lon="5.65068">
        <ele>931.5</ele>
        <time>2021-08-30T10:57:57Z</time>
      </trkpt>
      <trkpt lat="45.16745" lon="5.65065">
        <ele>931.7</ele>
        <time>2021-08-30T10:57:58Z</time>
      </trkpt>
      <trkpt lat="45.16747" lon="5.65061">
        <ele>932</ele>
        <time>2021-08-30T10:57:59Z</time>
      </trkpt>
      <trkpt lat="45.16747" lon="5.65059">
        <ele>932.1</ele>
        <time>2021-08-30T10:58:00Z</time>
      </trkpt>
      <trkpt lat="45.16748" lon="5.65054">
        <ele>932.3</ele>
        <time>2021-08-30T10:58:01Z</time>
      </trkpt>
      <trkpt lat="45.16748" lon="5.6505">
        <ele>932.5</ele>
        <time>2021-08-30T10:58:02Z</time>
      </trkpt>
      <trkpt lat="45.16748" lon="5.6504">
        <ele>932.9</ele>
        <time>2021-08-30T10:58:04Z</time>
      </trkpt>
      <trkpt lat="45.16747" lon="5.6503">
        <ele>933.4</ele>
        <time>2021-08-30T10:58:06Z</time>
      </trkpt>
      <trkpt lat="45.16744" lon="5.65021">
        <ele>933.8</ele>
        <time>2021-08-30T10:58:08Z</time>
      </trkpt>
      <trkpt lat="45.16744" lon="5.65014">
        <ele>934.2</ele>
        <time>2021-08-30T10:58:09Z</time>
      </trkpt>
      <trkpt lat="45.16744" lon="5.65009">
        <ele>934.4</ele>
        <time>2021-08-30T10:58:10Z</time>
      </trkpt>
      <trkpt lat="45.16744" lon="5.65004">
        <ele>934.7</ele>
        <time>2021-08-30T10:58:11Z</time>
      </trkpt>
      <trkpt lat="45.16744" lon="5.64999">
        <ele>934.9</ele>
        <time>2021-08-30T10:58:12Z</time>
      </trkpt>
      <trkpt lat="45.16746" lon="5.64993">
        <ele>935.2</ele>
        <time>2021-08-30T10:58:14Z</time>
      </trkpt>
      <trkpt lat="45.16747" lon="5.64988">
        <ele>935.5</ele>
        <time>2021-08-30T10:58:16Z</time>
      </trkpt>
      <trkpt lat="45.16749" lon="5.64983">
        <ele>935.8</ele>
        <time>2021-08-30T10:58:18Z</time>
      </trkpt>
      <trkpt lat="45.1675" lon="5.64977">
        <ele>936.1</ele>
        <time>2021-08-30T10:58:20Z</time>
      </trkpt>
      <trkpt lat="45.16752" lon="5.64973">
        <ele>936.4</ele>
        <time>2021-08-30T10:58:21Z</time>
      </trkpt>
      <trkpt lat="45.16754" lon="5.64967">
        <ele>936.7</ele>
        <time>2021-08-30T10:58:22Z</time>
      </trkpt>
      <trkpt lat="45.16754" lon="5.64964">
        <ele>936.9</ele>
        <time>2021-08-30T10:58:23Z</time>
      </trkpt>
      <trkpt lat="45.16757" lon="5.64959">
        <ele>937.2</ele>
        <time>2021-08-30T10:58:25Z</time>
      </trkpt>
      <trkpt lat="45.16758" lon="5.64958">
        <ele>937.3</ele>
        <time>2021-08-30T10:58:26Z</time>
      </trkpt>
      <trkpt lat="45.16759" lon="5.64953">
        <ele>937.5</ele>
        <time>2021-08-30T10:58:28Z</time>
      </trkpt>
      <trkpt lat="45.16759" lon="5.64948">
        <ele>937.7</ele>
        <time>2021-08-30T10:58:29Z</time>
      </trkpt>
      <trkpt lat="45.16759" lon="5.64947">
        <ele>937.8</ele>
        <time>2021-08-30T10:58:30Z</time>
      </trkpt>
      <trkpt lat="45.1676" lon="5.6494">
        <ele>938.1</ele>
        <time>2021-08-30T10:58:32Z</time>
      </trkpt>
      <trkpt lat="45.1676" lon="5.64933">
        <ele>938.4</ele>
        <time>2021-08-30T10:58:34Z</time>
      </trkpt>
      <trkpt lat="45.1676" lon="5.64929">
        <ele>938.6</ele>
        <time>2021-08-30T10:58:36Z</time>
      </trkpt>
      <trkpt lat="45.16761" lon="5.64925">
        <ele>938.8</ele>
        <time>2021-08-30T10:58:38Z</time>
      </trkpt>
      <trkpt lat="45.16761" lon="5.64923">
        <ele>938.9</ele>
        <time>2021-08-30T10:58:39Z</time>
      </trkpt>
      <trkpt lat="45.16761" lon="5.64924">
        <ele>938.9</ele>
        <time>2021-08-30T10:58:41Z</time>
      </trkpt>
      <trkpt lat="45.16762" lon="5.64925">
        <ele>939</ele>
        <time>2021-08-30T10:58:42Z</time>
      </trkpt>
      <trkpt lat="45.16762" lon="5.64925">
        <ele>939</ele>
        <time>2021-08-30T10:58:43Z</time>
      </trkpt>
      <trkpt lat="45.16763" lon="5.64924">
        <ele>939.1</ele>
        <time>2021-08-30T10:58:44Z</time>
      </trkpt>
      <trkpt lat="45.16763" lon="5.64922">
        <ele>939.1</ele>
        <time>2021-08-30T10:58:45Z</time>
      </trkpt>
      <trkpt lat="45.16764" lon="5.64918">
        <ele>939.3</ele>
        <time>2021-08-30T10:58:47Z</time>
      </trkpt>
      <trkpt lat="45.16765" lon="5.64916">
        <ele>939.4</ele>
        <time>2021-08-30T10:58:48Z</time>
      </trkpt>
      <trkpt lat="45.16767" lon="5.64911">
        <ele>939.7</ele>
        <time>2021-08-30T10:58:50Z</time>
      </trkpt>
      <trkpt lat="45.16769" lon="5.64905">
        <ele>940</ele>
        <time>2021-08-30T10:58:52Z</time>
      </trkpt>
      <trkpt lat="45.1677" lon="5.64903">
        <ele>940.1</ele>
        <time>2021-08-30T10:58:53Z</time>
      </trkpt>
      <trkpt lat="45.1677" lon="5.64898">
        <ele>940.4</ele>
        <time>2021-08-30T10:58:55Z</time>
      </trkpt>
      <trkpt lat="45.16771" lon="5.64897">
        <ele>940.5</ele>
        <time>2021-08-30T10:58:56Z</time>
      </trkpt>
      <trkpt lat="45.16771" lon="5.64893">
        <ele>940.6</ele>
        <time>2021-08-30T10:58:58Z</time>
      </trkpt>
      <trkpt lat="45.16773" lon="5.64889">
        <ele>940.8</ele>
        <time>2021-08-30T10:59:00Z</time>
      </trkpt>
      <trkpt lat="45.16774" lon="5.64888">
        <ele>940.9</ele>
        <time>2021-08-30T10:59:01Z</time>
      </trkpt>
      <trkpt lat="45.16775" lon="5.64884">
        <ele>941</ele>
        <time>2021-08-30T10:59:03Z</time>
      </trkpt>
      <trkpt lat="45.16776" lon="5.64882">
        <ele>941.1</ele>
        <time>2021-08-30T10:59:04Z</time>
      </trkpt>
      <trkpt lat="45.16778" lon="5.64878">
        <ele>941.3</ele>
        <time>2021-08-30T10:59:05Z</time>
      </trkpt>
      <trkpt lat="45.16779" lon="5.64874">
        <ele>941.5</ele>
        <time>2021-08-30T10:59:07Z</time>
      </trkpt>
      <trkpt lat="45.16781" lon="5.64871">
        <ele>941.6</ele>
        <time>2021-08-30T10:59:08Z</time>
      </trkpt>
      <trkpt lat="45.16782" lon="5.64867">
        <ele>941.9</ele>
        <time>2021-08-30T10:59:09Z</time>
      </trkpt>
      <trkpt lat="45.16783" lon="5.64865">
        <ele>941.9</ele>
        <time>2021-08-30T10:59:10Z</time>
      </trkpt>
      <trkpt lat="45.16785" lon="5.64861">
        <ele>942.1</ele>
        <time>2021-08-30T10:59:12Z</time>
      </trkpt>
      <trkpt lat="45.16785" lon="5.6486">
        <ele>942.1</ele>
        <time>2021-08-30T10:59:13Z</time>
      </trkpt>
      <trkpt lat="45.16786" lon="5.64858">
        <ele>942.2</ele>
        <time>2021-08-30T10:59:14Z</time>
      </trkpt>
      <trkpt lat="45.16785" lon="5.64858">
        <ele>942.2</ele>
        <time>2021-08-30T10:59:16Z</time>
      </trkpt>
      <trkpt lat="45.16785" lon="5.64857">
        <ele>942.2</ele>
        <time>2021-08-30T10:59:17Z</time>
      </trkpt>
      <trkpt lat="45.16785" lon="5.64857">
        <ele>942.2</ele>
        <time>2021-08-30T10:59:19Z</time>
      </trkpt>
      <trkpt lat="45.16786" lon="5.64855">
        <ele>942.3</ele>
        <time>2021-08-30T10:59:20Z</time>
      </trkpt>
      <trkpt lat="45.16788" lon="5.6485">
        <ele>942.4</ele>
        <time>2021-08-30T10:59:22Z</time>
      </trkpt>
      <trkpt lat="45.1679" lon="5.64847">
        <ele>942.6</ele>
        <time>2021-08-30T10:59:23Z</time>
      </trkpt>
      <trkpt lat="45.1679" lon="5.64846">
        <ele>942.6</ele>
        <time>2021-08-30T10:59:24Z</time>
      </trkpt>
      <trkpt lat="45.16792" lon="5.64843">
        <ele>942.7</ele>
        <time>2021-08-30T10:59:26Z</time>
      </trkpt>
      <trkpt lat="45.16793" lon="5.64844">
        <ele>942.7</ele>
        <time>2021-08-30T10:59:27Z</time>
      </trkpt>
      <trkpt lat="45.16794" lon="5.64843">
        <ele>942.8</ele>
        <time>2021-08-30T10:59:29Z</time>
      </trkpt>
      <trkpt lat="45.16796" lon="5.64841">
        <ele>942.9</ele>
        <time>2021-08-30T10:59:31Z</time>
      </trkpt>
      <trkpt lat="45.16796" lon="5.64841">
        <ele>942.9</ele>
        <time>2021-08-30T10:59:32Z</time>
      </trkpt>
      <trkpt lat="45.16796" lon="5.64841">
        <ele>942.9</ele>
        <time>2021-08-30T10:59:33Z</time>
      </trkpt>
      <trkpt lat="45.16796" lon="5.6484">
        <ele>942.9</ele>
        <time>2021-08-30T10:59:34Z</time>
      </trkpt>
      <trkpt lat="45.16796" lon="5.6484">
        <ele>943</ele>
        <time>2021-08-30T10:59:35Z</time>
      </trkpt>
      <trkpt lat="45.16794" lon="5.64838">
        <ele>943</ele>
        <time>2021-08-30T10:59:37Z</time>
      </trkpt>
      <trkpt lat="45.16792" lon="5.64836">
        <ele>943.1</ele>
        <time>2021-08-30T10:59:39Z</time>
      </trkpt>
      <trkpt lat="45.16792" lon="5.64832">
        <ele>943.2</ele>
        <time>2021-08-30T10:59:41Z</time>
      </trkpt>
      <trkpt lat="45.16792" lon="5.6483">
        <ele>943.3</ele>
        <time>2021-08-30T10:59:42Z</time>
      </trkpt>
      <trkpt lat="45.16793" lon="5.64826">
        <ele>943.4</ele>
        <time>2021-08-30T10:59:44Z</time>
      </trkpt>
      <trkpt lat="45.16796" lon="5.64816">
        <ele>943.7</ele>
        <time>2021-08-30T10:59:48Z</time>
      </trkpt>
      <trkpt lat="45.16801" lon="5.64808">
        <ele>944</ele>
        <time>2021-08-30T10:59:50Z</time>
      </trkpt>
      <trkpt lat="45.16805" lon="5.64801">
        <ele>944.3</ele>
        <time>2021-08-30T10:59:51Z</time>
      </trkpt>
      <trkpt lat="45.16808" lon="5.64797">
        <ele>944.5</ele>
        <time>2021-08-30T10:59:52Z</time>
      </trkpt>
      <trkpt lat="45.16812" lon="5.64793">
        <ele>944.8</ele>
        <time>2021-08-30T10:59:53Z</time>
      </trkpt>
      <trkpt lat="45.16816" lon="5.64789">
        <ele>945</ele>
        <time>2021-08-30T10:59:55Z</time>
      </trkpt>
      <trkpt lat="45.16819" lon="5.64786">
        <ele>945.2</ele>
        <time>2021-08-30T10:59:56Z</time>
      </trkpt>
      <trkpt lat="45.16823" lon="5.64786">
        <ele>945.4</ele>
        <time>2021-08-30T10:59:58Z</time>
      </trkpt>
      <trkpt lat="45.16825" lon="5.64785">
        <ele>945.5</ele>
        <time>2021-08-30T10:59:59Z</time>
      </trkpt>
      <trkpt lat="45.16827" lon="5.64783">
        <ele>945.7</ele>
        <time>2021-08-30T11:00:01Z</time>
      </trkpt>
      <trkpt lat="45.1683" lon="5.64779">
        <ele>945.9</ele>
        <time>2021-08-30T11:00:03Z</time>
      </trkpt>
      <trkpt lat="45.16829" lon="5.64774">
        <ele>946.2</ele>
        <time>2021-08-30T11:00:05Z</time>
      </trkpt>
      <trkpt lat="45.16829" lon="5.64767">
        <ele>946.5</ele>
        <time>2021-08-30T11:00:07Z</time>
      </trkpt>
      <trkpt lat="45.16829" lon="5.64762">
        <ele>946.7</ele>
        <time>2021-08-30T11:00:08Z</time>
      </trkpt>
      <trkpt lat="45.16831" lon="5.64758">
        <ele>946.9</ele>
        <time>2021-08-30T11:00:10Z</time>
      </trkpt>
      <trkpt lat="45.16832" lon="5.64757">
        <ele>947</ele>
        <time>2021-08-30T11:00:11Z</time>
      </trkpt>
      <trkpt lat="45.16833" lon="5.64754">
        <ele>947.1</ele>
        <time>2021-08-30T11:00:12Z</time>
      </trkpt>
      <trkpt lat="45.16836" lon="5.64752">
        <ele>947.3</ele>
        <time>2021-08-30T11:00:14Z</time>
      </trkpt>
      <trkpt lat="45.16838" lon="5.6475">
        <ele>947.5</ele>
        <time>2021-08-30T11:00:15Z</time>
      </trkpt>
      <trkpt lat="45.16841" lon="5.64747">
        <ele>947.7</ele>
        <time>2021-08-30T11:00:17Z</time>
      </trkpt>
      <trkpt lat="45.16846" lon="5.64741">
        <ele>948.1</ele>
        <time>2021-08-30T11:00:19Z</time>
      </trkpt>
      <trkpt lat="45.16848" lon="5.64738">
        <ele>948.2</ele>
        <time>2021-08-30T11:00:20Z</time>
      </trkpt>
      <trkpt lat="45.16852" lon="5.64733">
        <ele>948.6</ele>
        <time>2021-08-30T11:00:22Z</time>
      </trkpt>
      <trkpt lat="45.16858" lon="5.64731">
        <ele>948.9</ele>
        <time>2021-08-30T11:00:24Z</time>
      </trkpt>
      <trkpt lat="45.16861" lon="5.64728">
        <ele>949.1</ele>
        <time>2021-08-30T11:00:25Z</time>
      </trkpt>
      <trkpt lat="45.16862" lon="5.64727">
        <ele>949.2</ele>
        <time>2021-08-30T11:00:26Z</time>
      </trkpt>
      <trkpt lat="45.16866" lon="5.64722">
        <ele>949.5</ele>
        <time>2021-08-30T11:00:28Z</time>
      </trkpt>
      <trkpt lat="45.16868" lon="5.64716">
        <ele>949.8</ele>
        <time>2021-08-30T11:00:30Z</time>
      </trkpt>
      <trkpt lat="45.16868" lon="5.64713">
        <ele>949.9</ele>
        <time>2021-08-30T11:00:32Z</time>
      </trkpt>
      <trkpt lat="45.16868" lon="5.64711">
        <ele>950</ele>
        <time>2021-08-30T11:00:33Z</time>
      </trkpt>
      <trkpt lat="45.16868" lon="5.6471">
        <ele>950</ele>
        <time>2021-08-30T11:00:34Z</time>
      </trkpt>
      <trkpt lat="45.16869" lon="5.64708">
        <ele>950.1</ele>
        <time>2021-08-30T11:00:35Z</time>
      </trkpt>
      <trkpt lat="45.16869" lon="5.64706">
        <ele>950.2</ele>
        <time>2021-08-30T11:00:37Z</time>
      </trkpt>
      <trkpt lat="45.16868" lon="5.64705">
        <ele>950.3</ele>
        <time>2021-08-30T11:00:38Z</time>
      </trkpt>
      <trkpt lat="45.16867" lon="5.64704">
        <ele>950.3</ele>
        <time>2021-08-30T11:00:39Z</time>
      </trkpt>
      <trkpt lat="45.16867" lon="5.64703">
        <ele>950.4</ele>
        <time>2021-08-30T11:00:40Z</time>
      </trkpt>
      <trkpt lat="45.16867" lon="5.64701">
        <ele>950.4</ele>
        <time>2021-08-30T11:00:42Z</time>
      </trkpt>
      <trkpt lat="45.16865" lon="5.64703">
        <ele>950.5</ele>
        <time>2021-08-30T11:00:43Z</time>
      </trkpt>
      <trkpt lat="45.16866" lon="5.64701">
        <ele>950.6</ele>
        <time>2021-08-30T11:00:45Z</time>
      </trkpt>
      <trkpt lat="45.16866" lon="5.64702">
        <ele>950.6</ele>
        <time>2021-08-30T11:00:46Z</time>
      </trkpt>
      <trkpt lat="45.16866" lon="5.64699">
        <ele>950.7</ele>
        <time>2021-08-30T11:00:48Z</time>
      </trkpt>
      <trkpt lat="45.16866" lon="5.64698">
        <ele>950.7</ele>
        <time>2021-08-30T11:00:49Z</time>
      </trkpt>
      <trkpt lat="45.16865" lon="5.64696">
        <ele>950.8</ele>
        <time>2021-08-30T11:00:50Z</time>
      </trkpt>
      <trkpt lat="45.16866" lon="5.64694">
        <ele>950.9</ele>
        <time>2021-08-30T11:00:52Z</time>
      </trkpt>
      <trkpt lat="45.16866" lon="5.64693">
        <ele>950.9</ele>
        <time>2021-08-30T11:00:53Z</time>
      </trkpt>
      <trkpt lat="45.16867" lon="5.64694">
        <ele>950.9</ele>
        <time>2021-08-30T11:00:55Z</time>
      </trkpt>
      <trkpt lat="45.16868" lon="5.64693">
        <ele>951.1</ele>
        <time>2021-08-30T11:00:56Z</time>
      </trkpt>
      <trkpt lat="45.16871" lon="5.64695">
        <ele>951.2</ele>
        <time>2021-08-30T11:00:57Z</time>
      </trkpt>
      <trkpt lat="45.16871" lon="5.64695">
        <ele>951.2</ele>
        <time>2021-08-30T11:00:58Z</time>
      </trkpt>
      <trkpt lat="45.16872" lon="5.64695">
        <ele>951.3</ele>
        <time>2021-08-30T11:00:59Z</time>
      </trkpt>
      <trkpt lat="45.16876" lon="5.64694">
        <ele>951.5</ele>
        <time>2021-08-30T11:01:01Z</time>
      </trkpt>
      <trkpt lat="45.16878" lon="5.64693">
        <ele>951.7</ele>
        <time>2021-08-30T11:01:02Z</time>
      </trkpt>
      <trkpt lat="45.16883" lon="5.64693">
        <ele>951.9</ele>
        <time>2021-08-30T11:01:04Z</time>
      </trkpt>
      <trkpt lat="45.16887" lon="5.64694">
        <ele>952.2</ele>
        <time>2021-08-30T11:01:05Z</time>
      </trkpt>
      <trkpt lat="45.1689" lon="5.64693">
        <ele>952.4</ele>
        <time>2021-08-30T11:01:06Z</time>
      </trkpt>
      <trkpt lat="45.16895" lon="5.64691">
        <ele>952.7</ele>
        <time>2021-08-30T11:01:08Z</time>
      </trkpt>
      <trkpt lat="45.16897" lon="5.6469">
        <ele>952.8</ele>
        <time>2021-08-30T11:01:09Z</time>
      </trkpt>
      <trkpt lat="45.16898" lon="5.64689">
        <ele>952.9</ele>
        <time>2021-08-30T11:01:10Z</time>
      </trkpt>
      <trkpt lat="45.16902" lon="5.64688">
        <ele>953.1</ele>
        <time>2021-08-30T11:01:12Z</time>
      </trkpt>
      <trkpt lat="45.16903" lon="5.64688">
        <ele>953.2</ele>
        <time>2021-08-30T11:01:13Z</time>
      </trkpt>
      <trkpt lat="45.16905" lon="5.64688">
        <ele>953.3</ele>
        <time>2021-08-30T11:01:14Z</time>
      </trkpt>
      <trkpt lat="45.16909" lon="5.64687">
        <ele>953.5</ele>
        <time>2021-08-30T11:01:16Z</time>
      </trkpt>
      <trkpt lat="45.16913" lon="5.64687">
        <ele>953.7</ele>
        <time>2021-08-30T11:01:17Z</time>
      </trkpt>
      <trkpt lat="45.16913" lon="5.64686">
        <ele>953.8</ele>
        <time>2021-08-30T11:01:18Z</time>
      </trkpt>
      <trkpt lat="45.16915" lon="5.64684">
        <ele>953.9</ele>
        <time>2021-08-30T11:01:20Z</time>
      </trkpt>
      <trkpt lat="45.16917" lon="5.64683">
        <ele>954</ele>
        <time>2021-08-30T11:01:22Z</time>
      </trkpt>
      <trkpt lat="45.16919" lon="5.64681">
        <ele>954.2</ele>
        <time>2021-08-30T11:01:24Z</time>
      </trkpt>
      <trkpt lat="45.1692" lon="5.64679">
        <ele>954.3</ele>
        <time>2021-08-30T11:01:25Z</time>
      </trkpt>
      <trkpt lat="45.16921" lon="5.64677">
        <ele>954.4</ele>
        <time>2021-08-30T11:01:26Z</time>
      </trkpt>
      <trkpt lat="45.16925" lon="5.64674">
        <ele>954.6</ele>
        <time>2021-08-30T11:01:28Z</time>
      </trkpt>
      <trkpt lat="45.16926" lon="5.64672">
        <ele>954.7</ele>
        <time>2021-08-30T11:01:29Z</time>
      </trkpt>
      <trkpt lat="45.16927" lon="5.64671">
        <ele>954.8</ele>
        <time>2021-08-30T11:01:30Z</time>
      </trkpt>
      <trkpt lat="45.1693" lon="5.64666">
        <ele>955.1</ele>
        <time>2021-08-30T11:01:32Z</time>
      </trkpt>
      <trkpt lat="45.16935" lon="5.64662">
        <ele>955.4</ele>
        <time>2021-08-30T11:01:34Z</time>
      </trkpt>
      <trkpt lat="45.16938" lon="5.64661">
        <ele>955.6</ele>
        <time>2021-08-30T11:01:35Z</time>
      </trkpt>
      <trkpt lat="45.16941" lon="5.6466">
        <ele>955.8</ele>
        <time>2021-08-30T11:01:36Z</time>
      </trkpt>
      <trkpt lat="45.16944" lon="5.6466">
        <ele>955.9</ele>
        <time>2021-08-30T11:01:37Z</time>
      </trkpt>
      <trkpt lat="45.16945" lon="5.6466">
        <ele>956</ele>
        <time>2021-08-30T11:01:38Z</time>
      </trkpt>
      <trkpt lat="45.16947" lon="5.64656">
        <ele>956.2</ele>
        <time>2021-08-30T11:01:39Z</time>
      </trkpt>
      <trkpt lat="45.16947" lon="5.64654">
        <ele>956.3</ele>
        <time>2021-08-30T11:01:41Z</time>
      </trkpt>
      <trkpt lat="45.16949" lon="5.64647">
        <ele>956.6</ele>
        <time>2021-08-30T11:01:43Z</time>
      </trkpt>
      <trkpt lat="45.16952" lon="5.64646">
        <ele>956.8</ele>
        <time>2021-08-30T11:01:45Z</time>
      </trkpt>
      <trkpt lat="45.16953" lon="5.64646">
        <ele>956.9</ele>
        <time>2021-08-30T11:01:46Z</time>
      </trkpt>
      <trkpt lat="45.16956" lon="5.64646">
        <ele>957</ele>
        <time>2021-08-30T11:01:48Z</time>
      </trkpt>
      <trkpt lat="45.16956" lon="5.64647">
        <ele>957</ele>
        <time>2021-08-30T11:01:49Z</time>
      </trkpt>
      <trkpt lat="45.16957" lon="5.64646">
        <ele>957.1</ele>
        <time>2021-08-30T11:01:51Z</time>
      </trkpt>
      <trkpt lat="45.16957" lon="5.64646">
        <ele>957.1</ele>
        <time>2021-08-30T11:01:52Z</time>
      </trkpt>
      <trkpt lat="45.16958" lon="5.64646">
        <ele>957.1</ele>
        <time>2021-08-30T11:01:53Z</time>
      </trkpt>
      <trkpt lat="45.16959" lon="5.64646">
        <ele>957.2</ele>
        <time>2021-08-30T11:01:55Z</time>
      </trkpt>
      <trkpt lat="45.16959" lon="5.64646">
        <ele>957.2</ele>
        <time>2021-08-30T11:01:56Z</time>
      </trkpt>
      <trkpt lat="45.16996" lon="5.64666">
        <ele>959.5</ele>
        <time>2021-08-30T11:02:24Z</time>
      </trkpt>
      <trkpt lat="45.17" lon="5.64669">
        <ele>959.9</ele>
        <time>2021-08-30T11:02:26Z</time>
      </trkpt>
      <trkpt lat="45.17001" lon="5.6467">
        <ele>959.9</ele>
        <time>2021-08-30T11:02:27Z</time>
      </trkpt>
      <trkpt lat="45.17005" lon="5.64673">
        <ele>960.2</ele>
        <time>2021-08-30T11:02:29Z</time>
      </trkpt>
      <trkpt lat="45.17008" lon="5.64676">
        <ele>960.4</ele>
        <time>2021-08-30T11:02:30Z</time>
      </trkpt>
      <trkpt lat="45.17009" lon="5.64677">
        <ele>960.5</ele>
        <time>2021-08-30T11:02:31Z</time>
      </trkpt>
      <trkpt lat="45.17013" lon="5.64682">
        <ele>960.9</ele>
        <time>2021-08-30T11:02:33Z</time>
      </trkpt>
      <trkpt lat="45.17017" lon="5.64687">
        <ele>961.2</ele>
        <time>2021-08-30T11:02:35Z</time>
      </trkpt>
      <trkpt lat="45.1702" lon="5.64689">
        <ele>961.4</ele>
        <time>2021-08-30T11:02:36Z</time>
      </trkpt>
      <trkpt lat="45.17023" lon="5.64691">
        <ele>961.6</ele>
        <time>2021-08-30T11:02:37Z</time>
      </trkpt>
      <trkpt lat="45.17026" lon="5.64692">
        <ele>961.8</ele>
        <time>2021-08-30T11:02:38Z</time>
      </trkpt>
      <trkpt lat="45.17031" lon="5.64694">
        <ele>962.1</ele>
        <time>2021-08-30T11:02:40Z</time>
      </trkpt>
      <trkpt lat="45.17035" lon="5.64694">
        <ele>962.3</ele>
        <time>2021-08-30T11:02:41Z</time>
      </trkpt>
      <trkpt lat="45.17036" lon="5.64695">
        <ele>962.4</ele>
        <time>2021-08-30T11:02:42Z</time>
      </trkpt>
      <trkpt lat="45.1704" lon="5.64696">
        <ele>962.6</ele>
        <time>2021-08-30T11:02:43Z</time>
      </trkpt>
      <trkpt lat="45.17041" lon="5.64696">
        <ele>962.7</ele>
        <time>2021-08-30T11:02:44Z</time>
      </trkpt>
      <trkpt lat="45.17044" lon="5.64696">
        <ele>962.8</ele>
        <time>2021-08-30T11:02:46Z</time>
      </trkpt>
      <trkpt lat="45.17046" lon="5.64692">
        <ele>963</ele>
        <time>2021-08-30T11:02:47Z</time>
      </trkpt>
      <trkpt lat="45.17047" lon="5.6469">
        <ele>963.1</ele>
        <time>2021-08-30T11:02:48Z</time>
      </trkpt>
      <trkpt lat="45.17051" lon="5.64682">
        <ele>963.5</ele>
        <time>2021-08-30T11:02:50Z</time>
      </trkpt>
      <trkpt lat="45.17053" lon="5.64677">
        <ele>963.7</ele>
        <time>2021-08-30T11:02:51Z</time>
      </trkpt>
      <trkpt lat="45.17057" lon="5.64672">
        <ele>963.9</ele>
        <time>2021-08-30T11:02:53Z</time>
      </trkpt>
      <trkpt lat="45.17059" lon="5.64668">
        <ele>964.1</ele>
        <time>2021-08-30T11:02:54Z</time>
      </trkpt>
      <trkpt lat="45.17061" lon="5.64664">
        <ele>964.2</ele>
        <time>2021-08-30T11:02:55Z</time>
      </trkpt>
      <trkpt lat="45.17063" lon="5.64656">
        <ele>964.3</ele>
        <time>2021-08-30T11:02:57Z</time>
      </trkpt>
      <trkpt lat="45.17065" lon="5.64647">
        <ele>964.4</ele>
        <time>2021-08-30T11:02:59Z</time>
      </trkpt>
      <trkpt lat="45.17067" lon="5.6464">
        <ele>964.5</ele>
        <time>2021-08-30T11:03:01Z</time>
      </trkpt>
      <trkpt lat="45.17067" lon="5.64638">
        <ele>964.5</ele>
        <time>2021-08-30T11:03:03Z</time>
      </trkpt>
      <trkpt lat="45.17063" lon="5.64642">
        <ele>963.6</ele>
        <time>2021-08-30T11:03:05Z</time>
      </trkpt>
      <trkpt lat="45.17063" lon="5.64643">
        <ele>963.7</ele>
        <time>2021-08-30T11:03:07Z</time>
      </trkpt>
      <trkpt lat="45.17062" lon="5.64643">
        <ele>963.7</ele>
        <time>2021-08-30T11:03:09Z</time>
      </trkpt>
      <trkpt lat="45.17062" lon="5.64643">
        <ele>963.7</ele>
        <time>2021-08-30T11:03:11Z</time>
      </trkpt>
      <trkpt lat="45.17069" lon="5.64645">
        <ele>963.5</ele>
        <time>2021-08-30T11:03:21Z</time>
      </trkpt>
      <trkpt lat="45.17079" lon="5.64647">
        <ele>962.2</ele>
        <time>2021-08-30T11:03:23Z</time>
      </trkpt>
      <trkpt lat="45.17092" lon="5.64648">
        <ele>962.1</ele>
        <time>2021-08-30T11:03:25Z</time>
      </trkpt>
      <trkpt lat="45.17101" lon="5.64649">
        <ele>962.2</ele>
        <time>2021-08-30T11:03:28Z</time>
      </trkpt>
      <trkpt lat="45.17111" lon="5.64648">
        <ele>962.4</ele>
        <time>2021-08-30T11:03:29Z</time>
      </trkpt>
      <trkpt lat="45.17121" lon="5.64647">
        <ele>962.7</ele>
        <time>2021-08-30T11:03:31Z</time>
      </trkpt>
      <trkpt lat="45.17122" lon="5.64647">
        <ele>962.8</ele>
        <time>2021-08-30T11:03:33Z</time>
      </trkpt>
      <trkpt lat="45.17121" lon="5.64647">
        <ele>962.9</ele>
        <time>2021-08-30T11:03:34Z</time>
      </trkpt>
      <trkpt lat="45.17121" lon="5.64647">
        <ele>962.9</ele>
        <time>2021-08-30T11:03:35Z</time>
      </trkpt>
      <trkpt lat="45.17074" lon="5.64376">
        <ele>1024.3</ele>
        <time>2021-08-30T11:15:52Z</time>
      </trkpt>
      <trkpt lat="45.17075" lon="5.64376">
        <ele>1024.3</ele>
        <time>2021-08-30T11:15:53Z</time>
      </trkpt>
      <trkpt lat="45.17076" lon="5.64376">
        <ele>1024.4</ele>
        <time>2021-08-30T11:15:55Z</time>
      </trkpt>
      <trkpt lat="45.17077" lon="5.64376">
        <ele>1024.4</ele>
        <time>2021-08-30T11:15:56Z</time>
      </trkpt>
      <trkpt lat="45.17078" lon="5.64377">
        <ele>1024.4</ele>
        <time>2021-08-30T11:15:58Z</time>
      </trkpt>
      <trkpt lat="45.17077" lon="5.64377">
        <ele>1024.5</ele>
        <time>2021-08-30T11:15:59Z</time>
      </trkpt>
      <trkpt lat="45.17077" lon="5.64378">
        <ele>1024.5</ele>
        <time>2021-08-30T11:16:00Z</time>
      </trkpt>
      <trkpt lat="45.17076" lon="5.64379">
        <ele>1024.5</ele>
        <time>2021-08-30T11:16:02Z</time>
      </trkpt>
      <trkpt lat="45.17076" lon="5.64379">
        <ele>1024.5</ele>
        <time>2021-08-30T11:16:03Z</time>
      </trkpt>
      <trkpt lat="45.17075" lon="5.6438">
        <ele>1024</ele>
        <time>2021-08-30T11:16:04Z</time>
      </trkpt>
      <trkpt lat="45.17075" lon="5.64381">
        <ele>1024</ele>
        <time>2021-08-30T11:16:06Z</time>
      </trkpt>
      <trkpt lat="45.17074" lon="5.64381">
        <ele>1024.1</ele>
        <time>2021-08-30T11:16:08Z</time>
      </trkpt>
      <trkpt lat="45.17074" lon="5.64382">
        <ele>1024.1</ele>
        <time>2021-08-30T11:16:09Z</time>
      </trkpt>
      <trkpt lat="45.17073" lon="5.64383">
        <ele>1024.1</ele>
        <time>2021-08-30T11:16:11Z</time>
      </trkpt>
      <trkpt lat="45.17072" lon="5.64383">
        <ele>1024.1</ele>
        <time>2021-08-30T11:16:12Z</time>
      </trkpt>
      <trkpt lat="45.17071" lon="5.64383">
        <ele>1024.1</ele>
        <time>2021-08-30T11:16:13Z</time>
      </trkpt>
      <trkpt lat="45.17071" lon="5.64383">
        <ele>1024.2</ele>
        <time>2021-08-30T11:16:14Z</time>
      </trkpt>
      <trkpt lat="45.1707" lon="5.64382">
        <ele>1024.2</ele>
        <time>2021-08-30T11:16:16Z</time>
      </trkpt>
      <trkpt lat="45.1707" lon="5.64381">
        <ele>1024.2</ele>
        <time>2021-08-30T11:16:17Z</time>
      </trkpt>
      <trkpt lat="45.1707" lon="5.6438">
        <ele>1024.8</ele>
        <time>2021-08-30T11:16:18Z</time>
      </trkpt>
      <trkpt lat="45.1707" lon="5.64375">
        <ele>1025.3</ele>
        <time>2021-08-30T11:16:21Z</time>
      </trkpt>
      <trkpt lat="45.1707" lon="5.64373">
        <ele>1025.3</ele>
        <time>2021-08-30T11:16:22Z</time>
      </trkpt>
      <trkpt lat="45.1707" lon="5.64371">
        <ele>1025.8</ele>
        <time>2021-08-30T11:16:24Z</time>
      </trkpt>
      <trkpt lat="45.17071" lon="5.6437">
        <ele>1025.8</ele>
        <time>2021-08-30T11:16:25Z</time>
      </trkpt>
      <trkpt lat="45.17071" lon="5.64368">
        <ele>1025.8</ele>
        <time>2021-08-30T11:16:27Z</time>
      </trkpt>
      <trkpt lat="45.1707" lon="5.64367">
        <ele>1025.9</ele>
        <time>2021-08-30T11:16:28Z</time>
      </trkpt>
      <trkpt lat="45.17069" lon="5.64367">
        <ele>1026.3</ele>
        <time>2021-08-30T11:16:29Z</time>
      </trkpt>
      <trkpt lat="45.17067" lon="5.64367">
        <ele>1026.4</ele>
        <time>2021-08-30T11:16:30Z</time>
      </trkpt>
      <trkpt lat="45.17066" lon="5.64367">
        <ele>1026.4</ele>
        <time>2021-08-30T11:16:32Z</time>
      </trkpt>
      <trkpt lat="45.17066" lon="5.64367">
        <ele>1026.4</ele>
        <time>2021-08-30T11:16:33Z</time>
      </trkpt>
      <trkpt lat="45.17063" lon="5.64366">
        <ele>1026.6</ele>
        <time>2021-08-30T11:16:34Z</time>
      </trkpt>
      <trkpt lat="45.1706" lon="5.64365">
        <ele>1026.9</ele>
        <time>2021-08-30T11:16:36Z</time>
      </trkpt>
      <trkpt lat="45.17059" lon="5.64364">
        <ele>1027</ele>
        <time>2021-08-30T11:16:37Z</time>
      </trkpt>
      <trkpt lat="45.17059" lon="5.64364">
        <ele>1027</ele>
        <time>2021-08-30T11:16:38Z</time>
      </trkpt>
      <trkpt lat="45.17055" lon="5.64362">
        <ele>1027.4</ele>
        <time>2021-08-30T11:16:40Z</time>
      </trkpt>
      <trkpt lat="45.1705" lon="5.64358">
        <ele>1028</ele>
        <time>2021-08-30T11:16:41Z</time>
      </trkpt>
      <trkpt lat="45.17046" lon="5.64355">
        <ele>1028.5</ele>
        <time>2021-08-30T11:16:42Z</time>
      </trkpt>
      <trkpt lat="45.17039" lon="5.64349">
        <ele>1029.6</ele>
        <time>2021-08-30T11:16:43Z</time>
      </trkpt>
      <trkpt lat="45.17037" lon="5.64349">
        <ele>1029.8</ele>
        <time>2021-08-30T11:16:45Z</time>
      </trkpt>
      <trkpt lat="45.17037" lon="5.6435">
        <ele>1029.9</ele>
        <time>2021-08-30T11:16:46Z</time>
      </trkpt>
      <trkpt lat="45.17037" lon="5.64351">
        <ele>1030</ele>
        <time>2021-08-30T11:16:48Z</time>
      </trkpt>
      <trkpt lat="45.17037" lon="5.64352">
        <ele>1030.1</ele>
        <time>2021-08-30T11:16:50Z</time>
      </trkpt>
      <trkpt lat="45.17037" lon="5.64353">
        <ele>1030.2</ele>
        <time>2021-08-30T11:16:51Z</time>
      </trkpt>
      <trkpt lat="45.17036" lon="5.64354">
        <ele>1030.3</ele>
        <time>2021-08-30T11:16:52Z</time>
      </trkpt>
      <trkpt lat="45.17036" lon="5.64355">
        <ele>1030.4</ele>
        <time>2021-08-30T11:16:53Z</time>
      </trkpt>
      <trkpt lat="45.1693" lon="5.64293">
        <ele>1044</ele>
        <time>2021-08-30T11:20:29Z</time>
      </trkpt>
      <trkpt lat="45.16927" lon="5.64292">
        <ele>1044.5</ele>
        <time>2021-08-30T11:20:30Z</time>
      </trkpt>
      <trkpt lat="45.16925" lon="5.64292">
        <ele>1044.6</ele>
        <time>2021-08-30T11:20:31Z</time>
      </trkpt>
      <trkpt lat="45.16924" lon="5.64291">
        <ele>1044.8</ele>
        <time>2021-08-30T11:20:33Z</time>
      </trkpt>
      <trkpt lat="45.16924" lon="5.64291">
        <ele>1044.8</ele>
        <time>2021-08-30T11:20:34Z</time>
      </trkpt>
      <trkpt lat="45.16923" lon="5.64289">
        <ele>1045</ele>
        <time>2021-08-30T11:20:35Z</time>
      </trkpt>
      <trkpt lat="45.1692" lon="5.6429">
        <ele>1045.4</ele>
        <time>2021-08-30T11:20:36Z</time>
      </trkpt>
      <trkpt lat="45.16919" lon="5.64292">
        <ele>1045.7</ele>
        <time>2021-08-30T11:20:37Z</time>
      </trkpt>
      <trkpt lat="45.16918" lon="5.64291">
        <ele>1045.8</ele>
        <time>2021-08-30T11:20:39Z</time>
      </trkpt>
      <trkpt lat="45.16918" lon="5.64287">
        <ele>1046.3</ele>
        <time>2021-08-30T11:20:40Z</time>
      </trkpt>
      <trkpt lat="45.16918" lon="5.64284">
        <ele>1046.6</ele>
        <time>2021-08-30T11:20:41Z</time>
      </trkpt>
      <trkpt lat="45.16917" lon="5.64279">
        <ele>1047.2</ele>
        <time>2021-08-30T11:20:43Z</time>
      </trkpt>
      <trkpt lat="45.16917" lon="5.64277">
        <ele>1047.4</ele>
        <time>2021-08-30T11:20:45Z</time>
      </trkpt>
      <trkpt lat="45.16917" lon="5.64275">
        <ele>1047.7</ele>
        <time>2021-08-30T11:20:46Z</time>
      </trkpt>
      <trkpt lat="45.16917" lon="5.64274">
        <ele>1047.8</ele>
        <time>2021-08-30T11:20:47Z</time>
      </trkpt>
      <trkpt lat="45.16917" lon="5.64269">
        <ele>1048.3</ele>
        <time>2021-08-30T11:20:49Z</time>
      </trkpt>
      <trkpt lat="45.16917" lon="5.64268">
        <ele>1048.4</ele>
        <time>2021-08-30T11:20:50Z</time>
      </trkpt>
      <trkpt lat="45.16916" lon="5.64263">
        <ele>1049</ele>
        <time>2021-08-30T11:20:52Z</time>
      </trkpt>
      <trkpt lat="45.1692" lon="5.64165">
        <ele>1065.6</ele>
        <time>2021-08-30T11:23:57Z</time>
      </trkpt>
      <trkpt lat="45.1692" lon="5.64166">
        <ele>1065.7</ele>
        <time>2021-08-30T11:23:58Z</time>
      </trkpt>
      <trkpt lat="45.16919" lon="5.64167">
        <ele>1065.8</ele>
        <time>2021-08-30T11:23:59Z</time>
      </trkpt>
      <trkpt lat="45.16919" lon="5.64168">
        <ele>1065.9</ele>
        <time>2021-08-30T11:24:01Z</time>
      </trkpt>
      <trkpt lat="45.16919" lon="5.64168">
        <ele>1065.9</ele>
        <time>2021-08-30T11:24:02Z</time>
      </trkpt>
      <trkpt lat="45.16919" lon="5.64168">
        <ele>1066</ele>
        <time>2021-08-30T11:24:03Z</time>
      </trkpt>
      <trkpt lat="45.16918" lon="5.64168">
        <ele>1066.1</ele>
        <time>2021-08-30T11:24:05Z</time>
      </trkpt>
      <trkpt lat="45.16917" lon="5.64169">
        <ele>1066.2</ele>
        <time>2021-08-30T11:24:06Z</time>
      </trkpt>
      <trkpt lat="45.16916" lon="5.64169">
        <ele>1066.3</ele>
        <time>2021-08-30T11:24:07Z</time>
      </trkpt>
      <trkpt lat="45.16915" lon="5.64169">
        <ele>1066.5</ele>
        <time>2021-08-30T11:24:09Z</time>
      </trkpt>
      <trkpt lat="45.16914" lon="5.64169">
        <ele>1066.6</ele>
        <time>2021-08-30T11:24:10Z</time>
      </trkpt>
      <trkpt lat="45.16913" lon="5.64169">
        <ele>1066.7</ele>
        <time>2021-08-30T11:24:11Z</time>
      </trkpt>
      <trkpt lat="45.16912" lon="5.64168">
        <ele>1066.9</ele>
        <time>2021-08-30T11:24:13Z</time>
      </trkpt>
      <trkpt lat="45.16911" lon="5.64168">
        <ele>1067</ele>
        <time>2021-08-30T11:24:14Z</time>
      </trkpt>
      <trkpt lat="45.16908" lon="5.64166">
        <ele>1067.3</ele>
        <time>2021-08-30T11:24:16Z</time>
      </trkpt>
      <trkpt lat="45.16906" lon="5.64166">
        <ele>1067.5</ele>
        <time>2021-08-30T11:24:17Z</time>
      </trkpt>
      <trkpt lat="45.16905" lon="5.64166">
        <ele>1067.7</ele>
        <time>2021-08-30T11:24:19Z</time>
      </trkpt>
      <trkpt lat="45.16903" lon="5.64166">
        <ele>1067.8</ele>
        <time>2021-08-30T11:24:20Z</time>
      </trkpt>
      <trkpt lat="45.16902" lon="5.64167">
        <ele>1068</ele>
        <time>2021-08-30T11:24:22Z</time>
      </trkpt>
      <trkpt lat="45.16901" lon="5.64166">
        <ele>1068.1</ele>
        <time>2021-08-30T11:24:23Z</time>
      </trkpt>
      <trkpt lat="45.169" lon="5.64165">
        <ele>1068.2</ele>
        <time>2021-08-30T11:24:24Z</time>
      </trkpt>
      <trkpt lat="45.16899" lon="5.64163">
        <ele>1068.4</ele>
        <time>2021-08-30T11:24:26Z</time>
      </trkpt>
      <trkpt lat="45.16899" lon="5.64162">
        <ele>1068.5</ele>
        <time>2021-08-30T11:24:27Z</time>
      </trkpt>
      <trkpt lat="45.16897" lon="5.64161">
        <ele>1068.7</ele>
        <time>2021-08-30T11:24:29Z</time>
      </trkpt>
      <trkpt lat="45.16897" lon="5.64159">
        <ele>1068.8</ele>
        <time>2021-08-30T11:24:30Z</time>
      </trkpt>
      <trkpt lat="45.16905" lon="5.64144">
        <ele>1070.6</ele>
        <time>2021-08-30T11:24:31Z</time>
      </trkpt>
      <trkpt lat="45.16905" lon="5.64139">
        <ele>1070.6</ele>
        <time>2021-08-30T11:24:33Z</time>
      </trkpt>
      <trkpt lat="45.16905" lon="5.64138">
        <ele>1070.6</ele>
        <time>2021-08-30T11:24:34Z</time>
      </trkpt>
      <trkpt lat="45.16904" lon="5.64136">
        <ele>1070.6</ele>
        <time>2021-08-30T11:24:36Z</time>
      </trkpt>
      <trkpt lat="45.16903" lon="5.64136">
        <ele>1070.6</ele>
        <time>2021-08-30T11:24:37Z</time>
      </trkpt>
      <trkpt lat="45.16903" lon="5.64135">
        <ele>1070.6</ele>
        <time>2021-08-30T11:24:39Z</time>
      </trkpt>
      <trkpt lat="45.16903" lon="5.64135">
        <ele>1070.6</ele>
        <time>2021-08-30T11:24:40Z</time>
      </trkpt>
      <trkpt lat="45.16856" lon="5.63918">
        <ele>1093.8</ele>
        <time>2021-08-30T11:28:44Z</time>
      </trkpt>
      <trkpt lat="45.1686" lon="5.63919">
        <ele>1093.7</ele>
        <time>2021-08-30T11:28:45Z</time>
      </trkpt>
      <trkpt lat="45.16867" lon="5.6392">
        <ele>1093.6</ele>
        <time>2021-08-30T11:28:47Z</time>
      </trkpt>
      <trkpt lat="45.16873" lon="5.63919">
        <ele>1093.8</ele>
        <time>2021-08-30T11:28:48Z</time>
      </trkpt>
      <trkpt lat="45.16878" lon="5.63918">
        <ele>1093.9</ele>
        <time>2021-08-30T11:28:50Z</time>
      </trkpt>
      <trkpt lat="45.16882" lon="5.63921">
        <ele>1094</ele>
        <time>2021-08-30T11:28:51Z</time>
      </trkpt>
      <trkpt lat="45.16887" lon="5.63923">
        <ele>1094.1</ele>
        <time>2021-08-30T11:28:53Z</time>
      </trkpt>
      <trkpt lat="45.1689" lon="5.63924">
        <ele>1094.2</ele>
        <time>2021-08-30T11:28:54Z</time>
      </trkpt>
      <trkpt lat="45.16891" lon="5.63925">
        <ele>1094.3</ele>
        <time>2021-08-30T11:28:55Z</time>
      </trkpt>
      <trkpt lat="45.169" lon="5.63926">
        <ele>1094.6</ele>
        <time>2021-08-30T11:28:57Z</time>
      </trkpt>
      <trkpt lat="45.16909" lon="5.63927">
        <ele>1094.9</ele>
        <time>2021-08-30T11:28:58Z</time>
      </trkpt>
      <trkpt lat="45.16919" lon="5.63928">
        <ele>1095.3</ele>
        <time>2021-08-30T11:28:59Z</time>
      </trkpt>
      <trkpt lat="45.16928" lon="5.63929">
        <ele>1095.6</ele>
        <time>2021-08-30T11:29:01Z</time>
      </trkpt>
      <trkpt lat="45.16938" lon="5.6393">
        <ele>1096</ele>
        <time>2021-08-30T11:29:02Z</time>
      </trkpt>
      <trkpt lat="45.16947" lon="5.63932">
        <ele>1096.3</ele>
        <time>2021-08-30T11:29:04Z</time>
      </trkpt>
      <trkpt lat="45.16957" lon="5.63933">
        <ele>1096.6</ele>
        <time>2021-08-30T12:17:20Z</time>
      </trkpt>
      <trkpt lat="45.16966" lon="5.63934">
        <ele>1097</ele>
        <time>2021-08-30T12:17:24Z</time>
      </trkpt>
      <trkpt lat="45.16966" lon="5.63933">
        <ele>1097</ele>
        <time>2021-08-30T12:17:26Z</time>
      </trkpt>
      <trkpt lat="45.16963" lon="5.63932">
        <ele>1097</ele>
        <time>2021-08-30T12:17:28Z</time>
      </trkpt>
      <trkpt lat="45.16954" lon="5.63927">
        <ele>1096.9</ele>
        <time>2021-08-30T12:17:29Z</time>
      </trkpt>
      <trkpt lat="45.16949" lon="5.63923">
        <ele>1096.8</ele>
        <time>2021-08-30T12:17:30Z</time>
      </trkpt>
      <trkpt lat="45.16943" lon="5.63921">
        <ele>1096.8</ele>
        <time>2021-08-30T12:17:32Z</time>
      </trkpt>
      <trkpt lat="45.1694" lon="5.6392">
        <ele>1096.8</ele>
        <time>2021-08-30T12:17:33Z</time>
      </trkpt>
      <trkpt lat="45.16939" lon="5.6392">
        <ele>1096.8</ele>
        <time>2021-08-30T12:17:35Z</time>
      </trkpt>
      <trkpt lat="45.16938" lon="5.63919">
        <ele>1096.8</ele>
        <time>2021-08-30T12:17:36Z</time>
      </trkpt>
      <trkpt lat="45.16937" lon="5.63919">
        <ele>1096.8</ele>
        <time>2021-08-30T12:17:38Z</time>
      </trkpt>
      <trkpt lat="45.16936" lon="5.63919">
        <ele>1096.7</ele>
        <time>2021-08-30T12:17:39Z</time>
      </trkpt>
      <trkpt lat="45.16935" lon="5.63919">
        <ele>1096.7</ele>
        <time>2021-08-30T12:17:40Z</time>
      </trkpt>
      <trkpt lat="45.1693" lon="5.63916">
        <ele>1096.7</ele>
        <time>2021-08-30T12:17:42Z</time>
      </trkpt>
      <trkpt lat="45.16928" lon="5.63915">
        <ele>1096.7</ele>
        <time>2021-08-30T12:17:43Z</time>
      </trkpt>
      <trkpt lat="45.16926" lon="5.63914">
        <ele>1096.7</ele>
        <time>2021-08-30T12:17:45Z</time>
      </trkpt>
      <trkpt lat="45.16927" lon="5.63916">
        <ele>1096.7</ele>
        <time>2021-08-30T12:17:46Z</time>
      </trkpt>
      <trkpt lat="45.16927" lon="5.63917">
        <ele>1096.6</ele>
        <time>2021-08-30T12:17:47Z</time>
      </trkpt>
      <trkpt lat="45.16928" lon="5.63919">
        <ele>1096.6</ele>
        <time>2021-08-30T12:17:48Z</time>
      </trkpt>
      <trkpt lat="45.16929" lon="5.6392">
        <ele>1096.6</ele>
        <time>2021-08-30T12:17:49Z</time>
      </trkpt>
      <trkpt lat="45.16929" lon="5.63929">
        <ele>1096.6</ele>
        <time>2021-08-30T12:17:51Z</time>
      </trkpt>
      <trkpt lat="45.16929" lon="5.63933">
        <ele>1096.5</ele>
        <time>2021-08-30T12:17:52Z</time>
      </trkpt>
      <trkpt lat="45.16929" lon="5.63938">
        <ele>1096.5</ele>
        <time>2021-08-30T12:17:54Z</time>
      </trkpt>
      <trkpt lat="45.16931" lon="5.63943">
        <ele>1096.5</ele>
        <time>2021-08-30T12:17:56Z</time>
      </trkpt>
      <trkpt lat="45.16932" lon="5.63946">
        <ele>1096.5</ele>
        <time>2021-08-30T12:17:58Z</time>
      </trkpt>
      <trkpt lat="45.16935" lon="5.63949">
        <ele>1096.4</ele>
        <time>2021-08-30T12:18:00Z</time>
      </trkpt>
      <trkpt lat="45.16938" lon="5.63953">
        <ele>1096.4</ele>
        <time>2021-08-30T12:18:02Z</time>
      </trkpt>
      <trkpt lat="45.16939" lon="5.63953">
        <ele>1096.4</ele>
        <time>2021-08-30T12:18:04Z</time>
      </trkpt>
      <trkpt lat="45.16915" lon="5.63911">
        <ele>1096.1</ele>
        <time>2021-08-30T12:18:51Z</time>
      </trkpt>
      <trkpt lat="45.16913" lon="5.63909">
        <ele>1096.1</ele>
        <time>2021-08-30T12:18:53Z</time>
      </trkpt>
      <trkpt lat="45.16914" lon="5.63911">
        <ele>1096.1</ele>
        <time>2021-08-30T12:18:55Z</time>
      </trkpt>
      <trkpt lat="45.16914" lon="5.63912">
        <ele>1096.1</ele>
        <time>2021-08-30T12:18:56Z</time>
      </trkpt>
      <trkpt lat="45.16914" lon="5.63913">
        <ele>1096.1</ele>
        <time>2021-08-30T12:18:58Z</time>
      </trkpt>
      <trkpt lat="45.16914" lon="5.63914">
        <ele>1096.1</ele>
        <time>2021-08-30T12:19:00Z</time>
      </trkpt>
      <trkpt lat="45.16914" lon="5.63914">
        <ele>1096.1</ele>
        <time>2021-08-30T12:19:02Z</time>
      </trkpt>
      <trkpt lat="45.16919" lon="5.63909">
        <ele>1096</ele>
        <time>2021-08-30T12:19:04Z</time>
      </trkpt>
      <trkpt lat="45.16921" lon="5.63907">
        <ele>1096</ele>
        <time>2021-08-30T12:19:05Z</time>
      </trkpt>
      <trkpt lat="45.16921" lon="5.63905">
        <ele>1096</ele>
        <time>2021-08-30T12:19:07Z</time>
      </trkpt>
      <trkpt lat="45.16921" lon="5.63905">
        <ele>1096</ele>
        <time>2021-08-30T12:19:08Z</time>
      </trkpt>
      <trkpt lat="45.16921" lon="5.63905">
        <ele>1096</ele>
        <time>2021-08-30T12:19:10Z</time>
      </trkpt>
      <trkpt lat="45.16921" lon="5.63905">
        <ele>1096</ele>
        <time>2021-08-30T12:19:11Z</time>
      </trkpt>
      <trkpt lat="45.16921" lon="5.63905">
        <ele>1096</ele>
        <time>2021-08-30T12:19:13Z</time>
      </trkpt>
      <trkpt lat="45.16921" lon="5.63905">
        <ele>1096</ele>
        <time>2021-08-30T12:19:15Z</time>
      </trkpt>
      <trkpt lat="45.16921" lon="5.63905">
        <ele>1096</ele>
        <time>2021-08-30T12:19:17Z</time>
      </trkpt>
      <trkpt lat="45.16921" lon="5.63905">
        <ele>1096</ele>
        <time>2021-08-30T12:19:19Z</time>
      </trkpt>
      <trkpt lat="45.16921" lon="5.63905">
        <ele>1096</ele>
        <time>2021-08-30T12:19:20Z</time>
      </trkpt>
      <trkpt lat="45.16921" lon="5.63905">
        <ele>1096</ele>
        <time>2021-08-30T12:19:22Z</time>
      </trkpt>
      <trkpt lat="45.16921" lon="5.63905">
        <ele>1096</ele>
        <time>2021-08-30T12:19:23Z</time>
      </trkpt>
      <trkpt lat="45.16921" lon="5.63905">
        <ele>1096</ele>
        <time>2021-08-30T12:19:24Z</time>
      </trkpt>
      <trkpt lat="45.16921" lon="5.63905">
        <ele>1096</ele>
        <time>2021-08-30T12:19:25Z</time>
      </trkpt>
      <trkpt lat="45.16921" lon="5.63905">
        <ele>1096</ele>
        <time>2021-08-30T12:19:26Z</time>
      </trkpt>
      <trkpt lat="45.16914" lon="5.63903">
        <ele>1095.9</ele>
        <time>2021-08-30T12:19:28Z</time>
      </trkpt>
      <trkpt lat="45.16913" lon="5.63902">
        <ele>1095.9</ele>
        <time>2021-08-30T12:19:29Z</time>
      </trkpt>
      <trkpt lat="45.16912" lon="5.63901">
        <ele>1095.9</ele>
        <time>2021-08-30T12:19:30Z</time>
      </trkpt>
      <trkpt lat="45.16911" lon="5.63901">
        <ele>1095.9</ele>
        <time>2021-08-30T12:19:32Z</time>
      </trkpt>
      <trkpt lat="45.16911" lon="5.63901">
        <ele>1095.9</ele>
        <time>2021-08-30T12:19:33Z</time>
      </trkpt>
      <trkpt lat="45.16911" lon="5.63901">
        <ele>1095.9</ele>
        <time>2021-08-30T12:19:35Z</time>
      </trkpt>
      <trkpt lat="45.16911" lon="5.63901">
        <ele>1095.9</ele>
        <time>2021-08-30T12:19:36Z</time>
      </trkpt>
      <trkpt lat="45.16911" lon="5.63901">
        <ele>1095.9</ele>
        <time>2021-08-30T12:19:38Z</time>
      </trkpt>
      <trkpt lat="45.16911" lon="5.63901">
        <ele>1095.9</ele>
        <time>2021-08-30T12:19:39Z</time>
      </trkpt>
      <trkpt lat="45.16911" lon="5.63901">
        <ele>1095.9</ele>
        <time>2021-08-30T12:19:41Z</time>
      </trkpt>
      <trkpt lat="45.16911" lon="5.63901">
        <ele>1095.9</ele>
        <time>2021-08-30T12:19:43Z</time>
      </trkpt>
      <trkpt lat="45.16911" lon="5.63901">
        <ele>1095.9</ele>
        <time>2021-08-30T12:19:44Z</time>
      </trkpt>
      <trkpt lat="45.16911" lon="5.63901">
        <ele>1095.9</ele>
        <time>2021-08-30T12:19:46Z</time>
      </trkpt>
      <trkpt lat="45.16911" lon="5.63901">
        <ele>1095.9</ele>
        <time>2021-08-30T12:19:48Z</time>
      </trkpt>
      <trkpt lat="45.16911" lon="5.63901">
        <ele>1095.9</ele>
        <time>2021-08-30T12:19:49Z</time>
      </trkpt>
      <trkpt lat="45.16911" lon="5.63901">
        <ele>1095.9</ele>
        <time>2021-08-30T12:19:50Z</time>
      </trkpt>
      <trkpt lat="45.16911" lon="5.63901">
        <ele>1095.9</ele>
        <time>2021-08-30T12:19:52Z</time>
      </trkpt>
      <trkpt lat="45.16911" lon="5.63901">
        <ele>1095.9</ele>
        <time>2021-08-30T12:19:54Z</time>
      </trkpt>
      <trkpt lat="45.16911" lon="5.63901">
        <ele>1095.9</ele>
        <time>2021-08-30T12:19:55Z</time>
      </trkpt>
      <trkpt lat="45.16907" lon="5.63892">
        <ele>1095.8</ele>
        <time>2021-08-30T12:19:57Z</time>
      </trkpt>
      <trkpt lat="45.16907" lon="5.63889">
        <ele>1095.8</ele>
        <time>2021-08-30T12:19:59Z</time>
      </trkpt>
      <trkpt lat="45.16906" lon="5.63888">
        <ele>1095.8</ele>
        <time>2021-08-30T12:20:00Z</time>
      </trkpt>
      <trkpt lat="45.16906" lon="5.63888">
        <ele>1095.8</ele>
        <time>2021-08-30T12:20:02Z</time>
      </trkpt>
      <trkpt lat="45.16906" lon="5.63887">
        <ele>1095.8</ele>
        <time>2021-08-30T12:20:03Z</time>
      </trkpt>
      <trkpt lat="45.16906" lon="5.63887">
        <ele>1095.8</ele>
        <time>2021-08-30T12:20:05Z</time>
      </trkpt>
      <trkpt lat="45.16906" lon="5.63887">
        <ele>1095.8</ele>
        <time>2021-08-30T12:20:06Z</time>
      </trkpt>
      <trkpt lat="45.16906" lon="5.63887">
        <ele>1095.8</ele>
        <time>2021-08-30T12:20:07Z</time>
      </trkpt>
      <trkpt lat="45.16906" lon="5.63887">
        <ele>1095.8</ele>
        <time>2021-08-30T12:20:08Z</time>
      </trkpt>
      <trkpt lat="45.16906" lon="5.63887">
        <ele>1095.8</ele>
        <time>2021-08-30T12:20:10Z</time>
      </trkpt>
      <trkpt lat="45.16906" lon="5.63887">
        <ele>1095.8</ele>
        <time>2021-08-30T12:20:11Z</time>
      </trkpt>
      <trkpt lat="45.16906" lon="5.63887">
        <ele>1095.8</ele>
        <time>2021-08-30T12:20:12Z</time>
      </trkpt>
      <trkpt lat="45.16906" lon="5.63887">
        <ele>1095.8</ele>
        <time>2021-08-30T12:20:13Z</time>
      </trkpt>
      <trkpt lat="45.16906" lon="5.63887">
        <ele>1095.8</ele>
        <time>2021-08-30T12:20:15Z</time>
      </trkpt>
      <trkpt lat="45.16906" lon="5.63887">
        <ele>1095.8</ele>
        <time>2021-08-30T12:20:16Z</time>
      </trkpt>
      <trkpt lat="45.16906" lon="5.63887">
        <ele>1095.8</ele>
        <time>2021-08-30T12:20:17Z</time>
      </trkpt>
      <trkpt lat="45.16906" lon="5.63887">
        <ele>1095.8</ele>
        <time>2021-08-30T12:20:19Z</time>
      </trkpt>
      <trkpt lat="45.16906" lon="5.63887">
        <ele>1095.8</ele>
        <time>2021-08-30T12:20:20Z</time>
      </trkpt>
      <trkpt lat="45.16906" lon="5.63887">
        <ele>1095.8</ele>
        <time>2021-08-30T12:20:22Z</time>
      </trkpt>
      <trkpt lat="45.16906" lon="5.63887">
        <ele>1095.8</ele>
        <time>2021-08-30T12:20:23Z</time>
      </trkpt>
      <trkpt lat="45.16906" lon="5.63887">
        <ele>1095.8</ele>
        <time>2021-08-30T12:20:25Z</time>
      </trkpt>
      <trkpt lat="45.16906" lon="5.63887">
        <ele>1095.8</ele>
        <time>2021-08-30T12:20:26Z</time>
      </trkpt>
      <trkpt lat="45.16906" lon="5.63887">
        <ele>1095.8</ele>
        <time>2021-08-30T12:20:28Z</time>
      </trkpt>
      <trkpt lat="45.16906" lon="5.63887">
        <ele>1095.8</ele>
        <time>2021-08-30T12:20:29Z</time>
      </trkpt>
      <trkpt lat="45.16906" lon="5.63887">
        <ele>1095.8</ele>
        <time>2021-08-30T12:20:31Z</time>
      </trkpt>
      <trkpt lat="45.16906" lon="5.63887">
        <ele>1095.8</ele>
        <time>2021-08-30T12:20:32Z</time>
      </trkpt>
      <trkpt lat="45.16906" lon="5.63887">
        <ele>1095.8</ele>
        <time>2021-08-30T12:20:34Z</time>
      </trkpt>
      <trkpt lat="45.16906" lon="5.63887">
        <ele>1095.8</ele>
        <time>2021-08-30T12:20:35Z</time>
      </trkpt>
      <trkpt lat="45.16906" lon="5.63887">
        <ele>1095.8</ele>
        <time>2021-08-30T12:20:37Z</time>
      </trkpt>
      <trkpt lat="45.16906" lon="5.63887">
        <ele>1095.8</ele>
        <time>2021-08-30T12:20:38Z</time>
      </trkpt>
      <trkpt lat="45.16906" lon="5.63887">
        <ele>1095.8</ele>
        <time>2021-08-30T12:20:40Z</time>
      </trkpt>
      <trkpt lat="45.16912" lon="5.63894">
        <ele>1095.8</ele>
        <time>2021-08-30T12:20:42Z</time>
      </trkpt>
      <trkpt lat="45.16914" lon="5.63896">
        <ele>1095.7</ele>
        <time>2021-08-30T12:20:43Z</time>
      </trkpt>
      <trkpt lat="45.16915" lon="5.63897">
        <ele>1095.7</ele>
        <time>2021-08-30T12:20:45Z</time>
      </trkpt>
      <trkpt lat="45.16915" lon="5.63896">
        <ele>1095.7</ele>
        <time>2021-08-30T12:20:46Z</time>
      </trkpt>
      <trkpt lat="45.16914" lon="5.63896">
        <ele>1095.7</ele>
        <time>2021-08-30T12:20:47Z</time>
      </trkpt>
      <trkpt lat="45.16914" lon="5.63895">
        <ele>1095.7</ele>
        <time>2021-08-30T12:20:49Z</time>
      </trkpt>
      <trkpt lat="45.16913" lon="5.63894">
        <ele>1095.7</ele>
        <time>2021-08-30T12:20:50Z</time>
      </trkpt>
      <trkpt lat="45.16913" lon="5.63893">
        <ele>1095.7</ele>
        <time>2021-08-30T12:20:52Z</time>
      </trkpt>
      <trkpt lat="45.16912" lon="5.63893">
        <ele>1095.7</ele>
        <time>2021-08-30T12:20:53Z</time>
      </trkpt>
      <trkpt lat="45.1691" lon="5.6389">
        <ele>1095.7</ele>
        <time>2021-08-30T12:20:55Z</time>
      </trkpt>
      <trkpt lat="45.16908" lon="5.63888">
        <ele>1095.7</ele>
        <time>2021-08-30T12:20:56Z</time>
      </trkpt>
      <trkpt lat="45.16908" lon="5.63888">
        <ele>1095.6</ele>
        <time>2021-08-30T12:20:58Z</time>
      </trkpt>
      <trkpt lat="45.16907" lon="5.63888">
        <ele>1095.6</ele>
        <time>2021-08-30T12:20:59Z</time>
      </trkpt>
      <trkpt lat="45.16907" lon="5.63888">
        <ele>1095.6</ele>
        <time>2021-08-30T12:21:01Z</time>
      </trkpt>
      <trkpt lat="45.16907" lon="5.63888">
        <ele>1095.6</ele>
        <time>2021-08-30T12:21:03Z</time>
      </trkpt>
      <trkpt lat="45.16907" lon="5.63888">
        <ele>1095.6</ele>
        <time>2021-08-30T12:21:05Z</time>
      </trkpt>
      <trkpt lat="45.16907" lon="5.63888">
        <ele>1095.6</ele>
        <time>2021-08-30T12:21:06Z</time>
      </trkpt>
      <trkpt lat="45.16911" lon="5.63898">
        <ele>1095.6</ele>
        <time>2021-08-30T12:21:08Z</time>
      </trkpt>
      <trkpt lat="45.16913" lon="5.63901">
        <ele>1095.6</ele>
        <time>2021-08-30T12:21:10Z</time>
      </trkpt>
      <trkpt lat="45.16913" lon="5.63901">
        <ele>1095.6</ele>
        <time>2021-08-30T12:21:12Z</time>
      </trkpt>
      <trkpt lat="45.16913" lon="5.63901">
        <ele>1095.6</ele>
        <time>2021-08-30T12:21:13Z</time>
      </trkpt>
      <trkpt lat="45.16914" lon="5.63901">
        <ele>1095.6</ele>
        <time>2021-08-30T12:21:14Z</time>
      </trkpt>
      <trkpt lat="45.16914" lon="5.63901">
        <ele>1095.6</ele>
        <time>2021-08-30T12:21:16Z</time>
      </trkpt>
      <trkpt lat="45.16914" lon="5.63901">
        <ele>1095.5</ele>
        <time>2021-08-30T12:21:18Z</time>
      </trkpt>
      <trkpt lat="45.16915" lon="5.63901">
        <ele>1095.5</ele>
        <time>2021-08-30T12:21:19Z</time>
      </trkpt>
      <trkpt lat="45.16915" lon="5.63901">
        <ele>1095.5</ele>
        <time>2021-08-30T12:21:20Z</time>
      </trkpt>
      <trkpt lat="45.16916" lon="5.63901">
        <ele>1095.5</ele>
        <time>2021-08-30T12:21:21Z</time>
      </trkpt>
      <trkpt lat="45.16916" lon="5.63901">
        <ele>1095.5</ele>
        <time>2021-08-30T12:21:23Z</time>
      </trkpt>
      <trkpt lat="45.16916" lon="5.63901">
        <ele>1095.5</ele>
        <time>2021-08-30T12:21:24Z</time>
      </trkpt>
      <trkpt lat="45.16919" lon="5.639">
        <ele>1095.5</ele>
        <time>2021-08-30T12:21:26Z</time>
      </trkpt>
      <trkpt lat="45.1692" lon="5.639">
        <ele>1095.5</ele>
        <time>2021-08-30T12:21:27Z</time>
      </trkpt>
      <trkpt lat="45.1692" lon="5.63901">
        <ele>1095.5</ele>
        <time>2021-08-30T12:21:28Z</time>
      </trkpt>
      <trkpt lat="45.1692" lon="5.63901">
        <ele>1095.5</ele>
        <time>2021-08-30T12:21:30Z</time>
      </trkpt>
      <trkpt lat="45.1692" lon="5.63901">
        <ele>1095.5</ele>
        <time>2021-08-30T12:21:32Z</time>
      </trkpt>
      <trkpt lat="45.1692" lon="5.63901">
        <ele>1095.5</ele>
        <time>2021-08-30T12:21:34Z</time>
      </trkpt>
      <trkpt lat="45.1692" lon="5.63901">
        <ele>1095.5</ele>
        <time>2021-08-30T12:21:36Z</time>
      </trkpt>
      <trkpt lat="45.1692" lon="5.63901">
        <ele>1095.5</ele>
        <time>2021-08-30T12:21:38Z</time>
      </trkpt>
      <trkpt lat="45.1692" lon="5.63901">
        <ele>1095.5</ele>
        <time>2021-08-30T12:21:40Z</time>
      </trkpt>
      <trkpt lat="45.1692" lon="5.63901">
        <ele>1095.5</ele>
        <time>2021-08-30T12:21:42Z</time>
      </trkpt>
      <trkpt lat="45.1692" lon="5.63901">
        <ele>1095.5</ele>
        <time>2021-08-30T12:21:44Z</time>
      </trkpt>
      <trkpt lat="45.1692" lon="5.63901">
        <ele>1095.5</ele>
        <time>2021-08-30T12:21:45Z</time>
      </trkpt>
      <trkpt lat="45.1692" lon="5.63901">
        <ele>1095.5</ele>
        <time>2021-08-30T12:21:46Z</time>
      </trkpt>
      <trkpt lat="45.1692" lon="5.63901">
        <ele>1095.5</ele>
        <time>2021-08-30T12:21:47Z</time>
      </trkpt>
      <trkpt lat="45.1692" lon="5.63901">
        <ele>1095.5</ele>
        <time>2021-08-30T12:21:49Z</time>
      </trkpt>
      <trkpt lat="45.1692" lon="5.63901">
        <ele>1095.5</ele>
        <time>2021-08-30T12:21:50Z</time>
      </trkpt>
      <trkpt lat="45.1692" lon="5.63901">
        <ele>1095.5</ele>
        <time>2021-08-30T12:21:51Z</time>
      </trkpt>
      <trkpt lat="45.1692" lon="5.63901">
        <ele>1095.5</ele>
        <time>2021-08-30T12:21:53Z</time>
      </trkpt>
      <trkpt lat="45.1692" lon="5.63901">
        <ele>1095.5</ele>
        <time>2021-08-30T12:21:54Z</time>
      </trkpt>
      <trkpt lat="45.16923" lon="5.63906">
        <ele>1095.5</ele>
        <time>2021-08-30T12:21:56Z</time>
      </trkpt>
      <trkpt lat="45.16924" lon="5.63907">
        <ele>1095.4</ele>
        <time>2021-08-30T12:21:57Z</time>
      </trkpt>
      <trkpt lat="45.16926" lon="5.63908">
        <ele>1095.4</ele>
        <time>2021-08-30T12:21:58Z</time>
      </trkpt>
      <trkpt lat="45.16929" lon="5.63909">
        <ele>1095.4</ele>
        <time>2021-08-30T12:22:00Z</time>
      </trkpt>
      <trkpt lat="45.16929" lon="5.63909">
        <ele>1095.4</ele>
        <time>2021-08-30T12:22:01Z</time>
      </trkpt>
      <trkpt lat="45.16931" lon="5.6391">
        <ele>1095.4</ele>
        <time>2021-08-30T12:22:03Z</time>
      </trkpt>
      <trkpt lat="45.16932" lon="5.63909">
        <ele>1095.4</ele>
        <time>2021-08-30T12:22:05Z</time>
      </trkpt>
      <trkpt lat="45.16933" lon="5.63909">
        <ele>1095.4</ele>
        <time>2021-08-30T12:22:06Z</time>
      </trkpt>
      <trkpt lat="45.16933" lon="5.63909">
        <ele>1095.4</ele>
        <time>2021-08-30T12:22:08Z</time>
      </trkpt>
      <trkpt lat="45.16933" lon="5.63909">
        <ele>1095.4</ele>
        <time>2021-08-30T12:22:09Z</time>
      </trkpt>
      <trkpt lat="45.16933" lon="5.63909">
        <ele>1095.4</ele>
        <time>2021-08-30T12:22:10Z</time>
      </trkpt>
      <trkpt lat="45.16933" lon="5.63909">
        <ele>1095.4</ele>
        <time>2021-08-30T12:22:11Z</time>
      </trkpt>
      <trkpt lat="45.16933" lon="5.63909">
        <ele>1095.4</ele>
        <time>2021-08-30T12:22:12Z</time>
      </trkpt>
      <trkpt lat="45.16933" lon="5.63909">
        <ele>1095.4</ele>
        <time>2021-08-30T12:22:13Z</time>
      </trkpt>
      <trkpt lat="45.16933" lon="5.63909">
        <ele>1095.4</ele>
        <time>2021-08-30T12:22:15Z</time>
      </trkpt>
      <trkpt lat="45.16933" lon="5.63909">
        <ele>1095.4</ele>
        <time>2021-08-30T12:22:16Z</time>
      </trkpt>
      <trkpt lat="45.16933" lon="5.63909">
        <ele>1095.4</ele>
        <time>2021-08-30T12:22:18Z</time>
      </trkpt>
      <trkpt lat="45.16934" lon="5.63911">
        <ele>1095.4</ele>
        <time>2021-08-30T12:22:20Z</time>
      </trkpt>
      <trkpt lat="45.16935" lon="5.63913">
        <ele>1095.4</ele>
        <time>2021-08-30T12:22:21Z</time>
      </trkpt>
      <trkpt lat="45.16934" lon="5.63914">
        <ele>1095.3</ele>
        <time>2021-08-30T12:22:23Z</time>
      </trkpt>
      <trkpt lat="45.16934" lon="5.63914">
        <ele>1095.3</ele>
        <time>2021-08-30T12:22:25Z</time>
      </trkpt>
      <trkpt lat="45.16934" lon="5.63914">
        <ele>1095.3</ele>
        <time>2021-08-30T12:22:27Z</time>
      </trkpt>
      <trkpt lat="45.16934" lon="5.63914">
        <ele>1095.3</ele>
        <time>2021-08-30T12:22:28Z</time>
      </trkpt>
      <trkpt lat="45.16934" lon="5.63914">
        <ele>1095.3</ele>
        <time>2021-08-30T12:22:29Z</time>
      </trkpt>
      <trkpt lat="45.16934" lon="5.63914">
        <ele>1095.3</ele>
        <time>2021-08-30T12:22:31Z</time>
      </trkpt>
      <trkpt lat="45.16934" lon="5.63914">
        <ele>1095.3</ele>
        <time>2021-08-30T12:22:32Z</time>
      </trkpt>
      <trkpt lat="45.16934" lon="5.63914">
        <ele>1095.3</ele>
        <time>2021-08-30T12:22:34Z</time>
      </trkpt>
      <trkpt lat="45.16934" lon="5.63914">
        <ele>1095.3</ele>
        <time>2021-08-30T12:22:35Z</time>
      </trkpt>
      <trkpt lat="45.1694" lon="5.63915">
        <ele>1095.3</ele>
        <time>2021-08-30T12:22:37Z</time>
      </trkpt>
      <trkpt lat="45.16941" lon="5.63916">
        <ele>1095.3</ele>
        <time>2021-08-30T12:22:38Z</time>
      </trkpt>
      <trkpt lat="45.16942" lon="5.63916">
        <ele>1095.3</ele>
        <time>2021-08-30T12:22:40Z</time>
      </trkpt>
      <trkpt lat="45.16942" lon="5.63916">
        <ele>1095.3</ele>
        <time>2021-08-30T12:22:41Z</time>
      </trkpt>
      <trkpt lat="45.16942" lon="5.63916">
        <ele>1095.3</ele>
        <time>2021-08-30T12:22:42Z</time>
      </trkpt>
      <trkpt lat="45.16942" lon="5.63916">
        <ele>1095.3</ele>
        <time>2021-08-30T12:22:44Z</time>
      </trkpt>
      <trkpt lat="45.16942" lon="5.63916">
        <ele>1095.3</ele>
        <time>2021-08-30T12:22:46Z</time>
      </trkpt>
      <trkpt lat="45.16942" lon="5.63916">
        <ele>1095.3</ele>
        <time>2021-08-30T12:22:48Z</time>
      </trkpt>
      <trkpt lat="45.16942" lon="5.63916">
        <ele>1095.3</ele>
        <time>2021-08-30T12:22:49Z</time>
      </trkpt>
      <trkpt lat="45.16942" lon="5.63916">
        <ele>1095.3</ele>
        <time>2021-08-30T12:22:50Z</time>
      </trkpt>
      <trkpt lat="45.16942" lon="5.63916">
        <ele>1095.3</ele>
        <time>2021-08-30T12:22:52Z</time>
      </trkpt>
      <trkpt lat="45.16942" lon="5.63916">
        <ele>1095.3</ele>
        <time>2021-08-30T12:22:53Z</time>
      </trkpt>
      <trkpt lat="45.16942" lon="5.63916">
        <ele>1095.3</ele>
        <time>2021-08-30T12:22:54Z</time>
      </trkpt>
      <trkpt lat="45.16942" lon="5.63916">
        <ele>1095.3</ele>
        <time>2021-08-30T12:22:56Z</time>
      </trkpt>
      <trkpt lat="45.16942" lon="5.63916">
        <ele>1095.3</ele>
        <time>2021-08-30T12:22:58Z</time>
      </trkpt>
      <trkpt lat="45.16942" lon="5.63916">
        <ele>1095.3</ele>
        <time>2021-08-30T12:22:59Z</time>
      </trkpt>
      <trkpt lat="45.16942" lon="5.63916">
        <ele>1095.3</ele>
        <time>2021-08-30T12:23:00Z</time>
      </trkpt>
      <trkpt lat="45.16942" lon="5.63916">
        <ele>1095.3</ele>
        <time>2021-08-30T12:23:01Z</time>
      </trkpt>
      <trkpt lat="45.16942" lon="5.63916">
        <ele>1095.3</ele>
        <time>2021-08-30T12:23:02Z</time>
      </trkpt>
      <trkpt lat="45.16942" lon="5.63916">
        <ele>1095.3</ele>
        <time>2021-08-30T12:23:04Z</time>
      </trkpt>
      <trkpt lat="45.16942" lon="5.63916">
        <ele>1095.3</ele>
        <time>2021-08-30T12:23:05Z</time>
      </trkpt>
      <trkpt lat="45.16942" lon="5.63916">
        <ele>1095.3</ele>
        <time>2021-08-30T12:23:07Z</time>
      </trkpt>
      <trkpt lat="45.16937" lon="5.63915">
        <ele>1095.2</ele>
        <time>2021-08-30T12:23:09Z</time>
      </trkpt>
      <trkpt lat="45.16932" lon="5.63913">
        <ele>1095.2</ele>
        <time>2021-08-30T12:23:11Z</time>
      </trkpt>
      <trkpt lat="45.16931" lon="5.63912">
        <ele>1095.2</ele>
        <time>2021-08-30T12:23:12Z</time>
      </trkpt>
      <trkpt lat="45.1693" lon="5.63912">
        <ele>1095.2</ele>
        <time>2021-08-30T12:23:14Z</time>
      </trkpt>
      <trkpt lat="45.1693" lon="5.63912">
        <ele>1095.2</ele>
        <time>2021-08-30T12:23:16Z</time>
      </trkpt>
      <trkpt lat="45.16929" lon="5.63912">
        <ele>1095.2</ele>
        <time>2021-08-30T12:23:17Z</time>
      </trkpt>
      <trkpt lat="45.16929" lon="5.63912">
        <ele>1095.2</ele>
        <time>2021-08-30T12:23:18Z</time>
      </trkpt>
      <trkpt lat="45.16929" lon="5.63912">
        <ele>1095.2</ele>
        <time>2021-08-30T12:23:20Z</time>
      </trkpt>
      <trkpt lat="45.16929" lon="5.63912">
        <ele>1095.2</ele>
        <time>2021-08-30T12:23:21Z</time>
      </trkpt>
      <trkpt lat="45.16926" lon="5.63909">
        <ele>1095.1</ele>
        <time>2021-08-30T12:23:23Z</time>
      </trkpt>
      <trkpt lat="45.16923" lon="5.63906">
        <ele>1095.1</ele>
        <time>2021-08-30T12:23:24Z</time>
      </trkpt>
      <trkpt lat="45.1692" lon="5.63903">
        <ele>1095.1</ele>
        <time>2021-08-30T12:23:26Z</time>
      </trkpt>
      <trkpt lat="45.16919" lon="5.63904">
        <ele>1095.1</ele>
        <time>2021-08-30T12:23:27Z</time>
      </trkpt>
      <trkpt lat="45.16917" lon="5.63907">
        <ele>1095</ele>
        <time>2021-08-30T12:23:29Z</time>
      </trkpt>
      <trkpt lat="45.16916" lon="5.6391">
        <ele>1095</ele>
        <time>2021-08-30T12:23:31Z</time>
      </trkpt>
      <trkpt lat="45.16916" lon="5.63914">
        <ele>1095</ele>
        <time>2021-08-30T12:23:33Z</time>
      </trkpt>
      <trkpt lat="45.16918" lon="5.63917">
        <ele>1095</ele>
        <time>2021-08-30T12:23:35Z</time>
      </trkpt>
      <trkpt lat="45.16921" lon="5.63921">
        <ele>1094.9</ele>
        <time>2021-08-30T12:23:36Z</time>
      </trkpt>
      <trkpt lat="45.16923" lon="5.63921">
        <ele>1094.9</ele>
        <time>2021-08-30T12:23:37Z</time>
      </trkpt>
      <trkpt lat="45.16927" lon="5.63921">
        <ele>1094.9</ele>
        <time>2021-08-30T12:23:39Z</time>
      </trkpt>
      <trkpt lat="45.16927" lon="5.63921">
        <ele>1094.9</ele>
        <time>2021-08-30T12:23:41Z</time>
      </trkpt>
      <trkpt lat="45.16927" lon="5.63921">
        <ele>1094.9</ele>
        <time>2021-08-30T12:23:42Z</time>
      </trkpt>
      <trkpt lat="45.16927" lon="5.63921">
        <ele>1094.9</ele>
        <time>2021-08-30T12:23:43Z</time>
      </trkpt>
      <trkpt lat="45.16927" lon="5.63921">
        <ele>1094.9</ele>
        <time>2021-08-30T12:23:44Z</time>
      </trkpt>
      <trkpt lat="45.16927" lon="5.63921">
        <ele>1094.9</ele>
        <time>2021-08-30T12:23:46Z</time>
      </trkpt>
      <trkpt lat="45.1693" lon="5.63931">
        <ele>1094.8</ele>
        <time>2021-08-30T12:23:48Z</time>
      </trkpt>
      <trkpt lat="45.16931" lon="5.63934">
        <ele>1094.8</ele>
        <time>2021-08-30T12:23:49Z</time>
      </trkpt>
      <trkpt lat="45.16931" lon="5.63935">
        <ele>1094.8</ele>
        <time>2021-08-30T12:23:50Z</time>
      </trkpt>
      <trkpt lat="45.16931" lon="5.63937">
        <ele>1094.8</ele>
        <time>2021-08-30T12:23:52Z</time>
      </trkpt>
      <trkpt lat="45.1693" lon="5.63937">
        <ele>1094.8</ele>
        <time>2021-08-30T12:23:53Z</time>
      </trkpt>
      <trkpt lat="45.1693" lon="5.63937">
        <ele>1094.8</ele>
        <time>2021-08-30T12:23:55Z</time>
      </trkpt>
      <trkpt lat="45.1693" lon="5.63936">
        <ele>1094.8</ele>
        <time>2021-08-30T12:23:56Z</time>
      </trkpt>
      <trkpt lat="45.1693" lon="5.63934">
        <ele>1094.8</ele>
        <time>2021-08-30T12:23:58Z</time>
      </trkpt>
      <trkpt lat="45.1693" lon="5.63932">
        <ele>1094.7</ele>
        <time>2021-08-30T12:23:59Z</time>
      </trkpt>
      <trkpt lat="45.1693" lon="5.6393">
        <ele>1094.7</ele>
        <time>2021-08-30T12:24:01Z</time>
      </trkpt>
      <trkpt lat="45.1693" lon="5.63929">
        <ele>1094.7</ele>
        <time>2021-08-30T12:24:02Z</time>
      </trkpt>
      <trkpt lat="45.1693" lon="5.63929">
        <ele>1094.7</ele>
        <time>2021-08-30T12:24:04Z</time>
      </trkpt>
      <trkpt lat="45.16929" lon="5.63929">
        <ele>1094.7</ele>
        <time>2021-08-30T12:24:05Z</time>
      </trkpt>
      <trkpt lat="45.16929" lon="5.63928">
        <ele>1094.7</ele>
        <time>2021-08-30T12:24:07Z</time>
      </trkpt>
      <trkpt lat="45.16929" lon="5.63928">
        <ele>1094.7</ele>
        <time>2021-08-30T12:24:08Z</time>
      </trkpt>
      <trkpt lat="45.16929" lon="5.63928">
        <ele>1094.7</ele>
        <time>2021-08-30T12:24:10Z</time>
      </trkpt>
      <trkpt lat="45.16929" lon="5.63928">
        <ele>1094.7</ele>
        <time>2021-08-30T12:24:12Z</time>
      </trkpt>
      <trkpt lat="45.16928" lon="5.63928">
        <ele>1094.7</ele>
        <time>2021-08-30T12:24:14Z</time>
      </trkpt>
      <trkpt lat="45.16928" lon="5.63927">
        <ele>1094.7</ele>
        <time>2021-08-30T12:24:16Z</time>
      </trkpt>
      <trkpt lat="45.16928" lon="5.63927">
        <ele>1094.7</ele>
        <time>2021-08-30T12:24:18Z</time>
      </trkpt>
      <trkpt lat="45.16928" lon="5.63927">
        <ele>1094.7</ele>
        <time>2021-08-30T12:24:20Z</time>
      </trkpt>
      <trkpt lat="45.16928" lon="5.63927">
        <ele>1094.7</ele>
        <time>2021-08-30T12:24:22Z</time>
      </trkpt>
      <trkpt lat="45.16927" lon="5.63927">
        <ele>1094.7</ele>
        <time>2021-08-30T12:24:23Z</time>
      </trkpt>
      <trkpt lat="45.16927" lon="5.63926">
        <ele>1094.7</ele>
        <time>2021-08-30T12:24:25Z</time>
      </trkpt>
      <trkpt lat="45.16927" lon="5.63926">
        <ele>1094.7</ele>
        <time>2021-08-30T12:24:27Z</time>
      </trkpt>
      <trkpt lat="45.16927" lon="5.63926">
        <ele>1094.7</ele>
        <time>2021-08-30T12:24:28Z</time>
      </trkpt>
      <trkpt lat="45.16926" lon="5.63921">
        <ele>1094.7</ele>
        <time>2021-08-30T12:24:30Z</time>
      </trkpt>
      <trkpt lat="45.16925" lon="5.63918">
        <ele>1094.7</ele>
        <time>2021-08-30T12:24:31Z</time>
      </trkpt>
      <trkpt lat="45.16924" lon="5.63918">
        <ele>1094.6</ele>
        <time>2021-08-30T12:24:33Z</time>
      </trkpt>
      <trkpt lat="45.16924" lon="5.63917">
        <ele>1094.6</ele>
        <time>2021-08-30T12:24:34Z</time>
      </trkpt>
      <trkpt lat="45.16923" lon="5.63917">
        <ele>1094.6</ele>
        <time>2021-08-30T12:24:36Z</time>
      </trkpt>
      <trkpt lat="45.16923" lon="5.63916">
        <ele>1094.6</ele>
        <time>2021-08-30T12:24:37Z</time>
      </trkpt>
      <trkpt lat="45.16922" lon="5.63916">
        <ele>1094.6</ele>
        <time>2021-08-30T12:24:39Z</time>
      </trkpt>
      <trkpt lat="45.16922" lon="5.63915">
        <ele>1094.6</ele>
        <time>2021-08-30T12:24:40Z</time>
      </trkpt>
      <trkpt lat="45.16921" lon="5.63915">
        <ele>1094.6</ele>
        <time>2021-08-30T12:24:41Z</time>
      </trkpt>
      <trkpt lat="45.16916" lon="5.6391">
        <ele>1094.6</ele>
        <time>2021-08-30T12:24:43Z</time>
      </trkpt>
      <trkpt lat="45.16916" lon="5.63909">
        <ele>1094.6</ele>
        <time>2021-08-30T12:24:44Z</time>
      </trkpt>
      <trkpt lat="45.16916" lon="5.63908">
        <ele>1094.6</ele>
        <time>2021-08-30T12:24:46Z</time>
      </trkpt>
      <trkpt lat="45.16916" lon="5.63907">
        <ele>1094.6</ele>
        <time>2021-08-30T12:24:48Z</time>
      </trkpt>
      <trkpt lat="45.16916" lon="5.63907">
        <ele>1094.6</ele>
        <time>2021-08-30T12:24:49Z</time>
      </trkpt>
      <trkpt lat="45.16916" lon="5.63907">
        <ele>1094.6</ele>
        <time>2021-08-30T12:24:50Z</time>
      </trkpt>
      <trkpt lat="45.16916" lon="5.63907">
        <ele>1094.6</ele>
        <time>2021-08-30T12:24:52Z</time>
      </trkpt>
      <trkpt lat="45.16916" lon="5.63907">
        <ele>1094.6</ele>
        <time>2021-08-30T12:24:53Z</time>
      </trkpt>
      <trkpt lat="45.16916" lon="5.63907">
        <ele>1094.6</ele>
        <time>2021-08-30T12:24:55Z</time>
      </trkpt>
      <trkpt lat="45.16916" lon="5.63907">
        <ele>1094.6</ele>
        <time>2021-08-30T12:24:56Z</time>
      </trkpt>
      <trkpt lat="45.16916" lon="5.63907">
        <ele>1094.6</ele>
        <time>2021-08-30T12:24:58Z</time>
      </trkpt>
      <trkpt lat="45.16916" lon="5.63907">
        <ele>1094.6</ele>
        <time>2021-08-30T12:24:59Z</time>
      </trkpt>
      <trkpt lat="45.16916" lon="5.63907">
        <ele>1094.6</ele>
        <time>2021-08-30T12:25:00Z</time>
      </trkpt>
      <trkpt lat="45.16916" lon="5.63907">
        <ele>1094.6</ele>
        <time>2021-08-30T12:25:02Z</time>
      </trkpt>
      <trkpt lat="45.16916" lon="5.63907">
        <ele>1094.6</ele>
        <time>2021-08-30T12:25:03Z</time>
      </trkpt>
      <trkpt lat="45.16916" lon="5.63907">
        <ele>1094.6</ele>
        <time>2021-08-30T12:25:05Z</time>
      </trkpt>
      <trkpt lat="45.16916" lon="5.63907">
        <ele>1094.6</ele>
        <time>2021-08-30T12:25:07Z</time>
      </trkpt>
      <trkpt lat="45.16916" lon="5.63907">
        <ele>1094.6</ele>
        <time>2021-08-30T12:25:09Z</time>
      </trkpt>
      <trkpt lat="45.16916" lon="5.63907">
        <ele>1094.6</ele>
        <time>2021-08-30T12:25:10Z</time>
      </trkpt>
      <trkpt lat="45.16916" lon="5.63907">
        <ele>1094.6</ele>
        <time>2021-08-30T12:25:11Z</time>
      </trkpt>
      <trkpt lat="45.16916" lon="5.63907">
        <ele>1094.6</ele>
        <time>2021-08-30T12:25:13Z</time>
      </trkpt>
      <trkpt lat="45.16916" lon="5.63907">
        <ele>1094.6</ele>
        <time>2021-08-30T12:25:14Z</time>
      </trkpt>
      <trkpt lat="45.16916" lon="5.63907">
        <ele>1094.6</ele>
        <time>2021-08-30T12:25:15Z</time>
      </trkpt>
      <trkpt lat="45.16919" lon="5.63916">
        <ele>1094.5</ele>
        <time>2021-08-30T12:25:17Z</time>
      </trkpt>
      <trkpt lat="45.16919" lon="5.63918">
        <ele>1094.5</ele>
        <time>2021-08-30T12:25:19Z</time>
      </trkpt>
      <trkpt lat="45.16919" lon="5.63918">
        <ele>1094.5</ele>
        <time>2021-08-30T12:25:20Z</time>
      </trkpt>
      <trkpt lat="45.16918" lon="5.63918">
        <ele>1094.5</ele>
        <time>2021-08-30T12:25:21Z</time>
      </trkpt>
      <trkpt lat="45.16918" lon="5.63918">
        <ele>1094.5</ele>
        <time>2021-08-30T12:25:22Z</time>
      </trkpt>
      <trkpt lat="45.16918" lon="5.63918">
        <ele>1094.5</ele>
        <time>2021-08-30T12:25:24Z</time>
      </trkpt>
      <trkpt lat="45.16918" lon="5.63918">
        <ele>1094.5</ele>
        <time>2021-08-30T12:25:26Z</time>
      </trkpt>
      <trkpt lat="45.16918" lon="5.63918">
        <ele>1094.5</ele>
        <time>2021-08-30T12:25:27Z</time>
      </trkpt>
      <trkpt lat="45.16918" lon="5.63918">
        <ele>1094.5</ele>
        <time>2021-08-30T12:25:28Z</time>
      </trkpt>
      <trkpt lat="45.16918" lon="5.63918">
        <ele>1094.5</ele>
        <time>2021-08-30T12:25:30Z</time>
      </trkpt>
      <trkpt lat="45.16918" lon="5.63918">
        <ele>1094.5</ele>
        <time>2021-08-30T12:25:32Z</time>
      </trkpt>
      <trkpt lat="45.16918" lon="5.63918">
        <ele>1094.5</ele>
        <time>2021-08-30T12:25:33Z</time>
      </trkpt>
      <trkpt lat="45.16918" lon="5.63918">
        <ele>1094.5</ele>
        <time>2021-08-30T12:25:34Z</time>
      </trkpt>
      <trkpt lat="45.16914" lon="5.6391">
        <ele>1094.4</ele>
        <time>2021-08-30T12:25:36Z</time>
      </trkpt>
      <trkpt lat="45.16912" lon="5.63906">
        <ele>1094.4</ele>
        <time>2021-08-30T12:25:37Z</time>
      </trkpt>
      <trkpt lat="45.16911" lon="5.63905">
        <ele>1094.4</ele>
        <time>2021-08-30T12:25:38Z</time>
      </trkpt>
      <trkpt lat="45.16911" lon="5.63905">
        <ele>1094.4</ele>
        <time>2021-08-30T12:25:40Z</time>
      </trkpt>
      <trkpt lat="45.16911" lon="5.63904">
        <ele>1094.4</ele>
        <time>2021-08-30T12:25:41Z</time>
      </trkpt>
      <trkpt lat="45.16915" lon="5.63907">
        <ele>1094.4</ele>
        <time>2021-08-30T12:25:43Z</time>
      </trkpt>
      <trkpt lat="45.16916" lon="5.63908">
        <ele>1094.3</ele>
        <time>2021-08-30T12:25:44Z</time>
      </trkpt>
      <trkpt lat="45.16916" lon="5.63907">
        <ele>1094.3</ele>
        <time>2021-08-30T12:25:46Z</time>
      </trkpt>
      <trkpt lat="45.16916" lon="5.63907">
        <ele>1094.3</ele>
        <time>2021-08-30T12:25:47Z</time>
      </trkpt>
      <trkpt lat="45.16916" lon="5.63908">
        <ele>1094.3</ele>
        <time>2021-08-30T12:25:48Z</time>
      </trkpt>
      <trkpt lat="45.16916" lon="5.63908">
        <ele>1094.3</ele>
        <time>2021-08-30T12:25:49Z</time>
      </trkpt>
      <trkpt lat="45.16916" lon="5.63908">
        <ele>1094.3</ele>
        <time>2021-08-30T12:25:50Z</time>
      </trkpt>
      <trkpt lat="45.16916" lon="5.63909">
        <ele>1094.3</ele>
        <time>2021-08-30T12:25:52Z</time>
      </trkpt>
      <trkpt lat="45.16916" lon="5.63909">
        <ele>1094.3</ele>
        <time>2021-08-30T12:25:54Z</time>
      </trkpt>
      <trkpt lat="45.16927" lon="5.63912">
        <ele>1094.2</ele>
        <time>2021-08-30T12:26:22Z</time>
      </trkpt>
      <trkpt lat="45.16931" lon="5.6391">
        <ele>1094.2</ele>
        <time>2021-08-30T12:26:28Z</time>
      </trkpt>
      <trkpt lat="45.16933" lon="5.6391">
        <ele>1094.2</ele>
        <time>2021-08-30T12:26:35Z</time>
      </trkpt>
      <trkpt lat="45.1693" lon="5.63911">
        <ele>1094.2</ele>
        <time>2021-08-30T12:26:41Z</time>
      </trkpt>
      <trkpt lat="45.1693" lon="5.63911">
        <ele>1094.2</ele>
        <time>2021-08-30T12:26:47Z</time>
      </trkpt>
      <trkpt lat="45.16917" lon="5.63916">
        <ele>1094.1</ele>
        <time>2021-08-30T12:28:34Z</time>
      </trkpt>
      <trkpt lat="45.16916" lon="5.63915">
        <ele>1094.1</ele>
        <time>2021-08-30T12:28:35Z</time>
      </trkpt>
      <trkpt lat="45.16915" lon="5.63915">
        <ele>1094.1</ele>
        <time>2021-08-30T12:28:36Z</time>
      </trkpt>
      <trkpt lat="45.16911" lon="5.63917">
        <ele>1094.1</ele>
        <time>2021-08-30T12:28:38Z</time>
      </trkpt>
      <trkpt lat="45.16909" lon="5.63921">
        <ele>1094</ele>
        <time>2021-08-30T12:28:39Z</time>
      </trkpt>
      <trkpt lat="45.16906" lon="5.63924">
        <ele>1094</ele>
        <time>2021-08-30T12:28:40Z</time>
      </trkpt>
      <trkpt lat="45.16904" lon="5.63927">
        <ele>1094</ele>
        <time>2021-08-30T12:28:41Z</time>
      </trkpt>
      <trkpt lat="45.16901" lon="5.63929">
        <ele>1094</ele>
        <time>2021-08-30T12:28:43Z</time>
      </trkpt>
      <trkpt lat="45.16899" lon="5.63931">
        <ele>1094</ele>
        <time>2021-08-30T12:28:44Z</time>
      </trkpt>
      <trkpt lat="45.16897" lon="5.6393">
        <ele>1094</ele>
        <time>2021-08-30T12:28:46Z</time>
      </trkpt>
      <trkpt lat="45.16894" lon="5.63929">
        <ele>1093.9</ele>
        <time>2021-08-30T12:28:48Z</time>
      </trkpt>
      <trkpt lat="45.16892" lon="5.63929">
        <ele>1093.9</ele>
        <time>2021-08-30T12:28:50Z</time>
      </trkpt>
      <trkpt lat="45.16892" lon="5.63928">
        <ele>1093.9</ele>
        <time>2021-08-30T12:28:51Z</time>
      </trkpt>
      <trkpt lat="45.16891" lon="5.63927">
        <ele>1093.9</ele>
        <time>2021-08-30T12:28:52Z</time>
      </trkpt>
      <trkpt lat="45.16889" lon="5.63926">
        <ele>1093.9</ele>
        <time>2021-08-30T12:28:54Z</time>
      </trkpt>
      <trkpt lat="45.16888" lon="5.63924">
        <ele>1093.9</ele>
        <time>2021-08-30T12:28:55Z</time>
      </trkpt>
      <trkpt lat="45.16883" lon="5.6392">
        <ele>1093.9</ele>
        <time>2021-08-30T12:28:57Z</time>
      </trkpt>
      <trkpt lat="45.16877" lon="5.63914">
        <ele>1093.8</ele>
        <time>2021-08-30T12:28:59Z</time>
      </trkpt>
      <trkpt lat="45.16875" lon="5.63911">
        <ele>1093.8</ele>
        <time>2021-08-30T12:29:00Z</time>
      </trkpt>
      <trkpt lat="45.1687" lon="5.63909">
        <ele>1093.8</ele>
        <time>2021-08-30T12:29:02Z</time>
      </trkpt>
      <trkpt lat="45.16869" lon="5.63908">
        <ele>1093.8</ele>
        <time>2021-08-30T12:29:03Z</time>
      </trkpt>
      <trkpt lat="45.16868" lon="5.63909">
        <ele>1093.8</ele>
        <time>2021-08-30T12:29:05Z</time>
      </trkpt>
      <trkpt lat="45.16867" lon="5.63909">
        <ele>1093.8</ele>
        <time>2021-08-30T12:29:06Z</time>
      </trkpt>
      <trkpt lat="45.16867" lon="5.63909">
        <ele>1093.8</ele>
        <time>2021-08-30T12:29:07Z</time>
      </trkpt>
      <trkpt lat="45.16867" lon="5.63909">
        <ele>1093.8</ele>
        <time>2021-08-30T12:29:09Z</time>
      </trkpt>
      <trkpt lat="45.16873" lon="5.63925">
        <ele>1093.7</ele>
        <time>2021-08-30T12:31:03Z</time>
      </trkpt>
      <trkpt lat="45.1687" lon="5.63922">
        <ele>1093.7</ele>
        <time>2021-08-30T12:31:04Z</time>
      </trkpt>
      <trkpt lat="45.16865" lon="5.63917">
        <ele>1093.7</ele>
        <time>2021-08-30T12:31:05Z</time>
      </trkpt>
      <trkpt lat="45.16858" lon="5.63907">
        <ele>1093.8</ele>
        <time>2021-08-30T12:31:07Z</time>
      </trkpt>
      <trkpt lat="45.16854" lon="5.63904">
        <ele>1093.8</ele>
        <time>2021-08-30T12:31:08Z</time>
      </trkpt>
      <trkpt lat="45.16847" lon="5.63901">
        <ele>1093.8</ele>
        <time>2021-08-30T12:31:10Z</time>
      </trkpt>
      <trkpt lat="45.16838" lon="5.63903">
        <ele>1093.8</ele>
        <time>2021-08-30T12:31:13Z</time>
      </trkpt>
      <trkpt lat="45.16835" lon="5.63906">
        <ele>1093.8</ele>
        <time>2021-08-30T12:31:14Z</time>
      </trkpt>
      <trkpt lat="45.16831" lon="5.63913">
        <ele>1093.8</ele>
        <time>2021-08-30T12:31:16Z</time>
      </trkpt>
      <trkpt lat="45.16831" lon="5.63923">
        <ele>1093.7</ele>
        <time>2021-08-30T12:31:17Z</time>
      </trkpt>
      <trkpt lat="45.1683" lon="5.63933">
        <ele>1093.7</ele>
        <time>2021-08-30T12:31:19Z</time>
      </trkpt>
      <trkpt lat="45.16827" lon="5.63944">
        <ele>1095.5</ele>
        <time>2021-08-30T12:31:21Z</time>
      </trkpt>
      <trkpt lat="45.16824" lon="5.63954">
        <ele>1096.5</ele>
        <time>2021-08-30T12:31:23Z</time>
      </trkpt>
      <trkpt lat="45.1682" lon="5.63959">
        <ele>1096.8</ele>
        <time>2021-08-30T12:31:25Z</time>
      </trkpt>
      <trkpt lat="45.16818" lon="5.63961">
        <ele>1097</ele>
        <time>2021-08-30T12:31:26Z</time>
      </trkpt>
      <trkpt lat="45.16814" lon="5.63963">
        <ele>1097.3</ele>
        <time>2021-08-30T12:31:28Z</time>
      </trkpt>
      <trkpt lat="45.1681" lon="5.63963">
        <ele>1097.6</ele>
        <time>2021-08-30T12:31:30Z</time>
      </trkpt>
      <trkpt lat="45.16805" lon="5.63962">
        <ele>1098</ele>
        <time>2021-08-30T12:31:32Z</time>
      </trkpt>
      <trkpt lat="45.16801" lon="5.63963">
        <ele>1098.3</ele>
        <time>2021-08-30T12:31:34Z</time>
      </trkpt>
      <trkpt lat="45.168" lon="5.63963">
        <ele>1098.4</ele>
        <time>2021-08-30T12:31:35Z</time>
      </trkpt>
      <trkpt lat="45.16797" lon="5.63963">
        <ele>1098.5</ele>
        <time>2021-08-30T12:31:37Z</time>
      </trkpt>
      <trkpt lat="45.16798" lon="5.63966">
        <ele>1098.7</ele>
        <time>2021-08-30T12:31:38Z</time>
      </trkpt>
      <trkpt lat="45.16798" lon="5.63971">
        <ele>1098.9</ele>
        <time>2021-08-30T12:31:40Z</time>
      </trkpt>
      <trkpt lat="45.16798" lon="5.63973">
        <ele>1099</ele>
        <time>2021-08-30T12:31:41Z</time>
      </trkpt>
      <trkpt lat="45.16797" lon="5.63976">
        <ele>1099.1</ele>
        <time>2021-08-30T12:31:42Z</time>
      </trkpt>
      <trkpt lat="45.16795" lon="5.63979">
        <ele>1099.3</ele>
        <time>2021-08-30T12:31:43Z</time>
      </trkpt>
      <trkpt lat="45.16794" lon="5.63981">
        <ele>1099.4</ele>
        <time>2021-08-30T12:31:44Z</time>
      </trkpt>
      <trkpt lat="45.16793" lon="5.63984">
        <ele>1099.5</ele>
        <time>2021-08-30T12:31:45Z</time>
      </trkpt>
      <trkpt lat="45.16791" lon="5.63985">
        <ele>1099.6</ele>
        <time>2021-08-30T12:31:46Z</time>
      </trkpt>
      <trkpt lat="45.16791" lon="5.63987">
        <ele>1099.6</ele>
        <time>2021-08-30T12:31:47Z</time>
      </trkpt>
      <trkpt lat="45.1679" lon="5.6399">
        <ele>1099.6</ele>
        <time>2021-08-30T12:31:48Z</time>
      </trkpt>
      <trkpt lat="45.16789" lon="5.63993">
        <ele>1099.8</ele>
        <time>2021-08-30T12:31:50Z</time>
      </trkpt>
      <trkpt lat="45.16789" lon="5.63996">
        <ele>1100</ele>
        <time>2021-08-30T12:31:51Z</time>
      </trkpt>
      <trkpt lat="45.16788" lon="5.64001">
        <ele>1100.2</ele>
        <time>2021-08-30T12:31:53Z</time>
      </trkpt>
      <trkpt lat="45.16786" lon="5.64005">
        <ele>1100.4</ele>
        <time>2021-08-30T12:31:54Z</time>
      </trkpt>
      <trkpt lat="45.16785" lon="5.64007">
        <ele>1100.5</ele>
        <time>2021-08-30T12:31:55Z</time>
      </trkpt>
      <trkpt lat="45.16783" lon="5.6401">
        <ele>1100.7</ele>
        <time>2021-08-30T12:31:57Z</time>
      </trkpt>
      <trkpt lat="45.16782" lon="5.64013">
        <ele>1100.8</ele>
        <time>2021-08-30T12:31:58Z</time>
      </trkpt>
      <trkpt lat="45.1678" lon="5.64017">
        <ele>1101</ele>
        <time>2021-08-30T12:32:00Z</time>
      </trkpt>
      <trkpt lat="45.16777" lon="5.6402">
        <ele>1101.2</ele>
        <time>2021-08-30T12:32:02Z</time>
      </trkpt>
      <trkpt lat="45.16776" lon="5.6402">
        <ele>1101.3</ele>
        <time>2021-08-30T12:32:03Z</time>
      </trkpt>
      <trkpt lat="45.16775" lon="5.6402">
        <ele>1101.3</ele>
        <time>2021-08-30T12:32:04Z</time>
      </trkpt>
      <trkpt lat="45.16774" lon="5.64021">
        <ele>1101.4</ele>
        <time>2021-08-30T12:32:05Z</time>
      </trkpt>
      <trkpt lat="45.16773" lon="5.64021">
        <ele>1101.4</ele>
        <time>2021-08-30T12:32:07Z</time>
      </trkpt>
      <trkpt lat="45.16772" lon="5.64021">
        <ele>1101.5</ele>
        <time>2021-08-30T12:32:08Z</time>
      </trkpt>
      <trkpt lat="45.16771" lon="5.64021">
        <ele>1101.5</ele>
        <time>2021-08-30T12:32:09Z</time>
      </trkpt>
      <trkpt lat="45.1677" lon="5.64021">
        <ele>1101.6</ele>
        <time>2021-08-30T12:32:10Z</time>
      </trkpt>
      <trkpt lat="45.16768" lon="5.6402">
        <ele>1101.7</ele>
        <time>2021-08-30T12:32:11Z</time>
      </trkpt>
      <trkpt lat="45.16766" lon="5.64019">
        <ele>1101.8</ele>
        <time>2021-08-30T12:32:13Z</time>
      </trkpt>
      <trkpt lat="45.16763" lon="5.64017">
        <ele>1102</ele>
        <time>2021-08-30T12:32:14Z</time>
      </trkpt>
      <trkpt lat="45.1676" lon="5.64016">
        <ele>1102.2</ele>
        <time>2021-08-30T12:32:15Z</time>
      </trkpt>
      <trkpt lat="45.16759" lon="5.64016">
        <ele>1102.3</ele>
        <time>2021-08-30T12:32:16Z</time>
      </trkpt>
      <trkpt lat="45.16756" lon="5.64015">
        <ele>1102.5</ele>
        <time>2021-08-30T12:32:17Z</time>
      </trkpt>
      <trkpt lat="45.16754" lon="5.64015">
        <ele>1102.6</ele>
        <time>2021-08-30T12:32:18Z</time>
      </trkpt>
      <trkpt lat="45.16752" lon="5.64016">
        <ele>1102.7</ele>
        <time>2021-08-30T12:32:19Z</time>
      </trkpt>
      <trkpt lat="45.16751" lon="5.64016">
        <ele>1102.8</ele>
        <time>2021-08-30T12:32:21Z</time>
      </trkpt>
      <trkpt lat="45.16747" lon="5.64017">
        <ele>1103</ele>
        <time>2021-08-30T12:32:22Z</time>
      </trkpt>
      <trkpt lat="45.16745" lon="5.64017">
        <ele>1103.1</ele>
        <time>2021-08-30T12:32:23Z</time>
      </trkpt>
      <trkpt lat="45.1674" lon="5.64018">
        <ele>1103.4</ele>
        <time>2021-08-30T12:32:25Z</time>
      </trkpt>
      <trkpt lat="45.16737" lon="5.64019">
        <ele>1103.6</ele>
        <time>2021-08-30T12:32:26Z</time>
      </trkpt>
      <trkpt lat="45.16735" lon="5.6402">
        <ele>1103.7</ele>
        <time>2021-08-30T12:32:27Z</time>
      </trkpt>
      <trkpt lat="45.16732" lon="5.64022">
        <ele>1103.9</ele>
        <time>2021-08-30T12:32:28Z</time>
      </trkpt>
      <trkpt lat="45.16731" lon="5.64024">
        <ele>1104</ele>
        <time>2021-08-30T12:32:30Z</time>
      </trkpt>
      <trkpt lat="45.16727" lon="5.64024">
        <ele>1104.2</ele>
        <time>2021-08-30T12:32:31Z</time>
      </trkpt>
      <trkpt lat="45.16726" lon="5.64023">
        <ele>1104.2</ele>
        <time>2021-08-30T12:32:32Z</time>
      </trkpt>
      <trkpt lat="45.16722" lon="5.6402">
        <ele>1104.5</ele>
        <time>2021-08-30T12:32:34Z</time>
      </trkpt>
      <trkpt lat="45.16719" lon="5.6402">
        <ele>1104.7</ele>
        <time>2021-08-30T12:32:36Z</time>
      </trkpt>
      <trkpt lat="45.16717" lon="5.64021">
        <ele>1104.8</ele>
        <time>2021-08-30T12:32:37Z</time>
      </trkpt>
      <trkpt lat="45.16716" lon="5.64022">
        <ele>1104.9</ele>
        <time>2021-08-30T12:32:39Z</time>
      </trkpt>
      <trkpt lat="45.16715" lon="5.64022">
        <ele>1104.9</ele>
        <time>2021-08-30T12:32:40Z</time>
      </trkpt>
      <trkpt lat="45.16714" lon="5.64022">
        <ele>1105</ele>
        <time>2021-08-30T12:32:41Z</time>
      </trkpt>
      <trkpt lat="45.16711" lon="5.64023">
        <ele>1105.2</ele>
        <time>2021-08-30T12:32:43Z</time>
      </trkpt>
      <trkpt lat="45.16711" lon="5.64023">
        <ele>1105.2</ele>
        <time>2021-08-30T12:32:44Z</time>
      </trkpt>
      <trkpt lat="45.1671" lon="5.64024">
        <ele>1105.3</ele>
        <time>2021-08-30T12:32:45Z</time>
      </trkpt>
      <trkpt lat="45.1671" lon="5.64024">
        <ele>1105.3</ele>
        <time>2021-08-30T12:32:46Z</time>
      </trkpt>
      <trkpt lat="45.1671" lon="5.64025">
        <ele>1105.3</ele>
        <time>2021-08-30T12:32:48Z</time>
      </trkpt>
      <trkpt lat="45.16709" lon="5.64026">
        <ele>1105.4</ele>
        <time>2021-08-30T12:32:49Z</time>
      </trkpt>
      <trkpt lat="45.16708" lon="5.64029">
        <ele>1105.5</ele>
        <time>2021-08-30T12:32:50Z</time>
      </trkpt>
      <trkpt lat="45.16707" lon="5.6403">
        <ele>1105.6</ele>
        <time>2021-08-30T12:32:51Z</time>
      </trkpt>
      <trkpt lat="45.16706" lon="5.64031">
        <ele>1105.7</ele>
        <time>2021-08-30T12:32:52Z</time>
      </trkpt>
      <trkpt lat="45.16705" lon="5.64033">
        <ele>1105.8</ele>
        <time>2021-08-30T12:32:53Z</time>
      </trkpt>
      <trkpt lat="45.16701" lon="5.64036">
        <ele>1106</ele>
        <time>2021-08-30T12:32:55Z</time>
      </trkpt>
      <trkpt lat="45.16699" lon="5.64037">
        <ele>1106.2</ele>
        <time>2021-08-30T12:32:56Z</time>
      </trkpt>
      <trkpt lat="45.16696" lon="5.64037">
        <ele>1106.3</ele>
        <time>2021-08-30T12:32:58Z</time>
      </trkpt>
      <trkpt lat="45.16693" lon="5.64035">
        <ele>1106.5</ele>
        <time>2021-08-30T12:32:59Z</time>
      </trkpt>
      <trkpt lat="45.16692" lon="5.64035">
        <ele>1106.5</ele>
        <time>2021-08-30T12:33:00Z</time>
      </trkpt>
      <trkpt lat="45.1669" lon="5.64032">
        <ele>1106.6</ele>
        <time>2021-08-30T12:33:01Z</time>
      </trkpt>
      <trkpt lat="45.16688" lon="5.64031">
        <ele>1106.7</ele>
        <time>2021-08-30T12:33:02Z</time>
      </trkpt>
      <trkpt lat="45.16687" lon="5.64031">
        <ele>1106.8</ele>
        <time>2021-08-30T12:33:04Z</time>
      </trkpt>
      <trkpt lat="45.16686" lon="5.64029">
        <ele>1106.8</ele>
        <time>2021-08-30T12:33:05Z</time>
      </trkpt>
      <trkpt lat="45.16686" lon="5.64027">
        <ele>1106.9</ele>
        <time>2021-08-30T12:33:06Z</time>
      </trkpt>
      <trkpt lat="45.16685" lon="5.64026">
        <ele>1106.9</ele>
        <time>2021-08-30T12:33:07Z</time>
      </trkpt>
      <trkpt lat="45.16685" lon="5.64025">
        <ele>1106.9</ele>
        <time>2021-08-30T12:33:08Z</time>
      </trkpt>
      <trkpt lat="45.16682" lon="5.64022">
        <ele>1107</ele>
        <time>2021-08-30T12:33:10Z</time>
      </trkpt>
      <trkpt lat="45.1668" lon="5.64021">
        <ele>1107.1</ele>
        <time>2021-08-30T12:33:11Z</time>
      </trkpt>
      <trkpt lat="45.16679" lon="5.64021">
        <ele>1107.2</ele>
        <time>2021-08-30T12:33:12Z</time>
      </trkpt>
      <trkpt lat="45.16676" lon="5.64022">
        <ele>1107.3</ele>
        <time>2021-08-30T12:33:14Z</time>
      </trkpt>
      <trkpt lat="45.16676" lon="5.64022">
        <ele>1107.3</ele>
        <time>2021-08-30T12:33:15Z</time>
      </trkpt>
      <trkpt lat="45.16676" lon="5.64022">
        <ele>1107.3</ele>
        <time>2021-08-30T12:33:16Z</time>
      </trkpt>
      <trkpt lat="45.16675" lon="5.64019">
        <ele>1107.4</ele>
        <time>2021-08-30T12:33:17Z</time>
      </trkpt>
      <trkpt lat="45.16675" lon="5.64017">
        <ele>1107.5</ele>
        <time>2021-08-30T12:33:19Z</time>
      </trkpt>
      <trkpt lat="45.16674" lon="5.64015">
        <ele>1107.6</ele>
        <time>2021-08-30T12:33:20Z</time>
      </trkpt>
      <trkpt lat="45.16675" lon="5.64012">
        <ele>1107.7</ele>
        <time>2021-08-30T12:33:22Z</time>
      </trkpt>
      <trkpt lat="45.16675" lon="5.64007">
        <ele>1107.9</ele>
        <time>2021-08-30T12:33:23Z</time>
      </trkpt>
      <trkpt lat="45.16674" lon="5.64002">
        <ele>1108.1</ele>
        <time>2021-08-30T12:33:25Z</time>
      </trkpt>
      <trkpt lat="45.16673" lon="5.63998">
        <ele>1108.3</ele>
        <time>2021-08-30T12:33:26Z</time>
      </trkpt>
      <trkpt lat="45.16672" lon="5.63993">
        <ele>1108.5</ele>
        <time>2021-08-30T12:33:27Z</time>
      </trkpt>
      <trkpt lat="45.16671" lon="5.63988">
        <ele>1108.7</ele>
        <time>2021-08-30T12:33:29Z</time>
      </trkpt>
      <trkpt lat="45.1667" lon="5.63984">
        <ele>1108.9</ele>
        <time>2021-08-30T12:33:30Z</time>
      </trkpt>
      <trkpt lat="45.16669" lon="5.63979">
        <ele>1109.1</ele>
        <time>2021-08-30T12:33:50Z</time>
      </trkpt>
      <trkpt lat="45.16668" lon="5.63974">
        <ele>1109.3</ele>
        <time>2021-08-30T12:33:52Z</time>
      </trkpt>
      <trkpt lat="45.16667" lon="5.6397">
        <ele>1109.4</ele>
        <time>2021-08-30T12:33:53Z</time>
      </trkpt>
      <trkpt lat="45.16667" lon="5.63965">
        <ele>1109.6</ele>
        <time>2021-08-30T12:33:54Z</time>
      </trkpt>
      <trkpt lat="45.16668" lon="5.6396">
        <ele>1109.8</ele>
        <time>2021-08-30T12:33:55Z</time>
      </trkpt>
      <trkpt lat="45.16668" lon="5.63959">
        <ele>1109.9</ele>
        <time>2021-08-30T12:33:56Z</time>
      </trkpt>
      <trkpt lat="45.16668" lon="5.63955">
        <ele>1110.1</ele>
        <time>2021-08-30T12:33:57Z</time>
      </trkpt>
      <trkpt lat="45.16669" lon="5.63953">
        <ele>1110.1</ele>
        <time>2021-08-30T12:33:59Z</time>
      </trkpt>
      <trkpt lat="45.1667" lon="5.63952">
        <ele>1110.1</ele>
        <time>2021-08-30T12:34:00Z</time>
      </trkpt>
      <trkpt lat="45.1667" lon="5.63949">
        <ele>1110.1</ele>
        <time>2021-08-30T12:34:01Z</time>
      </trkpt>
      <trkpt lat="45.1667" lon="5.63948">
        <ele>1110</ele>
        <time>2021-08-30T12:34:02Z</time>
      </trkpt>
      <trkpt lat="45.16669" lon="5.63944">
        <ele>1109.9</ele>
        <time>2021-08-30T12:34:03Z</time>
      </trkpt>
      <trkpt lat="45.16668" lon="5.63942">
        <ele>1109.9</ele>
        <time>2021-08-30T12:34:04Z</time>
      </trkpt>
      <trkpt lat="45.16668" lon="5.63941">
        <ele>1109.9</ele>
        <time>2021-08-30T12:34:05Z</time>
      </trkpt>
      <trkpt lat="45.16668" lon="5.63941">
        <ele>1109.8</ele>
        <time>2021-08-30T12:34:06Z</time>
      </trkpt>
      <trkpt lat="45.16668" lon="5.63942">
        <ele>1109.8</ele>
        <time>2021-08-30T12:34:08Z</time>
      </trkpt>
      <trkpt lat="45.16669" lon="5.63943">
        <ele>1109.8</ele>
        <time>2021-08-30T12:34:09Z</time>
      </trkpt>
      <trkpt lat="45.16669" lon="5.63943">
        <ele>1109.8</ele>
        <time>2021-08-30T12:34:11Z</time>
      </trkpt>
      <trkpt lat="45.16669" lon="5.63944">
        <ele>1109.8</ele>
        <time>2021-08-30T12:34:12Z</time>
      </trkpt>
      <trkpt lat="45.16669" lon="5.63944">
        <ele>1109.8</ele>
        <time>2021-08-30T12:34:14Z</time>
      </trkpt>
      <trkpt lat="45.16669" lon="5.63945">
        <ele>1109.8</ele>
        <time>2021-08-30T12:34:16Z</time>
      </trkpt>
      <trkpt lat="45.16669" lon="5.63945">
        <ele>1109.8</ele>
        <time>2021-08-30T12:35:12Z</time>
      </trkpt>
      <trkpt lat="45.16669" lon="5.63946">
        <ele>1109.7</ele>
        <time>2021-08-30T12:35:13Z</time>
      </trkpt>
      <trkpt lat="45.16669" lon="5.6396">
        <ele>1109.4</ele>
        <time>2021-08-30T12:35:15Z</time>
      </trkpt>
      <trkpt lat="45.1667" lon="5.63973">
        <ele>1109.1</ele>
        <time>2021-08-30T12:35:17Z</time>
      </trkpt>
      <trkpt lat="45.16671" lon="5.63978">
        <ele>1109</ele>
        <time>2021-08-30T12:35:18Z</time>
      </trkpt>
      <trkpt lat="45.1667" lon="5.63987">
        <ele>1108.8</ele>
        <time>2021-08-30T12:35:20Z</time>
      </trkpt>
      <trkpt lat="45.16668" lon="5.6399">
        <ele>1107.8</ele>
        <time>2021-08-30T12:35:21Z</time>
      </trkpt>
      <trkpt lat="45.16668" lon="5.63991">
        <ele>1107.7</ele>
        <time>2021-08-30T12:35:22Z</time>
      </trkpt>
      <trkpt lat="45.16664" lon="5.63994">
        <ele>1106.7</ele>
        <time>2021-08-30T12:35:24Z</time>
      </trkpt>
      <trkpt lat="45.16657" lon="5.63996">
        <ele>1107.4</ele>
        <time>2021-08-30T12:35:25Z</time>
      </trkpt>
      <trkpt lat="45.16653" lon="5.63998">
        <ele>1106.9</ele>
        <time>2021-08-30T12:35:26Z</time>
      </trkpt>
      <trkpt lat="45.16643" lon="5.63999">
        <ele>1108.6</ele>
        <time>2021-08-30T12:35:28Z</time>
      </trkpt>
      <trkpt lat="45.16638" lon="5.63997">
        <ele>1108.8</ele>
        <time>2021-08-30T12:35:29Z</time>
      </trkpt>
      <trkpt lat="45.16633" lon="5.63993">
        <ele>1109</ele>
        <time>2021-08-30T12:35:30Z</time>
      </trkpt>
      <trkpt lat="45.1663" lon="5.63989">
        <ele>1109.2</ele>
        <time>2021-08-30T12:35:32Z</time>
      </trkpt>
      <trkpt lat="45.16625" lon="5.6398">
        <ele>1109.5</ele>
        <time>2021-08-30T12:35:34Z</time>
      </trkpt>
      <trkpt lat="45.1662" lon="5.63973">
        <ele>1109.8</ele>
        <time>2021-08-30T12:35:35Z</time>
      </trkpt>
      <trkpt lat="45.16616" lon="5.63968">
        <ele>1110</ele>
        <time>2021-08-30T12:35:37Z</time>
      </trkpt>
      <trkpt lat="45.16612" lon="5.63966">
        <ele>1110.2</ele>
        <time>2021-08-30T12:35:38Z</time>
      </trkpt>
      <trkpt lat="45.1661" lon="5.63964">
        <ele>1110.3</ele>
        <time>2021-08-30T12:35:39Z</time>
      </trkpt>
      <trkpt lat="45.16604" lon="5.63962">
        <ele>1110.8</ele>
        <time>2021-08-30T12:35:41Z</time>
      </trkpt>
      <trkpt lat="45.16601" lon="5.63962">
        <ele>1111.1</ele>
        <time>2021-08-30T12:35:42Z</time>
      </trkpt>
      <trkpt lat="45.16598" lon="5.6396">
        <ele>1111.5</ele>
        <time>2021-08-30T12:35:43Z</time>
      </trkpt>
      <trkpt lat="45.16595" lon="5.63957">
        <ele>1111.9</ele>
        <time>2021-08-30T12:35:45Z</time>
      </trkpt>
      <trkpt lat="45.16594" lon="5.63953">
        <ele>1112.2</ele>
        <time>2021-08-30T12:35:46Z</time>
      </trkpt>
      <trkpt lat="45.16593" lon="5.63946">
        <ele>1112.8</ele>
        <time>2021-08-30T12:35:48Z</time>
      </trkpt>
      <trkpt lat="45.16594" lon="5.63941">
        <ele>1113.2</ele>
        <time>2021-08-30T12:35:49Z</time>
      </trkpt>
      <trkpt lat="45.16595" lon="5.63934">
        <ele>1113.7</ele>
        <time>2021-08-30T12:35:50Z</time>
      </trkpt>
      <trkpt lat="45.16595" lon="5.63929">
        <ele>1114.1</ele>
        <time>2021-08-30T12:35:51Z</time>
      </trkpt>
      <trkpt lat="45.16597" lon="5.63922">
        <ele>1114.6</ele>
        <time>2021-08-30T12:35:53Z</time>
      </trkpt>
      <trkpt lat="45.16597" lon="5.63916">
        <ele>1115</ele>
        <time>2021-08-30T12:35:54Z</time>
      </trkpt>
      <trkpt lat="45.16598" lon="5.63908">
        <ele>1115.6</ele>
        <time>2021-08-30T12:35:56Z</time>
      </trkpt>
      <trkpt lat="45.16598" lon="5.63904">
        <ele>1116</ele>
        <time>2021-08-30T12:35:57Z</time>
      </trkpt>
      <trkpt lat="45.16599" lon="5.639">
        <ele>1116.2</ele>
        <time>2021-08-30T12:35:58Z</time>
      </trkpt>
      <trkpt lat="45.166" lon="5.63896">
        <ele>1116.5</ele>
        <time>2021-08-30T12:35:59Z</time>
      </trkpt>
      <trkpt lat="45.16601" lon="5.63892">
        <ele>1116.8</ele>
        <time>2021-08-30T12:36:00Z</time>
      </trkpt>
      <trkpt lat="45.16602" lon="5.63888">
        <ele>1117.2</ele>
        <time>2021-08-30T12:36:02Z</time>
      </trkpt>
      <trkpt lat="45.16601" lon="5.63887">
        <ele>1117.3</ele>
        <time>2021-08-30T12:36:03Z</time>
      </trkpt>
      <trkpt lat="45.16601" lon="5.63885">
        <ele>1117.4</ele>
        <time>2021-08-30T12:36:04Z</time>
      </trkpt>
      <trkpt lat="45.166" lon="5.63883">
        <ele>1117.6</ele>
        <time>2021-08-30T12:36:06Z</time>
      </trkpt>
      <trkpt lat="45.16599" lon="5.63881">
        <ele>1117.8</ele>
        <time>2021-08-30T12:36:07Z</time>
      </trkpt>
      <trkpt lat="45.16597" lon="5.63877">
        <ele>1118.2</ele>
        <time>2021-08-30T12:36:09Z</time>
      </trkpt>
      <trkpt lat="45.16596" lon="5.63875">
        <ele>1118.4</ele>
        <time>2021-08-30T12:36:10Z</time>
      </trkpt>
      <trkpt lat="45.16595" lon="5.63874">
        <ele>1118.6</ele>
        <time>2021-08-30T12:36:11Z</time>
      </trkpt>
      <trkpt lat="45.16594" lon="5.63874">
        <ele>1118.8</ele>
        <time>2021-08-30T12:36:12Z</time>
      </trkpt>
      <trkpt lat="45.16594" lon="5.63874">
        <ele>1118.8</ele>
        <time>2021-08-30T12:36:14Z</time>
      </trkpt>
      <trkpt lat="45.16594" lon="5.63874">
        <ele>1118.9</ele>
        <time>2021-08-30T12:36:15Z</time>
      </trkpt>
      <trkpt lat="45.16594" lon="5.63874">
        <ele>1118.9</ele>
        <time>2021-08-30T12:36:16Z</time>
      </trkpt>
      <trkpt lat="45.16594" lon="5.63875">
        <ele>1119</ele>
        <time>2021-08-30T12:36:18Z</time>
      </trkpt>
      <trkpt lat="45.16594" lon="5.63875">
        <ele>1119</ele>
        <time>2021-08-30T12:36:19Z</time>
      </trkpt>
      <trkpt lat="45.16594" lon="5.63875">
        <ele>1119</ele>
        <time>2021-08-30T12:36:20Z</time>
      </trkpt>
      <trkpt lat="45.16594" lon="5.63875">
        <ele>1119</ele>
        <time>2021-08-30T12:36:22Z</time>
      </trkpt>
      <trkpt lat="45.16579" lon="5.63715">
        <ele>1146.4</ele>
        <time>2021-08-30T12:41:20Z</time>
      </trkpt>
      <trkpt lat="45.16584" lon="5.63716">
        <ele>1146.5</ele>
        <time>2021-08-30T12:41:21Z</time>
      </trkpt>
      <trkpt lat="45.16587" lon="5.63717">
        <ele>1146.6</ele>
        <time>2021-08-30T12:41:22Z</time>
      </trkpt>
      <trkpt lat="45.16592" lon="5.63721">
        <ele>1146.8</ele>
        <time>2021-08-30T12:41:23Z</time>
      </trkpt>
      <trkpt lat="45.16593" lon="5.63723">
        <ele>1146.9</ele>
        <time>2021-08-30T12:41:25Z</time>
      </trkpt>
      <trkpt lat="45.16593" lon="5.63724">
        <ele>1146.9</ele>
        <time>2021-08-30T12:41:26Z</time>
      </trkpt>
      <trkpt lat="45.16592" lon="5.63725">
        <ele>1146.9</ele>
        <time>2021-08-30T12:41:28Z</time>
      </trkpt>
      <trkpt lat="45.16592" lon="5.63726">
        <ele>1147</ele>
        <time>2021-08-30T12:41:30Z</time>
      </trkpt>
      <trkpt lat="45.16593" lon="5.63728">
        <ele>1147</ele>
        <time>2021-08-30T12:41:32Z</time>
      </trkpt>
      <trkpt lat="45.16593" lon="5.63729">
        <ele>1147</ele>
        <time>2021-08-30T12:41:33Z</time>
      </trkpt>
      <trkpt lat="45.16595" lon="5.63731">
        <ele>1147.1</ele>
        <time>2021-08-30T12:41:35Z</time>
      </trkpt>
      <trkpt lat="45.16597" lon="5.63735">
        <ele>1147.2</ele>
        <time>2021-08-30T12:41:37Z</time>
      </trkpt>
      <trkpt lat="45.16598" lon="5.63737">
        <ele>1147.3</ele>
        <time>2021-08-30T12:41:39Z</time>
      </trkpt>
      <trkpt lat="45.16624" lon="5.63745">
        <ele>1148.7</ele>
        <time>2021-08-30T12:42:59Z</time>
      </trkpt>
      <trkpt lat="45.16626" lon="5.63745">
        <ele>1148.8</ele>
        <time>2021-08-30T12:43:00Z</time>
      </trkpt>
      <trkpt lat="45.16626" lon="5.63745">
        <ele>1148.8</ele>
        <time>2021-08-30T12:43:01Z</time>
      </trkpt>
      <trkpt lat="45.16625" lon="5.63745">
        <ele>1148.8</ele>
        <time>2021-08-30T12:43:03Z</time>
      </trkpt>
      <trkpt lat="45.16627" lon="5.63743">
        <ele>1148.9</ele>
        <time>2021-08-30T12:43:04Z</time>
      </trkpt>
      <trkpt lat="45.16628" lon="5.63742">
        <ele>1149</ele>
        <time>2021-08-30T12:43:06Z</time>
      </trkpt>
      <trkpt lat="45.16629" lon="5.63741">
        <ele>1149</ele>
        <time>2021-08-30T12:43:07Z</time>
      </trkpt>
      <trkpt lat="45.16635" lon="5.63739">
        <ele>1149.2</ele>
        <time>2021-08-30T12:43:09Z</time>
      </trkpt>
      <trkpt lat="45.16639" lon="5.63737">
        <ele>1149.4</ele>
        <time>2021-08-30T12:43:11Z</time>
      </trkpt>
      <trkpt lat="45.16644" lon="5.63735">
        <ele>1149.5</ele>
        <time>2021-08-30T12:43:12Z</time>
      </trkpt>
      <trkpt lat="45.16649" lon="5.63733">
        <ele>1149.5</ele>
        <time>2021-08-30T12:43:14Z</time>
      </trkpt>
      <trkpt lat="45.16653" lon="5.63732">
        <ele>1149.5</ele>
        <time>2021-08-30T12:43:57Z</time>
      </trkpt>
      <trkpt lat="45.16658" lon="5.6373">
        <ele>1149.6</ele>
        <time>2021-08-30T12:43:58Z</time>
      </trkpt>
      <trkpt lat="45.16664" lon="5.63719">
        <ele>1149.6</ele>
        <time>2021-08-30T12:44:00Z</time>
      </trkpt>
      <trkpt lat="45.16669" lon="5.63711">
        <ele>1149.6</ele>
        <time>2021-08-30T12:44:01Z</time>
      </trkpt>
      <trkpt lat="45.16674" lon="5.63703">
        <ele>1149.7</ele>
        <time>2021-08-30T12:44:02Z</time>
      </trkpt>
      <trkpt lat="45.16678" lon="5.63695">
        <ele>1149.9</ele>
        <time>2021-08-30T12:44:04Z</time>
      </trkpt>
      <trkpt lat="45.16683" lon="5.63687">
        <ele>1150.1</ele>
        <time>2021-08-30T12:44:06Z</time>
      </trkpt>
      <trkpt lat="45.16685" lon="5.63683">
        <ele>1150.3</ele>
        <time>2021-08-30T12:44:07Z</time>
      </trkpt>
      <trkpt lat="45.16687" lon="5.6368">
        <ele>1150.4</ele>
        <time>2021-08-30T12:44:08Z</time>
      </trkpt>
      <trkpt lat="45.16688" lon="5.63674">
        <ele>1150.5</ele>
        <time>2021-08-30T12:44:09Z</time>
      </trkpt>
      <trkpt lat="45.16689" lon="5.63671">
        <ele>1150.7</ele>
        <time>2021-08-30T12:44:10Z</time>
      </trkpt>
      <trkpt lat="45.16689" lon="5.63665">
        <ele>1150.8</ele>
        <time>2021-08-30T12:44:12Z</time>
      </trkpt>
      <trkpt lat="45.1669" lon="5.63661">
        <ele>1151</ele>
        <time>2021-08-30T12:44:13Z</time>
      </trkpt>
      <trkpt lat="45.1669" lon="5.63657">
        <ele>1151.1</ele>
        <time>2021-08-30T12:44:14Z</time>
      </trkpt>
      <trkpt lat="45.1669" lon="5.63656">
        <ele>1151.2</ele>
        <time>2021-08-30T12:44:15Z</time>
      </trkpt>
      <trkpt lat="45.16691" lon="5.63653">
        <ele>1151.3</ele>
        <time>2021-08-30T12:44:16Z</time>
      </trkpt>
      <trkpt lat="45.16692" lon="5.63651">
        <ele>1151.3</ele>
        <time>2021-08-30T12:44:18Z</time>
      </trkpt>
      <trkpt lat="45.16692" lon="5.63649">
        <ele>1151.4</ele>
        <time>2021-08-30T12:44:19Z</time>
      </trkpt>
      <trkpt lat="45.16693" lon="5.63645">
        <ele>1151.5</ele>
        <time>2021-08-30T12:44:21Z</time>
      </trkpt>
      <trkpt lat="45.16693" lon="5.63643">
        <ele>1151.6</ele>
        <time>2021-08-30T12:44:22Z</time>
      </trkpt>
      <trkpt lat="45.16693" lon="5.63643">
        <ele>1151.6</ele>
        <time>2021-08-30T12:44:23Z</time>
      </trkpt>
      <trkpt lat="45.16692" lon="5.63642">
        <ele>1151.6</ele>
        <time>2021-08-30T12:44:24Z</time>
      </trkpt>
      <trkpt lat="45.16692" lon="5.63642">
        <ele>1151.6</ele>
        <time>2021-08-30T12:44:25Z</time>
      </trkpt>
      <trkpt lat="45.16691" lon="5.63641">
        <ele>1151.7</ele>
        <time>2021-08-30T12:44:26Z</time>
      </trkpt>
      <trkpt lat="45.1669" lon="5.63641">
        <ele>1151.7</ele>
        <time>2021-08-30T12:44:27Z</time>
      </trkpt>
      <trkpt lat="45.16689" lon="5.6364">
        <ele>1151.7</ele>
        <time>2021-08-30T12:44:29Z</time>
      </trkpt>
      <trkpt lat="45.16689" lon="5.6364">
        <ele>1151.7</ele>
        <time>2021-08-30T12:44:30Z</time>
      </trkpt>
      <trkpt lat="45.16688" lon="5.63639">
        <ele>1151.8</ele>
        <time>2021-08-30T12:44:32Z</time>
      </trkpt>
      <trkpt lat="45.16691" lon="5.63632">
        <ele>1151.9</ele>
        <time>2021-08-30T12:44:57Z</time>
      </trkpt>
      <trkpt lat="45.16699" lon="5.63636">
        <ele>1151.9</ele>
        <time>2021-08-30T12:44:59Z</time>
      </trkpt>
      <trkpt lat="45.16705" lon="5.63638">
        <ele>1151.9</ele>
        <time>2021-08-30T12:45:00Z</time>
      </trkpt>
      <trkpt lat="45.16712" lon="5.6364">
        <ele>1151.8</ele>
        <time>2021-08-30T12:45:01Z</time>
      </trkpt>
      <trkpt lat="45.16716" lon="5.63642">
        <ele>1151.7</ele>
        <time>2021-08-30T12:45:02Z</time>
      </trkpt>
      <trkpt lat="45.16724" lon="5.63644">
        <ele>1151.6</ele>
        <time>2021-08-30T12:45:03Z</time>
      </trkpt>
      <trkpt lat="45.1673" lon="5.63645">
        <ele>1151.5</ele>
        <time>2021-08-30T12:45:05Z</time>
      </trkpt>
      <trkpt lat="45.16735" lon="5.63644">
        <ele>1151.4</ele>
        <time>2021-08-30T12:45:06Z</time>
      </trkpt>
      <trkpt lat="45.16741" lon="5.63644">
        <ele>1151.3</ele>
        <time>2021-08-30T12:45:07Z</time>
      </trkpt>
      <trkpt lat="45.16746" lon="5.63644">
        <ele>1151.3</ele>
        <time>2021-08-30T12:45:08Z</time>
      </trkpt>
      <trkpt lat="45.16755" lon="5.63645">
        <ele>1151.2</ele>
        <time>2021-08-30T12:45:10Z</time>
      </trkpt>
      <trkpt lat="45.1676" lon="5.63645">
        <ele>1151.2</ele>
        <time>2021-08-30T12:45:11Z</time>
      </trkpt>
      <trkpt lat="45.16764" lon="5.63644">
        <ele>1151.3</ele>
        <time>2021-08-30T12:45:12Z</time>
      </trkpt>
      <trkpt lat="45.16768" lon="5.63644">
        <ele>1151.3</ele>
        <time>2021-08-30T12:45:13Z</time>
      </trkpt>
      <trkpt lat="45.16774" lon="5.63644">
        <ele>1151.4</ele>
        <time>2021-08-30T12:45:15Z</time>
      </trkpt>
      <trkpt lat="45.16779" lon="5.63643">
        <ele>1151.4</ele>
        <time>2021-08-30T12:45:16Z</time>
      </trkpt>
      <trkpt lat="45.16782" lon="5.63642">
        <ele>1151.5</ele>
        <time>2021-08-30T12:45:17Z</time>
      </trkpt>
      <trkpt lat="45.16785" lon="5.63642">
        <ele>1151.6</ele>
        <time>2021-08-30T12:45:18Z</time>
      </trkpt>
      <trkpt lat="45.16791" lon="5.63643">
        <ele>1151.7</ele>
        <time>2021-08-30T12:45:20Z</time>
      </trkpt>
      <trkpt lat="45.16795" lon="5.63644">
        <ele>1151.7</ele>
        <time>2021-08-30T12:45:21Z</time>
      </trkpt>
      <trkpt lat="45.16799" lon="5.63645">
        <ele>1151.8</ele>
        <time>2021-08-30T12:45:22Z</time>
      </trkpt>
      <trkpt lat="45.16805" lon="5.63646">
        <ele>1151.9</ele>
        <time>2021-08-30T12:45:23Z</time>
      </trkpt>
      <trkpt lat="45.16815" lon="5.63654">
        <ele>1152</ele>
        <time>2021-08-30T12:45:25Z</time>
      </trkpt>
      <trkpt lat="45.16821" lon="5.63659">
        <ele>1152</ele>
        <time>2021-08-30T12:45:27Z</time>
      </trkpt>
      <trkpt lat="45.16827" lon="5.63662">
        <ele>1152</ele>
        <time>2021-08-30T12:45:28Z</time>
      </trkpt>
      <trkpt lat="45.16831" lon="5.63664">
        <ele>1152</ele>
        <time>2021-08-30T12:45:29Z</time>
      </trkpt>
      <trkpt lat="45.16834" lon="5.63666">
        <ele>1152</ele>
        <time>2021-08-30T12:45:30Z</time>
      </trkpt>
      <trkpt lat="45.16838" lon="5.63668">
        <ele>1152</ele>
        <time>2021-08-30T12:45:31Z</time>
      </trkpt>
      <trkpt lat="45.16844" lon="5.6367">
        <ele>1152.1</ele>
        <time>2021-08-30T12:45:33Z</time>
      </trkpt>
      <trkpt lat="45.16848" lon="5.63668">
        <ele>1152.1</ele>
        <time>2021-08-30T12:45:34Z</time>
      </trkpt>
      <trkpt lat="45.16852" lon="5.63665">
        <ele>1152.2</ele>
        <time>2021-08-30T12:45:35Z</time>
      </trkpt>
      <trkpt lat="45.16859" lon="5.63652">
        <ele>1152.4</ele>
        <time>2021-08-30T12:45:36Z</time>
      </trkpt>
      <trkpt lat="45.1687" lon="5.63641">
        <ele>1152.8</ele>
        <time>2021-08-30T12:45:38Z</time>
      </trkpt>
      <trkpt lat="45.16877" lon="5.6364">
        <ele>1153.1</ele>
        <time>2021-08-30T12:45:40Z</time>
      </trkpt>
      <trkpt lat="45.16882" lon="5.6364">
        <ele>1153.3</ele>
        <time>2021-08-30T12:45:41Z</time>
      </trkpt>
      <trkpt lat="45.16888" lon="5.63641">
        <ele>1153.5</ele>
        <time>2021-08-30T12:45:43Z</time>
      </trkpt>
      <trkpt lat="45.16893" lon="5.63642">
        <ele>1153.7</ele>
        <time>2021-08-30T12:45:44Z</time>
      </trkpt>
      <trkpt lat="45.16899" lon="5.63642">
        <ele>1154</ele>
        <time>2021-08-30T12:45:46Z</time>
      </trkpt>
      <trkpt lat="45.16902" lon="5.63641">
        <ele>1154.2</ele>
        <time>2021-08-30T12:45:47Z</time>
      </trkpt>
      <trkpt lat="45.16905" lon="5.63639">
        <ele>1154.4</ele>
        <time>2021-08-30T12:45:49Z</time>
      </trkpt>
      <trkpt lat="45.16909" lon="5.63638">
        <ele>1154.5</ele>
        <time>2021-08-30T12:45:50Z</time>
      </trkpt>
      <trkpt lat="45.16912" lon="5.63637">
        <ele>1154.7</ele>
        <time>2021-08-30T12:45:52Z</time>
      </trkpt>
      <trkpt lat="45.16916" lon="5.63635">
        <ele>1154.9</ele>
        <time>2021-08-30T12:45:53Z</time>
      </trkpt>
      <trkpt lat="45.16916" lon="5.63635">
        <ele>1155</ele>
        <time>2021-08-30T12:45:54Z</time>
      </trkpt>
      <trkpt lat="45.16916" lon="5.63632">
        <ele>1155.1</ele>
        <time>2021-08-30T12:45:55Z</time>
      </trkpt>
      <trkpt lat="45.16916" lon="5.63631">
        <ele>1155.2</ele>
        <time>2021-08-30T12:45:56Z</time>
      </trkpt>
      <trkpt lat="45.16915" lon="5.63629">
        <ele>1155.2</ele>
        <time>2021-08-30T12:45:57Z</time>
      </trkpt>
      <trkpt lat="45.16915" lon="5.63628">
        <ele>1155.3</ele>
        <time>2021-08-30T12:45:59Z</time>
      </trkpt>
      <trkpt lat="45.16916" lon="5.63627">
        <ele>1155.3</ele>
        <time>2021-08-30T12:46:01Z</time>
      </trkpt>
      <trkpt lat="45.16918" lon="5.63626">
        <ele>1155.5</ele>
        <time>2021-08-30T12:46:02Z</time>
      </trkpt>
      <trkpt lat="45.16919" lon="5.63626">
        <ele>1155.5</ele>
        <time>2021-08-30T12:46:04Z</time>
      </trkpt>
      <trkpt lat="45.16922" lon="5.63626">
        <ele>1155.7</ele>
        <time>2021-08-30T12:46:07Z</time>
      </trkpt>
      <trkpt lat="45.16926" lon="5.63625">
        <ele>1155.9</ele>
        <time>2021-08-30T12:46:09Z</time>
      </trkpt>
      <trkpt lat="45.16929" lon="5.63622">
        <ele>1156.2</ele>
        <time>2021-08-30T12:46:10Z</time>
      </trkpt>
      <trkpt lat="45.16931" lon="5.6362">
        <ele>1156.3</ele>
        <time>2021-08-30T12:46:11Z</time>
      </trkpt>
      <trkpt lat="45.16937" lon="5.63617">
        <ele>1156.6</ele>
        <time>2021-08-30T12:46:13Z</time>
      </trkpt>
      <trkpt lat="45.16942" lon="5.63616">
        <ele>1156.9</ele>
        <time>2021-08-30T12:46:14Z</time>
      </trkpt>
      <trkpt lat="45.16946" lon="5.63614">
        <ele>1157.1</ele>
        <time>2021-08-30T12:46:15Z</time>
      </trkpt>
      <trkpt lat="45.16948" lon="5.63613">
        <ele>1157.3</ele>
        <time>2021-08-30T12:46:16Z</time>
      </trkpt>
      <trkpt lat="45.16953" lon="5.63613">
        <ele>1157.5</ele>
        <time>2021-08-30T12:46:17Z</time>
      </trkpt>
      <trkpt lat="45.16956" lon="5.63613">
        <ele>1157.7</ele>
        <time>2021-08-30T12:46:18Z</time>
      </trkpt>
      <trkpt lat="45.16961" lon="5.63613">
        <ele>1158</ele>
        <time>2021-08-30T12:46:20Z</time>
      </trkpt>
      <trkpt lat="45.16963" lon="5.63613">
        <ele>1158.2</ele>
        <time>2021-08-30T12:46:21Z</time>
      </trkpt>
      <trkpt lat="45.16964" lon="5.63613">
        <ele>1158.3</ele>
        <time>2021-08-30T12:46:22Z</time>
      </trkpt>
      <trkpt lat="45.16968" lon="5.6361">
        <ele>1158.5</ele>
        <time>2021-08-30T12:46:24Z</time>
      </trkpt>
      <trkpt lat="45.16969" lon="5.63609">
        <ele>1158.6</ele>
        <time>2021-08-30T12:46:25Z</time>
      </trkpt>
      <trkpt lat="45.1697" lon="5.63608">
        <ele>1158.7</ele>
        <time>2021-08-30T12:46:26Z</time>
      </trkpt>
      <trkpt lat="45.16972" lon="5.63605">
        <ele>1158.9</ele>
        <time>2021-08-30T12:46:28Z</time>
      </trkpt>
      <trkpt lat="45.16972" lon="5.63604">
        <ele>1159</ele>
        <time>2021-08-30T12:46:29Z</time>
      </trkpt>
      <trkpt lat="45.16972" lon="5.63603">
        <ele>1159.1</ele>
        <time>2021-08-30T12:46:30Z</time>
      </trkpt>
      <trkpt lat="45.16972" lon="5.63602">
        <ele>1159.1</ele>
        <time>2021-08-30T12:46:32Z</time>
      </trkpt>
      <trkpt lat="45.16972" lon="5.63602">
        <ele>1159.1</ele>
        <time>2021-08-30T12:46:33Z</time>
      </trkpt>
      <trkpt lat="45.16972" lon="5.63601">
        <ele>1159.2</ele>
        <time>2021-08-30T12:46:34Z</time>
      </trkpt>
      <trkpt lat="45.16973" lon="5.636">
        <ele>1159.3</ele>
        <time>2021-08-30T12:46:35Z</time>
      </trkpt>
      <trkpt lat="45.16974" lon="5.63599">
        <ele>1159.4</ele>
        <time>2021-08-30T12:46:37Z</time>
      </trkpt>
      <trkpt lat="45.16975" lon="5.63597">
        <ele>1159.5</ele>
        <time>2021-08-30T12:46:38Z</time>
      </trkpt>
      <trkpt lat="45.16975" lon="5.63596">
        <ele>1159.5</ele>
        <time>2021-08-30T12:46:39Z</time>
      </trkpt>
      <trkpt lat="45.1709" lon="5.63493">
        <ele>1171.7</ele>
        <time>2021-08-30T12:48:22Z</time>
      </trkpt>
      <trkpt lat="45.17092" lon="5.63487">
        <ele>1171.8</ele>
        <time>2021-08-30T12:48:23Z</time>
      </trkpt>
      <trkpt lat="45.17093" lon="5.63482">
        <ele>1171.9</ele>
        <time>2021-08-30T12:48:24Z</time>
      </trkpt>
      <trkpt lat="45.17094" lon="5.63474">
        <ele>1172</ele>
        <time>2021-08-30T12:48:26Z</time>
      </trkpt>
      <trkpt lat="45.17095" lon="5.63468">
        <ele>1172</ele>
        <time>2021-08-30T12:48:28Z</time>
      </trkpt>
      <trkpt lat="45.17097" lon="5.63465">
        <ele>1172</ele>
        <time>2021-08-30T12:48:29Z</time>
      </trkpt>
      <trkpt lat="45.17096" lon="5.6346">
        <ele>1171.8</ele>
        <time>2021-08-30T12:48:31Z</time>
      </trkpt>
      <trkpt lat="45.17095" lon="5.63457">
        <ele>1171.8</ele>
        <time>2021-08-30T12:48:32Z</time>
      </trkpt>
      <trkpt lat="45.17095" lon="5.63457">
        <ele>1171.8</ele>
        <time>2021-08-30T12:48:33Z</time>
      </trkpt>
      <trkpt lat="45.17094" lon="5.63457">
        <ele>1171.8</ele>
        <time>2021-08-30T12:48:35Z</time>
      </trkpt>
      <trkpt lat="45.17094" lon="5.63457">
        <ele>1171.8</ele>
        <time>2021-08-30T12:48:36Z</time>
      </trkpt>
      <trkpt lat="45.17094" lon="5.63456">
        <ele>1171.8</ele>
        <time>2021-08-30T12:48:37Z</time>
      </trkpt>
      <trkpt lat="45.17093" lon="5.63456">
        <ele>1171.8</ele>
        <time>2021-08-30T12:48:39Z</time>
      </trkpt>
      <trkpt lat="45.17002" lon="5.63399">
        <ele>1190.2</ele>
        <time>2021-08-30T12:50:38Z</time>
      </trkpt>
      <trkpt lat="45.17" lon="5.63396">
        <ele>1190.8</ele>
        <time>2021-08-30T12:50:39Z</time>
      </trkpt>
      <trkpt lat="45.16998" lon="5.63394">
        <ele>1191.3</ele>
        <time>2021-08-30T12:50:40Z</time>
      </trkpt>
      <trkpt lat="45.16995" lon="5.63391">
        <ele>1192</ele>
        <time>2021-08-30T12:50:42Z</time>
      </trkpt>
      <trkpt lat="45.16994" lon="5.63389">
        <ele>1192.4</ele>
        <time>2021-08-30T12:50:43Z</time>
      </trkpt>
      <trkpt lat="45.16993" lon="5.63389">
        <ele>1192.4</ele>
        <time>2021-08-30T12:50:45Z</time>
      </trkpt>
      <trkpt lat="45.16993" lon="5.63389">
        <ele>1192.4</ele>
        <time>2021-08-30T12:50:46Z</time>
      </trkpt>
      <trkpt lat="45.16993" lon="5.63389">
        <ele>1192.5</ele>
        <time>2021-08-30T12:50:48Z</time>
      </trkpt>
      <trkpt lat="45.16993" lon="5.63389">
        <ele>1192.5</ele>
        <time>2021-08-30T12:50:49Z</time>
      </trkpt>
      <trkpt lat="45.16972" lon="5.63389">
        <ele>1195.9</ele>
        <time>2021-08-30T12:51:14Z</time>
      </trkpt>
      <trkpt lat="45.16971" lon="5.63389">
        <ele>1196.1</ele>
        <time>2021-08-30T12:51:16Z</time>
      </trkpt>
      <trkpt lat="45.1697" lon="5.63388">
        <ele>1196.3</ele>
        <time>2021-08-30T12:51:17Z</time>
      </trkpt>
      <trkpt lat="45.16969" lon="5.63387">
        <ele>1196.5</ele>
        <time>2021-08-30T12:51:19Z</time>
      </trkpt>
      <trkpt lat="45.16968" lon="5.63387">
        <ele>1196.5</ele>
        <time>2021-08-30T12:51:20Z</time>
      </trkpt>
      <trkpt lat="45.16967" lon="5.63386">
        <ele>1196.7</ele>
        <time>2021-08-30T12:51:22Z</time>
      </trkpt>
      <trkpt lat="45.16966" lon="5.63386">
        <ele>1196.7</ele>
        <time>2021-08-30T12:51:23Z</time>
      </trkpt>
      <trkpt lat="45.16966" lon="5.63386">
        <ele>1196.8</ele>
        <time>2021-08-30T12:51:24Z</time>
      </trkpt>
      <trkpt lat="45.16965" lon="5.63385">
        <ele>1196.9</ele>
        <time>2021-08-30T12:51:26Z</time>
      </trkpt>
      <trkpt lat="45.16964" lon="5.63385">
        <ele>1197</ele>
        <time>2021-08-30T12:51:27Z</time>
      </trkpt>
      <trkpt lat="45.16963" lon="5.63384">
        <ele>1197.2</ele>
        <time>2021-08-30T12:51:28Z</time>
      </trkpt>
      <trkpt lat="45.16961" lon="5.63383">
        <ele>1197.3</ele>
        <time>2021-08-30T12:51:29Z</time>
      </trkpt>
      <trkpt lat="45.1696" lon="5.63383">
        <ele>1197.4</ele>
        <time>2021-08-30T12:51:31Z</time>
      </trkpt>
      <trkpt lat="45.16959" lon="5.63383">
        <ele>1197.6</ele>
        <time>2021-08-30T12:51:32Z</time>
      </trkpt>
      <trkpt lat="45.16958" lon="5.63383">
        <ele>1197.6</ele>
        <time>2021-08-30T12:51:33Z</time>
      </trkpt>
      <trkpt lat="45.16956" lon="5.63382">
        <ele>1197.8</ele>
        <time>2021-08-30T12:51:35Z</time>
      </trkpt>
      <trkpt lat="45.16954" lon="5.63382">
        <ele>1197.9</ele>
        <time>2021-08-30T12:51:36Z</time>
      </trkpt>
      <trkpt lat="45.16953" lon="5.63381">
        <ele>1198</ele>
        <time>2021-08-30T12:51:38Z</time>
      </trkpt>
      <trkpt lat="45.16952" lon="5.63381">
        <ele>1198.1</ele>
        <time>2021-08-30T12:51:39Z</time>
      </trkpt>
      <trkpt lat="45.16951" lon="5.63381">
        <ele>1198.1</ele>
        <time>2021-08-30T12:51:41Z</time>
      </trkpt>
      <trkpt lat="45.1695" lon="5.63381">
        <ele>1198.2</ele>
        <time>2021-08-30T12:51:42Z</time>
      </trkpt>
      <trkpt lat="45.1695" lon="5.63381">
        <ele>1198.2</ele>
        <time>2021-08-30T12:51:43Z</time>
      </trkpt>
      <trkpt lat="45.16949" lon="5.63381">
        <ele>1198.2</ele>
        <time>2021-08-30T12:51:45Z</time>
      </trkpt>
      <trkpt lat="45.16949" lon="5.63381">
        <ele>1198.2</ele>
        <time>2021-08-30T12:51:46Z</time>
      </trkpt>
      <trkpt lat="45.16948" lon="5.63381">
        <ele>1198.3</ele>
        <time>2021-08-30T12:51:47Z</time>
      </trkpt>
      <trkpt lat="45.16948" lon="5.63381">
        <ele>1198.3</ele>
        <time>2021-08-30T12:51:48Z</time>
      </trkpt>
      <trkpt lat="45.16947" lon="5.63381">
        <ele>1198.3</ele>
        <time>2021-08-30T12:51:50Z</time>
      </trkpt>
      <trkpt lat="45.16946" lon="5.63382">
        <ele>1198.4</ele>
        <time>2021-08-30T12:51:51Z</time>
      </trkpt>
      <trkpt lat="45.16944" lon="5.63382">
        <ele>1198.5</ele>
        <time>2021-08-30T12:51:53Z</time>
      </trkpt>
      <trkpt lat="45.16941" lon="5.63383">
        <ele>1198.6</ele>
        <time>2021-08-30T12:51:55Z</time>
      </trkpt>
      <trkpt lat="45.16938" lon="5.63382">
        <ele>1198.7</ele>
        <time>2021-08-30T12:51:56Z</time>
      </trkpt>
      <trkpt lat="45.16934" lon="5.63382">
        <ele>1198.9</ele>
        <time>2021-08-30T12:51:57Z</time>
      </trkpt>
      <trkpt lat="45.1693" lon="5.63385">
        <ele>1199.1</ele>
        <time>2021-08-30T12:51:59Z</time>
      </trkpt>
      <trkpt lat="45.16927" lon="5.63386">
        <ele>1199.2</ele>
        <time>2021-08-30T12:52:00Z</time>
      </trkpt>
      <trkpt lat="45.16923" lon="5.63386">
        <ele>1199.4</ele>
        <time>2021-08-30T12:52:02Z</time>
      </trkpt>
      <trkpt lat="45.1692" lon="5.63387">
        <ele>1199.4</ele>
        <time>2021-08-30T12:52:03Z</time>
      </trkpt>
      <trkpt lat="45.16917" lon="5.63387">
        <ele>1199.6</ele>
        <time>2021-08-30T12:52:05Z</time>
      </trkpt>
      <trkpt lat="45.16916" lon="5.63387">
        <ele>1199.6</ele>
        <time>2021-08-30T12:52:06Z</time>
      </trkpt>
      <trkpt lat="45.16913" lon="5.63389">
        <ele>1199.7</ele>
        <time>2021-08-30T12:52:08Z</time>
      </trkpt>
      <trkpt lat="45.1691" lon="5.63388">
        <ele>1199.8</ele>
        <time>2021-08-30T12:52:09Z</time>
      </trkpt>
      <trkpt lat="45.16909" lon="5.63387">
        <ele>1199.9</ele>
        <time>2021-08-30T12:52:10Z</time>
      </trkpt>
      <trkpt lat="45.16906" lon="5.63388">
        <ele>1200</ele>
        <time>2021-08-30T12:52:12Z</time>
      </trkpt>
      <trkpt lat="45.16902" lon="5.63385">
        <ele>1200.2</ele>
        <time>2021-08-30T12:52:14Z</time>
      </trkpt>
      <trkpt lat="45.16899" lon="5.63383">
        <ele>1200.4</ele>
        <time>2021-08-30T12:52:16Z</time>
      </trkpt>
      <trkpt lat="45.16896" lon="5.63383">
        <ele>1200.5</ele>
        <time>2021-08-30T12:52:17Z</time>
      </trkpt>
      <trkpt lat="45.16892" lon="5.63381">
        <ele>1200.8</ele>
        <time>2021-08-30T12:52:19Z</time>
      </trkpt>
      <trkpt lat="45.1689" lon="5.63378">
        <ele>1201.1</ele>
        <time>2021-08-30T12:52:20Z</time>
      </trkpt>
      <trkpt lat="45.16888" lon="5.63377">
        <ele>1201.3</ele>
        <time>2021-08-30T12:52:21Z</time>
      </trkpt>
      <trkpt lat="45.16885" lon="5.63377">
        <ele>1201.6</ele>
        <time>2021-08-30T12:52:23Z</time>
      </trkpt>
      <trkpt lat="45.16882" lon="5.63377">
        <ele>1201.8</ele>
        <time>2021-08-30T12:52:24Z</time>
      </trkpt>
      <trkpt lat="45.16881" lon="5.63377">
        <ele>1201.9</ele>
        <time>2021-08-30T12:52:26Z</time>
      </trkpt>
      <trkpt lat="45.1688" lon="5.63378">
        <ele>1202</ele>
        <time>2021-08-30T12:52:27Z</time>
      </trkpt>
      <trkpt lat="45.16878" lon="5.63377">
        <ele>1202.2</ele>
        <time>2021-08-30T12:52:28Z</time>
      </trkpt>
      <trkpt lat="45.16877" lon="5.63377">
        <ele>1202.3</ele>
        <time>2021-08-30T12:52:29Z</time>
      </trkpt>
      <trkpt lat="45.16876" lon="5.63377">
        <ele>1202.5</ele>
        <time>2021-08-30T12:52:30Z</time>
      </trkpt>
      <trkpt lat="45.16874" lon="5.63376">
        <ele>1202.8</ele>
        <time>2021-08-30T12:52:31Z</time>
      </trkpt>
      <trkpt lat="45.16872" lon="5.63376">
        <ele>1203.1</ele>
        <time>2021-08-30T12:52:33Z</time>
      </trkpt>
      <trkpt lat="45.1687" lon="5.63376">
        <ele>1203.5</ele>
        <time>2021-08-30T12:52:34Z</time>
      </trkpt>
      <trkpt lat="45.16867" lon="5.63375">
        <ele>1203.9</ele>
        <time>2021-08-30T12:52:36Z</time>
      </trkpt>
      <trkpt lat="45.16865" lon="5.63375">
        <ele>1204.2</ele>
        <time>2021-08-30T12:52:37Z</time>
      </trkpt>
      <trkpt lat="45.16864" lon="5.63375">
        <ele>1204.5</ele>
        <time>2021-08-30T12:52:38Z</time>
      </trkpt>
      <trkpt lat="45.16862" lon="5.63375">
        <ele>1204.8</ele>
        <time>2021-08-30T12:52:39Z</time>
      </trkpt>
      <trkpt lat="45.16861" lon="5.63375">
        <ele>1205</ele>
        <time>2021-08-30T12:52:40Z</time>
      </trkpt>
      <trkpt lat="45.16859" lon="5.63375">
        <ele>1205.4</ele>
        <time>2021-08-30T12:52:41Z</time>
      </trkpt>
      <trkpt lat="45.16858" lon="5.63375">
        <ele>1205.5</ele>
        <time>2021-08-30T12:52:42Z</time>
      </trkpt>
      <trkpt lat="45.16857" lon="5.63374">
        <ele>1205.7</ele>
        <time>2021-08-30T12:52:43Z</time>
      </trkpt>
      <trkpt lat="45.16854" lon="5.63373">
        <ele>1206.2</ele>
        <time>2021-08-30T12:52:44Z</time>
      </trkpt>
      <trkpt lat="45.16853" lon="5.63372">
        <ele>1206.4</ele>
        <time>2021-08-30T12:52:45Z</time>
      </trkpt>
      <trkpt lat="45.16853" lon="5.63372">
        <ele>1206.5</ele>
        <time>2021-08-30T12:52:47Z</time>
      </trkpt>
      <trkpt lat="45.16852" lon="5.63371">
        <ele>1206.7</ele>
        <time>2021-08-30T12:52:48Z</time>
      </trkpt>
      <trkpt lat="45.16852" lon="5.63371">
        <ele>1206.7</ele>
        <time>2021-08-30T12:52:49Z</time>
      </trkpt>
      <trkpt lat="45.16851" lon="5.63371">
        <ele>1206.8</ele>
        <time>2021-08-30T12:52:50Z</time>
      </trkpt>
      <trkpt lat="45.16848" lon="5.6337">
        <ele>1207.4</ele>
        <time>2021-08-30T12:52:51Z</time>
      </trkpt>
      <trkpt lat="45.16847" lon="5.6337">
        <ele>1207.7</ele>
        <time>2021-08-30T12:52:52Z</time>
      </trkpt>
      <trkpt lat="45.16844" lon="5.63369">
        <ele>1208</ele>
        <time>2021-08-30T12:52:54Z</time>
      </trkpt>
      <trkpt lat="45.16843" lon="5.63368">
        <ele>1208.1</ele>
        <time>2021-08-30T12:52:55Z</time>
      </trkpt>
      <trkpt lat="45.16842" lon="5.63368">
        <ele>1208.2</ele>
        <time>2021-08-30T12:52:56Z</time>
      </trkpt>
      <trkpt lat="45.16843" lon="5.63369">
        <ele>1208.2</ele>
        <time>2021-08-30T12:52:58Z</time>
      </trkpt>
      <trkpt lat="45.16843" lon="5.6337">
        <ele>1208.3</ele>
        <time>2021-08-30T12:52:59Z</time>
      </trkpt>
      <trkpt lat="45.16843" lon="5.6337">
        <ele>1208.3</ele>
        <time>2021-08-30T12:53:01Z</time>
      </trkpt>
      <trkpt lat="45.16843" lon="5.6337">
        <ele>1208.3</ele>
        <time>2021-08-30T12:53:03Z</time>
      </trkpt>
      <trkpt lat="45.16842" lon="5.63371">
        <ele>1208.4</ele>
        <time>2021-08-30T12:53:05Z</time>
      </trkpt>
      <trkpt lat="45.16805" lon="5.63361">
        <ele>1213.3</ele>
        <time>2021-08-30T12:53:47Z</time>
      </trkpt>
      <trkpt lat="45.16801" lon="5.63359">
        <ele>1213.7</ele>
        <time>2021-08-30T12:53:48Z</time>
      </trkpt>
      <trkpt lat="45.16799" lon="5.63357">
        <ele>1214</ele>
        <time>2021-08-30T12:53:50Z</time>
      </trkpt>
      <trkpt lat="45.16796" lon="5.63356">
        <ele>1214.3</ele>
        <time>2021-08-30T12:53:51Z</time>
      </trkpt>
      <trkpt lat="45.16794" lon="5.63354">
        <ele>1214.6</ele>
        <time>2021-08-30T12:53:53Z</time>
      </trkpt>
      <trkpt lat="45.16792" lon="5.63352">
        <ele>1214.8</ele>
        <time>2021-08-30T12:53:55Z</time>
      </trkpt>
      <trkpt lat="45.16792" lon="5.63352">
        <ele>1214.8</ele>
        <time>2021-08-30T12:53:56Z</time>
      </trkpt>
      <trkpt lat="45.16791" lon="5.63351">
        <ele>1214.9</ele>
        <time>2021-08-30T12:53:57Z</time>
      </trkpt>
      <trkpt lat="45.16791" lon="5.63351">
        <ele>1215</ele>
        <time>2021-08-30T12:53:58Z</time>
      </trkpt>
      <trkpt lat="45.1679" lon="5.6335">
        <ele>1215.1</ele>
        <time>2021-08-30T12:53:59Z</time>
      </trkpt>
      <trkpt lat="45.16788" lon="5.6335">
        <ele>1215.2</ele>
        <time>2021-08-30T12:54:01Z</time>
      </trkpt>
      <trkpt lat="45.16774" lon="5.63344">
        <ele>1216.5</ele>
        <time>2021-08-30T12:54:11Z</time>
      </trkpt>
      <trkpt lat="45.16769" lon="5.63341">
        <ele>1217</ele>
        <time>2021-08-30T12:54:13Z</time>
      </trkpt>
      <trkpt lat="45.16767" lon="5.63339">
        <ele>1217.3</ele>
        <time>2021-08-30T12:54:14Z</time>
      </trkpt>
      <trkpt lat="45.16764" lon="5.63337">
        <ele>1217.5</ele>
        <time>2021-08-30T12:54:15Z</time>
      </trkpt>
      <trkpt lat="45.1676" lon="5.63336">
        <ele>1217.9</ele>
        <time>2021-08-30T12:54:17Z</time>
      </trkpt>
      <trkpt lat="45.16758" lon="5.63335">
        <ele>1218.1</ele>
        <time>2021-08-30T12:54:18Z</time>
      </trkpt>
      <trkpt lat="45.16755" lon="5.63335">
        <ele>1218.4</ele>
        <time>2021-08-30T12:54:20Z</time>
      </trkpt>
      <trkpt lat="45.16752" lon="5.63334">
        <ele>1218.7</ele>
        <time>2021-08-30T12:54:21Z</time>
      </trkpt>
      <trkpt lat="45.16751" lon="5.63334">
        <ele>1218.8</ele>
        <time>2021-08-30T12:54:22Z</time>
      </trkpt>
      <trkpt lat="45.16748" lon="5.63335">
        <ele>1219</ele>
        <time>2021-08-30T12:54:24Z</time>
      </trkpt>
      <trkpt lat="45.16746" lon="5.63335">
        <ele>1219.2</ele>
        <time>2021-08-30T12:54:25Z</time>
      </trkpt>
      <trkpt lat="45.16745" lon="5.63336">
        <ele>1219.3</ele>
        <time>2021-08-30T12:54:26Z</time>
      </trkpt>
      <trkpt lat="45.16745" lon="5.63338">
        <ele>1219.4</ele>
        <time>2021-08-30T12:54:28Z</time>
      </trkpt>
      <trkpt lat="45.16745" lon="5.63338">
        <ele>1219.5</ele>
        <time>2021-08-30T12:54:29Z</time>
      </trkpt>
      <trkpt lat="45.16745" lon="5.63338">
        <ele>1219.5</ele>
        <time>2021-08-30T12:54:30Z</time>
      </trkpt>
      <trkpt lat="45.16745" lon="5.63338">
        <ele>1219.5</ele>
        <time>2021-08-30T12:54:32Z</time>
      </trkpt>
      <trkpt lat="45.16745" lon="5.63338">
        <ele>1219.5</ele>
        <time>2021-08-30T12:54:33Z</time>
      </trkpt>
      <trkpt lat="45.16745" lon="5.63338">
        <ele>1219.5</ele>
        <time>2021-08-30T12:54:34Z</time>
      </trkpt>
      <trkpt lat="45.16745" lon="5.63338">
        <ele>1219.5</ele>
        <time>2021-08-30T12:54:35Z</time>
      </trkpt>
      <trkpt lat="45.16721" lon="5.63323">
        <ele>1221.6</ele>
        <time>2021-08-30T12:55:27Z</time>
      </trkpt>
      <trkpt lat="45.16717" lon="5.6332">
        <ele>1221.9</ele>
        <time>2021-08-30T12:55:28Z</time>
      </trkpt>
      <trkpt lat="45.16709" lon="5.63316">
        <ele>1222.3</ele>
        <time>2021-08-30T12:55:30Z</time>
      </trkpt>
      <trkpt lat="45.16702" lon="5.63315">
        <ele>1222.7</ele>
        <time>2021-08-30T12:55:32Z</time>
      </trkpt>
      <trkpt lat="45.16697" lon="5.63314">
        <ele>1223</ele>
        <time>2021-08-30T12:55:34Z</time>
      </trkpt>
      <trkpt lat="45.16693" lon="5.63313">
        <ele>1223.2</ele>
        <time>2021-08-30T12:55:35Z</time>
      </trkpt>
      <trkpt lat="45.16692" lon="5.63313">
        <ele>1223.3</ele>
        <time>2021-08-30T12:55:36Z</time>
      </trkpt>
      <trkpt lat="45.16687" lon="5.63313">
        <ele>1223.6</ele>
        <time>2021-08-30T12:55:38Z</time>
      </trkpt>
      <trkpt lat="45.16683" lon="5.63313">
        <ele>1223.8</ele>
        <time>2021-08-30T12:55:40Z</time>
      </trkpt>
      <trkpt lat="45.16682" lon="5.63313">
        <ele>1223.9</ele>
        <time>2021-08-30T12:55:41Z</time>
      </trkpt>
      <trkpt lat="45.16681" lon="5.63319">
        <ele>1224.1</ele>
        <time>2021-08-30T12:55:43Z</time>
      </trkpt>
      <trkpt lat="45.16679" lon="5.6332">
        <ele>1224.2</ele>
        <time>2021-08-30T12:55:44Z</time>
      </trkpt>
      <trkpt lat="45.16678" lon="5.6332">
        <ele>1224.2</ele>
        <time>2021-08-30T12:55:45Z</time>
      </trkpt>
      <trkpt lat="45.16676" lon="5.63319">
        <ele>1224.3</ele>
        <time>2021-08-30T12:55:47Z</time>
      </trkpt>
      <trkpt lat="45.16671" lon="5.63319">
        <ele>1224.6</ele>
        <time>2021-08-30T12:55:49Z</time>
      </trkpt>
      <trkpt lat="45.16668" lon="5.63318">
        <ele>1224.7</ele>
        <time>2021-08-30T12:55:50Z</time>
      </trkpt>
      <trkpt lat="45.16664" lon="5.63314">
        <ele>1224.9</ele>
        <time>2021-08-30T12:55:52Z</time>
      </trkpt>
      <trkpt lat="45.16662" lon="5.63313">
        <ele>1225</ele>
        <time>2021-08-30T12:55:54Z</time>
      </trkpt>
      <trkpt lat="45.16661" lon="5.63314">
        <ele>1225.1</ele>
        <time>2021-08-30T12:55:55Z</time>
      </trkpt>
      <trkpt lat="45.16658" lon="5.63314">
        <ele>1225.3</ele>
        <time>2021-08-30T12:55:57Z</time>
      </trkpt>
      <trkpt lat="45.16655" lon="5.63313">
        <ele>1225.4</ele>
        <time>2021-08-30T12:55:58Z</time>
      </trkpt>
      <trkpt lat="45.16651" lon="5.63306">
        <ele>1225.7</ele>
        <time>2021-08-30T12:56:00Z</time>
      </trkpt>
      <trkpt lat="45.16646" lon="5.63301">
        <ele>1226</ele>
        <time>2021-08-30T12:56:02Z</time>
      </trkpt>
      <trkpt lat="45.16645" lon="5.63297">
        <ele>1226.1</ele>
        <time>2021-08-30T12:56:03Z</time>
      </trkpt>
      <trkpt lat="45.16642" lon="5.63296">
        <ele>1226.3</ele>
        <time>2021-08-30T12:56:05Z</time>
      </trkpt>
      <trkpt lat="45.16641" lon="5.63295">
        <ele>1226.3</ele>
        <time>2021-08-30T12:56:06Z</time>
      </trkpt>
      <trkpt lat="45.1664" lon="5.63294">
        <ele>1226.4</ele>
        <time>2021-08-30T12:56:07Z</time>
      </trkpt>
      <trkpt lat="45.1664" lon="5.63293">
        <ele>1226.4</ele>
        <time>2021-08-30T12:56:08Z</time>
      </trkpt>
      <trkpt lat="45.16639" lon="5.63294">
        <ele>1226.5</ele>
        <time>2021-08-30T12:56:10Z</time>
      </trkpt>
      <trkpt lat="45.16638" lon="5.63295">
        <ele>1226.5</ele>
        <time>2021-08-30T12:56:11Z</time>
      </trkpt>
      <trkpt lat="45.16636" lon="5.63294">
        <ele>1226.6</ele>
        <time>2021-08-30T12:56:13Z</time>
      </trkpt>
      <trkpt lat="45.16634" lon="5.63294">
        <ele>1226.8</ele>
        <time>2021-08-30T12:56:15Z</time>
      </trkpt>
      <trkpt lat="45.16632" lon="5.63294">
        <ele>1226.8</ele>
        <time>2021-08-30T12:56:16Z</time>
      </trkpt>
      <trkpt lat="45.16628" lon="5.63294">
        <ele>1227</ele>
        <time>2021-08-30T12:56:18Z</time>
      </trkpt>
      <trkpt lat="45.1657" lon="5.63272">
        <ele>1231.2</ele>
        <time>2021-08-30T12:56:45Z</time>
      </trkpt>
      <trkpt lat="45.1657" lon="5.63272">
        <ele>1231.3</ele>
        <time>2021-08-30T12:56:46Z</time>
      </trkpt>
      <trkpt lat="45.16572" lon="5.63273">
        <ele>1231.4</ele>
        <time>2021-08-30T12:56:47Z</time>
      </trkpt>
      <trkpt lat="45.16572" lon="5.63274">
        <ele>1231.4</ele>
        <time>2021-08-30T12:56:49Z</time>
      </trkpt>
      <trkpt lat="45.16572" lon="5.63275">
        <ele>1231.5</ele>
        <time>2021-08-30T12:56:50Z</time>
      </trkpt>
      <trkpt lat="45.1657" lon="5.63276">
        <ele>1231.5</ele>
        <time>2021-08-30T12:56:51Z</time>
      </trkpt>
      <trkpt lat="45.16567" lon="5.63276">
        <ele>1231.7</ele>
        <time>2021-08-30T12:56:53Z</time>
      </trkpt>
      <trkpt lat="45.16565" lon="5.63275">
        <ele>1231.8</ele>
        <time>2021-08-30T12:56:55Z</time>
      </trkpt>
      <trkpt lat="45.16563" lon="5.63271">
        <ele>1232</ele>
        <time>2021-08-30T12:56:57Z</time>
      </trkpt>
      <trkpt lat="45.16561" lon="5.63269">
        <ele>1232.2</ele>
        <time>2021-08-30T12:56:58Z</time>
      </trkpt>
      <trkpt lat="45.16559" lon="5.63266">
        <ele>1232.3</ele>
        <time>2021-08-30T12:57:00Z</time>
      </trkpt>
      <trkpt lat="45.16557" lon="5.63265">
        <ele>1232.4</ele>
        <time>2021-08-30T12:57:01Z</time>
      </trkpt>
      <trkpt lat="45.16556" lon="5.63265">
        <ele>1232.5</ele>
        <time>2021-08-30T12:57:02Z</time>
      </trkpt>
      <trkpt lat="45.16553" lon="5.63265">
        <ele>1232.8</ele>
        <time>2021-08-30T12:57:04Z</time>
      </trkpt>
      <trkpt lat="45.16552" lon="5.63265">
        <ele>1232.9</ele>
        <time>2021-08-30T12:57:05Z</time>
      </trkpt>
      <trkpt lat="45.1655" lon="5.63265">
        <ele>1233.1</ele>
        <time>2021-08-30T12:57:07Z</time>
      </trkpt>
      <trkpt lat="45.16548" lon="5.63266">
        <ele>1233.6</ele>
        <time>2021-08-30T12:57:09Z</time>
      </trkpt>
      <trkpt lat="45.16548" lon="5.63268">
        <ele>1234</ele>
        <time>2021-08-30T12:57:10Z</time>
      </trkpt>
      <trkpt lat="45.16549" lon="5.63269">
        <ele>1234.1</ele>
        <time>2021-08-30T12:57:11Z</time>
      </trkpt>
      <trkpt lat="45.16549" lon="5.63269">
        <ele>1234.2</ele>
        <time>2021-08-30T12:57:12Z</time>
      </trkpt>
      <trkpt lat="45.16548" lon="5.6327">
        <ele>1234.2</ele>
        <time>2021-08-30T12:57:14Z</time>
      </trkpt>
      <trkpt lat="45.16548" lon="5.6327">
        <ele>1234.3</ele>
        <time>2021-08-30T12:57:15Z</time>
      </trkpt>
      <trkpt lat="45.16548" lon="5.6327">
        <ele>1234.4</ele>
        <time>2021-08-30T12:57:17Z</time>
      </trkpt>
      <trkpt lat="45.16508" lon="5.63187">
        <ele>1233.9</ele>
        <time>2021-08-30T12:58:06Z</time>
      </trkpt>
      <trkpt lat="45.16506" lon="5.63185">
        <ele>1234.2</ele>
        <time>2021-08-30T12:58:07Z</time>
      </trkpt>
      <trkpt lat="45.16504" lon="5.63181">
        <ele>1233.7</ele>
        <time>2021-08-30T12:58:09Z</time>
      </trkpt>
      <trkpt lat="45.16502" lon="5.63179">
        <ele>1234.6</ele>
        <time>2021-08-30T12:58:11Z</time>
      </trkpt>
      <trkpt lat="45.16501" lon="5.6318">
        <ele>1234.7</ele>
        <time>2021-08-30T12:58:12Z</time>
      </trkpt>
      <trkpt lat="45.165" lon="5.6318">
        <ele>1235.6</ele>
        <time>2021-08-30T12:58:13Z</time>
      </trkpt>
      <trkpt lat="45.16499" lon="5.63184">
        <ele>1236.1</ele>
        <time>2021-08-30T12:58:15Z</time>
      </trkpt>
      <trkpt lat="45.16498" lon="5.63188">
        <ele>1236.7</ele>
        <time>2021-08-30T12:58:17Z</time>
      </trkpt>
      <trkpt lat="45.16497" lon="5.63189">
        <ele>1237.5</ele>
        <time>2021-08-30T12:58:18Z</time>
      </trkpt>
      <trkpt lat="45.16496" lon="5.6319">
        <ele>1237.6</ele>
        <time>2021-08-30T12:58:19Z</time>
      </trkpt>
      <trkpt lat="45.16496" lon="5.63192">
        <ele>1238</ele>
        <time>2021-08-30T12:58:21Z</time>
      </trkpt>
      <trkpt lat="45.16495" lon="5.63193">
        <ele>1238.1</ele>
        <time>2021-08-30T12:58:23Z</time>
      </trkpt>
      <trkpt lat="45.16466" lon="5.63282">
        <ele>1251.9</ele>
        <time>2021-08-30T13:00:17Z</time>
      </trkpt>
      <trkpt lat="45.16463" lon="5.63283">
        <ele>1252.6</ele>
        <time>2021-08-30T13:00:18Z</time>
      </trkpt>
      <trkpt lat="45.16462" lon="5.63283">
        <ele>1252.8</ele>
        <time>2021-08-30T13:00:19Z</time>
      </trkpt>
      <trkpt lat="45.1646" lon="5.63282">
        <ele>1253.2</ele>
        <time>2021-08-30T13:00:21Z</time>
      </trkpt>
      <trkpt lat="45.16459" lon="5.63282">
        <ele>1253.3</ele>
        <time>2021-08-30T13:00:22Z</time>
      </trkpt>
      <trkpt lat="45.16459" lon="5.63281">
        <ele>1253.5</ele>
        <time>2021-08-30T13:00:24Z</time>
      </trkpt>
      <trkpt lat="45.16458" lon="5.63281">
        <ele>1253.6</ele>
        <time>2021-08-30T13:00:25Z</time>
      </trkpt>
      <trkpt lat="45.16457" lon="5.6328">
        <ele>1253.8</ele>
        <time>2021-08-30T13:00:26Z</time>
      </trkpt>
      <trkpt lat="45.16456" lon="5.63279">
        <ele>1254.1</ele>
        <time>2021-08-30T13:00:27Z</time>
      </trkpt>
      <trkpt lat="45.16454" lon="5.63279">
        <ele>1254.4</ele>
        <time>2021-08-30T13:00:29Z</time>
      </trkpt>
      <trkpt lat="45.16454" lon="5.63279">
        <ele>1254.5</ele>
        <time>2021-08-30T13:00:30Z</time>
      </trkpt>
      <trkpt lat="45.16453" lon="5.63279">
        <ele>1254.7</ele>
        <time>2021-08-30T13:00:32Z</time>
      </trkpt>
      <trkpt lat="45.16452" lon="5.63278">
        <ele>1254.8</ele>
        <time>2021-08-30T13:00:33Z</time>
      </trkpt>
      <trkpt lat="45.16452" lon="5.63278">
        <ele>1254.9</ele>
        <time>2021-08-30T13:00:35Z</time>
      </trkpt>
      <trkpt lat="45.16452" lon="5.63278">
        <ele>1254.9</ele>
        <time>2021-08-30T13:00:36Z</time>
      </trkpt>
      <trkpt lat="45.16452" lon="5.63278">
        <ele>1255</ele>
        <time>2021-08-30T13:00:37Z</time>
      </trkpt>
      <trkpt lat="45.16451" lon="5.63278">
        <ele>1255</ele>
        <time>2021-08-30T13:00:39Z</time>
      </trkpt>
      <trkpt lat="45.16451" lon="5.63277">
        <ele>1255.1</ele>
        <time>2021-08-30T13:00:41Z</time>
      </trkpt>
      <trkpt lat="45.16451" lon="5.63277">
        <ele>1255.1</ele>
        <time>2021-08-30T13:00:42Z</time>
      </trkpt>
      <trkpt lat="45.16451" lon="5.63277">
        <ele>1255.2</ele>
        <time>2021-08-30T13:00:44Z</time>
      </trkpt>
      <trkpt lat="45.16451" lon="5.63276">
        <ele>1255.2</ele>
        <time>2021-08-30T13:00:46Z</time>
      </trkpt>
      <trkpt lat="45.16451" lon="5.63276">
        <ele>1255.3</ele>
        <time>2021-08-30T13:00:48Z</time>
      </trkpt>
      <trkpt lat="45.1645" lon="5.63276">
        <ele>1255.3</ele>
        <time>2021-08-30T13:00:50Z</time>
      </trkpt>
      <trkpt lat="45.1645" lon="5.63276">
        <ele>1255.3</ele>
        <time>2021-08-30T13:00:52Z</time>
      </trkpt>
      <trkpt lat="45.1645" lon="5.63276">
        <ele>1255.3</ele>
        <time>2021-08-30T13:00:53Z</time>
      </trkpt>
      <trkpt lat="45.1645" lon="5.63276">
        <ele>1255.4</ele>
        <time>2021-08-30T13:00:54Z</time>
      </trkpt>
      <trkpt lat="45.1645" lon="5.63275">
        <ele>1255.5</ele>
        <time>2021-08-30T13:00:56Z</time>
      </trkpt>
      <trkpt lat="45.1645" lon="5.63275">
        <ele>1255.5</ele>
        <time>2021-08-30T13:00:57Z</time>
      </trkpt>
      <trkpt lat="45.1645" lon="5.63275">
        <ele>1255.5</ele>
        <time>2021-08-30T13:00:58Z</time>
      </trkpt>
      <trkpt lat="45.1645" lon="5.63275">
        <ele>1255.5</ele>
        <time>2021-08-30T13:01:00Z</time>
      </trkpt>
      <trkpt lat="45.1645" lon="5.63275">
        <ele>1255.5</ele>
        <time>2021-08-30T13:01:02Z</time>
      </trkpt>
      <trkpt lat="45.1645" lon="5.63275">
        <ele>1255.5</ele>
        <time>2021-08-30T13:01:04Z</time>
      </trkpt>
      <trkpt lat="45.1645" lon="5.63275">
        <ele>1255.5</ele>
        <time>2021-08-30T13:01:05Z</time>
      </trkpt>
      <trkpt lat="45.1645" lon="5.63275">
        <ele>1255.5</ele>
        <time>2021-08-30T13:01:06Z</time>
      </trkpt>
      <trkpt lat="45.1645" lon="5.63275">
        <ele>1255.5</ele>
        <time>2021-08-30T13:01:08Z</time>
      </trkpt>
      <trkpt lat="45.1645" lon="5.63275">
        <ele>1255.5</ele>
        <time>2021-08-30T13:01:10Z</time>
      </trkpt>
      <trkpt lat="45.1645" lon="5.63275">
        <ele>1255.5</ele>
        <time>2021-08-30T13:01:12Z</time>
      </trkpt>
      <trkpt lat="45.1645" lon="5.63275">
        <ele>1255.5</ele>
        <time>2021-08-30T13:01:14Z</time>
      </trkpt>
      <trkpt lat="45.1645" lon="5.63275">
        <ele>1255.5</ele>
        <time>2021-08-30T13:01:16Z</time>
      </trkpt>
      <trkpt lat="45.1645" lon="5.63275">
        <ele>1255.5</ele>
        <time>2021-08-30T13:01:17Z</time>
      </trkpt>
      <trkpt lat="45.1645" lon="5.63275">
        <ele>1255.5</ele>
        <time>2021-08-30T13:01:18Z</time>
      </trkpt>
      <trkpt lat="45.1645" lon="5.63275">
        <ele>1255.5</ele>
        <time>2021-08-30T13:01:19Z</time>
      </trkpt>
      <trkpt lat="45.1645" lon="5.63275">
        <ele>1255.5</ele>
        <time>2021-08-30T13:01:21Z</time>
      </trkpt>
      <trkpt lat="45.1645" lon="5.63275">
        <ele>1255.5</ele>
        <time>2021-08-30T13:01:22Z</time>
      </trkpt>
      <trkpt lat="45.1645" lon="5.63275">
        <ele>1255.5</ele>
        <time>2021-08-30T13:01:24Z</time>
      </trkpt>
      <trkpt lat="45.1645" lon="5.63275">
        <ele>1255.5</ele>
        <time>2021-08-30T13:01:26Z</time>
      </trkpt>
      <trkpt lat="45.1645" lon="5.63275">
        <ele>1255.5</ele>
        <time>2021-08-30T13:01:28Z</time>
      </trkpt>
      <trkpt lat="45.1645" lon="5.63275">
        <ele>1255.5</ele>
        <time>2021-08-30T13:01:29Z</time>
      </trkpt>
      <trkpt lat="45.1645" lon="5.63275">
        <ele>1255.5</ele>
        <time>2021-08-30T13:01:30Z</time>
      </trkpt>
      <trkpt lat="45.16444" lon="5.63272">
        <ele>1256.8</ele>
        <time>2021-08-30T13:01:32Z</time>
      </trkpt>
      <trkpt lat="45.16442" lon="5.63272">
        <ele>1257.1</ele>
        <time>2021-08-30T13:01:33Z</time>
      </trkpt>
      <trkpt lat="45.16441" lon="5.63272">
        <ele>1257.5</ele>
        <time>2021-08-30T13:01:35Z</time>
      </trkpt>
      <trkpt lat="45.16441" lon="5.63272">
        <ele>1257.5</ele>
        <time>2021-08-30T13:01:36Z</time>
      </trkpt>
      <trkpt lat="45.16441" lon="5.63272">
        <ele>1257.5</ele>
        <time>2021-08-30T13:01:37Z</time>
      </trkpt>
      <trkpt lat="45.16441" lon="5.63272">
        <ele>1257.5</ele>
        <time>2021-08-30T13:01:39Z</time>
      </trkpt>
      <trkpt lat="45.16441" lon="5.63271">
        <ele>1257.6</ele>
        <time>2021-08-30T13:01:40Z</time>
      </trkpt>
      <trkpt lat="45.16441" lon="5.63271">
        <ele>1257.6</ele>
        <time>2021-08-30T13:01:41Z</time>
      </trkpt>
      <trkpt lat="45.16441" lon="5.63271">
        <ele>1257.6</ele>
        <time>2021-08-30T13:01:43Z</time>
      </trkpt>
      <trkpt lat="45.16441" lon="5.63271">
        <ele>1257.6</ele>
        <time>2021-08-30T13:01:45Z</time>
      </trkpt>
      <trkpt lat="45.16441" lon="5.63271">
        <ele>1257.6</ele>
        <time>2021-08-30T13:01:46Z</time>
      </trkpt>
      <trkpt lat="45.16441" lon="5.63271">
        <ele>1257.6</ele>
        <time>2021-08-30T13:01:48Z</time>
      </trkpt>
      <trkpt lat="45.16439" lon="5.63272">
        <ele>1258</ele>
        <time>2021-08-30T13:01:50Z</time>
      </trkpt>
      <trkpt lat="45.16438" lon="5.63273">
        <ele>1258.2</ele>
        <time>2021-08-30T13:01:51Z</time>
      </trkpt>
      <trkpt lat="45.16435" lon="5.63274">
        <ele>1258.8</ele>
        <time>2021-08-30T13:01:53Z</time>
      </trkpt>
      <trkpt lat="45.16434" lon="5.63274">
        <ele>1259</ele>
        <time>2021-08-30T13:01:54Z</time>
      </trkpt>
      <trkpt lat="45.16429" lon="5.63269">
        <ele>1260.3</ele>
        <time>2021-08-30T13:01:56Z</time>
      </trkpt>
      <trkpt lat="45.16429" lon="5.63263">
        <ele>1261.3</ele>
        <time>2021-08-30T13:01:58Z</time>
      </trkpt>
      <trkpt lat="45.16431" lon="5.63254">
        <ele>1258.5</ele>
        <time>2021-08-30T13:02:00Z</time>
      </trkpt>
      <trkpt lat="45.16433" lon="5.6325">
        <ele>1257.4</ele>
        <time>2021-08-30T13:02:01Z</time>
      </trkpt>
      <trkpt lat="45.16434" lon="5.63242">
        <ele>1255.6</ele>
        <time>2021-08-30T13:02:03Z</time>
      </trkpt>
      <trkpt lat="45.16435" lon="5.63236">
        <ele>1254.3</ele>
        <time>2021-08-30T13:02:05Z</time>
      </trkpt>
      <trkpt lat="45.16435" lon="5.63234">
        <ele>1253.8</ele>
        <time>2021-08-30T13:02:06Z</time>
      </trkpt>
      <trkpt lat="45.16435" lon="5.63232">
        <ele>1253.4</ele>
        <time>2021-08-30T13:02:08Z</time>
      </trkpt>
      <trkpt lat="45.16435" lon="5.63232">
        <ele>1253.4</ele>
        <time>2021-08-30T13:02:10Z</time>
      </trkpt>
      <trkpt lat="45.16435" lon="5.63232">
        <ele>1253.4</ele>
        <time>2021-08-30T13:02:11Z</time>
      </trkpt>
      <trkpt lat="45.16435" lon="5.63232">
        <ele>1253.4</ele>
        <time>2021-08-30T13:02:13Z</time>
      </trkpt>
      <trkpt lat="45.16435" lon="5.63228">
        <ele>1252.8</ele>
        <time>2021-08-30T13:02:15Z</time>
      </trkpt>
      <trkpt lat="45.16434" lon="5.63226">
        <ele>1252.5</ele>
        <time>2021-08-30T13:02:17Z</time>
      </trkpt>
      <trkpt lat="45.16435" lon="5.63224">
        <ele>1252.2</ele>
        <time>2021-08-30T13:02:19Z</time>
      </trkpt>
      <trkpt lat="45.16436" lon="5.63224">
        <ele>1252.1</ele>
        <time>2021-08-30T13:02:21Z</time>
      </trkpt>
      <trkpt lat="45.16436" lon="5.63224">
        <ele>1252.1</ele>
        <time>2021-08-30T13:02:22Z</time>
      </trkpt>
      <trkpt lat="45.16436" lon="5.63224">
        <ele>1252.1</ele>
        <time>2021-08-30T13:02:24Z</time>
      </trkpt>
      <trkpt lat="45.16436" lon="5.63224">
        <ele>1252.1</ele>
        <time>2021-08-30T13:02:25Z</time>
      </trkpt>
      <trkpt lat="45.16436" lon="5.63224">
        <ele>1252</ele>
        <time>2021-08-30T13:02:26Z</time>
      </trkpt>
      <trkpt lat="45.16436" lon="5.63224">
        <ele>1252</ele>
        <time>2021-08-30T13:02:28Z</time>
      </trkpt>
      <trkpt lat="45.16436" lon="5.63224">
        <ele>1251.9</ele>
        <time>2021-08-30T13:02:29Z</time>
      </trkpt>
      <trkpt lat="45.16437" lon="5.63224">
        <ele>1251.9</ele>
        <time>2021-08-30T13:02:31Z</time>
      </trkpt>
      <trkpt lat="45.16437" lon="5.63224">
        <ele>1251.9</ele>
        <time>2021-08-30T13:02:32Z</time>
      </trkpt>
      <trkpt lat="45.16437" lon="5.63224">
        <ele>1251.8</ele>
        <time>2021-08-30T13:02:34Z</time>
      </trkpt>
      <trkpt lat="45.16437" lon="5.63224">
        <ele>1251.8</ele>
        <time>2021-08-30T13:02:35Z</time>
      </trkpt>
      <trkpt lat="45.16437" lon="5.63224">
        <ele>1251.8</ele>
        <time>2021-08-30T13:02:36Z</time>
      </trkpt>
      <trkpt lat="45.16437" lon="5.63224">
        <ele>1251.8</ele>
        <time>2021-08-30T13:02:37Z</time>
      </trkpt>
      <trkpt lat="45.16438" lon="5.63224">
        <ele>1251.7</ele>
        <time>2021-08-30T13:02:39Z</time>
      </trkpt>
      <trkpt lat="45.16438" lon="5.63224">
        <ele>1251.6</ele>
        <time>2021-08-30T13:02:41Z</time>
      </trkpt>
      <trkpt lat="45.16438" lon="5.63224">
        <ele>1251.5</ele>
        <time>2021-08-30T13:02:42Z</time>
      </trkpt>
      <trkpt lat="45.16439" lon="5.63225">
        <ele>1251.4</ele>
        <time>2021-08-30T13:02:44Z</time>
      </trkpt>
      <trkpt lat="45.16439" lon="5.63225">
        <ele>1251.3</ele>
        <time>2021-08-30T13:02:45Z</time>
      </trkpt>
      <trkpt lat="45.16439" lon="5.63225">
        <ele>1251.2</ele>
        <time>2021-08-30T13:02:53Z</time>
      </trkpt>
      <trkpt lat="45.16435" lon="5.63268">
        <ele>1260.8</ele>
        <time>2021-08-30T13:03:03Z</time>
      </trkpt>
      <trkpt lat="45.16431" lon="5.63279">
        <ele>1259.4</ele>
        <time>2021-08-30T13:03:04Z</time>
      </trkpt>
      <trkpt lat="45.16441" lon="5.63291">
        <ele>1257.2</ele>
        <time>2021-08-30T13:03:06Z</time>
      </trkpt>
      <trkpt lat="45.16442" lon="5.63291">
        <ele>1257.1</ele>
        <time>2021-08-30T13:03:07Z</time>
      </trkpt>
      <trkpt lat="45.16443" lon="5.63291">
        <ele>1257.2</ele>
        <time>2021-08-30T13:03:09Z</time>
      </trkpt>
      <trkpt lat="45.16443" lon="5.63291">
        <ele>1257.2</ele>
        <time>2021-08-30T13:03:10Z</time>
      </trkpt>
      <trkpt lat="45.16449" lon="5.63285">
        <ele>1257.6</ele>
        <time>2021-08-30T13:03:12Z</time>
      </trkpt>
      <trkpt lat="45.16452" lon="5.63285">
        <ele>1257.7</ele>
        <time>2021-08-30T13:03:14Z</time>
      </trkpt>
      <trkpt lat="45.16452" lon="5.63285">
        <ele>1257.7</ele>
        <time>2021-08-30T13:03:15Z</time>
      </trkpt>
      <trkpt lat="45.16452" lon="5.63285">
        <ele>1257.7</ele>
        <time>2021-08-30T13:03:16Z</time>
      </trkpt>
      <trkpt lat="45.16452" lon="5.63286">
        <ele>1257.8</ele>
        <time>2021-08-30T13:03:18Z</time>
      </trkpt>
      <trkpt lat="45.16452" lon="5.63286">
        <ele>1257.8</ele>
        <time>2021-08-30T13:03:19Z</time>
      </trkpt>
      <trkpt lat="45.16451" lon="5.63286">
        <ele>1257.8</ele>
        <time>2021-08-30T13:03:20Z</time>
      </trkpt>
      <trkpt lat="45.16451" lon="5.63286">
        <ele>1257.8</ele>
        <time>2021-08-30T13:03:22Z</time>
      </trkpt>
      <trkpt lat="45.16451" lon="5.63287">
        <ele>1257.8</ele>
        <time>2021-08-30T13:03:24Z</time>
      </trkpt>
      <trkpt lat="45.16451" lon="5.63287">
        <ele>1257.8</ele>
        <time>2021-08-30T13:03:26Z</time>
      </trkpt>
      <trkpt lat="45.16451" lon="5.63287">
        <ele>1257.8</ele>
        <time>2021-08-30T13:03:28Z</time>
      </trkpt>
      <trkpt lat="45.16451" lon="5.63288">
        <ele>1257.8</ele>
        <time>2021-08-30T13:03:30Z</time>
      </trkpt>
      <trkpt lat="45.16451" lon="5.63288">
        <ele>1257.8</ele>
        <time>2021-08-30T13:03:31Z</time>
      </trkpt>
      <trkpt lat="45.16451" lon="5.63288">
        <ele>1257.9</ele>
        <time>2021-08-30T13:03:33Z</time>
      </trkpt>
      <trkpt lat="45.16451" lon="5.63288">
        <ele>1257.9</ele>
        <time>2021-08-30T13:03:35Z</time>
      </trkpt>
      <trkpt lat="45.16451" lon="5.63289">
        <ele>1257.9</ele>
        <time>2021-08-30T13:03:36Z</time>
      </trkpt>
      <trkpt lat="45.16451" lon="5.63289">
        <ele>1257.9</ele>
        <time>2021-08-30T13:03:38Z</time>
      </trkpt>
      <trkpt lat="45.1645" lon="5.63289">
        <ele>1257.9</ele>
        <time>2021-08-30T13:03:39Z</time>
      </trkpt>
      <trkpt lat="45.1645" lon="5.6329">
        <ele>1257.9</ele>
        <time>2021-08-30T13:03:41Z</time>
      </trkpt>
      <trkpt lat="45.1645" lon="5.6329">
        <ele>1257.9</ele>
        <time>2021-08-30T13:03:42Z</time>
      </trkpt>
      <trkpt lat="45.1645" lon="5.6329">
        <ele>1257.9</ele>
        <time>2021-08-30T13:03:43Z</time>
      </trkpt>
      <trkpt lat="45.1645" lon="5.63291">
        <ele>1257.9</ele>
        <time>2021-08-30T13:03:44Z</time>
      </trkpt>
      <trkpt lat="45.1645" lon="5.63291">
        <ele>1258</ele>
        <time>2021-08-30T13:03:46Z</time>
      </trkpt>
      <trkpt lat="45.1645" lon="5.63291">
        <ele>1258</ele>
        <time>2021-08-30T13:03:48Z</time>
      </trkpt>
      <trkpt lat="45.1645" lon="5.63291">
        <ele>1258</ele>
        <time>2021-08-30T13:03:49Z</time>
      </trkpt>
      <trkpt lat="45.1645" lon="5.63292">
        <ele>1258</ele>
        <time>2021-08-30T13:03:50Z</time>
      </trkpt>
      <trkpt lat="45.1645" lon="5.63292">
        <ele>1258</ele>
        <time>2021-08-30T13:03:51Z</time>
      </trkpt>
      <trkpt lat="45.16449" lon="5.63293">
        <ele>1258.1</ele>
        <time>2021-08-30T13:03:52Z</time>
      </trkpt>
      <trkpt lat="45.16448" lon="5.63294">
        <ele>1258.1</ele>
        <time>2021-08-30T13:03:54Z</time>
      </trkpt>
      <trkpt lat="45.16448" lon="5.63294">
        <ele>1258.1</ele>
        <time>2021-08-30T13:03:55Z</time>
      </trkpt>
      <trkpt lat="45.16448" lon="5.63294">
        <ele>1258.1</ele>
        <time>2021-08-30T13:03:56Z</time>
      </trkpt>
      <trkpt lat="45.16448" lon="5.63294">
        <ele>1258.1</ele>
        <time>2021-08-30T13:03:58Z</time>
      </trkpt>
      <trkpt lat="45.16448" lon="5.63294">
        <ele>1258.1</ele>
        <time>2021-08-30T13:03:59Z</time>
      </trkpt>
      <trkpt lat="45.16448" lon="5.63294">
        <ele>1258.1</ele>
        <time>2021-08-30T13:04:01Z</time>
      </trkpt>
      <trkpt lat="45.16448" lon="5.63294">
        <ele>1258.1</ele>
        <time>2021-08-30T13:04:02Z</time>
      </trkpt>
      <trkpt lat="45.16448" lon="5.63294">
        <ele>1258.1</ele>
        <time>2021-08-30T13:04:03Z</time>
      </trkpt>
      <trkpt lat="45.16448" lon="5.63294">
        <ele>1258.1</ele>
        <time>2021-08-30T13:04:04Z</time>
      </trkpt>
      <trkpt lat="45.16448" lon="5.63294">
        <ele>1258.1</ele>
        <time>2021-08-30T13:04:06Z</time>
      </trkpt>
      <trkpt lat="45.16448" lon="5.63294">
        <ele>1258.1</ele>
        <time>2021-08-30T13:04:07Z</time>
      </trkpt>
      <trkpt lat="45.16448" lon="5.63294">
        <ele>1258.1</ele>
        <time>2021-08-30T13:04:08Z</time>
      </trkpt>
      <trkpt lat="45.16448" lon="5.63294">
        <ele>1258.1</ele>
        <time>2021-08-30T13:04:09Z</time>
      </trkpt>
      <trkpt lat="45.16448" lon="5.63294">
        <ele>1258.1</ele>
        <time>2021-08-30T13:04:11Z</time>
      </trkpt>
      <trkpt lat="45.16448" lon="5.63294">
        <ele>1258.1</ele>
        <time>2021-08-30T13:04:13Z</time>
      </trkpt>
      <trkpt lat="45.16448" lon="5.63294">
        <ele>1258.1</ele>
        <time>2021-08-30T13:04:15Z</time>
      </trkpt>
      <trkpt lat="45.16448" lon="5.63294">
        <ele>1258.1</ele>
        <time>2021-08-30T13:04:16Z</time>
      </trkpt>
      <trkpt lat="45.16448" lon="5.63294">
        <ele>1258.1</ele>
        <time>2021-08-30T13:04:18Z</time>
      </trkpt>
      <trkpt lat="45.16448" lon="5.63294">
        <ele>1258.1</ele>
        <time>2021-08-30T13:04:19Z</time>
      </trkpt>
      <trkpt lat="45.16448" lon="5.63294">
        <ele>1258.1</ele>
        <time>2021-08-30T13:04:20Z</time>
      </trkpt>
      <trkpt lat="45.16442" lon="5.6329">
        <ele>1258.4</ele>
        <time>2021-08-30T13:04:22Z</time>
      </trkpt>
      <trkpt lat="45.1644" lon="5.63289">
        <ele>1258.5</ele>
        <time>2021-08-30T13:04:24Z</time>
      </trkpt>
      <trkpt lat="45.1644" lon="5.63288">
        <ele>1258.6</ele>
        <time>2021-08-30T13:04:25Z</time>
      </trkpt>
      <trkpt lat="45.1644" lon="5.63288">
        <ele>1258.6</ele>
        <time>2021-08-30T13:04:27Z</time>
      </trkpt>
      <trkpt lat="45.1644" lon="5.63288">
        <ele>1258.6</ele>
        <time>2021-08-30T13:04:29Z</time>
      </trkpt>
      <trkpt lat="45.1644" lon="5.63288">
        <ele>1258.6</ele>
        <time>2021-08-30T13:04:30Z</time>
      </trkpt>
      <trkpt lat="45.1644" lon="5.63288">
        <ele>1258.6</ele>
        <time>2021-08-30T13:04:32Z</time>
      </trkpt>
      <trkpt lat="45.1644" lon="5.63288">
        <ele>1258.6</ele>
        <time>2021-08-30T13:04:33Z</time>
      </trkpt>
      <trkpt lat="45.1644" lon="5.63288">
        <ele>1258.6</ele>
        <time>2021-08-30T13:04:34Z</time>
      </trkpt>
      <trkpt lat="45.1644" lon="5.63288">
        <ele>1258.6</ele>
        <time>2021-08-30T13:04:36Z</time>
      </trkpt>
      <trkpt lat="45.16436" lon="5.63291">
        <ele>1258.8</ele>
        <time>2021-08-30T13:04:38Z</time>
      </trkpt>
      <trkpt lat="45.16434" lon="5.63293">
        <ele>1258.9</ele>
        <time>2021-08-30T13:04:39Z</time>
      </trkpt>
      <trkpt lat="45.16433" lon="5.63295">
        <ele>1259</ele>
        <time>2021-08-30T13:04:41Z</time>
      </trkpt>
      <trkpt lat="45.16433" lon="5.63296">
        <ele>1259</ele>
        <time>2021-08-30T13:04:42Z</time>
      </trkpt>
      <trkpt lat="45.16433" lon="5.63296">
        <ele>1259.1</ele>
        <time>2021-08-30T13:04:44Z</time>
      </trkpt>
      <trkpt lat="45.16433" lon="5.63296">
        <ele>1259.1</ele>
        <time>2021-08-30T13:04:45Z</time>
      </trkpt>
      <trkpt lat="45.16433" lon="5.63296">
        <ele>1259.1</ele>
        <time>2021-08-30T13:04:46Z</time>
      </trkpt>
      <trkpt lat="45.16433" lon="5.63296">
        <ele>1259.1</ele>
        <time>2021-08-30T13:04:48Z</time>
      </trkpt>
      <trkpt lat="45.16433" lon="5.63296">
        <ele>1259.1</ele>
        <time>2021-08-30T13:04:50Z</time>
      </trkpt>
      <trkpt lat="45.16433" lon="5.63295">
        <ele>1259.1</ele>
        <time>2021-08-30T13:04:52Z</time>
      </trkpt>
      <trkpt lat="45.16437" lon="5.63293">
        <ele>1259.3</ele>
        <time>2021-08-30T13:04:54Z</time>
      </trkpt>
      <trkpt lat="45.16442" lon="5.6329">
        <ele>1259.6</ele>
        <time>2021-08-30T13:04:56Z</time>
      </trkpt>
      <trkpt lat="45.16443" lon="5.6329">
        <ele>1259.7</ele>
        <time>2021-08-30T13:04:58Z</time>
      </trkpt>
      <trkpt lat="45.16443" lon="5.63289">
        <ele>1259.7</ele>
        <time>2021-08-30T13:05:00Z</time>
      </trkpt>
      <trkpt lat="45.16444" lon="5.63289">
        <ele>1259.7</ele>
        <time>2021-08-30T13:05:02Z</time>
      </trkpt>
      <trkpt lat="45.16444" lon="5.63288">
        <ele>1259.7</ele>
        <time>2021-08-30T13:05:04Z</time>
      </trkpt>
      <trkpt lat="45.16444" lon="5.63288">
        <ele>1259.7</ele>
        <time>2021-08-30T13:05:06Z</time>
      </trkpt>
      <trkpt lat="45.16444" lon="5.63287">
        <ele>1259.8</ele>
        <time>2021-08-30T13:05:08Z</time>
      </trkpt>
      <trkpt lat="45.16444" lon="5.63287">
        <ele>1259.8</ele>
        <time>2021-08-30T13:05:10Z</time>
      </trkpt>
      <trkpt lat="45.16444" lon="5.63286">
        <ele>1259.8</ele>
        <time>2021-08-30T13:05:11Z</time>
      </trkpt>
      <trkpt lat="45.16444" lon="5.63286">
        <ele>1259.8</ele>
        <time>2021-08-30T13:05:12Z</time>
      </trkpt>
      <trkpt lat="45.16444" lon="5.63285">
        <ele>1259.8</ele>
        <time>2021-08-30T13:05:14Z</time>
      </trkpt>
      <trkpt lat="45.16444" lon="5.63285">
        <ele>1259.9</ele>
        <time>2021-08-30T13:05:15Z</time>
      </trkpt>
      <trkpt lat="45.16444" lon="5.63284">
        <ele>1259.9</ele>
        <time>2021-08-30T13:05:16Z</time>
      </trkpt>
      <trkpt lat="45.16444" lon="5.63284">
        <ele>1259.9</ele>
        <time>2021-08-30T13:05:17Z</time>
      </trkpt>
      <trkpt lat="45.16444" lon="5.63277">
        <ele>1260.1</ele>
        <time>2021-08-30T13:05:18Z</time>
      </trkpt>
      <trkpt lat="45.16444" lon="5.63279">
        <ele>1260.2</ele>
        <time>2021-08-30T13:05:20Z</time>
      </trkpt>
      <trkpt lat="45.16444" lon="5.63281">
        <ele>1260.3</ele>
        <time>2021-08-30T13:05:21Z</time>
      </trkpt>
      <trkpt lat="45.16443" lon="5.63281">
        <ele>1260.3</ele>
        <time>2021-08-30T13:05:22Z</time>
      </trkpt>
      <trkpt lat="45.16443" lon="5.6328">
        <ele>1260.4</ele>
        <time>2021-08-30T13:05:23Z</time>
      </trkpt>
      <trkpt lat="45.16442" lon="5.63279">
        <ele>1260.4</ele>
        <time>2021-08-30T13:05:25Z</time>
      </trkpt>
      <trkpt lat="45.16441" lon="5.63277">
        <ele>1260.5</ele>
        <time>2021-08-30T13:05:26Z</time>
      </trkpt>
      <trkpt lat="45.16441" lon="5.63276">
        <ele>1260.5</ele>
        <time>2021-08-30T13:05:27Z</time>
      </trkpt>
      <trkpt lat="45.1644" lon="5.63274">
        <ele>1260.6</ele>
        <time>2021-08-30T13:05:28Z</time>
      </trkpt>
      <trkpt lat="45.1644" lon="5.63273">
        <ele>1260.7</ele>
        <time>2021-08-30T13:05:30Z</time>
      </trkpt>
      <trkpt lat="45.16439" lon="5.63271">
        <ele>1260.7</ele>
        <time>2021-08-30T13:05:31Z</time>
      </trkpt>
      <trkpt lat="45.16438" lon="5.6327">
        <ele>1260.8</ele>
        <time>2021-08-30T13:05:32Z</time>
      </trkpt>
      <trkpt lat="45.16438" lon="5.63269">
        <ele>1260.8</ele>
        <time>2021-08-30T13:05:34Z</time>
      </trkpt>
      <trkpt lat="45.16437" lon="5.63268">
        <ele>1260.9</ele>
        <time>2021-08-30T13:05:35Z</time>
      </trkpt>
      <trkpt lat="45.16434" lon="5.63267">
        <ele>1261</ele>
        <time>2021-08-30T13:05:37Z</time>
      </trkpt>
      <trkpt lat="45.16433" lon="5.63266">
        <ele>1261.1</ele>
        <time>2021-08-30T13:05:38Z</time>
      </trkpt>
      <trkpt lat="45.16431" lon="5.63265">
        <ele>1261.2</ele>
        <time>2021-08-30T13:05:40Z</time>
      </trkpt>
      <trkpt lat="45.1643" lon="5.63265">
        <ele>1261.2</ele>
        <time>2021-08-30T13:05:41Z</time>
      </trkpt>
      <trkpt lat="45.16429" lon="5.63265">
        <ele>1261.3</ele>
        <time>2021-08-30T13:05:42Z</time>
      </trkpt>
      <trkpt lat="45.16428" lon="5.63266">
        <ele>1261.3</ele>
        <time>2021-08-30T13:05:44Z</time>
      </trkpt>
      <trkpt lat="45.16426" lon="5.63267">
        <ele>1261.3</ele>
        <time>2021-08-30T13:05:46Z</time>
      </trkpt>
      <trkpt lat="45.16425" lon="5.63269">
        <ele>1261.7</ele>
        <time>2021-08-30T13:05:47Z</time>
      </trkpt>
      <trkpt lat="45.16424" lon="5.63282">
        <ele>1263.4</ele>
        <time>2021-08-30T13:05:49Z</time>
      </trkpt>
      <trkpt lat="45.16423" lon="5.63292">
        <ele>1264.8</ele>
        <time>2021-08-30T13:05:50Z</time>
      </trkpt>
      <trkpt lat="45.16424" lon="5.63295">
        <ele>1265.2</ele>
        <time>2021-08-30T13:05:52Z</time>
      </trkpt>
      <trkpt lat="45.16424" lon="5.63295">
        <ele>1265.2</ele>
        <time>2021-08-30T13:05:53Z</time>
      </trkpt>
      <trkpt lat="45.16424" lon="5.63295">
        <ele>1265.3</ele>
        <time>2021-08-30T13:05:54Z</time>
      </trkpt>
      <trkpt lat="45.16425" lon="5.63295">
        <ele>1265.3</ele>
        <time>2021-08-30T13:05:56Z</time>
      </trkpt>
      <trkpt lat="45.16425" lon="5.63295">
        <ele>1265.4</ele>
        <time>2021-08-30T13:05:58Z</time>
      </trkpt>
      <trkpt lat="45.16425" lon="5.63295">
        <ele>1265.4</ele>
        <time>2021-08-30T13:05:59Z</time>
      </trkpt>
      <trkpt lat="45.16425" lon="5.63295">
        <ele>1265.4</ele>
        <time>2021-08-30T13:06:00Z</time>
      </trkpt>
      <trkpt lat="45.16425" lon="5.63295">
        <ele>1265.5</ele>
        <time>2021-08-30T13:06:01Z</time>
      </trkpt>
      <trkpt lat="45.16425" lon="5.63295">
        <ele>1265.5</ele>
        <time>2021-08-30T13:06:02Z</time>
      </trkpt>
      <trkpt lat="45.16424" lon="5.63294">
        <ele>1265.7</ele>
        <time>2021-08-30T13:06:04Z</time>
      </trkpt>
      <trkpt lat="45.16423" lon="5.63294">
        <ele>1265.9</ele>
        <time>2021-08-30T13:06:05Z</time>
      </trkpt>
      <trkpt lat="45.16422" lon="5.63293">
        <ele>1266.1</ele>
        <time>2021-08-30T13:06:06Z</time>
      </trkpt>
      <trkpt lat="45.1642" lon="5.63293">
        <ele>1266.4</ele>
        <time>2021-08-30T13:06:07Z</time>
      </trkpt>
      <trkpt lat="45.16418" lon="5.63293">
        <ele>1266.8</ele>
        <time>2021-08-30T13:06:09Z</time>
      </trkpt>
      <trkpt lat="45.16417" lon="5.63293">
        <ele>1267</ele>
        <time>2021-08-30T13:06:10Z</time>
      </trkpt>
      <trkpt lat="45.16413" lon="5.63293">
        <ele>1267.6</ele>
        <time>2021-08-30T13:06:12Z</time>
      </trkpt>
      <trkpt lat="45.16412" lon="5.63293">
        <ele>1267.8</ele>
        <time>2021-08-30T13:06:13Z</time>
      </trkpt>
      <trkpt lat="45.16411" lon="5.63294">
        <ele>1268</ele>
        <time>2021-08-30T13:06:14Z</time>
      </trkpt>
      <trkpt lat="45.16408" lon="5.63296">
        <ele>1268.5</ele>
        <time>2021-08-30T13:06:16Z</time>
      </trkpt>
      <trkpt lat="45.16405" lon="5.63299">
        <ele>1269.1</ele>
        <time>2021-08-30T13:06:17Z</time>
      </trkpt>
      <trkpt lat="45.16403" lon="5.63301">
        <ele>1269.3</ele>
        <time>2021-08-30T13:06:18Z</time>
      </trkpt>
      <trkpt lat="45.16401" lon="5.63305">
        <ele>1269.9</ele>
        <time>2021-08-30T13:06:20Z</time>
      </trkpt>
      <trkpt lat="45.164" lon="5.63309">
        <ele>1270.9</ele>
        <time>2021-08-30T13:06:21Z</time>
      </trkpt>
      <trkpt lat="45.16399" lon="5.63314">
        <ele>1272.4</ele>
        <time>2021-08-30T13:06:22Z</time>
      </trkpt>
      <trkpt lat="45.16395" lon="5.63319">
        <ele>1274.3</ele>
        <time>2021-08-30T13:06:24Z</time>
      </trkpt>
      <trkpt lat="45.16393" lon="5.6332">
        <ele>1275</ele>
        <time>2021-08-30T13:06:25Z</time>
      </trkpt>
      <trkpt lat="45.16391" lon="5.63321">
        <ele>1275.8</ele>
        <time>2021-08-30T13:06:26Z</time>
      </trkpt>
      <trkpt lat="45.1639" lon="5.63323">
        <ele>1276.5</ele>
        <time>2021-08-30T13:06:29Z</time>
      </trkpt>
      <trkpt lat="45.16388" lon="5.63324">
        <ele>1277.2</ele>
        <time>2021-08-30T13:06:30Z</time>
      </trkpt>
      <trkpt lat="45.16386" lon="5.63325">
        <ele>1277.9</ele>
        <time>2021-08-30T13:06:31Z</time>
      </trkpt>
      <trkpt lat="45.16384" lon="5.63326">
        <ele>1278.6</ele>
        <time>2021-08-30T13:06:33Z</time>
      </trkpt>
      <trkpt lat="45.16382" lon="5.63328">
        <ele>1279.3</ele>
        <time>2021-08-30T13:07:09Z</time>
      </trkpt>
      <trkpt lat="45.16381" lon="5.63329">
        <ele>1279.9</ele>
        <time>2021-08-30T13:07:11Z</time>
      </trkpt>
      <trkpt lat="45.16379" lon="5.6333">
        <ele>1280.5</ele>
        <time>2021-08-30T13:07:12Z</time>
      </trkpt>
      <trkpt lat="45.16377" lon="5.63331">
        <ele>1281.2</ele>
        <time>2021-08-30T13:07:13Z</time>
      </trkpt>
      <trkpt lat="45.16375" lon="5.63333">
        <ele>1281.8</ele>
        <time>2021-08-30T13:07:14Z</time>
      </trkpt>
      <trkpt lat="45.16373" lon="5.63334">
        <ele>1282.4</ele>
        <time>2021-08-30T13:07:15Z</time>
      </trkpt>
      <trkpt lat="45.16372" lon="5.63335">
        <ele>1282.9</ele>
        <time>2021-08-30T13:07:16Z</time>
      </trkpt>
      <trkpt lat="45.16371" lon="5.63336">
        <ele>1283.4</ele>
        <time>2021-08-30T13:07:18Z</time>
      </trkpt>
      <trkpt lat="45.1637" lon="5.63337">
        <ele>1283.7</ele>
        <time>2021-08-30T13:07:19Z</time>
      </trkpt>
      <trkpt lat="45.16369" lon="5.63338">
        <ele>1284.1</ele>
        <time>2021-08-30T13:07:20Z</time>
      </trkpt>
      <trkpt lat="45.16366" lon="5.63338">
        <ele>1284.9</ele>
        <time>2021-08-30T13:07:22Z</time>
      </trkpt>
      <trkpt lat="45.16364" lon="5.63337">
        <ele>1285.5</ele>
        <time>2021-08-30T13:07:23Z</time>
      </trkpt>
      <trkpt lat="45.16363" lon="5.63336">
        <ele>1286</ele>
        <time>2021-08-30T13:07:24Z</time>
      </trkpt>
      <trkpt lat="45.16362" lon="5.63335">
        <ele>1286.6</ele>
        <time>2021-08-30T13:07:25Z</time>
      </trkpt>
      <trkpt lat="45.16362" lon="5.63334">
        <ele>1286.8</ele>
        <time>2021-08-30T13:07:26Z</time>
      </trkpt>
      <trkpt lat="45.16365" lon="5.63334">
        <ele>1288</ele>
        <time>2021-08-30T13:07:28Z</time>
      </trkpt>
      <trkpt lat="45.16366" lon="5.63334">
        <ele>1288.4</ele>
        <time>2021-08-30T13:07:29Z</time>
      </trkpt>
      <trkpt lat="45.16366" lon="5.63334">
        <ele>1288.4</ele>
        <time>2021-08-30T13:07:31Z</time>
      </trkpt>
      <trkpt lat="45.16366" lon="5.63334">
        <ele>1288.4</ele>
        <time>2021-08-30T13:07:33Z</time>
      </trkpt>
      <trkpt lat="45.16366" lon="5.63334">
        <ele>1288.4</ele>
        <time>2021-08-30T13:07:34Z</time>
      </trkpt>
      <trkpt lat="45.16366" lon="5.63334">
        <ele>1288.5</ele>
        <time>2021-08-30T13:07:35Z</time>
      </trkpt>
      <trkpt lat="45.16359" lon="5.63332">
        <ele>1291.8</ele>
        <time>2021-08-30T13:07:42Z</time>
      </trkpt>
      <trkpt lat="45.16357" lon="5.63332">
        <ele>1292.5</ele>
        <time>2021-08-30T13:07:43Z</time>
      </trkpt>
      <trkpt lat="45.16356" lon="5.63333">
        <ele>1293</ele>
        <time>2021-08-30T13:07:44Z</time>
      </trkpt>
      <trkpt lat="45.16351" lon="5.63348">
        <ele>1293.6</ele>
        <time>2021-08-30T13:07:46Z</time>
      </trkpt>
      <trkpt lat="45.16349" lon="5.63352">
        <ele>1293.7</ele>
        <time>2021-08-30T13:07:47Z</time>
      </trkpt>
      <trkpt lat="45.16348" lon="5.63355">
        <ele>1293.7</ele>
        <time>2021-08-30T13:07:49Z</time>
      </trkpt>
      <trkpt lat="45.16348" lon="5.63356">
        <ele>1293.7</ele>
        <time>2021-08-30T13:07:50Z</time>
      </trkpt>
      <trkpt lat="45.16347" lon="5.63356">
        <ele>1293.7</ele>
        <time>2021-08-30T13:07:52Z</time>
      </trkpt>
      <trkpt lat="45.16347" lon="5.63356">
        <ele>1293.8</ele>
        <time>2021-08-30T13:07:53Z</time>
      </trkpt>
      <trkpt lat="45.16347" lon="5.63356">
        <ele>1293.8</ele>
        <time>2021-08-30T13:07:54Z</time>
      </trkpt>
      <trkpt lat="45.16347" lon="5.63357">
        <ele>1293.8</ele>
        <time>2021-08-30T13:07:56Z</time>
      </trkpt>
      <trkpt lat="45.16347" lon="5.63357">
        <ele>1293.8</ele>
        <time>2021-08-30T13:07:57Z</time>
      </trkpt>
      <trkpt lat="45.16347" lon="5.63357">
        <ele>1293.8</ele>
        <time>2021-08-30T13:07:59Z</time>
      </trkpt>
      <trkpt lat="45.16347" lon="5.63357">
        <ele>1293.8</ele>
        <time>2021-08-30T13:08:00Z</time>
      </trkpt>
      <trkpt lat="45.16328" lon="5.63369">
        <ele>1294.2</ele>
        <time>2021-08-30T13:10:24Z</time>
      </trkpt>
      <trkpt lat="45.16327" lon="5.63371">
        <ele>1294.2</ele>
        <time>2021-08-30T13:10:25Z</time>
      </trkpt>
      <trkpt lat="45.16324" lon="5.63374">
        <ele>1294.3</ele>
        <time>2021-08-30T13:10:27Z</time>
      </trkpt>
      <trkpt lat="45.16322" lon="5.63377">
        <ele>1294.4</ele>
        <time>2021-08-30T13:10:28Z</time>
      </trkpt>
      <trkpt lat="45.16319" lon="5.63382">
        <ele>1294.5</ele>
        <time>2021-08-30T13:10:30Z</time>
      </trkpt>
      <trkpt lat="45.16319" lon="5.63383">
        <ele>1294.5</ele>
        <time>2021-08-30T13:10:31Z</time>
      </trkpt>
      <trkpt lat="45.16319" lon="5.63382">
        <ele>1294.5</ele>
        <time>2021-08-30T13:10:34Z</time>
      </trkpt>
      <trkpt lat="45.16319" lon="5.63382">
        <ele>1294.5</ele>
        <time>2021-08-30T13:10:37Z</time>
      </trkpt>
      <trkpt lat="45.1632" lon="5.63382">
        <ele>1294.5</ele>
        <time>2021-08-30T13:10:38Z</time>
      </trkpt>
      <trkpt lat="45.1632" lon="5.63381">
        <ele>1294.5</ele>
        <time>2021-08-30T13:10:39Z</time>
      </trkpt>
      <trkpt lat="45.1632" lon="5.63381">
        <ele>1294.5</ele>
        <time>2021-08-30T13:10:41Z</time>
      </trkpt>
      <trkpt lat="45.16321" lon="5.63381">
        <ele>1294.6</ele>
        <time>2021-08-30T13:10:42Z</time>
      </trkpt>
      <trkpt lat="45.16324" lon="5.63375">
        <ele>1294.7</ele>
        <time>2021-08-30T13:10:44Z</time>
      </trkpt>
      <trkpt lat="45.16327" lon="5.6337">
        <ele>1294.7</ele>
        <time>2021-08-30T13:10:45Z</time>
      </trkpt>
      <trkpt lat="45.16328" lon="5.63366">
        <ele>1294.8</ele>
        <time>2021-08-30T13:10:47Z</time>
      </trkpt>
      <trkpt lat="45.16329" lon="5.63363">
        <ele>1294.9</ele>
        <time>2021-08-30T13:10:48Z</time>
      </trkpt>
      <trkpt lat="45.16327" lon="5.63231">
        <ele>1299.4</ele>
        <time>2021-08-30T13:13:10Z</time>
      </trkpt>
      <trkpt lat="45.16327" lon="5.63226">
        <ele>1298.6</ele>
        <time>2021-08-30T13:13:11Z</time>
      </trkpt>
      <trkpt lat="45.16326" lon="5.63222">
        <ele>1297.9</ele>
        <time>2021-08-30T13:13:12Z</time>
      </trkpt>
      <trkpt lat="45.16324" lon="5.63217">
        <ele>1297</ele>
        <time>2021-08-30T13:13:14Z</time>
      </trkpt>
      <trkpt lat="45.16322" lon="5.63211">
        <ele>1295.5</ele>
        <time>2021-08-30T13:13:15Z</time>
      </trkpt>
      <trkpt lat="45.16319" lon="5.63205">
        <ele>1294.3</ele>
        <time>2021-08-30T13:13:16Z</time>
      </trkpt>
      <trkpt lat="45.16317" lon="5.632">
        <ele>1293</ele>
        <time>2021-08-30T13:13:18Z</time>
      </trkpt>
      <trkpt lat="45.16315" lon="5.63195">
        <ele>1291.9</ele>
        <time>2021-08-30T13:13:19Z</time>
      </trkpt>
      <trkpt lat="45.16311" lon="5.63186">
        <ele>1289.7</ele>
        <time>2021-08-30T13:13:21Z</time>
      </trkpt>
      <trkpt lat="45.16308" lon="5.63182">
        <ele>1288.6</ele>
        <time>2021-08-30T13:13:22Z</time>
      </trkpt>
      <trkpt lat="45.16303" lon="5.63178">
        <ele>1286.9</ele>
        <time>2021-08-30T13:13:23Z</time>
      </trkpt>
      <trkpt lat="45.16297" lon="5.63174">
        <ele>1285.5</ele>
        <time>2021-08-30T13:13:24Z</time>
      </trkpt>
      <trkpt lat="45.16292" lon="5.63169">
        <ele>1284.2</ele>
        <time>2021-08-30T13:13:25Z</time>
      </trkpt>
      <trkpt lat="45.16284" lon="5.63158">
        <ele>1282</ele>
        <time>2021-08-30T13:13:27Z</time>
      </trkpt>
      <trkpt lat="45.16279" lon="5.63147">
        <ele>1279.7</ele>
        <time>2021-08-30T13:13:29Z</time>
      </trkpt>
      <trkpt lat="45.16277" lon="5.6314">
        <ele>1278.3</ele>
        <time>2021-08-30T13:13:30Z</time>
      </trkpt>
      <trkpt lat="45.16277" lon="5.6313">
        <ele>1276</ele>
        <time>2021-08-30T13:13:31Z</time>
      </trkpt>
      <trkpt lat="45.16279" lon="5.63119">
        <ele>1273.4</ele>
        <time>2021-08-30T13:13:33Z</time>
      </trkpt>
      <trkpt lat="45.16281" lon="5.63115">
        <ele>1272.2</ele>
        <time>2021-08-30T13:13:34Z</time>
      </trkpt>
      <trkpt lat="45.16284" lon="5.63108">
        <ele>1270</ele>
        <time>2021-08-30T13:13:36Z</time>
      </trkpt>
      <trkpt lat="45.16286" lon="5.63106">
        <ele>1268</ele>
        <time>2021-08-30T13:13:37Z</time>
      </trkpt>
      <trkpt lat="45.16292" lon="5.63102">
        <ele>1266.9</ele>
        <time>2021-08-30T13:13:39Z</time>
      </trkpt>
      <trkpt lat="45.16294" lon="5.631">
        <ele>1266.4</ele>
        <time>2021-08-30T13:13:40Z</time>
      </trkpt>
      <trkpt lat="45.16296" lon="5.63099">
        <ele>1265.9</ele>
        <time>2021-08-30T13:13:41Z</time>
      </trkpt>
      <trkpt lat="45.163" lon="5.63095">
        <ele>1265</ele>
        <time>2021-08-30T13:13:43Z</time>
      </trkpt>
      <trkpt lat="45.163" lon="5.63092">
        <ele>1265.1</ele>
        <time>2021-08-30T13:13:45Z</time>
      </trkpt>
      <trkpt lat="45.16299" lon="5.63091">
        <ele>1265.2</ele>
        <time>2021-08-30T13:13:46Z</time>
      </trkpt>
      <trkpt lat="45.16296" lon="5.63087">
        <ele>1265.3</ele>
        <time>2021-08-30T13:13:48Z</time>
      </trkpt>
      <trkpt lat="45.16295" lon="5.63087">
        <ele>1265.4</ele>
        <time>2021-08-30T13:13:49Z</time>
      </trkpt>
      <trkpt lat="45.1629" lon="5.63086">
        <ele>1265.6</ele>
        <time>2021-08-30T13:13:51Z</time>
      </trkpt>
      <trkpt lat="45.16287" lon="5.63084">
        <ele>1265.6</ele>
        <time>2021-08-30T13:13:52Z</time>
      </trkpt>
      <trkpt lat="45.16286" lon="5.63084">
        <ele>1265.7</ele>
        <time>2021-08-30T13:13:53Z</time>
      </trkpt>
      <trkpt lat="45.1628" lon="5.63082">
        <ele>1265.7</ele>
        <time>2021-08-30T13:13:55Z</time>
      </trkpt>
      <trkpt lat="45.16274" lon="5.63079">
        <ele>1265.7</ele>
        <time>2021-08-30T13:13:57Z</time>
      </trkpt>
      <trkpt lat="45.16267" lon="5.63074">
        <ele>1265.6</ele>
        <time>2021-08-30T13:13:59Z</time>
      </trkpt>
      <trkpt lat="45.16264" lon="5.63073">
        <ele>1265.6</ele>
        <time>2021-08-30T13:14:00Z</time>
      </trkpt>
      <trkpt lat="45.16257" lon="5.63069">
        <ele>1265.5</ele>
        <time>2021-08-30T13:14:02Z</time>
      </trkpt>
      <trkpt lat="45.16254" lon="5.63067">
        <ele>1265.5</ele>
        <time>2021-08-30T13:14:03Z</time>
      </trkpt>
      <trkpt lat="45.16252" lon="5.63065">
        <ele>1265.5</ele>
        <time>2021-08-30T13:14:04Z</time>
      </trkpt>
      <trkpt lat="45.16245" lon="5.63059">
        <ele>1265.4</ele>
        <time>2021-08-30T13:14:06Z</time>
      </trkpt>
      <trkpt lat="45.16241" lon="5.63056">
        <ele>1265.4</ele>
        <time>2021-08-30T13:14:07Z</time>
      </trkpt>
      <trkpt lat="45.16234" lon="5.63053">
        <ele>1265.4</ele>
        <time>2021-08-30T13:14:09Z</time>
      </trkpt>
      <trkpt lat="45.16231" lon="5.63051">
        <ele>1265.3</ele>
        <time>2021-08-30T13:14:10Z</time>
      </trkpt>
      <trkpt lat="45.16226" lon="5.63048">
        <ele>1265.3</ele>
        <time>2021-08-30T13:14:12Z</time>
      </trkpt>
      <trkpt lat="45.16224" lon="5.63045">
        <ele>1265.3</ele>
        <time>2021-08-30T13:14:13Z</time>
      </trkpt>
      <trkpt lat="45.16219" lon="5.63039">
        <ele>1265.2</ele>
        <time>2021-08-30T13:14:15Z</time>
      </trkpt>
      <trkpt lat="45.16216" lon="5.63036">
        <ele>1265.1</ele>
        <time>2021-08-30T13:14:16Z</time>
      </trkpt>
      <trkpt lat="45.16213" lon="5.63032">
        <ele>1265.1</ele>
        <time>2021-08-30T13:14:17Z</time>
      </trkpt>
      <trkpt lat="45.16204" lon="5.63027">
        <ele>1264.8</ele>
        <time>2021-08-30T13:14:19Z</time>
      </trkpt>
      <trkpt lat="45.16194" lon="5.63022">
        <ele>1264.5</ele>
        <time>2021-08-30T13:14:21Z</time>
      </trkpt>
      <trkpt lat="45.16191" lon="5.6302">
        <ele>1264.4</ele>
        <time>2021-08-30T13:14:22Z</time>
      </trkpt>
      <trkpt lat="45.16187" lon="5.63018">
        <ele>1264.3</ele>
        <time>2021-08-30T13:14:23Z</time>
      </trkpt>
      <trkpt lat="45.16183" lon="5.63018">
        <ele>1264.2</ele>
        <time>2021-08-30T13:14:24Z</time>
      </trkpt>
      <trkpt lat="45.16176" lon="5.63019">
        <ele>1263.9</ele>
        <time>2021-08-30T13:14:26Z</time>
      </trkpt>
      <trkpt lat="45.16174" lon="5.63018">
        <ele>1263.8</ele>
        <time>2021-08-30T13:14:27Z</time>
      </trkpt>
      <trkpt lat="45.1617" lon="5.63014">
        <ele>1263.6</ele>
        <time>2021-08-30T13:14:29Z</time>
      </trkpt>
      <trkpt lat="45.16168" lon="5.6301">
        <ele>1263.4</ele>
        <time>2021-08-30T13:14:30Z</time>
      </trkpt>
      <trkpt lat="45.16167" lon="5.63007">
        <ele>1263.3</ele>
        <time>2021-08-30T13:14:31Z</time>
      </trkpt>
      <trkpt lat="45.16166" lon="5.63005">
        <ele>1263.2</ele>
        <time>2021-08-30T13:14:33Z</time>
      </trkpt>
      <trkpt lat="45.16166" lon="5.63003">
        <ele>1263.1</ele>
        <time>2021-08-30T13:14:34Z</time>
      </trkpt>
      <trkpt lat="45.16165" lon="5.63006">
        <ele>1263.1</ele>
        <time>2021-08-30T13:14:35Z</time>
      </trkpt>
      <trkpt lat="45.16165" lon="5.63006">
        <ele>1263</ele>
        <time>2021-08-30T13:14:36Z</time>
      </trkpt>
      <trkpt lat="45.16165" lon="5.63006">
        <ele>1263</ele>
        <time>2021-08-30T13:14:37Z</time>
      </trkpt>
      <trkpt lat="45.16165" lon="5.63006">
        <ele>1263</ele>
        <time>2021-08-30T13:14:39Z</time>
      </trkpt>
      <trkpt lat="45.16164" lon="5.63006">
        <ele>1263</ele>
        <time>2021-08-30T13:14:40Z</time>
      </trkpt>
      <trkpt lat="45.16164" lon="5.63006">
        <ele>1263</ele>
        <time>2021-08-30T13:14:41Z</time>
      </trkpt>
      <trkpt lat="45.16164" lon="5.63006">
        <ele>1263</ele>
        <time>2021-08-30T13:14:43Z</time>
      </trkpt>
      <trkpt lat="45.16164" lon="5.63006">
        <ele>1263</ele>
        <time>2021-08-30T13:14:44Z</time>
      </trkpt>
      <trkpt lat="45.16153" lon="5.63019">
        <ele>1262.9</ele>
        <time>2021-08-30T13:15:16Z</time>
      </trkpt>
      <trkpt lat="45.16149" lon="5.63014">
        <ele>1262.8</ele>
        <time>2021-08-30T13:15:18Z</time>
      </trkpt>
      <trkpt lat="45.16144" lon="5.63009">
        <ele>1262.7</ele>
        <time>2021-08-30T13:15:19Z</time>
      </trkpt>
      <trkpt lat="45.16139" lon="5.63003">
        <ele>1262.6</ele>
        <time>2021-08-30T13:15:20Z</time>
      </trkpt>
      <trkpt lat="45.16134" lon="5.62996">
        <ele>1262.4</ele>
        <time>2021-08-30T13:15:22Z</time>
      </trkpt>
      <trkpt lat="45.1613" lon="5.62991">
        <ele>1262.1</ele>
        <time>2021-08-30T13:15:23Z</time>
      </trkpt>
      <trkpt lat="45.16127" lon="5.62984">
        <ele>1261.7</ele>
        <time>2021-08-30T13:15:24Z</time>
      </trkpt>
      <trkpt lat="45.16124" lon="5.62977">
        <ele>1261.3</ele>
        <time>2021-08-30T13:15:25Z</time>
      </trkpt>
      <trkpt lat="45.16116" lon="5.62963">
        <ele>1260.4</ele>
        <time>2021-08-30T13:15:27Z</time>
      </trkpt>
      <trkpt lat="45.16115" lon="5.62963">
        <ele>1260.4</ele>
        <time>2021-08-30T13:15:28Z</time>
      </trkpt>
      <trkpt lat="45.16112" lon="5.62956">
        <ele>1260.1</ele>
        <time>2021-08-30T13:15:30Z</time>
      </trkpt>
      <trkpt lat="45.1611" lon="5.62942">
        <ele>1260</ele>
        <time>2021-08-30T13:15:32Z</time>
      </trkpt>
      <trkpt lat="45.16108" lon="5.62923">
        <ele>1260.1</ele>
        <time>2021-08-30T13:15:33Z</time>
      </trkpt>
      <trkpt lat="45.16107" lon="5.62911">
        <ele>1260.5</ele>
        <time>2021-08-30T13:15:35Z</time>
      </trkpt>
      <trkpt lat="45.16106" lon="5.62905">
        <ele>1260.7</ele>
        <time>2021-08-30T13:15:36Z</time>
      </trkpt>
      <trkpt lat="45.16108" lon="5.62895">
        <ele>1261.1</ele>
        <time>2021-08-30T13:15:38Z</time>
      </trkpt>
      <trkpt lat="45.16109" lon="5.62889">
        <ele>1261.5</ele>
        <time>2021-08-30T13:15:39Z</time>
      </trkpt>
      <trkpt lat="45.1611" lon="5.62885">
        <ele>1261.7</ele>
        <time>2021-08-30T13:15:40Z</time>
      </trkpt>
      <trkpt lat="45.1611" lon="5.62882">
        <ele>1261.9</ele>
        <time>2021-08-30T13:15:41Z</time>
      </trkpt>
      <trkpt lat="45.1611" lon="5.62878">
        <ele>1262.2</ele>
        <time>2021-08-30T13:15:43Z</time>
      </trkpt>
      <trkpt lat="45.1611" lon="5.62874">
        <ele>1262.4</ele>
        <time>2021-08-30T13:15:44Z</time>
      </trkpt>
      <trkpt lat="45.16111" lon="5.6287">
        <ele>1262.7</ele>
        <time>2021-08-30T13:15:45Z</time>
      </trkpt>
      <trkpt lat="45.16112" lon="5.62865">
        <ele>1263</ele>
        <time>2021-08-30T13:15:47Z</time>
      </trkpt>
      <trkpt lat="45.16111" lon="5.62863">
        <ele>1263.1</ele>
        <time>2021-08-30T13:15:48Z</time>
      </trkpt>
      <trkpt lat="45.16111" lon="5.62861">
        <ele>1263.2</ele>
        <time>2021-08-30T13:15:49Z</time>
      </trkpt>
      <trkpt lat="45.16111" lon="5.62857">
        <ele>1263.5</ele>
        <time>2021-08-30T13:15:51Z</time>
      </trkpt>
      <trkpt lat="45.1611" lon="5.62853">
        <ele>1263.8</ele>
        <time>2021-08-30T13:15:53Z</time>
      </trkpt>
      <trkpt lat="45.16111" lon="5.6285">
        <ele>1263.9</ele>
        <time>2021-08-30T13:15:54Z</time>
      </trkpt>
      <trkpt lat="45.16111" lon="5.62849">
        <ele>1264</ele>
        <time>2021-08-30T13:15:55Z</time>
      </trkpt>
      <trkpt lat="45.16111" lon="5.62845">
        <ele>1264.2</ele>
        <time>2021-08-30T13:15:57Z</time>
      </trkpt>
      <trkpt lat="45.16112" lon="5.62844">
        <ele>1264.3</ele>
        <time>2021-08-30T13:15:58Z</time>
      </trkpt>
      <trkpt lat="45.16112" lon="5.62838">
        <ele>1264.6</ele>
        <time>2021-08-30T13:16:00Z</time>
      </trkpt>
      <trkpt lat="45.16113" lon="5.62836">
        <ele>1264.7</ele>
        <time>2021-08-30T13:16:01Z</time>
      </trkpt>
      <trkpt lat="45.16113" lon="5.62831">
        <ele>1264.9</ele>
        <time>2021-08-30T13:16:02Z</time>
      </trkpt>
      <trkpt lat="45.16112" lon="5.62825">
        <ele>1265.2</ele>
        <time>2021-08-30T13:16:04Z</time>
      </trkpt>
      <trkpt lat="45.16111" lon="5.62821">
        <ele>1265.3</ele>
        <time>2021-08-30T13:16:05Z</time>
      </trkpt>
      <trkpt lat="45.16107" lon="5.62814">
        <ele>1265.6</ele>
        <time>2021-08-30T13:16:07Z</time>
      </trkpt>
      <trkpt lat="45.16106" lon="5.62811">
        <ele>1265.7</ele>
        <time>2021-08-30T13:16:08Z</time>
      </trkpt>
      <trkpt lat="45.16104" lon="5.62806">
        <ele>1265.7</ele>
        <time>2021-08-30T13:16:09Z</time>
      </trkpt>
      <trkpt lat="45.16101" lon="5.62799">
        <ele>1265.8</ele>
        <time>2021-08-30T13:16:11Z</time>
      </trkpt>
      <trkpt lat="45.16098" lon="5.6279">
        <ele>1265.8</ele>
        <time>2021-08-30T13:16:13Z</time>
      </trkpt>
      <trkpt lat="45.16096" lon="5.62783">
        <ele>1265.8</ele>
        <time>2021-08-30T13:16:15Z</time>
      </trkpt>
      <trkpt lat="45.16096" lon="5.62778">
        <ele>1265.7</ele>
        <time>2021-08-30T13:16:16Z</time>
      </trkpt>
      <trkpt lat="45.16096" lon="5.62773">
        <ele>1265.6</ele>
        <time>2021-08-30T13:16:17Z</time>
      </trkpt>
      <trkpt lat="45.16095" lon="5.62767">
        <ele>1265.5</ele>
        <time>2021-08-30T13:16:18Z</time>
      </trkpt>
      <trkpt lat="45.16094" lon="5.62759">
        <ele>1265.3</ele>
        <time>2021-08-30T13:16:19Z</time>
      </trkpt>
      <trkpt lat="45.16093" lon="5.6275">
        <ele>1265.1</ele>
        <time>2021-08-30T13:16:21Z</time>
      </trkpt>
      <trkpt lat="45.16093" lon="5.62741">
        <ele>1265</ele>
        <time>2021-08-30T13:16:22Z</time>
      </trkpt>
      <trkpt lat="45.16093" lon="5.62734">
        <ele>1265</ele>
        <time>2021-08-30T13:16:23Z</time>
      </trkpt>
      <trkpt lat="45.16092" lon="5.62728">
        <ele>1264.9</ele>
        <time>2021-08-30T13:16:24Z</time>
      </trkpt>
      <trkpt lat="45.1609" lon="5.62722">
        <ele>1264.9</ele>
        <time>2021-08-30T13:16:25Z</time>
      </trkpt>
      <trkpt lat="45.16089" lon="5.62714">
        <ele>1265</ele>
        <time>2021-08-30T13:16:27Z</time>
      </trkpt>
      <trkpt lat="45.16088" lon="5.62707">
        <ele>1265</ele>
        <time>2021-08-30T13:16:28Z</time>
      </trkpt>
      <trkpt lat="45.16086" lon="5.62698">
        <ele>1265</ele>
        <time>2021-08-30T13:16:29Z</time>
      </trkpt>
      <trkpt lat="45.16085" lon="5.62692">
        <ele>1265</ele>
        <time>2021-08-30T13:16:31Z</time>
      </trkpt>
      <trkpt lat="45.16083" lon="5.62685">
        <ele>1265</ele>
        <time>2021-08-30T13:16:32Z</time>
      </trkpt>
      <trkpt lat="45.16082" lon="5.62678">
        <ele>1264.9</ele>
        <time>2021-08-30T13:16:33Z</time>
      </trkpt>
      <trkpt lat="45.1608" lon="5.62671">
        <ele>1264.8</ele>
        <time>2021-08-30T13:16:34Z</time>
      </trkpt>
      <trkpt lat="45.16079" lon="5.62664">
        <ele>1264.7</ele>
        <time>2021-08-30T13:16:35Z</time>
      </trkpt>
      <trkpt lat="45.16076" lon="5.62656">
        <ele>1264.5</ele>
        <time>2021-08-30T13:16:37Z</time>
      </trkpt>
      <trkpt lat="45.16074" lon="5.6265">
        <ele>1264.3</ele>
        <time>2021-08-30T13:16:38Z</time>
      </trkpt>
      <trkpt lat="45.16073" lon="5.62641">
        <ele>1263.9</ele>
        <time>2021-08-30T13:16:39Z</time>
      </trkpt>
      <trkpt lat="45.1607" lon="5.62629">
        <ele>1263.4</ele>
        <time>2021-08-30T13:16:40Z</time>
      </trkpt>
      <trkpt lat="45.16068" lon="5.62621">
        <ele>1263</ele>
        <time>2021-08-30T13:16:41Z</time>
      </trkpt>
      <trkpt lat="45.16066" lon="5.62604">
        <ele>1262.2</ele>
        <time>2021-08-30T13:16:43Z</time>
      </trkpt>
      <trkpt lat="45.16066" lon="5.62587">
        <ele>1261.5</ele>
        <time>2021-08-30T13:16:45Z</time>
      </trkpt>
      <trkpt lat="45.16061" lon="5.62569">
        <ele>1260.8</ele>
        <time>2021-08-30T13:16:47Z</time>
      </trkpt>
      <trkpt lat="45.16051" lon="5.62551">
        <ele>1260.4</ele>
        <time>2021-08-30T13:16:49Z</time>
      </trkpt>
      <trkpt lat="45.16043" lon="5.62535">
        <ele>1260.3</ele>
        <time>2021-08-30T13:16:51Z</time>
      </trkpt>
      <trkpt lat="45.16036" lon="5.62522">
        <ele>1260.4</ele>
        <time>2021-08-30T13:16:53Z</time>
      </trkpt>
      <trkpt lat="45.16029" lon="5.6251">
        <ele>1260.7</ele>
        <time>2021-08-30T13:16:55Z</time>
      </trkpt>
      <trkpt lat="45.16025" lon="5.62505">
        <ele>1260.8</ele>
        <time>2021-08-30T13:16:56Z</time>
      </trkpt>
      <trkpt lat="45.16019" lon="5.62494">
        <ele>1261</ele>
        <time>2021-08-30T13:16:58Z</time>
      </trkpt>
      <trkpt lat="45.16015" lon="5.62486">
        <ele>1261.2</ele>
        <time>2021-08-30T13:17:00Z</time>
      </trkpt>
      <trkpt lat="45.16009" lon="5.62475">
        <ele>1261.5</ele>
        <time>2021-08-30T13:17:02Z</time>
      </trkpt>
      <trkpt lat="45.16005" lon="5.62466">
        <ele>1261.8</ele>
        <time>2021-08-30T13:17:04Z</time>
      </trkpt>
      <trkpt lat="45.16008" lon="5.62462">
        <ele>1262</ele>
        <time>2021-08-30T13:17:06Z</time>
      </trkpt>
      <trkpt lat="45.16005" lon="5.62457">
        <ele>1262.2</ele>
        <time>2021-08-30T13:17:07Z</time>
      </trkpt>
      <trkpt lat="45.16001" lon="5.62452">
        <ele>1262.4</ele>
        <time>2021-08-30T13:17:08Z</time>
      </trkpt>
      <trkpt lat="45.15997" lon="5.62447">
        <ele>1262.6</ele>
        <time>2021-08-30T13:17:09Z</time>
      </trkpt>
      <trkpt lat="45.15993" lon="5.62444">
        <ele>1262.8</ele>
        <time>2021-08-30T13:17:10Z</time>
      </trkpt>
      <trkpt lat="45.15988" lon="5.6244">
        <ele>1263.1</ele>
        <time>2021-08-30T13:17:12Z</time>
      </trkpt>
      <trkpt lat="45.15983" lon="5.62435">
        <ele>1263.4</ele>
        <time>2021-08-30T13:17:13Z</time>
      </trkpt>
      <trkpt lat="45.1598" lon="5.6243">
        <ele>1263.6</ele>
        <time>2021-08-30T13:17:14Z</time>
      </trkpt>
      <trkpt lat="45.15974" lon="5.62425">
        <ele>1264</ele>
        <time>2021-08-30T13:17:16Z</time>
      </trkpt>
      <trkpt lat="45.15969" lon="5.62419">
        <ele>1264.3</ele>
        <time>2021-08-30T13:17:18Z</time>
      </trkpt>
      <trkpt lat="45.15967" lon="5.62414">
        <ele>1264.4</ele>
        <time>2021-08-30T13:17:19Z</time>
      </trkpt>
      <trkpt lat="45.15964" lon="5.62409">
        <ele>1264.7</ele>
        <time>2021-08-30T13:17:21Z</time>
      </trkpt>
      <trkpt lat="45.1596" lon="5.62404">
        <ele>1264.9</ele>
        <time>2021-08-30T13:17:22Z</time>
      </trkpt>
      <trkpt lat="45.15956" lon="5.62398">
        <ele>1265.1</ele>
        <time>2021-08-30T13:17:24Z</time>
      </trkpt>
      <trkpt lat="45.15954" lon="5.62393">
        <ele>1265.3</ele>
        <time>2021-08-30T13:17:25Z</time>
      </trkpt>
      <trkpt lat="45.1595" lon="5.62387">
        <ele>1265.4</ele>
        <time>2021-08-30T13:17:27Z</time>
      </trkpt>
      <trkpt lat="45.15947" lon="5.62383">
        <ele>1265.5</ele>
        <time>2021-08-30T13:17:28Z</time>
      </trkpt>
      <trkpt lat="45.15945" lon="5.6238">
        <ele>1265.6</ele>
        <time>2021-08-30T13:17:29Z</time>
      </trkpt>
      <trkpt lat="45.15943" lon="5.62375">
        <ele>1265.6</ele>
        <time>2021-08-30T13:17:30Z</time>
      </trkpt>
      <trkpt lat="45.15941" lon="5.62371">
        <ele>1265.6</ele>
        <time>2021-08-30T13:17:31Z</time>
      </trkpt>
      <trkpt lat="45.15938" lon="5.62366">
        <ele>1265.6</ele>
        <time>2021-08-30T13:17:33Z</time>
      </trkpt>
      <trkpt lat="45.15935" lon="5.62361">
        <ele>1265.5</ele>
        <time>2021-08-30T13:17:34Z</time>
      </trkpt>
      <trkpt lat="45.15932" lon="5.62358">
        <ele>1265.4</ele>
        <time>2021-08-30T13:17:35Z</time>
      </trkpt>
      <trkpt lat="45.1593" lon="5.62355">
        <ele>1265.3</ele>
        <time>2021-08-30T13:17:36Z</time>
      </trkpt>
      <trkpt lat="45.15928" lon="5.62352">
        <ele>1265.2</ele>
        <time>2021-08-30T13:17:37Z</time>
      </trkpt>
      <trkpt lat="45.15925" lon="5.62346">
        <ele>1264.9</ele>
        <time>2021-08-30T13:17:39Z</time>
      </trkpt>
      <trkpt lat="45.15923" lon="5.62341">
        <ele>1264.7</ele>
        <time>2021-08-30T13:17:40Z</time>
      </trkpt>
      <trkpt lat="45.1592" lon="5.62335">
        <ele>1264.4</ele>
        <time>2021-08-30T13:17:41Z</time>
      </trkpt>
      <trkpt lat="45.15916" lon="5.62327">
        <ele>1263.9</ele>
        <time>2021-08-30T13:17:43Z</time>
      </trkpt>
      <trkpt lat="45.15912" lon="5.62322">
        <ele>1263.5</ele>
        <time>2021-08-30T13:17:44Z</time>
      </trkpt>
      <trkpt lat="45.15909" lon="5.62318">
        <ele>1263.2</ele>
        <time>2021-08-30T13:17:45Z</time>
      </trkpt>
      <trkpt lat="45.15904" lon="5.62312">
        <ele>1262.7</ele>
        <time>2021-08-30T13:17:46Z</time>
      </trkpt>
      <trkpt lat="45.15893" lon="5.62305">
        <ele>1262</ele>
        <time>2021-08-30T13:17:48Z</time>
      </trkpt>
      <trkpt lat="45.15888" lon="5.62302">
        <ele>1261.8</ele>
        <time>2021-08-30T13:17:49Z</time>
      </trkpt>
      <trkpt lat="45.15877" lon="5.62301">
        <ele>1261.5</ele>
        <time>2021-08-30T13:17:51Z</time>
      </trkpt>
      <trkpt lat="45.15873" lon="5.623">
        <ele>1261.4</ele>
        <time>2021-08-30T13:17:52Z</time>
      </trkpt>
      <trkpt lat="45.15868" lon="5.62301">
        <ele>1261.4</ele>
        <time>2021-08-30T13:17:53Z</time>
      </trkpt>
      <trkpt lat="45.15861" lon="5.62304">
        <ele>1261.4</ele>
        <time>2021-08-30T13:17:55Z</time>
      </trkpt>
      <trkpt lat="45.15854" lon="5.62306">
        <ele>1261.4</ele>
        <time>2021-08-30T13:17:56Z</time>
      </trkpt>
      <trkpt lat="45.15849" lon="5.62309">
        <ele>1261.4</ele>
        <time>2021-08-30T13:17:57Z</time>
      </trkpt>
      <trkpt lat="45.15839" lon="5.62313">
        <ele>1261.2</ele>
        <time>2021-08-30T13:17:58Z</time>
      </trkpt>
      <trkpt lat="45.15833" lon="5.62314">
        <ele>1261.1</ele>
        <time>2021-08-30T13:17:59Z</time>
      </trkpt>
      <trkpt lat="45.15822" lon="5.62314">
        <ele>1260.9</ele>
        <time>2021-08-30T13:18:01Z</time>
      </trkpt>
      <trkpt lat="45.15818" lon="5.62314">
        <ele>1260.9</ele>
        <time>2021-08-30T13:18:03Z</time>
      </trkpt>
      <trkpt lat="45.15814" lon="5.62312">
        <ele>1260.8</ele>
        <time>2021-08-30T13:18:04Z</time>
      </trkpt>
      <trkpt lat="45.15808" lon="5.6231">
        <ele>1260.8</ele>
        <time>2021-08-30T13:18:06Z</time>
      </trkpt>
      <trkpt lat="45.15804" lon="5.6231">
        <ele>1260.7</ele>
        <time>2021-08-30T13:18:07Z</time>
      </trkpt>
      <trkpt lat="45.15801" lon="5.6231">
        <ele>1260.7</ele>
        <time>2021-08-30T13:18:08Z</time>
      </trkpt>
      <trkpt lat="45.15793" lon="5.62312">
        <ele>1260.6</ele>
        <time>2021-08-30T13:18:10Z</time>
      </trkpt>
      <trkpt lat="45.15789" lon="5.62312">
        <ele>1260.6</ele>
        <time>2021-08-30T13:18:11Z</time>
      </trkpt>
      <trkpt lat="45.15787" lon="5.62312">
        <ele>1260.6</ele>
        <time>2021-08-30T13:18:13Z</time>
      </trkpt>
      <trkpt lat="45.15783" lon="5.62309">
        <ele>1260.5</ele>
        <time>2021-08-30T13:18:15Z</time>
      </trkpt>
      <trkpt lat="45.15782" lon="5.62309">
        <ele>1260.5</ele>
        <time>2021-08-30T13:18:16Z</time>
      </trkpt>
      <trkpt lat="45.15782" lon="5.6231">
        <ele>1260.5</ele>
        <time>2021-08-30T13:18:18Z</time>
      </trkpt>
      <trkpt lat="45.15781" lon="5.62313">
        <ele>1260.4</ele>
        <time>2021-08-30T13:18:20Z</time>
      </trkpt>
      <trkpt lat="45.15781" lon="5.62313">
        <ele>1260.4</ele>
        <time>2021-08-30T13:18:21Z</time>
      </trkpt>
      <trkpt lat="45.15696" lon="5.62363">
        <ele>1255</ele>
        <time>2021-08-30T13:19:11Z</time>
      </trkpt>
      <trkpt lat="45.15674" lon="5.62387">
        <ele>1252.8</ele>
        <time>2021-08-30T13:19:13Z</time>
      </trkpt>
      <trkpt lat="45.15657" lon="5.62408">
        <ele>1252.7</ele>
        <time>2021-08-30T13:19:15Z</time>
      </trkpt>
      <trkpt lat="45.1565" lon="5.62416">
        <ele>1253.2</ele>
        <time>2021-08-30T13:19:17Z</time>
      </trkpt>
      <trkpt lat="45.15649" lon="5.6242">
        <ele>1253.4</ele>
        <time>2021-08-30T13:19:19Z</time>
      </trkpt>
      <trkpt lat="45.15645" lon="5.62424">
        <ele>1253.8</ele>
        <time>2021-08-30T13:19:20Z</time>
      </trkpt>
      <trkpt lat="45.15642" lon="5.62427">
        <ele>1254.1</ele>
        <time>2021-08-30T13:19:21Z</time>
      </trkpt>
      <trkpt lat="45.15639" lon="5.62429">
        <ele>1254.5</ele>
        <time>2021-08-30T13:19:23Z</time>
      </trkpt>
      <trkpt lat="45.15636" lon="5.62431">
        <ele>1254.9</ele>
        <time>2021-08-30T13:19:24Z</time>
      </trkpt>
      <trkpt lat="45.15636" lon="5.62432">
        <ele>1254.9</ele>
        <time>2021-08-30T13:19:25Z</time>
      </trkpt>
      <trkpt lat="45.15635" lon="5.62434">
        <ele>1255.2</ele>
        <time>2021-08-30T13:19:26Z</time>
      </trkpt>
      <trkpt lat="45.15632" lon="5.62437">
        <ele>1255.5</ele>
        <time>2021-08-30T13:19:28Z</time>
      </trkpt>
      <trkpt lat="45.1563" lon="5.6244">
        <ele>1255.9</ele>
        <time>2021-08-30T13:19:29Z</time>
      </trkpt>
      <trkpt lat="45.15628" lon="5.62441">
        <ele>1256.2</ele>
        <time>2021-08-30T13:19:31Z</time>
      </trkpt>
      <trkpt lat="45.15627" lon="5.62442">
        <ele>1256.3</ele>
        <time>2021-08-30T13:19:32Z</time>
      </trkpt>
      <trkpt lat="45.15626" lon="5.62443">
        <ele>1256.4</ele>
        <time>2021-08-30T13:19:33Z</time>
      </trkpt>
      <trkpt lat="45.15627" lon="5.62442">
        <ele>1256.5</ele>
        <time>2021-08-30T13:19:35Z</time>
      </trkpt>
      <trkpt lat="45.15627" lon="5.62442">
        <ele>1256.6</ele>
        <time>2021-08-30T13:19:36Z</time>
      </trkpt>
      <trkpt lat="45.15626" lon="5.62443">
        <ele>1256.6</ele>
        <time>2021-08-30T13:19:37Z</time>
      </trkpt>
      <trkpt lat="45.15626" lon="5.62443">
        <ele>1256.7</ele>
        <time>2021-08-30T13:19:38Z</time>
      </trkpt>
      <trkpt lat="45.15626" lon="5.62445">
        <ele>1256.8</ele>
        <time>2021-08-30T13:19:40Z</time>
      </trkpt>
      <trkpt lat="45.15626" lon="5.62445">
        <ele>1256.9</ele>
        <time>2021-08-30T13:19:41Z</time>
      </trkpt>
      <trkpt lat="45.15625" lon="5.62447">
        <ele>1257</ele>
        <time>2021-08-30T13:19:43Z</time>
      </trkpt>
      <trkpt lat="45.15616" lon="5.62467">
        <ele>1259</ele>
        <time>2021-08-30T13:19:57Z</time>
      </trkpt>
      <trkpt lat="45.15614" lon="5.62473">
        <ele>1259.5</ele>
        <time>2021-08-30T13:19:58Z</time>
      </trkpt>
      <trkpt lat="45.15613" lon="5.62476">
        <ele>1259.8</ele>
        <time>2021-08-30T13:19:59Z</time>
      </trkpt>
      <trkpt lat="45.15612" lon="5.62479">
        <ele>1260</ele>
        <time>2021-08-30T13:20:01Z</time>
      </trkpt>
      <trkpt lat="45.15611" lon="5.62482">
        <ele>1260.3</ele>
        <time>2021-08-30T13:20:02Z</time>
      </trkpt>
      <trkpt lat="45.1561" lon="5.62486">
        <ele>1260.6</ele>
        <time>2021-08-30T13:20:03Z</time>
      </trkpt>
      <trkpt lat="45.15611" lon="5.6249">
        <ele>1260.9</ele>
        <time>2021-08-30T13:20:05Z</time>
      </trkpt>
      <trkpt lat="45.15611" lon="5.62496">
        <ele>1261.3</ele>
        <time>2021-08-30T13:20:06Z</time>
      </trkpt>
      <trkpt lat="45.15611" lon="5.62501">
        <ele>1261.7</ele>
        <time>2021-08-30T13:20:07Z</time>
      </trkpt>
      <trkpt lat="45.15611" lon="5.62505">
        <ele>1262</ele>
        <time>2021-08-30T13:20:09Z</time>
      </trkpt>
      <trkpt lat="45.15609" lon="5.62508">
        <ele>1262.4</ele>
        <time>2021-08-30T13:20:10Z</time>
      </trkpt>
      <trkpt lat="45.15608" lon="5.62511">
        <ele>1262.6</ele>
        <time>2021-08-30T13:20:11Z</time>
      </trkpt>
      <trkpt lat="45.15607" lon="5.62517">
        <ele>1263</ele>
        <time>2021-08-30T13:20:13Z</time>
      </trkpt>
      <trkpt lat="45.15608" lon="5.62522">
        <ele>1263.4</ele>
        <time>2021-08-30T13:20:14Z</time>
      </trkpt>
      <trkpt lat="45.15609" lon="5.62526">
        <ele>1263.7</ele>
        <time>2021-08-30T13:20:16Z</time>
      </trkpt>
      <trkpt lat="45.15609" lon="5.62527">
        <ele>1263.8</ele>
        <time>2021-08-30T13:20:17Z</time>
      </trkpt>
      <trkpt lat="45.15609" lon="5.62532">
        <ele>1264.1</ele>
        <time>2021-08-30T13:20:18Z</time>
      </trkpt>
      <trkpt lat="45.15608" lon="5.62535">
        <ele>1264.4</ele>
        <time>2021-08-30T13:20:19Z</time>
      </trkpt>
      <trkpt lat="45.15607" lon="5.62536">
        <ele>1264.5</ele>
        <time>2021-08-30T13:20:20Z</time>
      </trkpt>
      <trkpt lat="45.15607" lon="5.62537">
        <ele>1264.5</ele>
        <time>2021-08-30T13:20:21Z</time>
      </trkpt>
      <trkpt lat="45.15605" lon="5.62538">
        <ele>1264.7</ele>
        <time>2021-08-30T13:20:22Z</time>
      </trkpt>
      <trkpt lat="45.15604" lon="5.62538">
        <ele>1264.8</ele>
        <time>2021-08-30T13:20:23Z</time>
      </trkpt>
      <trkpt lat="45.15602" lon="5.62535">
        <ele>1265.2</ele>
        <time>2021-08-30T13:20:24Z</time>
      </trkpt>
      <trkpt lat="45.15601" lon="5.62533">
        <ele>1265.3</ele>
        <time>2021-08-30T13:20:25Z</time>
      </trkpt>
      <trkpt lat="45.156" lon="5.62532">
        <ele>1265.5</ele>
        <time>2021-08-30T13:20:26Z</time>
      </trkpt>
      <trkpt lat="45.15599" lon="5.62531">
        <ele>1265.6</ele>
        <time>2021-08-30T13:20:28Z</time>
      </trkpt>
      <trkpt lat="45.15598" lon="5.62532">
        <ele>1265.7</ele>
        <time>2021-08-30T13:20:29Z</time>
      </trkpt>
      <trkpt lat="45.15598" lon="5.62532">
        <ele>1265.7</ele>
        <time>2021-08-30T13:20:30Z</time>
      </trkpt>
      <trkpt lat="45.15596" lon="5.62533">
        <ele>1265.9</ele>
        <time>2021-08-30T13:20:32Z</time>
      </trkpt>
      <trkpt lat="45.15584" lon="5.62561">
        <ele>1267.9</ele>
        <time>2021-08-30T13:20:46Z</time>
      </trkpt>
      <trkpt lat="45.15582" lon="5.62567">
        <ele>1268.3</ele>
        <time>2021-08-30T13:20:48Z</time>
      </trkpt>
      <trkpt lat="45.15581" lon="5.62573">
        <ele>1268.8</ele>
        <time>2021-08-30T13:20:49Z</time>
      </trkpt>
      <trkpt lat="45.1558" lon="5.62577">
        <ele>1269.1</ele>
        <time>2021-08-30T13:20:50Z</time>
      </trkpt>
      <trkpt lat="45.15578" lon="5.62581">
        <ele>1269.3</ele>
        <time>2021-08-30T13:20:51Z</time>
      </trkpt>
      <trkpt lat="45.15576" lon="5.62585">
        <ele>1269.7</ele>
        <time>2021-08-30T13:20:53Z</time>
      </trkpt>
      <trkpt lat="45.15574" lon="5.62589">
        <ele>1270</ele>
        <time>2021-08-30T13:20:54Z</time>
      </trkpt>
      <trkpt lat="45.15573" lon="5.62591">
        <ele>1270.2</ele>
        <time>2021-08-30T13:20:55Z</time>
      </trkpt>
      <trkpt lat="45.1557" lon="5.62592">
        <ele>1270.5</ele>
        <time>2021-08-30T13:20:57Z</time>
      </trkpt>
      <trkpt lat="45.15568" lon="5.62593">
        <ele>1270.7</ele>
        <time>2021-08-30T13:20:58Z</time>
      </trkpt>
      <trkpt lat="45.15565" lon="5.62591">
        <ele>1271</ele>
        <time>2021-08-30T13:21:00Z</time>
      </trkpt>
      <trkpt lat="45.15563" lon="5.6259">
        <ele>1271.2</ele>
        <time>2021-08-30T13:21:01Z</time>
      </trkpt>
      <trkpt lat="45.15563" lon="5.6259">
        <ele>1271.3</ele>
        <time>2021-08-30T13:21:02Z</time>
      </trkpt>
      <trkpt lat="45.15563" lon="5.6259">
        <ele>1271.3</ele>
        <time>2021-08-30T13:21:04Z</time>
      </trkpt>
      <trkpt lat="45.15562" lon="5.62591">
        <ele>1271.4</ele>
        <time>2021-08-30T13:21:05Z</time>
      </trkpt>
      <trkpt lat="45.15559" lon="5.62592">
        <ele>1271.7</ele>
        <time>2021-08-30T13:21:07Z</time>
      </trkpt>
      <trkpt lat="45.15558" lon="5.62592">
        <ele>1271.8</ele>
        <time>2021-08-30T13:21:09Z</time>
      </trkpt>
      <trkpt lat="45.15557" lon="5.62591">
        <ele>1271.9</ele>
        <time>2021-08-30T13:21:10Z</time>
      </trkpt>
      <trkpt lat="45.15556" lon="5.62591">
        <ele>1272</ele>
        <time>2021-08-30T13:21:12Z</time>
      </trkpt>
      <trkpt lat="45.15555" lon="5.6259">
        <ele>1272.1</ele>
        <time>2021-08-30T13:21:13Z</time>
      </trkpt>
      <trkpt lat="45.15554" lon="5.6259">
        <ele>1272.1</ele>
        <time>2021-08-30T13:21:15Z</time>
      </trkpt>
      <trkpt lat="45.15553" lon="5.6259">
        <ele>1272.2</ele>
        <time>2021-08-30T13:21:16Z</time>
      </trkpt>
      <trkpt lat="45.15552" lon="5.62589">
        <ele>1272.4</ele>
        <time>2021-08-30T13:21:18Z</time>
      </trkpt>
      <trkpt lat="45.15525" lon="5.62635">
        <ele>1276.3</ele>
        <time>2021-08-30T13:21:47Z</time>
      </trkpt>
      <trkpt lat="45.15525" lon="5.62638">
        <ele>1276.5</ele>
        <time>2021-08-30T13:21:48Z</time>
      </trkpt>
      <trkpt lat="45.15524" lon="5.62647">
        <ele>1277</ele>
        <time>2021-08-30T13:21:50Z</time>
      </trkpt>
      <trkpt lat="45.15523" lon="5.6265">
        <ele>1277.2</ele>
        <time>2021-08-30T13:21:52Z</time>
      </trkpt>
      <trkpt lat="45.15523" lon="5.62651">
        <ele>1277.3</ele>
        <time>2021-08-30T13:21:53Z</time>
      </trkpt>
      <trkpt lat="45.15523" lon="5.62652">
        <ele>1277.4</ele>
        <time>2021-08-30T13:21:54Z</time>
      </trkpt>
      <trkpt lat="45.15522" lon="5.62652">
        <ele>1277.4</ele>
        <time>2021-08-30T13:21:55Z</time>
      </trkpt>
      <trkpt lat="45.15522" lon="5.62653">
        <ele>1277.5</ele>
        <time>2021-08-30T13:21:56Z</time>
      </trkpt>
      <trkpt lat="45.15522" lon="5.62653">
        <ele>1277.5</ele>
        <time>2021-08-30T13:21:57Z</time>
      </trkpt>
      <trkpt lat="45.15522" lon="5.62654">
        <ele>1277.5</ele>
        <time>2021-08-30T13:21:58Z</time>
      </trkpt>
      <trkpt lat="45.15521" lon="5.62655">
        <ele>1277.6</ele>
        <time>2021-08-30T13:22:00Z</time>
      </trkpt>
      <trkpt lat="45.1552" lon="5.62656">
        <ele>1277.7</ele>
        <time>2021-08-30T13:22:01Z</time>
      </trkpt>
      <trkpt lat="45.15518" lon="5.62658">
        <ele>1278</ele>
        <time>2021-08-30T13:22:03Z</time>
      </trkpt>
      <trkpt lat="45.15515" lon="5.62662">
        <ele>1278.4</ele>
        <time>2021-08-30T13:22:06Z</time>
      </trkpt>
      <trkpt lat="45.15514" lon="5.62666">
        <ele>1278.6</ele>
        <time>2021-08-30T13:22:07Z</time>
      </trkpt>
      <trkpt lat="45.15512" lon="5.62668">
        <ele>1278.9</ele>
        <time>2021-08-30T13:22:08Z</time>
      </trkpt>
      <trkpt lat="45.15509" lon="5.62671">
        <ele>1279.2</ele>
        <time>2021-08-30T13:22:10Z</time>
      </trkpt>
      <trkpt lat="45.15506" lon="5.62673">
        <ele>1279.5</ele>
        <time>2021-08-30T13:22:11Z</time>
      </trkpt>
      <trkpt lat="45.15505" lon="5.62674">
        <ele>1279.6</ele>
        <time>2021-08-30T13:22:12Z</time>
      </trkpt>
      <trkpt lat="45.15505" lon="5.62678">
        <ele>1279.8</ele>
        <time>2021-08-30T13:22:14Z</time>
      </trkpt>
      <trkpt lat="45.15505" lon="5.62681">
        <ele>1280</ele>
        <time>2021-08-30T13:22:15Z</time>
      </trkpt>
      <trkpt lat="45.15507" lon="5.62685">
        <ele>1280.3</ele>
        <time>2021-08-30T13:22:17Z</time>
      </trkpt>
      <trkpt lat="45.1551" lon="5.62691">
        <ele>1280.7</ele>
        <time>2021-08-30T13:22:18Z</time>
      </trkpt>
      <trkpt lat="45.15512" lon="5.62695">
        <ele>1281.1</ele>
        <time>2021-08-30T13:22:19Z</time>
      </trkpt>
      <trkpt lat="45.15514" lon="5.627">
        <ele>1281.4</ele>
        <time>2021-08-30T13:22:20Z</time>
      </trkpt>
      <trkpt lat="45.15515" lon="5.62703">
        <ele>1281.6</ele>
        <time>2021-08-30T13:22:21Z</time>
      </trkpt>
      <trkpt lat="45.15515" lon="5.62707">
        <ele>1281.9</ele>
        <time>2021-08-30T13:22:22Z</time>
      </trkpt>
      <trkpt lat="45.15515" lon="5.62709">
        <ele>1282</ele>
        <time>2021-08-30T13:22:24Z</time>
      </trkpt>
      <trkpt lat="45.15515" lon="5.6271">
        <ele>1282.1</ele>
        <time>2021-08-30T13:22:25Z</time>
      </trkpt>
      <trkpt lat="45.15516" lon="5.62712">
        <ele>1282.2</ele>
        <time>2021-08-30T13:22:26Z</time>
      </trkpt>
      <trkpt lat="45.15517" lon="5.62714">
        <ele>1282.4</ele>
        <time>2021-08-30T13:22:27Z</time>
      </trkpt>
      <trkpt lat="45.15516" lon="5.62718">
        <ele>1282.6</ele>
        <time>2021-08-30T13:22:29Z</time>
      </trkpt>
      <trkpt lat="45.15516" lon="5.6272">
        <ele>1282.8</ele>
        <time>2021-08-30T13:22:30Z</time>
      </trkpt>
      <trkpt lat="45.15516" lon="5.62723">
        <ele>1283</ele>
        <time>2021-08-30T13:22:31Z</time>
      </trkpt>
      <trkpt lat="45.15514" lon="5.62726">
        <ele>1283.3</ele>
        <time>2021-08-30T13:22:33Z</time>
      </trkpt>
      <trkpt lat="45.15513" lon="5.62725">
        <ele>1283.4</ele>
        <time>2021-08-30T13:22:34Z</time>
      </trkpt>
      <trkpt lat="45.15509" lon="5.62724">
        <ele>1283.8</ele>
        <time>2021-08-30T13:22:36Z</time>
      </trkpt>
      <trkpt lat="45.15509" lon="5.62724">
        <ele>1283.8</ele>
        <time>2021-08-30T13:22:37Z</time>
      </trkpt>
      <trkpt lat="45.15507" lon="5.62724">
        <ele>1284</ele>
        <time>2021-08-30T13:22:39Z</time>
      </trkpt>
      <trkpt lat="45.15506" lon="5.62725">
        <ele>1284</ele>
        <time>2021-08-30T13:22:40Z</time>
      </trkpt>
      <trkpt lat="45.15505" lon="5.62726">
        <ele>1284.2</ele>
        <time>2021-08-30T13:22:41Z</time>
      </trkpt>
      <trkpt lat="45.15504" lon="5.62727">
        <ele>1284.3</ele>
        <time>2021-08-30T13:22:42Z</time>
      </trkpt>
      <trkpt lat="45.15503" lon="5.62727">
        <ele>1284.4</ele>
        <time>2021-08-30T13:22:44Z</time>
      </trkpt>
      <trkpt lat="45.15502" lon="5.62728">
        <ele>1284.5</ele>
        <time>2021-08-30T13:22:46Z</time>
      </trkpt>
      <trkpt lat="45.15502" lon="5.62728">
        <ele>1284.5</ele>
        <time>2021-08-30T13:22:47Z</time>
      </trkpt>
      <trkpt lat="45.15501" lon="5.62728">
        <ele>1284.6</ele>
        <time>2021-08-30T13:22:48Z</time>
      </trkpt>
      <trkpt lat="45.15499" lon="5.62729">
        <ele>1284.8</ele>
        <time>2021-08-30T13:22:50Z</time>
      </trkpt>
      <trkpt lat="45.15498" lon="5.6273">
        <ele>1284.9</ele>
        <time>2021-08-30T13:22:51Z</time>
      </trkpt>
      <trkpt lat="45.15486" lon="5.62736">
        <ele>1285.8</ele>
        <time>2021-08-30T13:22:57Z</time>
      </trkpt>
      <trkpt lat="45.15483" lon="5.62738">
        <ele>1286.1</ele>
        <time>2021-08-30T13:22:58Z</time>
      </trkpt>
      <trkpt lat="45.15478" lon="5.6274">
        <ele>1286.4</ele>
        <time>2021-08-30T13:23:00Z</time>
      </trkpt>
      <trkpt lat="45.15473" lon="5.62743">
        <ele>1286.6</ele>
        <time>2021-08-30T13:23:01Z</time>
      </trkpt>
      <trkpt lat="45.1547" lon="5.62744">
        <ele>1286.9</ele>
        <time>2021-08-30T13:23:02Z</time>
      </trkpt>
      <trkpt lat="45.15466" lon="5.62746">
        <ele>1287</ele>
        <time>2021-08-30T13:23:03Z</time>
      </trkpt>
      <trkpt lat="45.15465" lon="5.62746">
        <ele>1287</ele>
        <time>2021-08-30T13:23:04Z</time>
      </trkpt>
      <trkpt lat="45.15462" lon="5.62749">
        <ele>1287.1</ele>
        <time>2021-08-30T13:23:06Z</time>
      </trkpt>
      <trkpt lat="45.1546" lon="5.62751">
        <ele>1287.2</ele>
        <time>2021-08-30T13:23:07Z</time>
      </trkpt>
      <trkpt lat="45.15454" lon="5.62755">
        <ele>1287.3</ele>
        <time>2021-08-30T13:23:09Z</time>
      </trkpt>
      <trkpt lat="45.1545" lon="5.62757">
        <ele>1287.4</ele>
        <time>2021-08-30T13:23:11Z</time>
      </trkpt>
      <trkpt lat="45.15447" lon="5.62758">
        <ele>1287.5</ele>
        <time>2021-08-30T13:23:13Z</time>
      </trkpt>
      <trkpt lat="45.15443" lon="5.62756">
        <ele>1287.6</ele>
        <time>2021-08-30T13:23:15Z</time>
      </trkpt>
      <trkpt lat="45.15442" lon="5.62755">
        <ele>1287.7</ele>
        <time>2021-08-30T13:23:16Z</time>
      </trkpt>
      <trkpt lat="45.15437" lon="5.62753">
        <ele>1287.8</ele>
        <time>2021-08-30T13:23:18Z</time>
      </trkpt>
      <trkpt lat="45.15435" lon="5.62753">
        <ele>1287.9</ele>
        <time>2021-08-30T13:23:19Z</time>
      </trkpt>
      <trkpt lat="45.15433" lon="5.62753">
        <ele>1288</ele>
        <time>2021-08-30T13:23:20Z</time>
      </trkpt>
      <trkpt lat="45.15434" lon="5.62756">
        <ele>1288.1</ele>
        <time>2021-08-30T13:23:22Z</time>
      </trkpt>
      <trkpt lat="45.15434" lon="5.62756">
        <ele>1288.1</ele>
        <time>2021-08-30T13:23:23Z</time>
      </trkpt>
      <trkpt lat="45.15433" lon="5.62756">
        <ele>1288.1</ele>
        <time>2021-08-30T13:23:25Z</time>
      </trkpt>
      <trkpt lat="45.15433" lon="5.62757">
        <ele>1288.1</ele>
        <time>2021-08-30T13:23:27Z</time>
      </trkpt>
      <trkpt lat="45.15428" lon="5.62759">
        <ele>1288.3</ele>
        <time>2021-08-30T13:23:29Z</time>
      </trkpt>
      <trkpt lat="45.15421" lon="5.62761">
        <ele>1288.5</ele>
        <time>2021-08-30T13:23:33Z</time>
      </trkpt>
      <trkpt lat="45.15414" lon="5.62763">
        <ele>1288.7</ele>
        <time>2021-08-30T13:23:35Z</time>
      </trkpt>
      <trkpt lat="45.15407" lon="5.62764">
        <ele>1288.7</ele>
        <time>2021-08-30T13:23:36Z</time>
      </trkpt>
      <trkpt lat="45.154" lon="5.62765">
        <ele>1288.7</ele>
        <time>2021-08-30T13:23:38Z</time>
      </trkpt>
      <trkpt lat="45.15395" lon="5.62766">
        <ele>1288.7</ele>
        <time>2021-08-30T13:23:39Z</time>
      </trkpt>
      <trkpt lat="45.15392" lon="5.62765">
        <ele>1288.7</ele>
        <time>2021-08-30T13:23:40Z</time>
      </trkpt>
      <trkpt lat="45.15389" lon="5.62764">
        <ele>1288.6</ele>
        <time>2021-08-30T13:23:41Z</time>
      </trkpt>
      <trkpt lat="45.15385" lon="5.62763">
        <ele>1288.5</ele>
        <time>2021-08-30T13:23:43Z</time>
      </trkpt>
      <trkpt lat="45.15382" lon="5.62762">
        <ele>1288.5</ele>
        <time>2021-08-30T13:23:44Z</time>
      </trkpt>
      <trkpt lat="45.1538" lon="5.62758">
        <ele>1288.4</ele>
        <time>2021-08-30T13:23:46Z</time>
      </trkpt>
      <trkpt lat="45.15379" lon="5.62753">
        <ele>1288.3</ele>
        <time>2021-08-30T13:23:47Z</time>
      </trkpt>
      <trkpt lat="45.15377" lon="5.62745">
        <ele>1288.2</ele>
        <time>2021-08-30T13:23:49Z</time>
      </trkpt>
      <trkpt lat="45.15374" lon="5.62739">
        <ele>1288</ele>
        <time>2021-08-30T13:23:50Z</time>
      </trkpt>
      <trkpt lat="45.15371" lon="5.62731">
        <ele>1287.8</ele>
        <time>2021-08-30T13:23:51Z</time>
      </trkpt>
      <trkpt lat="45.15367" lon="5.62724">
        <ele>1287.6</ele>
        <time>2021-08-30T13:23:53Z</time>
      </trkpt>
      <trkpt lat="45.15364" lon="5.62719">
        <ele>1287.4</ele>
        <time>2021-08-30T13:23:54Z</time>
      </trkpt>
      <trkpt lat="45.15362" lon="5.62713">
        <ele>1287.2</ele>
        <time>2021-08-30T13:23:55Z</time>
      </trkpt>
      <trkpt lat="45.15361" lon="5.62704">
        <ele>1287</ele>
        <time>2021-08-30T13:23:57Z</time>
      </trkpt>
      <trkpt lat="45.15361" lon="5.627">
        <ele>1286.9</ele>
        <time>2021-08-30T13:23:58Z</time>
      </trkpt>
      <trkpt lat="45.15362" lon="5.62695">
        <ele>1286.7</ele>
        <time>2021-08-30T13:24:00Z</time>
      </trkpt>
      <trkpt lat="45.15362" lon="5.62691">
        <ele>1284.6</ele>
        <time>2021-08-30T13:24:01Z</time>
      </trkpt>
      <trkpt lat="45.15363" lon="5.62685">
        <ele>1283.9</ele>
        <time>2021-08-30T13:24:02Z</time>
      </trkpt>
      <trkpt lat="45.15363" lon="5.62683">
        <ele>1283.7</ele>
        <time>2021-08-30T13:24:03Z</time>
      </trkpt>
      <trkpt lat="45.15365" lon="5.62679">
        <ele>1283.1</ele>
        <time>2021-08-30T13:24:04Z</time>
      </trkpt>
      <trkpt lat="45.15365" lon="5.62678">
        <ele>1283</ele>
        <time>2021-08-30T13:24:05Z</time>
      </trkpt>
      <trkpt lat="45.15364" lon="5.62673">
        <ele>1282.3</ele>
        <time>2021-08-30T13:24:07Z</time>
      </trkpt>
      <trkpt lat="45.15363" lon="5.62672">
        <ele>1282.2</ele>
        <time>2021-08-30T13:24:08Z</time>
      </trkpt>
      <trkpt lat="45.15362" lon="5.62671">
        <ele>1281.9</ele>
        <time>2021-08-30T13:24:09Z</time>
      </trkpt>
      <trkpt lat="45.15362" lon="5.6267">
        <ele>1281.8</ele>
        <time>2021-08-30T13:24:11Z</time>
      </trkpt>
      <trkpt lat="45.15362" lon="5.62669">
        <ele>1281.7</ele>
        <time>2021-08-30T13:24:12Z</time>
      </trkpt>
      <trkpt lat="45.15362" lon="5.62668">
        <ele>1281.5</ele>
        <time>2021-08-30T13:24:14Z</time>
      </trkpt>
      <trkpt lat="45.15362" lon="5.62667">
        <ele>1281.4</ele>
        <time>2021-08-30T13:24:15Z</time>
      </trkpt>
      <trkpt lat="45.15365" lon="5.62664">
        <ele>1280.8</ele>
        <time>2021-08-30T13:24:16Z</time>
      </trkpt>
      <trkpt lat="45.15366" lon="5.62663">
        <ele>1280.6</ele>
        <time>2021-08-30T13:24:17Z</time>
      </trkpt>
      <trkpt lat="45.15371" lon="5.62661">
        <ele>1279.7</ele>
        <time>2021-08-30T13:24:19Z</time>
      </trkpt>
      <trkpt lat="45.15376" lon="5.62661">
        <ele>1278.9</ele>
        <time>2021-08-30T13:24:20Z</time>
      </trkpt>
      <trkpt lat="45.15381" lon="5.62659">
        <ele>1278.1</ele>
        <time>2021-08-30T13:24:21Z</time>
      </trkpt>
      <trkpt lat="45.15385" lon="5.62657">
        <ele>1277.5</ele>
        <time>2021-08-30T13:24:22Z</time>
      </trkpt>
      <trkpt lat="45.15389" lon="5.62658">
        <ele>1276.9</ele>
        <time>2021-08-30T13:24:24Z</time>
      </trkpt>
      <trkpt lat="45.15393" lon="5.62657">
        <ele>1276.4</ele>
        <time>2021-08-30T13:24:25Z</time>
      </trkpt>
      <trkpt lat="45.15397" lon="5.62656">
        <ele>1275.9</ele>
        <time>2021-08-30T13:24:26Z</time>
      </trkpt>
      <trkpt lat="45.15401" lon="5.62654">
        <ele>1275.3</ele>
        <time>2021-08-30T13:24:27Z</time>
      </trkpt>
      <trkpt lat="45.15414" lon="5.62644">
        <ele>1273.5</ele>
        <time>2021-08-30T13:24:29Z</time>
      </trkpt>
      <trkpt lat="45.1542" lon="5.62643">
        <ele>1272.9</ele>
        <time>2021-08-30T13:24:30Z</time>
      </trkpt>
      <trkpt lat="45.15425" lon="5.62644">
        <ele>1272.3</ele>
        <time>2021-08-30T13:24:32Z</time>
      </trkpt>
      <trkpt lat="45.15431" lon="5.62643">
        <ele>1271.6</ele>
        <time>2021-08-30T13:24:33Z</time>
      </trkpt>
      <trkpt lat="45.15438" lon="5.62641">
        <ele>1270.6</ele>
        <time>2021-08-30T13:24:34Z</time>
      </trkpt>
      <trkpt lat="45.15444" lon="5.6264">
        <ele>1269.5</ele>
        <time>2021-08-30T13:24:35Z</time>
      </trkpt>
      <trkpt lat="45.15456" lon="5.62639">
        <ele>1267.2</ele>
        <time>2021-08-30T13:24:37Z</time>
      </trkpt>
      <trkpt lat="45.15466" lon="5.62638">
        <ele>1265.2</ele>
        <time>2021-08-30T13:24:39Z</time>
      </trkpt>
      <trkpt lat="45.15471" lon="5.62637">
        <ele>1265</ele>
        <time>2021-08-30T13:24:40Z</time>
      </trkpt>
      <trkpt lat="45.15474" lon="5.62635">
        <ele>1264.2</ele>
        <time>2021-08-30T13:24:41Z</time>
      </trkpt>
      <trkpt lat="45.1548" lon="5.62634">
        <ele>1262.9</ele>
        <time>2021-08-30T13:24:43Z</time>
      </trkpt>
      <trkpt lat="45.15481" lon="5.62633">
        <ele>1262.8</ele>
        <time>2021-08-30T13:24:44Z</time>
      </trkpt>
      <trkpt lat="45.15481" lon="5.62632">
        <ele>1262.6</ele>
        <time>2021-08-30T13:24:45Z</time>
      </trkpt>
      <trkpt lat="45.15481" lon="5.62631">
        <ele>1262.4</ele>
        <time>2021-08-30T13:24:46Z</time>
      </trkpt>
      <trkpt lat="45.15482" lon="5.6263">
        <ele>1262.2</ele>
        <time>2021-08-30T13:24:47Z</time>
      </trkpt>
      <trkpt lat="45.15484" lon="5.62629">
        <ele>1261.8</ele>
        <time>2021-08-30T13:24:49Z</time>
      </trkpt>
      <trkpt lat="45.15485" lon="5.62629">
        <ele>1261.7</ele>
        <time>2021-08-30T13:24:51Z</time>
      </trkpt>
      <trkpt lat="45.15486" lon="5.62628">
        <ele>1261.5</ele>
        <time>2021-08-30T13:24:52Z</time>
      </trkpt>
      <trkpt lat="45.15487" lon="5.62628">
        <ele>1261.3</ele>
        <time>2021-08-30T13:24:53Z</time>
      </trkpt>
      <trkpt lat="45.15536" lon="5.62336">
        <ele>1224.2</ele>
        <time>2021-08-30T13:25:49Z</time>
      </trkpt>
      <trkpt lat="45.15534" lon="5.62329">
        <ele>1223.3</ele>
        <time>2021-08-30T13:25:51Z</time>
      </trkpt>
      <trkpt lat="45.15533" lon="5.62327">
        <ele>1222.9</ele>
        <time>2021-08-30T13:25:52Z</time>
      </trkpt>
      <trkpt lat="45.15532" lon="5.62325">
        <ele>1222.6</ele>
        <time>2021-08-30T13:25:53Z</time>
      </trkpt>
      <trkpt lat="45.1553" lon="5.62316">
        <ele>1221.3</ele>
        <time>2021-08-30T13:25:54Z</time>
      </trkpt>
      <trkpt lat="45.15527" lon="5.6231">
        <ele>1220.4</ele>
        <time>2021-08-30T13:25:55Z</time>
      </trkpt>
      <trkpt lat="45.15526" lon="5.62306">
        <ele>1219.9</ele>
        <time>2021-08-30T13:25:56Z</time>
      </trkpt>
      <trkpt lat="45.15526" lon="5.62304">
        <ele>1219.6</ele>
        <time>2021-08-30T13:25:58Z</time>
      </trkpt>
      <trkpt lat="45.15525" lon="5.62302">
        <ele>1219.3</ele>
        <time>2021-08-30T13:25:59Z</time>
      </trkpt>
      <trkpt lat="45.15525" lon="5.623">
        <ele>1219.1</ele>
        <time>2021-08-30T13:26:00Z</time>
      </trkpt>
      <trkpt lat="45.15523" lon="5.62297">
        <ele>1218.5</ele>
        <time>2021-08-30T13:26:02Z</time>
      </trkpt>
      <trkpt lat="45.15522" lon="5.62294">
        <ele>1218</ele>
        <time>2021-08-30T13:26:03Z</time>
      </trkpt>
      <trkpt lat="45.15522" lon="5.62293">
        <ele>1217.9</ele>
        <time>2021-08-30T13:26:04Z</time>
      </trkpt>
      <trkpt lat="45.15522" lon="5.62292">
        <ele>1217.8</ele>
        <time>2021-08-30T13:26:05Z</time>
      </trkpt>
      <trkpt lat="45.15522" lon="5.62291">
        <ele>1217.6</ele>
        <time>2021-08-30T13:26:07Z</time>
      </trkpt>
      <trkpt lat="45.15523" lon="5.6229">
        <ele>1217.4</ele>
        <time>2021-08-30T13:26:08Z</time>
      </trkpt>
      <trkpt lat="45.15524" lon="5.62285">
        <ele>1216.7</ele>
        <time>2021-08-30T13:26:10Z</time>
      </trkpt>
      <trkpt lat="45.15524" lon="5.62283">
        <ele>1216.4</ele>
        <time>2021-08-30T13:26:11Z</time>
      </trkpt>
      <trkpt lat="45.15526" lon="5.6228">
        <ele>1215.9</ele>
        <time>2021-08-30T13:26:13Z</time>
      </trkpt>
      <trkpt lat="45.15596" lon="5.62219">
        <ele>1196.4</ele>
        <time>2021-08-30T13:26:47Z</time>
      </trkpt>
      <trkpt lat="45.15597" lon="5.62218">
        <ele>1196.1</ele>
        <time>2021-08-30T13:26:49Z</time>
      </trkpt>
      <trkpt lat="45.15597" lon="5.62218">
        <ele>1196.1</ele>
        <time>2021-08-30T13:26:50Z</time>
      </trkpt>
      <trkpt lat="45.15597" lon="5.62218">
        <ele>1196</ele>
        <time>2021-08-30T13:26:52Z</time>
      </trkpt>
      <trkpt lat="45.15596" lon="5.62218">
        <ele>1195.9</ele>
        <time>2021-08-30T13:26:53Z</time>
      </trkpt>
      <trkpt lat="45.15595" lon="5.62219">
        <ele>1195.7</ele>
        <time>2021-08-30T13:26:55Z</time>
      </trkpt>
      <trkpt lat="45.15595" lon="5.62219">
        <ele>1195.6</ele>
        <time>2021-08-30T13:26:56Z</time>
      </trkpt>
      <trkpt lat="45.15594" lon="5.62219">
        <ele>1195.5</ele>
        <time>2021-08-30T13:26:58Z</time>
      </trkpt>
      <trkpt lat="45.15594" lon="5.62219">
        <ele>1195.5</ele>
        <time>2021-08-30T13:26:59Z</time>
      </trkpt>
      <trkpt lat="45.15594" lon="5.6222">
        <ele>1195.4</ele>
        <time>2021-08-30T13:27:00Z</time>
      </trkpt>
      <trkpt lat="45.15594" lon="5.62222">
        <ele>1195.2</ele>
        <time>2021-08-30T13:27:02Z</time>
      </trkpt>
      <trkpt lat="45.15594" lon="5.62223">
        <ele>1195</ele>
        <time>2021-08-30T13:27:03Z</time>
      </trkpt>
      <trkpt lat="45.15595" lon="5.62224">
        <ele>1194.8</ele>
        <time>2021-08-30T13:27:05Z</time>
      </trkpt>
      <trkpt lat="45.15595" lon="5.62226">
        <ele>1194.6</ele>
        <time>2021-08-30T13:27:06Z</time>
      </trkpt>
      <trkpt lat="45.15597" lon="5.6223">
        <ele>1194</ele>
        <time>2021-08-30T13:27:07Z</time>
      </trkpt>
      <trkpt lat="45.15599" lon="5.62232">
        <ele>1193.7</ele>
        <time>2021-08-30T13:27:09Z</time>
      </trkpt>
      <trkpt lat="45.15599" lon="5.62233">
        <ele>1193.6</ele>
        <time>2021-08-30T13:27:10Z</time>
      </trkpt>
      <trkpt lat="45.15599" lon="5.62232">
        <ele>1193.6</ele>
        <time>2021-08-30T13:27:12Z</time>
      </trkpt>
      <trkpt lat="45.15599" lon="5.62232">
        <ele>1193.5</ele>
        <time>2021-08-30T13:27:13Z</time>
      </trkpt>
      <trkpt lat="45.15599" lon="5.62232">
        <ele>1193.5</ele>
        <time>2021-08-30T13:27:15Z</time>
      </trkpt>
      <trkpt lat="45.15599" lon="5.62232">
        <ele>1193.5</ele>
        <time>2021-08-30T13:27:16Z</time>
      </trkpt>
      <trkpt lat="45.15599" lon="5.62232">
        <ele>1193.4</ele>
        <time>2021-08-30T13:27:17Z</time>
      </trkpt>
      <trkpt lat="45.15602" lon="5.62235">
        <ele>1192.8</ele>
        <time>2021-08-30T13:27:19Z</time>
      </trkpt>
      <trkpt lat="45.15603" lon="5.62237">
        <ele>1192.6</ele>
        <time>2021-08-30T13:27:20Z</time>
      </trkpt>
      <trkpt lat="45.15606" lon="5.62235">
        <ele>1192.1</ele>
        <time>2021-08-30T13:27:22Z</time>
      </trkpt>
      <trkpt lat="45.1561" lon="5.62233">
        <ele>1191.5</ele>
        <time>2021-08-30T13:27:23Z</time>
      </trkpt>
      <trkpt lat="45.15613" lon="5.6223">
        <ele>1190.8</ele>
        <time>2021-08-30T13:27:24Z</time>
      </trkpt>
      <trkpt lat="45.15617" lon="5.62224">
        <ele>1189.8</ele>
        <time>2021-08-30T13:27:26Z</time>
      </trkpt>
      <trkpt lat="45.15619" lon="5.6222">
        <ele>1189.2</ele>
        <time>2021-08-30T13:27:27Z</time>
      </trkpt>
      <trkpt lat="45.15621" lon="5.62214">
        <ele>1188.3</ele>
        <time>2021-08-30T13:27:28Z</time>
      </trkpt>
      <trkpt lat="45.15624" lon="5.62208">
        <ele>1187.4</ele>
        <time>2021-08-30T13:27:30Z</time>
      </trkpt>
      <trkpt lat="45.15628" lon="5.62198">
        <ele>1185.6</ele>
        <time>2021-08-30T13:27:31Z</time>
      </trkpt>
      <trkpt lat="45.1563" lon="5.6219">
        <ele>1184.4</ele>
        <time>2021-08-30T13:27:33Z</time>
      </trkpt>
      <trkpt lat="45.15631" lon="5.62179">
        <ele>1182.7</ele>
        <time>2021-08-30T13:27:34Z</time>
      </trkpt>
      <trkpt lat="45.15631" lon="5.62174">
        <ele>1182</ele>
        <time>2021-08-30T13:27:36Z</time>
      </trkpt>
      <trkpt lat="45.15629" lon="5.62163">
        <ele>1180.2</ele>
        <time>2021-08-30T13:27:37Z</time>
      </trkpt>
      <trkpt lat="45.15626" lon="5.62144">
        <ele>1177.4</ele>
        <time>2021-08-30T13:27:38Z</time>
      </trkpt>
      <trkpt lat="45.15625" lon="5.62137">
        <ele>1176.2</ele>
        <time>2021-08-30T13:27:39Z</time>
      </trkpt>
      <trkpt lat="45.15624" lon="5.6213">
        <ele>1175</ele>
        <time>2021-08-30T13:27:41Z</time>
      </trkpt>
      <trkpt lat="45.15624" lon="5.6212">
        <ele>1173.6</ele>
        <time>2021-08-30T13:27:42Z</time>
      </trkpt>
      <trkpt lat="45.15623" lon="5.62113">
        <ele>1172.6</ele>
        <time>2021-08-30T13:27:43Z</time>
      </trkpt>
      <trkpt lat="45.15623" lon="5.62106">
        <ele>1171.5</ele>
        <time>2021-08-30T13:27:44Z</time>
      </trkpt>
      <trkpt lat="45.15624" lon="5.62097">
        <ele>1170</ele>
        <time>2021-08-30T13:27:45Z</time>
      </trkpt>
      <trkpt lat="45.15624" lon="5.62087">
        <ele>1168.3</ele>
        <time>2021-08-30T13:27:47Z</time>
      </trkpt>
      <trkpt lat="45.15623" lon="5.62074">
        <ele>1165.9</ele>
        <time>2021-08-30T13:27:49Z</time>
      </trkpt>
      <trkpt lat="45.15622" lon="5.62068">
        <ele>1164.5</ele>
        <time>2021-08-30T13:27:50Z</time>
      </trkpt>
      <trkpt lat="45.15619" lon="5.62062">
        <ele>1162.8</ele>
        <time>2021-08-30T13:27:51Z</time>
      </trkpt>
      <trkpt lat="45.15616" lon="5.62058">
        <ele>1161.5</ele>
        <time>2021-08-30T13:27:53Z</time>
      </trkpt>
      <trkpt lat="45.15616" lon="5.62057">
        <ele>1161.4</ele>
        <time>2021-08-30T13:27:54Z</time>
      </trkpt>
      <trkpt lat="45.15617" lon="5.62056">
        <ele>1160.9</ele>
        <time>2021-08-30T13:27:56Z</time>
      </trkpt>
      <trkpt lat="45.15618" lon="5.62055">
        <ele>1160.3</ele>
        <time>2021-08-30T13:27:58Z</time>
      </trkpt>
      <trkpt lat="45.1562" lon="5.62055">
        <ele>1159.8</ele>
        <time>2021-08-30T13:27:59Z</time>
      </trkpt>
      <trkpt lat="45.15623" lon="5.62053">
        <ele>1158.8</ele>
        <time>2021-08-30T13:28:01Z</time>
      </trkpt>
      <trkpt lat="45.15632" lon="5.61929">
        <ele>1136</ele>
        <time>2021-08-30T13:28:44Z</time>
      </trkpt>
      <trkpt lat="45.15633" lon="5.61919">
        <ele>1135.1</ele>
        <time>2021-08-30T13:28:45Z</time>
      </trkpt>
      <trkpt lat="45.15633" lon="5.61914">
        <ele>1134.8</ele>
        <time>2021-08-30T13:28:47Z</time>
      </trkpt>
      <trkpt lat="45.15632" lon="5.6191">
        <ele>1134.7</ele>
        <time>2021-08-30T13:28:48Z</time>
      </trkpt>
      <trkpt lat="45.1563" lon="5.61906">
        <ele>1134.7</ele>
        <time>2021-08-30T13:28:50Z</time>
      </trkpt>
      <trkpt lat="45.15628" lon="5.61905">
        <ele>1134.7</ele>
        <time>2021-08-30T13:28:51Z</time>
      </trkpt>
      <trkpt lat="45.15623" lon="5.61905">
        <ele>1134.7</ele>
        <time>2021-08-30T13:28:53Z</time>
      </trkpt>
      <trkpt lat="45.15621" lon="5.61906">
        <ele>1134.6</ele>
        <time>2021-08-30T13:28:54Z</time>
      </trkpt>
      <trkpt lat="45.15619" lon="5.61907">
        <ele>1134.6</ele>
        <time>2021-08-30T13:28:55Z</time>
      </trkpt>
      <trkpt lat="45.15616" lon="5.6191">
        <ele>1134.6</ele>
        <time>2021-08-30T13:28:57Z</time>
      </trkpt>
      <trkpt lat="45.15615" lon="5.61915">
        <ele>1134.5</ele>
        <time>2021-08-30T13:28:58Z</time>
      </trkpt>
      <trkpt lat="45.15614" lon="5.61916">
        <ele>1134.5</ele>
        <time>2021-08-30T13:28:59Z</time>
      </trkpt>
      <trkpt lat="45.15614" lon="5.61917">
        <ele>1134.5</ele>
        <time>2021-08-30T13:29:01Z</time>
      </trkpt>
      <trkpt lat="45.15614" lon="5.61917">
        <ele>1134.5</ele>
        <time>2021-08-30T13:29:02Z</time>
      </trkpt>
      <trkpt lat="45.15617" lon="5.61918">
        <ele>1134.5</ele>
        <time>2021-08-30T13:29:03Z</time>
      </trkpt>
      <trkpt lat="45.1562" lon="5.61917">
        <ele>1134.4</ele>
        <time>2021-08-30T13:29:04Z</time>
      </trkpt>
      <trkpt lat="45.15622" lon="5.61912">
        <ele>1134.4</ele>
        <time>2021-08-30T13:29:06Z</time>
      </trkpt>
      <trkpt lat="45.15624" lon="5.61907">
        <ele>1134.3</ele>
        <time>2021-08-30T13:29:07Z</time>
      </trkpt>
      <trkpt lat="45.15624" lon="5.61903">
        <ele>1134.3</ele>
        <time>2021-08-30T13:29:09Z</time>
      </trkpt>
      <trkpt lat="45.1562" lon="5.61898">
        <ele>1134.2</ele>
        <time>2021-08-30T13:29:11Z</time>
      </trkpt>
      <trkpt lat="45.15615" lon="5.61898">
        <ele>1134.1</ele>
        <time>2021-08-30T13:29:12Z</time>
      </trkpt>
      <trkpt lat="45.15613" lon="5.61898">
        <ele>1134.1</ele>
        <time>2021-08-30T13:29:13Z</time>
      </trkpt>
      <trkpt lat="45.15609" lon="5.619">
        <ele>1133.8</ele>
        <time>2021-08-30T13:29:15Z</time>
      </trkpt>
      <trkpt lat="45.15608" lon="5.61901">
        <ele>1133.6</ele>
        <time>2021-08-30T13:29:16Z</time>
      </trkpt>
      <trkpt lat="45.15606" lon="5.619">
        <ele>1133.5</ele>
        <time>2021-08-30T13:29:18Z</time>
      </trkpt>
      <trkpt lat="45.15603" lon="5.61898">
        <ele>1133.2</ele>
        <time>2021-08-30T13:29:20Z</time>
      </trkpt>
      <trkpt lat="45.15601" lon="5.61897">
        <ele>1132.9</ele>
        <time>2021-08-30T13:29:22Z</time>
      </trkpt>
      <trkpt lat="45.15601" lon="5.61899">
        <ele>1132.8</ele>
        <time>2021-08-30T13:29:23Z</time>
      </trkpt>
      <trkpt lat="45.156" lon="5.619">
        <ele>1132.7</ele>
        <time>2021-08-30T13:29:24Z</time>
      </trkpt>
      <trkpt lat="45.156" lon="5.61902">
        <ele>1132.6</ele>
        <time>2021-08-30T13:29:25Z</time>
      </trkpt>
      <trkpt lat="45.15599" lon="5.61904">
        <ele>1132.4</ele>
        <time>2021-08-30T13:29:26Z</time>
      </trkpt>
      <trkpt lat="45.15598" lon="5.61905">
        <ele>1132.3</ele>
        <time>2021-08-30T13:29:27Z</time>
      </trkpt>
      <trkpt lat="45.15597" lon="5.61906">
        <ele>1132.2</ele>
        <time>2021-08-30T13:29:28Z</time>
      </trkpt>
      <trkpt lat="45.15589" lon="5.6191">
        <ele>1131.3</ele>
        <time>2021-08-30T13:29:29Z</time>
      </trkpt>
      <trkpt lat="45.15582" lon="5.61913">
        <ele>1130.7</ele>
        <time>2021-08-30T13:29:31Z</time>
      </trkpt>
      <trkpt lat="45.15575" lon="5.61916">
        <ele>1130</ele>
        <time>2021-08-30T13:29:33Z</time>
      </trkpt>
      <trkpt lat="45.15556" lon="5.61924">
        <ele>1128.5</ele>
        <time>2021-08-30T13:29:35Z</time>
      </trkpt>
      <trkpt lat="45.15548" lon="5.61926">
        <ele>1127.9</ele>
        <time>2021-08-30T13:29:36Z</time>
      </trkpt>
      <trkpt lat="45.1554" lon="5.61929">
        <ele>1127.2</ele>
        <time>2021-08-30T13:29:37Z</time>
      </trkpt>
      <trkpt lat="45.15525" lon="5.61935">
        <ele>1125.9</ele>
        <time>2021-08-30T13:29:39Z</time>
      </trkpt>
      <trkpt lat="45.15512" lon="5.61941">
        <ele>1124.7</ele>
        <time>2021-08-30T13:29:41Z</time>
      </trkpt>
      <trkpt lat="45.15499" lon="5.61946">
        <ele>1123.6</ele>
        <time>2021-08-30T13:29:43Z</time>
      </trkpt>
      <trkpt lat="45.15493" lon="5.61948">
        <ele>1123.1</ele>
        <time>2021-08-30T13:29:44Z</time>
      </trkpt>
      <trkpt lat="45.1548" lon="5.6195">
        <ele>1121.9</ele>
        <time>2021-08-30T13:29:46Z</time>
      </trkpt>
      <trkpt lat="45.15466" lon="5.61949">
        <ele>1120.6</ele>
        <time>2021-08-30T13:29:48Z</time>
      </trkpt>
      <trkpt lat="45.15451" lon="5.61945">
        <ele>1119.2</ele>
        <time>2021-08-30T13:29:50Z</time>
      </trkpt>
      <trkpt lat="45.15435" lon="5.61939">
        <ele>1117.8</ele>
        <time>2021-08-30T13:29:52Z</time>
      </trkpt>
      <trkpt lat="45.15426" lon="5.61935">
        <ele>1116.9</ele>
        <time>2021-08-30T13:29:53Z</time>
      </trkpt>
      <trkpt lat="45.1541" lon="5.61928">
        <ele>1115</ele>
        <time>2021-08-30T13:29:55Z</time>
      </trkpt>
      <trkpt lat="45.15403" lon="5.61923">
        <ele>1114.2</ele>
        <time>2021-08-30T13:29:56Z</time>
      </trkpt>
      <trkpt lat="45.15397" lon="5.6191">
        <ele>1112.8</ele>
        <time>2021-08-30T13:29:58Z</time>
      </trkpt>
      <trkpt lat="45.15393" lon="5.61904">
        <ele>1112.2</ele>
        <time>2021-08-30T13:29:59Z</time>
      </trkpt>
      <trkpt lat="45.15383" lon="5.61892">
        <ele>1110.2</ele>
        <time>2021-08-30T13:30:01Z</time>
      </trkpt>
      <trkpt lat="45.15375" lon="5.61887">
        <ele>1109</ele>
        <time>2021-08-30T13:30:02Z</time>
      </trkpt>
      <trkpt lat="45.15368" lon="5.61883">
        <ele>1107.8</ele>
        <time>2021-08-30T13:30:03Z</time>
      </trkpt>
      <trkpt lat="45.15353" lon="5.61873">
        <ele>1105.7</ele>
        <time>2021-08-30T13:30:05Z</time>
      </trkpt>
      <trkpt lat="45.15346" lon="5.61868">
        <ele>1104.6</ele>
        <time>2021-08-30T13:30:06Z</time>
      </trkpt>
      <trkpt lat="45.15337" lon="5.61863">
        <ele>1103.4</ele>
        <time>2021-08-30T13:30:07Z</time>
      </trkpt>
      <trkpt lat="45.15318" lon="5.61856">
        <ele>1100.9</ele>
        <time>2021-08-30T13:30:09Z</time>
      </trkpt>
      <trkpt lat="45.15307" lon="5.61855">
        <ele>1099.6</ele>
        <time>2021-08-30T13:30:10Z</time>
      </trkpt>
      <trkpt lat="45.15295" lon="5.61855">
        <ele>1098.4</ele>
        <time>2021-08-30T13:30:11Z</time>
      </trkpt>
      <trkpt lat="45.15273" lon="5.61854">
        <ele>1096.2</ele>
        <time>2021-08-30T13:30:13Z</time>
      </trkpt>
      <trkpt lat="45.15262" lon="5.61854">
        <ele>1095.1</ele>
        <time>2021-08-30T13:30:14Z</time>
      </trkpt>
      <trkpt lat="45.1524" lon="5.61855">
        <ele>1093.1</ele>
        <time>2021-08-30T13:30:16Z</time>
      </trkpt>
      <trkpt lat="45.15227" lon="5.61857">
        <ele>1092</ele>
        <time>2021-08-30T13:30:17Z</time>
      </trkpt>
      <trkpt lat="45.15215" lon="5.61857">
        <ele>1091</ele>
        <time>2021-08-30T13:30:18Z</time>
      </trkpt>
      <trkpt lat="45.15192" lon="5.61861">
        <ele>1088.7</ele>
        <time>2021-08-30T13:30:20Z</time>
      </trkpt>
      <trkpt lat="45.15169" lon="5.61867">
        <ele>1086.2</ele>
        <time>2021-08-30T13:30:22Z</time>
      </trkpt>
      <trkpt lat="45.15156" lon="5.61863">
        <ele>1084.6</ele>
        <time>2021-08-30T13:30:23Z</time>
      </trkpt>
      <trkpt lat="45.15141" lon="5.61863">
        <ele>1083.1</ele>
        <time>2021-08-30T13:30:24Z</time>
      </trkpt>
      <trkpt lat="45.15116" lon="5.61872">
        <ele>1080.4</ele>
        <time>2021-08-30T13:30:26Z</time>
      </trkpt>
      <trkpt lat="45.15097" lon="5.61884">
        <ele>1078.5</ele>
        <time>2021-08-30T13:30:28Z</time>
      </trkpt>
      <trkpt lat="45.15083" lon="5.61893">
        <ele>1077.2</ele>
        <time>2021-08-30T13:30:30Z</time>
      </trkpt>
      <trkpt lat="45.15071" lon="5.61898">
        <ele>1076.3</ele>
        <time>2021-08-30T13:30:32Z</time>
      </trkpt>
      <trkpt lat="45.15061" lon="5.61902">
        <ele>1076.1</ele>
        <time>2021-08-30T13:30:34Z</time>
      </trkpt>
      <trkpt lat="45.15056" lon="5.61909">
        <ele>1075.8</ele>
        <time>2021-08-30T13:30:35Z</time>
      </trkpt>
      <trkpt lat="45.15051" lon="5.61917">
        <ele>1075.5</ele>
        <time>2021-08-30T13:30:36Z</time>
      </trkpt>
      <trkpt lat="45.1504" lon="5.6193">
        <ele>1075.1</ele>
        <time>2021-08-30T13:30:38Z</time>
      </trkpt>
      <trkpt lat="45.1503" lon="5.61937">
        <ele>1074.7</ele>
        <time>2021-08-30T13:30:40Z</time>
      </trkpt>
      <trkpt lat="45.15025" lon="5.61939">
        <ele>1074.5</ele>
        <time>2021-08-30T13:30:41Z</time>
      </trkpt>
      <trkpt lat="45.15021" lon="5.6194">
        <ele>1074.3</ele>
        <time>2021-08-30T13:30:42Z</time>
      </trkpt>
      <trkpt lat="45.15011" lon="5.61938">
        <ele>1073.7</ele>
        <time>2021-08-30T13:30:44Z</time>
      </trkpt>
      <trkpt lat="45.15006" lon="5.61937">
        <ele>1073.3</ele>
        <time>2021-08-30T13:30:45Z</time>
      </trkpt>
      <trkpt lat="45.15001" lon="5.61935">
        <ele>1072.8</ele>
        <time>2021-08-30T13:30:46Z</time>
      </trkpt>
      <trkpt lat="45.14991" lon="5.6193">
        <ele>1071.7</ele>
        <time>2021-08-30T13:30:48Z</time>
      </trkpt>
      <trkpt lat="45.14977" lon="5.61928">
        <ele>1070.1</ele>
        <time>2021-08-30T13:30:50Z</time>
      </trkpt>
      <trkpt lat="45.14968" lon="5.61929">
        <ele>1069</ele>
        <time>2021-08-30T13:30:51Z</time>
      </trkpt>
      <trkpt lat="45.14954" lon="5.61934">
        <ele>1067.4</ele>
        <time>2021-08-30T13:30:53Z</time>
      </trkpt>
      <trkpt lat="45.14944" lon="5.61936">
        <ele>1066.1</ele>
        <time>2021-08-30T13:30:54Z</time>
      </trkpt>
      <trkpt lat="45.14923" lon="5.61942">
        <ele>1064.2</ele>
        <time>2021-08-30T13:30:56Z</time>
      </trkpt>
      <trkpt lat="45.14902" lon="5.61948">
        <ele>1064</ele>
        <time>2021-08-30T13:30:58Z</time>
      </trkpt>
      <trkpt lat="45.14893" lon="5.61949">
        <ele>1064</ele>
        <time>2021-08-30T13:30:59Z</time>
      </trkpt>
      <trkpt lat="45.14884" lon="5.61949">
        <ele>1064</ele>
        <time>2021-08-30T13:31:00Z</time>
      </trkpt>
      <trkpt lat="45.14875" lon="5.61952">
        <ele>1064.1</ele>
        <time>2021-08-30T13:31:01Z</time>
      </trkpt>
      <trkpt lat="45.14868" lon="5.61957">
        <ele>1064.1</ele>
        <time>2021-08-30T13:31:02Z</time>
      </trkpt>
      <trkpt lat="45.14862" lon="5.61958">
        <ele>1064.1</ele>
        <time>2021-08-30T13:31:04Z</time>
      </trkpt>
      <trkpt lat="45.14861" lon="5.61962">
        <ele>1064.1</ele>
        <time>2021-08-30T13:31:05Z</time>
      </trkpt>
      <trkpt lat="45.14858" lon="5.61965">
        <ele>1064.1</ele>
        <time>2021-08-30T13:31:07Z</time>
      </trkpt>
      <trkpt lat="45.14856" lon="5.61966">
        <ele>1064.1</ele>
        <time>2021-08-30T13:31:08Z</time>
      </trkpt>
      <trkpt lat="45.1485" lon="5.61969">
        <ele>1064.1</ele>
        <time>2021-08-30T13:31:09Z</time>
      </trkpt>
      <trkpt lat="45.14846" lon="5.6197">
        <ele>1064.1</ele>
        <time>2021-08-30T13:31:11Z</time>
      </trkpt>
      <trkpt lat="45.14845" lon="5.6197">
        <ele>1064.1</ele>
        <time>2021-08-30T13:31:13Z</time>
      </trkpt>
      <trkpt lat="45.14833" lon="5.61982">
        <ele>1063.7</ele>
        <time>2021-08-30T13:35:03Z</time>
      </trkpt>
      <trkpt lat="45.14838" lon="5.61984">
        <ele>1063.4</ele>
        <time>2021-08-30T13:35:05Z</time>
      </trkpt>
      <trkpt lat="45.14834" lon="5.61984">
        <ele>1063.2</ele>
        <time>2021-08-30T13:35:07Z</time>
      </trkpt>
      <trkpt lat="45.1483" lon="5.61984">
        <ele>1062.8</ele>
        <time>2021-08-30T13:35:08Z</time>
      </trkpt>
      <trkpt lat="45.14825" lon="5.61983">
        <ele>1062.5</ele>
        <time>2021-08-30T13:35:10Z</time>
      </trkpt>
      <trkpt lat="45.14821" lon="5.61983">
        <ele>1062</ele>
        <time>2021-08-30T13:35:11Z</time>
      </trkpt>
      <trkpt lat="45.14816" lon="5.61983">
        <ele>1061.6</ele>
        <time>2021-08-30T13:35:13Z</time>
      </trkpt>
      <trkpt lat="45.14811" lon="5.61983">
        <ele>1061.1</ele>
        <time>2021-08-30T13:35:14Z</time>
      </trkpt>
      <trkpt lat="45.14807" lon="5.61982">
        <ele>1060.6</ele>
        <time>2021-08-30T13:35:16Z</time>
      </trkpt>
      <trkpt lat="45.14802" lon="5.61982">
        <ele>1060.1</ele>
        <time>2021-08-30T13:52:48Z</time>
      </trkpt>
      <trkpt lat="45.14798" lon="5.61982">
        <ele>1059.6</ele>
        <time>2021-08-30T13:52:49Z</time>
      </trkpt>
      <trkpt lat="45.14788" lon="5.61984">
        <ele>1058.5</ele>
        <time>2021-08-30T13:52:50Z</time>
      </trkpt>
      <trkpt lat="45.14773" lon="5.61987">
        <ele>1056.8</ele>
        <time>2021-08-30T13:52:52Z</time>
      </trkpt>
      <trkpt lat="45.14763" lon="5.61989">
        <ele>1055.6</ele>
        <time>2021-08-30T13:52:54Z</time>
      </trkpt>
      <trkpt lat="45.14758" lon="5.61991">
        <ele>1055</ele>
        <time>2021-08-30T13:52:56Z</time>
      </trkpt>
      <trkpt lat="45.1475" lon="5.61994">
        <ele>1054.2</ele>
        <time>2021-08-30T13:52:57Z</time>
      </trkpt>
      <trkpt lat="45.14746" lon="5.61995">
        <ele>1053.6</ele>
        <time>2021-08-30T13:52:58Z</time>
      </trkpt>
      <trkpt lat="45.14741" lon="5.61992">
        <ele>1053.3</ele>
        <time>2021-08-30T13:52:59Z</time>
      </trkpt>
      <trkpt lat="45.14733" lon="5.61994">
        <ele>1052.8</ele>
        <time>2021-08-30T13:53:01Z</time>
      </trkpt>
      <trkpt lat="45.14728" lon="5.61997">
        <ele>1052.5</ele>
        <time>2021-08-30T13:53:03Z</time>
      </trkpt>
      <trkpt lat="45.14726" lon="5.61998">
        <ele>1052.4</ele>
        <time>2021-08-30T13:53:04Z</time>
      </trkpt>
      <trkpt lat="45.14724" lon="5.61999">
        <ele>1052.3</ele>
        <time>2021-08-30T13:53:05Z</time>
      </trkpt>
      <trkpt lat="45.1472" lon="5.61999">
        <ele>1052.1</ele>
        <time>2021-08-30T13:53:07Z</time>
      </trkpt>
      <trkpt lat="45.14717" lon="5.61999">
        <ele>1052</ele>
        <time>2021-08-30T13:53:08Z</time>
      </trkpt>
      <trkpt lat="45.14714" lon="5.61999">
        <ele>1051.8</ele>
        <time>2021-08-30T13:53:09Z</time>
      </trkpt>
      <trkpt lat="45.14713" lon="5.61999">
        <ele>1051.8</ele>
        <time>2021-08-30T13:53:10Z</time>
      </trkpt>
      <trkpt lat="45.14711" lon="5.61999">
        <ele>1051.8</ele>
        <time>2021-08-30T13:53:12Z</time>
      </trkpt>
      <trkpt lat="45.14554" lon="5.61659">
        <ele>1038.9</ele>
        <time>2021-08-30T13:54:13Z</time>
      </trkpt>
      <trkpt lat="45.14546" lon="5.6165">
        <ele>1038.8</ele>
        <time>2021-08-30T13:54:14Z</time>
      </trkpt>
      <trkpt lat="45.14529" lon="5.61638">
        <ele>1038.5</ele>
        <time>2021-08-30T13:54:16Z</time>
      </trkpt>
      <trkpt lat="45.14513" lon="5.61627">
        <ele>1038.2</ele>
        <time>2021-08-30T13:54:18Z</time>
      </trkpt>
      <trkpt lat="45.14511" lon="5.61624">
        <ele>1038.2</ele>
        <time>2021-08-30T13:54:19Z</time>
      </trkpt>
      <trkpt lat="45.14509" lon="5.61623">
        <ele>1038.2</ele>
        <time>2021-08-30T13:54:20Z</time>
      </trkpt>
      <trkpt lat="45.14506" lon="5.6162">
        <ele>1038.2</ele>
        <time>2021-08-30T13:54:22Z</time>
      </trkpt>
      <trkpt lat="45.14484" lon="5.616">
        <ele>1038.5</ele>
        <time>2021-08-30T13:54:23Z</time>
      </trkpt>
      <trkpt lat="45.1448" lon="5.61595">
        <ele>1038.6</ele>
        <time>2021-08-30T13:54:24Z</time>
      </trkpt>
      <trkpt lat="45.14471" lon="5.61574">
        <ele>1039.2</ele>
        <time>2021-08-30T13:54:26Z</time>
      </trkpt>
      <trkpt lat="45.14466" lon="5.61562">
        <ele>1039.6</ele>
        <time>2021-08-30T13:54:28Z</time>
      </trkpt>
      <trkpt lat="45.14468" lon="5.61561">
        <ele>1039.7</ele>
        <time>2021-08-30T13:54:29Z</time>
      </trkpt>
      <trkpt lat="45.14469" lon="5.61559">
        <ele>1039.8</ele>
        <time>2021-08-30T13:54:30Z</time>
      </trkpt>
      <trkpt lat="45.14469" lon="5.61558">
        <ele>1039.8</ele>
        <time>2021-08-30T13:54:32Z</time>
      </trkpt>
      <trkpt lat="45.14468" lon="5.61556">
        <ele>1039.9</ele>
        <time>2021-08-30T13:54:33Z</time>
      </trkpt>
      <trkpt lat="45.14468" lon="5.61555">
        <ele>1039.9</ele>
        <time>2021-08-30T13:54:34Z</time>
      </trkpt>
      <trkpt lat="45.14467" lon="5.61554">
        <ele>1040</ele>
        <time>2021-08-30T13:54:35Z</time>
      </trkpt>
      <trkpt lat="45.14467" lon="5.61554">
        <ele>1040</ele>
        <time>2021-08-30T13:54:36Z</time>
      </trkpt>
      <trkpt lat="45.14598" lon="5.6111">
        <ele>1071.4</ele>
        <time>2021-08-30T14:00:46Z</time>
      </trkpt>
      <trkpt lat="45.14595" lon="5.61115">
        <ele>1070.7</ele>
        <time>2021-08-30T14:00:47Z</time>
      </trkpt>
      <trkpt lat="45.14592" lon="5.61122">
        <ele>1069.8</ele>
        <time>2021-08-30T14:00:49Z</time>
      </trkpt>
      <trkpt lat="45.14592" lon="5.61117">
        <ele>1069.5</ele>
        <time>2021-08-30T14:00:51Z</time>
      </trkpt>
      <trkpt lat="45.14588" lon="5.61118">
        <ele>1069.2</ele>
        <time>2021-08-30T14:00:53Z</time>
      </trkpt>
      <trkpt lat="45.14585" lon="5.61122">
        <ele>1068.8</ele>
        <time>2021-08-30T14:00:54Z</time>
      </trkpt>
      <trkpt lat="45.14583" lon="5.61126">
        <ele>1068.5</ele>
        <time>2021-08-30T14:00:55Z</time>
      </trkpt>
      <trkpt lat="45.14581" lon="5.61132">
        <ele>1068.1</ele>
        <time>2021-08-30T14:00:57Z</time>
      </trkpt>
      <trkpt lat="45.14577" lon="5.61138">
        <ele>1067.6</ele>
        <time>2021-08-30T14:00:59Z</time>
      </trkpt>
      <trkpt lat="45.14576" lon="5.61132">
        <ele>1067.7</ele>
        <time>2021-08-30T14:01:01Z</time>
      </trkpt>
      <trkpt lat="45.14574" lon="5.61123">
        <ele>1068.1</ele>
        <time>2021-08-30T14:01:03Z</time>
      </trkpt>
      <trkpt lat="45.14573" lon="5.61115">
        <ele>1068</ele>
        <time>2021-08-30T14:01:05Z</time>
      </trkpt>
      <trkpt lat="45.14573" lon="5.61111">
        <ele>1067.9</ele>
        <time>2021-08-30T14:01:06Z</time>
      </trkpt>
      <trkpt lat="45.14573" lon="5.61109">
        <ele>1067.7</ele>
        <time>2021-08-30T14:01:07Z</time>
      </trkpt>
      <trkpt lat="45.14571" lon="5.61107">
        <ele>1068.1</ele>
        <time>2021-08-30T14:01:09Z</time>
      </trkpt>
      <trkpt lat="45.14571" lon="5.61117">
        <ele>1068.3</ele>
        <time>2021-08-30T14:01:11Z</time>
      </trkpt>
      <trkpt lat="45.14571" lon="5.61122">
        <ele>1068.3</ele>
        <time>2021-08-30T14:01:12Z</time>
      </trkpt>
      <trkpt lat="45.14566" lon="5.61112">
        <ele>1069</ele>
        <time>2021-08-30T14:01:14Z</time>
      </trkpt>
      <trkpt lat="45.14557" lon="5.61097">
        <ele>1070.1</ele>
        <time>2021-08-30T14:01:16Z</time>
      </trkpt>
      <trkpt lat="45.14549" lon="5.61091">
        <ele>1070.9</ele>
        <time>2021-08-30T14:01:18Z</time>
      </trkpt>
      <trkpt lat="45.14547" lon="5.6109">
        <ele>1071.5</ele>
        <time>2021-08-30T14:01:19Z</time>
      </trkpt>
      <trkpt lat="45.14544" lon="5.61089">
        <ele>1072.2</ele>
        <time>2021-08-30T14:01:21Z</time>
      </trkpt>
      <trkpt lat="45.14543" lon="5.61089">
        <ele>1072.2</ele>
        <time>2021-08-30T14:01:22Z</time>
      </trkpt>
      <trkpt lat="45.1454" lon="5.61088">
        <ele>1072.9</ele>
        <time>2021-08-30T14:01:24Z</time>
      </trkpt>
      <trkpt lat="45.14538" lon="5.61088">
        <ele>1073.3</ele>
        <time>2021-08-30T14:01:25Z</time>
      </trkpt>
      <trkpt lat="45.14535" lon="5.61088">
        <ele>1074.4</ele>
        <time>2021-08-30T14:01:27Z</time>
      </trkpt>
      <trkpt lat="45.14532" lon="5.61088">
        <ele>1075.2</ele>
        <time>2021-08-30T14:01:28Z</time>
      </trkpt>
      <trkpt lat="45.14529" lon="5.61088">
        <ele>1076.2</ele>
        <time>2021-08-30T14:01:30Z</time>
      </trkpt>
      <trkpt lat="45.14526" lon="5.61089">
        <ele>1077.2</ele>
        <time>2021-08-30T14:01:31Z</time>
      </trkpt>
      <trkpt lat="45.14523" lon="5.6109">
        <ele>1078.2</ele>
        <time>2021-08-30T14:01:33Z</time>
      </trkpt>
      <trkpt lat="45.14522" lon="5.6109">
        <ele>1078.1</ele>
        <time>2021-08-30T14:01:34Z</time>
      </trkpt>
      <trkpt lat="45.14517" lon="5.61089">
        <ele>1080.2</ele>
        <time>2021-08-30T14:01:36Z</time>
      </trkpt>
      <trkpt lat="45.14514" lon="5.61088">
        <ele>1080.8</ele>
        <time>2021-08-30T14:01:38Z</time>
      </trkpt>
      <trkpt lat="45.14511" lon="5.61087">
        <ele>1081.7</ele>
        <time>2021-08-30T14:01:39Z</time>
      </trkpt>
      <trkpt lat="45.14508" lon="5.61087">
        <ele>1082.6</ele>
        <time>2021-08-30T14:01:40Z</time>
      </trkpt>
      <trkpt lat="45.14504" lon="5.61087">
        <ele>1083.6</ele>
        <time>2021-08-30T14:01:42Z</time>
      </trkpt>
      <trkpt lat="45.14502" lon="5.61087">
        <ele>1084.7</ele>
        <time>2021-08-30T14:01:43Z</time>
      </trkpt>
      <trkpt lat="45.14498" lon="5.61089">
        <ele>1086</ele>
        <time>2021-08-30T14:01:44Z</time>
      </trkpt>
      <trkpt lat="45.14497" lon="5.61089">
        <ele>1086</ele>
        <time>2021-08-30T14:01:45Z</time>
      </trkpt>
      <trkpt lat="45.14494" lon="5.6109">
        <ele>1087.1</ele>
        <time>2021-08-30T14:01:47Z</time>
      </trkpt>
      <trkpt lat="45.14489" lon="5.61092">
        <ele>1089.1</ele>
        <time>2021-08-30T14:01:48Z</time>
      </trkpt>
      <trkpt lat="45.14487" lon="5.61093">
        <ele>1090.2</ele>
        <time>2021-08-30T14:01:49Z</time>
      </trkpt>
      <trkpt lat="45.14484" lon="5.61094">
        <ele>1091.2</ele>
        <time>2021-08-30T14:01:51Z</time>
      </trkpt>
      <trkpt lat="45.14481" lon="5.61095">
        <ele>1092.2</ele>
        <time>2021-08-30T14:01:52Z</time>
      </trkpt>
      <trkpt lat="45.14477" lon="5.61094">
        <ele>1093.3</ele>
        <time>2021-08-30T14:01:54Z</time>
      </trkpt>
      <trkpt lat="45.14476" lon="5.61093">
        <ele>1094.5</ele>
        <time>2021-08-30T14:01:55Z</time>
      </trkpt>
      <trkpt lat="45.14474" lon="5.61093">
        <ele>1094.5</ele>
        <time>2021-08-30T14:01:56Z</time>
      </trkpt>
      <trkpt lat="45.14473" lon="5.61092">
        <ele>1095.3</ele>
        <time>2021-08-30T14:01:57Z</time>
      </trkpt>
      <trkpt lat="45.1447" lon="5.61091">
        <ele>1095.3</ele>
        <time>2021-08-30T14:01:59Z</time>
      </trkpt>
      <trkpt lat="45.14467" lon="5.61091">
        <ele>1096.4</ele>
        <time>2021-08-30T14:02:00Z</time>
      </trkpt>
      <trkpt lat="45.14462" lon="5.61089">
        <ele>1098.4</ele>
        <time>2021-08-30T14:02:02Z</time>
      </trkpt>
      <trkpt lat="45.1446" lon="5.61088">
        <ele>1099.3</ele>
        <time>2021-08-30T14:02:03Z</time>
      </trkpt>
      <trkpt lat="45.14458" lon="5.61087">
        <ele>1099</ele>
        <time>2021-08-30T14:02:04Z</time>
      </trkpt>
      <trkpt lat="45.14453" lon="5.61084">
        <ele>1100.5</ele>
        <time>2021-08-30T14:02:06Z</time>
      </trkpt>
      <trkpt lat="45.1445" lon="5.61082">
        <ele>1101.3</ele>
        <time>2021-08-30T14:02:07Z</time>
      </trkpt>
      <trkpt lat="45.14446" lon="5.6108">
        <ele>1102.2</ele>
        <time>2021-08-30T14:02:08Z</time>
      </trkpt>
      <trkpt lat="45.14445" lon="5.61079">
        <ele>1102.8</ele>
        <time>2021-08-30T14:02:09Z</time>
      </trkpt>
      <trkpt lat="45.14442" lon="5.61079">
        <ele>1103.7</ele>
        <time>2021-08-30T14:02:10Z</time>
      </trkpt>
      <trkpt lat="45.14437" lon="5.61079">
        <ele>1104.6</ele>
        <time>2021-08-30T14:02:13Z</time>
      </trkpt>
      <trkpt lat="45.14433" lon="5.61081">
        <ele>1106.6</ele>
        <time>2021-08-30T14:02:15Z</time>
      </trkpt>
      <trkpt lat="45.14429" lon="5.61084">
        <ele>1107.3</ele>
        <time>2021-08-30T14:02:17Z</time>
      </trkpt>
      <trkpt lat="45.14428" lon="5.61085">
        <ele>1107.6</ele>
        <time>2021-08-30T14:02:18Z</time>
      </trkpt>
      <trkpt lat="45.14427" lon="5.61086">
        <ele>1108.3</ele>
        <time>2021-08-30T14:02:19Z</time>
      </trkpt>
      <trkpt lat="45.14425" lon="5.61087">
        <ele>1108.3</ele>
        <time>2021-08-30T14:02:21Z</time>
      </trkpt>
      <trkpt lat="45.14424" lon="5.61086">
        <ele>1109</ele>
        <time>2021-08-30T14:02:22Z</time>
      </trkpt>
      <trkpt lat="45.14422" lon="5.61082">
        <ele>1108.7</ele>
        <time>2021-08-30T14:02:24Z</time>
      </trkpt>
      <trkpt lat="45.14419" lon="5.61079">
        <ele>1109.2</ele>
        <time>2021-08-30T14:02:26Z</time>
      </trkpt>
      <trkpt lat="45.14418" lon="5.61077">
        <ele>1110.1</ele>
        <time>2021-08-30T14:02:27Z</time>
      </trkpt>
      <trkpt lat="45.14416" lon="5.61073">
        <ele>1109.8</ele>
        <time>2021-08-30T14:02:29Z</time>
      </trkpt>
      <trkpt lat="45.14416" lon="5.61072">
        <ele>1109.7</ele>
        <time>2021-08-30T14:02:30Z</time>
      </trkpt>
      <trkpt lat="45.14415" lon="5.6107">
        <ele>1110.3</ele>
        <time>2021-08-30T14:02:31Z</time>
      </trkpt>
      <trkpt lat="45.14415" lon="5.61069">
        <ele>1110.3</ele>
        <time>2021-08-30T14:02:32Z</time>
      </trkpt>
      <trkpt lat="45.14414" lon="5.61068">
        <ele>1110.3</ele>
        <time>2021-08-30T14:02:34Z</time>
      </trkpt>
      <trkpt lat="45.14414" lon="5.61067">
        <ele>1110.2</ele>
        <time>2021-08-30T14:02:35Z</time>
      </trkpt>
      <trkpt lat="45.14413" lon="5.61067">
        <ele>1109.8</ele>
        <time>2021-08-30T14:02:37Z</time>
      </trkpt>
      <trkpt lat="45.14413" lon="5.61067">
        <ele>1109.8</ele>
        <time>2021-08-30T14:02:38Z</time>
      </trkpt>
      <trkpt lat="45.14413" lon="5.61062">
        <ele>1109.4</ele>
        <time>2021-08-30T14:02:40Z</time>
      </trkpt>
      <trkpt lat="45.14414" lon="5.61057">
        <ele>1108.9</ele>
        <time>2021-08-30T14:02:41Z</time>
      </trkpt>
      <trkpt lat="45.14416" lon="5.6105">
        <ele>1107.6</ele>
        <time>2021-08-30T14:02:42Z</time>
      </trkpt>
      <trkpt lat="45.14417" lon="5.61046">
        <ele>1107.1</ele>
        <time>2021-08-30T14:02:43Z</time>
      </trkpt>
      <trkpt lat="45.14419" lon="5.61033">
        <ele>1105</ele>
        <time>2021-08-30T14:02:45Z</time>
      </trkpt>
      <trkpt lat="45.14423" lon="5.61014">
        <ele>1101.3</ele>
        <time>2021-08-30T14:02:46Z</time>
      </trkpt>
      <trkpt lat="45.14426" lon="5.60993">
        <ele>1097.8</ele>
        <time>2021-08-30T14:02:48Z</time>
      </trkpt>
      <trkpt lat="45.14425" lon="5.60979">
        <ele>1096.5</ele>
        <time>2021-08-30T14:02:50Z</time>
      </trkpt>
      <trkpt lat="45.14424" lon="5.60975">
        <ele>1096.7</ele>
        <time>2021-08-30T14:02:52Z</time>
      </trkpt>
      <trkpt lat="45.14423" lon="5.60972">
        <ele>1096.5</ele>
        <time>2021-08-30T14:02:53Z</time>
      </trkpt>
      <trkpt lat="45.14423" lon="5.60968">
        <ele>1096.4</ele>
        <time>2021-08-30T14:02:55Z</time>
      </trkpt>
      <trkpt lat="45.14424" lon="5.60962">
        <ele>1096.4</ele>
        <time>2021-08-30T14:02:56Z</time>
      </trkpt>
      <trkpt lat="45.14425" lon="5.60958">
        <ele>1096.1</ele>
        <time>2021-08-30T14:02:57Z</time>
      </trkpt>
      <trkpt lat="45.14422" lon="5.60948">
        <ele>1097.2</ele>
        <time>2021-08-30T14:02:59Z</time>
      </trkpt>
      <trkpt lat="45.14418" lon="5.60943">
        <ele>1099.1</ele>
        <time>2021-08-30T14:03:00Z</time>
      </trkpt>
      <trkpt lat="45.14399" lon="5.60925">
        <ele>1107</ele>
        <time>2021-08-30T14:03:02Z</time>
      </trkpt>
      <trkpt lat="45.14391" lon="5.6092">
        <ele>1110</ele>
        <time>2021-08-30T14:03:04Z</time>
      </trkpt>
      <trkpt lat="45.1439" lon="5.60918">
        <ele>1110.9</ele>
        <time>2021-08-30T14:03:05Z</time>
      </trkpt>
      <trkpt lat="45.14388" lon="5.60914">
        <ele>1112.2</ele>
        <time>2021-08-30T14:03:07Z</time>
      </trkpt>
      <trkpt lat="45.14385" lon="5.60909">
        <ele>1112.6</ele>
        <time>2021-08-30T14:03:08Z</time>
      </trkpt>
      <trkpt lat="45.14384" lon="5.60905">
        <ele>1113.6</ele>
        <time>2021-08-30T14:03:10Z</time>
      </trkpt>
      <trkpt lat="45.14383" lon="5.60903">
        <ele>1113.9</ele>
        <time>2021-08-30T14:03:11Z</time>
      </trkpt>
      <trkpt lat="45.14383" lon="5.60903">
        <ele>1113.8</ele>
        <time>2021-08-30T14:03:12Z</time>
      </trkpt>
      <trkpt lat="45.14383" lon="5.60904">
        <ele>1113.5</ele>
        <time>2021-08-30T14:03:14Z</time>
      </trkpt>
      <trkpt lat="45.14385" lon="5.60905">
        <ele>1113.5</ele>
        <time>2021-08-30T14:03:15Z</time>
      </trkpt>
      <trkpt lat="45.14387" lon="5.60905">
        <ele>1112.7</ele>
        <time>2021-08-30T14:03:17Z</time>
      </trkpt>
      <trkpt lat="45.14388" lon="5.60904">
        <ele>1111.9</ele>
        <time>2021-08-30T14:03:19Z</time>
      </trkpt>
      <trkpt lat="45.1439" lon="5.60906">
        <ele>1111.8</ele>
        <time>2021-08-30T14:03:21Z</time>
      </trkpt>
      <trkpt lat="45.14391" lon="5.60906">
        <ele>1111.8</ele>
        <time>2021-08-30T14:03:23Z</time>
      </trkpt>
      <trkpt lat="45.14392" lon="5.60907">
        <ele>1111</ele>
        <time>2021-08-30T14:03:24Z</time>
      </trkpt>
      <trkpt lat="45.14394" lon="5.60907">
        <ele>1110.9</ele>
        <time>2021-08-30T14:03:26Z</time>
      </trkpt>
      <trkpt lat="45.14396" lon="5.60907">
        <ele>1110.2</ele>
        <time>2021-08-30T14:03:27Z</time>
      </trkpt>
      <trkpt lat="45.14397" lon="5.60906">
        <ele>1109.4</ele>
        <time>2021-08-30T14:03:28Z</time>
      </trkpt>
      <trkpt lat="45.14399" lon="5.60905">
        <ele>1109.4</ele>
        <time>2021-08-30T14:03:29Z</time>
      </trkpt>
      <trkpt lat="45.14401" lon="5.60904">
        <ele>1108.7</ele>
        <time>2021-08-30T14:03:31Z</time>
      </trkpt>
      <trkpt lat="45.14405" lon="5.60902">
        <ele>1108.6</ele>
        <time>2021-08-30T14:03:33Z</time>
      </trkpt>
      <trkpt lat="45.14407" lon="5.609">
        <ele>1108</ele>
        <time>2021-08-30T14:03:35Z</time>
      </trkpt>
      <trkpt lat="45.1441" lon="5.60899">
        <ele>1107.8</ele>
        <time>2021-08-30T14:03:36Z</time>
      </trkpt>
      <trkpt lat="45.14412" lon="5.609">
        <ele>1106.5</ele>
        <time>2021-08-30T14:03:38Z</time>
      </trkpt>
      <trkpt lat="45.14414" lon="5.60901">
        <ele>1106.4</ele>
        <time>2021-08-30T14:03:39Z</time>
      </trkpt>
      <trkpt lat="45.14416" lon="5.60901">
        <ele>1105.6</ele>
        <time>2021-08-30T14:03:40Z</time>
      </trkpt>
      <trkpt lat="45.14416" lon="5.60902">
        <ele>1105.6</ele>
        <time>2021-08-30T14:03:41Z</time>
      </trkpt>
      <trkpt lat="45.14421" lon="5.60903">
        <ele>1104.9</ele>
        <time>2021-08-30T14:03:43Z</time>
      </trkpt>
      <trkpt lat="45.14428" lon="5.60906">
        <ele>1102.3</ele>
        <time>2021-08-30T14:03:44Z</time>
      </trkpt>
      <trkpt lat="45.14431" lon="5.60907">
        <ele>1101.6</ele>
        <time>2021-08-30T14:03:45Z</time>
      </trkpt>
      <trkpt lat="45.14434" lon="5.60908">
        <ele>1101</ele>
        <time>2021-08-30T14:03:47Z</time>
      </trkpt>
      <trkpt lat="45.14436" lon="5.60908">
        <ele>1100.2</ele>
        <time>2021-08-30T14:03:49Z</time>
      </trkpt>
      <trkpt lat="45.14437" lon="5.60909">
        <ele>1099.5</ele>
        <time>2021-08-30T14:03:50Z</time>
      </trkpt>
      <trkpt lat="45.14439" lon="5.60908">
        <ele>1099.4</ele>
        <time>2021-08-30T14:03:51Z</time>
      </trkpt>
      <trkpt lat="45.14442" lon="5.60905">
        <ele>1099.9</ele>
        <time>2021-08-30T14:03:53Z</time>
      </trkpt>
      <trkpt lat="45.14449" lon="5.60898">
        <ele>1101</ele>
        <time>2021-08-30T14:03:55Z</time>
      </trkpt>
      <trkpt lat="45.14451" lon="5.60895">
        <ele>1101.3</ele>
        <time>2021-08-30T14:03:56Z</time>
      </trkpt>
      <trkpt lat="45.14455" lon="5.60891">
        <ele>1101.9</ele>
        <time>2021-08-30T14:03:58Z</time>
      </trkpt>
      <trkpt lat="45.14456" lon="5.60889">
        <ele>1102.1</ele>
        <time>2021-08-30T14:03:59Z</time>
      </trkpt>
      <trkpt lat="45.14458" lon="5.60888">
        <ele>1102.3</ele>
        <time>2021-08-30T14:04:00Z</time>
      </trkpt>
      <trkpt lat="45.14461" lon="5.60885">
        <ele>1102.7</ele>
        <time>2021-08-30T14:04:02Z</time>
      </trkpt>
      <trkpt lat="45.14465" lon="5.60883">
        <ele>1103.1</ele>
        <time>2021-08-30T14:04:03Z</time>
      </trkpt>
      <trkpt lat="45.14468" lon="5.6088">
        <ele>1103.5</ele>
        <time>2021-08-30T14:04:05Z</time>
      </trkpt>
      <trkpt lat="45.1447" lon="5.60879">
        <ele>1103.7</ele>
        <time>2021-08-30T14:04:07Z</time>
      </trkpt>
      <trkpt lat="45.14471" lon="5.60878">
        <ele>1103.9</ele>
        <time>2021-08-30T14:04:09Z</time>
      </trkpt>
      <trkpt lat="45.14472" lon="5.60877">
        <ele>1104</ele>
        <time>2021-08-30T14:04:10Z</time>
      </trkpt>
      <trkpt lat="45.14472" lon="5.60876">
        <ele>1104</ele>
        <time>2021-08-30T14:04:11Z</time>
      </trkpt>
      <trkpt lat="45.14473" lon="5.60876">
        <ele>1104.1</ele>
        <time>2021-08-30T14:04:13Z</time>
      </trkpt>
      <trkpt lat="45.14474" lon="5.60875">
        <ele>1104.2</ele>
        <time>2021-08-30T14:04:16Z</time>
      </trkpt>
      <trkpt lat="45.14475" lon="5.60874">
        <ele>1104.3</ele>
        <time>2021-08-30T14:04:18Z</time>
      </trkpt>
      <trkpt lat="45.14475" lon="5.60873">
        <ele>1104.3</ele>
        <time>2021-08-30T14:04:19Z</time>
      </trkpt>
      <trkpt lat="45.14476" lon="5.60873">
        <ele>1104.4</ele>
        <time>2021-08-30T14:04:21Z</time>
      </trkpt>
      <trkpt lat="45.14476" lon="5.60872">
        <ele>1104.5</ele>
        <time>2021-08-30T14:04:22Z</time>
      </trkpt>
      <trkpt lat="45.14476" lon="5.60871">
        <ele>1104.5</ele>
        <time>2021-08-30T14:04:23Z</time>
      </trkpt>
      <trkpt lat="45.14477" lon="5.6087">
        <ele>1104.6</ele>
        <time>2021-08-30T14:04:25Z</time>
      </trkpt>
      <trkpt lat="45.14478" lon="5.60869">
        <ele>1104.7</ele>
        <time>2021-08-30T14:04:26Z</time>
      </trkpt>
      <trkpt lat="45.14482" lon="5.60866">
        <ele>1105.1</ele>
        <time>2021-08-30T14:04:28Z</time>
      </trkpt>
      <trkpt lat="45.14483" lon="5.60863">
        <ele>1105.3</ele>
        <time>2021-08-30T14:04:29Z</time>
      </trkpt>
      <trkpt lat="45.14486" lon="5.60859">
        <ele>1105.7</ele>
        <time>2021-08-30T14:04:31Z</time>
      </trkpt>
      <trkpt lat="45.14492" lon="5.6085">
        <ele>1106.5</ele>
        <time>2021-08-30T14:04:33Z</time>
      </trkpt>
      <trkpt lat="45.14494" lon="5.60846">
        <ele>1106.8</ele>
        <time>2021-08-30T14:04:35Z</time>
      </trkpt>
      <trkpt lat="45.14503" lon="5.60841">
        <ele>1107.6</ele>
        <time>2021-08-30T14:04:37Z</time>
      </trkpt>
      <trkpt lat="45.14511" lon="5.60836">
        <ele>1108.4</ele>
        <time>2021-08-30T14:04:38Z</time>
      </trkpt>
      <trkpt lat="45.14515" lon="5.60833">
        <ele>1108.9</ele>
        <time>2021-08-30T14:04:39Z</time>
      </trkpt>
      <trkpt lat="45.1452" lon="5.6083">
        <ele>1109.4</ele>
        <time>2021-08-30T14:04:40Z</time>
      </trkpt>
      <trkpt lat="45.14524" lon="5.60827">
        <ele>1109.8</ele>
        <time>2021-08-30T14:04:42Z</time>
      </trkpt>
      <trkpt lat="45.14526" lon="5.60825">
        <ele>1110</ele>
        <time>2021-08-30T14:04:43Z</time>
      </trkpt>
      <trkpt lat="45.14528" lon="5.60822">
        <ele>1110.3</ele>
        <time>2021-08-30T14:04:44Z</time>
      </trkpt>
      <trkpt lat="45.14531" lon="5.60815">
        <ele>1110.8</ele>
        <time>2021-08-30T14:04:46Z</time>
      </trkpt>
      <trkpt lat="45.14533" lon="5.60813">
        <ele>1111</ele>
        <time>2021-08-30T14:04:47Z</time>
      </trkpt>
      <trkpt lat="45.14536" lon="5.60811">
        <ele>1111.4</ele>
        <time>2021-08-30T14:04:49Z</time>
      </trkpt>
      <trkpt lat="45.14539" lon="5.6081">
        <ele>1111.5</ele>
        <time>2021-08-30T14:04:50Z</time>
      </trkpt>
      <trkpt lat="45.14542" lon="5.60808">
        <ele>1111.8</ele>
        <time>2021-08-30T14:04:52Z</time>
      </trkpt>
      <trkpt lat="45.14543" lon="5.60807">
        <ele>1111.8</ele>
        <time>2021-08-30T14:04:53Z</time>
      </trkpt>
      <trkpt lat="45.14546" lon="5.60804">
        <ele>1112</ele>
        <time>2021-08-30T14:04:55Z</time>
      </trkpt>
      <trkpt lat="45.14548" lon="5.60801">
        <ele>1112.2</ele>
        <time>2021-08-30T14:04:56Z</time>
      </trkpt>
      <trkpt lat="45.14549" lon="5.60799">
        <ele>1112.3</ele>
        <time>2021-08-30T14:04:58Z</time>
      </trkpt>
      <trkpt lat="45.14551" lon="5.60795">
        <ele>1112.4</ele>
        <time>2021-08-30T14:04:59Z</time>
      </trkpt>
      <trkpt lat="45.14553" lon="5.60792">
        <ele>1112.6</ele>
        <time>2021-08-30T14:05:00Z</time>
      </trkpt>
      <trkpt lat="45.14554" lon="5.60789">
        <ele>1112.7</ele>
        <time>2021-08-30T14:05:02Z</time>
      </trkpt>
      <trkpt lat="45.14556" lon="5.60786">
        <ele>1112.8</ele>
        <time>2021-08-30T14:05:03Z</time>
      </trkpt>
      <trkpt lat="45.14558" lon="5.60781">
        <ele>1112.8</ele>
        <time>2021-08-30T14:05:05Z</time>
      </trkpt>
      <trkpt lat="45.14558" lon="5.6078">
        <ele>1112.8</ele>
        <time>2021-08-30T14:05:06Z</time>
      </trkpt>
      <trkpt lat="45.1456" lon="5.60775">
        <ele>1112.9</ele>
        <time>2021-08-30T14:05:08Z</time>
      </trkpt>
      <trkpt lat="45.1456" lon="5.60773">
        <ele>1112.9</ele>
        <time>2021-08-30T14:05:09Z</time>
      </trkpt>
      <trkpt lat="45.14561" lon="5.60769">
        <ele>1112.9</ele>
        <time>2021-08-30T14:05:11Z</time>
      </trkpt>
      <trkpt lat="45.14562" lon="5.60765">
        <ele>1112.9</ele>
        <time>2021-08-30T14:05:12Z</time>
      </trkpt>
      <trkpt lat="45.14562" lon="5.6076">
        <ele>1112.9</ele>
        <time>2021-08-30T14:05:13Z</time>
      </trkpt>
      <trkpt lat="45.14563" lon="5.60759">
        <ele>1112.9</ele>
        <time>2021-08-30T14:05:14Z</time>
      </trkpt>
      <trkpt lat="45.14564" lon="5.60756">
        <ele>1112.4</ele>
        <time>2021-08-30T14:05:16Z</time>
      </trkpt>
      <trkpt lat="45.14563" lon="5.60755">
        <ele>1112.2</ele>
        <time>2021-08-30T14:05:17Z</time>
      </trkpt>
      <trkpt lat="45.14561" lon="5.60754">
        <ele>1111.9</ele>
        <time>2021-08-30T14:05:19Z</time>
      </trkpt>
      <trkpt lat="45.1456" lon="5.60753">
        <ele>1111.6</ele>
        <time>2021-08-30T14:05:20Z</time>
      </trkpt>
      <trkpt lat="45.14555" lon="5.60751">
        <ele>1110.6</ele>
        <time>2021-08-30T14:05:21Z</time>
      </trkpt>
      <trkpt lat="45.14545" lon="5.60747">
        <ele>1108.6</ele>
        <time>2021-08-30T14:05:22Z</time>
      </trkpt>
      <trkpt lat="45.14539" lon="5.60744">
        <ele>1107.3</ele>
        <time>2021-08-30T14:05:23Z</time>
      </trkpt>
      <trkpt lat="45.14526" lon="5.60741">
        <ele>1104.6</ele>
        <time>2021-08-30T14:05:25Z</time>
      </trkpt>
      <trkpt lat="45.14515" lon="5.60738">
        <ele>1102.1</ele>
        <time>2021-08-30T14:05:27Z</time>
      </trkpt>
      <trkpt lat="45.14509" lon="5.60735">
        <ele>1100.9</ele>
        <time>2021-08-30T14:05:28Z</time>
      </trkpt>
      <trkpt lat="45.14498" lon="5.60728">
        <ele>1098.5</ele>
        <time>2021-08-30T14:05:30Z</time>
      </trkpt>
      <trkpt lat="45.14492" lon="5.60724">
        <ele>1097.3</ele>
        <time>2021-08-30T14:05:31Z</time>
      </trkpt>
      <trkpt lat="45.1448" lon="5.60717">
        <ele>1095</ele>
        <time>2021-08-30T14:05:33Z</time>
      </trkpt>
      <trkpt lat="45.14473" lon="5.60711">
        <ele>1093.6</ele>
        <time>2021-08-30T14:05:34Z</time>
      </trkpt>
      <trkpt lat="45.14467" lon="5.60706">
        <ele>1092.5</ele>
        <time>2021-08-30T14:05:35Z</time>
      </trkpt>
      <trkpt lat="45.14453" lon="5.60695">
        <ele>1090.3</ele>
        <time>2021-08-30T14:05:37Z</time>
      </trkpt>
      <trkpt lat="45.14446" lon="5.6069">
        <ele>1089.2</ele>
        <time>2021-08-30T14:05:38Z</time>
      </trkpt>
      <trkpt lat="45.14433" lon="5.60682">
        <ele>1088.5</ele>
        <time>2021-08-30T14:05:40Z</time>
      </trkpt>
      <trkpt lat="45.1442" lon="5.60677">
        <ele>1088.3</ele>
        <time>2021-08-30T14:05:42Z</time>
      </trkpt>
      <trkpt lat="45.14414" lon="5.60676">
        <ele>1088.4</ele>
        <time>2021-08-30T14:05:43Z</time>
      </trkpt>
      <trkpt lat="45.14409" lon="5.60675">
        <ele>1088.5</ele>
        <time>2021-08-30T14:05:44Z</time>
      </trkpt>
      <trkpt lat="45.144" lon="5.60674">
        <ele>1088.6</ele>
        <time>2021-08-30T14:05:46Z</time>
      </trkpt>
      <trkpt lat="45.14397" lon="5.60673">
        <ele>1088.7</ele>
        <time>2021-08-30T14:05:47Z</time>
      </trkpt>
      <trkpt lat="45.14393" lon="5.60673">
        <ele>1088.8</ele>
        <time>2021-08-30T14:05:49Z</time>
      </trkpt>
      <trkpt lat="45.1439" lon="5.60675">
        <ele>1088.8</ele>
        <time>2021-08-30T14:05:50Z</time>
      </trkpt>
      <trkpt lat="45.14386" lon="5.60678">
        <ele>1088.9</ele>
        <time>2021-08-30T14:05:51Z</time>
      </trkpt>
      <trkpt lat="45.14382" lon="5.60681">
        <ele>1089</ele>
        <time>2021-08-30T14:05:52Z</time>
      </trkpt>
      <trkpt lat="45.14375" lon="5.60681">
        <ele>1089.1</ele>
        <time>2021-08-30T14:05:54Z</time>
      </trkpt>
      <trkpt lat="45.14371" lon="5.60672">
        <ele>1089.1</ele>
        <time>2021-08-30T14:05:55Z</time>
      </trkpt>
      <trkpt lat="45.14365" lon="5.60675">
        <ele>1089</ele>
        <time>2021-08-30T14:05:57Z</time>
      </trkpt>
      <trkpt lat="45.1436" lon="5.60682">
        <ele>1088.9</ele>
        <time>2021-08-30T14:05:58Z</time>
      </trkpt>
      <trkpt lat="45.14354" lon="5.60688">
        <ele>1088.8</ele>
        <time>2021-08-30T14:05:59Z</time>
      </trkpt>
      <trkpt lat="45.14346" lon="5.60694">
        <ele>1088.7</ele>
        <time>2021-08-30T14:06:01Z</time>
      </trkpt>
      <trkpt lat="45.14337" lon="5.60702">
        <ele>1088.8</ele>
        <time>2021-08-30T14:06:03Z</time>
      </trkpt>
      <trkpt lat="45.14333" lon="5.60703">
        <ele>1088.9</ele>
        <time>2021-08-30T14:06:05Z</time>
      </trkpt>
      <trkpt lat="45.14331" lon="5.60701">
        <ele>1089</ele>
        <time>2021-08-30T14:06:06Z</time>
      </trkpt>
      <trkpt lat="45.14326" lon="5.60704">
        <ele>1089.2</ele>
        <time>2021-08-30T14:06:07Z</time>
      </trkpt>
      <trkpt lat="45.14318" lon="5.60712">
        <ele>1089.6</ele>
        <time>2021-08-30T14:06:09Z</time>
      </trkpt>
      <trkpt lat="45.14311" lon="5.60719">
        <ele>1090</ele>
        <time>2021-08-30T14:06:11Z</time>
      </trkpt>
      <trkpt lat="45.14308" lon="5.60721">
        <ele>1090.2</ele>
        <time>2021-08-30T14:06:12Z</time>
      </trkpt>
      <trkpt lat="45.14304" lon="5.60723">
        <ele>1090.4</ele>
        <time>2021-08-30T14:06:13Z</time>
      </trkpt>
      <trkpt lat="45.14298" lon="5.60727">
        <ele>1090.6</ele>
        <time>2021-08-30T14:06:15Z</time>
      </trkpt>
      <trkpt lat="45.14296" lon="5.60729">
        <ele>1090.7</ele>
        <time>2021-08-30T14:06:16Z</time>
      </trkpt>
      <trkpt lat="45.14292" lon="5.6073">
        <ele>1090.8</ele>
        <time>2021-08-30T14:06:18Z</time>
      </trkpt>
      <trkpt lat="45.14289" lon="5.60732">
        <ele>1090.9</ele>
        <time>2021-08-30T14:06:19Z</time>
      </trkpt>
      <trkpt lat="45.14287" lon="5.60733">
        <ele>1090.9</ele>
        <time>2021-08-30T14:06:20Z</time>
      </trkpt>
      <trkpt lat="45.14283" lon="5.60736">
        <ele>1090.8</ele>
        <time>2021-08-30T14:06:22Z</time>
      </trkpt>
      <trkpt lat="45.14278" lon="5.60739">
        <ele>1090.7</ele>
        <time>2021-08-30T14:06:24Z</time>
      </trkpt>
      <trkpt lat="45.14278" lon="5.6074">
        <ele>1090.7</ele>
        <time>2021-08-30T14:06:25Z</time>
      </trkpt>
      <trkpt lat="45.1417" lon="5.6071">
        <ele>1088.1</ele>
        <time>2021-08-30T14:06:54Z</time>
      </trkpt>
      <trkpt lat="45.1417" lon="5.60701">
        <ele>1088</ele>
        <time>2021-08-30T14:06:56Z</time>
      </trkpt>
      <trkpt lat="45.14168" lon="5.60685">
        <ele>1088</ele>
        <time>2021-08-30T14:06:57Z</time>
      </trkpt>
      <trkpt lat="45.14168" lon="5.60679">
        <ele>1088</ele>
        <time>2021-08-30T14:06:58Z</time>
      </trkpt>
      <trkpt lat="45.14168" lon="5.60674">
        <ele>1088</ele>
        <time>2021-08-30T14:06:59Z</time>
      </trkpt>
      <trkpt lat="45.14171" lon="5.60671">
        <ele>1087.9</ele>
        <time>2021-08-30T14:07:00Z</time>
      </trkpt>
      <trkpt lat="45.14174" lon="5.60666">
        <ele>1087.9</ele>
        <time>2021-08-30T14:07:02Z</time>
      </trkpt>
      <trkpt lat="45.14175" lon="5.60664">
        <ele>1087.9</ele>
        <time>2021-08-30T14:07:03Z</time>
      </trkpt>
      <trkpt lat="45.14177" lon="5.60658">
        <ele>1087.9</ele>
        <time>2021-08-30T14:07:05Z</time>
      </trkpt>
      <trkpt lat="45.14165" lon="5.60636">
        <ele>1087.4</ele>
        <time>2021-08-30T14:07:07Z</time>
      </trkpt>
      <trkpt lat="45.14157" lon="5.60615">
        <ele>1085.8</ele>
        <time>2021-08-30T14:07:09Z</time>
      </trkpt>
      <trkpt lat="45.14156" lon="5.60608">
        <ele>1085.4</ele>
        <time>2021-08-30T14:07:10Z</time>
      </trkpt>
      <trkpt lat="45.14155" lon="5.60602">
        <ele>1084.9</ele>
        <time>2021-08-30T14:07:12Z</time>
      </trkpt>
      <trkpt lat="45.14153" lon="5.60588">
        <ele>1083.9</ele>
        <time>2021-08-30T14:07:13Z</time>
      </trkpt>
      <trkpt lat="45.14149" lon="5.6057">
        <ele>1082.4</ele>
        <time>2021-08-30T14:07:15Z</time>
      </trkpt>
      <trkpt lat="45.14146" lon="5.60562">
        <ele>1081.8</ele>
        <time>2021-08-30T14:07:16Z</time>
      </trkpt>
      <trkpt lat="45.14142" lon="5.60554">
        <ele>1081.3</ele>
        <time>2021-08-30T14:07:17Z</time>
      </trkpt>
      <trkpt lat="45.14135" lon="5.60537">
        <ele>1080.2</ele>
        <time>2021-08-30T14:07:19Z</time>
      </trkpt>
      <trkpt lat="45.14132" lon="5.60528">
        <ele>1079.8</ele>
        <time>2021-08-30T14:07:20Z</time>
      </trkpt>
      <trkpt lat="45.14127" lon="5.60514">
        <ele>1079.2</ele>
        <time>2021-08-30T14:07:22Z</time>
      </trkpt>
      <trkpt lat="45.14124" lon="5.60502">
        <ele>1078.7</ele>
        <time>2021-08-30T14:07:24Z</time>
      </trkpt>
      <trkpt lat="45.14122" lon="5.60497">
        <ele>1078.5</ele>
        <time>2021-08-30T14:07:25Z</time>
      </trkpt>
      <trkpt lat="45.1412" lon="5.60483">
        <ele>1077.9</ele>
        <time>2021-08-30T14:07:27Z</time>
      </trkpt>
      <trkpt lat="45.14119" lon="5.60476">
        <ele>1077.6</ele>
        <time>2021-08-30T14:07:28Z</time>
      </trkpt>
      <trkpt lat="45.14118" lon="5.6047">
        <ele>1077.3</ele>
        <time>2021-08-30T14:07:29Z</time>
      </trkpt>
      <trkpt lat="45.14113" lon="5.60455">
        <ele>1074.7</ele>
        <time>2021-08-30T14:07:31Z</time>
      </trkpt>
      <trkpt lat="45.14106" lon="5.6044">
        <ele>1072.3</ele>
        <time>2021-08-30T14:07:33Z</time>
      </trkpt>
      <trkpt lat="45.14102" lon="5.60434">
        <ele>1071.2</ele>
        <time>2021-08-30T14:07:34Z</time>
      </trkpt>
      <trkpt lat="45.14098" lon="5.60428">
        <ele>1070</ele>
        <time>2021-08-30T14:07:35Z</time>
      </trkpt>
      <trkpt lat="45.14091" lon="5.60418">
        <ele>1068.1</ele>
        <time>2021-08-30T14:07:37Z</time>
      </trkpt>
      <trkpt lat="45.14084" lon="5.60407">
        <ele>1066.1</ele>
        <time>2021-08-30T14:07:39Z</time>
      </trkpt>
      <trkpt lat="45.1408" lon="5.60402">
        <ele>1065</ele>
        <time>2021-08-30T14:07:40Z</time>
      </trkpt>
      <trkpt lat="45.14077" lon="5.60396">
        <ele>1064</ele>
        <time>2021-08-30T14:07:41Z</time>
      </trkpt>
      <trkpt lat="45.14069" lon="5.60388">
        <ele>1062.1</ele>
        <time>2021-08-30T14:07:43Z</time>
      </trkpt>
      <trkpt lat="45.14066" lon="5.60386">
        <ele>1061.5</ele>
        <time>2021-08-30T14:07:44Z</time>
      </trkpt>
      <trkpt lat="45.14062" lon="5.60382">
        <ele>1060.4</ele>
        <time>2021-08-30T14:07:46Z</time>
      </trkpt>
      <trkpt lat="45.14059" lon="5.6038">
        <ele>1059.8</ele>
        <time>2021-08-30T14:07:47Z</time>
      </trkpt>
      <trkpt lat="45.14055" lon="5.60372">
        <ele>1058.6</ele>
        <time>2021-08-30T14:07:49Z</time>
      </trkpt>
      <trkpt lat="45.14051" lon="5.60372">
        <ele>1057.8</ele>
        <time>2021-08-30T14:07:51Z</time>
      </trkpt>
      <trkpt lat="45.1405" lon="5.60371">
        <ele>1057.5</ele>
        <time>2021-08-30T14:07:52Z</time>
      </trkpt>
      <trkpt lat="45.14048" lon="5.60366">
        <ele>1056.5</ele>
        <time>2021-08-30T14:07:53Z</time>
      </trkpt>
      <trkpt lat="45.14044" lon="5.60358">
        <ele>1055.1</ele>
        <time>2021-08-30T14:07:54Z</time>
      </trkpt>
      <trkpt lat="45.14041" lon="5.60353">
        <ele>1054.1</ele>
        <time>2021-08-30T14:07:55Z</time>
      </trkpt>
      <trkpt lat="45.14035" lon="5.60348">
        <ele>1052.8</ele>
        <time>2021-08-30T14:07:57Z</time>
      </trkpt>
      <trkpt lat="45.14032" lon="5.60346">
        <ele>1051.9</ele>
        <time>2021-08-30T14:07:58Z</time>
      </trkpt>
      <trkpt lat="45.1403" lon="5.60343">
        <ele>1051.3</ele>
        <time>2021-08-30T14:07:59Z</time>
      </trkpt>
      <trkpt lat="45.14028" lon="5.6034">
        <ele>1050.7</ele>
        <time>2021-08-30T14:08:00Z</time>
      </trkpt>
      <trkpt lat="45.14026" lon="5.60337">
        <ele>1050.1</ele>
        <time>2021-08-30T14:08:01Z</time>
      </trkpt>
      <trkpt lat="45.14025" lon="5.60333">
        <ele>1049.4</ele>
        <time>2021-08-30T14:08:02Z</time>
      </trkpt>
      <trkpt lat="45.14022" lon="5.60327">
        <ele>1048.3</ele>
        <time>2021-08-30T14:08:04Z</time>
      </trkpt>
      <trkpt lat="45.1402" lon="5.6032">
        <ele>1047.2</ele>
        <time>2021-08-30T14:08:05Z</time>
      </trkpt>
      <trkpt lat="45.14017" lon="5.6031">
        <ele>1045.8</ele>
        <time>2021-08-30T14:08:07Z</time>
      </trkpt>
      <trkpt lat="45.14014" lon="5.60303">
        <ele>1044.8</ele>
        <time>2021-08-30T14:08:09Z</time>
      </trkpt>
      <trkpt lat="45.1401" lon="5.60294">
        <ele>1043.6</ele>
        <time>2021-08-30T14:08:10Z</time>
      </trkpt>
      <trkpt lat="45.14004" lon="5.60282">
        <ele>1041.7</ele>
        <time>2021-08-30T14:08:11Z</time>
      </trkpt>
      <trkpt lat="45.13998" lon="5.60266">
        <ele>1039.5</ele>
        <time>2021-08-30T14:08:13Z</time>
      </trkpt>
      <trkpt lat="45.13995" lon="5.60258">
        <ele>1038.5</ele>
        <time>2021-08-30T14:08:14Z</time>
      </trkpt>
      <trkpt lat="45.13988" lon="5.60245">
        <ele>1036.4</ele>
        <time>2021-08-30T14:08:16Z</time>
      </trkpt>
      <trkpt lat="45.13984" lon="5.60236">
        <ele>1035.4</ele>
        <time>2021-08-30T14:08:17Z</time>
      </trkpt>
      <trkpt lat="45.13978" lon="5.60217">
        <ele>1033.4</ele>
        <time>2021-08-30T14:08:19Z</time>
      </trkpt>
      <trkpt lat="45.13969" lon="5.60195">
        <ele>1031.3</ele>
        <time>2021-08-30T14:08:21Z</time>
      </trkpt>
      <trkpt lat="45.13964" lon="5.60185">
        <ele>1030.7</ele>
        <time>2021-08-30T14:08:22Z</time>
      </trkpt>
      <trkpt lat="45.13959" lon="5.60178">
        <ele>1030.3</ele>
        <time>2021-08-30T14:08:23Z</time>
      </trkpt>
      <trkpt lat="45.13948" lon="5.60167">
        <ele>1029.8</ele>
        <time>2021-08-30T14:08:25Z</time>
      </trkpt>
      <trkpt lat="45.13935" lon="5.60159">
        <ele>1029.2</ele>
        <time>2021-08-30T14:08:27Z</time>
      </trkpt>
      <trkpt lat="45.13928" lon="5.60156">
        <ele>1028.6</ele>
        <time>2021-08-30T14:08:28Z</time>
      </trkpt>
      <trkpt lat="45.13913" lon="5.60147">
        <ele>1027.2</ele>
        <time>2021-08-30T14:08:30Z</time>
      </trkpt>
      <trkpt lat="45.13906" lon="5.60142">
        <ele>1026.6</ele>
        <time>2021-08-30T14:08:31Z</time>
      </trkpt>
      <trkpt lat="45.13888" lon="5.60131">
        <ele>1025.7</ele>
        <time>2021-08-30T14:08:33Z</time>
      </trkpt>
      <trkpt lat="45.13871" lon="5.60119">
        <ele>1024.9</ele>
        <time>2021-08-30T14:08:35Z</time>
      </trkpt>
      <trkpt lat="45.13857" lon="5.60114">
        <ele>1024.3</ele>
        <time>2021-08-30T14:08:37Z</time>
      </trkpt>
      <trkpt lat="45.13845" lon="5.60112">
        <ele>1023.8</ele>
        <time>2021-08-30T14:08:39Z</time>
      </trkpt>
      <trkpt lat="45.13839" lon="5.60112">
        <ele>1023.6</ele>
        <time>2021-08-30T14:08:40Z</time>
      </trkpt>
      <trkpt lat="45.13834" lon="5.60119">
        <ele>1023.2</ele>
        <time>2021-08-30T14:08:41Z</time>
      </trkpt>
      <trkpt lat="45.13829" lon="5.60123">
        <ele>1023.2</ele>
        <time>2021-08-30T14:08:43Z</time>
      </trkpt>
      <trkpt lat="45.1382" lon="5.6012">
        <ele>1022.7</ele>
        <time>2021-08-30T14:08:45Z</time>
      </trkpt>
      <trkpt lat="45.13816" lon="5.60117">
        <ele>1022.5</ele>
        <time>2021-08-30T14:08:46Z</time>
      </trkpt>
      <trkpt lat="45.13807" lon="5.60113">
        <ele>1022.1</ele>
        <time>2021-08-30T14:08:48Z</time>
      </trkpt>
      <trkpt lat="45.13806" lon="5.60112">
        <ele>1022</ele>
        <time>2021-08-30T14:08:49Z</time>
      </trkpt>
      <trkpt lat="45.13805" lon="5.60112">
        <ele>1022</ele>
        <time>2021-08-30T14:08:50Z</time>
      </trkpt>
      <trkpt lat="45.13804" lon="5.60112">
        <ele>1022</ele>
        <time>2021-08-30T14:08:51Z</time>
      </trkpt>
      <trkpt lat="45.1374" lon="5.60082">
        <ele>1019.8</ele>
        <time>2021-08-30T14:09:01Z</time>
      </trkpt>
      <trkpt lat="45.13722" lon="5.60066">
        <ele>1019.8</ele>
        <time>2021-08-30T14:09:03Z</time>
      </trkpt>
      <trkpt lat="45.13717" lon="5.6006">
        <ele>1019.3</ele>
        <time>2021-08-30T14:09:04Z</time>
      </trkpt>
      <trkpt lat="45.13711" lon="5.60055">
        <ele>1018.8</ele>
        <time>2021-08-30T14:09:05Z</time>
      </trkpt>
      <trkpt lat="45.137" lon="5.60042">
        <ele>1017.7</ele>
        <time>2021-08-30T14:09:07Z</time>
      </trkpt>
      <trkpt lat="45.13696" lon="5.60035">
        <ele>1017.2</ele>
        <time>2021-08-30T14:09:08Z</time>
      </trkpt>
      <trkpt lat="45.1369" lon="5.60022">
        <ele>1016.5</ele>
        <time>2021-08-30T14:09:10Z</time>
      </trkpt>
      <trkpt lat="45.13687" lon="5.60015">
        <ele>1016.2</ele>
        <time>2021-08-30T14:09:11Z</time>
      </trkpt>
      <trkpt lat="45.1368" lon="5.6">
        <ele>1015.4</ele>
        <time>2021-08-30T14:09:13Z</time>
      </trkpt>
      <trkpt lat="45.13674" lon="5.59986">
        <ele>1014.9</ele>
        <time>2021-08-30T14:09:15Z</time>
      </trkpt>
      <trkpt lat="45.13669" lon="5.59972">
        <ele>1014.6</ele>
        <time>2021-08-30T14:09:17Z</time>
      </trkpt>
      <trkpt lat="45.13662" lon="5.59957">
        <ele>1014.8</ele>
        <time>2021-08-30T14:09:19Z</time>
      </trkpt>
      <trkpt lat="45.13658" lon="5.59951">
        <ele>1015</ele>
        <time>2021-08-30T14:09:20Z</time>
      </trkpt>
      <trkpt lat="45.13654" lon="5.59948">
        <ele>1015.2</ele>
        <time>2021-08-30T14:09:22Z</time>
      </trkpt>
      <trkpt lat="45.13647" lon="5.5994">
        <ele>1015.9</ele>
        <time>2021-08-30T14:09:23Z</time>
      </trkpt>
      <trkpt lat="45.13644" lon="5.59933">
        <ele>1016.5</ele>
        <time>2021-08-30T14:09:25Z</time>
      </trkpt>
      <trkpt lat="45.13641" lon="5.59926">
        <ele>1017</ele>
        <time>2021-08-30T14:09:27Z</time>
      </trkpt>
      <trkpt lat="45.13639" lon="5.59919">
        <ele>1017.6</ele>
        <time>2021-08-30T14:09:28Z</time>
      </trkpt>
      <trkpt lat="45.13635" lon="5.59908">
        <ele>1018.7</ele>
        <time>2021-08-30T14:09:29Z</time>
      </trkpt>
      <trkpt lat="45.13633" lon="5.599">
        <ele>1019.6</ele>
        <time>2021-08-30T14:09:31Z</time>
      </trkpt>
      <trkpt lat="45.1363" lon="5.59896">
        <ele>1020.1</ele>
        <time>2021-08-30T14:09:33Z</time>
      </trkpt>
      <trkpt lat="45.13628" lon="5.59898">
        <ele>1020.5</ele>
        <time>2021-08-30T14:09:34Z</time>
      </trkpt>
      <trkpt lat="45.13625" lon="5.59902">
        <ele>1021.3</ele>
        <time>2021-08-30T14:09:36Z</time>
      </trkpt>
      <trkpt lat="45.13624" lon="5.59903">
        <ele>1021.5</ele>
        <time>2021-08-30T14:09:37Z</time>
      </trkpt>
      <trkpt lat="45.13622" lon="5.59902">
        <ele>1021.9</ele>
        <time>2021-08-30T14:09:39Z</time>
      </trkpt>
      <trkpt lat="45.13618" lon="5.59897">
        <ele>1022.8</ele>
        <time>2021-08-30T14:09:41Z</time>
      </trkpt>
      <trkpt lat="45.13615" lon="5.59893">
        <ele>1023.4</ele>
        <time>2021-08-30T14:09:43Z</time>
      </trkpt>
      <trkpt lat="45.1361" lon="5.5989">
        <ele>1024.3</ele>
        <time>2021-08-30T14:09:45Z</time>
      </trkpt>
      <trkpt lat="45.13607" lon="5.59885">
        <ele>1024.9</ele>
        <time>2021-08-30T14:09:47Z</time>
      </trkpt>
      <trkpt lat="45.13606" lon="5.59884">
        <ele>1025</ele>
        <time>2021-08-30T14:09:48Z</time>
      </trkpt>
      <trkpt lat="45.13606" lon="5.59883">
        <ele>1025.2</ele>
        <time>2021-08-30T14:09:49Z</time>
      </trkpt>
      <trkpt lat="45.13605" lon="5.59881">
        <ele>1025.3</ele>
        <time>2021-08-30T14:09:50Z</time>
      </trkpt>
      <trkpt lat="45.13605" lon="5.5988">
        <ele>1025.5</ele>
        <time>2021-08-30T14:09:52Z</time>
      </trkpt>
      <trkpt lat="45.13605" lon="5.59878">
        <ele>1025.7</ele>
        <time>2021-08-30T14:09:53Z</time>
      </trkpt>
      <trkpt lat="45.13604" lon="5.59877">
        <ele>1025.8</ele>
        <time>2021-08-30T14:09:55Z</time>
      </trkpt>
      <trkpt lat="45.13604" lon="5.59876">
        <ele>1026</ele>
        <time>2021-08-30T14:09:56Z</time>
      </trkpt>
      <trkpt lat="45.13603" lon="5.59874">
        <ele>1026.1</ele>
        <time>2021-08-30T14:09:58Z</time>
      </trkpt>
      <trkpt lat="45.13603" lon="5.59873">
        <ele>1026.2</ele>
        <time>2021-08-30T14:10:10Z</time>
      </trkpt>
      <trkpt lat="45.13602" lon="5.59871">
        <ele>1026.4</ele>
        <time>2021-08-30T14:10:11Z</time>
      </trkpt>
      <trkpt lat="45.13602" lon="5.5987">
        <ele>1026.5</ele>
        <time>2021-08-30T14:10:12Z</time>
      </trkpt>
      <trkpt lat="45.13603" lon="5.59866">
        <ele>1026.9</ele>
        <time>2021-08-30T14:10:14Z</time>
      </trkpt>
      <trkpt lat="45.13603" lon="5.59864">
        <ele>1027</ele>
        <time>2021-08-30T14:10:15Z</time>
      </trkpt>
      <trkpt lat="45.13604" lon="5.5986">
        <ele>1027.3</ele>
        <time>2021-08-30T14:10:16Z</time>
      </trkpt>
      <trkpt lat="45.13605" lon="5.59859">
        <ele>1027.4</ele>
        <time>2021-08-30T14:10:17Z</time>
      </trkpt>
      <trkpt lat="45.13607" lon="5.59857">
        <ele>1027.5</ele>
        <time>2021-08-30T14:10:18Z</time>
      </trkpt>
      <trkpt lat="45.13609" lon="5.59854">
        <ele>1027.8</ele>
        <time>2021-08-30T14:10:20Z</time>
      </trkpt>
      <trkpt lat="45.1361" lon="5.59849">
        <ele>1028</ele>
        <time>2021-08-30T14:10:22Z</time>
      </trkpt>
      <trkpt lat="45.1361" lon="5.59848">
        <ele>1028.1</ele>
        <time>2021-08-30T14:10:23Z</time>
      </trkpt>
      <trkpt lat="45.13608" lon="5.59844">
        <ele>1028</ele>
        <time>2021-08-30T14:10:24Z</time>
      </trkpt>
      <trkpt lat="45.13607" lon="5.59843">
        <ele>1027.9</ele>
        <time>2021-08-30T14:10:25Z</time>
      </trkpt>
      <trkpt lat="45.13603" lon="5.59841">
        <ele>1027.8</ele>
        <time>2021-08-30T14:10:27Z</time>
      </trkpt>
      <trkpt lat="45.13599" lon="5.59839">
        <ele>1027.7</ele>
        <time>2021-08-30T14:10:28Z</time>
      </trkpt>
      <trkpt lat="45.13594" lon="5.59836">
        <ele>1027.5</ele>
        <time>2021-08-30T14:10:30Z</time>
      </trkpt>
      <trkpt lat="45.1359" lon="5.59834">
        <ele>1027.3</ele>
        <time>2021-08-30T14:10:31Z</time>
      </trkpt>
      <trkpt lat="45.13585" lon="5.59832">
        <ele>1027.1</ele>
        <time>2021-08-30T14:10:33Z</time>
      </trkpt>
      <trkpt lat="45.1358" lon="5.59827">
        <ele>1026.8</ele>
        <time>2021-08-30T14:10:34Z</time>
      </trkpt>
      <trkpt lat="45.13575" lon="5.59823">
        <ele>1026.5</ele>
        <time>2021-08-30T14:10:36Z</time>
      </trkpt>
      <trkpt lat="45.1357" lon="5.59818">
        <ele>1026.2</ele>
        <time>2021-08-30T14:10:37Z</time>
      </trkpt>
      <trkpt lat="45.13566" lon="5.59814">
        <ele>1026</ele>
        <time>2021-08-30T14:10:39Z</time>
      </trkpt>
      <trkpt lat="45.13561" lon="5.59809">
        <ele>1025.7</ele>
        <time>2021-08-30T14:10:40Z</time>
      </trkpt>
      <trkpt lat="45.13556" lon="5.59805">
        <ele>1025.4</ele>
        <time>2021-08-30T14:10:42Z</time>
      </trkpt>
      <trkpt lat="45.13551" lon="5.598">
        <ele>1025.1</ele>
        <time>2021-08-30T14:10:43Z</time>
      </trkpt>
      <trkpt lat="45.13546" lon="5.59796">
        <ele>1024.8</ele>
        <time>2021-08-30T14:11:31Z</time>
      </trkpt>
      <trkpt lat="45.13541" lon="5.59792">
        <ele>1024.6</ele>
        <time>2021-08-30T14:11:33Z</time>
      </trkpt>
      <trkpt lat="45.13534" lon="5.59786">
        <ele>1024.2</ele>
        <time>2021-08-30T14:11:34Z</time>
      </trkpt>
      <trkpt lat="45.13521" lon="5.59776">
        <ele>1023.6</ele>
        <time>2021-08-30T14:11:36Z</time>
      </trkpt>
      <trkpt lat="45.13514" lon="5.59771">
        <ele>1023.4</ele>
        <time>2021-08-30T14:11:37Z</time>
      </trkpt>
      <trkpt lat="45.13507" lon="5.59767">
        <ele>1023.2</ele>
        <time>2021-08-30T14:11:38Z</time>
      </trkpt>
      <trkpt lat="45.13494" lon="5.59756">
        <ele>1022.9</ele>
        <time>2021-08-30T14:11:40Z</time>
      </trkpt>
      <trkpt lat="45.13488" lon="5.59749">
        <ele>1022.8</ele>
        <time>2021-08-30T14:11:41Z</time>
      </trkpt>
      <trkpt lat="45.13477" lon="5.59735">
        <ele>1022.8</ele>
        <time>2021-08-30T14:11:43Z</time>
      </trkpt>
      <trkpt lat="45.13471" lon="5.59727">
        <ele>1022.8</ele>
        <time>2021-08-30T14:11:44Z</time>
      </trkpt>
      <trkpt lat="45.13459" lon="5.59712">
        <ele>1022.7</ele>
        <time>2021-08-30T14:11:46Z</time>
      </trkpt>
      <trkpt lat="45.13453" lon="5.59706">
        <ele>1022.6</ele>
        <time>2021-08-30T14:11:47Z</time>
      </trkpt>
      <trkpt lat="45.13442" lon="5.59699">
        <ele>1021.9</ele>
        <time>2021-08-30T14:11:49Z</time>
      </trkpt>
      <trkpt lat="45.1343" lon="5.59692">
        <ele>1020.7</ele>
        <time>2021-08-30T14:11:51Z</time>
      </trkpt>
      <trkpt lat="45.13424" lon="5.59688">
        <ele>1019.9</ele>
        <time>2021-08-30T14:11:52Z</time>
      </trkpt>
      <trkpt lat="45.13416" lon="5.59684">
        <ele>1019.1</ele>
        <time>2021-08-30T14:11:53Z</time>
      </trkpt>
      <trkpt lat="45.13398" lon="5.59679">
        <ele>1017.6</ele>
        <time>2021-08-30T14:11:55Z</time>
      </trkpt>
      <trkpt lat="45.13389" lon="5.59677">
        <ele>1016.9</ele>
        <time>2021-08-30T14:11:56Z</time>
      </trkpt>
      <trkpt lat="45.13371" lon="5.59673">
        <ele>1016</ele>
        <time>2021-08-30T14:11:58Z</time>
      </trkpt>
      <trkpt lat="45.13361" lon="5.59671">
        <ele>1015.8</ele>
        <time>2021-08-30T14:11:59Z</time>
      </trkpt>
      <trkpt lat="45.13352" lon="5.5967">
        <ele>1015.7</ele>
        <time>2021-08-30T14:12:00Z</time>
      </trkpt>
      <trkpt lat="45.13343" lon="5.59668">
        <ele>1015.7</ele>
        <time>2021-08-30T14:12:01Z</time>
      </trkpt>
      <trkpt lat="45.13325" lon="5.59659">
        <ele>1015.9</ele>
        <time>2021-08-30T14:12:03Z</time>
      </trkpt>
      <trkpt lat="45.13318" lon="5.59654">
        <ele>1016</ele>
        <time>2021-08-30T14:12:04Z</time>
      </trkpt>
      <trkpt lat="45.13306" lon="5.5964">
        <ele>1016.1</ele>
        <time>2021-08-30T14:12:06Z</time>
      </trkpt>
      <trkpt lat="45.133" lon="5.59633">
        <ele>1016.3</ele>
        <time>2021-08-30T14:12:07Z</time>
      </trkpt>
      <trkpt lat="45.1329" lon="5.59619">
        <ele>1016.9</ele>
        <time>2021-08-30T14:12:09Z</time>
      </trkpt>
      <trkpt lat="45.13286" lon="5.59613">
        <ele>1017.4</ele>
        <time>2021-08-30T14:12:10Z</time>
      </trkpt>
      <trkpt lat="45.13282" lon="5.59607">
        <ele>1017.7</ele>
        <time>2021-08-30T14:12:11Z</time>
      </trkpt>
      <trkpt lat="45.1328" lon="5.596">
        <ele>1018</ele>
        <time>2021-08-30T14:12:12Z</time>
      </trkpt>
      <trkpt lat="45.13276" lon="5.59587">
        <ele>1018.5</ele>
        <time>2021-08-30T14:12:14Z</time>
      </trkpt>
      <trkpt lat="45.13275" lon="5.59581">
        <ele>1018.7</ele>
        <time>2021-08-30T14:12:15Z</time>
      </trkpt>
      <trkpt lat="45.13275" lon="5.59575">
        <ele>1018.9</ele>
        <time>2021-08-30T14:12:16Z</time>
      </trkpt>
      <trkpt lat="45.13277" lon="5.59566">
        <ele>1019.3</ele>
        <time>2021-08-30T14:12:18Z</time>
      </trkpt>
      <trkpt lat="45.13278" lon="5.59562">
        <ele>1019.4</ele>
        <time>2021-08-30T14:12:19Z</time>
      </trkpt>
      <trkpt lat="45.1328" lon="5.59554">
        <ele>1019.7</ele>
        <time>2021-08-30T14:12:21Z</time>
      </trkpt>
      <trkpt lat="45.13282" lon="5.59548">
        <ele>1019.8</ele>
        <time>2021-08-30T14:12:23Z</time>
      </trkpt>
      <trkpt lat="45.13284" lon="5.59541">
        <ele>1020</ele>
        <time>2021-08-30T14:12:24Z</time>
      </trkpt>
      <trkpt lat="45.13285" lon="5.59539">
        <ele>1020</ele>
        <time>2021-08-30T14:12:25Z</time>
      </trkpt>
      <trkpt lat="45.13286" lon="5.59535">
        <ele>1020.1</ele>
        <time>2021-08-30T14:12:27Z</time>
      </trkpt>
      <trkpt lat="45.13288" lon="5.59531">
        <ele>1020.1</ele>
        <time>2021-08-30T14:12:28Z</time>
      </trkpt>
      <trkpt lat="45.1329" lon="5.59527">
        <ele>1020.2</ele>
        <time>2021-08-30T14:12:29Z</time>
      </trkpt>
      <trkpt lat="45.13292" lon="5.59523">
        <ele>1020.2</ele>
        <time>2021-08-30T14:12:30Z</time>
      </trkpt>
      <trkpt lat="45.13294" lon="5.59518">
        <ele>1020.2</ele>
        <time>2021-08-30T14:12:31Z</time>
      </trkpt>
      <trkpt lat="45.133" lon="5.59516">
        <ele>1020.2</ele>
        <time>2021-08-30T14:12:33Z</time>
      </trkpt>
      <trkpt lat="45.13305" lon="5.59513">
        <ele>1020.2</ele>
        <time>2021-08-30T14:12:34Z</time>
      </trkpt>
      <trkpt lat="45.13308" lon="5.59509">
        <ele>1020.2</ele>
        <time>2021-08-30T14:12:35Z</time>
      </trkpt>
      <trkpt lat="45.1331" lon="5.59505">
        <ele>1020.1</ele>
        <time>2021-08-30T14:12:36Z</time>
      </trkpt>
      <trkpt lat="45.13313" lon="5.59501">
        <ele>1020</ele>
        <time>2021-08-30T14:12:37Z</time>
      </trkpt>
      <trkpt lat="45.13315" lon="5.59498">
        <ele>1020</ele>
        <time>2021-08-30T14:12:38Z</time>
      </trkpt>
      <trkpt lat="45.13316" lon="5.59495">
        <ele>1019.9</ele>
        <time>2021-08-30T14:12:40Z</time>
      </trkpt>
      <trkpt lat="45.13318" lon="5.5949">
        <ele>1019.8</ele>
        <time>2021-08-30T14:12:41Z</time>
      </trkpt>
      <trkpt lat="45.13321" lon="5.59475">
        <ele>1019.5</ele>
        <time>2021-08-30T14:12:42Z</time>
      </trkpt>
      <trkpt lat="45.13321" lon="5.59467">
        <ele>1019.4</ele>
        <time>2021-08-30T14:12:43Z</time>
      </trkpt>
      <trkpt lat="45.1332" lon="5.59459">
        <ele>1019.2</ele>
        <time>2021-08-30T14:12:44Z</time>
      </trkpt>
      <trkpt lat="45.13318" lon="5.59442">
        <ele>1018.9</ele>
        <time>2021-08-30T14:12:46Z</time>
      </trkpt>
      <trkpt lat="45.13315" lon="5.59434">
        <ele>1018.7</ele>
        <time>2021-08-30T14:12:47Z</time>
      </trkpt>
      <trkpt lat="45.13308" lon="5.5942">
        <ele>1018.3</ele>
        <time>2021-08-30T14:12:49Z</time>
      </trkpt>
      <trkpt lat="45.13304" lon="5.59413">
        <ele>1018.1</ele>
        <time>2021-08-30T14:12:50Z</time>
      </trkpt>
      <trkpt lat="45.13301" lon="5.59407">
        <ele>1017.9</ele>
        <time>2021-08-30T14:12:51Z</time>
      </trkpt>
      <trkpt lat="45.13299" lon="5.59403">
        <ele>1017.8</ele>
        <time>2021-08-30T14:12:52Z</time>
      </trkpt>
      <trkpt lat="45.13295" lon="5.59397">
        <ele>1017.7</ele>
        <time>2021-08-30T14:12:54Z</time>
      </trkpt>
      <trkpt lat="45.13291" lon="5.59393">
        <ele>1017.5</ele>
        <time>2021-08-30T14:12:56Z</time>
      </trkpt>
      <trkpt lat="45.13289" lon="5.59391">
        <ele>1017.5</ele>
        <time>2021-08-30T14:12:58Z</time>
      </trkpt>
      <trkpt lat="45.13287" lon="5.59389">
        <ele>1017.4</ele>
        <time>2021-08-30T14:13:00Z</time>
      </trkpt>
      <trkpt lat="45.13285" lon="5.59387">
        <ele>1017.4</ele>
        <time>2021-08-30T14:13:01Z</time>
      </trkpt>
      <trkpt lat="45.13283" lon="5.59385">
        <ele>1017.3</ele>
        <time>2021-08-30T14:13:03Z</time>
      </trkpt>
      <trkpt lat="45.13281" lon="5.59383">
        <ele>1017.3</ele>
        <time>2021-08-30T14:13:05Z</time>
      </trkpt>
      <trkpt lat="45.13278" lon="5.59381">
        <ele>1017.2</ele>
        <time>2021-08-30T14:13:06Z</time>
      </trkpt>
      <trkpt lat="45.13276" lon="5.59379">
        <ele>1017.2</ele>
        <time>2021-08-30T14:13:42Z</time>
      </trkpt>
      <trkpt lat="45.13274" lon="5.59377">
        <ele>1017.1</ele>
        <time>2021-08-30T14:13:43Z</time>
      </trkpt>
      <trkpt lat="45.1327" lon="5.59363">
        <ele>1017</ele>
        <time>2021-08-30T14:13:45Z</time>
      </trkpt>
      <trkpt lat="45.13265" lon="5.59345">
        <ele>1016.8</ele>
        <time>2021-08-30T14:13:46Z</time>
      </trkpt>
      <trkpt lat="45.13264" lon="5.59336">
        <ele>1016.8</ele>
        <time>2021-08-30T14:13:47Z</time>
      </trkpt>
      <trkpt lat="45.13265" lon="5.59327">
        <ele>1016.7</ele>
        <time>2021-08-30T14:13:49Z</time>
      </trkpt>
      <trkpt lat="45.13267" lon="5.59319">
        <ele>1016.6</ele>
        <time>2021-08-30T14:13:50Z</time>
      </trkpt>
      <trkpt lat="45.13266" lon="5.59308">
        <ele>1016.5</ele>
        <time>2021-08-30T14:13:51Z</time>
      </trkpt>
      <trkpt lat="45.13271" lon="5.59292">
        <ele>1016.4</ele>
        <time>2021-08-30T14:13:53Z</time>
      </trkpt>
      <trkpt lat="45.13275" lon="5.59282">
        <ele>1016.4</ele>
        <time>2021-08-30T14:13:54Z</time>
      </trkpt>
      <trkpt lat="45.13282" lon="5.59263">
        <ele>1016.4</ele>
        <time>2021-08-30T14:13:56Z</time>
      </trkpt>
      <trkpt lat="45.13286" lon="5.59254">
        <ele>1016.4</ele>
        <time>2021-08-30T14:13:57Z</time>
      </trkpt>
      <trkpt lat="45.13289" lon="5.59245">
        <ele>1016.4</ele>
        <time>2021-08-30T14:13:58Z</time>
      </trkpt>
      <trkpt lat="45.13292" lon="5.59237">
        <ele>1016.4</ele>
        <time>2021-08-30T14:13:59Z</time>
      </trkpt>
      <trkpt lat="45.13293" lon="5.59228">
        <ele>1016.4</ele>
        <time>2021-08-30T14:14:00Z</time>
      </trkpt>
      <trkpt lat="45.13293" lon="5.5922">
        <ele>1016.4</ele>
        <time>2021-08-30T14:14:01Z</time>
      </trkpt>
      <trkpt lat="45.13293" lon="5.59212">
        <ele>1016.4</ele>
        <time>2021-08-30T14:14:02Z</time>
      </trkpt>
      <trkpt lat="45.13296" lon="5.59196">
        <ele>1016.2</ele>
        <time>2021-08-30T14:14:04Z</time>
      </trkpt>
      <trkpt lat="45.13294" lon="5.59188">
        <ele>1016.1</ele>
        <time>2021-08-30T14:14:06Z</time>
      </trkpt>
      <trkpt lat="45.13292" lon="5.59179">
        <ele>1015.9</ele>
        <time>2021-08-30T14:14:08Z</time>
      </trkpt>
      <trkpt lat="45.13292" lon="5.59164">
        <ele>1015.7</ele>
        <time>2021-08-30T14:14:10Z</time>
      </trkpt>
      <trkpt lat="45.13292" lon="5.59149">
        <ele>1015.4</ele>
        <time>2021-08-30T14:14:12Z</time>
      </trkpt>
      <trkpt lat="45.13291" lon="5.59142">
        <ele>1015.2</ele>
        <time>2021-08-30T14:14:13Z</time>
      </trkpt>
      <trkpt lat="45.13289" lon="5.59128">
        <ele>1014.8</ele>
        <time>2021-08-30T14:14:15Z</time>
      </trkpt>
      <trkpt lat="45.13289" lon="5.59125">
        <ele>1014.8</ele>
        <time>2021-08-30T14:14:16Z</time>
      </trkpt>
      <trkpt lat="45.1329" lon="5.59113">
        <ele>1014.4</ele>
        <time>2021-08-30T14:14:18Z</time>
      </trkpt>
      <trkpt lat="45.13288" lon="5.59106">
        <ele>1014.2</ele>
        <time>2021-08-30T14:14:19Z</time>
      </trkpt>
      <trkpt lat="45.13288" lon="5.591">
        <ele>1014</ele>
        <time>2021-08-30T14:14:20Z</time>
      </trkpt>
      <trkpt lat="45.13288" lon="5.59086">
        <ele>1013.4</ele>
        <time>2021-08-30T14:14:22Z</time>
      </trkpt>
      <trkpt lat="45.13287" lon="5.59075">
        <ele>1012.8</ele>
        <time>2021-08-30T14:14:24Z</time>
      </trkpt>
      <trkpt lat="45.13286" lon="5.59067">
        <ele>1012.4</ele>
        <time>2021-08-30T14:14:25Z</time>
      </trkpt>
      <trkpt lat="45.13284" lon="5.5906">
        <ele>1012</ele>
        <time>2021-08-30T14:14:26Z</time>
      </trkpt>
      <trkpt lat="45.13281" lon="5.59053">
        <ele>1011.5</ele>
        <time>2021-08-30T14:14:27Z</time>
      </trkpt>
      <trkpt lat="45.1328" lon="5.59043">
        <ele>1010.8</ele>
        <time>2021-08-30T14:14:29Z</time>
      </trkpt>
      <trkpt lat="45.13276" lon="5.59045">
        <ele>1010.3</ele>
        <time>2021-08-30T14:14:31Z</time>
      </trkpt>
      <trkpt lat="45.13272" lon="5.59046">
        <ele>1009.9</ele>
        <time>2021-08-30T14:14:32Z</time>
      </trkpt>
      <trkpt lat="45.13267" lon="5.59049">
        <ele>1009.2</ele>
        <time>2021-08-30T14:14:33Z</time>
      </trkpt>
      <trkpt lat="45.13261" lon="5.59053">
        <ele>1008.4</ele>
        <time>2021-08-30T14:14:34Z</time>
      </trkpt>
      <trkpt lat="45.13223" lon="5.59071">
        <ele>1004.5</ele>
        <time>2021-08-30T14:14:35Z</time>
      </trkpt>
      <trkpt lat="45.1321" lon="5.59076">
        <ele>1003.2</ele>
        <time>2021-08-30T14:14:37Z</time>
      </trkpt>
      <trkpt lat="45.13199" lon="5.59077">
        <ele>1002.3</ele>
        <time>2021-08-30T14:14:38Z</time>
      </trkpt>
      <trkpt lat="45.13178" lon="5.59076">
        <ele>1000.3</ele>
        <time>2021-08-30T14:14:40Z</time>
      </trkpt>
      <trkpt lat="45.13172" lon="5.59074">
        <ele>999.6</ele>
        <time>2021-08-30T14:14:42Z</time>
      </trkpt>
      <trkpt lat="45.13167" lon="5.59071">
        <ele>999.1</ele>
        <time>2021-08-30T14:14:44Z</time>
      </trkpt>
      <trkpt lat="45.13161" lon="5.5907">
        <ele>998.6</ele>
        <time>2021-08-30T14:14:46Z</time>
      </trkpt>
      <trkpt lat="45.13157" lon="5.5907">
        <ele>998.2</ele>
        <time>2021-08-30T14:14:47Z</time>
      </trkpt>
      <trkpt lat="45.13157" lon="5.5907">
        <ele>998.2</ele>
        <time>2021-08-30T14:14:48Z</time>
      </trkpt>
      <trkpt lat="45.13157" lon="5.5907">
        <ele>998.1</ele>
        <time>2021-08-30T14:14:49Z</time>
      </trkpt>
      <trkpt lat="45.13156" lon="5.5907">
        <ele>998.1</ele>
        <time>2021-08-30T14:14:51Z</time>
      </trkpt>
      <trkpt lat="45.13212" lon="5.58943">
        <ele>990.6</ele>
        <time>2021-08-30T14:15:06Z</time>
      </trkpt>
      <trkpt lat="45.13222" lon="5.58927">
        <ele>990.1</ele>
        <time>2021-08-30T14:15:07Z</time>
      </trkpt>
      <trkpt lat="45.13229" lon="5.58912">
        <ele>989.7</ele>
        <time>2021-08-30T14:15:08Z</time>
      </trkpt>
      <trkpt lat="45.13231" lon="5.58901">
        <ele>989.4</ele>
        <time>2021-08-30T14:15:09Z</time>
      </trkpt>
      <trkpt lat="45.1323" lon="5.58893">
        <ele>989.1</ele>
        <time>2021-08-30T14:15:10Z</time>
      </trkpt>
      <trkpt lat="45.13229" lon="5.58876">
        <ele>988.5</ele>
        <time>2021-08-30T14:15:12Z</time>
      </trkpt>
      <trkpt lat="45.13224" lon="5.58878">
        <ele>988.1</ele>
        <time>2021-08-30T14:15:14Z</time>
      </trkpt>
      <trkpt lat="45.13213" lon="5.5888">
        <ele>987.4</ele>
        <time>2021-08-30T14:15:15Z</time>
      </trkpt>
      <trkpt lat="45.13206" lon="5.58881">
        <ele>987</ele>
        <time>2021-08-30T14:15:16Z</time>
      </trkpt>
      <trkpt lat="45.13202" lon="5.58882">
        <ele>986.8</ele>
        <time>2021-08-30T14:15:17Z</time>
      </trkpt>
      <trkpt lat="45.13189" lon="5.58882">
        <ele>986</ele>
        <time>2021-08-30T14:15:18Z</time>
      </trkpt>
      <trkpt lat="45.13167" lon="5.58879">
        <ele>984.8</ele>
        <time>2021-08-30T14:15:20Z</time>
      </trkpt>
      <trkpt lat="45.13161" lon="5.58877">
        <ele>984.5</ele>
        <time>2021-08-30T14:15:21Z</time>
      </trkpt>
      <trkpt lat="45.13158" lon="5.58875">
        <ele>984.3</ele>
        <time>2021-08-30T14:15:22Z</time>
      </trkpt>
      <trkpt lat="45.13129" lon="5.58835">
        <ele>983.5</ele>
        <time>2021-08-30T14:15:24Z</time>
      </trkpt>
      <trkpt lat="45.13126" lon="5.58821">
        <ele>983.3</ele>
        <time>2021-08-30T14:15:25Z</time>
      </trkpt>
      <trkpt lat="45.13126" lon="5.58804">
        <ele>983.2</ele>
        <time>2021-08-30T14:15:27Z</time>
      </trkpt>
      <trkpt lat="45.13131" lon="5.58799">
        <ele>983.1</ele>
        <time>2021-08-30T14:15:29Z</time>
      </trkpt>
      <trkpt lat="45.13132" lon="5.58785">
        <ele>983.2</ele>
        <time>2021-08-30T14:15:31Z</time>
      </trkpt>
      <trkpt lat="45.13135" lon="5.58776">
        <ele>983.2</ele>
        <time>2021-08-30T14:15:32Z</time>
      </trkpt>
      <trkpt lat="45.13137" lon="5.58768">
        <ele>983.2</ele>
        <time>2021-08-30T14:15:33Z</time>
      </trkpt>
      <trkpt lat="45.13142" lon="5.58759">
        <ele>983.3</ele>
        <time>2021-08-30T14:15:35Z</time>
      </trkpt>
      <trkpt lat="45.13145" lon="5.58751">
        <ele>983.3</ele>
        <time>2021-08-30T14:15:36Z</time>
      </trkpt>
      <trkpt lat="45.13147" lon="5.58743">
        <ele>983.3</ele>
        <time>2021-08-30T14:15:37Z</time>
      </trkpt>
      <trkpt lat="45.13149" lon="5.58734">
        <ele>983.4</ele>
        <time>2021-08-30T14:15:38Z</time>
      </trkpt>
      <trkpt lat="45.13154" lon="5.58723">
        <ele>983.4</ele>
        <time>2021-08-30T14:15:39Z</time>
      </trkpt>
      <trkpt lat="45.13155" lon="5.58716">
        <ele>983.4</ele>
        <time>2021-08-30T14:15:40Z</time>
      </trkpt>
      <trkpt lat="45.13158" lon="5.58708">
        <ele>983.4</ele>
        <time>2021-08-30T14:15:42Z</time>
      </trkpt>
      <trkpt lat="45.13157" lon="5.58698">
        <ele>983.4</ele>
        <time>2021-08-30T14:15:43Z</time>
      </trkpt>
      <trkpt lat="45.13156" lon="5.58688">
        <ele>983.4</ele>
        <time>2021-08-30T14:15:45Z</time>
      </trkpt>
      <trkpt lat="45.13155" lon="5.58682">
        <ele>983.4</ele>
        <time>2021-08-30T14:15:46Z</time>
      </trkpt>
      <trkpt lat="45.13154" lon="5.58678">
        <ele>983.4</ele>
        <time>2021-08-30T14:15:47Z</time>
      </trkpt>
      <trkpt lat="45.13152" lon="5.58671">
        <ele>983.4</ele>
        <time>2021-08-30T14:15:49Z</time>
      </trkpt>
      <trkpt lat="45.13152" lon="5.58666">
        <ele>983.4</ele>
        <time>2021-08-30T14:15:50Z</time>
      </trkpt>
      <trkpt lat="45.13153" lon="5.58657">
        <ele>983.3</ele>
        <time>2021-08-30T14:15:52Z</time>
      </trkpt>
      <trkpt lat="45.13155" lon="5.5865">
        <ele>983.3</ele>
        <time>2021-08-30T14:15:53Z</time>
      </trkpt>
      <trkpt lat="45.13157" lon="5.58644">
        <ele>983.3</ele>
        <time>2021-08-30T14:15:54Z</time>
      </trkpt>
      <trkpt lat="45.13159" lon="5.58641">
        <ele>983.5</ele>
        <time>2021-08-30T14:15:55Z</time>
      </trkpt>
      <trkpt lat="45.13162" lon="5.58636">
        <ele>983.8</ele>
        <time>2021-08-30T14:15:57Z</time>
      </trkpt>
      <trkpt lat="45.13167" lon="5.58631">
        <ele>984.1</ele>
        <time>2021-08-30T14:15:58Z</time>
      </trkpt>
      <trkpt lat="45.13171" lon="5.58628">
        <ele>984.4</ele>
        <time>2021-08-30T14:15:59Z</time>
      </trkpt>
      <trkpt lat="45.13174" lon="5.58624">
        <ele>984.6</ele>
        <time>2021-08-30T14:16:00Z</time>
      </trkpt>
      <trkpt lat="45.13178" lon="5.58621">
        <ele>984.9</ele>
        <time>2021-08-30T14:16:01Z</time>
      </trkpt>
      <trkpt lat="45.13183" lon="5.58618">
        <ele>985.3</ele>
        <time>2021-08-30T14:16:03Z</time>
      </trkpt>
      <trkpt lat="45.13185" lon="5.58617">
        <ele>985.5</ele>
        <time>2021-08-30T14:16:04Z</time>
      </trkpt>
      <trkpt lat="45.13187" lon="5.58616">
        <ele>985.6</ele>
        <time>2021-08-30T14:16:05Z</time>
      </trkpt>
      <trkpt lat="45.13187" lon="5.58616">
        <ele>985.7</ele>
        <time>2021-08-30T14:16:07Z</time>
      </trkpt>
      <trkpt lat="45.13186" lon="5.58615">
        <ele>985.7</ele>
        <time>2021-08-30T14:16:08Z</time>
      </trkpt>
      <trkpt lat="45.13186" lon="5.58615">
        <ele>985.7</ele>
        <time>2021-08-30T14:16:09Z</time>
      </trkpt>
      <trkpt lat="45.13186" lon="5.58614">
        <ele>985.8</ele>
        <time>2021-08-30T14:16:10Z</time>
      </trkpt>
      <trkpt lat="45.13185" lon="5.58614">
        <ele>985.8</ele>
        <time>2021-08-30T14:16:12Z</time>
      </trkpt>
      <trkpt lat="45.13185" lon="5.58613">
        <ele>985.8</ele>
        <time>2021-08-30T14:16:13Z</time>
      </trkpt>
      <trkpt lat="45.13185" lon="5.58613">
        <ele>985.9</ele>
        <time>2021-08-30T14:16:14Z</time>
      </trkpt>
      <trkpt lat="45.13183" lon="5.58611">
        <ele>986</ele>
        <time>2021-08-30T14:16:15Z</time>
      </trkpt>
      <trkpt lat="45.13173" lon="5.586">
        <ele>987</ele>
        <time>2021-08-30T14:16:23Z</time>
      </trkpt>
      <trkpt lat="45.13171" lon="5.58597">
        <ele>987.2</ele>
        <time>2021-08-30T14:16:24Z</time>
      </trkpt>
      <trkpt lat="45.13171" lon="5.58596">
        <ele>987.3</ele>
        <time>2021-08-30T14:16:25Z</time>
      </trkpt>
      <trkpt lat="45.1317" lon="5.58594">
        <ele>987.5</ele>
        <time>2021-08-30T14:16:26Z</time>
      </trkpt>
      <trkpt lat="45.13169" lon="5.58592">
        <ele>987.6</ele>
        <time>2021-08-30T14:16:27Z</time>
      </trkpt>
      <trkpt lat="45.13168" lon="5.58588">
        <ele>987.9</ele>
        <time>2021-08-30T14:16:29Z</time>
      </trkpt>
      <trkpt lat="45.13167" lon="5.58586">
        <ele>988</ele>
        <time>2021-08-30T14:16:30Z</time>
      </trkpt>
      <trkpt lat="45.13166" lon="5.58579">
        <ele>988.4</ele>
        <time>2021-08-30T14:16:32Z</time>
      </trkpt>
      <trkpt lat="45.13166" lon="5.58574">
        <ele>988.7</ele>
        <time>2021-08-30T14:16:33Z</time>
      </trkpt>
      <trkpt lat="45.13166" lon="5.58571">
        <ele>988.9</ele>
        <time>2021-08-30T14:16:34Z</time>
      </trkpt>
      <trkpt lat="45.13166" lon="5.58568">
        <ele>989.1</ele>
        <time>2021-08-30T14:16:36Z</time>
      </trkpt>
      <trkpt lat="45.13166" lon="5.58566">
        <ele>989.2</ele>
        <time>2021-08-30T14:16:37Z</time>
      </trkpt>
      <trkpt lat="45.13166" lon="5.58564">
        <ele>989.4</ele>
        <time>2021-08-30T14:16:38Z</time>
      </trkpt>
      <trkpt lat="45.13166" lon="5.58562">
        <ele>989.5</ele>
        <time>2021-08-30T14:16:39Z</time>
      </trkpt>
      <trkpt lat="45.13166" lon="5.5856">
        <ele>989.5</ele>
        <time>2021-08-30T14:16:40Z</time>
      </trkpt>
      <trkpt lat="45.13166" lon="5.58559">
        <ele>989.6</ele>
        <time>2021-08-30T14:16:41Z</time>
      </trkpt>
      <trkpt lat="45.13166" lon="5.58557">
        <ele>989.7</ele>
        <time>2021-08-30T14:16:43Z</time>
      </trkpt>
      <trkpt lat="45.13166" lon="5.58556">
        <ele>989.8</ele>
        <time>2021-08-30T14:16:44Z</time>
      </trkpt>
      <trkpt lat="45.13166" lon="5.58555">
        <ele>989.9</ele>
        <time>2021-08-30T14:16:45Z</time>
      </trkpt>
      <trkpt lat="45.13166" lon="5.58554">
        <ele>990</ele>
        <time>2021-08-30T14:16:46Z</time>
      </trkpt>
      <trkpt lat="45.13166" lon="5.58551">
        <ele>990.2</ele>
        <time>2021-08-30T14:16:48Z</time>
      </trkpt>
      <trkpt lat="45.13167" lon="5.58546">
        <ele>990.5</ele>
        <time>2021-08-30T14:16:49Z</time>
      </trkpt>
      <trkpt lat="45.13168" lon="5.58541">
        <ele>990.8</ele>
        <time>2021-08-30T14:16:50Z</time>
      </trkpt>
      <trkpt lat="45.13168" lon="5.58538">
        <ele>991</ele>
        <time>2021-08-30T14:16:51Z</time>
      </trkpt>
      <trkpt lat="45.13169" lon="5.58536">
        <ele>991.2</ele>
        <time>2021-08-30T14:16:53Z</time>
      </trkpt>
      <trkpt lat="45.13169" lon="5.58534">
        <ele>991.3</ele>
        <time>2021-08-30T14:16:54Z</time>
      </trkpt>
      <trkpt lat="45.13169" lon="5.58533">
        <ele>991.4</ele>
        <time>2021-08-30T14:16:55Z</time>
      </trkpt>
      <trkpt lat="45.1317" lon="5.58531">
        <ele>991.5</ele>
        <time>2021-08-30T14:16:56Z</time>
      </trkpt>
      <trkpt lat="45.13181" lon="5.58536">
        <ele>992.6</ele>
        <time>2021-08-30T14:16:58Z</time>
      </trkpt>
      <trkpt lat="45.13197" lon="5.58542">
        <ele>994.2</ele>
        <time>2021-08-30T14:17:00Z</time>
      </trkpt>
      <trkpt lat="45.132" lon="5.58543">
        <ele>994.5</ele>
        <time>2021-08-30T14:17:01Z</time>
      </trkpt>
      <trkpt lat="45.13202" lon="5.58543">
        <ele>994.7</ele>
        <time>2021-08-30T14:17:03Z</time>
      </trkpt>
      <trkpt lat="45.13203" lon="5.58543">
        <ele>994.8</ele>
        <time>2021-08-30T14:17:04Z</time>
      </trkpt>
      <trkpt lat="45.13204" lon="5.5854">
        <ele>995</ele>
        <time>2021-08-30T14:17:05Z</time>
      </trkpt>
      <trkpt lat="45.13204" lon="5.58538">
        <ele>995.2</ele>
        <time>2021-08-30T14:17:06Z</time>
      </trkpt>
      <trkpt lat="45.13204" lon="5.58532">
        <ele>995.6</ele>
        <time>2021-08-30T14:17:08Z</time>
      </trkpt>
      <trkpt lat="45.13203" lon="5.58528">
        <ele>995.9</ele>
        <time>2021-08-30T14:17:09Z</time>
      </trkpt>
      <trkpt lat="45.13202" lon="5.58526">
        <ele>996</ele>
        <time>2021-08-30T14:17:10Z</time>
      </trkpt>
      <trkpt lat="45.132" lon="5.5852">
        <ele>996.5</ele>
        <time>2021-08-30T14:17:12Z</time>
      </trkpt>
      <trkpt lat="45.132" lon="5.58518">
        <ele>996.6</ele>
        <time>2021-08-30T14:17:13Z</time>
      </trkpt>
      <trkpt lat="45.132" lon="5.58516">
        <ele>996.8</ele>
        <time>2021-08-30T14:17:14Z</time>
      </trkpt>
      <trkpt lat="45.13201" lon="5.58511">
        <ele>997.1</ele>
        <time>2021-08-30T14:17:15Z</time>
      </trkpt>
      <trkpt lat="45.13202" lon="5.5851">
        <ele>997.2</ele>
        <time>2021-08-30T14:17:16Z</time>
      </trkpt>
      <trkpt lat="45.13202" lon="5.58508">
        <ele>997.4</ele>
        <time>2021-08-30T14:17:17Z</time>
      </trkpt>
      <trkpt lat="45.13203" lon="5.58505">
        <ele>997.6</ele>
        <time>2021-08-30T14:17:19Z</time>
      </trkpt>
      <trkpt lat="45.13204" lon="5.58502">
        <ele>997.8</ele>
        <time>2021-08-30T14:17:20Z</time>
      </trkpt>
      <trkpt lat="45.13204" lon="5.58501">
        <ele>997.9</ele>
        <time>2021-08-30T14:17:21Z</time>
      </trkpt>
      <trkpt lat="45.13204" lon="5.585">
        <ele>998</ele>
        <time>2021-08-30T14:17:22Z</time>
      </trkpt>
      <trkpt lat="45.13203" lon="5.58499">
        <ele>998</ele>
        <time>2021-08-30T14:17:23Z</time>
      </trkpt>
      <trkpt lat="45.13203" lon="5.58498">
        <ele>998.1</ele>
        <time>2021-08-30T14:17:24Z</time>
      </trkpt>
      <trkpt lat="45.13203" lon="5.58496">
        <ele>998.2</ele>
        <time>2021-08-30T14:17:26Z</time>
      </trkpt>
      <trkpt lat="45.13202" lon="5.58493">
        <ele>998.5</ele>
        <time>2021-08-30T14:17:28Z</time>
      </trkpt>
      <trkpt lat="45.13201" lon="5.58491">
        <ele>998.6</ele>
        <time>2021-08-30T14:17:29Z</time>
      </trkpt>
      <trkpt lat="45.13199" lon="5.58489">
        <ele>998.8</ele>
        <time>2021-08-30T14:17:30Z</time>
      </trkpt>
      <trkpt lat="45.13198" lon="5.58487">
        <ele>999</ele>
        <time>2021-08-30T14:17:32Z</time>
      </trkpt>
      <trkpt lat="45.13197" lon="5.58486">
        <ele>999.1</ele>
        <time>2021-08-30T14:17:33Z</time>
      </trkpt>
      <trkpt lat="45.13196" lon="5.58485">
        <ele>999.2</ele>
        <time>2021-08-30T14:17:34Z</time>
      </trkpt>
      <trkpt lat="45.13196" lon="5.58484">
        <ele>999.3</ele>
        <time>2021-08-30T14:17:36Z</time>
      </trkpt>
      <trkpt lat="45.13195" lon="5.58484">
        <ele>999.3</ele>
        <time>2021-08-30T14:17:37Z</time>
      </trkpt>
      <trkpt lat="45.13195" lon="5.58483">
        <ele>999.4</ele>
        <time>2021-08-30T14:17:38Z</time>
      </trkpt>
      <trkpt lat="45.13193" lon="5.58481">
        <ele>999.6</ele>
        <time>2021-08-30T14:17:39Z</time>
      </trkpt>
      <trkpt lat="45.13193" lon="5.58479">
        <ele>999.7</ele>
        <time>2021-08-30T14:17:40Z</time>
      </trkpt>
      <trkpt lat="45.13192" lon="5.58477">
        <ele>999.9</ele>
        <time>2021-08-30T14:17:41Z</time>
      </trkpt>
      <trkpt lat="45.13191" lon="5.58474">
        <ele>1000.1</ele>
        <time>2021-08-30T14:17:42Z</time>
      </trkpt>
      <trkpt lat="45.1319" lon="5.5847">
        <ele>1000.4</ele>
        <time>2021-08-30T14:17:43Z</time>
      </trkpt>
      <trkpt lat="45.13189" lon="5.58469">
        <ele>1000.4</ele>
        <time>2021-08-30T14:17:44Z</time>
      </trkpt>
      <trkpt lat="45.13187" lon="5.58464">
        <ele>1000.8</ele>
        <time>2021-08-30T14:17:46Z</time>
      </trkpt>
      <trkpt lat="45.13184" lon="5.58459">
        <ele>1001.2</ele>
        <time>2021-08-30T14:17:47Z</time>
      </trkpt>
      <trkpt lat="45.13183" lon="5.58457">
        <ele>1001.3</ele>
        <time>2021-08-30T14:17:48Z</time>
      </trkpt>
      <trkpt lat="45.13181" lon="5.58452">
        <ele>1001.7</ele>
        <time>2021-08-30T14:17:50Z</time>
      </trkpt>
      <trkpt lat="45.13179" lon="5.58446">
        <ele>1002</ele>
        <time>2021-08-30T14:17:51Z</time>
      </trkpt>
      <trkpt lat="45.13179" lon="5.58444">
        <ele>1002.1</ele>
        <time>2021-08-30T14:17:52Z</time>
      </trkpt>
      <trkpt lat="45.1318" lon="5.58442">
        <ele>1002.2</ele>
        <time>2021-08-30T14:17:54Z</time>
      </trkpt>
      <trkpt lat="45.1318" lon="5.5844">
        <ele>1002.3</ele>
        <time>2021-08-30T14:17:55Z</time>
      </trkpt>
      <trkpt lat="45.13182" lon="5.58439">
        <ele>1002.4</ele>
        <time>2021-08-30T14:17:56Z</time>
      </trkpt>
      <trkpt lat="45.13183" lon="5.58438">
        <ele>1002.5</ele>
        <time>2021-08-30T14:17:57Z</time>
      </trkpt>
      <trkpt lat="45.13143" lon="5.58416">
        <ele>1004.6</ele>
        <time>2021-08-30T14:19:23Z</time>
      </trkpt>
      <trkpt lat="45.13142" lon="5.58413">
        <ele>1004.7</ele>
        <time>2021-08-30T14:19:24Z</time>
      </trkpt>
      <trkpt lat="45.13141" lon="5.58409">
        <ele>1004.7</ele>
        <time>2021-08-30T14:19:26Z</time>
      </trkpt>
      <trkpt lat="45.1314" lon="5.58407">
        <ele>1004.8</ele>
        <time>2021-08-30T14:19:27Z</time>
      </trkpt>
      <trkpt lat="45.13139" lon="5.58405">
        <ele>1004.8</ele>
        <time>2021-08-30T14:19:29Z</time>
      </trkpt>
      <trkpt lat="45.13138" lon="5.58403">
        <ele>1004.9</ele>
        <time>2021-08-30T14:19:30Z</time>
      </trkpt>
      <trkpt lat="45.13136" lon="5.58402">
        <ele>1005</ele>
        <time>2021-08-30T14:19:32Z</time>
      </trkpt>
      <trkpt lat="45.13135" lon="5.58401">
        <ele>1005</ele>
        <time>2021-08-30T14:19:33Z</time>
      </trkpt>
      <trkpt lat="45.1313" lon="5.584">
        <ele>1005</ele>
        <time>2021-08-30T14:19:35Z</time>
      </trkpt>
      <trkpt lat="45.13124" lon="5.584">
        <ele>1005</ele>
        <time>2021-08-30T14:19:36Z</time>
      </trkpt>
      <trkpt lat="45.13119" lon="5.58399">
        <ele>1005</ele>
        <time>2021-08-30T14:19:38Z</time>
      </trkpt>
      <trkpt lat="45.13111" lon="5.58398">
        <ele>1005</ele>
        <time>2021-08-30T14:19:39Z</time>
      </trkpt>
      <trkpt lat="45.13105" lon="5.58397">
        <ele>1005</ele>
        <time>2021-08-30T14:19:41Z</time>
      </trkpt>
      <trkpt lat="45.13102" lon="5.58397">
        <ele>1005</ele>
        <time>2021-08-30T14:19:42Z</time>
      </trkpt>
      <trkpt lat="45.131" lon="5.58398">
        <ele>1005</ele>
        <time>2021-08-30T14:19:43Z</time>
      </trkpt>
      <trkpt lat="45.13096" lon="5.584">
        <ele>1005.1</ele>
        <time>2021-08-30T14:19:45Z</time>
      </trkpt>
      <trkpt lat="45.13093" lon="5.58401">
        <ele>1005.1</ele>
        <time>2021-08-30T14:19:46Z</time>
      </trkpt>
      <trkpt lat="45.13052" lon="5.58475">
        <ele>1005.3</ele>
        <time>2021-08-30T14:20:01Z</time>
      </trkpt>
      <trkpt lat="45.13045" lon="5.58484">
        <ele>1005.4</ele>
        <time>2021-08-30T14:20:03Z</time>
      </trkpt>
      <trkpt lat="45.13042" lon="5.58486">
        <ele>1006</ele>
        <time>2021-08-30T14:20:05Z</time>
      </trkpt>
      <trkpt lat="45.13041" lon="5.58486">
        <ele>1006</ele>
        <time>2021-08-30T14:20:06Z</time>
      </trkpt>
      <trkpt lat="45.1304" lon="5.58486">
        <ele>1006</ele>
        <time>2021-08-30T14:20:07Z</time>
      </trkpt>
      <trkpt lat="45.13039" lon="5.58485">
        <ele>1006</ele>
        <time>2021-08-30T14:20:09Z</time>
      </trkpt>
      <trkpt lat="45.13038" lon="5.58485">
        <ele>1006</ele>
        <time>2021-08-30T14:20:10Z</time>
      </trkpt>
      <trkpt lat="45.13037" lon="5.58485">
        <ele>1006.1</ele>
        <time>2021-08-30T14:20:11Z</time>
      </trkpt>
      <trkpt lat="45.13034" lon="5.58482">
        <ele>1006.1</ele>
        <time>2021-08-30T14:20:12Z</time>
      </trkpt>
      <trkpt lat="45.1303" lon="5.58479">
        <ele>1006.2</ele>
        <time>2021-08-30T14:20:13Z</time>
      </trkpt>
      <trkpt lat="45.13025" lon="5.58476">
        <ele>1006.3</ele>
        <time>2021-08-30T14:20:15Z</time>
      </trkpt>
      <trkpt lat="45.1302" lon="5.58474">
        <ele>1006.4</ele>
        <time>2021-08-30T14:20:16Z</time>
      </trkpt>
      <trkpt lat="45.13018" lon="5.5847">
        <ele>1006.4</ele>
        <time>2021-08-30T14:20:17Z</time>
      </trkpt>
      <trkpt lat="45.13013" lon="5.58465">
        <ele>1006.5</ele>
        <time>2021-08-30T14:20:19Z</time>
      </trkpt>
      <trkpt lat="45.13011" lon="5.58462">
        <ele>1006.6</ele>
        <time>2021-08-30T14:20:20Z</time>
      </trkpt>
      <trkpt lat="45.13009" lon="5.58461">
        <ele>1006.6</ele>
        <time>2021-08-30T14:20:22Z</time>
      </trkpt>
      <trkpt lat="45.13008" lon="5.58459">
        <ele>1006.6</ele>
        <time>2021-08-30T14:20:23Z</time>
      </trkpt>
      <trkpt lat="45.13006" lon="5.58457">
        <ele>1006.7</ele>
        <time>2021-08-30T14:20:24Z</time>
      </trkpt>
      <trkpt lat="45.13004" lon="5.58455">
        <ele>1006.7</ele>
        <time>2021-08-30T14:20:25Z</time>
      </trkpt>
      <trkpt lat="45.12999" lon="5.58451">
        <ele>1006.8</ele>
        <time>2021-08-30T14:20:27Z</time>
      </trkpt>
      <trkpt lat="45.12994" lon="5.5845">
        <ele>1006.8</ele>
        <time>2021-08-30T14:20:28Z</time>
      </trkpt>
      <trkpt lat="45.12989" lon="5.58449">
        <ele>1006.9</ele>
        <time>2021-08-30T14:20:29Z</time>
      </trkpt>
      <trkpt lat="45.12983" lon="5.58448">
        <ele>1007</ele>
        <time>2021-08-30T14:20:30Z</time>
      </trkpt>
      <trkpt lat="45.12976" lon="5.58445">
        <ele>1007.1</ele>
        <time>2021-08-30T14:20:31Z</time>
      </trkpt>
      <trkpt lat="45.12967" lon="5.58443">
        <ele>1007.2</ele>
        <time>2021-08-30T14:20:33Z</time>
      </trkpt>
      <trkpt lat="45.12962" lon="5.5844">
        <ele>1007.3</ele>
        <time>2021-08-30T14:20:34Z</time>
      </trkpt>
      <trkpt lat="45.12958" lon="5.58439">
        <ele>1007.4</ele>
        <time>2021-08-30T14:20:35Z</time>
      </trkpt>
      <trkpt lat="45.12951" lon="5.58436">
        <ele>1007.5</ele>
        <time>2021-08-30T14:20:37Z</time>
      </trkpt>
      <trkpt lat="45.12951" lon="5.58435">
        <ele>1007.5</ele>
        <time>2021-08-30T14:20:38Z</time>
      </trkpt>
      <trkpt lat="45.12951" lon="5.58435">
        <ele>1007.5</ele>
        <time>2021-08-30T14:20:39Z</time>
      </trkpt>
      <trkpt lat="45.12951" lon="5.58432">
        <ele>1007.5</ele>
        <time>2021-08-30T14:20:41Z</time>
      </trkpt>
      <trkpt lat="45.12952" lon="5.58431">
        <ele>1007.5</ele>
        <time>2021-08-30T14:20:42Z</time>
      </trkpt>
      <trkpt lat="45.12953" lon="5.5843">
        <ele>1007.5</ele>
        <time>2021-08-30T14:20:43Z</time>
      </trkpt>
      <trkpt lat="45.12954" lon="5.5843">
        <ele>1007.5</ele>
        <time>2021-08-30T14:20:44Z</time>
      </trkpt>
      <trkpt lat="45.12954" lon="5.5843">
        <ele>1007.5</ele>
        <time>2021-08-30T14:20:45Z</time>
      </trkpt>
      <trkpt lat="45.12954" lon="5.5843">
        <ele>1007.5</ele>
        <time>2021-08-30T14:20:47Z</time>
      </trkpt>
      <trkpt lat="45.12954" lon="5.5843">
        <ele>1007.5</ele>
        <time>2021-08-30T14:20:48Z</time>
      </trkpt>
      <trkpt lat="45.12954" lon="5.5843">
        <ele>1007.5</ele>
        <time>2021-08-30T14:20:49Z</time>
      </trkpt>
      <trkpt lat="45.12936" lon="5.58433">
        <ele>1008.9</ele>
        <time>2021-08-30T14:21:47Z</time>
      </trkpt>
      <trkpt lat="45.12934" lon="5.58437">
        <ele>1009.4</ele>
        <time>2021-08-30T14:21:48Z</time>
      </trkpt>
      <trkpt lat="45.12931" lon="5.58444">
        <ele>1009.6</ele>
        <time>2021-08-30T14:21:50Z</time>
      </trkpt>
      <trkpt lat="45.12929" lon="5.58448">
        <ele>1009.8</ele>
        <time>2021-08-30T14:21:51Z</time>
      </trkpt>
      <trkpt lat="45.12927" lon="5.58455">
        <ele>1010</ele>
        <time>2021-08-30T14:21:53Z</time>
      </trkpt>
      <trkpt lat="45.12925" lon="5.5846">
        <ele>1010.2</ele>
        <time>2021-08-30T14:21:54Z</time>
      </trkpt>
      <trkpt lat="45.12924" lon="5.58464">
        <ele>1009.8</ele>
        <time>2021-08-30T14:21:55Z</time>
      </trkpt>
      <trkpt lat="45.12924" lon="5.58469">
        <ele>1009.5</ele>
        <time>2021-08-30T14:21:57Z</time>
      </trkpt>
      <trkpt lat="45.12925" lon="5.58476">
        <ele>1009.1</ele>
        <time>2021-08-30T14:21:58Z</time>
      </trkpt>
      <trkpt lat="45.12927" lon="5.58478">
        <ele>1009</ele>
        <time>2021-08-30T14:21:59Z</time>
      </trkpt>
      <trkpt lat="45.12929" lon="5.58478">
        <ele>1008.8</ele>
        <time>2021-08-30T14:22:01Z</time>
      </trkpt>
      <trkpt lat="45.12932" lon="5.58477">
        <ele>1008.5</ele>
        <time>2021-08-30T14:22:02Z</time>
      </trkpt>
      <trkpt lat="45.12933" lon="5.58478">
        <ele>1008.5</ele>
        <time>2021-08-30T14:22:03Z</time>
      </trkpt>
      <trkpt lat="45.12933" lon="5.58475">
        <ele>1008.3</ele>
        <time>2021-08-30T14:22:05Z</time>
      </trkpt>
      <trkpt lat="45.12934" lon="5.58473">
        <ele>1008</ele>
        <time>2021-08-30T14:22:07Z</time>
      </trkpt>
      <trkpt lat="45.12937" lon="5.58472">
        <ele>1008</ele>
        <time>2021-08-30T14:22:08Z</time>
      </trkpt>
      <trkpt lat="45.12937" lon="5.58471">
        <ele>1008</ele>
        <time>2021-08-30T14:22:10Z</time>
      </trkpt>
      <trkpt lat="45.12937" lon="5.58471">
        <ele>1008</ele>
        <time>2021-08-30T14:22:11Z</time>
      </trkpt>
      <trkpt lat="45.12936" lon="5.5847">
        <ele>1008</ele>
        <time>2021-08-30T14:22:12Z</time>
      </trkpt>
      <trkpt lat="45.12936" lon="5.5847">
        <ele>1008</ele>
        <time>2021-08-30T14:22:13Z</time>
      </trkpt>
      <trkpt lat="45.12937" lon="5.58468">
        <ele>1008</ele>
        <time>2021-08-30T14:22:15Z</time>
      </trkpt>
      <trkpt lat="45.12938" lon="5.58468">
        <ele>1008</ele>
        <time>2021-08-30T14:22:16Z</time>
      </trkpt>
      <trkpt lat="45.12936" lon="5.58479">
        <ele>1008.1</ele>
        <time>2021-08-30T14:22:18Z</time>
      </trkpt>
      <trkpt lat="45.12933" lon="5.58491">
        <ele>1008.3</ele>
        <time>2021-08-30T14:23:10Z</time>
      </trkpt>
      <trkpt lat="45.12929" lon="5.58503">
        <ele>1008.4</ele>
        <time>2021-08-30T14:23:11Z</time>
      </trkpt>
      <trkpt lat="45.12929" lon="5.5851">
        <ele>1008.5</ele>
        <time>2021-08-30T14:23:12Z</time>
      </trkpt>
      <trkpt lat="45.12929" lon="5.58518">
        <ele>1008.6</ele>
        <time>2021-08-30T14:23:13Z</time>
      </trkpt>
      <trkpt lat="45.12927" lon="5.58532">
        <ele>1008.8</ele>
        <time>2021-08-30T14:23:15Z</time>
      </trkpt>
      <trkpt lat="45.12925" lon="5.58543">
        <ele>1009</ele>
        <time>2021-08-30T14:23:17Z</time>
      </trkpt>
      <trkpt lat="45.12924" lon="5.58549">
        <ele>1009.1</ele>
        <time>2021-08-30T14:23:18Z</time>
      </trkpt>
      <trkpt lat="45.12922" lon="5.58558">
        <ele>1009.2</ele>
        <time>2021-08-30T14:23:19Z</time>
      </trkpt>
      <trkpt lat="45.12919" lon="5.58568">
        <ele>1009.3</ele>
        <time>2021-08-30T14:23:21Z</time>
      </trkpt>
      <trkpt lat="45.12917" lon="5.58574">
        <ele>1009.4</ele>
        <time>2021-08-30T14:23:22Z</time>
      </trkpt>
      <trkpt lat="45.12915" lon="5.58579">
        <ele>1009.5</ele>
        <time>2021-08-30T14:23:23Z</time>
      </trkpt>
      <trkpt lat="45.12913" lon="5.58584">
        <ele>1009.5</ele>
        <time>2021-08-30T14:23:24Z</time>
      </trkpt>
      <trkpt lat="45.12911" lon="5.58589">
        <ele>1009.6</ele>
        <time>2021-08-30T14:23:25Z</time>
      </trkpt>
      <trkpt lat="45.12907" lon="5.58598">
        <ele>1009.7</ele>
        <time>2021-08-30T14:23:27Z</time>
      </trkpt>
      <trkpt lat="45.12905" lon="5.58604">
        <ele>1009.8</ele>
        <time>2021-08-30T14:23:28Z</time>
      </trkpt>
      <trkpt lat="45.12902" lon="5.5861">
        <ele>1009.8</ele>
        <time>2021-08-30T14:23:29Z</time>
      </trkpt>
      <trkpt lat="45.12896" lon="5.58623">
        <ele>1010.1</ele>
        <time>2021-08-30T14:23:31Z</time>
      </trkpt>
      <trkpt lat="45.12893" lon="5.58631">
        <ele>1010.2</ele>
        <time>2021-08-30T14:23:33Z</time>
      </trkpt>
      <trkpt lat="45.1289" lon="5.58639">
        <ele>1010.3</ele>
        <time>2021-08-30T14:23:35Z</time>
      </trkpt>
      <trkpt lat="45.12888" lon="5.58644">
        <ele>1010.4</ele>
        <time>2021-08-30T14:23:36Z</time>
      </trkpt>
      <trkpt lat="45.12884" lon="5.58656">
        <ele>1010.5</ele>
        <time>2021-08-30T14:23:37Z</time>
      </trkpt>
      <trkpt lat="45.12882" lon="5.5866">
        <ele>1010.6</ele>
        <time>2021-08-30T14:23:38Z</time>
      </trkpt>
      <trkpt lat="45.12879" lon="5.58669">
        <ele>1010.8</ele>
        <time>2021-08-30T14:23:40Z</time>
      </trkpt>
      <trkpt lat="45.12878" lon="5.58673">
        <ele>1010.8</ele>
        <time>2021-08-30T14:23:41Z</time>
      </trkpt>
      <trkpt lat="45.12878" lon="5.58678">
        <ele>1010.9</ele>
        <time>2021-08-30T14:23:42Z</time>
      </trkpt>
      <trkpt lat="45.12877" lon="5.58683">
        <ele>1010.9</ele>
        <time>2021-08-30T14:23:43Z</time>
      </trkpt>
      <trkpt lat="45.12875" lon="5.58687">
        <ele>1011</ele>
        <time>2021-08-30T14:23:44Z</time>
      </trkpt>
      <trkpt lat="45.12874" lon="5.58692">
        <ele>1011.1</ele>
        <time>2021-08-30T14:23:45Z</time>
      </trkpt>
      <trkpt lat="45.12874" lon="5.58697">
        <ele>1011.1</ele>
        <time>2021-08-30T14:23:46Z</time>
      </trkpt>
      <trkpt lat="45.12874" lon="5.58702">
        <ele>1011.2</ele>
        <time>2021-08-30T14:23:47Z</time>
      </trkpt>
      <trkpt lat="45.12874" lon="5.58712">
        <ele>1011.3</ele>
        <time>2021-08-30T14:23:49Z</time>
      </trkpt>
      <trkpt lat="45.12876" lon="5.58718">
        <ele>1011.4</ele>
        <time>2021-08-30T14:23:51Z</time>
      </trkpt>
      <trkpt lat="45.12876" lon="5.58726">
        <ele>1011.6</ele>
        <time>2021-08-30T14:23:52Z</time>
      </trkpt>
      <trkpt lat="45.12875" lon="5.5873">
        <ele>1011.6</ele>
        <time>2021-08-30T14:23:53Z</time>
      </trkpt>
      <trkpt lat="45.12873" lon="5.58736">
        <ele>1011.7</ele>
        <time>2021-08-30T14:23:54Z</time>
      </trkpt>
      <trkpt lat="45.12872" lon="5.58742">
        <ele>1011.9</ele>
        <time>2021-08-30T14:23:56Z</time>
      </trkpt>
      <trkpt lat="45.12871" lon="5.58748">
        <ele>1011.9</ele>
        <time>2021-08-30T14:23:57Z</time>
      </trkpt>
      <trkpt lat="45.1287" lon="5.58754">
        <ele>1012</ele>
        <time>2021-08-30T14:23:58Z</time>
      </trkpt>
      <trkpt lat="45.12869" lon="5.5876">
        <ele>1012.1</ele>
        <time>2021-08-30T14:23:59Z</time>
      </trkpt>
      <trkpt lat="45.12868" lon="5.58764">
        <ele>1012.2</ele>
        <time>2021-08-30T14:24:00Z</time>
      </trkpt>
      <trkpt lat="45.12866" lon="5.58769">
        <ele>1012.3</ele>
        <time>2021-08-30T14:24:01Z</time>
      </trkpt>
      <trkpt lat="45.12862" lon="5.58778">
        <ele>1012.5</ele>
        <time>2021-08-30T14:24:03Z</time>
      </trkpt>
      <trkpt lat="45.12856" lon="5.58788">
        <ele>1012.7</ele>
        <time>2021-08-30T14:24:04Z</time>
      </trkpt>
      <trkpt lat="45.12854" lon="5.58794">
        <ele>1012.8</ele>
        <time>2021-08-30T14:24:05Z</time>
      </trkpt>
      <trkpt lat="45.12849" lon="5.58801">
        <ele>1013</ele>
        <time>2021-08-30T14:24:07Z</time>
      </trkpt>
      <trkpt lat="45.12846" lon="5.58805">
        <ele>1013.1</ele>
        <time>2021-08-30T14:24:08Z</time>
      </trkpt>
      <trkpt lat="45.1284" lon="5.58814">
        <ele>1013.3</ele>
        <time>2021-08-30T14:24:10Z</time>
      </trkpt>
      <trkpt lat="45.12838" lon="5.58817">
        <ele>1013.4</ele>
        <time>2021-08-30T14:24:11Z</time>
      </trkpt>
      <trkpt lat="45.12835" lon="5.58822">
        <ele>1013.5</ele>
        <time>2021-08-30T14:24:13Z</time>
      </trkpt>
      <trkpt lat="45.12832" lon="5.5883">
        <ele>1013.7</ele>
        <time>2021-08-30T14:24:14Z</time>
      </trkpt>
      <trkpt lat="45.12831" lon="5.58837">
        <ele>1013.9</ele>
        <time>2021-08-30T14:24:16Z</time>
      </trkpt>
      <trkpt lat="45.1283" lon="5.58844">
        <ele>1014.1</ele>
        <time>2021-08-30T14:24:17Z</time>
      </trkpt>
      <trkpt lat="45.12829" lon="5.58849">
        <ele>1014.3</ele>
        <time>2021-08-30T14:24:18Z</time>
      </trkpt>
      <trkpt lat="45.12828" lon="5.58858">
        <ele>1014.5</ele>
        <time>2021-08-30T14:24:20Z</time>
      </trkpt>
      <trkpt lat="45.12826" lon="5.58865">
        <ele>1014.7</ele>
        <time>2021-08-30T14:24:22Z</time>
      </trkpt>
      <trkpt lat="45.12825" lon="5.5887">
        <ele>1014.8</ele>
        <time>2021-08-30T14:24:23Z</time>
      </trkpt>
      <trkpt lat="45.12824" lon="5.58876">
        <ele>1014.9</ele>
        <time>2021-08-30T14:24:25Z</time>
      </trkpt>
      <trkpt lat="45.12823" lon="5.5888">
        <ele>1015</ele>
        <time>2021-08-30T14:24:26Z</time>
      </trkpt>
      <trkpt lat="45.12822" lon="5.58884">
        <ele>1015.1</ele>
        <time>2021-08-30T14:24:27Z</time>
      </trkpt>
      <trkpt lat="45.1282" lon="5.5889">
        <ele>1015.2</ele>
        <time>2021-08-30T14:24:28Z</time>
      </trkpt>
      <trkpt lat="45.12817" lon="5.58895">
        <ele>1015.3</ele>
        <time>2021-08-30T14:24:29Z</time>
      </trkpt>
      <trkpt lat="45.12815" lon="5.589">
        <ele>1015.4</ele>
        <time>2021-08-30T14:24:31Z</time>
      </trkpt>
      <trkpt lat="45.12814" lon="5.58904">
        <ele>1015.4</ele>
        <time>2021-08-30T14:24:32Z</time>
      </trkpt>
      <trkpt lat="45.12812" lon="5.58908">
        <ele>1015.5</ele>
        <time>2021-08-30T14:24:33Z</time>
      </trkpt>
      <trkpt lat="45.12809" lon="5.58911">
        <ele>1015.5</ele>
        <time>2021-08-30T14:24:34Z</time>
      </trkpt>
      <trkpt lat="45.12807" lon="5.58912">
        <ele>1015.6</ele>
        <time>2021-08-30T14:24:35Z</time>
      </trkpt>
      <trkpt lat="45.12803" lon="5.58913">
        <ele>1015.6</ele>
        <time>2021-08-30T14:24:37Z</time>
      </trkpt>
      <trkpt lat="45.128" lon="5.58914">
        <ele>1015.6</ele>
        <time>2021-08-30T14:24:38Z</time>
      </trkpt>
      <trkpt lat="45.12795" lon="5.58916">
        <ele>1015.7</ele>
        <time>2021-08-30T14:24:39Z</time>
      </trkpt>
      <trkpt lat="45.1279" lon="5.58917">
        <ele>1015.7</ele>
        <time>2021-08-30T14:24:40Z</time>
      </trkpt>
      <trkpt lat="45.12785" lon="5.58918">
        <ele>1015.8</ele>
        <time>2021-08-30T14:24:42Z</time>
      </trkpt>
      <trkpt lat="45.1278" lon="5.5892">
        <ele>1015.8</ele>
        <time>2021-08-30T14:24:43Z</time>
      </trkpt>
      <trkpt lat="45.12775" lon="5.58921">
        <ele>1015.9</ele>
        <time>2021-08-30T14:24:45Z</time>
      </trkpt>
      <trkpt lat="45.12771" lon="5.58922">
        <ele>1015.9</ele>
        <time>2021-08-30T14:24:46Z</time>
      </trkpt>
      <trkpt lat="45.12767" lon="5.58922">
        <ele>1015.9</ele>
        <time>2021-08-30T14:24:47Z</time>
      </trkpt>
      <trkpt lat="45.12761" lon="5.58923">
        <ele>1015.9</ele>
        <time>2021-08-30T14:24:48Z</time>
      </trkpt>
      <trkpt lat="45.12753" lon="5.58925">
        <ele>1016</ele>
        <time>2021-08-30T14:24:50Z</time>
      </trkpt>
      <trkpt lat="45.12748" lon="5.58925">
        <ele>1016</ele>
        <time>2021-08-30T14:24:51Z</time>
      </trkpt>
      <trkpt lat="45.12743" lon="5.58924">
        <ele>1016</ele>
        <time>2021-08-30T14:24:52Z</time>
      </trkpt>
      <trkpt lat="45.12738" lon="5.58922">
        <ele>1016.1</ele>
        <time>2021-08-30T14:24:53Z</time>
      </trkpt>
      <trkpt lat="45.1273" lon="5.58919">
        <ele>1016.1</ele>
        <time>2021-08-30T14:24:55Z</time>
      </trkpt>
      <trkpt lat="45.12722" lon="5.58917">
        <ele>1016.1</ele>
        <time>2021-08-30T14:24:56Z</time>
      </trkpt>
      <trkpt lat="45.12717" lon="5.58917">
        <ele>1016.1</ele>
        <time>2021-08-30T14:24:57Z</time>
      </trkpt>
      <trkpt lat="45.12713" lon="5.58916">
        <ele>1016.1</ele>
        <time>2021-08-30T14:24:58Z</time>
      </trkpt>
      <trkpt lat="45.12703" lon="5.58915">
        <ele>1016.2</ele>
        <time>2021-08-30T14:25:00Z</time>
      </trkpt>
      <trkpt lat="45.12699" lon="5.58914">
        <ele>1016.3</ele>
        <time>2021-08-30T14:25:01Z</time>
      </trkpt>
      <trkpt lat="45.1269" lon="5.58916">
        <ele>1016.4</ele>
        <time>2021-08-30T14:25:02Z</time>
      </trkpt>
      <trkpt lat="45.12684" lon="5.58917">
        <ele>1016.5</ele>
        <time>2021-08-30T14:25:04Z</time>
      </trkpt>
      <trkpt lat="45.1268" lon="5.58919">
        <ele>1016.5</ele>
        <time>2021-08-30T14:25:06Z</time>
      </trkpt>
      <trkpt lat="45.12679" lon="5.5892">
        <ele>1016.5</ele>
        <time>2021-08-30T14:25:07Z</time>
      </trkpt>
      <trkpt lat="45.12676" lon="5.58922">
        <ele>1016.6</ele>
        <time>2021-08-30T14:25:08Z</time>
      </trkpt>
      <trkpt lat="45.12674" lon="5.58924">
        <ele>1016.6</ele>
        <time>2021-08-30T14:25:09Z</time>
      </trkpt>
      <trkpt lat="45.12671" lon="5.58926">
        <ele>1016.6</ele>
        <time>2021-08-30T14:25:10Z</time>
      </trkpt>
      <trkpt lat="45.12668" lon="5.58928">
        <ele>1016.7</ele>
        <time>2021-08-30T14:25:11Z</time>
      </trkpt>
      <trkpt lat="45.12665" lon="5.5893">
        <ele>1016.7</ele>
        <time>2021-08-30T14:25:13Z</time>
      </trkpt>
      <trkpt lat="45.1266" lon="5.58932">
        <ele>1016.8</ele>
        <time>2021-08-30T14:25:17Z</time>
      </trkpt>
      <trkpt lat="45.12653" lon="5.58938">
        <ele>1016.9</ele>
        <time>2021-08-30T14:25:18Z</time>
      </trkpt>
      <trkpt lat="45.12646" lon="5.58946">
        <ele>1017</ele>
        <time>2021-08-30T14:25:19Z</time>
      </trkpt>
      <trkpt lat="45.1264" lon="5.58955">
        <ele>1017.1</ele>
        <time>2021-08-30T14:25:20Z</time>
      </trkpt>
      <trkpt lat="45.12636" lon="5.58961">
        <ele>1017.2</ele>
        <time>2021-08-30T14:25:21Z</time>
      </trkpt>
      <trkpt lat="45.12628" lon="5.5897">
        <ele>1017.3</ele>
        <time>2021-08-30T14:25:23Z</time>
      </trkpt>
      <trkpt lat="45.12622" lon="5.58977">
        <ele>1017.4</ele>
        <time>2021-08-30T14:25:25Z</time>
      </trkpt>
      <trkpt lat="45.12618" lon="5.5898">
        <ele>1017.4</ele>
        <time>2021-08-30T14:25:26Z</time>
      </trkpt>
      <trkpt lat="45.12614" lon="5.58984">
        <ele>1017.4</ele>
        <time>2021-08-30T14:25:27Z</time>
      </trkpt>
      <trkpt lat="45.12609" lon="5.58987">
        <ele>1017.5</ele>
        <time>2021-08-30T14:25:28Z</time>
      </trkpt>
      <trkpt lat="45.12603" lon="5.58991">
        <ele>1017.5</ele>
        <time>2021-08-30T14:25:30Z</time>
      </trkpt>
      <trkpt lat="45.126" lon="5.58993">
        <ele>1017.5</ele>
        <time>2021-08-30T14:25:31Z</time>
      </trkpt>
      <trkpt lat="45.12596" lon="5.58996">
        <ele>1017.5</ele>
        <time>2021-08-30T14:25:32Z</time>
      </trkpt>
      <trkpt lat="45.12593" lon="5.58999">
        <ele>1017.5</ele>
        <time>2021-08-30T14:25:33Z</time>
      </trkpt>
      <trkpt lat="45.1259" lon="5.59001">
        <ele>1017.6</ele>
        <time>2021-08-30T14:25:34Z</time>
      </trkpt>
      <trkpt lat="45.12586" lon="5.59002">
        <ele>1017.5</ele>
        <time>2021-08-30T14:25:35Z</time>
      </trkpt>
      <trkpt lat="45.12585" lon="5.59002">
        <ele>1017.5</ele>
        <time>2021-08-30T14:25:36Z</time>
      </trkpt>
      <trkpt lat="45.12581" lon="5.59">
        <ele>1017.5</ele>
        <time>2021-08-30T14:25:37Z</time>
      </trkpt>
      <trkpt lat="45.1258" lon="5.58999">
        <ele>1017.5</ele>
        <time>2021-08-30T14:25:38Z</time>
      </trkpt>
      <trkpt lat="45.12577" lon="5.58998">
        <ele>1017.5</ele>
        <time>2021-08-30T14:25:39Z</time>
      </trkpt>
      <trkpt lat="45.12575" lon="5.58997">
        <ele>1017.5</ele>
        <time>2021-08-30T14:25:40Z</time>
      </trkpt>
      <trkpt lat="45.1257" lon="5.58995">
        <ele>1017.5</ele>
        <time>2021-08-30T14:25:42Z</time>
      </trkpt>
      <trkpt lat="45.12564" lon="5.58994">
        <ele>1017.5</ele>
        <time>2021-08-30T14:25:44Z</time>
      </trkpt>
      <trkpt lat="45.1256" lon="5.58995">
        <ele>1017.4</ele>
        <time>2021-08-30T14:25:45Z</time>
      </trkpt>
      <trkpt lat="45.12554" lon="5.58996">
        <ele>1017.4</ele>
        <time>2021-08-30T14:25:47Z</time>
      </trkpt>
      <trkpt lat="45.12548" lon="5.58998">
        <ele>1017.3</ele>
        <time>2021-08-30T14:25:48Z</time>
      </trkpt>
      <trkpt lat="45.12545" lon="5.59">
        <ele>1017.2</ele>
        <time>2021-08-30T14:25:49Z</time>
      </trkpt>
      <trkpt lat="45.12542" lon="5.59002">
        <ele>1017.2</ele>
        <time>2021-08-30T14:25:50Z</time>
      </trkpt>
      <trkpt lat="45.12539" lon="5.59004">
        <ele>1017.2</ele>
        <time>2021-08-30T14:25:51Z</time>
      </trkpt>
      <trkpt lat="45.12531" lon="5.59008">
        <ele>1017.1</ele>
        <time>2021-08-30T14:25:53Z</time>
      </trkpt>
      <trkpt lat="45.12526" lon="5.59009">
        <ele>1016.9</ele>
        <time>2021-08-30T14:25:54Z</time>
      </trkpt>
      <trkpt lat="45.12522" lon="5.5901">
        <ele>1016.7</ele>
        <time>2021-08-30T14:25:55Z</time>
      </trkpt>
      <trkpt lat="45.12513" lon="5.59011">
        <ele>1016.3</ele>
        <time>2021-08-30T14:25:57Z</time>
      </trkpt>
      <trkpt lat="45.12508" lon="5.59012">
        <ele>1016.1</ele>
        <time>2021-08-30T14:25:58Z</time>
      </trkpt>
      <trkpt lat="45.12502" lon="5.59014">
        <ele>1015.7</ele>
        <time>2021-08-30T14:26:00Z</time>
      </trkpt>
      <trkpt lat="45.12498" lon="5.59021">
        <ele>1015.4</ele>
        <time>2021-08-30T14:26:01Z</time>
      </trkpt>
      <trkpt lat="45.12494" lon="5.59022">
        <ele>1015.2</ele>
        <time>2021-08-30T14:26:02Z</time>
      </trkpt>
      <trkpt lat="45.12489" lon="5.59022">
        <ele>1015</ele>
        <time>2021-08-30T14:26:03Z</time>
      </trkpt>
      <trkpt lat="45.12483" lon="5.59025">
        <ele>1014.6</ele>
        <time>2021-08-30T14:26:05Z</time>
      </trkpt>
      <trkpt lat="45.1248" lon="5.59027">
        <ele>1014.5</ele>
        <time>2021-08-30T14:26:06Z</time>
      </trkpt>
      <trkpt lat="45.12477" lon="5.59031">
        <ele>1014.3</ele>
        <time>2021-08-30T14:26:08Z</time>
      </trkpt>
      <trkpt lat="45.12474" lon="5.59036">
        <ele>1014</ele>
        <time>2021-08-30T14:26:09Z</time>
      </trkpt>
      <trkpt lat="45.12472" lon="5.5904">
        <ele>1013.9</ele>
        <time>2021-08-30T14:26:10Z</time>
      </trkpt>
      <trkpt lat="45.12469" lon="5.59044">
        <ele>1013.7</ele>
        <time>2021-08-30T14:26:11Z</time>
      </trkpt>
      <trkpt lat="45.12466" lon="5.59048">
        <ele>1013.5</ele>
        <time>2021-08-30T14:26:12Z</time>
      </trkpt>
      <trkpt lat="45.1246" lon="5.59051">
        <ele>1013.2</ele>
        <time>2021-08-30T14:26:14Z</time>
      </trkpt>
      <trkpt lat="45.12456" lon="5.59053">
        <ele>1013</ele>
        <time>2021-08-30T14:26:15Z</time>
      </trkpt>
      <trkpt lat="45.12448" lon="5.59058">
        <ele>1012.7</ele>
        <time>2021-08-30T14:26:17Z</time>
      </trkpt>
      <trkpt lat="45.12443" lon="5.59061">
        <ele>1012.5</ele>
        <time>2021-08-30T14:26:18Z</time>
      </trkpt>
      <trkpt lat="45.12437" lon="5.59064">
        <ele>1012.4</ele>
        <time>2021-08-30T14:26:19Z</time>
      </trkpt>
      <trkpt lat="45.12423" lon="5.59067">
        <ele>1012.2</ele>
        <time>2021-08-30T14:26:21Z</time>
      </trkpt>
      <trkpt lat="45.12416" lon="5.59067">
        <ele>1012.1</ele>
        <time>2021-08-30T14:26:22Z</time>
      </trkpt>
      <trkpt lat="45.12403" lon="5.59067">
        <ele>1011.9</ele>
        <time>2021-08-30T14:26:24Z</time>
      </trkpt>
      <trkpt lat="45.12397" lon="5.59067">
        <ele>1011.8</ele>
        <time>2021-08-30T14:26:25Z</time>
      </trkpt>
      <trkpt lat="45.1239" lon="5.59066">
        <ele>1011.7</ele>
        <time>2021-08-30T14:26:26Z</time>
      </trkpt>
      <trkpt lat="45.12374" lon="5.59065">
        <ele>1011.5</ele>
        <time>2021-08-30T14:26:28Z</time>
      </trkpt>
      <trkpt lat="45.12367" lon="5.59065">
        <ele>1011.5</ele>
        <time>2021-08-30T14:26:29Z</time>
      </trkpt>
      <trkpt lat="45.12354" lon="5.5907">
        <ele>1011.4</ele>
        <time>2021-08-30T14:26:31Z</time>
      </trkpt>
      <trkpt lat="45.12348" lon="5.59074">
        <ele>1011.4</ele>
        <time>2021-08-30T14:26:32Z</time>
      </trkpt>
      <trkpt lat="45.12343" lon="5.59078">
        <ele>1011.4</ele>
        <time>2021-08-30T14:26:33Z</time>
      </trkpt>
      <trkpt lat="45.1234" lon="5.59082">
        <ele>1011.4</ele>
        <time>2021-08-30T14:26:34Z</time>
      </trkpt>
      <trkpt lat="45.12337" lon="5.59087">
        <ele>1011.4</ele>
        <time>2021-08-30T14:26:36Z</time>
      </trkpt>
      <trkpt lat="45.12341" lon="5.59086">
        <ele>1011.5</ele>
        <time>2021-08-30T14:26:37Z</time>
      </trkpt>
      <trkpt lat="45.12341" lon="5.59085">
        <ele>1011.5</ele>
        <time>2021-08-30T14:26:39Z</time>
      </trkpt>
      <trkpt lat="45.1234" lon="5.59085">
        <ele>1011.5</ele>
        <time>2021-08-30T14:26:40Z</time>
      </trkpt>
      <trkpt lat="45.12342" lon="5.59081">
        <ele>1011.5</ele>
        <time>2021-08-30T14:26:42Z</time>
      </trkpt>
      <trkpt lat="45.12344" lon="5.59079">
        <ele>1011.6</ele>
        <time>2021-08-30T14:26:44Z</time>
      </trkpt>
      <trkpt lat="45.12349" lon="5.59067">
        <ele>1011.7</ele>
        <time>2021-08-30T14:26:57Z</time>
      </trkpt>
      <trkpt lat="45.12344" lon="5.59063">
        <ele>1011.8</ele>
        <time>2021-08-30T14:26:59Z</time>
      </trkpt>
      <trkpt lat="45.12337" lon="5.59055">
        <ele>1012</ele>
        <time>2021-08-30T14:27:00Z</time>
      </trkpt>
      <trkpt lat="45.1233" lon="5.59046">
        <ele>1012.2</ele>
        <time>2021-08-30T14:27:01Z</time>
      </trkpt>
      <trkpt lat="45.12322" lon="5.59036">
        <ele>1012.4</ele>
        <time>2021-08-30T14:27:03Z</time>
      </trkpt>
      <trkpt lat="45.12317" lon="5.5903">
        <ele>1012.5</ele>
        <time>2021-08-30T14:27:04Z</time>
      </trkpt>
      <trkpt lat="45.12311" lon="5.59022">
        <ele>1012.6</ele>
        <time>2021-08-30T14:27:06Z</time>
      </trkpt>
      <trkpt lat="45.12304" lon="5.59013">
        <ele>1012.8</ele>
        <time>2021-08-30T14:27:08Z</time>
      </trkpt>
      <trkpt lat="45.123" lon="5.59009">
        <ele>1012.9</ele>
        <time>2021-08-30T14:27:09Z</time>
      </trkpt>
      <trkpt lat="45.12298" lon="5.59004">
        <ele>1013</ele>
        <time>2021-08-30T14:27:10Z</time>
      </trkpt>
      <trkpt lat="45.12294" lon="5.58999">
        <ele>1013.1</ele>
        <time>2021-08-30T14:27:12Z</time>
      </trkpt>
      <trkpt lat="45.12292" lon="5.58996">
        <ele>1013.2</ele>
        <time>2021-08-30T14:27:13Z</time>
      </trkpt>
      <trkpt lat="45.12289" lon="5.58989">
        <ele>1013.3</ele>
        <time>2021-08-30T14:27:14Z</time>
      </trkpt>
      <trkpt lat="45.12287" lon="5.58985">
        <ele>1013.4</ele>
        <time>2021-08-30T14:27:15Z</time>
      </trkpt>
      <trkpt lat="45.12285" lon="5.58978">
        <ele>1013.5</ele>
        <time>2021-08-30T14:27:17Z</time>
      </trkpt>
      <trkpt lat="45.12284" lon="5.58974">
        <ele>1013.5</ele>
        <time>2021-08-30T14:27:18Z</time>
      </trkpt>
      <trkpt lat="45.12283" lon="5.5897">
        <ele>1013.6</ele>
        <time>2021-08-30T14:27:19Z</time>
      </trkpt>
      <trkpt lat="45.12281" lon="5.58966">
        <ele>1013.6</ele>
        <time>2021-08-30T14:27:20Z</time>
      </trkpt>
      <trkpt lat="45.12279" lon="5.58962">
        <ele>1013.7</ele>
        <time>2021-08-30T14:27:21Z</time>
      </trkpt>
      <trkpt lat="45.12276" lon="5.58953">
        <ele>1013.8</ele>
        <time>2021-08-30T14:27:23Z</time>
      </trkpt>
      <trkpt lat="45.12274" lon="5.58949">
        <ele>1013.8</ele>
        <time>2021-08-30T14:27:25Z</time>
      </trkpt>
      <trkpt lat="45.1227" lon="5.58941">
        <ele>1013.9</ele>
        <time>2021-08-30T14:27:27Z</time>
      </trkpt>
      <trkpt lat="45.12266" lon="5.58932">
        <ele>1014</ele>
        <time>2021-08-30T14:27:28Z</time>
      </trkpt>
      <trkpt lat="45.1226" lon="5.58922">
        <ele>1014.1</ele>
        <time>2021-08-30T14:27:30Z</time>
      </trkpt>
      <trkpt lat="45.12254" lon="5.58911">
        <ele>1014.1</ele>
        <time>2021-08-30T14:27:31Z</time>
      </trkpt>
      <trkpt lat="45.12251" lon="5.58905">
        <ele>1014.2</ele>
        <time>2021-08-30T14:27:32Z</time>
      </trkpt>
      <trkpt lat="45.12248" lon="5.58902">
        <ele>1014.2</ele>
        <time>2021-08-30T14:27:34Z</time>
      </trkpt>
      <trkpt lat="45.12243" lon="5.58895">
        <ele>1014.2</ele>
        <time>2021-08-30T14:27:35Z</time>
      </trkpt>
      <trkpt lat="45.12239" lon="5.58891">
        <ele>1014.2</ele>
        <time>2021-08-30T14:27:36Z</time>
      </trkpt>
      <trkpt lat="45.12234" lon="5.58882">
        <ele>1014.3</ele>
        <time>2021-08-30T14:27:38Z</time>
      </trkpt>
      <trkpt lat="45.12232" lon="5.58875">
        <ele>1014.3</ele>
        <time>2021-08-30T14:27:40Z</time>
      </trkpt>
      <trkpt lat="45.1223" lon="5.58869">
        <ele>1014.3</ele>
        <time>2021-08-30T14:27:41Z</time>
      </trkpt>
      <trkpt lat="45.12227" lon="5.58865">
        <ele>1014.3</ele>
        <time>2021-08-30T14:27:42Z</time>
      </trkpt>
      <trkpt lat="45.12223" lon="5.58859">
        <ele>1014.4</ele>
        <time>2021-08-30T14:27:43Z</time>
      </trkpt>
      <trkpt lat="45.12219" lon="5.58848">
        <ele>1014.4</ele>
        <time>2021-08-30T14:27:45Z</time>
      </trkpt>
      <trkpt lat="45.12216" lon="5.58841">
        <ele>1014.4</ele>
        <time>2021-08-30T14:27:46Z</time>
      </trkpt>
      <trkpt lat="45.12213" lon="5.58837">
        <ele>1014.5</ele>
        <time>2021-08-30T14:27:47Z</time>
      </trkpt>
      <trkpt lat="45.12209" lon="5.58831">
        <ele>1014.5</ele>
        <time>2021-08-30T14:27:49Z</time>
      </trkpt>
      <trkpt lat="45.12206" lon="5.58826">
        <ele>1014.6</ele>
        <time>2021-08-30T14:27:50Z</time>
      </trkpt>
      <trkpt lat="45.12204" lon="5.58821">
        <ele>1014.6</ele>
        <time>2021-08-30T14:27:51Z</time>
      </trkpt>
      <trkpt lat="45.12195" lon="5.58814">
        <ele>1014.7</ele>
        <time>2021-08-30T14:27:52Z</time>
      </trkpt>
      <trkpt lat="45.12191" lon="5.58811">
        <ele>1014.8</ele>
        <time>2021-08-30T14:27:53Z</time>
      </trkpt>
      <trkpt lat="45.12187" lon="5.58806">
        <ele>1014.8</ele>
        <time>2021-08-30T14:27:54Z</time>
      </trkpt>
      <trkpt lat="45.12184" lon="5.58802">
        <ele>1014.9</ele>
        <time>2021-08-30T14:27:55Z</time>
      </trkpt>
      <trkpt lat="45.12179" lon="5.58794">
        <ele>1015</ele>
        <time>2021-08-30T14:27:57Z</time>
      </trkpt>
      <trkpt lat="45.12177" lon="5.58793">
        <ele>1015.1</ele>
        <time>2021-08-30T14:27:58Z</time>
      </trkpt>
      <trkpt lat="45.12171" lon="5.58786">
        <ele>1015.2</ele>
        <time>2021-08-30T14:28:00Z</time>
      </trkpt>
      <trkpt lat="45.12168" lon="5.58781">
        <ele>1015.3</ele>
        <time>2021-08-30T14:28:02Z</time>
      </trkpt>
      <trkpt lat="45.12163" lon="5.58776">
        <ele>1015.4</ele>
        <time>2021-08-30T14:28:03Z</time>
      </trkpt>
      <trkpt lat="45.12158" lon="5.58772">
        <ele>1015.6</ele>
        <time>2021-08-30T14:28:05Z</time>
      </trkpt>
      <trkpt lat="45.12152" lon="5.58769">
        <ele>1015.7</ele>
        <time>2021-08-30T14:28:06Z</time>
      </trkpt>
      <trkpt lat="45.12148" lon="5.58768">
        <ele>1015.7</ele>
        <time>2021-08-30T14:28:08Z</time>
      </trkpt>
      <trkpt lat="45.12147" lon="5.58768">
        <ele>1015.7</ele>
        <time>2021-08-30T14:28:09Z</time>
      </trkpt>
      <trkpt lat="45.12144" lon="5.58768">
        <ele>1015.8</ele>
        <time>2021-08-30T14:28:10Z</time>
      </trkpt>
      <trkpt lat="45.12142" lon="5.58769">
        <ele>1015.8</ele>
        <time>2021-08-30T14:28:12Z</time>
      </trkpt>
      <trkpt lat="45.1214" lon="5.58769">
        <ele>1015.8</ele>
        <time>2021-08-30T14:28:13Z</time>
      </trkpt>
      <trkpt lat="45.12136" lon="5.58767">
        <ele>1015.9</ele>
        <time>2021-08-30T14:28:15Z</time>
      </trkpt>
      <trkpt lat="45.12129" lon="5.58765">
        <ele>1016</ele>
        <time>2021-08-30T14:28:16Z</time>
      </trkpt>
      <trkpt lat="45.12125" lon="5.58763">
        <ele>1016</ele>
        <time>2021-08-30T14:28:17Z</time>
      </trkpt>
      <trkpt lat="45.1212" lon="5.58761">
        <ele>1016</ele>
        <time>2021-08-30T14:28:19Z</time>
      </trkpt>
      <trkpt lat="45.12114" lon="5.58758">
        <ele>1016.1</ele>
        <time>2021-08-30T14:28:20Z</time>
      </trkpt>
      <trkpt lat="45.12109" lon="5.58756">
        <ele>1016.1</ele>
        <time>2021-08-30T14:28:21Z</time>
      </trkpt>
      <trkpt lat="45.12104" lon="5.58753">
        <ele>1016.1</ele>
        <time>2021-08-30T14:28:23Z</time>
      </trkpt>
      <trkpt lat="45.12098" lon="5.58747">
        <ele>1016.2</ele>
        <time>2021-08-30T14:28:24Z</time>
      </trkpt>
      <trkpt lat="45.12085" lon="5.58744">
        <ele>1016.3</ele>
        <time>2021-08-30T14:28:25Z</time>
      </trkpt>
      <trkpt lat="45.12073" lon="5.58741">
        <ele>1016.4</ele>
        <time>2021-08-30T14:28:27Z</time>
      </trkpt>
      <trkpt lat="45.12069" lon="5.5874">
        <ele>1016.4</ele>
        <time>2021-08-30T14:28:29Z</time>
      </trkpt>
      <trkpt lat="45.12062" lon="5.5874">
        <ele>1016.5</ele>
        <time>2021-08-30T14:28:30Z</time>
      </trkpt>
      <trkpt lat="45.12057" lon="5.58741">
        <ele>1016.5</ele>
        <time>2021-08-30T14:28:31Z</time>
      </trkpt>
      <trkpt lat="45.12049" lon="5.58739">
        <ele>1016.6</ele>
        <time>2021-08-30T14:28:33Z</time>
      </trkpt>
      <trkpt lat="45.12044" lon="5.5874">
        <ele>1016.7</ele>
        <time>2021-08-30T14:28:34Z</time>
      </trkpt>
      <trkpt lat="45.12041" lon="5.58741">
        <ele>1016.7</ele>
        <time>2021-08-30T14:28:35Z</time>
      </trkpt>
      <trkpt lat="45.12031" lon="5.58741">
        <ele>1016.9</ele>
        <time>2021-08-30T14:28:37Z</time>
      </trkpt>
      <trkpt lat="45.12028" lon="5.58745">
        <ele>1017</ele>
        <time>2021-08-30T14:28:39Z</time>
      </trkpt>
      <trkpt lat="45.12023" lon="5.58744">
        <ele>1017.1</ele>
        <time>2021-08-30T14:28:40Z</time>
      </trkpt>
      <trkpt lat="45.12018" lon="5.58744">
        <ele>1017.2</ele>
        <time>2021-08-30T14:28:41Z</time>
      </trkpt>
      <trkpt lat="45.12011" lon="5.58742">
        <ele>1017.3</ele>
        <time>2021-08-30T14:28:43Z</time>
      </trkpt>
      <trkpt lat="45.12004" lon="5.58741">
        <ele>1017.4</ele>
        <time>2021-08-30T14:28:44Z</time>
      </trkpt>
      <trkpt lat="45.11998" lon="5.58739">
        <ele>1017.5</ele>
        <time>2021-08-30T14:28:46Z</time>
      </trkpt>
      <trkpt lat="45.11993" lon="5.58739">
        <ele>1017.6</ele>
        <time>2021-08-30T14:28:47Z</time>
      </trkpt>
      <trkpt lat="45.11988" lon="5.58739">
        <ele>1017.7</ele>
        <time>2021-08-30T14:28:48Z</time>
      </trkpt>
      <trkpt lat="45.11983" lon="5.5874">
        <ele>1017.8</ele>
        <time>2021-08-30T14:28:49Z</time>
      </trkpt>
      <trkpt lat="45.11979" lon="5.58741">
        <ele>1017.9</ele>
        <time>2021-08-30T14:28:50Z</time>
      </trkpt>
      <trkpt lat="45.11973" lon="5.58743">
        <ele>1018</ele>
        <time>2021-08-30T14:28:52Z</time>
      </trkpt>
      <trkpt lat="45.11967" lon="5.58744">
        <ele>1018.2</ele>
        <time>2021-08-30T14:28:53Z</time>
      </trkpt>
      <trkpt lat="45.11963" lon="5.58743">
        <ele>1018.3</ele>
        <time>2021-08-30T14:28:54Z</time>
      </trkpt>
      <trkpt lat="45.11959" lon="5.58742">
        <ele>1018.4</ele>
        <time>2021-08-30T14:28:55Z</time>
      </trkpt>
      <trkpt lat="45.11952" lon="5.58738">
        <ele>1018.5</ele>
        <time>2021-08-30T14:28:57Z</time>
      </trkpt>
      <trkpt lat="45.11948" lon="5.58735">
        <ele>1018.5</ele>
        <time>2021-08-30T14:28:58Z</time>
      </trkpt>
      <trkpt lat="45.11944" lon="5.58733">
        <ele>1018.6</ele>
        <time>2021-08-30T14:28:59Z</time>
      </trkpt>
      <trkpt lat="45.11939" lon="5.58728">
        <ele>1018.6</ele>
        <time>2021-08-30T14:29:01Z</time>
      </trkpt>
      <trkpt lat="45.11935" lon="5.58725">
        <ele>1018.6</ele>
        <time>2021-08-30T14:29:02Z</time>
      </trkpt>
      <trkpt lat="45.1193" lon="5.58721">
        <ele>1018.6</ele>
        <time>2021-08-30T14:29:03Z</time>
      </trkpt>
      <trkpt lat="45.1192" lon="5.58717">
        <ele>1018.5</ele>
        <time>2021-08-30T14:29:04Z</time>
      </trkpt>
      <trkpt lat="45.11917" lon="5.58716">
        <ele>1018.5</ele>
        <time>2021-08-30T14:29:05Z</time>
      </trkpt>
      <trkpt lat="45.11916" lon="5.5871">
        <ele>1018.5</ele>
        <time>2021-08-30T14:29:07Z</time>
      </trkpt>
      <trkpt lat="45.11916" lon="5.58699">
        <ele>1018.4</ele>
        <time>2021-08-30T14:29:08Z</time>
      </trkpt>
      <trkpt lat="45.11922" lon="5.58691">
        <ele>1018.4</ele>
        <time>2021-08-30T14:29:10Z</time>
      </trkpt>
      <trkpt lat="45.1193" lon="5.58682">
        <ele>1018.4</ele>
        <time>2021-08-30T14:29:11Z</time>
      </trkpt>
      <trkpt lat="45.11932" lon="5.58673">
        <ele>1018.5</ele>
        <time>2021-08-30T14:29:12Z</time>
      </trkpt>
      <trkpt lat="45.11933" lon="5.58665">
        <ele>1018.6</ele>
        <time>2021-08-30T14:29:13Z</time>
      </trkpt>
      <trkpt lat="45.11934" lon="5.58656">
        <ele>1018.7</ele>
        <time>2021-08-30T14:29:15Z</time>
      </trkpt>
      <trkpt lat="45.11935" lon="5.58648">
        <ele>1018.8</ele>
        <time>2021-08-30T14:29:16Z</time>
      </trkpt>
      <trkpt lat="45.11936" lon="5.5864">
        <ele>1019</ele>
        <time>2021-08-30T14:29:17Z</time>
      </trkpt>
      <trkpt lat="45.11937" lon="5.58634">
        <ele>1019.1</ele>
        <time>2021-08-30T14:29:18Z</time>
      </trkpt>
      <trkpt lat="45.11939" lon="5.58627">
        <ele>1019.3</ele>
        <time>2021-08-30T14:29:19Z</time>
      </trkpt>
      <trkpt lat="45.1194" lon="5.58621">
        <ele>1019.4</ele>
        <time>2021-08-30T14:29:20Z</time>
      </trkpt>
      <trkpt lat="45.1194" lon="5.58614">
        <ele>1019.6</ele>
        <time>2021-08-30T14:29:22Z</time>
      </trkpt>
      <trkpt lat="45.1194" lon="5.5861">
        <ele>1019.7</ele>
        <time>2021-08-30T14:29:23Z</time>
      </trkpt>
      <trkpt lat="45.11939" lon="5.58606">
        <ele>1019.8</ele>
        <time>2021-08-30T14:29:24Z</time>
      </trkpt>
      <trkpt lat="45.11938" lon="5.58601">
        <ele>1019.9</ele>
        <time>2021-08-30T14:29:25Z</time>
      </trkpt>
      <trkpt lat="45.11937" lon="5.58595">
        <ele>1020</ele>
        <time>2021-08-30T14:29:26Z</time>
      </trkpt>
      <trkpt lat="45.11936" lon="5.58589">
        <ele>1020.2</ele>
        <time>2021-08-30T14:29:27Z</time>
      </trkpt>
      <trkpt lat="45.11936" lon="5.58584">
        <ele>1020.3</ele>
        <time>2021-08-30T14:29:28Z</time>
      </trkpt>
      <trkpt lat="45.11936" lon="5.58579">
        <ele>1020.4</ele>
        <time>2021-08-30T14:29:29Z</time>
      </trkpt>
      <trkpt lat="45.11936" lon="5.58573">
        <ele>1020.6</ele>
        <time>2021-08-30T14:29:31Z</time>
      </trkpt>
      <trkpt lat="45.11936" lon="5.58567">
        <ele>1020.7</ele>
        <time>2021-08-30T14:29:32Z</time>
      </trkpt>
      <trkpt lat="45.11935" lon="5.58563">
        <ele>1020.8</ele>
        <time>2021-08-30T14:29:33Z</time>
      </trkpt>
      <trkpt lat="45.11932" lon="5.58557">
        <ele>1021</ele>
        <time>2021-08-30T14:29:35Z</time>
      </trkpt>
      <trkpt lat="45.11931" lon="5.58553">
        <ele>1021.1</ele>
        <time>2021-08-30T14:29:36Z</time>
      </trkpt>
      <trkpt lat="45.11928" lon="5.58545">
        <ele>1021.3</ele>
        <time>2021-08-30T14:29:37Z</time>
      </trkpt>
      <trkpt lat="45.11926" lon="5.5854">
        <ele>1021.4</ele>
        <time>2021-08-30T14:29:39Z</time>
      </trkpt>
      <trkpt lat="45.11925" lon="5.58536">
        <ele>1021.6</ele>
        <time>2021-08-30T14:29:40Z</time>
      </trkpt>
      <trkpt lat="45.11923" lon="5.5853">
        <ele>1021.7</ele>
        <time>2021-08-30T14:29:41Z</time>
      </trkpt>
      <trkpt lat="45.11921" lon="5.58525">
        <ele>1021.8</ele>
        <time>2021-08-30T14:29:43Z</time>
      </trkpt>
      <trkpt lat="45.11919" lon="5.58521">
        <ele>1022</ele>
        <time>2021-08-30T14:29:44Z</time>
      </trkpt>
      <trkpt lat="45.11917" lon="5.58517">
        <ele>1022.1</ele>
        <time>2021-08-30T14:29:45Z</time>
      </trkpt>
      <trkpt lat="45.11915" lon="5.58512">
        <ele>1022.1</ele>
        <time>2021-08-30T14:29:47Z</time>
      </trkpt>
      <trkpt lat="45.11913" lon="5.58508">
        <ele>1022.1</ele>
        <time>2021-08-30T14:29:48Z</time>
      </trkpt>
      <trkpt lat="45.11912" lon="5.58507">
        <ele>1022.1</ele>
        <time>2021-08-30T14:29:49Z</time>
      </trkpt>
      <trkpt lat="45.11911" lon="5.58506">
        <ele>1022.2</ele>
        <time>2021-08-30T14:29:50Z</time>
      </trkpt>
      <trkpt lat="45.11906" lon="5.58507">
        <ele>1022.2</ele>
        <time>2021-08-30T14:29:52Z</time>
      </trkpt>
      <trkpt lat="45.11902" lon="5.58509">
        <ele>1022.2</ele>
        <time>2021-08-30T14:29:53Z</time>
      </trkpt>
      <trkpt lat="45.11898" lon="5.58513">
        <ele>1022.3</ele>
        <time>2021-08-30T14:29:55Z</time>
      </trkpt>
      <trkpt lat="45.11893" lon="5.58517">
        <ele>1022.3</ele>
        <time>2021-08-30T14:29:56Z</time>
      </trkpt>
      <trkpt lat="45.1189" lon="5.58522">
        <ele>1022.3</ele>
        <time>2021-08-30T14:29:58Z</time>
      </trkpt>
      <trkpt lat="45.11888" lon="5.58527">
        <ele>1022.4</ele>
        <time>2021-08-30T14:29:59Z</time>
      </trkpt>
      <trkpt lat="45.11881" lon="5.58535">
        <ele>1022.4</ele>
        <time>2021-08-30T14:30:00Z</time>
      </trkpt>
      <trkpt lat="45.11878" lon="5.58535">
        <ele>1022.5</ele>
        <time>2021-08-30T14:30:02Z</time>
      </trkpt>
      <trkpt lat="45.11874" lon="5.58538">
        <ele>1022.6</ele>
        <time>2021-08-30T14:30:03Z</time>
      </trkpt>
      <trkpt lat="45.11871" lon="5.58544">
        <ele>1022.7</ele>
        <time>2021-08-30T14:30:04Z</time>
      </trkpt>
      <trkpt lat="45.11869" lon="5.58548">
        <ele>1022.8</ele>
        <time>2021-08-30T14:30:05Z</time>
      </trkpt>
      <trkpt lat="45.11866" lon="5.58553">
        <ele>1022.9</ele>
        <time>2021-08-30T14:30:07Z</time>
      </trkpt>
      <trkpt lat="45.11863" lon="5.58557">
        <ele>1022.9</ele>
        <time>2021-08-30T14:30:08Z</time>
      </trkpt>
      <trkpt lat="45.1186" lon="5.58559">
        <ele>1023</ele>
        <time>2021-08-30T14:30:09Z</time>
      </trkpt>
      <trkpt lat="45.11857" lon="5.58561">
        <ele>1023.1</ele>
        <time>2021-08-30T14:30:10Z</time>
      </trkpt>
      <trkpt lat="45.11857" lon="5.58562">
        <ele>1023.1</ele>
        <time>2021-08-30T14:30:11Z</time>
      </trkpt>
      <trkpt lat="45.11855" lon="5.58565">
        <ele>1023.1</ele>
        <time>2021-08-30T14:30:12Z</time>
      </trkpt>
      <trkpt lat="45.11851" lon="5.58566">
        <ele>1023.2</ele>
        <time>2021-08-30T14:30:14Z</time>
      </trkpt>
      <trkpt lat="45.11846" lon="5.58566">
        <ele>1023.3</ele>
        <time>2021-08-30T14:30:15Z</time>
      </trkpt>
      <trkpt lat="45.11838" lon="5.58563">
        <ele>1023.3</ele>
        <time>2021-08-30T14:30:16Z</time>
      </trkpt>
      <trkpt lat="45.11832" lon="5.58559">
        <ele>1023.3</ele>
        <time>2021-08-30T14:30:18Z</time>
      </trkpt>
      <trkpt lat="45.11828" lon="5.58555">
        <ele>1023.2</ele>
        <time>2021-08-30T14:30:19Z</time>
      </trkpt>
      <trkpt lat="45.11821" lon="5.58548">
        <ele>1023.1</ele>
        <time>2021-08-30T14:30:20Z</time>
      </trkpt>
      <trkpt lat="45.11812" lon="5.58541">
        <ele>1023</ele>
        <time>2021-08-30T14:30:22Z</time>
      </trkpt>
      <trkpt lat="45.11807" lon="5.58539">
        <ele>1023</ele>
        <time>2021-08-30T14:30:23Z</time>
      </trkpt>
      <trkpt lat="45.11802" lon="5.58538">
        <ele>1023</ele>
        <time>2021-08-30T14:30:24Z</time>
      </trkpt>
      <trkpt lat="45.11799" lon="5.58539">
        <ele>1023</ele>
        <time>2021-08-30T14:30:25Z</time>
      </trkpt>
      <trkpt lat="45.11797" lon="5.58541">
        <ele>1022.9</ele>
        <time>2021-08-30T14:30:26Z</time>
      </trkpt>
      <trkpt lat="45.11794" lon="5.58543">
        <ele>1022.9</ele>
        <time>2021-08-30T14:30:27Z</time>
      </trkpt>
      <trkpt lat="45.11793" lon="5.58549">
        <ele>1022.9</ele>
        <time>2021-08-30T14:30:29Z</time>
      </trkpt>
      <trkpt lat="45.11794" lon="5.58555">
        <ele>1022.9</ele>
        <time>2021-08-30T14:30:31Z</time>
      </trkpt>
      <trkpt lat="45.11795" lon="5.58559">
        <ele>1022.9</ele>
        <time>2021-08-30T14:30:32Z</time>
      </trkpt>
      <trkpt lat="45.11797" lon="5.58564">
        <ele>1022.9</ele>
        <time>2021-08-30T14:30:34Z</time>
      </trkpt>
      <trkpt lat="45.11797" lon="5.58567">
        <ele>1022.9</ele>
        <time>2021-08-30T14:30:35Z</time>
      </trkpt>
      <trkpt lat="45.11797" lon="5.58574">
        <ele>1022.9</ele>
        <time>2021-08-30T14:30:37Z</time>
      </trkpt>
      <trkpt lat="45.11795" lon="5.58578">
        <ele>1022.9</ele>
        <time>2021-08-30T14:30:39Z</time>
      </trkpt>
      <trkpt lat="45.11792" lon="5.58582">
        <ele>1022.9</ele>
        <time>2021-08-30T14:30:41Z</time>
      </trkpt>
      <trkpt lat="45.1179" lon="5.58583">
        <ele>1022.9</ele>
        <time>2021-08-30T14:30:43Z</time>
      </trkpt>
      <trkpt lat="45.11789" lon="5.58583">
        <ele>1022.9</ele>
        <time>2021-08-30T14:30:44Z</time>
      </trkpt>
      <trkpt lat="45.11789" lon="5.58583">
        <ele>1022.9</ele>
        <time>2021-08-30T14:30:45Z</time>
      </trkpt>
      <trkpt lat="45.11783" lon="5.58579">
        <ele>1022.8</ele>
        <time>2021-08-30T14:30:47Z</time>
      </trkpt>
      <trkpt lat="45.1178" lon="5.58578">
        <ele>1022.8</ele>
        <time>2021-08-30T14:30:49Z</time>
      </trkpt>
      <trkpt lat="45.11779" lon="5.58577">
        <ele>1022.8</ele>
        <time>2021-08-30T14:30:50Z</time>
      </trkpt>
      <trkpt lat="45.11778" lon="5.58577">
        <ele>1022.8</ele>
        <time>2021-08-30T14:30:52Z</time>
      </trkpt>
      <trkpt lat="45.11777" lon="5.58577">
        <ele>1022.8</ele>
        <time>2021-08-30T14:30:53Z</time>
      </trkpt>
      <trkpt lat="45.11775" lon="5.58577">
        <ele>1022.8</ele>
        <time>2021-08-30T14:30:55Z</time>
      </trkpt>
      <trkpt lat="45.11774" lon="5.58576">
        <ele>1022.8</ele>
        <time>2021-08-30T14:30:56Z</time>
      </trkpt>
      <trkpt lat="45.11773" lon="5.58576">
        <ele>1022.8</ele>
        <time>2021-08-30T14:30:57Z</time>
      </trkpt>
      <trkpt lat="45.11772" lon="5.58576">
        <ele>1022.8</ele>
        <time>2021-08-30T14:30:59Z</time>
      </trkpt>
      <trkpt lat="45.11771" lon="5.58576">
        <ele>1022.8</ele>
        <time>2021-08-30T14:32:49Z</time>
      </trkpt>
      <trkpt lat="45.1177" lon="5.58576">
        <ele>1022.8</ele>
        <time>2021-08-30T14:32:51Z</time>
      </trkpt>
      <trkpt lat="45.11768" lon="5.58575">
        <ele>1022.8</ele>
        <time>2021-08-30T14:32:52Z</time>
      </trkpt>
      <trkpt lat="45.11762" lon="5.58577">
        <ele>1022.7</ele>
        <time>2021-08-30T14:32:53Z</time>
      </trkpt>
      <trkpt lat="45.11756" lon="5.58579">
        <ele>1022.7</ele>
        <time>2021-08-30T14:32:55Z</time>
      </trkpt>
      <trkpt lat="45.11757" lon="5.58576">
        <ele>1022.7</ele>
        <time>2021-08-30T14:32:56Z</time>
      </trkpt>
      <trkpt lat="45.11757" lon="5.58575">
        <ele>1022.7</ele>
        <time>2021-08-30T14:32:58Z</time>
      </trkpt>
      <trkpt lat="45.11758" lon="5.58574">
        <ele>1022.7</ele>
        <time>2021-08-30T14:32:59Z</time>
      </trkpt>
      <trkpt lat="45.11759" lon="5.58573">
        <ele>1022.7</ele>
        <time>2021-08-30T14:33:00Z</time>
      </trkpt>
      <trkpt lat="45.11759" lon="5.58573">
        <ele>1022.7</ele>
        <time>2021-08-30T14:33:02Z</time>
      </trkpt>
      <trkpt lat="45.11767" lon="5.58571">
        <ele>1022.6</ele>
        <time>2021-08-30T14:33:31Z</time>
      </trkpt>
      <trkpt lat="45.11775" lon="5.58576">
        <ele>1022.6</ele>
        <time>2021-08-30T14:33:34Z</time>
      </trkpt>
      <trkpt lat="45.11779" lon="5.58579">
        <ele>1022.6</ele>
        <time>2021-08-30T14:33:41Z</time>
      </trkpt>
      <trkpt lat="45.11778" lon="5.58577">
        <ele>1022.6</ele>
        <time>2021-08-30T14:33:47Z</time>
      </trkpt>
      <trkpt lat="45.11777" lon="5.58576">
        <ele>1022.6</ele>
        <time>2021-08-30T14:33:53Z</time>
      </trkpt>
      <trkpt lat="45.11776" lon="5.58575">
        <ele>1022.5</ele>
        <time>2021-08-30T14:33:59Z</time>
      </trkpt>
      <trkpt lat="45.11776" lon="5.58574">
        <ele>1022.5</ele>
        <time>2021-08-30T14:38:07Z</time>
      </trkpt>
      <trkpt lat="45.11775" lon="5.58573">
        <ele>1022.5</ele>
        <time>2021-08-30T14:38:08Z</time>
      </trkpt>
      <trkpt lat="45.11716" lon="5.58492">
        <ele>1016.4</ele>
        <time>2021-08-30T14:38:10Z</time>
      </trkpt>
      <trkpt lat="45.11714" lon="5.58488">
        <ele>1016.6</ele>
        <time>2021-08-30T14:38:11Z</time>
      </trkpt>
      <trkpt lat="45.11713" lon="5.58489">
        <ele>1016.7</ele>
        <time>2021-08-30T14:38:12Z</time>
      </trkpt>
      <trkpt lat="45.11714" lon="5.58492">
        <ele>1017.2</ele>
        <time>2021-08-30T14:38:13Z</time>
      </trkpt>
      <trkpt lat="45.11715" lon="5.58495">
        <ele>1017.2</ele>
        <time>2021-08-30T14:38:14Z</time>
      </trkpt>
      <trkpt lat="45.11716" lon="5.58498">
        <ele>1017.7</ele>
        <time>2021-08-30T14:38:15Z</time>
      </trkpt>
      <trkpt lat="45.11722" lon="5.58515">
        <ele>1018.8</ele>
        <time>2021-08-30T14:38:17Z</time>
      </trkpt>
      <trkpt lat="45.11727" lon="5.58531">
        <ele>1019.8</ele>
        <time>2021-08-30T14:38:18Z</time>
      </trkpt>
      <trkpt lat="45.11729" lon="5.5854">
        <ele>1020.6</ele>
        <time>2021-08-30T14:38:20Z</time>
      </trkpt>
      <trkpt lat="45.1173" lon="5.58549">
        <ele>1021.2</ele>
        <time>2021-08-30T14:38:21Z</time>
      </trkpt>
      <trkpt lat="45.11732" lon="5.58556">
        <ele>1021.7</ele>
        <time>2021-08-30T14:38:22Z</time>
      </trkpt>
      <trkpt lat="45.11738" lon="5.58566">
        <ele>1022.4</ele>
        <time>2021-08-30T14:38:23Z</time>
      </trkpt>
      <trkpt lat="45.11744" lon="5.58573">
        <ele>1022.5</ele>
        <time>2021-08-30T14:38:24Z</time>
      </trkpt>
      <trkpt lat="45.11752" lon="5.58581">
        <ele>1022.6</ele>
        <time>2021-08-30T14:38:25Z</time>
      </trkpt>
      <trkpt lat="45.11758" lon="5.58587">
        <ele>1022.8</ele>
        <time>2021-08-30T14:38:26Z</time>
      </trkpt>
      <trkpt lat="45.11762" lon="5.58593">
        <ele>1022.9</ele>
        <time>2021-08-30T14:38:27Z</time>
      </trkpt>
      <trkpt lat="45.11767" lon="5.58598">
        <ele>1023</ele>
        <time>2021-08-30T14:38:29Z</time>
      </trkpt>
      <trkpt lat="45.11768" lon="5.586">
        <ele>1023.3</ele>
        <time>2021-08-30T14:38:31Z</time>
      </trkpt>
      <trkpt lat="45.11769" lon="5.58601">
        <ele>1023.3</ele>
        <time>2021-08-30T14:38:32Z</time>
      </trkpt>
      <trkpt lat="45.11772" lon="5.58603">
        <ele>1023.4</ele>
        <time>2021-08-30T14:38:33Z</time>
      </trkpt>
      <trkpt lat="45.11775" lon="5.58605">
        <ele>1023.6</ele>
        <time>2021-08-30T14:38:34Z</time>
      </trkpt>
      <trkpt lat="45.11778" lon="5.58607">
        <ele>1023.6</ele>
        <time>2021-08-30T14:38:36Z</time>
      </trkpt>
      <trkpt lat="45.1178" lon="5.58607">
        <ele>1023.7</ele>
        <time>2021-08-30T14:38:37Z</time>
      </trkpt>
      <trkpt lat="45.11781" lon="5.58608">
        <ele>1023.9</ele>
        <time>2021-08-30T14:38:38Z</time>
      </trkpt>
      <trkpt lat="45.11784" lon="5.58609">
        <ele>1024</ele>
        <time>2021-08-30T14:38:39Z</time>
      </trkpt>
      <trkpt lat="45.11785" lon="5.5861">
        <ele>1024.2</ele>
        <time>2021-08-30T14:38:40Z</time>
      </trkpt>
      <trkpt lat="45.11787" lon="5.58611">
        <ele>1024.3</ele>
        <time>2021-08-30T14:38:41Z</time>
      </trkpt>
      <trkpt lat="45.11789" lon="5.58612">
        <ele>1024.5</ele>
        <time>2021-08-30T14:38:43Z</time>
      </trkpt>
      <trkpt lat="45.1179" lon="5.58613">
        <ele>1024.5</ele>
        <time>2021-08-30T14:38:44Z</time>
      </trkpt>
      <trkpt lat="45.11791" lon="5.58615">
        <ele>1024.5</ele>
        <time>2021-08-30T14:38:46Z</time>
      </trkpt>
      <trkpt lat="45.11792" lon="5.58616">
        <ele>1024.5</ele>
        <time>2021-08-30T14:38:47Z</time>
      </trkpt>
      <trkpt lat="45.11793" lon="5.58617">
        <ele>1024.5</ele>
        <time>2021-08-30T14:38:49Z</time>
      </trkpt>
      <trkpt lat="45.11794" lon="5.58618">
        <ele>1024.5</ele>
        <time>2021-08-30T14:38:50Z</time>
      </trkpt>
      <trkpt lat="45.11795" lon="5.58619">
        <ele>1024.5</ele>
        <time>2021-08-30T14:38:51Z</time>
      </trkpt>
      <trkpt lat="45.11795" lon="5.58619">
        <ele>1024.5</ele>
        <time>2021-08-30T14:38:52Z</time>
      </trkpt>
      <trkpt lat="45.118" lon="5.58624">
        <ele>1024.6</ele>
        <time>2021-08-30T14:38:53Z</time>
      </trkpt>
      <trkpt lat="45.11803" lon="5.58627">
        <ele>1024.6</ele>
        <time>2021-08-30T14:38:59Z</time>
      </trkpt>
      <trkpt lat="45.11806" lon="5.58631">
        <ele>1024.6</ele>
        <time>2021-08-30T14:39:00Z</time>
      </trkpt>
      <trkpt lat="45.11812" lon="5.58635">
        <ele>1024.7</ele>
        <time>2021-08-30T14:39:01Z</time>
      </trkpt>
      <trkpt lat="45.1182" lon="5.58641">
        <ele>1024.7</ele>
        <time>2021-08-30T14:39:02Z</time>
      </trkpt>
      <trkpt lat="45.11828" lon="5.58647">
        <ele>1024.8</ele>
        <time>2021-08-30T14:39:04Z</time>
      </trkpt>
      <trkpt lat="45.11832" lon="5.5865">
        <ele>1024.8</ele>
        <time>2021-08-30T14:39:05Z</time>
      </trkpt>
      <trkpt lat="45.11835" lon="5.58655">
        <ele>1024.8</ele>
        <time>2021-08-30T14:39:06Z</time>
      </trkpt>
      <trkpt lat="45.11837" lon="5.5866">
        <ele>1024.9</ele>
        <time>2021-08-30T14:39:07Z</time>
      </trkpt>
      <trkpt lat="45.11841" lon="5.58666">
        <ele>1024.9</ele>
        <time>2021-08-30T14:39:09Z</time>
      </trkpt>
      <trkpt lat="45.11841" lon="5.58668">
        <ele>1024.9</ele>
        <time>2021-08-30T14:39:10Z</time>
      </trkpt>
      <trkpt lat="45.11842" lon="5.58671">
        <ele>1024.9</ele>
        <time>2021-08-30T14:39:11Z</time>
      </trkpt>
      <trkpt lat="45.11842" lon="5.58675">
        <ele>1024.9</ele>
        <time>2021-08-30T14:39:13Z</time>
      </trkpt>
      <trkpt lat="45.11843" lon="5.58677">
        <ele>1024.9</ele>
        <time>2021-08-30T14:39:14Z</time>
      </trkpt>
      <trkpt lat="45.11845" lon="5.58677">
        <ele>1025</ele>
        <time>2021-08-30T14:39:15Z</time>
      </trkpt>
      <trkpt lat="45.11847" lon="5.58677">
        <ele>1025</ele>
        <time>2021-08-30T14:39:16Z</time>
      </trkpt>
      <trkpt lat="45.11848" lon="5.58677">
        <ele>1025</ele>
        <time>2021-08-30T14:39:17Z</time>
      </trkpt>
      <trkpt lat="45.11848" lon="5.58677">
        <ele>1025</ele>
        <time>2021-08-30T14:39:18Z</time>
      </trkpt>
      <trkpt lat="45.11849" lon="5.58677">
        <ele>1025</ele>
        <time>2021-08-30T14:39:20Z</time>
      </trkpt>
      <trkpt lat="45.1185" lon="5.58676">
        <ele>1025</ele>
        <time>2021-08-30T14:39:21Z</time>
      </trkpt>
      <trkpt lat="45.11849" lon="5.58674">
        <ele>1025</ele>
        <time>2021-08-30T14:39:22Z</time>
      </trkpt>
      <trkpt lat="45.11847" lon="5.58671">
        <ele>1025</ele>
        <time>2021-08-30T14:39:24Z</time>
      </trkpt>
      <trkpt lat="45.11846" lon="5.58671">
        <ele>1025</ele>
        <time>2021-08-30T14:39:25Z</time>
      </trkpt>
      <trkpt lat="45.11843" lon="5.58672">
        <ele>1025</ele>
        <time>2021-08-30T14:39:26Z</time>
      </trkpt>
      <trkpt lat="45.11841" lon="5.58673">
        <ele>1025.1</ele>
        <time>2021-08-30T14:39:28Z</time>
      </trkpt>
      <trkpt lat="45.11841" lon="5.58676">
        <ele>1025.1</ele>
        <time>2021-08-30T14:39:29Z</time>
      </trkpt>
      <trkpt lat="45.11842" lon="5.58678">
        <ele>1025.1</ele>
        <time>2021-08-30T14:39:30Z</time>
      </trkpt>
      <trkpt lat="45.11843" lon="5.5868">
        <ele>1025.1</ele>
        <time>2021-08-30T14:39:32Z</time>
      </trkpt>
      <trkpt lat="45.11843" lon="5.58682">
        <ele>1025.1</ele>
        <time>2021-08-30T14:39:33Z</time>
      </trkpt>
      <trkpt lat="45.11844" lon="5.58684">
        <ele>1025.1</ele>
        <time>2021-08-30T14:39:34Z</time>
      </trkpt>
      <trkpt lat="45.11844" lon="5.58687">
        <ele>1025.1</ele>
        <time>2021-08-30T14:39:36Z</time>
      </trkpt>
      <trkpt lat="45.11844" lon="5.58691">
        <ele>1025.1</ele>
        <time>2021-08-30T14:39:38Z</time>
      </trkpt>
      <trkpt lat="45.11843" lon="5.58693">
        <ele>1025.2</ele>
        <time>2021-08-30T14:39:39Z</time>
      </trkpt>
      <trkpt lat="45.11841" lon="5.58694">
        <ele>1025.2</ele>
        <time>2021-08-30T14:39:40Z</time>
      </trkpt>
      <trkpt lat="45.1184" lon="5.58696">
        <ele>1025.2</ele>
        <time>2021-08-30T14:39:42Z</time>
      </trkpt>
      <trkpt lat="45.11839" lon="5.58697">
        <ele>1025.2</ele>
        <time>2021-08-30T14:39:43Z</time>
      </trkpt>
      <trkpt lat="45.11838" lon="5.58699">
        <ele>1025.2</ele>
        <time>2021-08-30T14:39:44Z</time>
      </trkpt>
      <trkpt lat="45.11834" lon="5.58703">
        <ele>1025.2</ele>
        <time>2021-08-30T14:39:46Z</time>
      </trkpt>
      <trkpt lat="45.11832" lon="5.58704">
        <ele>1025.2</ele>
        <time>2021-08-30T14:39:48Z</time>
      </trkpt>
      <trkpt lat="45.1183" lon="5.58706">
        <ele>1025.2</ele>
        <time>2021-08-30T14:39:49Z</time>
      </trkpt>
      <trkpt lat="45.11828" lon="5.58706">
        <ele>1025.2</ele>
        <time>2021-08-30T14:39:51Z</time>
      </trkpt>
      <trkpt lat="45.11827" lon="5.58706">
        <ele>1025.2</ele>
        <time>2021-08-30T14:39:52Z</time>
      </trkpt>
      <trkpt lat="45.11826" lon="5.58703">
        <ele>1025.2</ele>
        <time>2021-08-30T14:39:54Z</time>
      </trkpt>
      <trkpt lat="45.11823" lon="5.58701">
        <ele>1025.1</ele>
        <time>2021-08-30T14:39:56Z</time>
      </trkpt>
      <trkpt lat="45.11821" lon="5.58697">
        <ele>1025.1</ele>
        <time>2021-08-30T14:39:57Z</time>
      </trkpt>
      <trkpt lat="45.1182" lon="5.58696">
        <ele>1025.1</ele>
        <time>2021-08-30T14:39:58Z</time>
      </trkpt>
      <trkpt lat="45.11815" lon="5.58691">
        <ele>1025</ele>
        <time>2021-08-30T14:40:00Z</time>
      </trkpt>
      <trkpt lat="45.11813" lon="5.5869">
        <ele>1025</ele>
        <time>2021-08-30T14:40:01Z</time>
      </trkpt>
      <trkpt lat="45.11811" lon="5.58688">
        <ele>1025</ele>
        <time>2021-08-30T14:40:02Z</time>
      </trkpt>
      <trkpt lat="45.11807" lon="5.58685">
        <ele>1025</ele>
        <time>2021-08-30T14:40:03Z</time>
      </trkpt>
      <trkpt lat="45.11804" lon="5.58682">
        <ele>1024.9</ele>
        <time>2021-08-30T14:40:05Z</time>
      </trkpt>
      <trkpt lat="45.11802" lon="5.5868">
        <ele>1024.9</ele>
        <time>2021-08-30T14:40:06Z</time>
      </trkpt>
      <trkpt lat="45.11799" lon="5.58674">
        <ele>1024.9</ele>
        <time>2021-08-30T14:40:08Z</time>
      </trkpt>
      <trkpt lat="45.11798" lon="5.5867">
        <ele>1024.8</ele>
        <time>2021-08-30T14:40:09Z</time>
      </trkpt>
      <trkpt lat="45.11797" lon="5.58664">
        <ele>1024.8</ele>
        <time>2021-08-30T14:40:11Z</time>
      </trkpt>
      <trkpt lat="45.11796" lon="5.58658">
        <ele>1024.8</ele>
        <time>2021-08-30T14:40:13Z</time>
      </trkpt>
      <trkpt lat="45.11794" lon="5.58654">
        <ele>1024.7</ele>
        <time>2021-08-30T14:40:14Z</time>
      </trkpt>
      <trkpt lat="45.11792" lon="5.58651">
        <ele>1024.7</ele>
        <time>2021-08-30T14:40:15Z</time>
      </trkpt>
      <trkpt lat="45.11791" lon="5.58647">
        <ele>1024.7</ele>
        <time>2021-08-30T14:40:16Z</time>
      </trkpt>
      <trkpt lat="45.1179" lon="5.58643">
        <ele>1024.7</ele>
        <time>2021-08-30T14:40:18Z</time>
      </trkpt>
      <trkpt lat="45.11791" lon="5.58638">
        <ele>1024.6</ele>
        <time>2021-08-30T14:40:19Z</time>
      </trkpt>
      <trkpt lat="45.11792" lon="5.58636">
        <ele>1024.6</ele>
        <time>2021-08-30T14:40:20Z</time>
      </trkpt>
      <trkpt lat="45.11791" lon="5.58631">
        <ele>1024.5</ele>
        <time>2021-08-30T14:40:21Z</time>
      </trkpt>
      <trkpt lat="45.11788" lon="5.58628">
        <ele>1024.5</ele>
        <time>2021-08-30T14:40:23Z</time>
      </trkpt>
      <trkpt lat="45.11786" lon="5.58628">
        <ele>1024.5</ele>
        <time>2021-08-30T14:40:24Z</time>
      </trkpt>
      <trkpt lat="45.11783" lon="5.58629">
        <ele>1024.5</ele>
        <time>2021-08-30T14:40:25Z</time>
      </trkpt>
      <trkpt lat="45.11779" lon="5.5863">
        <ele>1024.5</ele>
        <time>2021-08-30T14:40:26Z</time>
      </trkpt>
      <trkpt lat="45.11776" lon="5.58632">
        <ele>1024.5</ele>
        <time>2021-08-30T14:40:28Z</time>
      </trkpt>
      <trkpt lat="45.11772" lon="5.58634">
        <ele>1024.5</ele>
        <time>2021-08-30T14:40:29Z</time>
      </trkpt>
      <trkpt lat="45.11771" lon="5.58634">
        <ele>1024.5</ele>
        <time>2021-08-30T14:40:30Z</time>
      </trkpt>
      <trkpt lat="45.11771" lon="5.58636">
        <ele>1024.5</ele>
        <time>2021-08-30T14:40:31Z</time>
      </trkpt>
      <trkpt lat="45.1177" lon="5.58637">
        <ele>1024.6</ele>
        <time>2021-08-30T14:40:33Z</time>
      </trkpt>
      <trkpt lat="45.1177" lon="5.58638">
        <ele>1024.6</ele>
        <time>2021-08-30T14:40:34Z</time>
      </trkpt>
      <trkpt lat="45.11769" lon="5.58639">
        <ele>1024.6</ele>
        <time>2021-08-30T14:40:35Z</time>
      </trkpt>
      <trkpt lat="45.11767" lon="5.58641">
        <ele>1024.6</ele>
        <time>2021-08-30T14:40:37Z</time>
      </trkpt>
      <trkpt lat="45.11766" lon="5.58642">
        <ele>1024.6</ele>
        <time>2021-08-30T14:40:38Z</time>
      </trkpt>
      <trkpt lat="45.11763" lon="5.58644">
        <ele>1024.6</ele>
        <time>2021-08-30T14:40:39Z</time>
      </trkpt>
      <trkpt lat="45.11761" lon="5.58644">
        <ele>1024.6</ele>
        <time>2021-08-30T14:40:40Z</time>
      </trkpt>
      <trkpt lat="45.11758" lon="5.58645">
        <ele>1024.6</ele>
        <time>2021-08-30T14:40:41Z</time>
      </trkpt>
      <trkpt lat="45.11753" lon="5.58647">
        <ele>1024.7</ele>
        <time>2021-08-30T14:40:43Z</time>
      </trkpt>
      <trkpt lat="45.1175" lon="5.5865">
        <ele>1024.7</ele>
        <time>2021-08-30T14:40:44Z</time>
      </trkpt>
      <trkpt lat="45.11749" lon="5.58651">
        <ele>1024.7</ele>
        <time>2021-08-30T14:40:45Z</time>
      </trkpt>
      <trkpt lat="45.11749" lon="5.58652">
        <ele>1024.7</ele>
        <time>2021-08-30T14:40:47Z</time>
      </trkpt>
      <trkpt lat="45.11749" lon="5.58653">
        <ele>1024.7</ele>
        <time>2021-08-30T14:40:49Z</time>
      </trkpt>
      <trkpt lat="45.11749" lon="5.58655">
        <ele>1024.7</ele>
        <time>2021-08-30T14:40:50Z</time>
      </trkpt>
      <trkpt lat="45.1175" lon="5.58656">
        <ele>1024.7</ele>
        <time>2021-08-30T14:40:52Z</time>
      </trkpt>
      <trkpt lat="45.1175" lon="5.58656">
        <ele>1024.7</ele>
        <time>2021-08-30T14:40:53Z</time>
      </trkpt>
      <trkpt lat="45.11753" lon="5.58658">
        <ele>1024.7</ele>
        <time>2021-08-30T14:41:00Z</time>
      </trkpt>
      <trkpt lat="45.11754" lon="5.58659">
        <ele>1024.7</ele>
        <time>2021-08-30T14:41:01Z</time>
      </trkpt>
      <trkpt lat="45.11758" lon="5.58657">
        <ele>1024.8</ele>
        <time>2021-08-30T14:41:03Z</time>
      </trkpt>
      <trkpt lat="45.11764" lon="5.58648">
        <ele>1024.9</ele>
        <time>2021-08-30T14:41:05Z</time>
      </trkpt>
      <trkpt lat="45.11768" lon="5.58648">
        <ele>1024.9</ele>
        <time>2021-08-30T14:41:06Z</time>
      </trkpt>
      <trkpt lat="45.11771" lon="5.58649">
        <ele>1025</ele>
        <time>2021-08-30T14:41:08Z</time>
      </trkpt>
      <trkpt lat="45.11774" lon="5.58652">
        <ele>1025</ele>
        <time>2021-08-30T14:41:09Z</time>
      </trkpt>
      <trkpt lat="45.11776" lon="5.58655">
        <ele>1025.1</ele>
        <time>2021-08-30T14:41:10Z</time>
      </trkpt>
      <trkpt lat="45.11778" lon="5.58659">
        <ele>1025.1</ele>
        <time>2021-08-30T14:41:11Z</time>
      </trkpt>
      <trkpt lat="45.1178" lon="5.58663">
        <ele>1025.2</ele>
        <time>2021-08-30T14:41:12Z</time>
      </trkpt>
      <trkpt lat="45.11781" lon="5.58667">
        <ele>1025.2</ele>
        <time>2021-08-30T14:41:13Z</time>
      </trkpt>
      <trkpt lat="45.11782" lon="5.58672">
        <ele>1025.3</ele>
        <time>2021-08-30T14:41:14Z</time>
      </trkpt>
      <trkpt lat="45.11784" lon="5.58677">
        <ele>1025.3</ele>
        <time>2021-08-30T14:41:16Z</time>
      </trkpt>
      <trkpt lat="45.11786" lon="5.58682">
        <ele>1025.3</ele>
        <time>2021-08-30T14:41:17Z</time>
      </trkpt>
      <trkpt lat="45.11786" lon="5.58686">
        <ele>1025.4</ele>
        <time>2021-08-30T14:41:18Z</time>
      </trkpt>
      <trkpt lat="45.11788" lon="5.58691">
        <ele>1025.4</ele>
        <time>2021-08-30T14:41:20Z</time>
      </trkpt>
      <trkpt lat="45.11789" lon="5.58695">
        <ele>1025.5</ele>
        <time>2021-08-30T14:41:21Z</time>
      </trkpt>
      <trkpt lat="45.1179" lon="5.587">
        <ele>1025.5</ele>
        <time>2021-08-30T14:41:23Z</time>
      </trkpt>
      <trkpt lat="45.11792" lon="5.58705">
        <ele>1025.6</ele>
        <time>2021-08-30T14:41:24Z</time>
      </trkpt>
      <trkpt lat="45.11794" lon="5.58708">
        <ele>1025.6</ele>
        <time>2021-08-30T14:41:25Z</time>
      </trkpt>
      <trkpt lat="45.11796" lon="5.58712">
        <ele>1025.7</ele>
        <time>2021-08-30T14:41:26Z</time>
      </trkpt>
      <trkpt lat="45.11798" lon="5.58716">
        <ele>1025.7</ele>
        <time>2021-08-30T14:41:28Z</time>
      </trkpt>
      <trkpt lat="45.118" lon="5.58717">
        <ele>1025.8</ele>
        <time>2021-08-30T14:41:29Z</time>
      </trkpt>
      <trkpt lat="45.11802" lon="5.58721">
        <ele>1025.8</ele>
        <time>2021-08-30T14:41:31Z</time>
      </trkpt>
      <trkpt lat="45.11805" lon="5.58724">
        <ele>1025.9</ele>
        <time>2021-08-30T14:41:32Z</time>
      </trkpt>
      <trkpt lat="45.11808" lon="5.58727">
        <ele>1026</ele>
        <time>2021-08-30T14:41:33Z</time>
      </trkpt>
      <trkpt lat="45.11811" lon="5.5873">
        <ele>1026</ele>
        <time>2021-08-30T14:41:35Z</time>
      </trkpt>
      <trkpt lat="45.11814" lon="5.58734">
        <ele>1026.1</ele>
        <time>2021-08-30T14:41:36Z</time>
      </trkpt>
      <trkpt lat="45.11816" lon="5.58736">
        <ele>1026.2</ele>
        <time>2021-08-30T14:41:37Z</time>
      </trkpt>
      <trkpt lat="45.11818" lon="5.5874">
        <ele>1026.3</ele>
        <time>2021-08-30T14:41:39Z</time>
      </trkpt>
      <trkpt lat="45.11821" lon="5.58745">
        <ele>1026.4</ele>
        <time>2021-08-30T14:41:41Z</time>
      </trkpt>
      <trkpt lat="45.11823" lon="5.58747">
        <ele>1026.5</ele>
        <time>2021-08-30T14:41:42Z</time>
      </trkpt>
      <trkpt lat="45.11824" lon="5.58748">
        <ele>1026.5</ele>
        <time>2021-08-30T14:41:44Z</time>
      </trkpt>
      <trkpt lat="45.11829" lon="5.58745">
        <ele>1026.7</ele>
        <time>2021-08-30T14:41:46Z</time>
      </trkpt>
      <trkpt lat="45.1183" lon="5.58744">
        <ele>1026.7</ele>
        <time>2021-08-30T14:41:47Z</time>
      </trkpt>
      <trkpt lat="45.11833" lon="5.5874">
        <ele>1026.8</ele>
        <time>2021-08-30T14:41:49Z</time>
      </trkpt>
      <trkpt lat="45.11833" lon="5.58738">
        <ele>1026.9</ele>
        <time>2021-08-30T14:41:50Z</time>
      </trkpt>
      <trkpt lat="45.11833" lon="5.58731">
        <ele>1027</ele>
        <time>2021-08-30T14:41:52Z</time>
      </trkpt>
      <trkpt lat="45.11833" lon="5.58731">
        <ele>1027</ele>
        <time>2021-08-30T14:41:53Z</time>
      </trkpt>
      <trkpt lat="45.11833" lon="5.58731">
        <ele>1027</ele>
        <time>2021-08-30T14:41:55Z</time>
      </trkpt>
      <trkpt lat="45.11832" lon="5.58731">
        <ele>1027</ele>
        <time>2021-08-30T14:41:57Z</time>
      </trkpt>
      <trkpt lat="45.11803" lon="5.58544">
        <ele>1022.9</ele>
        <time>2021-08-31T09:04:25Z</time>
      </trkpt>
      <trkpt lat="45.11803" lon="5.58544">
        <ele>1022.9</ele>
        <time>2021-08-31T09:04:25Z</time>
      </trkpt>
      <trkpt lat="45.118" lon="5.58538">
        <ele>1022.8</ele>
        <time>2021-08-31T09:04:27Z</time>
      </trkpt>
      <trkpt lat="45.11797" lon="5.58538">
        <ele>1022.8</ele>
        <time>2021-08-31T09:04:28Z</time>
      </trkpt>
      <trkpt lat="45.11793" lon="5.58537">
        <ele>1022.7</ele>
        <time>2021-08-31T09:04:30Z</time>
      </trkpt>
      <trkpt lat="45.11792" lon="5.58537">
        <ele>1022.7</ele>
        <time>2021-08-31T09:04:32Z</time>
      </trkpt>
      <trkpt lat="45.11791" lon="5.58537">
        <ele>1022.6</ele>
        <time>2021-08-31T09:04:33Z</time>
      </trkpt>
      <trkpt lat="45.11791" lon="5.58537">
        <ele>1022.6</ele>
        <time>2021-08-31T09:04:34Z</time>
      </trkpt>
      <trkpt lat="45.1179" lon="5.58537">
        <ele>1022.6</ele>
        <time>2021-08-31T09:04:36Z</time>
      </trkpt>
      <trkpt lat="45.11789" lon="5.58537">
        <ele>1022.6</ele>
        <time>2021-08-31T09:04:37Z</time>
      </trkpt>
      <trkpt lat="45.11788" lon="5.58538">
        <ele>1022.6</ele>
        <time>2021-08-31T09:04:38Z</time>
      </trkpt>
      <trkpt lat="45.11787" lon="5.58538">
        <ele>1022.6</ele>
        <time>2021-08-31T09:04:40Z</time>
      </trkpt>
      <trkpt lat="45.11777" lon="5.58547">
        <ele>1023.1</ele>
        <time>2021-08-31T09:04:47Z</time>
      </trkpt>
      <trkpt lat="45.11774" lon="5.58548">
        <ele>1023.3</ele>
        <time>2021-08-31T09:04:48Z</time>
      </trkpt>
      <trkpt lat="45.11773" lon="5.5855">
        <ele>1023.4</ele>
        <time>2021-08-31T09:04:49Z</time>
      </trkpt>
      <trkpt lat="45.11769" lon="5.58554">
        <ele>1023.9</ele>
        <time>2021-08-31T09:04:51Z</time>
      </trkpt>
      <trkpt lat="45.11766" lon="5.58559">
        <ele>1024.4</ele>
        <time>2021-08-31T09:04:52Z</time>
      </trkpt>
      <trkpt lat="45.11764" lon="5.58561">
        <ele>1024.6</ele>
        <time>2021-08-31T09:04:53Z</time>
      </trkpt>
      <trkpt lat="45.11763" lon="5.58561">
        <ele>1024.8</ele>
        <time>2021-08-31T09:04:54Z</time>
      </trkpt>
      <trkpt lat="45.11761" lon="5.5856">
        <ele>1025.1</ele>
        <time>2021-08-31T09:04:56Z</time>
      </trkpt>
      <trkpt lat="45.11759" lon="5.58559">
        <ele>1025.2</ele>
        <time>2021-08-31T09:04:57Z</time>
      </trkpt>
      <trkpt lat="45.11758" lon="5.58558">
        <ele>1025.4</ele>
        <time>2021-08-31T09:04:59Z</time>
      </trkpt>
      <trkpt lat="45.11728" lon="5.5855">
        <ele>1029.6</ele>
        <time>2021-08-31T09:05:39Z</time>
      </trkpt>
      <trkpt lat="45.11722" lon="5.5855">
        <ele>1030.4</ele>
        <time>2021-08-31T09:05:41Z</time>
      </trkpt>
      <trkpt lat="45.11719" lon="5.58551">
        <ele>1030.9</ele>
        <time>2021-08-31T09:05:42Z</time>
      </trkpt>
      <trkpt lat="45.11717" lon="5.58551">
        <ele>1031</ele>
        <time>2021-08-31T09:05:43Z</time>
      </trkpt>
      <trkpt lat="45.11715" lon="5.58552">
        <ele>1031.2</ele>
        <time>2021-08-31T09:05:44Z</time>
      </trkpt>
      <trkpt lat="45.11711" lon="5.58552">
        <ele>1031.7</ele>
        <time>2021-08-31T09:05:46Z</time>
      </trkpt>
      <trkpt lat="45.11708" lon="5.58554">
        <ele>1032</ele>
        <time>2021-08-31T09:05:47Z</time>
      </trkpt>
      <trkpt lat="45.11707" lon="5.58554">
        <ele>1032.1</ele>
        <time>2021-08-31T09:05:48Z</time>
      </trkpt>
      <trkpt lat="45.11705" lon="5.58555">
        <ele>1032.4</ele>
        <time>2021-08-31T09:05:49Z</time>
      </trkpt>
      <trkpt lat="45.11704" lon="5.58556">
        <ele>1032.5</ele>
        <time>2021-08-31T09:05:50Z</time>
      </trkpt>
      <trkpt lat="45.11702" lon="5.58556">
        <ele>1032.6</ele>
        <time>2021-08-31T09:05:51Z</time>
      </trkpt>
      <trkpt lat="45.117" lon="5.58557">
        <ele>1032.8</ele>
        <time>2021-08-31T09:05:53Z</time>
      </trkpt>
      <trkpt lat="45.11699" lon="5.58557">
        <ele>1033</ele>
        <time>2021-08-31T09:05:54Z</time>
      </trkpt>
      <trkpt lat="45.11696" lon="5.58559">
        <ele>1033.2</ele>
        <time>2021-08-31T09:05:56Z</time>
      </trkpt>
      <trkpt lat="45.11695" lon="5.5856">
        <ele>1033.4</ele>
        <time>2021-08-31T09:05:57Z</time>
      </trkpt>
      <trkpt lat="45.11694" lon="5.58561">
        <ele>1033.5</ele>
        <time>2021-08-31T09:05:58Z</time>
      </trkpt>
      <trkpt lat="45.11693" lon="5.58561">
        <ele>1033.6</ele>
        <time>2021-08-31T09:06:00Z</time>
      </trkpt>
      <trkpt lat="45.11692" lon="5.58562">
        <ele>1033.6</ele>
        <time>2021-08-31T09:06:01Z</time>
      </trkpt>
      <trkpt lat="45.11692" lon="5.58562">
        <ele>1033.7</ele>
        <time>2021-08-31T09:06:02Z</time>
      </trkpt>
      <trkpt lat="45.11691" lon="5.58562">
        <ele>1033.7</ele>
        <time>2021-08-31T09:06:03Z</time>
      </trkpt>
      <trkpt lat="45.11691" lon="5.58562">
        <ele>1033.7</ele>
        <time>2021-08-31T09:06:04Z</time>
      </trkpt>
      <trkpt lat="45.11691" lon="5.58562">
        <ele>1033.8</ele>
        <time>2021-08-31T09:06:05Z</time>
      </trkpt>
      <trkpt lat="45.1169" lon="5.58562">
        <ele>1033.8</ele>
        <time>2021-08-31T09:06:06Z</time>
      </trkpt>
      <trkpt lat="45.11689" lon="5.58562">
        <ele>1033.9</ele>
        <time>2021-08-31T09:06:08Z</time>
      </trkpt>
      <trkpt lat="45.11687" lon="5.58562">
        <ele>1034</ele>
        <time>2021-08-31T09:06:09Z</time>
      </trkpt>
      <trkpt lat="45.11686" lon="5.58563">
        <ele>1034.2</ele>
        <time>2021-08-31T09:06:10Z</time>
      </trkpt>
      <trkpt lat="45.11685" lon="5.58563">
        <ele>1034.2</ele>
        <time>2021-08-31T09:06:11Z</time>
      </trkpt>
      <trkpt lat="45.11684" lon="5.58564">
        <ele>1034.4</ele>
        <time>2021-08-31T09:06:13Z</time>
      </trkpt>
      <trkpt lat="45.11681" lon="5.58565">
        <ele>1034.6</ele>
        <time>2021-08-31T09:06:15Z</time>
      </trkpt>
      <trkpt lat="45.11678" lon="5.58565">
        <ele>1034.8</ele>
        <time>2021-08-31T09:06:16Z</time>
      </trkpt>
      <trkpt lat="45.11677" lon="5.58565">
        <ele>1034.9</ele>
        <time>2021-08-31T09:06:18Z</time>
      </trkpt>
      <trkpt lat="45.11676" lon="5.58565">
        <ele>1035</ele>
        <time>2021-08-31T09:06:19Z</time>
      </trkpt>
      <trkpt lat="45.11675" lon="5.58565">
        <ele>1035</ele>
        <time>2021-08-31T09:06:20Z</time>
      </trkpt>
      <trkpt lat="45.11673" lon="5.58566">
        <ele>1035.2</ele>
        <time>2021-08-31T09:06:21Z</time>
      </trkpt>
      <trkpt lat="45.11672" lon="5.58566">
        <ele>1035.2</ele>
        <time>2021-08-31T09:06:22Z</time>
      </trkpt>
      <trkpt lat="45.11672" lon="5.58565">
        <ele>1035.3</ele>
        <time>2021-08-31T09:06:24Z</time>
      </trkpt>
      <trkpt lat="45.1167" lon="5.58565">
        <ele>1035.4</ele>
        <time>2021-08-31T09:06:26Z</time>
      </trkpt>
      <trkpt lat="45.11669" lon="5.58565">
        <ele>1035.5</ele>
        <time>2021-08-31T09:06:27Z</time>
      </trkpt>
      <trkpt lat="45.11667" lon="5.58566">
        <ele>1035.6</ele>
        <time>2021-08-31T09:06:28Z</time>
      </trkpt>
      <trkpt lat="45.11664" lon="5.58566">
        <ele>1035.9</ele>
        <time>2021-08-31T09:06:30Z</time>
      </trkpt>
      <trkpt lat="45.11661" lon="5.58567">
        <ele>1036.2</ele>
        <time>2021-08-31T09:06:31Z</time>
      </trkpt>
      <trkpt lat="45.11657" lon="5.58568">
        <ele>1036.6</ele>
        <time>2021-08-31T09:06:32Z</time>
      </trkpt>
      <trkpt lat="45.11656" lon="5.58569">
        <ele>1036.7</ele>
        <time>2021-08-31T09:06:33Z</time>
      </trkpt>
      <trkpt lat="45.11655" lon="5.5857">
        <ele>1036.9</ele>
        <time>2021-08-31T09:06:34Z</time>
      </trkpt>
      <trkpt lat="45.11653" lon="5.58571">
        <ele>1037.1</ele>
        <time>2021-08-31T09:06:35Z</time>
      </trkpt>
      <trkpt lat="45.11652" lon="5.58572">
        <ele>1037.3</ele>
        <time>2021-08-31T09:06:36Z</time>
      </trkpt>
      <trkpt lat="45.11651" lon="5.58574">
        <ele>1037.5</ele>
        <time>2021-08-31T09:06:37Z</time>
      </trkpt>
      <trkpt lat="45.1165" lon="5.58575">
        <ele>1037.7</ele>
        <time>2021-08-31T09:06:38Z</time>
      </trkpt>
      <trkpt lat="45.11648" lon="5.58576">
        <ele>1038</ele>
        <time>2021-08-31T09:06:40Z</time>
      </trkpt>
      <trkpt lat="45.11646" lon="5.58578">
        <ele>1038.2</ele>
        <time>2021-08-31T09:06:41Z</time>
      </trkpt>
      <trkpt lat="45.11645" lon="5.58579">
        <ele>1038.4</ele>
        <time>2021-08-31T09:06:42Z</time>
      </trkpt>
      <trkpt lat="45.11644" lon="5.5858">
        <ele>1038.6</ele>
        <time>2021-08-31T09:06:43Z</time>
      </trkpt>
      <trkpt lat="45.11642" lon="5.58581">
        <ele>1038.8</ele>
        <time>2021-08-31T09:06:45Z</time>
      </trkpt>
      <trkpt lat="45.11641" lon="5.58583">
        <ele>1039</ele>
        <time>2021-08-31T09:06:46Z</time>
      </trkpt>
      <trkpt lat="45.1164" lon="5.58584">
        <ele>1039.2</ele>
        <time>2021-08-31T09:06:47Z</time>
      </trkpt>
      <trkpt lat="45.11638" lon="5.58587">
        <ele>1039.6</ele>
        <time>2021-08-31T09:06:49Z</time>
      </trkpt>
      <trkpt lat="45.11638" lon="5.58588">
        <ele>1039.7</ele>
        <time>2021-08-31T09:06:50Z</time>
      </trkpt>
      <trkpt lat="45.11637" lon="5.58589">
        <ele>1039.8</ele>
        <time>2021-08-31T09:06:51Z</time>
      </trkpt>
      <trkpt lat="45.11636" lon="5.5859">
        <ele>1040</ele>
        <time>2021-08-31T09:06:52Z</time>
      </trkpt>
      <trkpt lat="45.11635" lon="5.58592">
        <ele>1040.2</ele>
        <time>2021-08-31T09:06:54Z</time>
      </trkpt>
      <trkpt lat="45.11633" lon="5.58594">
        <ele>1040.5</ele>
        <time>2021-08-31T09:06:56Z</time>
      </trkpt>
      <trkpt lat="45.11631" lon="5.58596">
        <ele>1040.8</ele>
        <time>2021-08-31T09:06:57Z</time>
      </trkpt>
      <trkpt lat="45.11631" lon="5.58596">
        <ele>1040.9</ele>
        <time>2021-08-31T09:06:58Z</time>
      </trkpt>
      <trkpt lat="45.11632" lon="5.58596">
        <ele>1041.1</ele>
        <time>2021-08-31T09:06:59Z</time>
      </trkpt>
      <trkpt lat="45.11632" lon="5.58596">
        <ele>1041.1</ele>
        <time>2021-08-31T09:07:00Z</time>
      </trkpt>
      <trkpt lat="45.11632" lon="5.58597">
        <ele>1041.2</ele>
        <time>2021-08-31T09:07:01Z</time>
      </trkpt>
      <trkpt lat="45.11631" lon="5.58597">
        <ele>1041.2</ele>
        <time>2021-08-31T09:07:02Z</time>
      </trkpt>
      <trkpt lat="45.11631" lon="5.58597">
        <ele>1041.3</ele>
        <time>2021-08-31T09:07:03Z</time>
      </trkpt>
      <trkpt lat="45.11631" lon="5.58597">
        <ele>1041.3</ele>
        <time>2021-08-31T09:07:05Z</time>
      </trkpt>
      <trkpt lat="45.11631" lon="5.58597">
        <ele>1041.3</ele>
        <time>2021-08-31T09:07:07Z</time>
      </trkpt>
      <trkpt lat="45.11631" lon="5.58598">
        <ele>1041.4</ele>
        <time>2021-08-31T09:07:08Z</time>
      </trkpt>
      <trkpt lat="45.11631" lon="5.58598">
        <ele>1041.4</ele>
        <time>2021-08-31T09:07:10Z</time>
      </trkpt>
      <trkpt lat="45.11631" lon="5.58599">
        <ele>1041.5</ele>
        <time>2021-08-31T09:07:11Z</time>
      </trkpt>
      <trkpt lat="45.1163" lon="5.58599">
        <ele>1041.6</ele>
        <time>2021-08-31T09:07:13Z</time>
      </trkpt>
      <trkpt lat="45.11605" lon="5.58601">
        <ele>1045.2</ele>
        <time>2021-08-31T09:07:39Z</time>
      </trkpt>
      <trkpt lat="45.11604" lon="5.586">
        <ele>1045.3</ele>
        <time>2021-08-31T09:07:40Z</time>
      </trkpt>
      <trkpt lat="45.11602" lon="5.586">
        <ele>1045.5</ele>
        <time>2021-08-31T09:07:41Z</time>
      </trkpt>
      <trkpt lat="45.11598" lon="5.586">
        <ele>1045.8</ele>
        <time>2021-08-31T09:07:43Z</time>
      </trkpt>
      <trkpt lat="45.11594" lon="5.58599">
        <ele>1046.1</ele>
        <time>2021-08-31T09:07:44Z</time>
      </trkpt>
      <trkpt lat="45.11592" lon="5.58598">
        <ele>1046.3</ele>
        <time>2021-08-31T09:07:46Z</time>
      </trkpt>
      <trkpt lat="45.11591" lon="5.58598">
        <ele>1046.4</ele>
        <time>2021-08-31T09:07:47Z</time>
      </trkpt>
      <trkpt lat="45.11588" lon="5.58597">
        <ele>1046.6</ele>
        <time>2021-08-31T09:07:48Z</time>
      </trkpt>
      <trkpt lat="45.11587" lon="5.58597">
        <ele>1046.7</ele>
        <time>2021-08-31T09:07:49Z</time>
      </trkpt>
      <trkpt lat="45.11584" lon="5.58595">
        <ele>1046.9</ele>
        <time>2021-08-31T09:07:50Z</time>
      </trkpt>
      <trkpt lat="45.11582" lon="5.58594">
        <ele>1047</ele>
        <time>2021-08-31T09:07:52Z</time>
      </trkpt>
      <trkpt lat="45.11582" lon="5.58592">
        <ele>1047.1</ele>
        <time>2021-08-31T09:07:53Z</time>
      </trkpt>
      <trkpt lat="45.1158" lon="5.5859">
        <ele>1047.2</ele>
        <time>2021-08-31T09:07:55Z</time>
      </trkpt>
      <trkpt lat="45.11578" lon="5.58587">
        <ele>1047.3</ele>
        <time>2021-08-31T09:07:57Z</time>
      </trkpt>
      <trkpt lat="45.11576" lon="5.58586">
        <ele>1047.5</ele>
        <time>2021-08-31T09:07:58Z</time>
      </trkpt>
      <trkpt lat="45.11575" lon="5.58586">
        <ele>1047.6</ele>
        <time>2021-08-31T09:08:00Z</time>
      </trkpt>
      <trkpt lat="45.11573" lon="5.58586">
        <ele>1047.7</ele>
        <time>2021-08-31T09:08:01Z</time>
      </trkpt>
      <trkpt lat="45.11571" lon="5.58585">
        <ele>1047.7</ele>
        <time>2021-08-31T09:08:02Z</time>
      </trkpt>
      <trkpt lat="45.11568" lon="5.58585">
        <ele>1047.9</ele>
        <time>2021-08-31T09:08:04Z</time>
      </trkpt>
      <trkpt lat="45.11567" lon="5.58585">
        <ele>1048</ele>
        <time>2021-08-31T09:08:05Z</time>
      </trkpt>
      <trkpt lat="45.11564" lon="5.58585">
        <ele>1048.2</ele>
        <time>2021-08-31T09:08:06Z</time>
      </trkpt>
      <trkpt lat="45.11562" lon="5.58585">
        <ele>1048.2</ele>
        <time>2021-08-31T09:08:07Z</time>
      </trkpt>
      <trkpt lat="45.1156" lon="5.58585">
        <ele>1048.4</ele>
        <time>2021-08-31T09:08:08Z</time>
      </trkpt>
      <trkpt lat="45.11556" lon="5.58585">
        <ele>1048.6</ele>
        <time>2021-08-31T09:08:10Z</time>
      </trkpt>
      <trkpt lat="45.11555" lon="5.58585">
        <ele>1048.7</ele>
        <time>2021-08-31T09:08:11Z</time>
      </trkpt>
      <trkpt lat="45.11551" lon="5.58584">
        <ele>1048.9</ele>
        <time>2021-08-31T09:08:13Z</time>
      </trkpt>
      <trkpt lat="45.11549" lon="5.58584">
        <ele>1049</ele>
        <time>2021-08-31T09:08:14Z</time>
      </trkpt>
      <trkpt lat="45.11547" lon="5.58585">
        <ele>1049.1</ele>
        <time>2021-08-31T09:08:15Z</time>
      </trkpt>
      <trkpt lat="45.11544" lon="5.58586">
        <ele>1049.3</ele>
        <time>2021-08-31T09:08:16Z</time>
      </trkpt>
      <trkpt lat="45.11543" lon="5.58586">
        <ele>1049.3</ele>
        <time>2021-08-31T09:08:17Z</time>
      </trkpt>
      <trkpt lat="45.11541" lon="5.58587">
        <ele>1049.5</ele>
        <time>2021-08-31T09:08:19Z</time>
      </trkpt>
      <trkpt lat="45.1154" lon="5.58587">
        <ele>1049.5</ele>
        <time>2021-08-31T09:08:20Z</time>
      </trkpt>
      <trkpt lat="45.11537" lon="5.58587">
        <ele>1049.6</ele>
        <time>2021-08-31T09:08:21Z</time>
      </trkpt>
      <trkpt lat="45.11535" lon="5.58588">
        <ele>1049.7</ele>
        <time>2021-08-31T09:08:23Z</time>
      </trkpt>
      <trkpt lat="45.11532" lon="5.58589">
        <ele>1049.7</ele>
        <time>2021-08-31T09:08:25Z</time>
      </trkpt>
      <trkpt lat="45.11528" lon="5.58591">
        <ele>1049.7</ele>
        <time>2021-08-31T09:08:26Z</time>
      </trkpt>
      <trkpt lat="45.11526" lon="5.58591">
        <ele>1049.7</ele>
        <time>2021-08-31T09:08:27Z</time>
      </trkpt>
      <trkpt lat="45.11523" lon="5.58593">
        <ele>1049.6</ele>
        <time>2021-08-31T09:08:28Z</time>
      </trkpt>
      <trkpt lat="45.1152" lon="5.58595">
        <ele>1049.5</ele>
        <time>2021-08-31T09:08:29Z</time>
      </trkpt>
      <trkpt lat="45.11514" lon="5.58599">
        <ele>1049.2</ele>
        <time>2021-08-31T09:08:31Z</time>
      </trkpt>
      <trkpt lat="45.11509" lon="5.58602">
        <ele>1048.9</ele>
        <time>2021-08-31T09:08:32Z</time>
      </trkpt>
      <trkpt lat="45.11503" lon="5.58604">
        <ele>1048.6</ele>
        <time>2021-08-31T09:08:33Z</time>
      </trkpt>
      <trkpt lat="45.11498" lon="5.58606">
        <ele>1048.3</ele>
        <time>2021-08-31T09:08:34Z</time>
      </trkpt>
      <trkpt lat="45.11487" lon="5.5861">
        <ele>1047.8</ele>
        <time>2021-08-31T09:08:36Z</time>
      </trkpt>
      <trkpt lat="45.11481" lon="5.58612">
        <ele>1047.5</ele>
        <time>2021-08-31T09:08:37Z</time>
      </trkpt>
      <trkpt lat="45.11467" lon="5.58614">
        <ele>1047.2</ele>
        <time>2021-08-31T09:08:39Z</time>
      </trkpt>
      <trkpt lat="45.11458" lon="5.58617">
        <ele>1047.2</ele>
        <time>2021-08-31T09:08:41Z</time>
      </trkpt>
      <trkpt lat="45.11451" lon="5.58619">
        <ele>1047.3</ele>
        <time>2021-08-31T09:08:43Z</time>
      </trkpt>
      <trkpt lat="45.1145" lon="5.58619">
        <ele>1047.4</ele>
        <time>2021-08-31T09:08:44Z</time>
      </trkpt>
      <trkpt lat="45.11448" lon="5.58621">
        <ele>1047.5</ele>
        <time>2021-08-31T09:08:45Z</time>
      </trkpt>
      <trkpt lat="45.11444" lon="5.58624">
        <ele>1047.8</ele>
        <time>2021-08-31T09:08:47Z</time>
      </trkpt>
      <trkpt lat="45.11441" lon="5.58626">
        <ele>1048.1</ele>
        <time>2021-08-31T09:08:48Z</time>
      </trkpt>
      <trkpt lat="45.11441" lon="5.58626">
        <ele>1048.2</ele>
        <time>2021-08-31T09:08:49Z</time>
      </trkpt>
      <trkpt lat="45.1144" lon="5.58628">
        <ele>1048.3</ele>
        <time>2021-08-31T09:08:50Z</time>
      </trkpt>
      <trkpt lat="45.11439" lon="5.58629">
        <ele>1048.4</ele>
        <time>2021-08-31T09:08:52Z</time>
      </trkpt>
      <trkpt lat="45.11438" lon="5.58629">
        <ele>1048.5</ele>
        <time>2021-08-31T09:08:53Z</time>
      </trkpt>
      <trkpt lat="45.11437" lon="5.58631">
        <ele>1048.7</ele>
        <time>2021-08-31T09:08:55Z</time>
      </trkpt>
      <trkpt lat="45.11437" lon="5.58632">
        <ele>1048.8</ele>
        <time>2021-08-31T09:08:56Z</time>
      </trkpt>
      <trkpt lat="45.11436" lon="5.58634">
        <ele>1048.8</ele>
        <time>2021-08-31T09:08:57Z</time>
      </trkpt>
      <trkpt lat="45.11433" lon="5.58636">
        <ele>1049.3</ele>
        <time>2021-08-31T09:08:59Z</time>
      </trkpt>
      <trkpt lat="45.1143" lon="5.58639">
        <ele>1050</ele>
        <time>2021-08-31T09:09:01Z</time>
      </trkpt>
      <trkpt lat="45.11429" lon="5.5864">
        <ele>1050.2</ele>
        <time>2021-08-31T09:09:02Z</time>
      </trkpt>
      <trkpt lat="45.11429" lon="5.58643">
        <ele>1050.5</ele>
        <time>2021-08-31T09:09:03Z</time>
      </trkpt>
      <trkpt lat="45.11427" lon="5.58644">
        <ele>1050.8</ele>
        <time>2021-08-31T09:09:05Z</time>
      </trkpt>
      <trkpt lat="45.11427" lon="5.58644">
        <ele>1050.9</ele>
        <time>2021-08-31T09:09:07Z</time>
      </trkpt>
      <trkpt lat="45.11426" lon="5.58643">
        <ele>1051</ele>
        <time>2021-08-31T09:09:08Z</time>
      </trkpt>
      <trkpt lat="45.11427" lon="5.58643">
        <ele>1051.2</ele>
        <time>2021-08-31T09:09:09Z</time>
      </trkpt>
      <trkpt lat="45.11428" lon="5.58642">
        <ele>1051.3</ele>
        <time>2021-08-31T09:09:11Z</time>
      </trkpt>
      <trkpt lat="45.11429" lon="5.58641">
        <ele>1051.5</ele>
        <time>2021-08-31T09:09:12Z</time>
      </trkpt>
      <trkpt lat="45.11429" lon="5.5864">
        <ele>1051.6</ele>
        <time>2021-08-31T09:09:14Z</time>
      </trkpt>
      <trkpt lat="45.11429" lon="5.5864">
        <ele>1051.7</ele>
        <time>2021-08-31T09:09:15Z</time>
      </trkpt>
      <trkpt lat="45.11429" lon="5.5864">
        <ele>1051.7</ele>
        <time>2021-08-31T09:09:16Z</time>
      </trkpt>
      <trkpt lat="45.11429" lon="5.5864">
        <ele>1051.7</ele>
        <time>2021-08-31T09:09:18Z</time>
      </trkpt>
      <trkpt lat="45.11428" lon="5.58641">
        <ele>1051.9</ele>
        <time>2021-08-31T09:09:20Z</time>
      </trkpt>
      <trkpt lat="45.11427" lon="5.58641">
        <ele>1052.1</ele>
        <time>2021-08-31T09:09:21Z</time>
      </trkpt>
      <trkpt lat="45.11425" lon="5.58641">
        <ele>1052.3</ele>
        <time>2021-08-31T09:09:23Z</time>
      </trkpt>
      <trkpt lat="45.11424" lon="5.58642">
        <ele>1052.5</ele>
        <time>2021-08-31T09:09:24Z</time>
      </trkpt>
      <trkpt lat="45.11405" lon="5.58647">
        <ele>1055</ele>
        <time>2021-08-31T09:09:54Z</time>
      </trkpt>
      <trkpt lat="45.11404" lon="5.58646">
        <ele>1055.1</ele>
        <time>2021-08-31T09:09:55Z</time>
      </trkpt>
      <trkpt lat="45.11403" lon="5.58646">
        <ele>1055.1</ele>
        <time>2021-08-31T09:09:56Z</time>
      </trkpt>
      <trkpt lat="45.11402" lon="5.58646">
        <ele>1055.2</ele>
        <time>2021-08-31T09:09:58Z</time>
      </trkpt>
      <trkpt lat="45.11401" lon="5.58646">
        <ele>1055.4</ele>
        <time>2021-08-31T09:09:59Z</time>
      </trkpt>
      <trkpt lat="45.11399" lon="5.58645">
        <ele>1055.6</ele>
        <time>2021-08-31T09:10:01Z</time>
      </trkpt>
      <trkpt lat="45.11396" lon="5.58645">
        <ele>1055.9</ele>
        <time>2021-08-31T09:10:02Z</time>
      </trkpt>
      <trkpt lat="45.11394" lon="5.58645">
        <ele>1056.1</ele>
        <time>2021-08-31T09:10:03Z</time>
      </trkpt>
      <trkpt lat="45.11392" lon="5.58644">
        <ele>1056.3</ele>
        <time>2021-08-31T09:10:05Z</time>
      </trkpt>
      <trkpt lat="45.11363" lon="5.58633">
        <ele>1058.9</ele>
        <time>2021-08-31T09:10:26Z</time>
      </trkpt>
      <trkpt lat="45.11358" lon="5.58633">
        <ele>1059.2</ele>
        <time>2021-08-31T09:10:27Z</time>
      </trkpt>
      <trkpt lat="45.11355" lon="5.58633">
        <ele>1059.4</ele>
        <time>2021-08-31T09:10:29Z</time>
      </trkpt>
      <trkpt lat="45.11352" lon="5.58633">
        <ele>1059.5</ele>
        <time>2021-08-31T09:10:30Z</time>
      </trkpt>
      <trkpt lat="45.11351" lon="5.58632">
        <ele>1059.6</ele>
        <time>2021-08-31T09:10:31Z</time>
      </trkpt>
      <trkpt lat="45.11349" lon="5.58632">
        <ele>1059.7</ele>
        <time>2021-08-31T09:10:33Z</time>
      </trkpt>
      <trkpt lat="45.11347" lon="5.58631">
        <ele>1059.8</ele>
        <time>2021-08-31T09:10:34Z</time>
      </trkpt>
      <trkpt lat="45.11346" lon="5.58631">
        <ele>1059.9</ele>
        <time>2021-08-31T09:10:35Z</time>
      </trkpt>
      <trkpt lat="45.11344" lon="5.58631">
        <ele>1059.9</ele>
        <time>2021-08-31T09:10:37Z</time>
      </trkpt>
      <trkpt lat="45.11342" lon="5.5863">
        <ele>1060</ele>
        <time>2021-08-31T09:10:38Z</time>
      </trkpt>
      <trkpt lat="45.11342" lon="5.58629">
        <ele>1060.1</ele>
        <time>2021-08-31T09:10:40Z</time>
      </trkpt>
      <trkpt lat="45.11341" lon="5.58628">
        <ele>1060.1</ele>
        <time>2021-08-31T09:10:41Z</time>
      </trkpt>
      <trkpt lat="45.11341" lon="5.58626">
        <ele>1060.2</ele>
        <time>2021-08-31T09:10:42Z</time>
      </trkpt>
      <trkpt lat="45.1134" lon="5.58625">
        <ele>1060.3</ele>
        <time>2021-08-31T09:10:44Z</time>
      </trkpt>
      <trkpt lat="45.11339" lon="5.58624">
        <ele>1060.4</ele>
        <time>2021-08-31T09:10:45Z</time>
      </trkpt>
      <trkpt lat="45.11244" lon="5.58669">
        <ele>1069.9</ele>
        <time>2021-08-31T09:13:17Z</time>
      </trkpt>
      <trkpt lat="45.11241" lon="5.58675">
        <ele>1070.5</ele>
        <time>2021-08-31T09:13:19Z</time>
      </trkpt>
      <trkpt lat="45.11239" lon="5.58676">
        <ele>1070.7</ele>
        <time>2021-08-31T09:13:20Z</time>
      </trkpt>
      <trkpt lat="45.11237" lon="5.58678">
        <ele>1071</ele>
        <time>2021-08-31T09:13:21Z</time>
      </trkpt>
      <trkpt lat="45.11231" lon="5.58683">
        <ele>1071.7</ele>
        <time>2021-08-31T09:13:23Z</time>
      </trkpt>
      <trkpt lat="45.11231" lon="5.58683">
        <ele>1071.8</ele>
        <time>2021-08-31T09:13:24Z</time>
      </trkpt>
      <trkpt lat="45.1123" lon="5.58684">
        <ele>1071.9</ele>
        <time>2021-08-31T09:13:25Z</time>
      </trkpt>
      <trkpt lat="45.11229" lon="5.58684">
        <ele>1072</ele>
        <time>2021-08-31T09:13:26Z</time>
      </trkpt>
      <trkpt lat="45.11228" lon="5.58684">
        <ele>1072.2</ele>
        <time>2021-08-31T09:13:28Z</time>
      </trkpt>
      <trkpt lat="45.11226" lon="5.58684">
        <ele>1072.4</ele>
        <time>2021-08-31T09:13:29Z</time>
      </trkpt>
      <trkpt lat="45.11075" lon="5.5865">
        <ele>1087</ele>
        <time>2021-08-31T09:15:26Z</time>
      </trkpt>
      <trkpt lat="45.11073" lon="5.5865">
        <ele>1087</ele>
        <time>2021-08-31T09:15:27Z</time>
      </trkpt>
      <trkpt lat="45.11069" lon="5.5865">
        <ele>1087</ele>
        <time>2021-08-31T09:15:28Z</time>
      </trkpt>
      <trkpt lat="45.11066" lon="5.58651">
        <ele>1087</ele>
        <time>2021-08-31T09:15:29Z</time>
      </trkpt>
      <trkpt lat="45.11061" lon="5.58654">
        <ele>1086.9</ele>
        <time>2021-08-31T09:15:31Z</time>
      </trkpt>
      <trkpt lat="45.11058" lon="5.58656">
        <ele>1086.7</ele>
        <time>2021-08-31T09:15:32Z</time>
      </trkpt>
      <trkpt lat="45.11056" lon="5.58656">
        <ele>1086.8</ele>
        <time>2021-08-31T09:15:33Z</time>
      </trkpt>
      <trkpt lat="45.11053" lon="5.58655">
        <ele>1086.9</ele>
        <time>2021-08-31T09:15:35Z</time>
      </trkpt>
      <trkpt lat="45.11053" lon="5.58656">
        <ele>1086.8</ele>
        <time>2021-08-31T09:15:36Z</time>
      </trkpt>
      <trkpt lat="45.11052" lon="5.58657">
        <ele>1086.7</ele>
        <time>2021-08-31T09:15:37Z</time>
      </trkpt>
      <trkpt lat="45.11052" lon="5.58658">
        <ele>1086.5</ele>
        <time>2021-08-31T09:15:38Z</time>
      </trkpt>
      <trkpt lat="45.11052" lon="5.58659">
        <ele>1087.7</ele>
        <time>2021-08-31T09:15:39Z</time>
      </trkpt>
      <trkpt lat="45.1105" lon="5.58664">
        <ele>1089</ele>
        <time>2021-08-31T09:15:41Z</time>
      </trkpt>
      <trkpt lat="45.1105" lon="5.58665">
        <ele>1088.9</ele>
        <time>2021-08-31T09:15:42Z</time>
      </trkpt>
      <trkpt lat="45.11049" lon="5.58665">
        <ele>1088.7</ele>
        <time>2021-08-31T09:15:43Z</time>
      </trkpt>
      <trkpt lat="45.11047" lon="5.58667">
        <ele>1088.8</ele>
        <time>2021-08-31T09:15:44Z</time>
      </trkpt>
      <trkpt lat="45.11046" lon="5.58668">
        <ele>1090</ele>
        <time>2021-08-31T09:15:45Z</time>
      </trkpt>
      <trkpt lat="45.11045" lon="5.58669">
        <ele>1090</ele>
        <time>2021-08-31T09:15:46Z</time>
      </trkpt>
      <trkpt lat="45.11044" lon="5.58669">
        <ele>1089.9</ele>
        <time>2021-08-31T09:15:48Z</time>
      </trkpt>
      <trkpt lat="45.11044" lon="5.5867">
        <ele>1089.8</ele>
        <time>2021-08-31T09:15:49Z</time>
      </trkpt>
      <trkpt lat="45.11045" lon="5.58671">
        <ele>1089.7</ele>
        <time>2021-08-31T09:15:50Z</time>
      </trkpt>
      <trkpt lat="45.11045" lon="5.58672">
        <ele>1089.5</ele>
        <time>2021-08-31T09:15:52Z</time>
      </trkpt>
      <trkpt lat="45.11045" lon="5.58674">
        <ele>1090.7</ele>
        <time>2021-08-31T09:15:54Z</time>
      </trkpt>
      <trkpt lat="45.11045" lon="5.58675">
        <ele>1090.6</ele>
        <time>2021-08-31T09:15:55Z</time>
      </trkpt>
      <trkpt lat="45.11045" lon="5.58675">
        <ele>1090.5</ele>
        <time>2021-08-31T09:15:56Z</time>
      </trkpt>
      <trkpt lat="45.11056" lon="5.58675">
        <ele>1092</ele>
        <time>2021-08-31T09:16:49Z</time>
      </trkpt>
      <trkpt lat="45.11058" lon="5.58677">
        <ele>1092.5</ele>
        <time>2021-08-31T09:16:51Z</time>
      </trkpt>
      <trkpt lat="45.11059" lon="5.58678">
        <ele>1092.6</ele>
        <time>2021-08-31T09:16:52Z</time>
      </trkpt>
      <trkpt lat="45.11058" lon="5.58678">
        <ele>1092.8</ele>
        <time>2021-08-31T09:16:53Z</time>
      </trkpt>
      <trkpt lat="45.11057" lon="5.58677">
        <ele>1092.9</ele>
        <time>2021-08-31T09:16:54Z</time>
      </trkpt>
      <trkpt lat="45.11055" lon="5.58677">
        <ele>1093.2</ele>
        <time>2021-08-31T09:16:56Z</time>
      </trkpt>
      <trkpt lat="45.11056" lon="5.58678">
        <ele>1093.2</ele>
        <time>2021-08-31T09:16:57Z</time>
      </trkpt>
      <trkpt lat="45.11056" lon="5.58678">
        <ele>1093.3</ele>
        <time>2021-08-31T09:16:58Z</time>
      </trkpt>
      <trkpt lat="45.11056" lon="5.58678">
        <ele>1093.3</ele>
        <time>2021-08-31T09:17:00Z</time>
      </trkpt>
      <trkpt lat="45.11055" lon="5.58679">
        <ele>1093.5</ele>
        <time>2021-08-31T09:17:01Z</time>
      </trkpt>
      <trkpt lat="45.11054" lon="5.5868">
        <ele>1093.6</ele>
        <time>2021-08-31T09:17:03Z</time>
      </trkpt>
      <trkpt lat="45.11054" lon="5.58681">
        <ele>1093.8</ele>
        <time>2021-08-31T09:17:04Z</time>
      </trkpt>
      <trkpt lat="45.11053" lon="5.58683">
        <ele>1094</ele>
        <time>2021-08-31T09:17:06Z</time>
      </trkpt>
      <trkpt lat="45.11054" lon="5.58685">
        <ele>1094.4</ele>
        <time>2021-08-31T09:17:07Z</time>
      </trkpt>
      <trkpt lat="45.1106" lon="5.587">
        <ele>1096.4</ele>
        <time>2021-08-31T09:17:19Z</time>
      </trkpt>
      <trkpt lat="45.1106" lon="5.58701">
        <ele>1096.6</ele>
        <time>2021-08-31T09:17:21Z</time>
      </trkpt>
      <trkpt lat="45.11061" lon="5.58701">
        <ele>1096.7</ele>
        <time>2021-08-31T09:17:22Z</time>
      </trkpt>
      <trkpt lat="45.11061" lon="5.58701">
        <ele>1096.8</ele>
        <time>2021-08-31T09:17:24Z</time>
      </trkpt>
      <trkpt lat="45.11062" lon="5.58702">
        <ele>1096.9</ele>
        <time>2021-08-31T09:17:25Z</time>
      </trkpt>
      <trkpt lat="45.11062" lon="5.58702">
        <ele>1096.9</ele>
        <time>2021-08-31T09:17:26Z</time>
      </trkpt>
      <trkpt lat="45.11062" lon="5.58703">
        <ele>1097.1</ele>
        <time>2021-08-31T09:17:28Z</time>
      </trkpt>
      <trkpt lat="45.11062" lon="5.58704">
        <ele>1097.2</ele>
        <time>2021-08-31T09:17:29Z</time>
      </trkpt>
      <trkpt lat="45.11062" lon="5.58705">
        <ele>1097.2</ele>
        <time>2021-08-31T09:17:30Z</time>
      </trkpt>
      <trkpt lat="45.11062" lon="5.58706">
        <ele>1097.4</ele>
        <time>2021-08-31T09:17:32Z</time>
      </trkpt>
      <trkpt lat="45.11124" lon="5.58724">
        <ele>1108.5</ele>
        <time>2021-08-31T09:20:31Z</time>
      </trkpt>
      <trkpt lat="45.11125" lon="5.58724">
        <ele>1108.7</ele>
        <time>2021-08-31T09:20:33Z</time>
      </trkpt>
      <trkpt lat="45.11125" lon="5.58724">
        <ele>1108.7</ele>
        <time>2021-08-31T09:20:34Z</time>
      </trkpt>
      <trkpt lat="45.11125" lon="5.58724">
        <ele>1108.8</ele>
        <time>2021-08-31T09:20:36Z</time>
      </trkpt>
      <trkpt lat="45.11125" lon="5.58724">
        <ele>1108.8</ele>
        <time>2021-08-31T09:20:37Z</time>
      </trkpt>
      <trkpt lat="45.11124" lon="5.58724">
        <ele>1108.9</ele>
        <time>2021-08-31T09:20:38Z</time>
      </trkpt>
      <trkpt lat="45.11124" lon="5.58724">
        <ele>1108.9</ele>
        <time>2021-08-31T09:20:40Z</time>
      </trkpt>
      <trkpt lat="45.11124" lon="5.58725">
        <ele>1109</ele>
        <time>2021-08-31T09:20:42Z</time>
      </trkpt>
      <trkpt lat="45.11124" lon="5.58726">
        <ele>1109.1</ele>
        <time>2021-08-31T09:20:43Z</time>
      </trkpt>
      <trkpt lat="45.11125" lon="5.58728">
        <ele>1109.4</ele>
        <time>2021-08-31T09:20:44Z</time>
      </trkpt>
      <trkpt lat="45.11125" lon="5.5873">
        <ele>1109.6</ele>
        <time>2021-08-31T09:20:46Z</time>
      </trkpt>
      <trkpt lat="45.11126" lon="5.58731">
        <ele>1109.8</ele>
        <time>2021-08-31T09:20:47Z</time>
      </trkpt>
      <trkpt lat="45.11128" lon="5.58733">
        <ele>1110.1</ele>
        <time>2021-08-31T09:20:48Z</time>
      </trkpt>
      <trkpt lat="45.11129" lon="5.58735">
        <ele>1110.3</ele>
        <time>2021-08-31T09:20:50Z</time>
      </trkpt>
      <trkpt lat="45.11129" lon="5.58736">
        <ele>1110.5</ele>
        <time>2021-08-31T09:20:51Z</time>
      </trkpt>
      <trkpt lat="45.1113" lon="5.58737">
        <ele>1110.6</ele>
        <time>2021-08-31T09:20:53Z</time>
      </trkpt>
      <trkpt lat="45.11131" lon="5.58738">
        <ele>1110.8</ele>
        <time>2021-08-31T09:20:54Z</time>
      </trkpt>
      <trkpt lat="45.11132" lon="5.58739">
        <ele>1110.9</ele>
        <time>2021-08-31T09:20:56Z</time>
      </trkpt>
      <trkpt lat="45.11132" lon="5.58738">
        <ele>1111</ele>
        <time>2021-08-31T09:20:57Z</time>
      </trkpt>
      <trkpt lat="45.11133" lon="5.58738">
        <ele>1111</ele>
        <time>2021-08-31T09:20:58Z</time>
      </trkpt>
      <trkpt lat="45.11134" lon="5.58739">
        <ele>1111.2</ele>
        <time>2021-08-31T09:21:00Z</time>
      </trkpt>
      <trkpt lat="45.11134" lon="5.58739">
        <ele>1111.3</ele>
        <time>2021-08-31T09:21:01Z</time>
      </trkpt>
      <trkpt lat="45.11136" lon="5.58741">
        <ele>1111.5</ele>
        <time>2021-08-31T09:21:03Z</time>
      </trkpt>
      <trkpt lat="45.11137" lon="5.58742">
        <ele>1111.7</ele>
        <time>2021-08-31T09:21:04Z</time>
      </trkpt>
      <trkpt lat="45.11139" lon="5.58743">
        <ele>1112</ele>
        <time>2021-08-31T09:21:06Z</time>
      </trkpt>
      <trkpt lat="45.1114" lon="5.58743">
        <ele>1112.1</ele>
        <time>2021-08-31T09:21:07Z</time>
      </trkpt>
      <trkpt lat="45.11142" lon="5.58758">
        <ele>1113.3</ele>
        <time>2021-08-31T09:21:23Z</time>
      </trkpt>
      <trkpt lat="45.11139" lon="5.58759">
        <ele>1113.6</ele>
        <time>2021-08-31T09:21:24Z</time>
      </trkpt>
      <trkpt lat="45.11136" lon="5.58759">
        <ele>1113.9</ele>
        <time>2021-08-31T09:21:25Z</time>
      </trkpt>
      <trkpt lat="45.11135" lon="5.58756">
        <ele>1114.1</ele>
        <time>2021-08-31T09:21:27Z</time>
      </trkpt>
      <trkpt lat="45.11134" lon="5.58755">
        <ele>1114.2</ele>
        <time>2021-08-31T09:21:28Z</time>
      </trkpt>
      <trkpt lat="45.11132" lon="5.58755">
        <ele>1114.4</ele>
        <time>2021-08-31T09:21:29Z</time>
      </trkpt>
      <trkpt lat="45.11132" lon="5.58756">
        <ele>1114.4</ele>
        <time>2021-08-31T09:21:31Z</time>
      </trkpt>
      <trkpt lat="45.11133" lon="5.58755">
        <ele>1114.5</ele>
        <time>2021-08-31T09:21:32Z</time>
      </trkpt>
      <trkpt lat="45.11134" lon="5.58755">
        <ele>1114.7</ele>
        <time>2021-08-31T09:21:34Z</time>
      </trkpt>
      <trkpt lat="45.11135" lon="5.58755">
        <ele>1114.7</ele>
        <time>2021-08-31T09:21:35Z</time>
      </trkpt>
      <trkpt lat="45.11137" lon="5.58756">
        <ele>1114.9</ele>
        <time>2021-08-31T09:21:37Z</time>
      </trkpt>
      <trkpt lat="45.11139" lon="5.58757">
        <ele>1115.2</ele>
        <time>2021-08-31T09:21:39Z</time>
      </trkpt>
      <trkpt lat="45.11141" lon="5.58757">
        <ele>1115.3</ele>
        <time>2021-08-31T09:21:40Z</time>
      </trkpt>
      <trkpt lat="45.11142" lon="5.58758">
        <ele>1115.4</ele>
        <time>2021-08-31T09:21:41Z</time>
      </trkpt>
      <trkpt lat="45.11144" lon="5.58758">
        <ele>1115.6</ele>
        <time>2021-08-31T09:21:42Z</time>
      </trkpt>
      <trkpt lat="45.11146" lon="5.58758">
        <ele>1115.7</ele>
        <time>2021-08-31T09:21:43Z</time>
      </trkpt>
      <trkpt lat="45.11147" lon="5.58759">
        <ele>1115.9</ele>
        <time>2021-08-31T09:21:45Z</time>
      </trkpt>
      <trkpt lat="45.11149" lon="5.5876">
        <ele>1116</ele>
        <time>2021-08-31T09:21:46Z</time>
      </trkpt>
      <trkpt lat="45.11153" lon="5.58762">
        <ele>1116.4</ele>
        <time>2021-08-31T09:21:48Z</time>
      </trkpt>
      <trkpt lat="45.11155" lon="5.58761">
        <ele>1116.6</ele>
        <time>2021-08-31T09:21:49Z</time>
      </trkpt>
      <trkpt lat="45.11161" lon="5.58761">
        <ele>1117.1</ele>
        <time>2021-08-31T09:21:50Z</time>
      </trkpt>
      <trkpt lat="45.11164" lon="5.5876">
        <ele>1117.4</ele>
        <time>2021-08-31T09:21:52Z</time>
      </trkpt>
      <trkpt lat="45.11169" lon="5.58756">
        <ele>1117.9</ele>
        <time>2021-08-31T09:21:54Z</time>
      </trkpt>
      <trkpt lat="45.1117" lon="5.58756">
        <ele>1118</ele>
        <time>2021-08-31T09:21:55Z</time>
      </trkpt>
      <trkpt lat="45.11171" lon="5.58755">
        <ele>1118.1</ele>
        <time>2021-08-31T09:21:57Z</time>
      </trkpt>
      <trkpt lat="45.11171" lon="5.58755">
        <ele>1118.1</ele>
        <time>2021-08-31T09:21:58Z</time>
      </trkpt>
      <trkpt lat="45.11171" lon="5.58755">
        <ele>1118.1</ele>
        <time>2021-08-31T09:22:00Z</time>
      </trkpt>
      <trkpt lat="45.11172" lon="5.58755">
        <ele>1118.2</ele>
        <time>2021-08-31T09:22:01Z</time>
      </trkpt>
      <trkpt lat="45.11174" lon="5.58756">
        <ele>1118.3</ele>
        <time>2021-08-31T09:22:03Z</time>
      </trkpt>
      <trkpt lat="45.11175" lon="5.58756">
        <ele>1118.4</ele>
        <time>2021-08-31T09:22:04Z</time>
      </trkpt>
      <trkpt lat="45.11176" lon="5.58757">
        <ele>1118.5</ele>
        <time>2021-08-31T09:22:05Z</time>
      </trkpt>
      <trkpt lat="45.11177" lon="5.58757">
        <ele>1118.6</ele>
        <time>2021-08-31T09:22:07Z</time>
      </trkpt>
      <trkpt lat="45.11196" lon="5.58761">
        <ele>1119.6</ele>
        <time>2021-08-31T09:22:53Z</time>
      </trkpt>
      <trkpt lat="45.11197" lon="5.58759">
        <ele>1119.7</ele>
        <time>2021-08-31T09:22:55Z</time>
      </trkpt>
      <trkpt lat="45.11197" lon="5.58759">
        <ele>1119.8</ele>
        <time>2021-08-31T09:22:56Z</time>
      </trkpt>
      <trkpt lat="45.11198" lon="5.58759">
        <ele>1119.9</ele>
        <time>2021-08-31T09:22:57Z</time>
      </trkpt>
      <trkpt lat="45.11197" lon="5.5876">
        <ele>1120</ele>
        <time>2021-08-31T09:22:58Z</time>
      </trkpt>
      <trkpt lat="45.11196" lon="5.58762">
        <ele>1120.2</ele>
        <time>2021-08-31T09:23:00Z</time>
      </trkpt>
      <trkpt lat="45.11195" lon="5.58763">
        <ele>1120.3</ele>
        <time>2021-08-31T09:23:02Z</time>
      </trkpt>
      <trkpt lat="45.11194" lon="5.58763">
        <ele>1120.5</ele>
        <time>2021-08-31T09:23:03Z</time>
      </trkpt>
      <trkpt lat="45.11194" lon="5.58764">
        <ele>1120.6</ele>
        <time>2021-08-31T09:23:04Z</time>
      </trkpt>
      <trkpt lat="45.11192" lon="5.58764">
        <ele>1120.7</ele>
        <time>2021-08-31T09:23:06Z</time>
      </trkpt>
      <trkpt lat="45.1119" lon="5.58763">
        <ele>1120.9</ele>
        <time>2021-08-31T09:23:07Z</time>
      </trkpt>
      <trkpt lat="45.11187" lon="5.58764">
        <ele>1121.3</ele>
        <time>2021-08-31T09:23:10Z</time>
      </trkpt>
      <trkpt lat="45.11184" lon="5.58764">
        <ele>1121.8</ele>
        <time>2021-08-31T09:23:11Z</time>
      </trkpt>
      <trkpt lat="45.1118" lon="5.58766">
        <ele>1122.3</ele>
        <time>2021-08-31T09:23:12Z</time>
      </trkpt>
      <trkpt lat="45.11176" lon="5.5877">
        <ele>1122.9</ele>
        <time>2021-08-31T09:23:13Z</time>
      </trkpt>
      <trkpt lat="45.11172" lon="5.58773">
        <ele>1123.3</ele>
        <time>2021-08-31T09:23:15Z</time>
      </trkpt>
      <trkpt lat="45.11171" lon="5.58775">
        <ele>1123.6</ele>
        <time>2021-08-31T09:23:16Z</time>
      </trkpt>
      <trkpt lat="45.11171" lon="5.58779">
        <ele>1123.8</ele>
        <time>2021-08-31T09:23:18Z</time>
      </trkpt>
      <trkpt lat="45.11172" lon="5.58783">
        <ele>1124.2</ele>
        <time>2021-08-31T09:23:19Z</time>
      </trkpt>
      <trkpt lat="45.11172" lon="5.58784">
        <ele>1124.4</ele>
        <time>2021-08-31T09:23:20Z</time>
      </trkpt>
      <trkpt lat="45.11173" lon="5.58787">
        <ele>1124.6</ele>
        <time>2021-08-31T09:23:21Z</time>
      </trkpt>
      <trkpt lat="45.11173" lon="5.58789">
        <ele>1124.7</ele>
        <time>2021-08-31T09:23:23Z</time>
      </trkpt>
      <trkpt lat="45.11173" lon="5.5879">
        <ele>1124.9</ele>
        <time>2021-08-31T09:23:24Z</time>
      </trkpt>
      <trkpt lat="45.11173" lon="5.58791">
        <ele>1124.9</ele>
        <time>2021-08-31T09:23:25Z</time>
      </trkpt>
      <trkpt lat="45.11173" lon="5.58791">
        <ele>1125</ele>
        <time>2021-08-31T09:23:27Z</time>
      </trkpt>
      <trkpt lat="45.11173" lon="5.58792">
        <ele>1125</ele>
        <time>2021-08-31T09:23:28Z</time>
      </trkpt>
      <trkpt lat="45.11174" lon="5.58793">
        <ele>1125.2</ele>
        <time>2021-08-31T09:23:29Z</time>
      </trkpt>
      <trkpt lat="45.11174" lon="5.58794">
        <ele>1125.3</ele>
        <time>2021-08-31T09:23:31Z</time>
      </trkpt>
      <trkpt lat="45.11175" lon="5.58796">
        <ele>1125.4</ele>
        <time>2021-08-31T09:23:32Z</time>
      </trkpt>
      <trkpt lat="45.11175" lon="5.58797">
        <ele>1125.5</ele>
        <time>2021-08-31T09:23:33Z</time>
      </trkpt>
      <trkpt lat="45.11175" lon="5.58798">
        <ele>1125.6</ele>
        <time>2021-08-31T09:23:34Z</time>
      </trkpt>
      <trkpt lat="45.11168" lon="5.58834">
        <ele>1128.8</ele>
        <time>2021-08-31T09:25:23Z</time>
      </trkpt>
      <trkpt lat="45.11167" lon="5.58838">
        <ele>1129.1</ele>
        <time>2021-08-31T09:25:24Z</time>
      </trkpt>
      <trkpt lat="45.11165" lon="5.58842">
        <ele>1129.5</ele>
        <time>2021-08-31T09:25:26Z</time>
      </trkpt>
      <trkpt lat="45.11165" lon="5.58843">
        <ele>1129.6</ele>
        <time>2021-08-31T09:25:28Z</time>
      </trkpt>
      <trkpt lat="45.11165" lon="5.58845">
        <ele>1129.8</ele>
        <time>2021-08-31T09:25:29Z</time>
      </trkpt>
      <trkpt lat="45.11165" lon="5.58846">
        <ele>1129.9</ele>
        <time>2021-08-31T09:25:31Z</time>
      </trkpt>
      <trkpt lat="45.11165" lon="5.58847">
        <ele>1130</ele>
        <time>2021-08-31T09:25:32Z</time>
      </trkpt>
      <trkpt lat="45.11165" lon="5.58849">
        <ele>1130.1</ele>
        <time>2021-08-31T09:25:34Z</time>
      </trkpt>
      <trkpt lat="45.11165" lon="5.5885">
        <ele>1130.2</ele>
        <time>2021-08-31T09:25:35Z</time>
      </trkpt>
      <trkpt lat="45.11162" lon="5.58863">
        <ele>1131.4</ele>
        <time>2021-08-31T09:25:37Z</time>
      </trkpt>
      <trkpt lat="45.1116" lon="5.58874">
        <ele>1132.4</ele>
        <time>2021-08-31T09:25:38Z</time>
      </trkpt>
      <trkpt lat="45.11157" lon="5.58886">
        <ele>1133.4</ele>
        <time>2021-08-31T09:26:17Z</time>
      </trkpt>
      <trkpt lat="45.11154" lon="5.58897">
        <ele>1134.4</ele>
        <time>2021-08-31T09:26:19Z</time>
      </trkpt>
      <trkpt lat="45.11152" lon="5.58908">
        <ele>1135.4</ele>
        <time>2021-08-31T09:26:20Z</time>
      </trkpt>
      <trkpt lat="45.11151" lon="5.58912">
        <ele>1135.8</ele>
        <time>2021-08-31T09:26:21Z</time>
      </trkpt>
      <trkpt lat="45.1115" lon="5.58914">
        <ele>1135.9</ele>
        <time>2021-08-31T09:26:22Z</time>
      </trkpt>
      <trkpt lat="45.11149" lon="5.58916">
        <ele>1136.1</ele>
        <time>2021-08-31T09:26:23Z</time>
      </trkpt>
      <trkpt lat="45.11149" lon="5.58918">
        <ele>1136.3</ele>
        <time>2021-08-31T09:26:24Z</time>
      </trkpt>
      <trkpt lat="45.11148" lon="5.58922">
        <ele>1136.7</ele>
        <time>2021-08-31T09:26:26Z</time>
      </trkpt>
      <trkpt lat="45.11148" lon="5.58926">
        <ele>1137</ele>
        <time>2021-08-31T09:26:27Z</time>
      </trkpt>
      <trkpt lat="45.11148" lon="5.58927">
        <ele>1137.1</ele>
        <time>2021-08-31T09:26:28Z</time>
      </trkpt>
      <trkpt lat="45.11148" lon="5.58929">
        <ele>1137.3</ele>
        <time>2021-08-31T09:26:30Z</time>
      </trkpt>
      <trkpt lat="45.11147" lon="5.58929">
        <ele>1137.4</ele>
        <time>2021-08-31T09:26:31Z</time>
      </trkpt>
      <trkpt lat="45.11147" lon="5.58929">
        <ele>1137.4</ele>
        <time>2021-08-31T09:26:32Z</time>
      </trkpt>
      <trkpt lat="45.11147" lon="5.58929">
        <ele>1137.4</ele>
        <time>2021-08-31T09:26:33Z</time>
      </trkpt>
      <trkpt lat="45.11147" lon="5.5893">
        <ele>1137.5</ele>
        <time>2021-08-31T09:26:35Z</time>
      </trkpt>
      <trkpt lat="45.11146" lon="5.5893">
        <ele>1137.6</ele>
        <time>2021-08-31T09:26:36Z</time>
      </trkpt>
      <trkpt lat="45.11146" lon="5.58931">
        <ele>1137.6</ele>
        <time>2021-08-31T09:26:37Z</time>
      </trkpt>
      <trkpt lat="45.11145" lon="5.58932">
        <ele>1137.8</ele>
        <time>2021-08-31T09:26:39Z</time>
      </trkpt>
      <trkpt lat="45.11143" lon="5.58933">
        <ele>1138</ele>
        <time>2021-08-31T09:26:41Z</time>
      </trkpt>
      <trkpt lat="45.11139" lon="5.58939">
        <ele>1138.7</ele>
        <time>2021-08-31T09:26:50Z</time>
      </trkpt>
      <trkpt lat="45.11138" lon="5.5894">
        <ele>1138.9</ele>
        <time>2021-08-31T09:26:52Z</time>
      </trkpt>
      <trkpt lat="45.11138" lon="5.58941">
        <ele>1138.9</ele>
        <time>2021-08-31T09:26:53Z</time>
      </trkpt>
      <trkpt lat="45.11138" lon="5.58941">
        <ele>1138.9</ele>
        <time>2021-08-31T09:26:54Z</time>
      </trkpt>
      <trkpt lat="45.11138" lon="5.58941">
        <ele>1138.9</ele>
        <time>2021-08-31T09:26:55Z</time>
      </trkpt>
      <trkpt lat="45.11138" lon="5.58942">
        <ele>1139</ele>
        <time>2021-08-31T09:26:57Z</time>
      </trkpt>
      <trkpt lat="45.11138" lon="5.58942">
        <ele>1139</ele>
        <time>2021-08-31T09:26:59Z</time>
      </trkpt>
      <trkpt lat="45.11138" lon="5.58942">
        <ele>1139</ele>
        <time>2021-08-31T09:27:01Z</time>
      </trkpt>
      <trkpt lat="45.11138" lon="5.58942">
        <ele>1139</ele>
        <time>2021-08-31T09:27:03Z</time>
      </trkpt>
      <trkpt lat="45.11138" lon="5.58943">
        <ele>1139.1</ele>
        <time>2021-08-31T09:27:05Z</time>
      </trkpt>
      <trkpt lat="45.11137" lon="5.58944">
        <ele>1139.2</ele>
        <time>2021-08-31T09:27:07Z</time>
      </trkpt>
      <trkpt lat="45.11137" lon="5.58945">
        <ele>1139.3</ele>
        <time>2021-08-31T09:27:09Z</time>
      </trkpt>
      <trkpt lat="45.11134" lon="5.58948">
        <ele>1139.7</ele>
        <time>2021-08-31T09:27:11Z</time>
      </trkpt>
      <trkpt lat="45.11133" lon="5.58949">
        <ele>1139.9</ele>
        <time>2021-08-31T09:27:12Z</time>
      </trkpt>
      <trkpt lat="45.11132" lon="5.5895">
        <ele>1140</ele>
        <time>2021-08-31T09:27:14Z</time>
      </trkpt>
      <trkpt lat="45.11133" lon="5.5895">
        <ele>1140</ele>
        <time>2021-08-31T09:27:16Z</time>
      </trkpt>
      <trkpt lat="45.11133" lon="5.5895">
        <ele>1140.1</ele>
        <time>2021-08-31T09:27:18Z</time>
      </trkpt>
      <trkpt lat="45.11133" lon="5.5895">
        <ele>1140.1</ele>
        <time>2021-08-31T09:27:19Z</time>
      </trkpt>
      <trkpt lat="45.11134" lon="5.5895">
        <ele>1140.2</ele>
        <time>2021-08-31T09:27:21Z</time>
      </trkpt>
      <trkpt lat="45.11134" lon="5.58949">
        <ele>1140.2</ele>
        <time>2021-08-31T09:27:23Z</time>
      </trkpt>
      <trkpt lat="45.11134" lon="5.58949">
        <ele>1140.2</ele>
        <time>2021-08-31T09:27:24Z</time>
      </trkpt>
      <trkpt lat="45.11134" lon="5.58949">
        <ele>1140.2</ele>
        <time>2021-08-31T09:27:26Z</time>
      </trkpt>
      <trkpt lat="45.11134" lon="5.58949">
        <ele>1140.2</ele>
        <time>2021-08-31T09:27:28Z</time>
      </trkpt>
      <trkpt lat="45.11134" lon="5.58949">
        <ele>1140.2</ele>
        <time>2021-08-31T09:27:30Z</time>
      </trkpt>
      <trkpt lat="45.11134" lon="5.58949">
        <ele>1140.2</ele>
        <time>2021-08-31T09:27:32Z</time>
      </trkpt>
      <trkpt lat="45.11135" lon="5.58949">
        <ele>1140.4</ele>
        <time>2021-08-31T09:27:34Z</time>
      </trkpt>
      <trkpt lat="45.11136" lon="5.58948">
        <ele>1140.5</ele>
        <time>2021-08-31T09:27:36Z</time>
      </trkpt>
      <trkpt lat="45.11136" lon="5.58947">
        <ele>1140.6</ele>
        <time>2021-08-31T09:27:37Z</time>
      </trkpt>
      <trkpt lat="45.11137" lon="5.58947">
        <ele>1140.6</ele>
        <time>2021-08-31T09:27:39Z</time>
      </trkpt>
      <trkpt lat="45.11136" lon="5.58947">
        <ele>1140.7</ele>
        <time>2021-08-31T09:27:40Z</time>
      </trkpt>
      <trkpt lat="45.11136" lon="5.58947">
        <ele>1140.7</ele>
        <time>2021-08-31T09:27:42Z</time>
      </trkpt>
      <trkpt lat="45.11136" lon="5.58947">
        <ele>1140.7</ele>
        <time>2021-08-31T09:27:43Z</time>
      </trkpt>
      <trkpt lat="45.11136" lon="5.58946">
        <ele>1140.8</ele>
        <time>2021-08-31T09:27:45Z</time>
      </trkpt>
      <trkpt lat="45.11136" lon="5.58945">
        <ele>1140.9</ele>
        <time>2021-08-31T09:27:46Z</time>
      </trkpt>
      <trkpt lat="45.11136" lon="5.58945">
        <ele>1140.9</ele>
        <time>2021-08-31T09:27:47Z</time>
      </trkpt>
      <trkpt lat="45.11136" lon="5.58945">
        <ele>1141</ele>
        <time>2021-08-31T09:27:48Z</time>
      </trkpt>
      <trkpt lat="45.11136" lon="5.58944">
        <ele>1141</ele>
        <time>2021-08-31T09:27:50Z</time>
      </trkpt>
      <trkpt lat="45.11137" lon="5.58943">
        <ele>1141.2</ele>
        <time>2021-08-31T09:27:52Z</time>
      </trkpt>
      <trkpt lat="45.11137" lon="5.58942">
        <ele>1141.3</ele>
        <time>2021-08-31T09:27:53Z</time>
      </trkpt>
      <trkpt lat="45.11137" lon="5.58941">
        <ele>1141.4</ele>
        <time>2021-08-31T09:27:55Z</time>
      </trkpt>
      <trkpt lat="45.11138" lon="5.5894">
        <ele>1141.4</ele>
        <time>2021-08-31T09:27:56Z</time>
      </trkpt>
      <trkpt lat="45.11138" lon="5.58939">
        <ele>1141.6</ele>
        <time>2021-08-31T09:27:58Z</time>
      </trkpt>
      <trkpt lat="45.11139" lon="5.58937">
        <ele>1141.7</ele>
        <time>2021-08-31T09:28:01Z</time>
      </trkpt>
      <trkpt lat="45.1114" lon="5.58936">
        <ele>1141.9</ele>
        <time>2021-08-31T09:28:02Z</time>
      </trkpt>
      <trkpt lat="45.1114" lon="5.58936">
        <ele>1141.9</ele>
        <time>2021-08-31T09:28:04Z</time>
      </trkpt>
      <trkpt lat="45.11141" lon="5.58935">
        <ele>1142</ele>
        <time>2021-08-31T09:28:07Z</time>
      </trkpt>
      <trkpt lat="45.11141" lon="5.58935">
        <ele>1142.1</ele>
        <time>2021-08-31T09:28:08Z</time>
      </trkpt>
      <trkpt lat="45.11141" lon="5.58935">
        <ele>1142.1</ele>
        <time>2021-08-31T09:28:09Z</time>
      </trkpt>
      <trkpt lat="45.11141" lon="5.58935">
        <ele>1142.1</ele>
        <time>2021-08-31T09:28:10Z</time>
      </trkpt>
      <trkpt lat="45.11139" lon="5.58936">
        <ele>1142.3</ele>
        <time>2021-08-31T09:28:12Z</time>
      </trkpt>
      <trkpt lat="45.11139" lon="5.58936">
        <ele>1142.3</ele>
        <time>2021-08-31T09:28:13Z</time>
      </trkpt>
      <trkpt lat="45.11139" lon="5.58937">
        <ele>1142.4</ele>
        <time>2021-08-31T09:28:14Z</time>
      </trkpt>
      <trkpt lat="45.11139" lon="5.58937">
        <ele>1142.4</ele>
        <time>2021-08-31T09:28:16Z</time>
      </trkpt>
      <trkpt lat="45.11138" lon="5.58937">
        <ele>1142.5</ele>
        <time>2021-08-31T09:28:18Z</time>
      </trkpt>
      <trkpt lat="45.11137" lon="5.58938">
        <ele>1142.6</ele>
        <time>2021-08-31T09:28:19Z</time>
      </trkpt>
      <trkpt lat="45.11137" lon="5.58938">
        <ele>1142.6</ele>
        <time>2021-08-31T09:28:20Z</time>
      </trkpt>
      <trkpt lat="45.11137" lon="5.58939">
        <ele>1142.7</ele>
        <time>2021-08-31T09:28:22Z</time>
      </trkpt>
      <trkpt lat="45.11136" lon="5.58939">
        <ele>1142.7</ele>
        <time>2021-08-31T09:28:23Z</time>
      </trkpt>
      <trkpt lat="45.11135" lon="5.5894">
        <ele>1142.9</ele>
        <time>2021-08-31T09:28:25Z</time>
      </trkpt>
      <trkpt lat="45.11135" lon="5.58941">
        <ele>1143</ele>
        <time>2021-08-31T09:28:27Z</time>
      </trkpt>
      <trkpt lat="45.11135" lon="5.58942">
        <ele>1143</ele>
        <time>2021-08-31T09:28:28Z</time>
      </trkpt>
      <trkpt lat="45.11135" lon="5.58942">
        <ele>1143.1</ele>
        <time>2021-08-31T09:28:30Z</time>
      </trkpt>
      <trkpt lat="45.11136" lon="5.58944">
        <ele>1143.2</ele>
        <time>2021-08-31T09:28:32Z</time>
      </trkpt>
      <trkpt lat="45.11136" lon="5.58944">
        <ele>1143.3</ele>
        <time>2021-08-31T09:28:34Z</time>
      </trkpt>
      <trkpt lat="45.11136" lon="5.58944">
        <ele>1143.3</ele>
        <time>2021-08-31T09:28:35Z</time>
      </trkpt>
      <trkpt lat="45.11136" lon="5.58945">
        <ele>1143.4</ele>
        <time>2021-08-31T09:28:37Z</time>
      </trkpt>
      <trkpt lat="45.11135" lon="5.58946">
        <ele>1143.5</ele>
        <time>2021-08-31T09:28:39Z</time>
      </trkpt>
      <trkpt lat="45.11135" lon="5.58947">
        <ele>1143.5</ele>
        <time>2021-08-31T09:28:41Z</time>
      </trkpt>
      <trkpt lat="45.11135" lon="5.58946">
        <ele>1143.6</ele>
        <time>2021-08-31T09:28:43Z</time>
      </trkpt>
      <trkpt lat="45.11134" lon="5.58945">
        <ele>1143.7</ele>
        <time>2021-08-31T09:28:45Z</time>
      </trkpt>
      <trkpt lat="45.11134" lon="5.58945">
        <ele>1143.7</ele>
        <time>2021-08-31T09:28:46Z</time>
      </trkpt>
      <trkpt lat="45.11133" lon="5.58946">
        <ele>1143.8</ele>
        <time>2021-08-31T09:28:48Z</time>
      </trkpt>
      <trkpt lat="45.11132" lon="5.58946">
        <ele>1143.9</ele>
        <time>2021-08-31T09:28:50Z</time>
      </trkpt>
      <trkpt lat="45.11132" lon="5.58947">
        <ele>1144</ele>
        <time>2021-08-31T09:28:52Z</time>
      </trkpt>
      <trkpt lat="45.11131" lon="5.58947">
        <ele>1144.1</ele>
        <time>2021-08-31T09:28:53Z</time>
      </trkpt>
      <trkpt lat="45.11131" lon="5.58947">
        <ele>1144.1</ele>
        <time>2021-08-31T09:28:54Z</time>
      </trkpt>
      <trkpt lat="45.1113" lon="5.58948">
        <ele>1144.2</ele>
        <time>2021-08-31T09:28:56Z</time>
      </trkpt>
      <trkpt lat="45.1113" lon="5.58948">
        <ele>1144.2</ele>
        <time>2021-08-31T09:28:57Z</time>
      </trkpt>
      <trkpt lat="45.11129" lon="5.58949">
        <ele>1144.4</ele>
        <time>2021-08-31T09:28:58Z</time>
      </trkpt>
      <trkpt lat="45.11128" lon="5.58949">
        <ele>1144.5</ele>
        <time>2021-08-31T09:29:00Z</time>
      </trkpt>
      <trkpt lat="45.11127" lon="5.5895">
        <ele>1144.7</ele>
        <time>2021-08-31T09:29:01Z</time>
      </trkpt>
      <trkpt lat="45.11126" lon="5.5895">
        <ele>1144.8</ele>
        <time>2021-08-31T09:29:02Z</time>
      </trkpt>
      <trkpt lat="45.11125" lon="5.58951">
        <ele>1144.9</ele>
        <time>2021-08-31T09:29:04Z</time>
      </trkpt>
      <trkpt lat="45.11124" lon="5.58951">
        <ele>1145</ele>
        <time>2021-08-31T09:29:05Z</time>
      </trkpt>
      <trkpt lat="45.11123" lon="5.58952">
        <ele>1145.1</ele>
        <time>2021-08-31T09:29:07Z</time>
      </trkpt>
      <trkpt lat="45.11123" lon="5.58952">
        <ele>1145.2</ele>
        <time>2021-08-31T09:29:08Z</time>
      </trkpt>
      <trkpt lat="45.11122" lon="5.58952">
        <ele>1145.2</ele>
        <time>2021-08-31T09:29:09Z</time>
      </trkpt>
      <trkpt lat="45.11122" lon="5.58952">
        <ele>1145.3</ele>
        <time>2021-08-31T09:29:10Z</time>
      </trkpt>
      <trkpt lat="45.11122" lon="5.58951">
        <ele>1145.3</ele>
        <time>2021-08-31T09:29:11Z</time>
      </trkpt>
      <trkpt lat="45.11122" lon="5.58951">
        <ele>1145.3</ele>
        <time>2021-08-31T09:29:13Z</time>
      </trkpt>
      <trkpt lat="45.11123" lon="5.58951">
        <ele>1145.4</ele>
        <time>2021-08-31T09:29:14Z</time>
      </trkpt>
      <trkpt lat="45.11123" lon="5.58952">
        <ele>1145.5</ele>
        <time>2021-08-31T09:29:15Z</time>
      </trkpt>
      <trkpt lat="45.11124" lon="5.58952">
        <ele>1145.7</ele>
        <time>2021-08-31T09:29:16Z</time>
      </trkpt>
      <trkpt lat="45.11126" lon="5.58952">
        <ele>1145.8</ele>
        <time>2021-08-31T09:29:18Z</time>
      </trkpt>
      <trkpt lat="45.11127" lon="5.58952">
        <ele>1146</ele>
        <time>2021-08-31T09:29:19Z</time>
      </trkpt>
      <trkpt lat="45.11128" lon="5.58952">
        <ele>1146.1</ele>
        <time>2021-08-31T09:29:20Z</time>
      </trkpt>
      <trkpt lat="45.11129" lon="5.58952">
        <ele>1146.2</ele>
        <time>2021-08-31T09:29:21Z</time>
      </trkpt>
      <trkpt lat="45.11132" lon="5.58951">
        <ele>1146.6</ele>
        <time>2021-08-31T09:29:23Z</time>
      </trkpt>
      <trkpt lat="45.11133" lon="5.58951">
        <ele>1146.7</ele>
        <time>2021-08-31T09:29:24Z</time>
      </trkpt>
      <trkpt lat="45.11134" lon="5.58951">
        <ele>1146.9</ele>
        <time>2021-08-31T09:29:25Z</time>
      </trkpt>
      <trkpt lat="45.11136" lon="5.58951">
        <ele>1147</ele>
        <time>2021-08-31T09:29:26Z</time>
      </trkpt>
      <trkpt lat="45.11137" lon="5.58952">
        <ele>1147.2</ele>
        <time>2021-08-31T09:29:27Z</time>
      </trkpt>
      <trkpt lat="45.11138" lon="5.58952">
        <ele>1147.4</ele>
        <time>2021-08-31T09:29:28Z</time>
      </trkpt>
      <trkpt lat="45.1114" lon="5.58953">
        <ele>1147.5</ele>
        <time>2021-08-31T09:29:30Z</time>
      </trkpt>
      <trkpt lat="45.11141" lon="5.58954">
        <ele>1147.7</ele>
        <time>2021-08-31T09:29:31Z</time>
      </trkpt>
      <trkpt lat="45.11143" lon="5.58955">
        <ele>1147.9</ele>
        <time>2021-08-31T09:29:33Z</time>
      </trkpt>
      <trkpt lat="45.11144" lon="5.58956">
        <ele>1148.1</ele>
        <time>2021-08-31T09:29:34Z</time>
      </trkpt>
      <trkpt lat="45.11145" lon="5.58958">
        <ele>1148.3</ele>
        <time>2021-08-31T09:29:36Z</time>
      </trkpt>
      <trkpt lat="45.11145" lon="5.58959">
        <ele>1148.4</ele>
        <time>2021-08-31T09:29:37Z</time>
      </trkpt>
      <trkpt lat="45.11146" lon="5.5896">
        <ele>1148.5</ele>
        <time>2021-08-31T09:29:38Z</time>
      </trkpt>
      <trkpt lat="45.11146" lon="5.58961">
        <ele>1148.6</ele>
        <time>2021-08-31T09:29:40Z</time>
      </trkpt>
      <trkpt lat="45.11146" lon="5.58962">
        <ele>1148.7</ele>
        <time>2021-08-31T09:29:41Z</time>
      </trkpt>
      <trkpt lat="45.11146" lon="5.58964">
        <ele>1148.9</ele>
        <time>2021-08-31T09:29:42Z</time>
      </trkpt>
      <trkpt lat="45.11146" lon="5.58966">
        <ele>1149</ele>
        <time>2021-08-31T09:29:44Z</time>
      </trkpt>
      <trkpt lat="45.11146" lon="5.58968">
        <ele>1149.1</ele>
        <time>2021-08-31T09:29:45Z</time>
      </trkpt>
      <trkpt lat="45.11146" lon="5.58969">
        <ele>1149.3</ele>
        <time>2021-08-31T09:29:46Z</time>
      </trkpt>
      <trkpt lat="45.11146" lon="5.5897">
        <ele>1149.4</ele>
        <time>2021-08-31T09:29:47Z</time>
      </trkpt>
      <trkpt lat="45.11145" lon="5.58972">
        <ele>1149.6</ele>
        <time>2021-08-31T09:29:49Z</time>
      </trkpt>
      <trkpt lat="45.11145" lon="5.58973">
        <ele>1149.7</ele>
        <time>2021-08-31T09:29:50Z</time>
      </trkpt>
      <trkpt lat="45.11145" lon="5.58975">
        <ele>1149.8</ele>
        <time>2021-08-31T09:29:52Z</time>
      </trkpt>
      <trkpt lat="45.11145" lon="5.58976">
        <ele>1149.9</ele>
        <time>2021-08-31T09:29:53Z</time>
      </trkpt>
      <trkpt lat="45.11145" lon="5.58977">
        <ele>1150</ele>
        <time>2021-08-31T09:29:54Z</time>
      </trkpt>
      <trkpt lat="45.11145" lon="5.58978">
        <ele>1150</ele>
        <time>2021-08-31T09:29:56Z</time>
      </trkpt>
      <trkpt lat="45.11145" lon="5.58979">
        <ele>1150.1</ele>
        <time>2021-08-31T09:29:57Z</time>
      </trkpt>
      <trkpt lat="45.11145" lon="5.58979">
        <ele>1150.2</ele>
        <time>2021-08-31T09:29:58Z</time>
      </trkpt>
      <trkpt lat="45.11144" lon="5.5898">
        <ele>1150.2</ele>
        <time>2021-08-31T09:30:00Z</time>
      </trkpt>
      <trkpt lat="45.11144" lon="5.58981">
        <ele>1150.3</ele>
        <time>2021-08-31T09:30:01Z</time>
      </trkpt>
      <trkpt lat="45.11144" lon="5.58983">
        <ele>1150.5</ele>
        <time>2021-08-31T09:30:03Z</time>
      </trkpt>
      <trkpt lat="45.11144" lon="5.58984">
        <ele>1150.6</ele>
        <time>2021-08-31T09:30:04Z</time>
      </trkpt>
      <trkpt lat="45.11143" lon="5.58986">
        <ele>1150.8</ele>
        <time>2021-08-31T09:30:06Z</time>
      </trkpt>
      <trkpt lat="45.11143" lon="5.58987">
        <ele>1150.9</ele>
        <time>2021-08-31T09:30:07Z</time>
      </trkpt>
      <trkpt lat="45.11142" lon="5.58988">
        <ele>1151</ele>
        <time>2021-08-31T09:30:08Z</time>
      </trkpt>
      <trkpt lat="45.11142" lon="5.5899">
        <ele>1151.1</ele>
        <time>2021-08-31T09:30:10Z</time>
      </trkpt>
      <trkpt lat="45.11141" lon="5.58991">
        <ele>1151.3</ele>
        <time>2021-08-31T09:30:11Z</time>
      </trkpt>
      <trkpt lat="45.11141" lon="5.58993">
        <ele>1151.5</ele>
        <time>2021-08-31T09:30:12Z</time>
      </trkpt>
      <trkpt lat="45.1114" lon="5.58995">
        <ele>1151.6</ele>
        <time>2021-08-31T09:30:13Z</time>
      </trkpt>
      <trkpt lat="45.11138" lon="5.58999">
        <ele>1152</ele>
        <time>2021-08-31T09:30:16Z</time>
      </trkpt>
      <trkpt lat="45.11138" lon="5.59">
        <ele>1152.1</ele>
        <time>2021-08-31T09:30:17Z</time>
      </trkpt>
      <trkpt lat="45.11137" lon="5.59002">
        <ele>1152.3</ele>
        <time>2021-08-31T09:30:18Z</time>
      </trkpt>
      <trkpt lat="45.11136" lon="5.59003">
        <ele>1152.4</ele>
        <time>2021-08-31T09:30:20Z</time>
      </trkpt>
      <trkpt lat="45.11135" lon="5.59005">
        <ele>1152.7</ele>
        <time>2021-08-31T09:30:21Z</time>
      </trkpt>
      <trkpt lat="45.11134" lon="5.59006">
        <ele>1152.8</ele>
        <time>2021-08-31T09:30:23Z</time>
      </trkpt>
      <trkpt lat="45.11133" lon="5.59007">
        <ele>1153</ele>
        <time>2021-08-31T09:30:24Z</time>
      </trkpt>
      <trkpt lat="45.11131" lon="5.59008">
        <ele>1153.2</ele>
        <time>2021-08-31T09:30:26Z</time>
      </trkpt>
      <trkpt lat="45.1113" lon="5.59008">
        <ele>1153.3</ele>
        <time>2021-08-31T09:30:27Z</time>
      </trkpt>
      <trkpt lat="45.1113" lon="5.59009">
        <ele>1153.4</ele>
        <time>2021-08-31T09:30:28Z</time>
      </trkpt>
      <trkpt lat="45.11129" lon="5.5901">
        <ele>1153.5</ele>
        <time>2021-08-31T09:30:30Z</time>
      </trkpt>
      <trkpt lat="45.11128" lon="5.59011">
        <ele>1153.6</ele>
        <time>2021-08-31T09:30:32Z</time>
      </trkpt>
      <trkpt lat="45.11128" lon="5.59011">
        <ele>1153.7</ele>
        <time>2021-08-31T09:30:33Z</time>
      </trkpt>
      <trkpt lat="45.11127" lon="5.59013">
        <ele>1153.8</ele>
        <time>2021-08-31T09:30:34Z</time>
      </trkpt>
      <trkpt lat="45.11127" lon="5.59013">
        <ele>1153.9</ele>
        <time>2021-08-31T09:30:35Z</time>
      </trkpt>
      <trkpt lat="45.11127" lon="5.59015">
        <ele>1154</ele>
        <time>2021-08-31T09:30:36Z</time>
      </trkpt>
      <trkpt lat="45.11125" lon="5.59017">
        <ele>1154.3</ele>
        <time>2021-08-31T09:30:38Z</time>
      </trkpt>
      <trkpt lat="45.11125" lon="5.59019">
        <ele>1154.4</ele>
        <time>2021-08-31T09:30:39Z</time>
      </trkpt>
      <trkpt lat="45.11124" lon="5.5902">
        <ele>1154.5</ele>
        <time>2021-08-31T09:30:40Z</time>
      </trkpt>
      <trkpt lat="45.11124" lon="5.59021">
        <ele>1154.6</ele>
        <time>2021-08-31T09:30:41Z</time>
      </trkpt>
      <trkpt lat="45.11123" lon="5.59022">
        <ele>1154.7</ele>
        <time>2021-08-31T09:30:43Z</time>
      </trkpt>
      <trkpt lat="45.11123" lon="5.59023">
        <ele>1154.8</ele>
        <time>2021-08-31T09:30:45Z</time>
      </trkpt>
      <trkpt lat="45.11123" lon="5.59024">
        <ele>1154.9</ele>
        <time>2021-08-31T09:30:47Z</time>
      </trkpt>
      <trkpt lat="45.11124" lon="5.59025">
        <ele>1155.1</ele>
        <time>2021-08-31T09:30:49Z</time>
      </trkpt>
      <trkpt lat="45.11123" lon="5.59027">
        <ele>1155.2</ele>
        <time>2021-08-31T09:30:51Z</time>
      </trkpt>
      <trkpt lat="45.11123" lon="5.59027">
        <ele>1155.3</ele>
        <time>2021-08-31T09:30:52Z</time>
      </trkpt>
      <trkpt lat="45.11122" lon="5.59028">
        <ele>1155.3</ele>
        <time>2021-08-31T09:30:53Z</time>
      </trkpt>
      <trkpt lat="45.11121" lon="5.59029">
        <ele>1155.5</ele>
        <time>2021-08-31T09:30:55Z</time>
      </trkpt>
      <trkpt lat="45.1112" lon="5.59029">
        <ele>1155.6</ele>
        <time>2021-08-31T09:30:56Z</time>
      </trkpt>
      <trkpt lat="45.1112" lon="5.5903">
        <ele>1155.7</ele>
        <time>2021-08-31T09:30:57Z</time>
      </trkpt>
      <trkpt lat="45.11119" lon="5.59031">
        <ele>1155.8</ele>
        <time>2021-08-31T09:30:58Z</time>
      </trkpt>
      <trkpt lat="45.11118" lon="5.59031">
        <ele>1155.9</ele>
        <time>2021-08-31T09:31:00Z</time>
      </trkpt>
      <trkpt lat="45.11118" lon="5.59032">
        <ele>1156</ele>
        <time>2021-08-31T09:31:01Z</time>
      </trkpt>
      <trkpt lat="45.11117" lon="5.59033">
        <ele>1156.1</ele>
        <time>2021-08-31T09:31:02Z</time>
      </trkpt>
      <trkpt lat="45.11116" lon="5.59033">
        <ele>1156.2</ele>
        <time>2021-08-31T09:31:04Z</time>
      </trkpt>
      <trkpt lat="45.11116" lon="5.59034">
        <ele>1156.3</ele>
        <time>2021-08-31T09:31:05Z</time>
      </trkpt>
      <trkpt lat="45.11115" lon="5.59035">
        <ele>1156.4</ele>
        <time>2021-08-31T09:31:06Z</time>
      </trkpt>
      <trkpt lat="45.11115" lon="5.59035">
        <ele>1156.5</ele>
        <time>2021-08-31T09:31:33Z</time>
      </trkpt>
      <trkpt lat="45.11114" lon="5.59036">
        <ele>1156.6</ele>
        <time>2021-08-31T09:31:34Z</time>
      </trkpt>
      <trkpt lat="45.11113" lon="5.59036">
        <ele>1156.6</ele>
        <time>2021-08-31T09:31:35Z</time>
      </trkpt>
      <trkpt lat="45.11111" lon="5.59036">
        <ele>1156.9</ele>
        <time>2021-08-31T09:31:37Z</time>
      </trkpt>
      <trkpt lat="45.11109" lon="5.59036">
        <ele>1157.2</ele>
        <time>2021-08-31T09:31:39Z</time>
      </trkpt>
      <trkpt lat="45.11108" lon="5.59036">
        <ele>1157.3</ele>
        <time>2021-08-31T09:31:41Z</time>
      </trkpt>
      <trkpt lat="45.11107" lon="5.59037">
        <ele>1157.4</ele>
        <time>2021-08-31T09:31:42Z</time>
      </trkpt>
      <trkpt lat="45.11107" lon="5.59037">
        <ele>1157.5</ele>
        <time>2021-08-31T09:31:44Z</time>
      </trkpt>
      <trkpt lat="45.11107" lon="5.59036">
        <ele>1157.5</ele>
        <time>2021-08-31T09:31:45Z</time>
      </trkpt>
      <trkpt lat="45.11107" lon="5.59035">
        <ele>1157.6</ele>
        <time>2021-08-31T09:31:47Z</time>
      </trkpt>
      <trkpt lat="45.11108" lon="5.59034">
        <ele>1157.8</ele>
        <time>2021-08-31T09:31:49Z</time>
      </trkpt>
      <trkpt lat="45.1111" lon="5.59034">
        <ele>1158</ele>
        <time>2021-08-31T09:31:51Z</time>
      </trkpt>
      <trkpt lat="45.11111" lon="5.59034">
        <ele>1158.1</ele>
        <time>2021-08-31T09:31:53Z</time>
      </trkpt>
      <trkpt lat="45.11112" lon="5.59034">
        <ele>1158.2</ele>
        <time>2021-08-31T09:31:54Z</time>
      </trkpt>
      <trkpt lat="45.11112" lon="5.59034">
        <ele>1158.3</ele>
        <time>2021-08-31T09:31:55Z</time>
      </trkpt>
      <trkpt lat="45.11117" lon="5.59037">
        <ele>1158.9</ele>
        <time>2021-08-31T09:32:04Z</time>
      </trkpt>
      <trkpt lat="45.11117" lon="5.59037">
        <ele>1158.9</ele>
        <time>2021-08-31T09:32:06Z</time>
      </trkpt>
      <trkpt lat="45.11116" lon="5.59037">
        <ele>1158.9</ele>
        <time>2021-08-31T09:32:08Z</time>
      </trkpt>
      <trkpt lat="45.11116" lon="5.59037">
        <ele>1159</ele>
        <time>2021-08-31T09:32:09Z</time>
      </trkpt>
      <trkpt lat="45.11116" lon="5.59037">
        <ele>1159</ele>
        <time>2021-08-31T09:32:10Z</time>
      </trkpt>
      <trkpt lat="45.11117" lon="5.59037">
        <ele>1159</ele>
        <time>2021-08-31T09:32:12Z</time>
      </trkpt>
      <trkpt lat="45.11117" lon="5.59038">
        <ele>1159</ele>
        <time>2021-08-31T09:32:13Z</time>
      </trkpt>
      <trkpt lat="45.11117" lon="5.59038">
        <ele>1159.1</ele>
        <time>2021-08-31T09:32:14Z</time>
      </trkpt>
      <trkpt lat="45.11117" lon="5.59038">
        <ele>1159.1</ele>
        <time>2021-08-31T09:32:16Z</time>
      </trkpt>
      <trkpt lat="45.11117" lon="5.59038">
        <ele>1159.1</ele>
        <time>2021-08-31T09:32:17Z</time>
      </trkpt>
      <trkpt lat="45.11117" lon="5.59038">
        <ele>1159.1</ele>
        <time>2021-08-31T09:32:18Z</time>
      </trkpt>
      <trkpt lat="45.11117" lon="5.59038">
        <ele>1159.1</ele>
        <time>2021-08-31T09:32:19Z</time>
      </trkpt>
      <trkpt lat="45.11117" lon="5.59038">
        <ele>1159.1</ele>
        <time>2021-08-31T09:32:21Z</time>
      </trkpt>
      <trkpt lat="45.11117" lon="5.59038">
        <ele>1159.2</ele>
        <time>2021-08-31T09:32:22Z</time>
      </trkpt>
      <trkpt lat="45.11117" lon="5.59038">
        <ele>1159.2</ele>
        <time>2021-08-31T09:32:23Z</time>
      </trkpt>
      <trkpt lat="45.11117" lon="5.59038">
        <ele>1159.2</ele>
        <time>2021-08-31T09:32:25Z</time>
      </trkpt>
      <trkpt lat="45.11116" lon="5.59037">
        <ele>1159.3</ele>
        <time>2021-08-31T09:32:26Z</time>
      </trkpt>
      <trkpt lat="45.11115" lon="5.59037">
        <ele>1159.4</ele>
        <time>2021-08-31T09:32:27Z</time>
      </trkpt>
      <trkpt lat="45.11115" lon="5.59037">
        <ele>1159.5</ele>
        <time>2021-08-31T09:32:29Z</time>
      </trkpt>
      <trkpt lat="45.11114" lon="5.59037">
        <ele>1159.5</ele>
        <time>2021-08-31T09:32:30Z</time>
      </trkpt>
      <trkpt lat="45.11113" lon="5.59037">
        <ele>1159.6</ele>
        <time>2021-08-31T09:32:31Z</time>
      </trkpt>
      <trkpt lat="45.11112" lon="5.59038">
        <ele>1159.8</ele>
        <time>2021-08-31T09:32:32Z</time>
      </trkpt>
      <trkpt lat="45.11111" lon="5.59038">
        <ele>1159.9</ele>
        <time>2021-08-31T09:32:33Z</time>
      </trkpt>
      <trkpt lat="45.1111" lon="5.59039">
        <ele>1160.1</ele>
        <time>2021-08-31T09:32:35Z</time>
      </trkpt>
      <trkpt lat="45.11108" lon="5.5904">
        <ele>1160.4</ele>
        <time>2021-08-31T09:32:36Z</time>
      </trkpt>
      <trkpt lat="45.11107" lon="5.59041">
        <ele>1160.5</ele>
        <time>2021-08-31T09:32:37Z</time>
      </trkpt>
      <trkpt lat="45.11106" lon="5.59042">
        <ele>1160.6</ele>
        <time>2021-08-31T09:32:38Z</time>
      </trkpt>
      <trkpt lat="45.11105" lon="5.59043">
        <ele>1160.8</ele>
        <time>2021-08-31T09:32:40Z</time>
      </trkpt>
      <trkpt lat="45.11104" lon="5.59044">
        <ele>1160.9</ele>
        <time>2021-08-31T09:32:41Z</time>
      </trkpt>
      <trkpt lat="45.11103" lon="5.59045">
        <ele>1161.1</ele>
        <time>2021-08-31T09:32:42Z</time>
      </trkpt>
      <trkpt lat="45.11102" lon="5.59047">
        <ele>1161.2</ele>
        <time>2021-08-31T09:32:43Z</time>
      </trkpt>
      <trkpt lat="45.11101" lon="5.59049">
        <ele>1161.5</ele>
        <time>2021-08-31T09:32:45Z</time>
      </trkpt>
      <trkpt lat="45.111" lon="5.59051">
        <ele>1161.7</ele>
        <time>2021-08-31T09:32:46Z</time>
      </trkpt>
      <trkpt lat="45.11098" lon="5.59053">
        <ele>1162</ele>
        <time>2021-08-31T09:32:47Z</time>
      </trkpt>
      <trkpt lat="45.11097" lon="5.59054">
        <ele>1162.1</ele>
        <time>2021-08-31T09:32:48Z</time>
      </trkpt>
      <trkpt lat="45.11097" lon="5.59055">
        <ele>1162.2</ele>
        <time>2021-08-31T09:32:50Z</time>
      </trkpt>
      <trkpt lat="45.11097" lon="5.59056">
        <ele>1162.3</ele>
        <time>2021-08-31T09:32:51Z</time>
      </trkpt>
      <trkpt lat="45.11096" lon="5.59057">
        <ele>1162.4</ele>
        <time>2021-08-31T09:32:53Z</time>
      </trkpt>
      <trkpt lat="45.11096" lon="5.59058">
        <ele>1162.5</ele>
        <time>2021-08-31T09:32:54Z</time>
      </trkpt>
      <trkpt lat="45.11096" lon="5.59059">
        <ele>1162.6</ele>
        <time>2021-08-31T09:32:55Z</time>
      </trkpt>
      <trkpt lat="45.11095" lon="5.5906">
        <ele>1162.7</ele>
        <time>2021-08-31T09:32:56Z</time>
      </trkpt>
      <trkpt lat="45.11094" lon="5.59061">
        <ele>1162.8</ele>
        <time>2021-08-31T09:32:58Z</time>
      </trkpt>
      <trkpt lat="45.1109" lon="5.59105">
        <ele>1166.6</ele>
        <time>2021-08-31T09:34:10Z</time>
      </trkpt>
      <trkpt lat="45.11092" lon="5.5911">
        <ele>1167</ele>
        <time>2021-08-31T09:34:11Z</time>
      </trkpt>
      <trkpt lat="45.11092" lon="5.59115">
        <ele>1167.4</ele>
        <time>2021-08-31T09:34:13Z</time>
      </trkpt>
      <trkpt lat="45.11092" lon="5.59117">
        <ele>1167.6</ele>
        <time>2021-08-31T09:34:14Z</time>
      </trkpt>
      <trkpt lat="45.11092" lon="5.59119">
        <ele>1167.8</ele>
        <time>2021-08-31T09:34:15Z</time>
      </trkpt>
      <trkpt lat="45.11092" lon="5.59124">
        <ele>1168.2</ele>
        <time>2021-08-31T09:34:17Z</time>
      </trkpt>
      <trkpt lat="45.11091" lon="5.59125">
        <ele>1168.3</ele>
        <time>2021-08-31T09:34:18Z</time>
      </trkpt>
      <trkpt lat="45.1109" lon="5.5913">
        <ele>1168.7</ele>
        <time>2021-08-31T09:34:19Z</time>
      </trkpt>
      <trkpt lat="45.11089" lon="5.59135">
        <ele>1169.2</ele>
        <time>2021-08-31T09:34:21Z</time>
      </trkpt>
      <trkpt lat="45.11089" lon="5.59136">
        <ele>1169.3</ele>
        <time>2021-08-31T09:34:22Z</time>
      </trkpt>
      <trkpt lat="45.1109" lon="5.59138">
        <ele>1169.5</ele>
        <time>2021-08-31T09:34:24Z</time>
      </trkpt>
      <trkpt lat="45.1109" lon="5.59141">
        <ele>1169.7</ele>
        <time>2021-08-31T09:34:25Z</time>
      </trkpt>
      <trkpt lat="45.1109" lon="5.59144">
        <ele>1169.9</ele>
        <time>2021-08-31T09:34:27Z</time>
      </trkpt>
      <trkpt lat="45.1109" lon="5.59146">
        <ele>1170.1</ele>
        <time>2021-08-31T09:34:28Z</time>
      </trkpt>
      <trkpt lat="45.11091" lon="5.59147">
        <ele>1170.3</ele>
        <time>2021-08-31T09:34:29Z</time>
      </trkpt>
      <trkpt lat="45.11092" lon="5.59151">
        <ele>1170.6</ele>
        <time>2021-08-31T09:34:31Z</time>
      </trkpt>
      <trkpt lat="45.11082" lon="5.59157">
        <ele>1171.9</ele>
        <time>2021-08-31T09:34:32Z</time>
      </trkpt>
      <trkpt lat="45.11071" lon="5.5916">
        <ele>1173.3</ele>
        <time>2021-08-31T09:37:34Z</time>
      </trkpt>
      <trkpt lat="45.11061" lon="5.59163">
        <ele>1174.6</ele>
        <time>2021-08-31T09:37:36Z</time>
      </trkpt>
      <trkpt lat="45.1105" lon="5.59166">
        <ele>1175.9</ele>
        <time>2021-08-31T09:37:38Z</time>
      </trkpt>
      <trkpt lat="45.11039" lon="5.59169">
        <ele>1178.7</ele>
        <time>2021-08-31T09:37:39Z</time>
      </trkpt>
      <trkpt lat="45.11037" lon="5.59166">
        <ele>1178.7</ele>
        <time>2021-08-31T09:37:41Z</time>
      </trkpt>
      <trkpt lat="45.11035" lon="5.59164">
        <ele>1178.7</ele>
        <time>2021-08-31T09:37:43Z</time>
      </trkpt>
      <trkpt lat="45.11033" lon="5.59162">
        <ele>1178.6</ele>
        <time>2021-08-31T09:37:44Z</time>
      </trkpt>
      <trkpt lat="45.11032" lon="5.59161">
        <ele>1178.6</ele>
        <time>2021-08-31T09:37:46Z</time>
      </trkpt>
      <trkpt lat="45.11031" lon="5.5916">
        <ele>1178.6</ele>
        <time>2021-08-31T09:37:47Z</time>
      </trkpt>
      <trkpt lat="45.1103" lon="5.5916">
        <ele>1178.6</ele>
        <time>2021-08-31T09:37:48Z</time>
      </trkpt>
      <trkpt lat="45.11027" lon="5.5916">
        <ele>1178.5</ele>
        <time>2021-08-31T09:37:50Z</time>
      </trkpt>
      <trkpt lat="45.11025" lon="5.59159">
        <ele>1178.5</ele>
        <time>2021-08-31T09:37:51Z</time>
      </trkpt>
      <trkpt lat="45.11021" lon="5.59158">
        <ele>1178.5</ele>
        <time>2021-08-31T09:37:53Z</time>
      </trkpt>
      <trkpt lat="45.11019" lon="5.59159">
        <ele>1178.4</ele>
        <time>2021-08-31T09:37:55Z</time>
      </trkpt>
      <trkpt lat="45.11018" lon="5.5916">
        <ele>1178.4</ele>
        <time>2021-08-31T09:37:56Z</time>
      </trkpt>
      <trkpt lat="45.11016" lon="5.5916">
        <ele>1178.4</ele>
        <time>2021-08-31T09:37:58Z</time>
      </trkpt>
      <trkpt lat="45.11014" lon="5.59163">
        <ele>1178.3</ele>
        <time>2021-08-31T09:38:01Z</time>
      </trkpt>
      <trkpt lat="45.11015" lon="5.59165">
        <ele>1178.3</ele>
        <time>2021-08-31T09:38:02Z</time>
      </trkpt>
      <trkpt lat="45.11016" lon="5.59165">
        <ele>1178.3</ele>
        <time>2021-08-31T09:38:04Z</time>
      </trkpt>
      <trkpt lat="45.11016" lon="5.59166">
        <ele>1178.3</ele>
        <time>2021-08-31T09:38:05Z</time>
      </trkpt>
      <trkpt lat="45.11017" lon="5.59166">
        <ele>1178.3</ele>
        <time>2021-08-31T09:38:06Z</time>
      </trkpt>
      <trkpt lat="45.11018" lon="5.59167">
        <ele>1178.3</ele>
        <time>2021-08-31T09:38:07Z</time>
      </trkpt>
      <trkpt lat="45.11019" lon="5.59167">
        <ele>1178.3</ele>
        <time>2021-08-31T09:38:09Z</time>
      </trkpt>
      <trkpt lat="45.11019" lon="5.59168">
        <ele>1178.3</ele>
        <time>2021-08-31T09:38:11Z</time>
      </trkpt>
      <trkpt lat="45.11018" lon="5.59169">
        <ele>1178.3</ele>
        <time>2021-08-31T09:38:13Z</time>
      </trkpt>
      <trkpt lat="45.11015" lon="5.59171">
        <ele>1178.3</ele>
        <time>2021-08-31T09:38:15Z</time>
      </trkpt>
      <trkpt lat="45.11012" lon="5.59177">
        <ele>1178.2</ele>
        <time>2021-08-31T09:38:16Z</time>
      </trkpt>
      <trkpt lat="45.11011" lon="5.59179">
        <ele>1178.2</ele>
        <time>2021-08-31T09:38:17Z</time>
      </trkpt>
      <trkpt lat="45.11004" lon="5.59185">
        <ele>1178.3</ele>
        <time>2021-08-31T09:38:19Z</time>
      </trkpt>
      <trkpt lat="45.10993" lon="5.59195">
        <ele>1178.4</ele>
        <time>2021-08-31T09:38:20Z</time>
      </trkpt>
      <trkpt lat="45.10984" lon="5.59203">
        <ele>1178.3</ele>
        <time>2021-08-31T09:38:22Z</time>
      </trkpt>
      <trkpt lat="45.10984" lon="5.59206">
        <ele>1178.3</ele>
        <time>2021-08-31T09:38:24Z</time>
      </trkpt>
      <trkpt lat="45.10984" lon="5.59208">
        <ele>1178.3</ele>
        <time>2021-08-31T09:38:26Z</time>
      </trkpt>
      <trkpt lat="45.10985" lon="5.59209">
        <ele>1178.3</ele>
        <time>2021-08-31T09:38:27Z</time>
      </trkpt>
      <trkpt lat="45.10942" lon="5.59333">
        <ele>1230.8</ele>
        <time>2021-08-31T09:46:36Z</time>
      </trkpt>
      <trkpt lat="45.10946" lon="5.59334">
        <ele>1231.2</ele>
        <time>2021-08-31T09:46:37Z</time>
      </trkpt>
      <trkpt lat="45.10947" lon="5.59334">
        <ele>1231.3</ele>
        <time>2021-08-31T09:46:38Z</time>
      </trkpt>
      <trkpt lat="45.10949" lon="5.59334">
        <ele>1231.6</ele>
        <time>2021-08-31T09:46:39Z</time>
      </trkpt>
      <trkpt lat="45.10952" lon="5.59334">
        <ele>1231.9</ele>
        <time>2021-08-31T09:46:41Z</time>
      </trkpt>
      <trkpt lat="45.10953" lon="5.59335">
        <ele>1232.1</ele>
        <time>2021-08-31T09:46:42Z</time>
      </trkpt>
      <trkpt lat="45.10955" lon="5.59335">
        <ele>1232.3</ele>
        <time>2021-08-31T09:46:43Z</time>
      </trkpt>
      <trkpt lat="45.10958" lon="5.59334">
        <ele>1232.7</ele>
        <time>2021-08-31T09:46:44Z</time>
      </trkpt>
      <trkpt lat="45.10959" lon="5.59333">
        <ele>1232.7</ele>
        <time>2021-08-31T09:46:45Z</time>
      </trkpt>
      <trkpt lat="45.1096" lon="5.59333">
        <ele>1232.9</ele>
        <time>2021-08-31T09:46:46Z</time>
      </trkpt>
      <trkpt lat="45.10962" lon="5.59332">
        <ele>1233.1</ele>
        <time>2021-08-31T09:46:47Z</time>
      </trkpt>
      <trkpt lat="45.10963" lon="5.59332">
        <ele>1233.2</ele>
        <time>2021-08-31T09:46:48Z</time>
      </trkpt>
      <trkpt lat="45.10966" lon="5.59332">
        <ele>1233.6</ele>
        <time>2021-08-31T09:46:50Z</time>
      </trkpt>
      <trkpt lat="45.10969" lon="5.59331">
        <ele>1234</ele>
        <time>2021-08-31T09:46:51Z</time>
      </trkpt>
      <trkpt lat="45.1097" lon="5.5933">
        <ele>1234.1</ele>
        <time>2021-08-31T09:46:52Z</time>
      </trkpt>
      <trkpt lat="45.10972" lon="5.59329">
        <ele>1234.3</ele>
        <time>2021-08-31T09:46:53Z</time>
      </trkpt>
      <trkpt lat="45.10974" lon="5.59329">
        <ele>1234.6</ele>
        <time>2021-08-31T09:46:55Z</time>
      </trkpt>
      <trkpt lat="45.10977" lon="5.59328">
        <ele>1234.9</ele>
        <time>2021-08-31T09:46:56Z</time>
      </trkpt>
      <trkpt lat="45.10978" lon="5.59328">
        <ele>1235</ele>
        <time>2021-08-31T09:46:57Z</time>
      </trkpt>
      <trkpt lat="45.10979" lon="5.59328">
        <ele>1235.1</ele>
        <time>2021-08-31T09:46:58Z</time>
      </trkpt>
      <trkpt lat="45.10981" lon="5.59327">
        <ele>1235.3</ele>
        <time>2021-08-31T09:47:00Z</time>
      </trkpt>
      <trkpt lat="45.10981" lon="5.59326">
        <ele>1235.5</ele>
        <time>2021-08-31T09:47:01Z</time>
      </trkpt>
      <trkpt lat="45.10983" lon="5.59325">
        <ele>1235.7</ele>
        <time>2021-08-31T09:47:03Z</time>
      </trkpt>
      <trkpt lat="45.10984" lon="5.59324">
        <ele>1235.8</ele>
        <time>2021-08-31T09:47:04Z</time>
      </trkpt>
      <trkpt lat="45.10985" lon="5.59325">
        <ele>1235.9</ele>
        <time>2021-08-31T09:47:05Z</time>
      </trkpt>
      <trkpt lat="45.10987" lon="5.59326">
        <ele>1236.3</ele>
        <time>2021-08-31T09:47:07Z</time>
      </trkpt>
      <trkpt lat="45.10988" lon="5.59327">
        <ele>1236.4</ele>
        <time>2021-08-31T09:47:08Z</time>
      </trkpt>
      <trkpt lat="45.10989" lon="5.59327">
        <ele>1236.5</ele>
        <time>2021-08-31T09:47:10Z</time>
      </trkpt>
      <trkpt lat="45.10989" lon="5.59328">
        <ele>1236.6</ele>
        <time>2021-08-31T09:47:11Z</time>
      </trkpt>
      <trkpt lat="45.1099" lon="5.5933">
        <ele>1236.7</ele>
        <time>2021-08-31T09:47:12Z</time>
      </trkpt>
      <trkpt lat="45.10992" lon="5.59334">
        <ele>1237.1</ele>
        <time>2021-08-31T09:47:14Z</time>
      </trkpt>
      <trkpt lat="45.10993" lon="5.59335">
        <ele>1237.3</ele>
        <time>2021-08-31T09:47:15Z</time>
      </trkpt>
      <trkpt lat="45.10993" lon="5.59335">
        <ele>1237.3</ele>
        <time>2021-08-31T09:47:16Z</time>
      </trkpt>
      <trkpt lat="45.10993" lon="5.59336">
        <ele>1237.4</ele>
        <time>2021-08-31T09:47:17Z</time>
      </trkpt>
      <trkpt lat="45.10993" lon="5.59337">
        <ele>1237.5</ele>
        <time>2021-08-31T09:47:18Z</time>
      </trkpt>
      <trkpt lat="45.10993" lon="5.59338">
        <ele>1237.6</ele>
        <time>2021-08-31T09:47:20Z</time>
      </trkpt>
      <trkpt lat="45.10993" lon="5.59339">
        <ele>1237.7</ele>
        <time>2021-08-31T09:47:21Z</time>
      </trkpt>
      <trkpt lat="45.10993" lon="5.5934">
        <ele>1237.7</ele>
        <time>2021-08-31T09:47:22Z</time>
      </trkpt>
      <trkpt lat="45.10994" lon="5.5934">
        <ele>1237.8</ele>
        <time>2021-08-31T09:47:23Z</time>
      </trkpt>
      <trkpt lat="45.10995" lon="5.5934">
        <ele>1237.9</ele>
        <time>2021-08-31T09:47:25Z</time>
      </trkpt>
      <trkpt lat="45.10997" lon="5.59341">
        <ele>1238.2</ele>
        <time>2021-08-31T09:47:27Z</time>
      </trkpt>
      <trkpt lat="45.10998" lon="5.59341">
        <ele>1238.4</ele>
        <time>2021-08-31T09:47:29Z</time>
      </trkpt>
      <trkpt lat="45.11" lon="5.59342">
        <ele>1238.6</ele>
        <time>2021-08-31T09:47:31Z</time>
      </trkpt>
      <trkpt lat="45.11004" lon="5.59343">
        <ele>1239</ele>
        <time>2021-08-31T09:47:34Z</time>
      </trkpt>
      <trkpt lat="45.11005" lon="5.59343">
        <ele>1239.2</ele>
        <time>2021-08-31T09:47:35Z</time>
      </trkpt>
      <trkpt lat="45.11007" lon="5.59344">
        <ele>1239.4</ele>
        <time>2021-08-31T09:47:37Z</time>
      </trkpt>
      <trkpt lat="45.11007" lon="5.59344">
        <ele>1239.5</ele>
        <time>2021-08-31T09:47:38Z</time>
      </trkpt>
      <trkpt lat="45.11008" lon="5.59345">
        <ele>1239.5</ele>
        <time>2021-08-31T09:47:39Z</time>
      </trkpt>
      <trkpt lat="45.11008" lon="5.59345">
        <ele>1239.6</ele>
        <time>2021-08-31T09:47:40Z</time>
      </trkpt>
      <trkpt lat="45.1101" lon="5.59345">
        <ele>1239.8</ele>
        <time>2021-08-31T09:47:41Z</time>
      </trkpt>
      <trkpt lat="45.11011" lon="5.59345">
        <ele>1239.9</ele>
        <time>2021-08-31T09:47:42Z</time>
      </trkpt>
      <trkpt lat="45.11013" lon="5.59344">
        <ele>1240.2</ele>
        <time>2021-08-31T09:47:43Z</time>
      </trkpt>
      <trkpt lat="45.11014" lon="5.59343">
        <ele>1240.4</ele>
        <time>2021-08-31T09:47:44Z</time>
      </trkpt>
      <trkpt lat="45.11017" lon="5.59343">
        <ele>1240.6</ele>
        <time>2021-08-31T09:47:46Z</time>
      </trkpt>
      <trkpt lat="45.11025" lon="5.5934">
        <ele>1241.4</ele>
        <time>2021-08-31T09:47:52Z</time>
      </trkpt>
      <trkpt lat="45.11027" lon="5.59339">
        <ele>1241.5</ele>
        <time>2021-08-31T09:47:53Z</time>
      </trkpt>
      <trkpt lat="45.11028" lon="5.59339">
        <ele>1241.6</ele>
        <time>2021-08-31T09:47:54Z</time>
      </trkpt>
      <trkpt lat="45.1103" lon="5.59338">
        <ele>1241.7</ele>
        <time>2021-08-31T09:47:55Z</time>
      </trkpt>
      <trkpt lat="45.11032" lon="5.59339">
        <ele>1241.8</ele>
        <time>2021-08-31T09:47:57Z</time>
      </trkpt>
      <trkpt lat="45.11035" lon="5.59338">
        <ele>1242</ele>
        <time>2021-08-31T09:47:58Z</time>
      </trkpt>
      <trkpt lat="45.11036" lon="5.59338">
        <ele>1242.1</ele>
        <time>2021-08-31T09:47:59Z</time>
      </trkpt>
      <trkpt lat="45.11039" lon="5.59338">
        <ele>1242.5</ele>
        <time>2021-08-31T09:48:01Z</time>
      </trkpt>
      <trkpt lat="45.1104" lon="5.59338">
        <ele>1242.6</ele>
        <time>2021-08-31T09:48:02Z</time>
      </trkpt>
      <trkpt lat="45.11042" lon="5.59338">
        <ele>1242.8</ele>
        <time>2021-08-31T09:48:04Z</time>
      </trkpt>
      <trkpt lat="45.11043" lon="5.59339">
        <ele>1243</ele>
        <time>2021-08-31T09:48:05Z</time>
      </trkpt>
      <trkpt lat="45.11045" lon="5.59339">
        <ele>1243.2</ele>
        <time>2021-08-31T09:48:07Z</time>
      </trkpt>
      <trkpt lat="45.11046" lon="5.5934">
        <ele>1243.3</ele>
        <time>2021-08-31T09:48:08Z</time>
      </trkpt>
      <trkpt lat="45.11048" lon="5.5934">
        <ele>1243.5</ele>
        <time>2021-08-31T09:48:09Z</time>
      </trkpt>
      <trkpt lat="45.1105" lon="5.59339">
        <ele>1243.7</ele>
        <time>2021-08-31T09:48:10Z</time>
      </trkpt>
      <trkpt lat="45.11051" lon="5.59339">
        <ele>1243.8</ele>
        <time>2021-08-31T09:48:11Z</time>
      </trkpt>
      <trkpt lat="45.11052" lon="5.59339">
        <ele>1244</ele>
        <time>2021-08-31T09:48:13Z</time>
      </trkpt>
      <trkpt lat="45.11054" lon="5.59339">
        <ele>1244.2</ele>
        <time>2021-08-31T09:48:14Z</time>
      </trkpt>
      <trkpt lat="45.11055" lon="5.59339">
        <ele>1244.3</ele>
        <time>2021-08-31T09:48:15Z</time>
      </trkpt>
      <trkpt lat="45.11056" lon="5.59339">
        <ele>1244.4</ele>
        <time>2021-08-31T09:48:16Z</time>
      </trkpt>
      <trkpt lat="45.11057" lon="5.59339">
        <ele>1244.6</ele>
        <time>2021-08-31T09:48:17Z</time>
      </trkpt>
      <trkpt lat="45.11058" lon="5.59339">
        <ele>1244.7</ele>
        <time>2021-08-31T09:48:18Z</time>
      </trkpt>
      <trkpt lat="45.11059" lon="5.59339">
        <ele>1244.9</ele>
        <time>2021-08-31T09:48:19Z</time>
      </trkpt>
      <trkpt lat="45.1106" lon="5.5934">
        <ele>1245</ele>
        <time>2021-08-31T09:48:20Z</time>
      </trkpt>
      <trkpt lat="45.11061" lon="5.5934">
        <ele>1245.1</ele>
        <time>2021-08-31T09:48:22Z</time>
      </trkpt>
      <trkpt lat="45.11063" lon="5.59341">
        <ele>1245.3</ele>
        <time>2021-08-31T09:48:23Z</time>
      </trkpt>
      <trkpt lat="45.11063" lon="5.59341">
        <ele>1245.3</ele>
        <time>2021-08-31T09:48:24Z</time>
      </trkpt>
      <trkpt lat="45.11064" lon="5.59341">
        <ele>1245.4</ele>
        <time>2021-08-31T09:48:25Z</time>
      </trkpt>
      <trkpt lat="45.11065" lon="5.59341">
        <ele>1245.5</ele>
        <time>2021-08-31T09:48:26Z</time>
      </trkpt>
      <trkpt lat="45.11066" lon="5.59341">
        <ele>1245.7</ele>
        <time>2021-08-31T09:48:28Z</time>
      </trkpt>
      <trkpt lat="45.11067" lon="5.59341">
        <ele>1245.8</ele>
        <time>2021-08-31T09:48:29Z</time>
      </trkpt>
      <trkpt lat="45.11068" lon="5.59341">
        <ele>1245.9</ele>
        <time>2021-08-31T09:48:30Z</time>
      </trkpt>
      <trkpt lat="45.11068" lon="5.59341">
        <ele>1246</ele>
        <time>2021-08-31T09:48:32Z</time>
      </trkpt>
      <trkpt lat="45.11068" lon="5.59341">
        <ele>1246</ele>
        <time>2021-08-31T09:48:33Z</time>
      </trkpt>
      <trkpt lat="45.11068" lon="5.59342">
        <ele>1246.1</ele>
        <time>2021-08-31T09:48:35Z</time>
      </trkpt>
      <trkpt lat="45.11069" lon="5.59342">
        <ele>1246.1</ele>
        <time>2021-08-31T09:48:36Z</time>
      </trkpt>
      <trkpt lat="45.11069" lon="5.59343">
        <ele>1246.2</ele>
        <time>2021-08-31T09:48:37Z</time>
      </trkpt>
      <trkpt lat="45.1107" lon="5.59343">
        <ele>1246.3</ele>
        <time>2021-08-31T09:48:39Z</time>
      </trkpt>
      <trkpt lat="45.11071" lon="5.59343">
        <ele>1246.5</ele>
        <time>2021-08-31T09:48:40Z</time>
      </trkpt>
      <trkpt lat="45.11081" lon="5.59342">
        <ele>1247.7</ele>
        <time>2021-08-31T09:48:48Z</time>
      </trkpt>
      <trkpt lat="45.11083" lon="5.59341">
        <ele>1247.9</ele>
        <time>2021-08-31T09:48:49Z</time>
      </trkpt>
      <trkpt lat="45.11085" lon="5.59342">
        <ele>1248.1</ele>
        <time>2021-08-31T09:48:51Z</time>
      </trkpt>
      <trkpt lat="45.11086" lon="5.59342">
        <ele>1248.3</ele>
        <time>2021-08-31T09:48:52Z</time>
      </trkpt>
      <trkpt lat="45.11087" lon="5.59342">
        <ele>1248.4</ele>
        <time>2021-08-31T09:48:53Z</time>
      </trkpt>
      <trkpt lat="45.11088" lon="5.59342">
        <ele>1248.5</ele>
        <time>2021-08-31T09:48:54Z</time>
      </trkpt>
      <trkpt lat="45.11088" lon="5.59342">
        <ele>1248.5</ele>
        <time>2021-08-31T09:48:55Z</time>
      </trkpt>
      <trkpt lat="45.11088" lon="5.59342">
        <ele>1248.5</ele>
        <time>2021-08-31T09:48:57Z</time>
      </trkpt>
      <trkpt lat="45.11088" lon="5.59342">
        <ele>1248.6</ele>
        <time>2021-08-31T09:48:58Z</time>
      </trkpt>
      <trkpt lat="45.11089" lon="5.59342">
        <ele>1248.6</ele>
        <time>2021-08-31T09:49:00Z</time>
      </trkpt>
      <trkpt lat="45.11089" lon="5.59343">
        <ele>1248.7</ele>
        <time>2021-08-31T09:49:01Z</time>
      </trkpt>
      <trkpt lat="45.1109" lon="5.59343">
        <ele>1248.7</ele>
        <time>2021-08-31T09:49:02Z</time>
      </trkpt>
      <trkpt lat="45.1109" lon="5.59343">
        <ele>1248.8</ele>
        <time>2021-08-31T09:49:03Z</time>
      </trkpt>
      <trkpt lat="45.11105" lon="5.59353">
        <ele>1250.8</ele>
        <time>2021-08-31T09:49:18Z</time>
      </trkpt>
      <trkpt lat="45.11107" lon="5.59354">
        <ele>1250.9</ele>
        <time>2021-08-31T09:49:19Z</time>
      </trkpt>
      <trkpt lat="45.11109" lon="5.59355">
        <ele>1251.2</ele>
        <time>2021-08-31T09:49:20Z</time>
      </trkpt>
      <trkpt lat="45.11111" lon="5.59356">
        <ele>1251.5</ele>
        <time>2021-08-31T09:49:22Z</time>
      </trkpt>
      <trkpt lat="45.11112" lon="5.59356">
        <ele>1251.6</ele>
        <time>2021-08-31T09:49:23Z</time>
      </trkpt>
      <trkpt lat="45.11113" lon="5.59357">
        <ele>1251.7</ele>
        <time>2021-08-31T09:49:24Z</time>
      </trkpt>
      <trkpt lat="45.11115" lon="5.59357">
        <ele>1251.9</ele>
        <time>2021-08-31T09:49:25Z</time>
      </trkpt>
      <trkpt lat="45.11116" lon="5.59357">
        <ele>1252.1</ele>
        <time>2021-08-31T09:49:26Z</time>
      </trkpt>
      <trkpt lat="45.11117" lon="5.59357">
        <ele>1252.2</ele>
        <time>2021-08-31T09:49:27Z</time>
      </trkpt>
      <trkpt lat="45.11119" lon="5.59358">
        <ele>1252.3</ele>
        <time>2021-08-31T09:49:28Z</time>
      </trkpt>
      <trkpt lat="45.1112" lon="5.59358">
        <ele>1252.5</ele>
        <time>2021-08-31T09:49:30Z</time>
      </trkpt>
      <trkpt lat="45.11122" lon="5.59358">
        <ele>1252.8</ele>
        <time>2021-08-31T09:49:31Z</time>
      </trkpt>
      <trkpt lat="45.11125" lon="5.59358">
        <ele>1253</ele>
        <time>2021-08-31T09:49:33Z</time>
      </trkpt>
      <trkpt lat="45.11127" lon="5.59358">
        <ele>1253.3</ele>
        <time>2021-08-31T09:49:34Z</time>
      </trkpt>
      <trkpt lat="45.1113" lon="5.59357">
        <ele>1253.6</ele>
        <time>2021-08-31T09:49:36Z</time>
      </trkpt>
      <trkpt lat="45.11132" lon="5.59357">
        <ele>1253.9</ele>
        <time>2021-08-31T09:49:37Z</time>
      </trkpt>
      <trkpt lat="45.11133" lon="5.59357">
        <ele>1254</ele>
        <time>2021-08-31T09:49:39Z</time>
      </trkpt>
      <trkpt lat="45.11135" lon="5.59356">
        <ele>1254.2</ele>
        <time>2021-08-31T09:49:40Z</time>
      </trkpt>
      <trkpt lat="45.11136" lon="5.59356">
        <ele>1254.4</ele>
        <time>2021-08-31T09:49:41Z</time>
      </trkpt>
      <trkpt lat="45.11139" lon="5.59357">
        <ele>1254.7</ele>
        <time>2021-08-31T09:49:43Z</time>
      </trkpt>
      <trkpt lat="45.1114" lon="5.59357">
        <ele>1254.8</ele>
        <time>2021-08-31T09:49:44Z</time>
      </trkpt>
      <trkpt lat="45.11142" lon="5.59356">
        <ele>1255.1</ele>
        <time>2021-08-31T09:49:45Z</time>
      </trkpt>
      <trkpt lat="45.11143" lon="5.59356">
        <ele>1255.2</ele>
        <time>2021-08-31T09:49:46Z</time>
      </trkpt>
      <trkpt lat="45.11144" lon="5.59356">
        <ele>1255.4</ele>
        <time>2021-08-31T09:49:48Z</time>
      </trkpt>
      <trkpt lat="45.11145" lon="5.59355">
        <ele>1255.4</ele>
        <time>2021-08-31T09:49:49Z</time>
      </trkpt>
      <trkpt lat="45.11145" lon="5.59355">
        <ele>1255.5</ele>
        <time>2021-08-31T09:49:50Z</time>
      </trkpt>
      <trkpt lat="45.11146" lon="5.59355">
        <ele>1255.6</ele>
        <time>2021-08-31T09:49:51Z</time>
      </trkpt>
      <trkpt lat="45.11147" lon="5.59355">
        <ele>1255.7</ele>
        <time>2021-08-31T09:49:53Z</time>
      </trkpt>
      <trkpt lat="45.11147" lon="5.59356">
        <ele>1255.7</ele>
        <time>2021-08-31T09:49:54Z</time>
      </trkpt>
      <trkpt lat="45.11148" lon="5.59356">
        <ele>1255.9</ele>
        <time>2021-08-31T09:49:56Z</time>
      </trkpt>
      <trkpt lat="45.11149" lon="5.59357">
        <ele>1256</ele>
        <time>2021-08-31T09:49:57Z</time>
      </trkpt>
      <trkpt lat="45.11149" lon="5.59357">
        <ele>1256.1</ele>
        <time>2021-08-31T09:49:59Z</time>
      </trkpt>
      <trkpt lat="45.1115" lon="5.59357">
        <ele>1256.2</ele>
        <time>2021-08-31T09:50:00Z</time>
      </trkpt>
      <trkpt lat="45.11151" lon="5.59357">
        <ele>1256.3</ele>
        <time>2021-08-31T09:50:01Z</time>
      </trkpt>
      <trkpt lat="45.11152" lon="5.59358">
        <ele>1256.4</ele>
        <time>2021-08-31T09:50:02Z</time>
      </trkpt>
      <trkpt lat="45.11153" lon="5.59358">
        <ele>1256.5</ele>
        <time>2021-08-31T09:50:03Z</time>
      </trkpt>
      <trkpt lat="45.1117" lon="5.5938">
        <ele>1259.6</ele>
        <time>2021-08-31T09:50:27Z</time>
      </trkpt>
      <trkpt lat="45.11172" lon="5.59382">
        <ele>1259.8</ele>
        <time>2021-08-31T09:50:28Z</time>
      </trkpt>
      <trkpt lat="45.11172" lon="5.59383">
        <ele>1259.9</ele>
        <time>2021-08-31T09:50:29Z</time>
      </trkpt>
      <trkpt lat="45.11173" lon="5.59384">
        <ele>1260</ele>
        <time>2021-08-31T09:50:31Z</time>
      </trkpt>
      <trkpt lat="45.11173" lon="5.59384">
        <ele>1260.1</ele>
        <time>2021-08-31T09:50:32Z</time>
      </trkpt>
      <trkpt lat="45.11174" lon="5.59385">
        <ele>1260.2</ele>
        <time>2021-08-31T09:50:34Z</time>
      </trkpt>
      <trkpt lat="45.11175" lon="5.59385">
        <ele>1260.4</ele>
        <time>2021-08-31T09:50:35Z</time>
      </trkpt>
      <trkpt lat="45.11176" lon="5.59385">
        <ele>1260.5</ele>
        <time>2021-08-31T09:50:36Z</time>
      </trkpt>
      <trkpt lat="45.11178" lon="5.59385">
        <ele>1260.7</ele>
        <time>2021-08-31T09:50:39Z</time>
      </trkpt>
      <trkpt lat="45.11196" lon="5.59386">
        <ele>1263</ele>
        <time>2021-08-31T09:50:53Z</time>
      </trkpt>
      <trkpt lat="45.11199" lon="5.59384">
        <ele>1263.4</ele>
        <time>2021-08-31T09:50:54Z</time>
      </trkpt>
      <trkpt lat="45.11203" lon="5.59382">
        <ele>1263.9</ele>
        <time>2021-08-31T09:50:56Z</time>
      </trkpt>
      <trkpt lat="45.11204" lon="5.59382">
        <ele>1264</ele>
        <time>2021-08-31T09:50:57Z</time>
      </trkpt>
      <trkpt lat="45.11205" lon="5.59381">
        <ele>1264.2</ele>
        <time>2021-08-31T09:50:58Z</time>
      </trkpt>
      <trkpt lat="45.11208" lon="5.5938">
        <ele>1264.6</ele>
        <time>2021-08-31T09:51:00Z</time>
      </trkpt>
      <trkpt lat="45.11209" lon="5.59379">
        <ele>1264.7</ele>
        <time>2021-08-31T09:51:01Z</time>
      </trkpt>
      <trkpt lat="45.11212" lon="5.59378">
        <ele>1265</ele>
        <time>2021-08-31T09:51:03Z</time>
      </trkpt>
      <trkpt lat="45.11212" lon="5.59378">
        <ele>1265.1</ele>
        <time>2021-08-31T09:51:04Z</time>
      </trkpt>
      <trkpt lat="45.11212" lon="5.59379">
        <ele>1265.1</ele>
        <time>2021-08-31T09:51:05Z</time>
      </trkpt>
      <trkpt lat="45.11212" lon="5.59379">
        <ele>1265.2</ele>
        <time>2021-08-31T09:51:06Z</time>
      </trkpt>
      <trkpt lat="45.11213" lon="5.5938">
        <ele>1265.3</ele>
        <time>2021-08-31T09:51:08Z</time>
      </trkpt>
      <trkpt lat="45.11212" lon="5.5938">
        <ele>1265.4</ele>
        <time>2021-08-31T09:51:09Z</time>
      </trkpt>
      <trkpt lat="45.11212" lon="5.59381">
        <ele>1265.4</ele>
        <time>2021-08-31T09:51:11Z</time>
      </trkpt>
      <trkpt lat="45.11212" lon="5.59381">
        <ele>1265.5</ele>
        <time>2021-08-31T09:51:12Z</time>
      </trkpt>
      <trkpt lat="45.11211" lon="5.59382">
        <ele>1265.6</ele>
        <time>2021-08-31T09:51:14Z</time>
      </trkpt>
      <trkpt lat="45.11211" lon="5.59382">
        <ele>1265.6</ele>
        <time>2021-08-31T09:51:15Z</time>
      </trkpt>
      <trkpt lat="45.11211" lon="5.59383">
        <ele>1265.7</ele>
        <time>2021-08-31T09:51:17Z</time>
      </trkpt>
      <trkpt lat="45.11211" lon="5.59384">
        <ele>1265.7</ele>
        <time>2021-08-31T09:51:18Z</time>
      </trkpt>
      <trkpt lat="45.11268" lon="5.59494">
        <ele>1277.4</ele>
        <time>2021-08-31T09:54:27Z</time>
      </trkpt>
      <trkpt lat="45.11262" lon="5.59489">
        <ele>1279.4</ele>
        <time>2021-08-31T09:54:28Z</time>
      </trkpt>
      <trkpt lat="45.11258" lon="5.59486">
        <ele>1280.2</ele>
        <time>2021-08-31T09:54:29Z</time>
      </trkpt>
      <trkpt lat="45.11239" lon="5.59469">
        <ele>1287.1</ele>
        <time>2021-08-31T09:54:31Z</time>
      </trkpt>
      <trkpt lat="45.11236" lon="5.59466">
        <ele>1288.3</ele>
        <time>2021-08-31T09:54:32Z</time>
      </trkpt>
      <trkpt lat="45.11235" lon="5.59466">
        <ele>1289.3</ele>
        <time>2021-08-31T09:54:33Z</time>
      </trkpt>
      <trkpt lat="45.11235" lon="5.59465">
        <ele>1289.1</ele>
        <time>2021-08-31T09:54:34Z</time>
      </trkpt>
      <trkpt lat="45.11234" lon="5.59464">
        <ele>1288.9</ele>
        <time>2021-08-31T09:54:35Z</time>
      </trkpt>
      <trkpt lat="45.11232" lon="5.59463">
        <ele>1290.1</ele>
        <time>2021-08-31T09:54:37Z</time>
      </trkpt>
      <trkpt lat="45.11227" lon="5.5946">
        <ele>1293.2</ele>
        <time>2021-08-31T09:54:38Z</time>
      </trkpt>
      <trkpt lat="45.1122" lon="5.5946">
        <ele>1295.7</ele>
        <time>2021-08-31T09:54:40Z</time>
      </trkpt>
      <trkpt lat="45.11214" lon="5.59469">
        <ele>1298.2</ele>
        <time>2021-08-31T09:54:42Z</time>
      </trkpt>
      <trkpt lat="45.11211" lon="5.59472">
        <ele>1299.3</ele>
        <time>2021-08-31T09:54:44Z</time>
      </trkpt>
      <trkpt lat="45.11208" lon="5.59475">
        <ele>1300.2</ele>
        <time>2021-08-31T09:54:45Z</time>
      </trkpt>
      <trkpt lat="45.11207" lon="5.59476">
        <ele>1300</ele>
        <time>2021-08-31T09:54:47Z</time>
      </trkpt>
      <trkpt lat="45.11206" lon="5.59477">
        <ele>1299.8</ele>
        <time>2021-08-31T09:54:48Z</time>
      </trkpt>
      <trkpt lat="45.11205" lon="5.59478">
        <ele>1300.6</ele>
        <time>2021-08-31T09:54:49Z</time>
      </trkpt>
      <trkpt lat="45.11202" lon="5.59479">
        <ele>1301.4</ele>
        <time>2021-08-31T09:54:51Z</time>
      </trkpt>
      <trkpt lat="45.11199" lon="5.59479">
        <ele>1302.1</ele>
        <time>2021-08-31T09:54:52Z</time>
      </trkpt>
      <trkpt lat="45.11197" lon="5.59477">
        <ele>1301.9</ele>
        <time>2021-08-31T09:54:53Z</time>
      </trkpt>
      <trkpt lat="45.11193" lon="5.59474">
        <ele>1303.5</ele>
        <time>2021-08-31T09:54:55Z</time>
      </trkpt>
      <trkpt lat="45.11191" lon="5.59473">
        <ele>1304.2</ele>
        <time>2021-08-31T09:54:56Z</time>
      </trkpt>
      <trkpt lat="45.11188" lon="5.59472">
        <ele>1304</ele>
        <time>2021-08-31T09:54:57Z</time>
      </trkpt>
      <trkpt lat="45.11187" lon="5.59472">
        <ele>1304.5</ele>
        <time>2021-08-31T09:54:58Z</time>
      </trkpt>
      <trkpt lat="45.11182" lon="5.5947">
        <ele>1305</ele>
        <time>2021-08-31T09:54:59Z</time>
      </trkpt>
      <trkpt lat="45.1118" lon="5.59469">
        <ele>1305.1</ele>
        <time>2021-08-31T09:55:00Z</time>
      </trkpt>
      <trkpt lat="45.11177" lon="5.59468">
        <ele>1305.4</ele>
        <time>2021-08-31T09:55:02Z</time>
      </trkpt>
      <trkpt lat="45.11174" lon="5.59468">
        <ele>1305.8</ele>
        <time>2021-08-31T09:55:03Z</time>
      </trkpt>
      <trkpt lat="45.1117" lon="5.59467">
        <ele>1306.2</ele>
        <time>2021-08-31T09:55:04Z</time>
      </trkpt>
      <trkpt lat="45.11167" lon="5.59466">
        <ele>1306.1</ele>
        <time>2021-08-31T09:55:06Z</time>
      </trkpt>
      <trkpt lat="45.11166" lon="5.59465">
        <ele>1306.4</ele>
        <time>2021-08-31T09:55:07Z</time>
      </trkpt>
      <trkpt lat="45.11165" lon="5.59464">
        <ele>1306.2</ele>
        <time>2021-08-31T09:55:08Z</time>
      </trkpt>
      <trkpt lat="45.11164" lon="5.59464">
        <ele>1306.1</ele>
        <time>2021-08-31T09:55:09Z</time>
      </trkpt>
      <trkpt lat="45.11164" lon="5.59464">
        <ele>1305.9</ele>
        <time>2021-08-31T09:55:10Z</time>
      </trkpt>
      <trkpt lat="45.11164" lon="5.59466">
        <ele>1305.7</ele>
        <time>2021-08-31T09:55:12Z</time>
      </trkpt>
      <trkpt lat="45.11165" lon="5.59467">
        <ele>1306</ele>
        <time>2021-08-31T09:55:13Z</time>
      </trkpt>
      <trkpt lat="45.11165" lon="5.5947">
        <ele>1306.3</ele>
        <time>2021-08-31T09:55:14Z</time>
      </trkpt>
      <trkpt lat="45.11168" lon="5.59476">
        <ele>1306</ele>
        <time>2021-08-31T09:55:16Z</time>
      </trkpt>
      <trkpt lat="45.11171" lon="5.59479">
        <ele>1305.5</ele>
        <time>2021-08-31T09:55:17Z</time>
      </trkpt>
      <trkpt lat="45.11179" lon="5.59488">
        <ele>1303.8</ele>
        <time>2021-08-31T09:55:18Z</time>
      </trkpt>
      <trkpt lat="45.11187" lon="5.59498">
        <ele>1302.6</ele>
        <time>2021-08-31T09:55:19Z</time>
      </trkpt>
      <trkpt lat="45.1119" lon="5.59504">
        <ele>1301.7</ele>
        <time>2021-08-31T09:55:21Z</time>
      </trkpt>
      <trkpt lat="45.11192" lon="5.59508">
        <ele>1300.8</ele>
        <time>2021-08-31T09:55:22Z</time>
      </trkpt>
      <trkpt lat="45.11194" lon="5.59513">
        <ele>1299.8</ele>
        <time>2021-08-31T09:55:23Z</time>
      </trkpt>
      <trkpt lat="45.11195" lon="5.59515">
        <ele>1299.9</ele>
        <time>2021-08-31T09:55:24Z</time>
      </trkpt>
      <trkpt lat="45.11195" lon="5.59517">
        <ele>1299.7</ele>
        <time>2021-08-31T09:55:25Z</time>
      </trkpt>
      <trkpt lat="45.11196" lon="5.59523">
        <ele>1300.2</ele>
        <time>2021-08-31T09:55:27Z</time>
      </trkpt>
      <trkpt lat="45.11196" lon="5.59528">
        <ele>1300.5</ele>
        <time>2021-08-31T09:55:28Z</time>
      </trkpt>
      <trkpt lat="45.11196" lon="5.59541">
        <ele>1301.7</ele>
        <time>2021-08-31T09:55:30Z</time>
      </trkpt>
      <trkpt lat="45.11196" lon="5.59546">
        <ele>1301.9</ele>
        <time>2021-08-31T09:55:31Z</time>
      </trkpt>
      <trkpt lat="45.11197" lon="5.59555">
        <ele>1302.4</ele>
        <time>2021-08-31T09:55:32Z</time>
      </trkpt>
      <trkpt lat="45.11197" lon="5.59559">
        <ele>1301.4</ele>
        <time>2021-08-31T09:55:33Z</time>
      </trkpt>
      <trkpt lat="45.11198" lon="5.59563">
        <ele>1301.4</ele>
        <time>2021-08-31T09:55:34Z</time>
      </trkpt>
      <trkpt lat="45.11198" lon="5.59567">
        <ele>1301.5</ele>
        <time>2021-08-31T09:55:35Z</time>
      </trkpt>
      <trkpt lat="45.11197" lon="5.59568">
        <ele>1301.3</ele>
        <time>2021-08-31T09:55:37Z</time>
      </trkpt>
      <trkpt lat="45.11195" lon="5.59569">
        <ele>1302.3</ele>
        <time>2021-08-31T09:55:38Z</time>
      </trkpt>
      <trkpt lat="45.11194" lon="5.59568">
        <ele>1302.2</ele>
        <time>2021-08-31T09:55:39Z</time>
      </trkpt>
      <trkpt lat="45.11192" lon="5.59567">
        <ele>1303.2</ele>
        <time>2021-08-31T09:55:40Z</time>
      </trkpt>
      <trkpt lat="45.11191" lon="5.59567">
        <ele>1304.2</ele>
        <time>2021-08-31T09:55:42Z</time>
      </trkpt>
      <trkpt lat="45.1119" lon="5.59566">
        <ele>1304</ele>
        <time>2021-08-31T09:55:43Z</time>
      </trkpt>
      <trkpt lat="45.11188" lon="5.59566">
        <ele>1303.8</ele>
        <time>2021-08-31T09:55:44Z</time>
      </trkpt>
      <trkpt lat="45.11187" lon="5.59566">
        <ele>1304.7</ele>
        <time>2021-08-31T09:55:45Z</time>
      </trkpt>
      <trkpt lat="45.11186" lon="5.59566">
        <ele>1304.5</ele>
        <time>2021-08-31T09:55:46Z</time>
      </trkpt>
      <trkpt lat="45.11186" lon="5.59566">
        <ele>1304.3</ele>
        <time>2021-08-31T09:55:47Z</time>
      </trkpt>
      <trkpt lat="45.11185" lon="5.59566">
        <ele>1305</ele>
        <time>2021-08-31T09:55:49Z</time>
      </trkpt>
      <trkpt lat="45.11184" lon="5.59568">
        <ele>1304.9</ele>
        <time>2021-08-31T09:55:50Z</time>
      </trkpt>
      <trkpt lat="45.11183" lon="5.59569">
        <ele>1304.9</ele>
        <time>2021-08-31T09:55:52Z</time>
      </trkpt>
      <trkpt lat="45.11183" lon="5.5957">
        <ele>1304.7</ele>
        <time>2021-08-31T09:55:53Z</time>
      </trkpt>
      <trkpt lat="45.11187" lon="5.59584">
        <ele>1304.1</ele>
        <time>2021-08-31T09:55:54Z</time>
      </trkpt>
      <trkpt lat="45.1119" lon="5.59596">
        <ele>1302.9</ele>
        <time>2021-08-31T09:55:55Z</time>
      </trkpt>
      <trkpt lat="45.11194" lon="5.59613">
        <ele>1299.7</ele>
        <time>2021-08-31T09:55:57Z</time>
      </trkpt>
      <trkpt lat="45.11197" lon="5.59621">
        <ele>1297.9</ele>
        <time>2021-08-31T09:55:58Z</time>
      </trkpt>
      <trkpt lat="45.11199" lon="5.59627">
        <ele>1297.5</ele>
        <time>2021-08-31T09:55:59Z</time>
      </trkpt>
      <trkpt lat="45.11204" lon="5.59634">
        <ele>1294.7</ele>
        <time>2021-08-31T09:56:00Z</time>
      </trkpt>
      <trkpt lat="45.11205" lon="5.59636">
        <ele>1294.5</ele>
        <time>2021-08-31T09:56:02Z</time>
      </trkpt>
      <trkpt lat="45.11208" lon="5.59641">
        <ele>1293.2</ele>
        <time>2021-08-31T09:56:03Z</time>
      </trkpt>
      <trkpt lat="45.11209" lon="5.59642">
        <ele>1291.8</ele>
        <time>2021-08-31T09:56:04Z</time>
      </trkpt>
      <trkpt lat="45.1121" lon="5.59644">
        <ele>1291.6</ele>
        <time>2021-08-31T09:56:05Z</time>
      </trkpt>
      <trkpt lat="45.1121" lon="5.59646">
        <ele>1291.5</ele>
        <time>2021-08-31T09:56:06Z</time>
      </trkpt>
      <trkpt lat="45.11211" lon="5.59648">
        <ele>1291.1</ele>
        <time>2021-08-31T09:56:08Z</time>
      </trkpt>
      <trkpt lat="45.11211" lon="5.59652">
        <ele>1290.8</ele>
        <time>2021-08-31T09:56:09Z</time>
      </trkpt>
      <trkpt lat="45.11212" lon="5.59664">
        <ele>1290.2</ele>
        <time>2021-08-31T09:56:10Z</time>
      </trkpt>
      <trkpt lat="45.11211" lon="5.59682">
        <ele>1289.8</ele>
        <time>2021-08-31T09:56:11Z</time>
      </trkpt>
      <trkpt lat="45.11211" lon="5.59689">
        <ele>1289.6</ele>
        <time>2021-08-31T09:56:12Z</time>
      </trkpt>
      <trkpt lat="45.1121" lon="5.59695">
        <ele>1289.5</ele>
        <time>2021-08-31T09:56:13Z</time>
      </trkpt>
      <trkpt lat="45.1121" lon="5.59702">
        <ele>1289.4</ele>
        <time>2021-08-31T09:56:14Z</time>
      </trkpt>
      <trkpt lat="45.11209" lon="5.5971">
        <ele>1289.2</ele>
        <time>2021-08-31T09:56:16Z</time>
      </trkpt>
      <trkpt lat="45.11209" lon="5.59714">
        <ele>1289.8</ele>
        <time>2021-08-31T09:56:17Z</time>
      </trkpt>
      <trkpt lat="45.11206" lon="5.59717">
        <ele>1289.6</ele>
        <time>2021-08-31T09:56:18Z</time>
      </trkpt>
      <trkpt lat="45.11205" lon="5.59718">
        <ele>1290.2</ele>
        <time>2021-08-31T09:56:19Z</time>
      </trkpt>
      <trkpt lat="45.11204" lon="5.59719">
        <ele>1290</ele>
        <time>2021-08-31T09:56:21Z</time>
      </trkpt>
      <trkpt lat="45.11202" lon="5.59718">
        <ele>1290.6</ele>
        <time>2021-08-31T09:56:22Z</time>
      </trkpt>
      <trkpt lat="45.112" lon="5.59719">
        <ele>1290.4</ele>
        <time>2021-08-31T09:56:23Z</time>
      </trkpt>
      <trkpt lat="45.11199" lon="5.59718">
        <ele>1291.1</ele>
        <time>2021-08-31T09:56:24Z</time>
      </trkpt>
      <trkpt lat="45.11198" lon="5.59718">
        <ele>1290.9</ele>
        <time>2021-08-31T09:56:25Z</time>
      </trkpt>
      <trkpt lat="45.11195" lon="5.59717">
        <ele>1291.7</ele>
        <time>2021-08-31T09:56:27Z</time>
      </trkpt>
      <trkpt lat="45.11189" lon="5.59713">
        <ele>1293.5</ele>
        <time>2021-08-31T09:56:29Z</time>
      </trkpt>
      <trkpt lat="45.11187" lon="5.5971">
        <ele>1294.2</ele>
        <time>2021-08-31T09:56:30Z</time>
      </trkpt>
      <trkpt lat="45.11184" lon="5.59707">
        <ele>1294.8</ele>
        <time>2021-08-31T09:56:31Z</time>
      </trkpt>
      <trkpt lat="45.11182" lon="5.59704">
        <ele>1294.8</ele>
        <time>2021-08-31T09:56:32Z</time>
      </trkpt>
      <trkpt lat="45.11152" lon="5.59841">
        <ele>1310</ele>
        <time>2021-08-31T09:58:49Z</time>
      </trkpt>
      <trkpt lat="45.11153" lon="5.59848">
        <ele>1310.4</ele>
        <time>2021-08-31T09:58:51Z</time>
      </trkpt>
      <trkpt lat="45.11153" lon="5.59852">
        <ele>1310.4</ele>
        <time>2021-08-31T09:58:53Z</time>
      </trkpt>
      <trkpt lat="45.11153" lon="5.59854">
        <ele>1310.3</ele>
        <time>2021-08-31T09:58:54Z</time>
      </trkpt>
      <trkpt lat="45.11151" lon="5.59858">
        <ele>1311</ele>
        <time>2021-08-31T09:58:55Z</time>
      </trkpt>
      <trkpt lat="45.11149" lon="5.5986">
        <ele>1310.8</ele>
        <time>2021-08-31T09:58:56Z</time>
      </trkpt>
      <trkpt lat="45.11148" lon="5.59861">
        <ele>1311.4</ele>
        <time>2021-08-31T09:58:57Z</time>
      </trkpt>
      <trkpt lat="45.11148" lon="5.59862">
        <ele>1311.2</ele>
        <time>2021-08-31T09:58:58Z</time>
      </trkpt>
      <trkpt lat="45.11147" lon="5.59862">
        <ele>1311.1</ele>
        <time>2021-08-31T09:58:59Z</time>
      </trkpt>
      <trkpt lat="45.11146" lon="5.59862">
        <ele>1310.9</ele>
        <time>2021-08-31T09:59:00Z</time>
      </trkpt>
      <trkpt lat="45.11143" lon="5.59862">
        <ele>1311.4</ele>
        <time>2021-08-31T09:59:02Z</time>
      </trkpt>
      <trkpt lat="45.11142" lon="5.59862">
        <ele>1311.3</ele>
        <time>2021-08-31T09:59:03Z</time>
      </trkpt>
      <trkpt lat="45.11141" lon="5.59862">
        <ele>1311.8</ele>
        <time>2021-08-31T09:59:04Z</time>
      </trkpt>
      <trkpt lat="45.11139" lon="5.59866">
        <ele>1312.4</ele>
        <time>2021-08-31T09:59:06Z</time>
      </trkpt>
      <trkpt lat="45.11138" lon="5.59868">
        <ele>1312.2</ele>
        <time>2021-08-31T09:59:07Z</time>
      </trkpt>
      <trkpt lat="45.11135" lon="5.59869">
        <ele>1312.7</ele>
        <time>2021-08-31T09:59:09Z</time>
      </trkpt>
      <trkpt lat="45.11134" lon="5.59868">
        <ele>1312.7</ele>
        <time>2021-08-31T09:59:11Z</time>
      </trkpt>
      <trkpt lat="45.11134" lon="5.59868">
        <ele>1312.8</ele>
        <time>2021-08-31T09:59:12Z</time>
      </trkpt>
      <trkpt lat="45.11133" lon="5.59868">
        <ele>1312.8</ele>
        <time>2021-08-31T09:59:14Z</time>
      </trkpt>
      <trkpt lat="45.11132" lon="5.59871">
        <ele>1312.9</ele>
        <time>2021-08-31T09:59:16Z</time>
      </trkpt>
      <trkpt lat="45.11132" lon="5.59872">
        <ele>1312.9</ele>
        <time>2021-08-31T09:59:17Z</time>
      </trkpt>
      <trkpt lat="45.11132" lon="5.59874">
        <ele>1313</ele>
        <time>2021-08-31T09:59:19Z</time>
      </trkpt>
      <trkpt lat="45.11133" lon="5.59875">
        <ele>1313.1</ele>
        <time>2021-08-31T09:59:20Z</time>
      </trkpt>
      <trkpt lat="45.11135" lon="5.59877">
        <ele>1313.2</ele>
        <time>2021-08-31T09:59:21Z</time>
      </trkpt>
      <trkpt lat="45.11136" lon="5.59877">
        <ele>1313.3</ele>
        <time>2021-08-31T09:59:22Z</time>
      </trkpt>
      <trkpt lat="45.11139" lon="5.59878">
        <ele>1313.4</ele>
        <time>2021-08-31T09:59:24Z</time>
      </trkpt>
      <trkpt lat="45.11142" lon="5.5988">
        <ele>1313.6</ele>
        <time>2021-08-31T09:59:25Z</time>
      </trkpt>
      <trkpt lat="45.11144" lon="5.59884">
        <ele>1313.8</ele>
        <time>2021-08-31T09:59:27Z</time>
      </trkpt>
      <trkpt lat="45.11144" lon="5.59888">
        <ele>1313.9</ele>
        <time>2021-08-31T09:59:29Z</time>
      </trkpt>
      <trkpt lat="45.11144" lon="5.59889">
        <ele>1314</ele>
        <time>2021-08-31T09:59:30Z</time>
      </trkpt>
      <trkpt lat="45.11143" lon="5.59891">
        <ele>1314.1</ele>
        <time>2021-08-31T09:59:31Z</time>
      </trkpt>
      <trkpt lat="45.1114" lon="5.59895">
        <ele>1315.4</ele>
        <time>2021-08-31T09:59:33Z</time>
      </trkpt>
      <trkpt lat="45.11138" lon="5.59897">
        <ele>1315.6</ele>
        <time>2021-08-31T09:59:34Z</time>
      </trkpt>
      <trkpt lat="45.11135" lon="5.59898">
        <ele>1315.8</ele>
        <time>2021-08-31T09:59:36Z</time>
      </trkpt>
      <trkpt lat="45.11134" lon="5.59897">
        <ele>1315.9</ele>
        <time>2021-08-31T09:59:37Z</time>
      </trkpt>
      <trkpt lat="45.11132" lon="5.59897">
        <ele>1316</ele>
        <time>2021-08-31T09:59:38Z</time>
      </trkpt>
      <trkpt lat="45.11128" lon="5.59895">
        <ele>1316.3</ele>
        <time>2021-08-31T09:59:40Z</time>
      </trkpt>
      <trkpt lat="45.11125" lon="5.59894">
        <ele>1316.5</ele>
        <time>2021-08-31T09:59:42Z</time>
      </trkpt>
      <trkpt lat="45.11124" lon="5.59894">
        <ele>1316.6</ele>
        <time>2021-08-31T09:59:43Z</time>
      </trkpt>
      <trkpt lat="45.11122" lon="5.59892">
        <ele>1316.8</ele>
        <time>2021-08-31T09:59:45Z</time>
      </trkpt>
      <trkpt lat="45.11121" lon="5.59891">
        <ele>1316.8</ele>
        <time>2021-08-31T09:59:46Z</time>
      </trkpt>
      <trkpt lat="45.1112" lon="5.59891">
        <ele>1316.9</ele>
        <time>2021-08-31T09:59:47Z</time>
      </trkpt>
      <trkpt lat="45.11119" lon="5.5989">
        <ele>1317</ele>
        <time>2021-08-31T09:59:49Z</time>
      </trkpt>
      <trkpt lat="45.11118" lon="5.5989">
        <ele>1317.1</ele>
        <time>2021-08-31T09:59:50Z</time>
      </trkpt>
      <trkpt lat="45.11117" lon="5.59873">
        <ele>1318</ele>
        <time>2021-08-31T09:59:52Z</time>
      </trkpt>
      <trkpt lat="45.11118" lon="5.59858">
        <ele>1318.9</ele>
        <time>2021-08-31T10:01:44Z</time>
      </trkpt>
      <trkpt lat="45.11119" lon="5.59842">
        <ele>1319.9</ele>
        <time>2021-08-31T10:01:45Z</time>
      </trkpt>
      <trkpt lat="45.11119" lon="5.59827">
        <ele>1321</ele>
        <time>2021-08-31T10:01:46Z</time>
      </trkpt>
      <trkpt lat="45.11122" lon="5.59822">
        <ele>1321.4</ele>
        <time>2021-08-31T10:01:48Z</time>
      </trkpt>
      <trkpt lat="45.11123" lon="5.59817">
        <ele>1321.8</ele>
        <time>2021-08-31T10:01:50Z</time>
      </trkpt>
      <trkpt lat="45.11123" lon="5.59816">
        <ele>1321.9</ele>
        <time>2021-08-31T10:01:51Z</time>
      </trkpt>
      <trkpt lat="45.11123" lon="5.59815">
        <ele>1322</ele>
        <time>2021-08-31T10:01:52Z</time>
      </trkpt>
      <trkpt lat="45.11123" lon="5.59813">
        <ele>1322.1</ele>
        <time>2021-08-31T10:01:53Z</time>
      </trkpt>
      <trkpt lat="45.11122" lon="5.59809">
        <ele>1322.4</ele>
        <time>2021-08-31T10:01:55Z</time>
      </trkpt>
      <trkpt lat="45.11122" lon="5.59807">
        <ele>1322.5</ele>
        <time>2021-08-31T10:01:56Z</time>
      </trkpt>
      <trkpt lat="45.11122" lon="5.59805">
        <ele>1322.6</ele>
        <time>2021-08-31T10:01:58Z</time>
      </trkpt>
      <trkpt lat="45.11121" lon="5.59803">
        <ele>1322.8</ele>
        <time>2021-08-31T10:01:59Z</time>
      </trkpt>
      <trkpt lat="45.11118" lon="5.59799">
        <ele>1323.2</ele>
        <time>2021-08-31T10:02:01Z</time>
      </trkpt>
      <trkpt lat="45.11117" lon="5.59798">
        <ele>1323.3</ele>
        <time>2021-08-31T10:02:02Z</time>
      </trkpt>
      <trkpt lat="45.11117" lon="5.59798">
        <ele>1323.3</ele>
        <time>2021-08-31T10:02:04Z</time>
      </trkpt>
      <trkpt lat="45.11115" lon="5.59796">
        <ele>1323.5</ele>
        <time>2021-08-31T10:02:05Z</time>
      </trkpt>
      <trkpt lat="45.11113" lon="5.59795">
        <ele>1323.7</ele>
        <time>2021-08-31T10:02:07Z</time>
      </trkpt>
      <trkpt lat="45.1111" lon="5.59794">
        <ele>1324</ele>
        <time>2021-08-31T10:02:08Z</time>
      </trkpt>
      <trkpt lat="45.11109" lon="5.59793">
        <ele>1324</ele>
        <time>2021-08-31T10:02:09Z</time>
      </trkpt>
      <trkpt lat="45.11107" lon="5.59792">
        <ele>1324.2</ele>
        <time>2021-08-31T10:02:11Z</time>
      </trkpt>
      <trkpt lat="45.11107" lon="5.59791">
        <ele>1324.3</ele>
        <time>2021-08-31T10:02:13Z</time>
      </trkpt>
      <trkpt lat="45.11105" lon="5.59788">
        <ele>1324.5</ele>
        <time>2021-08-31T10:02:14Z</time>
      </trkpt>
      <trkpt lat="45.11105" lon="5.59786">
        <ele>1324.7</ele>
        <time>2021-08-31T10:02:16Z</time>
      </trkpt>
      <trkpt lat="45.11105" lon="5.59785">
        <ele>1324.8</ele>
        <time>2021-08-31T10:02:17Z</time>
      </trkpt>
      <trkpt lat="45.11104" lon="5.59784">
        <ele>1324.8</ele>
        <time>2021-08-31T10:02:18Z</time>
      </trkpt>
      <trkpt lat="45.11103" lon="5.59783">
        <ele>1324.9</ele>
        <time>2021-08-31T10:02:19Z</time>
      </trkpt>
      <trkpt lat="45.11101" lon="5.59781">
        <ele>1325.1</ele>
        <time>2021-08-31T10:02:21Z</time>
      </trkpt>
      <trkpt lat="45.111" lon="5.5978">
        <ele>1325.2</ele>
        <time>2021-08-31T10:02:22Z</time>
      </trkpt>
      <trkpt lat="45.11099" lon="5.5978">
        <ele>1325.3</ele>
        <time>2021-08-31T10:02:23Z</time>
      </trkpt>
      <trkpt lat="45.11098" lon="5.59778">
        <ele>1325.5</ele>
        <time>2021-08-31T10:02:25Z</time>
      </trkpt>
      <trkpt lat="45.11096" lon="5.59775">
        <ele>1325.8</ele>
        <time>2021-08-31T10:02:27Z</time>
      </trkpt>
      <trkpt lat="45.11095" lon="5.59774">
        <ele>1325.9</ele>
        <time>2021-08-31T10:02:28Z</time>
      </trkpt>
      <trkpt lat="45.11095" lon="5.59772">
        <ele>1326</ele>
        <time>2021-08-31T10:02:29Z</time>
      </trkpt>
      <trkpt lat="45.11094" lon="5.5977">
        <ele>1326.2</ele>
        <time>2021-08-31T10:02:31Z</time>
      </trkpt>
      <trkpt lat="45.11094" lon="5.59768">
        <ele>1326.3</ele>
        <time>2021-08-31T10:02:32Z</time>
      </trkpt>
      <trkpt lat="45.11093" lon="5.59766">
        <ele>1326.4</ele>
        <time>2021-08-31T10:02:33Z</time>
      </trkpt>
      <trkpt lat="45.11092" lon="5.59766">
        <ele>1326.5</ele>
        <time>2021-08-31T10:02:34Z</time>
      </trkpt>
      <trkpt lat="45.11092" lon="5.59764">
        <ele>1326.6</ele>
        <time>2021-08-31T10:02:36Z</time>
      </trkpt>
      <trkpt lat="45.11092" lon="5.59763">
        <ele>1326.7</ele>
        <time>2021-08-31T10:02:37Z</time>
      </trkpt>
      <trkpt lat="45.11092" lon="5.59761">
        <ele>1326.8</ele>
        <time>2021-08-31T10:02:39Z</time>
      </trkpt>
      <trkpt lat="45.11092" lon="5.59761">
        <ele>1326.8</ele>
        <time>2021-08-31T10:02:40Z</time>
      </trkpt>
      <trkpt lat="45.11092" lon="5.5976">
        <ele>1326.8</ele>
        <time>2021-08-31T10:02:41Z</time>
      </trkpt>
      <trkpt lat="45.11092" lon="5.5976">
        <ele>1326.9</ele>
        <time>2021-08-31T10:02:42Z</time>
      </trkpt>
      <trkpt lat="45.11091" lon="5.59759">
        <ele>1326.9</ele>
        <time>2021-08-31T10:02:43Z</time>
      </trkpt>
      <trkpt lat="45.11091" lon="5.59758">
        <ele>1327</ele>
        <time>2021-08-31T10:02:44Z</time>
      </trkpt>
      <trkpt lat="45.11091" lon="5.59757">
        <ele>1327</ele>
        <time>2021-08-31T10:02:45Z</time>
      </trkpt>
      <trkpt lat="45.11091" lon="5.59756">
        <ele>1327.1</ele>
        <time>2021-08-31T10:02:47Z</time>
      </trkpt>
      <trkpt lat="45.11088" lon="5.59751">
        <ele>1327.5</ele>
        <time>2021-08-31T10:02:51Z</time>
      </trkpt>
      <trkpt lat="45.11087" lon="5.59749">
        <ele>1327.6</ele>
        <time>2021-08-31T10:02:52Z</time>
      </trkpt>
      <trkpt lat="45.11086" lon="5.59747">
        <ele>1327.8</ele>
        <time>2021-08-31T10:02:53Z</time>
      </trkpt>
      <trkpt lat="45.11085" lon="5.59746">
        <ele>1327.9</ele>
        <time>2021-08-31T10:02:54Z</time>
      </trkpt>
      <trkpt lat="45.11084" lon="5.59745">
        <ele>1328</ele>
        <time>2021-08-31T10:02:56Z</time>
      </trkpt>
      <trkpt lat="45.11084" lon="5.59744">
        <ele>1328</ele>
        <time>2021-08-31T10:02:57Z</time>
      </trkpt>
      <trkpt lat="45.11083" lon="5.59743">
        <ele>1328.1</ele>
        <time>2021-08-31T10:02:58Z</time>
      </trkpt>
      <trkpt lat="45.11083" lon="5.59741">
        <ele>1328.2</ele>
        <time>2021-08-31T10:03:00Z</time>
      </trkpt>
      <trkpt lat="45.11082" lon="5.5974">
        <ele>1328.3</ele>
        <time>2021-08-31T10:03:01Z</time>
      </trkpt>
      <trkpt lat="45.1108" lon="5.59738">
        <ele>1328.4</ele>
        <time>2021-08-31T10:03:02Z</time>
      </trkpt>
      <trkpt lat="45.11079" lon="5.59736">
        <ele>1328.5</ele>
        <time>2021-08-31T10:03:04Z</time>
      </trkpt>
      <trkpt lat="45.11078" lon="5.59735">
        <ele>1328.6</ele>
        <time>2021-08-31T10:03:05Z</time>
      </trkpt>
      <trkpt lat="45.11077" lon="5.59733">
        <ele>1328.7</ele>
        <time>2021-08-31T10:03:06Z</time>
      </trkpt>
      <trkpt lat="45.11076" lon="5.59732">
        <ele>1328.9</ele>
        <time>2021-08-31T10:03:08Z</time>
      </trkpt>
      <trkpt lat="45.11075" lon="5.5973">
        <ele>1329</ele>
        <time>2021-08-31T10:03:09Z</time>
      </trkpt>
      <trkpt lat="45.11074" lon="5.59729">
        <ele>1329.1</ele>
        <time>2021-08-31T10:03:10Z</time>
      </trkpt>
      <trkpt lat="45.11072" lon="5.59728">
        <ele>1329.2</ele>
        <time>2021-08-31T10:03:12Z</time>
      </trkpt>
      <trkpt lat="45.11072" lon="5.59726">
        <ele>1329.3</ele>
        <time>2021-08-31T10:03:13Z</time>
      </trkpt>
      <trkpt lat="45.11071" lon="5.59725">
        <ele>1329.4</ele>
        <time>2021-08-31T10:03:14Z</time>
      </trkpt>
      <trkpt lat="45.1107" lon="5.59724">
        <ele>1329.5</ele>
        <time>2021-08-31T10:03:15Z</time>
      </trkpt>
      <trkpt lat="45.1107" lon="5.59723">
        <ele>1329.5</ele>
        <time>2021-08-31T10:03:17Z</time>
      </trkpt>
      <trkpt lat="45.11069" lon="5.59722">
        <ele>1329.6</ele>
        <time>2021-08-31T10:03:18Z</time>
      </trkpt>
      <trkpt lat="45.11069" lon="5.59721">
        <ele>1329.7</ele>
        <time>2021-08-31T10:03:19Z</time>
      </trkpt>
      <trkpt lat="45.1107" lon="5.59719">
        <ele>1329.8</ele>
        <time>2021-08-31T10:03:21Z</time>
      </trkpt>
      <trkpt lat="45.11071" lon="5.59718">
        <ele>1329.8</ele>
        <time>2021-08-31T10:03:22Z</time>
      </trkpt>
      <trkpt lat="45.11071" lon="5.59718">
        <ele>1329.9</ele>
        <time>2021-08-31T10:03:23Z</time>
      </trkpt>
      <trkpt lat="45.11071" lon="5.59717">
        <ele>1329.9</ele>
        <time>2021-08-31T10:03:25Z</time>
      </trkpt>
      <trkpt lat="45.1107" lon="5.59716">
        <ele>1330</ele>
        <time>2021-08-31T10:03:27Z</time>
      </trkpt>
      <trkpt lat="45.11069" lon="5.59715">
        <ele>1330.1</ele>
        <time>2021-08-31T10:03:28Z</time>
      </trkpt>
      <trkpt lat="45.11061" lon="5.59704">
        <ele>1331</ele>
        <time>2021-08-31T10:03:38Z</time>
      </trkpt>
      <trkpt lat="45.1106" lon="5.59702">
        <ele>1331.1</ele>
        <time>2021-08-31T10:03:39Z</time>
      </trkpt>
      <trkpt lat="45.1106" lon="5.597">
        <ele>1331.2</ele>
        <time>2021-08-31T10:03:40Z</time>
      </trkpt>
      <trkpt lat="45.11059" lon="5.59699">
        <ele>1331.3</ele>
        <time>2021-08-31T10:03:41Z</time>
      </trkpt>
      <trkpt lat="45.11058" lon="5.59698">
        <ele>1331.4</ele>
        <time>2021-08-31T10:03:42Z</time>
      </trkpt>
      <trkpt lat="45.11057" lon="5.59697">
        <ele>1331.4</ele>
        <time>2021-08-31T10:03:43Z</time>
      </trkpt>
      <trkpt lat="45.11056" lon="5.59695">
        <ele>1331.5</ele>
        <time>2021-08-31T10:03:45Z</time>
      </trkpt>
      <trkpt lat="45.11055" lon="5.59694">
        <ele>1331.7</ele>
        <time>2021-08-31T10:03:46Z</time>
      </trkpt>
      <trkpt lat="45.11055" lon="5.59693">
        <ele>1331.7</ele>
        <time>2021-08-31T10:03:47Z</time>
      </trkpt>
      <trkpt lat="45.11054" lon="5.59692">
        <ele>1331.8</ele>
        <time>2021-08-31T10:03:48Z</time>
      </trkpt>
      <trkpt lat="45.11053" lon="5.59691">
        <ele>1331.9</ele>
        <time>2021-08-31T10:03:49Z</time>
      </trkpt>
      <trkpt lat="45.11051" lon="5.59688">
        <ele>1332.1</ele>
        <time>2021-08-31T10:03:51Z</time>
      </trkpt>
      <trkpt lat="45.11008" lon="5.59662">
        <ele>1335.7</ele>
        <time>2021-08-31T10:04:34Z</time>
      </trkpt>
      <trkpt lat="45.11006" lon="5.59662">
        <ele>1335.9</ele>
        <time>2021-08-31T10:04:36Z</time>
      </trkpt>
      <trkpt lat="45.11005" lon="5.59661">
        <ele>1336</ele>
        <time>2021-08-31T10:04:37Z</time>
      </trkpt>
      <trkpt lat="45.11005" lon="5.59661">
        <ele>1336.1</ele>
        <time>2021-08-31T10:04:39Z</time>
      </trkpt>
      <trkpt lat="45.11003" lon="5.59662">
        <ele>1336.2</ele>
        <time>2021-08-31T10:04:40Z</time>
      </trkpt>
      <trkpt lat="45.11001" lon="5.59664">
        <ele>1336.5</ele>
        <time>2021-08-31T10:04:42Z</time>
      </trkpt>
      <trkpt lat="45.11001" lon="5.59665">
        <ele>1336.5</ele>
        <time>2021-08-31T10:04:43Z</time>
      </trkpt>
      <trkpt lat="45.11001" lon="5.59666">
        <ele>1336.6</ele>
        <time>2021-08-31T10:04:44Z</time>
      </trkpt>
      <trkpt lat="45.11" lon="5.59666">
        <ele>1336.7</ele>
        <time>2021-08-31T10:04:45Z</time>
      </trkpt>
      <trkpt lat="45.11" lon="5.59667">
        <ele>1336.7</ele>
        <time>2021-08-31T10:04:46Z</time>
      </trkpt>
      <trkpt lat="45.11" lon="5.59668">
        <ele>1336.8</ele>
        <time>2021-08-31T10:04:48Z</time>
      </trkpt>
      <trkpt lat="45.10999" lon="5.5967">
        <ele>1336.9</ele>
        <time>2021-08-31T10:04:50Z</time>
      </trkpt>
      <trkpt lat="45.10999" lon="5.5967">
        <ele>1336.9</ele>
        <time>2021-08-31T10:04:51Z</time>
      </trkpt>
      <trkpt lat="45.10999" lon="5.59671">
        <ele>1337</ele>
        <time>2021-08-31T10:04:52Z</time>
      </trkpt>
      <trkpt lat="45.10998" lon="5.59671">
        <ele>1337</ele>
        <time>2021-08-31T10:04:54Z</time>
      </trkpt>
      <trkpt lat="45.10831" lon="5.59656">
        <ele>1350.1</ele>
        <time>2021-08-31T10:07:15Z</time>
      </trkpt>
      <trkpt lat="45.1083" lon="5.59656">
        <ele>1350.2</ele>
        <time>2021-08-31T10:07:17Z</time>
      </trkpt>
      <trkpt lat="45.1083" lon="5.59658">
        <ele>1350.3</ele>
        <time>2021-08-31T10:07:18Z</time>
      </trkpt>
      <trkpt lat="45.1083" lon="5.59659">
        <ele>1350.4</ele>
        <time>2021-08-31T10:07:19Z</time>
      </trkpt>
      <trkpt lat="45.10829" lon="5.59661">
        <ele>1350.5</ele>
        <time>2021-08-31T10:07:21Z</time>
      </trkpt>
      <trkpt lat="45.10829" lon="5.59663">
        <ele>1350.7</ele>
        <time>2021-08-31T10:07:23Z</time>
      </trkpt>
      <trkpt lat="45.10828" lon="5.59665">
        <ele>1350.8</ele>
        <time>2021-08-31T10:07:24Z</time>
      </trkpt>
      <trkpt lat="45.10828" lon="5.59666">
        <ele>1350.8</ele>
        <time>2021-08-31T10:07:26Z</time>
      </trkpt>
      <trkpt lat="45.10828" lon="5.59666">
        <ele>1350.9</ele>
        <time>2021-08-31T10:07:27Z</time>
      </trkpt>
      <trkpt lat="45.10827" lon="5.59667">
        <ele>1351</ele>
        <time>2021-08-31T10:07:28Z</time>
      </trkpt>
      <trkpt lat="45.10826" lon="5.59668">
        <ele>1351.1</ele>
        <time>2021-08-31T10:07:30Z</time>
      </trkpt>
      <trkpt lat="45.10826" lon="5.59669">
        <ele>1351.2</ele>
        <time>2021-08-31T10:07:32Z</time>
      </trkpt>
      <trkpt lat="45.10824" lon="5.5967">
        <ele>1351.3</ele>
        <time>2021-08-31T10:07:34Z</time>
      </trkpt>
      <trkpt lat="45.10781" lon="5.59665">
        <ele>1354.8</ele>
        <time>2021-08-31T10:07:57Z</time>
      </trkpt>
      <trkpt lat="45.10777" lon="5.59663">
        <ele>1355.1</ele>
        <time>2021-08-31T10:07:59Z</time>
      </trkpt>
      <trkpt lat="45.10776" lon="5.59662">
        <ele>1355.2</ele>
        <time>2021-08-31T10:08:00Z</time>
      </trkpt>
      <trkpt lat="45.10774" lon="5.59659">
        <ele>1355.4</ele>
        <time>2021-08-31T10:08:02Z</time>
      </trkpt>
      <trkpt lat="45.1077" lon="5.59653">
        <ele>1355.8</ele>
        <time>2021-08-31T10:08:04Z</time>
      </trkpt>
      <trkpt lat="45.10769" lon="5.59652">
        <ele>1355.9</ele>
        <time>2021-08-31T10:08:05Z</time>
      </trkpt>
      <trkpt lat="45.10767" lon="5.59652">
        <ele>1356</ele>
        <time>2021-08-31T10:08:07Z</time>
      </trkpt>
      <trkpt lat="45.10766" lon="5.59651">
        <ele>1356.1</ele>
        <time>2021-08-31T10:08:08Z</time>
      </trkpt>
      <trkpt lat="45.10765" lon="5.59651">
        <ele>1356.2</ele>
        <time>2021-08-31T10:08:09Z</time>
      </trkpt>
      <trkpt lat="45.10763" lon="5.59651">
        <ele>1356.3</ele>
        <time>2021-08-31T10:08:11Z</time>
      </trkpt>
      <trkpt lat="45.10746" lon="5.59648">
        <ele>1357.4</ele>
        <time>2021-08-31T10:08:13Z</time>
      </trkpt>
      <trkpt lat="45.10731" lon="5.59645">
        <ele>1358.5</ele>
        <time>2021-08-31T10:08:58Z</time>
      </trkpt>
      <trkpt lat="45.10716" lon="5.59642">
        <ele>1359.7</ele>
        <time>2021-08-31T10:08:59Z</time>
      </trkpt>
      <trkpt lat="45.107" lon="5.59639">
        <ele>1360.9</ele>
        <time>2021-08-31T10:09:00Z</time>
      </trkpt>
      <trkpt lat="45.10698" lon="5.59639">
        <ele>1361.1</ele>
        <time>2021-08-31T10:09:01Z</time>
      </trkpt>
      <trkpt lat="45.10696" lon="5.59639">
        <ele>1361.3</ele>
        <time>2021-08-31T10:09:02Z</time>
      </trkpt>
      <trkpt lat="45.10694" lon="5.59639">
        <ele>1361.4</ele>
        <time>2021-08-31T10:09:03Z</time>
      </trkpt>
      <trkpt lat="45.10693" lon="5.59639">
        <ele>1361.5</ele>
        <time>2021-08-31T10:09:05Z</time>
      </trkpt>
      <trkpt lat="45.10692" lon="5.59639">
        <ele>1361.6</ele>
        <time>2021-08-31T10:09:06Z</time>
      </trkpt>
      <trkpt lat="45.10691" lon="5.59639">
        <ele>1361.7</ele>
        <time>2021-08-31T10:09:08Z</time>
      </trkpt>
      <trkpt lat="45.1069" lon="5.59639">
        <ele>1361.7</ele>
        <time>2021-08-31T10:09:09Z</time>
      </trkpt>
      <trkpt lat="45.10669" lon="5.59656">
        <ele>1363.7</ele>
        <time>2021-08-31T10:09:34Z</time>
      </trkpt>
      <trkpt lat="45.10667" lon="5.59658">
        <ele>1363.9</ele>
        <time>2021-08-31T10:09:36Z</time>
      </trkpt>
      <trkpt lat="45.10666" lon="5.59658">
        <ele>1364</ele>
        <time>2021-08-31T10:09:37Z</time>
      </trkpt>
      <trkpt lat="45.10665" lon="5.59658">
        <ele>1364.1</ele>
        <time>2021-08-31T10:09:38Z</time>
      </trkpt>
      <trkpt lat="45.10664" lon="5.59658">
        <ele>1364.2</ele>
        <time>2021-08-31T10:09:39Z</time>
      </trkpt>
      <trkpt lat="45.10661" lon="5.59658">
        <ele>1364.4</ele>
        <time>2021-08-31T10:09:41Z</time>
      </trkpt>
      <trkpt lat="45.1066" lon="5.59658">
        <ele>1364.4</ele>
        <time>2021-08-31T10:09:42Z</time>
      </trkpt>
      <trkpt lat="45.10659" lon="5.59658">
        <ele>1364.5</ele>
        <time>2021-08-31T10:09:43Z</time>
      </trkpt>
      <trkpt lat="45.10657" lon="5.59657">
        <ele>1364.7</ele>
        <time>2021-08-31T10:09:45Z</time>
      </trkpt>
      <trkpt lat="45.10656" lon="5.59656">
        <ele>1364.8</ele>
        <time>2021-08-31T10:09:46Z</time>
      </trkpt>
      <trkpt lat="45.10655" lon="5.59656">
        <ele>1364.9</ele>
        <time>2021-08-31T10:09:47Z</time>
      </trkpt>
      <trkpt lat="45.10653" lon="5.59656">
        <ele>1365.1</ele>
        <time>2021-08-31T10:09:49Z</time>
      </trkpt>
      <trkpt lat="45.1065" lon="5.59655">
        <ele>1365.3</ele>
        <time>2021-08-31T10:09:50Z</time>
      </trkpt>
      <trkpt lat="45.10648" lon="5.59654">
        <ele>1365.4</ele>
        <time>2021-08-31T10:09:51Z</time>
      </trkpt>
      <trkpt lat="45.10646" lon="5.59653">
        <ele>1365.6</ele>
        <time>2021-08-31T10:09:52Z</time>
      </trkpt>
      <trkpt lat="45.10645" lon="5.59652">
        <ele>1365.7</ele>
        <time>2021-08-31T10:09:54Z</time>
      </trkpt>
      <trkpt lat="45.10643" lon="5.59651">
        <ele>1365.9</ele>
        <time>2021-08-31T10:09:55Z</time>
      </trkpt>
      <trkpt lat="45.10642" lon="5.5965">
        <ele>1366</ele>
        <time>2021-08-31T10:09:56Z</time>
      </trkpt>
      <trkpt lat="45.10639" lon="5.59649">
        <ele>1366.2</ele>
        <time>2021-08-31T10:09:57Z</time>
      </trkpt>
      <trkpt lat="45.10636" lon="5.59649">
        <ele>1366.4</ele>
        <time>2021-08-31T10:09:59Z</time>
      </trkpt>
      <trkpt lat="45.10635" lon="5.59649">
        <ele>1366.5</ele>
        <time>2021-08-31T10:10:00Z</time>
      </trkpt>
      <trkpt lat="45.10633" lon="5.5965">
        <ele>1366.6</ele>
        <time>2021-08-31T10:10:01Z</time>
      </trkpt>
      <trkpt lat="45.10632" lon="5.5965">
        <ele>1366.8</ele>
        <time>2021-08-31T10:10:03Z</time>
      </trkpt>
      <trkpt lat="45.1063" lon="5.59651">
        <ele>1366.9</ele>
        <time>2021-08-31T10:10:05Z</time>
      </trkpt>
      <trkpt lat="45.10627" lon="5.59652">
        <ele>1367.2</ele>
        <time>2021-08-31T10:10:06Z</time>
      </trkpt>
      <trkpt lat="45.10625" lon="5.59652">
        <ele>1367.3</ele>
        <time>2021-08-31T10:10:07Z</time>
      </trkpt>
      <trkpt lat="45.10623" lon="5.59653">
        <ele>1367.5</ele>
        <time>2021-08-31T10:10:09Z</time>
      </trkpt>
      <trkpt lat="45.10621" lon="5.59653">
        <ele>1367.6</ele>
        <time>2021-08-31T10:10:10Z</time>
      </trkpt>
      <trkpt lat="45.1062" lon="5.59652">
        <ele>1367.7</ele>
        <time>2021-08-31T10:10:11Z</time>
      </trkpt>
      <trkpt lat="45.10617" lon="5.59651">
        <ele>1367.9</ele>
        <time>2021-08-31T10:10:13Z</time>
      </trkpt>
      <trkpt lat="45.10615" lon="5.5965">
        <ele>1368</ele>
        <time>2021-08-31T10:10:14Z</time>
      </trkpt>
      <trkpt lat="45.10614" lon="5.59649">
        <ele>1368.2</ele>
        <time>2021-08-31T10:10:15Z</time>
      </trkpt>
      <trkpt lat="45.1061" lon="5.59647">
        <ele>1368.5</ele>
        <time>2021-08-31T10:10:17Z</time>
      </trkpt>
      <trkpt lat="45.10606" lon="5.59645">
        <ele>1368.8</ele>
        <time>2021-08-31T10:10:19Z</time>
      </trkpt>
      <trkpt lat="45.10601" lon="5.59642">
        <ele>1369.2</ele>
        <time>2021-08-31T10:10:20Z</time>
      </trkpt>
      <trkpt lat="45.10597" lon="5.59641">
        <ele>1369.4</ele>
        <time>2021-08-31T10:10:21Z</time>
      </trkpt>
      <trkpt lat="45.10596" lon="5.5964">
        <ele>1369.5</ele>
        <time>2021-08-31T10:10:22Z</time>
      </trkpt>
      <trkpt lat="45.10594" lon="5.5964">
        <ele>1369.7</ele>
        <time>2021-08-31T10:10:24Z</time>
      </trkpt>
      <trkpt lat="45.10593" lon="5.5964">
        <ele>1369.8</ele>
        <time>2021-08-31T10:10:25Z</time>
      </trkpt>
      <trkpt lat="45.10591" lon="5.59641">
        <ele>1369.9</ele>
        <time>2021-08-31T10:10:26Z</time>
      </trkpt>
      <trkpt lat="45.10588" lon="5.59643">
        <ele>1370.2</ele>
        <time>2021-08-31T10:10:28Z</time>
      </trkpt>
      <trkpt lat="45.10585" lon="5.59646">
        <ele>1370.4</ele>
        <time>2021-08-31T10:10:30Z</time>
      </trkpt>
      <trkpt lat="45.10585" lon="5.59647">
        <ele>1370.5</ele>
        <time>2021-08-31T10:10:31Z</time>
      </trkpt>
      <trkpt lat="45.10583" lon="5.59649">
        <ele>1370.6</ele>
        <time>2021-08-31T10:10:32Z</time>
      </trkpt>
      <trkpt lat="45.10582" lon="5.5965">
        <ele>1370.7</ele>
        <time>2021-08-31T10:10:34Z</time>
      </trkpt>
      <trkpt lat="45.1058" lon="5.59653">
        <ele>1370.9</ele>
        <time>2021-08-31T10:10:35Z</time>
      </trkpt>
      <trkpt lat="45.10579" lon="5.59655">
        <ele>1371</ele>
        <time>2021-08-31T10:10:36Z</time>
      </trkpt>
      <trkpt lat="45.10578" lon="5.59657">
        <ele>1371.2</ele>
        <time>2021-08-31T10:10:37Z</time>
      </trkpt>
      <trkpt lat="45.10579" lon="5.59659">
        <ele>1371.3</ele>
        <time>2021-08-31T10:10:38Z</time>
      </trkpt>
      <trkpt lat="45.10579" lon="5.59661">
        <ele>1371.4</ele>
        <time>2021-08-31T10:10:39Z</time>
      </trkpt>
      <trkpt lat="45.1058" lon="5.59663">
        <ele>1371.5</ele>
        <time>2021-08-31T10:10:40Z</time>
      </trkpt>
      <trkpt lat="45.10581" lon="5.59664">
        <ele>1371.6</ele>
        <time>2021-08-31T10:10:42Z</time>
      </trkpt>
      <trkpt lat="45.10581" lon="5.59665">
        <ele>1371.7</ele>
        <time>2021-08-31T10:10:43Z</time>
      </trkpt>
      <trkpt lat="45.10582" lon="5.59667">
        <ele>1371.8</ele>
        <time>2021-08-31T10:10:45Z</time>
      </trkpt>
      <trkpt lat="45.10583" lon="5.59672">
        <ele>1372</ele>
        <time>2021-08-31T10:10:47Z</time>
      </trkpt>
      <trkpt lat="45.10583" lon="5.59678">
        <ele>1372.3</ele>
        <time>2021-08-31T10:10:49Z</time>
      </trkpt>
      <trkpt lat="45.10583" lon="5.5968">
        <ele>1372.4</ele>
        <time>2021-08-31T10:10:50Z</time>
      </trkpt>
      <trkpt lat="45.10582" lon="5.59682">
        <ele>1372.6</ele>
        <time>2021-08-31T10:10:51Z</time>
      </trkpt>
      <trkpt lat="45.10581" lon="5.59684">
        <ele>1372.7</ele>
        <time>2021-08-31T10:10:52Z</time>
      </trkpt>
      <trkpt lat="45.10579" lon="5.59685">
        <ele>1372.9</ele>
        <time>2021-08-31T10:10:54Z</time>
      </trkpt>
      <trkpt lat="45.10573" lon="5.59686">
        <ele>1373.3</ele>
        <time>2021-08-31T10:10:55Z</time>
      </trkpt>
      <trkpt lat="45.1057" lon="5.59686">
        <ele>1373.6</ele>
        <time>2021-08-31T10:10:56Z</time>
      </trkpt>
      <trkpt lat="45.10567" lon="5.59687">
        <ele>1373.8</ele>
        <time>2021-08-31T10:10:57Z</time>
      </trkpt>
      <trkpt lat="45.10563" lon="5.59687">
        <ele>1374.1</ele>
        <time>2021-08-31T10:10:59Z</time>
      </trkpt>
      <trkpt lat="45.1056" lon="5.59688">
        <ele>1374.4</ele>
        <time>2021-08-31T10:11:00Z</time>
      </trkpt>
      <trkpt lat="45.10559" lon="5.59688">
        <ele>1374.5</ele>
        <time>2021-08-31T10:11:01Z</time>
      </trkpt>
      <trkpt lat="45.10556" lon="5.59687">
        <ele>1374.8</ele>
        <time>2021-08-31T10:11:02Z</time>
      </trkpt>
      <trkpt lat="45.10552" lon="5.59685">
        <ele>1375.1</ele>
        <time>2021-08-31T10:11:04Z</time>
      </trkpt>
      <trkpt lat="45.1055" lon="5.59683">
        <ele>1375.3</ele>
        <time>2021-08-31T10:11:05Z</time>
      </trkpt>
      <trkpt lat="45.10547" lon="5.5968">
        <ele>1375.6</ele>
        <time>2021-08-31T10:11:06Z</time>
      </trkpt>
      <trkpt lat="45.10544" lon="5.59676">
        <ele>1375.9</ele>
        <time>2021-08-31T10:11:07Z</time>
      </trkpt>
      <trkpt lat="45.10543" lon="5.59675">
        <ele>1376</ele>
        <time>2021-08-31T10:11:08Z</time>
      </trkpt>
      <trkpt lat="45.10541" lon="5.59672">
        <ele>1376.2</ele>
        <time>2021-08-31T10:11:09Z</time>
      </trkpt>
      <trkpt lat="45.1054" lon="5.59671">
        <ele>1376.3</ele>
        <time>2021-08-31T10:11:10Z</time>
      </trkpt>
      <trkpt lat="45.10536" lon="5.59669">
        <ele>1376.7</ele>
        <time>2021-08-31T10:11:12Z</time>
      </trkpt>
      <trkpt lat="45.10535" lon="5.59669">
        <ele>1376.8</ele>
        <time>2021-08-31T10:11:13Z</time>
      </trkpt>
      <trkpt lat="45.10533" lon="5.59669">
        <ele>1376.9</ele>
        <time>2021-08-31T10:11:14Z</time>
      </trkpt>
      <trkpt lat="45.10531" lon="5.5967">
        <ele>1377.1</ele>
        <time>2021-08-31T10:11:16Z</time>
      </trkpt>
      <trkpt lat="45.10529" lon="5.59671">
        <ele>1377.2</ele>
        <time>2021-08-31T10:11:17Z</time>
      </trkpt>
      <trkpt lat="45.10528" lon="5.59673">
        <ele>1377.3</ele>
        <time>2021-08-31T10:11:19Z</time>
      </trkpt>
      <trkpt lat="45.10527" lon="5.59674">
        <ele>1377.5</ele>
        <time>2021-08-31T10:11:20Z</time>
      </trkpt>
      <trkpt lat="45.10526" lon="5.59676">
        <ele>1377.6</ele>
        <time>2021-08-31T10:11:22Z</time>
      </trkpt>
      <trkpt lat="45.10526" lon="5.59677">
        <ele>1377.7</ele>
        <time>2021-08-31T10:11:23Z</time>
      </trkpt>
      <trkpt lat="45.10526" lon="5.59678">
        <ele>1377.7</ele>
        <time>2021-08-31T10:11:24Z</time>
      </trkpt>
      <trkpt lat="45.10526" lon="5.59679">
        <ele>1377.8</ele>
        <time>2021-08-31T10:11:26Z</time>
      </trkpt>
      <trkpt lat="45.10525" lon="5.5968">
        <ele>1377.9</ele>
        <time>2021-08-31T10:11:27Z</time>
      </trkpt>
      <trkpt lat="45.10525" lon="5.5968">
        <ele>1377.9</ele>
        <time>2021-08-31T10:11:29Z</time>
      </trkpt>
      <trkpt lat="45.10524" lon="5.59681">
        <ele>1377.9</ele>
        <time>2021-08-31T10:11:30Z</time>
      </trkpt>
      <trkpt lat="45.10524" lon="5.59681">
        <ele>1378</ele>
        <time>2021-08-31T10:11:31Z</time>
      </trkpt>
      <trkpt lat="45.10523" lon="5.59681">
        <ele>1378.1</ele>
        <time>2021-08-31T10:11:33Z</time>
      </trkpt>
      <trkpt lat="45.10522" lon="5.59682">
        <ele>1378.1</ele>
        <time>2021-08-31T10:11:35Z</time>
      </trkpt>
      <trkpt lat="45.10522" lon="5.59682">
        <ele>1378.1</ele>
        <time>2021-08-31T10:11:36Z</time>
      </trkpt>
      <trkpt lat="45.10521" lon="5.59682">
        <ele>1378.2</ele>
        <time>2021-08-31T10:11:38Z</time>
      </trkpt>
      <trkpt lat="45.10521" lon="5.59683">
        <ele>1378.3</ele>
        <time>2021-08-31T10:11:39Z</time>
      </trkpt>
      <trkpt lat="45.10518" lon="5.59682">
        <ele>1378.5</ele>
        <time>2021-08-31T10:11:41Z</time>
      </trkpt>
      <trkpt lat="45.10517" lon="5.59682">
        <ele>1378.6</ele>
        <time>2021-08-31T10:11:42Z</time>
      </trkpt>
      <trkpt lat="45.10516" lon="5.59682">
        <ele>1378.7</ele>
        <time>2021-08-31T10:11:44Z</time>
      </trkpt>
      <trkpt lat="45.10515" lon="5.59681">
        <ele>1378.8</ele>
        <time>2021-08-31T10:11:45Z</time>
      </trkpt>
      <trkpt lat="45.10514" lon="5.5968">
        <ele>1378.9</ele>
        <time>2021-08-31T10:11:47Z</time>
      </trkpt>
      <trkpt lat="45.10512" lon="5.59679">
        <ele>1379</ele>
        <time>2021-08-31T10:11:48Z</time>
      </trkpt>
      <trkpt lat="45.10512" lon="5.59678">
        <ele>1379.1</ele>
        <time>2021-08-31T10:11:50Z</time>
      </trkpt>
      <trkpt lat="45.10511" lon="5.59677">
        <ele>1379.2</ele>
        <time>2021-08-31T10:11:51Z</time>
      </trkpt>
      <trkpt lat="45.1051" lon="5.59676">
        <ele>1379.3</ele>
        <time>2021-08-31T10:11:53Z</time>
      </trkpt>
      <trkpt lat="45.10509" lon="5.59675">
        <ele>1379.4</ele>
        <time>2021-08-31T10:11:54Z</time>
      </trkpt>
      <trkpt lat="45.10508" lon="5.59674">
        <ele>1379.5</ele>
        <time>2021-08-31T10:11:56Z</time>
      </trkpt>
      <trkpt lat="45.10508" lon="5.59673">
        <ele>1379.5</ele>
        <time>2021-08-31T10:11:57Z</time>
      </trkpt>
      <trkpt lat="45.10508" lon="5.59672">
        <ele>1379.6</ele>
        <time>2021-08-31T10:11:59Z</time>
      </trkpt>
      <trkpt lat="45.10507" lon="5.5967">
        <ele>1379.7</ele>
        <time>2021-08-31T10:12:01Z</time>
      </trkpt>
      <trkpt lat="45.10506" lon="5.59668">
        <ele>1379.9</ele>
        <time>2021-08-31T10:12:02Z</time>
      </trkpt>
      <trkpt lat="45.10505" lon="5.59667">
        <ele>1380</ele>
        <time>2021-08-31T10:12:04Z</time>
      </trkpt>
      <trkpt lat="45.10504" lon="5.59666">
        <ele>1380</ele>
        <time>2021-08-31T10:12:05Z</time>
      </trkpt>
      <trkpt lat="45.10504" lon="5.59664">
        <ele>1380.2</ele>
        <time>2021-08-31T10:12:06Z</time>
      </trkpt>
      <trkpt lat="45.10503" lon="5.59664">
        <ele>1380.2</ele>
        <time>2021-08-31T10:12:08Z</time>
      </trkpt>
      <trkpt lat="45.10502" lon="5.59663">
        <ele>1380.3</ele>
        <time>2021-08-31T10:12:09Z</time>
      </trkpt>
      <trkpt lat="45.10501" lon="5.59661">
        <ele>1380.4</ele>
        <time>2021-08-31T10:12:11Z</time>
      </trkpt>
      <trkpt lat="45.105" lon="5.59661">
        <ele>1380.5</ele>
        <time>2021-08-31T10:12:12Z</time>
      </trkpt>
      <trkpt lat="45.10499" lon="5.5966">
        <ele>1380.7</ele>
        <time>2021-08-31T10:12:13Z</time>
      </trkpt>
      <trkpt lat="45.10497" lon="5.5966">
        <ele>1380.8</ele>
        <time>2021-08-31T10:12:14Z</time>
      </trkpt>
      <trkpt lat="45.10486" lon="5.59658">
        <ele>1381.8</ele>
        <time>2021-08-31T10:12:22Z</time>
      </trkpt>
      <trkpt lat="45.10485" lon="5.59658">
        <ele>1381.9</ele>
        <time>2021-08-31T10:12:24Z</time>
      </trkpt>
      <trkpt lat="45.10484" lon="5.59659">
        <ele>1382</ele>
        <time>2021-08-31T10:12:25Z</time>
      </trkpt>
      <trkpt lat="45.10483" lon="5.5966">
        <ele>1382.2</ele>
        <time>2021-08-31T10:12:27Z</time>
      </trkpt>
      <trkpt lat="45.10482" lon="5.59661">
        <ele>1382.3</ele>
        <time>2021-08-31T10:12:28Z</time>
      </trkpt>
      <trkpt lat="45.10481" lon="5.59662">
        <ele>1382.4</ele>
        <time>2021-08-31T10:12:30Z</time>
      </trkpt>
      <trkpt lat="45.1048" lon="5.59662">
        <ele>1382.4</ele>
        <time>2021-08-31T10:12:31Z</time>
      </trkpt>
      <trkpt lat="45.10479" lon="5.59662">
        <ele>1382.5</ele>
        <time>2021-08-31T10:12:33Z</time>
      </trkpt>
      <trkpt lat="45.10479" lon="5.59662">
        <ele>1382.6</ele>
        <time>2021-08-31T10:12:34Z</time>
      </trkpt>
      <trkpt lat="45.10478" lon="5.59662">
        <ele>1382.7</ele>
        <time>2021-08-31T10:12:36Z</time>
      </trkpt>
      <trkpt lat="45.10477" lon="5.59661">
        <ele>1382.8</ele>
        <time>2021-08-31T10:12:37Z</time>
      </trkpt>
      <trkpt lat="45.10475" lon="5.59661">
        <ele>1383</ele>
        <time>2021-08-31T10:12:39Z</time>
      </trkpt>
      <trkpt lat="45.10474" lon="5.59661">
        <ele>1383.1</ele>
        <time>2021-08-31T10:12:40Z</time>
      </trkpt>
      <trkpt lat="45.10473" lon="5.59661">
        <ele>1383.2</ele>
        <time>2021-08-31T10:12:41Z</time>
      </trkpt>
      <trkpt lat="45.10471" lon="5.5966">
        <ele>1383.3</ele>
        <time>2021-08-31T10:12:43Z</time>
      </trkpt>
      <trkpt lat="45.1047" lon="5.59661">
        <ele>1383.4</ele>
        <time>2021-08-31T10:12:44Z</time>
      </trkpt>
      <trkpt lat="45.10469" lon="5.59661">
        <ele>1383.5</ele>
        <time>2021-08-31T10:12:45Z</time>
      </trkpt>
      <trkpt lat="45.10467" lon="5.59662">
        <ele>1383.8</ele>
        <time>2021-08-31T10:12:47Z</time>
      </trkpt>
      <trkpt lat="45.10466" lon="5.59662">
        <ele>1383.9</ele>
        <time>2021-08-31T10:12:49Z</time>
      </trkpt>
      <trkpt lat="45.10465" lon="5.59663">
        <ele>1384</ele>
        <time>2021-08-31T10:12:50Z</time>
      </trkpt>
      <trkpt lat="45.10464" lon="5.59663">
        <ele>1384.1</ele>
        <time>2021-08-31T10:12:51Z</time>
      </trkpt>
      <trkpt lat="45.10463" lon="5.59664">
        <ele>1384.2</ele>
        <time>2021-08-31T10:12:52Z</time>
      </trkpt>
      <trkpt lat="45.10462" lon="5.59664">
        <ele>1384.3</ele>
        <time>2021-08-31T10:12:54Z</time>
      </trkpt>
      <trkpt lat="45.10461" lon="5.59664">
        <ele>1384.4</ele>
        <time>2021-08-31T10:12:55Z</time>
      </trkpt>
      <trkpt lat="45.10459" lon="5.59664">
        <ele>1384.6</ele>
        <time>2021-08-31T10:12:57Z</time>
      </trkpt>
      <trkpt lat="45.10458" lon="5.59663">
        <ele>1384.7</ele>
        <time>2021-08-31T10:12:58Z</time>
      </trkpt>
      <trkpt lat="45.10457" lon="5.59663">
        <ele>1384.8</ele>
        <time>2021-08-31T10:12:59Z</time>
      </trkpt>
      <trkpt lat="45.10456" lon="5.59662">
        <ele>1384.9</ele>
        <time>2021-08-31T10:13:00Z</time>
      </trkpt>
      <trkpt lat="45.10454" lon="5.59661">
        <ele>1385.2</ele>
        <time>2021-08-31T10:13:02Z</time>
      </trkpt>
      <trkpt lat="45.10453" lon="5.5966">
        <ele>1385.2</ele>
        <time>2021-08-31T10:13:03Z</time>
      </trkpt>
      <trkpt lat="45.10453" lon="5.5966">
        <ele>1385.3</ele>
        <time>2021-08-31T10:13:04Z</time>
      </trkpt>
      <trkpt lat="45.10451" lon="5.5966">
        <ele>1385.4</ele>
        <time>2021-08-31T10:13:06Z</time>
      </trkpt>
      <trkpt lat="45.10449" lon="5.59661">
        <ele>1385.6</ele>
        <time>2021-08-31T10:13:08Z</time>
      </trkpt>
      <trkpt lat="45.10449" lon="5.59661">
        <ele>1385.7</ele>
        <time>2021-08-31T10:13:09Z</time>
      </trkpt>
      <trkpt lat="45.10447" lon="5.59661">
        <ele>1385.8</ele>
        <time>2021-08-31T10:13:11Z</time>
      </trkpt>
      <trkpt lat="45.10446" lon="5.59661">
        <ele>1385.9</ele>
        <time>2021-08-31T10:13:12Z</time>
      </trkpt>
      <trkpt lat="45.10445" lon="5.59662">
        <ele>1386.1</ele>
        <time>2021-08-31T10:13:13Z</time>
      </trkpt>
      <trkpt lat="45.10444" lon="5.59662">
        <ele>1386.2</ele>
        <time>2021-08-31T10:13:15Z</time>
      </trkpt>
      <trkpt lat="45.10443" lon="5.59661">
        <ele>1386.3</ele>
        <time>2021-08-31T10:13:16Z</time>
      </trkpt>
      <trkpt lat="45.10442" lon="5.5966">
        <ele>1386.4</ele>
        <time>2021-08-31T10:13:17Z</time>
      </trkpt>
      <trkpt lat="45.10441" lon="5.59659">
        <ele>1386.6</ele>
        <time>2021-08-31T10:13:18Z</time>
      </trkpt>
      <trkpt lat="45.1044" lon="5.59658">
        <ele>1386.7</ele>
        <time>2021-08-31T10:13:19Z</time>
      </trkpt>
      <trkpt lat="45.10438" lon="5.59657">
        <ele>1386.9</ele>
        <time>2021-08-31T10:13:20Z</time>
      </trkpt>
      <trkpt lat="45.10437" lon="5.59657">
        <ele>1387.1</ele>
        <time>2021-08-31T10:13:22Z</time>
      </trkpt>
      <trkpt lat="45.10435" lon="5.59657">
        <ele>1387.3</ele>
        <time>2021-08-31T10:13:24Z</time>
      </trkpt>
      <trkpt lat="45.10433" lon="5.59657">
        <ele>1387.5</ele>
        <time>2021-08-31T10:13:26Z</time>
      </trkpt>
      <trkpt lat="45.1043" lon="5.59656">
        <ele>1387.8</ele>
        <time>2021-08-31T10:13:27Z</time>
      </trkpt>
      <trkpt lat="45.10427" lon="5.59657">
        <ele>1388.1</ele>
        <time>2021-08-31T10:13:29Z</time>
      </trkpt>
      <trkpt lat="45.10424" lon="5.59658">
        <ele>1388.4</ele>
        <time>2021-08-31T10:13:30Z</time>
      </trkpt>
      <trkpt lat="45.10422" lon="5.59659">
        <ele>1388.7</ele>
        <time>2021-08-31T10:13:32Z</time>
      </trkpt>
      <trkpt lat="45.10419" lon="5.5966">
        <ele>1388.9</ele>
        <time>2021-08-31T10:13:33Z</time>
      </trkpt>
      <trkpt lat="45.10416" lon="5.59661">
        <ele>1389.2</ele>
        <time>2021-08-31T10:13:35Z</time>
      </trkpt>
      <trkpt lat="45.10414" lon="5.59662">
        <ele>1389.5</ele>
        <time>2021-08-31T10:13:37Z</time>
      </trkpt>
      <trkpt lat="45.10411" lon="5.59662">
        <ele>1389.8</ele>
        <time>2021-08-31T10:13:39Z</time>
      </trkpt>
      <trkpt lat="45.10408" lon="5.59663">
        <ele>1390.2</ele>
        <time>2021-08-31T10:13:41Z</time>
      </trkpt>
      <trkpt lat="45.10406" lon="5.59664">
        <ele>1390.2</ele>
        <time>2021-08-31T10:14:28Z</time>
      </trkpt>
      <trkpt lat="45.10403" lon="5.59665">
        <ele>1390.3</ele>
        <time>2021-08-31T10:14:29Z</time>
      </trkpt>
      <trkpt lat="45.104" lon="5.59666">
        <ele>1390.3</ele>
        <time>2021-08-31T10:14:31Z</time>
      </trkpt>
      <trkpt lat="45.10398" lon="5.59667">
        <ele>1390.4</ele>
        <time>2021-08-31T10:14:32Z</time>
      </trkpt>
      <trkpt lat="45.10397" lon="5.59666">
        <ele>1390.4</ele>
        <time>2021-08-31T10:14:34Z</time>
      </trkpt>
      <trkpt lat="45.10397" lon="5.59666">
        <ele>1390.4</ele>
        <time>2021-08-31T10:14:35Z</time>
      </trkpt>
      <trkpt lat="45.10397" lon="5.59665">
        <ele>1390.4</ele>
        <time>2021-08-31T10:14:37Z</time>
      </trkpt>
      <trkpt lat="45.10402" lon="5.59658">
        <ele>1390.6</ele>
        <time>2021-08-31T10:14:39Z</time>
      </trkpt>
      <trkpt lat="45.10411" lon="5.59644">
        <ele>1390.8</ele>
        <time>2021-08-31T10:14:41Z</time>
      </trkpt>
      <trkpt lat="45.10405" lon="5.59653">
        <ele>1391</ele>
        <time>2021-08-31T10:14:43Z</time>
      </trkpt>
      <trkpt lat="45.10402" lon="5.59654">
        <ele>1391.1</ele>
        <time>2021-08-31T10:14:45Z</time>
      </trkpt>
      <trkpt lat="45.10402" lon="5.59652">
        <ele>1391.1</ele>
        <time>2021-08-31T10:14:46Z</time>
      </trkpt>
      <trkpt lat="45.10402" lon="5.59645">
        <ele>1391.2</ele>
        <time>2021-08-31T10:14:48Z</time>
      </trkpt>
      <trkpt lat="45.10401" lon="5.59643">
        <ele>1391.2</ele>
        <time>2021-08-31T10:14:49Z</time>
      </trkpt>
      <trkpt lat="45.10399" lon="5.59641">
        <ele>1391.3</ele>
        <time>2021-08-31T10:14:51Z</time>
      </trkpt>
      <trkpt lat="45.10387" lon="5.59689">
        <ele>1414.8</ele>
        <time>2021-08-31T10:15:03Z</time>
      </trkpt>
      <trkpt lat="45.10389" lon="5.59694">
        <ele>1418</ele>
        <time>2021-08-31T10:15:04Z</time>
      </trkpt>
      <trkpt lat="45.10389" lon="5.59695">
        <ele>1418.1</ele>
        <time>2021-08-31T10:15:05Z</time>
      </trkpt>
      <trkpt lat="45.10391" lon="5.59699">
        <ele>1420</ele>
        <time>2021-08-31T10:15:07Z</time>
      </trkpt>
      <trkpt lat="45.10393" lon="5.597">
        <ele>1419.7</ele>
        <time>2021-08-31T10:15:08Z</time>
      </trkpt>
      <trkpt lat="45.10393" lon="5.59701">
        <ele>1419.7</ele>
        <time>2021-08-31T10:15:09Z</time>
      </trkpt>
      <trkpt lat="45.10394" lon="5.59701">
        <ele>1419.7</ele>
        <time>2021-08-31T10:15:10Z</time>
      </trkpt>
      <trkpt lat="45.10394" lon="5.597">
        <ele>1419.7</ele>
        <time>2021-08-31T10:15:11Z</time>
      </trkpt>
      <trkpt lat="45.10394" lon="5.597">
        <ele>1419.4</ele>
        <time>2021-08-31T10:15:13Z</time>
      </trkpt>
      <trkpt lat="45.10395" lon="5.59699">
        <ele>1419.4</ele>
        <time>2021-08-31T10:15:14Z</time>
      </trkpt>
      <trkpt lat="45.10394" lon="5.59699">
        <ele>1419.4</ele>
        <time>2021-08-31T10:15:15Z</time>
      </trkpt>
      <trkpt lat="45.10314" lon="5.59692">
        <ele>1427.9</ele>
        <time>2021-08-31T10:18:14Z</time>
      </trkpt>
      <trkpt lat="45.10315" lon="5.59698">
        <ele>1429.4</ele>
        <time>2021-08-31T10:18:16Z</time>
      </trkpt>
      <trkpt lat="45.10316" lon="5.59699">
        <ele>1430.5</ele>
        <time>2021-08-31T10:18:18Z</time>
      </trkpt>
      <trkpt lat="45.10316" lon="5.59701">
        <ele>1430.6</ele>
        <time>2021-08-31T10:18:19Z</time>
      </trkpt>
      <trkpt lat="45.10317" lon="5.59702">
        <ele>1430.6</ele>
        <time>2021-08-31T10:18:20Z</time>
      </trkpt>
      <trkpt lat="45.10317" lon="5.59703">
        <ele>1432.1</ele>
        <time>2021-08-31T10:18:21Z</time>
      </trkpt>
      <trkpt lat="45.10317" lon="5.59705">
        <ele>1432.1</ele>
        <time>2021-08-31T10:18:23Z</time>
      </trkpt>
      <trkpt lat="45.10318" lon="5.59706">
        <ele>1433.7</ele>
        <time>2021-08-31T10:18:24Z</time>
      </trkpt>
      <trkpt lat="45.10318" lon="5.59707">
        <ele>1433.7</ele>
        <time>2021-08-31T10:18:26Z</time>
      </trkpt>
      <trkpt lat="45.10273" lon="5.59691">
        <ele>1431.3</ele>
        <time>2021-08-31T10:19:21Z</time>
      </trkpt>
      <trkpt lat="45.10271" lon="5.59693">
        <ele>1431.3</ele>
        <time>2021-08-31T10:19:22Z</time>
      </trkpt>
      <trkpt lat="45.1027" lon="5.59694">
        <ele>1432.7</ele>
        <time>2021-08-31T10:19:24Z</time>
      </trkpt>
      <trkpt lat="45.10269" lon="5.59696">
        <ele>1432.9</ele>
        <time>2021-08-31T10:19:25Z</time>
      </trkpt>
      <trkpt lat="45.10267" lon="5.59698">
        <ele>1434.3</ele>
        <time>2021-08-31T10:19:27Z</time>
      </trkpt>
      <trkpt lat="45.1027" lon="5.59702">
        <ele>1435.7</ele>
        <time>2021-08-31T10:19:28Z</time>
      </trkpt>
      <trkpt lat="45.10271" lon="5.59706">
        <ele>1436.9</ele>
        <time>2021-08-31T10:19:30Z</time>
      </trkpt>
      <trkpt lat="45.10275" lon="5.59707">
        <ele>1436.7</ele>
        <time>2021-08-31T10:19:31Z</time>
      </trkpt>
      <trkpt lat="45.10278" lon="5.59704">
        <ele>1435.2</ele>
        <time>2021-08-31T10:19:32Z</time>
      </trkpt>
      <trkpt lat="45.10279" lon="5.59702">
        <ele>1433.6</ele>
        <time>2021-08-31T10:19:34Z</time>
      </trkpt>
      <trkpt lat="45.10281" lon="5.59695">
        <ele>1432.3</ele>
        <time>2021-08-31T10:19:36Z</time>
      </trkpt>
      <trkpt lat="45.10282" lon="5.59697">
        <ele>1432.1</ele>
        <time>2021-08-31T10:19:37Z</time>
      </trkpt>
      <trkpt lat="45.10284" lon="5.59698">
        <ele>1433.5</ele>
        <time>2021-08-31T10:19:39Z</time>
      </trkpt>
      <trkpt lat="45.10285" lon="5.59697">
        <ele>1432.2</ele>
        <time>2021-08-31T10:19:40Z</time>
      </trkpt>
      <trkpt lat="45.10284" lon="5.59695">
        <ele>1432.2</ele>
        <time>2021-08-31T10:19:42Z</time>
      </trkpt>
      <trkpt lat="45.10284" lon="5.59694">
        <ele>1432.3</ele>
        <time>2021-08-31T10:19:44Z</time>
      </trkpt>
      <trkpt lat="45.10284" lon="5.59692">
        <ele>1430.9</ele>
        <time>2021-08-31T10:19:45Z</time>
      </trkpt>
      <trkpt lat="45.10283" lon="5.59691">
        <ele>1431</ele>
        <time>2021-08-31T10:19:47Z</time>
      </trkpt>
      <trkpt lat="45.10283" lon="5.5969">
        <ele>1431</ele>
        <time>2021-08-31T10:19:48Z</time>
      </trkpt>
      <trkpt lat="45.10282" lon="5.59688">
        <ele>1429.7</ele>
        <time>2021-08-31T10:19:50Z</time>
      </trkpt>
      <trkpt lat="45.10282" lon="5.59687">
        <ele>1429.9</ele>
        <time>2021-08-31T10:19:51Z</time>
      </trkpt>
      <trkpt lat="45.10281" lon="5.59685">
        <ele>1429.9</ele>
        <time>2021-08-31T10:19:52Z</time>
      </trkpt>
      <trkpt lat="45.10281" lon="5.5968">
        <ele>1427.3</ele>
        <time>2021-08-31T10:19:54Z</time>
      </trkpt>
      <trkpt lat="45.10279" lon="5.59672">
        <ele>1425.9</ele>
        <time>2021-08-31T10:19:56Z</time>
      </trkpt>
      <trkpt lat="45.10279" lon="5.59671">
        <ele>1424.4</ele>
        <time>2021-08-31T10:19:57Z</time>
      </trkpt>
      <trkpt lat="45.10279" lon="5.59671">
        <ele>1424.4</ele>
        <time>2021-08-31T10:19:58Z</time>
      </trkpt>
      <trkpt lat="45.10279" lon="5.59671">
        <ele>1424.6</ele>
        <time>2021-08-31T10:20:00Z</time>
      </trkpt>
      <trkpt lat="45.10279" lon="5.59671">
        <ele>1424.7</ele>
        <time>2021-08-31T10:20:01Z</time>
      </trkpt>
      <trkpt lat="45.10279" lon="5.59671">
        <ele>1424.7</ele>
        <time>2021-08-31T10:20:03Z</time>
      </trkpt>
      <trkpt lat="45.10279" lon="5.59671">
        <ele>1424.7</ele>
        <time>2021-08-31T10:20:04Z</time>
      </trkpt>
      <trkpt lat="45.10299" lon="5.59707">
        <ele>1436.1</ele>
        <time>2021-08-31T10:21:09Z</time>
      </trkpt>
      <trkpt lat="45.10295" lon="5.59707">
        <ele>1436.3</ele>
        <time>2021-08-31T10:21:10Z</time>
      </trkpt>
      <trkpt lat="45.10291" lon="5.59707">
        <ele>1436.5</ele>
        <time>2021-08-31T10:21:12Z</time>
      </trkpt>
      <trkpt lat="45.10289" lon="5.59706">
        <ele>1435.3</ele>
        <time>2021-08-31T10:21:13Z</time>
      </trkpt>
      <trkpt lat="45.10286" lon="5.59707">
        <ele>1436.9</ele>
        <time>2021-08-31T10:21:15Z</time>
      </trkpt>
      <trkpt lat="45.10285" lon="5.59707">
        <ele>1436.9</ele>
        <time>2021-08-31T10:21:16Z</time>
      </trkpt>
      <trkpt lat="45.10284" lon="5.59708">
        <ele>1437.1</ele>
        <time>2021-08-31T10:21:18Z</time>
      </trkpt>
      <trkpt lat="45.10283" lon="5.59708">
        <ele>1437.1</ele>
        <time>2021-08-31T10:21:19Z</time>
      </trkpt>
      <trkpt lat="45.10283" lon="5.59709">
        <ele>1437.1</ele>
        <time>2021-08-31T10:21:20Z</time>
      </trkpt>
      <trkpt lat="45.10282" lon="5.59709">
        <ele>1437.2</ele>
        <time>2021-08-31T10:21:21Z</time>
      </trkpt>
      <trkpt lat="45.10282" lon="5.59709">
        <ele>1437.2</ele>
        <time>2021-08-31T10:21:22Z</time>
      </trkpt>
      <trkpt lat="45.10282" lon="5.59709">
        <ele>1437.4</ele>
        <time>2021-08-31T10:21:24Z</time>
      </trkpt>
      <trkpt lat="45.10273" lon="5.59716">
        <ele>1440.5</ele>
        <time>2021-08-31T10:21:32Z</time>
      </trkpt>
      <trkpt lat="45.10271" lon="5.59717">
        <ele>1440.7</ele>
        <time>2021-08-31T10:21:34Z</time>
      </trkpt>
      <trkpt lat="45.1027" lon="5.59718">
        <ele>1440.7</ele>
        <time>2021-08-31T10:21:35Z</time>
      </trkpt>
      <trkpt lat="45.10268" lon="5.5972">
        <ele>1442.2</ele>
        <time>2021-08-31T10:21:37Z</time>
      </trkpt>
      <trkpt lat="45.10266" lon="5.5972">
        <ele>1442.4</ele>
        <time>2021-08-31T10:21:38Z</time>
      </trkpt>
      <trkpt lat="45.10264" lon="5.5972">
        <ele>1442.6</ele>
        <time>2021-08-31T10:21:39Z</time>
      </trkpt>
      <trkpt lat="45.1026" lon="5.59719">
        <ele>1441.5</ele>
        <time>2021-08-31T10:21:41Z</time>
      </trkpt>
      <trkpt lat="45.10254" lon="5.59716">
        <ele>1442</ele>
        <time>2021-08-31T10:21:42Z</time>
      </trkpt>
      <trkpt lat="45.10248" lon="5.59711">
        <ele>1441.3</ele>
        <time>2021-08-31T10:21:44Z</time>
      </trkpt>
      <trkpt lat="45.10243" lon="5.59708">
        <ele>1440.4</ele>
        <time>2021-08-31T10:21:45Z</time>
      </trkpt>
      <trkpt lat="45.10238" lon="5.59705">
        <ele>1439.8</ele>
        <time>2021-08-31T10:21:47Z</time>
      </trkpt>
      <trkpt lat="45.10235" lon="5.59702">
        <ele>1440.1</ele>
        <time>2021-08-31T10:21:48Z</time>
      </trkpt>
      <trkpt lat="45.10233" lon="5.597">
        <ele>1439.2</ele>
        <time>2021-08-31T10:21:49Z</time>
      </trkpt>
      <trkpt lat="45.10229" lon="5.59698">
        <ele>1439.5</ele>
        <time>2021-08-31T10:21:51Z</time>
      </trkpt>
      <trkpt lat="45.10227" lon="5.59697">
        <ele>1438.6</ele>
        <time>2021-08-31T10:21:52Z</time>
      </trkpt>
      <trkpt lat="45.10225" lon="5.59693">
        <ele>1437.6</ele>
        <time>2021-08-31T10:21:54Z</time>
      </trkpt>
      <trkpt lat="45.10226" lon="5.59694">
        <ele>1437.6</ele>
        <time>2021-08-31T10:21:55Z</time>
      </trkpt>
      <trkpt lat="45.10227" lon="5.59695">
        <ele>1437.7</ele>
        <time>2021-08-31T10:21:57Z</time>
      </trkpt>
      <trkpt lat="45.10229" lon="5.59697">
        <ele>1437.8</ele>
        <time>2021-08-31T10:21:58Z</time>
      </trkpt>
      <trkpt lat="45.1023" lon="5.59698">
        <ele>1437.9</ele>
        <time>2021-08-31T10:21:59Z</time>
      </trkpt>
      <trkpt lat="45.10231" lon="5.597">
        <ele>1438</ele>
        <time>2021-08-31T10:22:01Z</time>
      </trkpt>
      <trkpt lat="45.10233" lon="5.59701">
        <ele>1438.1</ele>
        <time>2021-08-31T10:22:02Z</time>
      </trkpt>
      <trkpt lat="45.10234" lon="5.59703">
        <ele>1438.2</ele>
        <time>2021-08-31T10:22:57Z</time>
      </trkpt>
      <trkpt lat="45.10236" lon="5.59704">
        <ele>1438.3</ele>
        <time>2021-08-31T10:22:58Z</time>
      </trkpt>
      <trkpt lat="45.10239" lon="5.5971">
        <ele>1438.7</ele>
        <time>2021-08-31T10:23:00Z</time>
      </trkpt>
      <trkpt lat="45.10241" lon="5.59714">
        <ele>1439</ele>
        <time>2021-08-31T10:23:01Z</time>
      </trkpt>
      <trkpt lat="45.10242" lon="5.59719">
        <ele>1439.2</ele>
        <time>2021-08-31T10:23:03Z</time>
      </trkpt>
      <trkpt lat="45.10242" lon="5.5972">
        <ele>1439.3</ele>
        <time>2021-08-31T10:23:04Z</time>
      </trkpt>
      <trkpt lat="45.10241" lon="5.59726">
        <ele>1439.6</ele>
        <time>2021-08-31T10:23:05Z</time>
      </trkpt>
      <trkpt lat="45.10241" lon="5.59728">
        <ele>1439.7</ele>
        <time>2021-08-31T10:23:06Z</time>
      </trkpt>
      <trkpt lat="45.10241" lon="5.5973">
        <ele>1439.9</ele>
        <time>2021-08-31T10:23:07Z</time>
      </trkpt>
      <trkpt lat="45.10242" lon="5.59732">
        <ele>1440</ele>
        <time>2021-08-31T10:23:08Z</time>
      </trkpt>
      <trkpt lat="45.10242" lon="5.59737">
        <ele>1440.2</ele>
        <time>2021-08-31T10:23:10Z</time>
      </trkpt>
      <trkpt lat="45.10242" lon="5.59738">
        <ele>1440.3</ele>
        <time>2021-08-31T10:23:11Z</time>
      </trkpt>
      <trkpt lat="45.10243" lon="5.59742">
        <ele>1440.5</ele>
        <time>2021-08-31T10:23:12Z</time>
      </trkpt>
      <trkpt lat="45.10243" lon="5.59743">
        <ele>1440.6</ele>
        <time>2021-08-31T10:23:13Z</time>
      </trkpt>
      <trkpt lat="45.10239" lon="5.59746">
        <ele>1440.8</ele>
        <time>2021-08-31T10:23:15Z</time>
      </trkpt>
      <trkpt lat="45.10238" lon="5.59747">
        <ele>1440.9</ele>
        <time>2021-08-31T10:23:16Z</time>
      </trkpt>
      <trkpt lat="45.10235" lon="5.59748">
        <ele>1441.1</ele>
        <time>2021-08-31T10:23:18Z</time>
      </trkpt>
      <trkpt lat="45.10232" lon="5.59749">
        <ele>1441.3</ele>
        <time>2021-08-31T10:23:19Z</time>
      </trkpt>
      <trkpt lat="45.10229" lon="5.59749">
        <ele>1441.5</ele>
        <time>2021-08-31T10:23:21Z</time>
      </trkpt>
      <trkpt lat="45.10226" lon="5.59749">
        <ele>1441.7</ele>
        <time>2021-08-31T10:23:22Z</time>
      </trkpt>
      <trkpt lat="45.10224" lon="5.59749">
        <ele>1441.8</ele>
        <time>2021-08-31T10:23:24Z</time>
      </trkpt>
      <trkpt lat="45.10221" lon="5.59749">
        <ele>1442</ele>
        <time>2021-08-31T10:23:25Z</time>
      </trkpt>
      <trkpt lat="45.10218" lon="5.59752">
        <ele>1442.3</ele>
        <time>2021-08-31T10:23:27Z</time>
      </trkpt>
      <trkpt lat="45.10215" lon="5.59755">
        <ele>1442.5</ele>
        <time>2021-08-31T10:23:29Z</time>
      </trkpt>
      <trkpt lat="45.10213" lon="5.59757">
        <ele>1442.7</ele>
        <time>2021-08-31T10:23:30Z</time>
      </trkpt>
      <trkpt lat="45.10209" lon="5.59759">
        <ele>1443</ele>
        <time>2021-08-31T10:23:32Z</time>
      </trkpt>
      <trkpt lat="45.10207" lon="5.5976">
        <ele>1443.2</ele>
        <time>2021-08-31T10:23:33Z</time>
      </trkpt>
      <trkpt lat="45.10203" lon="5.59761">
        <ele>1443.5</ele>
        <time>2021-08-31T10:23:35Z</time>
      </trkpt>
      <trkpt lat="45.10201" lon="5.59761">
        <ele>1443.6</ele>
        <time>2021-08-31T10:23:36Z</time>
      </trkpt>
      <trkpt lat="45.10199" lon="5.59762">
        <ele>1443.8</ele>
        <time>2021-08-31T10:23:38Z</time>
      </trkpt>
      <trkpt lat="45.10195" lon="5.59764">
        <ele>1444.1</ele>
        <time>2021-08-31T10:23:40Z</time>
      </trkpt>
      <trkpt lat="45.10192" lon="5.59765">
        <ele>1444.3</ele>
        <time>2021-08-31T10:23:41Z</time>
      </trkpt>
      <trkpt lat="45.10192" lon="5.59765">
        <ele>1444.3</ele>
        <time>2021-08-31T10:23:42Z</time>
      </trkpt>
      <trkpt lat="45.10188" lon="5.59763">
        <ele>1444.5</ele>
        <time>2021-08-31T10:23:44Z</time>
      </trkpt>
      <trkpt lat="45.10187" lon="5.59762">
        <ele>1444.6</ele>
        <time>2021-08-31T10:23:45Z</time>
      </trkpt>
      <trkpt lat="45.10184" lon="5.59761">
        <ele>1444.7</ele>
        <time>2021-08-31T10:23:47Z</time>
      </trkpt>
      <trkpt lat="45.10181" lon="5.59759">
        <ele>1444.9</ele>
        <time>2021-08-31T10:23:48Z</time>
      </trkpt>
      <trkpt lat="45.1018" lon="5.59759">
        <ele>1444.9</ele>
        <time>2021-08-31T10:23:49Z</time>
      </trkpt>
      <trkpt lat="45.10179" lon="5.59758">
        <ele>1444.9</ele>
        <time>2021-08-31T10:23:50Z</time>
      </trkpt>
      <trkpt lat="45.10179" lon="5.5976">
        <ele>1445</ele>
        <time>2021-08-31T10:23:51Z</time>
      </trkpt>
      <trkpt lat="45.10177" lon="5.59761">
        <ele>1445</ele>
        <time>2021-08-31T10:23:52Z</time>
      </trkpt>
      <trkpt lat="45.10173" lon="5.59762">
        <ele>1445.1</ele>
        <time>2021-08-31T10:23:55Z</time>
      </trkpt>
      <trkpt lat="45.10172" lon="5.59762">
        <ele>1445.1</ele>
        <time>2021-08-31T10:23:56Z</time>
      </trkpt>
      <trkpt lat="45.1017" lon="5.59762">
        <ele>1445.2</ele>
        <time>2021-08-31T10:23:57Z</time>
      </trkpt>
      <trkpt lat="45.10168" lon="5.59762">
        <ele>1445.2</ele>
        <time>2021-08-31T10:23:59Z</time>
      </trkpt>
      <trkpt lat="45.10167" lon="5.59762">
        <ele>1445.2</ele>
        <time>2021-08-31T10:24:00Z</time>
      </trkpt>
      <trkpt lat="45.10164" lon="5.59761">
        <ele>1445.2</ele>
        <time>2021-08-31T10:24:02Z</time>
      </trkpt>
      <trkpt lat="45.10164" lon="5.59759">
        <ele>1445.3</ele>
        <time>2021-08-31T10:24:03Z</time>
      </trkpt>
      <trkpt lat="45.10163" lon="5.59758">
        <ele>1445.3</ele>
        <time>2021-08-31T10:24:04Z</time>
      </trkpt>
      <trkpt lat="45.10162" lon="5.59758">
        <ele>1445.3</ele>
        <time>2021-08-31T10:24:05Z</time>
      </trkpt>
      <trkpt lat="45.10161" lon="5.59758">
        <ele>1445.3</ele>
        <time>2021-08-31T10:24:06Z</time>
      </trkpt>
      <trkpt lat="45.1016" lon="5.59757">
        <ele>1445.3</ele>
        <time>2021-08-31T10:24:07Z</time>
      </trkpt>
      <trkpt lat="45.10159" lon="5.59757">
        <ele>1445.3</ele>
        <time>2021-08-31T10:24:08Z</time>
      </trkpt>
      <trkpt lat="45.10158" lon="5.59757">
        <ele>1445.3</ele>
        <time>2021-08-31T10:24:10Z</time>
      </trkpt>
      <trkpt lat="45.10157" lon="5.59757">
        <ele>1445.4</ele>
        <time>2021-08-31T10:24:11Z</time>
      </trkpt>
      <trkpt lat="45.10156" lon="5.59757">
        <ele>1445.4</ele>
        <time>2021-08-31T10:24:12Z</time>
      </trkpt>
      <trkpt lat="45.10153" lon="5.59757">
        <ele>1445.4</ele>
        <time>2021-08-31T10:24:13Z</time>
      </trkpt>
      <trkpt lat="45.10151" lon="5.59757">
        <ele>1445.5</ele>
        <time>2021-08-31T10:24:15Z</time>
      </trkpt>
      <trkpt lat="45.10148" lon="5.59758">
        <ele>1445.6</ele>
        <time>2021-08-31T10:24:16Z</time>
      </trkpt>
      <trkpt lat="45.10142" lon="5.59761">
        <ele>1445.8</ele>
        <time>2021-08-31T10:24:18Z</time>
      </trkpt>
      <trkpt lat="45.10138" lon="5.59762">
        <ele>1445.9</ele>
        <time>2021-08-31T10:24:19Z</time>
      </trkpt>
      <trkpt lat="45.10132" lon="5.59763">
        <ele>1446.2</ele>
        <time>2021-08-31T10:24:20Z</time>
      </trkpt>
      <trkpt lat="45.10127" lon="5.59765">
        <ele>1446.4</ele>
        <time>2021-08-31T10:24:21Z</time>
      </trkpt>
      <trkpt lat="45.10122" lon="5.59768">
        <ele>1446.6</ele>
        <time>2021-08-31T10:24:23Z</time>
      </trkpt>
      <trkpt lat="45.10118" lon="5.59769">
        <ele>1446.8</ele>
        <time>2021-08-31T10:24:24Z</time>
      </trkpt>
      <trkpt lat="45.10113" lon="5.5977">
        <ele>1447</ele>
        <time>2021-08-31T10:24:26Z</time>
      </trkpt>
      <trkpt lat="45.10109" lon="5.59773">
        <ele>1447.1</ele>
        <time>2021-08-31T10:24:27Z</time>
      </trkpt>
      <trkpt lat="45.10105" lon="5.59776">
        <ele>1447.2</ele>
        <time>2021-08-31T10:24:29Z</time>
      </trkpt>
      <trkpt lat="45.10101" lon="5.59777">
        <ele>1447.3</ele>
        <time>2021-08-31T10:24:30Z</time>
      </trkpt>
      <trkpt lat="45.10098" lon="5.59779">
        <ele>1447.4</ele>
        <time>2021-08-31T10:24:32Z</time>
      </trkpt>
      <trkpt lat="45.10097" lon="5.59779">
        <ele>1447.4</ele>
        <time>2021-08-31T10:24:33Z</time>
      </trkpt>
      <trkpt lat="45.10094" lon="5.59781">
        <ele>1447.4</ele>
        <time>2021-08-31T10:24:34Z</time>
      </trkpt>
      <trkpt lat="45.10091" lon="5.59783">
        <ele>1447.4</ele>
        <time>2021-08-31T10:24:36Z</time>
      </trkpt>
      <trkpt lat="45.1009" lon="5.59783">
        <ele>1447.4</ele>
        <time>2021-08-31T10:24:37Z</time>
      </trkpt>
      <trkpt lat="45.10088" lon="5.59786">
        <ele>1447.4</ele>
        <time>2021-08-31T10:24:38Z</time>
      </trkpt>
      <trkpt lat="45.10087" lon="5.59786">
        <ele>1447.4</ele>
        <time>2021-08-31T10:24:39Z</time>
      </trkpt>
      <trkpt lat="45.10084" lon="5.59789">
        <ele>1447.4</ele>
        <time>2021-08-31T10:24:40Z</time>
      </trkpt>
      <trkpt lat="45.10082" lon="5.5979">
        <ele>1447.4</ele>
        <time>2021-08-31T10:24:41Z</time>
      </trkpt>
      <trkpt lat="45.10079" lon="5.59793">
        <ele>1447.4</ele>
        <time>2021-08-31T10:24:43Z</time>
      </trkpt>
      <trkpt lat="45.10075" lon="5.59795">
        <ele>1447.4</ele>
        <time>2021-08-31T10:24:44Z</time>
      </trkpt>
      <trkpt lat="45.10071" lon="5.59796">
        <ele>1447.3</ele>
        <time>2021-08-31T10:24:45Z</time>
      </trkpt>
      <trkpt lat="45.10068" lon="5.59796">
        <ele>1447.3</ele>
        <time>2021-08-31T10:24:46Z</time>
      </trkpt>
      <trkpt lat="45.10063" lon="5.59798">
        <ele>1447.3</ele>
        <time>2021-08-31T10:24:48Z</time>
      </trkpt>
      <trkpt lat="45.10058" lon="5.59799">
        <ele>1447.4</ele>
        <time>2021-08-31T10:24:49Z</time>
      </trkpt>
      <trkpt lat="45.10052" lon="5.598">
        <ele>1447.4</ele>
        <time>2021-08-31T10:24:51Z</time>
      </trkpt>
      <trkpt lat="45.10046" lon="5.59804">
        <ele>1447.6</ele>
        <time>2021-08-31T10:24:53Z</time>
      </trkpt>
      <trkpt lat="45.10042" lon="5.59806">
        <ele>1447.7</ele>
        <time>2021-08-31T10:24:54Z</time>
      </trkpt>
      <trkpt lat="45.10039" lon="5.59808">
        <ele>1447.8</ele>
        <time>2021-08-31T10:24:55Z</time>
      </trkpt>
      <trkpt lat="45.10034" lon="5.59809">
        <ele>1447.9</ele>
        <time>2021-08-31T10:24:57Z</time>
      </trkpt>
      <trkpt lat="45.10031" lon="5.59809">
        <ele>1448.1</ele>
        <time>2021-08-31T10:24:58Z</time>
      </trkpt>
      <trkpt lat="45.10028" lon="5.5981">
        <ele>1448.2</ele>
        <time>2021-08-31T10:24:59Z</time>
      </trkpt>
      <trkpt lat="45.10026" lon="5.59811">
        <ele>1448.3</ele>
        <time>2021-08-31T10:25:00Z</time>
      </trkpt>
      <trkpt lat="45.10022" lon="5.59812">
        <ele>1448.5</ele>
        <time>2021-08-31T10:25:01Z</time>
      </trkpt>
      <trkpt lat="45.10019" lon="5.59814">
        <ele>1448.7</ele>
        <time>2021-08-31T10:25:02Z</time>
      </trkpt>
      <trkpt lat="45.10015" lon="5.59814">
        <ele>1448.9</ele>
        <time>2021-08-31T10:25:03Z</time>
      </trkpt>
      <trkpt lat="45.10011" lon="5.59815">
        <ele>1449.2</ele>
        <time>2021-08-31T10:25:04Z</time>
      </trkpt>
      <trkpt lat="45.10008" lon="5.59815">
        <ele>1449.5</ele>
        <time>2021-08-31T10:25:05Z</time>
      </trkpt>
      <trkpt lat="45.10007" lon="5.59815">
        <ele>1449.6</ele>
        <time>2021-08-31T10:25:06Z</time>
      </trkpt>
      <trkpt lat="45.10006" lon="5.59815">
        <ele>1449.7</ele>
        <time>2021-08-31T10:25:07Z</time>
      </trkpt>
      <trkpt lat="45.10007" lon="5.59814">
        <ele>1449.8</ele>
        <time>2021-08-31T10:25:09Z</time>
      </trkpt>
      <trkpt lat="45.10007" lon="5.59814">
        <ele>1449.8</ele>
        <time>2021-08-31T10:25:10Z</time>
      </trkpt>
      <trkpt lat="45.10007" lon="5.59814">
        <ele>1449.9</ele>
        <time>2021-08-31T10:25:11Z</time>
      </trkpt>
      <trkpt lat="45.10006" lon="5.59814">
        <ele>1450</ele>
        <time>2021-08-31T10:25:12Z</time>
      </trkpt>
      <trkpt lat="45.10005" lon="5.59814">
        <ele>1450</ele>
        <time>2021-08-31T10:25:13Z</time>
      </trkpt>
      <trkpt lat="45.10003" lon="5.59815">
        <ele>1450.2</ele>
        <time>2021-08-31T10:25:15Z</time>
      </trkpt>
      <trkpt lat="45.09996" lon="5.59839">
        <ele>1452.8</ele>
        <time>2021-08-31T10:25:16Z</time>
      </trkpt>
      <trkpt lat="45.0999" lon="5.59864">
        <ele>1455.4</ele>
        <time>2021-08-31T10:26:56Z</time>
      </trkpt>
      <trkpt lat="45.09984" lon="5.59889">
        <ele>1456.7</ele>
        <time>2021-08-31T10:26:57Z</time>
      </trkpt>
      <trkpt lat="45.09987" lon="5.59893">
        <ele>1456.9</ele>
        <time>2021-08-31T10:26:58Z</time>
      </trkpt>
      <trkpt lat="45.09987" lon="5.59893">
        <ele>1457</ele>
        <time>2021-08-31T10:27:00Z</time>
      </trkpt>
      <trkpt lat="45.09988" lon="5.59892">
        <ele>1457</ele>
        <time>2021-08-31T10:27:01Z</time>
      </trkpt>
      <trkpt lat="45.09989" lon="5.59892">
        <ele>1457.1</ele>
        <time>2021-08-31T10:27:02Z</time>
      </trkpt>
      <trkpt lat="45.0999" lon="5.59892">
        <ele>1457.1</ele>
        <time>2021-08-31T10:27:03Z</time>
      </trkpt>
      <trkpt lat="45.09992" lon="5.59896">
        <ele>1457.2</ele>
        <time>2021-08-31T10:27:05Z</time>
      </trkpt>
      <trkpt lat="45.09993" lon="5.59897">
        <ele>1457.2</ele>
        <time>2021-08-31T10:27:06Z</time>
      </trkpt>
      <trkpt lat="45.09998" lon="5.59901">
        <ele>1457.5</ele>
        <time>2021-08-31T10:27:08Z</time>
      </trkpt>
      <trkpt lat="45.10001" lon="5.59903">
        <ele>1457.6</ele>
        <time>2021-08-31T10:27:09Z</time>
      </trkpt>
      <trkpt lat="45.10001" lon="5.59904">
        <ele>1457.6</ele>
        <time>2021-08-31T10:27:11Z</time>
      </trkpt>
      <trkpt lat="45.10002" lon="5.59905">
        <ele>1457.6</ele>
        <time>2021-08-31T10:27:14Z</time>
      </trkpt>
      <trkpt lat="45.10002" lon="5.59905">
        <ele>1457.7</ele>
        <time>2021-08-31T10:27:15Z</time>
      </trkpt>
      <trkpt lat="45.10004" lon="5.59905">
        <ele>1457.7</ele>
        <time>2021-08-31T10:27:16Z</time>
      </trkpt>
      <trkpt lat="45.10005" lon="5.59906">
        <ele>1457.8</ele>
        <time>2021-08-31T10:27:18Z</time>
      </trkpt>
      <trkpt lat="45.10007" lon="5.59906">
        <ele>1457.9</ele>
        <time>2021-08-31T10:27:19Z</time>
      </trkpt>
      <trkpt lat="45.10008" lon="5.59907">
        <ele>1457.9</ele>
        <time>2021-08-31T10:27:21Z</time>
      </trkpt>
      <trkpt lat="45.10013" lon="5.59908">
        <ele>1458.2</ele>
        <time>2021-08-31T10:27:25Z</time>
      </trkpt>
      <trkpt lat="45.10016" lon="5.59911">
        <ele>1458.4</ele>
        <time>2021-08-31T10:27:27Z</time>
      </trkpt>
      <trkpt lat="45.10021" lon="5.59913">
        <ele>1458.6</ele>
        <time>2021-08-31T10:27:28Z</time>
      </trkpt>
      <trkpt lat="45.10024" lon="5.59913">
        <ele>1458.8</ele>
        <time>2021-08-31T10:27:29Z</time>
      </trkpt>
      <trkpt lat="45.10027" lon="5.59913">
        <ele>1459.2</ele>
        <time>2021-08-31T10:27:31Z</time>
      </trkpt>
      <trkpt lat="45.10031" lon="5.59914">
        <ele>1459.3</ele>
        <time>2021-08-31T10:27:32Z</time>
      </trkpt>
      <trkpt lat="45.10034" lon="5.59916">
        <ele>1459.5</ele>
        <time>2021-08-31T10:27:34Z</time>
      </trkpt>
      <trkpt lat="45.10036" lon="5.59917">
        <ele>1459.6</ele>
        <time>2021-08-31T10:27:35Z</time>
      </trkpt>
      <trkpt lat="45.10035" lon="5.59914">
        <ele>1459.7</ele>
        <time>2021-08-31T10:27:36Z</time>
      </trkpt>
      <trkpt lat="45.10034" lon="5.59912">
        <ele>1459.7</ele>
        <time>2021-08-31T10:27:37Z</time>
      </trkpt>
      <trkpt lat="45.10032" lon="5.59913">
        <ele>1459.8</ele>
        <time>2021-08-31T10:27:39Z</time>
      </trkpt>
      <trkpt lat="45.10031" lon="5.59913">
        <ele>1459.9</ele>
        <time>2021-08-31T10:27:41Z</time>
      </trkpt>
      <trkpt lat="45.1003" lon="5.59914">
        <ele>1459.9</ele>
        <time>2021-08-31T10:27:43Z</time>
      </trkpt>
      <trkpt lat="45.10029" lon="5.59914">
        <ele>1460</ele>
        <time>2021-08-31T10:27:44Z</time>
      </trkpt>
      <trkpt lat="45.10027" lon="5.59915">
        <ele>1460</ele>
        <time>2021-08-31T10:27:45Z</time>
      </trkpt>
      <trkpt lat="45.10026" lon="5.59915">
        <ele>1460.1</ele>
        <time>2021-08-31T10:27:47Z</time>
      </trkpt>
      <trkpt lat="45.10025" lon="5.59916">
        <ele>1460.1</ele>
        <time>2021-08-31T10:27:48Z</time>
      </trkpt>
      <trkpt lat="45.10022" lon="5.59918">
        <ele>1460.2</ele>
        <time>2021-08-31T10:27:50Z</time>
      </trkpt>
      <trkpt lat="45.1002" lon="5.5992">
        <ele>1460.3</ele>
        <time>2021-08-31T10:27:51Z</time>
      </trkpt>
      <trkpt lat="45.10016" lon="5.59922">
        <ele>1460.4</ele>
        <time>2021-08-31T10:27:53Z</time>
      </trkpt>
      <trkpt lat="45.10012" lon="5.59924">
        <ele>1460.5</ele>
        <time>2021-08-31T10:27:55Z</time>
      </trkpt>
      <trkpt lat="45.10011" lon="5.59925">
        <ele>1460.6</ele>
        <time>2021-08-31T10:27:56Z</time>
      </trkpt>
      <trkpt lat="45.10009" lon="5.59925">
        <ele>1460.6</ele>
        <time>2021-08-31T10:27:57Z</time>
      </trkpt>
      <trkpt lat="45.10004" lon="5.59921">
        <ele>1460.7</ele>
        <time>2021-08-31T10:27:59Z</time>
      </trkpt>
      <trkpt lat="45.10001" lon="5.59918">
        <ele>1460.8</ele>
        <time>2021-08-31T10:28:00Z</time>
      </trkpt>
      <trkpt lat="45.09996" lon="5.59916">
        <ele>1460.9</ele>
        <time>2021-08-31T10:28:01Z</time>
      </trkpt>
      <trkpt lat="45.09992" lon="5.59912">
        <ele>1461</ele>
        <time>2021-08-31T10:28:03Z</time>
      </trkpt>
      <trkpt lat="45.0999" lon="5.59912">
        <ele>1461.1</ele>
        <time>2021-08-31T10:28:04Z</time>
      </trkpt>
      <trkpt lat="45.09988" lon="5.59914">
        <ele>1461.1</ele>
        <time>2021-08-31T10:28:06Z</time>
      </trkpt>
      <trkpt lat="45.09988" lon="5.59915">
        <ele>1461.2</ele>
        <time>2021-08-31T10:28:08Z</time>
      </trkpt>
      <trkpt lat="45.09988" lon="5.59917">
        <ele>1461.2</ele>
        <time>2021-08-31T10:28:09Z</time>
      </trkpt>
      <trkpt lat="45.09986" lon="5.59921">
        <ele>1461.3</ele>
        <time>2021-08-31T10:28:11Z</time>
      </trkpt>
      <trkpt lat="45.09985" lon="5.59922">
        <ele>1461.3</ele>
        <time>2021-08-31T10:28:12Z</time>
      </trkpt>
      <trkpt lat="45.09982" lon="5.59922">
        <ele>1461.4</ele>
        <time>2021-08-31T10:28:13Z</time>
      </trkpt>
      <trkpt lat="45.09979" lon="5.59922">
        <ele>1461.4</ele>
        <time>2021-08-31T10:28:14Z</time>
      </trkpt>
      <trkpt lat="45.09975" lon="5.59923">
        <ele>1461.5</ele>
        <time>2021-08-31T10:28:16Z</time>
      </trkpt>
      <trkpt lat="45.09972" lon="5.59922">
        <ele>1461.6</ele>
        <time>2021-08-31T10:28:17Z</time>
      </trkpt>
      <trkpt lat="45.09967" lon="5.59923">
        <ele>1461.6</ele>
        <time>2021-08-31T10:28:18Z</time>
      </trkpt>
      <trkpt lat="45.09965" lon="5.59923">
        <ele>1461.7</ele>
        <time>2021-08-31T10:28:19Z</time>
      </trkpt>
      <trkpt lat="45.09962" lon="5.59924">
        <ele>1461.7</ele>
        <time>2021-08-31T10:28:21Z</time>
      </trkpt>
      <trkpt lat="45.09956" lon="5.59927">
        <ele>1461.7</ele>
        <time>2021-08-31T10:28:23Z</time>
      </trkpt>
      <trkpt lat="45.09951" lon="5.59929">
        <ele>1461.8</ele>
        <time>2021-08-31T10:28:24Z</time>
      </trkpt>
      <trkpt lat="45.09947" lon="5.59934">
        <ele>1461.8</ele>
        <time>2021-08-31T10:28:26Z</time>
      </trkpt>
      <trkpt lat="45.09943" lon="5.59935">
        <ele>1461.8</ele>
        <time>2021-08-31T10:28:28Z</time>
      </trkpt>
      <trkpt lat="45.0994" lon="5.59935">
        <ele>1461.8</ele>
        <time>2021-08-31T10:28:29Z</time>
      </trkpt>
      <trkpt lat="45.09935" lon="5.59935">
        <ele>1461.9</ele>
        <time>2021-08-31T10:28:30Z</time>
      </trkpt>
      <trkpt lat="45.0993" lon="5.59937">
        <ele>1461.9</ele>
        <time>2021-08-31T10:28:31Z</time>
      </trkpt>
      <trkpt lat="45.09924" lon="5.59941">
        <ele>1461.9</ele>
        <time>2021-08-31T10:28:33Z</time>
      </trkpt>
      <trkpt lat="45.09921" lon="5.59944">
        <ele>1461.9</ele>
        <time>2021-08-31T10:28:34Z</time>
      </trkpt>
      <trkpt lat="45.09917" lon="5.59948">
        <ele>1462</ele>
        <time>2021-08-31T10:28:35Z</time>
      </trkpt>
      <trkpt lat="45.09913" lon="5.59952">
        <ele>1462.1</ele>
        <time>2021-08-31T10:28:37Z</time>
      </trkpt>
      <trkpt lat="45.09908" lon="5.59957">
        <ele>1462.2</ele>
        <time>2021-08-31T10:28:38Z</time>
      </trkpt>
      <trkpt lat="45.09905" lon="5.59959">
        <ele>1462.4</ele>
        <time>2021-08-31T10:28:39Z</time>
      </trkpt>
      <trkpt lat="45.099" lon="5.59961">
        <ele>1462.6</ele>
        <time>2021-08-31T10:28:40Z</time>
      </trkpt>
      <trkpt lat="45.09897" lon="5.59963">
        <ele>1462.8</ele>
        <time>2021-08-31T10:28:42Z</time>
      </trkpt>
      <trkpt lat="45.09893" lon="5.59965">
        <ele>1463.1</ele>
        <time>2021-08-31T10:28:43Z</time>
      </trkpt>
      <trkpt lat="45.09892" lon="5.59965">
        <ele>1463.2</ele>
        <time>2021-08-31T10:28:44Z</time>
      </trkpt>
      <trkpt lat="45.09889" lon="5.59966">
        <ele>1463.5</ele>
        <time>2021-08-31T10:28:45Z</time>
      </trkpt>
      <trkpt lat="45.09888" lon="5.59966">
        <ele>1463.6</ele>
        <time>2021-08-31T10:28:47Z</time>
      </trkpt>
      <trkpt lat="45.09886" lon="5.59966">
        <ele>1463.8</ele>
        <time>2021-08-31T10:28:48Z</time>
      </trkpt>
      <trkpt lat="45.09885" lon="5.59967">
        <ele>1463.9</ele>
        <time>2021-08-31T10:28:49Z</time>
      </trkpt>
      <trkpt lat="45.09885" lon="5.59968">
        <ele>1464</ele>
        <time>2021-08-31T10:28:51Z</time>
      </trkpt>
      <trkpt lat="45.09884" lon="5.59969">
        <ele>1464.2</ele>
        <time>2021-08-31T10:28:52Z</time>
      </trkpt>
      <trkpt lat="45.09883" lon="5.59972">
        <ele>1464.4</ele>
        <time>2021-08-31T10:28:53Z</time>
      </trkpt>
      <trkpt lat="45.09884" lon="5.59973">
        <ele>1464.6</ele>
        <time>2021-08-31T10:28:54Z</time>
      </trkpt>
      <trkpt lat="45.09884" lon="5.59975">
        <ele>1464.7</ele>
        <time>2021-08-31T10:28:55Z</time>
      </trkpt>
      <trkpt lat="45.09885" lon="5.59976">
        <ele>1464.9</ele>
        <time>2021-08-31T10:28:56Z</time>
      </trkpt>
      <trkpt lat="45.09885" lon="5.59977">
        <ele>1465</ele>
        <time>2021-08-31T10:28:58Z</time>
      </trkpt>
      <trkpt lat="45.09886" lon="5.59979">
        <ele>1465.1</ele>
        <time>2021-08-31T10:28:59Z</time>
      </trkpt>
      <trkpt lat="45.09886" lon="5.5998">
        <ele>1465.3</ele>
        <time>2021-08-31T10:29:00Z</time>
      </trkpt>
      <trkpt lat="45.09886" lon="5.5998">
        <ele>1465.3</ele>
        <time>2021-08-31T10:29:01Z</time>
      </trkpt>
      <trkpt lat="45.09886" lon="5.59981">
        <ele>1465.4</ele>
        <time>2021-08-31T10:29:02Z</time>
      </trkpt>
      <trkpt lat="45.09886" lon="5.59982">
        <ele>1465.5</ele>
        <time>2021-08-31T10:29:04Z</time>
      </trkpt>
      <trkpt lat="45.0985" lon="5.5999">
        <ele>1469.2</ele>
        <time>2021-08-31T10:29:53Z</time>
      </trkpt>
      <trkpt lat="45.09851" lon="5.59989">
        <ele>1469.2</ele>
        <time>2021-08-31T10:29:54Z</time>
      </trkpt>
      <trkpt lat="45.09853" lon="5.59988">
        <ele>1469.2</ele>
        <time>2021-08-31T10:29:56Z</time>
      </trkpt>
      <trkpt lat="45.09854" lon="5.59988">
        <ele>1469.2</ele>
        <time>2021-08-31T10:29:58Z</time>
      </trkpt>
      <trkpt lat="45.09854" lon="5.59988">
        <ele>1469.2</ele>
        <time>2021-08-31T10:29:59Z</time>
      </trkpt>
      <trkpt lat="45.09854" lon="5.59988">
        <ele>1469.2</ele>
        <time>2021-08-31T10:30:01Z</time>
      </trkpt>
      <trkpt lat="45.09854" lon="5.59988">
        <ele>1469.2</ele>
        <time>2021-08-31T10:30:02Z</time>
      </trkpt>
      <trkpt lat="45.09854" lon="5.59988">
        <ele>1469.2</ele>
        <time>2021-08-31T10:30:04Z</time>
      </trkpt>
      <trkpt lat="45.09852" lon="5.59993">
        <ele>1469.3</ele>
        <time>2021-08-31T10:30:06Z</time>
      </trkpt>
      <trkpt lat="45.0985" lon="5.59998">
        <ele>1469.3</ele>
        <time>2021-08-31T10:30:07Z</time>
      </trkpt>
      <trkpt lat="45.09852" lon="5.59993">
        <ele>1469.3</ele>
        <time>2021-08-31T10:30:09Z</time>
      </trkpt>
      <trkpt lat="45.09853" lon="5.59994">
        <ele>1469.3</ele>
        <time>2021-08-31T10:30:11Z</time>
      </trkpt>
      <trkpt lat="45.09853" lon="5.59995">
        <ele>1469.3</ele>
        <time>2021-08-31T10:30:13Z</time>
      </trkpt>
      <trkpt lat="45.09854" lon="5.59998">
        <ele>1469.3</ele>
        <time>2021-08-31T10:30:15Z</time>
      </trkpt>
      <trkpt lat="45.09854" lon="5.59999">
        <ele>1469.3</ele>
        <time>2021-08-31T10:30:16Z</time>
      </trkpt>
      <trkpt lat="45.09854" lon="5.6">
        <ele>1469.3</ele>
        <time>2021-08-31T10:30:17Z</time>
      </trkpt>
      <trkpt lat="45.09854" lon="5.60002">
        <ele>1469.4</ele>
        <time>2021-08-31T10:30:18Z</time>
      </trkpt>
      <trkpt lat="45.09854" lon="5.60004">
        <ele>1469.4</ele>
        <time>2021-08-31T10:30:20Z</time>
      </trkpt>
      <trkpt lat="45.09854" lon="5.60006">
        <ele>1469.4</ele>
        <time>2021-08-31T10:30:22Z</time>
      </trkpt>
      <trkpt lat="45.09854" lon="5.60007">
        <ele>1469.4</ele>
        <time>2021-08-31T10:30:24Z</time>
      </trkpt>
      <trkpt lat="45.09855" lon="5.60008">
        <ele>1469.4</ele>
        <time>2021-08-31T10:30:25Z</time>
      </trkpt>
      <trkpt lat="45.09855" lon="5.60009">
        <ele>1469.4</ele>
        <time>2021-08-31T10:30:27Z</time>
      </trkpt>
      <trkpt lat="45.09855" lon="5.60009">
        <ele>1469.4</ele>
        <time>2021-08-31T10:30:28Z</time>
      </trkpt>
      <trkpt lat="45.09855" lon="5.60009">
        <ele>1469.4</ele>
        <time>2021-08-31T10:30:30Z</time>
      </trkpt>
      <trkpt lat="45.09854" lon="5.60009">
        <ele>1469.4</ele>
        <time>2021-08-31T10:30:31Z</time>
      </trkpt>
      <trkpt lat="45.09854" lon="5.60008">
        <ele>1469.4</ele>
        <time>2021-08-31T10:30:32Z</time>
      </trkpt>
      <trkpt lat="45.09854" lon="5.60008">
        <ele>1469.4</ele>
        <time>2021-08-31T10:30:34Z</time>
      </trkpt>
      <trkpt lat="45.09855" lon="5.60008">
        <ele>1469.4</ele>
        <time>2021-08-31T10:30:35Z</time>
      </trkpt>
      <trkpt lat="45.09855" lon="5.60008">
        <ele>1469.4</ele>
        <time>2021-08-31T10:30:36Z</time>
      </trkpt>
      <trkpt lat="45.09854" lon="5.60008">
        <ele>1469.4</ele>
        <time>2021-08-31T10:30:38Z</time>
      </trkpt>
      <trkpt lat="45.09853" lon="5.60008">
        <ele>1469.4</ele>
        <time>2021-08-31T10:30:39Z</time>
      </trkpt>
      <trkpt lat="45.09852" lon="5.60009">
        <ele>1469.4</ele>
        <time>2021-08-31T10:30:40Z</time>
      </trkpt>
      <trkpt lat="45.0985" lon="5.60011">
        <ele>1469.4</ele>
        <time>2021-08-31T10:30:42Z</time>
      </trkpt>
      <trkpt lat="45.09848" lon="5.60012">
        <ele>1469.4</ele>
        <time>2021-08-31T10:30:44Z</time>
      </trkpt>
      <trkpt lat="45.09847" lon="5.60012">
        <ele>1469.4</ele>
        <time>2021-08-31T10:30:46Z</time>
      </trkpt>
      <trkpt lat="45.09846" lon="5.60013">
        <ele>1469.5</ele>
        <time>2021-08-31T10:30:48Z</time>
      </trkpt>
      <trkpt lat="45.09846" lon="5.60013">
        <ele>1469.5</ele>
        <time>2021-08-31T10:30:49Z</time>
      </trkpt>
      <trkpt lat="45.09845" lon="5.60013">
        <ele>1469.5</ele>
        <time>2021-08-31T10:30:51Z</time>
      </trkpt>
      <trkpt lat="45.09845" lon="5.60013">
        <ele>1469.5</ele>
        <time>2021-08-31T10:30:53Z</time>
      </trkpt>
      <trkpt lat="45.09844" lon="5.60012">
        <ele>1469.5</ele>
        <time>2021-08-31T10:30:54Z</time>
      </trkpt>
      <trkpt lat="45.09844" lon="5.60011">
        <ele>1469.5</ele>
        <time>2021-08-31T10:30:56Z</time>
      </trkpt>
      <trkpt lat="45.09843" lon="5.6001">
        <ele>1469.5</ele>
        <time>2021-08-31T10:30:58Z</time>
      </trkpt>
      <trkpt lat="45.09843" lon="5.6001">
        <ele>1469.6</ele>
        <time>2021-08-31T10:31:00Z</time>
      </trkpt>
      <trkpt lat="45.09843" lon="5.6001">
        <ele>1469.6</ele>
        <time>2021-08-31T10:31:01Z</time>
      </trkpt>
      <trkpt lat="45.09844" lon="5.60005">
        <ele>1469.6</ele>
        <time>2021-08-31T10:31:03Z</time>
      </trkpt>
      <trkpt lat="45.09844" lon="5.59999">
        <ele>1469.7</ele>
        <time>2021-08-31T10:31:05Z</time>
      </trkpt>
      <trkpt lat="45.09844" lon="5.59998">
        <ele>1469.7</ele>
        <time>2021-08-31T10:31:06Z</time>
      </trkpt>
      <trkpt lat="45.09844" lon="5.59997">
        <ele>1469.7</ele>
        <time>2021-08-31T10:31:07Z</time>
      </trkpt>
      <trkpt lat="45.09844" lon="5.59996">
        <ele>1469.7</ele>
        <time>2021-08-31T10:31:09Z</time>
      </trkpt>
      <trkpt lat="45.09844" lon="5.59996">
        <ele>1469.7</ele>
        <time>2021-08-31T10:31:10Z</time>
      </trkpt>
      <trkpt lat="45.09844" lon="5.59996">
        <ele>1469.7</ele>
        <time>2021-08-31T10:31:11Z</time>
      </trkpt>
      <trkpt lat="45.09844" lon="5.59996">
        <ele>1469.7</ele>
        <time>2021-08-31T10:31:13Z</time>
      </trkpt>
      <trkpt lat="45.09844" lon="5.59996">
        <ele>1469.7</ele>
        <time>2021-08-31T10:31:14Z</time>
      </trkpt>
      <trkpt lat="45.09844" lon="5.59996">
        <ele>1469.7</ele>
        <time>2021-08-31T10:31:15Z</time>
      </trkpt>
      <trkpt lat="45.09844" lon="5.59996">
        <ele>1469.7</ele>
        <time>2021-08-31T10:31:17Z</time>
      </trkpt>
      <trkpt lat="45.09844" lon="5.59996">
        <ele>1469.7</ele>
        <time>2021-08-31T10:31:18Z</time>
      </trkpt>
      <trkpt lat="45.09844" lon="5.59996">
        <ele>1469.7</ele>
        <time>2021-08-31T10:31:19Z</time>
      </trkpt>
      <trkpt lat="45.09843" lon="5.59998">
        <ele>1469.7</ele>
        <time>2021-08-31T10:31:20Z</time>
      </trkpt>
      <trkpt lat="45.09843" lon="5.59997">
        <ele>1469.7</ele>
        <time>2021-08-31T10:31:22Z</time>
      </trkpt>
      <trkpt lat="45.09842" lon="5.59997">
        <ele>1469.7</ele>
        <time>2021-08-31T10:31:23Z</time>
      </trkpt>
      <trkpt lat="45.09841" lon="5.59996">
        <ele>1469.7</ele>
        <time>2021-08-31T10:31:24Z</time>
      </trkpt>
      <trkpt lat="45.09839" lon="5.59996">
        <ele>1469.7</ele>
        <time>2021-08-31T10:31:26Z</time>
      </trkpt>
      <trkpt lat="45.09837" lon="5.59996">
        <ele>1469.7</ele>
        <time>2021-08-31T10:31:27Z</time>
      </trkpt>
      <trkpt lat="45.09835" lon="5.59996">
        <ele>1469.7</ele>
        <time>2021-08-31T10:31:28Z</time>
      </trkpt>
      <trkpt lat="45.0983" lon="5.59997">
        <ele>1469.7</ele>
        <time>2021-08-31T10:31:29Z</time>
      </trkpt>
      <trkpt lat="45.09826" lon="5.6">
        <ele>1469.8</ele>
        <time>2021-08-31T10:31:30Z</time>
      </trkpt>
      <trkpt lat="45.09822" lon="5.60001">
        <ele>1469.9</ele>
        <time>2021-08-31T10:31:31Z</time>
      </trkpt>
      <trkpt lat="45.09817" lon="5.60002">
        <ele>1470</ele>
        <time>2021-08-31T10:31:33Z</time>
      </trkpt>
      <trkpt lat="45.09812" lon="5.60005">
        <ele>1470.1</ele>
        <time>2021-08-31T10:31:34Z</time>
      </trkpt>
      <trkpt lat="45.09807" lon="5.60006">
        <ele>1470.2</ele>
        <time>2021-08-31T10:31:36Z</time>
      </trkpt>
      <trkpt lat="45.09805" lon="5.60008">
        <ele>1470.3</ele>
        <time>2021-08-31T10:31:37Z</time>
      </trkpt>
      <trkpt lat="45.09803" lon="5.60012">
        <ele>1470.4</ele>
        <time>2021-08-31T10:31:38Z</time>
      </trkpt>
      <trkpt lat="45.09803" lon="5.60017">
        <ele>1470.4</ele>
        <time>2021-08-31T10:31:39Z</time>
      </trkpt>
      <trkpt lat="45.09803" lon="5.60019">
        <ele>1470.4</ele>
        <time>2021-08-31T10:31:40Z</time>
      </trkpt>
      <trkpt lat="45.09802" lon="5.60024">
        <ele>1470.4</ele>
        <time>2021-08-31T10:31:42Z</time>
      </trkpt>
      <trkpt lat="45.09801" lon="5.60027">
        <ele>1470.3</ele>
        <time>2021-08-31T10:31:43Z</time>
      </trkpt>
      <trkpt lat="45.09797" lon="5.60029">
        <ele>1470.3</ele>
        <time>2021-08-31T10:31:45Z</time>
      </trkpt>
      <trkpt lat="45.09796" lon="5.6003">
        <ele>1470.2</ele>
        <time>2021-08-31T10:31:46Z</time>
      </trkpt>
      <trkpt lat="45.09793" lon="5.60032">
        <ele>1470.1</ele>
        <time>2021-08-31T10:31:47Z</time>
      </trkpt>
      <trkpt lat="45.09791" lon="5.60035">
        <ele>1470</ele>
        <time>2021-08-31T10:31:48Z</time>
      </trkpt>
      <trkpt lat="45.09788" lon="5.60038">
        <ele>1469.8</ele>
        <time>2021-08-31T10:31:50Z</time>
      </trkpt>
      <trkpt lat="45.09783" lon="5.6004">
        <ele>1469.5</ele>
        <time>2021-08-31T10:31:51Z</time>
      </trkpt>
      <trkpt lat="45.09778" lon="5.6004">
        <ele>1469.2</ele>
        <time>2021-08-31T10:31:53Z</time>
      </trkpt>
      <trkpt lat="45.09772" lon="5.6004">
        <ele>1468.8</ele>
        <time>2021-08-31T10:31:55Z</time>
      </trkpt>
      <trkpt lat="45.09761" lon="5.60036">
        <ele>1468.1</ele>
        <time>2021-08-31T10:31:57Z</time>
      </trkpt>
      <trkpt lat="45.0975" lon="5.60032">
        <ele>1467.6</ele>
        <time>2021-08-31T10:31:59Z</time>
      </trkpt>
      <trkpt lat="45.09739" lon="5.60033">
        <ele>1467.4</ele>
        <time>2021-08-31T10:32:01Z</time>
      </trkpt>
      <trkpt lat="45.09734" lon="5.60036">
        <ele>1467.4</ele>
        <time>2021-08-31T10:32:02Z</time>
      </trkpt>
      <trkpt lat="45.09724" lon="5.60043">
        <ele>1467.8</ele>
        <time>2021-08-31T10:32:04Z</time>
      </trkpt>
      <trkpt lat="45.09716" lon="5.60051">
        <ele>1468.6</ele>
        <time>2021-08-31T10:32:06Z</time>
      </trkpt>
      <trkpt lat="45.09713" lon="5.60046">
        <ele>1469</ele>
        <time>2021-08-31T10:32:07Z</time>
      </trkpt>
      <trkpt lat="45.09708" lon="5.60051">
        <ele>1469.6</ele>
        <time>2021-08-31T10:32:09Z</time>
      </trkpt>
      <trkpt lat="45.09706" lon="5.60056">
        <ele>1470</ele>
        <time>2021-08-31T10:32:10Z</time>
      </trkpt>
      <trkpt lat="45.09703" lon="5.60059">
        <ele>1470.5</ele>
        <time>2021-08-31T10:32:12Z</time>
      </trkpt>
      <trkpt lat="45.09701" lon="5.60061">
        <ele>1470.7</ele>
        <time>2021-08-31T10:32:13Z</time>
      </trkpt>
      <trkpt lat="45.097" lon="5.60063">
        <ele>1470.8</ele>
        <time>2021-08-31T10:32:15Z</time>
      </trkpt>
      <trkpt lat="45.097" lon="5.60065">
        <ele>1470.9</ele>
        <time>2021-08-31T10:32:16Z</time>
      </trkpt>
      <trkpt lat="45.09699" lon="5.60066">
        <ele>1471</ele>
        <time>2021-08-31T10:32:17Z</time>
      </trkpt>
      <trkpt lat="45.097" lon="5.6007">
        <ele>1471.3</ele>
        <time>2021-08-31T10:32:19Z</time>
      </trkpt>
      <trkpt lat="45.09698" lon="5.60072">
        <ele>1471.4</ele>
        <time>2021-08-31T10:32:21Z</time>
      </trkpt>
      <trkpt lat="45.09698" lon="5.60073">
        <ele>1471.4</ele>
        <time>2021-08-31T10:32:22Z</time>
      </trkpt>
      <trkpt lat="45.09699" lon="5.60075">
        <ele>1471.5</ele>
        <time>2021-08-31T10:32:24Z</time>
      </trkpt>
      <trkpt lat="45.09699" lon="5.60076">
        <ele>1471.6</ele>
        <time>2021-08-31T10:32:25Z</time>
      </trkpt>
      <trkpt lat="45.09699" lon="5.60076">
        <ele>1471.6</ele>
        <time>2021-08-31T10:32:27Z</time>
      </trkpt>
      <trkpt lat="45.09698" lon="5.60077">
        <ele>1471.7</ele>
        <time>2021-08-31T10:32:29Z</time>
      </trkpt>
      <trkpt lat="45.09697" lon="5.60077">
        <ele>1471.7</ele>
        <time>2021-08-31T10:32:30Z</time>
      </trkpt>
      <trkpt lat="45.09695" lon="5.60076">
        <ele>1471.8</ele>
        <time>2021-08-31T10:32:32Z</time>
      </trkpt>
      <trkpt lat="45.09683" lon="5.6008">
        <ele>1471.9</ele>
        <time>2021-08-31T10:32:46Z</time>
      </trkpt>
      <trkpt lat="45.09678" lon="5.6008">
        <ele>1471.8</ele>
        <time>2021-08-31T10:32:47Z</time>
      </trkpt>
      <trkpt lat="45.09669" lon="5.6008">
        <ele>1471.5</ele>
        <time>2021-08-31T10:32:49Z</time>
      </trkpt>
      <trkpt lat="45.09663" lon="5.6008">
        <ele>1471.2</ele>
        <time>2021-08-31T10:32:50Z</time>
      </trkpt>
      <trkpt lat="45.09656" lon="5.60082">
        <ele>1470.9</ele>
        <time>2021-08-31T10:32:51Z</time>
      </trkpt>
      <trkpt lat="45.09647" lon="5.60085">
        <ele>1470.4</ele>
        <time>2021-08-31T10:32:53Z</time>
      </trkpt>
      <trkpt lat="45.09642" lon="5.60087">
        <ele>1470.2</ele>
        <time>2021-08-31T10:32:55Z</time>
      </trkpt>
      <trkpt lat="45.09636" lon="5.60091">
        <ele>1469.8</ele>
        <time>2021-08-31T10:32:56Z</time>
      </trkpt>
      <trkpt lat="45.09628" lon="5.60095">
        <ele>1469.3</ele>
        <time>2021-08-31T10:32:58Z</time>
      </trkpt>
      <trkpt lat="45.09623" lon="5.60096">
        <ele>1469</ele>
        <time>2021-08-31T10:32:59Z</time>
      </trkpt>
      <trkpt lat="45.09617" lon="5.60096">
        <ele>1468.6</ele>
        <time>2021-08-31T10:33:00Z</time>
      </trkpt>
      <trkpt lat="45.09607" lon="5.60097">
        <ele>1468.1</ele>
        <time>2021-08-31T10:33:02Z</time>
      </trkpt>
      <trkpt lat="45.09602" lon="5.60097">
        <ele>1467.8</ele>
        <time>2021-08-31T10:33:03Z</time>
      </trkpt>
      <trkpt lat="45.0959" lon="5.60096">
        <ele>1467.2</ele>
        <time>2021-08-31T10:33:05Z</time>
      </trkpt>
      <trkpt lat="45.09576" lon="5.60093">
        <ele>1466.4</ele>
        <time>2021-08-31T10:33:07Z</time>
      </trkpt>
      <trkpt lat="45.09567" lon="5.60089">
        <ele>1465.8</ele>
        <time>2021-08-31T10:33:08Z</time>
      </trkpt>
      <trkpt lat="45.09559" lon="5.60086">
        <ele>1465.3</ele>
        <time>2021-08-31T10:33:09Z</time>
      </trkpt>
      <trkpt lat="45.0955" lon="5.60083">
        <ele>1464.9</ele>
        <time>2021-08-31T10:33:10Z</time>
      </trkpt>
      <trkpt lat="45.09532" lon="5.6008">
        <ele>1464.2</ele>
        <time>2021-08-31T10:33:12Z</time>
      </trkpt>
      <trkpt lat="45.09521" lon="5.60079">
        <ele>1463.9</ele>
        <time>2021-08-31T10:33:14Z</time>
      </trkpt>
      <trkpt lat="45.09518" lon="5.60079">
        <ele>1463.8</ele>
        <time>2021-08-31T10:33:15Z</time>
      </trkpt>
      <trkpt lat="45.09515" lon="5.60079">
        <ele>1463.7</ele>
        <time>2021-08-31T10:33:16Z</time>
      </trkpt>
      <trkpt lat="45.09514" lon="5.60078">
        <ele>1463.7</ele>
        <time>2021-08-31T10:33:17Z</time>
      </trkpt>
      <trkpt lat="45.09511" lon="5.60076">
        <ele>1463.6</ele>
        <time>2021-08-31T10:33:18Z</time>
      </trkpt>
      <trkpt lat="45.0951" lon="5.60072">
        <ele>1463.6</ele>
        <time>2021-08-31T10:33:20Z</time>
      </trkpt>
      <trkpt lat="45.09511" lon="5.60072">
        <ele>1463.6</ele>
        <time>2021-08-31T10:33:22Z</time>
      </trkpt>
      <trkpt lat="45.09511" lon="5.60072">
        <ele>1463.6</ele>
        <time>2021-08-31T10:33:23Z</time>
      </trkpt>
      <trkpt lat="45.09511" lon="5.60071">
        <ele>1463.6</ele>
        <time>2021-08-31T10:33:24Z</time>
      </trkpt>
      <trkpt lat="45.09511" lon="5.60071">
        <ele>1463.6</ele>
        <time>2021-08-31T10:33:26Z</time>
      </trkpt>
      <trkpt lat="45.09511" lon="5.60071">
        <ele>1463.6</ele>
        <time>2021-08-31T10:33:27Z</time>
      </trkpt>
      <trkpt lat="45.09511" lon="5.60071">
        <ele>1463.6</ele>
        <time>2021-08-31T10:33:29Z</time>
      </trkpt>
      <trkpt lat="45.09503" lon="5.60063">
        <ele>1463.4</ele>
        <time>2021-08-31T10:33:44Z</time>
      </trkpt>
      <trkpt lat="45.09498" lon="5.60061">
        <ele>1463.4</ele>
        <time>2021-08-31T10:33:46Z</time>
      </trkpt>
      <trkpt lat="45.09489" lon="5.60061">
        <ele>1463.3</ele>
        <time>2021-08-31T10:33:47Z</time>
      </trkpt>
      <trkpt lat="45.09483" lon="5.60062">
        <ele>1463.3</ele>
        <time>2021-08-31T10:33:49Z</time>
      </trkpt>
      <trkpt lat="45.09477" lon="5.60062">
        <ele>1463.3</ele>
        <time>2021-08-31T10:33:50Z</time>
      </trkpt>
      <trkpt lat="45.0947" lon="5.60062">
        <ele>1463.3</ele>
        <time>2021-08-31T10:33:51Z</time>
      </trkpt>
      <trkpt lat="45.09466" lon="5.60062">
        <ele>1463.3</ele>
        <time>2021-08-31T10:33:53Z</time>
      </trkpt>
      <trkpt lat="45.09459" lon="5.6006">
        <ele>1463.3</ele>
        <time>2021-08-31T10:33:54Z</time>
      </trkpt>
      <trkpt lat="45.09454" lon="5.60059">
        <ele>1463.3</ele>
        <time>2021-08-31T10:33:56Z</time>
      </trkpt>
      <trkpt lat="45.09449" lon="5.6006">
        <ele>1463.3</ele>
        <time>2021-08-31T10:33:57Z</time>
      </trkpt>
      <trkpt lat="45.09444" lon="5.6006">
        <ele>1463.4</ele>
        <time>2021-08-31T10:33:59Z</time>
      </trkpt>
      <trkpt lat="45.0944" lon="5.60058">
        <ele>1463.4</ele>
        <time>2021-08-31T10:34:00Z</time>
      </trkpt>
      <trkpt lat="45.09435" lon="5.60055">
        <ele>1463.4</ele>
        <time>2021-08-31T10:34:01Z</time>
      </trkpt>
      <trkpt lat="45.09431" lon="5.60054">
        <ele>1463.4</ele>
        <time>2021-08-31T10:34:02Z</time>
      </trkpt>
      <trkpt lat="45.09428" lon="5.60054">
        <ele>1463.4</ele>
        <time>2021-08-31T10:34:04Z</time>
      </trkpt>
      <trkpt lat="45.09426" lon="5.60054">
        <ele>1463.4</ele>
        <time>2021-08-31T10:34:05Z</time>
      </trkpt>
      <trkpt lat="45.09424" lon="5.60053">
        <ele>1463.4</ele>
        <time>2021-08-31T10:34:06Z</time>
      </trkpt>
      <trkpt lat="45.09421" lon="5.60052">
        <ele>1463.3</ele>
        <time>2021-08-31T10:34:08Z</time>
      </trkpt>
      <trkpt lat="45.09417" lon="5.6005">
        <ele>1463.3</ele>
        <time>2021-08-31T10:34:09Z</time>
      </trkpt>
      <trkpt lat="45.09415" lon="5.60049">
        <ele>1463.2</ele>
        <time>2021-08-31T10:34:10Z</time>
      </trkpt>
      <trkpt lat="45.09412" lon="5.60047">
        <ele>1463.1</ele>
        <time>2021-08-31T10:34:11Z</time>
      </trkpt>
      <trkpt lat="45.0941" lon="5.60046">
        <ele>1463.1</ele>
        <time>2021-08-31T10:34:13Z</time>
      </trkpt>
      <trkpt lat="45.09405" lon="5.60044">
        <ele>1462.9</ele>
        <time>2021-08-31T10:34:14Z</time>
      </trkpt>
      <trkpt lat="45.094" lon="5.60042">
        <ele>1462.8</ele>
        <time>2021-08-31T10:34:15Z</time>
      </trkpt>
      <trkpt lat="45.0939" lon="5.60037">
        <ele>1462.5</ele>
        <time>2021-08-31T10:34:17Z</time>
      </trkpt>
      <trkpt lat="45.09385" lon="5.60033">
        <ele>1462.4</ele>
        <time>2021-08-31T10:34:18Z</time>
      </trkpt>
      <trkpt lat="45.09381" lon="5.60027">
        <ele>1462.3</ele>
        <time>2021-08-31T10:34:19Z</time>
      </trkpt>
      <trkpt lat="45.09382" lon="5.60024">
        <ele>1462.2</ele>
        <time>2021-08-31T10:34:20Z</time>
      </trkpt>
      <trkpt lat="45.09377" lon="5.6002">
        <ele>1462.1</ele>
        <time>2021-08-31T10:34:22Z</time>
      </trkpt>
      <trkpt lat="45.09373" lon="5.60017">
        <ele>1462</ele>
        <time>2021-08-31T10:34:23Z</time>
      </trkpt>
      <trkpt lat="45.09369" lon="5.60014">
        <ele>1461.9</ele>
        <time>2021-08-31T10:34:24Z</time>
      </trkpt>
      <trkpt lat="45.09363" lon="5.60009">
        <ele>1461.7</ele>
        <time>2021-08-31T10:34:25Z</time>
      </trkpt>
      <trkpt lat="45.09361" lon="5.60007">
        <ele>1461.6</ele>
        <time>2021-08-31T10:34:26Z</time>
      </trkpt>
      <trkpt lat="45.09358" lon="5.60006">
        <ele>1461.5</ele>
        <time>2021-08-31T10:34:28Z</time>
      </trkpt>
      <trkpt lat="45.09357" lon="5.60005">
        <ele>1461.5</ele>
        <time>2021-08-31T10:34:29Z</time>
      </trkpt>
      <trkpt lat="45.09354" lon="5.60002">
        <ele>1461.4</ele>
        <time>2021-08-31T10:34:30Z</time>
      </trkpt>
      <trkpt lat="45.09353" lon="5.60001">
        <ele>1461.4</ele>
        <time>2021-08-31T10:34:31Z</time>
      </trkpt>
      <trkpt lat="45.09349" lon="5.59999">
        <ele>1461.3</ele>
        <time>2021-08-31T10:34:33Z</time>
      </trkpt>
      <trkpt lat="45.09347" lon="5.59998">
        <ele>1461.3</ele>
        <time>2021-08-31T10:34:35Z</time>
      </trkpt>
      <trkpt lat="45.09345" lon="5.59998">
        <ele>1461.3</ele>
        <time>2021-08-31T10:34:36Z</time>
      </trkpt>
      <trkpt lat="45.09343" lon="5.59999">
        <ele>1461.2</ele>
        <time>2021-08-31T10:34:37Z</time>
      </trkpt>
      <trkpt lat="45.0934" lon="5.60001">
        <ele>1461.2</ele>
        <time>2021-08-31T10:34:38Z</time>
      </trkpt>
      <trkpt lat="45.09336" lon="5.60003">
        <ele>1461.1</ele>
        <time>2021-08-31T10:34:39Z</time>
      </trkpt>
      <trkpt lat="45.09332" lon="5.60005">
        <ele>1461</ele>
        <time>2021-08-31T10:34:40Z</time>
      </trkpt>
      <trkpt lat="45.09328" lon="5.60007">
        <ele>1460.9</ele>
        <time>2021-08-31T10:34:42Z</time>
      </trkpt>
      <trkpt lat="45.09324" lon="5.60006">
        <ele>1460.8</ele>
        <time>2021-08-31T10:34:43Z</time>
      </trkpt>
      <trkpt lat="45.0932" lon="5.60005">
        <ele>1460.7</ele>
        <time>2021-08-31T10:34:44Z</time>
      </trkpt>
      <trkpt lat="45.09315" lon="5.60003">
        <ele>1460.5</ele>
        <time>2021-08-31T10:34:45Z</time>
      </trkpt>
      <trkpt lat="45.09311" lon="5.60002">
        <ele>1460.4</ele>
        <time>2021-08-31T10:34:47Z</time>
      </trkpt>
      <trkpt lat="45.09305" lon="5.60001">
        <ele>1460.2</ele>
        <time>2021-08-31T10:34:48Z</time>
      </trkpt>
      <trkpt lat="45.09301" lon="5.6">
        <ele>1460</ele>
        <time>2021-08-31T10:34:49Z</time>
      </trkpt>
      <trkpt lat="45.09296" lon="5.59995">
        <ele>1459.8</ele>
        <time>2021-08-31T10:34:50Z</time>
      </trkpt>
      <trkpt lat="45.09285" lon="5.59992">
        <ele>1459.4</ele>
        <time>2021-08-31T10:34:52Z</time>
      </trkpt>
      <trkpt lat="45.0928" lon="5.5999">
        <ele>1459.2</ele>
        <time>2021-08-31T10:34:53Z</time>
      </trkpt>
      <trkpt lat="45.09271" lon="5.5999">
        <ele>1459</ele>
        <time>2021-08-31T10:34:55Z</time>
      </trkpt>
      <trkpt lat="45.09266" lon="5.5999">
        <ele>1458.9</ele>
        <time>2021-08-31T10:34:56Z</time>
      </trkpt>
      <trkpt lat="45.09259" lon="5.59988">
        <ele>1458.8</ele>
        <time>2021-08-31T10:34:57Z</time>
      </trkpt>
      <trkpt lat="45.09255" lon="5.59986">
        <ele>1458.7</ele>
        <time>2021-08-31T10:34:59Z</time>
      </trkpt>
      <trkpt lat="45.09253" lon="5.59985">
        <ele>1458.7</ele>
        <time>2021-08-31T10:35:00Z</time>
      </trkpt>
      <trkpt lat="45.0925" lon="5.59983">
        <ele>1458.7</ele>
        <time>2021-08-31T10:35:02Z</time>
      </trkpt>
      <trkpt lat="45.09245" lon="5.59982">
        <ele>1457.8</ele>
        <time>2021-08-31T10:35:03Z</time>
      </trkpt>
      <trkpt lat="45.09243" lon="5.59981">
        <ele>1457.5</ele>
        <time>2021-08-31T10:35:04Z</time>
      </trkpt>
      <trkpt lat="45.09238" lon="5.59979">
        <ele>1456.6</ele>
        <time>2021-08-31T10:35:05Z</time>
      </trkpt>
      <trkpt lat="45.09233" lon="5.59977">
        <ele>1455.6</ele>
        <time>2021-08-31T10:35:06Z</time>
      </trkpt>
      <trkpt lat="45.09229" lon="5.59977">
        <ele>1454.9</ele>
        <time>2021-08-31T10:35:08Z</time>
      </trkpt>
      <trkpt lat="45.09222" lon="5.59977">
        <ele>1453.5</ele>
        <time>2021-08-31T10:35:09Z</time>
      </trkpt>
      <trkpt lat="45.09214" lon="5.5998">
        <ele>1452.4</ele>
        <time>2021-08-31T10:35:11Z</time>
      </trkpt>
      <trkpt lat="45.0921" lon="5.59983">
        <ele>1451.8</ele>
        <time>2021-08-31T10:35:12Z</time>
      </trkpt>
      <trkpt lat="45.09205" lon="5.5999">
        <ele>1451.1</ele>
        <time>2021-08-31T10:35:13Z</time>
      </trkpt>
      <trkpt lat="45.09201" lon="5.59997">
        <ele>1450.7</ele>
        <time>2021-08-31T10:35:15Z</time>
      </trkpt>
      <trkpt lat="45.09198" lon="5.60002">
        <ele>1450.3</ele>
        <time>2021-08-31T10:35:16Z</time>
      </trkpt>
      <trkpt lat="45.09196" lon="5.60007">
        <ele>1450.1</ele>
        <time>2021-08-31T10:35:17Z</time>
      </trkpt>
      <trkpt lat="45.09193" lon="5.60016">
        <ele>1450</ele>
        <time>2021-08-31T10:35:18Z</time>
      </trkpt>
      <trkpt lat="45.0919" lon="5.60024">
        <ele>1449.9</ele>
        <time>2021-08-31T10:35:20Z</time>
      </trkpt>
      <trkpt lat="45.09185" lon="5.60032">
        <ele>1449.5</ele>
        <time>2021-08-31T10:35:21Z</time>
      </trkpt>
      <trkpt lat="45.09181" lon="5.60038">
        <ele>1449.4</ele>
        <time>2021-08-31T10:35:22Z</time>
      </trkpt>
      <trkpt lat="45.09179" lon="5.60041">
        <ele>1449.2</ele>
        <time>2021-08-31T10:35:24Z</time>
      </trkpt>
      <trkpt lat="45.09177" lon="5.60045">
        <ele>1448.9</ele>
        <time>2021-08-31T10:35:25Z</time>
      </trkpt>
      <trkpt lat="45.09173" lon="5.60047">
        <ele>1448.5</ele>
        <time>2021-08-31T10:35:27Z</time>
      </trkpt>
      <trkpt lat="45.09172" lon="5.60046">
        <ele>1448.2</ele>
        <time>2021-08-31T10:35:28Z</time>
      </trkpt>
      <trkpt lat="45.0917" lon="5.60046">
        <ele>1447.8</ele>
        <time>2021-08-31T10:35:29Z</time>
      </trkpt>
      <trkpt lat="45.09169" lon="5.60045">
        <ele>1447.5</ele>
        <time>2021-08-31T10:35:31Z</time>
      </trkpt>
      <trkpt lat="45.09169" lon="5.60042">
        <ele>1447.1</ele>
        <time>2021-08-31T10:35:32Z</time>
      </trkpt>
      <trkpt lat="45.09167" lon="5.60041">
        <ele>1446.6</ele>
        <time>2021-08-31T10:35:34Z</time>
      </trkpt>
      <trkpt lat="45.09165" lon="5.6004">
        <ele>1446.4</ele>
        <time>2021-08-31T10:35:36Z</time>
      </trkpt>
      <trkpt lat="45.09163" lon="5.60039">
        <ele>1446</ele>
        <time>2021-08-31T10:35:37Z</time>
      </trkpt>
      <trkpt lat="45.09161" lon="5.60039">
        <ele>1445.6</ele>
        <time>2021-08-31T10:35:39Z</time>
      </trkpt>
      <trkpt lat="45.09159" lon="5.60038">
        <ele>1445.3</ele>
        <time>2021-08-31T10:35:40Z</time>
      </trkpt>
      <trkpt lat="45.09157" lon="5.60038">
        <ele>1445</ele>
        <time>2021-08-31T10:35:42Z</time>
      </trkpt>
      <trkpt lat="45.09155" lon="5.60037">
        <ele>1444.7</ele>
        <time>2021-08-31T10:36:34Z</time>
      </trkpt>
      <trkpt lat="45.09154" lon="5.60037">
        <ele>1444.2</ele>
        <time>2021-08-31T10:36:35Z</time>
      </trkpt>
      <trkpt lat="45.0915" lon="5.60039">
        <ele>1444</ele>
        <time>2021-08-31T10:36:36Z</time>
      </trkpt>
      <trkpt lat="45.09146" lon="5.60041">
        <ele>1443.7</ele>
        <time>2021-08-31T10:36:38Z</time>
      </trkpt>
      <trkpt lat="45.09142" lon="5.60046">
        <ele>1443.4</ele>
        <time>2021-08-31T10:36:39Z</time>
      </trkpt>
      <trkpt lat="45.09139" lon="5.60048">
        <ele>1443.1</ele>
        <time>2021-08-31T10:36:41Z</time>
      </trkpt>
      <trkpt lat="45.09137" lon="5.60051">
        <ele>1442.8</ele>
        <time>2021-08-31T10:36:43Z</time>
      </trkpt>
      <trkpt lat="45.09134" lon="5.60054">
        <ele>1442.7</ele>
        <time>2021-08-31T10:36:44Z</time>
      </trkpt>
      <trkpt lat="45.09132" lon="5.60056">
        <ele>1442.3</ele>
        <time>2021-08-31T10:36:45Z</time>
      </trkpt>
      <trkpt lat="45.09131" lon="5.60056">
        <ele>1442.1</ele>
        <time>2021-08-31T10:36:47Z</time>
      </trkpt>
      <trkpt lat="45.09128" lon="5.60057">
        <ele>1441.7</ele>
        <time>2021-08-31T10:36:48Z</time>
      </trkpt>
      <trkpt lat="45.09124" lon="5.60056">
        <ele>1441.3</ele>
        <time>2021-08-31T10:36:49Z</time>
      </trkpt>
      <trkpt lat="45.09121" lon="5.60057">
        <ele>1441</ele>
        <time>2021-08-31T10:36:50Z</time>
      </trkpt>
      <trkpt lat="45.09118" lon="5.60056">
        <ele>1440.7</ele>
        <time>2021-08-31T10:36:52Z</time>
      </trkpt>
      <trkpt lat="45.09112" lon="5.6005">
        <ele>1440.2</ele>
        <time>2021-08-31T10:36:54Z</time>
      </trkpt>
      <trkpt lat="45.09103" lon="5.60041">
        <ele>1439.5</ele>
        <time>2021-08-31T10:36:55Z</time>
      </trkpt>
      <trkpt lat="45.09093" lon="5.60033">
        <ele>1438.7</ele>
        <time>2021-08-31T10:36:57Z</time>
      </trkpt>
      <trkpt lat="45.09086" lon="5.6003">
        <ele>1438.7</ele>
        <time>2021-08-31T10:36:58Z</time>
      </trkpt>
      <trkpt lat="45.0908" lon="5.60029">
        <ele>1438.6</ele>
        <time>2021-08-31T10:36:59Z</time>
      </trkpt>
      <trkpt lat="45.09075" lon="5.60029">
        <ele>1438.5</ele>
        <time>2021-08-31T10:37:01Z</time>
      </trkpt>
      <trkpt lat="45.0907" lon="5.60031">
        <ele>1438.5</ele>
        <time>2021-08-31T10:37:02Z</time>
      </trkpt>
      <trkpt lat="45.09066" lon="5.60032">
        <ele>1438.4</ele>
        <time>2021-08-31T10:37:04Z</time>
      </trkpt>
      <trkpt lat="45.09062" lon="5.60033">
        <ele>1438.3</ele>
        <time>2021-08-31T10:37:05Z</time>
      </trkpt>
      <trkpt lat="45.09059" lon="5.60034">
        <ele>1438.2</ele>
        <time>2021-08-31T10:37:07Z</time>
      </trkpt>
      <trkpt lat="45.09057" lon="5.60035">
        <ele>1438.2</ele>
        <time>2021-08-31T10:37:08Z</time>
      </trkpt>
      <trkpt lat="45.09051" lon="5.60039">
        <ele>1438.1</ele>
        <time>2021-08-31T10:37:09Z</time>
      </trkpt>
      <trkpt lat="45.09046" lon="5.60041">
        <ele>1438.1</ele>
        <time>2021-08-31T10:37:11Z</time>
      </trkpt>
      <trkpt lat="45.0904" lon="5.60042">
        <ele>1438.1</ele>
        <time>2021-08-31T10:37:12Z</time>
      </trkpt>
      <trkpt lat="45.09037" lon="5.60041">
        <ele>1438.2</ele>
        <time>2021-08-31T10:37:13Z</time>
      </trkpt>
      <trkpt lat="45.09033" lon="5.60041">
        <ele>1438.3</ele>
        <time>2021-08-31T10:37:15Z</time>
      </trkpt>
      <trkpt lat="45.09031" lon="5.6004">
        <ele>1438.4</ele>
        <time>2021-08-31T10:37:16Z</time>
      </trkpt>
      <trkpt lat="45.09027" lon="5.60038">
        <ele>1438.5</ele>
        <time>2021-08-31T10:37:18Z</time>
      </trkpt>
      <trkpt lat="45.09024" lon="5.60036">
        <ele>1438.6</ele>
        <time>2021-08-31T10:37:19Z</time>
      </trkpt>
      <trkpt lat="45.09021" lon="5.60033">
        <ele>1438.7</ele>
        <time>2021-08-31T10:37:21Z</time>
      </trkpt>
      <trkpt lat="45.09017" lon="5.60029">
        <ele>1438.7</ele>
        <time>2021-08-31T10:37:22Z</time>
      </trkpt>
      <trkpt lat="45.09015" lon="5.60027">
        <ele>1438.7</ele>
        <time>2021-08-31T10:37:23Z</time>
      </trkpt>
      <trkpt lat="45.09014" lon="5.60026">
        <ele>1438.7</ele>
        <time>2021-08-31T10:37:25Z</time>
      </trkpt>
      <trkpt lat="45.09011" lon="5.6002">
        <ele>1438.5</ele>
        <time>2021-08-31T10:37:26Z</time>
      </trkpt>
      <trkpt lat="45.09009" lon="5.60017">
        <ele>1438.4</ele>
        <time>2021-08-31T10:37:27Z</time>
      </trkpt>
      <trkpt lat="45.09003" lon="5.60012">
        <ele>1438.1</ele>
        <time>2021-08-31T10:37:28Z</time>
      </trkpt>
      <trkpt lat="45.08999" lon="5.60009">
        <ele>1437.9</ele>
        <time>2021-08-31T10:37:30Z</time>
      </trkpt>
      <trkpt lat="45.08994" lon="5.60007">
        <ele>1437.7</ele>
        <time>2021-08-31T10:37:31Z</time>
      </trkpt>
      <trkpt lat="45.08991" lon="5.60007">
        <ele>1437.6</ele>
        <time>2021-08-31T10:37:33Z</time>
      </trkpt>
      <trkpt lat="45.08987" lon="5.60006">
        <ele>1437.6</ele>
        <time>2021-08-31T10:37:34Z</time>
      </trkpt>
      <trkpt lat="45.08984" lon="5.60006">
        <ele>1437.6</ele>
        <time>2021-08-31T10:37:36Z</time>
      </trkpt>
      <trkpt lat="45.08983" lon="5.60005">
        <ele>1437.6</ele>
        <time>2021-08-31T10:37:37Z</time>
      </trkpt>
      <trkpt lat="45.0898" lon="5.60001">
        <ele>1437.6</ele>
        <time>2021-08-31T10:37:39Z</time>
      </trkpt>
      <trkpt lat="45.08979" lon="5.59997">
        <ele>1437.6</ele>
        <time>2021-08-31T10:37:40Z</time>
      </trkpt>
      <trkpt lat="45.08977" lon="5.59994">
        <ele>1437.7</ele>
        <time>2021-08-31T10:37:41Z</time>
      </trkpt>
      <trkpt lat="45.08973" lon="5.59985">
        <ele>1437.8</ele>
        <time>2021-08-31T10:37:43Z</time>
      </trkpt>
      <trkpt lat="45.08969" lon="5.59978">
        <ele>1437.8</ele>
        <time>2021-08-31T10:37:44Z</time>
      </trkpt>
      <trkpt lat="45.08964" lon="5.59968">
        <ele>1437.8</ele>
        <time>2021-08-31T10:37:45Z</time>
      </trkpt>
      <trkpt lat="45.0896" lon="5.59961">
        <ele>1437.9</ele>
        <time>2021-08-31T10:37:46Z</time>
      </trkpt>
      <trkpt lat="45.08953" lon="5.59952">
        <ele>1438</ele>
        <time>2021-08-31T10:37:48Z</time>
      </trkpt>
      <trkpt lat="45.08948" lon="5.59944">
        <ele>1438</ele>
        <time>2021-08-31T10:37:50Z</time>
      </trkpt>
      <trkpt lat="45.08945" lon="5.59941">
        <ele>1438.1</ele>
        <time>2021-08-31T10:37:51Z</time>
      </trkpt>
      <trkpt lat="45.08942" lon="5.59935">
        <ele>1438</ele>
        <time>2021-08-31T10:37:52Z</time>
      </trkpt>
      <trkpt lat="45.08943" lon="5.59931">
        <ele>1438</ele>
        <time>2021-08-31T10:37:53Z</time>
      </trkpt>
      <trkpt lat="45.08945" lon="5.5993">
        <ele>1438</ele>
        <time>2021-08-31T10:37:55Z</time>
      </trkpt>
      <trkpt lat="45.08946" lon="5.59929">
        <ele>1438</ele>
        <time>2021-08-31T10:37:56Z</time>
      </trkpt>
      <trkpt lat="45.08947" lon="5.59927">
        <ele>1437.9</ele>
        <time>2021-08-31T10:37:57Z</time>
      </trkpt>
      <trkpt lat="45.08949" lon="5.59923">
        <ele>1437.8</ele>
        <time>2021-08-31T10:37:58Z</time>
      </trkpt>
      <trkpt lat="45.08948" lon="5.59922">
        <ele>1437.8</ele>
        <time>2021-08-31T10:38:00Z</time>
      </trkpt>
      <trkpt lat="45.08948" lon="5.59921">
        <ele>1437.8</ele>
        <time>2021-08-31T10:38:01Z</time>
      </trkpt>
      <trkpt lat="45.08948" lon="5.5992">
        <ele>1437.7</ele>
        <time>2021-08-31T10:38:03Z</time>
      </trkpt>
      <trkpt lat="45.08947" lon="5.59918">
        <ele>1437.7</ele>
        <time>2021-08-31T10:38:04Z</time>
      </trkpt>
      <trkpt lat="45.08947" lon="5.59917">
        <ele>1437.7</ele>
        <time>2021-08-31T10:38:05Z</time>
      </trkpt>
      <trkpt lat="45.08945" lon="5.5991">
        <ele>1437.4</ele>
        <time>2021-08-31T10:38:07Z</time>
      </trkpt>
      <trkpt lat="45.08945" lon="5.59907">
        <ele>1437.3</ele>
        <time>2021-08-31T10:38:08Z</time>
      </trkpt>
      <trkpt lat="45.08945" lon="5.59904">
        <ele>1437.2</ele>
        <time>2021-08-31T10:38:09Z</time>
      </trkpt>
      <trkpt lat="45.08944" lon="5.59898">
        <ele>1436.9</ele>
        <time>2021-08-31T10:38:10Z</time>
      </trkpt>
      <trkpt lat="45.08941" lon="5.59891">
        <ele>1436.5</ele>
        <time>2021-08-31T10:38:12Z</time>
      </trkpt>
      <trkpt lat="45.08938" lon="5.59883">
        <ele>1436</ele>
        <time>2021-08-31T10:38:13Z</time>
      </trkpt>
      <trkpt lat="45.08937" lon="5.59879">
        <ele>1435.7</ele>
        <time>2021-08-31T10:38:14Z</time>
      </trkpt>
      <trkpt lat="45.08933" lon="5.59875">
        <ele>1435.2</ele>
        <time>2021-08-31T10:38:16Z</time>
      </trkpt>
      <trkpt lat="45.08931" lon="5.59875">
        <ele>1435</ele>
        <time>2021-08-31T10:38:17Z</time>
      </trkpt>
      <trkpt lat="45.08928" lon="5.59875">
        <ele>1434.7</ele>
        <time>2021-08-31T10:38:20Z</time>
      </trkpt>
      <trkpt lat="45.08927" lon="5.59874">
        <ele>1434.6</ele>
        <time>2021-08-31T10:38:21Z</time>
      </trkpt>
      <trkpt lat="45.08926" lon="5.59863">
        <ele>1433.9</ele>
        <time>2021-08-31T10:38:22Z</time>
      </trkpt>
      <trkpt lat="45.08926" lon="5.59853">
        <ele>1433.1</ele>
        <time>2021-08-31T10:38:23Z</time>
      </trkpt>
      <trkpt lat="45.08925" lon="5.59842">
        <ele>1432.3</ele>
        <time>2021-08-31T10:38:24Z</time>
      </trkpt>
      <trkpt lat="45.08925" lon="5.59831">
        <ele>1431.4</ele>
        <time>2021-08-31T10:38:46Z</time>
      </trkpt>
      <trkpt lat="45.08924" lon="5.59821">
        <ele>1430.5</ele>
        <time>2021-08-31T10:38:47Z</time>
      </trkpt>
      <trkpt lat="45.08929" lon="5.59815">
        <ele>1429.7</ele>
        <time>2021-08-31T10:38:49Z</time>
      </trkpt>
      <trkpt lat="45.08933" lon="5.59808">
        <ele>1428.7</ele>
        <time>2021-08-31T10:38:50Z</time>
      </trkpt>
      <trkpt lat="45.08935" lon="5.59802">
        <ele>1427.9</ele>
        <time>2021-08-31T10:38:52Z</time>
      </trkpt>
      <trkpt lat="45.08937" lon="5.59797">
        <ele>1427.1</ele>
        <time>2021-08-31T10:38:53Z</time>
      </trkpt>
      <trkpt lat="45.08938" lon="5.59792">
        <ele>1426.5</ele>
        <time>2021-08-31T10:38:54Z</time>
      </trkpt>
      <trkpt lat="45.0894" lon="5.59789">
        <ele>1425.9</ele>
        <time>2021-08-31T10:38:55Z</time>
      </trkpt>
      <trkpt lat="45.08943" lon="5.59787">
        <ele>1425.4</ele>
        <time>2021-08-31T10:38:56Z</time>
      </trkpt>
      <trkpt lat="45.08947" lon="5.59784">
        <ele>1424.5</ele>
        <time>2021-08-31T10:38:57Z</time>
      </trkpt>
      <trkpt lat="45.08949" lon="5.5978">
        <ele>1423.9</ele>
        <time>2021-08-31T10:38:59Z</time>
      </trkpt>
      <trkpt lat="45.08952" lon="5.59778">
        <ele>1423.4</ele>
        <time>2021-08-31T10:39:00Z</time>
      </trkpt>
      <trkpt lat="45.08956" lon="5.59777">
        <ele>1422.8</ele>
        <time>2021-08-31T10:39:02Z</time>
      </trkpt>
      <trkpt lat="45.08957" lon="5.59778">
        <ele>1422.6</ele>
        <time>2021-08-31T10:39:03Z</time>
      </trkpt>
      <trkpt lat="45.08958" lon="5.59778">
        <ele>1422.4</ele>
        <time>2021-08-31T10:39:04Z</time>
      </trkpt>
      <trkpt lat="45.0896" lon="5.5978">
        <ele>1422.2</ele>
        <time>2021-08-31T10:39:06Z</time>
      </trkpt>
      <trkpt lat="45.0896" lon="5.5978">
        <ele>1422.2</ele>
        <time>2021-08-31T10:39:07Z</time>
      </trkpt>
      <trkpt lat="45.0896" lon="5.59779">
        <ele>1422.2</ele>
        <time>2021-08-31T10:39:08Z</time>
      </trkpt>
      <trkpt lat="45.0896" lon="5.59779">
        <ele>1422.2</ele>
        <time>2021-08-31T10:39:10Z</time>
      </trkpt>
      <trkpt lat="45.0896" lon="5.59778">
        <ele>1422.1</ele>
        <time>2021-08-31T10:39:11Z</time>
      </trkpt>
      <trkpt lat="45.08959" lon="5.59776">
        <ele>1421.9</ele>
        <time>2021-08-31T10:39:12Z</time>
      </trkpt>
      <trkpt lat="45.08959" lon="5.59774">
        <ele>1421.7</ele>
        <time>2021-08-31T10:39:13Z</time>
      </trkpt>
      <trkpt lat="45.08943" lon="5.59704">
        <ele>1420.7</ele>
        <time>2021-08-31T10:40:36Z</time>
      </trkpt>
      <trkpt lat="45.0894" lon="5.59693">
        <ele>1420.4</ele>
        <time>2021-08-31T10:40:38Z</time>
      </trkpt>
      <trkpt lat="45.08937" lon="5.59683">
        <ele>1420.1</ele>
        <time>2021-08-31T10:40:39Z</time>
      </trkpt>
      <trkpt lat="45.08936" lon="5.59676">
        <ele>1420</ele>
        <time>2021-08-31T10:40:40Z</time>
      </trkpt>
      <trkpt lat="45.08936" lon="5.59667">
        <ele>1420</ele>
        <time>2021-08-31T10:40:42Z</time>
      </trkpt>
      <trkpt lat="45.08937" lon="5.59662">
        <ele>1420</ele>
        <time>2021-08-31T10:40:43Z</time>
      </trkpt>
      <trkpt lat="45.08938" lon="5.59659">
        <ele>1420.1</ele>
        <time>2021-08-31T10:40:44Z</time>
      </trkpt>
      <trkpt lat="45.08939" lon="5.59656">
        <ele>1420.1</ele>
        <time>2021-08-31T10:40:46Z</time>
      </trkpt>
      <trkpt lat="45.0894" lon="5.59653">
        <ele>1420.1</ele>
        <time>2021-08-31T10:40:47Z</time>
      </trkpt>
      <trkpt lat="45.0894" lon="5.5965">
        <ele>1420.2</ele>
        <time>2021-08-31T10:40:49Z</time>
      </trkpt>
      <trkpt lat="45.08942" lon="5.59647">
        <ele>1420.2</ele>
        <time>2021-08-31T10:40:50Z</time>
      </trkpt>
      <trkpt lat="45.08943" lon="5.59646">
        <ele>1420.2</ele>
        <time>2021-08-31T10:40:52Z</time>
      </trkpt>
      <trkpt lat="45.08944" lon="5.59644">
        <ele>1420.2</ele>
        <time>2021-08-31T10:40:53Z</time>
      </trkpt>
      <trkpt lat="45.08945" lon="5.59639">
        <ele>1420.2</ele>
        <time>2021-08-31T10:40:55Z</time>
      </trkpt>
      <trkpt lat="45.08945" lon="5.59637">
        <ele>1420.2</ele>
        <time>2021-08-31T10:40:56Z</time>
      </trkpt>
      <trkpt lat="45.08945" lon="5.59635">
        <ele>1420.2</ele>
        <time>2021-08-31T10:40:57Z</time>
      </trkpt>
      <trkpt lat="45.08945" lon="5.59633">
        <ele>1420.2</ele>
        <time>2021-08-31T10:40:58Z</time>
      </trkpt>
      <trkpt lat="45.08945" lon="5.59631">
        <ele>1420.1</ele>
        <time>2021-08-31T10:40:59Z</time>
      </trkpt>
      <trkpt lat="45.08945" lon="5.59628">
        <ele>1420.1</ele>
        <time>2021-08-31T10:41:01Z</time>
      </trkpt>
      <trkpt lat="45.08943" lon="5.59626">
        <ele>1420</ele>
        <time>2021-08-31T10:41:02Z</time>
      </trkpt>
      <trkpt lat="45.08943" lon="5.59625">
        <ele>1420</ele>
        <time>2021-08-31T10:41:03Z</time>
      </trkpt>
      <trkpt lat="45.08942" lon="5.59621">
        <ele>1419.9</ele>
        <time>2021-08-31T10:41:05Z</time>
      </trkpt>
      <trkpt lat="45.0894" lon="5.59618">
        <ele>1419.8</ele>
        <time>2021-08-31T10:41:07Z</time>
      </trkpt>
      <trkpt lat="45.08939" lon="5.59616">
        <ele>1419.8</ele>
        <time>2021-08-31T10:41:08Z</time>
      </trkpt>
      <trkpt lat="45.08939" lon="5.59614">
        <ele>1419.7</ele>
        <time>2021-08-31T10:41:09Z</time>
      </trkpt>
      <trkpt lat="45.08941" lon="5.59613">
        <ele>1419.6</ele>
        <time>2021-08-31T10:41:11Z</time>
      </trkpt>
      <trkpt lat="45.08943" lon="5.59614">
        <ele>1419.5</ele>
        <time>2021-08-31T10:41:12Z</time>
      </trkpt>
      <trkpt lat="45.08944" lon="5.59615">
        <ele>1419.5</ele>
        <time>2021-08-31T10:41:13Z</time>
      </trkpt>
      <trkpt lat="45.08944" lon="5.59617">
        <ele>1419.4</ele>
        <time>2021-08-31T10:41:14Z</time>
      </trkpt>
      <trkpt lat="45.08945" lon="5.59619">
        <ele>1419.3</ele>
        <time>2021-08-31T10:41:15Z</time>
      </trkpt>
      <trkpt lat="45.08945" lon="5.5962">
        <ele>1419.3</ele>
        <time>2021-08-31T10:41:17Z</time>
      </trkpt>
      <trkpt lat="45.08945" lon="5.59621">
        <ele>1419.2</ele>
        <time>2021-08-31T10:41:18Z</time>
      </trkpt>
      <trkpt lat="45.08945" lon="5.59623">
        <ele>1419.1</ele>
        <time>2021-08-31T10:41:20Z</time>
      </trkpt>
      <trkpt lat="45.08943" lon="5.59625">
        <ele>1418.9</ele>
        <time>2021-08-31T10:41:22Z</time>
      </trkpt>
      <trkpt lat="45.08942" lon="5.59627">
        <ele>1418.7</ele>
        <time>2021-08-31T10:41:24Z</time>
      </trkpt>
      <trkpt lat="45.08942" lon="5.59628">
        <ele>1418.7</ele>
        <time>2021-08-31T10:41:26Z</time>
      </trkpt>
      <trkpt lat="45.08934" lon="5.59631">
        <ele>1417.5</ele>
        <time>2021-08-31T10:41:30Z</time>
      </trkpt>
      <trkpt lat="45.08931" lon="5.59628">
        <ele>1416.8</ele>
        <time>2021-08-31T10:41:32Z</time>
      </trkpt>
      <trkpt lat="45.08927" lon="5.59627">
        <ele>1416.1</ele>
        <time>2021-08-31T10:41:34Z</time>
      </trkpt>
      <trkpt lat="45.08917" lon="5.59631">
        <ele>1413.7</ele>
        <time>2021-08-31T10:41:36Z</time>
      </trkpt>
      <trkpt lat="45.08915" lon="5.59632">
        <ele>1413.1</ele>
        <time>2021-08-31T10:41:38Z</time>
      </trkpt>
      <trkpt lat="45.08913" lon="5.59632">
        <ele>1412.8</ele>
        <time>2021-08-31T10:41:39Z</time>
      </trkpt>
      <trkpt lat="45.08911" lon="5.59633">
        <ele>1412.2</ele>
        <time>2021-08-31T10:41:41Z</time>
      </trkpt>
      <trkpt lat="45.08909" lon="5.59633">
        <ele>1411.9</ele>
        <time>2021-08-31T10:41:43Z</time>
      </trkpt>
      <trkpt lat="45.0887" lon="5.59622">
        <ele>1406.6</ele>
        <time>2021-08-31T10:42:02Z</time>
      </trkpt>
      <trkpt lat="45.08869" lon="5.5962">
        <ele>1406.4</ele>
        <time>2021-08-31T10:42:03Z</time>
      </trkpt>
      <trkpt lat="45.08868" lon="5.59618">
        <ele>1406.2</ele>
        <time>2021-08-31T10:42:05Z</time>
      </trkpt>
      <trkpt lat="45.08866" lon="5.59614">
        <ele>1406</ele>
        <time>2021-08-31T10:42:06Z</time>
      </trkpt>
      <trkpt lat="45.08866" lon="5.59613">
        <ele>1405.9</ele>
        <time>2021-08-31T10:42:07Z</time>
      </trkpt>
      <trkpt lat="45.08865" lon="5.5961">
        <ele>1405.8</ele>
        <time>2021-08-31T10:42:08Z</time>
      </trkpt>
      <trkpt lat="45.08865" lon="5.59604">
        <ele>1405.5</ele>
        <time>2021-08-31T10:42:10Z</time>
      </trkpt>
      <trkpt lat="45.08865" lon="5.596">
        <ele>1405.3</ele>
        <time>2021-08-31T10:42:11Z</time>
      </trkpt>
      <trkpt lat="45.08865" lon="5.59598">
        <ele>1405.3</ele>
        <time>2021-08-31T10:42:12Z</time>
      </trkpt>
      <trkpt lat="45.08862" lon="5.59574">
        <ele>1404.3</ele>
        <time>2021-08-31T10:42:14Z</time>
      </trkpt>
      <trkpt lat="45.08859" lon="5.59563">
        <ele>1403.8</ele>
        <time>2021-08-31T10:42:15Z</time>
      </trkpt>
      <trkpt lat="45.08856" lon="5.59555">
        <ele>1403.5</ele>
        <time>2021-08-31T10:42:16Z</time>
      </trkpt>
      <trkpt lat="45.08851" lon="5.59545">
        <ele>1403.1</ele>
        <time>2021-08-31T10:42:18Z</time>
      </trkpt>
      <trkpt lat="45.08848" lon="5.59541">
        <ele>1402.9</ele>
        <time>2021-08-31T10:42:19Z</time>
      </trkpt>
      <trkpt lat="45.08847" lon="5.59538">
        <ele>1402.8</ele>
        <time>2021-08-31T10:42:21Z</time>
      </trkpt>
      <trkpt lat="45.08845" lon="5.59535">
        <ele>1402.7</ele>
        <time>2021-08-31T10:42:22Z</time>
      </trkpt>
      <trkpt lat="45.08843" lon="5.59533">
        <ele>1402.7</ele>
        <time>2021-08-31T10:42:24Z</time>
      </trkpt>
      <trkpt lat="45.08842" lon="5.59532">
        <ele>1402.7</ele>
        <time>2021-08-31T10:42:26Z</time>
      </trkpt>
      <trkpt lat="45.08846" lon="5.59532">
        <ele>1402.6</ele>
        <time>2021-08-31T10:42:27Z</time>
      </trkpt>
      <trkpt lat="45.08847" lon="5.59532">
        <ele>1402.6</ele>
        <time>2021-08-31T10:42:28Z</time>
      </trkpt>
      <trkpt lat="45.08692" lon="5.59563">
        <ele>1392</ele>
        <time>2021-08-31T10:44:28Z</time>
      </trkpt>
      <trkpt lat="45.08689" lon="5.59564">
        <ele>1392</ele>
        <time>2021-08-31T10:44:29Z</time>
      </trkpt>
      <trkpt lat="45.08685" lon="5.59563">
        <ele>1392.1</ele>
        <time>2021-08-31T10:44:31Z</time>
      </trkpt>
      <trkpt lat="45.08682" lon="5.59562">
        <ele>1392.1</ele>
        <time>2021-08-31T10:44:32Z</time>
      </trkpt>
      <trkpt lat="45.0868" lon="5.59561">
        <ele>1392.2</ele>
        <time>2021-08-31T10:44:33Z</time>
      </trkpt>
      <trkpt lat="45.08676" lon="5.5956">
        <ele>1392.2</ele>
        <time>2021-08-31T10:44:34Z</time>
      </trkpt>
      <trkpt lat="45.08673" lon="5.5956">
        <ele>1392.3</ele>
        <time>2021-08-31T10:44:35Z</time>
      </trkpt>
      <trkpt lat="45.08669" lon="5.59561">
        <ele>1392.3</ele>
        <time>2021-08-31T10:44:37Z</time>
      </trkpt>
      <trkpt lat="45.08665" lon="5.59561">
        <ele>1392.4</ele>
        <time>2021-08-31T10:44:38Z</time>
      </trkpt>
      <trkpt lat="45.08661" lon="5.59563">
        <ele>1392.5</ele>
        <time>2021-08-31T10:44:40Z</time>
      </trkpt>
      <trkpt lat="45.08657" lon="5.59563">
        <ele>1392.5</ele>
        <time>2021-08-31T10:44:41Z</time>
      </trkpt>
      <trkpt lat="45.08654" lon="5.59563">
        <ele>1392.5</ele>
        <time>2021-08-31T10:44:42Z</time>
      </trkpt>
      <trkpt lat="45.0865" lon="5.59564">
        <ele>1392.6</ele>
        <time>2021-08-31T10:44:44Z</time>
      </trkpt>
      <trkpt lat="45.08647" lon="5.59566">
        <ele>1392.6</ele>
        <time>2021-08-31T10:44:45Z</time>
      </trkpt>
      <trkpt lat="45.08644" lon="5.59567">
        <ele>1392.1</ele>
        <time>2021-08-31T10:44:46Z</time>
      </trkpt>
      <trkpt lat="45.08643" lon="5.59567">
        <ele>1391.8</ele>
        <time>2021-08-31T10:44:47Z</time>
      </trkpt>
      <trkpt lat="45.08642" lon="5.59569">
        <ele>1391.7</ele>
        <time>2021-08-31T10:44:49Z</time>
      </trkpt>
      <trkpt lat="45.08641" lon="5.5957">
        <ele>1391.4</ele>
        <time>2021-08-31T10:44:50Z</time>
      </trkpt>
      <trkpt lat="45.08641" lon="5.59571">
        <ele>1391.1</ele>
        <time>2021-08-31T10:44:52Z</time>
      </trkpt>
      <trkpt lat="45.08641" lon="5.59571">
        <ele>1390.8</ele>
        <time>2021-08-31T10:44:53Z</time>
      </trkpt>
      <trkpt lat="45.08641" lon="5.59571">
        <ele>1390.6</ele>
        <time>2021-08-31T10:44:54Z</time>
      </trkpt>
      <trkpt lat="45.08641" lon="5.59571">
        <ele>1390.3</ele>
        <time>2021-08-31T10:44:55Z</time>
      </trkpt>
      <trkpt lat="45.08641" lon="5.59571">
        <ele>1390</ele>
        <time>2021-08-31T10:44:56Z</time>
      </trkpt>
      <trkpt lat="45.08565" lon="5.59517">
        <ele>1376.9</ele>
        <time>2021-08-31T10:48:09Z</time>
      </trkpt>
      <trkpt lat="45.08548" lon="5.59465">
        <ele>1366.7</ele>
        <time>2021-08-31T10:48:11Z</time>
      </trkpt>
      <trkpt lat="45.08543" lon="5.59453">
        <ele>1364.6</ele>
        <time>2021-08-31T10:48:12Z</time>
      </trkpt>
      <trkpt lat="45.08545" lon="5.59454">
        <ele>1364.3</ele>
        <time>2021-08-31T10:48:13Z</time>
      </trkpt>
      <trkpt lat="45.0855" lon="5.59471">
        <ele>1367.6</ele>
        <time>2021-08-31T10:48:15Z</time>
      </trkpt>
      <trkpt lat="45.08549" lon="5.59481">
        <ele>1367.7</ele>
        <time>2021-08-31T10:48:17Z</time>
      </trkpt>
      <trkpt lat="45.08546" lon="5.59487">
        <ele>1367.2</ele>
        <time>2021-08-31T10:48:18Z</time>
      </trkpt>
      <trkpt lat="45.08545" lon="5.59492">
        <ele>1367.9</ele>
        <time>2021-08-31T10:48:19Z</time>
      </trkpt>
      <trkpt lat="45.08544" lon="5.59497">
        <ele>1368</ele>
        <time>2021-08-31T10:48:20Z</time>
      </trkpt>
      <trkpt lat="45.08543" lon="5.59502">
        <ele>1368.2</ele>
        <time>2021-08-31T10:48:21Z</time>
      </trkpt>
      <trkpt lat="45.08539" lon="5.5953">
        <ele>1369.2</ele>
        <time>2021-08-31T10:48:22Z</time>
      </trkpt>
      <trkpt lat="45.08538" lon="5.59538">
        <ele>1369.4</ele>
        <time>2021-08-31T10:48:24Z</time>
      </trkpt>
      <trkpt lat="45.08538" lon="5.59545">
        <ele>1370.2</ele>
        <time>2021-08-31T10:48:25Z</time>
      </trkpt>
      <trkpt lat="45.08539" lon="5.59551">
        <ele>1370.4</ele>
        <time>2021-08-31T10:48:26Z</time>
      </trkpt>
      <trkpt lat="45.08539" lon="5.59559">
        <ele>1371.2</ele>
        <time>2021-08-31T10:48:27Z</time>
      </trkpt>
      <trkpt lat="45.0854" lon="5.59565">
        <ele>1371.8</ele>
        <time>2021-08-31T10:48:28Z</time>
      </trkpt>
      <trkpt lat="45.08541" lon="5.59584">
        <ele>1374.1</ele>
        <time>2021-08-31T10:48:30Z</time>
      </trkpt>
      <trkpt lat="45.08541" lon="5.59594">
        <ele>1374.7</ele>
        <time>2021-08-31T10:48:31Z</time>
      </trkpt>
      <trkpt lat="45.08541" lon="5.596">
        <ele>1375.2</ele>
        <time>2021-08-31T10:48:32Z</time>
      </trkpt>
      <trkpt lat="45.0854" lon="5.59607">
        <ele>1374.5</ele>
        <time>2021-08-31T10:48:34Z</time>
      </trkpt>
      <trkpt lat="45.08538" lon="5.5961">
        <ele>1374.7</ele>
        <time>2021-08-31T10:48:35Z</time>
      </trkpt>
      <trkpt lat="45.08538" lon="5.59612">
        <ele>1374.4</ele>
        <time>2021-08-31T10:48:36Z</time>
      </trkpt>
      <trkpt lat="45.08536" lon="5.59615">
        <ele>1373.9</ele>
        <time>2021-08-31T10:48:38Z</time>
      </trkpt>
      <trkpt lat="45.0834" lon="5.59757">
        <ele>1355.7</ele>
        <time>2021-08-31T10:49:24Z</time>
      </trkpt>
      <trkpt lat="45.08332" lon="5.59763">
        <ele>1355.2</ele>
        <time>2021-08-31T10:49:25Z</time>
      </trkpt>
      <trkpt lat="45.08325" lon="5.59767">
        <ele>1354.7</ele>
        <time>2021-08-31T10:49:26Z</time>
      </trkpt>
      <trkpt lat="45.08317" lon="5.59772">
        <ele>1354</ele>
        <time>2021-08-31T10:49:28Z</time>
      </trkpt>
      <trkpt lat="45.08313" lon="5.59774">
        <ele>1353.5</ele>
        <time>2021-08-31T10:49:29Z</time>
      </trkpt>
      <trkpt lat="45.08306" lon="5.59777">
        <ele>1352.8</ele>
        <time>2021-08-31T10:49:30Z</time>
      </trkpt>
      <trkpt lat="45.08301" lon="5.5978">
        <ele>1352.1</ele>
        <time>2021-08-31T10:49:31Z</time>
      </trkpt>
      <trkpt lat="45.08297" lon="5.59781">
        <ele>1351.7</ele>
        <time>2021-08-31T10:49:32Z</time>
      </trkpt>
      <trkpt lat="45.08297" lon="5.59778">
        <ele>1351.5</ele>
        <time>2021-08-31T10:49:33Z</time>
      </trkpt>
      <trkpt lat="45.08294" lon="5.5978">
        <ele>1351.1</ele>
        <time>2021-08-31T10:49:34Z</time>
      </trkpt>
      <trkpt lat="45.08292" lon="5.59785">
        <ele>1350.7</ele>
        <time>2021-08-31T10:49:35Z</time>
      </trkpt>
      <trkpt lat="45.08291" lon="5.59788">
        <ele>1350.5</ele>
        <time>2021-08-31T10:49:36Z</time>
      </trkpt>
      <trkpt lat="45.0829" lon="5.59791">
        <ele>1350.2</ele>
        <time>2021-08-31T10:49:38Z</time>
      </trkpt>
      <trkpt lat="45.0829" lon="5.59791">
        <ele>1350.2</ele>
        <time>2021-08-31T10:49:39Z</time>
      </trkpt>
      <trkpt lat="45.0829" lon="5.59791">
        <ele>1350.2</ele>
        <time>2021-08-31T10:49:40Z</time>
      </trkpt>
      <trkpt lat="45.0829" lon="5.59791">
        <ele>1350.1</ele>
        <time>2021-08-31T10:49:42Z</time>
      </trkpt>
      <trkpt lat="45.0829" lon="5.59791">
        <ele>1350.1</ele>
        <time>2021-08-31T10:49:44Z</time>
      </trkpt>
      <trkpt lat="45.08295" lon="5.599">
        <ele>1342.9</ele>
        <time>2021-08-31T10:50:34Z</time>
      </trkpt>
      <trkpt lat="45.08292" lon="5.59896">
        <ele>1342.5</ele>
        <time>2021-08-31T10:50:35Z</time>
      </trkpt>
      <trkpt lat="45.0829" lon="5.59891">
        <ele>1342.2</ele>
        <time>2021-08-31T10:50:36Z</time>
      </trkpt>
      <trkpt lat="45.0829" lon="5.59886">
        <ele>1341.9</ele>
        <time>2021-08-31T10:50:38Z</time>
      </trkpt>
      <trkpt lat="45.08289" lon="5.59879">
        <ele>1341.5</ele>
        <time>2021-08-31T10:50:39Z</time>
      </trkpt>
      <trkpt lat="45.08289" lon="5.59874">
        <ele>1341.2</ele>
        <time>2021-08-31T10:50:40Z</time>
      </trkpt>
      <trkpt lat="45.08289" lon="5.59868">
        <ele>1340.9</ele>
        <time>2021-08-31T10:50:42Z</time>
      </trkpt>
      <trkpt lat="45.08288" lon="5.59859">
        <ele>1340.3</ele>
        <time>2021-08-31T10:50:43Z</time>
      </trkpt>
      <trkpt lat="45.08286" lon="5.59849">
        <ele>1339.3</ele>
        <time>2021-08-31T10:50:45Z</time>
      </trkpt>
      <trkpt lat="45.08285" lon="5.59846">
        <ele>1338.9</ele>
        <time>2021-08-31T10:50:46Z</time>
      </trkpt>
      <trkpt lat="45.08286" lon="5.59844">
        <ele>1338.5</ele>
        <time>2021-08-31T10:50:48Z</time>
      </trkpt>
      <trkpt lat="45.08288" lon="5.59838">
        <ele>1337.5</ele>
        <time>2021-08-31T10:50:50Z</time>
      </trkpt>
      <trkpt lat="45.08248" lon="5.59748">
        <ele>1323.7</ele>
        <time>2021-08-31T10:51:53Z</time>
      </trkpt>
      <trkpt lat="45.08247" lon="5.59745">
        <ele>1323.5</ele>
        <time>2021-08-31T10:51:54Z</time>
      </trkpt>
      <trkpt lat="45.08243" lon="5.59738">
        <ele>1322.9</ele>
        <time>2021-08-31T10:51:55Z</time>
      </trkpt>
      <trkpt lat="45.08234" lon="5.5972">
        <ele>1321.7</ele>
        <time>2021-08-31T10:51:57Z</time>
      </trkpt>
      <trkpt lat="45.08231" lon="5.59714">
        <ele>1321.5</ele>
        <time>2021-08-31T10:51:59Z</time>
      </trkpt>
      <trkpt lat="45.08222" lon="5.59697">
        <ele>1320.9</ele>
        <time>2021-08-31T10:52:00Z</time>
      </trkpt>
      <trkpt lat="45.0821" lon="5.59677">
        <ele>1319.9</ele>
        <time>2021-08-31T10:52:02Z</time>
      </trkpt>
      <trkpt lat="45.08203" lon="5.59668">
        <ele>1319.2</ele>
        <time>2021-08-31T10:52:03Z</time>
      </trkpt>
      <trkpt lat="45.08197" lon="5.59661">
        <ele>1318.5</ele>
        <time>2021-08-31T10:52:04Z</time>
      </trkpt>
      <trkpt lat="45.08192" lon="5.59655">
        <ele>1317.9</ele>
        <time>2021-08-31T10:52:05Z</time>
      </trkpt>
      <trkpt lat="45.08186" lon="5.5965">
        <ele>1317.4</ele>
        <time>2021-08-31T10:52:06Z</time>
      </trkpt>
      <trkpt lat="45.08174" lon="5.59644">
        <ele>1316.9</ele>
        <time>2021-08-31T10:52:08Z</time>
      </trkpt>
      <trkpt lat="45.08169" lon="5.59641">
        <ele>1316.7</ele>
        <time>2021-08-31T10:52:09Z</time>
      </trkpt>
      <trkpt lat="45.08157" lon="5.59635">
        <ele>1316.6</ele>
        <time>2021-08-31T10:52:11Z</time>
      </trkpt>
      <trkpt lat="45.08144" lon="5.59625">
        <ele>1316.8</ele>
        <time>2021-08-31T10:52:13Z</time>
      </trkpt>
      <trkpt lat="45.08132" lon="5.59617">
        <ele>1317.1</ele>
        <time>2021-08-31T10:52:15Z</time>
      </trkpt>
      <trkpt lat="45.08126" lon="5.59613">
        <ele>1317.1</ele>
        <time>2021-08-31T10:52:16Z</time>
      </trkpt>
      <trkpt lat="45.0812" lon="5.59611">
        <ele>1317.1</ele>
        <time>2021-08-31T10:52:17Z</time>
      </trkpt>
      <trkpt lat="45.08109" lon="5.59607">
        <ele>1316.9</ele>
        <time>2021-08-31T10:52:19Z</time>
      </trkpt>
      <trkpt lat="45.08105" lon="5.59605">
        <ele>1316.9</ele>
        <time>2021-08-31T10:52:20Z</time>
      </trkpt>
      <trkpt lat="45.08101" lon="5.59603">
        <ele>1316.9</ele>
        <time>2021-08-31T10:52:21Z</time>
      </trkpt>
      <trkpt lat="45.08099" lon="5.59603">
        <ele>1316.9</ele>
        <time>2021-08-31T10:52:22Z</time>
      </trkpt>
      <trkpt lat="45.08095" lon="5.59602">
        <ele>1316.9</ele>
        <time>2021-08-31T10:52:24Z</time>
      </trkpt>
      <trkpt lat="45.08095" lon="5.59603">
        <ele>1316.9</ele>
        <time>2021-08-31T10:52:25Z</time>
      </trkpt>
      <trkpt lat="45.08091" lon="5.59608">
        <ele>1316.9</ele>
        <time>2021-08-31T10:52:27Z</time>
      </trkpt>
      <trkpt lat="45.08089" lon="5.5961">
        <ele>1317</ele>
        <time>2021-08-31T10:52:28Z</time>
      </trkpt>
      <trkpt lat="45.08086" lon="5.59608">
        <ele>1317</ele>
        <time>2021-08-31T10:52:30Z</time>
      </trkpt>
      <trkpt lat="45.08081" lon="5.59608">
        <ele>1317</ele>
        <time>2021-08-31T10:52:31Z</time>
      </trkpt>
      <trkpt lat="45.08076" lon="5.5961">
        <ele>1317.1</ele>
        <time>2021-08-31T10:52:33Z</time>
      </trkpt>
      <trkpt lat="45.0807" lon="5.5961">
        <ele>1317</ele>
        <time>2021-08-31T10:52:35Z</time>
      </trkpt>
      <trkpt lat="45.08065" lon="5.59609">
        <ele>1316.9</ele>
        <time>2021-08-31T10:52:36Z</time>
      </trkpt>
      <trkpt lat="45.08063" lon="5.59607">
        <ele>1316.8</ele>
        <time>2021-08-31T10:52:37Z</time>
      </trkpt>
      <trkpt lat="45.08059" lon="5.59604">
        <ele>1316.5</ele>
        <time>2021-08-31T10:52:39Z</time>
      </trkpt>
      <trkpt lat="45.08056" lon="5.59602">
        <ele>1316.3</ele>
        <time>2021-08-31T10:52:40Z</time>
      </trkpt>
      <trkpt lat="45.08056" lon="5.596">
        <ele>1316.2</ele>
        <time>2021-08-31T10:52:41Z</time>
      </trkpt>
      <trkpt lat="45.08055" lon="5.596">
        <ele>1316.2</ele>
        <time>2021-08-31T10:52:42Z</time>
      </trkpt>
      <trkpt lat="45.08052" lon="5.59598">
        <ele>1315.9</ele>
        <time>2021-08-31T10:52:44Z</time>
      </trkpt>
      <trkpt lat="45.08049" lon="5.59595">
        <ele>1315.6</ele>
        <time>2021-08-31T10:52:45Z</time>
      </trkpt>
      <trkpt lat="45.08048" lon="5.59595">
        <ele>1315.5</ele>
        <time>2021-08-31T10:52:46Z</time>
      </trkpt>
      <trkpt lat="45.08043" lon="5.59591">
        <ele>1314.9</ele>
        <time>2021-08-31T10:52:48Z</time>
      </trkpt>
      <trkpt lat="45.08039" lon="5.5959">
        <ele>1314.4</ele>
        <time>2021-08-31T10:52:49Z</time>
      </trkpt>
      <trkpt lat="45.08038" lon="5.5959">
        <ele>1314.2</ele>
        <time>2021-08-31T10:52:50Z</time>
      </trkpt>
      <trkpt lat="45.08033" lon="5.59586">
        <ele>1313.4</ele>
        <time>2021-08-31T10:52:52Z</time>
      </trkpt>
      <trkpt lat="45.08029" lon="5.59586">
        <ele>1312.7</ele>
        <time>2021-08-31T10:52:54Z</time>
      </trkpt>
      <trkpt lat="45.08025" lon="5.59586">
        <ele>1312</ele>
        <time>2021-08-31T10:52:55Z</time>
      </trkpt>
      <trkpt lat="45.08022" lon="5.59585">
        <ele>1311.5</ele>
        <time>2021-08-31T10:52:56Z</time>
      </trkpt>
      <trkpt lat="45.08019" lon="5.59582">
        <ele>1310.8</ele>
        <time>2021-08-31T10:52:57Z</time>
      </trkpt>
      <trkpt lat="45.08014" lon="5.59576">
        <ele>1309.5</ele>
        <time>2021-08-31T10:52:59Z</time>
      </trkpt>
      <trkpt lat="45.0801" lon="5.59571">
        <ele>1308.6</ele>
        <time>2021-08-31T10:53:00Z</time>
      </trkpt>
      <trkpt lat="45.08007" lon="5.59568">
        <ele>1307.8</ele>
        <time>2021-08-31T10:53:02Z</time>
      </trkpt>
      <trkpt lat="45.08002" lon="5.59563">
        <ele>1306.6</ele>
        <time>2021-08-31T10:53:03Z</time>
      </trkpt>
      <trkpt lat="45.08" lon="5.59561">
        <ele>1305.9</ele>
        <time>2021-08-31T10:53:04Z</time>
      </trkpt>
      <trkpt lat="45.07997" lon="5.59557">
        <ele>1305.1</ele>
        <time>2021-08-31T10:53:06Z</time>
      </trkpt>
      <trkpt lat="45.07994" lon="5.59553">
        <ele>1304.2</ele>
        <time>2021-08-31T10:53:07Z</time>
      </trkpt>
      <trkpt lat="45.07987" lon="5.59546">
        <ele>1302.4</ele>
        <time>2021-08-31T10:53:08Z</time>
      </trkpt>
      <trkpt lat="45.07978" lon="5.59537">
        <ele>1300.3</ele>
        <time>2021-08-31T10:53:09Z</time>
      </trkpt>
      <trkpt lat="45.07963" lon="5.59527">
        <ele>1297</ele>
        <time>2021-08-31T10:53:11Z</time>
      </trkpt>
      <trkpt lat="45.07953" lon="5.59517">
        <ele>1294.9</ele>
        <time>2021-08-31T10:53:13Z</time>
      </trkpt>
      <trkpt lat="45.07952" lon="5.59513">
        <ele>1294.4</ele>
        <time>2021-08-31T10:53:14Z</time>
      </trkpt>
      <trkpt lat="45.07952" lon="5.59507">
        <ele>1293.6</ele>
        <time>2021-08-31T10:53:16Z</time>
      </trkpt>
      <trkpt lat="45.07947" lon="5.59501">
        <ele>1292.7</ele>
        <time>2021-08-31T10:53:17Z</time>
      </trkpt>
      <trkpt lat="45.07944" lon="5.59498">
        <ele>1292</ele>
        <time>2021-08-31T10:53:18Z</time>
      </trkpt>
      <trkpt lat="45.0794" lon="5.59494">
        <ele>1291.2</ele>
        <time>2021-08-31T10:53:20Z</time>
      </trkpt>
      <trkpt lat="45.07937" lon="5.5949">
        <ele>1290.6</ele>
        <time>2021-08-31T10:53:21Z</time>
      </trkpt>
      <trkpt lat="45.07935" lon="5.59488">
        <ele>1290.1</ele>
        <time>2021-08-31T10:53:22Z</time>
      </trkpt>
      <trkpt lat="45.07931" lon="5.59478">
        <ele>1288.9</ele>
        <time>2021-08-31T10:53:24Z</time>
      </trkpt>
      <trkpt lat="45.0793" lon="5.5947">
        <ele>1288.2</ele>
        <time>2021-08-31T10:53:26Z</time>
      </trkpt>
      <trkpt lat="45.07927" lon="5.59463">
        <ele>1287.6</ele>
        <time>2021-08-31T10:53:27Z</time>
      </trkpt>
      <trkpt lat="45.07925" lon="5.59458">
        <ele>1287.3</ele>
        <time>2021-08-31T10:53:28Z</time>
      </trkpt>
      <trkpt lat="45.07923" lon="5.59454">
        <ele>1287.1</ele>
        <time>2021-08-31T10:53:29Z</time>
      </trkpt>
      <trkpt lat="45.0792" lon="5.59448">
        <ele>1287</ele>
        <time>2021-08-31T10:53:31Z</time>
      </trkpt>
      <trkpt lat="45.07917" lon="5.59443">
        <ele>1286.9</ele>
        <time>2021-08-31T10:53:32Z</time>
      </trkpt>
      <trkpt lat="45.07915" lon="5.5944">
        <ele>1286.8</ele>
        <time>2021-08-31T10:53:33Z</time>
      </trkpt>
      <trkpt lat="45.07913" lon="5.59435">
        <ele>1286.6</ele>
        <time>2021-08-31T10:53:34Z</time>
      </trkpt>
      <trkpt lat="45.07911" lon="5.59428">
        <ele>1286.4</ele>
        <time>2021-08-31T10:53:36Z</time>
      </trkpt>
      <trkpt lat="45.07909" lon="5.59422">
        <ele>1286.1</ele>
        <time>2021-08-31T10:53:37Z</time>
      </trkpt>
      <trkpt lat="45.07907" lon="5.59416">
        <ele>1285.7</ele>
        <time>2021-08-31T10:53:38Z</time>
      </trkpt>
      <trkpt lat="45.07906" lon="5.59412">
        <ele>1285.4</ele>
        <time>2021-08-31T10:53:39Z</time>
      </trkpt>
      <trkpt lat="45.07904" lon="5.59406">
        <ele>1285</ele>
        <time>2021-08-31T10:53:41Z</time>
      </trkpt>
      <trkpt lat="45.07901" lon="5.59402">
        <ele>1284.6</ele>
        <time>2021-08-31T10:53:42Z</time>
      </trkpt>
      <trkpt lat="45.07899" lon="5.59396">
        <ele>1284.2</ele>
        <time>2021-08-31T10:53:44Z</time>
      </trkpt>
      <trkpt lat="45.07896" lon="5.5939">
        <ele>1283.8</ele>
        <time>2021-08-31T10:53:45Z</time>
      </trkpt>
      <trkpt lat="45.07894" lon="5.59384">
        <ele>1283.4</ele>
        <time>2021-08-31T10:53:47Z</time>
      </trkpt>
      <trkpt lat="45.0789" lon="5.59378">
        <ele>1282.8</ele>
        <time>2021-08-31T10:53:48Z</time>
      </trkpt>
      <trkpt lat="45.07888" lon="5.59375">
        <ele>1282.5</ele>
        <time>2021-08-31T10:53:49Z</time>
      </trkpt>
      <trkpt lat="45.07886" lon="5.59373">
        <ele>1282.2</ele>
        <time>2021-08-31T10:53:50Z</time>
      </trkpt>
      <trkpt lat="45.07886" lon="5.59372">
        <ele>1282.1</ele>
        <time>2021-08-31T10:53:52Z</time>
      </trkpt>
      <trkpt lat="45.07885" lon="5.59369">
        <ele>1281.7</ele>
        <time>2021-08-31T10:53:53Z</time>
      </trkpt>
      <trkpt lat="45.07882" lon="5.59364">
        <ele>1281.1</ele>
        <time>2021-08-31T10:53:55Z</time>
      </trkpt>
      <trkpt lat="45.07881" lon="5.59362">
        <ele>1280.9</ele>
        <time>2021-08-31T10:53:56Z</time>
      </trkpt>
      <trkpt lat="45.0788" lon="5.59361">
        <ele>1280.7</ele>
        <time>2021-08-31T10:53:57Z</time>
      </trkpt>
      <trkpt lat="45.07877" lon="5.59355">
        <ele>1279.9</ele>
        <time>2021-08-31T10:53:58Z</time>
      </trkpt>
      <trkpt lat="45.07871" lon="5.59349">
        <ele>1278.7</ele>
        <time>2021-08-31T10:54:00Z</time>
      </trkpt>
      <trkpt lat="45.07863" lon="5.59345">
        <ele>1277.4</ele>
        <time>2021-08-31T10:54:01Z</time>
      </trkpt>
      <trkpt lat="45.07855" lon="5.5934">
        <ele>1276.1</ele>
        <time>2021-08-31T10:54:03Z</time>
      </trkpt>
      <trkpt lat="45.07851" lon="5.59339">
        <ele>1275.5</ele>
        <time>2021-08-31T10:54:04Z</time>
      </trkpt>
      <trkpt lat="45.07843" lon="5.59336">
        <ele>1274.1</ele>
        <time>2021-08-31T10:54:05Z</time>
      </trkpt>
      <trkpt lat="45.07837" lon="5.59334">
        <ele>1273.2</ele>
        <time>2021-08-31T10:54:06Z</time>
      </trkpt>
      <trkpt lat="45.07832" lon="5.59331">
        <ele>1272.4</ele>
        <time>2021-08-31T10:54:08Z</time>
      </trkpt>
      <trkpt lat="45.07831" lon="5.5933">
        <ele>1272.2</ele>
        <time>2021-08-31T10:54:09Z</time>
      </trkpt>
      <trkpt lat="45.0783" lon="5.59329">
        <ele>1272</ele>
        <time>2021-08-31T10:54:10Z</time>
      </trkpt>
      <trkpt lat="45.07827" lon="5.59329">
        <ele>1271.6</ele>
        <time>2021-08-31T10:54:11Z</time>
      </trkpt>
      <trkpt lat="45.07823" lon="5.59329">
        <ele>1271</ele>
        <time>2021-08-31T10:54:13Z</time>
      </trkpt>
      <trkpt lat="45.07785" lon="5.59259">
        <ele>1265.5</ele>
        <time>2021-08-31T10:55:20Z</time>
      </trkpt>
      <trkpt lat="45.07784" lon="5.59249">
        <ele>1264.6</ele>
        <time>2021-08-31T10:55:21Z</time>
      </trkpt>
      <trkpt lat="45.07782" lon="5.59233">
        <ele>1263.5</ele>
        <time>2021-08-31T10:55:22Z</time>
      </trkpt>
      <trkpt lat="45.07782" lon="5.59219">
        <ele>1262.9</ele>
        <time>2021-08-31T10:55:23Z</time>
      </trkpt>
      <trkpt lat="45.0778" lon="5.59196">
        <ele>1262.5</ele>
        <time>2021-08-31T10:55:25Z</time>
      </trkpt>
      <trkpt lat="45.07779" lon="5.59176">
        <ele>1262.7</ele>
        <time>2021-08-31T10:55:27Z</time>
      </trkpt>
      <trkpt lat="45.07779" lon="5.59166">
        <ele>1262.9</ele>
        <time>2021-08-31T10:55:28Z</time>
      </trkpt>
      <trkpt lat="45.07779" lon="5.59153">
        <ele>1263.1</ele>
        <time>2021-08-31T10:55:30Z</time>
      </trkpt>
      <trkpt lat="45.07778" lon="5.59157">
        <ele>1263.1</ele>
        <time>2021-08-31T10:55:32Z</time>
      </trkpt>
      <trkpt lat="45.07778" lon="5.59158">
        <ele>1263.1</ele>
        <time>2021-08-31T10:55:33Z</time>
      </trkpt>
      <trkpt lat="45.07777" lon="5.59156">
        <ele>1263.1</ele>
        <time>2021-08-31T10:55:34Z</time>
      </trkpt>
      <trkpt lat="45.07776" lon="5.59154">
        <ele>1263.2</ele>
        <time>2021-08-31T10:55:35Z</time>
      </trkpt>
      <trkpt lat="45.07774" lon="5.5915">
        <ele>1263.2</ele>
        <time>2021-08-31T10:55:37Z</time>
      </trkpt>
      <trkpt lat="45.0777" lon="5.59142">
        <ele>1263.3</ele>
        <time>2021-08-31T10:55:38Z</time>
      </trkpt>
      <trkpt lat="45.07767" lon="5.59137">
        <ele>1263.3</ele>
        <time>2021-08-31T10:55:39Z</time>
      </trkpt>
      <trkpt lat="45.07764" lon="5.59133">
        <ele>1263.4</ele>
        <time>2021-08-31T10:55:41Z</time>
      </trkpt>
      <trkpt lat="45.07761" lon="5.5913">
        <ele>1263.4</ele>
        <time>2021-08-31T10:55:42Z</time>
      </trkpt>
      <trkpt lat="45.07759" lon="5.59129">
        <ele>1263.4</ele>
        <time>2021-08-31T10:55:43Z</time>
      </trkpt>
      <trkpt lat="45.07755" lon="5.5912">
        <ele>1263.4</ele>
        <time>2021-08-31T10:55:45Z</time>
      </trkpt>
      <trkpt lat="45.07753" lon="5.59116">
        <ele>1263.3</ele>
        <time>2021-08-31T10:55:46Z</time>
      </trkpt>
      <trkpt lat="45.0775" lon="5.5911">
        <ele>1263.2</ele>
        <time>2021-08-31T10:55:47Z</time>
      </trkpt>
      <trkpt lat="45.07746" lon="5.59102">
        <ele>1262.9</ele>
        <time>2021-08-31T10:55:49Z</time>
      </trkpt>
      <trkpt lat="45.07741" lon="5.5909">
        <ele>1262.3</ele>
        <time>2021-08-31T10:55:50Z</time>
      </trkpt>
      <trkpt lat="45.07738" lon="5.59083">
        <ele>1261.8</ele>
        <time>2021-08-31T10:55:51Z</time>
      </trkpt>
      <trkpt lat="45.07731" lon="5.59067">
        <ele>1260.7</ele>
        <time>2021-08-31T10:55:53Z</time>
      </trkpt>
      <trkpt lat="45.07728" lon="5.5906">
        <ele>1260.1</ele>
        <time>2021-08-31T10:55:54Z</time>
      </trkpt>
      <trkpt lat="45.07722" lon="5.59042">
        <ele>1259</ele>
        <time>2021-08-31T10:55:56Z</time>
      </trkpt>
      <trkpt lat="45.0772" lon="5.59024">
        <ele>1258.5</ele>
        <time>2021-08-31T10:55:58Z</time>
      </trkpt>
      <trkpt lat="45.07718" lon="5.59005">
        <ele>1258.2</ele>
        <time>2021-08-31T10:56:00Z</time>
      </trkpt>
      <trkpt lat="45.07716" lon="5.58996">
        <ele>1258.3</ele>
        <time>2021-08-31T10:56:01Z</time>
      </trkpt>
      <trkpt lat="45.07713" lon="5.58977">
        <ele>1258.4</ele>
        <time>2021-08-31T10:56:03Z</time>
      </trkpt>
      <trkpt lat="45.07711" lon="5.5897">
        <ele>1258.5</ele>
        <time>2021-08-31T10:56:04Z</time>
      </trkpt>
      <trkpt lat="45.07708" lon="5.58964">
        <ele>1258.6</ele>
        <time>2021-08-31T10:56:05Z</time>
      </trkpt>
      <trkpt lat="45.07703" lon="5.58952">
        <ele>1258.7</ele>
        <time>2021-08-31T10:56:07Z</time>
      </trkpt>
      <trkpt lat="45.07702" lon="5.58948">
        <ele>1258.7</ele>
        <time>2021-08-31T10:56:08Z</time>
      </trkpt>
      <trkpt lat="45.07696" lon="5.58935">
        <ele>1258.7</ele>
        <time>2021-08-31T10:56:10Z</time>
      </trkpt>
      <trkpt lat="45.07695" lon="5.58932">
        <ele>1258.7</ele>
        <time>2021-08-31T10:56:11Z</time>
      </trkpt>
      <trkpt lat="45.0769" lon="5.58923">
        <ele>1258.4</ele>
        <time>2021-08-31T10:56:13Z</time>
      </trkpt>
      <trkpt lat="45.07693" lon="5.5892">
        <ele>1258.2</ele>
        <time>2021-08-31T10:56:15Z</time>
      </trkpt>
      <trkpt lat="45.07689" lon="5.58916">
        <ele>1257.7</ele>
        <time>2021-08-31T10:56:16Z</time>
      </trkpt>
      <trkpt lat="45.07686" lon="5.58912">
        <ele>1257.1</ele>
        <time>2021-08-31T10:56:17Z</time>
      </trkpt>
      <trkpt lat="45.07684" lon="5.58906">
        <ele>1256.2</ele>
        <time>2021-08-31T10:56:18Z</time>
      </trkpt>
      <trkpt lat="45.07682" lon="5.58899">
        <ele>1255.2</ele>
        <time>2021-08-31T10:56:20Z</time>
      </trkpt>
      <trkpt lat="45.07681" lon="5.58891">
        <ele>1253.8</ele>
        <time>2021-08-31T10:56:21Z</time>
      </trkpt>
      <trkpt lat="45.0768" lon="5.58882">
        <ele>1252.4</ele>
        <time>2021-08-31T10:56:22Z</time>
      </trkpt>
      <trkpt lat="45.07681" lon="5.58873">
        <ele>1251.2</ele>
        <time>2021-08-31T10:56:24Z</time>
      </trkpt>
      <trkpt lat="45.07682" lon="5.58867">
        <ele>1250.3</ele>
        <time>2021-08-31T10:56:25Z</time>
      </trkpt>
      <trkpt lat="45.07682" lon="5.58858">
        <ele>1249.2</ele>
        <time>2021-08-31T10:56:26Z</time>
      </trkpt>
      <trkpt lat="45.07682" lon="5.58848">
        <ele>1248.1</ele>
        <time>2021-08-31T10:56:28Z</time>
      </trkpt>
      <trkpt lat="45.07681" lon="5.58841">
        <ele>1247.2</ele>
        <time>2021-08-31T10:56:29Z</time>
      </trkpt>
      <trkpt lat="45.0768" lon="5.58832">
        <ele>1246.3</ele>
        <time>2021-08-31T10:56:30Z</time>
      </trkpt>
      <trkpt lat="45.07679" lon="5.58826">
        <ele>1245.6</ele>
        <time>2021-08-31T10:56:31Z</time>
      </trkpt>
      <trkpt lat="45.07677" lon="5.58816">
        <ele>1244.8</ele>
        <time>2021-08-31T10:56:33Z</time>
      </trkpt>
      <trkpt lat="45.07675" lon="5.58799">
        <ele>1243.4</ele>
        <time>2021-08-31T10:56:34Z</time>
      </trkpt>
      <trkpt lat="45.07667" lon="5.58777">
        <ele>1242.4</ele>
        <time>2021-08-31T10:56:36Z</time>
      </trkpt>
      <trkpt lat="45.07663" lon="5.58767">
        <ele>1242.2</ele>
        <time>2021-08-31T10:56:37Z</time>
      </trkpt>
      <trkpt lat="45.07658" lon="5.58759">
        <ele>1242</ele>
        <time>2021-08-31T10:56:38Z</time>
      </trkpt>
      <trkpt lat="45.07651" lon="5.58747">
        <ele>1241.8</ele>
        <time>2021-08-31T10:56:40Z</time>
      </trkpt>
      <trkpt lat="45.07648" lon="5.5874">
        <ele>1241.7</ele>
        <time>2021-08-31T10:56:42Z</time>
      </trkpt>
      <trkpt lat="45.07649" lon="5.58739">
        <ele>1241.7</ele>
        <time>2021-08-31T10:56:44Z</time>
      </trkpt>
      <trkpt lat="45.07651" lon="5.58738">
        <ele>1241.7</ele>
        <time>2021-08-31T10:56:45Z</time>
      </trkpt>
      <trkpt lat="45.07652" lon="5.58736">
        <ele>1241.6</ele>
        <time>2021-08-31T10:56:46Z</time>
      </trkpt>
      <trkpt lat="45.07654" lon="5.58735">
        <ele>1241.6</ele>
        <time>2021-08-31T10:56:47Z</time>
      </trkpt>
      <trkpt lat="45.07655" lon="5.58735">
        <ele>1241.6</ele>
        <time>2021-08-31T10:56:48Z</time>
      </trkpt>
      <trkpt lat="45.07656" lon="5.58736">
        <ele>1241.6</ele>
        <time>2021-08-31T10:56:49Z</time>
      </trkpt>
      <trkpt lat="45.07654" lon="5.58736">
        <ele>1241.5</ele>
        <time>2021-08-31T10:56:51Z</time>
      </trkpt>
      <trkpt lat="45.07653" lon="5.58737">
        <ele>1241.5</ele>
        <time>2021-08-31T10:56:52Z</time>
      </trkpt>
      <trkpt lat="45.07652" lon="5.58737">
        <ele>1241.5</ele>
        <time>2021-08-31T10:56:54Z</time>
      </trkpt>
      <trkpt lat="45.07651" lon="5.58737">
        <ele>1241.5</ele>
        <time>2021-08-31T10:56:56Z</time>
      </trkpt>
      <trkpt lat="45.07649" lon="5.58737">
        <ele>1241.4</ele>
        <time>2021-08-31T10:56:57Z</time>
      </trkpt>
      <trkpt lat="45.07648" lon="5.58737">
        <ele>1241.4</ele>
        <time>2021-08-31T10:58:08Z</time>
      </trkpt>
      <trkpt lat="45.07647" lon="5.58737">
        <ele>1241.4</ele>
        <time>2021-08-31T10:58:09Z</time>
      </trkpt>
      <trkpt lat="45.07645" lon="5.58734">
        <ele>1241.3</ele>
        <time>2021-08-31T10:58:10Z</time>
      </trkpt>
      <trkpt lat="45.07644" lon="5.58729">
        <ele>1241.2</ele>
        <time>2021-08-31T10:58:12Z</time>
      </trkpt>
      <trkpt lat="45.07643" lon="5.58724">
        <ele>1241.1</ele>
        <time>2021-08-31T10:58:13Z</time>
      </trkpt>
      <trkpt lat="45.07642" lon="5.58722">
        <ele>1241.1</ele>
        <time>2021-08-31T10:58:14Z</time>
      </trkpt>
      <trkpt lat="45.0764" lon="5.58716">
        <ele>1240.9</ele>
        <time>2021-08-31T10:58:16Z</time>
      </trkpt>
      <trkpt lat="45.0764" lon="5.58713">
        <ele>1240.8</ele>
        <time>2021-08-31T10:58:17Z</time>
      </trkpt>
      <trkpt lat="45.0764" lon="5.58709">
        <ele>1240.7</ele>
        <time>2021-08-31T10:58:19Z</time>
      </trkpt>
      <trkpt lat="45.0764" lon="5.58703">
        <ele>1240.5</ele>
        <time>2021-08-31T10:58:20Z</time>
      </trkpt>
      <trkpt lat="45.0764" lon="5.58698">
        <ele>1240.3</ele>
        <time>2021-08-31T10:58:21Z</time>
      </trkpt>
      <trkpt lat="45.07639" lon="5.5869">
        <ele>1240</ele>
        <time>2021-08-31T10:58:23Z</time>
      </trkpt>
      <trkpt lat="45.07638" lon="5.58684">
        <ele>1239.7</ele>
        <time>2021-08-31T10:58:24Z</time>
      </trkpt>
      <trkpt lat="45.07637" lon="5.58679">
        <ele>1239.4</ele>
        <time>2021-08-31T10:58:25Z</time>
      </trkpt>
      <trkpt lat="45.07635" lon="5.58675">
        <ele>1239.1</ele>
        <time>2021-08-31T10:58:26Z</time>
      </trkpt>
      <trkpt lat="45.07633" lon="5.58668">
        <ele>1238.6</ele>
        <time>2021-08-31T10:58:27Z</time>
      </trkpt>
      <trkpt lat="45.0763" lon="5.58662">
        <ele>1238</ele>
        <time>2021-08-31T10:58:28Z</time>
      </trkpt>
      <trkpt lat="45.07627" lon="5.58654">
        <ele>1237.3</ele>
        <time>2021-08-31T10:58:29Z</time>
      </trkpt>
      <trkpt lat="45.07623" lon="5.58641">
        <ele>1236.1</ele>
        <time>2021-08-31T10:58:31Z</time>
      </trkpt>
      <trkpt lat="45.07626" lon="5.58637">
        <ele>1235.5</ele>
        <time>2021-08-31T10:58:33Z</time>
      </trkpt>
      <trkpt lat="45.07625" lon="5.5863">
        <ele>1234.9</ele>
        <time>2021-08-31T10:58:34Z</time>
      </trkpt>
      <trkpt lat="45.07623" lon="5.58623">
        <ele>1234.1</ele>
        <time>2021-08-31T10:58:35Z</time>
      </trkpt>
      <trkpt lat="45.07618" lon="5.58611">
        <ele>1232.5</ele>
        <time>2021-08-31T10:58:36Z</time>
      </trkpt>
      <trkpt lat="45.0761" lon="5.58595">
        <ele>1230.4</ele>
        <time>2021-08-31T10:58:38Z</time>
      </trkpt>
      <trkpt lat="45.07607" lon="5.58587">
        <ele>1229.5</ele>
        <time>2021-08-31T10:58:39Z</time>
      </trkpt>
      <trkpt lat="45.07604" lon="5.58581">
        <ele>1228.7</ele>
        <time>2021-08-31T10:58:40Z</time>
      </trkpt>
      <trkpt lat="45.076" lon="5.58573">
        <ele>1227.8</ele>
        <time>2021-08-31T10:58:42Z</time>
      </trkpt>
      <trkpt lat="45.07597" lon="5.58567">
        <ele>1226.9</ele>
        <time>2021-08-31T10:58:43Z</time>
      </trkpt>
      <trkpt lat="45.07591" lon="5.58549">
        <ele>1225</ele>
        <time>2021-08-31T10:58:45Z</time>
      </trkpt>
      <trkpt lat="45.07582" lon="5.58532">
        <ele>1223.8</ele>
        <time>2021-08-31T10:58:47Z</time>
      </trkpt>
      <trkpt lat="45.07573" lon="5.58515">
        <ele>1222.9</ele>
        <time>2021-08-31T10:58:49Z</time>
      </trkpt>
      <trkpt lat="45.07564" lon="5.58501">
        <ele>1222.5</ele>
        <time>2021-08-31T10:58:51Z</time>
      </trkpt>
      <trkpt lat="45.07553" lon="5.5849">
        <ele>1222.1</ele>
        <time>2021-08-31T10:58:53Z</time>
      </trkpt>
      <trkpt lat="45.07542" lon="5.5848">
        <ele>1221.7</ele>
        <time>2021-08-31T10:58:55Z</time>
      </trkpt>
      <trkpt lat="45.07531" lon="5.58474">
        <ele>1221.1</ele>
        <time>2021-08-31T10:58:57Z</time>
      </trkpt>
      <trkpt lat="45.07525" lon="5.5847">
        <ele>1220.5</ele>
        <time>2021-08-31T10:58:58Z</time>
      </trkpt>
      <trkpt lat="45.07513" lon="5.58458">
        <ele>1218.7</ele>
        <time>2021-08-31T10:59:00Z</time>
      </trkpt>
      <trkpt lat="45.07507" lon="5.5845">
        <ele>1217.6</ele>
        <time>2021-08-31T10:59:01Z</time>
      </trkpt>
      <trkpt lat="45.07491" lon="5.58432">
        <ele>1215.5</ele>
        <time>2021-08-31T10:59:03Z</time>
      </trkpt>
      <trkpt lat="45.07484" lon="5.58422">
        <ele>1214.6</ele>
        <time>2021-08-31T10:59:04Z</time>
      </trkpt>
      <trkpt lat="45.07469" lon="5.58396">
        <ele>1213.4</ele>
        <time>2021-08-31T10:59:06Z</time>
      </trkpt>
      <trkpt lat="45.07461" lon="5.58383">
        <ele>1213.2</ele>
        <time>2021-08-31T10:59:07Z</time>
      </trkpt>
      <trkpt lat="45.07453" lon="5.58372">
        <ele>1213.1</ele>
        <time>2021-08-31T10:59:08Z</time>
      </trkpt>
      <trkpt lat="45.07438" lon="5.58353">
        <ele>1213.4</ele>
        <time>2021-08-31T10:59:10Z</time>
      </trkpt>
      <trkpt lat="45.07425" lon="5.58337">
        <ele>1213.9</ele>
        <time>2021-08-31T10:59:12Z</time>
      </trkpt>
      <trkpt lat="45.07419" lon="5.58329">
        <ele>1214.2</ele>
        <time>2021-08-31T10:59:13Z</time>
      </trkpt>
      <trkpt lat="45.07407" lon="5.58317">
        <ele>1215</ele>
        <time>2021-08-31T10:59:15Z</time>
      </trkpt>
      <trkpt lat="45.07399" lon="5.58309">
        <ele>1215.3</ele>
        <time>2021-08-31T10:59:17Z</time>
      </trkpt>
      <trkpt lat="45.07395" lon="5.58304">
        <ele>1215.4</ele>
        <time>2021-08-31T10:59:18Z</time>
      </trkpt>
      <trkpt lat="45.0739" lon="5.58297">
        <ele>1215.4</ele>
        <time>2021-08-31T10:59:20Z</time>
      </trkpt>
      <trkpt lat="45.07387" lon="5.58294">
        <ele>1215.3</ele>
        <time>2021-08-31T10:59:21Z</time>
      </trkpt>
      <trkpt lat="45.07386" lon="5.58293">
        <ele>1215.3</ele>
        <time>2021-08-31T10:59:22Z</time>
      </trkpt>
      <trkpt lat="45.07382" lon="5.58288">
        <ele>1215.1</ele>
        <time>2021-08-31T10:59:24Z</time>
      </trkpt>
      <trkpt lat="45.07379" lon="5.58282">
        <ele>1214.6</ele>
        <time>2021-08-31T10:59:26Z</time>
      </trkpt>
      <trkpt lat="45.07379" lon="5.58281">
        <ele>1214.5</ele>
        <time>2021-08-31T10:59:27Z</time>
      </trkpt>
      <trkpt lat="45.07377" lon="5.58279">
        <ele>1214.3</ele>
        <time>2021-08-31T10:59:29Z</time>
      </trkpt>
      <trkpt lat="45.07374" lon="5.58282">
        <ele>1213.9</ele>
        <time>2021-08-31T10:59:31Z</time>
      </trkpt>
      <trkpt lat="45.0737" lon="5.58278">
        <ele>1213.3</ele>
        <time>2021-08-31T10:59:32Z</time>
      </trkpt>
      <trkpt lat="45.07368" lon="5.58272">
        <ele>1212.7</ele>
        <time>2021-08-31T10:59:34Z</time>
      </trkpt>
      <trkpt lat="45.07365" lon="5.58266">
        <ele>1212</ele>
        <time>2021-08-31T10:59:36Z</time>
      </trkpt>
      <trkpt lat="45.07363" lon="5.5826">
        <ele>1211.3</ele>
        <time>2021-08-31T10:59:37Z</time>
      </trkpt>
      <trkpt lat="45.0736" lon="5.58254">
        <ele>1210.7</ele>
        <time>2021-08-31T10:59:39Z</time>
      </trkpt>
      <trkpt lat="45.07358" lon="5.58248">
        <ele>1209.9</ele>
        <time>2021-08-31T10:59:40Z</time>
      </trkpt>
      <trkpt lat="45.07355" lon="5.58242">
        <ele>1209.2</ele>
        <time>2021-08-31T10:59:42Z</time>
      </trkpt>
      <trkpt lat="45.07353" lon="5.58236">
        <ele>1208.4</ele>
        <time>2021-08-31T11:00:31Z</time>
      </trkpt>
      <trkpt lat="45.0735" lon="5.5823">
        <ele>1207.6</ele>
        <time>2021-08-31T11:00:32Z</time>
      </trkpt>
      <trkpt lat="45.07348" lon="5.58224">
        <ele>1206.8</ele>
        <time>2021-08-31T11:00:33Z</time>
      </trkpt>
      <trkpt lat="45.07344" lon="5.58215">
        <ele>1205.6</ele>
        <time>2021-08-31T11:00:34Z</time>
      </trkpt>
      <trkpt lat="45.07341" lon="5.58205">
        <ele>1204.5</ele>
        <time>2021-08-31T11:00:35Z</time>
      </trkpt>
      <trkpt lat="45.07334" lon="5.58187">
        <ele>1202.3</ele>
        <time>2021-08-31T11:00:37Z</time>
      </trkpt>
      <trkpt lat="45.07331" lon="5.58178">
        <ele>1201.3</ele>
        <time>2021-08-31T11:00:38Z</time>
      </trkpt>
      <trkpt lat="45.07327" lon="5.58169">
        <ele>1200.3</ele>
        <time>2021-08-31T11:00:39Z</time>
      </trkpt>
      <trkpt lat="45.07323" lon="5.58161">
        <ele>1199.5</ele>
        <time>2021-08-31T11:00:40Z</time>
      </trkpt>
      <trkpt lat="45.07317" lon="5.58148">
        <ele>1197.8</ele>
        <time>2021-08-31T11:00:42Z</time>
      </trkpt>
      <trkpt lat="45.07314" lon="5.58143">
        <ele>1197.1</ele>
        <time>2021-08-31T11:00:43Z</time>
      </trkpt>
      <trkpt lat="45.07307" lon="5.58132">
        <ele>1195.5</ele>
        <time>2021-08-31T11:00:45Z</time>
      </trkpt>
      <trkpt lat="45.07304" lon="5.58126">
        <ele>1194.6</ele>
        <time>2021-08-31T11:00:46Z</time>
      </trkpt>
      <trkpt lat="45.07301" lon="5.58119">
        <ele>1193.7</ele>
        <time>2021-08-31T11:00:47Z</time>
      </trkpt>
      <trkpt lat="45.07297" lon="5.58113">
        <ele>1192.8</ele>
        <time>2021-08-31T11:00:48Z</time>
      </trkpt>
      <trkpt lat="45.07288" lon="5.58099">
        <ele>1190.9</ele>
        <time>2021-08-31T11:00:50Z</time>
      </trkpt>
      <trkpt lat="45.07284" lon="5.58092">
        <ele>1190.1</ele>
        <time>2021-08-31T11:00:51Z</time>
      </trkpt>
      <trkpt lat="45.07276" lon="5.5808">
        <ele>1188.7</ele>
        <time>2021-08-31T11:00:53Z</time>
      </trkpt>
      <trkpt lat="45.07272" lon="5.5807">
        <ele>1187.5</ele>
        <time>2021-08-31T11:00:55Z</time>
      </trkpt>
      <trkpt lat="45.0727" lon="5.58067">
        <ele>1187.2</ele>
        <time>2021-08-31T11:00:56Z</time>
      </trkpt>
      <trkpt lat="45.07268" lon="5.58061">
        <ele>1186.5</ele>
        <time>2021-08-31T11:00:58Z</time>
      </trkpt>
      <trkpt lat="45.0727" lon="5.58053">
        <ele>1185.7</ele>
        <time>2021-08-31T11:01:00Z</time>
      </trkpt>
      <trkpt lat="45.07275" lon="5.58046">
        <ele>1184.8</ele>
        <time>2021-08-31T11:01:02Z</time>
      </trkpt>
      <trkpt lat="45.07277" lon="5.58043">
        <ele>1184.4</ele>
        <time>2021-08-31T11:01:03Z</time>
      </trkpt>
      <trkpt lat="45.07279" lon="5.58039">
        <ele>1183.9</ele>
        <time>2021-08-31T11:01:05Z</time>
      </trkpt>
      <trkpt lat="45.07281" lon="5.58034">
        <ele>1183.4</ele>
        <time>2021-08-31T11:01:06Z</time>
      </trkpt>
      <trkpt lat="45.07284" lon="5.5803">
        <ele>1182.8</ele>
        <time>2021-08-31T11:01:07Z</time>
      </trkpt>
      <trkpt lat="45.07286" lon="5.58025">
        <ele>1182.3</ele>
        <time>2021-08-31T11:01:08Z</time>
      </trkpt>
      <trkpt lat="45.07291" lon="5.58016">
        <ele>1181.2</ele>
        <time>2021-08-31T11:01:10Z</time>
      </trkpt>
      <trkpt lat="45.07294" lon="5.58009">
        <ele>1180.3</ele>
        <time>2021-08-31T11:01:11Z</time>
      </trkpt>
      <trkpt lat="45.07297" lon="5.58">
        <ele>1179.3</ele>
        <time>2021-08-31T11:01:13Z</time>
      </trkpt>
      <trkpt lat="45.073" lon="5.57995">
        <ele>1178.6</ele>
        <time>2021-08-31T11:01:14Z</time>
      </trkpt>
      <trkpt lat="45.07308" lon="5.57984">
        <ele>1177</ele>
        <time>2021-08-31T11:01:15Z</time>
      </trkpt>
      <trkpt lat="45.07311" lon="5.5797">
        <ele>1175.5</ele>
        <time>2021-08-31T11:01:17Z</time>
      </trkpt>
      <trkpt lat="45.07312" lon="5.57963">
        <ele>1174.7</ele>
        <time>2021-08-31T11:01:18Z</time>
      </trkpt>
      <trkpt lat="45.07314" lon="5.57953">
        <ele>1173.7</ele>
        <time>2021-08-31T11:01:20Z</time>
      </trkpt>
      <trkpt lat="45.07311" lon="5.57938">
        <ele>1171.9</ele>
        <time>2021-08-31T11:01:22Z</time>
      </trkpt>
      <trkpt lat="45.07305" lon="5.57924">
        <ele>1172.1</ele>
        <time>2021-08-31T11:01:24Z</time>
      </trkpt>
      <trkpt lat="45.07302" lon="5.57918">
        <ele>1172.3</ele>
        <time>2021-08-31T11:01:25Z</time>
      </trkpt>
      <trkpt lat="45.07301" lon="5.57919">
        <ele>1172.3</ele>
        <time>2021-08-31T11:01:27Z</time>
      </trkpt>
      <trkpt lat="45.07301" lon="5.57919">
        <ele>1172.3</ele>
        <time>2021-08-31T11:01:28Z</time>
      </trkpt>
      <trkpt lat="45.07301" lon="5.57919">
        <ele>1172.3</ele>
        <time>2021-08-31T11:01:30Z</time>
      </trkpt>
      <trkpt lat="45.073" lon="5.57919">
        <ele>1172.3</ele>
        <time>2021-08-31T11:01:31Z</time>
      </trkpt>
      <trkpt lat="45.073" lon="5.57919">
        <ele>1172.3</ele>
        <time>2021-08-31T11:01:33Z</time>
      </trkpt>
      <trkpt lat="45.073" lon="5.57919">
        <ele>1172.3</ele>
        <time>2021-08-31T11:01:35Z</time>
      </trkpt>
      <trkpt lat="45.07277" lon="5.57911">
        <ele>1173.5</ele>
        <time>2021-08-31T11:02:36Z</time>
      </trkpt>
      <trkpt lat="45.07274" lon="5.57911">
        <ele>1173.7</ele>
        <time>2021-08-31T11:02:37Z</time>
      </trkpt>
      <trkpt lat="45.07271" lon="5.57909">
        <ele>1173.9</ele>
        <time>2021-08-31T11:02:38Z</time>
      </trkpt>
      <trkpt lat="45.07268" lon="5.57908">
        <ele>1174</ele>
        <time>2021-08-31T11:02:39Z</time>
      </trkpt>
      <trkpt lat="45.07267" lon="5.57908">
        <ele>1174.1</ele>
        <time>2021-08-31T11:02:40Z</time>
      </trkpt>
      <trkpt lat="45.07262" lon="5.57907">
        <ele>1174.3</ele>
        <time>2021-08-31T11:02:41Z</time>
      </trkpt>
      <trkpt lat="45.07257" lon="5.57907">
        <ele>1174.5</ele>
        <time>2021-08-31T11:02:42Z</time>
      </trkpt>
      <trkpt lat="45.07248" lon="5.57905">
        <ele>1174.8</ele>
        <time>2021-08-31T11:02:44Z</time>
      </trkpt>
      <trkpt lat="45.07242" lon="5.57905">
        <ele>1174.9</ele>
        <time>2021-08-31T11:02:46Z</time>
      </trkpt>
      <trkpt lat="45.07236" lon="5.57903">
        <ele>1175</ele>
        <time>2021-08-31T11:02:48Z</time>
      </trkpt>
      <trkpt lat="45.07235" lon="5.57901">
        <ele>1175</ele>
        <time>2021-08-31T11:02:50Z</time>
      </trkpt>
      <trkpt lat="45.07237" lon="5.579">
        <ele>1174.9</ele>
        <time>2021-08-31T11:02:52Z</time>
      </trkpt>
      <trkpt lat="45.07237" lon="5.57899">
        <ele>1174.9</ele>
        <time>2021-08-31T11:02:53Z</time>
      </trkpt>
      <trkpt lat="45.07235" lon="5.57896">
        <ele>1174.9</ele>
        <time>2021-08-31T11:02:55Z</time>
      </trkpt>
      <trkpt lat="45.07234" lon="5.57895">
        <ele>1174.9</ele>
        <time>2021-08-31T11:02:56Z</time>
      </trkpt>
      <trkpt lat="45.07231" lon="5.57893">
        <ele>1174.8</ele>
        <time>2021-08-31T11:02:58Z</time>
      </trkpt>
      <trkpt lat="45.07223" lon="5.57888">
        <ele>1174.4</ele>
        <time>2021-08-31T11:02:59Z</time>
      </trkpt>
      <trkpt lat="45.07209" lon="5.57879">
        <ele>1173.7</ele>
        <time>2021-08-31T11:03:00Z</time>
      </trkpt>
      <trkpt lat="45.07197" lon="5.57876">
        <ele>1173.3</ele>
        <time>2021-08-31T11:03:02Z</time>
      </trkpt>
      <trkpt lat="45.07191" lon="5.57869">
        <ele>1171.8</ele>
        <time>2021-08-31T11:03:04Z</time>
      </trkpt>
      <trkpt lat="45.07185" lon="5.57869">
        <ele>1170.8</ele>
        <time>2021-08-31T11:03:06Z</time>
      </trkpt>
      <trkpt lat="45.07181" lon="5.57866">
        <ele>1170.2</ele>
        <time>2021-08-31T11:03:08Z</time>
      </trkpt>
      <trkpt lat="45.07179" lon="5.57866">
        <ele>1169.8</ele>
        <time>2021-08-31T11:03:09Z</time>
      </trkpt>
      <trkpt lat="45.07179" lon="5.57867">
        <ele>1169.6</ele>
        <time>2021-08-31T11:03:10Z</time>
      </trkpt>
      <trkpt lat="45.07178" lon="5.57868">
        <ele>1169.5</ele>
        <time>2021-08-31T11:03:12Z</time>
      </trkpt>
      <trkpt lat="45.07177" lon="5.57869">
        <ele>1169.3</ele>
        <time>2021-08-31T11:03:13Z</time>
      </trkpt>
      <trkpt lat="45.07178" lon="5.57869">
        <ele>1169.2</ele>
        <time>2021-08-31T11:03:15Z</time>
      </trkpt>
      <trkpt lat="45.07178" lon="5.57869">
        <ele>1169.2</ele>
        <time>2021-08-31T11:03:16Z</time>
      </trkpt>
      <trkpt lat="45.07178" lon="5.5787">
        <ele>1169.1</ele>
        <time>2021-08-31T11:03:18Z</time>
      </trkpt>
      <trkpt lat="45.07178" lon="5.5787">
        <ele>1169.1</ele>
        <time>2021-08-31T11:03:19Z</time>
      </trkpt>
      <trkpt lat="45.07178" lon="5.5787">
        <ele>1169.1</ele>
        <time>2021-08-31T11:03:20Z</time>
      </trkpt>
      <trkpt lat="45.07177" lon="5.5787">
        <ele>1168.9</ele>
        <time>2021-08-31T11:03:22Z</time>
      </trkpt>
      <trkpt lat="45.07188" lon="5.57813">
        <ele>1162.2</ele>
        <time>2021-08-31T11:03:34Z</time>
      </trkpt>
      <trkpt lat="45.07188" lon="5.57799">
        <ele>1160.5</ele>
        <time>2021-08-31T11:03:36Z</time>
      </trkpt>
      <trkpt lat="45.07189" lon="5.57787">
        <ele>1159</ele>
        <time>2021-08-31T11:03:37Z</time>
      </trkpt>
      <trkpt lat="45.0719" lon="5.57775">
        <ele>1157.5</ele>
        <time>2021-08-31T11:03:38Z</time>
      </trkpt>
      <trkpt lat="45.07194" lon="5.57756">
        <ele>1155.2</ele>
        <time>2021-08-31T11:03:39Z</time>
      </trkpt>
      <trkpt lat="45.07195" lon="5.5775">
        <ele>1154.5</ele>
        <time>2021-08-31T11:03:40Z</time>
      </trkpt>
      <trkpt lat="45.07199" lon="5.57741">
        <ele>1153.4</ele>
        <time>2021-08-31T11:03:42Z</time>
      </trkpt>
      <trkpt lat="45.07195" lon="5.57734">
        <ele>1152.5</ele>
        <time>2021-08-31T11:03:43Z</time>
      </trkpt>
      <trkpt lat="45.07193" lon="5.57725">
        <ele>1151.6</ele>
        <time>2021-08-31T11:03:45Z</time>
      </trkpt>
      <trkpt lat="45.07191" lon="5.57722">
        <ele>1151.1</ele>
        <time>2021-08-31T11:03:46Z</time>
      </trkpt>
      <trkpt lat="45.07183" lon="5.57715">
        <ele>1149.7</ele>
        <time>2021-08-31T11:03:47Z</time>
      </trkpt>
      <trkpt lat="45.07179" lon="5.5771">
        <ele>1149</ele>
        <time>2021-08-31T11:03:48Z</time>
      </trkpt>
      <trkpt lat="45.07175" lon="5.57704">
        <ele>1148</ele>
        <time>2021-08-31T11:03:50Z</time>
      </trkpt>
      <trkpt lat="45.07171" lon="5.57695">
        <ele>1146.7</ele>
        <time>2021-08-31T11:03:51Z</time>
      </trkpt>
      <trkpt lat="45.07168" lon="5.57688">
        <ele>1145.5</ele>
        <time>2021-08-31T11:03:53Z</time>
      </trkpt>
      <trkpt lat="45.0716" lon="5.57682">
        <ele>1143.8</ele>
        <time>2021-08-31T11:03:54Z</time>
      </trkpt>
      <trkpt lat="45.07154" lon="5.57671">
        <ele>1141.5</ele>
        <time>2021-08-31T11:03:56Z</time>
      </trkpt>
      <trkpt lat="45.07151" lon="5.57669">
        <ele>1140.8</ele>
        <time>2021-08-31T11:03:58Z</time>
      </trkpt>
      <trkpt lat="45.07149" lon="5.57662">
        <ele>1139.7</ele>
        <time>2021-08-31T11:03:59Z</time>
      </trkpt>
      <trkpt lat="45.07149" lon="5.57652">
        <ele>1138.2</ele>
        <time>2021-08-31T11:04:00Z</time>
      </trkpt>
      <trkpt lat="45.07148" lon="5.57643">
        <ele>1136.9</ele>
        <time>2021-08-31T11:04:02Z</time>
      </trkpt>
      <trkpt lat="45.07148" lon="5.57638">
        <ele>1136.2</ele>
        <time>2021-08-31T11:04:03Z</time>
      </trkpt>
      <trkpt lat="45.07151" lon="5.57632">
        <ele>1135.3</ele>
        <time>2021-08-31T11:04:04Z</time>
      </trkpt>
      <trkpt lat="45.07154" lon="5.57626">
        <ele>1134.4</ele>
        <time>2021-08-31T11:04:06Z</time>
      </trkpt>
      <trkpt lat="45.07155" lon="5.5762">
        <ele>1133.6</ele>
        <time>2021-08-31T11:04:07Z</time>
      </trkpt>
      <trkpt lat="45.07156" lon="5.57615">
        <ele>1132.9</ele>
        <time>2021-08-31T11:04:08Z</time>
      </trkpt>
      <trkpt lat="45.07155" lon="5.5761">
        <ele>1132.1</ele>
        <time>2021-08-31T11:04:10Z</time>
      </trkpt>
      <trkpt lat="45.07156" lon="5.57606">
        <ele>1131.4</ele>
        <time>2021-08-31T11:04:12Z</time>
      </trkpt>
      <trkpt lat="45.07157" lon="5.57605">
        <ele>1131.2</ele>
        <time>2021-08-31T11:04:13Z</time>
      </trkpt>
      <trkpt lat="45.07158" lon="5.57604">
        <ele>1131</ele>
        <time>2021-08-31T11:04:15Z</time>
      </trkpt>
      <trkpt lat="45.07158" lon="5.57603">
        <ele>1130.8</ele>
        <time>2021-08-31T11:04:16Z</time>
      </trkpt>
      <trkpt lat="45.07157" lon="5.57602">
        <ele>1130.7</ele>
        <time>2021-08-31T11:04:18Z</time>
      </trkpt>
      <trkpt lat="45.07157" lon="5.57601">
        <ele>1130.5</ele>
        <time>2021-08-31T11:04:19Z</time>
      </trkpt>
      <trkpt lat="45.07157" lon="5.576">
        <ele>1130.3</ele>
        <time>2021-08-31T11:04:20Z</time>
      </trkpt>
      <trkpt lat="45.0715" lon="5.5759">
        <ele>1127.9</ele>
        <time>2021-08-31T11:04:28Z</time>
      </trkpt>
      <trkpt lat="45.0715" lon="5.57586">
        <ele>1127.2</ele>
        <time>2021-08-31T11:04:29Z</time>
      </trkpt>
      <trkpt lat="45.07151" lon="5.57583">
        <ele>1126.8</ele>
        <time>2021-08-31T11:04:30Z</time>
      </trkpt>
      <trkpt lat="45.0715" lon="5.57582">
        <ele>1126.5</ele>
        <time>2021-08-31T11:04:32Z</time>
      </trkpt>
      <trkpt lat="45.0715" lon="5.57582">
        <ele>1126.4</ele>
        <time>2021-08-31T11:04:33Z</time>
      </trkpt>
      <trkpt lat="45.0715" lon="5.57581">
        <ele>1126.2</ele>
        <time>2021-08-31T11:04:34Z</time>
      </trkpt>
      <trkpt lat="45.07149" lon="5.5758">
        <ele>1126</ele>
        <time>2021-08-31T11:04:35Z</time>
      </trkpt>
      <trkpt lat="45.07149" lon="5.57577">
        <ele>1125.4</ele>
        <time>2021-08-31T11:04:38Z</time>
      </trkpt>
      <trkpt lat="45.07149" lon="5.57575">
        <ele>1125.1</ele>
        <time>2021-08-31T11:04:40Z</time>
      </trkpt>
      <trkpt lat="45.07148" lon="5.57578">
        <ele>1124.4</ele>
        <time>2021-08-31T11:07:19Z</time>
      </trkpt>
      <trkpt lat="45.07151" lon="5.57577">
        <ele>1123.6</ele>
        <time>2021-08-31T11:07:20Z</time>
      </trkpt>
      <trkpt lat="45.07156" lon="5.57574">
        <ele>1122</ele>
        <time>2021-08-31T11:07:22Z</time>
      </trkpt>
      <trkpt lat="45.0716" lon="5.5757">
        <ele>1120.5</ele>
        <time>2021-08-31T11:07:24Z</time>
      </trkpt>
      <trkpt lat="45.07167" lon="5.57567">
        <ele>1118.3</ele>
        <time>2021-08-31T11:07:25Z</time>
      </trkpt>
      <trkpt lat="45.07171" lon="5.57567">
        <ele>1117</ele>
        <time>2021-08-31T11:07:27Z</time>
      </trkpt>
      <trkpt lat="45.07175" lon="5.57567">
        <ele>1116</ele>
        <time>2021-08-31T11:07:28Z</time>
      </trkpt>
      <trkpt lat="45.07177" lon="5.57567">
        <ele>1115.1</ele>
        <time>2021-08-31T11:07:29Z</time>
      </trkpt>
      <trkpt lat="45.07179" lon="5.57568">
        <ele>1114.6</ele>
        <time>2021-08-31T11:07:30Z</time>
      </trkpt>
      <trkpt lat="45.0718" lon="5.5757">
        <ele>1114.1</ele>
        <time>2021-08-31T11:07:31Z</time>
      </trkpt>
      <trkpt lat="45.07181" lon="5.57571">
        <ele>1113.8</ele>
        <time>2021-08-31T11:07:32Z</time>
      </trkpt>
      <trkpt lat="45.07181" lon="5.57572">
        <ele>1113.6</ele>
        <time>2021-08-31T11:07:34Z</time>
      </trkpt>
      <trkpt lat="45.07182" lon="5.57571">
        <ele>1113.4</ele>
        <time>2021-08-31T11:07:35Z</time>
      </trkpt>
      <trkpt lat="45.07183" lon="5.57571">
        <ele>1113.2</ele>
        <time>2021-08-31T11:07:36Z</time>
      </trkpt>
      <trkpt lat="45.07184" lon="5.57569">
        <ele>1112.7</ele>
        <time>2021-08-31T11:07:38Z</time>
      </trkpt>
      <trkpt lat="45.07185" lon="5.57568">
        <ele>1112.4</ele>
        <time>2021-08-31T11:07:39Z</time>
      </trkpt>
      <trkpt lat="45.07198" lon="5.57541">
        <ele>1106.9</ele>
        <time>2021-08-31T11:07:53Z</time>
      </trkpt>
      <trkpt lat="45.07201" lon="5.5754">
        <ele>1106.3</ele>
        <time>2021-08-31T11:07:54Z</time>
      </trkpt>
      <trkpt lat="45.07211" lon="5.57534">
        <ele>1103.8</ele>
        <time>2021-08-31T11:07:56Z</time>
      </trkpt>
      <trkpt lat="45.07216" lon="5.57531">
        <ele>1102.4</ele>
        <time>2021-08-31T11:07:57Z</time>
      </trkpt>
      <trkpt lat="45.07222" lon="5.57528">
        <ele>1100.8</ele>
        <time>2021-08-31T11:07:58Z</time>
      </trkpt>
      <trkpt lat="45.07226" lon="5.57522">
        <ele>1099.1</ele>
        <time>2021-08-31T11:08:00Z</time>
      </trkpt>
      <trkpt lat="45.07228" lon="5.57518">
        <ele>1098.2</ele>
        <time>2021-08-31T11:08:01Z</time>
      </trkpt>
      <trkpt lat="45.07231" lon="5.57513">
        <ele>1097.1</ele>
        <time>2021-08-31T11:08:02Z</time>
      </trkpt>
      <trkpt lat="45.07233" lon="5.57508">
        <ele>1096.3</ele>
        <time>2021-08-31T11:08:03Z</time>
      </trkpt>
      <trkpt lat="45.07235" lon="5.57505">
        <ele>1095.5</ele>
        <time>2021-08-31T11:08:04Z</time>
      </trkpt>
      <trkpt lat="45.07237" lon="5.575">
        <ele>1094.6</ele>
        <time>2021-08-31T11:08:06Z</time>
      </trkpt>
      <trkpt lat="45.07239" lon="5.57497">
        <ele>1094.1</ele>
        <time>2021-08-31T11:08:07Z</time>
      </trkpt>
      <trkpt lat="45.0724" lon="5.57495">
        <ele>1093.8</ele>
        <time>2021-08-31T11:08:08Z</time>
      </trkpt>
      <trkpt lat="45.07241" lon="5.57492">
        <ele>1093.3</ele>
        <time>2021-08-31T11:08:10Z</time>
      </trkpt>
      <trkpt lat="45.07241" lon="5.57487">
        <ele>1092.6</ele>
        <time>2021-08-31T11:08:11Z</time>
      </trkpt>
      <trkpt lat="45.07242" lon="5.57484">
        <ele>1092.2</ele>
        <time>2021-08-31T11:08:12Z</time>
      </trkpt>
      <trkpt lat="45.07244" lon="5.57476">
        <ele>1091.2</ele>
        <time>2021-08-31T11:08:14Z</time>
      </trkpt>
      <trkpt lat="45.07246" lon="5.5747">
        <ele>1090.4</ele>
        <time>2021-08-31T11:08:15Z</time>
      </trkpt>
      <trkpt lat="45.07248" lon="5.57461">
        <ele>1089.4</ele>
        <time>2021-08-31T11:08:17Z</time>
      </trkpt>
      <trkpt lat="45.07248" lon="5.57455">
        <ele>1088.8</ele>
        <time>2021-08-31T11:08:18Z</time>
      </trkpt>
      <trkpt lat="45.07247" lon="5.5745">
        <ele>1088.3</ele>
        <time>2021-08-31T11:08:20Z</time>
      </trkpt>
      <trkpt lat="45.07245" lon="5.57446">
        <ele>1087.9</ele>
        <time>2021-08-31T11:08:21Z</time>
      </trkpt>
      <trkpt lat="45.07244" lon="5.57445">
        <ele>1087.8</ele>
        <time>2021-08-31T11:08:22Z</time>
      </trkpt>
      <trkpt lat="45.0724" lon="5.57442">
        <ele>1087.3</ele>
        <time>2021-08-31T11:08:24Z</time>
      </trkpt>
      <trkpt lat="45.07238" lon="5.57442">
        <ele>1087.2</ele>
        <time>2021-08-31T11:08:25Z</time>
      </trkpt>
      <trkpt lat="45.07237" lon="5.57441">
        <ele>1087</ele>
        <time>2021-08-31T11:08:26Z</time>
      </trkpt>
      <trkpt lat="45.07233" lon="5.5744">
        <ele>1086.9</ele>
        <time>2021-08-31T11:08:28Z</time>
      </trkpt>
      <trkpt lat="45.07232" lon="5.5744">
        <ele>1086.8</ele>
        <time>2021-08-31T11:08:29Z</time>
      </trkpt>
      <trkpt lat="45.07232" lon="5.5744">
        <ele>1086.8</ele>
        <time>2021-08-31T11:08:30Z</time>
      </trkpt>
      <trkpt lat="45.07233" lon="5.57439">
        <ele>1086.8</ele>
        <time>2021-08-31T11:08:32Z</time>
      </trkpt>
      <trkpt lat="45.07233" lon="5.57439">
        <ele>1086.7</ele>
        <time>2021-08-31T11:08:33Z</time>
      </trkpt>
      <trkpt lat="45.07234" lon="5.57437">
        <ele>1086.6</ele>
        <time>2021-08-31T11:08:34Z</time>
      </trkpt>
      <trkpt lat="45.07236" lon="5.57432">
        <ele>1086.1</ele>
        <time>2021-08-31T11:08:36Z</time>
      </trkpt>
      <trkpt lat="45.07237" lon="5.5743">
        <ele>1086</ele>
        <time>2021-08-31T11:08:37Z</time>
      </trkpt>
      <trkpt lat="45.07237" lon="5.57428">
        <ele>1085.8</ele>
        <time>2021-08-31T11:08:39Z</time>
      </trkpt>
      <trkpt lat="45.07238" lon="5.57426">
        <ele>1085.7</ele>
        <time>2021-08-31T11:08:40Z</time>
      </trkpt>
      <trkpt lat="45.07237" lon="5.57418">
        <ele>1084.9</ele>
        <time>2021-08-31T11:08:41Z</time>
      </trkpt>
      <trkpt lat="45.07225" lon="5.57384">
        <ele>1081.5</ele>
        <time>2021-08-31T11:08:43Z</time>
      </trkpt>
      <trkpt lat="45.07222" lon="5.57371">
        <ele>1080.3</ele>
        <time>2021-08-31T11:08:44Z</time>
      </trkpt>
      <trkpt lat="45.0722" lon="5.57364">
        <ele>1079.7</ele>
        <time>2021-08-31T11:08:45Z</time>
      </trkpt>
      <trkpt lat="45.0722" lon="5.57359">
        <ele>1079.4</ele>
        <time>2021-08-31T11:08:46Z</time>
      </trkpt>
      <trkpt lat="45.07226" lon="5.57353">
        <ele>1078.6</ele>
        <time>2021-08-31T11:08:48Z</time>
      </trkpt>
      <trkpt lat="45.07227" lon="5.5735">
        <ele>1078.5</ele>
        <time>2021-08-31T11:08:49Z</time>
      </trkpt>
      <trkpt lat="45.07227" lon="5.57349">
        <ele>1078.4</ele>
        <time>2021-08-31T11:08:51Z</time>
      </trkpt>
      <trkpt lat="45.07227" lon="5.57349">
        <ele>1078.4</ele>
        <time>2021-08-31T11:08:52Z</time>
      </trkpt>
      <trkpt lat="45.07225" lon="5.57345">
        <ele>1078.1</ele>
        <time>2021-08-31T11:08:54Z</time>
      </trkpt>
      <trkpt lat="45.07222" lon="5.57342">
        <ele>1077.9</ele>
        <time>2021-08-31T11:08:56Z</time>
      </trkpt>
      <trkpt lat="45.0722" lon="5.57339">
        <ele>1077.7</ele>
        <time>2021-08-31T11:09:24Z</time>
      </trkpt>
      <trkpt lat="45.07217" lon="5.57336">
        <ele>1077.5</ele>
        <time>2021-08-31T11:09:25Z</time>
      </trkpt>
      <trkpt lat="45.07216" lon="5.5734">
        <ele>1077.3</ele>
        <time>2021-08-31T11:09:27Z</time>
      </trkpt>
      <trkpt lat="45.07215" lon="5.57342">
        <ele>1077.2</ele>
        <time>2021-08-31T11:09:29Z</time>
      </trkpt>
      <trkpt lat="45.07214" lon="5.57344">
        <ele>1077.1</ele>
        <time>2021-08-31T11:09:31Z</time>
      </trkpt>
      <trkpt lat="45.07214" lon="5.57346">
        <ele>1077</ele>
        <time>2021-08-31T11:09:33Z</time>
      </trkpt>
      <trkpt lat="45.07214" lon="5.57347">
        <ele>1077</ele>
        <time>2021-08-31T11:09:34Z</time>
      </trkpt>
      <trkpt lat="45.07214" lon="5.57347">
        <ele>1077</ele>
        <time>2021-08-31T11:09:35Z</time>
      </trkpt>
      <trkpt lat="45.072" lon="5.5736">
        <ele>1076.2</ele>
        <time>2021-08-31T11:09:52Z</time>
      </trkpt>
      <trkpt lat="45.07191" lon="5.57363">
        <ele>1075.8</ele>
        <time>2021-08-31T11:09:54Z</time>
      </trkpt>
      <trkpt lat="45.07183" lon="5.57364">
        <ele>1075.4</ele>
        <time>2021-08-31T11:09:56Z</time>
      </trkpt>
      <trkpt lat="45.07179" lon="5.57367">
        <ele>1075.2</ele>
        <time>2021-08-31T11:09:57Z</time>
      </trkpt>
      <trkpt lat="45.07178" lon="5.5737">
        <ele>1075.1</ele>
        <time>2021-08-31T11:09:58Z</time>
      </trkpt>
      <trkpt lat="45.07177" lon="5.57373">
        <ele>1075</ele>
        <time>2021-08-31T11:10:00Z</time>
      </trkpt>
      <trkpt lat="45.07177" lon="5.57375">
        <ele>1075</ele>
        <time>2021-08-31T11:10:01Z</time>
      </trkpt>
      <trkpt lat="45.07177" lon="5.57375">
        <ele>1075</ele>
        <time>2021-08-31T11:10:03Z</time>
      </trkpt>
      <trkpt lat="45.07177" lon="5.57375">
        <ele>1075</ele>
        <time>2021-08-31T11:10:04Z</time>
      </trkpt>
      <trkpt lat="45.07176" lon="5.57374">
        <ele>1075</ele>
        <time>2021-08-31T11:10:06Z</time>
      </trkpt>
      <trkpt lat="45.07176" lon="5.57373">
        <ele>1074.9</ele>
        <time>2021-08-31T11:10:07Z</time>
      </trkpt>
      <trkpt lat="45.07167" lon="5.57365">
        <ele>1074.8</ele>
        <time>2021-08-31T11:10:12Z</time>
      </trkpt>
      <trkpt lat="45.07163" lon="5.57359">
        <ele>1074.9</ele>
        <time>2021-08-31T11:10:13Z</time>
      </trkpt>
      <trkpt lat="45.07156" lon="5.57348">
        <ele>1075.4</ele>
        <time>2021-08-31T11:10:15Z</time>
      </trkpt>
      <trkpt lat="45.07151" lon="5.57341">
        <ele>1075.9</ele>
        <time>2021-08-31T11:10:16Z</time>
      </trkpt>
      <trkpt lat="45.07147" lon="5.57338">
        <ele>1076.3</ele>
        <time>2021-08-31T11:10:18Z</time>
      </trkpt>
      <trkpt lat="45.07147" lon="5.57336">
        <ele>1076.4</ele>
        <time>2021-08-31T11:10:19Z</time>
      </trkpt>
      <trkpt lat="45.07146" lon="5.57335">
        <ele>1076.5</ele>
        <time>2021-08-31T11:10:20Z</time>
      </trkpt>
      <trkpt lat="45.07145" lon="5.57334">
        <ele>1076.6</ele>
        <time>2021-08-31T11:10:21Z</time>
      </trkpt>
      <trkpt lat="45.07144" lon="5.5733">
        <ele>1077</ele>
        <time>2021-08-31T11:10:22Z</time>
      </trkpt>
      <trkpt lat="45.07143" lon="5.57324">
        <ele>1077.4</ele>
        <time>2021-08-31T11:10:24Z</time>
      </trkpt>
      <trkpt lat="45.07143" lon="5.57322">
        <ele>1077.6</ele>
        <time>2021-08-31T11:10:25Z</time>
      </trkpt>
      <trkpt lat="45.07142" lon="5.5732">
        <ele>1077.8</ele>
        <time>2021-08-31T11:10:26Z</time>
      </trkpt>
      <trkpt lat="45.07141" lon="5.57319">
        <ele>1077.9</ele>
        <time>2021-08-31T11:10:28Z</time>
      </trkpt>
      <trkpt lat="45.07141" lon="5.57319">
        <ele>1078</ele>
        <time>2021-08-31T11:10:30Z</time>
      </trkpt>
      <trkpt lat="45.07141" lon="5.57317">
        <ele>1078.2</ele>
        <time>2021-08-31T11:10:32Z</time>
      </trkpt>
      <trkpt lat="45.07117" lon="5.57257">
        <ele>1081.8</ele>
        <time>2021-08-31T11:11:26Z</time>
      </trkpt>
      <trkpt lat="45.07116" lon="5.57253">
        <ele>1081.3</ele>
        <time>2021-08-31T11:11:27Z</time>
      </trkpt>
      <trkpt lat="45.07116" lon="5.5725">
        <ele>1081.1</ele>
        <time>2021-08-31T11:11:28Z</time>
      </trkpt>
      <trkpt lat="45.07116" lon="5.57245">
        <ele>1080.5</ele>
        <time>2021-08-31T11:11:30Z</time>
      </trkpt>
      <trkpt lat="45.07116" lon="5.57239">
        <ele>1080</ele>
        <time>2021-08-31T11:11:31Z</time>
      </trkpt>
      <trkpt lat="45.07116" lon="5.57233">
        <ele>1079.2</ele>
        <time>2021-08-31T11:11:32Z</time>
      </trkpt>
      <trkpt lat="45.07116" lon="5.57228">
        <ele>1078.4</ele>
        <time>2021-08-31T11:11:33Z</time>
      </trkpt>
      <trkpt lat="45.07116" lon="5.5722">
        <ele>1077.4</ele>
        <time>2021-08-31T11:11:35Z</time>
      </trkpt>
      <trkpt lat="45.07118" lon="5.57209">
        <ele>1075.7</ele>
        <time>2021-08-31T11:11:36Z</time>
      </trkpt>
      <trkpt lat="45.07118" lon="5.57201">
        <ele>1074.5</ele>
        <time>2021-08-31T11:11:37Z</time>
      </trkpt>
      <trkpt lat="45.07122" lon="5.57185">
        <ele>1072.2</ele>
        <time>2021-08-31T11:11:39Z</time>
      </trkpt>
      <trkpt lat="45.07125" lon="5.57179">
        <ele>1071.3</ele>
        <time>2021-08-31T11:11:41Z</time>
      </trkpt>
      <trkpt lat="45.07127" lon="5.57172">
        <ele>1070.4</ele>
        <time>2021-08-31T11:11:42Z</time>
      </trkpt>
      <trkpt lat="45.07129" lon="5.57165">
        <ele>1069.4</ele>
        <time>2021-08-31T11:11:43Z</time>
      </trkpt>
      <trkpt lat="45.07131" lon="5.5716">
        <ele>1068.7</ele>
        <time>2021-08-31T11:11:44Z</time>
      </trkpt>
      <trkpt lat="45.07136" lon="5.57155">
        <ele>1067.6</ele>
        <time>2021-08-31T11:11:46Z</time>
      </trkpt>
      <trkpt lat="45.07148" lon="5.57144">
        <ele>1065.2</ele>
        <time>2021-08-31T11:11:47Z</time>
      </trkpt>
      <trkpt lat="45.07154" lon="5.57138">
        <ele>1064</ele>
        <time>2021-08-31T11:11:48Z</time>
      </trkpt>
      <trkpt lat="45.07159" lon="5.5713">
        <ele>1062.8</ele>
        <time>2021-08-31T11:11:49Z</time>
      </trkpt>
      <trkpt lat="45.07167" lon="5.57115">
        <ele>1060.8</ele>
        <time>2021-08-31T11:11:51Z</time>
      </trkpt>
      <trkpt lat="45.07171" lon="5.57108">
        <ele>1059.9</ele>
        <time>2021-08-31T11:11:52Z</time>
      </trkpt>
      <trkpt lat="45.07172" lon="5.57098">
        <ele>1058.8</ele>
        <time>2021-08-31T11:11:54Z</time>
      </trkpt>
      <trkpt lat="45.07172" lon="5.57092">
        <ele>1058.1</ele>
        <time>2021-08-31T11:11:55Z</time>
      </trkpt>
      <trkpt lat="45.07175" lon="5.57085">
        <ele>1057</ele>
        <time>2021-08-31T11:11:57Z</time>
      </trkpt>
      <trkpt lat="45.07177" lon="5.57077">
        <ele>1056</ele>
        <time>2021-08-31T11:11:58Z</time>
      </trkpt>
      <trkpt lat="45.07178" lon="5.5707">
        <ele>1055.2</ele>
        <time>2021-08-31T11:11:59Z</time>
      </trkpt>
      <trkpt lat="45.0718" lon="5.57062">
        <ele>1054.2</ele>
        <time>2021-08-31T11:12:00Z</time>
      </trkpt>
      <trkpt lat="45.07188" lon="5.57044">
        <ele>1052</ele>
        <time>2021-08-31T11:12:02Z</time>
      </trkpt>
      <trkpt lat="45.072" lon="5.57028">
        <ele>1049.9</ele>
        <time>2021-08-31T11:12:04Z</time>
      </trkpt>
      <trkpt lat="45.07214" lon="5.57015">
        <ele>1048.4</ele>
        <time>2021-08-31T11:12:06Z</time>
      </trkpt>
      <trkpt lat="45.0722" lon="5.57008">
        <ele>1047.9</ele>
        <time>2021-08-31T11:12:07Z</time>
      </trkpt>
      <trkpt lat="45.0723" lon="5.56996">
        <ele>1047.2</ele>
        <time>2021-08-31T11:12:09Z</time>
      </trkpt>
      <trkpt lat="45.07234" lon="5.56989">
        <ele>1047</ele>
        <time>2021-08-31T11:12:10Z</time>
      </trkpt>
      <trkpt lat="45.07237" lon="5.56975">
        <ele>1046.8</ele>
        <time>2021-08-31T11:12:12Z</time>
      </trkpt>
      <trkpt lat="45.0724" lon="5.56964">
        <ele>1046.9</ele>
        <time>2021-08-31T11:12:14Z</time>
      </trkpt>
      <trkpt lat="45.07242" lon="5.56953">
        <ele>1047.1</ele>
        <time>2021-08-31T11:12:16Z</time>
      </trkpt>
      <trkpt lat="45.07243" lon="5.56945">
        <ele>1047.4</ele>
        <time>2021-08-31T11:12:18Z</time>
      </trkpt>
      <trkpt lat="45.07245" lon="5.56941">
        <ele>1047.6</ele>
        <time>2021-08-31T11:12:20Z</time>
      </trkpt>
      <trkpt lat="45.07246" lon="5.5694">
        <ele>1047.7</ele>
        <time>2021-08-31T11:12:21Z</time>
      </trkpt>
      <trkpt lat="45.07245" lon="5.56937">
        <ele>1047.9</ele>
        <time>2021-08-31T11:12:22Z</time>
      </trkpt>
      <trkpt lat="45.07245" lon="5.56931">
        <ele>1048.4</ele>
        <time>2021-08-31T11:12:24Z</time>
      </trkpt>
      <trkpt lat="45.07245" lon="5.56926">
        <ele>1048.7</ele>
        <time>2021-08-31T11:12:26Z</time>
      </trkpt>
      <trkpt lat="45.07244" lon="5.56922">
        <ele>1049.1</ele>
        <time>2021-08-31T11:12:28Z</time>
      </trkpt>
      <trkpt lat="45.07245" lon="5.56917">
        <ele>1049.7</ele>
        <time>2021-08-31T11:12:29Z</time>
      </trkpt>
      <trkpt lat="45.07246" lon="5.56912">
        <ele>1050.2</ele>
        <time>2021-08-31T11:12:30Z</time>
      </trkpt>
      <trkpt lat="45.07246" lon="5.5691">
        <ele>1050.3</ele>
        <time>2021-08-31T11:12:31Z</time>
      </trkpt>
      <trkpt lat="45.07245" lon="5.56905">
        <ele>1050.8</ele>
        <time>2021-08-31T11:12:33Z</time>
      </trkpt>
      <trkpt lat="45.07244" lon="5.569">
        <ele>1051.3</ele>
        <time>2021-08-31T11:12:35Z</time>
      </trkpt>
      <trkpt lat="45.07243" lon="5.56899">
        <ele>1051.5</ele>
        <time>2021-08-31T11:12:36Z</time>
      </trkpt>
      <trkpt lat="45.07244" lon="5.56899">
        <ele>1051.5</ele>
        <time>2021-08-31T11:12:38Z</time>
      </trkpt>
      <trkpt lat="45.07243" lon="5.56898">
        <ele>1051.6</ele>
        <time>2021-08-31T11:12:39Z</time>
      </trkpt>
      <trkpt lat="45.07243" lon="5.56896">
        <ele>1051.7</ele>
        <time>2021-08-31T11:12:41Z</time>
      </trkpt>
      <trkpt lat="45.07242" lon="5.56894">
        <ele>1051.8</ele>
        <time>2021-08-31T11:12:42Z</time>
      </trkpt>
      <trkpt lat="45.07242" lon="5.56892">
        <ele>1051.9</ele>
        <time>2021-08-31T11:12:43Z</time>
      </trkpt>
      <trkpt lat="45.0724" lon="5.56888">
        <ele>1052.1</ele>
        <time>2021-08-31T11:12:45Z</time>
      </trkpt>
      <trkpt lat="45.07239" lon="5.56883">
        <ele>1052.1</ele>
        <time>2021-08-31T11:12:46Z</time>
      </trkpt>
      <trkpt lat="45.07236" lon="5.56879">
        <ele>1051.9</ele>
        <time>2021-08-31T11:12:48Z</time>
      </trkpt>
      <trkpt lat="45.07236" lon="5.56877">
        <ele>1051.7</ele>
        <time>2021-08-31T11:12:50Z</time>
      </trkpt>
      <trkpt lat="45.07235" lon="5.56876">
        <ele>1051.6</ele>
        <time>2021-08-31T11:12:51Z</time>
      </trkpt>
      <trkpt lat="45.07235" lon="5.56875">
        <ele>1051.6</ele>
        <time>2021-08-31T11:12:52Z</time>
      </trkpt>
      <trkpt lat="45.07236" lon="5.56873">
        <ele>1051.4</ele>
        <time>2021-08-31T11:12:53Z</time>
      </trkpt>
      <trkpt lat="45.07237" lon="5.56871">
        <ele>1051.2</ele>
        <time>2021-08-31T11:12:54Z</time>
      </trkpt>
      <trkpt lat="45.07246" lon="5.56858">
        <ele>1048.9</ele>
        <time>2021-08-31T11:12:56Z</time>
      </trkpt>
      <trkpt lat="45.07254" lon="5.56848">
        <ele>1046.8</ele>
        <time>2021-08-31T11:12:57Z</time>
      </trkpt>
      <trkpt lat="45.07262" lon="5.56838">
        <ele>1044.7</ele>
        <time>2021-08-31T11:12:58Z</time>
      </trkpt>
      <trkpt lat="45.07276" lon="5.56824">
        <ele>1041.7</ele>
        <time>2021-08-31T11:13:00Z</time>
      </trkpt>
      <trkpt lat="45.07292" lon="5.56813">
        <ele>1038.9</ele>
        <time>2021-08-31T11:13:02Z</time>
      </trkpt>
      <trkpt lat="45.07298" lon="5.56808">
        <ele>1037.8</ele>
        <time>2021-08-31T11:13:03Z</time>
      </trkpt>
      <trkpt lat="45.07311" lon="5.56799">
        <ele>1035.7</ele>
        <time>2021-08-31T11:13:05Z</time>
      </trkpt>
      <trkpt lat="45.07319" lon="5.5679">
        <ele>1034.4</ele>
        <time>2021-08-31T11:13:07Z</time>
      </trkpt>
      <trkpt lat="45.07329" lon="5.56784">
        <ele>1033.1</ele>
        <time>2021-08-31T11:13:09Z</time>
      </trkpt>
      <trkpt lat="45.07337" lon="5.56782">
        <ele>1032.5</ele>
        <time>2021-08-31T11:13:10Z</time>
      </trkpt>
      <trkpt lat="45.07351" lon="5.56778">
        <ele>1031.4</ele>
        <time>2021-08-31T11:13:12Z</time>
      </trkpt>
      <trkpt lat="45.07358" lon="5.56776">
        <ele>1031</ele>
        <time>2021-08-31T11:13:13Z</time>
      </trkpt>
      <trkpt lat="45.07373" lon="5.5677">
        <ele>1030.2</ele>
        <time>2021-08-31T11:13:15Z</time>
      </trkpt>
      <trkpt lat="45.07388" lon="5.56769">
        <ele>1029.7</ele>
        <time>2021-08-31T11:13:17Z</time>
      </trkpt>
      <trkpt lat="45.07395" lon="5.5677">
        <ele>1029.6</ele>
        <time>2021-08-31T11:13:18Z</time>
      </trkpt>
      <trkpt lat="45.07402" lon="5.56771">
        <ele>1029.6</ele>
        <time>2021-08-31T11:13:19Z</time>
      </trkpt>
      <trkpt lat="45.07408" lon="5.56773">
        <ele>1029.6</ele>
        <time>2021-08-31T11:13:20Z</time>
      </trkpt>
      <trkpt lat="45.0742" lon="5.56776">
        <ele>1029.4</ele>
        <time>2021-08-31T11:13:22Z</time>
      </trkpt>
      <trkpt lat="45.07423" lon="5.56776">
        <ele>1029.3</ele>
        <time>2021-08-31T11:13:23Z</time>
      </trkpt>
      <trkpt lat="45.07432" lon="5.56772">
        <ele>1028.9</ele>
        <time>2021-08-31T11:13:25Z</time>
      </trkpt>
      <trkpt lat="45.0744" lon="5.56768">
        <ele>1028.4</ele>
        <time>2021-08-31T11:13:27Z</time>
      </trkpt>
      <trkpt lat="45.07444" lon="5.56764">
        <ele>1028.2</ele>
        <time>2021-08-31T11:13:28Z</time>
      </trkpt>
      <trkpt lat="45.07455" lon="5.5676">
        <ele>1027.6</ele>
        <time>2021-08-31T11:13:30Z</time>
      </trkpt>
      <trkpt lat="45.07462" lon="5.56759">
        <ele>1027.2</ele>
        <time>2021-08-31T11:13:31Z</time>
      </trkpt>
      <trkpt lat="45.07472" lon="5.5676">
        <ele>1026.4</ele>
        <time>2021-08-31T11:13:33Z</time>
      </trkpt>
      <trkpt lat="45.07477" lon="5.56758">
        <ele>1025.7</ele>
        <time>2021-08-31T11:13:35Z</time>
      </trkpt>
      <trkpt lat="45.07479" lon="5.56756">
        <ele>1025.3</ele>
        <time>2021-08-31T11:13:36Z</time>
      </trkpt>
      <trkpt lat="45.0748" lon="5.56755">
        <ele>1025.1</ele>
        <time>2021-08-31T11:13:37Z</time>
      </trkpt>
      <trkpt lat="45.07486" lon="5.56752">
        <ele>1024.1</ele>
        <time>2021-08-31T11:13:39Z</time>
      </trkpt>
      <trkpt lat="45.07492" lon="5.56749">
        <ele>1022.8</ele>
        <time>2021-08-31T11:13:41Z</time>
      </trkpt>
      <trkpt lat="45.07496" lon="5.56747">
        <ele>1022</ele>
        <time>2021-08-31T11:13:42Z</time>
      </trkpt>
      <trkpt lat="45.075" lon="5.56744">
        <ele>1021</ele>
        <time>2021-08-31T11:13:43Z</time>
      </trkpt>
      <trkpt lat="45.07504" lon="5.56739">
        <ele>1020.2</ele>
        <time>2021-08-31T11:13:44Z</time>
      </trkpt>
      <trkpt lat="45.07506" lon="5.56734">
        <ele>1019.5</ele>
        <time>2021-08-31T11:13:45Z</time>
      </trkpt>
      <trkpt lat="45.07507" lon="5.56719">
        <ele>1018.2</ele>
        <time>2021-08-31T11:13:47Z</time>
      </trkpt>
      <trkpt lat="45.07509" lon="5.567">
        <ele>1016.8</ele>
        <time>2021-08-31T11:13:49Z</time>
      </trkpt>
      <trkpt lat="45.0751" lon="5.56689">
        <ele>1016.1</ele>
        <time>2021-08-31T11:13:50Z</time>
      </trkpt>
      <trkpt lat="45.07509" lon="5.56667">
        <ele>1014.7</ele>
        <time>2021-08-31T11:13:52Z</time>
      </trkpt>
      <trkpt lat="45.0751" lon="5.56644">
        <ele>1013.5</ele>
        <time>2021-08-31T11:13:54Z</time>
      </trkpt>
      <trkpt lat="45.07511" lon="5.56633">
        <ele>1013</ele>
        <time>2021-08-31T11:13:55Z</time>
      </trkpt>
      <trkpt lat="45.07512" lon="5.56614">
        <ele>1012</ele>
        <time>2021-08-31T11:13:57Z</time>
      </trkpt>
      <trkpt lat="45.0751" lon="5.56606">
        <ele>1011.8</ele>
        <time>2021-08-31T11:13:58Z</time>
      </trkpt>
      <trkpt lat="45.07503" lon="5.56592">
        <ele>1011.5</ele>
        <time>2021-08-31T11:14:00Z</time>
      </trkpt>
      <trkpt lat="45.07495" lon="5.56582">
        <ele>1011.5</ele>
        <time>2021-08-31T11:14:02Z</time>
      </trkpt>
      <trkpt lat="45.0749" lon="5.56577">
        <ele>1011.6</ele>
        <time>2021-08-31T11:14:03Z</time>
      </trkpt>
      <trkpt lat="45.07481" lon="5.56567">
        <ele>1011.9</ele>
        <time>2021-08-31T11:14:05Z</time>
      </trkpt>
      <trkpt lat="45.07478" lon="5.56562">
        <ele>1012.2</ele>
        <time>2021-08-31T11:14:06Z</time>
      </trkpt>
      <trkpt lat="45.07472" lon="5.56554">
        <ele>1012.7</ele>
        <time>2021-08-31T11:14:08Z</time>
      </trkpt>
      <trkpt lat="45.07469" lon="5.56548">
        <ele>1013.1</ele>
        <time>2021-08-31T11:14:10Z</time>
      </trkpt>
      <trkpt lat="45.07467" lon="5.56545">
        <ele>1013.4</ele>
        <time>2021-08-31T11:14:12Z</time>
      </trkpt>
      <trkpt lat="45.07462" lon="5.56542">
        <ele>1013.9</ele>
        <time>2021-08-31T11:14:14Z</time>
      </trkpt>
      <trkpt lat="45.0746" lon="5.5654">
        <ele>1014.2</ele>
        <time>2021-08-31T11:14:16Z</time>
      </trkpt>
      <trkpt lat="45.07459" lon="5.56536">
        <ele>1014.5</ele>
        <time>2021-08-31T11:14:18Z</time>
      </trkpt>
      <trkpt lat="45.07457" lon="5.56531">
        <ele>1014.9</ele>
        <time>2021-08-31T11:14:20Z</time>
      </trkpt>
      <trkpt lat="45.07456" lon="5.5653">
        <ele>1015.1</ele>
        <time>2021-08-31T11:14:21Z</time>
      </trkpt>
      <trkpt lat="45.07456" lon="5.56528">
        <ele>1015.3</ele>
        <time>2021-08-31T11:14:22Z</time>
      </trkpt>
      <trkpt lat="45.07455" lon="5.56526">
        <ele>1015.5</ele>
        <time>2021-08-31T11:14:23Z</time>
      </trkpt>
      <trkpt lat="45.07455" lon="5.56524">
        <ele>1015.6</ele>
        <time>2021-08-31T11:14:24Z</time>
      </trkpt>
      <trkpt lat="45.07454" lon="5.56523">
        <ele>1015.7</ele>
        <time>2021-08-31T11:14:25Z</time>
      </trkpt>
      <trkpt lat="45.07453" lon="5.5652">
        <ele>1016</ele>
        <time>2021-08-31T11:14:26Z</time>
      </trkpt>
      <trkpt lat="45.07453" lon="5.56519">
        <ele>1016</ele>
        <time>2021-08-31T11:14:27Z</time>
      </trkpt>
      <trkpt lat="45.07452" lon="5.56518">
        <ele>1016.1</ele>
        <time>2021-08-31T11:14:28Z</time>
      </trkpt>
      <trkpt lat="45.07453" lon="5.56515">
        <ele>1016.4</ele>
        <time>2021-08-31T11:14:29Z</time>
      </trkpt>
      <trkpt lat="45.07453" lon="5.56514">
        <ele>1016.5</ele>
        <time>2021-08-31T11:14:30Z</time>
      </trkpt>
      <trkpt lat="45.07453" lon="5.56513">
        <ele>1016.6</ele>
        <time>2021-08-31T11:14:31Z</time>
      </trkpt>
      <trkpt lat="45.07451" lon="5.5651">
        <ele>1016.9</ele>
        <time>2021-08-31T11:14:33Z</time>
      </trkpt>
      <trkpt lat="45.07449" lon="5.56509">
        <ele>1017</ele>
        <time>2021-08-31T11:14:34Z</time>
      </trkpt>
      <trkpt lat="45.07449" lon="5.56508">
        <ele>1017.1</ele>
        <time>2021-08-31T11:14:36Z</time>
      </trkpt>
      <trkpt lat="45.07449" lon="5.56506">
        <ele>1017.2</ele>
        <time>2021-08-31T11:14:37Z</time>
      </trkpt>
      <trkpt lat="45.07448" lon="5.56504">
        <ele>1017.4</ele>
        <time>2021-08-31T11:14:38Z</time>
      </trkpt>
      <trkpt lat="45.07447" lon="5.56502">
        <ele>1017.5</ele>
        <time>2021-08-31T11:14:39Z</time>
      </trkpt>
      <trkpt lat="45.07447" lon="5.56497">
        <ele>1017.8</ele>
        <time>2021-08-31T11:14:41Z</time>
      </trkpt>
      <trkpt lat="45.07446" lon="5.56496">
        <ele>1017.9</ele>
        <time>2021-08-31T11:14:42Z</time>
      </trkpt>
      <trkpt lat="45.07446" lon="5.56492">
        <ele>1018.1</ele>
        <time>2021-08-31T11:14:43Z</time>
      </trkpt>
      <trkpt lat="45.07446" lon="5.5649">
        <ele>1018.1</ele>
        <time>2021-08-31T11:14:44Z</time>
      </trkpt>
      <trkpt lat="45.07444" lon="5.56487">
        <ele>1018.3</ele>
        <time>2021-08-31T11:14:45Z</time>
      </trkpt>
      <trkpt lat="45.07444" lon="5.56486">
        <ele>1018.4</ele>
        <time>2021-08-31T11:14:46Z</time>
      </trkpt>
      <trkpt lat="45.07442" lon="5.56484">
        <ele>1018.5</ele>
        <time>2021-08-31T11:14:47Z</time>
      </trkpt>
      <trkpt lat="45.0744" lon="5.56483">
        <ele>1018.6</ele>
        <time>2021-08-31T11:14:49Z</time>
      </trkpt>
      <trkpt lat="45.07438" lon="5.5648">
        <ele>1018.7</ele>
        <time>2021-08-31T11:14:50Z</time>
      </trkpt>
      <trkpt lat="45.07436" lon="5.56477">
        <ele>1018.9</ele>
        <time>2021-08-31T11:14:52Z</time>
      </trkpt>
      <trkpt lat="45.07435" lon="5.56476">
        <ele>1018.9</ele>
        <time>2021-08-31T11:14:53Z</time>
      </trkpt>
      <trkpt lat="45.07433" lon="5.56474">
        <ele>1019</ele>
        <time>2021-08-31T11:14:54Z</time>
      </trkpt>
      <trkpt lat="45.07431" lon="5.56471">
        <ele>1019.1</ele>
        <time>2021-08-31T11:14:56Z</time>
      </trkpt>
      <trkpt lat="45.07429" lon="5.56467">
        <ele>1019.3</ele>
        <time>2021-08-31T11:14:57Z</time>
      </trkpt>
      <trkpt lat="45.07427" lon="5.56464">
        <ele>1019.4</ele>
        <time>2021-08-31T11:14:58Z</time>
      </trkpt>
      <trkpt lat="45.07425" lon="5.56461">
        <ele>1019.5</ele>
        <time>2021-08-31T11:14:59Z</time>
      </trkpt>
      <trkpt lat="45.07422" lon="5.56456">
        <ele>1019.7</ele>
        <time>2021-08-31T11:15:01Z</time>
      </trkpt>
      <trkpt lat="45.0742" lon="5.56452">
        <ele>1019.8</ele>
        <time>2021-08-31T11:15:02Z</time>
      </trkpt>
      <trkpt lat="45.07419" lon="5.56451">
        <ele>1019.9</ele>
        <time>2021-08-31T11:15:03Z</time>
      </trkpt>
      <trkpt lat="45.07417" lon="5.56448">
        <ele>1020</ele>
        <time>2021-08-31T11:15:05Z</time>
      </trkpt>
      <trkpt lat="45.07416" lon="5.56445">
        <ele>1020.1</ele>
        <time>2021-08-31T11:15:06Z</time>
      </trkpt>
      <trkpt lat="45.07412" lon="5.56442">
        <ele>1020.3</ele>
        <time>2021-08-31T11:15:08Z</time>
      </trkpt>
      <trkpt lat="45.07411" lon="5.56441">
        <ele>1020.3</ele>
        <time>2021-08-31T11:15:09Z</time>
      </trkpt>
      <trkpt lat="45.0741" lon="5.56439">
        <ele>1020.4</ele>
        <time>2021-08-31T11:15:11Z</time>
      </trkpt>
      <trkpt lat="45.07408" lon="5.56438">
        <ele>1020.5</ele>
        <time>2021-08-31T11:15:12Z</time>
      </trkpt>
      <trkpt lat="45.07407" lon="5.56437">
        <ele>1020.6</ele>
        <time>2021-08-31T11:15:13Z</time>
      </trkpt>
      <trkpt lat="45.07405" lon="5.56435">
        <ele>1020.7</ele>
        <time>2021-08-31T11:15:14Z</time>
      </trkpt>
      <trkpt lat="45.07403" lon="5.56434">
        <ele>1020.8</ele>
        <time>2021-08-31T11:15:16Z</time>
      </trkpt>
      <trkpt lat="45.07402" lon="5.56434">
        <ele>1020.9</ele>
        <time>2021-08-31T11:15:17Z</time>
      </trkpt>
      <trkpt lat="45.074" lon="5.56434">
        <ele>1020.9</ele>
        <time>2021-08-31T11:15:18Z</time>
      </trkpt>
      <trkpt lat="45.07399" lon="5.56434">
        <ele>1021</ele>
        <time>2021-08-31T11:15:19Z</time>
      </trkpt>
      <trkpt lat="45.07396" lon="5.56433">
        <ele>1021.1</ele>
        <time>2021-08-31T11:15:21Z</time>
      </trkpt>
      <trkpt lat="45.07394" lon="5.56432">
        <ele>1021.2</ele>
        <time>2021-08-31T11:15:22Z</time>
      </trkpt>
      <trkpt lat="45.07391" lon="5.56431">
        <ele>1021.3</ele>
        <time>2021-08-31T11:15:24Z</time>
      </trkpt>
      <trkpt lat="45.07388" lon="5.56431">
        <ele>1021.5</ele>
        <time>2021-08-31T11:15:25Z</time>
      </trkpt>
      <trkpt lat="45.07386" lon="5.56429">
        <ele>1021.6</ele>
        <time>2021-08-31T11:15:26Z</time>
      </trkpt>
      <trkpt lat="45.07385" lon="5.5643">
        <ele>1021.6</ele>
        <time>2021-08-31T11:15:28Z</time>
      </trkpt>
      <trkpt lat="45.07384" lon="5.5643">
        <ele>1021.6</ele>
        <time>2021-08-31T11:15:29Z</time>
      </trkpt>
      <trkpt lat="45.07384" lon="5.56431">
        <ele>1021.6</ele>
        <time>2021-08-31T11:15:30Z</time>
      </trkpt>
      <trkpt lat="45.07384" lon="5.56431">
        <ele>1021.7</ele>
        <time>2021-08-31T11:15:31Z</time>
      </trkpt>
      <trkpt lat="45.07383" lon="5.56431">
        <ele>1021.7</ele>
        <time>2021-08-31T11:15:32Z</time>
      </trkpt>
      <trkpt lat="45.07383" lon="5.56432">
        <ele>1021.7</ele>
        <time>2021-08-31T11:15:33Z</time>
      </trkpt>
      <trkpt lat="45.07382" lon="5.56432">
        <ele>1021.7</ele>
        <time>2021-08-31T11:15:34Z</time>
      </trkpt>
      <trkpt lat="45.07381" lon="5.56432">
        <ele>1021.8</ele>
        <time>2021-08-31T11:15:36Z</time>
      </trkpt>
      <trkpt lat="45.07367" lon="5.56424">
        <ele>1022.3</ele>
        <time>2021-08-31T11:15:43Z</time>
      </trkpt>
      <trkpt lat="45.07362" lon="5.56422">
        <ele>1022.5</ele>
        <time>2021-08-31T11:15:45Z</time>
      </trkpt>
      <trkpt lat="45.07359" lon="5.5642">
        <ele>1022.6</ele>
        <time>2021-08-31T11:15:46Z</time>
      </trkpt>
      <trkpt lat="45.07355" lon="5.56419">
        <ele>1022.8</ele>
        <time>2021-08-31T11:15:48Z</time>
      </trkpt>
      <trkpt lat="45.07351" lon="5.56416">
        <ele>1023</ele>
        <time>2021-08-31T11:15:49Z</time>
      </trkpt>
      <trkpt lat="45.07348" lon="5.56415">
        <ele>1023.1</ele>
        <time>2021-08-31T11:15:50Z</time>
      </trkpt>
      <trkpt lat="45.07344" lon="5.56413">
        <ele>1023.3</ele>
        <time>2021-08-31T11:15:51Z</time>
      </trkpt>
      <trkpt lat="45.07343" lon="5.56412">
        <ele>1023.4</ele>
        <time>2021-08-31T11:15:52Z</time>
      </trkpt>
      <trkpt lat="45.07337" lon="5.5641">
        <ele>1023.7</ele>
        <time>2021-08-31T11:15:54Z</time>
      </trkpt>
      <trkpt lat="45.07334" lon="5.56409">
        <ele>1023.9</ele>
        <time>2021-08-31T11:15:55Z</time>
      </trkpt>
      <trkpt lat="45.07332" lon="5.5641">
        <ele>1024</ele>
        <time>2021-08-31T11:15:56Z</time>
      </trkpt>
      <trkpt lat="45.07328" lon="5.56411">
        <ele>1024.2</ele>
        <time>2021-08-31T11:15:58Z</time>
      </trkpt>
      <trkpt lat="45.07325" lon="5.56412">
        <ele>1024.3</ele>
        <time>2021-08-31T11:15:59Z</time>
      </trkpt>
      <trkpt lat="45.07325" lon="5.56412">
        <ele>1024.3</ele>
        <time>2021-08-31T11:16:00Z</time>
      </trkpt>
      <trkpt lat="45.07325" lon="5.56414">
        <ele>1024.4</ele>
        <time>2021-08-31T11:16:02Z</time>
      </trkpt>
      <trkpt lat="45.07325" lon="5.56415">
        <ele>1024.4</ele>
        <time>2021-08-31T11:16:03Z</time>
      </trkpt>
      <trkpt lat="45.07326" lon="5.56417">
        <ele>1024.5</ele>
        <time>2021-08-31T11:16:05Z</time>
      </trkpt>
      <trkpt lat="45.07327" lon="5.56419">
        <ele>1024.7</ele>
        <time>2021-08-31T11:16:06Z</time>
      </trkpt>
      <trkpt lat="45.07328" lon="5.56422">
        <ele>1024.8</ele>
        <time>2021-08-31T11:16:08Z</time>
      </trkpt>
      <trkpt lat="45.0733" lon="5.56428">
        <ele>1025.4</ele>
        <time>2021-08-31T11:16:09Z</time>
      </trkpt>
      <trkpt lat="45.07333" lon="5.56433">
        <ele>1025.8</ele>
        <time>2021-08-31T11:16:10Z</time>
      </trkpt>
      <trkpt lat="45.07337" lon="5.5644">
        <ele>1026.6</ele>
        <time>2021-08-31T11:16:12Z</time>
      </trkpt>
      <trkpt lat="45.0734" lon="5.56446">
        <ele>1027.1</ele>
        <time>2021-08-31T11:16:13Z</time>
      </trkpt>
      <trkpt lat="45.07342" lon="5.56449">
        <ele>1027.5</ele>
        <time>2021-08-31T11:16:14Z</time>
      </trkpt>
      <trkpt lat="45.07344" lon="5.56454">
        <ele>1028.1</ele>
        <time>2021-08-31T11:16:16Z</time>
      </trkpt>
      <trkpt lat="45.07345" lon="5.56456">
        <ele>1028.4</ele>
        <time>2021-08-31T11:16:17Z</time>
      </trkpt>
      <trkpt lat="45.07346" lon="5.56458">
        <ele>1028.6</ele>
        <time>2021-08-31T11:16:18Z</time>
      </trkpt>
      <trkpt lat="45.07348" lon="5.56461">
        <ele>1029.1</ele>
        <time>2021-08-31T11:16:20Z</time>
      </trkpt>
      <trkpt lat="45.07349" lon="5.56462">
        <ele>1029.2</ele>
        <time>2021-08-31T11:16:21Z</time>
      </trkpt>
      <trkpt lat="45.0735" lon="5.56463">
        <ele>1029.4</ele>
        <time>2021-08-31T11:16:22Z</time>
      </trkpt>
      <trkpt lat="45.07351" lon="5.56466">
        <ele>1029.8</ele>
        <time>2021-08-31T11:16:24Z</time>
      </trkpt>
      <trkpt lat="45.07353" lon="5.5647">
        <ele>1030.2</ele>
        <time>2021-08-31T11:16:26Z</time>
      </trkpt>
      <trkpt lat="45.07354" lon="5.56471">
        <ele>1030.3</ele>
        <time>2021-08-31T11:16:27Z</time>
      </trkpt>
      <trkpt lat="45.07356" lon="5.56474">
        <ele>1030.8</ele>
        <time>2021-08-31T11:16:29Z</time>
      </trkpt>
      <trkpt lat="45.07357" lon="5.56475">
        <ele>1030.9</ele>
        <time>2021-08-31T11:16:30Z</time>
      </trkpt>
      <trkpt lat="45.07358" lon="5.56476">
        <ele>1031.1</ele>
        <time>2021-08-31T11:16:31Z</time>
      </trkpt>
      <trkpt lat="45.0736" lon="5.56479">
        <ele>1031.5</ele>
        <time>2021-08-31T11:16:33Z</time>
      </trkpt>
      <trkpt lat="45.07363" lon="5.5648">
        <ele>1031.9</ele>
        <time>2021-08-31T11:16:34Z</time>
      </trkpt>
      <trkpt lat="45.07364" lon="5.56481">
        <ele>1032</ele>
        <time>2021-08-31T11:16:35Z</time>
      </trkpt>
      <trkpt lat="45.07366" lon="5.56484">
        <ele>1032.5</ele>
        <time>2021-08-31T11:16:37Z</time>
      </trkpt>
      <trkpt lat="45.07367" lon="5.56485">
        <ele>1032.7</ele>
        <time>2021-08-31T11:16:38Z</time>
      </trkpt>
      <trkpt lat="45.07368" lon="5.56488">
        <ele>1033</ele>
        <time>2021-08-31T11:16:39Z</time>
      </trkpt>
      <trkpt lat="45.07371" lon="5.5649">
        <ele>1033.4</ele>
        <time>2021-08-31T11:16:41Z</time>
      </trkpt>
      <trkpt lat="45.07372" lon="5.56495">
        <ele>1033.9</ele>
        <time>2021-08-31T11:16:43Z</time>
      </trkpt>
      <trkpt lat="45.07372" lon="5.56496">
        <ele>1034</ele>
        <time>2021-08-31T11:16:44Z</time>
      </trkpt>
      <trkpt lat="45.07373" lon="5.56497">
        <ele>1034.2</ele>
        <time>2021-08-31T11:16:46Z</time>
      </trkpt>
      <trkpt lat="45.07374" lon="5.56496">
        <ele>1034.3</ele>
        <time>2021-08-31T11:16:47Z</time>
      </trkpt>
      <trkpt lat="45.07374" lon="5.56496">
        <ele>1034.4</ele>
        <time>2021-08-31T11:16:48Z</time>
      </trkpt>
      <trkpt lat="45.07374" lon="5.56495">
        <ele>1034.4</ele>
        <time>2021-08-31T11:16:49Z</time>
      </trkpt>
      <trkpt lat="45.07374" lon="5.56495">
        <ele>1034.4</ele>
        <time>2021-08-31T11:16:50Z</time>
      </trkpt>
      <trkpt lat="45.07374" lon="5.56495">
        <ele>1034.5</ele>
        <time>2021-08-31T11:16:51Z</time>
      </trkpt>
      <trkpt lat="45.07375" lon="5.56495">
        <ele>1034.5</ele>
        <time>2021-08-31T11:16:53Z</time>
      </trkpt>
      <trkpt lat="45.07375" lon="5.56495">
        <ele>1034.5</ele>
        <time>2021-08-31T11:16:54Z</time>
      </trkpt>
      <trkpt lat="45.07375" lon="5.56495">
        <ele>1034.5</ele>
        <time>2021-08-31T11:16:55Z</time>
      </trkpt>
      <trkpt lat="45.07375" lon="5.56495">
        <ele>1034.6</ele>
        <time>2021-08-31T11:16:56Z</time>
      </trkpt>
      <trkpt lat="45.07369" lon="5.56523">
        <ele>1038.1</ele>
        <time>2021-08-31T11:17:25Z</time>
      </trkpt>
      <trkpt lat="45.07367" lon="5.56524">
        <ele>1038.5</ele>
        <time>2021-08-31T11:17:26Z</time>
      </trkpt>
      <trkpt lat="45.07364" lon="5.56525">
        <ele>1038.9</ele>
        <time>2021-08-31T11:17:28Z</time>
      </trkpt>
      <trkpt lat="45.07361" lon="5.56525">
        <ele>1039.4</ele>
        <time>2021-08-31T11:17:29Z</time>
      </trkpt>
      <trkpt lat="45.0736" lon="5.56526">
        <ele>1039.7</ele>
        <time>2021-08-31T11:17:31Z</time>
      </trkpt>
      <trkpt lat="45.07358" lon="5.56526">
        <ele>1039.9</ele>
        <time>2021-08-31T11:17:32Z</time>
      </trkpt>
      <trkpt lat="45.07357" lon="5.56526">
        <ele>1040.1</ele>
        <time>2021-08-31T11:17:33Z</time>
      </trkpt>
      <trkpt lat="45.07355" lon="5.56525">
        <ele>1040.4</ele>
        <time>2021-08-31T11:17:34Z</time>
      </trkpt>
      <trkpt lat="45.07355" lon="5.56525">
        <ele>1040.4</ele>
        <time>2021-08-31T11:17:36Z</time>
      </trkpt>
      <trkpt lat="45.07354" lon="5.56525">
        <ele>1040.5</ele>
        <time>2021-08-31T11:17:37Z</time>
      </trkpt>
      <trkpt lat="45.07354" lon="5.56525">
        <ele>1040.5</ele>
        <time>2021-08-31T11:17:39Z</time>
      </trkpt>
      <trkpt lat="45.07354" lon="5.56525">
        <ele>1040.6</ele>
        <time>2021-08-31T11:17:40Z</time>
      </trkpt>
      <trkpt lat="45.07353" lon="5.56525">
        <ele>1040.6</ele>
        <time>2021-08-31T11:17:42Z</time>
      </trkpt>
      <trkpt lat="45.07353" lon="5.56526">
        <ele>1040.8</ele>
        <time>2021-08-31T11:17:43Z</time>
      </trkpt>
      <trkpt lat="45.07339" lon="5.56543">
        <ele>1043.3</ele>
        <time>2021-08-31T11:17:58Z</time>
      </trkpt>
      <trkpt lat="45.07337" lon="5.56547">
        <ele>1043.6</ele>
        <time>2021-08-31T11:18:00Z</time>
      </trkpt>
      <trkpt lat="45.07335" lon="5.5655">
        <ele>1043.9</ele>
        <time>2021-08-31T11:18:01Z</time>
      </trkpt>
      <trkpt lat="45.07333" lon="5.56551">
        <ele>1044.1</ele>
        <time>2021-08-31T11:18:02Z</time>
      </trkpt>
      <trkpt lat="45.07331" lon="5.56553">
        <ele>1044.3</ele>
        <time>2021-08-31T11:18:04Z</time>
      </trkpt>
      <trkpt lat="45.07329" lon="5.56554">
        <ele>1044.5</ele>
        <time>2021-08-31T11:18:05Z</time>
      </trkpt>
      <trkpt lat="45.07328" lon="5.56554">
        <ele>1044.6</ele>
        <time>2021-08-31T11:18:06Z</time>
      </trkpt>
      <trkpt lat="45.07328" lon="5.56554">
        <ele>1044.6</ele>
        <time>2021-08-31T11:18:08Z</time>
      </trkpt>
      <trkpt lat="45.07326" lon="5.56555">
        <ele>1044.8</ele>
        <time>2021-08-31T11:18:09Z</time>
      </trkpt>
      <trkpt lat="45.07323" lon="5.56557">
        <ele>1045</ele>
        <time>2021-08-31T11:18:11Z</time>
      </trkpt>
      <trkpt lat="45.07322" lon="5.56557">
        <ele>1045.1</ele>
        <time>2021-08-31T11:18:12Z</time>
      </trkpt>
      <trkpt lat="45.07322" lon="5.56557">
        <ele>1045.1</ele>
        <time>2021-08-31T11:18:13Z</time>
      </trkpt>
      <trkpt lat="45.07321" lon="5.56557">
        <ele>1045.2</ele>
        <time>2021-08-31T11:18:14Z</time>
      </trkpt>
      <trkpt lat="45.0732" lon="5.56557">
        <ele>1045.2</ele>
        <time>2021-08-31T11:18:15Z</time>
      </trkpt>
      <trkpt lat="45.07319" lon="5.56558">
        <ele>1045.3</ele>
        <time>2021-08-31T11:18:17Z</time>
      </trkpt>
      <trkpt lat="45.07319" lon="5.56558">
        <ele>1045.4</ele>
        <time>2021-08-31T11:18:18Z</time>
      </trkpt>
      <trkpt lat="45.07317" lon="5.56559">
        <ele>1045.5</ele>
        <time>2021-08-31T11:18:20Z</time>
      </trkpt>
      <trkpt lat="45.07317" lon="5.56559">
        <ele>1045.5</ele>
        <time>2021-08-31T11:18:21Z</time>
      </trkpt>
      <trkpt lat="45.07316" lon="5.56559">
        <ele>1045.6</ele>
        <time>2021-08-31T11:18:22Z</time>
      </trkpt>
      <trkpt lat="45.07302" lon="5.56564">
        <ele>1046.7</ele>
        <time>2021-08-31T11:18:34Z</time>
      </trkpt>
      <trkpt lat="45.07299" lon="5.56564">
        <ele>1047</ele>
        <time>2021-08-31T11:18:36Z</time>
      </trkpt>
      <trkpt lat="45.07295" lon="5.56566">
        <ele>1047.2</ele>
        <time>2021-08-31T11:18:37Z</time>
      </trkpt>
      <trkpt lat="45.07294" lon="5.56567">
        <ele>1047.3</ele>
        <time>2021-08-31T11:18:38Z</time>
      </trkpt>
      <trkpt lat="45.07293" lon="5.56567">
        <ele>1047.5</ele>
        <time>2021-08-31T11:18:39Z</time>
      </trkpt>
      <trkpt lat="45.07291" lon="5.56568">
        <ele>1047.6</ele>
        <time>2021-08-31T11:18:41Z</time>
      </trkpt>
      <trkpt lat="45.0729" lon="5.56569">
        <ele>1047.7</ele>
        <time>2021-08-31T11:18:42Z</time>
      </trkpt>
      <trkpt lat="45.0729" lon="5.56569">
        <ele>1047.7</ele>
        <time>2021-08-31T11:18:45Z</time>
      </trkpt>
      <trkpt lat="45.07289" lon="5.56569">
        <ele>1047.8</ele>
        <time>2021-08-31T11:18:46Z</time>
      </trkpt>
      <trkpt lat="45.07289" lon="5.56569">
        <ele>1047.8</ele>
        <time>2021-08-31T11:18:47Z</time>
      </trkpt>
      <trkpt lat="45.07288" lon="5.56569">
        <ele>1047.8</ele>
        <time>2021-08-31T11:18:48Z</time>
      </trkpt>
      <trkpt lat="45.07286" lon="5.56569">
        <ele>1048</ele>
        <time>2021-08-31T11:18:50Z</time>
      </trkpt>
      <trkpt lat="45.07284" lon="5.56569">
        <ele>1048.1</ele>
        <time>2021-08-31T11:18:51Z</time>
      </trkpt>
      <trkpt lat="45.07273" lon="5.56572">
        <ele>1048.8</ele>
        <time>2021-08-31T11:18:59Z</time>
      </trkpt>
      <trkpt lat="45.0727" lon="5.56573">
        <ele>1049</ele>
        <time>2021-08-31T11:19:00Z</time>
      </trkpt>
      <trkpt lat="45.07267" lon="5.56574">
        <ele>1049.2</ele>
        <time>2021-08-31T11:19:01Z</time>
      </trkpt>
      <trkpt lat="45.07265" lon="5.56574">
        <ele>1049.3</ele>
        <time>2021-08-31T11:19:02Z</time>
      </trkpt>
      <trkpt lat="45.07262" lon="5.56576">
        <ele>1049.5</ele>
        <time>2021-08-31T11:19:03Z</time>
      </trkpt>
      <trkpt lat="45.07261" lon="5.56576">
        <ele>1049.5</ele>
        <time>2021-08-31T11:19:04Z</time>
      </trkpt>
      <trkpt lat="45.07257" lon="5.56577">
        <ele>1049.8</ele>
        <time>2021-08-31T11:19:06Z</time>
      </trkpt>
      <trkpt lat="45.07255" lon="5.56578">
        <ele>1049.9</ele>
        <time>2021-08-31T11:19:07Z</time>
      </trkpt>
      <trkpt lat="45.07254" lon="5.56578">
        <ele>1049.9</ele>
        <time>2021-08-31T11:19:08Z</time>
      </trkpt>
      <trkpt lat="45.07252" lon="5.56579">
        <ele>1050.1</ele>
        <time>2021-08-31T11:19:09Z</time>
      </trkpt>
      <trkpt lat="45.0725" lon="5.5658">
        <ele>1050.2</ele>
        <time>2021-08-31T11:19:11Z</time>
      </trkpt>
      <trkpt lat="45.07248" lon="5.56581">
        <ele>1050.3</ele>
        <time>2021-08-31T11:19:12Z</time>
      </trkpt>
      <trkpt lat="45.07247" lon="5.56582">
        <ele>1050.4</ele>
        <time>2021-08-31T11:19:13Z</time>
      </trkpt>
      <trkpt lat="45.07245" lon="5.56585">
        <ele>1050.6</ele>
        <time>2021-08-31T11:19:15Z</time>
      </trkpt>
      <trkpt lat="45.07244" lon="5.56586">
        <ele>1050.6</ele>
        <time>2021-08-31T11:19:16Z</time>
      </trkpt>
      <trkpt lat="45.07243" lon="5.56587">
        <ele>1050.7</ele>
        <time>2021-08-31T11:19:17Z</time>
      </trkpt>
      <trkpt lat="45.07241" lon="5.56589">
        <ele>1050.9</ele>
        <time>2021-08-31T11:19:19Z</time>
      </trkpt>
      <trkpt lat="45.07239" lon="5.5659">
        <ele>1051</ele>
        <time>2021-08-31T11:19:20Z</time>
      </trkpt>
      <trkpt lat="45.07238" lon="5.5659">
        <ele>1051.1</ele>
        <time>2021-08-31T11:19:21Z</time>
      </trkpt>
      <trkpt lat="45.07235" lon="5.56591">
        <ele>1051.2</ele>
        <time>2021-08-31T11:19:23Z</time>
      </trkpt>
      <trkpt lat="45.07232" lon="5.56591">
        <ele>1051.4</ele>
        <time>2021-08-31T11:19:25Z</time>
      </trkpt>
      <trkpt lat="45.07231" lon="5.56591">
        <ele>1051.5</ele>
        <time>2021-08-31T11:19:26Z</time>
      </trkpt>
      <trkpt lat="45.07229" lon="5.56592">
        <ele>1051.6</ele>
        <time>2021-08-31T11:19:28Z</time>
      </trkpt>
      <trkpt lat="45.07227" lon="5.56593">
        <ele>1051.7</ele>
        <time>2021-08-31T11:19:29Z</time>
      </trkpt>
      <trkpt lat="45.07226" lon="5.56593">
        <ele>1051.8</ele>
        <time>2021-08-31T11:19:30Z</time>
      </trkpt>
      <trkpt lat="45.07222" lon="5.56594">
        <ele>1052.1</ele>
        <time>2021-08-31T11:19:32Z</time>
      </trkpt>
      <trkpt lat="45.07222" lon="5.56594">
        <ele>1052.1</ele>
        <time>2021-08-31T11:19:33Z</time>
      </trkpt>
      <trkpt lat="45.07219" lon="5.56595">
        <ele>1052.3</ele>
        <time>2021-08-31T11:19:34Z</time>
      </trkpt>
      <trkpt lat="45.07218" lon="5.56595">
        <ele>1052.3</ele>
        <time>2021-08-31T11:19:35Z</time>
      </trkpt>
      <trkpt lat="45.07218" lon="5.56596">
        <ele>1052.4</ele>
        <time>2021-08-31T11:19:36Z</time>
      </trkpt>
      <trkpt lat="45.07216" lon="5.56596">
        <ele>1052.5</ele>
        <time>2021-08-31T11:19:37Z</time>
      </trkpt>
      <trkpt lat="45.07215" lon="5.56596">
        <ele>1052.6</ele>
        <time>2021-08-31T11:19:38Z</time>
      </trkpt>
      <trkpt lat="45.07213" lon="5.56596">
        <ele>1052.7</ele>
        <time>2021-08-31T11:19:39Z</time>
      </trkpt>
      <trkpt lat="45.07211" lon="5.56597">
        <ele>1052.8</ele>
        <time>2021-08-31T11:19:41Z</time>
      </trkpt>
      <trkpt lat="45.0721" lon="5.56597">
        <ele>1053</ele>
        <time>2021-08-31T11:19:42Z</time>
      </trkpt>
      <trkpt lat="45.07208" lon="5.56598">
        <ele>1053.1</ele>
        <time>2021-08-31T11:19:43Z</time>
      </trkpt>
      <trkpt lat="45.07207" lon="5.56598">
        <ele>1053.2</ele>
        <time>2021-08-31T11:19:44Z</time>
      </trkpt>
      <trkpt lat="45.07205" lon="5.56599">
        <ele>1053.3</ele>
        <time>2021-08-31T11:19:45Z</time>
      </trkpt>
      <trkpt lat="45.07202" lon="5.56599">
        <ele>1053.6</ele>
        <time>2021-08-31T11:19:47Z</time>
      </trkpt>
      <trkpt lat="45.07201" lon="5.56599">
        <ele>1053.6</ele>
        <time>2021-08-31T11:19:48Z</time>
      </trkpt>
      <trkpt lat="45.07199" lon="5.56599">
        <ele>1053.8</ele>
        <time>2021-08-31T11:19:49Z</time>
      </trkpt>
      <trkpt lat="45.07198" lon="5.56599">
        <ele>1053.9</ele>
        <time>2021-08-31T11:19:51Z</time>
      </trkpt>
      <trkpt lat="45.07196" lon="5.56598">
        <ele>1054.1</ele>
        <time>2021-08-31T11:19:52Z</time>
      </trkpt>
      <trkpt lat="45.07195" lon="5.56598">
        <ele>1054.2</ele>
        <time>2021-08-31T11:19:53Z</time>
      </trkpt>
      <trkpt lat="45.07193" lon="5.56598">
        <ele>1054.4</ele>
        <time>2021-08-31T11:19:54Z</time>
      </trkpt>
      <trkpt lat="45.07192" lon="5.56598">
        <ele>1054.5</ele>
        <time>2021-08-31T11:19:55Z</time>
      </trkpt>
      <trkpt lat="45.07191" lon="5.56597">
        <ele>1054.6</ele>
        <time>2021-08-31T11:19:56Z</time>
      </trkpt>
      <trkpt lat="45.07189" lon="5.56597">
        <ele>1054.7</ele>
        <time>2021-08-31T11:19:57Z</time>
      </trkpt>
      <trkpt lat="45.07187" lon="5.56596">
        <ele>1054.9</ele>
        <time>2021-08-31T11:19:59Z</time>
      </trkpt>
      <trkpt lat="45.07185" lon="5.56595">
        <ele>1055.1</ele>
        <time>2021-08-31T11:20:00Z</time>
      </trkpt>
      <trkpt lat="45.07184" lon="5.56595">
        <ele>1055.2</ele>
        <time>2021-08-31T11:20:02Z</time>
      </trkpt>
      <trkpt lat="45.07184" lon="5.56594">
        <ele>1055.2</ele>
        <time>2021-08-31T11:20:03Z</time>
      </trkpt>
      <trkpt lat="45.07184" lon="5.56594">
        <ele>1055.2</ele>
        <time>2021-08-31T11:20:04Z</time>
      </trkpt>
      <trkpt lat="45.07183" lon="5.56594">
        <ele>1055.3</ele>
        <time>2021-08-31T11:20:05Z</time>
      </trkpt>
      <trkpt lat="45.07182" lon="5.56594">
        <ele>1055.4</ele>
        <time>2021-08-31T11:20:07Z</time>
      </trkpt>
      <trkpt lat="45.07181" lon="5.56593">
        <ele>1055.5</ele>
        <time>2021-08-31T11:20:08Z</time>
      </trkpt>
      <trkpt lat="45.07177" lon="5.56594">
        <ele>1055.8</ele>
        <time>2021-08-31T11:20:09Z</time>
      </trkpt>
      <trkpt lat="45.07174" lon="5.56594">
        <ele>1056</ele>
        <time>2021-08-31T11:20:10Z</time>
      </trkpt>
      <trkpt lat="45.07171" lon="5.56595">
        <ele>1056.3</ele>
        <time>2021-08-31T11:20:18Z</time>
      </trkpt>
      <trkpt lat="45.07168" lon="5.56595">
        <ele>1056.5</ele>
        <time>2021-08-31T11:20:19Z</time>
      </trkpt>
      <trkpt lat="45.07165" lon="5.56596">
        <ele>1056.7</ele>
        <time>2021-08-31T11:20:20Z</time>
      </trkpt>
      <trkpt lat="45.07161" lon="5.56597">
        <ele>1057</ele>
        <time>2021-08-31T11:20:21Z</time>
      </trkpt>
      <trkpt lat="45.0716" lon="5.56597">
        <ele>1057.1</ele>
        <time>2021-08-31T11:20:22Z</time>
      </trkpt>
      <trkpt lat="45.07156" lon="5.56598">
        <ele>1057.4</ele>
        <time>2021-08-31T11:20:24Z</time>
      </trkpt>
      <trkpt lat="45.07152" lon="5.56598">
        <ele>1057.7</ele>
        <time>2021-08-31T11:20:26Z</time>
      </trkpt>
      <trkpt lat="45.07151" lon="5.56599">
        <ele>1057.8</ele>
        <time>2021-08-31T11:20:27Z</time>
      </trkpt>
      <trkpt lat="45.0715" lon="5.56599">
        <ele>1057.9</ele>
        <time>2021-08-31T11:20:28Z</time>
      </trkpt>
      <trkpt lat="45.07147" lon="5.56599">
        <ele>1058.1</ele>
        <time>2021-08-31T11:20:30Z</time>
      </trkpt>
      <trkpt lat="45.07145" lon="5.56599">
        <ele>1058.3</ele>
        <time>2021-08-31T11:20:31Z</time>
      </trkpt>
      <trkpt lat="45.07144" lon="5.566">
        <ele>1058.3</ele>
        <time>2021-08-31T11:20:33Z</time>
      </trkpt>
      <trkpt lat="45.07143" lon="5.56601">
        <ele>1058.4</ele>
        <time>2021-08-31T11:20:34Z</time>
      </trkpt>
      <trkpt lat="45.07142" lon="5.56601">
        <ele>1058.5</ele>
        <time>2021-08-31T11:20:35Z</time>
      </trkpt>
      <trkpt lat="45.07141" lon="5.56602">
        <ele>1058.6</ele>
        <time>2021-08-31T11:20:36Z</time>
      </trkpt>
      <trkpt lat="45.07139" lon="5.56602">
        <ele>1058.7</ele>
        <time>2021-08-31T11:20:37Z</time>
      </trkpt>
      <trkpt lat="45.07137" lon="5.56603">
        <ele>1058.8</ele>
        <time>2021-08-31T11:20:38Z</time>
      </trkpt>
      <trkpt lat="45.07136" lon="5.56603">
        <ele>1058.9</ele>
        <time>2021-08-31T11:20:39Z</time>
      </trkpt>
      <trkpt lat="45.07135" lon="5.56603">
        <ele>1059</ele>
        <time>2021-08-31T11:20:40Z</time>
      </trkpt>
      <trkpt lat="45.07132" lon="5.56605">
        <ele>1059.3</ele>
        <time>2021-08-31T11:20:42Z</time>
      </trkpt>
      <trkpt lat="45.07131" lon="5.56607">
        <ele>1059.4</ele>
        <time>2021-08-31T11:20:43Z</time>
      </trkpt>
      <trkpt lat="45.07129" lon="5.56608">
        <ele>1059.6</ele>
        <time>2021-08-31T11:20:45Z</time>
      </trkpt>
      <trkpt lat="45.07128" lon="5.56609">
        <ele>1059.7</ele>
        <time>2021-08-31T11:20:46Z</time>
      </trkpt>
      <trkpt lat="45.07127" lon="5.56609">
        <ele>1059.7</ele>
        <time>2021-08-31T11:20:47Z</time>
      </trkpt>
      <trkpt lat="45.07126" lon="5.5661">
        <ele>1059.8</ele>
        <time>2021-08-31T11:20:48Z</time>
      </trkpt>
      <trkpt lat="45.07125" lon="5.56611">
        <ele>1059.9</ele>
        <time>2021-08-31T11:20:49Z</time>
      </trkpt>
      <trkpt lat="45.07123" lon="5.56612">
        <ele>1060</ele>
        <time>2021-08-31T11:20:50Z</time>
      </trkpt>
      <trkpt lat="45.07121" lon="5.56612">
        <ele>1060.3</ele>
        <time>2021-08-31T11:20:51Z</time>
      </trkpt>
      <trkpt lat="45.07119" lon="5.56612">
        <ele>1060.4</ele>
        <time>2021-08-31T11:20:53Z</time>
      </trkpt>
      <trkpt lat="45.07118" lon="5.56612">
        <ele>1060.5</ele>
        <time>2021-08-31T11:20:54Z</time>
      </trkpt>
      <trkpt lat="45.07116" lon="5.56612">
        <ele>1060.6</ele>
        <time>2021-08-31T11:20:55Z</time>
      </trkpt>
      <trkpt lat="45.07113" lon="5.56613">
        <ele>1060.8</ele>
        <time>2021-08-31T11:20:57Z</time>
      </trkpt>
      <trkpt lat="45.07112" lon="5.56613">
        <ele>1060.9</ele>
        <time>2021-08-31T11:20:58Z</time>
      </trkpt>
      <trkpt lat="45.07109" lon="5.56612">
        <ele>1061.2</ele>
        <time>2021-08-31T11:21:00Z</time>
      </trkpt>
      <trkpt lat="45.07108" lon="5.56612">
        <ele>1061.2</ele>
        <time>2021-08-31T11:21:01Z</time>
      </trkpt>
      <trkpt lat="45.07107" lon="5.56612">
        <ele>1061.3</ele>
        <time>2021-08-31T11:21:02Z</time>
      </trkpt>
      <trkpt lat="45.07105" lon="5.5661">
        <ele>1061.5</ele>
        <time>2021-08-31T11:21:03Z</time>
      </trkpt>
      <trkpt lat="45.07104" lon="5.56609">
        <ele>1061.6</ele>
        <time>2021-08-31T11:21:04Z</time>
      </trkpt>
      <trkpt lat="45.07103" lon="5.56609">
        <ele>1061.7</ele>
        <time>2021-08-31T11:21:05Z</time>
      </trkpt>
      <trkpt lat="45.07101" lon="5.56609">
        <ele>1061.8</ele>
        <time>2021-08-31T11:21:06Z</time>
      </trkpt>
      <trkpt lat="45.071" lon="5.5661">
        <ele>1061.9</ele>
        <time>2021-08-31T11:21:07Z</time>
      </trkpt>
      <trkpt lat="45.07098" lon="5.56611">
        <ele>1062</ele>
        <time>2021-08-31T11:21:09Z</time>
      </trkpt>
      <trkpt lat="45.07097" lon="5.56612">
        <ele>1062.1</ele>
        <time>2021-08-31T11:21:10Z</time>
      </trkpt>
      <trkpt lat="45.07095" lon="5.56612">
        <ele>1062.3</ele>
        <time>2021-08-31T11:21:11Z</time>
      </trkpt>
      <trkpt lat="45.07094" lon="5.56612">
        <ele>1062.4</ele>
        <time>2021-08-31T11:21:12Z</time>
      </trkpt>
      <trkpt lat="45.07093" lon="5.56612">
        <ele>1062.5</ele>
        <time>2021-08-31T11:21:13Z</time>
      </trkpt>
      <trkpt lat="45.07091" lon="5.56612">
        <ele>1062.6</ele>
        <time>2021-08-31T11:21:14Z</time>
      </trkpt>
      <trkpt lat="45.0709" lon="5.56612">
        <ele>1062.7</ele>
        <time>2021-08-31T11:21:15Z</time>
      </trkpt>
      <trkpt lat="45.07087" lon="5.56612">
        <ele>1062.9</ele>
        <time>2021-08-31T11:21:17Z</time>
      </trkpt>
      <trkpt lat="45.07086" lon="5.56613">
        <ele>1063</ele>
        <time>2021-08-31T11:21:18Z</time>
      </trkpt>
      <trkpt lat="45.07085" lon="5.56615">
        <ele>1063</ele>
        <time>2021-08-31T11:21:19Z</time>
      </trkpt>
      <trkpt lat="45.07083" lon="5.56617">
        <ele>1063.2</ele>
        <time>2021-08-31T11:21:21Z</time>
      </trkpt>
      <trkpt lat="45.0708" lon="5.5662">
        <ele>1063.4</ele>
        <time>2021-08-31T11:21:22Z</time>
      </trkpt>
      <trkpt lat="45.07079" lon="5.56622">
        <ele>1063.5</ele>
        <time>2021-08-31T11:21:23Z</time>
      </trkpt>
      <trkpt lat="45.07078" lon="5.56622">
        <ele>1063.6</ele>
        <time>2021-08-31T11:21:24Z</time>
      </trkpt>
      <trkpt lat="45.07075" lon="5.56622">
        <ele>1063.8</ele>
        <time>2021-08-31T11:21:25Z</time>
      </trkpt>
      <trkpt lat="45.07073" lon="5.56622">
        <ele>1063.8</ele>
        <time>2021-08-31T11:21:27Z</time>
      </trkpt>
      <trkpt lat="45.07072" lon="5.56622">
        <ele>1063.9</ele>
        <time>2021-08-31T11:21:29Z</time>
      </trkpt>
      <trkpt lat="45.0707" lon="5.56623">
        <ele>1064</ele>
        <time>2021-08-31T11:21:30Z</time>
      </trkpt>
      <trkpt lat="45.07069" lon="5.56623">
        <ele>1064.1</ele>
        <time>2021-08-31T11:21:32Z</time>
      </trkpt>
      <trkpt lat="45.07067" lon="5.56623">
        <ele>1064.2</ele>
        <time>2021-08-31T11:21:33Z</time>
      </trkpt>
      <trkpt lat="45.07064" lon="5.56623">
        <ele>1064.4</ele>
        <time>2021-08-31T11:21:34Z</time>
      </trkpt>
      <trkpt lat="45.07063" lon="5.56623">
        <ele>1064.4</ele>
        <time>2021-08-31T11:21:35Z</time>
      </trkpt>
      <trkpt lat="45.0706" lon="5.56623">
        <ele>1064.6</ele>
        <time>2021-08-31T11:21:37Z</time>
      </trkpt>
      <trkpt lat="45.07059" lon="5.56623">
        <ele>1064.7</ele>
        <time>2021-08-31T11:21:38Z</time>
      </trkpt>
      <trkpt lat="45.07055" lon="5.56622">
        <ele>1064.9</ele>
        <time>2021-08-31T11:21:39Z</time>
      </trkpt>
      <trkpt lat="45.07054" lon="5.56622">
        <ele>1065</ele>
        <time>2021-08-31T11:21:40Z</time>
      </trkpt>
      <trkpt lat="45.0705" lon="5.56622">
        <ele>1065.2</ele>
        <time>2021-08-31T11:21:42Z</time>
      </trkpt>
      <trkpt lat="45.07048" lon="5.56621">
        <ele>1065.3</ele>
        <time>2021-08-31T11:21:43Z</time>
      </trkpt>
      <trkpt lat="45.07046" lon="5.56621">
        <ele>1065.4</ele>
        <time>2021-08-31T11:21:45Z</time>
      </trkpt>
      <trkpt lat="45.07042" lon="5.5662">
        <ele>1065.7</ele>
        <time>2021-08-31T11:21:46Z</time>
      </trkpt>
      <trkpt lat="45.07041" lon="5.56621">
        <ele>1065.8</ele>
        <time>2021-08-31T11:21:47Z</time>
      </trkpt>
      <trkpt lat="45.07039" lon="5.56622">
        <ele>1065.9</ele>
        <time>2021-08-31T11:21:48Z</time>
      </trkpt>
      <trkpt lat="45.07034" lon="5.56623">
        <ele>1066.2</ele>
        <time>2021-08-31T11:21:50Z</time>
      </trkpt>
      <trkpt lat="45.07033" lon="5.56624">
        <ele>1066.3</ele>
        <time>2021-08-31T11:21:51Z</time>
      </trkpt>
      <trkpt lat="45.07031" lon="5.56624">
        <ele>1066.4</ele>
        <time>2021-08-31T11:21:52Z</time>
      </trkpt>
      <trkpt lat="45.07031" lon="5.56624">
        <ele>1066.4</ele>
        <time>2021-08-31T11:21:54Z</time>
      </trkpt>
      <trkpt lat="45.07031" lon="5.56624">
        <ele>1066.4</ele>
        <time>2021-08-31T11:21:55Z</time>
      </trkpt>
      <trkpt lat="45.0703" lon="5.56625">
        <ele>1066.5</ele>
        <time>2021-08-31T11:21:56Z</time>
      </trkpt>
      <trkpt lat="45.07028" lon="5.56626">
        <ele>1066.6</ele>
        <time>2021-08-31T11:21:57Z</time>
      </trkpt>
      <trkpt lat="45.07025" lon="5.56627">
        <ele>1066.8</ele>
        <time>2021-08-31T11:21:59Z</time>
      </trkpt>
      <trkpt lat="45.07022" lon="5.56627">
        <ele>1067</ele>
        <time>2021-08-31T11:22:01Z</time>
      </trkpt>
      <trkpt lat="45.07021" lon="5.56628">
        <ele>1067.1</ele>
        <time>2021-08-31T11:22:03Z</time>
      </trkpt>
      <trkpt lat="45.07019" lon="5.56629">
        <ele>1067.2</ele>
        <time>2021-08-31T11:22:04Z</time>
      </trkpt>
      <trkpt lat="45.07017" lon="5.56629">
        <ele>1067.3</ele>
        <time>2021-08-31T11:22:05Z</time>
      </trkpt>
      <trkpt lat="45.07016" lon="5.56629">
        <ele>1067.4</ele>
        <time>2021-08-31T11:22:06Z</time>
      </trkpt>
      <trkpt lat="45.07015" lon="5.5663">
        <ele>1067.5</ele>
        <time>2021-08-31T11:22:07Z</time>
      </trkpt>
      <trkpt lat="45.07013" lon="5.5663">
        <ele>1067.6</ele>
        <time>2021-08-31T11:22:08Z</time>
      </trkpt>
      <trkpt lat="45.07011" lon="5.56631">
        <ele>1067.8</ele>
        <time>2021-08-31T11:22:10Z</time>
      </trkpt>
      <trkpt lat="45.07009" lon="5.56631">
        <ele>1067.9</ele>
        <time>2021-08-31T11:22:11Z</time>
      </trkpt>
      <trkpt lat="45.07007" lon="5.56632">
        <ele>1068</ele>
        <time>2021-08-31T11:22:12Z</time>
      </trkpt>
      <trkpt lat="45.07006" lon="5.56632">
        <ele>1068.1</ele>
        <time>2021-08-31T11:22:13Z</time>
      </trkpt>
      <trkpt lat="45.07003" lon="5.56631">
        <ele>1068.3</ele>
        <time>2021-08-31T11:22:15Z</time>
      </trkpt>
      <trkpt lat="45.07001" lon="5.56632">
        <ele>1068.4</ele>
        <time>2021-08-31T11:22:16Z</time>
      </trkpt>
      <trkpt lat="45.07" lon="5.56632">
        <ele>1068.5</ele>
        <time>2021-08-31T11:22:17Z</time>
      </trkpt>
      <trkpt lat="45.06997" lon="5.56633">
        <ele>1068.7</ele>
        <time>2021-08-31T11:22:18Z</time>
      </trkpt>
      <trkpt lat="45.06996" lon="5.56634">
        <ele>1068.8</ele>
        <time>2021-08-31T11:22:19Z</time>
      </trkpt>
      <trkpt lat="45.06993" lon="5.56635">
        <ele>1069</ele>
        <time>2021-08-31T11:22:20Z</time>
      </trkpt>
      <trkpt lat="45.06992" lon="5.56635">
        <ele>1069.1</ele>
        <time>2021-08-31T11:22:21Z</time>
      </trkpt>
      <trkpt lat="45.06989" lon="5.56636">
        <ele>1069.3</ele>
        <time>2021-08-31T11:22:22Z</time>
      </trkpt>
      <trkpt lat="45.06988" lon="5.56636">
        <ele>1069.4</ele>
        <time>2021-08-31T11:22:23Z</time>
      </trkpt>
      <trkpt lat="45.06986" lon="5.56636">
        <ele>1069.5</ele>
        <time>2021-08-31T11:22:24Z</time>
      </trkpt>
      <trkpt lat="45.06983" lon="5.56636">
        <ele>1069.7</ele>
        <time>2021-08-31T11:22:26Z</time>
      </trkpt>
      <trkpt lat="45.0698" lon="5.56634">
        <ele>1069.9</ele>
        <time>2021-08-31T11:22:28Z</time>
      </trkpt>
      <trkpt lat="45.06979" lon="5.56634">
        <ele>1070</ele>
        <time>2021-08-31T11:22:29Z</time>
      </trkpt>
      <trkpt lat="45.06978" lon="5.56633">
        <ele>1070.1</ele>
        <time>2021-08-31T11:22:31Z</time>
      </trkpt>
      <trkpt lat="45.06977" lon="5.56633">
        <ele>1070.1</ele>
        <time>2021-08-31T11:22:32Z</time>
      </trkpt>
      <trkpt lat="45.06976" lon="5.56633">
        <ele>1070.2</ele>
        <time>2021-08-31T11:22:33Z</time>
      </trkpt>
      <trkpt lat="45.06975" lon="5.56633">
        <ele>1070.3</ele>
        <time>2021-08-31T11:22:34Z</time>
      </trkpt>
      <trkpt lat="45.06972" lon="5.56636">
        <ele>1070.5</ele>
        <time>2021-08-31T11:22:36Z</time>
      </trkpt>
      <trkpt lat="45.06971" lon="5.56638">
        <ele>1070.6</ele>
        <time>2021-08-31T11:22:37Z</time>
      </trkpt>
      <trkpt lat="45.06967" lon="5.56641">
        <ele>1070.9</ele>
        <time>2021-08-31T11:22:39Z</time>
      </trkpt>
      <trkpt lat="45.06962" lon="5.56642">
        <ele>1071.2</ele>
        <time>2021-08-31T11:22:41Z</time>
      </trkpt>
      <trkpt lat="45.06958" lon="5.56641">
        <ele>1071.5</ele>
        <time>2021-08-31T11:22:43Z</time>
      </trkpt>
      <trkpt lat="45.06955" lon="5.5664">
        <ele>1071.8</ele>
        <time>2021-08-31T11:22:44Z</time>
      </trkpt>
      <trkpt lat="45.06954" lon="5.5664">
        <ele>1071.8</ele>
        <time>2021-08-31T11:22:45Z</time>
      </trkpt>
      <trkpt lat="45.0695" lon="5.56642">
        <ele>1072.1</ele>
        <time>2021-08-31T11:22:46Z</time>
      </trkpt>
      <trkpt lat="45.06947" lon="5.56644">
        <ele>1072.4</ele>
        <time>2021-08-31T11:22:48Z</time>
      </trkpt>
      <trkpt lat="45.06943" lon="5.56644">
        <ele>1072.7</ele>
        <time>2021-08-31T11:22:50Z</time>
      </trkpt>
      <trkpt lat="45.06942" lon="5.56644">
        <ele>1072.7</ele>
        <time>2021-08-31T11:22:51Z</time>
      </trkpt>
      <trkpt lat="45.06941" lon="5.56644">
        <ele>1072.8</ele>
        <time>2021-08-31T11:22:52Z</time>
      </trkpt>
      <trkpt lat="45.06939" lon="5.56644">
        <ele>1073</ele>
        <time>2021-08-31T11:22:54Z</time>
      </trkpt>
      <trkpt lat="45.06938" lon="5.56644">
        <ele>1073</ele>
        <time>2021-08-31T11:22:55Z</time>
      </trkpt>
      <trkpt lat="45.06937" lon="5.56644">
        <ele>1073.1</ele>
        <time>2021-08-31T11:22:56Z</time>
      </trkpt>
      <trkpt lat="45.06936" lon="5.56645">
        <ele>1073.2</ele>
        <time>2021-08-31T11:22:57Z</time>
      </trkpt>
      <trkpt lat="45.06935" lon="5.56644">
        <ele>1073.3</ele>
        <time>2021-08-31T11:22:59Z</time>
      </trkpt>
      <trkpt lat="45.06934" lon="5.56644">
        <ele>1073.4</ele>
        <time>2021-08-31T11:23:01Z</time>
      </trkpt>
      <trkpt lat="45.06933" lon="5.56644">
        <ele>1073.4</ele>
        <time>2021-08-31T11:23:02Z</time>
      </trkpt>
      <trkpt lat="45.06932" lon="5.56644">
        <ele>1073.5</ele>
        <time>2021-08-31T11:23:04Z</time>
      </trkpt>
      <trkpt lat="45.06929" lon="5.56645">
        <ele>1073.8</ele>
        <time>2021-08-31T11:23:05Z</time>
      </trkpt>
      <trkpt lat="45.06928" lon="5.56646">
        <ele>1073.9</ele>
        <time>2021-08-31T11:23:07Z</time>
      </trkpt>
      <trkpt lat="45.06927" lon="5.56647">
        <ele>1074</ele>
        <time>2021-08-31T11:23:08Z</time>
      </trkpt>
      <trkpt lat="45.06926" lon="5.56647">
        <ele>1074.1</ele>
        <time>2021-08-31T11:23:09Z</time>
      </trkpt>
      <trkpt lat="45.06925" lon="5.56648">
        <ele>1074.1</ele>
        <time>2021-08-31T11:23:11Z</time>
      </trkpt>
      <trkpt lat="45.06924" lon="5.56649">
        <ele>1074.2</ele>
        <time>2021-08-31T11:23:12Z</time>
      </trkpt>
      <trkpt lat="45.06923" lon="5.5665">
        <ele>1074.3</ele>
        <time>2021-08-31T11:23:13Z</time>
      </trkpt>
      <trkpt lat="45.06919" lon="5.56653">
        <ele>1074.7</ele>
        <time>2021-08-31T11:23:15Z</time>
      </trkpt>
      <trkpt lat="45.06919" lon="5.56653">
        <ele>1074.7</ele>
        <time>2021-08-31T11:23:16Z</time>
      </trkpt>
      <trkpt lat="45.06917" lon="5.56654">
        <ele>1074.8</ele>
        <time>2021-08-31T11:23:17Z</time>
      </trkpt>
      <trkpt lat="45.06913" lon="5.56655">
        <ele>1075.2</ele>
        <time>2021-08-31T11:23:19Z</time>
      </trkpt>
      <trkpt lat="45.0691" lon="5.56655">
        <ele>1075.5</ele>
        <time>2021-08-31T11:23:20Z</time>
      </trkpt>
      <trkpt lat="45.06907" lon="5.56655">
        <ele>1075.7</ele>
        <time>2021-08-31T11:23:21Z</time>
      </trkpt>
      <trkpt lat="45.06903" lon="5.56654">
        <ele>1076.1</ele>
        <time>2021-08-31T11:23:23Z</time>
      </trkpt>
      <trkpt lat="45.069" lon="5.56651">
        <ele>1076.5</ele>
        <time>2021-08-31T11:23:24Z</time>
      </trkpt>
      <trkpt lat="45.06899" lon="5.56651">
        <ele>1076.6</ele>
        <time>2021-08-31T11:23:25Z</time>
      </trkpt>
      <trkpt lat="45.06896" lon="5.5665">
        <ele>1076.9</ele>
        <time>2021-08-31T11:23:27Z</time>
      </trkpt>
      <trkpt lat="45.06895" lon="5.56649">
        <ele>1077</ele>
        <time>2021-08-31T11:23:28Z</time>
      </trkpt>
      <trkpt lat="45.06893" lon="5.56648">
        <ele>1077.2</ele>
        <time>2021-08-31T11:23:30Z</time>
      </trkpt>
      <trkpt lat="45.06892" lon="5.56648">
        <ele>1077.3</ele>
        <time>2021-08-31T11:23:31Z</time>
      </trkpt>
      <trkpt lat="45.06893" lon="5.56647">
        <ele>1077.4</ele>
        <time>2021-08-31T11:23:33Z</time>
      </trkpt>
      <trkpt lat="45.06892" lon="5.56647">
        <ele>1077.5</ele>
        <time>2021-08-31T11:23:34Z</time>
      </trkpt>
      <trkpt lat="45.06889" lon="5.56648">
        <ele>1077.9</ele>
        <time>2021-08-31T11:23:36Z</time>
      </trkpt>
      <trkpt lat="45.06888" lon="5.56649">
        <ele>1078</ele>
        <time>2021-08-31T11:23:37Z</time>
      </trkpt>
      <trkpt lat="45.06886" lon="5.56652">
        <ele>1078.3</ele>
        <time>2021-08-31T11:23:39Z</time>
      </trkpt>
      <trkpt lat="45.06886" lon="5.56652">
        <ele>1078.4</ele>
        <time>2021-08-31T11:23:40Z</time>
      </trkpt>
      <trkpt lat="45.06885" lon="5.56654">
        <ele>1078.5</ele>
        <time>2021-08-31T11:23:41Z</time>
      </trkpt>
      <trkpt lat="45.06884" lon="5.56656">
        <ele>1078.7</ele>
        <time>2021-08-31T11:23:43Z</time>
      </trkpt>
      <trkpt lat="45.06882" lon="5.56657">
        <ele>1079</ele>
        <time>2021-08-31T11:23:45Z</time>
      </trkpt>
      <trkpt lat="45.06881" lon="5.56657">
        <ele>1079.1</ele>
        <time>2021-08-31T11:23:46Z</time>
      </trkpt>
      <trkpt lat="45.06879" lon="5.56658">
        <ele>1079.3</ele>
        <time>2021-08-31T11:23:48Z</time>
      </trkpt>
      <trkpt lat="45.06877" lon="5.56658">
        <ele>1079.5</ele>
        <time>2021-08-31T11:23:50Z</time>
      </trkpt>
      <trkpt lat="45.06875" lon="5.56657">
        <ele>1079.8</ele>
        <time>2021-08-31T11:23:51Z</time>
      </trkpt>
      <trkpt lat="45.06872" lon="5.56655">
        <ele>1080</ele>
        <time>2021-08-31T11:23:53Z</time>
      </trkpt>
      <trkpt lat="45.0687" lon="5.56655">
        <ele>1080.2</ele>
        <time>2021-08-31T11:23:54Z</time>
      </trkpt>
      <trkpt lat="45.06868" lon="5.56655">
        <ele>1080.4</ele>
        <time>2021-08-31T11:23:56Z</time>
      </trkpt>
      <trkpt lat="45.06866" lon="5.56658">
        <ele>1080.6</ele>
        <time>2021-08-31T11:23:57Z</time>
      </trkpt>
      <trkpt lat="45.06865" lon="5.56658">
        <ele>1080.7</ele>
        <time>2021-08-31T11:23:58Z</time>
      </trkpt>
      <trkpt lat="45.06862" lon="5.56661">
        <ele>1080.9</ele>
        <time>2021-08-31T11:24:00Z</time>
      </trkpt>
      <trkpt lat="45.0686" lon="5.56664">
        <ele>1081</ele>
        <time>2021-08-31T11:24:01Z</time>
      </trkpt>
      <trkpt lat="45.06857" lon="5.56667">
        <ele>1081</ele>
        <time>2021-08-31T11:24:02Z</time>
      </trkpt>
      <trkpt lat="45.06854" lon="5.56669">
        <ele>1081.1</ele>
        <time>2021-08-31T11:24:03Z</time>
      </trkpt>
      <trkpt lat="45.06853" lon="5.5667">
        <ele>1081.1</ele>
        <time>2021-08-31T11:24:04Z</time>
      </trkpt>
      <trkpt lat="45.06849" lon="5.56675">
        <ele>1081.2</ele>
        <time>2021-08-31T11:24:06Z</time>
      </trkpt>
      <trkpt lat="45.06848" lon="5.56676">
        <ele>1081.2</ele>
        <time>2021-08-31T11:24:07Z</time>
      </trkpt>
      <trkpt lat="45.06847" lon="5.56678">
        <ele>1081.2</ele>
        <time>2021-08-31T11:24:08Z</time>
      </trkpt>
      <trkpt lat="45.06843" lon="5.56681">
        <ele>1081.3</ele>
        <time>2021-08-31T11:24:09Z</time>
      </trkpt>
      <trkpt lat="45.06842" lon="5.56681">
        <ele>1081.3</ele>
        <time>2021-08-31T11:24:10Z</time>
      </trkpt>
      <trkpt lat="45.06838" lon="5.56683">
        <ele>1081.3</ele>
        <time>2021-08-31T11:24:11Z</time>
      </trkpt>
      <trkpt lat="45.06837" lon="5.56684">
        <ele>1081.3</ele>
        <time>2021-08-31T11:24:12Z</time>
      </trkpt>
      <trkpt lat="45.06834" lon="5.56685">
        <ele>1081.4</ele>
        <time>2021-08-31T11:24:13Z</time>
      </trkpt>
      <trkpt lat="45.06831" lon="5.56685">
        <ele>1081.4</ele>
        <time>2021-08-31T11:24:15Z</time>
      </trkpt>
      <trkpt lat="45.06828" lon="5.56686">
        <ele>1081.4</ele>
        <time>2021-08-31T11:24:16Z</time>
      </trkpt>
      <trkpt lat="45.06823" lon="5.56687">
        <ele>1081.4</ele>
        <time>2021-08-31T11:24:17Z</time>
      </trkpt>
      <trkpt lat="45.06818" lon="5.56687">
        <ele>1081.5</ele>
        <time>2021-08-31T11:24:19Z</time>
      </trkpt>
      <trkpt lat="45.06814" lon="5.56687">
        <ele>1081.5</ele>
        <time>2021-08-31T11:24:20Z</time>
      </trkpt>
      <trkpt lat="45.06812" lon="5.56689">
        <ele>1081.5</ele>
        <time>2021-08-31T11:24:21Z</time>
      </trkpt>
      <trkpt lat="45.06808" lon="5.5669">
        <ele>1081.5</ele>
        <time>2021-08-31T11:24:22Z</time>
      </trkpt>
      <trkpt lat="45.06801" lon="5.56691">
        <ele>1081.5</ele>
        <time>2021-08-31T11:24:24Z</time>
      </trkpt>
      <trkpt lat="45.06795" lon="5.56693">
        <ele>1081.5</ele>
        <time>2021-08-31T11:24:26Z</time>
      </trkpt>
      <trkpt lat="45.0679" lon="5.56694">
        <ele>1082.7</ele>
        <time>2021-08-31T11:24:28Z</time>
      </trkpt>
      <trkpt lat="45.06787" lon="5.56694">
        <ele>1083.1</ele>
        <time>2021-08-31T11:24:29Z</time>
      </trkpt>
      <trkpt lat="45.06783" lon="5.56693">
        <ele>1083.8</ele>
        <time>2021-08-31T11:24:31Z</time>
      </trkpt>
      <trkpt lat="45.06781" lon="5.56693">
        <ele>1084</ele>
        <time>2021-08-31T11:24:33Z</time>
      </trkpt>
      <trkpt lat="45.06781" lon="5.56696">
        <ele>1084.3</ele>
        <time>2021-08-31T11:24:34Z</time>
      </trkpt>
      <trkpt lat="45.06781" lon="5.56699">
        <ele>1084.5</ele>
        <time>2021-08-31T11:24:35Z</time>
      </trkpt>
      <trkpt lat="45.06779" lon="5.56703">
        <ele>1084.9</ele>
        <time>2021-08-31T11:24:37Z</time>
      </trkpt>
      <trkpt lat="45.06777" lon="5.56706">
        <ele>1085.4</ele>
        <time>2021-08-31T11:24:38Z</time>
      </trkpt>
      <trkpt lat="45.06776" lon="5.56707">
        <ele>1085.5</ele>
        <time>2021-08-31T11:24:39Z</time>
      </trkpt>
      <trkpt lat="45.06777" lon="5.56707">
        <ele>1085.6</ele>
        <time>2021-08-31T11:24:41Z</time>
      </trkpt>
      <trkpt lat="45.06778" lon="5.56706">
        <ele>1085.7</ele>
        <time>2021-08-31T11:24:42Z</time>
      </trkpt>
      <trkpt lat="45.06778" lon="5.56706">
        <ele>1085.7</ele>
        <time>2021-08-31T11:24:43Z</time>
      </trkpt>
      <trkpt lat="45.06778" lon="5.56706">
        <ele>1085.7</ele>
        <time>2021-08-31T11:24:44Z</time>
      </trkpt>
      <trkpt lat="45.06778" lon="5.56706">
        <ele>1085.7</ele>
        <time>2021-08-31T11:24:45Z</time>
      </trkpt>
      <trkpt lat="45.06778" lon="5.56706">
        <ele>1085.7</ele>
        <time>2021-08-31T11:24:47Z</time>
      </trkpt>
      <trkpt lat="45.06778" lon="5.56706">
        <ele>1085.8</ele>
        <time>2021-08-31T11:24:48Z</time>
      </trkpt>
      <trkpt lat="45.06778" lon="5.56706">
        <ele>1085.8</ele>
        <time>2021-08-31T11:24:49Z</time>
      </trkpt>
      <trkpt lat="45.06759" lon="5.56688">
        <ele>1089</ele>
        <time>2021-08-31T11:28:51Z</time>
      </trkpt>
      <trkpt lat="45.06757" lon="5.56685">
        <ele>1089.4</ele>
        <time>2021-08-31T11:28:52Z</time>
      </trkpt>
      <trkpt lat="45.06754" lon="5.56683">
        <ele>1090</ele>
        <time>2021-08-31T11:28:54Z</time>
      </trkpt>
      <trkpt lat="45.06752" lon="5.56683">
        <ele>1090.2</ele>
        <time>2021-08-31T11:28:55Z</time>
      </trkpt>
      <trkpt lat="45.0675" lon="5.56682">
        <ele>1090.6</ele>
        <time>2021-08-31T11:28:57Z</time>
      </trkpt>
      <trkpt lat="45.06749" lon="5.56681">
        <ele>1090.9</ele>
        <time>2021-08-31T11:28:58Z</time>
      </trkpt>
      <trkpt lat="45.06748" lon="5.5668">
        <ele>1091.1</ele>
        <time>2021-08-31T11:28:59Z</time>
      </trkpt>
      <trkpt lat="45.06747" lon="5.5668">
        <ele>1091.1</ele>
        <time>2021-08-31T11:29:00Z</time>
      </trkpt>
      <trkpt lat="45.06747" lon="5.5668">
        <ele>1091.2</ele>
        <time>2021-08-31T11:29:01Z</time>
      </trkpt>
      <trkpt lat="45.06746" lon="5.5668">
        <ele>1091.4</ele>
        <time>2021-08-31T11:29:03Z</time>
      </trkpt>
      <trkpt lat="45.06743" lon="5.56678">
        <ele>1091.9</ele>
        <time>2021-08-31T11:29:05Z</time>
      </trkpt>
      <trkpt lat="45.0674" lon="5.56676">
        <ele>1092.4</ele>
        <time>2021-08-31T11:29:07Z</time>
      </trkpt>
      <trkpt lat="45.06739" lon="5.56674">
        <ele>1092.7</ele>
        <time>2021-08-31T11:29:08Z</time>
      </trkpt>
      <trkpt lat="45.06736" lon="5.56672">
        <ele>1093.1</ele>
        <time>2021-08-31T11:29:10Z</time>
      </trkpt>
      <trkpt lat="45.06734" lon="5.56671">
        <ele>1093.5</ele>
        <time>2021-08-31T11:29:11Z</time>
      </trkpt>
      <trkpt lat="45.06732" lon="5.56668">
        <ele>1093.9</ele>
        <time>2021-08-31T11:29:12Z</time>
      </trkpt>
      <trkpt lat="45.06731" lon="5.56667">
        <ele>1094.1</ele>
        <time>2021-08-31T11:29:13Z</time>
      </trkpt>
      <trkpt lat="45.06727" lon="5.56664">
        <ele>1094.8</ele>
        <time>2021-08-31T11:29:15Z</time>
      </trkpt>
      <trkpt lat="45.06724" lon="5.56661">
        <ele>1095.3</ele>
        <time>2021-08-31T11:29:17Z</time>
      </trkpt>
      <trkpt lat="45.06723" lon="5.5666">
        <ele>1095.5</ele>
        <time>2021-08-31T11:29:18Z</time>
      </trkpt>
      <trkpt lat="45.06722" lon="5.56658">
        <ele>1095.7</ele>
        <time>2021-08-31T11:29:19Z</time>
      </trkpt>
      <trkpt lat="45.0672" lon="5.56656">
        <ele>1096</ele>
        <time>2021-08-31T11:29:20Z</time>
      </trkpt>
      <trkpt lat="45.06719" lon="5.56656">
        <ele>1096.1</ele>
        <time>2021-08-31T11:29:21Z</time>
      </trkpt>
      <trkpt lat="45.06718" lon="5.56656">
        <ele>1096.2</ele>
        <time>2021-08-31T11:29:22Z</time>
      </trkpt>
      <trkpt lat="45.06717" lon="5.56657">
        <ele>1096.4</ele>
        <time>2021-08-31T11:29:23Z</time>
      </trkpt>
      <trkpt lat="45.06715" lon="5.56657">
        <ele>1096.6</ele>
        <time>2021-08-31T11:29:24Z</time>
      </trkpt>
      <trkpt lat="45.06712" lon="5.56656">
        <ele>1097</ele>
        <time>2021-08-31T11:29:26Z</time>
      </trkpt>
      <trkpt lat="45.06711" lon="5.56656">
        <ele>1097.2</ele>
        <time>2021-08-31T11:29:27Z</time>
      </trkpt>
      <trkpt lat="45.06708" lon="5.56656">
        <ele>1097.5</ele>
        <time>2021-08-31T11:29:29Z</time>
      </trkpt>
      <trkpt lat="45.06706" lon="5.56655">
        <ele>1097.8</ele>
        <time>2021-08-31T11:29:31Z</time>
      </trkpt>
      <trkpt lat="45.06705" lon="5.56655">
        <ele>1098</ele>
        <time>2021-08-31T11:29:32Z</time>
      </trkpt>
      <trkpt lat="45.06703" lon="5.56654">
        <ele>1098.2</ele>
        <time>2021-08-31T11:29:33Z</time>
      </trkpt>
      <trkpt lat="45.06702" lon="5.56653">
        <ele>1098.3</ele>
        <time>2021-08-31T11:29:35Z</time>
      </trkpt>
      <trkpt lat="45.06701" lon="5.56652">
        <ele>1098.4</ele>
        <time>2021-08-31T11:29:36Z</time>
      </trkpt>
      <trkpt lat="45.06701" lon="5.56653">
        <ele>1098.5</ele>
        <time>2021-08-31T11:29:38Z</time>
      </trkpt>
      <trkpt lat="45.06701" lon="5.56653">
        <ele>1098.5</ele>
        <time>2021-08-31T11:29:40Z</time>
      </trkpt>
      <trkpt lat="45.06701" lon="5.56653">
        <ele>1098.6</ele>
        <time>2021-08-31T11:29:41Z</time>
      </trkpt>
      <trkpt lat="45.067" lon="5.56653">
        <ele>1098.6</ele>
        <time>2021-08-31T11:29:43Z</time>
      </trkpt>
      <trkpt lat="45.067" lon="5.56653">
        <ele>1098.6</ele>
        <time>2021-08-31T11:29:44Z</time>
      </trkpt>
      <trkpt lat="45.067" lon="5.56653">
        <ele>1098.7</ele>
        <time>2021-08-31T11:29:46Z</time>
      </trkpt>
      <trkpt lat="45.06672" lon="5.5666">
        <ele>1102.5</ele>
        <time>2021-08-31T11:30:22Z</time>
      </trkpt>
      <trkpt lat="45.06669" lon="5.5666">
        <ele>1102.9</ele>
        <time>2021-08-31T11:30:23Z</time>
      </trkpt>
      <trkpt lat="45.06666" lon="5.5666">
        <ele>1103.4</ele>
        <time>2021-08-31T11:30:24Z</time>
      </trkpt>
      <trkpt lat="45.0666" lon="5.5666">
        <ele>1104.2</ele>
        <time>2021-08-31T11:30:26Z</time>
      </trkpt>
      <trkpt lat="45.06659" lon="5.5666">
        <ele>1104.4</ele>
        <time>2021-08-31T11:30:28Z</time>
      </trkpt>
      <trkpt lat="45.06657" lon="5.56661">
        <ele>1104.7</ele>
        <time>2021-08-31T11:30:30Z</time>
      </trkpt>
      <trkpt lat="45.06655" lon="5.56661">
        <ele>1104.9</ele>
        <time>2021-08-31T11:30:31Z</time>
      </trkpt>
      <trkpt lat="45.06655" lon="5.56662">
        <ele>1105.1</ele>
        <time>2021-08-31T11:30:32Z</time>
      </trkpt>
      <trkpt lat="45.06654" lon="5.56662">
        <ele>1105.1</ele>
        <time>2021-08-31T11:30:33Z</time>
      </trkpt>
      <trkpt lat="45.06654" lon="5.56662">
        <ele>1105.2</ele>
        <time>2021-08-31T11:30:34Z</time>
      </trkpt>
      <trkpt lat="45.06652" lon="5.56663">
        <ele>1105.4</ele>
        <time>2021-08-31T11:30:36Z</time>
      </trkpt>
      <trkpt lat="45.06652" lon="5.56663">
        <ele>1105.5</ele>
        <time>2021-08-31T11:30:37Z</time>
      </trkpt>
      <trkpt lat="45.06651" lon="5.56663">
        <ele>1105.7</ele>
        <time>2021-08-31T11:30:38Z</time>
      </trkpt>
      <trkpt lat="45.0665" lon="5.56663">
        <ele>1105.8</ele>
        <time>2021-08-31T11:30:40Z</time>
      </trkpt>
      <trkpt lat="45.06583" lon="5.56679">
        <ele>1116.4</ele>
        <time>2021-08-31T11:32:05Z</time>
      </trkpt>
      <trkpt lat="45.06581" lon="5.56678">
        <ele>1116.5</ele>
        <time>2021-08-31T11:32:06Z</time>
      </trkpt>
      <trkpt lat="45.0658" lon="5.56677">
        <ele>1116.5</ele>
        <time>2021-08-31T11:32:08Z</time>
      </trkpt>
      <trkpt lat="45.06578" lon="5.56676">
        <ele>1117</ele>
        <time>2021-08-31T11:32:09Z</time>
      </trkpt>
      <trkpt lat="45.06576" lon="5.56676">
        <ele>1117.2</ele>
        <time>2021-08-31T11:32:10Z</time>
      </trkpt>
      <trkpt lat="45.06573" lon="5.56674">
        <ele>1117.6</ele>
        <time>2021-08-31T11:32:11Z</time>
      </trkpt>
      <trkpt lat="45.06569" lon="5.56673">
        <ele>1118.2</ele>
        <time>2021-08-31T11:32:13Z</time>
      </trkpt>
      <trkpt lat="45.06566" lon="5.56672">
        <ele>1118.5</ele>
        <time>2021-08-31T11:32:15Z</time>
      </trkpt>
      <trkpt lat="45.06565" lon="5.56672">
        <ele>1118.7</ele>
        <time>2021-08-31T11:32:17Z</time>
      </trkpt>
      <trkpt lat="45.06564" lon="5.56672">
        <ele>1118.8</ele>
        <time>2021-08-31T11:32:18Z</time>
      </trkpt>
      <trkpt lat="45.06564" lon="5.56672">
        <ele>1118.9</ele>
        <time>2021-08-31T11:32:19Z</time>
      </trkpt>
      <trkpt lat="45.06563" lon="5.56672">
        <ele>1119.1</ele>
        <time>2021-08-31T11:32:21Z</time>
      </trkpt>
      <trkpt lat="45.06562" lon="5.56672">
        <ele>1119.1</ele>
        <time>2021-08-31T11:32:22Z</time>
      </trkpt>
      <trkpt lat="45.06562" lon="5.56671">
        <ele>1119.2</ele>
        <time>2021-08-31T11:32:23Z</time>
      </trkpt>
      <trkpt lat="45.06472" lon="5.56631">
        <ele>1130.1</ele>
        <time>2021-08-31T11:33:52Z</time>
      </trkpt>
      <trkpt lat="45.06469" lon="5.56629">
        <ele>1130.3</ele>
        <time>2021-08-31T11:33:53Z</time>
      </trkpt>
      <trkpt lat="45.06469" lon="5.56628">
        <ele>1130.3</ele>
        <time>2021-08-31T11:33:54Z</time>
      </trkpt>
      <trkpt lat="45.06468" lon="5.56628">
        <ele>1130.4</ele>
        <time>2021-08-31T11:33:55Z</time>
      </trkpt>
      <trkpt lat="45.06467" lon="5.56628">
        <ele>1130.4</ele>
        <time>2021-08-31T11:33:57Z</time>
      </trkpt>
      <trkpt lat="45.06467" lon="5.56627">
        <ele>1130.5</ele>
        <time>2021-08-31T11:33:58Z</time>
      </trkpt>
      <trkpt lat="45.06466" lon="5.56627">
        <ele>1130.5</ele>
        <time>2021-08-31T11:33:59Z</time>
      </trkpt>
      <trkpt lat="45.06466" lon="5.56627">
        <ele>1130.5</ele>
        <time>2021-08-31T11:34:00Z</time>
      </trkpt>
      <trkpt lat="45.06462" lon="5.56626">
        <ele>1130.8</ele>
        <time>2021-08-31T11:34:01Z</time>
      </trkpt>
      <trkpt lat="45.0646" lon="5.56626">
        <ele>1130.9</ele>
        <time>2021-08-31T11:34:02Z</time>
      </trkpt>
      <trkpt lat="45.06457" lon="5.56625">
        <ele>1131.1</ele>
        <time>2021-08-31T11:34:04Z</time>
      </trkpt>
      <trkpt lat="45.06455" lon="5.56624">
        <ele>1131.3</ele>
        <time>2021-08-31T11:34:13Z</time>
      </trkpt>
      <trkpt lat="45.06452" lon="5.56623">
        <ele>1131.3</ele>
        <time>2021-08-31T11:34:15Z</time>
      </trkpt>
      <trkpt lat="45.06449" lon="5.56623">
        <ele>1131.2</ele>
        <time>2021-08-31T11:34:16Z</time>
      </trkpt>
      <trkpt lat="45.06447" lon="5.56622">
        <ele>1131</ele>
        <time>2021-08-31T11:34:17Z</time>
      </trkpt>
      <trkpt lat="45.06444" lon="5.56623">
        <ele>1130.8</ele>
        <time>2021-08-31T11:34:18Z</time>
      </trkpt>
      <trkpt lat="45.0644" lon="5.56625">
        <ele>1130.5</ele>
        <time>2021-08-31T11:34:20Z</time>
      </trkpt>
      <trkpt lat="45.06437" lon="5.56626">
        <ele>1130.3</ele>
        <time>2021-08-31T11:34:21Z</time>
      </trkpt>
      <trkpt lat="45.06434" lon="5.56626">
        <ele>1130</ele>
        <time>2021-08-31T11:34:22Z</time>
      </trkpt>
      <trkpt lat="45.06431" lon="5.56627">
        <ele>1129.8</ele>
        <time>2021-08-31T11:34:24Z</time>
      </trkpt>
      <trkpt lat="45.06426" lon="5.56626">
        <ele>1129.5</ele>
        <time>2021-08-31T11:34:25Z</time>
      </trkpt>
      <trkpt lat="45.06422" lon="5.56626">
        <ele>1129.1</ele>
        <time>2021-08-31T11:34:27Z</time>
      </trkpt>
      <trkpt lat="45.06419" lon="5.56628">
        <ele>1128.9</ele>
        <time>2021-08-31T11:34:28Z</time>
      </trkpt>
      <trkpt lat="45.06416" lon="5.56629">
        <ele>1128.6</ele>
        <time>2021-08-31T11:34:29Z</time>
      </trkpt>
      <trkpt lat="45.06415" lon="5.56629">
        <ele>1128.6</ele>
        <time>2021-08-31T11:34:30Z</time>
      </trkpt>
      <trkpt lat="45.06412" lon="5.56628">
        <ele>1128.4</ele>
        <time>2021-08-31T11:34:31Z</time>
      </trkpt>
      <trkpt lat="45.06411" lon="5.56627">
        <ele>1128.2</ele>
        <time>2021-08-31T11:34:33Z</time>
      </trkpt>
      <trkpt lat="45.06409" lon="5.56626">
        <ele>1128.1</ele>
        <time>2021-08-31T11:34:34Z</time>
      </trkpt>
      <trkpt lat="45.06407" lon="5.56626">
        <ele>1127.9</ele>
        <time>2021-08-31T11:34:35Z</time>
      </trkpt>
      <trkpt lat="45.06403" lon="5.56626">
        <ele>1127.5</ele>
        <time>2021-08-31T11:34:37Z</time>
      </trkpt>
      <trkpt lat="45.06402" lon="5.56627">
        <ele>1127.4</ele>
        <time>2021-08-31T11:34:38Z</time>
      </trkpt>
      <trkpt lat="45.06401" lon="5.56627">
        <ele>1127.2</ele>
        <time>2021-08-31T11:34:39Z</time>
      </trkpt>
      <trkpt lat="45.06397" lon="5.56627">
        <ele>1126.9</ele>
        <time>2021-08-31T11:34:40Z</time>
      </trkpt>
      <trkpt lat="45.06397" lon="5.56627">
        <ele>1126.8</ele>
        <time>2021-08-31T11:34:41Z</time>
      </trkpt>
      <trkpt lat="45.06395" lon="5.56626">
        <ele>1126.6</ele>
        <time>2021-08-31T11:34:42Z</time>
      </trkpt>
      <trkpt lat="45.06393" lon="5.56625">
        <ele>1126.3</ele>
        <time>2021-08-31T11:34:44Z</time>
      </trkpt>
      <trkpt lat="45.06393" lon="5.56626">
        <ele>1126.2</ele>
        <time>2021-08-31T11:34:45Z</time>
      </trkpt>
      <trkpt lat="45.06393" lon="5.56626">
        <ele>1126.1</ele>
        <time>2021-08-31T11:34:47Z</time>
      </trkpt>
      <trkpt lat="45.06393" lon="5.56626">
        <ele>1126.1</ele>
        <time>2021-08-31T11:34:48Z</time>
      </trkpt>
      <trkpt lat="45.06393" lon="5.56626">
        <ele>1126.1</ele>
        <time>2021-08-31T11:34:49Z</time>
      </trkpt>
      <trkpt lat="45.06392" lon="5.56627">
        <ele>1125.9</ele>
        <time>2021-08-31T11:34:51Z</time>
      </trkpt>
      <trkpt lat="45.0639" lon="5.56628">
        <ele>1125.7</ele>
        <time>2021-08-31T11:34:52Z</time>
      </trkpt>
      <trkpt lat="45.06384" lon="5.5663">
        <ele>1124.8</ele>
        <time>2021-08-31T11:34:55Z</time>
      </trkpt>
      <trkpt lat="45.0638" lon="5.56633">
        <ele>1124.1</ele>
        <time>2021-08-31T11:34:56Z</time>
      </trkpt>
      <trkpt lat="45.06375" lon="5.56637">
        <ele>1123.3</ele>
        <time>2021-08-31T11:34:57Z</time>
      </trkpt>
      <trkpt lat="45.06372" lon="5.56641">
        <ele>1122.7</ele>
        <time>2021-08-31T11:34:58Z</time>
      </trkpt>
      <trkpt lat="45.06368" lon="5.56645">
        <ele>1121.9</ele>
        <time>2021-08-31T11:34:59Z</time>
      </trkpt>
      <trkpt lat="45.06361" lon="5.56651">
        <ele>1120.9</ele>
        <time>2021-08-31T11:35:00Z</time>
      </trkpt>
      <trkpt lat="45.06358" lon="5.56655">
        <ele>1120.4</ele>
        <time>2021-08-31T11:35:01Z</time>
      </trkpt>
      <trkpt lat="45.06358" lon="5.56658">
        <ele>1120.1</ele>
        <time>2021-08-31T11:35:02Z</time>
      </trkpt>
      <trkpt lat="45.06355" lon="5.56665">
        <ele>1119.4</ele>
        <time>2021-08-31T11:35:04Z</time>
      </trkpt>
      <trkpt lat="45.06353" lon="5.56669">
        <ele>1119</ele>
        <time>2021-08-31T11:35:05Z</time>
      </trkpt>
      <trkpt lat="45.06349" lon="5.56673">
        <ele>1118.5</ele>
        <time>2021-08-31T11:35:06Z</time>
      </trkpt>
      <trkpt lat="45.06343" lon="5.56678">
        <ele>1117.9</ele>
        <time>2021-08-31T11:35:08Z</time>
      </trkpt>
      <trkpt lat="45.06336" lon="5.5668">
        <ele>1117.3</ele>
        <time>2021-08-31T11:35:10Z</time>
      </trkpt>
      <trkpt lat="45.06331" lon="5.5668">
        <ele>1117</ele>
        <time>2021-08-31T11:35:12Z</time>
      </trkpt>
      <trkpt lat="45.0633" lon="5.56681">
        <ele>1116.9</ele>
        <time>2021-08-31T11:35:13Z</time>
      </trkpt>
      <trkpt lat="45.06327" lon="5.56681">
        <ele>1116.6</ele>
        <time>2021-08-31T11:35:15Z</time>
      </trkpt>
      <trkpt lat="45.06323" lon="5.56681">
        <ele>1116.3</ele>
        <time>2021-08-31T11:35:17Z</time>
      </trkpt>
      <trkpt lat="45.06322" lon="5.5668">
        <ele>1116.2</ele>
        <time>2021-08-31T11:35:18Z</time>
      </trkpt>
      <trkpt lat="45.06321" lon="5.56679">
        <ele>1116</ele>
        <time>2021-08-31T11:35:20Z</time>
      </trkpt>
      <trkpt lat="45.0632" lon="5.56679">
        <ele>1116</ele>
        <time>2021-08-31T11:35:21Z</time>
      </trkpt>
      <trkpt lat="45.0632" lon="5.56679">
        <ele>1116</ele>
        <time>2021-08-31T11:35:23Z</time>
      </trkpt>
      <trkpt lat="45.0632" lon="5.56679">
        <ele>1116</ele>
        <time>2021-08-31T11:35:24Z</time>
      </trkpt>
      <trkpt lat="45.0632" lon="5.56679">
        <ele>1116</ele>
        <time>2021-08-31T11:35:25Z</time>
      </trkpt>
      <trkpt lat="45.0632" lon="5.56679">
        <ele>1116</ele>
        <time>2021-08-31T11:35:27Z</time>
      </trkpt>
      <trkpt lat="45.0632" lon="5.56679">
        <ele>1116</ele>
        <time>2021-08-31T11:35:28Z</time>
      </trkpt>
      <trkpt lat="45.06299" lon="5.56688">
        <ele>1113.6</ele>
        <time>2021-08-31T11:36:08Z</time>
      </trkpt>
      <trkpt lat="45.06296" lon="5.56686">
        <ele>1113.1</ele>
        <time>2021-08-31T11:36:10Z</time>
      </trkpt>
      <trkpt lat="45.06295" lon="5.56686">
        <ele>1113</ele>
        <time>2021-08-31T11:36:11Z</time>
      </trkpt>
      <trkpt lat="45.06294" lon="5.56685">
        <ele>1112.9</ele>
        <time>2021-08-31T11:36:12Z</time>
      </trkpt>
      <trkpt lat="45.06293" lon="5.56685">
        <ele>1112.8</ele>
        <time>2021-08-31T11:36:13Z</time>
      </trkpt>
      <trkpt lat="45.06292" lon="5.56685">
        <ele>1112.7</ele>
        <time>2021-08-31T11:36:14Z</time>
      </trkpt>
      <trkpt lat="45.06287" lon="5.56684">
        <ele>1112.1</ele>
        <time>2021-08-31T11:36:16Z</time>
      </trkpt>
      <trkpt lat="45.06285" lon="5.56681">
        <ele>1111.7</ele>
        <time>2021-08-31T11:36:17Z</time>
      </trkpt>
      <trkpt lat="45.06283" lon="5.5668">
        <ele>1111.6</ele>
        <time>2021-08-31T11:36:18Z</time>
      </trkpt>
      <trkpt lat="45.06276" lon="5.56678">
        <ele>1110.6</ele>
        <time>2021-08-31T11:36:20Z</time>
      </trkpt>
      <trkpt lat="45.06273" lon="5.56676">
        <ele>1110.3</ele>
        <time>2021-08-31T11:36:21Z</time>
      </trkpt>
      <trkpt lat="45.06271" lon="5.56672">
        <ele>1109.9</ele>
        <time>2021-08-31T11:36:23Z</time>
      </trkpt>
      <trkpt lat="45.0627" lon="5.56671">
        <ele>1109.7</ele>
        <time>2021-08-31T11:36:24Z</time>
      </trkpt>
      <trkpt lat="45.06269" lon="5.56669">
        <ele>1109.5</ele>
        <time>2021-08-31T11:36:25Z</time>
      </trkpt>
      <trkpt lat="45.06266" lon="5.56666">
        <ele>1109.1</ele>
        <time>2021-08-31T11:36:27Z</time>
      </trkpt>
      <trkpt lat="45.06265" lon="5.56665">
        <ele>1109</ele>
        <time>2021-08-31T11:36:28Z</time>
      </trkpt>
      <trkpt lat="45.06264" lon="5.56664">
        <ele>1108.8</ele>
        <time>2021-08-31T11:36:30Z</time>
      </trkpt>
      <trkpt lat="45.06265" lon="5.56663">
        <ele>1108.7</ele>
        <time>2021-08-31T11:36:32Z</time>
      </trkpt>
      <trkpt lat="45.06266" lon="5.56662">
        <ele>1108.6</ele>
        <time>2021-08-31T11:36:33Z</time>
      </trkpt>
      <trkpt lat="45.06266" lon="5.56662">
        <ele>1108.6</ele>
        <time>2021-08-31T11:36:35Z</time>
      </trkpt>
      <trkpt lat="45.06264" lon="5.56662">
        <ele>1108.5</ele>
        <time>2021-08-31T11:36:36Z</time>
      </trkpt>
      <trkpt lat="45.06259" lon="5.56661">
        <ele>1108.1</ele>
        <time>2021-08-31T11:36:38Z</time>
      </trkpt>
      <trkpt lat="45.06252" lon="5.56656">
        <ele>1107.5</ele>
        <time>2021-08-31T11:36:40Z</time>
      </trkpt>
      <trkpt lat="45.06162" lon="5.56695">
        <ele>1110.6</ele>
        <time>2021-08-31T11:43:39Z</time>
      </trkpt>
      <trkpt lat="45.06163" lon="5.5669">
        <ele>1109.9</ele>
        <time>2021-08-31T11:43:40Z</time>
      </trkpt>
      <trkpt lat="45.06169" lon="5.56681">
        <ele>1109.5</ele>
        <time>2021-08-31T11:43:42Z</time>
      </trkpt>
      <trkpt lat="45.06171" lon="5.56678">
        <ele>1109.4</ele>
        <time>2021-08-31T11:43:43Z</time>
      </trkpt>
      <trkpt lat="45.06179" lon="5.5667">
        <ele>1109.2</ele>
        <time>2021-08-31T11:43:44Z</time>
      </trkpt>
      <trkpt lat="45.06183" lon="5.56666">
        <ele>1109</ele>
        <time>2021-08-31T11:43:46Z</time>
      </trkpt>
      <trkpt lat="45.0619" lon="5.56662">
        <ele>1108.9</ele>
        <time>2021-08-31T11:43:48Z</time>
      </trkpt>
      <trkpt lat="45.06193" lon="5.5666">
        <ele>1108.8</ele>
        <time>2021-08-31T11:43:49Z</time>
      </trkpt>
      <trkpt lat="45.06196" lon="5.56659">
        <ele>1108.8</ele>
        <time>2021-08-31T11:43:50Z</time>
      </trkpt>
      <trkpt lat="45.06202" lon="5.56656">
        <ele>1108.6</ele>
        <time>2021-08-31T11:43:52Z</time>
      </trkpt>
      <trkpt lat="45.06248" lon="5.56519">
        <ele>1111.8</ele>
        <time>2021-08-31T11:44:45Z</time>
      </trkpt>
      <trkpt lat="45.06252" lon="5.5651">
        <ele>1111.6</ele>
        <time>2021-08-31T11:44:46Z</time>
      </trkpt>
      <trkpt lat="45.06258" lon="5.56503">
        <ele>1111.4</ele>
        <time>2021-08-31T11:44:48Z</time>
      </trkpt>
      <trkpt lat="45.06261" lon="5.56498">
        <ele>1111.2</ele>
        <time>2021-08-31T11:44:49Z</time>
      </trkpt>
      <trkpt lat="45.06266" lon="5.56491">
        <ele>1111</ele>
        <time>2021-08-31T11:44:50Z</time>
      </trkpt>
      <trkpt lat="45.0627" lon="5.56486">
        <ele>1110.8</ele>
        <time>2021-08-31T11:44:52Z</time>
      </trkpt>
      <trkpt lat="45.06274" lon="5.56482">
        <ele>1110.6</ele>
        <time>2021-08-31T11:44:53Z</time>
      </trkpt>
      <trkpt lat="45.06277" lon="5.56475">
        <ele>1110.4</ele>
        <time>2021-08-31T11:44:54Z</time>
      </trkpt>
      <trkpt lat="45.06279" lon="5.56468">
        <ele>1110.3</ele>
        <time>2021-08-31T11:44:55Z</time>
      </trkpt>
      <trkpt lat="45.0628" lon="5.56462">
        <ele>1110.1</ele>
        <time>2021-08-31T11:44:56Z</time>
      </trkpt>
      <trkpt lat="45.0628" lon="5.56451">
        <ele>1109.9</ele>
        <time>2021-08-31T11:44:58Z</time>
      </trkpt>
      <trkpt lat="45.0628" lon="5.56439">
        <ele>1109.6</ele>
        <time>2021-08-31T11:45:00Z</time>
      </trkpt>
      <trkpt lat="45.06278" lon="5.56432">
        <ele>1109.4</ele>
        <time>2021-08-31T11:45:01Z</time>
      </trkpt>
      <trkpt lat="45.06271" lon="5.5641">
        <ele>1108.8</ele>
        <time>2021-08-31T11:45:03Z</time>
      </trkpt>
      <trkpt lat="45.06267" lon="5.56401">
        <ele>1108.6</ele>
        <time>2021-08-31T11:45:05Z</time>
      </trkpt>
      <trkpt lat="45.06269" lon="5.56384">
        <ele>1108.2</ele>
        <time>2021-08-31T11:45:06Z</time>
      </trkpt>
      <trkpt lat="45.06271" lon="5.56373">
        <ele>1108</ele>
        <time>2021-08-31T11:45:07Z</time>
      </trkpt>
      <trkpt lat="45.06272" lon="5.56367">
        <ele>1107.9</ele>
        <time>2021-08-31T11:45:09Z</time>
      </trkpt>
      <trkpt lat="45.06274" lon="5.56361">
        <ele>1107.8</ele>
        <time>2021-08-31T11:45:10Z</time>
      </trkpt>
      <trkpt lat="45.06275" lon="5.56357">
        <ele>1107.7</ele>
        <time>2021-08-31T11:45:11Z</time>
      </trkpt>
      <trkpt lat="45.06276" lon="5.56348">
        <ele>1107.4</ele>
        <time>2021-08-31T11:45:13Z</time>
      </trkpt>
      <trkpt lat="45.06277" lon="5.56337">
        <ele>1107</ele>
        <time>2021-08-31T11:45:14Z</time>
      </trkpt>
      <trkpt lat="45.06276" lon="5.56323">
        <ele>1106.3</ele>
        <time>2021-08-31T11:45:16Z</time>
      </trkpt>
      <trkpt lat="45.06277" lon="5.56316">
        <ele>1105.9</ele>
        <time>2021-08-31T11:45:17Z</time>
      </trkpt>
      <trkpt lat="45.06275" lon="5.56302">
        <ele>1105</ele>
        <time>2021-08-31T11:45:18Z</time>
      </trkpt>
      <trkpt lat="45.06275" lon="5.56282">
        <ele>1103.9</ele>
        <time>2021-08-31T11:45:20Z</time>
      </trkpt>
      <trkpt lat="45.06277" lon="5.56262">
        <ele>1103.1</ele>
        <time>2021-08-31T11:45:22Z</time>
      </trkpt>
      <trkpt lat="45.06279" lon="5.56244">
        <ele>1102.5</ele>
        <time>2021-08-31T11:45:24Z</time>
      </trkpt>
      <trkpt lat="45.0628" lon="5.56235">
        <ele>1102.2</ele>
        <time>2021-08-31T11:45:25Z</time>
      </trkpt>
      <trkpt lat="45.0628" lon="5.56225">
        <ele>1101.8</ele>
        <time>2021-08-31T11:45:26Z</time>
      </trkpt>
      <trkpt lat="45.06282" lon="5.56208">
        <ele>1101.1</ele>
        <time>2021-08-31T11:45:28Z</time>
      </trkpt>
      <trkpt lat="45.06283" lon="5.562">
        <ele>1100.8</ele>
        <time>2021-08-31T11:45:29Z</time>
      </trkpt>
      <trkpt lat="45.06285" lon="5.56193">
        <ele>1100.5</ele>
        <time>2021-08-31T11:45:30Z</time>
      </trkpt>
      <trkpt lat="45.06287" lon="5.56186">
        <ele>1100.3</ele>
        <time>2021-08-31T11:45:31Z</time>
      </trkpt>
      <trkpt lat="45.06292" lon="5.56174">
        <ele>1099.9</ele>
        <time>2021-08-31T11:45:33Z</time>
      </trkpt>
      <trkpt lat="45.06294" lon="5.56167">
        <ele>1099.7</ele>
        <time>2021-08-31T11:45:34Z</time>
      </trkpt>
      <trkpt lat="45.06297" lon="5.56161">
        <ele>1099.4</ele>
        <time>2021-08-31T11:45:35Z</time>
      </trkpt>
      <trkpt lat="45.06299" lon="5.56157">
        <ele>1099.2</ele>
        <time>2021-08-31T11:45:36Z</time>
      </trkpt>
      <trkpt lat="45.06299" lon="5.5615">
        <ele>1098.8</ele>
        <time>2021-08-31T11:45:38Z</time>
      </trkpt>
      <trkpt lat="45.063" lon="5.56141">
        <ele>1098.4</ele>
        <time>2021-08-31T11:45:40Z</time>
      </trkpt>
      <trkpt lat="45.063" lon="5.56136">
        <ele>1098.1</ele>
        <time>2021-08-31T11:45:41Z</time>
      </trkpt>
      <trkpt lat="45.063" lon="5.56134">
        <ele>1098</ele>
        <time>2021-08-31T11:45:42Z</time>
      </trkpt>
      <trkpt lat="45.06301" lon="5.56124">
        <ele>1097.5</ele>
        <time>2021-08-31T11:45:44Z</time>
      </trkpt>
      <trkpt lat="45.06302" lon="5.56118">
        <ele>1097.2</ele>
        <time>2021-08-31T11:45:45Z</time>
      </trkpt>
      <trkpt lat="45.06303" lon="5.56114">
        <ele>1097</ele>
        <time>2021-08-31T11:45:46Z</time>
      </trkpt>
      <trkpt lat="45.06303" lon="5.56102">
        <ele>1096.4</ele>
        <time>2021-08-31T11:45:47Z</time>
      </trkpt>
      <trkpt lat="45.06305" lon="5.56092">
        <ele>1095.8</ele>
        <time>2021-08-31T11:45:48Z</time>
      </trkpt>
      <trkpt lat="45.06307" lon="5.56087">
        <ele>1095.4</ele>
        <time>2021-08-31T11:45:50Z</time>
      </trkpt>
      <trkpt lat="45.06308" lon="5.56083">
        <ele>1095.2</ele>
        <time>2021-08-31T11:45:51Z</time>
      </trkpt>
      <trkpt lat="45.06308" lon="5.5608">
        <ele>1095</ele>
        <time>2021-08-31T11:45:52Z</time>
      </trkpt>
      <trkpt lat="45.06308" lon="5.56079">
        <ele>1094.9</ele>
        <time>2021-08-31T11:45:54Z</time>
      </trkpt>
      <trkpt lat="45.06308" lon="5.56065">
        <ele>1094</ele>
        <time>2021-08-31T11:45:56Z</time>
      </trkpt>
      <trkpt lat="45.06293" lon="5.55991">
        <ele>1089.3</ele>
        <time>2021-08-31T11:46:14Z</time>
      </trkpt>
      <trkpt lat="45.06293" lon="5.5598">
        <ele>1088.2</ele>
        <time>2021-08-31T11:46:16Z</time>
      </trkpt>
      <trkpt lat="45.06292" lon="5.55972">
        <ele>1087.4</ele>
        <time>2021-08-31T11:46:17Z</time>
      </trkpt>
      <trkpt lat="45.06292" lon="5.55966">
        <ele>1086.6</ele>
        <time>2021-08-31T11:46:18Z</time>
      </trkpt>
      <trkpt lat="45.06293" lon="5.55945">
        <ele>1083.8</ele>
        <time>2021-08-31T11:46:20Z</time>
      </trkpt>
      <trkpt lat="45.06294" lon="5.55937">
        <ele>1082.7</ele>
        <time>2021-08-31T11:46:21Z</time>
      </trkpt>
      <trkpt lat="45.06296" lon="5.55923">
        <ele>1081</ele>
        <time>2021-08-31T11:46:23Z</time>
      </trkpt>
      <trkpt lat="45.06297" lon="5.55919">
        <ele>1080.4</ele>
        <time>2021-08-31T11:46:24Z</time>
      </trkpt>
      <trkpt lat="45.06298" lon="5.55913">
        <ele>1079.7</ele>
        <time>2021-08-31T11:46:25Z</time>
      </trkpt>
      <trkpt lat="45.06299" lon="5.55907">
        <ele>1079</ele>
        <time>2021-08-31T11:46:27Z</time>
      </trkpt>
      <trkpt lat="45.06299" lon="5.55901">
        <ele>1078.3</ele>
        <time>2021-08-31T11:46:28Z</time>
      </trkpt>
      <trkpt lat="45.06299" lon="5.55898">
        <ele>1078.1</ele>
        <time>2021-08-31T11:46:29Z</time>
      </trkpt>
      <trkpt lat="45.06296" lon="5.5589">
        <ele>1077.7</ele>
        <time>2021-08-31T11:46:30Z</time>
      </trkpt>
      <trkpt lat="45.06295" lon="5.55877">
        <ele>1077.1</ele>
        <time>2021-08-31T11:46:32Z</time>
      </trkpt>
      <trkpt lat="45.06295" lon="5.55871">
        <ele>1076.9</ele>
        <time>2021-08-31T11:46:33Z</time>
      </trkpt>
      <trkpt lat="45.06296" lon="5.55865">
        <ele>1076.7</ele>
        <time>2021-08-31T11:46:34Z</time>
      </trkpt>
      <trkpt lat="45.06294" lon="5.55859">
        <ele>1076.5</ele>
        <time>2021-08-31T11:46:35Z</time>
      </trkpt>
      <trkpt lat="45.06291" lon="5.55853">
        <ele>1076.3</ele>
        <time>2021-08-31T11:46:37Z</time>
      </trkpt>
      <trkpt lat="45.0629" lon="5.55849">
        <ele>1076.2</ele>
        <time>2021-08-31T11:46:38Z</time>
      </trkpt>
      <trkpt lat="45.06289" lon="5.55845">
        <ele>1076.1</ele>
        <time>2021-08-31T11:46:39Z</time>
      </trkpt>
      <trkpt lat="45.06288" lon="5.55841">
        <ele>1076.1</ele>
        <time>2021-08-31T11:46:40Z</time>
      </trkpt>
      <trkpt lat="45.06286" lon="5.55838">
        <ele>1076</ele>
        <time>2021-08-31T11:46:42Z</time>
      </trkpt>
      <trkpt lat="45.06285" lon="5.55834">
        <ele>1076</ele>
        <time>2021-08-31T11:46:44Z</time>
      </trkpt>
      <trkpt lat="45.06283" lon="5.55834">
        <ele>1075.9</ele>
        <time>2021-08-31T11:46:46Z</time>
      </trkpt>
      <trkpt lat="45.06283" lon="5.55837">
        <ele>1075.9</ele>
        <time>2021-08-31T11:46:48Z</time>
      </trkpt>
      <trkpt lat="45.06282" lon="5.5584">
        <ele>1075.9</ele>
        <time>2021-08-31T11:46:50Z</time>
      </trkpt>
      <trkpt lat="45.06284" lon="5.55841">
        <ele>1075.9</ele>
        <time>2021-08-31T11:46:51Z</time>
      </trkpt>
      <trkpt lat="45.06286" lon="5.55844">
        <ele>1075.9</ele>
        <time>2021-08-31T11:46:53Z</time>
      </trkpt>
      <trkpt lat="45.06287" lon="5.55846">
        <ele>1075.9</ele>
        <time>2021-08-31T11:46:54Z</time>
      </trkpt>
      <trkpt lat="45.06288" lon="5.55848">
        <ele>1075.9</ele>
        <time>2021-08-31T11:46:56Z</time>
      </trkpt>
      <trkpt lat="45.0629" lon="5.55851">
        <ele>1075.3</ele>
        <time>2021-08-31T11:46:57Z</time>
      </trkpt>
      <trkpt lat="45.06291" lon="5.55853">
        <ele>1075.2</ele>
        <time>2021-08-31T11:46:58Z</time>
      </trkpt>
      <trkpt lat="45.06292" lon="5.55855">
        <ele>1075.1</ele>
        <time>2021-08-31T11:47:21Z</time>
      </trkpt>
      <trkpt lat="45.06294" lon="5.55857">
        <ele>1075</ele>
        <time>2021-08-31T11:47:23Z</time>
      </trkpt>
      <trkpt lat="45.06295" lon="5.55859">
        <ele>1074.9</ele>
        <time>2021-08-31T11:47:24Z</time>
      </trkpt>
      <trkpt lat="45.06296" lon="5.55861">
        <ele>1074.8</ele>
        <time>2021-08-31T11:47:25Z</time>
      </trkpt>
      <trkpt lat="45.06299" lon="5.55864">
        <ele>1074.6</ele>
        <time>2021-08-31T11:47:26Z</time>
      </trkpt>
      <trkpt lat="45.063" lon="5.55865">
        <ele>1074.5</ele>
        <time>2021-08-31T11:47:27Z</time>
      </trkpt>
      <trkpt lat="45.06301" lon="5.55866">
        <ele>1074.4</ele>
        <time>2021-08-31T11:47:28Z</time>
      </trkpt>
      <trkpt lat="45.06302" lon="5.55869">
        <ele>1074.3</ele>
        <time>2021-08-31T11:47:30Z</time>
      </trkpt>
      <trkpt lat="45.06303" lon="5.55872">
        <ele>1074.1</ele>
        <time>2021-08-31T11:47:31Z</time>
      </trkpt>
      <trkpt lat="45.06303" lon="5.55874">
        <ele>1074</ele>
        <time>2021-08-31T11:47:33Z</time>
      </trkpt>
      <trkpt lat="45.06304" lon="5.55879">
        <ele>1073.8</ele>
        <time>2021-08-31T11:47:34Z</time>
      </trkpt>
      <trkpt lat="45.06304" lon="5.5588">
        <ele>1073.7</ele>
        <time>2021-08-31T11:47:35Z</time>
      </trkpt>
      <trkpt lat="45.06305" lon="5.55882">
        <ele>1073.6</ele>
        <time>2021-08-31T11:47:37Z</time>
      </trkpt>
      <trkpt lat="45.06305" lon="5.55883">
        <ele>1073.5</ele>
        <time>2021-08-31T11:47:38Z</time>
      </trkpt>
      <trkpt lat="45.06305" lon="5.55884">
        <ele>1073.4</ele>
        <time>2021-08-31T11:47:39Z</time>
      </trkpt>
      <trkpt lat="45.06307" lon="5.55888">
        <ele>1073.2</ele>
        <time>2021-08-31T11:47:40Z</time>
      </trkpt>
      <trkpt lat="45.06307" lon="5.55889">
        <ele>1073.2</ele>
        <time>2021-08-31T11:47:41Z</time>
      </trkpt>
      <trkpt lat="45.06307" lon="5.55892">
        <ele>1073.3</ele>
        <time>2021-08-31T11:47:43Z</time>
      </trkpt>
      <trkpt lat="45.06308" lon="5.55893">
        <ele>1073.3</ele>
        <time>2021-08-31T11:47:44Z</time>
      </trkpt>
      <trkpt lat="45.06309" lon="5.55895">
        <ele>1073.3</ele>
        <time>2021-08-31T11:47:46Z</time>
      </trkpt>
      <trkpt lat="45.06308" lon="5.55896">
        <ele>1073.3</ele>
        <time>2021-08-31T11:47:47Z</time>
      </trkpt>
      <trkpt lat="45.06308" lon="5.55898">
        <ele>1073.4</ele>
        <time>2021-08-31T11:47:48Z</time>
      </trkpt>
      <trkpt lat="45.06306" lon="5.55899">
        <ele>1073.4</ele>
        <time>2021-08-31T11:47:49Z</time>
      </trkpt>
      <trkpt lat="45.06306" lon="5.55898">
        <ele>1073.4</ele>
        <time>2021-08-31T11:47:51Z</time>
      </trkpt>
      <trkpt lat="45.06306" lon="5.55898">
        <ele>1073.4</ele>
        <time>2021-08-31T11:47:53Z</time>
      </trkpt>
      <trkpt lat="45.06306" lon="5.55897">
        <ele>1073.5</ele>
        <time>2021-08-31T11:47:54Z</time>
      </trkpt>
      <trkpt lat="45.06305" lon="5.55897">
        <ele>1073.5</ele>
        <time>2021-08-31T11:47:56Z</time>
      </trkpt>
      <trkpt lat="45.06305" lon="5.55897">
        <ele>1073.5</ele>
        <time>2021-08-31T11:47:58Z</time>
      </trkpt>
      <trkpt lat="45.06305" lon="5.55896">
        <ele>1073.5</ele>
        <time>2021-08-31T11:47:59Z</time>
      </trkpt>
      <trkpt lat="45.06304" lon="5.55896">
        <ele>1073.5</ele>
        <time>2021-08-31T11:48:00Z</time>
      </trkpt>
      <trkpt lat="45.06304" lon="5.55895">
        <ele>1073.5</ele>
        <time>2021-08-31T11:48:02Z</time>
      </trkpt>
      <trkpt lat="45.06304" lon="5.55895">
        <ele>1073.5</ele>
        <time>2021-08-31T11:48:03Z</time>
      </trkpt>
      <trkpt lat="45.06304" lon="5.55894">
        <ele>1073.5</ele>
        <time>2021-08-31T11:48:57Z</time>
      </trkpt>
      <trkpt lat="45.06303" lon="5.55894">
        <ele>1073.5</ele>
        <time>2021-08-31T11:48:58Z</time>
      </trkpt>
      <trkpt lat="45.06302" lon="5.55881">
        <ele>1073.8</ele>
        <time>2021-08-31T11:49:00Z</time>
      </trkpt>
      <trkpt lat="45.063" lon="5.55869">
        <ele>1073.6</ele>
        <time>2021-08-31T11:49:02Z</time>
      </trkpt>
      <trkpt lat="45.06297" lon="5.55861">
        <ele>1073.3</ele>
        <time>2021-08-31T11:49:04Z</time>
      </trkpt>
      <trkpt lat="45.06295" lon="5.55857">
        <ele>1073.1</ele>
        <time>2021-08-31T11:49:05Z</time>
      </trkpt>
      <trkpt lat="45.06294" lon="5.55854">
        <ele>1072.9</ele>
        <time>2021-08-31T11:49:06Z</time>
      </trkpt>
      <trkpt lat="45.06296" lon="5.55849">
        <ele>1072.7</ele>
        <time>2021-08-31T11:49:08Z</time>
      </trkpt>
      <trkpt lat="45.06297" lon="5.55844">
        <ele>1072.5</ele>
        <time>2021-08-31T11:49:10Z</time>
      </trkpt>
      <trkpt lat="45.06301" lon="5.55843">
        <ele>1072.4</ele>
        <time>2021-08-31T11:49:12Z</time>
      </trkpt>
      <trkpt lat="45.06302" lon="5.55844">
        <ele>1072.3</ele>
        <time>2021-08-31T11:49:13Z</time>
      </trkpt>
      <trkpt lat="45.06305" lon="5.55845">
        <ele>1072.1</ele>
        <time>2021-08-31T11:49:14Z</time>
      </trkpt>
      <trkpt lat="45.06313" lon="5.55846">
        <ele>1071.7</ele>
        <time>2021-08-31T11:49:16Z</time>
      </trkpt>
      <trkpt lat="45.06318" lon="5.55846">
        <ele>1071.4</ele>
        <time>2021-08-31T11:49:17Z</time>
      </trkpt>
      <trkpt lat="45.06323" lon="5.55844">
        <ele>1071.1</ele>
        <time>2021-08-31T11:49:18Z</time>
      </trkpt>
      <trkpt lat="45.06326" lon="5.5584">
        <ele>1070.9</ele>
        <time>2021-08-31T11:49:19Z</time>
      </trkpt>
      <trkpt lat="45.06333" lon="5.55827">
        <ele>1070.3</ele>
        <time>2021-08-31T11:49:21Z</time>
      </trkpt>
      <trkpt lat="45.0634" lon="5.55812">
        <ele>1069.7</ele>
        <time>2021-08-31T11:49:23Z</time>
      </trkpt>
      <trkpt lat="45.06342" lon="5.55804">
        <ele>1069.5</ele>
        <time>2021-08-31T11:49:24Z</time>
      </trkpt>
      <trkpt lat="45.06343" lon="5.5579">
        <ele>1069.1</ele>
        <time>2021-08-31T11:49:26Z</time>
      </trkpt>
      <trkpt lat="45.06342" lon="5.55781">
        <ele>1068.9</ele>
        <time>2021-08-31T11:49:28Z</time>
      </trkpt>
      <trkpt lat="45.0634" lon="5.55777">
        <ele>1068.8</ele>
        <time>2021-08-31T11:49:29Z</time>
      </trkpt>
      <trkpt lat="45.0634" lon="5.55773">
        <ele>1068.5</ele>
        <time>2021-08-31T11:49:30Z</time>
      </trkpt>
      <trkpt lat="45.06343" lon="5.55767">
        <ele>1068.5</ele>
        <time>2021-08-31T11:49:32Z</time>
      </trkpt>
      <trkpt lat="45.06347" lon="5.55764">
        <ele>1068.5</ele>
        <time>2021-08-31T11:49:34Z</time>
      </trkpt>
      <trkpt lat="45.06349" lon="5.55763">
        <ele>1068.5</ele>
        <time>2021-08-31T11:49:35Z</time>
      </trkpt>
      <trkpt lat="45.0635" lon="5.55763">
        <ele>1068.5</ele>
        <time>2021-08-31T11:49:36Z</time>
      </trkpt>
      <trkpt lat="45.06351" lon="5.55764">
        <ele>1068.4</ele>
        <time>2021-08-31T11:49:37Z</time>
      </trkpt>
      <trkpt lat="45.06353" lon="5.55773">
        <ele>1068.4</ele>
        <time>2021-08-31T11:49:39Z</time>
      </trkpt>
      <trkpt lat="45.06354" lon="5.55782">
        <ele>1068.3</ele>
        <time>2021-08-31T11:49:40Z</time>
      </trkpt>
      <trkpt lat="45.06354" lon="5.5579">
        <ele>1068.2</ele>
        <time>2021-08-31T11:49:42Z</time>
      </trkpt>
      <trkpt lat="45.06353" lon="5.558">
        <ele>1068</ele>
        <time>2021-08-31T11:49:44Z</time>
      </trkpt>
      <trkpt lat="45.0635" lon="5.5581">
        <ele>1067.8</ele>
        <time>2021-08-31T11:49:46Z</time>
      </trkpt>
      <trkpt lat="45.06349" lon="5.5582">
        <ele>1067.6</ele>
        <time>2021-08-31T11:49:48Z</time>
      </trkpt>
      <trkpt lat="45.06348" lon="5.55826">
        <ele>1067.5</ele>
        <time>2021-08-31T11:49:49Z</time>
      </trkpt>
      <trkpt lat="45.06347" lon="5.55832">
        <ele>1067.4</ele>
        <time>2021-08-31T11:49:50Z</time>
      </trkpt>
      <trkpt lat="45.06347" lon="5.55839">
        <ele>1067.3</ele>
        <time>2021-08-31T11:49:51Z</time>
      </trkpt>
      <trkpt lat="45.06344" lon="5.55852">
        <ele>1067.1</ele>
        <time>2021-08-31T11:49:53Z</time>
      </trkpt>
      <trkpt lat="45.06343" lon="5.55861">
        <ele>1066.9</ele>
        <time>2021-08-31T11:49:54Z</time>
      </trkpt>
      <trkpt lat="45.06342" lon="5.55875">
        <ele>1066.7</ele>
        <time>2021-08-31T11:49:56Z</time>
      </trkpt>
      <trkpt lat="45.06341" lon="5.55885">
        <ele>1066.5</ele>
        <time>2021-08-31T11:49:58Z</time>
      </trkpt>
      <trkpt lat="45.06341" lon="5.5589">
        <ele>1066.4</ele>
        <time>2021-08-31T11:49:59Z</time>
      </trkpt>
      <trkpt lat="45.06342" lon="5.55907">
        <ele>1066.1</ele>
        <time>2021-08-31T11:50:01Z</time>
      </trkpt>
      <trkpt lat="45.06343" lon="5.55914">
        <ele>1066</ele>
        <time>2021-08-31T11:50:02Z</time>
      </trkpt>
      <trkpt lat="45.06346" lon="5.5593">
        <ele>1065.7</ele>
        <time>2021-08-31T11:50:04Z</time>
      </trkpt>
      <trkpt lat="45.06346" lon="5.5594">
        <ele>1065.4</ele>
        <time>2021-08-31T11:50:06Z</time>
      </trkpt>
      <trkpt lat="45.06348" lon="5.55953">
        <ele>1065.2</ele>
        <time>2021-08-31T11:50:08Z</time>
      </trkpt>
      <trkpt lat="45.06352" lon="5.55965">
        <ele>1064.9</ele>
        <time>2021-08-31T11:50:10Z</time>
      </trkpt>
      <trkpt lat="45.06353" lon="5.55969">
        <ele>1064.8</ele>
        <time>2021-08-31T11:50:11Z</time>
      </trkpt>
      <trkpt lat="45.06355" lon="5.55973">
        <ele>1064.7</ele>
        <time>2021-08-31T11:50:12Z</time>
      </trkpt>
      <trkpt lat="45.06357" lon="5.55977">
        <ele>1064.6</ele>
        <time>2021-08-31T11:50:13Z</time>
      </trkpt>
      <trkpt lat="45.06358" lon="5.55984">
        <ele>1064.4</ele>
        <time>2021-08-31T11:50:15Z</time>
      </trkpt>
      <trkpt lat="45.06359" lon="5.55988">
        <ele>1064.3</ele>
        <time>2021-08-31T11:50:17Z</time>
      </trkpt>
      <trkpt lat="45.06359" lon="5.55988">
        <ele>1064.3</ele>
        <time>2021-08-31T11:50:18Z</time>
      </trkpt>
      <trkpt lat="45.06359" lon="5.55987">
        <ele>1064.3</ele>
        <time>2021-08-31T11:50:20Z</time>
      </trkpt>
      <trkpt lat="45.06359" lon="5.55988">
        <ele>1064.3</ele>
        <time>2021-08-31T11:50:22Z</time>
      </trkpt>
      <trkpt lat="45.06359" lon="5.55988">
        <ele>1064.3</ele>
        <time>2021-08-31T11:50:23Z</time>
      </trkpt>
      <trkpt lat="45.0636" lon="5.5599">
        <ele>1064.2</ele>
        <time>2021-08-31T11:50:24Z</time>
      </trkpt>
      <trkpt lat="45.0636" lon="5.55991">
        <ele>1064.2</ele>
        <time>2021-08-31T11:50:25Z</time>
      </trkpt>
      <trkpt lat="45.06362" lon="5.55997">
        <ele>1064</ele>
        <time>2021-08-31T11:50:27Z</time>
      </trkpt>
      <trkpt lat="45.06365" lon="5.56005">
        <ele>1063.7</ele>
        <time>2021-08-31T11:50:29Z</time>
      </trkpt>
      <trkpt lat="45.06374" lon="5.56023">
        <ele>1062.5</ele>
        <time>2021-08-31T11:50:30Z</time>
      </trkpt>
      <trkpt lat="45.0638" lon="5.5604">
        <ele>1061.3</ele>
        <time>2021-08-31T11:50:32Z</time>
      </trkpt>
      <trkpt lat="45.06386" lon="5.56054">
        <ele>1060.5</ele>
        <time>2021-08-31T11:50:34Z</time>
      </trkpt>
      <trkpt lat="45.06389" lon="5.56061">
        <ele>1060</ele>
        <time>2021-08-31T11:50:35Z</time>
      </trkpt>
      <trkpt lat="45.06392" lon="5.56067">
        <ele>1059.6</ele>
        <time>2021-08-31T11:50:36Z</time>
      </trkpt>
      <trkpt lat="45.06399" lon="5.56077">
        <ele>1059</ele>
        <time>2021-08-31T11:50:38Z</time>
      </trkpt>
      <trkpt lat="45.06408" lon="5.56086">
        <ele>1058.4</ele>
        <time>2021-08-31T11:50:40Z</time>
      </trkpt>
      <trkpt lat="45.0642" lon="5.56092">
        <ele>1057.6</ele>
        <time>2021-08-31T11:50:42Z</time>
      </trkpt>
      <trkpt lat="45.06431" lon="5.56089">
        <ele>1056.9</ele>
        <time>2021-08-31T11:50:44Z</time>
      </trkpt>
      <trkpt lat="45.06442" lon="5.5608">
        <ele>1055.9</ele>
        <time>2021-08-31T11:50:46Z</time>
      </trkpt>
      <trkpt lat="45.06448" lon="5.56075">
        <ele>1055.4</ele>
        <time>2021-08-31T11:50:47Z</time>
      </trkpt>
      <trkpt lat="45.06452" lon="5.56068">
        <ele>1054.8</ele>
        <time>2021-08-31T11:50:48Z</time>
      </trkpt>
      <trkpt lat="45.0646" lon="5.56055">
        <ele>1053.9</ele>
        <time>2021-08-31T11:50:50Z</time>
      </trkpt>
      <trkpt lat="45.06467" lon="5.56038">
        <ele>1052.9</ele>
        <time>2021-08-31T11:50:52Z</time>
      </trkpt>
      <trkpt lat="45.06472" lon="5.5602">
        <ele>1052.1</ele>
        <time>2021-08-31T11:50:54Z</time>
      </trkpt>
      <trkpt lat="45.06477" lon="5.56">
        <ele>1051.3</ele>
        <time>2021-08-31T11:50:56Z</time>
      </trkpt>
      <trkpt lat="45.0648" lon="5.55979">
        <ele>1050.7</ele>
        <time>2021-08-31T11:50:58Z</time>
      </trkpt>
      <trkpt lat="45.06482" lon="5.5597">
        <ele>1050.5</ele>
        <time>2021-08-31T11:50:59Z</time>
      </trkpt>
      <trkpt lat="45.06487" lon="5.55953">
        <ele>1050</ele>
        <time>2021-08-31T11:51:01Z</time>
      </trkpt>
      <trkpt lat="45.0649" lon="5.55944">
        <ele>1049.8</ele>
        <time>2021-08-31T11:51:02Z</time>
      </trkpt>
      <trkpt lat="45.06496" lon="5.55926">
        <ele>1049.4</ele>
        <time>2021-08-31T11:51:04Z</time>
      </trkpt>
      <trkpt lat="45.065" lon="5.55918">
        <ele>1049.2</ele>
        <time>2021-08-31T11:51:05Z</time>
      </trkpt>
      <trkpt lat="45.06504" lon="5.55912">
        <ele>1049</ele>
        <time>2021-08-31T11:51:06Z</time>
      </trkpt>
      <trkpt lat="45.06513" lon="5.55904">
        <ele>1048.7</ele>
        <time>2021-08-31T11:51:08Z</time>
      </trkpt>
      <trkpt lat="45.06526" lon="5.55897">
        <ele>1048.2</ele>
        <time>2021-08-31T11:51:10Z</time>
      </trkpt>
      <trkpt lat="45.06532" lon="5.55894">
        <ele>1047.8</ele>
        <time>2021-08-31T11:51:11Z</time>
      </trkpt>
      <trkpt lat="45.06546" lon="5.55891">
        <ele>1046.9</ele>
        <time>2021-08-31T11:51:13Z</time>
      </trkpt>
      <trkpt lat="45.06553" lon="5.5589">
        <ele>1046.5</ele>
        <time>2021-08-31T11:51:14Z</time>
      </trkpt>
      <trkpt lat="45.06566" lon="5.55891">
        <ele>1045.7</ele>
        <time>2021-08-31T11:51:16Z</time>
      </trkpt>
      <trkpt lat="45.06574" lon="5.55892">
        <ele>1045.2</ele>
        <time>2021-08-31T11:51:17Z</time>
      </trkpt>
      <trkpt lat="45.06582" lon="5.55893">
        <ele>1044.7</ele>
        <time>2021-08-31T11:51:18Z</time>
      </trkpt>
      <trkpt lat="45.0659" lon="5.55894">
        <ele>1044.3</ele>
        <time>2021-08-31T11:51:19Z</time>
      </trkpt>
      <trkpt lat="45.06598" lon="5.55893">
        <ele>1043.8</ele>
        <time>2021-08-31T11:51:20Z</time>
      </trkpt>
      <trkpt lat="45.06614" lon="5.55889">
        <ele>1042.9</ele>
        <time>2021-08-31T11:51:22Z</time>
      </trkpt>
      <trkpt lat="45.06627" lon="5.55881">
        <ele>1042.1</ele>
        <time>2021-08-31T11:51:24Z</time>
      </trkpt>
      <trkpt lat="45.06632" lon="5.55875">
        <ele>1041.7</ele>
        <time>2021-08-31T11:51:25Z</time>
      </trkpt>
      <trkpt lat="45.06636" lon="5.5587">
        <ele>1041.3</ele>
        <time>2021-08-31T11:51:26Z</time>
      </trkpt>
      <trkpt lat="45.0664" lon="5.55864">
        <ele>1040.9</ele>
        <time>2021-08-31T11:51:27Z</time>
      </trkpt>
      <trkpt lat="45.06644" lon="5.55859">
        <ele>1040.6</ele>
        <time>2021-08-31T11:51:28Z</time>
      </trkpt>
      <trkpt lat="45.06647" lon="5.55853">
        <ele>1040.2</ele>
        <time>2021-08-31T11:51:29Z</time>
      </trkpt>
      <trkpt lat="45.06651" lon="5.55849">
        <ele>1039.9</ele>
        <time>2021-08-31T11:51:30Z</time>
      </trkpt>
      <trkpt lat="45.06661" lon="5.55844">
        <ele>1039.1</ele>
        <time>2021-08-31T11:51:32Z</time>
      </trkpt>
      <trkpt lat="45.0667" lon="5.55836">
        <ele>1038.3</ele>
        <time>2021-08-31T11:51:34Z</time>
      </trkpt>
      <trkpt lat="45.06681" lon="5.55827">
        <ele>1037.4</ele>
        <time>2021-08-31T11:51:36Z</time>
      </trkpt>
      <trkpt lat="45.06693" lon="5.55819">
        <ele>1036.6</ele>
        <time>2021-08-31T11:51:38Z</time>
      </trkpt>
      <trkpt lat="45.06704" lon="5.55811">
        <ele>1036.2</ele>
        <time>2021-08-31T11:51:40Z</time>
      </trkpt>
      <trkpt lat="45.06709" lon="5.55806">
        <ele>1036</ele>
        <time>2021-08-31T11:51:41Z</time>
      </trkpt>
      <trkpt lat="45.06713" lon="5.55803">
        <ele>1035.9</ele>
        <time>2021-08-31T11:51:42Z</time>
      </trkpt>
      <trkpt lat="45.06719" lon="5.55799">
        <ele>1035.9</ele>
        <time>2021-08-31T11:51:44Z</time>
      </trkpt>
      <trkpt lat="45.06723" lon="5.55797">
        <ele>1036</ele>
        <time>2021-08-31T11:51:46Z</time>
      </trkpt>
      <trkpt lat="45.06726" lon="5.55796">
        <ele>1036.1</ele>
        <time>2021-08-31T11:51:48Z</time>
      </trkpt>
      <trkpt lat="45.06727" lon="5.55795">
        <ele>1036.1</ele>
        <time>2021-08-31T11:51:49Z</time>
      </trkpt>
      <trkpt lat="45.06729" lon="5.55794">
        <ele>1036.1</ele>
        <time>2021-08-31T11:51:50Z</time>
      </trkpt>
      <trkpt lat="45.0673" lon="5.55792">
        <ele>1036.2</ele>
        <time>2021-08-31T11:51:51Z</time>
      </trkpt>
      <trkpt lat="45.06732" lon="5.55792">
        <ele>1036.5</ele>
        <time>2021-08-31T11:51:53Z</time>
      </trkpt>
      <trkpt lat="45.06733" lon="5.55791">
        <ele>1036.4</ele>
        <time>2021-08-31T11:51:54Z</time>
      </trkpt>
      <trkpt lat="45.06735" lon="5.5579">
        <ele>1036.3</ele>
        <time>2021-08-31T11:51:56Z</time>
      </trkpt>
      <trkpt lat="45.06734" lon="5.55789">
        <ele>1036.2</ele>
        <time>2021-08-31T11:51:58Z</time>
      </trkpt>
      <trkpt lat="45.06732" lon="5.55787">
        <ele>1036</ele>
        <time>2021-08-31T11:51:59Z</time>
      </trkpt>
      <trkpt lat="45.0673" lon="5.55785">
        <ele>1035.9</ele>
        <time>2021-08-31T11:52:01Z</time>
      </trkpt>
      <trkpt lat="45.06728" lon="5.55784">
        <ele>1035.8</ele>
        <time>2021-08-31T11:52:02Z</time>
      </trkpt>
      <trkpt lat="45.06726" lon="5.55782">
        <ele>1035.7</ele>
        <time>2021-08-31T11:52:04Z</time>
      </trkpt>
      <trkpt lat="45.06724" lon="5.5578">
        <ele>1035.5</ele>
        <time>2021-08-31T11:52:05Z</time>
      </trkpt>
      <trkpt lat="45.06722" lon="5.55778">
        <ele>1035.4</ele>
        <time>2021-08-31T11:52:07Z</time>
      </trkpt>
      <trkpt lat="45.0672" lon="5.55777">
        <ele>1035.2</ele>
        <time>2021-08-31T11:52:49Z</time>
      </trkpt>
      <trkpt lat="45.06718" lon="5.55775">
        <ele>1035.1</ele>
        <time>2021-08-31T11:52:50Z</time>
      </trkpt>
      <trkpt lat="45.06687" lon="5.5575">
        <ele>1032.7</ele>
        <time>2021-08-31T11:52:52Z</time>
      </trkpt>
      <trkpt lat="45.06684" lon="5.55748">
        <ele>1032.4</ele>
        <time>2021-08-31T11:52:53Z</time>
      </trkpt>
      <trkpt lat="45.06677" lon="5.55743">
        <ele>1031.7</ele>
        <time>2021-08-31T11:52:54Z</time>
      </trkpt>
      <trkpt lat="45.06663" lon="5.55739">
        <ele>1030.5</ele>
        <time>2021-08-31T11:52:56Z</time>
      </trkpt>
      <trkpt lat="45.06658" lon="5.55738">
        <ele>1030.1</ele>
        <time>2021-08-31T11:52:57Z</time>
      </trkpt>
      <trkpt lat="45.0665" lon="5.55735">
        <ele>1029.4</ele>
        <time>2021-08-31T11:52:59Z</time>
      </trkpt>
      <trkpt lat="45.06648" lon="5.55733">
        <ele>1029.2</ele>
        <time>2021-08-31T11:53:01Z</time>
      </trkpt>
      <trkpt lat="45.06647" lon="5.55732">
        <ele>1029.1</ele>
        <time>2021-08-31T11:53:02Z</time>
      </trkpt>
      <trkpt lat="45.06646" lon="5.55731">
        <ele>1029</ele>
        <time>2021-08-31T11:53:03Z</time>
      </trkpt>
      <trkpt lat="45.06643" lon="5.55727">
        <ele>1028.7</ele>
        <time>2021-08-31T11:53:04Z</time>
      </trkpt>
      <trkpt lat="45.06641" lon="5.55723">
        <ele>1028.4</ele>
        <time>2021-08-31T11:53:06Z</time>
      </trkpt>
      <trkpt lat="45.0664" lon="5.55709">
        <ele>1027.7</ele>
        <time>2021-08-31T11:53:08Z</time>
      </trkpt>
      <trkpt lat="45.0664" lon="5.55689">
        <ele>1026.5</ele>
        <time>2021-08-31T11:53:10Z</time>
      </trkpt>
      <trkpt lat="45.06641" lon="5.55677">
        <ele>1025.8</ele>
        <time>2021-08-31T11:53:11Z</time>
      </trkpt>
      <trkpt lat="45.06648" lon="5.55653">
        <ele>1024</ele>
        <time>2021-08-31T11:53:13Z</time>
      </trkpt>
      <trkpt lat="45.06654" lon="5.55643">
        <ele>1023</ele>
        <time>2021-08-31T11:53:14Z</time>
      </trkpt>
      <trkpt lat="45.0667" lon="5.55624">
        <ele>1020.9</ele>
        <time>2021-08-31T11:53:16Z</time>
      </trkpt>
      <trkpt lat="45.06678" lon="5.55614">
        <ele>1019.8</ele>
        <time>2021-08-31T11:53:17Z</time>
      </trkpt>
      <trkpt lat="45.06686" lon="5.55604">
        <ele>1018.7</ele>
        <time>2021-08-31T11:53:18Z</time>
      </trkpt>
      <trkpt lat="45.06693" lon="5.55593">
        <ele>1017.7</ele>
        <time>2021-08-31T11:53:19Z</time>
      </trkpt>
      <trkpt lat="45.067" lon="5.55581">
        <ele>1016.7</ele>
        <time>2021-08-31T11:53:20Z</time>
      </trkpt>
      <trkpt lat="45.06713" lon="5.55557">
        <ele>1014.6</ele>
        <time>2021-08-31T11:53:22Z</time>
      </trkpt>
      <trkpt lat="45.06719" lon="5.55544">
        <ele>1013.6</ele>
        <time>2021-08-31T11:53:23Z</time>
      </trkpt>
      <trkpt lat="45.06726" lon="5.55532">
        <ele>1012.5</ele>
        <time>2021-08-31T11:53:24Z</time>
      </trkpt>
      <trkpt lat="45.06738" lon="5.55504">
        <ele>1010.4</ele>
        <time>2021-08-31T11:53:26Z</time>
      </trkpt>
      <trkpt lat="45.0675" lon="5.55475">
        <ele>1008.4</ele>
        <time>2021-08-31T11:53:28Z</time>
      </trkpt>
      <trkpt lat="45.06761" lon="5.55446">
        <ele>1006.7</ele>
        <time>2021-08-31T11:53:30Z</time>
      </trkpt>
      <trkpt lat="45.06772" lon="5.5542">
        <ele>1005.4</ele>
        <time>2021-08-31T11:53:32Z</time>
      </trkpt>
      <trkpt lat="45.06776" lon="5.55408">
        <ele>1004.9</ele>
        <time>2021-08-31T11:53:33Z</time>
      </trkpt>
      <trkpt lat="45.06783" lon="5.55385">
        <ele>1004</ele>
        <time>2021-08-31T11:53:35Z</time>
      </trkpt>
      <trkpt lat="45.06786" lon="5.55375">
        <ele>1003.6</ele>
        <time>2021-08-31T11:53:36Z</time>
      </trkpt>
      <trkpt lat="45.06791" lon="5.55355">
        <ele>1003.6</ele>
        <time>2021-08-31T11:53:38Z</time>
      </trkpt>
      <trkpt lat="45.06793" lon="5.55338">
        <ele>1003.5</ele>
        <time>2021-08-31T11:53:40Z</time>
      </trkpt>
      <trkpt lat="45.06793" lon="5.5533">
        <ele>1003.5</ele>
        <time>2021-08-31T11:53:41Z</time>
      </trkpt>
      <trkpt lat="45.06794" lon="5.55324">
        <ele>1003.4</ele>
        <time>2021-08-31T11:53:42Z</time>
      </trkpt>
      <trkpt lat="45.06794" lon="5.55319">
        <ele>1003.4</ele>
        <time>2021-08-31T11:53:43Z</time>
      </trkpt>
      <trkpt lat="45.06794" lon="5.55315">
        <ele>1003.4</ele>
        <time>2021-08-31T11:53:44Z</time>
      </trkpt>
      <trkpt lat="45.06792" lon="5.55309">
        <ele>1003.4</ele>
        <time>2021-08-31T11:53:46Z</time>
      </trkpt>
      <trkpt lat="45.0679" lon="5.55306">
        <ele>1003.3</ele>
        <time>2021-08-31T11:53:47Z</time>
      </trkpt>
      <trkpt lat="45.06784" lon="5.55298">
        <ele>1002.9</ele>
        <time>2021-08-31T11:53:49Z</time>
      </trkpt>
      <trkpt lat="45.06781" lon="5.55295">
        <ele>1002.7</ele>
        <time>2021-08-31T11:53:50Z</time>
      </trkpt>
      <trkpt lat="45.06777" lon="5.55291">
        <ele>1002.6</ele>
        <time>2021-08-31T11:53:51Z</time>
      </trkpt>
      <trkpt lat="45.0677" lon="5.55281">
        <ele>1002.2</ele>
        <time>2021-08-31T11:53:53Z</time>
      </trkpt>
      <trkpt lat="45.06768" lon="5.55276">
        <ele>1002</ele>
        <time>2021-08-31T11:53:54Z</time>
      </trkpt>
      <trkpt lat="45.06763" lon="5.55265">
        <ele>1001.7</ele>
        <time>2021-08-31T11:53:56Z</time>
      </trkpt>
      <trkpt lat="45.06763" lon="5.5526">
        <ele>1001.6</ele>
        <time>2021-08-31T11:53:58Z</time>
      </trkpt>
      <trkpt lat="45.06763" lon="5.55259">
        <ele>1001.6</ele>
        <time>2021-08-31T11:53:59Z</time>
      </trkpt>
      <trkpt lat="45.06761" lon="5.55254">
        <ele>1001.4</ele>
        <time>2021-08-31T11:54:00Z</time>
      </trkpt>
      <trkpt lat="45.0676" lon="5.55249">
        <ele>1001.3</ele>
        <time>2021-08-31T11:54:02Z</time>
      </trkpt>
      <trkpt lat="45.06761" lon="5.55245">
        <ele>1001.2</ele>
        <time>2021-08-31T11:54:03Z</time>
      </trkpt>
      <trkpt lat="45.06762" lon="5.55243">
        <ele>1001.1</ele>
        <time>2021-08-31T11:54:04Z</time>
      </trkpt>
      <trkpt lat="45.06763" lon="5.55239">
        <ele>1001</ele>
        <time>2021-08-31T11:54:05Z</time>
      </trkpt>
      <trkpt lat="45.06765" lon="5.55234">
        <ele>1000.9</ele>
        <time>2021-08-31T11:54:07Z</time>
      </trkpt>
      <trkpt lat="45.06765" lon="5.55233">
        <ele>1000.8</ele>
        <time>2021-08-31T11:54:08Z</time>
      </trkpt>
      <trkpt lat="45.06765" lon="5.5523">
        <ele>1000.8</ele>
        <time>2021-08-31T11:54:09Z</time>
      </trkpt>
      <trkpt lat="45.06764" lon="5.55231">
        <ele>1000.7</ele>
        <time>2021-08-31T11:54:11Z</time>
      </trkpt>
      <trkpt lat="45.06763" lon="5.55231">
        <ele>1000.7</ele>
        <time>2021-08-31T11:54:12Z</time>
      </trkpt>
      <trkpt lat="45.06762" lon="5.55232">
        <ele>1000.7</ele>
        <time>2021-08-31T11:54:13Z</time>
      </trkpt>
      <trkpt lat="45.06762" lon="5.55232">
        <ele>1000.7</ele>
        <time>2021-08-31T11:54:15Z</time>
      </trkpt>
      <trkpt lat="45.06761" lon="5.55232">
        <ele>1000.6</ele>
        <time>2021-08-31T11:54:17Z</time>
      </trkpt>
      <trkpt lat="45.0676" lon="5.55233">
        <ele>1000.6</ele>
        <time>2021-08-31T11:54:18Z</time>
      </trkpt>
      <trkpt lat="45.0676" lon="5.55233">
        <ele>1000.6</ele>
        <time>2021-08-31T11:54:19Z</time>
      </trkpt>
      <trkpt lat="45.06759" lon="5.55234">
        <ele>1000.5</ele>
        <time>2021-08-31T11:54:55Z</time>
      </trkpt>
      <trkpt lat="45.06758" lon="5.55234">
        <ele>1000.5</ele>
        <time>2021-08-31T11:54:56Z</time>
      </trkpt>
      <trkpt lat="45.06758" lon="5.55235">
        <ele>1000.5</ele>
        <time>2021-08-31T11:54:57Z</time>
      </trkpt>
      <trkpt lat="45.06755" lon="5.55233">
        <ele>1000.3</ele>
        <time>2021-08-31T11:54:58Z</time>
      </trkpt>
      <trkpt lat="45.06753" lon="5.55232">
        <ele>1000.3</ele>
        <time>2021-08-31T11:54:59Z</time>
      </trkpt>
      <trkpt lat="45.06747" lon="5.5523">
        <ele>1000.3</ele>
        <time>2021-08-31T11:55:00Z</time>
      </trkpt>
      <trkpt lat="45.06742" lon="5.55229">
        <ele>1000.4</ele>
        <time>2021-08-31T11:55:02Z</time>
      </trkpt>
      <trkpt lat="45.06735" lon="5.55227">
        <ele>1000.6</ele>
        <time>2021-08-31T11:55:03Z</time>
      </trkpt>
      <trkpt lat="45.06731" lon="5.55227">
        <ele>1000.8</ele>
        <time>2021-08-31T11:55:05Z</time>
      </trkpt>
      <trkpt lat="45.06728" lon="5.55227">
        <ele>1000.9</ele>
        <time>2021-08-31T11:55:06Z</time>
      </trkpt>
      <trkpt lat="45.06724" lon="5.55227">
        <ele>1001</ele>
        <time>2021-08-31T11:55:08Z</time>
      </trkpt>
      <trkpt lat="45.06723" lon="5.55226">
        <ele>1001</ele>
        <time>2021-08-31T11:55:09Z</time>
      </trkpt>
      <trkpt lat="45.06722" lon="5.55226">
        <ele>1001</ele>
        <time>2021-08-31T11:55:10Z</time>
      </trkpt>
      <trkpt lat="45.06721" lon="5.55226">
        <ele>1001.1</ele>
        <time>2021-08-31T11:55:11Z</time>
      </trkpt>
      <trkpt lat="45.06719" lon="5.55227">
        <ele>1001.1</ele>
        <time>2021-08-31T11:55:13Z</time>
      </trkpt>
      <trkpt lat="45.06717" lon="5.55226">
        <ele>1001.2</ele>
        <time>2021-08-31T11:55:14Z</time>
      </trkpt>
      <trkpt lat="45.06716" lon="5.55225">
        <ele>1001.2</ele>
        <time>2021-08-31T11:55:15Z</time>
      </trkpt>
      <trkpt lat="45.06713" lon="5.55228">
        <ele>1001.3</ele>
        <time>2021-08-31T11:55:16Z</time>
      </trkpt>
      <trkpt lat="45.06712" lon="5.55229">
        <ele>1001.3</ele>
        <time>2021-08-31T11:55:17Z</time>
      </trkpt>
      <trkpt lat="45.06709" lon="5.55231">
        <ele>1001.4</ele>
        <time>2021-08-31T11:55:19Z</time>
      </trkpt>
      <trkpt lat="45.06706" lon="5.55233">
        <ele>1001.5</ele>
        <time>2021-08-31T11:55:20Z</time>
      </trkpt>
      <trkpt lat="45.06701" lon="5.55234">
        <ele>1001.6</ele>
        <time>2021-08-31T11:55:22Z</time>
      </trkpt>
      <trkpt lat="45.06697" lon="5.55235">
        <ele>1001.7</ele>
        <time>2021-08-31T11:55:23Z</time>
      </trkpt>
      <trkpt lat="45.06693" lon="5.55236">
        <ele>1001.7</ele>
        <time>2021-08-31T11:55:25Z</time>
      </trkpt>
      <trkpt lat="45.0669" lon="5.55237">
        <ele>1001.7</ele>
        <time>2021-08-31T11:55:26Z</time>
      </trkpt>
      <trkpt lat="45.06685" lon="5.55237">
        <ele>1001.7</ele>
        <time>2021-08-31T11:55:27Z</time>
      </trkpt>
      <trkpt lat="45.06681" lon="5.55235">
        <ele>1001.8</ele>
        <time>2021-08-31T11:55:28Z</time>
      </trkpt>
      <trkpt lat="45.06676" lon="5.55233">
        <ele>1001.8</ele>
        <time>2021-08-31T11:55:30Z</time>
      </trkpt>
      <trkpt lat="45.06671" lon="5.55228">
        <ele>1001.2</ele>
        <time>2021-08-31T11:55:31Z</time>
      </trkpt>
      <trkpt lat="45.06668" lon="5.55225">
        <ele>1000.7</ele>
        <time>2021-08-31T11:55:33Z</time>
      </trkpt>
      <trkpt lat="45.06664" lon="5.55224">
        <ele>1000.3</ele>
        <time>2021-08-31T11:55:34Z</time>
      </trkpt>
      <trkpt lat="45.06659" lon="5.55223">
        <ele>999.9</ele>
        <time>2021-08-31T11:55:36Z</time>
      </trkpt>
      <trkpt lat="45.06655" lon="5.55223">
        <ele>999.5</ele>
        <time>2021-08-31T11:55:37Z</time>
      </trkpt>
      <trkpt lat="45.06654" lon="5.55223">
        <ele>999.4</ele>
        <time>2021-08-31T11:55:38Z</time>
      </trkpt>
      <trkpt lat="45.06651" lon="5.55223">
        <ele>999.2</ele>
        <time>2021-08-31T11:55:40Z</time>
      </trkpt>
      <trkpt lat="45.06649" lon="5.55222">
        <ele>999</ele>
        <time>2021-08-31T11:55:41Z</time>
      </trkpt>
      <trkpt lat="45.06648" lon="5.55222">
        <ele>999</ele>
        <time>2021-08-31T11:55:42Z</time>
      </trkpt>
      <trkpt lat="45.06649" lon="5.55223">
        <ele>998.9</ele>
        <time>2021-08-31T11:55:44Z</time>
      </trkpt>
      <trkpt lat="45.06649" lon="5.55223">
        <ele>998.9</ele>
        <time>2021-08-31T11:55:46Z</time>
      </trkpt>
      <trkpt lat="45.06649" lon="5.55224">
        <ele>998.8</ele>
        <time>2021-08-31T11:55:48Z</time>
      </trkpt>
      <trkpt lat="45.06649" lon="5.55225">
        <ele>998.8</ele>
        <time>2021-08-31T11:55:50Z</time>
      </trkpt>
      <trkpt lat="45.06649" lon="5.55225">
        <ele>998.8</ele>
        <time>2021-08-31T11:55:51Z</time>
      </trkpt>
      <trkpt lat="45.06657" lon="5.55217">
        <ele>999.7</ele>
        <time>2021-08-31T11:55:57Z</time>
      </trkpt>
      <trkpt lat="45.06663" lon="5.55215">
        <ele>1000.2</ele>
        <time>2021-08-31T11:55:59Z</time>
      </trkpt>
      <trkpt lat="45.06665" lon="5.55215">
        <ele>1000.3</ele>
        <time>2021-08-31T11:56:00Z</time>
      </trkpt>
      <trkpt lat="45.0667" lon="5.55218">
        <ele>1000.8</ele>
        <time>2021-08-31T11:56:02Z</time>
      </trkpt>
      <trkpt lat="45.06674" lon="5.5522">
        <ele>1001.1</ele>
        <time>2021-08-31T11:56:03Z</time>
      </trkpt>
      <trkpt lat="45.06677" lon="5.55219">
        <ele>1001.5</ele>
        <time>2021-08-31T11:56:05Z</time>
      </trkpt>
      <trkpt lat="45.0668" lon="5.55217">
        <ele>1001.8</ele>
        <time>2021-08-31T11:56:06Z</time>
      </trkpt>
      <trkpt lat="45.06681" lon="5.55212">
        <ele>1001.7</ele>
        <time>2021-08-31T11:56:08Z</time>
      </trkpt>
      <trkpt lat="45.0668" lon="5.55209">
        <ele>1001.7</ele>
        <time>2021-08-31T11:56:09Z</time>
      </trkpt>
      <trkpt lat="45.06679" lon="5.55203">
        <ele>1001.6</ele>
        <time>2021-08-31T11:56:10Z</time>
      </trkpt>
      <trkpt lat="45.06677" lon="5.55199">
        <ele>1001.6</ele>
        <time>2021-08-31T11:56:11Z</time>
      </trkpt>
      <trkpt lat="45.06675" lon="5.55195">
        <ele>1001.6</ele>
        <time>2021-08-31T11:56:12Z</time>
      </trkpt>
      <trkpt lat="45.06672" lon="5.55187">
        <ele>1001.5</ele>
        <time>2021-08-31T11:56:14Z</time>
      </trkpt>
      <trkpt lat="45.06669" lon="5.55178">
        <ele>1001.5</ele>
        <time>2021-08-31T11:56:16Z</time>
      </trkpt>
      <trkpt lat="45.06667" lon="5.55172">
        <ele>1001.4</ele>
        <time>2021-08-31T11:56:17Z</time>
      </trkpt>
      <trkpt lat="45.06665" lon="5.55167">
        <ele>1001.4</ele>
        <time>2021-08-31T11:56:18Z</time>
      </trkpt>
      <trkpt lat="45.06663" lon="5.55159">
        <ele>1001.4</ele>
        <time>2021-08-31T11:56:20Z</time>
      </trkpt>
      <trkpt lat="45.0666" lon="5.55149">
        <ele>1001.3</ele>
        <time>2021-08-31T11:56:22Z</time>
      </trkpt>
      <trkpt lat="45.06656" lon="5.55141">
        <ele>1001.3</ele>
        <time>2021-08-31T11:56:24Z</time>
      </trkpt>
      <trkpt lat="45.06654" lon="5.55136">
        <ele>1001.3</ele>
        <time>2021-08-31T11:56:25Z</time>
      </trkpt>
      <trkpt lat="45.06653" lon="5.55132">
        <ele>1001.3</ele>
        <time>2021-08-31T11:56:26Z</time>
      </trkpt>
      <trkpt lat="45.06651" lon="5.55124">
        <ele>1001.3</ele>
        <time>2021-08-31T11:56:28Z</time>
      </trkpt>
      <trkpt lat="45.06648" lon="5.55117">
        <ele>1001.3</ele>
        <time>2021-08-31T11:56:30Z</time>
      </trkpt>
      <trkpt lat="45.06646" lon="5.55113">
        <ele>1001.3</ele>
        <time>2021-08-31T11:56:31Z</time>
      </trkpt>
      <trkpt lat="45.06645" lon="5.55109">
        <ele>1001.3</ele>
        <time>2021-08-31T11:56:32Z</time>
      </trkpt>
      <trkpt lat="45.06643" lon="5.55104">
        <ele>1001.3</ele>
        <time>2021-08-31T11:56:33Z</time>
      </trkpt>
      <trkpt lat="45.0664" lon="5.55096">
        <ele>1001.4</ele>
        <time>2021-08-31T11:56:35Z</time>
      </trkpt>
      <trkpt lat="45.06637" lon="5.55086">
        <ele>1001.5</ele>
        <time>2021-08-31T11:56:37Z</time>
      </trkpt>
      <trkpt lat="45.06636" lon="5.55081">
        <ele>1001.6</ele>
        <time>2021-08-31T11:56:38Z</time>
      </trkpt>
      <trkpt lat="45.06635" lon="5.55077">
        <ele>1001.7</ele>
        <time>2021-08-31T11:56:39Z</time>
      </trkpt>
      <trkpt lat="45.06634" lon="5.55072">
        <ele>1001.8</ele>
        <time>2021-08-31T11:56:41Z</time>
      </trkpt>
      <trkpt lat="45.06633" lon="5.55067">
        <ele>1001.8</ele>
        <time>2021-08-31T11:56:42Z</time>
      </trkpt>
      <trkpt lat="45.06633" lon="5.55066">
        <ele>1001.9</ele>
        <time>2021-08-31T11:56:43Z</time>
      </trkpt>
      <trkpt lat="45.06634" lon="5.55061">
        <ele>1002</ele>
        <time>2021-08-31T11:56:44Z</time>
      </trkpt>
      <trkpt lat="45.06634" lon="5.55059">
        <ele>1002</ele>
        <time>2021-08-31T11:56:45Z</time>
      </trkpt>
      <trkpt lat="45.06635" lon="5.55053">
        <ele>1002.3</ele>
        <time>2021-08-31T11:56:47Z</time>
      </trkpt>
      <trkpt lat="45.06636" lon="5.55051">
        <ele>1002.4</ele>
        <time>2021-08-31T11:56:48Z</time>
      </trkpt>
      <trkpt lat="45.06637" lon="5.55049">
        <ele>1002.5</ele>
        <time>2021-08-31T11:56:49Z</time>
      </trkpt>
      <trkpt lat="45.06637" lon="5.55042">
        <ele>1002.8</ele>
        <time>2021-08-31T11:56:51Z</time>
      </trkpt>
      <trkpt lat="45.06637" lon="5.55039">
        <ele>1002.9</ele>
        <time>2021-08-31T11:56:52Z</time>
      </trkpt>
      <trkpt lat="45.06637" lon="5.55037">
        <ele>1003</ele>
        <time>2021-08-31T11:56:53Z</time>
      </trkpt>
      <trkpt lat="45.06637" lon="5.55033">
        <ele>1003.1</ele>
        <time>2021-08-31T11:56:54Z</time>
      </trkpt>
      <trkpt lat="45.06636" lon="5.55027">
        <ele>1003.3</ele>
        <time>2021-08-31T11:56:56Z</time>
      </trkpt>
      <trkpt lat="45.06635" lon="5.55023">
        <ele>1003.5</ele>
        <time>2021-08-31T11:56:57Z</time>
      </trkpt>
      <trkpt lat="45.06635" lon="5.55021">
        <ele>1003.5</ele>
        <time>2021-08-31T11:56:58Z</time>
      </trkpt>
      <trkpt lat="45.06634" lon="5.55015">
        <ele>1003.8</ele>
        <time>2021-08-31T11:57:00Z</time>
      </trkpt>
      <trkpt lat="45.06633" lon="5.55011">
        <ele>1004</ele>
        <time>2021-08-31T11:57:01Z</time>
      </trkpt>
      <trkpt lat="45.06632" lon="5.55007">
        <ele>1004.2</ele>
        <time>2021-08-31T11:57:02Z</time>
      </trkpt>
      <trkpt lat="45.06631" lon="5.55006">
        <ele>1004.2</ele>
        <time>2021-08-31T11:57:03Z</time>
      </trkpt>
      <trkpt lat="45.06631" lon="5.55003">
        <ele>1004.4</ele>
        <time>2021-08-31T11:57:05Z</time>
      </trkpt>
      <trkpt lat="45.0663" lon="5.54998">
        <ele>1004.6</ele>
        <time>2021-08-31T11:57:07Z</time>
      </trkpt>
      <trkpt lat="45.06629" lon="5.54995">
        <ele>1004.8</ele>
        <time>2021-08-31T11:57:08Z</time>
      </trkpt>
      <trkpt lat="45.06628" lon="5.54991">
        <ele>1005</ele>
        <time>2021-08-31T11:57:10Z</time>
      </trkpt>
      <trkpt lat="45.06627" lon="5.54985">
        <ele>1005.3</ele>
        <time>2021-08-31T11:57:12Z</time>
      </trkpt>
      <trkpt lat="45.06627" lon="5.54983">
        <ele>1005.4</ele>
        <time>2021-08-31T11:57:13Z</time>
      </trkpt>
      <trkpt lat="45.06627" lon="5.54981">
        <ele>1005.5</ele>
        <time>2021-08-31T11:57:14Z</time>
      </trkpt>
      <trkpt lat="45.06626" lon="5.54978">
        <ele>1005.6</ele>
        <time>2021-08-31T11:57:15Z</time>
      </trkpt>
      <trkpt lat="45.06626" lon="5.54974">
        <ele>1005.8</ele>
        <time>2021-08-31T11:57:17Z</time>
      </trkpt>
      <trkpt lat="45.06626" lon="5.54971">
        <ele>1006</ele>
        <time>2021-08-31T11:57:18Z</time>
      </trkpt>
      <trkpt lat="45.06625" lon="5.54968">
        <ele>1006.2</ele>
        <time>2021-08-31T11:57:20Z</time>
      </trkpt>
      <trkpt lat="45.06623" lon="5.54963">
        <ele>1006.5</ele>
        <time>2021-08-31T11:57:22Z</time>
      </trkpt>
      <trkpt lat="45.06622" lon="5.5496">
        <ele>1006.7</ele>
        <time>2021-08-31T11:57:23Z</time>
      </trkpt>
      <trkpt lat="45.0662" lon="5.54959">
        <ele>1007</ele>
        <time>2021-08-31T11:57:24Z</time>
      </trkpt>
      <trkpt lat="45.06619" lon="5.54955">
        <ele>1007.3</ele>
        <time>2021-08-31T11:57:26Z</time>
      </trkpt>
      <trkpt lat="45.06619" lon="5.54954">
        <ele>1007.4</ele>
        <time>2021-08-31T11:57:27Z</time>
      </trkpt>
      <trkpt lat="45.06618" lon="5.54953">
        <ele>1007.6</ele>
        <time>2021-08-31T11:57:28Z</time>
      </trkpt>
      <trkpt lat="45.06616" lon="5.54951">
        <ele>1007.8</ele>
        <time>2021-08-31T11:57:30Z</time>
      </trkpt>
      <trkpt lat="45.06615" lon="5.5495">
        <ele>1008</ele>
        <time>2021-08-31T11:57:31Z</time>
      </trkpt>
      <trkpt lat="45.06615" lon="5.54949">
        <ele>1008.1</ele>
        <time>2021-08-31T11:57:33Z</time>
      </trkpt>
      <trkpt lat="45.06615" lon="5.54949">
        <ele>1008.1</ele>
        <time>2021-08-31T11:57:34Z</time>
      </trkpt>
      <trkpt lat="45.06615" lon="5.54949">
        <ele>1008.1</ele>
        <time>2021-08-31T11:57:35Z</time>
      </trkpt>
      <trkpt lat="45.06614" lon="5.54949">
        <ele>1008.1</ele>
        <time>2021-08-31T11:57:37Z</time>
      </trkpt>
      <trkpt lat="45.06614" lon="5.54949">
        <ele>1008.2</ele>
        <time>2021-08-31T11:57:38Z</time>
      </trkpt>
      <trkpt lat="45.06614" lon="5.54948">
        <ele>1008.2</ele>
        <time>2021-08-31T11:57:39Z</time>
      </trkpt>
      <trkpt lat="45.06613" lon="5.54947">
        <ele>1008.3</ele>
        <time>2021-08-31T11:57:40Z</time>
      </trkpt>
      <trkpt lat="45.06613" lon="5.54947">
        <ele>1008.4</ele>
        <time>2021-08-31T11:57:42Z</time>
      </trkpt>
      <trkpt lat="45.06605" lon="5.54942">
        <ele>1009.4</ele>
        <time>2021-08-31T11:57:51Z</time>
      </trkpt>
      <trkpt lat="45.06601" lon="5.54942">
        <ele>1009.9</ele>
        <time>2021-08-31T11:57:52Z</time>
      </trkpt>
      <trkpt lat="45.06598" lon="5.54941">
        <ele>1010.2</ele>
        <time>2021-08-31T11:57:53Z</time>
      </trkpt>
      <trkpt lat="45.06593" lon="5.5494">
        <ele>1010.8</ele>
        <time>2021-08-31T11:57:54Z</time>
      </trkpt>
      <trkpt lat="45.06589" lon="5.54939">
        <ele>1011.3</ele>
        <time>2021-08-31T11:57:56Z</time>
      </trkpt>
      <trkpt lat="45.06589" lon="5.54939">
        <ele>1011.4</ele>
        <time>2021-08-31T11:57:57Z</time>
      </trkpt>
      <trkpt lat="45.06588" lon="5.54938">
        <ele>1011.5</ele>
        <time>2021-08-31T11:57:59Z</time>
      </trkpt>
      <trkpt lat="45.06587" lon="5.54938">
        <ele>1011.6</ele>
        <time>2021-08-31T11:58:00Z</time>
      </trkpt>
      <trkpt lat="45.06586" lon="5.54938">
        <ele>1011.7</ele>
        <time>2021-08-31T11:58:02Z</time>
      </trkpt>
      <trkpt lat="45.0658" lon="5.54938">
        <ele>1012.6</ele>
        <time>2021-08-31T11:58:10Z</time>
      </trkpt>
      <trkpt lat="45.06577" lon="5.54939">
        <ele>1013</ele>
        <time>2021-08-31T11:58:11Z</time>
      </trkpt>
      <trkpt lat="45.06573" lon="5.5494">
        <ele>1013.6</ele>
        <time>2021-08-31T11:58:12Z</time>
      </trkpt>
      <trkpt lat="45.0657" lon="5.54941">
        <ele>1014.1</ele>
        <time>2021-08-31T11:58:14Z</time>
      </trkpt>
      <trkpt lat="45.06569" lon="5.54942">
        <ele>1014.4</ele>
        <time>2021-08-31T11:58:15Z</time>
      </trkpt>
      <trkpt lat="45.06565" lon="5.54942">
        <ele>1014.9</ele>
        <time>2021-08-31T11:58:17Z</time>
      </trkpt>
      <trkpt lat="45.06564" lon="5.54942">
        <ele>1015.2</ele>
        <time>2021-08-31T11:58:18Z</time>
      </trkpt>
      <trkpt lat="45.06563" lon="5.54943">
        <ele>1015.3</ele>
        <time>2021-08-31T11:58:19Z</time>
      </trkpt>
      <trkpt lat="45.06562" lon="5.54943">
        <ele>1015.6</ele>
        <time>2021-08-31T11:58:21Z</time>
      </trkpt>
      <trkpt lat="45.06561" lon="5.54944">
        <ele>1015.7</ele>
        <time>2021-08-31T11:58:23Z</time>
      </trkpt>
      <trkpt lat="45.0656" lon="5.54944">
        <ele>1015.8</ele>
        <time>2021-08-31T11:58:24Z</time>
      </trkpt>
      <trkpt lat="45.06559" lon="5.54944">
        <ele>1016.1</ele>
        <time>2021-08-31T11:58:25Z</time>
      </trkpt>
      <trkpt lat="45.06556" lon="5.54946">
        <ele>1016.6</ele>
        <time>2021-08-31T11:58:26Z</time>
      </trkpt>
      <trkpt lat="45.06555" lon="5.54946">
        <ele>1016.7</ele>
        <time>2021-08-31T11:58:27Z</time>
      </trkpt>
      <trkpt lat="45.06554" lon="5.54948">
        <ele>1017</ele>
        <time>2021-08-31T11:58:28Z</time>
      </trkpt>
      <trkpt lat="45.06553" lon="5.54949">
        <ele>1017.3</ele>
        <time>2021-08-31T11:58:29Z</time>
      </trkpt>
      <trkpt lat="45.06552" lon="5.54951">
        <ele>1017.5</ele>
        <time>2021-08-31T11:58:30Z</time>
      </trkpt>
      <trkpt lat="45.06552" lon="5.54952">
        <ele>1017.7</ele>
        <time>2021-08-31T11:58:31Z</time>
      </trkpt>
      <trkpt lat="45.06552" lon="5.54953">
        <ele>1017.8</ele>
        <time>2021-08-31T11:58:33Z</time>
      </trkpt>
      <trkpt lat="45.06551" lon="5.54954">
        <ele>1017.9</ele>
        <time>2021-08-31T11:58:35Z</time>
      </trkpt>
      <trkpt lat="45.06551" lon="5.54954">
        <ele>1018</ele>
        <time>2021-08-31T11:58:36Z</time>
      </trkpt>
      <trkpt lat="45.06551" lon="5.54955">
        <ele>1018.1</ele>
        <time>2021-08-31T11:58:38Z</time>
      </trkpt>
      <trkpt lat="45.0655" lon="5.54955">
        <ele>1018.1</ele>
        <time>2021-08-31T11:58:39Z</time>
      </trkpt>
      <trkpt lat="45.0655" lon="5.54955">
        <ele>1018.2</ele>
        <time>2021-08-31T11:58:41Z</time>
      </trkpt>
      <trkpt lat="45.06518" lon="5.55019">
        <ele>1027.6</ele>
        <time>2021-08-31T12:00:45Z</time>
      </trkpt>
      <trkpt lat="45.06516" lon="5.5502">
        <ele>1027.9</ele>
        <time>2021-08-31T12:00:46Z</time>
      </trkpt>
      <trkpt lat="45.06514" lon="5.5502">
        <ele>1028.1</ele>
        <time>2021-08-31T12:00:47Z</time>
      </trkpt>
      <trkpt lat="45.06513" lon="5.55021">
        <ele>1028.4</ele>
        <time>2021-08-31T12:00:49Z</time>
      </trkpt>
      <trkpt lat="45.06513" lon="5.55022">
        <ele>1028.5</ele>
        <time>2021-08-31T12:00:50Z</time>
      </trkpt>
      <trkpt lat="45.06512" lon="5.55023">
        <ele>1028.6</ele>
        <time>2021-08-31T12:00:51Z</time>
      </trkpt>
      <trkpt lat="45.06512" lon="5.55024">
        <ele>1028.7</ele>
        <time>2021-08-31T12:00:52Z</time>
      </trkpt>
      <trkpt lat="45.06511" lon="5.55025">
        <ele>1028.9</ele>
        <time>2021-08-31T12:00:54Z</time>
      </trkpt>
      <trkpt lat="45.0651" lon="5.55027">
        <ele>1029.2</ele>
        <time>2021-08-31T12:00:55Z</time>
      </trkpt>
      <trkpt lat="45.06508" lon="5.5503">
        <ele>1029.5</ele>
        <time>2021-08-31T12:00:56Z</time>
      </trkpt>
      <trkpt lat="45.06506" lon="5.55033">
        <ele>1029.9</ele>
        <time>2021-08-31T12:00:58Z</time>
      </trkpt>
      <trkpt lat="45.06504" lon="5.55036">
        <ele>1030.4</ele>
        <time>2021-08-31T12:00:59Z</time>
      </trkpt>
      <trkpt lat="45.06503" lon="5.55037">
        <ele>1030.5</ele>
        <time>2021-08-31T12:01:00Z</time>
      </trkpt>
      <trkpt lat="45.06503" lon="5.5504">
        <ele>1030.7</ele>
        <time>2021-08-31T12:01:01Z</time>
      </trkpt>
      <trkpt lat="45.06502" lon="5.55041">
        <ele>1030.8</ele>
        <time>2021-08-31T12:01:03Z</time>
      </trkpt>
      <trkpt lat="45.06502" lon="5.55041">
        <ele>1030.8</ele>
        <time>2021-08-31T12:01:04Z</time>
      </trkpt>
      <trkpt lat="45.06502" lon="5.55041">
        <ele>1030.8</ele>
        <time>2021-08-31T12:01:05Z</time>
      </trkpt>
      <trkpt lat="45.06502" lon="5.55041">
        <ele>1030.8</ele>
        <time>2021-08-31T12:01:06Z</time>
      </trkpt>
      <trkpt lat="45.06502" lon="5.55044">
        <ele>1031.1</ele>
        <time>2021-08-31T12:01:08Z</time>
      </trkpt>
      <trkpt lat="45.06502" lon="5.55047">
        <ele>1031.4</ele>
        <time>2021-08-31T12:01:09Z</time>
      </trkpt>
      <trkpt lat="45.06502" lon="5.5505">
        <ele>1031.6</ele>
        <time>2021-08-31T12:01:10Z</time>
      </trkpt>
      <trkpt lat="45.06502" lon="5.55053">
        <ele>1031.8</ele>
        <time>2021-08-31T12:11:28Z</time>
      </trkpt>
      <trkpt lat="45.06502" lon="5.55056">
        <ele>1031.6</ele>
        <time>2021-08-31T12:11:30Z</time>
      </trkpt>
      <trkpt lat="45.06508" lon="5.55039">
        <ele>1029.9</ele>
        <time>2021-08-31T12:11:32Z</time>
      </trkpt>
      <trkpt lat="45.06511" lon="5.55032">
        <ele>1029.2</ele>
        <time>2021-08-31T12:11:33Z</time>
      </trkpt>
      <trkpt lat="45.06513" lon="5.55025">
        <ele>1028.5</ele>
        <time>2021-08-31T12:11:34Z</time>
      </trkpt>
      <trkpt lat="45.06518" lon="5.55014">
        <ele>1027.1</ele>
        <time>2021-08-31T12:11:36Z</time>
      </trkpt>
      <trkpt lat="45.06522" lon="5.55009">
        <ele>1026.3</ele>
        <time>2021-08-31T12:11:37Z</time>
      </trkpt>
      <trkpt lat="45.06528" lon="5.54998">
        <ele>1024.7</ele>
        <time>2021-08-31T12:11:39Z</time>
      </trkpt>
      <trkpt lat="45.0653" lon="5.54993">
        <ele>1024</ele>
        <time>2021-08-31T12:11:40Z</time>
      </trkpt>
      <trkpt lat="45.0653" lon="5.54988">
        <ele>1023.4</ele>
        <time>2021-08-31T12:11:41Z</time>
      </trkpt>
      <trkpt lat="45.06532" lon="5.54979">
        <ele>1022.4</ele>
        <time>2021-08-31T12:11:43Z</time>
      </trkpt>
      <trkpt lat="45.06533" lon="5.54973">
        <ele>1021.7</ele>
        <time>2021-08-31T12:11:44Z</time>
      </trkpt>
      <trkpt lat="45.06535" lon="5.54966">
        <ele>1020.8</ele>
        <time>2021-08-31T12:11:45Z</time>
      </trkpt>
      <trkpt lat="45.06538" lon="5.54958">
        <ele>1019.7</ele>
        <time>2021-08-31T12:11:47Z</time>
      </trkpt>
      <trkpt lat="45.06543" lon="5.54953">
        <ele>1018.8</ele>
        <time>2021-08-31T12:11:48Z</time>
      </trkpt>
      <trkpt lat="45.06548" lon="5.54948">
        <ele>1017.9</ele>
        <time>2021-08-31T12:11:49Z</time>
      </trkpt>
      <trkpt lat="45.06555" lon="5.54944">
        <ele>1016.6</ele>
        <time>2021-08-31T12:11:51Z</time>
      </trkpt>
      <trkpt lat="45.06561" lon="5.54942">
        <ele>1015.6</ele>
        <time>2021-08-31T12:11:53Z</time>
      </trkpt>
      <trkpt lat="45.06565" lon="5.54945">
        <ele>1014.8</ele>
        <time>2021-08-31T12:11:54Z</time>
      </trkpt>
      <trkpt lat="45.06572" lon="5.54939">
        <ele>1013.6</ele>
        <time>2021-08-31T12:11:55Z</time>
      </trkpt>
      <trkpt lat="45.06578" lon="5.54936">
        <ele>1012.7</ele>
        <time>2021-08-31T12:11:56Z</time>
      </trkpt>
      <trkpt lat="45.0659" lon="5.54934">
        <ele>1011.2</ele>
        <time>2021-08-31T12:11:58Z</time>
      </trkpt>
      <trkpt lat="45.06596" lon="5.54935">
        <ele>1010.5</ele>
        <time>2021-08-31T12:11:59Z</time>
      </trkpt>
      <trkpt lat="45.06601" lon="5.54936">
        <ele>1009.9</ele>
        <time>2021-08-31T12:12:00Z</time>
      </trkpt>
      <trkpt lat="45.06609" lon="5.5494">
        <ele>1009</ele>
        <time>2021-08-31T12:12:02Z</time>
      </trkpt>
      <trkpt lat="45.06614" lon="5.54944">
        <ele>1008.3</ele>
        <time>2021-08-31T12:12:03Z</time>
      </trkpt>
      <trkpt lat="45.06617" lon="5.54949">
        <ele>1007.8</ele>
        <time>2021-08-31T12:12:05Z</time>
      </trkpt>
      <trkpt lat="45.06619" lon="5.54954">
        <ele>1007.3</ele>
        <time>2021-08-31T12:12:06Z</time>
      </trkpt>
      <trkpt lat="45.06623" lon="5.5496">
        <ele>1006.7</ele>
        <time>2021-08-31T12:12:08Z</time>
      </trkpt>
      <trkpt lat="45.06625" lon="5.54962">
        <ele>1006.2</ele>
        <time>2021-08-31T12:12:09Z</time>
      </trkpt>
      <trkpt lat="45.06628" lon="5.54962">
        <ele>1005.9</ele>
        <time>2021-08-31T12:12:10Z</time>
      </trkpt>
      <trkpt lat="45.0663" lon="5.54961">
        <ele>1005.7</ele>
        <time>2021-08-31T12:12:11Z</time>
      </trkpt>
      <trkpt lat="45.06633" lon="5.54957">
        <ele>1005.3</ele>
        <time>2021-08-31T12:12:13Z</time>
      </trkpt>
      <trkpt lat="45.06635" lon="5.5495">
        <ele>1004.8</ele>
        <time>2021-08-31T12:12:15Z</time>
      </trkpt>
      <trkpt lat="45.06633" lon="5.54938">
        <ele>1004.1</ele>
        <time>2021-08-31T12:12:16Z</time>
      </trkpt>
      <trkpt lat="45.06634" lon="5.54932">
        <ele>1003.7</ele>
        <time>2021-08-31T12:12:17Z</time>
      </trkpt>
      <trkpt lat="45.06632" lon="5.54926">
        <ele>1003.3</ele>
        <time>2021-08-31T12:12:18Z</time>
      </trkpt>
      <trkpt lat="45.06632" lon="5.5492">
        <ele>1003</ele>
        <time>2021-08-31T12:12:19Z</time>
      </trkpt>
      <trkpt lat="45.06634" lon="5.54911">
        <ele>1002.5</ele>
        <time>2021-08-31T12:12:21Z</time>
      </trkpt>
      <trkpt lat="45.06635" lon="5.54904">
        <ele>1002.1</ele>
        <time>2021-08-31T12:12:22Z</time>
      </trkpt>
      <trkpt lat="45.06635" lon="5.54897">
        <ele>1001.8</ele>
        <time>2021-08-31T12:12:23Z</time>
      </trkpt>
      <trkpt lat="45.06635" lon="5.54891">
        <ele>1001.4</ele>
        <time>2021-08-31T12:12:24Z</time>
      </trkpt>
      <trkpt lat="45.06634" lon="5.54883">
        <ele>1001</ele>
        <time>2021-08-31T12:12:26Z</time>
      </trkpt>
      <trkpt lat="45.06634" lon="5.54874">
        <ele>1000.6</ele>
        <time>2021-08-31T12:12:27Z</time>
      </trkpt>
      <trkpt lat="45.06635" lon="5.54867">
        <ele>1000.2</ele>
        <time>2021-08-31T12:12:29Z</time>
      </trkpt>
      <trkpt lat="45.06635" lon="5.54861">
        <ele>999.8</ele>
        <time>2021-08-31T12:12:30Z</time>
      </trkpt>
      <trkpt lat="45.06636" lon="5.54854">
        <ele>999.4</ele>
        <time>2021-08-31T12:12:31Z</time>
      </trkpt>
      <trkpt lat="45.06636" lon="5.54849">
        <ele>999.1</ele>
        <time>2021-08-31T12:12:32Z</time>
      </trkpt>
      <trkpt lat="45.06636" lon="5.54843">
        <ele>998.6</ele>
        <time>2021-08-31T12:12:33Z</time>
      </trkpt>
      <trkpt lat="45.06636" lon="5.54838">
        <ele>998.3</ele>
        <time>2021-08-31T12:12:34Z</time>
      </trkpt>
      <trkpt lat="45.06636" lon="5.54834">
        <ele>997.9</ele>
        <time>2021-08-31T12:12:36Z</time>
      </trkpt>
      <trkpt lat="45.06636" lon="5.54829">
        <ele>997.5</ele>
        <time>2021-08-31T12:12:37Z</time>
      </trkpt>
      <trkpt lat="45.06636" lon="5.54823">
        <ele>996.9</ele>
        <time>2021-08-31T12:12:39Z</time>
      </trkpt>
      <trkpt lat="45.06637" lon="5.54818">
        <ele>996.4</ele>
        <time>2021-08-31T12:12:41Z</time>
      </trkpt>
      <trkpt lat="45.06637" lon="5.54816">
        <ele>996.2</ele>
        <time>2021-08-31T12:12:42Z</time>
      </trkpt>
      <trkpt lat="45.06638" lon="5.54813">
        <ele>995.9</ele>
        <time>2021-08-31T12:12:43Z</time>
      </trkpt>
      <trkpt lat="45.06638" lon="5.54812">
        <ele>995.8</ele>
        <time>2021-08-31T12:12:44Z</time>
      </trkpt>
      <trkpt lat="45.06638" lon="5.5481">
        <ele>995.5</ele>
        <time>2021-08-31T12:12:46Z</time>
      </trkpt>
      <trkpt lat="45.06637" lon="5.54809">
        <ele>995.5</ele>
        <time>2021-08-31T12:12:48Z</time>
      </trkpt>
      <trkpt lat="45.06637" lon="5.54808">
        <ele>995.3</ele>
        <time>2021-08-31T12:12:49Z</time>
      </trkpt>
      <trkpt lat="45.06637" lon="5.54804">
        <ele>994.8</ele>
        <time>2021-08-31T12:12:51Z</time>
      </trkpt>
      <trkpt lat="45.06636" lon="5.54801">
        <ele>994.3</ele>
        <time>2021-08-31T12:12:52Z</time>
      </trkpt>
      <trkpt lat="45.06635" lon="5.548">
        <ele>994.3</ele>
        <time>2021-08-31T12:12:53Z</time>
      </trkpt>
      <trkpt lat="45.06631" lon="5.54801">
        <ele>994.4</ele>
        <time>2021-08-31T12:12:55Z</time>
      </trkpt>
      <trkpt lat="45.06628" lon="5.54802">
        <ele>994.5</ele>
        <time>2021-08-31T12:12:56Z</time>
      </trkpt>
      <trkpt lat="45.06622" lon="5.54805">
        <ele>994.6</ele>
        <time>2021-08-31T12:12:57Z</time>
      </trkpt>
      <trkpt lat="45.06613" lon="5.5481">
        <ele>994.8</ele>
        <time>2021-08-31T12:12:59Z</time>
      </trkpt>
      <trkpt lat="45.06607" lon="5.54812">
        <ele>994.9</ele>
        <time>2021-08-31T12:13:00Z</time>
      </trkpt>
      <trkpt lat="45.06597" lon="5.54815">
        <ele>995.1</ele>
        <time>2021-08-31T12:13:02Z</time>
      </trkpt>
      <trkpt lat="45.06586" lon="5.54819">
        <ele>995.3</ele>
        <time>2021-08-31T12:13:04Z</time>
      </trkpt>
      <trkpt lat="45.06577" lon="5.54823">
        <ele>995.5</ele>
        <time>2021-08-31T12:13:06Z</time>
      </trkpt>
      <trkpt lat="45.06567" lon="5.54827">
        <ele>995.8</ele>
        <time>2021-08-31T12:13:08Z</time>
      </trkpt>
      <trkpt lat="45.06557" lon="5.5483">
        <ele>996.3</ele>
        <time>2021-08-31T12:13:10Z</time>
      </trkpt>
      <trkpt lat="45.06552" lon="5.54831">
        <ele>996.5</ele>
        <time>2021-08-31T12:13:11Z</time>
      </trkpt>
      <trkpt lat="45.06547" lon="5.54832">
        <ele>996.8</ele>
        <time>2021-08-31T12:13:12Z</time>
      </trkpt>
      <trkpt lat="45.06539" lon="5.54834">
        <ele>997.2</ele>
        <time>2021-08-31T12:13:14Z</time>
      </trkpt>
      <trkpt lat="45.06536" lon="5.54834">
        <ele>997.3</ele>
        <time>2021-08-31T12:13:15Z</time>
      </trkpt>
      <trkpt lat="45.06532" lon="5.54834">
        <ele>997.4</ele>
        <time>2021-08-31T12:13:16Z</time>
      </trkpt>
      <trkpt lat="45.06529" lon="5.54835">
        <ele>997.6</ele>
        <time>2021-08-31T12:13:17Z</time>
      </trkpt>
      <trkpt lat="45.06526" lon="5.54836">
        <ele>997.7</ele>
        <time>2021-08-31T12:13:18Z</time>
      </trkpt>
      <trkpt lat="45.06522" lon="5.54837">
        <ele>997.7</ele>
        <time>2021-08-31T12:13:19Z</time>
      </trkpt>
      <trkpt lat="45.06517" lon="5.54838">
        <ele>997.7</ele>
        <time>2021-08-31T12:13:21Z</time>
      </trkpt>
      <trkpt lat="45.06511" lon="5.54838">
        <ele>997.6</ele>
        <time>2021-08-31T12:13:23Z</time>
      </trkpt>
      <trkpt lat="45.06507" lon="5.54838">
        <ele>997.6</ele>
        <time>2021-08-31T12:13:24Z</time>
      </trkpt>
      <trkpt lat="45.06499" lon="5.54838">
        <ele>997.3</ele>
        <time>2021-08-31T12:13:26Z</time>
      </trkpt>
      <trkpt lat="45.06493" lon="5.54837">
        <ele>997.1</ele>
        <time>2021-08-31T12:13:28Z</time>
      </trkpt>
      <trkpt lat="45.06489" lon="5.54837">
        <ele>996.9</ele>
        <time>2021-08-31T12:13:29Z</time>
      </trkpt>
      <trkpt lat="45.06481" lon="5.54836">
        <ele>996.5</ele>
        <time>2021-08-31T12:13:31Z</time>
      </trkpt>
      <trkpt lat="45.06473" lon="5.54836">
        <ele>996.1</ele>
        <time>2021-08-31T12:13:33Z</time>
      </trkpt>
      <trkpt lat="45.06464" lon="5.54835">
        <ele>995.6</ele>
        <time>2021-08-31T12:13:35Z</time>
      </trkpt>
      <trkpt lat="45.06458" lon="5.54834">
        <ele>995.3</ele>
        <time>2021-08-31T12:13:36Z</time>
      </trkpt>
      <trkpt lat="45.06453" lon="5.54832">
        <ele>995.1</ele>
        <time>2021-08-31T12:13:37Z</time>
      </trkpt>
      <trkpt lat="45.06442" lon="5.54829">
        <ele>994.4</ele>
        <time>2021-08-31T12:13:39Z</time>
      </trkpt>
      <trkpt lat="45.06431" lon="5.54827">
        <ele>993.8</ele>
        <time>2021-08-31T12:13:41Z</time>
      </trkpt>
      <trkpt lat="45.06424" lon="5.54827">
        <ele>993.4</ele>
        <time>2021-08-31T12:13:42Z</time>
      </trkpt>
      <trkpt lat="45.06418" lon="5.54826">
        <ele>993</ele>
        <time>2021-08-31T12:13:43Z</time>
      </trkpt>
      <trkpt lat="45.06411" lon="5.54826">
        <ele>992.7</ele>
        <time>2021-08-31T12:13:44Z</time>
      </trkpt>
      <trkpt lat="45.06397" lon="5.54824">
        <ele>991.9</ele>
        <time>2021-08-31T12:13:46Z</time>
      </trkpt>
      <trkpt lat="45.0639" lon="5.54823">
        <ele>991.5</ele>
        <time>2021-08-31T12:13:47Z</time>
      </trkpt>
      <trkpt lat="45.06383" lon="5.54822">
        <ele>991.2</ele>
        <time>2021-08-31T12:13:48Z</time>
      </trkpt>
      <trkpt lat="45.06369" lon="5.54819">
        <ele>990.6</ele>
        <time>2021-08-31T12:13:50Z</time>
      </trkpt>
      <trkpt lat="45.06354" lon="5.54817">
        <ele>990</ele>
        <time>2021-08-31T12:13:52Z</time>
      </trkpt>
      <trkpt lat="45.06347" lon="5.54816">
        <ele>989.8</ele>
        <time>2021-08-31T12:13:53Z</time>
      </trkpt>
      <trkpt lat="45.0634" lon="5.54815">
        <ele>989.7</ele>
        <time>2021-08-31T12:13:54Z</time>
      </trkpt>
      <trkpt lat="45.06326" lon="5.54812">
        <ele>989.4</ele>
        <time>2021-08-31T12:13:56Z</time>
      </trkpt>
      <trkpt lat="45.06313" lon="5.54811">
        <ele>989.3</ele>
        <time>2021-08-31T12:13:58Z</time>
      </trkpt>
      <trkpt lat="45.06307" lon="5.54811">
        <ele>989.3</ele>
        <time>2021-08-31T12:13:59Z</time>
      </trkpt>
      <trkpt lat="45.06301" lon="5.5481">
        <ele>989.2</ele>
        <time>2021-08-31T12:14:00Z</time>
      </trkpt>
      <trkpt lat="45.06287" lon="5.54808">
        <ele>989.2</ele>
        <time>2021-08-31T12:14:02Z</time>
      </trkpt>
      <trkpt lat="45.06274" lon="5.54805">
        <ele>989.3</ele>
        <time>2021-08-31T12:14:04Z</time>
      </trkpt>
      <trkpt lat="45.06268" lon="5.54804">
        <ele>989.3</ele>
        <time>2021-08-31T12:14:05Z</time>
      </trkpt>
      <trkpt lat="45.06256" lon="5.54802">
        <ele>989.4</ele>
        <time>2021-08-31T12:14:07Z</time>
      </trkpt>
      <trkpt lat="45.0625" lon="5.54801">
        <ele>989.5</ele>
        <time>2021-08-31T12:14:08Z</time>
      </trkpt>
      <trkpt lat="45.06239" lon="5.54798">
        <ele>989.6</ele>
        <time>2021-08-31T12:14:10Z</time>
      </trkpt>
      <trkpt lat="45.06234" lon="5.54798">
        <ele>989.6</ele>
        <time>2021-08-31T12:14:11Z</time>
      </trkpt>
      <trkpt lat="45.06229" lon="5.54796">
        <ele>989.7</ele>
        <time>2021-08-31T12:14:12Z</time>
      </trkpt>
      <trkpt lat="45.06219" lon="5.54793">
        <ele>989.8</ele>
        <time>2021-08-31T12:14:14Z</time>
      </trkpt>
      <trkpt lat="45.0621" lon="5.54788">
        <ele>989.9</ele>
        <time>2021-08-31T12:14:16Z</time>
      </trkpt>
      <trkpt lat="45.06202" lon="5.54781">
        <ele>990</ele>
        <time>2021-08-31T12:14:18Z</time>
      </trkpt>
      <trkpt lat="45.06197" lon="5.54776">
        <ele>990.1</ele>
        <time>2021-08-31T12:14:20Z</time>
      </trkpt>
      <trkpt lat="45.06191" lon="5.5477">
        <ele>990.2</ele>
        <time>2021-08-31T12:14:22Z</time>
      </trkpt>
      <trkpt lat="45.06189" lon="5.54768">
        <ele>990.2</ele>
        <time>2021-08-31T12:14:23Z</time>
      </trkpt>
      <trkpt lat="45.06187" lon="5.54764">
        <ele>990.2</ele>
        <time>2021-08-31T12:14:25Z</time>
      </trkpt>
      <trkpt lat="45.06185" lon="5.5476">
        <ele>990.3</ele>
        <time>2021-08-31T12:14:26Z</time>
      </trkpt>
      <trkpt lat="45.06185" lon="5.54756">
        <ele>990.3</ele>
        <time>2021-08-31T12:14:28Z</time>
      </trkpt>
      <trkpt lat="45.06185" lon="5.54754">
        <ele>990.1</ele>
        <time>2021-08-31T12:14:29Z</time>
      </trkpt>
      <trkpt lat="45.06185" lon="5.54753">
        <ele>990</ele>
        <time>2021-08-31T12:14:30Z</time>
      </trkpt>
      <trkpt lat="45.06186" lon="5.54751">
        <ele>989.8</ele>
        <time>2021-08-31T12:14:32Z</time>
      </trkpt>
      <trkpt lat="45.06185" lon="5.54751">
        <ele>989.7</ele>
        <time>2021-08-31T12:14:33Z</time>
      </trkpt>
      <trkpt lat="45.06185" lon="5.54751">
        <ele>989.5</ele>
        <time>2021-08-31T12:14:35Z</time>
      </trkpt>
      <trkpt lat="45.06184" lon="5.54755">
        <ele>989.3</ele>
        <time>2021-08-31T12:14:37Z</time>
      </trkpt>
      <trkpt lat="45.06183" lon="5.54757">
        <ele>989.1</ele>
        <time>2021-08-31T12:14:38Z</time>
      </trkpt>
      <trkpt lat="45.06184" lon="5.54755">
        <ele>988.9</ele>
        <time>2021-08-31T12:14:40Z</time>
      </trkpt>
      <trkpt lat="45.06183" lon="5.54756">
        <ele>988.8</ele>
        <time>2021-08-31T12:14:42Z</time>
      </trkpt>
      <trkpt lat="45.06183" lon="5.54756">
        <ele>988.6</ele>
        <time>2021-08-31T12:14:43Z</time>
      </trkpt>
      <trkpt lat="45.06182" lon="5.54757">
        <ele>988.4</ele>
        <time>2021-08-31T12:14:44Z</time>
      </trkpt>
      <trkpt lat="45.06174" lon="5.54756">
        <ele>988.3</ele>
        <time>2021-08-31T12:14:46Z</time>
      </trkpt>
      <trkpt lat="45.06166" lon="5.54753">
        <ele>988.2</ele>
        <time>2021-08-31T12:14:47Z</time>
      </trkpt>
      <trkpt lat="45.06159" lon="5.5475">
        <ele>988.1</ele>
        <time>2021-08-31T12:14:48Z</time>
      </trkpt>
      <trkpt lat="45.06147" lon="5.54748">
        <ele>988.1</ele>
        <time>2021-08-31T12:14:50Z</time>
      </trkpt>
      <trkpt lat="45.06137" lon="5.54747">
        <ele>988.3</ele>
        <time>2021-08-31T12:14:52Z</time>
      </trkpt>
      <trkpt lat="45.06133" lon="5.54742">
        <ele>988.4</ele>
        <time>2021-08-31T12:14:54Z</time>
      </trkpt>
      <trkpt lat="45.06128" lon="5.54742">
        <ele>988.5</ele>
        <time>2021-08-31T12:14:55Z</time>
      </trkpt>
      <trkpt lat="45.06119" lon="5.54745">
        <ele>988.7</ele>
        <time>2021-08-31T12:14:56Z</time>
      </trkpt>
      <trkpt lat="45.06112" lon="5.54747">
        <ele>988.9</ele>
        <time>2021-08-31T12:14:57Z</time>
      </trkpt>
      <trkpt lat="45.06108" lon="5.54747">
        <ele>989</ele>
        <time>2021-08-31T12:14:59Z</time>
      </trkpt>
      <trkpt lat="45.06102" lon="5.54747">
        <ele>989.1</ele>
        <time>2021-08-31T12:15:00Z</time>
      </trkpt>
      <trkpt lat="45.06098" lon="5.54747">
        <ele>989.2</ele>
        <time>2021-08-31T12:15:01Z</time>
      </trkpt>
      <trkpt lat="45.06091" lon="5.54746">
        <ele>989.2</ele>
        <time>2021-08-31T12:15:02Z</time>
      </trkpt>
      <trkpt lat="45.06086" lon="5.54746">
        <ele>989.3</ele>
        <time>2021-08-31T12:15:03Z</time>
      </trkpt>
      <trkpt lat="45.06082" lon="5.54744">
        <ele>989.3</ele>
        <time>2021-08-31T12:15:04Z</time>
      </trkpt>
      <trkpt lat="45.06074" lon="5.54745">
        <ele>989.4</ele>
        <time>2021-08-31T12:15:06Z</time>
      </trkpt>
      <trkpt lat="45.0607" lon="5.54747">
        <ele>989.5</ele>
        <time>2021-08-31T12:15:07Z</time>
      </trkpt>
      <trkpt lat="45.06066" lon="5.54744">
        <ele>989.6</ele>
        <time>2021-08-31T12:15:08Z</time>
      </trkpt>
      <trkpt lat="45.06061" lon="5.54742">
        <ele>989.8</ele>
        <time>2021-08-31T12:15:09Z</time>
      </trkpt>
      <trkpt lat="45.06055" lon="5.54739">
        <ele>990</ele>
        <time>2021-08-31T12:15:11Z</time>
      </trkpt>
      <trkpt lat="45.06049" lon="5.54736">
        <ele>990.2</ele>
        <time>2021-08-31T12:15:13Z</time>
      </trkpt>
      <trkpt lat="45.06044" lon="5.54735">
        <ele>990.3</ele>
        <time>2021-08-31T12:15:14Z</time>
      </trkpt>
      <trkpt lat="45.0604" lon="5.54733">
        <ele>990.4</ele>
        <time>2021-08-31T12:15:15Z</time>
      </trkpt>
      <trkpt lat="45.06034" lon="5.54731">
        <ele>990.6</ele>
        <time>2021-08-31T12:15:17Z</time>
      </trkpt>
      <trkpt lat="45.06028" lon="5.54731">
        <ele>990.7</ele>
        <time>2021-08-31T12:15:18Z</time>
      </trkpt>
      <trkpt lat="45.06024" lon="5.54731">
        <ele>990.8</ele>
        <time>2021-08-31T12:15:20Z</time>
      </trkpt>
      <trkpt lat="45.0602" lon="5.54731">
        <ele>990.8</ele>
        <time>2021-08-31T12:15:21Z</time>
      </trkpt>
      <trkpt lat="45.06017" lon="5.54732">
        <ele>990.9</ele>
        <time>2021-08-31T12:15:22Z</time>
      </trkpt>
      <trkpt lat="45.06011" lon="5.54733">
        <ele>990.9</ele>
        <time>2021-08-31T12:15:23Z</time>
      </trkpt>
      <trkpt lat="45.06006" lon="5.54733">
        <ele>991</ele>
        <time>2021-08-31T12:15:25Z</time>
      </trkpt>
      <trkpt lat="45.05999" lon="5.54735">
        <ele>991.1</ele>
        <time>2021-08-31T12:15:27Z</time>
      </trkpt>
      <trkpt lat="45.05995" lon="5.54735">
        <ele>991.1</ele>
        <time>2021-08-31T12:15:28Z</time>
      </trkpt>
      <trkpt lat="45.0599" lon="5.54737">
        <ele>991.2</ele>
        <time>2021-08-31T12:15:29Z</time>
      </trkpt>
      <trkpt lat="45.05987" lon="5.54739">
        <ele>991.2</ele>
        <time>2021-08-31T12:15:30Z</time>
      </trkpt>
      <trkpt lat="45.05982" lon="5.54742">
        <ele>991.3</ele>
        <time>2021-08-31T12:15:32Z</time>
      </trkpt>
      <trkpt lat="45.05979" lon="5.54744">
        <ele>991.3</ele>
        <time>2021-08-31T12:15:33Z</time>
      </trkpt>
      <trkpt lat="45.05976" lon="5.54746">
        <ele>991.3</ele>
        <time>2021-08-31T12:15:34Z</time>
      </trkpt>
      <trkpt lat="45.05971" lon="5.54747">
        <ele>991.4</ele>
        <time>2021-08-31T12:15:36Z</time>
      </trkpt>
      <trkpt lat="45.05967" lon="5.54747">
        <ele>991.4</ele>
        <time>2021-08-31T12:15:37Z</time>
      </trkpt>
      <trkpt lat="45.05962" lon="5.54749">
        <ele>991.5</ele>
        <time>2021-08-31T12:15:38Z</time>
      </trkpt>
      <trkpt lat="45.05957" lon="5.54751">
        <ele>991.5</ele>
        <time>2021-08-31T12:15:40Z</time>
      </trkpt>
      <trkpt lat="45.05955" lon="5.54753">
        <ele>991.6</ele>
        <time>2021-08-31T12:15:41Z</time>
      </trkpt>
      <trkpt lat="45.05949" lon="5.54755">
        <ele>991.8</ele>
        <time>2021-08-31T12:15:43Z</time>
      </trkpt>
      <trkpt lat="45.05947" lon="5.54758">
        <ele>991.9</ele>
        <time>2021-08-31T12:15:44Z</time>
      </trkpt>
      <trkpt lat="45.05943" lon="5.54763">
        <ele>992.1</ele>
        <time>2021-08-31T12:15:45Z</time>
      </trkpt>
      <trkpt lat="45.05941" lon="5.54767">
        <ele>992.4</ele>
        <time>2021-08-31T12:15:47Z</time>
      </trkpt>
      <trkpt lat="45.05936" lon="5.54769">
        <ele>992.6</ele>
        <time>2021-08-31T12:15:49Z</time>
      </trkpt>
      <trkpt lat="45.05933" lon="5.54769">
        <ele>992.8</ele>
        <time>2021-08-31T12:15:50Z</time>
      </trkpt>
      <trkpt lat="45.05932" lon="5.5477">
        <ele>992.9</ele>
        <time>2021-08-31T12:15:51Z</time>
      </trkpt>
      <trkpt lat="45.0593" lon="5.5477">
        <ele>993</ele>
        <time>2021-08-31T12:15:52Z</time>
      </trkpt>
      <trkpt lat="45.05927" lon="5.5477">
        <ele>993.2</ele>
        <time>2021-08-31T12:15:54Z</time>
      </trkpt>
      <trkpt lat="45.05924" lon="5.54771">
        <ele>993.4</ele>
        <time>2021-08-31T12:15:55Z</time>
      </trkpt>
      <trkpt lat="45.05923" lon="5.54771">
        <ele>993.4</ele>
        <time>2021-08-31T12:15:56Z</time>
      </trkpt>
      <trkpt lat="45.05918" lon="5.54772">
        <ele>993.7</ele>
        <time>2021-08-31T12:15:58Z</time>
      </trkpt>
      <trkpt lat="45.05914" lon="5.54773">
        <ele>993.9</ele>
        <time>2021-08-31T12:16:00Z</time>
      </trkpt>
      <trkpt lat="45.0591" lon="5.54775">
        <ele>994</ele>
        <time>2021-08-31T12:16:02Z</time>
      </trkpt>
      <trkpt lat="45.05907" lon="5.54777">
        <ele>994.1</ele>
        <time>2021-08-31T12:16:03Z</time>
      </trkpt>
      <trkpt lat="45.05903" lon="5.54779">
        <ele>994.2</ele>
        <time>2021-08-31T12:16:05Z</time>
      </trkpt>
      <trkpt lat="45.05901" lon="5.54779">
        <ele>994.3</ele>
        <time>2021-08-31T12:16:06Z</time>
      </trkpt>
      <trkpt lat="45.05894" lon="5.54777">
        <ele>994.5</ele>
        <time>2021-08-31T12:16:08Z</time>
      </trkpt>
      <trkpt lat="45.0589" lon="5.54779">
        <ele>994.7</ele>
        <time>2021-08-31T12:16:10Z</time>
      </trkpt>
      <trkpt lat="45.05885" lon="5.54781">
        <ele>994.9</ele>
        <time>2021-08-31T12:16:12Z</time>
      </trkpt>
      <trkpt lat="45.0588" lon="5.54781">
        <ele>995.1</ele>
        <time>2021-08-31T12:16:14Z</time>
      </trkpt>
      <trkpt lat="45.05876" lon="5.54783">
        <ele>995.2</ele>
        <time>2021-08-31T12:16:16Z</time>
      </trkpt>
      <trkpt lat="45.05872" lon="5.54785">
        <ele>995.4</ele>
        <time>2021-08-31T12:16:18Z</time>
      </trkpt>
      <trkpt lat="45.05869" lon="5.54786">
        <ele>995.6</ele>
        <time>2021-08-31T12:16:19Z</time>
      </trkpt>
      <trkpt lat="45.05866" lon="5.54786">
        <ele>995.7</ele>
        <time>2021-08-31T12:16:21Z</time>
      </trkpt>
      <trkpt lat="45.05863" lon="5.54788">
        <ele>995.9</ele>
        <time>2021-08-31T12:16:23Z</time>
      </trkpt>
      <trkpt lat="45.05861" lon="5.54788">
        <ele>996</ele>
        <time>2021-08-31T12:16:24Z</time>
      </trkpt>
      <trkpt lat="45.0586" lon="5.54788">
        <ele>996</ele>
        <time>2021-08-31T12:16:26Z</time>
      </trkpt>
      <trkpt lat="45.05859" lon="5.54787">
        <ele>996.1</ele>
        <time>2021-08-31T12:16:27Z</time>
      </trkpt>
      <trkpt lat="45.05858" lon="5.54786">
        <ele>996.1</ele>
        <time>2021-08-31T12:16:29Z</time>
      </trkpt>
      <trkpt lat="45.05857" lon="5.54786">
        <ele>996.1</ele>
        <time>2021-08-31T12:16:31Z</time>
      </trkpt>
      <trkpt lat="45.05856" lon="5.54785">
        <ele>996.2</ele>
        <time>2021-08-31T12:16:32Z</time>
      </trkpt>
      <trkpt lat="45.05855" lon="5.54784">
        <ele>996.2</ele>
        <time>2021-08-31T12:16:33Z</time>
      </trkpt>
      <trkpt lat="45.05854" lon="5.54784">
        <ele>996.2</ele>
        <time>2021-08-31T12:16:35Z</time>
      </trkpt>
      <trkpt lat="45.05853" lon="5.54783">
        <ele>996.2</ele>
        <time>2021-08-31T12:16:53Z</time>
      </trkpt>
      <trkpt lat="45.05852" lon="5.54783">
        <ele>996.2</ele>
        <time>2021-08-31T12:16:54Z</time>
      </trkpt>
      <trkpt lat="45.0585" lon="5.54771">
        <ele>996.1</ele>
        <time>2021-08-31T12:16:56Z</time>
      </trkpt>
      <trkpt lat="45.05849" lon="5.54763">
        <ele>996</ele>
        <time>2021-08-31T12:16:57Z</time>
      </trkpt>
      <trkpt lat="45.05849" lon="5.54754">
        <ele>996</ele>
        <time>2021-08-31T12:16:58Z</time>
      </trkpt>
      <trkpt lat="45.05849" lon="5.54744">
        <ele>995.9</ele>
        <time>2021-08-31T12:17:00Z</time>
      </trkpt>
      <trkpt lat="45.0585" lon="5.54735">
        <ele>995.8</ele>
        <time>2021-08-31T12:17:01Z</time>
      </trkpt>
      <trkpt lat="45.0585" lon="5.54724">
        <ele>995.7</ele>
        <time>2021-08-31T12:17:03Z</time>
      </trkpt>
      <trkpt lat="45.0585" lon="5.54718">
        <ele>995.6</ele>
        <time>2021-08-31T12:17:04Z</time>
      </trkpt>
      <trkpt lat="45.0585" lon="5.54709">
        <ele>995.5</ele>
        <time>2021-08-31T12:17:05Z</time>
      </trkpt>
      <trkpt lat="45.0585" lon="5.54702">
        <ele>995.5</ele>
        <time>2021-08-31T12:17:06Z</time>
      </trkpt>
      <trkpt lat="45.05848" lon="5.54692">
        <ele>995.5</ele>
        <time>2021-08-31T12:17:08Z</time>
      </trkpt>
      <trkpt lat="45.05845" lon="5.54684">
        <ele>995.5</ele>
        <time>2021-08-31T12:17:09Z</time>
      </trkpt>
      <trkpt lat="45.05841" lon="5.54679">
        <ele>995.5</ele>
        <time>2021-08-31T12:17:10Z</time>
      </trkpt>
      <trkpt lat="45.05837" lon="5.54675">
        <ele>995.6</ele>
        <time>2021-08-31T12:17:12Z</time>
      </trkpt>
      <trkpt lat="45.05833" lon="5.54671">
        <ele>995.6</ele>
        <time>2021-08-31T12:17:13Z</time>
      </trkpt>
      <trkpt lat="45.0583" lon="5.54667">
        <ele>995.7</ele>
        <time>2021-08-31T12:17:14Z</time>
      </trkpt>
      <trkpt lat="45.05826" lon="5.54664">
        <ele>995.7</ele>
        <time>2021-08-31T12:17:15Z</time>
      </trkpt>
      <trkpt lat="45.05821" lon="5.54659">
        <ele>995.8</ele>
        <time>2021-08-31T12:17:17Z</time>
      </trkpt>
      <trkpt lat="45.05815" lon="5.54654">
        <ele>995.9</ele>
        <time>2021-08-31T12:17:19Z</time>
      </trkpt>
      <trkpt lat="45.0581" lon="5.54649">
        <ele>996</ele>
        <time>2021-08-31T12:17:21Z</time>
      </trkpt>
      <trkpt lat="45.05807" lon="5.54646">
        <ele>996.1</ele>
        <time>2021-08-31T12:17:22Z</time>
      </trkpt>
      <trkpt lat="45.05804" lon="5.54643">
        <ele>996.1</ele>
        <time>2021-08-31T12:17:23Z</time>
      </trkpt>
      <trkpt lat="45.05801" lon="5.54639">
        <ele>996.2</ele>
        <time>2021-08-31T12:17:24Z</time>
      </trkpt>
      <trkpt lat="45.05797" lon="5.54634">
        <ele>996.4</ele>
        <time>2021-08-31T12:17:26Z</time>
      </trkpt>
      <trkpt lat="45.05794" lon="5.54629">
        <ele>996.5</ele>
        <time>2021-08-31T12:17:27Z</time>
      </trkpt>
      <trkpt lat="45.05791" lon="5.54622">
        <ele>996.6</ele>
        <time>2021-08-31T12:17:29Z</time>
      </trkpt>
      <trkpt lat="45.0579" lon="5.54619">
        <ele>996.6</ele>
        <time>2021-08-31T12:17:30Z</time>
      </trkpt>
      <trkpt lat="45.05788" lon="5.54611">
        <ele>996.8</ele>
        <time>2021-08-31T12:17:32Z</time>
      </trkpt>
      <trkpt lat="45.05787" lon="5.54606">
        <ele>996.8</ele>
        <time>2021-08-31T12:17:33Z</time>
      </trkpt>
      <trkpt lat="45.05786" lon="5.54601">
        <ele>996.9</ele>
        <time>2021-08-31T12:17:34Z</time>
      </trkpt>
      <trkpt lat="45.05785" lon="5.54597">
        <ele>997</ele>
        <time>2021-08-31T12:17:35Z</time>
      </trkpt>
      <trkpt lat="45.05784" lon="5.54588">
        <ele>997.1</ele>
        <time>2021-08-31T12:17:37Z</time>
      </trkpt>
      <trkpt lat="45.05784" lon="5.54584">
        <ele>997.2</ele>
        <time>2021-08-31T12:17:38Z</time>
      </trkpt>
      <trkpt lat="45.05782" lon="5.54578">
        <ele>997.4</ele>
        <time>2021-08-31T12:17:40Z</time>
      </trkpt>
      <trkpt lat="45.05781" lon="5.54573">
        <ele>997.5</ele>
        <time>2021-08-31T12:17:41Z</time>
      </trkpt>
      <trkpt lat="45.0578" lon="5.5457">
        <ele>997.6</ele>
        <time>2021-08-31T12:17:42Z</time>
      </trkpt>
      <trkpt lat="45.05779" lon="5.54563">
        <ele>997.8</ele>
        <time>2021-08-31T12:17:44Z</time>
      </trkpt>
      <trkpt lat="45.05778" lon="5.54559">
        <ele>997.9</ele>
        <time>2021-08-31T12:17:45Z</time>
      </trkpt>
      <trkpt lat="45.05779" lon="5.54555">
        <ele>998</ele>
        <time>2021-08-31T12:17:46Z</time>
      </trkpt>
      <trkpt lat="45.05779" lon="5.54553">
        <ele>998.1</ele>
        <time>2021-08-31T12:17:48Z</time>
      </trkpt>
      <trkpt lat="45.0578" lon="5.5455">
        <ele>998.1</ele>
        <time>2021-08-31T12:17:49Z</time>
      </trkpt>
      <trkpt lat="45.0578" lon="5.54549">
        <ele>998.2</ele>
        <time>2021-08-31T12:17:50Z</time>
      </trkpt>
      <trkpt lat="45.0578" lon="5.54547">
        <ele>998.2</ele>
        <time>2021-08-31T12:17:51Z</time>
      </trkpt>
      <trkpt lat="45.05779" lon="5.54545">
        <ele>998.3</ele>
        <time>2021-08-31T12:17:53Z</time>
      </trkpt>
      <trkpt lat="45.0578" lon="5.54544">
        <ele>998.3</ele>
        <time>2021-08-31T12:17:54Z</time>
      </trkpt>
      <trkpt lat="45.05781" lon="5.54543">
        <ele>998.3</ele>
        <time>2021-08-31T12:17:55Z</time>
      </trkpt>
      <trkpt lat="45.05782" lon="5.54542">
        <ele>998.4</ele>
        <time>2021-08-31T12:17:56Z</time>
      </trkpt>
      <trkpt lat="45.05782" lon="5.54538">
        <ele>998.4</ele>
        <time>2021-08-31T12:17:58Z</time>
      </trkpt>
      <trkpt lat="45.05781" lon="5.54537">
        <ele>998.2</ele>
        <time>2021-08-31T12:17:59Z</time>
      </trkpt>
      <trkpt lat="45.05779" lon="5.54534">
        <ele>998.7</ele>
        <time>2021-08-31T12:18:01Z</time>
      </trkpt>
      <trkpt lat="45.05777" lon="5.54533">
        <ele>998.5</ele>
        <time>2021-08-31T12:18:02Z</time>
      </trkpt>
      <trkpt lat="45.05776" lon="5.5453">
        <ele>998.7</ele>
        <time>2021-08-31T12:18:04Z</time>
      </trkpt>
      <trkpt lat="45.05777" lon="5.54527">
        <ele>998.4</ele>
        <time>2021-08-31T12:18:06Z</time>
      </trkpt>
      <trkpt lat="45.05778" lon="5.54525">
        <ele>998.7</ele>
        <time>2021-08-31T12:18:07Z</time>
      </trkpt>
      <trkpt lat="45.0578" lon="5.54521">
        <ele>998.7</ele>
        <time>2021-08-31T12:18:09Z</time>
      </trkpt>
      <trkpt lat="45.0578" lon="5.54519">
        <ele>998.4</ele>
        <time>2021-08-31T12:18:10Z</time>
      </trkpt>
      <trkpt lat="45.05777" lon="5.54516">
        <ele>999.1</ele>
        <time>2021-08-31T12:18:12Z</time>
      </trkpt>
      <trkpt lat="45.05774" lon="5.54515">
        <ele>999</ele>
        <time>2021-08-31T12:18:13Z</time>
      </trkpt>
      <trkpt lat="45.05768" lon="5.54515">
        <ele>998.9</ele>
        <time>2021-08-31T12:18:15Z</time>
      </trkpt>
      <trkpt lat="45.05764" lon="5.54516">
        <ele>998.9</ele>
        <time>2021-08-31T12:18:16Z</time>
      </trkpt>
      <trkpt lat="45.05759" lon="5.54518">
        <ele>998.9</ele>
        <time>2021-08-31T12:18:17Z</time>
      </trkpt>
      <trkpt lat="45.05755" lon="5.54519">
        <ele>998.9</ele>
        <time>2021-08-31T12:18:19Z</time>
      </trkpt>
      <trkpt lat="45.0575" lon="5.54518">
        <ele>998.9</ele>
        <time>2021-08-31T12:18:20Z</time>
      </trkpt>
      <trkpt lat="45.05746" lon="5.54518">
        <ele>998.9</ele>
        <time>2021-08-31T12:18:21Z</time>
      </trkpt>
      <trkpt lat="45.05741" lon="5.54517">
        <ele>999</ele>
        <time>2021-08-31T12:18:22Z</time>
      </trkpt>
      <trkpt lat="45.05737" lon="5.54517">
        <ele>999</ele>
        <time>2021-08-31T12:18:24Z</time>
      </trkpt>
      <trkpt lat="45.05733" lon="5.54517">
        <ele>999</ele>
        <time>2021-08-31T12:18:25Z</time>
      </trkpt>
      <trkpt lat="45.05728" lon="5.54516">
        <ele>999.1</ele>
        <time>2021-08-31T12:18:26Z</time>
      </trkpt>
      <trkpt lat="45.05722" lon="5.54515">
        <ele>999.1</ele>
        <time>2021-08-31T12:18:27Z</time>
      </trkpt>
      <trkpt lat="45.05716" lon="5.54515">
        <ele>999.2</ele>
        <time>2021-08-31T12:18:29Z</time>
      </trkpt>
      <trkpt lat="45.0571" lon="5.54514">
        <ele>999.3</ele>
        <time>2021-08-31T12:18:30Z</time>
      </trkpt>
      <trkpt lat="45.05704" lon="5.54515">
        <ele>999.4</ele>
        <time>2021-08-31T12:18:32Z</time>
      </trkpt>
      <trkpt lat="45.05696" lon="5.54515">
        <ele>999.5</ele>
        <time>2021-08-31T12:18:34Z</time>
      </trkpt>
      <trkpt lat="45.05692" lon="5.54514">
        <ele>999.6</ele>
        <time>2021-08-31T12:18:35Z</time>
      </trkpt>
      <trkpt lat="45.05685" lon="5.54511">
        <ele>999.7</ele>
        <time>2021-08-31T12:18:37Z</time>
      </trkpt>
      <trkpt lat="45.0568" lon="5.54509">
        <ele>999.8</ele>
        <time>2021-08-31T12:18:38Z</time>
      </trkpt>
      <trkpt lat="45.05676" lon="5.54509">
        <ele>999.8</ele>
        <time>2021-08-31T12:18:39Z</time>
      </trkpt>
      <trkpt lat="45.0567" lon="5.54508">
        <ele>999.9</ele>
        <time>2021-08-31T12:18:41Z</time>
      </trkpt>
      <trkpt lat="45.05663" lon="5.54506">
        <ele>1000.1</ele>
        <time>2021-08-31T12:18:42Z</time>
      </trkpt>
      <trkpt lat="45.05658" lon="5.54505">
        <ele>1000.1</ele>
        <time>2021-08-31T12:18:43Z</time>
      </trkpt>
      <trkpt lat="45.05654" lon="5.54505">
        <ele>1000.2</ele>
        <time>2021-08-31T12:18:44Z</time>
      </trkpt>
      <trkpt lat="45.05649" lon="5.54505">
        <ele>1000.3</ele>
        <time>2021-08-31T12:18:45Z</time>
      </trkpt>
      <trkpt lat="45.05642" lon="5.54505">
        <ele>1000.5</ele>
        <time>2021-08-31T12:18:47Z</time>
      </trkpt>
      <trkpt lat="45.05638" lon="5.54506">
        <ele>1000.6</ele>
        <time>2021-08-31T12:18:48Z</time>
      </trkpt>
      <trkpt lat="45.05631" lon="5.54507">
        <ele>1000.7</ele>
        <time>2021-08-31T12:18:50Z</time>
      </trkpt>
      <trkpt lat="45.05624" lon="5.54508">
        <ele>1000.9</ele>
        <time>2021-08-31T12:18:52Z</time>
      </trkpt>
      <trkpt lat="45.05616" lon="5.54509">
        <ele>1001.1</ele>
        <time>2021-08-31T12:18:54Z</time>
      </trkpt>
      <trkpt lat="45.0561" lon="5.54511">
        <ele>1001.3</ele>
        <time>2021-08-31T12:18:56Z</time>
      </trkpt>
      <trkpt lat="45.05604" lon="5.54513">
        <ele>1001.4</ele>
        <time>2021-08-31T12:18:58Z</time>
      </trkpt>
      <trkpt lat="45.05601" lon="5.54514">
        <ele>1001.5</ele>
        <time>2021-08-31T12:18:59Z</time>
      </trkpt>
      <trkpt lat="45.05595" lon="5.54514">
        <ele>1001.7</ele>
        <time>2021-08-31T12:19:01Z</time>
      </trkpt>
      <trkpt lat="45.05591" lon="5.54513">
        <ele>1001.8</ele>
        <time>2021-08-31T12:19:02Z</time>
      </trkpt>
      <trkpt lat="45.05586" lon="5.54514">
        <ele>1002</ele>
        <time>2021-08-31T12:19:03Z</time>
      </trkpt>
      <trkpt lat="45.05581" lon="5.54516">
        <ele>1002.1</ele>
        <time>2021-08-31T12:19:05Z</time>
      </trkpt>
      <trkpt lat="45.05577" lon="5.54516">
        <ele>1002.3</ele>
        <time>2021-08-31T12:19:06Z</time>
      </trkpt>
      <trkpt lat="45.05573" lon="5.54516">
        <ele>1002.4</ele>
        <time>2021-08-31T12:19:07Z</time>
      </trkpt>
      <trkpt lat="45.0557" lon="5.54516">
        <ele>1002.5</ele>
        <time>2021-08-31T12:19:08Z</time>
      </trkpt>
      <trkpt lat="45.05562" lon="5.54517">
        <ele>1002.7</ele>
        <time>2021-08-31T12:19:10Z</time>
      </trkpt>
      <trkpt lat="45.05557" lon="5.54518">
        <ele>1002.9</ele>
        <time>2021-08-31T12:19:11Z</time>
      </trkpt>
      <trkpt lat="45.05553" lon="5.54517">
        <ele>1003</ele>
        <time>2021-08-31T12:19:13Z</time>
      </trkpt>
      <trkpt lat="45.05549" lon="5.54517">
        <ele>1003.1</ele>
        <time>2021-08-31T12:19:14Z</time>
      </trkpt>
      <trkpt lat="45.05545" lon="5.54517">
        <ele>1003.3</ele>
        <time>2021-08-31T12:19:16Z</time>
      </trkpt>
      <trkpt lat="45.05541" lon="5.54516">
        <ele>1003.4</ele>
        <time>2021-08-31T12:19:17Z</time>
      </trkpt>
      <trkpt lat="45.05537" lon="5.54515">
        <ele>1003.5</ele>
        <time>2021-08-31T12:19:18Z</time>
      </trkpt>
      <trkpt lat="45.05532" lon="5.54514">
        <ele>1003.6</ele>
        <time>2021-08-31T12:19:19Z</time>
      </trkpt>
      <trkpt lat="45.05528" lon="5.54515">
        <ele>1003.7</ele>
        <time>2021-08-31T12:19:20Z</time>
      </trkpt>
      <trkpt lat="45.05524" lon="5.54516">
        <ele>1003.9</ele>
        <time>2021-08-31T12:19:22Z</time>
      </trkpt>
      <trkpt lat="45.0552" lon="5.54516">
        <ele>1004</ele>
        <time>2021-08-31T12:19:23Z</time>
      </trkpt>
      <trkpt lat="45.05517" lon="5.54515">
        <ele>1004.1</ele>
        <time>2021-08-31T12:19:24Z</time>
      </trkpt>
      <trkpt lat="45.05509" lon="5.54513">
        <ele>1004.3</ele>
        <time>2021-08-31T12:19:26Z</time>
      </trkpt>
      <trkpt lat="45.05503" lon="5.54511">
        <ele>1004.5</ele>
        <time>2021-08-31T12:19:28Z</time>
      </trkpt>
      <trkpt lat="45.055" lon="5.5451">
        <ele>1004.6</ele>
        <time>2021-08-31T12:19:29Z</time>
      </trkpt>
      <trkpt lat="45.05495" lon="5.54507">
        <ele>1004.8</ele>
        <time>2021-08-31T12:19:31Z</time>
      </trkpt>
      <trkpt lat="45.05491" lon="5.54507">
        <ele>1004.9</ele>
        <time>2021-08-31T12:19:32Z</time>
      </trkpt>
      <trkpt lat="45.05488" lon="5.54506">
        <ele>1005</ele>
        <time>2021-08-31T12:19:34Z</time>
      </trkpt>
      <trkpt lat="45.05486" lon="5.54505">
        <ele>1005.1</ele>
        <time>2021-08-31T12:19:35Z</time>
      </trkpt>
      <trkpt lat="45.05479" lon="5.54502">
        <ele>1005.4</ele>
        <time>2021-08-31T12:19:37Z</time>
      </trkpt>
      <trkpt lat="45.05476" lon="5.54501">
        <ele>1005.5</ele>
        <time>2021-08-31T12:19:38Z</time>
      </trkpt>
      <trkpt lat="45.05473" lon="5.545">
        <ele>1005.6</ele>
        <time>2021-08-31T12:19:39Z</time>
      </trkpt>
      <trkpt lat="45.0547" lon="5.54498">
        <ele>1005.8</ele>
        <time>2021-08-31T12:19:40Z</time>
      </trkpt>
      <trkpt lat="45.05467" lon="5.54497">
        <ele>1005.9</ele>
        <time>2021-08-31T12:19:41Z</time>
      </trkpt>
      <trkpt lat="45.05465" lon="5.54496">
        <ele>1006</ele>
        <time>2021-08-31T12:19:42Z</time>
      </trkpt>
      <trkpt lat="45.05461" lon="5.54495">
        <ele>1006.2</ele>
        <time>2021-08-31T12:19:44Z</time>
      </trkpt>
      <trkpt lat="45.05458" lon="5.54495">
        <ele>1006.3</ele>
        <time>2021-08-31T12:19:45Z</time>
      </trkpt>
      <trkpt lat="45.05455" lon="5.54494">
        <ele>1006.4</ele>
        <time>2021-08-31T12:19:46Z</time>
      </trkpt>
      <trkpt lat="45.05452" lon="5.54495">
        <ele>1006.6</ele>
        <time>2021-08-31T12:19:48Z</time>
      </trkpt>
      <trkpt lat="45.05451" lon="5.54495">
        <ele>1006.6</ele>
        <time>2021-08-31T12:19:49Z</time>
      </trkpt>
      <trkpt lat="45.05449" lon="5.54496">
        <ele>1006.7</ele>
        <time>2021-08-31T12:19:50Z</time>
      </trkpt>
      <trkpt lat="45.05447" lon="5.54497">
        <ele>1006.8</ele>
        <time>2021-08-31T12:19:51Z</time>
      </trkpt>
      <trkpt lat="45.05444" lon="5.54498">
        <ele>1006.9</ele>
        <time>2021-08-31T12:19:53Z</time>
      </trkpt>
      <trkpt lat="45.05442" lon="5.54498">
        <ele>1007</ele>
        <time>2021-08-31T12:19:54Z</time>
      </trkpt>
      <trkpt lat="45.05439" lon="5.54499">
        <ele>1007.1</ele>
        <time>2021-08-31T12:19:55Z</time>
      </trkpt>
      <trkpt lat="45.05436" lon="5.54498">
        <ele>1007.3</ele>
        <time>2021-08-31T12:19:56Z</time>
      </trkpt>
      <trkpt lat="45.05432" lon="5.54498">
        <ele>1007.4</ele>
        <time>2021-08-31T12:19:57Z</time>
      </trkpt>
      <trkpt lat="45.05429" lon="5.54498">
        <ele>1007.6</ele>
        <time>2021-08-31T12:19:58Z</time>
      </trkpt>
      <trkpt lat="45.05426" lon="5.54498">
        <ele>1007.7</ele>
        <time>2021-08-31T12:19:59Z</time>
      </trkpt>
      <trkpt lat="45.05423" lon="5.54499">
        <ele>1007.9</ele>
        <time>2021-08-31T12:20:00Z</time>
      </trkpt>
      <trkpt lat="45.05418" lon="5.54501">
        <ele>1008</ele>
        <time>2021-08-31T12:20:01Z</time>
      </trkpt>
      <trkpt lat="45.05414" lon="5.54501">
        <ele>1008.2</ele>
        <time>2021-08-31T12:20:02Z</time>
      </trkpt>
      <trkpt lat="45.05411" lon="5.54502">
        <ele>1008.3</ele>
        <time>2021-08-31T12:20:03Z</time>
      </trkpt>
      <trkpt lat="45.05408" lon="5.54502">
        <ele>1008.4</ele>
        <time>2021-08-31T12:20:04Z</time>
      </trkpt>
      <trkpt lat="45.05404" lon="5.54503">
        <ele>1008.5</ele>
        <time>2021-08-31T12:20:05Z</time>
      </trkpt>
      <trkpt lat="45.05401" lon="5.54504">
        <ele>1008.7</ele>
        <time>2021-08-31T12:20:06Z</time>
      </trkpt>
      <trkpt lat="45.05397" lon="5.54504">
        <ele>1008.8</ele>
        <time>2021-08-31T12:20:08Z</time>
      </trkpt>
      <trkpt lat="45.05393" lon="5.54504">
        <ele>1009</ele>
        <time>2021-08-31T12:20:09Z</time>
      </trkpt>
      <trkpt lat="45.0539" lon="5.54504">
        <ele>1009.1</ele>
        <time>2021-08-31T12:20:10Z</time>
      </trkpt>
      <trkpt lat="45.05386" lon="5.54504">
        <ele>1009.3</ele>
        <time>2021-08-31T12:20:11Z</time>
      </trkpt>
      <trkpt lat="45.05385" lon="5.54503">
        <ele>1009.3</ele>
        <time>2021-08-31T12:20:12Z</time>
      </trkpt>
      <trkpt lat="45.05382" lon="5.54502">
        <ele>1009.5</ele>
        <time>2021-08-31T12:20:13Z</time>
      </trkpt>
      <trkpt lat="45.05378" lon="5.54502">
        <ele>1009.6</ele>
        <time>2021-08-31T12:20:14Z</time>
      </trkpt>
      <trkpt lat="45.05372" lon="5.54499">
        <ele>1009.8</ele>
        <time>2021-08-31T12:20:16Z</time>
      </trkpt>
      <trkpt lat="45.05368" lon="5.54498">
        <ele>1009.9</ele>
        <time>2021-08-31T12:20:17Z</time>
      </trkpt>
      <trkpt lat="45.05367" lon="5.54498">
        <ele>1009.9</ele>
        <time>2021-08-31T12:20:18Z</time>
      </trkpt>
      <trkpt lat="45.05361" lon="5.54499">
        <ele>1010.1</ele>
        <time>2021-08-31T12:20:20Z</time>
      </trkpt>
      <trkpt lat="45.05357" lon="5.54497">
        <ele>1010.2</ele>
        <time>2021-08-31T12:20:21Z</time>
      </trkpt>
      <trkpt lat="45.05354" lon="5.54497">
        <ele>1010.3</ele>
        <time>2021-08-31T12:20:22Z</time>
      </trkpt>
      <trkpt lat="45.0535" lon="5.54496">
        <ele>1010.3</ele>
        <time>2021-08-31T12:20:24Z</time>
      </trkpt>
      <trkpt lat="45.05347" lon="5.54496">
        <ele>1010.4</ele>
        <time>2021-08-31T12:20:25Z</time>
      </trkpt>
      <trkpt lat="45.05343" lon="5.54493">
        <ele>1010.5</ele>
        <time>2021-08-31T12:20:27Z</time>
      </trkpt>
      <trkpt lat="45.05339" lon="5.5449">
        <ele>1010.5</ele>
        <time>2021-08-31T12:20:28Z</time>
      </trkpt>
      <trkpt lat="45.05333" lon="5.54485">
        <ele>1010.7</ele>
        <time>2021-08-31T12:20:30Z</time>
      </trkpt>
      <trkpt lat="45.05326" lon="5.54481">
        <ele>1010.8</ele>
        <time>2021-08-31T12:20:32Z</time>
      </trkpt>
      <trkpt lat="45.05317" lon="5.54476">
        <ele>1011</ele>
        <time>2021-08-31T12:20:34Z</time>
      </trkpt>
      <trkpt lat="45.05311" lon="5.54474">
        <ele>1011.1</ele>
        <time>2021-08-31T12:20:36Z</time>
      </trkpt>
      <trkpt lat="45.05306" lon="5.54471">
        <ele>1011.2</ele>
        <time>2021-08-31T12:20:37Z</time>
      </trkpt>
      <trkpt lat="45.05302" lon="5.54467">
        <ele>1011.3</ele>
        <time>2021-08-31T12:20:38Z</time>
      </trkpt>
      <trkpt lat="45.05294" lon="5.54456">
        <ele>1011.5</ele>
        <time>2021-08-31T12:20:40Z</time>
      </trkpt>
      <trkpt lat="45.05291" lon="5.5445">
        <ele>1011.6</ele>
        <time>2021-08-31T12:20:41Z</time>
      </trkpt>
      <trkpt lat="45.05288" lon="5.54446">
        <ele>1011.7</ele>
        <time>2021-08-31T12:20:42Z</time>
      </trkpt>
      <trkpt lat="45.05281" lon="5.54437">
        <ele>1011.9</ele>
        <time>2021-08-31T12:20:44Z</time>
      </trkpt>
      <trkpt lat="45.05281" lon="5.54431">
        <ele>1012</ele>
        <time>2021-08-31T12:20:45Z</time>
      </trkpt>
      <trkpt lat="45.05278" lon="5.54426">
        <ele>1012.1</ele>
        <time>2021-08-31T12:20:46Z</time>
      </trkpt>
      <trkpt lat="45.05275" lon="5.54422">
        <ele>1012.2</ele>
        <time>2021-08-31T12:20:47Z</time>
      </trkpt>
      <trkpt lat="45.05272" lon="5.54419">
        <ele>1012.2</ele>
        <time>2021-08-31T12:20:48Z</time>
      </trkpt>
      <trkpt lat="45.05268" lon="5.54416">
        <ele>1012.3</ele>
        <time>2021-08-31T12:20:49Z</time>
      </trkpt>
      <trkpt lat="45.05264" lon="5.54412">
        <ele>1012.4</ele>
        <time>2021-08-31T12:20:51Z</time>
      </trkpt>
      <trkpt lat="45.0526" lon="5.54408">
        <ele>1012.4</ele>
        <time>2021-08-31T12:20:52Z</time>
      </trkpt>
      <trkpt lat="45.05254" lon="5.54406">
        <ele>1012.5</ele>
        <time>2021-08-31T12:20:54Z</time>
      </trkpt>
      <trkpt lat="45.0525" lon="5.54405">
        <ele>1012.6</ele>
        <time>2021-08-31T12:20:55Z</time>
      </trkpt>
      <trkpt lat="45.05246" lon="5.54405">
        <ele>1012.7</ele>
        <time>2021-08-31T12:20:57Z</time>
      </trkpt>
      <trkpt lat="45.05241" lon="5.54405">
        <ele>1012.7</ele>
        <time>2021-08-31T12:20:58Z</time>
      </trkpt>
      <trkpt lat="45.05238" lon="5.54405">
        <ele>1012.8</ele>
        <time>2021-08-31T12:20:59Z</time>
      </trkpt>
      <trkpt lat="45.05234" lon="5.54405">
        <ele>1012.9</ele>
        <time>2021-08-31T12:21:00Z</time>
      </trkpt>
      <trkpt lat="45.05228" lon="5.54402">
        <ele>1013</ele>
        <time>2021-08-31T12:21:02Z</time>
      </trkpt>
      <trkpt lat="45.05225" lon="5.54401">
        <ele>1013</ele>
        <time>2021-08-31T12:21:03Z</time>
      </trkpt>
      <trkpt lat="45.05221" lon="5.54401">
        <ele>1013.1</ele>
        <time>2021-08-31T12:21:04Z</time>
      </trkpt>
      <trkpt lat="45.05214" lon="5.54398">
        <ele>1013.2</ele>
        <time>2021-08-31T12:21:06Z</time>
      </trkpt>
      <trkpt lat="45.05207" lon="5.54398">
        <ele>1013.3</ele>
        <time>2021-08-31T12:21:08Z</time>
      </trkpt>
      <trkpt lat="45.05201" lon="5.54398">
        <ele>1013.4</ele>
        <time>2021-08-31T12:21:09Z</time>
      </trkpt>
      <trkpt lat="45.05197" lon="5.54399">
        <ele>1013.5</ele>
        <time>2021-08-31T12:21:11Z</time>
      </trkpt>
      <trkpt lat="45.05193" lon="5.54399">
        <ele>1013.6</ele>
        <time>2021-08-31T12:21:12Z</time>
      </trkpt>
      <trkpt lat="45.05189" lon="5.54399">
        <ele>1013.6</ele>
        <time>2021-08-31T12:21:13Z</time>
      </trkpt>
      <trkpt lat="45.05182" lon="5.54399">
        <ele>1013.8</ele>
        <time>2021-08-31T12:21:15Z</time>
      </trkpt>
      <trkpt lat="45.05179" lon="5.54399">
        <ele>1013.8</ele>
        <time>2021-08-31T12:21:16Z</time>
      </trkpt>
      <trkpt lat="45.05173" lon="5.54399">
        <ele>1014</ele>
        <time>2021-08-31T12:21:18Z</time>
      </trkpt>
      <trkpt lat="45.0517" lon="5.54398">
        <ele>1014</ele>
        <time>2021-08-31T12:21:19Z</time>
      </trkpt>
      <trkpt lat="45.05167" lon="5.54397">
        <ele>1014.1</ele>
        <time>2021-08-31T12:21:20Z</time>
      </trkpt>
      <trkpt lat="45.05163" lon="5.54396">
        <ele>1014.2</ele>
        <time>2021-08-31T12:21:21Z</time>
      </trkpt>
      <trkpt lat="45.05157" lon="5.54394">
        <ele>1014.4</ele>
        <time>2021-08-31T12:21:23Z</time>
      </trkpt>
      <trkpt lat="45.05153" lon="5.54393">
        <ele>1014.5</ele>
        <time>2021-08-31T12:21:24Z</time>
      </trkpt>
      <trkpt lat="45.05147" lon="5.54392">
        <ele>1014.6</ele>
        <time>2021-08-31T12:21:25Z</time>
      </trkpt>
      <trkpt lat="45.05144" lon="5.54392">
        <ele>1014.7</ele>
        <time>2021-08-31T12:21:27Z</time>
      </trkpt>
      <trkpt lat="45.05138" lon="5.5439">
        <ele>1014.8</ele>
        <time>2021-08-31T12:21:28Z</time>
      </trkpt>
      <trkpt lat="45.05135" lon="5.54389">
        <ele>1014.9</ele>
        <time>2021-08-31T12:21:29Z</time>
      </trkpt>
      <trkpt lat="45.05131" lon="5.54387">
        <ele>1015</ele>
        <time>2021-08-31T12:21:30Z</time>
      </trkpt>
      <trkpt lat="45.05126" lon="5.54381">
        <ele>1015.1</ele>
        <time>2021-08-31T12:21:32Z</time>
      </trkpt>
      <trkpt lat="45.05123" lon="5.54379">
        <ele>1015.2</ele>
        <time>2021-08-31T12:21:33Z</time>
      </trkpt>
      <trkpt lat="45.05118" lon="5.54376">
        <ele>1015.4</ele>
        <time>2021-08-31T12:21:34Z</time>
      </trkpt>
      <trkpt lat="45.05113" lon="5.54372">
        <ele>1015.6</ele>
        <time>2021-08-31T12:21:36Z</time>
      </trkpt>
      <trkpt lat="45.0511" lon="5.5437">
        <ele>1015.7</ele>
        <time>2021-08-31T12:21:37Z</time>
      </trkpt>
      <trkpt lat="45.05108" lon="5.54368">
        <ele>1015.8</ele>
        <time>2021-08-31T12:21:38Z</time>
      </trkpt>
      <trkpt lat="45.05104" lon="5.54366">
        <ele>1015.9</ele>
        <time>2021-08-31T12:21:40Z</time>
      </trkpt>
      <trkpt lat="45.051" lon="5.54363">
        <ele>1016</ele>
        <time>2021-08-31T12:21:41Z</time>
      </trkpt>
      <trkpt lat="45.05097" lon="5.5436">
        <ele>1016.2</ele>
        <time>2021-08-31T12:21:42Z</time>
      </trkpt>
      <trkpt lat="45.05094" lon="5.54357">
        <ele>1016.3</ele>
        <time>2021-08-31T12:21:43Z</time>
      </trkpt>
      <trkpt lat="45.05091" lon="5.54354">
        <ele>1016.4</ele>
        <time>2021-08-31T12:21:44Z</time>
      </trkpt>
      <trkpt lat="45.05085" lon="5.54347">
        <ele>1016.6</ele>
        <time>2021-08-31T12:21:46Z</time>
      </trkpt>
      <trkpt lat="45.05082" lon="5.54344">
        <ele>1016.7</ele>
        <time>2021-08-31T12:21:47Z</time>
      </trkpt>
      <trkpt lat="45.05079" lon="5.54342">
        <ele>1016.8</ele>
        <time>2021-08-31T12:21:48Z</time>
      </trkpt>
      <trkpt lat="45.05075" lon="5.54339">
        <ele>1017</ele>
        <time>2021-08-31T12:21:49Z</time>
      </trkpt>
      <trkpt lat="45.05071" lon="5.54337">
        <ele>1017.1</ele>
        <time>2021-08-31T12:21:50Z</time>
      </trkpt>
      <trkpt lat="45.05068" lon="5.54334">
        <ele>1017.2</ele>
        <time>2021-08-31T12:21:52Z</time>
      </trkpt>
      <trkpt lat="45.05066" lon="5.54331">
        <ele>1017.3</ele>
        <time>2021-08-31T12:21:53Z</time>
      </trkpt>
      <trkpt lat="45.05062" lon="5.54328">
        <ele>1017.4</ele>
        <time>2021-08-31T12:21:54Z</time>
      </trkpt>
      <trkpt lat="45.05059" lon="5.54325">
        <ele>1017.5</ele>
        <time>2021-08-31T12:21:55Z</time>
      </trkpt>
      <trkpt lat="45.05054" lon="5.5432">
        <ele>1017.7</ele>
        <time>2021-08-31T12:21:57Z</time>
      </trkpt>
      <trkpt lat="45.05049" lon="5.54316">
        <ele>1017.8</ele>
        <time>2021-08-31T12:21:58Z</time>
      </trkpt>
      <trkpt lat="45.05045" lon="5.54314">
        <ele>1017.9</ele>
        <time>2021-08-31T12:22:00Z</time>
      </trkpt>
      <trkpt lat="45.05042" lon="5.54312">
        <ele>1018.1</ele>
        <time>2021-08-31T12:22:01Z</time>
      </trkpt>
      <trkpt lat="45.05039" lon="5.54311">
        <ele>1018.1</ele>
        <time>2021-08-31T12:22:02Z</time>
      </trkpt>
      <trkpt lat="45.05034" lon="5.54309">
        <ele>1018.3</ele>
        <time>2021-08-31T12:22:04Z</time>
      </trkpt>
      <trkpt lat="45.05031" lon="5.54308">
        <ele>1018.4</ele>
        <time>2021-08-31T12:22:05Z</time>
      </trkpt>
      <trkpt lat="45.05027" lon="5.54307">
        <ele>1018.5</ele>
        <time>2021-08-31T12:22:06Z</time>
      </trkpt>
      <trkpt lat="45.05022" lon="5.54307">
        <ele>1018.6</ele>
        <time>2021-08-31T12:22:07Z</time>
      </trkpt>
      <trkpt lat="45.05018" lon="5.54305">
        <ele>1018.7</ele>
        <time>2021-08-31T12:22:09Z</time>
      </trkpt>
      <trkpt lat="45.05014" lon="5.54304">
        <ele>1018.8</ele>
        <time>2021-08-31T12:22:10Z</time>
      </trkpt>
      <trkpt lat="45.0501" lon="5.54303">
        <ele>1018.9</ele>
        <time>2021-08-31T12:22:11Z</time>
      </trkpt>
      <trkpt lat="45.05006" lon="5.54303">
        <ele>1019</ele>
        <time>2021-08-31T12:22:12Z</time>
      </trkpt>
      <trkpt lat="45.05" lon="5.54302">
        <ele>1019.1</ele>
        <time>2021-08-31T12:22:14Z</time>
      </trkpt>
      <trkpt lat="45.04991" lon="5.543">
        <ele>1019.2</ele>
        <time>2021-08-31T12:22:16Z</time>
      </trkpt>
      <trkpt lat="45.04985" lon="5.54299">
        <ele>1019.3</ele>
        <time>2021-08-31T12:22:18Z</time>
      </trkpt>
      <trkpt lat="45.0498" lon="5.54298">
        <ele>1019.4</ele>
        <time>2021-08-31T12:22:19Z</time>
      </trkpt>
      <trkpt lat="45.04977" lon="5.54299">
        <ele>1019.4</ele>
        <time>2021-08-31T12:22:20Z</time>
      </trkpt>
      <trkpt lat="45.0497" lon="5.54299">
        <ele>1019.5</ele>
        <time>2021-08-31T12:22:22Z</time>
      </trkpt>
      <trkpt lat="45.04964" lon="5.543">
        <ele>1019.6</ele>
        <time>2021-08-31T12:22:24Z</time>
      </trkpt>
      <trkpt lat="45.0496" lon="5.54301">
        <ele>1019.7</ele>
        <time>2021-08-31T12:22:25Z</time>
      </trkpt>
      <trkpt lat="45.04956" lon="5.54302">
        <ele>1019.7</ele>
        <time>2021-08-31T12:22:26Z</time>
      </trkpt>
      <trkpt lat="45.0495" lon="5.54303">
        <ele>1019.8</ele>
        <time>2021-08-31T12:22:28Z</time>
      </trkpt>
      <trkpt lat="45.04946" lon="5.54306">
        <ele>1019.8</ele>
        <time>2021-08-31T12:22:29Z</time>
      </trkpt>
      <trkpt lat="45.04945" lon="5.54308">
        <ele>1019.9</ele>
        <time>2021-08-31T12:22:30Z</time>
      </trkpt>
      <trkpt lat="45.04939" lon="5.54309">
        <ele>1019.9</ele>
        <time>2021-08-31T12:22:32Z</time>
      </trkpt>
      <trkpt lat="45.04936" lon="5.54308">
        <ele>1020</ele>
        <time>2021-08-31T12:22:33Z</time>
      </trkpt>
      <trkpt lat="45.04931" lon="5.54307">
        <ele>1020.1</ele>
        <time>2021-08-31T12:22:35Z</time>
      </trkpt>
      <trkpt lat="45.04926" lon="5.54305">
        <ele>1020.1</ele>
        <time>2021-08-31T12:22:36Z</time>
      </trkpt>
      <trkpt lat="45.04922" lon="5.54303">
        <ele>1020.2</ele>
        <time>2021-08-31T12:22:37Z</time>
      </trkpt>
      <trkpt lat="45.04919" lon="5.54301">
        <ele>1020.2</ele>
        <time>2021-08-31T12:22:38Z</time>
      </trkpt>
      <trkpt lat="45.0491" lon="5.543">
        <ele>1020.3</ele>
        <time>2021-08-31T12:22:40Z</time>
      </trkpt>
      <trkpt lat="45.04904" lon="5.54302">
        <ele>1020.3</ele>
        <time>2021-08-31T12:22:41Z</time>
      </trkpt>
      <trkpt lat="45.04898" lon="5.54304">
        <ele>1020.4</ele>
        <time>2021-08-31T12:22:43Z</time>
      </trkpt>
      <trkpt lat="45.0489" lon="5.54307">
        <ele>1020.5</ele>
        <time>2021-08-31T12:22:45Z</time>
      </trkpt>
      <trkpt lat="45.04881" lon="5.54309">
        <ele>1020.7</ele>
        <time>2021-08-31T12:22:47Z</time>
      </trkpt>
      <trkpt lat="45.04873" lon="5.54312">
        <ele>1020.8</ele>
        <time>2021-08-31T12:22:49Z</time>
      </trkpt>
      <trkpt lat="45.04868" lon="5.54312">
        <ele>1020.8</ele>
        <time>2021-08-31T12:22:50Z</time>
      </trkpt>
      <trkpt lat="45.04859" lon="5.54314">
        <ele>1021</ele>
        <time>2021-08-31T12:22:52Z</time>
      </trkpt>
      <trkpt lat="45.04851" lon="5.54314">
        <ele>1021.2</ele>
        <time>2021-08-31T12:22:54Z</time>
      </trkpt>
      <trkpt lat="45.04844" lon="5.54315">
        <ele>1021.4</ele>
        <time>2021-08-31T12:22:56Z</time>
      </trkpt>
      <trkpt lat="45.04839" lon="5.54316">
        <ele>1021.5</ele>
        <time>2021-08-31T12:22:57Z</time>
      </trkpt>
      <trkpt lat="45.04833" lon="5.54317">
        <ele>1021.7</ele>
        <time>2021-08-31T12:22:59Z</time>
      </trkpt>
      <trkpt lat="45.04829" lon="5.54317">
        <ele>1021.8</ele>
        <time>2021-08-31T12:23:00Z</time>
      </trkpt>
      <trkpt lat="45.04821" lon="5.5432">
        <ele>1022.1</ele>
        <time>2021-08-31T12:23:02Z</time>
      </trkpt>
      <trkpt lat="45.04817" lon="5.54321">
        <ele>1022.2</ele>
        <time>2021-08-31T12:23:03Z</time>
      </trkpt>
      <trkpt lat="45.04814" lon="5.54323">
        <ele>1022.4</ele>
        <time>2021-08-31T12:23:04Z</time>
      </trkpt>
      <trkpt lat="45.0481" lon="5.54323">
        <ele>1022.5</ele>
        <time>2021-08-31T12:23:05Z</time>
      </trkpt>
      <trkpt lat="45.04807" lon="5.54323">
        <ele>1022.7</ele>
        <time>2021-08-31T12:23:06Z</time>
      </trkpt>
      <trkpt lat="45.04806" lon="5.54322">
        <ele>1022.7</ele>
        <time>2021-08-31T12:23:07Z</time>
      </trkpt>
      <trkpt lat="45.04804" lon="5.54322">
        <ele>1022.8</ele>
        <time>2021-08-31T12:23:08Z</time>
      </trkpt>
      <trkpt lat="45.04801" lon="5.54322">
        <ele>1023</ele>
        <time>2021-08-31T12:23:10Z</time>
      </trkpt>
      <trkpt lat="45.04799" lon="5.54322">
        <ele>1023.1</ele>
        <time>2021-08-31T12:23:11Z</time>
      </trkpt>
      <trkpt lat="45.04798" lon="5.54321">
        <ele>1023.1</ele>
        <time>2021-08-31T12:23:12Z</time>
      </trkpt>
      <trkpt lat="45.04794" lon="5.5432">
        <ele>1023.3</ele>
        <time>2021-08-31T12:23:13Z</time>
      </trkpt>
      <trkpt lat="45.04793" lon="5.5432">
        <ele>1023.4</ele>
        <time>2021-08-31T12:23:14Z</time>
      </trkpt>
      <trkpt lat="45.04791" lon="5.54319">
        <ele>1023.5</ele>
        <time>2021-08-31T12:23:15Z</time>
      </trkpt>
      <trkpt lat="45.04789" lon="5.54319">
        <ele>1023.6</ele>
        <time>2021-08-31T12:23:16Z</time>
      </trkpt>
      <trkpt lat="45.04787" lon="5.5432">
        <ele>1023.7</ele>
        <time>2021-08-31T12:23:17Z</time>
      </trkpt>
      <trkpt lat="45.04785" lon="5.5432">
        <ele>1023.7</ele>
        <time>2021-08-31T12:23:18Z</time>
      </trkpt>
      <trkpt lat="45.04782" lon="5.5432">
        <ele>1023.9</ele>
        <time>2021-08-31T12:23:20Z</time>
      </trkpt>
      <trkpt lat="45.04778" lon="5.54319">
        <ele>1024.1</ele>
        <time>2021-08-31T12:23:21Z</time>
      </trkpt>
      <trkpt lat="45.04773" lon="5.54322">
        <ele>1024.3</ele>
        <time>2021-08-31T12:23:23Z</time>
      </trkpt>
      <trkpt lat="45.0477" lon="5.54323">
        <ele>1024.4</ele>
        <time>2021-08-31T12:23:24Z</time>
      </trkpt>
      <trkpt lat="45.04764" lon="5.54323">
        <ele>1024.6</ele>
        <time>2021-08-31T12:23:26Z</time>
      </trkpt>
      <trkpt lat="45.0476" lon="5.54322">
        <ele>1024.7</ele>
        <time>2021-08-31T12:23:27Z</time>
      </trkpt>
      <trkpt lat="45.04757" lon="5.54322">
        <ele>1024.8</ele>
        <time>2021-08-31T12:23:29Z</time>
      </trkpt>
      <trkpt lat="45.04753" lon="5.54321">
        <ele>1024.9</ele>
        <time>2021-08-31T12:23:30Z</time>
      </trkpt>
      <trkpt lat="45.0475" lon="5.54321">
        <ele>1025</ele>
        <time>2021-08-31T12:23:31Z</time>
      </trkpt>
      <trkpt lat="45.04747" lon="5.54321">
        <ele>1025.1</ele>
        <time>2021-08-31T12:23:32Z</time>
      </trkpt>
      <trkpt lat="45.04744" lon="5.54322">
        <ele>1025.2</ele>
        <time>2021-08-31T12:23:33Z</time>
      </trkpt>
      <trkpt lat="45.04741" lon="5.54323">
        <ele>1025.3</ele>
        <time>2021-08-31T12:23:34Z</time>
      </trkpt>
      <trkpt lat="45.04738" lon="5.54324">
        <ele>1025.3</ele>
        <time>2021-08-31T12:23:35Z</time>
      </trkpt>
      <trkpt lat="45.04735" lon="5.54325">
        <ele>1025.4</ele>
        <time>2021-08-31T12:23:36Z</time>
      </trkpt>
      <trkpt lat="45.0473" lon="5.54325">
        <ele>1025.5</ele>
        <time>2021-08-31T12:23:38Z</time>
      </trkpt>
      <trkpt lat="45.04724" lon="5.54326">
        <ele>1025.6</ele>
        <time>2021-08-31T12:23:39Z</time>
      </trkpt>
      <trkpt lat="45.04721" lon="5.54327">
        <ele>1025.7</ele>
        <time>2021-08-31T12:23:40Z</time>
      </trkpt>
      <trkpt lat="45.04717" lon="5.54328">
        <ele>1025.8</ele>
        <time>2021-08-31T12:23:41Z</time>
      </trkpt>
      <trkpt lat="45.0471" lon="5.54329">
        <ele>1025.9</ele>
        <time>2021-08-31T12:23:42Z</time>
      </trkpt>
      <trkpt lat="45.04706" lon="5.54329">
        <ele>1026</ele>
        <time>2021-08-31T12:23:43Z</time>
      </trkpt>
      <trkpt lat="45.04702" lon="5.5433">
        <ele>1026.1</ele>
        <time>2021-08-31T12:23:45Z</time>
      </trkpt>
      <trkpt lat="45.04698" lon="5.54332">
        <ele>1026.2</ele>
        <time>2021-08-31T12:23:46Z</time>
      </trkpt>
      <trkpt lat="45.04694" lon="5.54333">
        <ele>1026.2</ele>
        <time>2021-08-31T12:23:47Z</time>
      </trkpt>
      <trkpt lat="45.04691" lon="5.54334">
        <ele>1026.3</ele>
        <time>2021-08-31T12:23:49Z</time>
      </trkpt>
      <trkpt lat="45.04687" lon="5.54335">
        <ele>1026.5</ele>
        <time>2021-08-31T12:23:50Z</time>
      </trkpt>
      <trkpt lat="45.04682" lon="5.54336">
        <ele>1026.6</ele>
        <time>2021-08-31T12:23:52Z</time>
      </trkpt>
      <trkpt lat="45.04679" lon="5.54335">
        <ele>1026.7</ele>
        <time>2021-08-31T12:23:53Z</time>
      </trkpt>
      <trkpt lat="45.04674" lon="5.54335">
        <ele>1026.9</ele>
        <time>2021-08-31T12:23:54Z</time>
      </trkpt>
      <trkpt lat="45.04669" lon="5.54334">
        <ele>1027.1</ele>
        <time>2021-08-31T12:23:56Z</time>
      </trkpt>
      <trkpt lat="45.04664" lon="5.54332">
        <ele>1027.3</ele>
        <time>2021-08-31T12:23:57Z</time>
      </trkpt>
      <trkpt lat="45.04659" lon="5.54329">
        <ele>1027.5</ele>
        <time>2021-08-31T12:23:59Z</time>
      </trkpt>
      <trkpt lat="45.04653" lon="5.54326">
        <ele>1027.7</ele>
        <time>2021-08-31T12:24:01Z</time>
      </trkpt>
      <trkpt lat="45.04649" lon="5.54324">
        <ele>1027.9</ele>
        <time>2021-08-31T12:24:02Z</time>
      </trkpt>
      <trkpt lat="45.04645" lon="5.54322">
        <ele>1028.2</ele>
        <time>2021-08-31T12:24:04Z</time>
      </trkpt>
      <trkpt lat="45.04643" lon="5.54322">
        <ele>1028.2</ele>
        <time>2021-08-31T12:24:05Z</time>
      </trkpt>
      <trkpt lat="45.04641" lon="5.54323">
        <ele>1028.3</ele>
        <time>2021-08-31T12:24:06Z</time>
      </trkpt>
      <trkpt lat="45.04637" lon="5.54323">
        <ele>1028.5</ele>
        <time>2021-08-31T12:24:08Z</time>
      </trkpt>
      <trkpt lat="45.04633" lon="5.5432">
        <ele>1028.7</ele>
        <time>2021-08-31T12:24:10Z</time>
      </trkpt>
      <trkpt lat="45.0463" lon="5.54318">
        <ele>1028.9</ele>
        <time>2021-08-31T12:24:11Z</time>
      </trkpt>
      <trkpt lat="45.04629" lon="5.54318">
        <ele>1028.9</ele>
        <time>2021-08-31T12:24:12Z</time>
      </trkpt>
      <trkpt lat="45.04626" lon="5.54318">
        <ele>1029.1</ele>
        <time>2021-08-31T12:24:14Z</time>
      </trkpt>
      <trkpt lat="45.0462" lon="5.54316">
        <ele>1029.4</ele>
        <time>2021-08-31T12:24:16Z</time>
      </trkpt>
      <trkpt lat="45.04618" lon="5.54314">
        <ele>1029.5</ele>
        <time>2021-08-31T12:24:17Z</time>
      </trkpt>
      <trkpt lat="45.04615" lon="5.54313">
        <ele>1029.7</ele>
        <time>2021-08-31T12:24:19Z</time>
      </trkpt>
      <trkpt lat="45.04611" lon="5.5431">
        <ele>1029.9</ele>
        <time>2021-08-31T12:24:20Z</time>
      </trkpt>
      <trkpt lat="45.04609" lon="5.54309">
        <ele>1030</ele>
        <time>2021-08-31T12:24:21Z</time>
      </trkpt>
      <trkpt lat="45.04608" lon="5.54309">
        <ele>1030.1</ele>
        <time>2021-08-31T12:24:22Z</time>
      </trkpt>
      <trkpt lat="45.04604" lon="5.54308">
        <ele>1030.3</ele>
        <time>2021-08-31T12:24:24Z</time>
      </trkpt>
      <trkpt lat="45.04601" lon="5.54307">
        <ele>1030.5</ele>
        <time>2021-08-31T12:24:25Z</time>
      </trkpt>
      <trkpt lat="45.04596" lon="5.54307">
        <ele>1030.8</ele>
        <time>2021-08-31T12:24:27Z</time>
      </trkpt>
      <trkpt lat="45.04591" lon="5.54306">
        <ele>1031.1</ele>
        <time>2021-08-31T12:24:29Z</time>
      </trkpt>
      <trkpt lat="45.04589" lon="5.54302">
        <ele>1031.3</ele>
        <time>2021-08-31T12:24:30Z</time>
      </trkpt>
      <trkpt lat="45.04586" lon="5.54295">
        <ele>1031.6</ele>
        <time>2021-08-31T12:24:32Z</time>
      </trkpt>
      <trkpt lat="45.04584" lon="5.54292">
        <ele>1031.8</ele>
        <time>2021-08-31T12:24:33Z</time>
      </trkpt>
      <trkpt lat="45.0458" lon="5.54289">
        <ele>1032.1</ele>
        <time>2021-08-31T12:24:34Z</time>
      </trkpt>
      <trkpt lat="45.04578" lon="5.54286">
        <ele>1032.3</ele>
        <time>2021-08-31T12:24:35Z</time>
      </trkpt>
      <trkpt lat="45.04573" lon="5.5428">
        <ele>1032.6</ele>
        <time>2021-08-31T12:24:37Z</time>
      </trkpt>
      <trkpt lat="45.0457" lon="5.54278">
        <ele>1032.8</ele>
        <time>2021-08-31T12:24:38Z</time>
      </trkpt>
      <trkpt lat="45.04568" lon="5.54276">
        <ele>1033</ele>
        <time>2021-08-31T12:24:39Z</time>
      </trkpt>
      <trkpt lat="45.04565" lon="5.54272">
        <ele>1033.2</ele>
        <time>2021-08-31T12:24:41Z</time>
      </trkpt>
      <trkpt lat="45.04562" lon="5.54269">
        <ele>1033.4</ele>
        <time>2021-08-31T12:24:42Z</time>
      </trkpt>
      <trkpt lat="45.0456" lon="5.54266">
        <ele>1033.5</ele>
        <time>2021-08-31T12:24:43Z</time>
      </trkpt>
      <trkpt lat="45.04558" lon="5.54263">
        <ele>1033.7</ele>
        <time>2021-08-31T12:24:44Z</time>
      </trkpt>
      <trkpt lat="45.04555" lon="5.5426">
        <ele>1033.9</ele>
        <time>2021-08-31T12:24:45Z</time>
      </trkpt>
      <trkpt lat="45.04553" lon="5.54257">
        <ele>1034.1</ele>
        <time>2021-08-31T12:24:46Z</time>
      </trkpt>
      <trkpt lat="45.04549" lon="5.54251">
        <ele>1034.5</ele>
        <time>2021-08-31T12:24:48Z</time>
      </trkpt>
      <trkpt lat="45.04546" lon="5.54249">
        <ele>1034.6</ele>
        <time>2021-08-31T12:24:49Z</time>
      </trkpt>
      <trkpt lat="45.04545" lon="5.54246">
        <ele>1034.8</ele>
        <time>2021-08-31T12:24:50Z</time>
      </trkpt>
      <trkpt lat="45.04544" lon="5.54245">
        <ele>1034.8</ele>
        <time>2021-08-31T12:24:51Z</time>
      </trkpt>
      <trkpt lat="45.04542" lon="5.54242">
        <ele>1035</ele>
        <time>2021-08-31T12:24:52Z</time>
      </trkpt>
      <trkpt lat="45.04541" lon="5.54241">
        <ele>1035.1</ele>
        <time>2021-08-31T12:24:53Z</time>
      </trkpt>
      <trkpt lat="45.04538" lon="5.54238">
        <ele>1035.3</ele>
        <time>2021-08-31T12:24:55Z</time>
      </trkpt>
      <trkpt lat="45.04535" lon="5.54236">
        <ele>1035.5</ele>
        <time>2021-08-31T12:24:56Z</time>
      </trkpt>
      <trkpt lat="45.04532" lon="5.54235">
        <ele>1035.7</ele>
        <time>2021-08-31T12:24:57Z</time>
      </trkpt>
      <trkpt lat="45.0453" lon="5.54233">
        <ele>1035.8</ele>
        <time>2021-08-31T12:24:58Z</time>
      </trkpt>
      <trkpt lat="45.04527" lon="5.54231">
        <ele>1036</ele>
        <time>2021-08-31T12:25:00Z</time>
      </trkpt>
      <trkpt lat="45.04524" lon="5.54228">
        <ele>1036.2</ele>
        <time>2021-08-31T12:25:02Z</time>
      </trkpt>
      <trkpt lat="45.04522" lon="5.54227">
        <ele>1036.3</ele>
        <time>2021-08-31T12:25:03Z</time>
      </trkpt>
      <trkpt lat="45.04519" lon="5.54225">
        <ele>1036.5</ele>
        <time>2021-08-31T12:25:04Z</time>
      </trkpt>
      <trkpt lat="45.04515" lon="5.54221">
        <ele>1036.7</ele>
        <time>2021-08-31T12:25:06Z</time>
      </trkpt>
      <trkpt lat="45.04513" lon="5.54219">
        <ele>1036.8</ele>
        <time>2021-08-31T12:25:07Z</time>
      </trkpt>
      <trkpt lat="45.0451" lon="5.54217">
        <ele>1037</ele>
        <time>2021-08-31T12:25:08Z</time>
      </trkpt>
      <trkpt lat="45.04506" lon="5.54214">
        <ele>1037.2</ele>
        <time>2021-08-31T12:25:10Z</time>
      </trkpt>
      <trkpt lat="45.04504" lon="5.54212">
        <ele>1037.3</ele>
        <time>2021-08-31T12:25:11Z</time>
      </trkpt>
      <trkpt lat="45.04501" lon="5.5421">
        <ele>1037.5</ele>
        <time>2021-08-31T12:25:13Z</time>
      </trkpt>
      <trkpt lat="45.04496" lon="5.54207">
        <ele>1037.7</ele>
        <time>2021-08-31T12:25:15Z</time>
      </trkpt>
      <trkpt lat="45.04494" lon="5.54205">
        <ele>1037.8</ele>
        <time>2021-08-31T12:25:16Z</time>
      </trkpt>
      <trkpt lat="45.0449" lon="5.54201">
        <ele>1038</ele>
        <time>2021-08-31T12:25:18Z</time>
      </trkpt>
      <trkpt lat="45.04488" lon="5.54199">
        <ele>1038.2</ele>
        <time>2021-08-31T12:25:19Z</time>
      </trkpt>
      <trkpt lat="45.04485" lon="5.54198">
        <ele>1038.3</ele>
        <time>2021-08-31T12:25:20Z</time>
      </trkpt>
      <trkpt lat="45.04482" lon="5.54196">
        <ele>1038.4</ele>
        <time>2021-08-31T12:25:21Z</time>
      </trkpt>
      <trkpt lat="45.04479" lon="5.54192">
        <ele>1038.6</ele>
        <time>2021-08-31T12:25:23Z</time>
      </trkpt>
      <trkpt lat="45.04476" lon="5.54186">
        <ele>1038.9</ele>
        <time>2021-08-31T12:25:25Z</time>
      </trkpt>
      <trkpt lat="45.04474" lon="5.54182">
        <ele>1039</ele>
        <time>2021-08-31T12:25:26Z</time>
      </trkpt>
      <trkpt lat="45.04471" lon="5.54178">
        <ele>1039.2</ele>
        <time>2021-08-31T12:25:27Z</time>
      </trkpt>
      <trkpt lat="45.0447" lon="5.54176">
        <ele>1039.3</ele>
        <time>2021-08-31T12:25:28Z</time>
      </trkpt>
      <trkpt lat="45.04467" lon="5.54174">
        <ele>1039.4</ele>
        <time>2021-08-31T12:25:30Z</time>
      </trkpt>
      <trkpt lat="45.04465" lon="5.54171">
        <ele>1039.6</ele>
        <time>2021-08-31T12:25:31Z</time>
      </trkpt>
      <trkpt lat="45.04462" lon="5.54168">
        <ele>1039.7</ele>
        <time>2021-08-31T12:25:33Z</time>
      </trkpt>
      <trkpt lat="45.04461" lon="5.54165">
        <ele>1039.9</ele>
        <time>2021-08-31T12:25:34Z</time>
      </trkpt>
      <trkpt lat="45.04457" lon="5.54159">
        <ele>1040.1</ele>
        <time>2021-08-31T12:25:36Z</time>
      </trkpt>
      <trkpt lat="45.04455" lon="5.54155">
        <ele>1040.3</ele>
        <time>2021-08-31T12:25:37Z</time>
      </trkpt>
      <trkpt lat="45.04454" lon="5.54154">
        <ele>1040.3</ele>
        <time>2021-08-31T12:25:38Z</time>
      </trkpt>
      <trkpt lat="45.04451" lon="5.54151">
        <ele>1040.5</ele>
        <time>2021-08-31T12:25:39Z</time>
      </trkpt>
      <trkpt lat="45.0445" lon="5.5415">
        <ele>1040.5</ele>
        <time>2021-08-31T12:25:40Z</time>
      </trkpt>
      <trkpt lat="45.04447" lon="5.54148">
        <ele>1040.7</ele>
        <time>2021-08-31T12:25:41Z</time>
      </trkpt>
      <trkpt lat="45.04446" lon="5.54147">
        <ele>1040.7</ele>
        <time>2021-08-31T12:25:42Z</time>
      </trkpt>
      <trkpt lat="45.04442" lon="5.54145">
        <ele>1040.9</ele>
        <time>2021-08-31T12:25:44Z</time>
      </trkpt>
      <trkpt lat="45.04438" lon="5.54142">
        <ele>1041.1</ele>
        <time>2021-08-31T12:25:46Z</time>
      </trkpt>
      <trkpt lat="45.04436" lon="5.54139">
        <ele>1041.2</ele>
        <time>2021-08-31T12:25:47Z</time>
      </trkpt>
      <trkpt lat="45.04434" lon="5.54135">
        <ele>1041.4</ele>
        <time>2021-08-31T12:25:48Z</time>
      </trkpt>
      <trkpt lat="45.04431" lon="5.54131">
        <ele>1041.5</ele>
        <time>2021-08-31T12:25:49Z</time>
      </trkpt>
      <trkpt lat="45.04426" lon="5.54126">
        <ele>1041.7</ele>
        <time>2021-08-31T12:25:51Z</time>
      </trkpt>
      <trkpt lat="45.04421" lon="5.54121">
        <ele>1041.9</ele>
        <time>2021-08-31T12:25:53Z</time>
      </trkpt>
      <trkpt lat="45.04419" lon="5.54119">
        <ele>1042</ele>
        <time>2021-08-31T12:25:54Z</time>
      </trkpt>
      <trkpt lat="45.04417" lon="5.54117">
        <ele>1042.1</ele>
        <time>2021-08-31T12:25:55Z</time>
      </trkpt>
      <trkpt lat="45.04413" lon="5.54112">
        <ele>1042.3</ele>
        <time>2021-08-31T12:25:57Z</time>
      </trkpt>
      <trkpt lat="45.04411" lon="5.54109">
        <ele>1042.4</ele>
        <time>2021-08-31T12:25:58Z</time>
      </trkpt>
      <trkpt lat="45.04407" lon="5.54103">
        <ele>1042.5</ele>
        <time>2021-08-31T12:26:00Z</time>
      </trkpt>
      <trkpt lat="45.04405" lon="5.54099">
        <ele>1042.6</ele>
        <time>2021-08-31T12:26:01Z</time>
      </trkpt>
      <trkpt lat="45.04403" lon="5.54096">
        <ele>1042.7</ele>
        <time>2021-08-31T12:26:02Z</time>
      </trkpt>
      <trkpt lat="45.04399" lon="5.54091">
        <ele>1042.8</ele>
        <time>2021-08-31T12:26:04Z</time>
      </trkpt>
      <trkpt lat="45.04397" lon="5.54089">
        <ele>1042.9</ele>
        <time>2021-08-31T12:26:05Z</time>
      </trkpt>
      <trkpt lat="45.04396" lon="5.54085">
        <ele>1043</ele>
        <time>2021-08-31T12:26:06Z</time>
      </trkpt>
      <trkpt lat="45.04394" lon="5.54082">
        <ele>1043</ele>
        <time>2021-08-31T12:26:07Z</time>
      </trkpt>
      <trkpt lat="45.04391" lon="5.5408">
        <ele>1043.1</ele>
        <time>2021-08-31T12:26:09Z</time>
      </trkpt>
      <trkpt lat="45.04389" lon="5.54079">
        <ele>1043.1</ele>
        <time>2021-08-31T12:26:10Z</time>
      </trkpt>
      <trkpt lat="45.04385" lon="5.54076">
        <ele>1043.3</ele>
        <time>2021-08-31T12:26:12Z</time>
      </trkpt>
      <trkpt lat="45.04382" lon="5.5407">
        <ele>1043.4</ele>
        <time>2021-08-31T12:26:14Z</time>
      </trkpt>
      <trkpt lat="45.04378" lon="5.54064">
        <ele>1043.5</ele>
        <time>2021-08-31T12:26:16Z</time>
      </trkpt>
      <trkpt lat="45.04375" lon="5.5406">
        <ele>1043.6</ele>
        <time>2021-08-31T12:26:17Z</time>
      </trkpt>
      <trkpt lat="45.04375" lon="5.54059">
        <ele>1043.6</ele>
        <time>2021-08-31T12:26:18Z</time>
      </trkpt>
      <trkpt lat="45.04373" lon="5.54052">
        <ele>1043.8</ele>
        <time>2021-08-31T12:26:20Z</time>
      </trkpt>
      <trkpt lat="45.04369" lon="5.54048">
        <ele>1043.9</ele>
        <time>2021-08-31T12:26:22Z</time>
      </trkpt>
      <trkpt lat="45.04365" lon="5.54046">
        <ele>1044</ele>
        <time>2021-08-31T12:26:23Z</time>
      </trkpt>
      <trkpt lat="45.04364" lon="5.54046">
        <ele>1044</ele>
        <time>2021-08-31T12:26:24Z</time>
      </trkpt>
      <trkpt lat="45.04362" lon="5.54045">
        <ele>1044.1</ele>
        <time>2021-08-31T12:26:25Z</time>
      </trkpt>
      <trkpt lat="45.04359" lon="5.54042">
        <ele>1044.2</ele>
        <time>2021-08-31T12:26:27Z</time>
      </trkpt>
      <trkpt lat="45.04356" lon="5.54039">
        <ele>1044.3</ele>
        <time>2021-08-31T12:26:28Z</time>
      </trkpt>
      <trkpt lat="45.04353" lon="5.54035">
        <ele>1044.4</ele>
        <time>2021-08-31T12:26:29Z</time>
      </trkpt>
      <trkpt lat="45.04352" lon="5.54034">
        <ele>1044.4</ele>
        <time>2021-08-31T12:26:30Z</time>
      </trkpt>
      <trkpt lat="45.0435" lon="5.5403">
        <ele>1044.6</ele>
        <time>2021-08-31T12:26:32Z</time>
      </trkpt>
      <trkpt lat="45.04348" lon="5.54028">
        <ele>1044.6</ele>
        <time>2021-08-31T12:26:33Z</time>
      </trkpt>
      <trkpt lat="45.04346" lon="5.54024">
        <ele>1044.7</ele>
        <time>2021-08-31T12:26:34Z</time>
      </trkpt>
      <trkpt lat="45.04345" lon="5.54023">
        <ele>1044.8</ele>
        <time>2021-08-31T12:26:35Z</time>
      </trkpt>
      <trkpt lat="45.04342" lon="5.54021">
        <ele>1044.9</ele>
        <time>2021-08-31T12:26:36Z</time>
      </trkpt>
      <trkpt lat="45.04338" lon="5.54015">
        <ele>1045</ele>
        <time>2021-08-31T12:26:38Z</time>
      </trkpt>
      <trkpt lat="45.04336" lon="5.54012">
        <ele>1045.1</ele>
        <time>2021-08-31T12:26:39Z</time>
      </trkpt>
      <trkpt lat="45.04334" lon="5.5401">
        <ele>1045.2</ele>
        <time>2021-08-31T12:26:40Z</time>
      </trkpt>
      <trkpt lat="45.04332" lon="5.54004">
        <ele>1045.4</ele>
        <time>2021-08-31T12:26:42Z</time>
      </trkpt>
      <trkpt lat="45.0433" lon="5.53999">
        <ele>1045.6</ele>
        <time>2021-08-31T12:26:43Z</time>
      </trkpt>
      <trkpt lat="45.04329" lon="5.53993">
        <ele>1045.8</ele>
        <time>2021-08-31T12:26:45Z</time>
      </trkpt>
      <trkpt lat="45.04328" lon="5.53988">
        <ele>1046</ele>
        <time>2021-08-31T12:26:46Z</time>
      </trkpt>
      <trkpt lat="45.04327" lon="5.53987">
        <ele>1046.1</ele>
        <time>2021-08-31T12:26:47Z</time>
      </trkpt>
      <trkpt lat="45.04324" lon="5.53983">
        <ele>1046.3</ele>
        <time>2021-08-31T12:26:48Z</time>
      </trkpt>
      <trkpt lat="45.04323" lon="5.53982">
        <ele>1046.4</ele>
        <time>2021-08-31T12:26:49Z</time>
      </trkpt>
      <trkpt lat="45.04321" lon="5.53979">
        <ele>1046.5</ele>
        <time>2021-08-31T12:26:50Z</time>
      </trkpt>
      <trkpt lat="45.04317" lon="5.53975">
        <ele>1046.8</ele>
        <time>2021-08-31T12:26:52Z</time>
      </trkpt>
      <trkpt lat="45.04315" lon="5.53972">
        <ele>1047</ele>
        <time>2021-08-31T12:26:53Z</time>
      </trkpt>
      <trkpt lat="45.04314" lon="5.53972">
        <ele>1047</ele>
        <time>2021-08-31T12:26:54Z</time>
      </trkpt>
      <trkpt lat="45.04311" lon="5.53968">
        <ele>1047.2</ele>
        <time>2021-08-31T12:26:55Z</time>
      </trkpt>
      <trkpt lat="45.0431" lon="5.53967">
        <ele>1047.3</ele>
        <time>2021-08-31T12:26:56Z</time>
      </trkpt>
      <trkpt lat="45.04307" lon="5.5396">
        <ele>1047.6</ele>
        <time>2021-08-31T12:26:58Z</time>
      </trkpt>
      <trkpt lat="45.04305" lon="5.53957">
        <ele>1047.8</ele>
        <time>2021-08-31T12:26:59Z</time>
      </trkpt>
      <trkpt lat="45.04303" lon="5.53952">
        <ele>1047.7</ele>
        <time>2021-08-31T12:27:00Z</time>
      </trkpt>
      <trkpt lat="45.04302" lon="5.5395">
        <ele>1047.7</ele>
        <time>2021-08-31T12:27:01Z</time>
      </trkpt>
      <trkpt lat="45.043" lon="5.53947">
        <ele>1047.7</ele>
        <time>2021-08-31T12:27:02Z</time>
      </trkpt>
      <trkpt lat="45.04299" lon="5.53945">
        <ele>1047.7</ele>
        <time>2021-08-31T12:27:03Z</time>
      </trkpt>
      <trkpt lat="45.04296" lon="5.53941">
        <ele>1047.9</ele>
        <time>2021-08-31T12:27:05Z</time>
      </trkpt>
      <trkpt lat="45.04294" lon="5.53937">
        <ele>1048</ele>
        <time>2021-08-31T12:27:06Z</time>
      </trkpt>
      <trkpt lat="45.04291" lon="5.53935">
        <ele>1048.2</ele>
        <time>2021-08-31T12:27:07Z</time>
      </trkpt>
      <trkpt lat="45.04288" lon="5.53932">
        <ele>1048.4</ele>
        <time>2021-08-31T12:27:08Z</time>
      </trkpt>
      <trkpt lat="45.04286" lon="5.53931">
        <ele>1048.4</ele>
        <time>2021-08-31T12:27:09Z</time>
      </trkpt>
      <trkpt lat="45.04284" lon="5.53929">
        <ele>1048.6</ele>
        <time>2021-08-31T12:27:11Z</time>
      </trkpt>
      <trkpt lat="45.0428" lon="5.53928">
        <ele>1048.8</ele>
        <time>2021-08-31T12:27:12Z</time>
      </trkpt>
      <trkpt lat="45.04279" lon="5.53926">
        <ele>1048.9</ele>
        <time>2021-08-31T12:27:13Z</time>
      </trkpt>
      <trkpt lat="45.04275" lon="5.5392">
        <ele>1049.1</ele>
        <time>2021-08-31T12:27:15Z</time>
      </trkpt>
      <trkpt lat="45.04273" lon="5.53915">
        <ele>1049.4</ele>
        <time>2021-08-31T12:27:17Z</time>
      </trkpt>
      <trkpt lat="45.04271" lon="5.53912">
        <ele>1049.5</ele>
        <time>2021-08-31T12:27:18Z</time>
      </trkpt>
      <trkpt lat="45.04267" lon="5.53908">
        <ele>1049.8</ele>
        <time>2021-08-31T12:27:20Z</time>
      </trkpt>
      <trkpt lat="45.04264" lon="5.53906">
        <ele>1050</ele>
        <time>2021-08-31T12:27:22Z</time>
      </trkpt>
      <trkpt lat="45.04261" lon="5.53903">
        <ele>1050.2</ele>
        <time>2021-08-31T12:27:23Z</time>
      </trkpt>
      <trkpt lat="45.0426" lon="5.53902">
        <ele>1050.3</ele>
        <time>2021-08-31T12:27:24Z</time>
      </trkpt>
      <trkpt lat="45.04256" lon="5.53899">
        <ele>1050.6</ele>
        <time>2021-08-31T12:27:25Z</time>
      </trkpt>
      <trkpt lat="45.04254" lon="5.53898">
        <ele>1050.7</ele>
        <time>2021-08-31T12:27:26Z</time>
      </trkpt>
      <trkpt lat="45.04252" lon="5.53896">
        <ele>1050.9</ele>
        <time>2021-08-31T12:27:27Z</time>
      </trkpt>
      <trkpt lat="45.04248" lon="5.53895">
        <ele>1051.2</ele>
        <time>2021-08-31T12:27:29Z</time>
      </trkpt>
      <trkpt lat="45.04244" lon="5.53894">
        <ele>1051.5</ele>
        <time>2021-08-31T12:27:31Z</time>
      </trkpt>
      <trkpt lat="45.0424" lon="5.53893">
        <ele>1051.8</ele>
        <time>2021-08-31T12:27:33Z</time>
      </trkpt>
      <trkpt lat="45.04238" lon="5.53892">
        <ele>1051.9</ele>
        <time>2021-08-31T12:27:34Z</time>
      </trkpt>
      <trkpt lat="45.04237" lon="5.53888">
        <ele>1052.2</ele>
        <time>2021-08-31T12:27:36Z</time>
      </trkpt>
      <trkpt lat="45.04236" lon="5.53884">
        <ele>1052.4</ele>
        <time>2021-08-31T12:27:37Z</time>
      </trkpt>
      <trkpt lat="45.04233" lon="5.5388">
        <ele>1052.7</ele>
        <time>2021-08-31T12:27:39Z</time>
      </trkpt>
      <trkpt lat="45.04232" lon="5.53878">
        <ele>1052.9</ele>
        <time>2021-08-31T12:27:40Z</time>
      </trkpt>
      <trkpt lat="45.04229" lon="5.53874">
        <ele>1053.1</ele>
        <time>2021-08-31T12:27:42Z</time>
      </trkpt>
      <trkpt lat="45.04227" lon="5.53872">
        <ele>1053.4</ele>
        <time>2021-08-31T12:27:43Z</time>
      </trkpt>
      <trkpt lat="45.04226" lon="5.53871">
        <ele>1053.4</ele>
        <time>2021-08-31T12:27:44Z</time>
      </trkpt>
      <trkpt lat="45.04224" lon="5.53869">
        <ele>1053.7</ele>
        <time>2021-08-31T12:27:45Z</time>
      </trkpt>
      <trkpt lat="45.04222" lon="5.53865">
        <ele>1053.9</ele>
        <time>2021-08-31T12:27:46Z</time>
      </trkpt>
      <trkpt lat="45.04221" lon="5.53863">
        <ele>1054</ele>
        <time>2021-08-31T12:27:47Z</time>
      </trkpt>
      <trkpt lat="45.04219" lon="5.53859">
        <ele>1054.3</ele>
        <time>2021-08-31T12:27:49Z</time>
      </trkpt>
      <trkpt lat="45.04216" lon="5.53857">
        <ele>1054.5</ele>
        <time>2021-08-31T12:27:50Z</time>
      </trkpt>
      <trkpt lat="45.04215" lon="5.53851">
        <ele>1054.8</ele>
        <time>2021-08-31T12:27:52Z</time>
      </trkpt>
      <trkpt lat="45.04213" lon="5.53848">
        <ele>1055.1</ele>
        <time>2021-08-31T12:27:54Z</time>
      </trkpt>
      <trkpt lat="45.0421" lon="5.53844">
        <ele>1055.4</ele>
        <time>2021-08-31T12:27:56Z</time>
      </trkpt>
      <trkpt lat="45.04209" lon="5.53842">
        <ele>1055.6</ele>
        <time>2021-08-31T12:27:57Z</time>
      </trkpt>
      <trkpt lat="45.04206" lon="5.53839">
        <ele>1055.8</ele>
        <time>2021-08-31T12:27:59Z</time>
      </trkpt>
      <trkpt lat="45.04204" lon="5.53838">
        <ele>1056</ele>
        <time>2021-08-31T12:28:00Z</time>
      </trkpt>
      <trkpt lat="45.04201" lon="5.53835">
        <ele>1056.3</ele>
        <time>2021-08-31T12:28:01Z</time>
      </trkpt>
      <trkpt lat="45.042" lon="5.53833">
        <ele>1056.5</ele>
        <time>2021-08-31T12:28:02Z</time>
      </trkpt>
      <trkpt lat="45.04197" lon="5.53829">
        <ele>1056.8</ele>
        <time>2021-08-31T12:28:04Z</time>
      </trkpt>
      <trkpt lat="45.04195" lon="5.53826">
        <ele>1057</ele>
        <time>2021-08-31T12:28:05Z</time>
      </trkpt>
      <trkpt lat="45.04195" lon="5.53826">
        <ele>1057.1</ele>
        <time>2021-08-31T12:28:06Z</time>
      </trkpt>
      <trkpt lat="45.04192" lon="5.53822">
        <ele>1057.3</ele>
        <time>2021-08-31T12:28:07Z</time>
      </trkpt>
      <trkpt lat="45.04191" lon="5.5382">
        <ele>1057.4</ele>
        <time>2021-08-31T12:28:08Z</time>
      </trkpt>
      <trkpt lat="45.04188" lon="5.53816">
        <ele>1057.8</ele>
        <time>2021-08-31T12:28:10Z</time>
      </trkpt>
      <trkpt lat="45.04187" lon="5.53815">
        <ele>1057.9</ele>
        <time>2021-08-31T12:28:11Z</time>
      </trkpt>
      <trkpt lat="45.04186" lon="5.53814">
        <ele>1058</ele>
        <time>2021-08-31T12:28:12Z</time>
      </trkpt>
      <trkpt lat="45.04185" lon="5.53812">
        <ele>1058.1</ele>
        <time>2021-08-31T12:28:13Z</time>
      </trkpt>
      <trkpt lat="45.04182" lon="5.5381">
        <ele>1058.3</ele>
        <time>2021-08-31T12:28:15Z</time>
      </trkpt>
      <trkpt lat="45.04181" lon="5.53809">
        <ele>1058.4</ele>
        <time>2021-08-31T12:28:16Z</time>
      </trkpt>
      <trkpt lat="45.04178" lon="5.53807">
        <ele>1058.4</ele>
        <time>2021-08-31T12:28:18Z</time>
      </trkpt>
      <trkpt lat="45.04177" lon="5.53804">
        <ele>1058.5</ele>
        <time>2021-08-31T12:28:19Z</time>
      </trkpt>
      <trkpt lat="45.04176" lon="5.53804">
        <ele>1058.5</ele>
        <time>2021-08-31T12:28:20Z</time>
      </trkpt>
      <trkpt lat="45.04175" lon="5.53803">
        <ele>1058.5</ele>
        <time>2021-08-31T12:28:21Z</time>
      </trkpt>
      <trkpt lat="45.04174" lon="5.53802">
        <ele>1058.6</ele>
        <time>2021-08-31T12:28:22Z</time>
      </trkpt>
      <trkpt lat="45.04172" lon="5.53805">
        <ele>1058.7</ele>
        <time>2021-08-31T12:28:24Z</time>
      </trkpt>
      <trkpt lat="45.0417" lon="5.53808">
        <ele>1058.8</ele>
        <time>2021-08-31T12:28:25Z</time>
      </trkpt>
      <trkpt lat="45.04169" lon="5.53809">
        <ele>1058.8</ele>
        <time>2021-08-31T12:28:26Z</time>
      </trkpt>
      <trkpt lat="45.04167" lon="5.53814">
        <ele>1058.9</ele>
        <time>2021-08-31T12:28:28Z</time>
      </trkpt>
      <trkpt lat="45.04168" lon="5.53821">
        <ele>1059.1</ele>
        <time>2021-08-31T12:28:30Z</time>
      </trkpt>
      <trkpt lat="45.04168" lon="5.53824">
        <ele>1059.1</ele>
        <time>2021-08-31T12:28:31Z</time>
      </trkpt>
      <trkpt lat="45.04168" lon="5.53827">
        <ele>1059.2</ele>
        <time>2021-08-31T12:28:32Z</time>
      </trkpt>
      <trkpt lat="45.04169" lon="5.53829">
        <ele>1059.2</ele>
        <time>2021-08-31T12:28:34Z</time>
      </trkpt>
      <trkpt lat="45.04171" lon="5.5383">
        <ele>1059.3</ele>
        <time>2021-08-31T12:28:35Z</time>
      </trkpt>
      <trkpt lat="45.04172" lon="5.53831">
        <ele>1059.3</ele>
        <time>2021-08-31T12:28:36Z</time>
      </trkpt>
      <trkpt lat="45.04172" lon="5.53832">
        <ele>1059.3</ele>
        <time>2021-08-31T12:28:38Z</time>
      </trkpt>
      <trkpt lat="45.04173" lon="5.53832">
        <ele>1059.4</ele>
        <time>2021-08-31T12:28:39Z</time>
      </trkpt>
      <trkpt lat="45.04173" lon="5.53833">
        <ele>1059.4</ele>
        <time>2021-08-31T12:28:40Z</time>
      </trkpt>
      <trkpt lat="45.04173" lon="5.53834">
        <ele>1059.4</ele>
        <time>2021-08-31T12:28:41Z</time>
      </trkpt>
      <trkpt lat="45.04173" lon="5.53836">
        <ele>1059.4</ele>
        <time>2021-08-31T12:28:42Z</time>
      </trkpt>
      <trkpt lat="45.04175" lon="5.53839">
        <ele>1059.5</ele>
        <time>2021-08-31T12:28:44Z</time>
      </trkpt>
      <trkpt lat="45.04177" lon="5.5384">
        <ele>1059.5</ele>
        <time>2021-08-31T12:28:45Z</time>
      </trkpt>
      <trkpt lat="45.0418" lon="5.53845">
        <ele>1059.6</ele>
        <time>2021-08-31T12:28:47Z</time>
      </trkpt>
      <trkpt lat="45.04182" lon="5.53849">
        <ele>1059.7</ele>
        <time>2021-08-31T12:28:48Z</time>
      </trkpt>
      <trkpt lat="45.04184" lon="5.53853">
        <ele>1059.8</ele>
        <time>2021-08-31T12:28:49Z</time>
      </trkpt>
      <trkpt lat="45.04186" lon="5.53857">
        <ele>1059.9</ele>
        <time>2021-08-31T12:28:51Z</time>
      </trkpt>
      <trkpt lat="45.04187" lon="5.53858">
        <ele>1059.9</ele>
        <time>2021-08-31T12:28:52Z</time>
      </trkpt>
      <trkpt lat="45.04189" lon="5.53861">
        <ele>1059.9</ele>
        <time>2021-08-31T12:28:54Z</time>
      </trkpt>
      <trkpt lat="45.04191" lon="5.53863">
        <ele>1060</ele>
        <time>2021-08-31T12:28:56Z</time>
      </trkpt>
      <trkpt lat="45.04192" lon="5.53869">
        <ele>1060.1</ele>
        <time>2021-08-31T12:28:58Z</time>
      </trkpt>
      <trkpt lat="45.04192" lon="5.53871">
        <ele>1060.1</ele>
        <time>2021-08-31T12:28:59Z</time>
      </trkpt>
      <trkpt lat="45.04192" lon="5.53873">
        <ele>1060.1</ele>
        <time>2021-08-31T12:29:00Z</time>
      </trkpt>
      <trkpt lat="45.04193" lon="5.53871">
        <ele>1060.1</ele>
        <time>2021-08-31T12:29:01Z</time>
      </trkpt>
      <trkpt lat="45.04195" lon="5.53868">
        <ele>1060.1</ele>
        <time>2021-08-31T12:29:03Z</time>
      </trkpt>
      <trkpt lat="45.04196" lon="5.53864">
        <ele>1060</ele>
        <time>2021-08-31T12:29:04Z</time>
      </trkpt>
      <trkpt lat="45.04198" lon="5.53861">
        <ele>1060</ele>
        <time>2021-08-31T12:29:05Z</time>
      </trkpt>
      <trkpt lat="45.04199" lon="5.53858">
        <ele>1059.9</ele>
        <time>2021-08-31T12:29:06Z</time>
      </trkpt>
      <trkpt lat="45.04201" lon="5.53854">
        <ele>1059.9</ele>
        <time>2021-08-31T12:29:07Z</time>
      </trkpt>
      <trkpt lat="45.04202" lon="5.53851">
        <ele>1059.8</ele>
        <time>2021-08-31T12:29:09Z</time>
      </trkpt>
      <trkpt lat="45.04204" lon="5.53848">
        <ele>1059.8</ele>
        <time>2021-08-31T12:29:10Z</time>
      </trkpt>
      <trkpt lat="45.04205" lon="5.53844">
        <ele>1059.8</ele>
        <time>2021-08-31T12:29:12Z</time>
      </trkpt>
      <trkpt lat="45.04207" lon="5.53841">
        <ele>1059.7</ele>
        <time>2021-08-31T12:30:24Z</time>
      </trkpt>
      <trkpt lat="45.04208" lon="5.53838">
        <ele>1059.7</ele>
        <time>2021-08-31T12:30:25Z</time>
      </trkpt>
      <trkpt lat="45.042" lon="5.53834">
        <ele>1059.5</ele>
        <time>2021-08-31T12:30:27Z</time>
      </trkpt>
      <trkpt lat="45.04185" lon="5.53833">
        <ele>1059.3</ele>
        <time>2021-08-31T12:30:28Z</time>
      </trkpt>
      <trkpt lat="45.0417" lon="5.53825">
        <ele>1059.1</ele>
        <time>2021-08-31T12:30:30Z</time>
      </trkpt>
      <trkpt lat="45.04165" lon="5.53819">
        <ele>1059.7</ele>
        <time>2021-08-31T12:30:31Z</time>
      </trkpt>
      <trkpt lat="45.04156" lon="5.53809">
        <ele>1060.7</ele>
        <time>2021-08-31T12:30:33Z</time>
      </trkpt>
      <trkpt lat="45.04147" lon="5.53805">
        <ele>1061.4</ele>
        <time>2021-08-31T12:30:35Z</time>
      </trkpt>
      <trkpt lat="45.04142" lon="5.53804">
        <ele>1061.8</ele>
        <time>2021-08-31T12:30:36Z</time>
      </trkpt>
      <trkpt lat="45.04138" lon="5.53803">
        <ele>1062.2</ele>
        <time>2021-08-31T12:30:37Z</time>
      </trkpt>
      <trkpt lat="45.04134" lon="5.53803">
        <ele>1062.5</ele>
        <time>2021-08-31T12:30:38Z</time>
      </trkpt>
      <trkpt lat="45.04129" lon="5.53801">
        <ele>1062.9</ele>
        <time>2021-08-31T12:30:40Z</time>
      </trkpt>
      <trkpt lat="45.04125" lon="5.53797">
        <ele>1063.3</ele>
        <time>2021-08-31T12:30:41Z</time>
      </trkpt>
      <trkpt lat="45.04121" lon="5.53794">
        <ele>1063.7</ele>
        <time>2021-08-31T12:30:42Z</time>
      </trkpt>
      <trkpt lat="45.04115" lon="5.53791">
        <ele>1064.3</ele>
        <time>2021-08-31T12:30:44Z</time>
      </trkpt>
      <trkpt lat="45.0411" lon="5.53787">
        <ele>1064.7</ele>
        <time>2021-08-31T12:30:46Z</time>
      </trkpt>
      <trkpt lat="45.04107" lon="5.53784">
        <ele>1065</ele>
        <time>2021-08-31T12:30:48Z</time>
      </trkpt>
      <trkpt lat="45.04103" lon="5.53783">
        <ele>1065.3</ele>
        <time>2021-08-31T12:30:49Z</time>
      </trkpt>
      <trkpt lat="45.04102" lon="5.53782">
        <ele>1065.4</ele>
        <time>2021-08-31T12:30:50Z</time>
      </trkpt>
      <trkpt lat="45.04099" lon="5.53781">
        <ele>1065.6</ele>
        <time>2021-08-31T12:30:51Z</time>
      </trkpt>
      <trkpt lat="45.04098" lon="5.5378">
        <ele>1065.7</ele>
        <time>2021-08-31T12:30:52Z</time>
      </trkpt>
      <trkpt lat="45.04095" lon="5.53777">
        <ele>1066.1</ele>
        <time>2021-08-31T12:30:54Z</time>
      </trkpt>
      <trkpt lat="45.0409" lon="5.53774">
        <ele>1066.4</ele>
        <time>2021-08-31T12:30:56Z</time>
      </trkpt>
      <trkpt lat="45.04087" lon="5.5377">
        <ele>1066.8</ele>
        <time>2021-08-31T12:30:58Z</time>
      </trkpt>
      <trkpt lat="45.04085" lon="5.53768">
        <ele>1067.1</ele>
        <time>2021-08-31T12:30:59Z</time>
      </trkpt>
      <trkpt lat="45.04083" lon="5.53767">
        <ele>1067.2</ele>
        <time>2021-08-31T12:31:00Z</time>
      </trkpt>
      <trkpt lat="45.0408" lon="5.53765">
        <ele>1067.5</ele>
        <time>2021-08-31T12:31:02Z</time>
      </trkpt>
      <trkpt lat="45.04078" lon="5.53764">
        <ele>1067.7</ele>
        <time>2021-08-31T12:31:03Z</time>
      </trkpt>
      <trkpt lat="45.04075" lon="5.53761">
        <ele>1067.9</ele>
        <time>2021-08-31T12:31:05Z</time>
      </trkpt>
      <trkpt lat="45.04071" lon="5.53759">
        <ele>1068.3</ele>
        <time>2021-08-31T12:31:07Z</time>
      </trkpt>
      <trkpt lat="45.04068" lon="5.53757">
        <ele>1068.6</ele>
        <time>2021-08-31T12:31:09Z</time>
      </trkpt>
      <trkpt lat="45.04065" lon="5.53755">
        <ele>1068.8</ele>
        <time>2021-08-31T12:31:10Z</time>
      </trkpt>
      <trkpt lat="45.04064" lon="5.53754">
        <ele>1069</ele>
        <time>2021-08-31T12:31:11Z</time>
      </trkpt>
      <trkpt lat="45.04062" lon="5.53753">
        <ele>1069.1</ele>
        <time>2021-08-31T12:31:12Z</time>
      </trkpt>
      <trkpt lat="45.0406" lon="5.53752">
        <ele>1069.3</ele>
        <time>2021-08-31T12:31:13Z</time>
      </trkpt>
      <trkpt lat="45.04057" lon="5.5375">
        <ele>1069.5</ele>
        <time>2021-08-31T12:31:15Z</time>
      </trkpt>
      <trkpt lat="45.04054" lon="5.53749">
        <ele>1069.7</ele>
        <time>2021-08-31T12:31:17Z</time>
      </trkpt>
      <trkpt lat="45.0405" lon="5.53749">
        <ele>1070</ele>
        <time>2021-08-31T12:31:19Z</time>
      </trkpt>
      <trkpt lat="45.04049" lon="5.53749">
        <ele>1070.1</ele>
        <time>2021-08-31T12:31:20Z</time>
      </trkpt>
      <trkpt lat="45.04047" lon="5.53747">
        <ele>1070.2</ele>
        <time>2021-08-31T12:31:21Z</time>
      </trkpt>
      <trkpt lat="45.04043" lon="5.53743">
        <ele>1070.5</ele>
        <time>2021-08-31T12:31:23Z</time>
      </trkpt>
      <trkpt lat="45.04042" lon="5.53743">
        <ele>1070.6</ele>
        <time>2021-08-31T12:31:24Z</time>
      </trkpt>
      <trkpt lat="45.04041" lon="5.53742">
        <ele>1070.6</ele>
        <time>2021-08-31T12:31:25Z</time>
      </trkpt>
      <trkpt lat="45.0404" lon="5.5374">
        <ele>1070.7</ele>
        <time>2021-08-31T12:31:27Z</time>
      </trkpt>
      <trkpt lat="45.04038" lon="5.5374">
        <ele>1070.8</ele>
        <time>2021-08-31T12:31:28Z</time>
      </trkpt>
      <trkpt lat="45.04037" lon="5.53738">
        <ele>1070.9</ele>
        <time>2021-08-31T12:31:29Z</time>
      </trkpt>
      <trkpt lat="45.04035" lon="5.53738">
        <ele>1071</ele>
        <time>2021-08-31T12:31:30Z</time>
      </trkpt>
      <trkpt lat="45.04033" lon="5.53735">
        <ele>1071.2</ele>
        <time>2021-08-31T12:31:32Z</time>
      </trkpt>
      <trkpt lat="45.04029" lon="5.53735">
        <ele>1071.4</ele>
        <time>2021-08-31T12:31:34Z</time>
      </trkpt>
      <trkpt lat="45.04026" lon="5.53734">
        <ele>1071.5</ele>
        <time>2021-08-31T12:31:35Z</time>
      </trkpt>
      <trkpt lat="45.04022" lon="5.53733">
        <ele>1071.7</ele>
        <time>2021-08-31T12:31:37Z</time>
      </trkpt>
      <trkpt lat="45.04018" lon="5.53731">
        <ele>1072</ele>
        <time>2021-08-31T12:31:38Z</time>
      </trkpt>
      <trkpt lat="45.04015" lon="5.53729">
        <ele>1072.2</ele>
        <time>2021-08-31T12:31:39Z</time>
      </trkpt>
      <trkpt lat="45.04011" lon="5.53726">
        <ele>1072.4</ele>
        <time>2021-08-31T12:31:41Z</time>
      </trkpt>
      <trkpt lat="45.04005" lon="5.53723">
        <ele>1072.8</ele>
        <time>2021-08-31T12:31:43Z</time>
      </trkpt>
      <trkpt lat="45.04001" lon="5.5372">
        <ele>1073</ele>
        <time>2021-08-31T12:31:45Z</time>
      </trkpt>
      <trkpt lat="45.03997" lon="5.53717">
        <ele>1073.3</ele>
        <time>2021-08-31T12:31:46Z</time>
      </trkpt>
      <trkpt lat="45.03996" lon="5.53717">
        <ele>1073.4</ele>
        <time>2021-08-31T12:31:47Z</time>
      </trkpt>
      <trkpt lat="45.03992" lon="5.53715">
        <ele>1073.6</ele>
        <time>2021-08-31T12:31:49Z</time>
      </trkpt>
      <trkpt lat="45.03986" lon="5.53713">
        <ele>1073.9</ele>
        <time>2021-08-31T12:31:51Z</time>
      </trkpt>
      <trkpt lat="45.03982" lon="5.53712">
        <ele>1074.2</ele>
        <time>2021-08-31T12:31:53Z</time>
      </trkpt>
      <trkpt lat="45.03978" lon="5.53712">
        <ele>1074.4</ele>
        <time>2021-08-31T12:31:54Z</time>
      </trkpt>
      <trkpt lat="45.03974" lon="5.5371">
        <ele>1074.6</ele>
        <time>2021-08-31T12:31:55Z</time>
      </trkpt>
      <trkpt lat="45.03973" lon="5.5371">
        <ele>1074.6</ele>
        <time>2021-08-31T12:31:56Z</time>
      </trkpt>
      <trkpt lat="45.03969" lon="5.53707">
        <ele>1074.8</ele>
        <time>2021-08-31T12:31:58Z</time>
      </trkpt>
      <trkpt lat="45.03965" lon="5.537">
        <ele>1075.1</ele>
        <time>2021-08-31T12:32:00Z</time>
      </trkpt>
      <trkpt lat="45.03963" lon="5.53695">
        <ele>1075.3</ele>
        <time>2021-08-31T12:32:01Z</time>
      </trkpt>
      <trkpt lat="45.03961" lon="5.53689">
        <ele>1075.5</ele>
        <time>2021-08-31T12:32:03Z</time>
      </trkpt>
      <trkpt lat="45.0396" lon="5.53687">
        <ele>1075.6</ele>
        <time>2021-08-31T12:32:04Z</time>
      </trkpt>
      <trkpt lat="45.03959" lon="5.53685">
        <ele>1075.6</ele>
        <time>2021-08-31T12:32:05Z</time>
      </trkpt>
      <trkpt lat="45.03957" lon="5.53679">
        <ele>1075.8</ele>
        <time>2021-08-31T12:32:06Z</time>
      </trkpt>
      <trkpt lat="45.03957" lon="5.53677">
        <ele>1075.9</ele>
        <time>2021-08-31T12:32:07Z</time>
      </trkpt>
      <trkpt lat="45.03954" lon="5.5367">
        <ele>1076.1</ele>
        <time>2021-08-31T12:32:09Z</time>
      </trkpt>
      <trkpt lat="45.03951" lon="5.53667">
        <ele>1076.2</ele>
        <time>2021-08-31T12:32:10Z</time>
      </trkpt>
      <trkpt lat="45.03949" lon="5.53664">
        <ele>1076.3</ele>
        <time>2021-08-31T12:32:11Z</time>
      </trkpt>
      <trkpt lat="45.03947" lon="5.5366">
        <ele>1076.5</ele>
        <time>2021-08-31T12:32:12Z</time>
      </trkpt>
      <trkpt lat="45.03945" lon="5.53654">
        <ele>1076.6</ele>
        <time>2021-08-31T12:32:14Z</time>
      </trkpt>
      <trkpt lat="45.03942" lon="5.53649">
        <ele>1076.8</ele>
        <time>2021-08-31T12:32:16Z</time>
      </trkpt>
      <trkpt lat="45.03938" lon="5.53645">
        <ele>1077</ele>
        <time>2021-08-31T12:32:18Z</time>
      </trkpt>
      <trkpt lat="45.03936" lon="5.53642">
        <ele>1077.1</ele>
        <time>2021-08-31T12:32:19Z</time>
      </trkpt>
      <trkpt lat="45.03933" lon="5.53637">
        <ele>1077.3</ele>
        <time>2021-08-31T12:32:21Z</time>
      </trkpt>
      <trkpt lat="45.03931" lon="5.53634">
        <ele>1077.4</ele>
        <time>2021-08-31T12:32:22Z</time>
      </trkpt>
      <trkpt lat="45.03927" lon="5.53629">
        <ele>1077.6</ele>
        <time>2021-08-31T12:32:24Z</time>
      </trkpt>
      <trkpt lat="45.03924" lon="5.53626">
        <ele>1077.7</ele>
        <time>2021-08-31T12:32:25Z</time>
      </trkpt>
      <trkpt lat="45.03921" lon="5.53621">
        <ele>1077.9</ele>
        <time>2021-08-31T12:32:26Z</time>
      </trkpt>
      <trkpt lat="45.03919" lon="5.53619">
        <ele>1078</ele>
        <time>2021-08-31T12:32:27Z</time>
      </trkpt>
      <trkpt lat="45.03915" lon="5.53615">
        <ele>1078.1</ele>
        <time>2021-08-31T12:32:29Z</time>
      </trkpt>
      <trkpt lat="45.03911" lon="5.53611">
        <ele>1078.3</ele>
        <time>2021-08-31T12:32:31Z</time>
      </trkpt>
      <trkpt lat="45.03908" lon="5.53608">
        <ele>1078.4</ele>
        <time>2021-08-31T12:32:32Z</time>
      </trkpt>
      <trkpt lat="45.03904" lon="5.53604">
        <ele>1078.6</ele>
        <time>2021-08-31T12:32:34Z</time>
      </trkpt>
      <trkpt lat="45.03899" lon="5.53597">
        <ele>1078.8</ele>
        <time>2021-08-31T12:32:36Z</time>
      </trkpt>
      <trkpt lat="45.03896" lon="5.53594">
        <ele>1078.9</ele>
        <time>2021-08-31T12:32:37Z</time>
      </trkpt>
      <trkpt lat="45.03892" lon="5.53592">
        <ele>1079.1</ele>
        <time>2021-08-31T12:32:38Z</time>
      </trkpt>
      <trkpt lat="45.03887" lon="5.53588">
        <ele>1079.2</ele>
        <time>2021-08-31T12:32:40Z</time>
      </trkpt>
      <trkpt lat="45.03884" lon="5.53586">
        <ele>1079.3</ele>
        <time>2021-08-31T12:32:41Z</time>
      </trkpt>
      <trkpt lat="45.03879" lon="5.53581">
        <ele>1079.6</ele>
        <time>2021-08-31T12:32:43Z</time>
      </trkpt>
      <trkpt lat="45.03876" lon="5.53578">
        <ele>1079.7</ele>
        <time>2021-08-31T12:32:44Z</time>
      </trkpt>
      <trkpt lat="45.03874" lon="5.53574">
        <ele>1079.8</ele>
        <time>2021-08-31T12:32:45Z</time>
      </trkpt>
      <trkpt lat="45.0387" lon="5.5357">
        <ele>1080</ele>
        <time>2021-08-31T12:32:46Z</time>
      </trkpt>
      <trkpt lat="45.03866" lon="5.53566">
        <ele>1080.2</ele>
        <time>2021-08-31T12:32:48Z</time>
      </trkpt>
      <trkpt lat="45.03864" lon="5.53563">
        <ele>1080.3</ele>
        <time>2021-08-31T12:32:49Z</time>
      </trkpt>
      <trkpt lat="45.0386" lon="5.53558">
        <ele>1080.5</ele>
        <time>2021-08-31T12:32:51Z</time>
      </trkpt>
      <trkpt lat="45.03857" lon="5.53556">
        <ele>1080.6</ele>
        <time>2021-08-31T12:32:52Z</time>
      </trkpt>
      <trkpt lat="45.03852" lon="5.53551">
        <ele>1080.9</ele>
        <time>2021-08-31T12:32:54Z</time>
      </trkpt>
      <trkpt lat="45.03847" lon="5.53547">
        <ele>1081.1</ele>
        <time>2021-08-31T12:32:56Z</time>
      </trkpt>
      <trkpt lat="45.03841" lon="5.53544">
        <ele>1081.3</ele>
        <time>2021-08-31T12:32:58Z</time>
      </trkpt>
      <trkpt lat="45.03838" lon="5.53543">
        <ele>1081.4</ele>
        <time>2021-08-31T12:32:59Z</time>
      </trkpt>
      <trkpt lat="45.03835" lon="5.53541">
        <ele>1081.5</ele>
        <time>2021-08-31T12:33:00Z</time>
      </trkpt>
      <trkpt lat="45.03832" lon="5.5354">
        <ele>1081.6</ele>
        <time>2021-08-31T12:33:01Z</time>
      </trkpt>
      <trkpt lat="45.03827" lon="5.5354">
        <ele>1081.8</ele>
        <time>2021-08-31T12:33:03Z</time>
      </trkpt>
      <trkpt lat="45.03821" lon="5.53539">
        <ele>1082</ele>
        <time>2021-08-31T12:33:05Z</time>
      </trkpt>
      <trkpt lat="45.03815" lon="5.53538">
        <ele>1082.2</ele>
        <time>2021-08-31T12:33:07Z</time>
      </trkpt>
      <trkpt lat="45.03811" lon="5.53539">
        <ele>1082.3</ele>
        <time>2021-08-31T12:33:08Z</time>
      </trkpt>
      <trkpt lat="45.03806" lon="5.53538">
        <ele>1082.5</ele>
        <time>2021-08-31T12:33:09Z</time>
      </trkpt>
      <trkpt lat="45.03799" lon="5.53535">
        <ele>1082.8</ele>
        <time>2021-08-31T12:33:11Z</time>
      </trkpt>
      <trkpt lat="45.03794" lon="5.53533">
        <ele>1082.9</ele>
        <time>2021-08-31T12:33:12Z</time>
      </trkpt>
      <trkpt lat="45.03788" lon="5.5353">
        <ele>1083.1</ele>
        <time>2021-08-31T12:33:14Z</time>
      </trkpt>
      <trkpt lat="45.03785" lon="5.53528">
        <ele>1083.3</ele>
        <time>2021-08-31T12:33:15Z</time>
      </trkpt>
      <trkpt lat="45.03779" lon="5.53524">
        <ele>1083.5</ele>
        <time>2021-08-31T12:33:17Z</time>
      </trkpt>
      <trkpt lat="45.03773" lon="5.5352">
        <ele>1083.8</ele>
        <time>2021-08-31T12:33:19Z</time>
      </trkpt>
      <trkpt lat="45.03768" lon="5.53516">
        <ele>1084</ele>
        <time>2021-08-31T12:33:21Z</time>
      </trkpt>
      <trkpt lat="45.03765" lon="5.53513">
        <ele>1084.2</ele>
        <time>2021-08-31T12:33:22Z</time>
      </trkpt>
      <trkpt lat="45.03764" lon="5.53512">
        <ele>1084.2</ele>
        <time>2021-08-31T12:33:23Z</time>
      </trkpt>
      <trkpt lat="45.03761" lon="5.5351">
        <ele>1084.4</ele>
        <time>2021-08-31T12:33:24Z</time>
      </trkpt>
      <trkpt lat="45.03761" lon="5.53509">
        <ele>1084.4</ele>
        <time>2021-08-31T12:33:25Z</time>
      </trkpt>
      <trkpt lat="45.03756" lon="5.53505">
        <ele>1084.6</ele>
        <time>2021-08-31T12:33:27Z</time>
      </trkpt>
      <trkpt lat="45.0375" lon="5.53502">
        <ele>1084.8</ele>
        <time>2021-08-31T12:33:29Z</time>
      </trkpt>
      <trkpt lat="45.03745" lon="5.53497">
        <ele>1085</ele>
        <time>2021-08-31T12:33:31Z</time>
      </trkpt>
      <trkpt lat="45.0374" lon="5.53493">
        <ele>1085.2</ele>
        <time>2021-08-31T12:33:33Z</time>
      </trkpt>
      <trkpt lat="45.03737" lon="5.5349">
        <ele>1085.3</ele>
        <time>2021-08-31T12:33:34Z</time>
      </trkpt>
      <trkpt lat="45.03735" lon="5.53487">
        <ele>1085.4</ele>
        <time>2021-08-31T12:33:35Z</time>
      </trkpt>
      <trkpt lat="45.03731" lon="5.53484">
        <ele>1085.6</ele>
        <time>2021-08-31T12:33:37Z</time>
      </trkpt>
      <trkpt lat="45.03726" lon="5.5348">
        <ele>1085.8</ele>
        <time>2021-08-31T12:33:38Z</time>
      </trkpt>
      <trkpt lat="45.03721" lon="5.53476">
        <ele>1085.9</ele>
        <time>2021-08-31T12:33:40Z</time>
      </trkpt>
      <trkpt lat="45.03718" lon="5.53472">
        <ele>1086.1</ele>
        <time>2021-08-31T12:33:41Z</time>
      </trkpt>
      <trkpt lat="45.03716" lon="5.53469">
        <ele>1086.2</ele>
        <time>2021-08-31T12:33:42Z</time>
      </trkpt>
      <trkpt lat="45.03714" lon="5.53466">
        <ele>1086.3</ele>
        <time>2021-08-31T12:33:43Z</time>
      </trkpt>
      <trkpt lat="45.03711" lon="5.53461">
        <ele>1086.4</ele>
        <time>2021-08-31T12:33:45Z</time>
      </trkpt>
      <trkpt lat="45.03709" lon="5.53457">
        <ele>1086.5</ele>
        <time>2021-08-31T12:33:46Z</time>
      </trkpt>
      <trkpt lat="45.03705" lon="5.53453">
        <ele>1086.7</ele>
        <time>2021-08-31T12:33:47Z</time>
      </trkpt>
      <trkpt lat="45.03702" lon="5.5345">
        <ele>1086.8</ele>
        <time>2021-08-31T12:33:48Z</time>
      </trkpt>
      <trkpt lat="45.037" lon="5.53447">
        <ele>1086.9</ele>
        <time>2021-08-31T12:33:49Z</time>
      </trkpt>
      <trkpt lat="45.03697" lon="5.53444">
        <ele>1087</ele>
        <time>2021-08-31T12:33:50Z</time>
      </trkpt>
      <trkpt lat="45.03695" lon="5.53441">
        <ele>1087.1</ele>
        <time>2021-08-31T12:33:51Z</time>
      </trkpt>
      <trkpt lat="45.03693" lon="5.53437">
        <ele>1087.2</ele>
        <time>2021-08-31T12:33:52Z</time>
      </trkpt>
      <trkpt lat="45.0369" lon="5.53434">
        <ele>1087.3</ele>
        <time>2021-08-31T12:33:53Z</time>
      </trkpt>
      <trkpt lat="45.03687" lon="5.5343">
        <ele>1087.5</ele>
        <time>2021-08-31T12:33:54Z</time>
      </trkpt>
      <trkpt lat="45.03685" lon="5.53426">
        <ele>1087.6</ele>
        <time>2021-08-31T12:33:55Z</time>
      </trkpt>
      <trkpt lat="45.03683" lon="5.53422">
        <ele>1087.7</ele>
        <time>2021-08-31T12:33:56Z</time>
      </trkpt>
      <trkpt lat="45.03678" lon="5.53416">
        <ele>1088</ele>
        <time>2021-08-31T12:33:58Z</time>
      </trkpt>
      <trkpt lat="45.03676" lon="5.53413">
        <ele>1088.1</ele>
        <time>2021-08-31T12:33:59Z</time>
      </trkpt>
      <trkpt lat="45.03674" lon="5.53409">
        <ele>1088.3</ele>
        <time>2021-08-31T12:34:00Z</time>
      </trkpt>
      <trkpt lat="45.03671" lon="5.53404">
        <ele>1088.5</ele>
        <time>2021-08-31T12:34:01Z</time>
      </trkpt>
      <trkpt lat="45.03667" lon="5.53401">
        <ele>1088.8</ele>
        <time>2021-08-31T12:34:02Z</time>
      </trkpt>
      <trkpt lat="45.03664" lon="5.53398">
        <ele>1088.9</ele>
        <time>2021-08-31T12:34:04Z</time>
      </trkpt>
      <trkpt lat="45.03661" lon="5.53395">
        <ele>1089</ele>
        <time>2021-08-31T12:34:05Z</time>
      </trkpt>
      <trkpt lat="45.03658" lon="5.53393">
        <ele>1089</ele>
        <time>2021-08-31T12:34:06Z</time>
      </trkpt>
      <trkpt lat="45.03656" lon="5.5339">
        <ele>1089.1</ele>
        <time>2021-08-31T12:34:07Z</time>
      </trkpt>
      <trkpt lat="45.03653" lon="5.53387">
        <ele>1089.2</ele>
        <time>2021-08-31T12:34:08Z</time>
      </trkpt>
      <trkpt lat="45.0365" lon="5.53385">
        <ele>1089.2</ele>
        <time>2021-08-31T12:34:09Z</time>
      </trkpt>
      <trkpt lat="45.03646" lon="5.53383">
        <ele>1089.3</ele>
        <time>2021-08-31T12:34:10Z</time>
      </trkpt>
      <trkpt lat="45.03639" lon="5.53381">
        <ele>1089.4</ele>
        <time>2021-08-31T12:34:12Z</time>
      </trkpt>
      <trkpt lat="45.03632" lon="5.53378">
        <ele>1089.5</ele>
        <time>2021-08-31T12:34:14Z</time>
      </trkpt>
      <trkpt lat="45.03628" lon="5.53377">
        <ele>1089.6</ele>
        <time>2021-08-31T12:34:15Z</time>
      </trkpt>
      <trkpt lat="45.03621" lon="5.53375">
        <ele>1089.7</ele>
        <time>2021-08-31T12:34:17Z</time>
      </trkpt>
      <trkpt lat="45.03617" lon="5.53374">
        <ele>1089.8</ele>
        <time>2021-08-31T12:34:18Z</time>
      </trkpt>
      <trkpt lat="45.03614" lon="5.53374">
        <ele>1089.8</ele>
        <time>2021-08-31T12:34:19Z</time>
      </trkpt>
      <trkpt lat="45.03609" lon="5.53373">
        <ele>1089.9</ele>
        <time>2021-08-31T12:34:20Z</time>
      </trkpt>
      <trkpt lat="45.03605" lon="5.53373">
        <ele>1089.9</ele>
        <time>2021-08-31T12:34:21Z</time>
      </trkpt>
      <trkpt lat="45.03602" lon="5.53372">
        <ele>1090</ele>
        <time>2021-08-31T12:34:23Z</time>
      </trkpt>
      <trkpt lat="45.03597" lon="5.53373">
        <ele>1090</ele>
        <time>2021-08-31T12:34:24Z</time>
      </trkpt>
      <trkpt lat="45.0359" lon="5.53372">
        <ele>1090.1</ele>
        <time>2021-08-31T12:34:26Z</time>
      </trkpt>
      <trkpt lat="45.03586" lon="5.53371">
        <ele>1090.1</ele>
        <time>2021-08-31T12:34:27Z</time>
      </trkpt>
      <trkpt lat="45.03582" lon="5.53371">
        <ele>1090.2</ele>
        <time>2021-08-31T12:34:28Z</time>
      </trkpt>
      <trkpt lat="45.03577" lon="5.53369">
        <ele>1090.2</ele>
        <time>2021-08-31T12:34:29Z</time>
      </trkpt>
      <trkpt lat="45.03573" lon="5.53368">
        <ele>1090.1</ele>
        <time>2021-08-31T12:34:30Z</time>
      </trkpt>
      <trkpt lat="45.03564" lon="5.53366">
        <ele>1090.1</ele>
        <time>2021-08-31T12:34:32Z</time>
      </trkpt>
      <trkpt lat="45.03557" lon="5.53364">
        <ele>1090.1</ele>
        <time>2021-08-31T12:34:34Z</time>
      </trkpt>
      <trkpt lat="45.03549" lon="5.5336">
        <ele>1090.2</ele>
        <time>2021-08-31T12:34:35Z</time>
      </trkpt>
      <trkpt lat="45.03544" lon="5.5336">
        <ele>1090.2</ele>
        <time>2021-08-31T12:34:37Z</time>
      </trkpt>
      <trkpt lat="45.03542" lon="5.53359">
        <ele>1090.3</ele>
        <time>2021-08-31T12:34:38Z</time>
      </trkpt>
      <trkpt lat="45.0354" lon="5.53358">
        <ele>1090.3</ele>
        <time>2021-08-31T12:34:39Z</time>
      </trkpt>
      <trkpt lat="45.03536" lon="5.53356">
        <ele>1090.4</ele>
        <time>2021-08-31T12:34:40Z</time>
      </trkpt>
      <trkpt lat="45.03531" lon="5.53354">
        <ele>1090.4</ele>
        <time>2021-08-31T12:34:41Z</time>
      </trkpt>
      <trkpt lat="45.03527" lon="5.53353">
        <ele>1090.5</ele>
        <time>2021-08-31T12:34:42Z</time>
      </trkpt>
      <trkpt lat="45.03523" lon="5.53353">
        <ele>1090.6</ele>
        <time>2021-08-31T12:34:43Z</time>
      </trkpt>
      <trkpt lat="45.03519" lon="5.53352">
        <ele>1090.6</ele>
        <time>2021-08-31T12:34:44Z</time>
      </trkpt>
      <trkpt lat="45.03515" lon="5.53351">
        <ele>1090.7</ele>
        <time>2021-08-31T12:34:45Z</time>
      </trkpt>
      <trkpt lat="45.03511" lon="5.5335">
        <ele>1090.7</ele>
        <time>2021-08-31T12:34:46Z</time>
      </trkpt>
      <trkpt lat="45.03507" lon="5.5335">
        <ele>1090.8</ele>
        <time>2021-08-31T12:34:47Z</time>
      </trkpt>
      <trkpt lat="45.03503" lon="5.53349">
        <ele>1090.9</ele>
        <time>2021-08-31T12:34:48Z</time>
      </trkpt>
      <trkpt lat="45.03495" lon="5.53348">
        <ele>1091</ele>
        <time>2021-08-31T12:34:50Z</time>
      </trkpt>
      <trkpt lat="45.03488" lon="5.53346">
        <ele>1091.1</ele>
        <time>2021-08-31T12:34:52Z</time>
      </trkpt>
      <trkpt lat="45.03482" lon="5.53345">
        <ele>1091.2</ele>
        <time>2021-08-31T12:34:53Z</time>
      </trkpt>
      <trkpt lat="45.03475" lon="5.53341">
        <ele>1091.3</ele>
        <time>2021-08-31T12:34:55Z</time>
      </trkpt>
      <trkpt lat="45.03471" lon="5.53338">
        <ele>1091.4</ele>
        <time>2021-08-31T12:34:56Z</time>
      </trkpt>
      <trkpt lat="45.03467" lon="5.53336">
        <ele>1091.5</ele>
        <time>2021-08-31T12:34:57Z</time>
      </trkpt>
      <trkpt lat="45.03461" lon="5.53332">
        <ele>1091.6</ele>
        <time>2021-08-31T12:34:59Z</time>
      </trkpt>
      <trkpt lat="45.03457" lon="5.53328">
        <ele>1091.7</ele>
        <time>2021-08-31T12:35:00Z</time>
      </trkpt>
      <trkpt lat="45.03452" lon="5.53325">
        <ele>1091.7</ele>
        <time>2021-08-31T12:35:01Z</time>
      </trkpt>
      <trkpt lat="45.03445" lon="5.53319">
        <ele>1091.8</ele>
        <time>2021-08-31T12:35:03Z</time>
      </trkpt>
      <trkpt lat="45.03441" lon="5.53315">
        <ele>1091.9</ele>
        <time>2021-08-31T12:35:04Z</time>
      </trkpt>
      <trkpt lat="45.03438" lon="5.53313">
        <ele>1092</ele>
        <time>2021-08-31T12:35:05Z</time>
      </trkpt>
      <trkpt lat="45.03434" lon="5.53311">
        <ele>1092</ele>
        <time>2021-08-31T12:35:06Z</time>
      </trkpt>
      <trkpt lat="45.03432" lon="5.53309">
        <ele>1092</ele>
        <time>2021-08-31T12:35:07Z</time>
      </trkpt>
      <trkpt lat="45.03429" lon="5.53307">
        <ele>1092.1</ele>
        <time>2021-08-31T12:35:08Z</time>
      </trkpt>
      <trkpt lat="45.03425" lon="5.53303">
        <ele>1092.1</ele>
        <time>2021-08-31T12:35:10Z</time>
      </trkpt>
      <trkpt lat="45.03421" lon="5.53299">
        <ele>1092.2</ele>
        <time>2021-08-31T12:35:11Z</time>
      </trkpt>
      <trkpt lat="45.03418" lon="5.53296">
        <ele>1092.2</ele>
        <time>2021-08-31T12:35:12Z</time>
      </trkpt>
      <trkpt lat="45.03413" lon="5.53292">
        <ele>1092.3</ele>
        <time>2021-08-31T12:35:14Z</time>
      </trkpt>
      <trkpt lat="45.0341" lon="5.5329">
        <ele>1092.3</ele>
        <time>2021-08-31T12:35:15Z</time>
      </trkpt>
      <trkpt lat="45.03406" lon="5.53287">
        <ele>1092.4</ele>
        <time>2021-08-31T12:35:16Z</time>
      </trkpt>
      <trkpt lat="45.03403" lon="5.53283">
        <ele>1092.4</ele>
        <time>2021-08-31T12:35:17Z</time>
      </trkpt>
      <trkpt lat="45.03399" lon="5.53278">
        <ele>1092.4</ele>
        <time>2021-08-31T12:35:19Z</time>
      </trkpt>
      <trkpt lat="45.03397" lon="5.53274">
        <ele>1092.5</ele>
        <time>2021-08-31T12:35:20Z</time>
      </trkpt>
      <trkpt lat="45.03394" lon="5.53271">
        <ele>1092.5</ele>
        <time>2021-08-31T12:35:21Z</time>
      </trkpt>
      <trkpt lat="45.03391" lon="5.53268">
        <ele>1092.5</ele>
        <time>2021-08-31T12:35:22Z</time>
      </trkpt>
      <trkpt lat="45.03389" lon="5.53265">
        <ele>1092.6</ele>
        <time>2021-08-31T12:35:23Z</time>
      </trkpt>
      <trkpt lat="45.03387" lon="5.53261">
        <ele>1092.6</ele>
        <time>2021-08-31T12:35:24Z</time>
      </trkpt>
      <trkpt lat="45.03383" lon="5.53254">
        <ele>1092.7</ele>
        <time>2021-08-31T12:35:26Z</time>
      </trkpt>
      <trkpt lat="45.0338" lon="5.53249">
        <ele>1092.7</ele>
        <time>2021-08-31T12:35:27Z</time>
      </trkpt>
      <trkpt lat="45.03378" lon="5.53244">
        <ele>1092.8</ele>
        <time>2021-08-31T12:35:28Z</time>
      </trkpt>
      <trkpt lat="45.03376" lon="5.53239">
        <ele>1092.8</ele>
        <time>2021-08-31T12:35:29Z</time>
      </trkpt>
      <trkpt lat="45.03374" lon="5.53232">
        <ele>1092.9</ele>
        <time>2021-08-31T12:35:31Z</time>
      </trkpt>
      <trkpt lat="45.03373" lon="5.53226">
        <ele>1092.9</ele>
        <time>2021-08-31T12:35:32Z</time>
      </trkpt>
      <trkpt lat="45.03371" lon="5.5322">
        <ele>1093</ele>
        <time>2021-08-31T12:35:33Z</time>
      </trkpt>
      <trkpt lat="45.03369" lon="5.53215">
        <ele>1093.1</ele>
        <time>2021-08-31T12:35:34Z</time>
      </trkpt>
      <trkpt lat="45.03367" lon="5.5321">
        <ele>1093.2</ele>
        <time>2021-08-31T12:35:35Z</time>
      </trkpt>
      <trkpt lat="45.03364" lon="5.53205">
        <ele>1093.3</ele>
        <time>2021-08-31T12:35:36Z</time>
      </trkpt>
      <trkpt lat="45.03361" lon="5.532">
        <ele>1093.4</ele>
        <time>2021-08-31T12:35:38Z</time>
      </trkpt>
      <trkpt lat="45.03358" lon="5.53194">
        <ele>1093.5</ele>
        <time>2021-08-31T12:35:39Z</time>
      </trkpt>
      <trkpt lat="45.03354" lon="5.53186">
        <ele>1093.6</ele>
        <time>2021-08-31T12:35:41Z</time>
      </trkpt>
      <trkpt lat="45.03352" lon="5.5318">
        <ele>1093.7</ele>
        <time>2021-08-31T12:35:42Z</time>
      </trkpt>
      <trkpt lat="45.0335" lon="5.53175">
        <ele>1093.7</ele>
        <time>2021-08-31T12:35:43Z</time>
      </trkpt>
      <trkpt lat="45.03348" lon="5.5317">
        <ele>1093.8</ele>
        <time>2021-08-31T12:35:44Z</time>
      </trkpt>
      <trkpt lat="45.03346" lon="5.53165">
        <ele>1093.8</ele>
        <time>2021-08-31T12:35:45Z</time>
      </trkpt>
      <trkpt lat="45.03345" lon="5.5316">
        <ele>1093.9</ele>
        <time>2021-08-31T12:35:46Z</time>
      </trkpt>
      <trkpt lat="45.03344" lon="5.53155">
        <ele>1093.9</ele>
        <time>2021-08-31T12:35:47Z</time>
      </trkpt>
      <trkpt lat="45.03343" lon="5.53147">
        <ele>1094</ele>
        <time>2021-08-31T12:35:49Z</time>
      </trkpt>
      <trkpt lat="45.03342" lon="5.53141">
        <ele>1094.1</ele>
        <time>2021-08-31T12:35:50Z</time>
      </trkpt>
      <trkpt lat="45.03341" lon="5.53134">
        <ele>1094.1</ele>
        <time>2021-08-31T12:35:52Z</time>
      </trkpt>
      <trkpt lat="45.03341" lon="5.53129">
        <ele>1094.1</ele>
        <time>2021-08-31T12:35:53Z</time>
      </trkpt>
      <trkpt lat="45.03341" lon="5.53123">
        <ele>1094.1</ele>
        <time>2021-08-31T12:35:54Z</time>
      </trkpt>
      <trkpt lat="45.0334" lon="5.53117">
        <ele>1094.2</ele>
        <time>2021-08-31T12:35:55Z</time>
      </trkpt>
      <trkpt lat="45.0334" lon="5.53112">
        <ele>1094.1</ele>
        <time>2021-08-31T12:35:57Z</time>
      </trkpt>
      <trkpt lat="45.03339" lon="5.53106">
        <ele>1094.1</ele>
        <time>2021-08-31T12:35:58Z</time>
      </trkpt>
      <trkpt lat="45.03338" lon="5.53101">
        <ele>1094.1</ele>
        <time>2021-08-31T12:35:59Z</time>
      </trkpt>
      <trkpt lat="45.03337" lon="5.53094">
        <ele>1094</ele>
        <time>2021-08-31T12:36:00Z</time>
      </trkpt>
      <trkpt lat="45.03336" lon="5.53084">
        <ele>1094</ele>
        <time>2021-08-31T12:36:02Z</time>
      </trkpt>
      <trkpt lat="45.03334" lon="5.53079">
        <ele>1093.9</ele>
        <time>2021-08-31T12:36:03Z</time>
      </trkpt>
      <trkpt lat="45.03332" lon="5.53067">
        <ele>1093.8</ele>
        <time>2021-08-31T12:36:05Z</time>
      </trkpt>
      <trkpt lat="45.03331" lon="5.53061">
        <ele>1093.8</ele>
        <time>2021-08-31T12:36:06Z</time>
      </trkpt>
      <trkpt lat="45.0333" lon="5.53054">
        <ele>1093.8</ele>
        <time>2021-08-31T12:36:07Z</time>
      </trkpt>
      <trkpt lat="45.0333" lon="5.53049">
        <ele>1093.7</ele>
        <time>2021-08-31T12:36:08Z</time>
      </trkpt>
      <trkpt lat="45.03329" lon="5.53037">
        <ele>1093.7</ele>
        <time>2021-08-31T12:36:10Z</time>
      </trkpt>
      <trkpt lat="45.03328" lon="5.53027">
        <ele>1093.7</ele>
        <time>2021-08-31T12:36:12Z</time>
      </trkpt>
      <trkpt lat="45.03324" lon="5.53022">
        <ele>1093.7</ele>
        <time>2021-08-31T12:36:14Z</time>
      </trkpt>
      <trkpt lat="45.03321" lon="5.5302">
        <ele>1093.7</ele>
        <time>2021-08-31T12:36:15Z</time>
      </trkpt>
      <trkpt lat="45.03319" lon="5.5302">
        <ele>1093.7</ele>
        <time>2021-08-31T12:36:16Z</time>
      </trkpt>
      <trkpt lat="45.03318" lon="5.53023">
        <ele>1093.7</ele>
        <time>2021-08-31T12:36:18Z</time>
      </trkpt>
      <trkpt lat="45.03318" lon="5.53025">
        <ele>1093.7</ele>
        <time>2021-08-31T12:36:19Z</time>
      </trkpt>
      <trkpt lat="45.03317" lon="5.53025">
        <ele>1093.7</ele>
        <time>2021-08-31T12:36:21Z</time>
      </trkpt>
      <trkpt lat="45.03317" lon="5.53025">
        <ele>1093.7</ele>
        <time>2021-08-31T12:36:22Z</time>
      </trkpt>
      <trkpt lat="45.03317" lon="5.53025">
        <ele>1093.7</ele>
        <time>2021-08-31T12:36:24Z</time>
      </trkpt>
      <trkpt lat="45.03317" lon="5.53025">
        <ele>1093.7</ele>
        <time>2021-08-31T12:36:26Z</time>
      </trkpt>
      <trkpt lat="45.03323" lon="5.5303">
        <ele>1093.8</ele>
        <time>2021-08-31T12:37:39Z</time>
      </trkpt>
      <trkpt lat="45.03324" lon="5.53024">
        <ele>1093.9</ele>
        <time>2021-08-31T12:37:41Z</time>
      </trkpt>
      <trkpt lat="45.03326" lon="5.53016">
        <ele>1094</ele>
        <time>2021-08-31T12:37:43Z</time>
      </trkpt>
      <trkpt lat="45.03329" lon="5.53008">
        <ele>1094.1</ele>
        <time>2021-08-31T12:37:44Z</time>
      </trkpt>
      <trkpt lat="45.0333" lon="5.53">
        <ele>1094.2</ele>
        <time>2021-08-31T12:37:46Z</time>
      </trkpt>
      <trkpt lat="45.03331" lon="5.52992">
        <ele>1094.3</ele>
        <time>2021-08-31T12:37:47Z</time>
      </trkpt>
      <trkpt lat="45.03331" lon="5.52984">
        <ele>1094.5</ele>
        <time>2021-08-31T12:37:49Z</time>
      </trkpt>
      <trkpt lat="45.03332" lon="5.5298">
        <ele>1094.5</ele>
        <time>2021-08-31T12:37:50Z</time>
      </trkpt>
      <trkpt lat="45.03333" lon="5.52975">
        <ele>1094.6</ele>
        <time>2021-08-31T12:37:51Z</time>
      </trkpt>
      <trkpt lat="45.03333" lon="5.52971">
        <ele>1094.7</ele>
        <time>2021-08-31T12:37:52Z</time>
      </trkpt>
      <trkpt lat="45.03333" lon="5.52965">
        <ele>1094.8</ele>
        <time>2021-08-31T12:37:54Z</time>
      </trkpt>
      <trkpt lat="45.03333" lon="5.52959">
        <ele>1094.9</ele>
        <time>2021-08-31T12:37:55Z</time>
      </trkpt>
      <trkpt lat="45.03333" lon="5.52954">
        <ele>1094.9</ele>
        <time>2021-08-31T12:37:56Z</time>
      </trkpt>
      <trkpt lat="45.03333" lon="5.52949">
        <ele>1095</ele>
        <time>2021-08-31T12:37:58Z</time>
      </trkpt>
      <trkpt lat="45.03333" lon="5.52945">
        <ele>1095.1</ele>
        <time>2021-08-31T12:38:00Z</time>
      </trkpt>
      <trkpt lat="45.03333" lon="5.52939">
        <ele>1095.2</ele>
        <time>2021-08-31T12:38:02Z</time>
      </trkpt>
      <trkpt lat="45.03333" lon="5.52934">
        <ele>1095.3</ele>
        <time>2021-08-31T12:38:03Z</time>
      </trkpt>
      <trkpt lat="45.03333" lon="5.52931">
        <ele>1095.3</ele>
        <time>2021-08-31T12:38:04Z</time>
      </trkpt>
      <trkpt lat="45.03333" lon="5.52925">
        <ele>1095.4</ele>
        <time>2021-08-31T12:38:06Z</time>
      </trkpt>
      <trkpt lat="45.03333" lon="5.5292">
        <ele>1095.5</ele>
        <time>2021-08-31T12:38:07Z</time>
      </trkpt>
      <trkpt lat="45.03332" lon="5.52917">
        <ele>1095.5</ele>
        <time>2021-08-31T12:38:08Z</time>
      </trkpt>
      <trkpt lat="45.03332" lon="5.52912">
        <ele>1095.6</ele>
        <time>2021-08-31T12:38:10Z</time>
      </trkpt>
      <trkpt lat="45.03332" lon="5.52908">
        <ele>1095.7</ele>
        <time>2021-08-31T12:38:11Z</time>
      </trkpt>
      <trkpt lat="45.03331" lon="5.52904">
        <ele>1095.8</ele>
        <time>2021-08-31T12:38:12Z</time>
      </trkpt>
      <trkpt lat="45.0333" lon="5.529">
        <ele>1095.8</ele>
        <time>2021-08-31T12:38:13Z</time>
      </trkpt>
      <trkpt lat="45.03329" lon="5.52896">
        <ele>1095.9</ele>
        <time>2021-08-31T12:38:14Z</time>
      </trkpt>
      <trkpt lat="45.03328" lon="5.5289">
        <ele>1096</ele>
        <time>2021-08-31T12:38:16Z</time>
      </trkpt>
      <trkpt lat="45.03327" lon="5.52885">
        <ele>1096.1</ele>
        <time>2021-08-31T12:38:18Z</time>
      </trkpt>
      <trkpt lat="45.03327" lon="5.5288">
        <ele>1096.2</ele>
        <time>2021-08-31T12:38:19Z</time>
      </trkpt>
      <trkpt lat="45.03327" lon="5.52875">
        <ele>1096.3</ele>
        <time>2021-08-31T12:38:20Z</time>
      </trkpt>
      <trkpt lat="45.03327" lon="5.52874">
        <ele>1096.3</ele>
        <time>2021-08-31T12:38:21Z</time>
      </trkpt>
      <trkpt lat="45.03327" lon="5.52869">
        <ele>1096.4</ele>
        <time>2021-08-31T12:38:22Z</time>
      </trkpt>
      <trkpt lat="45.03326" lon="5.52866">
        <ele>1096.4</ele>
        <time>2021-08-31T12:38:23Z</time>
      </trkpt>
      <trkpt lat="45.03326" lon="5.52861">
        <ele>1096.5</ele>
        <time>2021-08-31T12:38:24Z</time>
      </trkpt>
      <trkpt lat="45.03326" lon="5.52857">
        <ele>1096.5</ele>
        <time>2021-08-31T12:38:25Z</time>
      </trkpt>
      <trkpt lat="45.03325" lon="5.52852">
        <ele>1096.6</ele>
        <time>2021-08-31T12:38:26Z</time>
      </trkpt>
      <trkpt lat="45.03324" lon="5.52847">
        <ele>1096.7</ele>
        <time>2021-08-31T12:38:28Z</time>
      </trkpt>
      <trkpt lat="45.03323" lon="5.5284">
        <ele>1096.8</ele>
        <time>2021-08-31T12:38:29Z</time>
      </trkpt>
      <trkpt lat="45.03323" lon="5.52836">
        <ele>1096.8</ele>
        <time>2021-08-31T12:38:30Z</time>
      </trkpt>
      <trkpt lat="45.03323" lon="5.52831">
        <ele>1096.9</ele>
        <time>2021-08-31T12:38:31Z</time>
      </trkpt>
      <trkpt lat="45.03322" lon="5.52829">
        <ele>1096.9</ele>
        <time>2021-08-31T12:38:32Z</time>
      </trkpt>
      <trkpt lat="45.03321" lon="5.52824">
        <ele>1097</ele>
        <time>2021-08-31T12:38:34Z</time>
      </trkpt>
      <trkpt lat="45.03321" lon="5.52817">
        <ele>1097.1</ele>
        <time>2021-08-31T12:38:35Z</time>
      </trkpt>
      <trkpt lat="45.0332" lon="5.52813">
        <ele>1097.2</ele>
        <time>2021-08-31T12:38:36Z</time>
      </trkpt>
      <trkpt lat="45.0332" lon="5.52809">
        <ele>1097.2</ele>
        <time>2021-08-31T12:38:37Z</time>
      </trkpt>
      <trkpt lat="45.03318" lon="5.52802">
        <ele>1097.3</ele>
        <time>2021-08-31T12:38:39Z</time>
      </trkpt>
      <trkpt lat="45.03317" lon="5.52798">
        <ele>1097.4</ele>
        <time>2021-08-31T12:38:40Z</time>
      </trkpt>
      <trkpt lat="45.03317" lon="5.52794">
        <ele>1097.5</ele>
        <time>2021-08-31T12:38:41Z</time>
      </trkpt>
      <trkpt lat="45.03316" lon="5.5279">
        <ele>1097.6</ele>
        <time>2021-08-31T12:38:42Z</time>
      </trkpt>
      <trkpt lat="45.03315" lon="5.52785">
        <ele>1097.7</ele>
        <time>2021-08-31T12:38:44Z</time>
      </trkpt>
      <trkpt lat="45.03313" lon="5.52779">
        <ele>1097.8</ele>
        <time>2021-08-31T12:38:45Z</time>
      </trkpt>
      <trkpt lat="45.03312" lon="5.52778">
        <ele>1097.8</ele>
        <time>2021-08-31T12:38:46Z</time>
      </trkpt>
      <trkpt lat="45.0331" lon="5.52774">
        <ele>1097.9</ele>
        <time>2021-08-31T12:38:47Z</time>
      </trkpt>
      <trkpt lat="45.03307" lon="5.52771">
        <ele>1098</ele>
        <time>2021-08-31T12:38:48Z</time>
      </trkpt>
      <trkpt lat="45.03306" lon="5.52768">
        <ele>1098.1</ele>
        <time>2021-08-31T12:38:49Z</time>
      </trkpt>
      <trkpt lat="45.03304" lon="5.52765">
        <ele>1098.2</ele>
        <time>2021-08-31T12:38:50Z</time>
      </trkpt>
      <trkpt lat="45.03301" lon="5.52762">
        <ele>1098.3</ele>
        <time>2021-08-31T12:38:51Z</time>
      </trkpt>
      <trkpt lat="45.033" lon="5.52762">
        <ele>1098.3</ele>
        <time>2021-08-31T12:38:52Z</time>
      </trkpt>
      <trkpt lat="45.03297" lon="5.52759">
        <ele>1098.5</ele>
        <time>2021-08-31T12:38:54Z</time>
      </trkpt>
      <trkpt lat="45.03296" lon="5.52758">
        <ele>1098.5</ele>
        <time>2021-08-31T12:38:55Z</time>
      </trkpt>
      <trkpt lat="45.03295" lon="5.52756">
        <ele>1098.6</ele>
        <time>2021-08-31T12:38:56Z</time>
      </trkpt>
      <trkpt lat="45.03291" lon="5.52752">
        <ele>1098.8</ele>
        <time>2021-08-31T12:38:58Z</time>
      </trkpt>
      <trkpt lat="45.03289" lon="5.52751">
        <ele>1098.9</ele>
        <time>2021-08-31T12:38:59Z</time>
      </trkpt>
      <trkpt lat="45.03288" lon="5.52749">
        <ele>1098.9</ele>
        <time>2021-08-31T12:39:00Z</time>
      </trkpt>
      <trkpt lat="45.03284" lon="5.52747">
        <ele>1099</ele>
        <time>2021-08-31T12:39:01Z</time>
      </trkpt>
      <trkpt lat="45.03283" lon="5.52746">
        <ele>1099.1</ele>
        <time>2021-08-31T12:39:02Z</time>
      </trkpt>
      <trkpt lat="45.0328" lon="5.52745">
        <ele>1099.2</ele>
        <time>2021-08-31T12:39:03Z</time>
      </trkpt>
      <trkpt lat="45.03277" lon="5.52744">
        <ele>1099.3</ele>
        <time>2021-08-31T12:39:05Z</time>
      </trkpt>
      <trkpt lat="45.03274" lon="5.52742">
        <ele>1099.4</ele>
        <time>2021-08-31T12:39:06Z</time>
      </trkpt>
      <trkpt lat="45.03271" lon="5.52741">
        <ele>1099.6</ele>
        <time>2021-08-31T12:39:07Z</time>
      </trkpt>
      <trkpt lat="45.03269" lon="5.52739">
        <ele>1099.7</ele>
        <time>2021-08-31T12:39:08Z</time>
      </trkpt>
      <trkpt lat="45.03266" lon="5.52738">
        <ele>1099.8</ele>
        <time>2021-08-31T12:39:09Z</time>
      </trkpt>
      <trkpt lat="45.03261" lon="5.52739">
        <ele>1100</ele>
        <time>2021-08-31T12:39:11Z</time>
      </trkpt>
      <trkpt lat="45.03257" lon="5.52741">
        <ele>1100.1</ele>
        <time>2021-08-31T12:39:12Z</time>
      </trkpt>
      <trkpt lat="45.03253" lon="5.52743">
        <ele>1100.2</ele>
        <time>2021-08-31T12:39:13Z</time>
      </trkpt>
      <trkpt lat="45.0325" lon="5.52743">
        <ele>1100.4</ele>
        <time>2021-08-31T12:39:14Z</time>
      </trkpt>
      <trkpt lat="45.03244" lon="5.52743">
        <ele>1100.7</ele>
        <time>2021-08-31T12:39:16Z</time>
      </trkpt>
      <trkpt lat="45.03241" lon="5.52742">
        <ele>1100.9</ele>
        <time>2021-08-31T12:39:17Z</time>
      </trkpt>
      <trkpt lat="45.03235" lon="5.52742">
        <ele>1101.3</ele>
        <time>2021-08-31T12:39:19Z</time>
      </trkpt>
      <trkpt lat="45.03232" lon="5.52742">
        <ele>1101.5</ele>
        <time>2021-08-31T12:39:20Z</time>
      </trkpt>
      <trkpt lat="45.03228" lon="5.52741">
        <ele>1101.8</ele>
        <time>2021-08-31T12:39:22Z</time>
      </trkpt>
      <trkpt lat="45.03225" lon="5.5274">
        <ele>1102</ele>
        <time>2021-08-31T12:39:23Z</time>
      </trkpt>
      <trkpt lat="45.03222" lon="5.52739">
        <ele>1102.2</ele>
        <time>2021-08-31T12:39:24Z</time>
      </trkpt>
      <trkpt lat="45.0322" lon="5.52737">
        <ele>1102.4</ele>
        <time>2021-08-31T12:39:25Z</time>
      </trkpt>
      <trkpt lat="45.03217" lon="5.52735">
        <ele>1102.6</ele>
        <time>2021-08-31T12:39:26Z</time>
      </trkpt>
      <trkpt lat="45.03214" lon="5.52734">
        <ele>1102.9</ele>
        <time>2021-08-31T12:39:27Z</time>
      </trkpt>
      <trkpt lat="45.03211" lon="5.52733">
        <ele>1103.1</ele>
        <time>2021-08-31T12:39:28Z</time>
      </trkpt>
      <trkpt lat="45.03208" lon="5.52731">
        <ele>1103.2</ele>
        <time>2021-08-31T12:39:29Z</time>
      </trkpt>
      <trkpt lat="45.03205" lon="5.52729">
        <ele>1103.4</ele>
        <time>2021-08-31T12:39:30Z</time>
      </trkpt>
      <trkpt lat="45.03203" lon="5.52728">
        <ele>1103.5</ele>
        <time>2021-08-31T12:39:31Z</time>
      </trkpt>
      <trkpt lat="45.03201" lon="5.52727">
        <ele>1103.7</ele>
        <time>2021-08-31T12:39:32Z</time>
      </trkpt>
      <trkpt lat="45.03196" lon="5.52722">
        <ele>1104</ele>
        <time>2021-08-31T12:39:34Z</time>
      </trkpt>
      <trkpt lat="45.03193" lon="5.5272">
        <ele>1104.1</ele>
        <time>2021-08-31T12:39:35Z</time>
      </trkpt>
      <trkpt lat="45.0319" lon="5.52719">
        <ele>1104.3</ele>
        <time>2021-08-31T12:39:36Z</time>
      </trkpt>
      <trkpt lat="45.03186" lon="5.52719">
        <ele>1104.5</ele>
        <time>2021-08-31T12:39:38Z</time>
      </trkpt>
      <trkpt lat="45.03183" lon="5.52721">
        <ele>1104.5</ele>
        <time>2021-08-31T12:39:39Z</time>
      </trkpt>
      <trkpt lat="45.0318" lon="5.52724">
        <ele>1104.6</ele>
        <time>2021-08-31T12:39:40Z</time>
      </trkpt>
      <trkpt lat="45.03179" lon="5.52725">
        <ele>1104.6</ele>
        <time>2021-08-31T12:39:41Z</time>
      </trkpt>
      <trkpt lat="45.03177" lon="5.52725">
        <ele>1104.6</ele>
        <time>2021-08-31T12:39:42Z</time>
      </trkpt>
      <trkpt lat="45.03174" lon="5.52726">
        <ele>1104.7</ele>
        <time>2021-08-31T12:39:44Z</time>
      </trkpt>
      <trkpt lat="45.03171" lon="5.52728">
        <ele>1104.7</ele>
        <time>2021-08-31T12:39:46Z</time>
      </trkpt>
      <trkpt lat="45.03171" lon="5.52728">
        <ele>1104.7</ele>
        <time>2021-08-31T12:39:47Z</time>
      </trkpt>
      <trkpt lat="45.03171" lon="5.52729">
        <ele>1104.7</ele>
        <time>2021-08-31T12:39:49Z</time>
      </trkpt>
      <trkpt lat="45.03171" lon="5.52729">
        <ele>1104.7</ele>
        <time>2021-08-31T12:39:50Z</time>
      </trkpt>
      <trkpt lat="45.03171" lon="5.52729">
        <ele>1104.8</ele>
        <time>2021-08-31T12:39:52Z</time>
      </trkpt>
      <trkpt lat="45.03171" lon="5.5273">
        <ele>1104.8</ele>
        <time>2021-08-31T12:39:53Z</time>
      </trkpt>
      <trkpt lat="45.03171" lon="5.5273">
        <ele>1104.8</ele>
        <time>2021-08-31T12:39:54Z</time>
      </trkpt>
      <trkpt lat="45.03171" lon="5.5273">
        <ele>1104.8</ele>
        <time>2021-08-31T12:39:56Z</time>
      </trkpt>
      <trkpt lat="45.03168" lon="5.52721">
        <ele>1104.9</ele>
        <time>2021-08-31T12:40:50Z</time>
      </trkpt>
      <trkpt lat="45.03166" lon="5.52709">
        <ele>1105</ele>
        <time>2021-08-31T12:40:52Z</time>
      </trkpt>
      <trkpt lat="45.03165" lon="5.527">
        <ele>1105.2</ele>
        <time>2021-08-31T12:40:53Z</time>
      </trkpt>
      <trkpt lat="45.03162" lon="5.5269">
        <ele>1105.3</ele>
        <time>2021-08-31T12:40:55Z</time>
      </trkpt>
      <trkpt lat="45.0316" lon="5.52685">
        <ele>1105.3</ele>
        <time>2021-08-31T12:40:56Z</time>
      </trkpt>
      <trkpt lat="45.03158" lon="5.52682">
        <ele>1105.4</ele>
        <time>2021-08-31T12:40:57Z</time>
      </trkpt>
      <trkpt lat="45.03155" lon="5.52678">
        <ele>1105.4</ele>
        <time>2021-08-31T12:40:58Z</time>
      </trkpt>
      <trkpt lat="45.03152" lon="5.52676">
        <ele>1105.4</ele>
        <time>2021-08-31T12:40:59Z</time>
      </trkpt>
      <trkpt lat="45.03149" lon="5.52672">
        <ele>1105.5</ele>
        <time>2021-08-31T12:41:00Z</time>
      </trkpt>
      <trkpt lat="45.03146" lon="5.52669">
        <ele>1105.6</ele>
        <time>2021-08-31T12:41:01Z</time>
      </trkpt>
      <trkpt lat="45.0314" lon="5.52665">
        <ele>1105.8</ele>
        <time>2021-08-31T12:41:03Z</time>
      </trkpt>
      <trkpt lat="45.03137" lon="5.52664">
        <ele>1105.9</ele>
        <time>2021-08-31T12:41:04Z</time>
      </trkpt>
      <trkpt lat="45.03132" lon="5.52662">
        <ele>1106.1</ele>
        <time>2021-08-31T12:41:06Z</time>
      </trkpt>
      <trkpt lat="45.03128" lon="5.52661">
        <ele>1106.2</ele>
        <time>2021-08-31T12:41:07Z</time>
      </trkpt>
      <trkpt lat="45.03126" lon="5.5266">
        <ele>1106.3</ele>
        <time>2021-08-31T12:41:08Z</time>
      </trkpt>
      <trkpt lat="45.03122" lon="5.52658">
        <ele>1106.4</ele>
        <time>2021-08-31T12:41:10Z</time>
      </trkpt>
      <trkpt lat="45.03119" lon="5.52655">
        <ele>1106.5</ele>
        <time>2021-08-31T12:41:11Z</time>
      </trkpt>
      <trkpt lat="45.03118" lon="5.52655">
        <ele>1106.6</ele>
        <time>2021-08-31T12:41:12Z</time>
      </trkpt>
      <trkpt lat="45.03115" lon="5.52653">
        <ele>1106.7</ele>
        <time>2021-08-31T12:41:13Z</time>
      </trkpt>
      <trkpt lat="45.03111" lon="5.52651">
        <ele>1106.8</ele>
        <time>2021-08-31T12:41:14Z</time>
      </trkpt>
      <trkpt lat="45.0311" lon="5.52651">
        <ele>1106.8</ele>
        <time>2021-08-31T12:41:15Z</time>
      </trkpt>
      <trkpt lat="45.03105" lon="5.52651">
        <ele>1107</ele>
        <time>2021-08-31T12:41:17Z</time>
      </trkpt>
      <trkpt lat="45.03102" lon="5.52651">
        <ele>1107.1</ele>
        <time>2021-08-31T12:41:18Z</time>
      </trkpt>
      <trkpt lat="45.03097" lon="5.5265">
        <ele>1107.2</ele>
        <time>2021-08-31T12:41:20Z</time>
      </trkpt>
      <trkpt lat="45.03096" lon="5.52649">
        <ele>1107.2</ele>
        <time>2021-08-31T12:41:21Z</time>
      </trkpt>
      <trkpt lat="45.03094" lon="5.52648">
        <ele>1107.3</ele>
        <time>2021-08-31T12:41:22Z</time>
      </trkpt>
      <trkpt lat="45.03092" lon="5.52646">
        <ele>1107.3</ele>
        <time>2021-08-31T12:41:23Z</time>
      </trkpt>
      <trkpt lat="45.03088" lon="5.52643">
        <ele>1107.4</ele>
        <time>2021-08-31T12:41:24Z</time>
      </trkpt>
      <trkpt lat="45.03087" lon="5.52642">
        <ele>1107.4</ele>
        <time>2021-08-31T12:41:25Z</time>
      </trkpt>
      <trkpt lat="45.03083" lon="5.5264">
        <ele>1107.5</ele>
        <time>2021-08-31T12:41:26Z</time>
      </trkpt>
      <trkpt lat="45.03078" lon="5.52636">
        <ele>1107.5</ele>
        <time>2021-08-31T12:41:28Z</time>
      </trkpt>
      <trkpt lat="45.03074" lon="5.52634">
        <ele>1107.6</ele>
        <time>2021-08-31T12:41:29Z</time>
      </trkpt>
      <trkpt lat="45.03069" lon="5.52631">
        <ele>1107.6</ele>
        <time>2021-08-31T12:41:31Z</time>
      </trkpt>
      <trkpt lat="45.03065" lon="5.52628">
        <ele>1107.6</ele>
        <time>2021-08-31T12:41:32Z</time>
      </trkpt>
      <trkpt lat="45.03063" lon="5.52625">
        <ele>1107.6</ele>
        <time>2021-08-31T12:41:33Z</time>
      </trkpt>
      <trkpt lat="45.03059" lon="5.52621">
        <ele>1107.6</ele>
        <time>2021-08-31T12:41:35Z</time>
      </trkpt>
      <trkpt lat="45.03056" lon="5.52617">
        <ele>1107.6</ele>
        <time>2021-08-31T12:41:36Z</time>
      </trkpt>
      <trkpt lat="45.03052" lon="5.52614">
        <ele>1107.6</ele>
        <time>2021-08-31T12:41:37Z</time>
      </trkpt>
      <trkpt lat="45.03049" lon="5.5261">
        <ele>1107.5</ele>
        <time>2021-08-31T12:41:38Z</time>
      </trkpt>
      <trkpt lat="45.03043" lon="5.52605">
        <ele>1107.5</ele>
        <time>2021-08-31T12:41:40Z</time>
      </trkpt>
      <trkpt lat="45.0304" lon="5.52602">
        <ele>1107.4</ele>
        <time>2021-08-31T12:41:41Z</time>
      </trkpt>
      <trkpt lat="45.03035" lon="5.52597">
        <ele>1107.4</ele>
        <time>2021-08-31T12:41:42Z</time>
      </trkpt>
      <trkpt lat="45.03028" lon="5.52589">
        <ele>1107.3</ele>
        <time>2021-08-31T12:41:44Z</time>
      </trkpt>
      <trkpt lat="45.03025" lon="5.52585">
        <ele>1107.3</ele>
        <time>2021-08-31T12:41:45Z</time>
      </trkpt>
      <trkpt lat="45.03018" lon="5.52573">
        <ele>1107.1</ele>
        <time>2021-08-31T12:41:47Z</time>
      </trkpt>
      <trkpt lat="45.03015" lon="5.52567">
        <ele>1107.1</ele>
        <time>2021-08-31T12:41:48Z</time>
      </trkpt>
      <trkpt lat="45.03008" lon="5.52554">
        <ele>1106.9</ele>
        <time>2021-08-31T12:41:50Z</time>
      </trkpt>
      <trkpt lat="45.03001" lon="5.52542">
        <ele>1106.9</ele>
        <time>2021-08-31T12:41:52Z</time>
      </trkpt>
      <trkpt lat="45.02992" lon="5.52532">
        <ele>1107</ele>
        <time>2021-08-31T12:41:54Z</time>
      </trkpt>
      <trkpt lat="45.02983" lon="5.52523">
        <ele>1107.2</ele>
        <time>2021-08-31T12:41:56Z</time>
      </trkpt>
      <trkpt lat="45.02976" lon="5.52512">
        <ele>1107.4</ele>
        <time>2021-08-31T12:41:58Z</time>
      </trkpt>
      <trkpt lat="45.02972" lon="5.52507">
        <ele>1107.6</ele>
        <time>2021-08-31T12:41:59Z</time>
      </trkpt>
      <trkpt lat="45.0297" lon="5.52504">
        <ele>1107.7</ele>
        <time>2021-08-31T12:42:00Z</time>
      </trkpt>
      <trkpt lat="45.02962" lon="5.52495">
        <ele>1108</ele>
        <time>2021-08-31T12:42:02Z</time>
      </trkpt>
      <trkpt lat="45.02958" lon="5.5249">
        <ele>1108.1</ele>
        <time>2021-08-31T12:42:03Z</time>
      </trkpt>
      <trkpt lat="45.02954" lon="5.52482">
        <ele>1108.4</ele>
        <time>2021-08-31T12:42:05Z</time>
      </trkpt>
      <trkpt lat="45.02957" lon="5.5248">
        <ele>1108.5</ele>
        <time>2021-08-31T12:42:06Z</time>
      </trkpt>
      <trkpt lat="45.02954" lon="5.52473">
        <ele>1108.7</ele>
        <time>2021-08-31T12:42:08Z</time>
      </trkpt>
      <trkpt lat="45.02949" lon="5.52468">
        <ele>1109</ele>
        <time>2021-08-31T12:42:09Z</time>
      </trkpt>
      <trkpt lat="45.02946" lon="5.52464">
        <ele>1109.2</ele>
        <time>2021-08-31T12:42:10Z</time>
      </trkpt>
      <trkpt lat="45.02942" lon="5.5246">
        <ele>1109.4</ele>
        <time>2021-08-31T12:42:11Z</time>
      </trkpt>
      <trkpt lat="45.0294" lon="5.52456">
        <ele>1109.5</ele>
        <time>2021-08-31T12:42:12Z</time>
      </trkpt>
      <trkpt lat="45.02937" lon="5.52452">
        <ele>1109.7</ele>
        <time>2021-08-31T12:42:13Z</time>
      </trkpt>
      <trkpt lat="45.02931" lon="5.52447">
        <ele>1110</ele>
        <time>2021-08-31T12:42:15Z</time>
      </trkpt>
      <trkpt lat="45.02929" lon="5.52443">
        <ele>1110.1</ele>
        <time>2021-08-31T12:42:16Z</time>
      </trkpt>
      <trkpt lat="45.02927" lon="5.52439">
        <ele>1110.2</ele>
        <time>2021-08-31T12:42:17Z</time>
      </trkpt>
      <trkpt lat="45.02925" lon="5.52435">
        <ele>1110.4</ele>
        <time>2021-08-31T12:42:19Z</time>
      </trkpt>
      <trkpt lat="45.02922" lon="5.52432">
        <ele>1110.5</ele>
        <time>2021-08-31T12:42:20Z</time>
      </trkpt>
      <trkpt lat="45.02918" lon="5.52428">
        <ele>1110.7</ele>
        <time>2021-08-31T12:42:21Z</time>
      </trkpt>
      <trkpt lat="45.02916" lon="5.52426">
        <ele>1110.8</ele>
        <time>2021-08-31T12:42:22Z</time>
      </trkpt>
      <trkpt lat="45.02913" lon="5.52423">
        <ele>1110.9</ele>
        <time>2021-08-31T12:42:23Z</time>
      </trkpt>
      <trkpt lat="45.02911" lon="5.5242">
        <ele>1111</ele>
        <time>2021-08-31T12:42:24Z</time>
      </trkpt>
      <trkpt lat="45.02909" lon="5.52416">
        <ele>1111.1</ele>
        <time>2021-08-31T12:42:25Z</time>
      </trkpt>
      <trkpt lat="45.02906" lon="5.52411">
        <ele>1111.2</ele>
        <time>2021-08-31T12:42:27Z</time>
      </trkpt>
      <trkpt lat="45.02905" lon="5.52408">
        <ele>1111.3</ele>
        <time>2021-08-31T12:42:28Z</time>
      </trkpt>
      <trkpt lat="45.02903" lon="5.52405">
        <ele>1111.4</ele>
        <time>2021-08-31T12:42:29Z</time>
      </trkpt>
      <trkpt lat="45.02901" lon="5.52401">
        <ele>1111.5</ele>
        <time>2021-08-31T12:42:30Z</time>
      </trkpt>
      <trkpt lat="45.02899" lon="5.52397">
        <ele>1111.5</ele>
        <time>2021-08-31T12:42:31Z</time>
      </trkpt>
      <trkpt lat="45.02897" lon="5.52393">
        <ele>1111.6</ele>
        <time>2021-08-31T12:42:33Z</time>
      </trkpt>
      <trkpt lat="45.02894" lon="5.52389">
        <ele>1111.7</ele>
        <time>2021-08-31T12:42:34Z</time>
      </trkpt>
      <trkpt lat="45.02891" lon="5.52384">
        <ele>1111.8</ele>
        <time>2021-08-31T12:42:36Z</time>
      </trkpt>
      <trkpt lat="45.02888" lon="5.52379">
        <ele>1111.9</ele>
        <time>2021-08-31T12:42:37Z</time>
      </trkpt>
      <trkpt lat="45.02887" lon="5.52375">
        <ele>1111.9</ele>
        <time>2021-08-31T12:42:38Z</time>
      </trkpt>
      <trkpt lat="45.02885" lon="5.5237">
        <ele>1112</ele>
        <time>2021-08-31T12:42:40Z</time>
      </trkpt>
      <trkpt lat="45.02882" lon="5.52364">
        <ele>1112.1</ele>
        <time>2021-08-31T12:42:41Z</time>
      </trkpt>
      <trkpt lat="45.0288" lon="5.52359">
        <ele>1112.1</ele>
        <time>2021-08-31T12:42:43Z</time>
      </trkpt>
      <trkpt lat="45.02878" lon="5.52352">
        <ele>1112.2</ele>
        <time>2021-08-31T12:42:44Z</time>
      </trkpt>
      <trkpt lat="45.02876" lon="5.52345">
        <ele>1112.3</ele>
        <time>2021-08-31T12:42:46Z</time>
      </trkpt>
      <trkpt lat="45.02875" lon="5.52342">
        <ele>1112.4</ele>
        <time>2021-08-31T12:42:47Z</time>
      </trkpt>
      <trkpt lat="45.02873" lon="5.52336">
        <ele>1112.4</ele>
        <time>2021-08-31T12:42:49Z</time>
      </trkpt>
      <trkpt lat="45.02871" lon="5.52331">
        <ele>1112.5</ele>
        <time>2021-08-31T12:42:50Z</time>
      </trkpt>
      <trkpt lat="45.0287" lon="5.52328">
        <ele>1112.6</ele>
        <time>2021-08-31T12:42:51Z</time>
      </trkpt>
      <trkpt lat="45.02868" lon="5.52324">
        <ele>1112.6</ele>
        <time>2021-08-31T12:42:52Z</time>
      </trkpt>
      <trkpt lat="45.02867" lon="5.52319">
        <ele>1112.7</ele>
        <time>2021-08-31T12:42:54Z</time>
      </trkpt>
      <trkpt lat="45.02866" lon="5.52315">
        <ele>1112.7</ele>
        <time>2021-08-31T12:42:55Z</time>
      </trkpt>
      <trkpt lat="45.02866" lon="5.52311">
        <ele>1112.8</ele>
        <time>2021-08-31T12:42:56Z</time>
      </trkpt>
      <trkpt lat="45.02864" lon="5.52307">
        <ele>1112.9</ele>
        <time>2021-08-31T12:42:57Z</time>
      </trkpt>
      <trkpt lat="45.02862" lon="5.52301">
        <ele>1112.9</ele>
        <time>2021-08-31T12:42:59Z</time>
      </trkpt>
      <trkpt lat="45.02861" lon="5.52299">
        <ele>1113</ele>
        <time>2021-08-31T12:43:00Z</time>
      </trkpt>
      <trkpt lat="45.02859" lon="5.52294">
        <ele>1113</ele>
        <time>2021-08-31T12:43:01Z</time>
      </trkpt>
      <trkpt lat="45.02859" lon="5.52293">
        <ele>1113.1</ele>
        <time>2021-08-31T12:43:02Z</time>
      </trkpt>
      <trkpt lat="45.02856" lon="5.52286">
        <ele>1113.1</ele>
        <time>2021-08-31T12:43:04Z</time>
      </trkpt>
      <trkpt lat="45.02855" lon="5.52283">
        <ele>1113.2</ele>
        <time>2021-08-31T12:43:05Z</time>
      </trkpt>
      <trkpt lat="45.02853" lon="5.52279">
        <ele>1113.2</ele>
        <time>2021-08-31T12:43:06Z</time>
      </trkpt>
      <trkpt lat="45.02852" lon="5.52276">
        <ele>1113.3</ele>
        <time>2021-08-31T12:43:08Z</time>
      </trkpt>
      <trkpt lat="45.02849" lon="5.52272">
        <ele>1113.3</ele>
        <time>2021-08-31T12:43:09Z</time>
      </trkpt>
      <trkpt lat="45.02848" lon="5.52271">
        <ele>1113.3</ele>
        <time>2021-08-31T12:43:10Z</time>
      </trkpt>
      <trkpt lat="45.02847" lon="5.52268">
        <ele>1113.4</ele>
        <time>2021-08-31T12:43:11Z</time>
      </trkpt>
      <trkpt lat="45.02844" lon="5.52264">
        <ele>1113.4</ele>
        <time>2021-08-31T12:43:13Z</time>
      </trkpt>
      <trkpt lat="45.02842" lon="5.52261">
        <ele>1113.5</ele>
        <time>2021-08-31T12:43:14Z</time>
      </trkpt>
      <trkpt lat="45.0284" lon="5.52258">
        <ele>1113.5</ele>
        <time>2021-08-31T12:43:15Z</time>
      </trkpt>
      <trkpt lat="45.02838" lon="5.52255">
        <ele>1113.5</ele>
        <time>2021-08-31T12:43:16Z</time>
      </trkpt>
      <trkpt lat="45.02836" lon="5.52251">
        <ele>1113.5</ele>
        <time>2021-08-31T12:43:17Z</time>
      </trkpt>
      <trkpt lat="45.02832" lon="5.52243">
        <ele>1113.6</ele>
        <time>2021-08-31T12:43:19Z</time>
      </trkpt>
      <trkpt lat="45.0283" lon="5.5224">
        <ele>1113.6</ele>
        <time>2021-08-31T12:43:20Z</time>
      </trkpt>
      <trkpt lat="45.02828" lon="5.52235">
        <ele>1113.6</ele>
        <time>2021-08-31T12:43:22Z</time>
      </trkpt>
      <trkpt lat="45.02827" lon="5.52231">
        <ele>1113.6</ele>
        <time>2021-08-31T12:43:23Z</time>
      </trkpt>
      <trkpt lat="45.02823" lon="5.52224">
        <ele>1113.6</ele>
        <time>2021-08-31T12:43:24Z</time>
      </trkpt>
      <trkpt lat="45.02819" lon="5.52216">
        <ele>1113.6</ele>
        <time>2021-08-31T12:43:26Z</time>
      </trkpt>
      <trkpt lat="45.02812" lon="5.52209">
        <ele>1113.7</ele>
        <time>2021-08-31T12:43:27Z</time>
      </trkpt>
      <trkpt lat="45.02805" lon="5.52199">
        <ele>1113.7</ele>
        <time>2021-08-31T12:43:29Z</time>
      </trkpt>
      <trkpt lat="45.028" lon="5.52192">
        <ele>1113.9</ele>
        <time>2021-08-31T12:43:31Z</time>
      </trkpt>
      <trkpt lat="45.02795" lon="5.52183">
        <ele>1114</ele>
        <time>2021-08-31T12:43:33Z</time>
      </trkpt>
      <trkpt lat="45.02792" lon="5.5218">
        <ele>1114.1</ele>
        <time>2021-08-31T12:43:34Z</time>
      </trkpt>
      <trkpt lat="45.02786" lon="5.52172">
        <ele>1114.3</ele>
        <time>2021-08-31T12:43:36Z</time>
      </trkpt>
      <trkpt lat="45.0278" lon="5.52167">
        <ele>1114.6</ele>
        <time>2021-08-31T12:43:38Z</time>
      </trkpt>
      <trkpt lat="45.02776" lon="5.52164">
        <ele>1114.7</ele>
        <time>2021-08-31T12:43:39Z</time>
      </trkpt>
      <trkpt lat="45.02774" lon="5.52161">
        <ele>1114.8</ele>
        <time>2021-08-31T12:43:40Z</time>
      </trkpt>
      <trkpt lat="45.0277" lon="5.52155">
        <ele>1115</ele>
        <time>2021-08-31T12:43:42Z</time>
      </trkpt>
      <trkpt lat="45.02766" lon="5.52151">
        <ele>1115.2</ele>
        <time>2021-08-31T12:43:44Z</time>
      </trkpt>
      <trkpt lat="45.02764" lon="5.52148">
        <ele>1115.4</ele>
        <time>2021-08-31T12:43:45Z</time>
      </trkpt>
      <trkpt lat="45.02761" lon="5.52144">
        <ele>1115.5</ele>
        <time>2021-08-31T12:43:46Z</time>
      </trkpt>
      <trkpt lat="45.02761" lon="5.52143">
        <ele>1115.5</ele>
        <time>2021-08-31T12:43:47Z</time>
      </trkpt>
      <trkpt lat="45.02757" lon="5.5214">
        <ele>1115.7</ele>
        <time>2021-08-31T12:43:48Z</time>
      </trkpt>
      <trkpt lat="45.02756" lon="5.52139">
        <ele>1115.7</ele>
        <time>2021-08-31T12:43:49Z</time>
      </trkpt>
      <trkpt lat="45.02752" lon="5.52135">
        <ele>1115.9</ele>
        <time>2021-08-31T12:43:51Z</time>
      </trkpt>
      <trkpt lat="45.0275" lon="5.5213">
        <ele>1115.9</ele>
        <time>2021-08-31T12:43:52Z</time>
      </trkpt>
      <trkpt lat="45.0275" lon="5.52129">
        <ele>1115.9</ele>
        <time>2021-08-31T12:43:53Z</time>
      </trkpt>
      <trkpt lat="45.02748" lon="5.52124">
        <ele>1115.9</ele>
        <time>2021-08-31T12:43:54Z</time>
      </trkpt>
      <trkpt lat="45.02748" lon="5.52123">
        <ele>1116</ele>
        <time>2021-08-31T12:43:55Z</time>
      </trkpt>
      <trkpt lat="45.02746" lon="5.5212">
        <ele>1116.1</ele>
        <time>2021-08-31T12:43:56Z</time>
      </trkpt>
      <trkpt lat="45.02744" lon="5.52117">
        <ele>1116.2</ele>
        <time>2021-08-31T12:43:58Z</time>
      </trkpt>
      <trkpt lat="45.02741" lon="5.52114">
        <ele>1116.3</ele>
        <time>2021-08-31T12:43:59Z</time>
      </trkpt>
      <trkpt lat="45.02739" lon="5.52113">
        <ele>1116.4</ele>
        <time>2021-08-31T12:44:00Z</time>
      </trkpt>
      <trkpt lat="45.02736" lon="5.52108">
        <ele>1116.5</ele>
        <time>2021-08-31T12:44:01Z</time>
      </trkpt>
      <trkpt lat="45.02731" lon="5.52103">
        <ele>1116.7</ele>
        <time>2021-08-31T12:44:03Z</time>
      </trkpt>
      <trkpt lat="45.02726" lon="5.52098">
        <ele>1116.9</ele>
        <time>2021-08-31T12:44:05Z</time>
      </trkpt>
      <trkpt lat="45.02723" lon="5.52094">
        <ele>1117</ele>
        <time>2021-08-31T12:44:07Z</time>
      </trkpt>
      <trkpt lat="45.02719" lon="5.52089">
        <ele>1117.2</ele>
        <time>2021-08-31T12:44:08Z</time>
      </trkpt>
      <trkpt lat="45.02716" lon="5.52087">
        <ele>1117.3</ele>
        <time>2021-08-31T12:44:10Z</time>
      </trkpt>
      <trkpt lat="45.02714" lon="5.52085">
        <ele>1117.4</ele>
        <time>2021-08-31T12:44:11Z</time>
      </trkpt>
      <trkpt lat="45.0271" lon="5.52082">
        <ele>1117.6</ele>
        <time>2021-08-31T12:44:13Z</time>
      </trkpt>
      <trkpt lat="45.02708" lon="5.52081">
        <ele>1117.6</ele>
        <time>2021-08-31T12:44:14Z</time>
      </trkpt>
      <trkpt lat="45.02705" lon="5.52078">
        <ele>1117.8</ele>
        <time>2021-08-31T12:44:16Z</time>
      </trkpt>
      <trkpt lat="45.02702" lon="5.52077">
        <ele>1117.9</ele>
        <time>2021-08-31T12:44:17Z</time>
      </trkpt>
      <trkpt lat="45.027" lon="5.52077">
        <ele>1117.9</ele>
        <time>2021-08-31T12:44:18Z</time>
      </trkpt>
      <trkpt lat="45.02698" lon="5.52076">
        <ele>1118</ele>
        <time>2021-08-31T12:44:20Z</time>
      </trkpt>
      <trkpt lat="45.02695" lon="5.52075">
        <ele>1118.2</ele>
        <time>2021-08-31T12:44:21Z</time>
      </trkpt>
      <trkpt lat="45.02692" lon="5.52074">
        <ele>1118.3</ele>
        <time>2021-08-31T12:44:22Z</time>
      </trkpt>
      <trkpt lat="45.02689" lon="5.52072">
        <ele>1118.4</ele>
        <time>2021-08-31T12:44:23Z</time>
      </trkpt>
      <trkpt lat="45.02687" lon="5.52071">
        <ele>1118.4</ele>
        <time>2021-08-31T12:44:24Z</time>
      </trkpt>
      <trkpt lat="45.02684" lon="5.52069">
        <ele>1118.6</ele>
        <time>2021-08-31T12:44:26Z</time>
      </trkpt>
      <trkpt lat="45.02681" lon="5.52067">
        <ele>1118.7</ele>
        <time>2021-08-31T12:44:27Z</time>
      </trkpt>
      <trkpt lat="45.02679" lon="5.52067">
        <ele>1118.7</ele>
        <time>2021-08-31T12:44:28Z</time>
      </trkpt>
      <trkpt lat="45.02677" lon="5.52066">
        <ele>1118.8</ele>
        <time>2021-08-31T12:44:29Z</time>
      </trkpt>
      <trkpt lat="45.02674" lon="5.52064">
        <ele>1118.9</ele>
        <time>2021-08-31T12:44:31Z</time>
      </trkpt>
      <trkpt lat="45.0267" lon="5.52061">
        <ele>1119.1</ele>
        <time>2021-08-31T12:44:32Z</time>
      </trkpt>
      <trkpt lat="45.02669" lon="5.52061">
        <ele>1119.1</ele>
        <time>2021-08-31T12:44:33Z</time>
      </trkpt>
      <trkpt lat="45.02667" lon="5.52059">
        <ele>1119.3</ele>
        <time>2021-08-31T12:44:34Z</time>
      </trkpt>
      <trkpt lat="45.02663" lon="5.52056">
        <ele>1119.5</ele>
        <time>2021-08-31T12:44:35Z</time>
      </trkpt>
      <trkpt lat="45.02662" lon="5.52055">
        <ele>1119.5</ele>
        <time>2021-08-31T12:44:36Z</time>
      </trkpt>
      <trkpt lat="45.02659" lon="5.52052">
        <ele>1119.7</ele>
        <time>2021-08-31T12:44:37Z</time>
      </trkpt>
      <trkpt lat="45.02657" lon="5.52051">
        <ele>1119.8</ele>
        <time>2021-08-31T12:44:38Z</time>
      </trkpt>
      <trkpt lat="45.02652" lon="5.52047">
        <ele>1120.1</ele>
        <time>2021-08-31T12:44:40Z</time>
      </trkpt>
      <trkpt lat="45.02649" lon="5.52044">
        <ele>1120.3</ele>
        <time>2021-08-31T12:44:41Z</time>
      </trkpt>
      <trkpt lat="45.02645" lon="5.52041">
        <ele>1120.6</ele>
        <time>2021-08-31T12:44:43Z</time>
      </trkpt>
      <trkpt lat="45.02642" lon="5.52038">
        <ele>1120.8</ele>
        <time>2021-08-31T12:44:44Z</time>
      </trkpt>
      <trkpt lat="45.02638" lon="5.52036">
        <ele>1121.1</ele>
        <time>2021-08-31T12:44:45Z</time>
      </trkpt>
      <trkpt lat="45.02634" lon="5.52032">
        <ele>1121.3</ele>
        <time>2021-08-31T12:44:47Z</time>
      </trkpt>
      <trkpt lat="45.02632" lon="5.52029">
        <ele>1121.5</ele>
        <time>2021-08-31T12:44:48Z</time>
      </trkpt>
      <trkpt lat="45.02629" lon="5.52024">
        <ele>1121.7</ele>
        <time>2021-08-31T12:44:50Z</time>
      </trkpt>
      <trkpt lat="45.02627" lon="5.5202">
        <ele>1121.9</ele>
        <time>2021-08-31T12:44:51Z</time>
      </trkpt>
      <trkpt lat="45.02625" lon="5.52018">
        <ele>1122</ele>
        <time>2021-08-31T12:44:53Z</time>
      </trkpt>
      <trkpt lat="45.02625" lon="5.52016">
        <ele>1122.1</ele>
        <time>2021-08-31T12:44:54Z</time>
      </trkpt>
      <trkpt lat="45.02626" lon="5.5201">
        <ele>1122.4</ele>
        <time>2021-08-31T12:44:56Z</time>
      </trkpt>
      <trkpt lat="45.02624" lon="5.52007">
        <ele>1122.6</ele>
        <time>2021-08-31T12:44:57Z</time>
      </trkpt>
      <trkpt lat="45.02623" lon="5.52004">
        <ele>1122.8</ele>
        <time>2021-08-31T12:44:58Z</time>
      </trkpt>
      <trkpt lat="45.02621" lon="5.51998">
        <ele>1123.1</ele>
        <time>2021-08-31T12:45:00Z</time>
      </trkpt>
      <trkpt lat="45.02619" lon="5.51994">
        <ele>1123.3</ele>
        <time>2021-08-31T12:45:02Z</time>
      </trkpt>
      <trkpt lat="45.02619" lon="5.51992">
        <ele>1123.4</ele>
        <time>2021-08-31T12:45:03Z</time>
      </trkpt>
      <trkpt lat="45.02618" lon="5.51989">
        <ele>1123.6</ele>
        <time>2021-08-31T12:45:05Z</time>
      </trkpt>
      <trkpt lat="45.02616" lon="5.51985">
        <ele>1123.8</ele>
        <time>2021-08-31T12:45:06Z</time>
      </trkpt>
      <trkpt lat="45.02616" lon="5.51984">
        <ele>1123.9</ele>
        <time>2021-08-31T12:45:07Z</time>
      </trkpt>
      <trkpt lat="45.02613" lon="5.5198">
        <ele>1124.1</ele>
        <time>2021-08-31T12:45:09Z</time>
      </trkpt>
      <trkpt lat="45.02612" lon="5.51978">
        <ele>1124.3</ele>
        <time>2021-08-31T12:45:10Z</time>
      </trkpt>
      <trkpt lat="45.02609" lon="5.51973">
        <ele>1124.7</ele>
        <time>2021-08-31T12:45:12Z</time>
      </trkpt>
      <trkpt lat="45.02607" lon="5.51968">
        <ele>1125</ele>
        <time>2021-08-31T12:45:14Z</time>
      </trkpt>
      <trkpt lat="45.02606" lon="5.51966">
        <ele>1125.1</ele>
        <time>2021-08-31T12:45:15Z</time>
      </trkpt>
      <trkpt lat="45.02605" lon="5.51962">
        <ele>1125.4</ele>
        <time>2021-08-31T12:45:17Z</time>
      </trkpt>
      <trkpt lat="45.02604" lon="5.51959">
        <ele>1125.6</ele>
        <time>2021-08-31T12:45:18Z</time>
      </trkpt>
      <trkpt lat="45.02603" lon="5.51956">
        <ele>1125.7</ele>
        <time>2021-08-31T12:45:20Z</time>
      </trkpt>
      <trkpt lat="45.02603" lon="5.51954">
        <ele>1125.9</ele>
        <time>2021-08-31T12:45:21Z</time>
      </trkpt>
      <trkpt lat="45.02602" lon="5.51952">
        <ele>1126</ele>
        <time>2021-08-31T12:45:22Z</time>
      </trkpt>
      <trkpt lat="45.02601" lon="5.51946">
        <ele>1126.4</ele>
        <time>2021-08-31T12:45:23Z</time>
      </trkpt>
      <trkpt lat="45.026" lon="5.51944">
        <ele>1126.5</ele>
        <time>2021-08-31T12:45:24Z</time>
      </trkpt>
      <trkpt lat="45.02598" lon="5.51939">
        <ele>1126.8</ele>
        <time>2021-08-31T12:45:26Z</time>
      </trkpt>
      <trkpt lat="45.02595" lon="5.51935">
        <ele>1127.2</ele>
        <time>2021-08-31T12:45:27Z</time>
      </trkpt>
      <trkpt lat="45.02591" lon="5.51929">
        <ele>1127.7</ele>
        <time>2021-08-31T12:45:29Z</time>
      </trkpt>
      <trkpt lat="45.02587" lon="5.51923">
        <ele>1128.2</ele>
        <time>2021-08-31T12:45:31Z</time>
      </trkpt>
      <trkpt lat="45.02585" lon="5.5192">
        <ele>1128.4</ele>
        <time>2021-08-31T12:45:32Z</time>
      </trkpt>
      <trkpt lat="45.02584" lon="5.51917">
        <ele>1128.7</ele>
        <time>2021-08-31T12:45:34Z</time>
      </trkpt>
      <trkpt lat="45.02582" lon="5.51913">
        <ele>1129</ele>
        <time>2021-08-31T12:45:35Z</time>
      </trkpt>
      <trkpt lat="45.02582" lon="5.51912">
        <ele>1129.1</ele>
        <time>2021-08-31T12:45:36Z</time>
      </trkpt>
      <trkpt lat="45.02581" lon="5.51907">
        <ele>1129.3</ele>
        <time>2021-08-31T12:45:38Z</time>
      </trkpt>
      <trkpt lat="45.0258" lon="5.51904">
        <ele>1129.6</ele>
        <time>2021-08-31T12:45:39Z</time>
      </trkpt>
      <trkpt lat="45.02577" lon="5.519">
        <ele>1129.9</ele>
        <time>2021-08-31T12:45:41Z</time>
      </trkpt>
      <trkpt lat="45.02576" lon="5.51899">
        <ele>1130</ele>
        <time>2021-08-31T12:45:42Z</time>
      </trkpt>
      <trkpt lat="45.02574" lon="5.51896">
        <ele>1130.3</ele>
        <time>2021-08-31T12:45:43Z</time>
      </trkpt>
      <trkpt lat="45.02574" lon="5.51893">
        <ele>1130.4</ele>
        <time>2021-08-31T12:45:44Z</time>
      </trkpt>
      <trkpt lat="45.02573" lon="5.51892">
        <ele>1130.6</ele>
        <time>2021-08-31T12:45:45Z</time>
      </trkpt>
      <trkpt lat="45.02572" lon="5.5189">
        <ele>1130.7</ele>
        <time>2021-08-31T12:45:46Z</time>
      </trkpt>
      <trkpt lat="45.02572" lon="5.51889">
        <ele>1130.8</ele>
        <time>2021-08-31T12:45:47Z</time>
      </trkpt>
      <trkpt lat="45.02571" lon="5.51889">
        <ele>1130.8</ele>
        <time>2021-08-31T12:45:49Z</time>
      </trkpt>
      <trkpt lat="45.0257" lon="5.51891">
        <ele>1130.9</ele>
        <time>2021-08-31T12:45:50Z</time>
      </trkpt>
      <trkpt lat="45.0257" lon="5.51892">
        <ele>1131</ele>
        <time>2021-08-31T12:45:51Z</time>
      </trkpt>
      <trkpt lat="45.0257" lon="5.51892">
        <ele>1131.1</ele>
        <time>2021-08-31T12:45:53Z</time>
      </trkpt>
      <trkpt lat="45.02569" lon="5.51892">
        <ele>1131.1</ele>
        <time>2021-08-31T12:45:54Z</time>
      </trkpt>
      <trkpt lat="45.02568" lon="5.51892">
        <ele>1131.2</ele>
        <time>2021-08-31T12:45:55Z</time>
      </trkpt>
      <trkpt lat="45.02567" lon="5.51892">
        <ele>1131.3</ele>
        <time>2021-08-31T12:45:56Z</time>
      </trkpt>
      <trkpt lat="45.02566" lon="5.51891">
        <ele>1131.4</ele>
        <time>2021-08-31T12:45:58Z</time>
      </trkpt>
      <trkpt lat="45.02565" lon="5.5189">
        <ele>1131.5</ele>
        <time>2021-08-31T12:45:59Z</time>
      </trkpt>
      <trkpt lat="45.02558" lon="5.51882">
        <ele>1132.3</ele>
        <time>2021-08-31T12:46:04Z</time>
      </trkpt>
      <trkpt lat="45.02554" lon="5.51878">
        <ele>1132.7</ele>
        <time>2021-08-31T12:46:05Z</time>
      </trkpt>
      <trkpt lat="45.0255" lon="5.51873">
        <ele>1133.1</ele>
        <time>2021-08-31T12:46:07Z</time>
      </trkpt>
      <trkpt lat="45.02548" lon="5.51871">
        <ele>1133.3</ele>
        <time>2021-08-31T12:46:08Z</time>
      </trkpt>
      <trkpt lat="45.02545" lon="5.51868">
        <ele>1133.6</ele>
        <time>2021-08-31T12:46:10Z</time>
      </trkpt>
      <trkpt lat="45.02542" lon="5.51865">
        <ele>1133.8</ele>
        <time>2021-08-31T12:46:11Z</time>
      </trkpt>
      <trkpt lat="45.02541" lon="5.51865">
        <ele>1133.9</ele>
        <time>2021-08-31T12:46:12Z</time>
      </trkpt>
      <trkpt lat="45.02538" lon="5.51861">
        <ele>1134.1</ele>
        <time>2021-08-31T12:46:14Z</time>
      </trkpt>
      <trkpt lat="45.02537" lon="5.51859">
        <ele>1134.3</ele>
        <time>2021-08-31T12:46:15Z</time>
      </trkpt>
      <trkpt lat="45.02536" lon="5.51857">
        <ele>1134.4</ele>
        <time>2021-08-31T12:46:16Z</time>
      </trkpt>
      <trkpt lat="45.02535" lon="5.51853">
        <ele>1134.6</ele>
        <time>2021-08-31T12:46:18Z</time>
      </trkpt>
      <trkpt lat="45.02531" lon="5.5185">
        <ele>1134.9</ele>
        <time>2021-08-31T12:46:20Z</time>
      </trkpt>
      <trkpt lat="45.02528" lon="5.51848">
        <ele>1135.1</ele>
        <time>2021-08-31T12:46:21Z</time>
      </trkpt>
      <trkpt lat="45.02526" lon="5.51847">
        <ele>1135.3</ele>
        <time>2021-08-31T12:46:22Z</time>
      </trkpt>
      <trkpt lat="45.02524" lon="5.51844">
        <ele>1135.5</ele>
        <time>2021-08-31T12:46:24Z</time>
      </trkpt>
      <trkpt lat="45.02521" lon="5.5184">
        <ele>1135.8</ele>
        <time>2021-08-31T12:46:26Z</time>
      </trkpt>
      <trkpt lat="45.0252" lon="5.51838">
        <ele>1135.9</ele>
        <time>2021-08-31T12:46:27Z</time>
      </trkpt>
      <trkpt lat="45.02519" lon="5.51837">
        <ele>1136</ele>
        <time>2021-08-31T12:46:29Z</time>
      </trkpt>
      <trkpt lat="45.02519" lon="5.51838">
        <ele>1136.1</ele>
        <time>2021-08-31T12:46:31Z</time>
      </trkpt>
      <trkpt lat="45.02518" lon="5.51838">
        <ele>1136.2</ele>
        <time>2021-08-31T12:46:32Z</time>
      </trkpt>
      <trkpt lat="45.02515" lon="5.51837">
        <ele>1136.4</ele>
        <time>2021-08-31T12:46:34Z</time>
      </trkpt>
      <trkpt lat="45.02512" lon="5.51837">
        <ele>1136.7</ele>
        <time>2021-08-31T12:46:36Z</time>
      </trkpt>
      <trkpt lat="45.0251" lon="5.51838">
        <ele>1136.8</ele>
        <time>2021-08-31T12:46:38Z</time>
      </trkpt>
      <trkpt lat="45.02508" lon="5.51837">
        <ele>1136.9</ele>
        <time>2021-08-31T12:46:39Z</time>
      </trkpt>
      <trkpt lat="45.02507" lon="5.51835">
        <ele>1137.1</ele>
        <time>2021-08-31T12:46:40Z</time>
      </trkpt>
      <trkpt lat="45.02504" lon="5.51833">
        <ele>1137.4</ele>
        <time>2021-08-31T12:46:42Z</time>
      </trkpt>
      <trkpt lat="45.02502" lon="5.5183">
        <ele>1137.6</ele>
        <time>2021-08-31T12:46:43Z</time>
      </trkpt>
      <trkpt lat="45.025" lon="5.51828">
        <ele>1137.8</ele>
        <time>2021-08-31T12:46:45Z</time>
      </trkpt>
      <trkpt lat="45.02499" lon="5.51826">
        <ele>1137.9</ele>
        <time>2021-08-31T12:46:46Z</time>
      </trkpt>
      <trkpt lat="45.02498" lon="5.51825">
        <ele>1138</ele>
        <time>2021-08-31T12:46:47Z</time>
      </trkpt>
      <trkpt lat="45.02495" lon="5.51822">
        <ele>1138.2</ele>
        <time>2021-08-31T12:46:49Z</time>
      </trkpt>
      <trkpt lat="45.02494" lon="5.51819">
        <ele>1138.5</ele>
        <time>2021-08-31T12:46:50Z</time>
      </trkpt>
      <trkpt lat="45.02492" lon="5.51816">
        <ele>1138.7</ele>
        <time>2021-08-31T12:46:51Z</time>
      </trkpt>
      <trkpt lat="45.02491" lon="5.51815">
        <ele>1138.8</ele>
        <time>2021-08-31T12:46:52Z</time>
      </trkpt>
      <trkpt lat="45.02488" lon="5.5181">
        <ele>1139.1</ele>
        <time>2021-08-31T12:46:54Z</time>
      </trkpt>
      <trkpt lat="45.02486" lon="5.51809">
        <ele>1139.3</ele>
        <time>2021-08-31T12:46:55Z</time>
      </trkpt>
      <trkpt lat="45.02483" lon="5.51806">
        <ele>1139.6</ele>
        <time>2021-08-31T12:46:56Z</time>
      </trkpt>
      <trkpt lat="45.02481" lon="5.51806">
        <ele>1139.7</ele>
        <time>2021-08-31T12:46:57Z</time>
      </trkpt>
      <trkpt lat="45.02479" lon="5.51806">
        <ele>1139.9</ele>
        <time>2021-08-31T12:46:59Z</time>
      </trkpt>
      <trkpt lat="45.02478" lon="5.51806">
        <ele>1140</ele>
        <time>2021-08-31T12:47:00Z</time>
      </trkpt>
      <trkpt lat="45.02476" lon="5.51806">
        <ele>1140.1</ele>
        <time>2021-08-31T12:47:01Z</time>
      </trkpt>
      <trkpt lat="45.02474" lon="5.51805">
        <ele>1140.3</ele>
        <time>2021-08-31T12:47:02Z</time>
      </trkpt>
      <trkpt lat="45.02473" lon="5.51804">
        <ele>1140.4</ele>
        <time>2021-08-31T12:47:03Z</time>
      </trkpt>
      <trkpt lat="45.02472" lon="5.51803">
        <ele>1140.5</ele>
        <time>2021-08-31T12:47:04Z</time>
      </trkpt>
      <trkpt lat="45.0247" lon="5.51802">
        <ele>1140.7</ele>
        <time>2021-08-31T12:47:06Z</time>
      </trkpt>
      <trkpt lat="45.02469" lon="5.518">
        <ele>1140.8</ele>
        <time>2021-08-31T12:47:07Z</time>
      </trkpt>
      <trkpt lat="45.02468" lon="5.51799">
        <ele>1140.9</ele>
        <time>2021-08-31T12:47:08Z</time>
      </trkpt>
      <trkpt lat="45.02466" lon="5.51796">
        <ele>1141.2</ele>
        <time>2021-08-31T12:47:09Z</time>
      </trkpt>
      <trkpt lat="45.02465" lon="5.51795">
        <ele>1141.2</ele>
        <time>2021-08-31T12:47:10Z</time>
      </trkpt>
      <trkpt lat="45.02462" lon="5.51793">
        <ele>1141.5</ele>
        <time>2021-08-31T12:47:11Z</time>
      </trkpt>
      <trkpt lat="45.02461" lon="5.51792">
        <ele>1141.6</ele>
        <time>2021-08-31T12:47:12Z</time>
      </trkpt>
      <trkpt lat="45.02459" lon="5.5179">
        <ele>1141.9</ele>
        <time>2021-08-31T12:47:13Z</time>
      </trkpt>
      <trkpt lat="45.02456" lon="5.51788">
        <ele>1141.9</ele>
        <time>2021-08-31T12:47:15Z</time>
      </trkpt>
      <trkpt lat="45.02453" lon="5.51785">
        <ele>1142.9</ele>
        <time>2021-08-31T12:47:16Z</time>
      </trkpt>
      <trkpt lat="45.02449" lon="5.51782">
        <ele>1143.2</ele>
        <time>2021-08-31T12:47:18Z</time>
      </trkpt>
      <trkpt lat="45.02446" lon="5.51777">
        <ele>1143.5</ele>
        <time>2021-08-31T12:47:20Z</time>
      </trkpt>
      <trkpt lat="45.02445" lon="5.51776">
        <ele>1143.6</ele>
        <time>2021-08-31T12:47:21Z</time>
      </trkpt>
      <trkpt lat="45.02444" lon="5.51774">
        <ele>1143.7</ele>
        <time>2021-08-31T12:47:22Z</time>
      </trkpt>
      <trkpt lat="45.02441" lon="5.5177">
        <ele>1144</ele>
        <time>2021-08-31T12:47:24Z</time>
      </trkpt>
      <trkpt lat="45.02438" lon="5.51767">
        <ele>1144.2</ele>
        <time>2021-08-31T12:47:26Z</time>
      </trkpt>
      <trkpt lat="45.02435" lon="5.51766">
        <ele>1144.5</ele>
        <time>2021-08-31T12:47:28Z</time>
      </trkpt>
      <trkpt lat="45.02432" lon="5.51765">
        <ele>1144.7</ele>
        <time>2021-08-31T12:47:30Z</time>
      </trkpt>
      <trkpt lat="45.02428" lon="5.51762">
        <ele>1145</ele>
        <time>2021-08-31T12:47:32Z</time>
      </trkpt>
      <trkpt lat="45.02424" lon="5.51762">
        <ele>1145.3</ele>
        <time>2021-08-31T12:47:34Z</time>
      </trkpt>
      <trkpt lat="45.02423" lon="5.51761">
        <ele>1145.4</ele>
        <time>2021-08-31T12:47:36Z</time>
      </trkpt>
      <trkpt lat="45.02422" lon="5.5176">
        <ele>1145.5</ele>
        <time>2021-08-31T12:47:38Z</time>
      </trkpt>
      <trkpt lat="45.0242" lon="5.51759">
        <ele>1145.6</ele>
        <time>2021-08-31T12:47:39Z</time>
      </trkpt>
      <trkpt lat="45.02419" lon="5.51759">
        <ele>1145.7</ele>
        <time>2021-08-31T12:47:40Z</time>
      </trkpt>
      <trkpt lat="45.02418" lon="5.51758">
        <ele>1145.8</ele>
        <time>2021-08-31T12:47:41Z</time>
      </trkpt>
      <trkpt lat="45.02416" lon="5.51757">
        <ele>1145.9</ele>
        <time>2021-08-31T12:47:42Z</time>
      </trkpt>
      <trkpt lat="45.02415" lon="5.51756">
        <ele>1146</ele>
        <time>2021-08-31T12:47:43Z</time>
      </trkpt>
      <trkpt lat="45.02414" lon="5.51755">
        <ele>1146.1</ele>
        <time>2021-08-31T12:47:44Z</time>
      </trkpt>
      <trkpt lat="45.02411" lon="5.51753">
        <ele>1146.3</ele>
        <time>2021-08-31T12:47:46Z</time>
      </trkpt>
      <trkpt lat="45.02411" lon="5.51753">
        <ele>1146.4</ele>
        <time>2021-08-31T12:47:47Z</time>
      </trkpt>
      <trkpt lat="45.0241" lon="5.51752">
        <ele>1146.4</ele>
        <time>2021-08-31T12:47:48Z</time>
      </trkpt>
      <trkpt lat="45.02407" lon="5.51751">
        <ele>1146.7</ele>
        <time>2021-08-31T12:47:49Z</time>
      </trkpt>
      <trkpt lat="45.02406" lon="5.5175">
        <ele>1146.7</ele>
        <time>2021-08-31T12:47:50Z</time>
      </trkpt>
      <trkpt lat="45.02402" lon="5.51751">
        <ele>1147</ele>
        <time>2021-08-31T12:47:52Z</time>
      </trkpt>
      <trkpt lat="45.02401" lon="5.51752">
        <ele>1147.1</ele>
        <time>2021-08-31T12:47:53Z</time>
      </trkpt>
      <trkpt lat="45.02401" lon="5.51755">
        <ele>1147.3</ele>
        <time>2021-08-31T12:47:54Z</time>
      </trkpt>
      <trkpt lat="45.02397" lon="5.51755">
        <ele>1147.6</ele>
        <time>2021-08-31T12:47:56Z</time>
      </trkpt>
      <trkpt lat="45.02395" lon="5.51754">
        <ele>1147.8</ele>
        <time>2021-08-31T12:47:58Z</time>
      </trkpt>
      <trkpt lat="45.02394" lon="5.51753">
        <ele>1147.9</ele>
        <time>2021-08-31T12:47:59Z</time>
      </trkpt>
      <trkpt lat="45.02391" lon="5.51751">
        <ele>1148.1</ele>
        <time>2021-08-31T12:48:00Z</time>
      </trkpt>
      <trkpt lat="45.02388" lon="5.51751">
        <ele>1148.3</ele>
        <time>2021-08-31T12:48:01Z</time>
      </trkpt>
      <trkpt lat="45.02385" lon="5.51749">
        <ele>1148.6</ele>
        <time>2021-08-31T12:48:03Z</time>
      </trkpt>
      <trkpt lat="45.02381" lon="5.51746">
        <ele>1148.9</ele>
        <time>2021-08-31T12:48:05Z</time>
      </trkpt>
      <trkpt lat="45.02378" lon="5.51745">
        <ele>1149.1</ele>
        <time>2021-08-31T12:48:06Z</time>
      </trkpt>
      <trkpt lat="45.02376" lon="5.51744">
        <ele>1149.3</ele>
        <time>2021-08-31T12:48:07Z</time>
      </trkpt>
      <trkpt lat="45.02374" lon="5.51743">
        <ele>1149.4</ele>
        <time>2021-08-31T12:48:09Z</time>
      </trkpt>
      <trkpt lat="45.0237" lon="5.51743">
        <ele>1149.7</ele>
        <time>2021-08-31T12:48:10Z</time>
      </trkpt>
      <trkpt lat="45.02369" lon="5.51742">
        <ele>1149.8</ele>
        <time>2021-08-31T12:48:11Z</time>
      </trkpt>
      <trkpt lat="45.02367" lon="5.51742">
        <ele>1149.9</ele>
        <time>2021-08-31T12:48:12Z</time>
      </trkpt>
      <trkpt lat="45.02363" lon="5.51741">
        <ele>1150.2</ele>
        <time>2021-08-31T12:48:14Z</time>
      </trkpt>
      <trkpt lat="45.02359" lon="5.51741">
        <ele>1150.5</ele>
        <time>2021-08-31T12:48:15Z</time>
      </trkpt>
      <trkpt lat="45.02358" lon="5.5174">
        <ele>1150.5</ele>
        <time>2021-08-31T12:48:16Z</time>
      </trkpt>
      <trkpt lat="45.02356" lon="5.51739">
        <ele>1150.8</ele>
        <time>2021-08-31T12:48:17Z</time>
      </trkpt>
      <trkpt lat="45.02355" lon="5.51738">
        <ele>1150.9</ele>
        <time>2021-08-31T12:48:18Z</time>
      </trkpt>
      <trkpt lat="45.02353" lon="5.51737">
        <ele>1151</ele>
        <time>2021-08-31T12:48:20Z</time>
      </trkpt>
      <trkpt lat="45.02353" lon="5.51737">
        <ele>1151</ele>
        <time>2021-08-31T12:48:21Z</time>
      </trkpt>
      <trkpt lat="45.02353" lon="5.51737">
        <ele>1151</ele>
        <time>2021-08-31T12:48:22Z</time>
      </trkpt>
      <trkpt lat="45.02352" lon="5.51737">
        <ele>1151</ele>
        <time>2021-08-31T12:48:23Z</time>
      </trkpt>
      <trkpt lat="45.02352" lon="5.51736">
        <ele>1151</ele>
        <time>2021-08-31T12:48:25Z</time>
      </trkpt>
      <trkpt lat="45.02352" lon="5.51736">
        <ele>1151.1</ele>
        <time>2021-08-31T12:48:26Z</time>
      </trkpt>
      <trkpt lat="45.02352" lon="5.51736">
        <ele>1151.1</ele>
        <time>2021-08-31T12:48:27Z</time>
      </trkpt>
      <trkpt lat="45.02351" lon="5.51735">
        <ele>1151.1</ele>
        <time>2021-08-31T12:48:29Z</time>
      </trkpt>
      <trkpt lat="45.02319" lon="5.51703">
        <ele>1155.4</ele>
        <time>2021-08-31T12:50:18Z</time>
      </trkpt>
      <trkpt lat="45.02318" lon="5.51697">
        <ele>1156.2</ele>
        <time>2021-08-31T12:50:20Z</time>
      </trkpt>
      <trkpt lat="45.02318" lon="5.51692">
        <ele>1156.8</ele>
        <time>2021-08-31T12:50:22Z</time>
      </trkpt>
      <trkpt lat="45.02317" lon="5.51687">
        <ele>1157.5</ele>
        <time>2021-08-31T12:50:23Z</time>
      </trkpt>
      <trkpt lat="45.02317" lon="5.51685">
        <ele>1157.7</ele>
        <time>2021-08-31T12:50:24Z</time>
      </trkpt>
      <trkpt lat="45.02317" lon="5.5168">
        <ele>1158.3</ele>
        <time>2021-08-31T12:50:25Z</time>
      </trkpt>
      <trkpt lat="45.02316" lon="5.51678">
        <ele>1158.6</ele>
        <time>2021-08-31T12:50:27Z</time>
      </trkpt>
      <trkpt lat="45.02316" lon="5.51676">
        <ele>1158.8</ele>
        <time>2021-08-31T12:50:29Z</time>
      </trkpt>
      <trkpt lat="45.02315" lon="5.51674">
        <ele>1159.1</ele>
        <time>2021-08-31T12:50:30Z</time>
      </trkpt>
      <trkpt lat="45.02314" lon="5.51672">
        <ele>1159.3</ele>
        <time>2021-08-31T12:50:31Z</time>
      </trkpt>
      <trkpt lat="45.02314" lon="5.51672">
        <ele>1159.3</ele>
        <time>2021-08-31T12:50:32Z</time>
      </trkpt>
      <trkpt lat="45.02314" lon="5.51671">
        <ele>1159.4</ele>
        <time>2021-08-31T12:50:34Z</time>
      </trkpt>
      <trkpt lat="45.02314" lon="5.51671">
        <ele>1159.5</ele>
        <time>2021-08-31T12:50:35Z</time>
      </trkpt>
      <trkpt lat="45.02314" lon="5.51671">
        <ele>1159.5</ele>
        <time>2021-08-31T12:50:37Z</time>
      </trkpt>
      <trkpt lat="45.02314" lon="5.5167">
        <ele>1159.5</ele>
        <time>2021-08-31T12:50:38Z</time>
      </trkpt>
      <trkpt lat="45.02314" lon="5.5167">
        <ele>1159.6</ele>
        <time>2021-08-31T12:50:40Z</time>
      </trkpt>
      <trkpt lat="45.02323" lon="5.51667">
        <ele>1160.5</ele>
        <time>2021-08-31T12:50:46Z</time>
      </trkpt>
      <trkpt lat="45.02328" lon="5.51667">
        <ele>1160.8</ele>
        <time>2021-08-31T12:50:47Z</time>
      </trkpt>
      <trkpt lat="45.02334" lon="5.51665">
        <ele>1161</ele>
        <time>2021-08-31T12:50:48Z</time>
      </trkpt>
      <trkpt lat="45.02342" lon="5.51661">
        <ele>1161.3</ele>
        <time>2021-08-31T12:50:50Z</time>
      </trkpt>
      <trkpt lat="45.02347" lon="5.51654">
        <ele>1161.5</ele>
        <time>2021-08-31T12:50:51Z</time>
      </trkpt>
      <trkpt lat="45.0235" lon="5.51651">
        <ele>1161.7</ele>
        <time>2021-08-31T12:50:52Z</time>
      </trkpt>
      <trkpt lat="45.02353" lon="5.51644">
        <ele>1162</ele>
        <time>2021-08-31T12:50:54Z</time>
      </trkpt>
      <trkpt lat="45.02355" lon="5.51641">
        <ele>1162.1</ele>
        <time>2021-08-31T12:50:56Z</time>
      </trkpt>
      <trkpt lat="45.02356" lon="5.51637">
        <ele>1162.3</ele>
        <time>2021-08-31T12:50:57Z</time>
      </trkpt>
      <trkpt lat="45.02356" lon="5.51637">
        <ele>1162.4</ele>
        <time>2021-08-31T12:50:58Z</time>
      </trkpt>
      <trkpt lat="45.02356" lon="5.51638">
        <ele>1162.4</ele>
        <time>2021-08-31T12:50:59Z</time>
      </trkpt>
      <trkpt lat="45.02356" lon="5.51639">
        <ele>1162.5</ele>
        <time>2021-08-31T12:51:01Z</time>
      </trkpt>
      <trkpt lat="45.02356" lon="5.51639">
        <ele>1162.5</ele>
        <time>2021-08-31T12:51:02Z</time>
      </trkpt>
      <trkpt lat="45.02356" lon="5.5164">
        <ele>1162.5</ele>
        <time>2021-08-31T12:51:04Z</time>
      </trkpt>
      <trkpt lat="45.02356" lon="5.5164">
        <ele>1162.5</ele>
        <time>2021-08-31T12:51:05Z</time>
      </trkpt>
      <trkpt lat="45.02356" lon="5.5164">
        <ele>1162.5</ele>
        <time>2021-08-31T12:51:06Z</time>
      </trkpt>
      <trkpt lat="45.02356" lon="5.5164">
        <ele>1162.5</ele>
        <time>2021-08-31T12:51:08Z</time>
      </trkpt>
      <trkpt lat="45.02358" lon="5.51615">
        <ele>1164.6</ele>
        <time>2021-08-31T12:51:35Z</time>
      </trkpt>
      <trkpt lat="45.0236" lon="5.51611">
        <ele>1165.2</ele>
        <time>2021-08-31T12:51:37Z</time>
      </trkpt>
      <trkpt lat="45.02362" lon="5.51608">
        <ele>1165.6</ele>
        <time>2021-08-31T12:51:38Z</time>
      </trkpt>
      <trkpt lat="45.02365" lon="5.51604">
        <ele>1166.1</ele>
        <time>2021-08-31T12:51:39Z</time>
      </trkpt>
      <trkpt lat="45.02366" lon="5.51602">
        <ele>1166.4</ele>
        <time>2021-08-31T12:51:41Z</time>
      </trkpt>
      <trkpt lat="45.02367" lon="5.516">
        <ele>1166.7</ele>
        <time>2021-08-31T12:51:42Z</time>
      </trkpt>
      <trkpt lat="45.02369" lon="5.51597">
        <ele>1167.1</ele>
        <time>2021-08-31T12:51:43Z</time>
      </trkpt>
      <trkpt lat="45.02369" lon="5.51597">
        <ele>1167.2</ele>
        <time>2021-08-31T12:51:44Z</time>
      </trkpt>
      <trkpt lat="45.02377" lon="5.51596">
        <ele>1167.6</ele>
        <time>2021-08-31T12:51:46Z</time>
      </trkpt>
      <trkpt lat="45.02383" lon="5.51594">
        <ele>1167.3</ele>
        <time>2021-08-31T12:51:47Z</time>
      </trkpt>
      <trkpt lat="45.02388" lon="5.51593">
        <ele>1167.5</ele>
        <time>2021-08-31T12:51:49Z</time>
      </trkpt>
      <trkpt lat="45.02394" lon="5.51591">
        <ele>1167.9</ele>
        <time>2021-08-31T12:51:50Z</time>
      </trkpt>
      <trkpt lat="45.024" lon="5.51589">
        <ele>1168.4</ele>
        <time>2021-08-31T12:51:51Z</time>
      </trkpt>
      <trkpt lat="45.02405" lon="5.51588">
        <ele>1168.8</ele>
        <time>2021-08-31T12:51:53Z</time>
      </trkpt>
      <trkpt lat="45.02411" lon="5.51586">
        <ele>1169.3</ele>
        <time>2021-08-31T12:51:54Z</time>
      </trkpt>
      <trkpt lat="45.02417" lon="5.51584">
        <ele>1169.6</ele>
        <time>2021-08-31T12:52:59Z</time>
      </trkpt>
      <trkpt lat="45.02423" lon="5.51583">
        <ele>1170</ele>
        <time>2021-08-31T12:53:00Z</time>
      </trkpt>
      <trkpt lat="45.02428" lon="5.51581">
        <ele>1170.3</ele>
        <time>2021-08-31T12:53:01Z</time>
      </trkpt>
      <trkpt lat="45.02431" lon="5.5158">
        <ele>1170.5</ele>
        <time>2021-08-31T12:53:02Z</time>
      </trkpt>
      <trkpt lat="45.02432" lon="5.5158">
        <ele>1170.5</ele>
        <time>2021-08-31T12:53:03Z</time>
      </trkpt>
      <trkpt lat="45.02436" lon="5.51578">
        <ele>1170.8</ele>
        <time>2021-08-31T12:53:05Z</time>
      </trkpt>
      <trkpt lat="45.02439" lon="5.51578">
        <ele>1170.9</ele>
        <time>2021-08-31T12:53:06Z</time>
      </trkpt>
      <trkpt lat="45.02441" lon="5.51576">
        <ele>1171</ele>
        <time>2021-08-31T12:53:08Z</time>
      </trkpt>
      <trkpt lat="45.02441" lon="5.51575">
        <ele>1171.1</ele>
        <time>2021-08-31T12:53:09Z</time>
      </trkpt>
      <trkpt lat="45.02442" lon="5.51574">
        <ele>1171.1</ele>
        <time>2021-08-31T12:53:10Z</time>
      </trkpt>
      <trkpt lat="45.02443" lon="5.51574">
        <ele>1171.2</ele>
        <time>2021-08-31T12:53:12Z</time>
      </trkpt>
      <trkpt lat="45.02444" lon="5.51572">
        <ele>1171.3</ele>
        <time>2021-08-31T12:53:13Z</time>
      </trkpt>
      <trkpt lat="45.02446" lon="5.51569">
        <ele>1171.5</ele>
        <time>2021-08-31T12:53:15Z</time>
      </trkpt>
      <trkpt lat="45.02448" lon="5.51568">
        <ele>1171.6</ele>
        <time>2021-08-31T12:53:16Z</time>
      </trkpt>
      <trkpt lat="45.0245" lon="5.51568">
        <ele>1171.7</ele>
        <time>2021-08-31T12:53:17Z</time>
      </trkpt>
      <trkpt lat="45.02451" lon="5.51567">
        <ele>1171.8</ele>
        <time>2021-08-31T12:53:18Z</time>
      </trkpt>
      <trkpt lat="45.02453" lon="5.51565">
        <ele>1171.9</ele>
        <time>2021-08-31T12:53:20Z</time>
      </trkpt>
      <trkpt lat="45.02456" lon="5.51563">
        <ele>1172.7</ele>
        <time>2021-08-31T12:53:21Z</time>
      </trkpt>
      <trkpt lat="45.02458" lon="5.51563">
        <ele>1173</ele>
        <time>2021-08-31T12:53:22Z</time>
      </trkpt>
      <trkpt lat="45.0246" lon="5.5156">
        <ele>1173.7</ele>
        <time>2021-08-31T12:53:24Z</time>
      </trkpt>
      <trkpt lat="45.02462" lon="5.5156">
        <ele>1174.2</ele>
        <time>2021-08-31T12:53:25Z</time>
      </trkpt>
      <trkpt lat="45.02465" lon="5.51559">
        <ele>1175</ele>
        <time>2021-08-31T12:53:27Z</time>
      </trkpt>
      <trkpt lat="45.02467" lon="5.51559">
        <ele>1175.5</ele>
        <time>2021-08-31T12:53:28Z</time>
      </trkpt>
      <trkpt lat="45.02469" lon="5.51559">
        <ele>1176</ele>
        <time>2021-08-31T12:53:30Z</time>
      </trkpt>
      <trkpt lat="45.02472" lon="5.51559">
        <ele>1176.6</ele>
        <time>2021-08-31T12:53:31Z</time>
      </trkpt>
      <trkpt lat="45.02473" lon="5.51559">
        <ele>1177</ele>
        <time>2021-08-31T12:53:32Z</time>
      </trkpt>
      <trkpt lat="45.02474" lon="5.51558">
        <ele>1177.2</ele>
        <time>2021-08-31T12:53:33Z</time>
      </trkpt>
      <trkpt lat="45.02475" lon="5.51558">
        <ele>1177.3</ele>
        <time>2021-08-31T12:53:34Z</time>
      </trkpt>
      <trkpt lat="45.02476" lon="5.51557">
        <ele>1177.3</ele>
        <time>2021-08-31T12:53:36Z</time>
      </trkpt>
      <trkpt lat="45.02477" lon="5.51558">
        <ele>1177.4</ele>
        <time>2021-08-31T12:53:37Z</time>
      </trkpt>
      <trkpt lat="45.02479" lon="5.51558">
        <ele>1177.5</ele>
        <time>2021-08-31T12:53:38Z</time>
      </trkpt>
      <trkpt lat="45.02479" lon="5.51558">
        <ele>1177.5</ele>
        <time>2021-08-31T12:53:39Z</time>
      </trkpt>
      <trkpt lat="45.0248" lon="5.51558">
        <ele>1177.5</ele>
        <time>2021-08-31T12:53:40Z</time>
      </trkpt>
      <trkpt lat="45.02481" lon="5.51557">
        <ele>1177.5</ele>
        <time>2021-08-31T12:53:42Z</time>
      </trkpt>
      <trkpt lat="45.02481" lon="5.51557">
        <ele>1177.6</ele>
        <time>2021-08-31T12:53:43Z</time>
      </trkpt>
      <trkpt lat="45.02484" lon="5.51556">
        <ele>1177.7</ele>
        <time>2021-08-31T12:53:45Z</time>
      </trkpt>
      <trkpt lat="45.02486" lon="5.51556">
        <ele>1177.8</ele>
        <time>2021-08-31T12:53:46Z</time>
      </trkpt>
      <trkpt lat="45.02487" lon="5.51555">
        <ele>1177.9</ele>
        <time>2021-08-31T12:53:47Z</time>
      </trkpt>
      <trkpt lat="45.02488" lon="5.51555">
        <ele>1177.9</ele>
        <time>2021-08-31T12:53:49Z</time>
      </trkpt>
      <trkpt lat="45.02489" lon="5.51554">
        <ele>1178</ele>
        <time>2021-08-31T12:53:50Z</time>
      </trkpt>
      <trkpt lat="45.0249" lon="5.51554">
        <ele>1178.1</ele>
        <time>2021-08-31T12:53:51Z</time>
      </trkpt>
      <trkpt lat="45.02494" lon="5.51552">
        <ele>1178.3</ele>
        <time>2021-08-31T12:53:53Z</time>
      </trkpt>
      <trkpt lat="45.02496" lon="5.51551">
        <ele>1178.5</ele>
        <time>2021-08-31T12:53:54Z</time>
      </trkpt>
      <trkpt lat="45.02497" lon="5.51549">
        <ele>1178.6</ele>
        <time>2021-08-31T12:53:55Z</time>
      </trkpt>
      <trkpt lat="45.025" lon="5.51548">
        <ele>1178.8</ele>
        <time>2021-08-31T12:53:57Z</time>
      </trkpt>
      <trkpt lat="45.02501" lon="5.51547">
        <ele>1178.8</ele>
        <time>2021-08-31T12:53:58Z</time>
      </trkpt>
      <trkpt lat="45.02504" lon="5.51547">
        <ele>1179</ele>
        <time>2021-08-31T12:53:59Z</time>
      </trkpt>
      <trkpt lat="45.02505" lon="5.51548">
        <ele>1179.1</ele>
        <time>2021-08-31T12:54:00Z</time>
      </trkpt>
      <trkpt lat="45.02508" lon="5.51548">
        <ele>1179.3</ele>
        <time>2021-08-31T12:54:01Z</time>
      </trkpt>
      <trkpt lat="45.02509" lon="5.51547">
        <ele>1179.4</ele>
        <time>2021-08-31T12:54:02Z</time>
      </trkpt>
      <trkpt lat="45.02511" lon="5.51547">
        <ele>1179.6</ele>
        <time>2021-08-31T12:54:03Z</time>
      </trkpt>
      <trkpt lat="45.02512" lon="5.51547">
        <ele>1179.7</ele>
        <time>2021-08-31T12:54:04Z</time>
      </trkpt>
      <trkpt lat="45.02513" lon="5.51546">
        <ele>1179.7</ele>
        <time>2021-08-31T12:54:05Z</time>
      </trkpt>
      <trkpt lat="45.02515" lon="5.51545">
        <ele>1179.9</ele>
        <time>2021-08-31T12:54:06Z</time>
      </trkpt>
      <trkpt lat="45.02517" lon="5.51544">
        <ele>1180.1</ele>
        <time>2021-08-31T12:54:08Z</time>
      </trkpt>
      <trkpt lat="45.0252" lon="5.51545">
        <ele>1180.3</ele>
        <time>2021-08-31T12:54:09Z</time>
      </trkpt>
      <trkpt lat="45.02521" lon="5.51545">
        <ele>1180.4</ele>
        <time>2021-08-31T12:54:11Z</time>
      </trkpt>
      <trkpt lat="45.02523" lon="5.51545">
        <ele>1180.5</ele>
        <time>2021-08-31T12:54:12Z</time>
      </trkpt>
      <trkpt lat="45.02524" lon="5.51543">
        <ele>1180.7</ele>
        <time>2021-08-31T12:54:14Z</time>
      </trkpt>
      <trkpt lat="45.02526" lon="5.51542">
        <ele>1180.8</ele>
        <time>2021-08-31T12:54:15Z</time>
      </trkpt>
      <trkpt lat="45.02527" lon="5.51541">
        <ele>1181</ele>
        <time>2021-08-31T12:54:16Z</time>
      </trkpt>
      <trkpt lat="45.02532" lon="5.51539">
        <ele>1181.4</ele>
        <time>2021-08-31T12:54:18Z</time>
      </trkpt>
      <trkpt lat="45.02533" lon="5.51538">
        <ele>1181.5</ele>
        <time>2021-08-31T12:54:19Z</time>
      </trkpt>
      <trkpt lat="45.02534" lon="5.51538">
        <ele>1181.6</ele>
        <time>2021-08-31T12:54:20Z</time>
      </trkpt>
      <trkpt lat="45.02535" lon="5.51538">
        <ele>1181.7</ele>
        <time>2021-08-31T12:54:22Z</time>
      </trkpt>
      <trkpt lat="45.02536" lon="5.51538">
        <ele>1181.8</ele>
        <time>2021-08-31T12:54:23Z</time>
      </trkpt>
      <trkpt lat="45.02538" lon="5.51537">
        <ele>1182</ele>
        <time>2021-08-31T12:54:24Z</time>
      </trkpt>
      <trkpt lat="45.02539" lon="5.51536">
        <ele>1182.1</ele>
        <time>2021-08-31T12:54:25Z</time>
      </trkpt>
      <trkpt lat="45.0254" lon="5.51536">
        <ele>1182.1</ele>
        <time>2021-08-31T12:54:26Z</time>
      </trkpt>
      <trkpt lat="45.0254" lon="5.51536">
        <ele>1182.2</ele>
        <time>2021-08-31T12:54:27Z</time>
      </trkpt>
      <trkpt lat="45.0254" lon="5.51536">
        <ele>1182.2</ele>
        <time>2021-08-31T12:54:28Z</time>
      </trkpt>
      <trkpt lat="45.02541" lon="5.51536">
        <ele>1182.2</ele>
        <time>2021-08-31T12:54:29Z</time>
      </trkpt>
      <trkpt lat="45.02541" lon="5.51536">
        <ele>1182.2</ele>
        <time>2021-08-31T12:54:31Z</time>
      </trkpt>
      <trkpt lat="45.02541" lon="5.51536">
        <ele>1182.3</ele>
        <time>2021-08-31T12:54:32Z</time>
      </trkpt>
      <trkpt lat="45.02542" lon="5.51535">
        <ele>1182.3</ele>
        <time>2021-08-31T12:54:33Z</time>
      </trkpt>
      <trkpt lat="45.02543" lon="5.51535">
        <ele>1182.4</ele>
        <time>2021-08-31T12:54:34Z</time>
      </trkpt>
      <trkpt lat="45.02551" lon="5.51531">
        <ele>1183.2</ele>
        <time>2021-08-31T12:54:40Z</time>
      </trkpt>
      <trkpt lat="45.02555" lon="5.51529">
        <ele>1183.5</ele>
        <time>2021-08-31T12:54:42Z</time>
      </trkpt>
      <trkpt lat="45.02558" lon="5.51529">
        <ele>1183.8</ele>
        <time>2021-08-31T12:54:43Z</time>
      </trkpt>
      <trkpt lat="45.02559" lon="5.51529">
        <ele>1183.8</ele>
        <time>2021-08-31T12:54:44Z</time>
      </trkpt>
      <trkpt lat="45.02562" lon="5.51529">
        <ele>1184</ele>
        <time>2021-08-31T12:54:46Z</time>
      </trkpt>
      <trkpt lat="45.02565" lon="5.51529">
        <ele>1184.2</ele>
        <time>2021-08-31T12:54:47Z</time>
      </trkpt>
      <trkpt lat="45.02567" lon="5.51529">
        <ele>1184.3</ele>
        <time>2021-08-31T12:54:48Z</time>
      </trkpt>
      <trkpt lat="45.02571" lon="5.51529">
        <ele>1184.5</ele>
        <time>2021-08-31T12:54:50Z</time>
      </trkpt>
      <trkpt lat="45.02574" lon="5.51532">
        <ele>1184.8</ele>
        <time>2021-08-31T12:54:52Z</time>
      </trkpt>
      <trkpt lat="45.02576" lon="5.51532">
        <ele>1184.9</ele>
        <time>2021-08-31T12:54:53Z</time>
      </trkpt>
      <trkpt lat="45.02579" lon="5.51532">
        <ele>1185.1</ele>
        <time>2021-08-31T12:54:55Z</time>
      </trkpt>
      <trkpt lat="45.02581" lon="5.51531">
        <ele>1185.2</ele>
        <time>2021-08-31T12:54:56Z</time>
      </trkpt>
      <trkpt lat="45.02583" lon="5.5153">
        <ele>1185.4</ele>
        <time>2021-08-31T12:54:58Z</time>
      </trkpt>
      <trkpt lat="45.02585" lon="5.5153">
        <ele>1185.5</ele>
        <time>2021-08-31T12:54:59Z</time>
      </trkpt>
      <trkpt lat="45.02586" lon="5.5153">
        <ele>1185.6</ele>
        <time>2021-08-31T12:55:00Z</time>
      </trkpt>
      <trkpt lat="45.02587" lon="5.5153">
        <ele>1185.6</ele>
        <time>2021-08-31T12:55:02Z</time>
      </trkpt>
      <trkpt lat="45.0259" lon="5.5153">
        <ele>1185.8</ele>
        <time>2021-08-31T12:55:03Z</time>
      </trkpt>
      <trkpt lat="45.02593" lon="5.51532">
        <ele>1186</ele>
        <time>2021-08-31T12:55:05Z</time>
      </trkpt>
      <trkpt lat="45.02596" lon="5.51533">
        <ele>1186.3</ele>
        <time>2021-08-31T12:55:06Z</time>
      </trkpt>
      <trkpt lat="45.02598" lon="5.51534">
        <ele>1186.4</ele>
        <time>2021-08-31T12:55:07Z</time>
      </trkpt>
      <trkpt lat="45.02602" lon="5.51533">
        <ele>1186.8</ele>
        <time>2021-08-31T12:55:09Z</time>
      </trkpt>
      <trkpt lat="45.02607" lon="5.51533">
        <ele>1187.2</ele>
        <time>2021-08-31T12:55:11Z</time>
      </trkpt>
      <trkpt lat="45.02609" lon="5.51533">
        <ele>1187.3</ele>
        <time>2021-08-31T12:55:12Z</time>
      </trkpt>
      <trkpt lat="45.02611" lon="5.51533">
        <ele>1187.5</ele>
        <time>2021-08-31T12:55:13Z</time>
      </trkpt>
      <trkpt lat="45.02614" lon="5.51532">
        <ele>1187.7</ele>
        <time>2021-08-31T12:55:14Z</time>
      </trkpt>
      <trkpt lat="45.02618" lon="5.51532">
        <ele>1188.1</ele>
        <time>2021-08-31T12:55:16Z</time>
      </trkpt>
      <trkpt lat="45.02621" lon="5.51531">
        <ele>1188.3</ele>
        <time>2021-08-31T12:55:17Z</time>
      </trkpt>
      <trkpt lat="45.02622" lon="5.5153">
        <ele>1188.4</ele>
        <time>2021-08-31T12:55:18Z</time>
      </trkpt>
      <trkpt lat="45.02626" lon="5.51529">
        <ele>1188.7</ele>
        <time>2021-08-31T12:55:20Z</time>
      </trkpt>
      <trkpt lat="45.02631" lon="5.5153">
        <ele>1189.1</ele>
        <time>2021-08-31T12:55:22Z</time>
      </trkpt>
      <trkpt lat="45.02635" lon="5.51529">
        <ele>1189.4</ele>
        <time>2021-08-31T12:55:24Z</time>
      </trkpt>
      <trkpt lat="45.02637" lon="5.51528">
        <ele>1189.5</ele>
        <time>2021-08-31T12:55:26Z</time>
      </trkpt>
      <trkpt lat="45.02639" lon="5.51527">
        <ele>1189.6</ele>
        <time>2021-08-31T12:55:27Z</time>
      </trkpt>
      <trkpt lat="45.02642" lon="5.51527">
        <ele>1189.8</ele>
        <time>2021-08-31T12:55:28Z</time>
      </trkpt>
      <trkpt lat="45.02643" lon="5.51526">
        <ele>1189.8</ele>
        <time>2021-08-31T12:55:29Z</time>
      </trkpt>
      <trkpt lat="45.02645" lon="5.51527">
        <ele>1189.9</ele>
        <time>2021-08-31T12:55:30Z</time>
      </trkpt>
      <trkpt lat="45.0265" lon="5.51528">
        <ele>1190.2</ele>
        <time>2021-08-31T12:55:32Z</time>
      </trkpt>
      <trkpt lat="45.02655" lon="5.51527">
        <ele>1190.4</ele>
        <time>2021-08-31T12:55:34Z</time>
      </trkpt>
      <trkpt lat="45.02658" lon="5.51526">
        <ele>1190.5</ele>
        <time>2021-08-31T12:55:35Z</time>
      </trkpt>
      <trkpt lat="45.0266" lon="5.51524">
        <ele>1190.6</ele>
        <time>2021-08-31T12:55:36Z</time>
      </trkpt>
      <trkpt lat="45.02665" lon="5.51521">
        <ele>1191</ele>
        <time>2021-08-31T12:55:38Z</time>
      </trkpt>
      <trkpt lat="45.0267" lon="5.51519">
        <ele>1191.3</ele>
        <time>2021-08-31T12:55:40Z</time>
      </trkpt>
      <trkpt lat="45.02674" lon="5.51518">
        <ele>1191.6</ele>
        <time>2021-08-31T12:55:41Z</time>
      </trkpt>
      <trkpt lat="45.02677" lon="5.51518">
        <ele>1191.8</ele>
        <time>2021-08-31T12:55:42Z</time>
      </trkpt>
      <trkpt lat="45.0268" lon="5.51515">
        <ele>1192.1</ele>
        <time>2021-08-31T12:55:44Z</time>
      </trkpt>
      <trkpt lat="45.02683" lon="5.51512">
        <ele>1192.4</ele>
        <time>2021-08-31T12:55:45Z</time>
      </trkpt>
      <trkpt lat="45.02685" lon="5.5151">
        <ele>1192.5</ele>
        <time>2021-08-31T12:55:46Z</time>
      </trkpt>
      <trkpt lat="45.02688" lon="5.51506">
        <ele>1192.6</ele>
        <time>2021-08-31T12:55:48Z</time>
      </trkpt>
      <trkpt lat="45.02691" lon="5.51501">
        <ele>1192.9</ele>
        <time>2021-08-31T12:55:49Z</time>
      </trkpt>
      <trkpt lat="45.02691" lon="5.515">
        <ele>1193</ele>
        <time>2021-08-31T12:55:50Z</time>
      </trkpt>
      <trkpt lat="45.02692" lon="5.51495">
        <ele>1193.2</ele>
        <time>2021-08-31T12:55:52Z</time>
      </trkpt>
      <trkpt lat="45.02693" lon="5.51494">
        <ele>1193.3</ele>
        <time>2021-08-31T12:55:53Z</time>
      </trkpt>
      <trkpt lat="45.02692" lon="5.5149">
        <ele>1193.4</ele>
        <time>2021-08-31T12:55:54Z</time>
      </trkpt>
      <trkpt lat="45.02692" lon="5.51489">
        <ele>1193.5</ele>
        <time>2021-08-31T12:55:55Z</time>
      </trkpt>
      <trkpt lat="45.02692" lon="5.51488">
        <ele>1193.5</ele>
        <time>2021-08-31T12:55:56Z</time>
      </trkpt>
      <trkpt lat="45.02692" lon="5.51484">
        <ele>1193.7</ele>
        <time>2021-08-31T12:55:58Z</time>
      </trkpt>
      <trkpt lat="45.02692" lon="5.51481">
        <ele>1193.9</ele>
        <time>2021-08-31T12:55:59Z</time>
      </trkpt>
      <trkpt lat="45.02692" lon="5.51478">
        <ele>1194.1</ele>
        <time>2021-08-31T12:56:01Z</time>
      </trkpt>
      <trkpt lat="45.02693" lon="5.51474">
        <ele>1194.2</ele>
        <time>2021-08-31T12:56:02Z</time>
      </trkpt>
      <trkpt lat="45.02691" lon="5.5147">
        <ele>1194.5</ele>
        <time>2021-08-31T12:56:04Z</time>
      </trkpt>
      <trkpt lat="45.0269" lon="5.51466">
        <ele>1194.7</ele>
        <time>2021-08-31T12:56:05Z</time>
      </trkpt>
      <trkpt lat="45.02689" lon="5.51461">
        <ele>1195</ele>
        <time>2021-08-31T12:56:07Z</time>
      </trkpt>
      <trkpt lat="45.02689" lon="5.51456">
        <ele>1195.3</ele>
        <time>2021-08-31T12:56:08Z</time>
      </trkpt>
      <trkpt lat="45.02689" lon="5.51452">
        <ele>1195.6</ele>
        <time>2021-08-31T12:56:10Z</time>
      </trkpt>
      <trkpt lat="45.02689" lon="5.51451">
        <ele>1195.7</ele>
        <time>2021-08-31T12:56:11Z</time>
      </trkpt>
      <trkpt lat="45.02691" lon="5.51448">
        <ele>1195.9</ele>
        <time>2021-08-31T12:56:12Z</time>
      </trkpt>
      <trkpt lat="45.02692" lon="5.51445">
        <ele>1196.1</ele>
        <time>2021-08-31T12:56:14Z</time>
      </trkpt>
      <trkpt lat="45.02693" lon="5.5144">
        <ele>1196.5</ele>
        <time>2021-08-31T12:56:16Z</time>
      </trkpt>
      <trkpt lat="45.02694" lon="5.51439">
        <ele>1196.6</ele>
        <time>2021-08-31T12:56:18Z</time>
      </trkpt>
      <trkpt lat="45.02695" lon="5.51439">
        <ele>1196.7</ele>
        <time>2021-08-31T12:56:19Z</time>
      </trkpt>
      <trkpt lat="45.02696" lon="5.51438">
        <ele>1196.9</ele>
        <time>2021-08-31T12:56:20Z</time>
      </trkpt>
      <trkpt lat="45.02698" lon="5.51435">
        <ele>1197.1</ele>
        <time>2021-08-31T12:56:22Z</time>
      </trkpt>
      <trkpt lat="45.02699" lon="5.51432">
        <ele>1197.4</ele>
        <time>2021-08-31T12:56:24Z</time>
      </trkpt>
      <trkpt lat="45.02699" lon="5.51427">
        <ele>1197.8</ele>
        <time>2021-08-31T12:56:25Z</time>
      </trkpt>
      <trkpt lat="45.02699" lon="5.51425">
        <ele>1197.9</ele>
        <time>2021-08-31T12:56:26Z</time>
      </trkpt>
      <trkpt lat="45.02702" lon="5.51421">
        <ele>1198.3</ele>
        <time>2021-08-31T12:56:28Z</time>
      </trkpt>
      <trkpt lat="45.02703" lon="5.51419">
        <ele>1198.5</ele>
        <time>2021-08-31T12:56:29Z</time>
      </trkpt>
      <trkpt lat="45.02705" lon="5.51417">
        <ele>1198.7</ele>
        <time>2021-08-31T12:56:31Z</time>
      </trkpt>
      <trkpt lat="45.02706" lon="5.51415">
        <ele>1198.8</ele>
        <time>2021-08-31T12:56:32Z</time>
      </trkpt>
      <trkpt lat="45.02707" lon="5.51413">
        <ele>1199</ele>
        <time>2021-08-31T12:56:34Z</time>
      </trkpt>
      <trkpt lat="45.02708" lon="5.51409">
        <ele>1199.2</ele>
        <time>2021-08-31T12:56:35Z</time>
      </trkpt>
      <trkpt lat="45.02708" lon="5.51407">
        <ele>1199.3</ele>
        <time>2021-08-31T12:56:36Z</time>
      </trkpt>
      <trkpt lat="45.02709" lon="5.51405">
        <ele>1199.5</ele>
        <time>2021-08-31T12:56:37Z</time>
      </trkpt>
      <trkpt lat="45.02712" lon="5.51402">
        <ele>1199.7</ele>
        <time>2021-08-31T12:56:39Z</time>
      </trkpt>
      <trkpt lat="45.02714" lon="5.514">
        <ele>1199.9</ele>
        <time>2021-08-31T12:56:41Z</time>
      </trkpt>
      <trkpt lat="45.02714" lon="5.514">
        <ele>1199.9</ele>
        <time>2021-08-31T12:56:42Z</time>
      </trkpt>
      <trkpt lat="45.02715" lon="5.51399">
        <ele>1200</ele>
        <time>2021-08-31T12:56:44Z</time>
      </trkpt>
      <trkpt lat="45.02716" lon="5.51398">
        <ele>1200.1</ele>
        <time>2021-08-31T12:56:45Z</time>
      </trkpt>
      <trkpt lat="45.02716" lon="5.51398">
        <ele>1200.1</ele>
        <time>2021-08-31T12:56:47Z</time>
      </trkpt>
      <trkpt lat="45.02716" lon="5.51397">
        <ele>1200.1</ele>
        <time>2021-08-31T12:56:49Z</time>
      </trkpt>
      <trkpt lat="45.02716" lon="5.51396">
        <ele>1200.2</ele>
        <time>2021-08-31T12:56:50Z</time>
      </trkpt>
      <trkpt lat="45.02718" lon="5.51392">
        <ele>1200.4</ele>
        <time>2021-08-31T12:56:52Z</time>
      </trkpt>
      <trkpt lat="45.0272" lon="5.51388">
        <ele>1200.7</ele>
        <time>2021-08-31T12:56:53Z</time>
      </trkpt>
      <trkpt lat="45.0272" lon="5.51386">
        <ele>1200.8</ele>
        <time>2021-08-31T12:56:54Z</time>
      </trkpt>
      <trkpt lat="45.02721" lon="5.51381">
        <ele>1201</ele>
        <time>2021-08-31T12:56:56Z</time>
      </trkpt>
      <trkpt lat="45.02723" lon="5.51378">
        <ele>1201.3</ele>
        <time>2021-08-31T12:56:58Z</time>
      </trkpt>
      <trkpt lat="45.02725" lon="5.51374">
        <ele>1201.6</ele>
        <time>2021-08-31T12:56:59Z</time>
      </trkpt>
      <trkpt lat="45.02729" lon="5.51369">
        <ele>1202.1</ele>
        <time>2021-08-31T12:57:01Z</time>
      </trkpt>
      <trkpt lat="45.02731" lon="5.51368">
        <ele>1202.3</ele>
        <time>2021-08-31T12:57:02Z</time>
      </trkpt>
      <trkpt lat="45.02733" lon="5.51366">
        <ele>1202.5</ele>
        <time>2021-08-31T12:57:03Z</time>
      </trkpt>
      <trkpt lat="45.02736" lon="5.51365">
        <ele>1202.9</ele>
        <time>2021-08-31T12:57:05Z</time>
      </trkpt>
      <trkpt lat="45.0274" lon="5.51362">
        <ele>1203.2</ele>
        <time>2021-08-31T12:57:06Z</time>
      </trkpt>
      <trkpt lat="45.02741" lon="5.51361">
        <ele>1203.4</ele>
        <time>2021-08-31T12:57:07Z</time>
      </trkpt>
      <trkpt lat="45.02744" lon="5.5136">
        <ele>1203.7</ele>
        <time>2021-08-31T12:57:09Z</time>
      </trkpt>
      <trkpt lat="45.02745" lon="5.51358">
        <ele>1203.8</ele>
        <time>2021-08-31T12:57:10Z</time>
      </trkpt>
      <trkpt lat="45.02746" lon="5.51357">
        <ele>1203.9</ele>
        <time>2021-08-31T12:57:11Z</time>
      </trkpt>
      <trkpt lat="45.02747" lon="5.51355">
        <ele>1204</ele>
        <time>2021-08-31T12:57:12Z</time>
      </trkpt>
      <trkpt lat="45.0275" lon="5.51352">
        <ele>1204.2</ele>
        <time>2021-08-31T12:57:14Z</time>
      </trkpt>
      <trkpt lat="45.02752" lon="5.51351">
        <ele>1204.3</ele>
        <time>2021-08-31T12:57:15Z</time>
      </trkpt>
      <trkpt lat="45.02753" lon="5.51349">
        <ele>1204.4</ele>
        <time>2021-08-31T12:57:16Z</time>
      </trkpt>
      <trkpt lat="45.02755" lon="5.51345">
        <ele>1204.5</ele>
        <time>2021-08-31T12:57:18Z</time>
      </trkpt>
      <trkpt lat="45.02756" lon="5.51344">
        <ele>1204.5</ele>
        <time>2021-08-31T12:57:19Z</time>
      </trkpt>
      <trkpt lat="45.02758" lon="5.51342">
        <ele>1204.5</ele>
        <time>2021-08-31T12:57:20Z</time>
      </trkpt>
      <trkpt lat="45.0276" lon="5.51338">
        <ele>1204.4</ele>
        <time>2021-08-31T12:57:22Z</time>
      </trkpt>
      <trkpt lat="45.02762" lon="5.51333">
        <ele>1204.3</ele>
        <time>2021-08-31T12:57:23Z</time>
      </trkpt>
      <trkpt lat="45.02763" lon="5.51332">
        <ele>1204.3</ele>
        <time>2021-08-31T12:57:24Z</time>
      </trkpt>
      <trkpt lat="45.02764" lon="5.51328">
        <ele>1204.1</ele>
        <time>2021-08-31T12:57:25Z</time>
      </trkpt>
      <trkpt lat="45.02767" lon="5.51322">
        <ele>1203.9</ele>
        <time>2021-08-31T12:57:26Z</time>
      </trkpt>
      <trkpt lat="45.02772" lon="5.51309">
        <ele>1203.4</ele>
        <time>2021-08-31T12:57:28Z</time>
      </trkpt>
      <trkpt lat="45.02774" lon="5.51301">
        <ele>1203.2</ele>
        <time>2021-08-31T12:57:29Z</time>
      </trkpt>
      <trkpt lat="45.02778" lon="5.51286">
        <ele>1203</ele>
        <time>2021-08-31T12:57:31Z</time>
      </trkpt>
      <trkpt lat="45.02779" lon="5.51279">
        <ele>1203</ele>
        <time>2021-08-31T12:57:32Z</time>
      </trkpt>
      <trkpt lat="45.02782" lon="5.51266">
        <ele>1203.1</ele>
        <time>2021-08-31T12:57:34Z</time>
      </trkpt>
      <trkpt lat="45.02785" lon="5.5126">
        <ele>1203.3</ele>
        <time>2021-08-31T12:57:35Z</time>
      </trkpt>
      <trkpt lat="45.02787" lon="5.51254">
        <ele>1203.5</ele>
        <time>2021-08-31T12:57:36Z</time>
      </trkpt>
      <trkpt lat="45.02788" lon="5.51253">
        <ele>1203.6</ele>
        <time>2021-08-31T12:57:37Z</time>
      </trkpt>
      <trkpt lat="45.02792" lon="5.51248">
        <ele>1203.9</ele>
        <time>2021-08-31T12:57:39Z</time>
      </trkpt>
      <trkpt lat="45.02795" lon="5.51241">
        <ele>1204.1</ele>
        <time>2021-08-31T12:57:40Z</time>
      </trkpt>
      <trkpt lat="45.02799" lon="5.51233">
        <ele>1204.4</ele>
        <time>2021-08-31T12:57:42Z</time>
      </trkpt>
      <trkpt lat="45.02802" lon="5.51226">
        <ele>1204.7</ele>
        <time>2021-08-31T12:57:43Z</time>
      </trkpt>
      <trkpt lat="45.02804" lon="5.51221">
        <ele>1204.9</ele>
        <time>2021-08-31T12:57:44Z</time>
      </trkpt>
      <trkpt lat="45.02807" lon="5.51217">
        <ele>1205.1</ele>
        <time>2021-08-31T12:57:46Z</time>
      </trkpt>
      <trkpt lat="45.02809" lon="5.51213">
        <ele>1205.2</ele>
        <time>2021-08-31T12:57:47Z</time>
      </trkpt>
      <trkpt lat="45.02809" lon="5.5121">
        <ele>1205.3</ele>
        <time>2021-08-31T12:57:48Z</time>
      </trkpt>
      <trkpt lat="45.02811" lon="5.51206">
        <ele>1205.5</ele>
        <time>2021-08-31T12:57:50Z</time>
      </trkpt>
      <trkpt lat="45.02814" lon="5.51203">
        <ele>1205.7</ele>
        <time>2021-08-31T12:57:51Z</time>
      </trkpt>
      <trkpt lat="45.02815" lon="5.51201">
        <ele>1205.7</ele>
        <time>2021-08-31T12:57:52Z</time>
      </trkpt>
      <trkpt lat="45.02817" lon="5.51199">
        <ele>1205.9</ele>
        <time>2021-08-31T12:57:53Z</time>
      </trkpt>
      <trkpt lat="45.0282" lon="5.51198">
        <ele>1206</ele>
        <time>2021-08-31T12:57:54Z</time>
      </trkpt>
      <trkpt lat="45.02824" lon="5.51196">
        <ele>1206.2</ele>
        <time>2021-08-31T12:57:55Z</time>
      </trkpt>
      <trkpt lat="45.02826" lon="5.51195">
        <ele>1206.3</ele>
        <time>2021-08-31T12:57:56Z</time>
      </trkpt>
      <trkpt lat="45.0283" lon="5.51193">
        <ele>1206.5</ele>
        <time>2021-08-31T12:57:58Z</time>
      </trkpt>
      <trkpt lat="45.02832" lon="5.5119">
        <ele>1206.6</ele>
        <time>2021-08-31T12:57:59Z</time>
      </trkpt>
      <trkpt lat="45.02835" lon="5.51189">
        <ele>1206.8</ele>
        <time>2021-08-31T12:58:00Z</time>
      </trkpt>
      <trkpt lat="45.02838" lon="5.51187">
        <ele>1206.9</ele>
        <time>2021-08-31T12:58:01Z</time>
      </trkpt>
      <trkpt lat="45.0284" lon="5.51185">
        <ele>1207</ele>
        <time>2021-08-31T12:58:02Z</time>
      </trkpt>
      <trkpt lat="45.02844" lon="5.51185">
        <ele>1207.1</ele>
        <time>2021-08-31T12:58:03Z</time>
      </trkpt>
      <trkpt lat="45.02845" lon="5.51185">
        <ele>1207.2</ele>
        <time>2021-08-31T12:58:04Z</time>
      </trkpt>
      <trkpt lat="45.0285" lon="5.51183">
        <ele>1207.4</ele>
        <time>2021-08-31T12:58:06Z</time>
      </trkpt>
      <trkpt lat="45.02856" lon="5.5118">
        <ele>1207.6</ele>
        <time>2021-08-31T12:58:08Z</time>
      </trkpt>
      <trkpt lat="45.02859" lon="5.51176">
        <ele>1207.8</ele>
        <time>2021-08-31T12:58:09Z</time>
      </trkpt>
      <trkpt lat="45.02865" lon="5.51172">
        <ele>1208</ele>
        <time>2021-08-31T12:58:11Z</time>
      </trkpt>
      <trkpt lat="45.0287" lon="5.51168">
        <ele>1208.3</ele>
        <time>2021-08-31T12:58:13Z</time>
      </trkpt>
      <trkpt lat="45.02874" lon="5.51165">
        <ele>1208.5</ele>
        <time>2021-08-31T12:58:15Z</time>
      </trkpt>
      <trkpt lat="45.02878" lon="5.51165">
        <ele>1208.6</ele>
        <time>2021-08-31T12:58:16Z</time>
      </trkpt>
      <trkpt lat="45.0288" lon="5.51164">
        <ele>1208.7</ele>
        <time>2021-08-31T12:58:17Z</time>
      </trkpt>
      <trkpt lat="45.02882" lon="5.51162">
        <ele>1208.8</ele>
        <time>2021-08-31T12:58:19Z</time>
      </trkpt>
      <trkpt lat="45.02883" lon="5.51162">
        <ele>1208.8</ele>
        <time>2021-08-31T12:58:20Z</time>
      </trkpt>
      <trkpt lat="45.02887" lon="5.5116">
        <ele>1209</ele>
        <time>2021-08-31T12:58:21Z</time>
      </trkpt>
      <trkpt lat="45.02888" lon="5.51158">
        <ele>1209.1</ele>
        <time>2021-08-31T12:58:22Z</time>
      </trkpt>
      <trkpt lat="45.02893" lon="5.51158">
        <ele>1209.2</ele>
        <time>2021-08-31T12:58:24Z</time>
      </trkpt>
      <trkpt lat="45.02896" lon="5.51157">
        <ele>1209.4</ele>
        <time>2021-08-31T12:58:25Z</time>
      </trkpt>
      <trkpt lat="45.02897" lon="5.51156">
        <ele>1209.4</ele>
        <time>2021-08-31T12:58:26Z</time>
      </trkpt>
      <trkpt lat="45.02902" lon="5.51154">
        <ele>1209.6</ele>
        <time>2021-08-31T12:58:28Z</time>
      </trkpt>
      <trkpt lat="45.02904" lon="5.51152">
        <ele>1209.7</ele>
        <time>2021-08-31T12:58:29Z</time>
      </trkpt>
      <trkpt lat="45.02907" lon="5.51149">
        <ele>1209.8</ele>
        <time>2021-08-31T12:58:30Z</time>
      </trkpt>
      <trkpt lat="45.02907" lon="5.51149">
        <ele>1209.9</ele>
        <time>2021-08-31T12:58:31Z</time>
      </trkpt>
      <trkpt lat="45.02909" lon="5.51146">
        <ele>1210</ele>
        <time>2021-08-31T12:58:32Z</time>
      </trkpt>
      <trkpt lat="45.02911" lon="5.51145">
        <ele>1210.1</ele>
        <time>2021-08-31T12:58:34Z</time>
      </trkpt>
      <trkpt lat="45.02913" lon="5.51145">
        <ele>1210.1</ele>
        <time>2021-08-31T12:58:35Z</time>
      </trkpt>
      <trkpt lat="45.02915" lon="5.51144">
        <ele>1210.2</ele>
        <time>2021-08-31T12:58:36Z</time>
      </trkpt>
      <trkpt lat="45.02916" lon="5.51143">
        <ele>1210.3</ele>
        <time>2021-08-31T12:58:37Z</time>
      </trkpt>
      <trkpt lat="45.02917" lon="5.51143">
        <ele>1210.3</ele>
        <time>2021-08-31T12:58:39Z</time>
      </trkpt>
      <trkpt lat="45.02917" lon="5.51143">
        <ele>1210.3</ele>
        <time>2021-08-31T12:58:40Z</time>
      </trkpt>
      <trkpt lat="45.02917" lon="5.51143">
        <ele>1210.4</ele>
        <time>2021-08-31T12:58:41Z</time>
      </trkpt>
      <trkpt lat="45.02918" lon="5.51143">
        <ele>1210.4</ele>
        <time>2021-08-31T12:58:42Z</time>
      </trkpt>
      <trkpt lat="45.02918" lon="5.51143">
        <ele>1210.4</ele>
        <time>2021-08-31T12:58:43Z</time>
      </trkpt>
      <trkpt lat="45.02919" lon="5.51142">
        <ele>1210.4</ele>
        <time>2021-08-31T12:58:44Z</time>
      </trkpt>
      <trkpt lat="45.02921" lon="5.5114">
        <ele>1210.5</ele>
        <time>2021-08-31T12:58:46Z</time>
      </trkpt>
      <trkpt lat="45.02923" lon="5.51138">
        <ele>1210.7</ele>
        <time>2021-08-31T12:58:47Z</time>
      </trkpt>
      <trkpt lat="45.02927" lon="5.51135">
        <ele>1210.9</ele>
        <time>2021-08-31T12:58:49Z</time>
      </trkpt>
      <trkpt lat="45.0293" lon="5.51132">
        <ele>1211.1</ele>
        <time>2021-08-31T12:58:50Z</time>
      </trkpt>
      <trkpt lat="45.02934" lon="5.51126">
        <ele>1211.4</ele>
        <time>2021-08-31T12:58:52Z</time>
      </trkpt>
      <trkpt lat="45.02937" lon="5.51124">
        <ele>1211.7</ele>
        <time>2021-08-31T12:58:53Z</time>
      </trkpt>
      <trkpt lat="45.02941" lon="5.51121">
        <ele>1212</ele>
        <time>2021-08-31T12:58:55Z</time>
      </trkpt>
      <trkpt lat="45.02943" lon="5.51119">
        <ele>1212.2</ele>
        <time>2021-08-31T12:58:56Z</time>
      </trkpt>
      <trkpt lat="45.02944" lon="5.51116">
        <ele>1212.4</ele>
        <time>2021-08-31T12:58:58Z</time>
      </trkpt>
      <trkpt lat="45.02944" lon="5.51111">
        <ele>1212.6</ele>
        <time>2021-08-31T12:58:59Z</time>
      </trkpt>
      <trkpt lat="45.02943" lon="5.51109">
        <ele>1212.8</ele>
        <time>2021-08-31T12:59:00Z</time>
      </trkpt>
      <trkpt lat="45.02943" lon="5.51106">
        <ele>1212.9</ele>
        <time>2021-08-31T12:59:01Z</time>
      </trkpt>
      <trkpt lat="45.02943" lon="5.51102">
        <ele>1213.1</ele>
        <time>2021-08-31T12:59:03Z</time>
      </trkpt>
      <trkpt lat="45.02943" lon="5.51099">
        <ele>1213.2</ele>
        <time>2021-08-31T12:59:04Z</time>
      </trkpt>
      <trkpt lat="45.02943" lon="5.51097">
        <ele>1213.3</ele>
        <time>2021-08-31T12:59:05Z</time>
      </trkpt>
      <trkpt lat="45.02944" lon="5.51094">
        <ele>1213.5</ele>
        <time>2021-08-31T12:59:06Z</time>
      </trkpt>
      <trkpt lat="45.02945" lon="5.51092">
        <ele>1213.6</ele>
        <time>2021-08-31T12:59:08Z</time>
      </trkpt>
      <trkpt lat="45.02946" lon="5.51088">
        <ele>1213.8</ele>
        <time>2021-08-31T12:59:09Z</time>
      </trkpt>
      <trkpt lat="45.02947" lon="5.51087">
        <ele>1213.9</ele>
        <time>2021-08-31T12:59:10Z</time>
      </trkpt>
      <trkpt lat="45.02948" lon="5.51085">
        <ele>1214</ele>
        <time>2021-08-31T12:59:11Z</time>
      </trkpt>
      <trkpt lat="45.02949" lon="5.51084">
        <ele>1214.1</ele>
        <time>2021-08-31T12:59:12Z</time>
      </trkpt>
      <trkpt lat="45.0295" lon="5.5108">
        <ele>1214.3</ele>
        <time>2021-08-31T12:59:14Z</time>
      </trkpt>
      <trkpt lat="45.0295" lon="5.51078">
        <ele>1214.3</ele>
        <time>2021-08-31T12:59:15Z</time>
      </trkpt>
      <trkpt lat="45.0295" lon="5.51074">
        <ele>1214.5</ele>
        <time>2021-08-31T12:59:16Z</time>
      </trkpt>
      <trkpt lat="45.0295" lon="5.51073">
        <ele>1214.5</ele>
        <time>2021-08-31T12:59:17Z</time>
      </trkpt>
      <trkpt lat="45.02951" lon="5.51068">
        <ele>1214.7</ele>
        <time>2021-08-31T12:59:19Z</time>
      </trkpt>
      <trkpt lat="45.02951" lon="5.51066">
        <ele>1214.8</ele>
        <time>2021-08-31T12:59:20Z</time>
      </trkpt>
      <trkpt lat="45.02952" lon="5.51063">
        <ele>1214.9</ele>
        <time>2021-08-31T12:59:21Z</time>
      </trkpt>
      <trkpt lat="45.02954" lon="5.5106">
        <ele>1215</ele>
        <time>2021-08-31T12:59:22Z</time>
      </trkpt>
      <trkpt lat="45.02955" lon="5.51059">
        <ele>1215.1</ele>
        <time>2021-08-31T12:59:23Z</time>
      </trkpt>
      <trkpt lat="45.02958" lon="5.51055">
        <ele>1215.2</ele>
        <time>2021-08-31T12:59:25Z</time>
      </trkpt>
      <trkpt lat="45.02959" lon="5.51054">
        <ele>1215.2</ele>
        <time>2021-08-31T12:59:26Z</time>
      </trkpt>
      <trkpt lat="45.02961" lon="5.5105">
        <ele>1215.4</ele>
        <time>2021-08-31T12:59:27Z</time>
      </trkpt>
      <trkpt lat="45.02961" lon="5.51049">
        <ele>1215.4</ele>
        <time>2021-08-31T12:59:28Z</time>
      </trkpt>
      <trkpt lat="45.02963" lon="5.51045">
        <ele>1215.5</ele>
        <time>2021-08-31T12:59:29Z</time>
      </trkpt>
      <trkpt lat="45.02963" lon="5.51044">
        <ele>1215.5</ele>
        <time>2021-08-31T12:59:30Z</time>
      </trkpt>
      <trkpt lat="45.02963" lon="5.51039">
        <ele>1215.6</ele>
        <time>2021-08-31T12:59:32Z</time>
      </trkpt>
      <trkpt lat="45.02963" lon="5.51037">
        <ele>1215.6</ele>
        <time>2021-08-31T12:59:33Z</time>
      </trkpt>
      <trkpt lat="45.02963" lon="5.51032">
        <ele>1215.7</ele>
        <time>2021-08-31T12:59:34Z</time>
      </trkpt>
      <trkpt lat="45.02964" lon="5.51031">
        <ele>1215.7</ele>
        <time>2021-08-31T12:59:35Z</time>
      </trkpt>
      <trkpt lat="45.02964" lon="5.51027">
        <ele>1215.8</ele>
        <time>2021-08-31T12:59:37Z</time>
      </trkpt>
      <trkpt lat="45.02965" lon="5.51023">
        <ele>1215.8</ele>
        <time>2021-08-31T12:59:38Z</time>
      </trkpt>
      <trkpt lat="45.02967" lon="5.51018">
        <ele>1215.9</ele>
        <time>2021-08-31T12:59:40Z</time>
      </trkpt>
      <trkpt lat="45.02968" lon="5.51014">
        <ele>1216</ele>
        <time>2021-08-31T12:59:41Z</time>
      </trkpt>
      <trkpt lat="45.02969" lon="5.51012">
        <ele>1216</ele>
        <time>2021-08-31T12:59:42Z</time>
      </trkpt>
      <trkpt lat="45.0297" lon="5.51007">
        <ele>1216.1</ele>
        <time>2021-08-31T12:59:44Z</time>
      </trkpt>
      <trkpt lat="45.02973" lon="5.51004">
        <ele>1216.1</ele>
        <time>2021-08-31T12:59:46Z</time>
      </trkpt>
      <trkpt lat="45.02974" lon="5.51001">
        <ele>1216.1</ele>
        <time>2021-08-31T12:59:47Z</time>
      </trkpt>
      <trkpt lat="45.02975" lon="5.50996">
        <ele>1216.1</ele>
        <time>2021-08-31T12:59:49Z</time>
      </trkpt>
      <trkpt lat="45.02976" lon="5.50994">
        <ele>1216.1</ele>
        <time>2021-08-31T12:59:50Z</time>
      </trkpt>
      <trkpt lat="45.02977" lon="5.50991">
        <ele>1216.1</ele>
        <time>2021-08-31T12:59:52Z</time>
      </trkpt>
      <trkpt lat="45.02977" lon="5.50985">
        <ele>1216</ele>
        <time>2021-08-31T12:59:53Z</time>
      </trkpt>
      <trkpt lat="45.02977" lon="5.50982">
        <ele>1215.9</ele>
        <time>2021-08-31T12:59:54Z</time>
      </trkpt>
      <trkpt lat="45.02982" lon="5.50974">
        <ele>1215.6</ele>
        <time>2021-08-31T12:59:56Z</time>
      </trkpt>
      <trkpt lat="45.02985" lon="5.50967">
        <ele>1215.3</ele>
        <time>2021-08-31T12:59:57Z</time>
      </trkpt>
      <trkpt lat="45.0299" lon="5.50958">
        <ele>1214.8</ele>
        <time>2021-08-31T12:59:58Z</time>
      </trkpt>
      <trkpt lat="45.02994" lon="5.50951">
        <ele>1214.4</ele>
        <time>2021-08-31T12:59:59Z</time>
      </trkpt>
      <trkpt lat="45.02996" lon="5.50946">
        <ele>1214.2</ele>
        <time>2021-08-31T13:00:00Z</time>
      </trkpt>
      <trkpt lat="45.02997" lon="5.50938">
        <ele>1213.9</ele>
        <time>2021-08-31T13:00:02Z</time>
      </trkpt>
      <trkpt lat="45.03" lon="5.50935">
        <ele>1213.8</ele>
        <time>2021-08-31T13:00:03Z</time>
      </trkpt>
      <trkpt lat="45.03002" lon="5.50932">
        <ele>1213.8</ele>
        <time>2021-08-31T13:00:04Z</time>
      </trkpt>
      <trkpt lat="45.03005" lon="5.50929">
        <ele>1213.8</ele>
        <time>2021-08-31T13:00:05Z</time>
      </trkpt>
      <trkpt lat="45.03009" lon="5.50926">
        <ele>1213.8</ele>
        <time>2021-08-31T13:00:07Z</time>
      </trkpt>
      <trkpt lat="45.03014" lon="5.50924">
        <ele>1213.9</ele>
        <time>2021-08-31T13:00:08Z</time>
      </trkpt>
      <trkpt lat="45.03018" lon="5.50923">
        <ele>1214.1</ele>
        <time>2021-08-31T13:00:09Z</time>
      </trkpt>
      <trkpt lat="45.0302" lon="5.5092">
        <ele>1214.3</ele>
        <time>2021-08-31T13:00:10Z</time>
      </trkpt>
      <trkpt lat="45.03024" lon="5.50917">
        <ele>1214.5</ele>
        <time>2021-08-31T13:00:12Z</time>
      </trkpt>
      <trkpt lat="45.03029" lon="5.50914">
        <ele>1214.8</ele>
        <time>2021-08-31T13:00:13Z</time>
      </trkpt>
      <trkpt lat="45.03034" lon="5.50911">
        <ele>1215.1</ele>
        <time>2021-08-31T13:00:15Z</time>
      </trkpt>
      <trkpt lat="45.03038" lon="5.50909">
        <ele>1215.3</ele>
        <time>2021-08-31T13:00:16Z</time>
      </trkpt>
      <trkpt lat="45.03041" lon="5.50906">
        <ele>1215.5</ele>
        <time>2021-08-31T13:00:17Z</time>
      </trkpt>
      <trkpt lat="45.03042" lon="5.50906">
        <ele>1215.6</ele>
        <time>2021-08-31T13:00:18Z</time>
      </trkpt>
      <trkpt lat="45.03044" lon="5.50905">
        <ele>1215.7</ele>
        <time>2021-08-31T13:00:20Z</time>
      </trkpt>
      <trkpt lat="45.03044" lon="5.50903">
        <ele>1215.8</ele>
        <time>2021-08-31T13:00:21Z</time>
      </trkpt>
      <trkpt lat="45.03045" lon="5.50903">
        <ele>1215.8</ele>
        <time>2021-08-31T13:00:22Z</time>
      </trkpt>
      <trkpt lat="45.03048" lon="5.50902">
        <ele>1216.1</ele>
        <time>2021-08-31T13:00:24Z</time>
      </trkpt>
      <trkpt lat="45.03049" lon="5.50901">
        <ele>1216.2</ele>
        <time>2021-08-31T13:00:25Z</time>
      </trkpt>
      <trkpt lat="45.0305" lon="5.509">
        <ele>1216.2</ele>
        <time>2021-08-31T13:00:26Z</time>
      </trkpt>
      <trkpt lat="45.03051" lon="5.509">
        <ele>1216.3</ele>
        <time>2021-08-31T13:00:27Z</time>
      </trkpt>
      <trkpt lat="45.03053" lon="5.50899">
        <ele>1216.5</ele>
        <time>2021-08-31T13:00:29Z</time>
      </trkpt>
      <trkpt lat="45.03054" lon="5.50898">
        <ele>1216.6</ele>
        <time>2021-08-31T13:00:30Z</time>
      </trkpt>
      <trkpt lat="45.03057" lon="5.50896">
        <ele>1216.9</ele>
        <time>2021-08-31T13:00:31Z</time>
      </trkpt>
      <trkpt lat="45.03059" lon="5.50894">
        <ele>1217.1</ele>
        <time>2021-08-31T13:00:32Z</time>
      </trkpt>
      <trkpt lat="45.03061" lon="5.50892">
        <ele>1217.3</ele>
        <time>2021-08-31T13:00:33Z</time>
      </trkpt>
      <trkpt lat="45.03064" lon="5.50891">
        <ele>1217.6</ele>
        <time>2021-08-31T13:00:35Z</time>
      </trkpt>
      <trkpt lat="45.03068" lon="5.50889">
        <ele>1217.9</ele>
        <time>2021-08-31T13:00:36Z</time>
      </trkpt>
      <trkpt lat="45.03071" lon="5.50887">
        <ele>1218.2</ele>
        <time>2021-08-31T13:00:37Z</time>
      </trkpt>
      <trkpt lat="45.03074" lon="5.50886">
        <ele>1218.4</ele>
        <time>2021-08-31T13:00:39Z</time>
      </trkpt>
      <trkpt lat="45.03075" lon="5.50885">
        <ele>1218.6</ele>
        <time>2021-08-31T13:00:41Z</time>
      </trkpt>
      <trkpt lat="45.03077" lon="5.50885">
        <ele>1218.7</ele>
        <time>2021-08-31T13:00:42Z</time>
      </trkpt>
      <trkpt lat="45.0308" lon="5.50883">
        <ele>1219</ele>
        <time>2021-08-31T13:00:44Z</time>
      </trkpt>
      <trkpt lat="45.03082" lon="5.50882">
        <ele>1219.2</ele>
        <time>2021-08-31T13:00:46Z</time>
      </trkpt>
      <trkpt lat="45.03086" lon="5.5088">
        <ele>1219.5</ele>
        <time>2021-08-31T13:00:48Z</time>
      </trkpt>
      <trkpt lat="45.03089" lon="5.50878">
        <ele>1219.8</ele>
        <time>2021-08-31T13:00:50Z</time>
      </trkpt>
      <trkpt lat="45.03091" lon="5.50877">
        <ele>1220</ele>
        <time>2021-08-31T13:00:51Z</time>
      </trkpt>
      <trkpt lat="45.03094" lon="5.50876">
        <ele>1220.2</ele>
        <time>2021-08-31T13:00:53Z</time>
      </trkpt>
      <trkpt lat="45.03094" lon="5.50875">
        <ele>1220.3</ele>
        <time>2021-08-31T13:00:55Z</time>
      </trkpt>
      <trkpt lat="45.03094" lon="5.50874">
        <ele>1220.3</ele>
        <time>2021-08-31T13:00:57Z</time>
      </trkpt>
      <trkpt lat="45.03094" lon="5.50874">
        <ele>1220.3</ele>
        <time>2021-08-31T13:00:58Z</time>
      </trkpt>
      <trkpt lat="45.03095" lon="5.50874">
        <ele>1220.4</ele>
        <time>2021-08-31T13:01:00Z</time>
      </trkpt>
      <trkpt lat="45.03095" lon="5.50873">
        <ele>1220.4</ele>
        <time>2021-08-31T13:01:01Z</time>
      </trkpt>
      <trkpt lat="45.03097" lon="5.50871">
        <ele>1220.6</ele>
        <time>2021-08-31T13:01:03Z</time>
      </trkpt>
      <trkpt lat="45.03105" lon="5.50862">
        <ele>1221.2</ele>
        <time>2021-08-31T13:01:06Z</time>
      </trkpt>
      <trkpt lat="45.0311" lon="5.50859">
        <ele>1221.5</ele>
        <time>2021-08-31T13:01:08Z</time>
      </trkpt>
      <trkpt lat="45.03114" lon="5.50856">
        <ele>1221.6</ele>
        <time>2021-08-31T13:01:09Z</time>
      </trkpt>
      <trkpt lat="45.03121" lon="5.50854">
        <ele>1221.9</ele>
        <time>2021-08-31T13:01:11Z</time>
      </trkpt>
      <trkpt lat="45.03125" lon="5.50853">
        <ele>1222</ele>
        <time>2021-08-31T13:01:12Z</time>
      </trkpt>
      <trkpt lat="45.03132" lon="5.50852">
        <ele>1222.1</ele>
        <time>2021-08-31T13:01:14Z</time>
      </trkpt>
      <trkpt lat="45.03135" lon="5.50853">
        <ele>1222.2</ele>
        <time>2021-08-31T13:01:15Z</time>
      </trkpt>
      <trkpt lat="45.03139" lon="5.50854">
        <ele>1222.3</ele>
        <time>2021-08-31T13:01:16Z</time>
      </trkpt>
      <trkpt lat="45.03142" lon="5.50854">
        <ele>1222.3</ele>
        <time>2021-08-31T13:01:17Z</time>
      </trkpt>
      <trkpt lat="45.03148" lon="5.50855">
        <ele>1222.5</ele>
        <time>2021-08-31T13:01:19Z</time>
      </trkpt>
      <trkpt lat="45.03152" lon="5.50856">
        <ele>1222.6</ele>
        <time>2021-08-31T13:01:21Z</time>
      </trkpt>
      <trkpt lat="45.03154" lon="5.50856">
        <ele>1222.7</ele>
        <time>2021-08-31T13:01:22Z</time>
      </trkpt>
      <trkpt lat="45.03155" lon="5.50855">
        <ele>1222.7</ele>
        <time>2021-08-31T13:01:23Z</time>
      </trkpt>
      <trkpt lat="45.03158" lon="5.50854">
        <ele>1222.9</ele>
        <time>2021-08-31T13:01:25Z</time>
      </trkpt>
      <trkpt lat="45.03159" lon="5.50854">
        <ele>1222.9</ele>
        <time>2021-08-31T13:01:26Z</time>
      </trkpt>
      <trkpt lat="45.03162" lon="5.50852">
        <ele>1223.1</ele>
        <time>2021-08-31T13:01:28Z</time>
      </trkpt>
      <trkpt lat="45.03163" lon="5.5085">
        <ele>1223.1</ele>
        <time>2021-08-31T13:01:29Z</time>
      </trkpt>
      <trkpt lat="45.03166" lon="5.50848">
        <ele>1223.3</ele>
        <time>2021-08-31T13:01:31Z</time>
      </trkpt>
      <trkpt lat="45.03169" lon="5.50846">
        <ele>1223.5</ele>
        <time>2021-08-31T13:01:32Z</time>
      </trkpt>
      <trkpt lat="45.0317" lon="5.50844">
        <ele>1223.6</ele>
        <time>2021-08-31T13:01:33Z</time>
      </trkpt>
      <trkpt lat="45.03173" lon="5.50841">
        <ele>1223.7</ele>
        <time>2021-08-31T13:01:35Z</time>
      </trkpt>
      <trkpt lat="45.03173" lon="5.50837">
        <ele>1223.9</ele>
        <time>2021-08-31T13:01:36Z</time>
      </trkpt>
      <trkpt lat="45.03174" lon="5.5083">
        <ele>1224</ele>
        <time>2021-08-31T13:01:38Z</time>
      </trkpt>
      <trkpt lat="45.03174" lon="5.50825">
        <ele>1224.1</ele>
        <time>2021-08-31T13:01:39Z</time>
      </trkpt>
      <trkpt lat="45.03173" lon="5.50821">
        <ele>1224.2</ele>
        <time>2021-08-31T13:01:40Z</time>
      </trkpt>
      <trkpt lat="45.03172" lon="5.50812">
        <ele>1224.2</ele>
        <time>2021-08-31T13:01:42Z</time>
      </trkpt>
      <trkpt lat="45.03171" lon="5.50805">
        <ele>1224.2</ele>
        <time>2021-08-31T13:01:44Z</time>
      </trkpt>
      <trkpt lat="45.03171" lon="5.50799">
        <ele>1224.1</ele>
        <time>2021-08-31T13:01:45Z</time>
      </trkpt>
      <trkpt lat="45.0317" lon="5.50795">
        <ele>1224.1</ele>
        <time>2021-08-31T13:01:46Z</time>
      </trkpt>
      <trkpt lat="45.03169" lon="5.50788">
        <ele>1223.9</ele>
        <time>2021-08-31T13:01:48Z</time>
      </trkpt>
      <trkpt lat="45.03168" lon="5.50785">
        <ele>1223.8</ele>
        <time>2021-08-31T13:01:49Z</time>
      </trkpt>
      <trkpt lat="45.03169" lon="5.5078">
        <ele>1223.7</ele>
        <time>2021-08-31T13:01:50Z</time>
      </trkpt>
      <trkpt lat="45.03171" lon="5.50773">
        <ele>1223.4</ele>
        <time>2021-08-31T13:01:52Z</time>
      </trkpt>
      <trkpt lat="45.03175" lon="5.50761">
        <ele>1223</ele>
        <time>2021-08-31T13:01:53Z</time>
      </trkpt>
      <trkpt lat="45.03179" lon="5.50751">
        <ele>1222.7</ele>
        <time>2021-08-31T13:01:55Z</time>
      </trkpt>
      <trkpt lat="45.03183" lon="5.50746">
        <ele>1222.6</ele>
        <time>2021-08-31T13:01:56Z</time>
      </trkpt>
      <trkpt lat="45.03185" lon="5.50743">
        <ele>1222.5</ele>
        <time>2021-08-31T13:01:57Z</time>
      </trkpt>
      <trkpt lat="45.03191" lon="5.50738">
        <ele>1222.6</ele>
        <time>2021-08-31T13:01:59Z</time>
      </trkpt>
      <trkpt lat="45.03194" lon="5.50736">
        <ele>1222.7</ele>
        <time>2021-08-31T13:02:00Z</time>
      </trkpt>
      <trkpt lat="45.03195" lon="5.50735">
        <ele>1222.7</ele>
        <time>2021-08-31T13:02:01Z</time>
      </trkpt>
      <trkpt lat="45.03196" lon="5.50734">
        <ele>1222.8</ele>
        <time>2021-08-31T13:02:02Z</time>
      </trkpt>
      <trkpt lat="45.03198" lon="5.50732">
        <ele>1222.9</ele>
        <time>2021-08-31T13:02:03Z</time>
      </trkpt>
      <trkpt lat="45.03198" lon="5.50731">
        <ele>1223</ele>
        <time>2021-08-31T13:02:05Z</time>
      </trkpt>
      <trkpt lat="45.03198" lon="5.5073">
        <ele>1223</ele>
        <time>2021-08-31T13:02:06Z</time>
      </trkpt>
      <trkpt lat="45.03199" lon="5.50729">
        <ele>1223</ele>
        <time>2021-08-31T13:02:08Z</time>
      </trkpt>
      <trkpt lat="45.03199" lon="5.50729">
        <ele>1223</ele>
        <time>2021-08-31T13:02:09Z</time>
      </trkpt>
      <trkpt lat="45.03199" lon="5.50729">
        <ele>1223.1</ele>
        <time>2021-08-31T13:02:10Z</time>
      </trkpt>
      <trkpt lat="45.03199" lon="5.50729">
        <ele>1223.1</ele>
        <time>2021-08-31T13:02:13Z</time>
      </trkpt>
      <trkpt lat="45.03227" lon="5.50738">
        <ele>1225.9</ele>
        <time>2021-08-31T13:02:23Z</time>
      </trkpt>
      <trkpt lat="45.03233" lon="5.5074">
        <ele>1226.5</ele>
        <time>2021-08-31T13:02:24Z</time>
      </trkpt>
      <trkpt lat="45.03235" lon="5.50741">
        <ele>1226.7</ele>
        <time>2021-08-31T13:02:25Z</time>
      </trkpt>
      <trkpt lat="45.03236" lon="5.50741">
        <ele>1226.8</ele>
        <time>2021-08-31T13:02:26Z</time>
      </trkpt>
      <trkpt lat="45.03239" lon="5.50747">
        <ele>1227.2</ele>
        <time>2021-08-31T13:02:28Z</time>
      </trkpt>
      <trkpt lat="45.0324" lon="5.50749">
        <ele>1227.3</ele>
        <time>2021-08-31T13:02:29Z</time>
      </trkpt>
      <trkpt lat="45.0324" lon="5.5075">
        <ele>1227.4</ele>
        <time>2021-08-31T13:02:31Z</time>
      </trkpt>
      <trkpt lat="45.03242" lon="5.50749">
        <ele>1227.6</ele>
        <time>2021-08-31T13:02:33Z</time>
      </trkpt>
      <trkpt lat="45.03243" lon="5.50749">
        <ele>1227.6</ele>
        <time>2021-08-31T13:02:34Z</time>
      </trkpt>
      <trkpt lat="45.03262" lon="5.50756">
        <ele>1227.9</ele>
        <time>2021-08-31T13:03:20Z</time>
      </trkpt>
      <trkpt lat="45.03264" lon="5.50754">
        <ele>1227.8</ele>
        <time>2021-08-31T13:03:22Z</time>
      </trkpt>
      <trkpt lat="45.03265" lon="5.50753">
        <ele>1227.8</ele>
        <time>2021-08-31T13:03:23Z</time>
      </trkpt>
      <trkpt lat="45.03266" lon="5.50751">
        <ele>1227.7</ele>
        <time>2021-08-31T13:03:24Z</time>
      </trkpt>
      <trkpt lat="45.03269" lon="5.5075">
        <ele>1227.6</ele>
        <time>2021-08-31T13:03:26Z</time>
      </trkpt>
      <trkpt lat="45.0327" lon="5.50751">
        <ele>1227.6</ele>
        <time>2021-08-31T13:03:27Z</time>
      </trkpt>
      <trkpt lat="45.03272" lon="5.50751">
        <ele>1227.5</ele>
        <time>2021-08-31T13:03:28Z</time>
      </trkpt>
      <trkpt lat="45.03273" lon="5.50752">
        <ele>1227.5</ele>
        <time>2021-08-31T13:03:29Z</time>
      </trkpt>
      <trkpt lat="45.03275" lon="5.50753">
        <ele>1227.4</ele>
        <time>2021-08-31T13:03:30Z</time>
      </trkpt>
      <trkpt lat="45.03276" lon="5.50753">
        <ele>1227.3</ele>
        <time>2021-08-31T13:03:32Z</time>
      </trkpt>
      <trkpt lat="45.03278" lon="5.50754">
        <ele>1227.3</ele>
        <time>2021-08-31T13:03:34Z</time>
      </trkpt>
      <trkpt lat="45.03279" lon="5.50754">
        <ele>1227.2</ele>
        <time>2021-08-31T13:03:35Z</time>
      </trkpt>
      <trkpt lat="45.03281" lon="5.50755">
        <ele>1227.1</ele>
        <time>2021-08-31T13:03:36Z</time>
      </trkpt>
      <trkpt lat="45.03282" lon="5.50756">
        <ele>1227.1</ele>
        <time>2021-08-31T13:03:53Z</time>
      </trkpt>
      <trkpt lat="45.03284" lon="5.50756">
        <ele>1227</ele>
        <time>2021-08-31T13:03:54Z</time>
      </trkpt>
      <trkpt lat="45.03288" lon="5.50759">
        <ele>1226.9</ele>
        <time>2021-08-31T13:03:55Z</time>
      </trkpt>
      <trkpt lat="45.03298" lon="5.50764">
        <ele>1226.8</ele>
        <time>2021-08-31T13:03:57Z</time>
      </trkpt>
      <trkpt lat="45.03306" lon="5.50766">
        <ele>1226.9</ele>
        <time>2021-08-31T13:03:58Z</time>
      </trkpt>
      <trkpt lat="45.03312" lon="5.50767">
        <ele>1227.2</ele>
        <time>2021-08-31T13:03:59Z</time>
      </trkpt>
      <trkpt lat="45.03317" lon="5.50768">
        <ele>1227.4</ele>
        <time>2021-08-31T13:04:00Z</time>
      </trkpt>
      <trkpt lat="45.03323" lon="5.5077">
        <ele>1227.7</ele>
        <time>2021-08-31T13:04:02Z</time>
      </trkpt>
      <trkpt lat="45.03329" lon="5.5077">
        <ele>1228</ele>
        <time>2021-08-31T13:04:03Z</time>
      </trkpt>
      <trkpt lat="45.03336" lon="5.50769">
        <ele>1228.4</ele>
        <time>2021-08-31T13:04:04Z</time>
      </trkpt>
      <trkpt lat="45.03343" lon="5.50767">
        <ele>1228.9</ele>
        <time>2021-08-31T13:04:06Z</time>
      </trkpt>
      <trkpt lat="45.03349" lon="5.50765">
        <ele>1229.2</ele>
        <time>2021-08-31T13:04:07Z</time>
      </trkpt>
      <trkpt lat="45.03354" lon="5.50764">
        <ele>1229.6</ele>
        <time>2021-08-31T13:04:08Z</time>
      </trkpt>
      <trkpt lat="45.03359" lon="5.50763">
        <ele>1229.8</ele>
        <time>2021-08-31T13:04:09Z</time>
      </trkpt>
      <trkpt lat="45.03362" lon="5.50763">
        <ele>1230</ele>
        <time>2021-08-31T13:04:10Z</time>
      </trkpt>
      <trkpt lat="45.03365" lon="5.50762">
        <ele>1230.1</ele>
        <time>2021-08-31T13:04:12Z</time>
      </trkpt>
      <trkpt lat="45.03366" lon="5.50762">
        <ele>1230.1</ele>
        <time>2021-08-31T13:04:13Z</time>
      </trkpt>
      <trkpt lat="45.03366" lon="5.50762">
        <ele>1230.1</ele>
        <time>2021-08-31T13:04:14Z</time>
      </trkpt>
      <trkpt lat="45.03369" lon="5.50763">
        <ele>1230.2</ele>
        <time>2021-08-31T13:04:16Z</time>
      </trkpt>
      <trkpt lat="45.03369" lon="5.50762">
        <ele>1230.2</ele>
        <time>2021-08-31T13:04:17Z</time>
      </trkpt>
      <trkpt lat="45.0337" lon="5.50761">
        <ele>1230.2</ele>
        <time>2021-08-31T13:04:19Z</time>
      </trkpt>
      <trkpt lat="45.03372" lon="5.50761">
        <ele>1230.3</ele>
        <time>2021-08-31T13:04:20Z</time>
      </trkpt>
      <trkpt lat="45.03374" lon="5.5076">
        <ele>1230.3</ele>
        <time>2021-08-31T13:04:21Z</time>
      </trkpt>
      <trkpt lat="45.03378" lon="5.50757">
        <ele>1230.3</ele>
        <time>2021-08-31T13:04:23Z</time>
      </trkpt>
      <trkpt lat="45.03383" lon="5.50752">
        <ele>1230.3</ele>
        <time>2021-08-31T13:04:25Z</time>
      </trkpt>
      <trkpt lat="45.03387" lon="5.5075">
        <ele>1230.3</ele>
        <time>2021-08-31T13:04:26Z</time>
      </trkpt>
      <trkpt lat="45.03391" lon="5.50748">
        <ele>1230.3</ele>
        <time>2021-08-31T13:04:27Z</time>
      </trkpt>
      <trkpt lat="45.03395" lon="5.50747">
        <ele>1230.3</ele>
        <time>2021-08-31T13:04:28Z</time>
      </trkpt>
      <trkpt lat="45.03404" lon="5.50748">
        <ele>1230.2</ele>
        <time>2021-08-31T13:04:30Z</time>
      </trkpt>
      <trkpt lat="45.03412" lon="5.50751">
        <ele>1230.3</ele>
        <time>2021-08-31T13:04:32Z</time>
      </trkpt>
      <trkpt lat="45.03418" lon="5.50753">
        <ele>1230.4</ele>
        <time>2021-08-31T13:04:33Z</time>
      </trkpt>
      <trkpt lat="45.03421" lon="5.50754">
        <ele>1230.4</ele>
        <time>2021-08-31T13:04:34Z</time>
      </trkpt>
      <trkpt lat="45.03424" lon="5.50755">
        <ele>1230.5</ele>
        <time>2021-08-31T13:04:35Z</time>
      </trkpt>
      <trkpt lat="45.0343" lon="5.50757">
        <ele>1230.4</ele>
        <time>2021-08-31T13:04:37Z</time>
      </trkpt>
      <trkpt lat="45.03433" lon="5.50761">
        <ele>1230.4</ele>
        <time>2021-08-31T13:04:39Z</time>
      </trkpt>
      <trkpt lat="45.03438" lon="5.50766">
        <ele>1230.2</ele>
        <time>2021-08-31T13:04:40Z</time>
      </trkpt>
      <trkpt lat="45.03445" lon="5.50774">
        <ele>1229.8</ele>
        <time>2021-08-31T13:04:41Z</time>
      </trkpt>
      <trkpt lat="45.03456" lon="5.50782">
        <ele>1229.1</ele>
        <time>2021-08-31T13:04:43Z</time>
      </trkpt>
      <trkpt lat="45.03463" lon="5.50785">
        <ele>1228.8</ele>
        <time>2021-08-31T13:04:44Z</time>
      </trkpt>
      <trkpt lat="45.03469" lon="5.50788">
        <ele>1228.5</ele>
        <time>2021-08-31T13:04:45Z</time>
      </trkpt>
      <trkpt lat="45.03482" lon="5.50792">
        <ele>1228.2</ele>
        <time>2021-08-31T13:04:47Z</time>
      </trkpt>
      <trkpt lat="45.03487" lon="5.50791">
        <ele>1228.1</ele>
        <time>2021-08-31T13:04:48Z</time>
      </trkpt>
      <trkpt lat="45.03495" lon="5.50792">
        <ele>1228.2</ele>
        <time>2021-08-31T13:04:50Z</time>
      </trkpt>
      <trkpt lat="45.035" lon="5.5079">
        <ele>1228.2</ele>
        <time>2021-08-31T13:04:52Z</time>
      </trkpt>
      <trkpt lat="45.03502" lon="5.50789">
        <ele>1228.3</ele>
        <time>2021-08-31T13:04:53Z</time>
      </trkpt>
      <trkpt lat="45.03513" lon="5.50792">
        <ele>1228.6</ele>
        <time>2021-08-31T13:04:55Z</time>
      </trkpt>
      <trkpt lat="45.03516" lon="5.50794">
        <ele>1228.7</ele>
        <time>2021-08-31T13:04:56Z</time>
      </trkpt>
      <trkpt lat="45.03522" lon="5.50798">
        <ele>1229</ele>
        <time>2021-08-31T13:04:58Z</time>
      </trkpt>
      <trkpt lat="45.0352" lon="5.50799">
        <ele>1229.1</ele>
        <time>2021-08-31T13:04:59Z</time>
      </trkpt>
      <trkpt lat="45.03524" lon="5.50801">
        <ele>1229.3</ele>
        <time>2021-08-31T13:05:00Z</time>
      </trkpt>
      <trkpt lat="45.0353" lon="5.50802">
        <ele>1229.7</ele>
        <time>2021-08-31T13:05:02Z</time>
      </trkpt>
      <trkpt lat="45.03533" lon="5.50801">
        <ele>1230</ele>
        <time>2021-08-31T13:05:04Z</time>
      </trkpt>
      <trkpt lat="45.03533" lon="5.50801">
        <ele>1230</ele>
        <time>2021-08-31T13:05:05Z</time>
      </trkpt>
      <trkpt lat="45.03532" lon="5.508">
        <ele>1230.1</ele>
        <time>2021-08-31T13:05:06Z</time>
      </trkpt>
      <trkpt lat="45.03531" lon="5.508">
        <ele>1230.1</ele>
        <time>2021-08-31T13:05:07Z</time>
      </trkpt>
      <trkpt lat="45.03531" lon="5.50801">
        <ele>1230.2</ele>
        <time>2021-08-31T13:05:09Z</time>
      </trkpt>
      <trkpt lat="45.03532" lon="5.50801">
        <ele>1230.2</ele>
        <time>2021-08-31T13:05:10Z</time>
      </trkpt>
      <trkpt lat="45.03534" lon="5.50802">
        <ele>1230.4</ele>
        <time>2021-08-31T13:05:12Z</time>
      </trkpt>
      <trkpt lat="45.03543" lon="5.50803">
        <ele>1231.3</ele>
        <time>2021-08-31T13:05:17Z</time>
      </trkpt>
      <trkpt lat="45.03546" lon="5.50803">
        <ele>1231.6</ele>
        <time>2021-08-31T13:05:18Z</time>
      </trkpt>
      <trkpt lat="45.03551" lon="5.50802">
        <ele>1232.2</ele>
        <time>2021-08-31T13:05:20Z</time>
      </trkpt>
      <trkpt lat="45.03554" lon="5.508">
        <ele>1232.5</ele>
        <time>2021-08-31T13:05:21Z</time>
      </trkpt>
      <trkpt lat="45.03557" lon="5.50799">
        <ele>1232.9</ele>
        <time>2021-08-31T13:05:22Z</time>
      </trkpt>
      <trkpt lat="45.0356" lon="5.50798">
        <ele>1233.2</ele>
        <time>2021-08-31T13:05:23Z</time>
      </trkpt>
      <trkpt lat="45.03564" lon="5.50798">
        <ele>1233.6</ele>
        <time>2021-08-31T13:05:24Z</time>
      </trkpt>
      <trkpt lat="45.03566" lon="5.50798">
        <ele>1233.8</ele>
        <time>2021-08-31T13:05:26Z</time>
      </trkpt>
      <trkpt lat="45.03569" lon="5.50797">
        <ele>1234.1</ele>
        <time>2021-08-31T13:05:27Z</time>
      </trkpt>
      <trkpt lat="45.03572" lon="5.50796">
        <ele>1234.3</ele>
        <time>2021-08-31T13:05:28Z</time>
      </trkpt>
      <trkpt lat="45.03573" lon="5.50796">
        <ele>1234.4</ele>
        <time>2021-08-31T13:05:30Z</time>
      </trkpt>
      <trkpt lat="45.03574" lon="5.50796">
        <ele>1234.5</ele>
        <time>2021-08-31T13:05:31Z</time>
      </trkpt>
      <trkpt lat="45.03575" lon="5.50795">
        <ele>1234.5</ele>
        <time>2021-08-31T13:05:32Z</time>
      </trkpt>
      <trkpt lat="45.03575" lon="5.50794">
        <ele>1234.6</ele>
        <time>2021-08-31T13:05:34Z</time>
      </trkpt>
      <trkpt lat="45.03577" lon="5.50793">
        <ele>1234.7</ele>
        <time>2021-08-31T13:05:35Z</time>
      </trkpt>
      <trkpt lat="45.03578" lon="5.50792">
        <ele>1234.9</ele>
        <time>2021-08-31T13:05:36Z</time>
      </trkpt>
      <trkpt lat="45.03579" lon="5.50792">
        <ele>1235</ele>
        <time>2021-08-31T13:05:38Z</time>
      </trkpt>
      <trkpt lat="45.0358" lon="5.50791">
        <ele>1235.1</ele>
        <time>2021-08-31T13:05:39Z</time>
      </trkpt>
      <trkpt lat="45.03582" lon="5.50791">
        <ele>1235.2</ele>
        <time>2021-08-31T13:05:40Z</time>
      </trkpt>
      <trkpt lat="45.03583" lon="5.50791">
        <ele>1235.3</ele>
        <time>2021-08-31T13:05:41Z</time>
      </trkpt>
      <trkpt lat="45.03621" lon="5.50788">
        <ele>1238.2</ele>
        <time>2021-08-31T13:06:07Z</time>
      </trkpt>
      <trkpt lat="45.03625" lon="5.50789">
        <ele>1238.4</ele>
        <time>2021-08-31T13:06:08Z</time>
      </trkpt>
      <trkpt lat="45.03627" lon="5.50789">
        <ele>1238.6</ele>
        <time>2021-08-31T13:06:09Z</time>
      </trkpt>
      <trkpt lat="45.03631" lon="5.50791">
        <ele>1238.8</ele>
        <time>2021-08-31T13:06:11Z</time>
      </trkpt>
      <trkpt lat="45.03634" lon="5.50793">
        <ele>1239</ele>
        <time>2021-08-31T13:06:12Z</time>
      </trkpt>
      <trkpt lat="45.03637" lon="5.50795">
        <ele>1239.2</ele>
        <time>2021-08-31T13:06:13Z</time>
      </trkpt>
      <trkpt lat="45.03641" lon="5.50797">
        <ele>1239.4</ele>
        <time>2021-08-31T13:06:14Z</time>
      </trkpt>
      <trkpt lat="45.03645" lon="5.50798">
        <ele>1239.6</ele>
        <time>2021-08-31T13:06:16Z</time>
      </trkpt>
      <trkpt lat="45.03647" lon="5.50798">
        <ele>1239.8</ele>
        <time>2021-08-31T13:06:17Z</time>
      </trkpt>
      <trkpt lat="45.03649" lon="5.50799">
        <ele>1239.9</ele>
        <time>2021-08-31T13:06:19Z</time>
      </trkpt>
      <trkpt lat="45.03652" lon="5.508">
        <ele>1240.1</ele>
        <time>2021-08-31T13:06:20Z</time>
      </trkpt>
      <trkpt lat="45.03654" lon="5.508">
        <ele>1240.1</ele>
        <time>2021-08-31T13:06:21Z</time>
      </trkpt>
      <trkpt lat="45.03656" lon="5.50801">
        <ele>1240.3</ele>
        <time>2021-08-31T13:06:23Z</time>
      </trkpt>
      <trkpt lat="45.03659" lon="5.50803">
        <ele>1240.4</ele>
        <time>2021-08-31T13:06:24Z</time>
      </trkpt>
      <trkpt lat="45.03662" lon="5.50803">
        <ele>1241.1</ele>
        <time>2021-08-31T13:06:25Z</time>
      </trkpt>
      <trkpt lat="45.03663" lon="5.50804">
        <ele>1241</ele>
        <time>2021-08-31T13:06:26Z</time>
      </trkpt>
      <trkpt lat="45.03665" lon="5.50805">
        <ele>1241</ele>
        <time>2021-08-31T13:06:28Z</time>
      </trkpt>
      <trkpt lat="45.03667" lon="5.50801">
        <ele>1240.9</ele>
        <time>2021-08-31T13:06:29Z</time>
      </trkpt>
      <trkpt lat="45.03666" lon="5.50794">
        <ele>1240.9</ele>
        <time>2021-08-31T13:06:31Z</time>
      </trkpt>
      <trkpt lat="45.03666" lon="5.50791">
        <ele>1240.8</ele>
        <time>2021-08-31T13:06:32Z</time>
      </trkpt>
      <trkpt lat="45.03668" lon="5.50785">
        <ele>1240.8</ele>
        <time>2021-08-31T13:06:34Z</time>
      </trkpt>
      <trkpt lat="45.03669" lon="5.50781">
        <ele>1240.7</ele>
        <time>2021-08-31T13:06:35Z</time>
      </trkpt>
      <trkpt lat="45.0367" lon="5.50775">
        <ele>1240.7</ele>
        <time>2021-08-31T13:06:37Z</time>
      </trkpt>
      <trkpt lat="45.03671" lon="5.50772">
        <ele>1240.7</ele>
        <time>2021-08-31T13:06:38Z</time>
      </trkpt>
      <trkpt lat="45.03672" lon="5.50766">
        <ele>1240.7</ele>
        <time>2021-08-31T13:06:40Z</time>
      </trkpt>
      <trkpt lat="45.03673" lon="5.5076">
        <ele>1240.7</ele>
        <time>2021-08-31T13:06:42Z</time>
      </trkpt>
      <trkpt lat="45.03672" lon="5.50755">
        <ele>1240.7</ele>
        <time>2021-08-31T13:06:43Z</time>
      </trkpt>
      <trkpt lat="45.03671" lon="5.50754">
        <ele>1240.7</ele>
        <time>2021-08-31T13:06:44Z</time>
      </trkpt>
      <trkpt lat="45.03669" lon="5.5075">
        <ele>1240.8</ele>
        <time>2021-08-31T13:06:46Z</time>
      </trkpt>
      <trkpt lat="45.03666" lon="5.50745">
        <ele>1240.9</ele>
        <time>2021-08-31T13:06:47Z</time>
      </trkpt>
      <trkpt lat="45.03665" lon="5.50741">
        <ele>1240.9</ele>
        <time>2021-08-31T13:06:48Z</time>
      </trkpt>
      <trkpt lat="45.03663" lon="5.50737">
        <ele>1241</ele>
        <time>2021-08-31T13:06:50Z</time>
      </trkpt>
      <trkpt lat="45.03663" lon="5.50736">
        <ele>1241</ele>
        <time>2021-08-31T13:06:51Z</time>
      </trkpt>
      <trkpt lat="45.03662" lon="5.50734">
        <ele>1241.1</ele>
        <time>2021-08-31T13:06:53Z</time>
      </trkpt>
      <trkpt lat="45.03661" lon="5.50733">
        <ele>1241.1</ele>
        <time>2021-08-31T13:06:54Z</time>
      </trkpt>
      <trkpt lat="45.03661" lon="5.50732">
        <ele>1241.1</ele>
        <time>2021-08-31T13:06:55Z</time>
      </trkpt>
      <trkpt lat="45.03662" lon="5.50731">
        <ele>1241.1</ele>
        <time>2021-08-31T13:06:57Z</time>
      </trkpt>
      <trkpt lat="45.03662" lon="5.50731">
        <ele>1241.2</ele>
        <time>2021-08-31T13:06:58Z</time>
      </trkpt>
      <trkpt lat="45.03662" lon="5.50731">
        <ele>1241.2</ele>
        <time>2021-08-31T13:06:59Z</time>
      </trkpt>
      <trkpt lat="45.03662" lon="5.50731">
        <ele>1241.2</ele>
        <time>2021-08-31T13:07:01Z</time>
      </trkpt>
      <trkpt lat="45.03662" lon="5.5073">
        <ele>1241.2</ele>
        <time>2021-08-31T13:07:02Z</time>
      </trkpt>
      <trkpt lat="45.03663" lon="5.5073">
        <ele>1241.2</ele>
        <time>2021-08-31T13:07:04Z</time>
      </trkpt>
      <trkpt lat="45.03683" lon="5.50702">
        <ele>1243.5</ele>
        <time>2021-08-31T13:07:14Z</time>
      </trkpt>
      <trkpt lat="45.03685" lon="5.50698">
        <ele>1243.8</ele>
        <time>2021-08-31T13:07:15Z</time>
      </trkpt>
      <trkpt lat="45.03686" lon="5.50694">
        <ele>1244.2</ele>
        <time>2021-08-31T13:07:16Z</time>
      </trkpt>
      <trkpt lat="45.03688" lon="5.50689">
        <ele>1244.5</ele>
        <time>2021-08-31T13:07:17Z</time>
      </trkpt>
      <trkpt lat="45.03688" lon="5.50682">
        <ele>1244.9</ele>
        <time>2021-08-31T13:07:19Z</time>
      </trkpt>
      <trkpt lat="45.03689" lon="5.50678">
        <ele>1245.1</ele>
        <time>2021-08-31T13:07:20Z</time>
      </trkpt>
      <trkpt lat="45.03691" lon="5.50675">
        <ele>1245.3</ele>
        <time>2021-08-31T13:07:22Z</time>
      </trkpt>
      <trkpt lat="45.03691" lon="5.50675">
        <ele>1245.3</ele>
        <time>2021-08-31T13:07:23Z</time>
      </trkpt>
      <trkpt lat="45.03691" lon="5.50675">
        <ele>1245.3</ele>
        <time>2021-08-31T13:07:24Z</time>
      </trkpt>
      <trkpt lat="45.03691" lon="5.50675">
        <ele>1245.3</ele>
        <time>2021-08-31T13:07:26Z</time>
      </trkpt>
      <trkpt lat="45.03691" lon="5.50675">
        <ele>1245.3</ele>
        <time>2021-08-31T13:07:27Z</time>
      </trkpt>
      <trkpt lat="45.03691" lon="5.50675">
        <ele>1245.3</ele>
        <time>2021-08-31T13:07:28Z</time>
      </trkpt>
      <trkpt lat="45.03691" lon="5.50675">
        <ele>1245.3</ele>
        <time>2021-08-31T13:07:29Z</time>
      </trkpt>
      <trkpt lat="45.03686" lon="5.50666">
        <ele>1245.9</ele>
        <time>2021-08-31T13:07:42Z</time>
      </trkpt>
      <trkpt lat="45.03686" lon="5.50662">
        <ele>1246.1</ele>
        <time>2021-08-31T13:07:43Z</time>
      </trkpt>
      <trkpt lat="45.03686" lon="5.50661">
        <ele>1246.2</ele>
        <time>2021-08-31T13:07:44Z</time>
      </trkpt>
      <trkpt lat="45.03684" lon="5.50656">
        <ele>1246.4</ele>
        <time>2021-08-31T13:07:46Z</time>
      </trkpt>
      <trkpt lat="45.03684" lon="5.50658">
        <ele>1246.5</ele>
        <time>2021-08-31T13:07:48Z</time>
      </trkpt>
      <trkpt lat="45.03684" lon="5.5066">
        <ele>1246.6</ele>
        <time>2021-08-31T13:07:50Z</time>
      </trkpt>
      <trkpt lat="45.03684" lon="5.5066">
        <ele>1246.6</ele>
        <time>2021-08-31T13:07:51Z</time>
      </trkpt>
      <trkpt lat="45.03686" lon="5.50659">
        <ele>1246.8</ele>
        <time>2021-08-31T13:07:52Z</time>
      </trkpt>
      <trkpt lat="45.03688" lon="5.50659">
        <ele>1247</ele>
        <time>2021-08-31T13:07:54Z</time>
      </trkpt>
      <trkpt lat="45.0369" lon="5.50658">
        <ele>1247.1</ele>
        <time>2021-08-31T13:07:55Z</time>
      </trkpt>
      <trkpt lat="45.03693" lon="5.50659">
        <ele>1247.4</ele>
        <time>2021-08-31T13:07:56Z</time>
      </trkpt>
      <trkpt lat="45.03699" lon="5.50662">
        <ele>1247.8</ele>
        <time>2021-08-31T13:07:58Z</time>
      </trkpt>
      <trkpt lat="45.03699" lon="5.50663">
        <ele>1247.8</ele>
        <time>2021-08-31T13:07:59Z</time>
      </trkpt>
      <trkpt lat="45.03699" lon="5.50663">
        <ele>1247.8</ele>
        <time>2021-08-31T13:08:01Z</time>
      </trkpt>
      <trkpt lat="45.03698" lon="5.50663">
        <ele>1247.8</ele>
        <time>2021-08-31T13:08:02Z</time>
      </trkpt>
      <trkpt lat="45.03698" lon="5.50663">
        <ele>1247.9</ele>
        <time>2021-08-31T13:08:04Z</time>
      </trkpt>
      <trkpt lat="45.03698" lon="5.50663">
        <ele>1247.9</ele>
        <time>2021-08-31T13:08:05Z</time>
      </trkpt>
      <trkpt lat="45.03698" lon="5.50663">
        <ele>1247.9</ele>
        <time>2021-08-31T13:08:06Z</time>
      </trkpt>
      <trkpt lat="45.03711" lon="5.50634">
        <ele>1249.4</ele>
        <time>2021-08-31T13:08:29Z</time>
      </trkpt>
      <trkpt lat="45.03712" lon="5.50633">
        <ele>1249.5</ele>
        <time>2021-08-31T13:08:31Z</time>
      </trkpt>
      <trkpt lat="45.03713" lon="5.50633">
        <ele>1249.5</ele>
        <time>2021-08-31T13:08:32Z</time>
      </trkpt>
      <trkpt lat="45.03714" lon="5.50633">
        <ele>1249.6</ele>
        <time>2021-08-31T13:08:34Z</time>
      </trkpt>
      <trkpt lat="45.03714" lon="5.50633">
        <ele>1249.6</ele>
        <time>2021-08-31T13:08:35Z</time>
      </trkpt>
      <trkpt lat="45.03714" lon="5.50633">
        <ele>1249.6</ele>
        <time>2021-08-31T13:08:36Z</time>
      </trkpt>
      <trkpt lat="45.03715" lon="5.50633">
        <ele>1249.6</ele>
        <time>2021-08-31T13:08:37Z</time>
      </trkpt>
      <trkpt lat="45.03715" lon="5.50634">
        <ele>1249.6</ele>
        <time>2021-08-31T13:08:38Z</time>
      </trkpt>
      <trkpt lat="45.03715" lon="5.50634">
        <ele>1249.7</ele>
        <time>2021-08-31T13:08:40Z</time>
      </trkpt>
      <trkpt lat="45.03715" lon="5.50634">
        <ele>1249.7</ele>
        <time>2021-08-31T13:08:42Z</time>
      </trkpt>
      <trkpt lat="45.03715" lon="5.50634">
        <ele>1249.7</ele>
        <time>2021-08-31T13:08:43Z</time>
      </trkpt>
      <trkpt lat="45.03715" lon="5.50634">
        <ele>1249.7</ele>
        <time>2021-08-31T13:08:44Z</time>
      </trkpt>
      <trkpt lat="45.03715" lon="5.50634">
        <ele>1249.7</ele>
        <time>2021-08-31T13:08:45Z</time>
      </trkpt>
      <trkpt lat="45.03715" lon="5.50634">
        <ele>1249.7</ele>
        <time>2021-08-31T13:08:47Z</time>
      </trkpt>
      <trkpt lat="45.03715" lon="5.50633">
        <ele>1249.7</ele>
        <time>2021-08-31T13:08:48Z</time>
      </trkpt>
      <trkpt lat="45.03714" lon="5.50631">
        <ele>1249.8</ele>
        <time>2021-08-31T13:08:50Z</time>
      </trkpt>
      <trkpt lat="45.03714" lon="5.50629">
        <ele>1249.8</ele>
        <time>2021-08-31T13:08:51Z</time>
      </trkpt>
      <trkpt lat="45.03714" lon="5.50628">
        <ele>1249.8</ele>
        <time>2021-08-31T13:08:52Z</time>
      </trkpt>
      <trkpt lat="45.03714" lon="5.50625">
        <ele>1249.9</ele>
        <time>2021-08-31T13:08:54Z</time>
      </trkpt>
      <trkpt lat="45.03715" lon="5.50617">
        <ele>1250.1</ele>
        <time>2021-08-31T13:08:56Z</time>
      </trkpt>
      <trkpt lat="45.03716" lon="5.50613">
        <ele>1250.2</ele>
        <time>2021-08-31T13:08:57Z</time>
      </trkpt>
      <trkpt lat="45.03717" lon="5.50609">
        <ele>1250.3</ele>
        <time>2021-08-31T13:08:59Z</time>
      </trkpt>
      <trkpt lat="45.03718" lon="5.50607">
        <ele>1250.3</ele>
        <time>2021-08-31T13:09:00Z</time>
      </trkpt>
      <trkpt lat="45.03719" lon="5.50605">
        <ele>1250.4</ele>
        <time>2021-08-31T13:09:01Z</time>
      </trkpt>
      <trkpt lat="45.0372" lon="5.50604">
        <ele>1250.4</ele>
        <time>2021-08-31T13:09:02Z</time>
      </trkpt>
      <trkpt lat="45.03721" lon="5.506">
        <ele>1250.5</ele>
        <time>2021-08-31T13:09:04Z</time>
      </trkpt>
      <trkpt lat="45.03723" lon="5.50597">
        <ele>1250.5</ele>
        <time>2021-08-31T13:09:05Z</time>
      </trkpt>
      <trkpt lat="45.03725" lon="5.50596">
        <ele>1250.6</ele>
        <time>2021-08-31T13:09:06Z</time>
      </trkpt>
      <trkpt lat="45.03728" lon="5.50589">
        <ele>1250.7</ele>
        <time>2021-08-31T13:09:08Z</time>
      </trkpt>
      <trkpt lat="45.03728" lon="5.50587">
        <ele>1250.7</ele>
        <time>2021-08-31T13:09:10Z</time>
      </trkpt>
      <trkpt lat="45.03727" lon="5.50586">
        <ele>1250.7</ele>
        <time>2021-08-31T13:09:11Z</time>
      </trkpt>
      <trkpt lat="45.03728" lon="5.50584">
        <ele>1250.8</ele>
        <time>2021-08-31T13:09:12Z</time>
      </trkpt>
      <trkpt lat="45.0373" lon="5.50579">
        <ele>1250.9</ele>
        <time>2021-08-31T13:09:14Z</time>
      </trkpt>
      <trkpt lat="45.03732" lon="5.50573">
        <ele>1251.1</ele>
        <time>2021-08-31T13:09:16Z</time>
      </trkpt>
      <trkpt lat="45.03732" lon="5.50568">
        <ele>1251.3</ele>
        <time>2021-08-31T13:09:17Z</time>
      </trkpt>
      <trkpt lat="45.03732" lon="5.50563">
        <ele>1251.5</ele>
        <time>2021-08-31T13:09:18Z</time>
      </trkpt>
      <trkpt lat="45.03732" lon="5.50558">
        <ele>1251.7</ele>
        <time>2021-08-31T13:09:19Z</time>
      </trkpt>
      <trkpt lat="45.03732" lon="5.50557">
        <ele>1251.7</ele>
        <time>2021-08-31T13:09:20Z</time>
      </trkpt>
      <trkpt lat="45.0373" lon="5.50555">
        <ele>1251.9</ele>
        <time>2021-08-31T13:09:22Z</time>
      </trkpt>
      <trkpt lat="45.03729" lon="5.50555">
        <ele>1251.9</ele>
        <time>2021-08-31T13:09:23Z</time>
      </trkpt>
      <trkpt lat="45.03729" lon="5.50554">
        <ele>1252</ele>
        <time>2021-08-31T13:09:24Z</time>
      </trkpt>
      <trkpt lat="45.03729" lon="5.50551">
        <ele>1252.1</ele>
        <time>2021-08-31T13:09:26Z</time>
      </trkpt>
      <trkpt lat="45.0373" lon="5.50548">
        <ele>1252.2</ele>
        <time>2021-08-31T13:09:27Z</time>
      </trkpt>
      <trkpt lat="45.03733" lon="5.50547">
        <ele>1252.4</ele>
        <time>2021-08-31T13:09:29Z</time>
      </trkpt>
      <trkpt lat="45.03733" lon="5.50547">
        <ele>1252.4</ele>
        <time>2021-08-31T13:09:30Z</time>
      </trkpt>
      <trkpt lat="45.03733" lon="5.50547">
        <ele>1252.4</ele>
        <time>2021-08-31T13:09:31Z</time>
      </trkpt>
      <trkpt lat="45.03734" lon="5.50548">
        <ele>1252.4</ele>
        <time>2021-08-31T13:09:33Z</time>
      </trkpt>
      <trkpt lat="45.03734" lon="5.50548">
        <ele>1252.5</ele>
        <time>2021-08-31T13:09:34Z</time>
      </trkpt>
      <trkpt lat="45.03734" lon="5.50548">
        <ele>1252.5</ele>
        <time>2021-08-31T13:09:35Z</time>
      </trkpt>
      <trkpt lat="45.03734" lon="5.50547">
        <ele>1252.5</ele>
        <time>2021-08-31T13:09:36Z</time>
      </trkpt>
      <trkpt lat="45.03735" lon="5.50547">
        <ele>1252.5</ele>
        <time>2021-08-31T13:09:37Z</time>
      </trkpt>
      <trkpt lat="45.03736" lon="5.50544">
        <ele>1252.6</ele>
        <time>2021-08-31T13:09:39Z</time>
      </trkpt>
      <trkpt lat="45.03745" lon="5.50531">
        <ele>1253.1</ele>
        <time>2021-08-31T13:09:45Z</time>
      </trkpt>
      <trkpt lat="45.03748" lon="5.50524">
        <ele>1253.2</ele>
        <time>2021-08-31T13:09:47Z</time>
      </trkpt>
      <trkpt lat="45.03751" lon="5.50519">
        <ele>1253.2</ele>
        <time>2021-08-31T13:09:48Z</time>
      </trkpt>
      <trkpt lat="45.03753" lon="5.50513">
        <ele>1253.3</ele>
        <time>2021-08-31T13:09:49Z</time>
      </trkpt>
      <trkpt lat="45.03756" lon="5.50509">
        <ele>1253.3</ele>
        <time>2021-08-31T13:09:50Z</time>
      </trkpt>
      <trkpt lat="45.03763" lon="5.50501">
        <ele>1253.3</ele>
        <time>2021-08-31T13:09:52Z</time>
      </trkpt>
      <trkpt lat="45.03768" lon="5.50494">
        <ele>1253.5</ele>
        <time>2021-08-31T13:09:54Z</time>
      </trkpt>
      <trkpt lat="45.0377" lon="5.5049">
        <ele>1253.6</ele>
        <time>2021-08-31T13:09:55Z</time>
      </trkpt>
      <trkpt lat="45.03772" lon="5.50488">
        <ele>1253.7</ele>
        <time>2021-08-31T13:09:57Z</time>
      </trkpt>
      <trkpt lat="45.03773" lon="5.50489">
        <ele>1253.8</ele>
        <time>2021-08-31T13:09:58Z</time>
      </trkpt>
      <trkpt lat="45.03774" lon="5.5049">
        <ele>1253.8</ele>
        <time>2021-08-31T13:09:59Z</time>
      </trkpt>
      <trkpt lat="45.03774" lon="5.5049">
        <ele>1253.9</ele>
        <time>2021-08-31T13:10:00Z</time>
      </trkpt>
      <trkpt lat="45.03776" lon="5.50488">
        <ele>1254</ele>
        <time>2021-08-31T13:10:02Z</time>
      </trkpt>
      <trkpt lat="45.03776" lon="5.50488">
        <ele>1254</ele>
        <time>2021-08-31T13:10:04Z</time>
      </trkpt>
      <trkpt lat="45.03777" lon="5.50486">
        <ele>1254.1</ele>
        <time>2021-08-31T13:10:06Z</time>
      </trkpt>
      <trkpt lat="45.03778" lon="5.50483">
        <ele>1254.3</ele>
        <time>2021-08-31T13:10:08Z</time>
      </trkpt>
      <trkpt lat="45.03779" lon="5.50481">
        <ele>1254.4</ele>
        <time>2021-08-31T13:10:09Z</time>
      </trkpt>
      <trkpt lat="45.0378" lon="5.50479">
        <ele>1254.6</ele>
        <time>2021-08-31T13:10:10Z</time>
      </trkpt>
      <trkpt lat="45.03784" lon="5.50459">
        <ele>1256.5</ele>
        <time>2021-08-31T13:10:19Z</time>
      </trkpt>
      <trkpt lat="45.03785" lon="5.50456">
        <ele>1256.9</ele>
        <time>2021-08-31T13:10:20Z</time>
      </trkpt>
      <trkpt lat="45.03786" lon="5.50453">
        <ele>1257.2</ele>
        <time>2021-08-31T13:10:22Z</time>
      </trkpt>
      <trkpt lat="45.03786" lon="5.50452">
        <ele>1257.4</ele>
        <time>2021-08-31T13:10:23Z</time>
      </trkpt>
      <trkpt lat="45.03786" lon="5.50451">
        <ele>1257.5</ele>
        <time>2021-08-31T13:10:24Z</time>
      </trkpt>
      <trkpt lat="45.03786" lon="5.5045">
        <ele>1257.6</ele>
        <time>2021-08-31T13:10:26Z</time>
      </trkpt>
      <trkpt lat="45.03786" lon="5.50448">
        <ele>1257.8</ele>
        <time>2021-08-31T13:10:27Z</time>
      </trkpt>
      <trkpt lat="45.03785" lon="5.50446">
        <ele>1258</ele>
        <time>2021-08-31T13:10:29Z</time>
      </trkpt>
      <trkpt lat="45.03785" lon="5.50445">
        <ele>1258.1</ele>
        <time>2021-08-31T13:10:30Z</time>
      </trkpt>
      <trkpt lat="45.03813" lon="5.50382">
        <ele>1264.3</ele>
        <time>2021-08-31T13:11:30Z</time>
      </trkpt>
      <trkpt lat="45.03809" lon="5.50379">
        <ele>1264.6</ele>
        <time>2021-08-31T13:11:32Z</time>
      </trkpt>
      <trkpt lat="45.03808" lon="5.50377">
        <ele>1264.7</ele>
        <time>2021-08-31T13:11:34Z</time>
      </trkpt>
      <trkpt lat="45.03809" lon="5.50377">
        <ele>1264.8</ele>
        <time>2021-08-31T13:11:35Z</time>
      </trkpt>
      <trkpt lat="45.03809" lon="5.50374">
        <ele>1264.9</ele>
        <time>2021-08-31T13:11:36Z</time>
      </trkpt>
      <trkpt lat="45.03809" lon="5.50374">
        <ele>1264.9</ele>
        <time>2021-08-31T13:11:37Z</time>
      </trkpt>
      <trkpt lat="45.03809" lon="5.50372">
        <ele>1265</ele>
        <time>2021-08-31T13:11:39Z</time>
      </trkpt>
      <trkpt lat="45.03811" lon="5.50371">
        <ele>1265.1</ele>
        <time>2021-08-31T13:11:40Z</time>
      </trkpt>
      <trkpt lat="45.03812" lon="5.50372">
        <ele>1265.2</ele>
        <time>2021-08-31T13:11:41Z</time>
      </trkpt>
      <trkpt lat="45.03817" lon="5.50372">
        <ele>1265.4</ele>
        <time>2021-08-31T13:11:43Z</time>
      </trkpt>
      <trkpt lat="45.03824" lon="5.50365">
        <ele>1265.8</ele>
        <time>2021-08-31T13:11:44Z</time>
      </trkpt>
      <trkpt lat="45.0383" lon="5.50358">
        <ele>1266.1</ele>
        <time>2021-08-31T13:11:45Z</time>
      </trkpt>
      <trkpt lat="45.03836" lon="5.50351">
        <ele>1266.4</ele>
        <time>2021-08-31T13:11:46Z</time>
      </trkpt>
      <trkpt lat="45.03843" lon="5.50344">
        <ele>1266.7</ele>
        <time>2021-08-31T13:11:48Z</time>
      </trkpt>
      <trkpt lat="45.03849" lon="5.50337">
        <ele>1267.1</ele>
        <time>2021-08-31T13:11:49Z</time>
      </trkpt>
      <trkpt lat="45.03855" lon="5.5033">
        <ele>1267.6</ele>
        <time>2021-08-31T13:12:52Z</time>
      </trkpt>
      <trkpt lat="45.03861" lon="5.50324">
        <ele>1268.1</ele>
        <time>2021-08-31T13:12:53Z</time>
      </trkpt>
      <trkpt lat="45.03864" lon="5.50322">
        <ele>1268.4</ele>
        <time>2021-08-31T13:12:54Z</time>
      </trkpt>
      <trkpt lat="45.03866" lon="5.5032">
        <ele>1268.6</ele>
        <time>2021-08-31T13:12:56Z</time>
      </trkpt>
      <trkpt lat="45.03867" lon="5.5032">
        <ele>1268.6</ele>
        <time>2021-08-31T13:12:58Z</time>
      </trkpt>
      <trkpt lat="45.03867" lon="5.50319">
        <ele>1268.7</ele>
        <time>2021-08-31T13:12:59Z</time>
      </trkpt>
      <trkpt lat="45.03868" lon="5.50319">
        <ele>1268.7</ele>
        <time>2021-08-31T13:13:01Z</time>
      </trkpt>
      <trkpt lat="45.03868" lon="5.50319">
        <ele>1268.8</ele>
        <time>2021-08-31T13:13:02Z</time>
      </trkpt>
      <trkpt lat="45.03868" lon="5.50318">
        <ele>1268.8</ele>
        <time>2021-08-31T13:13:03Z</time>
      </trkpt>
      <trkpt lat="45.03868" lon="5.50318">
        <ele>1268.8</ele>
        <time>2021-08-31T13:13:05Z</time>
      </trkpt>
      <trkpt lat="45.03874" lon="5.50306">
        <ele>1269.7</ele>
        <time>2021-08-31T13:13:18Z</time>
      </trkpt>
      <trkpt lat="45.03874" lon="5.50297">
        <ele>1270.2</ele>
        <time>2021-08-31T13:13:20Z</time>
      </trkpt>
      <trkpt lat="45.03875" lon="5.50286">
        <ele>1270.9</ele>
        <time>2021-08-31T13:13:22Z</time>
      </trkpt>
      <trkpt lat="45.03874" lon="5.50282">
        <ele>1271.1</ele>
        <time>2021-08-31T13:13:23Z</time>
      </trkpt>
      <trkpt lat="45.03873" lon="5.50277">
        <ele>1271.5</ele>
        <time>2021-08-31T13:13:24Z</time>
      </trkpt>
      <trkpt lat="45.03872" lon="5.50272">
        <ele>1271.9</ele>
        <time>2021-08-31T13:13:25Z</time>
      </trkpt>
      <trkpt lat="45.03871" lon="5.50268">
        <ele>1272.2</ele>
        <time>2021-08-31T13:13:26Z</time>
      </trkpt>
      <trkpt lat="45.03877" lon="5.5027">
        <ele>1272.8</ele>
        <time>2021-08-31T13:13:28Z</time>
      </trkpt>
      <trkpt lat="45.03882" lon="5.50271">
        <ele>1273.5</ele>
        <time>2021-08-31T13:13:30Z</time>
      </trkpt>
      <trkpt lat="45.03884" lon="5.50271">
        <ele>1273.8</ele>
        <time>2021-08-31T13:13:31Z</time>
      </trkpt>
      <trkpt lat="45.03889" lon="5.50273">
        <ele>1274.5</ele>
        <time>2021-08-31T13:13:33Z</time>
      </trkpt>
      <trkpt lat="45.03891" lon="5.50275">
        <ele>1274.8</ele>
        <time>2021-08-31T13:13:34Z</time>
      </trkpt>
      <trkpt lat="45.03891" lon="5.50278">
        <ele>1275.2</ele>
        <time>2021-08-31T13:13:35Z</time>
      </trkpt>
      <trkpt lat="45.03891" lon="5.50297">
        <ele>1277.2</ele>
        <time>2021-08-31T13:14:08Z</time>
      </trkpt>
      <trkpt lat="45.03892" lon="5.50298">
        <ele>1277.5</ele>
        <time>2021-08-31T13:14:09Z</time>
      </trkpt>
      <trkpt lat="45.03896" lon="5.50298">
        <ele>1277.9</ele>
        <time>2021-08-31T13:14:11Z</time>
      </trkpt>
      <trkpt lat="45.03896" lon="5.50296">
        <ele>1278.1</ele>
        <time>2021-08-31T13:14:12Z</time>
      </trkpt>
      <trkpt lat="45.03896" lon="5.50294">
        <ele>1278.3</ele>
        <time>2021-08-31T13:14:14Z</time>
      </trkpt>
      <trkpt lat="45.03896" lon="5.50293">
        <ele>1278.4</ele>
        <time>2021-08-31T13:14:15Z</time>
      </trkpt>
      <trkpt lat="45.03896" lon="5.50292">
        <ele>1278.5</ele>
        <time>2021-08-31T13:14:17Z</time>
      </trkpt>
      <trkpt lat="45.03897" lon="5.50291">
        <ele>1278.6</ele>
        <time>2021-08-31T13:14:18Z</time>
      </trkpt>
      <trkpt lat="45.03897" lon="5.50291">
        <ele>1278.7</ele>
        <time>2021-08-31T13:14:19Z</time>
      </trkpt>
      <trkpt lat="45.03897" lon="5.5029">
        <ele>1278.7</ele>
        <time>2021-08-31T13:14:20Z</time>
      </trkpt>
      <trkpt lat="45.03897" lon="5.5029">
        <ele>1278.7</ele>
        <time>2021-08-31T13:14:22Z</time>
      </trkpt>
      <trkpt lat="45.04011" lon="5.50122">
        <ele>1298.3</ele>
        <time>2021-08-31T13:20:09Z</time>
      </trkpt>
      <trkpt lat="45.04017" lon="5.50116">
        <ele>1297.8</ele>
        <time>2021-08-31T13:20:10Z</time>
      </trkpt>
      <trkpt lat="45.0402" lon="5.50115">
        <ele>1297.5</ele>
        <time>2021-08-31T13:20:12Z</time>
      </trkpt>
      <trkpt lat="45.04022" lon="5.50114">
        <ele>1297.4</ele>
        <time>2021-08-31T13:20:13Z</time>
      </trkpt>
      <trkpt lat="45.04023" lon="5.50112">
        <ele>1297.3</ele>
        <time>2021-08-31T13:20:14Z</time>
      </trkpt>
      <trkpt lat="45.04023" lon="5.50112">
        <ele>1297.2</ele>
        <time>2021-08-31T13:20:16Z</time>
      </trkpt>
      <trkpt lat="45.04023" lon="5.50112">
        <ele>1297.2</ele>
        <time>2021-08-31T13:20:17Z</time>
      </trkpt>
      <trkpt lat="45.04024" lon="5.50112">
        <ele>1297.1</ele>
        <time>2021-08-31T13:20:19Z</time>
      </trkpt>
      <trkpt lat="45.04026" lon="5.50113">
        <ele>1297</ele>
        <time>2021-08-31T13:20:20Z</time>
      </trkpt>
      <trkpt lat="45.04048" lon="5.50109">
        <ele>1295.1</ele>
        <time>2021-08-31T13:20:29Z</time>
      </trkpt>
      <trkpt lat="45.04051" lon="5.50108">
        <ele>1294.9</ele>
        <time>2021-08-31T13:20:30Z</time>
      </trkpt>
      <trkpt lat="45.04053" lon="5.50108">
        <ele>1294.7</ele>
        <time>2021-08-31T13:20:31Z</time>
      </trkpt>
      <trkpt lat="45.04057" lon="5.50107">
        <ele>1294.4</ele>
        <time>2021-08-31T13:20:32Z</time>
      </trkpt>
      <trkpt lat="45.04062" lon="5.50104">
        <ele>1294</ele>
        <time>2021-08-31T13:20:34Z</time>
      </trkpt>
      <trkpt lat="45.04065" lon="5.50101">
        <ele>1293.8</ele>
        <time>2021-08-31T13:20:35Z</time>
      </trkpt>
      <trkpt lat="45.04072" lon="5.50095">
        <ele>1293.4</ele>
        <time>2021-08-31T13:20:37Z</time>
      </trkpt>
      <trkpt lat="45.04079" lon="5.50087">
        <ele>1292.9</ele>
        <time>2021-08-31T13:20:38Z</time>
      </trkpt>
      <trkpt lat="45.04084" lon="5.50082">
        <ele>1292.5</ele>
        <time>2021-08-31T13:20:39Z</time>
      </trkpt>
      <trkpt lat="45.0409" lon="5.50077">
        <ele>1291.9</ele>
        <time>2021-08-31T13:20:41Z</time>
      </trkpt>
      <trkpt lat="45.04096" lon="5.50073">
        <ele>1291.3</ele>
        <time>2021-08-31T13:20:42Z</time>
      </trkpt>
      <trkpt lat="45.04101" lon="5.50067">
        <ele>1290.7</ele>
        <time>2021-08-31T13:20:43Z</time>
      </trkpt>
      <trkpt lat="45.04104" lon="5.50063">
        <ele>1290.4</ele>
        <time>2021-08-31T13:20:44Z</time>
      </trkpt>
      <trkpt lat="45.04109" lon="5.50062">
        <ele>1290</ele>
        <time>2021-08-31T13:20:46Z</time>
      </trkpt>
      <trkpt lat="45.04113" lon="5.50064">
        <ele>1289.6</ele>
        <time>2021-08-31T13:20:47Z</time>
      </trkpt>
      <trkpt lat="45.04119" lon="5.50064">
        <ele>1289.2</ele>
        <time>2021-08-31T13:20:48Z</time>
      </trkpt>
      <trkpt lat="45.04124" lon="5.50065">
        <ele>1288.7</ele>
        <time>2021-08-31T13:20:49Z</time>
      </trkpt>
      <trkpt lat="45.0413" lon="5.50065">
        <ele>1288.3</ele>
        <time>2021-08-31T13:20:50Z</time>
      </trkpt>
      <trkpt lat="45.04139" lon="5.50065">
        <ele>1287.7</ele>
        <time>2021-08-31T13:20:52Z</time>
      </trkpt>
      <trkpt lat="45.04145" lon="5.50066">
        <ele>1287.3</ele>
        <time>2021-08-31T13:20:53Z</time>
      </trkpt>
      <trkpt lat="45.0415" lon="5.50066">
        <ele>1287</ele>
        <time>2021-08-31T13:20:54Z</time>
      </trkpt>
      <trkpt lat="45.04153" lon="5.50067">
        <ele>1286.8</ele>
        <time>2021-08-31T13:20:55Z</time>
      </trkpt>
      <trkpt lat="45.04157" lon="5.50068">
        <ele>1286.6</ele>
        <time>2021-08-31T13:20:57Z</time>
      </trkpt>
      <trkpt lat="45.0416" lon="5.50068">
        <ele>1286.4</ele>
        <time>2021-08-31T13:20:58Z</time>
      </trkpt>
      <trkpt lat="45.04161" lon="5.50068">
        <ele>1286.3</ele>
        <time>2021-08-31T13:20:59Z</time>
      </trkpt>
      <trkpt lat="45.04165" lon="5.5007">
        <ele>1286.1</ele>
        <time>2021-08-31T13:21:00Z</time>
      </trkpt>
      <trkpt lat="45.0417" lon="5.50075">
        <ele>1285.6</ele>
        <time>2021-08-31T13:21:02Z</time>
      </trkpt>
      <trkpt lat="45.04173" lon="5.50078">
        <ele>1285.4</ele>
        <time>2021-08-31T13:21:03Z</time>
      </trkpt>
      <trkpt lat="45.04173" lon="5.50079">
        <ele>1285.3</ele>
        <time>2021-08-31T13:21:04Z</time>
      </trkpt>
      <trkpt lat="45.04176" lon="5.50081">
        <ele>1285</ele>
        <time>2021-08-31T13:21:06Z</time>
      </trkpt>
      <trkpt lat="45.04178" lon="5.50082">
        <ele>1284.8</ele>
        <time>2021-08-31T13:21:07Z</time>
      </trkpt>
      <trkpt lat="45.04179" lon="5.50082">
        <ele>1284.8</ele>
        <time>2021-08-31T13:21:08Z</time>
      </trkpt>
      <trkpt lat="45.04179" lon="5.50081">
        <ele>1284.8</ele>
        <time>2021-08-31T13:21:10Z</time>
      </trkpt>
      <trkpt lat="45.04179" lon="5.50081">
        <ele>1284.7</ele>
        <time>2021-08-31T13:21:11Z</time>
      </trkpt>
      <trkpt lat="45.04179" lon="5.50081">
        <ele>1284.7</ele>
        <time>2021-08-31T13:21:12Z</time>
      </trkpt>
      <trkpt lat="45.04179" lon="5.50081">
        <ele>1284.7</ele>
        <time>2021-08-31T13:21:13Z</time>
      </trkpt>
      <trkpt lat="45.04179" lon="5.50081">
        <ele>1284.7</ele>
        <time>2021-08-31T13:21:14Z</time>
      </trkpt>
      <trkpt lat="45.04179" lon="5.50081">
        <ele>1284.7</ele>
        <time>2021-08-31T13:21:16Z</time>
      </trkpt>
      <trkpt lat="45.04179" lon="5.5008">
        <ele>1284.7</ele>
        <time>2021-08-31T13:21:17Z</time>
      </trkpt>
      <trkpt lat="45.04199" lon="5.50061">
        <ele>1283.6</ele>
        <time>2021-08-31T13:21:26Z</time>
      </trkpt>
      <trkpt lat="45.04204" lon="5.50057">
        <ele>1283.7</ele>
        <time>2021-08-31T13:21:28Z</time>
      </trkpt>
      <trkpt lat="45.04208" lon="5.50053">
        <ele>1284</ele>
        <time>2021-08-31T13:21:29Z</time>
      </trkpt>
      <trkpt lat="45.04211" lon="5.5005">
        <ele>1284.2</ele>
        <time>2021-08-31T13:21:30Z</time>
      </trkpt>
      <trkpt lat="45.04215" lon="5.50046">
        <ele>1284.6</ele>
        <time>2021-08-31T13:21:31Z</time>
      </trkpt>
      <trkpt lat="45.04219" lon="5.50041">
        <ele>1285</ele>
        <time>2021-08-31T13:21:32Z</time>
      </trkpt>
      <trkpt lat="45.04222" lon="5.50037">
        <ele>1285.3</ele>
        <time>2021-08-31T13:21:33Z</time>
      </trkpt>
      <trkpt lat="45.04226" lon="5.50036">
        <ele>1285.5</ele>
        <time>2021-08-31T13:21:34Z</time>
      </trkpt>
      <trkpt lat="45.0423" lon="5.50035">
        <ele>1285.7</ele>
        <time>2021-08-31T13:21:35Z</time>
      </trkpt>
      <trkpt lat="45.04235" lon="5.50032">
        <ele>1285.9</ele>
        <time>2021-08-31T13:21:37Z</time>
      </trkpt>
      <trkpt lat="45.04241" lon="5.50029">
        <ele>1286.1</ele>
        <time>2021-08-31T13:21:38Z</time>
      </trkpt>
      <trkpt lat="45.04245" lon="5.50027">
        <ele>1286.1</ele>
        <time>2021-08-31T13:21:39Z</time>
      </trkpt>
      <trkpt lat="45.0425" lon="5.50024">
        <ele>1286.1</ele>
        <time>2021-08-31T13:21:40Z</time>
      </trkpt>
      <trkpt lat="45.04254" lon="5.50024">
        <ele>1286</ele>
        <time>2021-08-31T13:21:41Z</time>
      </trkpt>
      <trkpt lat="45.04259" lon="5.50021">
        <ele>1285.9</ele>
        <time>2021-08-31T13:21:43Z</time>
      </trkpt>
      <trkpt lat="45.04263" lon="5.50018">
        <ele>1285.8</ele>
        <time>2021-08-31T13:21:44Z</time>
      </trkpt>
      <trkpt lat="45.04265" lon="5.50016">
        <ele>1285.7</ele>
        <time>2021-08-31T13:21:45Z</time>
      </trkpt>
      <trkpt lat="45.0427" lon="5.50014">
        <ele>1285.5</ele>
        <time>2021-08-31T13:21:47Z</time>
      </trkpt>
      <trkpt lat="45.04275" lon="5.50013">
        <ele>1285.2</ele>
        <time>2021-08-31T13:21:49Z</time>
      </trkpt>
      <trkpt lat="45.04278" lon="5.50012">
        <ele>1285.1</ele>
        <time>2021-08-31T13:21:50Z</time>
      </trkpt>
      <trkpt lat="45.04282" lon="5.50011">
        <ele>1284.9</ele>
        <time>2021-08-31T13:21:52Z</time>
      </trkpt>
      <trkpt lat="45.04283" lon="5.50011">
        <ele>1284.8</ele>
        <time>2021-08-31T13:21:53Z</time>
      </trkpt>
      <trkpt lat="45.04283" lon="5.50011">
        <ele>1284.8</ele>
        <time>2021-08-31T13:21:55Z</time>
      </trkpt>
      <trkpt lat="45.04283" lon="5.50011">
        <ele>1284.8</ele>
        <time>2021-08-31T13:21:57Z</time>
      </trkpt>
      <trkpt lat="45.04283" lon="5.50011">
        <ele>1284.8</ele>
        <time>2021-08-31T13:21:59Z</time>
      </trkpt>
      <trkpt lat="45.04294" lon="5.49961">
        <ele>1284.3</ele>
        <time>2021-08-31T13:23:31Z</time>
      </trkpt>
      <trkpt lat="45.04293" lon="5.49958">
        <ele>1284.3</ele>
        <time>2021-08-31T13:23:32Z</time>
      </trkpt>
      <trkpt lat="45.04291" lon="5.49952">
        <ele>1284.3</ele>
        <time>2021-08-31T13:23:34Z</time>
      </trkpt>
      <trkpt lat="45.04291" lon="5.4995">
        <ele>1284.3</ele>
        <time>2021-08-31T13:23:35Z</time>
      </trkpt>
      <trkpt lat="45.04291" lon="5.49947">
        <ele>1284.3</ele>
        <time>2021-08-31T13:23:36Z</time>
      </trkpt>
      <trkpt lat="45.0429" lon="5.49954">
        <ele>1284.3</ele>
        <time>2021-08-31T13:23:38Z</time>
      </trkpt>
      <trkpt lat="45.04289" lon="5.49965">
        <ele>1284.3</ele>
        <time>2021-08-31T13:23:40Z</time>
      </trkpt>
      <trkpt lat="45.04289" lon="5.49975">
        <ele>1284.3</ele>
        <time>2021-08-31T13:23:41Z</time>
      </trkpt>
      <trkpt lat="45.04288" lon="5.49985">
        <ele>1284.3</ele>
        <time>2021-08-31T13:23:42Z</time>
      </trkpt>
      <trkpt lat="45.04287" lon="5.50005">
        <ele>1284.3</ele>
        <time>2021-08-31T13:23:44Z</time>
      </trkpt>
      <trkpt lat="45.04286" lon="5.50017">
        <ele>1284.3</ele>
        <time>2021-08-31T13:23:46Z</time>
      </trkpt>
      <trkpt lat="45.04287" lon="5.50017">
        <ele>1284.3</ele>
        <time>2021-08-31T13:23:48Z</time>
      </trkpt>
      <trkpt lat="45.04288" lon="5.5001">
        <ele>1284.3</ele>
        <time>2021-08-31T13:23:50Z</time>
      </trkpt>
      <trkpt lat="45.04288" lon="5.50011">
        <ele>1284.3</ele>
        <time>2021-08-31T13:23:51Z</time>
      </trkpt>
      <trkpt lat="45.04288" lon="5.50014">
        <ele>1284.3</ele>
        <time>2021-08-31T13:23:53Z</time>
      </trkpt>
      <trkpt lat="45.04288" lon="5.50017">
        <ele>1284.3</ele>
        <time>2021-08-31T13:23:54Z</time>
      </trkpt>
      <trkpt lat="45.04289" lon="5.5002">
        <ele>1284.3</ele>
        <time>2021-08-31T13:23:56Z</time>
      </trkpt>
      <trkpt lat="45.04281" lon="5.49969">
        <ele>1287.6</ele>
        <time>2021-08-31T13:24:14Z</time>
      </trkpt>
      <trkpt lat="45.04279" lon="5.49966">
        <ele>1288</ele>
        <time>2021-08-31T13:24:15Z</time>
      </trkpt>
      <trkpt lat="45.04278" lon="5.49959">
        <ele>1288.5</ele>
        <time>2021-08-31T13:24:16Z</time>
      </trkpt>
      <trkpt lat="45.04276" lon="5.49953">
        <ele>1288.9</ele>
        <time>2021-08-31T13:24:18Z</time>
      </trkpt>
      <trkpt lat="45.04276" lon="5.49951">
        <ele>1289.1</ele>
        <time>2021-08-31T13:24:19Z</time>
      </trkpt>
      <trkpt lat="45.04275" lon="5.49951">
        <ele>1289.6</ele>
        <time>2021-08-31T13:24:20Z</time>
      </trkpt>
      <trkpt lat="45.04275" lon="5.49952">
        <ele>1289.7</ele>
        <time>2021-08-31T13:24:22Z</time>
      </trkpt>
      <trkpt lat="45.04274" lon="5.49952">
        <ele>1289.7</ele>
        <time>2021-08-31T13:24:23Z</time>
      </trkpt>
      <trkpt lat="45.04274" lon="5.49953">
        <ele>1289.7</ele>
        <time>2021-08-31T13:24:25Z</time>
      </trkpt>
      <trkpt lat="45.04274" lon="5.49953">
        <ele>1289.7</ele>
        <time>2021-08-31T13:24:27Z</time>
      </trkpt>
      <trkpt lat="45.04274" lon="5.49953">
        <ele>1289.7</ele>
        <time>2021-08-31T13:24:28Z</time>
      </trkpt>
      <trkpt lat="45.04256" lon="5.49912">
        <ele>1290.2</ele>
        <time>2021-08-31T13:26:56Z</time>
      </trkpt>
      <trkpt lat="45.04253" lon="5.49912">
        <ele>1290.3</ele>
        <time>2021-08-31T13:26:57Z</time>
      </trkpt>
      <trkpt lat="45.04252" lon="5.49912">
        <ele>1290.3</ele>
        <time>2021-08-31T13:26:58Z</time>
      </trkpt>
      <trkpt lat="45.0425" lon="5.49911">
        <ele>1290.4</ele>
        <time>2021-08-31T13:27:00Z</time>
      </trkpt>
      <trkpt lat="45.04248" lon="5.49909">
        <ele>1290.5</ele>
        <time>2021-08-31T13:27:01Z</time>
      </trkpt>
      <trkpt lat="45.04242" lon="5.49903">
        <ele>1290.7</ele>
        <time>2021-08-31T13:27:03Z</time>
      </trkpt>
      <trkpt lat="45.0424" lon="5.49902">
        <ele>1290.8</ele>
        <time>2021-08-31T13:27:04Z</time>
      </trkpt>
      <trkpt lat="45.04237" lon="5.499">
        <ele>1291</ele>
        <time>2021-08-31T13:27:06Z</time>
      </trkpt>
      <trkpt lat="45.04234" lon="5.49898">
        <ele>1291.1</ele>
        <time>2021-08-31T13:27:08Z</time>
      </trkpt>
      <trkpt lat="45.04233" lon="5.49898">
        <ele>1291.2</ele>
        <time>2021-08-31T13:27:09Z</time>
      </trkpt>
      <trkpt lat="45.04232" lon="5.49899">
        <ele>1291.2</ele>
        <time>2021-08-31T13:27:10Z</time>
      </trkpt>
      <trkpt lat="45.04231" lon="5.499">
        <ele>1291.3</ele>
        <time>2021-08-31T13:27:12Z</time>
      </trkpt>
      <trkpt lat="45.04231" lon="5.499">
        <ele>1291.3</ele>
        <time>2021-08-31T13:27:13Z</time>
      </trkpt>
      <trkpt lat="45.04231" lon="5.499">
        <ele>1291.3</ele>
        <time>2021-08-31T13:27:15Z</time>
      </trkpt>
      <trkpt lat="45.0423" lon="5.49901">
        <ele>1291.3</ele>
        <time>2021-08-31T13:27:16Z</time>
      </trkpt>
      <trkpt lat="45.0423" lon="5.49901">
        <ele>1291.3</ele>
        <time>2021-08-31T13:27:18Z</time>
      </trkpt>
      <trkpt lat="45.0423" lon="5.49901">
        <ele>1291.3</ele>
        <time>2021-08-31T13:27:20Z</time>
      </trkpt>
      <trkpt lat="45.04242" lon="5.49891">
        <ele>1292</ele>
        <time>2021-08-31T13:27:31Z</time>
      </trkpt>
      <trkpt lat="45.0425" lon="5.49884">
        <ele>1292.5</ele>
        <time>2021-08-31T13:27:33Z</time>
      </trkpt>
      <trkpt lat="45.04255" lon="5.49881">
        <ele>1292.8</ele>
        <time>2021-08-31T13:27:34Z</time>
      </trkpt>
      <trkpt lat="45.04261" lon="5.4988">
        <ele>1293.1</ele>
        <time>2021-08-31T13:27:36Z</time>
      </trkpt>
      <trkpt lat="45.04262" lon="5.49881">
        <ele>1293.2</ele>
        <time>2021-08-31T13:27:37Z</time>
      </trkpt>
      <trkpt lat="45.04262" lon="5.49881">
        <ele>1293.2</ele>
        <time>2021-08-31T13:27:38Z</time>
      </trkpt>
      <trkpt lat="45.04263" lon="5.49881">
        <ele>1293.2</ele>
        <time>2021-08-31T13:27:39Z</time>
      </trkpt>
      <trkpt lat="45.04263" lon="5.49881">
        <ele>1293.2</ele>
        <time>2021-08-31T13:27:40Z</time>
      </trkpt>
      <trkpt lat="45.04263" lon="5.49881">
        <ele>1293.3</ele>
        <time>2021-08-31T13:27:41Z</time>
      </trkpt>
      <trkpt lat="45.04264" lon="5.49878">
        <ele>1293.4</ele>
        <time>2021-08-31T13:27:43Z</time>
      </trkpt>
      <trkpt lat="45.04265" lon="5.49875">
        <ele>1293.6</ele>
        <time>2021-08-31T13:27:44Z</time>
      </trkpt>
      <trkpt lat="45.04268" lon="5.49869">
        <ele>1293.9</ele>
        <time>2021-08-31T13:27:46Z</time>
      </trkpt>
      <trkpt lat="45.0427" lon="5.49864">
        <ele>1294.2</ele>
        <time>2021-08-31T13:27:47Z</time>
      </trkpt>
      <trkpt lat="45.04272" lon="5.4986">
        <ele>1294.4</ele>
        <time>2021-08-31T13:27:48Z</time>
      </trkpt>
      <trkpt lat="45.04275" lon="5.49856">
        <ele>1294.7</ele>
        <time>2021-08-31T13:27:50Z</time>
      </trkpt>
      <trkpt lat="45.04277" lon="5.49851">
        <ele>1295</ele>
        <time>2021-08-31T13:27:52Z</time>
      </trkpt>
      <trkpt lat="45.04279" lon="5.49848">
        <ele>1295.2</ele>
        <time>2021-08-31T13:27:53Z</time>
      </trkpt>
      <trkpt lat="45.04283" lon="5.49846">
        <ele>1295.5</ele>
        <time>2021-08-31T13:27:54Z</time>
      </trkpt>
      <trkpt lat="45.04286" lon="5.49843">
        <ele>1295.8</ele>
        <time>2021-08-31T13:27:56Z</time>
      </trkpt>
      <trkpt lat="45.04287" lon="5.49841">
        <ele>1295.9</ele>
        <time>2021-08-31T13:27:57Z</time>
      </trkpt>
      <trkpt lat="45.04288" lon="5.4984">
        <ele>1296</ele>
        <time>2021-08-31T13:27:58Z</time>
      </trkpt>
      <trkpt lat="45.04289" lon="5.49838">
        <ele>1296.1</ele>
        <time>2021-08-31T13:27:59Z</time>
      </trkpt>
      <trkpt lat="45.0429" lon="5.49836">
        <ele>1296.3</ele>
        <time>2021-08-31T13:28:00Z</time>
      </trkpt>
      <trkpt lat="45.04292" lon="5.49831">
        <ele>1296.5</ele>
        <time>2021-08-31T13:28:02Z</time>
      </trkpt>
      <trkpt lat="45.04294" lon="5.49831">
        <ele>1296.6</ele>
        <time>2021-08-31T13:28:04Z</time>
      </trkpt>
      <trkpt lat="45.04294" lon="5.49831">
        <ele>1296.7</ele>
        <time>2021-08-31T13:28:05Z</time>
      </trkpt>
      <trkpt lat="45.04294" lon="5.49831">
        <ele>1296.7</ele>
        <time>2021-08-31T13:28:07Z</time>
      </trkpt>
      <trkpt lat="45.04295" lon="5.49828">
        <ele>1296.8</ele>
        <time>2021-08-31T13:28:08Z</time>
      </trkpt>
      <trkpt lat="45.04292" lon="5.49825">
        <ele>1297.1</ele>
        <time>2021-08-31T13:28:10Z</time>
      </trkpt>
      <trkpt lat="45.0429" lon="5.49824">
        <ele>1297.2</ele>
        <time>2021-08-31T13:28:12Z</time>
      </trkpt>
      <trkpt lat="45.04289" lon="5.49818">
        <ele>1297.5</ele>
        <time>2021-08-31T13:28:14Z</time>
      </trkpt>
      <trkpt lat="45.04289" lon="5.49816">
        <ele>1297.6</ele>
        <time>2021-08-31T13:28:15Z</time>
      </trkpt>
      <trkpt lat="45.0429" lon="5.49815">
        <ele>1297.7</ele>
        <time>2021-08-31T13:28:16Z</time>
      </trkpt>
      <trkpt lat="45.04289" lon="5.49815">
        <ele>1297.7</ele>
        <time>2021-08-31T13:28:17Z</time>
      </trkpt>
      <trkpt lat="45.04287" lon="5.49818">
        <ele>1297.9</ele>
        <time>2021-08-31T13:28:19Z</time>
      </trkpt>
      <trkpt lat="45.04286" lon="5.49818">
        <ele>1298</ele>
        <time>2021-08-31T13:28:20Z</time>
      </trkpt>
      <trkpt lat="45.04286" lon="5.49817">
        <ele>1298</ele>
        <time>2021-08-31T13:28:22Z</time>
      </trkpt>
      <trkpt lat="45.04286" lon="5.49815">
        <ele>1298.1</ele>
        <time>2021-08-31T13:28:23Z</time>
      </trkpt>
      <trkpt lat="45.04286" lon="5.49814">
        <ele>1298.2</ele>
        <time>2021-08-31T13:28:24Z</time>
      </trkpt>
      <trkpt lat="45.04285" lon="5.49812">
        <ele>1298.3</ele>
        <time>2021-08-31T13:28:26Z</time>
      </trkpt>
      <trkpt lat="45.04288" lon="5.49793">
        <ele>1299.2</ele>
        <time>2021-08-31T13:28:40Z</time>
      </trkpt>
      <trkpt lat="45.0429" lon="5.49789">
        <ele>1299.5</ele>
        <time>2021-08-31T13:28:42Z</time>
      </trkpt>
      <trkpt lat="45.04291" lon="5.49785">
        <ele>1299.7</ele>
        <time>2021-08-31T13:28:43Z</time>
      </trkpt>
      <trkpt lat="45.04294" lon="5.49779">
        <ele>1300</ele>
        <time>2021-08-31T13:28:44Z</time>
      </trkpt>
      <trkpt lat="45.04296" lon="5.49776">
        <ele>1300.2</ele>
        <time>2021-08-31T13:28:45Z</time>
      </trkpt>
      <trkpt lat="45.04299" lon="5.49771">
        <ele>1300.5</ele>
        <time>2021-08-31T13:28:47Z</time>
      </trkpt>
      <trkpt lat="45.043" lon="5.49768">
        <ele>1300.7</ele>
        <time>2021-08-31T13:28:48Z</time>
      </trkpt>
      <trkpt lat="45.043" lon="5.49766">
        <ele>1300.8</ele>
        <time>2021-08-31T13:28:50Z</time>
      </trkpt>
      <trkpt lat="45.04299" lon="5.49766">
        <ele>1300.9</ele>
        <time>2021-08-31T13:28:51Z</time>
      </trkpt>
      <trkpt lat="45.04297" lon="5.49766">
        <ele>1301</ele>
        <time>2021-08-31T13:28:53Z</time>
      </trkpt>
      <trkpt lat="45.04296" lon="5.49766">
        <ele>1301.1</ele>
        <time>2021-08-31T13:28:54Z</time>
      </trkpt>
      <trkpt lat="45.04294" lon="5.49766">
        <ele>1301.2</ele>
        <time>2021-08-31T13:28:56Z</time>
      </trkpt>
      <trkpt lat="45.04293" lon="5.49766">
        <ele>1301.3</ele>
        <time>2021-08-31T13:28:57Z</time>
      </trkpt>
      <trkpt lat="45.04292" lon="5.49766">
        <ele>1301.3</ele>
        <time>2021-08-31T13:28:58Z</time>
      </trkpt>
      <trkpt lat="45.04291" lon="5.49766">
        <ele>1301.4</ele>
        <time>2021-08-31T13:28:59Z</time>
      </trkpt>
      <trkpt lat="45.0429" lon="5.49766">
        <ele>1301.5</ele>
        <time>2021-08-31T13:29:00Z</time>
      </trkpt>
      <trkpt lat="45.04277" lon="5.49753">
        <ele>1302.6</ele>
        <time>2021-08-31T13:29:16Z</time>
      </trkpt>
      <trkpt lat="45.04275" lon="5.4975">
        <ele>1302.9</ele>
        <time>2021-08-31T13:29:17Z</time>
      </trkpt>
      <trkpt lat="45.04274" lon="5.49743">
        <ele>1303.2</ele>
        <time>2021-08-31T13:29:19Z</time>
      </trkpt>
      <trkpt lat="45.04274" lon="5.49741">
        <ele>1303.4</ele>
        <time>2021-08-31T13:29:20Z</time>
      </trkpt>
      <trkpt lat="45.04274" lon="5.49738">
        <ele>1303.5</ele>
        <time>2021-08-31T13:29:21Z</time>
      </trkpt>
      <trkpt lat="45.04275" lon="5.49735">
        <ele>1303.7</ele>
        <time>2021-08-31T13:29:22Z</time>
      </trkpt>
      <trkpt lat="45.04274" lon="5.49736">
        <ele>1303.7</ele>
        <time>2021-08-31T13:29:23Z</time>
      </trkpt>
      <trkpt lat="45.04273" lon="5.49735">
        <ele>1303.8</ele>
        <time>2021-08-31T13:29:24Z</time>
      </trkpt>
      <trkpt lat="45.04273" lon="5.49733">
        <ele>1303.9</ele>
        <time>2021-08-31T13:29:25Z</time>
      </trkpt>
      <trkpt lat="45.04272" lon="5.49731">
        <ele>1304</ele>
        <time>2021-08-31T13:29:26Z</time>
      </trkpt>
      <trkpt lat="45.0427" lon="5.49729">
        <ele>1304.2</ele>
        <time>2021-08-31T13:29:28Z</time>
      </trkpt>
      <trkpt lat="45.04269" lon="5.49727">
        <ele>1304.4</ele>
        <time>2021-08-31T13:29:30Z</time>
      </trkpt>
      <trkpt lat="45.04266" lon="5.49723">
        <ele>1304.7</ele>
        <time>2021-08-31T13:29:32Z</time>
      </trkpt>
      <trkpt lat="45.04264" lon="5.4972">
        <ele>1305</ele>
        <time>2021-08-31T13:29:33Z</time>
      </trkpt>
      <trkpt lat="45.04264" lon="5.49718">
        <ele>1305.1</ele>
        <time>2021-08-31T13:29:34Z</time>
      </trkpt>
      <trkpt lat="45.04263" lon="5.49716">
        <ele>1305.2</ele>
        <time>2021-08-31T13:29:35Z</time>
      </trkpt>
      <trkpt lat="45.04261" lon="5.49715">
        <ele>1305.4</ele>
        <time>2021-08-31T13:29:36Z</time>
      </trkpt>
      <trkpt lat="45.04259" lon="5.49713">
        <ele>1305.6</ele>
        <time>2021-08-31T13:29:37Z</time>
      </trkpt>
      <trkpt lat="45.04256" lon="5.49711">
        <ele>1305.8</ele>
        <time>2021-08-31T13:29:39Z</time>
      </trkpt>
      <trkpt lat="45.04254" lon="5.49711">
        <ele>1306</ele>
        <time>2021-08-31T13:29:40Z</time>
      </trkpt>
      <trkpt lat="45.04253" lon="5.49712">
        <ele>1306.2</ele>
        <time>2021-08-31T13:29:42Z</time>
      </trkpt>
      <trkpt lat="45.04252" lon="5.49712">
        <ele>1306.3</ele>
        <time>2021-08-31T13:29:43Z</time>
      </trkpt>
      <trkpt lat="45.04251" lon="5.49713">
        <ele>1306.3</ele>
        <time>2021-08-31T13:29:44Z</time>
      </trkpt>
      <trkpt lat="45.0425" lon="5.49713">
        <ele>1306.4</ele>
        <time>2021-08-31T13:29:45Z</time>
      </trkpt>
      <trkpt lat="45.0425" lon="5.49713">
        <ele>1306.4</ele>
        <time>2021-08-31T13:29:46Z</time>
      </trkpt>
      <trkpt lat="45.04249" lon="5.49713">
        <ele>1306.5</ele>
        <time>2021-08-31T13:29:48Z</time>
      </trkpt>
      <trkpt lat="45.04246" lon="5.49714">
        <ele>1306.8</ele>
        <time>2021-08-31T13:29:50Z</time>
      </trkpt>
      <trkpt lat="45.04187" lon="5.497">
        <ele>1312</ele>
        <time>2021-08-31T13:30:43Z</time>
      </trkpt>
      <trkpt lat="45.04184" lon="5.49698">
        <ele>1312.3</ele>
        <time>2021-08-31T13:30:44Z</time>
      </trkpt>
      <trkpt lat="45.04181" lon="5.49696">
        <ele>1312.6</ele>
        <time>2021-08-31T13:30:46Z</time>
      </trkpt>
      <trkpt lat="45.04179" lon="5.49695">
        <ele>1312.8</ele>
        <time>2021-08-31T13:30:47Z</time>
      </trkpt>
      <trkpt lat="45.04177" lon="5.49694">
        <ele>1312.9</ele>
        <time>2021-08-31T13:30:49Z</time>
      </trkpt>
      <trkpt lat="45.04177" lon="5.49694">
        <ele>1313</ele>
        <time>2021-08-31T13:30:50Z</time>
      </trkpt>
      <trkpt lat="45.04176" lon="5.49694">
        <ele>1313.1</ele>
        <time>2021-08-31T13:30:51Z</time>
      </trkpt>
      <trkpt lat="45.04175" lon="5.49694">
        <ele>1313.1</ele>
        <time>2021-08-31T13:30:53Z</time>
      </trkpt>
      <trkpt lat="45.04175" lon="5.49695">
        <ele>1313.2</ele>
        <time>2021-08-31T13:30:54Z</time>
      </trkpt>
      <trkpt lat="45.03953" lon="5.49547">
        <ele>1365.6</ele>
        <time>2021-08-31T13:39:02Z</time>
      </trkpt>
      <trkpt lat="45.03952" lon="5.49545">
        <ele>1366.3</ele>
        <time>2021-08-31T13:39:04Z</time>
      </trkpt>
      <trkpt lat="45.03952" lon="5.4954">
        <ele>1367.6</ele>
        <time>2021-08-31T13:39:06Z</time>
      </trkpt>
      <trkpt lat="45.03954" lon="5.49538">
        <ele>1368.3</ele>
        <time>2021-08-31T13:39:08Z</time>
      </trkpt>
      <trkpt lat="45.03954" lon="5.49538">
        <ele>1368.4</ele>
        <time>2021-08-31T13:39:10Z</time>
      </trkpt>
      <trkpt lat="45.03954" lon="5.49538">
        <ele>1368.5</ele>
        <time>2021-08-31T13:39:12Z</time>
      </trkpt>
      <trkpt lat="45.03955" lon="5.49538">
        <ele>1368.5</ele>
        <time>2021-08-31T13:39:13Z</time>
      </trkpt>
      <trkpt lat="45.03955" lon="5.49538">
        <ele>1368.6</ele>
        <time>2021-08-31T13:39:15Z</time>
      </trkpt>
      <trkpt lat="45.03955" lon="5.49538">
        <ele>1368.6</ele>
        <time>2021-08-31T13:39:17Z</time>
      </trkpt>
      <trkpt lat="45.03955" lon="5.49538">
        <ele>1368.7</ele>
        <time>2021-08-31T13:39:18Z</time>
      </trkpt>
      <trkpt lat="45.03955" lon="5.49538">
        <ele>1368.8</ele>
        <time>2021-08-31T13:39:20Z</time>
      </trkpt>
      <trkpt lat="45.03955" lon="5.49538">
        <ele>1368.8</ele>
        <time>2021-08-31T13:39:21Z</time>
      </trkpt>
      <trkpt lat="45.03956" lon="5.49538">
        <ele>1368.9</ele>
        <time>2021-08-31T13:39:22Z</time>
      </trkpt>
      <trkpt lat="45.03956" lon="5.49538">
        <ele>1369</ele>
        <time>2021-08-31T13:39:24Z</time>
      </trkpt>
      <trkpt lat="45.03956" lon="5.49538">
        <ele>1369</ele>
        <time>2021-08-31T13:39:25Z</time>
      </trkpt>
      <trkpt lat="45.03956" lon="5.49539">
        <ele>1369.1</ele>
        <time>2021-08-31T13:39:26Z</time>
      </trkpt>
      <trkpt lat="45.03956" lon="5.49539">
        <ele>1369.2</ele>
        <time>2021-08-31T13:39:27Z</time>
      </trkpt>
      <trkpt lat="45.03958" lon="5.49539">
        <ele>1369.7</ele>
        <time>2021-08-31T13:39:29Z</time>
      </trkpt>
      <trkpt lat="45.03959" lon="5.49539">
        <ele>1370.1</ele>
        <time>2021-08-31T13:39:30Z</time>
      </trkpt>
      <trkpt lat="45.0396" lon="5.49538">
        <ele>1370.5</ele>
        <time>2021-08-31T13:39:31Z</time>
      </trkpt>
      <trkpt lat="45.03961" lon="5.49538">
        <ele>1370.9</ele>
        <time>2021-08-31T13:39:32Z</time>
      </trkpt>
      <trkpt lat="45.03962" lon="5.49537">
        <ele>1371.3</ele>
        <time>2021-08-31T13:39:34Z</time>
      </trkpt>
      <trkpt lat="45.03963" lon="5.49537">
        <ele>1371.5</ele>
        <time>2021-08-31T13:39:35Z</time>
      </trkpt>
      <trkpt lat="45.03964" lon="5.49536">
        <ele>1372</ele>
        <time>2021-08-31T13:39:37Z</time>
      </trkpt>
      <trkpt lat="45.03965" lon="5.49536">
        <ele>1372.3</ele>
        <time>2021-08-31T13:39:38Z</time>
      </trkpt>
      <trkpt lat="45.03971" lon="5.49534">
        <ele>1374.4</ele>
        <time>2021-08-31T13:39:40Z</time>
      </trkpt>
      <trkpt lat="45.03976" lon="5.49532">
        <ele>1375.8</ele>
        <time>2021-08-31T13:39:41Z</time>
      </trkpt>
      <trkpt lat="45.03985" lon="5.49529">
        <ele>1378.7</ele>
        <time>2021-08-31T13:39:43Z</time>
      </trkpt>
      <trkpt lat="45.03988" lon="5.49531">
        <ele>1379.8</ele>
        <time>2021-08-31T13:39:44Z</time>
      </trkpt>
      <trkpt lat="45.03991" lon="5.49526">
        <ele>1381.2</ele>
        <time>2021-08-31T13:39:46Z</time>
      </trkpt>
      <trkpt lat="45.03992" lon="5.49523">
        <ele>1381.9</ele>
        <time>2021-08-31T13:39:48Z</time>
      </trkpt>
      <trkpt lat="45.03992" lon="5.49522">
        <ele>1382.2</ele>
        <time>2021-08-31T13:39:49Z</time>
      </trkpt>
      <trkpt lat="45.03992" lon="5.49522">
        <ele>1382.4</ele>
        <time>2021-08-31T13:39:50Z</time>
      </trkpt>
      <trkpt lat="45.03989" lon="5.49519">
        <ele>1383.1</ele>
        <time>2021-08-31T13:39:52Z</time>
      </trkpt>
      <trkpt lat="45.03994" lon="5.49513">
        <ele>1384.6</ele>
        <time>2021-08-31T13:39:53Z</time>
      </trkpt>
      <trkpt lat="45.03999" lon="5.49508">
        <ele>1386.2</ele>
        <time>2021-08-31T13:39:55Z</time>
      </trkpt>
      <trkpt lat="45.04005" lon="5.49503">
        <ele>1387.8</ele>
        <time>2021-08-31T13:39:56Z</time>
      </trkpt>
      <trkpt lat="45.0401" lon="5.49498">
        <ele>1389.5</ele>
        <time>2021-08-31T13:39:58Z</time>
      </trkpt>
      <trkpt lat="45.04016" lon="5.49494">
        <ele>1391.2</ele>
        <time>2021-08-31T13:39:59Z</time>
      </trkpt>
      <trkpt lat="45.04021" lon="5.49489">
        <ele>1392.8</ele>
        <time>2021-08-31T13:40:01Z</time>
      </trkpt>
      <trkpt lat="45.04027" lon="5.49484">
        <ele>1394</ele>
        <time>2021-08-31T13:40:03Z</time>
      </trkpt>
      <trkpt lat="45.04032" lon="5.49479">
        <ele>1395</ele>
        <time>2021-08-31T13:42:20Z</time>
      </trkpt>
      <trkpt lat="45.04038" lon="5.49474">
        <ele>1396.1</ele>
        <time>2021-08-31T13:42:21Z</time>
      </trkpt>
      <trkpt lat="45.04043" lon="5.49469">
        <ele>1397.3</ele>
        <time>2021-08-31T13:42:22Z</time>
      </trkpt>
      <trkpt lat="45.04044" lon="5.49468">
        <ele>1397.4</ele>
        <time>2021-08-31T13:42:23Z</time>
      </trkpt>
      <trkpt lat="45.04044" lon="5.49468">
        <ele>1397.6</ele>
        <time>2021-08-31T13:42:24Z</time>
      </trkpt>
      <trkpt lat="45.04045" lon="5.49466">
        <ele>1397.8</ele>
        <time>2021-08-31T13:42:26Z</time>
      </trkpt>
      <trkpt lat="45.04046" lon="5.49466">
        <ele>1398</ele>
        <time>2021-08-31T13:42:27Z</time>
      </trkpt>
      <trkpt lat="45.04048" lon="5.49465">
        <ele>1398.5</ele>
        <time>2021-08-31T13:42:29Z</time>
      </trkpt>
      <trkpt lat="45.0405" lon="5.49463">
        <ele>1398.9</ele>
        <time>2021-08-31T13:42:31Z</time>
      </trkpt>
      <trkpt lat="45.0405" lon="5.49462">
        <ele>1399.1</ele>
        <time>2021-08-31T13:42:32Z</time>
      </trkpt>
      <trkpt lat="45.04051" lon="5.49462">
        <ele>1399.3</ele>
        <time>2021-08-31T13:42:33Z</time>
      </trkpt>
      <trkpt lat="45.04053" lon="5.49459">
        <ele>1399.9</ele>
        <time>2021-08-31T13:42:35Z</time>
      </trkpt>
      <trkpt lat="45.04053" lon="5.49458">
        <ele>1400.1</ele>
        <time>2021-08-31T13:42:36Z</time>
      </trkpt>
      <trkpt lat="45.04054" lon="5.49457">
        <ele>1400.3</ele>
        <time>2021-08-31T13:42:38Z</time>
      </trkpt>
      <trkpt lat="45.04055" lon="5.49456">
        <ele>1400.6</ele>
        <time>2021-08-31T13:42:40Z</time>
      </trkpt>
      <trkpt lat="45.04056" lon="5.49455">
        <ele>1400.8</ele>
        <time>2021-08-31T13:42:41Z</time>
      </trkpt>
      <trkpt lat="45.04057" lon="5.49452">
        <ele>1401.4</ele>
        <time>2021-08-31T13:42:42Z</time>
      </trkpt>
      <trkpt lat="45.04058" lon="5.4945">
        <ele>1401.8</ele>
        <time>2021-08-31T13:42:43Z</time>
      </trkpt>
      <trkpt lat="45.04059" lon="5.49448">
        <ele>1402.1</ele>
        <time>2021-08-31T13:42:44Z</time>
      </trkpt>
      <trkpt lat="45.04061" lon="5.49444">
        <ele>1402.9</ele>
        <time>2021-08-31T13:42:46Z</time>
      </trkpt>
      <trkpt lat="45.04061" lon="5.49443">
        <ele>1403</ele>
        <time>2021-08-31T13:42:47Z</time>
      </trkpt>
      <trkpt lat="45.04061" lon="5.49442">
        <ele>1403.1</ele>
        <time>2021-08-31T13:42:49Z</time>
      </trkpt>
      <trkpt lat="45.04061" lon="5.49442">
        <ele>1403.1</ele>
        <time>2021-08-31T13:42:50Z</time>
      </trkpt>
      <trkpt lat="45.04061" lon="5.49442">
        <ele>1403.1</ele>
        <time>2021-08-31T13:42:52Z</time>
      </trkpt>
      <trkpt lat="45.04061" lon="5.49442">
        <ele>1403.1</ele>
        <time>2021-08-31T13:42:53Z</time>
      </trkpt>
      <trkpt lat="45.04061" lon="5.49442">
        <ele>1403.1</ele>
        <time>2021-08-31T13:42:54Z</time>
      </trkpt>
      <trkpt lat="45.04061" lon="5.49445">
        <ele>1403.5</ele>
        <time>2021-08-31T13:42:56Z</time>
      </trkpt>
      <trkpt lat="45.04061" lon="5.49446">
        <ele>1403.7</ele>
        <time>2021-08-31T13:42:58Z</time>
      </trkpt>
      <trkpt lat="45.04061" lon="5.49446">
        <ele>1403.8</ele>
        <time>2021-08-31T13:42:59Z</time>
      </trkpt>
      <trkpt lat="45.04061" lon="5.49447">
        <ele>1403.8</ele>
        <time>2021-08-31T13:43:01Z</time>
      </trkpt>
      <trkpt lat="45.04062" lon="5.49447">
        <ele>1403.9</ele>
        <time>2021-08-31T13:43:02Z</time>
      </trkpt>
      <trkpt lat="45.04062" lon="5.49447">
        <ele>1404</ele>
        <time>2021-08-31T13:43:03Z</time>
      </trkpt>
      <trkpt lat="45.04063" lon="5.49446">
        <ele>1404.2</ele>
        <time>2021-08-31T13:43:05Z</time>
      </trkpt>
      <trkpt lat="45.04064" lon="5.49445">
        <ele>1404.3</ele>
        <time>2021-08-31T13:43:06Z</time>
      </trkpt>
      <trkpt lat="45.04064" lon="5.49444">
        <ele>1404.5</ele>
        <time>2021-08-31T13:43:07Z</time>
      </trkpt>
      <trkpt lat="45.04064" lon="5.49443">
        <ele>1404.6</ele>
        <time>2021-08-31T13:43:08Z</time>
      </trkpt>
      <trkpt lat="45.04064" lon="5.49442">
        <ele>1404.8</ele>
        <time>2021-08-31T13:43:10Z</time>
      </trkpt>
      <trkpt lat="45.04064" lon="5.49441">
        <ele>1405</ele>
        <time>2021-08-31T13:43:11Z</time>
      </trkpt>
      <trkpt lat="45.04064" lon="5.4944">
        <ele>1405.1</ele>
        <time>2021-08-31T13:43:13Z</time>
      </trkpt>
      <trkpt lat="45.04064" lon="5.49439">
        <ele>1405.2</ele>
        <time>2021-08-31T13:43:14Z</time>
      </trkpt>
      <trkpt lat="45.04065" lon="5.49439">
        <ele>1405.3</ele>
        <time>2021-08-31T13:43:16Z</time>
      </trkpt>
      <trkpt lat="45.04065" lon="5.49439">
        <ele>1405.3</ele>
        <time>2021-08-31T13:43:17Z</time>
      </trkpt>
      <trkpt lat="45.04065" lon="5.49438">
        <ele>1405.4</ele>
        <time>2021-08-31T13:43:18Z</time>
      </trkpt>
      <trkpt lat="45.04065" lon="5.49438">
        <ele>1405.4</ele>
        <time>2021-08-31T13:43:20Z</time>
      </trkpt>
      <trkpt lat="45.04065" lon="5.49438">
        <ele>1405.4</ele>
        <time>2021-08-31T13:43:21Z</time>
      </trkpt>
      <trkpt lat="45.04065" lon="5.49438">
        <ele>1405.5</ele>
        <time>2021-08-31T13:43:22Z</time>
      </trkpt>
      <trkpt lat="45.04065" lon="5.49438">
        <ele>1405.5</ele>
        <time>2021-08-31T13:43:24Z</time>
      </trkpt>
      <trkpt lat="45.04065" lon="5.49438">
        <ele>1405.5</ele>
        <time>2021-08-31T13:43:26Z</time>
      </trkpt>
      <trkpt lat="45.04065" lon="5.49437">
        <ele>1405.5</ele>
        <time>2021-08-31T13:43:27Z</time>
      </trkpt>
      <trkpt lat="45.04066" lon="5.49439">
        <ele>1405.9</ele>
        <time>2021-08-31T13:43:29Z</time>
      </trkpt>
      <trkpt lat="45.04067" lon="5.4944">
        <ele>1406.2</ele>
        <time>2021-08-31T13:43:30Z</time>
      </trkpt>
      <trkpt lat="45.04068" lon="5.49442">
        <ele>1406.6</ele>
        <time>2021-08-31T13:43:32Z</time>
      </trkpt>
      <trkpt lat="45.04069" lon="5.49443">
        <ele>1406.9</ele>
        <time>2021-08-31T13:43:33Z</time>
      </trkpt>
      <trkpt lat="45.04069" lon="5.49444">
        <ele>1407.1</ele>
        <time>2021-08-31T13:43:35Z</time>
      </trkpt>
      <trkpt lat="45.0407" lon="5.49444">
        <ele>1407.2</ele>
        <time>2021-08-31T13:43:37Z</time>
      </trkpt>
      <trkpt lat="45.0407" lon="5.49444">
        <ele>1407.3</ele>
        <time>2021-08-31T13:43:38Z</time>
      </trkpt>
      <trkpt lat="45.04071" lon="5.49445">
        <ele>1407.5</ele>
        <time>2021-08-31T13:43:39Z</time>
      </trkpt>
      <trkpt lat="45.04071" lon="5.49445">
        <ele>1407.6</ele>
        <time>2021-08-31T13:43:41Z</time>
      </trkpt>
      <trkpt lat="45.04072" lon="5.49445">
        <ele>1407.8</ele>
        <time>2021-08-31T13:43:42Z</time>
      </trkpt>
      <trkpt lat="45.04072" lon="5.49445">
        <ele>1408</ele>
        <time>2021-08-31T13:43:44Z</time>
      </trkpt>
      <trkpt lat="45.04073" lon="5.49446">
        <ele>1408.2</ele>
        <time>2021-08-31T13:43:45Z</time>
      </trkpt>
      <trkpt lat="45.04073" lon="5.49446">
        <ele>1408.3</ele>
        <time>2021-08-31T13:43:47Z</time>
      </trkpt>
      <trkpt lat="45.04074" lon="5.49446">
        <ele>1408.5</ele>
        <time>2021-08-31T13:43:48Z</time>
      </trkpt>
      <trkpt lat="45.04076" lon="5.49444">
        <ele>1409.5</ele>
        <time>2021-08-31T13:43:50Z</time>
      </trkpt>
      <trkpt lat="45.04077" lon="5.49444">
        <ele>1410.3</ele>
        <time>2021-08-31T13:43:51Z</time>
      </trkpt>
      <trkpt lat="45.04078" lon="5.49443">
        <ele>1410.2</ele>
        <time>2021-08-31T13:43:52Z</time>
      </trkpt>
      <trkpt lat="45.04079" lon="5.49441">
        <ele>1410.1</ele>
        <time>2021-08-31T13:43:53Z</time>
      </trkpt>
      <trkpt lat="45.04081" lon="5.49439">
        <ele>1409.9</ele>
        <time>2021-08-31T13:43:55Z</time>
      </trkpt>
      <trkpt lat="45.0408" lon="5.49439">
        <ele>1409.9</ele>
        <time>2021-08-31T13:43:56Z</time>
      </trkpt>
      <trkpt lat="45.0408" lon="5.49438">
        <ele>1409.8</ele>
        <time>2021-08-31T13:43:58Z</time>
      </trkpt>
      <trkpt lat="45.0408" lon="5.49438">
        <ele>1409.8</ele>
        <time>2021-08-31T13:43:59Z</time>
      </trkpt>
      <trkpt lat="45.0408" lon="5.49438">
        <ele>1409.8</ele>
        <time>2021-08-31T13:44:01Z</time>
      </trkpt>
      <trkpt lat="45.0408" lon="5.49438">
        <ele>1409.8</ele>
        <time>2021-08-31T13:44:02Z</time>
      </trkpt>
      <trkpt lat="45.0408" lon="5.49438">
        <ele>1409.8</ele>
        <time>2021-08-31T13:44:04Z</time>
      </trkpt>
      <trkpt lat="45.0408" lon="5.49438">
        <ele>1409.8</ele>
        <time>2021-08-31T13:44:05Z</time>
      </trkpt>
      <trkpt lat="45.04088" lon="5.49371">
        <ele>1405.2</ele>
        <time>2021-08-31T13:46:32Z</time>
      </trkpt>
      <trkpt lat="45.04093" lon="5.49357">
        <ele>1406.7</ele>
        <time>2021-08-31T13:46:34Z</time>
      </trkpt>
      <trkpt lat="45.04095" lon="5.49351">
        <ele>1407.4</ele>
        <time>2021-08-31T13:46:35Z</time>
      </trkpt>
      <trkpt lat="45.04101" lon="5.49337">
        <ele>1408.8</ele>
        <time>2021-08-31T13:46:37Z</time>
      </trkpt>
      <trkpt lat="45.04103" lon="5.4933">
        <ele>1409.5</ele>
        <time>2021-08-31T13:46:38Z</time>
      </trkpt>
      <trkpt lat="45.04105" lon="5.49324">
        <ele>1409.9</ele>
        <time>2021-08-31T13:46:39Z</time>
      </trkpt>
      <trkpt lat="45.04114" lon="5.49294">
        <ele>1412.1</ele>
        <time>2021-08-31T13:46:40Z</time>
      </trkpt>
      <trkpt lat="45.04115" lon="5.49291">
        <ele>1412.3</ele>
        <time>2021-08-31T13:46:41Z</time>
      </trkpt>
      <trkpt lat="45.04115" lon="5.49285">
        <ele>1412.4</ele>
        <time>2021-08-31T13:46:43Z</time>
      </trkpt>
      <trkpt lat="45.04115" lon="5.49282">
        <ele>1412.4</ele>
        <time>2021-08-31T13:46:44Z</time>
      </trkpt>
      <trkpt lat="45.04115" lon="5.4928">
        <ele>1412.4</ele>
        <time>2021-08-31T13:46:45Z</time>
      </trkpt>
      <trkpt lat="45.04115" lon="5.49279">
        <ele>1412.4</ele>
        <time>2021-08-31T13:46:46Z</time>
      </trkpt>
      <trkpt lat="45.04115" lon="5.49277">
        <ele>1412.5</ele>
        <time>2021-08-31T13:46:47Z</time>
      </trkpt>
      <trkpt lat="45.04114" lon="5.49271">
        <ele>1412.5</ele>
        <time>2021-08-31T13:46:49Z</time>
      </trkpt>
      <trkpt lat="45.04114" lon="5.49268">
        <ele>1412.6</ele>
        <time>2021-08-31T13:46:51Z</time>
      </trkpt>
      <trkpt lat="45.04063" lon="5.49365">
        <ele>1400.9</ele>
        <time>2021-08-31T13:51:15Z</time>
      </trkpt>
      <trkpt lat="45.04061" lon="5.49372">
        <ele>1400.7</ele>
        <time>2021-08-31T13:51:16Z</time>
      </trkpt>
      <trkpt lat="45.04058" lon="5.4937">
        <ele>1400.5</ele>
        <time>2021-08-31T13:51:18Z</time>
      </trkpt>
      <trkpt lat="45.04057" lon="5.49371">
        <ele>1400.5</ele>
        <time>2021-08-31T13:51:20Z</time>
      </trkpt>
      <trkpt lat="45.04056" lon="5.49372">
        <ele>1400.5</ele>
        <time>2021-08-31T13:51:21Z</time>
      </trkpt>
      <trkpt lat="45.04055" lon="5.49374">
        <ele>1400.4</ele>
        <time>2021-08-31T13:51:23Z</time>
      </trkpt>
      <trkpt lat="45.04055" lon="5.49375">
        <ele>1400.4</ele>
        <time>2021-08-31T13:51:24Z</time>
      </trkpt>
      <trkpt lat="45.04054" lon="5.49376">
        <ele>1400.3</ele>
        <time>2021-08-31T13:51:28Z</time>
      </trkpt>
      <trkpt lat="45.04053" lon="5.49377">
        <ele>1400.3</ele>
        <time>2021-08-31T13:51:30Z</time>
      </trkpt>
      <trkpt lat="45.04053" lon="5.49378">
        <ele>1400.2</ele>
        <time>2021-08-31T13:51:31Z</time>
      </trkpt>
      <trkpt lat="45.04052" lon="5.49379">
        <ele>1400.2</ele>
        <time>2021-08-31T13:51:33Z</time>
      </trkpt>
      <trkpt lat="45.04051" lon="5.4938">
        <ele>1400.1</ele>
        <time>2021-08-31T13:51:36Z</time>
      </trkpt>
      <trkpt lat="45.04051" lon="5.49381">
        <ele>1400.1</ele>
        <time>2021-08-31T13:51:37Z</time>
      </trkpt>
      <trkpt lat="45.0405" lon="5.49382">
        <ele>1400</ele>
        <time>2021-08-31T13:51:38Z</time>
      </trkpt>
      <trkpt lat="45.04049" lon="5.49383">
        <ele>1400</ele>
        <time>2021-08-31T13:51:40Z</time>
      </trkpt>
      <trkpt lat="45.04048" lon="5.49384">
        <ele>1399.9</ele>
        <time>2021-08-31T13:51:41Z</time>
      </trkpt>
      <trkpt lat="45.04047" lon="5.494">
        <ele>1399.7</ele>
        <time>2021-08-31T13:51:42Z</time>
      </trkpt>
      <trkpt lat="45.04048" lon="5.49408">
        <ele>1400</ele>
        <time>2021-08-31T13:51:43Z</time>
      </trkpt>
      <trkpt lat="45.04051" lon="5.4941">
        <ele>1400.2</ele>
        <time>2021-08-31T13:51:45Z</time>
      </trkpt>
      <trkpt lat="45.04052" lon="5.49411">
        <ele>1400.3</ele>
        <time>2021-08-31T13:51:46Z</time>
      </trkpt>
      <trkpt lat="45.04054" lon="5.49411">
        <ele>1400.3</ele>
        <time>2021-08-31T13:51:47Z</time>
      </trkpt>
      <trkpt lat="45.04055" lon="5.49411">
        <ele>1400.4</ele>
        <time>2021-08-31T13:51:48Z</time>
      </trkpt>
      <trkpt lat="45.04056" lon="5.49411">
        <ele>1400.4</ele>
        <time>2021-08-31T13:51:50Z</time>
      </trkpt>
      <trkpt lat="45.04058" lon="5.4941">
        <ele>1400.5</ele>
        <time>2021-08-31T13:51:51Z</time>
      </trkpt>
      <trkpt lat="45.04066" lon="5.49406">
        <ele>1400.8</ele>
        <time>2021-08-31T13:51:52Z</time>
      </trkpt>
      <trkpt lat="45.04073" lon="5.49399">
        <ele>1401.2</ele>
        <time>2021-08-31T13:51:54Z</time>
      </trkpt>
      <trkpt lat="45.04075" lon="5.49396">
        <ele>1401.4</ele>
        <time>2021-08-31T13:51:55Z</time>
      </trkpt>
      <trkpt lat="45.04077" lon="5.49393">
        <ele>1401.7</ele>
        <time>2021-08-31T13:51:57Z</time>
      </trkpt>
      <trkpt lat="45.0408" lon="5.49388">
        <ele>1402.1</ele>
        <time>2021-08-31T13:52:00Z</time>
      </trkpt>
      <trkpt lat="45.04082" lon="5.49386">
        <ele>1402.4</ele>
        <time>2021-08-31T13:52:01Z</time>
      </trkpt>
      <trkpt lat="45.04087" lon="5.49381">
        <ele>1403.1</ele>
        <time>2021-08-31T13:52:03Z</time>
      </trkpt>
      <trkpt lat="45.0409" lon="5.49381">
        <ele>1403.4</ele>
        <time>2021-08-31T13:52:06Z</time>
      </trkpt>
      <trkpt lat="45.04092" lon="5.49382">
        <ele>1403.6</ele>
        <time>2021-08-31T13:52:08Z</time>
      </trkpt>
      <trkpt lat="45.04093" lon="5.49381">
        <ele>1403.8</ele>
        <time>2021-08-31T13:52:10Z</time>
      </trkpt>
      <trkpt lat="45.04094" lon="5.49381">
        <ele>1403.9</ele>
        <time>2021-08-31T13:52:11Z</time>
      </trkpt>
      <trkpt lat="45.04095" lon="5.49381">
        <ele>1404</ele>
        <time>2021-08-31T13:52:13Z</time>
      </trkpt>
      <trkpt lat="45.04096" lon="5.49381">
        <ele>1404.1</ele>
        <time>2021-08-31T13:52:14Z</time>
      </trkpt>
      <trkpt lat="45.04096" lon="5.49381">
        <ele>1404.1</ele>
        <time>2021-08-31T13:52:16Z</time>
      </trkpt>
      <trkpt lat="45.04097" lon="5.49381">
        <ele>1404.2</ele>
        <time>2021-08-31T13:52:17Z</time>
      </trkpt>
      <trkpt lat="45.04098" lon="5.4938">
        <ele>1404.4</ele>
        <time>2021-08-31T13:52:18Z</time>
      </trkpt>
      <trkpt lat="45.04099" lon="5.49378">
        <ele>1404.6</ele>
        <time>2021-08-31T13:52:20Z</time>
      </trkpt>
      <trkpt lat="45.04099" lon="5.49376">
        <ele>1404.8</ele>
        <time>2021-08-31T13:52:21Z</time>
      </trkpt>
      <trkpt lat="45.041" lon="5.49375">
        <ele>1404.9</ele>
        <time>2021-08-31T13:52:22Z</time>
      </trkpt>
      <trkpt lat="45.04103" lon="5.49371">
        <ele>1405.4</ele>
        <time>2021-08-31T13:52:24Z</time>
      </trkpt>
      <trkpt lat="45.04105" lon="5.49367">
        <ele>1405.8</ele>
        <time>2021-08-31T13:52:26Z</time>
      </trkpt>
      <trkpt lat="45.04106" lon="5.49366">
        <ele>1405.9</ele>
        <time>2021-08-31T13:52:27Z</time>
      </trkpt>
      <trkpt lat="45.04117" lon="5.49348">
        <ele>1408.1</ele>
        <time>2021-08-31T13:52:29Z</time>
      </trkpt>
      <trkpt lat="45.04121" lon="5.49342">
        <ele>1408.8</ele>
        <time>2021-08-31T13:52:30Z</time>
      </trkpt>
      <trkpt lat="45.04123" lon="5.49339">
        <ele>1409.1</ele>
        <time>2021-08-31T13:52:31Z</time>
      </trkpt>
      <trkpt lat="45.04126" lon="5.49336">
        <ele>1409.4</ele>
        <time>2021-08-31T13:52:32Z</time>
      </trkpt>
      <trkpt lat="45.04129" lon="5.49333">
        <ele>1409.8</ele>
        <time>2021-08-31T13:52:34Z</time>
      </trkpt>
      <trkpt lat="45.04135" lon="5.49328">
        <ele>1410.5</ele>
        <time>2021-08-31T13:52:36Z</time>
      </trkpt>
      <trkpt lat="45.04137" lon="5.49325">
        <ele>1410.8</ele>
        <time>2021-08-31T13:52:37Z</time>
      </trkpt>
      <trkpt lat="45.04139" lon="5.49324">
        <ele>1411</ele>
        <time>2021-08-31T13:52:38Z</time>
      </trkpt>
      <trkpt lat="45.04141" lon="5.49322">
        <ele>1411.1</ele>
        <time>2021-08-31T13:52:40Z</time>
      </trkpt>
      <trkpt lat="45.0414" lon="5.49318">
        <ele>1411.4</ele>
        <time>2021-08-31T13:52:41Z</time>
      </trkpt>
      <trkpt lat="45.04139" lon="5.49317">
        <ele>1411.5</ele>
        <time>2021-08-31T13:52:42Z</time>
      </trkpt>
      <trkpt lat="45.04138" lon="5.49317">
        <ele>1411.6</ele>
        <time>2021-08-31T13:52:44Z</time>
      </trkpt>
      <trkpt lat="45.04137" lon="5.49318">
        <ele>1411.6</ele>
        <time>2021-08-31T13:52:45Z</time>
      </trkpt>
      <trkpt lat="45.04136" lon="5.4932">
        <ele>1411.8</ele>
        <time>2021-08-31T13:52:47Z</time>
      </trkpt>
      <trkpt lat="45.04135" lon="5.49324">
        <ele>1412.1</ele>
        <time>2021-08-31T13:52:49Z</time>
      </trkpt>
      <trkpt lat="45.04134" lon="5.49327">
        <ele>1412.2</ele>
        <time>2021-08-31T13:52:50Z</time>
      </trkpt>
      <trkpt lat="45.04133" lon="5.4933">
        <ele>1412.4</ele>
        <time>2021-08-31T13:52:52Z</time>
      </trkpt>
      <trkpt lat="45.04132" lon="5.49332">
        <ele>1412.5</ele>
        <time>2021-08-31T13:52:53Z</time>
      </trkpt>
      <trkpt lat="45.04131" lon="5.49335">
        <ele>1412.7</ele>
        <time>2021-08-31T13:52:54Z</time>
      </trkpt>
      <trkpt lat="45.04126" lon="5.49345">
        <ele>1413.3</ele>
        <time>2021-08-31T13:52:55Z</time>
      </trkpt>
      <trkpt lat="45.04153" lon="5.49342">
        <ele>1417.1</ele>
        <time>2021-08-31T13:54:07Z</time>
      </trkpt>
      <trkpt lat="45.04161" lon="5.49337">
        <ele>1417.7</ele>
        <time>2021-08-31T13:54:09Z</time>
      </trkpt>
      <trkpt lat="45.04164" lon="5.49335">
        <ele>1418</ele>
        <time>2021-08-31T13:54:10Z</time>
      </trkpt>
      <trkpt lat="45.04172" lon="5.49328">
        <ele>1418.7</ele>
        <time>2021-08-31T13:54:11Z</time>
      </trkpt>
      <trkpt lat="45.04175" lon="5.49326">
        <ele>1419</ele>
        <time>2021-08-31T13:54:13Z</time>
      </trkpt>
      <trkpt lat="45.04175" lon="5.49325">
        <ele>1419</ele>
        <time>2021-08-31T13:54:14Z</time>
      </trkpt>
      <trkpt lat="45.04175" lon="5.49325">
        <ele>1419</ele>
        <time>2021-08-31T13:54:16Z</time>
      </trkpt>
      <trkpt lat="45.04175" lon="5.49325">
        <ele>1419</ele>
        <time>2021-08-31T13:54:17Z</time>
      </trkpt>
      <trkpt lat="45.04175" lon="5.49325">
        <ele>1419</ele>
        <time>2021-08-31T13:54:19Z</time>
      </trkpt>
      <trkpt lat="45.04175" lon="5.49324">
        <ele>1419.1</ele>
        <time>2021-08-31T13:54:21Z</time>
      </trkpt>
      <trkpt lat="45.04176" lon="5.49323">
        <ele>1419.2</ele>
        <time>2021-08-31T13:54:22Z</time>
      </trkpt>
      <trkpt lat="45.04176" lon="5.49319">
        <ele>1419.4</ele>
        <time>2021-08-31T13:54:24Z</time>
      </trkpt>
      <trkpt lat="45.04187" lon="5.49295">
        <ele>1420.9</ele>
        <time>2021-08-31T13:54:35Z</time>
      </trkpt>
      <trkpt lat="45.04188" lon="5.49293">
        <ele>1421</ele>
        <time>2021-08-31T13:54:36Z</time>
      </trkpt>
      <trkpt lat="45.04189" lon="5.4929">
        <ele>1421.2</ele>
        <time>2021-08-31T13:54:38Z</time>
      </trkpt>
      <trkpt lat="45.0419" lon="5.49288">
        <ele>1421.3</ele>
        <time>2021-08-31T13:54:39Z</time>
      </trkpt>
      <trkpt lat="45.0419" lon="5.49287">
        <ele>1421.3</ele>
        <time>2021-08-31T13:54:40Z</time>
      </trkpt>
      <trkpt lat="45.0419" lon="5.49286">
        <ele>1421.4</ele>
        <time>2021-08-31T13:54:41Z</time>
      </trkpt>
      <trkpt lat="45.0419" lon="5.49284">
        <ele>1421.5</ele>
        <time>2021-08-31T13:54:43Z</time>
      </trkpt>
      <trkpt lat="45.04191" lon="5.49283">
        <ele>1421.6</ele>
        <time>2021-08-31T13:54:44Z</time>
      </trkpt>
      <trkpt lat="45.04191" lon="5.49281">
        <ele>1421.7</ele>
        <time>2021-08-31T13:54:46Z</time>
      </trkpt>
      <trkpt lat="45.04191" lon="5.49279">
        <ele>1421.8</ele>
        <time>2021-08-31T13:54:47Z</time>
      </trkpt>
      <trkpt lat="45.04192" lon="5.49277">
        <ele>1421.9</ele>
        <time>2021-08-31T13:54:48Z</time>
      </trkpt>
      <trkpt lat="45.04194" lon="5.49273">
        <ele>1422.2</ele>
        <time>2021-08-31T13:54:50Z</time>
      </trkpt>
      <trkpt lat="45.04198" lon="5.49268">
        <ele>1422.5</ele>
        <time>2021-08-31T13:54:52Z</time>
      </trkpt>
      <trkpt lat="45.04201" lon="5.49265">
        <ele>1422.8</ele>
        <time>2021-08-31T13:54:53Z</time>
      </trkpt>
      <trkpt lat="45.04203" lon="5.49262">
        <ele>1423.1</ele>
        <time>2021-08-31T13:54:54Z</time>
      </trkpt>
      <trkpt lat="45.04204" lon="5.49261">
        <ele>1423.1</ele>
        <time>2021-08-31T13:54:55Z</time>
      </trkpt>
      <trkpt lat="45.04205" lon="5.49261">
        <ele>1423.2</ele>
        <time>2021-08-31T13:54:57Z</time>
      </trkpt>
      <trkpt lat="45.04206" lon="5.49262">
        <ele>1423.3</ele>
        <time>2021-08-31T13:54:59Z</time>
      </trkpt>
      <trkpt lat="45.04206" lon="5.49263">
        <ele>1423.3</ele>
        <time>2021-08-31T13:55:00Z</time>
      </trkpt>
      <trkpt lat="45.04207" lon="5.49263">
        <ele>1423.4</ele>
        <time>2021-08-31T13:55:01Z</time>
      </trkpt>
      <trkpt lat="45.04207" lon="5.49263">
        <ele>1423.4</ele>
        <time>2021-08-31T13:55:03Z</time>
      </trkpt>
      <trkpt lat="45.04209" lon="5.49264">
        <ele>1423.5</ele>
        <time>2021-08-31T13:55:04Z</time>
      </trkpt>
      <trkpt lat="45.0421" lon="5.49264">
        <ele>1423.6</ele>
        <time>2021-08-31T13:55:05Z</time>
      </trkpt>
      <trkpt lat="45.04212" lon="5.49264">
        <ele>1423.8</ele>
        <time>2021-08-31T13:55:07Z</time>
      </trkpt>
      <trkpt lat="45.04214" lon="5.49264">
        <ele>1423.9</ele>
        <time>2021-08-31T13:55:08Z</time>
      </trkpt>
      <trkpt lat="45.04215" lon="5.49263">
        <ele>1424</ele>
        <time>2021-08-31T13:55:09Z</time>
      </trkpt>
      <trkpt lat="45.04218" lon="5.4926">
        <ele>1424.3</ele>
        <time>2021-08-31T13:55:11Z</time>
      </trkpt>
      <trkpt lat="45.04218" lon="5.4926">
        <ele>1424.3</ele>
        <time>2021-08-31T13:55:12Z</time>
      </trkpt>
      <trkpt lat="45.0422" lon="5.49258">
        <ele>1424.4</ele>
        <time>2021-08-31T13:55:14Z</time>
      </trkpt>
      <trkpt lat="45.0422" lon="5.49258">
        <ele>1424.5</ele>
        <time>2021-08-31T13:55:15Z</time>
      </trkpt>
      <trkpt lat="45.04221" lon="5.49257">
        <ele>1424.5</ele>
        <time>2021-08-31T13:55:16Z</time>
      </trkpt>
      <trkpt lat="45.04221" lon="5.49256">
        <ele>1424.6</ele>
        <time>2021-08-31T13:55:18Z</time>
      </trkpt>
      <trkpt lat="45.04221" lon="5.49256">
        <ele>1424.6</ele>
        <time>2021-08-31T13:55:19Z</time>
      </trkpt>
      <trkpt lat="45.04221" lon="5.49255">
        <ele>1424.6</ele>
        <time>2021-08-31T13:55:20Z</time>
      </trkpt>
      <trkpt lat="45.04221" lon="5.49254">
        <ele>1424.7</ele>
        <time>2021-08-31T13:55:22Z</time>
      </trkpt>
      <trkpt lat="45.0422" lon="5.49254">
        <ele>1424.7</ele>
        <time>2021-08-31T13:55:23Z</time>
      </trkpt>
      <trkpt lat="45.0422" lon="5.49254">
        <ele>1424.8</ele>
        <time>2021-08-31T13:55:25Z</time>
      </trkpt>
      <trkpt lat="45.04219" lon="5.49254">
        <ele>1424.8</ele>
        <time>2021-08-31T13:55:26Z</time>
      </trkpt>
      <trkpt lat="45.04217" lon="5.49256">
        <ele>1425</ele>
        <time>2021-08-31T13:55:29Z</time>
      </trkpt>
      <trkpt lat="45.04216" lon="5.49257">
        <ele>1425.1</ele>
        <time>2021-08-31T13:55:30Z</time>
      </trkpt>
      <trkpt lat="45.04215" lon="5.49259">
        <ele>1425.2</ele>
        <time>2021-08-31T13:55:32Z</time>
      </trkpt>
      <trkpt lat="45.04215" lon="5.4926">
        <ele>1425.3</ele>
        <time>2021-08-31T13:55:33Z</time>
      </trkpt>
      <trkpt lat="45.04214" lon="5.49261">
        <ele>1425.4</ele>
        <time>2021-08-31T13:55:34Z</time>
      </trkpt>
      <trkpt lat="45.04214" lon="5.49262">
        <ele>1425.4</ele>
        <time>2021-08-31T13:55:36Z</time>
      </trkpt>
      <trkpt lat="45.04215" lon="5.49264">
        <ele>1425.5</ele>
        <time>2021-08-31T13:55:37Z</time>
      </trkpt>
      <trkpt lat="45.04222" lon="5.49283">
        <ele>1426.6</ele>
        <time>2021-08-31T13:55:39Z</time>
      </trkpt>
      <trkpt lat="45.04225" lon="5.49288">
        <ele>1427</ele>
        <time>2021-08-31T13:55:40Z</time>
      </trkpt>
      <trkpt lat="45.04228" lon="5.49291">
        <ele>1427.2</ele>
        <time>2021-08-31T13:55:42Z</time>
      </trkpt>
      <trkpt lat="45.0423" lon="5.49292">
        <ele>1427.5</ele>
        <time>2021-08-31T13:55:43Z</time>
      </trkpt>
      <trkpt lat="45.04233" lon="5.49293">
        <ele>1427.7</ele>
        <time>2021-08-31T13:55:44Z</time>
      </trkpt>
      <trkpt lat="45.0424" lon="5.49296">
        <ele>1428.2</ele>
        <time>2021-08-31T13:55:46Z</time>
      </trkpt>
      <trkpt lat="45.04247" lon="5.49298">
        <ele>1428.7</ele>
        <time>2021-08-31T13:55:48Z</time>
      </trkpt>
      <trkpt lat="45.04252" lon="5.49297">
        <ele>1429.1</ele>
        <time>2021-08-31T13:55:49Z</time>
      </trkpt>
      <trkpt lat="45.04254" lon="5.49298">
        <ele>1429.3</ele>
        <time>2021-08-31T13:55:50Z</time>
      </trkpt>
      <trkpt lat="45.04259" lon="5.49299">
        <ele>1429.7</ele>
        <time>2021-08-31T13:55:52Z</time>
      </trkpt>
      <trkpt lat="45.0426" lon="5.49299">
        <ele>1429.8</ele>
        <time>2021-08-31T13:55:53Z</time>
      </trkpt>
      <trkpt lat="45.04262" lon="5.49299">
        <ele>1429.8</ele>
        <time>2021-08-31T13:55:55Z</time>
      </trkpt>
      <trkpt lat="45.04262" lon="5.49299">
        <ele>1429.9</ele>
        <time>2021-08-31T13:55:56Z</time>
      </trkpt>
      <trkpt lat="45.04264" lon="5.49299">
        <ele>1430</ele>
        <time>2021-08-31T13:55:58Z</time>
      </trkpt>
      <trkpt lat="45.04265" lon="5.49299">
        <ele>1430.1</ele>
        <time>2021-08-31T13:55:59Z</time>
      </trkpt>
      <trkpt lat="45.04324" lon="5.49331">
        <ele>1430</ele>
        <time>2021-08-31T14:00:16Z</time>
      </trkpt>
      <trkpt lat="45.04326" lon="5.49331">
        <ele>1429.4</ele>
        <time>2021-08-31T14:00:17Z</time>
      </trkpt>
      <trkpt lat="45.0433" lon="5.4933">
        <ele>1428.9</ele>
        <time>2021-08-31T14:00:19Z</time>
      </trkpt>
      <trkpt lat="45.04331" lon="5.49329">
        <ele>1428.7</ele>
        <time>2021-08-31T14:00:20Z</time>
      </trkpt>
      <trkpt lat="45.04334" lon="5.49328">
        <ele>1428.1</ele>
        <time>2021-08-31T14:00:21Z</time>
      </trkpt>
      <trkpt lat="45.04337" lon="5.49326">
        <ele>1427.6</ele>
        <time>2021-08-31T14:00:22Z</time>
      </trkpt>
      <trkpt lat="45.04338" lon="5.49326">
        <ele>1427.6</ele>
        <time>2021-08-31T14:00:23Z</time>
      </trkpt>
      <trkpt lat="45.0434" lon="5.49326">
        <ele>1427.9</ele>
        <time>2021-08-31T14:00:25Z</time>
      </trkpt>
      <trkpt lat="45.04341" lon="5.49325">
        <ele>1428.1</ele>
        <time>2021-08-31T14:00:26Z</time>
      </trkpt>
      <trkpt lat="45.04343" lon="5.49327">
        <ele>1428.3</ele>
        <time>2021-08-31T14:00:27Z</time>
      </trkpt>
      <trkpt lat="45.04344" lon="5.49328">
        <ele>1428.5</ele>
        <time>2021-08-31T14:00:28Z</time>
      </trkpt>
      <trkpt lat="45.04344" lon="5.49331">
        <ele>1428.7</ele>
        <time>2021-08-31T14:00:29Z</time>
      </trkpt>
      <trkpt lat="45.04345" lon="5.49331">
        <ele>1428.8</ele>
        <time>2021-08-31T14:00:31Z</time>
      </trkpt>
      <trkpt lat="45.04345" lon="5.49332">
        <ele>1428.8</ele>
        <time>2021-08-31T14:00:32Z</time>
      </trkpt>
      <trkpt lat="45.04349" lon="5.4933">
        <ele>1429.4</ele>
        <time>2021-08-31T14:00:33Z</time>
      </trkpt>
      <trkpt lat="45.04354" lon="5.49327">
        <ele>1429.9</ele>
        <time>2021-08-31T14:00:35Z</time>
      </trkpt>
      <trkpt lat="45.04358" lon="5.49325">
        <ele>1430.6</ele>
        <time>2021-08-31T14:00:36Z</time>
      </trkpt>
      <trkpt lat="45.04362" lon="5.49323">
        <ele>1431.2</ele>
        <time>2021-08-31T14:00:37Z</time>
      </trkpt>
      <trkpt lat="45.04367" lon="5.4932">
        <ele>1431.8</ele>
        <time>2021-08-31T14:00:38Z</time>
      </trkpt>
      <trkpt lat="45.04371" lon="5.49318">
        <ele>1432.4</ele>
        <time>2021-08-31T14:00:39Z</time>
      </trkpt>
      <trkpt lat="45.04376" lon="5.49316">
        <ele>1433</ele>
        <time>2021-08-31T14:00:41Z</time>
      </trkpt>
      <trkpt lat="45.0438" lon="5.49313">
        <ele>1433.5</ele>
        <time>2021-08-31T14:00:43Z</time>
      </trkpt>
      <trkpt lat="45.04384" lon="5.49311">
        <ele>1433.9</ele>
        <time>2021-08-31T14:01:31Z</time>
      </trkpt>
      <trkpt lat="45.04389" lon="5.49309">
        <ele>1434.4</ele>
        <time>2021-08-31T14:01:32Z</time>
      </trkpt>
      <trkpt lat="45.04397" lon="5.49305">
        <ele>1435.3</ele>
        <time>2021-08-31T14:01:34Z</time>
      </trkpt>
      <trkpt lat="45.04402" lon="5.49302">
        <ele>1435.9</ele>
        <time>2021-08-31T14:01:36Z</time>
      </trkpt>
      <trkpt lat="45.04403" lon="5.49299">
        <ele>1436.1</ele>
        <time>2021-08-31T14:01:37Z</time>
      </trkpt>
      <trkpt lat="45.04405" lon="5.49297">
        <ele>1436.4</ele>
        <time>2021-08-31T14:01:39Z</time>
      </trkpt>
      <trkpt lat="45.04407" lon="5.49295">
        <ele>1436.7</ele>
        <time>2021-08-31T14:01:40Z</time>
      </trkpt>
      <trkpt lat="45.04407" lon="5.49294">
        <ele>1436.8</ele>
        <time>2021-08-31T14:01:41Z</time>
      </trkpt>
      <trkpt lat="45.04407" lon="5.49293">
        <ele>1436.9</ele>
        <time>2021-08-31T14:01:43Z</time>
      </trkpt>
      <trkpt lat="45.04408" lon="5.49292">
        <ele>1437.1</ele>
        <time>2021-08-31T14:01:44Z</time>
      </trkpt>
      <trkpt lat="45.0441" lon="5.49289">
        <ele>1437.4</ele>
        <time>2021-08-31T14:01:46Z</time>
      </trkpt>
      <trkpt lat="45.0441" lon="5.49291">
        <ele>1437.6</ele>
        <time>2021-08-31T14:01:48Z</time>
      </trkpt>
      <trkpt lat="45.0441" lon="5.49291">
        <ele>1437.7</ele>
        <time>2021-08-31T14:01:49Z</time>
      </trkpt>
      <trkpt lat="45.0441" lon="5.49292">
        <ele>1437.7</ele>
        <time>2021-08-31T14:01:50Z</time>
      </trkpt>
      <trkpt lat="45.0441" lon="5.49292">
        <ele>1437.8</ele>
        <time>2021-08-31T14:01:52Z</time>
      </trkpt>
      <trkpt lat="45.0441" lon="5.49292">
        <ele>1437.8</ele>
        <time>2021-08-31T14:01:53Z</time>
      </trkpt>
      <trkpt lat="45.0441" lon="5.49293">
        <ele>1437.8</ele>
        <time>2021-08-31T14:01:54Z</time>
      </trkpt>
      <trkpt lat="45.04471" lon="5.49272">
        <ele>1446.1</ele>
        <time>2021-08-31T14:03:27Z</time>
      </trkpt>
      <trkpt lat="45.04472" lon="5.49272">
        <ele>1446.3</ele>
        <time>2021-08-31T14:03:29Z</time>
      </trkpt>
      <trkpt lat="45.04472" lon="5.49271">
        <ele>1446.4</ele>
        <time>2021-08-31T14:03:30Z</time>
      </trkpt>
      <trkpt lat="45.04473" lon="5.4927">
        <ele>1446.6</ele>
        <time>2021-08-31T14:03:31Z</time>
      </trkpt>
      <trkpt lat="45.04474" lon="5.49268">
        <ele>1446.8</ele>
        <time>2021-08-31T14:03:33Z</time>
      </trkpt>
      <trkpt lat="45.04474" lon="5.49266">
        <ele>1446.9</ele>
        <time>2021-08-31T14:03:34Z</time>
      </trkpt>
      <trkpt lat="45.04475" lon="5.49265">
        <ele>1447.1</ele>
        <time>2021-08-31T14:03:35Z</time>
      </trkpt>
      <trkpt lat="45.04475" lon="5.49264">
        <ele>1447.2</ele>
        <time>2021-08-31T14:03:37Z</time>
      </trkpt>
      <trkpt lat="45.04476" lon="5.49264">
        <ele>1447.3</ele>
        <time>2021-08-31T14:03:38Z</time>
      </trkpt>
      <trkpt lat="45.04476" lon="5.49263">
        <ele>1447.4</ele>
        <time>2021-08-31T14:03:39Z</time>
      </trkpt>
      <trkpt lat="45.04477" lon="5.49263">
        <ele>1447.5</ele>
        <time>2021-08-31T14:03:40Z</time>
      </trkpt>
      <trkpt lat="45.04478" lon="5.49261">
        <ele>1447.8</ele>
        <time>2021-08-31T14:03:42Z</time>
      </trkpt>
      <trkpt lat="45.04479" lon="5.4926">
        <ele>1447.9</ele>
        <time>2021-08-31T14:03:43Z</time>
      </trkpt>
      <trkpt lat="45.04481" lon="5.49258">
        <ele>1448.2</ele>
        <time>2021-08-31T14:03:45Z</time>
      </trkpt>
      <trkpt lat="45.04481" lon="5.49257">
        <ele>1448.3</ele>
        <time>2021-08-31T14:03:46Z</time>
      </trkpt>
      <trkpt lat="45.04481" lon="5.49256">
        <ele>1448.4</ele>
        <time>2021-08-31T14:03:47Z</time>
      </trkpt>
      <trkpt lat="45.04482" lon="5.49256">
        <ele>1448.5</ele>
        <time>2021-08-31T14:03:49Z</time>
      </trkpt>
      <trkpt lat="45.04482" lon="5.49255">
        <ele>1448.6</ele>
        <time>2021-08-31T14:03:50Z</time>
      </trkpt>
      <trkpt lat="45.04483" lon="5.49254">
        <ele>1448.7</ele>
        <time>2021-08-31T14:03:52Z</time>
      </trkpt>
      <trkpt lat="45.04483" lon="5.49253">
        <ele>1448.7</ele>
        <time>2021-08-31T14:03:53Z</time>
      </trkpt>
      <trkpt lat="45.04484" lon="5.49253">
        <ele>1448.8</ele>
        <time>2021-08-31T14:03:54Z</time>
      </trkpt>
      <trkpt lat="45.04485" lon="5.49251">
        <ele>1449</ele>
        <time>2021-08-31T14:03:55Z</time>
      </trkpt>
      <trkpt lat="45.04485" lon="5.4925">
        <ele>1449.2</ele>
        <time>2021-08-31T14:03:56Z</time>
      </trkpt>
      <trkpt lat="45.04486" lon="5.49248">
        <ele>1449.4</ele>
        <time>2021-08-31T14:03:58Z</time>
      </trkpt>
      <trkpt lat="45.04487" lon="5.49245">
        <ele>1449.6</ele>
        <time>2021-08-31T14:03:59Z</time>
      </trkpt>
      <trkpt lat="45.04487" lon="5.49245">
        <ele>1449.7</ele>
        <time>2021-08-31T14:04:00Z</time>
      </trkpt>
      <trkpt lat="45.04487" lon="5.49244">
        <ele>1449.8</ele>
        <time>2021-08-31T14:04:02Z</time>
      </trkpt>
      <trkpt lat="45.04487" lon="5.49243">
        <ele>1449.9</ele>
        <time>2021-08-31T14:04:03Z</time>
      </trkpt>
      <trkpt lat="45.04488" lon="5.49242">
        <ele>1449.9</ele>
        <time>2021-08-31T14:04:04Z</time>
      </trkpt>
      <trkpt lat="45.04488" lon="5.49242">
        <ele>1451.6</ele>
        <time>2021-08-31T14:04:05Z</time>
      </trkpt>
      <trkpt lat="45.04488" lon="5.49241">
        <ele>1451.6</ele>
        <time>2021-08-31T14:04:06Z</time>
      </trkpt>
      <trkpt lat="45.04488" lon="5.4924">
        <ele>1451.6</ele>
        <time>2021-08-31T14:04:08Z</time>
      </trkpt>
      <trkpt lat="45.04488" lon="5.49239">
        <ele>1451.6</ele>
        <time>2021-08-31T14:04:09Z</time>
      </trkpt>
      <trkpt lat="45.04489" lon="5.49238">
        <ele>1451.6</ele>
        <time>2021-08-31T14:04:10Z</time>
      </trkpt>
      <trkpt lat="45.0449" lon="5.49236">
        <ele>1451.7</ele>
        <time>2021-08-31T14:04:11Z</time>
      </trkpt>
      <trkpt lat="45.04491" lon="5.49234">
        <ele>1451.8</ele>
        <time>2021-08-31T14:04:12Z</time>
      </trkpt>
      <trkpt lat="45.04493" lon="5.49231">
        <ele>1451.9</ele>
        <time>2021-08-31T14:04:14Z</time>
      </trkpt>
      <trkpt lat="45.04493" lon="5.4923">
        <ele>1451.9</ele>
        <time>2021-08-31T14:04:15Z</time>
      </trkpt>
      <trkpt lat="45.04495" lon="5.49227">
        <ele>1452</ele>
        <time>2021-08-31T14:04:16Z</time>
      </trkpt>
      <trkpt lat="45.04496" lon="5.49223">
        <ele>1452.2</ele>
        <time>2021-08-31T14:04:18Z</time>
      </trkpt>
      <trkpt lat="45.04496" lon="5.49221">
        <ele>1452.3</ele>
        <time>2021-08-31T14:04:19Z</time>
      </trkpt>
      <trkpt lat="45.04497" lon="5.49219">
        <ele>1452.3</ele>
        <time>2021-08-31T14:04:20Z</time>
      </trkpt>
      <trkpt lat="45.04499" lon="5.49217">
        <ele>1452.4</ele>
        <time>2021-08-31T14:04:22Z</time>
      </trkpt>
      <trkpt lat="45.045" lon="5.49216">
        <ele>1452.5</ele>
        <time>2021-08-31T14:04:23Z</time>
      </trkpt>
      <trkpt lat="45.04501" lon="5.49216">
        <ele>1452.6</ele>
        <time>2021-08-31T14:04:24Z</time>
      </trkpt>
      <trkpt lat="45.04503" lon="5.49216">
        <ele>1452.7</ele>
        <time>2021-08-31T14:04:26Z</time>
      </trkpt>
      <trkpt lat="45.04504" lon="5.49216">
        <ele>1452.8</ele>
        <time>2021-08-31T14:04:27Z</time>
      </trkpt>
      <trkpt lat="45.04505" lon="5.49216">
        <ele>1452.8</ele>
        <time>2021-08-31T14:04:28Z</time>
      </trkpt>
      <trkpt lat="45.04506" lon="5.49216">
        <ele>1452.9</ele>
        <time>2021-08-31T14:04:29Z</time>
      </trkpt>
      <trkpt lat="45.04507" lon="5.49216">
        <ele>1452.9</ele>
        <time>2021-08-31T14:04:30Z</time>
      </trkpt>
      <trkpt lat="45.04508" lon="5.49216">
        <ele>1452.9</ele>
        <time>2021-08-31T14:04:32Z</time>
      </trkpt>
      <trkpt lat="45.04508" lon="5.49216">
        <ele>1453</ele>
        <time>2021-08-31T14:04:33Z</time>
      </trkpt>
      <trkpt lat="45.04509" lon="5.49213">
        <ele>1453.2</ele>
        <time>2021-08-31T14:04:35Z</time>
      </trkpt>
      <trkpt lat="45.0451" lon="5.4921">
        <ele>1453.3</ele>
        <time>2021-08-31T14:04:37Z</time>
      </trkpt>
      <trkpt lat="45.04511" lon="5.49208">
        <ele>1453.4</ele>
        <time>2021-08-31T14:04:39Z</time>
      </trkpt>
      <trkpt lat="45.04511" lon="5.49206">
        <ele>1453.5</ele>
        <time>2021-08-31T14:04:40Z</time>
      </trkpt>
      <trkpt lat="45.04511" lon="5.49206">
        <ele>1453.6</ele>
        <time>2021-08-31T14:04:41Z</time>
      </trkpt>
      <trkpt lat="45.04512" lon="5.49204">
        <ele>1453.6</ele>
        <time>2021-08-31T14:04:43Z</time>
      </trkpt>
      <trkpt lat="45.04513" lon="5.49204">
        <ele>1453.7</ele>
        <time>2021-08-31T14:04:44Z</time>
      </trkpt>
      <trkpt lat="45.04515" lon="5.49203">
        <ele>1453.9</ele>
        <time>2021-08-31T14:04:46Z</time>
      </trkpt>
      <trkpt lat="45.04518" lon="5.49203">
        <ele>1454.1</ele>
        <time>2021-08-31T14:04:48Z</time>
      </trkpt>
      <trkpt lat="45.0452" lon="5.49204">
        <ele>1454.3</ele>
        <time>2021-08-31T14:04:49Z</time>
      </trkpt>
      <trkpt lat="45.04523" lon="5.49204">
        <ele>1454.5</ele>
        <time>2021-08-31T14:04:51Z</time>
      </trkpt>
      <trkpt lat="45.04525" lon="5.49204">
        <ele>1454.8</ele>
        <time>2021-08-31T14:04:53Z</time>
      </trkpt>
      <trkpt lat="45.04528" lon="5.49204">
        <ele>1455</ele>
        <time>2021-08-31T14:04:54Z</time>
      </trkpt>
      <trkpt lat="45.04542" lon="5.49207">
        <ele>1456.4</ele>
        <time>2021-08-31T14:04:56Z</time>
      </trkpt>
      <trkpt lat="45.04547" lon="5.49208">
        <ele>1456.9</ele>
        <time>2021-08-31T14:04:57Z</time>
      </trkpt>
      <trkpt lat="45.04549" lon="5.49208">
        <ele>1457</ele>
        <time>2021-08-31T14:04:58Z</time>
      </trkpt>
      <trkpt lat="45.04549" lon="5.49207">
        <ele>1457.1</ele>
        <time>2021-08-31T14:04:59Z</time>
      </trkpt>
      <trkpt lat="45.04548" lon="5.49206">
        <ele>1457.3</ele>
        <time>2021-08-31T14:05:01Z</time>
      </trkpt>
      <trkpt lat="45.04547" lon="5.49203">
        <ele>1457.5</ele>
        <time>2021-08-31T14:05:03Z</time>
      </trkpt>
      <trkpt lat="45.04546" lon="5.49199">
        <ele>1457.8</ele>
        <time>2021-08-31T14:05:04Z</time>
      </trkpt>
      <trkpt lat="45.04546" lon="5.49197">
        <ele>1457.9</ele>
        <time>2021-08-31T14:05:05Z</time>
      </trkpt>
      <trkpt lat="45.04546" lon="5.49195">
        <ele>1458.1</ele>
        <time>2021-08-31T14:05:06Z</time>
      </trkpt>
      <trkpt lat="45.04545" lon="5.49192">
        <ele>1458.3</ele>
        <time>2021-08-31T14:05:08Z</time>
      </trkpt>
      <trkpt lat="45.04544" lon="5.4919">
        <ele>1458.5</ele>
        <time>2021-08-31T14:05:09Z</time>
      </trkpt>
      <trkpt lat="45.04543" lon="5.4919">
        <ele>1458.7</ele>
        <time>2021-08-31T14:05:10Z</time>
      </trkpt>
      <trkpt lat="45.04543" lon="5.49191">
        <ele>1458.7</ele>
        <time>2021-08-31T14:05:11Z</time>
      </trkpt>
      <trkpt lat="45.04542" lon="5.49193">
        <ele>1458.9</ele>
        <time>2021-08-31T14:05:13Z</time>
      </trkpt>
      <trkpt lat="45.04542" lon="5.49195">
        <ele>1459</ele>
        <time>2021-08-31T14:05:15Z</time>
      </trkpt>
      <trkpt lat="45.04542" lon="5.49196">
        <ele>1459.1</ele>
        <time>2021-08-31T14:05:16Z</time>
      </trkpt>
      <trkpt lat="45.04542" lon="5.49196">
        <ele>1459.1</ele>
        <time>2021-08-31T14:05:17Z</time>
      </trkpt>
      <trkpt lat="45.04542" lon="5.49197">
        <ele>1459.2</ele>
        <time>2021-08-31T14:05:18Z</time>
      </trkpt>
      <trkpt lat="45.04542" lon="5.49197">
        <ele>1459.2</ele>
        <time>2021-08-31T14:05:19Z</time>
      </trkpt>
      <trkpt lat="45.04531" lon="5.49072">
        <ele>1467.4</ele>
        <time>2021-08-31T14:07:33Z</time>
      </trkpt>
      <trkpt lat="45.04532" lon="5.49069">
        <ele>1467.6</ele>
        <time>2021-08-31T14:07:34Z</time>
      </trkpt>
      <trkpt lat="45.04534" lon="5.49065">
        <ele>1467.7</ele>
        <time>2021-08-31T14:07:36Z</time>
      </trkpt>
      <trkpt lat="45.04536" lon="5.49065">
        <ele>1467.8</ele>
        <time>2021-08-31T14:07:37Z</time>
      </trkpt>
      <trkpt lat="45.04538" lon="5.49064">
        <ele>1467.9</ele>
        <time>2021-08-31T14:07:38Z</time>
      </trkpt>
      <trkpt lat="45.04539" lon="5.49064">
        <ele>1468</ele>
        <time>2021-08-31T14:07:39Z</time>
      </trkpt>
      <trkpt lat="45.04542" lon="5.49062">
        <ele>1468.1</ele>
        <time>2021-08-31T14:07:41Z</time>
      </trkpt>
      <trkpt lat="45.04548" lon="5.49055">
        <ele>1468.5</ele>
        <time>2021-08-31T14:07:42Z</time>
      </trkpt>
      <trkpt lat="45.04552" lon="5.4905">
        <ele>1469.1</ele>
        <time>2021-08-31T14:07:44Z</time>
      </trkpt>
      <trkpt lat="45.04556" lon="5.49045">
        <ele>1469.3</ele>
        <time>2021-08-31T14:07:45Z</time>
      </trkpt>
      <trkpt lat="45.0456" lon="5.4904">
        <ele>1469.6</ele>
        <time>2021-08-31T14:07:47Z</time>
      </trkpt>
      <trkpt lat="45.04564" lon="5.49035">
        <ele>1469.8</ele>
        <time>2021-08-31T14:08:13Z</time>
      </trkpt>
      <trkpt lat="45.04568" lon="5.4903">
        <ele>1470</ele>
        <time>2021-08-31T14:08:15Z</time>
      </trkpt>
      <trkpt lat="45.04573" lon="5.49017">
        <ele>1470.5</ele>
        <time>2021-08-31T14:08:17Z</time>
      </trkpt>
      <trkpt lat="45.04575" lon="5.49014">
        <ele>1470.6</ele>
        <time>2021-08-31T14:08:18Z</time>
      </trkpt>
      <trkpt lat="45.04576" lon="5.49005">
        <ele>1470.9</ele>
        <time>2021-08-31T14:08:20Z</time>
      </trkpt>
      <trkpt lat="45.04576" lon="5.49">
        <ele>1471</ele>
        <time>2021-08-31T14:08:21Z</time>
      </trkpt>
      <trkpt lat="45.04578" lon="5.48999">
        <ele>1471.1</ele>
        <time>2021-08-31T14:08:23Z</time>
      </trkpt>
      <trkpt lat="45.04579" lon="5.48997">
        <ele>1471.2</ele>
        <time>2021-08-31T14:08:25Z</time>
      </trkpt>
      <trkpt lat="45.04579" lon="5.48994">
        <ele>1471.3</ele>
        <time>2021-08-31T14:08:26Z</time>
      </trkpt>
      <trkpt lat="45.04579" lon="5.48999">
        <ele>1471.4</ele>
        <time>2021-08-31T14:08:28Z</time>
      </trkpt>
      <trkpt lat="45.0458" lon="5.49003">
        <ele>1471.6</ele>
        <time>2021-08-31T14:08:29Z</time>
      </trkpt>
      <trkpt lat="45.0458" lon="5.49007">
        <ele>1471.7</ele>
        <time>2021-08-31T14:08:30Z</time>
      </trkpt>
      <trkpt lat="45.04581" lon="5.49007">
        <ele>1471.7</ele>
        <time>2021-08-31T14:08:31Z</time>
      </trkpt>
      <trkpt lat="45.04582" lon="5.49012">
        <ele>1471.9</ele>
        <time>2021-08-31T14:08:33Z</time>
      </trkpt>
      <trkpt lat="45.04582" lon="5.49017">
        <ele>1472.1</ele>
        <time>2021-08-31T14:08:34Z</time>
      </trkpt>
      <trkpt lat="45.04583" lon="5.49023">
        <ele>1472.3</ele>
        <time>2021-08-31T14:08:35Z</time>
      </trkpt>
      <trkpt lat="45.04582" lon="5.4903">
        <ele>1472.5</ele>
        <time>2021-08-31T14:08:37Z</time>
      </trkpt>
      <trkpt lat="45.0458" lon="5.49033">
        <ele>1472.7</ele>
        <time>2021-08-31T14:08:38Z</time>
      </trkpt>
      <trkpt lat="45.04578" lon="5.49036">
        <ele>1472.8</ele>
        <time>2021-08-31T14:08:39Z</time>
      </trkpt>
      <trkpt lat="45.04577" lon="5.49036">
        <ele>1472.8</ele>
        <time>2021-08-31T14:08:41Z</time>
      </trkpt>
      <trkpt lat="45.04577" lon="5.49036">
        <ele>1472.8</ele>
        <time>2021-08-31T14:08:42Z</time>
      </trkpt>
      <trkpt lat="45.04577" lon="5.49036">
        <ele>1472.8</ele>
        <time>2021-08-31T14:08:43Z</time>
      </trkpt>
      <trkpt lat="45.04577" lon="5.49036">
        <ele>1472.8</ele>
        <time>2021-08-31T14:08:44Z</time>
      </trkpt>
      <trkpt lat="45.04577" lon="5.49036">
        <ele>1472.8</ele>
        <time>2021-08-31T14:08:46Z</time>
      </trkpt>
      <trkpt lat="45.04577" lon="5.49036">
        <ele>1472.8</ele>
        <time>2021-08-31T14:08:47Z</time>
      </trkpt>
      <trkpt lat="45.04682" lon="5.48983">
        <ele>1493.2</ele>
        <time>2021-08-31T14:12:14Z</time>
      </trkpt>
      <trkpt lat="45.04687" lon="5.4898">
        <ele>1493.8</ele>
        <time>2021-08-31T14:12:16Z</time>
      </trkpt>
      <trkpt lat="45.04689" lon="5.48975">
        <ele>1494.2</ele>
        <time>2021-08-31T14:12:17Z</time>
      </trkpt>
      <trkpt lat="45.0469" lon="5.48974">
        <ele>1494.3</ele>
        <time>2021-08-31T14:12:18Z</time>
      </trkpt>
      <trkpt lat="45.04691" lon="5.48971">
        <ele>1494.5</ele>
        <time>2021-08-31T14:12:19Z</time>
      </trkpt>
      <trkpt lat="45.04693" lon="5.48967">
        <ele>1494.9</ele>
        <time>2021-08-31T14:12:21Z</time>
      </trkpt>
      <trkpt lat="45.04694" lon="5.48963">
        <ele>1495.2</ele>
        <time>2021-08-31T14:12:22Z</time>
      </trkpt>
      <trkpt lat="45.04694" lon="5.48962">
        <ele>1495.3</ele>
        <time>2021-08-31T14:12:23Z</time>
      </trkpt>
      <trkpt lat="45.04697" lon="5.48957">
        <ele>1495.8</ele>
        <time>2021-08-31T14:12:24Z</time>
      </trkpt>
      <trkpt lat="45.047" lon="5.48954">
        <ele>1496.1</ele>
        <time>2021-08-31T14:12:26Z</time>
      </trkpt>
      <trkpt lat="45.04703" lon="5.48951">
        <ele>1496.5</ele>
        <time>2021-08-31T14:12:28Z</time>
      </trkpt>
      <trkpt lat="45.04706" lon="5.48948">
        <ele>1496.8</ele>
        <time>2021-08-31T14:12:29Z</time>
      </trkpt>
      <trkpt lat="45.04708" lon="5.48945">
        <ele>1497.2</ele>
        <time>2021-08-31T14:12:30Z</time>
      </trkpt>
      <trkpt lat="45.04711" lon="5.48942">
        <ele>1497.5</ele>
        <time>2021-08-31T14:12:32Z</time>
      </trkpt>
      <trkpt lat="45.04714" lon="5.4894">
        <ele>1497.9</ele>
        <time>2021-08-31T14:12:33Z</time>
      </trkpt>
      <trkpt lat="45.04717" lon="5.48937">
        <ele>1498.3</ele>
        <time>2021-08-31T14:12:34Z</time>
      </trkpt>
      <trkpt lat="45.0472" lon="5.48934">
        <ele>1498.6</ele>
        <time>2021-08-31T14:12:36Z</time>
      </trkpt>
      <trkpt lat="45.04722" lon="5.48931">
        <ele>1499</ele>
        <time>2021-08-31T14:12:37Z</time>
      </trkpt>
      <trkpt lat="45.04725" lon="5.48928">
        <ele>1499.3</ele>
        <time>2021-08-31T14:12:38Z</time>
      </trkpt>
      <trkpt lat="45.04728" lon="5.48925">
        <ele>1499.6</ele>
        <time>2021-08-31T14:13:19Z</time>
      </trkpt>
      <trkpt lat="45.04731" lon="5.48922">
        <ele>1500</ele>
        <time>2021-08-31T14:13:20Z</time>
      </trkpt>
      <trkpt lat="45.04734" lon="5.48919">
        <ele>1500.3</ele>
        <time>2021-08-31T14:13:21Z</time>
      </trkpt>
      <trkpt lat="45.04737" lon="5.48917">
        <ele>1500.7</ele>
        <time>2021-08-31T14:13:22Z</time>
      </trkpt>
      <trkpt lat="45.04739" lon="5.48916">
        <ele>1500.8</ele>
        <time>2021-08-31T14:13:23Z</time>
      </trkpt>
      <trkpt lat="45.04742" lon="5.48914">
        <ele>1501.2</ele>
        <time>2021-08-31T14:13:25Z</time>
      </trkpt>
      <trkpt lat="45.04742" lon="5.48913">
        <ele>1501.2</ele>
        <time>2021-08-31T14:13:26Z</time>
      </trkpt>
      <trkpt lat="45.04744" lon="5.48912">
        <ele>1501.4</ele>
        <time>2021-08-31T14:13:27Z</time>
      </trkpt>
      <trkpt lat="45.04745" lon="5.48911">
        <ele>1501.5</ele>
        <time>2021-08-31T14:13:28Z</time>
      </trkpt>
      <trkpt lat="45.04746" lon="5.4891">
        <ele>1501.7</ele>
        <time>2021-08-31T14:13:29Z</time>
      </trkpt>
      <trkpt lat="45.04749" lon="5.48909">
        <ele>1502</ele>
        <time>2021-08-31T14:13:30Z</time>
      </trkpt>
      <trkpt lat="45.04749" lon="5.48909">
        <ele>1502.1</ele>
        <time>2021-08-31T14:13:31Z</time>
      </trkpt>
      <trkpt lat="45.04753" lon="5.48908">
        <ele>1502.4</ele>
        <time>2021-08-31T14:13:32Z</time>
      </trkpt>
      <trkpt lat="45.04754" lon="5.48907">
        <ele>1502.5</ele>
        <time>2021-08-31T14:13:33Z</time>
      </trkpt>
      <trkpt lat="45.04755" lon="5.48906">
        <ele>1502.7</ele>
        <time>2021-08-31T14:13:36Z</time>
      </trkpt>
      <trkpt lat="45.04755" lon="5.48906">
        <ele>1502.8</ele>
        <time>2021-08-31T14:13:37Z</time>
      </trkpt>
      <trkpt lat="45.04756" lon="5.48906">
        <ele>1502.8</ele>
        <time>2021-08-31T14:13:38Z</time>
      </trkpt>
      <trkpt lat="45.04756" lon="5.48906">
        <ele>1502.8</ele>
        <time>2021-08-31T14:13:39Z</time>
      </trkpt>
      <trkpt lat="45.04756" lon="5.48905">
        <ele>1502.8</ele>
        <time>2021-08-31T14:13:41Z</time>
      </trkpt>
      <trkpt lat="45.04756" lon="5.48905">
        <ele>1502.8</ele>
        <time>2021-08-31T14:13:42Z</time>
      </trkpt>
      <trkpt lat="45.0476" lon="5.489">
        <ele>1503.5</ele>
        <time>2021-08-31T14:13:43Z</time>
      </trkpt>
      <trkpt lat="45.04765" lon="5.48894">
        <ele>1504.2</ele>
        <time>2021-08-31T14:13:54Z</time>
      </trkpt>
      <trkpt lat="45.04769" lon="5.48888">
        <ele>1504.8</ele>
        <time>2021-08-31T14:13:55Z</time>
      </trkpt>
      <trkpt lat="45.04773" lon="5.48883">
        <ele>1505.5</ele>
        <time>2021-08-31T14:13:56Z</time>
      </trkpt>
      <trkpt lat="45.04775" lon="5.48877">
        <ele>1506</ele>
        <time>2021-08-31T14:13:58Z</time>
      </trkpt>
      <trkpt lat="45.04776" lon="5.48876">
        <ele>1506.1</ele>
        <time>2021-08-31T14:13:59Z</time>
      </trkpt>
      <trkpt lat="45.04777" lon="5.48875">
        <ele>1506.2</ele>
        <time>2021-08-31T14:14:00Z</time>
      </trkpt>
      <trkpt lat="45.04777" lon="5.48874">
        <ele>1506.3</ele>
        <time>2021-08-31T14:14:01Z</time>
      </trkpt>
      <trkpt lat="45.0478" lon="5.48872">
        <ele>1506.7</ele>
        <time>2021-08-31T14:14:02Z</time>
      </trkpt>
      <trkpt lat="45.04781" lon="5.48872">
        <ele>1506.8</ele>
        <time>2021-08-31T14:14:03Z</time>
      </trkpt>
      <trkpt lat="45.04785" lon="5.48871">
        <ele>1507.2</ele>
        <time>2021-08-31T14:14:05Z</time>
      </trkpt>
      <trkpt lat="45.04785" lon="5.4887">
        <ele>1507.3</ele>
        <time>2021-08-31T14:14:07Z</time>
      </trkpt>
      <trkpt lat="45.04785" lon="5.48868">
        <ele>1507.4</ele>
        <time>2021-08-31T14:14:08Z</time>
      </trkpt>
      <trkpt lat="45.04786" lon="5.48867">
        <ele>1507.5</ele>
        <time>2021-08-31T14:14:10Z</time>
      </trkpt>
      <trkpt lat="45.04786" lon="5.48866">
        <ele>1507.6</ele>
        <time>2021-08-31T14:14:11Z</time>
      </trkpt>
      <trkpt lat="45.04787" lon="5.48863">
        <ele>1507.8</ele>
        <time>2021-08-31T14:14:12Z</time>
      </trkpt>
      <trkpt lat="45.04788" lon="5.48859">
        <ele>1508.1</ele>
        <time>2021-08-31T14:14:14Z</time>
      </trkpt>
      <trkpt lat="45.0479" lon="5.48856">
        <ele>1508.4</ele>
        <time>2021-08-31T14:14:15Z</time>
      </trkpt>
      <trkpt lat="45.0479" lon="5.48856">
        <ele>1508.4</ele>
        <time>2021-08-31T14:14:16Z</time>
      </trkpt>
      <trkpt lat="45.04792" lon="5.48856">
        <ele>1508.7</ele>
        <time>2021-08-31T14:14:18Z</time>
      </trkpt>
      <trkpt lat="45.04793" lon="5.48855">
        <ele>1508.7</ele>
        <time>2021-08-31T14:14:20Z</time>
      </trkpt>
      <trkpt lat="45.04793" lon="5.48855">
        <ele>1508.8</ele>
        <time>2021-08-31T14:14:22Z</time>
      </trkpt>
      <trkpt lat="45.04793" lon="5.48854">
        <ele>1508.9</ele>
        <time>2021-08-31T14:14:23Z</time>
      </trkpt>
      <trkpt lat="45.04794" lon="5.48854">
        <ele>1508.9</ele>
        <time>2021-08-31T14:14:24Z</time>
      </trkpt>
      <trkpt lat="45.04839" lon="5.48795">
        <ele>1516</ele>
        <time>2021-08-31T14:15:22Z</time>
      </trkpt>
      <trkpt lat="45.04842" lon="5.48792">
        <ele>1516.3</ele>
        <time>2021-08-31T14:15:23Z</time>
      </trkpt>
      <trkpt lat="45.04844" lon="5.48789">
        <ele>1516.6</ele>
        <time>2021-08-31T14:15:24Z</time>
      </trkpt>
      <trkpt lat="45.04847" lon="5.48785">
        <ele>1516.8</ele>
        <time>2021-08-31T14:15:26Z</time>
      </trkpt>
      <trkpt lat="45.04849" lon="5.48784">
        <ele>1516.9</ele>
        <time>2021-08-31T14:15:28Z</time>
      </trkpt>
      <trkpt lat="45.04852" lon="5.48778">
        <ele>1517.1</ele>
        <time>2021-08-31T14:15:31Z</time>
      </trkpt>
      <trkpt lat="45.04853" lon="5.48778">
        <ele>1517.1</ele>
        <time>2021-08-31T14:15:32Z</time>
      </trkpt>
      <trkpt lat="45.04854" lon="5.48775">
        <ele>1517.1</ele>
        <time>2021-08-31T14:15:33Z</time>
      </trkpt>
      <trkpt lat="45.04855" lon="5.48769">
        <ele>1517</ele>
        <time>2021-08-31T14:15:35Z</time>
      </trkpt>
      <trkpt lat="45.04856" lon="5.48766">
        <ele>1517</ele>
        <time>2021-08-31T14:15:36Z</time>
      </trkpt>
      <trkpt lat="45.04858" lon="5.48761">
        <ele>1516.8</ele>
        <time>2021-08-31T14:15:38Z</time>
      </trkpt>
      <trkpt lat="45.0486" lon="5.48758">
        <ele>1516.6</ele>
        <time>2021-08-31T14:15:39Z</time>
      </trkpt>
      <trkpt lat="45.04862" lon="5.48753">
        <ele>1516.3</ele>
        <time>2021-08-31T14:15:41Z</time>
      </trkpt>
      <trkpt lat="45.04863" lon="5.48748">
        <ele>1516</ele>
        <time>2021-08-31T14:15:42Z</time>
      </trkpt>
      <trkpt lat="45.04865" lon="5.48743">
        <ele>1515.6</ele>
        <time>2021-08-31T14:15:43Z</time>
      </trkpt>
      <trkpt lat="45.04867" lon="5.48735">
        <ele>1515.1</ele>
        <time>2021-08-31T14:15:44Z</time>
      </trkpt>
      <trkpt lat="45.04869" lon="5.48725">
        <ele>1514.3</ele>
        <time>2021-08-31T14:15:46Z</time>
      </trkpt>
      <trkpt lat="45.0487" lon="5.48721">
        <ele>1514.1</ele>
        <time>2021-08-31T14:15:47Z</time>
      </trkpt>
      <trkpt lat="45.04873" lon="5.48715">
        <ele>1513.7</ele>
        <time>2021-08-31T14:15:48Z</time>
      </trkpt>
      <trkpt lat="45.04876" lon="5.48706">
        <ele>1513.2</ele>
        <time>2021-08-31T14:15:50Z</time>
      </trkpt>
      <trkpt lat="45.04879" lon="5.48698">
        <ele>1512.9</ele>
        <time>2021-08-31T14:15:51Z</time>
      </trkpt>
      <trkpt lat="45.04881" lon="5.48692">
        <ele>1512.8</ele>
        <time>2021-08-31T14:15:52Z</time>
      </trkpt>
      <trkpt lat="45.04883" lon="5.48683">
        <ele>1512.8</ele>
        <time>2021-08-31T14:15:54Z</time>
      </trkpt>
      <trkpt lat="45.04885" lon="5.48675">
        <ele>1512.8</ele>
        <time>2021-08-31T14:15:55Z</time>
      </trkpt>
      <trkpt lat="45.04886" lon="5.48669">
        <ele>1512.8</ele>
        <time>2021-08-31T14:15:57Z</time>
      </trkpt>
      <trkpt lat="45.04888" lon="5.48665">
        <ele>1512.9</ele>
        <time>2021-08-31T14:15:58Z</time>
      </trkpt>
      <trkpt lat="45.04889" lon="5.48659">
        <ele>1512.9</ele>
        <time>2021-08-31T14:15:59Z</time>
      </trkpt>
      <trkpt lat="45.0489" lon="5.48652">
        <ele>1512.9</ele>
        <time>2021-08-31T14:16:01Z</time>
      </trkpt>
      <trkpt lat="45.04891" lon="5.48649">
        <ele>1513</ele>
        <time>2021-08-31T14:16:02Z</time>
      </trkpt>
      <trkpt lat="45.04892" lon="5.48647">
        <ele>1513</ele>
        <time>2021-08-31T14:16:03Z</time>
      </trkpt>
      <trkpt lat="45.04893" lon="5.48642">
        <ele>1513.1</ele>
        <time>2021-08-31T14:16:04Z</time>
      </trkpt>
      <trkpt lat="45.04894" lon="5.48637">
        <ele>1513.1</ele>
        <time>2021-08-31T14:16:06Z</time>
      </trkpt>
      <trkpt lat="45.04893" lon="5.48634">
        <ele>1513.2</ele>
        <time>2021-08-31T14:16:07Z</time>
      </trkpt>
      <trkpt lat="45.0489" lon="5.48631">
        <ele>1513.2</ele>
        <time>2021-08-31T14:16:08Z</time>
      </trkpt>
      <trkpt lat="45.04887" lon="5.48629">
        <ele>1513.2</ele>
        <time>2021-08-31T14:16:10Z</time>
      </trkpt>
      <trkpt lat="45.04885" lon="5.48626">
        <ele>1513.2</ele>
        <time>2021-08-31T14:16:11Z</time>
      </trkpt>
      <trkpt lat="45.04883" lon="5.48623">
        <ele>1513.2</ele>
        <time>2021-08-31T14:16:12Z</time>
      </trkpt>
      <trkpt lat="45.0488" lon="5.48618">
        <ele>1513.2</ele>
        <time>2021-08-31T14:16:13Z</time>
      </trkpt>
      <trkpt lat="45.04877" lon="5.48613">
        <ele>1513.2</ele>
        <time>2021-08-31T14:16:14Z</time>
      </trkpt>
      <trkpt lat="45.04874" lon="5.48609">
        <ele>1513.2</ele>
        <time>2021-08-31T14:16:15Z</time>
      </trkpt>
      <trkpt lat="45.04871" lon="5.48605">
        <ele>1513.2</ele>
        <time>2021-08-31T14:16:17Z</time>
      </trkpt>
      <trkpt lat="45.04867" lon="5.48601">
        <ele>1513.2</ele>
        <time>2021-08-31T14:16:18Z</time>
      </trkpt>
      <trkpt lat="45.04865" lon="5.48596">
        <ele>1513.2</ele>
        <time>2021-08-31T14:16:20Z</time>
      </trkpt>
      <trkpt lat="45.04862" lon="5.48592">
        <ele>1513.2</ele>
        <time>2021-08-31T14:16:21Z</time>
      </trkpt>
      <trkpt lat="45.04859" lon="5.48589">
        <ele>1513.2</ele>
        <time>2021-08-31T14:16:23Z</time>
      </trkpt>
      <trkpt lat="45.04855" lon="5.48586">
        <ele>1513.2</ele>
        <time>2021-08-31T14:16:24Z</time>
      </trkpt>
      <trkpt lat="45.04852" lon="5.48585">
        <ele>1513.2</ele>
        <time>2021-08-31T14:16:25Z</time>
      </trkpt>
      <trkpt lat="45.04849" lon="5.48583">
        <ele>1513.3</ele>
        <time>2021-08-31T14:16:26Z</time>
      </trkpt>
      <trkpt lat="45.04844" lon="5.48579">
        <ele>1513.4</ele>
        <time>2021-08-31T14:16:27Z</time>
      </trkpt>
      <trkpt lat="45.0484" lon="5.48576">
        <ele>1513.4</ele>
        <time>2021-08-31T14:16:29Z</time>
      </trkpt>
      <trkpt lat="45.04836" lon="5.48573">
        <ele>1513.5</ele>
        <time>2021-08-31T14:16:30Z</time>
      </trkpt>
      <trkpt lat="45.04833" lon="5.48571">
        <ele>1513.6</ele>
        <time>2021-08-31T14:16:31Z</time>
      </trkpt>
      <trkpt lat="45.04828" lon="5.48568">
        <ele>1513.7</ele>
        <time>2021-08-31T14:16:33Z</time>
      </trkpt>
      <trkpt lat="45.04825" lon="5.48566">
        <ele>1513.7</ele>
        <time>2021-08-31T14:16:34Z</time>
      </trkpt>
      <trkpt lat="45.04819" lon="5.48562">
        <ele>1513.9</ele>
        <time>2021-08-31T14:16:36Z</time>
      </trkpt>
      <trkpt lat="45.04814" lon="5.48558">
        <ele>1514</ele>
        <time>2021-08-31T14:16:38Z</time>
      </trkpt>
      <trkpt lat="45.04811" lon="5.48555">
        <ele>1514.1</ele>
        <time>2021-08-31T14:16:39Z</time>
      </trkpt>
      <trkpt lat="45.04808" lon="5.48553">
        <ele>1514.2</ele>
        <time>2021-08-31T14:16:40Z</time>
      </trkpt>
      <trkpt lat="45.04804" lon="5.48551">
        <ele>1514.4</ele>
        <time>2021-08-31T14:16:41Z</time>
      </trkpt>
      <trkpt lat="45.04803" lon="5.48549">
        <ele>1514.4</ele>
        <time>2021-08-31T14:16:42Z</time>
      </trkpt>
      <trkpt lat="45.048" lon="5.48547">
        <ele>1514.5</ele>
        <time>2021-08-31T14:16:44Z</time>
      </trkpt>
      <trkpt lat="45.04797" lon="5.48545">
        <ele>1514.6</ele>
        <time>2021-08-31T14:16:45Z</time>
      </trkpt>
      <trkpt lat="45.04793" lon="5.48543">
        <ele>1514.8</ele>
        <time>2021-08-31T14:16:46Z</time>
      </trkpt>
      <trkpt lat="45.04791" lon="5.48542">
        <ele>1514.9</ele>
        <time>2021-08-31T14:16:47Z</time>
      </trkpt>
      <trkpt lat="45.04789" lon="5.4854">
        <ele>1515</ele>
        <time>2021-08-31T14:16:49Z</time>
      </trkpt>
      <trkpt lat="45.04786" lon="5.48539">
        <ele>1515.1</ele>
        <time>2021-08-31T14:16:50Z</time>
      </trkpt>
      <trkpt lat="45.04783" lon="5.48538">
        <ele>1515.3</ele>
        <time>2021-08-31T14:16:51Z</time>
      </trkpt>
      <trkpt lat="45.04781" lon="5.48536">
        <ele>1515.4</ele>
        <time>2021-08-31T14:16:52Z</time>
      </trkpt>
      <trkpt lat="45.0478" lon="5.48535">
        <ele>1515.4</ele>
        <time>2021-08-31T14:16:53Z</time>
      </trkpt>
      <trkpt lat="45.04778" lon="5.48532">
        <ele>1515.6</ele>
        <time>2021-08-31T14:16:55Z</time>
      </trkpt>
      <trkpt lat="45.04776" lon="5.48529">
        <ele>1515.7</ele>
        <time>2021-08-31T14:16:56Z</time>
      </trkpt>
      <trkpt lat="45.04773" lon="5.48527">
        <ele>1515.8</ele>
        <time>2021-08-31T14:16:57Z</time>
      </trkpt>
      <trkpt lat="45.0477" lon="5.48526">
        <ele>1516</ele>
        <time>2021-08-31T14:16:58Z</time>
      </trkpt>
      <trkpt lat="45.04767" lon="5.48524">
        <ele>1516.2</ele>
        <time>2021-08-31T14:17:00Z</time>
      </trkpt>
      <trkpt lat="45.04765" lon="5.48521">
        <ele>1516.3</ele>
        <time>2021-08-31T14:17:01Z</time>
      </trkpt>
      <trkpt lat="45.04763" lon="5.4852">
        <ele>1516.4</ele>
        <time>2021-08-31T14:17:02Z</time>
      </trkpt>
      <trkpt lat="45.04761" lon="5.48518">
        <ele>1516.5</ele>
        <time>2021-08-31T14:17:04Z</time>
      </trkpt>
      <trkpt lat="45.04756" lon="5.48515">
        <ele>1516.7</ele>
        <time>2021-08-31T14:17:06Z</time>
      </trkpt>
      <trkpt lat="45.04755" lon="5.48514">
        <ele>1516.8</ele>
        <time>2021-08-31T14:17:07Z</time>
      </trkpt>
      <trkpt lat="45.04753" lon="5.48513">
        <ele>1516.9</ele>
        <time>2021-08-31T14:17:08Z</time>
      </trkpt>
      <trkpt lat="45.0475" lon="5.4851">
        <ele>1517.1</ele>
        <time>2021-08-31T14:17:09Z</time>
      </trkpt>
      <trkpt lat="45.04749" lon="5.48509">
        <ele>1517.1</ele>
        <time>2021-08-31T14:17:10Z</time>
      </trkpt>
      <trkpt lat="45.04747" lon="5.48507">
        <ele>1517.2</ele>
        <time>2021-08-31T14:17:12Z</time>
      </trkpt>
      <trkpt lat="45.04744" lon="5.48505">
        <ele>1517.4</ele>
        <time>2021-08-31T14:17:13Z</time>
      </trkpt>
      <trkpt lat="45.0474" lon="5.48502">
        <ele>1517.6</ele>
        <time>2021-08-31T14:17:15Z</time>
      </trkpt>
      <trkpt lat="45.04736" lon="5.48501">
        <ele>1517.7</ele>
        <time>2021-08-31T14:17:16Z</time>
      </trkpt>
      <trkpt lat="45.04734" lon="5.485">
        <ele>1517.9</ele>
        <time>2021-08-31T14:17:17Z</time>
      </trkpt>
      <trkpt lat="45.0473" lon="5.48498">
        <ele>1518.1</ele>
        <time>2021-08-31T14:17:19Z</time>
      </trkpt>
      <trkpt lat="45.04727" lon="5.48498">
        <ele>1518.2</ele>
        <time>2021-08-31T14:17:20Z</time>
      </trkpt>
      <trkpt lat="45.04725" lon="5.48498">
        <ele>1518.3</ele>
        <time>2021-08-31T14:17:21Z</time>
      </trkpt>
      <trkpt lat="45.04724" lon="5.48497">
        <ele>1518.4</ele>
        <time>2021-08-31T14:17:23Z</time>
      </trkpt>
      <trkpt lat="45.04722" lon="5.48497">
        <ele>1518.4</ele>
        <time>2021-08-31T14:17:24Z</time>
      </trkpt>
      <trkpt lat="45.04721" lon="5.48496">
        <ele>1518.5</ele>
        <time>2021-08-31T14:17:25Z</time>
      </trkpt>
      <trkpt lat="45.04719" lon="5.48494">
        <ele>1518.6</ele>
        <time>2021-08-31T14:17:26Z</time>
      </trkpt>
      <trkpt lat="45.04716" lon="5.48492">
        <ele>1518.8</ele>
        <time>2021-08-31T14:17:28Z</time>
      </trkpt>
      <trkpt lat="45.04716" lon="5.48492">
        <ele>1518.8</ele>
        <time>2021-08-31T14:17:29Z</time>
      </trkpt>
      <trkpt lat="45.04716" lon="5.48492">
        <ele>1518.8</ele>
        <time>2021-08-31T14:17:30Z</time>
      </trkpt>
      <trkpt lat="45.04716" lon="5.48493">
        <ele>1518.8</ele>
        <time>2021-08-31T14:17:31Z</time>
      </trkpt>
      <trkpt lat="45.04716" lon="5.48493">
        <ele>1518.8</ele>
        <time>2021-08-31T14:17:33Z</time>
      </trkpt>
      <trkpt lat="45.04716" lon="5.48493">
        <ele>1518.9</ele>
        <time>2021-08-31T14:17:34Z</time>
      </trkpt>
      <trkpt lat="45.04716" lon="5.48493">
        <ele>1518.9</ele>
        <time>2021-08-31T14:17:36Z</time>
      </trkpt>
      <trkpt lat="45.04716" lon="5.48493">
        <ele>1518.9</ele>
        <time>2021-08-31T14:17:37Z</time>
      </trkpt>
      <trkpt lat="45.04716" lon="5.48493">
        <ele>1518.9</ele>
        <time>2021-08-31T14:17:38Z</time>
      </trkpt>
      <trkpt lat="45.04707" lon="5.48508">
        <ele>1519.5</ele>
        <time>2021-08-31T14:18:44Z</time>
      </trkpt>
      <trkpt lat="45.047" lon="5.48503">
        <ele>1519.9</ele>
        <time>2021-08-31T14:18:46Z</time>
      </trkpt>
      <trkpt lat="45.04695" lon="5.485">
        <ele>1520.2</ele>
        <time>2021-08-31T14:18:47Z</time>
      </trkpt>
      <trkpt lat="45.04687" lon="5.48496">
        <ele>1520.6</ele>
        <time>2021-08-31T14:18:49Z</time>
      </trkpt>
      <trkpt lat="45.0468" lon="5.48494">
        <ele>1520.9</ele>
        <time>2021-08-31T14:18:51Z</time>
      </trkpt>
      <trkpt lat="45.04678" lon="5.48494">
        <ele>1521</ele>
        <time>2021-08-31T14:18:52Z</time>
      </trkpt>
      <trkpt lat="45.04673" lon="5.48491">
        <ele>1521.2</ele>
        <time>2021-08-31T14:18:54Z</time>
      </trkpt>
      <trkpt lat="45.0467" lon="5.4849">
        <ele>1521.4</ele>
        <time>2021-08-31T14:18:55Z</time>
      </trkpt>
      <trkpt lat="45.04669" lon="5.4849">
        <ele>1521.4</ele>
        <time>2021-08-31T14:18:56Z</time>
      </trkpt>
      <trkpt lat="45.04666" lon="5.48486">
        <ele>1521.6</ele>
        <time>2021-08-31T14:18:58Z</time>
      </trkpt>
      <trkpt lat="45.04663" lon="5.48485">
        <ele>1521.8</ele>
        <time>2021-08-31T14:18:59Z</time>
      </trkpt>
      <trkpt lat="45.04662" lon="5.48485">
        <ele>1521.8</ele>
        <time>2021-08-31T14:19:00Z</time>
      </trkpt>
      <trkpt lat="45.04659" lon="5.48485">
        <ele>1522</ele>
        <time>2021-08-31T14:19:01Z</time>
      </trkpt>
      <trkpt lat="45.04656" lon="5.48482">
        <ele>1522.2</ele>
        <time>2021-08-31T14:19:02Z</time>
      </trkpt>
      <trkpt lat="45.04653" lon="5.48478">
        <ele>1522.5</ele>
        <time>2021-08-31T14:19:04Z</time>
      </trkpt>
      <trkpt lat="45.0465" lon="5.48474">
        <ele>1522.7</ele>
        <time>2021-08-31T14:19:05Z</time>
      </trkpt>
      <trkpt lat="45.04647" lon="5.48469">
        <ele>1522.9</ele>
        <time>2021-08-31T14:19:06Z</time>
      </trkpt>
      <trkpt lat="45.04643" lon="5.48465">
        <ele>1523.2</ele>
        <time>2021-08-31T14:19:08Z</time>
      </trkpt>
      <trkpt lat="45.04638" lon="5.48459">
        <ele>1523.5</ele>
        <time>2021-08-31T14:19:10Z</time>
      </trkpt>
      <trkpt lat="45.04633" lon="5.48455">
        <ele>1523.7</ele>
        <time>2021-08-31T14:19:12Z</time>
      </trkpt>
      <trkpt lat="45.0463" lon="5.48454">
        <ele>1523.9</ele>
        <time>2021-08-31T14:19:13Z</time>
      </trkpt>
      <trkpt lat="45.04626" lon="5.48455">
        <ele>1524.1</ele>
        <time>2021-08-31T14:19:14Z</time>
      </trkpt>
      <trkpt lat="45.04624" lon="5.48455">
        <ele>1524.2</ele>
        <time>2021-08-31T14:19:15Z</time>
      </trkpt>
      <trkpt lat="45.04621" lon="5.48454">
        <ele>1524.3</ele>
        <time>2021-08-31T14:19:16Z</time>
      </trkpt>
      <trkpt lat="45.04617" lon="5.48452">
        <ele>1524.5</ele>
        <time>2021-08-31T14:19:18Z</time>
      </trkpt>
      <trkpt lat="45.04615" lon="5.48451">
        <ele>1524.6</ele>
        <time>2021-08-31T14:19:19Z</time>
      </trkpt>
      <trkpt lat="45.04614" lon="5.48451">
        <ele>1524.6</ele>
        <time>2021-08-31T14:19:20Z</time>
      </trkpt>
      <trkpt lat="45.04612" lon="5.48449">
        <ele>1524.7</ele>
        <time>2021-08-31T14:19:22Z</time>
      </trkpt>
      <trkpt lat="45.04609" lon="5.48447">
        <ele>1524.9</ele>
        <time>2021-08-31T14:19:24Z</time>
      </trkpt>
      <trkpt lat="45.04606" lon="5.48446">
        <ele>1525</ele>
        <time>2021-08-31T14:19:25Z</time>
      </trkpt>
      <trkpt lat="45.04602" lon="5.48444">
        <ele>1525.2</ele>
        <time>2021-08-31T14:19:27Z</time>
      </trkpt>
      <trkpt lat="45.04599" lon="5.48441">
        <ele>1525.3</ele>
        <time>2021-08-31T14:19:28Z</time>
      </trkpt>
      <trkpt lat="45.04598" lon="5.4844">
        <ele>1525.3</ele>
        <time>2021-08-31T14:19:29Z</time>
      </trkpt>
      <trkpt lat="45.04594" lon="5.48438">
        <ele>1525.5</ele>
        <time>2021-08-31T14:19:31Z</time>
      </trkpt>
      <trkpt lat="45.04593" lon="5.48437">
        <ele>1525.5</ele>
        <time>2021-08-31T14:19:32Z</time>
      </trkpt>
      <trkpt lat="45.04589" lon="5.48435">
        <ele>1525.7</ele>
        <time>2021-08-31T14:19:34Z</time>
      </trkpt>
      <trkpt lat="45.04585" lon="5.48431">
        <ele>1525.9</ele>
        <time>2021-08-31T14:19:36Z</time>
      </trkpt>
      <trkpt lat="45.04581" lon="5.48429">
        <ele>1526</ele>
        <time>2021-08-31T14:19:37Z</time>
      </trkpt>
      <trkpt lat="45.04577" lon="5.48427">
        <ele>1526.1</ele>
        <time>2021-08-31T14:19:39Z</time>
      </trkpt>
      <trkpt lat="45.04576" lon="5.48426">
        <ele>1526.2</ele>
        <time>2021-08-31T14:19:40Z</time>
      </trkpt>
      <trkpt lat="45.04575" lon="5.48425">
        <ele>1526.2</ele>
        <time>2021-08-31T14:19:41Z</time>
      </trkpt>
      <trkpt lat="45.04573" lon="5.48423">
        <ele>1526.3</ele>
        <time>2021-08-31T14:19:42Z</time>
      </trkpt>
      <trkpt lat="45.0457" lon="5.48419">
        <ele>1526.4</ele>
        <time>2021-08-31T14:19:44Z</time>
      </trkpt>
      <trkpt lat="45.04567" lon="5.48416">
        <ele>1526.5</ele>
        <time>2021-08-31T14:19:45Z</time>
      </trkpt>
      <trkpt lat="45.04565" lon="5.48414">
        <ele>1526.6</ele>
        <time>2021-08-31T14:19:46Z</time>
      </trkpt>
      <trkpt lat="45.04561" lon="5.48411">
        <ele>1526.8</ele>
        <time>2021-08-31T14:19:48Z</time>
      </trkpt>
      <trkpt lat="45.04559" lon="5.48409">
        <ele>1526.9</ele>
        <time>2021-08-31T14:19:49Z</time>
      </trkpt>
      <trkpt lat="45.04556" lon="5.48406">
        <ele>1527</ele>
        <time>2021-08-31T14:19:51Z</time>
      </trkpt>
      <trkpt lat="45.04552" lon="5.48404">
        <ele>1527.1</ele>
        <time>2021-08-31T14:19:52Z</time>
      </trkpt>
      <trkpt lat="45.04548" lon="5.48401">
        <ele>1527.2</ele>
        <time>2021-08-31T14:19:54Z</time>
      </trkpt>
      <trkpt lat="45.04546" lon="5.48399">
        <ele>1527.3</ele>
        <time>2021-08-31T14:19:55Z</time>
      </trkpt>
      <trkpt lat="45.04545" lon="5.48397">
        <ele>1527.3</ele>
        <time>2021-08-31T14:19:56Z</time>
      </trkpt>
      <trkpt lat="45.04541" lon="5.48394">
        <ele>1527.4</ele>
        <time>2021-08-31T14:19:58Z</time>
      </trkpt>
      <trkpt lat="45.04538" lon="5.48392">
        <ele>1527.5</ele>
        <time>2021-08-31T14:19:59Z</time>
      </trkpt>
      <trkpt lat="45.04537" lon="5.48391">
        <ele>1527.6</ele>
        <time>2021-08-31T14:20:00Z</time>
      </trkpt>
      <trkpt lat="45.04535" lon="5.48389">
        <ele>1527.6</ele>
        <time>2021-08-31T14:20:01Z</time>
      </trkpt>
      <trkpt lat="45.04532" lon="5.48386">
        <ele>1527.7</ele>
        <time>2021-08-31T14:20:03Z</time>
      </trkpt>
      <trkpt lat="45.04529" lon="5.48381">
        <ele>1527.8</ele>
        <time>2021-08-31T14:20:05Z</time>
      </trkpt>
      <trkpt lat="45.04526" lon="5.48379">
        <ele>1527.9</ele>
        <time>2021-08-31T14:20:06Z</time>
      </trkpt>
      <trkpt lat="45.04524" lon="5.48376">
        <ele>1527.9</ele>
        <time>2021-08-31T14:20:08Z</time>
      </trkpt>
      <trkpt lat="45.04521" lon="5.48374">
        <ele>1527.9</ele>
        <time>2021-08-31T14:20:09Z</time>
      </trkpt>
      <trkpt lat="45.04519" lon="5.48371">
        <ele>1528</ele>
        <time>2021-08-31T14:20:10Z</time>
      </trkpt>
      <trkpt lat="45.04517" lon="5.48367">
        <ele>1528</ele>
        <time>2021-08-31T14:20:12Z</time>
      </trkpt>
      <trkpt lat="45.04515" lon="5.48363">
        <ele>1528.1</ele>
        <time>2021-08-31T14:20:13Z</time>
      </trkpt>
      <trkpt lat="45.04514" lon="5.48361">
        <ele>1528.1</ele>
        <time>2021-08-31T14:20:14Z</time>
      </trkpt>
      <trkpt lat="45.04512" lon="5.48355">
        <ele>1528.1</ele>
        <time>2021-08-31T14:20:16Z</time>
      </trkpt>
      <trkpt lat="45.04511" lon="5.48351">
        <ele>1528.1</ele>
        <time>2021-08-31T14:20:17Z</time>
      </trkpt>
      <trkpt lat="45.0451" lon="5.48348">
        <ele>1528.2</ele>
        <time>2021-08-31T14:20:18Z</time>
      </trkpt>
      <trkpt lat="45.04508" lon="5.48344">
        <ele>1528.2</ele>
        <time>2021-08-31T14:20:20Z</time>
      </trkpt>
      <trkpt lat="45.04506" lon="5.48341">
        <ele>1528.2</ele>
        <time>2021-08-31T14:20:22Z</time>
      </trkpt>
      <trkpt lat="45.04505" lon="5.48339">
        <ele>1528.2</ele>
        <time>2021-08-31T14:20:23Z</time>
      </trkpt>
      <trkpt lat="45.04504" lon="5.48337">
        <ele>1528.2</ele>
        <time>2021-08-31T14:20:24Z</time>
      </trkpt>
      <trkpt lat="45.04504" lon="5.48337">
        <ele>1528.2</ele>
        <time>2021-08-31T14:20:26Z</time>
      </trkpt>
      <trkpt lat="45.04504" lon="5.48337">
        <ele>1528.2</ele>
        <time>2021-08-31T14:20:28Z</time>
      </trkpt>
      <trkpt lat="45.04505" lon="5.48337">
        <ele>1528.2</ele>
        <time>2021-08-31T14:20:29Z</time>
      </trkpt>
      <trkpt lat="45.04505" lon="5.48336">
        <ele>1528.2</ele>
        <time>2021-08-31T14:20:30Z</time>
      </trkpt>
      <trkpt lat="45.04505" lon="5.48336">
        <ele>1528.2</ele>
        <time>2021-08-31T14:20:32Z</time>
      </trkpt>
      <trkpt lat="45.04505" lon="5.48336">
        <ele>1528.2</ele>
        <time>2021-08-31T14:20:34Z</time>
      </trkpt>
      <trkpt lat="45.04505" lon="5.48336">
        <ele>1528.2</ele>
        <time>2021-08-31T14:36:08Z</time>
      </trkpt>
      <trkpt lat="45.04506" lon="5.48335">
        <ele>1528.2</ele>
        <time>2021-08-31T14:36:10Z</time>
      </trkpt>
      <trkpt lat="45.04506" lon="5.48335">
        <ele>1528.2</ele>
        <time>2021-08-31T14:36:12Z</time>
      </trkpt>
      <trkpt lat="45.04506" lon="5.48335">
        <ele>1528.2</ele>
        <time>2021-08-31T14:36:14Z</time>
      </trkpt>
      <trkpt lat="45.04506" lon="5.48335">
        <ele>1528.2</ele>
        <time>2021-08-31T14:36:16Z</time>
      </trkpt>
      <trkpt lat="45.04506" lon="5.48334">
        <ele>1528.2</ele>
        <time>2021-08-31T14:36:17Z</time>
      </trkpt>
      <trkpt lat="45.04507" lon="5.48334">
        <ele>1528.2</ele>
        <time>2021-08-31T14:36:19Z</time>
      </trkpt>
      <trkpt lat="45.04507" lon="5.48334">
        <ele>1528.2</ele>
        <time>2021-08-31T14:36:21Z</time>
      </trkpt>
      <trkpt lat="45.04507" lon="5.48334">
        <ele>1528.2</ele>
        <time>2021-08-31T14:36:22Z</time>
      </trkpt>
      <trkpt lat="45.04507" lon="5.48333">
        <ele>1528.2</ele>
        <time>2021-08-31T14:36:23Z</time>
      </trkpt>
      <trkpt lat="45.04508" lon="5.48333">
        <ele>1528.2</ele>
        <time>2021-08-31T14:36:24Z</time>
      </trkpt>
      <trkpt lat="45.04508" lon="5.48333">
        <ele>1528.2</ele>
        <time>2021-08-31T14:36:26Z</time>
      </trkpt>
      <trkpt lat="45.04508" lon="5.48333">
        <ele>1528.2</ele>
        <time>2021-08-31T14:36:28Z</time>
      </trkpt>
      <trkpt lat="45.04508" lon="5.48332">
        <ele>1528.2</ele>
        <time>2021-08-31T14:36:30Z</time>
      </trkpt>
      <trkpt lat="45.04508" lon="5.48332">
        <ele>1528.2</ele>
        <time>2021-08-31T14:36:32Z</time>
      </trkpt>
      <trkpt lat="45.04509" lon="5.48332">
        <ele>1528.2</ele>
        <time>2021-08-31T14:36:34Z</time>
      </trkpt>
      <trkpt lat="45.04509" lon="5.48332">
        <ele>1528.2</ele>
        <time>2021-08-31T14:36:36Z</time>
      </trkpt>
      <trkpt lat="45.04509" lon="5.48331">
        <ele>1528.2</ele>
        <time>2021-08-31T14:36:37Z</time>
      </trkpt>
      <trkpt lat="45.04509" lon="5.48331">
        <ele>1528.2</ele>
        <time>2021-08-31T14:36:38Z</time>
      </trkpt>
      <trkpt lat="45.04509" lon="5.48331">
        <ele>1528.2</ele>
        <time>2021-08-31T14:36:40Z</time>
      </trkpt>
      <trkpt lat="45.0451" lon="5.48331">
        <ele>1528.2</ele>
        <time>2021-08-31T14:36:42Z</time>
      </trkpt>
      <trkpt lat="45.0451" lon="5.4833">
        <ele>1528.2</ele>
        <time>2021-08-31T14:36:44Z</time>
      </trkpt>
      <trkpt lat="45.0451" lon="5.4833">
        <ele>1528.2</ele>
        <time>2021-08-31T14:36:46Z</time>
      </trkpt>
      <trkpt lat="45.0451" lon="5.4833">
        <ele>1528.2</ele>
        <time>2021-08-31T14:36:47Z</time>
      </trkpt>
      <trkpt lat="45.0451" lon="5.4833">
        <ele>1528.2</ele>
        <time>2021-08-31T14:36:49Z</time>
      </trkpt>
      <trkpt lat="45.04511" lon="5.48329">
        <ele>1528.2</ele>
        <time>2021-08-31T14:36:50Z</time>
      </trkpt>
      <trkpt lat="45.04511" lon="5.48329">
        <ele>1528.2</ele>
        <time>2021-08-31T14:36:52Z</time>
      </trkpt>
      <trkpt lat="45.04511" lon="5.48329">
        <ele>1528.2</ele>
        <time>2021-08-31T14:36:54Z</time>
      </trkpt>
      <trkpt lat="45.04511" lon="5.48329">
        <ele>1528.2</ele>
        <time>2021-08-31T14:36:56Z</time>
      </trkpt>
      <trkpt lat="45.04512" lon="5.48328">
        <ele>1528.2</ele>
        <time>2021-08-31T14:36:58Z</time>
      </trkpt>
      <trkpt lat="45.04512" lon="5.48328">
        <ele>1528.2</ele>
        <time>2021-08-31T14:36:59Z</time>
      </trkpt>
      <trkpt lat="45.04512" lon="5.48328">
        <ele>1528.2</ele>
        <time>2021-08-31T14:37:00Z</time>
      </trkpt>
      <trkpt lat="45.04512" lon="5.48328">
        <ele>1528.2</ele>
        <time>2021-08-31T14:37:02Z</time>
      </trkpt>
      <trkpt lat="45.04512" lon="5.48327">
        <ele>1528.2</ele>
        <time>2021-08-31T14:37:04Z</time>
      </trkpt>
      <trkpt lat="45.04513" lon="5.48327">
        <ele>1528.2</ele>
        <time>2021-08-31T14:37:06Z</time>
      </trkpt>
      <trkpt lat="45.04513" lon="5.48327">
        <ele>1528.2</ele>
        <time>2021-08-31T14:37:07Z</time>
      </trkpt>
      <trkpt lat="45.04513" lon="5.48327">
        <ele>1528.2</ele>
        <time>2021-08-31T14:37:09Z</time>
      </trkpt>
      <trkpt lat="45.04513" lon="5.48326">
        <ele>1528.2</ele>
        <time>2021-08-31T14:37:10Z</time>
      </trkpt>
      <trkpt lat="45.04513" lon="5.48326">
        <ele>1528.2</ele>
        <time>2021-08-31T14:37:12Z</time>
      </trkpt>
      <trkpt lat="45.04514" lon="5.48326">
        <ele>1528.2</ele>
        <time>2021-08-31T14:37:13Z</time>
      </trkpt>
      <trkpt lat="45.04514" lon="5.48326">
        <ele>1528.2</ele>
        <time>2021-08-31T14:37:14Z</time>
      </trkpt>
      <trkpt lat="45.04514" lon="5.48325">
        <ele>1528.2</ele>
        <time>2021-08-31T14:37:15Z</time>
      </trkpt>
      <trkpt lat="45.04514" lon="5.48325">
        <ele>1528.2</ele>
        <time>2021-08-31T14:37:16Z</time>
      </trkpt>
      <trkpt lat="45.04517" lon="5.48328">
        <ele>1528.2</ele>
        <time>2021-08-31T14:37:18Z</time>
      </trkpt>
      <trkpt lat="45.04518" lon="5.48329">
        <ele>1528.2</ele>
        <time>2021-08-31T14:37:19Z</time>
      </trkpt>
      <trkpt lat="45.04518" lon="5.48329">
        <ele>1528.2</ele>
        <time>2021-08-31T14:37:20Z</time>
      </trkpt>
      <trkpt lat="45.04518" lon="5.48329">
        <ele>1528.2</ele>
        <time>2021-08-31T14:37:22Z</time>
      </trkpt>
      <trkpt lat="45.04518" lon="5.48329">
        <ele>1528.2</ele>
        <time>2021-08-31T14:37:23Z</time>
      </trkpt>
      <trkpt lat="45.04519" lon="5.4833">
        <ele>1528.2</ele>
        <time>2021-08-31T14:37:25Z</time>
      </trkpt>
      <trkpt lat="45.04519" lon="5.4833">
        <ele>1528.2</ele>
        <time>2021-08-31T14:37:26Z</time>
      </trkpt>
      <trkpt lat="45.04519" lon="5.4833">
        <ele>1528.2</ele>
        <time>2021-08-31T14:37:28Z</time>
      </trkpt>
      <trkpt lat="45.04519" lon="5.4833">
        <ele>1528.2</ele>
        <time>2021-08-31T14:37:30Z</time>
      </trkpt>
      <trkpt lat="45.04519" lon="5.4833">
        <ele>1528.2</ele>
        <time>2021-08-31T14:37:31Z</time>
      </trkpt>
      <trkpt lat="45.04519" lon="5.4833">
        <ele>1528.2</ele>
        <time>2021-08-31T14:37:33Z</time>
      </trkpt>
      <trkpt lat="45.04519" lon="5.4833">
        <ele>1528.2</ele>
        <time>2021-08-31T14:37:34Z</time>
      </trkpt>
      <trkpt lat="45.04519" lon="5.4833">
        <ele>1528.2</ele>
        <time>2021-08-31T14:37:36Z</time>
      </trkpt>
      <trkpt lat="45.04519" lon="5.4833">
        <ele>1528.2</ele>
        <time>2021-08-31T14:37:38Z</time>
      </trkpt>
      <trkpt lat="45.04519" lon="5.4833">
        <ele>1528.2</ele>
        <time>2021-08-31T14:37:40Z</time>
      </trkpt>
      <trkpt lat="45.04519" lon="5.4833">
        <ele>1528.2</ele>
        <time>2021-08-31T14:37:41Z</time>
      </trkpt>
      <trkpt lat="45.04519" lon="5.4833">
        <ele>1528.2</ele>
        <time>2021-08-31T14:37:42Z</time>
      </trkpt>
      <trkpt lat="45.04519" lon="5.4833">
        <ele>1528.2</ele>
        <time>2021-08-31T14:37:44Z</time>
      </trkpt>
      <trkpt lat="45.04519" lon="5.4833">
        <ele>1528.2</ele>
        <time>2021-08-31T14:37:46Z</time>
      </trkpt>
      <trkpt lat="45.04519" lon="5.4833">
        <ele>1528.2</ele>
        <time>2021-08-31T14:37:47Z</time>
      </trkpt>
      <trkpt lat="45.04519" lon="5.4833">
        <ele>1528.2</ele>
        <time>2021-08-31T14:37:48Z</time>
      </trkpt>
      <trkpt lat="45.04519" lon="5.4833">
        <ele>1528.2</ele>
        <time>2021-08-31T14:37:50Z</time>
      </trkpt>
      <trkpt lat="45.04519" lon="5.4833">
        <ele>1528.2</ele>
        <time>2021-08-31T14:37:52Z</time>
      </trkpt>
      <trkpt lat="45.04519" lon="5.4833">
        <ele>1528.2</ele>
        <time>2021-08-31T14:37:53Z</time>
      </trkpt>
      <trkpt lat="45.04519" lon="5.4833">
        <ele>1528.2</ele>
        <time>2021-08-31T14:37:55Z</time>
      </trkpt>
      <trkpt lat="45.04519" lon="5.4833">
        <ele>1528.2</ele>
        <time>2021-08-31T14:37:57Z</time>
      </trkpt>
      <trkpt lat="45.04519" lon="5.4833">
        <ele>1528.2</ele>
        <time>2021-08-31T14:37:58Z</time>
      </trkpt>
      <trkpt lat="45.04519" lon="5.4833">
        <ele>1528.2</ele>
        <time>2021-08-31T14:37:59Z</time>
      </trkpt>
      <trkpt lat="45.04519" lon="5.4833">
        <ele>1528.2</ele>
        <time>2021-08-31T14:38:01Z</time>
      </trkpt>
      <trkpt lat="45.04519" lon="5.4833">
        <ele>1528.2</ele>
        <time>2021-08-31T14:38:02Z</time>
      </trkpt>
      <trkpt lat="45.04519" lon="5.4833">
        <ele>1528.2</ele>
        <time>2021-08-31T14:38:04Z</time>
      </trkpt>
      <trkpt lat="45.04519" lon="5.4833">
        <ele>1528.2</ele>
        <time>2021-08-31T14:38:06Z</time>
      </trkpt>
      <trkpt lat="45.04519" lon="5.4833">
        <ele>1528.2</ele>
        <time>2021-08-31T14:38:07Z</time>
      </trkpt>
      <trkpt lat="45.04519" lon="5.4833">
        <ele>1528.2</ele>
        <time>2021-08-31T14:38:09Z</time>
      </trkpt>
      <trkpt lat="45.04519" lon="5.4833">
        <ele>1528.2</ele>
        <time>2021-08-31T14:38:10Z</time>
      </trkpt>
      <trkpt lat="45.04519" lon="5.4833">
        <ele>1528.2</ele>
        <time>2021-08-31T14:38:11Z</time>
      </trkpt>
      <trkpt lat="45.04519" lon="5.4833">
        <ele>1528.2</ele>
        <time>2021-08-31T14:38:13Z</time>
      </trkpt>
      <trkpt lat="45.04519" lon="5.4833">
        <ele>1528.2</ele>
        <time>2021-08-31T14:38:15Z</time>
      </trkpt>
      <trkpt lat="45.04513" lon="5.48326">
        <ele>1528.2</ele>
        <time>2021-08-31T14:38:17Z</time>
      </trkpt>
      <trkpt lat="45.04512" lon="5.48326">
        <ele>1528.2</ele>
        <time>2021-08-31T14:38:18Z</time>
      </trkpt>
      <trkpt lat="45.04511" lon="5.48325">
        <ele>1528.2</ele>
        <time>2021-08-31T14:38:19Z</time>
      </trkpt>
      <trkpt lat="45.04511" lon="5.48325">
        <ele>1528.2</ele>
        <time>2021-08-31T14:38:20Z</time>
      </trkpt>
      <trkpt lat="45.04511" lon="5.48325">
        <ele>1528.2</ele>
        <time>2021-08-31T14:38:21Z</time>
      </trkpt>
      <trkpt lat="45.04511" lon="5.48325">
        <ele>1528.2</ele>
        <time>2021-08-31T14:38:22Z</time>
      </trkpt>
      <trkpt lat="45.04511" lon="5.48325">
        <ele>1528.2</ele>
        <time>2021-08-31T14:38:23Z</time>
      </trkpt>
      <trkpt lat="45.04511" lon="5.48325">
        <ele>1528.2</ele>
        <time>2021-08-31T14:38:25Z</time>
      </trkpt>
      <trkpt lat="45.04511" lon="5.48325">
        <ele>1528.2</ele>
        <time>2021-08-31T14:38:26Z</time>
      </trkpt>
      <trkpt lat="45.04511" lon="5.48325">
        <ele>1528.2</ele>
        <time>2021-08-31T14:38:28Z</time>
      </trkpt>
      <trkpt lat="45.04511" lon="5.48325">
        <ele>1528.2</ele>
        <time>2021-08-31T14:38:30Z</time>
      </trkpt>
      <trkpt lat="45.04511" lon="5.48325">
        <ele>1528.2</ele>
        <time>2021-08-31T14:38:31Z</time>
      </trkpt>
      <trkpt lat="45.04511" lon="5.48325">
        <ele>1528.2</ele>
        <time>2021-08-31T14:38:32Z</time>
      </trkpt>
      <trkpt lat="45.04511" lon="5.48325">
        <ele>1528.2</ele>
        <time>2021-08-31T14:38:34Z</time>
      </trkpt>
      <trkpt lat="45.04511" lon="5.48325">
        <ele>1528.2</ele>
        <time>2021-08-31T14:38:35Z</time>
      </trkpt>
      <trkpt lat="45.04511" lon="5.48325">
        <ele>1528.2</ele>
        <time>2021-08-31T14:38:37Z</time>
      </trkpt>
      <trkpt lat="45.04511" lon="5.48325">
        <ele>1528.2</ele>
        <time>2021-08-31T14:38:38Z</time>
      </trkpt>
      <trkpt lat="45.04511" lon="5.48325">
        <ele>1528.2</ele>
        <time>2021-08-31T14:38:40Z</time>
      </trkpt>
      <trkpt lat="45.04511" lon="5.48325">
        <ele>1528.2</ele>
        <time>2021-08-31T14:38:41Z</time>
      </trkpt>
      <trkpt lat="45.04511" lon="5.48325">
        <ele>1528.2</ele>
        <time>2021-08-31T14:38:43Z</time>
      </trkpt>
      <trkpt lat="45.0451" lon="5.48325">
        <ele>1528.2</ele>
        <time>2021-08-31T14:38:44Z</time>
      </trkpt>
      <trkpt lat="45.0451" lon="5.48325">
        <ele>1528.2</ele>
        <time>2021-08-31T14:38:45Z</time>
      </trkpt>
      <trkpt lat="45.0451" lon="5.48325">
        <ele>1528.2</ele>
        <time>2021-08-31T14:38:47Z</time>
      </trkpt>
      <trkpt lat="45.0451" lon="5.48325">
        <ele>1528.2</ele>
        <time>2021-08-31T14:38:49Z</time>
      </trkpt>
      <trkpt lat="45.0451" lon="5.48325">
        <ele>1528.2</ele>
        <time>2021-08-31T14:38:51Z</time>
      </trkpt>
      <trkpt lat="45.0451" lon="5.48325">
        <ele>1528.2</ele>
        <time>2021-08-31T14:38:52Z</time>
      </trkpt>
      <trkpt lat="45.04511" lon="5.48325">
        <ele>1528.2</ele>
        <time>2021-08-31T14:38:54Z</time>
      </trkpt>
      <trkpt lat="45.0451" lon="5.48324">
        <ele>1528.2</ele>
        <time>2021-08-31T14:38:56Z</time>
      </trkpt>
      <trkpt lat="45.04509" lon="5.48323">
        <ele>1528.2</ele>
        <time>2021-08-31T14:38:57Z</time>
      </trkpt>
      <trkpt lat="45.04509" lon="5.48321">
        <ele>1528.2</ele>
        <time>2021-08-31T14:38:58Z</time>
      </trkpt>
      <trkpt lat="45.04508" lon="5.48319">
        <ele>1528.2</ele>
        <time>2021-08-31T14:38:59Z</time>
      </trkpt>
      <trkpt lat="45.04507" lon="5.48316">
        <ele>1528.2</ele>
        <time>2021-08-31T14:39:01Z</time>
      </trkpt>
      <trkpt lat="45.04507" lon="5.48314">
        <ele>1528.3</ele>
        <time>2021-08-31T14:39:03Z</time>
      </trkpt>
      <trkpt lat="45.04508" lon="5.48313">
        <ele>1528.3</ele>
        <time>2021-08-31T14:39:04Z</time>
      </trkpt>
      <trkpt lat="45.04508" lon="5.48313">
        <ele>1528.3</ele>
        <time>2021-08-31T14:39:05Z</time>
      </trkpt>
      <trkpt lat="45.0451" lon="5.48313">
        <ele>1528.3</ele>
        <time>2021-08-31T14:39:06Z</time>
      </trkpt>
      <trkpt lat="45.04518" lon="5.48312">
        <ele>1528.5</ele>
        <time>2021-08-31T14:39:07Z</time>
      </trkpt>
      <trkpt lat="45.04527" lon="5.48314">
        <ele>1528.7</ele>
        <time>2021-08-31T14:39:09Z</time>
      </trkpt>
      <trkpt lat="45.04529" lon="5.48314">
        <ele>1528.7</ele>
        <time>2021-08-31T14:39:11Z</time>
      </trkpt>
      <trkpt lat="45.04528" lon="5.48315">
        <ele>1528.7</ele>
        <time>2021-08-31T14:39:12Z</time>
      </trkpt>
      <trkpt lat="45.04528" lon="5.48316">
        <ele>1528.7</ele>
        <time>2021-08-31T14:39:13Z</time>
      </trkpt>
      <trkpt lat="45.04529" lon="5.48313">
        <ele>1528.6</ele>
        <time>2021-08-31T14:39:16Z</time>
      </trkpt>
      <trkpt lat="45.04528" lon="5.48313">
        <ele>1528.6</ele>
        <time>2021-08-31T14:39:18Z</time>
      </trkpt>
      <trkpt lat="45.04527" lon="5.48313">
        <ele>1528.6</ele>
        <time>2021-08-31T14:39:20Z</time>
      </trkpt>
      <trkpt lat="45.04513" lon="5.48309">
        <ele>1528.3</ele>
        <time>2021-08-31T14:45:21Z</time>
      </trkpt>
      <trkpt lat="45.04507" lon="5.48305">
        <ele>1528.1</ele>
        <time>2021-08-31T14:45:23Z</time>
      </trkpt>
      <trkpt lat="45.04503" lon="5.48302">
        <ele>1527.8</ele>
        <time>2021-08-31T14:45:24Z</time>
      </trkpt>
      <trkpt lat="45.04496" lon="5.48297">
        <ele>1527.2</ele>
        <time>2021-08-31T14:45:26Z</time>
      </trkpt>
      <trkpt lat="45.04496" lon="5.48297">
        <ele>1527.1</ele>
        <time>2021-08-31T14:45:27Z</time>
      </trkpt>
      <trkpt lat="45.04496" lon="5.48298">
        <ele>1527</ele>
        <time>2021-08-31T14:45:28Z</time>
      </trkpt>
      <trkpt lat="45.04495" lon="5.48298">
        <ele>1527</ele>
        <time>2021-08-31T14:45:30Z</time>
      </trkpt>
      <trkpt lat="45.04495" lon="5.48298">
        <ele>1527</ele>
        <time>2021-08-31T14:45:31Z</time>
      </trkpt>
      <trkpt lat="45.04495" lon="5.48298">
        <ele>1526.9</ele>
        <time>2021-08-31T14:45:33Z</time>
      </trkpt>
      <trkpt lat="45.04495" lon="5.48298">
        <ele>1526.9</ele>
        <time>2021-08-31T14:45:34Z</time>
      </trkpt>
      <trkpt lat="45.04489" lon="5.48298">
        <ele>1526.1</ele>
        <time>2021-08-31T14:46:06Z</time>
      </trkpt>
      <trkpt lat="45.04487" lon="5.48308">
        <ele>1524.7</ele>
        <time>2021-08-31T14:46:08Z</time>
      </trkpt>
      <trkpt lat="45.0449" lon="5.48327">
        <ele>1522.5</ele>
        <time>2021-08-31T14:46:10Z</time>
      </trkpt>
      <trkpt lat="45.04495" lon="5.48345">
        <ele>1520.4</ele>
        <time>2021-08-31T14:46:12Z</time>
      </trkpt>
      <trkpt lat="45.04503" lon="5.4836">
        <ele>1518.6</ele>
        <time>2021-08-31T14:46:14Z</time>
      </trkpt>
      <trkpt lat="45.04511" lon="5.48373">
        <ele>1518.3</ele>
        <time>2021-08-31T14:46:16Z</time>
      </trkpt>
      <trkpt lat="45.04513" lon="5.48378">
        <ele>1517.4</ele>
        <time>2021-08-31T14:46:17Z</time>
      </trkpt>
      <trkpt lat="45.04516" lon="5.48385">
        <ele>1516.3</ele>
        <time>2021-08-31T14:46:18Z</time>
      </trkpt>
      <trkpt lat="45.04514" lon="5.48385">
        <ele>1516</ele>
        <time>2021-08-31T14:46:20Z</time>
      </trkpt>
      <trkpt lat="45.04512" lon="5.48385">
        <ele>1515.7</ele>
        <time>2021-08-31T14:46:21Z</time>
      </trkpt>
      <trkpt lat="45.04511" lon="5.48385">
        <ele>1515.4</ele>
        <time>2021-08-31T14:46:22Z</time>
      </trkpt>
      <trkpt lat="45.04505" lon="5.48382">
        <ele>1514.5</ele>
        <time>2021-08-31T14:46:23Z</time>
      </trkpt>
      <trkpt lat="45.04493" lon="5.48375">
        <ele>1512.8</ele>
        <time>2021-08-31T14:46:25Z</time>
      </trkpt>
      <trkpt lat="45.04483" lon="5.48367">
        <ele>1511.3</ele>
        <time>2021-08-31T14:46:26Z</time>
      </trkpt>
      <trkpt lat="45.04474" lon="5.48359">
        <ele>1509.9</ele>
        <time>2021-08-31T14:46:28Z</time>
      </trkpt>
      <trkpt lat="45.04467" lon="5.48354">
        <ele>1508.9</ele>
        <time>2021-08-31T14:46:29Z</time>
      </trkpt>
      <trkpt lat="45.04461" lon="5.48352">
        <ele>1508.1</ele>
        <time>2021-08-31T14:46:30Z</time>
      </trkpt>
      <trkpt lat="45.04447" lon="5.48339">
        <ele>1505.7</ele>
        <time>2021-08-31T14:46:32Z</time>
      </trkpt>
      <trkpt lat="45.0444" lon="5.4833">
        <ele>1504.5</ele>
        <time>2021-08-31T14:46:33Z</time>
      </trkpt>
      <trkpt lat="45.04434" lon="5.48323">
        <ele>1503.6</ele>
        <time>2021-08-31T14:46:34Z</time>
      </trkpt>
      <trkpt lat="45.04429" lon="5.48316">
        <ele>1502.6</ele>
        <time>2021-08-31T14:46:35Z</time>
      </trkpt>
      <trkpt lat="45.04424" lon="5.4831">
        <ele>1501.8</ele>
        <time>2021-08-31T14:46:36Z</time>
      </trkpt>
      <trkpt lat="45.04418" lon="5.48303">
        <ele>1500.9</ele>
        <time>2021-08-31T14:46:37Z</time>
      </trkpt>
      <trkpt lat="45.04414" lon="5.48298">
        <ele>1500.3</ele>
        <time>2021-08-31T14:46:38Z</time>
      </trkpt>
      <trkpt lat="45.04415" lon="5.48294">
        <ele>1500</ele>
        <time>2021-08-31T14:46:39Z</time>
      </trkpt>
      <trkpt lat="45.04413" lon="5.48289">
        <ele>1499.4</ele>
        <time>2021-08-31T14:46:40Z</time>
      </trkpt>
      <trkpt lat="45.04408" lon="5.48279">
        <ele>1498.3</ele>
        <time>2021-08-31T14:46:42Z</time>
      </trkpt>
      <trkpt lat="45.04404" lon="5.48273">
        <ele>1497.6</ele>
        <time>2021-08-31T14:46:43Z</time>
      </trkpt>
      <trkpt lat="45.04398" lon="5.48261">
        <ele>1496.4</ele>
        <time>2021-08-31T14:46:45Z</time>
      </trkpt>
      <trkpt lat="45.04392" lon="5.48244">
        <ele>1494.7</ele>
        <time>2021-08-31T14:46:46Z</time>
      </trkpt>
      <trkpt lat="45.04391" lon="5.48235">
        <ele>1494</ele>
        <time>2021-08-31T14:46:47Z</time>
      </trkpt>
      <trkpt lat="45.0439" lon="5.48228">
        <ele>1493.4</ele>
        <time>2021-08-31T14:46:48Z</time>
      </trkpt>
      <trkpt lat="45.04388" lon="5.48222">
        <ele>1492.9</ele>
        <time>2021-08-31T14:46:49Z</time>
      </trkpt>
      <trkpt lat="45.04388" lon="5.48214">
        <ele>1492.2</ele>
        <time>2021-08-31T14:46:50Z</time>
      </trkpt>
      <trkpt lat="45.04388" lon="5.48199">
        <ele>1490.9</ele>
        <time>2021-08-31T14:46:52Z</time>
      </trkpt>
      <trkpt lat="45.04387" lon="5.48192">
        <ele>1490.3</ele>
        <time>2021-08-31T14:46:53Z</time>
      </trkpt>
      <trkpt lat="45.04386" lon="5.48179">
        <ele>1489.1</ele>
        <time>2021-08-31T14:46:55Z</time>
      </trkpt>
      <trkpt lat="45.04389" lon="5.48173">
        <ele>1488.4</ele>
        <time>2021-08-31T14:46:56Z</time>
      </trkpt>
      <trkpt lat="45.0439" lon="5.48166">
        <ele>1487.7</ele>
        <time>2021-08-31T14:46:58Z</time>
      </trkpt>
      <trkpt lat="45.04391" lon="5.4816">
        <ele>1487.1</ele>
        <time>2021-08-31T14:46:59Z</time>
      </trkpt>
      <trkpt lat="45.04389" lon="5.48152">
        <ele>1486.4</ele>
        <time>2021-08-31T14:47:01Z</time>
      </trkpt>
      <trkpt lat="45.04389" lon="5.48143">
        <ele>1485.5</ele>
        <time>2021-08-31T14:47:02Z</time>
      </trkpt>
      <trkpt lat="45.04392" lon="5.48134">
        <ele>1484.7</ele>
        <time>2021-08-31T14:47:04Z</time>
      </trkpt>
      <trkpt lat="45.04396" lon="5.48129">
        <ele>1484.1</ele>
        <time>2021-08-31T14:47:06Z</time>
      </trkpt>
      <trkpt lat="45.04402" lon="5.48127">
        <ele>1483.3</ele>
        <time>2021-08-31T14:47:08Z</time>
      </trkpt>
      <trkpt lat="45.04416" lon="5.48119">
        <ele>1481.7</ele>
        <time>2021-08-31T14:47:10Z</time>
      </trkpt>
      <trkpt lat="45.04423" lon="5.48115">
        <ele>1480.9</ele>
        <time>2021-08-31T14:47:11Z</time>
      </trkpt>
      <trkpt lat="45.0443" lon="5.48111">
        <ele>1480.1</ele>
        <time>2021-08-31T14:47:12Z</time>
      </trkpt>
      <trkpt lat="45.04438" lon="5.48106">
        <ele>1479.3</ele>
        <time>2021-08-31T14:47:13Z</time>
      </trkpt>
      <trkpt lat="45.04456" lon="5.48098">
        <ele>1477.5</ele>
        <time>2021-08-31T14:47:15Z</time>
      </trkpt>
      <trkpt lat="45.04465" lon="5.48094">
        <ele>1476.6</ele>
        <time>2021-08-31T14:47:16Z</time>
      </trkpt>
      <trkpt lat="45.04474" lon="5.48092">
        <ele>1475.7</ele>
        <time>2021-08-31T14:47:17Z</time>
      </trkpt>
      <trkpt lat="45.0449" lon="5.48089">
        <ele>1474.2</ele>
        <time>2021-08-31T14:47:19Z</time>
      </trkpt>
      <trkpt lat="45.04496" lon="5.48089">
        <ele>1473.6</ele>
        <time>2021-08-31T14:47:20Z</time>
      </trkpt>
      <trkpt lat="45.04502" lon="5.48089">
        <ele>1473.1</ele>
        <time>2021-08-31T14:47:22Z</time>
      </trkpt>
      <trkpt lat="45.04507" lon="5.48087">
        <ele>1472.6</ele>
        <time>2021-08-31T14:47:23Z</time>
      </trkpt>
      <trkpt lat="45.04518" lon="5.48085">
        <ele>1471.6</ele>
        <time>2021-08-31T14:47:25Z</time>
      </trkpt>
      <trkpt lat="45.04524" lon="5.48082">
        <ele>1471</ele>
        <time>2021-08-31T14:47:26Z</time>
      </trkpt>
      <trkpt lat="45.04537" lon="5.48078">
        <ele>1469.9</ele>
        <time>2021-08-31T14:47:28Z</time>
      </trkpt>
      <trkpt lat="45.04544" lon="5.48076">
        <ele>1469.3</ele>
        <time>2021-08-31T14:47:29Z</time>
      </trkpt>
      <trkpt lat="45.0455" lon="5.48075">
        <ele>1468.7</ele>
        <time>2021-08-31T14:47:30Z</time>
      </trkpt>
      <trkpt lat="45.04562" lon="5.48072">
        <ele>1467.7</ele>
        <time>2021-08-31T14:47:32Z</time>
      </trkpt>
      <trkpt lat="45.04568" lon="5.4807">
        <ele>1467.3</ele>
        <time>2021-08-31T14:47:33Z</time>
      </trkpt>
      <trkpt lat="45.0458" lon="5.48064">
        <ele>1466.2</ele>
        <time>2021-08-31T14:47:35Z</time>
      </trkpt>
      <trkpt lat="45.04588" lon="5.48063">
        <ele>1465.6</ele>
        <time>2021-08-31T14:47:37Z</time>
      </trkpt>
      <trkpt lat="45.04593" lon="5.48062">
        <ele>1465.1</ele>
        <time>2021-08-31T14:47:38Z</time>
      </trkpt>
      <trkpt lat="45.04598" lon="5.48061">
        <ele>1464.7</ele>
        <time>2021-08-31T14:47:39Z</time>
      </trkpt>
      <trkpt lat="45.04602" lon="5.48062">
        <ele>1464.4</ele>
        <time>2021-08-31T14:47:40Z</time>
      </trkpt>
      <trkpt lat="45.04607" lon="5.48062">
        <ele>1463.9</ele>
        <time>2021-08-31T14:47:42Z</time>
      </trkpt>
      <trkpt lat="45.04611" lon="5.4806">
        <ele>1463.6</ele>
        <time>2021-08-31T14:47:43Z</time>
      </trkpt>
      <trkpt lat="45.04615" lon="5.48059">
        <ele>1463.2</ele>
        <time>2021-08-31T14:47:44Z</time>
      </trkpt>
      <trkpt lat="45.04621" lon="5.48057">
        <ele>1462.8</ele>
        <time>2021-08-31T14:47:45Z</time>
      </trkpt>
      <trkpt lat="45.04625" lon="5.48055">
        <ele>1462.4</ele>
        <time>2021-08-31T14:47:46Z</time>
      </trkpt>
      <trkpt lat="45.04633" lon="5.48053">
        <ele>1461.8</ele>
        <time>2021-08-31T14:47:48Z</time>
      </trkpt>
      <trkpt lat="45.0464" lon="5.48053">
        <ele>1461.2</ele>
        <time>2021-08-31T14:47:49Z</time>
      </trkpt>
      <trkpt lat="45.04645" lon="5.48053">
        <ele>1460.8</ele>
        <time>2021-08-31T14:47:50Z</time>
      </trkpt>
      <trkpt lat="45.04656" lon="5.48054">
        <ele>1459.9</ele>
        <time>2021-08-31T14:47:52Z</time>
      </trkpt>
      <trkpt lat="45.04664" lon="5.48054">
        <ele>1459.3</ele>
        <time>2021-08-31T14:47:53Z</time>
      </trkpt>
      <trkpt lat="45.04679" lon="5.48057">
        <ele>1458</ele>
        <time>2021-08-31T14:47:55Z</time>
      </trkpt>
      <trkpt lat="45.04686" lon="5.48058">
        <ele>1457.4</ele>
        <time>2021-08-31T14:47:56Z</time>
      </trkpt>
      <trkpt lat="45.047" lon="5.48062">
        <ele>1456.2</ele>
        <time>2021-08-31T14:47:58Z</time>
      </trkpt>
      <trkpt lat="45.04714" lon="5.48063">
        <ele>1454.9</ele>
        <time>2021-08-31T14:48:00Z</time>
      </trkpt>
      <trkpt lat="45.04721" lon="5.48064">
        <ele>1454.3</ele>
        <time>2021-08-31T14:48:01Z</time>
      </trkpt>
      <trkpt lat="45.04729" lon="5.48064">
        <ele>1453.7</ele>
        <time>2021-08-31T14:48:02Z</time>
      </trkpt>
      <trkpt lat="45.04742" lon="5.48063">
        <ele>1452.6</ele>
        <time>2021-08-31T14:48:04Z</time>
      </trkpt>
      <trkpt lat="45.04748" lon="5.48062">
        <ele>1452</ele>
        <time>2021-08-31T14:48:05Z</time>
      </trkpt>
      <trkpt lat="45.04755" lon="5.48063">
        <ele>1451.5</ele>
        <time>2021-08-31T14:48:06Z</time>
      </trkpt>
      <trkpt lat="45.04762" lon="5.48063">
        <ele>1451</ele>
        <time>2021-08-31T14:48:07Z</time>
      </trkpt>
      <trkpt lat="45.04777" lon="5.48064">
        <ele>1449.9</ele>
        <time>2021-08-31T14:48:09Z</time>
      </trkpt>
      <trkpt lat="45.0479" lon="5.48054">
        <ele>1448.7</ele>
        <time>2021-08-31T14:48:11Z</time>
      </trkpt>
      <trkpt lat="45.04803" lon="5.48043">
        <ele>1447.3</ele>
        <time>2021-08-31T14:48:13Z</time>
      </trkpt>
      <trkpt lat="45.0481" lon="5.48038">
        <ele>1446.6</ele>
        <time>2021-08-31T14:48:14Z</time>
      </trkpt>
      <trkpt lat="45.04825" lon="5.48028">
        <ele>1445.2</ele>
        <time>2021-08-31T14:48:16Z</time>
      </trkpt>
      <trkpt lat="45.04832" lon="5.48023">
        <ele>1444.4</ele>
        <time>2021-08-31T14:48:17Z</time>
      </trkpt>
      <trkpt lat="45.04841" lon="5.48018">
        <ele>1443.6</ele>
        <time>2021-08-31T14:48:18Z</time>
      </trkpt>
      <trkpt lat="45.04849" lon="5.48012">
        <ele>1442.8</ele>
        <time>2021-08-31T14:48:19Z</time>
      </trkpt>
      <trkpt lat="45.04858" lon="5.48008">
        <ele>1442</ele>
        <time>2021-08-31T14:48:20Z</time>
      </trkpt>
      <trkpt lat="45.04875" lon="5.48003">
        <ele>1440.5</ele>
        <time>2021-08-31T14:48:22Z</time>
      </trkpt>
      <trkpt lat="45.04891" lon="5.47999">
        <ele>1439.3</ele>
        <time>2021-08-31T14:48:24Z</time>
      </trkpt>
      <trkpt lat="45.04898" lon="5.47996">
        <ele>1438.8</ele>
        <time>2021-08-31T14:48:25Z</time>
      </trkpt>
      <trkpt lat="45.04904" lon="5.47993">
        <ele>1438.3</ele>
        <time>2021-08-31T14:48:26Z</time>
      </trkpt>
      <trkpt lat="45.04918" lon="5.47987">
        <ele>1436.9</ele>
        <time>2021-08-31T14:48:28Z</time>
      </trkpt>
      <trkpt lat="45.04926" lon="5.47985">
        <ele>1434.8</ele>
        <time>2021-08-31T14:48:29Z</time>
      </trkpt>
      <trkpt lat="45.04941" lon="5.47984">
        <ele>1434.2</ele>
        <time>2021-08-31T14:48:31Z</time>
      </trkpt>
      <trkpt lat="45.04949" lon="5.47983">
        <ele>1433.8</ele>
        <time>2021-08-31T14:48:32Z</time>
      </trkpt>
      <trkpt lat="45.04964" lon="5.47977">
        <ele>1430.6</ele>
        <time>2021-08-31T14:48:34Z</time>
      </trkpt>
      <trkpt lat="45.0498" lon="5.47973">
        <ele>1429.4</ele>
        <time>2021-08-31T14:48:36Z</time>
      </trkpt>
      <trkpt lat="45.04988" lon="5.47973">
        <ele>1428.7</ele>
        <time>2021-08-31T14:48:37Z</time>
      </trkpt>
      <trkpt lat="45.04996" lon="5.47974">
        <ele>1427.6</ele>
        <time>2021-08-31T14:48:38Z</time>
      </trkpt>
      <trkpt lat="45.05012" lon="5.47977">
        <ele>1424.7</ele>
        <time>2021-08-31T14:48:40Z</time>
      </trkpt>
      <trkpt lat="45.05021" lon="5.47978">
        <ele>1424.9</ele>
        <time>2021-08-31T14:48:41Z</time>
      </trkpt>
      <trkpt lat="45.05029" lon="5.47981">
        <ele>1422.9</ele>
        <time>2021-08-31T14:48:42Z</time>
      </trkpt>
      <trkpt lat="45.05049" lon="5.47991">
        <ele>1422.8</ele>
        <time>2021-08-31T14:48:44Z</time>
      </trkpt>
      <trkpt lat="45.05066" lon="5.48">
        <ele>1422.3</ele>
        <time>2021-08-31T14:48:46Z</time>
      </trkpt>
      <trkpt lat="45.05073" lon="5.48003">
        <ele>1422.1</ele>
        <time>2021-08-31T14:48:47Z</time>
      </trkpt>
      <trkpt lat="45.0508" lon="5.48009">
        <ele>1422.5</ele>
        <time>2021-08-31T14:48:49Z</time>
      </trkpt>
      <trkpt lat="45.05088" lon="5.48014">
        <ele>1422</ele>
        <time>2021-08-31T14:48:51Z</time>
      </trkpt>
      <trkpt lat="45.05099" lon="5.48015">
        <ele>1421.2</ele>
        <time>2021-08-31T14:48:53Z</time>
      </trkpt>
      <trkpt lat="45.051" lon="5.48013">
        <ele>1421</ele>
        <time>2021-08-31T14:48:54Z</time>
      </trkpt>
      <trkpt lat="45.051" lon="5.48011">
        <ele>1420.9</ele>
        <time>2021-08-31T14:48:55Z</time>
      </trkpt>
      <trkpt lat="45.05101" lon="5.48011">
        <ele>1420.9</ele>
        <time>2021-08-31T14:48:56Z</time>
      </trkpt>
      <trkpt lat="45.05101" lon="5.48011">
        <ele>1420.8</ele>
        <time>2021-08-31T14:48:57Z</time>
      </trkpt>
      <trkpt lat="45.05101" lon="5.48009">
        <ele>1420.7</ele>
        <time>2021-08-31T14:48:58Z</time>
      </trkpt>
      <trkpt lat="45.051" lon="5.48008">
        <ele>1420.6</ele>
        <time>2021-08-31T14:48:59Z</time>
      </trkpt>
      <trkpt lat="45.05099" lon="5.48007">
        <ele>1420.5</ele>
        <time>2021-08-31T14:49:00Z</time>
      </trkpt>
      <trkpt lat="45.05091" lon="5.48004">
        <ele>1419.8</ele>
        <time>2021-08-31T14:49:02Z</time>
      </trkpt>
      <trkpt lat="45.05085" lon="5.48003">
        <ele>1419.2</ele>
        <time>2021-08-31T14:49:04Z</time>
      </trkpt>
      <trkpt lat="45.0508" lon="5.48001">
        <ele>1418.7</ele>
        <time>2021-08-31T14:49:05Z</time>
      </trkpt>
      <trkpt lat="45.0507" lon="5.47994">
        <ele>1417.6</ele>
        <time>2021-08-31T14:49:06Z</time>
      </trkpt>
      <trkpt lat="45.05053" lon="5.47992">
        <ele>1415.8</ele>
        <time>2021-08-31T14:49:08Z</time>
      </trkpt>
      <trkpt lat="45.05044" lon="5.47991">
        <ele>1414.9</ele>
        <time>2021-08-31T14:49:09Z</time>
      </trkpt>
      <trkpt lat="45.05026" lon="5.4799">
        <ele>1413.2</ele>
        <time>2021-08-31T14:49:11Z</time>
      </trkpt>
      <trkpt lat="45.05009" lon="5.47987">
        <ele>1411.6</ele>
        <time>2021-08-31T14:49:13Z</time>
      </trkpt>
      <trkpt lat="45.05" lon="5.47985">
        <ele>1410.8</ele>
        <time>2021-08-31T14:49:14Z</time>
      </trkpt>
      <trkpt lat="45.04982" lon="5.47982">
        <ele>1409.3</ele>
        <time>2021-08-31T14:49:16Z</time>
      </trkpt>
      <trkpt lat="45.04964" lon="5.47978">
        <ele>1407.6</ele>
        <time>2021-08-31T14:49:18Z</time>
      </trkpt>
      <trkpt lat="45.04947" lon="5.47974">
        <ele>1405.9</ele>
        <time>2021-08-31T14:49:20Z</time>
      </trkpt>
      <trkpt lat="45.0493" lon="5.47967">
        <ele>1404.3</ele>
        <time>2021-08-31T14:49:22Z</time>
      </trkpt>
      <trkpt lat="45.04922" lon="5.47965">
        <ele>1403.4</ele>
        <time>2021-08-31T14:49:23Z</time>
      </trkpt>
      <trkpt lat="45.04903" lon="5.47957">
        <ele>1401.3</ele>
        <time>2021-08-31T14:49:25Z</time>
      </trkpt>
      <trkpt lat="45.04885" lon="5.47948">
        <ele>1399.4</ele>
        <time>2021-08-31T14:49:27Z</time>
      </trkpt>
      <trkpt lat="45.04877" lon="5.47944">
        <ele>1398.5</ele>
        <time>2021-08-31T14:49:28Z</time>
      </trkpt>
      <trkpt lat="45.04868" lon="5.47939">
        <ele>1397.6</ele>
        <time>2021-08-31T14:49:29Z</time>
      </trkpt>
      <trkpt lat="45.04853" lon="5.47931">
        <ele>1396.1</ele>
        <time>2021-08-31T14:49:31Z</time>
      </trkpt>
      <trkpt lat="45.04845" lon="5.47925">
        <ele>1395.4</ele>
        <time>2021-08-31T14:49:32Z</time>
      </trkpt>
      <trkpt lat="45.0483" lon="5.47915">
        <ele>1393.9</ele>
        <time>2021-08-31T14:49:34Z</time>
      </trkpt>
      <trkpt lat="45.04823" lon="5.4791">
        <ele>1393.2</ele>
        <time>2021-08-31T14:49:35Z</time>
      </trkpt>
      <trkpt lat="45.04816" lon="5.47905">
        <ele>1392.6</ele>
        <time>2021-08-31T14:49:36Z</time>
      </trkpt>
      <trkpt lat="45.04801" lon="5.47896">
        <ele>1391.4</ele>
        <time>2021-08-31T14:49:38Z</time>
      </trkpt>
      <trkpt lat="45.04786" lon="5.47889">
        <ele>1390.4</ele>
        <time>2021-08-31T14:49:40Z</time>
      </trkpt>
      <trkpt lat="45.04779" lon="5.47885">
        <ele>1389.9</ele>
        <time>2021-08-31T14:49:41Z</time>
      </trkpt>
      <trkpt lat="45.04772" lon="5.47883">
        <ele>1389.4</ele>
        <time>2021-08-31T14:49:42Z</time>
      </trkpt>
      <trkpt lat="45.04758" lon="5.47877">
        <ele>1388.4</ele>
        <time>2021-08-31T14:49:44Z</time>
      </trkpt>
      <trkpt lat="45.04747" lon="5.47872">
        <ele>1387.6</ele>
        <time>2021-08-31T14:49:46Z</time>
      </trkpt>
      <trkpt lat="45.04742" lon="5.47871">
        <ele>1387.3</ele>
        <time>2021-08-31T14:49:47Z</time>
      </trkpt>
      <trkpt lat="45.04738" lon="5.47872">
        <ele>1387.1</ele>
        <time>2021-08-31T14:49:48Z</time>
      </trkpt>
      <trkpt lat="45.0473" lon="5.47871">
        <ele>1386.4</ele>
        <time>2021-08-31T14:49:50Z</time>
      </trkpt>
      <trkpt lat="45.0472" lon="5.4787">
        <ele>1385.7</ele>
        <time>2021-08-31T14:49:52Z</time>
      </trkpt>
      <trkpt lat="45.04714" lon="5.47869">
        <ele>1385.3</ele>
        <time>2021-08-31T14:49:53Z</time>
      </trkpt>
      <trkpt lat="45.04709" lon="5.47869">
        <ele>1384.9</ele>
        <time>2021-08-31T14:49:54Z</time>
      </trkpt>
      <trkpt lat="45.04697" lon="5.47867">
        <ele>1384.1</ele>
        <time>2021-08-31T14:49:56Z</time>
      </trkpt>
      <trkpt lat="45.04686" lon="5.47862">
        <ele>1383.3</ele>
        <time>2021-08-31T14:49:58Z</time>
      </trkpt>
      <trkpt lat="45.0468" lon="5.47858">
        <ele>1382.9</ele>
        <time>2021-08-31T14:49:59Z</time>
      </trkpt>
      <trkpt lat="45.04674" lon="5.47854">
        <ele>1382.5</ele>
        <time>2021-08-31T14:50:00Z</time>
      </trkpt>
      <trkpt lat="45.04662" lon="5.47846">
        <ele>1381.6</ele>
        <time>2021-08-31T14:50:02Z</time>
      </trkpt>
      <trkpt lat="45.04656" lon="5.47844">
        <ele>1381.2</ele>
        <time>2021-08-31T14:50:03Z</time>
      </trkpt>
      <trkpt lat="45.04643" lon="5.47838">
        <ele>1380.3</ele>
        <time>2021-08-31T14:50:05Z</time>
      </trkpt>
      <trkpt lat="45.04631" lon="5.4783">
        <ele>1379.4</ele>
        <time>2021-08-31T14:50:07Z</time>
      </trkpt>
      <trkpt lat="45.04625" lon="5.47824">
        <ele>1379</ele>
        <time>2021-08-31T14:50:08Z</time>
      </trkpt>
      <trkpt lat="45.04614" lon="5.47814">
        <ele>1378.3</ele>
        <time>2021-08-31T14:50:10Z</time>
      </trkpt>
      <trkpt lat="45.04608" lon="5.47809">
        <ele>1377.8</ele>
        <time>2021-08-31T14:50:11Z</time>
      </trkpt>
      <trkpt lat="45.04602" lon="5.47802">
        <ele>1377.4</ele>
        <time>2021-08-31T14:50:12Z</time>
      </trkpt>
      <trkpt lat="45.0459" lon="5.4779">
        <ele>1376.5</ele>
        <time>2021-08-31T14:50:14Z</time>
      </trkpt>
      <trkpt lat="45.04578" lon="5.47778">
        <ele>1375.6</ele>
        <time>2021-08-31T14:50:16Z</time>
      </trkpt>
      <trkpt lat="45.04566" lon="5.47765">
        <ele>1374.8</ele>
        <time>2021-08-31T14:50:18Z</time>
      </trkpt>
      <trkpt lat="45.04555" lon="5.47751">
        <ele>1374</ele>
        <time>2021-08-31T14:50:20Z</time>
      </trkpt>
      <trkpt lat="45.04544" lon="5.47738">
        <ele>1373.2</ele>
        <time>2021-08-31T14:50:22Z</time>
      </trkpt>
      <trkpt lat="45.0454" lon="5.47731">
        <ele>1372.8</ele>
        <time>2021-08-31T14:50:23Z</time>
      </trkpt>
      <trkpt lat="45.04534" lon="5.47717">
        <ele>1372.2</ele>
        <time>2021-08-31T14:50:25Z</time>
      </trkpt>
      <trkpt lat="45.04531" lon="5.4771">
        <ele>1371.9</ele>
        <time>2021-08-31T14:50:26Z</time>
      </trkpt>
      <trkpt lat="45.04528" lon="5.47696">
        <ele>1371.4</ele>
        <time>2021-08-31T14:50:28Z</time>
      </trkpt>
      <trkpt lat="45.04527" lon="5.47688">
        <ele>1371.1</ele>
        <time>2021-08-31T14:50:29Z</time>
      </trkpt>
      <trkpt lat="45.04526" lon="5.47674">
        <ele>1370.7</ele>
        <time>2021-08-31T14:50:31Z</time>
      </trkpt>
      <trkpt lat="45.04525" lon="5.47668">
        <ele>1370.5</ele>
        <time>2021-08-31T14:50:32Z</time>
      </trkpt>
      <trkpt lat="45.04524" lon="5.47661">
        <ele>1370.3</ele>
        <time>2021-08-31T14:50:34Z</time>
      </trkpt>
      <trkpt lat="45.04524" lon="5.47656">
        <ele>1370.1</ele>
        <time>2021-08-31T14:50:36Z</time>
      </trkpt>
      <trkpt lat="45.04524" lon="5.47656">
        <ele>1370.1</ele>
        <time>2021-08-31T14:50:37Z</time>
      </trkpt>
      <trkpt lat="45.04525" lon="5.47655">
        <ele>1370.1</ele>
        <time>2021-08-31T14:50:39Z</time>
      </trkpt>
      <trkpt lat="45.04525" lon="5.47655">
        <ele>1370.1</ele>
        <time>2021-08-31T14:50:41Z</time>
      </trkpt>
      <trkpt lat="45.04526" lon="5.47655">
        <ele>1370.1</ele>
        <time>2021-08-31T14:50:42Z</time>
      </trkpt>
      <trkpt lat="45.04527" lon="5.47656">
        <ele>1370.1</ele>
        <time>2021-08-31T14:50:44Z</time>
      </trkpt>
      <trkpt lat="45.04528" lon="5.47657">
        <ele>1370.1</ele>
        <time>2021-08-31T14:50:46Z</time>
      </trkpt>
      <trkpt lat="45.04528" lon="5.47657">
        <ele>1370</ele>
        <time>2021-08-31T14:50:47Z</time>
      </trkpt>
      <trkpt lat="45.04513" lon="5.4766">
        <ele>1369.8</ele>
        <time>2021-08-31T14:51:18Z</time>
      </trkpt>
      <trkpt lat="45.04508" lon="5.4766">
        <ele>1369.7</ele>
        <time>2021-08-31T14:51:20Z</time>
      </trkpt>
      <trkpt lat="45.04502" lon="5.47662">
        <ele>1369.5</ele>
        <time>2021-08-31T14:51:21Z</time>
      </trkpt>
      <trkpt lat="45.04493" lon="5.47663">
        <ele>1369.3</ele>
        <time>2021-08-31T14:51:22Z</time>
      </trkpt>
      <trkpt lat="45.04486" lon="5.47664">
        <ele>1369.2</ele>
        <time>2021-08-31T14:51:24Z</time>
      </trkpt>
      <trkpt lat="45.04479" lon="5.47665">
        <ele>1369.2</ele>
        <time>2021-08-31T14:51:25Z</time>
      </trkpt>
      <trkpt lat="45.04477" lon="5.47665">
        <ele>1369.1</ele>
        <time>2021-08-31T14:51:27Z</time>
      </trkpt>
      <trkpt lat="45.04477" lon="5.47665">
        <ele>1369.1</ele>
        <time>2021-08-31T14:51:28Z</time>
      </trkpt>
      <trkpt lat="45.04478" lon="5.47665">
        <ele>1369.1</ele>
        <time>2021-08-31T14:51:29Z</time>
      </trkpt>
      <trkpt lat="45.04478" lon="5.47664">
        <ele>1369.1</ele>
        <time>2021-08-31T14:51:31Z</time>
      </trkpt>
      <trkpt lat="45.04477" lon="5.47664">
        <ele>1369.1</ele>
        <time>2021-08-31T14:51:32Z</time>
      </trkpt>
      <trkpt lat="45.04476" lon="5.47664">
        <ele>1369.1</ele>
        <time>2021-08-31T14:51:33Z</time>
      </trkpt>
      <trkpt lat="45.04474" lon="5.47664">
        <ele>1369.1</ele>
        <time>2021-08-31T14:51:35Z</time>
      </trkpt>
      <trkpt lat="45.04473" lon="5.47663">
        <ele>1369.1</ele>
        <time>2021-08-31T14:51:36Z</time>
      </trkpt>
      <trkpt lat="45.04471" lon="5.47663">
        <ele>1369.1</ele>
        <time>2021-08-31T14:51:38Z</time>
      </trkpt>
      <trkpt lat="45.04434" lon="5.47652">
        <ele>1369.1</ele>
        <time>2021-08-31T14:51:43Z</time>
      </trkpt>
      <trkpt lat="45.04423" lon="5.47649">
        <ele>1369</ele>
        <time>2021-08-31T14:51:44Z</time>
      </trkpt>
      <trkpt lat="45.04406" lon="5.47644">
        <ele>1368.8</ele>
        <time>2021-08-31T14:51:46Z</time>
      </trkpt>
      <trkpt lat="45.04391" lon="5.47637">
        <ele>1368.4</ele>
        <time>2021-08-31T14:51:48Z</time>
      </trkpt>
      <trkpt lat="45.04383" lon="5.47635">
        <ele>1368.1</ele>
        <time>2021-08-31T14:51:49Z</time>
      </trkpt>
      <trkpt lat="45.04375" lon="5.47633">
        <ele>1367.8</ele>
        <time>2021-08-31T14:51:50Z</time>
      </trkpt>
      <trkpt lat="45.04362" lon="5.4763">
        <ele>1367.2</ele>
        <time>2021-08-31T14:51:52Z</time>
      </trkpt>
      <trkpt lat="45.04357" lon="5.47631">
        <ele>1367</ele>
        <time>2021-08-31T14:51:53Z</time>
      </trkpt>
      <trkpt lat="45.04348" lon="5.47634">
        <ele>1366.6</ele>
        <time>2021-08-31T14:51:55Z</time>
      </trkpt>
      <trkpt lat="45.04343" lon="5.47634">
        <ele>1366.4</ele>
        <time>2021-08-31T14:51:56Z</time>
      </trkpt>
      <trkpt lat="45.04332" lon="5.47634">
        <ele>1366</ele>
        <time>2021-08-31T14:51:58Z</time>
      </trkpt>
      <trkpt lat="45.04327" lon="5.47634">
        <ele>1365.9</ele>
        <time>2021-08-31T14:51:59Z</time>
      </trkpt>
      <trkpt lat="45.04319" lon="5.47636">
        <ele>1365.8</ele>
        <time>2021-08-31T14:52:01Z</time>
      </trkpt>
      <trkpt lat="45.04314" lon="5.47635">
        <ele>1365.8</ele>
        <time>2021-08-31T14:52:02Z</time>
      </trkpt>
      <trkpt lat="45.04308" lon="5.47638">
        <ele>1365.8</ele>
        <time>2021-08-31T14:52:04Z</time>
      </trkpt>
      <trkpt lat="45.04302" lon="5.47639">
        <ele>1365.9</ele>
        <time>2021-08-31T14:52:05Z</time>
      </trkpt>
      <trkpt lat="45.04295" lon="5.47639">
        <ele>1366.1</ele>
        <time>2021-08-31T14:52:06Z</time>
      </trkpt>
      <trkpt lat="45.04285" lon="5.47637">
        <ele>1366.4</ele>
        <time>2021-08-31T14:52:08Z</time>
      </trkpt>
      <trkpt lat="45.04278" lon="5.47638">
        <ele>1366.6</ele>
        <time>2021-08-31T14:52:09Z</time>
      </trkpt>
      <trkpt lat="45.04275" lon="5.47638">
        <ele>1366.7</ele>
        <time>2021-08-31T14:52:10Z</time>
      </trkpt>
      <trkpt lat="45.04273" lon="5.47635">
        <ele>1366.8</ele>
        <time>2021-08-31T14:52:12Z</time>
      </trkpt>
      <trkpt lat="45.0427" lon="5.47636">
        <ele>1366.9</ele>
        <time>2021-08-31T14:52:13Z</time>
      </trkpt>
      <trkpt lat="45.04268" lon="5.47641">
        <ele>1367</ele>
        <time>2021-08-31T14:52:15Z</time>
      </trkpt>
      <trkpt lat="45.04266" lon="5.47644">
        <ele>1367</ele>
        <time>2021-08-31T14:52:16Z</time>
      </trkpt>
      <trkpt lat="45.04265" lon="5.47646">
        <ele>1367.1</ele>
        <time>2021-08-31T14:52:18Z</time>
      </trkpt>
      <trkpt lat="45.04263" lon="5.47647">
        <ele>1367.1</ele>
        <time>2021-08-31T14:52:19Z</time>
      </trkpt>
      <trkpt lat="45.04262" lon="5.47648">
        <ele>1367.1</ele>
        <time>2021-08-31T14:52:20Z</time>
      </trkpt>
      <trkpt lat="45.04259" lon="5.47651">
        <ele>1367.1</ele>
        <time>2021-08-31T14:52:22Z</time>
      </trkpt>
      <trkpt lat="45.04225" lon="5.47682">
        <ele>1366.6</ele>
        <time>2021-08-31T14:52:36Z</time>
      </trkpt>
      <trkpt lat="45.04219" lon="5.47686">
        <ele>1366.5</ele>
        <time>2021-08-31T14:52:37Z</time>
      </trkpt>
      <trkpt lat="45.04212" lon="5.47688">
        <ele>1366.5</ele>
        <time>2021-08-31T14:52:38Z</time>
      </trkpt>
      <trkpt lat="45.04196" lon="5.47692">
        <ele>1366.3</ele>
        <time>2021-08-31T14:52:40Z</time>
      </trkpt>
      <trkpt lat="45.04181" lon="5.47693">
        <ele>1365.8</ele>
        <time>2021-08-31T14:52:42Z</time>
      </trkpt>
      <trkpt lat="45.04168" lon="5.47695">
        <ele>1365.1</ele>
        <time>2021-08-31T14:52:44Z</time>
      </trkpt>
      <trkpt lat="45.04155" lon="5.47692">
        <ele>1364.1</ele>
        <time>2021-08-31T14:52:46Z</time>
      </trkpt>
      <trkpt lat="45.0414" lon="5.4769">
        <ele>1362.9</ele>
        <time>2021-08-31T14:52:48Z</time>
      </trkpt>
      <trkpt lat="45.04124" lon="5.47689">
        <ele>1361.5</ele>
        <time>2021-08-31T14:52:50Z</time>
      </trkpt>
      <trkpt lat="45.04107" lon="5.47689">
        <ele>1359.9</ele>
        <time>2021-08-31T14:52:52Z</time>
      </trkpt>
      <trkpt lat="45.04091" lon="5.47689">
        <ele>1358.4</ele>
        <time>2021-08-31T14:52:54Z</time>
      </trkpt>
      <trkpt lat="45.04083" lon="5.47689">
        <ele>1357.7</ele>
        <time>2021-08-31T14:52:55Z</time>
      </trkpt>
      <trkpt lat="45.04075" lon="5.4769">
        <ele>1357</ele>
        <time>2021-08-31T14:52:56Z</time>
      </trkpt>
      <trkpt lat="45.04061" lon="5.47695">
        <ele>1355.7</ele>
        <time>2021-08-31T14:52:58Z</time>
      </trkpt>
      <trkpt lat="45.04054" lon="5.47698">
        <ele>1355</ele>
        <time>2021-08-31T14:52:59Z</time>
      </trkpt>
      <trkpt lat="45.04041" lon="5.47701">
        <ele>1353.6</ele>
        <time>2021-08-31T14:53:01Z</time>
      </trkpt>
      <trkpt lat="45.04034" lon="5.47701">
        <ele>1353</ele>
        <time>2021-08-31T14:53:02Z</time>
      </trkpt>
      <trkpt lat="45.04022" lon="5.47705">
        <ele>1351.8</ele>
        <time>2021-08-31T14:53:04Z</time>
      </trkpt>
      <trkpt lat="45.04009" lon="5.4771">
        <ele>1350.6</ele>
        <time>2021-08-31T14:53:06Z</time>
      </trkpt>
      <trkpt lat="45.03996" lon="5.47717">
        <ele>1349.2</ele>
        <time>2021-08-31T14:53:08Z</time>
      </trkpt>
      <trkpt lat="45.03981" lon="5.4772">
        <ele>1347.7</ele>
        <time>2021-08-31T14:53:10Z</time>
      </trkpt>
      <trkpt lat="45.03972" lon="5.47721">
        <ele>1346.9</ele>
        <time>2021-08-31T14:53:11Z</time>
      </trkpt>
      <trkpt lat="45.03964" lon="5.47722">
        <ele>1346.1</ele>
        <time>2021-08-31T14:53:12Z</time>
      </trkpt>
      <trkpt lat="45.03957" lon="5.47724">
        <ele>1345.4</ele>
        <time>2021-08-31T14:53:13Z</time>
      </trkpt>
      <trkpt lat="45.03951" lon="5.47726">
        <ele>1344.7</ele>
        <time>2021-08-31T14:53:14Z</time>
      </trkpt>
      <trkpt lat="45.0394" lon="5.4773">
        <ele>1343.5</ele>
        <time>2021-08-31T14:53:16Z</time>
      </trkpt>
      <trkpt lat="45.03931" lon="5.47742">
        <ele>1342.4</ele>
        <time>2021-08-31T14:53:18Z</time>
      </trkpt>
      <trkpt lat="45.03926" lon="5.47748">
        <ele>1341.8</ele>
        <time>2021-08-31T14:53:19Z</time>
      </trkpt>
      <trkpt lat="45.03915" lon="5.4776">
        <ele>1340.6</ele>
        <time>2021-08-31T14:53:21Z</time>
      </trkpt>
      <trkpt lat="45.03899" lon="5.47765">
        <ele>1339.5</ele>
        <time>2021-08-31T14:53:23Z</time>
      </trkpt>
      <trkpt lat="45.03891" lon="5.47769">
        <ele>1339</ele>
        <time>2021-08-31T14:53:24Z</time>
      </trkpt>
      <trkpt lat="45.03884" lon="5.47772">
        <ele>1338.5</ele>
        <time>2021-08-31T14:53:25Z</time>
      </trkpt>
      <trkpt lat="45.03876" lon="5.47775">
        <ele>1338.1</ele>
        <time>2021-08-31T14:53:26Z</time>
      </trkpt>
      <trkpt lat="45.03861" lon="5.47781">
        <ele>1337.2</ele>
        <time>2021-08-31T14:53:28Z</time>
      </trkpt>
      <trkpt lat="45.03853" lon="5.47784">
        <ele>1336.8</ele>
        <time>2021-08-31T14:53:29Z</time>
      </trkpt>
      <trkpt lat="45.03845" lon="5.47787">
        <ele>1336.3</ele>
        <time>2021-08-31T14:53:30Z</time>
      </trkpt>
      <trkpt lat="45.0383" lon="5.47795">
        <ele>1335.7</ele>
        <time>2021-08-31T14:53:32Z</time>
      </trkpt>
      <trkpt lat="45.03815" lon="5.47804">
        <ele>1335.1</ele>
        <time>2021-08-31T14:53:34Z</time>
      </trkpt>
      <trkpt lat="45.03808" lon="5.47807">
        <ele>1334.8</ele>
        <time>2021-08-31T14:53:35Z</time>
      </trkpt>
      <trkpt lat="45.038" lon="5.47808">
        <ele>1334.6</ele>
        <time>2021-08-31T14:53:36Z</time>
      </trkpt>
      <trkpt lat="45.03786" lon="5.47812">
        <ele>1334.1</ele>
        <time>2021-08-31T14:53:38Z</time>
      </trkpt>
      <trkpt lat="45.03779" lon="5.47814">
        <ele>1333.8</ele>
        <time>2021-08-31T14:53:39Z</time>
      </trkpt>
      <trkpt lat="45.03765" lon="5.47819">
        <ele>1333.2</ele>
        <time>2021-08-31T14:53:41Z</time>
      </trkpt>
      <trkpt lat="45.03752" lon="5.47826">
        <ele>1332.6</ele>
        <time>2021-08-31T14:53:43Z</time>
      </trkpt>
      <trkpt lat="45.03745" lon="5.47831">
        <ele>1332.3</ele>
        <time>2021-08-31T14:53:44Z</time>
      </trkpt>
      <trkpt lat="45.0373" lon="5.47844">
        <ele>1331.8</ele>
        <time>2021-08-31T14:53:46Z</time>
      </trkpt>
      <trkpt lat="45.03723" lon="5.47852">
        <ele>1331.5</ele>
        <time>2021-08-31T14:53:47Z</time>
      </trkpt>
      <trkpt lat="45.03713" lon="5.47874">
        <ele>1330.9</ele>
        <time>2021-08-31T14:53:49Z</time>
      </trkpt>
      <trkpt lat="45.03709" lon="5.47884">
        <ele>1330.7</ele>
        <time>2021-08-31T14:53:50Z</time>
      </trkpt>
      <trkpt lat="45.03699" lon="5.47901">
        <ele>1330.3</ele>
        <time>2021-08-31T14:53:52Z</time>
      </trkpt>
      <trkpt lat="45.03694" lon="5.47908">
        <ele>1330.1</ele>
        <time>2021-08-31T14:53:53Z</time>
      </trkpt>
      <trkpt lat="45.03689" lon="5.47915">
        <ele>1330</ele>
        <time>2021-08-31T14:53:54Z</time>
      </trkpt>
      <trkpt lat="45.03684" lon="5.47922">
        <ele>1329.9</ele>
        <time>2021-08-31T14:53:55Z</time>
      </trkpt>
      <trkpt lat="45.03675" lon="5.47935">
        <ele>1329.6</ele>
        <time>2021-08-31T14:53:57Z</time>
      </trkpt>
      <trkpt lat="45.03671" lon="5.4794">
        <ele>1329.5</ele>
        <time>2021-08-31T14:53:58Z</time>
      </trkpt>
      <trkpt lat="45.03663" lon="5.47947">
        <ele>1329.2</ele>
        <time>2021-08-31T14:54:00Z</time>
      </trkpt>
      <trkpt lat="45.03659" lon="5.47951">
        <ele>1329</ele>
        <time>2021-08-31T14:54:01Z</time>
      </trkpt>
      <trkpt lat="45.03654" lon="5.47955">
        <ele>1328.8</ele>
        <time>2021-08-31T14:54:02Z</time>
      </trkpt>
      <trkpt lat="45.03644" lon="5.47961">
        <ele>1328.3</ele>
        <time>2021-08-31T14:54:04Z</time>
      </trkpt>
      <trkpt lat="45.03639" lon="5.47963">
        <ele>1328</ele>
        <time>2021-08-31T14:54:05Z</time>
      </trkpt>
      <trkpt lat="45.03634" lon="5.47966">
        <ele>1327.6</ele>
        <time>2021-08-31T14:54:06Z</time>
      </trkpt>
      <trkpt lat="45.03629" lon="5.47968">
        <ele>1327.3</ele>
        <time>2021-08-31T14:54:07Z</time>
      </trkpt>
      <trkpt lat="45.03615" lon="5.47971">
        <ele>1326.2</ele>
        <time>2021-08-31T14:54:09Z</time>
      </trkpt>
      <trkpt lat="45.03607" lon="5.47972">
        <ele>1325.7</ele>
        <time>2021-08-31T14:54:10Z</time>
      </trkpt>
      <trkpt lat="45.036" lon="5.47974">
        <ele>1325.1</ele>
        <time>2021-08-31T14:54:11Z</time>
      </trkpt>
      <trkpt lat="45.03585" lon="5.47977">
        <ele>1323.9</ele>
        <time>2021-08-31T14:54:13Z</time>
      </trkpt>
      <trkpt lat="45.03578" lon="5.47977">
        <ele>1323.3</ele>
        <time>2021-08-31T14:54:14Z</time>
      </trkpt>
      <trkpt lat="45.03562" lon="5.47978">
        <ele>1322.1</ele>
        <time>2021-08-31T14:54:16Z</time>
      </trkpt>
      <trkpt lat="45.03553" lon="5.47979">
        <ele>1321.5</ele>
        <time>2021-08-31T14:54:17Z</time>
      </trkpt>
      <trkpt lat="45.03536" lon="5.47983">
        <ele>1320.3</ele>
        <time>2021-08-31T14:54:19Z</time>
      </trkpt>
      <trkpt lat="45.03527" lon="5.47984">
        <ele>1319.7</ele>
        <time>2021-08-31T14:54:20Z</time>
      </trkpt>
      <trkpt lat="45.03509" lon="5.47984">
        <ele>1318.4</ele>
        <time>2021-08-31T14:54:22Z</time>
      </trkpt>
      <trkpt lat="45.035" lon="5.47985">
        <ele>1317.8</ele>
        <time>2021-08-31T14:54:23Z</time>
      </trkpt>
      <trkpt lat="45.0348" lon="5.47986">
        <ele>1316.7</ele>
        <time>2021-08-31T14:54:25Z</time>
      </trkpt>
      <trkpt lat="45.0347" lon="5.47987">
        <ele>1316.1</ele>
        <time>2021-08-31T14:54:26Z</time>
      </trkpt>
      <trkpt lat="45.03452" lon="5.47989">
        <ele>1314.7</ele>
        <time>2021-08-31T14:54:28Z</time>
      </trkpt>
      <trkpt lat="45.03443" lon="5.4799">
        <ele>1314</ele>
        <time>2021-08-31T14:54:29Z</time>
      </trkpt>
      <trkpt lat="45.03426" lon="5.47993">
        <ele>1312.3</ele>
        <time>2021-08-31T14:54:31Z</time>
      </trkpt>
      <trkpt lat="45.03418" lon="5.47994">
        <ele>1311.5</ele>
        <time>2021-08-31T14:54:32Z</time>
      </trkpt>
      <trkpt lat="45.03405" lon="5.47992">
        <ele>1309.9</ele>
        <time>2021-08-31T14:54:34Z</time>
      </trkpt>
      <trkpt lat="45.03399" lon="5.47991">
        <ele>1309.1</ele>
        <time>2021-08-31T14:54:35Z</time>
      </trkpt>
      <trkpt lat="45.03388" lon="5.47985">
        <ele>1307.5</ele>
        <time>2021-08-31T14:54:37Z</time>
      </trkpt>
      <trkpt lat="45.03372" lon="5.47972">
        <ele>1305.3</ele>
        <time>2021-08-31T14:54:39Z</time>
      </trkpt>
      <trkpt lat="45.03356" lon="5.47949">
        <ele>1302.9</ele>
        <time>2021-08-31T14:54:41Z</time>
      </trkpt>
      <trkpt lat="45.03345" lon="5.47934">
        <ele>1301.4</ele>
        <time>2021-08-31T14:54:43Z</time>
      </trkpt>
      <trkpt lat="45.03339" lon="5.47926">
        <ele>1300.6</ele>
        <time>2021-08-31T14:54:44Z</time>
      </trkpt>
      <trkpt lat="45.03327" lon="5.47911">
        <ele>1299.4</ele>
        <time>2021-08-31T14:54:46Z</time>
      </trkpt>
      <trkpt lat="45.0332" lon="5.47904">
        <ele>1298.8</ele>
        <time>2021-08-31T14:54:47Z</time>
      </trkpt>
      <trkpt lat="45.03308" lon="5.47885">
        <ele>1297.5</ele>
        <time>2021-08-31T14:54:49Z</time>
      </trkpt>
      <trkpt lat="45.03301" lon="5.47877">
        <ele>1297</ele>
        <time>2021-08-31T14:54:50Z</time>
      </trkpt>
      <trkpt lat="45.03287" lon="5.47859">
        <ele>1295.9</ele>
        <time>2021-08-31T14:54:52Z</time>
      </trkpt>
      <trkpt lat="45.03274" lon="5.47842">
        <ele>1294.9</ele>
        <time>2021-08-31T14:54:54Z</time>
      </trkpt>
      <trkpt lat="45.03262" lon="5.47826">
        <ele>1294.1</ele>
        <time>2021-08-31T14:54:56Z</time>
      </trkpt>
      <trkpt lat="45.03249" lon="5.47814">
        <ele>1293.4</ele>
        <time>2021-08-31T14:54:58Z</time>
      </trkpt>
      <trkpt lat="45.03242" lon="5.47811">
        <ele>1293.1</ele>
        <time>2021-08-31T14:54:59Z</time>
      </trkpt>
      <trkpt lat="45.03235" lon="5.47808">
        <ele>1292.8</ele>
        <time>2021-08-31T14:55:00Z</time>
      </trkpt>
      <trkpt lat="45.03221" lon="5.47805">
        <ele>1292.3</ele>
        <time>2021-08-31T14:55:02Z</time>
      </trkpt>
      <trkpt lat="45.03207" lon="5.47803">
        <ele>1291.9</ele>
        <time>2021-08-31T14:55:04Z</time>
      </trkpt>
      <trkpt lat="45.03201" lon="5.47803">
        <ele>1291.7</ele>
        <time>2021-08-31T14:55:05Z</time>
      </trkpt>
      <trkpt lat="45.03188" lon="5.478">
        <ele>1291.4</ele>
        <time>2021-08-31T14:55:07Z</time>
      </trkpt>
      <trkpt lat="45.03182" lon="5.47799">
        <ele>1291.3</ele>
        <time>2021-08-31T14:55:08Z</time>
      </trkpt>
      <trkpt lat="45.03169" lon="5.47796">
        <ele>1291.3</ele>
        <time>2021-08-31T14:55:10Z</time>
      </trkpt>
      <trkpt lat="45.03163" lon="5.47794">
        <ele>1291.3</ele>
        <time>2021-08-31T14:55:11Z</time>
      </trkpt>
      <trkpt lat="45.03157" lon="5.47794">
        <ele>1291.3</ele>
        <time>2021-08-31T14:55:12Z</time>
      </trkpt>
      <trkpt lat="45.03152" lon="5.47795">
        <ele>1291.3</ele>
        <time>2021-08-31T14:55:13Z</time>
      </trkpt>
      <trkpt lat="45.03148" lon="5.47796">
        <ele>1291.3</ele>
        <time>2021-08-31T14:55:14Z</time>
      </trkpt>
      <trkpt lat="45.03138" lon="5.47796">
        <ele>1291.4</ele>
        <time>2021-08-31T14:55:16Z</time>
      </trkpt>
      <trkpt lat="45.03134" lon="5.47795">
        <ele>1291.4</ele>
        <time>2021-08-31T14:55:17Z</time>
      </trkpt>
      <trkpt lat="45.03125" lon="5.47793">
        <ele>1291.5</ele>
        <time>2021-08-31T14:55:19Z</time>
      </trkpt>
      <trkpt lat="45.0312" lon="5.47791">
        <ele>1291.5</ele>
        <time>2021-08-31T14:55:20Z</time>
      </trkpt>
      <trkpt lat="45.03112" lon="5.47783">
        <ele>1291.6</ele>
        <time>2021-08-31T14:55:22Z</time>
      </trkpt>
      <trkpt lat="45.03108" lon="5.4778">
        <ele>1291.6</ele>
        <time>2021-08-31T14:55:23Z</time>
      </trkpt>
      <trkpt lat="45.03103" lon="5.47776">
        <ele>1291.6</ele>
        <time>2021-08-31T14:55:24Z</time>
      </trkpt>
      <trkpt lat="45.03099" lon="5.47773">
        <ele>1291.7</ele>
        <time>2021-08-31T14:55:25Z</time>
      </trkpt>
      <trkpt lat="45.03096" lon="5.47771">
        <ele>1291.7</ele>
        <time>2021-08-31T14:55:26Z</time>
      </trkpt>
      <trkpt lat="45.03093" lon="5.47769">
        <ele>1291.7</ele>
        <time>2021-08-31T14:55:27Z</time>
      </trkpt>
      <trkpt lat="45.03086" lon="5.47764">
        <ele>1291.8</ele>
        <time>2021-08-31T14:55:29Z</time>
      </trkpt>
      <trkpt lat="45.03081" lon="5.47761">
        <ele>1291.8</ele>
        <time>2021-08-31T14:55:30Z</time>
      </trkpt>
      <trkpt lat="45.03072" lon="5.47758">
        <ele>1291.9</ele>
        <time>2021-08-31T14:55:32Z</time>
      </trkpt>
      <trkpt lat="45.03066" lon="5.47757">
        <ele>1292</ele>
        <time>2021-08-31T14:55:33Z</time>
      </trkpt>
      <trkpt lat="45.03062" lon="5.47757">
        <ele>1292</ele>
        <time>2021-08-31T14:55:34Z</time>
      </trkpt>
      <trkpt lat="45.03058" lon="5.47757">
        <ele>1292</ele>
        <time>2021-08-31T14:55:35Z</time>
      </trkpt>
      <trkpt lat="45.03052" lon="5.47754">
        <ele>1291.9</ele>
        <time>2021-08-31T14:55:37Z</time>
      </trkpt>
      <trkpt lat="45.03046" lon="5.47753">
        <ele>1291.8</ele>
        <time>2021-08-31T14:55:38Z</time>
      </trkpt>
      <trkpt lat="45.03041" lon="5.47751">
        <ele>1291.7</ele>
        <time>2021-08-31T14:55:39Z</time>
      </trkpt>
      <trkpt lat="45.03037" lon="5.47749">
        <ele>1291.6</ele>
        <time>2021-08-31T14:55:41Z</time>
      </trkpt>
      <trkpt lat="45.03032" lon="5.47746">
        <ele>1291.5</ele>
        <time>2021-08-31T14:55:42Z</time>
      </trkpt>
      <trkpt lat="45.0303" lon="5.47744">
        <ele>1291.5</ele>
        <time>2021-08-31T14:55:44Z</time>
      </trkpt>
      <trkpt lat="45.03028" lon="5.47744">
        <ele>1291.4</ele>
        <time>2021-08-31T14:55:46Z</time>
      </trkpt>
      <trkpt lat="45.03029" lon="5.47741">
        <ele>1291.4</ele>
        <time>2021-08-31T14:55:48Z</time>
      </trkpt>
      <trkpt lat="45.03028" lon="5.47741">
        <ele>1291.4</ele>
        <time>2021-08-31T14:55:49Z</time>
      </trkpt>
      <trkpt lat="45.03028" lon="5.47741">
        <ele>1291.4</ele>
        <time>2021-08-31T14:55:50Z</time>
      </trkpt>
      <trkpt lat="45.03028" lon="5.47741">
        <ele>1291.4</ele>
        <time>2021-08-31T14:55:52Z</time>
      </trkpt>
      <trkpt lat="45.03028" lon="5.4774">
        <ele>1291.4</ele>
        <time>2021-08-31T14:55:54Z</time>
      </trkpt>
      <trkpt lat="45.03011" lon="5.47716">
        <ele>1290.9</ele>
        <time>2021-08-31T14:56:24Z</time>
      </trkpt>
      <trkpt lat="45.03011" lon="5.47717">
        <ele>1290.9</ele>
        <time>2021-08-31T14:56:26Z</time>
      </trkpt>
      <trkpt lat="45.0301" lon="5.47719">
        <ele>1290.8</ele>
        <time>2021-08-31T14:56:28Z</time>
      </trkpt>
      <trkpt lat="45.03008" lon="5.47718">
        <ele>1290.8</ele>
        <time>2021-08-31T14:56:29Z</time>
      </trkpt>
      <trkpt lat="45.03007" lon="5.47718">
        <ele>1290.8</ele>
        <time>2021-08-31T14:56:30Z</time>
      </trkpt>
      <trkpt lat="45.03002" lon="5.4772">
        <ele>1290.7</ele>
        <time>2021-08-31T14:56:32Z</time>
      </trkpt>
      <trkpt lat="45.02999" lon="5.47721">
        <ele>1290.6</ele>
        <time>2021-08-31T14:56:33Z</time>
      </trkpt>
      <trkpt lat="45.02992" lon="5.47721">
        <ele>1290.5</ele>
        <time>2021-08-31T14:56:34Z</time>
      </trkpt>
      <trkpt lat="45.02983" lon="5.47722">
        <ele>1290.4</ele>
        <time>2021-08-31T14:56:36Z</time>
      </trkpt>
      <trkpt lat="45.02978" lon="5.47721">
        <ele>1290.3</ele>
        <time>2021-08-31T14:56:37Z</time>
      </trkpt>
      <trkpt lat="45.02973" lon="5.4772">
        <ele>1290.2</ele>
        <time>2021-08-31T14:56:38Z</time>
      </trkpt>
      <trkpt lat="45.0297" lon="5.47724">
        <ele>1290.2</ele>
        <time>2021-08-31T14:56:39Z</time>
      </trkpt>
      <trkpt lat="45.02965" lon="5.47723">
        <ele>1290.1</ele>
        <time>2021-08-31T14:56:40Z</time>
      </trkpt>
      <trkpt lat="45.02957" lon="5.47723">
        <ele>1290</ele>
        <time>2021-08-31T14:56:42Z</time>
      </trkpt>
      <trkpt lat="45.0295" lon="5.47723">
        <ele>1289.9</ele>
        <time>2021-08-31T14:56:44Z</time>
      </trkpt>
      <trkpt lat="45.02944" lon="5.47724">
        <ele>1289.8</ele>
        <time>2021-08-31T14:56:46Z</time>
      </trkpt>
      <trkpt lat="45.02937" lon="5.47724">
        <ele>1289.7</ele>
        <time>2021-08-31T14:56:47Z</time>
      </trkpt>
      <trkpt lat="45.02932" lon="5.47725">
        <ele>1289.7</ele>
        <time>2021-08-31T14:56:49Z</time>
      </trkpt>
      <trkpt lat="45.02927" lon="5.47727">
        <ele>1289.7</ele>
        <time>2021-08-31T14:56:50Z</time>
      </trkpt>
      <trkpt lat="45.02923" lon="5.47728">
        <ele>1289.8</ele>
        <time>2021-08-31T14:56:52Z</time>
      </trkpt>
      <trkpt lat="45.0292" lon="5.47729">
        <ele>1289.8</ele>
        <time>2021-08-31T14:56:53Z</time>
      </trkpt>
      <trkpt lat="45.02915" lon="5.4773">
        <ele>1289.7</ele>
        <time>2021-08-31T14:56:54Z</time>
      </trkpt>
      <trkpt lat="45.02911" lon="5.4773">
        <ele>1289.7</ele>
        <time>2021-08-31T14:56:55Z</time>
      </trkpt>
      <trkpt lat="45.02904" lon="5.47729">
        <ele>1289.7</ele>
        <time>2021-08-31T14:56:57Z</time>
      </trkpt>
      <trkpt lat="45.029" lon="5.47727">
        <ele>1289.6</ele>
        <time>2021-08-31T14:56:58Z</time>
      </trkpt>
      <trkpt lat="45.02894" lon="5.47724">
        <ele>1289.5</ele>
        <time>2021-08-31T14:57:00Z</time>
      </trkpt>
      <trkpt lat="45.02888" lon="5.47723">
        <ele>1289.4</ele>
        <time>2021-08-31T14:57:01Z</time>
      </trkpt>
      <trkpt lat="45.02881" lon="5.47722">
        <ele>1289.2</ele>
        <time>2021-08-31T14:57:02Z</time>
      </trkpt>
      <trkpt lat="45.02876" lon="5.47721">
        <ele>1289.1</ele>
        <time>2021-08-31T14:57:03Z</time>
      </trkpt>
      <trkpt lat="45.0287" lon="5.4772">
        <ele>1288.9</ele>
        <time>2021-08-31T14:57:05Z</time>
      </trkpt>
      <trkpt lat="45.02862" lon="5.47717">
        <ele>1288.6</ele>
        <time>2021-08-31T14:57:07Z</time>
      </trkpt>
      <trkpt lat="45.02856" lon="5.47716">
        <ele>1288.4</ele>
        <time>2021-08-31T14:57:08Z</time>
      </trkpt>
      <trkpt lat="45.02846" lon="5.47713">
        <ele>1288</ele>
        <time>2021-08-31T14:57:10Z</time>
      </trkpt>
      <trkpt lat="45.02841" lon="5.47712">
        <ele>1287.8</ele>
        <time>2021-08-31T14:57:11Z</time>
      </trkpt>
      <trkpt lat="45.02835" lon="5.47712">
        <ele>1287.5</ele>
        <time>2021-08-31T14:57:12Z</time>
      </trkpt>
      <trkpt lat="45.02824" lon="5.4771">
        <ele>1286.8</ele>
        <time>2021-08-31T14:57:14Z</time>
      </trkpt>
      <trkpt lat="45.02812" lon="5.47709">
        <ele>1286</ele>
        <time>2021-08-31T14:57:16Z</time>
      </trkpt>
      <trkpt lat="45.02805" lon="5.47709">
        <ele>1285.6</ele>
        <time>2021-08-31T14:57:17Z</time>
      </trkpt>
      <trkpt lat="45.02792" lon="5.4771">
        <ele>1284.8</ele>
        <time>2021-08-31T14:57:19Z</time>
      </trkpt>
      <trkpt lat="45.02779" lon="5.47714">
        <ele>1284.2</ele>
        <time>2021-08-31T14:57:21Z</time>
      </trkpt>
      <trkpt lat="45.02767" lon="5.47717">
        <ele>1283.8</ele>
        <time>2021-08-31T14:57:23Z</time>
      </trkpt>
      <trkpt lat="45.02754" lon="5.47721">
        <ele>1283.5</ele>
        <time>2021-08-31T14:57:25Z</time>
      </trkpt>
      <trkpt lat="45.02747" lon="5.47722">
        <ele>1283.4</ele>
        <time>2021-08-31T14:57:26Z</time>
      </trkpt>
      <trkpt lat="45.02734" lon="5.47724">
        <ele>1283.1</ele>
        <time>2021-08-31T14:57:28Z</time>
      </trkpt>
      <trkpt lat="45.02727" lon="5.47725">
        <ele>1283</ele>
        <time>2021-08-31T14:57:29Z</time>
      </trkpt>
      <trkpt lat="45.0272" lon="5.47725">
        <ele>1282.8</ele>
        <time>2021-08-31T14:57:30Z</time>
      </trkpt>
      <trkpt lat="45.02707" lon="5.47724">
        <ele>1282.4</ele>
        <time>2021-08-31T14:57:32Z</time>
      </trkpt>
      <trkpt lat="45.02693" lon="5.47723">
        <ele>1282</ele>
        <time>2021-08-31T14:57:34Z</time>
      </trkpt>
      <trkpt lat="45.02686" lon="5.47722">
        <ele>1281.7</ele>
        <time>2021-08-31T14:57:35Z</time>
      </trkpt>
      <trkpt lat="45.02672" lon="5.47719">
        <ele>1281.2</ele>
        <time>2021-08-31T14:57:37Z</time>
      </trkpt>
      <trkpt lat="45.02665" lon="5.47717">
        <ele>1281</ele>
        <time>2021-08-31T14:57:38Z</time>
      </trkpt>
      <trkpt lat="45.02653" lon="5.47714">
        <ele>1280.5</ele>
        <time>2021-08-31T14:57:40Z</time>
      </trkpt>
      <trkpt lat="45.02646" lon="5.47712">
        <ele>1280.1</ele>
        <time>2021-08-31T14:57:41Z</time>
      </trkpt>
      <trkpt lat="45.02639" lon="5.47711">
        <ele>1279.8</ele>
        <time>2021-08-31T14:57:42Z</time>
      </trkpt>
      <trkpt lat="45.02632" lon="5.47709">
        <ele>1279.5</ele>
        <time>2021-08-31T14:57:43Z</time>
      </trkpt>
      <trkpt lat="45.02624" lon="5.47707">
        <ele>1279.1</ele>
        <time>2021-08-31T14:57:44Z</time>
      </trkpt>
      <trkpt lat="45.02609" lon="5.47703">
        <ele>1278.4</ele>
        <time>2021-08-31T14:57:46Z</time>
      </trkpt>
      <trkpt lat="45.02594" lon="5.477">
        <ele>1277.9</ele>
        <time>2021-08-31T14:57:48Z</time>
      </trkpt>
      <trkpt lat="45.02587" lon="5.47698">
        <ele>1277.8</ele>
        <time>2021-08-31T14:57:49Z</time>
      </trkpt>
      <trkpt lat="45.0258" lon="5.47697">
        <ele>1277.7</ele>
        <time>2021-08-31T14:57:50Z</time>
      </trkpt>
      <trkpt lat="45.02565" lon="5.47697">
        <ele>1277.6</ele>
        <time>2021-08-31T14:57:52Z</time>
      </trkpt>
      <trkpt lat="45.02552" lon="5.47693">
        <ele>1278.1</ele>
        <time>2021-08-31T14:57:54Z</time>
      </trkpt>
      <trkpt lat="45.02537" lon="5.47688">
        <ele>1279</ele>
        <time>2021-08-31T14:57:56Z</time>
      </trkpt>
      <trkpt lat="45.02525" lon="5.47683">
        <ele>1280.2</ele>
        <time>2021-08-31T14:57:58Z</time>
      </trkpt>
      <trkpt lat="45.0252" lon="5.47681">
        <ele>1280.7</ele>
        <time>2021-08-31T14:57:59Z</time>
      </trkpt>
      <trkpt lat="45.02516" lon="5.47679">
        <ele>1281.2</ele>
        <time>2021-08-31T14:58:00Z</time>
      </trkpt>
      <trkpt lat="45.0251" lon="5.47677">
        <ele>1281.7</ele>
        <time>2021-08-31T14:58:02Z</time>
      </trkpt>
      <trkpt lat="45.02505" lon="5.47677">
        <ele>1282.2</ele>
        <time>2021-08-31T14:58:04Z</time>
      </trkpt>
      <trkpt lat="45.02502" lon="5.47676">
        <ele>1282.4</ele>
        <time>2021-08-31T14:58:05Z</time>
      </trkpt>
      <trkpt lat="45.02497" lon="5.47676">
        <ele>1282.8</ele>
        <time>2021-08-31T14:58:07Z</time>
      </trkpt>
      <trkpt lat="45.02493" lon="5.47675">
        <ele>1283</ele>
        <time>2021-08-31T14:58:08Z</time>
      </trkpt>
      <trkpt lat="45.02491" lon="5.47671">
        <ele>1283.2</ele>
        <time>2021-08-31T14:58:09Z</time>
      </trkpt>
      <trkpt lat="45.02489" lon="5.4767">
        <ele>1283.3</ele>
        <time>2021-08-31T14:58:10Z</time>
      </trkpt>
      <trkpt lat="45.02484" lon="5.47671">
        <ele>1283.5</ele>
        <time>2021-08-31T14:58:11Z</time>
      </trkpt>
      <trkpt lat="45.0248" lon="5.47672">
        <ele>1283.6</ele>
        <time>2021-08-31T14:58:12Z</time>
      </trkpt>
      <trkpt lat="45.02477" lon="5.47673">
        <ele>1283.8</ele>
        <time>2021-08-31T14:58:14Z</time>
      </trkpt>
      <trkpt lat="45.02472" lon="5.47673">
        <ele>1283.9</ele>
        <time>2021-08-31T14:58:15Z</time>
      </trkpt>
      <trkpt lat="45.02469" lon="5.47673">
        <ele>1284</ele>
        <time>2021-08-31T14:58:16Z</time>
      </trkpt>
      <trkpt lat="45.02464" lon="5.47673">
        <ele>1284.1</ele>
        <time>2021-08-31T14:58:17Z</time>
      </trkpt>
      <trkpt lat="45.02458" lon="5.47673">
        <ele>1284.3</ele>
        <time>2021-08-31T14:58:19Z</time>
      </trkpt>
      <trkpt lat="45.02451" lon="5.47671">
        <ele>1284.5</ele>
        <time>2021-08-31T14:58:21Z</time>
      </trkpt>
      <trkpt lat="45.02446" lon="5.4767">
        <ele>1284.6</ele>
        <time>2021-08-31T14:58:23Z</time>
      </trkpt>
      <trkpt lat="45.02442" lon="5.4767">
        <ele>1284.7</ele>
        <time>2021-08-31T14:58:24Z</time>
      </trkpt>
      <trkpt lat="45.02438" lon="5.47671">
        <ele>1284.9</ele>
        <time>2021-08-31T14:58:25Z</time>
      </trkpt>
      <trkpt lat="45.02432" lon="5.47671">
        <ele>1285.1</ele>
        <time>2021-08-31T14:58:27Z</time>
      </trkpt>
      <trkpt lat="45.02425" lon="5.4767">
        <ele>1285.5</ele>
        <time>2021-08-31T14:58:28Z</time>
      </trkpt>
      <trkpt lat="45.0242" lon="5.47669">
        <ele>1285.8</ele>
        <time>2021-08-31T14:58:30Z</time>
      </trkpt>
      <trkpt lat="45.02416" lon="5.47667">
        <ele>1286.1</ele>
        <time>2021-08-31T14:58:31Z</time>
      </trkpt>
      <trkpt lat="45.02412" lon="5.47665">
        <ele>1286.3</ele>
        <time>2021-08-31T14:58:32Z</time>
      </trkpt>
      <trkpt lat="45.02405" lon="5.47661">
        <ele>1286.8</ele>
        <time>2021-08-31T14:58:34Z</time>
      </trkpt>
      <trkpt lat="45.02401" lon="5.47659">
        <ele>1287</ele>
        <time>2021-08-31T14:58:35Z</time>
      </trkpt>
      <trkpt lat="45.02397" lon="5.47656">
        <ele>1287.3</ele>
        <time>2021-08-31T14:58:36Z</time>
      </trkpt>
      <trkpt lat="45.0239" lon="5.47653">
        <ele>1287.6</ele>
        <time>2021-08-31T14:58:38Z</time>
      </trkpt>
      <trkpt lat="45.02387" lon="5.47651">
        <ele>1287.7</ele>
        <time>2021-08-31T14:58:39Z</time>
      </trkpt>
      <trkpt lat="45.02381" lon="5.47649">
        <ele>1288</ele>
        <time>2021-08-31T14:58:41Z</time>
      </trkpt>
      <trkpt lat="45.02377" lon="5.47649">
        <ele>1288.2</ele>
        <time>2021-08-31T14:58:43Z</time>
      </trkpt>
      <trkpt lat="45.02374" lon="5.4765">
        <ele>1288.3</ele>
        <time>2021-08-31T14:58:44Z</time>
      </trkpt>
      <trkpt lat="45.0237" lon="5.47652">
        <ele>1288.5</ele>
        <time>2021-08-31T14:58:45Z</time>
      </trkpt>
      <trkpt lat="45.02368" lon="5.47652">
        <ele>1288.6</ele>
        <time>2021-08-31T14:58:46Z</time>
      </trkpt>
      <trkpt lat="45.02366" lon="5.47653">
        <ele>1288.7</ele>
        <time>2021-08-31T14:58:47Z</time>
      </trkpt>
      <trkpt lat="45.02364" lon="5.47654">
        <ele>1288.8</ele>
        <time>2021-08-31T14:58:49Z</time>
      </trkpt>
      <trkpt lat="45.0236" lon="5.47654">
        <ele>1288.9</ele>
        <time>2021-08-31T14:58:50Z</time>
      </trkpt>
      <trkpt lat="45.02359" lon="5.47654">
        <ele>1289</ele>
        <time>2021-08-31T14:58:51Z</time>
      </trkpt>
      <trkpt lat="45.02355" lon="5.47654">
        <ele>1289.1</ele>
        <time>2021-08-31T14:58:53Z</time>
      </trkpt>
      <trkpt lat="45.02352" lon="5.47653">
        <ele>1289.3</ele>
        <time>2021-08-31T14:58:54Z</time>
      </trkpt>
      <trkpt lat="45.0235" lon="5.47651">
        <ele>1289.4</ele>
        <time>2021-08-31T14:58:55Z</time>
      </trkpt>
      <trkpt lat="45.02346" lon="5.47649">
        <ele>1289.6</ele>
        <time>2021-08-31T14:58:56Z</time>
      </trkpt>
      <trkpt lat="45.02343" lon="5.47647">
        <ele>1289.7</ele>
        <time>2021-08-31T14:58:57Z</time>
      </trkpt>
      <trkpt lat="45.02338" lon="5.47643">
        <ele>1289.8</ele>
        <time>2021-08-31T14:58:59Z</time>
      </trkpt>
      <trkpt lat="45.02332" lon="5.47642">
        <ele>1289.9</ele>
        <time>2021-08-31T14:59:01Z</time>
      </trkpt>
      <trkpt lat="45.02328" lon="5.47641">
        <ele>1290</ele>
        <time>2021-08-31T14:59:03Z</time>
      </trkpt>
      <trkpt lat="45.02325" lon="5.47641">
        <ele>1290</ele>
        <time>2021-08-31T14:59:04Z</time>
      </trkpt>
      <trkpt lat="45.02321" lon="5.47642">
        <ele>1290.1</ele>
        <time>2021-08-31T14:59:05Z</time>
      </trkpt>
      <trkpt lat="45.02317" lon="5.47641">
        <ele>1290.1</ele>
        <time>2021-08-31T14:59:07Z</time>
      </trkpt>
      <trkpt lat="45.0232" lon="5.47637">
        <ele>1290.2</ele>
        <time>2021-08-31T14:59:09Z</time>
      </trkpt>
      <trkpt lat="45.02319" lon="5.47632">
        <ele>1290.2</ele>
        <time>2021-08-31T14:59:11Z</time>
      </trkpt>
      <trkpt lat="45.02317" lon="5.47628">
        <ele>1290.2</ele>
        <time>2021-08-31T14:59:13Z</time>
      </trkpt>
      <trkpt lat="45.02313" lon="5.47625">
        <ele>1290.3</ele>
        <time>2021-08-31T14:59:14Z</time>
      </trkpt>
      <trkpt lat="45.02312" lon="5.47624">
        <ele>1290.3</ele>
        <time>2021-08-31T14:59:15Z</time>
      </trkpt>
      <trkpt lat="45.02307" lon="5.47623">
        <ele>1290.4</ele>
        <time>2021-08-31T14:59:17Z</time>
      </trkpt>
      <trkpt lat="45.023" lon="5.47619">
        <ele>1290.5</ele>
        <time>2021-08-31T14:59:18Z</time>
      </trkpt>
      <trkpt lat="45.02295" lon="5.47617">
        <ele>1290.6</ele>
        <time>2021-08-31T14:59:19Z</time>
      </trkpt>
      <trkpt lat="45.02289" lon="5.47614">
        <ele>1290.7</ele>
        <time>2021-08-31T14:59:20Z</time>
      </trkpt>
      <trkpt lat="45.02285" lon="5.47613">
        <ele>1290.8</ele>
        <time>2021-08-31T14:59:21Z</time>
      </trkpt>
      <trkpt lat="45.02282" lon="5.47614">
        <ele>1290.8</ele>
        <time>2021-08-31T14:59:22Z</time>
      </trkpt>
      <trkpt lat="45.02275" lon="5.47617">
        <ele>1291</ele>
        <time>2021-08-31T14:59:24Z</time>
      </trkpt>
      <trkpt lat="45.0227" lon="5.47619">
        <ele>1291.1</ele>
        <time>2021-08-31T14:59:26Z</time>
      </trkpt>
      <trkpt lat="45.02265" lon="5.47619">
        <ele>1291.2</ele>
        <time>2021-08-31T14:59:27Z</time>
      </trkpt>
      <trkpt lat="45.0226" lon="5.47617">
        <ele>1291.3</ele>
        <time>2021-08-31T14:59:28Z</time>
      </trkpt>
      <trkpt lat="45.02256" lon="5.47615">
        <ele>1291.5</ele>
        <time>2021-08-31T14:59:30Z</time>
      </trkpt>
      <trkpt lat="45.02253" lon="5.47614">
        <ele>1291.6</ele>
        <time>2021-08-31T14:59:31Z</time>
      </trkpt>
      <trkpt lat="45.0225" lon="5.47615">
        <ele>1291.7</ele>
        <time>2021-08-31T14:59:32Z</time>
      </trkpt>
      <trkpt lat="45.02248" lon="5.47615">
        <ele>1291.8</ele>
        <time>2021-08-31T14:59:33Z</time>
      </trkpt>
      <trkpt lat="45.02244" lon="5.47616">
        <ele>1291.9</ele>
        <time>2021-08-31T14:59:35Z</time>
      </trkpt>
      <trkpt lat="45.02241" lon="5.47616">
        <ele>1292</ele>
        <time>2021-08-31T14:59:36Z</time>
      </trkpt>
      <trkpt lat="45.02238" lon="5.47616">
        <ele>1292.2</ele>
        <time>2021-08-31T14:59:38Z</time>
      </trkpt>
      <trkpt lat="45.02237" lon="5.47616">
        <ele>1292.3</ele>
        <time>2021-08-31T14:59:39Z</time>
      </trkpt>
      <trkpt lat="45.02235" lon="5.47616">
        <ele>1292.4</ele>
        <time>2021-08-31T14:59:40Z</time>
      </trkpt>
      <trkpt lat="45.02234" lon="5.47616">
        <ele>1292.4</ele>
        <time>2021-08-31T14:59:41Z</time>
      </trkpt>
      <trkpt lat="45.02232" lon="5.47617">
        <ele>1292.5</ele>
        <time>2021-08-31T14:59:42Z</time>
      </trkpt>
      <trkpt lat="45.02218" lon="5.47624">
        <ele>1293.4</ele>
        <time>2021-08-31T14:59:50Z</time>
      </trkpt>
      <trkpt lat="45.02211" lon="5.47622">
        <ele>1293.8</ele>
        <time>2021-08-31T14:59:52Z</time>
      </trkpt>
      <trkpt lat="45.02207" lon="5.4762">
        <ele>1294.2</ele>
        <time>2021-08-31T14:59:54Z</time>
      </trkpt>
      <trkpt lat="45.02202" lon="5.4762">
        <ele>1294.4</ele>
        <time>2021-08-31T14:59:55Z</time>
      </trkpt>
      <trkpt lat="45.02199" lon="5.47621">
        <ele>1294.7</ele>
        <time>2021-08-31T14:59:57Z</time>
      </trkpt>
      <trkpt lat="45.02195" lon="5.47622">
        <ele>1294.9</ele>
        <time>2021-08-31T14:59:58Z</time>
      </trkpt>
      <trkpt lat="45.0219" lon="5.47624">
        <ele>1295.2</ele>
        <time>2021-08-31T15:00:00Z</time>
      </trkpt>
      <trkpt lat="45.02186" lon="5.47625">
        <ele>1295.3</ele>
        <time>2021-08-31T15:00:01Z</time>
      </trkpt>
      <trkpt lat="45.02182" lon="5.47627">
        <ele>1295.5</ele>
        <time>2021-08-31T15:00:03Z</time>
      </trkpt>
      <trkpt lat="45.02179" lon="5.47627">
        <ele>1295.6</ele>
        <time>2021-08-31T15:00:04Z</time>
      </trkpt>
      <trkpt lat="45.02175" lon="5.47625">
        <ele>1295.8</ele>
        <time>2021-08-31T15:00:05Z</time>
      </trkpt>
      <trkpt lat="45.02172" lon="5.47623">
        <ele>1295.9</ele>
        <time>2021-08-31T15:00:07Z</time>
      </trkpt>
      <trkpt lat="45.0217" lon="5.47618">
        <ele>1295.9</ele>
        <time>2021-08-31T15:00:08Z</time>
      </trkpt>
      <trkpt lat="45.02169" lon="5.47612">
        <ele>1296</ele>
        <time>2021-08-31T15:00:10Z</time>
      </trkpt>
      <trkpt lat="45.02168" lon="5.47608">
        <ele>1296.1</ele>
        <time>2021-08-31T15:00:11Z</time>
      </trkpt>
      <trkpt lat="45.02168" lon="5.47605">
        <ele>1296.1</ele>
        <time>2021-08-31T15:00:13Z</time>
      </trkpt>
      <trkpt lat="45.02168" lon="5.47604">
        <ele>1296.1</ele>
        <time>2021-08-31T15:00:14Z</time>
      </trkpt>
      <trkpt lat="45.02168" lon="5.47601">
        <ele>1296.1</ele>
        <time>2021-08-31T15:00:15Z</time>
      </trkpt>
      <trkpt lat="45.02168" lon="5.47599">
        <ele>1296.1</ele>
        <time>2021-08-31T15:00:17Z</time>
      </trkpt>
      <trkpt lat="45.02168" lon="5.47598">
        <ele>1296.1</ele>
        <time>2021-08-31T15:00:18Z</time>
      </trkpt>
      <trkpt lat="45.02167" lon="5.47594">
        <ele>1296.2</ele>
        <time>2021-08-31T15:00:20Z</time>
      </trkpt>
      <trkpt lat="45.02167" lon="5.47592">
        <ele>1296.2</ele>
        <time>2021-08-31T15:00:21Z</time>
      </trkpt>
      <trkpt lat="45.02166" lon="5.47589">
        <ele>1296.2</ele>
        <time>2021-08-31T15:00:23Z</time>
      </trkpt>
      <trkpt lat="45.02146" lon="5.4758">
        <ele>1296.3</ele>
        <time>2021-08-31T15:00:28Z</time>
      </trkpt>
      <trkpt lat="45.02139" lon="5.47579">
        <ele>1296.5</ele>
        <time>2021-08-31T15:00:30Z</time>
      </trkpt>
      <trkpt lat="45.02132" lon="5.47579">
        <ele>1296.7</ele>
        <time>2021-08-31T15:00:31Z</time>
      </trkpt>
      <trkpt lat="45.02126" lon="5.47579">
        <ele>1296.8</ele>
        <time>2021-08-31T15:00:32Z</time>
      </trkpt>
      <trkpt lat="45.02115" lon="5.47577">
        <ele>1297.2</ele>
        <time>2021-08-31T15:00:33Z</time>
      </trkpt>
      <trkpt lat="45.02106" lon="5.47573">
        <ele>1297.5</ele>
        <time>2021-08-31T15:00:35Z</time>
      </trkpt>
      <trkpt lat="45.021" lon="5.47569">
        <ele>1297.7</ele>
        <time>2021-08-31T15:00:36Z</time>
      </trkpt>
      <trkpt lat="45.0209" lon="5.47561">
        <ele>1298</ele>
        <time>2021-08-31T15:00:37Z</time>
      </trkpt>
      <trkpt lat="45.02083" lon="5.47555">
        <ele>1298</ele>
        <time>2021-08-31T15:00:39Z</time>
      </trkpt>
      <trkpt lat="45.02077" lon="5.47551">
        <ele>1298</ele>
        <time>2021-08-31T15:00:40Z</time>
      </trkpt>
      <trkpt lat="45.02069" lon="5.47545">
        <ele>1298.1</ele>
        <time>2021-08-31T15:00:41Z</time>
      </trkpt>
      <trkpt lat="45.02065" lon="5.4754">
        <ele>1298.2</ele>
        <time>2021-08-31T15:00:43Z</time>
      </trkpt>
      <trkpt lat="45.02062" lon="5.47536">
        <ele>1298.4</ele>
        <time>2021-08-31T15:00:44Z</time>
      </trkpt>
      <trkpt lat="45.02056" lon="5.47531">
        <ele>1298.6</ele>
        <time>2021-08-31T15:00:45Z</time>
      </trkpt>
      <trkpt lat="45.02052" lon="5.47526">
        <ele>1298.9</ele>
        <time>2021-08-31T15:00:47Z</time>
      </trkpt>
      <trkpt lat="45.02045" lon="5.47518">
        <ele>1299.4</ele>
        <time>2021-08-31T15:00:49Z</time>
      </trkpt>
      <trkpt lat="45.02041" lon="5.47515">
        <ele>1299.7</ele>
        <time>2021-08-31T15:00:50Z</time>
      </trkpt>
      <trkpt lat="45.02038" lon="5.47512">
        <ele>1299.9</ele>
        <time>2021-08-31T15:00:51Z</time>
      </trkpt>
      <trkpt lat="45.0204" lon="5.4751">
        <ele>1300.1</ele>
        <time>2021-08-31T15:00:53Z</time>
      </trkpt>
      <trkpt lat="45.02041" lon="5.47509">
        <ele>1300.2</ele>
        <time>2021-08-31T15:00:55Z</time>
      </trkpt>
      <trkpt lat="45.02042" lon="5.47507">
        <ele>1300.2</ele>
        <time>2021-08-31T15:00:56Z</time>
      </trkpt>
      <trkpt lat="45.02044" lon="5.47504">
        <ele>1300.4</ele>
        <time>2021-08-31T15:00:58Z</time>
      </trkpt>
      <trkpt lat="45.02045" lon="5.47503">
        <ele>1300.5</ele>
        <time>2021-08-31T15:00:59Z</time>
      </trkpt>
      <trkpt lat="45.02046" lon="5.47502">
        <ele>1300.6</ele>
        <time>2021-08-31T15:01:01Z</time>
      </trkpt>
      <trkpt lat="45.02044" lon="5.47491">
        <ele>1301</ele>
        <time>2021-08-31T15:01:05Z</time>
      </trkpt>
      <trkpt lat="45.02041" lon="5.47484">
        <ele>1301.3</ele>
        <time>2021-08-31T15:01:07Z</time>
      </trkpt>
      <trkpt lat="45.02038" lon="5.47478">
        <ele>1301.7</ele>
        <time>2021-08-31T15:01:08Z</time>
      </trkpt>
      <trkpt lat="45.02035" lon="5.47466">
        <ele>1302.2</ele>
        <time>2021-08-31T15:01:09Z</time>
      </trkpt>
      <trkpt lat="45.0203" lon="5.47457">
        <ele>1302.8</ele>
        <time>2021-08-31T15:01:12Z</time>
      </trkpt>
      <trkpt lat="45.02022" lon="5.4745">
        <ele>1303.3</ele>
        <time>2021-08-31T15:01:13Z</time>
      </trkpt>
      <trkpt lat="45.02018" lon="5.47446">
        <ele>1303.5</ele>
        <time>2021-08-31T15:01:14Z</time>
      </trkpt>
      <trkpt lat="45.02015" lon="5.47444">
        <ele>1303.7</ele>
        <time>2021-08-31T15:01:15Z</time>
      </trkpt>
      <trkpt lat="45.02012" lon="5.47441">
        <ele>1303.9</ele>
        <time>2021-08-31T15:01:16Z</time>
      </trkpt>
      <trkpt lat="45.02009" lon="5.47439">
        <ele>1304</ele>
        <time>2021-08-31T15:01:18Z</time>
      </trkpt>
      <trkpt lat="45.02006" lon="5.47436">
        <ele>1304.2</ele>
        <time>2021-08-31T15:01:19Z</time>
      </trkpt>
      <trkpt lat="45.02003" lon="5.47434">
        <ele>1304.4</ele>
        <time>2021-08-31T15:01:20Z</time>
      </trkpt>
      <trkpt lat="45.01999" lon="5.47431">
        <ele>1304.6</ele>
        <time>2021-08-31T15:01:22Z</time>
      </trkpt>
      <trkpt lat="45.01997" lon="5.47428">
        <ele>1304.8</ele>
        <time>2021-08-31T15:01:23Z</time>
      </trkpt>
      <trkpt lat="45.01996" lon="5.47425">
        <ele>1304.9</ele>
        <time>2021-08-31T15:01:24Z</time>
      </trkpt>
      <trkpt lat="45.01994" lon="5.47418">
        <ele>1305.2</ele>
        <time>2021-08-31T15:01:26Z</time>
      </trkpt>
      <trkpt lat="45.01993" lon="5.47414">
        <ele>1305.3</ele>
        <time>2021-08-31T15:01:27Z</time>
      </trkpt>
      <trkpt lat="45.01992" lon="5.47408">
        <ele>1305.5</ele>
        <time>2021-08-31T15:01:29Z</time>
      </trkpt>
      <trkpt lat="45.01989" lon="5.47404">
        <ele>1305.7</ele>
        <time>2021-08-31T15:01:31Z</time>
      </trkpt>
      <trkpt lat="45.01987" lon="5.47401">
        <ele>1305.8</ele>
        <time>2021-08-31T15:01:32Z</time>
      </trkpt>
      <trkpt lat="45.01985" lon="5.47399">
        <ele>1305.9</ele>
        <time>2021-08-31T15:01:34Z</time>
      </trkpt>
      <trkpt lat="45.01984" lon="5.47398">
        <ele>1305.9</ele>
        <time>2021-08-31T15:01:35Z</time>
      </trkpt>
      <trkpt lat="45.01988" lon="5.47397">
        <ele>1306</ele>
        <time>2021-08-31T15:01:37Z</time>
      </trkpt>
      <trkpt lat="45.01987" lon="5.47394">
        <ele>1306.1</ele>
        <time>2021-08-31T15:01:38Z</time>
      </trkpt>
      <trkpt lat="45.01986" lon="5.47393">
        <ele>1306.1</ele>
        <time>2021-08-31T15:01:39Z</time>
      </trkpt>
      <trkpt lat="45.01985" lon="5.47393">
        <ele>1306.1</ele>
        <time>2021-08-31T15:01:40Z</time>
      </trkpt>
      <trkpt lat="45.01985" lon="5.47392">
        <ele>1306.1</ele>
        <time>2021-08-31T15:01:42Z</time>
      </trkpt>
      <trkpt lat="45.01985" lon="5.47392">
        <ele>1306.1</ele>
        <time>2021-08-31T15:01:43Z</time>
      </trkpt>
      <trkpt lat="45.01985" lon="5.47391">
        <ele>1306.2</ele>
        <time>2021-08-31T15:01:44Z</time>
      </trkpt>
      <trkpt lat="45.01984" lon="5.4739">
        <ele>1306.2</ele>
        <time>2021-08-31T15:01:45Z</time>
      </trkpt>
      <trkpt lat="45.01984" lon="5.47389">
        <ele>1306.2</ele>
        <time>2021-08-31T15:01:46Z</time>
      </trkpt>
      <trkpt lat="45.01984" lon="5.47389">
        <ele>1306.2</ele>
        <time>2021-08-31T15:01:47Z</time>
      </trkpt>
      <trkpt lat="45.01982" lon="5.47384">
        <ele>1306.3</ele>
        <time>2021-08-31T15:01:49Z</time>
      </trkpt>
      <trkpt lat="45.01981" lon="5.4738">
        <ele>1306.4</ele>
        <time>2021-08-31T15:01:50Z</time>
      </trkpt>
      <trkpt lat="45.01979" lon="5.47375">
        <ele>1306.6</ele>
        <time>2021-08-31T15:01:51Z</time>
      </trkpt>
      <trkpt lat="45.01979" lon="5.4737">
        <ele>1306.7</ele>
        <time>2021-08-31T15:01:52Z</time>
      </trkpt>
      <trkpt lat="45.01977" lon="5.47364">
        <ele>1306.8</ele>
        <time>2021-08-31T15:01:54Z</time>
      </trkpt>
      <trkpt lat="45.01976" lon="5.47362">
        <ele>1306.9</ele>
        <time>2021-08-31T15:01:55Z</time>
      </trkpt>
      <trkpt lat="45.01975" lon="5.47361">
        <ele>1306.9</ele>
        <time>2021-08-31T15:01:56Z</time>
      </trkpt>
      <trkpt lat="45.0197" lon="5.47359">
        <ele>1307.6</ele>
        <time>2021-08-31T15:01:57Z</time>
      </trkpt>
      <trkpt lat="45.01965" lon="5.47358">
        <ele>1307.9</ele>
        <time>2021-08-31T15:01:59Z</time>
      </trkpt>
      <trkpt lat="45.01961" lon="5.47359">
        <ele>1308</ele>
        <time>2021-08-31T15:02:00Z</time>
      </trkpt>
      <trkpt lat="45.01958" lon="5.47359">
        <ele>1308.2</ele>
        <time>2021-08-31T15:02:01Z</time>
      </trkpt>
      <trkpt lat="45.01954" lon="5.47359">
        <ele>1308.4</ele>
        <time>2021-08-31T15:02:02Z</time>
      </trkpt>
      <trkpt lat="45.01952" lon="5.47359">
        <ele>1308.4</ele>
        <time>2021-08-31T15:02:03Z</time>
      </trkpt>
      <trkpt lat="45.0195" lon="5.47358">
        <ele>1308.6</ele>
        <time>2021-08-31T15:02:04Z</time>
      </trkpt>
      <trkpt lat="45.01947" lon="5.47357">
        <ele>1308.7</ele>
        <time>2021-08-31T15:02:05Z</time>
      </trkpt>
      <trkpt lat="45.01942" lon="5.47355">
        <ele>1308.9</ele>
        <time>2021-08-31T15:02:06Z</time>
      </trkpt>
      <trkpt lat="45.01936" lon="5.47354">
        <ele>1309.1</ele>
        <time>2021-08-31T15:02:08Z</time>
      </trkpt>
      <trkpt lat="45.01933" lon="5.47353">
        <ele>1309.3</ele>
        <time>2021-08-31T15:02:09Z</time>
      </trkpt>
      <trkpt lat="45.01929" lon="5.47352">
        <ele>1309.4</ele>
        <time>2021-08-31T15:02:10Z</time>
      </trkpt>
      <trkpt lat="45.01926" lon="5.47354">
        <ele>1309.5</ele>
        <time>2021-08-31T15:02:11Z</time>
      </trkpt>
      <trkpt lat="45.01925" lon="5.47354">
        <ele>1309.5</ele>
        <time>2021-08-31T15:02:12Z</time>
      </trkpt>
      <trkpt lat="45.01921" lon="5.47355">
        <ele>1309.7</ele>
        <time>2021-08-31T15:02:14Z</time>
      </trkpt>
      <trkpt lat="45.01918" lon="5.47355">
        <ele>1309.7</ele>
        <time>2021-08-31T15:02:16Z</time>
      </trkpt>
      <trkpt lat="45.01917" lon="5.47355">
        <ele>1309.8</ele>
        <time>2021-08-31T15:02:17Z</time>
      </trkpt>
      <trkpt lat="45.01914" lon="5.47354">
        <ele>1309.8</ele>
        <time>2021-08-31T15:02:18Z</time>
      </trkpt>
      <trkpt lat="45.01912" lon="5.47354">
        <ele>1309.8</ele>
        <time>2021-08-31T15:02:19Z</time>
      </trkpt>
      <trkpt lat="45.01909" lon="5.47353">
        <ele>1309.9</ele>
        <time>2021-08-31T15:02:21Z</time>
      </trkpt>
      <trkpt lat="45.01906" lon="5.47349">
        <ele>1310</ele>
        <time>2021-08-31T15:02:22Z</time>
      </trkpt>
      <trkpt lat="45.01902" lon="5.47343">
        <ele>1310</ele>
        <time>2021-08-31T15:02:24Z</time>
      </trkpt>
      <trkpt lat="45.01899" lon="5.47336">
        <ele>1310</ele>
        <time>2021-08-31T15:02:25Z</time>
      </trkpt>
      <trkpt lat="45.01896" lon="5.47331">
        <ele>1309.8</ele>
        <time>2021-08-31T15:02:26Z</time>
      </trkpt>
      <trkpt lat="45.0189" lon="5.47324">
        <ele>1309.5</ele>
        <time>2021-08-31T15:02:28Z</time>
      </trkpt>
      <trkpt lat="45.01883" lon="5.47317">
        <ele>1309</ele>
        <time>2021-08-31T15:02:29Z</time>
      </trkpt>
      <trkpt lat="45.01877" lon="5.47312">
        <ele>1308.5</ele>
        <time>2021-08-31T15:02:30Z</time>
      </trkpt>
      <trkpt lat="45.0187" lon="5.47306">
        <ele>1308.1</ele>
        <time>2021-08-31T15:02:31Z</time>
      </trkpt>
      <trkpt lat="45.01863" lon="5.47299">
        <ele>1308</ele>
        <time>2021-08-31T15:02:32Z</time>
      </trkpt>
      <trkpt lat="45.01853" lon="5.47287">
        <ele>1308.3</ele>
        <time>2021-08-31T15:02:34Z</time>
      </trkpt>
      <trkpt lat="45.01849" lon="5.47282">
        <ele>1308.7</ele>
        <time>2021-08-31T15:02:35Z</time>
      </trkpt>
      <trkpt lat="45.01841" lon="5.47273">
        <ele>1309.5</ele>
        <time>2021-08-31T15:02:37Z</time>
      </trkpt>
      <trkpt lat="45.01838" lon="5.47268">
        <ele>1310</ele>
        <time>2021-08-31T15:02:38Z</time>
      </trkpt>
      <trkpt lat="45.01833" lon="5.47262">
        <ele>1310.6</ele>
        <time>2021-08-31T15:02:39Z</time>
      </trkpt>
      <trkpt lat="45.0183" lon="5.47259">
        <ele>1311</ele>
        <time>2021-08-31T15:02:41Z</time>
      </trkpt>
      <trkpt lat="45.01827" lon="5.47258">
        <ele>1311.3</ele>
        <time>2021-08-31T15:02:42Z</time>
      </trkpt>
      <trkpt lat="45.01822" lon="5.47253">
        <ele>1312</ele>
        <time>2021-08-31T15:02:44Z</time>
      </trkpt>
      <trkpt lat="45.01817" lon="5.47251">
        <ele>1312.6</ele>
        <time>2021-08-31T15:02:46Z</time>
      </trkpt>
      <trkpt lat="45.01811" lon="5.47249">
        <ele>1313.2</ele>
        <time>2021-08-31T15:02:47Z</time>
      </trkpt>
      <trkpt lat="45.01806" lon="5.47248">
        <ele>1313.7</ele>
        <time>2021-08-31T15:02:48Z</time>
      </trkpt>
      <trkpt lat="45.01798" lon="5.47245">
        <ele>1314.3</ele>
        <time>2021-08-31T15:02:50Z</time>
      </trkpt>
      <trkpt lat="45.01794" lon="5.47242">
        <ele>1314.7</ele>
        <time>2021-08-31T15:02:51Z</time>
      </trkpt>
      <trkpt lat="45.01787" lon="5.47238">
        <ele>1315</ele>
        <time>2021-08-31T15:02:52Z</time>
      </trkpt>
      <trkpt lat="45.01785" lon="5.47239">
        <ele>1315.1</ele>
        <time>2021-08-31T15:02:54Z</time>
      </trkpt>
      <trkpt lat="45.01784" lon="5.4724">
        <ele>1315.1</ele>
        <time>2021-08-31T15:02:55Z</time>
      </trkpt>
      <trkpt lat="45.01783" lon="5.47241">
        <ele>1315.1</ele>
        <time>2021-08-31T15:02:56Z</time>
      </trkpt>
      <trkpt lat="45.01779" lon="5.47242">
        <ele>1315.3</ele>
        <time>2021-08-31T15:02:58Z</time>
      </trkpt>
      <trkpt lat="45.01779" lon="5.47243">
        <ele>1315.3</ele>
        <time>2021-08-31T15:02:59Z</time>
      </trkpt>
      <trkpt lat="45.01776" lon="5.47244">
        <ele>1314.8</ele>
        <time>2021-08-31T15:03:01Z</time>
      </trkpt>
      <trkpt lat="45.01772" lon="5.47246">
        <ele>1314.6</ele>
        <time>2021-08-31T15:03:03Z</time>
      </trkpt>
      <trkpt lat="45.01769" lon="5.47249">
        <ele>1314.9</ele>
        <time>2021-08-31T15:03:04Z</time>
      </trkpt>
      <trkpt lat="45.01767" lon="5.47249">
        <ele>1315.3</ele>
        <time>2021-08-31T15:03:05Z</time>
      </trkpt>
      <trkpt lat="45.01764" lon="5.47252">
        <ele>1314.8</ele>
        <time>2021-08-31T15:03:07Z</time>
      </trkpt>
      <trkpt lat="45.01762" lon="5.47253">
        <ele>1315.3</ele>
        <time>2021-08-31T15:03:08Z</time>
      </trkpt>
      <trkpt lat="45.01759" lon="5.47257">
        <ele>1316.1</ele>
        <time>2021-08-31T15:03:10Z</time>
      </trkpt>
      <trkpt lat="45.01758" lon="5.47258">
        <ele>1316.2</ele>
        <time>2021-08-31T15:03:11Z</time>
      </trkpt>
      <trkpt lat="45.01756" lon="5.47261">
        <ele>1317.4</ele>
        <time>2021-08-31T15:03:12Z</time>
      </trkpt>
      <trkpt lat="45.01757" lon="5.47266">
        <ele>1317.3</ele>
        <time>2021-08-31T15:03:14Z</time>
      </trkpt>
      <trkpt lat="45.01757" lon="5.47271">
        <ele>1315.4</ele>
        <time>2021-08-31T15:03:16Z</time>
      </trkpt>
      <trkpt lat="45.01757" lon="5.47272">
        <ele>1316</ele>
        <time>2021-08-31T15:03:17Z</time>
      </trkpt>
      <trkpt lat="45.01757" lon="5.47276">
        <ele>1316.5</ele>
        <time>2021-08-31T15:03:18Z</time>
      </trkpt>
      <trkpt lat="45.01755" lon="5.47279">
        <ele>1315.5</ele>
        <time>2021-08-31T15:03:19Z</time>
      </trkpt>
      <trkpt lat="45.01754" lon="5.47281">
        <ele>1316.4</ele>
        <time>2021-08-31T15:03:20Z</time>
      </trkpt>
      <trkpt lat="45.01753" lon="5.47281">
        <ele>1316.9</ele>
        <time>2021-08-31T15:03:21Z</time>
      </trkpt>
      <trkpt lat="45.0175" lon="5.47282">
        <ele>1316.7</ele>
        <time>2021-08-31T15:03:23Z</time>
      </trkpt>
      <trkpt lat="45.01747" lon="5.47284">
        <ele>1317.4</ele>
        <time>2021-08-31T15:03:24Z</time>
      </trkpt>
      <trkpt lat="45.01745" lon="5.47286">
        <ele>1317.2</ele>
        <time>2021-08-31T15:03:25Z</time>
      </trkpt>
      <trkpt lat="45.01731" lon="5.47292">
        <ele>1318.5</ele>
        <time>2021-08-31T15:03:27Z</time>
      </trkpt>
      <trkpt lat="45.01715" lon="5.473">
        <ele>1318.8</ele>
        <time>2021-08-31T15:03:29Z</time>
      </trkpt>
      <trkpt lat="45.01706" lon="5.47302">
        <ele>1319.8</ele>
        <time>2021-08-31T15:03:30Z</time>
      </trkpt>
      <trkpt lat="45.01696" lon="5.47305">
        <ele>1318.7</ele>
        <time>2021-08-31T15:03:32Z</time>
      </trkpt>
      <trkpt lat="45.0168" lon="5.4731">
        <ele>1318.9</ele>
        <time>2021-08-31T15:03:34Z</time>
      </trkpt>
      <trkpt lat="45.01668" lon="5.4731">
        <ele>1319</ele>
        <time>2021-08-31T15:03:36Z</time>
      </trkpt>
      <trkpt lat="45.01663" lon="5.47309">
        <ele>1320.1</ele>
        <time>2021-08-31T15:03:37Z</time>
      </trkpt>
      <trkpt lat="45.01658" lon="5.47308">
        <ele>1319.7</ele>
        <time>2021-08-31T15:03:38Z</time>
      </trkpt>
      <trkpt lat="45.01654" lon="5.47306">
        <ele>1321.8</ele>
        <time>2021-08-31T15:03:39Z</time>
      </trkpt>
      <trkpt lat="45.01649" lon="5.47305">
        <ele>1320.2</ele>
        <time>2021-08-31T15:03:40Z</time>
      </trkpt>
      <trkpt lat="45.01642" lon="5.47306">
        <ele>1319.1</ele>
        <time>2021-08-31T15:03:42Z</time>
      </trkpt>
      <trkpt lat="45.01638" lon="5.47306">
        <ele>1322.2</ele>
        <time>2021-08-31T15:03:43Z</time>
      </trkpt>
      <trkpt lat="45.01634" lon="5.47307">
        <ele>1320.6</ele>
        <time>2021-08-31T15:03:45Z</time>
      </trkpt>
      <trkpt lat="45.01632" lon="5.47307">
        <ele>1322.1</ele>
        <time>2021-08-31T15:03:46Z</time>
      </trkpt>
      <trkpt lat="45.01631" lon="5.47307">
        <ele>1320.7</ele>
        <time>2021-08-31T15:03:47Z</time>
      </trkpt>
      <trkpt lat="45.01628" lon="5.47304">
        <ele>1322.6</ele>
        <time>2021-08-31T15:03:49Z</time>
      </trkpt>
      <trkpt lat="45.01627" lon="5.47304">
        <ele>1323.3</ele>
        <time>2021-08-31T15:03:50Z</time>
      </trkpt>
      <trkpt lat="45.01624" lon="5.47303">
        <ele>1322.7</ele>
        <time>2021-08-31T15:03:52Z</time>
      </trkpt>
      <trkpt lat="45.01622" lon="5.47303">
        <ele>1295.6</ele>
        <time>2021-08-31T15:03:53Z</time>
      </trkpt>
      <trkpt lat="45.0162" lon="5.47302">
        <ele>1338.8</ele>
        <time>2021-08-31T15:03:55Z</time>
      </trkpt>
      <trkpt lat="45.01619" lon="5.47302">
        <ele>1315.3</ele>
        <time>2021-08-31T15:03:56Z</time>
      </trkpt>
      <trkpt lat="45.01617" lon="5.47301">
        <ele>1311.8</ele>
        <time>2021-08-31T15:03:58Z</time>
      </trkpt>
      <trkpt lat="45.01563" lon="5.47401">
        <ele>1314.4</ele>
        <time>2021-08-31T15:05:53Z</time>
      </trkpt>
      <trkpt lat="45.01562" lon="5.47409">
        <ele>1315.1</ele>
        <time>2021-08-31T15:05:55Z</time>
      </trkpt>
      <trkpt lat="45.01561" lon="5.47415">
        <ele>1314.7</ele>
        <time>2021-08-31T15:05:56Z</time>
      </trkpt>
      <trkpt lat="45.01559" lon="5.47421">
        <ele>1314.8</ele>
        <time>2021-08-31T15:05:57Z</time>
      </trkpt>
      <trkpt lat="45.01555" lon="5.47428">
        <ele>1314.8</ele>
        <time>2021-08-31T15:05:59Z</time>
      </trkpt>
      <trkpt lat="45.01553" lon="5.47432">
        <ele>1314.8</ele>
        <time>2021-08-31T15:06:00Z</time>
      </trkpt>
      <trkpt lat="45.0155" lon="5.47435">
        <ele>1314.7</ele>
        <time>2021-08-31T15:06:01Z</time>
      </trkpt>
      <trkpt lat="45.01546" lon="5.4744">
        <ele>1314.6</ele>
        <time>2021-08-31T15:06:02Z</time>
      </trkpt>
      <trkpt lat="45.01541" lon="5.47446">
        <ele>1314.4</ele>
        <time>2021-08-31T15:06:04Z</time>
      </trkpt>
      <trkpt lat="45.01537" lon="5.47453">
        <ele>1314.1</ele>
        <time>2021-08-31T15:06:05Z</time>
      </trkpt>
      <trkpt lat="45.01534" lon="5.47459">
        <ele>1313.8</ele>
        <time>2021-08-31T15:06:06Z</time>
      </trkpt>
      <trkpt lat="45.01528" lon="5.47469">
        <ele>1313.1</ele>
        <time>2021-08-31T15:06:08Z</time>
      </trkpt>
      <trkpt lat="45.0152" lon="5.47477">
        <ele>1312.6</ele>
        <time>2021-08-31T15:06:10Z</time>
      </trkpt>
      <trkpt lat="45.01514" lon="5.47482">
        <ele>1312.3</ele>
        <time>2021-08-31T15:06:11Z</time>
      </trkpt>
      <trkpt lat="45.01504" lon="5.47488">
        <ele>1312</ele>
        <time>2021-08-31T15:06:12Z</time>
      </trkpt>
      <trkpt lat="45.01497" lon="5.47493">
        <ele>1312.1</ele>
        <time>2021-08-31T15:06:13Z</time>
      </trkpt>
      <trkpt lat="45.01491" lon="5.47496">
        <ele>1312.2</ele>
        <time>2021-08-31T15:06:14Z</time>
      </trkpt>
      <trkpt lat="45.01481" lon="5.47502">
        <ele>1312.5</ele>
        <time>2021-08-31T15:06:16Z</time>
      </trkpt>
      <trkpt lat="45.01469" lon="5.47507">
        <ele>1313.2</ele>
        <time>2021-08-31T15:06:18Z</time>
      </trkpt>
      <trkpt lat="45.01464" lon="5.47509">
        <ele>1313.6</ele>
        <time>2021-08-31T15:06:19Z</time>
      </trkpt>
      <trkpt lat="45.01459" lon="5.47512">
        <ele>1314</ele>
        <time>2021-08-31T15:06:20Z</time>
      </trkpt>
      <trkpt lat="45.01454" lon="5.47514">
        <ele>1314.4</ele>
        <time>2021-08-31T15:06:22Z</time>
      </trkpt>
      <trkpt lat="45.01452" lon="5.47516">
        <ele>1314.6</ele>
        <time>2021-08-31T15:06:23Z</time>
      </trkpt>
      <trkpt lat="45.01449" lon="5.47518">
        <ele>1314.9</ele>
        <time>2021-08-31T15:06:25Z</time>
      </trkpt>
      <trkpt lat="45.01445" lon="5.4752">
        <ele>1315.4</ele>
        <time>2021-08-31T15:06:26Z</time>
      </trkpt>
      <trkpt lat="45.01441" lon="5.4752">
        <ele>1315.7</ele>
        <time>2021-08-31T15:06:28Z</time>
      </trkpt>
      <trkpt lat="45.01439" lon="5.47521">
        <ele>1316</ele>
        <time>2021-08-31T15:06:29Z</time>
      </trkpt>
      <trkpt lat="45.01436" lon="5.47523">
        <ele>1316.3</ele>
        <time>2021-08-31T15:06:30Z</time>
      </trkpt>
      <trkpt lat="45.01432" lon="5.47529">
        <ele>1316.8</ele>
        <time>2021-08-31T15:06:32Z</time>
      </trkpt>
      <trkpt lat="45.0143" lon="5.47535">
        <ele>1317.2</ele>
        <time>2021-08-31T15:06:33Z</time>
      </trkpt>
      <trkpt lat="45.01426" lon="5.47541">
        <ele>1317.5</ele>
        <time>2021-08-31T15:06:35Z</time>
      </trkpt>
      <trkpt lat="45.01422" lon="5.47546">
        <ele>1317.7</ele>
        <time>2021-08-31T15:06:36Z</time>
      </trkpt>
      <trkpt lat="45.01416" lon="5.4755">
        <ele>1318</ele>
        <time>2021-08-31T15:06:38Z</time>
      </trkpt>
      <trkpt lat="45.0141" lon="5.47553">
        <ele>1318.3</ele>
        <time>2021-08-31T15:06:39Z</time>
      </trkpt>
      <trkpt lat="45.01407" lon="5.47554">
        <ele>1318.5</ele>
        <time>2021-08-31T15:06:40Z</time>
      </trkpt>
      <trkpt lat="45.01403" lon="5.47556">
        <ele>1318.8</ele>
        <time>2021-08-31T15:06:42Z</time>
      </trkpt>
      <trkpt lat="45.01399" lon="5.4756">
        <ele>1319.1</ele>
        <time>2021-08-31T15:06:44Z</time>
      </trkpt>
      <trkpt lat="45.01396" lon="5.47562">
        <ele>1319.3</ele>
        <time>2021-08-31T15:06:45Z</time>
      </trkpt>
      <trkpt lat="45.01393" lon="5.47565">
        <ele>1319.6</ele>
        <time>2021-08-31T15:06:46Z</time>
      </trkpt>
      <trkpt lat="45.01392" lon="5.47566">
        <ele>1319.7</ele>
        <time>2021-08-31T15:06:47Z</time>
      </trkpt>
      <trkpt lat="45.01389" lon="5.47568">
        <ele>1319.9</ele>
        <time>2021-08-31T15:06:49Z</time>
      </trkpt>
      <trkpt lat="45.01388" lon="5.47569">
        <ele>1320</ele>
        <time>2021-08-31T15:06:50Z</time>
      </trkpt>
      <trkpt lat="45.01387" lon="5.47569">
        <ele>1320.1</ele>
        <time>2021-08-31T15:06:51Z</time>
      </trkpt>
      <trkpt lat="45.01385" lon="5.47569">
        <ele>1320.2</ele>
        <time>2021-08-31T15:06:53Z</time>
      </trkpt>
      <trkpt lat="45.01382" lon="5.47569">
        <ele>1320.5</ele>
        <time>2021-08-31T15:06:54Z</time>
      </trkpt>
      <trkpt lat="45.0138" lon="5.47569">
        <ele>1320.6</ele>
        <time>2021-08-31T15:06:55Z</time>
      </trkpt>
      <trkpt lat="45.01377" lon="5.47566">
        <ele>1320.8</ele>
        <time>2021-08-31T15:06:56Z</time>
      </trkpt>
      <trkpt lat="45.01373" lon="5.47562">
        <ele>1321.2</ele>
        <time>2021-08-31T15:06:58Z</time>
      </trkpt>
      <trkpt lat="45.01371" lon="5.47559">
        <ele>1321.4</ele>
        <time>2021-08-31T15:06:59Z</time>
      </trkpt>
      <trkpt lat="45.01368" lon="5.47557">
        <ele>1321.6</ele>
        <time>2021-08-31T15:07:00Z</time>
      </trkpt>
      <trkpt lat="45.01365" lon="5.47554">
        <ele>1321.9</ele>
        <time>2021-08-31T15:07:02Z</time>
      </trkpt>
      <trkpt lat="45.01363" lon="5.47551">
        <ele>1322.1</ele>
        <time>2021-08-31T15:07:03Z</time>
      </trkpt>
      <trkpt lat="45.01362" lon="5.47546">
        <ele>1322.2</ele>
        <time>2021-08-31T15:07:05Z</time>
      </trkpt>
      <trkpt lat="45.01358" lon="5.47543">
        <ele>1322.3</ele>
        <time>2021-08-31T15:07:06Z</time>
      </trkpt>
      <trkpt lat="45.01356" lon="5.47543">
        <ele>1322.4</ele>
        <time>2021-08-31T15:07:07Z</time>
      </trkpt>
      <trkpt lat="45.01352" lon="5.4754">
        <ele>1322.5</ele>
        <time>2021-08-31T15:07:08Z</time>
      </trkpt>
      <trkpt lat="45.01348" lon="5.47538">
        <ele>1322.5</ele>
        <time>2021-08-31T15:07:10Z</time>
      </trkpt>
      <trkpt lat="45.01343" lon="5.47537">
        <ele>1322.6</ele>
        <time>2021-08-31T15:07:12Z</time>
      </trkpt>
      <trkpt lat="45.01339" lon="5.47537">
        <ele>1322.6</ele>
        <time>2021-08-31T15:07:13Z</time>
      </trkpt>
      <trkpt lat="45.01336" lon="5.47538">
        <ele>1322.7</ele>
        <time>2021-08-31T15:07:14Z</time>
      </trkpt>
      <trkpt lat="45.01332" lon="5.4754">
        <ele>1322.8</ele>
        <time>2021-08-31T15:07:16Z</time>
      </trkpt>
      <trkpt lat="45.01331" lon="5.47541">
        <ele>1322.8</ele>
        <time>2021-08-31T15:07:17Z</time>
      </trkpt>
      <trkpt lat="45.01328" lon="5.47543">
        <ele>1322.9</ele>
        <time>2021-08-31T15:07:18Z</time>
      </trkpt>
      <trkpt lat="45.01325" lon="5.47544">
        <ele>1323.1</ele>
        <time>2021-08-31T15:07:19Z</time>
      </trkpt>
      <trkpt lat="45.0132" lon="5.47547">
        <ele>1323.3</ele>
        <time>2021-08-31T15:07:21Z</time>
      </trkpt>
      <trkpt lat="45.01316" lon="5.4755">
        <ele>1323.6</ele>
        <time>2021-08-31T15:07:22Z</time>
      </trkpt>
      <trkpt lat="45.01312" lon="5.47551">
        <ele>1323.8</ele>
        <time>2021-08-31T15:07:24Z</time>
      </trkpt>
      <trkpt lat="45.01309" lon="5.47552">
        <ele>1323.9</ele>
        <time>2021-08-31T15:07:25Z</time>
      </trkpt>
      <trkpt lat="45.01308" lon="5.47553">
        <ele>1324</ele>
        <time>2021-08-31T15:07:26Z</time>
      </trkpt>
      <trkpt lat="45.01303" lon="5.47556">
        <ele>1324.2</ele>
        <time>2021-08-31T15:07:28Z</time>
      </trkpt>
      <trkpt lat="45.013" lon="5.47557">
        <ele>1324.2</ele>
        <time>2021-08-31T15:07:29Z</time>
      </trkpt>
      <trkpt lat="45.01297" lon="5.47558">
        <ele>1324.3</ele>
        <time>2021-08-31T15:07:30Z</time>
      </trkpt>
      <trkpt lat="45.01296" lon="5.47559">
        <ele>1324.3</ele>
        <time>2021-08-31T15:07:31Z</time>
      </trkpt>
      <trkpt lat="45.01293" lon="5.47561">
        <ele>1324.4</ele>
        <time>2021-08-31T15:07:32Z</time>
      </trkpt>
      <trkpt lat="45.01288" lon="5.47563">
        <ele>1324.4</ele>
        <time>2021-08-31T15:07:34Z</time>
      </trkpt>
      <trkpt lat="45.01282" lon="5.47562">
        <ele>1324.3</ele>
        <time>2021-08-31T15:07:35Z</time>
      </trkpt>
      <trkpt lat="45.01274" lon="5.47561">
        <ele>1324.1</ele>
        <time>2021-08-31T15:07:37Z</time>
      </trkpt>
      <trkpt lat="45.01269" lon="5.4756">
        <ele>1323.9</ele>
        <time>2021-08-31T15:07:38Z</time>
      </trkpt>
      <trkpt lat="45.01264" lon="5.47561">
        <ele>1323.7</ele>
        <time>2021-08-31T15:07:39Z</time>
      </trkpt>
      <trkpt lat="45.0126" lon="5.47564">
        <ele>1323.5</ele>
        <time>2021-08-31T15:07:40Z</time>
      </trkpt>
      <trkpt lat="45.01256" lon="5.47568">
        <ele>1323.4</ele>
        <time>2021-08-31T15:07:41Z</time>
      </trkpt>
      <trkpt lat="45.01251" lon="5.47572">
        <ele>1323.2</ele>
        <time>2021-08-31T15:07:43Z</time>
      </trkpt>
      <trkpt lat="45.01246" lon="5.47577">
        <ele>1323</ele>
        <time>2021-08-31T15:07:44Z</time>
      </trkpt>
      <trkpt lat="45.01239" lon="5.47582">
        <ele>1322.8</ele>
        <time>2021-08-31T15:07:46Z</time>
      </trkpt>
      <trkpt lat="45.01232" lon="5.47586">
        <ele>1322.7</ele>
        <time>2021-08-31T15:07:47Z</time>
      </trkpt>
      <trkpt lat="45.01228" lon="5.4759">
        <ele>1322.5</ele>
        <time>2021-08-31T15:07:49Z</time>
      </trkpt>
      <trkpt lat="45.01214" lon="5.47596">
        <ele>1322.3</ele>
        <time>2021-08-31T15:07:50Z</time>
      </trkpt>
      <trkpt lat="45.01199" lon="5.47601">
        <ele>1322.3</ele>
        <time>2021-08-31T15:07:52Z</time>
      </trkpt>
      <trkpt lat="45.01194" lon="5.47602">
        <ele>1322.4</ele>
        <time>2021-08-31T15:07:53Z</time>
      </trkpt>
      <trkpt lat="45.01189" lon="5.47599">
        <ele>1322.5</ele>
        <time>2021-08-31T15:07:54Z</time>
      </trkpt>
      <trkpt lat="45.01181" lon="5.47599">
        <ele>1322.7</ele>
        <time>2021-08-31T15:07:56Z</time>
      </trkpt>
      <trkpt lat="45.01173" lon="5.47601">
        <ele>1323.1</ele>
        <time>2021-08-31T15:07:58Z</time>
      </trkpt>
      <trkpt lat="45.0117" lon="5.47604">
        <ele>1323.3</ele>
        <time>2021-08-31T15:07:59Z</time>
      </trkpt>
      <trkpt lat="45.01165" lon="5.47607">
        <ele>1323.6</ele>
        <time>2021-08-31T15:08:01Z</time>
      </trkpt>
      <trkpt lat="45.01161" lon="5.4761">
        <ele>1323.9</ele>
        <time>2021-08-31T15:08:02Z</time>
      </trkpt>
      <trkpt lat="45.01156" lon="5.47614">
        <ele>1324.2</ele>
        <time>2021-08-31T15:08:04Z</time>
      </trkpt>
      <trkpt lat="45.01152" lon="5.47616">
        <ele>1324.4</ele>
        <time>2021-08-31T15:08:05Z</time>
      </trkpt>
      <trkpt lat="45.01147" lon="5.47618">
        <ele>1324.6</ele>
        <time>2021-08-31T15:08:06Z</time>
      </trkpt>
      <trkpt lat="45.01143" lon="5.4762">
        <ele>1324.7</ele>
        <time>2021-08-31T15:08:07Z</time>
      </trkpt>
      <trkpt lat="45.01137" lon="5.47621">
        <ele>1324.8</ele>
        <time>2021-08-31T15:08:09Z</time>
      </trkpt>
      <trkpt lat="45.01135" lon="5.47622">
        <ele>1324.9</ele>
        <time>2021-08-31T15:08:10Z</time>
      </trkpt>
      <trkpt lat="45.01132" lon="5.47623">
        <ele>1324.9</ele>
        <time>2021-08-31T15:08:11Z</time>
      </trkpt>
      <trkpt lat="45.01127" lon="5.47625">
        <ele>1324.9</ele>
        <time>2021-08-31T15:08:12Z</time>
      </trkpt>
      <trkpt lat="45.01124" lon="5.47626">
        <ele>1324.8</ele>
        <time>2021-08-31T15:08:13Z</time>
      </trkpt>
      <trkpt lat="45.0112" lon="5.47628">
        <ele>1324.7</ele>
        <time>2021-08-31T15:08:14Z</time>
      </trkpt>
      <trkpt lat="45.01114" lon="5.47631">
        <ele>1324.5</ele>
        <time>2021-08-31T15:08:16Z</time>
      </trkpt>
      <trkpt lat="45.01102" lon="5.47635">
        <ele>1323.9</ele>
        <time>2021-08-31T15:08:18Z</time>
      </trkpt>
      <trkpt lat="45.01096" lon="5.47637">
        <ele>1323.6</ele>
        <time>2021-08-31T15:08:19Z</time>
      </trkpt>
      <trkpt lat="45.0109" lon="5.47637">
        <ele>1323.2</ele>
        <time>2021-08-31T15:08:20Z</time>
      </trkpt>
      <trkpt lat="45.01077" lon="5.47636">
        <ele>1322</ele>
        <time>2021-08-31T15:08:22Z</time>
      </trkpt>
      <trkpt lat="45.0107" lon="5.47635">
        <ele>1321.4</ele>
        <time>2021-08-31T15:08:23Z</time>
      </trkpt>
      <trkpt lat="45.01064" lon="5.47636">
        <ele>1320.8</ele>
        <time>2021-08-31T15:08:24Z</time>
      </trkpt>
      <trkpt lat="45.01051" lon="5.47637">
        <ele>1319.7</ele>
        <time>2021-08-31T15:08:26Z</time>
      </trkpt>
      <trkpt lat="45.01036" lon="5.47639">
        <ele>1319.1</ele>
        <time>2021-08-31T15:08:28Z</time>
      </trkpt>
      <trkpt lat="45.01029" lon="5.47639">
        <ele>1318.9</ele>
        <time>2021-08-31T15:08:29Z</time>
      </trkpt>
      <trkpt lat="45.01022" lon="5.47638">
        <ele>1318.8</ele>
        <time>2021-08-31T15:08:30Z</time>
      </trkpt>
      <trkpt lat="45.01014" lon="5.47634">
        <ele>1318.6</ele>
        <time>2021-08-31T15:08:32Z</time>
      </trkpt>
      <trkpt lat="45.01014" lon="5.47633">
        <ele>1318.6</ele>
        <time>2021-08-31T15:08:34Z</time>
      </trkpt>
      <trkpt lat="45.01014" lon="5.47634">
        <ele>1318.6</ele>
        <time>2021-08-31T15:08:36Z</time>
      </trkpt>
      <trkpt lat="45.01011" lon="5.47635">
        <ele>1318.6</ele>
        <time>2021-08-31T15:08:38Z</time>
      </trkpt>
      <trkpt lat="45.01009" lon="5.47636">
        <ele>1318.7</ele>
        <time>2021-08-31T15:08:40Z</time>
      </trkpt>
      <trkpt lat="45.01008" lon="5.47637">
        <ele>1318.7</ele>
        <time>2021-08-31T15:08:42Z</time>
      </trkpt>
      <trkpt lat="45.01003" lon="5.47641">
        <ele>1318.7</ele>
        <time>2021-08-31T15:08:43Z</time>
      </trkpt>
      <trkpt lat="45.00997" lon="5.47645">
        <ele>1318.8</ele>
        <time>2021-08-31T15:08:44Z</time>
      </trkpt>
      <trkpt lat="45.00993" lon="5.47648">
        <ele>1318.9</ele>
        <time>2021-08-31T15:08:45Z</time>
      </trkpt>
      <trkpt lat="45.00987" lon="5.47652">
        <ele>1318.9</ele>
        <time>2021-08-31T15:08:47Z</time>
      </trkpt>
      <trkpt lat="45.00982" lon="5.47654">
        <ele>1318.9</ele>
        <time>2021-08-31T15:08:48Z</time>
      </trkpt>
      <trkpt lat="45.00978" lon="5.47657">
        <ele>1319</ele>
        <time>2021-08-31T15:08:49Z</time>
      </trkpt>
      <trkpt lat="45.00973" lon="5.4766">
        <ele>1319</ele>
        <time>2021-08-31T15:08:50Z</time>
      </trkpt>
      <trkpt lat="45.00966" lon="5.47663">
        <ele>1319</ele>
        <time>2021-08-31T15:08:52Z</time>
      </trkpt>
      <trkpt lat="45.00962" lon="5.47667">
        <ele>1318.9</ele>
        <time>2021-08-31T15:08:54Z</time>
      </trkpt>
      <trkpt lat="45.00961" lon="5.47669">
        <ele>1318.9</ele>
        <time>2021-08-31T15:08:55Z</time>
      </trkpt>
      <trkpt lat="45.00961" lon="5.4767">
        <ele>1318.9</ele>
        <time>2021-08-31T15:08:56Z</time>
      </trkpt>
      <trkpt lat="45.0096" lon="5.47671">
        <ele>1318.9</ele>
        <time>2021-08-31T15:08:57Z</time>
      </trkpt>
      <trkpt lat="45.00956" lon="5.47673">
        <ele>1318.9</ele>
        <time>2021-08-31T15:08:59Z</time>
      </trkpt>
      <trkpt lat="45.00953" lon="5.47675">
        <ele>1318.9</ele>
        <time>2021-08-31T15:09:00Z</time>
      </trkpt>
      <trkpt lat="45.0095" lon="5.47676">
        <ele>1318.8</ele>
        <time>2021-08-31T15:09:01Z</time>
      </trkpt>
      <trkpt lat="45.00948" lon="5.47677">
        <ele>1318.8</ele>
        <time>2021-08-31T15:09:02Z</time>
      </trkpt>
      <trkpt lat="45.00906" lon="5.47696">
        <ele>1319.2</ele>
        <time>2021-08-31T15:09:14Z</time>
      </trkpt>
      <trkpt lat="45.00901" lon="5.47696">
        <ele>1319.4</ele>
        <time>2021-08-31T15:09:15Z</time>
      </trkpt>
      <trkpt lat="45.00896" lon="5.47701">
        <ele>1319.6</ele>
        <time>2021-08-31T15:09:16Z</time>
      </trkpt>
      <trkpt lat="45.00891" lon="5.47708">
        <ele>1319.8</ele>
        <time>2021-08-31T15:09:18Z</time>
      </trkpt>
      <trkpt lat="45.00886" lon="5.47714">
        <ele>1320</ele>
        <time>2021-08-31T15:09:19Z</time>
      </trkpt>
      <trkpt lat="45.0088" lon="5.47721">
        <ele>1320.1</ele>
        <time>2021-08-31T15:09:20Z</time>
      </trkpt>
      <trkpt lat="45.00873" lon="5.4773">
        <ele>1320.2</ele>
        <time>2021-08-31T15:09:22Z</time>
      </trkpt>
      <trkpt lat="45.00867" lon="5.47738">
        <ele>1320.2</ele>
        <time>2021-08-31T15:09:23Z</time>
      </trkpt>
      <trkpt lat="45.00861" lon="5.47743">
        <ele>1320.3</ele>
        <time>2021-08-31T15:09:24Z</time>
      </trkpt>
      <trkpt lat="45.00857" lon="5.47746">
        <ele>1320.3</ele>
        <time>2021-08-31T15:09:25Z</time>
      </trkpt>
      <trkpt lat="45.00852" lon="5.47751">
        <ele>1320.3</ele>
        <time>2021-08-31T15:09:27Z</time>
      </trkpt>
      <trkpt lat="45.00849" lon="5.47754">
        <ele>1320.3</ele>
        <time>2021-08-31T15:09:28Z</time>
      </trkpt>
      <trkpt lat="45.00844" lon="5.47762">
        <ele>1320.3</ele>
        <time>2021-08-31T15:09:30Z</time>
      </trkpt>
      <trkpt lat="45.00839" lon="5.47771">
        <ele>1320.2</ele>
        <time>2021-08-31T15:09:32Z</time>
      </trkpt>
      <trkpt lat="45.00836" lon="5.47775">
        <ele>1320.2</ele>
        <time>2021-08-31T15:09:34Z</time>
      </trkpt>
      <trkpt lat="45.00831" lon="5.47777">
        <ele>1320.2</ele>
        <time>2021-08-31T15:09:35Z</time>
      </trkpt>
      <trkpt lat="45.00828" lon="5.4778">
        <ele>1320.2</ele>
        <time>2021-08-31T15:09:36Z</time>
      </trkpt>
      <trkpt lat="45.00825" lon="5.47783">
        <ele>1320.2</ele>
        <time>2021-08-31T15:09:37Z</time>
      </trkpt>
      <trkpt lat="45.00821" lon="5.47788">
        <ele>1320.2</ele>
        <time>2021-08-31T15:09:38Z</time>
      </trkpt>
      <trkpt lat="45.00816" lon="5.47794">
        <ele>1320.2</ele>
        <time>2021-08-31T15:09:40Z</time>
      </trkpt>
      <trkpt lat="45.00813" lon="5.47798">
        <ele>1320.2</ele>
        <time>2021-08-31T15:09:41Z</time>
      </trkpt>
      <trkpt lat="45.0081" lon="5.47802">
        <ele>1320.2</ele>
        <time>2021-08-31T15:09:42Z</time>
      </trkpt>
      <trkpt lat="45.00808" lon="5.47806">
        <ele>1320.3</ele>
        <time>2021-08-31T15:09:44Z</time>
      </trkpt>
      <trkpt lat="45.00805" lon="5.47813">
        <ele>1320.3</ele>
        <time>2021-08-31T15:09:45Z</time>
      </trkpt>
      <trkpt lat="45.00802" lon="5.4782">
        <ele>1320.3</ele>
        <time>2021-08-31T15:09:47Z</time>
      </trkpt>
      <trkpt lat="45.00799" lon="5.47828">
        <ele>1320.3</ele>
        <time>2021-08-31T15:09:48Z</time>
      </trkpt>
      <trkpt lat="45.00797" lon="5.47837">
        <ele>1320.3</ele>
        <time>2021-08-31T15:09:50Z</time>
      </trkpt>
      <trkpt lat="45.00793" lon="5.47844">
        <ele>1320.3</ele>
        <time>2021-08-31T15:09:51Z</time>
      </trkpt>
      <trkpt lat="45.00789" lon="5.47851">
        <ele>1320.3</ele>
        <time>2021-08-31T15:09:52Z</time>
      </trkpt>
      <trkpt lat="45.00787" lon="5.47856">
        <ele>1320.3</ele>
        <time>2021-08-31T15:09:54Z</time>
      </trkpt>
      <trkpt lat="45.00784" lon="5.47861">
        <ele>1320.4</ele>
        <time>2021-08-31T15:09:55Z</time>
      </trkpt>
      <trkpt lat="45.0078" lon="5.47863">
        <ele>1320.4</ele>
        <time>2021-08-31T15:09:57Z</time>
      </trkpt>
      <trkpt lat="45.00777" lon="5.47863">
        <ele>1320.4</ele>
        <time>2021-08-31T15:09:58Z</time>
      </trkpt>
      <trkpt lat="45.00772" lon="5.47864">
        <ele>1320.4</ele>
        <time>2021-08-31T15:10:00Z</time>
      </trkpt>
      <trkpt lat="45.00767" lon="5.47865">
        <ele>1320.4</ele>
        <time>2021-08-31T15:10:01Z</time>
      </trkpt>
      <trkpt lat="45.00761" lon="5.47866">
        <ele>1320.3</ele>
        <time>2021-08-31T15:10:03Z</time>
      </trkpt>
      <trkpt lat="45.00755" lon="5.47867">
        <ele>1320.3</ele>
        <time>2021-08-31T15:10:04Z</time>
      </trkpt>
      <trkpt lat="45.00751" lon="5.47869">
        <ele>1320.3</ele>
        <time>2021-08-31T15:10:05Z</time>
      </trkpt>
      <trkpt lat="45.00745" lon="5.47875">
        <ele>1320.3</ele>
        <time>2021-08-31T15:10:07Z</time>
      </trkpt>
      <trkpt lat="45.0074" lon="5.4788">
        <ele>1320.3</ele>
        <time>2021-08-31T15:10:08Z</time>
      </trkpt>
      <trkpt lat="45.00735" lon="5.47884">
        <ele>1320.4</ele>
        <time>2021-08-31T15:10:09Z</time>
      </trkpt>
      <trkpt lat="45.00729" lon="5.47889">
        <ele>1320.4</ele>
        <time>2021-08-31T15:10:11Z</time>
      </trkpt>
      <trkpt lat="45.00724" lon="5.47892">
        <ele>1320.5</ele>
        <time>2021-08-31T15:10:12Z</time>
      </trkpt>
      <trkpt lat="45.00719" lon="5.47898">
        <ele>1320.6</ele>
        <time>2021-08-31T15:10:14Z</time>
      </trkpt>
      <trkpt lat="45.00711" lon="5.47906">
        <ele>1320.8</ele>
        <time>2021-08-31T15:10:15Z</time>
      </trkpt>
      <trkpt lat="45.00707" lon="5.47908">
        <ele>1320.8</ele>
        <time>2021-08-31T15:10:16Z</time>
      </trkpt>
      <trkpt lat="45.00703" lon="5.47908">
        <ele>1320.9</ele>
        <time>2021-08-31T15:10:17Z</time>
      </trkpt>
      <trkpt lat="45.00698" lon="5.47908">
        <ele>1321</ele>
        <time>2021-08-31T15:10:18Z</time>
      </trkpt>
      <trkpt lat="45.00693" lon="5.47909">
        <ele>1321</ele>
        <time>2021-08-31T15:10:20Z</time>
      </trkpt>
      <trkpt lat="45.00689" lon="5.4791">
        <ele>1321.1</ele>
        <time>2021-08-31T15:10:21Z</time>
      </trkpt>
      <trkpt lat="45.00682" lon="5.47908">
        <ele>1321.2</ele>
        <time>2021-08-31T15:10:23Z</time>
      </trkpt>
      <trkpt lat="45.00678" lon="5.47906">
        <ele>1321.2</ele>
        <time>2021-08-31T15:10:25Z</time>
      </trkpt>
      <trkpt lat="45.00674" lon="5.47902">
        <ele>1321.3</ele>
        <time>2021-08-31T15:10:26Z</time>
      </trkpt>
      <trkpt lat="45.00671" lon="5.47898">
        <ele>1321.4</ele>
        <time>2021-08-31T15:10:27Z</time>
      </trkpt>
      <trkpt lat="45.00669" lon="5.47896">
        <ele>1321.4</ele>
        <time>2021-08-31T15:10:28Z</time>
      </trkpt>
      <trkpt lat="45.00668" lon="5.47894">
        <ele>1321.5</ele>
        <time>2021-08-31T15:10:30Z</time>
      </trkpt>
      <trkpt lat="45.00664" lon="5.47891">
        <ele>1321.6</ele>
        <time>2021-08-31T15:10:32Z</time>
      </trkpt>
      <trkpt lat="45.00661" lon="5.47889">
        <ele>1321.6</ele>
        <time>2021-08-31T15:10:33Z</time>
      </trkpt>
      <trkpt lat="45.00307" lon="5.47905">
        <ele>1321.7</ele>
        <time>2021-08-31T15:11:53Z</time>
      </trkpt>
      <trkpt lat="45.00287" lon="5.47924">
        <ele>1320.9</ele>
        <time>2021-08-31T15:11:55Z</time>
      </trkpt>
      <trkpt lat="45.00277" lon="5.47932">
        <ele>1320.6</ele>
        <time>2021-08-31T15:11:56Z</time>
      </trkpt>
      <trkpt lat="45.0026" lon="5.47947">
        <ele>1320.1</ele>
        <time>2021-08-31T15:11:58Z</time>
      </trkpt>
      <trkpt lat="45.00252" lon="5.47954">
        <ele>1319.9</ele>
        <time>2021-08-31T15:11:59Z</time>
      </trkpt>
      <trkpt lat="45.00237" lon="5.47963">
        <ele>1319.3</ele>
        <time>2021-08-31T15:12:01Z</time>
      </trkpt>
      <trkpt lat="45.00222" lon="5.47969">
        <ele>1318.7</ele>
        <time>2021-08-31T15:12:03Z</time>
      </trkpt>
      <trkpt lat="45.00216" lon="5.47973">
        <ele>1318.5</ele>
        <time>2021-08-31T15:12:04Z</time>
      </trkpt>
      <trkpt lat="45.0021" lon="5.47977">
        <ele>1318.3</ele>
        <time>2021-08-31T15:12:05Z</time>
      </trkpt>
      <trkpt lat="45.00204" lon="5.4798">
        <ele>1318</ele>
        <time>2021-08-31T15:12:06Z</time>
      </trkpt>
      <trkpt lat="45.00199" lon="5.47984">
        <ele>1317.8</ele>
        <time>2021-08-31T15:12:07Z</time>
      </trkpt>
      <trkpt lat="45.00193" lon="5.47988">
        <ele>1317.6</ele>
        <time>2021-08-31T15:12:08Z</time>
      </trkpt>
      <trkpt lat="45.00186" lon="5.47993">
        <ele>1317.3</ele>
        <time>2021-08-31T15:12:10Z</time>
      </trkpt>
      <trkpt lat="45.00177" lon="5.48">
        <ele>1317</ele>
        <time>2021-08-31T15:12:12Z</time>
      </trkpt>
      <trkpt lat="45.00171" lon="5.48005">
        <ele>1316.8</ele>
        <time>2021-08-31T15:12:13Z</time>
      </trkpt>
      <trkpt lat="45.00167" lon="5.48008">
        <ele>1316.6</ele>
        <time>2021-08-31T15:12:14Z</time>
      </trkpt>
      <trkpt lat="45.00161" lon="5.48009">
        <ele>1316.4</ele>
        <time>2021-08-31T15:12:15Z</time>
      </trkpt>
      <trkpt lat="45.00159" lon="5.48009">
        <ele>1316.4</ele>
        <time>2021-08-31T15:12:17Z</time>
      </trkpt>
      <trkpt lat="45.00151" lon="5.48012">
        <ele>1316.1</ele>
        <time>2021-08-31T15:12:19Z</time>
      </trkpt>
      <trkpt lat="45.00094" lon="5.48025">
        <ele>1315</ele>
        <time>2021-08-31T15:12:31Z</time>
      </trkpt>
      <trkpt lat="45.00087" lon="5.48026">
        <ele>1315</ele>
        <time>2021-08-31T15:12:32Z</time>
      </trkpt>
      <trkpt lat="45.00081" lon="5.48024">
        <ele>1315</ele>
        <time>2021-08-31T15:12:33Z</time>
      </trkpt>
      <trkpt lat="45.00076" lon="5.48022">
        <ele>1315</ele>
        <time>2021-08-31T15:12:34Z</time>
      </trkpt>
      <trkpt lat="45.00071" lon="5.48019">
        <ele>1315</ele>
        <time>2021-08-31T15:12:35Z</time>
      </trkpt>
      <trkpt lat="45.00054" lon="5.48008">
        <ele>1314.8</ele>
        <time>2021-08-31T15:12:37Z</time>
      </trkpt>
      <trkpt lat="45.00048" lon="5.48003">
        <ele>1314.8</ele>
        <time>2021-08-31T15:12:38Z</time>
      </trkpt>
      <trkpt lat="45.00039" lon="5.47995">
        <ele>1314.7</ele>
        <time>2021-08-31T15:12:40Z</time>
      </trkpt>
      <trkpt lat="45.00035" lon="5.47993">
        <ele>1314.7</ele>
        <time>2021-08-31T15:12:41Z</time>
      </trkpt>
      <trkpt lat="45.00026" lon="5.47988">
        <ele>1314.6</ele>
        <time>2021-08-31T15:12:43Z</time>
      </trkpt>
      <trkpt lat="45.00022" lon="5.47985">
        <ele>1314.6</ele>
        <time>2021-08-31T15:12:44Z</time>
      </trkpt>
      <trkpt lat="45.00018" lon="5.47983">
        <ele>1314.5</ele>
        <time>2021-08-31T15:12:45Z</time>
      </trkpt>
      <trkpt lat="45.00012" lon="5.47976">
        <ele>1314.4</ele>
        <time>2021-08-31T15:12:47Z</time>
      </trkpt>
      <trkpt lat="45.00005" lon="5.47968">
        <ele>1314.3</ele>
        <time>2021-08-31T15:12:49Z</time>
      </trkpt>
      <trkpt lat="45.00001" lon="5.47964">
        <ele>1314.2</ele>
        <time>2021-08-31T15:12:50Z</time>
      </trkpt>
      <trkpt lat="44.99995" lon="5.47954">
        <ele>1314</ele>
        <time>2021-08-31T15:12:52Z</time>
      </trkpt>
      <trkpt lat="44.99991" lon="5.47948">
        <ele>1314</ele>
        <time>2021-08-31T15:12:53Z</time>
      </trkpt>
      <trkpt lat="44.99985" lon="5.47935">
        <ele>1313.9</ele>
        <time>2021-08-31T15:12:55Z</time>
      </trkpt>
      <trkpt lat="44.99983" lon="5.47929">
        <ele>1313.9</ele>
        <time>2021-08-31T15:12:56Z</time>
      </trkpt>
      <trkpt lat="44.99978" lon="5.47916">
        <ele>1313.9</ele>
        <time>2021-08-31T15:12:58Z</time>
      </trkpt>
      <trkpt lat="44.99977" lon="5.47912">
        <ele>1313.9</ele>
        <time>2021-08-31T15:12:59Z</time>
      </trkpt>
      <trkpt lat="44.99975" lon="5.47906">
        <ele>1313.9</ele>
        <time>2021-08-31T15:13:00Z</time>
      </trkpt>
      <trkpt lat="44.99973" lon="5.479">
        <ele>1313.9</ele>
        <time>2021-08-31T15:13:01Z</time>
      </trkpt>
      <trkpt lat="44.99972" lon="5.47899">
        <ele>1313.9</ele>
        <time>2021-08-31T15:13:02Z</time>
      </trkpt>
      <trkpt lat="44.99969" lon="5.47892">
        <ele>1313.8</ele>
        <time>2021-08-31T15:13:04Z</time>
      </trkpt>
      <trkpt lat="44.99968" lon="5.47889">
        <ele>1313.8</ele>
        <time>2021-08-31T15:13:05Z</time>
      </trkpt>
      <trkpt lat="44.99965" lon="5.47886">
        <ele>1313.8</ele>
        <time>2021-08-31T15:13:06Z</time>
      </trkpt>
      <trkpt lat="44.9996" lon="5.47879">
        <ele>1313.8</ele>
        <time>2021-08-31T15:13:08Z</time>
      </trkpt>
      <trkpt lat="44.9995" lon="5.47871">
        <ele>1313.8</ele>
        <time>2021-08-31T15:13:10Z</time>
      </trkpt>
      <trkpt lat="44.99949" lon="5.47866">
        <ele>1313.8</ele>
        <time>2021-08-31T15:13:12Z</time>
      </trkpt>
      <trkpt lat="44.99945" lon="5.47863">
        <ele>1313.9</ele>
        <time>2021-08-31T15:13:13Z</time>
      </trkpt>
      <trkpt lat="44.99941" lon="5.4786">
        <ele>1313.9</ele>
        <time>2021-08-31T15:13:14Z</time>
      </trkpt>
      <trkpt lat="44.99937" lon="5.47856">
        <ele>1314</ele>
        <time>2021-08-31T15:13:15Z</time>
      </trkpt>
      <trkpt lat="44.9993" lon="5.47852">
        <ele>1314.2</ele>
        <time>2021-08-31T15:13:17Z</time>
      </trkpt>
      <trkpt lat="44.99921" lon="5.47849">
        <ele>1314.4</ele>
        <time>2021-08-31T15:13:19Z</time>
      </trkpt>
      <trkpt lat="44.99916" lon="5.47846">
        <ele>1314.5</ele>
        <time>2021-08-31T15:13:20Z</time>
      </trkpt>
      <trkpt lat="44.9991" lon="5.47843">
        <ele>1314.7</ele>
        <time>2021-08-31T15:13:22Z</time>
      </trkpt>
      <trkpt lat="44.99903" lon="5.4784">
        <ele>1314.8</ele>
        <time>2021-08-31T15:13:23Z</time>
      </trkpt>
      <trkpt lat="44.999" lon="5.47839">
        <ele>1314.8</ele>
        <time>2021-08-31T15:13:24Z</time>
      </trkpt>
      <trkpt lat="44.99896" lon="5.47836">
        <ele>1314.9</ele>
        <time>2021-08-31T15:13:25Z</time>
      </trkpt>
      <trkpt lat="44.99891" lon="5.4783">
        <ele>1315</ele>
        <time>2021-08-31T15:13:27Z</time>
      </trkpt>
      <trkpt lat="44.99888" lon="5.47824">
        <ele>1315.1</ele>
        <time>2021-08-31T15:13:28Z</time>
      </trkpt>
      <trkpt lat="44.99885" lon="5.4782">
        <ele>1315.2</ele>
        <time>2021-08-31T15:13:29Z</time>
      </trkpt>
      <trkpt lat="44.99883" lon="5.47816">
        <ele>1315.3</ele>
        <time>2021-08-31T15:13:30Z</time>
      </trkpt>
      <trkpt lat="44.99881" lon="5.47809">
        <ele>1315.4</ele>
        <time>2021-08-31T15:13:31Z</time>
      </trkpt>
      <trkpt lat="44.99878" lon="5.47801">
        <ele>1315.7</ele>
        <time>2021-08-31T15:13:33Z</time>
      </trkpt>
      <trkpt lat="44.99875" lon="5.47795">
        <ele>1315.9</ele>
        <time>2021-08-31T15:13:34Z</time>
      </trkpt>
      <trkpt lat="44.99872" lon="5.47791">
        <ele>1316.1</ele>
        <time>2021-08-31T15:13:35Z</time>
      </trkpt>
      <trkpt lat="44.9987" lon="5.47788">
        <ele>1316.2</ele>
        <time>2021-08-31T15:13:36Z</time>
      </trkpt>
      <trkpt lat="44.99865" lon="5.47785">
        <ele>1316.4</ele>
        <time>2021-08-31T15:13:38Z</time>
      </trkpt>
      <trkpt lat="44.99863" lon="5.47783">
        <ele>1316.5</ele>
        <time>2021-08-31T15:13:39Z</time>
      </trkpt>
      <trkpt lat="44.99858" lon="5.47779">
        <ele>1316.7</ele>
        <time>2021-08-31T15:13:41Z</time>
      </trkpt>
      <trkpt lat="44.99853" lon="5.47778">
        <ele>1316.9</ele>
        <time>2021-08-31T15:13:43Z</time>
      </trkpt>
      <trkpt lat="44.99849" lon="5.47776">
        <ele>1317.1</ele>
        <time>2021-08-31T15:13:44Z</time>
      </trkpt>
      <trkpt lat="44.99844" lon="5.47775">
        <ele>1317.3</ele>
        <time>2021-08-31T15:13:45Z</time>
      </trkpt>
      <trkpt lat="44.9984" lon="5.47774">
        <ele>1317.5</ele>
        <time>2021-08-31T15:13:47Z</time>
      </trkpt>
      <trkpt lat="44.99837" lon="5.47776">
        <ele>1317.7</ele>
        <time>2021-08-31T15:13:48Z</time>
      </trkpt>
      <trkpt lat="44.99835" lon="5.47777">
        <ele>1317.8</ele>
        <time>2021-08-31T15:13:49Z</time>
      </trkpt>
      <trkpt lat="44.99833" lon="5.47778">
        <ele>1317.9</ele>
        <time>2021-08-31T15:13:50Z</time>
      </trkpt>
      <trkpt lat="44.9983" lon="5.4778">
        <ele>1318</ele>
        <time>2021-08-31T15:13:52Z</time>
      </trkpt>
      <trkpt lat="44.99826" lon="5.47779">
        <ele>1318.2</ele>
        <time>2021-08-31T15:13:53Z</time>
      </trkpt>
      <trkpt lat="44.99825" lon="5.47779">
        <ele>1318.3</ele>
        <time>2021-08-31T15:13:54Z</time>
      </trkpt>
      <trkpt lat="44.99822" lon="5.47778">
        <ele>1318.5</ele>
        <time>2021-08-31T15:13:56Z</time>
      </trkpt>
      <trkpt lat="44.99821" lon="5.47777">
        <ele>1318.5</ele>
        <time>2021-08-31T15:13:57Z</time>
      </trkpt>
      <trkpt lat="44.99821" lon="5.47777">
        <ele>1318.6</ele>
        <time>2021-08-31T15:13:58Z</time>
      </trkpt>
      <trkpt lat="44.99817" lon="5.47774">
        <ele>1318.8</ele>
        <time>2021-08-31T15:14:00Z</time>
      </trkpt>
      <trkpt lat="44.99815" lon="5.47774">
        <ele>1318.9</ele>
        <time>2021-08-31T15:14:02Z</time>
      </trkpt>
      <trkpt lat="44.99812" lon="5.47775">
        <ele>1319.1</ele>
        <time>2021-08-31T15:14:04Z</time>
      </trkpt>
      <trkpt lat="44.99809" lon="5.47775">
        <ele>1319.3</ele>
        <time>2021-08-31T15:14:05Z</time>
      </trkpt>
      <trkpt lat="44.99808" lon="5.47775">
        <ele>1319.4</ele>
        <time>2021-08-31T15:14:06Z</time>
      </trkpt>
      <trkpt lat="44.99806" lon="5.47775">
        <ele>1319.5</ele>
        <time>2021-08-31T15:14:07Z</time>
      </trkpt>
      <trkpt lat="44.99804" lon="5.47775">
        <ele>1319.6</ele>
        <time>2021-08-31T15:14:08Z</time>
      </trkpt>
      <trkpt lat="44.998" lon="5.47774">
        <ele>1319.9</ele>
        <time>2021-08-31T15:14:10Z</time>
      </trkpt>
      <trkpt lat="44.99798" lon="5.47775">
        <ele>1320.2</ele>
        <time>2021-08-31T15:14:11Z</time>
      </trkpt>
      <trkpt lat="44.99795" lon="5.47774">
        <ele>1320.4</ele>
        <time>2021-08-31T15:14:13Z</time>
      </trkpt>
      <trkpt lat="44.99793" lon="5.47771">
        <ele>1320.8</ele>
        <time>2021-08-31T15:14:14Z</time>
      </trkpt>
      <trkpt lat="44.99792" lon="5.4777">
        <ele>1320.7</ele>
        <time>2021-08-31T15:14:15Z</time>
      </trkpt>
      <trkpt lat="44.99791" lon="5.4777">
        <ele>1321</ele>
        <time>2021-08-31T15:14:17Z</time>
      </trkpt>
      <trkpt lat="44.9979" lon="5.4777">
        <ele>1320.9</ele>
        <time>2021-08-31T15:14:18Z</time>
      </trkpt>
      <trkpt lat="44.9979" lon="5.4777">
        <ele>1320.9</ele>
        <time>2021-08-31T15:14:19Z</time>
      </trkpt>
      <trkpt lat="44.9979" lon="5.47771">
        <ele>1320.8</ele>
        <time>2021-08-31T15:14:21Z</time>
      </trkpt>
      <trkpt lat="44.99789" lon="5.47771">
        <ele>1320.7</ele>
        <time>2021-08-31T15:14:22Z</time>
      </trkpt>
      <trkpt lat="44.99788" lon="5.4777">
        <ele>1321</ele>
        <time>2021-08-31T15:14:24Z</time>
      </trkpt>
      <trkpt lat="44.99784" lon="5.47754">
        <ele>1320.9</ele>
        <time>2021-08-31T15:14:31Z</time>
      </trkpt>
      <trkpt lat="44.99782" lon="5.4775">
        <ele>1320.8</ele>
        <time>2021-08-31T15:14:33Z</time>
      </trkpt>
      <trkpt lat="44.99782" lon="5.47749">
        <ele>1320.7</ele>
        <time>2021-08-31T15:14:34Z</time>
      </trkpt>
      <trkpt lat="44.99779" lon="5.47745">
        <ele>1320.6</ele>
        <time>2021-08-31T15:14:36Z</time>
      </trkpt>
      <trkpt lat="44.99776" lon="5.47742">
        <ele>1320.6</ele>
        <time>2021-08-31T15:14:37Z</time>
      </trkpt>
      <trkpt lat="44.99775" lon="5.47741">
        <ele>1320.5</ele>
        <time>2021-08-31T15:14:38Z</time>
      </trkpt>
      <trkpt lat="44.9977" lon="5.47739">
        <ele>1320.7</ele>
        <time>2021-08-31T15:14:40Z</time>
      </trkpt>
      <trkpt lat="44.99765" lon="5.4774">
        <ele>1320.8</ele>
        <time>2021-08-31T15:14:41Z</time>
      </trkpt>
      <trkpt lat="44.99763" lon="5.4774">
        <ele>1320.9</ele>
        <time>2021-08-31T15:14:42Z</time>
      </trkpt>
      <trkpt lat="44.9976" lon="5.47741">
        <ele>1321.1</ele>
        <time>2021-08-31T15:14:44Z</time>
      </trkpt>
      <trkpt lat="44.99757" lon="5.47742">
        <ele>1321.5</ele>
        <time>2021-08-31T15:14:45Z</time>
      </trkpt>
      <trkpt lat="44.99757" lon="5.47744">
        <ele>1321.5</ele>
        <time>2021-08-31T15:14:47Z</time>
      </trkpt>
      <trkpt lat="44.99757" lon="5.47744">
        <ele>1321.4</ele>
        <time>2021-08-31T15:14:48Z</time>
      </trkpt>
      <trkpt lat="44.99756" lon="5.47744">
        <ele>1321.3</ele>
        <time>2021-08-31T15:14:49Z</time>
      </trkpt>
      <trkpt lat="44.99753" lon="5.47745">
        <ele>1321.5</ele>
        <time>2021-08-31T15:14:51Z</time>
      </trkpt>
      <trkpt lat="44.99749" lon="5.47746">
        <ele>1321.9</ele>
        <time>2021-08-31T15:14:52Z</time>
      </trkpt>
      <trkpt lat="44.99747" lon="5.47748">
        <ele>1322.1</ele>
        <time>2021-08-31T15:14:53Z</time>
      </trkpt>
      <trkpt lat="44.99745" lon="5.4775">
        <ele>1322.5</ele>
        <time>2021-08-31T15:14:54Z</time>
      </trkpt>
      <trkpt lat="44.99742" lon="5.47754">
        <ele>1322.7</ele>
        <time>2021-08-31T15:14:56Z</time>
      </trkpt>
      <trkpt lat="44.9974" lon="5.47759">
        <ele>1323.4</ele>
        <time>2021-08-31T15:14:58Z</time>
      </trkpt>
      <trkpt lat="44.99737" lon="5.47765">
        <ele>1323.6</ele>
        <time>2021-08-31T15:15:00Z</time>
      </trkpt>
      <trkpt lat="44.99734" lon="5.47768">
        <ele>1324.1</ele>
        <time>2021-08-31T15:15:01Z</time>
      </trkpt>
      <trkpt lat="44.9973" lon="5.47771">
        <ele>1324.7</ele>
        <time>2021-08-31T15:15:02Z</time>
      </trkpt>
      <trkpt lat="44.99725" lon="5.47774">
        <ele>1325.5</ele>
        <time>2021-08-31T15:15:03Z</time>
      </trkpt>
      <trkpt lat="44.99719" lon="5.47776">
        <ele>1326.5</ele>
        <time>2021-08-31T15:15:05Z</time>
      </trkpt>
      <trkpt lat="44.99716" lon="5.47778">
        <ele>1326.7</ele>
        <time>2021-08-31T15:15:06Z</time>
      </trkpt>
      <trkpt lat="44.99713" lon="5.47779">
        <ele>1326.9</ele>
        <time>2021-08-31T15:15:07Z</time>
      </trkpt>
      <trkpt lat="44.99708" lon="5.47781">
        <ele>1327.6</ele>
        <time>2021-08-31T15:15:09Z</time>
      </trkpt>
      <trkpt lat="44.99704" lon="5.47782">
        <ele>1327.7</ele>
        <time>2021-08-31T15:15:10Z</time>
      </trkpt>
      <trkpt lat="44.99701" lon="5.47783">
        <ele>1327.8</ele>
        <time>2021-08-31T15:15:11Z</time>
      </trkpt>
      <trkpt lat="44.99698" lon="5.47784">
        <ele>1327.9</ele>
        <time>2021-08-31T15:15:12Z</time>
      </trkpt>
      <trkpt lat="44.99695" lon="5.47784">
        <ele>1328</ele>
        <time>2021-08-31T15:15:13Z</time>
      </trkpt>
      <trkpt lat="44.99692" lon="5.47785">
        <ele>1328.1</ele>
        <time>2021-08-31T15:15:14Z</time>
      </trkpt>
      <trkpt lat="44.99685" lon="5.47784">
        <ele>1328.3</ele>
        <time>2021-08-31T15:15:16Z</time>
      </trkpt>
      <trkpt lat="44.9968" lon="5.47782">
        <ele>1328.4</ele>
        <time>2021-08-31T15:15:17Z</time>
      </trkpt>
      <trkpt lat="44.99674" lon="5.47781">
        <ele>1328.6</ele>
        <time>2021-08-31T15:15:19Z</time>
      </trkpt>
      <trkpt lat="44.99671" lon="5.4778">
        <ele>1328.6</ele>
        <time>2021-08-31T15:15:20Z</time>
      </trkpt>
      <trkpt lat="44.99667" lon="5.47778">
        <ele>1328.7</ele>
        <time>2021-08-31T15:15:22Z</time>
      </trkpt>
      <trkpt lat="44.99666" lon="5.47777">
        <ele>1328.8</ele>
        <time>2021-08-31T15:15:23Z</time>
      </trkpt>
      <trkpt lat="44.9966" lon="5.47772">
        <ele>1328.9</ele>
        <time>2021-08-31T15:15:25Z</time>
      </trkpt>
      <trkpt lat="44.99653" lon="5.47769">
        <ele>1329.1</ele>
        <time>2021-08-31T15:15:26Z</time>
      </trkpt>
      <trkpt lat="44.99648" lon="5.47765">
        <ele>1329.2</ele>
        <time>2021-08-31T15:15:28Z</time>
      </trkpt>
      <trkpt lat="44.99645" lon="5.4776">
        <ele>1329.3</ele>
        <time>2021-08-31T15:15:29Z</time>
      </trkpt>
      <trkpt lat="44.99642" lon="5.47753">
        <ele>1329.4</ele>
        <time>2021-08-31T15:15:30Z</time>
      </trkpt>
      <trkpt lat="44.99637" lon="5.47743">
        <ele>1329.5</ele>
        <time>2021-08-31T15:15:32Z</time>
      </trkpt>
      <trkpt lat="44.99635" lon="5.47734">
        <ele>1329.7</ele>
        <time>2021-08-31T15:15:33Z</time>
      </trkpt>
      <trkpt lat="44.99634" lon="5.47727">
        <ele>1329.8</ele>
        <time>2021-08-31T15:15:34Z</time>
      </trkpt>
      <trkpt lat="44.99633" lon="5.47721">
        <ele>1330</ele>
        <time>2021-08-31T15:15:35Z</time>
      </trkpt>
      <trkpt lat="44.99631" lon="5.47713">
        <ele>1330.2</ele>
        <time>2021-08-31T15:15:36Z</time>
      </trkpt>
      <trkpt lat="44.99629" lon="5.47704">
        <ele>1330.4</ele>
        <time>2021-08-31T15:15:38Z</time>
      </trkpt>
      <trkpt lat="44.99626" lon="5.477">
        <ele>1330.5</ele>
        <time>2021-08-31T15:15:39Z</time>
      </trkpt>
      <trkpt lat="44.99621" lon="5.47695">
        <ele>1330.6</ele>
        <time>2021-08-31T15:15:41Z</time>
      </trkpt>
      <trkpt lat="44.99618" lon="5.47693">
        <ele>1330.7</ele>
        <time>2021-08-31T15:15:42Z</time>
      </trkpt>
      <trkpt lat="44.99612" lon="5.4769">
        <ele>1330.8</ele>
        <time>2021-08-31T15:15:44Z</time>
      </trkpt>
      <trkpt lat="44.99606" lon="5.47687">
        <ele>1330.9</ele>
        <time>2021-08-31T15:15:46Z</time>
      </trkpt>
      <trkpt lat="44.99601" lon="5.47685">
        <ele>1331</ele>
        <time>2021-08-31T15:15:47Z</time>
      </trkpt>
      <trkpt lat="44.99595" lon="5.47684">
        <ele>1331.2</ele>
        <time>2021-08-31T15:15:49Z</time>
      </trkpt>
      <trkpt lat="44.99588" lon="5.47683">
        <ele>1331.3</ele>
        <time>2021-08-31T15:15:51Z</time>
      </trkpt>
      <trkpt lat="44.99584" lon="5.47683">
        <ele>1331.3</ele>
        <time>2021-08-31T15:15:52Z</time>
      </trkpt>
      <trkpt lat="44.99582" lon="5.47683">
        <ele>1331.4</ele>
        <time>2021-08-31T15:15:53Z</time>
      </trkpt>
      <trkpt lat="44.99581" lon="5.47683">
        <ele>1331.4</ele>
        <time>2021-08-31T15:15:54Z</time>
      </trkpt>
      <trkpt lat="44.99579" lon="5.47683">
        <ele>1331.4</ele>
        <time>2021-08-31T15:15:55Z</time>
      </trkpt>
      <trkpt lat="44.99576" lon="5.47685">
        <ele>1331.5</ele>
        <time>2021-08-31T15:15:57Z</time>
      </trkpt>
      <trkpt lat="44.99574" lon="5.47688">
        <ele>1331.5</ele>
        <time>2021-08-31T15:15:58Z</time>
      </trkpt>
      <trkpt lat="44.99572" lon="5.4769">
        <ele>1331.5</ele>
        <time>2021-08-31T15:16:00Z</time>
      </trkpt>
      <trkpt lat="44.99569" lon="5.47692">
        <ele>1331.5</ele>
        <time>2021-08-31T15:16:01Z</time>
      </trkpt>
      <trkpt lat="44.99567" lon="5.47694">
        <ele>1331.6</ele>
        <time>2021-08-31T15:16:02Z</time>
      </trkpt>
      <trkpt lat="44.99564" lon="5.47698">
        <ele>1331.6</ele>
        <time>2021-08-31T15:16:03Z</time>
      </trkpt>
      <trkpt lat="44.99561" lon="5.47703">
        <ele>1331.7</ele>
        <time>2021-08-31T15:16:04Z</time>
      </trkpt>
      <trkpt lat="44.99557" lon="5.47709">
        <ele>1331.7</ele>
        <time>2021-08-31T15:16:06Z</time>
      </trkpt>
      <trkpt lat="44.99551" lon="5.47718">
        <ele>1331.9</ele>
        <time>2021-08-31T15:16:08Z</time>
      </trkpt>
      <trkpt lat="44.99546" lon="5.47723">
        <ele>1332</ele>
        <time>2021-08-31T15:16:09Z</time>
      </trkpt>
      <trkpt lat="44.99541" lon="5.47727">
        <ele>1332.1</ele>
        <time>2021-08-31T15:16:11Z</time>
      </trkpt>
      <trkpt lat="44.99536" lon="5.47731">
        <ele>1332.3</ele>
        <time>2021-08-31T15:16:12Z</time>
      </trkpt>
      <trkpt lat="44.99532" lon="5.47734">
        <ele>1332.4</ele>
        <time>2021-08-31T15:16:13Z</time>
      </trkpt>
      <trkpt lat="44.99529" lon="5.47736">
        <ele>1332.5</ele>
        <time>2021-08-31T15:16:14Z</time>
      </trkpt>
      <trkpt lat="44.99525" lon="5.47739">
        <ele>1332.7</ele>
        <time>2021-08-31T15:16:16Z</time>
      </trkpt>
      <trkpt lat="44.99521" lon="5.47742">
        <ele>1332.8</ele>
        <time>2021-08-31T15:16:18Z</time>
      </trkpt>
      <trkpt lat="44.99515" lon="5.47746">
        <ele>1333</ele>
        <time>2021-08-31T15:16:20Z</time>
      </trkpt>
      <trkpt lat="44.99511" lon="5.47748">
        <ele>1333.2</ele>
        <time>2021-08-31T15:16:21Z</time>
      </trkpt>
      <trkpt lat="44.9951" lon="5.47748">
        <ele>1333.2</ele>
        <time>2021-08-31T15:16:22Z</time>
      </trkpt>
      <trkpt lat="44.99504" lon="5.4775">
        <ele>1333.4</ele>
        <time>2021-08-31T15:16:24Z</time>
      </trkpt>
      <trkpt lat="44.99499" lon="5.4775">
        <ele>1333.6</ele>
        <time>2021-08-31T15:16:26Z</time>
      </trkpt>
      <trkpt lat="44.99495" lon="5.47751">
        <ele>1333.7</ele>
        <time>2021-08-31T15:16:27Z</time>
      </trkpt>
      <trkpt lat="44.99494" lon="5.47751">
        <ele>1333.8</ele>
        <time>2021-08-31T15:16:28Z</time>
      </trkpt>
      <trkpt lat="44.99487" lon="5.47751">
        <ele>1334</ele>
        <time>2021-08-31T15:16:30Z</time>
      </trkpt>
      <trkpt lat="44.99485" lon="5.47753">
        <ele>1334.1</ele>
        <time>2021-08-31T15:16:31Z</time>
      </trkpt>
      <trkpt lat="44.99481" lon="5.47757">
        <ele>1334.2</ele>
        <time>2021-08-31T15:16:32Z</time>
      </trkpt>
      <trkpt lat="44.99481" lon="5.47758">
        <ele>1334.3</ele>
        <time>2021-08-31T15:16:33Z</time>
      </trkpt>
      <trkpt lat="44.99478" lon="5.47762">
        <ele>1334.4</ele>
        <time>2021-08-31T15:16:34Z</time>
      </trkpt>
      <trkpt lat="44.99476" lon="5.47763">
        <ele>1334.5</ele>
        <time>2021-08-31T15:16:35Z</time>
      </trkpt>
      <trkpt lat="44.99473" lon="5.47765">
        <ele>1334.6</ele>
        <time>2021-08-31T15:16:37Z</time>
      </trkpt>
      <trkpt lat="44.99472" lon="5.47766">
        <ele>1334.7</ele>
        <time>2021-08-31T15:16:38Z</time>
      </trkpt>
      <trkpt lat="44.99469" lon="5.47768">
        <ele>1334.8</ele>
        <time>2021-08-31T15:16:39Z</time>
      </trkpt>
      <trkpt lat="44.99465" lon="5.47771">
        <ele>1334.9</ele>
        <time>2021-08-31T15:16:41Z</time>
      </trkpt>
      <trkpt lat="44.99462" lon="5.47773">
        <ele>1335</ele>
        <time>2021-08-31T15:16:42Z</time>
      </trkpt>
      <trkpt lat="44.99458" lon="5.47773">
        <ele>1335.1</ele>
        <time>2021-08-31T15:16:43Z</time>
      </trkpt>
      <trkpt lat="44.99455" lon="5.47774">
        <ele>1335.2</ele>
        <time>2021-08-31T15:16:44Z</time>
      </trkpt>
      <trkpt lat="44.99449" lon="5.47775">
        <ele>1335.4</ele>
        <time>2021-08-31T15:16:46Z</time>
      </trkpt>
      <trkpt lat="44.99446" lon="5.47777">
        <ele>1335.5</ele>
        <time>2021-08-31T15:16:47Z</time>
      </trkpt>
      <trkpt lat="44.99444" lon="5.47779">
        <ele>1335.5</ele>
        <time>2021-08-31T15:16:48Z</time>
      </trkpt>
      <trkpt lat="44.99442" lon="5.47782">
        <ele>1335.6</ele>
        <time>2021-08-31T15:16:49Z</time>
      </trkpt>
      <trkpt lat="44.9944" lon="5.47785">
        <ele>1335.7</ele>
        <time>2021-08-31T15:16:50Z</time>
      </trkpt>
      <trkpt lat="44.99436" lon="5.47789">
        <ele>1335.8</ele>
        <time>2021-08-31T15:16:52Z</time>
      </trkpt>
      <trkpt lat="44.99433" lon="5.47792">
        <ele>1335.8</ele>
        <time>2021-08-31T15:16:54Z</time>
      </trkpt>
      <trkpt lat="44.99429" lon="5.47793">
        <ele>1335.9</ele>
        <time>2021-08-31T15:16:55Z</time>
      </trkpt>
      <trkpt lat="44.99426" lon="5.47795">
        <ele>1336</ele>
        <time>2021-08-31T15:16:56Z</time>
      </trkpt>
      <trkpt lat="44.9942" lon="5.47798">
        <ele>1336.2</ele>
        <time>2021-08-31T15:16:58Z</time>
      </trkpt>
      <trkpt lat="44.99414" lon="5.47801">
        <ele>1336.4</ele>
        <time>2021-08-31T15:17:00Z</time>
      </trkpt>
      <trkpt lat="44.99411" lon="5.47804">
        <ele>1336.5</ele>
        <time>2021-08-31T15:17:01Z</time>
      </trkpt>
      <trkpt lat="44.99409" lon="5.47807">
        <ele>1336.6</ele>
        <time>2021-08-31T15:17:02Z</time>
      </trkpt>
      <trkpt lat="44.99405" lon="5.47812">
        <ele>1336.8</ele>
        <time>2021-08-31T15:17:04Z</time>
      </trkpt>
      <trkpt lat="44.99401" lon="5.47816">
        <ele>1336.9</ele>
        <time>2021-08-31T15:17:06Z</time>
      </trkpt>
      <trkpt lat="44.99396" lon="5.47819">
        <ele>1337</ele>
        <time>2021-08-31T15:17:08Z</time>
      </trkpt>
      <trkpt lat="44.99391" lon="5.47823">
        <ele>1337.2</ele>
        <time>2021-08-31T15:17:10Z</time>
      </trkpt>
      <trkpt lat="44.99387" lon="5.47828">
        <ele>1337.3</ele>
        <time>2021-08-31T15:17:11Z</time>
      </trkpt>
      <trkpt lat="44.99383" lon="5.47832">
        <ele>1337.4</ele>
        <time>2021-08-31T15:17:13Z</time>
      </trkpt>
      <trkpt lat="44.99379" lon="5.47835">
        <ele>1337.5</ele>
        <time>2021-08-31T15:17:14Z</time>
      </trkpt>
      <trkpt lat="44.99374" lon="5.47839">
        <ele>1337.5</ele>
        <time>2021-08-31T15:17:16Z</time>
      </trkpt>
      <trkpt lat="44.9937" lon="5.47843">
        <ele>1337.6</ele>
        <time>2021-08-31T15:17:17Z</time>
      </trkpt>
      <trkpt lat="44.99365" lon="5.47848">
        <ele>1337.7</ele>
        <time>2021-08-31T15:17:19Z</time>
      </trkpt>
      <trkpt lat="44.9936" lon="5.47851">
        <ele>1337.8</ele>
        <time>2021-08-31T15:17:20Z</time>
      </trkpt>
      <trkpt lat="44.99355" lon="5.47855">
        <ele>1338</ele>
        <time>2021-08-31T15:17:22Z</time>
      </trkpt>
      <trkpt lat="44.99352" lon="5.47858">
        <ele>1338</ele>
        <time>2021-08-31T15:17:23Z</time>
      </trkpt>
      <trkpt lat="44.9935" lon="5.47862">
        <ele>1338.1</ele>
        <time>2021-08-31T15:17:24Z</time>
      </trkpt>
      <trkpt lat="44.99347" lon="5.47866">
        <ele>1338.2</ele>
        <time>2021-08-31T15:17:25Z</time>
      </trkpt>
      <trkpt lat="44.99344" lon="5.47869">
        <ele>1338.3</ele>
        <time>2021-08-31T15:17:26Z</time>
      </trkpt>
      <trkpt lat="44.9934" lon="5.47873">
        <ele>1338.4</ele>
        <time>2021-08-31T15:17:27Z</time>
      </trkpt>
      <trkpt lat="44.99335" lon="5.47879">
        <ele>1338.6</ele>
        <time>2021-08-31T15:17:29Z</time>
      </trkpt>
      <trkpt lat="44.99332" lon="5.47882">
        <ele>1338.7</ele>
        <time>2021-08-31T15:17:30Z</time>
      </trkpt>
      <trkpt lat="44.99329" lon="5.47884">
        <ele>1338.8</ele>
        <time>2021-08-31T15:17:31Z</time>
      </trkpt>
      <trkpt lat="44.99327" lon="5.47886">
        <ele>1338.9</ele>
        <time>2021-08-31T15:17:32Z</time>
      </trkpt>
      <trkpt lat="44.99322" lon="5.4789">
        <ele>1339</ele>
        <time>2021-08-31T15:17:34Z</time>
      </trkpt>
      <trkpt lat="44.99319" lon="5.47892">
        <ele>1339.1</ele>
        <time>2021-08-31T15:17:35Z</time>
      </trkpt>
      <trkpt lat="44.99315" lon="5.47892">
        <ele>1339.2</ele>
        <time>2021-08-31T15:17:36Z</time>
      </trkpt>
      <trkpt lat="44.99311" lon="5.47891">
        <ele>1339.3</ele>
        <time>2021-08-31T15:17:38Z</time>
      </trkpt>
      <trkpt lat="44.99308" lon="5.47891">
        <ele>1339.4</ele>
        <time>2021-08-31T15:17:39Z</time>
      </trkpt>
      <trkpt lat="44.99304" lon="5.47892">
        <ele>1339.6</ele>
        <time>2021-08-31T15:17:40Z</time>
      </trkpt>
      <trkpt lat="44.99302" lon="5.47892">
        <ele>1339.6</ele>
        <time>2021-08-31T15:17:41Z</time>
      </trkpt>
      <trkpt lat="44.99299" lon="5.47893">
        <ele>1339.7</ele>
        <time>2021-08-31T15:17:42Z</time>
      </trkpt>
      <trkpt lat="44.99296" lon="5.47894">
        <ele>1339.9</ele>
        <time>2021-08-31T15:17:43Z</time>
      </trkpt>
      <trkpt lat="44.99293" lon="5.47895">
        <ele>1340</ele>
        <time>2021-08-31T15:17:44Z</time>
      </trkpt>
      <trkpt lat="44.99287" lon="5.47896">
        <ele>1340.3</ele>
        <time>2021-08-31T15:17:46Z</time>
      </trkpt>
      <trkpt lat="44.99283" lon="5.47897">
        <ele>1340.4</ele>
        <time>2021-08-31T15:17:47Z</time>
      </trkpt>
      <trkpt lat="44.9928" lon="5.47897">
        <ele>1340.6</ele>
        <time>2021-08-31T15:17:48Z</time>
      </trkpt>
      <trkpt lat="44.99276" lon="5.47897">
        <ele>1340.8</ele>
        <time>2021-08-31T15:17:50Z</time>
      </trkpt>
      <trkpt lat="44.99276" lon="5.47896">
        <ele>1340.8</ele>
        <time>2021-08-31T15:17:51Z</time>
      </trkpt>
      <trkpt lat="44.99275" lon="5.47891">
        <ele>1341</ele>
        <time>2021-08-31T15:17:53Z</time>
      </trkpt>
      <trkpt lat="44.99275" lon="5.47888">
        <ele>1341.2</ele>
        <time>2021-08-31T15:17:54Z</time>
      </trkpt>
      <trkpt lat="44.99275" lon="5.47882">
        <ele>1341.4</ele>
        <time>2021-08-31T15:17:56Z</time>
      </trkpt>
      <trkpt lat="44.99275" lon="5.47875">
        <ele>1341.7</ele>
        <time>2021-08-31T15:17:58Z</time>
      </trkpt>
      <trkpt lat="44.99275" lon="5.4787">
        <ele>1341.9</ele>
        <time>2021-08-31T15:18:00Z</time>
      </trkpt>
      <trkpt lat="44.99273" lon="5.47865">
        <ele>1342.1</ele>
        <time>2021-08-31T15:18:01Z</time>
      </trkpt>
      <trkpt lat="44.99273" lon="5.47864">
        <ele>1342.2</ele>
        <time>2021-08-31T15:18:02Z</time>
      </trkpt>
      <trkpt lat="44.99274" lon="5.4786">
        <ele>1342.4</ele>
        <time>2021-08-31T15:18:04Z</time>
      </trkpt>
      <trkpt lat="44.99276" lon="5.47856">
        <ele>1342.6</ele>
        <time>2021-08-31T15:18:05Z</time>
      </trkpt>
      <trkpt lat="44.99279" lon="5.47852">
        <ele>1342.8</ele>
        <time>2021-08-31T15:18:07Z</time>
      </trkpt>
      <trkpt lat="44.99281" lon="5.47849">
        <ele>1343</ele>
        <time>2021-08-31T15:18:08Z</time>
      </trkpt>
      <trkpt lat="44.99284" lon="5.47846">
        <ele>1343.1</ele>
        <time>2021-08-31T15:18:09Z</time>
      </trkpt>
      <trkpt lat="44.99288" lon="5.47843">
        <ele>1343.4</ele>
        <time>2021-08-31T15:18:11Z</time>
      </trkpt>
      <trkpt lat="44.99294" lon="5.47841">
        <ele>1343.8</ele>
        <time>2021-08-31T15:18:13Z</time>
      </trkpt>
      <trkpt lat="44.99298" lon="5.4784">
        <ele>1344</ele>
        <time>2021-08-31T15:18:14Z</time>
      </trkpt>
      <trkpt lat="44.99302" lon="5.47838">
        <ele>1344.3</ele>
        <time>2021-08-31T15:18:16Z</time>
      </trkpt>
      <trkpt lat="44.99305" lon="5.47836">
        <ele>1344.5</ele>
        <time>2021-08-31T15:18:17Z</time>
      </trkpt>
      <trkpt lat="44.99307" lon="5.47833">
        <ele>1344.7</ele>
        <time>2021-08-31T15:18:18Z</time>
      </trkpt>
      <trkpt lat="44.99309" lon="5.47829">
        <ele>1344.9</ele>
        <time>2021-08-31T15:18:19Z</time>
      </trkpt>
      <trkpt lat="44.9931" lon="5.47827">
        <ele>1345</ele>
        <time>2021-08-31T15:18:20Z</time>
      </trkpt>
      <trkpt lat="44.99313" lon="5.47824">
        <ele>1345.2</ele>
        <time>2021-08-31T15:18:22Z</time>
      </trkpt>
      <trkpt lat="44.99314" lon="5.4782">
        <ele>1345.4</ele>
        <time>2021-08-31T15:18:23Z</time>
      </trkpt>
      <trkpt lat="44.99315" lon="5.47819">
        <ele>1345.5</ele>
        <time>2021-08-31T15:18:24Z</time>
      </trkpt>
      <trkpt lat="44.99316" lon="5.47818">
        <ele>1345.6</ele>
        <time>2021-08-31T15:18:25Z</time>
      </trkpt>
      <trkpt lat="44.99318" lon="5.47817">
        <ele>1345.7</ele>
        <time>2021-08-31T15:18:26Z</time>
      </trkpt>
      <trkpt lat="44.99319" lon="5.47815">
        <ele>1345.8</ele>
        <time>2021-08-31T15:18:27Z</time>
      </trkpt>
      <trkpt lat="44.9932" lon="5.47813">
        <ele>1346</ele>
        <time>2021-08-31T15:18:29Z</time>
      </trkpt>
      <trkpt lat="44.9932" lon="5.47809">
        <ele>1346.1</ele>
        <time>2021-08-31T15:18:30Z</time>
      </trkpt>
      <trkpt lat="44.9932" lon="5.47807">
        <ele>1346.3</ele>
        <time>2021-08-31T15:18:32Z</time>
      </trkpt>
      <trkpt lat="44.9932" lon="5.47805">
        <ele>1346.4</ele>
        <time>2021-08-31T15:18:33Z</time>
      </trkpt>
      <trkpt lat="44.9932" lon="5.47802">
        <ele>1346.5</ele>
        <time>2021-08-31T15:18:34Z</time>
      </trkpt>
      <trkpt lat="44.9932" lon="5.478">
        <ele>1346.6</ele>
        <time>2021-08-31T15:18:35Z</time>
      </trkpt>
      <trkpt lat="44.99319" lon="5.47798">
        <ele>1346.7</ele>
        <time>2021-08-31T15:18:36Z</time>
      </trkpt>
      <trkpt lat="44.99315" lon="5.47795">
        <ele>1347</ele>
        <time>2021-08-31T15:18:38Z</time>
      </trkpt>
      <trkpt lat="44.99314" lon="5.47796">
        <ele>1347.1</ele>
        <time>2021-08-31T15:18:39Z</time>
      </trkpt>
      <trkpt lat="44.99312" lon="5.47796">
        <ele>1347.2</ele>
        <time>2021-08-31T15:18:40Z</time>
      </trkpt>
      <trkpt lat="44.99311" lon="5.47796">
        <ele>1347.3</ele>
        <time>2021-08-31T15:18:41Z</time>
      </trkpt>
      <trkpt lat="44.99308" lon="5.47795">
        <ele>1347.5</ele>
        <time>2021-08-31T15:18:43Z</time>
      </trkpt>
      <trkpt lat="44.99305" lon="5.47791">
        <ele>1347.7</ele>
        <time>2021-08-31T15:18:44Z</time>
      </trkpt>
      <trkpt lat="44.99304" lon="5.4779">
        <ele>1347.8</ele>
        <time>2021-08-31T15:18:45Z</time>
      </trkpt>
      <trkpt lat="44.99301" lon="5.47787">
        <ele>1348</ele>
        <time>2021-08-31T15:18:47Z</time>
      </trkpt>
      <trkpt lat="44.99299" lon="5.47784">
        <ele>1348.2</ele>
        <time>2021-08-31T15:18:49Z</time>
      </trkpt>
      <trkpt lat="44.99298" lon="5.47783">
        <ele>1348.2</ele>
        <time>2021-08-31T15:18:50Z</time>
      </trkpt>
      <trkpt lat="44.99297" lon="5.47783">
        <ele>1348.3</ele>
        <time>2021-08-31T15:18:51Z</time>
      </trkpt>
      <trkpt lat="44.99296" lon="5.47781">
        <ele>1348.3</ele>
        <time>2021-08-31T15:18:53Z</time>
      </trkpt>
      <trkpt lat="44.99295" lon="5.47781">
        <ele>1348.4</ele>
        <time>2021-08-31T15:18:54Z</time>
      </trkpt>
      <trkpt lat="44.99295" lon="5.4778">
        <ele>1348.4</ele>
        <time>2021-08-31T15:18:55Z</time>
      </trkpt>
      <trkpt lat="44.99294" lon="5.47778">
        <ele>1348.5</ele>
        <time>2021-08-31T15:18:56Z</time>
      </trkpt>
      <trkpt lat="44.99292" lon="5.47775">
        <ele>1348.6</ele>
        <time>2021-08-31T15:18:58Z</time>
      </trkpt>
      <trkpt lat="44.9929" lon="5.47772">
        <ele>1348.7</ele>
        <time>2021-08-31T15:18:59Z</time>
      </trkpt>
      <trkpt lat="44.99288" lon="5.47768">
        <ele>1348.9</ele>
        <time>2021-08-31T15:19:01Z</time>
      </trkpt>
      <trkpt lat="44.99286" lon="5.47765">
        <ele>1349</ele>
        <time>2021-08-31T15:19:02Z</time>
      </trkpt>
      <trkpt lat="44.99283" lon="5.47761">
        <ele>1349.2</ele>
        <time>2021-08-31T15:19:03Z</time>
      </trkpt>
      <trkpt lat="44.9928" lon="5.47759">
        <ele>1349.3</ele>
        <time>2021-08-31T15:19:04Z</time>
      </trkpt>
      <trkpt lat="44.99278" lon="5.47755">
        <ele>1349.4</ele>
        <time>2021-08-31T15:19:05Z</time>
      </trkpt>
      <trkpt lat="44.99275" lon="5.47751">
        <ele>1349.6</ele>
        <time>2021-08-31T15:19:07Z</time>
      </trkpt>
      <trkpt lat="44.99274" lon="5.47746">
        <ele>1349.7</ele>
        <time>2021-08-31T15:19:08Z</time>
      </trkpt>
      <trkpt lat="44.99274" lon="5.47741">
        <ele>1349.8</ele>
        <time>2021-08-31T15:19:09Z</time>
      </trkpt>
      <trkpt lat="44.99273" lon="5.47736">
        <ele>1350</ele>
        <time>2021-08-31T15:19:11Z</time>
      </trkpt>
      <trkpt lat="44.99274" lon="5.47731">
        <ele>1350.1</ele>
        <time>2021-08-31T15:19:12Z</time>
      </trkpt>
      <trkpt lat="44.99274" lon="5.47726">
        <ele>1350.3</ele>
        <time>2021-08-31T15:19:13Z</time>
      </trkpt>
      <trkpt lat="44.99274" lon="5.47724">
        <ele>1350.3</ele>
        <time>2021-08-31T15:19:14Z</time>
      </trkpt>
      <trkpt lat="44.99273" lon="5.4772">
        <ele>1350.4</ele>
        <time>2021-08-31T15:19:15Z</time>
      </trkpt>
      <trkpt lat="44.99272" lon="5.47715">
        <ele>1350.6</ele>
        <time>2021-08-31T15:19:17Z</time>
      </trkpt>
      <trkpt lat="44.99271" lon="5.47713">
        <ele>1350.6</ele>
        <time>2021-08-31T15:19:18Z</time>
      </trkpt>
      <trkpt lat="44.99269" lon="5.47707">
        <ele>1350.8</ele>
        <time>2021-08-31T15:19:20Z</time>
      </trkpt>
      <trkpt lat="44.99269" lon="5.47705">
        <ele>1348.9</ele>
        <time>2021-08-31T15:19:21Z</time>
      </trkpt>
      <trkpt lat="44.99268" lon="5.47702">
        <ele>1349.8</ele>
        <time>2021-08-31T15:19:22Z</time>
      </trkpt>
      <trkpt lat="44.99268" lon="5.477">
        <ele>1349.7</ele>
        <time>2021-08-31T15:19:24Z</time>
      </trkpt>
      <trkpt lat="44.99268" lon="5.47698">
        <ele>1349.2</ele>
        <time>2021-08-31T15:19:25Z</time>
      </trkpt>
      <trkpt lat="44.99267" lon="5.47694">
        <ele>1349.9</ele>
        <time>2021-08-31T15:19:27Z</time>
      </trkpt>
      <trkpt lat="44.99266" lon="5.47693">
        <ele>1350.4</ele>
        <time>2021-08-31T15:19:28Z</time>
      </trkpt>
      <trkpt lat="44.99266" lon="5.47692">
        <ele>1350.7</ele>
        <time>2021-08-31T15:19:29Z</time>
      </trkpt>
      <trkpt lat="44.99264" lon="5.4769">
        <ele>1349.6</ele>
        <time>2021-08-31T15:19:31Z</time>
      </trkpt>
      <trkpt lat="44.99263" lon="5.47689">
        <ele>1349.7</ele>
        <time>2021-08-31T15:19:32Z</time>
      </trkpt>
      <trkpt lat="44.99261" lon="5.47689">
        <ele>1349.8</ele>
        <time>2021-08-31T15:19:33Z</time>
      </trkpt>
      <trkpt lat="44.99259" lon="5.47689">
        <ele>1350.3</ele>
        <time>2021-08-31T15:19:35Z</time>
      </trkpt>
      <trkpt lat="44.99257" lon="5.47691">
        <ele>1351.2</ele>
        <time>2021-08-31T15:19:37Z</time>
      </trkpt>
      <trkpt lat="44.99254" lon="5.47692">
        <ele>1353.3</ele>
        <time>2021-08-31T15:19:38Z</time>
      </trkpt>
      <trkpt lat="44.99253" lon="5.47692">
        <ele>1353.2</ele>
        <time>2021-08-31T15:19:39Z</time>
      </trkpt>
      <trkpt lat="44.9925" lon="5.47694">
        <ele>1352.5</ele>
        <time>2021-08-31T15:19:41Z</time>
      </trkpt>
      <trkpt lat="44.99248" lon="5.47695">
        <ele>1353.6</ele>
        <time>2021-08-31T15:19:42Z</time>
      </trkpt>
      <trkpt lat="44.99248" lon="5.47695">
        <ele>1352.3</ele>
        <time>2021-08-31T15:19:44Z</time>
      </trkpt>
      <trkpt lat="44.99246" lon="5.47696">
        <ele>1353.4</ele>
        <time>2021-08-31T15:19:45Z</time>
      </trkpt>
      <trkpt lat="44.99245" lon="5.47696">
        <ele>1353.7</ele>
        <time>2021-08-31T15:19:46Z</time>
      </trkpt>
      <trkpt lat="44.99243" lon="5.47696">
        <ele>1353</ele>
        <time>2021-08-31T15:19:47Z</time>
      </trkpt>
      <trkpt lat="44.99238" lon="5.47695">
        <ele>1351.7</ele>
        <time>2021-08-31T15:19:49Z</time>
      </trkpt>
      <trkpt lat="44.99235" lon="5.47694">
        <ele>1351.6</ele>
        <time>2021-08-31T15:19:50Z</time>
      </trkpt>
      <trkpt lat="44.99232" lon="5.47694">
        <ele>1351.3</ele>
        <time>2021-08-31T15:19:51Z</time>
      </trkpt>
      <trkpt lat="44.99227" lon="5.47693">
        <ele>1351.6</ele>
        <time>2021-08-31T15:19:52Z</time>
      </trkpt>
      <trkpt lat="44.99222" lon="5.47693">
        <ele>1352.5</ele>
        <time>2021-08-31T15:19:54Z</time>
      </trkpt>
      <trkpt lat="44.99216" lon="5.47694">
        <ele>1351</ele>
        <time>2021-08-31T15:19:56Z</time>
      </trkpt>
      <trkpt lat="44.99211" lon="5.47695">
        <ele>1351.5</ele>
        <time>2021-08-31T15:19:57Z</time>
      </trkpt>
      <trkpt lat="44.99205" lon="5.47695">
        <ele>1350</ele>
        <time>2021-08-31T15:19:58Z</time>
      </trkpt>
      <trkpt lat="44.99198" lon="5.47694">
        <ele>1352.9</ele>
        <time>2021-08-31T15:20:00Z</time>
      </trkpt>
      <trkpt lat="44.99194" lon="5.47692">
        <ele>1350.4</ele>
        <time>2021-08-31T15:20:01Z</time>
      </trkpt>
      <trkpt lat="44.9919" lon="5.47692">
        <ele>1351.1</ele>
        <time>2021-08-31T15:20:02Z</time>
      </trkpt>
      <trkpt lat="44.99185" lon="5.47692">
        <ele>1353.6</ele>
        <time>2021-08-31T15:20:04Z</time>
      </trkpt>
      <trkpt lat="44.99182" lon="5.47694">
        <ele>1350.7</ele>
        <time>2021-08-31T15:20:05Z</time>
      </trkpt>
      <trkpt lat="44.99176" lon="5.47698">
        <ele>1352.6</ele>
        <time>2021-08-31T15:20:07Z</time>
      </trkpt>
      <trkpt lat="44.99172" lon="5.47704">
        <ele>1351.1</ele>
        <time>2021-08-31T15:20:08Z</time>
      </trkpt>
      <trkpt lat="44.99169" lon="5.47708">
        <ele>1353</ele>
        <time>2021-08-31T15:20:09Z</time>
      </trkpt>
      <trkpt lat="44.99164" lon="5.47716">
        <ele>1352.9</ele>
        <time>2021-08-31T15:20:11Z</time>
      </trkpt>
      <trkpt lat="44.99161" lon="5.47724">
        <ele>1352.8</ele>
        <time>2021-08-31T15:20:12Z</time>
      </trkpt>
      <trkpt lat="44.99159" lon="5.47731">
        <ele>1354.1</ele>
        <time>2021-08-31T15:20:13Z</time>
      </trkpt>
      <trkpt lat="44.99156" lon="5.47739">
        <ele>1353.6</ele>
        <time>2021-08-31T15:20:15Z</time>
      </trkpt>
      <trkpt lat="44.99153" lon="5.47745">
        <ele>1353.3</ele>
        <time>2021-08-31T15:20:17Z</time>
      </trkpt>
      <trkpt lat="44.99151" lon="5.47749">
        <ele>1354.2</ele>
        <time>2021-08-31T15:20:18Z</time>
      </trkpt>
      <trkpt lat="44.9915" lon="5.47751">
        <ele>1355.7</ele>
        <time>2021-08-31T15:20:20Z</time>
      </trkpt>
      <trkpt lat="44.99149" lon="5.47752">
        <ele>1355.4</ele>
        <time>2021-08-31T15:20:21Z</time>
      </trkpt>
      <trkpt lat="44.99148" lon="5.47753">
        <ele>1356.3</ele>
        <time>2021-08-31T15:20:22Z</time>
      </trkpt>
      <trkpt lat="44.99145" lon="5.47755">
        <ele>1355.8</ele>
        <time>2021-08-31T15:20:24Z</time>
      </trkpt>
      <trkpt lat="44.99142" lon="5.47756">
        <ele>1355.5</ele>
        <time>2021-08-31T15:20:25Z</time>
      </trkpt>
      <trkpt lat="44.99141" lon="5.47757">
        <ele>1356.8</ele>
        <time>2021-08-31T15:20:26Z</time>
      </trkpt>
      <trkpt lat="44.9914" lon="5.47757">
        <ele>1355.9</ele>
        <time>2021-08-31T15:20:27Z</time>
      </trkpt>
      <trkpt lat="44.99139" lon="5.47756">
        <ele>1357.6</ele>
        <time>2021-08-31T15:20:28Z</time>
      </trkpt>
      <trkpt lat="44.9908" lon="5.47707">
        <ele>1352.7</ele>
        <time>2021-08-31T15:20:36Z</time>
      </trkpt>
      <trkpt lat="44.99066" lon="5.47692">
        <ele>1355</ele>
        <time>2021-08-31T15:20:37Z</time>
      </trkpt>
      <trkpt lat="44.99056" lon="5.47681">
        <ele>1355.5</ele>
        <time>2021-08-31T15:20:38Z</time>
      </trkpt>
      <trkpt lat="44.99043" lon="5.4767">
        <ele>1356</ele>
        <time>2021-08-31T15:20:40Z</time>
      </trkpt>
      <trkpt lat="44.99037" lon="5.47662">
        <ele>1356.3</ele>
        <time>2021-08-31T15:20:42Z</time>
      </trkpt>
      <trkpt lat="44.99034" lon="5.47659">
        <ele>1356.4</ele>
        <time>2021-08-31T15:20:43Z</time>
      </trkpt>
      <trkpt lat="44.99031" lon="5.47657">
        <ele>1356.6</ele>
        <time>2021-08-31T15:20:44Z</time>
      </trkpt>
      <trkpt lat="44.99028" lon="5.47655">
        <ele>1356.7</ele>
        <time>2021-08-31T15:20:45Z</time>
      </trkpt>
      <trkpt lat="44.99025" lon="5.47652">
        <ele>1356.8</ele>
        <time>2021-08-31T15:20:46Z</time>
      </trkpt>
      <trkpt lat="44.9902" lon="5.47648">
        <ele>1357</ele>
        <time>2021-08-31T15:20:48Z</time>
      </trkpt>
      <trkpt lat="44.99018" lon="5.47644">
        <ele>1357.1</ele>
        <time>2021-08-31T15:20:50Z</time>
      </trkpt>
      <trkpt lat="44.99018" lon="5.4764">
        <ele>1357.2</ele>
        <time>2021-08-31T15:20:51Z</time>
      </trkpt>
      <trkpt lat="44.99017" lon="5.47638">
        <ele>1357.3</ele>
        <time>2021-08-31T15:20:52Z</time>
      </trkpt>
      <trkpt lat="44.99016" lon="5.47636">
        <ele>1357.4</ele>
        <time>2021-08-31T15:20:53Z</time>
      </trkpt>
      <trkpt lat="44.99014" lon="5.47633">
        <ele>1357.5</ele>
        <time>2021-08-31T15:20:55Z</time>
      </trkpt>
      <trkpt lat="44.99009" lon="5.47627">
        <ele>1357.8</ele>
        <time>2021-08-31T15:20:57Z</time>
      </trkpt>
      <trkpt lat="44.99006" lon="5.47627">
        <ele>1358</ele>
        <time>2021-08-31T15:20:58Z</time>
      </trkpt>
      <trkpt lat="44.99004" lon="5.47627">
        <ele>1358.1</ele>
        <time>2021-08-31T15:20:59Z</time>
      </trkpt>
      <trkpt lat="44.98994" lon="5.47626">
        <ele>1358.7</ele>
        <time>2021-08-31T15:21:01Z</time>
      </trkpt>
      <trkpt lat="44.9899" lon="5.47625">
        <ele>1358.9</ele>
        <time>2021-08-31T15:21:02Z</time>
      </trkpt>
      <trkpt lat="44.98987" lon="5.47623">
        <ele>1359.1</ele>
        <time>2021-08-31T15:21:03Z</time>
      </trkpt>
      <trkpt lat="44.98987" lon="5.47622">
        <ele>1359.1</ele>
        <time>2021-08-31T15:21:04Z</time>
      </trkpt>
      <trkpt lat="44.98984" lon="5.47621">
        <ele>1359.3</ele>
        <time>2021-08-31T15:21:06Z</time>
      </trkpt>
      <trkpt lat="44.98982" lon="5.47621">
        <ele>1359.4</ele>
        <time>2021-08-31T15:21:07Z</time>
      </trkpt>
      <trkpt lat="44.98982" lon="5.47622">
        <ele>1359.5</ele>
        <time>2021-08-31T15:21:08Z</time>
      </trkpt>
      <trkpt lat="44.9898" lon="5.47622">
        <ele>1359.5</ele>
        <time>2021-08-31T15:21:09Z</time>
      </trkpt>
      <trkpt lat="44.98982" lon="5.47613">
        <ele>1359.9</ele>
        <time>2021-08-31T15:21:11Z</time>
      </trkpt>
      <trkpt lat="44.98985" lon="5.47604">
        <ele>1360.2</ele>
        <time>2021-08-31T15:21:13Z</time>
      </trkpt>
      <trkpt lat="44.98987" lon="5.47595">
        <ele>1360.5</ele>
        <time>2021-08-31T15:22:10Z</time>
      </trkpt>
      <trkpt lat="44.9899" lon="5.47585">
        <ele>1360.8</ele>
        <time>2021-08-31T15:22:11Z</time>
      </trkpt>
      <trkpt lat="44.9899" lon="5.4758">
        <ele>1360.9</ele>
        <time>2021-08-31T15:22:12Z</time>
      </trkpt>
      <trkpt lat="44.98989" lon="5.47571">
        <ele>1361.2</ele>
        <time>2021-08-31T15:22:14Z</time>
      </trkpt>
      <trkpt lat="44.98989" lon="5.47566">
        <ele>1361.3</ele>
        <time>2021-08-31T15:22:15Z</time>
      </trkpt>
      <trkpt lat="44.98987" lon="5.47561">
        <ele>1361.4</ele>
        <time>2021-08-31T15:22:16Z</time>
      </trkpt>
      <trkpt lat="44.98987" lon="5.4756">
        <ele>1361.5</ele>
        <time>2021-08-31T15:22:17Z</time>
      </trkpt>
      <trkpt lat="44.98986" lon="5.47555">
        <ele>1361.6</ele>
        <time>2021-08-31T15:22:18Z</time>
      </trkpt>
      <trkpt lat="44.98984" lon="5.47551">
        <ele>1361.7</ele>
        <time>2021-08-31T15:22:20Z</time>
      </trkpt>
      <trkpt lat="44.98984" lon="5.4755">
        <ele>1361.7</ele>
        <time>2021-08-31T15:22:21Z</time>
      </trkpt>
      <trkpt lat="44.98983" lon="5.47548">
        <ele>1361.7</ele>
        <time>2021-08-31T15:22:22Z</time>
      </trkpt>
      <trkpt lat="44.98983" lon="5.47544">
        <ele>1361.9</ele>
        <time>2021-08-31T15:22:24Z</time>
      </trkpt>
      <trkpt lat="44.98981" lon="5.47541">
        <ele>1362</ele>
        <time>2021-08-31T15:22:25Z</time>
      </trkpt>
      <trkpt lat="44.9898" lon="5.47537">
        <ele>1362.2</ele>
        <time>2021-08-31T15:22:26Z</time>
      </trkpt>
      <trkpt lat="44.9898" lon="5.47534">
        <ele>1362.4</ele>
        <time>2021-08-31T15:22:28Z</time>
      </trkpt>
      <trkpt lat="44.9898" lon="5.47529">
        <ele>1362.6</ele>
        <time>2021-08-31T15:22:29Z</time>
      </trkpt>
      <trkpt lat="44.9898" lon="5.47526">
        <ele>1362.7</ele>
        <time>2021-08-31T15:22:30Z</time>
      </trkpt>
      <trkpt lat="44.98981" lon="5.47522">
        <ele>1362.9</ele>
        <time>2021-08-31T15:22:32Z</time>
      </trkpt>
      <trkpt lat="44.98981" lon="5.47519">
        <ele>1363</ele>
        <time>2021-08-31T15:22:33Z</time>
      </trkpt>
      <trkpt lat="44.98982" lon="5.47514">
        <ele>1363.2</ele>
        <time>2021-08-31T15:22:35Z</time>
      </trkpt>
      <trkpt lat="44.98983" lon="5.4751">
        <ele>1363.4</ele>
        <time>2021-08-31T15:22:36Z</time>
      </trkpt>
      <trkpt lat="44.98983" lon="5.47506">
        <ele>1363.6</ele>
        <time>2021-08-31T15:22:38Z</time>
      </trkpt>
      <trkpt lat="44.98983" lon="5.47502">
        <ele>1363.8</ele>
        <time>2021-08-31T15:22:39Z</time>
      </trkpt>
      <trkpt lat="44.98983" lon="5.47499">
        <ele>1363.9</ele>
        <time>2021-08-31T15:22:40Z</time>
      </trkpt>
      <trkpt lat="44.98982" lon="5.47496">
        <ele>1364.1</ele>
        <time>2021-08-31T15:22:42Z</time>
      </trkpt>
      <trkpt lat="44.98981" lon="5.47492">
        <ele>1364.3</ele>
        <time>2021-08-31T15:22:43Z</time>
      </trkpt>
      <trkpt lat="44.9898" lon="5.47491">
        <ele>1364.3</ele>
        <time>2021-08-31T15:22:44Z</time>
      </trkpt>
      <trkpt lat="44.98979" lon="5.47489">
        <ele>1364.4</ele>
        <time>2021-08-31T15:22:45Z</time>
      </trkpt>
      <trkpt lat="44.98978" lon="5.47486">
        <ele>1364.6</ele>
        <time>2021-08-31T15:22:47Z</time>
      </trkpt>
      <trkpt lat="44.98977" lon="5.47484">
        <ele>1364.6</ele>
        <time>2021-08-31T15:22:48Z</time>
      </trkpt>
      <trkpt lat="44.98976" lon="5.47483">
        <ele>1364.7</ele>
        <time>2021-08-31T15:22:49Z</time>
      </trkpt>
      <trkpt lat="44.98976" lon="5.47482">
        <ele>1364.8</ele>
        <time>2021-08-31T15:22:50Z</time>
      </trkpt>
      <trkpt lat="44.98975" lon="5.47481">
        <ele>1364.8</ele>
        <time>2021-08-31T15:22:51Z</time>
      </trkpt>
      <trkpt lat="44.98974" lon="5.47479">
        <ele>1364.9</ele>
        <time>2021-08-31T15:22:52Z</time>
      </trkpt>
      <trkpt lat="44.98972" lon="5.47477">
        <ele>1365.1</ele>
        <time>2021-08-31T15:22:54Z</time>
      </trkpt>
      <trkpt lat="44.98971" lon="5.47475">
        <ele>1365.2</ele>
        <time>2021-08-31T15:22:55Z</time>
      </trkpt>
      <trkpt lat="44.98969" lon="5.47473">
        <ele>1365.3</ele>
        <time>2021-08-31T15:22:57Z</time>
      </trkpt>
      <trkpt lat="44.98967" lon="5.4747">
        <ele>1365.5</ele>
        <time>2021-08-31T15:22:58Z</time>
      </trkpt>
      <trkpt lat="44.98966" lon="5.4747">
        <ele>1365.5</ele>
        <time>2021-08-31T15:22:59Z</time>
      </trkpt>
      <trkpt lat="44.98964" lon="5.47467">
        <ele>1365.7</ele>
        <time>2021-08-31T15:23:00Z</time>
      </trkpt>
      <trkpt lat="44.98963" lon="5.47466">
        <ele>1365.8</ele>
        <time>2021-08-31T15:23:01Z</time>
      </trkpt>
      <trkpt lat="44.98961" lon="5.47465">
        <ele>1365.9</ele>
        <time>2021-08-31T15:23:03Z</time>
      </trkpt>
      <trkpt lat="44.98957" lon="5.47465">
        <ele>1366.1</ele>
        <time>2021-08-31T15:23:05Z</time>
      </trkpt>
      <trkpt lat="44.98954" lon="5.47463">
        <ele>1366.3</ele>
        <time>2021-08-31T15:23:06Z</time>
      </trkpt>
      <trkpt lat="44.9895" lon="5.47463">
        <ele>1366.5</ele>
        <time>2021-08-31T15:23:08Z</time>
      </trkpt>
      <trkpt lat="44.98948" lon="5.47464">
        <ele>1366.6</ele>
        <time>2021-08-31T15:23:09Z</time>
      </trkpt>
      <trkpt lat="44.98947" lon="5.47463">
        <ele>1366.7</ele>
        <time>2021-08-31T15:23:10Z</time>
      </trkpt>
      <trkpt lat="44.98946" lon="5.47462">
        <ele>1366.7</ele>
        <time>2021-08-31T15:23:11Z</time>
      </trkpt>
      <trkpt lat="44.98944" lon="5.47461">
        <ele>1366.8</ele>
        <time>2021-08-31T15:23:12Z</time>
      </trkpt>
      <trkpt lat="44.98941" lon="5.47457">
        <ele>1367</ele>
        <time>2021-08-31T15:23:14Z</time>
      </trkpt>
      <trkpt lat="44.98939" lon="5.47455">
        <ele>1367.1</ele>
        <time>2021-08-31T15:23:15Z</time>
      </trkpt>
      <trkpt lat="44.98938" lon="5.47454">
        <ele>1367.2</ele>
        <time>2021-08-31T15:23:16Z</time>
      </trkpt>
      <trkpt lat="44.98935" lon="5.47451">
        <ele>1367.4</ele>
        <time>2021-08-31T15:23:18Z</time>
      </trkpt>
      <trkpt lat="44.98931" lon="5.47449">
        <ele>1367.5</ele>
        <time>2021-08-31T15:23:19Z</time>
      </trkpt>
      <trkpt lat="44.98929" lon="5.47447">
        <ele>1367.6</ele>
        <time>2021-08-31T15:23:20Z</time>
      </trkpt>
      <trkpt lat="44.98926" lon="5.47445">
        <ele>1367.8</ele>
        <time>2021-08-31T15:23:22Z</time>
      </trkpt>
      <trkpt lat="44.98921" lon="5.47442">
        <ele>1368</ele>
        <time>2021-08-31T15:23:24Z</time>
      </trkpt>
      <trkpt lat="44.98919" lon="5.47439">
        <ele>1368.2</ele>
        <time>2021-08-31T15:23:25Z</time>
      </trkpt>
      <trkpt lat="44.98918" lon="5.47439">
        <ele>1368.2</ele>
        <time>2021-08-31T15:23:26Z</time>
      </trkpt>
      <trkpt lat="44.98914" lon="5.47436">
        <ele>1368.4</ele>
        <time>2021-08-31T15:23:27Z</time>
      </trkpt>
      <trkpt lat="44.98911" lon="5.47435">
        <ele>1368.6</ele>
        <time>2021-08-31T15:23:29Z</time>
      </trkpt>
      <trkpt lat="44.98911" lon="5.47435">
        <ele>1368.6</ele>
        <time>2021-08-31T15:23:30Z</time>
      </trkpt>
      <trkpt lat="44.98907" lon="5.47434">
        <ele>1368.8</ele>
        <time>2021-08-31T15:23:32Z</time>
      </trkpt>
      <trkpt lat="44.98902" lon="5.47432">
        <ele>1369.1</ele>
        <time>2021-08-31T15:23:33Z</time>
      </trkpt>
      <trkpt lat="44.98897" lon="5.47429">
        <ele>1369.3</ele>
        <time>2021-08-31T15:23:34Z</time>
      </trkpt>
      <trkpt lat="44.98893" lon="5.47427">
        <ele>1369.5</ele>
        <time>2021-08-31T15:23:36Z</time>
      </trkpt>
      <trkpt lat="44.98889" lon="5.47426">
        <ele>1369.7</ele>
        <time>2021-08-31T15:23:37Z</time>
      </trkpt>
      <trkpt lat="44.98886" lon="5.47426">
        <ele>1369.8</ele>
        <time>2021-08-31T15:23:38Z</time>
      </trkpt>
      <trkpt lat="44.98882" lon="5.47427">
        <ele>1370</ele>
        <time>2021-08-31T15:23:40Z</time>
      </trkpt>
      <trkpt lat="44.9888" lon="5.47428">
        <ele>1370</ele>
        <time>2021-08-31T15:23:41Z</time>
      </trkpt>
      <trkpt lat="44.98879" lon="5.47429">
        <ele>1370.1</ele>
        <time>2021-08-31T15:23:42Z</time>
      </trkpt>
      <trkpt lat="44.98877" lon="5.47429">
        <ele>1370.2</ele>
        <time>2021-08-31T15:23:44Z</time>
      </trkpt>
      <trkpt lat="44.98876" lon="5.47428">
        <ele>1370.2</ele>
        <time>2021-08-31T15:23:45Z</time>
      </trkpt>
      <trkpt lat="44.98875" lon="5.47428">
        <ele>1370.2</ele>
        <time>2021-08-31T15:23:47Z</time>
      </trkpt>
      <trkpt lat="44.98873" lon="5.47426">
        <ele>1370.3</ele>
        <time>2021-08-31T15:23:48Z</time>
      </trkpt>
      <trkpt lat="44.98871" lon="5.47426">
        <ele>1370.4</ele>
        <time>2021-08-31T15:23:49Z</time>
      </trkpt>
      <trkpt lat="44.98867" lon="5.47425">
        <ele>1370.5</ele>
        <time>2021-08-31T15:23:51Z</time>
      </trkpt>
      <trkpt lat="44.98863" lon="5.47423">
        <ele>1370.6</ele>
        <time>2021-08-31T15:23:52Z</time>
      </trkpt>
      <trkpt lat="44.98862" lon="5.47423">
        <ele>1370.6</ele>
        <time>2021-08-31T15:23:53Z</time>
      </trkpt>
      <trkpt lat="44.98857" lon="5.47423">
        <ele>1370.6</ele>
        <time>2021-08-31T15:23:55Z</time>
      </trkpt>
      <trkpt lat="44.98854" lon="5.47423">
        <ele>1370.6</ele>
        <time>2021-08-31T15:23:57Z</time>
      </trkpt>
      <trkpt lat="44.98852" lon="5.47422">
        <ele>1370.6</ele>
        <time>2021-08-31T15:23:58Z</time>
      </trkpt>
      <trkpt lat="44.9885" lon="5.4742">
        <ele>1370.6</ele>
        <time>2021-08-31T15:24:00Z</time>
      </trkpt>
      <trkpt lat="44.98849" lon="5.47419">
        <ele>1370.6</ele>
        <time>2021-08-31T15:24:01Z</time>
      </trkpt>
      <trkpt lat="44.98847" lon="5.47418">
        <ele>1370.5</ele>
        <time>2021-08-31T15:24:02Z</time>
      </trkpt>
      <trkpt lat="44.98845" lon="5.47416">
        <ele>1370.5</ele>
        <time>2021-08-31T15:24:04Z</time>
      </trkpt>
      <trkpt lat="44.98844" lon="5.47415">
        <ele>1370.5</ele>
        <time>2021-08-31T15:24:05Z</time>
      </trkpt>
      <trkpt lat="44.98843" lon="5.47411">
        <ele>1370.4</ele>
        <time>2021-08-31T15:24:07Z</time>
      </trkpt>
      <trkpt lat="44.98842" lon="5.47408">
        <ele>1370.2</ele>
        <time>2021-08-31T15:24:08Z</time>
      </trkpt>
      <trkpt lat="44.98842" lon="5.47406">
        <ele>1370.2</ele>
        <time>2021-08-31T15:24:10Z</time>
      </trkpt>
      <trkpt lat="44.98842" lon="5.47404">
        <ele>1370.1</ele>
        <time>2021-08-31T15:24:12Z</time>
      </trkpt>
      <trkpt lat="44.98842" lon="5.47401">
        <ele>1370</ele>
        <time>2021-08-31T15:24:14Z</time>
      </trkpt>
      <trkpt lat="44.9884" lon="5.47399">
        <ele>1369.9</ele>
        <time>2021-08-31T15:24:15Z</time>
      </trkpt>
      <trkpt lat="44.98839" lon="5.47399">
        <ele>1369.9</ele>
        <time>2021-08-31T15:24:17Z</time>
      </trkpt>
      <trkpt lat="44.98838" lon="5.47399">
        <ele>1369.9</ele>
        <time>2021-08-31T15:24:18Z</time>
      </trkpt>
      <trkpt lat="44.98837" lon="5.47399">
        <ele>1369.8</ele>
        <time>2021-08-31T15:24:20Z</time>
      </trkpt>
      <trkpt lat="44.98837" lon="5.47399">
        <ele>1369.8</ele>
        <time>2021-08-31T15:24:21Z</time>
      </trkpt>
      <trkpt lat="44.98837" lon="5.47398">
        <ele>1369.8</ele>
        <time>2021-08-31T15:24:22Z</time>
      </trkpt>
      <trkpt lat="44.98837" lon="5.47398">
        <ele>1369.8</ele>
        <time>2021-08-31T15:24:23Z</time>
      </trkpt>
      <trkpt lat="44.98836" lon="5.47398">
        <ele>1369.8</ele>
        <time>2021-08-31T15:24:25Z</time>
      </trkpt>
      <trkpt lat="44.98825" lon="5.47398">
        <ele>1369.3</ele>
        <time>2021-08-31T15:24:32Z</time>
      </trkpt>
      <trkpt lat="44.98822" lon="5.474">
        <ele>1369.2</ele>
        <time>2021-08-31T15:24:34Z</time>
      </trkpt>
      <trkpt lat="44.98819" lon="5.47402">
        <ele>1369.1</ele>
        <time>2021-08-31T15:24:35Z</time>
      </trkpt>
      <trkpt lat="44.98816" lon="5.47404">
        <ele>1369</ele>
        <time>2021-08-31T15:24:36Z</time>
      </trkpt>
      <trkpt lat="44.98814" lon="5.47406">
        <ele>1368.9</ele>
        <time>2021-08-31T15:24:37Z</time>
      </trkpt>
      <trkpt lat="44.98812" lon="5.47408">
        <ele>1368.9</ele>
        <time>2021-08-31T15:24:38Z</time>
      </trkpt>
      <trkpt lat="44.98808" lon="5.47409">
        <ele>1368.8</ele>
        <time>2021-08-31T15:24:40Z</time>
      </trkpt>
      <trkpt lat="44.98806" lon="5.47409">
        <ele>1368.8</ele>
        <time>2021-08-31T15:24:41Z</time>
      </trkpt>
      <trkpt lat="44.98805" lon="5.4741">
        <ele>1368.8</ele>
        <time>2021-08-31T15:24:42Z</time>
      </trkpt>
      <trkpt lat="44.98806" lon="5.47412">
        <ele>1368.8</ele>
        <time>2021-08-31T15:24:44Z</time>
      </trkpt>
      <trkpt lat="44.98805" lon="5.47415">
        <ele>1368.7</ele>
        <time>2021-08-31T15:24:45Z</time>
      </trkpt>
      <trkpt lat="44.98803" lon="5.47416">
        <ele>1368.7</ele>
        <time>2021-08-31T15:24:46Z</time>
      </trkpt>
      <trkpt lat="44.98801" lon="5.47416">
        <ele>1368.7</ele>
        <time>2021-08-31T15:24:48Z</time>
      </trkpt>
      <trkpt lat="44.988" lon="5.47415">
        <ele>1368.7</ele>
        <time>2021-08-31T15:24:49Z</time>
      </trkpt>
      <trkpt lat="44.988" lon="5.47414">
        <ele>1368.7</ele>
        <time>2021-08-31T15:24:50Z</time>
      </trkpt>
      <trkpt lat="44.98799" lon="5.4741">
        <ele>1368.8</ele>
        <time>2021-08-31T15:24:51Z</time>
      </trkpt>
      <trkpt lat="44.98797" lon="5.47407">
        <ele>1368.8</ele>
        <time>2021-08-31T15:24:53Z</time>
      </trkpt>
      <trkpt lat="44.98794" lon="5.47402">
        <ele>1368.9</ele>
        <time>2021-08-31T15:24:54Z</time>
      </trkpt>
      <trkpt lat="44.98791" lon="5.47399">
        <ele>1368.9</ele>
        <time>2021-08-31T15:24:55Z</time>
      </trkpt>
      <trkpt lat="44.98787" lon="5.47395">
        <ele>1368.9</ele>
        <time>2021-08-31T15:24:56Z</time>
      </trkpt>
      <trkpt lat="44.98781" lon="5.47386">
        <ele>1364.1</ele>
        <time>2021-08-31T15:24:58Z</time>
      </trkpt>
      <trkpt lat="44.98773" lon="5.47379">
        <ele>1363.5</ele>
        <time>2021-08-31T15:24:59Z</time>
      </trkpt>
      <trkpt lat="44.98765" lon="5.47367">
        <ele>1363.1</ele>
        <time>2021-08-31T15:25:01Z</time>
      </trkpt>
      <trkpt lat="44.98761" lon="5.47361">
        <ele>1362.9</ele>
        <time>2021-08-31T15:25:02Z</time>
      </trkpt>
      <trkpt lat="44.98758" lon="5.47354">
        <ele>1362.7</ele>
        <time>2021-08-31T15:25:03Z</time>
      </trkpt>
      <trkpt lat="44.98751" lon="5.47343">
        <ele>1362.4</ele>
        <time>2021-08-31T15:25:05Z</time>
      </trkpt>
      <trkpt lat="44.98747" lon="5.47335">
        <ele>1362.3</ele>
        <time>2021-08-31T15:25:07Z</time>
      </trkpt>
      <trkpt lat="44.98745" lon="5.47331">
        <ele>1362.2</ele>
        <time>2021-08-31T15:25:08Z</time>
      </trkpt>
      <trkpt lat="44.98742" lon="5.4732">
        <ele>1362</ele>
        <time>2021-08-31T15:25:09Z</time>
      </trkpt>
      <trkpt lat="44.98738" lon="5.47312">
        <ele>1361.8</ele>
        <time>2021-08-31T15:25:11Z</time>
      </trkpt>
      <trkpt lat="44.98735" lon="5.47307">
        <ele>1361.7</ele>
        <time>2021-08-31T15:25:12Z</time>
      </trkpt>
      <trkpt lat="44.98733" lon="5.47304">
        <ele>1361.6</ele>
        <time>2021-08-31T15:25:13Z</time>
      </trkpt>
      <trkpt lat="44.9873" lon="5.47297">
        <ele>1361.4</ele>
        <time>2021-08-31T15:25:15Z</time>
      </trkpt>
      <trkpt lat="44.98727" lon="5.47289">
        <ele>1361.2</ele>
        <time>2021-08-31T15:25:16Z</time>
      </trkpt>
      <trkpt lat="44.98724" lon="5.47282">
        <ele>1361.2</ele>
        <time>2021-08-31T15:25:18Z</time>
      </trkpt>
      <trkpt lat="44.98721" lon="5.4728">
        <ele>1361.2</ele>
        <time>2021-08-31T15:25:19Z</time>
      </trkpt>
      <trkpt lat="44.9872" lon="5.47279">
        <ele>1361.2</ele>
        <time>2021-08-31T15:25:20Z</time>
      </trkpt>
      <trkpt lat="44.98718" lon="5.47278">
        <ele>1361.3</ele>
        <time>2021-08-31T15:25:21Z</time>
      </trkpt>
      <trkpt lat="44.98716" lon="5.47277">
        <ele>1361.4</ele>
        <time>2021-08-31T15:25:23Z</time>
      </trkpt>
      <trkpt lat="44.98713" lon="5.47276">
        <ele>1361.6</ele>
        <time>2021-08-31T15:25:24Z</time>
      </trkpt>
      <trkpt lat="44.9871" lon="5.47276">
        <ele>1361.8</ele>
        <time>2021-08-31T15:25:26Z</time>
      </trkpt>
      <trkpt lat="44.98708" lon="5.47277">
        <ele>1362.1</ele>
        <time>2021-08-31T15:25:27Z</time>
      </trkpt>
      <trkpt lat="44.98707" lon="5.47277">
        <ele>1362.1</ele>
        <time>2021-08-31T15:25:28Z</time>
      </trkpt>
      <trkpt lat="44.98705" lon="5.47277">
        <ele>1362.4</ele>
        <time>2021-08-31T15:25:30Z</time>
      </trkpt>
      <trkpt lat="44.98676" lon="5.47239">
        <ele>1371.5</ele>
        <time>2021-08-31T15:26:24Z</time>
      </trkpt>
      <trkpt lat="44.98674" lon="5.47237">
        <ele>1371.9</ele>
        <time>2021-08-31T15:26:25Z</time>
      </trkpt>
      <trkpt lat="44.98671" lon="5.47234">
        <ele>1372.6</ele>
        <time>2021-08-31T15:26:27Z</time>
      </trkpt>
      <trkpt lat="44.9867" lon="5.47232">
        <ele>1372.9</ele>
        <time>2021-08-31T15:26:28Z</time>
      </trkpt>
      <trkpt lat="44.9867" lon="5.47225">
        <ele>1373.9</ele>
        <time>2021-08-31T15:26:30Z</time>
      </trkpt>
      <trkpt lat="44.9867" lon="5.47221">
        <ele>1374.5</ele>
        <time>2021-08-31T15:26:31Z</time>
      </trkpt>
      <trkpt lat="44.9867" lon="5.4722">
        <ele>1374.6</ele>
        <time>2021-08-31T15:26:32Z</time>
      </trkpt>
      <trkpt lat="44.9867" lon="5.4722">
        <ele>1374.7</ele>
        <time>2021-08-31T15:26:34Z</time>
      </trkpt>
      <trkpt lat="44.98671" lon="5.4722">
        <ele>1374.8</ele>
        <time>2021-08-31T15:26:35Z</time>
      </trkpt>
      <trkpt lat="44.98673" lon="5.47219">
        <ele>1375.2</ele>
        <time>2021-08-31T15:26:36Z</time>
      </trkpt>
      <trkpt lat="44.98674" lon="5.47219">
        <ele>1375.4</ele>
        <time>2021-08-31T15:26:38Z</time>
      </trkpt>
      <trkpt lat="44.98675" lon="5.47219">
        <ele>1375.6</ele>
        <time>2021-08-31T15:26:39Z</time>
      </trkpt>
      <trkpt lat="44.98675" lon="5.47218">
        <ele>1375.8</ele>
        <time>2021-08-31T15:26:40Z</time>
      </trkpt>
      <trkpt lat="44.98675" lon="5.47217">
        <ele>1375.8</ele>
        <time>2021-08-31T15:26:42Z</time>
      </trkpt>
      <trkpt lat="44.98684" lon="5.47194">
        <ele>1378.2</ele>
        <time>2021-08-31T15:26:56Z</time>
      </trkpt>
      <trkpt lat="44.98684" lon="5.47193">
        <ele>1378.3</ele>
        <time>2021-08-31T15:26:57Z</time>
      </trkpt>
      <trkpt lat="44.98676" lon="5.4719">
        <ele>1378.4</ele>
        <time>2021-08-31T15:26:59Z</time>
      </trkpt>
      <trkpt lat="44.98673" lon="5.4719">
        <ele>1378.4</ele>
        <time>2021-08-31T15:27:01Z</time>
      </trkpt>
      <trkpt lat="44.98671" lon="5.47189">
        <ele>1378.4</ele>
        <time>2021-08-31T15:27:03Z</time>
      </trkpt>
      <trkpt lat="44.9867" lon="5.47189">
        <ele>1378.4</ele>
        <time>2021-08-31T15:27:05Z</time>
      </trkpt>
      <trkpt lat="44.9867" lon="5.47187">
        <ele>1378.4</ele>
        <time>2021-08-31T15:27:07Z</time>
      </trkpt>
      <trkpt lat="44.98665" lon="5.47161">
        <ele>1379.5</ele>
        <time>2021-08-31T15:29:07Z</time>
      </trkpt>
      <trkpt lat="44.98652" lon="5.47155">
        <ele>1381.6</ele>
        <time>2021-08-31T15:29:10Z</time>
      </trkpt>
      <trkpt lat="44.98647" lon="5.47149">
        <ele>1382.6</ele>
        <time>2021-08-31T15:29:12Z</time>
      </trkpt>
      <trkpt lat="44.98647" lon="5.47145">
        <ele>1383</ele>
        <time>2021-08-31T15:29:13Z</time>
      </trkpt>
      <trkpt lat="44.98649" lon="5.47141">
        <ele>1383.4</ele>
        <time>2021-08-31T15:29:15Z</time>
      </trkpt>
      <trkpt lat="44.98651" lon="5.47136">
        <ele>1383.9</ele>
        <time>2021-08-31T15:29:16Z</time>
      </trkpt>
      <trkpt lat="44.98652" lon="5.47133">
        <ele>1384</ele>
        <time>2021-08-31T15:29:18Z</time>
      </trkpt>
      <trkpt lat="44.98652" lon="5.47132">
        <ele>1384.1</ele>
        <time>2021-08-31T15:29:19Z</time>
      </trkpt>
      <trkpt lat="44.98653" lon="5.47131">
        <ele>1384.2</ele>
        <time>2021-08-31T15:29:20Z</time>
      </trkpt>
      <trkpt lat="44.98653" lon="5.47128">
        <ele>1384.3</ele>
        <time>2021-08-31T15:29:21Z</time>
      </trkpt>
      <trkpt lat="44.98653" lon="5.47128">
        <ele>1384.3</ele>
        <time>2021-08-31T15:29:23Z</time>
      </trkpt>
      <trkpt lat="44.98653" lon="5.47127">
        <ele>1384.3</ele>
        <time>2021-08-31T15:29:42Z</time>
      </trkpt>
      <trkpt lat="44.98653" lon="5.47127">
        <ele>1384.4</ele>
        <time>2021-08-31T15:29:43Z</time>
      </trkpt>
      <trkpt lat="44.98653" lon="5.47127">
        <ele>1384.4</ele>
        <time>2021-08-31T15:29:44Z</time>
      </trkpt>
      <trkpt lat="44.98653" lon="5.47126">
        <ele>1384.4</ele>
        <time>2021-08-31T15:29:46Z</time>
      </trkpt>
      <trkpt lat="44.98653" lon="5.47126">
        <ele>1384.4</ele>
        <time>2021-08-31T15:29:47Z</time>
      </trkpt>
      <trkpt lat="44.98652" lon="5.47126">
        <ele>1384.4</ele>
        <time>2021-08-31T15:29:48Z</time>
      </trkpt>
      <trkpt lat="44.98652" lon="5.47125">
        <ele>1384.4</ele>
        <time>2021-08-31T15:29:49Z</time>
      </trkpt>
      <trkpt lat="44.98652" lon="5.47127">
        <ele>1384.5</ele>
        <time>2021-08-31T15:29:51Z</time>
      </trkpt>
      <trkpt lat="44.98649" lon="5.47129">
        <ele>1384.6</ele>
        <time>2021-08-31T15:29:52Z</time>
      </trkpt>
      <trkpt lat="44.98597" lon="5.471">
        <ele>1386.6</ele>
        <time>2021-08-31T15:30:30Z</time>
      </trkpt>
      <trkpt lat="44.98593" lon="5.47098">
        <ele>1386.9</ele>
        <time>2021-08-31T15:30:32Z</time>
      </trkpt>
      <trkpt lat="44.98589" lon="5.47097">
        <ele>1387.2</ele>
        <time>2021-08-31T15:30:33Z</time>
      </trkpt>
      <trkpt lat="44.98584" lon="5.47096">
        <ele>1387.5</ele>
        <time>2021-08-31T15:30:35Z</time>
      </trkpt>
      <trkpt lat="44.98581" lon="5.47094">
        <ele>1387.8</ele>
        <time>2021-08-31T15:30:36Z</time>
      </trkpt>
      <trkpt lat="44.98577" lon="5.47092">
        <ele>1388.2</ele>
        <time>2021-08-31T15:30:38Z</time>
      </trkpt>
      <trkpt lat="44.98574" lon="5.47089">
        <ele>1388.5</ele>
        <time>2021-08-31T15:30:39Z</time>
      </trkpt>
      <trkpt lat="44.98573" lon="5.47089">
        <ele>1388.5</ele>
        <time>2021-08-31T15:30:40Z</time>
      </trkpt>
      <trkpt lat="44.98572" lon="5.47088">
        <ele>1388.7</ele>
        <time>2021-08-31T15:30:41Z</time>
      </trkpt>
      <trkpt lat="44.98571" lon="5.47085">
        <ele>1388.8</ele>
        <time>2021-08-31T15:30:43Z</time>
      </trkpt>
      <trkpt lat="44.9857" lon="5.47085">
        <ele>1388.9</ele>
        <time>2021-08-31T15:30:44Z</time>
      </trkpt>
      <trkpt lat="44.98569" lon="5.47085">
        <ele>1389</ele>
        <time>2021-08-31T15:30:45Z</time>
      </trkpt>
      <trkpt lat="44.98568" lon="5.47085">
        <ele>1389.1</ele>
        <time>2021-08-31T15:30:46Z</time>
      </trkpt>
      <trkpt lat="44.98567" lon="5.47085">
        <ele>1389.1</ele>
        <time>2021-08-31T15:30:48Z</time>
      </trkpt>
      <trkpt lat="44.98566" lon="5.47084">
        <ele>1389.2</ele>
        <time>2021-08-31T15:30:49Z</time>
      </trkpt>
      <trkpt lat="44.98565" lon="5.47084">
        <ele>1389.3</ele>
        <time>2021-08-31T15:30:50Z</time>
      </trkpt>
      <trkpt lat="44.98564" lon="5.47083">
        <ele>1389.3</ele>
        <time>2021-08-31T15:30:51Z</time>
      </trkpt>
      <trkpt lat="44.9852" lon="5.47046">
        <ele>1388.5</ele>
        <time>2021-08-31T15:31:24Z</time>
      </trkpt>
      <trkpt lat="44.98514" lon="5.47042">
        <ele>1388.3</ele>
        <time>2021-08-31T15:31:26Z</time>
      </trkpt>
      <trkpt lat="44.98509" lon="5.4704">
        <ele>1388.3</ele>
        <time>2021-08-31T15:31:27Z</time>
      </trkpt>
      <trkpt lat="44.98494" lon="5.47028">
        <ele>1389</ele>
        <time>2021-08-31T15:31:29Z</time>
      </trkpt>
      <trkpt lat="44.98489" lon="5.47023">
        <ele>1389.4</ele>
        <time>2021-08-31T15:31:31Z</time>
      </trkpt>
      <trkpt lat="44.98488" lon="5.47021">
        <ele>1389.6</ele>
        <time>2021-08-31T15:31:32Z</time>
      </trkpt>
      <trkpt lat="44.98484" lon="5.47017">
        <ele>1389.8</ele>
        <time>2021-08-31T15:31:34Z</time>
      </trkpt>
      <trkpt lat="44.98483" lon="5.47015">
        <ele>1389.9</ele>
        <time>2021-08-31T15:31:35Z</time>
      </trkpt>
      <trkpt lat="44.98481" lon="5.47013">
        <ele>1390</ele>
        <time>2021-08-31T15:31:37Z</time>
      </trkpt>
      <trkpt lat="44.9848" lon="5.47012">
        <ele>1390.1</ele>
        <time>2021-08-31T15:31:38Z</time>
      </trkpt>
      <trkpt lat="44.98479" lon="5.4701">
        <ele>1390.1</ele>
        <time>2021-08-31T15:31:39Z</time>
      </trkpt>
      <trkpt lat="44.98478" lon="5.47007">
        <ele>1390.2</ele>
        <time>2021-08-31T15:31:40Z</time>
      </trkpt>
      <trkpt lat="44.98477" lon="5.47005">
        <ele>1390.3</ele>
        <time>2021-08-31T15:31:42Z</time>
      </trkpt>
      <trkpt lat="44.98475" lon="5.47002">
        <ele>1390.3</ele>
        <time>2021-08-31T15:31:43Z</time>
      </trkpt>
      <trkpt lat="44.98473" lon="5.46998">
        <ele>1390.3</ele>
        <time>2021-08-31T15:31:45Z</time>
      </trkpt>
      <trkpt lat="44.98472" lon="5.46994">
        <ele>1390.4</ele>
        <time>2021-08-31T15:31:46Z</time>
      </trkpt>
      <trkpt lat="44.98472" lon="5.46991">
        <ele>1390.4</ele>
        <time>2021-08-31T15:31:47Z</time>
      </trkpt>
      <trkpt lat="44.98471" lon="5.46988">
        <ele>1390.4</ele>
        <time>2021-08-31T15:31:49Z</time>
      </trkpt>
      <trkpt lat="44.98469" lon="5.46981">
        <ele>1390.4</ele>
        <time>2021-08-31T15:31:51Z</time>
      </trkpt>
      <trkpt lat="44.98466" lon="5.46974">
        <ele>1390.4</ele>
        <time>2021-08-31T15:31:53Z</time>
      </trkpt>
      <trkpt lat="44.98463" lon="5.46966">
        <ele>1390.4</ele>
        <time>2021-08-31T15:31:54Z</time>
      </trkpt>
      <trkpt lat="44.9846" lon="5.46958">
        <ele>1390.4</ele>
        <time>2021-08-31T15:31:56Z</time>
      </trkpt>
      <trkpt lat="44.98457" lon="5.46951">
        <ele>1390.4</ele>
        <time>2021-08-31T15:31:57Z</time>
      </trkpt>
      <trkpt lat="44.98455" lon="5.46943">
        <ele>1390.4</ele>
        <time>2021-08-31T15:31:59Z</time>
      </trkpt>
      <trkpt lat="44.98455" lon="5.46934">
        <ele>1390.4</ele>
        <time>2021-08-31T15:32:01Z</time>
      </trkpt>
      <trkpt lat="44.98455" lon="5.46929">
        <ele>1390.5</ele>
        <time>2021-08-31T15:32:02Z</time>
      </trkpt>
      <trkpt lat="44.98455" lon="5.46923">
        <ele>1390.6</ele>
        <time>2021-08-31T15:32:03Z</time>
      </trkpt>
      <trkpt lat="44.98454" lon="5.46919">
        <ele>1390.6</ele>
        <time>2021-08-31T15:32:04Z</time>
      </trkpt>
      <trkpt lat="44.98453" lon="5.46915">
        <ele>1390.7</ele>
        <time>2021-08-31T15:32:05Z</time>
      </trkpt>
      <trkpt lat="44.98452" lon="5.46914">
        <ele>1390.7</ele>
        <time>2021-08-31T15:32:06Z</time>
      </trkpt>
      <trkpt lat="44.98452" lon="5.46911">
        <ele>1390.8</ele>
        <time>2021-08-31T15:32:07Z</time>
      </trkpt>
      <trkpt lat="44.98451" lon="5.46907">
        <ele>1390.8</ele>
        <time>2021-08-31T15:32:09Z</time>
      </trkpt>
      <trkpt lat="44.9845" lon="5.46904">
        <ele>1390.8</ele>
        <time>2021-08-31T15:32:10Z</time>
      </trkpt>
      <trkpt lat="44.98448" lon="5.46899">
        <ele>1390.9</ele>
        <time>2021-08-31T15:32:12Z</time>
      </trkpt>
      <trkpt lat="44.98446" lon="5.46893">
        <ele>1390.8</ele>
        <time>2021-08-31T15:32:13Z</time>
      </trkpt>
      <trkpt lat="44.98445" lon="5.46888">
        <ele>1390.8</ele>
        <time>2021-08-31T15:32:14Z</time>
      </trkpt>
      <trkpt lat="44.98444" lon="5.46882">
        <ele>1390.8</ele>
        <time>2021-08-31T15:32:16Z</time>
      </trkpt>
      <trkpt lat="44.98442" lon="5.46875">
        <ele>1390.7</ele>
        <time>2021-08-31T15:32:18Z</time>
      </trkpt>
      <trkpt lat="44.9844" lon="5.46868">
        <ele>1390.5</ele>
        <time>2021-08-31T15:32:19Z</time>
      </trkpt>
      <trkpt lat="44.98439" lon="5.46861">
        <ele>1390.3</ele>
        <time>2021-08-31T15:32:20Z</time>
      </trkpt>
      <trkpt lat="44.98437" lon="5.46853">
        <ele>1390</ele>
        <time>2021-08-31T15:32:22Z</time>
      </trkpt>
      <trkpt lat="44.98435" lon="5.46845">
        <ele>1389.8</ele>
        <time>2021-08-31T15:32:23Z</time>
      </trkpt>
      <trkpt lat="44.98434" lon="5.46839">
        <ele>1389.8</ele>
        <time>2021-08-31T15:32:24Z</time>
      </trkpt>
      <trkpt lat="44.98432" lon="5.46835">
        <ele>1389.8</ele>
        <time>2021-08-31T15:32:25Z</time>
      </trkpt>
      <trkpt lat="44.98431" lon="5.46831">
        <ele>1389.9</ele>
        <time>2021-08-31T15:32:26Z</time>
      </trkpt>
      <trkpt lat="44.98431" lon="5.46827">
        <ele>1390.1</ele>
        <time>2021-08-31T15:32:27Z</time>
      </trkpt>
      <trkpt lat="44.9843" lon="5.46824">
        <ele>1390.3</ele>
        <time>2021-08-31T15:32:29Z</time>
      </trkpt>
      <trkpt lat="44.9843" lon="5.46824">
        <ele>1390.3</ele>
        <time>2021-08-31T15:32:30Z</time>
      </trkpt>
      <trkpt lat="44.98431" lon="5.46822">
        <ele>1390.4</ele>
        <time>2021-08-31T15:32:31Z</time>
      </trkpt>
      <trkpt lat="44.98431" lon="5.4682">
        <ele>1390.6</ele>
        <time>2021-08-31T15:32:33Z</time>
      </trkpt>
      <trkpt lat="44.9843" lon="5.46817">
        <ele>1390.8</ele>
        <time>2021-08-31T15:32:34Z</time>
      </trkpt>
      <trkpt lat="44.98429" lon="5.46815">
        <ele>1390.9</ele>
        <time>2021-08-31T15:32:36Z</time>
      </trkpt>
      <trkpt lat="44.98429" lon="5.46813">
        <ele>1391.1</ele>
        <time>2021-08-31T15:32:37Z</time>
      </trkpt>
      <trkpt lat="44.98429" lon="5.46811">
        <ele>1391.3</ele>
        <time>2021-08-31T15:32:38Z</time>
      </trkpt>
      <trkpt lat="44.9843" lon="5.46807">
        <ele>1391.7</ele>
        <time>2021-08-31T15:32:40Z</time>
      </trkpt>
      <trkpt lat="44.98431" lon="5.46804">
        <ele>1391.9</ele>
        <time>2021-08-31T15:32:41Z</time>
      </trkpt>
      <trkpt lat="44.98432" lon="5.46801">
        <ele>1392.1</ele>
        <time>2021-08-31T15:32:43Z</time>
      </trkpt>
      <trkpt lat="44.98432" lon="5.46799">
        <ele>1392.3</ele>
        <time>2021-08-31T15:32:44Z</time>
      </trkpt>
      <trkpt lat="44.98432" lon="5.46797">
        <ele>1392.4</ele>
        <time>2021-08-31T15:32:45Z</time>
      </trkpt>
      <trkpt lat="44.98432" lon="5.46795">
        <ele>1392.6</ele>
        <time>2021-08-31T15:32:47Z</time>
      </trkpt>
      <trkpt lat="44.98432" lon="5.46795">
        <ele>1392.6</ele>
        <time>2021-08-31T15:32:48Z</time>
      </trkpt>
      <trkpt lat="44.98431" lon="5.46794">
        <ele>1392.7</ele>
        <time>2021-08-31T15:32:49Z</time>
      </trkpt>
      <trkpt lat="44.98431" lon="5.46793">
        <ele>1392.7</ele>
        <time>2021-08-31T15:32:51Z</time>
      </trkpt>
      <trkpt lat="44.98431" lon="5.46792">
        <ele>1392.8</ele>
        <time>2021-08-31T15:32:52Z</time>
      </trkpt>
      <trkpt lat="44.98431" lon="5.4679">
        <ele>1392.9</ele>
        <time>2021-08-31T15:32:53Z</time>
      </trkpt>
      <trkpt lat="44.9843" lon="5.46788">
        <ele>1393.1</ele>
        <time>2021-08-31T15:32:55Z</time>
      </trkpt>
      <trkpt lat="44.98416" lon="5.46762">
        <ele>1394.5</ele>
        <time>2021-08-31T15:33:16Z</time>
      </trkpt>
      <trkpt lat="44.98411" lon="5.46757">
        <ele>1394.7</ele>
        <time>2021-08-31T15:33:18Z</time>
      </trkpt>
      <trkpt lat="44.98407" lon="5.46749">
        <ele>1394.8</ele>
        <time>2021-08-31T15:33:20Z</time>
      </trkpt>
      <trkpt lat="44.98406" lon="5.46747">
        <ele>1394.8</ele>
        <time>2021-08-31T15:33:21Z</time>
      </trkpt>
      <trkpt lat="44.98404" lon="5.46742">
        <ele>1394.8</ele>
        <time>2021-08-31T15:33:23Z</time>
      </trkpt>
      <trkpt lat="44.98403" lon="5.46737">
        <ele>1394.8</ele>
        <time>2021-08-31T15:33:24Z</time>
      </trkpt>
      <trkpt lat="44.98403" lon="5.46733">
        <ele>1394.8</ele>
        <time>2021-08-31T15:33:25Z</time>
      </trkpt>
      <trkpt lat="44.98403" lon="5.46726">
        <ele>1394.8</ele>
        <time>2021-08-31T15:33:27Z</time>
      </trkpt>
      <trkpt lat="44.98402" lon="5.46721">
        <ele>1394.8</ele>
        <time>2021-08-31T15:33:28Z</time>
      </trkpt>
      <trkpt lat="44.98402" lon="5.46716">
        <ele>1394.8</ele>
        <time>2021-08-31T15:33:29Z</time>
      </trkpt>
      <trkpt lat="44.98401" lon="5.46711">
        <ele>1394.8</ele>
        <time>2021-08-31T15:33:30Z</time>
      </trkpt>
      <trkpt lat="44.984" lon="5.46704">
        <ele>1394.7</ele>
        <time>2021-08-31T15:33:32Z</time>
      </trkpt>
      <trkpt lat="44.98399" lon="5.46697">
        <ele>1394.5</ele>
        <time>2021-08-31T15:33:33Z</time>
      </trkpt>
      <trkpt lat="44.98397" lon="5.46688">
        <ele>1394.2</ele>
        <time>2021-08-31T15:33:35Z</time>
      </trkpt>
      <trkpt lat="44.98395" lon="5.4668">
        <ele>1393.9</ele>
        <time>2021-08-31T15:33:36Z</time>
      </trkpt>
      <trkpt lat="44.98393" lon="5.46675">
        <ele>1393.7</ele>
        <time>2021-08-31T15:33:37Z</time>
      </trkpt>
      <trkpt lat="44.98391" lon="5.46669">
        <ele>1393.3</ele>
        <time>2021-08-31T15:33:38Z</time>
      </trkpt>
      <trkpt lat="44.98388" lon="5.46664">
        <ele>1392.9</ele>
        <time>2021-08-31T15:33:39Z</time>
      </trkpt>
      <trkpt lat="44.98382" lon="5.46654">
        <ele>1392.1</ele>
        <time>2021-08-31T15:33:41Z</time>
      </trkpt>
      <trkpt lat="44.98378" lon="5.4665">
        <ele>1391.6</ele>
        <time>2021-08-31T15:33:42Z</time>
      </trkpt>
      <trkpt lat="44.98374" lon="5.46643">
        <ele>1391.3</ele>
        <time>2021-08-31T15:33:43Z</time>
      </trkpt>
      <trkpt lat="44.98368" lon="5.46631">
        <ele>1390.5</ele>
        <time>2021-08-31T15:33:45Z</time>
      </trkpt>
      <trkpt lat="44.98359" lon="5.46619">
        <ele>1389.7</ele>
        <time>2021-08-31T15:33:46Z</time>
      </trkpt>
      <trkpt lat="44.98353" lon="5.46608">
        <ele>1388.9</ele>
        <time>2021-08-31T15:33:48Z</time>
      </trkpt>
      <trkpt lat="44.98347" lon="5.46599">
        <ele>1388.1</ele>
        <time>2021-08-31T15:33:50Z</time>
      </trkpt>
      <trkpt lat="44.98343" lon="5.46595">
        <ele>1387.6</ele>
        <time>2021-08-31T15:33:51Z</time>
      </trkpt>
      <trkpt lat="44.98336" lon="5.46587">
        <ele>1386.4</ele>
        <time>2021-08-31T15:33:53Z</time>
      </trkpt>
      <trkpt lat="44.98334" lon="5.46582">
        <ele>1385.9</ele>
        <time>2021-08-31T15:33:55Z</time>
      </trkpt>
      <trkpt lat="44.98332" lon="5.46579">
        <ele>1385.5</ele>
        <time>2021-08-31T15:33:56Z</time>
      </trkpt>
      <trkpt lat="44.98321" lon="5.46569">
        <ele>1384.1</ele>
        <time>2021-08-31T15:33:57Z</time>
      </trkpt>
      <trkpt lat="44.98315" lon="5.46562">
        <ele>1383.3</ele>
        <time>2021-08-31T15:33:58Z</time>
      </trkpt>
      <trkpt lat="44.9831" lon="5.46557">
        <ele>1382.6</ele>
        <time>2021-08-31T15:33:59Z</time>
      </trkpt>
      <trkpt lat="44.98301" lon="5.46551">
        <ele>1381.4</ele>
        <time>2021-08-31T15:34:01Z</time>
      </trkpt>
      <trkpt lat="44.98297" lon="5.46543">
        <ele>1380.7</ele>
        <time>2021-08-31T15:34:03Z</time>
      </trkpt>
      <trkpt lat="44.98293" lon="5.46541">
        <ele>1380.2</ele>
        <time>2021-08-31T15:34:04Z</time>
      </trkpt>
      <trkpt lat="44.98289" lon="5.46539">
        <ele>1379.8</ele>
        <time>2021-08-31T15:34:05Z</time>
      </trkpt>
      <trkpt lat="44.98286" lon="5.46538">
        <ele>1379.4</ele>
        <time>2021-08-31T15:34:06Z</time>
      </trkpt>
      <trkpt lat="44.98283" lon="5.46535">
        <ele>1379.1</ele>
        <time>2021-08-31T15:34:07Z</time>
      </trkpt>
      <trkpt lat="44.98281" lon="5.46532">
        <ele>1378.7</ele>
        <time>2021-08-31T15:34:08Z</time>
      </trkpt>
      <trkpt lat="44.98278" lon="5.46527">
        <ele>1378.3</ele>
        <time>2021-08-31T15:34:09Z</time>
      </trkpt>
      <trkpt lat="44.98275" lon="5.46522">
        <ele>1377.8</ele>
        <time>2021-08-31T15:34:11Z</time>
      </trkpt>
      <trkpt lat="44.98275" lon="5.46525">
        <ele>1377.6</ele>
        <time>2021-08-31T15:34:12Z</time>
      </trkpt>
      <trkpt lat="44.98275" lon="5.46525">
        <ele>1377.6</ele>
        <time>2021-08-31T15:34:13Z</time>
      </trkpt>
      <trkpt lat="44.98271" lon="5.4652">
        <ele>1377.1</ele>
        <time>2021-08-31T15:34:14Z</time>
      </trkpt>
      <trkpt lat="44.9827" lon="5.46517">
        <ele>1376.8</ele>
        <time>2021-08-31T15:34:15Z</time>
      </trkpt>
      <trkpt lat="44.98267" lon="5.46512">
        <ele>1376.5</ele>
        <time>2021-08-31T15:34:17Z</time>
      </trkpt>
      <trkpt lat="44.98263" lon="5.46507">
        <ele>1376</ele>
        <time>2021-08-31T15:34:18Z</time>
      </trkpt>
      <trkpt lat="44.9826" lon="5.46498">
        <ele>1375.4</ele>
        <time>2021-08-31T15:34:19Z</time>
      </trkpt>
      <trkpt lat="44.98258" lon="5.46484">
        <ele>1374.4</ele>
        <time>2021-08-31T15:34:21Z</time>
      </trkpt>
      <trkpt lat="44.98255" lon="5.46474">
        <ele>1373.6</ele>
        <time>2021-08-31T15:34:22Z</time>
      </trkpt>
      <trkpt lat="44.98249" lon="5.46455">
        <ele>1371.9</ele>
        <time>2021-08-31T15:34:23Z</time>
      </trkpt>
      <trkpt lat="44.98247" lon="5.46444">
        <ele>1370.9</ele>
        <time>2021-08-31T15:34:24Z</time>
      </trkpt>
      <trkpt lat="44.98238" lon="5.46424">
        <ele>1368.6</ele>
        <time>2021-08-31T15:34:26Z</time>
      </trkpt>
      <trkpt lat="44.98233" lon="5.46415">
        <ele>1367.1</ele>
        <time>2021-08-31T15:34:27Z</time>
      </trkpt>
      <trkpt lat="44.98227" lon="5.46406">
        <ele>1365.8</ele>
        <time>2021-08-31T15:34:28Z</time>
      </trkpt>
      <trkpt lat="44.98222" lon="5.46399">
        <ele>1364.7</ele>
        <time>2021-08-31T15:34:29Z</time>
      </trkpt>
      <trkpt lat="44.98214" lon="5.46385">
        <ele>1362.8</ele>
        <time>2021-08-31T15:34:31Z</time>
      </trkpt>
      <trkpt lat="44.98207" lon="5.46379">
        <ele>1361.6</ele>
        <time>2021-08-31T15:34:32Z</time>
      </trkpt>
      <trkpt lat="44.98196" lon="5.46365">
        <ele>1359.6</ele>
        <time>2021-08-31T15:34:34Z</time>
      </trkpt>
      <trkpt lat="44.98191" lon="5.46359">
        <ele>1358.7</ele>
        <time>2021-08-31T15:34:35Z</time>
      </trkpt>
      <trkpt lat="44.98184" lon="5.46352">
        <ele>1357.7</ele>
        <time>2021-08-31T15:34:36Z</time>
      </trkpt>
      <trkpt lat="44.9817" lon="5.46332">
        <ele>1355.5</ele>
        <time>2021-08-31T15:34:38Z</time>
      </trkpt>
      <trkpt lat="44.98164" lon="5.46321">
        <ele>1354.5</ele>
        <time>2021-08-31T15:34:39Z</time>
      </trkpt>
      <trkpt lat="44.98154" lon="5.46301">
        <ele>1353.1</ele>
        <time>2021-08-31T15:34:41Z</time>
      </trkpt>
      <trkpt lat="44.98151" lon="5.46292">
        <ele>1352.6</ele>
        <time>2021-08-31T15:34:42Z</time>
      </trkpt>
      <trkpt lat="44.98146" lon="5.46275">
        <ele>1351.5</ele>
        <time>2021-08-31T15:34:44Z</time>
      </trkpt>
      <trkpt lat="44.98142" lon="5.46267">
        <ele>1350.8</ele>
        <time>2021-08-31T15:34:45Z</time>
      </trkpt>
      <trkpt lat="44.98133" lon="5.46255">
        <ele>1349.4</ele>
        <time>2021-08-31T15:34:47Z</time>
      </trkpt>
      <trkpt lat="44.98129" lon="5.46251">
        <ele>1348.6</ele>
        <time>2021-08-31T15:34:48Z</time>
      </trkpt>
      <trkpt lat="44.98125" lon="5.46246">
        <ele>1347.8</ele>
        <time>2021-08-31T15:34:49Z</time>
      </trkpt>
      <trkpt lat="44.98125" lon="5.46241">
        <ele>1347.1</ele>
        <time>2021-08-31T15:34:51Z</time>
      </trkpt>
      <trkpt lat="44.98122" lon="5.46238">
        <ele>1346.5</ele>
        <time>2021-08-31T15:34:52Z</time>
      </trkpt>
      <trkpt lat="44.98121" lon="5.46237">
        <ele>1346.3</ele>
        <time>2021-08-31T15:34:53Z</time>
      </trkpt>
      <trkpt lat="44.98113" lon="5.46238">
        <ele>1344.7</ele>
        <time>2021-08-31T15:34:55Z</time>
      </trkpt>
      <trkpt lat="44.98102" lon="5.46238">
        <ele>1342.8</ele>
        <time>2021-08-31T15:34:57Z</time>
      </trkpt>
      <trkpt lat="44.981" lon="5.46237">
        <ele>1342.5</ele>
        <time>2021-08-31T15:34:59Z</time>
      </trkpt>
      <trkpt lat="44.98075" lon="5.46226">
        <ele>1338.4</ele>
        <time>2021-08-31T15:35:02Z</time>
      </trkpt>
      <trkpt lat="44.98055" lon="5.46213">
        <ele>1335.1</ele>
        <time>2021-08-31T15:35:04Z</time>
      </trkpt>
      <trkpt lat="44.98044" lon="5.46197">
        <ele>1332.6</ele>
        <time>2021-08-31T15:35:06Z</time>
      </trkpt>
      <trkpt lat="44.98041" lon="5.46191">
        <ele>1331.8</ele>
        <time>2021-08-31T15:35:07Z</time>
      </trkpt>
      <trkpt lat="44.98038" lon="5.46186">
        <ele>1331.2</ele>
        <time>2021-08-31T15:35:08Z</time>
      </trkpt>
      <trkpt lat="44.98035" lon="5.46176">
        <ele>1330.2</ele>
        <time>2021-08-31T15:35:10Z</time>
      </trkpt>
      <trkpt lat="44.98041" lon="5.46171">
        <ele>1329.4</ele>
        <time>2021-08-31T15:35:12Z</time>
      </trkpt>
      <trkpt lat="44.98042" lon="5.46168">
        <ele>1329.1</ele>
        <time>2021-08-31T15:35:13Z</time>
      </trkpt>
      <trkpt lat="44.98044" lon="5.46159">
        <ele>1328.5</ele>
        <time>2021-08-31T15:35:15Z</time>
      </trkpt>
      <trkpt lat="44.98046" lon="5.46155">
        <ele>1328.2</ele>
        <time>2021-08-31T15:35:16Z</time>
      </trkpt>
      <trkpt lat="44.98047" lon="5.46152">
        <ele>1328</ele>
        <time>2021-08-31T15:35:17Z</time>
      </trkpt>
      <trkpt lat="44.98051" lon="5.4614">
        <ele>1327.1</ele>
        <time>2021-08-31T15:35:18Z</time>
      </trkpt>
      <trkpt lat="44.98059" lon="5.4608">
        <ele>1321</ele>
        <time>2021-08-31T15:35:23Z</time>
      </trkpt>
      <trkpt lat="44.98063" lon="5.46054">
        <ele>1317.3</ele>
        <time>2021-08-31T15:35:25Z</time>
      </trkpt>
      <trkpt lat="44.98063" lon="5.46034">
        <ele>1314.8</ele>
        <time>2021-08-31T15:35:27Z</time>
      </trkpt>
      <trkpt lat="44.98066" lon="5.46025">
        <ele>1313.6</ele>
        <time>2021-08-31T15:35:28Z</time>
      </trkpt>
      <trkpt lat="44.98069" lon="5.46017">
        <ele>1312.6</ele>
        <time>2021-08-31T15:35:29Z</time>
      </trkpt>
      <trkpt lat="44.98072" lon="5.46009">
        <ele>1311.8</ele>
        <time>2021-08-31T15:35:30Z</time>
      </trkpt>
      <trkpt lat="44.98078" lon="5.45995">
        <ele>1310.4</ele>
        <time>2021-08-31T15:35:32Z</time>
      </trkpt>
      <trkpt lat="44.98071" lon="5.45985">
        <ele>1309.3</ele>
        <time>2021-08-31T15:35:34Z</time>
      </trkpt>
      <trkpt lat="44.98068" lon="5.45979">
        <ele>1308.9</ele>
        <time>2021-08-31T15:35:35Z</time>
      </trkpt>
      <trkpt lat="44.98067" lon="5.45971">
        <ele>1308.3</ele>
        <time>2021-08-31T15:35:36Z</time>
      </trkpt>
      <trkpt lat="44.98067" lon="5.45962">
        <ele>1307.6</ele>
        <time>2021-08-31T15:35:38Z</time>
      </trkpt>
      <trkpt lat="44.98065" lon="5.45954">
        <ele>1307</ele>
        <time>2021-08-31T15:35:39Z</time>
      </trkpt>
      <trkpt lat="44.98056" lon="5.45944">
        <ele>1305.9</ele>
        <time>2021-08-31T15:35:41Z</time>
      </trkpt>
      <trkpt lat="44.98051" lon="5.45939">
        <ele>1305.3</ele>
        <time>2021-08-31T15:35:42Z</time>
      </trkpt>
      <trkpt lat="44.98042" lon="5.45926">
        <ele>1303.8</ele>
        <time>2021-08-31T15:35:44Z</time>
      </trkpt>
      <trkpt lat="44.98038" lon="5.45921">
        <ele>1303.2</ele>
        <time>2021-08-31T15:35:46Z</time>
      </trkpt>
      <trkpt lat="44.98036" lon="5.4592">
        <ele>1303</ele>
        <time>2021-08-31T15:35:47Z</time>
      </trkpt>
      <trkpt lat="44.98035" lon="5.45919">
        <ele>1302.9</ele>
        <time>2021-08-31T15:35:48Z</time>
      </trkpt>
      <trkpt lat="44.98033" lon="5.45916">
        <ele>1302.6</ele>
        <time>2021-08-31T15:35:50Z</time>
      </trkpt>
      <trkpt lat="44.98033" lon="5.45915">
        <ele>1302.6</ele>
        <time>2021-08-31T15:35:51Z</time>
      </trkpt>
      <trkpt lat="44.98033" lon="5.45915">
        <ele>1302.6</ele>
        <time>2021-08-31T15:35:53Z</time>
      </trkpt>
      <trkpt lat="44.98033" lon="5.45915">
        <ele>1302.6</ele>
        <time>2021-08-31T15:35:55Z</time>
      </trkpt>
      <trkpt lat="44.98033" lon="5.45915">
        <ele>1302.6</ele>
        <time>2021-08-31T15:35:57Z</time>
      </trkpt>
      <trkpt lat="44.98025" lon="5.45906">
        <ele>1301.8</ele>
        <time>2021-08-31T15:36:33Z</time>
      </trkpt>
      <trkpt lat="44.98014" lon="5.45903">
        <ele>1301.5</ele>
        <time>2021-08-31T15:36:35Z</time>
      </trkpt>
      <trkpt lat="44.98008" lon="5.45902">
        <ele>1301.2</ele>
        <time>2021-08-31T15:36:36Z</time>
      </trkpt>
      <trkpt lat="44.98001" lon="5.45901">
        <ele>1300.9</ele>
        <time>2021-08-31T15:36:37Z</time>
      </trkpt>
      <trkpt lat="44.97993" lon="5.45898">
        <ele>1300.6</ele>
        <time>2021-08-31T15:36:39Z</time>
      </trkpt>
      <trkpt lat="44.97987" lon="5.45896">
        <ele>1300.4</ele>
        <time>2021-08-31T15:36:40Z</time>
      </trkpt>
      <trkpt lat="44.97982" lon="5.45895">
        <ele>1300.3</ele>
        <time>2021-08-31T15:36:41Z</time>
      </trkpt>
      <trkpt lat="44.97973" lon="5.45894">
        <ele>1300.2</ele>
        <time>2021-08-31T15:36:43Z</time>
      </trkpt>
      <trkpt lat="44.97968" lon="5.45894">
        <ele>1300.2</ele>
        <time>2021-08-31T15:36:44Z</time>
      </trkpt>
      <trkpt lat="44.97964" lon="5.45894">
        <ele>1300.2</ele>
        <time>2021-08-31T15:36:45Z</time>
      </trkpt>
      <trkpt lat="44.97959" lon="5.45893">
        <ele>1300.3</ele>
        <time>2021-08-31T15:36:46Z</time>
      </trkpt>
      <trkpt lat="44.97952" lon="5.45891">
        <ele>1300.4</ele>
        <time>2021-08-31T15:36:48Z</time>
      </trkpt>
      <trkpt lat="44.97946" lon="5.45888">
        <ele>1300.6</ele>
        <time>2021-08-31T15:36:50Z</time>
      </trkpt>
      <trkpt lat="44.97938" lon="5.45882">
        <ele>1300.9</ele>
        <time>2021-08-31T15:36:51Z</time>
      </trkpt>
      <trkpt lat="44.97929" lon="5.45877">
        <ele>1301.3</ele>
        <time>2021-08-31T15:36:53Z</time>
      </trkpt>
      <trkpt lat="44.97927" lon="5.45878">
        <ele>1301.4</ele>
        <time>2021-08-31T15:36:55Z</time>
      </trkpt>
      <trkpt lat="44.97925" lon="5.45878">
        <ele>1301.4</ele>
        <time>2021-08-31T15:36:56Z</time>
      </trkpt>
      <trkpt lat="44.97922" lon="5.45881">
        <ele>1301.5</ele>
        <time>2021-08-31T15:36:57Z</time>
      </trkpt>
      <trkpt lat="44.97921" lon="5.45882">
        <ele>1301.6</ele>
        <time>2021-08-31T15:36:58Z</time>
      </trkpt>
      <trkpt lat="44.97918" lon="5.45882">
        <ele>1301.7</ele>
        <time>2021-08-31T15:37:00Z</time>
      </trkpt>
      <trkpt lat="44.97915" lon="5.45881">
        <ele>1301.8</ele>
        <time>2021-08-31T15:37:02Z</time>
      </trkpt>
      <trkpt lat="44.97912" lon="5.45878">
        <ele>1301.9</ele>
        <time>2021-08-31T15:37:03Z</time>
      </trkpt>
      <trkpt lat="44.9791" lon="5.45876">
        <ele>1302</ele>
        <time>2021-08-31T15:37:04Z</time>
      </trkpt>
      <trkpt lat="44.97907" lon="5.45873">
        <ele>1302.1</ele>
        <time>2021-08-31T15:37:05Z</time>
      </trkpt>
      <trkpt lat="44.97904" lon="5.4587">
        <ele>1302.3</ele>
        <time>2021-08-31T15:37:06Z</time>
      </trkpt>
      <trkpt lat="44.97896" lon="5.45865">
        <ele>1302.6</ele>
        <time>2021-08-31T15:37:08Z</time>
      </trkpt>
      <trkpt lat="44.97888" lon="5.45862">
        <ele>1302.9</ele>
        <time>2021-08-31T15:37:10Z</time>
      </trkpt>
      <trkpt lat="44.97887" lon="5.45863">
        <ele>1303</ele>
        <time>2021-08-31T15:37:11Z</time>
      </trkpt>
      <trkpt lat="44.97883" lon="5.45868">
        <ele>1303.3</ele>
        <time>2021-08-31T15:37:13Z</time>
      </trkpt>
      <trkpt lat="44.97878" lon="5.45873">
        <ele>1303.6</ele>
        <time>2021-08-31T15:37:15Z</time>
      </trkpt>
      <trkpt lat="44.97874" lon="5.45875">
        <ele>1303.8</ele>
        <time>2021-08-31T15:37:16Z</time>
      </trkpt>
      <trkpt lat="44.97871" lon="5.45876">
        <ele>1304</ele>
        <time>2021-08-31T15:37:17Z</time>
      </trkpt>
      <trkpt lat="44.9787" lon="5.45877">
        <ele>1304.1</ele>
        <time>2021-08-31T15:37:18Z</time>
      </trkpt>
      <trkpt lat="44.97868" lon="5.45879">
        <ele>1304.2</ele>
        <time>2021-08-31T15:37:19Z</time>
      </trkpt>
      <trkpt lat="44.97868" lon="5.45881">
        <ele>1304.3</ele>
        <time>2021-08-31T15:37:21Z</time>
      </trkpt>
      <trkpt lat="44.97867" lon="5.45882">
        <ele>1304.4</ele>
        <time>2021-08-31T15:37:22Z</time>
      </trkpt>
      <trkpt lat="44.97866" lon="5.45883">
        <ele>1304.4</ele>
        <time>2021-08-31T15:37:24Z</time>
      </trkpt>
      <trkpt lat="44.97866" lon="5.45884">
        <ele>1304.5</ele>
        <time>2021-08-31T15:37:25Z</time>
      </trkpt>
      <trkpt lat="44.97865" lon="5.45885">
        <ele>1304.5</ele>
        <time>2021-08-31T15:37:27Z</time>
      </trkpt>
      <trkpt lat="44.97862" lon="5.45888">
        <ele>1304.7</ele>
        <time>2021-08-31T15:37:28Z</time>
      </trkpt>
      <trkpt lat="44.9786" lon="5.4589">
        <ele>1304.9</ele>
        <time>2021-08-31T15:37:29Z</time>
      </trkpt>
      <trkpt lat="44.97857" lon="5.45891">
        <ele>1305.1</ele>
        <time>2021-08-31T15:37:37Z</time>
      </trkpt>
      <trkpt lat="44.97855" lon="5.45893">
        <ele>1305.2</ele>
        <time>2021-08-31T15:37:38Z</time>
      </trkpt>
      <trkpt lat="44.97852" lon="5.45895">
        <ele>1305.4</ele>
        <time>2021-08-31T15:37:39Z</time>
      </trkpt>
      <trkpt lat="44.97849" lon="5.45897">
        <ele>1305.6</ele>
        <time>2021-08-31T15:37:40Z</time>
      </trkpt>
      <trkpt lat="44.97846" lon="5.45899">
        <ele>1305.8</ele>
        <time>2021-08-31T15:37:42Z</time>
      </trkpt>
      <trkpt lat="44.97845" lon="5.45899">
        <ele>1305.9</ele>
        <time>2021-08-31T15:37:43Z</time>
      </trkpt>
      <trkpt lat="44.9784" lon="5.45901">
        <ele>1306.2</ele>
        <time>2021-08-31T15:37:44Z</time>
      </trkpt>
      <trkpt lat="44.97837" lon="5.45901">
        <ele>1306.3</ele>
        <time>2021-08-31T15:37:45Z</time>
      </trkpt>
      <trkpt lat="44.97836" lon="5.45901">
        <ele>1306.4</ele>
        <time>2021-08-31T15:37:46Z</time>
      </trkpt>
      <trkpt lat="44.97835" lon="5.459">
        <ele>1306.5</ele>
        <time>2021-08-31T15:37:47Z</time>
      </trkpt>
      <trkpt lat="44.97833" lon="5.45899">
        <ele>1306.6</ele>
        <time>2021-08-31T15:37:49Z</time>
      </trkpt>
      <trkpt lat="44.97832" lon="5.45898">
        <ele>1306.7</ele>
        <time>2021-08-31T15:37:50Z</time>
      </trkpt>
      <trkpt lat="44.97828" lon="5.45897">
        <ele>1307</ele>
        <time>2021-08-31T15:37:52Z</time>
      </trkpt>
      <trkpt lat="44.97828" lon="5.45897">
        <ele>1307</ele>
        <time>2021-08-31T15:37:52Z</time>
      </trkpt>
      <trkpt lat="44.97824" lon="5.45895">
        <ele>1307.2</ele>
        <time>2021-08-31T15:37:54Z</time>
      </trkpt>
      <trkpt lat="44.9782" lon="5.45891">
        <ele>1307.4</ele>
        <time>2021-08-31T15:37:55Z</time>
      </trkpt>
      <trkpt lat="44.97819" lon="5.45889">
        <ele>1307.6</ele>
        <time>2021-08-31T15:37:56Z</time>
      </trkpt>
      <trkpt lat="44.97815" lon="5.45886">
        <ele>1307.9</ele>
        <time>2021-08-31T15:37:58Z</time>
      </trkpt>
      <trkpt lat="44.97814" lon="5.45887">
        <ele>1307.9</ele>
        <time>2021-08-31T15:38:00Z</time>
      </trkpt>
      <trkpt lat="44.97814" lon="5.45887">
        <ele>1307.9</ele>
        <time>2021-08-31T15:38:01Z</time>
      </trkpt>
      <trkpt lat="44.97813" lon="5.45889">
        <ele>1308</ele>
        <time>2021-08-31T15:38:02Z</time>
      </trkpt>
      <trkpt lat="44.97813" lon="5.4589">
        <ele>1308.1</ele>
        <time>2021-08-31T15:38:03Z</time>
      </trkpt>
      <trkpt lat="44.9781" lon="5.45892">
        <ele>1308.2</ele>
        <time>2021-08-31T15:38:04Z</time>
      </trkpt>
      <trkpt lat="44.97809" lon="5.45893">
        <ele>1308.3</ele>
        <time>2021-08-31T15:38:05Z</time>
      </trkpt>
      <trkpt lat="44.97805" lon="5.45895">
        <ele>1308.5</ele>
        <time>2021-08-31T15:38:07Z</time>
      </trkpt>
      <trkpt lat="44.97804" lon="5.45895">
        <ele>1308.6</ele>
        <time>2021-08-31T15:38:08Z</time>
      </trkpt>
      <trkpt lat="44.97802" lon="5.45896">
        <ele>1308.8</ele>
        <time>2021-08-31T15:38:09Z</time>
      </trkpt>
      <trkpt lat="44.978" lon="5.45899">
        <ele>1308.9</ele>
        <time>2021-08-31T15:38:11Z</time>
      </trkpt>
      <trkpt lat="44.97798" lon="5.45903">
        <ele>1309.1</ele>
        <time>2021-08-31T15:38:12Z</time>
      </trkpt>
      <trkpt lat="44.97795" lon="5.45909">
        <ele>1309.4</ele>
        <time>2021-08-31T15:38:14Z</time>
      </trkpt>
      <trkpt lat="44.97792" lon="5.45915">
        <ele>1309.9</ele>
        <time>2021-08-31T15:38:15Z</time>
      </trkpt>
      <trkpt lat="44.97791" lon="5.45919">
        <ele>1310</ele>
        <time>2021-08-31T15:38:16Z</time>
      </trkpt>
      <trkpt lat="44.97791" lon="5.45921">
        <ele>1310</ele>
        <time>2021-08-31T15:38:17Z</time>
      </trkpt>
      <trkpt lat="44.97789" lon="5.45932">
        <ele>1310.2</ele>
        <time>2021-08-31T15:38:19Z</time>
      </trkpt>
      <trkpt lat="44.97788" lon="5.45934">
        <ele>1310.2</ele>
        <time>2021-08-31T15:38:20Z</time>
      </trkpt>
      <trkpt lat="44.97786" lon="5.45938">
        <ele>1310.3</ele>
        <time>2021-08-31T15:38:22Z</time>
      </trkpt>
      <trkpt lat="44.97784" lon="5.45942">
        <ele>1310.3</ele>
        <time>2021-08-31T15:38:23Z</time>
      </trkpt>
      <trkpt lat="44.97782" lon="5.45946">
        <ele>1310.3</ele>
        <time>2021-08-31T15:38:24Z</time>
      </trkpt>
      <trkpt lat="44.97779" lon="5.4595">
        <ele>1310.4</ele>
        <time>2021-08-31T15:38:26Z</time>
      </trkpt>
      <trkpt lat="44.97778" lon="5.45951">
        <ele>1310.4</ele>
        <time>2021-08-31T15:38:28Z</time>
      </trkpt>
      <trkpt lat="44.97775" lon="5.45953">
        <ele>1310.4</ele>
        <time>2021-08-31T15:38:30Z</time>
      </trkpt>
      <trkpt lat="44.97773" lon="5.45953">
        <ele>1310.5</ele>
        <time>2021-08-31T15:38:31Z</time>
      </trkpt>
      <trkpt lat="44.97769" lon="5.45954">
        <ele>1310.5</ele>
        <time>2021-08-31T15:38:33Z</time>
      </trkpt>
      <trkpt lat="44.97767" lon="5.45955">
        <ele>1310.5</ele>
        <time>2021-08-31T15:38:34Z</time>
      </trkpt>
      <trkpt lat="44.97762" lon="5.45957">
        <ele>1310.6</ele>
        <time>2021-08-31T15:38:36Z</time>
      </trkpt>
      <trkpt lat="44.97761" lon="5.45957">
        <ele>1310.6</ele>
        <time>2021-08-31T15:38:37Z</time>
      </trkpt>
      <trkpt lat="44.97751" lon="5.45961">
        <ele>1310.8</ele>
        <time>2021-08-31T15:38:39Z</time>
      </trkpt>
      <trkpt lat="44.9774" lon="5.45966">
        <ele>1311.1</ele>
        <time>2021-08-31T15:38:41Z</time>
      </trkpt>
      <trkpt lat="44.97739" lon="5.45979">
        <ele>1311.3</ele>
        <time>2021-08-31T15:38:46Z</time>
      </trkpt>
      <trkpt lat="44.97746" lon="5.45991">
        <ele>1311.5</ele>
        <time>2021-08-31T15:38:48Z</time>
      </trkpt>
      <trkpt lat="44.97753" lon="5.46004">
        <ele>1311.8</ele>
        <time>2021-08-31T15:38:50Z</time>
      </trkpt>
      <trkpt lat="44.97755" lon="5.46011">
        <ele>1312</ele>
        <time>2021-08-31T15:38:52Z</time>
      </trkpt>
      <trkpt lat="44.97757" lon="5.46017">
        <ele>1312.1</ele>
        <time>2021-08-31T15:38:53Z</time>
      </trkpt>
      <trkpt lat="44.97758" lon="5.46022">
        <ele>1312.3</ele>
        <time>2021-08-31T15:38:54Z</time>
      </trkpt>
      <trkpt lat="44.97759" lon="5.4603">
        <ele>1312.4</ele>
        <time>2021-08-31T15:38:56Z</time>
      </trkpt>
      <trkpt lat="44.97756" lon="5.46033">
        <ele>1312.6</ele>
        <time>2021-08-31T15:38:57Z</time>
      </trkpt>
      <trkpt lat="44.97755" lon="5.46034">
        <ele>1312.6</ele>
        <time>2021-08-31T15:38:58Z</time>
      </trkpt>
      <trkpt lat="44.97752" lon="5.46037">
        <ele>1312.7</ele>
        <time>2021-08-31T15:39:00Z</time>
      </trkpt>
      <trkpt lat="44.97745" lon="5.46044">
        <ele>1312.9</ele>
        <time>2021-08-31T15:39:02Z</time>
      </trkpt>
      <trkpt lat="44.97743" lon="5.46048">
        <ele>1313</ele>
        <time>2021-08-31T15:39:03Z</time>
      </trkpt>
      <trkpt lat="44.97742" lon="5.46052">
        <ele>1313.1</ele>
        <time>2021-08-31T15:39:04Z</time>
      </trkpt>
      <trkpt lat="44.97741" lon="5.46057">
        <ele>1313.1</ele>
        <time>2021-08-31T15:39:06Z</time>
      </trkpt>
      <trkpt lat="44.97738" lon="5.46064">
        <ele>1313.2</ele>
        <time>2021-08-31T15:39:08Z</time>
      </trkpt>
      <trkpt lat="44.97734" lon="5.46066">
        <ele>1313.3</ele>
        <time>2021-08-31T15:39:10Z</time>
      </trkpt>
      <trkpt lat="44.97728" lon="5.46064">
        <ele>1313.5</ele>
        <time>2021-08-31T15:39:11Z</time>
      </trkpt>
      <trkpt lat="44.97726" lon="5.46067">
        <ele>1313.5</ele>
        <time>2021-08-31T15:39:12Z</time>
      </trkpt>
      <trkpt lat="44.97726" lon="5.46069">
        <ele>1313.5</ele>
        <time>2021-08-31T15:39:13Z</time>
      </trkpt>
      <trkpt lat="44.97724" lon="5.46075">
        <ele>1313.6</ele>
        <time>2021-08-31T15:39:15Z</time>
      </trkpt>
      <trkpt lat="44.97724" lon="5.46077">
        <ele>1313.7</ele>
        <time>2021-08-31T15:39:16Z</time>
      </trkpt>
      <trkpt lat="44.97723" lon="5.46079">
        <ele>1313.7</ele>
        <time>2021-08-31T15:39:17Z</time>
      </trkpt>
      <trkpt lat="44.97719" lon="5.46086">
        <ele>1313.8</ele>
        <time>2021-08-31T15:39:19Z</time>
      </trkpt>
      <trkpt lat="44.97715" lon="5.46092">
        <ele>1313.9</ele>
        <time>2021-08-31T15:39:20Z</time>
      </trkpt>
      <trkpt lat="44.97708" lon="5.46102">
        <ele>1314</ele>
        <time>2021-08-31T15:39:22Z</time>
      </trkpt>
      <trkpt lat="44.97705" lon="5.46108">
        <ele>1314.1</ele>
        <time>2021-08-31T15:39:23Z</time>
      </trkpt>
      <trkpt lat="44.97703" lon="5.46113">
        <ele>1314.1</ele>
        <time>2021-08-31T15:39:24Z</time>
      </trkpt>
      <trkpt lat="44.97698" lon="5.46121">
        <ele>1314.1</ele>
        <time>2021-08-31T15:39:26Z</time>
      </trkpt>
      <trkpt lat="44.97694" lon="5.46126">
        <ele>1314.2</ele>
        <time>2021-08-31T15:39:27Z</time>
      </trkpt>
      <trkpt lat="44.97681" lon="5.46137">
        <ele>1314.2</ele>
        <time>2021-08-31T15:39:29Z</time>
      </trkpt>
      <trkpt lat="44.97677" lon="5.46141">
        <ele>1314.2</ele>
        <time>2021-08-31T15:39:30Z</time>
      </trkpt>
      <trkpt lat="44.97673" lon="5.46144">
        <ele>1314.2</ele>
        <time>2021-08-31T15:39:31Z</time>
      </trkpt>
      <trkpt lat="44.97667" lon="5.46148">
        <ele>1314.2</ele>
        <time>2021-08-31T15:39:33Z</time>
      </trkpt>
      <trkpt lat="44.97656" lon="5.46148">
        <ele>1314.2</ele>
        <time>2021-08-31T15:39:34Z</time>
      </trkpt>
      <trkpt lat="44.9765" lon="5.46149">
        <ele>1314.2</ele>
        <time>2021-08-31T15:39:35Z</time>
      </trkpt>
      <trkpt lat="44.97644" lon="5.46151">
        <ele>1314.1</ele>
        <time>2021-08-31T15:39:36Z</time>
      </trkpt>
      <trkpt lat="44.97639" lon="5.46154">
        <ele>1314.1</ele>
        <time>2021-08-31T15:39:37Z</time>
      </trkpt>
      <trkpt lat="44.9763" lon="5.46159">
        <ele>1314.2</ele>
        <time>2021-08-31T15:39:38Z</time>
      </trkpt>
      <trkpt lat="44.97613" lon="5.46166">
        <ele>1314.4</ele>
        <time>2021-08-31T15:39:40Z</time>
      </trkpt>
      <trkpt lat="44.97605" lon="5.46169">
        <ele>1314.6</ele>
        <time>2021-08-31T15:39:41Z</time>
      </trkpt>
      <trkpt lat="44.97597" lon="5.46171">
        <ele>1315</ele>
        <time>2021-08-31T15:39:42Z</time>
      </trkpt>
      <trkpt lat="44.9759" lon="5.46173">
        <ele>1315.4</ele>
        <time>2021-08-31T15:39:43Z</time>
      </trkpt>
      <trkpt lat="44.97584" lon="5.46176">
        <ele>1315.7</ele>
        <time>2021-08-31T15:39:44Z</time>
      </trkpt>
      <trkpt lat="44.9758" lon="5.46178">
        <ele>1316.2</ele>
        <time>2021-08-31T15:39:45Z</time>
      </trkpt>
      <trkpt lat="44.97573" lon="5.4618">
        <ele>1316.7</ele>
        <time>2021-08-31T15:39:47Z</time>
      </trkpt>
      <trkpt lat="44.97571" lon="5.46181">
        <ele>1316.9</ele>
        <time>2021-08-31T15:39:48Z</time>
      </trkpt>
      <trkpt lat="44.97569" lon="5.46182">
        <ele>1317</ele>
        <time>2021-08-31T15:39:49Z</time>
      </trkpt>
      <trkpt lat="44.9757" lon="5.46183">
        <ele>1317.1</ele>
        <time>2021-08-31T15:39:50Z</time>
      </trkpt>
      <trkpt lat="44.9757" lon="5.46184">
        <ele>1317.1</ele>
        <time>2021-08-31T15:39:51Z</time>
      </trkpt>
      <trkpt lat="44.97569" lon="5.46184">
        <ele>1317.1</ele>
        <time>2021-08-31T15:39:53Z</time>
      </trkpt>
      <trkpt lat="44.97565" lon="5.46188">
        <ele>1317.5</ele>
        <time>2021-08-31T15:39:55Z</time>
      </trkpt>
      <trkpt lat="44.97562" lon="5.46191">
        <ele>1317.8</ele>
        <time>2021-08-31T15:39:56Z</time>
      </trkpt>
      <trkpt lat="44.9756" lon="5.46193">
        <ele>1317.9</ele>
        <time>2021-08-31T15:39:58Z</time>
      </trkpt>
      <trkpt lat="44.9756" lon="5.46194">
        <ele>1318</ele>
        <time>2021-08-31T15:39:59Z</time>
      </trkpt>
      <trkpt lat="44.97541" lon="5.46206">
        <ele>1319.5</ele>
        <time>2021-08-31T15:40:09Z</time>
      </trkpt>
      <trkpt lat="44.97536" lon="5.46205">
        <ele>1319.9</ele>
        <time>2021-08-31T15:40:10Z</time>
      </trkpt>
      <trkpt lat="44.97531" lon="5.46205">
        <ele>1320.3</ele>
        <time>2021-08-31T15:40:11Z</time>
      </trkpt>
      <trkpt lat="44.97528" lon="5.46205">
        <ele>1320.5</ele>
        <time>2021-08-31T15:40:12Z</time>
      </trkpt>
      <trkpt lat="44.97524" lon="5.46203">
        <ele>1320.8</ele>
        <time>2021-08-31T15:40:14Z</time>
      </trkpt>
      <trkpt lat="44.97523" lon="5.46203">
        <ele>1320.9</ele>
        <time>2021-08-31T15:40:16Z</time>
      </trkpt>
      <trkpt lat="44.97523" lon="5.46204">
        <ele>1320.9</ele>
        <time>2021-08-31T15:40:17Z</time>
      </trkpt>
      <trkpt lat="44.97524" lon="5.46204">
        <ele>1320.9</ele>
        <time>2021-08-31T15:40:18Z</time>
      </trkpt>
      <trkpt lat="44.97524" lon="5.46204">
        <ele>1320.9</ele>
        <time>2021-08-31T15:40:19Z</time>
      </trkpt>
      <trkpt lat="44.97523" lon="5.46203">
        <ele>1321</ele>
        <time>2021-08-31T15:40:20Z</time>
      </trkpt>
      <trkpt lat="44.97522" lon="5.46203">
        <ele>1321.1</ele>
        <time>2021-08-31T15:40:22Z</time>
      </trkpt>
      <trkpt lat="44.9752" lon="5.46203">
        <ele>1321.2</ele>
        <time>2021-08-31T15:40:24Z</time>
      </trkpt>
      <trkpt lat="44.97506" lon="5.46211">
        <ele>1322.1</ele>
        <time>2021-08-31T15:40:33Z</time>
      </trkpt>
      <trkpt lat="44.97503" lon="5.46213">
        <ele>1322.3</ele>
        <time>2021-08-31T15:40:34Z</time>
      </trkpt>
      <trkpt lat="44.97498" lon="5.46218">
        <ele>1322.6</ele>
        <time>2021-08-31T15:40:35Z</time>
      </trkpt>
      <trkpt lat="44.97489" lon="5.46227">
        <ele>1323.4</ele>
        <time>2021-08-31T15:40:37Z</time>
      </trkpt>
      <trkpt lat="44.9748" lon="5.46234">
        <ele>1324</ele>
        <time>2021-08-31T15:40:39Z</time>
      </trkpt>
      <trkpt lat="44.97477" lon="5.46236">
        <ele>1324.2</ele>
        <time>2021-08-31T15:40:40Z</time>
      </trkpt>
      <trkpt lat="44.97477" lon="5.46236">
        <ele>1324.3</ele>
        <time>2021-08-31T15:40:41Z</time>
      </trkpt>
      <trkpt lat="44.97477" lon="5.46234">
        <ele>1324.4</ele>
        <time>2021-08-31T15:40:43Z</time>
      </trkpt>
      <trkpt lat="44.97477" lon="5.46234">
        <ele>1324.4</ele>
        <time>2021-08-31T15:40:45Z</time>
      </trkpt>
      <trkpt lat="44.97477" lon="5.46235">
        <ele>1324.4</ele>
        <time>2021-08-31T15:40:46Z</time>
      </trkpt>
      <trkpt lat="44.97477" lon="5.46236">
        <ele>1324.5</ele>
        <time>2021-08-31T15:40:48Z</time>
      </trkpt>
      <trkpt lat="44.97476" lon="5.46236">
        <ele>1324.5</ele>
        <time>2021-08-31T15:40:49Z</time>
      </trkpt>
      <trkpt lat="44.97475" lon="5.46237">
        <ele>1324.6</ele>
        <time>2021-08-31T15:40:50Z</time>
      </trkpt>
      <trkpt lat="44.97465" lon="5.46233">
        <ele>1325.3</ele>
        <time>2021-08-31T15:40:54Z</time>
      </trkpt>
      <trkpt lat="44.97459" lon="5.46231">
        <ele>1325.7</ele>
        <time>2021-08-31T15:40:56Z</time>
      </trkpt>
      <trkpt lat="44.97456" lon="5.46229">
        <ele>1325.9</ele>
        <time>2021-08-31T15:40:57Z</time>
      </trkpt>
      <trkpt lat="44.97453" lon="5.46228">
        <ele>1326.1</ele>
        <time>2021-08-31T15:40:58Z</time>
      </trkpt>
      <trkpt lat="44.97445" lon="5.46228">
        <ele>1326.6</ele>
        <time>2021-08-31T15:41:00Z</time>
      </trkpt>
      <trkpt lat="44.9744" lon="5.46229">
        <ele>1326.9</ele>
        <time>2021-08-31T15:41:01Z</time>
      </trkpt>
      <trkpt lat="44.97435" lon="5.46231">
        <ele>1327.2</ele>
        <time>2021-08-31T15:41:02Z</time>
      </trkpt>
      <trkpt lat="44.97428" lon="5.46233">
        <ele>1327.6</ele>
        <time>2021-08-31T15:41:04Z</time>
      </trkpt>
      <trkpt lat="44.97424" lon="5.46235">
        <ele>1327.9</ele>
        <time>2021-08-31T15:41:05Z</time>
      </trkpt>
      <trkpt lat="44.97421" lon="5.46236">
        <ele>1328.1</ele>
        <time>2021-08-31T15:41:06Z</time>
      </trkpt>
      <trkpt lat="44.97417" lon="5.46238">
        <ele>1328.3</ele>
        <time>2021-08-31T15:41:07Z</time>
      </trkpt>
      <trkpt lat="44.97414" lon="5.46241">
        <ele>1328.5</ele>
        <time>2021-08-31T15:41:08Z</time>
      </trkpt>
      <trkpt lat="44.97412" lon="5.46243">
        <ele>1328.6</ele>
        <time>2021-08-31T15:41:10Z</time>
      </trkpt>
      <trkpt lat="44.9741" lon="5.46246">
        <ele>1328.8</ele>
        <time>2021-08-31T15:41:11Z</time>
      </trkpt>
      <trkpt lat="44.97408" lon="5.46247">
        <ele>1328.9</ele>
        <time>2021-08-31T15:41:12Z</time>
      </trkpt>
      <trkpt lat="44.97407" lon="5.46247">
        <ele>1328.9</ele>
        <time>2021-08-31T15:41:13Z</time>
      </trkpt>
      <trkpt lat="44.97405" lon="5.46247">
        <ele>1329.1</ele>
        <time>2021-08-31T15:41:15Z</time>
      </trkpt>
      <trkpt lat="44.974" lon="5.46248">
        <ele>1329.3</ele>
        <time>2021-08-31T15:41:16Z</time>
      </trkpt>
      <trkpt lat="44.97398" lon="5.46248">
        <ele>1329.5</ele>
        <time>2021-08-31T15:41:17Z</time>
      </trkpt>
      <trkpt lat="44.97393" lon="5.46248">
        <ele>1329.7</ele>
        <time>2021-08-31T15:41:19Z</time>
      </trkpt>
      <trkpt lat="44.97265" lon="5.46244">
        <ele>1336.2</ele>
        <time>2021-08-31T15:42:25Z</time>
      </trkpt>
      <trkpt lat="44.97263" lon="5.46241">
        <ele>1336.3</ele>
        <time>2021-08-31T15:42:26Z</time>
      </trkpt>
      <trkpt lat="44.97255" lon="5.46241">
        <ele>1336.5</ele>
        <time>2021-08-31T15:42:28Z</time>
      </trkpt>
      <trkpt lat="44.97248" lon="5.46243">
        <ele>1336.6</ele>
        <time>2021-08-31T15:42:29Z</time>
      </trkpt>
      <trkpt lat="44.97243" lon="5.46243">
        <ele>1336.6</ele>
        <time>2021-08-31T15:42:30Z</time>
      </trkpt>
      <trkpt lat="44.97235" lon="5.46244">
        <ele>1336.6</ele>
        <time>2021-08-31T15:42:31Z</time>
      </trkpt>
      <trkpt lat="44.97229" lon="5.46245">
        <ele>1336.6</ele>
        <time>2021-08-31T15:42:32Z</time>
      </trkpt>
      <trkpt lat="44.97223" lon="5.46246">
        <ele>1336.5</ele>
        <time>2021-08-31T15:42:34Z</time>
      </trkpt>
      <trkpt lat="44.97217" lon="5.46246">
        <ele>1336.4</ele>
        <time>2021-08-31T15:42:35Z</time>
      </trkpt>
      <trkpt lat="44.9721" lon="5.46244">
        <ele>1336.3</ele>
        <time>2021-08-31T15:42:36Z</time>
      </trkpt>
      <trkpt lat="44.97199" lon="5.4624">
        <ele>1336.1</ele>
        <time>2021-08-31T15:42:37Z</time>
      </trkpt>
      <trkpt lat="44.97192" lon="5.46235">
        <ele>1335.8</ele>
        <time>2021-08-31T15:42:39Z</time>
      </trkpt>
      <trkpt lat="44.97182" lon="5.46229">
        <ele>1335.5</ele>
        <time>2021-08-31T15:42:40Z</time>
      </trkpt>
      <trkpt lat="44.97175" lon="5.46225">
        <ele>1335.2</ele>
        <time>2021-08-31T15:42:41Z</time>
      </trkpt>
      <trkpt lat="44.97168" lon="5.46219">
        <ele>1335</ele>
        <time>2021-08-31T15:42:43Z</time>
      </trkpt>
      <trkpt lat="44.9716" lon="5.4621">
        <ele>1334.7</ele>
        <time>2021-08-31T15:42:44Z</time>
      </trkpt>
      <trkpt lat="44.97153" lon="5.46204">
        <ele>1334.4</ele>
        <time>2021-08-31T15:42:46Z</time>
      </trkpt>
      <trkpt lat="44.97146" lon="5.46198">
        <ele>1334</ele>
        <time>2021-08-31T15:42:47Z</time>
      </trkpt>
      <trkpt lat="44.97133" lon="5.46186">
        <ele>1333.2</ele>
        <time>2021-08-31T15:42:50Z</time>
      </trkpt>
      <trkpt lat="44.97113" lon="5.46171">
        <ele>1331.7</ele>
        <time>2021-08-31T15:42:52Z</time>
      </trkpt>
      <trkpt lat="44.97096" lon="5.46152">
        <ele>1330.1</ele>
        <time>2021-08-31T15:42:54Z</time>
      </trkpt>
      <trkpt lat="44.97091" lon="5.46145">
        <ele>1329.5</ele>
        <time>2021-08-31T15:42:55Z</time>
      </trkpt>
      <trkpt lat="44.97082" lon="5.4613">
        <ele>1328.5</ele>
        <time>2021-08-31T15:42:57Z</time>
      </trkpt>
      <trkpt lat="44.97075" lon="5.46111">
        <ele>1327.3</ele>
        <time>2021-08-31T15:42:59Z</time>
      </trkpt>
      <trkpt lat="44.97071" lon="5.4609">
        <ele>1326.2</ele>
        <time>2021-08-31T15:43:01Z</time>
      </trkpt>
      <trkpt lat="44.97069" lon="5.46079">
        <ele>1325.6</ele>
        <time>2021-08-31T15:43:02Z</time>
      </trkpt>
      <trkpt lat="44.97066" lon="5.46068">
        <ele>1324.9</ele>
        <time>2021-08-31T15:43:03Z</time>
      </trkpt>
      <trkpt lat="44.97063" lon="5.46044">
        <ele>1323.8</ele>
        <time>2021-08-31T15:43:05Z</time>
      </trkpt>
      <trkpt lat="44.9706" lon="5.46019">
        <ele>1323</ele>
        <time>2021-08-31T15:43:07Z</time>
      </trkpt>
      <trkpt lat="44.9706" lon="5.46007">
        <ele>1322.6</ele>
        <time>2021-08-31T15:43:08Z</time>
      </trkpt>
      <trkpt lat="44.9706" lon="5.45982">
        <ele>1321.8</ele>
        <time>2021-08-31T15:43:10Z</time>
      </trkpt>
      <trkpt lat="44.97057" lon="5.45972">
        <ele>1321.5</ele>
        <time>2021-08-31T15:43:11Z</time>
      </trkpt>
      <trkpt lat="44.97056" lon="5.45961">
        <ele>1321.1</ele>
        <time>2021-08-31T15:43:12Z</time>
      </trkpt>
      <trkpt lat="44.97052" lon="5.45939">
        <ele>1320.4</ele>
        <time>2021-08-31T15:43:14Z</time>
      </trkpt>
      <trkpt lat="44.97048" lon="5.4593">
        <ele>1320.1</ele>
        <time>2021-08-31T15:43:15Z</time>
      </trkpt>
      <trkpt lat="44.97037" lon="5.45921">
        <ele>1319.7</ele>
        <time>2021-08-31T15:43:17Z</time>
      </trkpt>
      <trkpt lat="44.9703" lon="5.45927">
        <ele>1319.4</ele>
        <time>2021-08-31T15:43:18Z</time>
      </trkpt>
      <trkpt lat="44.97024" lon="5.45929">
        <ele>1319.2</ele>
        <time>2021-08-31T15:43:19Z</time>
      </trkpt>
      <trkpt lat="44.97012" lon="5.45931">
        <ele>1318.7</ele>
        <time>2021-08-31T15:43:21Z</time>
      </trkpt>
      <trkpt lat="44.97004" lon="5.45922">
        <ele>1318.3</ele>
        <time>2021-08-31T15:43:23Z</time>
      </trkpt>
      <trkpt lat="44.96999" lon="5.45919">
        <ele>1318.1</ele>
        <time>2021-08-31T15:43:24Z</time>
      </trkpt>
      <trkpt lat="44.96995" lon="5.45916">
        <ele>1317.9</ele>
        <time>2021-08-31T15:43:26Z</time>
      </trkpt>
      <trkpt lat="44.96991" lon="5.45912">
        <ele>1317.7</ele>
        <time>2021-08-31T15:43:28Z</time>
      </trkpt>
      <trkpt lat="44.96782" lon="5.45665">
        <ele>1302.9</ele>
        <time>2021-08-31T15:44:06Z</time>
      </trkpt>
      <trkpt lat="44.96761" lon="5.4565">
        <ele>1311.4</ele>
        <time>2021-08-31T15:44:08Z</time>
      </trkpt>
      <trkpt lat="44.96746" lon="5.45639">
        <ele>1311</ele>
        <time>2021-08-31T15:44:10Z</time>
      </trkpt>
      <trkpt lat="44.96734" lon="5.45628">
        <ele>1310.6</ele>
        <time>2021-08-31T15:44:12Z</time>
      </trkpt>
      <trkpt lat="44.96726" lon="5.45618">
        <ele>1305.7</ele>
        <time>2021-08-31T15:44:14Z</time>
      </trkpt>
      <trkpt lat="44.96722" lon="5.45609">
        <ele>1304.3</ele>
        <time>2021-08-31T15:44:16Z</time>
      </trkpt>
      <trkpt lat="44.96719" lon="5.45601">
        <ele>1303.1</ele>
        <time>2021-08-31T15:44:18Z</time>
      </trkpt>
      <trkpt lat="44.96716" lon="5.45593">
        <ele>1301.8</ele>
        <time>2021-08-31T15:44:20Z</time>
      </trkpt>
      <trkpt lat="44.96715" lon="5.45588">
        <ele>1301.1</ele>
        <time>2021-08-31T15:44:21Z</time>
      </trkpt>
      <trkpt lat="44.96712" lon="5.45576">
        <ele>1299.5</ele>
        <time>2021-08-31T15:44:23Z</time>
      </trkpt>
      <trkpt lat="44.96711" lon="5.45571">
        <ele>1298.7</ele>
        <time>2021-08-31T15:44:25Z</time>
      </trkpt>
      <trkpt lat="44.96711" lon="5.45568">
        <ele>1298.3</ele>
        <time>2021-08-31T15:44:26Z</time>
      </trkpt>
      <trkpt lat="44.9671" lon="5.45559">
        <ele>1297.1</ele>
        <time>2021-08-31T15:44:28Z</time>
      </trkpt>
      <trkpt lat="44.96711" lon="5.45541">
        <ele>1294.6</ele>
        <time>2021-08-31T15:44:30Z</time>
      </trkpt>
      <trkpt lat="44.96721" lon="5.45493">
        <ele>1287.7</ele>
        <time>2021-08-31T15:44:32Z</time>
      </trkpt>
      <trkpt lat="44.96724" lon="5.45474">
        <ele>1285.1</ele>
        <time>2021-08-31T15:44:33Z</time>
      </trkpt>
      <trkpt lat="44.96728" lon="5.45446">
        <ele>1281.2</ele>
        <time>2021-08-31T15:44:36Z</time>
      </trkpt>
      <trkpt lat="44.96729" lon="5.45425">
        <ele>1278.4</ele>
        <time>2021-08-31T15:44:37Z</time>
      </trkpt>
      <trkpt lat="44.96727" lon="5.45417">
        <ele>1277.3</ele>
        <time>2021-08-31T15:44:38Z</time>
      </trkpt>
      <trkpt lat="44.96725" lon="5.45412">
        <ele>1276.5</ele>
        <time>2021-08-31T15:44:39Z</time>
      </trkpt>
      <trkpt lat="44.96725" lon="5.45406">
        <ele>1275.8</ele>
        <time>2021-08-31T15:44:41Z</time>
      </trkpt>
      <trkpt lat="44.96725" lon="5.45402">
        <ele>1275.2</ele>
        <time>2021-08-31T15:44:42Z</time>
      </trkpt>
      <trkpt lat="44.96726" lon="5.45396">
        <ele>1274.3</ele>
        <time>2021-08-31T15:44:44Z</time>
      </trkpt>
      <trkpt lat="44.96733" lon="5.45392">
        <ele>1272.9</ele>
        <time>2021-08-31T15:44:46Z</time>
      </trkpt>
      <trkpt lat="44.96737" lon="5.45391">
        <ele>1272</ele>
        <time>2021-08-31T15:44:47Z</time>
      </trkpt>
      <trkpt lat="44.96745" lon="5.45389">
        <ele>1270.4</ele>
        <time>2021-08-31T15:44:48Z</time>
      </trkpt>
      <trkpt lat="44.96748" lon="5.45388">
        <ele>1270.2</ele>
        <time>2021-08-31T15:44:49Z</time>
      </trkpt>
      <trkpt lat="44.9675" lon="5.45387">
        <ele>1270.1</ele>
        <time>2021-08-31T15:44:51Z</time>
      </trkpt>
      <trkpt lat="44.96751" lon="5.45387">
        <ele>1270</ele>
        <time>2021-08-31T15:44:52Z</time>
      </trkpt>
      <trkpt lat="44.9675" lon="5.45388">
        <ele>1269.9</ele>
        <time>2021-08-31T15:44:53Z</time>
      </trkpt>
      <trkpt lat="44.96749" lon="5.45389">
        <ele>1269.8</ele>
        <time>2021-08-31T15:44:54Z</time>
      </trkpt>
      <trkpt lat="44.96748" lon="5.4539">
        <ele>1269.7</ele>
        <time>2021-08-31T15:44:55Z</time>
      </trkpt>
      <trkpt lat="44.96746" lon="5.45391">
        <ele>1269.5</ele>
        <time>2021-08-31T15:44:57Z</time>
      </trkpt>
      <trkpt lat="44.96745" lon="5.45392">
        <ele>1269.4</ele>
        <time>2021-08-31T15:44:58Z</time>
      </trkpt>
      <trkpt lat="44.96743" lon="5.45393">
        <ele>1269.3</ele>
        <time>2021-08-31T15:45:41Z</time>
      </trkpt>
      <trkpt lat="44.96742" lon="5.45394">
        <ele>1269.2</ele>
        <time>2021-08-31T15:45:42Z</time>
      </trkpt>
      <trkpt lat="44.96736" lon="5.45392">
        <ele>1268.8</ele>
        <time>2021-08-31T15:45:43Z</time>
      </trkpt>
      <trkpt lat="44.9673" lon="5.4539">
        <ele>1268.3</ele>
        <time>2021-08-31T15:45:44Z</time>
      </trkpt>
      <trkpt lat="44.96719" lon="5.4538">
        <ele>1267.2</ele>
        <time>2021-08-31T15:45:46Z</time>
      </trkpt>
      <trkpt lat="44.96696" lon="5.45358">
        <ele>1264.6</ele>
        <time>2021-08-31T15:45:47Z</time>
      </trkpt>
      <trkpt lat="44.96687" lon="5.45351">
        <ele>1263.7</ele>
        <time>2021-08-31T15:45:48Z</time>
      </trkpt>
      <trkpt lat="44.9668" lon="5.45345">
        <ele>1263</ele>
        <time>2021-08-31T15:45:49Z</time>
      </trkpt>
      <trkpt lat="44.96671" lon="5.45341">
        <ele>1262.1</ele>
        <time>2021-08-31T15:45:50Z</time>
      </trkpt>
      <trkpt lat="44.96654" lon="5.45328">
        <ele>1260.2</ele>
        <time>2021-08-31T15:45:52Z</time>
      </trkpt>
      <trkpt lat="44.96645" lon="5.45321">
        <ele>1259.1</ele>
        <time>2021-08-31T15:45:53Z</time>
      </trkpt>
      <trkpt lat="44.96629" lon="5.45306">
        <ele>1257.2</ele>
        <time>2021-08-31T15:45:55Z</time>
      </trkpt>
      <trkpt lat="44.96621" lon="5.45297">
        <ele>1256.3</ele>
        <time>2021-08-31T15:45:56Z</time>
      </trkpt>
      <trkpt lat="44.96605" lon="5.4528">
        <ele>1254.5</ele>
        <time>2021-08-31T15:45:58Z</time>
      </trkpt>
      <trkpt lat="44.96599" lon="5.45272">
        <ele>1253.8</ele>
        <time>2021-08-31T15:45:59Z</time>
      </trkpt>
      <trkpt lat="44.96586" lon="5.45258">
        <ele>1252.3</ele>
        <time>2021-08-31T15:46:01Z</time>
      </trkpt>
      <trkpt lat="44.96579" lon="5.45252">
        <ele>1251.5</ele>
        <time>2021-08-31T15:46:02Z</time>
      </trkpt>
      <trkpt lat="44.96562" lon="5.45244">
        <ele>1249.7</ele>
        <time>2021-08-31T15:46:04Z</time>
      </trkpt>
      <trkpt lat="44.96554" lon="5.45242">
        <ele>1248.9</ele>
        <time>2021-08-31T15:46:05Z</time>
      </trkpt>
      <trkpt lat="44.96547" lon="5.45241">
        <ele>1248.1</ele>
        <time>2021-08-31T15:46:06Z</time>
      </trkpt>
      <trkpt lat="44.9654" lon="5.45242">
        <ele>1247.5</ele>
        <time>2021-08-31T15:46:07Z</time>
      </trkpt>
      <trkpt lat="44.96533" lon="5.45242">
        <ele>1246.9</ele>
        <time>2021-08-31T15:46:08Z</time>
      </trkpt>
      <trkpt lat="44.96517" lon="5.45238">
        <ele>1245.7</ele>
        <time>2021-08-31T15:46:10Z</time>
      </trkpt>
      <trkpt lat="44.96508" lon="5.45237">
        <ele>1244.9</ele>
        <time>2021-08-31T15:46:11Z</time>
      </trkpt>
      <trkpt lat="44.96499" lon="5.45239">
        <ele>1244.2</ele>
        <time>2021-08-31T15:46:12Z</time>
      </trkpt>
      <trkpt lat="44.9649" lon="5.45238">
        <ele>1243.6</ele>
        <time>2021-08-31T15:46:13Z</time>
      </trkpt>
      <trkpt lat="44.96474" lon="5.45234">
        <ele>1242.4</ele>
        <time>2021-08-31T15:46:15Z</time>
      </trkpt>
      <trkpt lat="44.96458" lon="5.45226">
        <ele>1241.2</ele>
        <time>2021-08-31T15:46:17Z</time>
      </trkpt>
      <trkpt lat="44.96444" lon="5.45216">
        <ele>1240</ele>
        <time>2021-08-31T15:46:19Z</time>
      </trkpt>
      <trkpt lat="44.96437" lon="5.45209">
        <ele>1239.4</ele>
        <time>2021-08-31T15:46:20Z</time>
      </trkpt>
      <trkpt lat="44.96423" lon="5.45197">
        <ele>1238.2</ele>
        <time>2021-08-31T15:46:22Z</time>
      </trkpt>
      <trkpt lat="44.96417" lon="5.45191">
        <ele>1237.6</ele>
        <time>2021-08-31T15:46:23Z</time>
      </trkpt>
      <trkpt lat="44.96411" lon="5.45184">
        <ele>1237.1</ele>
        <time>2021-08-31T15:46:24Z</time>
      </trkpt>
      <trkpt lat="44.96403" lon="5.45177">
        <ele>1236.6</ele>
        <time>2021-08-31T15:46:25Z</time>
      </trkpt>
      <trkpt lat="44.96395" lon="5.45172">
        <ele>1236.2</ele>
        <time>2021-08-31T15:46:26Z</time>
      </trkpt>
      <trkpt lat="44.96375" lon="5.45164">
        <ele>1234.9</ele>
        <time>2021-08-31T15:46:28Z</time>
      </trkpt>
      <trkpt lat="44.96351" lon="5.45159">
        <ele>1233.3</ele>
        <time>2021-08-31T15:46:30Z</time>
      </trkpt>
      <trkpt lat="44.96328" lon="5.45154">
        <ele>1231.2</ele>
        <time>2021-08-31T15:46:32Z</time>
      </trkpt>
      <trkpt lat="44.96305" lon="5.45148">
        <ele>1229.5</ele>
        <time>2021-08-31T15:46:34Z</time>
      </trkpt>
      <trkpt lat="44.96295" lon="5.45146">
        <ele>1228.9</ele>
        <time>2021-08-31T15:46:35Z</time>
      </trkpt>
      <trkpt lat="44.96285" lon="5.45144">
        <ele>1228.3</ele>
        <time>2021-08-31T15:46:36Z</time>
      </trkpt>
      <trkpt lat="44.96264" lon="5.45141">
        <ele>1226.8</ele>
        <time>2021-08-31T15:46:38Z</time>
      </trkpt>
      <trkpt lat="44.96252" lon="5.45144">
        <ele>1226</ele>
        <time>2021-08-31T15:46:39Z</time>
      </trkpt>
      <trkpt lat="44.96231" lon="5.45144">
        <ele>1224.7</ele>
        <time>2021-08-31T15:46:41Z</time>
      </trkpt>
      <trkpt lat="44.96215" lon="5.45143">
        <ele>1223.4</ele>
        <time>2021-08-31T15:46:43Z</time>
      </trkpt>
      <trkpt lat="44.96208" lon="5.45144">
        <ele>1222.9</ele>
        <time>2021-08-31T15:46:44Z</time>
      </trkpt>
      <trkpt lat="44.96203" lon="5.45146">
        <ele>1222.5</ele>
        <time>2021-08-31T15:46:45Z</time>
      </trkpt>
      <trkpt lat="44.96194" lon="5.45153">
        <ele>1221.8</ele>
        <time>2021-08-31T15:46:47Z</time>
      </trkpt>
      <trkpt lat="44.9619" lon="5.45159">
        <ele>1221.5</ele>
        <time>2021-08-31T15:46:48Z</time>
      </trkpt>
      <trkpt lat="44.96182" lon="5.45169">
        <ele>1220.9</ele>
        <time>2021-08-31T15:46:50Z</time>
      </trkpt>
      <trkpt lat="44.96177" lon="5.45172">
        <ele>1220.5</ele>
        <time>2021-08-31T15:46:51Z</time>
      </trkpt>
      <trkpt lat="44.96166" lon="5.45174">
        <ele>1219.6</ele>
        <time>2021-08-31T15:46:53Z</time>
      </trkpt>
      <trkpt lat="44.96154" lon="5.45171">
        <ele>1218.6</ele>
        <time>2021-08-31T15:46:55Z</time>
      </trkpt>
      <trkpt lat="44.96146" lon="5.45169">
        <ele>1218</ele>
        <time>2021-08-31T15:46:56Z</time>
      </trkpt>
      <trkpt lat="44.96129" lon="5.45165">
        <ele>1216.5</ele>
        <time>2021-08-31T15:46:58Z</time>
      </trkpt>
      <trkpt lat="44.9612" lon="5.45165">
        <ele>1215.8</ele>
        <time>2021-08-31T15:46:59Z</time>
      </trkpt>
      <trkpt lat="44.96103" lon="5.45168">
        <ele>1214.5</ele>
        <time>2021-08-31T15:47:01Z</time>
      </trkpt>
      <trkpt lat="44.96094" lon="5.45169">
        <ele>1214</ele>
        <time>2021-08-31T15:47:02Z</time>
      </trkpt>
      <trkpt lat="44.96076" lon="5.45171">
        <ele>1212.9</ele>
        <time>2021-08-31T15:47:04Z</time>
      </trkpt>
      <trkpt lat="44.96058" lon="5.45171">
        <ele>1211.9</ele>
        <time>2021-08-31T15:47:06Z</time>
      </trkpt>
      <trkpt lat="44.9604" lon="5.45172">
        <ele>1210.3</ele>
        <time>2021-08-31T15:47:08Z</time>
      </trkpt>
      <trkpt lat="44.96021" lon="5.45167">
        <ele>1208.6</ele>
        <time>2021-08-31T15:47:10Z</time>
      </trkpt>
      <trkpt lat="44.9601" lon="5.45161">
        <ele>1207.5</ele>
        <time>2021-08-31T15:47:11Z</time>
      </trkpt>
      <trkpt lat="44.95992" lon="5.45155">
        <ele>1205.7</ele>
        <time>2021-08-31T15:47:13Z</time>
      </trkpt>
      <trkpt lat="44.95983" lon="5.45154">
        <ele>1205</ele>
        <time>2021-08-31T15:47:14Z</time>
      </trkpt>
      <trkpt lat="44.95966" lon="5.45154">
        <ele>1204.6</ele>
        <time>2021-08-31T15:47:16Z</time>
      </trkpt>
      <trkpt lat="44.95958" lon="5.45154">
        <ele>1204.6</ele>
        <time>2021-08-31T15:47:17Z</time>
      </trkpt>
      <trkpt lat="44.95942" lon="5.45154">
        <ele>1203.7</ele>
        <time>2021-08-31T15:47:19Z</time>
      </trkpt>
      <trkpt lat="44.95935" lon="5.45155">
        <ele>1203.3</ele>
        <time>2021-08-31T15:47:20Z</time>
      </trkpt>
      <trkpt lat="44.95928" lon="5.45154">
        <ele>1203</ele>
        <time>2021-08-31T15:47:21Z</time>
      </trkpt>
      <trkpt lat="44.95914" lon="5.45152">
        <ele>1202.4</ele>
        <time>2021-08-31T15:47:23Z</time>
      </trkpt>
      <trkpt lat="44.95907" lon="5.45149">
        <ele>1202.2</ele>
        <time>2021-08-31T15:47:24Z</time>
      </trkpt>
      <trkpt lat="44.95892" lon="5.45144">
        <ele>1201.6</ele>
        <time>2021-08-31T15:47:26Z</time>
      </trkpt>
      <trkpt lat="44.95881" lon="5.45144">
        <ele>1201.2</ele>
        <time>2021-08-31T15:47:28Z</time>
      </trkpt>
      <trkpt lat="44.95876" lon="5.45142">
        <ele>1201</ele>
        <time>2021-08-31T15:47:29Z</time>
      </trkpt>
      <trkpt lat="44.95867" lon="5.45137">
        <ele>1200.6</ele>
        <time>2021-08-31T15:47:31Z</time>
      </trkpt>
      <trkpt lat="44.95856" lon="5.45132">
        <ele>1200.2</ele>
        <time>2021-08-31T15:47:33Z</time>
      </trkpt>
      <trkpt lat="44.95852" lon="5.45128">
        <ele>1200</ele>
        <time>2021-08-31T15:47:34Z</time>
      </trkpt>
      <trkpt lat="44.95847" lon="5.45124">
        <ele>1199.8</ele>
        <time>2021-08-31T15:47:35Z</time>
      </trkpt>
      <trkpt lat="44.95842" lon="5.45122">
        <ele>1199.6</ele>
        <time>2021-08-31T15:47:36Z</time>
      </trkpt>
      <trkpt lat="44.95838" lon="5.45121">
        <ele>1199.4</ele>
        <time>2021-08-31T15:47:37Z</time>
      </trkpt>
      <trkpt lat="44.95834" lon="5.45122">
        <ele>1199.3</ele>
        <time>2021-08-31T15:47:38Z</time>
      </trkpt>
      <trkpt lat="44.95822" lon="5.45125">
        <ele>1198.9</ele>
        <time>2021-08-31T15:47:40Z</time>
      </trkpt>
      <trkpt lat="44.95807" lon="5.45129">
        <ele>1198.3</ele>
        <time>2021-08-31T15:47:42Z</time>
      </trkpt>
      <trkpt lat="44.95799" lon="5.45133">
        <ele>1198</ele>
        <time>2021-08-31T15:47:43Z</time>
      </trkpt>
      <trkpt lat="44.95791" lon="5.45133">
        <ele>1197.7</ele>
        <time>2021-08-31T15:47:44Z</time>
      </trkpt>
      <trkpt lat="44.95776" lon="5.45134">
        <ele>1197.3</ele>
        <time>2021-08-31T15:47:46Z</time>
      </trkpt>
      <trkpt lat="44.95759" lon="5.45133">
        <ele>1197</ele>
        <time>2021-08-31T15:47:48Z</time>
      </trkpt>
      <trkpt lat="44.95741" lon="5.45133">
        <ele>1196.2</ele>
        <time>2021-08-31T15:47:50Z</time>
      </trkpt>
      <trkpt lat="44.95722" lon="5.45132">
        <ele>1195.1</ele>
        <time>2021-08-31T15:47:52Z</time>
      </trkpt>
      <trkpt lat="44.95712" lon="5.45132">
        <ele>1194.7</ele>
        <time>2021-08-31T15:47:53Z</time>
      </trkpt>
      <trkpt lat="44.95701" lon="5.4513">
        <ele>1194.4</ele>
        <time>2021-08-31T15:47:54Z</time>
      </trkpt>
      <trkpt lat="44.9568" lon="5.45131">
        <ele>1194.1</ele>
        <time>2021-08-31T15:47:56Z</time>
      </trkpt>
      <trkpt lat="44.95664" lon="5.45143">
        <ele>1194.1</ele>
        <time>2021-08-31T15:47:58Z</time>
      </trkpt>
      <trkpt lat="44.95659" lon="5.45149">
        <ele>1194</ele>
        <time>2021-08-31T15:47:59Z</time>
      </trkpt>
      <trkpt lat="44.95653" lon="5.4516">
        <ele>1193.9</ele>
        <time>2021-08-31T15:48:00Z</time>
      </trkpt>
      <trkpt lat="44.95641" lon="5.45177">
        <ele>1193.6</ele>
        <time>2021-08-31T15:48:02Z</time>
      </trkpt>
      <trkpt lat="44.95634" lon="5.45184">
        <ele>1193.4</ele>
        <time>2021-08-31T15:48:03Z</time>
      </trkpt>
      <trkpt lat="44.95627" lon="5.45187">
        <ele>1193.2</ele>
        <time>2021-08-31T15:48:04Z</time>
      </trkpt>
      <trkpt lat="44.95613" lon="5.4519">
        <ele>1192</ele>
        <time>2021-08-31T15:48:06Z</time>
      </trkpt>
      <trkpt lat="44.95602" lon="5.45202">
        <ele>1190.6</ele>
        <time>2021-08-31T15:48:08Z</time>
      </trkpt>
      <trkpt lat="44.95591" lon="5.45211">
        <ele>1189.1</ele>
        <time>2021-08-31T15:48:10Z</time>
      </trkpt>
      <trkpt lat="44.95585" lon="5.45214">
        <ele>1188.3</ele>
        <time>2021-08-31T15:48:11Z</time>
      </trkpt>
      <trkpt lat="44.95577" lon="5.45216">
        <ele>1187.3</ele>
        <time>2021-08-31T15:48:12Z</time>
      </trkpt>
      <trkpt lat="44.9557" lon="5.45217">
        <ele>1186.3</ele>
        <time>2021-08-31T15:48:13Z</time>
      </trkpt>
      <trkpt lat="44.95554" lon="5.45218">
        <ele>1184.3</ele>
        <time>2021-08-31T15:48:15Z</time>
      </trkpt>
      <trkpt lat="44.95537" lon="5.4522">
        <ele>1182.2</ele>
        <time>2021-08-31T15:48:17Z</time>
      </trkpt>
      <trkpt lat="44.95527" lon="5.45212">
        <ele>1180.8</ele>
        <time>2021-08-31T15:48:18Z</time>
      </trkpt>
      <trkpt lat="44.95517" lon="5.45204">
        <ele>1179.3</ele>
        <time>2021-08-31T15:48:19Z</time>
      </trkpt>
      <trkpt lat="44.95499" lon="5.45201">
        <ele>1176.9</ele>
        <time>2021-08-31T15:48:21Z</time>
      </trkpt>
      <trkpt lat="44.95479" lon="5.45205">
        <ele>1174.2</ele>
        <time>2021-08-31T15:48:23Z</time>
      </trkpt>
      <trkpt lat="44.9547" lon="5.45211">
        <ele>1172.7</ele>
        <time>2021-08-31T15:48:24Z</time>
      </trkpt>
      <trkpt lat="44.95455" lon="5.45227">
        <ele>1170.3</ele>
        <time>2021-08-31T15:48:26Z</time>
      </trkpt>
      <trkpt lat="44.95442" lon="5.45229">
        <ele>1168.6</ele>
        <time>2021-08-31T15:48:28Z</time>
      </trkpt>
      <trkpt lat="44.95436" lon="5.45228">
        <ele>1167.8</ele>
        <time>2021-08-31T15:48:29Z</time>
      </trkpt>
      <trkpt lat="44.95432" lon="5.45223">
        <ele>1167</ele>
        <time>2021-08-31T15:48:30Z</time>
      </trkpt>
      <trkpt lat="44.95425" lon="5.45213">
        <ele>1165.7</ele>
        <time>2021-08-31T15:48:33Z</time>
      </trkpt>
      <trkpt lat="44.95425" lon="5.45206">
        <ele>1165</ele>
        <time>2021-08-31T15:48:34Z</time>
      </trkpt>
      <trkpt lat="44.95423" lon="5.45197">
        <ele>1164.2</ele>
        <time>2021-08-31T15:48:35Z</time>
      </trkpt>
      <trkpt lat="44.9542" lon="5.45181">
        <ele>1162.7</ele>
        <time>2021-08-31T15:48:36Z</time>
      </trkpt>
      <trkpt lat="44.95407" lon="5.45148">
        <ele>1159.2</ele>
        <time>2021-08-31T15:48:38Z</time>
      </trkpt>
      <trkpt lat="44.95397" lon="5.45123">
        <ele>1156.7</ele>
        <time>2021-08-31T15:48:39Z</time>
      </trkpt>
      <trkpt lat="44.95377" lon="5.45069">
        <ele>1152.5</ele>
        <time>2021-08-31T15:48:41Z</time>
      </trkpt>
      <trkpt lat="44.95368" lon="5.45051">
        <ele>1151</ele>
        <time>2021-08-31T15:48:42Z</time>
      </trkpt>
      <trkpt lat="44.95353" lon="5.45029">
        <ele>1148.9</ele>
        <time>2021-08-31T15:48:44Z</time>
      </trkpt>
      <trkpt lat="44.95345" lon="5.4502">
        <ele>1148</ele>
        <time>2021-08-31T15:48:45Z</time>
      </trkpt>
      <trkpt lat="44.95337" lon="5.45013">
        <ele>1147.2</ele>
        <time>2021-08-31T15:48:46Z</time>
      </trkpt>
      <trkpt lat="44.95328" lon="5.45007">
        <ele>1146.4</ele>
        <time>2021-08-31T15:48:47Z</time>
      </trkpt>
      <trkpt lat="44.95316" lon="5.45006">
        <ele>1145.4</ele>
        <time>2021-08-31T15:48:48Z</time>
      </trkpt>
      <trkpt lat="44.95291" lon="5.45007">
        <ele>1143.3</ele>
        <time>2021-08-31T15:48:50Z</time>
      </trkpt>
      <trkpt lat="44.95283" lon="5.45004">
        <ele>1142.5</ele>
        <time>2021-08-31T15:48:51Z</time>
      </trkpt>
      <trkpt lat="44.9527" lon="5.44994">
        <ele>1141.3</ele>
        <time>2021-08-31T15:48:53Z</time>
      </trkpt>
      <trkpt lat="44.95266" lon="5.44989">
        <ele>1140.8</ele>
        <time>2021-08-31T15:48:54Z</time>
      </trkpt>
      <trkpt lat="44.95262" lon="5.44978">
        <ele>1140.1</ele>
        <time>2021-08-31T15:48:57Z</time>
      </trkpt>
      <trkpt lat="44.95266" lon="5.44969">
        <ele>1140</ele>
        <time>2021-08-31T15:48:58Z</time>
      </trkpt>
      <trkpt lat="44.95269" lon="5.4496">
        <ele>1139.7</ele>
        <time>2021-08-31T15:49:00Z</time>
      </trkpt>
      <trkpt lat="44.95275" lon="5.44952">
        <ele>1139.5</ele>
        <time>2021-08-31T15:49:02Z</time>
      </trkpt>
      <trkpt lat="44.95287" lon="5.44941">
        <ele>1139.1</ele>
        <time>2021-08-31T15:49:04Z</time>
      </trkpt>
      <trkpt lat="44.95292" lon="5.44937">
        <ele>1139</ele>
        <time>2021-08-31T15:49:05Z</time>
      </trkpt>
      <trkpt lat="44.95448" lon="5.45027">
        <ele>1134.7</ele>
        <time>2021-08-31T15:49:21Z</time>
      </trkpt>
      <trkpt lat="44.95454" lon="5.4503">
        <ele>1132.9</ele>
        <time>2021-08-31T15:49:22Z</time>
      </trkpt>
      <trkpt lat="44.9546" lon="5.45029">
        <ele>1131.8</ele>
        <time>2021-08-31T15:49:23Z</time>
      </trkpt>
      <trkpt lat="44.95471" lon="5.45023">
        <ele>1129.8</ele>
        <time>2021-08-31T15:49:25Z</time>
      </trkpt>
      <trkpt lat="44.95485" lon="5.45014">
        <ele>1127.2</ele>
        <time>2021-08-31T15:49:27Z</time>
      </trkpt>
      <trkpt lat="44.95498" lon="5.45006">
        <ele>1124.8</ele>
        <time>2021-08-31T15:49:29Z</time>
      </trkpt>
      <trkpt lat="44.95509" lon="5.44995">
        <ele>1122.5</ele>
        <time>2021-08-31T15:49:31Z</time>
      </trkpt>
      <trkpt lat="44.95515" lon="5.44982">
        <ele>1120.5</ele>
        <time>2021-08-31T15:49:32Z</time>
      </trkpt>
      <trkpt lat="44.95527" lon="5.44951">
        <ele>1116.1</ele>
        <time>2021-08-31T15:49:34Z</time>
      </trkpt>
      <trkpt lat="44.95532" lon="5.44938">
        <ele>1114.2</ele>
        <time>2021-08-31T15:49:35Z</time>
      </trkpt>
      <trkpt lat="44.95541" lon="5.4492">
        <ele>1111.1</ele>
        <time>2021-08-31T15:49:37Z</time>
      </trkpt>
      <trkpt lat="44.95546" lon="5.44913">
        <ele>1109.7</ele>
        <time>2021-08-31T15:49:38Z</time>
      </trkpt>
      <trkpt lat="44.95555" lon="5.44901">
        <ele>1107.1</ele>
        <time>2021-08-31T15:49:40Z</time>
      </trkpt>
      <trkpt lat="44.95564" lon="5.44892">
        <ele>1104.8</ele>
        <time>2021-08-31T15:49:42Z</time>
      </trkpt>
      <trkpt lat="44.95579" lon="5.44892">
        <ele>1102.1</ele>
        <time>2021-08-31T15:49:44Z</time>
      </trkpt>
      <trkpt lat="44.95596" lon="5.44892">
        <ele>1099</ele>
        <time>2021-08-31T15:49:46Z</time>
      </trkpt>
      <trkpt lat="44.95611" lon="5.44891">
        <ele>1098.2</ele>
        <time>2021-08-31T15:49:48Z</time>
      </trkpt>
      <trkpt lat="44.95619" lon="5.4489">
        <ele>1097.8</ele>
        <time>2021-08-31T15:49:49Z</time>
      </trkpt>
      <trkpt lat="44.95635" lon="5.4489">
        <ele>1096.9</ele>
        <time>2021-08-31T15:49:51Z</time>
      </trkpt>
      <trkpt lat="44.95642" lon="5.44889">
        <ele>1096.2</ele>
        <time>2021-08-31T15:49:52Z</time>
      </trkpt>
      <trkpt lat="44.9565" lon="5.44888">
        <ele>1095.3</ele>
        <time>2021-08-31T15:49:53Z</time>
      </trkpt>
      <trkpt lat="44.95666" lon="5.44882">
        <ele>1093.2</ele>
        <time>2021-08-31T15:49:55Z</time>
      </trkpt>
      <trkpt lat="44.95675" lon="5.44879">
        <ele>1092.4</ele>
        <time>2021-08-31T15:49:56Z</time>
      </trkpt>
      <trkpt lat="44.95684" lon="5.44879">
        <ele>1091.6</ele>
        <time>2021-08-31T15:49:58Z</time>
      </trkpt>
      <trkpt lat="44.95702" lon="5.44878">
        <ele>1089.5</ele>
        <time>2021-08-31T15:49:59Z</time>
      </trkpt>
      <trkpt lat="44.95712" lon="5.44877">
        <ele>1088.6</ele>
        <time>2021-08-31T15:50:00Z</time>
      </trkpt>
      <trkpt lat="44.95732" lon="5.44879">
        <ele>1087.4</ele>
        <time>2021-08-31T15:50:02Z</time>
      </trkpt>
      <trkpt lat="44.95754" lon="5.4488">
        <ele>1085.4</ele>
        <time>2021-08-31T15:50:04Z</time>
      </trkpt>
      <trkpt lat="44.95774" lon="5.44877">
        <ele>1083.8</ele>
        <time>2021-08-31T15:50:06Z</time>
      </trkpt>
      <trkpt lat="44.95793" lon="5.44867">
        <ele>1082.5</ele>
        <time>2021-08-31T15:50:08Z</time>
      </trkpt>
      <trkpt lat="44.95813" lon="5.44857">
        <ele>1079.5</ele>
        <time>2021-08-31T15:50:10Z</time>
      </trkpt>
      <trkpt lat="44.95823" lon="5.44852">
        <ele>1078.3</ele>
        <time>2021-08-31T15:50:11Z</time>
      </trkpt>
      <trkpt lat="44.95833" lon="5.44849">
        <ele>1077.4</ele>
        <time>2021-08-31T15:50:12Z</time>
      </trkpt>
      <trkpt lat="44.95856" lon="5.44843">
        <ele>1075.4</ele>
        <time>2021-08-31T15:50:14Z</time>
      </trkpt>
      <trkpt lat="44.95881" lon="5.44835">
        <ele>1072.8</ele>
        <time>2021-08-31T15:50:16Z</time>
      </trkpt>
      <trkpt lat="44.9589" lon="5.44829">
        <ele>1072.3</ele>
        <time>2021-08-31T15:50:17Z</time>
      </trkpt>
      <trkpt lat="44.959" lon="5.44824">
        <ele>1072.1</ele>
        <time>2021-08-31T15:50:18Z</time>
      </trkpt>
      <trkpt lat="44.9592" lon="5.44819">
        <ele>1072.4</ele>
        <time>2021-08-31T15:50:20Z</time>
      </trkpt>
      <trkpt lat="44.9593" lon="5.44817">
        <ele>1072.7</ele>
        <time>2021-08-31T15:50:21Z</time>
      </trkpt>
      <trkpt lat="44.95941" lon="5.44815">
        <ele>1072.8</ele>
        <time>2021-08-31T15:50:22Z</time>
      </trkpt>
      <trkpt lat="44.95954" lon="5.44814">
        <ele>1072.4</ele>
        <time>2021-08-31T15:50:23Z</time>
      </trkpt>
      <trkpt lat="44.95967" lon="5.44812">
        <ele>1071</ele>
        <time>2021-08-31T15:50:25Z</time>
      </trkpt>
      <trkpt lat="44.95995" lon="5.44812">
        <ele>1067.4</ele>
        <time>2021-08-31T15:50:26Z</time>
      </trkpt>
      <trkpt lat="44.9601" lon="5.44811">
        <ele>1066.4</ele>
        <time>2021-08-31T15:50:27Z</time>
      </trkpt>
      <trkpt lat="44.96036" lon="5.44807">
        <ele>1064.4</ele>
        <time>2021-08-31T15:50:29Z</time>
      </trkpt>
      <trkpt lat="44.96048" lon="5.44805">
        <ele>1064</ele>
        <time>2021-08-31T15:50:30Z</time>
      </trkpt>
      <trkpt lat="44.96072" lon="5.44797">
        <ele>1062.1</ele>
        <time>2021-08-31T15:50:32Z</time>
      </trkpt>
      <trkpt lat="44.96094" lon="5.44786">
        <ele>1060.3</ele>
        <time>2021-08-31T15:50:34Z</time>
      </trkpt>
      <trkpt lat="44.96116" lon="5.44779">
        <ele>1058.8</ele>
        <time>2021-08-31T15:50:36Z</time>
      </trkpt>
      <trkpt lat="44.96128" lon="5.44775">
        <ele>1057.5</ele>
        <time>2021-08-31T15:50:37Z</time>
      </trkpt>
      <trkpt lat="44.96139" lon="5.44771">
        <ele>1056.4</ele>
        <time>2021-08-31T15:50:38Z</time>
      </trkpt>
      <trkpt lat="44.9616" lon="5.44755">
        <ele>1054.6</ele>
        <time>2021-08-31T15:50:40Z</time>
      </trkpt>
      <trkpt lat="44.96181" lon="5.44743">
        <ele>1052.6</ele>
        <time>2021-08-31T15:50:42Z</time>
      </trkpt>
      <trkpt lat="44.96201" lon="5.4473">
        <ele>1051.6</ele>
        <time>2021-08-31T15:50:44Z</time>
      </trkpt>
      <trkpt lat="44.9622" lon="5.44717">
        <ele>1050.1</ele>
        <time>2021-08-31T15:50:47Z</time>
      </trkpt>
      <trkpt lat="44.96242" lon="5.44706">
        <ele>1048.3</ele>
        <time>2021-08-31T15:50:48Z</time>
      </trkpt>
      <trkpt lat="44.96252" lon="5.447">
        <ele>1047.8</ele>
        <time>2021-08-31T15:50:49Z</time>
      </trkpt>
      <trkpt lat="44.96261" lon="5.44695">
        <ele>1047.4</ele>
        <time>2021-08-31T15:50:50Z</time>
      </trkpt>
      <trkpt lat="44.96281" lon="5.44691">
        <ele>1046.7</ele>
        <time>2021-08-31T15:50:52Z</time>
      </trkpt>
      <trkpt lat="44.96291" lon="5.44694">
        <ele>1046.4</ele>
        <time>2021-08-31T15:50:53Z</time>
      </trkpt>
      <trkpt lat="44.96302" lon="5.44696">
        <ele>1046.1</ele>
        <time>2021-08-31T15:50:54Z</time>
      </trkpt>
      <trkpt lat="44.96325" lon="5.44697">
        <ele>1044.7</ele>
        <time>2021-08-31T15:50:56Z</time>
      </trkpt>
      <trkpt lat="44.96336" lon="5.44696">
        <ele>1044</ele>
        <time>2021-08-31T15:50:57Z</time>
      </trkpt>
      <trkpt lat="44.96345" lon="5.44694">
        <ele>1043.6</ele>
        <time>2021-08-31T15:50:58Z</time>
      </trkpt>
      <trkpt lat="44.96356" lon="5.44686">
        <ele>1043</ele>
        <time>2021-08-31T15:51:00Z</time>
      </trkpt>
      <trkpt lat="44.96356" lon="5.44681">
        <ele>1042.8</ele>
        <time>2021-08-31T15:51:02Z</time>
      </trkpt>
      <trkpt lat="44.9636" lon="5.44679">
        <ele>1042.6</ele>
        <time>2021-08-31T15:51:04Z</time>
      </trkpt>
      <trkpt lat="44.9636" lon="5.44679">
        <ele>1042.6</ele>
        <time>2021-08-31T15:51:05Z</time>
      </trkpt>
      <trkpt lat="44.96366" lon="5.44676">
        <ele>1042.2</ele>
        <time>2021-08-31T15:51:07Z</time>
      </trkpt>
      <trkpt lat="44.96373" lon="5.44673">
        <ele>1041.9</ele>
        <time>2021-08-31T15:51:09Z</time>
      </trkpt>
      <trkpt lat="44.96373" lon="5.44673">
        <ele>1041.9</ele>
        <time>2021-08-31T15:51:11Z</time>
      </trkpt>
      <trkpt lat="44.98288" lon="5.44728">
        <ele>862.2</ele>
        <time>2021-08-31T15:56:02Z</time>
      </trkpt>
      <trkpt lat="44.98295" lon="5.44726">
        <ele>861.4</ele>
        <time>2021-08-31T15:56:03Z</time>
      </trkpt>
      <trkpt lat="44.98305" lon="5.44724">
        <ele>860.5</ele>
        <time>2021-08-31T15:56:04Z</time>
      </trkpt>
      <trkpt lat="44.98314" lon="5.4472">
        <ele>859.7</ele>
        <time>2021-08-31T15:56:05Z</time>
      </trkpt>
      <trkpt lat="44.98322" lon="5.44717">
        <ele>859</ele>
        <time>2021-08-31T15:56:06Z</time>
      </trkpt>
      <trkpt lat="44.98331" lon="5.44714">
        <ele>858.3</ele>
        <time>2021-08-31T15:56:07Z</time>
      </trkpt>
      <trkpt lat="44.98352" lon="5.44713">
        <ele>856.8</ele>
        <time>2021-08-31T15:56:09Z</time>
      </trkpt>
      <trkpt lat="44.98374" lon="5.44711">
        <ele>855</ele>
        <time>2021-08-31T15:56:11Z</time>
      </trkpt>
      <trkpt lat="44.98385" lon="5.44711">
        <ele>853.9</ele>
        <time>2021-08-31T15:56:12Z</time>
      </trkpt>
      <trkpt lat="44.98404" lon="5.44711">
        <ele>852.1</ele>
        <time>2021-08-31T15:56:14Z</time>
      </trkpt>
      <trkpt lat="44.98417" lon="5.44706">
        <ele>851.2</ele>
        <time>2021-08-31T15:56:16Z</time>
      </trkpt>
      <trkpt lat="44.98423" lon="5.44699">
        <ele>850.6</ele>
        <time>2021-08-31T15:56:17Z</time>
      </trkpt>
      <trkpt lat="44.9843" lon="5.44692">
        <ele>849.9</ele>
        <time>2021-08-31T15:56:18Z</time>
      </trkpt>
      <trkpt lat="44.98427" lon="5.44687">
        <ele>849.5</ele>
        <time>2021-08-31T15:56:19Z</time>
      </trkpt>
      <trkpt lat="44.98425" lon="5.44685">
        <ele>849.3</ele>
        <time>2021-08-31T15:56:20Z</time>
      </trkpt>
      <trkpt lat="44.98425" lon="5.4468">
        <ele>849</ele>
        <time>2021-08-31T15:56:22Z</time>
      </trkpt>
      <trkpt lat="44.9843" lon="5.44676">
        <ele>848.5</ele>
        <time>2021-08-31T15:56:23Z</time>
      </trkpt>
      <trkpt lat="44.98436" lon="5.44672">
        <ele>848</ele>
        <time>2021-08-31T15:56:24Z</time>
      </trkpt>
      <trkpt lat="44.98444" lon="5.44665">
        <ele>847.2</ele>
        <time>2021-08-31T15:56:26Z</time>
      </trkpt>
      <trkpt lat="44.9845" lon="5.44656">
        <ele>846.4</ele>
        <time>2021-08-31T15:56:27Z</time>
      </trkpt>
      <trkpt lat="44.98455" lon="5.44647">
        <ele>845.8</ele>
        <time>2021-08-31T15:56:28Z</time>
      </trkpt>
      <trkpt lat="44.98469" lon="5.44618">
        <ele>843.8</ele>
        <time>2021-08-31T15:56:30Z</time>
      </trkpt>
      <trkpt lat="44.9848" lon="5.44596">
        <ele>841.8</ele>
        <time>2021-08-31T15:56:32Z</time>
      </trkpt>
      <trkpt lat="44.98487" lon="5.44597">
        <ele>841.2</ele>
        <time>2021-08-31T15:56:33Z</time>
      </trkpt>
      <trkpt lat="44.98498" lon="5.44611">
        <ele>839.9</ele>
        <time>2021-08-31T15:56:35Z</time>
      </trkpt>
      <trkpt lat="44.98505" lon="5.4462">
        <ele>839.1</ele>
        <time>2021-08-31T15:56:36Z</time>
      </trkpt>
      <trkpt lat="44.98517" lon="5.44638">
        <ele>837.6</ele>
        <time>2021-08-31T15:56:38Z</time>
      </trkpt>
      <trkpt lat="44.98523" lon="5.44646">
        <ele>836.9</ele>
        <time>2021-08-31T15:56:39Z</time>
      </trkpt>
      <trkpt lat="44.98531" lon="5.44659">
        <ele>835.8</ele>
        <time>2021-08-31T15:56:40Z</time>
      </trkpt>
      <trkpt lat="44.98547" lon="5.4468">
        <ele>833.8</ele>
        <time>2021-08-31T15:56:42Z</time>
      </trkpt>
      <trkpt lat="44.98555" lon="5.44687">
        <ele>832.9</ele>
        <time>2021-08-31T15:56:43Z</time>
      </trkpt>
      <trkpt lat="44.98563" lon="5.44693">
        <ele>832.2</ele>
        <time>2021-08-31T15:56:44Z</time>
      </trkpt>
      <trkpt lat="44.98571" lon="5.44699">
        <ele>831.4</ele>
        <time>2021-08-31T15:56:45Z</time>
      </trkpt>
      <trkpt lat="44.98591" lon="5.44705">
        <ele>829.6</ele>
        <time>2021-08-31T15:56:47Z</time>
      </trkpt>
      <trkpt lat="44.98612" lon="5.44706">
        <ele>827.9</ele>
        <time>2021-08-31T15:56:49Z</time>
      </trkpt>
      <trkpt lat="44.98622" lon="5.44705">
        <ele>827.2</ele>
        <time>2021-08-31T15:56:50Z</time>
      </trkpt>
      <trkpt lat="44.98643" lon="5.44703">
        <ele>821.3</ele>
        <time>2021-08-31T15:56:52Z</time>
      </trkpt>
      <trkpt lat="44.98653" lon="5.44702">
        <ele>815.2</ele>
        <time>2021-08-31T15:56:53Z</time>
      </trkpt>
      <trkpt lat="44.98672" lon="5.447">
        <ele>815.9</ele>
        <time>2021-08-31T15:56:55Z</time>
      </trkpt>
      <trkpt lat="44.98679" lon="5.447">
        <ele>816.2</ele>
        <time>2021-08-31T15:56:56Z</time>
      </trkpt>
      <trkpt lat="44.98692" lon="5.44696">
        <ele>817</ele>
        <time>2021-08-31T15:56:58Z</time>
      </trkpt>
      <trkpt lat="44.98698" lon="5.44692">
        <ele>817.5</ele>
        <time>2021-08-31T15:56:59Z</time>
      </trkpt>
      <trkpt lat="44.98703" lon="5.44687">
        <ele>818</ele>
        <time>2021-08-31T15:57:00Z</time>
      </trkpt>
      <trkpt lat="44.98706" lon="5.44682">
        <ele>818.4</ele>
        <time>2021-08-31T15:57:01Z</time>
      </trkpt>
      <trkpt lat="44.98709" lon="5.44677">
        <ele>818.8</ele>
        <time>2021-08-31T15:57:02Z</time>
      </trkpt>
      <trkpt lat="44.98705" lon="5.44674">
        <ele>819.2</ele>
        <time>2021-08-31T15:57:04Z</time>
      </trkpt>
      <trkpt lat="44.98699" lon="5.44676">
        <ele>819.7</ele>
        <time>2021-08-31T15:57:06Z</time>
      </trkpt>
      <trkpt lat="44.98688" lon="5.44674">
        <ele>818.1</ele>
        <time>2021-08-31T15:57:08Z</time>
      </trkpt>
      <trkpt lat="44.98676" lon="5.44672">
        <ele>816.7</ele>
        <time>2021-08-31T15:57:10Z</time>
      </trkpt>
      <trkpt lat="44.98672" lon="5.44671">
        <ele>816.3</ele>
        <time>2021-08-31T15:57:11Z</time>
      </trkpt>
      <trkpt lat="44.98658" lon="5.44667">
        <ele>815.3</ele>
        <time>2021-08-31T15:57:12Z</time>
      </trkpt>
      <trkpt lat="44.98648" lon="5.44664">
        <ele>814.8</ele>
        <time>2021-08-31T15:57:14Z</time>
      </trkpt>
      <trkpt lat="44.98638" lon="5.4466">
        <ele>814.4</ele>
        <time>2021-08-31T15:57:15Z</time>
      </trkpt>
      <trkpt lat="44.98621" lon="5.4465">
        <ele>812.8</ele>
        <time>2021-08-31T15:57:17Z</time>
      </trkpt>
      <trkpt lat="44.98613" lon="5.44647">
        <ele>812</ele>
        <time>2021-08-31T15:57:18Z</time>
      </trkpt>
      <trkpt lat="44.98598" lon="5.44641">
        <ele>810.5</ele>
        <time>2021-08-31T15:57:20Z</time>
      </trkpt>
      <trkpt lat="44.98582" lon="5.44629">
        <ele>809.1</ele>
        <time>2021-08-31T15:57:22Z</time>
      </trkpt>
      <trkpt lat="44.98576" lon="5.44616">
        <ele>808.1</ele>
        <time>2021-08-31T15:57:23Z</time>
      </trkpt>
      <trkpt lat="44.98561" lon="5.4459">
        <ele>805.7</ele>
        <time>2021-08-31T15:57:25Z</time>
      </trkpt>
      <trkpt lat="44.98553" lon="5.44581">
        <ele>804.6</ele>
        <time>2021-08-31T15:57:26Z</time>
      </trkpt>
      <trkpt lat="44.98541" lon="5.44565">
        <ele>802.9</ele>
        <time>2021-08-31T15:57:28Z</time>
      </trkpt>
      <trkpt lat="44.98535" lon="5.44555">
        <ele>801.9</ele>
        <time>2021-08-31T15:57:29Z</time>
      </trkpt>
      <trkpt lat="44.9853" lon="5.44543">
        <ele>800.9</ele>
        <time>2021-08-31T15:57:30Z</time>
      </trkpt>
      <trkpt lat="44.98521" lon="5.44516">
        <ele>798.5</ele>
        <time>2021-08-31T15:57:32Z</time>
      </trkpt>
      <trkpt lat="44.9852" lon="5.44503">
        <ele>797.3</ele>
        <time>2021-08-31T15:57:33Z</time>
      </trkpt>
      <trkpt lat="44.98519" lon="5.44467">
        <ele>794.6</ele>
        <time>2021-08-31T15:57:35Z</time>
      </trkpt>
      <trkpt lat="44.98518" lon="5.44439">
        <ele>792.8</ele>
        <time>2021-08-31T15:57:37Z</time>
      </trkpt>
      <trkpt lat="44.98513" lon="5.44427">
        <ele>792</ele>
        <time>2021-08-31T15:57:38Z</time>
      </trkpt>
      <trkpt lat="44.98502" lon="5.44411">
        <ele>790.8</ele>
        <time>2021-08-31T15:57:40Z</time>
      </trkpt>
      <trkpt lat="44.98497" lon="5.44406">
        <ele>790.4</ele>
        <time>2021-08-31T15:57:41Z</time>
      </trkpt>
      <trkpt lat="44.98491" lon="5.44401">
        <ele>789.9</ele>
        <time>2021-08-31T15:57:42Z</time>
      </trkpt>
      <trkpt lat="44.98478" lon="5.44394">
        <ele>788.8</ele>
        <time>2021-08-31T15:57:44Z</time>
      </trkpt>
      <trkpt lat="44.98467" lon="5.4439">
        <ele>787.9</ele>
        <time>2021-08-31T15:57:46Z</time>
      </trkpt>
      <trkpt lat="44.98464" lon="5.4439">
        <ele>787.7</ele>
        <time>2021-08-31T15:57:47Z</time>
      </trkpt>
      <trkpt lat="44.98461" lon="5.44391">
        <ele>787.4</ele>
        <time>2021-08-31T15:57:49Z</time>
      </trkpt>
      <trkpt lat="44.98459" lon="5.44392">
        <ele>787.3</ele>
        <time>2021-08-31T15:57:50Z</time>
      </trkpt>
      <trkpt lat="44.98455" lon="5.44392">
        <ele>786.9</ele>
        <time>2021-08-31T15:57:52Z</time>
      </trkpt>
      <trkpt lat="44.98453" lon="5.44393">
        <ele>786.8</ele>
        <time>2021-08-31T15:57:53Z</time>
      </trkpt>
      <trkpt lat="44.98452" lon="5.44395">
        <ele>786.6</ele>
        <time>2021-08-31T15:57:54Z</time>
      </trkpt>
      <trkpt lat="44.9845" lon="5.44398">
        <ele>786.3</ele>
        <time>2021-08-31T15:57:56Z</time>
      </trkpt>
      <trkpt lat="44.98445" lon="5.444">
        <ele>785.9</ele>
        <time>2021-08-31T15:57:58Z</time>
      </trkpt>
      <trkpt lat="44.9844" lon="5.44406">
        <ele>785.3</ele>
        <time>2021-08-31T15:58:00Z</time>
      </trkpt>
      <trkpt lat="44.98438" lon="5.4441">
        <ele>784.9</ele>
        <time>2021-08-31T15:58:01Z</time>
      </trkpt>
      <trkpt lat="44.98434" lon="5.44426">
        <ele>783.9</ele>
        <time>2021-08-31T15:58:03Z</time>
      </trkpt>
      <trkpt lat="44.9843" lon="5.44432">
        <ele>783.5</ele>
        <time>2021-08-31T15:58:04Z</time>
      </trkpt>
      <trkpt lat="44.98427" lon="5.44438">
        <ele>783.1</ele>
        <time>2021-08-31T15:58:05Z</time>
      </trkpt>
      <trkpt lat="44.98424" lon="5.44444">
        <ele>782.8</ele>
        <time>2021-08-31T15:58:06Z</time>
      </trkpt>
      <trkpt lat="44.9842" lon="5.44448">
        <ele>782.5</ele>
        <time>2021-08-31T15:58:07Z</time>
      </trkpt>
      <trkpt lat="44.98408" lon="5.44455">
        <ele>781.7</ele>
        <time>2021-08-31T15:58:09Z</time>
      </trkpt>
      <trkpt lat="44.98394" lon="5.44456">
        <ele>780.7</ele>
        <time>2021-08-31T15:58:11Z</time>
      </trkpt>
      <trkpt lat="44.98378" lon="5.44454">
        <ele>779.9</ele>
        <time>2021-08-31T15:58:13Z</time>
      </trkpt>
      <trkpt lat="44.98371" lon="5.44451">
        <ele>779.5</ele>
        <time>2021-08-31T15:58:14Z</time>
      </trkpt>
      <trkpt lat="44.98357" lon="5.44446">
        <ele>779</ele>
        <time>2021-08-31T15:58:16Z</time>
      </trkpt>
      <trkpt lat="44.98351" lon="5.44445">
        <ele>778.8</ele>
        <time>2021-08-31T15:58:17Z</time>
      </trkpt>
      <trkpt lat="44.98344" lon="5.44443">
        <ele>778.5</ele>
        <time>2021-08-31T15:58:18Z</time>
      </trkpt>
      <trkpt lat="44.98331" lon="5.44439">
        <ele>778</ele>
        <time>2021-08-31T15:58:20Z</time>
      </trkpt>
      <trkpt lat="44.98317" lon="5.44443">
        <ele>777.5</ele>
        <time>2021-08-31T15:58:22Z</time>
      </trkpt>
      <trkpt lat="44.9831" lon="5.44446">
        <ele>777.1</ele>
        <time>2021-08-31T15:58:23Z</time>
      </trkpt>
      <trkpt lat="44.98303" lon="5.44448">
        <ele>776.8</ele>
        <time>2021-08-31T15:58:24Z</time>
      </trkpt>
      <trkpt lat="44.98289" lon="5.44447">
        <ele>776.3</ele>
        <time>2021-08-31T15:58:26Z</time>
      </trkpt>
      <trkpt lat="44.98277" lon="5.44452">
        <ele>775.7</ele>
        <time>2021-08-31T15:58:28Z</time>
      </trkpt>
      <trkpt lat="44.98267" lon="5.44457">
        <ele>774.9</ele>
        <time>2021-08-31T15:58:30Z</time>
      </trkpt>
      <trkpt lat="44.98263" lon="5.4446">
        <ele>774.7</ele>
        <time>2021-08-31T15:58:31Z</time>
      </trkpt>
      <trkpt lat="44.98259" lon="5.44465">
        <ele>774.4</ele>
        <time>2021-08-31T15:58:33Z</time>
      </trkpt>
      <trkpt lat="44.98255" lon="5.44456">
        <ele>774.1</ele>
        <time>2021-08-31T15:58:35Z</time>
      </trkpt>
      <trkpt lat="44.98252" lon="5.44448">
        <ele>773.8</ele>
        <time>2021-08-31T15:58:36Z</time>
      </trkpt>
      <trkpt lat="44.98252" lon="5.44425">
        <ele>773.1</ele>
        <time>2021-08-31T15:58:38Z</time>
      </trkpt>
      <trkpt lat="44.98252" lon="5.44409">
        <ele>772.6</ele>
        <time>2021-08-31T15:58:39Z</time>
      </trkpt>
      <trkpt lat="44.98253" lon="5.44397">
        <ele>772.3</ele>
        <time>2021-08-31T15:58:41Z</time>
      </trkpt>
      <trkpt lat="44.98265" lon="5.44344">
        <ele>770.4</ele>
        <time>2021-08-31T15:58:44Z</time>
      </trkpt>
      <trkpt lat="44.98272" lon="5.44318">
        <ele>769.5</ele>
        <time>2021-08-31T15:58:46Z</time>
      </trkpt>
      <trkpt lat="44.98276" lon="5.443">
        <ele>768.9</ele>
        <time>2021-08-31T15:58:48Z</time>
      </trkpt>
      <trkpt lat="44.98275" lon="5.44287">
        <ele>768.4</ele>
        <time>2021-08-31T15:58:50Z</time>
      </trkpt>
      <trkpt lat="44.98274" lon="5.44283">
        <ele>768.3</ele>
        <time>2021-08-31T15:58:51Z</time>
      </trkpt>
      <trkpt lat="44.9827" lon="5.44284">
        <ele>768.1</ele>
        <time>2021-08-31T15:58:53Z</time>
      </trkpt>
      <trkpt lat="44.98264" lon="5.44289">
        <ele>767.7</ele>
        <time>2021-08-31T15:58:54Z</time>
      </trkpt>
      <trkpt lat="44.98246" lon="5.44305">
        <ele>766.7</ele>
        <time>2021-08-31T15:58:56Z</time>
      </trkpt>
      <trkpt lat="44.98226" lon="5.44324">
        <ele>765.8</ele>
        <time>2021-08-31T15:58:58Z</time>
      </trkpt>
      <trkpt lat="44.9821" lon="5.44334">
        <ele>765.3</ele>
        <time>2021-08-31T15:59:00Z</time>
      </trkpt>
      <trkpt lat="44.98195" lon="5.44338">
        <ele>764.7</ele>
        <time>2021-08-31T15:59:02Z</time>
      </trkpt>
      <trkpt lat="44.98178" lon="5.44332">
        <ele>764.1</ele>
        <time>2021-08-31T15:59:04Z</time>
      </trkpt>
      <trkpt lat="44.9817" lon="5.44327">
        <ele>763.7</ele>
        <time>2021-08-31T15:59:05Z</time>
      </trkpt>
      <trkpt lat="44.98162" lon="5.4432">
        <ele>763.4</ele>
        <time>2021-08-31T15:59:06Z</time>
      </trkpt>
      <trkpt lat="44.98151" lon="5.44303">
        <ele>762.8</ele>
        <time>2021-08-31T15:59:08Z</time>
      </trkpt>
      <trkpt lat="44.98139" lon="5.44287">
        <ele>762.1</ele>
        <time>2021-08-31T15:59:10Z</time>
      </trkpt>
      <trkpt lat="44.98131" lon="5.44278">
        <ele>761.7</ele>
        <time>2021-08-31T15:59:11Z</time>
      </trkpt>
      <trkpt lat="44.98118" lon="5.44262">
        <ele>760.9</ele>
        <time>2021-08-31T15:59:13Z</time>
      </trkpt>
      <trkpt lat="44.98113" lon="5.44254">
        <ele>760.6</ele>
        <time>2021-08-31T15:59:14Z</time>
      </trkpt>
      <trkpt lat="44.98108" lon="5.44247">
        <ele>760.3</ele>
        <time>2021-08-31T15:59:15Z</time>
      </trkpt>
      <trkpt lat="44.98103" lon="5.44235">
        <ele>759.9</ele>
        <time>2021-08-31T15:59:17Z</time>
      </trkpt>
      <trkpt lat="44.98102" lon="5.44229">
        <ele>759.7</ele>
        <time>2021-08-31T15:59:18Z</time>
      </trkpt>
      <trkpt lat="44.98102" lon="5.44223">
        <ele>759.5</ele>
        <time>2021-08-31T15:59:19Z</time>
      </trkpt>
      <trkpt lat="44.98104" lon="5.44212">
        <ele>759.2</ele>
        <time>2021-08-31T15:59:21Z</time>
      </trkpt>
      <trkpt lat="44.98108" lon="5.44211">
        <ele>759</ele>
        <time>2021-08-31T15:59:22Z</time>
      </trkpt>
      <trkpt lat="44.98109" lon="5.44212">
        <ele>759</ele>
        <time>2021-08-31T15:59:23Z</time>
      </trkpt>
      <trkpt lat="44.98114" lon="5.44216">
        <ele>758.7</ele>
        <time>2021-08-31T15:59:24Z</time>
      </trkpt>
      <trkpt lat="44.98128" lon="5.44225">
        <ele>758.1</ele>
        <time>2021-08-31T15:59:26Z</time>
      </trkpt>
      <trkpt lat="44.98144" lon="5.44231">
        <ele>757.4</ele>
        <time>2021-08-31T15:59:28Z</time>
      </trkpt>
      <trkpt lat="44.98153" lon="5.44233">
        <ele>757</ele>
        <time>2021-08-31T15:59:29Z</time>
      </trkpt>
      <trkpt lat="44.98171" lon="5.4423">
        <ele>756</ele>
        <time>2021-08-31T15:59:31Z</time>
      </trkpt>
      <trkpt lat="44.98181" lon="5.44228">
        <ele>755.5</ele>
        <time>2021-08-31T15:59:32Z</time>
      </trkpt>
      <trkpt lat="44.98199" lon="5.44222">
        <ele>754.5</ele>
        <time>2021-08-31T15:59:34Z</time>
      </trkpt>
      <trkpt lat="44.98209" lon="5.44217">
        <ele>754</ele>
        <time>2021-08-31T15:59:35Z</time>
      </trkpt>
      <trkpt lat="44.98217" lon="5.44211">
        <ele>753.6</ele>
        <time>2021-08-31T15:59:36Z</time>
      </trkpt>
      <trkpt lat="44.98232" lon="5.44194">
        <ele>752.7</ele>
        <time>2021-08-31T15:59:38Z</time>
      </trkpt>
      <trkpt lat="44.98243" lon="5.44175">
        <ele>752</ele>
        <time>2021-08-31T15:59:40Z</time>
      </trkpt>
      <trkpt lat="44.98249" lon="5.44168">
        <ele>751.6</ele>
        <time>2021-08-31T15:59:41Z</time>
      </trkpt>
      <trkpt lat="44.9826" lon="5.44157">
        <ele>751</ele>
        <time>2021-08-31T15:59:43Z</time>
      </trkpt>
      <trkpt lat="44.98264" lon="5.44152">
        <ele>750.7</ele>
        <time>2021-08-31T15:59:44Z</time>
      </trkpt>
      <trkpt lat="44.98266" lon="5.44146">
        <ele>750.4</ele>
        <time>2021-08-31T15:59:45Z</time>
      </trkpt>
      <trkpt lat="44.98267" lon="5.44138">
        <ele>750.1</ele>
        <time>2021-08-31T15:59:47Z</time>
      </trkpt>
      <trkpt lat="44.98266" lon="5.44137">
        <ele>750.1</ele>
        <time>2021-08-31T15:59:48Z</time>
      </trkpt>
      <trkpt lat="44.98258" lon="5.44139">
        <ele>749.7</ele>
        <time>2021-08-31T15:59:50Z</time>
      </trkpt>
      <trkpt lat="44.98242" lon="5.44145">
        <ele>749.1</ele>
        <time>2021-08-31T15:59:52Z</time>
      </trkpt>
      <trkpt lat="44.98226" lon="5.44147">
        <ele>748.5</ele>
        <time>2021-08-31T15:59:54Z</time>
      </trkpt>
      <trkpt lat="44.98211" lon="5.44141">
        <ele>748</ele>
        <time>2021-08-31T15:59:56Z</time>
      </trkpt>
      <trkpt lat="44.98198" lon="5.44126">
        <ele>747.2</ele>
        <time>2021-08-31T15:59:58Z</time>
      </trkpt>
      <trkpt lat="44.98186" lon="5.44108">
        <ele>746.4</ele>
        <time>2021-08-31T16:00:00Z</time>
      </trkpt>
      <trkpt lat="44.98174" lon="5.4409">
        <ele>745.6</ele>
        <time>2021-08-31T16:00:02Z</time>
      </trkpt>
      <trkpt lat="44.98162" lon="5.44072">
        <ele>744.8</ele>
        <time>2021-08-31T16:00:04Z</time>
      </trkpt>
      <trkpt lat="44.98155" lon="5.44063">
        <ele>744.4</ele>
        <time>2021-08-31T16:00:05Z</time>
      </trkpt>
      <trkpt lat="44.98149" lon="5.44055">
        <ele>744</ele>
        <time>2021-08-31T16:00:06Z</time>
      </trkpt>
      <trkpt lat="44.98137" lon="5.44042">
        <ele>743.3</ele>
        <time>2021-08-31T16:00:08Z</time>
      </trkpt>
      <trkpt lat="44.9813" lon="5.44038">
        <ele>742.9</ele>
        <time>2021-08-31T16:00:09Z</time>
      </trkpt>
      <trkpt lat="44.98117" lon="5.44032">
        <ele>742.2</ele>
        <time>2021-08-31T16:00:11Z</time>
      </trkpt>
      <trkpt lat="44.98112" lon="5.44029">
        <ele>741.9</ele>
        <time>2021-08-31T16:00:12Z</time>
      </trkpt>
      <trkpt lat="44.98102" lon="5.4402">
        <ele>741.2</ele>
        <time>2021-08-31T16:00:14Z</time>
      </trkpt>
      <trkpt lat="44.98095" lon="5.44006">
        <ele>740.3</ele>
        <time>2021-08-31T16:00:16Z</time>
      </trkpt>
      <trkpt lat="44.98093" lon="5.43998">
        <ele>739.8</ele>
        <time>2021-08-31T16:00:17Z</time>
      </trkpt>
      <trkpt lat="44.98093" lon="5.43988">
        <ele>739.3</ele>
        <time>2021-08-31T16:00:18Z</time>
      </trkpt>
      <trkpt lat="44.98094" lon="5.43978">
        <ele>738.7</ele>
        <time>2021-08-31T16:00:19Z</time>
      </trkpt>
      <trkpt lat="44.98096" lon="5.43966">
        <ele>738.2</ele>
        <time>2021-08-31T16:00:20Z</time>
      </trkpt>
      <trkpt lat="44.98103" lon="5.43943">
        <ele>737.1</ele>
        <time>2021-08-31T16:00:22Z</time>
      </trkpt>
      <trkpt lat="44.98108" lon="5.43931">
        <ele>736.6</ele>
        <time>2021-08-31T16:00:23Z</time>
      </trkpt>
      <trkpt lat="44.98113" lon="5.43918">
        <ele>736.1</ele>
        <time>2021-08-31T16:00:24Z</time>
      </trkpt>
      <trkpt lat="44.98123" lon="5.43892">
        <ele>735.3</ele>
        <time>2021-08-31T16:00:26Z</time>
      </trkpt>
      <trkpt lat="44.98127" lon="5.43879">
        <ele>735</ele>
        <time>2021-08-31T16:00:27Z</time>
      </trkpt>
      <trkpt lat="44.98129" lon="5.43866">
        <ele>734.7</ele>
        <time>2021-08-31T16:00:28Z</time>
      </trkpt>
      <trkpt lat="44.98134" lon="5.43842">
        <ele>734.2</ele>
        <time>2021-08-31T16:00:30Z</time>
      </trkpt>
      <trkpt lat="44.98136" lon="5.43831">
        <ele>734</ele>
        <time>2021-08-31T16:00:31Z</time>
      </trkpt>
      <trkpt lat="44.98139" lon="5.43815">
        <ele>733.8</ele>
        <time>2021-08-31T16:00:33Z</time>
      </trkpt>
      <trkpt lat="44.98142" lon="5.438">
        <ele>733.7</ele>
        <time>2021-08-31T16:00:35Z</time>
      </trkpt>
      <trkpt lat="44.98144" lon="5.43793">
        <ele>719.8</ele>
        <time>2021-08-31T16:00:36Z</time>
      </trkpt>
      <trkpt lat="44.98145" lon="5.4378">
        <ele>719.8</ele>
        <time>2021-08-31T16:00:38Z</time>
      </trkpt>
      <trkpt lat="44.98146" lon="5.43766">
        <ele>719.8</ele>
        <time>2021-08-31T16:00:40Z</time>
      </trkpt>
      <trkpt lat="44.98144" lon="5.43759">
        <ele>719.9</ele>
        <time>2021-08-31T16:00:41Z</time>
      </trkpt>
      <trkpt lat="44.98139" lon="5.43753">
        <ele>720.2</ele>
        <time>2021-08-31T16:00:42Z</time>
      </trkpt>
      <trkpt lat="44.98129" lon="5.43744">
        <ele>720.8</ele>
        <time>2021-08-31T16:00:44Z</time>
      </trkpt>
      <trkpt lat="44.98119" lon="5.43734">
        <ele>721.3</ele>
        <time>2021-08-31T16:00:46Z</time>
      </trkpt>
      <trkpt lat="44.98107" lon="5.43726">
        <ele>721.8</ele>
        <time>2021-08-31T16:00:48Z</time>
      </trkpt>
      <trkpt lat="44.981" lon="5.43715">
        <ele>722.2</ele>
        <time>2021-08-31T16:00:50Z</time>
      </trkpt>
      <trkpt lat="44.98091" lon="5.43713">
        <ele>722.6</ele>
        <time>2021-08-31T16:00:52Z</time>
      </trkpt>
      <trkpt lat="44.98086" lon="5.43713">
        <ele>722.8</ele>
        <time>2021-08-31T16:00:53Z</time>
      </trkpt>
      <trkpt lat="44.98082" lon="5.43714">
        <ele>722.9</ele>
        <time>2021-08-31T16:00:54Z</time>
      </trkpt>
      <trkpt lat="44.98074" lon="5.43717">
        <ele>723.2</ele>
        <time>2021-08-31T16:00:56Z</time>
      </trkpt>
      <trkpt lat="44.9807" lon="5.43718">
        <ele>723.4</ele>
        <time>2021-08-31T16:00:57Z</time>
      </trkpt>
      <trkpt lat="44.98063" lon="5.4372">
        <ele>723.7</ele>
        <time>2021-08-31T16:00:59Z</time>
      </trkpt>
      <trkpt lat="44.98059" lon="5.43718">
        <ele>723.8</ele>
        <time>2021-08-31T16:01:00Z</time>
      </trkpt>
      <trkpt lat="44.98055" lon="5.43714">
        <ele>723.9</ele>
        <time>2021-08-31T16:01:02Z</time>
      </trkpt>
      <trkpt lat="44.98049" lon="5.43708">
        <ele>724.1</ele>
        <time>2021-08-31T16:01:04Z</time>
      </trkpt>
      <trkpt lat="44.98044" lon="5.437">
        <ele>724.4</ele>
        <time>2021-08-31T16:01:06Z</time>
      </trkpt>
      <trkpt lat="44.98038" lon="5.43693">
        <ele>724.6</ele>
        <time>2021-08-31T16:01:08Z</time>
      </trkpt>
      <trkpt lat="44.98036" lon="5.4369">
        <ele>724.7</ele>
        <time>2021-08-31T16:01:09Z</time>
      </trkpt>
      <trkpt lat="44.98027" lon="5.43684">
        <ele>725</ele>
        <time>2021-08-31T16:01:11Z</time>
      </trkpt>
      <trkpt lat="44.98023" lon="5.43682">
        <ele>725.1</ele>
        <time>2021-08-31T16:01:12Z</time>
      </trkpt>
      <trkpt lat="44.98014" lon="5.43676">
        <ele>725.5</ele>
        <time>2021-08-31T16:01:14Z</time>
      </trkpt>
      <trkpt lat="44.98009" lon="5.43676">
        <ele>725.7</ele>
        <time>2021-08-31T16:01:16Z</time>
      </trkpt>
      <trkpt lat="44.98005" lon="5.43677">
        <ele>725.8</ele>
        <time>2021-08-31T16:01:17Z</time>
      </trkpt>
      <trkpt lat="44.98001" lon="5.43679">
        <ele>726</ele>
        <time>2021-08-31T16:01:18Z</time>
      </trkpt>
      <trkpt lat="44.97998" lon="5.4368">
        <ele>726.1</ele>
        <time>2021-08-31T16:01:19Z</time>
      </trkpt>
      <trkpt lat="44.97994" lon="5.43681">
        <ele>726.3</ele>
        <time>2021-08-31T16:01:20Z</time>
      </trkpt>
      <trkpt lat="44.97984" lon="5.43684">
        <ele>726.7</ele>
        <time>2021-08-31T16:01:22Z</time>
      </trkpt>
      <trkpt lat="44.97969" lon="5.43691">
        <ele>727.3</ele>
        <time>2021-08-31T16:01:24Z</time>
      </trkpt>
      <trkpt lat="44.97969" lon="5.43691">
        <ele>727.3</ele>
        <time>2021-08-31T16:01:24Z</time>
      </trkpt>
      <trkpt lat="44.97963" lon="5.43694">
        <ele>727.6</ele>
        <time>2021-08-31T16:01:25Z</time>
      </trkpt>
      <trkpt lat="44.97952" lon="5.43697">
        <ele>728</ele>
        <time>2021-08-31T16:01:27Z</time>
      </trkpt>
      <trkpt lat="44.97945" lon="5.43697">
        <ele>728.3</ele>
        <time>2021-08-31T16:01:29Z</time>
      </trkpt>
      <trkpt lat="44.9794" lon="5.43698">
        <ele>728.5</ele>
        <time>2021-08-31T16:01:30Z</time>
      </trkpt>
      <trkpt lat="44.97935" lon="5.43698">
        <ele>728.7</ele>
        <time>2021-08-31T16:01:32Z</time>
      </trkpt>
      <trkpt lat="44.97929" lon="5.43698">
        <ele>728.9</ele>
        <time>2021-08-31T16:01:33Z</time>
      </trkpt>
      <trkpt lat="44.97926" lon="5.43697">
        <ele>729</ele>
        <time>2021-08-31T16:01:35Z</time>
      </trkpt>
      <trkpt lat="44.97924" lon="5.43692">
        <ele>729.1</ele>
        <time>2021-08-31T16:01:37Z</time>
      </trkpt>
      <trkpt lat="44.97923" lon="5.43688">
        <ele>729.3</ele>
        <time>2021-08-31T16:01:38Z</time>
      </trkpt>
      <trkpt lat="44.97923" lon="5.43686">
        <ele>729.3</ele>
        <time>2021-08-31T16:01:39Z</time>
      </trkpt>
      <trkpt lat="44.97924" lon="5.43668">
        <ele>729.7</ele>
        <time>2021-08-31T16:01:41Z</time>
      </trkpt>
      <trkpt lat="44.97923" lon="5.43659">
        <ele>729.9</ele>
        <time>2021-08-31T16:01:42Z</time>
      </trkpt>
      <trkpt lat="44.97922" lon="5.43655">
        <ele>730</ele>
        <time>2021-08-31T16:01:43Z</time>
      </trkpt>
      <trkpt lat="44.97918" lon="5.4365">
        <ele>730.1</ele>
        <time>2021-08-31T16:01:45Z</time>
      </trkpt>
      <trkpt lat="44.97916" lon="5.43646">
        <ele>730.2</ele>
        <time>2021-08-31T16:01:46Z</time>
      </trkpt>
      <trkpt lat="44.97912" lon="5.43641">
        <ele>730.3</ele>
        <time>2021-08-31T16:01:47Z</time>
      </trkpt>
      <trkpt lat="44.97907" lon="5.43635">
        <ele>730.5</ele>
        <time>2021-08-31T16:01:49Z</time>
      </trkpt>
      <trkpt lat="44.97904" lon="5.43634">
        <ele>730.6</ele>
        <time>2021-08-31T16:01:51Z</time>
      </trkpt>
      <trkpt lat="44.97902" lon="5.43633">
        <ele>730.7</ele>
        <time>2021-08-31T16:01:52Z</time>
      </trkpt>
      <trkpt lat="44.97901" lon="5.43632">
        <ele>730.7</ele>
        <time>2021-08-31T16:01:53Z</time>
      </trkpt>
      <trkpt lat="44.97896" lon="5.4363">
        <ele>730.9</ele>
        <time>2021-08-31T16:01:55Z</time>
      </trkpt>
      <trkpt lat="44.97806" lon="5.43715">
        <ele>734.2</ele>
        <time>2021-08-31T16:02:19Z</time>
      </trkpt>
      <trkpt lat="44.97802" lon="5.43717">
        <ele>734.4</ele>
        <time>2021-08-31T16:02:21Z</time>
      </trkpt>
      <trkpt lat="44.97794" lon="5.4372">
        <ele>734.7</ele>
        <time>2021-08-31T16:02:22Z</time>
      </trkpt>
      <trkpt lat="44.97788" lon="5.4372">
        <ele>735</ele>
        <time>2021-08-31T16:02:23Z</time>
      </trkpt>
      <trkpt lat="44.97784" lon="5.43718">
        <ele>735.2</ele>
        <time>2021-08-31T16:02:25Z</time>
      </trkpt>
      <trkpt lat="44.97782" lon="5.43717">
        <ele>735.3</ele>
        <time>2021-08-31T16:02:26Z</time>
      </trkpt>
      <trkpt lat="44.97781" lon="5.43716">
        <ele>735.3</ele>
        <time>2021-08-31T16:02:27Z</time>
      </trkpt>
      <trkpt lat="44.9778" lon="5.43715">
        <ele>735.4</ele>
        <time>2021-08-31T16:02:29Z</time>
      </trkpt>
      <trkpt lat="44.9778" lon="5.43715">
        <ele>735.4</ele>
        <time>2021-08-31T16:02:30Z</time>
      </trkpt>
      <trkpt lat="44.97779" lon="5.43715">
        <ele>735.4</ele>
        <time>2021-08-31T16:02:32Z</time>
      </trkpt>
      <trkpt lat="44.9777" lon="5.43705">
        <ele>736</ele>
        <time>2021-08-31T16:02:34Z</time>
      </trkpt>
      <trkpt lat="44.9776" lon="5.43691">
        <ele>736.6</ele>
        <time>2021-08-31T16:02:35Z</time>
      </trkpt>
      <trkpt lat="44.97753" lon="5.43678">
        <ele>737.2</ele>
        <time>2021-08-31T16:02:37Z</time>
      </trkpt>
      <trkpt lat="44.9775" lon="5.43671">
        <ele>737.5</ele>
        <time>2021-08-31T16:02:39Z</time>
      </trkpt>
      <trkpt lat="44.97746" lon="5.43669">
        <ele>737.7</ele>
        <time>2021-08-31T16:02:41Z</time>
      </trkpt>
      <trkpt lat="44.97745" lon="5.43668">
        <ele>737.8</ele>
        <time>2021-08-31T16:02:42Z</time>
      </trkpt>
      <trkpt lat="44.97742" lon="5.43667">
        <ele>737.9</ele>
        <time>2021-08-31T16:02:43Z</time>
      </trkpt>
      <trkpt lat="44.97737" lon="5.43664">
        <ele>738.2</ele>
        <time>2021-08-31T16:02:45Z</time>
      </trkpt>
      <trkpt lat="44.97732" lon="5.4366">
        <ele>738.5</ele>
        <time>2021-08-31T16:02:46Z</time>
      </trkpt>
      <trkpt lat="44.97729" lon="5.43658">
        <ele>738.7</ele>
        <time>2021-08-31T16:02:47Z</time>
      </trkpt>
      <trkpt lat="44.97728" lon="5.43657">
        <ele>738.7</ele>
        <time>2021-08-31T16:02:48Z</time>
      </trkpt>
      <trkpt lat="44.97722" lon="5.43656">
        <ele>739.1</ele>
        <time>2021-08-31T16:02:49Z</time>
      </trkpt>
      <trkpt lat="44.97717" lon="5.43656">
        <ele>739.4</ele>
        <time>2021-08-31T16:02:51Z</time>
      </trkpt>
      <trkpt lat="44.97712" lon="5.43656">
        <ele>739.6</ele>
        <time>2021-08-31T16:02:52Z</time>
      </trkpt>
      <trkpt lat="44.97707" lon="5.43657">
        <ele>740</ele>
        <time>2021-08-31T16:02:53Z</time>
      </trkpt>
      <trkpt lat="44.97701" lon="5.43657">
        <ele>740.3</ele>
        <time>2021-08-31T16:02:55Z</time>
      </trkpt>
      <trkpt lat="44.97694" lon="5.4366">
        <ele>740.7</ele>
        <time>2021-08-31T16:02:56Z</time>
      </trkpt>
      <trkpt lat="44.97687" lon="5.43665">
        <ele>741.2</ele>
        <time>2021-08-31T16:02:58Z</time>
      </trkpt>
      <trkpt lat="44.97684" lon="5.43667">
        <ele>741.4</ele>
        <time>2021-08-31T16:03:00Z</time>
      </trkpt>
      <trkpt lat="44.97682" lon="5.43668">
        <ele>741.5</ele>
        <time>2021-08-31T16:03:01Z</time>
      </trkpt>
      <trkpt lat="44.97681" lon="5.43668">
        <ele>741.6</ele>
        <time>2021-08-31T16:03:02Z</time>
      </trkpt>
      <trkpt lat="44.97678" lon="5.43668">
        <ele>741.8</ele>
        <time>2021-08-31T16:03:04Z</time>
      </trkpt>
      <trkpt lat="44.97677" lon="5.43668">
        <ele>741.8</ele>
        <time>2021-08-31T16:03:05Z</time>
      </trkpt>
      <trkpt lat="44.97673" lon="5.43669">
        <ele>742</ele>
        <time>2021-08-31T16:03:07Z</time>
      </trkpt>
      <trkpt lat="44.9767" lon="5.43666">
        <ele>742.3</ele>
        <time>2021-08-31T16:03:08Z</time>
      </trkpt>
      <trkpt lat="44.97666" lon="5.43663">
        <ele>742.5</ele>
        <time>2021-08-31T16:03:10Z</time>
      </trkpt>
      <trkpt lat="44.97663" lon="5.43659">
        <ele>742.7</ele>
        <time>2021-08-31T16:03:12Z</time>
      </trkpt>
      <trkpt lat="44.97659" lon="5.43655">
        <ele>743</ele>
        <time>2021-08-31T16:03:14Z</time>
      </trkpt>
      <trkpt lat="44.97656" lon="5.4365">
        <ele>743.3</ele>
        <time>2021-08-31T16:03:16Z</time>
      </trkpt>
      <trkpt lat="44.97655" lon="5.43648">
        <ele>743.4</ele>
        <time>2021-08-31T16:03:17Z</time>
      </trkpt>
      <trkpt lat="44.97655" lon="5.43646">
        <ele>743.5</ele>
        <time>2021-08-31T16:03:18Z</time>
      </trkpt>
      <trkpt lat="44.97652" lon="5.43644">
        <ele>743.6</ele>
        <time>2021-08-31T16:03:20Z</time>
      </trkpt>
      <trkpt lat="44.97651" lon="5.43644">
        <ele>743.7</ele>
        <time>2021-08-31T16:03:21Z</time>
      </trkpt>
      <trkpt lat="44.97647" lon="5.4364">
        <ele>744</ele>
        <time>2021-08-31T16:03:23Z</time>
      </trkpt>
      <trkpt lat="44.97645" lon="5.43638">
        <ele>744.1</ele>
        <time>2021-08-31T16:03:24Z</time>
      </trkpt>
      <trkpt lat="44.97643" lon="5.43637">
        <ele>744.2</ele>
        <time>2021-08-31T16:03:25Z</time>
      </trkpt>
      <trkpt lat="44.97639" lon="5.43634">
        <ele>744.4</ele>
        <time>2021-08-31T16:03:27Z</time>
      </trkpt>
      <trkpt lat="44.97635" lon="5.4363">
        <ele>744.7</ele>
        <time>2021-08-31T16:03:29Z</time>
      </trkpt>
      <trkpt lat="44.97633" lon="5.43627">
        <ele>744.9</ele>
        <time>2021-08-31T16:03:30Z</time>
      </trkpt>
      <trkpt lat="44.97631" lon="5.43623">
        <ele>745</ele>
        <time>2021-08-31T16:03:31Z</time>
      </trkpt>
      <trkpt lat="44.9763" lon="5.43619">
        <ele>745.2</ele>
        <time>2021-08-31T16:03:32Z</time>
      </trkpt>
      <trkpt lat="44.97629" lon="5.43617">
        <ele>745.3</ele>
        <time>2021-08-31T16:03:33Z</time>
      </trkpt>
      <trkpt lat="44.97627" lon="5.43618">
        <ele>745.4</ele>
        <time>2021-08-31T16:03:35Z</time>
      </trkpt>
      <trkpt lat="44.97626" lon="5.43615">
        <ele>745.5</ele>
        <time>2021-08-31T16:03:36Z</time>
      </trkpt>
      <trkpt lat="44.97624" lon="5.43613">
        <ele>745.6</ele>
        <time>2021-08-31T16:03:38Z</time>
      </trkpt>
      <trkpt lat="44.97621" lon="5.43612">
        <ele>745.8</ele>
        <time>2021-08-31T16:03:40Z</time>
      </trkpt>
      <trkpt lat="44.9762" lon="5.43612">
        <ele>745.8</ele>
        <time>2021-08-31T16:03:41Z</time>
      </trkpt>
      <trkpt lat="44.97616" lon="5.43612">
        <ele>746</ele>
        <time>2021-08-31T16:03:42Z</time>
      </trkpt>
      <trkpt lat="44.97614" lon="5.43613">
        <ele>746.1</ele>
        <time>2021-08-31T16:03:43Z</time>
      </trkpt>
      <trkpt lat="44.97609" lon="5.43614">
        <ele>746.3</ele>
        <time>2021-08-31T16:03:45Z</time>
      </trkpt>
      <trkpt lat="44.97606" lon="5.43616">
        <ele>746.5</ele>
        <time>2021-08-31T16:03:46Z</time>
      </trkpt>
      <trkpt lat="44.97603" lon="5.43618">
        <ele>746.7</ele>
        <time>2021-08-31T16:03:47Z</time>
      </trkpt>
      <trkpt lat="44.976" lon="5.43621">
        <ele>746.9</ele>
        <time>2021-08-31T16:03:48Z</time>
      </trkpt>
      <trkpt lat="44.97595" lon="5.43624">
        <ele>747.2</ele>
        <time>2021-08-31T16:03:50Z</time>
      </trkpt>
      <trkpt lat="44.9759" lon="5.43629">
        <ele>747.4</ele>
        <time>2021-08-31T16:03:51Z</time>
      </trkpt>
      <trkpt lat="44.97585" lon="5.43635">
        <ele>747.8</ele>
        <time>2021-08-31T16:03:53Z</time>
      </trkpt>
      <trkpt lat="44.97578" lon="5.4364">
        <ele>748.2</ele>
        <time>2021-08-31T16:03:54Z</time>
      </trkpt>
      <trkpt lat="44.97572" lon="5.43642">
        <ele>748.6</ele>
        <time>2021-08-31T16:03:56Z</time>
      </trkpt>
      <trkpt lat="44.97566" lon="5.43645">
        <ele>748.9</ele>
        <time>2021-08-31T16:03:57Z</time>
      </trkpt>
      <trkpt lat="44.97562" lon="5.43647">
        <ele>749.2</ele>
        <time>2021-08-31T16:03:58Z</time>
      </trkpt>
      <trkpt lat="44.97556" lon="5.4365">
        <ele>749.5</ele>
        <time>2021-08-31T16:04:01Z</time>
      </trkpt>
      <trkpt lat="44.97552" lon="5.43653">
        <ele>749.7</ele>
        <time>2021-08-31T16:04:02Z</time>
      </trkpt>
      <trkpt lat="44.97548" lon="5.43655">
        <ele>749.9</ele>
        <time>2021-08-31T16:04:04Z</time>
      </trkpt>
      <trkpt lat="44.97545" lon="5.43656">
        <ele>750</ele>
        <time>2021-08-31T16:04:05Z</time>
      </trkpt>
      <trkpt lat="44.97541" lon="5.43658">
        <ele>750.2</ele>
        <time>2021-08-31T16:04:07Z</time>
      </trkpt>
      <trkpt lat="44.97539" lon="5.43658">
        <ele>750.3</ele>
        <time>2021-08-31T16:04:08Z</time>
      </trkpt>
      <trkpt lat="44.97537" lon="5.43659">
        <ele>750.4</ele>
        <time>2021-08-31T16:04:09Z</time>
      </trkpt>
      <trkpt lat="44.97535" lon="5.43659">
        <ele>750.4</ele>
        <time>2021-08-31T16:04:10Z</time>
      </trkpt>
      <trkpt lat="44.97531" lon="5.43661">
        <ele>750.6</ele>
        <time>2021-08-31T16:04:12Z</time>
      </trkpt>
      <trkpt lat="44.97527" lon="5.43666">
        <ele>750.9</ele>
        <time>2021-08-31T16:04:14Z</time>
      </trkpt>
      <trkpt lat="44.97523" lon="5.43669">
        <ele>751</ele>
        <time>2021-08-31T16:04:16Z</time>
      </trkpt>
      <trkpt lat="44.9752" lon="5.4367">
        <ele>751.1</ele>
        <time>2021-08-31T16:04:17Z</time>
      </trkpt>
      <trkpt lat="44.97514" lon="5.4367">
        <ele>751.3</ele>
        <time>2021-08-31T16:04:19Z</time>
      </trkpt>
      <trkpt lat="44.97508" lon="5.43668">
        <ele>751.5</ele>
        <time>2021-08-31T16:04:21Z</time>
      </trkpt>
      <trkpt lat="44.97504" lon="5.43667">
        <ele>751.6</ele>
        <time>2021-08-31T16:04:22Z</time>
      </trkpt>
      <trkpt lat="44.97499" lon="5.43664">
        <ele>751.8</ele>
        <time>2021-08-31T16:04:23Z</time>
      </trkpt>
      <trkpt lat="44.97495" lon="5.43661">
        <ele>751.9</ele>
        <time>2021-08-31T16:04:25Z</time>
      </trkpt>
      <trkpt lat="44.97492" lon="5.4366">
        <ele>752</ele>
        <time>2021-08-31T16:04:26Z</time>
      </trkpt>
      <trkpt lat="44.97483" lon="5.43655">
        <ele>752.2</ele>
        <time>2021-08-31T16:04:28Z</time>
      </trkpt>
      <trkpt lat="44.9748" lon="5.43656">
        <ele>752.3</ele>
        <time>2021-08-31T16:04:29Z</time>
      </trkpt>
      <trkpt lat="44.97475" lon="5.43657">
        <ele>752.4</ele>
        <time>2021-08-31T16:04:31Z</time>
      </trkpt>
      <trkpt lat="44.9747" lon="5.43659">
        <ele>752.5</ele>
        <time>2021-08-31T16:04:33Z</time>
      </trkpt>
      <trkpt lat="44.97467" lon="5.43659">
        <ele>752.6</ele>
        <time>2021-08-31T16:04:34Z</time>
      </trkpt>
      <trkpt lat="44.97465" lon="5.43658">
        <ele>752.6</ele>
        <time>2021-08-31T16:04:35Z</time>
      </trkpt>
      <trkpt lat="44.97462" lon="5.43657">
        <ele>752.7</ele>
        <time>2021-08-31T16:04:36Z</time>
      </trkpt>
      <trkpt lat="44.97456" lon="5.43655">
        <ele>752.8</ele>
        <time>2021-08-31T16:04:38Z</time>
      </trkpt>
      <trkpt lat="44.97451" lon="5.43652">
        <ele>753</ele>
        <time>2021-08-31T16:04:39Z</time>
      </trkpt>
      <trkpt lat="44.97446" lon="5.43649">
        <ele>753.1</ele>
        <time>2021-08-31T16:04:41Z</time>
      </trkpt>
      <trkpt lat="44.97439" lon="5.43645">
        <ele>753.2</ele>
        <time>2021-08-31T16:04:43Z</time>
      </trkpt>
      <trkpt lat="44.97436" lon="5.43641">
        <ele>753.3</ele>
        <time>2021-08-31T16:04:44Z</time>
      </trkpt>
      <trkpt lat="44.97432" lon="5.43638">
        <ele>753.4</ele>
        <time>2021-08-31T16:04:45Z</time>
      </trkpt>
      <trkpt lat="44.97428" lon="5.43634">
        <ele>753.5</ele>
        <time>2021-08-31T16:04:46Z</time>
      </trkpt>
      <trkpt lat="44.97421" lon="5.43627">
        <ele>753.7</ele>
        <time>2021-08-31T16:04:48Z</time>
      </trkpt>
      <trkpt lat="44.97416" lon="5.43627">
        <ele>753.8</ele>
        <time>2021-08-31T16:04:49Z</time>
      </trkpt>
      <trkpt lat="44.97412" lon="5.43627">
        <ele>753.9</ele>
        <time>2021-08-31T16:04:50Z</time>
      </trkpt>
      <trkpt lat="44.97408" lon="5.43629">
        <ele>754</ele>
        <time>2021-08-31T16:04:51Z</time>
      </trkpt>
      <trkpt lat="44.97404" lon="5.4363">
        <ele>754.1</ele>
        <time>2021-08-31T16:04:53Z</time>
      </trkpt>
      <trkpt lat="44.97402" lon="5.4363">
        <ele>754.1</ele>
        <time>2021-08-31T16:04:54Z</time>
      </trkpt>
      <trkpt lat="44.97399" lon="5.43629">
        <ele>754.2</ele>
        <time>2021-08-31T16:04:56Z</time>
      </trkpt>
      <trkpt lat="44.97398" lon="5.43627">
        <ele>754.2</ele>
        <time>2021-08-31T16:04:57Z</time>
      </trkpt>
      <trkpt lat="44.97397" lon="5.43626">
        <ele>754.2</ele>
        <time>2021-08-31T16:04:59Z</time>
      </trkpt>
      <trkpt lat="44.97396" lon="5.43625">
        <ele>754.3</ele>
        <time>2021-08-31T16:05:01Z</time>
      </trkpt>
      <trkpt lat="44.97395" lon="5.43624">
        <ele>754.3</ele>
        <time>2021-08-31T16:05:02Z</time>
      </trkpt>
      <trkpt lat="44.97394" lon="5.43622">
        <ele>754.3</ele>
        <time>2021-08-31T16:05:03Z</time>
      </trkpt>
      <trkpt lat="44.97389" lon="5.4362">
        <ele>754.4</ele>
        <time>2021-08-31T16:05:05Z</time>
      </trkpt>
      <trkpt lat="44.97383" lon="5.43616">
        <ele>754.6</ele>
        <time>2021-08-31T16:05:06Z</time>
      </trkpt>
      <trkpt lat="44.97376" lon="5.43609">
        <ele>754.7</ele>
        <time>2021-08-31T16:05:08Z</time>
      </trkpt>
      <trkpt lat="44.97367" lon="5.43601">
        <ele>754.9</ele>
        <time>2021-08-31T16:05:10Z</time>
      </trkpt>
      <trkpt lat="44.97362" lon="5.43598">
        <ele>755</ele>
        <time>2021-08-31T16:05:11Z</time>
      </trkpt>
      <trkpt lat="44.97351" lon="5.43591">
        <ele>755.2</ele>
        <time>2021-08-31T16:05:12Z</time>
      </trkpt>
      <trkpt lat="44.97339" lon="5.43587">
        <ele>755.4</ele>
        <time>2021-08-31T16:05:14Z</time>
      </trkpt>
      <trkpt lat="44.97333" lon="5.43585">
        <ele>755.6</ele>
        <time>2021-08-31T16:05:15Z</time>
      </trkpt>
      <trkpt lat="44.97325" lon="5.43585">
        <ele>755.8</ele>
        <time>2021-08-31T16:05:17Z</time>
      </trkpt>
      <trkpt lat="44.97313" lon="5.43584">
        <ele>756</ele>
        <time>2021-08-31T16:05:19Z</time>
      </trkpt>
      <trkpt lat="44.97304" lon="5.43584">
        <ele>756.2</ele>
        <time>2021-08-31T16:05:20Z</time>
      </trkpt>
      <trkpt lat="44.97297" lon="5.43586">
        <ele>756.3</ele>
        <time>2021-08-31T16:05:22Z</time>
      </trkpt>
      <trkpt lat="44.97292" lon="5.43587">
        <ele>756.4</ele>
        <time>2021-08-31T16:05:23Z</time>
      </trkpt>
      <trkpt lat="44.97286" lon="5.43589">
        <ele>756.6</ele>
        <time>2021-08-31T16:05:25Z</time>
      </trkpt>
      <trkpt lat="44.97279" lon="5.43589">
        <ele>756.7</ele>
        <time>2021-08-31T16:05:26Z</time>
      </trkpt>
      <trkpt lat="44.97275" lon="5.43587">
        <ele>756.8</ele>
        <time>2021-08-31T16:05:28Z</time>
      </trkpt>
      <trkpt lat="44.97271" lon="5.43586">
        <ele>756.9</ele>
        <time>2021-08-31T16:05:29Z</time>
      </trkpt>
      <trkpt lat="44.97264" lon="5.43587">
        <ele>757.1</ele>
        <time>2021-08-31T16:05:31Z</time>
      </trkpt>
      <trkpt lat="44.97258" lon="5.43587">
        <ele>757.2</ele>
        <time>2021-08-31T16:05:33Z</time>
      </trkpt>
      <trkpt lat="44.97252" lon="5.43584">
        <ele>757.3</ele>
        <time>2021-08-31T16:05:34Z</time>
      </trkpt>
      <trkpt lat="44.97249" lon="5.43579">
        <ele>760.2</ele>
        <time>2021-08-31T16:05:36Z</time>
      </trkpt>
      <trkpt lat="44.97248" lon="5.43577">
        <ele>759.1</ele>
        <time>2021-08-31T16:05:37Z</time>
      </trkpt>
      <trkpt lat="44.97247" lon="5.43575">
        <ele>758</ele>
        <time>2021-08-31T16:05:38Z</time>
      </trkpt>
      <trkpt lat="44.97245" lon="5.43572">
        <ele>758.9</ele>
        <time>2021-08-31T16:05:39Z</time>
      </trkpt>
      <trkpt lat="44.97243" lon="5.43566">
        <ele>759.7</ele>
        <time>2021-08-31T16:05:40Z</time>
      </trkpt>
      <trkpt lat="44.9724" lon="5.43562">
        <ele>760.5</ele>
        <time>2021-08-31T16:05:42Z</time>
      </trkpt>
      <trkpt lat="44.97237" lon="5.43557">
        <ele>760.6</ele>
        <time>2021-08-31T16:05:43Z</time>
      </trkpt>
      <trkpt lat="44.97236" lon="5.43554">
        <ele>760.7</ele>
        <time>2021-08-31T16:05:44Z</time>
      </trkpt>
      <trkpt lat="44.97236" lon="5.43549">
        <ele>760.8</ele>
        <time>2021-08-31T16:05:45Z</time>
      </trkpt>
      <trkpt lat="44.97235" lon="5.43544">
        <ele>760.9</ele>
        <time>2021-08-31T16:05:47Z</time>
      </trkpt>
      <trkpt lat="44.97235" lon="5.43537">
        <ele>761.1</ele>
        <time>2021-08-31T16:05:48Z</time>
      </trkpt>
      <trkpt lat="44.97235" lon="5.43539">
        <ele>761.2</ele>
        <time>2021-08-31T16:05:49Z</time>
      </trkpt>
      <trkpt lat="44.97235" lon="5.4354">
        <ele>761.2</ele>
        <time>2021-08-31T16:05:51Z</time>
      </trkpt>
      <trkpt lat="44.97236" lon="5.43542">
        <ele>761.3</ele>
        <time>2021-08-31T16:05:52Z</time>
      </trkpt>
      <trkpt lat="44.97236" lon="5.43543">
        <ele>761.3</ele>
        <time>2021-08-31T16:05:54Z</time>
      </trkpt>
      <trkpt lat="44.97237" lon="5.43545">
        <ele>761.4</ele>
        <time>2021-08-31T16:05:56Z</time>
      </trkpt>
      <trkpt lat="44.97237" lon="5.43547">
        <ele>761.5</ele>
        <time>2021-08-31T16:05:57Z</time>
      </trkpt>
      <trkpt lat="44.9724" lon="5.43556">
        <ele>761.8</ele>
        <time>2021-08-31T16:05:58Z</time>
      </trkpt>
      <trkpt lat="44.97241" lon="5.43557">
        <ele>761.9</ele>
        <time>2021-08-31T16:06:00Z</time>
      </trkpt>
      <trkpt lat="44.97244" lon="5.43557">
        <ele>762</ele>
        <time>2021-08-31T16:06:02Z</time>
      </trkpt>
      <trkpt lat="44.97247" lon="5.43555">
        <ele>762.2</ele>
        <time>2021-08-31T16:06:03Z</time>
      </trkpt>
      <trkpt lat="44.97251" lon="5.43554">
        <ele>762.4</ele>
        <time>2021-08-31T16:06:05Z</time>
      </trkpt>
      <trkpt lat="44.97252" lon="5.43554">
        <ele>762.5</ele>
        <time>2021-08-31T16:06:06Z</time>
      </trkpt>
      <trkpt lat="44.97257" lon="5.4355">
        <ele>762.8</ele>
        <time>2021-08-31T16:06:07Z</time>
      </trkpt>
      <trkpt lat="44.97263" lon="5.43547">
        <ele>763.2</ele>
        <time>2021-08-31T16:06:09Z</time>
      </trkpt>
      <trkpt lat="44.97268" lon="5.43544">
        <ele>763.6</ele>
        <time>2021-08-31T16:06:11Z</time>
      </trkpt>
      <trkpt lat="44.97272" lon="5.43543">
        <ele>763.9</ele>
        <time>2021-08-31T16:06:12Z</time>
      </trkpt>
      <trkpt lat="44.97273" lon="5.43543">
        <ele>764</ele>
        <time>2021-08-31T16:06:13Z</time>
      </trkpt>
      <trkpt lat="44.97277" lon="5.43544">
        <ele>764.2</ele>
        <time>2021-08-31T16:06:14Z</time>
      </trkpt>
      <trkpt lat="44.97278" lon="5.43544">
        <ele>764.3</ele>
        <time>2021-08-31T16:06:15Z</time>
      </trkpt>
      <trkpt lat="44.9728" lon="5.43544">
        <ele>764.5</ele>
        <time>2021-08-31T16:06:17Z</time>
      </trkpt>
      <trkpt lat="44.97284" lon="5.43543">
        <ele>764.8</ele>
        <time>2021-08-31T16:06:19Z</time>
      </trkpt>
      <trkpt lat="44.97287" lon="5.43542">
        <ele>765</ele>
        <time>2021-08-31T16:06:20Z</time>
      </trkpt>
      <trkpt lat="44.97288" lon="5.43542">
        <ele>765.1</ele>
        <time>2021-08-31T16:06:21Z</time>
      </trkpt>
      <trkpt lat="44.97293" lon="5.43542">
        <ele>765.5</ele>
        <time>2021-08-31T16:06:22Z</time>
      </trkpt>
      <trkpt lat="44.97296" lon="5.43542">
        <ele>765.7</ele>
        <time>2021-08-31T16:06:24Z</time>
      </trkpt>
      <trkpt lat="44.97299" lon="5.43542">
        <ele>765.9</ele>
        <time>2021-08-31T16:06:26Z</time>
      </trkpt>
      <trkpt lat="44.973" lon="5.43543">
        <ele>766</ele>
        <time>2021-08-31T16:06:27Z</time>
      </trkpt>
      <trkpt lat="44.973" lon="5.43545">
        <ele>766.1</ele>
        <time>2021-08-31T16:06:29Z</time>
      </trkpt>
      <trkpt lat="44.97301" lon="5.43546">
        <ele>766.2</ele>
        <time>2021-08-31T16:06:30Z</time>
      </trkpt>
      <trkpt lat="44.97303" lon="5.43546">
        <ele>766.3</ele>
        <time>2021-08-31T16:06:31Z</time>
      </trkpt>
      <trkpt lat="44.97304" lon="5.43547">
        <ele>766.4</ele>
        <time>2021-08-31T16:06:33Z</time>
      </trkpt>
      <trkpt lat="44.97308" lon="5.43548">
        <ele>766.8</ele>
        <time>2021-08-31T16:06:35Z</time>
      </trkpt>
      <trkpt lat="44.97311" lon="5.43549">
        <ele>767</ele>
        <time>2021-08-31T16:06:36Z</time>
      </trkpt>
      <trkpt lat="44.97312" lon="5.4355">
        <ele>767.1</ele>
        <time>2021-08-31T16:06:37Z</time>
      </trkpt>
      <trkpt lat="44.97316" lon="5.43553">
        <ele>767.5</ele>
        <time>2021-08-31T16:06:39Z</time>
      </trkpt>
      <trkpt lat="44.9732" lon="5.43555">
        <ele>767.9</ele>
        <time>2021-08-31T16:06:40Z</time>
      </trkpt>
      <trkpt lat="44.97323" lon="5.43558">
        <ele>768.2</ele>
        <time>2021-08-31T16:06:42Z</time>
      </trkpt>
      <trkpt lat="44.97326" lon="5.43561">
        <ele>768.5</ele>
        <time>2021-08-31T16:06:43Z</time>
      </trkpt>
      <trkpt lat="44.97329" lon="5.43564">
        <ele>768.8</ele>
        <time>2021-08-31T16:06:45Z</time>
      </trkpt>
      <trkpt lat="44.97329" lon="5.43565">
        <ele>768.9</ele>
        <time>2021-08-31T16:06:47Z</time>
      </trkpt>
      <trkpt lat="44.9733" lon="5.43565">
        <ele>768.9</ele>
        <time>2021-08-31T16:06:48Z</time>
      </trkpt>
      <trkpt lat="44.97332" lon="5.43566">
        <ele>769.1</ele>
        <time>2021-08-31T16:06:49Z</time>
      </trkpt>
      <trkpt lat="44.97335" lon="5.43568">
        <ele>769.4</ele>
        <time>2021-08-31T16:06:51Z</time>
      </trkpt>
      <trkpt lat="44.97338" lon="5.43568">
        <ele>769.7</ele>
        <time>2021-08-31T16:06:53Z</time>
      </trkpt>
      <trkpt lat="44.97338" lon="5.43568">
        <ele>769.7</ele>
        <time>2021-08-31T16:06:53Z</time>
      </trkpt>
      <trkpt lat="44.97342" lon="5.43568">
        <ele>770</ele>
        <time>2021-08-31T16:06:54Z</time>
      </trkpt>
      <trkpt lat="44.97343" lon="5.43569">
        <ele>770.1</ele>
        <time>2021-08-31T16:06:55Z</time>
      </trkpt>
      <trkpt lat="44.97346" lon="5.43568">
        <ele>770.4</ele>
        <time>2021-08-31T16:06:57Z</time>
      </trkpt>
      <trkpt lat="44.97347" lon="5.43568">
        <ele>770.4</ele>
        <time>2021-08-31T16:06:58Z</time>
      </trkpt>
      <trkpt lat="44.97349" lon="5.43567">
        <ele>770.6</ele>
        <time>2021-08-31T16:07:00Z</time>
      </trkpt>
      <trkpt lat="44.97349" lon="5.43566">
        <ele>770.7</ele>
        <time>2021-08-31T16:07:01Z</time>
      </trkpt>
      <trkpt lat="44.9735" lon="5.43564">
        <ele>770.8</ele>
        <time>2021-08-31T16:07:02Z</time>
      </trkpt>
      <trkpt lat="44.9735" lon="5.43564">
        <ele>770.9</ele>
        <time>2021-08-31T16:07:04Z</time>
      </trkpt>
      <trkpt lat="44.97352" lon="5.43561">
        <ele>771.1</ele>
        <time>2021-08-31T16:07:06Z</time>
      </trkpt>
      <trkpt lat="44.97361" lon="5.43546">
        <ele>772.5</ele>
        <time>2021-08-31T16:07:08Z</time>
      </trkpt>
      <trkpt lat="44.97366" lon="5.43538">
        <ele>773.3</ele>
        <time>2021-08-31T16:07:09Z</time>
      </trkpt>
      <trkpt lat="44.97368" lon="5.43534">
        <ele>773.6</ele>
        <time>2021-08-31T16:07:10Z</time>
      </trkpt>
      <trkpt lat="44.97369" lon="5.43533">
        <ele>773.8</ele>
        <time>2021-08-31T16:07:12Z</time>
      </trkpt>
      <trkpt lat="44.97371" lon="5.43532">
        <ele>774</ele>
        <time>2021-08-31T16:07:14Z</time>
      </trkpt>
      <trkpt lat="44.97374" lon="5.43527">
        <ele>774.5</ele>
        <time>2021-08-31T16:07:15Z</time>
      </trkpt>
      <trkpt lat="44.97374" lon="5.43526">
        <ele>774.7</ele>
        <time>2021-08-31T16:07:16Z</time>
      </trkpt>
      <trkpt lat="44.97379" lon="5.43526">
        <ele>775.1</ele>
        <time>2021-08-31T16:07:18Z</time>
      </trkpt>
      <trkpt lat="44.97385" lon="5.43527">
        <ele>775.8</ele>
        <time>2021-08-31T16:07:19Z</time>
      </trkpt>
      <trkpt lat="44.97389" lon="5.43529">
        <ele>776.2</ele>
        <time>2021-08-31T16:07:21Z</time>
      </trkpt>
      <trkpt lat="44.97391" lon="5.43533">
        <ele>776.6</ele>
        <time>2021-08-31T16:07:23Z</time>
      </trkpt>
      <trkpt lat="44.97391" lon="5.43533">
        <ele>776.7</ele>
        <time>2021-08-31T16:07:25Z</time>
      </trkpt>
      <trkpt lat="44.97391" lon="5.43533">
        <ele>776.7</ele>
        <time>2021-08-31T16:07:26Z</time>
      </trkpt>
      <trkpt lat="44.97392" lon="5.43533">
        <ele>776.7</ele>
        <time>2021-08-31T16:07:28Z</time>
      </trkpt>
      <trkpt lat="44.97392" lon="5.43533">
        <ele>776.8</ele>
        <time>2021-08-31T16:07:29Z</time>
      </trkpt>
      <trkpt lat="44.97393" lon="5.43533">
        <ele>776.9</ele>
        <time>2021-08-31T16:07:31Z</time>
      </trkpt>
      <trkpt lat="44.97411" lon="5.43512">
        <ele>779.3</ele>
        <time>2021-08-31T16:07:48Z</time>
      </trkpt>
      <trkpt lat="44.97415" lon="5.4351">
        <ele>779.8</ele>
        <time>2021-08-31T16:07:50Z</time>
      </trkpt>
      <trkpt lat="44.97418" lon="5.43509">
        <ele>780.2</ele>
        <time>2021-08-31T16:07:51Z</time>
      </trkpt>
      <trkpt lat="44.9742" lon="5.4351">
        <ele>780.3</ele>
        <time>2021-08-31T16:07:52Z</time>
      </trkpt>
      <trkpt lat="44.97422" lon="5.43511">
        <ele>780.5</ele>
        <time>2021-08-31T16:07:54Z</time>
      </trkpt>
      <trkpt lat="44.97423" lon="5.43511">
        <ele>780.7</ele>
        <time>2021-08-31T16:07:55Z</time>
      </trkpt>
      <trkpt lat="44.97427" lon="5.4351">
        <ele>781.2</ele>
        <time>2021-08-31T16:07:57Z</time>
      </trkpt>
      <trkpt lat="44.97429" lon="5.43509">
        <ele>781.3</ele>
        <time>2021-08-31T16:07:58Z</time>
      </trkpt>
      <trkpt lat="44.9743" lon="5.43509">
        <ele>781.5</ele>
        <time>2021-08-31T16:07:59Z</time>
      </trkpt>
      <trkpt lat="44.97433" lon="5.43507">
        <ele>782</ele>
        <time>2021-08-31T16:08:01Z</time>
      </trkpt>
      <trkpt lat="44.97442" lon="5.43502">
        <ele>783.2</ele>
        <time>2021-08-31T16:08:06Z</time>
      </trkpt>
      <trkpt lat="44.97445" lon="5.43499">
        <ele>783.7</ele>
        <time>2021-08-31T16:08:07Z</time>
      </trkpt>
      <trkpt lat="44.97446" lon="5.43498">
        <ele>783.9</ele>
        <time>2021-08-31T16:08:08Z</time>
      </trkpt>
      <trkpt lat="44.97446" lon="5.43496">
        <ele>784</ele>
        <time>2021-08-31T16:08:09Z</time>
      </trkpt>
      <trkpt lat="44.97447" lon="5.43495">
        <ele>784.2</ele>
        <time>2021-08-31T16:08:10Z</time>
      </trkpt>
      <trkpt lat="44.97449" lon="5.4349">
        <ele>784.8</ele>
        <time>2021-08-31T16:08:12Z</time>
      </trkpt>
      <trkpt lat="44.9745" lon="5.43488">
        <ele>785</ele>
        <time>2021-08-31T16:08:13Z</time>
      </trkpt>
      <trkpt lat="44.97452" lon="5.43489">
        <ele>785.2</ele>
        <time>2021-08-31T16:08:15Z</time>
      </trkpt>
      <trkpt lat="44.97452" lon="5.43489">
        <ele>785.3</ele>
        <time>2021-08-31T16:08:16Z</time>
      </trkpt>
      <trkpt lat="44.97453" lon="5.43487">
        <ele>785.6</ele>
        <time>2021-08-31T16:08:17Z</time>
      </trkpt>
      <trkpt lat="44.97453" lon="5.43486">
        <ele>785.7</ele>
        <time>2021-08-31T16:08:18Z</time>
      </trkpt>
      <trkpt lat="44.97454" lon="5.43485">
        <ele>785.8</ele>
        <time>2021-08-31T16:08:19Z</time>
      </trkpt>
      <trkpt lat="44.97454" lon="5.43484">
        <ele>785.9</ele>
        <time>2021-08-31T16:08:21Z</time>
      </trkpt>
      <trkpt lat="44.97454" lon="5.43483">
        <ele>786</ele>
        <time>2021-08-31T16:08:22Z</time>
      </trkpt>
      <trkpt lat="44.97454" lon="5.4348">
        <ele>786.2</ele>
        <time>2021-08-31T16:08:24Z</time>
      </trkpt>
      <trkpt lat="44.97455" lon="5.43479">
        <ele>786.3</ele>
        <time>2021-08-31T16:08:25Z</time>
      </trkpt>
      <trkpt lat="44.97455" lon="5.43475">
        <ele>786.6</ele>
        <time>2021-08-31T16:08:26Z</time>
      </trkpt>
      <trkpt lat="44.97456" lon="5.43474">
        <ele>786.8</ele>
        <time>2021-08-31T16:08:28Z</time>
      </trkpt>
      <trkpt lat="44.97457" lon="5.43473">
        <ele>786.9</ele>
        <time>2021-08-31T16:08:29Z</time>
      </trkpt>
      <trkpt lat="44.97457" lon="5.4347">
        <ele>787.1</ele>
        <time>2021-08-31T16:08:30Z</time>
      </trkpt>
      <trkpt lat="44.97459" lon="5.43465">
        <ele>787.5</ele>
        <time>2021-08-31T16:08:32Z</time>
      </trkpt>
      <trkpt lat="44.9746" lon="5.43463">
        <ele>787.6</ele>
        <time>2021-08-31T16:08:34Z</time>
      </trkpt>
      <trkpt lat="44.97462" lon="5.43462">
        <ele>787.7</ele>
        <time>2021-08-31T16:08:35Z</time>
      </trkpt>
      <trkpt lat="44.97465" lon="5.4346">
        <ele>787.9</ele>
        <time>2021-08-31T16:08:37Z</time>
      </trkpt>
      <trkpt lat="44.97466" lon="5.4346">
        <ele>787.9</ele>
        <time>2021-08-31T16:08:38Z</time>
      </trkpt>
      <trkpt lat="44.97467" lon="5.43461">
        <ele>788</ele>
        <time>2021-08-31T16:08:40Z</time>
      </trkpt>
      <trkpt lat="44.97467" lon="5.43461">
        <ele>788</ele>
        <time>2021-08-31T16:08:41Z</time>
      </trkpt>
      <trkpt lat="44.97468" lon="5.43461">
        <ele>788.1</ele>
        <time>2021-08-31T16:08:43Z</time>
      </trkpt>
      <trkpt lat="44.97468" lon="5.43461">
        <ele>788.1</ele>
        <time>2021-08-31T16:08:44Z</time>
      </trkpt>
      <trkpt lat="44.97468" lon="5.43462">
        <ele>788.1</ele>
        <time>2021-08-31T16:08:46Z</time>
      </trkpt>
      <trkpt lat="44.97468" lon="5.43462">
        <ele>788.1</ele>
        <time>2021-08-31T16:08:48Z</time>
      </trkpt>
      <trkpt lat="44.9746" lon="5.43452">
        <ele>788.5</ele>
        <time>2021-08-31T16:09:04Z</time>
      </trkpt>
      <trkpt lat="44.97455" lon="5.43449">
        <ele>788.6</ele>
        <time>2021-08-31T16:09:06Z</time>
      </trkpt>
      <trkpt lat="44.97452" lon="5.43447">
        <ele>788.8</ele>
        <time>2021-08-31T16:09:08Z</time>
      </trkpt>
      <trkpt lat="44.97449" lon="5.43443">
        <ele>788.9</ele>
        <time>2021-08-31T16:09:09Z</time>
      </trkpt>
      <trkpt lat="44.97447" lon="5.43441">
        <ele>789</ele>
        <time>2021-08-31T16:09:10Z</time>
      </trkpt>
      <trkpt lat="44.97443" lon="5.43435">
        <ele>789.2</ele>
        <time>2021-08-31T16:09:12Z</time>
      </trkpt>
      <trkpt lat="44.97437" lon="5.43429">
        <ele>789.5</ele>
        <time>2021-08-31T16:09:13Z</time>
      </trkpt>
      <trkpt lat="44.97433" lon="5.43421">
        <ele>789.9</ele>
        <time>2021-08-31T16:09:15Z</time>
      </trkpt>
      <trkpt lat="44.97431" lon="5.43416">
        <ele>790.1</ele>
        <time>2021-08-31T16:09:17Z</time>
      </trkpt>
      <trkpt lat="44.9743" lon="5.43414">
        <ele>790.2</ele>
        <time>2021-08-31T16:09:20Z</time>
      </trkpt>
      <trkpt lat="44.9743" lon="5.43412">
        <ele>790.3</ele>
        <time>2021-08-31T16:09:22Z</time>
      </trkpt>
      <trkpt lat="44.97429" lon="5.43409">
        <ele>790.5</ele>
        <time>2021-08-31T16:09:23Z</time>
      </trkpt>
      <trkpt lat="44.97428" lon="5.43405">
        <ele>790.7</ele>
        <time>2021-08-31T16:09:25Z</time>
      </trkpt>
      <trkpt lat="44.97427" lon="5.43403">
        <ele>790.8</ele>
        <time>2021-08-31T16:09:27Z</time>
      </trkpt>
      <trkpt lat="44.97385" lon="5.43307">
        <ele>797.7</ele>
        <time>2021-08-31T16:10:22Z</time>
      </trkpt>
      <trkpt lat="44.97387" lon="5.43305">
        <ele>797.7</ele>
        <time>2021-08-31T16:10:23Z</time>
      </trkpt>
      <trkpt lat="44.97387" lon="5.43303">
        <ele>798.3</ele>
        <time>2021-08-31T16:10:24Z</time>
      </trkpt>
      <trkpt lat="44.97386" lon="5.433">
        <ele>798.3</ele>
        <time>2021-08-31T16:10:26Z</time>
      </trkpt>
      <trkpt lat="44.97385" lon="5.43297">
        <ele>799.6</ele>
        <time>2021-08-31T16:10:28Z</time>
      </trkpt>
      <trkpt lat="44.97384" lon="5.43292">
        <ele>800.1</ele>
        <time>2021-08-31T16:10:29Z</time>
      </trkpt>
      <trkpt lat="44.97384" lon="5.4329">
        <ele>800.7</ele>
        <time>2021-08-31T16:10:30Z</time>
      </trkpt>
      <trkpt lat="44.97385" lon="5.43285">
        <ele>800.7</ele>
        <time>2021-08-31T16:10:32Z</time>
      </trkpt>
      <trkpt lat="44.97386" lon="5.43282">
        <ele>801.5</ele>
        <time>2021-08-31T16:10:33Z</time>
      </trkpt>
      <trkpt lat="44.97386" lon="5.4328">
        <ele>801.5</ele>
        <time>2021-08-31T16:10:34Z</time>
      </trkpt>
      <trkpt lat="44.97386" lon="5.43276">
        <ele>802.3</ele>
        <time>2021-08-31T16:10:36Z</time>
      </trkpt>
      <trkpt lat="44.97388" lon="5.43272">
        <ele>802.6</ele>
        <time>2021-08-31T16:10:38Z</time>
      </trkpt>
      <trkpt lat="44.97388" lon="5.4327">
        <ele>802.6</ele>
        <time>2021-08-31T16:10:39Z</time>
      </trkpt>
      <trkpt lat="44.97389" lon="5.43266">
        <ele>803.6</ele>
        <time>2021-08-31T16:10:40Z</time>
      </trkpt>
      <trkpt lat="44.97388" lon="5.43263">
        <ele>804.5</ele>
        <time>2021-08-31T16:10:42Z</time>
      </trkpt>
      <trkpt lat="44.97386" lon="5.43262">
        <ele>804.5</ele>
        <time>2021-08-31T16:10:43Z</time>
      </trkpt>
      <trkpt lat="44.97385" lon="5.43262">
        <ele>804.5</ele>
        <time>2021-08-31T16:10:44Z</time>
      </trkpt>
      <trkpt lat="44.97384" lon="5.43261">
        <ele>804.5</ele>
        <time>2021-08-31T16:10:46Z</time>
      </trkpt>
      <trkpt lat="44.97382" lon="5.4326">
        <ele>804.5</ele>
        <time>2021-08-31T16:10:47Z</time>
      </trkpt>
      <trkpt lat="44.97382" lon="5.43259">
        <ele>804.5</ele>
        <time>2021-08-31T16:10:48Z</time>
      </trkpt>
      <trkpt lat="44.97381" lon="5.43258">
        <ele>804.5</ele>
        <time>2021-08-31T16:10:49Z</time>
      </trkpt>
      <trkpt lat="44.97373" lon="5.43252">
        <ele>804.3</ele>
        <time>2021-08-31T16:10:51Z</time>
      </trkpt>
      <trkpt lat="44.97368" lon="5.43247">
        <ele>803.9</ele>
        <time>2021-08-31T16:10:52Z</time>
      </trkpt>
      <trkpt lat="44.97365" lon="5.43246">
        <ele>803.9</ele>
        <time>2021-08-31T16:10:53Z</time>
      </trkpt>
      <trkpt lat="44.97364" lon="5.43246">
        <ele>803.9</ele>
        <time>2021-08-31T16:10:55Z</time>
      </trkpt>
      <trkpt lat="44.97364" lon="5.43245">
        <ele>803.9</ele>
        <time>2021-08-31T16:10:56Z</time>
      </trkpt>
      <trkpt lat="44.97364" lon="5.43245">
        <ele>803.9</ele>
        <time>2021-08-31T16:10:58Z</time>
      </trkpt>
      <trkpt lat="44.97364" lon="5.43244">
        <ele>803.9</ele>
        <time>2021-08-31T16:10:59Z</time>
      </trkpt>
      <trkpt lat="44.97364" lon="5.43244">
        <ele>803.9</ele>
        <time>2021-08-31T16:11:01Z</time>
      </trkpt>
      <trkpt lat="44.97526" lon="5.43311">
        <ele>814.4</ele>
        <time>2021-08-31T16:12:32Z</time>
      </trkpt>
      <trkpt lat="44.97529" lon="5.4331">
        <ele>814.7</ele>
        <time>2021-08-31T16:12:33Z</time>
      </trkpt>
      <trkpt lat="44.97533" lon="5.43308">
        <ele>815.1</ele>
        <time>2021-08-31T16:12:34Z</time>
      </trkpt>
      <trkpt lat="44.97535" lon="5.43307">
        <ele>815.3</ele>
        <time>2021-08-31T16:12:36Z</time>
      </trkpt>
      <trkpt lat="44.97536" lon="5.43307">
        <ele>815.4</ele>
        <time>2021-08-31T16:12:37Z</time>
      </trkpt>
      <trkpt lat="44.97536" lon="5.43306">
        <ele>815.5</ele>
        <time>2021-08-31T16:12:38Z</time>
      </trkpt>
      <trkpt lat="44.97539" lon="5.43304">
        <ele>815.8</ele>
        <time>2021-08-31T16:12:39Z</time>
      </trkpt>
      <trkpt lat="44.97544" lon="5.43302">
        <ele>816.3</ele>
        <time>2021-08-31T16:12:41Z</time>
      </trkpt>
      <trkpt lat="44.97545" lon="5.43301">
        <ele>816.4</ele>
        <time>2021-08-31T16:12:42Z</time>
      </trkpt>
      <trkpt lat="44.97546" lon="5.43301">
        <ele>816.6</ele>
        <time>2021-08-31T16:12:43Z</time>
      </trkpt>
      <trkpt lat="44.9755" lon="5.433">
        <ele>817</ele>
        <time>2021-08-31T16:12:45Z</time>
      </trkpt>
      <trkpt lat="44.97552" lon="5.433">
        <ele>817.1</ele>
        <time>2021-08-31T16:12:46Z</time>
      </trkpt>
      <trkpt lat="44.97554" lon="5.433">
        <ele>817.3</ele>
        <time>2021-08-31T16:12:47Z</time>
      </trkpt>
      <trkpt lat="44.97556" lon="5.433">
        <ele>817.6</ele>
        <time>2021-08-31T16:12:49Z</time>
      </trkpt>
      <trkpt lat="44.9756" lon="5.43301">
        <ele>818</ele>
        <time>2021-08-31T16:12:50Z</time>
      </trkpt>
      <trkpt lat="44.97562" lon="5.43302">
        <ele>818.1</ele>
        <time>2021-08-31T16:12:51Z</time>
      </trkpt>
      <trkpt lat="44.97567" lon="5.43303">
        <ele>818.7</ele>
        <time>2021-08-31T16:12:53Z</time>
      </trkpt>
      <trkpt lat="44.9757" lon="5.43304">
        <ele>819.1</ele>
        <time>2021-08-31T16:12:54Z</time>
      </trkpt>
      <trkpt lat="44.97573" lon="5.43306">
        <ele>819.4</ele>
        <time>2021-08-31T16:12:56Z</time>
      </trkpt>
      <trkpt lat="44.97579" lon="5.43309">
        <ele>820</ele>
        <time>2021-08-31T16:12:58Z</time>
      </trkpt>
      <trkpt lat="44.97582" lon="5.4331">
        <ele>820.3</ele>
        <time>2021-08-31T16:12:59Z</time>
      </trkpt>
      <trkpt lat="44.97584" lon="5.4331">
        <ele>820.6</ele>
        <time>2021-08-31T16:13:00Z</time>
      </trkpt>
      <trkpt lat="44.97585" lon="5.4331">
        <ele>820.7</ele>
        <time>2021-08-31T16:13:01Z</time>
      </trkpt>
      <trkpt lat="44.97588" lon="5.4331">
        <ele>821.1</ele>
        <time>2021-08-31T16:13:03Z</time>
      </trkpt>
      <trkpt lat="44.97592" lon="5.4331">
        <ele>821.5</ele>
        <time>2021-08-31T16:13:05Z</time>
      </trkpt>
      <trkpt lat="44.97593" lon="5.43311">
        <ele>821.6</ele>
        <time>2021-08-31T16:13:06Z</time>
      </trkpt>
      <trkpt lat="44.97596" lon="5.43312">
        <ele>822.1</ele>
        <time>2021-08-31T16:13:08Z</time>
      </trkpt>
      <trkpt lat="44.97599" lon="5.43313">
        <ele>822.4</ele>
        <time>2021-08-31T16:13:10Z</time>
      </trkpt>
      <trkpt lat="44.97619" lon="5.43308">
        <ele>825.4</ele>
        <time>2021-08-31T16:13:31Z</time>
      </trkpt>
      <trkpt lat="44.97618" lon="5.43304">
        <ele>825.8</ele>
        <time>2021-08-31T16:13:33Z</time>
      </trkpt>
      <trkpt lat="44.97619" lon="5.43304">
        <ele>825.9</ele>
        <time>2021-08-31T16:13:34Z</time>
      </trkpt>
      <trkpt lat="44.9762" lon="5.43303">
        <ele>826.1</ele>
        <time>2021-08-31T16:13:35Z</time>
      </trkpt>
      <trkpt lat="44.97621" lon="5.43303">
        <ele>826.2</ele>
        <time>2021-08-31T16:13:36Z</time>
      </trkpt>
      <trkpt lat="44.97623" lon="5.43303">
        <ele>826.5</ele>
        <time>2021-08-31T16:13:38Z</time>
      </trkpt>
      <trkpt lat="44.97624" lon="5.43304">
        <ele>826.7</ele>
        <time>2021-08-31T16:13:39Z</time>
      </trkpt>
      <trkpt lat="44.97625" lon="5.43304">
        <ele>826.8</ele>
        <time>2021-08-31T16:13:40Z</time>
      </trkpt>
      <trkpt lat="44.97627" lon="5.43303">
        <ele>827.1</ele>
        <time>2021-08-31T16:13:42Z</time>
      </trkpt>
      <trkpt lat="44.97628" lon="5.43302">
        <ele>827.2</ele>
        <time>2021-08-31T16:13:43Z</time>
      </trkpt>
      <trkpt lat="44.97629" lon="5.43301">
        <ele>827.5</ele>
        <time>2021-08-31T16:13:45Z</time>
      </trkpt>
      <trkpt lat="44.9763" lon="5.433">
        <ele>827.6</ele>
        <time>2021-08-31T16:13:46Z</time>
      </trkpt>
      <trkpt lat="44.97631" lon="5.433">
        <ele>827.7</ele>
        <time>2021-08-31T16:13:47Z</time>
      </trkpt>
      <trkpt lat="44.97632" lon="5.433">
        <ele>827.7</ele>
        <time>2021-08-31T16:13:48Z</time>
      </trkpt>
      <trkpt lat="44.97632" lon="5.43299">
        <ele>827.8</ele>
        <time>2021-08-31T16:13:50Z</time>
      </trkpt>
      <trkpt lat="44.97632" lon="5.43299">
        <ele>827.9</ele>
        <time>2021-08-31T16:13:52Z</time>
      </trkpt>
      <trkpt lat="44.97631" lon="5.43299">
        <ele>828</ele>
        <time>2021-08-31T16:13:54Z</time>
      </trkpt>
      <trkpt lat="44.9763" lon="5.43299">
        <ele>828.1</ele>
        <time>2021-08-31T16:13:55Z</time>
      </trkpt>
      <trkpt lat="44.97628" lon="5.43299">
        <ele>828.2</ele>
        <time>2021-08-31T16:13:57Z</time>
      </trkpt>
      <trkpt lat="44.97625" lon="5.43297">
        <ele>828.3</ele>
        <time>2021-08-31T16:13:59Z</time>
      </trkpt>
      <trkpt lat="44.97623" lon="5.43296">
        <ele>828.4</ele>
        <time>2021-08-31T16:14:01Z</time>
      </trkpt>
      <trkpt lat="44.97621" lon="5.43294">
        <ele>828.5</ele>
        <time>2021-08-31T16:14:02Z</time>
      </trkpt>
      <trkpt lat="44.97619" lon="5.43292">
        <ele>828.5</ele>
        <time>2021-08-31T16:14:03Z</time>
      </trkpt>
      <trkpt lat="44.97614" lon="5.4329">
        <ele>828.5</ele>
        <time>2021-08-31T16:14:04Z</time>
      </trkpt>
      <trkpt lat="44.97611" lon="5.43289">
        <ele>828.5</ele>
        <time>2021-08-31T16:14:06Z</time>
      </trkpt>
      <trkpt lat="44.97609" lon="5.43289">
        <ele>828.6</ele>
        <time>2021-08-31T16:14:07Z</time>
      </trkpt>
      <trkpt lat="44.97607" lon="5.43288">
        <ele>828.6</ele>
        <time>2021-08-31T16:14:09Z</time>
      </trkpt>
      <trkpt lat="44.97603" lon="5.43286">
        <ele>828.6</ele>
        <time>2021-08-31T16:14:11Z</time>
      </trkpt>
      <trkpt lat="44.97602" lon="5.43285">
        <ele>828.6</ele>
        <time>2021-08-31T16:14:13Z</time>
      </trkpt>
      <trkpt lat="44.97601" lon="5.43285">
        <ele>828.6</ele>
        <time>2021-08-31T16:14:14Z</time>
      </trkpt>
      <trkpt lat="44.97599" lon="5.43285">
        <ele>828.6</ele>
        <time>2021-08-31T16:14:15Z</time>
      </trkpt>
      <trkpt lat="44.97597" lon="5.43285">
        <ele>828.6</ele>
        <time>2021-08-31T16:14:16Z</time>
      </trkpt>
      <trkpt lat="44.97594" lon="5.43284">
        <ele>828.7</ele>
        <time>2021-08-31T16:14:17Z</time>
      </trkpt>
      <trkpt lat="44.97591" lon="5.43284">
        <ele>828.7</ele>
        <time>2021-08-31T16:14:19Z</time>
      </trkpt>
      <trkpt lat="44.97588" lon="5.43282">
        <ele>828.7</ele>
        <time>2021-08-31T16:14:21Z</time>
      </trkpt>
      <trkpt lat="44.97585" lon="5.4328">
        <ele>828.8</ele>
        <time>2021-08-31T16:14:23Z</time>
      </trkpt>
      <trkpt lat="44.9758" lon="5.43276">
        <ele>828.9</ele>
        <time>2021-08-31T16:14:25Z</time>
      </trkpt>
      <trkpt lat="44.97577" lon="5.43274">
        <ele>829</ele>
        <time>2021-08-31T16:14:26Z</time>
      </trkpt>
      <trkpt lat="44.97575" lon="5.4327">
        <ele>829.1</ele>
        <time>2021-08-31T16:14:27Z</time>
      </trkpt>
      <trkpt lat="44.9757" lon="5.43264">
        <ele>829.4</ele>
        <time>2021-08-31T16:14:29Z</time>
      </trkpt>
      <trkpt lat="44.97567" lon="5.4326">
        <ele>829.5</ele>
        <time>2021-08-31T16:14:30Z</time>
      </trkpt>
      <trkpt lat="44.97563" lon="5.43256">
        <ele>829.7</ele>
        <time>2021-08-31T16:14:32Z</time>
      </trkpt>
      <trkpt lat="44.97559" lon="5.43254">
        <ele>829.9</ele>
        <time>2021-08-31T16:14:33Z</time>
      </trkpt>
      <trkpt lat="44.97557" lon="5.43253">
        <ele>830</ele>
        <time>2021-08-31T16:14:35Z</time>
      </trkpt>
      <trkpt lat="44.97553" lon="5.43254">
        <ele>830.1</ele>
        <time>2021-08-31T16:14:37Z</time>
      </trkpt>
      <trkpt lat="44.97551" lon="5.43254">
        <ele>830.2</ele>
        <time>2021-08-31T16:14:38Z</time>
      </trkpt>
      <trkpt lat="44.97547" lon="5.43254">
        <ele>830.4</ele>
        <time>2021-08-31T16:14:40Z</time>
      </trkpt>
      <trkpt lat="44.97545" lon="5.43254">
        <ele>830.5</ele>
        <time>2021-08-31T16:14:42Z</time>
      </trkpt>
      <trkpt lat="44.97544" lon="5.43255">
        <ele>830.6</ele>
        <time>2021-08-31T16:14:44Z</time>
      </trkpt>
      <trkpt lat="44.97541" lon="5.43256">
        <ele>830.7</ele>
        <time>2021-08-31T16:14:45Z</time>
      </trkpt>
      <trkpt lat="44.97537" lon="5.43258">
        <ele>830.9</ele>
        <time>2021-08-31T16:14:46Z</time>
      </trkpt>
      <trkpt lat="44.97536" lon="5.43259">
        <ele>830.7</ele>
        <time>2021-08-31T16:14:47Z</time>
      </trkpt>
      <trkpt lat="44.97535" lon="5.43259">
        <ele>830.7</ele>
        <time>2021-08-31T16:14:48Z</time>
      </trkpt>
      <trkpt lat="44.97534" lon="5.4326">
        <ele>830.6</ele>
        <time>2021-08-31T16:14:50Z</time>
      </trkpt>
      <trkpt lat="44.97533" lon="5.43261">
        <ele>830.5</ele>
        <time>2021-08-31T16:14:52Z</time>
      </trkpt>
      <trkpt lat="44.97532" lon="5.43261">
        <ele>830.4</ele>
        <time>2021-08-31T16:14:53Z</time>
      </trkpt>
      <trkpt lat="44.97532" lon="5.43261">
        <ele>830.3</ele>
        <time>2021-08-31T16:14:55Z</time>
      </trkpt>
      <trkpt lat="44.97532" lon="5.43261">
        <ele>828.1</ele>
        <time>2021-08-31T16:14:57Z</time>
      </trkpt>
      <trkpt lat="44.97531" lon="5.43262">
        <ele>828.1</ele>
        <time>2021-08-31T16:14:58Z</time>
      </trkpt>
      <trkpt lat="44.97531" lon="5.43262">
        <ele>828</ele>
        <time>2021-08-31T16:15:00Z</time>
      </trkpt>
      <trkpt lat="44.97531" lon="5.43262">
        <ele>828</ele>
        <time>2021-08-31T16:15:02Z</time>
      </trkpt>
      <trkpt lat="44.9753" lon="5.43263">
        <ele>827.9</ele>
        <time>2021-08-31T16:15:03Z</time>
      </trkpt>
      <trkpt lat="44.9753" lon="5.43264">
        <ele>827.8</ele>
        <time>2021-08-31T16:15:05Z</time>
      </trkpt>
      <trkpt lat="44.9753" lon="5.43265">
        <ele>827.7</ele>
        <time>2021-08-31T16:15:07Z</time>
      </trkpt>
      <trkpt lat="44.9753" lon="5.43267">
        <ele>825.6</ele>
        <time>2021-08-31T16:15:08Z</time>
      </trkpt>
      <trkpt lat="44.97529" lon="5.43269">
        <ele>825.5</ele>
        <time>2021-08-31T16:15:10Z</time>
      </trkpt>
      <trkpt lat="44.97529" lon="5.43272">
        <ele>823.4</ele>
        <time>2021-08-31T16:15:12Z</time>
      </trkpt>
      <trkpt lat="44.97529" lon="5.43274">
        <ele>823.3</ele>
        <time>2021-08-31T16:15:13Z</time>
      </trkpt>
      <trkpt lat="44.97529" lon="5.43276">
        <ele>821.3</ele>
        <time>2021-08-31T16:15:15Z</time>
      </trkpt>
      <trkpt lat="44.97529" lon="5.43279">
        <ele>819.4</ele>
        <time>2021-08-31T16:15:17Z</time>
      </trkpt>
      <trkpt lat="44.97529" lon="5.43281">
        <ele>819.3</ele>
        <time>2021-08-31T16:15:19Z</time>
      </trkpt>
      <trkpt lat="44.97529" lon="5.43283">
        <ele>817.5</ele>
        <time>2021-08-31T16:15:21Z</time>
      </trkpt>
      <trkpt lat="44.97528" lon="5.43286">
        <ele>817.5</ele>
        <time>2021-08-31T16:15:23Z</time>
      </trkpt>
      <trkpt lat="44.97528" lon="5.43288">
        <ele>815.9</ele>
        <time>2021-08-31T16:15:25Z</time>
      </trkpt>
      <trkpt lat="44.97528" lon="5.43289">
        <ele>815.8</ele>
        <time>2021-08-31T16:15:27Z</time>
      </trkpt>
      <trkpt lat="44.97528" lon="5.43291">
        <ele>814.3</ele>
        <time>2021-08-31T16:15:29Z</time>
      </trkpt>
      <trkpt lat="44.97527" lon="5.43293">
        <ele>814.3</ele>
        <time>2021-08-31T16:15:31Z</time>
      </trkpt>
      <trkpt lat="44.97526" lon="5.43294">
        <ele>814.2</ele>
        <time>2021-08-31T16:15:32Z</time>
      </trkpt>
      <trkpt lat="44.97525" lon="5.43295">
        <ele>814.1</ele>
        <time>2021-08-31T16:15:34Z</time>
      </trkpt>
      <trkpt lat="44.97524" lon="5.43296">
        <ele>814</ele>
        <time>2021-08-31T16:15:36Z</time>
      </trkpt>
      <trkpt lat="44.97523" lon="5.43296">
        <ele>813.8</ele>
        <time>2021-08-31T16:15:37Z</time>
      </trkpt>
      <trkpt lat="44.97457" lon="5.43299">
        <ele>807.7</ele>
        <time>2021-08-31T16:15:38Z</time>
      </trkpt>
      <trkpt lat="44.97439" lon="5.433">
        <ele>806.5</ele>
        <time>2021-08-31T16:15:40Z</time>
      </trkpt>
      <trkpt lat="44.97424" lon="5.43302">
        <ele>805.7</ele>
        <time>2021-08-31T16:15:41Z</time>
      </trkpt>
      <trkpt lat="44.9742" lon="5.43303">
        <ele>805.5</ele>
        <time>2021-08-31T16:15:43Z</time>
      </trkpt>
      <trkpt lat="44.97416" lon="5.43304">
        <ele>805.3</ele>
        <time>2021-08-31T16:15:44Z</time>
      </trkpt>
      <trkpt lat="44.97415" lon="5.43304">
        <ele>805.3</ele>
        <time>2021-08-31T16:15:45Z</time>
      </trkpt>
      <trkpt lat="44.97412" lon="5.43304">
        <ele>805.2</ele>
        <time>2021-08-31T16:15:47Z</time>
      </trkpt>
      <trkpt lat="44.97411" lon="5.43304">
        <ele>805.1</ele>
        <time>2021-08-31T16:15:48Z</time>
      </trkpt>
      <trkpt lat="44.97409" lon="5.43304">
        <ele>805.1</ele>
        <time>2021-08-31T16:15:49Z</time>
      </trkpt>
      <trkpt lat="44.97404" lon="5.43303">
        <ele>804.9</ele>
        <time>2021-08-31T16:15:51Z</time>
      </trkpt>
      <trkpt lat="44.97397" lon="5.433">
        <ele>804.7</ele>
        <time>2021-08-31T16:15:53Z</time>
      </trkpt>
      <trkpt lat="44.97392" lon="5.43297">
        <ele>804.6</ele>
        <time>2021-08-31T16:15:55Z</time>
      </trkpt>
      <trkpt lat="44.97391" lon="5.4329">
        <ele>804.6</ele>
        <time>2021-08-31T16:15:56Z</time>
      </trkpt>
      <trkpt lat="44.9739" lon="5.43286">
        <ele>804.5</ele>
        <time>2021-08-31T16:15:58Z</time>
      </trkpt>
      <trkpt lat="44.97389" lon="5.43285">
        <ele>804.5</ele>
        <time>2021-08-31T16:15:59Z</time>
      </trkpt>
      <trkpt lat="44.97389" lon="5.43282">
        <ele>804.5</ele>
        <time>2021-08-31T16:16:00Z</time>
      </trkpt>
      <trkpt lat="44.97388" lon="5.43281">
        <ele>804.5</ele>
        <time>2021-08-31T16:16:01Z</time>
      </trkpt>
      <trkpt lat="44.97387" lon="5.43282">
        <ele>804.5</ele>
        <time>2021-08-31T16:16:02Z</time>
      </trkpt>
      <trkpt lat="44.97385" lon="5.43282">
        <ele>804.5</ele>
        <time>2021-08-31T16:16:04Z</time>
      </trkpt>
      <trkpt lat="44.9738" lon="5.43284">
        <ele>804.5</ele>
        <time>2021-08-31T16:16:06Z</time>
      </trkpt>
      <trkpt lat="44.97376" lon="5.43284">
        <ele>804.5</ele>
        <time>2021-08-31T16:16:07Z</time>
      </trkpt>
      <trkpt lat="44.97376" lon="5.43284">
        <ele>804.5</ele>
        <time>2021-08-31T16:16:08Z</time>
      </trkpt>
      <trkpt lat="44.97375" lon="5.43282">
        <ele>804.5</ele>
        <time>2021-08-31T16:16:10Z</time>
      </trkpt>
      <trkpt lat="44.97376" lon="5.43276">
        <ele>804.5</ele>
        <time>2021-08-31T16:16:12Z</time>
      </trkpt>
      <trkpt lat="44.97377" lon="5.43273">
        <ele>804.4</ele>
        <time>2021-08-31T16:16:13Z</time>
      </trkpt>
      <trkpt lat="44.97376" lon="5.43271">
        <ele>804.4</ele>
        <time>2021-08-31T16:16:15Z</time>
      </trkpt>
      <trkpt lat="44.97374" lon="5.43271">
        <ele>804.4</ele>
        <time>2021-08-31T16:16:16Z</time>
      </trkpt>
      <trkpt lat="44.97372" lon="5.4327">
        <ele>804.3</ele>
        <time>2021-08-31T16:16:18Z</time>
      </trkpt>
      <trkpt lat="44.97368" lon="5.43269">
        <ele>804.1</ele>
        <time>2021-08-31T16:16:19Z</time>
      </trkpt>
      <trkpt lat="44.97367" lon="5.43269">
        <ele>804.1</ele>
        <time>2021-08-31T16:16:20Z</time>
      </trkpt>
      <trkpt lat="44.97366" lon="5.43269">
        <ele>804</ele>
        <time>2021-08-31T16:16:21Z</time>
      </trkpt>
      <trkpt lat="44.97364" lon="5.43268">
        <ele>803.9</ele>
        <time>2021-08-31T16:16:22Z</time>
      </trkpt>
      <trkpt lat="44.97361" lon="5.43267">
        <ele>803.7</ele>
        <time>2021-08-31T16:16:24Z</time>
      </trkpt>
      <trkpt lat="44.97361" lon="5.43267">
        <ele>803.6</ele>
        <time>2021-08-31T16:16:25Z</time>
      </trkpt>
      <trkpt lat="44.97359" lon="5.43266">
        <ele>803.5</ele>
        <time>2021-08-31T16:16:26Z</time>
      </trkpt>
      <trkpt lat="44.97358" lon="5.43265">
        <ele>803.4</ele>
        <time>2021-08-31T16:16:27Z</time>
      </trkpt>
      <trkpt lat="44.97358" lon="5.43262">
        <ele>803.2</ele>
        <time>2021-08-31T16:16:29Z</time>
      </trkpt>
      <trkpt lat="44.97357" lon="5.43257">
        <ele>805.2</ele>
        <time>2021-08-31T16:16:30Z</time>
      </trkpt>
      <trkpt lat="44.97357" lon="5.43255">
        <ele>806.6</ele>
        <time>2021-08-31T16:16:31Z</time>
      </trkpt>
      <trkpt lat="44.97356" lon="5.43251">
        <ele>808.1</ele>
        <time>2021-08-31T16:16:33Z</time>
      </trkpt>
      <trkpt lat="44.97355" lon="5.43246">
        <ele>809.6</ele>
        <time>2021-08-31T16:16:34Z</time>
      </trkpt>
      <trkpt lat="44.97354" lon="5.43243">
        <ele>811.5</ele>
        <time>2021-08-31T16:16:35Z</time>
      </trkpt>
      <trkpt lat="44.97354" lon="5.43239">
        <ele>813</ele>
        <time>2021-08-31T16:16:37Z</time>
      </trkpt>
      <trkpt lat="44.97354" lon="5.43234">
        <ele>814.7</ele>
        <time>2021-08-31T16:16:38Z</time>
      </trkpt>
      <trkpt lat="44.97353" lon="5.43233">
        <ele>815.4</ele>
        <time>2021-08-31T16:16:39Z</time>
      </trkpt>
      <trkpt lat="44.97353" lon="5.43231">
        <ele>816.2</ele>
        <time>2021-08-31T16:16:40Z</time>
      </trkpt>
      <trkpt lat="44.97353" lon="5.43227">
        <ele>817.9</ele>
        <time>2021-08-31T16:16:42Z</time>
      </trkpt>
      <trkpt lat="44.97352" lon="5.43222">
        <ele>820.7</ele>
        <time>2021-08-31T16:16:43Z</time>
      </trkpt>
      <trkpt lat="44.97352" lon="5.43214">
        <ele>822.5</ele>
        <time>2021-08-31T16:16:44Z</time>
      </trkpt>
      <trkpt lat="44.97353" lon="5.43209">
        <ele>825.3</ele>
        <time>2021-08-31T16:16:46Z</time>
      </trkpt>
      <trkpt lat="44.97355" lon="5.43201">
        <ele>826.9</ele>
        <time>2021-08-31T16:16:48Z</time>
      </trkpt>
      <trkpt lat="44.97356" lon="5.43197">
        <ele>828.7</ele>
        <time>2021-08-31T16:16:49Z</time>
      </trkpt>
      <trkpt lat="44.97357" lon="5.43196">
        <ele>830.5</ele>
        <time>2021-08-31T16:16:50Z</time>
      </trkpt>
      <trkpt lat="44.97358" lon="5.43191">
        <ele>832.3</ele>
        <time>2021-08-31T16:16:52Z</time>
      </trkpt>
      <trkpt lat="44.97358" lon="5.43188">
        <ele>834.3</ele>
        <time>2021-08-31T16:16:53Z</time>
      </trkpt>
      <trkpt lat="44.97365" lon="5.43154">
        <ele>843.5</ele>
        <time>2021-08-31T16:17:05Z</time>
      </trkpt>
      <trkpt lat="44.97365" lon="5.43147">
        <ele>846.5</ele>
        <time>2021-08-31T16:17:07Z</time>
      </trkpt>
      <trkpt lat="44.97364" lon="5.43141">
        <ele>849.6</ele>
        <time>2021-08-31T16:17:08Z</time>
      </trkpt>
      <trkpt lat="44.97361" lon="5.43136">
        <ele>850.1</ele>
        <time>2021-08-31T16:17:10Z</time>
      </trkpt>
      <trkpt lat="44.97359" lon="5.43135">
        <ele>850.3</ele>
        <time>2021-08-31T16:17:11Z</time>
      </trkpt>
      <trkpt lat="44.97357" lon="5.43135">
        <ele>850.5</ele>
        <time>2021-08-31T16:17:12Z</time>
      </trkpt>
      <trkpt lat="44.97354" lon="5.43133">
        <ele>850.8</ele>
        <time>2021-08-31T16:17:14Z</time>
      </trkpt>
      <trkpt lat="44.97351" lon="5.4313">
        <ele>851.3</ele>
        <time>2021-08-31T16:17:15Z</time>
      </trkpt>
      <trkpt lat="44.97348" lon="5.43128">
        <ele>851.6</ele>
        <time>2021-08-31T16:17:17Z</time>
      </trkpt>
      <trkpt lat="44.97347" lon="5.43128">
        <ele>851.7</ele>
        <time>2021-08-31T16:17:18Z</time>
      </trkpt>
      <trkpt lat="44.97345" lon="5.43128">
        <ele>852</ele>
        <time>2021-08-31T16:17:19Z</time>
      </trkpt>
      <trkpt lat="44.9734" lon="5.43129">
        <ele>852.5</ele>
        <time>2021-08-31T16:17:21Z</time>
      </trkpt>
      <trkpt lat="44.97337" lon="5.43129">
        <ele>852.8</ele>
        <time>2021-08-31T16:17:22Z</time>
      </trkpt>
      <trkpt lat="44.97331" lon="5.43134">
        <ele>853.5</ele>
        <time>2021-08-31T16:17:23Z</time>
      </trkpt>
      <trkpt lat="44.97325" lon="5.43137">
        <ele>854</ele>
        <time>2021-08-31T16:17:25Z</time>
      </trkpt>
      <trkpt lat="44.97321" lon="5.4314">
        <ele>854.3</ele>
        <time>2021-08-31T16:17:26Z</time>
      </trkpt>
      <trkpt lat="44.97317" lon="5.43142">
        <ele>854.6</ele>
        <time>2021-08-31T16:17:28Z</time>
      </trkpt>
      <trkpt lat="44.97315" lon="5.43143">
        <ele>854.8</ele>
        <time>2021-08-31T16:17:29Z</time>
      </trkpt>
      <trkpt lat="44.97312" lon="5.43146">
        <ele>855</ele>
        <time>2021-08-31T16:17:31Z</time>
      </trkpt>
      <trkpt lat="44.97311" lon="5.43147">
        <ele>855.1</ele>
        <time>2021-08-31T16:17:32Z</time>
      </trkpt>
      <trkpt lat="44.97308" lon="5.4315">
        <ele>855.4</ele>
        <time>2021-08-31T16:17:34Z</time>
      </trkpt>
      <trkpt lat="44.97305" lon="5.43151">
        <ele>855.6</ele>
        <time>2021-08-31T16:17:35Z</time>
      </trkpt>
      <trkpt lat="44.97302" lon="5.43152">
        <ele>855.8</ele>
        <time>2021-08-31T16:17:36Z</time>
      </trkpt>
      <trkpt lat="44.97295" lon="5.43152">
        <ele>856.2</ele>
        <time>2021-08-31T16:17:37Z</time>
      </trkpt>
      <trkpt lat="44.97287" lon="5.43153">
        <ele>856.7</ele>
        <time>2021-08-31T16:17:39Z</time>
      </trkpt>
      <trkpt lat="44.97282" lon="5.43153">
        <ele>857</ele>
        <time>2021-08-31T16:17:40Z</time>
      </trkpt>
      <trkpt lat="44.97277" lon="5.43154">
        <ele>857.3</ele>
        <time>2021-08-31T16:17:42Z</time>
      </trkpt>
      <trkpt lat="44.97275" lon="5.43154">
        <ele>857.3</ele>
        <time>2021-08-31T16:17:43Z</time>
      </trkpt>
      <trkpt lat="44.97274" lon="5.43153">
        <ele>857.4</ele>
        <time>2021-08-31T16:17:45Z</time>
      </trkpt>
      <trkpt lat="44.97268" lon="5.4314">
        <ele>857.9</ele>
        <time>2021-08-31T16:17:54Z</time>
      </trkpt>
      <trkpt lat="44.97265" lon="5.43137">
        <ele>858.1</ele>
        <time>2021-08-31T16:17:55Z</time>
      </trkpt>
      <trkpt lat="44.97261" lon="5.43131">
        <ele>858.3</ele>
        <time>2021-08-31T16:17:56Z</time>
      </trkpt>
      <trkpt lat="44.97261" lon="5.43127">
        <ele>858.5</ele>
        <time>2021-08-31T16:17:58Z</time>
      </trkpt>
      <trkpt lat="44.97261" lon="5.43125">
        <ele>858.5</ele>
        <time>2021-08-31T16:17:59Z</time>
      </trkpt>
      <trkpt lat="44.97263" lon="5.43122">
        <ele>858.6</ele>
        <time>2021-08-31T16:18:00Z</time>
      </trkpt>
      <trkpt lat="44.97263" lon="5.4312">
        <ele>858.7</ele>
        <time>2021-08-31T16:18:01Z</time>
      </trkpt>
      <trkpt lat="44.97264" lon="5.43116">
        <ele>858.8</ele>
        <time>2021-08-31T16:18:03Z</time>
      </trkpt>
      <trkpt lat="44.97263" lon="5.43113">
        <ele>858.9</ele>
        <time>2021-08-31T16:18:05Z</time>
      </trkpt>
      <trkpt lat="44.97261" lon="5.43107">
        <ele>859.1</ele>
        <time>2021-08-31T16:18:07Z</time>
      </trkpt>
      <trkpt lat="44.97259" lon="5.43104">
        <ele>859.3</ele>
        <time>2021-08-31T16:18:08Z</time>
      </trkpt>
      <trkpt lat="44.97258" lon="5.43103">
        <ele>859.3</ele>
        <time>2021-08-31T16:18:09Z</time>
      </trkpt>
      <trkpt lat="44.97256" lon="5.43101">
        <ele>859.5</ele>
        <time>2021-08-31T16:18:10Z</time>
      </trkpt>
      <trkpt lat="44.97255" lon="5.43101">
        <ele>859.5</ele>
        <time>2021-08-31T16:18:11Z</time>
      </trkpt>
      <trkpt lat="44.97252" lon="5.431">
        <ele>859.7</ele>
        <time>2021-08-31T16:18:12Z</time>
      </trkpt>
      <trkpt lat="44.97251" lon="5.431">
        <ele>859.7</ele>
        <time>2021-08-31T16:18:14Z</time>
      </trkpt>
      <trkpt lat="44.97249" lon="5.43099">
        <ele>859.8</ele>
        <time>2021-08-31T16:18:16Z</time>
      </trkpt>
      <trkpt lat="44.97249" lon="5.43099">
        <ele>859.8</ele>
        <time>2021-08-31T16:18:17Z</time>
      </trkpt>
      <trkpt lat="44.97248" lon="5.43099">
        <ele>859.9</ele>
        <time>2021-08-31T16:18:19Z</time>
      </trkpt>
      <trkpt lat="44.97247" lon="5.43098">
        <ele>859.9</ele>
        <time>2021-08-31T16:18:20Z</time>
      </trkpt>
      <trkpt lat="44.97244" lon="5.43099">
        <ele>860.1</ele>
        <time>2021-08-31T16:18:22Z</time>
      </trkpt>
      <trkpt lat="44.97243" lon="5.43099">
        <ele>860.2</ele>
        <time>2021-08-31T16:18:23Z</time>
      </trkpt>
      <trkpt lat="44.97239" lon="5.43099">
        <ele>860.4</ele>
        <time>2021-08-31T16:18:25Z</time>
      </trkpt>
      <trkpt lat="44.97235" lon="5.431">
        <ele>860.6</ele>
        <time>2021-08-31T16:18:26Z</time>
      </trkpt>
      <trkpt lat="44.97232" lon="5.43102">
        <ele>860.8</ele>
        <time>2021-08-31T16:18:27Z</time>
      </trkpt>
      <trkpt lat="44.97229" lon="5.43104">
        <ele>860.9</ele>
        <time>2021-08-31T16:18:28Z</time>
      </trkpt>
      <trkpt lat="44.97225" lon="5.43105">
        <ele>861.2</ele>
        <time>2021-08-31T16:18:29Z</time>
      </trkpt>
      <trkpt lat="44.97223" lon="5.43106">
        <ele>861.3</ele>
        <time>2021-08-31T16:18:30Z</time>
      </trkpt>
      <trkpt lat="44.97221" lon="5.43106">
        <ele>861.4</ele>
        <time>2021-08-31T16:18:31Z</time>
      </trkpt>
      <trkpt lat="44.97217" lon="5.43105">
        <ele>861.6</ele>
        <time>2021-08-31T16:18:33Z</time>
      </trkpt>
      <trkpt lat="44.97215" lon="5.43104">
        <ele>861.7</ele>
        <time>2021-08-31T16:18:34Z</time>
      </trkpt>
      <trkpt lat="44.97212" lon="5.43101">
        <ele>861.9</ele>
        <time>2021-08-31T16:18:36Z</time>
      </trkpt>
      <trkpt lat="44.9721" lon="5.431">
        <ele>862</ele>
        <time>2021-08-31T16:18:37Z</time>
      </trkpt>
      <trkpt lat="44.97208" lon="5.43097">
        <ele>862.2</ele>
        <time>2021-08-31T16:18:39Z</time>
      </trkpt>
      <trkpt lat="44.97206" lon="5.43095">
        <ele>862.3</ele>
        <time>2021-08-31T16:18:40Z</time>
      </trkpt>
      <trkpt lat="44.97204" lon="5.43092">
        <ele>862.5</ele>
        <time>2021-08-31T16:18:42Z</time>
      </trkpt>
      <trkpt lat="44.97201" lon="5.43089">
        <ele>862.7</ele>
        <time>2021-08-31T16:18:43Z</time>
      </trkpt>
      <trkpt lat="44.972" lon="5.43088">
        <ele>862.7</ele>
        <time>2021-08-31T16:18:44Z</time>
      </trkpt>
      <trkpt lat="44.97195" lon="5.43085">
        <ele>863</ele>
        <time>2021-08-31T16:18:46Z</time>
      </trkpt>
      <trkpt lat="44.97193" lon="5.43083">
        <ele>863.1</ele>
        <time>2021-08-31T16:18:47Z</time>
      </trkpt>
      <trkpt lat="44.97192" lon="5.43081">
        <ele>863.2</ele>
        <time>2021-08-31T16:18:48Z</time>
      </trkpt>
      <trkpt lat="44.97188" lon="5.43079">
        <ele>863.4</ele>
        <time>2021-08-31T16:18:50Z</time>
      </trkpt>
      <trkpt lat="44.97186" lon="5.43076">
        <ele>863.6</ele>
        <time>2021-08-31T16:18:52Z</time>
      </trkpt>
      <trkpt lat="44.97185" lon="5.43075">
        <ele>863.7</ele>
        <time>2021-08-31T16:18:54Z</time>
      </trkpt>
      <trkpt lat="44.97183" lon="5.43074">
        <ele>863.8</ele>
        <time>2021-08-31T16:18:55Z</time>
      </trkpt>
      <trkpt lat="44.9718" lon="5.43073">
        <ele>864</ele>
        <time>2021-08-31T16:18:57Z</time>
      </trkpt>
      <trkpt lat="44.97178" lon="5.43073">
        <ele>864</ele>
        <time>2021-08-31T16:18:58Z</time>
      </trkpt>
      <trkpt lat="44.97177" lon="5.43072">
        <ele>864.1</ele>
        <time>2021-08-31T16:18:59Z</time>
      </trkpt>
      <trkpt lat="44.97176" lon="5.43071">
        <ele>864.2</ele>
        <time>2021-08-31T16:19:01Z</time>
      </trkpt>
      <trkpt lat="44.97175" lon="5.4307">
        <ele>864.2</ele>
        <time>2021-08-31T16:19:02Z</time>
      </trkpt>
      <trkpt lat="44.97175" lon="5.4307">
        <ele>864.3</ele>
        <time>2021-08-31T16:19:03Z</time>
      </trkpt>
      <trkpt lat="44.97174" lon="5.43069">
        <ele>864.3</ele>
        <time>2021-08-31T16:19:04Z</time>
      </trkpt>
      <trkpt lat="44.97173" lon="5.43068">
        <ele>864.4</ele>
        <time>2021-08-31T16:19:06Z</time>
      </trkpt>
      <trkpt lat="44.97172" lon="5.43066">
        <ele>864.5</ele>
        <time>2021-08-31T16:19:07Z</time>
      </trkpt>
      <trkpt lat="44.9717" lon="5.43064">
        <ele>864.6</ele>
        <time>2021-08-31T16:19:09Z</time>
      </trkpt>
      <trkpt lat="44.97167" lon="5.43062">
        <ele>864.8</ele>
        <time>2021-08-31T16:19:10Z</time>
      </trkpt>
      <trkpt lat="44.97166" lon="5.43061">
        <ele>864.8</ele>
        <time>2021-08-31T16:19:11Z</time>
      </trkpt>
      <trkpt lat="44.97165" lon="5.43061">
        <ele>864.9</ele>
        <time>2021-08-31T16:19:12Z</time>
      </trkpt>
      <trkpt lat="44.97163" lon="5.4306">
        <ele>865</ele>
        <time>2021-08-31T16:19:13Z</time>
      </trkpt>
      <trkpt lat="44.9716" lon="5.4306">
        <ele>865.2</ele>
        <time>2021-08-31T16:19:14Z</time>
      </trkpt>
      <trkpt lat="44.97158" lon="5.43058">
        <ele>865.3</ele>
        <time>2021-08-31T16:19:16Z</time>
      </trkpt>
      <trkpt lat="44.97154" lon="5.43056">
        <ele>865.6</ele>
        <time>2021-08-31T16:19:18Z</time>
      </trkpt>
      <trkpt lat="44.97151" lon="5.43053">
        <ele>865.7</ele>
        <time>2021-08-31T16:19:19Z</time>
      </trkpt>
      <trkpt lat="44.97147" lon="5.43048">
        <ele>866</ele>
        <time>2021-08-31T16:19:21Z</time>
      </trkpt>
      <trkpt lat="44.97144" lon="5.43046">
        <ele>866.2</ele>
        <time>2021-08-31T16:19:22Z</time>
      </trkpt>
      <trkpt lat="44.97141" lon="5.43044">
        <ele>866.4</ele>
        <time>2021-08-31T16:19:23Z</time>
      </trkpt>
      <trkpt lat="44.97139" lon="5.43039">
        <ele>866.6</ele>
        <time>2021-08-31T16:19:24Z</time>
      </trkpt>
      <trkpt lat="44.97137" lon="5.43036">
        <ele>866.8</ele>
        <time>2021-08-31T16:19:26Z</time>
      </trkpt>
      <trkpt lat="44.97134" lon="5.43034">
        <ele>867</ele>
        <time>2021-08-31T16:19:28Z</time>
      </trkpt>
      <trkpt lat="44.97129" lon="5.43032">
        <ele>867.2</ele>
        <time>2021-08-31T16:19:29Z</time>
      </trkpt>
      <trkpt lat="44.97122" lon="5.43029">
        <ele>867.6</ele>
        <time>2021-08-31T16:19:31Z</time>
      </trkpt>
      <trkpt lat="44.97116" lon="5.43027">
        <ele>868</ele>
        <time>2021-08-31T16:19:33Z</time>
      </trkpt>
      <trkpt lat="44.97112" lon="5.43026">
        <ele>868.2</ele>
        <time>2021-08-31T16:19:34Z</time>
      </trkpt>
      <trkpt lat="44.97107" lon="5.43025">
        <ele>868.4</ele>
        <time>2021-08-31T16:19:35Z</time>
      </trkpt>
      <trkpt lat="44.97104" lon="5.43025">
        <ele>868.6</ele>
        <time>2021-08-31T16:19:37Z</time>
      </trkpt>
      <trkpt lat="44.97101" lon="5.43024">
        <ele>868.7</ele>
        <time>2021-08-31T16:19:38Z</time>
      </trkpt>
      <trkpt lat="44.97094" lon="5.43022">
        <ele>869.1</ele>
        <time>2021-08-31T16:19:40Z</time>
      </trkpt>
      <trkpt lat="44.97091" lon="5.43021">
        <ele>869.2</ele>
        <time>2021-08-31T16:19:41Z</time>
      </trkpt>
      <trkpt lat="44.97088" lon="5.4302">
        <ele>869.3</ele>
        <time>2021-08-31T16:19:43Z</time>
      </trkpt>
      <trkpt lat="44.97085" lon="5.4302">
        <ele>869.4</ele>
        <time>2021-08-31T16:19:44Z</time>
      </trkpt>
      <trkpt lat="44.97081" lon="5.43019">
        <ele>869.6</ele>
        <time>2021-08-31T16:19:46Z</time>
      </trkpt>
      <trkpt lat="44.97077" lon="5.43016">
        <ele>869.8</ele>
        <time>2021-08-31T16:19:48Z</time>
      </trkpt>
      <trkpt lat="44.97074" lon="5.43014">
        <ele>869.9</ele>
        <time>2021-08-31T16:19:49Z</time>
      </trkpt>
      <trkpt lat="44.97072" lon="5.43013">
        <ele>870.1</ele>
        <time>2021-08-31T16:19:50Z</time>
      </trkpt>
      <trkpt lat="44.97068" lon="5.43011">
        <ele>870.3</ele>
        <time>2021-08-31T16:19:52Z</time>
      </trkpt>
      <trkpt lat="44.97067" lon="5.43009">
        <ele>870.4</ele>
        <time>2021-08-31T16:19:53Z</time>
      </trkpt>
      <trkpt lat="44.97064" lon="5.43007">
        <ele>870.5</ele>
        <time>2021-08-31T16:19:55Z</time>
      </trkpt>
      <trkpt lat="44.97062" lon="5.43007">
        <ele>870.6</ele>
        <time>2021-08-31T16:19:56Z</time>
      </trkpt>
      <trkpt lat="44.9706" lon="5.43004">
        <ele>870.8</ele>
        <time>2021-08-31T16:19:58Z</time>
      </trkpt>
      <trkpt lat="44.97059" lon="5.43001">
        <ele>870.9</ele>
        <time>2021-08-31T16:19:59Z</time>
      </trkpt>
      <trkpt lat="44.9706" lon="5.42999">
        <ele>871</ele>
        <time>2021-08-31T16:20:01Z</time>
      </trkpt>
      <trkpt lat="44.97055" lon="5.42994">
        <ele>871.3</ele>
        <time>2021-08-31T16:20:03Z</time>
      </trkpt>
      <trkpt lat="44.97052" lon="5.42991">
        <ele>871.5</ele>
        <time>2021-08-31T16:20:04Z</time>
      </trkpt>
      <trkpt lat="44.9705" lon="5.42988">
        <ele>871.7</ele>
        <time>2021-08-31T16:20:05Z</time>
      </trkpt>
      <trkpt lat="44.97048" lon="5.42985">
        <ele>871.9</ele>
        <time>2021-08-31T16:20:06Z</time>
      </trkpt>
      <trkpt lat="44.97047" lon="5.42982">
        <ele>872</ele>
        <time>2021-08-31T16:20:07Z</time>
      </trkpt>
      <trkpt lat="44.97045" lon="5.42978">
        <ele>872.2</ele>
        <time>2021-08-31T16:20:09Z</time>
      </trkpt>
      <trkpt lat="44.97044" lon="5.42975">
        <ele>872.3</ele>
        <time>2021-08-31T16:20:10Z</time>
      </trkpt>
      <trkpt lat="44.97043" lon="5.42974">
        <ele>872.4</ele>
        <time>2021-08-31T16:20:11Z</time>
      </trkpt>
      <trkpt lat="44.97041" lon="5.42973">
        <ele>872.5</ele>
        <time>2021-08-31T16:20:13Z</time>
      </trkpt>
      <trkpt lat="44.9704" lon="5.42974">
        <ele>872.6</ele>
        <time>2021-08-31T16:20:14Z</time>
      </trkpt>
      <trkpt lat="44.97038" lon="5.42975">
        <ele>872.7</ele>
        <time>2021-08-31T16:20:15Z</time>
      </trkpt>
      <trkpt lat="44.97035" lon="5.42973">
        <ele>872.8</ele>
        <time>2021-08-31T16:20:17Z</time>
      </trkpt>
      <trkpt lat="44.9703" lon="5.42973">
        <ele>873.1</ele>
        <time>2021-08-31T16:20:19Z</time>
      </trkpt>
      <trkpt lat="44.97027" lon="5.42971">
        <ele>873.3</ele>
        <time>2021-08-31T16:20:21Z</time>
      </trkpt>
      <trkpt lat="44.97026" lon="5.42971">
        <ele>873.3</ele>
        <time>2021-08-31T16:20:22Z</time>
      </trkpt>
      <trkpt lat="44.97025" lon="5.4297">
        <ele>873.4</ele>
        <time>2021-08-31T16:20:23Z</time>
      </trkpt>
      <trkpt lat="44.97021" lon="5.42966">
        <ele>873.6</ele>
        <time>2021-08-31T16:20:25Z</time>
      </trkpt>
      <trkpt lat="44.97017" lon="5.4296">
        <ele>873.9</ele>
        <time>2021-08-31T16:20:27Z</time>
      </trkpt>
      <trkpt lat="44.97015" lon="5.42957">
        <ele>874</ele>
        <time>2021-08-31T16:20:28Z</time>
      </trkpt>
      <trkpt lat="44.97011" lon="5.42953">
        <ele>874.3</ele>
        <time>2021-08-31T16:20:30Z</time>
      </trkpt>
      <trkpt lat="44.97007" lon="5.4295">
        <ele>874.5</ele>
        <time>2021-08-31T16:20:31Z</time>
      </trkpt>
      <trkpt lat="44.97004" lon="5.4295">
        <ele>874.6</ele>
        <time>2021-08-31T16:20:32Z</time>
      </trkpt>
      <trkpt lat="44.97003" lon="5.4295">
        <ele>874.6</ele>
        <time>2021-08-31T16:20:34Z</time>
      </trkpt>
      <trkpt lat="44.97004" lon="5.42952">
        <ele>874.7</ele>
        <time>2021-08-31T16:20:35Z</time>
      </trkpt>
      <trkpt lat="44.97004" lon="5.42954">
        <ele>874.8</ele>
        <time>2021-08-31T16:20:36Z</time>
      </trkpt>
      <trkpt lat="44.97003" lon="5.42956">
        <ele>874.9</ele>
        <time>2021-08-31T16:20:38Z</time>
      </trkpt>
      <trkpt lat="44.97001" lon="5.42956">
        <ele>874.9</ele>
        <time>2021-08-31T16:20:39Z</time>
      </trkpt>
      <trkpt lat="44.97" lon="5.42956">
        <ele>875</ele>
        <time>2021-08-31T16:20:41Z</time>
      </trkpt>
      <trkpt lat="44.96999" lon="5.42956">
        <ele>875</ele>
        <time>2021-08-31T16:20:42Z</time>
      </trkpt>
      <trkpt lat="44.96998" lon="5.42956">
        <ele>875.1</ele>
        <time>2021-08-31T16:20:43Z</time>
      </trkpt>
      <trkpt lat="44.96994" lon="5.42955">
        <ele>875.3</ele>
        <time>2021-08-31T16:20:45Z</time>
      </trkpt>
      <trkpt lat="44.96991" lon="5.42954">
        <ele>875.4</ele>
        <time>2021-08-31T16:20:46Z</time>
      </trkpt>
      <trkpt lat="44.96987" lon="5.42953">
        <ele>875.6</ele>
        <time>2021-08-31T16:20:47Z</time>
      </trkpt>
      <trkpt lat="44.96986" lon="5.42953">
        <ele>875.7</ele>
        <time>2021-08-31T16:20:48Z</time>
      </trkpt>
      <trkpt lat="44.96981" lon="5.42951">
        <ele>875.9</ele>
        <time>2021-08-31T16:20:50Z</time>
      </trkpt>
      <trkpt lat="44.96979" lon="5.42951">
        <ele>876</ele>
        <time>2021-08-31T16:20:51Z</time>
      </trkpt>
      <trkpt lat="44.96978" lon="5.4295">
        <ele>876.1</ele>
        <time>2021-08-31T16:20:53Z</time>
      </trkpt>
      <trkpt lat="44.96976" lon="5.42949">
        <ele>876.1</ele>
        <time>2021-08-31T16:20:54Z</time>
      </trkpt>
      <trkpt lat="44.96976" lon="5.42949">
        <ele>876.2</ele>
        <time>2021-08-31T16:20:55Z</time>
      </trkpt>
      <trkpt lat="44.96974" lon="5.42949">
        <ele>876.2</ele>
        <time>2021-08-31T16:20:57Z</time>
      </trkpt>
      <trkpt lat="44.96973" lon="5.42949">
        <ele>876.3</ele>
        <time>2021-08-31T16:20:58Z</time>
      </trkpt>
      <trkpt lat="44.96971" lon="5.42949">
        <ele>876.4</ele>
        <time>2021-08-31T16:21:00Z</time>
      </trkpt>
      <trkpt lat="44.96965" lon="5.42945">
        <ele>876.7</ele>
        <time>2021-08-31T16:21:04Z</time>
      </trkpt>
      <trkpt lat="44.96963" lon="5.42944">
        <ele>876.8</ele>
        <time>2021-08-31T16:21:05Z</time>
      </trkpt>
      <trkpt lat="44.9696" lon="5.4294">
        <ele>877</ele>
        <time>2021-08-31T16:21:06Z</time>
      </trkpt>
      <trkpt lat="44.96958" lon="5.42936">
        <ele>877.2</ele>
        <time>2021-08-31T16:21:07Z</time>
      </trkpt>
      <trkpt lat="44.96951" lon="5.4293">
        <ele>877.6</ele>
        <time>2021-08-31T16:21:09Z</time>
      </trkpt>
      <trkpt lat="44.96943" lon="5.42924">
        <ele>878</ele>
        <time>2021-08-31T16:21:11Z</time>
      </trkpt>
      <trkpt lat="44.9694" lon="5.42921">
        <ele>878.2</ele>
        <time>2021-08-31T16:21:12Z</time>
      </trkpt>
      <trkpt lat="44.96937" lon="5.4292">
        <ele>878.3</ele>
        <time>2021-08-31T16:21:13Z</time>
      </trkpt>
      <trkpt lat="44.96931" lon="5.42917">
        <ele>878.6</ele>
        <time>2021-08-31T16:21:15Z</time>
      </trkpt>
      <trkpt lat="44.96926" lon="5.42915">
        <ele>878.8</ele>
        <time>2021-08-31T16:21:16Z</time>
      </trkpt>
      <trkpt lat="44.96924" lon="5.42913">
        <ele>878.9</ele>
        <time>2021-08-31T16:21:17Z</time>
      </trkpt>
      <trkpt lat="44.96921" lon="5.42911">
        <ele>879.1</ele>
        <time>2021-08-31T16:21:18Z</time>
      </trkpt>
      <trkpt lat="44.96919" lon="5.42911">
        <ele>879.1</ele>
        <time>2021-08-31T16:21:19Z</time>
      </trkpt>
      <trkpt lat="44.96915" lon="5.4291">
        <ele>879.3</ele>
        <time>2021-08-31T16:21:21Z</time>
      </trkpt>
      <trkpt lat="44.96908" lon="5.42906">
        <ele>879.5</ele>
        <time>2021-08-31T16:21:23Z</time>
      </trkpt>
      <trkpt lat="44.96904" lon="5.42902">
        <ele>879.6</ele>
        <time>2021-08-31T16:21:24Z</time>
      </trkpt>
      <trkpt lat="44.96902" lon="5.42899">
        <ele>879.5</ele>
        <time>2021-08-31T16:21:25Z</time>
      </trkpt>
      <trkpt lat="44.96897" lon="5.42893">
        <ele>879.5</ele>
        <time>2021-08-31T16:21:27Z</time>
      </trkpt>
      <trkpt lat="44.96894" lon="5.42886">
        <ele>879.4</ele>
        <time>2021-08-31T16:21:29Z</time>
      </trkpt>
      <trkpt lat="44.96892" lon="5.42883">
        <ele>879.3</ele>
        <time>2021-08-31T16:21:30Z</time>
      </trkpt>
      <trkpt lat="44.96888" lon="5.42878">
        <ele>879.2</ele>
        <time>2021-08-31T16:21:32Z</time>
      </trkpt>
      <trkpt lat="44.96886" lon="5.4288">
        <ele>879.2</ele>
        <time>2021-08-31T16:21:33Z</time>
      </trkpt>
      <trkpt lat="44.96883" lon="5.42884">
        <ele>879.1</ele>
        <time>2021-08-31T16:21:35Z</time>
      </trkpt>
      <trkpt lat="44.96881" lon="5.42886">
        <ele>879</ele>
        <time>2021-08-31T16:21:37Z</time>
      </trkpt>
      <trkpt lat="44.96879" lon="5.42887">
        <ele>878.9</ele>
        <time>2021-08-31T16:21:38Z</time>
      </trkpt>
      <trkpt lat="44.96875" lon="5.42887">
        <ele>878.8</ele>
        <time>2021-08-31T16:21:40Z</time>
      </trkpt>
      <trkpt lat="44.96857" lon="5.42872">
        <ele>877.9</ele>
        <time>2021-08-31T16:21:43Z</time>
      </trkpt>
      <trkpt lat="44.9685" lon="5.4286">
        <ele>877.3</ele>
        <time>2021-08-31T16:21:44Z</time>
      </trkpt>
      <trkpt lat="44.96839" lon="5.42839">
        <ele>876.1</ele>
        <time>2021-08-31T16:21:46Z</time>
      </trkpt>
      <trkpt lat="44.96834" lon="5.42829">
        <ele>875.7</ele>
        <time>2021-08-31T16:21:47Z</time>
      </trkpt>
      <trkpt lat="44.96827" lon="5.42809">
        <ele>874.9</ele>
        <time>2021-08-31T16:21:49Z</time>
      </trkpt>
      <trkpt lat="44.9682" lon="5.42791">
        <ele>874.2</ele>
        <time>2021-08-31T16:21:51Z</time>
      </trkpt>
      <trkpt lat="44.96817" lon="5.42782">
        <ele>873.8</ele>
        <time>2021-08-31T16:21:52Z</time>
      </trkpt>
      <trkpt lat="44.96807" lon="5.42765">
        <ele>873.1</ele>
        <time>2021-08-31T16:21:54Z</time>
      </trkpt>
      <trkpt lat="44.96801" lon="5.42756">
        <ele>872.7</ele>
        <time>2021-08-31T16:21:55Z</time>
      </trkpt>
      <trkpt lat="44.96788" lon="5.42742">
        <ele>872.2</ele>
        <time>2021-08-31T16:21:57Z</time>
      </trkpt>
      <trkpt lat="44.9678" lon="5.42736">
        <ele>871.9</ele>
        <time>2021-08-31T16:21:58Z</time>
      </trkpt>
      <trkpt lat="44.96765" lon="5.42726">
        <ele>871.6</ele>
        <time>2021-08-31T16:22:00Z</time>
      </trkpt>
      <trkpt lat="44.96749" lon="5.42717">
        <ele>871.4</ele>
        <time>2021-08-31T16:22:02Z</time>
      </trkpt>
      <trkpt lat="44.96742" lon="5.42713">
        <ele>871.3</ele>
        <time>2021-08-31T16:22:03Z</time>
      </trkpt>
      <trkpt lat="44.96728" lon="5.42704">
        <ele>871.2</ele>
        <time>2021-08-31T16:22:05Z</time>
      </trkpt>
      <trkpt lat="44.96715" lon="5.42695">
        <ele>871.2</ele>
        <time>2021-08-31T16:22:07Z</time>
      </trkpt>
      <trkpt lat="44.96709" lon="5.42689">
        <ele>871.3</ele>
        <time>2021-08-31T16:22:08Z</time>
      </trkpt>
      <trkpt lat="44.96698" lon="5.42676">
        <ele>871.5</ele>
        <time>2021-08-31T16:22:10Z</time>
      </trkpt>
      <trkpt lat="44.96693" lon="5.42668">
        <ele>871.6</ele>
        <time>2021-08-31T16:22:11Z</time>
      </trkpt>
      <trkpt lat="44.96684" lon="5.42654">
        <ele>871.9</ele>
        <time>2021-08-31T16:22:13Z</time>
      </trkpt>
      <trkpt lat="44.96681" lon="5.42647">
        <ele>872</ele>
        <time>2021-08-31T16:22:14Z</time>
      </trkpt>
      <trkpt lat="44.96675" lon="5.42631">
        <ele>872.2</ele>
        <time>2021-08-31T16:22:16Z</time>
      </trkpt>
      <trkpt lat="44.96672" lon="5.42624">
        <ele>872.2</ele>
        <time>2021-08-31T16:22:17Z</time>
      </trkpt>
      <trkpt lat="44.96665" lon="5.42613">
        <ele>872.3</ele>
        <time>2021-08-31T16:22:19Z</time>
      </trkpt>
      <trkpt lat="44.96657" lon="5.42602">
        <ele>872.3</ele>
        <time>2021-08-31T16:22:21Z</time>
      </trkpt>
      <trkpt lat="44.96653" lon="5.42597">
        <ele>872.3</ele>
        <time>2021-08-31T16:22:22Z</time>
      </trkpt>
      <trkpt lat="44.96649" lon="5.42592">
        <ele>872.3</ele>
        <time>2021-08-31T16:22:23Z</time>
      </trkpt>
      <trkpt lat="44.9664" lon="5.42582">
        <ele>872.4</ele>
        <time>2021-08-31T16:22:25Z</time>
      </trkpt>
      <trkpt lat="44.96632" lon="5.42574">
        <ele>872.5</ele>
        <time>2021-08-31T16:22:27Z</time>
      </trkpt>
      <trkpt lat="44.96628" lon="5.42569">
        <ele>872.6</ele>
        <time>2021-08-31T16:22:28Z</time>
      </trkpt>
      <trkpt lat="44.96624" lon="5.42564">
        <ele>872.7</ele>
        <time>2021-08-31T16:22:29Z</time>
      </trkpt>
      <trkpt lat="44.96618" lon="5.42554">
        <ele>872.9</ele>
        <time>2021-08-31T16:22:31Z</time>
      </trkpt>
      <trkpt lat="44.96614" lon="5.42548">
        <ele>873</ele>
        <time>2021-08-31T16:22:32Z</time>
      </trkpt>
      <trkpt lat="44.96611" lon="5.42542">
        <ele>873.2</ele>
        <time>2021-08-31T16:22:33Z</time>
      </trkpt>
      <trkpt lat="44.96605" lon="5.42532">
        <ele>873.5</ele>
        <time>2021-08-31T16:22:35Z</time>
      </trkpt>
      <trkpt lat="44.96602" lon="5.42527">
        <ele>873.7</ele>
        <time>2021-08-31T16:22:36Z</time>
      </trkpt>
      <trkpt lat="44.96597" lon="5.4252">
        <ele>873.9</ele>
        <time>2021-08-31T16:22:38Z</time>
      </trkpt>
      <trkpt lat="44.96593" lon="5.42512">
        <ele>874.2</ele>
        <time>2021-08-31T16:22:40Z</time>
      </trkpt>
      <trkpt lat="44.96588" lon="5.42504">
        <ele>874.5</ele>
        <time>2021-08-31T16:22:42Z</time>
      </trkpt>
      <trkpt lat="44.96586" lon="5.42499">
        <ele>874.7</ele>
        <time>2021-08-31T16:22:43Z</time>
      </trkpt>
      <trkpt lat="44.96585" lon="5.42494">
        <ele>874.8</ele>
        <time>2021-08-31T16:22:45Z</time>
      </trkpt>
      <trkpt lat="44.96584" lon="5.4249">
        <ele>875</ele>
        <time>2021-08-31T16:22:46Z</time>
      </trkpt>
      <trkpt lat="44.96581" lon="5.42487">
        <ele>875.2</ele>
        <time>2021-08-31T16:22:47Z</time>
      </trkpt>
      <trkpt lat="44.96577" lon="5.42484">
        <ele>875.4</ele>
        <time>2021-08-31T16:22:48Z</time>
      </trkpt>
      <trkpt lat="44.96573" lon="5.42478">
        <ele>875.8</ele>
        <time>2021-08-31T16:22:50Z</time>
      </trkpt>
      <trkpt lat="44.9657" lon="5.42472">
        <ele>876.1</ele>
        <time>2021-08-31T16:22:52Z</time>
      </trkpt>
      <trkpt lat="44.96568" lon="5.42468">
        <ele>876.4</ele>
        <time>2021-08-31T16:22:53Z</time>
      </trkpt>
      <trkpt lat="44.96566" lon="5.42465">
        <ele>876.6</ele>
        <time>2021-08-31T16:22:54Z</time>
      </trkpt>
      <trkpt lat="44.96563" lon="5.42462">
        <ele>876.8</ele>
        <time>2021-08-31T16:22:56Z</time>
      </trkpt>
      <trkpt lat="44.96561" lon="5.42459">
        <ele>877</ele>
        <time>2021-08-31T16:22:57Z</time>
      </trkpt>
      <trkpt lat="44.96558" lon="5.42455">
        <ele>877.4</ele>
        <time>2021-08-31T16:22:59Z</time>
      </trkpt>
      <trkpt lat="44.96558" lon="5.42453">
        <ele>877.5</ele>
        <time>2021-08-31T16:23:00Z</time>
      </trkpt>
      <trkpt lat="44.96557" lon="5.42451">
        <ele>877.6</ele>
        <time>2021-08-31T16:23:01Z</time>
      </trkpt>
      <trkpt lat="44.96557" lon="5.42449">
        <ele>877.7</ele>
        <time>2021-08-31T16:23:02Z</time>
      </trkpt>
      <trkpt lat="44.96557" lon="5.42444">
        <ele>878</ele>
        <time>2021-08-31T16:23:04Z</time>
      </trkpt>
      <trkpt lat="44.96555" lon="5.42439">
        <ele>878.3</ele>
        <time>2021-08-31T16:23:06Z</time>
      </trkpt>
      <trkpt lat="44.96554" lon="5.42434">
        <ele>878.7</ele>
        <time>2021-08-31T16:23:07Z</time>
      </trkpt>
      <trkpt lat="44.96554" lon="5.42428">
        <ele>879</ele>
        <time>2021-08-31T16:23:08Z</time>
      </trkpt>
      <trkpt lat="44.96554" lon="5.42423">
        <ele>879.3</ele>
        <time>2021-08-31T16:23:10Z</time>
      </trkpt>
      <trkpt lat="44.96554" lon="5.42418">
        <ele>879.6</ele>
        <time>2021-08-31T16:23:11Z</time>
      </trkpt>
      <trkpt lat="44.96553" lon="5.42417">
        <ele>879.7</ele>
        <time>2021-08-31T16:23:12Z</time>
      </trkpt>
      <trkpt lat="44.96553" lon="5.42413">
        <ele>880</ele>
        <time>2021-08-31T16:23:14Z</time>
      </trkpt>
      <trkpt lat="44.96553" lon="5.4241">
        <ele>880.1</ele>
        <time>2021-08-31T16:23:15Z</time>
      </trkpt>
      <trkpt lat="44.96553" lon="5.42408">
        <ele>880.3</ele>
        <time>2021-08-31T16:23:16Z</time>
      </trkpt>
      <trkpt lat="44.96554" lon="5.42403">
        <ele>880.6</ele>
        <time>2021-08-31T16:23:18Z</time>
      </trkpt>
      <trkpt lat="44.96555" lon="5.424">
        <ele>880.8</ele>
        <time>2021-08-31T16:23:19Z</time>
      </trkpt>
      <trkpt lat="44.96555" lon="5.42396">
        <ele>881.1</ele>
        <time>2021-08-31T16:23:21Z</time>
      </trkpt>
      <trkpt lat="44.96555" lon="5.42394">
        <ele>881.2</ele>
        <time>2021-08-31T16:23:22Z</time>
      </trkpt>
      <trkpt lat="44.96555" lon="5.42392">
        <ele>881.3</ele>
        <time>2021-08-31T16:23:23Z</time>
      </trkpt>
      <trkpt lat="44.96555" lon="5.4239">
        <ele>881.4</ele>
        <time>2021-08-31T16:23:25Z</time>
      </trkpt>
      <trkpt lat="44.96554" lon="5.42389">
        <ele>881.5</ele>
        <time>2021-08-31T16:23:26Z</time>
      </trkpt>
      <trkpt lat="44.96553" lon="5.42388">
        <ele>881.6</ele>
        <time>2021-08-31T16:23:27Z</time>
      </trkpt>
      <trkpt lat="44.96553" lon="5.42386">
        <ele>881.7</ele>
        <time>2021-08-31T16:23:28Z</time>
      </trkpt>
      <trkpt lat="44.96553" lon="5.42384">
        <ele>881.8</ele>
        <time>2021-08-31T16:23:29Z</time>
      </trkpt>
      <trkpt lat="44.96552" lon="5.4238">
        <ele>882.1</ele>
        <time>2021-08-31T16:23:31Z</time>
      </trkpt>
      <trkpt lat="44.96552" lon="5.42378">
        <ele>882.5</ele>
        <time>2021-08-31T16:23:32Z</time>
      </trkpt>
      <trkpt lat="44.96551" lon="5.42375">
        <ele>882.7</ele>
        <time>2021-08-31T16:23:33Z</time>
      </trkpt>
      <trkpt lat="44.96552" lon="5.42371">
        <ele>883.1</ele>
        <time>2021-08-31T16:23:35Z</time>
      </trkpt>
      <trkpt lat="44.96552" lon="5.4237">
        <ele>883.2</ele>
        <time>2021-08-31T16:23:36Z</time>
      </trkpt>
      <trkpt lat="44.96552" lon="5.4237">
        <ele>883.3</ele>
        <time>2021-08-31T16:23:37Z</time>
      </trkpt>
      <trkpt lat="44.9655" lon="5.42368">
        <ele>883.4</ele>
        <time>2021-08-31T16:23:39Z</time>
      </trkpt>
      <trkpt lat="44.96549" lon="5.42367">
        <ele>883.6</ele>
        <time>2021-08-31T16:23:40Z</time>
      </trkpt>
      <trkpt lat="44.96547" lon="5.42363">
        <ele>884</ele>
        <time>2021-08-31T16:23:42Z</time>
      </trkpt>
      <trkpt lat="44.96546" lon="5.42362">
        <ele>884.2</ele>
        <time>2021-08-31T16:23:43Z</time>
      </trkpt>
      <trkpt lat="44.96543" lon="5.4236">
        <ele>884.5</ele>
        <time>2021-08-31T16:23:45Z</time>
      </trkpt>
      <trkpt lat="44.96539" lon="5.42357">
        <ele>884.9</ele>
        <time>2021-08-31T16:23:46Z</time>
      </trkpt>
      <trkpt lat="44.96535" lon="5.42355">
        <ele>885.5</ele>
        <time>2021-08-31T16:23:48Z</time>
      </trkpt>
      <trkpt lat="44.96533" lon="5.42354">
        <ele>885.7</ele>
        <time>2021-08-31T16:23:49Z</time>
      </trkpt>
      <trkpt lat="44.96531" lon="5.42352">
        <ele>886</ele>
        <time>2021-08-31T16:23:51Z</time>
      </trkpt>
      <trkpt lat="44.9653" lon="5.4235">
        <ele>886.2</ele>
        <time>2021-08-31T16:23:52Z</time>
      </trkpt>
      <trkpt lat="44.9653" lon="5.42349">
        <ele>886.2</ele>
        <time>2021-08-31T16:23:54Z</time>
      </trkpt>
      <trkpt lat="44.9653" lon="5.42349">
        <ele>886.2</ele>
        <time>2021-08-31T16:23:55Z</time>
      </trkpt>
      <trkpt lat="44.96531" lon="5.42349">
        <ele>886.3</ele>
        <time>2021-08-31T16:23:56Z</time>
      </trkpt>
      <trkpt lat="44.9653" lon="5.42348">
        <ele>886.3</ele>
        <time>2021-08-31T16:23:57Z</time>
      </trkpt>
      <trkpt lat="44.9653" lon="5.42346">
        <ele>886.5</ele>
        <time>2021-08-31T16:23:59Z</time>
      </trkpt>
      <trkpt lat="44.96529" lon="5.42344">
        <ele>886.7</ele>
        <time>2021-08-31T16:24:00Z</time>
      </trkpt>
      <trkpt lat="44.96529" lon="5.42344">
        <ele>886.7</ele>
        <time>2021-08-31T16:24:01Z</time>
      </trkpt>
      <trkpt lat="44.96529" lon="5.42343">
        <ele>886.8</ele>
        <time>2021-08-31T16:24:02Z</time>
      </trkpt>
      <trkpt lat="44.96528" lon="5.42341">
        <ele>887</ele>
        <time>2021-08-31T16:24:03Z</time>
      </trkpt>
      <trkpt lat="44.96527" lon="5.42338">
        <ele>887.3</ele>
        <time>2021-08-31T16:24:04Z</time>
      </trkpt>
      <trkpt lat="44.96526" lon="5.42334">
        <ele>887.6</ele>
        <time>2021-08-31T16:24:06Z</time>
      </trkpt>
      <trkpt lat="44.96526" lon="5.42331">
        <ele>887.8</ele>
        <time>2021-08-31T16:24:07Z</time>
      </trkpt>
      <trkpt lat="44.96525" lon="5.42329">
        <ele>888</ele>
        <time>2021-08-31T16:24:09Z</time>
      </trkpt>
      <trkpt lat="44.96524" lon="5.42328">
        <ele>888.2</ele>
        <time>2021-08-31T16:24:10Z</time>
      </trkpt>
      <trkpt lat="44.96523" lon="5.42327">
        <ele>888.3</ele>
        <time>2021-08-31T16:24:11Z</time>
      </trkpt>
      <trkpt lat="44.96522" lon="5.42322">
        <ele>888.7</ele>
        <time>2021-08-31T16:24:13Z</time>
      </trkpt>
      <trkpt lat="44.96521" lon="5.42321">
        <ele>888.8</ele>
        <time>2021-08-31T16:24:14Z</time>
      </trkpt>
      <trkpt lat="44.96521" lon="5.42318">
        <ele>889</ele>
        <time>2021-08-31T16:24:16Z</time>
      </trkpt>
      <trkpt lat="44.9652" lon="5.42317">
        <ele>889.1</ele>
        <time>2021-08-31T16:24:17Z</time>
      </trkpt>
      <trkpt lat="44.9652" lon="5.42316">
        <ele>889.2</ele>
        <time>2021-08-31T16:24:18Z</time>
      </trkpt>
      <trkpt lat="44.96518" lon="5.42313">
        <ele>889.5</ele>
        <time>2021-08-31T16:24:19Z</time>
      </trkpt>
      <trkpt lat="44.96517" lon="5.42309">
        <ele>889.8</ele>
        <time>2021-08-31T16:24:20Z</time>
      </trkpt>
      <trkpt lat="44.96516" lon="5.42308">
        <ele>890</ele>
        <time>2021-08-31T16:24:21Z</time>
      </trkpt>
      <trkpt lat="44.96516" lon="5.42302">
        <ele>890.4</ele>
        <time>2021-08-31T16:24:23Z</time>
      </trkpt>
      <trkpt lat="44.96515" lon="5.42298">
        <ele>890.8</ele>
        <time>2021-08-31T16:24:25Z</time>
      </trkpt>
      <trkpt lat="44.96514" lon="5.42297">
        <ele>891.1</ele>
        <time>2021-08-31T16:24:27Z</time>
      </trkpt>
      <trkpt lat="44.96513" lon="5.42296">
        <ele>891.1</ele>
        <time>2021-08-31T16:24:29Z</time>
      </trkpt>
      <trkpt lat="44.96512" lon="5.42296">
        <ele>891.1</ele>
        <time>2021-08-31T16:24:30Z</time>
      </trkpt>
      <trkpt lat="44.96512" lon="5.42295">
        <ele>891.1</ele>
        <time>2021-08-31T16:24:31Z</time>
      </trkpt>
      <trkpt lat="44.96511" lon="5.42295">
        <ele>891.1</ele>
        <time>2021-08-31T16:24:32Z</time>
      </trkpt>
      <trkpt lat="44.96511" lon="5.42295">
        <ele>891.1</ele>
        <time>2021-08-31T16:24:34Z</time>
      </trkpt>
      <trkpt lat="44.96518" lon="5.42215">
        <ele>902.4</ele>
        <time>2021-08-31T16:26:03Z</time>
      </trkpt>
      <trkpt lat="44.96519" lon="5.42211">
        <ele>902.7</ele>
        <time>2021-08-31T16:26:04Z</time>
      </trkpt>
      <trkpt lat="44.96521" lon="5.42206">
        <ele>903</ele>
        <time>2021-08-31T16:26:05Z</time>
      </trkpt>
      <trkpt lat="44.96523" lon="5.42202">
        <ele>903.3</ele>
        <time>2021-08-31T16:26:07Z</time>
      </trkpt>
      <trkpt lat="44.96525" lon="5.42198">
        <ele>903.6</ele>
        <time>2021-08-31T16:26:08Z</time>
      </trkpt>
      <trkpt lat="44.96527" lon="5.42194">
        <ele>903.8</ele>
        <time>2021-08-31T16:26:10Z</time>
      </trkpt>
      <trkpt lat="44.96527" lon="5.42191">
        <ele>904</ele>
        <time>2021-08-31T16:26:11Z</time>
      </trkpt>
      <trkpt lat="44.96528" lon="5.42187">
        <ele>904.2</ele>
        <time>2021-08-31T16:26:13Z</time>
      </trkpt>
      <trkpt lat="44.96529" lon="5.42184">
        <ele>904.3</ele>
        <time>2021-08-31T16:26:14Z</time>
      </trkpt>
      <trkpt lat="44.96528" lon="5.42178">
        <ele>904.6</ele>
        <time>2021-08-31T16:26:16Z</time>
      </trkpt>
      <trkpt lat="44.96528" lon="5.42172">
        <ele>904.7</ele>
        <time>2021-08-31T16:26:17Z</time>
      </trkpt>
      <trkpt lat="44.96527" lon="5.42165">
        <ele>904.9</ele>
        <time>2021-08-31T16:26:19Z</time>
      </trkpt>
      <trkpt lat="44.96528" lon="5.42161">
        <ele>904.9</ele>
        <time>2021-08-31T16:26:20Z</time>
      </trkpt>
      <trkpt lat="44.96528" lon="5.42158">
        <ele>904.9</ele>
        <time>2021-08-31T16:26:21Z</time>
      </trkpt>
      <trkpt lat="44.96527" lon="5.42152">
        <ele>904.9</ele>
        <time>2021-08-31T16:26:23Z</time>
      </trkpt>
      <trkpt lat="44.96525" lon="5.42148">
        <ele>904.9</ele>
        <time>2021-08-31T16:26:24Z</time>
      </trkpt>
      <trkpt lat="44.96523" lon="5.42141">
        <ele>904.9</ele>
        <time>2021-08-31T16:26:26Z</time>
      </trkpt>
      <trkpt lat="44.96523" lon="5.42137">
        <ele>904.9</ele>
        <time>2021-08-31T16:26:27Z</time>
      </trkpt>
      <trkpt lat="44.96523" lon="5.42132">
        <ele>904.8</ele>
        <time>2021-08-31T16:26:28Z</time>
      </trkpt>
      <trkpt lat="44.96524" lon="5.42128">
        <ele>904.8</ele>
        <time>2021-08-31T16:26:29Z</time>
      </trkpt>
      <trkpt lat="44.96528" lon="5.4212">
        <ele>904.7</ele>
        <time>2021-08-31T16:26:31Z</time>
      </trkpt>
      <trkpt lat="44.9653" lon="5.42115">
        <ele>904.6</ele>
        <time>2021-08-31T16:26:32Z</time>
      </trkpt>
      <trkpt lat="44.96532" lon="5.42109">
        <ele>904.6</ele>
        <time>2021-08-31T16:26:33Z</time>
      </trkpt>
      <trkpt lat="44.96536" lon="5.42098">
        <ele>904.4</ele>
        <time>2021-08-31T16:26:35Z</time>
      </trkpt>
      <trkpt lat="44.96537" lon="5.42094">
        <ele>904.4</ele>
        <time>2021-08-31T16:26:36Z</time>
      </trkpt>
      <trkpt lat="44.96538" lon="5.42091">
        <ele>904.3</ele>
        <time>2021-08-31T16:26:37Z</time>
      </trkpt>
      <trkpt lat="44.96539" lon="5.42087">
        <ele>904.3</ele>
        <time>2021-08-31T16:26:38Z</time>
      </trkpt>
      <trkpt lat="44.96545" lon="5.42076">
        <ele>904.1</ele>
        <time>2021-08-31T16:26:40Z</time>
      </trkpt>
      <trkpt lat="44.96547" lon="5.42071">
        <ele>904</ele>
        <time>2021-08-31T16:26:41Z</time>
      </trkpt>
      <trkpt lat="44.96552" lon="5.4206">
        <ele>903.7</ele>
        <time>2021-08-31T16:26:43Z</time>
      </trkpt>
      <trkpt lat="44.96557" lon="5.42053">
        <ele>903.3</ele>
        <time>2021-08-31T16:26:44Z</time>
      </trkpt>
      <trkpt lat="44.9656" lon="5.42046">
        <ele>902.9</ele>
        <time>2021-08-31T16:26:45Z</time>
      </trkpt>
      <trkpt lat="44.96567" lon="5.42032">
        <ele>902</ele>
        <time>2021-08-31T16:26:47Z</time>
      </trkpt>
      <trkpt lat="44.96571" lon="5.42025">
        <ele>901.5</ele>
        <time>2021-08-31T16:26:48Z</time>
      </trkpt>
      <trkpt lat="44.96581" lon="5.42008">
        <ele>900.1</ele>
        <time>2021-08-31T16:26:50Z</time>
      </trkpt>
      <trkpt lat="44.96588" lon="5.41992">
        <ele>898.9</ele>
        <time>2021-08-31T16:26:52Z</time>
      </trkpt>
      <trkpt lat="44.96591" lon="5.41983">
        <ele>898.2</ele>
        <time>2021-08-31T16:26:53Z</time>
      </trkpt>
      <trkpt lat="44.96598" lon="5.41965">
        <ele>897</ele>
        <time>2021-08-31T16:26:55Z</time>
      </trkpt>
      <trkpt lat="44.96602" lon="5.41955">
        <ele>896.5</ele>
        <time>2021-08-31T16:26:56Z</time>
      </trkpt>
      <trkpt lat="44.96611" lon="5.41938">
        <ele>895.4</ele>
        <time>2021-08-31T16:26:58Z</time>
      </trkpt>
      <trkpt lat="44.96621" lon="5.41925">
        <ele>894.4</ele>
        <time>2021-08-31T16:27:00Z</time>
      </trkpt>
      <trkpt lat="44.96625" lon="5.41919">
        <ele>893.9</ele>
        <time>2021-08-31T16:27:01Z</time>
      </trkpt>
      <trkpt lat="44.9663" lon="5.41914">
        <ele>893.5</ele>
        <time>2021-08-31T16:27:02Z</time>
      </trkpt>
      <trkpt lat="44.96635" lon="5.41909">
        <ele>893</ele>
        <time>2021-08-31T16:27:03Z</time>
      </trkpt>
      <trkpt lat="44.9664" lon="5.41904">
        <ele>892.5</ele>
        <time>2021-08-31T16:27:04Z</time>
      </trkpt>
      <trkpt lat="44.9665" lon="5.41896">
        <ele>891.8</ele>
        <time>2021-08-31T16:27:06Z</time>
      </trkpt>
      <trkpt lat="44.96653" lon="5.41892">
        <ele>891.5</ele>
        <time>2021-08-31T16:27:07Z</time>
      </trkpt>
      <trkpt lat="44.96657" lon="5.41884">
        <ele>890.9</ele>
        <time>2021-08-31T16:27:09Z</time>
      </trkpt>
      <trkpt lat="44.96658" lon="5.41878">
        <ele>890.9</ele>
        <time>2021-08-31T16:27:11Z</time>
      </trkpt>
      <trkpt lat="44.9666" lon="5.41871">
        <ele>890.9</ele>
        <time>2021-08-31T16:27:13Z</time>
      </trkpt>
      <trkpt lat="44.96662" lon="5.41866">
        <ele>890.9</ele>
        <time>2021-08-31T16:27:14Z</time>
      </trkpt>
      <trkpt lat="44.96666" lon="5.4186">
        <ele>890.8</ele>
        <time>2021-08-31T16:27:15Z</time>
      </trkpt>
      <trkpt lat="44.96671" lon="5.41855">
        <ele>890.7</ele>
        <time>2021-08-31T16:27:17Z</time>
      </trkpt>
      <trkpt lat="44.96672" lon="5.41847">
        <ele>890.7</ele>
        <time>2021-08-31T16:27:18Z</time>
      </trkpt>
      <trkpt lat="44.96672" lon="5.41841">
        <ele>890.6</ele>
        <time>2021-08-31T16:27:19Z</time>
      </trkpt>
      <trkpt lat="44.96673" lon="5.4183">
        <ele>890.5</ele>
        <time>2021-08-31T16:27:21Z</time>
      </trkpt>
      <trkpt lat="44.96674" lon="5.41819">
        <ele>890.4</ele>
        <time>2021-08-31T16:27:22Z</time>
      </trkpt>
      <trkpt lat="44.96676" lon="5.41812">
        <ele>890.4</ele>
        <time>2021-08-31T16:27:23Z</time>
      </trkpt>
      <trkpt lat="44.9668" lon="5.41802">
        <ele>890.3</ele>
        <time>2021-08-31T16:27:25Z</time>
      </trkpt>
      <trkpt lat="44.9668" lon="5.41793">
        <ele>890.1</ele>
        <time>2021-08-31T16:27:26Z</time>
      </trkpt>
      <trkpt lat="44.96681" lon="5.41784">
        <ele>890</ele>
        <time>2021-08-31T16:27:28Z</time>
      </trkpt>
      <trkpt lat="44.96682" lon="5.41774">
        <ele>889.9</ele>
        <time>2021-08-31T16:27:30Z</time>
      </trkpt>
      <trkpt lat="44.96683" lon="5.41767">
        <ele>889.8</ele>
        <time>2021-08-31T16:27:31Z</time>
      </trkpt>
      <trkpt lat="44.96686" lon="5.41755">
        <ele>889.6</ele>
        <time>2021-08-31T16:27:33Z</time>
      </trkpt>
      <trkpt lat="44.96687" lon="5.4175">
        <ele>889.5</ele>
        <time>2021-08-31T16:27:34Z</time>
      </trkpt>
      <trkpt lat="44.96688" lon="5.41744">
        <ele>889.4</ele>
        <time>2021-08-31T16:27:35Z</time>
      </trkpt>
      <trkpt lat="44.96693" lon="5.41732">
        <ele>889.2</ele>
        <time>2021-08-31T16:27:37Z</time>
      </trkpt>
      <trkpt lat="44.96699" lon="5.41718">
        <ele>889</ele>
        <time>2021-08-31T16:27:39Z</time>
      </trkpt>
      <trkpt lat="44.96704" lon="5.41707">
        <ele>888.8</ele>
        <time>2021-08-31T16:27:41Z</time>
      </trkpt>
      <trkpt lat="44.96711" lon="5.41697">
        <ele>888.6</ele>
        <time>2021-08-31T16:27:43Z</time>
      </trkpt>
      <trkpt lat="44.96714" lon="5.41692">
        <ele>888.6</ele>
        <time>2021-08-31T16:27:44Z</time>
      </trkpt>
      <trkpt lat="44.96724" lon="5.41683">
        <ele>888.4</ele>
        <time>2021-08-31T16:27:46Z</time>
      </trkpt>
      <trkpt lat="44.96727" lon="5.41674">
        <ele>888.3</ele>
        <time>2021-08-31T16:27:48Z</time>
      </trkpt>
      <trkpt lat="44.96729" lon="5.4167">
        <ele>888.3</ele>
        <time>2021-08-31T16:27:49Z</time>
      </trkpt>
      <trkpt lat="44.96731" lon="5.41666">
        <ele>888.2</ele>
        <time>2021-08-31T16:27:50Z</time>
      </trkpt>
      <trkpt lat="44.96734" lon="5.4166">
        <ele>888.1</ele>
        <time>2021-08-31T16:27:52Z</time>
      </trkpt>
      <trkpt lat="44.96735" lon="5.41656">
        <ele>888.1</ele>
        <time>2021-08-31T16:27:53Z</time>
      </trkpt>
      <trkpt lat="44.96736" lon="5.41651">
        <ele>888</ele>
        <time>2021-08-31T16:27:54Z</time>
      </trkpt>
      <trkpt lat="44.96736" lon="5.41649">
        <ele>888</ele>
        <time>2021-08-31T16:27:55Z</time>
      </trkpt>
      <trkpt lat="44.96735" lon="5.41642">
        <ele>888.1</ele>
        <time>2021-08-31T16:27:57Z</time>
      </trkpt>
      <trkpt lat="44.96732" lon="5.41637">
        <ele>888.1</ele>
        <time>2021-08-31T16:27:59Z</time>
      </trkpt>
      <trkpt lat="44.9673" lon="5.4164">
        <ele>888.1</ele>
        <time>2021-08-31T16:28:00Z</time>
      </trkpt>
      <trkpt lat="44.9673" lon="5.41643">
        <ele>888.1</ele>
        <time>2021-08-31T16:28:02Z</time>
      </trkpt>
      <trkpt lat="44.9673" lon="5.41647">
        <ele>888.1</ele>
        <time>2021-08-31T16:28:04Z</time>
      </trkpt>
      <trkpt lat="44.9673" lon="5.4165">
        <ele>888.1</ele>
        <time>2021-08-31T16:28:05Z</time>
      </trkpt>
      <trkpt lat="44.9673" lon="5.41653">
        <ele>888.2</ele>
        <time>2021-08-31T16:28:07Z</time>
      </trkpt>
      <trkpt lat="44.9673" lon="5.41656">
        <ele>888.2</ele>
        <time>2021-08-31T16:28:08Z</time>
      </trkpt>
      <trkpt lat="44.9673" lon="5.41659">
        <ele>888.2</ele>
        <time>2021-08-31T16:28:09Z</time>
      </trkpt>
      <trkpt lat="44.9673" lon="5.41663">
        <ele>888.2</ele>
        <time>2021-08-31T16:28:10Z</time>
      </trkpt>
      <trkpt lat="44.96731" lon="5.41678">
        <ele>888.3</ele>
        <time>2021-08-31T16:28:12Z</time>
      </trkpt>
      <trkpt lat="44.96733" lon="5.41693">
        <ele>888.5</ele>
        <time>2021-08-31T16:28:14Z</time>
      </trkpt>
      <trkpt lat="44.96735" lon="5.41706">
        <ele>888.6</ele>
        <time>2021-08-31T16:28:16Z</time>
      </trkpt>
      <trkpt lat="44.96734" lon="5.41711">
        <ele>888.7</ele>
        <time>2021-08-31T16:28:17Z</time>
      </trkpt>
      <trkpt lat="44.96733" lon="5.41715">
        <ele>888.7</ele>
        <time>2021-08-31T16:28:18Z</time>
      </trkpt>
      <trkpt lat="44.9673" lon="5.41719">
        <ele>888.7</ele>
        <time>2021-08-31T16:28:20Z</time>
      </trkpt>
      <trkpt lat="44.96726" lon="5.41713">
        <ele>888.7</ele>
        <time>2021-08-31T16:28:22Z</time>
      </trkpt>
      <trkpt lat="44.96725" lon="5.41711">
        <ele>888.6</ele>
        <time>2021-08-31T16:28:23Z</time>
      </trkpt>
      <trkpt lat="44.96725" lon="5.41711">
        <ele>888.7</ele>
        <time>2021-08-31T16:28:24Z</time>
      </trkpt>
      <trkpt lat="44.96724" lon="5.4171">
        <ele>888.7</ele>
        <time>2021-08-31T16:28:25Z</time>
      </trkpt>
      <trkpt lat="44.96723" lon="5.41703">
        <ele>888.6</ele>
        <time>2021-08-31T16:28:27Z</time>
      </trkpt>
      <trkpt lat="44.96723" lon="5.41697">
        <ele>888.5</ele>
        <time>2021-08-31T16:28:28Z</time>
      </trkpt>
      <trkpt lat="44.96722" lon="5.41691">
        <ele>888.5</ele>
        <time>2021-08-31T16:28:37Z</time>
      </trkpt>
      <trkpt lat="44.96722" lon="5.41686">
        <ele>888.4</ele>
        <time>2021-08-31T16:28:38Z</time>
      </trkpt>
      <trkpt lat="44.96724" lon="5.41674">
        <ele>888.3</ele>
        <time>2021-08-31T16:28:40Z</time>
      </trkpt>
      <trkpt lat="44.96726" lon="5.41668">
        <ele>888.3</ele>
        <time>2021-08-31T16:28:41Z</time>
      </trkpt>
      <trkpt lat="44.96728" lon="5.4166">
        <ele>888.2</ele>
        <time>2021-08-31T16:28:42Z</time>
      </trkpt>
      <trkpt lat="44.96734" lon="5.41644">
        <ele>888</ele>
        <time>2021-08-31T16:28:44Z</time>
      </trkpt>
      <trkpt lat="44.96739" lon="5.41634">
        <ele>888</ele>
        <time>2021-08-31T16:28:46Z</time>
      </trkpt>
      <trkpt lat="44.96743" lon="5.41628">
        <ele>888.2</ele>
        <time>2021-08-31T16:28:47Z</time>
      </trkpt>
      <trkpt lat="44.9675" lon="5.41625">
        <ele>888.4</ele>
        <time>2021-08-31T16:28:49Z</time>
      </trkpt>
      <trkpt lat="44.96754" lon="5.41625">
        <ele>888.6</ele>
        <time>2021-08-31T16:28:50Z</time>
      </trkpt>
      <trkpt lat="44.96757" lon="5.41626">
        <ele>888.7</ele>
        <time>2021-08-31T16:28:52Z</time>
      </trkpt>
      <trkpt lat="44.96761" lon="5.41624">
        <ele>888.9</ele>
        <time>2021-08-31T16:28:54Z</time>
      </trkpt>
      <trkpt lat="44.96764" lon="5.41623">
        <ele>889</ele>
        <time>2021-08-31T16:28:55Z</time>
      </trkpt>
      <trkpt lat="44.96767" lon="5.41619">
        <ele>889.2</ele>
        <time>2021-08-31T16:28:57Z</time>
      </trkpt>
      <trkpt lat="44.9677" lon="5.41617">
        <ele>889.3</ele>
        <time>2021-08-31T16:28:59Z</time>
      </trkpt>
      <trkpt lat="44.96773" lon="5.41614">
        <ele>889.5</ele>
        <time>2021-08-31T16:29:00Z</time>
      </trkpt>
      <trkpt lat="44.96775" lon="5.41613">
        <ele>889.6</ele>
        <time>2021-08-31T16:29:01Z</time>
      </trkpt>
      <trkpt lat="44.96776" lon="5.41612">
        <ele>889.6</ele>
        <time>2021-08-31T16:29:02Z</time>
      </trkpt>
      <trkpt lat="44.96776" lon="5.41611">
        <ele>889.6</ele>
        <time>2021-08-31T16:29:04Z</time>
      </trkpt>
      <trkpt lat="44.96773" lon="5.41608">
        <ele>889.8</ele>
        <time>2021-08-31T16:29:06Z</time>
      </trkpt>
      <trkpt lat="44.96773" lon="5.41608">
        <ele>889.8</ele>
        <time>2021-08-31T16:29:07Z</time>
      </trkpt>
      <trkpt lat="44.96773" lon="5.41608">
        <ele>889.8</ele>
        <time>2021-08-31T16:29:08Z</time>
      </trkpt>
      <trkpt lat="44.96773" lon="5.41608">
        <ele>889.8</ele>
        <time>2021-08-31T16:29:10Z</time>
      </trkpt>
      <trkpt lat="44.96773" lon="5.41608">
        <ele>889.8</ele>
        <time>2021-08-31T16:29:11Z</time>
      </trkpt>
      <trkpt lat="44.96773" lon="5.41608">
        <ele>889.8</ele>
        <time>2021-08-31T16:29:12Z</time>
      </trkpt>
      <trkpt lat="44.968" lon="5.41596">
        <ele>891.8</ele>
        <time>2021-08-31T16:30:01Z</time>
      </trkpt>
      <trkpt lat="44.968" lon="5.41597">
        <ele>891.8</ele>
        <time>2021-08-31T16:30:02Z</time>
      </trkpt>
      <trkpt lat="44.968" lon="5.41596">
        <ele>891.8</ele>
        <time>2021-08-31T16:30:04Z</time>
      </trkpt>
      <trkpt lat="44.96801" lon="5.41596">
        <ele>891.8</ele>
        <time>2021-08-31T16:30:05Z</time>
      </trkpt>
      <trkpt lat="44.96802" lon="5.41596">
        <ele>891.8</ele>
        <time>2021-08-31T16:30:07Z</time>
      </trkpt>
      <trkpt lat="44.96803" lon="5.41596">
        <ele>891.8</ele>
        <time>2021-08-31T16:30:08Z</time>
      </trkpt>
      <trkpt lat="44.96803" lon="5.41596">
        <ele>891.8</ele>
        <time>2021-08-31T16:30:10Z</time>
      </trkpt>
      <trkpt lat="44.96804" lon="5.41596">
        <ele>891.8</ele>
        <time>2021-08-31T16:30:11Z</time>
      </trkpt>
      <trkpt lat="44.96804" lon="5.41596">
        <ele>891.8</ele>
        <time>2021-08-31T16:30:12Z</time>
      </trkpt>
      <trkpt lat="44.96799" lon="5.41597">
        <ele>891.8</ele>
        <time>2021-08-31T16:31:43Z</time>
      </trkpt>
      <trkpt lat="44.96797" lon="5.41595">
        <ele>891.8</ele>
        <time>2021-08-31T16:31:45Z</time>
      </trkpt>
      <trkpt lat="44.96798" lon="5.41595">
        <ele>891.8</ele>
        <time>2021-08-31T16:31:51Z</time>
      </trkpt>
      <trkpt lat="44.96798" lon="5.41595">
        <ele>891.8</ele>
        <time>2021-08-31T16:31:53Z</time>
      </trkpt>
      <trkpt lat="44.96798" lon="5.41594">
        <ele>891.8</ele>
        <time>2021-08-31T16:31:54Z</time>
      </trkpt>
      <trkpt lat="44.968" lon="5.41596">
        <ele>891.9</ele>
        <time>2021-08-31T16:35:07Z</time>
      </trkpt>
      <trkpt lat="44.968" lon="5.41595">
        <ele>891.9</ele>
        <time>2021-08-31T16:35:09Z</time>
      </trkpt>
      <trkpt lat="44.968" lon="5.41594">
        <ele>891.9</ele>
        <time>2021-08-31T16:35:10Z</time>
      </trkpt>
      <trkpt lat="44.968" lon="5.41594">
        <ele>891.9</ele>
        <time>2021-08-31T16:35:11Z</time>
      </trkpt>
      <trkpt lat="44.968" lon="5.41593">
        <ele>891.9</ele>
        <time>2021-08-31T16:35:13Z</time>
      </trkpt>
      <trkpt lat="44.968" lon="5.41592">
        <ele>891.9</ele>
        <time>2021-08-31T16:35:15Z</time>
      </trkpt>
      <trkpt lat="44.968" lon="5.41592">
        <ele>891.9</ele>
        <time>2021-08-31T16:35:16Z</time>
      </trkpt>
      <trkpt lat="44.968" lon="5.41592">
        <ele>891.9</ele>
        <time>2021-08-31T16:35:17Z</time>
      </trkpt>
      <trkpt lat="44.968" lon="5.41591">
        <ele>891.9</ele>
        <time>2021-08-31T16:35:19Z</time>
      </trkpt>
      <trkpt lat="44.968" lon="5.4159">
        <ele>891.9</ele>
        <time>2021-08-31T16:35:21Z</time>
      </trkpt>
      <trkpt lat="44.968" lon="5.41589">
        <ele>891.9</ele>
        <time>2021-08-31T16:35:22Z</time>
      </trkpt>
      <trkpt lat="44.96799" lon="5.41589">
        <ele>891.9</ele>
        <time>2021-08-31T16:35:23Z</time>
      </trkpt>
      <trkpt lat="44.96799" lon="5.41588">
        <ele>891.9</ele>
        <time>2021-08-31T16:35:25Z</time>
      </trkpt>
      <trkpt lat="44.96799" lon="5.41587">
        <ele>891.9</ele>
        <time>2021-08-31T16:35:26Z</time>
      </trkpt>
      <trkpt lat="44.96799" lon="5.41587">
        <ele>891.9</ele>
        <time>2021-08-31T16:35:27Z</time>
      </trkpt>
      <trkpt lat="44.96799" lon="5.41586">
        <ele>891.9</ele>
        <time>2021-08-31T16:35:29Z</time>
      </trkpt>
      <trkpt lat="44.968" lon="5.41586">
        <ele>891.9</ele>
        <time>2021-08-31T16:35:30Z</time>
      </trkpt>
      <trkpt lat="44.96799" lon="5.41586">
        <ele>891.9</ele>
        <time>2021-08-31T16:35:31Z</time>
      </trkpt>
      <trkpt lat="44.96799" lon="5.41587">
        <ele>891.9</ele>
        <time>2021-08-31T16:35:32Z</time>
      </trkpt>
      <trkpt lat="44.96799" lon="5.41588">
        <ele>891.9</ele>
        <time>2021-08-31T16:35:34Z</time>
      </trkpt>
      <trkpt lat="44.96798" lon="5.41588">
        <ele>891.9</ele>
        <time>2021-08-31T16:35:35Z</time>
      </trkpt>
      <trkpt lat="44.96798" lon="5.41588">
        <ele>891.9</ele>
        <time>2021-08-31T16:35:36Z</time>
      </trkpt>
      <trkpt lat="44.96798" lon="5.41587">
        <ele>891.9</ele>
        <time>2021-08-31T16:35:37Z</time>
      </trkpt>
      <trkpt lat="44.96798" lon="5.41588">
        <ele>891.9</ele>
        <time>2021-08-31T16:35:38Z</time>
      </trkpt>
      <trkpt lat="44.96798" lon="5.41588">
        <ele>891.9</ele>
        <time>2021-08-31T16:35:39Z</time>
      </trkpt>
      <trkpt lat="44.96799" lon="5.4159">
        <ele>891.9</ele>
        <time>2021-08-31T16:35:40Z</time>
      </trkpt>
      <trkpt lat="44.96799" lon="5.41592">
        <ele>891.9</ele>
        <time>2021-08-31T16:35:41Z</time>
      </trkpt>
      <trkpt lat="44.96799" lon="5.41594">
        <ele>892</ele>
        <time>2021-08-31T16:35:42Z</time>
      </trkpt>
      <trkpt lat="44.968" lon="5.41595">
        <ele>892</ele>
        <time>2021-08-31T16:35:44Z</time>
      </trkpt>
      <trkpt lat="44.968" lon="5.41597">
        <ele>892</ele>
        <time>2021-08-31T16:35:45Z</time>
      </trkpt>
      <trkpt lat="44.96801" lon="5.41599">
        <ele>892</ele>
        <time>2021-08-31T16:35:46Z</time>
      </trkpt>
      <trkpt lat="44.96801" lon="5.41601">
        <ele>892</ele>
        <time>2021-08-31T16:35:47Z</time>
      </trkpt>
      <trkpt lat="44.96802" lon="5.41603">
        <ele>892</ele>
        <time>2021-08-31T16:35:48Z</time>
      </trkpt>
      <trkpt lat="44.96804" lon="5.41608">
        <ele>892.9</ele>
        <time>2021-08-31T16:35:49Z</time>
      </trkpt>
      <trkpt lat="44.96805" lon="5.41611">
        <ele>893</ele>
        <time>2021-08-31T16:35:50Z</time>
      </trkpt>
      <trkpt lat="44.96808" lon="5.41615">
        <ele>893.1</ele>
        <time>2021-08-31T16:35:52Z</time>
      </trkpt>
      <trkpt lat="44.96813" lon="5.41618">
        <ele>893.3</ele>
        <time>2021-08-31T16:35:53Z</time>
      </trkpt>
      <trkpt lat="44.96818" lon="5.41622">
        <ele>893.6</ele>
        <time>2021-08-31T16:35:55Z</time>
      </trkpt>
      <trkpt lat="44.96824" lon="5.41623">
        <ele>893.8</ele>
        <time>2021-08-31T16:35:57Z</time>
      </trkpt>
      <trkpt lat="44.96827" lon="5.41624">
        <ele>894</ele>
        <time>2021-08-31T16:35:58Z</time>
      </trkpt>
      <trkpt lat="44.9683" lon="5.41625">
        <ele>894.1</ele>
        <time>2021-08-31T16:35:59Z</time>
      </trkpt>
      <trkpt lat="44.9683" lon="5.41626">
        <ele>894.2</ele>
        <time>2021-08-31T16:36:00Z</time>
      </trkpt>
      <trkpt lat="44.96832" lon="5.41626">
        <ele>894.3</ele>
        <time>2021-08-31T16:36:01Z</time>
      </trkpt>
      <trkpt lat="44.96834" lon="5.41627">
        <ele>894.4</ele>
        <time>2021-08-31T16:36:03Z</time>
      </trkpt>
      <trkpt lat="44.96835" lon="5.41628">
        <ele>894.5</ele>
        <time>2021-08-31T16:36:04Z</time>
      </trkpt>
      <trkpt lat="44.96837" lon="5.41628">
        <ele>894.5</ele>
        <time>2021-08-31T16:36:05Z</time>
      </trkpt>
      <trkpt lat="44.96838" lon="5.41629">
        <ele>894.6</ele>
        <time>2021-08-31T16:36:06Z</time>
      </trkpt>
      <trkpt lat="44.96839" lon="5.4163">
        <ele>894.7</ele>
        <time>2021-08-31T16:36:07Z</time>
      </trkpt>
      <trkpt lat="44.9684" lon="5.41632">
        <ele>894.8</ele>
        <time>2021-08-31T16:36:08Z</time>
      </trkpt>
      <trkpt lat="44.96842" lon="5.41634">
        <ele>894.9</ele>
        <time>2021-08-31T16:36:09Z</time>
      </trkpt>
      <trkpt lat="44.96846" lon="5.41637">
        <ele>895.1</ele>
        <time>2021-08-31T16:36:11Z</time>
      </trkpt>
      <trkpt lat="44.96847" lon="5.41638">
        <ele>895.2</ele>
        <time>2021-08-31T16:36:12Z</time>
      </trkpt>
      <trkpt lat="44.96848" lon="5.41639">
        <ele>895.3</ele>
        <time>2021-08-31T16:36:13Z</time>
      </trkpt>
      <trkpt lat="44.96851" lon="5.41642">
        <ele>895.4</ele>
        <time>2021-08-31T16:36:15Z</time>
      </trkpt>
      <trkpt lat="44.96852" lon="5.41643">
        <ele>895.5</ele>
        <time>2021-08-31T16:36:16Z</time>
      </trkpt>
      <trkpt lat="44.96855" lon="5.41645">
        <ele>895.6</ele>
        <time>2021-08-31T16:36:17Z</time>
      </trkpt>
      <trkpt lat="44.96856" lon="5.41646">
        <ele>895.6</ele>
        <time>2021-08-31T16:36:18Z</time>
      </trkpt>
      <trkpt lat="44.96858" lon="5.41646">
        <ele>895.6</ele>
        <time>2021-08-31T16:36:19Z</time>
      </trkpt>
      <trkpt lat="44.9686" lon="5.41647">
        <ele>895.7</ele>
        <time>2021-08-31T16:36:21Z</time>
      </trkpt>
      <trkpt lat="44.96861" lon="5.41648">
        <ele>895.7</ele>
        <time>2021-08-31T16:36:22Z</time>
      </trkpt>
      <trkpt lat="44.96863" lon="5.41648">
        <ele>895.7</ele>
        <time>2021-08-31T16:36:23Z</time>
      </trkpt>
      <trkpt lat="44.96865" lon="5.41649">
        <ele>895.8</ele>
        <time>2021-08-31T16:36:24Z</time>
      </trkpt>
      <trkpt lat="44.96866" lon="5.4165">
        <ele>895.8</ele>
        <time>2021-08-31T16:36:25Z</time>
      </trkpt>
      <trkpt lat="44.96867" lon="5.4165">
        <ele>895.8</ele>
        <time>2021-08-31T16:36:26Z</time>
      </trkpt>
      <trkpt lat="44.96867" lon="5.41651">
        <ele>895.8</ele>
        <time>2021-08-31T16:36:27Z</time>
      </trkpt>
      <trkpt lat="44.96871" lon="5.41654">
        <ele>896</ele>
        <time>2021-08-31T16:36:29Z</time>
      </trkpt>
      <trkpt lat="44.96873" lon="5.41655">
        <ele>896.1</ele>
        <time>2021-08-31T16:36:31Z</time>
      </trkpt>
      <trkpt lat="44.96874" lon="5.41656">
        <ele>896.2</ele>
        <time>2021-08-31T16:36:32Z</time>
      </trkpt>
      <trkpt lat="44.96875" lon="5.41657">
        <ele>896.3</ele>
        <time>2021-08-31T16:36:33Z</time>
      </trkpt>
      <trkpt lat="44.96877" lon="5.41659">
        <ele>896.4</ele>
        <time>2021-08-31T16:36:34Z</time>
      </trkpt>
      <trkpt lat="44.96878" lon="5.4166">
        <ele>896.5</ele>
        <time>2021-08-31T16:36:35Z</time>
      </trkpt>
      <trkpt lat="44.9688" lon="5.41662">
        <ele>896.6</ele>
        <time>2021-08-31T16:36:36Z</time>
      </trkpt>
      <trkpt lat="44.96881" lon="5.41663">
        <ele>896.7</ele>
        <time>2021-08-31T16:36:38Z</time>
      </trkpt>
      <trkpt lat="44.96884" lon="5.41663">
        <ele>896.9</ele>
        <time>2021-08-31T16:36:40Z</time>
      </trkpt>
      <trkpt lat="44.96887" lon="5.41663">
        <ele>897</ele>
        <time>2021-08-31T16:36:41Z</time>
      </trkpt>
      <trkpt lat="44.96889" lon="5.41665">
        <ele>897.2</ele>
        <time>2021-08-31T16:36:43Z</time>
      </trkpt>
      <trkpt lat="44.9689" lon="5.41666">
        <ele>897.3</ele>
        <time>2021-08-31T16:36:44Z</time>
      </trkpt>
      <trkpt lat="44.96891" lon="5.41667">
        <ele>897.4</ele>
        <time>2021-08-31T16:36:46Z</time>
      </trkpt>
      <trkpt lat="44.96891" lon="5.41667">
        <ele>897.4</ele>
        <time>2021-08-31T16:36:47Z</time>
      </trkpt>
      <trkpt lat="44.96891" lon="5.41667">
        <ele>897.4</ele>
        <time>2021-08-31T16:36:48Z</time>
      </trkpt>
      <trkpt lat="44.9689" lon="5.41667">
        <ele>897.4</ele>
        <time>2021-08-31T16:36:49Z</time>
      </trkpt>
      <trkpt lat="44.9689" lon="5.41667">
        <ele>897.4</ele>
        <time>2021-08-31T16:36:50Z</time>
      </trkpt>
      <trkpt lat="44.9689" lon="5.41667">
        <ele>897.4</ele>
        <time>2021-08-31T16:36:52Z</time>
      </trkpt>
      <trkpt lat="44.9689" lon="5.41667">
        <ele>897.4</ele>
        <time>2021-08-31T16:36:53Z</time>
      </trkpt>
      <trkpt lat="44.9689" lon="5.41667">
        <ele>897.5</ele>
        <time>2021-08-31T16:36:55Z</time>
      </trkpt>
      <trkpt lat="44.96902" lon="5.41667">
        <ele>898.3</ele>
        <time>2021-08-31T16:39:58Z</time>
      </trkpt>
      <trkpt lat="44.96903" lon="5.41667">
        <ele>898.3</ele>
        <time>2021-08-31T16:39:59Z</time>
      </trkpt>
      <trkpt lat="44.96904" lon="5.41666">
        <ele>898.3</ele>
        <time>2021-08-31T16:40:00Z</time>
      </trkpt>
      <trkpt lat="44.96906" lon="5.41665">
        <ele>898.4</ele>
        <time>2021-08-31T16:40:01Z</time>
      </trkpt>
      <trkpt lat="44.96908" lon="5.41664">
        <ele>898.4</ele>
        <time>2021-08-31T16:40:03Z</time>
      </trkpt>
      <trkpt lat="44.96911" lon="5.41665">
        <ele>898.4</ele>
        <time>2021-08-31T16:40:04Z</time>
      </trkpt>
      <trkpt lat="44.96912" lon="5.41665">
        <ele>898.4</ele>
        <time>2021-08-31T16:40:05Z</time>
      </trkpt>
      <trkpt lat="44.96914" lon="5.41666">
        <ele>898.5</ele>
        <time>2021-08-31T16:40:06Z</time>
      </trkpt>
      <trkpt lat="44.96916" lon="5.41666">
        <ele>898.5</ele>
        <time>2021-08-31T16:40:08Z</time>
      </trkpt>
      <trkpt lat="44.96918" lon="5.41665">
        <ele>898.5</ele>
        <time>2021-08-31T16:40:09Z</time>
      </trkpt>
      <trkpt lat="44.96919" lon="5.41664">
        <ele>898.5</ele>
        <time>2021-08-31T16:40:10Z</time>
      </trkpt>
      <trkpt lat="44.9692" lon="5.41663">
        <ele>898.6</ele>
        <time>2021-08-31T16:40:12Z</time>
      </trkpt>
      <trkpt lat="44.9692" lon="5.41662">
        <ele>898.6</ele>
        <time>2021-08-31T16:40:13Z</time>
      </trkpt>
      <trkpt lat="44.9692" lon="5.41661">
        <ele>898.6</ele>
        <time>2021-08-31T16:40:14Z</time>
      </trkpt>
      <trkpt lat="44.9692" lon="5.4166">
        <ele>898.6</ele>
        <time>2021-08-31T16:40:16Z</time>
      </trkpt>
      <trkpt lat="44.9692" lon="5.41658">
        <ele>898.6</ele>
        <time>2021-08-31T16:40:17Z</time>
      </trkpt>
      <trkpt lat="44.9692" lon="5.41656">
        <ele>898.6</ele>
        <time>2021-08-31T16:40:18Z</time>
      </trkpt>
      <trkpt lat="44.96919" lon="5.41643">
        <ele>898.7</ele>
        <time>2021-08-31T16:40:20Z</time>
      </trkpt>
      <trkpt lat="44.96918" lon="5.41632">
        <ele>898.9</ele>
        <time>2021-08-31T16:43:04Z</time>
      </trkpt>
      <trkpt lat="44.96917" lon="5.4162">
        <ele>898.8</ele>
        <time>2021-08-31T16:43:05Z</time>
      </trkpt>
      <trkpt lat="44.96916" lon="5.41608">
        <ele>898.7</ele>
        <time>2021-08-31T16:43:06Z</time>
      </trkpt>
      <trkpt lat="44.96915" lon="5.41609">
        <ele>898.7</ele>
        <time>2021-08-31T16:43:07Z</time>
      </trkpt>
      <trkpt lat="44.96913" lon="5.4161">
        <ele>898.7</ele>
        <time>2021-08-31T16:43:08Z</time>
      </trkpt>
      <trkpt lat="44.96912" lon="5.41614">
        <ele>898.7</ele>
        <time>2021-08-31T16:43:09Z</time>
      </trkpt>
      <trkpt lat="44.96912" lon="5.41616">
        <ele>898.7</ele>
        <time>2021-08-31T16:43:10Z</time>
      </trkpt>
      <trkpt lat="44.96912" lon="5.41622">
        <ele>898.6</ele>
        <time>2021-08-31T16:43:12Z</time>
      </trkpt>
      <trkpt lat="44.96911" lon="5.41624">
        <ele>898.6</ele>
        <time>2021-08-31T16:43:13Z</time>
      </trkpt>
      <trkpt lat="44.96912" lon="5.41629">
        <ele>898.6</ele>
        <time>2021-08-31T16:43:14Z</time>
      </trkpt>
      <trkpt lat="44.96911" lon="5.41633">
        <ele>898.6</ele>
        <time>2021-08-31T16:43:15Z</time>
      </trkpt>
      <trkpt lat="44.9691" lon="5.4164">
        <ele>898.5</ele>
        <time>2021-08-31T16:43:17Z</time>
      </trkpt>
      <trkpt lat="44.9691" lon="5.41644">
        <ele>898.5</ele>
        <time>2021-08-31T16:43:18Z</time>
      </trkpt>
      <trkpt lat="44.9691" lon="5.41649">
        <ele>898.5</ele>
        <time>2021-08-31T16:43:19Z</time>
      </trkpt>
      <trkpt lat="44.96909" lon="5.41651">
        <ele>898.5</ele>
        <time>2021-08-31T16:43:20Z</time>
      </trkpt>
      <trkpt lat="44.96909" lon="5.41654">
        <ele>898.4</ele>
        <time>2021-08-31T16:43:21Z</time>
      </trkpt>
      <trkpt lat="44.96908" lon="5.41661">
        <ele>898.4</ele>
        <time>2021-08-31T16:43:23Z</time>
      </trkpt>
      <trkpt lat="44.96906" lon="5.41664">
        <ele>898.4</ele>
        <time>2021-08-31T16:43:24Z</time>
      </trkpt>
      <trkpt lat="44.96904" lon="5.41666">
        <ele>898.3</ele>
        <time>2021-08-31T16:43:25Z</time>
      </trkpt>
      <trkpt lat="44.96901" lon="5.41668">
        <ele>898.2</ele>
        <time>2021-08-31T16:43:26Z</time>
      </trkpt>
      <trkpt lat="44.969" lon="5.41668">
        <ele>898.1</ele>
        <time>2021-08-31T16:43:27Z</time>
      </trkpt>
      <trkpt lat="44.96898" lon="5.41667">
        <ele>898</ele>
        <time>2021-08-31T16:43:28Z</time>
      </trkpt>
      <trkpt lat="44.96897" lon="5.41667">
        <ele>897.9</ele>
        <time>2021-08-31T16:43:29Z</time>
      </trkpt>
      <trkpt lat="44.96896" lon="5.41667">
        <ele>897.8</ele>
        <time>2021-08-31T16:43:30Z</time>
      </trkpt>
      <trkpt lat="44.96894" lon="5.41667">
        <ele>897.7</ele>
        <time>2021-08-31T16:43:31Z</time>
      </trkpt>
      <trkpt lat="44.96891" lon="5.41666">
        <ele>897.5</ele>
        <time>2021-08-31T16:43:33Z</time>
      </trkpt>
      <trkpt lat="44.9689" lon="5.41666">
        <ele>897.4</ele>
        <time>2021-08-31T16:43:34Z</time>
      </trkpt>
      <trkpt lat="44.96889" lon="5.41665">
        <ele>897.3</ele>
        <time>2021-08-31T16:43:35Z</time>
      </trkpt>
      <trkpt lat="44.96888" lon="5.41665">
        <ele>897.2</ele>
        <time>2021-08-31T16:43:36Z</time>
      </trkpt>
      <trkpt lat="44.96888" lon="5.41665">
        <ele>897.2</ele>
        <time>2021-08-31T16:43:37Z</time>
      </trkpt>
      <trkpt lat="44.96887" lon="5.41664">
        <ele>897.2</ele>
        <time>2021-08-31T16:43:38Z</time>
      </trkpt>
      <trkpt lat="44.96887" lon="5.41664">
        <ele>897.2</ele>
        <time>2021-08-31T16:43:40Z</time>
      </trkpt>
      <trkpt lat="44.96886" lon="5.41664">
        <ele>897.1</ele>
        <time>2021-08-31T16:43:41Z</time>
      </trkpt>
      <trkpt lat="44.96885" lon="5.41663">
        <ele>897</ele>
        <time>2021-08-31T16:43:42Z</time>
      </trkpt>
      <trkpt lat="44.96882" lon="5.41661">
        <ele>896.8</ele>
        <time>2021-08-31T16:43:43Z</time>
      </trkpt>
      <trkpt lat="44.96881" lon="5.41661">
        <ele>896.7</ele>
        <time>2021-08-31T16:43:44Z</time>
      </trkpt>
      <trkpt lat="44.96878" lon="5.41659">
        <ele>896.5</ele>
        <time>2021-08-31T16:43:45Z</time>
      </trkpt>
      <trkpt lat="44.96877" lon="5.41658">
        <ele>896.4</ele>
        <time>2021-08-31T16:43:46Z</time>
      </trkpt>
      <trkpt lat="44.96873" lon="5.41655">
        <ele>896.1</ele>
        <time>2021-08-31T16:43:48Z</time>
      </trkpt>
      <trkpt lat="44.96871" lon="5.41655">
        <ele>896</ele>
        <time>2021-08-31T16:43:49Z</time>
      </trkpt>
      <trkpt lat="44.9687" lon="5.41654">
        <ele>896</ele>
        <time>2021-08-31T16:43:50Z</time>
      </trkpt>
      <trkpt lat="44.96868" lon="5.4165">
        <ele>895.8</ele>
        <time>2021-08-31T16:43:51Z</time>
      </trkpt>
      <trkpt lat="44.96866" lon="5.41647">
        <ele>895.8</ele>
        <time>2021-08-31T16:43:52Z</time>
      </trkpt>
      <trkpt lat="44.96865" lon="5.41646">
        <ele>895.7</ele>
        <time>2021-08-31T16:43:53Z</time>
      </trkpt>
      <trkpt lat="44.96863" lon="5.41644">
        <ele>895.7</ele>
        <time>2021-08-31T16:43:55Z</time>
      </trkpt>
      <trkpt lat="44.96861" lon="5.41643">
        <ele>895.7</ele>
        <time>2021-08-31T16:43:56Z</time>
      </trkpt>
      <trkpt lat="44.9686" lon="5.41642">
        <ele>895.6</ele>
        <time>2021-08-31T16:43:58Z</time>
      </trkpt>
      <trkpt lat="44.96859" lon="5.41642">
        <ele>895.6</ele>
        <time>2021-08-31T16:43:59Z</time>
      </trkpt>
      <trkpt lat="44.96857" lon="5.41641">
        <ele>895.6</ele>
        <time>2021-08-31T16:44:00Z</time>
      </trkpt>
      <trkpt lat="44.96855" lon="5.41641">
        <ele>895.5</ele>
        <time>2021-08-31T16:44:01Z</time>
      </trkpt>
      <trkpt lat="44.96854" lon="5.41641">
        <ele>895.5</ele>
        <time>2021-08-31T16:44:02Z</time>
      </trkpt>
      <trkpt lat="44.96852" lon="5.4164">
        <ele>895.5</ele>
        <time>2021-08-31T16:44:03Z</time>
      </trkpt>
      <trkpt lat="44.96851" lon="5.4164">
        <ele>895.4</ele>
        <time>2021-08-31T16:44:04Z</time>
      </trkpt>
      <trkpt lat="44.96851" lon="5.4164">
        <ele>895.4</ele>
        <time>2021-08-31T16:44:05Z</time>
      </trkpt>
      <trkpt lat="44.9685" lon="5.4164">
        <ele>895.4</ele>
        <time>2021-08-31T16:44:06Z</time>
      </trkpt>
      <trkpt lat="44.96847" lon="5.41637">
        <ele>895.2</ele>
        <time>2021-08-31T16:44:07Z</time>
      </trkpt>
      <trkpt lat="44.96846" lon="5.41637">
        <ele>895.1</ele>
        <time>2021-08-31T16:44:08Z</time>
      </trkpt>
      <trkpt lat="44.96844" lon="5.41634">
        <ele>895</ele>
        <time>2021-08-31T16:44:10Z</time>
      </trkpt>
      <trkpt lat="44.96843" lon="5.41633">
        <ele>894.9</ele>
        <time>2021-08-31T16:44:11Z</time>
      </trkpt>
      <trkpt lat="44.96841" lon="5.41632">
        <ele>894.8</ele>
        <time>2021-08-31T16:44:12Z</time>
      </trkpt>
      <trkpt lat="44.96872" lon="5.41659">
        <ele>896.2</ele>
        <time>2021-09-01T08:14:26Z</time>
      </trkpt>
      <trkpt lat="44.96872" lon="5.41659">
        <ele>896.2</ele>
        <time>2021-09-01T08:14:26Z</time>
      </trkpt>
      <trkpt lat="44.96866" lon="5.41649">
        <ele>895.8</ele>
        <time>2021-09-01T08:14:29Z</time>
      </trkpt>
      <trkpt lat="44.96866" lon="5.41648">
        <ele>895.8</ele>
        <time>2021-09-01T08:14:32Z</time>
      </trkpt>
      <trkpt lat="44.96866" lon="5.41649">
        <ele>895.8</ele>
        <time>2021-09-01T08:14:33Z</time>
      </trkpt>
      <trkpt lat="44.96866" lon="5.41649">
        <ele>895.8</ele>
        <time>2021-09-01T08:14:34Z</time>
      </trkpt>
      <trkpt lat="44.96866" lon="5.41649">
        <ele>895.8</ele>
        <time>2021-09-01T08:14:36Z</time>
      </trkpt>
      <trkpt lat="44.96866" lon="5.41649">
        <ele>895.8</ele>
        <time>2021-09-01T08:14:37Z</time>
      </trkpt>
      <trkpt lat="44.96866" lon="5.41649">
        <ele>895.8</ele>
        <time>2021-09-01T08:14:38Z</time>
      </trkpt>
      <trkpt lat="44.96866" lon="5.41648">
        <ele>895.8</ele>
        <time>2021-09-01T08:14:40Z</time>
      </trkpt>
      <trkpt lat="44.96796" lon="5.41557">
        <ele>890.1</ele>
        <time>2021-09-01T08:15:11Z</time>
      </trkpt>
      <trkpt lat="44.96795" lon="5.41553">
        <ele>890</ele>
        <time>2021-09-01T08:15:12Z</time>
      </trkpt>
      <trkpt lat="44.96792" lon="5.41541">
        <ele>889.6</ele>
        <time>2021-09-01T08:15:14Z</time>
      </trkpt>
      <trkpt lat="44.96788" lon="5.41529">
        <ele>889.2</ele>
        <time>2021-09-01T08:15:15Z</time>
      </trkpt>
      <trkpt lat="44.96785" lon="5.41518">
        <ele>888.9</ele>
        <time>2021-09-01T08:15:17Z</time>
      </trkpt>
      <trkpt lat="44.96781" lon="5.41507">
        <ele>888.6</ele>
        <time>2021-09-01T08:15:18Z</time>
      </trkpt>
      <trkpt lat="44.96779" lon="5.41502">
        <ele>888.4</ele>
        <time>2021-09-01T08:15:19Z</time>
      </trkpt>
      <trkpt lat="44.96777" lon="5.41496">
        <ele>888.2</ele>
        <time>2021-09-01T08:15:20Z</time>
      </trkpt>
      <trkpt lat="44.96774" lon="5.41491">
        <ele>888</ele>
        <time>2021-09-01T08:15:21Z</time>
      </trkpt>
      <trkpt lat="44.96772" lon="5.41488">
        <ele>887.9</ele>
        <time>2021-09-01T08:15:22Z</time>
      </trkpt>
      <trkpt lat="44.9677" lon="5.41484">
        <ele>887.7</ele>
        <time>2021-09-01T08:15:23Z</time>
      </trkpt>
      <trkpt lat="44.9677" lon="5.41484">
        <ele>887.7</ele>
        <time>2021-09-01T08:15:24Z</time>
      </trkpt>
      <trkpt lat="44.96771" lon="5.41485">
        <ele>887.6</ele>
        <time>2021-09-01T08:15:25Z</time>
      </trkpt>
      <trkpt lat="44.96771" lon="5.41486">
        <ele>887.6</ele>
        <time>2021-09-01T08:15:27Z</time>
      </trkpt>
      <trkpt lat="44.96771" lon="5.41487">
        <ele>887.6</ele>
        <time>2021-09-01T08:15:29Z</time>
      </trkpt>
      <trkpt lat="44.9677" lon="5.41488">
        <ele>887.5</ele>
        <time>2021-09-01T08:15:30Z</time>
      </trkpt>
      <trkpt lat="44.96769" lon="5.41491">
        <ele>887.4</ele>
        <time>2021-09-01T08:15:31Z</time>
      </trkpt>
      <trkpt lat="44.96767" lon="5.41491">
        <ele>887.4</ele>
        <time>2021-09-01T08:15:33Z</time>
      </trkpt>
      <trkpt lat="44.96765" lon="5.41493">
        <ele>887.4</ele>
        <time>2021-09-01T08:15:34Z</time>
      </trkpt>
      <trkpt lat="44.96764" lon="5.41496">
        <ele>887.4</ele>
        <time>2021-09-01T08:15:35Z</time>
      </trkpt>
      <trkpt lat="44.96763" lon="5.41502">
        <ele>887.4</ele>
        <time>2021-09-01T08:15:37Z</time>
      </trkpt>
      <trkpt lat="44.96762" lon="5.41507">
        <ele>887.4</ele>
        <time>2021-09-01T08:15:38Z</time>
      </trkpt>
      <trkpt lat="44.96759" lon="5.41513">
        <ele>887.4</ele>
        <time>2021-09-01T08:15:39Z</time>
      </trkpt>
      <trkpt lat="44.96755" lon="5.41517">
        <ele>887.4</ele>
        <time>2021-09-01T08:15:40Z</time>
      </trkpt>
      <trkpt lat="44.9675" lon="5.41519">
        <ele>887.4</ele>
        <time>2021-09-01T08:15:41Z</time>
      </trkpt>
      <trkpt lat="44.96745" lon="5.4152">
        <ele>886.8</ele>
        <time>2021-09-01T08:15:43Z</time>
      </trkpt>
      <trkpt lat="44.96737" lon="5.41521">
        <ele>886.3</ele>
        <time>2021-09-01T08:15:44Z</time>
      </trkpt>
      <trkpt lat="44.96729" lon="5.41521">
        <ele>885.3</ele>
        <time>2021-09-01T08:15:46Z</time>
      </trkpt>
      <trkpt lat="44.9672" lon="5.41521">
        <ele>884.8</ele>
        <time>2021-09-01T08:15:47Z</time>
      </trkpt>
      <trkpt lat="44.96712" lon="5.41521">
        <ele>884.1</ele>
        <time>2021-09-01T08:15:48Z</time>
      </trkpt>
      <trkpt lat="44.96695" lon="5.41522">
        <ele>882.9</ele>
        <time>2021-09-01T08:15:50Z</time>
      </trkpt>
      <trkpt lat="44.96682" lon="5.41521">
        <ele>881.9</ele>
        <time>2021-09-01T08:15:52Z</time>
      </trkpt>
      <trkpt lat="44.96675" lon="5.41519">
        <ele>881.5</ele>
        <time>2021-09-01T08:15:53Z</time>
      </trkpt>
      <trkpt lat="44.96662" lon="5.41515">
        <ele>880.7</ele>
        <time>2021-09-01T08:15:55Z</time>
      </trkpt>
      <trkpt lat="44.96648" lon="5.4151">
        <ele>880.2</ele>
        <time>2021-09-01T08:15:57Z</time>
      </trkpt>
      <trkpt lat="44.96634" lon="5.41501">
        <ele>880</ele>
        <time>2021-09-01T08:15:59Z</time>
      </trkpt>
      <trkpt lat="44.96626" lon="5.41496">
        <ele>880</ele>
        <time>2021-09-01T08:16:00Z</time>
      </trkpt>
      <trkpt lat="44.96605" lon="5.41491">
        <ele>879.9</ele>
        <time>2021-09-01T08:16:02Z</time>
      </trkpt>
      <trkpt lat="44.96597" lon="5.41488">
        <ele>879.9</ele>
        <time>2021-09-01T08:16:03Z</time>
      </trkpt>
      <trkpt lat="44.9659" lon="5.41484">
        <ele>879.8</ele>
        <time>2021-09-01T08:16:04Z</time>
      </trkpt>
      <trkpt lat="44.96584" lon="5.4148">
        <ele>879.8</ele>
        <time>2021-09-01T08:16:05Z</time>
      </trkpt>
      <trkpt lat="44.96573" lon="5.41473">
        <ele>879.6</ele>
        <time>2021-09-01T08:16:07Z</time>
      </trkpt>
      <trkpt lat="44.96565" lon="5.41467">
        <ele>879.5</ele>
        <time>2021-09-01T08:16:09Z</time>
      </trkpt>
      <trkpt lat="44.96562" lon="5.41462">
        <ele>879.4</ele>
        <time>2021-09-01T08:16:10Z</time>
      </trkpt>
      <trkpt lat="44.96553" lon="5.41453">
        <ele>879.3</ele>
        <time>2021-09-01T08:16:12Z</time>
      </trkpt>
      <trkpt lat="44.96543" lon="5.41441">
        <ele>879</ele>
        <time>2021-09-01T08:16:14Z</time>
      </trkpt>
      <trkpt lat="44.96538" lon="5.41434">
        <ele>878.8</ele>
        <time>2021-09-01T08:16:15Z</time>
      </trkpt>
      <trkpt lat="44.96527" lon="5.41423">
        <ele>878.6</ele>
        <time>2021-09-01T08:16:17Z</time>
      </trkpt>
      <trkpt lat="44.96519" lon="5.41412">
        <ele>878.4</ele>
        <time>2021-09-01T08:16:19Z</time>
      </trkpt>
      <trkpt lat="44.96513" lon="5.41399">
        <ele>878.1</ele>
        <time>2021-09-01T08:16:21Z</time>
      </trkpt>
      <trkpt lat="44.9651" lon="5.41392">
        <ele>877.9</ele>
        <time>2021-09-01T08:16:22Z</time>
      </trkpt>
      <trkpt lat="44.96503" lon="5.41377">
        <ele>877.3</ele>
        <time>2021-09-01T08:16:24Z</time>
      </trkpt>
      <trkpt lat="44.965" lon="5.4137">
        <ele>877.1</ele>
        <time>2021-09-01T08:16:25Z</time>
      </trkpt>
      <trkpt lat="44.96494" lon="5.41356">
        <ele>876.6</ele>
        <time>2021-09-01T08:16:27Z</time>
      </trkpt>
      <trkpt lat="44.96491" lon="5.41348">
        <ele>876.3</ele>
        <time>2021-09-01T08:16:28Z</time>
      </trkpt>
      <trkpt lat="44.96489" lon="5.4134">
        <ele>876.1</ele>
        <time>2021-09-01T08:16:29Z</time>
      </trkpt>
      <trkpt lat="44.96486" lon="5.41333">
        <ele>875.9</ele>
        <time>2021-09-01T08:16:30Z</time>
      </trkpt>
      <trkpt lat="44.96482" lon="5.41316">
        <ele>875.5</ele>
        <time>2021-09-01T08:16:32Z</time>
      </trkpt>
      <trkpt lat="44.9648" lon="5.41308">
        <ele>875.4</ele>
        <time>2021-09-01T08:16:33Z</time>
      </trkpt>
      <trkpt lat="44.9648" lon="5.41289">
        <ele>875.1</ele>
        <time>2021-09-01T08:16:35Z</time>
      </trkpt>
      <trkpt lat="44.96481" lon="5.41279">
        <ele>874.9</ele>
        <time>2021-09-01T08:16:36Z</time>
      </trkpt>
      <trkpt lat="44.96484" lon="5.41261">
        <ele>874.6</ele>
        <time>2021-09-01T08:16:38Z</time>
      </trkpt>
      <trkpt lat="44.96486" lon="5.41252">
        <ele>874.4</ele>
        <time>2021-09-01T08:16:39Z</time>
      </trkpt>
      <trkpt lat="44.96487" lon="5.41244">
        <ele>874.2</ele>
        <time>2021-09-01T08:16:40Z</time>
      </trkpt>
      <trkpt lat="44.96487" lon="5.41229">
        <ele>873.8</ele>
        <time>2021-09-01T08:16:42Z</time>
      </trkpt>
      <trkpt lat="44.96484" lon="5.41217">
        <ele>873.5</ele>
        <time>2021-09-01T08:16:44Z</time>
      </trkpt>
      <trkpt lat="44.96477" lon="5.4121">
        <ele>873.1</ele>
        <time>2021-09-01T08:16:46Z</time>
      </trkpt>
      <trkpt lat="44.96474" lon="5.41207">
        <ele>872.9</ele>
        <time>2021-09-01T08:16:47Z</time>
      </trkpt>
      <trkpt lat="44.96469" lon="5.41204">
        <ele>872.7</ele>
        <time>2021-09-01T08:16:48Z</time>
      </trkpt>
      <trkpt lat="44.96461" lon="5.41197">
        <ele>872.2</ele>
        <time>2021-09-01T08:16:50Z</time>
      </trkpt>
      <trkpt lat="44.96456" lon="5.41194">
        <ele>872</ele>
        <time>2021-09-01T08:16:51Z</time>
      </trkpt>
      <trkpt lat="44.96448" lon="5.41188">
        <ele>871.6</ele>
        <time>2021-09-01T08:16:53Z</time>
      </trkpt>
      <trkpt lat="44.96443" lon="5.41184">
        <ele>871.4</ele>
        <time>2021-09-01T08:16:54Z</time>
      </trkpt>
      <trkpt lat="44.96438" lon="5.41181">
        <ele>871.1</ele>
        <time>2021-09-01T08:16:55Z</time>
      </trkpt>
      <trkpt lat="44.96425" lon="5.41175">
        <ele>870.6</ele>
        <time>2021-09-01T08:16:57Z</time>
      </trkpt>
      <trkpt lat="44.96418" lon="5.41172">
        <ele>870.3</ele>
        <time>2021-09-01T08:16:58Z</time>
      </trkpt>
      <trkpt lat="44.96411" lon="5.41168">
        <ele>870</ele>
        <time>2021-09-01T08:16:59Z</time>
      </trkpt>
      <trkpt lat="44.96404" lon="5.41164">
        <ele>869.8</ele>
        <time>2021-09-01T08:17:00Z</time>
      </trkpt>
      <trkpt lat="44.96398" lon="5.4116">
        <ele>869.6</ele>
        <time>2021-09-01T08:17:01Z</time>
      </trkpt>
      <trkpt lat="44.96391" lon="5.41155">
        <ele>869.5</ele>
        <time>2021-09-01T08:17:02Z</time>
      </trkpt>
      <trkpt lat="44.96379" lon="5.41142">
        <ele>869.1</ele>
        <time>2021-09-01T08:17:04Z</time>
      </trkpt>
      <trkpt lat="44.96366" lon="5.41127">
        <ele>868.4</ele>
        <time>2021-09-01T08:17:06Z</time>
      </trkpt>
      <trkpt lat="44.96358" lon="5.41117">
        <ele>868</ele>
        <time>2021-09-01T08:17:07Z</time>
      </trkpt>
      <trkpt lat="44.96349" lon="5.41106">
        <ele>867.5</ele>
        <time>2021-09-01T08:17:08Z</time>
      </trkpt>
      <trkpt lat="44.96332" lon="5.41089">
        <ele>866.7</ele>
        <time>2021-09-01T08:17:10Z</time>
      </trkpt>
      <trkpt lat="44.96325" lon="5.41082">
        <ele>866.3</ele>
        <time>2021-09-01T08:17:11Z</time>
      </trkpt>
      <trkpt lat="44.96311" lon="5.41068">
        <ele>865.6</ele>
        <time>2021-09-01T08:17:13Z</time>
      </trkpt>
      <trkpt lat="44.96299" lon="5.41056">
        <ele>865</ele>
        <time>2021-09-01T08:17:15Z</time>
      </trkpt>
      <trkpt lat="44.96293" lon="5.4105">
        <ele>864.7</ele>
        <time>2021-09-01T08:17:16Z</time>
      </trkpt>
      <trkpt lat="44.96281" lon="5.41039">
        <ele>864.1</ele>
        <time>2021-09-01T08:17:18Z</time>
      </trkpt>
      <trkpt lat="44.96275" lon="5.41034">
        <ele>863.8</ele>
        <time>2021-09-01T08:17:19Z</time>
      </trkpt>
      <trkpt lat="44.96261" lon="5.41024">
        <ele>863.1</ele>
        <time>2021-09-01T08:17:21Z</time>
      </trkpt>
      <trkpt lat="44.96247" lon="5.41015">
        <ele>862.4</ele>
        <time>2021-09-01T08:17:23Z</time>
      </trkpt>
      <trkpt lat="44.96231" lon="5.41005">
        <ele>861.6</ele>
        <time>2021-09-01T08:17:25Z</time>
      </trkpt>
      <trkpt lat="44.96224" lon="5.41">
        <ele>861.3</ele>
        <time>2021-09-01T08:17:26Z</time>
      </trkpt>
      <trkpt lat="44.96216" lon="5.40995">
        <ele>861</ele>
        <time>2021-09-01T08:17:27Z</time>
      </trkpt>
      <trkpt lat="44.96209" lon="5.4099">
        <ele>860.7</ele>
        <time>2021-09-01T08:17:28Z</time>
      </trkpt>
      <trkpt lat="44.96202" lon="5.40985">
        <ele>860.4</ele>
        <time>2021-09-01T08:17:29Z</time>
      </trkpt>
      <trkpt lat="44.96195" lon="5.4098">
        <ele>860.2</ele>
        <time>2021-09-01T08:17:30Z</time>
      </trkpt>
      <trkpt lat="44.96181" lon="5.40971">
        <ele>859.6</ele>
        <time>2021-09-01T08:17:32Z</time>
      </trkpt>
      <trkpt lat="44.96174" lon="5.40966">
        <ele>859.3</ele>
        <time>2021-09-01T08:17:33Z</time>
      </trkpt>
      <trkpt lat="44.9616" lon="5.40958">
        <ele>858.6</ele>
        <time>2021-09-01T08:17:35Z</time>
      </trkpt>
      <trkpt lat="44.96153" lon="5.40954">
        <ele>858.3</ele>
        <time>2021-09-01T08:17:36Z</time>
      </trkpt>
      <trkpt lat="44.96145" lon="5.4095">
        <ele>857.9</ele>
        <time>2021-09-01T08:17:37Z</time>
      </trkpt>
      <trkpt lat="44.96132" lon="5.40944">
        <ele>857.2</ele>
        <time>2021-09-01T08:17:39Z</time>
      </trkpt>
      <trkpt lat="44.9612" lon="5.40938">
        <ele>856.7</ele>
        <time>2021-09-01T08:17:41Z</time>
      </trkpt>
      <trkpt lat="44.96114" lon="5.40935">
        <ele>856.4</ele>
        <time>2021-09-01T08:17:42Z</time>
      </trkpt>
      <trkpt lat="44.96108" lon="5.40932">
        <ele>856.1</ele>
        <time>2021-09-01T08:17:43Z</time>
      </trkpt>
      <trkpt lat="44.96096" lon="5.40926">
        <ele>855.6</ele>
        <time>2021-09-01T08:17:45Z</time>
      </trkpt>
      <trkpt lat="44.9609" lon="5.40924">
        <ele>855.4</ele>
        <time>2021-09-01T08:17:46Z</time>
      </trkpt>
      <trkpt lat="44.96077" lon="5.40919">
        <ele>855</ele>
        <time>2021-09-01T08:17:48Z</time>
      </trkpt>
      <trkpt lat="44.96072" lon="5.40917">
        <ele>854.8</ele>
        <time>2021-09-01T08:17:49Z</time>
      </trkpt>
      <trkpt lat="44.96061" lon="5.40913">
        <ele>854.5</ele>
        <time>2021-09-01T08:17:51Z</time>
      </trkpt>
      <trkpt lat="44.96057" lon="5.40911">
        <ele>854.4</ele>
        <time>2021-09-01T08:17:52Z</time>
      </trkpt>
      <trkpt lat="44.96054" lon="5.4091">
        <ele>854.4</ele>
        <time>2021-09-01T08:17:53Z</time>
      </trkpt>
      <trkpt lat="44.96049" lon="5.40906">
        <ele>854.2</ele>
        <time>2021-09-01T08:17:55Z</time>
      </trkpt>
      <trkpt lat="44.96044" lon="5.40901">
        <ele>854</ele>
        <time>2021-09-01T08:17:57Z</time>
      </trkpt>
      <trkpt lat="44.96042" lon="5.40895">
        <ele>853.7</ele>
        <time>2021-09-01T08:17:59Z</time>
      </trkpt>
      <trkpt lat="44.96042" lon="5.4089">
        <ele>853.5</ele>
        <time>2021-09-01T08:18:01Z</time>
      </trkpt>
      <trkpt lat="44.96043" lon="5.40881">
        <ele>853.1</ele>
        <time>2021-09-01T08:18:03Z</time>
      </trkpt>
      <trkpt lat="44.96046" lon="5.4087">
        <ele>852.8</ele>
        <time>2021-09-01T08:18:05Z</time>
      </trkpt>
      <trkpt lat="44.96049" lon="5.40859">
        <ele>852.4</ele>
        <time>2021-09-01T08:18:07Z</time>
      </trkpt>
      <trkpt lat="44.96053" lon="5.40849">
        <ele>852.2</ele>
        <time>2021-09-01T08:18:09Z</time>
      </trkpt>
      <trkpt lat="44.96056" lon="5.40839">
        <ele>852</ele>
        <time>2021-09-01T08:18:11Z</time>
      </trkpt>
      <trkpt lat="44.9606" lon="5.40829">
        <ele>851.8</ele>
        <time>2021-09-01T08:18:13Z</time>
      </trkpt>
      <trkpt lat="44.96064" lon="5.40818">
        <ele>851.6</ele>
        <time>2021-09-01T08:18:15Z</time>
      </trkpt>
      <trkpt lat="44.96069" lon="5.40806">
        <ele>851.5</ele>
        <time>2021-09-01T08:18:17Z</time>
      </trkpt>
      <trkpt lat="44.96071" lon="5.408">
        <ele>851.4</ele>
        <time>2021-09-01T08:18:18Z</time>
      </trkpt>
      <trkpt lat="44.96075" lon="5.40789">
        <ele>851.3</ele>
        <time>2021-09-01T08:18:20Z</time>
      </trkpt>
      <trkpt lat="44.96077" lon="5.40784">
        <ele>851.3</ele>
        <time>2021-09-01T08:18:21Z</time>
      </trkpt>
      <trkpt lat="44.96081" lon="5.40773">
        <ele>851.2</ele>
        <time>2021-09-01T08:18:23Z</time>
      </trkpt>
      <trkpt lat="44.96083" lon="5.40767">
        <ele>851.1</ele>
        <time>2021-09-01T08:18:24Z</time>
      </trkpt>
      <trkpt lat="44.96084" lon="5.40761">
        <ele>851.1</ele>
        <time>2021-09-01T08:18:25Z</time>
      </trkpt>
      <trkpt lat="44.96088" lon="5.40751">
        <ele>851</ele>
        <time>2021-09-01T08:18:27Z</time>
      </trkpt>
      <trkpt lat="44.9609" lon="5.40744">
        <ele>851</ele>
        <time>2021-09-01T08:18:28Z</time>
      </trkpt>
      <trkpt lat="44.96092" lon="5.40738">
        <ele>850.9</ele>
        <time>2021-09-01T08:18:29Z</time>
      </trkpt>
      <trkpt lat="44.96093" lon="5.40732">
        <ele>850.8</ele>
        <time>2021-09-01T08:18:31Z</time>
      </trkpt>
      <trkpt lat="44.96095" lon="5.40725">
        <ele>850.7</ele>
        <time>2021-09-01T08:18:32Z</time>
      </trkpt>
      <trkpt lat="44.96098" lon="5.40716">
        <ele>850.6</ele>
        <time>2021-09-01T08:18:34Z</time>
      </trkpt>
      <trkpt lat="44.961" lon="5.4071">
        <ele>850.5</ele>
        <time>2021-09-01T08:18:35Z</time>
      </trkpt>
      <trkpt lat="44.96102" lon="5.40705">
        <ele>850.4</ele>
        <time>2021-09-01T08:18:36Z</time>
      </trkpt>
      <trkpt lat="44.96104" lon="5.40699">
        <ele>850.3</ele>
        <time>2021-09-01T08:18:37Z</time>
      </trkpt>
      <trkpt lat="44.96105" lon="5.40695">
        <ele>850.3</ele>
        <time>2021-09-01T08:18:38Z</time>
      </trkpt>
      <trkpt lat="44.96107" lon="5.40688">
        <ele>850.2</ele>
        <time>2021-09-01T08:18:40Z</time>
      </trkpt>
      <trkpt lat="44.96109" lon="5.40684">
        <ele>850.1</ele>
        <time>2021-09-01T08:18:41Z</time>
      </trkpt>
      <trkpt lat="44.9611" lon="5.40682">
        <ele>850.1</ele>
        <time>2021-09-01T08:18:42Z</time>
      </trkpt>
      <trkpt lat="44.9611" lon="5.4068">
        <ele>850.1</ele>
        <time>2021-09-01T08:18:43Z</time>
      </trkpt>
      <trkpt lat="44.9611" lon="5.40681">
        <ele>850.1</ele>
        <time>2021-09-01T08:18:44Z</time>
      </trkpt>
      <trkpt lat="44.96109" lon="5.40681">
        <ele>850.1</ele>
        <time>2021-09-01T08:18:46Z</time>
      </trkpt>
      <trkpt lat="44.96109" lon="5.40681">
        <ele>850.1</ele>
        <time>2021-09-01T08:18:47Z</time>
      </trkpt>
      <trkpt lat="44.9611" lon="5.40681">
        <ele>850.1</ele>
        <time>2021-09-01T08:18:48Z</time>
      </trkpt>
      <trkpt lat="44.9611" lon="5.40682">
        <ele>850.1</ele>
        <time>2021-09-01T08:18:50Z</time>
      </trkpt>
      <trkpt lat="44.9611" lon="5.40682">
        <ele>850.1</ele>
        <time>2021-09-01T08:18:51Z</time>
      </trkpt>
      <trkpt lat="44.9611" lon="5.40682">
        <ele>850.1</ele>
        <time>2021-09-01T08:18:53Z</time>
      </trkpt>
      <trkpt lat="44.96114" lon="5.40675">
        <ele>850</ele>
        <time>2021-09-01T08:19:08Z</time>
      </trkpt>
      <trkpt lat="44.96115" lon="5.40674">
        <ele>850</ele>
        <time>2021-09-01T08:19:09Z</time>
      </trkpt>
      <trkpt lat="44.96108" lon="5.40672">
        <ele>849.9</ele>
        <time>2021-09-01T08:19:11Z</time>
      </trkpt>
      <trkpt lat="44.96104" lon="5.40671">
        <ele>849.9</ele>
        <time>2021-09-01T08:19:12Z</time>
      </trkpt>
      <trkpt lat="44.96099" lon="5.40674">
        <ele>849.8</ele>
        <time>2021-09-01T08:19:14Z</time>
      </trkpt>
      <trkpt lat="44.96097" lon="5.40675">
        <ele>849.8</ele>
        <time>2021-09-01T08:19:15Z</time>
      </trkpt>
      <trkpt lat="44.96097" lon="5.40675">
        <ele>849.8</ele>
        <time>2021-09-01T08:19:17Z</time>
      </trkpt>
      <trkpt lat="44.96098" lon="5.40674">
        <ele>849.8</ele>
        <time>2021-09-01T08:19:18Z</time>
      </trkpt>
      <trkpt lat="44.96098" lon="5.40674">
        <ele>849.8</ele>
        <time>2021-09-01T08:19:19Z</time>
      </trkpt>
      <trkpt lat="44.96098" lon="5.40674">
        <ele>849.8</ele>
        <time>2021-09-01T08:19:20Z</time>
      </trkpt>
      <trkpt lat="44.96098" lon="5.40674">
        <ele>849.8</ele>
        <time>2021-09-01T08:19:22Z</time>
      </trkpt>
      <trkpt lat="44.96098" lon="5.40674">
        <ele>849.8</ele>
        <time>2021-09-01T08:19:24Z</time>
      </trkpt>
      <trkpt lat="44.96099" lon="5.40674">
        <ele>849.8</ele>
        <time>2021-09-01T08:19:25Z</time>
      </trkpt>
      <trkpt lat="44.96099" lon="5.40674">
        <ele>849.8</ele>
        <time>2021-09-01T08:19:26Z</time>
      </trkpt>
      <trkpt lat="44.96099" lon="5.40674">
        <ele>849.8</ele>
        <time>2021-09-01T08:19:28Z</time>
      </trkpt>
      <trkpt lat="44.96099" lon="5.40673">
        <ele>849.8</ele>
        <time>2021-09-01T08:20:08Z</time>
      </trkpt>
      <trkpt lat="44.96099" lon="5.40673">
        <ele>849.8</ele>
        <time>2021-09-01T08:20:09Z</time>
      </trkpt>
      <trkpt lat="44.96101" lon="5.40668">
        <ele>849.8</ele>
        <time>2021-09-01T08:20:10Z</time>
      </trkpt>
      <trkpt lat="44.96104" lon="5.40659">
        <ele>849.7</ele>
        <time>2021-09-01T08:20:11Z</time>
      </trkpt>
      <trkpt lat="44.96107" lon="5.40652">
        <ele>849.7</ele>
        <time>2021-09-01T08:20:13Z</time>
      </trkpt>
      <trkpt lat="44.9611" lon="5.40643">
        <ele>849.7</ele>
        <time>2021-09-01T08:20:15Z</time>
      </trkpt>
      <trkpt lat="44.96112" lon="5.40636">
        <ele>849.6</ele>
        <time>2021-09-01T08:20:16Z</time>
      </trkpt>
      <trkpt lat="44.96114" lon="5.40632">
        <ele>849.6</ele>
        <time>2021-09-01T08:20:17Z</time>
      </trkpt>
      <trkpt lat="44.96116" lon="5.40625">
        <ele>849.6</ele>
        <time>2021-09-01T08:20:19Z</time>
      </trkpt>
      <trkpt lat="44.96117" lon="5.4062">
        <ele>849.6</ele>
        <time>2021-09-01T08:20:20Z</time>
      </trkpt>
      <trkpt lat="44.96119" lon="5.40616">
        <ele>849.6</ele>
        <time>2021-09-01T08:20:21Z</time>
      </trkpt>
      <trkpt lat="44.96119" lon="5.40611">
        <ele>849.6</ele>
        <time>2021-09-01T08:20:22Z</time>
      </trkpt>
      <trkpt lat="44.9612" lon="5.40607">
        <ele>849.6</ele>
        <time>2021-09-01T08:20:24Z</time>
      </trkpt>
      <trkpt lat="44.9612" lon="5.40603">
        <ele>849.6</ele>
        <time>2021-09-01T08:20:25Z</time>
      </trkpt>
      <trkpt lat="44.9612" lon="5.406">
        <ele>849.7</ele>
        <time>2021-09-01T08:20:26Z</time>
      </trkpt>
      <trkpt lat="44.96121" lon="5.40595">
        <ele>849.8</ele>
        <time>2021-09-01T08:20:28Z</time>
      </trkpt>
      <trkpt lat="44.96121" lon="5.40592">
        <ele>849.8</ele>
        <time>2021-09-01T08:20:29Z</time>
      </trkpt>
      <trkpt lat="44.96121" lon="5.40589">
        <ele>849.9</ele>
        <time>2021-09-01T08:20:31Z</time>
      </trkpt>
      <trkpt lat="44.9612" lon="5.40586">
        <ele>849.9</ele>
        <time>2021-09-01T08:20:32Z</time>
      </trkpt>
      <trkpt lat="44.9612" lon="5.40584">
        <ele>849.9</ele>
        <time>2021-09-01T08:20:33Z</time>
      </trkpt>
      <trkpt lat="44.9612" lon="5.40581">
        <ele>850</ele>
        <time>2021-09-01T08:20:34Z</time>
      </trkpt>
      <trkpt lat="44.96121" lon="5.40578">
        <ele>850</ele>
        <time>2021-09-01T08:20:36Z</time>
      </trkpt>
      <trkpt lat="44.96121" lon="5.40576">
        <ele>850</ele>
        <time>2021-09-01T08:20:37Z</time>
      </trkpt>
      <trkpt lat="44.96122" lon="5.40573">
        <ele>850.1</ele>
        <time>2021-09-01T08:20:39Z</time>
      </trkpt>
      <trkpt lat="44.96122" lon="5.40569">
        <ele>850.1</ele>
        <time>2021-09-01T08:20:40Z</time>
      </trkpt>
      <trkpt lat="44.96123" lon="5.40565">
        <ele>850.1</ele>
        <time>2021-09-01T08:20:42Z</time>
      </trkpt>
      <trkpt lat="44.96124" lon="5.40561">
        <ele>850.2</ele>
        <time>2021-09-01T08:20:43Z</time>
      </trkpt>
      <trkpt lat="44.96124" lon="5.40557">
        <ele>850.2</ele>
        <time>2021-09-01T08:20:45Z</time>
      </trkpt>
      <trkpt lat="44.96125" lon="5.40554">
        <ele>850.2</ele>
        <time>2021-09-01T08:20:46Z</time>
      </trkpt>
      <trkpt lat="44.96125" lon="5.40549">
        <ele>850.3</ele>
        <time>2021-09-01T08:20:48Z</time>
      </trkpt>
      <trkpt lat="44.96125" lon="5.40547">
        <ele>850.3</ele>
        <time>2021-09-01T08:20:49Z</time>
      </trkpt>
      <trkpt lat="44.96126" lon="5.40542">
        <ele>850.3</ele>
        <time>2021-09-01T08:20:51Z</time>
      </trkpt>
      <trkpt lat="44.96127" lon="5.40537">
        <ele>850.2</ele>
        <time>2021-09-01T08:20:52Z</time>
      </trkpt>
      <trkpt lat="44.96127" lon="5.40536">
        <ele>850.2</ele>
        <time>2021-09-01T08:20:53Z</time>
      </trkpt>
      <trkpt lat="44.96128" lon="5.40532">
        <ele>850.2</ele>
        <time>2021-09-01T08:20:54Z</time>
      </trkpt>
      <trkpt lat="44.96129" lon="5.40527">
        <ele>850.2</ele>
        <time>2021-09-01T08:20:56Z</time>
      </trkpt>
      <trkpt lat="44.96129" lon="5.40525">
        <ele>850.1</ele>
        <time>2021-09-01T08:20:57Z</time>
      </trkpt>
      <trkpt lat="44.96129" lon="5.40521">
        <ele>850.1</ele>
        <time>2021-09-01T08:20:58Z</time>
      </trkpt>
      <trkpt lat="44.96129" lon="5.40519">
        <ele>850.1</ele>
        <time>2021-09-01T08:20:59Z</time>
      </trkpt>
      <trkpt lat="44.9613" lon="5.40516">
        <ele>850</ele>
        <time>2021-09-01T08:21:00Z</time>
      </trkpt>
      <trkpt lat="44.9613" lon="5.40511">
        <ele>850</ele>
        <time>2021-09-01T08:21:02Z</time>
      </trkpt>
      <trkpt lat="44.96131" lon="5.40506">
        <ele>849.9</ele>
        <time>2021-09-01T08:21:03Z</time>
      </trkpt>
      <trkpt lat="44.96132" lon="5.405">
        <ele>849.8</ele>
        <time>2021-09-01T08:21:04Z</time>
      </trkpt>
      <trkpt lat="44.96133" lon="5.40496">
        <ele>849.7</ele>
        <time>2021-09-01T08:21:06Z</time>
      </trkpt>
      <trkpt lat="44.96133" lon="5.40491">
        <ele>849.7</ele>
        <time>2021-09-01T08:21:07Z</time>
      </trkpt>
      <trkpt lat="44.96133" lon="5.40486">
        <ele>849.6</ele>
        <time>2021-09-01T08:21:08Z</time>
      </trkpt>
      <trkpt lat="44.96134" lon="5.40482">
        <ele>849.5</ele>
        <time>2021-09-01T08:21:09Z</time>
      </trkpt>
      <trkpt lat="44.96134" lon="5.40478">
        <ele>849.5</ele>
        <time>2021-09-01T08:21:10Z</time>
      </trkpt>
      <trkpt lat="44.96134" lon="5.40475">
        <ele>849.4</ele>
        <time>2021-09-01T08:21:11Z</time>
      </trkpt>
      <trkpt lat="44.96134" lon="5.4047">
        <ele>849.3</ele>
        <time>2021-09-01T08:21:13Z</time>
      </trkpt>
      <trkpt lat="44.96134" lon="5.40465">
        <ele>849.3</ele>
        <time>2021-09-01T08:21:14Z</time>
      </trkpt>
      <trkpt lat="44.96134" lon="5.40463">
        <ele>849.2</ele>
        <time>2021-09-01T08:21:15Z</time>
      </trkpt>
      <trkpt lat="44.96135" lon="5.40458">
        <ele>849.2</ele>
        <time>2021-09-01T08:21:17Z</time>
      </trkpt>
      <trkpt lat="44.96135" lon="5.40454">
        <ele>849.1</ele>
        <time>2021-09-01T08:21:18Z</time>
      </trkpt>
      <trkpt lat="44.96135" lon="5.40453">
        <ele>849.1</ele>
        <time>2021-09-01T08:21:19Z</time>
      </trkpt>
      <trkpt lat="44.96135" lon="5.4045">
        <ele>849.1</ele>
        <time>2021-09-01T08:21:20Z</time>
      </trkpt>
      <trkpt lat="44.96136" lon="5.40449">
        <ele>849.1</ele>
        <time>2021-09-01T08:21:21Z</time>
      </trkpt>
      <trkpt lat="44.96138" lon="5.40447">
        <ele>849</ele>
        <time>2021-09-01T08:21:22Z</time>
      </trkpt>
      <trkpt lat="44.96139" lon="5.40444">
        <ele>849</ele>
        <time>2021-09-01T08:21:24Z</time>
      </trkpt>
      <trkpt lat="44.9614" lon="5.40442">
        <ele>849</ele>
        <time>2021-09-01T08:21:25Z</time>
      </trkpt>
      <trkpt lat="44.96141" lon="5.4044">
        <ele>849</ele>
        <time>2021-09-01T08:21:26Z</time>
      </trkpt>
      <trkpt lat="44.96142" lon="5.40439">
        <ele>848.9</ele>
        <time>2021-09-01T08:21:27Z</time>
      </trkpt>
      <trkpt lat="44.96143" lon="5.40437">
        <ele>848.9</ele>
        <time>2021-09-01T08:21:28Z</time>
      </trkpt>
      <trkpt lat="44.96146" lon="5.40432">
        <ele>848.8</ele>
        <time>2021-09-01T08:21:30Z</time>
      </trkpt>
      <trkpt lat="44.96147" lon="5.4043">
        <ele>848.8</ele>
        <time>2021-09-01T08:21:31Z</time>
      </trkpt>
      <trkpt lat="44.96148" lon="5.40429">
        <ele>848.7</ele>
        <time>2021-09-01T08:21:32Z</time>
      </trkpt>
      <trkpt lat="44.96152" lon="5.40426">
        <ele>848.6</ele>
        <time>2021-09-01T08:21:34Z</time>
      </trkpt>
      <trkpt lat="44.96153" lon="5.40425">
        <ele>848.6</ele>
        <time>2021-09-01T08:21:35Z</time>
      </trkpt>
      <trkpt lat="44.96154" lon="5.40424">
        <ele>848.6</ele>
        <time>2021-09-01T08:21:36Z</time>
      </trkpt>
      <trkpt lat="44.96157" lon="5.40421">
        <ele>848.5</ele>
        <time>2021-09-01T08:21:37Z</time>
      </trkpt>
      <trkpt lat="44.96159" lon="5.4042">
        <ele>848.4</ele>
        <time>2021-09-01T08:21:38Z</time>
      </trkpt>
      <trkpt lat="44.96161" lon="5.40418">
        <ele>848.3</ele>
        <time>2021-09-01T08:21:39Z</time>
      </trkpt>
      <trkpt lat="44.96162" lon="5.40417">
        <ele>848.3</ele>
        <time>2021-09-01T08:21:40Z</time>
      </trkpt>
      <trkpt lat="44.96164" lon="5.40415">
        <ele>848.2</ele>
        <time>2021-09-01T08:21:41Z</time>
      </trkpt>
      <trkpt lat="44.96167" lon="5.4041">
        <ele>848.1</ele>
        <time>2021-09-01T08:21:43Z</time>
      </trkpt>
      <trkpt lat="44.96168" lon="5.40407">
        <ele>848</ele>
        <time>2021-09-01T08:21:45Z</time>
      </trkpt>
      <trkpt lat="44.96169" lon="5.40405">
        <ele>847.9</ele>
        <time>2021-09-01T08:21:46Z</time>
      </trkpt>
      <trkpt lat="44.9617" lon="5.40404">
        <ele>847.9</ele>
        <time>2021-09-01T08:21:47Z</time>
      </trkpt>
      <trkpt lat="44.9617" lon="5.40402">
        <ele>847.9</ele>
        <time>2021-09-01T08:21:48Z</time>
      </trkpt>
      <trkpt lat="44.96171" lon="5.404">
        <ele>847.8</ele>
        <time>2021-09-01T08:21:49Z</time>
      </trkpt>
      <trkpt lat="44.96171" lon="5.40399">
        <ele>847.8</ele>
        <time>2021-09-01T08:21:50Z</time>
      </trkpt>
      <trkpt lat="44.96172" lon="5.40397">
        <ele>847.8</ele>
        <time>2021-09-01T08:21:52Z</time>
      </trkpt>
      <trkpt lat="44.96172" lon="5.40395">
        <ele>847.8</ele>
        <time>2021-09-01T08:21:53Z</time>
      </trkpt>
      <trkpt lat="44.96175" lon="5.40391">
        <ele>847.7</ele>
        <time>2021-09-01T08:21:55Z</time>
      </trkpt>
      <trkpt lat="44.96176" lon="5.40385">
        <ele>847.7</ele>
        <time>2021-09-01T08:21:57Z</time>
      </trkpt>
      <trkpt lat="44.96177" lon="5.4038">
        <ele>847.6</ele>
        <time>2021-09-01T08:21:58Z</time>
      </trkpt>
      <trkpt lat="44.96177" lon="5.40377">
        <ele>847.6</ele>
        <time>2021-09-01T08:21:59Z</time>
      </trkpt>
      <trkpt lat="44.96178" lon="5.40373">
        <ele>847.6</ele>
        <time>2021-09-01T08:22:01Z</time>
      </trkpt>
      <trkpt lat="44.96178" lon="5.40368">
        <ele>847.6</ele>
        <time>2021-09-01T08:22:02Z</time>
      </trkpt>
      <trkpt lat="44.96179" lon="5.40365">
        <ele>847.6</ele>
        <time>2021-09-01T08:22:03Z</time>
      </trkpt>
      <trkpt lat="44.9618" lon="5.40359">
        <ele>847.6</ele>
        <time>2021-09-01T08:22:05Z</time>
      </trkpt>
      <trkpt lat="44.9618" lon="5.40353">
        <ele>847.6</ele>
        <time>2021-09-01T08:22:06Z</time>
      </trkpt>
      <trkpt lat="44.96181" lon="5.40347">
        <ele>847.6</ele>
        <time>2021-09-01T08:22:07Z</time>
      </trkpt>
      <trkpt lat="44.96181" lon="5.40343">
        <ele>847.5</ele>
        <time>2021-09-01T08:22:08Z</time>
      </trkpt>
      <trkpt lat="44.96182" lon="5.40337">
        <ele>847.5</ele>
        <time>2021-09-01T08:22:10Z</time>
      </trkpt>
      <trkpt lat="44.96183" lon="5.40333">
        <ele>847.5</ele>
        <time>2021-09-01T08:22:11Z</time>
      </trkpt>
      <trkpt lat="44.96185" lon="5.40327">
        <ele>847.4</ele>
        <time>2021-09-01T08:22:12Z</time>
      </trkpt>
      <trkpt lat="44.96186" lon="5.40321">
        <ele>847.3</ele>
        <time>2021-09-01T08:22:14Z</time>
      </trkpt>
      <trkpt lat="44.96188" lon="5.40314">
        <ele>847.2</ele>
        <time>2021-09-01T08:22:15Z</time>
      </trkpt>
      <trkpt lat="44.96188" lon="5.40309">
        <ele>847.1</ele>
        <time>2021-09-01T08:22:17Z</time>
      </trkpt>
      <trkpt lat="44.96188" lon="5.40303">
        <ele>847</ele>
        <time>2021-09-01T08:22:18Z</time>
      </trkpt>
      <trkpt lat="44.96188" lon="5.40299">
        <ele>846.8</ele>
        <time>2021-09-01T08:22:19Z</time>
      </trkpt>
      <trkpt lat="44.96188" lon="5.40292">
        <ele>846.6</ele>
        <time>2021-09-01T08:22:20Z</time>
      </trkpt>
      <trkpt lat="44.96188" lon="5.40286">
        <ele>846.5</ele>
        <time>2021-09-01T08:22:22Z</time>
      </trkpt>
      <trkpt lat="44.96188" lon="5.40281">
        <ele>846.3</ele>
        <time>2021-09-01T08:22:23Z</time>
      </trkpt>
      <trkpt lat="44.96189" lon="5.40278">
        <ele>846.2</ele>
        <time>2021-09-01T08:22:24Z</time>
      </trkpt>
      <trkpt lat="44.96189" lon="5.40272">
        <ele>846.1</ele>
        <time>2021-09-01T08:22:25Z</time>
      </trkpt>
      <trkpt lat="44.9619" lon="5.40267">
        <ele>845.9</ele>
        <time>2021-09-01T08:22:27Z</time>
      </trkpt>
      <trkpt lat="44.9619" lon="5.4026">
        <ele>845.8</ele>
        <time>2021-09-01T08:22:28Z</time>
      </trkpt>
      <trkpt lat="44.96191" lon="5.40254">
        <ele>845.6</ele>
        <time>2021-09-01T08:22:29Z</time>
      </trkpt>
      <trkpt lat="44.96191" lon="5.40249">
        <ele>845.5</ele>
        <time>2021-09-01T08:22:30Z</time>
      </trkpt>
      <trkpt lat="44.96192" lon="5.40242">
        <ele>845.3</ele>
        <time>2021-09-01T08:22:32Z</time>
      </trkpt>
      <trkpt lat="44.96192" lon="5.40236">
        <ele>845.2</ele>
        <time>2021-09-01T08:22:33Z</time>
      </trkpt>
      <trkpt lat="44.96192" lon="5.40231">
        <ele>845.1</ele>
        <time>2021-09-01T08:22:34Z</time>
      </trkpt>
      <trkpt lat="44.96192" lon="5.40226">
        <ele>845</ele>
        <time>2021-09-01T08:22:35Z</time>
      </trkpt>
      <trkpt lat="44.96193" lon="5.4022">
        <ele>844.9</ele>
        <time>2021-09-01T08:22:36Z</time>
      </trkpt>
      <trkpt lat="44.96194" lon="5.40215">
        <ele>844.9</ele>
        <time>2021-09-01T08:22:37Z</time>
      </trkpt>
      <trkpt lat="44.96196" lon="5.40209">
        <ele>844.8</ele>
        <time>2021-09-01T08:22:39Z</time>
      </trkpt>
      <trkpt lat="44.96197" lon="5.40204">
        <ele>844.8</ele>
        <time>2021-09-01T08:22:40Z</time>
      </trkpt>
      <trkpt lat="44.96198" lon="5.40197">
        <ele>844.7</ele>
        <time>2021-09-01T08:22:42Z</time>
      </trkpt>
      <trkpt lat="44.96198" lon="5.40192">
        <ele>844.7</ele>
        <time>2021-09-01T08:22:43Z</time>
      </trkpt>
      <trkpt lat="44.96199" lon="5.40186">
        <ele>844.7</ele>
        <time>2021-09-01T08:22:45Z</time>
      </trkpt>
      <trkpt lat="44.962" lon="5.40182">
        <ele>844.7</ele>
        <time>2021-09-01T08:22:46Z</time>
      </trkpt>
      <trkpt lat="44.96201" lon="5.40177">
        <ele>844.7</ele>
        <time>2021-09-01T08:22:47Z</time>
      </trkpt>
      <trkpt lat="44.96202" lon="5.40175">
        <ele>844.7</ele>
        <time>2021-09-01T08:22:48Z</time>
      </trkpt>
      <trkpt lat="44.96203" lon="5.4017">
        <ele>844.7</ele>
        <time>2021-09-01T08:22:50Z</time>
      </trkpt>
      <trkpt lat="44.96203" lon="5.40168">
        <ele>844.7</ele>
        <time>2021-09-01T08:22:51Z</time>
      </trkpt>
      <trkpt lat="44.96204" lon="5.40162">
        <ele>844.8</ele>
        <time>2021-09-01T08:22:53Z</time>
      </trkpt>
      <trkpt lat="44.96205" lon="5.40157">
        <ele>844.8</ele>
        <time>2021-09-01T08:22:54Z</time>
      </trkpt>
      <trkpt lat="44.96205" lon="5.40156">
        <ele>844.8</ele>
        <time>2021-09-01T08:22:55Z</time>
      </trkpt>
      <trkpt lat="44.96206" lon="5.4015">
        <ele>844.8</ele>
        <time>2021-09-01T08:22:56Z</time>
      </trkpt>
      <trkpt lat="44.96206" lon="5.40148">
        <ele>844.9</ele>
        <time>2021-09-01T08:22:57Z</time>
      </trkpt>
      <trkpt lat="44.96204" lon="5.40143">
        <ele>845</ele>
        <time>2021-09-01T08:22:59Z</time>
      </trkpt>
      <trkpt lat="44.96204" lon="5.40141">
        <ele>845</ele>
        <time>2021-09-01T08:23:00Z</time>
      </trkpt>
      <trkpt lat="44.96203" lon="5.4014">
        <ele>845.1</ele>
        <time>2021-09-01T08:23:01Z</time>
      </trkpt>
      <trkpt lat="44.96202" lon="5.40138">
        <ele>845.1</ele>
        <time>2021-09-01T08:23:02Z</time>
      </trkpt>
      <trkpt lat="44.96201" lon="5.40136">
        <ele>845.1</ele>
        <time>2021-09-01T08:23:04Z</time>
      </trkpt>
      <trkpt lat="44.96198" lon="5.40136">
        <ele>845.1</ele>
        <time>2021-09-01T08:23:05Z</time>
      </trkpt>
      <trkpt lat="44.96195" lon="5.40135">
        <ele>845.2</ele>
        <time>2021-09-01T08:23:07Z</time>
      </trkpt>
      <trkpt lat="44.96192" lon="5.40135">
        <ele>845.2</ele>
        <time>2021-09-01T08:23:08Z</time>
      </trkpt>
      <trkpt lat="44.96188" lon="5.40133">
        <ele>845.3</ele>
        <time>2021-09-01T08:23:09Z</time>
      </trkpt>
      <trkpt lat="44.96186" lon="5.40133">
        <ele>845.3</ele>
        <time>2021-09-01T08:23:10Z</time>
      </trkpt>
      <trkpt lat="44.96183" lon="5.40132">
        <ele>845.4</ele>
        <time>2021-09-01T08:23:12Z</time>
      </trkpt>
      <trkpt lat="44.9618" lon="5.40133">
        <ele>845.4</ele>
        <time>2021-09-01T08:23:13Z</time>
      </trkpt>
      <trkpt lat="44.96177" lon="5.40133">
        <ele>845.5</ele>
        <time>2021-09-01T08:23:14Z</time>
      </trkpt>
      <trkpt lat="44.96173" lon="5.40133">
        <ele>845.5</ele>
        <time>2021-09-01T08:23:15Z</time>
      </trkpt>
      <trkpt lat="44.9617" lon="5.40133">
        <ele>845.6</ele>
        <time>2021-09-01T08:23:16Z</time>
      </trkpt>
      <trkpt lat="44.96165" lon="5.40133">
        <ele>845.6</ele>
        <time>2021-09-01T08:23:17Z</time>
      </trkpt>
      <trkpt lat="44.96161" lon="5.40133">
        <ele>845.7</ele>
        <time>2021-09-01T08:23:19Z</time>
      </trkpt>
      <trkpt lat="44.96157" lon="5.40133">
        <ele>845.7</ele>
        <time>2021-09-01T08:23:20Z</time>
      </trkpt>
      <trkpt lat="44.96154" lon="5.40132">
        <ele>845.8</ele>
        <time>2021-09-01T08:23:21Z</time>
      </trkpt>
      <trkpt lat="44.96149" lon="5.40132">
        <ele>845.8</ele>
        <time>2021-09-01T08:23:23Z</time>
      </trkpt>
      <trkpt lat="44.96145" lon="5.40132">
        <ele>845.9</ele>
        <time>2021-09-01T08:23:24Z</time>
      </trkpt>
      <trkpt lat="44.96141" lon="5.40132">
        <ele>845.9</ele>
        <time>2021-09-01T08:23:25Z</time>
      </trkpt>
      <trkpt lat="44.96139" lon="5.40132">
        <ele>846</ele>
        <time>2021-09-01T08:23:26Z</time>
      </trkpt>
      <trkpt lat="44.96135" lon="5.40132">
        <ele>846</ele>
        <time>2021-09-01T08:23:28Z</time>
      </trkpt>
      <trkpt lat="44.96132" lon="5.40132">
        <ele>846.1</ele>
        <time>2021-09-01T08:23:29Z</time>
      </trkpt>
      <trkpt lat="44.96129" lon="5.40132">
        <ele>846.2</ele>
        <time>2021-09-01T08:23:30Z</time>
      </trkpt>
      <trkpt lat="44.96124" lon="5.40132">
        <ele>846.3</ele>
        <time>2021-09-01T08:23:32Z</time>
      </trkpt>
      <trkpt lat="44.96121" lon="5.40132">
        <ele>846.3</ele>
        <time>2021-09-01T08:23:33Z</time>
      </trkpt>
      <trkpt lat="44.9612" lon="5.40132">
        <ele>846.4</ele>
        <time>2021-09-01T08:23:34Z</time>
      </trkpt>
      <trkpt lat="44.96118" lon="5.40133">
        <ele>846.4</ele>
        <time>2021-09-01T08:23:36Z</time>
      </trkpt>
      <trkpt lat="44.96118" lon="5.40132">
        <ele>846.4</ele>
        <time>2021-09-01T08:23:37Z</time>
      </trkpt>
      <trkpt lat="44.96118" lon="5.40132">
        <ele>846.4</ele>
        <time>2021-09-01T08:23:38Z</time>
      </trkpt>
      <trkpt lat="44.96118" lon="5.40132">
        <ele>846.4</ele>
        <time>2021-09-01T08:23:40Z</time>
      </trkpt>
      <trkpt lat="44.96118" lon="5.40132">
        <ele>846.4</ele>
        <time>2021-09-01T08:23:41Z</time>
      </trkpt>
      <trkpt lat="44.96118" lon="5.40132">
        <ele>846.4</ele>
        <time>2021-09-01T08:23:43Z</time>
      </trkpt>
      <trkpt lat="44.96117" lon="5.40132">
        <ele>846.4</ele>
        <time>2021-09-01T08:23:44Z</time>
      </trkpt>
      <trkpt lat="44.96121" lon="5.40127">
        <ele>846.6</ele>
        <time>2021-09-01T08:23:56Z</time>
      </trkpt>
      <trkpt lat="44.96127" lon="5.40126">
        <ele>846.7</ele>
        <time>2021-09-01T08:23:58Z</time>
      </trkpt>
      <trkpt lat="44.96132" lon="5.40125">
        <ele>846.8</ele>
        <time>2021-09-01T08:23:59Z</time>
      </trkpt>
      <trkpt lat="44.96137" lon="5.40123">
        <ele>846.9</ele>
        <time>2021-09-01T08:24:00Z</time>
      </trkpt>
      <trkpt lat="44.96141" lon="5.40122">
        <ele>847</ele>
        <time>2021-09-01T08:24:01Z</time>
      </trkpt>
      <trkpt lat="44.96146" lon="5.40121">
        <ele>847.1</ele>
        <time>2021-09-01T08:24:02Z</time>
      </trkpt>
      <trkpt lat="44.96152" lon="5.40119">
        <ele>847.2</ele>
        <time>2021-09-01T08:24:04Z</time>
      </trkpt>
      <trkpt lat="44.96154" lon="5.40118">
        <ele>847.3</ele>
        <time>2021-09-01T08:24:05Z</time>
      </trkpt>
      <trkpt lat="44.96156" lon="5.40118">
        <ele>847.3</ele>
        <time>2021-09-01T08:24:06Z</time>
      </trkpt>
      <trkpt lat="44.96156" lon="5.40118">
        <ele>847.3</ele>
        <time>2021-09-01T08:24:07Z</time>
      </trkpt>
      <trkpt lat="44.96152" lon="5.40121">
        <ele>847.4</ele>
        <time>2021-09-01T08:24:09Z</time>
      </trkpt>
      <trkpt lat="44.96151" lon="5.40122">
        <ele>847.4</ele>
        <time>2021-09-01T08:24:10Z</time>
      </trkpt>
      <trkpt lat="44.96151" lon="5.40122">
        <ele>847.4</ele>
        <time>2021-09-01T08:24:11Z</time>
      </trkpt>
      <trkpt lat="44.96151" lon="5.40122">
        <ele>847.5</ele>
        <time>2021-09-01T08:24:12Z</time>
      </trkpt>
      <trkpt lat="44.96151" lon="5.40122">
        <ele>847.5</ele>
        <time>2021-09-01T08:24:13Z</time>
      </trkpt>
      <trkpt lat="44.96151" lon="5.40122">
        <ele>847.5</ele>
        <time>2021-09-01T08:24:15Z</time>
      </trkpt>
      <trkpt lat="44.96151" lon="5.40122">
        <ele>847.5</ele>
        <time>2021-09-01T08:24:16Z</time>
      </trkpt>
      <trkpt lat="44.96124" lon="5.40126">
        <ele>847.8</ele>
        <time>2021-09-01T08:24:22Z</time>
      </trkpt>
      <trkpt lat="44.96122" lon="5.40127">
        <ele>847.9</ele>
        <time>2021-09-01T08:24:23Z</time>
      </trkpt>
      <trkpt lat="44.96119" lon="5.40128">
        <ele>847.9</ele>
        <time>2021-09-01T08:24:24Z</time>
      </trkpt>
      <trkpt lat="44.96112" lon="5.4013">
        <ele>847.9</ele>
        <time>2021-09-01T08:24:26Z</time>
      </trkpt>
      <trkpt lat="44.96107" lon="5.40131">
        <ele>848</ele>
        <time>2021-09-01T08:24:27Z</time>
      </trkpt>
      <trkpt lat="44.961" lon="5.40133">
        <ele>848.1</ele>
        <time>2021-09-01T08:24:29Z</time>
      </trkpt>
      <trkpt lat="44.96096" lon="5.40133">
        <ele>848.1</ele>
        <time>2021-09-01T08:24:30Z</time>
      </trkpt>
      <trkpt lat="44.96092" lon="5.40134">
        <ele>848.2</ele>
        <time>2021-09-01T08:24:31Z</time>
      </trkpt>
      <trkpt lat="44.96088" lon="5.40134">
        <ele>848.2</ele>
        <time>2021-09-01T08:24:32Z</time>
      </trkpt>
      <trkpt lat="44.96085" lon="5.40135">
        <ele>848.3</ele>
        <time>2021-09-01T08:24:33Z</time>
      </trkpt>
      <trkpt lat="44.96079" lon="5.40135">
        <ele>848.4</ele>
        <time>2021-09-01T08:24:35Z</time>
      </trkpt>
      <trkpt lat="44.96075" lon="5.40136">
        <ele>848.5</ele>
        <time>2021-09-01T08:24:36Z</time>
      </trkpt>
      <trkpt lat="44.96072" lon="5.40136">
        <ele>848.5</ele>
        <time>2021-09-01T08:24:37Z</time>
      </trkpt>
      <trkpt lat="44.96069" lon="5.40136">
        <ele>848.6</ele>
        <time>2021-09-01T08:24:38Z</time>
      </trkpt>
      <trkpt lat="44.96064" lon="5.40137">
        <ele>848.7</ele>
        <time>2021-09-01T08:24:40Z</time>
      </trkpt>
      <trkpt lat="44.9606" lon="5.40138">
        <ele>848.8</ele>
        <time>2021-09-01T08:24:41Z</time>
      </trkpt>
      <trkpt lat="44.96057" lon="5.40138">
        <ele>848.8</ele>
        <time>2021-09-01T08:24:42Z</time>
      </trkpt>
      <trkpt lat="44.96053" lon="5.40138">
        <ele>848.9</ele>
        <time>2021-09-01T08:24:44Z</time>
      </trkpt>
      <trkpt lat="44.9605" lon="5.40137">
        <ele>849</ele>
        <time>2021-09-01T08:24:45Z</time>
      </trkpt>
      <trkpt lat="44.96047" lon="5.40137">
        <ele>849.1</ele>
        <time>2021-09-01T08:24:46Z</time>
      </trkpt>
      <trkpt lat="44.96044" lon="5.40137">
        <ele>849.1</ele>
        <time>2021-09-01T08:24:47Z</time>
      </trkpt>
      <trkpt lat="44.9604" lon="5.40137">
        <ele>849.2</ele>
        <time>2021-09-01T08:24:49Z</time>
      </trkpt>
      <trkpt lat="44.96034" lon="5.40137">
        <ele>849.3</ele>
        <time>2021-09-01T08:24:50Z</time>
      </trkpt>
      <trkpt lat="44.9603" lon="5.40136">
        <ele>849.4</ele>
        <time>2021-09-01T08:24:52Z</time>
      </trkpt>
      <trkpt lat="44.96027" lon="5.40136">
        <ele>849.5</ele>
        <time>2021-09-01T08:24:53Z</time>
      </trkpt>
      <trkpt lat="44.96023" lon="5.40135">
        <ele>849.6</ele>
        <time>2021-09-01T08:24:54Z</time>
      </trkpt>
      <trkpt lat="44.96021" lon="5.40135">
        <ele>849.6</ele>
        <time>2021-09-01T08:24:55Z</time>
      </trkpt>
      <trkpt lat="44.96018" lon="5.40135">
        <ele>849.7</ele>
        <time>2021-09-01T08:24:56Z</time>
      </trkpt>
      <trkpt lat="44.96015" lon="5.40134">
        <ele>849.8</ele>
        <time>2021-09-01T08:24:58Z</time>
      </trkpt>
      <trkpt lat="44.96012" lon="5.40134">
        <ele>849.8</ele>
        <time>2021-09-01T08:24:59Z</time>
      </trkpt>
      <trkpt lat="44.96009" lon="5.40133">
        <ele>849.9</ele>
        <time>2021-09-01T08:25:01Z</time>
      </trkpt>
      <trkpt lat="44.96006" lon="5.40132">
        <ele>850</ele>
        <time>2021-09-01T08:25:02Z</time>
      </trkpt>
      <trkpt lat="44.96005" lon="5.40132">
        <ele>850</ele>
        <time>2021-09-01T08:25:03Z</time>
      </trkpt>
      <trkpt lat="44.96002" lon="5.40132">
        <ele>850.1</ele>
        <time>2021-09-01T08:25:05Z</time>
      </trkpt>
      <trkpt lat="44.96001" lon="5.40132">
        <ele>850.1</ele>
        <time>2021-09-01T08:25:06Z</time>
      </trkpt>
      <trkpt lat="44.96" lon="5.40132">
        <ele>850.2</ele>
        <time>2021-09-01T08:25:07Z</time>
      </trkpt>
      <trkpt lat="44.95997" lon="5.40133">
        <ele>850.2</ele>
        <time>2021-09-01T08:25:09Z</time>
      </trkpt>
      <trkpt lat="44.95997" lon="5.40134">
        <ele>850.2</ele>
        <time>2021-09-01T08:25:11Z</time>
      </trkpt>
      <trkpt lat="44.95996" lon="5.40135">
        <ele>850.3</ele>
        <time>2021-09-01T08:25:12Z</time>
      </trkpt>
      <trkpt lat="44.95995" lon="5.40136">
        <ele>850.3</ele>
        <time>2021-09-01T08:25:14Z</time>
      </trkpt>
      <trkpt lat="44.95994" lon="5.40138">
        <ele>850.3</ele>
        <time>2021-09-01T08:25:16Z</time>
      </trkpt>
      <trkpt lat="44.95994" lon="5.40139">
        <ele>850.4</ele>
        <time>2021-09-01T08:25:17Z</time>
      </trkpt>
      <trkpt lat="44.95993" lon="5.4014">
        <ele>850.4</ele>
        <time>2021-09-01T08:25:18Z</time>
      </trkpt>
      <trkpt lat="44.95992" lon="5.40141">
        <ele>850.4</ele>
        <time>2021-09-01T08:25:20Z</time>
      </trkpt>
      <trkpt lat="44.95991" lon="5.40142">
        <ele>850.5</ele>
        <time>2021-09-01T08:28:29Z</time>
      </trkpt>
      <trkpt lat="44.95991" lon="5.40144">
        <ele>850.5</ele>
        <time>2021-09-01T08:28:30Z</time>
      </trkpt>
      <trkpt lat="44.95987" lon="5.40144">
        <ele>850.6</ele>
        <time>2021-09-01T08:28:32Z</time>
      </trkpt>
      <trkpt lat="44.95982" lon="5.40143">
        <ele>850.7</ele>
        <time>2021-09-01T08:28:33Z</time>
      </trkpt>
      <trkpt lat="44.95978" lon="5.40142">
        <ele>850.8</ele>
        <time>2021-09-01T08:28:34Z</time>
      </trkpt>
      <trkpt lat="44.95974" lon="5.40141">
        <ele>850.9</ele>
        <time>2021-09-01T08:28:36Z</time>
      </trkpt>
      <trkpt lat="44.95971" lon="5.4014">
        <ele>851</ele>
        <time>2021-09-01T08:28:37Z</time>
      </trkpt>
      <trkpt lat="44.95967" lon="5.4014">
        <ele>851.2</ele>
        <time>2021-09-01T08:28:38Z</time>
      </trkpt>
      <trkpt lat="44.95963" lon="5.4014">
        <ele>851.3</ele>
        <time>2021-09-01T08:28:39Z</time>
      </trkpt>
      <trkpt lat="44.95961" lon="5.4014">
        <ele>851.3</ele>
        <time>2021-09-01T08:28:40Z</time>
      </trkpt>
      <trkpt lat="44.95958" lon="5.4014">
        <ele>851.4</ele>
        <time>2021-09-01T08:28:42Z</time>
      </trkpt>
      <trkpt lat="44.95955" lon="5.40139">
        <ele>851.5</ele>
        <time>2021-09-01T08:28:43Z</time>
      </trkpt>
      <trkpt lat="44.95952" lon="5.40138">
        <ele>851.6</ele>
        <time>2021-09-01T08:28:44Z</time>
      </trkpt>
      <trkpt lat="44.95948" lon="5.40138">
        <ele>851.7</ele>
        <time>2021-09-01T08:28:45Z</time>
      </trkpt>
      <trkpt lat="44.95947" lon="5.40138">
        <ele>851.8</ele>
        <time>2021-09-01T08:28:46Z</time>
      </trkpt>
      <trkpt lat="44.95943" lon="5.40137">
        <ele>851.9</ele>
        <time>2021-09-01T08:28:48Z</time>
      </trkpt>
      <trkpt lat="44.9594" lon="5.40136">
        <ele>852</ele>
        <time>2021-09-01T08:28:49Z</time>
      </trkpt>
      <trkpt lat="44.95939" lon="5.40136">
        <ele>852.1</ele>
        <time>2021-09-01T08:28:50Z</time>
      </trkpt>
      <trkpt lat="44.95935" lon="5.40135">
        <ele>852.2</ele>
        <time>2021-09-01T08:28:51Z</time>
      </trkpt>
      <trkpt lat="44.95934" lon="5.40134">
        <ele>852.3</ele>
        <time>2021-09-01T08:28:52Z</time>
      </trkpt>
      <trkpt lat="44.9593" lon="5.40134">
        <ele>852.4</ele>
        <time>2021-09-01T08:28:53Z</time>
      </trkpt>
      <trkpt lat="44.95929" lon="5.40133">
        <ele>852.4</ele>
        <time>2021-09-01T08:28:54Z</time>
      </trkpt>
      <trkpt lat="44.95926" lon="5.40133">
        <ele>852.5</ele>
        <time>2021-09-01T08:28:56Z</time>
      </trkpt>
      <trkpt lat="44.95925" lon="5.40133">
        <ele>852.6</ele>
        <time>2021-09-01T08:28:57Z</time>
      </trkpt>
      <trkpt lat="44.95922" lon="5.40133">
        <ele>852.7</ele>
        <time>2021-09-01T08:28:58Z</time>
      </trkpt>
      <trkpt lat="44.95921" lon="5.40133">
        <ele>852.7</ele>
        <time>2021-09-01T08:28:59Z</time>
      </trkpt>
      <trkpt lat="44.95918" lon="5.40134">
        <ele>852.8</ele>
        <time>2021-09-01T08:29:00Z</time>
      </trkpt>
      <trkpt lat="44.95917" lon="5.40134">
        <ele>852.9</ele>
        <time>2021-09-01T08:29:01Z</time>
      </trkpt>
      <trkpt lat="44.95914" lon="5.40134">
        <ele>853</ele>
        <time>2021-09-01T08:29:03Z</time>
      </trkpt>
      <trkpt lat="44.95913" lon="5.40134">
        <ele>853</ele>
        <time>2021-09-01T08:29:04Z</time>
      </trkpt>
      <trkpt lat="44.95911" lon="5.40135">
        <ele>853.1</ele>
        <time>2021-09-01T08:29:05Z</time>
      </trkpt>
      <trkpt lat="44.9591" lon="5.40136">
        <ele>853.1</ele>
        <time>2021-09-01T08:29:06Z</time>
      </trkpt>
      <trkpt lat="44.95908" lon="5.40137">
        <ele>853.2</ele>
        <time>2021-09-01T08:29:07Z</time>
      </trkpt>
      <trkpt lat="44.95907" lon="5.40138">
        <ele>853.2</ele>
        <time>2021-09-01T08:29:08Z</time>
      </trkpt>
      <trkpt lat="44.95905" lon="5.40138">
        <ele>853.3</ele>
        <time>2021-09-01T08:29:09Z</time>
      </trkpt>
      <trkpt lat="44.95903" lon="5.40139">
        <ele>853.4</ele>
        <time>2021-09-01T08:29:11Z</time>
      </trkpt>
      <trkpt lat="44.95899" lon="5.4014">
        <ele>853.5</ele>
        <time>2021-09-01T08:29:12Z</time>
      </trkpt>
      <trkpt lat="44.95898" lon="5.4014">
        <ele>853.6</ele>
        <time>2021-09-01T08:29:13Z</time>
      </trkpt>
      <trkpt lat="44.95896" lon="5.4014">
        <ele>853.7</ele>
        <time>2021-09-01T08:29:14Z</time>
      </trkpt>
      <trkpt lat="44.95893" lon="5.40141">
        <ele>853.7</ele>
        <time>2021-09-01T08:29:16Z</time>
      </trkpt>
      <trkpt lat="44.9589" lon="5.40142">
        <ele>853.8</ele>
        <time>2021-09-01T08:29:17Z</time>
      </trkpt>
      <trkpt lat="44.95888" lon="5.40143">
        <ele>853.9</ele>
        <time>2021-09-01T08:29:19Z</time>
      </trkpt>
      <trkpt lat="44.95886" lon="5.40143">
        <ele>854</ele>
        <time>2021-09-01T08:29:20Z</time>
      </trkpt>
      <trkpt lat="44.95885" lon="5.40143">
        <ele>854</ele>
        <time>2021-09-01T08:29:21Z</time>
      </trkpt>
      <trkpt lat="44.95883" lon="5.40143">
        <ele>854.1</ele>
        <time>2021-09-01T08:29:22Z</time>
      </trkpt>
      <trkpt lat="44.95881" lon="5.40143">
        <ele>854.1</ele>
        <time>2021-09-01T08:29:23Z</time>
      </trkpt>
      <trkpt lat="44.95878" lon="5.40143">
        <ele>854.2</ele>
        <time>2021-09-01T08:29:25Z</time>
      </trkpt>
      <trkpt lat="44.95878" lon="5.40143">
        <ele>854.2</ele>
        <time>2021-09-01T08:29:26Z</time>
      </trkpt>
      <trkpt lat="44.95875" lon="5.40143">
        <ele>854.3</ele>
        <time>2021-09-01T08:29:27Z</time>
      </trkpt>
      <trkpt lat="44.95873" lon="5.40143">
        <ele>854.4</ele>
        <time>2021-09-01T08:29:29Z</time>
      </trkpt>
      <trkpt lat="44.95871" lon="5.40143">
        <ele>854.5</ele>
        <time>2021-09-01T08:29:30Z</time>
      </trkpt>
      <trkpt lat="44.95869" lon="5.40143">
        <ele>854.5</ele>
        <time>2021-09-01T08:29:32Z</time>
      </trkpt>
      <trkpt lat="44.95866" lon="5.40142">
        <ele>854.6</ele>
        <time>2021-09-01T08:29:33Z</time>
      </trkpt>
      <trkpt lat="44.95865" lon="5.40142">
        <ele>854.6</ele>
        <time>2021-09-01T08:29:34Z</time>
      </trkpt>
      <trkpt lat="44.95863" lon="5.40141">
        <ele>854.7</ele>
        <time>2021-09-01T08:29:35Z</time>
      </trkpt>
      <trkpt lat="44.9586" lon="5.4014">
        <ele>854.8</ele>
        <time>2021-09-01T08:29:37Z</time>
      </trkpt>
      <trkpt lat="44.95857" lon="5.4014">
        <ele>854.9</ele>
        <time>2021-09-01T08:29:38Z</time>
      </trkpt>
      <trkpt lat="44.95856" lon="5.40139">
        <ele>854.9</ele>
        <time>2021-09-01T08:29:40Z</time>
      </trkpt>
      <trkpt lat="44.95854" lon="5.40139">
        <ele>854.9</ele>
        <time>2021-09-01T08:29:41Z</time>
      </trkpt>
      <trkpt lat="44.95853" lon="5.40139">
        <ele>855</ele>
        <time>2021-09-01T08:29:42Z</time>
      </trkpt>
      <trkpt lat="44.95848" lon="5.40139">
        <ele>855.1</ele>
        <time>2021-09-01T08:29:44Z</time>
      </trkpt>
      <trkpt lat="44.95846" lon="5.40139">
        <ele>855.1</ele>
        <time>2021-09-01T08:29:46Z</time>
      </trkpt>
      <trkpt lat="44.95845" lon="5.40139">
        <ele>855.1</ele>
        <time>2021-09-01T08:29:47Z</time>
      </trkpt>
      <trkpt lat="44.95843" lon="5.40139">
        <ele>855.2</ele>
        <time>2021-09-01T08:29:48Z</time>
      </trkpt>
      <trkpt lat="44.95839" lon="5.4014">
        <ele>855.2</ele>
        <time>2021-09-01T08:29:49Z</time>
      </trkpt>
      <trkpt lat="44.95838" lon="5.4014">
        <ele>855.2</ele>
        <time>2021-09-01T08:29:50Z</time>
      </trkpt>
      <trkpt lat="44.95836" lon="5.40141">
        <ele>855.3</ele>
        <time>2021-09-01T08:29:51Z</time>
      </trkpt>
      <trkpt lat="44.95833" lon="5.40142">
        <ele>855.3</ele>
        <time>2021-09-01T08:29:53Z</time>
      </trkpt>
      <trkpt lat="44.95829" lon="5.40142">
        <ele>855.4</ele>
        <time>2021-09-01T08:29:54Z</time>
      </trkpt>
      <trkpt lat="44.95827" lon="5.40142">
        <ele>855.4</ele>
        <time>2021-09-01T08:29:55Z</time>
      </trkpt>
      <trkpt lat="44.95824" lon="5.40143">
        <ele>855.5</ele>
        <time>2021-09-01T08:29:57Z</time>
      </trkpt>
      <trkpt lat="44.9582" lon="5.40143">
        <ele>855.5</ele>
        <time>2021-09-01T08:29:58Z</time>
      </trkpt>
      <trkpt lat="44.95817" lon="5.40143">
        <ele>855.5</ele>
        <time>2021-09-01T08:29:59Z</time>
      </trkpt>
      <trkpt lat="44.95813" lon="5.40143">
        <ele>855.6</ele>
        <time>2021-09-01T08:30:00Z</time>
      </trkpt>
      <trkpt lat="44.9581" lon="5.40143">
        <ele>855.6</ele>
        <time>2021-09-01T08:30:02Z</time>
      </trkpt>
      <trkpt lat="44.95807" lon="5.40143">
        <ele>855.7</ele>
        <time>2021-09-01T08:30:03Z</time>
      </trkpt>
      <trkpt lat="44.95804" lon="5.40144">
        <ele>855.7</ele>
        <time>2021-09-01T08:30:04Z</time>
      </trkpt>
      <trkpt lat="44.95799" lon="5.40144">
        <ele>855.8</ele>
        <time>2021-09-01T08:30:06Z</time>
      </trkpt>
      <trkpt lat="44.95796" lon="5.40144">
        <ele>855.8</ele>
        <time>2021-09-01T08:30:07Z</time>
      </trkpt>
      <trkpt lat="44.95792" lon="5.40143">
        <ele>855.9</ele>
        <time>2021-09-01T08:30:08Z</time>
      </trkpt>
      <trkpt lat="44.95789" lon="5.40143">
        <ele>855.9</ele>
        <time>2021-09-01T08:30:09Z</time>
      </trkpt>
      <trkpt lat="44.95786" lon="5.40143">
        <ele>856</ele>
        <time>2021-09-01T08:30:11Z</time>
      </trkpt>
      <trkpt lat="44.95782" lon="5.40143">
        <ele>856</ele>
        <time>2021-09-01T08:30:12Z</time>
      </trkpt>
      <trkpt lat="44.95779" lon="5.40143">
        <ele>856.1</ele>
        <time>2021-09-01T08:30:13Z</time>
      </trkpt>
      <trkpt lat="44.95775" lon="5.40144">
        <ele>856.1</ele>
        <time>2021-09-01T08:30:15Z</time>
      </trkpt>
      <trkpt lat="44.95772" lon="5.40144">
        <ele>856.2</ele>
        <time>2021-09-01T08:30:16Z</time>
      </trkpt>
      <trkpt lat="44.95768" lon="5.40144">
        <ele>856.2</ele>
        <time>2021-09-01T08:30:17Z</time>
      </trkpt>
      <trkpt lat="44.95763" lon="5.40145">
        <ele>856.3</ele>
        <time>2021-09-01T08:30:18Z</time>
      </trkpt>
      <trkpt lat="44.95759" lon="5.40145">
        <ele>856.4</ele>
        <time>2021-09-01T08:30:20Z</time>
      </trkpt>
      <trkpt lat="44.95755" lon="5.40145">
        <ele>856.5</ele>
        <time>2021-09-01T08:30:21Z</time>
      </trkpt>
      <trkpt lat="44.9575" lon="5.40144">
        <ele>856.6</ele>
        <time>2021-09-01T08:30:22Z</time>
      </trkpt>
      <trkpt lat="44.95746" lon="5.40144">
        <ele>856.7</ele>
        <time>2021-09-01T08:30:24Z</time>
      </trkpt>
      <trkpt lat="44.95742" lon="5.40144">
        <ele>856.8</ele>
        <time>2021-09-01T08:30:25Z</time>
      </trkpt>
      <trkpt lat="44.95738" lon="5.40144">
        <ele>856.8</ele>
        <time>2021-09-01T08:30:26Z</time>
      </trkpt>
      <trkpt lat="44.95733" lon="5.40143">
        <ele>857</ele>
        <time>2021-09-01T08:30:27Z</time>
      </trkpt>
      <trkpt lat="44.95729" lon="5.40143">
        <ele>857.1</ele>
        <time>2021-09-01T08:30:29Z</time>
      </trkpt>
      <trkpt lat="44.95725" lon="5.40144">
        <ele>857.2</ele>
        <time>2021-09-01T08:30:30Z</time>
      </trkpt>
      <trkpt lat="44.95722" lon="5.40144">
        <ele>857.3</ele>
        <time>2021-09-01T08:30:31Z</time>
      </trkpt>
      <trkpt lat="44.95719" lon="5.40144">
        <ele>857.4</ele>
        <time>2021-09-01T08:30:32Z</time>
      </trkpt>
      <trkpt lat="44.95718" lon="5.40144">
        <ele>857.4</ele>
        <time>2021-09-01T08:30:33Z</time>
      </trkpt>
      <trkpt lat="44.95715" lon="5.40145">
        <ele>857.5</ele>
        <time>2021-09-01T08:30:34Z</time>
      </trkpt>
      <trkpt lat="44.95711" lon="5.40145">
        <ele>857.6</ele>
        <time>2021-09-01T08:30:36Z</time>
      </trkpt>
      <trkpt lat="44.9571" lon="5.40145">
        <ele>857.6</ele>
        <time>2021-09-01T08:30:37Z</time>
      </trkpt>
      <trkpt lat="44.95707" lon="5.40145">
        <ele>857.7</ele>
        <time>2021-09-01T08:30:38Z</time>
      </trkpt>
      <trkpt lat="44.95706" lon="5.40146">
        <ele>857.8</ele>
        <time>2021-09-01T08:30:39Z</time>
      </trkpt>
      <trkpt lat="44.95702" lon="5.40145">
        <ele>857.9</ele>
        <time>2021-09-01T08:30:41Z</time>
      </trkpt>
      <trkpt lat="44.957" lon="5.40144">
        <ele>858</ele>
        <time>2021-09-01T08:30:42Z</time>
      </trkpt>
      <trkpt lat="44.95696" lon="5.40143">
        <ele>858.1</ele>
        <time>2021-09-01T08:30:44Z</time>
      </trkpt>
      <trkpt lat="44.95691" lon="5.40142">
        <ele>858.3</ele>
        <time>2021-09-01T08:30:46Z</time>
      </trkpt>
      <trkpt lat="44.95688" lon="5.40142">
        <ele>858.4</ele>
        <time>2021-09-01T08:30:47Z</time>
      </trkpt>
      <trkpt lat="44.95685" lon="5.40142">
        <ele>858.5</ele>
        <time>2021-09-01T08:30:49Z</time>
      </trkpt>
      <trkpt lat="44.95682" lon="5.40142">
        <ele>858.7</ele>
        <time>2021-09-01T08:30:50Z</time>
      </trkpt>
      <trkpt lat="44.95679" lon="5.40142">
        <ele>858.7</ele>
        <time>2021-09-01T08:30:51Z</time>
      </trkpt>
      <trkpt lat="44.95678" lon="5.40142">
        <ele>858.8</ele>
        <time>2021-09-01T08:30:52Z</time>
      </trkpt>
      <trkpt lat="44.95673" lon="5.40142">
        <ele>858.8</ele>
        <time>2021-09-01T08:30:54Z</time>
      </trkpt>
      <trkpt lat="44.95671" lon="5.40142">
        <ele>858.9</ele>
        <time>2021-09-01T08:30:55Z</time>
      </trkpt>
      <trkpt lat="44.95667" lon="5.40142">
        <ele>858.9</ele>
        <time>2021-09-01T08:30:57Z</time>
      </trkpt>
      <trkpt lat="44.95664" lon="5.40143">
        <ele>859</ele>
        <time>2021-09-01T08:30:58Z</time>
      </trkpt>
      <trkpt lat="44.95663" lon="5.40144">
        <ele>859</ele>
        <time>2021-09-01T08:30:59Z</time>
      </trkpt>
      <trkpt lat="44.95661" lon="5.40145">
        <ele>859</ele>
        <time>2021-09-01T08:31:00Z</time>
      </trkpt>
      <trkpt lat="44.9566" lon="5.40145">
        <ele>859</ele>
        <time>2021-09-01T08:31:01Z</time>
      </trkpt>
      <trkpt lat="44.95657" lon="5.40145">
        <ele>859.1</ele>
        <time>2021-09-01T08:31:03Z</time>
      </trkpt>
      <trkpt lat="44.95656" lon="5.40145">
        <ele>859.1</ele>
        <time>2021-09-01T08:31:04Z</time>
      </trkpt>
      <trkpt lat="44.95655" lon="5.40146">
        <ele>859.1</ele>
        <time>2021-09-01T08:31:05Z</time>
      </trkpt>
      <trkpt lat="44.95652" lon="5.40146">
        <ele>859.2</ele>
        <time>2021-09-01T08:31:07Z</time>
      </trkpt>
      <trkpt lat="44.95648" lon="5.40147">
        <ele>859.3</ele>
        <time>2021-09-01T08:31:09Z</time>
      </trkpt>
      <trkpt lat="44.95645" lon="5.40147">
        <ele>859.3</ele>
        <time>2021-09-01T08:31:10Z</time>
      </trkpt>
      <trkpt lat="44.95644" lon="5.40148">
        <ele>859.4</ele>
        <time>2021-09-01T08:31:11Z</time>
      </trkpt>
      <trkpt lat="44.95641" lon="5.40148">
        <ele>859.4</ele>
        <time>2021-09-01T08:31:12Z</time>
      </trkpt>
      <trkpt lat="44.95638" lon="5.4015">
        <ele>859.5</ele>
        <time>2021-09-01T08:31:13Z</time>
      </trkpt>
      <trkpt lat="44.95633" lon="5.40152">
        <ele>859.6</ele>
        <time>2021-09-01T08:31:15Z</time>
      </trkpt>
      <trkpt lat="44.95631" lon="5.40154">
        <ele>859.7</ele>
        <time>2021-09-01T08:31:16Z</time>
      </trkpt>
      <trkpt lat="44.95626" lon="5.40157">
        <ele>859.9</ele>
        <time>2021-09-01T08:31:18Z</time>
      </trkpt>
      <trkpt lat="44.95621" lon="5.40159">
        <ele>860</ele>
        <time>2021-09-01T08:31:20Z</time>
      </trkpt>
      <trkpt lat="44.95618" lon="5.40161">
        <ele>860.2</ele>
        <time>2021-09-01T08:31:21Z</time>
      </trkpt>
      <trkpt lat="44.95617" lon="5.40161">
        <ele>860.2</ele>
        <time>2021-09-01T08:31:22Z</time>
      </trkpt>
      <trkpt lat="44.95615" lon="5.40163">
        <ele>860.3</ele>
        <time>2021-09-01T08:31:23Z</time>
      </trkpt>
      <trkpt lat="44.95612" lon="5.40166">
        <ele>860.4</ele>
        <time>2021-09-01T08:31:25Z</time>
      </trkpt>
      <trkpt lat="44.9561" lon="5.40168">
        <ele>860.5</ele>
        <time>2021-09-01T08:31:26Z</time>
      </trkpt>
      <trkpt lat="44.95607" lon="5.4017">
        <ele>860.6</ele>
        <time>2021-09-01T08:31:28Z</time>
      </trkpt>
      <trkpt lat="44.95605" lon="5.40174">
        <ele>860.7</ele>
        <time>2021-09-01T08:31:29Z</time>
      </trkpt>
      <trkpt lat="44.95604" lon="5.40175">
        <ele>860.7</ele>
        <time>2021-09-01T08:31:30Z</time>
      </trkpt>
      <trkpt lat="44.95602" lon="5.40178">
        <ele>860.8</ele>
        <time>2021-09-01T08:31:31Z</time>
      </trkpt>
      <trkpt lat="44.95599" lon="5.40181">
        <ele>860.9</ele>
        <time>2021-09-01T08:31:33Z</time>
      </trkpt>
      <trkpt lat="44.95599" lon="5.40183">
        <ele>861</ele>
        <time>2021-09-01T08:31:34Z</time>
      </trkpt>
      <trkpt lat="44.95596" lon="5.40186">
        <ele>861.1</ele>
        <time>2021-09-01T08:31:35Z</time>
      </trkpt>
      <trkpt lat="44.95595" lon="5.40188">
        <ele>861.1</ele>
        <time>2021-09-01T08:31:36Z</time>
      </trkpt>
      <trkpt lat="44.95593" lon="5.40192">
        <ele>861.2</ele>
        <time>2021-09-01T08:31:37Z</time>
      </trkpt>
      <trkpt lat="44.95592" lon="5.40194">
        <ele>861.3</ele>
        <time>2021-09-01T08:31:38Z</time>
      </trkpt>
      <trkpt lat="44.95589" lon="5.40198">
        <ele>861.4</ele>
        <time>2021-09-01T08:31:40Z</time>
      </trkpt>
      <trkpt lat="44.95588" lon="5.402">
        <ele>861.5</ele>
        <time>2021-09-01T08:31:41Z</time>
      </trkpt>
      <trkpt lat="44.95587" lon="5.40201">
        <ele>861.5</ele>
        <time>2021-09-01T08:31:42Z</time>
      </trkpt>
      <trkpt lat="44.95585" lon="5.40203">
        <ele>861.5</ele>
        <time>2021-09-01T08:31:43Z</time>
      </trkpt>
      <trkpt lat="44.95583" lon="5.40205">
        <ele>861.7</ele>
        <time>2021-09-01T08:31:45Z</time>
      </trkpt>
      <trkpt lat="44.9558" lon="5.40208">
        <ele>861.8</ele>
        <time>2021-09-01T08:31:46Z</time>
      </trkpt>
      <trkpt lat="44.95579" lon="5.4021">
        <ele>861.8</ele>
        <time>2021-09-01T08:31:47Z</time>
      </trkpt>
      <trkpt lat="44.95578" lon="5.40212">
        <ele>861.8</ele>
        <time>2021-09-01T08:31:48Z</time>
      </trkpt>
      <trkpt lat="44.95575" lon="5.40214">
        <ele>861.9</ele>
        <time>2021-09-01T08:31:50Z</time>
      </trkpt>
      <trkpt lat="44.95573" lon="5.40217">
        <ele>862</ele>
        <time>2021-09-01T08:31:51Z</time>
      </trkpt>
      <trkpt lat="44.95571" lon="5.4022">
        <ele>862.1</ele>
        <time>2021-09-01T08:31:53Z</time>
      </trkpt>
      <trkpt lat="44.9557" lon="5.40222">
        <ele>862.1</ele>
        <time>2021-09-01T08:31:54Z</time>
      </trkpt>
      <trkpt lat="44.95568" lon="5.40224">
        <ele>862.2</ele>
        <time>2021-09-01T08:31:55Z</time>
      </trkpt>
      <trkpt lat="44.95566" lon="5.40228">
        <ele>862.3</ele>
        <time>2021-09-01T08:31:57Z</time>
      </trkpt>
      <trkpt lat="44.95564" lon="5.40231">
        <ele>862.4</ele>
        <time>2021-09-01T08:31:58Z</time>
      </trkpt>
      <trkpt lat="44.95561" lon="5.40236">
        <ele>862.5</ele>
        <time>2021-09-01T08:32:00Z</time>
      </trkpt>
      <trkpt lat="44.9556" lon="5.40238">
        <ele>862.6</ele>
        <time>2021-09-01T08:32:01Z</time>
      </trkpt>
      <trkpt lat="44.95558" lon="5.40243">
        <ele>862.7</ele>
        <time>2021-09-01T08:32:03Z</time>
      </trkpt>
      <trkpt lat="44.95557" lon="5.40247">
        <ele>862.8</ele>
        <time>2021-09-01T08:32:04Z</time>
      </trkpt>
      <trkpt lat="44.95556" lon="5.40252">
        <ele>863</ele>
        <time>2021-09-01T08:32:06Z</time>
      </trkpt>
      <trkpt lat="44.95554" lon="5.40257">
        <ele>863.1</ele>
        <time>2021-09-01T08:32:07Z</time>
      </trkpt>
      <trkpt lat="44.95554" lon="5.40258">
        <ele>863.1</ele>
        <time>2021-09-01T08:32:08Z</time>
      </trkpt>
      <trkpt lat="44.95552" lon="5.40262">
        <ele>863.2</ele>
        <time>2021-09-01T08:32:10Z</time>
      </trkpt>
      <trkpt lat="44.9555" lon="5.40266">
        <ele>863.3</ele>
        <time>2021-09-01T08:32:11Z</time>
      </trkpt>
      <trkpt lat="44.95548" lon="5.4027">
        <ele>863.4</ele>
        <time>2021-09-01T08:32:12Z</time>
      </trkpt>
      <trkpt lat="44.95548" lon="5.40272">
        <ele>863.5</ele>
        <time>2021-09-01T08:32:13Z</time>
      </trkpt>
      <trkpt lat="44.95546" lon="5.40274">
        <ele>863.6</ele>
        <time>2021-09-01T08:32:14Z</time>
      </trkpt>
      <trkpt lat="44.95543" lon="5.40279">
        <ele>863.7</ele>
        <time>2021-09-01T08:32:16Z</time>
      </trkpt>
      <trkpt lat="44.9554" lon="5.40282">
        <ele>863.8</ele>
        <time>2021-09-01T08:32:17Z</time>
      </trkpt>
      <trkpt lat="44.95539" lon="5.40283">
        <ele>863.8</ele>
        <time>2021-09-01T08:32:18Z</time>
      </trkpt>
      <trkpt lat="44.95537" lon="5.40286">
        <ele>863.9</ele>
        <time>2021-09-01T08:32:19Z</time>
      </trkpt>
      <trkpt lat="44.95535" lon="5.40288">
        <ele>864</ele>
        <time>2021-09-01T08:32:20Z</time>
      </trkpt>
      <trkpt lat="44.95533" lon="5.40291">
        <ele>864</ele>
        <time>2021-09-01T08:32:22Z</time>
      </trkpt>
      <trkpt lat="44.9553" lon="5.40294">
        <ele>864.1</ele>
        <time>2021-09-01T08:32:23Z</time>
      </trkpt>
      <trkpt lat="44.95526" lon="5.40299">
        <ele>864.3</ele>
        <time>2021-09-01T08:32:25Z</time>
      </trkpt>
      <trkpt lat="44.95523" lon="5.40303">
        <ele>864.4</ele>
        <time>2021-09-01T08:32:27Z</time>
      </trkpt>
      <trkpt lat="44.95521" lon="5.40306">
        <ele>864.5</ele>
        <time>2021-09-01T08:32:28Z</time>
      </trkpt>
      <trkpt lat="44.95518" lon="5.4031">
        <ele>864.6</ele>
        <time>2021-09-01T08:32:29Z</time>
      </trkpt>
      <trkpt lat="44.95515" lon="5.40313">
        <ele>864.8</ele>
        <time>2021-09-01T08:32:31Z</time>
      </trkpt>
      <trkpt lat="44.95512" lon="5.40318">
        <ele>865</ele>
        <time>2021-09-01T08:32:33Z</time>
      </trkpt>
      <trkpt lat="44.95508" lon="5.40322">
        <ele>865.2</ele>
        <time>2021-09-01T08:32:35Z</time>
      </trkpt>
      <trkpt lat="44.95506" lon="5.40325">
        <ele>865.4</ele>
        <time>2021-09-01T08:32:36Z</time>
      </trkpt>
      <trkpt lat="44.95503" lon="5.40327">
        <ele>865.5</ele>
        <time>2021-09-01T08:32:37Z</time>
      </trkpt>
      <trkpt lat="44.955" lon="5.4033">
        <ele>865.7</ele>
        <time>2021-09-01T08:32:39Z</time>
      </trkpt>
      <trkpt lat="44.95498" lon="5.40334">
        <ele>865.9</ele>
        <time>2021-09-01T08:32:40Z</time>
      </trkpt>
      <trkpt lat="44.95497" lon="5.40335">
        <ele>865.9</ele>
        <time>2021-09-01T08:32:41Z</time>
      </trkpt>
      <trkpt lat="44.95495" lon="5.4034">
        <ele>866.1</ele>
        <time>2021-09-01T08:32:43Z</time>
      </trkpt>
      <trkpt lat="44.95494" lon="5.40344">
        <ele>866.3</ele>
        <time>2021-09-01T08:32:44Z</time>
      </trkpt>
      <trkpt lat="44.95491" lon="5.40348">
        <ele>866.5</ele>
        <time>2021-09-01T08:32:46Z</time>
      </trkpt>
      <trkpt lat="44.95489" lon="5.40351">
        <ele>866.7</ele>
        <time>2021-09-01T08:32:47Z</time>
      </trkpt>
      <trkpt lat="44.95488" lon="5.40354">
        <ele>866.8</ele>
        <time>2021-09-01T08:32:48Z</time>
      </trkpt>
      <trkpt lat="44.95486" lon="5.40357">
        <ele>867</ele>
        <time>2021-09-01T08:32:50Z</time>
      </trkpt>
      <trkpt lat="44.95484" lon="5.40361">
        <ele>867.2</ele>
        <time>2021-09-01T08:32:51Z</time>
      </trkpt>
      <trkpt lat="44.95483" lon="5.40362">
        <ele>867.3</ele>
        <time>2021-09-01T08:32:52Z</time>
      </trkpt>
      <trkpt lat="44.95481" lon="5.40365">
        <ele>867.5</ele>
        <time>2021-09-01T08:32:53Z</time>
      </trkpt>
      <trkpt lat="44.9548" lon="5.40365">
        <ele>867.5</ele>
        <time>2021-09-01T08:32:54Z</time>
      </trkpt>
      <trkpt lat="44.95479" lon="5.40367">
        <ele>867.6</ele>
        <time>2021-09-01T08:32:55Z</time>
      </trkpt>
      <trkpt lat="44.95477" lon="5.4037">
        <ele>867.8</ele>
        <time>2021-09-01T08:32:57Z</time>
      </trkpt>
      <trkpt lat="44.95477" lon="5.40373">
        <ele>867.9</ele>
        <time>2021-09-01T08:32:58Z</time>
      </trkpt>
      <trkpt lat="44.95476" lon="5.40376">
        <ele>868.1</ele>
        <time>2021-09-01T08:33:00Z</time>
      </trkpt>
      <trkpt lat="44.95476" lon="5.40378">
        <ele>868.2</ele>
        <time>2021-09-01T08:33:01Z</time>
      </trkpt>
      <trkpt lat="44.95474" lon="5.40382">
        <ele>868.4</ele>
        <time>2021-09-01T08:33:03Z</time>
      </trkpt>
      <trkpt lat="44.95474" lon="5.40384">
        <ele>868.5</ele>
        <time>2021-09-01T08:33:04Z</time>
      </trkpt>
      <trkpt lat="44.95473" lon="5.40388">
        <ele>868.7</ele>
        <time>2021-09-01T08:33:06Z</time>
      </trkpt>
      <trkpt lat="44.95473" lon="5.40392">
        <ele>868.9</ele>
        <time>2021-09-01T08:33:07Z</time>
      </trkpt>
      <trkpt lat="44.95472" lon="5.40393">
        <ele>868.9</ele>
        <time>2021-09-01T08:33:08Z</time>
      </trkpt>
      <trkpt lat="44.9547" lon="5.40396">
        <ele>869.2</ele>
        <time>2021-09-01T08:33:10Z</time>
      </trkpt>
      <trkpt lat="44.9547" lon="5.40398">
        <ele>869.3</ele>
        <time>2021-09-01T08:33:12Z</time>
      </trkpt>
      <trkpt lat="44.95471" lon="5.40398">
        <ele>869.3</ele>
        <time>2021-09-01T08:33:13Z</time>
      </trkpt>
      <trkpt lat="44.95471" lon="5.40398">
        <ele>869.3</ele>
        <time>2021-09-01T08:33:15Z</time>
      </trkpt>
      <trkpt lat="44.95471" lon="5.40398">
        <ele>869.3</ele>
        <time>2021-09-01T08:33:16Z</time>
      </trkpt>
      <trkpt lat="44.95471" lon="5.40398">
        <ele>869.3</ele>
        <time>2021-09-01T08:33:18Z</time>
      </trkpt>
      <trkpt lat="44.95471" lon="5.40398">
        <ele>869.4</ele>
        <time>2021-09-01T08:33:19Z</time>
      </trkpt>
      <trkpt lat="44.95471" lon="5.40398">
        <ele>869.4</ele>
        <time>2021-09-01T08:33:20Z</time>
      </trkpt>
      <trkpt lat="44.95473" lon="5.40419">
        <ele>871.1</ele>
        <time>2021-09-01T08:36:56Z</time>
      </trkpt>
      <trkpt lat="44.95471" lon="5.4042">
        <ele>871.1</ele>
        <time>2021-09-01T08:36:58Z</time>
      </trkpt>
      <trkpt lat="44.9547" lon="5.4042">
        <ele>871.2</ele>
        <time>2021-09-01T08:37:00Z</time>
      </trkpt>
      <trkpt lat="44.95468" lon="5.4042">
        <ele>871.2</ele>
        <time>2021-09-01T08:37:01Z</time>
      </trkpt>
      <trkpt lat="44.95467" lon="5.4042">
        <ele>871.2</ele>
        <time>2021-09-01T08:37:02Z</time>
      </trkpt>
      <trkpt lat="44.95466" lon="5.4042">
        <ele>871.2</ele>
        <time>2021-09-01T08:37:04Z</time>
      </trkpt>
      <trkpt lat="44.95466" lon="5.4042">
        <ele>871.2</ele>
        <time>2021-09-01T08:37:06Z</time>
      </trkpt>
      <trkpt lat="44.95466" lon="5.4042">
        <ele>871.2</ele>
        <time>2021-09-01T08:37:07Z</time>
      </trkpt>
      <trkpt lat="44.95466" lon="5.4042">
        <ele>871.2</ele>
        <time>2021-09-01T08:37:08Z</time>
      </trkpt>
      <trkpt lat="44.95465" lon="5.4042">
        <ele>871.2</ele>
        <time>2021-09-01T08:37:11Z</time>
      </trkpt>
      <trkpt lat="44.95465" lon="5.4042">
        <ele>871.2</ele>
        <time>2021-09-01T08:37:12Z</time>
      </trkpt>
      <trkpt lat="44.95465" lon="5.4042">
        <ele>871.2</ele>
        <time>2021-09-01T08:37:13Z</time>
      </trkpt>
      <trkpt lat="44.95465" lon="5.4042">
        <ele>871.2</ele>
        <time>2021-09-01T08:37:15Z</time>
      </trkpt>
      <trkpt lat="44.95454" lon="5.40414">
        <ele>871.5</ele>
        <time>2021-09-01T08:37:23Z</time>
      </trkpt>
      <trkpt lat="44.95451" lon="5.40412">
        <ele>871.6</ele>
        <time>2021-09-01T08:37:24Z</time>
      </trkpt>
      <trkpt lat="44.95448" lon="5.4041">
        <ele>871.7</ele>
        <time>2021-09-01T08:37:25Z</time>
      </trkpt>
      <trkpt lat="44.95442" lon="5.40407">
        <ele>871.8</ele>
        <time>2021-09-01T08:37:26Z</time>
      </trkpt>
      <trkpt lat="44.95439" lon="5.40406">
        <ele>872</ele>
        <time>2021-09-01T08:37:27Z</time>
      </trkpt>
      <trkpt lat="44.95436" lon="5.40404">
        <ele>872.1</ele>
        <time>2021-09-01T08:37:28Z</time>
      </trkpt>
      <trkpt lat="44.95431" lon="5.404">
        <ele>872.3</ele>
        <time>2021-09-01T08:37:29Z</time>
      </trkpt>
      <trkpt lat="44.95427" lon="5.40398">
        <ele>872.5</ele>
        <time>2021-09-01T08:37:31Z</time>
      </trkpt>
      <trkpt lat="44.95423" lon="5.40394">
        <ele>872.7</ele>
        <time>2021-09-01T08:37:32Z</time>
      </trkpt>
      <trkpt lat="44.9542" lon="5.4039">
        <ele>873</ele>
        <time>2021-09-01T08:37:34Z</time>
      </trkpt>
      <trkpt lat="44.95418" lon="5.40387">
        <ele>873.1</ele>
        <time>2021-09-01T08:37:35Z</time>
      </trkpt>
      <trkpt lat="44.95415" lon="5.40385">
        <ele>873.3</ele>
        <time>2021-09-01T08:37:36Z</time>
      </trkpt>
      <trkpt lat="44.95413" lon="5.40382">
        <ele>873.5</ele>
        <time>2021-09-01T08:37:37Z</time>
      </trkpt>
      <trkpt lat="44.9541" lon="5.40378">
        <ele>873.7</ele>
        <time>2021-09-01T08:37:38Z</time>
      </trkpt>
      <trkpt lat="44.95407" lon="5.40375">
        <ele>873.8</ele>
        <time>2021-09-01T08:37:39Z</time>
      </trkpt>
      <trkpt lat="44.95405" lon="5.40371">
        <ele>874</ele>
        <time>2021-09-01T08:37:41Z</time>
      </trkpt>
      <trkpt lat="44.95402" lon="5.40367">
        <ele>874.3</ele>
        <time>2021-09-01T08:37:42Z</time>
      </trkpt>
      <trkpt lat="44.954" lon="5.40364">
        <ele>874.5</ele>
        <time>2021-09-01T08:37:43Z</time>
      </trkpt>
      <trkpt lat="44.95397" lon="5.40359">
        <ele>874.7</ele>
        <time>2021-09-01T08:37:45Z</time>
      </trkpt>
      <trkpt lat="44.95394" lon="5.40354">
        <ele>874.9</ele>
        <time>2021-09-01T08:37:46Z</time>
      </trkpt>
      <trkpt lat="44.95391" lon="5.4035">
        <ele>875.2</ele>
        <time>2021-09-01T08:37:48Z</time>
      </trkpt>
      <trkpt lat="44.95389" lon="5.40347">
        <ele>875.4</ele>
        <time>2021-09-01T08:37:49Z</time>
      </trkpt>
      <trkpt lat="44.95386" lon="5.40344">
        <ele>875.6</ele>
        <time>2021-09-01T08:37:50Z</time>
      </trkpt>
      <trkpt lat="44.95384" lon="5.4034">
        <ele>875.8</ele>
        <time>2021-09-01T08:37:51Z</time>
      </trkpt>
      <trkpt lat="44.95379" lon="5.40335">
        <ele>876.1</ele>
        <time>2021-09-01T08:37:53Z</time>
      </trkpt>
      <trkpt lat="44.95376" lon="5.40331">
        <ele>876.3</ele>
        <time>2021-09-01T08:37:54Z</time>
      </trkpt>
      <trkpt lat="44.95373" lon="5.40326">
        <ele>876.5</ele>
        <time>2021-09-01T08:37:56Z</time>
      </trkpt>
      <trkpt lat="44.95371" lon="5.40324">
        <ele>876.7</ele>
        <time>2021-09-01T08:37:57Z</time>
      </trkpt>
      <trkpt lat="44.95368" lon="5.40319">
        <ele>876.9</ele>
        <time>2021-09-01T08:37:59Z</time>
      </trkpt>
      <trkpt lat="44.95367" lon="5.40315">
        <ele>877</ele>
        <time>2021-09-01T08:38:00Z</time>
      </trkpt>
      <trkpt lat="44.95365" lon="5.40311">
        <ele>877.2</ele>
        <time>2021-09-01T08:38:01Z</time>
      </trkpt>
      <trkpt lat="44.95361" lon="5.40306">
        <ele>877.4</ele>
        <time>2021-09-01T08:38:03Z</time>
      </trkpt>
      <trkpt lat="44.95358" lon="5.40302">
        <ele>877.5</ele>
        <time>2021-09-01T08:38:04Z</time>
      </trkpt>
      <trkpt lat="44.95355" lon="5.40296">
        <ele>877.7</ele>
        <time>2021-09-01T08:38:06Z</time>
      </trkpt>
      <trkpt lat="44.95353" lon="5.40293">
        <ele>877.8</ele>
        <time>2021-09-01T08:38:07Z</time>
      </trkpt>
      <trkpt lat="44.95349" lon="5.40288">
        <ele>878</ele>
        <time>2021-09-01T08:38:09Z</time>
      </trkpt>
      <trkpt lat="44.95346" lon="5.40285">
        <ele>878.2</ele>
        <time>2021-09-01T08:38:10Z</time>
      </trkpt>
      <trkpt lat="44.95344" lon="5.40282">
        <ele>878.3</ele>
        <time>2021-09-01T08:38:11Z</time>
      </trkpt>
      <trkpt lat="44.95341" lon="5.4028">
        <ele>878.4</ele>
        <time>2021-09-01T08:38:12Z</time>
      </trkpt>
      <trkpt lat="44.95337" lon="5.40277">
        <ele>878.5</ele>
        <time>2021-09-01T08:38:14Z</time>
      </trkpt>
      <trkpt lat="44.95334" lon="5.40274">
        <ele>878.7</ele>
        <time>2021-09-01T08:38:15Z</time>
      </trkpt>
      <trkpt lat="44.95331" lon="5.40272">
        <ele>878.8</ele>
        <time>2021-09-01T08:38:16Z</time>
      </trkpt>
      <trkpt lat="44.95328" lon="5.40269">
        <ele>878.9</ele>
        <time>2021-09-01T08:38:17Z</time>
      </trkpt>
      <trkpt lat="44.95326" lon="5.40267">
        <ele>879</ele>
        <time>2021-09-01T08:38:18Z</time>
      </trkpt>
      <trkpt lat="44.95323" lon="5.40266">
        <ele>879.1</ele>
        <time>2021-09-01T08:38:19Z</time>
      </trkpt>
      <trkpt lat="44.95321" lon="5.40264">
        <ele>879.2</ele>
        <time>2021-09-01T08:38:20Z</time>
      </trkpt>
      <trkpt lat="44.95316" lon="5.40261">
        <ele>879.4</ele>
        <time>2021-09-01T08:38:22Z</time>
      </trkpt>
      <trkpt lat="44.95314" lon="5.40259">
        <ele>879.5</ele>
        <time>2021-09-01T08:38:23Z</time>
      </trkpt>
      <trkpt lat="44.95311" lon="5.40257">
        <ele>879.6</ele>
        <time>2021-09-01T08:38:25Z</time>
      </trkpt>
      <trkpt lat="44.95308" lon="5.40254">
        <ele>879.7</ele>
        <time>2021-09-01T08:38:26Z</time>
      </trkpt>
      <trkpt lat="44.95307" lon="5.40253">
        <ele>879.7</ele>
        <time>2021-09-01T08:38:27Z</time>
      </trkpt>
      <trkpt lat="44.95305" lon="5.40251">
        <ele>879.8</ele>
        <time>2021-09-01T08:38:28Z</time>
      </trkpt>
      <trkpt lat="44.95301" lon="5.40246">
        <ele>880</ele>
        <time>2021-09-01T08:38:30Z</time>
      </trkpt>
      <trkpt lat="44.95299" lon="5.40243">
        <ele>880.1</ele>
        <time>2021-09-01T08:38:31Z</time>
      </trkpt>
      <trkpt lat="44.95297" lon="5.40238">
        <ele>880.2</ele>
        <time>2021-09-01T08:38:33Z</time>
      </trkpt>
      <trkpt lat="44.95295" lon="5.40235">
        <ele>880.3</ele>
        <time>2021-09-01T08:38:34Z</time>
      </trkpt>
      <trkpt lat="44.95291" lon="5.40228">
        <ele>880.5</ele>
        <time>2021-09-01T08:38:36Z</time>
      </trkpt>
      <trkpt lat="44.95287" lon="5.40222">
        <ele>880.7</ele>
        <time>2021-09-01T08:38:38Z</time>
      </trkpt>
      <trkpt lat="44.95285" lon="5.40218">
        <ele>880.8</ele>
        <time>2021-09-01T08:38:39Z</time>
      </trkpt>
      <trkpt lat="44.95282" lon="5.40215">
        <ele>880.9</ele>
        <time>2021-09-01T08:38:40Z</time>
      </trkpt>
      <trkpt lat="44.95279" lon="5.4021">
        <ele>881.1</ele>
        <time>2021-09-01T08:38:42Z</time>
      </trkpt>
      <trkpt lat="44.95277" lon="5.40206">
        <ele>881.2</ele>
        <time>2021-09-01T08:38:43Z</time>
      </trkpt>
      <trkpt lat="44.95275" lon="5.40203">
        <ele>881.3</ele>
        <time>2021-09-01T08:38:44Z</time>
      </trkpt>
      <trkpt lat="44.95273" lon="5.40199">
        <ele>881.4</ele>
        <time>2021-09-01T08:38:45Z</time>
      </trkpt>
      <trkpt lat="44.95271" lon="5.40195">
        <ele>881.5</ele>
        <time>2021-09-01T08:38:46Z</time>
      </trkpt>
      <trkpt lat="44.95269" lon="5.40192">
        <ele>881.6</ele>
        <time>2021-09-01T08:38:47Z</time>
      </trkpt>
      <trkpt lat="44.95266" lon="5.40185">
        <ele>881.7</ele>
        <time>2021-09-01T08:38:49Z</time>
      </trkpt>
      <trkpt lat="44.95263" lon="5.4018">
        <ele>881.9</ele>
        <time>2021-09-01T08:38:50Z</time>
      </trkpt>
      <trkpt lat="44.95262" lon="5.40174">
        <ele>882</ele>
        <time>2021-09-01T08:38:52Z</time>
      </trkpt>
      <trkpt lat="44.95258" lon="5.40166">
        <ele>882.1</ele>
        <time>2021-09-01T08:38:54Z</time>
      </trkpt>
      <trkpt lat="44.95255" lon="5.40163">
        <ele>882.2</ele>
        <time>2021-09-01T08:38:55Z</time>
      </trkpt>
      <trkpt lat="44.95253" lon="5.40159">
        <ele>882.3</ele>
        <time>2021-09-01T08:38:56Z</time>
      </trkpt>
      <trkpt lat="44.95251" lon="5.40155">
        <ele>882.4</ele>
        <time>2021-09-01T08:38:57Z</time>
      </trkpt>
      <trkpt lat="44.95246" lon="5.40149">
        <ele>882.5</ele>
        <time>2021-09-01T08:38:59Z</time>
      </trkpt>
      <trkpt lat="44.95243" lon="5.40147">
        <ele>882.6</ele>
        <time>2021-09-01T08:39:00Z</time>
      </trkpt>
      <trkpt lat="44.95241" lon="5.40145">
        <ele>882.7</ele>
        <time>2021-09-01T08:39:01Z</time>
      </trkpt>
      <trkpt lat="44.95238" lon="5.40144">
        <ele>882.8</ele>
        <time>2021-09-01T08:39:02Z</time>
      </trkpt>
      <trkpt lat="44.95233" lon="5.40143">
        <ele>882.9</ele>
        <time>2021-09-01T08:39:04Z</time>
      </trkpt>
      <trkpt lat="44.9523" lon="5.40143">
        <ele>883</ele>
        <time>2021-09-01T08:39:05Z</time>
      </trkpt>
      <trkpt lat="44.95227" lon="5.40143">
        <ele>883.1</ele>
        <time>2021-09-01T08:39:06Z</time>
      </trkpt>
      <trkpt lat="44.95222" lon="5.40141">
        <ele>883.2</ele>
        <time>2021-09-01T08:39:08Z</time>
      </trkpt>
      <trkpt lat="44.95219" lon="5.40141">
        <ele>883.3</ele>
        <time>2021-09-01T08:39:09Z</time>
      </trkpt>
      <trkpt lat="44.95214" lon="5.40141">
        <ele>883.5</ele>
        <time>2021-09-01T08:39:11Z</time>
      </trkpt>
      <trkpt lat="44.95211" lon="5.40141">
        <ele>883.6</ele>
        <time>2021-09-01T08:39:12Z</time>
      </trkpt>
      <trkpt lat="44.95208" lon="5.4014">
        <ele>883.7</ele>
        <time>2021-09-01T08:39:13Z</time>
      </trkpt>
      <trkpt lat="44.95203" lon="5.40139">
        <ele>883.8</ele>
        <time>2021-09-01T08:39:15Z</time>
      </trkpt>
      <trkpt lat="44.95201" lon="5.40139">
        <ele>883.9</ele>
        <time>2021-09-01T08:39:16Z</time>
      </trkpt>
      <trkpt lat="44.95199" lon="5.40139">
        <ele>883.9</ele>
        <time>2021-09-01T08:39:17Z</time>
      </trkpt>
      <trkpt lat="44.95196" lon="5.40138">
        <ele>884.1</ele>
        <time>2021-09-01T08:39:19Z</time>
      </trkpt>
      <trkpt lat="44.95195" lon="5.40138">
        <ele>884.1</ele>
        <time>2021-09-01T08:39:20Z</time>
      </trkpt>
      <trkpt lat="44.95191" lon="5.40136">
        <ele>884.2</ele>
        <time>2021-09-01T08:39:22Z</time>
      </trkpt>
      <trkpt lat="44.95188" lon="5.40135">
        <ele>884.3</ele>
        <time>2021-09-01T08:39:23Z</time>
      </trkpt>
      <trkpt lat="44.95183" lon="5.40132">
        <ele>884.5</ele>
        <time>2021-09-01T08:39:25Z</time>
      </trkpt>
      <trkpt lat="44.95179" lon="5.40128">
        <ele>884.7</ele>
        <time>2021-09-01T08:39:26Z</time>
      </trkpt>
      <trkpt lat="44.95176" lon="5.40124">
        <ele>884.8</ele>
        <time>2021-09-01T08:39:27Z</time>
      </trkpt>
      <trkpt lat="44.95173" lon="5.4012">
        <ele>885</ele>
        <time>2021-09-01T08:39:28Z</time>
      </trkpt>
      <trkpt lat="44.9517" lon="5.40116">
        <ele>885.2</ele>
        <time>2021-09-01T08:39:30Z</time>
      </trkpt>
      <trkpt lat="44.95168" lon="5.40112">
        <ele>885.3</ele>
        <time>2021-09-01T08:39:31Z</time>
      </trkpt>
      <trkpt lat="44.95165" lon="5.40106">
        <ele>885.5</ele>
        <time>2021-09-01T08:39:33Z</time>
      </trkpt>
      <trkpt lat="44.95163" lon="5.40102">
        <ele>885.6</ele>
        <time>2021-09-01T08:39:34Z</time>
      </trkpt>
      <trkpt lat="44.95161" lon="5.40098">
        <ele>885.7</ele>
        <time>2021-09-01T08:39:35Z</time>
      </trkpt>
      <trkpt lat="44.95159" lon="5.40095">
        <ele>885.9</ele>
        <time>2021-09-01T08:39:36Z</time>
      </trkpt>
      <trkpt lat="44.95157" lon="5.40092">
        <ele>886</ele>
        <time>2021-09-01T08:39:37Z</time>
      </trkpt>
      <trkpt lat="44.95154" lon="5.40087">
        <ele>886.1</ele>
        <time>2021-09-01T08:39:39Z</time>
      </trkpt>
      <trkpt lat="44.95151" lon="5.40083">
        <ele>886.3</ele>
        <time>2021-09-01T08:39:40Z</time>
      </trkpt>
      <trkpt lat="44.95149" lon="5.4008">
        <ele>886.4</ele>
        <time>2021-09-01T08:39:41Z</time>
      </trkpt>
      <trkpt lat="44.95147" lon="5.40074">
        <ele>886.6</ele>
        <time>2021-09-01T08:39:43Z</time>
      </trkpt>
      <trkpt lat="44.95144" lon="5.4007">
        <ele>886.7</ele>
        <time>2021-09-01T08:39:44Z</time>
      </trkpt>
      <trkpt lat="44.95142" lon="5.40067">
        <ele>886.8</ele>
        <time>2021-09-01T08:39:45Z</time>
      </trkpt>
      <trkpt lat="44.95139" lon="5.40062">
        <ele>887</ele>
        <time>2021-09-01T08:39:47Z</time>
      </trkpt>
      <trkpt lat="44.95136" lon="5.40059">
        <ele>887.2</ele>
        <time>2021-09-01T08:39:48Z</time>
      </trkpt>
      <trkpt lat="44.95133" lon="5.40056">
        <ele>887.3</ele>
        <time>2021-09-01T08:39:49Z</time>
      </trkpt>
      <trkpt lat="44.9513" lon="5.40054">
        <ele>887.4</ele>
        <time>2021-09-01T08:39:50Z</time>
      </trkpt>
      <trkpt lat="44.95127" lon="5.40051">
        <ele>887.6</ele>
        <time>2021-09-01T08:39:51Z</time>
      </trkpt>
      <trkpt lat="44.95123" lon="5.40047">
        <ele>887.8</ele>
        <time>2021-09-01T08:39:53Z</time>
      </trkpt>
      <trkpt lat="44.95121" lon="5.40043">
        <ele>887.9</ele>
        <time>2021-09-01T08:39:54Z</time>
      </trkpt>
      <trkpt lat="44.9512" lon="5.40041">
        <ele>888</ele>
        <time>2021-09-01T08:39:55Z</time>
      </trkpt>
      <trkpt lat="44.95117" lon="5.40037">
        <ele>888.2</ele>
        <time>2021-09-01T08:39:57Z</time>
      </trkpt>
      <trkpt lat="44.95115" lon="5.40033">
        <ele>888.3</ele>
        <time>2021-09-01T08:39:58Z</time>
      </trkpt>
      <trkpt lat="44.95114" lon="5.40032">
        <ele>888.4</ele>
        <time>2021-09-01T08:39:59Z</time>
      </trkpt>
      <trkpt lat="44.95111" lon="5.40027">
        <ele>888.6</ele>
        <time>2021-09-01T08:40:01Z</time>
      </trkpt>
      <trkpt lat="44.95109" lon="5.40026">
        <ele>888.6</ele>
        <time>2021-09-01T08:40:02Z</time>
      </trkpt>
      <trkpt lat="44.95108" lon="5.40024">
        <ele>888.7</ele>
        <time>2021-09-01T08:40:03Z</time>
      </trkpt>
      <trkpt lat="44.95105" lon="5.40022">
        <ele>888.9</ele>
        <time>2021-09-01T08:40:05Z</time>
      </trkpt>
      <trkpt lat="44.95101" lon="5.40021">
        <ele>889</ele>
        <time>2021-09-01T08:40:06Z</time>
      </trkpt>
      <trkpt lat="44.95099" lon="5.4002">
        <ele>889.2</ele>
        <time>2021-09-01T08:40:07Z</time>
      </trkpt>
      <trkpt lat="44.95094" lon="5.40017">
        <ele>889.4</ele>
        <time>2021-09-01T08:40:09Z</time>
      </trkpt>
      <trkpt lat="44.95091" lon="5.40016">
        <ele>889.6</ele>
        <time>2021-09-01T08:40:10Z</time>
      </trkpt>
      <trkpt lat="44.95089" lon="5.40014">
        <ele>889.7</ele>
        <time>2021-09-01T08:40:12Z</time>
      </trkpt>
      <trkpt lat="44.95086" lon="5.40012">
        <ele>889.9</ele>
        <time>2021-09-01T08:40:14Z</time>
      </trkpt>
      <trkpt lat="44.95082" lon="5.40011">
        <ele>890</ele>
        <time>2021-09-01T08:40:15Z</time>
      </trkpt>
      <trkpt lat="44.95081" lon="5.40011">
        <ele>890.1</ele>
        <time>2021-09-01T08:40:16Z</time>
      </trkpt>
      <trkpt lat="44.95077" lon="5.40011">
        <ele>890.4</ele>
        <time>2021-09-01T08:40:17Z</time>
      </trkpt>
      <trkpt lat="44.95075" lon="5.40011">
        <ele>890.5</ele>
        <time>2021-09-01T08:40:18Z</time>
      </trkpt>
      <trkpt lat="44.9507" lon="5.40011">
        <ele>890.7</ele>
        <time>2021-09-01T08:40:20Z</time>
      </trkpt>
      <trkpt lat="44.95066" lon="5.40011">
        <ele>891</ele>
        <time>2021-09-01T08:40:21Z</time>
      </trkpt>
      <trkpt lat="44.95063" lon="5.4001">
        <ele>891.2</ele>
        <time>2021-09-01T08:40:23Z</time>
      </trkpt>
      <trkpt lat="44.9506" lon="5.4001">
        <ele>891.4</ele>
        <time>2021-09-01T08:40:24Z</time>
      </trkpt>
      <trkpt lat="44.95057" lon="5.40009">
        <ele>891.6</ele>
        <time>2021-09-01T08:40:25Z</time>
      </trkpt>
      <trkpt lat="44.95054" lon="5.40008">
        <ele>891.8</ele>
        <time>2021-09-01T08:40:27Z</time>
      </trkpt>
      <trkpt lat="44.95051" lon="5.40006">
        <ele>892</ele>
        <time>2021-09-01T08:40:29Z</time>
      </trkpt>
      <trkpt lat="44.95048" lon="5.40004">
        <ele>892.2</ele>
        <time>2021-09-01T08:40:30Z</time>
      </trkpt>
      <trkpt lat="44.95045" lon="5.4">
        <ele>892.5</ele>
        <time>2021-09-01T08:40:32Z</time>
      </trkpt>
      <trkpt lat="44.95044" lon="5.39997">
        <ele>892.7</ele>
        <time>2021-09-01T08:40:33Z</time>
      </trkpt>
      <trkpt lat="44.95042" lon="5.39993">
        <ele>892.9</ele>
        <time>2021-09-01T08:40:34Z</time>
      </trkpt>
      <trkpt lat="44.9504" lon="5.39989">
        <ele>893.1</ele>
        <time>2021-09-01T08:40:36Z</time>
      </trkpt>
      <trkpt lat="44.95038" lon="5.39984">
        <ele>893.4</ele>
        <time>2021-09-01T08:40:37Z</time>
      </trkpt>
      <trkpt lat="44.95037" lon="5.39982">
        <ele>893.5</ele>
        <time>2021-09-01T08:40:38Z</time>
      </trkpt>
      <trkpt lat="44.95036" lon="5.39979">
        <ele>893.6</ele>
        <time>2021-09-01T08:40:40Z</time>
      </trkpt>
      <trkpt lat="44.95034" lon="5.39975">
        <ele>893.9</ele>
        <time>2021-09-01T08:40:42Z</time>
      </trkpt>
      <trkpt lat="44.95031" lon="5.39971">
        <ele>894.2</ele>
        <time>2021-09-01T08:40:44Z</time>
      </trkpt>
      <trkpt lat="44.95029" lon="5.39969">
        <ele>894.4</ele>
        <time>2021-09-01T08:40:45Z</time>
      </trkpt>
      <trkpt lat="44.95026" lon="5.39966">
        <ele>894.7</ele>
        <time>2021-09-01T08:40:47Z</time>
      </trkpt>
      <trkpt lat="44.95023" lon="5.39963">
        <ele>894.9</ele>
        <time>2021-09-01T08:40:48Z</time>
      </trkpt>
      <trkpt lat="44.95022" lon="5.39962">
        <ele>895</ele>
        <time>2021-09-01T08:40:49Z</time>
      </trkpt>
      <trkpt lat="44.9502" lon="5.39959">
        <ele>895.3</ele>
        <time>2021-09-01T08:40:50Z</time>
      </trkpt>
      <trkpt lat="44.95015" lon="5.39954">
        <ele>895.7</ele>
        <time>2021-09-01T08:40:52Z</time>
      </trkpt>
      <trkpt lat="44.95014" lon="5.39953">
        <ele>895.8</ele>
        <time>2021-09-01T08:40:53Z</time>
      </trkpt>
      <trkpt lat="44.95012" lon="5.39951">
        <ele>896</ele>
        <time>2021-09-01T08:40:54Z</time>
      </trkpt>
      <trkpt lat="44.95009" lon="5.39947">
        <ele>896.3</ele>
        <time>2021-09-01T08:40:56Z</time>
      </trkpt>
      <trkpt lat="44.95007" lon="5.39943">
        <ele>896.6</ele>
        <time>2021-09-01T08:40:57Z</time>
      </trkpt>
      <trkpt lat="44.95006" lon="5.39941">
        <ele>896.7</ele>
        <time>2021-09-01T08:40:58Z</time>
      </trkpt>
      <trkpt lat="44.95004" lon="5.39936">
        <ele>897</ele>
        <time>2021-09-01T08:41:00Z</time>
      </trkpt>
      <trkpt lat="44.95003" lon="5.39933">
        <ele>897.1</ele>
        <time>2021-09-01T08:41:01Z</time>
      </trkpt>
      <trkpt lat="44.95001" lon="5.39927">
        <ele>897.4</ele>
        <time>2021-09-01T08:41:03Z</time>
      </trkpt>
      <trkpt lat="44.95001" lon="5.39921">
        <ele>897.7</ele>
        <time>2021-09-01T08:41:04Z</time>
      </trkpt>
      <trkpt lat="44.95" lon="5.39916">
        <ele>898</ele>
        <time>2021-09-01T08:41:06Z</time>
      </trkpt>
      <trkpt lat="44.95001" lon="5.39912">
        <ele>898.2</ele>
        <time>2021-09-01T08:41:07Z</time>
      </trkpt>
      <trkpt lat="44.95003" lon="5.39906">
        <ele>898.5</ele>
        <time>2021-09-01T08:41:09Z</time>
      </trkpt>
      <trkpt lat="44.95005" lon="5.39902">
        <ele>898.7</ele>
        <time>2021-09-01T08:41:10Z</time>
      </trkpt>
      <trkpt lat="44.95007" lon="5.39899">
        <ele>898.9</ele>
        <time>2021-09-01T08:41:12Z</time>
      </trkpt>
      <trkpt lat="44.95009" lon="5.39895">
        <ele>899.1</ele>
        <time>2021-09-01T08:41:13Z</time>
      </trkpt>
      <trkpt lat="44.95011" lon="5.39893">
        <ele>899.2</ele>
        <time>2021-09-01T08:41:14Z</time>
      </trkpt>
      <trkpt lat="44.95013" lon="5.3989">
        <ele>899.4</ele>
        <time>2021-09-01T08:41:16Z</time>
      </trkpt>
      <trkpt lat="44.95015" lon="5.39888">
        <ele>899.6</ele>
        <time>2021-09-01T08:41:17Z</time>
      </trkpt>
      <trkpt lat="44.95018" lon="5.39884">
        <ele>899.8</ele>
        <time>2021-09-01T08:41:19Z</time>
      </trkpt>
      <trkpt lat="44.95019" lon="5.39882">
        <ele>899.9</ele>
        <time>2021-09-01T08:41:20Z</time>
      </trkpt>
      <trkpt lat="44.9502" lon="5.39879">
        <ele>900.1</ele>
        <time>2021-09-01T08:41:22Z</time>
      </trkpt>
      <trkpt lat="44.95022" lon="5.39876">
        <ele>900.3</ele>
        <time>2021-09-01T08:41:23Z</time>
      </trkpt>
      <trkpt lat="44.95025" lon="5.39872">
        <ele>900.6</ele>
        <time>2021-09-01T08:41:25Z</time>
      </trkpt>
      <trkpt lat="44.95029" lon="5.39868">
        <ele>901</ele>
        <time>2021-09-01T08:41:27Z</time>
      </trkpt>
      <trkpt lat="44.95031" lon="5.39866">
        <ele>901.2</ele>
        <time>2021-09-01T08:41:28Z</time>
      </trkpt>
      <trkpt lat="44.95034" lon="5.39862">
        <ele>901.5</ele>
        <time>2021-09-01T08:41:30Z</time>
      </trkpt>
      <trkpt lat="44.95035" lon="5.39861">
        <ele>901.6</ele>
        <time>2021-09-01T08:41:31Z</time>
      </trkpt>
      <trkpt lat="44.95037" lon="5.3986">
        <ele>901.8</ele>
        <time>2021-09-01T08:41:32Z</time>
      </trkpt>
      <trkpt lat="44.95039" lon="5.39857">
        <ele>902.1</ele>
        <time>2021-09-01T08:41:34Z</time>
      </trkpt>
      <trkpt lat="44.95041" lon="5.39856">
        <ele>902.2</ele>
        <time>2021-09-01T08:41:35Z</time>
      </trkpt>
      <trkpt lat="44.95043" lon="5.39852">
        <ele>902.5</ele>
        <time>2021-09-01T08:41:37Z</time>
      </trkpt>
      <trkpt lat="44.95044" lon="5.3985">
        <ele>902.7</ele>
        <time>2021-09-01T08:41:38Z</time>
      </trkpt>
      <trkpt lat="44.95046" lon="5.39845">
        <ele>903</ele>
        <time>2021-09-01T08:41:40Z</time>
      </trkpt>
      <trkpt lat="44.95048" lon="5.39842">
        <ele>903.3</ele>
        <time>2021-09-01T08:41:42Z</time>
      </trkpt>
      <trkpt lat="44.95049" lon="5.3984">
        <ele>903.4</ele>
        <time>2021-09-01T08:41:43Z</time>
      </trkpt>
      <trkpt lat="44.9505" lon="5.39836">
        <ele>903.7</ele>
        <time>2021-09-01T08:41:45Z</time>
      </trkpt>
      <trkpt lat="44.95051" lon="5.39832">
        <ele>903.9</ele>
        <time>2021-09-01T08:41:47Z</time>
      </trkpt>
      <trkpt lat="44.95052" lon="5.39829">
        <ele>904.1</ele>
        <time>2021-09-01T08:41:48Z</time>
      </trkpt>
      <trkpt lat="44.95053" lon="5.39827">
        <ele>904.3</ele>
        <time>2021-09-01T08:41:50Z</time>
      </trkpt>
      <trkpt lat="44.95053" lon="5.39824">
        <ele>904.4</ele>
        <time>2021-09-01T08:41:51Z</time>
      </trkpt>
      <trkpt lat="44.95054" lon="5.39823">
        <ele>904.5</ele>
        <time>2021-09-01T08:41:52Z</time>
      </trkpt>
      <trkpt lat="44.95054" lon="5.39821">
        <ele>904.6</ele>
        <time>2021-09-01T08:41:53Z</time>
      </trkpt>
      <trkpt lat="44.95055" lon="5.39817">
        <ele>904.9</ele>
        <time>2021-09-01T08:41:55Z</time>
      </trkpt>
      <trkpt lat="44.95055" lon="5.39814">
        <ele>905.2</ele>
        <time>2021-09-01T08:41:56Z</time>
      </trkpt>
      <trkpt lat="44.95056" lon="5.39811">
        <ele>905.2</ele>
        <time>2021-09-01T08:41:58Z</time>
      </trkpt>
      <trkpt lat="44.95056" lon="5.39809">
        <ele>905.3</ele>
        <time>2021-09-01T08:41:59Z</time>
      </trkpt>
      <trkpt lat="44.95057" lon="5.39807">
        <ele>905.4</ele>
        <time>2021-09-01T08:42:00Z</time>
      </trkpt>
      <trkpt lat="44.95057" lon="5.39804">
        <ele>905.5</ele>
        <time>2021-09-01T08:42:02Z</time>
      </trkpt>
      <trkpt lat="44.95057" lon="5.398">
        <ele>905.6</ele>
        <time>2021-09-01T08:42:04Z</time>
      </trkpt>
      <trkpt lat="44.95056" lon="5.39798">
        <ele>905.7</ele>
        <time>2021-09-01T08:42:05Z</time>
      </trkpt>
      <trkpt lat="44.95054" lon="5.39797">
        <ele>905.8</ele>
        <time>2021-09-01T08:42:06Z</time>
      </trkpt>
      <trkpt lat="44.95052" lon="5.39796">
        <ele>905.9</ele>
        <time>2021-09-01T08:42:08Z</time>
      </trkpt>
      <trkpt lat="44.95048" lon="5.39795">
        <ele>906</ele>
        <time>2021-09-01T08:42:10Z</time>
      </trkpt>
      <trkpt lat="44.95043" lon="5.39794">
        <ele>906.2</ele>
        <time>2021-09-01T08:42:12Z</time>
      </trkpt>
      <trkpt lat="44.9504" lon="5.39794">
        <ele>906.3</ele>
        <time>2021-09-01T08:42:13Z</time>
      </trkpt>
      <trkpt lat="44.95036" lon="5.39793">
        <ele>906.5</ele>
        <time>2021-09-01T08:42:15Z</time>
      </trkpt>
      <trkpt lat="44.95035" lon="5.39793">
        <ele>906.5</ele>
        <time>2021-09-01T08:42:16Z</time>
      </trkpt>
      <trkpt lat="44.95032" lon="5.39793">
        <ele>906.6</ele>
        <time>2021-09-01T08:42:17Z</time>
      </trkpt>
      <trkpt lat="44.95028" lon="5.39792">
        <ele>906.7</ele>
        <time>2021-09-01T08:42:19Z</time>
      </trkpt>
      <trkpt lat="44.95026" lon="5.39793">
        <ele>906.8</ele>
        <time>2021-09-01T08:42:20Z</time>
      </trkpt>
      <trkpt lat="44.95025" lon="5.39793">
        <ele>906.9</ele>
        <time>2021-09-01T08:42:21Z</time>
      </trkpt>
      <trkpt lat="44.95021" lon="5.39792">
        <ele>907.2</ele>
        <time>2021-09-01T08:42:23Z</time>
      </trkpt>
      <trkpt lat="44.95018" lon="5.39793">
        <ele>907.4</ele>
        <time>2021-09-01T08:42:24Z</time>
      </trkpt>
      <trkpt lat="44.95015" lon="5.39794">
        <ele>907.6</ele>
        <time>2021-09-01T08:42:26Z</time>
      </trkpt>
      <trkpt lat="44.95012" lon="5.39795">
        <ele>907.8</ele>
        <time>2021-09-01T08:42:27Z</time>
      </trkpt>
      <trkpt lat="44.95011" lon="5.39797">
        <ele>907.9</ele>
        <time>2021-09-01T08:42:28Z</time>
      </trkpt>
      <trkpt lat="44.95008" lon="5.39799">
        <ele>908.2</ele>
        <time>2021-09-01T08:42:30Z</time>
      </trkpt>
      <trkpt lat="44.95007" lon="5.398">
        <ele>908.3</ele>
        <time>2021-09-01T08:42:31Z</time>
      </trkpt>
      <trkpt lat="44.95005" lon="5.398">
        <ele>908.4</ele>
        <time>2021-09-01T08:42:32Z</time>
      </trkpt>
      <trkpt lat="44.95006" lon="5.39801">
        <ele>908.4</ele>
        <time>2021-09-01T08:42:34Z</time>
      </trkpt>
      <trkpt lat="44.95006" lon="5.39802">
        <ele>908.4</ele>
        <time>2021-09-01T08:42:35Z</time>
      </trkpt>
      <trkpt lat="44.95006" lon="5.39802">
        <ele>908.4</ele>
        <time>2021-09-01T08:42:37Z</time>
      </trkpt>
      <trkpt lat="44.95005" lon="5.39802">
        <ele>908.5</ele>
        <time>2021-09-01T08:42:38Z</time>
      </trkpt>
      <trkpt lat="44.95005" lon="5.39802">
        <ele>908.5</ele>
        <time>2021-09-01T08:42:40Z</time>
      </trkpt>
      <trkpt lat="44.95005" lon="5.39803">
        <ele>908.5</ele>
        <time>2021-09-01T08:42:41Z</time>
      </trkpt>
      <trkpt lat="44.95005" lon="5.39803">
        <ele>908.5</ele>
        <time>2021-09-01T08:42:43Z</time>
      </trkpt>
      <trkpt lat="44.94991" lon="5.39812">
        <ele>910.2</ele>
        <time>2021-09-01T08:43:15Z</time>
      </trkpt>
      <trkpt lat="44.94992" lon="5.3981">
        <ele>910.4</ele>
        <time>2021-09-01T08:43:17Z</time>
      </trkpt>
      <trkpt lat="44.94993" lon="5.39809">
        <ele>910.6</ele>
        <time>2021-09-01T08:43:19Z</time>
      </trkpt>
      <trkpt lat="44.94994" lon="5.39809">
        <ele>910.7</ele>
        <time>2021-09-01T08:43:20Z</time>
      </trkpt>
      <trkpt lat="44.94994" lon="5.39809">
        <ele>910.8</ele>
        <time>2021-09-01T08:43:21Z</time>
      </trkpt>
      <trkpt lat="44.94994" lon="5.39808">
        <ele>910.8</ele>
        <time>2021-09-01T08:43:23Z</time>
      </trkpt>
      <trkpt lat="44.94995" lon="5.39808">
        <ele>910.9</ele>
        <time>2021-09-01T08:43:24Z</time>
      </trkpt>
      <trkpt lat="44.94995" lon="5.39808">
        <ele>910.9</ele>
        <time>2021-09-01T08:43:25Z</time>
      </trkpt>
      <trkpt lat="44.94995" lon="5.39808">
        <ele>910.9</ele>
        <time>2021-09-01T08:43:27Z</time>
      </trkpt>
      <trkpt lat="44.94995" lon="5.39808">
        <ele>911</ele>
        <time>2021-09-01T08:43:28Z</time>
      </trkpt>
      <trkpt lat="44.94995" lon="5.39807">
        <ele>911</ele>
        <time>2021-09-01T08:43:29Z</time>
      </trkpt>
      <trkpt lat="44.94996" lon="5.39807">
        <ele>911</ele>
        <time>2021-09-01T08:43:30Z</time>
      </trkpt>
      <trkpt lat="44.94995" lon="5.3981">
        <ele>911.3</ele>
        <time>2021-09-01T08:43:32Z</time>
      </trkpt>
      <trkpt lat="44.94994" lon="5.39811">
        <ele>911.5</ele>
        <time>2021-09-01T08:43:33Z</time>
      </trkpt>
      <trkpt lat="44.94992" lon="5.39815">
        <ele>911.9</ele>
        <time>2021-09-01T08:43:34Z</time>
      </trkpt>
      <trkpt lat="44.94991" lon="5.39816">
        <ele>912.1</ele>
        <time>2021-09-01T08:43:35Z</time>
      </trkpt>
      <trkpt lat="44.9499" lon="5.39817">
        <ele>912.2</ele>
        <time>2021-09-01T08:43:36Z</time>
      </trkpt>
      <trkpt lat="44.94989" lon="5.39818">
        <ele>912.4</ele>
        <time>2021-09-01T08:43:37Z</time>
      </trkpt>
      <trkpt lat="44.94988" lon="5.39819">
        <ele>912.6</ele>
        <time>2021-09-01T08:43:39Z</time>
      </trkpt>
      <trkpt lat="44.94985" lon="5.39821">
        <ele>913.1</ele>
        <time>2021-09-01T08:43:40Z</time>
      </trkpt>
      <trkpt lat="44.94983" lon="5.39823">
        <ele>913.3</ele>
        <time>2021-09-01T08:43:41Z</time>
      </trkpt>
      <trkpt lat="44.9498" lon="5.39824">
        <ele>913.8</ele>
        <time>2021-09-01T08:43:43Z</time>
      </trkpt>
      <trkpt lat="44.94976" lon="5.39824">
        <ele>914.2</ele>
        <time>2021-09-01T08:43:44Z</time>
      </trkpt>
      <trkpt lat="44.94974" lon="5.39824">
        <ele>914.5</ele>
        <time>2021-09-01T08:43:45Z</time>
      </trkpt>
      <trkpt lat="44.94971" lon="5.39824">
        <ele>914.9</ele>
        <time>2021-09-01T08:43:47Z</time>
      </trkpt>
      <trkpt lat="44.94968" lon="5.39823">
        <ele>915.3</ele>
        <time>2021-09-01T08:43:48Z</time>
      </trkpt>
      <trkpt lat="44.94967" lon="5.39823">
        <ele>915.4</ele>
        <time>2021-09-01T08:43:49Z</time>
      </trkpt>
      <trkpt lat="44.94965" lon="5.39822">
        <ele>915.7</ele>
        <time>2021-09-01T08:43:50Z</time>
      </trkpt>
      <trkpt lat="44.94963" lon="5.39822">
        <ele>915.8</ele>
        <time>2021-09-01T08:43:51Z</time>
      </trkpt>
      <trkpt lat="44.94962" lon="5.39821">
        <ele>916</ele>
        <time>2021-09-01T08:43:52Z</time>
      </trkpt>
      <trkpt lat="44.9496" lon="5.3982">
        <ele>916.2</ele>
        <time>2021-09-01T08:43:54Z</time>
      </trkpt>
      <trkpt lat="44.94959" lon="5.3982">
        <ele>916.4</ele>
        <time>2021-09-01T08:43:55Z</time>
      </trkpt>
      <trkpt lat="44.94956" lon="5.39818">
        <ele>916.7</ele>
        <time>2021-09-01T08:43:57Z</time>
      </trkpt>
      <trkpt lat="44.94956" lon="5.39818">
        <ele>916.8</ele>
        <time>2021-09-01T08:43:58Z</time>
      </trkpt>
      <trkpt lat="44.94954" lon="5.39815">
        <ele>917.1</ele>
        <time>2021-09-01T08:44:00Z</time>
      </trkpt>
      <trkpt lat="44.94954" lon="5.39816">
        <ele>917.1</ele>
        <time>2021-09-01T08:44:01Z</time>
      </trkpt>
      <trkpt lat="44.94954" lon="5.39816">
        <ele>917.2</ele>
        <time>2021-09-01T08:44:03Z</time>
      </trkpt>
      <trkpt lat="44.94954" lon="5.39815">
        <ele>917.2</ele>
        <time>2021-09-01T08:44:04Z</time>
      </trkpt>
      <trkpt lat="44.94954" lon="5.39815">
        <ele>917.2</ele>
        <time>2021-09-01T08:44:06Z</time>
      </trkpt>
      <trkpt lat="44.94953" lon="5.39815">
        <ele>917.2</ele>
        <time>2021-09-01T08:44:07Z</time>
      </trkpt>
      <trkpt lat="44.94953" lon="5.39815">
        <ele>917.3</ele>
        <time>2021-09-01T08:44:08Z</time>
      </trkpt>
      <trkpt lat="44.94916" lon="5.39782">
        <ele>921.3</ele>
        <time>2021-09-01T08:45:07Z</time>
      </trkpt>
      <trkpt lat="44.94914" lon="5.39779">
        <ele>921.5</ele>
        <time>2021-09-01T08:45:08Z</time>
      </trkpt>
      <trkpt lat="44.94911" lon="5.39776">
        <ele>921.7</ele>
        <time>2021-09-01T08:45:09Z</time>
      </trkpt>
      <trkpt lat="44.94909" lon="5.39774">
        <ele>921.9</ele>
        <time>2021-09-01T08:45:11Z</time>
      </trkpt>
      <trkpt lat="44.94906" lon="5.39772">
        <ele>922.1</ele>
        <time>2021-09-01T08:45:12Z</time>
      </trkpt>
      <trkpt lat="44.94903" lon="5.39769">
        <ele>922.4</ele>
        <time>2021-09-01T08:45:13Z</time>
      </trkpt>
      <trkpt lat="44.94899" lon="5.39765">
        <ele>922.8</ele>
        <time>2021-09-01T08:45:14Z</time>
      </trkpt>
      <trkpt lat="44.94897" lon="5.39763">
        <ele>923.1</ele>
        <time>2021-09-01T08:45:15Z</time>
      </trkpt>
      <trkpt lat="44.94894" lon="5.3976">
        <ele>923.3</ele>
        <time>2021-09-01T08:45:17Z</time>
      </trkpt>
      <trkpt lat="44.94892" lon="5.39758">
        <ele>923.6</ele>
        <time>2021-09-01T08:45:18Z</time>
      </trkpt>
      <trkpt lat="44.9489" lon="5.39754">
        <ele>923.8</ele>
        <time>2021-09-01T08:45:19Z</time>
      </trkpt>
      <trkpt lat="44.94889" lon="5.39753">
        <ele>923.9</ele>
        <time>2021-09-01T08:45:20Z</time>
      </trkpt>
      <trkpt lat="44.94887" lon="5.3975">
        <ele>924.1</ele>
        <time>2021-09-01T08:45:22Z</time>
      </trkpt>
      <trkpt lat="44.94886" lon="5.39749">
        <ele>924.2</ele>
        <time>2021-09-01T08:45:23Z</time>
      </trkpt>
      <trkpt lat="44.94885" lon="5.39748">
        <ele>924.4</ele>
        <time>2021-09-01T08:45:24Z</time>
      </trkpt>
      <trkpt lat="44.94884" lon="5.39746">
        <ele>924.5</ele>
        <time>2021-09-01T08:45:26Z</time>
      </trkpt>
      <trkpt lat="44.94882" lon="5.39744">
        <ele>924.6</ele>
        <time>2021-09-01T08:45:27Z</time>
      </trkpt>
      <trkpt lat="44.9488" lon="5.39742">
        <ele>924.8</ele>
        <time>2021-09-01T08:45:28Z</time>
      </trkpt>
      <trkpt lat="44.94879" lon="5.39742">
        <ele>924.9</ele>
        <time>2021-09-01T08:45:29Z</time>
      </trkpt>
      <trkpt lat="44.94876" lon="5.3974">
        <ele>925.1</ele>
        <time>2021-09-01T08:45:31Z</time>
      </trkpt>
      <trkpt lat="44.94875" lon="5.3974">
        <ele>925.2</ele>
        <time>2021-09-01T08:45:32Z</time>
      </trkpt>
      <trkpt lat="44.94871" lon="5.39737">
        <ele>925.6</ele>
        <time>2021-09-01T08:45:34Z</time>
      </trkpt>
      <trkpt lat="44.9487" lon="5.39736">
        <ele>925.7</ele>
        <time>2021-09-01T08:45:36Z</time>
      </trkpt>
      <trkpt lat="44.94868" lon="5.39735">
        <ele>925.8</ele>
        <time>2021-09-01T08:45:37Z</time>
      </trkpt>
      <trkpt lat="44.94867" lon="5.39733">
        <ele>926</ele>
        <time>2021-09-01T08:45:38Z</time>
      </trkpt>
      <trkpt lat="44.94866" lon="5.39732">
        <ele>926.1</ele>
        <time>2021-09-01T08:45:39Z</time>
      </trkpt>
      <trkpt lat="44.94864" lon="5.39731">
        <ele>926.3</ele>
        <time>2021-09-01T08:45:41Z</time>
      </trkpt>
      <trkpt lat="44.94862" lon="5.3973">
        <ele>926.4</ele>
        <time>2021-09-01T08:45:42Z</time>
      </trkpt>
      <trkpt lat="44.9486" lon="5.39728">
        <ele>926.6</ele>
        <time>2021-09-01T08:45:43Z</time>
      </trkpt>
      <trkpt lat="44.94859" lon="5.39728">
        <ele>926.7</ele>
        <time>2021-09-01T08:45:44Z</time>
      </trkpt>
      <trkpt lat="44.94858" lon="5.39727">
        <ele>926.8</ele>
        <time>2021-09-01T08:45:45Z</time>
      </trkpt>
      <trkpt lat="44.94857" lon="5.39725">
        <ele>926.9</ele>
        <time>2021-09-01T08:45:46Z</time>
      </trkpt>
      <trkpt lat="44.94854" lon="5.39723">
        <ele>927.2</ele>
        <time>2021-09-01T08:45:48Z</time>
      </trkpt>
      <trkpt lat="44.94853" lon="5.39722">
        <ele>927.3</ele>
        <time>2021-09-01T08:45:49Z</time>
      </trkpt>
      <trkpt lat="44.9485" lon="5.39719">
        <ele>927.6</ele>
        <time>2021-09-01T08:45:51Z</time>
      </trkpt>
      <trkpt lat="44.94849" lon="5.39718">
        <ele>927.7</ele>
        <time>2021-09-01T08:45:52Z</time>
      </trkpt>
      <trkpt lat="44.94848" lon="5.39717">
        <ele>927.8</ele>
        <time>2021-09-01T08:45:53Z</time>
      </trkpt>
      <trkpt lat="44.94846" lon="5.39716">
        <ele>928</ele>
        <time>2021-09-01T08:45:54Z</time>
      </trkpt>
      <trkpt lat="44.94844" lon="5.39715">
        <ele>928.2</ele>
        <time>2021-09-01T08:45:56Z</time>
      </trkpt>
      <trkpt lat="44.94843" lon="5.39714">
        <ele>928.3</ele>
        <time>2021-09-01T08:45:57Z</time>
      </trkpt>
      <trkpt lat="44.94842" lon="5.39712">
        <ele>928.5</ele>
        <time>2021-09-01T08:45:58Z</time>
      </trkpt>
      <trkpt lat="44.94842" lon="5.39711">
        <ele>928.6</ele>
        <time>2021-09-01T08:46:00Z</time>
      </trkpt>
      <trkpt lat="44.94842" lon="5.39711">
        <ele>928.6</ele>
        <time>2021-09-01T08:46:01Z</time>
      </trkpt>
      <trkpt lat="44.94841" lon="5.3971">
        <ele>928.6</ele>
        <time>2021-09-01T08:46:02Z</time>
      </trkpt>
      <trkpt lat="44.94841" lon="5.3971">
        <ele>928.7</ele>
        <time>2021-09-01T08:46:04Z</time>
      </trkpt>
      <trkpt lat="44.9484" lon="5.39709">
        <ele>928.7</ele>
        <time>2021-09-01T08:46:05Z</time>
      </trkpt>
      <trkpt lat="44.9484" lon="5.39709">
        <ele>928.7</ele>
        <time>2021-09-01T08:46:06Z</time>
      </trkpt>
      <trkpt lat="44.9484" lon="5.39709">
        <ele>928.8</ele>
        <time>2021-09-01T08:46:08Z</time>
      </trkpt>
      <trkpt lat="44.94779" lon="5.39624">
        <ele>937</ele>
        <time>2021-09-01T08:49:21Z</time>
      </trkpt>
      <trkpt lat="44.94781" lon="5.39618">
        <ele>937.3</ele>
        <time>2021-09-01T08:49:23Z</time>
      </trkpt>
      <trkpt lat="44.94782" lon="5.39617">
        <ele>937.4</ele>
        <time>2021-09-01T08:49:25Z</time>
      </trkpt>
      <trkpt lat="44.94783" lon="5.39616">
        <ele>937.4</ele>
        <time>2021-09-01T08:49:26Z</time>
      </trkpt>
      <trkpt lat="44.94783" lon="5.39616">
        <ele>937.4</ele>
        <time>2021-09-01T08:49:28Z</time>
      </trkpt>
      <trkpt lat="44.94783" lon="5.39616">
        <ele>937.4</ele>
        <time>2021-09-01T08:49:29Z</time>
      </trkpt>
      <trkpt lat="44.94783" lon="5.39616">
        <ele>937.4</ele>
        <time>2021-09-01T08:49:30Z</time>
      </trkpt>
      <trkpt lat="44.94783" lon="5.39616">
        <ele>937.4</ele>
        <time>2021-09-01T08:49:31Z</time>
      </trkpt>
      <trkpt lat="44.94783" lon="5.39616">
        <ele>937.4</ele>
        <time>2021-09-01T08:49:33Z</time>
      </trkpt>
      <trkpt lat="44.94783" lon="5.39616">
        <ele>937.4</ele>
        <time>2021-09-01T08:49:34Z</time>
      </trkpt>
      <trkpt lat="44.94783" lon="5.39616">
        <ele>937.4</ele>
        <time>2021-09-01T08:49:35Z</time>
      </trkpt>
      <trkpt lat="44.94783" lon="5.39616">
        <ele>937.4</ele>
        <time>2021-09-01T08:49:36Z</time>
      </trkpt>
      <trkpt lat="44.94783" lon="5.39616">
        <ele>937.4</ele>
        <time>2021-09-01T08:49:38Z</time>
      </trkpt>
      <trkpt lat="44.94783" lon="5.39616">
        <ele>937.4</ele>
        <time>2021-09-01T08:49:39Z</time>
      </trkpt>
      <trkpt lat="44.94783" lon="5.39616">
        <ele>937.4</ele>
        <time>2021-09-01T08:49:41Z</time>
      </trkpt>
      <trkpt lat="44.94783" lon="5.39616">
        <ele>937.4</ele>
        <time>2021-09-01T08:49:42Z</time>
      </trkpt>
      <trkpt lat="44.94783" lon="5.39616">
        <ele>937.4</ele>
        <time>2021-09-01T08:49:43Z</time>
      </trkpt>
      <trkpt lat="44.94783" lon="5.39616">
        <ele>937.4</ele>
        <time>2021-09-01T08:49:45Z</time>
      </trkpt>
      <trkpt lat="44.94783" lon="5.39616">
        <ele>937.4</ele>
        <time>2021-09-01T08:49:46Z</time>
      </trkpt>
      <trkpt lat="44.94783" lon="5.39616">
        <ele>937.4</ele>
        <time>2021-09-01T08:49:48Z</time>
      </trkpt>
      <trkpt lat="44.94783" lon="5.39616">
        <ele>937.4</ele>
        <time>2021-09-01T08:49:50Z</time>
      </trkpt>
      <trkpt lat="44.94783" lon="5.39616">
        <ele>937.4</ele>
        <time>2021-09-01T08:49:52Z</time>
      </trkpt>
      <trkpt lat="44.94783" lon="5.39616">
        <ele>937.4</ele>
        <time>2021-09-01T08:49:53Z</time>
      </trkpt>
      <trkpt lat="44.94783" lon="5.39616">
        <ele>937.4</ele>
        <time>2021-09-01T08:49:55Z</time>
      </trkpt>
      <trkpt lat="44.94783" lon="5.39616">
        <ele>937.4</ele>
        <time>2021-09-01T08:49:56Z</time>
      </trkpt>
      <trkpt lat="44.94783" lon="5.39616">
        <ele>937.4</ele>
        <time>2021-09-01T08:49:57Z</time>
      </trkpt>
      <trkpt lat="44.94783" lon="5.39616">
        <ele>937.5</ele>
        <time>2021-09-01T08:49:59Z</time>
      </trkpt>
      <trkpt lat="44.94783" lon="5.39616">
        <ele>937.5</ele>
        <time>2021-09-01T08:50:00Z</time>
      </trkpt>
      <trkpt lat="44.94783" lon="5.39616">
        <ele>937.5</ele>
        <time>2021-09-01T08:50:02Z</time>
      </trkpt>
      <trkpt lat="44.94783" lon="5.39616">
        <ele>937.5</ele>
        <time>2021-09-01T08:50:03Z</time>
      </trkpt>
      <trkpt lat="44.94783" lon="5.39616">
        <ele>937.5</ele>
        <time>2021-09-01T08:50:05Z</time>
      </trkpt>
      <trkpt lat="44.94783" lon="5.39616">
        <ele>937.5</ele>
        <time>2021-09-01T08:50:07Z</time>
      </trkpt>
      <trkpt lat="44.94783" lon="5.39616">
        <ele>937.5</ele>
        <time>2021-09-01T08:50:08Z</time>
      </trkpt>
      <trkpt lat="44.94783" lon="5.39616">
        <ele>937.5</ele>
        <time>2021-09-01T08:50:10Z</time>
      </trkpt>
      <trkpt lat="44.94783" lon="5.39616">
        <ele>937.5</ele>
        <time>2021-09-01T08:50:12Z</time>
      </trkpt>
      <trkpt lat="44.94783" lon="5.39616">
        <ele>937.5</ele>
        <time>2021-09-01T08:50:13Z</time>
      </trkpt>
      <trkpt lat="44.94783" lon="5.39616">
        <ele>937.5</ele>
        <time>2021-09-01T08:50:14Z</time>
      </trkpt>
      <trkpt lat="44.94783" lon="5.39616">
        <ele>937.5</ele>
        <time>2021-09-01T08:50:16Z</time>
      </trkpt>
      <trkpt lat="44.94783" lon="5.39616">
        <ele>937.5</ele>
        <time>2021-09-01T08:50:18Z</time>
      </trkpt>
      <trkpt lat="44.94787" lon="5.39614">
        <ele>937.8</ele>
        <time>2021-09-01T08:50:20Z</time>
      </trkpt>
      <trkpt lat="44.94787" lon="5.39614">
        <ele>937.8</ele>
        <time>2021-09-01T08:50:21Z</time>
      </trkpt>
      <trkpt lat="44.94784" lon="5.39616">
        <ele>938.1</ele>
        <time>2021-09-01T08:50:23Z</time>
      </trkpt>
      <trkpt lat="44.94784" lon="5.39616">
        <ele>938.1</ele>
        <time>2021-09-01T08:50:24Z</time>
      </trkpt>
      <trkpt lat="44.94784" lon="5.39616">
        <ele>938.1</ele>
        <time>2021-09-01T08:50:25Z</time>
      </trkpt>
      <trkpt lat="44.94784" lon="5.39616">
        <ele>938.1</ele>
        <time>2021-09-01T08:50:27Z</time>
      </trkpt>
      <trkpt lat="44.94784" lon="5.39616">
        <ele>938.1</ele>
        <time>2021-09-01T08:50:29Z</time>
      </trkpt>
      <trkpt lat="44.94783" lon="5.39616">
        <ele>938.3</ele>
        <time>2021-09-01T08:50:31Z</time>
      </trkpt>
      <trkpt lat="44.94781" lon="5.39617">
        <ele>938.4</ele>
        <time>2021-09-01T08:50:32Z</time>
      </trkpt>
      <trkpt lat="44.94779" lon="5.39617">
        <ele>938.6</ele>
        <time>2021-09-01T08:50:34Z</time>
      </trkpt>
      <trkpt lat="44.94778" lon="5.39618">
        <ele>938.7</ele>
        <time>2021-09-01T08:50:36Z</time>
      </trkpt>
      <trkpt lat="44.94776" lon="5.39618">
        <ele>938.8</ele>
        <time>2021-09-01T08:50:37Z</time>
      </trkpt>
      <trkpt lat="44.94776" lon="5.39618">
        <ele>938.9</ele>
        <time>2021-09-01T08:50:39Z</time>
      </trkpt>
      <trkpt lat="44.94775" lon="5.39619">
        <ele>938.9</ele>
        <time>2021-09-01T08:50:41Z</time>
      </trkpt>
      <trkpt lat="44.94775" lon="5.39619">
        <ele>939</ele>
        <time>2021-09-01T08:50:43Z</time>
      </trkpt>
      <trkpt lat="44.94775" lon="5.39619">
        <ele>939</ele>
        <time>2021-09-01T08:50:44Z</time>
      </trkpt>
      <trkpt lat="44.94774" lon="5.39619">
        <ele>939</ele>
        <time>2021-09-01T08:50:46Z</time>
      </trkpt>
      <trkpt lat="44.94774" lon="5.39619">
        <ele>939</ele>
        <time>2021-09-01T08:50:47Z</time>
      </trkpt>
      <trkpt lat="44.94774" lon="5.39619">
        <ele>939.1</ele>
        <time>2021-09-01T08:50:49Z</time>
      </trkpt>
      <trkpt lat="44.94774" lon="5.3962">
        <ele>939.1</ele>
        <time>2021-09-01T08:50:50Z</time>
      </trkpt>
      <trkpt lat="44.94774" lon="5.39619">
        <ele>939.1</ele>
        <time>2021-09-01T08:50:52Z</time>
      </trkpt>
      <trkpt lat="44.94774" lon="5.39619">
        <ele>939.1</ele>
        <time>2021-09-01T08:50:53Z</time>
      </trkpt>
      <trkpt lat="44.94774" lon="5.39619">
        <ele>939.1</ele>
        <time>2021-09-01T08:50:55Z</time>
      </trkpt>
      <trkpt lat="44.94774" lon="5.39619">
        <ele>939.1</ele>
        <time>2021-09-01T08:50:56Z</time>
      </trkpt>
      <trkpt lat="44.94774" lon="5.39619">
        <ele>939.1</ele>
        <time>2021-09-01T08:50:58Z</time>
      </trkpt>
      <trkpt lat="44.94774" lon="5.3962">
        <ele>939.1</ele>
        <time>2021-09-01T08:51:00Z</time>
      </trkpt>
      <trkpt lat="44.94774" lon="5.3962">
        <ele>939.1</ele>
        <time>2021-09-01T08:51:01Z</time>
      </trkpt>
      <trkpt lat="44.94774" lon="5.3962">
        <ele>939.1</ele>
        <time>2021-09-01T08:51:02Z</time>
      </trkpt>
      <trkpt lat="44.94774" lon="5.3962">
        <ele>939.1</ele>
        <time>2021-09-01T08:51:04Z</time>
      </trkpt>
      <trkpt lat="44.94774" lon="5.3962">
        <ele>939.1</ele>
        <time>2021-09-01T08:51:05Z</time>
      </trkpt>
      <trkpt lat="44.94774" lon="5.3962">
        <ele>939.2</ele>
        <time>2021-09-01T08:51:06Z</time>
      </trkpt>
      <trkpt lat="44.94773" lon="5.3962">
        <ele>939.2</ele>
        <time>2021-09-01T08:51:08Z</time>
      </trkpt>
      <trkpt lat="44.94773" lon="5.3962">
        <ele>939.3</ele>
        <time>2021-09-01T08:51:09Z</time>
      </trkpt>
      <trkpt lat="44.94771" lon="5.3962">
        <ele>939.4</ele>
        <time>2021-09-01T08:51:10Z</time>
      </trkpt>
      <trkpt lat="44.94771" lon="5.3962">
        <ele>939.5</ele>
        <time>2021-09-01T08:51:12Z</time>
      </trkpt>
      <trkpt lat="44.9477" lon="5.3962">
        <ele>939.5</ele>
        <time>2021-09-01T08:51:14Z</time>
      </trkpt>
      <trkpt lat="44.9477" lon="5.3962">
        <ele>939.6</ele>
        <time>2021-09-01T08:51:15Z</time>
      </trkpt>
      <trkpt lat="44.94769" lon="5.3962">
        <ele>939.6</ele>
        <time>2021-09-01T08:51:16Z</time>
      </trkpt>
      <trkpt lat="44.94769" lon="5.3962">
        <ele>939.6</ele>
        <time>2021-09-01T08:51:17Z</time>
      </trkpt>
      <trkpt lat="44.94769" lon="5.3962">
        <ele>939.7</ele>
        <time>2021-09-01T08:51:19Z</time>
      </trkpt>
      <trkpt lat="44.94768" lon="5.3962">
        <ele>939.7</ele>
        <time>2021-09-01T08:51:20Z</time>
      </trkpt>
      <trkpt lat="44.94768" lon="5.3962">
        <ele>939.7</ele>
        <time>2021-09-01T08:51:21Z</time>
      </trkpt>
      <trkpt lat="44.94768" lon="5.3962">
        <ele>939.8</ele>
        <time>2021-09-01T08:51:23Z</time>
      </trkpt>
      <trkpt lat="44.94766" lon="5.39619">
        <ele>940</ele>
        <time>2021-09-01T08:51:24Z</time>
      </trkpt>
      <trkpt lat="44.94765" lon="5.39618">
        <ele>940.1</ele>
        <time>2021-09-01T08:51:25Z</time>
      </trkpt>
      <trkpt lat="44.94763" lon="5.39618">
        <ele>940.3</ele>
        <time>2021-09-01T08:51:26Z</time>
      </trkpt>
      <trkpt lat="44.94761" lon="5.39617">
        <ele>940.5</ele>
        <time>2021-09-01T08:51:27Z</time>
      </trkpt>
      <trkpt lat="44.94759" lon="5.39616">
        <ele>940.7</ele>
        <time>2021-09-01T08:51:29Z</time>
      </trkpt>
      <trkpt lat="44.94758" lon="5.39616">
        <ele>940.8</ele>
        <time>2021-09-01T08:51:30Z</time>
      </trkpt>
      <trkpt lat="44.94756" lon="5.39615">
        <ele>941</ele>
        <time>2021-09-01T08:51:31Z</time>
      </trkpt>
      <trkpt lat="44.94755" lon="5.39614">
        <ele>941.1</ele>
        <time>2021-09-01T08:51:33Z</time>
      </trkpt>
      <trkpt lat="44.94754" lon="5.39613">
        <ele>941.2</ele>
        <time>2021-09-01T08:51:34Z</time>
      </trkpt>
      <trkpt lat="44.94753" lon="5.39613">
        <ele>941.3</ele>
        <time>2021-09-01T08:51:35Z</time>
      </trkpt>
      <trkpt lat="44.9475" lon="5.39612">
        <ele>941.5</ele>
        <time>2021-09-01T08:51:37Z</time>
      </trkpt>
      <trkpt lat="44.94748" lon="5.39611">
        <ele>941.7</ele>
        <time>2021-09-01T08:51:38Z</time>
      </trkpt>
      <trkpt lat="44.94747" lon="5.3961">
        <ele>941.7</ele>
        <time>2021-09-01T08:51:39Z</time>
      </trkpt>
      <trkpt lat="44.94746" lon="5.39609">
        <ele>941.9</ele>
        <time>2021-09-01T08:51:41Z</time>
      </trkpt>
      <trkpt lat="44.94745" lon="5.39608">
        <ele>942</ele>
        <time>2021-09-01T08:51:42Z</time>
      </trkpt>
      <trkpt lat="44.94741" lon="5.39606">
        <ele>942.2</ele>
        <time>2021-09-01T08:51:44Z</time>
      </trkpt>
      <trkpt lat="44.94741" lon="5.39605">
        <ele>942.3</ele>
        <time>2021-09-01T08:51:45Z</time>
      </trkpt>
      <trkpt lat="44.9474" lon="5.39604">
        <ele>942.4</ele>
        <time>2021-09-01T08:51:46Z</time>
      </trkpt>
      <trkpt lat="44.94739" lon="5.39603">
        <ele>942.5</ele>
        <time>2021-09-01T08:51:47Z</time>
      </trkpt>
      <trkpt lat="44.94738" lon="5.39601">
        <ele>942.6</ele>
        <time>2021-09-01T08:51:48Z</time>
      </trkpt>
      <trkpt lat="44.94736" lon="5.39599">
        <ele>942.7</ele>
        <time>2021-09-01T08:51:50Z</time>
      </trkpt>
      <trkpt lat="44.94735" lon="5.39598">
        <ele>942.8</ele>
        <time>2021-09-01T08:51:51Z</time>
      </trkpt>
      <trkpt lat="44.94735" lon="5.39596">
        <ele>942.9</ele>
        <time>2021-09-01T08:51:53Z</time>
      </trkpt>
      <trkpt lat="44.94734" lon="5.39596">
        <ele>942.9</ele>
        <time>2021-09-01T08:51:54Z</time>
      </trkpt>
      <trkpt lat="44.94734" lon="5.39595">
        <ele>942.9</ele>
        <time>2021-09-01T08:51:56Z</time>
      </trkpt>
      <trkpt lat="44.94734" lon="5.39595">
        <ele>942.9</ele>
        <time>2021-09-01T08:51:57Z</time>
      </trkpt>
      <trkpt lat="44.94733" lon="5.39595">
        <ele>942.9</ele>
        <time>2021-09-01T08:51:58Z</time>
      </trkpt>
      <trkpt lat="44.94733" lon="5.39595">
        <ele>943</ele>
        <time>2021-09-01T08:51:59Z</time>
      </trkpt>
      <trkpt lat="44.94733" lon="5.39595">
        <ele>943</ele>
        <time>2021-09-01T08:52:01Z</time>
      </trkpt>
      <trkpt lat="44.94733" lon="5.39594">
        <ele>943</ele>
        <time>2021-09-01T08:52:02Z</time>
      </trkpt>
      <trkpt lat="44.94733" lon="5.39594">
        <ele>943</ele>
        <time>2021-09-01T08:52:03Z</time>
      </trkpt>
      <trkpt lat="44.94732" lon="5.39594">
        <ele>943</ele>
        <time>2021-09-01T08:52:04Z</time>
      </trkpt>
      <trkpt lat="44.9473" lon="5.39592">
        <ele>943</ele>
        <time>2021-09-01T08:52:06Z</time>
      </trkpt>
      <trkpt lat="44.94729" lon="5.39591">
        <ele>942.9</ele>
        <time>2021-09-01T08:52:07Z</time>
      </trkpt>
      <trkpt lat="44.94728" lon="5.3959">
        <ele>942.9</ele>
        <time>2021-09-01T08:52:08Z</time>
      </trkpt>
      <trkpt lat="44.94726" lon="5.39589">
        <ele>942.8</ele>
        <time>2021-09-01T08:52:09Z</time>
      </trkpt>
      <trkpt lat="44.94723" lon="5.39587">
        <ele>942.7</ele>
        <time>2021-09-01T08:52:11Z</time>
      </trkpt>
      <trkpt lat="44.94722" lon="5.39586">
        <ele>942.6</ele>
        <time>2021-09-01T08:52:12Z</time>
      </trkpt>
      <trkpt lat="44.94718" lon="5.39583">
        <ele>942.4</ele>
        <time>2021-09-01T08:52:14Z</time>
      </trkpt>
      <trkpt lat="44.94715" lon="5.39581">
        <ele>942.2</ele>
        <time>2021-09-01T08:52:15Z</time>
      </trkpt>
      <trkpt lat="44.9471" lon="5.39577">
        <ele>942</ele>
        <time>2021-09-01T08:52:16Z</time>
      </trkpt>
      <trkpt lat="44.94706" lon="5.39573">
        <ele>941.8</ele>
        <time>2021-09-01T08:52:18Z</time>
      </trkpt>
      <trkpt lat="44.94705" lon="5.39571">
        <ele>941.8</ele>
        <time>2021-09-01T08:52:19Z</time>
      </trkpt>
      <trkpt lat="44.94702" lon="5.39568">
        <ele>941.6</ele>
        <time>2021-09-01T08:52:20Z</time>
      </trkpt>
      <trkpt lat="44.94701" lon="5.39567">
        <ele>941.6</ele>
        <time>2021-09-01T08:52:21Z</time>
      </trkpt>
      <trkpt lat="44.94701" lon="5.39565">
        <ele>941.5</ele>
        <time>2021-09-01T08:52:22Z</time>
      </trkpt>
      <trkpt lat="44.94699" lon="5.39563">
        <ele>941.5</ele>
        <time>2021-09-01T08:52:24Z</time>
      </trkpt>
      <trkpt lat="44.94697" lon="5.39561">
        <ele>941.3</ele>
        <time>2021-09-01T08:52:25Z</time>
      </trkpt>
      <trkpt lat="44.94695" lon="5.39557">
        <ele>941.2</ele>
        <time>2021-09-01T08:52:27Z</time>
      </trkpt>
      <trkpt lat="44.94693" lon="5.39552">
        <ele>941</ele>
        <time>2021-09-01T08:52:29Z</time>
      </trkpt>
      <trkpt lat="44.94693" lon="5.3955">
        <ele>941</ele>
        <time>2021-09-01T08:52:30Z</time>
      </trkpt>
      <trkpt lat="44.94692" lon="5.39546">
        <ele>940.9</ele>
        <time>2021-09-01T08:52:32Z</time>
      </trkpt>
      <trkpt lat="44.94692" lon="5.39545">
        <ele>940.8</ele>
        <time>2021-09-01T08:52:33Z</time>
      </trkpt>
      <trkpt lat="44.94692" lon="5.39545">
        <ele>940.8</ele>
        <time>2021-09-01T08:52:34Z</time>
      </trkpt>
      <trkpt lat="44.9469" lon="5.39544">
        <ele>940.7</ele>
        <time>2021-09-01T08:52:36Z</time>
      </trkpt>
      <trkpt lat="44.94688" lon="5.39545">
        <ele>940.6</ele>
        <time>2021-09-01T08:52:37Z</time>
      </trkpt>
      <trkpt lat="44.94684" lon="5.39548">
        <ele>940.4</ele>
        <time>2021-09-01T08:52:39Z</time>
      </trkpt>
      <trkpt lat="44.94682" lon="5.39549">
        <ele>940.3</ele>
        <time>2021-09-01T08:52:40Z</time>
      </trkpt>
      <trkpt lat="44.9468" lon="5.39549">
        <ele>940.2</ele>
        <time>2021-09-01T08:52:42Z</time>
      </trkpt>
      <trkpt lat="44.94677" lon="5.39549">
        <ele>940.1</ele>
        <time>2021-09-01T08:52:43Z</time>
      </trkpt>
      <trkpt lat="44.94674" lon="5.39548">
        <ele>939.9</ele>
        <time>2021-09-01T08:52:45Z</time>
      </trkpt>
      <trkpt lat="44.94672" lon="5.39547">
        <ele>939.8</ele>
        <time>2021-09-01T08:52:46Z</time>
      </trkpt>
      <trkpt lat="44.94668" lon="5.39544">
        <ele>939.5</ele>
        <time>2021-09-01T08:52:48Z</time>
      </trkpt>
      <trkpt lat="44.94666" lon="5.39541">
        <ele>939.5</ele>
        <time>2021-09-01T08:52:49Z</time>
      </trkpt>
      <trkpt lat="44.94662" lon="5.39539">
        <ele>939.4</ele>
        <time>2021-09-01T08:52:50Z</time>
      </trkpt>
      <trkpt lat="44.94659" lon="5.39536">
        <ele>939.4</ele>
        <time>2021-09-01T08:52:51Z</time>
      </trkpt>
      <trkpt lat="44.94653" lon="5.39532">
        <ele>939.2</ele>
        <time>2021-09-01T08:52:53Z</time>
      </trkpt>
      <trkpt lat="44.94647" lon="5.39525">
        <ele>939</ele>
        <time>2021-09-01T08:52:55Z</time>
      </trkpt>
      <trkpt lat="44.94643" lon="5.39519">
        <ele>938.9</ele>
        <time>2021-09-01T08:52:56Z</time>
      </trkpt>
      <trkpt lat="44.94639" lon="5.39513">
        <ele>938.8</ele>
        <time>2021-09-01T08:52:57Z</time>
      </trkpt>
      <trkpt lat="44.94634" lon="5.39506">
        <ele>938.7</ele>
        <time>2021-09-01T08:52:59Z</time>
      </trkpt>
      <trkpt lat="44.9463" lon="5.39498">
        <ele>938.7</ele>
        <time>2021-09-01T08:53:00Z</time>
      </trkpt>
      <trkpt lat="44.94627" lon="5.39493">
        <ele>938.7</ele>
        <time>2021-09-01T08:53:01Z</time>
      </trkpt>
      <trkpt lat="44.94623" lon="5.39486">
        <ele>938.8</ele>
        <time>2021-09-01T08:53:03Z</time>
      </trkpt>
      <trkpt lat="44.94619" lon="5.3948">
        <ele>938.9</ele>
        <time>2021-09-01T08:53:04Z</time>
      </trkpt>
      <trkpt lat="44.94616" lon="5.39473">
        <ele>939</ele>
        <time>2021-09-01T08:53:06Z</time>
      </trkpt>
      <trkpt lat="44.94612" lon="5.39466">
        <ele>939.2</ele>
        <time>2021-09-01T08:53:08Z</time>
      </trkpt>
      <trkpt lat="44.94608" lon="5.39461">
        <ele>939.3</ele>
        <time>2021-09-01T08:53:09Z</time>
      </trkpt>
      <trkpt lat="44.94605" lon="5.39457">
        <ele>939.4</ele>
        <time>2021-09-01T08:53:10Z</time>
      </trkpt>
      <trkpt lat="44.94603" lon="5.39453">
        <ele>939.6</ele>
        <time>2021-09-01T08:53:11Z</time>
      </trkpt>
      <trkpt lat="44.94602" lon="5.39452">
        <ele>939.7</ele>
        <time>2021-09-01T08:53:12Z</time>
      </trkpt>
      <trkpt lat="44.946" lon="5.39449">
        <ele>939.9</ele>
        <time>2021-09-01T08:53:14Z</time>
      </trkpt>
      <trkpt lat="44.94598" lon="5.39446">
        <ele>940</ele>
        <time>2021-09-01T08:53:15Z</time>
      </trkpt>
      <trkpt lat="44.94596" lon="5.39444">
        <ele>940.2</ele>
        <time>2021-09-01T08:53:16Z</time>
      </trkpt>
      <trkpt lat="44.94594" lon="5.39442">
        <ele>940.4</ele>
        <time>2021-09-01T08:53:18Z</time>
      </trkpt>
      <trkpt lat="44.94592" lon="5.39438">
        <ele>940.6</ele>
        <time>2021-09-01T08:53:19Z</time>
      </trkpt>
      <trkpt lat="44.94591" lon="5.39436">
        <ele>940.7</ele>
        <time>2021-09-01T08:53:20Z</time>
      </trkpt>
      <trkpt lat="44.94588" lon="5.39433">
        <ele>940.9</ele>
        <time>2021-09-01T08:53:21Z</time>
      </trkpt>
      <trkpt lat="44.94588" lon="5.39433">
        <ele>941</ele>
        <time>2021-09-01T08:53:22Z</time>
      </trkpt>
      <trkpt lat="44.94584" lon="5.39431">
        <ele>941.2</ele>
        <time>2021-09-01T08:53:24Z</time>
      </trkpt>
      <trkpt lat="44.94583" lon="5.3943">
        <ele>941.3</ele>
        <time>2021-09-01T08:53:25Z</time>
      </trkpt>
      <trkpt lat="44.9458" lon="5.39428">
        <ele>941.5</ele>
        <time>2021-09-01T08:53:27Z</time>
      </trkpt>
      <trkpt lat="44.94579" lon="5.39428">
        <ele>941.6</ele>
        <time>2021-09-01T08:53:28Z</time>
      </trkpt>
      <trkpt lat="44.94578" lon="5.39427">
        <ele>941.7</ele>
        <time>2021-09-01T08:53:29Z</time>
      </trkpt>
      <trkpt lat="44.94576" lon="5.39426">
        <ele>941.9</ele>
        <time>2021-09-01T08:53:30Z</time>
      </trkpt>
      <trkpt lat="44.94574" lon="5.39425">
        <ele>942.1</ele>
        <time>2021-09-01T08:53:31Z</time>
      </trkpt>
      <trkpt lat="44.94571" lon="5.39423">
        <ele>942.3</ele>
        <time>2021-09-01T08:53:33Z</time>
      </trkpt>
      <trkpt lat="44.94569" lon="5.39422">
        <ele>942.5</ele>
        <time>2021-09-01T08:53:34Z</time>
      </trkpt>
      <trkpt lat="44.94568" lon="5.39422">
        <ele>942.6</ele>
        <time>2021-09-01T08:53:35Z</time>
      </trkpt>
      <trkpt lat="44.94565" lon="5.39421">
        <ele>942.8</ele>
        <time>2021-09-01T08:53:36Z</time>
      </trkpt>
      <trkpt lat="44.94564" lon="5.3942">
        <ele>942.9</ele>
        <time>2021-09-01T08:53:37Z</time>
      </trkpt>
      <trkpt lat="44.94562" lon="5.39419">
        <ele>943</ele>
        <time>2021-09-01T08:53:38Z</time>
      </trkpt>
      <trkpt lat="44.94562" lon="5.39419">
        <ele>943.1</ele>
        <time>2021-09-01T08:53:40Z</time>
      </trkpt>
      <trkpt lat="44.94561" lon="5.39418">
        <ele>943.2</ele>
        <time>2021-09-01T08:53:41Z</time>
      </trkpt>
      <trkpt lat="44.94559" lon="5.39417">
        <ele>943.3</ele>
        <time>2021-09-01T08:53:42Z</time>
      </trkpt>
      <trkpt lat="44.94558" lon="5.39417">
        <ele>943.4</ele>
        <time>2021-09-01T08:53:43Z</time>
      </trkpt>
      <trkpt lat="44.94557" lon="5.39416">
        <ele>943.5</ele>
        <time>2021-09-01T08:53:44Z</time>
      </trkpt>
      <trkpt lat="44.94556" lon="5.39416">
        <ele>943.5</ele>
        <time>2021-09-01T08:53:45Z</time>
      </trkpt>
      <trkpt lat="44.94556" lon="5.39415">
        <ele>943.6</ele>
        <time>2021-09-01T08:53:47Z</time>
      </trkpt>
      <trkpt lat="44.94556" lon="5.39415">
        <ele>943.6</ele>
        <time>2021-09-01T08:53:49Z</time>
      </trkpt>
      <trkpt lat="44.94556" lon="5.39416">
        <ele>943.7</ele>
        <time>2021-09-01T08:53:51Z</time>
      </trkpt>
      <trkpt lat="44.94555" lon="5.39416">
        <ele>943.7</ele>
        <time>2021-09-01T08:53:52Z</time>
      </trkpt>
      <trkpt lat="44.94555" lon="5.39416">
        <ele>943.7</ele>
        <time>2021-09-01T08:53:53Z</time>
      </trkpt>
      <trkpt lat="44.94555" lon="5.39416">
        <ele>943.7</ele>
        <time>2021-09-01T08:53:54Z</time>
      </trkpt>
      <trkpt lat="44.94555" lon="5.39416">
        <ele>943.7</ele>
        <time>2021-09-01T08:53:56Z</time>
      </trkpt>
      <trkpt lat="44.94502" lon="5.39357">
        <ele>945</ele>
        <time>2021-09-01T08:54:24Z</time>
      </trkpt>
      <trkpt lat="44.94498" lon="5.39353">
        <ele>945</ele>
        <time>2021-09-01T08:54:26Z</time>
      </trkpt>
      <trkpt lat="44.94492" lon="5.39349">
        <ele>945</ele>
        <time>2021-09-01T08:54:27Z</time>
      </trkpt>
      <trkpt lat="44.94486" lon="5.39344">
        <ele>945.1</ele>
        <time>2021-09-01T08:54:28Z</time>
      </trkpt>
      <trkpt lat="44.94481" lon="5.39341">
        <ele>945.1</ele>
        <time>2021-09-01T08:54:30Z</time>
      </trkpt>
      <trkpt lat="44.94479" lon="5.39339">
        <ele>945.2</ele>
        <time>2021-09-01T08:54:31Z</time>
      </trkpt>
      <trkpt lat="44.94475" lon="5.39335">
        <ele>945.3</ele>
        <time>2021-09-01T08:54:33Z</time>
      </trkpt>
      <trkpt lat="44.94472" lon="5.39331">
        <ele>945.3</ele>
        <time>2021-09-01T08:54:34Z</time>
      </trkpt>
      <trkpt lat="44.94469" lon="5.39328">
        <ele>945.4</ele>
        <time>2021-09-01T08:54:36Z</time>
      </trkpt>
      <trkpt lat="44.94468" lon="5.39327">
        <ele>945.5</ele>
        <time>2021-09-01T08:54:37Z</time>
      </trkpt>
      <trkpt lat="44.94467" lon="5.39325">
        <ele>945.5</ele>
        <time>2021-09-01T08:54:38Z</time>
      </trkpt>
      <trkpt lat="44.94463" lon="5.39322">
        <ele>945.6</ele>
        <time>2021-09-01T08:54:40Z</time>
      </trkpt>
      <trkpt lat="44.94459" lon="5.39319">
        <ele>945.8</ele>
        <time>2021-09-01T08:54:42Z</time>
      </trkpt>
      <trkpt lat="44.94456" lon="5.39317">
        <ele>945.9</ele>
        <time>2021-09-01T08:54:43Z</time>
      </trkpt>
      <trkpt lat="44.94453" lon="5.39315">
        <ele>946</ele>
        <time>2021-09-01T08:54:44Z</time>
      </trkpt>
      <trkpt lat="44.94448" lon="5.39312">
        <ele>946.1</ele>
        <time>2021-09-01T08:54:46Z</time>
      </trkpt>
      <trkpt lat="44.94446" lon="5.39311">
        <ele>946.2</ele>
        <time>2021-09-01T08:54:47Z</time>
      </trkpt>
      <trkpt lat="44.94445" lon="5.39311">
        <ele>946.2</ele>
        <time>2021-09-01T08:54:48Z</time>
      </trkpt>
      <trkpt lat="44.94442" lon="5.3931">
        <ele>946.3</ele>
        <time>2021-09-01T08:54:50Z</time>
      </trkpt>
      <trkpt lat="44.9444" lon="5.39308">
        <ele>946.4</ele>
        <time>2021-09-01T08:54:51Z</time>
      </trkpt>
      <trkpt lat="44.94436" lon="5.39307">
        <ele>946.5</ele>
        <time>2021-09-01T08:54:53Z</time>
      </trkpt>
      <trkpt lat="44.94432" lon="5.39307">
        <ele>946.7</ele>
        <time>2021-09-01T08:54:54Z</time>
      </trkpt>
      <trkpt lat="44.94429" lon="5.39305">
        <ele>946.9</ele>
        <time>2021-09-01T08:54:55Z</time>
      </trkpt>
      <trkpt lat="44.94426" lon="5.39303">
        <ele>947</ele>
        <time>2021-09-01T08:54:57Z</time>
      </trkpt>
      <trkpt lat="44.94423" lon="5.39302">
        <ele>947.2</ele>
        <time>2021-09-01T08:54:58Z</time>
      </trkpt>
      <trkpt lat="44.9442" lon="5.39302">
        <ele>947.4</ele>
        <time>2021-09-01T08:55:00Z</time>
      </trkpt>
      <trkpt lat="44.94417" lon="5.39302">
        <ele>947.5</ele>
        <time>2021-09-01T08:55:01Z</time>
      </trkpt>
      <trkpt lat="44.94417" lon="5.39302">
        <ele>947.6</ele>
        <time>2021-09-01T08:55:02Z</time>
      </trkpt>
      <trkpt lat="44.94415" lon="5.39303">
        <ele>947.7</ele>
        <time>2021-09-01T08:55:03Z</time>
      </trkpt>
      <trkpt lat="44.94414" lon="5.39303">
        <ele>947.8</ele>
        <time>2021-09-01T08:55:04Z</time>
      </trkpt>
      <trkpt lat="44.94413" lon="5.39304">
        <ele>947.9</ele>
        <time>2021-09-01T08:55:06Z</time>
      </trkpt>
      <trkpt lat="44.94405" lon="5.3931">
        <ele>948.4</ele>
        <time>2021-09-01T08:55:08Z</time>
      </trkpt>
      <trkpt lat="44.944" lon="5.39314">
        <ele>948.8</ele>
        <time>2021-09-01T08:55:10Z</time>
      </trkpt>
      <trkpt lat="44.94395" lon="5.39318">
        <ele>949.2</ele>
        <time>2021-09-01T08:55:11Z</time>
      </trkpt>
      <trkpt lat="44.9439" lon="5.39323">
        <ele>949.6</ele>
        <time>2021-09-01T08:55:13Z</time>
      </trkpt>
      <trkpt lat="44.94385" lon="5.39327">
        <ele>950</ele>
        <time>2021-09-01T08:55:15Z</time>
      </trkpt>
      <trkpt lat="44.9438" lon="5.39332">
        <ele>950.4</ele>
        <time>2021-09-01T08:55:16Z</time>
      </trkpt>
      <trkpt lat="44.94375" lon="5.39336">
        <ele>950.9</ele>
        <time>2021-09-01T08:55:17Z</time>
      </trkpt>
      <trkpt lat="44.94369" lon="5.3934">
        <ele>951.3</ele>
        <time>2021-09-01T08:55:19Z</time>
      </trkpt>
      <trkpt lat="44.94364" lon="5.39345">
        <ele>951.8</ele>
        <time>2021-09-01T08:55:20Z</time>
      </trkpt>
      <trkpt lat="44.94359" lon="5.39349">
        <ele>952.3</ele>
        <time>2021-09-01T08:55:21Z</time>
      </trkpt>
      <trkpt lat="44.94354" lon="5.39353">
        <ele>952.8</ele>
        <time>2021-09-01T08:57:11Z</time>
      </trkpt>
      <trkpt lat="44.94349" lon="5.39358">
        <ele>954.2</ele>
        <time>2021-09-01T08:57:12Z</time>
      </trkpt>
      <trkpt lat="44.94347" lon="5.39361">
        <ele>955.4</ele>
        <time>2021-09-01T08:57:13Z</time>
      </trkpt>
      <trkpt lat="44.94347" lon="5.39362">
        <ele>955.7</ele>
        <time>2021-09-01T08:57:14Z</time>
      </trkpt>
      <trkpt lat="44.94344" lon="5.39367">
        <ele>956.9</ele>
        <time>2021-09-01T08:57:16Z</time>
      </trkpt>
      <trkpt lat="44.94343" lon="5.39367">
        <ele>957.2</ele>
        <time>2021-09-01T08:57:18Z</time>
      </trkpt>
      <trkpt lat="44.94343" lon="5.39367">
        <ele>957.5</ele>
        <time>2021-09-01T08:57:19Z</time>
      </trkpt>
      <trkpt lat="44.94342" lon="5.39367">
        <ele>957.7</ele>
        <time>2021-09-01T08:57:20Z</time>
      </trkpt>
      <trkpt lat="44.94342" lon="5.39367">
        <ele>958</ele>
        <time>2021-09-01T08:57:22Z</time>
      </trkpt>
      <trkpt lat="44.94341" lon="5.39367">
        <ele>958.3</ele>
        <time>2021-09-01T08:57:23Z</time>
      </trkpt>
      <trkpt lat="44.94341" lon="5.39367">
        <ele>958.6</ele>
        <time>2021-09-01T08:57:25Z</time>
      </trkpt>
      <trkpt lat="44.94171" lon="5.39465">
        <ele>981.8</ele>
        <time>2021-09-01T09:03:04Z</time>
      </trkpt>
      <trkpt lat="44.94169" lon="5.39468">
        <ele>982.6</ele>
        <time>2021-09-01T09:03:05Z</time>
      </trkpt>
      <trkpt lat="44.94167" lon="5.39471">
        <ele>983</ele>
        <time>2021-09-01T09:03:07Z</time>
      </trkpt>
      <trkpt lat="44.94164" lon="5.39472">
        <ele>983.8</ele>
        <time>2021-09-01T09:03:08Z</time>
      </trkpt>
      <trkpt lat="44.9416" lon="5.39473">
        <ele>984.2</ele>
        <time>2021-09-01T09:03:09Z</time>
      </trkpt>
      <trkpt lat="44.94158" lon="5.39474">
        <ele>984.5</ele>
        <time>2021-09-01T09:03:10Z</time>
      </trkpt>
      <trkpt lat="44.94157" lon="5.39475">
        <ele>984.7</ele>
        <time>2021-09-01T09:03:12Z</time>
      </trkpt>
      <trkpt lat="44.94156" lon="5.39477">
        <ele>985.5</ele>
        <time>2021-09-01T09:03:13Z</time>
      </trkpt>
      <trkpt lat="44.94156" lon="5.39477">
        <ele>985.8</ele>
        <time>2021-09-01T09:03:15Z</time>
      </trkpt>
      <trkpt lat="44.94155" lon="5.39477">
        <ele>986.1</ele>
        <time>2021-09-01T09:03:16Z</time>
      </trkpt>
      <trkpt lat="44.94155" lon="5.39478">
        <ele>986.3</ele>
        <time>2021-09-01T09:03:17Z</time>
      </trkpt>
      <trkpt lat="44.94155" lon="5.39478">
        <ele>986.6</ele>
        <time>2021-09-01T09:03:19Z</time>
      </trkpt>
      <trkpt lat="44.94155" lon="5.39478">
        <ele>986.9</ele>
        <time>2021-09-01T09:03:20Z</time>
      </trkpt>
      <trkpt lat="44.94155" lon="5.39479">
        <ele>987.1</ele>
        <time>2021-09-01T09:03:22Z</time>
      </trkpt>
      <trkpt lat="44.94154" lon="5.39482">
        <ele>987.9</ele>
        <time>2021-09-01T09:03:23Z</time>
      </trkpt>
      <trkpt lat="44.94151" lon="5.39491">
        <ele>989.2</ele>
        <time>2021-09-01T09:03:29Z</time>
      </trkpt>
      <trkpt lat="44.9415" lon="5.39492">
        <ele>989.3</ele>
        <time>2021-09-01T09:03:31Z</time>
      </trkpt>
      <trkpt lat="44.94149" lon="5.39493">
        <ele>989.4</ele>
        <time>2021-09-01T09:03:32Z</time>
      </trkpt>
      <trkpt lat="44.94149" lon="5.39493">
        <ele>989.4</ele>
        <time>2021-09-01T09:03:33Z</time>
      </trkpt>
      <trkpt lat="44.94149" lon="5.39493">
        <ele>989.4</ele>
        <time>2021-09-01T09:03:35Z</time>
      </trkpt>
      <trkpt lat="44.94149" lon="5.39494">
        <ele>989.4</ele>
        <time>2021-09-01T09:03:36Z</time>
      </trkpt>
      <trkpt lat="44.94148" lon="5.39494">
        <ele>989.5</ele>
        <time>2021-09-01T09:03:38Z</time>
      </trkpt>
      <trkpt lat="44.94148" lon="5.39495">
        <ele>989.5</ele>
        <time>2021-09-01T09:03:39Z</time>
      </trkpt>
      <trkpt lat="44.94148" lon="5.39495">
        <ele>989.6</ele>
        <time>2021-09-01T09:03:41Z</time>
      </trkpt>
      <trkpt lat="44.94147" lon="5.39496">
        <ele>989.6</ele>
        <time>2021-09-01T09:03:42Z</time>
      </trkpt>
      <trkpt lat="44.94147" lon="5.39497">
        <ele>989.6</ele>
        <time>2021-09-01T09:03:43Z</time>
      </trkpt>
      <trkpt lat="44.94147" lon="5.39497">
        <ele>989.7</ele>
        <time>2021-09-01T09:03:45Z</time>
      </trkpt>
      <trkpt lat="44.94147" lon="5.39498">
        <ele>989.7</ele>
        <time>2021-09-01T09:03:46Z</time>
      </trkpt>
      <trkpt lat="44.94146" lon="5.39498">
        <ele>989.8</ele>
        <time>2021-09-01T09:03:48Z</time>
      </trkpt>
      <trkpt lat="44.94146" lon="5.39499">
        <ele>989.8</ele>
        <time>2021-09-01T09:03:49Z</time>
      </trkpt>
      <trkpt lat="44.94145" lon="5.39501">
        <ele>990</ele>
        <time>2021-09-01T09:03:50Z</time>
      </trkpt>
      <trkpt lat="44.94144" lon="5.39503">
        <ele>990.2</ele>
        <time>2021-09-01T09:03:52Z</time>
      </trkpt>
      <trkpt lat="44.94143" lon="5.39504">
        <ele>990.3</ele>
        <time>2021-09-01T09:03:53Z</time>
      </trkpt>
      <trkpt lat="44.94141" lon="5.39506">
        <ele>990.4</ele>
        <time>2021-09-01T09:03:54Z</time>
      </trkpt>
      <trkpt lat="44.94139" lon="5.39508">
        <ele>990.7</ele>
        <time>2021-09-01T09:03:55Z</time>
      </trkpt>
      <trkpt lat="44.94136" lon="5.3951">
        <ele>991</ele>
        <time>2021-09-01T09:03:56Z</time>
      </trkpt>
      <trkpt lat="44.94132" lon="5.39513">
        <ele>991.3</ele>
        <time>2021-09-01T09:03:58Z</time>
      </trkpt>
      <trkpt lat="44.94131" lon="5.39514">
        <ele>991.5</ele>
        <time>2021-09-01T09:03:59Z</time>
      </trkpt>
      <trkpt lat="44.9413" lon="5.39515">
        <ele>991.6</ele>
        <time>2021-09-01T09:04:00Z</time>
      </trkpt>
      <trkpt lat="44.94127" lon="5.39516">
        <ele>991.8</ele>
        <time>2021-09-01T09:04:02Z</time>
      </trkpt>
      <trkpt lat="44.94126" lon="5.39518">
        <ele>992</ele>
        <time>2021-09-01T09:04:03Z</time>
      </trkpt>
      <trkpt lat="44.94124" lon="5.39519">
        <ele>992.1</ele>
        <time>2021-09-01T09:04:05Z</time>
      </trkpt>
      <trkpt lat="44.94123" lon="5.39521">
        <ele>992.3</ele>
        <time>2021-09-01T09:04:06Z</time>
      </trkpt>
      <trkpt lat="44.94121" lon="5.39524">
        <ele>992.5</ele>
        <time>2021-09-01T09:04:08Z</time>
      </trkpt>
      <trkpt lat="44.9412" lon="5.39525">
        <ele>992.5</ele>
        <time>2021-09-01T09:04:09Z</time>
      </trkpt>
      <trkpt lat="44.94119" lon="5.39527">
        <ele>992.7</ele>
        <time>2021-09-01T09:04:10Z</time>
      </trkpt>
      <trkpt lat="44.94119" lon="5.39529">
        <ele>992.8</ele>
        <time>2021-09-01T09:04:12Z</time>
      </trkpt>
      <trkpt lat="44.94119" lon="5.39531">
        <ele>992.9</ele>
        <time>2021-09-01T09:04:13Z</time>
      </trkpt>
      <trkpt lat="44.94119" lon="5.39535">
        <ele>993.1</ele>
        <time>2021-09-01T09:04:15Z</time>
      </trkpt>
      <trkpt lat="44.94118" lon="5.39537">
        <ele>993.2</ele>
        <time>2021-09-01T09:04:17Z</time>
      </trkpt>
      <trkpt lat="44.94117" lon="5.39538">
        <ele>993.3</ele>
        <time>2021-09-01T09:04:18Z</time>
      </trkpt>
      <trkpt lat="44.94116" lon="5.39541">
        <ele>993.4</ele>
        <time>2021-09-01T09:04:20Z</time>
      </trkpt>
      <trkpt lat="44.94115" lon="5.39543">
        <ele>993.6</ele>
        <time>2021-09-01T09:04:21Z</time>
      </trkpt>
      <trkpt lat="44.94114" lon="5.39544">
        <ele>993.7</ele>
        <time>2021-09-01T09:04:22Z</time>
      </trkpt>
      <trkpt lat="44.94112" lon="5.39546">
        <ele>993.8</ele>
        <time>2021-09-01T09:04:24Z</time>
      </trkpt>
      <trkpt lat="44.94111" lon="5.39547">
        <ele>993.9</ele>
        <time>2021-09-01T09:04:25Z</time>
      </trkpt>
      <trkpt lat="44.94107" lon="5.3955">
        <ele>994.1</ele>
        <time>2021-09-01T09:04:27Z</time>
      </trkpt>
      <trkpt lat="44.94106" lon="5.3955">
        <ele>994.2</ele>
        <time>2021-09-01T09:04:29Z</time>
      </trkpt>
      <trkpt lat="44.94104" lon="5.39551">
        <ele>994.3</ele>
        <time>2021-09-01T09:04:30Z</time>
      </trkpt>
      <trkpt lat="44.94103" lon="5.39552">
        <ele>994.4</ele>
        <time>2021-09-01T09:04:31Z</time>
      </trkpt>
      <trkpt lat="44.941" lon="5.39553">
        <ele>994.6</ele>
        <time>2021-09-01T09:04:33Z</time>
      </trkpt>
      <trkpt lat="44.94098" lon="5.39554">
        <ele>994.7</ele>
        <time>2021-09-01T09:04:35Z</time>
      </trkpt>
      <trkpt lat="44.94096" lon="5.39555">
        <ele>994.8</ele>
        <time>2021-09-01T09:04:36Z</time>
      </trkpt>
      <trkpt lat="44.94095" lon="5.39557">
        <ele>994.9</ele>
        <time>2021-09-01T09:04:37Z</time>
      </trkpt>
      <trkpt lat="44.94094" lon="5.39558">
        <ele>995</ele>
        <time>2021-09-01T09:04:38Z</time>
      </trkpt>
      <trkpt lat="44.94094" lon="5.3956">
        <ele>995</ele>
        <time>2021-09-01T09:04:39Z</time>
      </trkpt>
      <trkpt lat="44.94094" lon="5.39562">
        <ele>995.1</ele>
        <time>2021-09-01T09:04:41Z</time>
      </trkpt>
      <trkpt lat="44.94094" lon="5.39564">
        <ele>995.2</ele>
        <time>2021-09-01T09:04:42Z</time>
      </trkpt>
      <trkpt lat="44.94094" lon="5.39566">
        <ele>995.2</ele>
        <time>2021-09-01T09:04:43Z</time>
      </trkpt>
      <trkpt lat="44.94095" lon="5.39567">
        <ele>995.3</ele>
        <time>2021-09-01T09:04:46Z</time>
      </trkpt>
      <trkpt lat="44.94095" lon="5.39567">
        <ele>995.3</ele>
        <time>2021-09-01T09:04:47Z</time>
      </trkpt>
      <trkpt lat="44.94095" lon="5.39567">
        <ele>995.3</ele>
        <time>2021-09-01T09:04:49Z</time>
      </trkpt>
      <trkpt lat="44.94095" lon="5.39568">
        <ele>995.3</ele>
        <time>2021-09-01T09:04:50Z</time>
      </trkpt>
      <trkpt lat="44.94095" lon="5.39568">
        <ele>995.3</ele>
        <time>2021-09-01T09:04:51Z</time>
      </trkpt>
      <trkpt lat="44.9409" lon="5.39569">
        <ele>995.4</ele>
        <time>2021-09-01T09:04:52Z</time>
      </trkpt>
      <trkpt lat="44.94086" lon="5.3957">
        <ele>995.5</ele>
        <time>2021-09-01T09:04:54Z</time>
      </trkpt>
      <trkpt lat="44.94081" lon="5.39572">
        <ele>995.6</ele>
        <time>2021-09-01T09:05:46Z</time>
      </trkpt>
      <trkpt lat="44.94077" lon="5.39573">
        <ele>995.6</ele>
        <time>2021-09-01T09:05:47Z</time>
      </trkpt>
      <trkpt lat="44.94074" lon="5.39574">
        <ele>995.6</ele>
        <time>2021-09-01T09:05:48Z</time>
      </trkpt>
      <trkpt lat="44.94069" lon="5.39575">
        <ele>995.6</ele>
        <time>2021-09-01T09:05:50Z</time>
      </trkpt>
      <trkpt lat="44.94065" lon="5.39577">
        <ele>995.6</ele>
        <time>2021-09-01T09:05:51Z</time>
      </trkpt>
      <trkpt lat="44.94062" lon="5.39578">
        <ele>995.6</ele>
        <time>2021-09-01T09:05:52Z</time>
      </trkpt>
      <trkpt lat="44.94057" lon="5.3958">
        <ele>995.7</ele>
        <time>2021-09-01T09:05:54Z</time>
      </trkpt>
      <trkpt lat="44.94052" lon="5.39582">
        <ele>995.7</ele>
        <time>2021-09-01T09:05:55Z</time>
      </trkpt>
      <trkpt lat="44.9405" lon="5.39583">
        <ele>995.7</ele>
        <time>2021-09-01T09:05:57Z</time>
      </trkpt>
      <trkpt lat="44.94046" lon="5.39585">
        <ele>995.7</ele>
        <time>2021-09-01T09:05:58Z</time>
      </trkpt>
      <trkpt lat="44.94043" lon="5.39588">
        <ele>995.7</ele>
        <time>2021-09-01T09:05:59Z</time>
      </trkpt>
      <trkpt lat="44.94041" lon="5.3959">
        <ele>995.6</ele>
        <time>2021-09-01T09:06:00Z</time>
      </trkpt>
      <trkpt lat="44.94039" lon="5.39592">
        <ele>995.6</ele>
        <time>2021-09-01T09:06:01Z</time>
      </trkpt>
      <trkpt lat="44.94035" lon="5.39595">
        <ele>995.6</ele>
        <time>2021-09-01T09:06:03Z</time>
      </trkpt>
      <trkpt lat="44.9403" lon="5.39598">
        <ele>995.5</ele>
        <time>2021-09-01T09:06:05Z</time>
      </trkpt>
      <trkpt lat="44.94028" lon="5.39601">
        <ele>995.5</ele>
        <time>2021-09-01T09:06:06Z</time>
      </trkpt>
      <trkpt lat="44.94025" lon="5.39606">
        <ele>995.5</ele>
        <time>2021-09-01T09:06:07Z</time>
      </trkpt>
      <trkpt lat="44.94023" lon="5.39611">
        <ele>995.5</ele>
        <time>2021-09-01T09:06:09Z</time>
      </trkpt>
      <trkpt lat="44.94021" lon="5.39618">
        <ele>995.5</ele>
        <time>2021-09-01T09:06:11Z</time>
      </trkpt>
      <trkpt lat="44.94019" lon="5.39625">
        <ele>995.6</ele>
        <time>2021-09-01T09:06:12Z</time>
      </trkpt>
      <trkpt lat="44.94018" lon="5.39632">
        <ele>995.6</ele>
        <time>2021-09-01T09:06:14Z</time>
      </trkpt>
      <trkpt lat="44.94017" lon="5.39637">
        <ele>995.7</ele>
        <time>2021-09-01T09:06:15Z</time>
      </trkpt>
      <trkpt lat="44.94016" lon="5.39644">
        <ele>995.8</ele>
        <time>2021-09-01T09:06:16Z</time>
      </trkpt>
      <trkpt lat="44.94015" lon="5.3965">
        <ele>995.9</ele>
        <time>2021-09-01T09:06:18Z</time>
      </trkpt>
      <trkpt lat="44.94013" lon="5.39655">
        <ele>996</ele>
        <time>2021-09-01T09:06:19Z</time>
      </trkpt>
      <trkpt lat="44.94012" lon="5.3966">
        <ele>996.1</ele>
        <time>2021-09-01T09:06:21Z</time>
      </trkpt>
      <trkpt lat="44.9401" lon="5.39663">
        <ele>996.2</ele>
        <time>2021-09-01T09:06:22Z</time>
      </trkpt>
      <trkpt lat="44.94009" lon="5.39666">
        <ele>996.3</ele>
        <time>2021-09-01T09:06:23Z</time>
      </trkpt>
      <trkpt lat="44.94007" lon="5.39671">
        <ele>996.5</ele>
        <time>2021-09-01T09:06:25Z</time>
      </trkpt>
      <trkpt lat="44.94004" lon="5.39674">
        <ele>996.7</ele>
        <time>2021-09-01T09:06:26Z</time>
      </trkpt>
      <trkpt lat="44.94003" lon="5.39675">
        <ele>996.7</ele>
        <time>2021-09-01T09:06:27Z</time>
      </trkpt>
      <trkpt lat="44.94001" lon="5.39676">
        <ele>996.9</ele>
        <time>2021-09-01T09:06:28Z</time>
      </trkpt>
      <trkpt lat="44.94" lon="5.39677">
        <ele>996.9</ele>
        <time>2021-09-01T09:06:29Z</time>
      </trkpt>
      <trkpt lat="44.93996" lon="5.39679">
        <ele>997.1</ele>
        <time>2021-09-01T09:06:30Z</time>
      </trkpt>
      <trkpt lat="44.93995" lon="5.39679">
        <ele>997.2</ele>
        <time>2021-09-01T09:06:31Z</time>
      </trkpt>
      <trkpt lat="44.93993" lon="5.3968">
        <ele>997.3</ele>
        <time>2021-09-01T09:06:32Z</time>
      </trkpt>
      <trkpt lat="44.9399" lon="5.39681">
        <ele>997.4</ele>
        <time>2021-09-01T09:06:34Z</time>
      </trkpt>
      <trkpt lat="44.93988" lon="5.39681">
        <ele>997.5</ele>
        <time>2021-09-01T09:06:35Z</time>
      </trkpt>
      <trkpt lat="44.93984" lon="5.39682">
        <ele>997.7</ele>
        <time>2021-09-01T09:06:37Z</time>
      </trkpt>
      <trkpt lat="44.93981" lon="5.39683">
        <ele>997.8</ele>
        <time>2021-09-01T09:06:38Z</time>
      </trkpt>
      <trkpt lat="44.93978" lon="5.39686">
        <ele>998</ele>
        <time>2021-09-01T09:06:39Z</time>
      </trkpt>
      <trkpt lat="44.93974" lon="5.39689">
        <ele>998.2</ele>
        <time>2021-09-01T09:06:41Z</time>
      </trkpt>
      <trkpt lat="44.93973" lon="5.3969">
        <ele>998.3</ele>
        <time>2021-09-01T09:06:42Z</time>
      </trkpt>
      <trkpt lat="44.93972" lon="5.39691">
        <ele>998.4</ele>
        <time>2021-09-01T09:06:43Z</time>
      </trkpt>
      <trkpt lat="44.9397" lon="5.39693">
        <ele>998.5</ele>
        <time>2021-09-01T09:06:44Z</time>
      </trkpt>
      <trkpt lat="44.93968" lon="5.39694">
        <ele>998.6</ele>
        <time>2021-09-01T09:06:46Z</time>
      </trkpt>
      <trkpt lat="44.93967" lon="5.39696">
        <ele>998.7</ele>
        <time>2021-09-01T09:06:47Z</time>
      </trkpt>
      <trkpt lat="44.93965" lon="5.39697">
        <ele>998.8</ele>
        <time>2021-09-01T09:06:48Z</time>
      </trkpt>
      <trkpt lat="44.93964" lon="5.39698">
        <ele>998.9</ele>
        <time>2021-09-01T09:06:49Z</time>
      </trkpt>
      <trkpt lat="44.9396" lon="5.39702">
        <ele>999.1</ele>
        <time>2021-09-01T09:06:51Z</time>
      </trkpt>
      <trkpt lat="44.93957" lon="5.39705">
        <ele>999.3</ele>
        <time>2021-09-01T09:06:52Z</time>
      </trkpt>
      <trkpt lat="44.93956" lon="5.39706">
        <ele>999.4</ele>
        <time>2021-09-01T09:06:53Z</time>
      </trkpt>
      <trkpt lat="44.93952" lon="5.39709">
        <ele>999.7</ele>
        <time>2021-09-01T09:06:54Z</time>
      </trkpt>
      <trkpt lat="44.93949" lon="5.39712">
        <ele>999.9</ele>
        <time>2021-09-01T09:06:56Z</time>
      </trkpt>
      <trkpt lat="44.93947" lon="5.39714">
        <ele>1000.1</ele>
        <time>2021-09-01T09:06:58Z</time>
      </trkpt>
      <trkpt lat="44.93945" lon="5.39715">
        <ele>1000.2</ele>
        <time>2021-09-01T09:06:59Z</time>
      </trkpt>
      <trkpt lat="44.93941" lon="5.39717">
        <ele>1000.5</ele>
        <time>2021-09-01T09:07:01Z</time>
      </trkpt>
      <trkpt lat="44.93938" lon="5.39719">
        <ele>1000.8</ele>
        <time>2021-09-01T09:07:02Z</time>
      </trkpt>
      <trkpt lat="44.93937" lon="5.39719">
        <ele>1000.9</ele>
        <time>2021-09-01T09:07:03Z</time>
      </trkpt>
      <trkpt lat="44.93933" lon="5.3972">
        <ele>1001.2</ele>
        <time>2021-09-01T09:07:04Z</time>
      </trkpt>
      <trkpt lat="44.9393" lon="5.39722">
        <ele>1001.5</ele>
        <time>2021-09-01T09:07:06Z</time>
      </trkpt>
      <trkpt lat="44.93929" lon="5.39722">
        <ele>1001.6</ele>
        <time>2021-09-01T09:07:07Z</time>
      </trkpt>
      <trkpt lat="44.93928" lon="5.39724">
        <ele>1001.7</ele>
        <time>2021-09-01T09:07:08Z</time>
      </trkpt>
      <trkpt lat="44.93928" lon="5.39726">
        <ele>1001.9</ele>
        <time>2021-09-01T09:07:10Z</time>
      </trkpt>
      <trkpt lat="44.93927" lon="5.39727">
        <ele>1002</ele>
        <time>2021-09-01T09:07:11Z</time>
      </trkpt>
      <trkpt lat="44.93925" lon="5.3973">
        <ele>1002.3</ele>
        <time>2021-09-01T09:07:13Z</time>
      </trkpt>
      <trkpt lat="44.93925" lon="5.39732">
        <ele>1002.5</ele>
        <time>2021-09-01T09:07:14Z</time>
      </trkpt>
      <trkpt lat="44.93924" lon="5.39735">
        <ele>1002.7</ele>
        <time>2021-09-01T09:07:16Z</time>
      </trkpt>
      <trkpt lat="44.93925" lon="5.39735">
        <ele>1002.8</ele>
        <time>2021-09-01T09:07:17Z</time>
      </trkpt>
      <trkpt lat="44.93925" lon="5.39735">
        <ele>1002.9</ele>
        <time>2021-09-01T09:07:18Z</time>
      </trkpt>
      <trkpt lat="44.93925" lon="5.39737">
        <ele>1003</ele>
        <time>2021-09-01T09:07:20Z</time>
      </trkpt>
      <trkpt lat="44.93926" lon="5.39738">
        <ele>1003.2</ele>
        <time>2021-09-01T09:07:21Z</time>
      </trkpt>
      <trkpt lat="44.93926" lon="5.39738">
        <ele>1003.2</ele>
        <time>2021-09-01T09:07:22Z</time>
      </trkpt>
      <trkpt lat="44.93927" lon="5.39739">
        <ele>1003.3</ele>
        <time>2021-09-01T09:07:23Z</time>
      </trkpt>
      <trkpt lat="44.93927" lon="5.39739">
        <ele>1003.4</ele>
        <time>2021-09-01T09:07:24Z</time>
      </trkpt>
      <trkpt lat="44.93928" lon="5.3974">
        <ele>1003.4</ele>
        <time>2021-09-01T09:07:25Z</time>
      </trkpt>
      <trkpt lat="44.93928" lon="5.3974">
        <ele>1003.5</ele>
        <time>2021-09-01T09:07:26Z</time>
      </trkpt>
      <trkpt lat="44.93929" lon="5.3974">
        <ele>1003.6</ele>
        <time>2021-09-01T09:07:28Z</time>
      </trkpt>
      <trkpt lat="44.93929" lon="5.39741">
        <ele>1003.7</ele>
        <time>2021-09-01T09:07:29Z</time>
      </trkpt>
      <trkpt lat="44.9393" lon="5.39741">
        <ele>1003.7</ele>
        <time>2021-09-01T09:07:31Z</time>
      </trkpt>
      <trkpt lat="44.93799" lon="5.39773">
        <ele>1023.3</ele>
        <time>2021-09-01T09:12:30Z</time>
      </trkpt>
      <trkpt lat="44.93795" lon="5.39769">
        <ele>1024</ele>
        <time>2021-09-01T09:12:32Z</time>
      </trkpt>
      <trkpt lat="44.93791" lon="5.39768">
        <ele>1024.5</ele>
        <time>2021-09-01T09:12:33Z</time>
      </trkpt>
      <trkpt lat="44.9379" lon="5.39768">
        <ele>1024.6</ele>
        <time>2021-09-01T09:12:34Z</time>
      </trkpt>
      <trkpt lat="44.93786" lon="5.39768">
        <ele>1025.1</ele>
        <time>2021-09-01T09:12:35Z</time>
      </trkpt>
      <trkpt lat="44.93782" lon="5.39769">
        <ele>1025.5</ele>
        <time>2021-09-01T09:12:37Z</time>
      </trkpt>
      <trkpt lat="44.93781" lon="5.39769">
        <ele>1025.6</ele>
        <time>2021-09-01T09:12:38Z</time>
      </trkpt>
      <trkpt lat="44.93777" lon="5.39771">
        <ele>1026</ele>
        <time>2021-09-01T09:12:39Z</time>
      </trkpt>
      <trkpt lat="44.93775" lon="5.39772">
        <ele>1026.2</ele>
        <time>2021-09-01T09:12:40Z</time>
      </trkpt>
      <trkpt lat="44.93772" lon="5.39774">
        <ele>1026.4</ele>
        <time>2021-09-01T09:12:42Z</time>
      </trkpt>
      <trkpt lat="44.93771" lon="5.39774">
        <ele>1026.5</ele>
        <time>2021-09-01T09:12:43Z</time>
      </trkpt>
      <trkpt lat="44.9377" lon="5.39775">
        <ele>1026.7</ele>
        <time>2021-09-01T09:12:44Z</time>
      </trkpt>
      <trkpt lat="44.93768" lon="5.39776">
        <ele>1026.8</ele>
        <time>2021-09-01T09:12:45Z</time>
      </trkpt>
      <trkpt lat="44.93766" lon="5.39777">
        <ele>1027</ele>
        <time>2021-09-01T09:12:46Z</time>
      </trkpt>
      <trkpt lat="44.93764" lon="5.39778">
        <ele>1027.1</ele>
        <time>2021-09-01T09:12:48Z</time>
      </trkpt>
      <trkpt lat="44.93762" lon="5.39778">
        <ele>1027.3</ele>
        <time>2021-09-01T09:12:49Z</time>
      </trkpt>
      <trkpt lat="44.93762" lon="5.39778">
        <ele>1027.4</ele>
        <time>2021-09-01T09:12:50Z</time>
      </trkpt>
      <trkpt lat="44.93761" lon="5.39778">
        <ele>1027.4</ele>
        <time>2021-09-01T09:12:51Z</time>
      </trkpt>
      <trkpt lat="44.93758" lon="5.39778">
        <ele>1027.7</ele>
        <time>2021-09-01T09:12:52Z</time>
      </trkpt>
      <trkpt lat="44.93756" lon="5.39779">
        <ele>1027.8</ele>
        <time>2021-09-01T09:12:54Z</time>
      </trkpt>
      <trkpt lat="44.93754" lon="5.39779">
        <ele>1028</ele>
        <time>2021-09-01T09:12:55Z</time>
      </trkpt>
      <trkpt lat="44.93752" lon="5.39779">
        <ele>1028.2</ele>
        <time>2021-09-01T09:12:57Z</time>
      </trkpt>
      <trkpt lat="44.9375" lon="5.39778">
        <ele>1028.4</ele>
        <time>2021-09-01T09:12:58Z</time>
      </trkpt>
      <trkpt lat="44.93748" lon="5.39778">
        <ele>1028.5</ele>
        <time>2021-09-01T09:13:00Z</time>
      </trkpt>
      <trkpt lat="44.93747" lon="5.39778">
        <ele>1028.6</ele>
        <time>2021-09-01T09:13:01Z</time>
      </trkpt>
      <trkpt lat="44.93746" lon="5.39779">
        <ele>1028.8</ele>
        <time>2021-09-01T09:13:02Z</time>
      </trkpt>
      <trkpt lat="44.93743" lon="5.3978">
        <ele>1029</ele>
        <time>2021-09-01T09:13:04Z</time>
      </trkpt>
      <trkpt lat="44.93742" lon="5.3978">
        <ele>1029.1</ele>
        <time>2021-09-01T09:13:05Z</time>
      </trkpt>
      <trkpt lat="44.9374" lon="5.3978">
        <ele>1029.3</ele>
        <time>2021-09-01T09:13:07Z</time>
      </trkpt>
      <trkpt lat="44.93737" lon="5.39779">
        <ele>1029.6</ele>
        <time>2021-09-01T09:13:08Z</time>
      </trkpt>
      <trkpt lat="44.93736" lon="5.39779">
        <ele>1029.7</ele>
        <time>2021-09-01T09:13:09Z</time>
      </trkpt>
      <trkpt lat="44.93734" lon="5.39779">
        <ele>1029.8</ele>
        <time>2021-09-01T09:13:11Z</time>
      </trkpt>
      <trkpt lat="44.93732" lon="5.39779">
        <ele>1030</ele>
        <time>2021-09-01T09:13:13Z</time>
      </trkpt>
      <trkpt lat="44.93729" lon="5.39778">
        <ele>1030.2</ele>
        <time>2021-09-01T09:13:14Z</time>
      </trkpt>
      <trkpt lat="44.93728" lon="5.39778">
        <ele>1030.3</ele>
        <time>2021-09-01T09:13:16Z</time>
      </trkpt>
      <trkpt lat="44.93727" lon="5.39778">
        <ele>1030.4</ele>
        <time>2021-09-01T09:13:17Z</time>
      </trkpt>
      <trkpt lat="44.93726" lon="5.39778">
        <ele>1030.5</ele>
        <time>2021-09-01T09:13:18Z</time>
      </trkpt>
      <trkpt lat="44.93725" lon="5.39778">
        <ele>1030.6</ele>
        <time>2021-09-01T09:13:19Z</time>
      </trkpt>
      <trkpt lat="44.93722" lon="5.39779">
        <ele>1030.8</ele>
        <time>2021-09-01T09:13:21Z</time>
      </trkpt>
      <trkpt lat="44.9372" lon="5.3978">
        <ele>1030.9</ele>
        <time>2021-09-01T09:13:22Z</time>
      </trkpt>
      <trkpt lat="44.93718" lon="5.39781">
        <ele>1031.1</ele>
        <time>2021-09-01T09:13:24Z</time>
      </trkpt>
      <trkpt lat="44.93717" lon="5.39781">
        <ele>1031.2</ele>
        <time>2021-09-01T09:13:25Z</time>
      </trkpt>
      <trkpt lat="44.93715" lon="5.39781">
        <ele>1031.3</ele>
        <time>2021-09-01T09:13:26Z</time>
      </trkpt>
      <trkpt lat="44.93713" lon="5.39781">
        <ele>1031.4</ele>
        <time>2021-09-01T09:13:28Z</time>
      </trkpt>
      <trkpt lat="44.9371" lon="5.39781">
        <ele>1031.7</ele>
        <time>2021-09-01T09:13:30Z</time>
      </trkpt>
      <trkpt lat="44.93709" lon="5.39781">
        <ele>1031.7</ele>
        <time>2021-09-01T09:13:31Z</time>
      </trkpt>
      <trkpt lat="44.93707" lon="5.3978">
        <ele>1031.8</ele>
        <time>2021-09-01T09:13:32Z</time>
      </trkpt>
      <trkpt lat="44.93706" lon="5.39779">
        <ele>1031.9</ele>
        <time>2021-09-01T09:13:34Z</time>
      </trkpt>
      <trkpt lat="44.93705" lon="5.39779">
        <ele>1032</ele>
        <time>2021-09-01T09:13:35Z</time>
      </trkpt>
      <trkpt lat="44.93704" lon="5.39778">
        <ele>1032.1</ele>
        <time>2021-09-01T09:13:36Z</time>
      </trkpt>
      <trkpt lat="44.93703" lon="5.39778">
        <ele>1032.2</ele>
        <time>2021-09-01T09:13:37Z</time>
      </trkpt>
      <trkpt lat="44.937" lon="5.39777">
        <ele>1032.4</ele>
        <time>2021-09-01T09:13:39Z</time>
      </trkpt>
      <trkpt lat="44.937" lon="5.39777">
        <ele>1032.4</ele>
        <time>2021-09-01T09:13:40Z</time>
      </trkpt>
      <trkpt lat="44.93699" lon="5.39776">
        <ele>1032.5</ele>
        <time>2021-09-01T09:13:41Z</time>
      </trkpt>
      <trkpt lat="44.93697" lon="5.39777">
        <ele>1032.6</ele>
        <time>2021-09-01T09:13:43Z</time>
      </trkpt>
      <trkpt lat="44.93697" lon="5.39778">
        <ele>1032.7</ele>
        <time>2021-09-01T09:13:44Z</time>
      </trkpt>
      <trkpt lat="44.93696" lon="5.39778">
        <ele>1032.8</ele>
        <time>2021-09-01T09:13:45Z</time>
      </trkpt>
      <trkpt lat="44.93696" lon="5.39779">
        <ele>1032.8</ele>
        <time>2021-09-01T09:13:47Z</time>
      </trkpt>
      <trkpt lat="44.93697" lon="5.39779">
        <ele>1032.9</ele>
        <time>2021-09-01T09:13:48Z</time>
      </trkpt>
      <trkpt lat="44.93697" lon="5.3978">
        <ele>1032.9</ele>
        <time>2021-09-01T09:13:49Z</time>
      </trkpt>
      <trkpt lat="44.93697" lon="5.3978">
        <ele>1032.9</ele>
        <time>2021-09-01T09:13:51Z</time>
      </trkpt>
      <trkpt lat="44.93697" lon="5.39781">
        <ele>1033</ele>
        <time>2021-09-01T09:13:52Z</time>
      </trkpt>
      <trkpt lat="44.93697" lon="5.39781">
        <ele>1033</ele>
        <time>2021-09-01T09:13:54Z</time>
      </trkpt>
      <trkpt lat="44.93697" lon="5.39781">
        <ele>1033</ele>
        <time>2021-09-01T09:13:55Z</time>
      </trkpt>
      <trkpt lat="44.93615" lon="5.39809">
        <ele>1046.4</ele>
        <time>2021-09-01T09:16:50Z</time>
      </trkpt>
      <trkpt lat="44.9361" lon="5.39811">
        <ele>1047</ele>
        <time>2021-09-01T09:16:52Z</time>
      </trkpt>
      <trkpt lat="44.93607" lon="5.39811">
        <ele>1047.2</ele>
        <time>2021-09-01T09:16:53Z</time>
      </trkpt>
      <trkpt lat="44.93603" lon="5.39812">
        <ele>1047.6</ele>
        <time>2021-09-01T09:16:54Z</time>
      </trkpt>
      <trkpt lat="44.936" lon="5.39811">
        <ele>1047.9</ele>
        <time>2021-09-01T09:16:56Z</time>
      </trkpt>
      <trkpt lat="44.93597" lon="5.39811">
        <ele>1048.2</ele>
        <time>2021-09-01T09:16:57Z</time>
      </trkpt>
      <trkpt lat="44.93592" lon="5.3981">
        <ele>1048.6</ele>
        <time>2021-09-01T09:16:59Z</time>
      </trkpt>
      <trkpt lat="44.93591" lon="5.3981">
        <ele>1048.8</ele>
        <time>2021-09-01T09:17:00Z</time>
      </trkpt>
      <trkpt lat="44.9359" lon="5.39809">
        <ele>1048.9</ele>
        <time>2021-09-01T09:17:01Z</time>
      </trkpt>
      <trkpt lat="44.93587" lon="5.39809">
        <ele>1049.1</ele>
        <time>2021-09-01T09:17:02Z</time>
      </trkpt>
      <trkpt lat="44.93586" lon="5.39809">
        <ele>1049.2</ele>
        <time>2021-09-01T09:17:04Z</time>
      </trkpt>
      <trkpt lat="44.93585" lon="5.39809">
        <ele>1049.3</ele>
        <time>2021-09-01T09:17:05Z</time>
      </trkpt>
      <trkpt lat="44.93582" lon="5.39808">
        <ele>1049.6</ele>
        <time>2021-09-01T09:17:07Z</time>
      </trkpt>
      <trkpt lat="44.93579" lon="5.39809">
        <ele>1049.9</ele>
        <time>2021-09-01T09:17:08Z</time>
      </trkpt>
      <trkpt lat="44.93577" lon="5.39809">
        <ele>1050.1</ele>
        <time>2021-09-01T09:17:09Z</time>
      </trkpt>
      <trkpt lat="44.93575" lon="5.3981">
        <ele>1050.3</ele>
        <time>2021-09-01T09:17:11Z</time>
      </trkpt>
      <trkpt lat="44.93573" lon="5.39811">
        <ele>1050.5</ele>
        <time>2021-09-01T09:17:12Z</time>
      </trkpt>
      <trkpt lat="44.93571" lon="5.39812">
        <ele>1050.7</ele>
        <time>2021-09-01T09:17:14Z</time>
      </trkpt>
      <trkpt lat="44.9357" lon="5.39812">
        <ele>1050.8</ele>
        <time>2021-09-01T09:17:15Z</time>
      </trkpt>
      <trkpt lat="44.93568" lon="5.39813">
        <ele>1051</ele>
        <time>2021-09-01T09:17:16Z</time>
      </trkpt>
      <trkpt lat="44.93565" lon="5.39814">
        <ele>1051.1</ele>
        <time>2021-09-01T09:17:17Z</time>
      </trkpt>
      <trkpt lat="44.93564" lon="5.39814">
        <ele>1051.3</ele>
        <time>2021-09-01T09:17:19Z</time>
      </trkpt>
      <trkpt lat="44.93561" lon="5.39815">
        <ele>1051.5</ele>
        <time>2021-09-01T09:17:20Z</time>
      </trkpt>
      <trkpt lat="44.9356" lon="5.39815">
        <ele>1051.6</ele>
        <time>2021-09-01T09:17:21Z</time>
      </trkpt>
      <trkpt lat="44.93558" lon="5.39816">
        <ele>1051.7</ele>
        <time>2021-09-01T09:17:22Z</time>
      </trkpt>
      <trkpt lat="44.93556" lon="5.39817">
        <ele>1051.9</ele>
        <time>2021-09-01T09:17:24Z</time>
      </trkpt>
      <trkpt lat="44.93554" lon="5.39818">
        <ele>1052</ele>
        <time>2021-09-01T09:17:26Z</time>
      </trkpt>
      <trkpt lat="44.93552" lon="5.39818">
        <ele>1052.1</ele>
        <time>2021-09-01T09:17:27Z</time>
      </trkpt>
      <trkpt lat="44.93549" lon="5.39819">
        <ele>1052.3</ele>
        <time>2021-09-01T09:17:28Z</time>
      </trkpt>
      <trkpt lat="44.93548" lon="5.39819">
        <ele>1052.4</ele>
        <time>2021-09-01T09:17:29Z</time>
      </trkpt>
      <trkpt lat="44.93544" lon="5.39819">
        <ele>1052.7</ele>
        <time>2021-09-01T09:17:31Z</time>
      </trkpt>
      <trkpt lat="44.93543" lon="5.3982">
        <ele>1052.8</ele>
        <time>2021-09-01T09:17:32Z</time>
      </trkpt>
      <trkpt lat="44.9354" lon="5.39821">
        <ele>1053</ele>
        <time>2021-09-01T09:17:34Z</time>
      </trkpt>
      <trkpt lat="44.93536" lon="5.39821">
        <ele>1053.2</ele>
        <time>2021-09-01T09:17:35Z</time>
      </trkpt>
      <trkpt lat="44.93533" lon="5.39821">
        <ele>1053.4</ele>
        <time>2021-09-01T09:17:37Z</time>
      </trkpt>
      <trkpt lat="44.93532" lon="5.39821">
        <ele>1053.4</ele>
        <time>2021-09-01T09:17:38Z</time>
      </trkpt>
      <trkpt lat="44.93529" lon="5.39822">
        <ele>1053.6</ele>
        <time>2021-09-01T09:17:39Z</time>
      </trkpt>
      <trkpt lat="44.93525" lon="5.39822">
        <ele>1053.8</ele>
        <time>2021-09-01T09:17:41Z</time>
      </trkpt>
      <trkpt lat="44.93523" lon="5.39822">
        <ele>1053.9</ele>
        <time>2021-09-01T09:17:42Z</time>
      </trkpt>
      <trkpt lat="44.9352" lon="5.39822">
        <ele>1054</ele>
        <time>2021-09-01T09:17:43Z</time>
      </trkpt>
      <trkpt lat="44.93519" lon="5.39822">
        <ele>1054.1</ele>
        <time>2021-09-01T09:17:45Z</time>
      </trkpt>
      <trkpt lat="44.93517" lon="5.39821">
        <ele>1054.2</ele>
        <time>2021-09-01T09:17:46Z</time>
      </trkpt>
      <trkpt lat="44.93516" lon="5.39821">
        <ele>1054.2</ele>
        <time>2021-09-01T09:17:47Z</time>
      </trkpt>
      <trkpt lat="44.93512" lon="5.39821">
        <ele>1054.4</ele>
        <time>2021-09-01T09:17:48Z</time>
      </trkpt>
      <trkpt lat="44.93509" lon="5.39822">
        <ele>1054.5</ele>
        <time>2021-09-01T09:17:50Z</time>
      </trkpt>
      <trkpt lat="44.93507" lon="5.39823">
        <ele>1054.6</ele>
        <time>2021-09-01T09:17:51Z</time>
      </trkpt>
      <trkpt lat="44.93504" lon="5.39825">
        <ele>1054.8</ele>
        <time>2021-09-01T09:17:53Z</time>
      </trkpt>
      <trkpt lat="44.93501" lon="5.39826">
        <ele>1054.9</ele>
        <time>2021-09-01T09:17:54Z</time>
      </trkpt>
      <trkpt lat="44.93499" lon="5.39826">
        <ele>1055</ele>
        <time>2021-09-01T09:17:55Z</time>
      </trkpt>
      <trkpt lat="44.93496" lon="5.39826">
        <ele>1055.1</ele>
        <time>2021-09-01T09:17:57Z</time>
      </trkpt>
      <trkpt lat="44.93493" lon="5.39827">
        <ele>1055.3</ele>
        <time>2021-09-01T09:17:58Z</time>
      </trkpt>
      <trkpt lat="44.9349" lon="5.39826">
        <ele>1055.4</ele>
        <time>2021-09-01T09:18:00Z</time>
      </trkpt>
      <trkpt lat="44.93487" lon="5.39827">
        <ele>1055.5</ele>
        <time>2021-09-01T09:18:01Z</time>
      </trkpt>
      <trkpt lat="44.93482" lon="5.39827">
        <ele>1055.7</ele>
        <time>2021-09-01T09:18:03Z</time>
      </trkpt>
      <trkpt lat="44.9348" lon="5.39827">
        <ele>1055.7</ele>
        <time>2021-09-01T09:18:04Z</time>
      </trkpt>
      <trkpt lat="44.93478" lon="5.39827">
        <ele>1055.8</ele>
        <time>2021-09-01T09:18:05Z</time>
      </trkpt>
      <trkpt lat="44.93475" lon="5.39827">
        <ele>1055.8</ele>
        <time>2021-09-01T09:18:06Z</time>
      </trkpt>
      <trkpt lat="44.93471" lon="5.39827">
        <ele>1055.9</ele>
        <time>2021-09-01T09:18:08Z</time>
      </trkpt>
      <trkpt lat="44.93467" lon="5.39826">
        <ele>1055.9</ele>
        <time>2021-09-01T09:18:09Z</time>
      </trkpt>
      <trkpt lat="44.93464" lon="5.39826">
        <ele>1056</ele>
        <time>2021-09-01T09:18:10Z</time>
      </trkpt>
      <trkpt lat="44.93461" lon="5.39826">
        <ele>1056</ele>
        <time>2021-09-01T09:18:11Z</time>
      </trkpt>
      <trkpt lat="44.93457" lon="5.39826">
        <ele>1056</ele>
        <time>2021-09-01T09:18:13Z</time>
      </trkpt>
      <trkpt lat="44.93454" lon="5.39827">
        <ele>1056</ele>
        <time>2021-09-01T09:18:14Z</time>
      </trkpt>
      <trkpt lat="44.9345" lon="5.39829">
        <ele>1055.9</ele>
        <time>2021-09-01T09:18:15Z</time>
      </trkpt>
      <trkpt lat="44.93447" lon="5.3983">
        <ele>1055.9</ele>
        <time>2021-09-01T09:18:17Z</time>
      </trkpt>
      <trkpt lat="44.93444" lon="5.39831">
        <ele>1055.8</ele>
        <time>2021-09-01T09:18:18Z</time>
      </trkpt>
      <trkpt lat="44.93439" lon="5.39832">
        <ele>1055.7</ele>
        <time>2021-09-01T09:18:19Z</time>
      </trkpt>
      <trkpt lat="44.93434" lon="5.3983">
        <ele>1055.5</ele>
        <time>2021-09-01T09:18:21Z</time>
      </trkpt>
      <trkpt lat="44.93433" lon="5.3983">
        <ele>1055.5</ele>
        <time>2021-09-01T09:18:22Z</time>
      </trkpt>
      <trkpt lat="44.93431" lon="5.39829">
        <ele>1055.4</ele>
        <time>2021-09-01T09:18:23Z</time>
      </trkpt>
      <trkpt lat="44.93429" lon="5.39827">
        <ele>1055.3</ele>
        <time>2021-09-01T09:18:24Z</time>
      </trkpt>
      <trkpt lat="44.93428" lon="5.39826">
        <ele>1055.2</ele>
        <time>2021-09-01T09:18:26Z</time>
      </trkpt>
      <trkpt lat="44.93427" lon="5.39825">
        <ele>1055.1</ele>
        <time>2021-09-01T09:18:27Z</time>
      </trkpt>
      <trkpt lat="44.93427" lon="5.39824">
        <ele>1055.1</ele>
        <time>2021-09-01T09:18:29Z</time>
      </trkpt>
      <trkpt lat="44.93426" lon="5.39823">
        <ele>1055</ele>
        <time>2021-09-01T09:18:30Z</time>
      </trkpt>
      <trkpt lat="44.93425" lon="5.39821">
        <ele>1054.8</ele>
        <time>2021-09-01T09:18:31Z</time>
      </trkpt>
      <trkpt lat="44.93424" lon="5.39819">
        <ele>1054.7</ele>
        <time>2021-09-01T09:18:32Z</time>
      </trkpt>
      <trkpt lat="44.93423" lon="5.39817">
        <ele>1054.6</ele>
        <time>2021-09-01T09:18:34Z</time>
      </trkpt>
      <trkpt lat="44.93422" lon="5.39815">
        <ele>1054.4</ele>
        <time>2021-09-01T09:18:35Z</time>
      </trkpt>
      <trkpt lat="44.9342" lon="5.39814">
        <ele>1054.3</ele>
        <time>2021-09-01T09:18:36Z</time>
      </trkpt>
      <trkpt lat="44.93418" lon="5.3981">
        <ele>1053.9</ele>
        <time>2021-09-01T09:18:38Z</time>
      </trkpt>
      <trkpt lat="44.93415" lon="5.39807">
        <ele>1053.6</ele>
        <time>2021-09-01T09:18:39Z</time>
      </trkpt>
      <trkpt lat="44.93414" lon="5.39806">
        <ele>1053.4</ele>
        <time>2021-09-01T09:18:40Z</time>
      </trkpt>
      <trkpt lat="44.93412" lon="5.39805">
        <ele>1053.2</ele>
        <time>2021-09-01T09:18:41Z</time>
      </trkpt>
      <trkpt lat="44.93409" lon="5.39803">
        <ele>1052.8</ele>
        <time>2021-09-01T09:18:43Z</time>
      </trkpt>
      <trkpt lat="44.93406" lon="5.39801">
        <ele>1052.4</ele>
        <time>2021-09-01T09:18:44Z</time>
      </trkpt>
      <trkpt lat="44.93405" lon="5.39801">
        <ele>1052.3</ele>
        <time>2021-09-01T09:18:45Z</time>
      </trkpt>
      <trkpt lat="44.93403" lon="5.398">
        <ele>1052.1</ele>
        <time>2021-09-01T09:18:46Z</time>
      </trkpt>
      <trkpt lat="44.934" lon="5.39798">
        <ele>1051.7</ele>
        <time>2021-09-01T09:18:48Z</time>
      </trkpt>
      <trkpt lat="44.93398" lon="5.39797">
        <ele>1051.5</ele>
        <time>2021-09-01T09:18:49Z</time>
      </trkpt>
      <trkpt lat="44.93398" lon="5.39797">
        <ele>1051.4</ele>
        <time>2021-09-01T09:18:51Z</time>
      </trkpt>
      <trkpt lat="44.93396" lon="5.39795">
        <ele>1051.2</ele>
        <time>2021-09-01T09:18:53Z</time>
      </trkpt>
      <trkpt lat="44.93394" lon="5.39795">
        <ele>1051</ele>
        <time>2021-09-01T09:18:54Z</time>
      </trkpt>
      <trkpt lat="44.93393" lon="5.39795">
        <ele>1050.9</ele>
        <time>2021-09-01T09:18:55Z</time>
      </trkpt>
      <trkpt lat="44.9339" lon="5.39795">
        <ele>1050.6</ele>
        <time>2021-09-01T09:18:57Z</time>
      </trkpt>
      <trkpt lat="44.93389" lon="5.39794">
        <ele>1050.4</ele>
        <time>2021-09-01T09:18:58Z</time>
      </trkpt>
      <trkpt lat="44.93388" lon="5.39794">
        <ele>1050.2</ele>
        <time>2021-09-01T09:18:59Z</time>
      </trkpt>
      <trkpt lat="44.93384" lon="5.39793">
        <ele>1049.9</ele>
        <time>2021-09-01T09:19:00Z</time>
      </trkpt>
      <trkpt lat="44.93383" lon="5.39793">
        <ele>1049.7</ele>
        <time>2021-09-01T09:19:01Z</time>
      </trkpt>
      <trkpt lat="44.9338" lon="5.39792">
        <ele>1049.4</ele>
        <time>2021-09-01T09:19:03Z</time>
      </trkpt>
      <trkpt lat="44.93376" lon="5.39791">
        <ele>1048.9</ele>
        <time>2021-09-01T09:19:05Z</time>
      </trkpt>
      <trkpt lat="44.93372" lon="5.3979">
        <ele>1048.5</ele>
        <time>2021-09-01T09:19:06Z</time>
      </trkpt>
      <trkpt lat="44.9337" lon="5.3979">
        <ele>1048.3</ele>
        <time>2021-09-01T09:19:07Z</time>
      </trkpt>
      <trkpt lat="44.93367" lon="5.3979">
        <ele>1047.9</ele>
        <time>2021-09-01T09:19:09Z</time>
      </trkpt>
      <trkpt lat="44.93365" lon="5.3979">
        <ele>1047.7</ele>
        <time>2021-09-01T09:19:10Z</time>
      </trkpt>
      <trkpt lat="44.93363" lon="5.39789">
        <ele>1047.4</ele>
        <time>2021-09-01T09:19:12Z</time>
      </trkpt>
      <trkpt lat="44.9336" lon="5.39788">
        <ele>1047.1</ele>
        <time>2021-09-01T09:19:13Z</time>
      </trkpt>
      <trkpt lat="44.93356" lon="5.3979">
        <ele>1046.7</ele>
        <time>2021-09-01T09:19:15Z</time>
      </trkpt>
      <trkpt lat="44.93355" lon="5.3979">
        <ele>1046.6</ele>
        <time>2021-09-01T09:19:16Z</time>
      </trkpt>
      <trkpt lat="44.93352" lon="5.39791">
        <ele>1046.3</ele>
        <time>2021-09-01T09:19:17Z</time>
      </trkpt>
      <trkpt lat="44.93351" lon="5.39792">
        <ele>1046.2</ele>
        <time>2021-09-01T09:19:18Z</time>
      </trkpt>
      <trkpt lat="44.93347" lon="5.39793">
        <ele>1045.8</ele>
        <time>2021-09-01T09:19:19Z</time>
      </trkpt>
      <trkpt lat="44.93345" lon="5.39795">
        <ele>1045.5</ele>
        <time>2021-09-01T09:19:21Z</time>
      </trkpt>
      <trkpt lat="44.93342" lon="5.39798">
        <ele>1045.2</ele>
        <time>2021-09-01T09:19:22Z</time>
      </trkpt>
      <trkpt lat="44.93339" lon="5.39802">
        <ele>1044.8</ele>
        <time>2021-09-01T09:19:23Z</time>
      </trkpt>
      <trkpt lat="44.93336" lon="5.39803">
        <ele>1044.6</ele>
        <time>2021-09-01T09:19:25Z</time>
      </trkpt>
      <trkpt lat="44.93335" lon="5.39805">
        <ele>1044.4</ele>
        <time>2021-09-01T09:19:26Z</time>
      </trkpt>
      <trkpt lat="44.93334" lon="5.39806">
        <ele>1044.3</ele>
        <time>2021-09-01T09:19:27Z</time>
      </trkpt>
      <trkpt lat="44.93333" lon="5.39807">
        <ele>1044.2</ele>
        <time>2021-09-01T09:19:29Z</time>
      </trkpt>
      <trkpt lat="44.93333" lon="5.39807">
        <ele>1044.2</ele>
        <time>2021-09-01T09:19:30Z</time>
      </trkpt>
      <trkpt lat="44.93333" lon="5.39807">
        <ele>1044.2</ele>
        <time>2021-09-01T09:19:32Z</time>
      </trkpt>
      <trkpt lat="44.93333" lon="5.39808">
        <ele>1044.2</ele>
        <time>2021-09-01T09:19:33Z</time>
      </trkpt>
      <trkpt lat="44.93334" lon="5.39808">
        <ele>1044.1</ele>
        <time>2021-09-01T09:19:35Z</time>
      </trkpt>
      <trkpt lat="44.93334" lon="5.39808">
        <ele>1044.1</ele>
        <time>2021-09-01T09:19:36Z</time>
      </trkpt>
      <trkpt lat="44.93328" lon="5.39811">
        <ele>1043.5</ele>
        <time>2021-09-01T09:19:51Z</time>
      </trkpt>
      <trkpt lat="44.93325" lon="5.39808">
        <ele>1043.2</ele>
        <time>2021-09-01T09:19:52Z</time>
      </trkpt>
      <trkpt lat="44.93316" lon="5.39796">
        <ele>1042.3</ele>
        <time>2021-09-01T09:19:54Z</time>
      </trkpt>
      <trkpt lat="44.93307" lon="5.39783">
        <ele>1041.7</ele>
        <time>2021-09-01T09:19:56Z</time>
      </trkpt>
      <trkpt lat="44.93303" lon="5.39764">
        <ele>1041.6</ele>
        <time>2021-09-01T09:19:58Z</time>
      </trkpt>
      <trkpt lat="44.93301" lon="5.39759">
        <ele>1041.6</ele>
        <time>2021-09-01T09:19:59Z</time>
      </trkpt>
      <trkpt lat="44.93301" lon="5.39758">
        <ele>1041.7</ele>
        <time>2021-09-01T09:20:00Z</time>
      </trkpt>
      <trkpt lat="44.93299" lon="5.39764">
        <ele>1041.8</ele>
        <time>2021-09-01T09:20:01Z</time>
      </trkpt>
      <trkpt lat="44.93299" lon="5.3977">
        <ele>1041.9</ele>
        <time>2021-09-01T09:20:02Z</time>
      </trkpt>
      <trkpt lat="44.93298" lon="5.39775">
        <ele>1042.1</ele>
        <time>2021-09-01T09:20:03Z</time>
      </trkpt>
      <trkpt lat="44.93298" lon="5.39796">
        <ele>1042.9</ele>
        <time>2021-09-01T09:20:06Z</time>
      </trkpt>
      <trkpt lat="44.93296" lon="5.398">
        <ele>1043.2</ele>
        <time>2021-09-01T09:20:07Z</time>
      </trkpt>
      <trkpt lat="44.93296" lon="5.39808">
        <ele>1043.6</ele>
        <time>2021-09-01T09:20:08Z</time>
      </trkpt>
      <trkpt lat="44.93296" lon="5.39815">
        <ele>1044</ele>
        <time>2021-09-01T09:20:10Z</time>
      </trkpt>
      <trkpt lat="44.93297" lon="5.39823">
        <ele>1044.5</ele>
        <time>2021-09-01T09:20:11Z</time>
      </trkpt>
      <trkpt lat="44.93297" lon="5.39828">
        <ele>1044.9</ele>
        <time>2021-09-01T09:20:12Z</time>
      </trkpt>
      <trkpt lat="44.93297" lon="5.39832">
        <ele>1045.2</ele>
        <time>2021-09-01T09:20:14Z</time>
      </trkpt>
      <trkpt lat="44.93297" lon="5.39834">
        <ele>1045.3</ele>
        <time>2021-09-01T09:20:15Z</time>
      </trkpt>
      <trkpt lat="44.93297" lon="5.39839">
        <ele>1045.7</ele>
        <time>2021-09-01T09:20:16Z</time>
      </trkpt>
      <trkpt lat="44.93296" lon="5.39839">
        <ele>1045.8</ele>
        <time>2021-09-01T09:20:17Z</time>
      </trkpt>
      <trkpt lat="44.93294" lon="5.39839">
        <ele>1046.1</ele>
        <time>2021-09-01T09:20:18Z</time>
      </trkpt>
      <trkpt lat="44.93292" lon="5.39839">
        <ele>1046.2</ele>
        <time>2021-09-01T09:20:20Z</time>
      </trkpt>
      <trkpt lat="44.93291" lon="5.39838">
        <ele>1046.4</ele>
        <time>2021-09-01T09:20:21Z</time>
      </trkpt>
      <trkpt lat="44.9329" lon="5.39838">
        <ele>1046.5</ele>
        <time>2021-09-01T09:20:23Z</time>
      </trkpt>
      <trkpt lat="44.93285" lon="5.39837">
        <ele>1047.1</ele>
        <time>2021-09-01T09:20:24Z</time>
      </trkpt>
      <trkpt lat="44.93282" lon="5.39836">
        <ele>1047.5</ele>
        <time>2021-09-01T09:20:26Z</time>
      </trkpt>
      <trkpt lat="44.93279" lon="5.39836">
        <ele>1047.9</ele>
        <time>2021-09-01T09:20:27Z</time>
      </trkpt>
      <trkpt lat="44.93276" lon="5.39835">
        <ele>1048.3</ele>
        <time>2021-09-01T09:20:28Z</time>
      </trkpt>
      <trkpt lat="44.93273" lon="5.39835">
        <ele>1048.7</ele>
        <time>2021-09-01T09:20:29Z</time>
      </trkpt>
      <trkpt lat="44.9327" lon="5.39834">
        <ele>1049.1</ele>
        <time>2021-09-01T09:20:30Z</time>
      </trkpt>
      <trkpt lat="44.93267" lon="5.39833">
        <ele>1049.5</ele>
        <time>2021-09-01T09:20:33Z</time>
      </trkpt>
      <trkpt lat="44.93264" lon="5.39833">
        <ele>1049.9</ele>
        <time>2021-09-01T09:20:35Z</time>
      </trkpt>
      <trkpt lat="44.93261" lon="5.39832">
        <ele>1050.2</ele>
        <time>2021-09-01T09:20:36Z</time>
      </trkpt>
      <trkpt lat="44.93258" lon="5.39831">
        <ele>1050.5</ele>
        <time>2021-09-01T09:20:37Z</time>
      </trkpt>
      <trkpt lat="44.93255" lon="5.39831">
        <ele>1050.8</ele>
        <time>2021-09-01T09:20:39Z</time>
      </trkpt>
      <trkpt lat="44.93251" lon="5.3983">
        <ele>1051.1</ele>
        <time>2021-09-01T09:20:41Z</time>
      </trkpt>
      <trkpt lat="44.93248" lon="5.3983">
        <ele>1051.3</ele>
        <time>2021-09-01T09:20:42Z</time>
      </trkpt>
      <trkpt lat="44.93245" lon="5.39829">
        <ele>1051.6</ele>
        <time>2021-09-01T09:20:43Z</time>
      </trkpt>
      <trkpt lat="44.93242" lon="5.39828">
        <ele>1051.8</ele>
        <time>2021-09-01T09:21:45Z</time>
      </trkpt>
      <trkpt lat="44.93239" lon="5.39828">
        <ele>1052</ele>
        <time>2021-09-01T09:21:46Z</time>
      </trkpt>
      <trkpt lat="44.93236" lon="5.39827">
        <ele>1052.3</ele>
        <time>2021-09-01T09:21:47Z</time>
      </trkpt>
      <trkpt lat="44.93235" lon="5.39827">
        <ele>1052.3</ele>
        <time>2021-09-01T09:21:49Z</time>
      </trkpt>
      <trkpt lat="44.93233" lon="5.39825">
        <ele>1052.5</ele>
        <time>2021-09-01T09:21:51Z</time>
      </trkpt>
      <trkpt lat="44.9323" lon="5.39825">
        <ele>1052.7</ele>
        <time>2021-09-01T09:21:54Z</time>
      </trkpt>
      <trkpt lat="44.9323" lon="5.39825">
        <ele>1052.7</ele>
        <time>2021-09-01T09:21:55Z</time>
      </trkpt>
      <trkpt lat="44.9323" lon="5.39825">
        <ele>1052.7</ele>
        <time>2021-09-01T09:21:56Z</time>
      </trkpt>
      <trkpt lat="44.93229" lon="5.39825">
        <ele>1052.7</ele>
        <time>2021-09-01T09:21:58Z</time>
      </trkpt>
      <trkpt lat="44.93229" lon="5.39825">
        <ele>1052.8</ele>
        <time>2021-09-01T09:21:59Z</time>
      </trkpt>
      <trkpt lat="44.93229" lon="5.39825">
        <ele>1052.8</ele>
        <time>2021-09-01T09:22:00Z</time>
      </trkpt>
      <trkpt lat="44.93229" lon="5.39825">
        <ele>1052.8</ele>
        <time>2021-09-01T09:22:02Z</time>
      </trkpt>
      <trkpt lat="44.93228" lon="5.39825">
        <ele>1052.8</ele>
        <time>2021-09-01T09:22:03Z</time>
      </trkpt>
      <trkpt lat="44.93227" lon="5.39826">
        <ele>1052.9</ele>
        <time>2021-09-01T09:22:04Z</time>
      </trkpt>
      <trkpt lat="44.93226" lon="5.39826">
        <ele>1053</ele>
        <time>2021-09-01T09:22:05Z</time>
      </trkpt>
      <trkpt lat="44.93225" lon="5.39827">
        <ele>1053</ele>
        <time>2021-09-01T09:22:07Z</time>
      </trkpt>
      <trkpt lat="44.93224" lon="5.39827">
        <ele>1053.1</ele>
        <time>2021-09-01T09:22:08Z</time>
      </trkpt>
      <trkpt lat="44.93222" lon="5.39829">
        <ele>1053.3</ele>
        <time>2021-09-01T09:22:09Z</time>
      </trkpt>
      <trkpt lat="44.93218" lon="5.3983">
        <ele>1053.5</ele>
        <time>2021-09-01T09:22:11Z</time>
      </trkpt>
      <trkpt lat="44.93215" lon="5.39832">
        <ele>1053.7</ele>
        <time>2021-09-01T09:22:12Z</time>
      </trkpt>
      <trkpt lat="44.93211" lon="5.39834">
        <ele>1053.9</ele>
        <time>2021-09-01T09:22:13Z</time>
      </trkpt>
      <trkpt lat="44.9321" lon="5.39835">
        <ele>1053.9</ele>
        <time>2021-09-01T09:22:14Z</time>
      </trkpt>
      <trkpt lat="44.93208" lon="5.39836">
        <ele>1054</ele>
        <time>2021-09-01T09:22:16Z</time>
      </trkpt>
      <trkpt lat="44.93206" lon="5.39837">
        <ele>1054.1</ele>
        <time>2021-09-01T09:22:17Z</time>
      </trkpt>
      <trkpt lat="44.93203" lon="5.39837">
        <ele>1054.1</ele>
        <time>2021-09-01T09:22:18Z</time>
      </trkpt>
      <trkpt lat="44.93202" lon="5.39837">
        <ele>1054.2</ele>
        <time>2021-09-01T09:22:19Z</time>
      </trkpt>
      <trkpt lat="44.93201" lon="5.39836">
        <ele>1054.2</ele>
        <time>2021-09-01T09:22:20Z</time>
      </trkpt>
      <trkpt lat="44.93199" lon="5.39835">
        <ele>1054.2</ele>
        <time>2021-09-01T09:22:22Z</time>
      </trkpt>
      <trkpt lat="44.93195" lon="5.39834">
        <ele>1054.3</ele>
        <time>2021-09-01T09:22:23Z</time>
      </trkpt>
      <trkpt lat="44.93193" lon="5.39834">
        <ele>1054.3</ele>
        <time>2021-09-01T09:22:24Z</time>
      </trkpt>
      <trkpt lat="44.93189" lon="5.39833">
        <ele>1054.3</ele>
        <time>2021-09-01T09:22:25Z</time>
      </trkpt>
      <trkpt lat="44.93188" lon="5.39832">
        <ele>1054.2</ele>
        <time>2021-09-01T09:22:26Z</time>
      </trkpt>
      <trkpt lat="44.93185" lon="5.39832">
        <ele>1054.2</ele>
        <time>2021-09-01T09:22:27Z</time>
      </trkpt>
      <trkpt lat="44.93182" lon="5.39832">
        <ele>1054.2</ele>
        <time>2021-09-01T09:22:28Z</time>
      </trkpt>
      <trkpt lat="44.93178" lon="5.39832">
        <ele>1054.1</ele>
        <time>2021-09-01T09:22:30Z</time>
      </trkpt>
      <trkpt lat="44.93175" lon="5.39831">
        <ele>1054</ele>
        <time>2021-09-01T09:22:31Z</time>
      </trkpt>
      <trkpt lat="44.9317" lon="5.39831">
        <ele>1053.8</ele>
        <time>2021-09-01T09:22:33Z</time>
      </trkpt>
      <trkpt lat="44.93165" lon="5.39831">
        <ele>1053.7</ele>
        <time>2021-09-01T09:22:35Z</time>
      </trkpt>
      <trkpt lat="44.93163" lon="5.39831">
        <ele>1053.6</ele>
        <time>2021-09-01T09:22:36Z</time>
      </trkpt>
      <trkpt lat="44.93162" lon="5.39831">
        <ele>1053.6</ele>
        <time>2021-09-01T09:22:37Z</time>
      </trkpt>
      <trkpt lat="44.9316" lon="5.39831">
        <ele>1053.5</ele>
        <time>2021-09-01T09:22:38Z</time>
      </trkpt>
      <trkpt lat="44.93158" lon="5.39831">
        <ele>1053.4</ele>
        <time>2021-09-01T09:22:39Z</time>
      </trkpt>
      <trkpt lat="44.93155" lon="5.39832">
        <ele>1053.3</ele>
        <time>2021-09-01T09:22:40Z</time>
      </trkpt>
      <trkpt lat="44.93153" lon="5.39833">
        <ele>1053.2</ele>
        <time>2021-09-01T09:22:42Z</time>
      </trkpt>
      <trkpt lat="44.93152" lon="5.39834">
        <ele>1053.1</ele>
        <time>2021-09-01T09:22:43Z</time>
      </trkpt>
      <trkpt lat="44.9315" lon="5.39834">
        <ele>1053</ele>
        <time>2021-09-01T09:22:44Z</time>
      </trkpt>
      <trkpt lat="44.93148" lon="5.39835">
        <ele>1052.8</ele>
        <time>2021-09-01T09:22:46Z</time>
      </trkpt>
      <trkpt lat="44.93146" lon="5.39836">
        <ele>1052.6</ele>
        <time>2021-09-01T09:22:47Z</time>
      </trkpt>
      <trkpt lat="44.93145" lon="5.39837">
        <ele>1052.4</ele>
        <time>2021-09-01T09:22:48Z</time>
      </trkpt>
      <trkpt lat="44.93143" lon="5.39838">
        <ele>1052.2</ele>
        <time>2021-09-01T09:22:50Z</time>
      </trkpt>
      <trkpt lat="44.93141" lon="5.39838">
        <ele>1052</ele>
        <time>2021-09-01T09:22:52Z</time>
      </trkpt>
      <trkpt lat="44.93139" lon="5.39839">
        <ele>1051.8</ele>
        <time>2021-09-01T09:23:06Z</time>
      </trkpt>
      <trkpt lat="44.93138" lon="5.3984">
        <ele>1051.6</ele>
        <time>2021-09-01T09:23:07Z</time>
      </trkpt>
      <trkpt lat="44.93131" lon="5.39842">
        <ele>1050.8</ele>
        <time>2021-09-01T09:23:08Z</time>
      </trkpt>
      <trkpt lat="44.93124" lon="5.39844">
        <ele>1050.1</ele>
        <time>2021-09-01T09:23:10Z</time>
      </trkpt>
      <trkpt lat="44.93119" lon="5.39845">
        <ele>1049.7</ele>
        <time>2021-09-01T09:23:11Z</time>
      </trkpt>
      <trkpt lat="44.93114" lon="5.39848">
        <ele>1049.3</ele>
        <time>2021-09-01T09:23:12Z</time>
      </trkpt>
      <trkpt lat="44.9311" lon="5.39852">
        <ele>1049</ele>
        <time>2021-09-01T09:23:14Z</time>
      </trkpt>
      <trkpt lat="44.93109" lon="5.39853">
        <ele>1048.9</ele>
        <time>2021-09-01T09:23:15Z</time>
      </trkpt>
      <trkpt lat="44.93108" lon="5.39854">
        <ele>1048.8</ele>
        <time>2021-09-01T09:23:16Z</time>
      </trkpt>
      <trkpt lat="44.93105" lon="5.39857">
        <ele>1048.6</ele>
        <time>2021-09-01T09:23:17Z</time>
      </trkpt>
      <trkpt lat="44.93104" lon="5.39859">
        <ele>1048.5</ele>
        <time>2021-09-01T09:23:18Z</time>
      </trkpt>
      <trkpt lat="44.93102" lon="5.3986">
        <ele>1048.3</ele>
        <time>2021-09-01T09:23:19Z</time>
      </trkpt>
      <trkpt lat="44.931" lon="5.39862">
        <ele>1048.1</ele>
        <time>2021-09-01T09:23:21Z</time>
      </trkpt>
      <trkpt lat="44.93097" lon="5.39864">
        <ele>1047.9</ele>
        <time>2021-09-01T09:23:22Z</time>
      </trkpt>
      <trkpt lat="44.93094" lon="5.39866">
        <ele>1047.7</ele>
        <time>2021-09-01T09:23:23Z</time>
      </trkpt>
      <trkpt lat="44.93092" lon="5.39868">
        <ele>1047.6</ele>
        <time>2021-09-01T09:23:24Z</time>
      </trkpt>
      <trkpt lat="44.93088" lon="5.39871">
        <ele>1047.4</ele>
        <time>2021-09-01T09:23:25Z</time>
      </trkpt>
      <trkpt lat="44.93087" lon="5.39872">
        <ele>1047.4</ele>
        <time>2021-09-01T09:23:26Z</time>
      </trkpt>
      <trkpt lat="44.93084" lon="5.39873">
        <ele>1047.3</ele>
        <time>2021-09-01T09:23:27Z</time>
      </trkpt>
      <trkpt lat="44.9308" lon="5.39876">
        <ele>1047.2</ele>
        <time>2021-09-01T09:23:29Z</time>
      </trkpt>
      <trkpt lat="44.93078" lon="5.39876">
        <ele>1047.2</ele>
        <time>2021-09-01T09:23:30Z</time>
      </trkpt>
      <trkpt lat="44.93077" lon="5.39877">
        <ele>1047.3</ele>
        <time>2021-09-01T09:23:31Z</time>
      </trkpt>
      <trkpt lat="44.93072" lon="5.39878">
        <ele>1047.4</ele>
        <time>2021-09-01T09:23:32Z</time>
      </trkpt>
      <trkpt lat="44.93071" lon="5.39878">
        <ele>1047.4</ele>
        <time>2021-09-01T09:23:33Z</time>
      </trkpt>
      <trkpt lat="44.93068" lon="5.39879">
        <ele>1047.5</ele>
        <time>2021-09-01T09:23:34Z</time>
      </trkpt>
      <trkpt lat="44.93065" lon="5.39879">
        <ele>1047.7</ele>
        <time>2021-09-01T09:23:36Z</time>
      </trkpt>
      <trkpt lat="44.93062" lon="5.3988">
        <ele>1047.8</ele>
        <time>2021-09-01T09:23:37Z</time>
      </trkpt>
      <trkpt lat="44.9306" lon="5.3988">
        <ele>1047.9</ele>
        <time>2021-09-01T09:23:38Z</time>
      </trkpt>
      <trkpt lat="44.93059" lon="5.39881">
        <ele>1048</ele>
        <time>2021-09-01T09:23:40Z</time>
      </trkpt>
      <trkpt lat="44.93056" lon="5.39882">
        <ele>1048.2</ele>
        <time>2021-09-01T09:23:41Z</time>
      </trkpt>
      <trkpt lat="44.93055" lon="5.39883">
        <ele>1048.2</ele>
        <time>2021-09-01T09:23:42Z</time>
      </trkpt>
      <trkpt lat="44.93052" lon="5.39885">
        <ele>1048.4</ele>
        <time>2021-09-01T09:23:43Z</time>
      </trkpt>
      <trkpt lat="44.93051" lon="5.39885">
        <ele>1048.5</ele>
        <time>2021-09-01T09:23:44Z</time>
      </trkpt>
      <trkpt lat="44.93049" lon="5.39886">
        <ele>1048.7</ele>
        <time>2021-09-01T09:23:45Z</time>
      </trkpt>
      <trkpt lat="44.93047" lon="5.39888">
        <ele>1048.8</ele>
        <time>2021-09-01T09:23:47Z</time>
      </trkpt>
      <trkpt lat="44.93045" lon="5.3989">
        <ele>1049</ele>
        <time>2021-09-01T09:23:48Z</time>
      </trkpt>
      <trkpt lat="44.93043" lon="5.39892">
        <ele>1049.3</ele>
        <time>2021-09-01T09:23:49Z</time>
      </trkpt>
      <trkpt lat="44.9304" lon="5.39897">
        <ele>1049.7</ele>
        <time>2021-09-01T09:23:51Z</time>
      </trkpt>
      <trkpt lat="44.93038" lon="5.39899">
        <ele>1049.9</ele>
        <time>2021-09-01T09:23:52Z</time>
      </trkpt>
      <trkpt lat="44.93036" lon="5.399">
        <ele>1050.2</ele>
        <time>2021-09-01T09:23:54Z</time>
      </trkpt>
      <trkpt lat="44.93034" lon="5.39901">
        <ele>1050.4</ele>
        <time>2021-09-01T09:23:55Z</time>
      </trkpt>
      <trkpt lat="44.93033" lon="5.39902">
        <ele>1050.6</ele>
        <time>2021-09-01T09:23:56Z</time>
      </trkpt>
      <trkpt lat="44.9303" lon="5.39902">
        <ele>1051</ele>
        <time>2021-09-01T09:23:57Z</time>
      </trkpt>
      <trkpt lat="44.93023" lon="5.39907">
        <ele>1052</ele>
        <time>2021-09-01T09:23:58Z</time>
      </trkpt>
      <trkpt lat="44.93017" lon="5.39912">
        <ele>1053</ele>
        <time>2021-09-01T09:24:00Z</time>
      </trkpt>
      <trkpt lat="44.93011" lon="5.39917">
        <ele>1054.1</ele>
        <time>2021-09-01T09:24:01Z</time>
      </trkpt>
      <trkpt lat="44.93006" lon="5.39922">
        <ele>1055.1</ele>
        <time>2021-09-01T09:24:03Z</time>
      </trkpt>
      <trkpt lat="44.93" lon="5.39927">
        <ele>1056</ele>
        <time>2021-09-01T09:24:04Z</time>
      </trkpt>
      <trkpt lat="44.92994" lon="5.39932">
        <ele>1056.6</ele>
        <time>2021-09-01T09:24:05Z</time>
      </trkpt>
      <trkpt lat="44.92989" lon="5.39937">
        <ele>1057.2</ele>
        <time>2021-09-01T09:24:06Z</time>
      </trkpt>
      <trkpt lat="44.92983" lon="5.39941">
        <ele>1057.8</ele>
        <time>2021-09-01T09:24:08Z</time>
      </trkpt>
      <trkpt lat="44.92977" lon="5.39946">
        <ele>1058.5</ele>
        <time>2021-09-01T09:26:02Z</time>
      </trkpt>
      <trkpt lat="44.92971" lon="5.39951">
        <ele>1059.1</ele>
        <time>2021-09-01T09:26:03Z</time>
      </trkpt>
      <trkpt lat="44.92966" lon="5.39956">
        <ele>1059.5</ele>
        <time>2021-09-01T09:26:04Z</time>
      </trkpt>
      <trkpt lat="44.92964" lon="5.39958">
        <ele>1059.5</ele>
        <time>2021-09-01T09:26:05Z</time>
      </trkpt>
      <trkpt lat="44.9296" lon="5.39963">
        <ele>1059.6</ele>
        <time>2021-09-01T09:26:07Z</time>
      </trkpt>
      <trkpt lat="44.92958" lon="5.39967">
        <ele>1059.5</ele>
        <time>2021-09-01T09:26:08Z</time>
      </trkpt>
      <trkpt lat="44.92955" lon="5.39969">
        <ele>1059.4</ele>
        <time>2021-09-01T09:26:10Z</time>
      </trkpt>
      <trkpt lat="44.92954" lon="5.3997">
        <ele>1059.3</ele>
        <time>2021-09-01T09:26:11Z</time>
      </trkpt>
      <trkpt lat="44.92952" lon="5.39972">
        <ele>1059.1</ele>
        <time>2021-09-01T09:26:12Z</time>
      </trkpt>
      <trkpt lat="44.92949" lon="5.39975">
        <ele>1058.8</ele>
        <time>2021-09-01T09:26:13Z</time>
      </trkpt>
      <trkpt lat="44.92948" lon="5.39976">
        <ele>1058.7</ele>
        <time>2021-09-01T09:26:14Z</time>
      </trkpt>
      <trkpt lat="44.92944" lon="5.39979">
        <ele>1058.2</ele>
        <time>2021-09-01T09:26:16Z</time>
      </trkpt>
      <trkpt lat="44.92943" lon="5.3998">
        <ele>1058.1</ele>
        <time>2021-09-01T09:26:17Z</time>
      </trkpt>
      <trkpt lat="44.92941" lon="5.39983">
        <ele>1057.7</ele>
        <time>2021-09-01T09:26:19Z</time>
      </trkpt>
      <trkpt lat="44.92941" lon="5.39984">
        <ele>1057.6</ele>
        <time>2021-09-01T09:26:20Z</time>
      </trkpt>
      <trkpt lat="44.9294" lon="5.39986">
        <ele>1057.4</ele>
        <time>2021-09-01T09:26:21Z</time>
      </trkpt>
      <trkpt lat="44.92938" lon="5.39987">
        <ele>1057.1</ele>
        <time>2021-09-01T09:26:22Z</time>
      </trkpt>
      <trkpt lat="44.92937" lon="5.39987">
        <ele>1057</ele>
        <time>2021-09-01T09:26:24Z</time>
      </trkpt>
      <trkpt lat="44.92936" lon="5.39984">
        <ele>1056.7</ele>
        <time>2021-09-01T09:26:25Z</time>
      </trkpt>
      <trkpt lat="44.92937" lon="5.39984">
        <ele>1056.7</ele>
        <time>2021-09-01T09:26:27Z</time>
      </trkpt>
      <trkpt lat="44.92936" lon="5.39983">
        <ele>1056.6</ele>
        <time>2021-09-01T09:26:29Z</time>
      </trkpt>
      <trkpt lat="44.92936" lon="5.39983">
        <ele>1056.5</ele>
        <time>2021-09-01T09:26:30Z</time>
      </trkpt>
      <trkpt lat="44.92936" lon="5.39982">
        <ele>1056.4</ele>
        <time>2021-09-01T09:26:32Z</time>
      </trkpt>
      <trkpt lat="44.92936" lon="5.39982">
        <ele>1056.4</ele>
        <time>2021-09-01T09:26:33Z</time>
      </trkpt>
      <trkpt lat="44.92936" lon="5.39981">
        <ele>1056.4</ele>
        <time>2021-09-01T09:26:35Z</time>
      </trkpt>
      <trkpt lat="44.92916" lon="5.39941">
        <ele>1052.9</ele>
        <time>2021-09-01T09:26:51Z</time>
      </trkpt>
      <trkpt lat="44.92914" lon="5.39933">
        <ele>1052.6</ele>
        <time>2021-09-01T09:26:52Z</time>
      </trkpt>
      <trkpt lat="44.92912" lon="5.39928">
        <ele>1052.3</ele>
        <time>2021-09-01T09:26:54Z</time>
      </trkpt>
      <trkpt lat="44.9291" lon="5.39925">
        <ele>1052.1</ele>
        <time>2021-09-01T09:26:55Z</time>
      </trkpt>
      <trkpt lat="44.92909" lon="5.39925">
        <ele>1052</ele>
        <time>2021-09-01T09:26:56Z</time>
      </trkpt>
      <trkpt lat="44.92907" lon="5.39923">
        <ele>1051.9</ele>
        <time>2021-09-01T09:26:57Z</time>
      </trkpt>
      <trkpt lat="44.92906" lon="5.39923">
        <ele>1051.8</ele>
        <time>2021-09-01T09:26:58Z</time>
      </trkpt>
      <trkpt lat="44.92902" lon="5.39921">
        <ele>1051.5</ele>
        <time>2021-09-01T09:26:59Z</time>
      </trkpt>
      <trkpt lat="44.92901" lon="5.39921">
        <ele>1051.5</ele>
        <time>2021-09-01T09:27:00Z</time>
      </trkpt>
      <trkpt lat="44.92899" lon="5.39919">
        <ele>1051.3</ele>
        <time>2021-09-01T09:27:02Z</time>
      </trkpt>
      <trkpt lat="44.92898" lon="5.39919">
        <ele>1051.2</ele>
        <time>2021-09-01T09:27:03Z</time>
      </trkpt>
      <trkpt lat="44.92895" lon="5.39917">
        <ele>1051</ele>
        <time>2021-09-01T09:27:04Z</time>
      </trkpt>
      <trkpt lat="44.92894" lon="5.39916">
        <ele>1050.9</ele>
        <time>2021-09-01T09:27:05Z</time>
      </trkpt>
      <trkpt lat="44.92891" lon="5.39912">
        <ele>1050.5</ele>
        <time>2021-09-01T09:27:07Z</time>
      </trkpt>
      <trkpt lat="44.92889" lon="5.3991">
        <ele>1050.3</ele>
        <time>2021-09-01T09:27:08Z</time>
      </trkpt>
      <trkpt lat="44.92886" lon="5.39905">
        <ele>1050</ele>
        <time>2021-09-01T09:27:10Z</time>
      </trkpt>
      <trkpt lat="44.92882" lon="5.39902">
        <ele>1049.7</ele>
        <time>2021-09-01T09:27:11Z</time>
      </trkpt>
      <trkpt lat="44.92879" lon="5.399">
        <ele>1049.4</ele>
        <time>2021-09-01T09:27:13Z</time>
      </trkpt>
      <trkpt lat="44.92876" lon="5.39898">
        <ele>1049.1</ele>
        <time>2021-09-01T09:27:14Z</time>
      </trkpt>
      <trkpt lat="44.92872" lon="5.39897">
        <ele>1048.8</ele>
        <time>2021-09-01T09:27:15Z</time>
      </trkpt>
      <trkpt lat="44.92861" lon="5.39892">
        <ele>1048.1</ele>
        <time>2021-09-01T09:27:17Z</time>
      </trkpt>
      <trkpt lat="44.92856" lon="5.39891">
        <ele>1047.8</ele>
        <time>2021-09-01T09:27:18Z</time>
      </trkpt>
      <trkpt lat="44.92851" lon="5.39891">
        <ele>1047.5</ele>
        <time>2021-09-01T09:27:19Z</time>
      </trkpt>
      <trkpt lat="44.92846" lon="5.39891">
        <ele>1047.3</ele>
        <time>2021-09-01T09:27:20Z</time>
      </trkpt>
      <trkpt lat="44.92837" lon="5.39895">
        <ele>1047.1</ele>
        <time>2021-09-01T09:27:22Z</time>
      </trkpt>
      <trkpt lat="44.92834" lon="5.39897">
        <ele>1047.1</ele>
        <time>2021-09-01T09:27:23Z</time>
      </trkpt>
      <trkpt lat="44.92832" lon="5.39897">
        <ele>1047.1</ele>
        <time>2021-09-01T09:27:24Z</time>
      </trkpt>
      <trkpt lat="44.92827" lon="5.39899">
        <ele>1047.2</ele>
        <time>2021-09-01T09:27:25Z</time>
      </trkpt>
      <trkpt lat="44.92823" lon="5.399">
        <ele>1047.2</ele>
        <time>2021-09-01T09:27:27Z</time>
      </trkpt>
      <trkpt lat="44.9282" lon="5.39902">
        <ele>1047.3</ele>
        <time>2021-09-01T09:27:29Z</time>
      </trkpt>
      <trkpt lat="44.92818" lon="5.39903">
        <ele>1047.3</ele>
        <time>2021-09-01T09:27:30Z</time>
      </trkpt>
      <trkpt lat="44.92815" lon="5.39904">
        <ele>1047.2</ele>
        <time>2021-09-01T09:27:32Z</time>
      </trkpt>
      <trkpt lat="44.92813" lon="5.39905">
        <ele>1047.2</ele>
        <time>2021-09-01T09:27:33Z</time>
      </trkpt>
      <trkpt lat="44.9281" lon="5.39906">
        <ele>1047.2</ele>
        <time>2021-09-01T09:27:34Z</time>
      </trkpt>
      <trkpt lat="44.92808" lon="5.39907">
        <ele>1047.1</ele>
        <time>2021-09-01T09:27:36Z</time>
      </trkpt>
      <trkpt lat="44.92805" lon="5.39908">
        <ele>1047</ele>
        <time>2021-09-01T09:27:37Z</time>
      </trkpt>
      <trkpt lat="44.92803" lon="5.39909">
        <ele>1047</ele>
        <time>2021-09-01T09:30:57Z</time>
      </trkpt>
      <trkpt lat="44.928" lon="5.3991">
        <ele>1046.9</ele>
        <time>2021-09-01T09:30:58Z</time>
      </trkpt>
      <trkpt lat="44.92799" lon="5.39915">
        <ele>1046.8</ele>
        <time>2021-09-01T09:30:59Z</time>
      </trkpt>
      <trkpt lat="44.92798" lon="5.3992">
        <ele>1046.8</ele>
        <time>2021-09-01T09:31:00Z</time>
      </trkpt>
      <trkpt lat="44.92797" lon="5.39924">
        <ele>1046.9</ele>
        <time>2021-09-01T09:31:02Z</time>
      </trkpt>
      <trkpt lat="44.92797" lon="5.39928">
        <ele>1047</ele>
        <time>2021-09-01T09:31:04Z</time>
      </trkpt>
      <trkpt lat="44.92797" lon="5.39928">
        <ele>1047.1</ele>
        <time>2021-09-01T09:31:05Z</time>
      </trkpt>
      <trkpt lat="44.92797" lon="5.39928">
        <ele>1047.1</ele>
        <time>2021-09-01T09:31:06Z</time>
      </trkpt>
      <trkpt lat="44.92797" lon="5.39929">
        <ele>1047.1</ele>
        <time>2021-09-01T09:31:07Z</time>
      </trkpt>
      <trkpt lat="44.92797" lon="5.39929">
        <ele>1047.1</ele>
        <time>2021-09-01T09:31:08Z</time>
      </trkpt>
      <trkpt lat="44.92796" lon="5.39929">
        <ele>1047.1</ele>
        <time>2021-09-01T09:31:10Z</time>
      </trkpt>
      <trkpt lat="44.92796" lon="5.39929">
        <ele>1047.1</ele>
        <time>2021-09-01T09:31:11Z</time>
      </trkpt>
      <trkpt lat="44.92796" lon="5.39929">
        <ele>1047.1</ele>
        <time>2021-09-01T09:31:12Z</time>
      </trkpt>
      <trkpt lat="44.92766" lon="5.39983">
        <ele>1052.3</ele>
        <time>2021-09-01T09:32:35Z</time>
      </trkpt>
      <trkpt lat="44.92763" lon="5.39987">
        <ele>1052.3</ele>
        <time>2021-09-01T09:32:37Z</time>
      </trkpt>
      <trkpt lat="44.92761" lon="5.3999">
        <ele>1052.3</ele>
        <time>2021-09-01T09:32:38Z</time>
      </trkpt>
      <trkpt lat="44.92761" lon="5.39991">
        <ele>1052.3</ele>
        <time>2021-09-01T09:32:39Z</time>
      </trkpt>
      <trkpt lat="44.92759" lon="5.39993">
        <ele>1052.2</ele>
        <time>2021-09-01T09:32:41Z</time>
      </trkpt>
      <trkpt lat="44.92757" lon="5.39995">
        <ele>1052.1</ele>
        <time>2021-09-01T09:32:43Z</time>
      </trkpt>
      <trkpt lat="44.92757" lon="5.39996">
        <ele>1052.1</ele>
        <time>2021-09-01T09:32:44Z</time>
      </trkpt>
      <trkpt lat="44.92757" lon="5.39996">
        <ele>1052.1</ele>
        <time>2021-09-01T09:32:45Z</time>
      </trkpt>
      <trkpt lat="44.92757" lon="5.39996">
        <ele>1052.1</ele>
        <time>2021-09-01T09:32:46Z</time>
      </trkpt>
      <trkpt lat="44.92757" lon="5.39996">
        <ele>1052</ele>
        <time>2021-09-01T09:32:48Z</time>
      </trkpt>
      <trkpt lat="44.92756" lon="5.39997">
        <ele>1052</ele>
        <time>2021-09-01T09:32:50Z</time>
      </trkpt>
      <trkpt lat="44.92756" lon="5.39997">
        <ele>1052</ele>
        <time>2021-09-01T09:32:51Z</time>
      </trkpt>
      <trkpt lat="44.92756" lon="5.39997">
        <ele>1052</ele>
        <time>2021-09-01T09:32:52Z</time>
      </trkpt>
      <trkpt lat="44.92756" lon="5.39997">
        <ele>1052</ele>
        <time>2021-09-01T09:32:54Z</time>
      </trkpt>
      <trkpt lat="44.92738" lon="5.40009">
        <ele>1049.7</ele>
        <time>2021-09-01T09:33:09Z</time>
      </trkpt>
      <trkpt lat="44.92735" lon="5.40015">
        <ele>1048.8</ele>
        <time>2021-09-01T09:33:11Z</time>
      </trkpt>
      <trkpt lat="44.9273" lon="5.40019">
        <ele>1048</ele>
        <time>2021-09-01T09:33:12Z</time>
      </trkpt>
      <trkpt lat="44.92726" lon="5.40024">
        <ele>1047.3</ele>
        <time>2021-09-01T09:33:13Z</time>
      </trkpt>
      <trkpt lat="44.9272" lon="5.40034">
        <ele>1046.3</ele>
        <time>2021-09-01T09:33:15Z</time>
      </trkpt>
      <trkpt lat="44.92716" lon="5.40044">
        <ele>1045.9</ele>
        <time>2021-09-01T09:33:16Z</time>
      </trkpt>
      <trkpt lat="44.92715" lon="5.40048">
        <ele>1045.7</ele>
        <time>2021-09-01T09:33:17Z</time>
      </trkpt>
      <trkpt lat="44.92711" lon="5.40054">
        <ele>1045.7</ele>
        <time>2021-09-01T09:33:19Z</time>
      </trkpt>
      <trkpt lat="44.9271" lon="5.40056">
        <ele>1045.7</ele>
        <time>2021-09-01T09:33:20Z</time>
      </trkpt>
      <trkpt lat="44.92709" lon="5.40059">
        <ele>1045.7</ele>
        <time>2021-09-01T09:33:21Z</time>
      </trkpt>
      <trkpt lat="44.92705" lon="5.40062">
        <ele>1045.7</ele>
        <time>2021-09-01T09:33:23Z</time>
      </trkpt>
      <trkpt lat="44.92704" lon="5.40063">
        <ele>1045.8</ele>
        <time>2021-09-01T09:33:24Z</time>
      </trkpt>
      <trkpt lat="44.92701" lon="5.40064">
        <ele>1045.8</ele>
        <time>2021-09-01T09:33:25Z</time>
      </trkpt>
      <trkpt lat="44.92699" lon="5.40066">
        <ele>1045.8</ele>
        <time>2021-09-01T09:33:27Z</time>
      </trkpt>
      <trkpt lat="44.92698" lon="5.40067">
        <ele>1045.8</ele>
        <time>2021-09-01T09:33:28Z</time>
      </trkpt>
      <trkpt lat="44.92697" lon="5.40067">
        <ele>1045.9</ele>
        <time>2021-09-01T09:33:29Z</time>
      </trkpt>
      <trkpt lat="44.92694" lon="5.40067">
        <ele>1045.9</ele>
        <time>2021-09-01T09:33:31Z</time>
      </trkpt>
      <trkpt lat="44.92691" lon="5.40064">
        <ele>1045.9</ele>
        <time>2021-09-01T09:33:32Z</time>
      </trkpt>
      <trkpt lat="44.9269" lon="5.40064">
        <ele>1045.9</ele>
        <time>2021-09-01T09:33:33Z</time>
      </trkpt>
      <trkpt lat="44.92687" lon="5.40061">
        <ele>1045.9</ele>
        <time>2021-09-01T09:33:35Z</time>
      </trkpt>
      <trkpt lat="44.92687" lon="5.40059">
        <ele>1045.9</ele>
        <time>2021-09-01T09:33:36Z</time>
      </trkpt>
      <trkpt lat="44.92685" lon="5.40056">
        <ele>1045.9</ele>
        <time>2021-09-01T09:33:37Z</time>
      </trkpt>
      <trkpt lat="44.92682" lon="5.40051">
        <ele>1045.9</ele>
        <time>2021-09-01T09:33:39Z</time>
      </trkpt>
      <trkpt lat="44.92681" lon="5.4005">
        <ele>1045.9</ele>
        <time>2021-09-01T09:33:40Z</time>
      </trkpt>
      <trkpt lat="44.9268" lon="5.40049">
        <ele>1045.9</ele>
        <time>2021-09-01T09:33:41Z</time>
      </trkpt>
      <trkpt lat="44.92677" lon="5.40048">
        <ele>1045.9</ele>
        <time>2021-09-01T09:33:42Z</time>
      </trkpt>
      <trkpt lat="44.92676" lon="5.40049">
        <ele>1045.9</ele>
        <time>2021-09-01T09:33:43Z</time>
      </trkpt>
      <trkpt lat="44.92674" lon="5.40049">
        <ele>1045.9</ele>
        <time>2021-09-01T09:33:44Z</time>
      </trkpt>
      <trkpt lat="44.92671" lon="5.40049">
        <ele>1045.8</ele>
        <time>2021-09-01T09:33:46Z</time>
      </trkpt>
      <trkpt lat="44.92667" lon="5.4005">
        <ele>1045.7</ele>
        <time>2021-09-01T09:33:48Z</time>
      </trkpt>
      <trkpt lat="44.92665" lon="5.40051">
        <ele>1045.6</ele>
        <time>2021-09-01T09:33:49Z</time>
      </trkpt>
      <trkpt lat="44.92662" lon="5.40053">
        <ele>1045.5</ele>
        <time>2021-09-01T09:33:50Z</time>
      </trkpt>
      <trkpt lat="44.9266" lon="5.40056">
        <ele>1045.3</ele>
        <time>2021-09-01T09:33:51Z</time>
      </trkpt>
      <trkpt lat="44.92657" lon="5.40057">
        <ele>1045</ele>
        <time>2021-09-01T09:33:53Z</time>
      </trkpt>
      <trkpt lat="44.92656" lon="5.40058">
        <ele>1044.9</ele>
        <time>2021-09-01T09:33:54Z</time>
      </trkpt>
      <trkpt lat="44.92655" lon="5.40058">
        <ele>1044.8</ele>
        <time>2021-09-01T09:33:55Z</time>
      </trkpt>
      <trkpt lat="44.92654" lon="5.40058">
        <ele>1044.7</ele>
        <time>2021-09-01T09:33:56Z</time>
      </trkpt>
      <trkpt lat="44.92652" lon="5.40059">
        <ele>1044.5</ele>
        <time>2021-09-01T09:33:58Z</time>
      </trkpt>
      <trkpt lat="44.92651" lon="5.40059">
        <ele>1044.3</ele>
        <time>2021-09-01T09:33:59Z</time>
      </trkpt>
      <trkpt lat="44.9265" lon="5.40062">
        <ele>1044</ele>
        <time>2021-09-01T09:34:01Z</time>
      </trkpt>
      <trkpt lat="44.92649" lon="5.4006">
        <ele>1043.9</ele>
        <time>2021-09-01T09:34:03Z</time>
      </trkpt>
      <trkpt lat="44.92647" lon="5.40059">
        <ele>1043.6</ele>
        <time>2021-09-01T09:34:04Z</time>
      </trkpt>
      <trkpt lat="44.92645" lon="5.40057">
        <ele>1043.3</ele>
        <time>2021-09-01T09:34:06Z</time>
      </trkpt>
      <trkpt lat="44.92644" lon="5.40055">
        <ele>1043.1</ele>
        <time>2021-09-01T09:34:08Z</time>
      </trkpt>
      <trkpt lat="44.92642" lon="5.40053">
        <ele>1042.8</ele>
        <time>2021-09-01T09:34:10Z</time>
      </trkpt>
      <trkpt lat="44.9264" lon="5.40052">
        <ele>1042.9</ele>
        <time>2021-09-01T09:34:34Z</time>
      </trkpt>
      <trkpt lat="44.92638" lon="5.4005">
        <ele>1043</ele>
        <time>2021-09-01T09:34:35Z</time>
      </trkpt>
      <trkpt lat="44.92637" lon="5.40048">
        <ele>1043.1</ele>
        <time>2021-09-01T09:34:36Z</time>
      </trkpt>
      <trkpt lat="44.92633" lon="5.40046">
        <ele>1043.4</ele>
        <time>2021-09-01T09:34:38Z</time>
      </trkpt>
      <trkpt lat="44.92629" lon="5.40044">
        <ele>1043.7</ele>
        <time>2021-09-01T09:34:39Z</time>
      </trkpt>
      <trkpt lat="44.92627" lon="5.40043">
        <ele>1043.9</ele>
        <time>2021-09-01T09:34:40Z</time>
      </trkpt>
      <trkpt lat="44.92625" lon="5.40043">
        <ele>1044.1</ele>
        <time>2021-09-01T09:34:41Z</time>
      </trkpt>
      <trkpt lat="44.92622" lon="5.40042">
        <ele>1044.3</ele>
        <time>2021-09-01T09:34:43Z</time>
      </trkpt>
      <trkpt lat="44.92619" lon="5.40041">
        <ele>1044.7</ele>
        <time>2021-09-01T09:34:44Z</time>
      </trkpt>
      <trkpt lat="44.92616" lon="5.4004">
        <ele>1044.9</ele>
        <time>2021-09-01T09:34:46Z</time>
      </trkpt>
      <trkpt lat="44.92613" lon="5.40039">
        <ele>1045.2</ele>
        <time>2021-09-01T09:34:47Z</time>
      </trkpt>
      <trkpt lat="44.92611" lon="5.40038">
        <ele>1045.4</ele>
        <time>2021-09-01T09:34:48Z</time>
      </trkpt>
      <trkpt lat="44.9261" lon="5.40037">
        <ele>1045.6</ele>
        <time>2021-09-01T09:34:50Z</time>
      </trkpt>
      <trkpt lat="44.92607" lon="5.40035">
        <ele>1045.8</ele>
        <time>2021-09-01T09:34:51Z</time>
      </trkpt>
      <trkpt lat="44.92604" lon="5.40032">
        <ele>1046.1</ele>
        <time>2021-09-01T09:34:53Z</time>
      </trkpt>
      <trkpt lat="44.92603" lon="5.40031">
        <ele>1046.2</ele>
        <time>2021-09-01T09:34:54Z</time>
      </trkpt>
      <trkpt lat="44.926" lon="5.40028">
        <ele>1046.4</ele>
        <time>2021-09-01T09:34:56Z</time>
      </trkpt>
      <trkpt lat="44.92598" lon="5.40025">
        <ele>1046.6</ele>
        <time>2021-09-01T09:34:57Z</time>
      </trkpt>
      <trkpt lat="44.92596" lon="5.40023">
        <ele>1046.7</ele>
        <time>2021-09-01T09:34:59Z</time>
      </trkpt>
      <trkpt lat="44.92593" lon="5.4002">
        <ele>1046.8</ele>
        <time>2021-09-01T09:35:00Z</time>
      </trkpt>
      <trkpt lat="44.92592" lon="5.40019">
        <ele>1046.8</ele>
        <time>2021-09-01T09:35:01Z</time>
      </trkpt>
      <trkpt lat="44.92588" lon="5.40014">
        <ele>1046.9</ele>
        <time>2021-09-01T09:35:03Z</time>
      </trkpt>
      <trkpt lat="44.92587" lon="5.40012">
        <ele>1047</ele>
        <time>2021-09-01T09:35:04Z</time>
      </trkpt>
      <trkpt lat="44.92586" lon="5.4001">
        <ele>1047</ele>
        <time>2021-09-01T09:35:05Z</time>
      </trkpt>
      <trkpt lat="44.92583" lon="5.40006">
        <ele>1047</ele>
        <time>2021-09-01T09:35:07Z</time>
      </trkpt>
      <trkpt lat="44.92579" lon="5.4">
        <ele>1047.1</ele>
        <time>2021-09-01T09:35:08Z</time>
      </trkpt>
      <trkpt lat="44.92575" lon="5.39994">
        <ele>1047.3</ele>
        <time>2021-09-01T09:35:10Z</time>
      </trkpt>
      <trkpt lat="44.92572" lon="5.3999">
        <ele>1047.4</ele>
        <time>2021-09-01T09:35:11Z</time>
      </trkpt>
      <trkpt lat="44.92569" lon="5.39985">
        <ele>1047.5</ele>
        <time>2021-09-01T09:35:13Z</time>
      </trkpt>
      <trkpt lat="44.92567" lon="5.39979">
        <ele>1047.7</ele>
        <time>2021-09-01T09:35:14Z</time>
      </trkpt>
      <trkpt lat="44.92565" lon="5.39974">
        <ele>1047.9</ele>
        <time>2021-09-01T09:35:15Z</time>
      </trkpt>
      <trkpt lat="44.92563" lon="5.39969">
        <ele>1048.2</ele>
        <time>2021-09-01T09:35:17Z</time>
      </trkpt>
      <trkpt lat="44.92561" lon="5.39963">
        <ele>1048.6</ele>
        <time>2021-09-01T09:35:19Z</time>
      </trkpt>
      <trkpt lat="44.92559" lon="5.39958">
        <ele>1048.8</ele>
        <time>2021-09-01T09:35:20Z</time>
      </trkpt>
      <trkpt lat="44.92559" lon="5.39956">
        <ele>1048.9</ele>
        <time>2021-09-01T09:35:21Z</time>
      </trkpt>
      <trkpt lat="44.92557" lon="5.39953">
        <ele>1049.2</ele>
        <time>2021-09-01T09:35:22Z</time>
      </trkpt>
      <trkpt lat="44.92557" lon="5.39952">
        <ele>1049.2</ele>
        <time>2021-09-01T09:35:23Z</time>
      </trkpt>
      <trkpt lat="44.92555" lon="5.39949">
        <ele>1049.5</ele>
        <time>2021-09-01T09:35:25Z</time>
      </trkpt>
      <trkpt lat="44.92554" lon="5.39948">
        <ele>1049.6</ele>
        <time>2021-09-01T09:35:26Z</time>
      </trkpt>
      <trkpt lat="44.92551" lon="5.39944">
        <ele>1049.9</ele>
        <time>2021-09-01T09:35:27Z</time>
      </trkpt>
      <trkpt lat="44.9255" lon="5.39943">
        <ele>1050</ele>
        <time>2021-09-01T09:35:28Z</time>
      </trkpt>
      <trkpt lat="44.92548" lon="5.3994">
        <ele>1050.2</ele>
        <time>2021-09-01T09:35:30Z</time>
      </trkpt>
      <trkpt lat="44.92547" lon="5.39939">
        <ele>1050.3</ele>
        <time>2021-09-01T09:35:31Z</time>
      </trkpt>
      <trkpt lat="44.92546" lon="5.39938">
        <ele>1050.4</ele>
        <time>2021-09-01T09:35:32Z</time>
      </trkpt>
      <trkpt lat="44.92545" lon="5.39937">
        <ele>1050.4</ele>
        <time>2021-09-01T09:35:33Z</time>
      </trkpt>
      <trkpt lat="44.92543" lon="5.39935">
        <ele>1050.5</ele>
        <time>2021-09-01T09:35:35Z</time>
      </trkpt>
      <trkpt lat="44.92542" lon="5.39935">
        <ele>1050.6</ele>
        <time>2021-09-01T09:35:36Z</time>
      </trkpt>
      <trkpt lat="44.9254" lon="5.39934">
        <ele>1050.7</ele>
        <time>2021-09-01T09:35:38Z</time>
      </trkpt>
      <trkpt lat="44.92538" lon="5.39933">
        <ele>1050.8</ele>
        <time>2021-09-01T09:35:40Z</time>
      </trkpt>
      <trkpt lat="44.92537" lon="5.39932">
        <ele>1050.9</ele>
        <time>2021-09-01T09:35:41Z</time>
      </trkpt>
      <trkpt lat="44.92535" lon="5.3993">
        <ele>1051</ele>
        <time>2021-09-01T09:35:43Z</time>
      </trkpt>
      <trkpt lat="44.92534" lon="5.39929">
        <ele>1051.1</ele>
        <time>2021-09-01T09:35:44Z</time>
      </trkpt>
      <trkpt lat="44.92533" lon="5.39928">
        <ele>1051.1</ele>
        <time>2021-09-01T09:35:45Z</time>
      </trkpt>
      <trkpt lat="44.92532" lon="5.39926">
        <ele>1051.2</ele>
        <time>2021-09-01T09:35:46Z</time>
      </trkpt>
      <trkpt lat="44.92531" lon="5.39925">
        <ele>1051.3</ele>
        <time>2021-09-01T09:35:47Z</time>
      </trkpt>
      <trkpt lat="44.92529" lon="5.39923">
        <ele>1051.4</ele>
        <time>2021-09-01T09:35:48Z</time>
      </trkpt>
      <trkpt lat="44.92527" lon="5.39921">
        <ele>1051.5</ele>
        <time>2021-09-01T09:35:50Z</time>
      </trkpt>
      <trkpt lat="44.92526" lon="5.3992">
        <ele>1051.5</ele>
        <time>2021-09-01T09:35:51Z</time>
      </trkpt>
      <trkpt lat="44.92525" lon="5.39919">
        <ele>1051.6</ele>
        <time>2021-09-01T09:35:53Z</time>
      </trkpt>
      <trkpt lat="44.92524" lon="5.39917">
        <ele>1051.6</ele>
        <time>2021-09-01T09:35:54Z</time>
      </trkpt>
      <trkpt lat="44.92522" lon="5.39915">
        <ele>1051.7</ele>
        <time>2021-09-01T09:35:55Z</time>
      </trkpt>
      <trkpt lat="44.92521" lon="5.39912">
        <ele>1051.8</ele>
        <time>2021-09-01T09:35:57Z</time>
      </trkpt>
      <trkpt lat="44.92519" lon="5.3991">
        <ele>1051.8</ele>
        <time>2021-09-01T09:35:58Z</time>
      </trkpt>
      <trkpt lat="44.92517" lon="5.39907">
        <ele>1051.9</ele>
        <time>2021-09-01T09:36:00Z</time>
      </trkpt>
      <trkpt lat="44.92515" lon="5.39903">
        <ele>1052</ele>
        <time>2021-09-01T09:36:01Z</time>
      </trkpt>
      <trkpt lat="44.92514" lon="5.39901">
        <ele>1052</ele>
        <time>2021-09-01T09:36:02Z</time>
      </trkpt>
      <trkpt lat="44.92512" lon="5.39898">
        <ele>1052.1</ele>
        <time>2021-09-01T09:36:04Z</time>
      </trkpt>
      <trkpt lat="44.9251" lon="5.39896">
        <ele>1052.1</ele>
        <time>2021-09-01T09:36:05Z</time>
      </trkpt>
      <trkpt lat="44.92509" lon="5.39893">
        <ele>1052.1</ele>
        <time>2021-09-01T09:36:07Z</time>
      </trkpt>
      <trkpt lat="44.92506" lon="5.3989">
        <ele>1052.1</ele>
        <time>2021-09-01T09:36:08Z</time>
      </trkpt>
      <trkpt lat="44.92505" lon="5.39889">
        <ele>1052.1</ele>
        <time>2021-09-01T09:36:09Z</time>
      </trkpt>
      <trkpt lat="44.92502" lon="5.39885">
        <ele>1052</ele>
        <time>2021-09-01T09:36:11Z</time>
      </trkpt>
      <trkpt lat="44.92498" lon="5.39882">
        <ele>1051.9</ele>
        <time>2021-09-01T09:36:12Z</time>
      </trkpt>
      <trkpt lat="44.92494" lon="5.3988">
        <ele>1051.8</ele>
        <time>2021-09-01T09:36:14Z</time>
      </trkpt>
      <trkpt lat="44.92491" lon="5.39878">
        <ele>1051.7</ele>
        <time>2021-09-01T09:36:15Z</time>
      </trkpt>
      <trkpt lat="44.92488" lon="5.39877">
        <ele>1051.6</ele>
        <time>2021-09-01T09:36:16Z</time>
      </trkpt>
      <trkpt lat="44.92484" lon="5.39875">
        <ele>1051.4</ele>
        <time>2021-09-01T09:36:17Z</time>
      </trkpt>
      <trkpt lat="44.9248" lon="5.39874">
        <ele>1051.2</ele>
        <time>2021-09-01T09:36:18Z</time>
      </trkpt>
      <trkpt lat="44.92474" lon="5.3987">
        <ele>1050.9</ele>
        <time>2021-09-01T09:36:19Z</time>
      </trkpt>
      <trkpt lat="44.92468" lon="5.39864">
        <ele>1050.6</ele>
        <time>2021-09-01T09:36:21Z</time>
      </trkpt>
      <trkpt lat="44.92463" lon="5.39861">
        <ele>1050.5</ele>
        <time>2021-09-01T09:36:22Z</time>
      </trkpt>
      <trkpt lat="44.92462" lon="5.39858">
        <ele>1050.4</ele>
        <time>2021-09-01T09:36:23Z</time>
      </trkpt>
      <trkpt lat="44.92456" lon="5.39852">
        <ele>1050.3</ele>
        <time>2021-09-01T09:36:24Z</time>
      </trkpt>
      <trkpt lat="44.92449" lon="5.39848">
        <ele>1050.2</ele>
        <time>2021-09-01T09:36:26Z</time>
      </trkpt>
      <trkpt lat="44.92446" lon="5.39846">
        <ele>1050.2</ele>
        <time>2021-09-01T09:36:27Z</time>
      </trkpt>
      <trkpt lat="44.92441" lon="5.39844">
        <ele>1050.1</ele>
        <time>2021-09-01T09:36:28Z</time>
      </trkpt>
      <trkpt lat="44.92438" lon="5.39841">
        <ele>1050.1</ele>
        <time>2021-09-01T09:36:30Z</time>
      </trkpt>
      <trkpt lat="44.92435" lon="5.3984">
        <ele>1050.1</ele>
        <time>2021-09-01T09:36:31Z</time>
      </trkpt>
      <trkpt lat="44.92431" lon="5.39838">
        <ele>1050</ele>
        <time>2021-09-01T09:36:32Z</time>
      </trkpt>
      <trkpt lat="44.92425" lon="5.39837">
        <ele>1049.8</ele>
        <time>2021-09-01T09:36:33Z</time>
      </trkpt>
      <trkpt lat="44.9242" lon="5.39835">
        <ele>1049.7</ele>
        <time>2021-09-01T09:36:34Z</time>
      </trkpt>
      <trkpt lat="44.92413" lon="5.39834">
        <ele>1049.5</ele>
        <time>2021-09-01T09:36:36Z</time>
      </trkpt>
      <trkpt lat="44.92407" lon="5.39834">
        <ele>1049.2</ele>
        <time>2021-09-01T09:36:37Z</time>
      </trkpt>
      <trkpt lat="44.92403" lon="5.39833">
        <ele>1049</ele>
        <time>2021-09-01T09:36:38Z</time>
      </trkpt>
      <trkpt lat="44.92398" lon="5.39833">
        <ele>1048.8</ele>
        <time>2021-09-01T09:36:39Z</time>
      </trkpt>
      <trkpt lat="44.92393" lon="5.39832">
        <ele>1048.6</ele>
        <time>2021-09-01T09:36:40Z</time>
      </trkpt>
      <trkpt lat="44.92387" lon="5.39832">
        <ele>1048.4</ele>
        <time>2021-09-01T09:36:42Z</time>
      </trkpt>
      <trkpt lat="44.92381" lon="5.39835">
        <ele>1048.2</ele>
        <time>2021-09-01T09:36:43Z</time>
      </trkpt>
      <trkpt lat="44.92372" lon="5.39839">
        <ele>1048</ele>
        <time>2021-09-01T09:36:45Z</time>
      </trkpt>
      <trkpt lat="44.92369" lon="5.39836">
        <ele>1048</ele>
        <time>2021-09-01T09:36:46Z</time>
      </trkpt>
      <trkpt lat="44.92365" lon="5.39839">
        <ele>1048</ele>
        <time>2021-09-01T09:36:47Z</time>
      </trkpt>
      <trkpt lat="44.92361" lon="5.39845">
        <ele>1048.1</ele>
        <time>2021-09-01T09:36:49Z</time>
      </trkpt>
      <trkpt lat="44.92358" lon="5.39852">
        <ele>1048.1</ele>
        <time>2021-09-01T09:36:50Z</time>
      </trkpt>
      <trkpt lat="44.92356" lon="5.3986">
        <ele>1048.2</ele>
        <time>2021-09-01T09:36:52Z</time>
      </trkpt>
      <trkpt lat="44.92354" lon="5.3987">
        <ele>1048.4</ele>
        <time>2021-09-01T09:36:53Z</time>
      </trkpt>
      <trkpt lat="44.92353" lon="5.39878">
        <ele>1048.6</ele>
        <time>2021-09-01T09:36:55Z</time>
      </trkpt>
      <trkpt lat="44.92351" lon="5.39885">
        <ele>1048.7</ele>
        <time>2021-09-01T09:36:56Z</time>
      </trkpt>
      <trkpt lat="44.9235" lon="5.39892">
        <ele>1048.9</ele>
        <time>2021-09-01T09:36:58Z</time>
      </trkpt>
      <trkpt lat="44.9235" lon="5.39897">
        <ele>1049</ele>
        <time>2021-09-01T09:36:59Z</time>
      </trkpt>
      <trkpt lat="44.92349" lon="5.39902">
        <ele>1049.1</ele>
        <time>2021-09-01T09:37:00Z</time>
      </trkpt>
      <trkpt lat="44.92347" lon="5.39905">
        <ele>1049.2</ele>
        <time>2021-09-01T09:37:01Z</time>
      </trkpt>
      <trkpt lat="44.92346" lon="5.39909">
        <ele>1049.3</ele>
        <time>2021-09-01T09:37:02Z</time>
      </trkpt>
      <trkpt lat="44.92343" lon="5.39913">
        <ele>1049.4</ele>
        <time>2021-09-01T09:37:04Z</time>
      </trkpt>
      <trkpt lat="44.92341" lon="5.39915">
        <ele>1049.4</ele>
        <time>2021-09-01T09:37:05Z</time>
      </trkpt>
      <trkpt lat="44.9234" lon="5.39917">
        <ele>1049.4</ele>
        <time>2021-09-01T09:37:06Z</time>
      </trkpt>
      <trkpt lat="44.92338" lon="5.39921">
        <ele>1049.5</ele>
        <time>2021-09-01T09:37:08Z</time>
      </trkpt>
      <trkpt lat="44.92334" lon="5.39924">
        <ele>1049.6</ele>
        <time>2021-09-01T09:37:09Z</time>
      </trkpt>
      <trkpt lat="44.92332" lon="5.39927">
        <ele>1049.7</ele>
        <time>2021-09-01T09:37:10Z</time>
      </trkpt>
      <trkpt lat="44.9233" lon="5.39931">
        <ele>1049.7</ele>
        <time>2021-09-01T09:37:11Z</time>
      </trkpt>
      <trkpt lat="44.92327" lon="5.39936">
        <ele>1049.8</ele>
        <time>2021-09-01T09:37:13Z</time>
      </trkpt>
      <trkpt lat="44.92326" lon="5.39939">
        <ele>1049.9</ele>
        <time>2021-09-01T09:37:14Z</time>
      </trkpt>
      <trkpt lat="44.92325" lon="5.39941">
        <ele>1049.9</ele>
        <time>2021-09-01T09:37:15Z</time>
      </trkpt>
      <trkpt lat="44.92323" lon="5.39946">
        <ele>1049.9</ele>
        <time>2021-09-01T09:37:17Z</time>
      </trkpt>
      <trkpt lat="44.92322" lon="5.39948">
        <ele>1050</ele>
        <time>2021-09-01T09:37:18Z</time>
      </trkpt>
      <trkpt lat="44.92321" lon="5.3995">
        <ele>1050</ele>
        <time>2021-09-01T09:37:19Z</time>
      </trkpt>
      <trkpt lat="44.9232" lon="5.39954">
        <ele>1050</ele>
        <time>2021-09-01T09:37:20Z</time>
      </trkpt>
      <trkpt lat="44.92317" lon="5.39959">
        <ele>1049.9</ele>
        <time>2021-09-01T09:37:22Z</time>
      </trkpt>
      <trkpt lat="44.92314" lon="5.39966">
        <ele>1049.8</ele>
        <time>2021-09-01T09:37:23Z</time>
      </trkpt>
      <trkpt lat="44.92312" lon="5.3997">
        <ele>1049.8</ele>
        <time>2021-09-01T09:37:24Z</time>
      </trkpt>
      <trkpt lat="44.92309" lon="5.39975">
        <ele>1049.7</ele>
        <time>2021-09-01T09:37:26Z</time>
      </trkpt>
      <trkpt lat="44.92307" lon="5.39979">
        <ele>1049.6</ele>
        <time>2021-09-01T09:37:27Z</time>
      </trkpt>
      <trkpt lat="44.92304" lon="5.39983">
        <ele>1049.5</ele>
        <time>2021-09-01T09:37:28Z</time>
      </trkpt>
      <trkpt lat="44.92302" lon="5.39989">
        <ele>1049.4</ele>
        <time>2021-09-01T09:37:30Z</time>
      </trkpt>
      <trkpt lat="44.92299" lon="5.39994">
        <ele>1049.4</ele>
        <time>2021-09-01T09:37:31Z</time>
      </trkpt>
      <trkpt lat="44.92297" lon="5.40002">
        <ele>1049.4</ele>
        <time>2021-09-01T09:37:33Z</time>
      </trkpt>
      <trkpt lat="44.92294" lon="5.4001">
        <ele>1049.5</ele>
        <time>2021-09-01T09:37:34Z</time>
      </trkpt>
      <trkpt lat="44.92293" lon="5.40016">
        <ele>1049.5</ele>
        <time>2021-09-01T09:37:36Z</time>
      </trkpt>
      <trkpt lat="44.92292" lon="5.40023">
        <ele>1049.6</ele>
        <time>2021-09-01T09:37:37Z</time>
      </trkpt>
      <trkpt lat="44.92291" lon="5.40031">
        <ele>1049.7</ele>
        <time>2021-09-01T09:37:39Z</time>
      </trkpt>
      <trkpt lat="44.92291" lon="5.40036">
        <ele>1049.7</ele>
        <time>2021-09-01T09:37:40Z</time>
      </trkpt>
      <trkpt lat="44.92291" lon="5.40041">
        <ele>1049.7</ele>
        <time>2021-09-01T09:37:41Z</time>
      </trkpt>
      <trkpt lat="44.92291" lon="5.40048">
        <ele>1049.7</ele>
        <time>2021-09-01T09:37:42Z</time>
      </trkpt>
      <trkpt lat="44.92291" lon="5.40056">
        <ele>1049.7</ele>
        <time>2021-09-01T09:37:44Z</time>
      </trkpt>
      <trkpt lat="44.92291" lon="5.40063">
        <ele>1049.7</ele>
        <time>2021-09-01T09:37:46Z</time>
      </trkpt>
      <trkpt lat="44.9229" lon="5.40068">
        <ele>1049.6</ele>
        <time>2021-09-01T09:37:47Z</time>
      </trkpt>
      <trkpt lat="44.92288" lon="5.40074">
        <ele>1049.6</ele>
        <time>2021-09-01T09:37:48Z</time>
      </trkpt>
      <trkpt lat="44.92287" lon="5.40079">
        <ele>1049.6</ele>
        <time>2021-09-01T09:37:49Z</time>
      </trkpt>
      <trkpt lat="44.92284" lon="5.40083">
        <ele>1049.5</ele>
        <time>2021-09-01T09:37:50Z</time>
      </trkpt>
      <trkpt lat="44.92279" lon="5.40088">
        <ele>1049.5</ele>
        <time>2021-09-01T09:37:52Z</time>
      </trkpt>
      <trkpt lat="44.92275" lon="5.40091">
        <ele>1049.6</ele>
        <time>2021-09-01T09:37:53Z</time>
      </trkpt>
      <trkpt lat="44.92268" lon="5.40095">
        <ele>1049.7</ele>
        <time>2021-09-01T09:37:55Z</time>
      </trkpt>
      <trkpt lat="44.92262" lon="5.40098">
        <ele>1050</ele>
        <time>2021-09-01T09:37:56Z</time>
      </trkpt>
      <trkpt lat="44.92258" lon="5.40099">
        <ele>1050.2</ele>
        <time>2021-09-01T09:37:57Z</time>
      </trkpt>
      <trkpt lat="44.92255" lon="5.40099">
        <ele>1050.4</ele>
        <time>2021-09-01T09:37:59Z</time>
      </trkpt>
      <trkpt lat="44.92252" lon="5.40098">
        <ele>1050.6</ele>
        <time>2021-09-01T09:38:00Z</time>
      </trkpt>
      <trkpt lat="44.92248" lon="5.40098">
        <ele>1050.9</ele>
        <time>2021-09-01T09:38:01Z</time>
      </trkpt>
      <trkpt lat="44.92246" lon="5.40098">
        <ele>1051</ele>
        <time>2021-09-01T09:38:02Z</time>
      </trkpt>
      <trkpt lat="44.92243" lon="5.40097">
        <ele>1051.2</ele>
        <time>2021-09-01T09:38:04Z</time>
      </trkpt>
      <trkpt lat="44.92241" lon="5.40097">
        <ele>1051.3</ele>
        <time>2021-09-01T09:38:05Z</time>
      </trkpt>
      <trkpt lat="44.9224" lon="5.40097">
        <ele>1051.4</ele>
        <time>2021-09-01T09:38:06Z</time>
      </trkpt>
      <trkpt lat="44.92237" lon="5.40097">
        <ele>1051.6</ele>
        <time>2021-09-01T09:38:07Z</time>
      </trkpt>
      <trkpt lat="44.92235" lon="5.40097">
        <ele>1051.7</ele>
        <time>2021-09-01T09:38:08Z</time>
      </trkpt>
      <trkpt lat="44.92232" lon="5.40098">
        <ele>1051.8</ele>
        <time>2021-09-01T09:38:10Z</time>
      </trkpt>
      <trkpt lat="44.92228" lon="5.40097">
        <ele>1052</ele>
        <time>2021-09-01T09:38:11Z</time>
      </trkpt>
      <trkpt lat="44.92226" lon="5.40097">
        <ele>1052.1</ele>
        <time>2021-09-01T09:38:12Z</time>
      </trkpt>
      <trkpt lat="44.92222" lon="5.40096">
        <ele>1052.3</ele>
        <time>2021-09-01T09:38:13Z</time>
      </trkpt>
      <trkpt lat="44.9222" lon="5.40095">
        <ele>1052.4</ele>
        <time>2021-09-01T09:38:14Z</time>
      </trkpt>
      <trkpt lat="44.92216" lon="5.40094">
        <ele>1052.6</ele>
        <time>2021-09-01T09:38:16Z</time>
      </trkpt>
      <trkpt lat="44.92215" lon="5.40093">
        <ele>1052.6</ele>
        <time>2021-09-01T09:38:17Z</time>
      </trkpt>
      <trkpt lat="44.92212" lon="5.40092">
        <ele>1052.7</ele>
        <time>2021-09-01T09:38:18Z</time>
      </trkpt>
      <trkpt lat="44.92211" lon="5.40092">
        <ele>1052.8</ele>
        <time>2021-09-01T09:38:19Z</time>
      </trkpt>
      <trkpt lat="44.9221" lon="5.40092">
        <ele>1052.8</ele>
        <time>2021-09-01T09:38:21Z</time>
      </trkpt>
      <trkpt lat="44.9221" lon="5.40091">
        <ele>1052.9</ele>
        <time>2021-09-01T09:38:23Z</time>
      </trkpt>
      <trkpt lat="44.9221" lon="5.40091">
        <ele>1052.9</ele>
        <time>2021-09-01T09:38:25Z</time>
      </trkpt>
      <trkpt lat="44.92209" lon="5.40091">
        <ele>1052.9</ele>
        <time>2021-09-01T09:38:26Z</time>
      </trkpt>
      <trkpt lat="44.92209" lon="5.40091">
        <ele>1052.9</ele>
        <time>2021-09-01T09:38:27Z</time>
      </trkpt>
      <trkpt lat="44.92209" lon="5.40091">
        <ele>1052.9</ele>
        <time>2021-09-01T09:38:29Z</time>
      </trkpt>
      <trkpt lat="44.91849" lon="5.39927">
        <ele>1062.5</ele>
        <time>2021-09-01T09:41:47Z</time>
      </trkpt>
      <trkpt lat="44.91846" lon="5.39947">
        <ele>1062.5</ele>
        <time>2021-09-01T09:41:49Z</time>
      </trkpt>
      <trkpt lat="44.91844" lon="5.39953">
        <ele>1062.6</ele>
        <time>2021-09-01T09:41:50Z</time>
      </trkpt>
      <trkpt lat="44.91834" lon="5.39889">
        <ele>1064</ele>
        <time>2021-09-01T09:41:51Z</time>
      </trkpt>
      <trkpt lat="44.91832" lon="5.39884">
        <ele>1064.2</ele>
        <time>2021-09-01T09:41:52Z</time>
      </trkpt>
      <trkpt lat="44.9183" lon="5.39879">
        <ele>1064.3</ele>
        <time>2021-09-01T09:41:53Z</time>
      </trkpt>
      <trkpt lat="44.91832" lon="5.39883">
        <ele>1064.4</ele>
        <time>2021-09-01T09:41:55Z</time>
      </trkpt>
      <trkpt lat="44.91832" lon="5.39883">
        <ele>1064.4</ele>
        <time>2021-09-01T09:41:56Z</time>
      </trkpt>
      <trkpt lat="44.91833" lon="5.39886">
        <ele>1064.4</ele>
        <time>2021-09-01T09:41:58Z</time>
      </trkpt>
      <trkpt lat="44.91833" lon="5.39886">
        <ele>1064.5</ele>
        <time>2021-09-01T09:41:59Z</time>
      </trkpt>
      <trkpt lat="44.91834" lon="5.39887">
        <ele>1064.5</ele>
        <time>2021-09-01T09:42:01Z</time>
      </trkpt>
      <trkpt lat="44.91834" lon="5.39887">
        <ele>1064.5</ele>
        <time>2021-09-01T09:42:02Z</time>
      </trkpt>
      <trkpt lat="44.91834" lon="5.39887">
        <ele>1064.5</ele>
        <time>2021-09-01T09:42:03Z</time>
      </trkpt>
      <trkpt lat="44.91834" lon="5.39886">
        <ele>1064.5</ele>
        <time>2021-09-01T09:42:05Z</time>
      </trkpt>
      <trkpt lat="44.91835" lon="5.39893">
        <ele>1064.6</ele>
        <time>2021-09-01T09:42:17Z</time>
      </trkpt>
      <trkpt lat="44.91836" lon="5.39907">
        <ele>1063.9</ele>
        <time>2021-09-01T09:42:19Z</time>
      </trkpt>
      <trkpt lat="44.91838" lon="5.39914">
        <ele>1063.5</ele>
        <time>2021-09-01T09:42:20Z</time>
      </trkpt>
      <trkpt lat="44.91839" lon="5.39915">
        <ele>1063.4</ele>
        <time>2021-09-01T09:42:21Z</time>
      </trkpt>
      <trkpt lat="44.9184" lon="5.39919">
        <ele>1062.5</ele>
        <time>2021-09-01T09:42:23Z</time>
      </trkpt>
      <trkpt lat="44.9184" lon="5.39919">
        <ele>1062.5</ele>
        <time>2021-09-01T09:42:24Z</time>
      </trkpt>
      <trkpt lat="44.9184" lon="5.39919">
        <ele>1062.5</ele>
        <time>2021-09-01T09:42:26Z</time>
      </trkpt>
      <trkpt lat="44.9184" lon="5.39919">
        <ele>1062.5</ele>
        <time>2021-09-01T09:42:28Z</time>
      </trkpt>
      <trkpt lat="44.9184" lon="5.39917">
        <ele>1062.4</ele>
        <time>2021-09-01T09:42:29Z</time>
      </trkpt>
      <trkpt lat="44.9184" lon="5.39915">
        <ele>1062.4</ele>
        <time>2021-09-01T09:42:30Z</time>
      </trkpt>
      <trkpt lat="44.91837" lon="5.39921">
        <ele>1062.3</ele>
        <time>2021-09-01T09:42:33Z</time>
      </trkpt>
      <trkpt lat="44.91833" lon="5.39926">
        <ele>1062.2</ele>
        <time>2021-09-01T09:42:35Z</time>
      </trkpt>
      <trkpt lat="44.91829" lon="5.3993">
        <ele>1062</ele>
        <time>2021-09-01T09:42:55Z</time>
      </trkpt>
      <trkpt lat="44.91826" lon="5.39935">
        <ele>1061.9</ele>
        <time>2021-09-01T09:42:56Z</time>
      </trkpt>
      <trkpt lat="44.9182" lon="5.39934">
        <ele>1061.8</ele>
        <time>2021-09-01T09:42:58Z</time>
      </trkpt>
      <trkpt lat="44.91812" lon="5.39934">
        <ele>1061.7</ele>
        <time>2021-09-01T09:42:59Z</time>
      </trkpt>
      <trkpt lat="44.91805" lon="5.39933">
        <ele>1061.6</ele>
        <time>2021-09-01T09:43:00Z</time>
      </trkpt>
      <trkpt lat="44.918" lon="5.39933">
        <ele>1061.6</ele>
        <time>2021-09-01T09:43:02Z</time>
      </trkpt>
      <trkpt lat="44.91792" lon="5.39934">
        <ele>1061.5</ele>
        <time>2021-09-01T09:43:03Z</time>
      </trkpt>
      <trkpt lat="44.91787" lon="5.39934">
        <ele>1061.5</ele>
        <time>2021-09-01T09:43:04Z</time>
      </trkpt>
      <trkpt lat="44.91783" lon="5.39934">
        <ele>1061.4</ele>
        <time>2021-09-01T09:43:06Z</time>
      </trkpt>
      <trkpt lat="44.91779" lon="5.39934">
        <ele>1061.3</ele>
        <time>2021-09-01T09:43:07Z</time>
      </trkpt>
      <trkpt lat="44.91776" lon="5.39935">
        <ele>1061.1</ele>
        <time>2021-09-01T09:43:08Z</time>
      </trkpt>
      <trkpt lat="44.91774" lon="5.39937">
        <ele>1061</ele>
        <time>2021-09-01T09:43:10Z</time>
      </trkpt>
      <trkpt lat="44.91774" lon="5.39936">
        <ele>1061</ele>
        <time>2021-09-01T09:43:12Z</time>
      </trkpt>
      <trkpt lat="44.91773" lon="5.39934">
        <ele>1060.9</ele>
        <time>2021-09-01T09:43:13Z</time>
      </trkpt>
      <trkpt lat="44.91775" lon="5.39933">
        <ele>1060.8</ele>
        <time>2021-09-01T09:43:15Z</time>
      </trkpt>
      <trkpt lat="44.91776" lon="5.39932">
        <ele>1060.7</ele>
        <time>2021-09-01T09:43:17Z</time>
      </trkpt>
      <trkpt lat="44.91776" lon="5.39934">
        <ele>1060.6</ele>
        <time>2021-09-01T09:43:18Z</time>
      </trkpt>
      <trkpt lat="44.91775" lon="5.39936">
        <ele>1060.5</ele>
        <time>2021-09-01T09:43:20Z</time>
      </trkpt>
      <trkpt lat="44.91775" lon="5.39937">
        <ele>1060.5</ele>
        <time>2021-09-01T09:43:22Z</time>
      </trkpt>
      <trkpt lat="44.91775" lon="5.39938">
        <ele>1060.4</ele>
        <time>2021-09-01T09:43:23Z</time>
      </trkpt>
      <trkpt lat="44.91775" lon="5.39938">
        <ele>1060.4</ele>
        <time>2021-09-01T09:43:25Z</time>
      </trkpt>
      <trkpt lat="44.91775" lon="5.39939">
        <ele>1060.4</ele>
        <time>2021-09-01T09:43:26Z</time>
      </trkpt>
      <trkpt lat="44.91776" lon="5.3994">
        <ele>1060.3</ele>
        <time>2021-09-01T09:43:27Z</time>
      </trkpt>
      <trkpt lat="44.91753" lon="5.39963">
        <ele>1058</ele>
        <time>2021-09-01T09:43:41Z</time>
      </trkpt>
      <trkpt lat="44.91749" lon="5.39965">
        <ele>1057.6</ele>
        <time>2021-09-01T09:43:42Z</time>
      </trkpt>
      <trkpt lat="44.91741" lon="5.3997">
        <ele>1056.8</ele>
        <time>2021-09-01T09:43:43Z</time>
      </trkpt>
      <trkpt lat="44.91736" lon="5.39975">
        <ele>1056.2</ele>
        <time>2021-09-01T09:43:44Z</time>
      </trkpt>
      <trkpt lat="44.91732" lon="5.3998">
        <ele>1055.8</ele>
        <time>2021-09-01T09:43:45Z</time>
      </trkpt>
      <trkpt lat="44.91729" lon="5.39986">
        <ele>1055.4</ele>
        <time>2021-09-01T09:43:47Z</time>
      </trkpt>
      <trkpt lat="44.91728" lon="5.39995">
        <ele>1055</ele>
        <time>2021-09-01T09:43:48Z</time>
      </trkpt>
      <trkpt lat="44.91727" lon="5.40004">
        <ele>1054.5</ele>
        <time>2021-09-01T09:43:49Z</time>
      </trkpt>
      <trkpt lat="44.91725" lon="5.40014">
        <ele>1054.2</ele>
        <time>2021-09-01T09:43:51Z</time>
      </trkpt>
      <trkpt lat="44.91722" lon="5.40025">
        <ele>1053.7</ele>
        <time>2021-09-01T09:43:52Z</time>
      </trkpt>
      <trkpt lat="44.91719" lon="5.40032">
        <ele>1053.5</ele>
        <time>2021-09-01T09:43:53Z</time>
      </trkpt>
      <trkpt lat="44.91716" lon="5.40038">
        <ele>1053.2</ele>
        <time>2021-09-01T09:43:54Z</time>
      </trkpt>
      <trkpt lat="44.91713" lon="5.40044">
        <ele>1053</ele>
        <time>2021-09-01T09:43:55Z</time>
      </trkpt>
      <trkpt lat="44.91707" lon="5.40056">
        <ele>1052.6</ele>
        <time>2021-09-01T09:43:57Z</time>
      </trkpt>
      <trkpt lat="44.91701" lon="5.40067">
        <ele>1052.2</ele>
        <time>2021-09-01T09:43:59Z</time>
      </trkpt>
      <trkpt lat="44.91697" lon="5.40071">
        <ele>1052</ele>
        <time>2021-09-01T09:44:00Z</time>
      </trkpt>
      <trkpt lat="44.91693" lon="5.40075">
        <ele>1051.8</ele>
        <time>2021-09-01T09:44:01Z</time>
      </trkpt>
      <trkpt lat="44.91684" lon="5.40081">
        <ele>1051.3</ele>
        <time>2021-09-01T09:44:03Z</time>
      </trkpt>
      <trkpt lat="44.91679" lon="5.40085">
        <ele>1051.1</ele>
        <time>2021-09-01T09:44:04Z</time>
      </trkpt>
      <trkpt lat="44.9167" lon="5.40095">
        <ele>1050.6</ele>
        <time>2021-09-01T09:44:06Z</time>
      </trkpt>
      <trkpt lat="44.91662" lon="5.40105">
        <ele>1050.4</ele>
        <time>2021-09-01T09:44:08Z</time>
      </trkpt>
      <trkpt lat="44.91655" lon="5.40113">
        <ele>1050.3</ele>
        <time>2021-09-01T09:44:10Z</time>
      </trkpt>
      <trkpt lat="44.91652" lon="5.40117">
        <ele>1050.4</ele>
        <time>2021-09-01T09:44:11Z</time>
      </trkpt>
      <trkpt lat="44.91649" lon="5.40118">
        <ele>1050.4</ele>
        <time>2021-09-01T09:44:12Z</time>
      </trkpt>
      <trkpt lat="44.91644" lon="5.40124">
        <ele>1050.5</ele>
        <time>2021-09-01T09:44:14Z</time>
      </trkpt>
      <trkpt lat="44.91641" lon="5.4013">
        <ele>1050.6</ele>
        <time>2021-09-01T09:44:16Z</time>
      </trkpt>
      <trkpt lat="44.91638" lon="5.40134">
        <ele>1050.7</ele>
        <time>2021-09-01T09:44:17Z</time>
      </trkpt>
      <trkpt lat="44.91636" lon="5.40135">
        <ele>1050.7</ele>
        <time>2021-09-01T09:44:18Z</time>
      </trkpt>
      <trkpt lat="44.91634" lon="5.40139">
        <ele>1050.8</ele>
        <time>2021-09-01T09:44:19Z</time>
      </trkpt>
      <trkpt lat="44.91629" lon="5.40149">
        <ele>1051</ele>
        <time>2021-09-01T09:44:21Z</time>
      </trkpt>
      <trkpt lat="44.91628" lon="5.40154">
        <ele>1051</ele>
        <time>2021-09-01T09:44:22Z</time>
      </trkpt>
      <trkpt lat="44.91625" lon="5.40157">
        <ele>1051.1</ele>
        <time>2021-09-01T09:44:23Z</time>
      </trkpt>
      <trkpt lat="44.91623" lon="5.4016">
        <ele>1051.2</ele>
        <time>2021-09-01T09:44:25Z</time>
      </trkpt>
      <trkpt lat="44.9162" lon="5.40162">
        <ele>1051.2</ele>
        <time>2021-09-01T09:44:26Z</time>
      </trkpt>
      <trkpt lat="44.91617" lon="5.40161">
        <ele>1051.3</ele>
        <time>2021-09-01T09:44:28Z</time>
      </trkpt>
      <trkpt lat="44.91614" lon="5.40163">
        <ele>1051.4</ele>
        <time>2021-09-01T09:44:29Z</time>
      </trkpt>
      <trkpt lat="44.9161" lon="5.40163">
        <ele>1051.5</ele>
        <time>2021-09-01T09:44:31Z</time>
      </trkpt>
      <trkpt lat="44.91606" lon="5.40162">
        <ele>1051.6</ele>
        <time>2021-09-01T09:44:33Z</time>
      </trkpt>
      <trkpt lat="44.91603" lon="5.40161">
        <ele>1051.7</ele>
        <time>2021-09-01T09:44:35Z</time>
      </trkpt>
      <trkpt lat="44.91602" lon="5.40163">
        <ele>1051.8</ele>
        <time>2021-09-01T09:44:36Z</time>
      </trkpt>
      <trkpt lat="44.91599" lon="5.40167">
        <ele>1051.9</ele>
        <time>2021-09-01T09:44:38Z</time>
      </trkpt>
      <trkpt lat="44.91598" lon="5.40168">
        <ele>1052</ele>
        <time>2021-09-01T09:44:39Z</time>
      </trkpt>
      <trkpt lat="44.91595" lon="5.40173">
        <ele>1052.2</ele>
        <time>2021-09-01T09:44:41Z</time>
      </trkpt>
      <trkpt lat="44.91593" lon="5.40177">
        <ele>1052.4</ele>
        <time>2021-09-01T09:44:42Z</time>
      </trkpt>
      <trkpt lat="44.91592" lon="5.40178">
        <ele>1052.5</ele>
        <time>2021-09-01T09:44:43Z</time>
      </trkpt>
      <trkpt lat="44.9159" lon="5.40183">
        <ele>1052.7</ele>
        <time>2021-09-01T09:44:45Z</time>
      </trkpt>
      <trkpt lat="44.91588" lon="5.40186">
        <ele>1052.9</ele>
        <time>2021-09-01T09:44:47Z</time>
      </trkpt>
      <trkpt lat="44.91587" lon="5.40187">
        <ele>1052.9</ele>
        <time>2021-09-01T09:44:48Z</time>
      </trkpt>
      <trkpt lat="44.91587" lon="5.40187">
        <ele>1053</ele>
        <time>2021-09-01T09:44:50Z</time>
      </trkpt>
      <trkpt lat="44.91586" lon="5.40187">
        <ele>1053</ele>
        <time>2021-09-01T09:44:51Z</time>
      </trkpt>
      <trkpt lat="44.91587" lon="5.40186">
        <ele>1053.1</ele>
        <time>2021-09-01T09:44:53Z</time>
      </trkpt>
      <trkpt lat="44.91588" lon="5.40185">
        <ele>1053.1</ele>
        <time>2021-09-01T09:44:54Z</time>
      </trkpt>
      <trkpt lat="44.91588" lon="5.40185">
        <ele>1053.2</ele>
        <time>2021-09-01T09:44:56Z</time>
      </trkpt>
      <trkpt lat="44.91588" lon="5.40185">
        <ele>1053.2</ele>
        <time>2021-09-01T09:44:57Z</time>
      </trkpt>
      <trkpt lat="44.91589" lon="5.40185">
        <ele>1053.2</ele>
        <time>2021-09-01T09:44:58Z</time>
      </trkpt>
      <trkpt lat="44.91589" lon="5.40184">
        <ele>1053.2</ele>
        <time>2021-09-01T09:44:59Z</time>
      </trkpt>
      <trkpt lat="44.9159" lon="5.40184">
        <ele>1053.3</ele>
        <time>2021-09-01T09:45:00Z</time>
      </trkpt>
      <trkpt lat="44.91591" lon="5.40182">
        <ele>1053.4</ele>
        <time>2021-09-01T09:45:02Z</time>
      </trkpt>
      <trkpt lat="44.91592" lon="5.40181">
        <ele>1053.5</ele>
        <time>2021-09-01T09:45:03Z</time>
      </trkpt>
      <trkpt lat="44.9158" lon="5.40207">
        <ele>1055.1</ele>
        <time>2021-09-01T09:45:58Z</time>
      </trkpt>
      <trkpt lat="44.91579" lon="5.40209">
        <ele>1055.3</ele>
        <time>2021-09-01T09:45:59Z</time>
      </trkpt>
      <trkpt lat="44.91578" lon="5.4021">
        <ele>1055.4</ele>
        <time>2021-09-01T09:46:01Z</time>
      </trkpt>
      <trkpt lat="44.91576" lon="5.40212">
        <ele>1055.5</ele>
        <time>2021-09-01T09:46:03Z</time>
      </trkpt>
      <trkpt lat="44.91576" lon="5.40213">
        <ele>1055.5</ele>
        <time>2021-09-01T09:46:04Z</time>
      </trkpt>
      <trkpt lat="44.91575" lon="5.40215">
        <ele>1055.5</ele>
        <time>2021-09-01T09:46:06Z</time>
      </trkpt>
      <trkpt lat="44.91575" lon="5.40215">
        <ele>1055.6</ele>
        <time>2021-09-01T09:46:07Z</time>
      </trkpt>
      <trkpt lat="44.91575" lon="5.40216">
        <ele>1055.6</ele>
        <time>2021-09-01T09:46:08Z</time>
      </trkpt>
      <trkpt lat="44.91575" lon="5.40217">
        <ele>1055.6</ele>
        <time>2021-09-01T09:46:09Z</time>
      </trkpt>
      <trkpt lat="44.91574" lon="5.40218">
        <ele>1055.6</ele>
        <time>2021-09-01T09:46:10Z</time>
      </trkpt>
      <trkpt lat="44.91574" lon="5.40218">
        <ele>1055.6</ele>
        <time>2021-09-01T09:46:11Z</time>
      </trkpt>
      <trkpt lat="44.91574" lon="5.40219">
        <ele>1055.6</ele>
        <time>2021-09-01T09:46:13Z</time>
      </trkpt>
      <trkpt lat="44.91541" lon="5.40204">
        <ele>1057.2</ele>
        <time>2021-09-01T09:47:15Z</time>
      </trkpt>
      <trkpt lat="44.91538" lon="5.40203">
        <ele>1057.3</ele>
        <time>2021-09-01T09:47:16Z</time>
      </trkpt>
      <trkpt lat="44.91534" lon="5.40202">
        <ele>1057.4</ele>
        <time>2021-09-01T09:47:17Z</time>
      </trkpt>
      <trkpt lat="44.9153" lon="5.40202">
        <ele>1057.4</ele>
        <time>2021-09-01T09:47:18Z</time>
      </trkpt>
      <trkpt lat="44.91523" lon="5.40201">
        <ele>1057.6</ele>
        <time>2021-09-01T09:47:20Z</time>
      </trkpt>
      <trkpt lat="44.91517" lon="5.40203">
        <ele>1057.6</ele>
        <time>2021-09-01T09:47:21Z</time>
      </trkpt>
      <trkpt lat="44.91512" lon="5.40205">
        <ele>1057.6</ele>
        <time>2021-09-01T09:47:22Z</time>
      </trkpt>
      <trkpt lat="44.91509" lon="5.40208">
        <ele>1057.7</ele>
        <time>2021-09-01T09:47:23Z</time>
      </trkpt>
      <trkpt lat="44.91506" lon="5.40211">
        <ele>1057.7</ele>
        <time>2021-09-01T09:47:24Z</time>
      </trkpt>
      <trkpt lat="44.91503" lon="5.40214">
        <ele>1057.7</ele>
        <time>2021-09-01T09:47:26Z</time>
      </trkpt>
      <trkpt lat="44.915" lon="5.40216">
        <ele>1057.7</ele>
        <time>2021-09-01T09:47:27Z</time>
      </trkpt>
      <trkpt lat="44.91498" lon="5.40219">
        <ele>1057.8</ele>
        <time>2021-09-01T09:47:28Z</time>
      </trkpt>
      <trkpt lat="44.91493" lon="5.40224">
        <ele>1057.9</ele>
        <time>2021-09-01T09:47:30Z</time>
      </trkpt>
      <trkpt lat="44.9149" lon="5.40227">
        <ele>1057.9</ele>
        <time>2021-09-01T09:47:31Z</time>
      </trkpt>
      <trkpt lat="44.91489" lon="5.40227">
        <ele>1057.9</ele>
        <time>2021-09-01T09:47:32Z</time>
      </trkpt>
      <trkpt lat="44.91484" lon="5.40228">
        <ele>1058</ele>
        <time>2021-09-01T09:47:34Z</time>
      </trkpt>
      <trkpt lat="44.91477" lon="5.40228">
        <ele>1058.1</ele>
        <time>2021-09-01T09:47:35Z</time>
      </trkpt>
      <trkpt lat="44.91473" lon="5.40228">
        <ele>1058.1</ele>
        <time>2021-09-01T09:47:36Z</time>
      </trkpt>
      <trkpt lat="44.9147" lon="5.40228">
        <ele>1058.1</ele>
        <time>2021-09-01T09:47:37Z</time>
      </trkpt>
      <trkpt lat="44.91466" lon="5.40228">
        <ele>1058.2</ele>
        <time>2021-09-01T09:47:38Z</time>
      </trkpt>
      <trkpt lat="44.91462" lon="5.40229">
        <ele>1058.2</ele>
        <time>2021-09-01T09:47:40Z</time>
      </trkpt>
      <trkpt lat="44.91456" lon="5.4023">
        <ele>1058.1</ele>
        <time>2021-09-01T09:47:42Z</time>
      </trkpt>
      <trkpt lat="44.91449" lon="5.40231">
        <ele>1058.1</ele>
        <time>2021-09-01T09:47:44Z</time>
      </trkpt>
      <trkpt lat="44.91445" lon="5.40231">
        <ele>1058.1</ele>
        <time>2021-09-01T09:47:45Z</time>
      </trkpt>
      <trkpt lat="44.91439" lon="5.40232">
        <ele>1058</ele>
        <time>2021-09-01T09:47:46Z</time>
      </trkpt>
      <trkpt lat="44.91433" lon="5.40232">
        <ele>1058</ele>
        <time>2021-09-01T09:47:48Z</time>
      </trkpt>
      <trkpt lat="44.91429" lon="5.40232">
        <ele>1057.9</ele>
        <time>2021-09-01T09:47:49Z</time>
      </trkpt>
      <trkpt lat="44.91421" lon="5.40231">
        <ele>1057.9</ele>
        <time>2021-09-01T09:47:51Z</time>
      </trkpt>
      <trkpt lat="44.91415" lon="5.40229">
        <ele>1057.8</ele>
        <time>2021-09-01T09:47:52Z</time>
      </trkpt>
      <trkpt lat="44.9141" lon="5.40228">
        <ele>1057.9</ele>
        <time>2021-09-01T09:47:53Z</time>
      </trkpt>
      <trkpt lat="44.91408" lon="5.40233">
        <ele>1057.9</ele>
        <time>2021-09-01T09:47:55Z</time>
      </trkpt>
      <trkpt lat="44.91406" lon="5.40235">
        <ele>1057.9</ele>
        <time>2021-09-01T09:47:56Z</time>
      </trkpt>
      <trkpt lat="44.91404" lon="5.40237">
        <ele>1057.9</ele>
        <time>2021-09-01T09:47:58Z</time>
      </trkpt>
      <trkpt lat="44.91403" lon="5.40238">
        <ele>1057.9</ele>
        <time>2021-09-01T09:47:59Z</time>
      </trkpt>
      <trkpt lat="44.91397" lon="5.40239">
        <ele>1057.9</ele>
        <time>2021-09-01T09:48:00Z</time>
      </trkpt>
      <trkpt lat="44.91393" lon="5.40236">
        <ele>1058</ele>
        <time>2021-09-01T09:48:02Z</time>
      </trkpt>
      <trkpt lat="44.91386" lon="5.40231">
        <ele>1058</ele>
        <time>2021-09-01T09:48:03Z</time>
      </trkpt>
      <trkpt lat="44.91381" lon="5.40229">
        <ele>1058.1</ele>
        <time>2021-09-01T09:48:05Z</time>
      </trkpt>
      <trkpt lat="44.91377" lon="5.40227">
        <ele>1058.1</ele>
        <time>2021-09-01T09:48:06Z</time>
      </trkpt>
      <trkpt lat="44.91372" lon="5.40227">
        <ele>1058.1</ele>
        <time>2021-09-01T09:48:07Z</time>
      </trkpt>
      <trkpt lat="44.91367" lon="5.40227">
        <ele>1058.1</ele>
        <time>2021-09-01T09:48:09Z</time>
      </trkpt>
      <trkpt lat="44.91364" lon="5.40227">
        <ele>1058.1</ele>
        <time>2021-09-01T09:48:10Z</time>
      </trkpt>
      <trkpt lat="44.91358" lon="5.40228">
        <ele>1058</ele>
        <time>2021-09-01T09:48:12Z</time>
      </trkpt>
      <trkpt lat="44.91353" lon="5.40228">
        <ele>1057.9</ele>
        <time>2021-09-01T09:48:13Z</time>
      </trkpt>
      <trkpt lat="44.91348" lon="5.40227">
        <ele>1057.8</ele>
        <time>2021-09-01T09:48:15Z</time>
      </trkpt>
      <trkpt lat="44.91344" lon="5.40225">
        <ele>1057.7</ele>
        <time>2021-09-01T09:48:16Z</time>
      </trkpt>
      <trkpt lat="44.91338" lon="5.40222">
        <ele>1057.5</ele>
        <time>2021-09-01T09:48:17Z</time>
      </trkpt>
      <trkpt lat="44.91332" lon="5.40221">
        <ele>1057.3</ele>
        <time>2021-09-01T09:48:19Z</time>
      </trkpt>
      <trkpt lat="44.91328" lon="5.40219">
        <ele>1057.2</ele>
        <time>2021-09-01T09:48:20Z</time>
      </trkpt>
      <trkpt lat="44.91322" lon="5.40214">
        <ele>1057</ele>
        <time>2021-09-01T09:48:22Z</time>
      </trkpt>
      <trkpt lat="44.91318" lon="5.40211">
        <ele>1057</ele>
        <time>2021-09-01T09:48:23Z</time>
      </trkpt>
      <trkpt lat="44.91315" lon="5.40207">
        <ele>1056.9</ele>
        <time>2021-09-01T09:48:24Z</time>
      </trkpt>
      <trkpt lat="44.91309" lon="5.40199">
        <ele>1056.8</ele>
        <time>2021-09-01T09:48:26Z</time>
      </trkpt>
      <trkpt lat="44.91306" lon="5.40195">
        <ele>1056.8</ele>
        <time>2021-09-01T09:48:27Z</time>
      </trkpt>
      <trkpt lat="44.91301" lon="5.40187">
        <ele>1056.7</ele>
        <time>2021-09-01T09:48:28Z</time>
      </trkpt>
      <trkpt lat="44.91298" lon="5.40182">
        <ele>1056.7</ele>
        <time>2021-09-01T09:48:30Z</time>
      </trkpt>
      <trkpt lat="44.91294" lon="5.40174">
        <ele>1056.7</ele>
        <time>2021-09-01T09:48:31Z</time>
      </trkpt>
      <trkpt lat="44.9129" lon="5.40165">
        <ele>1056.7</ele>
        <time>2021-09-01T09:48:33Z</time>
      </trkpt>
      <trkpt lat="44.91285" lon="5.4016">
        <ele>1056.8</ele>
        <time>2021-09-01T09:48:35Z</time>
      </trkpt>
      <trkpt lat="44.91282" lon="5.40155">
        <ele>1056.9</ele>
        <time>2021-09-01T09:48:36Z</time>
      </trkpt>
      <trkpt lat="44.9128" lon="5.40151">
        <ele>1056.9</ele>
        <time>2021-09-01T09:48:37Z</time>
      </trkpt>
      <trkpt lat="44.91278" lon="5.40145">
        <ele>1057</ele>
        <time>2021-09-01T09:48:39Z</time>
      </trkpt>
      <trkpt lat="44.91274" lon="5.40137">
        <ele>1057</ele>
        <time>2021-09-01T09:48:40Z</time>
      </trkpt>
      <trkpt lat="44.91272" lon="5.40132">
        <ele>1057.1</ele>
        <time>2021-09-01T09:48:41Z</time>
      </trkpt>
      <trkpt lat="44.91271" lon="5.40128">
        <ele>1057.1</ele>
        <time>2021-09-01T09:48:43Z</time>
      </trkpt>
      <trkpt lat="44.91269" lon="5.40122">
        <ele>1057</ele>
        <time>2021-09-01T09:48:44Z</time>
      </trkpt>
      <trkpt lat="44.91268" lon="5.40117">
        <ele>1057</ele>
        <time>2021-09-01T09:48:46Z</time>
      </trkpt>
      <trkpt lat="44.91266" lon="5.40112">
        <ele>1057</ele>
        <time>2021-09-01T09:48:47Z</time>
      </trkpt>
      <trkpt lat="44.91266" lon="5.4011">
        <ele>1057</ele>
        <time>2021-09-01T09:48:48Z</time>
      </trkpt>
      <trkpt lat="44.91264" lon="5.40104">
        <ele>1056.9</ele>
        <time>2021-09-01T09:48:49Z</time>
      </trkpt>
      <trkpt lat="44.91263" lon="5.401">
        <ele>1057</ele>
        <time>2021-09-01T09:48:50Z</time>
      </trkpt>
      <trkpt lat="44.91261" lon="5.40095">
        <ele>1057</ele>
        <time>2021-09-01T09:48:52Z</time>
      </trkpt>
      <trkpt lat="44.91259" lon="5.40089">
        <ele>1057</ele>
        <time>2021-09-01T09:48:53Z</time>
      </trkpt>
      <trkpt lat="44.91257" lon="5.40085">
        <ele>1057</ele>
        <time>2021-09-01T09:48:54Z</time>
      </trkpt>
      <trkpt lat="44.91256" lon="5.40082">
        <ele>1057.1</ele>
        <time>2021-09-01T09:48:55Z</time>
      </trkpt>
      <trkpt lat="44.91254" lon="5.40079">
        <ele>1057.1</ele>
        <time>2021-09-01T09:48:56Z</time>
      </trkpt>
      <trkpt lat="44.91251" lon="5.40077">
        <ele>1057.2</ele>
        <time>2021-09-01T09:48:58Z</time>
      </trkpt>
      <trkpt lat="44.91248" lon="5.40075">
        <ele>1057.3</ele>
        <time>2021-09-01T09:48:59Z</time>
      </trkpt>
      <trkpt lat="44.91245" lon="5.40072">
        <ele>1057.3</ele>
        <time>2021-09-01T09:49:00Z</time>
      </trkpt>
      <trkpt lat="44.91241" lon="5.40069">
        <ele>1057.5</ele>
        <time>2021-09-01T09:49:02Z</time>
      </trkpt>
      <trkpt lat="44.91239" lon="5.40068">
        <ele>1057.5</ele>
        <time>2021-09-01T09:49:04Z</time>
      </trkpt>
      <trkpt lat="44.91238" lon="5.40066">
        <ele>1057.6</ele>
        <time>2021-09-01T09:49:05Z</time>
      </trkpt>
      <trkpt lat="44.91236" lon="5.40065">
        <ele>1057.6</ele>
        <time>2021-09-01T09:49:06Z</time>
      </trkpt>
      <trkpt lat="44.91235" lon="5.40063">
        <ele>1057.6</ele>
        <time>2021-09-01T09:49:08Z</time>
      </trkpt>
      <trkpt lat="44.91234" lon="5.40062">
        <ele>1057.7</ele>
        <time>2021-09-01T09:49:09Z</time>
      </trkpt>
      <trkpt lat="44.91231" lon="5.40058">
        <ele>1057.7</ele>
        <time>2021-09-01T09:49:11Z</time>
      </trkpt>
      <trkpt lat="44.91228" lon="5.40052">
        <ele>1057.7</ele>
        <time>2021-09-01T09:49:12Z</time>
      </trkpt>
      <trkpt lat="44.91226" lon="5.4005">
        <ele>1057.7</ele>
        <time>2021-09-01T09:49:13Z</time>
      </trkpt>
      <trkpt lat="44.91221" lon="5.40046">
        <ele>1057.6</ele>
        <time>2021-09-01T09:49:15Z</time>
      </trkpt>
      <trkpt lat="44.91215" lon="5.40043">
        <ele>1057.4</ele>
        <time>2021-09-01T09:49:16Z</time>
      </trkpt>
      <trkpt lat="44.91211" lon="5.4004">
        <ele>1057.2</ele>
        <time>2021-09-01T09:49:17Z</time>
      </trkpt>
      <trkpt lat="44.91206" lon="5.40037">
        <ele>1056.9</ele>
        <time>2021-09-01T09:49:18Z</time>
      </trkpt>
      <trkpt lat="44.91201" lon="5.40034">
        <ele>1056.6</ele>
        <time>2021-09-01T09:49:20Z</time>
      </trkpt>
      <trkpt lat="44.91193" lon="5.40027">
        <ele>1055.9</ele>
        <time>2021-09-01T09:49:22Z</time>
      </trkpt>
      <trkpt lat="44.91189" lon="5.40023">
        <ele>1055.4</ele>
        <time>2021-09-01T09:49:23Z</time>
      </trkpt>
      <trkpt lat="44.91182" lon="5.40019">
        <ele>1054.7</ele>
        <time>2021-09-01T09:49:24Z</time>
      </trkpt>
      <trkpt lat="44.91175" lon="5.40017">
        <ele>1053.9</ele>
        <time>2021-09-01T09:49:25Z</time>
      </trkpt>
      <trkpt lat="44.9116" lon="5.40013">
        <ele>1052.7</ele>
        <time>2021-09-01T09:49:27Z</time>
      </trkpt>
      <trkpt lat="44.91143" lon="5.40011">
        <ele>1051.9</ele>
        <time>2021-09-01T09:49:29Z</time>
      </trkpt>
      <trkpt lat="44.91135" lon="5.4001">
        <ele>1051.8</ele>
        <time>2021-09-01T09:49:30Z</time>
      </trkpt>
      <trkpt lat="44.91122" lon="5.40011">
        <ele>1051.7</ele>
        <time>2021-09-01T09:49:32Z</time>
      </trkpt>
      <trkpt lat="44.91117" lon="5.40012">
        <ele>1051.7</ele>
        <time>2021-09-01T09:49:33Z</time>
      </trkpt>
      <trkpt lat="44.91107" lon="5.40012">
        <ele>1051.7</ele>
        <time>2021-09-01T09:49:35Z</time>
      </trkpt>
      <trkpt lat="44.91103" lon="5.40013">
        <ele>1051.7</ele>
        <time>2021-09-01T09:49:36Z</time>
      </trkpt>
      <trkpt lat="44.911" lon="5.40015">
        <ele>1051.7</ele>
        <time>2021-09-01T09:49:37Z</time>
      </trkpt>
      <trkpt lat="44.91095" lon="5.40016">
        <ele>1051.8</ele>
        <time>2021-09-01T09:49:39Z</time>
      </trkpt>
      <trkpt lat="44.91092" lon="5.40017">
        <ele>1051.8</ele>
        <time>2021-09-01T09:49:40Z</time>
      </trkpt>
      <trkpt lat="44.91088" lon="5.40018">
        <ele>1051.8</ele>
        <time>2021-09-01T09:49:41Z</time>
      </trkpt>
      <trkpt lat="44.91083" lon="5.40019">
        <ele>1051.8</ele>
        <time>2021-09-01T09:49:42Z</time>
      </trkpt>
      <trkpt lat="44.91077" lon="5.40023">
        <ele>1051.6</ele>
        <time>2021-09-01T09:49:44Z</time>
      </trkpt>
      <trkpt lat="44.91072" lon="5.40026">
        <ele>1051.5</ele>
        <time>2021-09-01T09:49:45Z</time>
      </trkpt>
      <trkpt lat="44.91063" lon="5.40035">
        <ele>1051.1</ele>
        <time>2021-09-01T09:49:47Z</time>
      </trkpt>
      <trkpt lat="44.91059" lon="5.4004">
        <ele>1050.9</ele>
        <time>2021-09-01T09:49:48Z</time>
      </trkpt>
      <trkpt lat="44.9105" lon="5.40048">
        <ele>1050.8</ele>
        <time>2021-09-01T09:49:50Z</time>
      </trkpt>
      <trkpt lat="44.91045" lon="5.4005">
        <ele>1050.8</ele>
        <time>2021-09-01T09:49:51Z</time>
      </trkpt>
      <trkpt lat="44.91042" lon="5.40049">
        <ele>1050.8</ele>
        <time>2021-09-01T09:49:52Z</time>
      </trkpt>
      <trkpt lat="44.91038" lon="5.40052">
        <ele>1050.8</ele>
        <time>2021-09-01T09:49:53Z</time>
      </trkpt>
      <trkpt lat="44.91034" lon="5.40057">
        <ele>1050.9</ele>
        <time>2021-09-01T09:49:54Z</time>
      </trkpt>
      <trkpt lat="44.91029" lon="5.40061">
        <ele>1050.9</ele>
        <time>2021-09-01T09:49:56Z</time>
      </trkpt>
      <trkpt lat="44.91025" lon="5.40064">
        <ele>1050.9</ele>
        <time>2021-09-01T09:49:57Z</time>
      </trkpt>
      <trkpt lat="44.91021" lon="5.40066">
        <ele>1050.8</ele>
        <time>2021-09-01T09:49:58Z</time>
      </trkpt>
      <trkpt lat="44.91017" lon="5.40068">
        <ele>1050.8</ele>
        <time>2021-09-01T09:49:59Z</time>
      </trkpt>
      <trkpt lat="44.91011" lon="5.40071">
        <ele>1050.7</ele>
        <time>2021-09-01T09:50:00Z</time>
      </trkpt>
      <trkpt lat="44.91006" lon="5.40074">
        <ele>1050.7</ele>
        <time>2021-09-01T09:50:01Z</time>
      </trkpt>
      <trkpt lat="44.91003" lon="5.40072">
        <ele>1050.6</ele>
        <time>2021-09-01T09:50:02Z</time>
      </trkpt>
      <trkpt lat="44.90998" lon="5.40076">
        <ele>1050.6</ele>
        <time>2021-09-01T09:50:04Z</time>
      </trkpt>
      <trkpt lat="44.90994" lon="5.40079">
        <ele>1050.5</ele>
        <time>2021-09-01T09:50:05Z</time>
      </trkpt>
      <trkpt lat="44.9099" lon="5.40083">
        <ele>1050.5</ele>
        <time>2021-09-01T09:50:06Z</time>
      </trkpt>
      <trkpt lat="44.90985" lon="5.40088">
        <ele>1050.5</ele>
        <time>2021-09-01T09:50:07Z</time>
      </trkpt>
      <trkpt lat="44.90979" lon="5.40091">
        <ele>1050.5</ele>
        <time>2021-09-01T09:50:09Z</time>
      </trkpt>
      <trkpt lat="44.90974" lon="5.40092">
        <ele>1050.6</ele>
        <time>2021-09-01T09:50:10Z</time>
      </trkpt>
      <trkpt lat="44.9097" lon="5.40093">
        <ele>1050.6</ele>
        <time>2021-09-01T09:50:11Z</time>
      </trkpt>
      <trkpt lat="44.90965" lon="5.40094">
        <ele>1050.6</ele>
        <time>2021-09-01T09:50:13Z</time>
      </trkpt>
      <trkpt lat="44.90962" lon="5.40096">
        <ele>1050.6</ele>
        <time>2021-09-01T09:50:14Z</time>
      </trkpt>
      <trkpt lat="44.90957" lon="5.40097">
        <ele>1050.6</ele>
        <time>2021-09-01T09:50:15Z</time>
      </trkpt>
      <trkpt lat="44.90952" lon="5.40099">
        <ele>1050.6</ele>
        <time>2021-09-01T09:50:16Z</time>
      </trkpt>
      <trkpt lat="44.90949" lon="5.401">
        <ele>1050.7</ele>
        <time>2021-09-01T09:50:17Z</time>
      </trkpt>
      <trkpt lat="44.90944" lon="5.40101">
        <ele>1050.7</ele>
        <time>2021-09-01T09:50:19Z</time>
      </trkpt>
      <trkpt lat="44.9094" lon="5.40101">
        <ele>1050.8</ele>
        <time>2021-09-01T09:50:20Z</time>
      </trkpt>
      <trkpt lat="44.90934" lon="5.40101">
        <ele>1050.9</ele>
        <time>2021-09-01T09:50:22Z</time>
      </trkpt>
      <trkpt lat="44.9093" lon="5.401">
        <ele>1051</ele>
        <time>2021-09-01T09:50:24Z</time>
      </trkpt>
      <trkpt lat="44.90925" lon="5.40098">
        <ele>1051.1</ele>
        <time>2021-09-01T09:50:25Z</time>
      </trkpt>
      <trkpt lat="44.90922" lon="5.40098">
        <ele>1051.2</ele>
        <time>2021-09-01T09:50:26Z</time>
      </trkpt>
      <trkpt lat="44.9092" lon="5.40097">
        <ele>1051.3</ele>
        <time>2021-09-01T09:50:27Z</time>
      </trkpt>
      <trkpt lat="44.90916" lon="5.40095">
        <ele>1051.4</ele>
        <time>2021-09-01T09:50:29Z</time>
      </trkpt>
      <trkpt lat="44.90912" lon="5.40094">
        <ele>1051.5</ele>
        <time>2021-09-01T09:50:30Z</time>
      </trkpt>
      <trkpt lat="44.90909" lon="5.40093">
        <ele>1051.7</ele>
        <time>2021-09-01T09:50:32Z</time>
      </trkpt>
      <trkpt lat="44.90903" lon="5.4009">
        <ele>1052</ele>
        <time>2021-09-01T09:50:34Z</time>
      </trkpt>
      <trkpt lat="44.90899" lon="5.40088">
        <ele>1052.3</ele>
        <time>2021-09-01T09:50:35Z</time>
      </trkpt>
      <trkpt lat="44.90896" lon="5.40087">
        <ele>1052.5</ele>
        <time>2021-09-01T09:50:36Z</time>
      </trkpt>
      <trkpt lat="44.90893" lon="5.40083">
        <ele>1052.8</ele>
        <time>2021-09-01T09:50:38Z</time>
      </trkpt>
      <trkpt lat="44.90891" lon="5.4008">
        <ele>1053</ele>
        <time>2021-09-01T09:50:39Z</time>
      </trkpt>
      <trkpt lat="44.90888" lon="5.40076">
        <ele>1053.3</ele>
        <time>2021-09-01T09:50:41Z</time>
      </trkpt>
      <trkpt lat="44.90886" lon="5.40073">
        <ele>1053.6</ele>
        <time>2021-09-01T09:50:43Z</time>
      </trkpt>
      <trkpt lat="44.90886" lon="5.40072">
        <ele>1053.7</ele>
        <time>2021-09-01T09:50:44Z</time>
      </trkpt>
      <trkpt lat="44.90886" lon="5.40072">
        <ele>1053.7</ele>
        <time>2021-09-01T09:50:46Z</time>
      </trkpt>
      <trkpt lat="44.90886" lon="5.40072">
        <ele>1053.8</ele>
        <time>2021-09-01T09:50:48Z</time>
      </trkpt>
      <trkpt lat="44.90886" lon="5.40072">
        <ele>1053.8</ele>
        <time>2021-09-01T09:50:50Z</time>
      </trkpt>
      <trkpt lat="44.90886" lon="5.40072">
        <ele>1053.8</ele>
        <time>2021-09-01T09:50:52Z</time>
      </trkpt>
      <trkpt lat="44.90886" lon="5.40072">
        <ele>1053.8</ele>
        <time>2021-09-01T09:50:53Z</time>
      </trkpt>
      <trkpt lat="44.90885" lon="5.40068">
        <ele>1054.1</ele>
        <time>2021-09-01T09:51:04Z</time>
      </trkpt>
      <trkpt lat="44.90884" lon="5.40066">
        <ele>1054.3</ele>
        <time>2021-09-01T09:51:06Z</time>
      </trkpt>
      <trkpt lat="44.90883" lon="5.40065">
        <ele>1054.4</ele>
        <time>2021-09-01T09:51:08Z</time>
      </trkpt>
      <trkpt lat="44.90881" lon="5.40061">
        <ele>1054.7</ele>
        <time>2021-09-01T09:51:09Z</time>
      </trkpt>
      <trkpt lat="44.90879" lon="5.40058">
        <ele>1055</ele>
        <time>2021-09-01T09:51:11Z</time>
      </trkpt>
      <trkpt lat="44.90878" lon="5.40057">
        <ele>1055.2</ele>
        <time>2021-09-01T09:51:12Z</time>
      </trkpt>
      <trkpt lat="44.90876" lon="5.40054">
        <ele>1055.4</ele>
        <time>2021-09-01T09:51:13Z</time>
      </trkpt>
      <trkpt lat="44.90875" lon="5.40053">
        <ele>1055.5</ele>
        <time>2021-09-01T09:51:14Z</time>
      </trkpt>
      <trkpt lat="44.90874" lon="5.40049">
        <ele>1055.7</ele>
        <time>2021-09-01T09:51:16Z</time>
      </trkpt>
      <trkpt lat="44.90874" lon="5.40048">
        <ele>1055.8</ele>
        <time>2021-09-01T09:51:17Z</time>
      </trkpt>
      <trkpt lat="44.90873" lon="5.40046">
        <ele>1055.8</ele>
        <time>2021-09-01T09:51:18Z</time>
      </trkpt>
      <trkpt lat="44.90872" lon="5.40045">
        <ele>1055.9</ele>
        <time>2021-09-01T09:51:19Z</time>
      </trkpt>
      <trkpt lat="44.90871" lon="5.40046">
        <ele>1055.9</ele>
        <time>2021-09-01T09:51:20Z</time>
      </trkpt>
      <trkpt lat="44.90871" lon="5.40045">
        <ele>1056</ele>
        <time>2021-09-01T09:51:22Z</time>
      </trkpt>
      <trkpt lat="44.90871" lon="5.40045">
        <ele>1056</ele>
        <time>2021-09-01T09:51:23Z</time>
      </trkpt>
      <trkpt lat="44.90871" lon="5.40045">
        <ele>1056</ele>
        <time>2021-09-01T09:51:24Z</time>
      </trkpt>
      <trkpt lat="44.90871" lon="5.40045">
        <ele>1056</ele>
        <time>2021-09-01T09:51:25Z</time>
      </trkpt>
      <trkpt lat="44.90871" lon="5.40045">
        <ele>1056</ele>
        <time>2021-09-01T09:51:26Z</time>
      </trkpt>
      <trkpt lat="44.90871" lon="5.40045">
        <ele>1056</ele>
        <time>2021-09-01T09:51:27Z</time>
      </trkpt>
      <trkpt lat="44.9087" lon="5.40045">
        <ele>1056</ele>
        <time>2021-09-01T09:51:29Z</time>
      </trkpt>
      <trkpt lat="44.90859" lon="5.40032">
        <ele>1056.6</ele>
        <time>2021-09-01T09:51:41Z</time>
      </trkpt>
      <trkpt lat="44.90852" lon="5.40024">
        <ele>1056.7</ele>
        <time>2021-09-01T09:51:43Z</time>
      </trkpt>
      <trkpt lat="44.90845" lon="5.40017">
        <ele>1056.7</ele>
        <time>2021-09-01T09:51:45Z</time>
      </trkpt>
      <trkpt lat="44.9084" lon="5.4001">
        <ele>1056.5</ele>
        <time>2021-09-01T09:51:47Z</time>
      </trkpt>
      <trkpt lat="44.90839" lon="5.40006">
        <ele>1056.5</ele>
        <time>2021-09-01T09:51:48Z</time>
      </trkpt>
      <trkpt lat="44.90835" lon="5.39999">
        <ele>1056.3</ele>
        <time>2021-09-01T09:51:50Z</time>
      </trkpt>
      <trkpt lat="44.90833" lon="5.39996">
        <ele>1056.2</ele>
        <time>2021-09-01T09:51:51Z</time>
      </trkpt>
      <trkpt lat="44.90828" lon="5.39991">
        <ele>1056.1</ele>
        <time>2021-09-01T09:51:53Z</time>
      </trkpt>
      <trkpt lat="44.90825" lon="5.39988">
        <ele>1056</ele>
        <time>2021-09-01T09:51:54Z</time>
      </trkpt>
      <trkpt lat="44.90821" lon="5.39981">
        <ele>1055.9</ele>
        <time>2021-09-01T09:51:55Z</time>
      </trkpt>
      <trkpt lat="44.90816" lon="5.39974">
        <ele>1055.7</ele>
        <time>2021-09-01T09:51:57Z</time>
      </trkpt>
      <trkpt lat="44.90812" lon="5.39969">
        <ele>1055.7</ele>
        <time>2021-09-01T09:51:59Z</time>
      </trkpt>
      <trkpt lat="44.90809" lon="5.39965">
        <ele>1055.6</ele>
        <time>2021-09-01T09:52:00Z</time>
      </trkpt>
      <trkpt lat="44.90804" lon="5.39962">
        <ele>1055.5</ele>
        <time>2021-09-01T09:52:02Z</time>
      </trkpt>
      <trkpt lat="44.90799" lon="5.3996">
        <ele>1055.4</ele>
        <time>2021-09-01T09:52:04Z</time>
      </trkpt>
      <trkpt lat="44.90795" lon="5.39959">
        <ele>1055.4</ele>
        <time>2021-09-01T09:52:05Z</time>
      </trkpt>
      <trkpt lat="44.90788" lon="5.39954">
        <ele>1055.3</ele>
        <time>2021-09-01T09:52:06Z</time>
      </trkpt>
      <trkpt lat="44.90782" lon="5.39948">
        <ele>1055.4</ele>
        <time>2021-09-01T09:52:08Z</time>
      </trkpt>
      <trkpt lat="44.90777" lon="5.39944">
        <ele>1055.4</ele>
        <time>2021-09-01T09:52:10Z</time>
      </trkpt>
      <trkpt lat="44.90772" lon="5.3994">
        <ele>1055.5</ele>
        <time>2021-09-01T09:52:11Z</time>
      </trkpt>
      <trkpt lat="44.90766" lon="5.39936">
        <ele>1055.6</ele>
        <time>2021-09-01T09:52:13Z</time>
      </trkpt>
      <trkpt lat="44.90763" lon="5.39933">
        <ele>1055.7</ele>
        <time>2021-09-01T09:52:14Z</time>
      </trkpt>
      <trkpt lat="44.90758" lon="5.3993">
        <ele>1055.9</ele>
        <time>2021-09-01T09:52:15Z</time>
      </trkpt>
      <trkpt lat="44.90755" lon="5.39928">
        <ele>1056.1</ele>
        <time>2021-09-01T09:52:17Z</time>
      </trkpt>
      <trkpt lat="44.90752" lon="5.39924">
        <ele>1056.2</ele>
        <time>2021-09-01T09:52:19Z</time>
      </trkpt>
      <trkpt lat="44.9075" lon="5.3992">
        <ele>1056.4</ele>
        <time>2021-09-01T09:52:20Z</time>
      </trkpt>
      <trkpt lat="44.90748" lon="5.39917">
        <ele>1056.5</ele>
        <time>2021-09-01T09:52:22Z</time>
      </trkpt>
      <trkpt lat="44.90745" lon="5.39913">
        <ele>1056.6</ele>
        <time>2021-09-01T09:52:23Z</time>
      </trkpt>
      <trkpt lat="44.90742" lon="5.39909">
        <ele>1056.7</ele>
        <time>2021-09-01T09:52:24Z</time>
      </trkpt>
      <trkpt lat="44.90741" lon="5.39906">
        <ele>1056.8</ele>
        <time>2021-09-01T09:52:26Z</time>
      </trkpt>
      <trkpt lat="44.90739" lon="5.39902">
        <ele>1056.8</ele>
        <time>2021-09-01T09:52:27Z</time>
      </trkpt>
      <trkpt lat="44.90739" lon="5.39897">
        <ele>1056.9</ele>
        <time>2021-09-01T09:52:28Z</time>
      </trkpt>
      <trkpt lat="44.90739" lon="5.39894">
        <ele>1056.9</ele>
        <time>2021-09-01T09:52:29Z</time>
      </trkpt>
      <trkpt lat="44.90738" lon="5.39889">
        <ele>1056.9</ele>
        <time>2021-09-01T09:52:31Z</time>
      </trkpt>
      <trkpt lat="44.90737" lon="5.39886">
        <ele>1056.9</ele>
        <time>2021-09-01T09:52:32Z</time>
      </trkpt>
      <trkpt lat="44.90735" lon="5.3988">
        <ele>1056.9</ele>
        <time>2021-09-01T09:52:34Z</time>
      </trkpt>
      <trkpt lat="44.90733" lon="5.39875">
        <ele>1056.9</ele>
        <time>2021-09-01T09:52:36Z</time>
      </trkpt>
      <trkpt lat="44.90731" lon="5.39872">
        <ele>1056.9</ele>
        <time>2021-09-01T09:52:37Z</time>
      </trkpt>
      <trkpt lat="44.90729" lon="5.39868">
        <ele>1056.9</ele>
        <time>2021-09-01T09:52:38Z</time>
      </trkpt>
      <trkpt lat="44.90726" lon="5.39862">
        <ele>1056.8</ele>
        <time>2021-09-01T09:52:39Z</time>
      </trkpt>
      <trkpt lat="44.90723" lon="5.39855">
        <ele>1056.6</ele>
        <time>2021-09-01T09:52:40Z</time>
      </trkpt>
      <trkpt lat="44.9072" lon="5.39848">
        <ele>1056.5</ele>
        <time>2021-09-01T09:52:42Z</time>
      </trkpt>
      <trkpt lat="44.90716" lon="5.3984">
        <ele>1056.3</ele>
        <time>2021-09-01T09:52:43Z</time>
      </trkpt>
      <trkpt lat="44.90714" lon="5.39833">
        <ele>1056.2</ele>
        <time>2021-09-01T09:52:45Z</time>
      </trkpt>
      <trkpt lat="44.9071" lon="5.39821">
        <ele>1056</ele>
        <time>2021-09-01T09:52:47Z</time>
      </trkpt>
      <trkpt lat="44.90712" lon="5.39815">
        <ele>1055.9</ele>
        <time>2021-09-01T09:52:48Z</time>
      </trkpt>
      <trkpt lat="44.9071" lon="5.39808">
        <ele>1055.8</ele>
        <time>2021-09-01T09:52:49Z</time>
      </trkpt>
      <trkpt lat="44.90706" lon="5.39799">
        <ele>1055.7</ele>
        <time>2021-09-01T09:52:51Z</time>
      </trkpt>
      <trkpt lat="44.90705" lon="5.39795">
        <ele>1055.7</ele>
        <time>2021-09-01T09:52:52Z</time>
      </trkpt>
      <trkpt lat="44.90703" lon="5.39789">
        <ele>1055.6</ele>
        <time>2021-09-01T09:52:54Z</time>
      </trkpt>
      <trkpt lat="44.907" lon="5.39783">
        <ele>1055.6</ele>
        <time>2021-09-01T09:52:55Z</time>
      </trkpt>
      <trkpt lat="44.90696" lon="5.39776">
        <ele>1055.5</ele>
        <time>2021-09-01T09:52:57Z</time>
      </trkpt>
      <trkpt lat="44.90693" lon="5.39771">
        <ele>1055.5</ele>
        <time>2021-09-01T09:52:58Z</time>
      </trkpt>
      <trkpt lat="44.90692" lon="5.39766">
        <ele>1055.5</ele>
        <time>2021-09-01T09:52:59Z</time>
      </trkpt>
      <trkpt lat="44.90691" lon="5.39762">
        <ele>1055.5</ele>
        <time>2021-09-01T09:53:00Z</time>
      </trkpt>
      <trkpt lat="44.90689" lon="5.39755">
        <ele>1055.5</ele>
        <time>2021-09-01T09:53:01Z</time>
      </trkpt>
      <trkpt lat="44.90687" lon="5.39748">
        <ele>1055.5</ele>
        <time>2021-09-01T09:53:03Z</time>
      </trkpt>
      <trkpt lat="44.90685" lon="5.39741">
        <ele>1055.5</ele>
        <time>2021-09-01T09:53:04Z</time>
      </trkpt>
      <trkpt lat="44.90684" lon="5.39734">
        <ele>1055.6</ele>
        <time>2021-09-01T09:53:05Z</time>
      </trkpt>
      <trkpt lat="44.90683" lon="5.39728">
        <ele>1055.6</ele>
        <time>2021-09-01T09:53:07Z</time>
      </trkpt>
      <trkpt lat="44.90682" lon="5.39724">
        <ele>1055.6</ele>
        <time>2021-09-01T09:53:08Z</time>
      </trkpt>
      <trkpt lat="44.9068" lon="5.39715">
        <ele>1055.7</ele>
        <time>2021-09-01T09:53:09Z</time>
      </trkpt>
      <trkpt lat="44.9068" lon="5.3971">
        <ele>1055.7</ele>
        <time>2021-09-01T09:53:10Z</time>
      </trkpt>
      <trkpt lat="44.90679" lon="5.39699">
        <ele>1055.6</ele>
        <time>2021-09-01T09:53:13Z</time>
      </trkpt>
      <trkpt lat="44.90679" lon="5.39694">
        <ele>1055.6</ele>
        <time>2021-09-01T09:53:14Z</time>
      </trkpt>
      <trkpt lat="44.90679" lon="5.39683">
        <ele>1055.5</ele>
        <time>2021-09-01T09:53:16Z</time>
      </trkpt>
      <trkpt lat="44.90676" lon="5.39672">
        <ele>1055.3</ele>
        <time>2021-09-01T09:53:17Z</time>
      </trkpt>
      <trkpt lat="44.9067" lon="5.39661">
        <ele>1055.3</ele>
        <time>2021-09-01T09:53:19Z</time>
      </trkpt>
      <trkpt lat="44.90668" lon="5.39654">
        <ele>1055.2</ele>
        <time>2021-09-01T09:53:21Z</time>
      </trkpt>
      <trkpt lat="44.90665" lon="5.39649">
        <ele>1055.2</ele>
        <time>2021-09-01T09:53:22Z</time>
      </trkpt>
      <trkpt lat="44.90662" lon="5.39642">
        <ele>1055.1</ele>
        <time>2021-09-01T09:53:23Z</time>
      </trkpt>
      <trkpt lat="44.90659" lon="5.39634">
        <ele>1055.1</ele>
        <time>2021-09-01T09:53:24Z</time>
      </trkpt>
      <trkpt lat="44.90657" lon="5.39628">
        <ele>1055.2</ele>
        <time>2021-09-01T09:53:25Z</time>
      </trkpt>
      <trkpt lat="44.90655" lon="5.39623">
        <ele>1055.2</ele>
        <time>2021-09-01T09:53:27Z</time>
      </trkpt>
      <trkpt lat="44.90653" lon="5.39617">
        <ele>1055.3</ele>
        <time>2021-09-01T09:53:28Z</time>
      </trkpt>
      <trkpt lat="44.90651" lon="5.39609">
        <ele>1055.4</ele>
        <time>2021-09-01T09:53:29Z</time>
      </trkpt>
      <trkpt lat="44.9065" lon="5.39605">
        <ele>1055.5</ele>
        <time>2021-09-01T09:53:31Z</time>
      </trkpt>
      <trkpt lat="44.90648" lon="5.39598">
        <ele>1055.7</ele>
        <time>2021-09-01T09:53:32Z</time>
      </trkpt>
      <trkpt lat="44.90646" lon="5.39593">
        <ele>1055.8</ele>
        <time>2021-09-01T09:53:34Z</time>
      </trkpt>
      <trkpt lat="44.90646" lon="5.3959">
        <ele>1055.9</ele>
        <time>2021-09-01T09:53:35Z</time>
      </trkpt>
      <trkpt lat="44.90645" lon="5.39588">
        <ele>1056</ele>
        <time>2021-09-01T09:53:36Z</time>
      </trkpt>
      <trkpt lat="44.90645" lon="5.39584">
        <ele>1056.1</ele>
        <time>2021-09-01T09:53:37Z</time>
      </trkpt>
      <trkpt lat="44.90645" lon="5.39582">
        <ele>1056.1</ele>
        <time>2021-09-01T09:53:38Z</time>
      </trkpt>
      <trkpt lat="44.90645" lon="5.39579">
        <ele>1056.2</ele>
        <time>2021-09-01T09:53:39Z</time>
      </trkpt>
      <trkpt lat="44.90643" lon="5.39576">
        <ele>1056.3</ele>
        <time>2021-09-01T09:53:41Z</time>
      </trkpt>
      <trkpt lat="44.90643" lon="5.39572">
        <ele>1056.4</ele>
        <time>2021-09-01T09:53:42Z</time>
      </trkpt>
      <trkpt lat="44.90642" lon="5.39567">
        <ele>1056.5</ele>
        <time>2021-09-01T09:53:44Z</time>
      </trkpt>
      <trkpt lat="44.9064" lon="5.39564">
        <ele>1056.6</ele>
        <time>2021-09-01T09:53:45Z</time>
      </trkpt>
      <trkpt lat="44.90638" lon="5.39559">
        <ele>1056.7</ele>
        <time>2021-09-01T09:53:47Z</time>
      </trkpt>
      <trkpt lat="44.90636" lon="5.39554">
        <ele>1056.8</ele>
        <time>2021-09-01T09:53:48Z</time>
      </trkpt>
      <trkpt lat="44.90635" lon="5.39552">
        <ele>1056.8</ele>
        <time>2021-09-01T09:53:49Z</time>
      </trkpt>
      <trkpt lat="44.90634" lon="5.39548">
        <ele>1056.9</ele>
        <time>2021-09-01T09:53:51Z</time>
      </trkpt>
      <trkpt lat="44.90634" lon="5.39546">
        <ele>1056.9</ele>
        <time>2021-09-01T09:53:52Z</time>
      </trkpt>
      <trkpt lat="44.90634" lon="5.39544">
        <ele>1057</ele>
        <time>2021-09-01T09:53:53Z</time>
      </trkpt>
      <trkpt lat="44.90633" lon="5.39539">
        <ele>1057.1</ele>
        <time>2021-09-01T09:53:54Z</time>
      </trkpt>
      <trkpt lat="44.90633" lon="5.39537">
        <ele>1057.1</ele>
        <time>2021-09-01T09:53:55Z</time>
      </trkpt>
      <trkpt lat="44.90632" lon="5.39534">
        <ele>1057.2</ele>
        <time>2021-09-01T09:53:56Z</time>
      </trkpt>
      <trkpt lat="44.9063" lon="5.3953">
        <ele>1057.3</ele>
        <time>2021-09-01T09:53:58Z</time>
      </trkpt>
      <trkpt lat="44.90629" lon="5.39526">
        <ele>1057.4</ele>
        <time>2021-09-01T09:53:59Z</time>
      </trkpt>
      <trkpt lat="44.90629" lon="5.39525">
        <ele>1057.4</ele>
        <time>2021-09-01T09:54:00Z</time>
      </trkpt>
      <trkpt lat="44.90628" lon="5.39521">
        <ele>1057.5</ele>
        <time>2021-09-01T09:54:01Z</time>
      </trkpt>
      <trkpt lat="44.90628" lon="5.39517">
        <ele>1057.6</ele>
        <time>2021-09-01T09:54:03Z</time>
      </trkpt>
      <trkpt lat="44.90628" lon="5.39514">
        <ele>1057.6</ele>
        <time>2021-09-01T09:54:04Z</time>
      </trkpt>
      <trkpt lat="44.90629" lon="5.39512">
        <ele>1057.7</ele>
        <time>2021-09-01T09:54:05Z</time>
      </trkpt>
      <trkpt lat="44.90629" lon="5.39507">
        <ele>1057.8</ele>
        <time>2021-09-01T09:54:06Z</time>
      </trkpt>
      <trkpt lat="44.90629" lon="5.39505">
        <ele>1057.8</ele>
        <time>2021-09-01T09:54:07Z</time>
      </trkpt>
      <trkpt lat="44.9063" lon="5.395">
        <ele>1057.9</ele>
        <time>2021-09-01T09:54:09Z</time>
      </trkpt>
      <trkpt lat="44.90631" lon="5.39493">
        <ele>1058.2</ele>
        <time>2021-09-01T09:54:11Z</time>
      </trkpt>
      <trkpt lat="44.90631" lon="5.39489">
        <ele>1058.3</ele>
        <time>2021-09-01T09:54:12Z</time>
      </trkpt>
      <trkpt lat="44.90633" lon="5.39482">
        <ele>1058.4</ele>
        <time>2021-09-01T09:54:14Z</time>
      </trkpt>
      <trkpt lat="44.90634" lon="5.39474">
        <ele>1058.5</ele>
        <time>2021-09-01T09:54:15Z</time>
      </trkpt>
      <trkpt lat="44.90635" lon="5.3947">
        <ele>1058.5</ele>
        <time>2021-09-01T09:54:16Z</time>
      </trkpt>
      <trkpt lat="44.90634" lon="5.39462">
        <ele>1058.6</ele>
        <time>2021-09-01T09:54:18Z</time>
      </trkpt>
      <trkpt lat="44.90635" lon="5.39457">
        <ele>1058.6</ele>
        <time>2021-09-01T09:54:20Z</time>
      </trkpt>
      <trkpt lat="44.90635" lon="5.39451">
        <ele>1058.7</ele>
        <time>2021-09-01T09:54:21Z</time>
      </trkpt>
      <trkpt lat="44.90636" lon="5.39444">
        <ele>1058.7</ele>
        <time>2021-09-01T09:54:23Z</time>
      </trkpt>
      <trkpt lat="44.90636" lon="5.39436">
        <ele>1058.8</ele>
        <time>2021-09-01T09:54:24Z</time>
      </trkpt>
      <trkpt lat="44.90635" lon="5.3943">
        <ele>1058.7</ele>
        <time>2021-09-01T09:54:26Z</time>
      </trkpt>
      <trkpt lat="44.90635" lon="5.39421">
        <ele>1058.7</ele>
        <time>2021-09-01T09:54:28Z</time>
      </trkpt>
      <trkpt lat="44.90635" lon="5.39416">
        <ele>1058.6</ele>
        <time>2021-09-01T09:54:29Z</time>
      </trkpt>
      <trkpt lat="44.90635" lon="5.39412">
        <ele>1058.5</ele>
        <time>2021-09-01T09:54:30Z</time>
      </trkpt>
      <trkpt lat="44.90634" lon="5.39405">
        <ele>1058.4</ele>
        <time>2021-09-01T09:54:31Z</time>
      </trkpt>
      <trkpt lat="44.90632" lon="5.39389">
        <ele>1057.9</ele>
        <time>2021-09-01T09:54:33Z</time>
      </trkpt>
      <trkpt lat="44.90631" lon="5.39374">
        <ele>1057.2</ele>
        <time>2021-09-01T09:54:35Z</time>
      </trkpt>
      <trkpt lat="44.90631" lon="5.39366">
        <ele>1056.7</ele>
        <time>2021-09-01T09:54:36Z</time>
      </trkpt>
      <trkpt lat="44.9063" lon="5.39348">
        <ele>1055.7</ele>
        <time>2021-09-01T09:54:38Z</time>
      </trkpt>
      <trkpt lat="44.90629" lon="5.39338">
        <ele>1055.1</ele>
        <time>2021-09-01T09:54:39Z</time>
      </trkpt>
      <trkpt lat="44.90627" lon="5.39319">
        <ele>1053.9</ele>
        <time>2021-09-01T09:54:41Z</time>
      </trkpt>
      <trkpt lat="44.90624" lon="5.3931">
        <ele>1053.4</ele>
        <time>2021-09-01T09:54:42Z</time>
      </trkpt>
      <trkpt lat="44.90621" lon="5.39301">
        <ele>1052.8</ele>
        <time>2021-09-01T09:54:43Z</time>
      </trkpt>
      <trkpt lat="44.90615" lon="5.39281">
        <ele>1051.8</ele>
        <time>2021-09-01T09:54:45Z</time>
      </trkpt>
      <trkpt lat="44.9061" lon="5.3926">
        <ele>1051</ele>
        <time>2021-09-01T09:54:47Z</time>
      </trkpt>
      <trkpt lat="44.90608" lon="5.39241">
        <ele>1050.6</ele>
        <time>2021-09-01T09:54:49Z</time>
      </trkpt>
      <trkpt lat="44.90608" lon="5.39232">
        <ele>1050.5</ele>
        <time>2021-09-01T09:54:50Z</time>
      </trkpt>
      <trkpt lat="44.90609" lon="5.39222">
        <ele>1050.3</ele>
        <time>2021-09-01T09:54:51Z</time>
      </trkpt>
      <trkpt lat="44.90609" lon="5.39212">
        <ele>1050.2</ele>
        <time>2021-09-01T09:54:52Z</time>
      </trkpt>
      <trkpt lat="44.9061" lon="5.39193">
        <ele>1049.9</ele>
        <time>2021-09-01T09:54:54Z</time>
      </trkpt>
      <trkpt lat="44.9061" lon="5.39185">
        <ele>1049.8</ele>
        <time>2021-09-01T09:54:55Z</time>
      </trkpt>
      <trkpt lat="44.9061" lon="5.39176">
        <ele>1049.8</ele>
        <time>2021-09-01T09:54:56Z</time>
      </trkpt>
      <trkpt lat="44.90611" lon="5.39159">
        <ele>1049.8</ele>
        <time>2021-09-01T09:54:58Z</time>
      </trkpt>
      <trkpt lat="44.90612" lon="5.39142">
        <ele>1049.7</ele>
        <time>2021-09-01T09:55:00Z</time>
      </trkpt>
      <trkpt lat="44.90613" lon="5.39126">
        <ele>1049.6</ele>
        <time>2021-09-01T09:55:02Z</time>
      </trkpt>
      <trkpt lat="44.90615" lon="5.3911">
        <ele>1049.5</ele>
        <time>2021-09-01T09:55:04Z</time>
      </trkpt>
      <trkpt lat="44.90616" lon="5.39102">
        <ele>1049.5</ele>
        <time>2021-09-01T09:55:05Z</time>
      </trkpt>
      <trkpt lat="44.90618" lon="5.39093">
        <ele>1049.4</ele>
        <time>2021-09-01T09:55:06Z</time>
      </trkpt>
      <trkpt lat="44.90619" lon="5.39085">
        <ele>1049.3</ele>
        <time>2021-09-01T09:55:07Z</time>
      </trkpt>
      <trkpt lat="44.9062" lon="5.39076">
        <ele>1049.1</ele>
        <time>2021-09-01T09:55:08Z</time>
      </trkpt>
      <trkpt lat="44.90622" lon="5.3906">
        <ele>1049</ele>
        <time>2021-09-01T09:55:10Z</time>
      </trkpt>
      <trkpt lat="44.90623" lon="5.39051">
        <ele>1048.9</ele>
        <time>2021-09-01T09:55:11Z</time>
      </trkpt>
      <trkpt lat="44.90623" lon="5.39042">
        <ele>1048.9</ele>
        <time>2021-09-01T09:55:12Z</time>
      </trkpt>
      <trkpt lat="44.90624" lon="5.39033">
        <ele>1049</ele>
        <time>2021-09-01T09:55:13Z</time>
      </trkpt>
      <trkpt lat="44.90624" lon="5.39024">
        <ele>1049.1</ele>
        <time>2021-09-01T09:55:14Z</time>
      </trkpt>
      <trkpt lat="44.90625" lon="5.39017">
        <ele>1049.1</ele>
        <time>2021-09-01T09:55:15Z</time>
      </trkpt>
      <trkpt lat="44.90626" lon="5.39002">
        <ele>1049.3</ele>
        <time>2021-09-01T09:55:17Z</time>
      </trkpt>
      <trkpt lat="44.90627" lon="5.38996">
        <ele>1049.5</ele>
        <time>2021-09-01T09:55:18Z</time>
      </trkpt>
      <trkpt lat="44.90628" lon="5.38983">
        <ele>1049.8</ele>
        <time>2021-09-01T09:55:20Z</time>
      </trkpt>
      <trkpt lat="44.9063" lon="5.38971">
        <ele>1050</ele>
        <time>2021-09-01T09:55:22Z</time>
      </trkpt>
      <trkpt lat="44.9063" lon="5.38965">
        <ele>1050.1</ele>
        <time>2021-09-01T09:55:23Z</time>
      </trkpt>
      <trkpt lat="44.90631" lon="5.38953">
        <ele>1050.2</ele>
        <time>2021-09-01T09:55:25Z</time>
      </trkpt>
      <trkpt lat="44.90632" lon="5.38944">
        <ele>1050.2</ele>
        <time>2021-09-01T09:55:26Z</time>
      </trkpt>
      <trkpt lat="44.90632" lon="5.38931">
        <ele>1050.3</ele>
        <time>2021-09-01T09:55:28Z</time>
      </trkpt>
      <trkpt lat="44.90632" lon="5.38924">
        <ele>1050.3</ele>
        <time>2021-09-01T09:55:29Z</time>
      </trkpt>
      <trkpt lat="44.90632" lon="5.38917">
        <ele>1050.3</ele>
        <time>2021-09-01T09:55:30Z</time>
      </trkpt>
      <trkpt lat="44.90632" lon="5.38911">
        <ele>1050.3</ele>
        <time>2021-09-01T09:55:31Z</time>
      </trkpt>
      <trkpt lat="44.90632" lon="5.38904">
        <ele>1050.3</ele>
        <time>2021-09-01T09:55:32Z</time>
      </trkpt>
      <trkpt lat="44.90631" lon="5.3889">
        <ele>1050.4</ele>
        <time>2021-09-01T09:55:34Z</time>
      </trkpt>
      <trkpt lat="44.90631" lon="5.38884">
        <ele>1050.4</ele>
        <time>2021-09-01T09:55:35Z</time>
      </trkpt>
      <trkpt lat="44.90629" lon="5.38871">
        <ele>1050.3</ele>
        <time>2021-09-01T09:55:37Z</time>
      </trkpt>
      <trkpt lat="44.90629" lon="5.38865">
        <ele>1050.2</ele>
        <time>2021-09-01T09:55:38Z</time>
      </trkpt>
      <trkpt lat="44.90628" lon="5.38852">
        <ele>1050.1</ele>
        <time>2021-09-01T09:55:40Z</time>
      </trkpt>
      <trkpt lat="44.9063" lon="5.38837">
        <ele>1050</ele>
        <time>2021-09-01T09:55:42Z</time>
      </trkpt>
      <trkpt lat="44.90634" lon="5.38823">
        <ele>1049.9</ele>
        <time>2021-09-01T09:55:44Z</time>
      </trkpt>
      <trkpt lat="44.90638" lon="5.38809">
        <ele>1049.9</ele>
        <time>2021-09-01T09:55:46Z</time>
      </trkpt>
      <trkpt lat="44.9064" lon="5.38803">
        <ele>1049.9</ele>
        <time>2021-09-01T09:55:47Z</time>
      </trkpt>
      <trkpt lat="44.90642" lon="5.38796">
        <ele>1050</ele>
        <time>2021-09-01T09:55:48Z</time>
      </trkpt>
      <trkpt lat="44.90644" lon="5.3879">
        <ele>1050.1</ele>
        <time>2021-09-01T09:55:49Z</time>
      </trkpt>
      <trkpt lat="44.90647" lon="5.38784">
        <ele>1050.2</ele>
        <time>2021-09-01T09:55:50Z</time>
      </trkpt>
      <trkpt lat="44.90651" lon="5.38773">
        <ele>1050.4</ele>
        <time>2021-09-01T09:55:52Z</time>
      </trkpt>
      <trkpt lat="44.90653" lon="5.38769">
        <ele>1050.5</ele>
        <time>2021-09-01T09:55:53Z</time>
      </trkpt>
      <trkpt lat="44.90656" lon="5.38759">
        <ele>1050.7</ele>
        <time>2021-09-01T09:55:55Z</time>
      </trkpt>
      <trkpt lat="44.90658" lon="5.38755">
        <ele>1050.7</ele>
        <time>2021-09-01T09:55:56Z</time>
      </trkpt>
      <trkpt lat="44.90657" lon="5.38747">
        <ele>1050.9</ele>
        <time>2021-09-01T09:55:57Z</time>
      </trkpt>
      <trkpt lat="44.90658" lon="5.38743">
        <ele>1051</ele>
        <time>2021-09-01T09:55:58Z</time>
      </trkpt>
      <trkpt lat="44.90663" lon="5.38738">
        <ele>1051.1</ele>
        <time>2021-09-01T09:56:00Z</time>
      </trkpt>
      <trkpt lat="44.90667" lon="5.38732">
        <ele>1051.2</ele>
        <time>2021-09-01T09:56:01Z</time>
      </trkpt>
      <trkpt lat="44.90669" lon="5.38728">
        <ele>1051.3</ele>
        <time>2021-09-01T09:56:02Z</time>
      </trkpt>
      <trkpt lat="44.90673" lon="5.38721">
        <ele>1051.4</ele>
        <time>2021-09-01T09:56:03Z</time>
      </trkpt>
      <trkpt lat="44.90675" lon="5.38715">
        <ele>1051.5</ele>
        <time>2021-09-01T09:56:05Z</time>
      </trkpt>
      <trkpt lat="44.90677" lon="5.38709">
        <ele>1051.6</ele>
        <time>2021-09-01T09:56:06Z</time>
      </trkpt>
      <trkpt lat="44.90679" lon="5.38704">
        <ele>1051.7</ele>
        <time>2021-09-01T09:56:07Z</time>
      </trkpt>
      <trkpt lat="44.9068" lon="5.38698">
        <ele>1051.7</ele>
        <time>2021-09-01T09:56:08Z</time>
      </trkpt>
      <trkpt lat="44.9068" lon="5.38691">
        <ele>1051.8</ele>
        <time>2021-09-01T09:56:09Z</time>
      </trkpt>
      <trkpt lat="44.90681" lon="5.38684">
        <ele>1051.8</ele>
        <time>2021-09-01T09:56:10Z</time>
      </trkpt>
      <trkpt lat="44.90682" lon="5.38678">
        <ele>1051.8</ele>
        <time>2021-09-01T09:56:11Z</time>
      </trkpt>
      <trkpt lat="44.90683" lon="5.38671">
        <ele>1051.9</ele>
        <time>2021-09-01T09:56:12Z</time>
      </trkpt>
      <trkpt lat="44.90683" lon="5.38664">
        <ele>1051.9</ele>
        <time>2021-09-01T09:56:13Z</time>
      </trkpt>
      <trkpt lat="44.90683" lon="5.38658">
        <ele>1051.9</ele>
        <time>2021-09-01T09:56:15Z</time>
      </trkpt>
      <trkpt lat="44.90682" lon="5.38653">
        <ele>1052</ele>
        <time>2021-09-01T09:56:16Z</time>
      </trkpt>
      <trkpt lat="44.90681" lon="5.38648">
        <ele>1052</ele>
        <time>2021-09-01T09:56:17Z</time>
      </trkpt>
      <trkpt lat="44.90679" lon="5.38643">
        <ele>1052</ele>
        <time>2021-09-01T09:56:18Z</time>
      </trkpt>
      <trkpt lat="44.90677" lon="5.38638">
        <ele>1052.1</ele>
        <time>2021-09-01T09:56:19Z</time>
      </trkpt>
      <trkpt lat="44.90675" lon="5.38634">
        <ele>1052.1</ele>
        <time>2021-09-01T09:56:20Z</time>
      </trkpt>
      <trkpt lat="44.90669" lon="5.38621">
        <ele>1052.3</ele>
        <time>2021-09-01T09:56:22Z</time>
      </trkpt>
      <trkpt lat="44.90666" lon="5.38616">
        <ele>1052.4</ele>
        <time>2021-09-01T09:56:23Z</time>
      </trkpt>
      <trkpt lat="44.90663" lon="5.3861">
        <ele>1052.5</ele>
        <time>2021-09-01T09:56:24Z</time>
      </trkpt>
      <trkpt lat="44.90656" lon="5.386">
        <ele>1052.7</ele>
        <time>2021-09-01T09:56:26Z</time>
      </trkpt>
      <trkpt lat="44.90653" lon="5.38596">
        <ele>1052.8</ele>
        <time>2021-09-01T09:56:27Z</time>
      </trkpt>
      <trkpt lat="44.90651" lon="5.38593">
        <ele>1053</ele>
        <time>2021-09-01T09:56:28Z</time>
      </trkpt>
      <trkpt lat="44.90648" lon="5.3859">
        <ele>1053.1</ele>
        <time>2021-09-01T09:56:29Z</time>
      </trkpt>
      <trkpt lat="44.90645" lon="5.38586">
        <ele>1053.2</ele>
        <time>2021-09-01T09:56:31Z</time>
      </trkpt>
      <trkpt lat="44.90643" lon="5.38582">
        <ele>1053.2</ele>
        <time>2021-09-01T09:56:32Z</time>
      </trkpt>
      <trkpt lat="44.90641" lon="5.38578">
        <ele>1053.3</ele>
        <time>2021-09-01T09:56:33Z</time>
      </trkpt>
      <trkpt lat="44.9064" lon="5.38576">
        <ele>1053.3</ele>
        <time>2021-09-01T09:56:34Z</time>
      </trkpt>
      <trkpt lat="44.90638" lon="5.38571">
        <ele>1053.4</ele>
        <time>2021-09-01T09:56:36Z</time>
      </trkpt>
      <trkpt lat="44.90637" lon="5.38566">
        <ele>1053.5</ele>
        <time>2021-09-01T09:56:37Z</time>
      </trkpt>
      <trkpt lat="44.90636" lon="5.38564">
        <ele>1053.5</ele>
        <time>2021-09-01T09:56:38Z</time>
      </trkpt>
      <trkpt lat="44.90635" lon="5.38558">
        <ele>1053.6</ele>
        <time>2021-09-01T09:56:39Z</time>
      </trkpt>
      <trkpt lat="44.90634" lon="5.38554">
        <ele>1053.7</ele>
        <time>2021-09-01T09:56:40Z</time>
      </trkpt>
      <trkpt lat="44.90633" lon="5.38551">
        <ele>1054</ele>
        <time>2021-09-01T09:56:41Z</time>
      </trkpt>
      <trkpt lat="44.90632" lon="5.38547">
        <ele>1054.1</ele>
        <time>2021-09-01T09:56:43Z</time>
      </trkpt>
      <trkpt lat="44.9063" lon="5.38543">
        <ele>1054.3</ele>
        <time>2021-09-01T09:56:44Z</time>
      </trkpt>
      <trkpt lat="44.90628" lon="5.38539">
        <ele>1054.4</ele>
        <time>2021-09-01T09:56:45Z</time>
      </trkpt>
      <trkpt lat="44.90627" lon="5.38535">
        <ele>1054.6</ele>
        <time>2021-09-01T09:56:46Z</time>
      </trkpt>
      <trkpt lat="44.90625" lon="5.38531">
        <ele>1054.8</ele>
        <time>2021-09-01T09:56:47Z</time>
      </trkpt>
      <trkpt lat="44.90623" lon="5.38526">
        <ele>1055</ele>
        <time>2021-09-01T09:56:48Z</time>
      </trkpt>
      <trkpt lat="44.90621" lon="5.38522">
        <ele>1055.1</ele>
        <time>2021-09-01T09:56:49Z</time>
      </trkpt>
      <trkpt lat="44.9062" lon="5.38517">
        <ele>1055.4</ele>
        <time>2021-09-01T09:56:51Z</time>
      </trkpt>
      <trkpt lat="44.90621" lon="5.38514">
        <ele>1055.5</ele>
        <time>2021-09-01T09:56:52Z</time>
      </trkpt>
      <trkpt lat="44.90622" lon="5.38511">
        <ele>1055.7</ele>
        <time>2021-09-01T09:56:54Z</time>
      </trkpt>
      <trkpt lat="44.90623" lon="5.38507">
        <ele>1055.9</ele>
        <time>2021-09-01T09:56:55Z</time>
      </trkpt>
      <trkpt lat="44.90623" lon="5.38503">
        <ele>1056.1</ele>
        <time>2021-09-01T09:56:56Z</time>
      </trkpt>
      <trkpt lat="44.90623" lon="5.38499">
        <ele>1056.4</ele>
        <time>2021-09-01T09:56:58Z</time>
      </trkpt>
      <trkpt lat="44.90623" lon="5.38497">
        <ele>1056.5</ele>
        <time>2021-09-01T09:56:59Z</time>
      </trkpt>
      <trkpt lat="44.90624" lon="5.38495">
        <ele>1056.7</ele>
        <time>2021-09-01T09:57:01Z</time>
      </trkpt>
      <trkpt lat="44.90624" lon="5.3849">
        <ele>1057</ele>
        <time>2021-09-01T09:57:03Z</time>
      </trkpt>
      <trkpt lat="44.90625" lon="5.38486">
        <ele>1057.3</ele>
        <time>2021-09-01T09:57:04Z</time>
      </trkpt>
      <trkpt lat="44.90625" lon="5.38485">
        <ele>1057.5</ele>
        <time>2021-09-01T09:57:05Z</time>
      </trkpt>
      <trkpt lat="44.90625" lon="5.38483">
        <ele>1057.6</ele>
        <time>2021-09-01T09:57:06Z</time>
      </trkpt>
      <trkpt lat="44.90625" lon="5.3848">
        <ele>1057.8</ele>
        <time>2021-09-01T09:57:07Z</time>
      </trkpt>
      <trkpt lat="44.90624" lon="5.38477">
        <ele>1058.1</ele>
        <time>2021-09-01T09:57:09Z</time>
      </trkpt>
      <trkpt lat="44.90624" lon="5.38475">
        <ele>1058.3</ele>
        <time>2021-09-01T09:57:10Z</time>
      </trkpt>
      <trkpt lat="44.90622" lon="5.38473">
        <ele>1058.5</ele>
        <time>2021-09-01T09:57:12Z</time>
      </trkpt>
      <trkpt lat="44.90622" lon="5.38469">
        <ele>1058.8</ele>
        <time>2021-09-01T09:57:14Z</time>
      </trkpt>
      <trkpt lat="44.90621" lon="5.38467">
        <ele>1059</ele>
        <time>2021-09-01T09:57:15Z</time>
      </trkpt>
      <trkpt lat="44.90621" lon="5.38464">
        <ele>1059.2</ele>
        <time>2021-09-01T09:57:17Z</time>
      </trkpt>
      <trkpt lat="44.90621" lon="5.38459">
        <ele>1059.6</ele>
        <time>2021-09-01T09:57:18Z</time>
      </trkpt>
      <trkpt lat="44.90621" lon="5.38458">
        <ele>1059.7</ele>
        <time>2021-09-01T09:57:19Z</time>
      </trkpt>
      <trkpt lat="44.90624" lon="5.38454">
        <ele>1060.1</ele>
        <time>2021-09-01T09:57:21Z</time>
      </trkpt>
      <trkpt lat="44.90625" lon="5.38452">
        <ele>1060.2</ele>
        <time>2021-09-01T09:57:22Z</time>
      </trkpt>
      <trkpt lat="44.90626" lon="5.38447">
        <ele>1060.6</ele>
        <time>2021-09-01T09:57:24Z</time>
      </trkpt>
      <trkpt lat="44.90625" lon="5.38445">
        <ele>1060.8</ele>
        <time>2021-09-01T09:57:25Z</time>
      </trkpt>
      <trkpt lat="44.90626" lon="5.38443">
        <ele>1060.9</ele>
        <time>2021-09-01T09:57:26Z</time>
      </trkpt>
      <trkpt lat="44.90626" lon="5.38442">
        <ele>1061</ele>
        <time>2021-09-01T09:57:28Z</time>
      </trkpt>
      <trkpt lat="44.90626" lon="5.3844">
        <ele>1061.1</ele>
        <time>2021-09-01T09:57:29Z</time>
      </trkpt>
      <trkpt lat="44.90626" lon="5.38437">
        <ele>1061.3</ele>
        <time>2021-09-01T09:57:31Z</time>
      </trkpt>
      <trkpt lat="44.90627" lon="5.38433">
        <ele>1061.6</ele>
        <time>2021-09-01T09:57:32Z</time>
      </trkpt>
      <trkpt lat="44.90627" lon="5.38432">
        <ele>1061.7</ele>
        <time>2021-09-01T09:57:33Z</time>
      </trkpt>
      <trkpt lat="44.90627" lon="5.38429">
        <ele>1061.8</ele>
        <time>2021-09-01T09:57:35Z</time>
      </trkpt>
      <trkpt lat="44.90627" lon="5.38428">
        <ele>1061.9</ele>
        <time>2021-09-01T09:57:37Z</time>
      </trkpt>
      <trkpt lat="44.90627" lon="5.38428">
        <ele>1062</ele>
        <time>2021-09-01T09:57:38Z</time>
      </trkpt>
      <trkpt lat="44.90626" lon="5.38428">
        <ele>1062</ele>
        <time>2021-09-01T09:57:40Z</time>
      </trkpt>
      <trkpt lat="44.90626" lon="5.38428">
        <ele>1062</ele>
        <time>2021-09-01T09:57:41Z</time>
      </trkpt>
      <trkpt lat="44.90627" lon="5.38424">
        <ele>1062.2</ele>
        <time>2021-09-01T09:57:43Z</time>
      </trkpt>
      <trkpt lat="44.90627" lon="5.3842">
        <ele>1062.4</ele>
        <time>2021-09-01T09:57:45Z</time>
      </trkpt>
      <trkpt lat="44.90627" lon="5.38415">
        <ele>1062.7</ele>
        <time>2021-09-01T09:57:47Z</time>
      </trkpt>
      <trkpt lat="44.90627" lon="5.38412">
        <ele>1062.8</ele>
        <time>2021-09-01T09:57:49Z</time>
      </trkpt>
      <trkpt lat="44.90627" lon="5.38409">
        <ele>1063</ele>
        <time>2021-09-01T09:57:50Z</time>
      </trkpt>
      <trkpt lat="44.90626" lon="5.38402">
        <ele>1063.2</ele>
        <time>2021-09-01T09:57:52Z</time>
      </trkpt>
      <trkpt lat="44.90626" lon="5.384">
        <ele>1063.3</ele>
        <time>2021-09-01T09:57:53Z</time>
      </trkpt>
      <trkpt lat="44.90626" lon="5.38399">
        <ele>1063.4</ele>
        <time>2021-09-01T09:57:54Z</time>
      </trkpt>
      <trkpt lat="44.90626" lon="5.38394">
        <ele>1063.6</ele>
        <time>2021-09-01T09:57:56Z</time>
      </trkpt>
      <trkpt lat="44.90626" lon="5.3839">
        <ele>1063.7</ele>
        <time>2021-09-01T09:57:57Z</time>
      </trkpt>
      <trkpt lat="44.90626" lon="5.38387">
        <ele>1063.8</ele>
        <time>2021-09-01T09:57:59Z</time>
      </trkpt>
      <trkpt lat="44.90626" lon="5.38383">
        <ele>1064</ele>
        <time>2021-09-01T09:58:00Z</time>
      </trkpt>
      <trkpt lat="44.90626" lon="5.38381">
        <ele>1064</ele>
        <time>2021-09-01T09:58:01Z</time>
      </trkpt>
      <trkpt lat="44.90626" lon="5.38377">
        <ele>1064.1</ele>
        <time>2021-09-01T09:58:03Z</time>
      </trkpt>
      <trkpt lat="44.90626" lon="5.38375">
        <ele>1064.2</ele>
        <time>2021-09-01T09:58:04Z</time>
      </trkpt>
      <trkpt lat="44.90625" lon="5.38371">
        <ele>1064.3</ele>
        <time>2021-09-01T09:58:06Z</time>
      </trkpt>
      <trkpt lat="44.90625" lon="5.38366">
        <ele>1064.5</ele>
        <time>2021-09-01T09:58:07Z</time>
      </trkpt>
      <trkpt lat="44.90625" lon="5.38361">
        <ele>1064.6</ele>
        <time>2021-09-01T09:58:09Z</time>
      </trkpt>
      <trkpt lat="44.90625" lon="5.3836">
        <ele>1064.6</ele>
        <time>2021-09-01T09:58:10Z</time>
      </trkpt>
      <trkpt lat="44.90626" lon="5.38357">
        <ele>1064.7</ele>
        <time>2021-09-01T09:58:11Z</time>
      </trkpt>
      <trkpt lat="44.90627" lon="5.38355">
        <ele>1064.8</ele>
        <time>2021-09-01T09:58:13Z</time>
      </trkpt>
      <trkpt lat="44.90628" lon="5.38351">
        <ele>1064.9</ele>
        <time>2021-09-01T09:58:14Z</time>
      </trkpt>
      <trkpt lat="44.90628" lon="5.38349">
        <ele>1064.9</ele>
        <time>2021-09-01T09:58:15Z</time>
      </trkpt>
      <trkpt lat="44.90628" lon="5.38347">
        <ele>1064.9</ele>
        <time>2021-09-01T09:58:17Z</time>
      </trkpt>
      <trkpt lat="44.90628" lon="5.38345">
        <ele>1065</ele>
        <time>2021-09-01T09:58:18Z</time>
      </trkpt>
      <trkpt lat="44.90628" lon="5.3834">
        <ele>1065</ele>
        <time>2021-09-01T09:58:19Z</time>
      </trkpt>
      <trkpt lat="44.90628" lon="5.38337">
        <ele>1065.1</ele>
        <time>2021-09-01T09:58:20Z</time>
      </trkpt>
      <trkpt lat="44.90628" lon="5.38331">
        <ele>1065.1</ele>
        <time>2021-09-01T09:58:22Z</time>
      </trkpt>
      <trkpt lat="44.90628" lon="5.38329">
        <ele>1065.1</ele>
        <time>2021-09-01T09:58:23Z</time>
      </trkpt>
      <trkpt lat="44.90628" lon="5.38327">
        <ele>1065.1</ele>
        <time>2021-09-01T09:58:24Z</time>
      </trkpt>
      <trkpt lat="44.90627" lon="5.38322">
        <ele>1065.1</ele>
        <time>2021-09-01T09:58:26Z</time>
      </trkpt>
      <trkpt lat="44.90627" lon="5.38321">
        <ele>1065</ele>
        <time>2021-09-01T09:58:27Z</time>
      </trkpt>
      <trkpt lat="44.90627" lon="5.38316">
        <ele>1065</ele>
        <time>2021-09-01T09:58:28Z</time>
      </trkpt>
      <trkpt lat="44.90627" lon="5.38314">
        <ele>1065</ele>
        <time>2021-09-01T09:58:29Z</time>
      </trkpt>
      <trkpt lat="44.90627" lon="5.38308">
        <ele>1064.9</ele>
        <time>2021-09-01T09:58:31Z</time>
      </trkpt>
      <trkpt lat="44.90627" lon="5.38304">
        <ele>1064.8</ele>
        <time>2021-09-01T09:58:32Z</time>
      </trkpt>
      <trkpt lat="44.90626" lon="5.383">
        <ele>1064.7</ele>
        <time>2021-09-01T09:58:33Z</time>
      </trkpt>
      <trkpt lat="44.90626" lon="5.38292">
        <ele>1064.5</ele>
        <time>2021-09-01T09:58:34Z</time>
      </trkpt>
      <trkpt lat="44.90627" lon="5.38285">
        <ele>1064.4</ele>
        <time>2021-09-01T09:58:36Z</time>
      </trkpt>
      <trkpt lat="44.90629" lon="5.3828">
        <ele>1064.2</ele>
        <time>2021-09-01T09:58:38Z</time>
      </trkpt>
      <trkpt lat="44.90632" lon="5.38276">
        <ele>1064.1</ele>
        <time>2021-09-01T09:58:39Z</time>
      </trkpt>
      <trkpt lat="44.90636" lon="5.38266">
        <ele>1063.7</ele>
        <time>2021-09-01T09:58:40Z</time>
      </trkpt>
      <trkpt lat="44.9064" lon="5.38258">
        <ele>1063.3</ele>
        <time>2021-09-01T09:58:42Z</time>
      </trkpt>
      <trkpt lat="44.90643" lon="5.38251">
        <ele>1062.9</ele>
        <time>2021-09-01T09:58:43Z</time>
      </trkpt>
      <trkpt lat="44.90649" lon="5.38238">
        <ele>1062.2</ele>
        <time>2021-09-01T09:58:45Z</time>
      </trkpt>
      <trkpt lat="44.90653" lon="5.38222">
        <ele>1061.2</ele>
        <time>2021-09-01T09:58:47Z</time>
      </trkpt>
      <trkpt lat="44.90657" lon="5.38205">
        <ele>1060</ele>
        <time>2021-09-01T09:58:49Z</time>
      </trkpt>
      <trkpt lat="44.90659" lon="5.38183">
        <ele>1058.7</ele>
        <time>2021-09-01T09:58:51Z</time>
      </trkpt>
      <trkpt lat="44.9066" lon="5.38172">
        <ele>1058.1</ele>
        <time>2021-09-01T09:58:52Z</time>
      </trkpt>
      <trkpt lat="44.90661" lon="5.38162">
        <ele>1057.6</ele>
        <time>2021-09-01T09:58:53Z</time>
      </trkpt>
      <trkpt lat="44.90662" lon="5.38152">
        <ele>1057.2</ele>
        <time>2021-09-01T09:58:54Z</time>
      </trkpt>
      <trkpt lat="44.90663" lon="5.38141">
        <ele>1056.9</ele>
        <time>2021-09-01T09:58:55Z</time>
      </trkpt>
      <trkpt lat="44.90665" lon="5.3812">
        <ele>1056.3</ele>
        <time>2021-09-01T09:58:57Z</time>
      </trkpt>
      <trkpt lat="44.90667" lon="5.38099">
        <ele>1055.5</ele>
        <time>2021-09-01T09:58:59Z</time>
      </trkpt>
      <trkpt lat="44.90667" lon="5.38087">
        <ele>1055.1</ele>
        <time>2021-09-01T09:59:00Z</time>
      </trkpt>
      <trkpt lat="44.90661" lon="5.38069">
        <ele>1054.8</ele>
        <time>2021-09-01T09:59:02Z</time>
      </trkpt>
      <trkpt lat="44.90657" lon="5.38063">
        <ele>1054.8</ele>
        <time>2021-09-01T09:59:03Z</time>
      </trkpt>
      <trkpt lat="44.9065" lon="5.38055">
        <ele>1054.7</ele>
        <time>2021-09-01T09:59:05Z</time>
      </trkpt>
      <trkpt lat="44.90648" lon="5.38053">
        <ele>1054.7</ele>
        <time>2021-09-01T09:59:06Z</time>
      </trkpt>
      <trkpt lat="44.90644" lon="5.38047">
        <ele>1054.7</ele>
        <time>2021-09-01T09:59:08Z</time>
      </trkpt>
      <trkpt lat="44.90641" lon="5.38045">
        <ele>1054.6</ele>
        <time>2021-09-01T09:59:10Z</time>
      </trkpt>
      <trkpt lat="44.90641" lon="5.38048">
        <ele>1054.6</ele>
        <time>2021-09-01T09:59:12Z</time>
      </trkpt>
      <trkpt lat="44.90641" lon="5.3805">
        <ele>1054.6</ele>
        <time>2021-09-01T09:59:13Z</time>
      </trkpt>
      <trkpt lat="44.90641" lon="5.38048">
        <ele>1054.6</ele>
        <time>2021-09-01T09:59:15Z</time>
      </trkpt>
      <trkpt lat="44.90641" lon="5.38045">
        <ele>1054.5</ele>
        <time>2021-09-01T09:59:17Z</time>
      </trkpt>
      <trkpt lat="44.90641" lon="5.38043">
        <ele>1054.5</ele>
        <time>2021-09-01T09:59:18Z</time>
      </trkpt>
      <trkpt lat="44.90641" lon="5.3804">
        <ele>1054.4</ele>
        <time>2021-09-01T09:59:20Z</time>
      </trkpt>
      <trkpt lat="44.90641" lon="5.38037">
        <ele>1054.4</ele>
        <time>2021-09-01T09:59:32Z</time>
      </trkpt>
      <trkpt lat="44.90641" lon="5.38035">
        <ele>1054.3</ele>
        <time>2021-09-01T09:59:33Z</time>
      </trkpt>
      <trkpt lat="44.90641" lon="5.38032">
        <ele>1054.3</ele>
        <time>2021-09-01T09:59:34Z</time>
      </trkpt>
      <trkpt lat="44.90641" lon="5.3803">
        <ele>1054.2</ele>
        <time>2021-09-01T09:59:36Z</time>
      </trkpt>
      <trkpt lat="44.90641" lon="5.38027">
        <ele>1054.1</ele>
        <time>2021-09-01T09:59:38Z</time>
      </trkpt>
      <trkpt lat="44.90641" lon="5.38024">
        <ele>1054.1</ele>
        <time>2021-09-01T09:59:39Z</time>
      </trkpt>
      <trkpt lat="44.90641" lon="5.38022">
        <ele>1054</ele>
        <time>2021-09-01T09:59:40Z</time>
      </trkpt>
      <trkpt lat="44.9064" lon="5.38019">
        <ele>1053.9</ele>
        <time>2021-09-01T09:59:42Z</time>
      </trkpt>
      <trkpt lat="44.9064" lon="5.38017">
        <ele>1053.9</ele>
        <time>2021-09-01T09:59:43Z</time>
      </trkpt>
      <trkpt lat="44.9064" lon="5.38014">
        <ele>1053.8</ele>
        <time>2021-09-01T09:59:49Z</time>
      </trkpt>
      <trkpt lat="44.9064" lon="5.38011">
        <ele>1053.7</ele>
        <time>2021-09-01T09:59:51Z</time>
      </trkpt>
      <trkpt lat="44.9064" lon="5.38009">
        <ele>1053.6</ele>
        <time>2021-09-01T09:59:52Z</time>
      </trkpt>
      <trkpt lat="44.9064" lon="5.38006">
        <ele>1053.6</ele>
        <time>2021-09-01T09:59:53Z</time>
      </trkpt>
      <trkpt lat="44.90641" lon="5.38003">
        <ele>1053.5</ele>
        <time>2021-09-01T09:59:54Z</time>
      </trkpt>
      <trkpt lat="44.90642" lon="5.38001">
        <ele>1053.4</ele>
        <time>2021-09-01T09:59:56Z</time>
      </trkpt>
      <trkpt lat="44.90644" lon="5.37998">
        <ele>1053.3</ele>
        <time>2021-09-01T09:59:57Z</time>
      </trkpt>
      <trkpt lat="44.90644" lon="5.37996">
        <ele>1053.3</ele>
        <time>2021-09-01T09:59:58Z</time>
      </trkpt>
      <trkpt lat="44.90644" lon="5.37993">
        <ele>1053.2</ele>
        <time>2021-09-01T10:00:00Z</time>
      </trkpt>
      <trkpt lat="44.90644" lon="5.37992">
        <ele>1053.2</ele>
        <time>2021-09-01T10:00:01Z</time>
      </trkpt>
      <trkpt lat="44.90645" lon="5.3799">
        <ele>1053.1</ele>
        <time>2021-09-01T10:00:02Z</time>
      </trkpt>
      <trkpt lat="44.90645" lon="5.37987">
        <ele>1053</ele>
        <time>2021-09-01T10:00:03Z</time>
      </trkpt>
      <trkpt lat="44.90646" lon="5.37985">
        <ele>1053</ele>
        <time>2021-09-01T10:00:05Z</time>
      </trkpt>
      <trkpt lat="44.90646" lon="5.37984">
        <ele>1053</ele>
        <time>2021-09-01T10:00:06Z</time>
      </trkpt>
      <trkpt lat="44.90647" lon="5.37981">
        <ele>1052.9</ele>
        <time>2021-09-01T10:00:07Z</time>
      </trkpt>
      <trkpt lat="44.90647" lon="5.3798">
        <ele>1052.9</ele>
        <time>2021-09-01T10:00:08Z</time>
      </trkpt>
      <trkpt lat="44.90647" lon="5.3798">
        <ele>1052.8</ele>
        <time>2021-09-01T10:00:10Z</time>
      </trkpt>
      <trkpt lat="44.90647" lon="5.37977">
        <ele>1052.8</ele>
        <time>2021-09-01T10:00:11Z</time>
      </trkpt>
      <trkpt lat="44.90647" lon="5.37975">
        <ele>1052.7</ele>
        <time>2021-09-01T10:00:12Z</time>
      </trkpt>
      <trkpt lat="44.90647" lon="5.37973">
        <ele>1052.7</ele>
        <time>2021-09-01T10:00:14Z</time>
      </trkpt>
      <trkpt lat="44.90647" lon="5.37971">
        <ele>1052.6</ele>
        <time>2021-09-01T10:00:15Z</time>
      </trkpt>
      <trkpt lat="44.90647" lon="5.37971">
        <ele>1052.6</ele>
        <time>2021-09-01T10:00:16Z</time>
      </trkpt>
      <trkpt lat="44.90647" lon="5.3797">
        <ele>1052.6</ele>
        <time>2021-09-01T10:00:18Z</time>
      </trkpt>
      <trkpt lat="44.90647" lon="5.3797">
        <ele>1052.6</ele>
        <time>2021-09-01T10:00:19Z</time>
      </trkpt>
      <trkpt lat="44.90647" lon="5.3797">
        <ele>1052.6</ele>
        <time>2021-09-01T10:00:20Z</time>
      </trkpt>
      <trkpt lat="44.90646" lon="5.37969">
        <ele>1052.6</ele>
        <time>2021-09-01T10:00:21Z</time>
      </trkpt>
      <trkpt lat="44.90646" lon="5.37969">
        <ele>1052.6</ele>
        <time>2021-09-01T10:00:22Z</time>
      </trkpt>
      <trkpt lat="44.90647" lon="5.37969">
        <ele>1052.6</ele>
        <time>2021-09-01T10:00:24Z</time>
      </trkpt>
      <trkpt lat="44.90647" lon="5.37969">
        <ele>1052.6</ele>
        <time>2021-09-01T10:00:25Z</time>
      </trkpt>
      <trkpt lat="44.90643" lon="5.37953">
        <ele>1052.1</ele>
        <time>2021-09-01T10:00:33Z</time>
      </trkpt>
      <trkpt lat="44.90641" lon="5.37947">
        <ele>1051.9</ele>
        <time>2021-09-01T10:00:35Z</time>
      </trkpt>
      <trkpt lat="44.9064" lon="5.37943">
        <ele>1051.8</ele>
        <time>2021-09-01T10:00:36Z</time>
      </trkpt>
      <trkpt lat="44.90638" lon="5.37938">
        <ele>1051.6</ele>
        <time>2021-09-01T10:00:38Z</time>
      </trkpt>
      <trkpt lat="44.90638" lon="5.37937">
        <ele>1051.6</ele>
        <time>2021-09-01T10:00:39Z</time>
      </trkpt>
      <trkpt lat="44.90636" lon="5.37933">
        <ele>1051.4</ele>
        <time>2021-09-01T10:00:40Z</time>
      </trkpt>
      <trkpt lat="44.90636" lon="5.37931">
        <ele>1051.4</ele>
        <time>2021-09-01T10:00:42Z</time>
      </trkpt>
      <trkpt lat="44.90635" lon="5.37928">
        <ele>1051.3</ele>
        <time>2021-09-01T10:00:44Z</time>
      </trkpt>
      <trkpt lat="44.90632" lon="5.37924">
        <ele>1051.2</ele>
        <time>2021-09-01T10:00:45Z</time>
      </trkpt>
      <trkpt lat="44.90631" lon="5.37923">
        <ele>1051.1</ele>
        <time>2021-09-01T10:00:47Z</time>
      </trkpt>
      <trkpt lat="44.90629" lon="5.37921">
        <ele>1051</ele>
        <time>2021-09-01T10:00:49Z</time>
      </trkpt>
      <trkpt lat="44.90628" lon="5.37919">
        <ele>1050.9</ele>
        <time>2021-09-01T10:00:50Z</time>
      </trkpt>
      <trkpt lat="44.90626" lon="5.37917">
        <ele>1050.9</ele>
        <time>2021-09-01T10:00:51Z</time>
      </trkpt>
      <trkpt lat="44.90625" lon="5.37916">
        <ele>1050.8</ele>
        <time>2021-09-01T10:00:53Z</time>
      </trkpt>
      <trkpt lat="44.90623" lon="5.37914">
        <ele>1050.8</ele>
        <time>2021-09-01T10:00:54Z</time>
      </trkpt>
      <trkpt lat="44.90622" lon="5.37912">
        <ele>1050.7</ele>
        <time>2021-09-01T10:01:07Z</time>
      </trkpt>
      <trkpt lat="44.9062" lon="5.3791">
        <ele>1050.7</ele>
        <time>2021-09-01T10:01:08Z</time>
      </trkpt>
      <trkpt lat="44.90619" lon="5.37909">
        <ele>1050.6</ele>
        <time>2021-09-01T10:01:09Z</time>
      </trkpt>
      <trkpt lat="44.90617" lon="5.37906">
        <ele>1050.6</ele>
        <time>2021-09-01T10:01:10Z</time>
      </trkpt>
      <trkpt lat="44.90615" lon="5.37903">
        <ele>1050.5</ele>
        <time>2021-09-01T10:01:11Z</time>
      </trkpt>
      <trkpt lat="44.90614" lon="5.37902">
        <ele>1050.5</ele>
        <time>2021-09-01T10:01:13Z</time>
      </trkpt>
      <trkpt lat="44.90612" lon="5.379">
        <ele>1050.5</ele>
        <time>2021-09-01T10:01:14Z</time>
      </trkpt>
      <trkpt lat="44.90611" lon="5.37898">
        <ele>1050.4</ele>
        <time>2021-09-01T10:01:16Z</time>
      </trkpt>
      <trkpt lat="44.9061" lon="5.37895">
        <ele>1050.4</ele>
        <time>2021-09-01T10:01:18Z</time>
      </trkpt>
      <trkpt lat="44.90609" lon="5.37896">
        <ele>1050.4</ele>
        <time>2021-09-01T10:01:19Z</time>
      </trkpt>
      <trkpt lat="44.90609" lon="5.37896">
        <ele>1050.4</ele>
        <time>2021-09-01T10:01:21Z</time>
      </trkpt>
      <trkpt lat="44.90609" lon="5.37897">
        <ele>1050.4</ele>
        <time>2021-09-01T10:01:23Z</time>
      </trkpt>
      <trkpt lat="44.90608" lon="5.37896">
        <ele>1050.4</ele>
        <time>2021-09-01T10:01:24Z</time>
      </trkpt>
      <trkpt lat="44.90608" lon="5.37896">
        <ele>1050.4</ele>
        <time>2021-09-01T10:01:25Z</time>
      </trkpt>
      <trkpt lat="44.90607" lon="5.37894">
        <ele>1050.4</ele>
        <time>2021-09-01T10:01:26Z</time>
      </trkpt>
      <trkpt lat="44.90606" lon="5.37893">
        <ele>1050.4</ele>
        <time>2021-09-01T10:01:27Z</time>
      </trkpt>
      <trkpt lat="44.90605" lon="5.37892">
        <ele>1050.4</ele>
        <time>2021-09-01T10:01:28Z</time>
      </trkpt>
      <trkpt lat="44.90602" lon="5.37887">
        <ele>1050.4</ele>
        <time>2021-09-01T10:01:30Z</time>
      </trkpt>
      <trkpt lat="44.90599" lon="5.37884">
        <ele>1050.5</ele>
        <time>2021-09-01T10:01:31Z</time>
      </trkpt>
      <trkpt lat="44.90592" lon="5.3788">
        <ele>1050.7</ele>
        <time>2021-09-01T10:01:33Z</time>
      </trkpt>
      <trkpt lat="44.90587" lon="5.37875">
        <ele>1050.9</ele>
        <time>2021-09-01T10:01:34Z</time>
      </trkpt>
      <trkpt lat="44.90585" lon="5.37872">
        <ele>1051.1</ele>
        <time>2021-09-01T10:01:36Z</time>
      </trkpt>
      <trkpt lat="44.90584" lon="5.37871">
        <ele>1051.1</ele>
        <time>2021-09-01T10:01:37Z</time>
      </trkpt>
      <trkpt lat="44.90581" lon="5.37868">
        <ele>1051.3</ele>
        <time>2021-09-01T10:01:38Z</time>
      </trkpt>
      <trkpt lat="44.90578" lon="5.37866">
        <ele>1051.5</ele>
        <time>2021-09-01T10:01:40Z</time>
      </trkpt>
      <trkpt lat="44.90573" lon="5.37865">
        <ele>1051.8</ele>
        <time>2021-09-01T10:01:41Z</time>
      </trkpt>
      <trkpt lat="44.9057" lon="5.37864">
        <ele>1052</ele>
        <time>2021-09-01T10:01:43Z</time>
      </trkpt>
      <trkpt lat="44.90567" lon="5.37861">
        <ele>1052.2</ele>
        <time>2021-09-01T10:01:44Z</time>
      </trkpt>
      <trkpt lat="44.90564" lon="5.37859">
        <ele>1052.4</ele>
        <time>2021-09-01T10:01:46Z</time>
      </trkpt>
      <trkpt lat="44.9056" lon="5.37853">
        <ele>1052.6</ele>
        <time>2021-09-01T10:01:48Z</time>
      </trkpt>
      <trkpt lat="44.90556" lon="5.3785">
        <ele>1052.7</ele>
        <time>2021-09-01T10:01:50Z</time>
      </trkpt>
      <trkpt lat="44.90557" lon="5.37848">
        <ele>1052.7</ele>
        <time>2021-09-01T10:01:51Z</time>
      </trkpt>
      <trkpt lat="44.90557" lon="5.37846">
        <ele>1052.8</ele>
        <time>2021-09-01T10:01:53Z</time>
      </trkpt>
      <trkpt lat="44.90557" lon="5.37845">
        <ele>1052.8</ele>
        <time>2021-09-01T10:01:54Z</time>
      </trkpt>
      <trkpt lat="44.90554" lon="5.37842">
        <ele>1052.8</ele>
        <time>2021-09-01T10:01:56Z</time>
      </trkpt>
      <trkpt lat="44.90552" lon="5.37837">
        <ele>1052.7</ele>
        <time>2021-09-01T10:01:58Z</time>
      </trkpt>
      <trkpt lat="44.9055" lon="5.37835">
        <ele>1052.7</ele>
        <time>2021-09-01T10:01:59Z</time>
      </trkpt>
      <trkpt lat="44.90549" lon="5.37834">
        <ele>1052.7</ele>
        <time>2021-09-01T10:02:00Z</time>
      </trkpt>
      <trkpt lat="44.90546" lon="5.37832">
        <ele>1052.6</ele>
        <time>2021-09-01T10:02:02Z</time>
      </trkpt>
      <trkpt lat="44.90542" lon="5.37829">
        <ele>1052.5</ele>
        <time>2021-09-01T10:02:03Z</time>
      </trkpt>
      <trkpt lat="44.9054" lon="5.37823">
        <ele>1052.4</ele>
        <time>2021-09-01T10:02:05Z</time>
      </trkpt>
      <trkpt lat="44.90539" lon="5.3782">
        <ele>1052.4</ele>
        <time>2021-09-01T10:02:06Z</time>
      </trkpt>
      <trkpt lat="44.90535" lon="5.37814">
        <ele>1052.2</ele>
        <time>2021-09-01T10:02:08Z</time>
      </trkpt>
      <trkpt lat="44.90532" lon="5.37809">
        <ele>1052.1</ele>
        <time>2021-09-01T10:02:09Z</time>
      </trkpt>
      <trkpt lat="44.90529" lon="5.37802">
        <ele>1052</ele>
        <time>2021-09-01T10:02:11Z</time>
      </trkpt>
      <trkpt lat="44.90526" lon="5.37798">
        <ele>1052</ele>
        <time>2021-09-01T10:02:12Z</time>
      </trkpt>
      <trkpt lat="44.90523" lon="5.37794">
        <ele>1051.9</ele>
        <time>2021-09-01T10:02:13Z</time>
      </trkpt>
      <trkpt lat="44.9052" lon="5.3779">
        <ele>1051.8</ele>
        <time>2021-09-01T10:02:14Z</time>
      </trkpt>
      <trkpt lat="44.90518" lon="5.37786">
        <ele>1051.8</ele>
        <time>2021-09-01T10:02:16Z</time>
      </trkpt>
      <trkpt lat="44.90516" lon="5.37783">
        <ele>1051.8</ele>
        <time>2021-09-01T10:02:17Z</time>
      </trkpt>
      <trkpt lat="44.90512" lon="5.3778">
        <ele>1051.7</ele>
        <time>2021-09-01T10:02:18Z</time>
      </trkpt>
      <trkpt lat="44.90503" lon="5.37775">
        <ele>1051.5</ele>
        <time>2021-09-01T10:02:20Z</time>
      </trkpt>
      <trkpt lat="44.90499" lon="5.37777">
        <ele>1051.4</ele>
        <time>2021-09-01T10:02:21Z</time>
      </trkpt>
      <trkpt lat="44.90496" lon="5.37773">
        <ele>1051.3</ele>
        <time>2021-09-01T10:02:22Z</time>
      </trkpt>
      <trkpt lat="44.90494" lon="5.37767">
        <ele>1051.2</ele>
        <time>2021-09-01T10:02:24Z</time>
      </trkpt>
      <trkpt lat="44.90493" lon="5.37763">
        <ele>1051.1</ele>
        <time>2021-09-01T10:02:25Z</time>
      </trkpt>
      <trkpt lat="44.90493" lon="5.37758">
        <ele>1051</ele>
        <time>2021-09-01T10:02:27Z</time>
      </trkpt>
      <trkpt lat="44.90492" lon="5.37757">
        <ele>1051</ele>
        <time>2021-09-01T10:02:28Z</time>
      </trkpt>
      <trkpt lat="44.9049" lon="5.37754">
        <ele>1050.9</ele>
        <time>2021-09-01T10:02:29Z</time>
      </trkpt>
      <trkpt lat="44.9049" lon="5.3775">
        <ele>1050.7</ele>
        <time>2021-09-01T10:02:31Z</time>
      </trkpt>
      <trkpt lat="44.90489" lon="5.37744">
        <ele>1050.5</ele>
        <time>2021-09-01T10:02:32Z</time>
      </trkpt>
      <trkpt lat="44.90487" lon="5.37737">
        <ele>1050.2</ele>
        <time>2021-09-01T10:02:34Z</time>
      </trkpt>
      <trkpt lat="44.90485" lon="5.37732">
        <ele>1050</ele>
        <time>2021-09-01T10:02:35Z</time>
      </trkpt>
      <trkpt lat="44.90483" lon="5.37726">
        <ele>1049.6</ele>
        <time>2021-09-01T10:02:36Z</time>
      </trkpt>
      <trkpt lat="44.90482" lon="5.3772">
        <ele>1049.3</ele>
        <time>2021-09-01T10:02:37Z</time>
      </trkpt>
      <trkpt lat="44.9048" lon="5.37708">
        <ele>1048.8</ele>
        <time>2021-09-01T10:02:39Z</time>
      </trkpt>
      <trkpt lat="44.90477" lon="5.37701">
        <ele>1048.6</ele>
        <time>2021-09-01T10:02:40Z</time>
      </trkpt>
      <trkpt lat="44.90469" lon="5.37691">
        <ele>1048.2</ele>
        <time>2021-09-01T10:02:42Z</time>
      </trkpt>
      <trkpt lat="44.90462" lon="5.37682">
        <ele>1047.9</ele>
        <time>2021-09-01T10:02:44Z</time>
      </trkpt>
      <trkpt lat="44.90459" lon="5.37678">
        <ele>1047.9</ele>
        <time>2021-09-01T10:02:45Z</time>
      </trkpt>
      <trkpt lat="44.90455" lon="5.37673">
        <ele>1047.8</ele>
        <time>2021-09-01T10:02:46Z</time>
      </trkpt>
      <trkpt lat="44.90451" lon="5.3767">
        <ele>1047.7</ele>
        <time>2021-09-01T10:02:47Z</time>
      </trkpt>
      <trkpt lat="44.90447" lon="5.37667">
        <ele>1047.6</ele>
        <time>2021-09-01T10:02:48Z</time>
      </trkpt>
      <trkpt lat="44.90443" lon="5.37663">
        <ele>1047.6</ele>
        <time>2021-09-01T10:02:50Z</time>
      </trkpt>
      <trkpt lat="44.90438" lon="5.37661">
        <ele>1047.5</ele>
        <time>2021-09-01T10:02:51Z</time>
      </trkpt>
      <trkpt lat="44.90432" lon="5.37658">
        <ele>1047.4</ele>
        <time>2021-09-01T10:02:52Z</time>
      </trkpt>
      <trkpt lat="44.90428" lon="5.37656">
        <ele>1047.4</ele>
        <time>2021-09-01T10:02:54Z</time>
      </trkpt>
      <trkpt lat="44.90424" lon="5.37655">
        <ele>1047.3</ele>
        <time>2021-09-01T10:02:55Z</time>
      </trkpt>
      <trkpt lat="44.90418" lon="5.37652">
        <ele>1047.2</ele>
        <time>2021-09-01T10:02:56Z</time>
      </trkpt>
      <trkpt lat="44.90412" lon="5.3765">
        <ele>1047.2</ele>
        <time>2021-09-01T10:02:58Z</time>
      </trkpt>
      <trkpt lat="44.90407" lon="5.37649">
        <ele>1047.2</ele>
        <time>2021-09-01T10:03:00Z</time>
      </trkpt>
      <trkpt lat="44.90403" lon="5.37648">
        <ele>1047.2</ele>
        <time>2021-09-01T10:03:01Z</time>
      </trkpt>
      <trkpt lat="44.904" lon="5.37648">
        <ele>1047.3</ele>
        <time>2021-09-01T10:03:02Z</time>
      </trkpt>
      <trkpt lat="44.90396" lon="5.37647">
        <ele>1047.3</ele>
        <time>2021-09-01T10:03:03Z</time>
      </trkpt>
      <trkpt lat="44.90391" lon="5.37647">
        <ele>1047.5</ele>
        <time>2021-09-01T10:03:04Z</time>
      </trkpt>
      <trkpt lat="44.90387" lon="5.37646">
        <ele>1047.6</ele>
        <time>2021-09-01T10:03:06Z</time>
      </trkpt>
      <trkpt lat="44.90384" lon="5.37644">
        <ele>1047.7</ele>
        <time>2021-09-01T10:03:07Z</time>
      </trkpt>
      <trkpt lat="44.9038" lon="5.37642">
        <ele>1047.8</ele>
        <time>2021-09-01T10:03:08Z</time>
      </trkpt>
      <trkpt lat="44.90377" lon="5.3764">
        <ele>1048</ele>
        <time>2021-09-01T10:03:10Z</time>
      </trkpt>
      <trkpt lat="44.90373" lon="5.37639">
        <ele>1048.1</ele>
        <time>2021-09-01T10:03:11Z</time>
      </trkpt>
      <trkpt lat="44.90372" lon="5.37639">
        <ele>1048.1</ele>
        <time>2021-09-01T10:03:12Z</time>
      </trkpt>
      <trkpt lat="44.90369" lon="5.37638">
        <ele>1048.2</ele>
        <time>2021-09-01T10:03:13Z</time>
      </trkpt>
      <trkpt lat="44.90368" lon="5.37637">
        <ele>1048.2</ele>
        <time>2021-09-01T10:03:14Z</time>
      </trkpt>
      <trkpt lat="44.90365" lon="5.37636">
        <ele>1048.3</ele>
        <time>2021-09-01T10:03:15Z</time>
      </trkpt>
      <trkpt lat="44.90364" lon="5.37636">
        <ele>1048.3</ele>
        <time>2021-09-01T10:03:16Z</time>
      </trkpt>
      <trkpt lat="44.9036" lon="5.37633">
        <ele>1048.4</ele>
        <time>2021-09-01T10:03:18Z</time>
      </trkpt>
      <trkpt lat="44.90358" lon="5.37633">
        <ele>1048.4</ele>
        <time>2021-09-01T10:03:19Z</time>
      </trkpt>
      <trkpt lat="44.90357" lon="5.37633">
        <ele>1048.4</ele>
        <time>2021-09-01T10:03:20Z</time>
      </trkpt>
      <trkpt lat="44.90357" lon="5.37633">
        <ele>1048.5</ele>
        <time>2021-09-01T10:03:22Z</time>
      </trkpt>
      <trkpt lat="44.90357" lon="5.37634">
        <ele>1048.5</ele>
        <time>2021-09-01T10:03:23Z</time>
      </trkpt>
      <trkpt lat="44.90354" lon="5.37633">
        <ele>1048.5</ele>
        <time>2021-09-01T10:03:24Z</time>
      </trkpt>
      <trkpt lat="44.9035" lon="5.37632">
        <ele>1048.6</ele>
        <time>2021-09-01T10:03:26Z</time>
      </trkpt>
      <trkpt lat="44.90346" lon="5.37631">
        <ele>1048.7</ele>
        <time>2021-09-01T10:03:27Z</time>
      </trkpt>
      <trkpt lat="44.90343" lon="5.37631">
        <ele>1048.8</ele>
        <time>2021-09-01T10:03:28Z</time>
      </trkpt>
      <trkpt lat="44.9034" lon="5.3763">
        <ele>1048.8</ele>
        <time>2021-09-01T10:03:29Z</time>
      </trkpt>
      <trkpt lat="44.90337" lon="5.37629">
        <ele>1048.9</ele>
        <time>2021-09-01T10:03:30Z</time>
      </trkpt>
      <trkpt lat="44.90332" lon="5.37627">
        <ele>1049</ele>
        <time>2021-09-01T10:03:32Z</time>
      </trkpt>
      <trkpt lat="44.90329" lon="5.37626">
        <ele>1049.1</ele>
        <time>2021-09-01T10:03:33Z</time>
      </trkpt>
      <trkpt lat="44.90322" lon="5.37626">
        <ele>1049.2</ele>
        <time>2021-09-01T10:03:35Z</time>
      </trkpt>
      <trkpt lat="44.90317" lon="5.37629">
        <ele>1049.3</ele>
        <time>2021-09-01T10:03:37Z</time>
      </trkpt>
      <trkpt lat="44.90315" lon="5.37632">
        <ele>1049.3</ele>
        <time>2021-09-01T10:03:38Z</time>
      </trkpt>
      <trkpt lat="44.90314" lon="5.37634">
        <ele>1049.3</ele>
        <time>2021-09-01T10:03:39Z</time>
      </trkpt>
      <trkpt lat="44.9031" lon="5.37635">
        <ele>1049.4</ele>
        <time>2021-09-01T10:03:41Z</time>
      </trkpt>
      <trkpt lat="44.90306" lon="5.37637">
        <ele>1049.4</ele>
        <time>2021-09-01T10:03:42Z</time>
      </trkpt>
      <trkpt lat="44.90304" lon="5.37638">
        <ele>1049.4</ele>
        <time>2021-09-01T10:03:43Z</time>
      </trkpt>
      <trkpt lat="44.90302" lon="5.37637">
        <ele>1049.4</ele>
        <time>2021-09-01T10:03:44Z</time>
      </trkpt>
      <trkpt lat="44.90298" lon="5.37635">
        <ele>1049.4</ele>
        <time>2021-09-01T10:03:46Z</time>
      </trkpt>
      <trkpt lat="44.90294" lon="5.37633">
        <ele>1049.4</ele>
        <time>2021-09-01T10:03:47Z</time>
      </trkpt>
      <trkpt lat="44.9029" lon="5.37628">
        <ele>1049.4</ele>
        <time>2021-09-01T10:03:49Z</time>
      </trkpt>
      <trkpt lat="44.90287" lon="5.37623">
        <ele>1049.4</ele>
        <time>2021-09-01T10:03:50Z</time>
      </trkpt>
      <trkpt lat="44.90285" lon="5.37617">
        <ele>1049.5</ele>
        <time>2021-09-01T10:03:51Z</time>
      </trkpt>
      <trkpt lat="44.90281" lon="5.37611">
        <ele>1049.6</ele>
        <time>2021-09-01T10:03:52Z</time>
      </trkpt>
      <trkpt lat="44.90278" lon="5.37607">
        <ele>1049.7</ele>
        <time>2021-09-01T10:03:53Z</time>
      </trkpt>
      <trkpt lat="44.90274" lon="5.37603">
        <ele>1049.8</ele>
        <time>2021-09-01T10:03:54Z</time>
      </trkpt>
      <trkpt lat="44.9027" lon="5.37599">
        <ele>1049.9</ele>
        <time>2021-09-01T10:03:56Z</time>
      </trkpt>
      <trkpt lat="44.90267" lon="5.37596">
        <ele>1049.9</ele>
        <time>2021-09-01T10:03:57Z</time>
      </trkpt>
      <trkpt lat="44.90266" lon="5.37593">
        <ele>1050</ele>
        <time>2021-09-01T10:03:58Z</time>
      </trkpt>
      <trkpt lat="44.90265" lon="5.37589">
        <ele>1050</ele>
        <time>2021-09-01T10:04:00Z</time>
      </trkpt>
      <trkpt lat="44.90263" lon="5.37586">
        <ele>1050.1</ele>
        <time>2021-09-01T10:04:01Z</time>
      </trkpt>
      <trkpt lat="44.90262" lon="5.37585">
        <ele>1050.1</ele>
        <time>2021-09-01T10:04:02Z</time>
      </trkpt>
      <trkpt lat="44.9026" lon="5.37583">
        <ele>1050.2</ele>
        <time>2021-09-01T10:04:03Z</time>
      </trkpt>
      <trkpt lat="44.90259" lon="5.37582">
        <ele>1050.2</ele>
        <time>2021-09-01T10:04:04Z</time>
      </trkpt>
      <trkpt lat="44.90257" lon="5.37581">
        <ele>1050.2</ele>
        <time>2021-09-01T10:04:05Z</time>
      </trkpt>
      <trkpt lat="44.90254" lon="5.3758">
        <ele>1050.3</ele>
        <time>2021-09-01T10:04:07Z</time>
      </trkpt>
      <trkpt lat="44.90251" lon="5.37577">
        <ele>1050.4</ele>
        <time>2021-09-01T10:04:08Z</time>
      </trkpt>
      <trkpt lat="44.90249" lon="5.37575">
        <ele>1050.4</ele>
        <time>2021-09-01T10:04:09Z</time>
      </trkpt>
      <trkpt lat="44.90246" lon="5.37573">
        <ele>1050.4</ele>
        <time>2021-09-01T10:04:10Z</time>
      </trkpt>
      <trkpt lat="44.90244" lon="5.37572">
        <ele>1050.5</ele>
        <time>2021-09-01T10:04:12Z</time>
      </trkpt>
      <trkpt lat="44.90238" lon="5.3757">
        <ele>1050.6</ele>
        <time>2021-09-01T10:04:14Z</time>
      </trkpt>
      <trkpt lat="44.90235" lon="5.37569">
        <ele>1050.6</ele>
        <time>2021-09-01T10:04:15Z</time>
      </trkpt>
      <trkpt lat="44.9023" lon="5.37567">
        <ele>1050.7</ele>
        <time>2021-09-01T10:04:16Z</time>
      </trkpt>
      <trkpt lat="44.90226" lon="5.37566">
        <ele>1050.7</ele>
        <time>2021-09-01T10:04:18Z</time>
      </trkpt>
      <trkpt lat="44.90223" lon="5.37565">
        <ele>1050.8</ele>
        <time>2021-09-01T10:04:19Z</time>
      </trkpt>
      <trkpt lat="44.9022" lon="5.37563">
        <ele>1050.9</ele>
        <time>2021-09-01T10:04:20Z</time>
      </trkpt>
      <trkpt lat="44.90215" lon="5.37558">
        <ele>1051</ele>
        <time>2021-09-01T10:04:21Z</time>
      </trkpt>
      <trkpt lat="44.90211" lon="5.37555">
        <ele>1051.1</ele>
        <time>2021-09-01T10:04:23Z</time>
      </trkpt>
      <trkpt lat="44.90208" lon="5.37553">
        <ele>1051.1</ele>
        <time>2021-09-01T10:04:24Z</time>
      </trkpt>
      <trkpt lat="44.90205" lon="5.37551">
        <ele>1051.2</ele>
        <time>2021-09-01T10:04:25Z</time>
      </trkpt>
      <trkpt lat="44.90202" lon="5.37546">
        <ele>1051.3</ele>
        <time>2021-09-01T10:04:26Z</time>
      </trkpt>
      <trkpt lat="44.90199" lon="5.37543">
        <ele>1051.4</ele>
        <time>2021-09-01T10:04:27Z</time>
      </trkpt>
      <trkpt lat="44.90195" lon="5.37539">
        <ele>1051.5</ele>
        <time>2021-09-01T10:04:29Z</time>
      </trkpt>
      <trkpt lat="44.90192" lon="5.37537">
        <ele>1051.6</ele>
        <time>2021-09-01T10:04:30Z</time>
      </trkpt>
      <trkpt lat="44.90187" lon="5.37532">
        <ele>1051.7</ele>
        <time>2021-09-01T10:04:31Z</time>
      </trkpt>
      <trkpt lat="44.90183" lon="5.3753">
        <ele>1051.9</ele>
        <time>2021-09-01T10:04:32Z</time>
      </trkpt>
      <trkpt lat="44.9018" lon="5.37526">
        <ele>1052</ele>
        <time>2021-09-01T10:04:34Z</time>
      </trkpt>
      <trkpt lat="44.90175" lon="5.37523">
        <ele>1052.1</ele>
        <time>2021-09-01T10:04:35Z</time>
      </trkpt>
      <trkpt lat="44.9017" lon="5.3752">
        <ele>1052.3</ele>
        <time>2021-09-01T10:04:36Z</time>
      </trkpt>
      <trkpt lat="44.90167" lon="5.37516">
        <ele>1052.4</ele>
        <time>2021-09-01T10:04:38Z</time>
      </trkpt>
      <trkpt lat="44.90165" lon="5.37512">
        <ele>1052.5</ele>
        <time>2021-09-01T10:04:39Z</time>
      </trkpt>
      <trkpt lat="44.90162" lon="5.37509">
        <ele>1052.5</ele>
        <time>2021-09-01T10:04:41Z</time>
      </trkpt>
      <trkpt lat="44.90162" lon="5.37505">
        <ele>1052.5</ele>
        <time>2021-09-01T10:04:42Z</time>
      </trkpt>
      <trkpt lat="44.9016" lon="5.37503">
        <ele>1052.4</ele>
        <time>2021-09-01T10:04:44Z</time>
      </trkpt>
      <trkpt lat="44.90159" lon="5.37502">
        <ele>1052.3</ele>
        <time>2021-09-01T10:04:45Z</time>
      </trkpt>
      <trkpt lat="44.90155" lon="5.375">
        <ele>1052.1</ele>
        <time>2021-09-01T10:04:46Z</time>
      </trkpt>
      <trkpt lat="44.90152" lon="5.375">
        <ele>1051.9</ele>
        <time>2021-09-01T10:04:48Z</time>
      </trkpt>
      <trkpt lat="44.90149" lon="5.375">
        <ele>1051.7</ele>
        <time>2021-09-01T10:04:49Z</time>
      </trkpt>
      <trkpt lat="44.90147" lon="5.37499">
        <ele>1051.6</ele>
        <time>2021-09-01T10:04:51Z</time>
      </trkpt>
      <trkpt lat="44.90144" lon="5.37499">
        <ele>1051.4</ele>
        <time>2021-09-01T10:04:53Z</time>
      </trkpt>
      <trkpt lat="44.90141" lon="5.37499">
        <ele>1051.2</ele>
        <time>2021-09-01T10:04:55Z</time>
      </trkpt>
      <trkpt lat="44.90138" lon="5.37499">
        <ele>1051.1</ele>
        <time>2021-09-01T10:04:57Z</time>
      </trkpt>
      <trkpt lat="44.90135" lon="5.37499">
        <ele>1050.9</ele>
        <time>2021-09-01T10:04:58Z</time>
      </trkpt>
      <trkpt lat="44.90133" lon="5.37498">
        <ele>1050.8</ele>
        <time>2021-09-01T10:04:59Z</time>
      </trkpt>
      <trkpt lat="44.9013" lon="5.37498">
        <ele>1050.6</ele>
        <time>2021-09-01T10:05:01Z</time>
      </trkpt>
      <trkpt lat="44.90127" lon="5.37498">
        <ele>1050.5</ele>
        <time>2021-09-01T10:05:03Z</time>
      </trkpt>
      <trkpt lat="44.90124" lon="5.37498">
        <ele>1050.4</ele>
        <time>2021-09-01T10:05:30Z</time>
      </trkpt>
      <trkpt lat="44.90121" lon="5.37498">
        <ele>1050.3</ele>
        <time>2021-09-01T10:05:31Z</time>
      </trkpt>
      <trkpt lat="44.90107" lon="5.37499">
        <ele>1049.7</ele>
        <time>2021-09-01T10:05:33Z</time>
      </trkpt>
      <trkpt lat="44.90101" lon="5.37499">
        <ele>1049.5</ele>
        <time>2021-09-01T10:05:34Z</time>
      </trkpt>
      <trkpt lat="44.90089" lon="5.37497">
        <ele>1049</ele>
        <time>2021-09-01T10:05:36Z</time>
      </trkpt>
      <trkpt lat="44.90083" lon="5.37496">
        <ele>1048.8</ele>
        <time>2021-09-01T10:05:37Z</time>
      </trkpt>
      <trkpt lat="44.90076" lon="5.37495">
        <ele>1048.6</ele>
        <time>2021-09-01T10:05:38Z</time>
      </trkpt>
      <trkpt lat="44.90073" lon="5.37495">
        <ele>1048.4</ele>
        <time>2021-09-01T10:05:39Z</time>
      </trkpt>
      <trkpt lat="44.90068" lon="5.37494">
        <ele>1048.3</ele>
        <time>2021-09-01T10:05:41Z</time>
      </trkpt>
      <trkpt lat="44.90062" lon="5.37491">
        <ele>1048.1</ele>
        <time>2021-09-01T10:05:42Z</time>
      </trkpt>
      <trkpt lat="44.90059" lon="5.37489">
        <ele>1047.9</ele>
        <time>2021-09-01T10:05:43Z</time>
      </trkpt>
      <trkpt lat="44.90056" lon="5.37487">
        <ele>1047.8</ele>
        <time>2021-09-01T10:05:45Z</time>
      </trkpt>
      <trkpt lat="44.90055" lon="5.37486">
        <ele>1047.8</ele>
        <time>2021-09-01T10:05:46Z</time>
      </trkpt>
      <trkpt lat="44.90053" lon="5.37485">
        <ele>1047.7</ele>
        <time>2021-09-01T10:05:47Z</time>
      </trkpt>
      <trkpt lat="44.90049" lon="5.37483">
        <ele>1047.6</ele>
        <time>2021-09-01T10:05:48Z</time>
      </trkpt>
      <trkpt lat="44.90045" lon="5.37483">
        <ele>1047.5</ele>
        <time>2021-09-01T10:05:50Z</time>
      </trkpt>
      <trkpt lat="44.90041" lon="5.37484">
        <ele>1047.3</ele>
        <time>2021-09-01T10:05:51Z</time>
      </trkpt>
      <trkpt lat="44.90039" lon="5.37484">
        <ele>1047.3</ele>
        <time>2021-09-01T10:05:52Z</time>
      </trkpt>
      <trkpt lat="44.90036" lon="5.37485">
        <ele>1047.2</ele>
        <time>2021-09-01T10:05:53Z</time>
      </trkpt>
      <trkpt lat="44.90029" lon="5.37483">
        <ele>1047</ele>
        <time>2021-09-01T10:05:55Z</time>
      </trkpt>
      <trkpt lat="44.90026" lon="5.37482">
        <ele>1046.9</ele>
        <time>2021-09-01T10:05:56Z</time>
      </trkpt>
      <trkpt lat="44.90022" lon="5.37481">
        <ele>1046.8</ele>
        <time>2021-09-01T10:05:57Z</time>
      </trkpt>
      <trkpt lat="44.90018" lon="5.37477">
        <ele>1046.6</ele>
        <time>2021-09-01T10:05:59Z</time>
      </trkpt>
      <trkpt lat="44.90015" lon="5.37475">
        <ele>1046.5</ele>
        <time>2021-09-01T10:06:00Z</time>
      </trkpt>
      <trkpt lat="44.90009" lon="5.37469">
        <ele>1046.3</ele>
        <time>2021-09-01T10:06:01Z</time>
      </trkpt>
      <trkpt lat="44.90006" lon="5.37465">
        <ele>1046.1</ele>
        <time>2021-09-01T10:06:02Z</time>
      </trkpt>
      <trkpt lat="44.90001" lon="5.37458">
        <ele>1045.9</ele>
        <time>2021-09-01T10:06:04Z</time>
      </trkpt>
      <trkpt lat="44.89993" lon="5.37447">
        <ele>1045.6</ele>
        <time>2021-09-01T10:06:06Z</time>
      </trkpt>
      <trkpt lat="44.89985" lon="5.37436">
        <ele>1045.3</ele>
        <time>2021-09-01T10:06:08Z</time>
      </trkpt>
      <trkpt lat="44.89977" lon="5.37425">
        <ele>1045</ele>
        <time>2021-09-01T10:06:10Z</time>
      </trkpt>
      <trkpt lat="44.89973" lon="5.3742">
        <ele>1044.9</ele>
        <time>2021-09-01T10:06:11Z</time>
      </trkpt>
      <trkpt lat="44.89969" lon="5.37415">
        <ele>1044.7</ele>
        <time>2021-09-01T10:06:12Z</time>
      </trkpt>
      <trkpt lat="44.89961" lon="5.37406">
        <ele>1044.4</ele>
        <time>2021-09-01T10:06:14Z</time>
      </trkpt>
      <trkpt lat="44.89957" lon="5.37402">
        <ele>1044.3</ele>
        <time>2021-09-01T10:06:15Z</time>
      </trkpt>
      <trkpt lat="44.89949" lon="5.37395">
        <ele>1044.1</ele>
        <time>2021-09-01T10:06:17Z</time>
      </trkpt>
      <trkpt lat="44.89942" lon="5.37388">
        <ele>1043.9</ele>
        <time>2021-09-01T10:06:19Z</time>
      </trkpt>
      <trkpt lat="44.89933" lon="5.3738">
        <ele>1043.6</ele>
        <time>2021-09-01T10:06:21Z</time>
      </trkpt>
      <trkpt lat="44.89929" lon="5.37376">
        <ele>1043.5</ele>
        <time>2021-09-01T10:06:22Z</time>
      </trkpt>
      <trkpt lat="44.89925" lon="5.37372">
        <ele>1043.4</ele>
        <time>2021-09-01T10:06:23Z</time>
      </trkpt>
      <trkpt lat="44.89917" lon="5.37363">
        <ele>1043.3</ele>
        <time>2021-09-01T10:06:25Z</time>
      </trkpt>
      <trkpt lat="44.89914" lon="5.37358">
        <ele>1043.3</ele>
        <time>2021-09-01T10:06:26Z</time>
      </trkpt>
      <trkpt lat="44.89906" lon="5.37348">
        <ele>1043.2</ele>
        <time>2021-09-01T10:06:28Z</time>
      </trkpt>
      <trkpt lat="44.89899" lon="5.37337">
        <ele>1043</ele>
        <time>2021-09-01T10:06:30Z</time>
      </trkpt>
      <trkpt lat="44.89894" lon="5.37327">
        <ele>1042.9</ele>
        <time>2021-09-01T10:06:32Z</time>
      </trkpt>
      <trkpt lat="44.89891" lon="5.37321">
        <ele>1042.8</ele>
        <time>2021-09-01T10:06:33Z</time>
      </trkpt>
      <trkpt lat="44.89886" lon="5.37311">
        <ele>1042.6</ele>
        <time>2021-09-01T10:06:35Z</time>
      </trkpt>
      <trkpt lat="44.8988" lon="5.373">
        <ele>1042.5</ele>
        <time>2021-09-01T10:06:37Z</time>
      </trkpt>
      <trkpt lat="44.89876" lon="5.3729">
        <ele>1042.4</ele>
        <time>2021-09-01T10:06:39Z</time>
      </trkpt>
      <trkpt lat="44.89872" lon="5.37278">
        <ele>1042.3</ele>
        <time>2021-09-01T10:06:41Z</time>
      </trkpt>
      <trkpt lat="44.8987" lon="5.37269">
        <ele>1042.2</ele>
        <time>2021-09-01T10:06:43Z</time>
      </trkpt>
      <trkpt lat="44.89867" lon="5.37267">
        <ele>1042.2</ele>
        <time>2021-09-01T10:06:44Z</time>
      </trkpt>
      <trkpt lat="44.89865" lon="5.37267">
        <ele>1042.1</ele>
        <time>2021-09-01T10:06:45Z</time>
      </trkpt>
      <trkpt lat="44.89863" lon="5.3725">
        <ele>1042</ele>
        <time>2021-09-01T10:06:47Z</time>
      </trkpt>
      <trkpt lat="44.8986" lon="5.37236">
        <ele>1041.8</ele>
        <time>2021-09-01T10:06:49Z</time>
      </trkpt>
      <trkpt lat="44.89858" lon="5.3723">
        <ele>1041.7</ele>
        <time>2021-09-01T10:06:50Z</time>
      </trkpt>
      <trkpt lat="44.89856" lon="5.37222">
        <ele>1041.6</ele>
        <time>2021-09-01T10:06:51Z</time>
      </trkpt>
      <trkpt lat="44.89856" lon="5.37213">
        <ele>1041.5</ele>
        <time>2021-09-01T10:06:53Z</time>
      </trkpt>
      <trkpt lat="44.89847" lon="5.37202">
        <ele>1041.4</ele>
        <time>2021-09-01T10:06:55Z</time>
      </trkpt>
      <trkpt lat="44.89844" lon="5.37197">
        <ele>1041.4</ele>
        <time>2021-09-01T10:06:56Z</time>
      </trkpt>
      <trkpt lat="44.8984" lon="5.37196">
        <ele>1041.3</ele>
        <time>2021-09-01T10:06:57Z</time>
      </trkpt>
      <trkpt lat="44.89838" lon="5.37191">
        <ele>1041.3</ele>
        <time>2021-09-01T10:06:58Z</time>
      </trkpt>
      <trkpt lat="44.89834" lon="5.37182">
        <ele>1041.2</ele>
        <time>2021-09-01T10:07:00Z</time>
      </trkpt>
      <trkpt lat="44.8983" lon="5.37176">
        <ele>1041.2</ele>
        <time>2021-09-01T10:07:01Z</time>
      </trkpt>
      <trkpt lat="44.89827" lon="5.37169">
        <ele>1041.1</ele>
        <time>2021-09-01T10:07:02Z</time>
      </trkpt>
      <trkpt lat="44.89825" lon="5.37163">
        <ele>1041.1</ele>
        <time>2021-09-01T10:07:03Z</time>
      </trkpt>
      <trkpt lat="44.89823" lon="5.37157">
        <ele>1041</ele>
        <time>2021-09-01T10:07:04Z</time>
      </trkpt>
      <trkpt lat="44.89821" lon="5.37151">
        <ele>1040.9</ele>
        <time>2021-09-01T10:07:05Z</time>
      </trkpt>
      <trkpt lat="44.89818" lon="5.37146">
        <ele>1040.8</ele>
        <time>2021-09-01T10:07:06Z</time>
      </trkpt>
      <trkpt lat="44.89816" lon="5.3714">
        <ele>1040.7</ele>
        <time>2021-09-01T10:07:08Z</time>
      </trkpt>
      <trkpt lat="44.89812" lon="5.37133">
        <ele>1040.6</ele>
        <time>2021-09-01T10:07:09Z</time>
      </trkpt>
      <trkpt lat="44.89808" lon="5.37125">
        <ele>1040.4</ele>
        <time>2021-09-01T10:07:11Z</time>
      </trkpt>
      <trkpt lat="44.89806" lon="5.37119">
        <ele>1040.3</ele>
        <time>2021-09-01T10:07:12Z</time>
      </trkpt>
      <trkpt lat="44.89802" lon="5.37107">
        <ele>1040.2</ele>
        <time>2021-09-01T10:07:14Z</time>
      </trkpt>
      <trkpt lat="44.89799" lon="5.37101">
        <ele>1040.1</ele>
        <time>2021-09-01T10:07:15Z</time>
      </trkpt>
      <trkpt lat="44.89794" lon="5.37089">
        <ele>1040</ele>
        <time>2021-09-01T10:07:17Z</time>
      </trkpt>
      <trkpt lat="44.89791" lon="5.37084">
        <ele>1039.9</ele>
        <time>2021-09-01T10:07:18Z</time>
      </trkpt>
      <trkpt lat="44.89786" lon="5.37074">
        <ele>1039.8</ele>
        <time>2021-09-01T10:07:20Z</time>
      </trkpt>
      <trkpt lat="44.89783" lon="5.37069">
        <ele>1039.8</ele>
        <time>2021-09-01T10:07:21Z</time>
      </trkpt>
      <trkpt lat="44.89775" lon="5.37059">
        <ele>1039.7</ele>
        <time>2021-09-01T10:07:23Z</time>
      </trkpt>
      <trkpt lat="44.89771" lon="5.37055">
        <ele>1039.6</ele>
        <time>2021-09-01T10:07:24Z</time>
      </trkpt>
      <trkpt lat="44.89767" lon="5.37051">
        <ele>1039.6</ele>
        <time>2021-09-01T10:07:25Z</time>
      </trkpt>
      <trkpt lat="44.89764" lon="5.37047">
        <ele>1039.6</ele>
        <time>2021-09-01T10:07:26Z</time>
      </trkpt>
      <trkpt lat="44.89759" lon="5.37041">
        <ele>1039.7</ele>
        <time>2021-09-01T10:07:27Z</time>
      </trkpt>
      <trkpt lat="44.89755" lon="5.37036">
        <ele>1039.7</ele>
        <time>2021-09-01T10:07:29Z</time>
      </trkpt>
      <trkpt lat="44.89753" lon="5.37032">
        <ele>1039.7</ele>
        <time>2021-09-01T10:07:30Z</time>
      </trkpt>
      <trkpt lat="44.89747" lon="5.37024">
        <ele>1039.9</ele>
        <time>2021-09-01T10:07:32Z</time>
      </trkpt>
      <trkpt lat="44.89742" lon="5.37019">
        <ele>1040</ele>
        <time>2021-09-01T10:07:33Z</time>
      </trkpt>
      <trkpt lat="44.89739" lon="5.3701">
        <ele>1040.2</ele>
        <time>2021-09-01T10:07:35Z</time>
      </trkpt>
      <trkpt lat="44.89737" lon="5.37002">
        <ele>1040.4</ele>
        <time>2021-09-01T10:07:37Z</time>
      </trkpt>
      <trkpt lat="44.89735" lon="5.36995">
        <ele>1040.6</ele>
        <time>2021-09-01T10:07:38Z</time>
      </trkpt>
      <trkpt lat="44.89734" lon="5.36989">
        <ele>1040.8</ele>
        <time>2021-09-01T10:07:40Z</time>
      </trkpt>
      <trkpt lat="44.89732" lon="5.36982">
        <ele>1041</ele>
        <time>2021-09-01T10:07:41Z</time>
      </trkpt>
      <trkpt lat="44.89731" lon="5.36979">
        <ele>1041.1</ele>
        <time>2021-09-01T10:07:42Z</time>
      </trkpt>
      <trkpt lat="44.8973" lon="5.3697">
        <ele>1041.4</ele>
        <time>2021-09-01T10:07:45Z</time>
      </trkpt>
      <trkpt lat="44.89729" lon="5.36963">
        <ele>1041.6</ele>
        <time>2021-09-01T10:07:47Z</time>
      </trkpt>
      <trkpt lat="44.89726" lon="5.36958">
        <ele>1041.7</ele>
        <time>2021-09-01T10:07:48Z</time>
      </trkpt>
      <trkpt lat="44.89725" lon="5.36957">
        <ele>1041.8</ele>
        <time>2021-09-01T10:07:49Z</time>
      </trkpt>
      <trkpt lat="44.89723" lon="5.36954">
        <ele>1041.9</ele>
        <time>2021-09-01T10:07:50Z</time>
      </trkpt>
      <trkpt lat="44.89719" lon="5.3695">
        <ele>1042</ele>
        <time>2021-09-01T10:07:52Z</time>
      </trkpt>
      <trkpt lat="44.89718" lon="5.36948">
        <ele>1042</ele>
        <time>2021-09-01T10:07:53Z</time>
      </trkpt>
      <trkpt lat="44.89716" lon="5.36947">
        <ele>1042.1</ele>
        <time>2021-09-01T10:07:54Z</time>
      </trkpt>
      <trkpt lat="44.89714" lon="5.36945">
        <ele>1042.1</ele>
        <time>2021-09-01T10:07:55Z</time>
      </trkpt>
      <trkpt lat="44.8971" lon="5.36943">
        <ele>1042.2</ele>
        <time>2021-09-01T10:07:56Z</time>
      </trkpt>
      <trkpt lat="44.89708" lon="5.36941">
        <ele>1042.3</ele>
        <time>2021-09-01T10:07:57Z</time>
      </trkpt>
      <trkpt lat="44.89704" lon="5.36938">
        <ele>1042.4</ele>
        <time>2021-09-01T10:07:59Z</time>
      </trkpt>
      <trkpt lat="44.89701" lon="5.36937">
        <ele>1042.5</ele>
        <time>2021-09-01T10:08:00Z</time>
      </trkpt>
      <trkpt lat="44.89696" lon="5.36935">
        <ele>1042.6</ele>
        <time>2021-09-01T10:08:01Z</time>
      </trkpt>
      <trkpt lat="44.89693" lon="5.36933">
        <ele>1042.7</ele>
        <time>2021-09-01T10:08:02Z</time>
      </trkpt>
      <trkpt lat="44.8969" lon="5.36931">
        <ele>1042.8</ele>
        <time>2021-09-01T10:08:04Z</time>
      </trkpt>
      <trkpt lat="44.89686" lon="5.3693">
        <ele>1043</ele>
        <time>2021-09-01T10:08:06Z</time>
      </trkpt>
      <trkpt lat="44.89683" lon="5.3693">
        <ele>1043.1</ele>
        <time>2021-09-01T10:08:07Z</time>
      </trkpt>
      <trkpt lat="44.89679" lon="5.36931">
        <ele>1043.1</ele>
        <time>2021-09-01T10:08:08Z</time>
      </trkpt>
      <trkpt lat="44.89678" lon="5.36931">
        <ele>1043.2</ele>
        <time>2021-09-01T10:08:09Z</time>
      </trkpt>
      <trkpt lat="44.89675" lon="5.36932">
        <ele>1043.2</ele>
        <time>2021-09-01T10:08:10Z</time>
      </trkpt>
      <trkpt lat="44.8967" lon="5.36933">
        <ele>1043.2</ele>
        <time>2021-09-01T10:08:12Z</time>
      </trkpt>
      <trkpt lat="44.89666" lon="5.36934">
        <ele>1043.1</ele>
        <time>2021-09-01T10:08:13Z</time>
      </trkpt>
      <trkpt lat="44.89662" lon="5.36934">
        <ele>1043.2</ele>
        <time>2021-09-01T10:08:15Z</time>
      </trkpt>
      <trkpt lat="44.89659" lon="5.36934">
        <ele>1043.4</ele>
        <time>2021-09-01T10:08:17Z</time>
      </trkpt>
      <trkpt lat="44.89656" lon="5.36934">
        <ele>1043.5</ele>
        <time>2021-09-01T10:08:18Z</time>
      </trkpt>
      <trkpt lat="44.89653" lon="5.36933">
        <ele>1043.6</ele>
        <time>2021-09-01T10:08:20Z</time>
      </trkpt>
      <trkpt lat="44.89651" lon="5.36932">
        <ele>1043.7</ele>
        <time>2021-09-01T10:08:21Z</time>
      </trkpt>
      <trkpt lat="44.89647" lon="5.36932">
        <ele>1043.9</ele>
        <time>2021-09-01T10:08:23Z</time>
      </trkpt>
      <trkpt lat="44.89642" lon="5.36933">
        <ele>1044.1</ele>
        <time>2021-09-01T10:08:24Z</time>
      </trkpt>
      <trkpt lat="44.89638" lon="5.36936">
        <ele>1044.4</ele>
        <time>2021-09-01T10:08:26Z</time>
      </trkpt>
      <trkpt lat="44.89635" lon="5.36939">
        <ele>1044.5</ele>
        <time>2021-09-01T10:08:28Z</time>
      </trkpt>
      <trkpt lat="44.89634" lon="5.36942">
        <ele>1044.6</ele>
        <time>2021-09-01T10:08:29Z</time>
      </trkpt>
      <trkpt lat="44.8963" lon="5.36946">
        <ele>1044.9</ele>
        <time>2021-09-01T10:08:30Z</time>
      </trkpt>
      <trkpt lat="44.89627" lon="5.36952">
        <ele>1045.2</ele>
        <time>2021-09-01T10:08:32Z</time>
      </trkpt>
      <trkpt lat="44.89625" lon="5.36956">
        <ele>1045.4</ele>
        <time>2021-09-01T10:08:33Z</time>
      </trkpt>
      <trkpt lat="44.89624" lon="5.3696">
        <ele>1045.6</ele>
        <time>2021-09-01T10:08:35Z</time>
      </trkpt>
      <trkpt lat="44.89622" lon="5.36965">
        <ele>1045.8</ele>
        <time>2021-09-01T10:08:36Z</time>
      </trkpt>
      <trkpt lat="44.89621" lon="5.36969">
        <ele>1046</ele>
        <time>2021-09-01T10:08:38Z</time>
      </trkpt>
      <trkpt lat="44.89619" lon="5.36972">
        <ele>1046.2</ele>
        <time>2021-09-01T10:08:39Z</time>
      </trkpt>
      <trkpt lat="44.89617" lon="5.36976">
        <ele>1046.3</ele>
        <time>2021-09-01T10:08:41Z</time>
      </trkpt>
      <trkpt lat="44.89616" lon="5.36981">
        <ele>1046.6</ele>
        <time>2021-09-01T10:08:42Z</time>
      </trkpt>
      <trkpt lat="44.89615" lon="5.36988">
        <ele>1046.9</ele>
        <time>2021-09-01T10:08:44Z</time>
      </trkpt>
      <trkpt lat="44.89614" lon="5.36992">
        <ele>1047.1</ele>
        <time>2021-09-01T10:08:46Z</time>
      </trkpt>
      <trkpt lat="44.89613" lon="5.36998">
        <ele>1047.3</ele>
        <time>2021-09-01T10:08:47Z</time>
      </trkpt>
      <trkpt lat="44.89612" lon="5.37004">
        <ele>1047.6</ele>
        <time>2021-09-01T10:08:49Z</time>
      </trkpt>
      <trkpt lat="44.89612" lon="5.37009">
        <ele>1047.8</ele>
        <time>2021-09-01T10:08:51Z</time>
      </trkpt>
      <trkpt lat="44.89611" lon="5.37016">
        <ele>1048.1</ele>
        <time>2021-09-01T10:08:52Z</time>
      </trkpt>
      <trkpt lat="44.89611" lon="5.37022">
        <ele>1048.4</ele>
        <time>2021-09-01T10:08:54Z</time>
      </trkpt>
      <trkpt lat="44.8961" lon="5.37024">
        <ele>1048.5</ele>
        <time>2021-09-01T10:08:55Z</time>
      </trkpt>
      <trkpt lat="44.8961" lon="5.37026">
        <ele>1048.6</ele>
        <time>2021-09-01T10:08:56Z</time>
      </trkpt>
      <trkpt lat="44.8961" lon="5.37029">
        <ele>1048.7</ele>
        <time>2021-09-01T10:08:57Z</time>
      </trkpt>
      <trkpt lat="44.89609" lon="5.37034">
        <ele>1048.9</ele>
        <time>2021-09-01T10:08:59Z</time>
      </trkpt>
      <trkpt lat="44.89608" lon="5.37039">
        <ele>1049.1</ele>
        <time>2021-09-01T10:09:00Z</time>
      </trkpt>
      <trkpt lat="44.89609" lon="5.37043">
        <ele>1049.3</ele>
        <time>2021-09-01T10:09:02Z</time>
      </trkpt>
      <trkpt lat="44.89609" lon="5.37049">
        <ele>1049.6</ele>
        <time>2021-09-01T10:09:03Z</time>
      </trkpt>
      <trkpt lat="44.89607" lon="5.37051">
        <ele>1049.7</ele>
        <time>2021-09-01T10:09:05Z</time>
      </trkpt>
      <trkpt lat="44.89606" lon="5.37052">
        <ele>1049.8</ele>
        <time>2021-09-01T10:09:07Z</time>
      </trkpt>
      <trkpt lat="44.89605" lon="5.37055">
        <ele>1050</ele>
        <time>2021-09-01T10:09:08Z</time>
      </trkpt>
      <trkpt lat="44.89604" lon="5.3706">
        <ele>1050.2</ele>
        <time>2021-09-01T10:09:10Z</time>
      </trkpt>
      <trkpt lat="44.89604" lon="5.37063">
        <ele>1050.4</ele>
        <time>2021-09-01T10:09:11Z</time>
      </trkpt>
      <trkpt lat="44.89604" lon="5.37065">
        <ele>1050.4</ele>
        <time>2021-09-01T10:09:12Z</time>
      </trkpt>
      <trkpt lat="44.89605" lon="5.37066">
        <ele>1050.5</ele>
        <time>2021-09-01T10:09:13Z</time>
      </trkpt>
      <trkpt lat="44.89605" lon="5.37067">
        <ele>1050.5</ele>
        <time>2021-09-01T10:09:14Z</time>
      </trkpt>
      <trkpt lat="44.89605" lon="5.37065">
        <ele>1050.6</ele>
        <time>2021-09-01T10:09:15Z</time>
      </trkpt>
      <trkpt lat="44.89605" lon="5.37065">
        <ele>1050.7</ele>
        <time>2021-09-01T10:09:16Z</time>
      </trkpt>
      <trkpt lat="44.89605" lon="5.37065">
        <ele>1050.7</ele>
        <time>2021-09-01T10:09:18Z</time>
      </trkpt>
      <trkpt lat="44.89605" lon="5.37065">
        <ele>1050.7</ele>
        <time>2021-09-01T10:09:20Z</time>
      </trkpt>
      <trkpt lat="44.89606" lon="5.37065">
        <ele>1050.7</ele>
        <time>2021-09-01T10:09:21Z</time>
      </trkpt>
      <trkpt lat="44.89606" lon="5.37065">
        <ele>1050.7</ele>
        <time>2021-09-01T10:09:23Z</time>
      </trkpt>
      <trkpt lat="44.89624" lon="5.3707">
        <ele>1051.8</ele>
        <time>2021-09-01T10:10:37Z</time>
      </trkpt>
      <trkpt lat="44.89615" lon="5.37072">
        <ele>1052.4</ele>
        <time>2021-09-01T10:10:39Z</time>
      </trkpt>
      <trkpt lat="44.89608" lon="5.37075">
        <ele>1052.7</ele>
        <time>2021-09-01T10:10:41Z</time>
      </trkpt>
      <trkpt lat="44.896" lon="5.37079">
        <ele>1053.1</ele>
        <time>2021-09-01T10:10:42Z</time>
      </trkpt>
      <trkpt lat="44.89595" lon="5.37081">
        <ele>1053.3</ele>
        <time>2021-09-01T10:10:44Z</time>
      </trkpt>
      <trkpt lat="44.8959" lon="5.37083">
        <ele>1053.5</ele>
        <time>2021-09-01T10:10:45Z</time>
      </trkpt>
      <trkpt lat="44.89586" lon="5.37084">
        <ele>1053.6</ele>
        <time>2021-09-01T10:10:47Z</time>
      </trkpt>
      <trkpt lat="44.89582" lon="5.37086">
        <ele>1053.7</ele>
        <time>2021-09-01T10:10:48Z</time>
      </trkpt>
      <trkpt lat="44.8958" lon="5.37087">
        <ele>1053.8</ele>
        <time>2021-09-01T10:10:49Z</time>
      </trkpt>
      <trkpt lat="44.89575" lon="5.37089">
        <ele>1054</ele>
        <time>2021-09-01T10:10:50Z</time>
      </trkpt>
      <trkpt lat="44.8957" lon="5.37089">
        <ele>1054.2</ele>
        <time>2021-09-01T10:10:52Z</time>
      </trkpt>
      <trkpt lat="44.89567" lon="5.37088">
        <ele>1054.4</ele>
        <time>2021-09-01T10:10:55Z</time>
      </trkpt>
      <trkpt lat="44.89565" lon="5.37087">
        <ele>1054.4</ele>
        <time>2021-09-01T10:10:56Z</time>
      </trkpt>
      <trkpt lat="44.89564" lon="5.37083">
        <ele>1054.5</ele>
        <time>2021-09-01T10:10:58Z</time>
      </trkpt>
      <trkpt lat="44.89561" lon="5.37079">
        <ele>1054.7</ele>
        <time>2021-09-01T10:10:59Z</time>
      </trkpt>
      <trkpt lat="44.89558" lon="5.37076">
        <ele>1054.8</ele>
        <time>2021-09-01T10:11:01Z</time>
      </trkpt>
      <trkpt lat="44.89557" lon="5.37072">
        <ele>1054.9</ele>
        <time>2021-09-01T10:11:02Z</time>
      </trkpt>
      <trkpt lat="44.89555" lon="5.37066">
        <ele>1055.4</ele>
        <time>2021-09-01T10:11:03Z</time>
      </trkpt>
      <trkpt lat="44.89553" lon="5.3706">
        <ele>1055.5</ele>
        <time>2021-09-01T10:11:05Z</time>
      </trkpt>
      <trkpt lat="44.89551" lon="5.37056">
        <ele>1055.5</ele>
        <time>2021-09-01T10:11:06Z</time>
      </trkpt>
      <trkpt lat="44.89549" lon="5.37048">
        <ele>1055.6</ele>
        <time>2021-09-01T10:11:07Z</time>
      </trkpt>
      <trkpt lat="44.89548" lon="5.37043">
        <ele>1055.6</ele>
        <time>2021-09-01T10:11:09Z</time>
      </trkpt>
      <trkpt lat="44.89546" lon="5.37034">
        <ele>1055.7</ele>
        <time>2021-09-01T10:11:10Z</time>
      </trkpt>
      <trkpt lat="44.89544" lon="5.37026">
        <ele>1055.7</ele>
        <time>2021-09-01T10:11:12Z</time>
      </trkpt>
      <trkpt lat="44.89544" lon="5.37022">
        <ele>1055.7</ele>
        <time>2021-09-01T10:11:13Z</time>
      </trkpt>
      <trkpt lat="44.89543" lon="5.37017">
        <ele>1055.7</ele>
        <time>2021-09-01T10:11:15Z</time>
      </trkpt>
      <trkpt lat="44.89544" lon="5.37011">
        <ele>1055.8</ele>
        <time>2021-09-01T10:11:16Z</time>
      </trkpt>
      <trkpt lat="44.89545" lon="5.37005">
        <ele>1055.8</ele>
        <time>2021-09-01T10:11:18Z</time>
      </trkpt>
      <trkpt lat="44.89546" lon="5.36999">
        <ele>1055.8</ele>
        <time>2021-09-01T10:11:20Z</time>
      </trkpt>
      <trkpt lat="44.89547" lon="5.36997">
        <ele>1055.9</ele>
        <time>2021-09-01T10:11:21Z</time>
      </trkpt>
      <trkpt lat="44.89547" lon="5.36992">
        <ele>1055.9</ele>
        <time>2021-09-01T10:11:23Z</time>
      </trkpt>
      <trkpt lat="44.89547" lon="5.36992">
        <ele>1055.9</ele>
        <time>2021-09-01T10:11:25Z</time>
      </trkpt>
      <trkpt lat="44.89549" lon="5.36992">
        <ele>1055.9</ele>
        <time>2021-09-01T10:11:26Z</time>
      </trkpt>
      <trkpt lat="44.89549" lon="5.36992">
        <ele>1055.9</ele>
        <time>2021-09-01T10:11:27Z</time>
      </trkpt>
      <trkpt lat="44.89549" lon="5.36992">
        <ele>1055.9</ele>
        <time>2021-09-01T10:11:28Z</time>
      </trkpt>
      <trkpt lat="44.89549" lon="5.36992">
        <ele>1055.9</ele>
        <time>2021-09-01T10:11:30Z</time>
      </trkpt>
      <trkpt lat="44.89548" lon="5.36992">
        <ele>1055.9</ele>
        <time>2021-09-01T10:11:31Z</time>
      </trkpt>
      <trkpt lat="44.89547" lon="5.36993">
        <ele>1056</ele>
        <time>2021-09-01T10:11:32Z</time>
      </trkpt>
      <trkpt lat="44.89546" lon="5.36994">
        <ele>1056</ele>
        <time>2021-09-01T10:11:33Z</time>
      </trkpt>
      <trkpt lat="44.89535" lon="5.36992">
        <ele>1056.1</ele>
        <time>2021-09-01T10:13:07Z</time>
      </trkpt>
      <trkpt lat="44.89536" lon="5.36991">
        <ele>1056.1</ele>
        <time>2021-09-01T10:13:13Z</time>
      </trkpt>
      <trkpt lat="44.89536" lon="5.3699">
        <ele>1056.1</ele>
        <time>2021-09-01T10:13:20Z</time>
      </trkpt>
      <trkpt lat="44.89537" lon="5.36991">
        <ele>1056.1</ele>
        <time>2021-09-01T10:13:26Z</time>
      </trkpt>
      <trkpt lat="44.89536" lon="5.36996">
        <ele>1056.2</ele>
        <time>2021-09-01T10:13:38Z</time>
      </trkpt>
      <trkpt lat="44.89535" lon="5.36997">
        <ele>1056.2</ele>
        <time>2021-09-01T10:13:45Z</time>
      </trkpt>
      <trkpt lat="44.89535" lon="5.36997">
        <ele>1056.2</ele>
        <time>2021-09-01T10:13:51Z</time>
      </trkpt>
      <trkpt lat="44.89536" lon="5.36996">
        <ele>1056.2</ele>
        <time>2021-09-01T10:13:57Z</time>
      </trkpt>
      <trkpt lat="44.89535" lon="5.36996">
        <ele>1056.2</ele>
        <time>2021-09-01T10:14:04Z</time>
      </trkpt>
      <trkpt lat="44.89535" lon="5.36996">
        <ele>1056.2</ele>
        <time>2021-09-01T10:14:10Z</time>
      </trkpt>
      <trkpt lat="44.89535" lon="5.36996">
        <ele>1056.2</ele>
        <time>2021-09-01T10:14:16Z</time>
      </trkpt>
      <trkpt lat="44.89536" lon="5.36995">
        <ele>1056.2</ele>
        <time>2021-09-01T10:14:23Z</time>
      </trkpt>
      <trkpt lat="44.89536" lon="5.36995">
        <ele>1056.3</ele>
        <time>2021-09-01T10:14:29Z</time>
      </trkpt>
      <trkpt lat="44.89538" lon="5.36995">
        <ele>1056.3</ele>
        <time>2021-09-01T10:14:30Z</time>
      </trkpt>
      <trkpt lat="44.89538" lon="5.36995">
        <ele>1056.3</ele>
        <time>2021-09-01T10:14:31Z</time>
      </trkpt>
      <trkpt lat="44.89539" lon="5.36995">
        <ele>1056.3</ele>
        <time>2021-09-01T10:14:33Z</time>
      </trkpt>
      <trkpt lat="44.89539" lon="5.36996">
        <ele>1056.3</ele>
        <time>2021-09-01T10:14:34Z</time>
      </trkpt>
      <trkpt lat="44.8954" lon="5.36996">
        <ele>1056.3</ele>
        <time>2021-09-01T10:14:35Z</time>
      </trkpt>
      <trkpt lat="44.89539" lon="5.36999">
        <ele>1056.3</ele>
        <time>2021-09-01T10:14:37Z</time>
      </trkpt>
      <trkpt lat="44.89538" lon="5.37">
        <ele>1056.4</ele>
        <time>2021-09-01T10:14:38Z</time>
      </trkpt>
      <trkpt lat="44.89537" lon="5.36999">
        <ele>1056.4</ele>
        <time>2021-09-01T10:14:40Z</time>
      </trkpt>
      <trkpt lat="44.89536" lon="5.36996">
        <ele>1056.4</ele>
        <time>2021-09-01T10:14:41Z</time>
      </trkpt>
      <trkpt lat="44.89538" lon="5.36991">
        <ele>1056.5</ele>
        <time>2021-09-01T10:14:43Z</time>
      </trkpt>
      <trkpt lat="44.89539" lon="5.36988">
        <ele>1056.5</ele>
        <time>2021-09-01T10:14:44Z</time>
      </trkpt>
      <trkpt lat="44.89541" lon="5.36985">
        <ele>1056.5</ele>
        <time>2021-09-01T10:14:46Z</time>
      </trkpt>
      <trkpt lat="44.89542" lon="5.36982">
        <ele>1056.6</ele>
        <time>2021-09-01T10:14:54Z</time>
      </trkpt>
      <trkpt lat="44.89544" lon="5.36979">
        <ele>1056.6</ele>
        <time>2021-09-01T10:14:56Z</time>
      </trkpt>
      <trkpt lat="44.89545" lon="5.36976">
        <ele>1056.6</ele>
        <time>2021-09-01T10:14:57Z</time>
      </trkpt>
      <trkpt lat="44.89546" lon="5.36972">
        <ele>1056.7</ele>
        <time>2021-09-01T10:14:58Z</time>
      </trkpt>
      <trkpt lat="44.89546" lon="5.36971">
        <ele>1056.7</ele>
        <time>2021-09-01T10:14:59Z</time>
      </trkpt>
      <trkpt lat="44.89546" lon="5.36967">
        <ele>1056.8</ele>
        <time>2021-09-01T10:15:01Z</time>
      </trkpt>
      <trkpt lat="44.89546" lon="5.36965">
        <ele>1056.9</ele>
        <time>2021-09-01T10:15:02Z</time>
      </trkpt>
      <trkpt lat="44.89546" lon="5.36963">
        <ele>1056.9</ele>
        <time>2021-09-01T10:15:03Z</time>
      </trkpt>
      <trkpt lat="44.89545" lon="5.36959">
        <ele>1057</ele>
        <time>2021-09-01T10:15:05Z</time>
      </trkpt>
      <trkpt lat="44.89543" lon="5.36954">
        <ele>1057.1</ele>
        <time>2021-09-01T10:15:06Z</time>
      </trkpt>
      <trkpt lat="44.89543" lon="5.36953">
        <ele>1057.2</ele>
        <time>2021-09-01T10:15:07Z</time>
      </trkpt>
      <trkpt lat="44.89542" lon="5.36948">
        <ele>1057.3</ele>
        <time>2021-09-01T10:15:09Z</time>
      </trkpt>
      <trkpt lat="44.89542" lon="5.36947">
        <ele>1057.3</ele>
        <time>2021-09-01T10:15:10Z</time>
      </trkpt>
      <trkpt lat="44.89542" lon="5.36943">
        <ele>1057.5</ele>
        <time>2021-09-01T10:15:11Z</time>
      </trkpt>
      <trkpt lat="44.89541" lon="5.36941">
        <ele>1057.5</ele>
        <time>2021-09-01T10:15:12Z</time>
      </trkpt>
      <trkpt lat="44.89541" lon="5.36939">
        <ele>1057.6</ele>
        <time>2021-09-01T10:15:13Z</time>
      </trkpt>
      <trkpt lat="44.89541" lon="5.36937">
        <ele>1057.6</ele>
        <time>2021-09-01T10:15:15Z</time>
      </trkpt>
      <trkpt lat="44.89541" lon="5.36936">
        <ele>1057.7</ele>
        <time>2021-09-01T10:15:16Z</time>
      </trkpt>
      <trkpt lat="44.89541" lon="5.36933">
        <ele>1057.8</ele>
        <time>2021-09-01T10:15:17Z</time>
      </trkpt>
      <trkpt lat="44.89542" lon="5.36929">
        <ele>1057.9</ele>
        <time>2021-09-01T10:15:18Z</time>
      </trkpt>
      <trkpt lat="44.89542" lon="5.36927">
        <ele>1058</ele>
        <time>2021-09-01T10:15:20Z</time>
      </trkpt>
      <trkpt lat="44.89542" lon="5.36925">
        <ele>1058</ele>
        <time>2021-09-01T10:15:21Z</time>
      </trkpt>
      <trkpt lat="44.89543" lon="5.36923">
        <ele>1058.1</ele>
        <time>2021-09-01T10:15:22Z</time>
      </trkpt>
      <trkpt lat="44.89543" lon="5.36921">
        <ele>1058.2</ele>
        <time>2021-09-01T10:15:24Z</time>
      </trkpt>
      <trkpt lat="44.89544" lon="5.36919">
        <ele>1058.2</ele>
        <time>2021-09-01T10:15:25Z</time>
      </trkpt>
      <trkpt lat="44.89545" lon="5.36917">
        <ele>1058.3</ele>
        <time>2021-09-01T10:15:26Z</time>
      </trkpt>
      <trkpt lat="44.89544" lon="5.36915">
        <ele>1058.3</ele>
        <time>2021-09-01T10:15:27Z</time>
      </trkpt>
      <trkpt lat="44.89544" lon="5.36914">
        <ele>1058.4</ele>
        <time>2021-09-01T10:15:29Z</time>
      </trkpt>
      <trkpt lat="44.89544" lon="5.36913">
        <ele>1058.4</ele>
        <time>2021-09-01T10:15:30Z</time>
      </trkpt>
      <trkpt lat="44.89544" lon="5.36911">
        <ele>1058.5</ele>
        <time>2021-09-01T10:15:32Z</time>
      </trkpt>
      <trkpt lat="44.89544" lon="5.3691">
        <ele>1058.5</ele>
        <time>2021-09-01T10:15:33Z</time>
      </trkpt>
      <trkpt lat="44.89543" lon="5.3691">
        <ele>1058.5</ele>
        <time>2021-09-01T10:15:34Z</time>
      </trkpt>
      <trkpt lat="44.89543" lon="5.36908">
        <ele>1058.6</ele>
        <time>2021-09-01T10:15:35Z</time>
      </trkpt>
      <trkpt lat="44.89543" lon="5.36907">
        <ele>1058.6</ele>
        <time>2021-09-01T10:15:36Z</time>
      </trkpt>
      <trkpt lat="44.89543" lon="5.36906">
        <ele>1058.6</ele>
        <time>2021-09-01T10:15:38Z</time>
      </trkpt>
      <trkpt lat="44.89543" lon="5.36906">
        <ele>1058.6</ele>
        <time>2021-09-01T10:15:39Z</time>
      </trkpt>
      <trkpt lat="44.89543" lon="5.36905">
        <ele>1058.6</ele>
        <time>2021-09-01T10:15:40Z</time>
      </trkpt>
      <trkpt lat="44.89543" lon="5.36904">
        <ele>1058.7</ele>
        <time>2021-09-01T10:15:41Z</time>
      </trkpt>
      <trkpt lat="44.89542" lon="5.36901">
        <ele>1058</ele>
        <time>2021-09-01T10:15:42Z</time>
      </trkpt>
      <trkpt lat="44.89542" lon="5.36899">
        <ele>1058</ele>
        <time>2021-09-01T10:15:44Z</time>
      </trkpt>
      <trkpt lat="44.89542" lon="5.36898">
        <ele>1057.9</ele>
        <time>2021-09-01T10:15:45Z</time>
      </trkpt>
      <trkpt lat="44.89542" lon="5.36896">
        <ele>1057.9</ele>
        <time>2021-09-01T10:15:46Z</time>
      </trkpt>
      <trkpt lat="44.89542" lon="5.36895">
        <ele>1057.9</ele>
        <time>2021-09-01T10:15:48Z</time>
      </trkpt>
      <trkpt lat="44.89543" lon="5.36893">
        <ele>1057.8</ele>
        <time>2021-09-01T10:15:49Z</time>
      </trkpt>
      <trkpt lat="44.89543" lon="5.36892">
        <ele>1057.8</ele>
        <time>2021-09-01T10:15:50Z</time>
      </trkpt>
      <trkpt lat="44.89554" lon="5.36882">
        <ele>1057.5</ele>
        <time>2021-09-01T10:15:59Z</time>
      </trkpt>
      <trkpt lat="44.89556" lon="5.36882">
        <ele>1057.4</ele>
        <time>2021-09-01T10:16:00Z</time>
      </trkpt>
      <trkpt lat="44.89558" lon="5.36882">
        <ele>1057.3</ele>
        <time>2021-09-01T10:16:02Z</time>
      </trkpt>
      <trkpt lat="44.89562" lon="5.3688">
        <ele>1057.2</ele>
        <time>2021-09-01T10:16:03Z</time>
      </trkpt>
      <trkpt lat="44.89565" lon="5.3688">
        <ele>1057.1</ele>
        <time>2021-09-01T10:16:05Z</time>
      </trkpt>
      <trkpt lat="44.89565" lon="5.36882">
        <ele>1057.1</ele>
        <time>2021-09-01T10:16:06Z</time>
      </trkpt>
      <trkpt lat="44.89565" lon="5.36883">
        <ele>1057.1</ele>
        <time>2021-09-01T10:16:08Z</time>
      </trkpt>
      <trkpt lat="44.89565" lon="5.36884">
        <ele>1057.1</ele>
        <time>2021-09-01T10:16:09Z</time>
      </trkpt>
      <trkpt lat="44.89565" lon="5.36885">
        <ele>1057.1</ele>
        <time>2021-09-01T10:16:10Z</time>
      </trkpt>
      <trkpt lat="44.89565" lon="5.36886">
        <ele>1057</ele>
        <time>2021-09-01T10:16:12Z</time>
      </trkpt>
      <trkpt lat="44.89564" lon="5.36887">
        <ele>1057</ele>
        <time>2021-09-01T10:16:14Z</time>
      </trkpt>
      <trkpt lat="44.89564" lon="5.36888">
        <ele>1057</ele>
        <time>2021-09-01T10:16:16Z</time>
      </trkpt>
      <trkpt lat="44.89564" lon="5.36889">
        <ele>1057</ele>
        <time>2021-09-01T10:16:17Z</time>
      </trkpt>
      <trkpt lat="44.89564" lon="5.3689">
        <ele>1057</ele>
        <time>2021-09-01T10:16:18Z</time>
      </trkpt>
      <trkpt lat="44.89564" lon="5.36891">
        <ele>1056.9</ele>
        <time>2021-09-01T10:16:20Z</time>
      </trkpt>
      <trkpt lat="44.89564" lon="5.36892">
        <ele>1056.9</ele>
        <time>2021-09-01T10:16:21Z</time>
      </trkpt>
      <trkpt lat="44.89564" lon="5.36893">
        <ele>1056.9</ele>
        <time>2021-09-01T10:16:23Z</time>
      </trkpt>
      <trkpt lat="44.89564" lon="5.36894">
        <ele>1056.9</ele>
        <time>2021-09-01T10:16:24Z</time>
      </trkpt>
      <trkpt lat="44.89564" lon="5.36895">
        <ele>1056.9</ele>
        <time>2021-09-01T10:16:25Z</time>
      </trkpt>
      <trkpt lat="44.89563" lon="5.36896">
        <ele>1056.8</ele>
        <time>2021-09-01T10:16:27Z</time>
      </trkpt>
      <trkpt lat="44.89563" lon="5.36897">
        <ele>1056.8</ele>
        <time>2021-09-01T10:17:11Z</time>
      </trkpt>
      <trkpt lat="44.89563" lon="5.36898">
        <ele>1056.8</ele>
        <time>2021-09-01T10:17:13Z</time>
      </trkpt>
      <trkpt lat="44.89563" lon="5.36899">
        <ele>1056.8</ele>
        <time>2021-09-01T10:17:14Z</time>
      </trkpt>
      <trkpt lat="44.89563" lon="5.369">
        <ele>1056.8</ele>
        <time>2021-09-01T10:17:15Z</time>
      </trkpt>
      <trkpt lat="44.8956" lon="5.36902">
        <ele>1056.7</ele>
        <time>2021-09-01T10:17:16Z</time>
      </trkpt>
      <trkpt lat="44.89557" lon="5.36906">
        <ele>1056.5</ele>
        <time>2021-09-01T10:17:17Z</time>
      </trkpt>
      <trkpt lat="44.89554" lon="5.36908">
        <ele>1056.5</ele>
        <time>2021-09-01T10:17:19Z</time>
      </trkpt>
      <trkpt lat="44.89553" lon="5.3691">
        <ele>1056.4</ele>
        <time>2021-09-01T10:17:20Z</time>
      </trkpt>
      <trkpt lat="44.89553" lon="5.36912">
        <ele>1056.4</ele>
        <time>2021-09-01T10:17:22Z</time>
      </trkpt>
      <trkpt lat="44.89553" lon="5.3691">
        <ele>1056.3</ele>
        <time>2021-09-01T10:17:24Z</time>
      </trkpt>
      <trkpt lat="44.89553" lon="5.3691">
        <ele>1056.3</ele>
        <time>2021-09-01T10:17:25Z</time>
      </trkpt>
      <trkpt lat="44.89553" lon="5.3691">
        <ele>1056.3</ele>
        <time>2021-09-01T10:17:26Z</time>
      </trkpt>
      <trkpt lat="44.89552" lon="5.36909">
        <ele>1056.3</ele>
        <time>2021-09-01T10:17:28Z</time>
      </trkpt>
      <trkpt lat="44.89552" lon="5.36909">
        <ele>1056.3</ele>
        <time>2021-09-01T10:17:29Z</time>
      </trkpt>
      <trkpt lat="44.89552" lon="5.36909">
        <ele>1056.3</ele>
        <time>2021-09-01T10:17:31Z</time>
      </trkpt>
      <trkpt lat="44.89552" lon="5.36909">
        <ele>1056.3</ele>
        <time>2021-09-01T10:17:32Z</time>
      </trkpt>
      <trkpt lat="44.89568" lon="5.36899">
        <ele>1055.8</ele>
        <time>2021-09-01T10:32:53Z</time>
      </trkpt>
      <trkpt lat="44.89564" lon="5.36899">
        <ele>1055.9</ele>
        <time>2021-09-01T10:32:54Z</time>
      </trkpt>
      <trkpt lat="44.89559" lon="5.36898">
        <ele>1056.4</ele>
        <time>2021-09-01T10:32:55Z</time>
      </trkpt>
      <trkpt lat="44.89553" lon="5.36897">
        <ele>1057</ele>
        <time>2021-09-01T10:32:56Z</time>
      </trkpt>
      <trkpt lat="44.89549" lon="5.36896">
        <ele>1057.4</ele>
        <time>2021-09-01T10:32:58Z</time>
      </trkpt>
      <trkpt lat="44.89541" lon="5.36895">
        <ele>1058.2</ele>
        <time>2021-09-01T10:32:59Z</time>
      </trkpt>
      <trkpt lat="44.89535" lon="5.36894">
        <ele>1058.8</ele>
        <time>2021-09-01T10:33:01Z</time>
      </trkpt>
      <trkpt lat="44.89525" lon="5.36891">
        <ele>1059</ele>
        <time>2021-09-01T10:33:02Z</time>
      </trkpt>
      <trkpt lat="44.89514" lon="5.36888">
        <ele>1058.8</ele>
        <time>2021-09-01T10:33:04Z</time>
      </trkpt>
      <trkpt lat="44.89506" lon="5.36885">
        <ele>1058.8</ele>
        <time>2021-09-01T10:33:05Z</time>
      </trkpt>
      <trkpt lat="44.89499" lon="5.36884">
        <ele>1058.7</ele>
        <time>2021-09-01T10:33:07Z</time>
      </trkpt>
      <trkpt lat="44.89488" lon="5.36884">
        <ele>1058.3</ele>
        <time>2021-09-01T10:33:09Z</time>
      </trkpt>
      <trkpt lat="44.89478" lon="5.36888">
        <ele>1057.8</ele>
        <time>2021-09-01T10:33:11Z</time>
      </trkpt>
      <trkpt lat="44.89473" lon="5.36892">
        <ele>1057.5</ele>
        <time>2021-09-01T10:33:12Z</time>
      </trkpt>
      <trkpt lat="44.89464" lon="5.36901">
        <ele>1057</ele>
        <time>2021-09-01T10:33:14Z</time>
      </trkpt>
      <trkpt lat="44.89462" lon="5.36905">
        <ele>1057</ele>
        <time>2021-09-01T10:33:15Z</time>
      </trkpt>
      <trkpt lat="44.89457" lon="5.36911">
        <ele>1056.9</ele>
        <time>2021-09-01T10:33:17Z</time>
      </trkpt>
      <trkpt lat="44.89455" lon="5.36917">
        <ele>1056.8</ele>
        <time>2021-09-01T10:33:18Z</time>
      </trkpt>
      <trkpt lat="44.89454" lon="5.36923">
        <ele>1056.8</ele>
        <time>2021-09-01T10:33:20Z</time>
      </trkpt>
      <trkpt lat="44.89453" lon="5.36929">
        <ele>1056.8</ele>
        <time>2021-09-01T10:33:22Z</time>
      </trkpt>
      <trkpt lat="44.89452" lon="5.36934">
        <ele>1056.7</ele>
        <time>2021-09-01T10:33:23Z</time>
      </trkpt>
      <trkpt lat="44.89451" lon="5.36942">
        <ele>1056.7</ele>
        <time>2021-09-01T10:33:24Z</time>
      </trkpt>
      <trkpt lat="44.89449" lon="5.36951">
        <ele>1056.6</ele>
        <time>2021-09-01T10:33:26Z</time>
      </trkpt>
      <trkpt lat="44.89448" lon="5.36961">
        <ele>1056.6</ele>
        <time>2021-09-01T10:33:27Z</time>
      </trkpt>
      <trkpt lat="44.89447" lon="5.36969">
        <ele>1056.5</ele>
        <time>2021-09-01T10:33:29Z</time>
      </trkpt>
      <trkpt lat="44.89446" lon="5.3698">
        <ele>1056.4</ele>
        <time>2021-09-01T10:33:30Z</time>
      </trkpt>
      <trkpt lat="44.89445" lon="5.36987">
        <ele>1056.3</ele>
        <time>2021-09-01T10:33:32Z</time>
      </trkpt>
      <trkpt lat="44.89444" lon="5.36998">
        <ele>1056.2</ele>
        <time>2021-09-01T10:33:34Z</time>
      </trkpt>
      <trkpt lat="44.89444" lon="5.37004">
        <ele>1056.2</ele>
        <time>2021-09-01T10:33:35Z</time>
      </trkpt>
      <trkpt lat="44.89445" lon="5.37013">
        <ele>1056.1</ele>
        <time>2021-09-01T10:33:36Z</time>
      </trkpt>
      <trkpt lat="44.89444" lon="5.37027">
        <ele>1056</ele>
        <time>2021-09-01T10:33:38Z</time>
      </trkpt>
      <trkpt lat="44.89441" lon="5.37033">
        <ele>1056</ele>
        <time>2021-09-01T10:33:39Z</time>
      </trkpt>
      <trkpt lat="44.89441" lon="5.37039">
        <ele>1056</ele>
        <time>2021-09-01T10:33:40Z</time>
      </trkpt>
      <trkpt lat="44.89441" lon="5.37046">
        <ele>1056</ele>
        <time>2021-09-01T10:33:41Z</time>
      </trkpt>
      <trkpt lat="44.89441" lon="5.37051">
        <ele>1056</ele>
        <time>2021-09-01T10:33:43Z</time>
      </trkpt>
      <trkpt lat="44.89441" lon="5.37055">
        <ele>1056</ele>
        <time>2021-09-01T10:33:44Z</time>
      </trkpt>
      <trkpt lat="44.89441" lon="5.37061">
        <ele>1056.1</ele>
        <time>2021-09-01T10:33:45Z</time>
      </trkpt>
      <trkpt lat="44.89441" lon="5.37066">
        <ele>1056.1</ele>
        <time>2021-09-01T10:33:46Z</time>
      </trkpt>
      <trkpt lat="44.89442" lon="5.3707">
        <ele>1056.1</ele>
        <time>2021-09-01T10:33:48Z</time>
      </trkpt>
      <trkpt lat="44.89442" lon="5.37071">
        <ele>1056.1</ele>
        <time>2021-09-01T10:33:49Z</time>
      </trkpt>
      <trkpt lat="44.89442" lon="5.37072">
        <ele>1056.1</ele>
        <time>2021-09-01T10:33:50Z</time>
      </trkpt>
      <trkpt lat="44.89443" lon="5.37074">
        <ele>1056.1</ele>
        <time>2021-09-01T10:33:52Z</time>
      </trkpt>
      <trkpt lat="44.89442" lon="5.37078">
        <ele>1056.1</ele>
        <time>2021-09-01T10:33:54Z</time>
      </trkpt>
      <trkpt lat="44.8944" lon="5.37081">
        <ele>1056.1</ele>
        <time>2021-09-01T10:33:56Z</time>
      </trkpt>
      <trkpt lat="44.8944" lon="5.3708">
        <ele>1056.1</ele>
        <time>2021-09-01T10:33:58Z</time>
      </trkpt>
      <trkpt lat="44.89441" lon="5.37076">
        <ele>1056.1</ele>
        <time>2021-09-01T10:33:59Z</time>
      </trkpt>
      <trkpt lat="44.89442" lon="5.37075">
        <ele>1056.1</ele>
        <time>2021-09-01T10:34:00Z</time>
      </trkpt>
      <trkpt lat="44.89442" lon="5.37074">
        <ele>1056.1</ele>
        <time>2021-09-01T10:34:02Z</time>
      </trkpt>
      <trkpt lat="44.89442" lon="5.37074">
        <ele>1056.1</ele>
        <time>2021-09-01T10:34:03Z</time>
      </trkpt>
      <trkpt lat="44.89442" lon="5.37074">
        <ele>1056.1</ele>
        <time>2021-09-01T10:34:04Z</time>
      </trkpt>
      <trkpt lat="44.89442" lon="5.37074">
        <ele>1056.1</ele>
        <time>2021-09-01T10:34:06Z</time>
      </trkpt>
      <trkpt lat="44.89424" lon="5.37099">
        <ele>1056.1</ele>
        <time>2021-09-01T10:35:02Z</time>
      </trkpt>
      <trkpt lat="44.89421" lon="5.37098">
        <ele>1056.1</ele>
        <time>2021-09-01T10:35:09Z</time>
      </trkpt>
      <trkpt lat="44.89421" lon="5.37098">
        <ele>1056.1</ele>
        <time>2021-09-01T10:35:15Z</time>
      </trkpt>
      <trkpt lat="44.89421" lon="5.37098">
        <ele>1056.1</ele>
        <time>2021-09-01T10:35:22Z</time>
      </trkpt>
      <trkpt lat="44.89427" lon="5.37093">
        <ele>1056.1</ele>
        <time>2021-09-01T10:37:53Z</time>
      </trkpt>
      <trkpt lat="44.89429" lon="5.3709">
        <ele>1056.1</ele>
        <time>2021-09-01T10:37:54Z</time>
      </trkpt>
      <trkpt lat="44.89432" lon="5.37085">
        <ele>1056.1</ele>
        <time>2021-09-01T10:37:55Z</time>
      </trkpt>
      <trkpt lat="44.89434" lon="5.3708">
        <ele>1056.1</ele>
        <time>2021-09-01T10:37:57Z</time>
      </trkpt>
      <trkpt lat="44.89437" lon="5.37071">
        <ele>1056.1</ele>
        <time>2021-09-01T10:37:59Z</time>
      </trkpt>
      <trkpt lat="44.89438" lon="5.37066">
        <ele>1056.1</ele>
        <time>2021-09-01T10:38:00Z</time>
      </trkpt>
      <trkpt lat="44.8944" lon="5.37058">
        <ele>1056.1</ele>
        <time>2021-09-01T10:38:01Z</time>
      </trkpt>
      <trkpt lat="44.89441" lon="5.37053">
        <ele>1056</ele>
        <time>2021-09-01T10:38:03Z</time>
      </trkpt>
      <trkpt lat="44.89442" lon="5.37046">
        <ele>1056</ele>
        <time>2021-09-01T10:38:04Z</time>
      </trkpt>
      <trkpt lat="44.89443" lon="5.3704">
        <ele>1056</ele>
        <time>2021-09-01T10:38:06Z</time>
      </trkpt>
      <trkpt lat="44.89443" lon="5.37036">
        <ele>1056</ele>
        <time>2021-09-01T10:38:07Z</time>
      </trkpt>
      <trkpt lat="44.89444" lon="5.37032">
        <ele>1056</ele>
        <time>2021-09-01T10:38:08Z</time>
      </trkpt>
      <trkpt lat="44.89445" lon="5.37027">
        <ele>1056</ele>
        <time>2021-09-01T10:38:09Z</time>
      </trkpt>
      <trkpt lat="44.89445" lon="5.37019">
        <ele>1056</ele>
        <time>2021-09-01T10:38:11Z</time>
      </trkpt>
      <trkpt lat="44.89445" lon="5.37015">
        <ele>1056.1</ele>
        <time>2021-09-01T10:38:12Z</time>
      </trkpt>
      <trkpt lat="44.89446" lon="5.37009">
        <ele>1056.1</ele>
        <time>2021-09-01T10:38:13Z</time>
      </trkpt>
      <trkpt lat="44.89447" lon="5.37004">
        <ele>1056.2</ele>
        <time>2021-09-01T10:38:15Z</time>
      </trkpt>
      <trkpt lat="44.89446" lon="5.36999">
        <ele>1056.2</ele>
        <time>2021-09-01T10:38:16Z</time>
      </trkpt>
      <trkpt lat="44.89446" lon="5.36994">
        <ele>1056.3</ele>
        <time>2021-09-01T10:38:18Z</time>
      </trkpt>
      <trkpt lat="44.89446" lon="5.36989">
        <ele>1056.3</ele>
        <time>2021-09-01T10:38:19Z</time>
      </trkpt>
      <trkpt lat="44.89447" lon="5.36983">
        <ele>1056.4</ele>
        <time>2021-09-01T10:38:21Z</time>
      </trkpt>
      <trkpt lat="44.89448" lon="5.36978">
        <ele>1056.4</ele>
        <time>2021-09-01T10:38:22Z</time>
      </trkpt>
      <trkpt lat="44.89449" lon="5.36976">
        <ele>1056.4</ele>
        <time>2021-09-01T10:38:23Z</time>
      </trkpt>
      <trkpt lat="44.89449" lon="5.36973">
        <ele>1056.5</ele>
        <time>2021-09-01T10:38:24Z</time>
      </trkpt>
      <trkpt lat="44.89449" lon="5.36968">
        <ele>1056.5</ele>
        <time>2021-09-01T10:38:26Z</time>
      </trkpt>
      <trkpt lat="44.8945" lon="5.36962">
        <ele>1056.6</ele>
        <time>2021-09-01T10:38:28Z</time>
      </trkpt>
      <trkpt lat="44.89451" lon="5.36959">
        <ele>1056.6</ele>
        <time>2021-09-01T10:38:29Z</time>
      </trkpt>
      <trkpt lat="44.89452" lon="5.36952">
        <ele>1056.6</ele>
        <time>2021-09-01T10:38:31Z</time>
      </trkpt>
      <trkpt lat="44.89452" lon="5.36948">
        <ele>1056.6</ele>
        <time>2021-09-01T10:38:32Z</time>
      </trkpt>
      <trkpt lat="44.89452" lon="5.36945">
        <ele>1056.7</ele>
        <time>2021-09-01T10:38:33Z</time>
      </trkpt>
      <trkpt lat="44.89452" lon="5.36938">
        <ele>1056.7</ele>
        <time>2021-09-01T10:38:35Z</time>
      </trkpt>
      <trkpt lat="44.89454" lon="5.36933">
        <ele>1056.7</ele>
        <time>2021-09-01T10:38:37Z</time>
      </trkpt>
      <trkpt lat="44.89455" lon="5.3693">
        <ele>1056.8</ele>
        <time>2021-09-01T10:38:38Z</time>
      </trkpt>
      <trkpt lat="44.89457" lon="5.36922">
        <ele>1056.8</ele>
        <time>2021-09-01T10:38:40Z</time>
      </trkpt>
      <trkpt lat="44.89459" lon="5.36915">
        <ele>1056.9</ele>
        <time>2021-09-01T10:38:42Z</time>
      </trkpt>
      <trkpt lat="44.89459" lon="5.36911">
        <ele>1056.9</ele>
        <time>2021-09-01T10:38:43Z</time>
      </trkpt>
      <trkpt lat="44.89459" lon="5.36908">
        <ele>1056.9</ele>
        <time>2021-09-01T10:38:44Z</time>
      </trkpt>
      <trkpt lat="44.89461" lon="5.36901">
        <ele>1057</ele>
        <time>2021-09-01T10:38:46Z</time>
      </trkpt>
      <trkpt lat="44.89462" lon="5.36893">
        <ele>1057</ele>
        <time>2021-09-01T10:38:48Z</time>
      </trkpt>
      <trkpt lat="44.89462" lon="5.36887">
        <ele>1057.1</ele>
        <time>2021-09-01T10:38:49Z</time>
      </trkpt>
      <trkpt lat="44.89464" lon="5.36881">
        <ele>1057.1</ele>
        <time>2021-09-01T10:38:51Z</time>
      </trkpt>
      <trkpt lat="44.89465" lon="5.36878">
        <ele>1057.2</ele>
        <time>2021-09-01T10:38:52Z</time>
      </trkpt>
      <trkpt lat="44.89469" lon="5.36869">
        <ele>1057.2</ele>
        <time>2021-09-01T10:38:54Z</time>
      </trkpt>
      <trkpt lat="44.89472" lon="5.36862">
        <ele>1057.2</ele>
        <time>2021-09-01T10:38:55Z</time>
      </trkpt>
      <trkpt lat="44.89473" lon="5.36856">
        <ele>1057.1</ele>
        <time>2021-09-01T10:38:57Z</time>
      </trkpt>
      <trkpt lat="44.89476" lon="5.36848">
        <ele>1057.1</ele>
        <time>2021-09-01T10:38:58Z</time>
      </trkpt>
      <trkpt lat="44.89477" lon="5.36842">
        <ele>1057.1</ele>
        <time>2021-09-01T10:39:00Z</time>
      </trkpt>
      <trkpt lat="44.89478" lon="5.36835">
        <ele>1057.1</ele>
        <time>2021-09-01T10:39:01Z</time>
      </trkpt>
      <trkpt lat="44.8948" lon="5.36825">
        <ele>1057.1</ele>
        <time>2021-09-01T10:39:03Z</time>
      </trkpt>
      <trkpt lat="44.89481" lon="5.36815">
        <ele>1056.9</ele>
        <time>2021-09-01T10:39:05Z</time>
      </trkpt>
      <trkpt lat="44.89481" lon="5.36809">
        <ele>1056.8</ele>
        <time>2021-09-01T10:39:06Z</time>
      </trkpt>
      <trkpt lat="44.89482" lon="5.36795">
        <ele>1056.4</ele>
        <time>2021-09-01T10:39:08Z</time>
      </trkpt>
      <trkpt lat="44.8948" lon="5.36791">
        <ele>1056.3</ele>
        <time>2021-09-01T10:39:09Z</time>
      </trkpt>
      <trkpt lat="44.89481" lon="5.36784">
        <ele>1056.1</ele>
        <time>2021-09-01T10:39:10Z</time>
      </trkpt>
      <trkpt lat="44.89482" lon="5.36776">
        <ele>1055.9</ele>
        <time>2021-09-01T10:39:11Z</time>
      </trkpt>
      <trkpt lat="44.89483" lon="5.36769">
        <ele>1055.8</ele>
        <time>2021-09-01T10:39:13Z</time>
      </trkpt>
      <trkpt lat="44.89483" lon="5.3676">
        <ele>1055.6</ele>
        <time>2021-09-01T10:39:14Z</time>
      </trkpt>
      <trkpt lat="44.89485" lon="5.36751">
        <ele>1055.4</ele>
        <time>2021-09-01T10:39:15Z</time>
      </trkpt>
      <trkpt lat="44.89488" lon="5.36743">
        <ele>1055.2</ele>
        <time>2021-09-01T10:39:17Z</time>
      </trkpt>
      <trkpt lat="44.89492" lon="5.36739">
        <ele>1055.3</ele>
        <time>2021-09-01T10:39:18Z</time>
      </trkpt>
      <trkpt lat="44.89497" lon="5.36736">
        <ele>1055.4</ele>
        <time>2021-09-01T10:39:20Z</time>
      </trkpt>
      <trkpt lat="44.89502" lon="5.36734">
        <ele>1055.6</ele>
        <time>2021-09-01T10:39:21Z</time>
      </trkpt>
      <trkpt lat="44.89509" lon="5.36733">
        <ele>1055.8</ele>
        <time>2021-09-01T10:39:23Z</time>
      </trkpt>
      <trkpt lat="44.89513" lon="5.36733">
        <ele>1056</ele>
        <time>2021-09-01T10:39:24Z</time>
      </trkpt>
      <trkpt lat="44.89518" lon="5.36734">
        <ele>1056.3</ele>
        <time>2021-09-01T10:39:25Z</time>
      </trkpt>
      <trkpt lat="44.89523" lon="5.36735">
        <ele>1056.5</ele>
        <time>2021-09-01T10:39:26Z</time>
      </trkpt>
      <trkpt lat="44.89527" lon="5.36736">
        <ele>1056.7</ele>
        <time>2021-09-01T10:39:27Z</time>
      </trkpt>
      <trkpt lat="44.89532" lon="5.36738">
        <ele>1056.9</ele>
        <time>2021-09-01T10:39:29Z</time>
      </trkpt>
      <trkpt lat="44.89535" lon="5.36738">
        <ele>1057.1</ele>
        <time>2021-09-01T10:39:30Z</time>
      </trkpt>
      <trkpt lat="44.89538" lon="5.36739">
        <ele>1057.2</ele>
        <time>2021-09-01T10:39:31Z</time>
      </trkpt>
      <trkpt lat="44.89541" lon="5.36739">
        <ele>1057.3</ele>
        <time>2021-09-01T10:39:32Z</time>
      </trkpt>
      <trkpt lat="44.89545" lon="5.36741">
        <ele>1057.3</ele>
        <time>2021-09-01T10:39:33Z</time>
      </trkpt>
      <trkpt lat="44.89549" lon="5.36743">
        <ele>1057.3</ele>
        <time>2021-09-01T10:39:34Z</time>
      </trkpt>
      <trkpt lat="44.89552" lon="5.36746">
        <ele>1057.2</ele>
        <time>2021-09-01T10:39:36Z</time>
      </trkpt>
      <trkpt lat="44.89555" lon="5.36749">
        <ele>1057.3</ele>
        <time>2021-09-01T10:39:37Z</time>
      </trkpt>
      <trkpt lat="44.89555" lon="5.3675">
        <ele>1057.3</ele>
        <time>2021-09-01T10:39:38Z</time>
      </trkpt>
      <trkpt lat="44.89557" lon="5.36751">
        <ele>1057.3</ele>
        <time>2021-09-01T10:39:39Z</time>
      </trkpt>
      <trkpt lat="44.89559" lon="5.36751">
        <ele>1057.3</ele>
        <time>2021-09-01T10:39:40Z</time>
      </trkpt>
      <trkpt lat="44.89561" lon="5.36752">
        <ele>1057.3</ele>
        <time>2021-09-01T10:39:41Z</time>
      </trkpt>
      <trkpt lat="44.89561" lon="5.36752">
        <ele>1057.3</ele>
        <time>2021-09-01T10:39:43Z</time>
      </trkpt>
      <trkpt lat="44.89562" lon="5.36753">
        <ele>1057.3</ele>
        <time>2021-09-01T10:39:44Z</time>
      </trkpt>
      <trkpt lat="44.89564" lon="5.36754">
        <ele>1057.3</ele>
        <time>2021-09-01T10:39:45Z</time>
      </trkpt>
      <trkpt lat="44.89568" lon="5.36756">
        <ele>1057.2</ele>
        <time>2021-09-01T10:39:47Z</time>
      </trkpt>
      <trkpt lat="44.8957" lon="5.3676">
        <ele>1057.2</ele>
        <time>2021-09-01T10:39:48Z</time>
      </trkpt>
      <trkpt lat="44.89571" lon="5.36765">
        <ele>1057.1</ele>
        <time>2021-09-01T10:39:50Z</time>
      </trkpt>
      <trkpt lat="44.89571" lon="5.36767">
        <ele>1057.1</ele>
        <time>2021-09-01T10:39:51Z</time>
      </trkpt>
      <trkpt lat="44.89572" lon="5.36771">
        <ele>1057</ele>
        <time>2021-09-01T10:39:53Z</time>
      </trkpt>
      <trkpt lat="44.89573" lon="5.36772">
        <ele>1056.9</ele>
        <time>2021-09-01T10:39:54Z</time>
      </trkpt>
      <trkpt lat="44.89575" lon="5.36777">
        <ele>1056.8</ele>
        <time>2021-09-01T10:39:55Z</time>
      </trkpt>
      <trkpt lat="44.89574" lon="5.36782">
        <ele>1056.7</ele>
        <time>2021-09-01T10:39:57Z</time>
      </trkpt>
      <trkpt lat="44.89574" lon="5.36786">
        <ele>1056.7</ele>
        <time>2021-09-01T10:39:59Z</time>
      </trkpt>
      <trkpt lat="44.89575" lon="5.36789">
        <ele>1056.6</ele>
        <time>2021-09-01T10:40:00Z</time>
      </trkpt>
      <trkpt lat="44.89576" lon="5.36792">
        <ele>1056.6</ele>
        <time>2021-09-01T10:40:02Z</time>
      </trkpt>
      <trkpt lat="44.89576" lon="5.36796">
        <ele>1056.5</ele>
        <time>2021-09-01T10:40:03Z</time>
      </trkpt>
      <trkpt lat="44.89577" lon="5.36802">
        <ele>1056.5</ele>
        <time>2021-09-01T10:40:05Z</time>
      </trkpt>
      <trkpt lat="44.89577" lon="5.36806">
        <ele>1056.4</ele>
        <time>2021-09-01T10:40:06Z</time>
      </trkpt>
      <trkpt lat="44.89578" lon="5.36812">
        <ele>1056.4</ele>
        <time>2021-09-01T10:40:08Z</time>
      </trkpt>
      <trkpt lat="44.89579" lon="5.36816">
        <ele>1056.4</ele>
        <time>2021-09-01T10:40:09Z</time>
      </trkpt>
      <trkpt lat="44.8958" lon="5.36819">
        <ele>1056.4</ele>
        <time>2021-09-01T10:40:10Z</time>
      </trkpt>
      <trkpt lat="44.8958" lon="5.36824">
        <ele>1056.3</ele>
        <time>2021-09-01T10:40:12Z</time>
      </trkpt>
      <trkpt lat="44.89581" lon="5.36829">
        <ele>1056.3</ele>
        <time>2021-09-01T10:40:13Z</time>
      </trkpt>
      <trkpt lat="44.89581" lon="5.3683">
        <ele>1056.2</ele>
        <time>2021-09-01T10:40:14Z</time>
      </trkpt>
      <trkpt lat="44.89581" lon="5.36833">
        <ele>1056.2</ele>
        <time>2021-09-01T10:40:15Z</time>
      </trkpt>
      <trkpt lat="44.89581" lon="5.36835">
        <ele>1056.1</ele>
        <time>2021-09-01T10:40:16Z</time>
      </trkpt>
      <trkpt lat="44.8958" lon="5.36837">
        <ele>1056.1</ele>
        <time>2021-09-01T10:40:17Z</time>
      </trkpt>
      <trkpt lat="44.89581" lon="5.36842">
        <ele>1055.9</ele>
        <time>2021-09-01T10:40:19Z</time>
      </trkpt>
      <trkpt lat="44.89582" lon="5.36846">
        <ele>1055.8</ele>
        <time>2021-09-01T10:40:21Z</time>
      </trkpt>
      <trkpt lat="44.89583" lon="5.36852">
        <ele>1055.6</ele>
        <time>2021-09-01T10:40:22Z</time>
      </trkpt>
      <trkpt lat="44.89583" lon="5.36855">
        <ele>1055.6</ele>
        <time>2021-09-01T10:40:23Z</time>
      </trkpt>
      <trkpt lat="44.89584" lon="5.36859">
        <ele>1055.6</ele>
        <time>2021-09-01T10:40:25Z</time>
      </trkpt>
      <trkpt lat="44.89585" lon="5.36863">
        <ele>1055.6</ele>
        <time>2021-09-01T10:40:26Z</time>
      </trkpt>
      <trkpt lat="44.89585" lon="5.36869">
        <ele>1055.6</ele>
        <time>2021-09-01T10:40:28Z</time>
      </trkpt>
      <trkpt lat="44.89583" lon="5.36874">
        <ele>1055.7</ele>
        <time>2021-09-01T10:40:29Z</time>
      </trkpt>
      <trkpt lat="44.89582" lon="5.36875">
        <ele>1055.7</ele>
        <time>2021-09-01T10:40:30Z</time>
      </trkpt>
      <trkpt lat="44.89578" lon="5.3688">
        <ele>1055.7</ele>
        <time>2021-09-01T10:40:31Z</time>
      </trkpt>
      <trkpt lat="44.89573" lon="5.36885">
        <ele>1055.8</ele>
        <time>2021-09-01T10:40:33Z</time>
      </trkpt>
      <trkpt lat="44.89566" lon="5.36888">
        <ele>1056.3</ele>
        <time>2021-09-01T10:40:34Z</time>
      </trkpt>
      <trkpt lat="44.89562" lon="5.36888">
        <ele>1056.6</ele>
        <time>2021-09-01T10:40:36Z</time>
      </trkpt>
      <trkpt lat="44.89555" lon="5.36887">
        <ele>1057.2</ele>
        <time>2021-09-01T10:40:38Z</time>
      </trkpt>
      <trkpt lat="44.89551" lon="5.36886">
        <ele>1057.4</ele>
        <time>2021-09-01T10:40:39Z</time>
      </trkpt>
      <trkpt lat="44.89546" lon="5.36885">
        <ele>1057.9</ele>
        <time>2021-09-01T10:40:41Z</time>
      </trkpt>
      <trkpt lat="44.89543" lon="5.36885">
        <ele>1058.1</ele>
        <time>2021-09-01T10:40:42Z</time>
      </trkpt>
      <trkpt lat="44.8954" lon="5.36887">
        <ele>1059.1</ele>
        <time>2021-09-01T10:40:43Z</time>
      </trkpt>
      <trkpt lat="44.89539" lon="5.36891">
        <ele>1058.9</ele>
        <time>2021-09-01T10:40:45Z</time>
      </trkpt>
      <trkpt lat="44.89539" lon="5.36898">
        <ele>1058.8</ele>
        <time>2021-09-01T10:40:46Z</time>
      </trkpt>
      <trkpt lat="44.8954" lon="5.36903">
        <ele>1058.7</ele>
        <time>2021-09-01T10:40:48Z</time>
      </trkpt>
      <trkpt lat="44.89541" lon="5.3691">
        <ele>1058.5</ele>
        <time>2021-09-01T10:40:49Z</time>
      </trkpt>
      <trkpt lat="44.89541" lon="5.36916">
        <ele>1058.3</ele>
        <time>2021-09-01T10:40:51Z</time>
      </trkpt>
      <trkpt lat="44.89541" lon="5.36924">
        <ele>1058.1</ele>
        <time>2021-09-01T10:40:53Z</time>
      </trkpt>
      <trkpt lat="44.89541" lon="5.36933">
        <ele>1057.8</ele>
        <time>2021-09-01T10:40:55Z</time>
      </trkpt>
      <trkpt lat="44.89541" lon="5.3694">
        <ele>1057.6</ele>
        <time>2021-09-01T10:40:56Z</time>
      </trkpt>
      <trkpt lat="44.89541" lon="5.36945">
        <ele>1057.4</ele>
        <time>2021-09-01T10:40:57Z</time>
      </trkpt>
      <trkpt lat="44.89541" lon="5.36954">
        <ele>1057.1</ele>
        <time>2021-09-01T10:40:59Z</time>
      </trkpt>
      <trkpt lat="44.89541" lon="5.3696">
        <ele>1057</ele>
        <time>2021-09-01T10:41:00Z</time>
      </trkpt>
      <trkpt lat="44.89541" lon="5.36966">
        <ele>1056.8</ele>
        <time>2021-09-01T10:41:02Z</time>
      </trkpt>
      <trkpt lat="44.89541" lon="5.36972">
        <ele>1056.7</ele>
        <time>2021-09-01T10:41:03Z</time>
      </trkpt>
      <trkpt lat="44.89542" lon="5.36981">
        <ele>1056.6</ele>
        <time>2021-09-01T10:41:04Z</time>
      </trkpt>
      <trkpt lat="44.89543" lon="5.36989">
        <ele>1056.4</ele>
        <time>2021-09-01T10:41:05Z</time>
      </trkpt>
      <trkpt lat="44.89544" lon="5.36996">
        <ele>1056.3</ele>
        <time>2021-09-01T10:41:07Z</time>
      </trkpt>
      <trkpt lat="44.89544" lon="5.37001">
        <ele>1056.2</ele>
        <time>2021-09-01T10:41:08Z</time>
      </trkpt>
      <trkpt lat="44.89544" lon="5.37013">
        <ele>1056</ele>
        <time>2021-09-01T10:41:10Z</time>
      </trkpt>
      <trkpt lat="44.89542" lon="5.37024">
        <ele>1055.8</ele>
        <time>2021-09-01T10:41:11Z</time>
      </trkpt>
      <trkpt lat="44.89542" lon="5.37033">
        <ele>1055.7</ele>
        <time>2021-09-01T10:41:13Z</time>
      </trkpt>
      <trkpt lat="44.89541" lon="5.37039">
        <ele>1055.7</ele>
        <time>2021-09-01T10:41:14Z</time>
      </trkpt>
      <trkpt lat="44.89541" lon="5.37049">
        <ele>1055.6</ele>
        <time>2021-09-01T10:41:16Z</time>
      </trkpt>
      <trkpt lat="44.89539" lon="5.37056">
        <ele>1055.5</ele>
        <time>2021-09-01T10:41:17Z</time>
      </trkpt>
      <trkpt lat="44.89537" lon="5.37062">
        <ele>1055.5</ele>
        <time>2021-09-01T10:41:19Z</time>
      </trkpt>
      <trkpt lat="44.89535" lon="5.37066">
        <ele>1055.5</ele>
        <time>2021-09-01T10:41:20Z</time>
      </trkpt>
      <trkpt lat="44.89534" lon="5.37072">
        <ele>1055.4</ele>
        <time>2021-09-01T10:41:22Z</time>
      </trkpt>
      <trkpt lat="44.89534" lon="5.37075">
        <ele>1055.4</ele>
        <time>2021-09-01T10:41:23Z</time>
      </trkpt>
      <trkpt lat="44.89534" lon="5.37077">
        <ele>1055.4</ele>
        <time>2021-09-01T10:41:24Z</time>
      </trkpt>
      <trkpt lat="44.89538" lon="5.3708">
        <ele>1055.4</ele>
        <time>2021-09-01T10:41:26Z</time>
      </trkpt>
      <trkpt lat="44.89544" lon="5.37082">
        <ele>1055.4</ele>
        <time>2021-09-01T10:41:27Z</time>
      </trkpt>
      <trkpt lat="44.89548" lon="5.37082">
        <ele>1055.2</ele>
        <time>2021-09-01T10:41:29Z</time>
      </trkpt>
      <trkpt lat="44.89551" lon="5.37082">
        <ele>1055.1</ele>
        <time>2021-09-01T10:41:30Z</time>
      </trkpt>
      <trkpt lat="44.89555" lon="5.37086">
        <ele>1054.9</ele>
        <time>2021-09-01T10:41:32Z</time>
      </trkpt>
      <trkpt lat="44.89558" lon="5.37086">
        <ele>1054.8</ele>
        <time>2021-09-01T10:41:34Z</time>
      </trkpt>
      <trkpt lat="44.89559" lon="5.37086">
        <ele>1054.8</ele>
        <time>2021-09-01T10:41:35Z</time>
      </trkpt>
      <trkpt lat="44.89561" lon="5.37086">
        <ele>1054.7</ele>
        <time>2021-09-01T10:41:37Z</time>
      </trkpt>
      <trkpt lat="44.89562" lon="5.37086">
        <ele>1054.6</ele>
        <time>2021-09-01T10:41:38Z</time>
      </trkpt>
      <trkpt lat="44.89563" lon="5.37087">
        <ele>1054.6</ele>
        <time>2021-09-01T10:41:40Z</time>
      </trkpt>
      <trkpt lat="44.89565" lon="5.37085">
        <ele>1054.5</ele>
        <time>2021-09-01T10:41:42Z</time>
      </trkpt>
      <trkpt lat="44.89563" lon="5.37079">
        <ele>1054.6</ele>
        <time>2021-09-01T10:41:44Z</time>
      </trkpt>
      <trkpt lat="44.89561" lon="5.37077">
        <ele>1054.7</ele>
        <time>2021-09-01T10:41:45Z</time>
      </trkpt>
      <trkpt lat="44.89556" lon="5.37071">
        <ele>1054.9</ele>
        <time>2021-09-01T10:41:47Z</time>
      </trkpt>
      <trkpt lat="44.89553" lon="5.37069">
        <ele>1055.1</ele>
        <time>2021-09-01T10:41:48Z</time>
      </trkpt>
      <trkpt lat="44.8955" lon="5.37066">
        <ele>1055.4</ele>
        <time>2021-09-01T10:41:50Z</time>
      </trkpt>
      <trkpt lat="44.89548" lon="5.37064">
        <ele>1055.4</ele>
        <time>2021-09-01T10:41:51Z</time>
      </trkpt>
      <trkpt lat="44.89543" lon="5.37063">
        <ele>1055.5</ele>
        <time>2021-09-01T10:41:53Z</time>
      </trkpt>
      <trkpt lat="44.89537" lon="5.37065">
        <ele>1055.6</ele>
        <time>2021-09-01T10:41:55Z</time>
      </trkpt>
      <trkpt lat="44.89532" lon="5.37069">
        <ele>1055.6</ele>
        <time>2021-09-01T10:41:57Z</time>
      </trkpt>
      <trkpt lat="44.89526" lon="5.37071">
        <ele>1055.6</ele>
        <time>2021-09-01T10:41:59Z</time>
      </trkpt>
      <trkpt lat="44.89521" lon="5.37071">
        <ele>1055.5</ele>
        <time>2021-09-01T10:42:00Z</time>
      </trkpt>
      <trkpt lat="44.89515" lon="5.37072">
        <ele>1055.5</ele>
        <time>2021-09-01T10:42:02Z</time>
      </trkpt>
      <trkpt lat="44.89508" lon="5.37072">
        <ele>1055.5</ele>
        <time>2021-09-01T10:42:04Z</time>
      </trkpt>
      <trkpt lat="44.89504" lon="5.37072">
        <ele>1055.5</ele>
        <time>2021-09-01T10:42:05Z</time>
      </trkpt>
      <trkpt lat="44.895" lon="5.37073">
        <ele>1055.5</ele>
        <time>2021-09-01T10:42:06Z</time>
      </trkpt>
      <trkpt lat="44.89497" lon="5.37073">
        <ele>1055.5</ele>
        <time>2021-09-01T10:42:08Z</time>
      </trkpt>
      <trkpt lat="44.89492" lon="5.37074">
        <ele>1055.5</ele>
        <time>2021-09-01T10:42:09Z</time>
      </trkpt>
      <trkpt lat="44.89488" lon="5.37075">
        <ele>1055.5</ele>
        <time>2021-09-01T10:42:11Z</time>
      </trkpt>
      <trkpt lat="44.89485" lon="5.37076">
        <ele>1055.5</ele>
        <time>2021-09-01T10:42:12Z</time>
      </trkpt>
      <trkpt lat="44.89479" lon="5.37078">
        <ele>1055.5</ele>
        <time>2021-09-01T10:42:13Z</time>
      </trkpt>
      <trkpt lat="44.89474" lon="5.37079">
        <ele>1055.5</ele>
        <time>2021-09-01T10:42:15Z</time>
      </trkpt>
      <trkpt lat="44.89469" lon="5.37079">
        <ele>1055.5</ele>
        <time>2021-09-01T10:42:16Z</time>
      </trkpt>
      <trkpt lat="44.89464" lon="5.37079">
        <ele>1055.5</ele>
        <time>2021-09-01T10:42:17Z</time>
      </trkpt>
      <trkpt lat="44.8946" lon="5.37079">
        <ele>1055.6</ele>
        <time>2021-09-01T10:42:19Z</time>
      </trkpt>
      <trkpt lat="44.89456" lon="5.37079">
        <ele>1055.6</ele>
        <time>2021-09-01T10:42:20Z</time>
      </trkpt>
      <trkpt lat="44.8945" lon="5.37079">
        <ele>1055.7</ele>
        <time>2021-09-01T10:42:22Z</time>
      </trkpt>
      <trkpt lat="44.89447" lon="5.3708">
        <ele>1055.8</ele>
        <time>2021-09-01T10:42:23Z</time>
      </trkpt>
      <trkpt lat="44.89442" lon="5.37079">
        <ele>1055.9</ele>
        <time>2021-09-01T10:42:25Z</time>
      </trkpt>
      <trkpt lat="44.8944" lon="5.37078">
        <ele>1056.1</ele>
        <time>2021-09-01T10:42:26Z</time>
      </trkpt>
      <trkpt lat="44.8944" lon="5.37076">
        <ele>1056.1</ele>
        <time>2021-09-01T10:42:28Z</time>
      </trkpt>
      <trkpt lat="44.89442" lon="5.37074">
        <ele>1056.1</ele>
        <time>2021-09-01T10:42:29Z</time>
      </trkpt>
      <trkpt lat="44.89443" lon="5.37073">
        <ele>1056.1</ele>
        <time>2021-09-01T10:42:30Z</time>
      </trkpt>
      <trkpt lat="44.89443" lon="5.37068">
        <ele>1056.1</ele>
        <time>2021-09-01T10:42:32Z</time>
      </trkpt>
      <trkpt lat="44.89444" lon="5.37063">
        <ele>1056.1</ele>
        <time>2021-09-01T10:42:33Z</time>
      </trkpt>
      <trkpt lat="44.89444" lon="5.37058">
        <ele>1056.1</ele>
        <time>2021-09-01T10:42:35Z</time>
      </trkpt>
      <trkpt lat="44.89444" lon="5.37053">
        <ele>1056</ele>
        <time>2021-09-01T10:42:37Z</time>
      </trkpt>
      <trkpt lat="44.89445" lon="5.37048">
        <ele>1056</ele>
        <time>2021-09-01T10:43:41Z</time>
      </trkpt>
      <trkpt lat="44.89445" lon="5.37042">
        <ele>1056</ele>
        <time>2021-09-01T10:43:42Z</time>
      </trkpt>
      <trkpt lat="44.89444" lon="5.37035">
        <ele>1056</ele>
        <time>2021-09-01T10:43:43Z</time>
      </trkpt>
      <trkpt lat="44.89444" lon="5.37027">
        <ele>1056</ele>
        <time>2021-09-01T10:43:45Z</time>
      </trkpt>
      <trkpt lat="44.89447" lon="5.37019">
        <ele>1056</ele>
        <time>2021-09-01T10:43:47Z</time>
      </trkpt>
      <trkpt lat="44.89449" lon="5.37014">
        <ele>1056.1</ele>
        <time>2021-09-01T10:43:48Z</time>
      </trkpt>
      <trkpt lat="44.89449" lon="5.37006">
        <ele>1056.2</ele>
        <time>2021-09-01T10:43:49Z</time>
      </trkpt>
      <trkpt lat="44.89449" lon="5.36999">
        <ele>1056.2</ele>
        <time>2021-09-01T10:43:51Z</time>
      </trkpt>
      <trkpt lat="44.89449" lon="5.36995">
        <ele>1056.3</ele>
        <time>2021-09-01T10:43:52Z</time>
      </trkpt>
      <trkpt lat="44.8945" lon="5.36991">
        <ele>1056.3</ele>
        <time>2021-09-01T10:43:53Z</time>
      </trkpt>
      <trkpt lat="44.8945" lon="5.36987">
        <ele>1056.3</ele>
        <time>2021-09-01T10:43:54Z</time>
      </trkpt>
      <trkpt lat="44.89451" lon="5.36979">
        <ele>1056.4</ele>
        <time>2021-09-01T10:43:55Z</time>
      </trkpt>
      <trkpt lat="44.8945" lon="5.36973">
        <ele>1056.5</ele>
        <time>2021-09-01T10:43:57Z</time>
      </trkpt>
      <trkpt lat="44.8945" lon="5.36968">
        <ele>1056.5</ele>
        <time>2021-09-01T10:43:58Z</time>
      </trkpt>
      <trkpt lat="44.89449" lon="5.36964">
        <ele>1056.5</ele>
        <time>2021-09-01T10:43:59Z</time>
      </trkpt>
      <trkpt lat="44.89449" lon="5.3696">
        <ele>1056.6</ele>
        <time>2021-09-01T10:44:00Z</time>
      </trkpt>
      <trkpt lat="44.89448" lon="5.36954">
        <ele>1056.6</ele>
        <time>2021-09-01T10:44:01Z</time>
      </trkpt>
      <trkpt lat="44.89448" lon="5.3695">
        <ele>1056.6</ele>
        <time>2021-09-01T10:44:02Z</time>
      </trkpt>
      <trkpt lat="44.89448" lon="5.36944">
        <ele>1056.6</ele>
        <time>2021-09-01T10:44:04Z</time>
      </trkpt>
      <trkpt lat="44.89447" lon="5.3694">
        <ele>1056.7</ele>
        <time>2021-09-01T10:44:05Z</time>
      </trkpt>
      <trkpt lat="44.89447" lon="5.36935">
        <ele>1056.7</ele>
        <time>2021-09-01T10:44:06Z</time>
      </trkpt>
      <trkpt lat="44.89445" lon="5.36928">
        <ele>1056.7</ele>
        <time>2021-09-01T10:44:07Z</time>
      </trkpt>
      <trkpt lat="44.89444" lon="5.36922">
        <ele>1056.8</ele>
        <time>2021-09-01T10:44:09Z</time>
      </trkpt>
      <trkpt lat="44.89444" lon="5.36916">
        <ele>1056.8</ele>
        <time>2021-09-01T10:44:10Z</time>
      </trkpt>
      <trkpt lat="44.89446" lon="5.3691">
        <ele>1056.9</ele>
        <time>2021-09-01T10:44:12Z</time>
      </trkpt>
      <trkpt lat="44.89447" lon="5.36905">
        <ele>1056.9</ele>
        <time>2021-09-01T10:44:13Z</time>
      </trkpt>
      <trkpt lat="44.8945" lon="5.369">
        <ele>1057</ele>
        <time>2021-09-01T10:44:14Z</time>
      </trkpt>
      <trkpt lat="44.89452" lon="5.36893">
        <ele>1057</ele>
        <time>2021-09-01T10:44:15Z</time>
      </trkpt>
      <trkpt lat="44.89453" lon="5.36885">
        <ele>1057.1</ele>
        <time>2021-09-01T10:44:17Z</time>
      </trkpt>
      <trkpt lat="44.89454" lon="5.36878">
        <ele>1057.2</ele>
        <time>2021-09-01T10:44:18Z</time>
      </trkpt>
      <trkpt lat="44.89456" lon="5.36872">
        <ele>1057.2</ele>
        <time>2021-09-01T10:44:19Z</time>
      </trkpt>
      <trkpt lat="44.89457" lon="5.36867">
        <ele>1057.2</ele>
        <time>2021-09-01T10:44:20Z</time>
      </trkpt>
      <trkpt lat="44.89457" lon="5.36862">
        <ele>1057.2</ele>
        <time>2021-09-01T10:44:22Z</time>
      </trkpt>
      <trkpt lat="44.89458" lon="5.36854">
        <ele>1057.2</ele>
        <time>2021-09-01T10:44:23Z</time>
      </trkpt>
      <trkpt lat="44.8946" lon="5.36848">
        <ele>1057.1</ele>
        <time>2021-09-01T10:44:25Z</time>
      </trkpt>
      <trkpt lat="44.8946" lon="5.36842">
        <ele>1057.1</ele>
        <time>2021-09-01T10:44:26Z</time>
      </trkpt>
      <trkpt lat="44.8946" lon="5.36838">
        <ele>1057.1</ele>
        <time>2021-09-01T10:44:27Z</time>
      </trkpt>
      <trkpt lat="44.89459" lon="5.3683">
        <ele>1057.1</ele>
        <time>2021-09-01T10:44:29Z</time>
      </trkpt>
      <trkpt lat="44.89459" lon="5.36825">
        <ele>1057.1</ele>
        <time>2021-09-01T10:44:30Z</time>
      </trkpt>
      <trkpt lat="44.89457" lon="5.36817">
        <ele>1057.1</ele>
        <time>2021-09-01T10:44:31Z</time>
      </trkpt>
      <trkpt lat="44.89458" lon="5.36811">
        <ele>1056.9</ele>
        <time>2021-09-01T10:44:33Z</time>
      </trkpt>
      <trkpt lat="44.89458" lon="5.36803">
        <ele>1056.7</ele>
        <time>2021-09-01T10:44:34Z</time>
      </trkpt>
      <trkpt lat="44.89458" lon="5.36799">
        <ele>1056.6</ele>
        <time>2021-09-01T10:44:35Z</time>
      </trkpt>
      <trkpt lat="44.89458" lon="5.36792">
        <ele>1056.4</ele>
        <time>2021-09-01T10:44:37Z</time>
      </trkpt>
      <trkpt lat="44.89459" lon="5.36782">
        <ele>1056.1</ele>
        <time>2021-09-01T10:44:39Z</time>
      </trkpt>
      <trkpt lat="44.8946" lon="5.3677">
        <ele>1055.9</ele>
        <time>2021-09-01T10:44:41Z</time>
      </trkpt>
      <trkpt lat="44.89462" lon="5.36759">
        <ele>1055.6</ele>
        <time>2021-09-01T10:44:43Z</time>
      </trkpt>
      <trkpt lat="44.89464" lon="5.36754">
        <ele>1055.5</ele>
        <time>2021-09-01T10:44:44Z</time>
      </trkpt>
      <trkpt lat="44.89466" lon="5.36746">
        <ele>1055.4</ele>
        <time>2021-09-01T10:44:45Z</time>
      </trkpt>
      <trkpt lat="44.89467" lon="5.36739">
        <ele>1055.2</ele>
        <time>2021-09-01T10:44:47Z</time>
      </trkpt>
      <trkpt lat="44.89469" lon="5.36731">
        <ele>1055.1</ele>
        <time>2021-09-01T10:44:48Z</time>
      </trkpt>
      <trkpt lat="44.89471" lon="5.36725">
        <ele>1055.1</ele>
        <time>2021-09-01T10:44:49Z</time>
      </trkpt>
      <trkpt lat="44.89473" lon="5.36719">
        <ele>1055.1</ele>
        <time>2021-09-01T10:44:50Z</time>
      </trkpt>
      <trkpt lat="44.89475" lon="5.36713">
        <ele>1055.1</ele>
        <time>2021-09-01T10:44:52Z</time>
      </trkpt>
      <trkpt lat="44.89477" lon="5.36708">
        <ele>1055.1</ele>
        <time>2021-09-01T10:44:53Z</time>
      </trkpt>
      <trkpt lat="44.89478" lon="5.36705">
        <ele>1055.1</ele>
        <time>2021-09-01T10:44:54Z</time>
      </trkpt>
      <trkpt lat="44.8948" lon="5.36698">
        <ele>1055.1</ele>
        <time>2021-09-01T10:44:55Z</time>
      </trkpt>
      <trkpt lat="44.89481" lon="5.36694">
        <ele>1055.1</ele>
        <time>2021-09-01T10:44:56Z</time>
      </trkpt>
      <trkpt lat="44.89481" lon="5.36689">
        <ele>1055.1</ele>
        <time>2021-09-01T10:44:58Z</time>
      </trkpt>
      <trkpt lat="44.89481" lon="5.36687">
        <ele>1055.1</ele>
        <time>2021-09-01T10:44:59Z</time>
      </trkpt>
      <trkpt lat="44.89481" lon="5.3668">
        <ele>1055.2</ele>
        <time>2021-09-01T10:45:01Z</time>
      </trkpt>
      <trkpt lat="44.89482" lon="5.36676">
        <ele>1055.2</ele>
        <time>2021-09-01T10:45:02Z</time>
      </trkpt>
      <trkpt lat="44.89483" lon="5.36673">
        <ele>1055.3</ele>
        <time>2021-09-01T10:45:03Z</time>
      </trkpt>
      <trkpt lat="44.89482" lon="5.36666">
        <ele>1055.3</ele>
        <time>2021-09-01T10:45:05Z</time>
      </trkpt>
      <trkpt lat="44.89482" lon="5.36662">
        <ele>1055.3</ele>
        <time>2021-09-01T10:45:06Z</time>
      </trkpt>
      <trkpt lat="44.89483" lon="5.36659">
        <ele>1055.3</ele>
        <time>2021-09-01T10:45:08Z</time>
      </trkpt>
      <trkpt lat="44.89485" lon="5.36655">
        <ele>1055.4</ele>
        <time>2021-09-01T10:45:10Z</time>
      </trkpt>
      <trkpt lat="44.89485" lon="5.36651">
        <ele>1055.4</ele>
        <time>2021-09-01T10:45:11Z</time>
      </trkpt>
      <trkpt lat="44.89485" lon="5.36647">
        <ele>1055.4</ele>
        <time>2021-09-01T10:45:12Z</time>
      </trkpt>
      <trkpt lat="44.89485" lon="5.36643">
        <ele>1055.4</ele>
        <time>2021-09-01T10:45:13Z</time>
      </trkpt>
      <trkpt lat="44.89485" lon="5.36638">
        <ele>1055.5</ele>
        <time>2021-09-01T10:45:14Z</time>
      </trkpt>
      <trkpt lat="44.89484" lon="5.36632">
        <ele>1055.5</ele>
        <time>2021-09-01T10:45:16Z</time>
      </trkpt>
      <trkpt lat="44.89482" lon="5.36626">
        <ele>1055.5</ele>
        <time>2021-09-01T10:45:17Z</time>
      </trkpt>
      <trkpt lat="44.89482" lon="5.36621">
        <ele>1055.6</ele>
        <time>2021-09-01T10:45:18Z</time>
      </trkpt>
      <trkpt lat="44.89482" lon="5.36617">
        <ele>1055.6</ele>
        <time>2021-09-01T10:45:20Z</time>
      </trkpt>
      <trkpt lat="44.89482" lon="5.36611">
        <ele>1055.7</ele>
        <time>2021-09-01T10:45:21Z</time>
      </trkpt>
      <trkpt lat="44.89482" lon="5.36606">
        <ele>1055.7</ele>
        <time>2021-09-01T10:45:23Z</time>
      </trkpt>
      <trkpt lat="44.89482" lon="5.36601">
        <ele>1055.8</ele>
        <time>2021-09-01T10:45:24Z</time>
      </trkpt>
      <trkpt lat="44.89482" lon="5.36596">
        <ele>1055.9</ele>
        <time>2021-09-01T10:45:25Z</time>
      </trkpt>
      <trkpt lat="44.89481" lon="5.36591">
        <ele>1056.1</ele>
        <time>2021-09-01T10:45:27Z</time>
      </trkpt>
      <trkpt lat="44.8948" lon="5.36586">
        <ele>1056.1</ele>
        <time>2021-09-01T10:45:28Z</time>
      </trkpt>
      <trkpt lat="44.8948" lon="5.36585">
        <ele>1056.1</ele>
        <time>2021-09-01T10:45:29Z</time>
      </trkpt>
      <trkpt lat="44.89476" lon="5.36585">
        <ele>1056.1</ele>
        <time>2021-09-01T10:45:31Z</time>
      </trkpt>
      <trkpt lat="44.89471" lon="5.36582">
        <ele>1056.1</ele>
        <time>2021-09-01T10:45:33Z</time>
      </trkpt>
      <trkpt lat="44.89469" lon="5.36584">
        <ele>1056.1</ele>
        <time>2021-09-01T10:45:34Z</time>
      </trkpt>
      <trkpt lat="44.89468" lon="5.36587">
        <ele>1056.1</ele>
        <time>2021-09-01T10:45:36Z</time>
      </trkpt>
      <trkpt lat="44.89467" lon="5.36588">
        <ele>1056.1</ele>
        <time>2021-09-01T10:45:37Z</time>
      </trkpt>
      <trkpt lat="44.89466" lon="5.36588">
        <ele>1056.1</ele>
        <time>2021-09-01T10:45:39Z</time>
      </trkpt>
      <trkpt lat="44.89464" lon="5.36586">
        <ele>1056.1</ele>
        <time>2021-09-01T10:45:41Z</time>
      </trkpt>
      <trkpt lat="44.89462" lon="5.36585">
        <ele>1056.1</ele>
        <time>2021-09-01T10:45:42Z</time>
      </trkpt>
      <trkpt lat="44.8946" lon="5.36584">
        <ele>1056.1</ele>
        <time>2021-09-01T10:45:44Z</time>
      </trkpt>
      <trkpt lat="44.89457" lon="5.36584">
        <ele>1056</ele>
        <time>2021-09-01T10:45:45Z</time>
      </trkpt>
      <trkpt lat="44.89455" lon="5.36583">
        <ele>1056</ele>
        <time>2021-09-01T10:45:47Z</time>
      </trkpt>
      <trkpt lat="44.89452" lon="5.36583">
        <ele>1056</ele>
        <time>2021-09-01T10:45:48Z</time>
      </trkpt>
      <trkpt lat="44.89449" lon="5.36582">
        <ele>1056</ele>
        <time>2021-09-01T10:45:49Z</time>
      </trkpt>
      <trkpt lat="44.89444" lon="5.36581">
        <ele>1055.9</ele>
        <time>2021-09-01T10:45:51Z</time>
      </trkpt>
      <trkpt lat="44.89439" lon="5.36578">
        <ele>1055.9</ele>
        <time>2021-09-01T10:45:52Z</time>
      </trkpt>
      <trkpt lat="44.89434" lon="5.36574">
        <ele>1055.8</ele>
        <time>2021-09-01T10:45:54Z</time>
      </trkpt>
      <trkpt lat="44.8943" lon="5.36573">
        <ele>1055.7</ele>
        <time>2021-09-01T10:45:55Z</time>
      </trkpt>
      <trkpt lat="44.89426" lon="5.36571">
        <ele>1055.7</ele>
        <time>2021-09-01T10:45:56Z</time>
      </trkpt>
      <trkpt lat="44.89423" lon="5.36569">
        <ele>1055.6</ele>
        <time>2021-09-01T10:45:57Z</time>
      </trkpt>
      <trkpt lat="44.8942" lon="5.36567">
        <ele>1055.6</ele>
        <time>2021-09-01T10:45:58Z</time>
      </trkpt>
      <trkpt lat="44.89418" lon="5.36564">
        <ele>1055.5</ele>
        <time>2021-09-01T10:46:00Z</time>
      </trkpt>
      <trkpt lat="44.89415" lon="5.36561">
        <ele>1055.5</ele>
        <time>2021-09-01T10:46:01Z</time>
      </trkpt>
      <trkpt lat="44.89411" lon="5.36557">
        <ele>1055.4</ele>
        <time>2021-09-01T10:46:03Z</time>
      </trkpt>
      <trkpt lat="44.89406" lon="5.36554">
        <ele>1055.3</ele>
        <time>2021-09-01T10:46:04Z</time>
      </trkpt>
      <trkpt lat="44.89401" lon="5.36553">
        <ele>1055.2</ele>
        <time>2021-09-01T10:46:06Z</time>
      </trkpt>
      <trkpt lat="44.89394" lon="5.36552">
        <ele>1055.1</ele>
        <time>2021-09-01T10:46:07Z</time>
      </trkpt>
      <trkpt lat="44.89388" lon="5.3655">
        <ele>1055</ele>
        <time>2021-09-01T10:46:09Z</time>
      </trkpt>
      <trkpt lat="44.89385" lon="5.36547">
        <ele>1054.9</ele>
        <time>2021-09-01T10:46:10Z</time>
      </trkpt>
      <trkpt lat="44.89381" lon="5.36545">
        <ele>1054.8</ele>
        <time>2021-09-01T10:46:11Z</time>
      </trkpt>
      <trkpt lat="44.89375" lon="5.36544">
        <ele>1054.7</ele>
        <time>2021-09-01T10:46:12Z</time>
      </trkpt>
      <trkpt lat="44.8937" lon="5.36544">
        <ele>1054.7</ele>
        <time>2021-09-01T10:46:13Z</time>
      </trkpt>
      <trkpt lat="44.89365" lon="5.36543">
        <ele>1054.6</ele>
        <time>2021-09-01T10:46:15Z</time>
      </trkpt>
      <trkpt lat="44.89359" lon="5.36542">
        <ele>1054.6</ele>
        <time>2021-09-01T10:46:17Z</time>
      </trkpt>
      <trkpt lat="44.89354" lon="5.3654">
        <ele>1054.5</ele>
        <time>2021-09-01T10:46:18Z</time>
      </trkpt>
      <trkpt lat="44.89349" lon="5.3654">
        <ele>1054.5</ele>
        <time>2021-09-01T10:46:19Z</time>
      </trkpt>
      <trkpt lat="44.89342" lon="5.3654">
        <ele>1054.4</ele>
        <time>2021-09-01T10:46:21Z</time>
      </trkpt>
      <trkpt lat="44.89339" lon="5.3654">
        <ele>1054.4</ele>
        <time>2021-09-01T10:46:23Z</time>
      </trkpt>
      <trkpt lat="44.89334" lon="5.36542">
        <ele>1054.4</ele>
        <time>2021-09-01T10:46:24Z</time>
      </trkpt>
      <trkpt lat="44.89331" lon="5.36542">
        <ele>1054.4</ele>
        <time>2021-09-01T10:46:25Z</time>
      </trkpt>
      <trkpt lat="44.89329" lon="5.36543">
        <ele>1054.4</ele>
        <time>2021-09-01T10:46:26Z</time>
      </trkpt>
      <trkpt lat="44.89325" lon="5.36545">
        <ele>1054.4</ele>
        <time>2021-09-01T10:46:27Z</time>
      </trkpt>
      <trkpt lat="44.89322" lon="5.36547">
        <ele>1054.3</ele>
        <time>2021-09-01T10:46:29Z</time>
      </trkpt>
      <trkpt lat="44.89317" lon="5.3655">
        <ele>1054.3</ele>
        <time>2021-09-01T10:46:30Z</time>
      </trkpt>
      <trkpt lat="44.89314" lon="5.36552">
        <ele>1054.3</ele>
        <time>2021-09-01T10:46:31Z</time>
      </trkpt>
      <trkpt lat="44.89309" lon="5.36555">
        <ele>1054.3</ele>
        <time>2021-09-01T10:46:33Z</time>
      </trkpt>
      <trkpt lat="44.89305" lon="5.36557">
        <ele>1054.3</ele>
        <time>2021-09-01T10:46:34Z</time>
      </trkpt>
      <trkpt lat="44.89302" lon="5.36559">
        <ele>1054.3</ele>
        <time>2021-09-01T10:46:35Z</time>
      </trkpt>
      <trkpt lat="44.89297" lon="5.36562">
        <ele>1054.3</ele>
        <time>2021-09-01T10:46:36Z</time>
      </trkpt>
      <trkpt lat="44.89292" lon="5.36565">
        <ele>1054.2</ele>
        <time>2021-09-01T10:46:38Z</time>
      </trkpt>
      <trkpt lat="44.89287" lon="5.36568">
        <ele>1054.2</ele>
        <time>2021-09-01T10:46:39Z</time>
      </trkpt>
      <trkpt lat="44.89285" lon="5.3657">
        <ele>1054.2</ele>
        <time>2021-09-01T10:46:40Z</time>
      </trkpt>
      <trkpt lat="44.8928" lon="5.36573">
        <ele>1054.2</ele>
        <time>2021-09-01T10:46:42Z</time>
      </trkpt>
      <trkpt lat="44.89275" lon="5.36576">
        <ele>1054.2</ele>
        <time>2021-09-01T10:46:43Z</time>
      </trkpt>
      <trkpt lat="44.89269" lon="5.36578">
        <ele>1054.2</ele>
        <time>2021-09-01T10:46:45Z</time>
      </trkpt>
      <trkpt lat="44.89265" lon="5.3658">
        <ele>1054.2</ele>
        <time>2021-09-01T10:46:46Z</time>
      </trkpt>
      <trkpt lat="44.8926" lon="5.36581">
        <ele>1054.2</ele>
        <time>2021-09-01T10:46:47Z</time>
      </trkpt>
      <trkpt lat="44.89256" lon="5.36581">
        <ele>1054.2</ele>
        <time>2021-09-01T10:46:48Z</time>
      </trkpt>
      <trkpt lat="44.89251" lon="5.36582">
        <ele>1054.2</ele>
        <time>2021-09-01T10:46:49Z</time>
      </trkpt>
      <trkpt lat="44.89246" lon="5.36583">
        <ele>1054.2</ele>
        <time>2021-09-01T10:46:51Z</time>
      </trkpt>
      <trkpt lat="44.89243" lon="5.36584">
        <ele>1054.2</ele>
        <time>2021-09-01T10:46:52Z</time>
      </trkpt>
      <trkpt lat="44.89239" lon="5.36584">
        <ele>1054.2</ele>
        <time>2021-09-01T10:46:53Z</time>
      </trkpt>
      <trkpt lat="44.89234" lon="5.36584">
        <ele>1054.3</ele>
        <time>2021-09-01T10:46:55Z</time>
      </trkpt>
      <trkpt lat="44.89229" lon="5.36585">
        <ele>1054.3</ele>
        <time>2021-09-01T10:46:57Z</time>
      </trkpt>
      <trkpt lat="44.89225" lon="5.36587">
        <ele>1054.4</ele>
        <time>2021-09-01T10:46:58Z</time>
      </trkpt>
      <trkpt lat="44.89223" lon="5.36587">
        <ele>1054.4</ele>
        <time>2021-09-01T10:46:59Z</time>
      </trkpt>
      <trkpt lat="44.89218" lon="5.36588">
        <ele>1054.4</ele>
        <time>2021-09-01T10:47:00Z</time>
      </trkpt>
      <trkpt lat="44.89213" lon="5.36588">
        <ele>1054.5</ele>
        <time>2021-09-01T10:47:02Z</time>
      </trkpt>
      <trkpt lat="44.8921" lon="5.36589">
        <ele>1054.5</ele>
        <time>2021-09-01T10:47:03Z</time>
      </trkpt>
      <trkpt lat="44.89204" lon="5.3659">
        <ele>1054.6</ele>
        <time>2021-09-01T10:47:04Z</time>
      </trkpt>
      <trkpt lat="44.89199" lon="5.3659">
        <ele>1054.7</ele>
        <time>2021-09-01T10:47:06Z</time>
      </trkpt>
      <trkpt lat="44.89192" lon="5.3659">
        <ele>1054.8</ele>
        <time>2021-09-01T10:47:08Z</time>
      </trkpt>
      <trkpt lat="44.89188" lon="5.3659">
        <ele>1054.8</ele>
        <time>2021-09-01T10:47:09Z</time>
      </trkpt>
      <trkpt lat="44.89183" lon="5.36591">
        <ele>1054.8</ele>
        <time>2021-09-01T10:47:10Z</time>
      </trkpt>
      <trkpt lat="44.8918" lon="5.36591">
        <ele>1054.9</ele>
        <time>2021-09-01T10:47:11Z</time>
      </trkpt>
      <trkpt lat="44.89177" lon="5.36592">
        <ele>1054.9</ele>
        <time>2021-09-01T10:47:12Z</time>
      </trkpt>
      <trkpt lat="44.89172" lon="5.36595">
        <ele>1054.9</ele>
        <time>2021-09-01T10:47:14Z</time>
      </trkpt>
      <trkpt lat="44.89167" lon="5.36596">
        <ele>1055</ele>
        <time>2021-09-01T10:47:15Z</time>
      </trkpt>
      <trkpt lat="44.89163" lon="5.36596">
        <ele>1055</ele>
        <time>2021-09-01T10:47:17Z</time>
      </trkpt>
      <trkpt lat="44.89159" lon="5.36597">
        <ele>1055</ele>
        <time>2021-09-01T10:47:18Z</time>
      </trkpt>
      <trkpt lat="44.89156" lon="5.36598">
        <ele>1055.1</ele>
        <time>2021-09-01T10:47:19Z</time>
      </trkpt>
      <trkpt lat="44.89152" lon="5.36601">
        <ele>1055.1</ele>
        <time>2021-09-01T10:47:20Z</time>
      </trkpt>
      <trkpt lat="44.89148" lon="5.36602">
        <ele>1055.2</ele>
        <time>2021-09-01T10:47:21Z</time>
      </trkpt>
      <trkpt lat="44.89144" lon="5.36602">
        <ele>1055.2</ele>
        <time>2021-09-01T10:47:23Z</time>
      </trkpt>
      <trkpt lat="44.8914" lon="5.36603">
        <ele>1055.3</ele>
        <time>2021-09-01T10:47:24Z</time>
      </trkpt>
      <trkpt lat="44.89135" lon="5.36603">
        <ele>1055.4</ele>
        <time>2021-09-01T10:47:26Z</time>
      </trkpt>
      <trkpt lat="44.8913" lon="5.36604">
        <ele>1055.5</ele>
        <time>2021-09-01T10:47:27Z</time>
      </trkpt>
      <trkpt lat="44.89126" lon="5.36604">
        <ele>1055.5</ele>
        <time>2021-09-01T10:47:28Z</time>
      </trkpt>
      <trkpt lat="44.89122" lon="5.36604">
        <ele>1055.5</ele>
        <time>2021-09-01T10:47:29Z</time>
      </trkpt>
      <trkpt lat="44.89117" lon="5.36604">
        <ele>1055.6</ele>
        <time>2021-09-01T10:47:31Z</time>
      </trkpt>
      <trkpt lat="44.89113" lon="5.36606">
        <ele>1055.6</ele>
        <time>2021-09-01T10:47:32Z</time>
      </trkpt>
      <trkpt lat="44.89109" lon="5.36607">
        <ele>1055.6</ele>
        <time>2021-09-01T10:47:33Z</time>
      </trkpt>
      <trkpt lat="44.89105" lon="5.36607">
        <ele>1055.6</ele>
        <time>2021-09-01T10:47:34Z</time>
      </trkpt>
      <trkpt lat="44.89101" lon="5.36607">
        <ele>1055.7</ele>
        <time>2021-09-01T10:47:35Z</time>
      </trkpt>
      <trkpt lat="44.89097" lon="5.36607">
        <ele>1055.7</ele>
        <time>2021-09-01T10:47:36Z</time>
      </trkpt>
      <trkpt lat="44.89094" lon="5.36608">
        <ele>1055.7</ele>
        <time>2021-09-01T10:47:37Z</time>
      </trkpt>
      <trkpt lat="44.8909" lon="5.36609">
        <ele>1055.7</ele>
        <time>2021-09-01T10:47:38Z</time>
      </trkpt>
      <trkpt lat="44.89086" lon="5.36609">
        <ele>1055.8</ele>
        <time>2021-09-01T10:47:40Z</time>
      </trkpt>
      <trkpt lat="44.89082" lon="5.36609">
        <ele>1055.8</ele>
        <time>2021-09-01T10:47:41Z</time>
      </trkpt>
      <trkpt lat="44.89077" lon="5.36609">
        <ele>1055.8</ele>
        <time>2021-09-01T10:47:42Z</time>
      </trkpt>
      <trkpt lat="44.89074" lon="5.36609">
        <ele>1055.8</ele>
        <time>2021-09-01T10:47:43Z</time>
      </trkpt>
      <trkpt lat="44.8907" lon="5.36609">
        <ele>1055.8</ele>
        <time>2021-09-01T10:47:44Z</time>
      </trkpt>
      <trkpt lat="44.89064" lon="5.36609">
        <ele>1055.9</ele>
        <time>2021-09-01T10:47:45Z</time>
      </trkpt>
      <trkpt lat="44.8906" lon="5.36608">
        <ele>1055.9</ele>
        <time>2021-09-01T10:47:46Z</time>
      </trkpt>
      <trkpt lat="44.89056" lon="5.36607">
        <ele>1055.9</ele>
        <time>2021-09-01T10:47:48Z</time>
      </trkpt>
      <trkpt lat="44.89053" lon="5.36607">
        <ele>1055.9</ele>
        <time>2021-09-01T10:47:49Z</time>
      </trkpt>
      <trkpt lat="44.89048" lon="5.36607">
        <ele>1055.9</ele>
        <time>2021-09-01T10:47:50Z</time>
      </trkpt>
      <trkpt lat="44.89044" lon="5.36607">
        <ele>1056</ele>
        <time>2021-09-01T10:47:52Z</time>
      </trkpt>
      <trkpt lat="44.8904" lon="5.36606">
        <ele>1056</ele>
        <time>2021-09-01T10:47:53Z</time>
      </trkpt>
      <trkpt lat="44.89037" lon="5.36606">
        <ele>1056</ele>
        <time>2021-09-01T10:47:54Z</time>
      </trkpt>
      <trkpt lat="44.89031" lon="5.36606">
        <ele>1056.1</ele>
        <time>2021-09-01T10:47:56Z</time>
      </trkpt>
      <trkpt lat="44.89027" lon="5.36605">
        <ele>1056.2</ele>
        <time>2021-09-01T10:47:57Z</time>
      </trkpt>
      <trkpt lat="44.89022" lon="5.36606">
        <ele>1056.3</ele>
        <time>2021-09-01T10:47:59Z</time>
      </trkpt>
      <trkpt lat="44.8902" lon="5.36607">
        <ele>1056.3</ele>
        <time>2021-09-01T10:48:00Z</time>
      </trkpt>
      <trkpt lat="44.89015" lon="5.36609">
        <ele>1056.4</ele>
        <time>2021-09-01T10:48:02Z</time>
      </trkpt>
      <trkpt lat="44.89012" lon="5.36609">
        <ele>1056.5</ele>
        <time>2021-09-01T10:48:03Z</time>
      </trkpt>
      <trkpt lat="44.89008" lon="5.3661">
        <ele>1056.5</ele>
        <time>2021-09-01T10:48:04Z</time>
      </trkpt>
      <trkpt lat="44.89005" lon="5.36611">
        <ele>1056.6</ele>
        <time>2021-09-01T10:48:05Z</time>
      </trkpt>
      <trkpt lat="44.89002" lon="5.36611">
        <ele>1056.7</ele>
        <time>2021-09-01T10:48:06Z</time>
      </trkpt>
      <trkpt lat="44.89" lon="5.36612">
        <ele>1056.7</ele>
        <time>2021-09-01T10:48:08Z</time>
      </trkpt>
      <trkpt lat="44.88996" lon="5.36613">
        <ele>1056.8</ele>
        <time>2021-09-01T10:48:09Z</time>
      </trkpt>
      <trkpt lat="44.88993" lon="5.36613">
        <ele>1056.8</ele>
        <time>2021-09-01T10:48:11Z</time>
      </trkpt>
      <trkpt lat="44.88987" lon="5.36613">
        <ele>1056.9</ele>
        <time>2021-09-01T10:48:13Z</time>
      </trkpt>
      <trkpt lat="44.88984" lon="5.36613">
        <ele>1057</ele>
        <time>2021-09-01T10:48:14Z</time>
      </trkpt>
      <trkpt lat="44.88982" lon="5.36613">
        <ele>1057</ele>
        <time>2021-09-01T10:48:15Z</time>
      </trkpt>
      <trkpt lat="44.88979" lon="5.36613">
        <ele>1057</ele>
        <time>2021-09-01T10:48:16Z</time>
      </trkpt>
      <trkpt lat="44.88974" lon="5.36615">
        <ele>1057.1</ele>
        <time>2021-09-01T10:48:17Z</time>
      </trkpt>
      <trkpt lat="44.88968" lon="5.36615">
        <ele>1057.1</ele>
        <time>2021-09-01T10:48:19Z</time>
      </trkpt>
      <trkpt lat="44.88964" lon="5.36616">
        <ele>1057.1</ele>
        <time>2021-09-01T10:48:21Z</time>
      </trkpt>
      <trkpt lat="44.8896" lon="5.36616">
        <ele>1057.1</ele>
        <time>2021-09-01T10:48:22Z</time>
      </trkpt>
      <trkpt lat="44.88955" lon="5.36618">
        <ele>1057.1</ele>
        <time>2021-09-01T10:48:23Z</time>
      </trkpt>
      <trkpt lat="44.88951" lon="5.36619">
        <ele>1057.1</ele>
        <time>2021-09-01T10:48:24Z</time>
      </trkpt>
      <trkpt lat="44.88946" lon="5.36619">
        <ele>1057.1</ele>
        <time>2021-09-01T10:48:26Z</time>
      </trkpt>
      <trkpt lat="44.88941" lon="5.36618">
        <ele>1057</ele>
        <time>2021-09-01T10:48:27Z</time>
      </trkpt>
      <trkpt lat="44.88936" lon="5.36617">
        <ele>1057</ele>
        <time>2021-09-01T10:48:29Z</time>
      </trkpt>
      <trkpt lat="44.88932" lon="5.36618">
        <ele>1057</ele>
        <time>2021-09-01T10:48:30Z</time>
      </trkpt>
      <trkpt lat="44.88929" lon="5.36618">
        <ele>1057</ele>
        <time>2021-09-01T10:48:31Z</time>
      </trkpt>
      <trkpt lat="44.88924" lon="5.36619">
        <ele>1057</ele>
        <time>2021-09-01T10:48:32Z</time>
      </trkpt>
      <trkpt lat="44.88919" lon="5.36619">
        <ele>1057</ele>
        <time>2021-09-01T10:48:34Z</time>
      </trkpt>
      <trkpt lat="44.88916" lon="5.3662">
        <ele>1057</ele>
        <time>2021-09-01T10:48:35Z</time>
      </trkpt>
      <trkpt lat="44.8891" lon="5.3662">
        <ele>1057</ele>
        <time>2021-09-01T10:48:36Z</time>
      </trkpt>
      <trkpt lat="44.88907" lon="5.3662">
        <ele>1057</ele>
        <time>2021-09-01T10:48:37Z</time>
      </trkpt>
      <trkpt lat="44.88904" lon="5.3662">
        <ele>1057.1</ele>
        <time>2021-09-01T10:48:39Z</time>
      </trkpt>
      <trkpt lat="44.889" lon="5.3662">
        <ele>1057.1</ele>
        <time>2021-09-01T10:48:40Z</time>
      </trkpt>
      <trkpt lat="44.88896" lon="5.36619">
        <ele>1057.1</ele>
        <time>2021-09-01T10:48:41Z</time>
      </trkpt>
      <trkpt lat="44.88892" lon="5.36618">
        <ele>1057.2</ele>
        <time>2021-09-01T10:48:42Z</time>
      </trkpt>
      <trkpt lat="44.88889" lon="5.36617">
        <ele>1057.2</ele>
        <time>2021-09-01T10:48:43Z</time>
      </trkpt>
      <trkpt lat="44.88885" lon="5.36617">
        <ele>1057.2</ele>
        <time>2021-09-01T10:48:44Z</time>
      </trkpt>
      <trkpt lat="44.88881" lon="5.36618">
        <ele>1057.2</ele>
        <time>2021-09-01T10:48:46Z</time>
      </trkpt>
      <trkpt lat="44.88877" lon="5.36618">
        <ele>1057.3</ele>
        <time>2021-09-01T10:48:47Z</time>
      </trkpt>
      <trkpt lat="44.88873" lon="5.36619">
        <ele>1057.3</ele>
        <time>2021-09-01T10:48:48Z</time>
      </trkpt>
      <trkpt lat="44.88869" lon="5.36619">
        <ele>1057.3</ele>
        <time>2021-09-01T10:48:49Z</time>
      </trkpt>
      <trkpt lat="44.88866" lon="5.36619">
        <ele>1057.3</ele>
        <time>2021-09-01T10:48:51Z</time>
      </trkpt>
      <trkpt lat="44.88863" lon="5.36618">
        <ele>1057.3</ele>
        <time>2021-09-01T10:48:52Z</time>
      </trkpt>
      <trkpt lat="44.88859" lon="5.36619">
        <ele>1057.4</ele>
        <time>2021-09-01T10:48:53Z</time>
      </trkpt>
      <trkpt lat="44.88857" lon="5.36619">
        <ele>1057.4</ele>
        <time>2021-09-01T10:48:54Z</time>
      </trkpt>
      <trkpt lat="44.88853" lon="5.3662">
        <ele>1057.4</ele>
        <time>2021-09-01T10:48:56Z</time>
      </trkpt>
      <trkpt lat="44.88851" lon="5.3662">
        <ele>1057.4</ele>
        <time>2021-09-01T10:48:57Z</time>
      </trkpt>
      <trkpt lat="44.88849" lon="5.3662">
        <ele>1057.4</ele>
        <time>2021-09-01T10:48:58Z</time>
      </trkpt>
      <trkpt lat="44.88846" lon="5.3662">
        <ele>1057.5</ele>
        <time>2021-09-01T10:48:59Z</time>
      </trkpt>
      <trkpt lat="44.88842" lon="5.36621">
        <ele>1057.5</ele>
        <time>2021-09-01T10:49:00Z</time>
      </trkpt>
      <trkpt lat="44.8884" lon="5.3662">
        <ele>1057.6</ele>
        <time>2021-09-01T10:49:01Z</time>
      </trkpt>
      <trkpt lat="44.88837" lon="5.3662">
        <ele>1057.6</ele>
        <time>2021-09-01T10:49:03Z</time>
      </trkpt>
      <trkpt lat="44.88833" lon="5.36621">
        <ele>1057.6</ele>
        <time>2021-09-01T10:49:04Z</time>
      </trkpt>
      <trkpt lat="44.8883" lon="5.36621">
        <ele>1057.7</ele>
        <time>2021-09-01T10:49:05Z</time>
      </trkpt>
      <trkpt lat="44.88827" lon="5.3662">
        <ele>1057.7</ele>
        <time>2021-09-01T10:49:06Z</time>
      </trkpt>
      <trkpt lat="44.88823" lon="5.3662">
        <ele>1057.8</ele>
        <time>2021-09-01T10:49:08Z</time>
      </trkpt>
      <trkpt lat="44.88818" lon="5.36618">
        <ele>1057.8</ele>
        <time>2021-09-01T10:49:09Z</time>
      </trkpt>
      <trkpt lat="44.88813" lon="5.36617">
        <ele>1057.9</ele>
        <time>2021-09-01T10:49:11Z</time>
      </trkpt>
      <trkpt lat="44.8881" lon="5.36616">
        <ele>1057.9</ele>
        <time>2021-09-01T10:49:12Z</time>
      </trkpt>
      <trkpt lat="44.88806" lon="5.36615">
        <ele>1058</ele>
        <time>2021-09-01T10:49:13Z</time>
      </trkpt>
      <trkpt lat="44.88804" lon="5.36614">
        <ele>1058</ele>
        <time>2021-09-01T10:49:14Z</time>
      </trkpt>
      <trkpt lat="44.88802" lon="5.36614">
        <ele>1058</ele>
        <time>2021-09-01T10:49:16Z</time>
      </trkpt>
      <trkpt lat="44.88801" lon="5.36614">
        <ele>1058</ele>
        <time>2021-09-01T10:49:17Z</time>
      </trkpt>
      <trkpt lat="44.88798" lon="5.36614">
        <ele>1058</ele>
        <time>2021-09-01T10:49:18Z</time>
      </trkpt>
      <trkpt lat="44.88792" lon="5.36613">
        <ele>1058</ele>
        <time>2021-09-01T10:49:19Z</time>
      </trkpt>
      <trkpt lat="44.88786" lon="5.36613">
        <ele>1058</ele>
        <time>2021-09-01T10:49:21Z</time>
      </trkpt>
      <trkpt lat="44.88783" lon="5.36612">
        <ele>1058</ele>
        <time>2021-09-01T10:49:22Z</time>
      </trkpt>
      <trkpt lat="44.88777" lon="5.36611">
        <ele>1058</ele>
        <time>2021-09-01T10:49:23Z</time>
      </trkpt>
      <trkpt lat="44.88771" lon="5.36609">
        <ele>1058</ele>
        <time>2021-09-01T10:49:24Z</time>
      </trkpt>
      <trkpt lat="44.88765" lon="5.36607">
        <ele>1058</ele>
        <time>2021-09-01T10:49:26Z</time>
      </trkpt>
      <trkpt lat="44.88758" lon="5.36605">
        <ele>1058</ele>
        <time>2021-09-01T10:49:27Z</time>
      </trkpt>
      <trkpt lat="44.88751" lon="5.36605">
        <ele>1058.1</ele>
        <time>2021-09-01T10:49:29Z</time>
      </trkpt>
      <trkpt lat="44.88742" lon="5.36603">
        <ele>1058.2</ele>
        <time>2021-09-01T10:49:31Z</time>
      </trkpt>
      <trkpt lat="44.88734" lon="5.36601">
        <ele>1058.2</ele>
        <time>2021-09-01T10:49:32Z</time>
      </trkpt>
      <trkpt lat="44.88728" lon="5.36601">
        <ele>1058.3</ele>
        <time>2021-09-01T10:49:34Z</time>
      </trkpt>
      <trkpt lat="44.88721" lon="5.366">
        <ele>1058.4</ele>
        <time>2021-09-01T10:49:35Z</time>
      </trkpt>
      <trkpt lat="44.88715" lon="5.366">
        <ele>1058.4</ele>
        <time>2021-09-01T10:49:37Z</time>
      </trkpt>
      <trkpt lat="44.88711" lon="5.366">
        <ele>1058.5</ele>
        <time>2021-09-01T10:49:38Z</time>
      </trkpt>
      <trkpt lat="44.88703" lon="5.36599">
        <ele>1058.6</ele>
        <time>2021-09-01T10:49:40Z</time>
      </trkpt>
      <trkpt lat="44.887" lon="5.366">
        <ele>1058.6</ele>
        <time>2021-09-01T10:49:41Z</time>
      </trkpt>
      <trkpt lat="44.88696" lon="5.36599">
        <ele>1058.6</ele>
        <time>2021-09-01T10:49:42Z</time>
      </trkpt>
      <trkpt lat="44.8869" lon="5.36599">
        <ele>1058.7</ele>
        <time>2021-09-01T10:49:43Z</time>
      </trkpt>
      <trkpt lat="44.88686" lon="5.36599">
        <ele>1058.7</ele>
        <time>2021-09-01T10:49:45Z</time>
      </trkpt>
      <trkpt lat="44.88681" lon="5.366">
        <ele>1058.8</ele>
        <time>2021-09-01T10:49:46Z</time>
      </trkpt>
      <trkpt lat="44.88678" lon="5.366">
        <ele>1058.8</ele>
        <time>2021-09-01T10:49:47Z</time>
      </trkpt>
      <trkpt lat="44.88674" lon="5.36599">
        <ele>1058.8</ele>
        <time>2021-09-01T10:49:48Z</time>
      </trkpt>
      <trkpt lat="44.88671" lon="5.36599">
        <ele>1058.8</ele>
        <time>2021-09-01T10:49:50Z</time>
      </trkpt>
      <trkpt lat="44.88667" lon="5.36597">
        <ele>1058.8</ele>
        <time>2021-09-01T10:49:51Z</time>
      </trkpt>
      <trkpt lat="44.88664" lon="5.36594">
        <ele>1058.8</ele>
        <time>2021-09-01T10:49:52Z</time>
      </trkpt>
      <trkpt lat="44.8866" lon="5.36592">
        <ele>1058.7</ele>
        <time>2021-09-01T10:49:54Z</time>
      </trkpt>
      <trkpt lat="44.88653" lon="5.3659">
        <ele>1058.7</ele>
        <time>2021-09-01T10:49:56Z</time>
      </trkpt>
      <trkpt lat="44.88647" lon="5.36587">
        <ele>1058.7</ele>
        <time>2021-09-01T10:49:57Z</time>
      </trkpt>
      <trkpt lat="44.88642" lon="5.36584">
        <ele>1058.7</ele>
        <time>2021-09-01T10:49:59Z</time>
      </trkpt>
      <trkpt lat="44.88639" lon="5.36581">
        <ele>1058.7</ele>
        <time>2021-09-01T10:50:00Z</time>
      </trkpt>
      <trkpt lat="44.88635" lon="5.36578">
        <ele>1058.7</ele>
        <time>2021-09-01T10:50:01Z</time>
      </trkpt>
      <trkpt lat="44.88629" lon="5.36576">
        <ele>1058.7</ele>
        <time>2021-09-01T10:50:02Z</time>
      </trkpt>
      <trkpt lat="44.88626" lon="5.36573">
        <ele>1058.7</ele>
        <time>2021-09-01T10:50:03Z</time>
      </trkpt>
      <trkpt lat="44.88621" lon="5.36569">
        <ele>1058.7</ele>
        <time>2021-09-01T10:50:05Z</time>
      </trkpt>
      <trkpt lat="44.88617" lon="5.36566">
        <ele>1058.7</ele>
        <time>2021-09-01T10:50:06Z</time>
      </trkpt>
      <trkpt lat="44.88613" lon="5.36562">
        <ele>1058.7</ele>
        <time>2021-09-01T10:50:07Z</time>
      </trkpt>
      <trkpt lat="44.88608" lon="5.36558">
        <ele>1058.8</ele>
        <time>2021-09-01T10:50:08Z</time>
      </trkpt>
      <trkpt lat="44.88603" lon="5.36551">
        <ele>1058.8</ele>
        <time>2021-09-01T10:50:10Z</time>
      </trkpt>
      <trkpt lat="44.88601" lon="5.36547">
        <ele>1058.9</ele>
        <time>2021-09-01T10:50:11Z</time>
      </trkpt>
      <trkpt lat="44.88598" lon="5.36541">
        <ele>1058.9</ele>
        <time>2021-09-01T10:50:13Z</time>
      </trkpt>
      <trkpt lat="44.88596" lon="5.36537">
        <ele>1058.9</ele>
        <time>2021-09-01T10:50:15Z</time>
      </trkpt>
      <trkpt lat="44.88594" lon="5.36533">
        <ele>1059</ele>
        <time>2021-09-01T10:50:16Z</time>
      </trkpt>
      <trkpt lat="44.88593" lon="5.3653">
        <ele>1059</ele>
        <time>2021-09-01T10:50:17Z</time>
      </trkpt>
      <trkpt lat="44.88589" lon="5.36526">
        <ele>1059.1</ele>
        <time>2021-09-01T10:50:18Z</time>
      </trkpt>
      <trkpt lat="44.88585" lon="5.36522">
        <ele>1059.1</ele>
        <time>2021-09-01T10:50:20Z</time>
      </trkpt>
      <trkpt lat="44.88584" lon="5.36521">
        <ele>1059.2</ele>
        <time>2021-09-01T10:50:21Z</time>
      </trkpt>
      <trkpt lat="44.88582" lon="5.3652">
        <ele>1059.2</ele>
        <time>2021-09-01T10:50:22Z</time>
      </trkpt>
      <trkpt lat="44.8858" lon="5.36518">
        <ele>1059.2</ele>
        <time>2021-09-01T10:50:23Z</time>
      </trkpt>
      <trkpt lat="44.88576" lon="5.36514">
        <ele>1059.3</ele>
        <time>2021-09-01T10:50:25Z</time>
      </trkpt>
      <trkpt lat="44.88574" lon="5.36513">
        <ele>1059.3</ele>
        <time>2021-09-01T10:50:26Z</time>
      </trkpt>
      <trkpt lat="44.88573" lon="5.36512">
        <ele>1059.4</ele>
        <time>2021-09-01T10:50:27Z</time>
      </trkpt>
      <trkpt lat="44.88569" lon="5.3651">
        <ele>1059.4</ele>
        <time>2021-09-01T10:50:28Z</time>
      </trkpt>
      <trkpt lat="44.88566" lon="5.36509">
        <ele>1059.5</ele>
        <time>2021-09-01T10:50:30Z</time>
      </trkpt>
      <trkpt lat="44.88563" lon="5.36507">
        <ele>1059.5</ele>
        <time>2021-09-01T10:50:31Z</time>
      </trkpt>
      <trkpt lat="44.88562" lon="5.36506">
        <ele>1059.5</ele>
        <time>2021-09-01T10:50:32Z</time>
      </trkpt>
      <trkpt lat="44.88559" lon="5.36504">
        <ele>1059.6</ele>
        <time>2021-09-01T10:50:34Z</time>
      </trkpt>
      <trkpt lat="44.88557" lon="5.36504">
        <ele>1059.6</ele>
        <time>2021-09-01T10:50:35Z</time>
      </trkpt>
      <trkpt lat="44.88556" lon="5.36503">
        <ele>1059.6</ele>
        <time>2021-09-01T10:50:36Z</time>
      </trkpt>
      <trkpt lat="44.88553" lon="5.36502">
        <ele>1059.7</ele>
        <time>2021-09-01T10:50:37Z</time>
      </trkpt>
      <trkpt lat="44.88552" lon="5.36501">
        <ele>1059.7</ele>
        <time>2021-09-01T10:50:38Z</time>
      </trkpt>
      <trkpt lat="44.88549" lon="5.36501">
        <ele>1059.8</ele>
        <time>2021-09-01T10:50:39Z</time>
      </trkpt>
      <trkpt lat="44.88544" lon="5.365">
        <ele>1059.9</ele>
        <time>2021-09-01T10:50:40Z</time>
      </trkpt>
      <trkpt lat="44.88538" lon="5.36501">
        <ele>1060</ele>
        <time>2021-09-01T10:50:42Z</time>
      </trkpt>
      <trkpt lat="44.88535" lon="5.36502">
        <ele>1060</ele>
        <time>2021-09-01T10:50:43Z</time>
      </trkpt>
      <trkpt lat="44.88532" lon="5.36502">
        <ele>1060.1</ele>
        <time>2021-09-01T10:50:45Z</time>
      </trkpt>
      <trkpt lat="44.88531" lon="5.36503">
        <ele>1060.1</ele>
        <time>2021-09-01T10:50:46Z</time>
      </trkpt>
      <trkpt lat="44.88527" lon="5.36503">
        <ele>1060.2</ele>
        <time>2021-09-01T10:50:48Z</time>
      </trkpt>
      <trkpt lat="44.88524" lon="5.36503">
        <ele>1060.3</ele>
        <time>2021-09-01T10:50:49Z</time>
      </trkpt>
      <trkpt lat="44.88519" lon="5.36503">
        <ele>1060.4</ele>
        <time>2021-09-01T10:50:50Z</time>
      </trkpt>
      <trkpt lat="44.88518" lon="5.36503">
        <ele>1060.4</ele>
        <time>2021-09-01T10:50:51Z</time>
      </trkpt>
      <trkpt lat="44.88513" lon="5.36502">
        <ele>1060.6</ele>
        <time>2021-09-01T10:50:52Z</time>
      </trkpt>
      <trkpt lat="44.88507" lon="5.36501">
        <ele>1060.9</ele>
        <time>2021-09-01T10:50:54Z</time>
      </trkpt>
      <trkpt lat="44.88504" lon="5.36499">
        <ele>1061</ele>
        <time>2021-09-01T10:50:56Z</time>
      </trkpt>
      <trkpt lat="44.88501" lon="5.36499">
        <ele>1061.1</ele>
        <time>2021-09-01T10:50:57Z</time>
      </trkpt>
      <trkpt lat="44.88497" lon="5.36498">
        <ele>1061.2</ele>
        <time>2021-09-01T10:50:59Z</time>
      </trkpt>
      <trkpt lat="44.88494" lon="5.36496">
        <ele>1061.4</ele>
        <time>2021-09-01T10:51:00Z</time>
      </trkpt>
      <trkpt lat="44.88491" lon="5.36494">
        <ele>1061.5</ele>
        <time>2021-09-01T10:51:02Z</time>
      </trkpt>
      <trkpt lat="44.88488" lon="5.36493">
        <ele>1061.6</ele>
        <time>2021-09-01T10:51:03Z</time>
      </trkpt>
      <trkpt lat="44.88487" lon="5.36493">
        <ele>1061.7</ele>
        <time>2021-09-01T10:51:04Z</time>
      </trkpt>
      <trkpt lat="44.88484" lon="5.36492">
        <ele>1061.8</ele>
        <time>2021-09-01T10:51:06Z</time>
      </trkpt>
      <trkpt lat="44.88481" lon="5.3649">
        <ele>1062</ele>
        <time>2021-09-01T10:51:07Z</time>
      </trkpt>
      <trkpt lat="44.8848" lon="5.3649">
        <ele>1062</ele>
        <time>2021-09-01T10:51:08Z</time>
      </trkpt>
      <trkpt lat="44.88476" lon="5.36487">
        <ele>1062.2</ele>
        <time>2021-09-01T10:51:09Z</time>
      </trkpt>
      <trkpt lat="44.88474" lon="5.36485">
        <ele>1062.3</ele>
        <time>2021-09-01T10:51:11Z</time>
      </trkpt>
      <trkpt lat="44.88473" lon="5.36484">
        <ele>1062.3</ele>
        <time>2021-09-01T10:51:12Z</time>
      </trkpt>
      <trkpt lat="44.88471" lon="5.36481">
        <ele>1062.4</ele>
        <time>2021-09-01T10:51:13Z</time>
      </trkpt>
      <trkpt lat="44.88471" lon="5.36478">
        <ele>1062.5</ele>
        <time>2021-09-01T10:51:15Z</time>
      </trkpt>
      <trkpt lat="44.8847" lon="5.36474">
        <ele>1062.6</ele>
        <time>2021-09-01T10:51:16Z</time>
      </trkpt>
      <trkpt lat="44.8847" lon="5.36472">
        <ele>1062.7</ele>
        <time>2021-09-01T10:51:17Z</time>
      </trkpt>
      <trkpt lat="44.88467" lon="5.3647">
        <ele>1062.8</ele>
        <time>2021-09-01T10:51:19Z</time>
      </trkpt>
      <trkpt lat="44.88465" lon="5.36466">
        <ele>1063</ele>
        <time>2021-09-01T10:51:20Z</time>
      </trkpt>
      <trkpt lat="44.88462" lon="5.36463">
        <ele>1063.1</ele>
        <time>2021-09-01T10:51:21Z</time>
      </trkpt>
      <trkpt lat="44.88461" lon="5.36463">
        <ele>1063.2</ele>
        <time>2021-09-01T10:51:22Z</time>
      </trkpt>
      <trkpt lat="44.88458" lon="5.3646">
        <ele>1063.4</ele>
        <time>2021-09-01T10:51:23Z</time>
      </trkpt>
      <trkpt lat="44.88458" lon="5.36459">
        <ele>1063.4</ele>
        <time>2021-09-01T10:51:24Z</time>
      </trkpt>
      <trkpt lat="44.88456" lon="5.36455">
        <ele>1063.6</ele>
        <time>2021-09-01T10:51:26Z</time>
      </trkpt>
      <trkpt lat="44.88455" lon="5.36453">
        <ele>1063.7</ele>
        <time>2021-09-01T10:51:27Z</time>
      </trkpt>
      <trkpt lat="44.88455" lon="5.3645">
        <ele>1063.8</ele>
        <time>2021-09-01T10:51:29Z</time>
      </trkpt>
      <trkpt lat="44.88453" lon="5.36446">
        <ele>1064</ele>
        <time>2021-09-01T10:51:31Z</time>
      </trkpt>
      <trkpt lat="44.88451" lon="5.36443">
        <ele>1064.2</ele>
        <time>2021-09-01T10:51:32Z</time>
      </trkpt>
      <trkpt lat="44.8845" lon="5.36442">
        <ele>1064.2</ele>
        <time>2021-09-01T10:51:33Z</time>
      </trkpt>
      <trkpt lat="44.88447" lon="5.36439">
        <ele>1064.4</ele>
        <time>2021-09-01T10:51:35Z</time>
      </trkpt>
      <trkpt lat="44.88446" lon="5.36437">
        <ele>1064.5</ele>
        <time>2021-09-01T10:51:36Z</time>
      </trkpt>
      <trkpt lat="44.88445" lon="5.36435">
        <ele>1064.6</ele>
        <time>2021-09-01T10:51:38Z</time>
      </trkpt>
      <trkpt lat="44.88445" lon="5.36433">
        <ele>1064.7</ele>
        <time>2021-09-01T10:51:39Z</time>
      </trkpt>
      <trkpt lat="44.88444" lon="5.36432">
        <ele>1064.7</ele>
        <time>2021-09-01T10:51:41Z</time>
      </trkpt>
      <trkpt lat="44.88443" lon="5.36431">
        <ele>1064.8</ele>
        <time>2021-09-01T10:51:42Z</time>
      </trkpt>
      <trkpt lat="44.88442" lon="5.36429">
        <ele>1064.8</ele>
        <time>2021-09-01T10:51:43Z</time>
      </trkpt>
      <trkpt lat="44.8844" lon="5.36428">
        <ele>1065</ele>
        <time>2021-09-01T10:51:45Z</time>
      </trkpt>
      <trkpt lat="44.88437" lon="5.36427">
        <ele>1065.1</ele>
        <time>2021-09-01T10:51:46Z</time>
      </trkpt>
      <trkpt lat="44.88435" lon="5.36427">
        <ele>1065.3</ele>
        <time>2021-09-01T10:51:48Z</time>
      </trkpt>
      <trkpt lat="44.88432" lon="5.36429">
        <ele>1065.5</ele>
        <time>2021-09-01T10:51:49Z</time>
      </trkpt>
      <trkpt lat="44.88431" lon="5.3643">
        <ele>1065.6</ele>
        <time>2021-09-01T10:51:50Z</time>
      </trkpt>
      <trkpt lat="44.88429" lon="5.36431">
        <ele>1065.8</ele>
        <time>2021-09-01T10:51:52Z</time>
      </trkpt>
      <trkpt lat="44.88428" lon="5.36432">
        <ele>1065.9</ele>
        <time>2021-09-01T10:51:53Z</time>
      </trkpt>
      <trkpt lat="44.88428" lon="5.36433">
        <ele>1065.9</ele>
        <time>2021-09-01T10:51:54Z</time>
      </trkpt>
      <trkpt lat="44.88428" lon="5.36433">
        <ele>1065.9</ele>
        <time>2021-09-01T10:51:55Z</time>
      </trkpt>
      <trkpt lat="44.88427" lon="5.36433">
        <ele>1065.9</ele>
        <time>2021-09-01T10:51:57Z</time>
      </trkpt>
      <trkpt lat="44.88427" lon="5.36432">
        <ele>1066</ele>
        <time>2021-09-01T10:51:58Z</time>
      </trkpt>
      <trkpt lat="44.88426" lon="5.36432">
        <ele>1066.1</ele>
        <time>2021-09-01T10:51:59Z</time>
      </trkpt>
      <trkpt lat="44.88425" lon="5.36431">
        <ele>1066.1</ele>
        <time>2021-09-01T10:52:00Z</time>
      </trkpt>
      <trkpt lat="44.8842" lon="5.36428">
        <ele>1066.7</ele>
        <time>2021-09-01T10:52:05Z</time>
      </trkpt>
      <trkpt lat="44.88419" lon="5.36426">
        <ele>1066.8</ele>
        <time>2021-09-01T10:52:06Z</time>
      </trkpt>
      <trkpt lat="44.88417" lon="5.36425">
        <ele>1067</ele>
        <time>2021-09-01T10:52:07Z</time>
      </trkpt>
      <trkpt lat="44.88414" lon="5.36423">
        <ele>1067.3</ele>
        <time>2021-09-01T10:52:09Z</time>
      </trkpt>
      <trkpt lat="44.88411" lon="5.36421">
        <ele>1067.6</ele>
        <time>2021-09-01T10:52:10Z</time>
      </trkpt>
      <trkpt lat="44.88408" lon="5.36418">
        <ele>1068</ele>
        <time>2021-09-01T10:52:12Z</time>
      </trkpt>
      <trkpt lat="44.88407" lon="5.36415">
        <ele>1068.2</ele>
        <time>2021-09-01T10:52:13Z</time>
      </trkpt>
      <trkpt lat="44.88405" lon="5.36412">
        <ele>1068.4</ele>
        <time>2021-09-01T10:52:14Z</time>
      </trkpt>
      <trkpt lat="44.88404" lon="5.36413">
        <ele>1068.6</ele>
        <time>2021-09-01T10:52:15Z</time>
      </trkpt>
      <trkpt lat="44.88401" lon="5.36411">
        <ele>1068.9</ele>
        <time>2021-09-01T10:52:17Z</time>
      </trkpt>
      <trkpt lat="44.884" lon="5.3641">
        <ele>1069</ele>
        <time>2021-09-01T10:52:18Z</time>
      </trkpt>
      <trkpt lat="44.88398" lon="5.36409">
        <ele>1069.3</ele>
        <time>2021-09-01T10:52:19Z</time>
      </trkpt>
      <trkpt lat="44.88396" lon="5.36408">
        <ele>1069.6</ele>
        <time>2021-09-01T10:52:21Z</time>
      </trkpt>
      <trkpt lat="44.88393" lon="5.36409">
        <ele>1069.9</ele>
        <time>2021-09-01T10:52:23Z</time>
      </trkpt>
      <trkpt lat="44.88393" lon="5.3641">
        <ele>1070</ele>
        <time>2021-09-01T10:52:25Z</time>
      </trkpt>
      <trkpt lat="44.88393" lon="5.3641">
        <ele>1070</ele>
        <time>2021-09-01T10:52:26Z</time>
      </trkpt>
      <trkpt lat="44.88394" lon="5.3641">
        <ele>1070</ele>
        <time>2021-09-01T10:52:27Z</time>
      </trkpt>
      <trkpt lat="44.88394" lon="5.3641">
        <ele>1070</ele>
        <time>2021-09-01T10:52:29Z</time>
      </trkpt>
      <trkpt lat="44.88394" lon="5.3641">
        <ele>1070</ele>
        <time>2021-09-01T10:52:31Z</time>
      </trkpt>
      <trkpt lat="44.88394" lon="5.3641">
        <ele>1070</ele>
        <time>2021-09-01T10:52:32Z</time>
      </trkpt>
      <trkpt lat="44.88394" lon="5.3641">
        <ele>1070</ele>
        <time>2021-09-01T10:52:33Z</time>
      </trkpt>
      <trkpt lat="44.88376" lon="5.36435">
        <ele>1072.8</ele>
        <time>2021-09-01T10:53:03Z</time>
      </trkpt>
      <trkpt lat="44.88376" lon="5.36438">
        <ele>1073</ele>
        <time>2021-09-01T10:53:04Z</time>
      </trkpt>
      <trkpt lat="44.88375" lon="5.36439">
        <ele>1073.2</ele>
        <time>2021-09-01T10:53:05Z</time>
      </trkpt>
      <trkpt lat="44.88375" lon="5.36441">
        <ele>1073.3</ele>
        <time>2021-09-01T10:53:06Z</time>
      </trkpt>
      <trkpt lat="44.88375" lon="5.36441">
        <ele>1073.3</ele>
        <time>2021-09-01T10:53:07Z</time>
      </trkpt>
      <trkpt lat="44.88375" lon="5.3644">
        <ele>1073.4</ele>
        <time>2021-09-01T10:53:08Z</time>
      </trkpt>
      <trkpt lat="44.88375" lon="5.3644">
        <ele>1073.4</ele>
        <time>2021-09-01T10:53:09Z</time>
      </trkpt>
      <trkpt lat="44.88375" lon="5.36441">
        <ele>1073.5</ele>
        <time>2021-09-01T10:53:11Z</time>
      </trkpt>
      <trkpt lat="44.88376" lon="5.36439">
        <ele>1073.7</ele>
        <time>2021-09-01T10:53:12Z</time>
      </trkpt>
      <trkpt lat="44.88376" lon="5.36439">
        <ele>1073.8</ele>
        <time>2021-09-01T10:53:14Z</time>
      </trkpt>
      <trkpt lat="44.88376" lon="5.36438">
        <ele>1073.8</ele>
        <time>2021-09-01T10:53:15Z</time>
      </trkpt>
      <trkpt lat="44.88376" lon="5.36438">
        <ele>1073.9</ele>
        <time>2021-09-01T10:53:16Z</time>
      </trkpt>
      <trkpt lat="44.88376" lon="5.36438">
        <ele>1073.9</ele>
        <time>2021-09-01T10:53:17Z</time>
      </trkpt>
      <trkpt lat="44.88375" lon="5.36437">
        <ele>1074</ele>
        <time>2021-09-01T10:53:18Z</time>
      </trkpt>
      <trkpt lat="44.88375" lon="5.36435">
        <ele>1074.1</ele>
        <time>2021-09-01T10:53:20Z</time>
      </trkpt>
      <trkpt lat="44.88374" lon="5.36432">
        <ele>1074.4</ele>
        <time>2021-09-01T10:53:21Z</time>
      </trkpt>
      <trkpt lat="44.88369" lon="5.36403">
        <ele>1076.7</ele>
        <time>2021-09-01T10:53:45Z</time>
      </trkpt>
      <trkpt lat="44.88367" lon="5.36402">
        <ele>1076.9</ele>
        <time>2021-09-01T10:53:47Z</time>
      </trkpt>
      <trkpt lat="44.88366" lon="5.36403">
        <ele>1077</ele>
        <time>2021-09-01T10:53:48Z</time>
      </trkpt>
      <trkpt lat="44.88364" lon="5.36403">
        <ele>1077.2</ele>
        <time>2021-09-01T10:53:49Z</time>
      </trkpt>
      <trkpt lat="44.88363" lon="5.36404">
        <ele>1077.3</ele>
        <time>2021-09-01T10:53:50Z</time>
      </trkpt>
      <trkpt lat="44.88361" lon="5.36406">
        <ele>1077.5</ele>
        <time>2021-09-01T10:53:52Z</time>
      </trkpt>
      <trkpt lat="44.88361" lon="5.36407">
        <ele>1077.6</ele>
        <time>2021-09-01T10:53:53Z</time>
      </trkpt>
      <trkpt lat="44.8836" lon="5.36408">
        <ele>1077.7</ele>
        <time>2021-09-01T10:53:54Z</time>
      </trkpt>
      <trkpt lat="44.88359" lon="5.36409">
        <ele>1077.8</ele>
        <time>2021-09-01T10:53:56Z</time>
      </trkpt>
      <trkpt lat="44.88357" lon="5.3641">
        <ele>1078</ele>
        <time>2021-09-01T10:53:57Z</time>
      </trkpt>
      <trkpt lat="44.88354" lon="5.36412">
        <ele>1078.2</ele>
        <time>2021-09-01T10:53:58Z</time>
      </trkpt>
      <trkpt lat="44.88352" lon="5.36413">
        <ele>1078.4</ele>
        <time>2021-09-01T10:54:00Z</time>
      </trkpt>
      <trkpt lat="44.88351" lon="5.36414">
        <ele>1078.5</ele>
        <time>2021-09-01T10:54:02Z</time>
      </trkpt>
      <trkpt lat="44.8835" lon="5.36414">
        <ele>1078.6</ele>
        <time>2021-09-01T10:54:03Z</time>
      </trkpt>
      <trkpt lat="44.88349" lon="5.36414">
        <ele>1078.6</ele>
        <time>2021-09-01T10:54:05Z</time>
      </trkpt>
      <trkpt lat="44.88349" lon="5.36415">
        <ele>1078.7</ele>
        <time>2021-09-01T10:54:06Z</time>
      </trkpt>
      <trkpt lat="44.88348" lon="5.36415">
        <ele>1078.8</ele>
        <time>2021-09-01T10:54:07Z</time>
      </trkpt>
      <trkpt lat="44.88341" lon="5.36416">
        <ele>1079.2</ele>
        <time>2021-09-01T10:54:08Z</time>
      </trkpt>
      <trkpt lat="44.88335" lon="5.36417">
        <ele>1079.6</ele>
        <time>2021-09-01T10:54:10Z</time>
      </trkpt>
      <trkpt lat="44.88329" lon="5.36417">
        <ele>1079.9</ele>
        <time>2021-09-01T10:54:43Z</time>
      </trkpt>
      <trkpt lat="44.88324" lon="5.36418">
        <ele>1080.2</ele>
        <time>2021-09-01T10:54:45Z</time>
      </trkpt>
      <trkpt lat="44.88318" lon="5.36419">
        <ele>1080.4</ele>
        <time>2021-09-01T10:54:46Z</time>
      </trkpt>
      <trkpt lat="44.88317" lon="5.36417">
        <ele>1080.4</ele>
        <time>2021-09-01T10:54:47Z</time>
      </trkpt>
      <trkpt lat="44.88315" lon="5.36416">
        <ele>1080.5</ele>
        <time>2021-09-01T10:54:49Z</time>
      </trkpt>
      <trkpt lat="44.8831" lon="5.36414">
        <ele>1080.5</ele>
        <time>2021-09-01T10:54:51Z</time>
      </trkpt>
      <trkpt lat="44.88306" lon="5.36413">
        <ele>1080.5</ele>
        <time>2021-09-01T10:54:52Z</time>
      </trkpt>
      <trkpt lat="44.88303" lon="5.36411">
        <ele>1080.5</ele>
        <time>2021-09-01T10:54:53Z</time>
      </trkpt>
      <trkpt lat="44.883" lon="5.36409">
        <ele>1080.4</ele>
        <time>2021-09-01T10:54:54Z</time>
      </trkpt>
      <trkpt lat="44.88297" lon="5.36408">
        <ele>1080.4</ele>
        <time>2021-09-01T10:54:56Z</time>
      </trkpt>
      <trkpt lat="44.88293" lon="5.36405">
        <ele>1080.3</ele>
        <time>2021-09-01T10:54:57Z</time>
      </trkpt>
      <trkpt lat="44.88288" lon="5.36403">
        <ele>1080.1</ele>
        <time>2021-09-01T10:54:59Z</time>
      </trkpt>
      <trkpt lat="44.88279" lon="5.36397">
        <ele>1079.9</ele>
        <time>2021-09-01T10:55:00Z</time>
      </trkpt>
      <trkpt lat="44.88272" lon="5.36392">
        <ele>1079.6</ele>
        <time>2021-09-01T10:55:02Z</time>
      </trkpt>
      <trkpt lat="44.88269" lon="5.36388">
        <ele>1079.5</ele>
        <time>2021-09-01T10:55:03Z</time>
      </trkpt>
      <trkpt lat="44.88264" lon="5.36384">
        <ele>1079.4</ele>
        <time>2021-09-01T10:55:04Z</time>
      </trkpt>
      <trkpt lat="44.88256" lon="5.36374">
        <ele>1079.4</ele>
        <time>2021-09-01T10:55:06Z</time>
      </trkpt>
      <trkpt lat="44.88251" lon="5.3637">
        <ele>1079.4</ele>
        <time>2021-09-01T10:55:07Z</time>
      </trkpt>
      <trkpt lat="44.88247" lon="5.36366">
        <ele>1079.4</ele>
        <time>2021-09-01T10:55:08Z</time>
      </trkpt>
      <trkpt lat="44.8824" lon="5.36362">
        <ele>1079.6</ele>
        <time>2021-09-01T10:55:10Z</time>
      </trkpt>
      <trkpt lat="44.88235" lon="5.3636">
        <ele>1079.8</ele>
        <time>2021-09-01T10:55:11Z</time>
      </trkpt>
      <trkpt lat="44.88231" lon="5.36356">
        <ele>1080</ele>
        <time>2021-09-01T10:55:13Z</time>
      </trkpt>
      <trkpt lat="44.88229" lon="5.36353">
        <ele>1080.2</ele>
        <time>2021-09-01T10:55:14Z</time>
      </trkpt>
      <trkpt lat="44.88226" lon="5.36351">
        <ele>1080.3</ele>
        <time>2021-09-01T10:55:16Z</time>
      </trkpt>
      <trkpt lat="44.88225" lon="5.3635">
        <ele>1080.4</ele>
        <time>2021-09-01T10:55:17Z</time>
      </trkpt>
      <trkpt lat="44.88222" lon="5.36349">
        <ele>1080.5</ele>
        <time>2021-09-01T10:55:18Z</time>
      </trkpt>
      <trkpt lat="44.8822" lon="5.36349">
        <ele>1080.6</ele>
        <time>2021-09-01T10:55:19Z</time>
      </trkpt>
      <trkpt lat="44.88216" lon="5.36351">
        <ele>1081</ele>
        <time>2021-09-01T10:55:21Z</time>
      </trkpt>
      <trkpt lat="44.88214" lon="5.36352">
        <ele>1081.1</ele>
        <time>2021-09-01T10:55:22Z</time>
      </trkpt>
      <trkpt lat="44.88212" lon="5.36353">
        <ele>1081.2</ele>
        <time>2021-09-01T10:55:23Z</time>
      </trkpt>
      <trkpt lat="44.88209" lon="5.36355">
        <ele>1081.5</ele>
        <time>2021-09-01T10:55:24Z</time>
      </trkpt>
      <trkpt lat="44.88207" lon="5.36356">
        <ele>1081.7</ele>
        <time>2021-09-01T10:55:25Z</time>
      </trkpt>
      <trkpt lat="44.88205" lon="5.36357">
        <ele>1081.8</ele>
        <time>2021-09-01T10:55:26Z</time>
      </trkpt>
      <trkpt lat="44.88203" lon="5.3636">
        <ele>1082.1</ele>
        <time>2021-09-01T10:55:28Z</time>
      </trkpt>
      <trkpt lat="44.88199" lon="5.36365">
        <ele>1082.4</ele>
        <time>2021-09-01T10:55:30Z</time>
      </trkpt>
      <trkpt lat="44.88198" lon="5.36367">
        <ele>1082.6</ele>
        <time>2021-09-01T10:55:31Z</time>
      </trkpt>
      <trkpt lat="44.88197" lon="5.36368">
        <ele>1082.7</ele>
        <time>2021-09-01T10:55:32Z</time>
      </trkpt>
      <trkpt lat="44.88197" lon="5.36371">
        <ele>1082.8</ele>
        <time>2021-09-01T10:55:34Z</time>
      </trkpt>
      <trkpt lat="44.88196" lon="5.36372">
        <ele>1082.9</ele>
        <time>2021-09-01T10:55:35Z</time>
      </trkpt>
      <trkpt lat="44.88196" lon="5.36372">
        <ele>1082.9</ele>
        <time>2021-09-01T10:55:36Z</time>
      </trkpt>
      <trkpt lat="44.88195" lon="5.36373">
        <ele>1083</ele>
        <time>2021-09-01T10:55:38Z</time>
      </trkpt>
      <trkpt lat="44.88195" lon="5.36373">
        <ele>1083</ele>
        <time>2021-09-01T10:55:39Z</time>
      </trkpt>
      <trkpt lat="44.88193" lon="5.36374">
        <ele>1083.1</ele>
        <time>2021-09-01T10:55:40Z</time>
      </trkpt>
      <trkpt lat="44.8819" lon="5.36377">
        <ele>1083.3</ele>
        <time>2021-09-01T10:55:41Z</time>
      </trkpt>
      <trkpt lat="44.88186" lon="5.3638">
        <ele>1083.6</ele>
        <time>2021-09-01T10:55:43Z</time>
      </trkpt>
      <trkpt lat="44.88183" lon="5.36383">
        <ele>1083.7</ele>
        <time>2021-09-01T10:55:44Z</time>
      </trkpt>
      <trkpt lat="44.88179" lon="5.36387">
        <ele>1083.8</ele>
        <time>2021-09-01T10:55:46Z</time>
      </trkpt>
      <trkpt lat="44.88176" lon="5.3639">
        <ele>1084</ele>
        <time>2021-09-01T10:55:47Z</time>
      </trkpt>
      <trkpt lat="44.88173" lon="5.3639">
        <ele>1084.1</ele>
        <time>2021-09-01T10:55:49Z</time>
      </trkpt>
      <trkpt lat="44.88172" lon="5.36389">
        <ele>1084.2</ele>
        <time>2021-09-01T10:55:50Z</time>
      </trkpt>
      <trkpt lat="44.88171" lon="5.36388">
        <ele>1084.3</ele>
        <time>2021-09-01T10:55:51Z</time>
      </trkpt>
      <trkpt lat="44.8817" lon="5.36388">
        <ele>1084.3</ele>
        <time>2021-09-01T10:55:52Z</time>
      </trkpt>
      <trkpt lat="44.88168" lon="5.36389">
        <ele>1084.4</ele>
        <time>2021-09-01T10:55:53Z</time>
      </trkpt>
      <trkpt lat="44.88166" lon="5.36389">
        <ele>1084.6</ele>
        <time>2021-09-01T10:55:55Z</time>
      </trkpt>
      <trkpt lat="44.88166" lon="5.36388">
        <ele>1084.6</ele>
        <time>2021-09-01T10:55:56Z</time>
      </trkpt>
      <trkpt lat="44.88165" lon="5.36387">
        <ele>1084.7</ele>
        <time>2021-09-01T10:55:58Z</time>
      </trkpt>
      <trkpt lat="44.88165" lon="5.36386">
        <ele>1084.7</ele>
        <time>2021-09-01T10:55:59Z</time>
      </trkpt>
      <trkpt lat="44.88164" lon="5.36385">
        <ele>1084.8</ele>
        <time>2021-09-01T10:56:01Z</time>
      </trkpt>
      <trkpt lat="44.88163" lon="5.36384">
        <ele>1085</ele>
        <time>2021-09-01T10:56:02Z</time>
      </trkpt>
      <trkpt lat="44.88162" lon="5.36383">
        <ele>1085</ele>
        <time>2021-09-01T10:56:03Z</time>
      </trkpt>
      <trkpt lat="44.88157" lon="5.36382">
        <ele>1085.5</ele>
        <time>2021-09-01T10:56:06Z</time>
      </trkpt>
      <trkpt lat="44.88154" lon="5.36381">
        <ele>1085.8</ele>
        <time>2021-09-01T10:56:08Z</time>
      </trkpt>
      <trkpt lat="44.8815" lon="5.36379">
        <ele>1086.2</ele>
        <time>2021-09-01T10:56:10Z</time>
      </trkpt>
      <trkpt lat="44.88144" lon="5.36378">
        <ele>1086.7</ele>
        <time>2021-09-01T10:56:11Z</time>
      </trkpt>
      <trkpt lat="44.88134" lon="5.36375">
        <ele>1087.6</ele>
        <time>2021-09-01T10:56:13Z</time>
      </trkpt>
      <trkpt lat="44.88128" lon="5.36373">
        <ele>1088.1</ele>
        <time>2021-09-01T10:56:14Z</time>
      </trkpt>
      <trkpt lat="44.88121" lon="5.36371">
        <ele>1088.7</ele>
        <time>2021-09-01T10:56:15Z</time>
      </trkpt>
      <trkpt lat="44.88114" lon="5.3637">
        <ele>1089.3</ele>
        <time>2021-09-01T10:56:16Z</time>
      </trkpt>
      <trkpt lat="44.88107" lon="5.36368">
        <ele>1089.9</ele>
        <time>2021-09-01T10:56:18Z</time>
      </trkpt>
      <trkpt lat="44.881" lon="5.36366">
        <ele>1090.5</ele>
        <time>2021-09-01T10:56:49Z</time>
      </trkpt>
      <trkpt lat="44.88094" lon="5.36365">
        <ele>1091.2</ele>
        <time>2021-09-01T10:56:50Z</time>
      </trkpt>
      <trkpt lat="44.88087" lon="5.36363">
        <ele>1091.9</ele>
        <time>2021-09-01T10:56:51Z</time>
      </trkpt>
      <trkpt lat="44.88085" lon="5.3636">
        <ele>1092.2</ele>
        <time>2021-09-01T10:56:53Z</time>
      </trkpt>
      <trkpt lat="44.88084" lon="5.36359">
        <ele>1092.3</ele>
        <time>2021-09-01T10:56:54Z</time>
      </trkpt>
      <trkpt lat="44.88083" lon="5.36355">
        <ele>1092.7</ele>
        <time>2021-09-01T10:56:55Z</time>
      </trkpt>
      <trkpt lat="44.88082" lon="5.36351">
        <ele>1093</ele>
        <time>2021-09-01T10:56:57Z</time>
      </trkpt>
      <trkpt lat="44.88081" lon="5.36347">
        <ele>1093.4</ele>
        <time>2021-09-01T10:56:58Z</time>
      </trkpt>
      <trkpt lat="44.88079" lon="5.36341">
        <ele>1093.9</ele>
        <time>2021-09-01T10:57:00Z</time>
      </trkpt>
      <trkpt lat="44.88079" lon="5.36339">
        <ele>1094</ele>
        <time>2021-09-01T10:57:01Z</time>
      </trkpt>
      <trkpt lat="44.88078" lon="5.36337">
        <ele>1094.2</ele>
        <time>2021-09-01T10:57:02Z</time>
      </trkpt>
      <trkpt lat="44.88075" lon="5.36335">
        <ele>1094.6</ele>
        <time>2021-09-01T10:57:03Z</time>
      </trkpt>
      <trkpt lat="44.88072" lon="5.36335">
        <ele>1095</ele>
        <time>2021-09-01T10:57:05Z</time>
      </trkpt>
      <trkpt lat="44.88068" lon="5.36333">
        <ele>1095.5</ele>
        <time>2021-09-01T10:57:06Z</time>
      </trkpt>
      <trkpt lat="44.88065" lon="5.36333">
        <ele>1095.9</ele>
        <time>2021-09-01T10:57:08Z</time>
      </trkpt>
      <trkpt lat="44.88063" lon="5.36332">
        <ele>1096.1</ele>
        <time>2021-09-01T10:57:09Z</time>
      </trkpt>
      <trkpt lat="44.88062" lon="5.3633">
        <ele>1096.3</ele>
        <time>2021-09-01T10:57:11Z</time>
      </trkpt>
      <trkpt lat="44.88062" lon="5.36326">
        <ele>1096.6</ele>
        <time>2021-09-01T10:57:12Z</time>
      </trkpt>
      <trkpt lat="44.88062" lon="5.36322">
        <ele>1096.9</ele>
        <time>2021-09-01T10:57:14Z</time>
      </trkpt>
      <trkpt lat="44.88061" lon="5.36316">
        <ele>1097.4</ele>
        <time>2021-09-01T10:57:15Z</time>
      </trkpt>
      <trkpt lat="44.8806" lon="5.3631">
        <ele>1097.8</ele>
        <time>2021-09-01T10:57:17Z</time>
      </trkpt>
      <trkpt lat="44.88058" lon="5.36305">
        <ele>1098.3</ele>
        <time>2021-09-01T10:57:18Z</time>
      </trkpt>
      <trkpt lat="44.88056" lon="5.36299">
        <ele>1098.7</ele>
        <time>2021-09-01T10:57:19Z</time>
      </trkpt>
      <trkpt lat="44.88054" lon="5.36294">
        <ele>1099.1</ele>
        <time>2021-09-01T10:57:20Z</time>
      </trkpt>
      <trkpt lat="44.88052" lon="5.36289">
        <ele>1099.4</ele>
        <time>2021-09-01T10:57:22Z</time>
      </trkpt>
      <trkpt lat="44.8805" lon="5.36283">
        <ele>1099.8</ele>
        <time>2021-09-01T10:58:04Z</time>
      </trkpt>
      <trkpt lat="44.88049" lon="5.36278">
        <ele>1100.2</ele>
        <time>2021-09-01T10:58:05Z</time>
      </trkpt>
      <trkpt lat="44.88047" lon="5.36273">
        <ele>1100.6</ele>
        <time>2021-09-01T10:58:06Z</time>
      </trkpt>
      <trkpt lat="44.88046" lon="5.36269">
        <ele>1100.8</ele>
        <time>2021-09-01T10:58:08Z</time>
      </trkpt>
      <trkpt lat="44.88046" lon="5.36263">
        <ele>1101.2</ele>
        <time>2021-09-01T10:58:10Z</time>
      </trkpt>
      <trkpt lat="44.88046" lon="5.36258">
        <ele>1101.5</ele>
        <time>2021-09-01T10:58:11Z</time>
      </trkpt>
      <trkpt lat="44.88047" lon="5.36256">
        <ele>1101.7</ele>
        <time>2021-09-01T10:58:12Z</time>
      </trkpt>
      <trkpt lat="44.88047" lon="5.36253">
        <ele>1101.9</ele>
        <time>2021-09-01T10:58:13Z</time>
      </trkpt>
      <trkpt lat="44.88048" lon="5.36251">
        <ele>1102.1</ele>
        <time>2021-09-01T10:58:15Z</time>
      </trkpt>
      <trkpt lat="44.88049" lon="5.36249">
        <ele>1102.2</ele>
        <time>2021-09-01T10:58:16Z</time>
      </trkpt>
      <trkpt lat="44.88049" lon="5.3625">
        <ele>1102.3</ele>
        <time>2021-09-01T10:58:17Z</time>
      </trkpt>
      <trkpt lat="44.8805" lon="5.3625">
        <ele>1102.3</ele>
        <time>2021-09-01T10:58:18Z</time>
      </trkpt>
      <trkpt lat="44.8805" lon="5.3625">
        <ele>1102.3</ele>
        <time>2021-09-01T10:58:19Z</time>
      </trkpt>
      <trkpt lat="44.8805" lon="5.3625">
        <ele>1102.4</ele>
        <time>2021-09-01T10:58:20Z</time>
      </trkpt>
      <trkpt lat="44.8805" lon="5.3625">
        <ele>1102.4</ele>
        <time>2021-09-01T10:58:22Z</time>
      </trkpt>
      <trkpt lat="44.8805" lon="5.36249">
        <ele>1102.4</ele>
        <time>2021-09-01T10:58:23Z</time>
      </trkpt>
      <trkpt lat="44.88049" lon="5.36248">
        <ele>1102.5</ele>
        <time>2021-09-01T10:58:24Z</time>
      </trkpt>
      <trkpt lat="44.88048" lon="5.36247">
        <ele>1102.7</ele>
        <time>2021-09-01T10:58:25Z</time>
      </trkpt>
      <trkpt lat="44.88046" lon="5.36245">
        <ele>1102.9</ele>
        <time>2021-09-01T10:58:27Z</time>
      </trkpt>
      <trkpt lat="44.88045" lon="5.36243">
        <ele>1103</ele>
        <time>2021-09-01T10:58:28Z</time>
      </trkpt>
      <trkpt lat="44.88045" lon="5.36241">
        <ele>1103.2</ele>
        <time>2021-09-01T10:58:29Z</time>
      </trkpt>
      <trkpt lat="44.88044" lon="5.3624">
        <ele>1103.3</ele>
        <time>2021-09-01T10:58:31Z</time>
      </trkpt>
      <trkpt lat="44.88011" lon="5.36196">
        <ele>1106.4</ele>
        <time>2021-09-01T10:59:29Z</time>
      </trkpt>
      <trkpt lat="44.88008" lon="5.36198">
        <ele>1106.5</ele>
        <time>2021-09-01T10:59:31Z</time>
      </trkpt>
      <trkpt lat="44.88004" lon="5.36202">
        <ele>1106.6</ele>
        <time>2021-09-01T10:59:32Z</time>
      </trkpt>
      <trkpt lat="44.88002" lon="5.36204">
        <ele>1106.7</ele>
        <time>2021-09-01T10:59:33Z</time>
      </trkpt>
      <trkpt lat="44.87999" lon="5.36207">
        <ele>1106.8</ele>
        <time>2021-09-01T10:59:34Z</time>
      </trkpt>
      <trkpt lat="44.87994" lon="5.36211">
        <ele>1106.9</ele>
        <time>2021-09-01T10:59:36Z</time>
      </trkpt>
      <trkpt lat="44.8799" lon="5.36213">
        <ele>1107</ele>
        <time>2021-09-01T10:59:37Z</time>
      </trkpt>
      <trkpt lat="44.87984" lon="5.36215">
        <ele>1107</ele>
        <time>2021-09-01T10:59:39Z</time>
      </trkpt>
      <trkpt lat="44.87979" lon="5.36215">
        <ele>1107.1</ele>
        <time>2021-09-01T10:59:40Z</time>
      </trkpt>
      <trkpt lat="44.87974" lon="5.36214">
        <ele>1107.2</ele>
        <time>2021-09-01T10:59:41Z</time>
      </trkpt>
      <trkpt lat="44.87967" lon="5.36215">
        <ele>1107.4</ele>
        <time>2021-09-01T10:59:43Z</time>
      </trkpt>
      <trkpt lat="44.87961" lon="5.36215">
        <ele>1107.6</ele>
        <time>2021-09-01T10:59:45Z</time>
      </trkpt>
      <trkpt lat="44.87956" lon="5.36215">
        <ele>1107.8</ele>
        <time>2021-09-01T10:59:46Z</time>
      </trkpt>
      <trkpt lat="44.87953" lon="5.36215">
        <ele>1107.9</ele>
        <time>2021-09-01T10:59:47Z</time>
      </trkpt>
      <trkpt lat="44.87949" lon="5.36216">
        <ele>1108.1</ele>
        <time>2021-09-01T10:59:48Z</time>
      </trkpt>
      <trkpt lat="44.87947" lon="5.36216">
        <ele>1108.2</ele>
        <time>2021-09-01T10:59:49Z</time>
      </trkpt>
      <trkpt lat="44.87946" lon="5.36216">
        <ele>1108.2</ele>
        <time>2021-09-01T10:59:51Z</time>
      </trkpt>
      <trkpt lat="44.87942" lon="5.36216">
        <ele>1108.4</ele>
        <time>2021-09-01T10:59:52Z</time>
      </trkpt>
      <trkpt lat="44.87939" lon="5.36214">
        <ele>1108.5</ele>
        <time>2021-09-01T10:59:53Z</time>
      </trkpt>
      <trkpt lat="44.87937" lon="5.36213">
        <ele>1108.6</ele>
        <time>2021-09-01T10:59:55Z</time>
      </trkpt>
      <trkpt lat="44.87936" lon="5.36213">
        <ele>1108.7</ele>
        <time>2021-09-01T10:59:56Z</time>
      </trkpt>
      <trkpt lat="44.87932" lon="5.36211">
        <ele>1108.8</ele>
        <time>2021-09-01T10:59:57Z</time>
      </trkpt>
      <trkpt lat="44.8793" lon="5.3621">
        <ele>1108.9</ele>
        <time>2021-09-01T10:59:58Z</time>
      </trkpt>
      <trkpt lat="44.87927" lon="5.3621">
        <ele>1109</ele>
        <time>2021-09-01T11:00:00Z</time>
      </trkpt>
      <trkpt lat="44.87924" lon="5.3621">
        <ele>1109.2</ele>
        <time>2021-09-01T11:00:01Z</time>
      </trkpt>
      <trkpt lat="44.87923" lon="5.36211">
        <ele>1109.2</ele>
        <time>2021-09-01T11:00:03Z</time>
      </trkpt>
      <trkpt lat="44.87923" lon="5.36211">
        <ele>1109.2</ele>
        <time>2021-09-01T11:00:04Z</time>
      </trkpt>
      <trkpt lat="44.87923" lon="5.36211">
        <ele>1109.2</ele>
        <time>2021-09-01T11:00:05Z</time>
      </trkpt>
      <trkpt lat="44.87923" lon="5.36211">
        <ele>1109.2</ele>
        <time>2021-09-01T11:00:06Z</time>
      </trkpt>
      <trkpt lat="44.87923" lon="5.36211">
        <ele>1109.3</ele>
        <time>2021-09-01T11:00:08Z</time>
      </trkpt>
      <trkpt lat="44.87923" lon="5.3621">
        <ele>1109.3</ele>
        <time>2021-09-01T11:00:09Z</time>
      </trkpt>
      <trkpt lat="44.87922" lon="5.36209">
        <ele>1109.3</ele>
        <time>2021-09-01T11:00:11Z</time>
      </trkpt>
      <trkpt lat="44.87919" lon="5.36207">
        <ele>1109.5</ele>
        <time>2021-09-01T11:00:17Z</time>
      </trkpt>
      <trkpt lat="44.87917" lon="5.36206">
        <ele>1109.5</ele>
        <time>2021-09-01T11:00:18Z</time>
      </trkpt>
      <trkpt lat="44.87916" lon="5.36206">
        <ele>1109.6</ele>
        <time>2021-09-01T11:00:19Z</time>
      </trkpt>
      <trkpt lat="44.87913" lon="5.36204">
        <ele>1109.7</ele>
        <time>2021-09-01T11:00:21Z</time>
      </trkpt>
      <trkpt lat="44.87912" lon="5.36203">
        <ele>1109.8</ele>
        <time>2021-09-01T11:00:22Z</time>
      </trkpt>
      <trkpt lat="44.87909" lon="5.36199">
        <ele>1109.9</ele>
        <time>2021-09-01T11:00:23Z</time>
      </trkpt>
      <trkpt lat="44.87908" lon="5.36197">
        <ele>1110</ele>
        <time>2021-09-01T11:00:24Z</time>
      </trkpt>
      <trkpt lat="44.87906" lon="5.36192">
        <ele>1110.2</ele>
        <time>2021-09-01T11:00:26Z</time>
      </trkpt>
      <trkpt lat="44.87903" lon="5.36186">
        <ele>1110.4</ele>
        <time>2021-09-01T11:00:27Z</time>
      </trkpt>
      <trkpt lat="44.87901" lon="5.36182">
        <ele>1110.5</ele>
        <time>2021-09-01T11:00:28Z</time>
      </trkpt>
      <trkpt lat="44.87899" lon="5.36178">
        <ele>1110.6</ele>
        <time>2021-09-01T11:00:29Z</time>
      </trkpt>
      <trkpt lat="44.87896" lon="5.36177">
        <ele>1110.8</ele>
        <time>2021-09-01T11:00:31Z</time>
      </trkpt>
      <trkpt lat="44.87893" lon="5.36176">
        <ele>1110.9</ele>
        <time>2021-09-01T11:00:32Z</time>
      </trkpt>
      <trkpt lat="44.87887" lon="5.36176">
        <ele>1111.1</ele>
        <time>2021-09-01T11:00:34Z</time>
      </trkpt>
      <trkpt lat="44.87884" lon="5.36176">
        <ele>1111.2</ele>
        <time>2021-09-01T11:00:35Z</time>
      </trkpt>
      <trkpt lat="44.87879" lon="5.36175">
        <ele>1111.4</ele>
        <time>2021-09-01T11:00:36Z</time>
      </trkpt>
      <trkpt lat="44.87875" lon="5.36172">
        <ele>1111.5</ele>
        <time>2021-09-01T11:00:38Z</time>
      </trkpt>
      <trkpt lat="44.87873" lon="5.36172">
        <ele>1111.6</ele>
        <time>2021-09-01T11:00:39Z</time>
      </trkpt>
      <trkpt lat="44.87872" lon="5.36171">
        <ele>1111.6</ele>
        <time>2021-09-01T11:00:40Z</time>
      </trkpt>
      <trkpt lat="44.87867" lon="5.36171">
        <ele>1111.8</ele>
        <time>2021-09-01T11:00:42Z</time>
      </trkpt>
      <trkpt lat="44.87865" lon="5.36171">
        <ele>1111.9</ele>
        <time>2021-09-01T11:00:43Z</time>
      </trkpt>
      <trkpt lat="44.87863" lon="5.3617">
        <ele>1111.9</ele>
        <time>2021-09-01T11:00:44Z</time>
      </trkpt>
      <trkpt lat="44.8786" lon="5.36168">
        <ele>1112</ele>
        <time>2021-09-01T11:00:45Z</time>
      </trkpt>
      <trkpt lat="44.87858" lon="5.36168">
        <ele>1112</ele>
        <time>2021-09-01T11:00:46Z</time>
      </trkpt>
      <trkpt lat="44.87856" lon="5.36166">
        <ele>1112.1</ele>
        <time>2021-09-01T11:00:48Z</time>
      </trkpt>
      <trkpt lat="44.87852" lon="5.36164">
        <ele>1112.2</ele>
        <time>2021-09-01T11:00:49Z</time>
      </trkpt>
      <trkpt lat="44.8785" lon="5.36163">
        <ele>1112.2</ele>
        <time>2021-09-01T11:00:50Z</time>
      </trkpt>
      <trkpt lat="44.87846" lon="5.36161">
        <ele>1112.3</ele>
        <time>2021-09-01T11:00:52Z</time>
      </trkpt>
      <trkpt lat="44.87843" lon="5.3616">
        <ele>1112.3</ele>
        <time>2021-09-01T11:00:53Z</time>
      </trkpt>
      <trkpt lat="44.8784" lon="5.36158">
        <ele>1112.4</ele>
        <time>2021-09-01T11:00:54Z</time>
      </trkpt>
      <trkpt lat="44.87836" lon="5.36156">
        <ele>1112.4</ele>
        <time>2021-09-01T11:00:55Z</time>
      </trkpt>
      <trkpt lat="44.87833" lon="5.36154">
        <ele>1112.5</ele>
        <time>2021-09-01T11:00:56Z</time>
      </trkpt>
      <trkpt lat="44.87829" lon="5.36151">
        <ele>1112.5</ele>
        <time>2021-09-01T11:00:58Z</time>
      </trkpt>
      <trkpt lat="44.87827" lon="5.36149">
        <ele>1112.6</ele>
        <time>2021-09-01T11:00:59Z</time>
      </trkpt>
      <trkpt lat="44.87822" lon="5.36145">
        <ele>1112.7</ele>
        <time>2021-09-01T11:01:00Z</time>
      </trkpt>
      <trkpt lat="44.87817" lon="5.36142">
        <ele>1112.8</ele>
        <time>2021-09-01T11:01:02Z</time>
      </trkpt>
      <trkpt lat="44.87814" lon="5.36141">
        <ele>1112.9</ele>
        <time>2021-09-01T11:01:03Z</time>
      </trkpt>
      <trkpt lat="44.8781" lon="5.36138">
        <ele>1113</ele>
        <time>2021-09-01T11:01:05Z</time>
      </trkpt>
      <trkpt lat="44.87808" lon="5.36137">
        <ele>1113</ele>
        <time>2021-09-01T11:01:06Z</time>
      </trkpt>
      <trkpt lat="44.87803" lon="5.36135">
        <ele>1113.1</ele>
        <time>2021-09-01T11:01:07Z</time>
      </trkpt>
      <trkpt lat="44.87802" lon="5.36134">
        <ele>1113.2</ele>
        <time>2021-09-01T11:01:08Z</time>
      </trkpt>
      <trkpt lat="44.878" lon="5.36132">
        <ele>1113.2</ele>
        <time>2021-09-01T11:01:09Z</time>
      </trkpt>
      <trkpt lat="44.87798" lon="5.36131">
        <ele>1113.3</ele>
        <time>2021-09-01T11:01:11Z</time>
      </trkpt>
      <trkpt lat="44.87795" lon="5.3613">
        <ele>1113.4</ele>
        <time>2021-09-01T11:01:12Z</time>
      </trkpt>
      <trkpt lat="44.87792" lon="5.36128">
        <ele>1113.6</ele>
        <time>2021-09-01T11:01:14Z</time>
      </trkpt>
      <trkpt lat="44.87788" lon="5.36127">
        <ele>1113.7</ele>
        <time>2021-09-01T11:01:16Z</time>
      </trkpt>
      <trkpt lat="44.87787" lon="5.36127">
        <ele>1113.8</ele>
        <time>2021-09-01T11:01:17Z</time>
      </trkpt>
      <trkpt lat="44.87785" lon="5.36127">
        <ele>1113.9</ele>
        <time>2021-09-01T11:01:18Z</time>
      </trkpt>
      <trkpt lat="44.87783" lon="5.36125">
        <ele>1114</ele>
        <time>2021-09-01T11:01:20Z</time>
      </trkpt>
      <trkpt lat="44.87782" lon="5.3612">
        <ele>1114.2</ele>
        <time>2021-09-01T11:01:21Z</time>
      </trkpt>
      <trkpt lat="44.87782" lon="5.36118">
        <ele>1114.3</ele>
        <time>2021-09-01T11:01:23Z</time>
      </trkpt>
      <trkpt lat="44.87782" lon="5.36116">
        <ele>1114.8</ele>
        <time>2021-09-01T11:01:24Z</time>
      </trkpt>
      <trkpt lat="44.87782" lon="5.36113">
        <ele>1114.8</ele>
        <time>2021-09-01T11:01:25Z</time>
      </trkpt>
      <trkpt lat="44.87781" lon="5.36111">
        <ele>1114.8</ele>
        <time>2021-09-01T11:01:26Z</time>
      </trkpt>
      <trkpt lat="44.8778" lon="5.36107">
        <ele>1114.8</ele>
        <time>2021-09-01T11:01:28Z</time>
      </trkpt>
      <trkpt lat="44.87779" lon="5.36103">
        <ele>1114.9</ele>
        <time>2021-09-01T11:01:29Z</time>
      </trkpt>
      <trkpt lat="44.87775" lon="5.36101">
        <ele>1115</ele>
        <time>2021-09-01T11:01:31Z</time>
      </trkpt>
      <trkpt lat="44.87771" lon="5.36098">
        <ele>1115.1</ele>
        <time>2021-09-01T11:01:32Z</time>
      </trkpt>
      <trkpt lat="44.87769" lon="5.36096">
        <ele>1115.1</ele>
        <time>2021-09-01T11:01:33Z</time>
      </trkpt>
      <trkpt lat="44.87765" lon="5.36093">
        <ele>1115.2</ele>
        <time>2021-09-01T11:01:35Z</time>
      </trkpt>
      <trkpt lat="44.87762" lon="5.36089">
        <ele>1115.3</ele>
        <time>2021-09-01T11:01:36Z</time>
      </trkpt>
      <trkpt lat="44.8776" lon="5.36088">
        <ele>1115.4</ele>
        <time>2021-09-01T11:01:37Z</time>
      </trkpt>
      <trkpt lat="44.87756" lon="5.36087">
        <ele>1115.4</ele>
        <time>2021-09-01T11:01:39Z</time>
      </trkpt>
      <trkpt lat="44.87751" lon="5.36084">
        <ele>1115.5</ele>
        <time>2021-09-01T11:01:41Z</time>
      </trkpt>
      <trkpt lat="44.87748" lon="5.36082">
        <ele>1115.6</ele>
        <time>2021-09-01T11:01:42Z</time>
      </trkpt>
      <trkpt lat="44.87746" lon="5.36081">
        <ele>1115.6</ele>
        <time>2021-09-01T11:01:43Z</time>
      </trkpt>
      <trkpt lat="44.87744" lon="5.3608">
        <ele>1115.7</ele>
        <time>2021-09-01T11:01:45Z</time>
      </trkpt>
      <trkpt lat="44.8774" lon="5.3608">
        <ele>1115.8</ele>
        <time>2021-09-01T11:01:46Z</time>
      </trkpt>
      <trkpt lat="44.87736" lon="5.3608">
        <ele>1115.8</ele>
        <time>2021-09-01T11:01:47Z</time>
      </trkpt>
      <trkpt lat="44.87733" lon="5.36081">
        <ele>1115.9</ele>
        <time>2021-09-01T11:01:49Z</time>
      </trkpt>
      <trkpt lat="44.8773" lon="5.36081">
        <ele>1115.9</ele>
        <time>2021-09-01T11:01:50Z</time>
      </trkpt>
      <trkpt lat="44.87725" lon="5.36079">
        <ele>1116.1</ele>
        <time>2021-09-01T11:01:52Z</time>
      </trkpt>
      <trkpt lat="44.87717" lon="5.3608">
        <ele>1116.2</ele>
        <time>2021-09-01T11:01:53Z</time>
      </trkpt>
      <trkpt lat="44.87712" lon="5.3608">
        <ele>1116.3</ele>
        <time>2021-09-01T11:01:55Z</time>
      </trkpt>
      <trkpt lat="44.87708" lon="5.3608">
        <ele>1116.4</ele>
        <time>2021-09-01T11:01:57Z</time>
      </trkpt>
      <trkpt lat="44.87705" lon="5.36078">
        <ele>1116.5</ele>
        <time>2021-09-01T11:01:58Z</time>
      </trkpt>
      <trkpt lat="44.87701" lon="5.36075">
        <ele>1116.6</ele>
        <time>2021-09-01T11:02:00Z</time>
      </trkpt>
      <trkpt lat="44.87698" lon="5.36073">
        <ele>1116.6</ele>
        <time>2021-09-01T11:02:01Z</time>
      </trkpt>
      <trkpt lat="44.87696" lon="5.36072">
        <ele>1116.7</ele>
        <time>2021-09-01T11:02:02Z</time>
      </trkpt>
      <trkpt lat="44.87692" lon="5.36071">
        <ele>1116.8</ele>
        <time>2021-09-01T11:02:04Z</time>
      </trkpt>
      <trkpt lat="44.87689" lon="5.36068">
        <ele>1116.9</ele>
        <time>2021-09-01T11:02:05Z</time>
      </trkpt>
      <trkpt lat="44.87686" lon="5.36065">
        <ele>1117</ele>
        <time>2021-09-01T11:02:06Z</time>
      </trkpt>
      <trkpt lat="44.87683" lon="5.36063">
        <ele>1117</ele>
        <time>2021-09-01T11:02:08Z</time>
      </trkpt>
      <trkpt lat="44.87679" lon="5.36061">
        <ele>1117.1</ele>
        <time>2021-09-01T11:02:09Z</time>
      </trkpt>
      <trkpt lat="44.87677" lon="5.36059">
        <ele>1117.2</ele>
        <time>2021-09-01T11:02:10Z</time>
      </trkpt>
      <trkpt lat="44.87675" lon="5.36057">
        <ele>1117.3</ele>
        <time>2021-09-01T11:02:12Z</time>
      </trkpt>
      <trkpt lat="44.87672" lon="5.36053">
        <ele>1117.4</ele>
        <time>2021-09-01T11:02:13Z</time>
      </trkpt>
      <trkpt lat="44.87668" lon="5.3605">
        <ele>1117.5</ele>
        <time>2021-09-01T11:02:15Z</time>
      </trkpt>
      <trkpt lat="44.87666" lon="5.3605">
        <ele>1117.5</ele>
        <time>2021-09-01T11:02:16Z</time>
      </trkpt>
      <trkpt lat="44.87664" lon="5.36049">
        <ele>1117.5</ele>
        <time>2021-09-01T11:02:17Z</time>
      </trkpt>
      <trkpt lat="44.87662" lon="5.36047">
        <ele>1117.6</ele>
        <time>2021-09-01T11:02:19Z</time>
      </trkpt>
      <trkpt lat="44.8766" lon="5.36043">
        <ele>1117.7</ele>
        <time>2021-09-01T11:02:20Z</time>
      </trkpt>
      <trkpt lat="44.87659" lon="5.36042">
        <ele>1117.7</ele>
        <time>2021-09-01T11:02:21Z</time>
      </trkpt>
      <trkpt lat="44.87656" lon="5.3604">
        <ele>1117.8</ele>
        <time>2021-09-01T11:02:22Z</time>
      </trkpt>
      <trkpt lat="44.87654" lon="5.36038">
        <ele>1117.8</ele>
        <time>2021-09-01T11:02:23Z</time>
      </trkpt>
      <trkpt lat="44.87652" lon="5.36036">
        <ele>1117.9</ele>
        <time>2021-09-01T11:02:25Z</time>
      </trkpt>
      <trkpt lat="44.87649" lon="5.36034">
        <ele>1118</ele>
        <time>2021-09-01T11:02:26Z</time>
      </trkpt>
      <trkpt lat="44.87646" lon="5.36032">
        <ele>1118.1</ele>
        <time>2021-09-01T11:02:28Z</time>
      </trkpt>
      <trkpt lat="44.87645" lon="5.36031">
        <ele>1118.1</ele>
        <time>2021-09-01T11:02:29Z</time>
      </trkpt>
      <trkpt lat="44.87641" lon="5.3603">
        <ele>1118.2</ele>
        <time>2021-09-01T11:02:31Z</time>
      </trkpt>
      <trkpt lat="44.87638" lon="5.3603">
        <ele>1118.3</ele>
        <time>2021-09-01T11:02:32Z</time>
      </trkpt>
      <trkpt lat="44.87636" lon="5.36028">
        <ele>1118.3</ele>
        <time>2021-09-01T11:02:34Z</time>
      </trkpt>
      <trkpt lat="44.87633" lon="5.36027">
        <ele>1118.4</ele>
        <time>2021-09-01T11:02:35Z</time>
      </trkpt>
      <trkpt lat="44.87629" lon="5.36028">
        <ele>1118.5</ele>
        <time>2021-09-01T11:02:37Z</time>
      </trkpt>
      <trkpt lat="44.87624" lon="5.36028">
        <ele>1118.6</ele>
        <time>2021-09-01T11:02:38Z</time>
      </trkpt>
      <trkpt lat="44.87623" lon="5.36028">
        <ele>1118.7</ele>
        <time>2021-09-01T11:02:39Z</time>
      </trkpt>
      <trkpt lat="44.87619" lon="5.36027">
        <ele>1118.8</ele>
        <time>2021-09-01T11:02:40Z</time>
      </trkpt>
      <trkpt lat="44.87617" lon="5.36026">
        <ele>1118.8</ele>
        <time>2021-09-01T11:02:42Z</time>
      </trkpt>
      <trkpt lat="44.87612" lon="5.36025">
        <ele>1119</ele>
        <time>2021-09-01T11:02:44Z</time>
      </trkpt>
      <trkpt lat="44.87608" lon="5.36025">
        <ele>1119.1</ele>
        <time>2021-09-01T11:02:45Z</time>
      </trkpt>
      <trkpt lat="44.87603" lon="5.36024">
        <ele>1119.2</ele>
        <time>2021-09-01T11:02:46Z</time>
      </trkpt>
      <trkpt lat="44.87599" lon="5.36023">
        <ele>1119.3</ele>
        <time>2021-09-01T11:02:48Z</time>
      </trkpt>
      <trkpt lat="44.87594" lon="5.36022">
        <ele>1119.4</ele>
        <time>2021-09-01T11:02:49Z</time>
      </trkpt>
      <trkpt lat="44.87589" lon="5.3602">
        <ele>1119.6</ele>
        <time>2021-09-01T11:02:51Z</time>
      </trkpt>
      <trkpt lat="44.87587" lon="5.36019">
        <ele>1119.7</ele>
        <time>2021-09-01T11:02:52Z</time>
      </trkpt>
      <trkpt lat="44.87585" lon="5.36017">
        <ele>1119.7</ele>
        <time>2021-09-01T11:02:53Z</time>
      </trkpt>
      <trkpt lat="44.87582" lon="5.36015">
        <ele>1119.8</ele>
        <time>2021-09-01T11:02:55Z</time>
      </trkpt>
      <trkpt lat="44.87581" lon="5.36014">
        <ele>1119.9</ele>
        <time>2021-09-01T11:02:56Z</time>
      </trkpt>
      <trkpt lat="44.87576" lon="5.36013">
        <ele>1120</ele>
        <time>2021-09-01T11:02:58Z</time>
      </trkpt>
      <trkpt lat="44.87575" lon="5.36013">
        <ele>1120</ele>
        <time>2021-09-01T11:02:59Z</time>
      </trkpt>
      <trkpt lat="44.87573" lon="5.36012">
        <ele>1120.1</ele>
        <time>2021-09-01T11:03:00Z</time>
      </trkpt>
      <trkpt lat="44.87571" lon="5.36012">
        <ele>1120.2</ele>
        <time>2021-09-01T11:03:01Z</time>
      </trkpt>
      <trkpt lat="44.87568" lon="5.3601">
        <ele>1120.2</ele>
        <time>2021-09-01T11:03:03Z</time>
      </trkpt>
      <trkpt lat="44.87566" lon="5.36008">
        <ele>1120.3</ele>
        <time>2021-09-01T11:03:04Z</time>
      </trkpt>
      <trkpt lat="44.87564" lon="5.36007">
        <ele>1120.4</ele>
        <time>2021-09-01T11:03:06Z</time>
      </trkpt>
      <trkpt lat="44.87561" lon="5.36007">
        <ele>1120.5</ele>
        <time>2021-09-01T11:03:08Z</time>
      </trkpt>
      <trkpt lat="44.87558" lon="5.36005">
        <ele>1120.6</ele>
        <time>2021-09-01T11:03:09Z</time>
      </trkpt>
      <trkpt lat="44.87555" lon="5.36003">
        <ele>1120.7</ele>
        <time>2021-09-01T11:03:11Z</time>
      </trkpt>
      <trkpt lat="44.87554" lon="5.36002">
        <ele>1120.7</ele>
        <time>2021-09-01T11:03:12Z</time>
      </trkpt>
      <trkpt lat="44.87551" lon="5.36">
        <ele>1120.9</ele>
        <time>2021-09-01T11:03:13Z</time>
      </trkpt>
      <trkpt lat="44.87548" lon="5.35999">
        <ele>1121</ele>
        <time>2021-09-01T11:03:15Z</time>
      </trkpt>
      <trkpt lat="44.87545" lon="5.35998">
        <ele>1121.1</ele>
        <time>2021-09-01T11:03:16Z</time>
      </trkpt>
      <trkpt lat="44.87542" lon="5.35997">
        <ele>1121.2</ele>
        <time>2021-09-01T11:03:17Z</time>
      </trkpt>
      <trkpt lat="44.87539" lon="5.35996">
        <ele>1121.2</ele>
        <time>2021-09-01T11:03:18Z</time>
      </trkpt>
      <trkpt lat="44.87535" lon="5.35995">
        <ele>1121.4</ele>
        <time>2021-09-01T11:03:20Z</time>
      </trkpt>
      <trkpt lat="44.87532" lon="5.35994">
        <ele>1121.5</ele>
        <time>2021-09-01T11:03:21Z</time>
      </trkpt>
      <trkpt lat="44.87528" lon="5.35991">
        <ele>1121.6</ele>
        <time>2021-09-01T11:03:23Z</time>
      </trkpt>
      <trkpt lat="44.87525" lon="5.35987">
        <ele>1121.7</ele>
        <time>2021-09-01T11:03:25Z</time>
      </trkpt>
      <trkpt lat="44.87523" lon="5.35984">
        <ele>1121.9</ele>
        <time>2021-09-01T11:03:26Z</time>
      </trkpt>
      <trkpt lat="44.87522" lon="5.35983">
        <ele>1121.9</ele>
        <time>2021-09-01T11:03:27Z</time>
      </trkpt>
      <trkpt lat="44.8752" lon="5.35981">
        <ele>1122</ele>
        <time>2021-09-01T11:03:29Z</time>
      </trkpt>
      <trkpt lat="44.87519" lon="5.3598">
        <ele>1122</ele>
        <time>2021-09-01T11:03:30Z</time>
      </trkpt>
      <trkpt lat="44.87518" lon="5.35976">
        <ele>1122.1</ele>
        <time>2021-09-01T11:03:31Z</time>
      </trkpt>
      <trkpt lat="44.87517" lon="5.35974">
        <ele>1122.2</ele>
        <time>2021-09-01T11:03:33Z</time>
      </trkpt>
      <trkpt lat="44.87516" lon="5.35974">
        <ele>1122.2</ele>
        <time>2021-09-01T11:03:35Z</time>
      </trkpt>
      <trkpt lat="44.87516" lon="5.35973">
        <ele>1122.2</ele>
        <time>2021-09-01T11:03:37Z</time>
      </trkpt>
      <trkpt lat="44.87516" lon="5.35973">
        <ele>1122.2</ele>
        <time>2021-09-01T11:03:38Z</time>
      </trkpt>
      <trkpt lat="44.87516" lon="5.35973">
        <ele>1122.2</ele>
        <time>2021-09-01T11:03:40Z</time>
      </trkpt>
      <trkpt lat="44.87516" lon="5.35973">
        <ele>1122.2</ele>
        <time>2021-09-01T11:03:41Z</time>
      </trkpt>
      <trkpt lat="44.87506" lon="5.35959">
        <ele>1122.6</ele>
        <time>2021-09-01T11:03:58Z</time>
      </trkpt>
      <trkpt lat="44.87503" lon="5.35957">
        <ele>1122.7</ele>
        <time>2021-09-01T11:04:00Z</time>
      </trkpt>
      <trkpt lat="44.875" lon="5.35954">
        <ele>1122.8</ele>
        <time>2021-09-01T11:04:01Z</time>
      </trkpt>
      <trkpt lat="44.87496" lon="5.35951">
        <ele>1123</ele>
        <time>2021-09-01T11:04:03Z</time>
      </trkpt>
      <trkpt lat="44.87494" lon="5.35949">
        <ele>1123</ele>
        <time>2021-09-01T11:04:04Z</time>
      </trkpt>
      <trkpt lat="44.87493" lon="5.35948">
        <ele>1123.1</ele>
        <time>2021-09-01T11:04:05Z</time>
      </trkpt>
      <trkpt lat="44.8749" lon="5.35947">
        <ele>1123.2</ele>
        <time>2021-09-01T11:04:06Z</time>
      </trkpt>
      <trkpt lat="44.87488" lon="5.35947">
        <ele>1123.2</ele>
        <time>2021-09-01T11:04:08Z</time>
      </trkpt>
      <trkpt lat="44.87487" lon="5.35946">
        <ele>1123.3</ele>
        <time>2021-09-01T11:04:09Z</time>
      </trkpt>
      <trkpt lat="44.87483" lon="5.35945">
        <ele>1123.4</ele>
        <time>2021-09-01T11:04:11Z</time>
      </trkpt>
      <trkpt lat="44.8748" lon="5.35944">
        <ele>1123.4</ele>
        <time>2021-09-01T11:04:12Z</time>
      </trkpt>
      <trkpt lat="44.87476" lon="5.35942">
        <ele>1123.5</ele>
        <time>2021-09-01T11:04:14Z</time>
      </trkpt>
      <trkpt lat="44.87471" lon="5.35939">
        <ele>1123.7</ele>
        <time>2021-09-01T11:04:15Z</time>
      </trkpt>
      <trkpt lat="44.87467" lon="5.35939">
        <ele>1123.8</ele>
        <time>2021-09-01T11:04:16Z</time>
      </trkpt>
      <trkpt lat="44.87465" lon="5.35938">
        <ele>1123.9</ele>
        <time>2021-09-01T11:04:17Z</time>
      </trkpt>
      <trkpt lat="44.87462" lon="5.35937">
        <ele>1123.9</ele>
        <time>2021-09-01T11:04:19Z</time>
      </trkpt>
      <trkpt lat="44.87461" lon="5.35937">
        <ele>1124</ele>
        <time>2021-09-01T11:04:20Z</time>
      </trkpt>
      <trkpt lat="44.87458" lon="5.35936">
        <ele>1124.1</ele>
        <time>2021-09-01T11:04:22Z</time>
      </trkpt>
      <trkpt lat="44.87456" lon="5.35935">
        <ele>1124.1</ele>
        <time>2021-09-01T11:04:23Z</time>
      </trkpt>
      <trkpt lat="44.87455" lon="5.35934">
        <ele>1124.1</ele>
        <time>2021-09-01T11:04:24Z</time>
      </trkpt>
      <trkpt lat="44.87453" lon="5.35933">
        <ele>1124.2</ele>
        <time>2021-09-01T11:04:25Z</time>
      </trkpt>
      <trkpt lat="44.87451" lon="5.35933">
        <ele>1124.2</ele>
        <time>2021-09-01T11:04:26Z</time>
      </trkpt>
      <trkpt lat="44.87448" lon="5.35933">
        <ele>1124.3</ele>
        <time>2021-09-01T11:04:27Z</time>
      </trkpt>
      <trkpt lat="44.87447" lon="5.35933">
        <ele>1124.4</ele>
        <time>2021-09-01T11:04:28Z</time>
      </trkpt>
      <trkpt lat="44.87446" lon="5.35933">
        <ele>1124.4</ele>
        <time>2021-09-01T11:04:30Z</time>
      </trkpt>
      <trkpt lat="44.87443" lon="5.35933">
        <ele>1124.4</ele>
        <time>2021-09-01T11:04:31Z</time>
      </trkpt>
      <trkpt lat="44.87441" lon="5.35931">
        <ele>1124.5</ele>
        <time>2021-09-01T11:04:32Z</time>
      </trkpt>
      <trkpt lat="44.87441" lon="5.35929">
        <ele>1124.5</ele>
        <time>2021-09-01T11:04:33Z</time>
      </trkpt>
      <trkpt lat="44.8744" lon="5.35928">
        <ele>1124.6</ele>
        <time>2021-09-01T11:04:34Z</time>
      </trkpt>
      <trkpt lat="44.8744" lon="5.35926">
        <ele>1124.6</ele>
        <time>2021-09-01T11:04:35Z</time>
      </trkpt>
      <trkpt lat="44.87439" lon="5.35924">
        <ele>1124.6</ele>
        <time>2021-09-01T11:04:37Z</time>
      </trkpt>
      <trkpt lat="44.87438" lon="5.35922">
        <ele>1124.7</ele>
        <time>2021-09-01T11:04:38Z</time>
      </trkpt>
      <trkpt lat="44.87423" lon="5.35837">
        <ele>1126.3</ele>
        <time>2021-09-01T11:06:50Z</time>
      </trkpt>
      <trkpt lat="44.87424" lon="5.35826">
        <ele>1126.6</ele>
        <time>2021-09-01T11:06:52Z</time>
      </trkpt>
      <trkpt lat="44.87424" lon="5.3582">
        <ele>1126.7</ele>
        <time>2021-09-01T11:06:54Z</time>
      </trkpt>
      <trkpt lat="44.87424" lon="5.3582">
        <ele>1126.7</ele>
        <time>2021-09-01T11:06:55Z</time>
      </trkpt>
      <trkpt lat="44.87424" lon="5.3582">
        <ele>1126.7</ele>
        <time>2021-09-01T11:06:56Z</time>
      </trkpt>
      <trkpt lat="44.87424" lon="5.3582">
        <ele>1126.7</ele>
        <time>2021-09-01T11:06:58Z</time>
      </trkpt>
      <trkpt lat="44.87424" lon="5.3582">
        <ele>1126.7</ele>
        <time>2021-09-01T11:07:00Z</time>
      </trkpt>
      <trkpt lat="44.87423" lon="5.35819">
        <ele>1126.8</ele>
        <time>2021-09-01T11:07:02Z</time>
      </trkpt>
      <trkpt lat="44.87423" lon="5.35819">
        <ele>1126.8</ele>
        <time>2021-09-01T11:07:03Z</time>
      </trkpt>
      <trkpt lat="44.87423" lon="5.35819">
        <ele>1126.8</ele>
        <time>2021-09-01T11:07:05Z</time>
      </trkpt>
      <trkpt lat="44.87423" lon="5.35819">
        <ele>1126.8</ele>
        <time>2021-09-01T11:07:06Z</time>
      </trkpt>
      <trkpt lat="44.87423" lon="5.35819">
        <ele>1126.8</ele>
        <time>2021-09-01T11:07:08Z</time>
      </trkpt>
      <trkpt lat="44.87423" lon="5.35819">
        <ele>1126.8</ele>
        <time>2021-09-01T11:07:10Z</time>
      </trkpt>
      <trkpt lat="44.87423" lon="5.35819">
        <ele>1126.8</ele>
        <time>2021-09-01T11:07:12Z</time>
      </trkpt>
      <trkpt lat="44.87423" lon="5.3582">
        <ele>1126.8</ele>
        <time>2021-09-01T11:07:14Z</time>
      </trkpt>
      <trkpt lat="44.87423" lon="5.3582">
        <ele>1126.8</ele>
        <time>2021-09-01T11:07:16Z</time>
      </trkpt>
      <trkpt lat="44.87423" lon="5.35821">
        <ele>1126.8</ele>
        <time>2021-09-01T11:07:18Z</time>
      </trkpt>
      <trkpt lat="44.87423" lon="5.35822">
        <ele>1126.8</ele>
        <time>2021-09-01T11:07:19Z</time>
      </trkpt>
      <trkpt lat="44.87423" lon="5.35822">
        <ele>1126.9</ele>
        <time>2021-09-01T11:07:20Z</time>
      </trkpt>
      <trkpt lat="44.87423" lon="5.35823">
        <ele>1126.9</ele>
        <time>2021-09-01T11:07:21Z</time>
      </trkpt>
      <trkpt lat="44.87423" lon="5.35824">
        <ele>1126.9</ele>
        <time>2021-09-01T11:07:23Z</time>
      </trkpt>
      <trkpt lat="44.87423" lon="5.35824">
        <ele>1126.9</ele>
        <time>2021-09-01T11:07:24Z</time>
      </trkpt>
      <trkpt lat="44.87424" lon="5.35825">
        <ele>1126.9</ele>
        <time>2021-09-01T11:07:26Z</time>
      </trkpt>
      <trkpt lat="44.87424" lon="5.35826">
        <ele>1127</ele>
        <time>2021-09-01T11:07:28Z</time>
      </trkpt>
      <trkpt lat="44.87424" lon="5.35827">
        <ele>1127</ele>
        <time>2021-09-01T11:07:30Z</time>
      </trkpt>
      <trkpt lat="44.87424" lon="5.35828">
        <ele>1127</ele>
        <time>2021-09-01T11:07:31Z</time>
      </trkpt>
      <trkpt lat="44.87424" lon="5.35829">
        <ele>1127</ele>
        <time>2021-09-01T11:07:33Z</time>
      </trkpt>
      <trkpt lat="44.87424" lon="5.3583">
        <ele>1127</ele>
        <time>2021-09-01T11:07:35Z</time>
      </trkpt>
      <trkpt lat="44.87425" lon="5.35831">
        <ele>1127.1</ele>
        <time>2021-09-01T11:07:37Z</time>
      </trkpt>
      <trkpt lat="44.87425" lon="5.35832">
        <ele>1127.1</ele>
        <time>2021-09-01T11:07:38Z</time>
      </trkpt>
      <trkpt lat="44.87425" lon="5.35833">
        <ele>1127.1</ele>
        <time>2021-09-01T11:07:40Z</time>
      </trkpt>
      <trkpt lat="44.87426" lon="5.35833">
        <ele>1127.1</ele>
        <time>2021-09-01T11:07:42Z</time>
      </trkpt>
      <trkpt lat="44.87426" lon="5.35833">
        <ele>1127.2</ele>
        <time>2021-09-01T11:07:43Z</time>
      </trkpt>
      <trkpt lat="44.87427" lon="5.35833">
        <ele>1127.2</ele>
        <time>2021-09-01T11:07:44Z</time>
      </trkpt>
      <trkpt lat="44.87428" lon="5.35832">
        <ele>1127.2</ele>
        <time>2021-09-01T11:07:46Z</time>
      </trkpt>
      <trkpt lat="44.87428" lon="5.35831">
        <ele>1127.2</ele>
        <time>2021-09-01T11:07:47Z</time>
      </trkpt>
      <trkpt lat="44.8743" lon="5.35829">
        <ele>1127.3</ele>
        <time>2021-09-01T11:07:49Z</time>
      </trkpt>
      <trkpt lat="44.8743" lon="5.35828">
        <ele>1127.3</ele>
        <time>2021-09-01T11:07:50Z</time>
      </trkpt>
      <trkpt lat="44.87431" lon="5.35826">
        <ele>1127.4</ele>
        <time>2021-09-01T11:07:52Z</time>
      </trkpt>
      <trkpt lat="44.87432" lon="5.35826">
        <ele>1127.4</ele>
        <time>2021-09-01T11:07:53Z</time>
      </trkpt>
      <trkpt lat="44.87433" lon="5.35823">
        <ele>1127.5</ele>
        <time>2021-09-01T11:07:55Z</time>
      </trkpt>
      <trkpt lat="44.87434" lon="5.35822">
        <ele>1127.5</ele>
        <time>2021-09-01T11:07:56Z</time>
      </trkpt>
      <trkpt lat="44.87435" lon="5.3582">
        <ele>1127.6</ele>
        <time>2021-09-01T11:07:58Z</time>
      </trkpt>
      <trkpt lat="44.87438" lon="5.35816">
        <ele>1127.7</ele>
        <time>2021-09-01T11:08:00Z</time>
      </trkpt>
      <trkpt lat="44.87439" lon="5.35813">
        <ele>1127.8</ele>
        <time>2021-09-01T11:08:01Z</time>
      </trkpt>
      <trkpt lat="44.87439" lon="5.35812">
        <ele>1127.8</ele>
        <time>2021-09-01T11:08:02Z</time>
      </trkpt>
      <trkpt lat="44.87441" lon="5.3581">
        <ele>1127.9</ele>
        <time>2021-09-01T11:08:04Z</time>
      </trkpt>
      <trkpt lat="44.87442" lon="5.35809">
        <ele>1128</ele>
        <time>2021-09-01T11:08:05Z</time>
      </trkpt>
      <trkpt lat="44.87449" lon="5.35802">
        <ele>1128.3</ele>
        <time>2021-09-01T11:08:14Z</time>
      </trkpt>
      <trkpt lat="44.87455" lon="5.35795">
        <ele>1128.6</ele>
        <time>2021-09-01T11:08:16Z</time>
      </trkpt>
      <trkpt lat="44.87453" lon="5.35799">
        <ele>1128.7</ele>
        <time>2021-09-01T11:08:17Z</time>
      </trkpt>
      <trkpt lat="44.87451" lon="5.35804">
        <ele>1128.9</ele>
        <time>2021-09-01T11:08:19Z</time>
      </trkpt>
      <trkpt lat="44.87449" lon="5.3581">
        <ele>1129.1</ele>
        <time>2021-09-01T11:08:20Z</time>
      </trkpt>
      <trkpt lat="44.87446" lon="5.35815">
        <ele>1129.2</ele>
        <time>2021-09-01T11:08:22Z</time>
      </trkpt>
      <trkpt lat="44.87444" lon="5.35821">
        <ele>1129.4</ele>
        <time>2021-09-01T11:08:24Z</time>
      </trkpt>
      <trkpt lat="44.87442" lon="5.35826">
        <ele>1129.6</ele>
        <time>2021-09-01T11:08:26Z</time>
      </trkpt>
      <trkpt lat="44.8744" lon="5.35832">
        <ele>1129.8</ele>
        <time>2021-09-01T11:08:27Z</time>
      </trkpt>
      <trkpt lat="44.87437" lon="5.35837">
        <ele>1130</ele>
        <time>2021-09-01T11:08:29Z</time>
      </trkpt>
      <trkpt lat="44.8743" lon="5.35857">
        <ele>1130.6</ele>
        <time>2021-09-01T11:08:30Z</time>
      </trkpt>
      <trkpt lat="44.87425" lon="5.35873">
        <ele>1131.1</ele>
        <time>2021-09-01T11:08:32Z</time>
      </trkpt>
      <trkpt lat="44.87425" lon="5.35873">
        <ele>1131.1</ele>
        <time>2021-09-01T11:08:34Z</time>
      </trkpt>
      <trkpt lat="44.87424" lon="5.35876">
        <ele>1131.2</ele>
        <time>2021-09-01T11:08:36Z</time>
      </trkpt>
      <trkpt lat="44.87423" lon="5.35878">
        <ele>1131.2</ele>
        <time>2021-09-01T11:08:38Z</time>
      </trkpt>
      <trkpt lat="44.87422" lon="5.35878">
        <ele>1131.3</ele>
        <time>2021-09-01T11:08:40Z</time>
      </trkpt>
      <trkpt lat="44.87422" lon="5.35878">
        <ele>1131.3</ele>
        <time>2021-09-01T11:08:42Z</time>
      </trkpt>
      <trkpt lat="44.87421" lon="5.35877">
        <ele>1131.3</ele>
        <time>2021-09-01T11:08:44Z</time>
      </trkpt>
      <trkpt lat="44.87421" lon="5.35877">
        <ele>1131.3</ele>
        <time>2021-09-01T11:08:45Z</time>
      </trkpt>
      <trkpt lat="44.87413" lon="5.35867">
        <ele>1131.7</ele>
        <time>2021-09-01T11:08:47Z</time>
      </trkpt>
      <trkpt lat="44.87411" lon="5.35864">
        <ele>1131.8</ele>
        <time>2021-09-01T11:08:48Z</time>
      </trkpt>
      <trkpt lat="44.87411" lon="5.35864">
        <ele>1131.8</ele>
        <time>2021-09-01T11:08:49Z</time>
      </trkpt>
      <trkpt lat="44.87411" lon="5.35864">
        <ele>1131.8</ele>
        <time>2021-09-01T11:08:51Z</time>
      </trkpt>
      <trkpt lat="44.87411" lon="5.35864">
        <ele>1131.8</ele>
        <time>2021-09-01T11:08:53Z</time>
      </trkpt>
      <trkpt lat="44.87411" lon="5.35864">
        <ele>1131.8</ele>
        <time>2021-09-01T11:08:55Z</time>
      </trkpt>
      <trkpt lat="44.87411" lon="5.35864">
        <ele>1131.8</ele>
        <time>2021-09-01T11:08:57Z</time>
      </trkpt>
      <trkpt lat="44.87411" lon="5.35863">
        <ele>1131.8</ele>
        <time>2021-09-01T11:08:59Z</time>
      </trkpt>
      <trkpt lat="44.87411" lon="5.35863">
        <ele>1131.8</ele>
        <time>2021-09-01T11:09:00Z</time>
      </trkpt>
      <trkpt lat="44.8741" lon="5.35863">
        <ele>1131.8</ele>
        <time>2021-09-01T11:09:02Z</time>
      </trkpt>
      <trkpt lat="44.8741" lon="5.35864">
        <ele>1131.8</ele>
        <time>2021-09-01T11:09:03Z</time>
      </trkpt>
      <trkpt lat="44.87409" lon="5.35864">
        <ele>1131.8</ele>
        <time>2021-09-01T11:09:05Z</time>
      </trkpt>
      <trkpt lat="44.87409" lon="5.35864">
        <ele>1131.8</ele>
        <time>2021-09-01T11:09:07Z</time>
      </trkpt>
      <trkpt lat="44.87408" lon="5.35864">
        <ele>1131.9</ele>
        <time>2021-09-01T11:09:09Z</time>
      </trkpt>
      <trkpt lat="44.87407" lon="5.35864">
        <ele>1131.9</ele>
        <time>2021-09-01T11:09:11Z</time>
      </trkpt>
      <trkpt lat="44.87407" lon="5.35864">
        <ele>1131.9</ele>
        <time>2021-09-01T11:09:12Z</time>
      </trkpt>
      <trkpt lat="44.87407" lon="5.35864">
        <ele>1131.9</ele>
        <time>2021-09-01T11:09:14Z</time>
      </trkpt>
      <trkpt lat="44.87406" lon="5.35864">
        <ele>1131.9</ele>
        <time>2021-09-01T11:09:15Z</time>
      </trkpt>
      <trkpt lat="44.87406" lon="5.35865">
        <ele>1132</ele>
        <time>2021-09-01T11:09:16Z</time>
      </trkpt>
      <trkpt lat="44.87405" lon="5.35865">
        <ele>1132</ele>
        <time>2021-09-01T11:09:18Z</time>
      </trkpt>
      <trkpt lat="44.87405" lon="5.35865">
        <ele>1132</ele>
        <time>2021-09-01T11:09:19Z</time>
      </trkpt>
      <trkpt lat="44.87404" lon="5.35865">
        <ele>1132</ele>
        <time>2021-09-01T11:09:21Z</time>
      </trkpt>
      <trkpt lat="44.87404" lon="5.35865">
        <ele>1132</ele>
        <time>2021-09-01T11:09:22Z</time>
      </trkpt>
      <trkpt lat="44.87403" lon="5.35866">
        <ele>1132</ele>
        <time>2021-09-01T11:09:24Z</time>
      </trkpt>
      <trkpt lat="44.87402" lon="5.35867">
        <ele>1132.1</ele>
        <time>2021-09-01T11:09:26Z</time>
      </trkpt>
      <trkpt lat="44.87392" lon="5.35879">
        <ele>1132.5</ele>
        <time>2021-09-01T11:09:28Z</time>
      </trkpt>
      <trkpt lat="44.87392" lon="5.35879">
        <ele>1132.5</ele>
        <time>2021-09-01T11:09:30Z</time>
      </trkpt>
      <trkpt lat="44.87392" lon="5.35879">
        <ele>1132.5</ele>
        <time>2021-09-01T11:09:31Z</time>
      </trkpt>
      <trkpt lat="44.87392" lon="5.35879">
        <ele>1132.5</ele>
        <time>2021-09-01T11:09:32Z</time>
      </trkpt>
      <trkpt lat="44.87392" lon="5.3588">
        <ele>1132.5</ele>
        <time>2021-09-01T11:09:34Z</time>
      </trkpt>
      <trkpt lat="44.87392" lon="5.3588">
        <ele>1132.5</ele>
        <time>2021-09-01T11:09:35Z</time>
      </trkpt>
      <trkpt lat="44.87392" lon="5.3588">
        <ele>1132.5</ele>
        <time>2021-09-01T11:09:39Z</time>
      </trkpt>
      <trkpt lat="44.87447" lon="5.3582">
        <ele>1135.2</ele>
        <time>2021-09-01T11:10:13Z</time>
      </trkpt>
      <trkpt lat="44.87443" lon="5.35821">
        <ele>1135.3</ele>
        <time>2021-09-01T11:10:14Z</time>
      </trkpt>
      <trkpt lat="44.8744" lon="5.35822">
        <ele>1135.5</ele>
        <time>2021-09-01T11:10:16Z</time>
      </trkpt>
      <trkpt lat="44.87436" lon="5.35824">
        <ele>1135.6</ele>
        <time>2021-09-01T11:10:17Z</time>
      </trkpt>
      <trkpt lat="44.87432" lon="5.35825">
        <ele>1135.7</ele>
        <time>2021-09-01T11:10:19Z</time>
      </trkpt>
      <trkpt lat="44.87428" lon="5.35826">
        <ele>1135.9</ele>
        <time>2021-09-01T11:10:20Z</time>
      </trkpt>
      <trkpt lat="44.87461" lon="5.35812">
        <ele>1137</ele>
        <time>2021-09-01T11:16:45Z</time>
      </trkpt>
      <trkpt lat="44.8746" lon="5.35816">
        <ele>1137.1</ele>
        <time>2021-09-01T11:16:46Z</time>
      </trkpt>
      <trkpt lat="44.87458" lon="5.3582">
        <ele>1137.2</ele>
        <time>2021-09-01T11:16:47Z</time>
      </trkpt>
      <trkpt lat="44.87453" lon="5.35836">
        <ele>1137.5</ele>
        <time>2021-09-01T11:16:49Z</time>
      </trkpt>
      <trkpt lat="44.87446" lon="5.35853">
        <ele>1137.9</ele>
        <time>2021-09-01T11:16:51Z</time>
      </trkpt>
      <trkpt lat="44.87445" lon="5.35854">
        <ele>1137.9</ele>
        <time>2021-09-01T11:16:52Z</time>
      </trkpt>
      <trkpt lat="44.87442" lon="5.35863">
        <ele>1138.1</ele>
        <time>2021-09-01T11:16:54Z</time>
      </trkpt>
      <trkpt lat="44.8744" lon="5.35868">
        <ele>1138.3</ele>
        <time>2021-09-01T11:16:55Z</time>
      </trkpt>
      <trkpt lat="44.87436" lon="5.35881">
        <ele>1138.5</ele>
        <time>2021-09-01T11:16:57Z</time>
      </trkpt>
      <trkpt lat="44.87435" lon="5.35884">
        <ele>1138.6</ele>
        <time>2021-09-01T11:16:58Z</time>
      </trkpt>
      <trkpt lat="44.87435" lon="5.35884">
        <ele>1138.6</ele>
        <time>2021-09-01T11:17:00Z</time>
      </trkpt>
      <trkpt lat="44.87435" lon="5.35884">
        <ele>1138.6</ele>
        <time>2021-09-01T11:17:02Z</time>
      </trkpt>
      <trkpt lat="44.87435" lon="5.35884">
        <ele>1138.6</ele>
        <time>2021-09-01T11:17:03Z</time>
      </trkpt>
      <trkpt lat="44.87435" lon="5.35884">
        <ele>1138.6</ele>
        <time>2021-09-01T11:17:04Z</time>
      </trkpt>
      <trkpt lat="44.87435" lon="5.35884">
        <ele>1138.6</ele>
        <time>2021-09-01T11:17:05Z</time>
      </trkpt>
      <trkpt lat="44.87435" lon="5.35884">
        <ele>1138.6</ele>
        <time>2021-09-01T11:17:06Z</time>
      </trkpt>
      <trkpt lat="44.87435" lon="5.35884">
        <ele>1138.6</ele>
        <time>2021-09-01T11:17:08Z</time>
      </trkpt>
      <trkpt lat="44.87435" lon="5.35884">
        <ele>1138.6</ele>
        <time>2021-09-01T11:17:09Z</time>
      </trkpt>
      <trkpt lat="44.87434" lon="5.35888">
        <ele>1138.7</ele>
        <time>2021-09-01T11:17:11Z</time>
      </trkpt>
      <trkpt lat="44.87434" lon="5.35888">
        <ele>1138.7</ele>
        <time>2021-09-01T11:17:12Z</time>
      </trkpt>
      <trkpt lat="44.87434" lon="5.35889">
        <ele>1138.7</ele>
        <time>2021-09-01T11:17:14Z</time>
      </trkpt>
      <trkpt lat="44.87434" lon="5.35889">
        <ele>1138.7</ele>
        <time>2021-09-01T11:17:15Z</time>
      </trkpt>
      <trkpt lat="44.87434" lon="5.35889">
        <ele>1138.7</ele>
        <time>2021-09-01T11:17:16Z</time>
      </trkpt>
      <trkpt lat="44.87434" lon="5.35889">
        <ele>1138.7</ele>
        <time>2021-09-01T11:17:18Z</time>
      </trkpt>
      <trkpt lat="44.87434" lon="5.35889">
        <ele>1138.7</ele>
        <time>2021-09-01T11:17:19Z</time>
      </trkpt>
      <trkpt lat="44.87434" lon="5.35889">
        <ele>1138.7</ele>
        <time>2021-09-01T11:17:21Z</time>
      </trkpt>
      <trkpt lat="44.87434" lon="5.35889">
        <ele>1138.7</ele>
        <time>2021-09-01T11:17:23Z</time>
      </trkpt>
      <trkpt lat="44.87434" lon="5.35889">
        <ele>1138.7</ele>
        <time>2021-09-01T11:17:24Z</time>
      </trkpt>
      <trkpt lat="44.87434" lon="5.35889">
        <ele>1138.7</ele>
        <time>2021-09-01T11:17:25Z</time>
      </trkpt>
      <trkpt lat="44.87434" lon="5.35889">
        <ele>1138.7</ele>
        <time>2021-09-01T11:17:26Z</time>
      </trkpt>
      <trkpt lat="44.87432" lon="5.35891">
        <ele>1138.8</ele>
        <time>2021-09-01T11:17:27Z</time>
      </trkpt>
      <trkpt lat="44.87422" lon="5.35907">
        <ele>1139.3</ele>
        <time>2021-09-01T11:17:30Z</time>
      </trkpt>
      <trkpt lat="44.87415" lon="5.35919">
        <ele>1139.7</ele>
        <time>2021-09-01T11:17:31Z</time>
      </trkpt>
      <trkpt lat="44.87412" lon="5.35922">
        <ele>1139.8</ele>
        <time>2021-09-01T11:17:33Z</time>
      </trkpt>
      <trkpt lat="44.87411" lon="5.35921">
        <ele>1139.8</ele>
        <time>2021-09-01T11:17:34Z</time>
      </trkpt>
      <trkpt lat="44.87411" lon="5.3592">
        <ele>1139.9</ele>
        <time>2021-09-01T11:17:35Z</time>
      </trkpt>
      <trkpt lat="44.8741" lon="5.35918">
        <ele>1139.9</ele>
        <time>2021-09-01T11:17:36Z</time>
      </trkpt>
      <trkpt lat="44.8741" lon="5.35913">
        <ele>1140</ele>
        <time>2021-09-01T11:17:37Z</time>
      </trkpt>
      <trkpt lat="44.8741" lon="5.35912">
        <ele>1140.1</ele>
        <time>2021-09-01T11:17:38Z</time>
      </trkpt>
      <trkpt lat="44.8741" lon="5.35909">
        <ele>1140.1</ele>
        <time>2021-09-01T11:17:40Z</time>
      </trkpt>
      <trkpt lat="44.87409" lon="5.35909">
        <ele>1140.1</ele>
        <time>2021-09-01T11:17:42Z</time>
      </trkpt>
      <trkpt lat="44.87409" lon="5.35909">
        <ele>1140.2</ele>
        <time>2021-09-01T11:17:43Z</time>
      </trkpt>
      <trkpt lat="44.87409" lon="5.35909">
        <ele>1140.2</ele>
        <time>2021-09-01T11:17:44Z</time>
      </trkpt>
      <trkpt lat="44.87408" lon="5.35908">
        <ele>1140.2</ele>
        <time>2021-09-01T11:17:47Z</time>
      </trkpt>
      <trkpt lat="44.87408" lon="5.35908">
        <ele>1140.2</ele>
        <time>2021-09-01T11:17:48Z</time>
      </trkpt>
      <trkpt lat="44.87408" lon="5.35908">
        <ele>1140.2</ele>
        <time>2021-09-01T11:17:50Z</time>
      </trkpt>
      <trkpt lat="44.87408" lon="5.35908">
        <ele>1140.2</ele>
        <time>2021-09-01T11:17:53Z</time>
      </trkpt>
      <trkpt lat="44.87408" lon="5.35908">
        <ele>1140.2</ele>
        <time>2021-09-01T11:17:54Z</time>
      </trkpt>
      <trkpt lat="44.87409" lon="5.35908">
        <ele>1140.2</ele>
        <time>2021-09-01T11:17:56Z</time>
      </trkpt>
      <trkpt lat="44.87409" lon="5.35908">
        <ele>1140.2</ele>
        <time>2021-09-01T11:17:58Z</time>
      </trkpt>
      <trkpt lat="44.87409" lon="5.35908">
        <ele>1140.2</ele>
        <time>2021-09-01T11:17:59Z</time>
      </trkpt>
      <trkpt lat="44.87409" lon="5.35908">
        <ele>1140.2</ele>
        <time>2021-09-01T11:18:01Z</time>
      </trkpt>
      <trkpt lat="44.87409" lon="5.35908">
        <ele>1140.2</ele>
        <time>2021-09-01T11:18:02Z</time>
      </trkpt>
      <trkpt lat="44.87409" lon="5.35908">
        <ele>1140.3</ele>
        <time>2021-09-01T11:18:03Z</time>
      </trkpt>
      <trkpt lat="44.87409" lon="5.35908">
        <ele>1140.3</ele>
        <time>2021-09-01T11:18:04Z</time>
      </trkpt>
      <trkpt lat="44.87409" lon="5.35908">
        <ele>1140.3</ele>
        <time>2021-09-01T11:18:05Z</time>
      </trkpt>
      <trkpt lat="44.8741" lon="5.35908">
        <ele>1140.3</ele>
        <time>2021-09-01T11:18:07Z</time>
      </trkpt>
      <trkpt lat="44.8741" lon="5.35907">
        <ele>1140.3</ele>
        <time>2021-09-01T11:18:08Z</time>
      </trkpt>
      <trkpt lat="44.8741" lon="5.35907">
        <ele>1140.3</ele>
        <time>2021-09-01T11:18:10Z</time>
      </trkpt>
      <trkpt lat="44.8741" lon="5.35907">
        <ele>1140.3</ele>
        <time>2021-09-01T11:18:11Z</time>
      </trkpt>
      <trkpt lat="44.8741" lon="5.35907">
        <ele>1140.3</ele>
        <time>2021-09-01T11:18:12Z</time>
      </trkpt>
      <trkpt lat="44.8741" lon="5.35907">
        <ele>1140.3</ele>
        <time>2021-09-01T11:18:13Z</time>
      </trkpt>
      <trkpt lat="44.8741" lon="5.35907">
        <ele>1140.3</ele>
        <time>2021-09-01T11:18:14Z</time>
      </trkpt>
      <trkpt lat="44.8741" lon="5.35907">
        <ele>1140.3</ele>
        <time>2021-09-01T11:18:16Z</time>
      </trkpt>
      <trkpt lat="44.87411" lon="5.35907">
        <ele>1140.3</ele>
        <time>2021-09-01T11:18:17Z</time>
      </trkpt>
      <trkpt lat="44.87411" lon="5.35907">
        <ele>1140.3</ele>
        <time>2021-09-01T11:18:18Z</time>
      </trkpt>
      <trkpt lat="44.87412" lon="5.35907">
        <ele>1140.4</ele>
        <time>2021-09-01T11:18:20Z</time>
      </trkpt>
      <trkpt lat="44.87413" lon="5.35907">
        <ele>1140.4</ele>
        <time>2021-09-01T11:18:21Z</time>
      </trkpt>
      <trkpt lat="44.87414" lon="5.35907">
        <ele>1140.4</ele>
        <time>2021-09-01T11:18:23Z</time>
      </trkpt>
      <trkpt lat="44.87413" lon="5.35906">
        <ele>1140.4</ele>
        <time>2021-09-01T11:18:25Z</time>
      </trkpt>
      <trkpt lat="44.87413" lon="5.35905">
        <ele>1140.4</ele>
        <time>2021-09-01T11:18:26Z</time>
      </trkpt>
      <trkpt lat="44.87413" lon="5.35904">
        <ele>1140.5</ele>
        <time>2021-09-01T11:18:27Z</time>
      </trkpt>
      <trkpt lat="44.87413" lon="5.35904">
        <ele>1140.5</ele>
        <time>2021-09-01T11:18:28Z</time>
      </trkpt>
      <trkpt lat="44.87413" lon="5.35904">
        <ele>1140.5</ele>
        <time>2021-09-01T11:18:29Z</time>
      </trkpt>
      <trkpt lat="44.87413" lon="5.35905">
        <ele>1140.5</ele>
        <time>2021-09-01T11:18:30Z</time>
      </trkpt>
      <trkpt lat="44.87413" lon="5.35905">
        <ele>1140.5</ele>
        <time>2021-09-01T11:18:32Z</time>
      </trkpt>
      <trkpt lat="44.87412" lon="5.35906">
        <ele>1140.5</ele>
        <time>2021-09-01T11:18:34Z</time>
      </trkpt>
      <trkpt lat="44.87411" lon="5.35907">
        <ele>1140.6</ele>
        <time>2021-09-01T11:18:36Z</time>
      </trkpt>
      <trkpt lat="44.87411" lon="5.35907">
        <ele>1140.6</ele>
        <time>2021-09-01T11:18:37Z</time>
      </trkpt>
      <trkpt lat="44.8741" lon="5.35907">
        <ele>1140.6</ele>
        <time>2021-09-01T11:18:38Z</time>
      </trkpt>
      <trkpt lat="44.8741" lon="5.35908">
        <ele>1140.6</ele>
        <time>2021-09-01T11:18:40Z</time>
      </trkpt>
      <trkpt lat="44.8741" lon="5.35908">
        <ele>1140.6</ele>
        <time>2021-09-01T11:18:42Z</time>
      </trkpt>
      <trkpt lat="44.8741" lon="5.35909">
        <ele>1140.6</ele>
        <time>2021-09-01T11:18:44Z</time>
      </trkpt>
      <trkpt lat="44.87409" lon="5.35909">
        <ele>1140.6</ele>
        <time>2021-09-01T11:18:46Z</time>
      </trkpt>
      <trkpt lat="44.87409" lon="5.35909">
        <ele>1140.6</ele>
        <time>2021-09-01T11:18:48Z</time>
      </trkpt>
      <trkpt lat="44.87409" lon="5.35909">
        <ele>1140.6</ele>
        <time>2021-09-01T11:18:50Z</time>
      </trkpt>
      <trkpt lat="44.87409" lon="5.35909">
        <ele>1140.6</ele>
        <time>2021-09-01T11:18:52Z</time>
      </trkpt>
      <trkpt lat="44.87409" lon="5.35909">
        <ele>1140.6</ele>
        <time>2021-09-01T11:18:54Z</time>
      </trkpt>
      <trkpt lat="44.87409" lon="5.3591">
        <ele>1140.7</ele>
        <time>2021-09-01T11:18:55Z</time>
      </trkpt>
      <trkpt lat="44.87409" lon="5.3591">
        <ele>1140.7</ele>
        <time>2021-09-01T11:18:56Z</time>
      </trkpt>
      <trkpt lat="44.87409" lon="5.3591">
        <ele>1140.7</ele>
        <time>2021-09-01T11:18:57Z</time>
      </trkpt>
      <trkpt lat="44.87409" lon="5.3591">
        <ele>1140.7</ele>
        <time>2021-09-01T11:18:59Z</time>
      </trkpt>
      <trkpt lat="44.87409" lon="5.3591">
        <ele>1140.7</ele>
        <time>2021-09-01T11:19:00Z</time>
      </trkpt>
      <trkpt lat="44.87409" lon="5.3591">
        <ele>1140.7</ele>
        <time>2021-09-01T11:19:02Z</time>
      </trkpt>
      <trkpt lat="44.87409" lon="5.35909">
        <ele>1140.7</ele>
        <time>2021-09-01T11:19:04Z</time>
      </trkpt>
      <trkpt lat="44.87409" lon="5.35909">
        <ele>1140.7</ele>
        <time>2021-09-01T11:19:05Z</time>
      </trkpt>
      <trkpt lat="44.8741" lon="5.35909">
        <ele>1140.7</ele>
        <time>2021-09-01T11:19:06Z</time>
      </trkpt>
      <trkpt lat="44.8741" lon="5.35909">
        <ele>1140.7</ele>
        <time>2021-09-01T11:19:07Z</time>
      </trkpt>
      <trkpt lat="44.8741" lon="5.35908">
        <ele>1140.7</ele>
        <time>2021-09-01T11:19:09Z</time>
      </trkpt>
      <trkpt lat="44.87411" lon="5.35905">
        <ele>1140.8</ele>
        <time>2021-09-01T11:19:11Z</time>
      </trkpt>
      <trkpt lat="44.87413" lon="5.35903">
        <ele>1140.9</ele>
        <time>2021-09-01T11:19:12Z</time>
      </trkpt>
      <trkpt lat="44.87413" lon="5.35902">
        <ele>1140.9</ele>
        <time>2021-09-01T11:19:13Z</time>
      </trkpt>
      <trkpt lat="44.87417" lon="5.35902">
        <ele>1141</ele>
        <time>2021-09-01T11:19:15Z</time>
      </trkpt>
      <trkpt lat="44.87419" lon="5.359">
        <ele>1141</ele>
        <time>2021-09-01T11:19:16Z</time>
      </trkpt>
      <trkpt lat="44.87422" lon="5.35897">
        <ele>1141.2</ele>
        <time>2021-09-01T11:19:18Z</time>
      </trkpt>
      <trkpt lat="44.87424" lon="5.35894">
        <ele>1141.2</ele>
        <time>2021-09-01T11:19:19Z</time>
      </trkpt>
      <trkpt lat="44.87424" lon="5.35892">
        <ele>1141.3</ele>
        <time>2021-09-01T11:19:20Z</time>
      </trkpt>
      <trkpt lat="44.87425" lon="5.3589">
        <ele>1141.3</ele>
        <time>2021-09-01T11:19:21Z</time>
      </trkpt>
      <trkpt lat="44.87425" lon="5.35888">
        <ele>1141.4</ele>
        <time>2021-09-01T11:19:22Z</time>
      </trkpt>
      <trkpt lat="44.87426" lon="5.35888">
        <ele>1141.4</ele>
        <time>2021-09-01T11:19:23Z</time>
      </trkpt>
      <trkpt lat="44.87426" lon="5.35885">
        <ele>1141.4</ele>
        <time>2021-09-01T11:19:25Z</time>
      </trkpt>
      <trkpt lat="44.87428" lon="5.35881">
        <ele>1141.5</ele>
        <time>2021-09-01T11:19:27Z</time>
      </trkpt>
      <trkpt lat="44.87429" lon="5.35878">
        <ele>1141.6</ele>
        <time>2021-09-01T11:19:29Z</time>
      </trkpt>
      <trkpt lat="44.87428" lon="5.35879">
        <ele>1141.6</ele>
        <time>2021-09-01T11:19:31Z</time>
      </trkpt>
      <trkpt lat="44.87428" lon="5.35878">
        <ele>1141.6</ele>
        <time>2021-09-01T11:19:33Z</time>
      </trkpt>
      <trkpt lat="44.87427" lon="5.35878">
        <ele>1141.7</ele>
        <time>2021-09-01T11:19:34Z</time>
      </trkpt>
      <trkpt lat="44.87427" lon="5.35878">
        <ele>1141.7</ele>
        <time>2021-09-01T11:19:35Z</time>
      </trkpt>
      <trkpt lat="44.87427" lon="5.35878">
        <ele>1141.7</ele>
        <time>2021-09-01T11:19:37Z</time>
      </trkpt>
      <trkpt lat="44.87427" lon="5.35878">
        <ele>1141.7</ele>
        <time>2021-09-01T11:19:39Z</time>
      </trkpt>
      <trkpt lat="44.87423" lon="5.35904">
        <ele>1142.2</ele>
        <time>2021-09-01T11:37:28Z</time>
      </trkpt>
      <trkpt lat="44.87422" lon="5.35909">
        <ele>1142.3</ele>
        <time>2021-09-01T11:37:30Z</time>
      </trkpt>
      <trkpt lat="44.87421" lon="5.35907">
        <ele>1142.4</ele>
        <time>2021-09-01T11:37:32Z</time>
      </trkpt>
      <trkpt lat="44.87422" lon="5.35905">
        <ele>1142.4</ele>
        <time>2021-09-01T11:37:34Z</time>
      </trkpt>
      <trkpt lat="44.87422" lon="5.35905">
        <ele>1142.4</ele>
        <time>2021-09-01T11:37:35Z</time>
      </trkpt>
      <trkpt lat="44.87422" lon="5.35905">
        <ele>1142.4</ele>
        <time>2021-09-01T11:37:36Z</time>
      </trkpt>
      <trkpt lat="44.87406" lon="5.35899">
        <ele>1142.9</ele>
        <time>2021-09-01T11:37:38Z</time>
      </trkpt>
      <trkpt lat="44.8739" lon="5.35893">
        <ele>1143.4</ele>
        <time>2021-09-01T11:37:40Z</time>
      </trkpt>
      <trkpt lat="44.87374" lon="5.35888">
        <ele>1143.9</ele>
        <time>2021-09-01T11:43:46Z</time>
      </trkpt>
      <trkpt lat="44.87358" lon="5.35882">
        <ele>1144.4</ele>
        <time>2021-09-01T11:43:47Z</time>
      </trkpt>
      <trkpt lat="44.87351" lon="5.35882">
        <ele>1144.6</ele>
        <time>2021-09-01T11:43:48Z</time>
      </trkpt>
      <trkpt lat="44.87349" lon="5.35882">
        <ele>1144.7</ele>
        <time>2021-09-01T11:43:49Z</time>
      </trkpt>
      <trkpt lat="44.87346" lon="5.35882">
        <ele>1144.8</ele>
        <time>2021-09-01T11:43:51Z</time>
      </trkpt>
      <trkpt lat="44.87342" lon="5.35881">
        <ele>1144.9</ele>
        <time>2021-09-01T11:43:53Z</time>
      </trkpt>
      <trkpt lat="44.87337" lon="5.3588">
        <ele>1145</ele>
        <time>2021-09-01T11:43:54Z</time>
      </trkpt>
      <trkpt lat="44.87333" lon="5.35879">
        <ele>1145.2</ele>
        <time>2021-09-01T11:43:56Z</time>
      </trkpt>
      <trkpt lat="44.87328" lon="5.35879">
        <ele>1145.3</ele>
        <time>2021-09-01T11:43:58Z</time>
      </trkpt>
      <trkpt lat="44.87324" lon="5.35878">
        <ele>1145.5</ele>
        <time>2021-09-01T11:44:15Z</time>
      </trkpt>
      <trkpt lat="44.87319" lon="5.35877">
        <ele>1145.6</ele>
        <time>2021-09-01T11:44:16Z</time>
      </trkpt>
      <trkpt lat="44.87315" lon="5.35875">
        <ele>1145.7</ele>
        <time>2021-09-01T11:44:17Z</time>
      </trkpt>
      <trkpt lat="44.87308" lon="5.35872">
        <ele>1146</ele>
        <time>2021-09-01T11:44:18Z</time>
      </trkpt>
      <trkpt lat="44.87299" lon="5.35866">
        <ele>1146.3</ele>
        <time>2021-09-01T11:44:20Z</time>
      </trkpt>
      <trkpt lat="44.87293" lon="5.35861">
        <ele>1146.5</ele>
        <time>2021-09-01T11:44:21Z</time>
      </trkpt>
      <trkpt lat="44.87288" lon="5.35858">
        <ele>1146.7</ele>
        <time>2021-09-01T11:44:22Z</time>
      </trkpt>
      <trkpt lat="44.87284" lon="5.35856">
        <ele>1146.8</ele>
        <time>2021-09-01T11:44:23Z</time>
      </trkpt>
      <trkpt lat="44.8728" lon="5.35854">
        <ele>1147</ele>
        <time>2021-09-01T11:44:25Z</time>
      </trkpt>
      <trkpt lat="44.87276" lon="5.35851">
        <ele>1147.1</ele>
        <time>2021-09-01T11:44:26Z</time>
      </trkpt>
      <trkpt lat="44.87274" lon="5.35847">
        <ele>1147.2</ele>
        <time>2021-09-01T11:44:27Z</time>
      </trkpt>
      <trkpt lat="44.87271" lon="5.35845">
        <ele>1147.3</ele>
        <time>2021-09-01T11:44:29Z</time>
      </trkpt>
      <trkpt lat="44.87268" lon="5.35843">
        <ele>1147.4</ele>
        <time>2021-09-01T11:44:30Z</time>
      </trkpt>
      <trkpt lat="44.87267" lon="5.35842">
        <ele>1147.4</ele>
        <time>2021-09-01T11:44:31Z</time>
      </trkpt>
      <trkpt lat="44.87265" lon="5.3584">
        <ele>1147.5</ele>
        <time>2021-09-01T11:44:32Z</time>
      </trkpt>
      <trkpt lat="44.87263" lon="5.3584">
        <ele>1147.6</ele>
        <time>2021-09-01T11:44:34Z</time>
      </trkpt>
      <trkpt lat="44.87261" lon="5.35837">
        <ele>1147.7</ele>
        <time>2021-09-01T11:44:36Z</time>
      </trkpt>
      <trkpt lat="44.8726" lon="5.35836">
        <ele>1147.7</ele>
        <time>2021-09-01T11:44:37Z</time>
      </trkpt>
      <trkpt lat="44.87259" lon="5.35836">
        <ele>1147.8</ele>
        <time>2021-09-01T11:44:38Z</time>
      </trkpt>
      <trkpt lat="44.87257" lon="5.35836">
        <ele>1147.8</ele>
        <time>2021-09-01T11:44:40Z</time>
      </trkpt>
      <trkpt lat="44.87256" lon="5.35836">
        <ele>1147.8</ele>
        <time>2021-09-01T11:44:41Z</time>
      </trkpt>
      <trkpt lat="44.87255" lon="5.35836">
        <ele>1147.9</ele>
        <time>2021-09-01T11:44:42Z</time>
      </trkpt>
      <trkpt lat="44.87251" lon="5.35838">
        <ele>1148</ele>
        <time>2021-09-01T11:44:44Z</time>
      </trkpt>
      <trkpt lat="44.87246" lon="5.35841">
        <ele>1148.2</ele>
        <time>2021-09-01T11:44:45Z</time>
      </trkpt>
      <trkpt lat="44.87241" lon="5.35842">
        <ele>1148.4</ele>
        <time>2021-09-01T11:44:47Z</time>
      </trkpt>
      <trkpt lat="44.87238" lon="5.35842">
        <ele>1148.5</ele>
        <time>2021-09-01T11:44:48Z</time>
      </trkpt>
      <trkpt lat="44.87235" lon="5.35839">
        <ele>1148.6</ele>
        <time>2021-09-01T11:44:50Z</time>
      </trkpt>
      <trkpt lat="44.87233" lon="5.35834">
        <ele>1148.7</ele>
        <time>2021-09-01T11:44:51Z</time>
      </trkpt>
      <trkpt lat="44.87228" lon="5.3583">
        <ele>1148.9</ele>
        <time>2021-09-01T11:44:53Z</time>
      </trkpt>
      <trkpt lat="44.87225" lon="5.35827">
        <ele>1149</ele>
        <time>2021-09-01T11:44:54Z</time>
      </trkpt>
      <trkpt lat="44.87222" lon="5.35821">
        <ele>1149.2</ele>
        <time>2021-09-01T11:44:55Z</time>
      </trkpt>
      <trkpt lat="44.87221" lon="5.35814">
        <ele>1149.4</ele>
        <time>2021-09-01T11:44:56Z</time>
      </trkpt>
      <trkpt lat="44.87223" lon="5.35813">
        <ele>1149.4</ele>
        <time>2021-09-01T11:44:58Z</time>
      </trkpt>
      <trkpt lat="44.87225" lon="5.35814">
        <ele>1149.5</ele>
        <time>2021-09-01T11:45:00Z</time>
      </trkpt>
      <trkpt lat="44.87226" lon="5.35815">
        <ele>1149.5</ele>
        <time>2021-09-01T11:45:01Z</time>
      </trkpt>
      <trkpt lat="44.87226" lon="5.35815">
        <ele>1149.5</ele>
        <time>2021-09-01T11:45:03Z</time>
      </trkpt>
      <trkpt lat="44.87226" lon="5.35815">
        <ele>1149.5</ele>
        <time>2021-09-01T11:45:04Z</time>
      </trkpt>
      <trkpt lat="44.87226" lon="5.35815">
        <ele>1149.5</ele>
        <time>2021-09-01T11:45:05Z</time>
      </trkpt>
      <trkpt lat="44.87226" lon="5.35815">
        <ele>1149.5</ele>
        <time>2021-09-01T11:45:07Z</time>
      </trkpt>
      <trkpt lat="44.87209" lon="5.35823">
        <ele>1150</ele>
        <time>2021-09-01T11:45:13Z</time>
      </trkpt>
      <trkpt lat="44.87204" lon="5.35821">
        <ele>1150.2</ele>
        <time>2021-09-01T11:45:14Z</time>
      </trkpt>
      <trkpt lat="44.87199" lon="5.35821">
        <ele>1150.3</ele>
        <time>2021-09-01T11:45:16Z</time>
      </trkpt>
      <trkpt lat="44.87193" lon="5.35819">
        <ele>1150.6</ele>
        <time>2021-09-01T11:45:17Z</time>
      </trkpt>
      <trkpt lat="44.8719" lon="5.35817">
        <ele>1150.7</ele>
        <time>2021-09-01T11:45:19Z</time>
      </trkpt>
      <trkpt lat="44.87186" lon="5.35815">
        <ele>1150.9</ele>
        <time>2021-09-01T11:45:20Z</time>
      </trkpt>
      <trkpt lat="44.87184" lon="5.35811">
        <ele>1151</ele>
        <time>2021-09-01T11:45:22Z</time>
      </trkpt>
      <trkpt lat="44.87181" lon="5.35808">
        <ele>1151.1</ele>
        <time>2021-09-01T11:45:23Z</time>
      </trkpt>
      <trkpt lat="44.8718" lon="5.35807">
        <ele>1151.1</ele>
        <time>2021-09-01T11:45:24Z</time>
      </trkpt>
      <trkpt lat="44.87178" lon="5.35806">
        <ele>1151.2</ele>
        <time>2021-09-01T11:45:26Z</time>
      </trkpt>
      <trkpt lat="44.87175" lon="5.35807">
        <ele>1151.3</ele>
        <time>2021-09-01T11:45:27Z</time>
      </trkpt>
      <trkpt lat="44.87171" lon="5.35807">
        <ele>1151.4</ele>
        <time>2021-09-01T11:45:28Z</time>
      </trkpt>
      <trkpt lat="44.87169" lon="5.35808">
        <ele>1151.5</ele>
        <time>2021-09-01T11:45:30Z</time>
      </trkpt>
      <trkpt lat="44.87168" lon="5.35808">
        <ele>1151.5</ele>
        <time>2021-09-01T11:45:31Z</time>
      </trkpt>
      <trkpt lat="44.87167" lon="5.35809">
        <ele>1151.6</ele>
        <time>2021-09-01T11:45:33Z</time>
      </trkpt>
      <trkpt lat="44.87165" lon="5.35809">
        <ele>1151.6</ele>
        <time>2021-09-01T11:45:34Z</time>
      </trkpt>
      <trkpt lat="44.87163" lon="5.35809">
        <ele>1151.7</ele>
        <time>2021-09-01T11:45:35Z</time>
      </trkpt>
      <trkpt lat="44.8716" lon="5.35809">
        <ele>1151.8</ele>
        <time>2021-09-01T11:45:37Z</time>
      </trkpt>
      <trkpt lat="44.87157" lon="5.35809">
        <ele>1151.9</ele>
        <time>2021-09-01T11:45:38Z</time>
      </trkpt>
      <trkpt lat="44.87123" lon="5.35769">
        <ele>1154.7</ele>
        <time>2021-09-01T11:46:01Z</time>
      </trkpt>
      <trkpt lat="44.87123" lon="5.35762">
        <ele>1154.9</ele>
        <time>2021-09-01T11:46:02Z</time>
      </trkpt>
      <trkpt lat="44.87124" lon="5.35759">
        <ele>1155</ele>
        <time>2021-09-01T11:46:03Z</time>
      </trkpt>
      <trkpt lat="44.87122" lon="5.35753">
        <ele>1155.2</ele>
        <time>2021-09-01T11:46:05Z</time>
      </trkpt>
      <trkpt lat="44.87122" lon="5.35752">
        <ele>1155.2</ele>
        <time>2021-09-01T11:46:07Z</time>
      </trkpt>
      <trkpt lat="44.87121" lon="5.3575">
        <ele>1155.3</ele>
        <time>2021-09-01T11:46:08Z</time>
      </trkpt>
      <trkpt lat="44.8712" lon="5.35747">
        <ele>1155.4</ele>
        <time>2021-09-01T11:46:09Z</time>
      </trkpt>
      <trkpt lat="44.87119" lon="5.35746">
        <ele>1155.5</ele>
        <time>2021-09-01T11:46:11Z</time>
      </trkpt>
      <trkpt lat="44.87117" lon="5.35743">
        <ele>1155.6</ele>
        <time>2021-09-01T11:46:12Z</time>
      </trkpt>
      <trkpt lat="44.87117" lon="5.35742">
        <ele>1155.7</ele>
        <time>2021-09-01T11:46:13Z</time>
      </trkpt>
      <trkpt lat="44.87116" lon="5.35741">
        <ele>1155.7</ele>
        <time>2021-09-01T11:46:14Z</time>
      </trkpt>
      <trkpt lat="44.87115" lon="5.35738">
        <ele>1155.8</ele>
        <time>2021-09-01T11:46:15Z</time>
      </trkpt>
      <trkpt lat="44.87113" lon="5.35734">
        <ele>1156</ele>
        <time>2021-09-01T11:46:17Z</time>
      </trkpt>
      <trkpt lat="44.87113" lon="5.35733">
        <ele>1156.1</ele>
        <time>2021-09-01T11:46:18Z</time>
      </trkpt>
      <trkpt lat="44.87111" lon="5.3573">
        <ele>1156.2</ele>
        <time>2021-09-01T11:46:20Z</time>
      </trkpt>
      <trkpt lat="44.87109" lon="5.35727">
        <ele>1156.4</ele>
        <time>2021-09-01T11:46:22Z</time>
      </trkpt>
      <trkpt lat="44.87107" lon="5.35725">
        <ele>1156.6</ele>
        <time>2021-09-01T11:46:24Z</time>
      </trkpt>
      <trkpt lat="44.87106" lon="5.35724">
        <ele>1156.7</ele>
        <time>2021-09-01T11:46:25Z</time>
      </trkpt>
      <trkpt lat="44.87104" lon="5.35723">
        <ele>1156.8</ele>
        <time>2021-09-01T11:46:26Z</time>
      </trkpt>
      <trkpt lat="44.87102" lon="5.35719">
        <ele>1157</ele>
        <time>2021-09-01T11:46:28Z</time>
      </trkpt>
      <trkpt lat="44.871" lon="5.35716">
        <ele>1157.2</ele>
        <time>2021-09-01T11:46:30Z</time>
      </trkpt>
      <trkpt lat="44.87099" lon="5.35714">
        <ele>1157.3</ele>
        <time>2021-09-01T11:46:31Z</time>
      </trkpt>
      <trkpt lat="44.87097" lon="5.35711">
        <ele>1157.5</ele>
        <time>2021-09-01T11:46:33Z</time>
      </trkpt>
      <trkpt lat="44.87095" lon="5.35711">
        <ele>1157.6</ele>
        <time>2021-09-01T11:46:34Z</time>
      </trkpt>
      <trkpt lat="44.87094" lon="5.35709">
        <ele>1157.7</ele>
        <time>2021-09-01T11:46:35Z</time>
      </trkpt>
      <trkpt lat="44.87091" lon="5.35707">
        <ele>1157.9</ele>
        <time>2021-09-01T11:46:37Z</time>
      </trkpt>
      <trkpt lat="44.87088" lon="5.35707">
        <ele>1158.1</ele>
        <time>2021-09-01T11:46:38Z</time>
      </trkpt>
      <trkpt lat="44.87084" lon="5.35706">
        <ele>1158.3</ele>
        <time>2021-09-01T11:46:39Z</time>
      </trkpt>
      <trkpt lat="44.87079" lon="5.35704">
        <ele>1158.7</ele>
        <time>2021-09-01T11:46:41Z</time>
      </trkpt>
      <trkpt lat="44.87077" lon="5.35702">
        <ele>1158.8</ele>
        <time>2021-09-01T11:46:42Z</time>
      </trkpt>
      <trkpt lat="44.87076" lon="5.35701">
        <ele>1158.9</ele>
        <time>2021-09-01T11:46:43Z</time>
      </trkpt>
      <trkpt lat="44.87072" lon="5.35699">
        <ele>1159.2</ele>
        <time>2021-09-01T11:46:45Z</time>
      </trkpt>
      <trkpt lat="44.87069" lon="5.35697">
        <ele>1159.4</ele>
        <time>2021-09-01T11:46:46Z</time>
      </trkpt>
      <trkpt lat="44.87065" lon="5.35696">
        <ele>1159.7</ele>
        <time>2021-09-01T11:46:48Z</time>
      </trkpt>
      <trkpt lat="44.87062" lon="5.35693">
        <ele>1159.9</ele>
        <time>2021-09-01T11:46:49Z</time>
      </trkpt>
      <trkpt lat="44.87061" lon="5.35692">
        <ele>1160</ele>
        <time>2021-09-01T11:46:50Z</time>
      </trkpt>
      <trkpt lat="44.87059" lon="5.35691">
        <ele>1160.2</ele>
        <time>2021-09-01T11:46:51Z</time>
      </trkpt>
      <trkpt lat="44.87058" lon="5.35689">
        <ele>1160.3</ele>
        <time>2021-09-01T11:46:52Z</time>
      </trkpt>
      <trkpt lat="44.87057" lon="5.35684">
        <ele>1160.5</ele>
        <time>2021-09-01T11:46:53Z</time>
      </trkpt>
      <trkpt lat="44.87057" lon="5.35683">
        <ele>1160.5</ele>
        <time>2021-09-01T11:46:54Z</time>
      </trkpt>
      <trkpt lat="44.87055" lon="5.35681">
        <ele>1160.7</ele>
        <time>2021-09-01T11:46:55Z</time>
      </trkpt>
      <trkpt lat="44.87054" lon="5.3568">
        <ele>1160.8</ele>
        <time>2021-09-01T11:46:56Z</time>
      </trkpt>
      <trkpt lat="44.87054" lon="5.3568">
        <ele>1160.8</ele>
        <time>2021-09-01T11:46:57Z</time>
      </trkpt>
      <trkpt lat="44.87052" lon="5.35679">
        <ele>1160.9</ele>
        <time>2021-09-01T11:46:58Z</time>
      </trkpt>
      <trkpt lat="44.8705" lon="5.3568">
        <ele>1161.1</ele>
        <time>2021-09-01T11:47:00Z</time>
      </trkpt>
      <trkpt lat="44.87046" lon="5.3568">
        <ele>1161.3</ele>
        <time>2021-09-01T11:47:01Z</time>
      </trkpt>
      <trkpt lat="44.87044" lon="5.3568">
        <ele>1161.4</ele>
        <time>2021-09-01T11:47:02Z</time>
      </trkpt>
      <trkpt lat="44.87042" lon="5.35677">
        <ele>1161.6</ele>
        <time>2021-09-01T11:47:04Z</time>
      </trkpt>
      <trkpt lat="44.87042" lon="5.35676">
        <ele>1161.6</ele>
        <time>2021-09-01T11:47:05Z</time>
      </trkpt>
      <trkpt lat="44.87041" lon="5.35674">
        <ele>1161.7</ele>
        <time>2021-09-01T11:47:06Z</time>
      </trkpt>
      <trkpt lat="44.87039" lon="5.35673">
        <ele>1161.8</ele>
        <time>2021-09-01T11:47:07Z</time>
      </trkpt>
      <trkpt lat="44.87038" lon="5.35671">
        <ele>1161.9</ele>
        <time>2021-09-01T11:47:08Z</time>
      </trkpt>
      <trkpt lat="44.87036" lon="5.3567">
        <ele>1162</ele>
        <time>2021-09-01T11:47:09Z</time>
      </trkpt>
      <trkpt lat="44.87034" lon="5.35668">
        <ele>1162.1</ele>
        <time>2021-09-01T11:47:11Z</time>
      </trkpt>
      <trkpt lat="44.87032" lon="5.35665">
        <ele>1162.3</ele>
        <time>2021-09-01T11:47:12Z</time>
      </trkpt>
      <trkpt lat="44.87031" lon="5.35663">
        <ele>1162.4</ele>
        <time>2021-09-01T11:47:13Z</time>
      </trkpt>
      <trkpt lat="44.87029" lon="5.35661">
        <ele>1162.5</ele>
        <time>2021-09-01T11:47:15Z</time>
      </trkpt>
      <trkpt lat="44.87026" lon="5.35657">
        <ele>1162.7</ele>
        <time>2021-09-01T11:47:17Z</time>
      </trkpt>
      <trkpt lat="44.87026" lon="5.35652">
        <ele>1162.9</ele>
        <time>2021-09-01T11:47:18Z</time>
      </trkpt>
      <trkpt lat="44.87026" lon="5.3565">
        <ele>1163</ele>
        <time>2021-09-01T11:47:19Z</time>
      </trkpt>
      <trkpt lat="44.87025" lon="5.35649">
        <ele>1163.1</ele>
        <time>2021-09-01T11:47:20Z</time>
      </trkpt>
      <trkpt lat="44.87024" lon="5.35647">
        <ele>1163.2</ele>
        <time>2021-09-01T11:47:21Z</time>
      </trkpt>
      <trkpt lat="44.87021" lon="5.35645">
        <ele>1163.3</ele>
        <time>2021-09-01T11:47:23Z</time>
      </trkpt>
      <trkpt lat="44.8702" lon="5.35644">
        <ele>1163.4</ele>
        <time>2021-09-01T11:47:24Z</time>
      </trkpt>
      <trkpt lat="44.87016" lon="5.3564">
        <ele>1163.6</ele>
        <time>2021-09-01T11:47:26Z</time>
      </trkpt>
      <trkpt lat="44.87012" lon="5.35635">
        <ele>1163.8</ele>
        <time>2021-09-01T11:47:27Z</time>
      </trkpt>
      <trkpt lat="44.8701" lon="5.35633">
        <ele>1163.9</ele>
        <time>2021-09-01T11:47:29Z</time>
      </trkpt>
      <trkpt lat="44.87009" lon="5.35633">
        <ele>1164</ele>
        <time>2021-09-01T11:47:30Z</time>
      </trkpt>
      <trkpt lat="44.87007" lon="5.35632">
        <ele>1164</ele>
        <time>2021-09-01T11:47:31Z</time>
      </trkpt>
      <trkpt lat="44.87005" lon="5.35632">
        <ele>1164.1</ele>
        <time>2021-09-01T11:47:32Z</time>
      </trkpt>
      <trkpt lat="44.87" lon="5.35636">
        <ele>1164</ele>
        <time>2021-09-01T11:47:34Z</time>
      </trkpt>
      <trkpt lat="44.87" lon="5.35644">
        <ele>1163.8</ele>
        <time>2021-09-01T11:47:35Z</time>
      </trkpt>
      <trkpt lat="44.86999" lon="5.3565">
        <ele>1163.5</ele>
        <time>2021-09-01T11:47:36Z</time>
      </trkpt>
      <trkpt lat="44.86998" lon="5.35658">
        <ele>1163.2</ele>
        <time>2021-09-01T11:47:38Z</time>
      </trkpt>
      <trkpt lat="44.86997" lon="5.35668">
        <ele>1162.6</ele>
        <time>2021-09-01T11:47:39Z</time>
      </trkpt>
      <trkpt lat="44.86997" lon="5.35677">
        <ele>1162</ele>
        <time>2021-09-01T11:47:40Z</time>
      </trkpt>
      <trkpt lat="44.86997" lon="5.35687">
        <ele>1161.4</ele>
        <time>2021-09-01T11:47:42Z</time>
      </trkpt>
      <trkpt lat="44.87004" lon="5.35709">
        <ele>1159.8</ele>
        <time>2021-09-01T11:47:44Z</time>
      </trkpt>
      <trkpt lat="44.87009" lon="5.35732">
        <ele>1158.3</ele>
        <time>2021-09-01T11:47:46Z</time>
      </trkpt>
      <trkpt lat="44.87012" lon="5.35744">
        <ele>1157.3</ele>
        <time>2021-09-01T11:47:47Z</time>
      </trkpt>
      <trkpt lat="44.87016" lon="5.35769">
        <ele>1155.5</ele>
        <time>2021-09-01T11:47:49Z</time>
      </trkpt>
      <trkpt lat="44.87019" lon="5.35781">
        <ele>1154.6</ele>
        <time>2021-09-01T11:47:50Z</time>
      </trkpt>
      <trkpt lat="44.87024" lon="5.35806">
        <ele>1152.9</ele>
        <time>2021-09-01T11:47:52Z</time>
      </trkpt>
      <trkpt lat="44.87026" lon="5.3582">
        <ele>1152</ele>
        <time>2021-09-01T11:47:53Z</time>
      </trkpt>
      <trkpt lat="44.87028" lon="5.35833">
        <ele>1151</ele>
        <time>2021-09-01T11:47:54Z</time>
      </trkpt>
      <trkpt lat="44.87033" lon="5.3586">
        <ele>1149.2</ele>
        <time>2021-09-01T11:47:56Z</time>
      </trkpt>
      <trkpt lat="44.87037" lon="5.35885">
        <ele>1147.5</ele>
        <time>2021-09-01T11:47:58Z</time>
      </trkpt>
      <trkpt lat="44.87039" lon="5.35898">
        <ele>1146.6</ele>
        <time>2021-09-01T11:47:59Z</time>
      </trkpt>
      <trkpt lat="44.87043" lon="5.35927">
        <ele>1144.7</ele>
        <time>2021-09-01T11:48:01Z</time>
      </trkpt>
      <trkpt lat="44.87045" lon="5.35941">
        <ele>1143.8</ele>
        <time>2021-09-01T11:48:02Z</time>
      </trkpt>
      <trkpt lat="44.87049" lon="5.3597">
        <ele>1141.7</ele>
        <time>2021-09-01T11:48:04Z</time>
      </trkpt>
      <trkpt lat="44.87052" lon="5.35984">
        <ele>1140.8</ele>
        <time>2021-09-01T11:48:05Z</time>
      </trkpt>
      <trkpt lat="44.87054" lon="5.35997">
        <ele>1139.9</ele>
        <time>2021-09-01T11:48:06Z</time>
      </trkpt>
      <trkpt lat="44.87054" lon="5.36011">
        <ele>1139</ele>
        <time>2021-09-01T11:48:07Z</time>
      </trkpt>
      <trkpt lat="44.87055" lon="5.36038">
        <ele>1137.6</ele>
        <time>2021-09-01T11:48:09Z</time>
      </trkpt>
      <trkpt lat="44.87056" lon="5.3605">
        <ele>1137.3</ele>
        <time>2021-09-01T11:48:10Z</time>
      </trkpt>
      <trkpt lat="44.87058" lon="5.3606">
        <ele>1137.2</ele>
        <time>2021-09-01T11:48:11Z</time>
      </trkpt>
      <trkpt lat="44.8706" lon="5.36077">
        <ele>1137.1</ele>
        <time>2021-09-01T11:48:13Z</time>
      </trkpt>
      <trkpt lat="44.8706" lon="5.36085">
        <ele>1137</ele>
        <time>2021-09-01T11:48:14Z</time>
      </trkpt>
      <trkpt lat="44.87058" lon="5.36098">
        <ele>1136.7</ele>
        <time>2021-09-01T11:48:16Z</time>
      </trkpt>
      <trkpt lat="44.87056" lon="5.36104">
        <ele>1136.7</ele>
        <time>2021-09-01T11:48:17Z</time>
      </trkpt>
      <trkpt lat="44.8705" lon="5.36112">
        <ele>1136.7</ele>
        <time>2021-09-01T11:48:19Z</time>
      </trkpt>
      <trkpt lat="44.87048" lon="5.36113">
        <ele>1136.7</ele>
        <time>2021-09-01T11:48:20Z</time>
      </trkpt>
      <trkpt lat="44.87041" lon="5.36115">
        <ele>1136.7</ele>
        <time>2021-09-01T11:48:22Z</time>
      </trkpt>
      <trkpt lat="44.87038" lon="5.36115">
        <ele>1136.7</ele>
        <time>2021-09-01T11:48:23Z</time>
      </trkpt>
      <trkpt lat="44.87029" lon="5.36116">
        <ele>1136.8</ele>
        <time>2021-09-01T11:48:25Z</time>
      </trkpt>
      <trkpt lat="44.87026" lon="5.36115">
        <ele>1136.8</ele>
        <time>2021-09-01T11:48:26Z</time>
      </trkpt>
      <trkpt lat="44.87022" lon="5.3612">
        <ele>1136.8</ele>
        <time>2021-09-01T11:48:27Z</time>
      </trkpt>
      <trkpt lat="44.87016" lon="5.36118">
        <ele>1136.8</ele>
        <time>2021-09-01T11:48:29Z</time>
      </trkpt>
      <trkpt lat="44.87007" lon="5.36115">
        <ele>1136.8</ele>
        <time>2021-09-01T11:48:30Z</time>
      </trkpt>
      <trkpt lat="44.87" lon="5.3611">
        <ele>1136.8</ele>
        <time>2021-09-01T11:48:32Z</time>
      </trkpt>
      <trkpt lat="44.86995" lon="5.36104">
        <ele>1136.7</ele>
        <time>2021-09-01T11:48:34Z</time>
      </trkpt>
      <trkpt lat="44.86989" lon="5.36096">
        <ele>1136.7</ele>
        <time>2021-09-01T11:48:35Z</time>
      </trkpt>
      <trkpt lat="44.86985" lon="5.3609">
        <ele>1136.7</ele>
        <time>2021-09-01T11:48:37Z</time>
      </trkpt>
      <trkpt lat="44.86981" lon="5.36086">
        <ele>1136.9</ele>
        <time>2021-09-01T11:48:38Z</time>
      </trkpt>
      <trkpt lat="44.86977" lon="5.36079">
        <ele>1137</ele>
        <time>2021-09-01T11:48:39Z</time>
      </trkpt>
      <trkpt lat="44.86973" lon="5.36075">
        <ele>1137.1</ele>
        <time>2021-09-01T11:48:40Z</time>
      </trkpt>
      <trkpt lat="44.86968" lon="5.36068">
        <ele>1137.3</ele>
        <time>2021-09-01T11:48:42Z</time>
      </trkpt>
      <trkpt lat="44.86965" lon="5.36064">
        <ele>1137.4</ele>
        <time>2021-09-01T11:48:43Z</time>
      </trkpt>
      <trkpt lat="44.86959" lon="5.36057">
        <ele>1137.7</ele>
        <time>2021-09-01T11:48:44Z</time>
      </trkpt>
      <trkpt lat="44.86954" lon="5.3605">
        <ele>1137.9</ele>
        <time>2021-09-01T11:48:46Z</time>
      </trkpt>
      <trkpt lat="44.86951" lon="5.36045">
        <ele>1138</ele>
        <time>2021-09-01T11:48:48Z</time>
      </trkpt>
      <trkpt lat="44.86947" lon="5.3604">
        <ele>1138.2</ele>
        <time>2021-09-01T11:48:49Z</time>
      </trkpt>
      <trkpt lat="44.86943" lon="5.36035">
        <ele>1138.3</ele>
        <time>2021-09-01T11:48:51Z</time>
      </trkpt>
      <trkpt lat="44.8694" lon="5.36029">
        <ele>1138.4</ele>
        <time>2021-09-01T11:48:52Z</time>
      </trkpt>
      <trkpt lat="44.86936" lon="5.36022">
        <ele>1138.6</ele>
        <time>2021-09-01T11:48:54Z</time>
      </trkpt>
      <trkpt lat="44.86934" lon="5.36017">
        <ele>1138.7</ele>
        <time>2021-09-01T11:48:55Z</time>
      </trkpt>
      <trkpt lat="44.86932" lon="5.36012">
        <ele>1138.8</ele>
        <time>2021-09-01T11:48:56Z</time>
      </trkpt>
      <trkpt lat="44.8693" lon="5.36007">
        <ele>1138.9</ele>
        <time>2021-09-01T11:48:57Z</time>
      </trkpt>
      <trkpt lat="44.86928" lon="5.36">
        <ele>1139.1</ele>
        <time>2021-09-01T11:48:58Z</time>
      </trkpt>
      <trkpt lat="44.86926" lon="5.35995">
        <ele>1139.2</ele>
        <time>2021-09-01T11:48:59Z</time>
      </trkpt>
      <trkpt lat="44.86924" lon="5.35989">
        <ele>1139.3</ele>
        <time>2021-09-01T11:49:01Z</time>
      </trkpt>
      <trkpt lat="44.86923" lon="5.35982">
        <ele>1139.4</ele>
        <time>2021-09-01T11:49:03Z</time>
      </trkpt>
      <trkpt lat="44.86919" lon="5.35977">
        <ele>1139.5</ele>
        <time>2021-09-01T11:49:05Z</time>
      </trkpt>
      <trkpt lat="44.86917" lon="5.35975">
        <ele>1139.6</ele>
        <time>2021-09-01T11:49:06Z</time>
      </trkpt>
      <trkpt lat="44.86913" lon="5.35971">
        <ele>1139.7</ele>
        <time>2021-09-01T11:49:08Z</time>
      </trkpt>
      <trkpt lat="44.8691" lon="5.35968">
        <ele>1139.8</ele>
        <time>2021-09-01T11:49:09Z</time>
      </trkpt>
      <trkpt lat="44.86907" lon="5.35964">
        <ele>1139.9</ele>
        <time>2021-09-01T11:49:10Z</time>
      </trkpt>
      <trkpt lat="44.86905" lon="5.35959">
        <ele>1140</ele>
        <time>2021-09-01T11:49:12Z</time>
      </trkpt>
      <trkpt lat="44.86902" lon="5.35955">
        <ele>1140.1</ele>
        <time>2021-09-01T11:49:13Z</time>
      </trkpt>
      <trkpt lat="44.86899" lon="5.35951">
        <ele>1140.3</ele>
        <time>2021-09-01T11:49:15Z</time>
      </trkpt>
      <trkpt lat="44.86893" lon="5.35945">
        <ele>1140.4</ele>
        <time>2021-09-01T11:49:17Z</time>
      </trkpt>
      <trkpt lat="44.86888" lon="5.35942">
        <ele>1140.6</ele>
        <time>2021-09-01T11:49:19Z</time>
      </trkpt>
      <trkpt lat="44.86886" lon="5.35939">
        <ele>1140.7</ele>
        <time>2021-09-01T11:49:20Z</time>
      </trkpt>
      <trkpt lat="44.86883" lon="5.35931">
        <ele>1140.9</ele>
        <time>2021-09-01T11:49:22Z</time>
      </trkpt>
      <trkpt lat="44.86882" lon="5.35927">
        <ele>1141</ele>
        <time>2021-09-01T11:49:23Z</time>
      </trkpt>
      <trkpt lat="44.86881" lon="5.35923">
        <ele>1141.2</ele>
        <time>2021-09-01T11:49:25Z</time>
      </trkpt>
      <trkpt lat="44.86881" lon="5.3592">
        <ele>1141.3</ele>
        <time>2021-09-01T11:49:26Z</time>
      </trkpt>
      <trkpt lat="44.8688" lon="5.35909">
        <ele>1141.6</ele>
        <time>2021-09-01T11:49:28Z</time>
      </trkpt>
      <trkpt lat="44.86879" lon="5.35904">
        <ele>1141.7</ele>
        <time>2021-09-01T11:49:29Z</time>
      </trkpt>
      <trkpt lat="44.86878" lon="5.35898">
        <ele>1141.9</ele>
        <time>2021-09-01T11:49:30Z</time>
      </trkpt>
      <trkpt lat="44.86877" lon="5.35892">
        <ele>1142</ele>
        <time>2021-09-01T11:49:31Z</time>
      </trkpt>
      <trkpt lat="44.86876" lon="5.35885">
        <ele>1142.2</ele>
        <time>2021-09-01T11:49:32Z</time>
      </trkpt>
      <trkpt lat="44.86875" lon="5.35879">
        <ele>1142.3</ele>
        <time>2021-09-01T11:49:34Z</time>
      </trkpt>
      <trkpt lat="44.86874" lon="5.35874">
        <ele>1142.4</ele>
        <time>2021-09-01T11:49:35Z</time>
      </trkpt>
      <trkpt lat="44.86873" lon="5.35869">
        <ele>1142.5</ele>
        <time>2021-09-01T11:49:36Z</time>
      </trkpt>
      <trkpt lat="44.8687" lon="5.3586">
        <ele>1142.7</ele>
        <time>2021-09-01T11:49:37Z</time>
      </trkpt>
      <trkpt lat="44.86869" lon="5.35855">
        <ele>1142.8</ele>
        <time>2021-09-01T11:49:38Z</time>
      </trkpt>
      <trkpt lat="44.86867" lon="5.3585">
        <ele>1142.8</ele>
        <time>2021-09-01T11:49:40Z</time>
      </trkpt>
      <trkpt lat="44.86865" lon="5.35847">
        <ele>1142.9</ele>
        <time>2021-09-01T11:49:41Z</time>
      </trkpt>
      <trkpt lat="44.86862" lon="5.35843">
        <ele>1143</ele>
        <time>2021-09-01T11:49:42Z</time>
      </trkpt>
      <trkpt lat="44.86858" lon="5.35836">
        <ele>1143.1</ele>
        <time>2021-09-01T11:49:43Z</time>
      </trkpt>
      <trkpt lat="44.86854" lon="5.35831">
        <ele>1143.2</ele>
        <time>2021-09-01T11:49:45Z</time>
      </trkpt>
      <trkpt lat="44.86851" lon="5.35827">
        <ele>1143.3</ele>
        <time>2021-09-01T11:49:46Z</time>
      </trkpt>
      <trkpt lat="44.86846" lon="5.35822">
        <ele>1143.5</ele>
        <time>2021-09-01T11:49:47Z</time>
      </trkpt>
      <trkpt lat="44.86844" lon="5.35818">
        <ele>1143.6</ele>
        <time>2021-09-01T11:49:48Z</time>
      </trkpt>
      <trkpt lat="44.86841" lon="5.35812">
        <ele>1143.9</ele>
        <time>2021-09-01T11:49:50Z</time>
      </trkpt>
      <trkpt lat="44.86837" lon="5.35804">
        <ele>1144.1</ele>
        <time>2021-09-01T11:49:51Z</time>
      </trkpt>
      <trkpt lat="44.86835" lon="5.35799">
        <ele>1144.3</ele>
        <time>2021-09-01T11:49:52Z</time>
      </trkpt>
      <trkpt lat="44.86833" lon="5.35792">
        <ele>1144.5</ele>
        <time>2021-09-01T11:49:54Z</time>
      </trkpt>
      <trkpt lat="44.86831" lon="5.35787">
        <ele>1144.6</ele>
        <time>2021-09-01T11:49:55Z</time>
      </trkpt>
      <trkpt lat="44.86828" lon="5.35782">
        <ele>1144.8</ele>
        <time>2021-09-01T11:49:57Z</time>
      </trkpt>
      <trkpt lat="44.86826" lon="5.3578">
        <ele>1144.9</ele>
        <time>2021-09-01T11:49:58Z</time>
      </trkpt>
      <trkpt lat="44.86823" lon="5.35776">
        <ele>1145.1</ele>
        <time>2021-09-01T11:49:59Z</time>
      </trkpt>
      <trkpt lat="44.86822" lon="5.35775">
        <ele>1145.2</ele>
        <time>2021-09-01T11:50:00Z</time>
      </trkpt>
      <trkpt lat="44.86817" lon="5.3577">
        <ele>1145.5</ele>
        <time>2021-09-01T11:50:02Z</time>
      </trkpt>
      <trkpt lat="44.8681" lon="5.35766">
        <ele>1145.8</ele>
        <time>2021-09-01T11:50:04Z</time>
      </trkpt>
      <trkpt lat="44.86805" lon="5.35766">
        <ele>1146.1</ele>
        <time>2021-09-01T11:50:05Z</time>
      </trkpt>
      <trkpt lat="44.86802" lon="5.35764">
        <ele>1146.3</ele>
        <time>2021-09-01T11:50:06Z</time>
      </trkpt>
      <trkpt lat="44.86798" lon="5.35762">
        <ele>1146.5</ele>
        <time>2021-09-01T11:50:07Z</time>
      </trkpt>
      <trkpt lat="44.86793" lon="5.35761">
        <ele>1146.8</ele>
        <time>2021-09-01T11:50:08Z</time>
      </trkpt>
      <trkpt lat="44.8679" lon="5.35759">
        <ele>1147</ele>
        <time>2021-09-01T11:50:10Z</time>
      </trkpt>
      <trkpt lat="44.86786" lon="5.35758">
        <ele>1147.2</ele>
        <time>2021-09-01T11:50:11Z</time>
      </trkpt>
      <trkpt lat="44.8678" lon="5.35757">
        <ele>1147.7</ele>
        <time>2021-09-01T11:50:13Z</time>
      </trkpt>
      <trkpt lat="44.86776" lon="5.35756">
        <ele>1147.9</ele>
        <time>2021-09-01T11:50:14Z</time>
      </trkpt>
      <trkpt lat="44.86769" lon="5.35758">
        <ele>1148.4</ele>
        <time>2021-09-01T11:50:16Z</time>
      </trkpt>
      <trkpt lat="44.86765" lon="5.3576">
        <ele>1148.7</ele>
        <time>2021-09-01T11:50:17Z</time>
      </trkpt>
      <trkpt lat="44.86757" lon="5.35762">
        <ele>1149.3</ele>
        <time>2021-09-01T11:50:18Z</time>
      </trkpt>
      <trkpt lat="44.86754" lon="5.35763">
        <ele>1149.6</ele>
        <time>2021-09-01T11:50:20Z</time>
      </trkpt>
      <trkpt lat="44.86749" lon="5.35767">
        <ele>1149.9</ele>
        <time>2021-09-01T11:50:21Z</time>
      </trkpt>
      <trkpt lat="44.86745" lon="5.3577">
        <ele>1150.3</ele>
        <time>2021-09-01T11:50:23Z</time>
      </trkpt>
      <trkpt lat="44.8674" lon="5.35771">
        <ele>1150.7</ele>
        <time>2021-09-01T11:50:24Z</time>
      </trkpt>
      <trkpt lat="44.86736" lon="5.35771">
        <ele>1150.9</ele>
        <time>2021-09-01T11:50:25Z</time>
      </trkpt>
      <trkpt lat="44.86735" lon="5.3577">
        <ele>1151</ele>
        <time>2021-09-01T11:50:26Z</time>
      </trkpt>
      <trkpt lat="44.86732" lon="5.35769">
        <ele>1151.2</ele>
        <time>2021-09-01T11:50:27Z</time>
      </trkpt>
      <trkpt lat="44.86729" lon="5.35768">
        <ele>1151.5</ele>
        <time>2021-09-01T11:50:28Z</time>
      </trkpt>
      <trkpt lat="44.86724" lon="5.35766">
        <ele>1151.8</ele>
        <time>2021-09-01T11:50:30Z</time>
      </trkpt>
      <trkpt lat="44.86721" lon="5.35765">
        <ele>1152</ele>
        <time>2021-09-01T11:50:31Z</time>
      </trkpt>
      <trkpt lat="44.86716" lon="5.35763">
        <ele>1152.5</ele>
        <time>2021-09-01T11:50:32Z</time>
      </trkpt>
      <trkpt lat="44.86711" lon="5.35763">
        <ele>1152.8</ele>
        <time>2021-09-01T11:50:34Z</time>
      </trkpt>
      <trkpt lat="44.86707" lon="5.35762">
        <ele>1153.1</ele>
        <time>2021-09-01T11:50:35Z</time>
      </trkpt>
      <trkpt lat="44.86706" lon="5.35761">
        <ele>1153.2</ele>
        <time>2021-09-01T11:50:36Z</time>
      </trkpt>
      <trkpt lat="44.86706" lon="5.35762">
        <ele>1153.2</ele>
        <time>2021-09-01T11:50:37Z</time>
      </trkpt>
      <trkpt lat="44.86707" lon="5.35761">
        <ele>1153.3</ele>
        <time>2021-09-01T11:50:38Z</time>
      </trkpt>
      <trkpt lat="44.86706" lon="5.3576">
        <ele>1153.3</ele>
        <time>2021-09-01T11:50:39Z</time>
      </trkpt>
      <trkpt lat="44.86706" lon="5.3576">
        <ele>1153.4</ele>
        <time>2021-09-01T11:50:40Z</time>
      </trkpt>
      <trkpt lat="44.86708" lon="5.35759">
        <ele>1153.5</ele>
        <time>2021-09-01T11:50:41Z</time>
      </trkpt>
      <trkpt lat="44.86708" lon="5.35758">
        <ele>1153.5</ele>
        <time>2021-09-01T11:50:43Z</time>
      </trkpt>
      <trkpt lat="44.86708" lon="5.35757">
        <ele>1153.6</ele>
        <time>2021-09-01T11:50:44Z</time>
      </trkpt>
      <trkpt lat="44.86708" lon="5.35757">
        <ele>1153.6</ele>
        <time>2021-09-01T11:50:45Z</time>
      </trkpt>
      <trkpt lat="44.86708" lon="5.35756">
        <ele>1153.6</ele>
        <time>2021-09-01T11:50:46Z</time>
      </trkpt>
      <trkpt lat="44.86707" lon="5.35756">
        <ele>1153.7</ele>
        <time>2021-09-01T11:50:48Z</time>
      </trkpt>
      <trkpt lat="44.8666" lon="5.35751">
        <ele>1156.7</ele>
        <time>2021-09-01T11:51:15Z</time>
      </trkpt>
      <trkpt lat="44.86655" lon="5.3575">
        <ele>1157</ele>
        <time>2021-09-01T11:51:16Z</time>
      </trkpt>
      <trkpt lat="44.86652" lon="5.35748">
        <ele>1157.2</ele>
        <time>2021-09-01T11:51:17Z</time>
      </trkpt>
      <trkpt lat="44.86648" lon="5.35746">
        <ele>1157.4</ele>
        <time>2021-09-01T11:51:18Z</time>
      </trkpt>
      <trkpt lat="44.86646" lon="5.35745">
        <ele>1157.6</ele>
        <time>2021-09-01T11:51:19Z</time>
      </trkpt>
      <trkpt lat="44.86642" lon="5.35742">
        <ele>1157.9</ele>
        <time>2021-09-01T11:51:21Z</time>
      </trkpt>
      <trkpt lat="44.86636" lon="5.35743">
        <ele>1158.3</ele>
        <time>2021-09-01T11:51:22Z</time>
      </trkpt>
      <trkpt lat="44.86633" lon="5.35743">
        <ele>1158.4</ele>
        <time>2021-09-01T11:51:23Z</time>
      </trkpt>
      <trkpt lat="44.86629" lon="5.35741">
        <ele>1158.7</ele>
        <time>2021-09-01T11:51:24Z</time>
      </trkpt>
      <trkpt lat="44.86624" lon="5.35739">
        <ele>1159</ele>
        <time>2021-09-01T11:51:26Z</time>
      </trkpt>
      <trkpt lat="44.86622" lon="5.35738">
        <ele>1159.2</ele>
        <time>2021-09-01T11:51:27Z</time>
      </trkpt>
      <trkpt lat="44.86618" lon="5.35739">
        <ele>1159.5</ele>
        <time>2021-09-01T11:51:29Z</time>
      </trkpt>
      <trkpt lat="44.86611" lon="5.35736">
        <ele>1159.9</ele>
        <time>2021-09-01T11:51:31Z</time>
      </trkpt>
      <trkpt lat="44.86605" lon="5.35733">
        <ele>1160.4</ele>
        <time>2021-09-01T11:51:33Z</time>
      </trkpt>
      <trkpt lat="44.86598" lon="5.35731">
        <ele>1160.8</ele>
        <time>2021-09-01T11:51:35Z</time>
      </trkpt>
      <trkpt lat="44.86593" lon="5.35728">
        <ele>1161.2</ele>
        <time>2021-09-01T11:51:37Z</time>
      </trkpt>
      <trkpt lat="44.8659" lon="5.35727">
        <ele>1161.4</ele>
        <time>2021-09-01T11:51:38Z</time>
      </trkpt>
      <trkpt lat="44.86588" lon="5.35727">
        <ele>1161.5</ele>
        <time>2021-09-01T11:51:39Z</time>
      </trkpt>
      <trkpt lat="44.86585" lon="5.35728">
        <ele>1161.7</ele>
        <time>2021-09-01T11:51:41Z</time>
      </trkpt>
      <trkpt lat="44.86584" lon="5.35727">
        <ele>1161.8</ele>
        <time>2021-09-01T11:51:42Z</time>
      </trkpt>
      <trkpt lat="44.86582" lon="5.35727">
        <ele>1161.9</ele>
        <time>2021-09-01T11:51:44Z</time>
      </trkpt>
      <trkpt lat="44.86584" lon="5.35727">
        <ele>1162</ele>
        <time>2021-09-01T11:51:45Z</time>
      </trkpt>
      <trkpt lat="44.86585" lon="5.35727">
        <ele>1162.1</ele>
        <time>2021-09-01T11:51:46Z</time>
      </trkpt>
      <trkpt lat="44.86585" lon="5.35726">
        <ele>1162.1</ele>
        <time>2021-09-01T11:51:47Z</time>
      </trkpt>
      <trkpt lat="44.86585" lon="5.35723">
        <ele>1162.3</ele>
        <time>2021-09-01T11:51:49Z</time>
      </trkpt>
      <trkpt lat="44.8659" lon="5.35721">
        <ele>1162.6</ele>
        <time>2021-09-01T11:51:51Z</time>
      </trkpt>
      <trkpt lat="44.86591" lon="5.35719">
        <ele>1162.8</ele>
        <time>2021-09-01T11:51:53Z</time>
      </trkpt>
      <trkpt lat="44.86591" lon="5.35719">
        <ele>1162.8</ele>
        <time>2021-09-01T11:51:55Z</time>
      </trkpt>
      <trkpt lat="44.86591" lon="5.35718">
        <ele>1162.8</ele>
        <time>2021-09-01T11:51:56Z</time>
      </trkpt>
      <trkpt lat="44.86591" lon="5.35717">
        <ele>1162.9</ele>
        <time>2021-09-01T11:51:58Z</time>
      </trkpt>
      <trkpt lat="44.86591" lon="5.35716">
        <ele>1162.9</ele>
        <time>2021-09-01T11:51:59Z</time>
      </trkpt>
      <trkpt lat="44.86582" lon="5.35707">
        <ele>1163.9</ele>
        <time>2021-09-01T11:52:11Z</time>
      </trkpt>
      <trkpt lat="44.86578" lon="5.35707">
        <ele>1164.2</ele>
        <time>2021-09-01T11:52:13Z</time>
      </trkpt>
      <trkpt lat="44.86574" lon="5.35707">
        <ele>1164.6</ele>
        <time>2021-09-01T11:52:14Z</time>
      </trkpt>
      <trkpt lat="44.86572" lon="5.35707">
        <ele>1164.8</ele>
        <time>2021-09-01T11:52:15Z</time>
      </trkpt>
      <trkpt lat="44.86569" lon="5.35707">
        <ele>1164.9</ele>
        <time>2021-09-01T11:52:17Z</time>
      </trkpt>
      <trkpt lat="44.86566" lon="5.35707">
        <ele>1165.1</ele>
        <time>2021-09-01T11:52:18Z</time>
      </trkpt>
      <trkpt lat="44.86563" lon="5.35709">
        <ele>1165.4</ele>
        <time>2021-09-01T11:52:19Z</time>
      </trkpt>
      <trkpt lat="44.86561" lon="5.3571">
        <ele>1165.5</ele>
        <time>2021-09-01T11:52:20Z</time>
      </trkpt>
      <trkpt lat="44.86557" lon="5.35713">
        <ele>1165.9</ele>
        <time>2021-09-01T11:52:22Z</time>
      </trkpt>
      <trkpt lat="44.86554" lon="5.35716">
        <ele>1166.2</ele>
        <time>2021-09-01T11:52:23Z</time>
      </trkpt>
      <trkpt lat="44.86553" lon="5.35717">
        <ele>1166.3</ele>
        <time>2021-09-01T11:52:24Z</time>
      </trkpt>
      <trkpt lat="44.86549" lon="5.3572">
        <ele>1166.5</ele>
        <time>2021-09-01T11:52:25Z</time>
      </trkpt>
      <trkpt lat="44.86546" lon="5.35723">
        <ele>1166.8</ele>
        <time>2021-09-01T11:52:27Z</time>
      </trkpt>
      <trkpt lat="44.86547" lon="5.35723">
        <ele>1166.9</ele>
        <time>2021-09-01T11:52:29Z</time>
      </trkpt>
      <trkpt lat="44.86547" lon="5.35723">
        <ele>1166.9</ele>
        <time>2021-09-01T11:52:30Z</time>
      </trkpt>
      <trkpt lat="44.86547" lon="5.35724">
        <ele>1166.9</ele>
        <time>2021-09-01T11:52:32Z</time>
      </trkpt>
      <trkpt lat="44.86547" lon="5.35723">
        <ele>1166.9</ele>
        <time>2021-09-01T11:52:33Z</time>
      </trkpt>
      <trkpt lat="44.86547" lon="5.35723">
        <ele>1167</ele>
        <time>2021-09-01T11:52:34Z</time>
      </trkpt>
      <trkpt lat="44.86547" lon="5.35722">
        <ele>1167</ele>
        <time>2021-09-01T11:52:36Z</time>
      </trkpt>
      <trkpt lat="44.86533" lon="5.35721">
        <ele>1168.1</ele>
        <time>2021-09-01T11:52:56Z</time>
      </trkpt>
      <trkpt lat="44.86531" lon="5.35721">
        <ele>1168.2</ele>
        <time>2021-09-01T11:52:57Z</time>
      </trkpt>
      <trkpt lat="44.86528" lon="5.35721">
        <ele>1168.5</ele>
        <time>2021-09-01T11:52:59Z</time>
      </trkpt>
      <trkpt lat="44.86524" lon="5.35722">
        <ele>1168.8</ele>
        <time>2021-09-01T11:53:00Z</time>
      </trkpt>
      <trkpt lat="44.86522" lon="5.35723">
        <ele>1169</ele>
        <time>2021-09-01T11:53:01Z</time>
      </trkpt>
      <trkpt lat="44.86519" lon="5.35724">
        <ele>1169.3</ele>
        <time>2021-09-01T11:53:02Z</time>
      </trkpt>
      <trkpt lat="44.86517" lon="5.35725">
        <ele>1169.4</ele>
        <time>2021-09-01T11:53:04Z</time>
      </trkpt>
      <trkpt lat="44.86516" lon="5.35725">
        <ele>1169.5</ele>
        <time>2021-09-01T11:53:05Z</time>
      </trkpt>
      <trkpt lat="44.86516" lon="5.35725">
        <ele>1169.6</ele>
        <time>2021-09-01T11:53:06Z</time>
      </trkpt>
      <trkpt lat="44.86516" lon="5.35725">
        <ele>1169.6</ele>
        <time>2021-09-01T11:53:08Z</time>
      </trkpt>
      <trkpt lat="44.86515" lon="5.35725">
        <ele>1169.6</ele>
        <time>2021-09-01T11:53:10Z</time>
      </trkpt>
      <trkpt lat="44.86515" lon="5.35725">
        <ele>1169.6</ele>
        <time>2021-09-01T11:53:11Z</time>
      </trkpt>
      <trkpt lat="44.86515" lon="5.35725">
        <ele>1169.6</ele>
        <time>2021-09-01T11:53:12Z</time>
      </trkpt>
      <trkpt lat="44.86515" lon="5.35725">
        <ele>1169.6</ele>
        <time>2021-09-01T11:53:13Z</time>
      </trkpt>
      <trkpt lat="44.86515" lon="5.35725">
        <ele>1169.6</ele>
        <time>2021-09-01T11:53:14Z</time>
      </trkpt>
      <trkpt lat="44.86471" lon="5.35746">
        <ele>1174.4</ele>
        <time>2021-09-01T11:53:59Z</time>
      </trkpt>
      <trkpt lat="44.86468" lon="5.35744">
        <ele>1174.8</ele>
        <time>2021-09-01T11:54:00Z</time>
      </trkpt>
      <trkpt lat="44.86465" lon="5.35741">
        <ele>1175.2</ele>
        <time>2021-09-01T11:54:01Z</time>
      </trkpt>
      <trkpt lat="44.86461" lon="5.35737">
        <ele>1175.7</ele>
        <time>2021-09-01T11:54:02Z</time>
      </trkpt>
      <trkpt lat="44.86459" lon="5.35735">
        <ele>1175.9</ele>
        <time>2021-09-01T11:54:04Z</time>
      </trkpt>
      <trkpt lat="44.86457" lon="5.35733">
        <ele>1176.3</ele>
        <time>2021-09-01T11:54:06Z</time>
      </trkpt>
      <trkpt lat="44.86456" lon="5.35732">
        <ele>1176.3</ele>
        <time>2021-09-01T11:54:08Z</time>
      </trkpt>
      <trkpt lat="44.86456" lon="5.35732">
        <ele>1176.4</ele>
        <time>2021-09-01T11:54:09Z</time>
      </trkpt>
      <trkpt lat="44.86456" lon="5.35732">
        <ele>1176.4</ele>
        <time>2021-09-01T11:54:10Z</time>
      </trkpt>
      <trkpt lat="44.86455" lon="5.35732">
        <ele>1176.5</ele>
        <time>2021-09-01T11:54:12Z</time>
      </trkpt>
      <trkpt lat="44.86448" lon="5.35734">
        <ele>1177.3</ele>
        <time>2021-09-01T11:54:29Z</time>
      </trkpt>
      <trkpt lat="44.86445" lon="5.35734">
        <ele>1177.7</ele>
        <time>2021-09-01T11:54:30Z</time>
      </trkpt>
      <trkpt lat="44.86442" lon="5.35731">
        <ele>1178.1</ele>
        <time>2021-09-01T11:54:31Z</time>
      </trkpt>
      <trkpt lat="44.86438" lon="5.35728">
        <ele>1178.6</ele>
        <time>2021-09-01T11:54:33Z</time>
      </trkpt>
      <trkpt lat="44.86435" lon="5.35726">
        <ele>1179</ele>
        <time>2021-09-01T11:54:34Z</time>
      </trkpt>
      <trkpt lat="44.86432" lon="5.35722">
        <ele>1179.5</ele>
        <time>2021-09-01T11:54:35Z</time>
      </trkpt>
      <trkpt lat="44.86429" lon="5.3572">
        <ele>1179.8</ele>
        <time>2021-09-01T11:54:37Z</time>
      </trkpt>
      <trkpt lat="44.86427" lon="5.35719">
        <ele>1180</ele>
        <time>2021-09-01T11:54:38Z</time>
      </trkpt>
      <trkpt lat="44.86424" lon="5.3572">
        <ele>1180.3</ele>
        <time>2021-09-01T11:54:39Z</time>
      </trkpt>
      <trkpt lat="44.86423" lon="5.35721">
        <ele>1180.5</ele>
        <time>2021-09-01T11:54:41Z</time>
      </trkpt>
      <trkpt lat="44.86422" lon="5.35722">
        <ele>1180.7</ele>
        <time>2021-09-01T11:54:42Z</time>
      </trkpt>
      <trkpt lat="44.8642" lon="5.35723">
        <ele>1180.9</ele>
        <time>2021-09-01T11:54:43Z</time>
      </trkpt>
      <trkpt lat="44.86419" lon="5.35727">
        <ele>1181.2</ele>
        <time>2021-09-01T11:54:45Z</time>
      </trkpt>
      <trkpt lat="44.86417" lon="5.35729">
        <ele>1181.5</ele>
        <time>2021-09-01T11:54:46Z</time>
      </trkpt>
      <trkpt lat="44.86416" lon="5.35729">
        <ele>1181.7</ele>
        <time>2021-09-01T11:54:48Z</time>
      </trkpt>
      <trkpt lat="44.86407" lon="5.35726">
        <ele>1182.7</ele>
        <time>2021-09-01T11:54:49Z</time>
      </trkpt>
      <trkpt lat="44.86399" lon="5.35724">
        <ele>1183.7</ele>
        <time>2021-09-01T11:54:50Z</time>
      </trkpt>
      <trkpt lat="44.8639" lon="5.35723">
        <ele>1184.8</ele>
        <time>2021-09-01T11:54:52Z</time>
      </trkpt>
      <trkpt lat="44.86382" lon="5.35721">
        <ele>1185.9</ele>
        <time>2021-09-01T11:54:53Z</time>
      </trkpt>
      <trkpt lat="44.86373" lon="5.35719">
        <ele>1186.9</ele>
        <time>2021-09-01T11:54:55Z</time>
      </trkpt>
      <trkpt lat="44.86365" lon="5.35717">
        <ele>1188</ele>
        <time>2021-09-01T11:54:56Z</time>
      </trkpt>
      <trkpt lat="44.86356" lon="5.35715">
        <ele>1190.1</ele>
        <time>2021-09-01T11:56:44Z</time>
      </trkpt>
      <trkpt lat="44.86348" lon="5.35714">
        <ele>1191</ele>
        <time>2021-09-01T11:56:45Z</time>
      </trkpt>
      <trkpt lat="44.86347" lon="5.35718">
        <ele>1191.3</ele>
        <time>2021-09-01T11:56:47Z</time>
      </trkpt>
      <trkpt lat="44.86346" lon="5.3572">
        <ele>1191.5</ele>
        <time>2021-09-01T11:56:48Z</time>
      </trkpt>
      <trkpt lat="44.86345" lon="5.35721">
        <ele>1191.7</ele>
        <time>2021-09-01T11:56:49Z</time>
      </trkpt>
      <trkpt lat="44.86344" lon="5.35722">
        <ele>1191.8</ele>
        <time>2021-09-01T11:56:50Z</time>
      </trkpt>
      <trkpt lat="44.86343" lon="5.35724">
        <ele>1191.9</ele>
        <time>2021-09-01T11:56:52Z</time>
      </trkpt>
      <trkpt lat="44.86342" lon="5.35725">
        <ele>1192.1</ele>
        <time>2021-09-01T11:56:54Z</time>
      </trkpt>
      <trkpt lat="44.86341" lon="5.35727">
        <ele>1192.2</ele>
        <time>2021-09-01T11:56:55Z</time>
      </trkpt>
      <trkpt lat="44.8634" lon="5.35728">
        <ele>1192.3</ele>
        <time>2021-09-01T11:56:57Z</time>
      </trkpt>
      <trkpt lat="44.86321" lon="5.35733">
        <ele>1193.5</ele>
        <time>2021-09-01T11:57:10Z</time>
      </trkpt>
      <trkpt lat="44.86318" lon="5.35734">
        <ele>1193.8</ele>
        <time>2021-09-01T11:57:11Z</time>
      </trkpt>
      <trkpt lat="44.86315" lon="5.35734">
        <ele>1194.3</ele>
        <time>2021-09-01T11:57:13Z</time>
      </trkpt>
      <trkpt lat="44.86312" lon="5.35732">
        <ele>1194.6</ele>
        <time>2021-09-01T11:57:14Z</time>
      </trkpt>
      <trkpt lat="44.8631" lon="5.35731">
        <ele>1194.8</ele>
        <time>2021-09-01T11:57:16Z</time>
      </trkpt>
      <trkpt lat="44.86308" lon="5.35731">
        <ele>1195</ele>
        <time>2021-09-01T11:57:17Z</time>
      </trkpt>
      <trkpt lat="44.86306" lon="5.35731">
        <ele>1195.4</ele>
        <time>2021-09-01T11:57:19Z</time>
      </trkpt>
      <trkpt lat="44.86305" lon="5.3573">
        <ele>1195.4</ele>
        <time>2021-09-01T11:57:21Z</time>
      </trkpt>
      <trkpt lat="44.86305" lon="5.3573">
        <ele>1195.5</ele>
        <time>2021-09-01T11:57:22Z</time>
      </trkpt>
      <trkpt lat="44.86304" lon="5.35731">
        <ele>1195.6</ele>
        <time>2021-09-01T11:57:24Z</time>
      </trkpt>
      <trkpt lat="44.86304" lon="5.35731">
        <ele>1195.6</ele>
        <time>2021-09-01T11:57:25Z</time>
      </trkpt>
      <trkpt lat="44.86304" lon="5.3573">
        <ele>1195.7</ele>
        <time>2021-09-01T11:57:26Z</time>
      </trkpt>
      <trkpt lat="44.86304" lon="5.3573">
        <ele>1195.7</ele>
        <time>2021-09-01T11:57:28Z</time>
      </trkpt>
      <trkpt lat="44.86215" lon="5.35606">
        <ele>1218.4</ele>
        <time>2021-09-01T12:00:54Z</time>
      </trkpt>
      <trkpt lat="44.86209" lon="5.35602">
        <ele>1219.2</ele>
        <time>2021-09-01T12:00:56Z</time>
      </trkpt>
      <trkpt lat="44.86199" lon="5.35596">
        <ele>1220.7</ele>
        <time>2021-09-01T12:00:57Z</time>
      </trkpt>
      <trkpt lat="44.86193" lon="5.35591">
        <ele>1221.7</ele>
        <time>2021-09-01T12:00:58Z</time>
      </trkpt>
      <trkpt lat="44.86187" lon="5.35586">
        <ele>1222.7</ele>
        <time>2021-09-01T12:01:00Z</time>
      </trkpt>
      <trkpt lat="44.86184" lon="5.35584">
        <ele>1223.1</ele>
        <time>2021-09-01T12:01:01Z</time>
      </trkpt>
      <trkpt lat="44.8618" lon="5.35583">
        <ele>1223.7</ele>
        <time>2021-09-01T12:01:02Z</time>
      </trkpt>
      <trkpt lat="44.86177" lon="5.35583">
        <ele>1224.1</ele>
        <time>2021-09-01T12:01:03Z</time>
      </trkpt>
      <trkpt lat="44.86174" lon="5.35583">
        <ele>1224.4</ele>
        <time>2021-09-01T12:01:05Z</time>
      </trkpt>
      <trkpt lat="44.86172" lon="5.35584">
        <ele>1224.6</ele>
        <time>2021-09-01T12:01:06Z</time>
      </trkpt>
      <trkpt lat="44.86171" lon="5.35583">
        <ele>1224.8</ele>
        <time>2021-09-01T12:01:07Z</time>
      </trkpt>
      <trkpt lat="44.8617" lon="5.35583">
        <ele>1224.9</ele>
        <time>2021-09-01T12:01:08Z</time>
      </trkpt>
      <trkpt lat="44.86169" lon="5.35583">
        <ele>1225</ele>
        <time>2021-09-01T12:01:10Z</time>
      </trkpt>
      <trkpt lat="44.86168" lon="5.35583">
        <ele>1225.1</ele>
        <time>2021-09-01T12:01:11Z</time>
      </trkpt>
      <trkpt lat="44.86167" lon="5.35583">
        <ele>1225.2</ele>
        <time>2021-09-01T12:01:12Z</time>
      </trkpt>
      <trkpt lat="44.86166" lon="5.35583">
        <ele>1225.4</ele>
        <time>2021-09-01T12:01:13Z</time>
      </trkpt>
      <trkpt lat="44.86164" lon="5.35583">
        <ele>1225.6</ele>
        <time>2021-09-01T12:01:15Z</time>
      </trkpt>
      <trkpt lat="44.86159" lon="5.35581">
        <ele>1226.2</ele>
        <time>2021-09-01T12:01:17Z</time>
      </trkpt>
      <trkpt lat="44.86158" lon="5.3558">
        <ele>1226.3</ele>
        <time>2021-09-01T12:01:19Z</time>
      </trkpt>
      <trkpt lat="44.86157" lon="5.35579">
        <ele>1226.5</ele>
        <time>2021-09-01T12:01:20Z</time>
      </trkpt>
      <trkpt lat="44.86155" lon="5.35576">
        <ele>1226.8</ele>
        <time>2021-09-01T12:01:21Z</time>
      </trkpt>
      <trkpt lat="44.86153" lon="5.35574">
        <ele>1227.1</ele>
        <time>2021-09-01T12:01:23Z</time>
      </trkpt>
      <trkpt lat="44.86152" lon="5.35571">
        <ele>1227.3</ele>
        <time>2021-09-01T12:01:24Z</time>
      </trkpt>
      <trkpt lat="44.86153" lon="5.35569">
        <ele>1227.5</ele>
        <time>2021-09-01T12:01:25Z</time>
      </trkpt>
      <trkpt lat="44.86153" lon="5.35567">
        <ele>1227.7</ele>
        <time>2021-09-01T12:01:26Z</time>
      </trkpt>
      <trkpt lat="44.86153" lon="5.35565">
        <ele>1227.9</ele>
        <time>2021-09-01T12:01:28Z</time>
      </trkpt>
      <trkpt lat="44.86154" lon="5.35563">
        <ele>1228.1</ele>
        <time>2021-09-01T12:01:29Z</time>
      </trkpt>
      <trkpt lat="44.86155" lon="5.35562">
        <ele>1228.2</ele>
        <time>2021-09-01T12:01:30Z</time>
      </trkpt>
      <trkpt lat="44.86155" lon="5.35558">
        <ele>1228.6</ele>
        <time>2021-09-01T12:01:31Z</time>
      </trkpt>
      <trkpt lat="44.86155" lon="5.35556">
        <ele>1228.8</ele>
        <time>2021-09-01T12:01:33Z</time>
      </trkpt>
      <trkpt lat="44.86156" lon="5.35555">
        <ele>1228.9</ele>
        <time>2021-09-01T12:01:34Z</time>
      </trkpt>
      <trkpt lat="44.86156" lon="5.35555">
        <ele>1228.9</ele>
        <time>2021-09-01T12:01:35Z</time>
      </trkpt>
      <trkpt lat="44.86156" lon="5.35554">
        <ele>1228.9</ele>
        <time>2021-09-01T12:01:37Z</time>
      </trkpt>
      <trkpt lat="44.86156" lon="5.35554">
        <ele>1228.9</ele>
        <time>2021-09-01T12:01:38Z</time>
      </trkpt>
      <trkpt lat="44.86156" lon="5.35554">
        <ele>1228.9</ele>
        <time>2021-09-01T12:01:39Z</time>
      </trkpt>
      <trkpt lat="44.86155" lon="5.35554">
        <ele>1229</ele>
        <time>2021-09-01T12:01:41Z</time>
      </trkpt>
      <trkpt lat="44.86154" lon="5.35555">
        <ele>1229.2</ele>
        <time>2021-09-01T12:01:42Z</time>
      </trkpt>
      <trkpt lat="44.86154" lon="5.35556">
        <ele>1229.3</ele>
        <time>2021-09-01T12:01:43Z</time>
      </trkpt>
      <trkpt lat="44.86097" lon="5.35556">
        <ele>1235.9</ele>
        <time>2021-09-01T12:03:18Z</time>
      </trkpt>
      <trkpt lat="44.86095" lon="5.35552">
        <ele>1236.2</ele>
        <time>2021-09-01T12:03:19Z</time>
      </trkpt>
      <trkpt lat="44.86094" lon="5.35549">
        <ele>1236.4</ele>
        <time>2021-09-01T12:03:21Z</time>
      </trkpt>
      <trkpt lat="44.86092" lon="5.35544">
        <ele>1236.8</ele>
        <time>2021-09-01T12:03:22Z</time>
      </trkpt>
      <trkpt lat="44.8609" lon="5.35541">
        <ele>1237.1</ele>
        <time>2021-09-01T12:03:23Z</time>
      </trkpt>
      <trkpt lat="44.86088" lon="5.35537">
        <ele>1237.4</ele>
        <time>2021-09-01T12:03:24Z</time>
      </trkpt>
      <trkpt lat="44.86088" lon="5.35535">
        <ele>1237.5</ele>
        <time>2021-09-01T12:03:26Z</time>
      </trkpt>
      <trkpt lat="44.86087" lon="5.35534">
        <ele>1237.6</ele>
        <time>2021-09-01T12:03:28Z</time>
      </trkpt>
      <trkpt lat="44.86086" lon="5.35532">
        <ele>1237.7</ele>
        <time>2021-09-01T12:03:29Z</time>
      </trkpt>
      <trkpt lat="44.86085" lon="5.3553">
        <ele>1237.9</ele>
        <time>2021-09-01T12:03:31Z</time>
      </trkpt>
      <trkpt lat="44.86084" lon="5.35528">
        <ele>1238</ele>
        <time>2021-09-01T12:03:32Z</time>
      </trkpt>
      <trkpt lat="44.86083" lon="5.35526">
        <ele>1238.2</ele>
        <time>2021-09-01T12:03:33Z</time>
      </trkpt>
      <trkpt lat="44.86082" lon="5.35525">
        <ele>1238.3</ele>
        <time>2021-09-01T12:03:34Z</time>
      </trkpt>
      <trkpt lat="44.85961" lon="5.3551">
        <ele>1254.7</ele>
        <time>2021-09-01T12:07:05Z</time>
      </trkpt>
      <trkpt lat="44.85955" lon="5.35515">
        <ele>1255.3</ele>
        <time>2021-09-01T12:07:07Z</time>
      </trkpt>
      <trkpt lat="44.8595" lon="5.35516">
        <ele>1255.7</ele>
        <time>2021-09-01T12:07:08Z</time>
      </trkpt>
      <trkpt lat="44.85944" lon="5.35517">
        <ele>1256.1</ele>
        <time>2021-09-01T12:07:09Z</time>
      </trkpt>
      <trkpt lat="44.85936" lon="5.35518">
        <ele>1256.6</ele>
        <time>2021-09-01T12:07:10Z</time>
      </trkpt>
      <trkpt lat="44.85931" lon="5.35518">
        <ele>1256.9</ele>
        <time>2021-09-01T12:07:11Z</time>
      </trkpt>
      <trkpt lat="44.85924" lon="5.35518">
        <ele>1257.3</ele>
        <time>2021-09-01T12:07:12Z</time>
      </trkpt>
      <trkpt lat="44.85916" lon="5.35517">
        <ele>1257.8</ele>
        <time>2021-09-01T12:07:14Z</time>
      </trkpt>
      <trkpt lat="44.85904" lon="5.35516">
        <ele>1258.6</ele>
        <time>2021-09-01T12:07:16Z</time>
      </trkpt>
      <trkpt lat="44.85891" lon="5.35511">
        <ele>1259.1</ele>
        <time>2021-09-01T12:07:18Z</time>
      </trkpt>
      <trkpt lat="44.85883" lon="5.35506">
        <ele>1259.3</ele>
        <time>2021-09-01T12:07:19Z</time>
      </trkpt>
      <trkpt lat="44.85877" lon="5.35501">
        <ele>1259.2</ele>
        <time>2021-09-01T12:07:21Z</time>
      </trkpt>
      <trkpt lat="44.85871" lon="5.35493">
        <ele>1259</ele>
        <time>2021-09-01T12:07:24Z</time>
      </trkpt>
      <trkpt lat="44.85866" lon="5.35487">
        <ele>1258.9</ele>
        <time>2021-09-01T12:07:26Z</time>
      </trkpt>
      <trkpt lat="44.85864" lon="5.35483">
        <ele>1258.8</ele>
        <time>2021-09-01T12:07:27Z</time>
      </trkpt>
      <trkpt lat="44.8586" lon="5.35474">
        <ele>1258.7</ele>
        <time>2021-09-01T12:07:28Z</time>
      </trkpt>
      <trkpt lat="44.85856" lon="5.35468">
        <ele>1258.7</ele>
        <time>2021-09-01T12:07:30Z</time>
      </trkpt>
      <trkpt lat="44.85852" lon="5.35462">
        <ele>1258.6</ele>
        <time>2021-09-01T12:07:31Z</time>
      </trkpt>
      <trkpt lat="44.85848" lon="5.35456">
        <ele>1258.6</ele>
        <time>2021-09-01T12:07:32Z</time>
      </trkpt>
      <trkpt lat="44.85842" lon="5.35449">
        <ele>1258.6</ele>
        <time>2021-09-01T12:07:33Z</time>
      </trkpt>
      <trkpt lat="44.85839" lon="5.35445">
        <ele>1258.5</ele>
        <time>2021-09-01T12:07:34Z</time>
      </trkpt>
      <trkpt lat="44.85836" lon="5.35442">
        <ele>1258.5</ele>
        <time>2021-09-01T12:07:36Z</time>
      </trkpt>
      <trkpt lat="44.85831" lon="5.35434">
        <ele>1258.5</ele>
        <time>2021-09-01T12:07:37Z</time>
      </trkpt>
      <trkpt lat="44.85828" lon="5.35431">
        <ele>1258.5</ele>
        <time>2021-09-01T12:07:38Z</time>
      </trkpt>
      <trkpt lat="44.85823" lon="5.35433">
        <ele>1258.4</ele>
        <time>2021-09-01T12:07:39Z</time>
      </trkpt>
      <trkpt lat="44.8582" lon="5.35432">
        <ele>1258.4</ele>
        <time>2021-09-01T12:07:40Z</time>
      </trkpt>
      <trkpt lat="44.85819" lon="5.35432">
        <ele>1258.4</ele>
        <time>2021-09-01T12:07:41Z</time>
      </trkpt>
      <trkpt lat="44.85817" lon="5.3543">
        <ele>1258.4</ele>
        <time>2021-09-01T12:07:42Z</time>
      </trkpt>
      <trkpt lat="44.85814" lon="5.35428">
        <ele>1258.4</ele>
        <time>2021-09-01T12:07:44Z</time>
      </trkpt>
      <trkpt lat="44.85813" lon="5.35428">
        <ele>1258.4</ele>
        <time>2021-09-01T12:07:45Z</time>
      </trkpt>
      <trkpt lat="44.85807" lon="5.35428">
        <ele>1258.5</ele>
        <time>2021-09-01T12:07:47Z</time>
      </trkpt>
      <trkpt lat="44.858" lon="5.35429">
        <ele>1258.5</ele>
        <time>2021-09-01T12:07:49Z</time>
      </trkpt>
      <trkpt lat="44.85799" lon="5.35429">
        <ele>1258.5</ele>
        <time>2021-09-01T12:07:50Z</time>
      </trkpt>
      <trkpt lat="44.85638" lon="5.35447">
        <ele>1258.8</ele>
        <time>2021-09-01T12:08:40Z</time>
      </trkpt>
      <trkpt lat="44.85625" lon="5.35448">
        <ele>1258.6</ele>
        <time>2021-09-01T12:08:42Z</time>
      </trkpt>
      <trkpt lat="44.85615" lon="5.35448">
        <ele>1258.6</ele>
        <time>2021-09-01T12:08:43Z</time>
      </trkpt>
      <trkpt lat="44.85607" lon="5.35449">
        <ele>1258.6</ele>
        <time>2021-09-01T12:08:45Z</time>
      </trkpt>
      <trkpt lat="44.856" lon="5.35453">
        <ele>1258.7</ele>
        <time>2021-09-01T12:08:46Z</time>
      </trkpt>
      <trkpt lat="44.85596" lon="5.35456">
        <ele>1258.7</ele>
        <time>2021-09-01T12:08:47Z</time>
      </trkpt>
      <trkpt lat="44.85591" lon="5.35456">
        <ele>1258.7</ele>
        <time>2021-09-01T12:08:48Z</time>
      </trkpt>
      <trkpt lat="44.85586" lon="5.35459">
        <ele>1258.7</ele>
        <time>2021-09-01T12:08:50Z</time>
      </trkpt>
      <trkpt lat="44.85581" lon="5.35464">
        <ele>1258.8</ele>
        <time>2021-09-01T12:08:52Z</time>
      </trkpt>
      <trkpt lat="44.85578" lon="5.35468">
        <ele>1258.8</ele>
        <time>2021-09-01T12:08:53Z</time>
      </trkpt>
      <trkpt lat="44.85575" lon="5.35469">
        <ele>1258.8</ele>
        <time>2021-09-01T12:08:54Z</time>
      </trkpt>
      <trkpt lat="44.85573" lon="5.35468">
        <ele>1258.8</ele>
        <time>2021-09-01T12:08:56Z</time>
      </trkpt>
      <trkpt lat="44.85569" lon="5.35467">
        <ele>1258.8</ele>
        <time>2021-09-01T12:08:58Z</time>
      </trkpt>
      <trkpt lat="44.85566" lon="5.35467">
        <ele>1258.8</ele>
        <time>2021-09-01T12:08:59Z</time>
      </trkpt>
      <trkpt lat="44.85563" lon="5.35465">
        <ele>1258.8</ele>
        <time>2021-09-01T12:09:00Z</time>
      </trkpt>
      <trkpt lat="44.8556" lon="5.35463">
        <ele>1258.7</ele>
        <time>2021-09-01T12:09:01Z</time>
      </trkpt>
      <trkpt lat="44.85555" lon="5.35462">
        <ele>1258.7</ele>
        <time>2021-09-01T12:09:03Z</time>
      </trkpt>
      <trkpt lat="44.8555" lon="5.35459">
        <ele>1258.6</ele>
        <time>2021-09-01T12:09:04Z</time>
      </trkpt>
      <trkpt lat="44.85542" lon="5.35455">
        <ele>1258.4</ele>
        <time>2021-09-01T12:09:05Z</time>
      </trkpt>
      <trkpt lat="44.85536" lon="5.35451">
        <ele>1258.2</ele>
        <time>2021-09-01T12:09:07Z</time>
      </trkpt>
      <trkpt lat="44.85522" lon="5.35438">
        <ele>1257.4</ele>
        <time>2021-09-01T12:09:08Z</time>
      </trkpt>
      <trkpt lat="44.85514" lon="5.35431">
        <ele>1256.8</ele>
        <time>2021-09-01T12:09:09Z</time>
      </trkpt>
      <trkpt lat="44.85506" lon="5.35425">
        <ele>1256.2</ele>
        <time>2021-09-01T12:09:10Z</time>
      </trkpt>
      <trkpt lat="44.85491" lon="5.35414">
        <ele>1255.3</ele>
        <time>2021-09-01T12:09:12Z</time>
      </trkpt>
      <trkpt lat="44.85477" lon="5.35402">
        <ele>1254.6</ele>
        <time>2021-09-01T12:09:14Z</time>
      </trkpt>
      <trkpt lat="44.85471" lon="5.35397">
        <ele>1254.2</ele>
        <time>2021-09-01T12:09:15Z</time>
      </trkpt>
      <trkpt lat="44.85463" lon="5.35392">
        <ele>1253.9</ele>
        <time>2021-09-01T12:09:16Z</time>
      </trkpt>
      <trkpt lat="44.85458" lon="5.35387">
        <ele>1253.6</ele>
        <time>2021-09-01T12:09:17Z</time>
      </trkpt>
      <trkpt lat="44.85448" lon="5.3538">
        <ele>1253.3</ele>
        <time>2021-09-01T12:09:19Z</time>
      </trkpt>
      <trkpt lat="44.85444" lon="5.35376">
        <ele>1253.2</ele>
        <time>2021-09-01T12:09:20Z</time>
      </trkpt>
      <trkpt lat="44.85435" lon="5.35366">
        <ele>1253.1</ele>
        <time>2021-09-01T12:09:22Z</time>
      </trkpt>
      <trkpt lat="44.85431" lon="5.35361">
        <ele>1253.2</ele>
        <time>2021-09-01T12:09:23Z</time>
      </trkpt>
      <trkpt lat="44.85425" lon="5.35351">
        <ele>1253.5</ele>
        <time>2021-09-01T12:09:25Z</time>
      </trkpt>
      <trkpt lat="44.85422" lon="5.35347">
        <ele>1253.7</ele>
        <time>2021-09-01T12:09:26Z</time>
      </trkpt>
      <trkpt lat="44.85416" lon="5.35342">
        <ele>1254.2</ele>
        <time>2021-09-01T12:09:28Z</time>
      </trkpt>
      <trkpt lat="44.85413" lon="5.35341">
        <ele>1254.5</ele>
        <time>2021-09-01T12:09:29Z</time>
      </trkpt>
      <trkpt lat="44.85412" lon="5.35339">
        <ele>1254.6</ele>
        <time>2021-09-01T12:09:30Z</time>
      </trkpt>
      <trkpt lat="44.8541" lon="5.35338">
        <ele>1254.8</ele>
        <time>2021-09-01T12:09:31Z</time>
      </trkpt>
      <trkpt lat="44.85408" lon="5.35336">
        <ele>1255</ele>
        <time>2021-09-01T12:09:33Z</time>
      </trkpt>
      <trkpt lat="44.85406" lon="5.35334">
        <ele>1255.3</ele>
        <time>2021-09-01T12:09:34Z</time>
      </trkpt>
      <trkpt lat="44.85404" lon="5.35333">
        <ele>1255.4</ele>
        <time>2021-09-01T12:09:36Z</time>
      </trkpt>
      <trkpt lat="44.85403" lon="5.35332">
        <ele>1255.5</ele>
        <time>2021-09-01T12:09:38Z</time>
      </trkpt>
      <trkpt lat="44.85402" lon="5.35331">
        <ele>1255.6</ele>
        <time>2021-09-01T12:09:39Z</time>
      </trkpt>
      <trkpt lat="44.85401" lon="5.35331">
        <ele>1255.7</ele>
        <time>2021-09-01T12:09:40Z</time>
      </trkpt>
      <trkpt lat="44.85397" lon="5.35328">
        <ele>1256.1</ele>
        <time>2021-09-01T12:09:41Z</time>
      </trkpt>
      <trkpt lat="44.85392" lon="5.35325">
        <ele>1256.5</ele>
        <time>2021-09-01T12:09:42Z</time>
      </trkpt>
      <trkpt lat="44.85388" lon="5.35318">
        <ele>1257</ele>
        <time>2021-09-01T12:09:44Z</time>
      </trkpt>
      <trkpt lat="44.85386" lon="5.35316">
        <ele>1257.2</ele>
        <time>2021-09-01T12:09:45Z</time>
      </trkpt>
      <trkpt lat="44.85381" lon="5.35308">
        <ele>1257.9</ele>
        <time>2021-09-01T12:09:47Z</time>
      </trkpt>
      <trkpt lat="44.8538" lon="5.35303">
        <ele>1258</ele>
        <time>2021-09-01T12:09:48Z</time>
      </trkpt>
      <trkpt lat="44.85379" lon="5.35298">
        <ele>1258</ele>
        <time>2021-09-01T12:09:49Z</time>
      </trkpt>
      <trkpt lat="44.85379" lon="5.35295">
        <ele>1258.1</ele>
        <time>2021-09-01T12:09:51Z</time>
      </trkpt>
      <trkpt lat="44.85379" lon="5.35295">
        <ele>1258.1</ele>
        <time>2021-09-01T12:09:52Z</time>
      </trkpt>
      <trkpt lat="44.8538" lon="5.35297">
        <ele>1258.1</ele>
        <time>2021-09-01T12:09:53Z</time>
      </trkpt>
      <trkpt lat="44.85381" lon="5.35297">
        <ele>1258.1</ele>
        <time>2021-09-01T12:09:54Z</time>
      </trkpt>
      <trkpt lat="44.85381" lon="5.35298">
        <ele>1258.1</ele>
        <time>2021-09-01T12:09:55Z</time>
      </trkpt>
      <trkpt lat="44.85396" lon="5.35347">
        <ele>1255.7</ele>
        <time>2021-09-01T12:09:56Z</time>
      </trkpt>
      <trkpt lat="44.85396" lon="5.35347">
        <ele>1255.7</ele>
        <time>2021-09-01T12:09:58Z</time>
      </trkpt>
      <trkpt lat="44.85308" lon="5.35336">
        <ele>1264.3</ele>
        <time>2021-09-01T12:10:19Z</time>
      </trkpt>
      <trkpt lat="44.85304" lon="5.35334">
        <ele>1264.9</ele>
        <time>2021-09-01T12:10:20Z</time>
      </trkpt>
      <trkpt lat="44.85302" lon="5.35336">
        <ele>1265.2</ele>
        <time>2021-09-01T12:10:21Z</time>
      </trkpt>
      <trkpt lat="44.85299" lon="5.35341">
        <ele>1265.8</ele>
        <time>2021-09-01T12:10:23Z</time>
      </trkpt>
      <trkpt lat="44.85297" lon="5.35343">
        <ele>1266.2</ele>
        <time>2021-09-01T12:10:24Z</time>
      </trkpt>
      <trkpt lat="44.85297" lon="5.35344">
        <ele>1266.3</ele>
        <time>2021-09-01T12:10:25Z</time>
      </trkpt>
      <trkpt lat="44.85297" lon="5.35347">
        <ele>1266.5</ele>
        <time>2021-09-01T12:10:26Z</time>
      </trkpt>
      <trkpt lat="44.85297" lon="5.35349">
        <ele>1266.7</ele>
        <time>2021-09-01T12:10:28Z</time>
      </trkpt>
      <trkpt lat="44.85296" lon="5.3535">
        <ele>1266.8</ele>
        <time>2021-09-01T12:10:29Z</time>
      </trkpt>
      <trkpt lat="44.85293" lon="5.35354">
        <ele>1267.4</ele>
        <time>2021-09-01T12:10:31Z</time>
      </trkpt>
      <trkpt lat="44.85292" lon="5.35354">
        <ele>1267.5</ele>
        <time>2021-09-01T12:10:32Z</time>
      </trkpt>
      <trkpt lat="44.85292" lon="5.35355">
        <ele>1267.6</ele>
        <time>2021-09-01T12:10:33Z</time>
      </trkpt>
      <trkpt lat="44.85291" lon="5.35355">
        <ele>1267.6</ele>
        <time>2021-09-01T12:10:35Z</time>
      </trkpt>
      <trkpt lat="44.85291" lon="5.35355">
        <ele>1267.6</ele>
        <time>2021-09-01T12:10:36Z</time>
      </trkpt>
      <trkpt lat="44.85292" lon="5.35354">
        <ele>1267.7</ele>
        <time>2021-09-01T12:10:37Z</time>
      </trkpt>
      <trkpt lat="44.85291" lon="5.35354">
        <ele>1267.7</ele>
        <time>2021-09-01T12:10:39Z</time>
      </trkpt>
      <trkpt lat="44.85296" lon="5.35336">
        <ele>1269.6</ele>
        <time>2021-09-01T12:10:49Z</time>
      </trkpt>
      <trkpt lat="44.85297" lon="5.35332">
        <ele>1270</ele>
        <time>2021-09-01T12:10:50Z</time>
      </trkpt>
      <trkpt lat="44.85298" lon="5.35329">
        <ele>1270.3</ele>
        <time>2021-09-01T12:10:52Z</time>
      </trkpt>
      <trkpt lat="44.85299" lon="5.35324">
        <ele>1270.8</ele>
        <time>2021-09-01T12:10:53Z</time>
      </trkpt>
      <trkpt lat="44.853" lon="5.35317">
        <ele>1271.4</ele>
        <time>2021-09-01T12:10:55Z</time>
      </trkpt>
      <trkpt lat="44.853" lon="5.35313">
        <ele>1271.9</ele>
        <time>2021-09-01T12:10:56Z</time>
      </trkpt>
      <trkpt lat="44.85299" lon="5.35311">
        <ele>1272.1</ele>
        <time>2021-09-01T12:10:57Z</time>
      </trkpt>
      <trkpt lat="44.85298" lon="5.35307">
        <ele>1272.5</ele>
        <time>2021-09-01T12:10:58Z</time>
      </trkpt>
      <trkpt lat="44.85296" lon="5.35302">
        <ele>1273</ele>
        <time>2021-09-01T12:10:59Z</time>
      </trkpt>
      <trkpt lat="44.85295" lon="5.35298">
        <ele>1273.4</ele>
        <time>2021-09-01T12:11:00Z</time>
      </trkpt>
      <trkpt lat="44.85292" lon="5.35294">
        <ele>1274.5</ele>
        <time>2021-09-01T12:11:02Z</time>
      </trkpt>
      <trkpt lat="44.8529" lon="5.3529">
        <ele>1274.5</ele>
        <time>2021-09-01T12:11:03Z</time>
      </trkpt>
      <trkpt lat="44.85289" lon="5.35286">
        <ele>1274.6</ele>
        <time>2021-09-01T12:11:04Z</time>
      </trkpt>
      <trkpt lat="44.85287" lon="5.3528">
        <ele>1274.6</ele>
        <time>2021-09-01T12:11:05Z</time>
      </trkpt>
      <trkpt lat="44.85284" lon="5.35272">
        <ele>1274.7</ele>
        <time>2021-09-01T12:11:06Z</time>
      </trkpt>
      <trkpt lat="44.85281" lon="5.35267">
        <ele>1274.8</ele>
        <time>2021-09-01T12:11:08Z</time>
      </trkpt>
      <trkpt lat="44.85279" lon="5.35262">
        <ele>1274.8</ele>
        <time>2021-09-01T12:11:09Z</time>
      </trkpt>
      <trkpt lat="44.85277" lon="5.35255">
        <ele>1274.9</ele>
        <time>2021-09-01T12:11:10Z</time>
      </trkpt>
      <trkpt lat="44.85275" lon="5.35247">
        <ele>1275.1</ele>
        <time>2021-09-01T12:11:11Z</time>
      </trkpt>
      <trkpt lat="44.85273" lon="5.35241">
        <ele>1275.1</ele>
        <time>2021-09-01T12:11:12Z</time>
      </trkpt>
      <trkpt lat="44.85271" lon="5.35235">
        <ele>1275.3</ele>
        <time>2021-09-01T12:11:14Z</time>
      </trkpt>
      <trkpt lat="44.8527" lon="5.35233">
        <ele>1275.3</ele>
        <time>2021-09-01T12:11:16Z</time>
      </trkpt>
      <trkpt lat="44.85269" lon="5.3523">
        <ele>1275.4</ele>
        <time>2021-09-01T12:11:17Z</time>
      </trkpt>
      <trkpt lat="44.85268" lon="5.35228">
        <ele>1275.4</ele>
        <time>2021-09-01T12:11:18Z</time>
      </trkpt>
      <trkpt lat="44.85267" lon="5.35228">
        <ele>1275.4</ele>
        <time>2021-09-01T12:11:19Z</time>
      </trkpt>
      <trkpt lat="44.85266" lon="5.35227">
        <ele>1275.5</ele>
        <time>2021-09-01T12:11:20Z</time>
      </trkpt>
      <trkpt lat="44.85263" lon="5.35222">
        <ele>1275.6</ele>
        <time>2021-09-01T12:11:22Z</time>
      </trkpt>
      <trkpt lat="44.85262" lon="5.35221">
        <ele>1275.6</ele>
        <time>2021-09-01T12:11:23Z</time>
      </trkpt>
      <trkpt lat="44.85258" lon="5.35217">
        <ele>1275.8</ele>
        <time>2021-09-01T12:11:25Z</time>
      </trkpt>
      <trkpt lat="44.85256" lon="5.35216">
        <ele>1275.9</ele>
        <time>2021-09-01T12:11:26Z</time>
      </trkpt>
      <trkpt lat="44.85253" lon="5.35215">
        <ele>1276</ele>
        <time>2021-09-01T12:11:28Z</time>
      </trkpt>
      <trkpt lat="44.85251" lon="5.35215">
        <ele>1276</ele>
        <time>2021-09-01T12:11:29Z</time>
      </trkpt>
      <trkpt lat="44.85244" lon="5.35218">
        <ele>1276.3</ele>
        <time>2021-09-01T12:11:30Z</time>
      </trkpt>
      <trkpt lat="44.85241" lon="5.35218">
        <ele>1276.4</ele>
        <time>2021-09-01T12:11:31Z</time>
      </trkpt>
      <trkpt lat="44.85238" lon="5.35215">
        <ele>1276.5</ele>
        <time>2021-09-01T12:11:33Z</time>
      </trkpt>
      <trkpt lat="44.85235" lon="5.35213">
        <ele>1276.6</ele>
        <time>2021-09-01T12:11:35Z</time>
      </trkpt>
      <trkpt lat="44.85234" lon="5.35208">
        <ele>1276.7</ele>
        <time>2021-09-01T12:11:37Z</time>
      </trkpt>
      <trkpt lat="44.85233" lon="5.35206">
        <ele>1276.8</ele>
        <time>2021-09-01T12:11:38Z</time>
      </trkpt>
      <trkpt lat="44.85233" lon="5.35203">
        <ele>1276.9</ele>
        <time>2021-09-01T12:11:39Z</time>
      </trkpt>
      <trkpt lat="44.85233" lon="5.35202">
        <ele>1276.9</ele>
        <time>2021-09-01T12:11:40Z</time>
      </trkpt>
      <trkpt lat="44.85232" lon="5.35202">
        <ele>1276.9</ele>
        <time>2021-09-01T12:11:41Z</time>
      </trkpt>
      <trkpt lat="44.8523" lon="5.35201">
        <ele>1277</ele>
        <time>2021-09-01T12:11:43Z</time>
      </trkpt>
      <trkpt lat="44.85229" lon="5.35201">
        <ele>1277</ele>
        <time>2021-09-01T12:11:44Z</time>
      </trkpt>
      <trkpt lat="44.85226" lon="5.35202">
        <ele>1277.2</ele>
        <time>2021-09-01T12:11:46Z</time>
      </trkpt>
      <trkpt lat="44.85224" lon="5.35202">
        <ele>1277.2</ele>
        <time>2021-09-01T12:11:48Z</time>
      </trkpt>
      <trkpt lat="44.85209" lon="5.35184">
        <ele>1278</ele>
        <time>2021-09-01T12:12:07Z</time>
      </trkpt>
      <trkpt lat="44.85208" lon="5.35179">
        <ele>1278.1</ele>
        <time>2021-09-01T12:12:08Z</time>
      </trkpt>
      <trkpt lat="44.85207" lon="5.35173">
        <ele>1278.3</ele>
        <time>2021-09-01T12:12:10Z</time>
      </trkpt>
      <trkpt lat="44.85206" lon="5.35171">
        <ele>1278.4</ele>
        <time>2021-09-01T12:12:11Z</time>
      </trkpt>
      <trkpt lat="44.85205" lon="5.35164">
        <ele>1278.5</ele>
        <time>2021-09-01T12:12:12Z</time>
      </trkpt>
      <trkpt lat="44.85205" lon="5.35157">
        <ele>1278.7</ele>
        <time>2021-09-01T12:12:13Z</time>
      </trkpt>
      <trkpt lat="44.852" lon="5.35152">
        <ele>1279</ele>
        <time>2021-09-01T12:12:15Z</time>
      </trkpt>
      <trkpt lat="44.85198" lon="5.3515">
        <ele>1279.1</ele>
        <time>2021-09-01T12:12:16Z</time>
      </trkpt>
      <trkpt lat="44.85195" lon="5.35146">
        <ele>1279.2</ele>
        <time>2021-09-01T12:12:17Z</time>
      </trkpt>
      <trkpt lat="44.85195" lon="5.35145">
        <ele>1279.2</ele>
        <time>2021-09-01T12:12:18Z</time>
      </trkpt>
      <trkpt lat="44.85194" lon="5.35141">
        <ele>1279.3</ele>
        <time>2021-09-01T12:12:20Z</time>
      </trkpt>
      <trkpt lat="44.85194" lon="5.35137">
        <ele>1279.4</ele>
        <time>2021-09-01T12:12:22Z</time>
      </trkpt>
      <trkpt lat="44.85193" lon="5.35134">
        <ele>1279.4</ele>
        <time>2021-09-01T12:12:23Z</time>
      </trkpt>
      <trkpt lat="44.85168" lon="5.35133">
        <ele>1279.9</ele>
        <time>2021-09-01T12:12:32Z</time>
      </trkpt>
      <trkpt lat="44.85159" lon="5.35136">
        <ele>1280.1</ele>
        <time>2021-09-01T12:12:33Z</time>
      </trkpt>
      <trkpt lat="44.85153" lon="5.35137">
        <ele>1280.2</ele>
        <time>2021-09-01T12:12:35Z</time>
      </trkpt>
      <trkpt lat="44.8515" lon="5.35137">
        <ele>1280.2</ele>
        <time>2021-09-01T12:12:36Z</time>
      </trkpt>
      <trkpt lat="44.8515" lon="5.35136">
        <ele>1280.2</ele>
        <time>2021-09-01T12:12:37Z</time>
      </trkpt>
      <trkpt lat="44.85149" lon="5.35135">
        <ele>1280.2</ele>
        <time>2021-09-01T12:12:38Z</time>
      </trkpt>
      <trkpt lat="44.85149" lon="5.35134">
        <ele>1280.2</ele>
        <time>2021-09-01T12:12:39Z</time>
      </trkpt>
      <trkpt lat="44.85147" lon="5.3513">
        <ele>1280.3</ele>
        <time>2021-09-01T12:12:41Z</time>
      </trkpt>
      <trkpt lat="44.85147" lon="5.35129">
        <ele>1280.3</ele>
        <time>2021-09-01T12:12:42Z</time>
      </trkpt>
      <trkpt lat="44.85144" lon="5.35125">
        <ele>1280.3</ele>
        <time>2021-09-01T12:12:44Z</time>
      </trkpt>
      <trkpt lat="44.85141" lon="5.35121">
        <ele>1280.4</ele>
        <time>2021-09-01T12:12:46Z</time>
      </trkpt>
      <trkpt lat="44.85141" lon="5.35121">
        <ele>1280.4</ele>
        <time>2021-09-01T12:12:46Z</time>
      </trkpt>
      <trkpt lat="44.85139" lon="5.35118">
        <ele>1280.4</ele>
        <time>2021-09-01T12:12:47Z</time>
      </trkpt>
      <trkpt lat="44.85134" lon="5.35114">
        <ele>1280.5</ele>
        <time>2021-09-01T12:12:49Z</time>
      </trkpt>
      <trkpt lat="44.85131" lon="5.35112">
        <ele>1280.6</ele>
        <time>2021-09-01T12:12:50Z</time>
      </trkpt>
      <trkpt lat="44.85128" lon="5.35111">
        <ele>1280.7</ele>
        <time>2021-09-01T12:12:51Z</time>
      </trkpt>
      <trkpt lat="44.85127" lon="5.35111">
        <ele>1280.7</ele>
        <time>2021-09-01T12:12:52Z</time>
      </trkpt>
      <trkpt lat="44.85126" lon="5.35112">
        <ele>1280.7</ele>
        <time>2021-09-01T12:12:54Z</time>
      </trkpt>
      <trkpt lat="44.85126" lon="5.35113">
        <ele>1280.7</ele>
        <time>2021-09-01T12:12:55Z</time>
      </trkpt>
      <trkpt lat="44.85124" lon="5.35114">
        <ele>1280.8</ele>
        <time>2021-09-01T12:12:56Z</time>
      </trkpt>
      <trkpt lat="44.85122" lon="5.35115">
        <ele>1280.8</ele>
        <time>2021-09-01T12:12:58Z</time>
      </trkpt>
      <trkpt lat="44.85121" lon="5.35115">
        <ele>1280.8</ele>
        <time>2021-09-01T12:12:59Z</time>
      </trkpt>
      <trkpt lat="44.85118" lon="5.35111">
        <ele>1280.9</ele>
        <time>2021-09-01T12:13:01Z</time>
      </trkpt>
      <trkpt lat="44.85117" lon="5.35107">
        <ele>1281</ele>
        <time>2021-09-01T12:13:02Z</time>
      </trkpt>
      <trkpt lat="44.85116" lon="5.35103">
        <ele>1281.2</ele>
        <time>2021-09-01T12:13:03Z</time>
      </trkpt>
      <trkpt lat="44.85115" lon="5.35098">
        <ele>1281.3</ele>
        <time>2021-09-01T12:13:05Z</time>
      </trkpt>
      <trkpt lat="44.85114" lon="5.35093">
        <ele>1281.4</ele>
        <time>2021-09-01T12:13:06Z</time>
      </trkpt>
      <trkpt lat="44.85114" lon="5.35091">
        <ele>1281.4</ele>
        <time>2021-09-01T12:13:07Z</time>
      </trkpt>
      <trkpt lat="44.85113" lon="5.35086">
        <ele>1281.5</ele>
        <time>2021-09-01T12:13:09Z</time>
      </trkpt>
      <trkpt lat="44.85111" lon="5.35085">
        <ele>1281.6</ele>
        <time>2021-09-01T12:13:11Z</time>
      </trkpt>
      <trkpt lat="44.85108" lon="5.35087">
        <ele>1281.7</ele>
        <time>2021-09-01T12:13:13Z</time>
      </trkpt>
      <trkpt lat="44.85105" lon="5.35086">
        <ele>1281.9</ele>
        <time>2021-09-01T12:13:15Z</time>
      </trkpt>
      <trkpt lat="44.851" lon="5.35086">
        <ele>1282.1</ele>
        <time>2021-09-01T12:13:17Z</time>
      </trkpt>
      <trkpt lat="44.85097" lon="5.35085">
        <ele>1282.3</ele>
        <time>2021-09-01T12:13:18Z</time>
      </trkpt>
      <trkpt lat="44.85092" lon="5.35084">
        <ele>1282.5</ele>
        <time>2021-09-01T12:13:20Z</time>
      </trkpt>
      <trkpt lat="44.85089" lon="5.35082">
        <ele>1282.7</ele>
        <time>2021-09-01T12:13:22Z</time>
      </trkpt>
      <trkpt lat="44.85088" lon="5.3508">
        <ele>1282.8</ele>
        <time>2021-09-01T12:13:23Z</time>
      </trkpt>
      <trkpt lat="44.85085" lon="5.35077">
        <ele>1283</ele>
        <time>2021-09-01T12:13:25Z</time>
      </trkpt>
      <trkpt lat="44.85082" lon="5.35074">
        <ele>1283.3</ele>
        <time>2021-09-01T12:13:27Z</time>
      </trkpt>
      <trkpt lat="44.85082" lon="5.35072">
        <ele>1283.4</ele>
        <time>2021-09-01T12:13:28Z</time>
      </trkpt>
      <trkpt lat="44.85082" lon="5.35072">
        <ele>1283.4</ele>
        <time>2021-09-01T12:13:29Z</time>
      </trkpt>
      <trkpt lat="44.8508" lon="5.35067">
        <ele>1283.6</ele>
        <time>2021-09-01T12:13:31Z</time>
      </trkpt>
      <trkpt lat="44.85078" lon="5.35066">
        <ele>1283.8</ele>
        <time>2021-09-01T12:13:32Z</time>
      </trkpt>
      <trkpt lat="44.85074" lon="5.35066">
        <ele>1284</ele>
        <time>2021-09-01T12:13:34Z</time>
      </trkpt>
      <trkpt lat="44.85071" lon="5.35066">
        <ele>1284.2</ele>
        <time>2021-09-01T12:13:35Z</time>
      </trkpt>
      <trkpt lat="44.85067" lon="5.35066">
        <ele>1284.6</ele>
        <time>2021-09-01T12:13:36Z</time>
      </trkpt>
      <trkpt lat="44.85064" lon="5.35066">
        <ele>1284.7</ele>
        <time>2021-09-01T12:13:37Z</time>
      </trkpt>
      <trkpt lat="44.8506" lon="5.35067">
        <ele>1285.1</ele>
        <time>2021-09-01T12:13:38Z</time>
      </trkpt>
      <trkpt lat="44.85056" lon="5.35069">
        <ele>1285.4</ele>
        <time>2021-09-01T12:13:40Z</time>
      </trkpt>
      <trkpt lat="44.85054" lon="5.35072">
        <ele>1285.6</ele>
        <time>2021-09-01T12:13:41Z</time>
      </trkpt>
      <trkpt lat="44.85054" lon="5.35075">
        <ele>1285.7</ele>
        <time>2021-09-01T12:13:42Z</time>
      </trkpt>
      <trkpt lat="44.85053" lon="5.3509">
        <ele>1286.5</ele>
        <time>2021-09-01T12:13:44Z</time>
      </trkpt>
      <trkpt lat="44.85053" lon="5.35098">
        <ele>1287</ele>
        <time>2021-09-01T12:13:45Z</time>
      </trkpt>
      <trkpt lat="44.85054" lon="5.35104">
        <ele>1287.3</ele>
        <time>2021-09-01T12:13:47Z</time>
      </trkpt>
      <trkpt lat="44.85055" lon="5.35111">
        <ele>1287.7</ele>
        <time>2021-09-01T12:13:48Z</time>
      </trkpt>
      <trkpt lat="44.85055" lon="5.35124">
        <ele>1288.4</ele>
        <time>2021-09-01T12:13:49Z</time>
      </trkpt>
      <trkpt lat="44.85054" lon="5.35136">
        <ele>1289.2</ele>
        <time>2021-09-01T12:13:51Z</time>
      </trkpt>
      <trkpt lat="44.85054" lon="5.35141">
        <ele>1289.5</ele>
        <time>2021-09-01T12:13:52Z</time>
      </trkpt>
      <trkpt lat="44.85056" lon="5.35134">
        <ele>1290</ele>
        <time>2021-09-01T12:13:54Z</time>
      </trkpt>
      <trkpt lat="44.85057" lon="5.35129">
        <ele>1290.4</ele>
        <time>2021-09-01T12:13:55Z</time>
      </trkpt>
      <trkpt lat="44.85058" lon="5.35127">
        <ele>1290.5</ele>
        <time>2021-09-01T12:13:56Z</time>
      </trkpt>
      <trkpt lat="44.85058" lon="5.35127">
        <ele>1290.5</ele>
        <time>2021-09-01T12:13:58Z</time>
      </trkpt>
      <trkpt lat="44.85057" lon="5.35124">
        <ele>1290.7</ele>
        <time>2021-09-01T12:13:59Z</time>
      </trkpt>
      <trkpt lat="44.85053" lon="5.35121">
        <ele>1291.2</ele>
        <time>2021-09-01T12:14:01Z</time>
      </trkpt>
      <trkpt lat="44.85049" lon="5.35118">
        <ele>1291.4</ele>
        <time>2021-09-01T12:14:02Z</time>
      </trkpt>
      <trkpt lat="44.85046" lon="5.35116">
        <ele>1291.7</ele>
        <time>2021-09-01T12:14:03Z</time>
      </trkpt>
      <trkpt lat="44.8504" lon="5.3511">
        <ele>1292.2</ele>
        <time>2021-09-01T12:14:05Z</time>
      </trkpt>
      <trkpt lat="44.85035" lon="5.35109">
        <ele>1292.5</ele>
        <time>2021-09-01T12:14:06Z</time>
      </trkpt>
      <trkpt lat="44.85032" lon="5.35108">
        <ele>1292.7</ele>
        <time>2021-09-01T12:14:08Z</time>
      </trkpt>
      <trkpt lat="44.85029" lon="5.3511">
        <ele>1292.9</ele>
        <time>2021-09-01T12:14:09Z</time>
      </trkpt>
      <trkpt lat="44.85027" lon="5.35112">
        <ele>1293</ele>
        <time>2021-09-01T12:14:10Z</time>
      </trkpt>
      <trkpt lat="44.85026" lon="5.35113">
        <ele>1293.1</ele>
        <time>2021-09-01T12:14:11Z</time>
      </trkpt>
      <trkpt lat="44.85024" lon="5.35115">
        <ele>1293.2</ele>
        <time>2021-09-01T12:14:13Z</time>
      </trkpt>
      <trkpt lat="44.85022" lon="5.35117">
        <ele>1293.3</ele>
        <time>2021-09-01T12:14:14Z</time>
      </trkpt>
      <trkpt lat="44.85022" lon="5.35117">
        <ele>1293.4</ele>
        <time>2021-09-01T12:14:15Z</time>
      </trkpt>
      <trkpt lat="44.85021" lon="5.35118">
        <ele>1293.4</ele>
        <time>2021-09-01T12:14:16Z</time>
      </trkpt>
      <trkpt lat="44.85017" lon="5.35118">
        <ele>1293.6</ele>
        <time>2021-09-01T12:14:18Z</time>
      </trkpt>
      <trkpt lat="44.85016" lon="5.35119">
        <ele>1293.6</ele>
        <time>2021-09-01T12:14:19Z</time>
      </trkpt>
      <trkpt lat="44.85015" lon="5.3512">
        <ele>1293.7</ele>
        <time>2021-09-01T12:14:20Z</time>
      </trkpt>
      <trkpt lat="44.85013" lon="5.35122">
        <ele>1293.8</ele>
        <time>2021-09-01T12:14:21Z</time>
      </trkpt>
      <trkpt lat="44.85011" lon="5.35124">
        <ele>1293.9</ele>
        <time>2021-09-01T12:14:23Z</time>
      </trkpt>
      <trkpt lat="44.85009" lon="5.35129">
        <ele>1294.1</ele>
        <time>2021-09-01T12:14:25Z</time>
      </trkpt>
      <trkpt lat="44.85009" lon="5.35131">
        <ele>1294.2</ele>
        <time>2021-09-01T12:14:26Z</time>
      </trkpt>
      <trkpt lat="44.85009" lon="5.35135">
        <ele>1294.3</ele>
        <time>2021-09-01T12:14:28Z</time>
      </trkpt>
      <trkpt lat="44.85009" lon="5.35136">
        <ele>1294.4</ele>
        <time>2021-09-01T12:14:29Z</time>
      </trkpt>
      <trkpt lat="44.85011" lon="5.35137">
        <ele>1294.4</ele>
        <time>2021-09-01T12:14:31Z</time>
      </trkpt>
      <trkpt lat="44.85011" lon="5.35137">
        <ele>1294.5</ele>
        <time>2021-09-01T12:14:32Z</time>
      </trkpt>
      <trkpt lat="44.85011" lon="5.35138">
        <ele>1294.5</ele>
        <time>2021-09-01T12:14:34Z</time>
      </trkpt>
      <trkpt lat="44.85011" lon="5.35138">
        <ele>1294.6</ele>
        <time>2021-09-01T12:14:35Z</time>
      </trkpt>
      <trkpt lat="44.85012" lon="5.35138">
        <ele>1294.6</ele>
        <time>2021-09-01T12:14:37Z</time>
      </trkpt>
      <trkpt lat="44.85012" lon="5.35137">
        <ele>1294.6</ele>
        <time>2021-09-01T12:14:38Z</time>
      </trkpt>
      <trkpt lat="44.8499" lon="5.35138">
        <ele>1295.9</ele>
        <time>2021-09-01T12:15:28Z</time>
      </trkpt>
      <trkpt lat="44.84988" lon="5.35138">
        <ele>1296.1</ele>
        <time>2021-09-01T12:15:29Z</time>
      </trkpt>
      <trkpt lat="44.84986" lon="5.35137">
        <ele>1296.2</ele>
        <time>2021-09-01T12:15:31Z</time>
      </trkpt>
      <trkpt lat="44.84983" lon="5.35138">
        <ele>1296.4</ele>
        <time>2021-09-01T12:15:32Z</time>
      </trkpt>
      <trkpt lat="44.8498" lon="5.35137">
        <ele>1296.6</ele>
        <time>2021-09-01T12:15:33Z</time>
      </trkpt>
      <trkpt lat="44.84977" lon="5.35136">
        <ele>1296.8</ele>
        <time>2021-09-01T12:15:34Z</time>
      </trkpt>
      <trkpt lat="44.84975" lon="5.35135">
        <ele>1296.9</ele>
        <time>2021-09-01T12:15:35Z</time>
      </trkpt>
      <trkpt lat="44.84971" lon="5.35136">
        <ele>1297.1</ele>
        <time>2021-09-01T12:15:37Z</time>
      </trkpt>
      <trkpt lat="44.8497" lon="5.35134">
        <ele>1297.2</ele>
        <time>2021-09-01T12:15:39Z</time>
      </trkpt>
      <trkpt lat="44.84969" lon="5.35133">
        <ele>1297.3</ele>
        <time>2021-09-01T12:15:40Z</time>
      </trkpt>
      <trkpt lat="44.84968" lon="5.35133">
        <ele>1297.4</ele>
        <time>2021-09-01T12:15:41Z</time>
      </trkpt>
      <trkpt lat="44.84967" lon="5.35133">
        <ele>1297.4</ele>
        <time>2021-09-01T12:15:43Z</time>
      </trkpt>
      <trkpt lat="44.84967" lon="5.35133">
        <ele>1297.5</ele>
        <time>2021-09-01T12:15:44Z</time>
      </trkpt>
      <trkpt lat="44.84966" lon="5.35132">
        <ele>1297.5</ele>
        <time>2021-09-01T12:15:46Z</time>
      </trkpt>
      <trkpt lat="44.84966" lon="5.35132">
        <ele>1297.5</ele>
        <time>2021-09-01T12:15:47Z</time>
      </trkpt>
      <trkpt lat="44.84966" lon="5.35132">
        <ele>1297.5</ele>
        <time>2021-09-01T12:15:48Z</time>
      </trkpt>
      <trkpt lat="44.84965" lon="5.35132">
        <ele>1297.6</ele>
        <time>2021-09-01T12:15:49Z</time>
      </trkpt>
      <trkpt lat="44.84965" lon="5.35131">
        <ele>1297.6</ele>
        <time>2021-09-01T12:15:51Z</time>
      </trkpt>
      <trkpt lat="44.84965" lon="5.35131">
        <ele>1297.6</ele>
        <time>2021-09-01T12:15:52Z</time>
      </trkpt>
      <trkpt lat="44.84964" lon="5.35131">
        <ele>1297.6</ele>
        <time>2021-09-01T12:15:53Z</time>
      </trkpt>
      <trkpt lat="44.84964" lon="5.35131">
        <ele>1297.7</ele>
        <time>2021-09-01T12:15:54Z</time>
      </trkpt>
      <trkpt lat="44.84963" lon="5.3513">
        <ele>1297.7</ele>
        <time>2021-09-01T12:15:55Z</time>
      </trkpt>
      <trkpt lat="44.84963" lon="5.3513">
        <ele>1297.7</ele>
        <time>2021-09-01T12:15:57Z</time>
      </trkpt>
      <trkpt lat="44.84963" lon="5.3513">
        <ele>1297.7</ele>
        <time>2021-09-01T12:15:58Z</time>
      </trkpt>
      <trkpt lat="44.84962" lon="5.3513">
        <ele>1297.8</ele>
        <time>2021-09-01T12:15:59Z</time>
      </trkpt>
      <trkpt lat="44.84962" lon="5.35129">
        <ele>1297.8</ele>
        <time>2021-09-01T12:16:00Z</time>
      </trkpt>
      <trkpt lat="44.8496" lon="5.35127">
        <ele>1297.9</ele>
        <time>2021-09-01T12:16:02Z</time>
      </trkpt>
      <trkpt lat="44.84958" lon="5.35122">
        <ele>1298.2</ele>
        <time>2021-09-01T12:16:05Z</time>
      </trkpt>
      <trkpt lat="44.84957" lon="5.35121">
        <ele>1298.3</ele>
        <time>2021-09-01T12:16:07Z</time>
      </trkpt>
      <trkpt lat="44.84957" lon="5.3512">
        <ele>1298.3</ele>
        <time>2021-09-01T12:16:08Z</time>
      </trkpt>
      <trkpt lat="44.84956" lon="5.35119">
        <ele>1298.4</ele>
        <time>2021-09-01T12:16:10Z</time>
      </trkpt>
      <trkpt lat="44.84956" lon="5.35119">
        <ele>1298.4</ele>
        <time>2021-09-01T12:16:11Z</time>
      </trkpt>
      <trkpt lat="44.84956" lon="5.35118">
        <ele>1298.4</ele>
        <time>2021-09-01T12:16:12Z</time>
      </trkpt>
      <trkpt lat="44.84956" lon="5.35117">
        <ele>1298.5</ele>
        <time>2021-09-01T12:16:13Z</time>
      </trkpt>
      <trkpt lat="44.84946" lon="5.35112">
        <ele>1299.1</ele>
        <time>2021-09-01T12:16:14Z</time>
      </trkpt>
      <trkpt lat="44.84937" lon="5.35108">
        <ele>1299.7</ele>
        <time>2021-09-01T12:16:16Z</time>
      </trkpt>
      <trkpt lat="44.84928" lon="5.35104">
        <ele>1300.4</ele>
        <time>2021-09-01T12:16:17Z</time>
      </trkpt>
      <trkpt lat="44.84919" lon="5.35101">
        <ele>1301</ele>
        <time>2021-09-01T12:17:13Z</time>
      </trkpt>
      <trkpt lat="44.8491" lon="5.35097">
        <ele>1301.6</ele>
        <time>2021-09-01T12:17:14Z</time>
      </trkpt>
      <trkpt lat="44.849" lon="5.35093">
        <ele>1302.2</ele>
        <time>2021-09-01T12:17:15Z</time>
      </trkpt>
      <trkpt lat="44.84898" lon="5.35092">
        <ele>1302.4</ele>
        <time>2021-09-01T12:17:17Z</time>
      </trkpt>
      <trkpt lat="44.84896" lon="5.35092">
        <ele>1302.5</ele>
        <time>2021-09-01T12:17:18Z</time>
      </trkpt>
      <trkpt lat="44.84894" lon="5.35089">
        <ele>1302.7</ele>
        <time>2021-09-01T12:17:19Z</time>
      </trkpt>
      <trkpt lat="44.84893" lon="5.35088">
        <ele>1302.8</ele>
        <time>2021-09-01T12:17:20Z</time>
      </trkpt>
      <trkpt lat="44.84891" lon="5.35083">
        <ele>1303</ele>
        <time>2021-09-01T12:17:22Z</time>
      </trkpt>
      <trkpt lat="44.84891" lon="5.35082">
        <ele>1303.1</ele>
        <time>2021-09-01T12:17:23Z</time>
      </trkpt>
      <trkpt lat="44.8489" lon="5.35081">
        <ele>1303.1</ele>
        <time>2021-09-01T12:17:24Z</time>
      </trkpt>
      <trkpt lat="44.8489" lon="5.35081">
        <ele>1303.1</ele>
        <time>2021-09-01T12:17:25Z</time>
      </trkpt>
      <trkpt lat="44.8489" lon="5.3508">
        <ele>1303.1</ele>
        <time>2021-09-01T12:17:27Z</time>
      </trkpt>
      <trkpt lat="44.8489" lon="5.3508">
        <ele>1303.1</ele>
        <time>2021-09-01T12:17:28Z</time>
      </trkpt>
      <trkpt lat="44.8489" lon="5.3508">
        <ele>1303.1</ele>
        <time>2021-09-01T12:17:29Z</time>
      </trkpt>
      <trkpt lat="44.8489" lon="5.3508">
        <ele>1303.2</ele>
        <time>2021-09-01T12:17:30Z</time>
      </trkpt>
      <trkpt lat="44.8489" lon="5.3508">
        <ele>1303.2</ele>
        <time>2021-09-01T12:17:32Z</time>
      </trkpt>
      <trkpt lat="44.8489" lon="5.3508">
        <ele>1303.2</ele>
        <time>2021-09-01T12:17:33Z</time>
      </trkpt>
      <trkpt lat="44.84889" lon="5.3508">
        <ele>1303.2</ele>
        <time>2021-09-01T12:17:34Z</time>
      </trkpt>
      <trkpt lat="44.84848" lon="5.35069">
        <ele>1305.6</ele>
        <time>2021-09-01T12:18:10Z</time>
      </trkpt>
      <trkpt lat="44.84845" lon="5.35067">
        <ele>1305.8</ele>
        <time>2021-09-01T12:18:12Z</time>
      </trkpt>
      <trkpt lat="44.84842" lon="5.35064">
        <ele>1306</ele>
        <time>2021-09-01T12:18:13Z</time>
      </trkpt>
      <trkpt lat="44.84836" lon="5.35062">
        <ele>1306.2</ele>
        <time>2021-09-01T12:18:15Z</time>
      </trkpt>
      <trkpt lat="44.84832" lon="5.35061">
        <ele>1306.4</ele>
        <time>2021-09-01T12:18:16Z</time>
      </trkpt>
      <trkpt lat="44.8483" lon="5.35062">
        <ele>1306.5</ele>
        <time>2021-09-01T12:18:17Z</time>
      </trkpt>
      <trkpt lat="44.84829" lon="5.35063">
        <ele>1306.5</ele>
        <time>2021-09-01T12:18:18Z</time>
      </trkpt>
      <trkpt lat="44.84828" lon="5.35064">
        <ele>1306.6</ele>
        <time>2021-09-01T12:18:19Z</time>
      </trkpt>
      <trkpt lat="44.84827" lon="5.35065">
        <ele>1306.6</ele>
        <time>2021-09-01T12:18:21Z</time>
      </trkpt>
      <trkpt lat="44.84827" lon="5.35066">
        <ele>1306.7</ele>
        <time>2021-09-01T12:18:22Z</time>
      </trkpt>
      <trkpt lat="44.84826" lon="5.35067">
        <ele>1306.7</ele>
        <time>2021-09-01T12:18:23Z</time>
      </trkpt>
      <trkpt lat="44.84822" lon="5.3507">
        <ele>1306.9</ele>
        <time>2021-09-01T12:18:25Z</time>
      </trkpt>
      <trkpt lat="44.8482" lon="5.35071">
        <ele>1307</ele>
        <time>2021-09-01T12:18:26Z</time>
      </trkpt>
      <trkpt lat="44.84815" lon="5.35073">
        <ele>1307.2</ele>
        <time>2021-09-01T12:18:27Z</time>
      </trkpt>
      <trkpt lat="44.84811" lon="5.35073">
        <ele>1307.4</ele>
        <time>2021-09-01T12:18:28Z</time>
      </trkpt>
      <trkpt lat="44.84809" lon="5.35073">
        <ele>1307.5</ele>
        <time>2021-09-01T12:18:29Z</time>
      </trkpt>
      <trkpt lat="44.84806" lon="5.35072">
        <ele>1307.7</ele>
        <time>2021-09-01T12:18:31Z</time>
      </trkpt>
      <trkpt lat="44.84803" lon="5.3507">
        <ele>1307.8</ele>
        <time>2021-09-01T12:18:32Z</time>
      </trkpt>
      <trkpt lat="44.84798" lon="5.35066">
        <ele>1308.2</ele>
        <time>2021-09-01T12:18:33Z</time>
      </trkpt>
      <trkpt lat="44.84794" lon="5.35063">
        <ele>1308.4</ele>
        <time>2021-09-01T12:18:35Z</time>
      </trkpt>
      <trkpt lat="44.84793" lon="5.35063">
        <ele>1308.5</ele>
        <time>2021-09-01T12:18:37Z</time>
      </trkpt>
      <trkpt lat="44.84794" lon="5.35062">
        <ele>1308.6</ele>
        <time>2021-09-01T12:18:38Z</time>
      </trkpt>
      <trkpt lat="44.84796" lon="5.35061">
        <ele>1308.8</ele>
        <time>2021-09-01T12:18:40Z</time>
      </trkpt>
      <trkpt lat="44.84796" lon="5.35061">
        <ele>1308.8</ele>
        <time>2021-09-01T12:18:41Z</time>
      </trkpt>
      <trkpt lat="44.84796" lon="5.35061">
        <ele>1308.8</ele>
        <time>2021-09-01T12:18:42Z</time>
      </trkpt>
      <trkpt lat="44.84796" lon="5.35061">
        <ele>1308.8</ele>
        <time>2021-09-01T12:18:44Z</time>
      </trkpt>
      <trkpt lat="44.84796" lon="5.35061">
        <ele>1308.8</ele>
        <time>2021-09-01T12:18:45Z</time>
      </trkpt>
      <trkpt lat="44.84796" lon="5.3506">
        <ele>1308.8</ele>
        <time>2021-09-01T12:18:47Z</time>
      </trkpt>
      <trkpt lat="44.84795" lon="5.3506">
        <ele>1308.8</ele>
        <time>2021-09-01T12:18:48Z</time>
      </trkpt>
      <trkpt lat="44.84795" lon="5.35059">
        <ele>1308.9</ele>
        <time>2021-09-01T12:18:50Z</time>
      </trkpt>
      <trkpt lat="44.84795" lon="5.35059">
        <ele>1308.9</ele>
        <time>2021-09-01T12:18:52Z</time>
      </trkpt>
      <trkpt lat="44.84762" lon="5.3504">
        <ele>1310.7</ele>
        <time>2021-09-01T12:20:36Z</time>
      </trkpt>
      <trkpt lat="44.84756" lon="5.35039">
        <ele>1311</ele>
        <time>2021-09-01T12:20:38Z</time>
      </trkpt>
      <trkpt lat="44.84754" lon="5.35038">
        <ele>1311.1</ele>
        <time>2021-09-01T12:20:39Z</time>
      </trkpt>
      <trkpt lat="44.84753" lon="5.35038">
        <ele>1311.1</ele>
        <time>2021-09-01T12:20:40Z</time>
      </trkpt>
      <trkpt lat="44.84749" lon="5.3504">
        <ele>1311.3</ele>
        <time>2021-09-01T12:20:41Z</time>
      </trkpt>
      <trkpt lat="44.84745" lon="5.35041">
        <ele>1311.5</ele>
        <time>2021-09-01T12:20:43Z</time>
      </trkpt>
      <trkpt lat="44.84741" lon="5.35042">
        <ele>1311.7</ele>
        <time>2021-09-01T12:20:44Z</time>
      </trkpt>
      <trkpt lat="44.84737" lon="5.35043">
        <ele>1311.9</ele>
        <time>2021-09-01T12:20:45Z</time>
      </trkpt>
      <trkpt lat="44.84733" lon="5.35045">
        <ele>1312.1</ele>
        <time>2021-09-01T12:20:47Z</time>
      </trkpt>
      <trkpt lat="44.84729" lon="5.35046">
        <ele>1312.2</ele>
        <time>2021-09-01T12:20:48Z</time>
      </trkpt>
      <trkpt lat="44.84724" lon="5.35047">
        <ele>1312.3</ele>
        <time>2021-09-01T12:21:21Z</time>
      </trkpt>
      <trkpt lat="44.8472" lon="5.35049">
        <ele>1312.5</ele>
        <time>2021-09-01T12:21:22Z</time>
      </trkpt>
      <trkpt lat="44.84716" lon="5.3505">
        <ele>1312.6</ele>
        <time>2021-09-01T12:21:23Z</time>
      </trkpt>
      <trkpt lat="44.84713" lon="5.35048">
        <ele>1312.7</ele>
        <time>2021-09-01T12:21:24Z</time>
      </trkpt>
      <trkpt lat="44.84712" lon="5.35048">
        <ele>1312.7</ele>
        <time>2021-09-01T12:21:25Z</time>
      </trkpt>
      <trkpt lat="44.8471" lon="5.35047">
        <ele>1312.8</ele>
        <time>2021-09-01T12:21:26Z</time>
      </trkpt>
      <trkpt lat="44.8471" lon="5.35047">
        <ele>1312.8</ele>
        <time>2021-09-01T12:21:27Z</time>
      </trkpt>
      <trkpt lat="44.84709" lon="5.35048">
        <ele>1312.8</ele>
        <time>2021-09-01T12:21:29Z</time>
      </trkpt>
      <trkpt lat="44.84709" lon="5.35048">
        <ele>1312.8</ele>
        <time>2021-09-01T12:21:30Z</time>
      </trkpt>
      <trkpt lat="44.84707" lon="5.35047">
        <ele>1312.9</ele>
        <time>2021-09-01T12:21:31Z</time>
      </trkpt>
      <trkpt lat="44.84704" lon="5.35044">
        <ele>1313</ele>
        <time>2021-09-01T12:21:33Z</time>
      </trkpt>
      <trkpt lat="44.84703" lon="5.35041">
        <ele>1313.1</ele>
        <time>2021-09-01T12:21:34Z</time>
      </trkpt>
      <trkpt lat="44.84702" lon="5.35039">
        <ele>1313.2</ele>
        <time>2021-09-01T12:21:35Z</time>
      </trkpt>
      <trkpt lat="44.84702" lon="5.35039">
        <ele>1313.2</ele>
        <time>2021-09-01T12:21:36Z</time>
      </trkpt>
      <trkpt lat="44.84701" lon="5.35038">
        <ele>1313.2</ele>
        <time>2021-09-01T12:21:38Z</time>
      </trkpt>
      <trkpt lat="44.84701" lon="5.35038">
        <ele>1313.2</ele>
        <time>2021-09-01T12:21:39Z</time>
      </trkpt>
      <trkpt lat="44.84701" lon="5.35039">
        <ele>1313.2</ele>
        <time>2021-09-01T12:21:40Z</time>
      </trkpt>
      <trkpt lat="44.84701" lon="5.35039">
        <ele>1313.2</ele>
        <time>2021-09-01T12:21:42Z</time>
      </trkpt>
      <trkpt lat="44.84701" lon="5.35038">
        <ele>1313.2</ele>
        <time>2021-09-01T12:21:43Z</time>
      </trkpt>
      <trkpt lat="44.847" lon="5.35038">
        <ele>1313.3</ele>
        <time>2021-09-01T12:21:44Z</time>
      </trkpt>
      <trkpt lat="44.84699" lon="5.35038">
        <ele>1313.3</ele>
        <time>2021-09-01T12:21:46Z</time>
      </trkpt>
      <trkpt lat="44.84697" lon="5.35037">
        <ele>1313.4</ele>
        <time>2021-09-01T12:21:47Z</time>
      </trkpt>
      <trkpt lat="44.84694" lon="5.35037">
        <ele>1313.5</ele>
        <time>2021-09-01T12:21:49Z</time>
      </trkpt>
      <trkpt lat="44.84655" lon="5.35021">
        <ele>1315.2</ele>
        <time>2021-09-01T12:22:10Z</time>
      </trkpt>
      <trkpt lat="44.84651" lon="5.3502">
        <ele>1315.3</ele>
        <time>2021-09-01T12:22:12Z</time>
      </trkpt>
      <trkpt lat="44.84647" lon="5.35017">
        <ele>1315.4</ele>
        <time>2021-09-01T12:22:13Z</time>
      </trkpt>
      <trkpt lat="44.84644" lon="5.35015">
        <ele>1315.5</ele>
        <time>2021-09-01T12:22:14Z</time>
      </trkpt>
      <trkpt lat="44.84642" lon="5.35015">
        <ele>1315.5</ele>
        <time>2021-09-01T12:22:15Z</time>
      </trkpt>
      <trkpt lat="44.84639" lon="5.35019">
        <ele>1315.6</ele>
        <time>2021-09-01T12:22:17Z</time>
      </trkpt>
      <trkpt lat="44.84636" lon="5.35023">
        <ele>1315.7</ele>
        <time>2021-09-01T12:22:19Z</time>
      </trkpt>
      <trkpt lat="44.84634" lon="5.35027">
        <ele>1315.9</ele>
        <time>2021-09-01T12:22:20Z</time>
      </trkpt>
      <trkpt lat="44.84632" lon="5.35029">
        <ele>1315.9</ele>
        <time>2021-09-01T12:22:21Z</time>
      </trkpt>
      <trkpt lat="44.84628" lon="5.35032">
        <ele>1316.1</ele>
        <time>2021-09-01T12:22:23Z</time>
      </trkpt>
      <trkpt lat="44.84627" lon="5.35033">
        <ele>1316.1</ele>
        <time>2021-09-01T12:22:25Z</time>
      </trkpt>
      <trkpt lat="44.84626" lon="5.35034">
        <ele>1316.2</ele>
        <time>2021-09-01T12:22:26Z</time>
      </trkpt>
      <trkpt lat="44.84623" lon="5.35035">
        <ele>1316.3</ele>
        <time>2021-09-01T12:22:27Z</time>
      </trkpt>
      <trkpt lat="44.8462" lon="5.35034">
        <ele>1316.4</ele>
        <time>2021-09-01T12:22:29Z</time>
      </trkpt>
      <trkpt lat="44.84617" lon="5.35035">
        <ele>1316.4</ele>
        <time>2021-09-01T12:22:30Z</time>
      </trkpt>
      <trkpt lat="44.84616" lon="5.35036">
        <ele>1316.5</ele>
        <time>2021-09-01T12:22:31Z</time>
      </trkpt>
      <trkpt lat="44.84615" lon="5.35039">
        <ele>1316.6</ele>
        <time>2021-09-01T12:22:33Z</time>
      </trkpt>
      <trkpt lat="44.84615" lon="5.35039">
        <ele>1316.6</ele>
        <time>2021-09-01T12:22:34Z</time>
      </trkpt>
      <trkpt lat="44.84615" lon="5.35041">
        <ele>1316.6</ele>
        <time>2021-09-01T12:22:35Z</time>
      </trkpt>
      <trkpt lat="44.84614" lon="5.35044">
        <ele>1316.7</ele>
        <time>2021-09-01T12:22:37Z</time>
      </trkpt>
      <trkpt lat="44.84613" lon="5.35043">
        <ele>1316.7</ele>
        <time>2021-09-01T12:22:39Z</time>
      </trkpt>
      <trkpt lat="44.84613" lon="5.35043">
        <ele>1316.7</ele>
        <time>2021-09-01T12:22:40Z</time>
      </trkpt>
      <trkpt lat="44.84612" lon="5.35042">
        <ele>1316.8</ele>
        <time>2021-09-01T12:22:42Z</time>
      </trkpt>
      <trkpt lat="44.84612" lon="5.35041">
        <ele>1316.8</ele>
        <time>2021-09-01T12:22:43Z</time>
      </trkpt>
      <trkpt lat="44.84611" lon="5.3504">
        <ele>1316.8</ele>
        <time>2021-09-01T12:22:44Z</time>
      </trkpt>
      <trkpt lat="44.8461" lon="5.35039">
        <ele>1316.8</ele>
        <time>2021-09-01T12:22:45Z</time>
      </trkpt>
      <trkpt lat="44.84566" lon="5.35004">
        <ele>1319</ele>
        <time>2021-09-01T12:23:20Z</time>
      </trkpt>
      <trkpt lat="44.84563" lon="5.35003">
        <ele>1319.2</ele>
        <time>2021-09-01T12:23:21Z</time>
      </trkpt>
      <trkpt lat="44.84556" lon="5.35002">
        <ele>1319.5</ele>
        <time>2021-09-01T12:23:23Z</time>
      </trkpt>
      <trkpt lat="44.84552" lon="5.35002">
        <ele>1319.7</ele>
        <time>2021-09-01T12:23:24Z</time>
      </trkpt>
      <trkpt lat="44.84548" lon="5.35001">
        <ele>1320</ele>
        <time>2021-09-01T12:23:25Z</time>
      </trkpt>
      <trkpt lat="44.84541" lon="5.35">
        <ele>1320.4</ele>
        <time>2021-09-01T12:23:26Z</time>
      </trkpt>
      <trkpt lat="44.84536" lon="5.35">
        <ele>1320.7</ele>
        <time>2021-09-01T12:23:28Z</time>
      </trkpt>
      <trkpt lat="44.84536" lon="5.35">
        <ele>1320.7</ele>
        <time>2021-09-01T12:23:29Z</time>
      </trkpt>
      <trkpt lat="44.84535" lon="5.35">
        <ele>1320.8</ele>
        <time>2021-09-01T12:23:30Z</time>
      </trkpt>
      <trkpt lat="44.84534" lon="5.35">
        <ele>1320.8</ele>
        <time>2021-09-01T12:23:31Z</time>
      </trkpt>
      <trkpt lat="44.84533" lon="5.35">
        <ele>1320.9</ele>
        <time>2021-09-01T12:23:33Z</time>
      </trkpt>
      <trkpt lat="44.84533" lon="5.35">
        <ele>1320.9</ele>
        <time>2021-09-01T12:23:34Z</time>
      </trkpt>
      <trkpt lat="44.84532" lon="5.34999">
        <ele>1321</ele>
        <time>2021-09-01T12:23:35Z</time>
      </trkpt>
      <trkpt lat="44.84531" lon="5.34999">
        <ele>1321</ele>
        <time>2021-09-01T12:23:36Z</time>
      </trkpt>
      <trkpt lat="44.8453" lon="5.34999">
        <ele>1321.1</ele>
        <time>2021-09-01T12:23:38Z</time>
      </trkpt>
      <trkpt lat="44.84418" lon="5.35034">
        <ele>1328.4</ele>
        <time>2021-09-01T12:24:55Z</time>
      </trkpt>
      <trkpt lat="44.84415" lon="5.35034">
        <ele>1328.6</ele>
        <time>2021-09-01T12:24:56Z</time>
      </trkpt>
      <trkpt lat="44.84413" lon="5.35033">
        <ele>1328.8</ele>
        <time>2021-09-01T12:24:58Z</time>
      </trkpt>
      <trkpt lat="44.84411" lon="5.35032">
        <ele>1329</ele>
        <time>2021-09-01T12:25:00Z</time>
      </trkpt>
      <trkpt lat="44.8441" lon="5.35032">
        <ele>1329</ele>
        <time>2021-09-01T12:25:01Z</time>
      </trkpt>
      <trkpt lat="44.84408" lon="5.35032">
        <ele>1329.1</ele>
        <time>2021-09-01T12:25:02Z</time>
      </trkpt>
      <trkpt lat="44.84406" lon="5.35032">
        <ele>1329.3</ele>
        <time>2021-09-01T12:25:04Z</time>
      </trkpt>
      <trkpt lat="44.84404" lon="5.35033">
        <ele>1329.4</ele>
        <time>2021-09-01T12:25:05Z</time>
      </trkpt>
      <trkpt lat="44.84403" lon="5.35033">
        <ele>1329.5</ele>
        <time>2021-09-01T12:25:07Z</time>
      </trkpt>
      <trkpt lat="44.84402" lon="5.35034">
        <ele>1329.6</ele>
        <time>2021-09-01T12:25:08Z</time>
      </trkpt>
      <trkpt lat="44.84401" lon="5.35034">
        <ele>1329.7</ele>
        <time>2021-09-01T12:25:10Z</time>
      </trkpt>
      <trkpt lat="44.844" lon="5.35035">
        <ele>1329.7</ele>
        <time>2021-09-01T12:25:11Z</time>
      </trkpt>
      <trkpt lat="44.84396" lon="5.35032">
        <ele>1330.2</ele>
        <time>2021-09-01T12:25:13Z</time>
      </trkpt>
      <trkpt lat="44.84394" lon="5.35031">
        <ele>1330.3</ele>
        <time>2021-09-01T12:25:14Z</time>
      </trkpt>
      <trkpt lat="44.84392" lon="5.3503">
        <ele>1330.5</ele>
        <time>2021-09-01T12:25:15Z</time>
      </trkpt>
      <trkpt lat="44.84391" lon="5.3503">
        <ele>1330.6</ele>
        <time>2021-09-01T12:25:17Z</time>
      </trkpt>
      <trkpt lat="44.84389" lon="5.3503">
        <ele>1330.8</ele>
        <time>2021-09-01T12:25:18Z</time>
      </trkpt>
      <trkpt lat="44.84387" lon="5.3503">
        <ele>1331</ele>
        <time>2021-09-01T12:25:20Z</time>
      </trkpt>
      <trkpt lat="44.84386" lon="5.3503">
        <ele>1331.1</ele>
        <time>2021-09-01T12:25:21Z</time>
      </trkpt>
      <trkpt lat="44.84385" lon="5.3503">
        <ele>1331.1</ele>
        <time>2021-09-01T12:25:23Z</time>
      </trkpt>
      <trkpt lat="44.84384" lon="5.3503">
        <ele>1331.2</ele>
        <time>2021-09-01T12:25:24Z</time>
      </trkpt>
      <trkpt lat="44.84383" lon="5.3503">
        <ele>1331.3</ele>
        <time>2021-09-01T12:25:25Z</time>
      </trkpt>
      <trkpt lat="44.84382" lon="5.3503">
        <ele>1331.4</ele>
        <time>2021-09-01T12:25:26Z</time>
      </trkpt>
      <trkpt lat="44.8438" lon="5.3503">
        <ele>1331.6</ele>
        <time>2021-09-01T12:25:27Z</time>
      </trkpt>
      <trkpt lat="44.84378" lon="5.35029">
        <ele>1331.8</ele>
        <time>2021-09-01T12:25:29Z</time>
      </trkpt>
      <trkpt lat="44.84375" lon="5.35028">
        <ele>1332.1</ele>
        <time>2021-09-01T12:25:30Z</time>
      </trkpt>
      <trkpt lat="44.84374" lon="5.35028">
        <ele>1332.2</ele>
        <time>2021-09-01T12:25:31Z</time>
      </trkpt>
      <trkpt lat="44.84371" lon="5.35027">
        <ele>1332.4</ele>
        <time>2021-09-01T12:25:32Z</time>
      </trkpt>
      <trkpt lat="44.8437" lon="5.35027">
        <ele>1332.6</ele>
        <time>2021-09-01T12:25:34Z</time>
      </trkpt>
      <trkpt lat="44.84368" lon="5.35027">
        <ele>1332.7</ele>
        <time>2021-09-01T12:25:35Z</time>
      </trkpt>
      <trkpt lat="44.84366" lon="5.35027">
        <ele>1332.8</ele>
        <time>2021-09-01T12:25:36Z</time>
      </trkpt>
      <trkpt lat="44.84365" lon="5.35027">
        <ele>1333</ele>
        <time>2021-09-01T12:25:37Z</time>
      </trkpt>
      <trkpt lat="44.84364" lon="5.35027">
        <ele>1333</ele>
        <time>2021-09-01T12:25:38Z</time>
      </trkpt>
      <trkpt lat="44.84363" lon="5.35027">
        <ele>1333.1</ele>
        <time>2021-09-01T12:25:40Z</time>
      </trkpt>
      <trkpt lat="44.84363" lon="5.35027">
        <ele>1333.1</ele>
        <time>2021-09-01T12:25:41Z</time>
      </trkpt>
      <trkpt lat="44.84362" lon="5.35026">
        <ele>1333.2</ele>
        <time>2021-09-01T12:25:42Z</time>
      </trkpt>
      <trkpt lat="44.84362" lon="5.35026">
        <ele>1333.2</ele>
        <time>2021-09-01T12:25:43Z</time>
      </trkpt>
      <trkpt lat="44.84362" lon="5.35026">
        <ele>1333.2</ele>
        <time>2021-09-01T12:25:44Z</time>
      </trkpt>
      <trkpt lat="44.84361" lon="5.35026">
        <ele>1333.2</ele>
        <time>2021-09-01T12:25:46Z</time>
      </trkpt>
      <trkpt lat="44.8436" lon="5.35026">
        <ele>1333.3</ele>
        <time>2021-09-01T12:25:47Z</time>
      </trkpt>
      <trkpt lat="44.84358" lon="5.35026">
        <ele>1333.5</ele>
        <time>2021-09-01T12:25:48Z</time>
      </trkpt>
      <trkpt lat="44.84356" lon="5.35027">
        <ele>1333.6</ele>
        <time>2021-09-01T12:25:50Z</time>
      </trkpt>
      <trkpt lat="44.84354" lon="5.35029">
        <ele>1333.8</ele>
        <time>2021-09-01T12:25:51Z</time>
      </trkpt>
      <trkpt lat="44.84353" lon="5.3503">
        <ele>1333.8</ele>
        <time>2021-09-01T12:25:52Z</time>
      </trkpt>
      <trkpt lat="44.84351" lon="5.35031">
        <ele>1334</ele>
        <time>2021-09-01T12:25:53Z</time>
      </trkpt>
      <trkpt lat="44.84349" lon="5.35032">
        <ele>1334.1</ele>
        <time>2021-09-01T12:25:55Z</time>
      </trkpt>
      <trkpt lat="44.84348" lon="5.35033">
        <ele>1334.2</ele>
        <time>2021-09-01T12:25:56Z</time>
      </trkpt>
      <trkpt lat="44.84347" lon="5.35034">
        <ele>1334.3</ele>
        <time>2021-09-01T12:25:57Z</time>
      </trkpt>
      <trkpt lat="44.84345" lon="5.35035">
        <ele>1334.4</ele>
        <time>2021-09-01T12:25:58Z</time>
      </trkpt>
      <trkpt lat="44.84345" lon="5.35036">
        <ele>1334.4</ele>
        <time>2021-09-01T12:26:00Z</time>
      </trkpt>
      <trkpt lat="44.84344" lon="5.35037">
        <ele>1334.5</ele>
        <time>2021-09-01T12:26:02Z</time>
      </trkpt>
      <trkpt lat="44.84343" lon="5.35038">
        <ele>1334.6</ele>
        <time>2021-09-01T12:26:03Z</time>
      </trkpt>
      <trkpt lat="44.84342" lon="5.35039">
        <ele>1334.7</ele>
        <time>2021-09-01T12:26:04Z</time>
      </trkpt>
      <trkpt lat="44.84341" lon="5.35039">
        <ele>1334.7</ele>
        <time>2021-09-01T12:26:05Z</time>
      </trkpt>
      <trkpt lat="44.8434" lon="5.35039">
        <ele>1334.8</ele>
        <time>2021-09-01T12:26:07Z</time>
      </trkpt>
      <trkpt lat="44.84338" lon="5.35039">
        <ele>1334.9</ele>
        <time>2021-09-01T12:26:08Z</time>
      </trkpt>
      <trkpt lat="44.84337" lon="5.35039">
        <ele>1334.9</ele>
        <time>2021-09-01T12:26:09Z</time>
      </trkpt>
      <trkpt lat="44.84336" lon="5.3504">
        <ele>1335.1</ele>
        <time>2021-09-01T12:26:10Z</time>
      </trkpt>
      <trkpt lat="44.84335" lon="5.3504">
        <ele>1335.1</ele>
        <time>2021-09-01T12:26:11Z</time>
      </trkpt>
      <trkpt lat="44.84334" lon="5.3504">
        <ele>1335.2</ele>
        <time>2021-09-01T12:26:13Z</time>
      </trkpt>
      <trkpt lat="44.84332" lon="5.35041">
        <ele>1335.3</ele>
        <time>2021-09-01T12:26:14Z</time>
      </trkpt>
      <trkpt lat="44.84331" lon="5.35041">
        <ele>1335.3</ele>
        <time>2021-09-01T12:26:15Z</time>
      </trkpt>
      <trkpt lat="44.8433" lon="5.35042">
        <ele>1335.4</ele>
        <time>2021-09-01T12:26:16Z</time>
      </trkpt>
      <trkpt lat="44.84329" lon="5.35042">
        <ele>1335.5</ele>
        <time>2021-09-01T12:26:18Z</time>
      </trkpt>
      <trkpt lat="44.84328" lon="5.35043">
        <ele>1335.6</ele>
        <time>2021-09-01T12:26:19Z</time>
      </trkpt>
      <trkpt lat="44.84327" lon="5.35044">
        <ele>1335.7</ele>
        <time>2021-09-01T12:26:20Z</time>
      </trkpt>
      <trkpt lat="44.84326" lon="5.35045">
        <ele>1335.8</ele>
        <time>2021-09-01T12:26:21Z</time>
      </trkpt>
      <trkpt lat="44.84325" lon="5.35045">
        <ele>1335.8</ele>
        <time>2021-09-01T12:26:23Z</time>
      </trkpt>
      <trkpt lat="44.84325" lon="5.35046">
        <ele>1335.9</ele>
        <time>2021-09-01T12:26:24Z</time>
      </trkpt>
      <trkpt lat="44.84324" lon="5.35046">
        <ele>1335.9</ele>
        <time>2021-09-01T12:26:25Z</time>
      </trkpt>
      <trkpt lat="44.84324" lon="5.35046">
        <ele>1335.9</ele>
        <time>2021-09-01T12:26:27Z</time>
      </trkpt>
      <trkpt lat="44.84324" lon="5.35046">
        <ele>1335.9</ele>
        <time>2021-09-01T12:26:28Z</time>
      </trkpt>
      <trkpt lat="44.84324" lon="5.35046">
        <ele>1335.9</ele>
        <time>2021-09-01T12:26:29Z</time>
      </trkpt>
      <trkpt lat="44.84324" lon="5.35046">
        <ele>1336</ele>
        <time>2021-09-01T12:26:30Z</time>
      </trkpt>
      <trkpt lat="44.84324" lon="5.35047">
        <ele>1336</ele>
        <time>2021-09-01T12:26:32Z</time>
      </trkpt>
      <trkpt lat="44.84324" lon="5.35047">
        <ele>1336</ele>
        <time>2021-09-01T12:26:33Z</time>
      </trkpt>
      <trkpt lat="44.84323" lon="5.35047">
        <ele>1336</ele>
        <time>2021-09-01T12:26:35Z</time>
      </trkpt>
      <trkpt lat="44.84322" lon="5.35048">
        <ele>1336.1</ele>
        <time>2021-09-01T12:26:36Z</time>
      </trkpt>
      <trkpt lat="44.84319" lon="5.3505">
        <ele>1336.4</ele>
        <time>2021-09-01T12:26:38Z</time>
      </trkpt>
      <trkpt lat="44.84318" lon="5.35051">
        <ele>1336.5</ele>
        <time>2021-09-01T12:26:39Z</time>
      </trkpt>
      <trkpt lat="44.84317" lon="5.35052">
        <ele>1336.6</ele>
        <time>2021-09-01T12:26:40Z</time>
      </trkpt>
      <trkpt lat="44.84316" lon="5.35052">
        <ele>1336.6</ele>
        <time>2021-09-01T12:26:42Z</time>
      </trkpt>
      <trkpt lat="44.84316" lon="5.35052">
        <ele>1336.7</ele>
        <time>2021-09-01T12:26:43Z</time>
      </trkpt>
      <trkpt lat="44.84315" lon="5.35053">
        <ele>1336.7</ele>
        <time>2021-09-01T12:26:44Z</time>
      </trkpt>
      <trkpt lat="44.84315" lon="5.35053">
        <ele>1336.8</ele>
        <time>2021-09-01T12:26:46Z</time>
      </trkpt>
      <trkpt lat="44.84315" lon="5.35053">
        <ele>1336.8</ele>
        <time>2021-09-01T12:26:47Z</time>
      </trkpt>
      <trkpt lat="44.84315" lon="5.35053">
        <ele>1336.8</ele>
        <time>2021-09-01T12:26:48Z</time>
      </trkpt>
      <trkpt lat="44.84315" lon="5.35054">
        <ele>1336.8</ele>
        <time>2021-09-01T12:26:49Z</time>
      </trkpt>
      <trkpt lat="44.84315" lon="5.35054">
        <ele>1336.8</ele>
        <time>2021-09-01T12:26:51Z</time>
      </trkpt>
      <trkpt lat="44.84315" lon="5.35054">
        <ele>1336.8</ele>
        <time>2021-09-01T12:26:52Z</time>
      </trkpt>
      <trkpt lat="44.84314" lon="5.35054">
        <ele>1336.9</ele>
        <time>2021-09-01T12:26:53Z</time>
      </trkpt>
      <trkpt lat="44.84314" lon="5.35054">
        <ele>1336.9</ele>
        <time>2021-09-01T12:26:55Z</time>
      </trkpt>
      <trkpt lat="44.84312" lon="5.35053">
        <ele>1337.1</ele>
        <time>2021-09-01T12:26:56Z</time>
      </trkpt>
      <trkpt lat="44.84309" lon="5.35052">
        <ele>1337.4</ele>
        <time>2021-09-01T12:26:57Z</time>
      </trkpt>
      <trkpt lat="44.84305" lon="5.3505">
        <ele>1337.8</ele>
        <time>2021-09-01T12:26:58Z</time>
      </trkpt>
      <trkpt lat="44.84304" lon="5.35049">
        <ele>1338</ele>
        <time>2021-09-01T12:27:00Z</time>
      </trkpt>
      <trkpt lat="44.84303" lon="5.35049">
        <ele>1338.1</ele>
        <time>2021-09-01T12:27:01Z</time>
      </trkpt>
      <trkpt lat="44.84301" lon="5.35048">
        <ele>1338.4</ele>
        <time>2021-09-01T12:27:02Z</time>
      </trkpt>
      <trkpt lat="44.843" lon="5.35048">
        <ele>1338.5</ele>
        <time>2021-09-01T12:27:04Z</time>
      </trkpt>
      <trkpt lat="44.84299" lon="5.35048">
        <ele>1338.6</ele>
        <time>2021-09-01T12:27:05Z</time>
      </trkpt>
      <trkpt lat="44.84298" lon="5.35048">
        <ele>1338.7</ele>
        <time>2021-09-01T12:27:06Z</time>
      </trkpt>
      <trkpt lat="44.84294" lon="5.35047">
        <ele>1339.2</ele>
        <time>2021-09-01T12:27:08Z</time>
      </trkpt>
      <trkpt lat="44.84293" lon="5.35047">
        <ele>1339.4</ele>
        <time>2021-09-01T12:27:09Z</time>
      </trkpt>
      <trkpt lat="44.84291" lon="5.35047">
        <ele>1339.5</ele>
        <time>2021-09-01T12:27:11Z</time>
      </trkpt>
      <trkpt lat="44.8429" lon="5.35047">
        <ele>1339.7</ele>
        <time>2021-09-01T12:27:12Z</time>
      </trkpt>
      <trkpt lat="44.84289" lon="5.35047">
        <ele>1339.9</ele>
        <time>2021-09-01T12:27:13Z</time>
      </trkpt>
      <trkpt lat="44.84288" lon="5.35047">
        <ele>1340</ele>
        <time>2021-09-01T12:27:15Z</time>
      </trkpt>
      <trkpt lat="44.84287" lon="5.35047">
        <ele>1340</ele>
        <time>2021-09-01T12:27:17Z</time>
      </trkpt>
      <trkpt lat="44.84287" lon="5.35047">
        <ele>1340.1</ele>
        <time>2021-09-01T12:27:18Z</time>
      </trkpt>
      <trkpt lat="44.84286" lon="5.35047">
        <ele>1340.1</ele>
        <time>2021-09-01T12:27:19Z</time>
      </trkpt>
      <trkpt lat="44.84286" lon="5.35047">
        <ele>1340.1</ele>
        <time>2021-09-01T12:27:21Z</time>
      </trkpt>
      <trkpt lat="44.84286" lon="5.35047">
        <ele>1340.2</ele>
        <time>2021-09-01T12:27:22Z</time>
      </trkpt>
      <trkpt lat="44.84285" lon="5.35046">
        <ele>1340.3</ele>
        <time>2021-09-01T12:27:23Z</time>
      </trkpt>
      <trkpt lat="44.84284" lon="5.35045">
        <ele>1340.5</ele>
        <time>2021-09-01T12:27:25Z</time>
      </trkpt>
      <trkpt lat="44.84281" lon="5.35044">
        <ele>1340.7</ele>
        <time>2021-09-01T12:27:26Z</time>
      </trkpt>
      <trkpt lat="44.84277" lon="5.35042">
        <ele>1341.1</ele>
        <time>2021-09-01T12:27:27Z</time>
      </trkpt>
      <trkpt lat="44.84275" lon="5.35042">
        <ele>1341.3</ele>
        <time>2021-09-01T12:27:28Z</time>
      </trkpt>
      <trkpt lat="44.84272" lon="5.35041">
        <ele>1341.6</ele>
        <time>2021-09-01T12:27:30Z</time>
      </trkpt>
      <trkpt lat="44.84271" lon="5.35041">
        <ele>1341.7</ele>
        <time>2021-09-01T12:27:31Z</time>
      </trkpt>
      <trkpt lat="44.84269" lon="5.35041">
        <ele>1341.9</ele>
        <time>2021-09-01T12:27:32Z</time>
      </trkpt>
      <trkpt lat="44.84267" lon="5.35041">
        <ele>1342.2</ele>
        <time>2021-09-01T12:27:34Z</time>
      </trkpt>
      <trkpt lat="44.84265" lon="5.35041">
        <ele>1342.3</ele>
        <time>2021-09-01T12:27:35Z</time>
      </trkpt>
      <trkpt lat="44.84265" lon="5.35041">
        <ele>1342.4</ele>
        <time>2021-09-01T12:27:37Z</time>
      </trkpt>
      <trkpt lat="44.84264" lon="5.35041">
        <ele>1342.4</ele>
        <time>2021-09-01T12:27:38Z</time>
      </trkpt>
      <trkpt lat="44.84264" lon="5.35041">
        <ele>1342.5</ele>
        <time>2021-09-01T12:27:39Z</time>
      </trkpt>
      <trkpt lat="44.84263" lon="5.35041">
        <ele>1342.5</ele>
        <time>2021-09-01T12:27:40Z</time>
      </trkpt>
      <trkpt lat="44.84263" lon="5.3504">
        <ele>1342.5</ele>
        <time>2021-09-01T12:27:42Z</time>
      </trkpt>
      <trkpt lat="44.84263" lon="5.3504">
        <ele>1342.6</ele>
        <time>2021-09-01T12:27:43Z</time>
      </trkpt>
      <trkpt lat="44.84262" lon="5.35041">
        <ele>1342.6</ele>
        <time>2021-09-01T12:27:44Z</time>
      </trkpt>
      <trkpt lat="44.84261" lon="5.35042">
        <ele>1342.8</ele>
        <time>2021-09-01T12:27:46Z</time>
      </trkpt>
      <trkpt lat="44.84259" lon="5.35042">
        <ele>1343</ele>
        <time>2021-09-01T12:27:47Z</time>
      </trkpt>
      <trkpt lat="44.84257" lon="5.35042">
        <ele>1343.2</ele>
        <time>2021-09-01T12:27:49Z</time>
      </trkpt>
      <trkpt lat="44.84253" lon="5.35042">
        <ele>1343.5</ele>
        <time>2021-09-01T12:27:50Z</time>
      </trkpt>
      <trkpt lat="44.84251" lon="5.35041">
        <ele>1343.7</ele>
        <time>2021-09-01T12:27:52Z</time>
      </trkpt>
      <trkpt lat="44.84249" lon="5.3504">
        <ele>1343.9</ele>
        <time>2021-09-01T12:27:53Z</time>
      </trkpt>
      <trkpt lat="44.84245" lon="5.3504">
        <ele>1344.2</ele>
        <time>2021-09-01T12:27:54Z</time>
      </trkpt>
      <trkpt lat="44.84244" lon="5.3504">
        <ele>1344.4</ele>
        <time>2021-09-01T12:27:56Z</time>
      </trkpt>
      <trkpt lat="44.84242" lon="5.3504">
        <ele>1344.5</ele>
        <time>2021-09-01T12:27:57Z</time>
      </trkpt>
      <trkpt lat="44.8424" lon="5.35042">
        <ele>1344.8</ele>
        <time>2021-09-01T12:27:59Z</time>
      </trkpt>
      <trkpt lat="44.84239" lon="5.35043">
        <ele>1344.9</ele>
        <time>2021-09-01T12:28:00Z</time>
      </trkpt>
      <trkpt lat="44.84238" lon="5.35045">
        <ele>1345.1</ele>
        <time>2021-09-01T12:28:02Z</time>
      </trkpt>
      <trkpt lat="44.84235" lon="5.35046">
        <ele>1345.3</ele>
        <time>2021-09-01T12:28:04Z</time>
      </trkpt>
      <trkpt lat="44.84233" lon="5.35046">
        <ele>1345.5</ele>
        <time>2021-09-01T12:28:05Z</time>
      </trkpt>
      <trkpt lat="44.84231" lon="5.35048">
        <ele>1345.7</ele>
        <time>2021-09-01T12:28:07Z</time>
      </trkpt>
      <trkpt lat="44.84228" lon="5.3505">
        <ele>1346</ele>
        <time>2021-09-01T12:28:09Z</time>
      </trkpt>
      <trkpt lat="44.84226" lon="5.35053">
        <ele>1346.3</ele>
        <time>2021-09-01T12:28:11Z</time>
      </trkpt>
      <trkpt lat="44.84224" lon="5.35054">
        <ele>1346.5</ele>
        <time>2021-09-01T12:28:12Z</time>
      </trkpt>
      <trkpt lat="44.84223" lon="5.35055">
        <ele>1346.5</ele>
        <time>2021-09-01T12:28:13Z</time>
      </trkpt>
      <trkpt lat="44.8422" lon="5.35056">
        <ele>1346.8</ele>
        <time>2021-09-01T12:28:15Z</time>
      </trkpt>
      <trkpt lat="44.84219" lon="5.35056">
        <ele>1346.9</ele>
        <time>2021-09-01T12:28:16Z</time>
      </trkpt>
      <trkpt lat="44.84216" lon="5.35057">
        <ele>1347.1</ele>
        <time>2021-09-01T12:28:17Z</time>
      </trkpt>
      <trkpt lat="44.84216" lon="5.35058">
        <ele>1347.2</ele>
        <time>2021-09-01T12:28:18Z</time>
      </trkpt>
      <trkpt lat="44.84214" lon="5.35058">
        <ele>1347.3</ele>
        <time>2021-09-01T12:28:20Z</time>
      </trkpt>
      <trkpt lat="44.84214" lon="5.35058">
        <ele>1347.4</ele>
        <time>2021-09-01T12:28:21Z</time>
      </trkpt>
      <trkpt lat="44.84213" lon="5.35058">
        <ele>1347.4</ele>
        <time>2021-09-01T12:28:22Z</time>
      </trkpt>
      <trkpt lat="44.84213" lon="5.35058">
        <ele>1347.5</ele>
        <time>2021-09-01T12:28:24Z</time>
      </trkpt>
      <trkpt lat="44.84212" lon="5.35058">
        <ele>1347.5</ele>
        <time>2021-09-01T12:28:25Z</time>
      </trkpt>
      <trkpt lat="44.84211" lon="5.35059">
        <ele>1347.6</ele>
        <time>2021-09-01T12:28:26Z</time>
      </trkpt>
      <trkpt lat="44.84209" lon="5.35061">
        <ele>1347.8</ele>
        <time>2021-09-01T12:28:28Z</time>
      </trkpt>
      <trkpt lat="44.84175" lon="5.35088">
        <ele>1351.4</ele>
        <time>2021-09-01T12:29:14Z</time>
      </trkpt>
      <trkpt lat="44.84172" lon="5.35088">
        <ele>1351.7</ele>
        <time>2021-09-01T12:29:15Z</time>
      </trkpt>
      <trkpt lat="44.84169" lon="5.35088">
        <ele>1352</ele>
        <time>2021-09-01T12:29:17Z</time>
      </trkpt>
      <trkpt lat="44.84166" lon="5.35088">
        <ele>1352.2</ele>
        <time>2021-09-01T12:29:18Z</time>
      </trkpt>
      <trkpt lat="44.84165" lon="5.35088">
        <ele>1352.3</ele>
        <time>2021-09-01T12:29:20Z</time>
      </trkpt>
      <trkpt lat="44.84164" lon="5.35089">
        <ele>1352.4</ele>
        <time>2021-09-01T12:29:21Z</time>
      </trkpt>
      <trkpt lat="44.84163" lon="5.35089">
        <ele>1352.4</ele>
        <time>2021-09-01T12:29:23Z</time>
      </trkpt>
      <trkpt lat="44.84162" lon="5.35089">
        <ele>1352.5</ele>
        <time>2021-09-01T12:29:24Z</time>
      </trkpt>
      <trkpt lat="44.8416" lon="5.3509">
        <ele>1352.7</ele>
        <time>2021-09-01T12:29:26Z</time>
      </trkpt>
      <trkpt lat="44.8416" lon="5.3509">
        <ele>1352.7</ele>
        <time>2021-09-01T12:29:27Z</time>
      </trkpt>
      <trkpt lat="44.84159" lon="5.3509">
        <ele>1352.7</ele>
        <time>2021-09-01T12:29:28Z</time>
      </trkpt>
      <trkpt lat="44.84159" lon="5.3509">
        <ele>1352.8</ele>
        <time>2021-09-01T12:29:30Z</time>
      </trkpt>
      <trkpt lat="44.84157" lon="5.3509">
        <ele>1352.9</ele>
        <time>2021-09-01T12:29:32Z</time>
      </trkpt>
      <trkpt lat="44.84156" lon="5.35089">
        <ele>1353</ele>
        <time>2021-09-01T12:29:33Z</time>
      </trkpt>
      <trkpt lat="44.84154" lon="5.35088">
        <ele>1353.2</ele>
        <time>2021-09-01T12:29:35Z</time>
      </trkpt>
      <trkpt lat="44.84153" lon="5.35088">
        <ele>1353.3</ele>
        <time>2021-09-01T12:29:36Z</time>
      </trkpt>
      <trkpt lat="44.84151" lon="5.35086">
        <ele>1353.5</ele>
        <time>2021-09-01T12:29:37Z</time>
      </trkpt>
      <trkpt lat="44.84149" lon="5.35084">
        <ele>1353.6</ele>
        <time>2021-09-01T12:29:38Z</time>
      </trkpt>
      <trkpt lat="44.84112" lon="5.35081">
        <ele>1356</ele>
        <time>2021-09-01T12:30:09Z</time>
      </trkpt>
      <trkpt lat="44.8411" lon="5.35083">
        <ele>1356.1</ele>
        <time>2021-09-01T12:30:10Z</time>
      </trkpt>
      <trkpt lat="44.84106" lon="5.35086">
        <ele>1356.3</ele>
        <time>2021-09-01T12:30:12Z</time>
      </trkpt>
      <trkpt lat="44.84102" lon="5.35088">
        <ele>1356.6</ele>
        <time>2021-09-01T12:30:13Z</time>
      </trkpt>
      <trkpt lat="44.84099" lon="5.35091">
        <ele>1356.7</ele>
        <time>2021-09-01T12:30:14Z</time>
      </trkpt>
      <trkpt lat="44.84097" lon="5.35094">
        <ele>1356.9</ele>
        <time>2021-09-01T12:30:15Z</time>
      </trkpt>
      <trkpt lat="44.84096" lon="5.35099">
        <ele>1357.1</ele>
        <time>2021-09-01T12:30:17Z</time>
      </trkpt>
      <trkpt lat="44.84095" lon="5.35104">
        <ele>1357.3</ele>
        <time>2021-09-01T12:30:18Z</time>
      </trkpt>
      <trkpt lat="44.84095" lon="5.35108">
        <ele>1357.4</ele>
        <time>2021-09-01T12:30:19Z</time>
      </trkpt>
      <trkpt lat="44.84095" lon="5.35114">
        <ele>1357.6</ele>
        <time>2021-09-01T12:30:21Z</time>
      </trkpt>
      <trkpt lat="44.84093" lon="5.35118">
        <ele>1357.8</ele>
        <time>2021-09-01T12:30:22Z</time>
      </trkpt>
      <trkpt lat="44.84092" lon="5.35125">
        <ele>1358</ele>
        <time>2021-09-01T12:30:24Z</time>
      </trkpt>
      <trkpt lat="44.8409" lon="5.3513">
        <ele>1358.2</ele>
        <time>2021-09-01T12:30:26Z</time>
      </trkpt>
      <trkpt lat="44.84087" lon="5.35133">
        <ele>1358.3</ele>
        <time>2021-09-01T12:30:27Z</time>
      </trkpt>
      <trkpt lat="44.84086" lon="5.35134">
        <ele>1358.4</ele>
        <time>2021-09-01T12:30:28Z</time>
      </trkpt>
      <trkpt lat="44.84085" lon="5.35138">
        <ele>1358.5</ele>
        <time>2021-09-01T12:30:30Z</time>
      </trkpt>
      <trkpt lat="44.84085" lon="5.3514">
        <ele>1358.6</ele>
        <time>2021-09-01T12:30:31Z</time>
      </trkpt>
      <trkpt lat="44.84086" lon="5.35143">
        <ele>1358.7</ele>
        <time>2021-09-01T12:30:33Z</time>
      </trkpt>
      <trkpt lat="44.84088" lon="5.35144">
        <ele>1358.7</ele>
        <time>2021-09-01T12:30:34Z</time>
      </trkpt>
      <trkpt lat="44.84088" lon="5.35146">
        <ele>1358.8</ele>
        <time>2021-09-01T12:30:35Z</time>
      </trkpt>
      <trkpt lat="44.84089" lon="5.35147">
        <ele>1358.8</ele>
        <time>2021-09-01T12:30:37Z</time>
      </trkpt>
      <trkpt lat="44.84089" lon="5.35148">
        <ele>1358.9</ele>
        <time>2021-09-01T12:30:38Z</time>
      </trkpt>
      <trkpt lat="44.8409" lon="5.3515">
        <ele>1358.9</ele>
        <time>2021-09-01T12:30:40Z</time>
      </trkpt>
      <trkpt lat="44.84091" lon="5.35151">
        <ele>1358.9</ele>
        <time>2021-09-01T12:30:41Z</time>
      </trkpt>
      <trkpt lat="44.84091" lon="5.35152">
        <ele>1359</ele>
        <time>2021-09-01T12:30:42Z</time>
      </trkpt>
      <trkpt lat="44.84092" lon="5.35153">
        <ele>1359</ele>
        <time>2021-09-01T12:30:44Z</time>
      </trkpt>
      <trkpt lat="44.84092" lon="5.35155">
        <ele>1359</ele>
        <time>2021-09-01T12:30:45Z</time>
      </trkpt>
      <trkpt lat="44.84095" lon="5.3516">
        <ele>1359.2</ele>
        <time>2021-09-01T12:30:47Z</time>
      </trkpt>
      <trkpt lat="44.84095" lon="5.3516">
        <ele>1359.2</ele>
        <time>2021-09-01T12:30:47Z</time>
      </trkpt>
      <trkpt lat="44.84098" lon="5.35164">
        <ele>1359.2</ele>
        <time>2021-09-01T12:30:49Z</time>
      </trkpt>
      <trkpt lat="44.84101" lon="5.35171">
        <ele>1359.2</ele>
        <time>2021-09-01T12:30:50Z</time>
      </trkpt>
      <trkpt lat="44.84102" lon="5.35176">
        <ele>1359.1</ele>
        <time>2021-09-01T12:30:51Z</time>
      </trkpt>
      <trkpt lat="44.84104" lon="5.35186">
        <ele>1359.1</ele>
        <time>2021-09-01T12:30:53Z</time>
      </trkpt>
      <trkpt lat="44.84106" lon="5.35197">
        <ele>1359</ele>
        <time>2021-09-01T12:30:55Z</time>
      </trkpt>
      <trkpt lat="44.84109" lon="5.35203">
        <ele>1359</ele>
        <time>2021-09-01T12:30:56Z</time>
      </trkpt>
      <trkpt lat="44.84112" lon="5.35208">
        <ele>1359</ele>
        <time>2021-09-01T12:30:57Z</time>
      </trkpt>
      <trkpt lat="44.84112" lon="5.35209">
        <ele>1359</ele>
        <time>2021-09-01T12:30:59Z</time>
      </trkpt>
      <trkpt lat="44.84112" lon="5.35208">
        <ele>1359</ele>
        <time>2021-09-01T12:31:01Z</time>
      </trkpt>
      <trkpt lat="44.84112" lon="5.35208">
        <ele>1359</ele>
        <time>2021-09-01T12:31:02Z</time>
      </trkpt>
      <trkpt lat="44.84112" lon="5.35206">
        <ele>1359</ele>
        <time>2021-09-01T12:31:03Z</time>
      </trkpt>
      <trkpt lat="44.84111" lon="5.35198">
        <ele>1359</ele>
        <time>2021-09-01T12:31:05Z</time>
      </trkpt>
      <trkpt lat="44.84111" lon="5.35193">
        <ele>1359.1</ele>
        <time>2021-09-01T12:31:06Z</time>
      </trkpt>
      <trkpt lat="44.8411" lon="5.35187">
        <ele>1359.1</ele>
        <time>2021-09-01T12:31:07Z</time>
      </trkpt>
      <trkpt lat="44.84109" lon="5.35183">
        <ele>1359.1</ele>
        <time>2021-09-01T12:31:08Z</time>
      </trkpt>
      <trkpt lat="44.84109" lon="5.35177">
        <ele>1359.1</ele>
        <time>2021-09-01T12:31:09Z</time>
      </trkpt>
      <trkpt lat="44.84109" lon="5.35175">
        <ele>1359.1</ele>
        <time>2021-09-01T12:31:10Z</time>
      </trkpt>
      <trkpt lat="44.84108" lon="5.35168">
        <ele>1359.2</ele>
        <time>2021-09-01T12:31:12Z</time>
      </trkpt>
      <trkpt lat="44.84107" lon="5.35163">
        <ele>1359.2</ele>
        <time>2021-09-01T12:31:13Z</time>
      </trkpt>
      <trkpt lat="44.84105" lon="5.35157">
        <ele>1359.2</ele>
        <time>2021-09-01T12:31:15Z</time>
      </trkpt>
      <trkpt lat="44.84104" lon="5.35154">
        <ele>1359.2</ele>
        <time>2021-09-01T12:31:16Z</time>
      </trkpt>
      <trkpt lat="44.84102" lon="5.35151">
        <ele>1359.2</ele>
        <time>2021-09-01T12:31:17Z</time>
      </trkpt>
      <trkpt lat="44.84098" lon="5.35146">
        <ele>1359.2</ele>
        <time>2021-09-01T12:31:19Z</time>
      </trkpt>
      <trkpt lat="44.84095" lon="5.35142">
        <ele>1359.3</ele>
        <time>2021-09-01T12:31:20Z</time>
      </trkpt>
      <trkpt lat="44.84093" lon="5.35138">
        <ele>1359.3</ele>
        <time>2021-09-01T12:31:21Z</time>
      </trkpt>
      <trkpt lat="44.84088" lon="5.35133">
        <ele>1359.3</ele>
        <time>2021-09-01T12:31:23Z</time>
      </trkpt>
      <trkpt lat="44.84086" lon="5.3513">
        <ele>1359.4</ele>
        <time>2021-09-01T12:31:24Z</time>
      </trkpt>
      <trkpt lat="44.84083" lon="5.35127">
        <ele>1359.5</ele>
        <time>2021-09-01T12:31:26Z</time>
      </trkpt>
      <trkpt lat="44.84083" lon="5.35127">
        <ele>1359.4</ele>
        <time>2021-09-01T12:31:27Z</time>
      </trkpt>
      <trkpt lat="44.84077" lon="5.35126">
        <ele>1359.9</ele>
        <time>2021-09-01T12:31:28Z</time>
      </trkpt>
      <trkpt lat="44.84071" lon="5.35125">
        <ele>1360.3</ele>
        <time>2021-09-01T12:31:30Z</time>
      </trkpt>
      <trkpt lat="44.84065" lon="5.35124">
        <ele>1360.6</ele>
        <time>2021-09-01T12:31:31Z</time>
      </trkpt>
      <trkpt lat="44.84059" lon="5.35123">
        <ele>1361</ele>
        <time>2021-09-01T12:31:32Z</time>
      </trkpt>
      <trkpt lat="44.84053" lon="5.35121">
        <ele>1361.5</ele>
        <time>2021-09-01T12:31:33Z</time>
      </trkpt>
      <trkpt lat="44.84047" lon="5.3512">
        <ele>1361.7</ele>
        <time>2021-09-01T12:31:35Z</time>
      </trkpt>
      <trkpt lat="44.84042" lon="5.35119">
        <ele>1362.2</ele>
        <time>2021-09-01T12:31:37Z</time>
      </trkpt>
      <trkpt lat="44.84036" lon="5.35118">
        <ele>1362.4</ele>
        <time>2021-09-01T12:32:09Z</time>
      </trkpt>
      <trkpt lat="44.8403" lon="5.35117">
        <ele>1362.7</ele>
        <time>2021-09-01T12:32:10Z</time>
      </trkpt>
      <trkpt lat="44.84028" lon="5.35117">
        <ele>1362.9</ele>
        <time>2021-09-01T12:32:11Z</time>
      </trkpt>
      <trkpt lat="44.84025" lon="5.35119">
        <ele>1363</ele>
        <time>2021-09-01T12:32:13Z</time>
      </trkpt>
      <trkpt lat="44.84022" lon="5.35121">
        <ele>1362.9</ele>
        <time>2021-09-01T12:32:14Z</time>
      </trkpt>
      <trkpt lat="44.84021" lon="5.35122">
        <ele>1362.8</ele>
        <time>2021-09-01T12:32:15Z</time>
      </trkpt>
      <trkpt lat="44.84018" lon="5.35124">
        <ele>1362.9</ele>
        <time>2021-09-01T12:32:16Z</time>
      </trkpt>
      <trkpt lat="44.84015" lon="5.35127">
        <ele>1362.8</ele>
        <time>2021-09-01T12:32:17Z</time>
      </trkpt>
      <trkpt lat="44.84014" lon="5.35128">
        <ele>1362.8</ele>
        <time>2021-09-01T12:32:18Z</time>
      </trkpt>
      <trkpt lat="44.84014" lon="5.35128">
        <ele>1362.8</ele>
        <time>2021-09-01T12:32:20Z</time>
      </trkpt>
      <trkpt lat="44.84014" lon="5.35128">
        <ele>1362.7</ele>
        <time>2021-09-01T12:32:21Z</time>
      </trkpt>
      <trkpt lat="44.84014" lon="5.35128">
        <ele>1362.6</ele>
        <time>2021-09-01T12:32:22Z</time>
      </trkpt>
      <trkpt lat="44.84014" lon="5.35128">
        <ele>1362.6</ele>
        <time>2021-09-01T12:32:23Z</time>
      </trkpt>
      <trkpt lat="44.84014" lon="5.35128">
        <ele>1362.5</ele>
        <time>2021-09-01T12:32:24Z</time>
      </trkpt>
      <trkpt lat="44.84014" lon="5.35128">
        <ele>1362.5</ele>
        <time>2021-09-01T12:32:26Z</time>
      </trkpt>
      <trkpt lat="44.84014" lon="5.35128">
        <ele>1362.4</ele>
        <time>2021-09-01T12:32:27Z</time>
      </trkpt>
      <trkpt lat="44.84014" lon="5.35128">
        <ele>1362.2</ele>
        <time>2021-09-01T12:32:28Z</time>
      </trkpt>
      <trkpt lat="44.83981" lon="5.35125">
        <ele>1364</ele>
        <time>2021-09-01T12:32:47Z</time>
      </trkpt>
      <trkpt lat="44.83979" lon="5.35125">
        <ele>1364.1</ele>
        <time>2021-09-01T12:32:48Z</time>
      </trkpt>
      <trkpt lat="44.83974" lon="5.35129">
        <ele>1364</ele>
        <time>2021-09-01T12:32:50Z</time>
      </trkpt>
      <trkpt lat="44.83971" lon="5.35132">
        <ele>1364.1</ele>
        <time>2021-09-01T12:32:51Z</time>
      </trkpt>
      <trkpt lat="44.83968" lon="5.35135">
        <ele>1363.8</ele>
        <time>2021-09-01T12:32:52Z</time>
      </trkpt>
      <trkpt lat="44.83967" lon="5.35138">
        <ele>1363.4</ele>
        <time>2021-09-01T12:32:53Z</time>
      </trkpt>
      <trkpt lat="44.83965" lon="5.35144">
        <ele>1362.9</ele>
        <time>2021-09-01T12:32:55Z</time>
      </trkpt>
      <trkpt lat="44.83963" lon="5.35149">
        <ele>1362.6</ele>
        <time>2021-09-01T12:32:57Z</time>
      </trkpt>
      <trkpt lat="44.83961" lon="5.35151">
        <ele>1362.3</ele>
        <time>2021-09-01T12:32:58Z</time>
      </trkpt>
      <trkpt lat="44.8396" lon="5.35151">
        <ele>1362.3</ele>
        <time>2021-09-01T12:32:59Z</time>
      </trkpt>
      <trkpt lat="44.83958" lon="5.35151">
        <ele>1362.3</ele>
        <time>2021-09-01T12:33:00Z</time>
      </trkpt>
      <trkpt lat="44.83957" lon="5.35152">
        <ele>1362.3</ele>
        <time>2021-09-01T12:33:01Z</time>
      </trkpt>
      <trkpt lat="44.83955" lon="5.35155">
        <ele>1362</ele>
        <time>2021-09-01T12:33:03Z</time>
      </trkpt>
      <trkpt lat="44.83954" lon="5.35158">
        <ele>1361.9</ele>
        <time>2021-09-01T12:33:04Z</time>
      </trkpt>
      <trkpt lat="44.83953" lon="5.35159">
        <ele>1361.8</ele>
        <time>2021-09-01T12:33:05Z</time>
      </trkpt>
      <trkpt lat="44.83953" lon="5.35159">
        <ele>1361.6</ele>
        <time>2021-09-01T12:33:06Z</time>
      </trkpt>
      <trkpt lat="44.83952" lon="5.3516">
        <ele>1361.5</ele>
        <time>2021-09-01T12:33:08Z</time>
      </trkpt>
      <trkpt lat="44.83952" lon="5.3516">
        <ele>1361.4</ele>
        <time>2021-09-01T12:33:09Z</time>
      </trkpt>
      <trkpt lat="44.83952" lon="5.3516">
        <ele>1361.4</ele>
        <time>2021-09-01T12:33:10Z</time>
      </trkpt>
      <trkpt lat="44.83952" lon="5.3516">
        <ele>1361.3</ele>
        <time>2021-09-01T12:33:12Z</time>
      </trkpt>
      <trkpt lat="44.83952" lon="5.35161">
        <ele>1361.2</ele>
        <time>2021-09-01T12:33:13Z</time>
      </trkpt>
      <trkpt lat="44.83948" lon="5.35167">
        <ele>1360.9</ele>
        <time>2021-09-01T12:33:21Z</time>
      </trkpt>
      <trkpt lat="44.83946" lon="5.35168">
        <ele>1360.6</ele>
        <time>2021-09-01T12:33:22Z</time>
      </trkpt>
      <trkpt lat="44.83944" lon="5.35168">
        <ele>1360.5</ele>
        <time>2021-09-01T12:33:23Z</time>
      </trkpt>
      <trkpt lat="44.83942" lon="5.35168">
        <ele>1360.7</ele>
        <time>2021-09-01T12:33:24Z</time>
      </trkpt>
      <trkpt lat="44.8394" lon="5.35169">
        <ele>1360.8</ele>
        <time>2021-09-01T12:33:26Z</time>
      </trkpt>
      <trkpt lat="44.83937" lon="5.35169">
        <ele>1360.9</ele>
        <time>2021-09-01T12:33:27Z</time>
      </trkpt>
      <trkpt lat="44.83935" lon="5.35169">
        <ele>1361</ele>
        <time>2021-09-01T12:33:28Z</time>
      </trkpt>
      <trkpt lat="44.83931" lon="5.35169">
        <ele>1361.2</ele>
        <time>2021-09-01T12:33:30Z</time>
      </trkpt>
      <trkpt lat="44.83927" lon="5.35167">
        <ele>1361.8</ele>
        <time>2021-09-01T12:33:31Z</time>
      </trkpt>
      <trkpt lat="44.83923" lon="5.35165">
        <ele>1361.9</ele>
        <time>2021-09-01T12:33:32Z</time>
      </trkpt>
      <trkpt lat="44.83918" lon="5.35164">
        <ele>1362.3</ele>
        <time>2021-09-01T12:33:34Z</time>
      </trkpt>
      <trkpt lat="44.83912" lon="5.35165">
        <ele>1362.7</ele>
        <time>2021-09-01T12:33:35Z</time>
      </trkpt>
      <trkpt lat="44.83906" lon="5.35164">
        <ele>1363</ele>
        <time>2021-09-01T12:33:37Z</time>
      </trkpt>
      <trkpt lat="44.83902" lon="5.35163">
        <ele>1363.6</ele>
        <time>2021-09-01T12:33:39Z</time>
      </trkpt>
      <trkpt lat="44.83899" lon="5.35163">
        <ele>1363.7</ele>
        <time>2021-09-01T12:33:40Z</time>
      </trkpt>
      <trkpt lat="44.83897" lon="5.35163">
        <ele>1363.8</ele>
        <time>2021-09-01T12:33:41Z</time>
      </trkpt>
      <trkpt lat="44.83893" lon="5.35163">
        <ele>1363.3</ele>
        <time>2021-09-01T12:33:43Z</time>
      </trkpt>
      <trkpt lat="44.8389" lon="5.35162">
        <ele>1363.9</ele>
        <time>2021-09-01T12:33:44Z</time>
      </trkpt>
      <trkpt lat="44.83889" lon="5.35162">
        <ele>1364</ele>
        <time>2021-09-01T12:33:45Z</time>
      </trkpt>
      <trkpt lat="44.83884" lon="5.3516">
        <ele>1364</ele>
        <time>2021-09-01T12:33:47Z</time>
      </trkpt>
      <trkpt lat="44.83879" lon="5.35159">
        <ele>1364.2</ele>
        <time>2021-09-01T12:33:48Z</time>
      </trkpt>
      <trkpt lat="44.83872" lon="5.35158">
        <ele>1364.8</ele>
        <time>2021-09-01T12:33:50Z</time>
      </trkpt>
      <trkpt lat="44.83867" lon="5.35158">
        <ele>1365</ele>
        <time>2021-09-01T12:33:51Z</time>
      </trkpt>
      <trkpt lat="44.83862" lon="5.35159">
        <ele>1364.5</ele>
        <time>2021-09-01T12:33:52Z</time>
      </trkpt>
      <trkpt lat="44.83856" lon="5.35158">
        <ele>1365</ele>
        <time>2021-09-01T12:33:54Z</time>
      </trkpt>
      <trkpt lat="44.83852" lon="5.35156">
        <ele>1365</ele>
        <time>2021-09-01T12:33:55Z</time>
      </trkpt>
      <trkpt lat="44.8385" lon="5.35155">
        <ele>1364.9</ele>
        <time>2021-09-01T12:33:56Z</time>
      </trkpt>
      <trkpt lat="44.83847" lon="5.35153">
        <ele>1365.3</ele>
        <time>2021-09-01T12:33:57Z</time>
      </trkpt>
      <trkpt lat="44.83842" lon="5.35153">
        <ele>1365.1</ele>
        <time>2021-09-01T12:33:59Z</time>
      </trkpt>
      <trkpt lat="44.83838" lon="5.35153">
        <ele>1364.8</ele>
        <time>2021-09-01T12:34:00Z</time>
      </trkpt>
      <trkpt lat="44.83835" lon="5.35153">
        <ele>1364.5</ele>
        <time>2021-09-01T12:34:01Z</time>
      </trkpt>
      <trkpt lat="44.83832" lon="5.35153">
        <ele>1364.2</ele>
        <time>2021-09-01T12:34:02Z</time>
      </trkpt>
      <trkpt lat="44.83825" lon="5.35151">
        <ele>1363.2</ele>
        <time>2021-09-01T12:34:04Z</time>
      </trkpt>
      <trkpt lat="44.83822" lon="5.35149">
        <ele>1363.1</ele>
        <time>2021-09-01T12:34:05Z</time>
      </trkpt>
      <trkpt lat="44.83819" lon="5.35147">
        <ele>1362.7</ele>
        <time>2021-09-01T12:34:06Z</time>
      </trkpt>
      <trkpt lat="44.83816" lon="5.35146">
        <ele>1363</ele>
        <time>2021-09-01T12:34:07Z</time>
      </trkpt>
      <trkpt lat="44.83815" lon="5.35145">
        <ele>1362.5</ele>
        <time>2021-09-01T12:34:09Z</time>
      </trkpt>
      <trkpt lat="44.83812" lon="5.35144">
        <ele>1361.9</ele>
        <time>2021-09-01T12:34:10Z</time>
      </trkpt>
      <trkpt lat="44.83809" lon="5.35142">
        <ele>1361.3</ele>
        <time>2021-09-01T12:34:11Z</time>
      </trkpt>
      <trkpt lat="44.83808" lon="5.35141">
        <ele>1361.6</ele>
        <time>2021-09-01T12:34:12Z</time>
      </trkpt>
      <trkpt lat="44.83806" lon="5.35142">
        <ele>1360.6</ele>
        <time>2021-09-01T12:34:14Z</time>
      </trkpt>
      <trkpt lat="44.83806" lon="5.35142">
        <ele>1360.6</ele>
        <time>2021-09-01T12:34:15Z</time>
      </trkpt>
      <trkpt lat="44.83806" lon="5.35143">
        <ele>1360.5</ele>
        <time>2021-09-01T12:34:16Z</time>
      </trkpt>
      <trkpt lat="44.83805" lon="5.35143">
        <ele>1360.5</ele>
        <time>2021-09-01T12:34:17Z</time>
      </trkpt>
      <trkpt lat="44.83801" lon="5.35143">
        <ele>1359.8</ele>
        <time>2021-09-01T12:34:19Z</time>
      </trkpt>
      <trkpt lat="44.83796" lon="5.35144">
        <ele>1358.5</ele>
        <time>2021-09-01T12:34:21Z</time>
      </trkpt>
      <trkpt lat="44.8379" lon="5.3514">
        <ele>1357.4</ele>
        <time>2021-09-01T12:34:22Z</time>
      </trkpt>
      <trkpt lat="44.83784" lon="5.35138">
        <ele>1355.9</ele>
        <time>2021-09-01T12:34:23Z</time>
      </trkpt>
      <trkpt lat="44.83777" lon="5.35137">
        <ele>1354.5</ele>
        <time>2021-09-01T12:34:24Z</time>
      </trkpt>
      <trkpt lat="44.83768" lon="5.35135">
        <ele>1351.9</ele>
        <time>2021-09-01T12:34:26Z</time>
      </trkpt>
      <trkpt lat="44.83761" lon="5.35131">
        <ele>1351.7</ele>
        <time>2021-09-01T12:34:27Z</time>
      </trkpt>
      <trkpt lat="44.83755" lon="5.3512">
        <ele>1351.4</ele>
        <time>2021-09-01T12:34:29Z</time>
      </trkpt>
      <trkpt lat="44.83749" lon="5.35114">
        <ele>1351.2</ele>
        <time>2021-09-01T12:34:30Z</time>
      </trkpt>
      <trkpt lat="44.83745" lon="5.35109">
        <ele>1351.1</ele>
        <time>2021-09-01T12:34:31Z</time>
      </trkpt>
      <trkpt lat="44.83738" lon="5.35098">
        <ele>1350.9</ele>
        <time>2021-09-01T12:34:33Z</time>
      </trkpt>
      <trkpt lat="44.83732" lon="5.35087">
        <ele>1350.6</ele>
        <time>2021-09-01T12:34:35Z</time>
      </trkpt>
      <trkpt lat="44.83728" lon="5.35081">
        <ele>1350.5</ele>
        <time>2021-09-01T12:34:36Z</time>
      </trkpt>
      <trkpt lat="44.83722" lon="5.35071">
        <ele>1350.2</ele>
        <time>2021-09-01T12:34:37Z</time>
      </trkpt>
      <trkpt lat="44.83712" lon="5.35058">
        <ele>1349.7</ele>
        <time>2021-09-01T12:34:39Z</time>
      </trkpt>
      <trkpt lat="44.83703" lon="5.35046">
        <ele>1349.2</ele>
        <time>2021-09-01T12:34:41Z</time>
      </trkpt>
      <trkpt lat="44.83696" lon="5.3503">
        <ele>1348.6</ele>
        <time>2021-09-01T12:34:43Z</time>
      </trkpt>
      <trkpt lat="44.83688" lon="5.35018">
        <ele>1347.9</ele>
        <time>2021-09-01T12:34:45Z</time>
      </trkpt>
      <trkpt lat="44.83686" lon="5.35012">
        <ele>1347.6</ele>
        <time>2021-09-01T12:34:46Z</time>
      </trkpt>
      <trkpt lat="44.83682" lon="5.34999">
        <ele>1347.1</ele>
        <time>2021-09-01T12:34:48Z</time>
      </trkpt>
      <trkpt lat="44.83681" lon="5.34992">
        <ele>1346.8</ele>
        <time>2021-09-01T12:34:49Z</time>
      </trkpt>
      <trkpt lat="44.83671" lon="5.34984">
        <ele>1346.2</ele>
        <time>2021-09-01T12:34:51Z</time>
      </trkpt>
      <trkpt lat="44.83666" lon="5.34982">
        <ele>1346</ele>
        <time>2021-09-01T12:34:52Z</time>
      </trkpt>
      <trkpt lat="44.83662" lon="5.34978">
        <ele>1345.7</ele>
        <time>2021-09-01T12:34:53Z</time>
      </trkpt>
      <trkpt lat="44.83657" lon="5.34974">
        <ele>1345.5</ele>
        <time>2021-09-01T12:34:54Z</time>
      </trkpt>
      <trkpt lat="44.83648" lon="5.34967">
        <ele>1345</ele>
        <time>2021-09-01T12:34:56Z</time>
      </trkpt>
      <trkpt lat="44.83641" lon="5.34964">
        <ele>1346.3</ele>
        <time>2021-09-01T12:34:58Z</time>
      </trkpt>
      <trkpt lat="44.83637" lon="5.34969">
        <ele>1348.6</ele>
        <time>2021-09-01T12:35:00Z</time>
      </trkpt>
      <trkpt lat="44.83633" lon="5.34973">
        <ele>1350.5</ele>
        <time>2021-09-01T12:35:02Z</time>
      </trkpt>
      <trkpt lat="44.83631" lon="5.34973">
        <ele>1351</ele>
        <time>2021-09-01T12:35:04Z</time>
      </trkpt>
      <trkpt lat="44.83629" lon="5.34974">
        <ele>1350.8</ele>
        <time>2021-09-01T12:35:05Z</time>
      </trkpt>
      <trkpt lat="44.83627" lon="5.34975">
        <ele>1350.7</ele>
        <time>2021-09-01T12:35:07Z</time>
      </trkpt>
      <trkpt lat="44.83626" lon="5.34975">
        <ele>1350.6</ele>
        <time>2021-09-01T12:35:54Z</time>
      </trkpt>
      <trkpt lat="44.83624" lon="5.34976">
        <ele>1350.5</ele>
        <time>2021-09-01T12:35:55Z</time>
      </trkpt>
      <trkpt lat="44.83626" lon="5.34982">
        <ele>1350.1</ele>
        <time>2021-09-01T12:35:56Z</time>
      </trkpt>
      <trkpt lat="44.83628" lon="5.3499">
        <ele>1349.6</ele>
        <time>2021-09-01T12:35:58Z</time>
      </trkpt>
      <trkpt lat="44.8363" lon="5.34997">
        <ele>1349.2</ele>
        <time>2021-09-01T12:35:59Z</time>
      </trkpt>
      <trkpt lat="44.83631" lon="5.35002">
        <ele>1348.9</ele>
        <time>2021-09-01T12:36:01Z</time>
      </trkpt>
      <trkpt lat="44.83633" lon="5.35007">
        <ele>1348.5</ele>
        <time>2021-09-01T12:36:02Z</time>
      </trkpt>
      <trkpt lat="44.83634" lon="5.35012">
        <ele>1348.2</ele>
        <time>2021-09-01T12:36:03Z</time>
      </trkpt>
      <trkpt lat="44.83635" lon="5.35028">
        <ele>1347.1</ele>
        <time>2021-09-01T12:36:04Z</time>
      </trkpt>
      <trkpt lat="44.83635" lon="5.3505">
        <ele>1345.3</ele>
        <time>2021-09-01T12:36:06Z</time>
      </trkpt>
      <trkpt lat="44.83635" lon="5.35062">
        <ele>1344.5</ele>
        <time>2021-09-01T12:36:07Z</time>
      </trkpt>
      <trkpt lat="44.83634" lon="5.35073">
        <ele>1343.7</ele>
        <time>2021-09-01T12:36:08Z</time>
      </trkpt>
      <trkpt lat="44.8363" lon="5.351">
        <ele>1341.6</ele>
        <time>2021-09-01T12:36:10Z</time>
      </trkpt>
      <trkpt lat="44.83624" lon="5.35139">
        <ele>1338.9</ele>
        <time>2021-09-01T12:36:12Z</time>
      </trkpt>
      <trkpt lat="44.83622" lon="5.35154">
        <ele>1337.8</ele>
        <time>2021-09-01T12:36:13Z</time>
      </trkpt>
      <trkpt lat="44.83621" lon="5.35163">
        <ele>1337.2</ele>
        <time>2021-09-01T12:36:14Z</time>
      </trkpt>
      <trkpt lat="44.8362" lon="5.35185">
        <ele>1335.9</ele>
        <time>2021-09-01T12:36:16Z</time>
      </trkpt>
      <trkpt lat="44.83621" lon="5.35193">
        <ele>1335.4</ele>
        <time>2021-09-01T12:36:17Z</time>
      </trkpt>
      <trkpt lat="44.8362" lon="5.35199">
        <ele>1335</ele>
        <time>2021-09-01T12:36:18Z</time>
      </trkpt>
      <trkpt lat="44.8362" lon="5.35203">
        <ele>1334.8</ele>
        <time>2021-09-01T12:36:19Z</time>
      </trkpt>
      <trkpt lat="44.8362" lon="5.35211">
        <ele>1334.3</ele>
        <time>2021-09-01T12:36:21Z</time>
      </trkpt>
      <trkpt lat="44.83618" lon="5.35215">
        <ele>1334</ele>
        <time>2021-09-01T12:36:22Z</time>
      </trkpt>
      <trkpt lat="44.83617" lon="5.35217">
        <ele>1333.8</ele>
        <time>2021-09-01T12:36:23Z</time>
      </trkpt>
      <trkpt lat="44.83614" lon="5.3522">
        <ele>1333.5</ele>
        <time>2021-09-01T12:36:24Z</time>
      </trkpt>
      <trkpt lat="44.83607" lon="5.35223">
        <ele>1333.5</ele>
        <time>2021-09-01T12:36:26Z</time>
      </trkpt>
      <trkpt lat="44.83603" lon="5.35222">
        <ele>1333.5</ele>
        <time>2021-09-01T12:36:28Z</time>
      </trkpt>
      <trkpt lat="44.836" lon="5.35222">
        <ele>1333.4</ele>
        <time>2021-09-01T12:36:29Z</time>
      </trkpt>
      <trkpt lat="44.83598" lon="5.35223">
        <ele>1333.4</ele>
        <time>2021-09-01T12:36:31Z</time>
      </trkpt>
      <trkpt lat="44.83598" lon="5.35223">
        <ele>1333.4</ele>
        <time>2021-09-01T12:36:32Z</time>
      </trkpt>
      <trkpt lat="44.83599" lon="5.35223">
        <ele>1333.4</ele>
        <time>2021-09-01T12:36:33Z</time>
      </trkpt>
      <trkpt lat="44.83602" lon="5.35224">
        <ele>1333.4</ele>
        <time>2021-09-01T12:36:37Z</time>
      </trkpt>
      <trkpt lat="44.83606" lon="5.35224">
        <ele>1333.4</ele>
        <time>2021-09-01T12:36:39Z</time>
      </trkpt>
      <trkpt lat="44.83612" lon="5.35219">
        <ele>1333.4</ele>
        <time>2021-09-01T12:36:54Z</time>
      </trkpt>
      <trkpt lat="44.83616" lon="5.35216">
        <ele>1333.4</ele>
        <time>2021-09-01T12:36:55Z</time>
      </trkpt>
      <trkpt lat="44.83626" lon="5.35207">
        <ele>1333.3</ele>
        <time>2021-09-01T12:36:56Z</time>
      </trkpt>
      <trkpt lat="44.83633" lon="5.35202">
        <ele>1333.3</ele>
        <time>2021-09-01T12:36:58Z</time>
      </trkpt>
      <trkpt lat="44.83636" lon="5.35201">
        <ele>1333.3</ele>
        <time>2021-09-01T12:36:59Z</time>
      </trkpt>
      <trkpt lat="44.83637" lon="5.35201">
        <ele>1333.3</ele>
        <time>2021-09-01T12:37:00Z</time>
      </trkpt>
      <trkpt lat="44.83638" lon="5.35201">
        <ele>1333.3</ele>
        <time>2021-09-01T12:37:01Z</time>
      </trkpt>
      <trkpt lat="44.83638" lon="5.35202">
        <ele>1333.3</ele>
        <time>2021-09-01T12:37:02Z</time>
      </trkpt>
      <trkpt lat="44.83639" lon="5.35202">
        <ele>1333.3</ele>
        <time>2021-09-01T12:37:03Z</time>
      </trkpt>
      <trkpt lat="44.83639" lon="5.35203">
        <ele>1333.3</ele>
        <time>2021-09-01T12:37:04Z</time>
      </trkpt>
      <trkpt lat="44.83639" lon="5.35203">
        <ele>1333.3</ele>
        <time>2021-09-01T12:37:05Z</time>
      </trkpt>
      <trkpt lat="44.83637" lon="5.35205">
        <ele>1333.3</ele>
        <time>2021-09-01T12:37:07Z</time>
      </trkpt>
      <trkpt lat="44.83591" lon="5.35243">
        <ele>1336.2</ele>
        <time>2021-09-01T12:37:32Z</time>
      </trkpt>
      <trkpt lat="44.83589" lon="5.35244">
        <ele>1336.4</ele>
        <time>2021-09-01T12:37:33Z</time>
      </trkpt>
      <trkpt lat="44.83583" lon="5.35246">
        <ele>1336.8</ele>
        <time>2021-09-01T12:37:35Z</time>
      </trkpt>
      <trkpt lat="44.83578" lon="5.35247">
        <ele>1337.1</ele>
        <time>2021-09-01T12:37:37Z</time>
      </trkpt>
      <trkpt lat="44.83575" lon="5.35245">
        <ele>1337.3</ele>
        <time>2021-09-01T12:37:38Z</time>
      </trkpt>
      <trkpt lat="44.83575" lon="5.35244">
        <ele>1337.3</ele>
        <time>2021-09-01T12:37:39Z</time>
      </trkpt>
      <trkpt lat="44.83577" lon="5.35244">
        <ele>1337.5</ele>
        <time>2021-09-01T12:37:40Z</time>
      </trkpt>
      <trkpt lat="44.83579" lon="5.35245">
        <ele>1337.6</ele>
        <time>2021-09-01T12:37:41Z</time>
      </trkpt>
      <trkpt lat="44.8358" lon="5.35245">
        <ele>1337.6</ele>
        <time>2021-09-01T12:37:42Z</time>
      </trkpt>
      <trkpt lat="44.8358" lon="5.35246">
        <ele>1337.7</ele>
        <time>2021-09-01T12:37:43Z</time>
      </trkpt>
      <trkpt lat="44.83581" lon="5.35246">
        <ele>1337.7</ele>
        <time>2021-09-01T12:37:45Z</time>
      </trkpt>
      <trkpt lat="44.83582" lon="5.35248">
        <ele>1337.8</ele>
        <time>2021-09-01T12:37:46Z</time>
      </trkpt>
      <trkpt lat="44.83591" lon="5.35259">
        <ele>1338.1</ele>
        <time>2021-09-01T12:37:47Z</time>
      </trkpt>
      <trkpt lat="44.83595" lon="5.35265">
        <ele>1338.2</ele>
        <time>2021-09-01T12:37:49Z</time>
      </trkpt>
      <trkpt lat="44.83591" lon="5.35313">
        <ele>1337.9</ele>
        <time>2021-09-01T12:38:59Z</time>
      </trkpt>
      <trkpt lat="44.83587" lon="5.3532">
        <ele>1337.9</ele>
        <time>2021-09-01T12:39:01Z</time>
      </trkpt>
      <trkpt lat="44.83583" lon="5.35324">
        <ele>1337.9</ele>
        <time>2021-09-01T12:39:02Z</time>
      </trkpt>
      <trkpt lat="44.8358" lon="5.35329">
        <ele>1337.9</ele>
        <time>2021-09-01T12:39:03Z</time>
      </trkpt>
      <trkpt lat="44.83576" lon="5.35333">
        <ele>1337.9</ele>
        <time>2021-09-01T12:39:04Z</time>
      </trkpt>
      <trkpt lat="44.83572" lon="5.35337">
        <ele>1337.8</ele>
        <time>2021-09-01T12:39:05Z</time>
      </trkpt>
      <trkpt lat="44.8357" lon="5.35341">
        <ele>1337.8</ele>
        <time>2021-09-01T12:39:07Z</time>
      </trkpt>
      <trkpt lat="44.83567" lon="5.35346">
        <ele>1337.8</ele>
        <time>2021-09-01T12:39:08Z</time>
      </trkpt>
      <trkpt lat="44.83564" lon="5.35351">
        <ele>1337.8</ele>
        <time>2021-09-01T12:39:09Z</time>
      </trkpt>
      <trkpt lat="44.83561" lon="5.35355">
        <ele>1337.8</ele>
        <time>2021-09-01T12:39:10Z</time>
      </trkpt>
      <trkpt lat="44.83558" lon="5.3536">
        <ele>1337.8</ele>
        <time>2021-09-01T12:39:12Z</time>
      </trkpt>
      <trkpt lat="44.83555" lon="5.35365">
        <ele>1337.8</ele>
        <time>2021-09-01T12:39:13Z</time>
      </trkpt>
      <trkpt lat="44.83552" lon="5.35369">
        <ele>1337.7</ele>
        <time>2021-09-01T12:39:14Z</time>
      </trkpt>
      <trkpt lat="44.8355" lon="5.35376">
        <ele>1337.7</ele>
        <time>2021-09-01T12:39:16Z</time>
      </trkpt>
      <trkpt lat="44.83548" lon="5.35379">
        <ele>1337.7</ele>
        <time>2021-09-01T12:39:17Z</time>
      </trkpt>
      <trkpt lat="44.83545" lon="5.35384">
        <ele>1337.8</ele>
        <time>2021-09-01T12:39:19Z</time>
      </trkpt>
      <trkpt lat="44.83542" lon="5.35387">
        <ele>1337.8</ele>
        <time>2021-09-01T12:39:20Z</time>
      </trkpt>
      <trkpt lat="44.83539" lon="5.3539">
        <ele>1337.9</ele>
        <time>2021-09-01T12:39:22Z</time>
      </trkpt>
      <trkpt lat="44.83535" lon="5.35393">
        <ele>1338</ele>
        <time>2021-09-01T12:39:23Z</time>
      </trkpt>
      <trkpt lat="44.83531" lon="5.35396">
        <ele>1338.1</ele>
        <time>2021-09-01T12:39:25Z</time>
      </trkpt>
      <trkpt lat="44.83528" lon="5.35398">
        <ele>1338.2</ele>
        <time>2021-09-01T12:39:26Z</time>
      </trkpt>
      <trkpt lat="44.83523" lon="5.35398">
        <ele>1338.4</ele>
        <time>2021-09-01T12:39:27Z</time>
      </trkpt>
      <trkpt lat="44.83521" lon="5.35397">
        <ele>1338.5</ele>
        <time>2021-09-01T12:39:28Z</time>
      </trkpt>
      <trkpt lat="44.83519" lon="5.35395">
        <ele>1338.6</ele>
        <time>2021-09-01T12:39:29Z</time>
      </trkpt>
      <trkpt lat="44.83516" lon="5.35392">
        <ele>1338.7</ele>
        <time>2021-09-01T12:39:31Z</time>
      </trkpt>
      <trkpt lat="44.83514" lon="5.3539">
        <ele>1338.9</ele>
        <time>2021-09-01T12:39:32Z</time>
      </trkpt>
      <trkpt lat="44.83512" lon="5.3539">
        <ele>1338.9</ele>
        <time>2021-09-01T12:39:33Z</time>
      </trkpt>
      <trkpt lat="44.83511" lon="5.3539">
        <ele>1339</ele>
        <time>2021-09-01T12:39:34Z</time>
      </trkpt>
      <trkpt lat="44.83508" lon="5.3539">
        <ele>1339.1</ele>
        <time>2021-09-01T12:39:36Z</time>
      </trkpt>
      <trkpt lat="44.83508" lon="5.35393">
        <ele>1339.2</ele>
        <time>2021-09-01T12:39:38Z</time>
      </trkpt>
      <trkpt lat="44.83508" lon="5.35393">
        <ele>1339.2</ele>
        <time>2021-09-01T12:39:40Z</time>
      </trkpt>
      <trkpt lat="44.83507" lon="5.35393">
        <ele>1339.2</ele>
        <time>2021-09-01T12:39:41Z</time>
      </trkpt>
      <trkpt lat="44.83507" lon="5.35393">
        <ele>1339.3</ele>
        <time>2021-09-01T12:39:42Z</time>
      </trkpt>
      <trkpt lat="44.83506" lon="5.35394">
        <ele>1339.3</ele>
        <time>2021-09-01T12:39:43Z</time>
      </trkpt>
      <trkpt lat="44.83503" lon="5.35396">
        <ele>1339.5</ele>
        <time>2021-09-01T12:39:45Z</time>
      </trkpt>
      <trkpt lat="44.83498" lon="5.35398">
        <ele>1339.8</ele>
        <time>2021-09-01T12:39:47Z</time>
      </trkpt>
      <trkpt lat="44.83495" lon="5.35399">
        <ele>1340</ele>
        <time>2021-09-01T12:39:48Z</time>
      </trkpt>
      <trkpt lat="44.83494" lon="5.35399">
        <ele>1340.1</ele>
        <time>2021-09-01T12:39:49Z</time>
      </trkpt>
      <trkpt lat="44.83492" lon="5.354">
        <ele>1340.2</ele>
        <time>2021-09-01T12:39:50Z</time>
      </trkpt>
      <trkpt lat="44.83491" lon="5.35401">
        <ele>1340.3</ele>
        <time>2021-09-01T12:39:51Z</time>
      </trkpt>
      <trkpt lat="44.83488" lon="5.35402">
        <ele>1340.5</ele>
        <time>2021-09-01T12:39:53Z</time>
      </trkpt>
      <trkpt lat="44.83486" lon="5.35405">
        <ele>1340.7</ele>
        <time>2021-09-01T12:39:54Z</time>
      </trkpt>
      <trkpt lat="44.83484" lon="5.35405">
        <ele>1340.8</ele>
        <time>2021-09-01T12:39:56Z</time>
      </trkpt>
      <trkpt lat="44.83483" lon="5.35405">
        <ele>1340.9</ele>
        <time>2021-09-01T12:39:57Z</time>
      </trkpt>
      <trkpt lat="44.83481" lon="5.35405">
        <ele>1341</ele>
        <time>2021-09-01T12:39:58Z</time>
      </trkpt>
      <trkpt lat="44.83478" lon="5.35405">
        <ele>1341.2</ele>
        <time>2021-09-01T12:40:00Z</time>
      </trkpt>
      <trkpt lat="44.83476" lon="5.35405">
        <ele>1341.3</ele>
        <time>2021-09-01T12:40:02Z</time>
      </trkpt>
      <trkpt lat="44.83475" lon="5.35405">
        <ele>1341.4</ele>
        <time>2021-09-01T12:40:03Z</time>
      </trkpt>
      <trkpt lat="44.8345" lon="5.35405">
        <ele>1342.8</ele>
        <time>2021-09-01T12:40:09Z</time>
      </trkpt>
      <trkpt lat="44.83447" lon="5.35407">
        <ele>1343</ele>
        <time>2021-09-01T12:40:10Z</time>
      </trkpt>
      <trkpt lat="44.83447" lon="5.35408">
        <ele>1343</ele>
        <time>2021-09-01T12:40:11Z</time>
      </trkpt>
      <trkpt lat="44.83445" lon="5.3541">
        <ele>1343.1</ele>
        <time>2021-09-01T12:40:13Z</time>
      </trkpt>
      <trkpt lat="44.83445" lon="5.35411">
        <ele>1343.2</ele>
        <time>2021-09-01T12:40:14Z</time>
      </trkpt>
      <trkpt lat="44.83444" lon="5.35412">
        <ele>1343.3</ele>
        <time>2021-09-01T12:40:16Z</time>
      </trkpt>
      <trkpt lat="44.83443" lon="5.35413">
        <ele>1343.3</ele>
        <time>2021-09-01T12:40:17Z</time>
      </trkpt>
      <trkpt lat="44.8344" lon="5.35414">
        <ele>1343.5</ele>
        <time>2021-09-01T12:40:19Z</time>
      </trkpt>
      <trkpt lat="44.83439" lon="5.35415">
        <ele>1343.6</ele>
        <time>2021-09-01T12:40:20Z</time>
      </trkpt>
      <trkpt lat="44.83436" lon="5.35415">
        <ele>1343.8</ele>
        <time>2021-09-01T12:40:21Z</time>
      </trkpt>
      <trkpt lat="44.83435" lon="5.35415">
        <ele>1343.9</ele>
        <time>2021-09-01T12:40:22Z</time>
      </trkpt>
      <trkpt lat="44.83433" lon="5.35416">
        <ele>1344</ele>
        <time>2021-09-01T12:40:24Z</time>
      </trkpt>
      <trkpt lat="44.83432" lon="5.35417">
        <ele>1344.1</ele>
        <time>2021-09-01T12:40:25Z</time>
      </trkpt>
      <trkpt lat="44.8343" lon="5.35417">
        <ele>1344.2</ele>
        <time>2021-09-01T12:40:26Z</time>
      </trkpt>
      <trkpt lat="44.83428" lon="5.35417">
        <ele>1344.4</ele>
        <time>2021-09-01T12:40:27Z</time>
      </trkpt>
      <trkpt lat="44.83427" lon="5.35417">
        <ele>1344.4</ele>
        <time>2021-09-01T12:40:29Z</time>
      </trkpt>
      <trkpt lat="44.83426" lon="5.35416">
        <ele>1344.5</ele>
        <time>2021-09-01T12:40:30Z</time>
      </trkpt>
      <trkpt lat="44.83425" lon="5.35416">
        <ele>1344.6</ele>
        <time>2021-09-01T12:40:32Z</time>
      </trkpt>
      <trkpt lat="44.83424" lon="5.35416">
        <ele>1344.7</ele>
        <time>2021-09-01T12:40:33Z</time>
      </trkpt>
      <trkpt lat="44.83424" lon="5.35416">
        <ele>1344.7</ele>
        <time>2021-09-01T12:40:34Z</time>
      </trkpt>
      <trkpt lat="44.83423" lon="5.35415">
        <ele>1344.7</ele>
        <time>2021-09-01T12:40:35Z</time>
      </trkpt>
      <trkpt lat="44.83422" lon="5.35415">
        <ele>1344.8</ele>
        <time>2021-09-01T12:40:36Z</time>
      </trkpt>
      <trkpt lat="44.83421" lon="5.35415">
        <ele>1344.9</ele>
        <time>2021-09-01T12:40:38Z</time>
      </trkpt>
      <trkpt lat="44.83421" lon="5.35415">
        <ele>1344.9</ele>
        <time>2021-09-01T12:40:39Z</time>
      </trkpt>
      <trkpt lat="44.8342" lon="5.35416">
        <ele>1345</ele>
        <time>2021-09-01T12:40:40Z</time>
      </trkpt>
      <trkpt lat="44.83419" lon="5.35416">
        <ele>1345.1</ele>
        <time>2021-09-01T12:40:41Z</time>
      </trkpt>
      <trkpt lat="44.83416" lon="5.35418">
        <ele>1345.3</ele>
        <time>2021-09-01T12:40:43Z</time>
      </trkpt>
      <trkpt lat="44.83412" lon="5.3542">
        <ele>1345.6</ele>
        <time>2021-09-01T12:40:44Z</time>
      </trkpt>
      <trkpt lat="44.83409" lon="5.35423">
        <ele>1345.8</ele>
        <time>2021-09-01T12:40:46Z</time>
      </trkpt>
      <trkpt lat="44.83405" lon="5.35426">
        <ele>1346.2</ele>
        <time>2021-09-01T12:40:48Z</time>
      </trkpt>
      <trkpt lat="44.83404" lon="5.35428">
        <ele>1346.3</ele>
        <time>2021-09-01T12:40:49Z</time>
      </trkpt>
      <trkpt lat="44.83403" lon="5.35429">
        <ele>1346.4</ele>
        <time>2021-09-01T12:40:50Z</time>
      </trkpt>
      <trkpt lat="44.83402" lon="5.35432">
        <ele>1346.5</ele>
        <time>2021-09-01T12:40:52Z</time>
      </trkpt>
      <trkpt lat="44.83402" lon="5.35432">
        <ele>1346.6</ele>
        <time>2021-09-01T12:40:53Z</time>
      </trkpt>
      <trkpt lat="44.83402" lon="5.35433">
        <ele>1346.6</ele>
        <time>2021-09-01T12:40:54Z</time>
      </trkpt>
      <trkpt lat="44.83402" lon="5.35434">
        <ele>1346.7</ele>
        <time>2021-09-01T12:40:55Z</time>
      </trkpt>
      <trkpt lat="44.83401" lon="5.35434">
        <ele>1346.7</ele>
        <time>2021-09-01T12:40:56Z</time>
      </trkpt>
      <trkpt lat="44.83401" lon="5.35434">
        <ele>1346.7</ele>
        <time>2021-09-01T12:40:58Z</time>
      </trkpt>
      <trkpt lat="44.83401" lon="5.35434">
        <ele>1346.7</ele>
        <time>2021-09-01T12:40:59Z</time>
      </trkpt>
      <trkpt lat="44.83401" lon="5.35435">
        <ele>1346.7</ele>
        <time>2021-09-01T12:41:00Z</time>
      </trkpt>
      <trkpt lat="44.83401" lon="5.35435">
        <ele>1346.7</ele>
        <time>2021-09-01T12:41:01Z</time>
      </trkpt>
      <trkpt lat="44.83401" lon="5.35435">
        <ele>1346.7</ele>
        <time>2021-09-01T12:41:02Z</time>
      </trkpt>
      <trkpt lat="44.83381" lon="5.35438">
        <ele>1348.4</ele>
        <time>2021-09-01T12:41:16Z</time>
      </trkpt>
      <trkpt lat="44.83377" lon="5.35439">
        <ele>1348.7</ele>
        <time>2021-09-01T12:41:17Z</time>
      </trkpt>
      <trkpt lat="44.83374" lon="5.3544">
        <ele>1349</ele>
        <time>2021-09-01T12:41:18Z</time>
      </trkpt>
      <trkpt lat="44.83372" lon="5.35442">
        <ele>1349.2</ele>
        <time>2021-09-01T12:41:19Z</time>
      </trkpt>
      <trkpt lat="44.83368" lon="5.35444">
        <ele>1349.6</ele>
        <time>2021-09-01T12:41:21Z</time>
      </trkpt>
      <trkpt lat="44.83365" lon="5.35446">
        <ele>1349.9</ele>
        <time>2021-09-01T12:41:22Z</time>
      </trkpt>
      <trkpt lat="44.83364" lon="5.35447">
        <ele>1350</ele>
        <time>2021-09-01T12:41:23Z</time>
      </trkpt>
      <trkpt lat="44.83363" lon="5.35447">
        <ele>1350.1</ele>
        <time>2021-09-01T12:41:24Z</time>
      </trkpt>
      <trkpt lat="44.83362" lon="5.35447">
        <ele>1350.2</ele>
        <time>2021-09-01T12:41:26Z</time>
      </trkpt>
      <trkpt lat="44.83362" lon="5.35448">
        <ele>1350.3</ele>
        <time>2021-09-01T12:41:27Z</time>
      </trkpt>
      <trkpt lat="44.8336" lon="5.3545">
        <ele>1350.5</ele>
        <time>2021-09-01T12:41:29Z</time>
      </trkpt>
      <trkpt lat="44.8336" lon="5.35451">
        <ele>1350.6</ele>
        <time>2021-09-01T12:41:30Z</time>
      </trkpt>
      <trkpt lat="44.8336" lon="5.35453">
        <ele>1350.7</ele>
        <time>2021-09-01T12:41:31Z</time>
      </trkpt>
      <trkpt lat="44.8336" lon="5.35454">
        <ele>1350.8</ele>
        <time>2021-09-01T12:41:33Z</time>
      </trkpt>
      <trkpt lat="44.83359" lon="5.35455">
        <ele>1350.9</ele>
        <time>2021-09-01T12:41:34Z</time>
      </trkpt>
      <trkpt lat="44.83359" lon="5.35456">
        <ele>1350.9</ele>
        <time>2021-09-01T12:41:35Z</time>
      </trkpt>
      <trkpt lat="44.83359" lon="5.35457">
        <ele>1351</ele>
        <time>2021-09-01T12:41:36Z</time>
      </trkpt>
      <trkpt lat="44.83358" lon="5.35458">
        <ele>1351.1</ele>
        <time>2021-09-01T12:41:38Z</time>
      </trkpt>
      <trkpt lat="44.83358" lon="5.35458">
        <ele>1351.1</ele>
        <time>2021-09-01T12:41:39Z</time>
      </trkpt>
      <trkpt lat="44.83358" lon="5.35459">
        <ele>1351.2</ele>
        <time>2021-09-01T12:41:41Z</time>
      </trkpt>
      <trkpt lat="44.83357" lon="5.3546">
        <ele>1351.2</ele>
        <time>2021-09-01T12:41:42Z</time>
      </trkpt>
      <trkpt lat="44.83356" lon="5.35462">
        <ele>1351.4</ele>
        <time>2021-09-01T12:41:43Z</time>
      </trkpt>
      <trkpt lat="44.83355" lon="5.35463">
        <ele>1351.5</ele>
        <time>2021-09-01T12:41:45Z</time>
      </trkpt>
      <trkpt lat="44.83299" lon="5.35497">
        <ele>1354.8</ele>
        <time>2021-09-01T12:43:12Z</time>
      </trkpt>
      <trkpt lat="44.83298" lon="5.35497">
        <ele>1354.8</ele>
        <time>2021-09-01T12:43:14Z</time>
      </trkpt>
      <trkpt lat="44.83297" lon="5.35498">
        <ele>1354.9</ele>
        <time>2021-09-01T12:43:15Z</time>
      </trkpt>
      <trkpt lat="44.83295" lon="5.35499">
        <ele>1354.9</ele>
        <time>2021-09-01T12:43:16Z</time>
      </trkpt>
      <trkpt lat="44.83294" lon="5.355">
        <ele>1354.9</ele>
        <time>2021-09-01T12:43:18Z</time>
      </trkpt>
      <trkpt lat="44.83294" lon="5.355">
        <ele>1355</ele>
        <time>2021-09-01T12:43:19Z</time>
      </trkpt>
      <trkpt lat="44.83293" lon="5.35501">
        <ele>1355</ele>
        <time>2021-09-01T12:43:20Z</time>
      </trkpt>
      <trkpt lat="44.83293" lon="5.35501">
        <ele>1355</ele>
        <time>2021-09-01T12:43:22Z</time>
      </trkpt>
      <trkpt lat="44.83293" lon="5.35501">
        <ele>1355</ele>
        <time>2021-09-01T12:43:23Z</time>
      </trkpt>
      <trkpt lat="44.83291" lon="5.35502">
        <ele>1355.1</ele>
        <time>2021-09-01T12:43:25Z</time>
      </trkpt>
      <trkpt lat="44.83289" lon="5.35502">
        <ele>1355.1</ele>
        <time>2021-09-01T12:43:26Z</time>
      </trkpt>
      <trkpt lat="44.83287" lon="5.35502">
        <ele>1355.2</ele>
        <time>2021-09-01T12:43:27Z</time>
      </trkpt>
      <trkpt lat="44.83283" lon="5.35502">
        <ele>1355.3</ele>
        <time>2021-09-01T12:43:29Z</time>
      </trkpt>
      <trkpt lat="44.83279" lon="5.35503">
        <ele>1355.5</ele>
        <time>2021-09-01T12:43:30Z</time>
      </trkpt>
      <trkpt lat="44.83275" lon="5.35502">
        <ele>1355.7</ele>
        <time>2021-09-01T12:43:32Z</time>
      </trkpt>
      <trkpt lat="44.83272" lon="5.35501">
        <ele>1355.9</ele>
        <time>2021-09-01T12:43:33Z</time>
      </trkpt>
      <trkpt lat="44.83271" lon="5.35501">
        <ele>1356</ele>
        <time>2021-09-01T12:43:34Z</time>
      </trkpt>
      <trkpt lat="44.83269" lon="5.35501">
        <ele>1356.1</ele>
        <time>2021-09-01T12:43:35Z</time>
      </trkpt>
      <trkpt lat="44.83267" lon="5.355">
        <ele>1356.3</ele>
        <time>2021-09-01T12:43:37Z</time>
      </trkpt>
      <trkpt lat="44.83267" lon="5.35496">
        <ele>1356.5</ele>
        <time>2021-09-01T12:43:39Z</time>
      </trkpt>
      <trkpt lat="44.83267" lon="5.35495">
        <ele>1356.6</ele>
        <time>2021-09-01T12:43:40Z</time>
      </trkpt>
      <trkpt lat="44.83268" lon="5.35494">
        <ele>1356.6</ele>
        <time>2021-09-01T12:43:41Z</time>
      </trkpt>
      <trkpt lat="44.83269" lon="5.35493">
        <ele>1356.7</ele>
        <time>2021-09-01T12:43:43Z</time>
      </trkpt>
      <trkpt lat="44.83269" lon="5.35493">
        <ele>1356.7</ele>
        <time>2021-09-01T12:43:44Z</time>
      </trkpt>
      <trkpt lat="44.83269" lon="5.35493">
        <ele>1356.7</ele>
        <time>2021-09-01T12:43:45Z</time>
      </trkpt>
      <trkpt lat="44.83269" lon="5.35493">
        <ele>1356.7</ele>
        <time>2021-09-01T12:43:47Z</time>
      </trkpt>
      <trkpt lat="44.83222" lon="5.35452">
        <ele>1362.1</ele>
        <time>2021-09-01T12:44:22Z</time>
      </trkpt>
      <trkpt lat="44.83221" lon="5.3545">
        <ele>1362.2</ele>
        <time>2021-09-01T12:44:23Z</time>
      </trkpt>
      <trkpt lat="44.83221" lon="5.35449">
        <ele>1362.3</ele>
        <time>2021-09-01T12:44:24Z</time>
      </trkpt>
      <trkpt lat="44.8322" lon="5.35446">
        <ele>1362.5</ele>
        <time>2021-09-01T12:44:25Z</time>
      </trkpt>
      <trkpt lat="44.83219" lon="5.35445">
        <ele>1362.6</ele>
        <time>2021-09-01T12:44:27Z</time>
      </trkpt>
      <trkpt lat="44.83218" lon="5.35443">
        <ele>1362.7</ele>
        <time>2021-09-01T12:44:28Z</time>
      </trkpt>
      <trkpt lat="44.83217" lon="5.35442">
        <ele>1362.8</ele>
        <time>2021-09-01T12:44:29Z</time>
      </trkpt>
      <trkpt lat="44.83215" lon="5.35441">
        <ele>1363</ele>
        <time>2021-09-01T12:44:31Z</time>
      </trkpt>
      <trkpt lat="44.83214" lon="5.3544">
        <ele>1363.1</ele>
        <time>2021-09-01T12:44:32Z</time>
      </trkpt>
      <trkpt lat="44.83214" lon="5.3544">
        <ele>1363.2</ele>
        <time>2021-09-01T12:44:34Z</time>
      </trkpt>
      <trkpt lat="44.83214" lon="5.35441">
        <ele>1363.2</ele>
        <time>2021-09-01T12:44:35Z</time>
      </trkpt>
      <trkpt lat="44.83213" lon="5.35441">
        <ele>1363.2</ele>
        <time>2021-09-01T12:44:36Z</time>
      </trkpt>
      <trkpt lat="44.83213" lon="5.35441">
        <ele>1363.2</ele>
        <time>2021-09-01T12:44:37Z</time>
      </trkpt>
      <trkpt lat="44.83213" lon="5.35441">
        <ele>1363.2</ele>
        <time>2021-09-01T12:44:39Z</time>
      </trkpt>
      <trkpt lat="44.83213" lon="5.35441">
        <ele>1363.2</ele>
        <time>2021-09-01T12:44:40Z</time>
      </trkpt>
      <trkpt lat="44.83213" lon="5.35441">
        <ele>1363.2</ele>
        <time>2021-09-01T12:44:41Z</time>
      </trkpt>
      <trkpt lat="44.83213" lon="5.35441">
        <ele>1363.3</ele>
        <time>2021-09-01T12:44:42Z</time>
      </trkpt>
      <trkpt lat="44.83213" lon="5.35441">
        <ele>1363.3</ele>
        <time>2021-09-01T12:44:44Z</time>
      </trkpt>
      <trkpt lat="44.83203" lon="5.35294">
        <ele>1382</ele>
        <time>2021-09-01T12:51:23Z</time>
      </trkpt>
      <trkpt lat="44.83202" lon="5.35291">
        <ele>1382.2</ele>
        <time>2021-09-01T12:51:24Z</time>
      </trkpt>
      <trkpt lat="44.83202" lon="5.35286">
        <ele>1382.4</ele>
        <time>2021-09-01T12:51:26Z</time>
      </trkpt>
      <trkpt lat="44.83201" lon="5.35284">
        <ele>1382.5</ele>
        <time>2021-09-01T12:51:27Z</time>
      </trkpt>
      <trkpt lat="44.83202" lon="5.35284">
        <ele>1382.5</ele>
        <time>2021-09-01T12:51:28Z</time>
      </trkpt>
      <trkpt lat="44.83201" lon="5.35284">
        <ele>1382.6</ele>
        <time>2021-09-01T12:51:29Z</time>
      </trkpt>
      <trkpt lat="44.832" lon="5.35282">
        <ele>1382.6</ele>
        <time>2021-09-01T12:51:30Z</time>
      </trkpt>
      <trkpt lat="44.83199" lon="5.35279">
        <ele>1382.8</ele>
        <time>2021-09-01T12:51:32Z</time>
      </trkpt>
      <trkpt lat="44.83198" lon="5.35278">
        <ele>1382.8</ele>
        <time>2021-09-01T12:51:33Z</time>
      </trkpt>
      <trkpt lat="44.83199" lon="5.35275">
        <ele>1382.9</ele>
        <time>2021-09-01T12:51:34Z</time>
      </trkpt>
      <trkpt lat="44.83199" lon="5.35271">
        <ele>1383</ele>
        <time>2021-09-01T12:51:36Z</time>
      </trkpt>
      <trkpt lat="44.83199" lon="5.35267">
        <ele>1383.1</ele>
        <time>2021-09-01T12:51:38Z</time>
      </trkpt>
      <trkpt lat="44.83199" lon="5.35266">
        <ele>1383.1</ele>
        <time>2021-09-01T12:51:39Z</time>
      </trkpt>
      <trkpt lat="44.83199" lon="5.35262">
        <ele>1383.2</ele>
        <time>2021-09-01T12:51:40Z</time>
      </trkpt>
      <trkpt lat="44.83198" lon="5.35261">
        <ele>1383.3</ele>
        <time>2021-09-01T12:51:42Z</time>
      </trkpt>
      <trkpt lat="44.83197" lon="5.35261">
        <ele>1383.4</ele>
        <time>2021-09-01T12:51:43Z</time>
      </trkpt>
      <trkpt lat="44.83196" lon="5.35262">
        <ele>1383.4</ele>
        <time>2021-09-01T12:51:44Z</time>
      </trkpt>
      <trkpt lat="44.83195" lon="5.35262">
        <ele>1383.4</ele>
        <time>2021-09-01T12:51:46Z</time>
      </trkpt>
      <trkpt lat="44.83195" lon="5.35262">
        <ele>1383.5</ele>
        <time>2021-09-01T12:51:47Z</time>
      </trkpt>
      <trkpt lat="44.83195" lon="5.35261">
        <ele>1383.5</ele>
        <time>2021-09-01T12:51:48Z</time>
      </trkpt>
      <trkpt lat="44.83194" lon="5.35261">
        <ele>1383.5</ele>
        <time>2021-09-01T12:51:50Z</time>
      </trkpt>
      <trkpt lat="44.83194" lon="5.35261">
        <ele>1383.5</ele>
        <time>2021-09-01T12:51:51Z</time>
      </trkpt>
      <trkpt lat="44.83194" lon="5.35261">
        <ele>1383.5</ele>
        <time>2021-09-01T12:51:53Z</time>
      </trkpt>
      <trkpt lat="44.83201" lon="5.35168">
        <ele>1387.8</ele>
        <time>2021-09-01T12:55:18Z</time>
      </trkpt>
      <trkpt lat="44.83202" lon="5.35165">
        <ele>1388</ele>
        <time>2021-09-01T12:55:19Z</time>
      </trkpt>
      <trkpt lat="44.83203" lon="5.35163">
        <ele>1388.2</ele>
        <time>2021-09-01T12:55:21Z</time>
      </trkpt>
      <trkpt lat="44.83204" lon="5.35161">
        <ele>1388.3</ele>
        <time>2021-09-01T12:55:22Z</time>
      </trkpt>
      <trkpt lat="44.83205" lon="5.3516">
        <ele>1388.5</ele>
        <time>2021-09-01T12:55:23Z</time>
      </trkpt>
      <trkpt lat="44.83206" lon="5.35159">
        <ele>1388.6</ele>
        <time>2021-09-01T12:55:25Z</time>
      </trkpt>
      <trkpt lat="44.83207" lon="5.35158">
        <ele>1388.7</ele>
        <time>2021-09-01T12:55:26Z</time>
      </trkpt>
      <trkpt lat="44.83207" lon="5.35157">
        <ele>1388.8</ele>
        <time>2021-09-01T12:55:27Z</time>
      </trkpt>
      <trkpt lat="44.83208" lon="5.35156">
        <ele>1388.9</ele>
        <time>2021-09-01T12:55:29Z</time>
      </trkpt>
      <trkpt lat="44.83208" lon="5.35155">
        <ele>1388.9</ele>
        <time>2021-09-01T12:55:30Z</time>
      </trkpt>
      <trkpt lat="44.83209" lon="5.35155">
        <ele>1389</ele>
        <time>2021-09-01T12:55:31Z</time>
      </trkpt>
      <trkpt lat="44.83209" lon="5.35155">
        <ele>1389</ele>
        <time>2021-09-01T12:55:32Z</time>
      </trkpt>
      <trkpt lat="44.8321" lon="5.35154">
        <ele>1389.1</ele>
        <time>2021-09-01T12:55:33Z</time>
      </trkpt>
      <trkpt lat="44.8321" lon="5.35149">
        <ele>1389.5</ele>
        <time>2021-09-01T12:55:35Z</time>
      </trkpt>
      <trkpt lat="44.8321" lon="5.35147">
        <ele>1389.6</ele>
        <time>2021-09-01T12:55:36Z</time>
      </trkpt>
      <trkpt lat="44.8321" lon="5.35142">
        <ele>1390</ele>
        <time>2021-09-01T12:55:38Z</time>
      </trkpt>
      <trkpt lat="44.8321" lon="5.35139">
        <ele>1390.2</ele>
        <time>2021-09-01T12:55:39Z</time>
      </trkpt>
      <trkpt lat="44.8321" lon="5.35127">
        <ele>1390.9</ele>
        <time>2021-09-01T12:55:43Z</time>
      </trkpt>
      <trkpt lat="44.8321" lon="5.35125">
        <ele>1391.1</ele>
        <time>2021-09-01T12:55:45Z</time>
      </trkpt>
      <trkpt lat="44.8321" lon="5.35123">
        <ele>1391.2</ele>
        <time>2021-09-01T12:55:47Z</time>
      </trkpt>
      <trkpt lat="44.8321" lon="5.35122">
        <ele>1391.3</ele>
        <time>2021-09-01T12:55:48Z</time>
      </trkpt>
      <trkpt lat="44.8321" lon="5.35122">
        <ele>1391.3</ele>
        <time>2021-09-01T12:55:49Z</time>
      </trkpt>
      <trkpt lat="44.8321" lon="5.35121">
        <ele>1391.3</ele>
        <time>2021-09-01T12:55:50Z</time>
      </trkpt>
      <trkpt lat="44.83211" lon="5.3512">
        <ele>1391.5</ele>
        <time>2021-09-01T12:55:52Z</time>
      </trkpt>
      <trkpt lat="44.83212" lon="5.35119">
        <ele>1391.6</ele>
        <time>2021-09-01T12:55:53Z</time>
      </trkpt>
      <trkpt lat="44.83214" lon="5.35118">
        <ele>1391.7</ele>
        <time>2021-09-01T12:55:54Z</time>
      </trkpt>
      <trkpt lat="44.83215" lon="5.35118">
        <ele>1391.8</ele>
        <time>2021-09-01T12:55:56Z</time>
      </trkpt>
      <trkpt lat="44.83216" lon="5.35115">
        <ele>1392</ele>
        <time>2021-09-01T12:55:57Z</time>
      </trkpt>
      <trkpt lat="44.83217" lon="5.35115">
        <ele>1392.2</ele>
        <time>2021-09-01T12:55:59Z</time>
      </trkpt>
      <trkpt lat="44.83218" lon="5.35115">
        <ele>1392.2</ele>
        <time>2021-09-01T12:56:00Z</time>
      </trkpt>
      <trkpt lat="44.83218" lon="5.35115">
        <ele>1392.2</ele>
        <time>2021-09-01T12:56:01Z</time>
      </trkpt>
      <trkpt lat="44.83218" lon="5.35116">
        <ele>1392.3</ele>
        <time>2021-09-01T12:56:02Z</time>
      </trkpt>
      <trkpt lat="44.83219" lon="5.35116">
        <ele>1392.3</ele>
        <time>2021-09-01T12:56:04Z</time>
      </trkpt>
      <trkpt lat="44.83219" lon="5.35116">
        <ele>1392.4</ele>
        <time>2021-09-01T12:56:06Z</time>
      </trkpt>
      <trkpt lat="44.83219" lon="5.35115">
        <ele>1392.4</ele>
        <time>2021-09-01T12:56:07Z</time>
      </trkpt>
      <trkpt lat="44.83234" lon="5.35102">
        <ele>1394</ele>
        <time>2021-09-01T12:56:55Z</time>
      </trkpt>
      <trkpt lat="44.83237" lon="5.35098">
        <ele>1394.7</ele>
        <time>2021-09-01T12:56:57Z</time>
      </trkpt>
      <trkpt lat="44.83238" lon="5.35095">
        <ele>1394.9</ele>
        <time>2021-09-01T12:56:58Z</time>
      </trkpt>
      <trkpt lat="44.83241" lon="5.35091">
        <ele>1395.7</ele>
        <time>2021-09-01T12:57:00Z</time>
      </trkpt>
      <trkpt lat="44.83242" lon="5.3509">
        <ele>1396.1</ele>
        <time>2021-09-01T12:57:01Z</time>
      </trkpt>
      <trkpt lat="44.83242" lon="5.35089">
        <ele>1396</ele>
        <time>2021-09-01T12:57:03Z</time>
      </trkpt>
      <trkpt lat="44.83242" lon="5.35087">
        <ele>1395.9</ele>
        <time>2021-09-01T12:57:04Z</time>
      </trkpt>
      <trkpt lat="44.83243" lon="5.35085">
        <ele>1396.4</ele>
        <time>2021-09-01T12:57:05Z</time>
      </trkpt>
      <trkpt lat="44.83243" lon="5.35083">
        <ele>1396.3</ele>
        <time>2021-09-01T12:57:06Z</time>
      </trkpt>
      <trkpt lat="44.83243" lon="5.35081">
        <ele>1396.8</ele>
        <time>2021-09-01T12:57:08Z</time>
      </trkpt>
      <trkpt lat="44.83243" lon="5.35078">
        <ele>1396.7</ele>
        <time>2021-09-01T12:57:09Z</time>
      </trkpt>
      <trkpt lat="44.83244" lon="5.35076">
        <ele>1397.1</ele>
        <time>2021-09-01T12:57:10Z</time>
      </trkpt>
      <trkpt lat="44.83244" lon="5.35075">
        <ele>1397</ele>
        <time>2021-09-01T12:57:12Z</time>
      </trkpt>
      <trkpt lat="44.83244" lon="5.35074">
        <ele>1396.9</ele>
        <time>2021-09-01T12:57:13Z</time>
      </trkpt>
      <trkpt lat="44.83244" lon="5.35073">
        <ele>1397.2</ele>
        <time>2021-09-01T12:57:14Z</time>
      </trkpt>
      <trkpt lat="44.83244" lon="5.35071">
        <ele>1397.6</ele>
        <time>2021-09-01T12:57:15Z</time>
      </trkpt>
      <trkpt lat="44.83245" lon="5.35069">
        <ele>1397.5</ele>
        <time>2021-09-01T12:57:16Z</time>
      </trkpt>
      <trkpt lat="44.83245" lon="5.35067">
        <ele>1397.9</ele>
        <time>2021-09-01T12:57:18Z</time>
      </trkpt>
      <trkpt lat="44.83245" lon="5.35067">
        <ele>1397.8</ele>
        <time>2021-09-01T12:57:19Z</time>
      </trkpt>
      <trkpt lat="44.83245" lon="5.35067">
        <ele>1397.8</ele>
        <time>2021-09-01T12:57:21Z</time>
      </trkpt>
      <trkpt lat="44.83245" lon="5.35067">
        <ele>1397.7</ele>
        <time>2021-09-01T12:57:22Z</time>
      </trkpt>
      <trkpt lat="44.83245" lon="5.35068">
        <ele>1397.6</ele>
        <time>2021-09-01T12:57:24Z</time>
      </trkpt>
      <trkpt lat="44.83245" lon="5.35068">
        <ele>1397.5</ele>
        <time>2021-09-01T12:57:25Z</time>
      </trkpt>
      <trkpt lat="44.83245" lon="5.35068">
        <ele>1397.4</ele>
        <time>2021-09-01T12:57:26Z</time>
      </trkpt>
      <trkpt lat="44.83245" lon="5.35068">
        <ele>1397.3</ele>
        <time>2021-09-01T12:57:28Z</time>
      </trkpt>
      <trkpt lat="44.83245" lon="5.35068">
        <ele>1397.2</ele>
        <time>2021-09-01T12:57:29Z</time>
      </trkpt>
      <trkpt lat="44.83283" lon="5.34913">
        <ele>1420.2</ele>
        <time>2021-09-01T13:00:48Z</time>
      </trkpt>
      <trkpt lat="44.83283" lon="5.34911">
        <ele>1420.1</ele>
        <time>2021-09-01T13:00:49Z</time>
      </trkpt>
      <trkpt lat="44.83282" lon="5.34908">
        <ele>1420.5</ele>
        <time>2021-09-01T13:00:51Z</time>
      </trkpt>
      <trkpt lat="44.83283" lon="5.34905">
        <ele>1421</ele>
        <time>2021-09-01T13:00:52Z</time>
      </trkpt>
      <trkpt lat="44.83283" lon="5.34903">
        <ele>1420.9</ele>
        <time>2021-09-01T13:00:53Z</time>
      </trkpt>
      <trkpt lat="44.83283" lon="5.34902">
        <ele>1420.8</ele>
        <time>2021-09-01T13:00:55Z</time>
      </trkpt>
      <trkpt lat="44.83283" lon="5.349">
        <ele>1421.2</ele>
        <time>2021-09-01T13:00:56Z</time>
      </trkpt>
      <trkpt lat="44.83283" lon="5.349">
        <ele>1421.1</ele>
        <time>2021-09-01T13:00:58Z</time>
      </trkpt>
      <trkpt lat="44.83283" lon="5.34899">
        <ele>1421</ele>
        <time>2021-09-01T13:00:59Z</time>
      </trkpt>
      <trkpt lat="44.83283" lon="5.34899">
        <ele>1420.9</ele>
        <time>2021-09-01T13:01:00Z</time>
      </trkpt>
      <trkpt lat="44.83283" lon="5.34898">
        <ele>1420.8</ele>
        <time>2021-09-01T13:01:02Z</time>
      </trkpt>
      <trkpt lat="44.83283" lon="5.34898">
        <ele>1420.7</ele>
        <time>2021-09-01T13:01:03Z</time>
      </trkpt>
      <trkpt lat="44.83283" lon="5.34898">
        <ele>1420.6</ele>
        <time>2021-09-01T13:01:04Z</time>
      </trkpt>
      <trkpt lat="44.83283" lon="5.34898">
        <ele>1420.5</ele>
        <time>2021-09-01T13:01:06Z</time>
      </trkpt>
      <trkpt lat="44.83287" lon="5.34835">
        <ele>1427.5</ele>
        <time>2021-09-01T13:02:51Z</time>
      </trkpt>
      <trkpt lat="44.83286" lon="5.34829">
        <ele>1427.6</ele>
        <time>2021-09-01T13:02:53Z</time>
      </trkpt>
      <trkpt lat="44.83285" lon="5.34821">
        <ele>1428.1</ele>
        <time>2021-09-01T13:02:55Z</time>
      </trkpt>
      <trkpt lat="44.83285" lon="5.34818">
        <ele>1428.2</ele>
        <time>2021-09-01T13:02:56Z</time>
      </trkpt>
      <trkpt lat="44.83285" lon="5.34817">
        <ele>1428.1</ele>
        <time>2021-09-01T13:02:57Z</time>
      </trkpt>
      <trkpt lat="44.83285" lon="5.34816">
        <ele>1428</ele>
        <time>2021-09-01T13:02:58Z</time>
      </trkpt>
      <trkpt lat="44.83283" lon="5.3481">
        <ele>1428.4</ele>
        <time>2021-09-01T13:03:00Z</time>
      </trkpt>
      <trkpt lat="44.83283" lon="5.34808">
        <ele>1428.3</ele>
        <time>2021-09-01T13:03:02Z</time>
      </trkpt>
      <trkpt lat="44.83283" lon="5.34806">
        <ele>1428.4</ele>
        <time>2021-09-01T13:03:03Z</time>
      </trkpt>
      <trkpt lat="44.83282" lon="5.34804">
        <ele>1428.3</ele>
        <time>2021-09-01T13:03:05Z</time>
      </trkpt>
      <trkpt lat="44.83282" lon="5.34802">
        <ele>1428.4</ele>
        <time>2021-09-01T13:03:07Z</time>
      </trkpt>
      <trkpt lat="44.83281" lon="5.348">
        <ele>1428.3</ele>
        <time>2021-09-01T13:03:49Z</time>
      </trkpt>
      <trkpt lat="44.83281" lon="5.34799">
        <ele>1428.2</ele>
        <time>2021-09-01T13:03:50Z</time>
      </trkpt>
      <trkpt lat="44.83281" lon="5.34797">
        <ele>1428.3</ele>
        <time>2021-09-01T13:03:51Z</time>
      </trkpt>
      <trkpt lat="44.83281" lon="5.34794">
        <ele>1428.2</ele>
        <time>2021-09-01T13:03:53Z</time>
      </trkpt>
      <trkpt lat="44.83282" lon="5.34794">
        <ele>1428.4</ele>
        <time>2021-09-01T13:03:55Z</time>
      </trkpt>
      <trkpt lat="44.83282" lon="5.34793">
        <ele>1428.5</ele>
        <time>2021-09-01T13:03:56Z</time>
      </trkpt>
      <trkpt lat="44.83282" lon="5.34792">
        <ele>1428.6</ele>
        <time>2021-09-01T13:03:57Z</time>
      </trkpt>
      <trkpt lat="44.83282" lon="5.34791">
        <ele>1428.7</ele>
        <time>2021-09-01T13:03:59Z</time>
      </trkpt>
      <trkpt lat="44.83282" lon="5.34791">
        <ele>1428.8</ele>
        <time>2021-09-01T13:04:00Z</time>
      </trkpt>
      <trkpt lat="44.83282" lon="5.34791">
        <ele>1428.8</ele>
        <time>2021-09-01T13:04:01Z</time>
      </trkpt>
      <trkpt lat="44.83268" lon="5.34707">
        <ele>1438.5</ele>
        <time>2021-09-01T13:05:19Z</time>
      </trkpt>
      <trkpt lat="44.83268" lon="5.34705">
        <ele>1438.7</ele>
        <time>2021-09-01T13:05:20Z</time>
      </trkpt>
      <trkpt lat="44.83268" lon="5.34703">
        <ele>1438.8</ele>
        <time>2021-09-01T13:05:21Z</time>
      </trkpt>
      <trkpt lat="44.83267" lon="5.347">
        <ele>1439.1</ele>
        <time>2021-09-01T13:05:23Z</time>
      </trkpt>
      <trkpt lat="44.83267" lon="5.34699">
        <ele>1439.2</ele>
        <time>2021-09-01T13:05:24Z</time>
      </trkpt>
      <trkpt lat="44.83267" lon="5.34697">
        <ele>1439.3</ele>
        <time>2021-09-01T13:05:25Z</time>
      </trkpt>
      <trkpt lat="44.83267" lon="5.34695">
        <ele>1439.5</ele>
        <time>2021-09-01T13:05:27Z</time>
      </trkpt>
      <trkpt lat="44.83267" lon="5.34693">
        <ele>1439.6</ele>
        <time>2021-09-01T13:05:28Z</time>
      </trkpt>
      <trkpt lat="44.83267" lon="5.34693">
        <ele>1439.7</ele>
        <time>2021-09-01T13:05:30Z</time>
      </trkpt>
      <trkpt lat="44.83267" lon="5.34692">
        <ele>1439.7</ele>
        <time>2021-09-01T13:05:31Z</time>
      </trkpt>
      <trkpt lat="44.83267" lon="5.34692">
        <ele>1439.7</ele>
        <time>2021-09-01T13:05:32Z</time>
      </trkpt>
      <trkpt lat="44.83267" lon="5.34688">
        <ele>1440</ele>
        <time>2021-09-01T13:05:34Z</time>
      </trkpt>
      <trkpt lat="44.83267" lon="5.34687">
        <ele>1440.1</ele>
        <time>2021-09-01T13:05:35Z</time>
      </trkpt>
      <trkpt lat="44.83267" lon="5.34686">
        <ele>1440.1</ele>
        <time>2021-09-01T13:05:36Z</time>
      </trkpt>
      <trkpt lat="44.83267" lon="5.34685">
        <ele>1440.2</ele>
        <time>2021-09-01T13:05:37Z</time>
      </trkpt>
      <trkpt lat="44.83267" lon="5.34683">
        <ele>1440.3</ele>
        <time>2021-09-01T13:05:39Z</time>
      </trkpt>
      <trkpt lat="44.83267" lon="5.34681">
        <ele>1440.4</ele>
        <time>2021-09-01T13:05:40Z</time>
      </trkpt>
      <trkpt lat="44.83267" lon="5.3468">
        <ele>1440.5</ele>
        <time>2021-09-01T13:05:41Z</time>
      </trkpt>
      <trkpt lat="44.83267" lon="5.34679">
        <ele>1440.5</ele>
        <time>2021-09-01T13:05:43Z</time>
      </trkpt>
      <trkpt lat="44.83266" lon="5.34678">
        <ele>1440.6</ele>
        <time>2021-09-01T13:05:44Z</time>
      </trkpt>
      <trkpt lat="44.83265" lon="5.34676">
        <ele>1440.7</ele>
        <time>2021-09-01T13:05:45Z</time>
      </trkpt>
      <trkpt lat="44.83264" lon="5.34674">
        <ele>1440.8</ele>
        <time>2021-09-01T13:05:47Z</time>
      </trkpt>
      <trkpt lat="44.83261" lon="5.3467">
        <ele>1441</ele>
        <time>2021-09-01T13:05:48Z</time>
      </trkpt>
      <trkpt lat="44.8326" lon="5.34669">
        <ele>1441.1</ele>
        <time>2021-09-01T13:05:49Z</time>
      </trkpt>
      <trkpt lat="44.83258" lon="5.34666">
        <ele>1441.2</ele>
        <time>2021-09-01T13:05:51Z</time>
      </trkpt>
      <trkpt lat="44.83257" lon="5.34665">
        <ele>1441.2</ele>
        <time>2021-09-01T13:05:52Z</time>
      </trkpt>
      <trkpt lat="44.83254" lon="5.34663">
        <ele>1441.3</ele>
        <time>2021-09-01T13:05:53Z</time>
      </trkpt>
      <trkpt lat="44.83252" lon="5.34661">
        <ele>1441.3</ele>
        <time>2021-09-01T13:05:55Z</time>
      </trkpt>
      <trkpt lat="44.83251" lon="5.34661">
        <ele>1441.3</ele>
        <time>2021-09-01T13:05:56Z</time>
      </trkpt>
      <trkpt lat="44.8325" lon="5.3466">
        <ele>1441.4</ele>
        <time>2021-09-01T13:05:58Z</time>
      </trkpt>
      <trkpt lat="44.83249" lon="5.3466">
        <ele>1441.4</ele>
        <time>2021-09-01T13:05:59Z</time>
      </trkpt>
      <trkpt lat="44.83249" lon="5.3466">
        <ele>1441.4</ele>
        <time>2021-09-01T13:06:00Z</time>
      </trkpt>
      <trkpt lat="44.83248" lon="5.34659">
        <ele>1441.4</ele>
        <time>2021-09-01T13:06:02Z</time>
      </trkpt>
      <trkpt lat="44.83248" lon="5.34659">
        <ele>1441.4</ele>
        <time>2021-09-01T13:06:03Z</time>
      </trkpt>
      <trkpt lat="44.83247" lon="5.34659">
        <ele>1441.4</ele>
        <time>2021-09-01T13:06:04Z</time>
      </trkpt>
      <trkpt lat="44.8324" lon="5.34652">
        <ele>1441.4</ele>
        <time>2021-09-01T13:06:06Z</time>
      </trkpt>
      <trkpt lat="44.83234" lon="5.34646">
        <ele>1441.3</ele>
        <time>2021-09-01T13:06:08Z</time>
      </trkpt>
      <trkpt lat="44.83228" lon="5.3464">
        <ele>1441.1</ele>
        <time>2021-09-01T13:10:27Z</time>
      </trkpt>
      <trkpt lat="44.83223" lon="5.34634">
        <ele>1440.8</ele>
        <time>2021-09-01T13:10:28Z</time>
      </trkpt>
      <trkpt lat="44.83221" lon="5.34626">
        <ele>1440.5</ele>
        <time>2021-09-01T13:10:29Z</time>
      </trkpt>
      <trkpt lat="44.83218" lon="5.34618">
        <ele>1440.2</ele>
        <time>2021-09-01T13:10:31Z</time>
      </trkpt>
      <trkpt lat="44.83215" lon="5.34612">
        <ele>1440</ele>
        <time>2021-09-01T13:10:32Z</time>
      </trkpt>
      <trkpt lat="44.83212" lon="5.34605">
        <ele>1439.6</ele>
        <time>2021-09-01T13:10:33Z</time>
      </trkpt>
      <trkpt lat="44.83211" lon="5.346">
        <ele>1439.4</ele>
        <time>2021-09-01T13:10:34Z</time>
      </trkpt>
      <trkpt lat="44.8321" lon="5.34596">
        <ele>1439.1</ele>
        <time>2021-09-01T13:10:35Z</time>
      </trkpt>
      <trkpt lat="44.8321" lon="5.34588">
        <ele>1438.7</ele>
        <time>2021-09-01T13:10:37Z</time>
      </trkpt>
      <trkpt lat="44.8321" lon="5.34586">
        <ele>1438.5</ele>
        <time>2021-09-01T13:10:38Z</time>
      </trkpt>
      <trkpt lat="44.83211" lon="5.34583">
        <ele>1438.3</ele>
        <time>2021-09-01T13:10:40Z</time>
      </trkpt>
      <trkpt lat="44.83211" lon="5.3458">
        <ele>1438.2</ele>
        <time>2021-09-01T13:10:42Z</time>
      </trkpt>
      <trkpt lat="44.83212" lon="5.34577">
        <ele>1438</ele>
        <time>2021-09-01T13:10:43Z</time>
      </trkpt>
      <trkpt lat="44.83213" lon="5.34574">
        <ele>1437.8</ele>
        <time>2021-09-01T13:10:44Z</time>
      </trkpt>
      <trkpt lat="44.83213" lon="5.34572">
        <ele>1437.6</ele>
        <time>2021-09-01T13:10:46Z</time>
      </trkpt>
      <trkpt lat="44.83214" lon="5.34569">
        <ele>1437.5</ele>
        <time>2021-09-01T13:10:47Z</time>
      </trkpt>
      <trkpt lat="44.83215" lon="5.34566">
        <ele>1437.3</ele>
        <time>2021-09-01T13:11:12Z</time>
      </trkpt>
      <trkpt lat="44.83215" lon="5.34563">
        <ele>1437.2</ele>
        <time>2021-09-01T13:11:13Z</time>
      </trkpt>
      <trkpt lat="44.83213" lon="5.34554">
        <ele>1436.6</ele>
        <time>2021-09-01T13:11:14Z</time>
      </trkpt>
      <trkpt lat="44.83211" lon="5.34544">
        <ele>1436.1</ele>
        <time>2021-09-01T13:11:15Z</time>
      </trkpt>
      <trkpt lat="44.8321" lon="5.34536">
        <ele>1435.8</ele>
        <time>2021-09-01T13:11:17Z</time>
      </trkpt>
      <trkpt lat="44.8321" lon="5.34531">
        <ele>1435.6</ele>
        <time>2021-09-01T13:11:18Z</time>
      </trkpt>
      <trkpt lat="44.83211" lon="5.34527">
        <ele>1435.5</ele>
        <time>2021-09-01T13:11:19Z</time>
      </trkpt>
      <trkpt lat="44.83213" lon="5.34525">
        <ele>1435.3</ele>
        <time>2021-09-01T13:11:20Z</time>
      </trkpt>
      <trkpt lat="44.83217" lon="5.34522">
        <ele>1435.1</ele>
        <time>2021-09-01T13:11:21Z</time>
      </trkpt>
      <trkpt lat="44.8322" lon="5.3452">
        <ele>1434.9</ele>
        <time>2021-09-01T13:11:22Z</time>
      </trkpt>
      <trkpt lat="44.83223" lon="5.34515">
        <ele>1434.7</ele>
        <time>2021-09-01T13:11:25Z</time>
      </trkpt>
      <trkpt lat="44.83222" lon="5.34514">
        <ele>1434.7</ele>
        <time>2021-09-01T13:11:26Z</time>
      </trkpt>
      <trkpt lat="44.83221" lon="5.34512">
        <ele>1434.6</ele>
        <time>2021-09-01T13:11:27Z</time>
      </trkpt>
      <trkpt lat="44.83219" lon="5.34511">
        <ele>1434.5</ele>
        <time>2021-09-01T13:11:29Z</time>
      </trkpt>
      <trkpt lat="44.83217" lon="5.34509">
        <ele>1432.4</ele>
        <time>2021-09-01T13:11:30Z</time>
      </trkpt>
      <trkpt lat="44.83215" lon="5.34507">
        <ele>1432</ele>
        <time>2021-09-01T13:11:32Z</time>
      </trkpt>
      <trkpt lat="44.83214" lon="5.34506">
        <ele>1431.6</ele>
        <time>2021-09-01T13:11:33Z</time>
      </trkpt>
      <trkpt lat="44.83211" lon="5.34504">
        <ele>1431</ele>
        <time>2021-09-01T13:11:35Z</time>
      </trkpt>
      <trkpt lat="44.83209" lon="5.34503">
        <ele>1430.6</ele>
        <time>2021-09-01T13:11:36Z</time>
      </trkpt>
      <trkpt lat="44.83208" lon="5.34503">
        <ele>1430.3</ele>
        <time>2021-09-01T13:11:37Z</time>
      </trkpt>
      <trkpt lat="44.83207" lon="5.34503">
        <ele>1430.1</ele>
        <time>2021-09-01T13:11:38Z</time>
      </trkpt>
      <trkpt lat="44.83205" lon="5.34505">
        <ele>1429.4</ele>
        <time>2021-09-01T13:11:40Z</time>
      </trkpt>
      <trkpt lat="44.83203" lon="5.34508">
        <ele>1428.6</ele>
        <time>2021-09-01T13:11:42Z</time>
      </trkpt>
      <trkpt lat="44.83205" lon="5.3451">
        <ele>1427.9</ele>
        <time>2021-09-01T13:11:43Z</time>
      </trkpt>
      <trkpt lat="44.83206" lon="5.3451">
        <ele>1427.6</ele>
        <time>2021-09-01T13:11:44Z</time>
      </trkpt>
      <trkpt lat="44.83206" lon="5.3451">
        <ele>1427.5</ele>
        <time>2021-09-01T13:11:46Z</time>
      </trkpt>
      <trkpt lat="44.83207" lon="5.34511">
        <ele>1427.4</ele>
        <time>2021-09-01T13:11:47Z</time>
      </trkpt>
      <trkpt lat="44.83207" lon="5.34511">
        <ele>1427.3</ele>
        <time>2021-09-01T13:11:49Z</time>
      </trkpt>
      <trkpt lat="44.83207" lon="5.34511">
        <ele>1427.3</ele>
        <time>2021-09-01T13:11:50Z</time>
      </trkpt>
      <trkpt lat="44.83204" lon="5.34513">
        <ele>1426.3</ele>
        <time>2021-09-01T13:12:05Z</time>
      </trkpt>
      <trkpt lat="44.83202" lon="5.34515">
        <ele>1425.5</ele>
        <time>2021-09-01T13:12:06Z</time>
      </trkpt>
      <trkpt lat="44.83199" lon="5.34519">
        <ele>1424.1</ele>
        <time>2021-09-01T13:12:08Z</time>
      </trkpt>
      <trkpt lat="44.83196" lon="5.34523">
        <ele>1422.9</ele>
        <time>2021-09-01T13:12:09Z</time>
      </trkpt>
      <trkpt lat="44.83196" lon="5.34523">
        <ele>1422.6</ele>
        <time>2021-09-01T13:12:10Z</time>
      </trkpt>
      <trkpt lat="44.83196" lon="5.34523">
        <ele>1422.5</ele>
        <time>2021-09-01T13:12:11Z</time>
      </trkpt>
      <trkpt lat="44.83195" lon="5.34522">
        <ele>1422.4</ele>
        <time>2021-09-01T13:12:12Z</time>
      </trkpt>
      <trkpt lat="44.83193" lon="5.34518">
        <ele>1421.1</ele>
        <time>2021-09-01T13:12:14Z</time>
      </trkpt>
      <trkpt lat="44.83189" lon="5.34509">
        <ele>1418.5</ele>
        <time>2021-09-01T13:12:15Z</time>
      </trkpt>
      <trkpt lat="44.83187" lon="5.34503">
        <ele>1416.8</ele>
        <time>2021-09-01T13:12:17Z</time>
      </trkpt>
      <trkpt lat="44.83185" lon="5.34497">
        <ele>1415.4</ele>
        <time>2021-09-01T13:12:18Z</time>
      </trkpt>
      <trkpt lat="44.83182" lon="5.34492">
        <ele>1413.7</ele>
        <time>2021-09-01T13:12:19Z</time>
      </trkpt>
      <trkpt lat="44.83181" lon="5.34488">
        <ele>1412.6</ele>
        <time>2021-09-01T13:12:20Z</time>
      </trkpt>
      <trkpt lat="44.83178" lon="5.34483">
        <ele>1411.1</ele>
        <time>2021-09-01T13:12:22Z</time>
      </trkpt>
      <trkpt lat="44.83175" lon="5.34479">
        <ele>1410</ele>
        <time>2021-09-01T13:12:23Z</time>
      </trkpt>
      <trkpt lat="44.83172" lon="5.34473">
        <ele>1408.4</ele>
        <time>2021-09-01T13:12:24Z</time>
      </trkpt>
      <trkpt lat="44.83168" lon="5.34466">
        <ele>1406.7</ele>
        <time>2021-09-01T13:12:26Z</time>
      </trkpt>
      <trkpt lat="44.83163" lon="5.34458">
        <ele>1404.4</ele>
        <time>2021-09-01T13:12:27Z</time>
      </trkpt>
      <trkpt lat="44.83159" lon="5.34455">
        <ele>1403.3</ele>
        <time>2021-09-01T13:12:28Z</time>
      </trkpt>
      <trkpt lat="44.83156" lon="5.34449">
        <ele>1401.7</ele>
        <time>2021-09-01T13:12:29Z</time>
      </trkpt>
      <trkpt lat="44.83153" lon="5.34441">
        <ele>1399.7</ele>
        <time>2021-09-01T13:12:31Z</time>
      </trkpt>
      <trkpt lat="44.8315" lon="5.34434">
        <ele>1397.9</ele>
        <time>2021-09-01T13:12:32Z</time>
      </trkpt>
      <trkpt lat="44.83147" lon="5.34425">
        <ele>1395.8</ele>
        <time>2021-09-01T13:12:33Z</time>
      </trkpt>
      <trkpt lat="44.83145" lon="5.34421">
        <ele>1394.7</ele>
        <time>2021-09-01T13:12:35Z</time>
      </trkpt>
      <trkpt lat="44.83142" lon="5.34417">
        <ele>1393.8</ele>
        <time>2021-09-01T13:12:36Z</time>
      </trkpt>
      <trkpt lat="44.83138" lon="5.34413">
        <ele>1392.4</ele>
        <time>2021-09-01T13:12:37Z</time>
      </trkpt>
      <trkpt lat="44.83136" lon="5.3441">
        <ele>1391.6</ele>
        <time>2021-09-01T13:12:39Z</time>
      </trkpt>
      <trkpt lat="44.83135" lon="5.34408">
        <ele>1391.2</ele>
        <time>2021-09-01T13:12:40Z</time>
      </trkpt>
      <trkpt lat="44.83134" lon="5.34407">
        <ele>1390.9</ele>
        <time>2021-09-01T13:12:41Z</time>
      </trkpt>
      <trkpt lat="44.83135" lon="5.34406">
        <ele>1390.7</ele>
        <time>2021-09-01T13:12:43Z</time>
      </trkpt>
      <trkpt lat="44.83135" lon="5.34405">
        <ele>1390.6</ele>
        <time>2021-09-01T13:12:44Z</time>
      </trkpt>
      <trkpt lat="44.83135" lon="5.34405">
        <ele>1390.5</ele>
        <time>2021-09-01T13:12:45Z</time>
      </trkpt>
      <trkpt lat="44.83134" lon="5.34406">
        <ele>1390.4</ele>
        <time>2021-09-01T13:12:47Z</time>
      </trkpt>
      <trkpt lat="44.83134" lon="5.34406">
        <ele>1390.4</ele>
        <time>2021-09-01T13:12:48Z</time>
      </trkpt>
      <trkpt lat="44.83134" lon="5.34406">
        <ele>1390.3</ele>
        <time>2021-09-01T13:12:49Z</time>
      </trkpt>
      <trkpt lat="44.83134" lon="5.34406">
        <ele>1390.3</ele>
        <time>2021-09-01T13:12:51Z</time>
      </trkpt>
      <trkpt lat="44.83127" lon="5.34374">
        <ele>1385</ele>
        <time>2021-09-01T13:14:34Z</time>
      </trkpt>
      <trkpt lat="44.83125" lon="5.34368">
        <ele>1384.2</ele>
        <time>2021-09-01T13:14:36Z</time>
      </trkpt>
      <trkpt lat="44.83124" lon="5.34363">
        <ele>1383.7</ele>
        <time>2021-09-01T13:14:37Z</time>
      </trkpt>
      <trkpt lat="44.83122" lon="5.34358">
        <ele>1383.1</ele>
        <time>2021-09-01T13:14:38Z</time>
      </trkpt>
      <trkpt lat="44.83121" lon="5.34356">
        <ele>1382.9</ele>
        <time>2021-09-01T13:14:39Z</time>
      </trkpt>
      <trkpt lat="44.8312" lon="5.3435">
        <ele>1382.3</ele>
        <time>2021-09-01T13:14:41Z</time>
      </trkpt>
      <trkpt lat="44.83119" lon="5.34345">
        <ele>1381.7</ele>
        <time>2021-09-01T13:14:42Z</time>
      </trkpt>
      <trkpt lat="44.83118" lon="5.34338">
        <ele>1381</ele>
        <time>2021-09-01T13:14:44Z</time>
      </trkpt>
      <trkpt lat="44.83118" lon="5.34336">
        <ele>1380.8</ele>
        <time>2021-09-01T13:14:45Z</time>
      </trkpt>
      <trkpt lat="44.83117" lon="5.34333">
        <ele>1380.5</ele>
        <time>2021-09-01T13:14:46Z</time>
      </trkpt>
      <trkpt lat="44.83116" lon="5.34329">
        <ele>1380</ele>
        <time>2021-09-01T13:14:48Z</time>
      </trkpt>
      <trkpt lat="44.83114" lon="5.34328">
        <ele>1379.8</ele>
        <time>2021-09-01T13:14:49Z</time>
      </trkpt>
      <trkpt lat="44.83113" lon="5.34327">
        <ele>1379.6</ele>
        <time>2021-09-01T13:14:50Z</time>
      </trkpt>
      <trkpt lat="44.8311" lon="5.34325">
        <ele>1379.2</ele>
        <time>2021-09-01T13:14:52Z</time>
      </trkpt>
      <trkpt lat="44.83108" lon="5.34323">
        <ele>1378.8</ele>
        <time>2021-09-01T13:14:53Z</time>
      </trkpt>
      <trkpt lat="44.83106" lon="5.3432">
        <ele>1378.4</ele>
        <time>2021-09-01T13:14:54Z</time>
      </trkpt>
      <trkpt lat="44.83105" lon="5.34318">
        <ele>1378.3</ele>
        <time>2021-09-01T13:14:55Z</time>
      </trkpt>
      <trkpt lat="44.83103" lon="5.34313">
        <ele>1377.7</ele>
        <time>2021-09-01T13:14:57Z</time>
      </trkpt>
      <trkpt lat="44.831" lon="5.34308">
        <ele>1377.2</ele>
        <time>2021-09-01T13:14:58Z</time>
      </trkpt>
      <trkpt lat="44.83098" lon="5.34304">
        <ele>1376.8</ele>
        <time>2021-09-01T13:14:59Z</time>
      </trkpt>
      <trkpt lat="44.83095" lon="5.34301">
        <ele>1376.4</ele>
        <time>2021-09-01T13:15:01Z</time>
      </trkpt>
      <trkpt lat="44.8309" lon="5.34296">
        <ele>1375.7</ele>
        <time>2021-09-01T13:15:02Z</time>
      </trkpt>
      <trkpt lat="44.83087" lon="5.34289">
        <ele>1375</ele>
        <time>2021-09-01T13:15:04Z</time>
      </trkpt>
      <trkpt lat="44.83085" lon="5.34284">
        <ele>1374.5</ele>
        <time>2021-09-01T13:15:05Z</time>
      </trkpt>
      <trkpt lat="44.83081" lon="5.34278">
        <ele>1373.8</ele>
        <time>2021-09-01T13:15:06Z</time>
      </trkpt>
      <trkpt lat="44.83078" lon="5.34274">
        <ele>1373.3</ele>
        <time>2021-09-01T13:15:07Z</time>
      </trkpt>
      <trkpt lat="44.83075" lon="5.3427">
        <ele>1372.8</ele>
        <time>2021-09-01T13:15:08Z</time>
      </trkpt>
      <trkpt lat="44.83071" lon="5.34266">
        <ele>1372.2</ele>
        <time>2021-09-01T13:15:10Z</time>
      </trkpt>
      <trkpt lat="44.83069" lon="5.34262">
        <ele>1371.7</ele>
        <time>2021-09-01T13:15:11Z</time>
      </trkpt>
      <trkpt lat="44.83066" lon="5.34255">
        <ele>1371</ele>
        <time>2021-09-01T13:15:13Z</time>
      </trkpt>
      <trkpt lat="44.83063" lon="5.34252">
        <ele>1370.5</ele>
        <time>2021-09-01T13:15:14Z</time>
      </trkpt>
      <trkpt lat="44.8306" lon="5.34249">
        <ele>1370</ele>
        <time>2021-09-01T13:15:15Z</time>
      </trkpt>
      <trkpt lat="44.83055" lon="5.34244">
        <ele>1369.3</ele>
        <time>2021-09-01T13:15:17Z</time>
      </trkpt>
      <trkpt lat="44.83052" lon="5.34241">
        <ele>1368.9</ele>
        <time>2021-09-01T13:15:18Z</time>
      </trkpt>
      <trkpt lat="44.83049" lon="5.34234">
        <ele>1368.4</ele>
        <time>2021-09-01T13:15:19Z</time>
      </trkpt>
      <trkpt lat="44.83048" lon="5.34229">
        <ele>1368</ele>
        <time>2021-09-01T13:15:20Z</time>
      </trkpt>
      <trkpt lat="44.83047" lon="5.34225">
        <ele>1367.7</ele>
        <time>2021-09-01T13:15:21Z</time>
      </trkpt>
      <trkpt lat="44.83044" lon="5.34217">
        <ele>1367.1</ele>
        <time>2021-09-01T13:15:23Z</time>
      </trkpt>
      <trkpt lat="44.83042" lon="5.34212">
        <ele>1366.6</ele>
        <time>2021-09-01T13:15:24Z</time>
      </trkpt>
      <trkpt lat="44.8304" lon="5.34205">
        <ele>1365.9</ele>
        <time>2021-09-01T13:15:25Z</time>
      </trkpt>
      <trkpt lat="44.83038" lon="5.34201">
        <ele>1365.5</ele>
        <time>2021-09-01T13:15:26Z</time>
      </trkpt>
      <trkpt lat="44.83036" lon="5.34198">
        <ele>1365.1</ele>
        <time>2021-09-01T13:15:27Z</time>
      </trkpt>
      <trkpt lat="44.83034" lon="5.34195">
        <ele>1364.8</ele>
        <time>2021-09-01T13:15:28Z</time>
      </trkpt>
      <trkpt lat="44.83031" lon="5.34192">
        <ele>1364.3</ele>
        <time>2021-09-01T13:15:30Z</time>
      </trkpt>
      <trkpt lat="44.83028" lon="5.34184">
        <ele>1363.5</ele>
        <time>2021-09-01T13:15:32Z</time>
      </trkpt>
      <trkpt lat="44.83025" lon="5.34179">
        <ele>1363</ele>
        <time>2021-09-01T13:15:33Z</time>
      </trkpt>
      <trkpt lat="44.83022" lon="5.34173">
        <ele>1362.2</ele>
        <time>2021-09-01T13:15:34Z</time>
      </trkpt>
      <trkpt lat="44.83019" lon="5.34168">
        <ele>1361.4</ele>
        <time>2021-09-01T13:15:36Z</time>
      </trkpt>
      <trkpt lat="44.83017" lon="5.34164">
        <ele>1360.9</ele>
        <time>2021-09-01T13:15:37Z</time>
      </trkpt>
      <trkpt lat="44.83017" lon="5.34163">
        <ele>1360.7</ele>
        <time>2021-09-01T13:15:38Z</time>
      </trkpt>
      <trkpt lat="44.83016" lon="5.34161">
        <ele>1360.5</ele>
        <time>2021-09-01T13:15:39Z</time>
      </trkpt>
      <trkpt lat="44.83016" lon="5.3416">
        <ele>1360.4</ele>
        <time>2021-09-01T13:15:40Z</time>
      </trkpt>
      <trkpt lat="44.83016" lon="5.3416">
        <ele>1360.3</ele>
        <time>2021-09-01T13:15:42Z</time>
      </trkpt>
      <trkpt lat="44.83016" lon="5.3416">
        <ele>1360.2</ele>
        <time>2021-09-01T13:15:43Z</time>
      </trkpt>
      <trkpt lat="44.83015" lon="5.3416">
        <ele>1360.1</ele>
        <time>2021-09-01T13:15:44Z</time>
      </trkpt>
      <trkpt lat="44.83014" lon="5.3416">
        <ele>1360</ele>
        <time>2021-09-01T13:15:46Z</time>
      </trkpt>
      <trkpt lat="44.83014" lon="5.3416">
        <ele>1359.9</ele>
        <time>2021-09-01T13:15:47Z</time>
      </trkpt>
      <trkpt lat="44.83013" lon="5.34159">
        <ele>1359.6</ele>
        <time>2021-09-01T13:15:49Z</time>
      </trkpt>
      <trkpt lat="44.83004" lon="5.34156">
        <ele>1357.9</ele>
        <time>2021-09-01T13:15:52Z</time>
      </trkpt>
      <trkpt lat="44.82999" lon="5.34155">
        <ele>1356.7</ele>
        <time>2021-09-01T13:15:53Z</time>
      </trkpt>
      <trkpt lat="44.82993" lon="5.34153">
        <ele>1355.2</ele>
        <time>2021-09-01T13:15:55Z</time>
      </trkpt>
      <trkpt lat="44.82987" lon="5.3415">
        <ele>1353.6</ele>
        <time>2021-09-01T13:15:56Z</time>
      </trkpt>
      <trkpt lat="44.82979" lon="5.34146">
        <ele>1351.1</ele>
        <time>2021-09-01T13:15:57Z</time>
      </trkpt>
      <trkpt lat="44.82974" lon="5.34142">
        <ele>1349.5</ele>
        <time>2021-09-01T13:15:59Z</time>
      </trkpt>
      <trkpt lat="44.82972" lon="5.34138">
        <ele>1348.4</ele>
        <time>2021-09-01T13:16:00Z</time>
      </trkpt>
      <trkpt lat="44.82965" lon="5.3413">
        <ele>1346</ele>
        <time>2021-09-01T13:16:02Z</time>
      </trkpt>
      <trkpt lat="44.82959" lon="5.34124">
        <ele>1344</ele>
        <time>2021-09-01T13:16:03Z</time>
      </trkpt>
      <trkpt lat="44.82955" lon="5.3412">
        <ele>1342.6</ele>
        <time>2021-09-01T13:16:04Z</time>
      </trkpt>
      <trkpt lat="44.82951" lon="5.34114">
        <ele>1341.1</ele>
        <time>2021-09-01T13:16:06Z</time>
      </trkpt>
      <trkpt lat="44.82947" lon="5.3411">
        <ele>1340</ele>
        <time>2021-09-01T13:16:07Z</time>
      </trkpt>
      <trkpt lat="44.82942" lon="5.34108">
        <ele>1338.7</ele>
        <time>2021-09-01T13:16:08Z</time>
      </trkpt>
      <trkpt lat="44.82936" lon="5.34106">
        <ele>1337.2</ele>
        <time>2021-09-01T13:16:09Z</time>
      </trkpt>
      <trkpt lat="44.82932" lon="5.34103">
        <ele>1336.1</ele>
        <time>2021-09-01T13:16:11Z</time>
      </trkpt>
      <trkpt lat="44.82929" lon="5.341">
        <ele>1335.2</ele>
        <time>2021-09-01T13:16:12Z</time>
      </trkpt>
      <trkpt lat="44.82926" lon="5.34097">
        <ele>1334.5</ele>
        <time>2021-09-01T13:16:13Z</time>
      </trkpt>
      <trkpt lat="44.82922" lon="5.34091">
        <ele>1333.2</ele>
        <time>2021-09-01T13:16:14Z</time>
      </trkpt>
      <trkpt lat="44.82919" lon="5.34088">
        <ele>1332.5</ele>
        <time>2021-09-01T13:16:16Z</time>
      </trkpt>
      <trkpt lat="44.82917" lon="5.34086">
        <ele>1331.7</ele>
        <time>2021-09-01T13:16:17Z</time>
      </trkpt>
      <trkpt lat="44.82914" lon="5.34083">
        <ele>1330.9</ele>
        <time>2021-09-01T13:16:18Z</time>
      </trkpt>
      <trkpt lat="44.82911" lon="5.34081">
        <ele>1330.1</ele>
        <time>2021-09-01T13:16:19Z</time>
      </trkpt>
      <trkpt lat="44.8291" lon="5.3408">
        <ele>1329.9</ele>
        <time>2021-09-01T13:16:20Z</time>
      </trkpt>
      <trkpt lat="44.82907" lon="5.3408">
        <ele>1329.1</ele>
        <time>2021-09-01T13:16:22Z</time>
      </trkpt>
      <trkpt lat="44.82903" lon="5.34077">
        <ele>1328.1</ele>
        <time>2021-09-01T13:16:24Z</time>
      </trkpt>
      <trkpt lat="44.829" lon="5.34076">
        <ele>1321.4</ele>
        <time>2021-09-01T13:16:25Z</time>
      </trkpt>
      <trkpt lat="44.829" lon="5.34074">
        <ele>1321.1</ele>
        <time>2021-09-01T13:16:27Z</time>
      </trkpt>
      <trkpt lat="44.829" lon="5.34073">
        <ele>1320.9</ele>
        <time>2021-09-01T13:16:29Z</time>
      </trkpt>
      <trkpt lat="44.829" lon="5.34073">
        <ele>1320.8</ele>
        <time>2021-09-01T13:16:30Z</time>
      </trkpt>
      <trkpt lat="44.829" lon="5.34072">
        <ele>1320.7</ele>
        <time>2021-09-01T13:16:31Z</time>
      </trkpt>
      <trkpt lat="44.82902" lon="5.34072">
        <ele>1320.1</ele>
        <time>2021-09-01T13:16:33Z</time>
      </trkpt>
      <trkpt lat="44.82902" lon="5.34072">
        <ele>1320.1</ele>
        <time>2021-09-01T13:16:34Z</time>
      </trkpt>
      <trkpt lat="44.82902" lon="5.34072">
        <ele>1320.1</ele>
        <time>2021-09-01T13:16:35Z</time>
      </trkpt>
      <trkpt lat="44.82902" lon="5.34072">
        <ele>1320.1</ele>
        <time>2021-09-01T13:16:36Z</time>
      </trkpt>
      <trkpt lat="44.82902" lon="5.34072">
        <ele>1320.1</ele>
        <time>2021-09-01T13:16:38Z</time>
      </trkpt>
      <trkpt lat="44.82902" lon="5.34072">
        <ele>1320.1</ele>
        <time>2021-09-01T13:16:39Z</time>
      </trkpt>
      <trkpt lat="44.82902" lon="5.34072">
        <ele>1320</ele>
        <time>2021-09-01T13:16:40Z</time>
      </trkpt>
      <trkpt lat="44.82886" lon="5.34103">
        <ele>1312.3</ele>
        <time>2021-09-01T13:18:10Z</time>
      </trkpt>
      <trkpt lat="44.82881" lon="5.34102">
        <ele>1310.9</ele>
        <time>2021-09-01T13:18:12Z</time>
      </trkpt>
      <trkpt lat="44.82878" lon="5.34101">
        <ele>1310.2</ele>
        <time>2021-09-01T13:18:13Z</time>
      </trkpt>
      <trkpt lat="44.82875" lon="5.34099">
        <ele>1309.5</ele>
        <time>2021-09-01T13:18:14Z</time>
      </trkpt>
      <trkpt lat="44.82872" lon="5.34097">
        <ele>1308.8</ele>
        <time>2021-09-01T13:18:15Z</time>
      </trkpt>
      <trkpt lat="44.82868" lon="5.34096">
        <ele>1307.8</ele>
        <time>2021-09-01T13:18:16Z</time>
      </trkpt>
      <trkpt lat="44.82864" lon="5.34095">
        <ele>1306.8</ele>
        <time>2021-09-01T13:18:18Z</time>
      </trkpt>
      <trkpt lat="44.82862" lon="5.34093">
        <ele>1306.2</ele>
        <time>2021-09-01T13:18:19Z</time>
      </trkpt>
      <trkpt lat="44.8286" lon="5.34091">
        <ele>1305.5</ele>
        <time>2021-09-01T13:18:21Z</time>
      </trkpt>
      <trkpt lat="44.82859" lon="5.34087">
        <ele>1304.9</ele>
        <time>2021-09-01T13:18:22Z</time>
      </trkpt>
      <trkpt lat="44.82859" lon="5.34083">
        <ele>1304.3</ele>
        <time>2021-09-01T13:18:24Z</time>
      </trkpt>
      <trkpt lat="44.82859" lon="5.34079">
        <ele>1303.7</ele>
        <time>2021-09-01T13:18:25Z</time>
      </trkpt>
      <trkpt lat="44.82858" lon="5.34075">
        <ele>1303.1</ele>
        <time>2021-09-01T13:18:26Z</time>
      </trkpt>
      <trkpt lat="44.82858" lon="5.34072">
        <ele>1302.5</ele>
        <time>2021-09-01T13:18:28Z</time>
      </trkpt>
      <trkpt lat="44.82857" lon="5.34068">
        <ele>1301.9</ele>
        <time>2021-09-01T13:18:29Z</time>
      </trkpt>
      <trkpt lat="44.82857" lon="5.34064">
        <ele>1301.3</ele>
        <time>2021-09-01T13:18:39Z</time>
      </trkpt>
      <trkpt lat="44.82856" lon="5.3406">
        <ele>1300.7</ele>
        <time>2021-09-01T13:18:40Z</time>
      </trkpt>
      <trkpt lat="44.82854" lon="5.34051">
        <ele>1299.2</ele>
        <time>2021-09-01T13:18:41Z</time>
      </trkpt>
      <trkpt lat="44.82853" lon="5.34042">
        <ele>1297.8</ele>
        <time>2021-09-01T13:18:43Z</time>
      </trkpt>
      <trkpt lat="44.82851" lon="5.34032">
        <ele>1296.2</ele>
        <time>2021-09-01T13:18:44Z</time>
      </trkpt>
      <trkpt lat="44.8285" lon="5.3403">
        <ele>1295.7</ele>
        <time>2021-09-01T13:18:46Z</time>
      </trkpt>
      <trkpt lat="44.8285" lon="5.34028">
        <ele>1295.4</ele>
        <time>2021-09-01T13:18:47Z</time>
      </trkpt>
      <trkpt lat="44.82847" lon="5.34029">
        <ele>1294.9</ele>
        <time>2021-09-01T13:18:48Z</time>
      </trkpt>
      <trkpt lat="44.82847" lon="5.34029">
        <ele>1294.7</ele>
        <time>2021-09-01T13:18:50Z</time>
      </trkpt>
      <trkpt lat="44.82846" lon="5.34029">
        <ele>1294.6</ele>
        <time>2021-09-01T13:18:51Z</time>
      </trkpt>
      <trkpt lat="44.82841" lon="5.3403">
        <ele>1293.4</ele>
        <time>2021-09-01T13:18:53Z</time>
      </trkpt>
      <trkpt lat="44.82838" lon="5.34031">
        <ele>1292.5</ele>
        <time>2021-09-01T13:18:54Z</time>
      </trkpt>
      <trkpt lat="44.82834" lon="5.34031">
        <ele>1291.6</ele>
        <time>2021-09-01T13:18:56Z</time>
      </trkpt>
      <trkpt lat="44.8283" lon="5.34032">
        <ele>1290.8</ele>
        <time>2021-09-01T13:18:58Z</time>
      </trkpt>
      <trkpt lat="44.82827" lon="5.34032">
        <ele>1289.9</ele>
        <time>2021-09-01T13:19:23Z</time>
      </trkpt>
      <trkpt lat="44.82823" lon="5.34033">
        <ele>1289</ele>
        <time>2021-09-01T13:19:24Z</time>
      </trkpt>
      <trkpt lat="44.82816" lon="5.3403">
        <ele>1287.3</ele>
        <time>2021-09-01T13:19:25Z</time>
      </trkpt>
      <trkpt lat="44.82809" lon="5.34028">
        <ele>1285.7</ele>
        <time>2021-09-01T13:19:27Z</time>
      </trkpt>
      <trkpt lat="44.82804" lon="5.34027">
        <ele>1284.5</ele>
        <time>2021-09-01T13:19:28Z</time>
      </trkpt>
      <trkpt lat="44.82799" lon="5.34025">
        <ele>1283.5</ele>
        <time>2021-09-01T13:19:29Z</time>
      </trkpt>
      <trkpt lat="44.82793" lon="5.34024">
        <ele>1281.9</ele>
        <time>2021-09-01T13:19:31Z</time>
      </trkpt>
      <trkpt lat="44.82788" lon="5.34022">
        <ele>1280.9</ele>
        <time>2021-09-01T13:19:32Z</time>
      </trkpt>
      <trkpt lat="44.82786" lon="5.34022">
        <ele>1280.4</ele>
        <time>2021-09-01T13:19:33Z</time>
      </trkpt>
      <trkpt lat="44.82783" lon="5.34021">
        <ele>1279.7</ele>
        <time>2021-09-01T13:19:35Z</time>
      </trkpt>
      <trkpt lat="44.8278" lon="5.3402">
        <ele>1279</ele>
        <time>2021-09-01T13:19:36Z</time>
      </trkpt>
      <trkpt lat="44.82775" lon="5.3402">
        <ele>1277.9</ele>
        <time>2021-09-01T13:19:37Z</time>
      </trkpt>
      <trkpt lat="44.82771" lon="5.34018">
        <ele>1277.1</ele>
        <time>2021-09-01T13:19:39Z</time>
      </trkpt>
      <trkpt lat="44.82768" lon="5.34018">
        <ele>1276.4</ele>
        <time>2021-09-01T13:19:40Z</time>
      </trkpt>
      <trkpt lat="44.82762" lon="5.34016">
        <ele>1275</ele>
        <time>2021-09-01T13:19:42Z</time>
      </trkpt>
      <trkpt lat="44.82757" lon="5.34014">
        <ele>1273.8</ele>
        <time>2021-09-01T13:19:43Z</time>
      </trkpt>
      <trkpt lat="44.82752" lon="5.34013">
        <ele>1272.8</ele>
        <time>2021-09-01T13:19:44Z</time>
      </trkpt>
      <trkpt lat="44.82748" lon="5.34013">
        <ele>1272</ele>
        <time>2021-09-01T13:19:46Z</time>
      </trkpt>
      <trkpt lat="44.82745" lon="5.34012">
        <ele>1271.3</ele>
        <time>2021-09-01T13:19:47Z</time>
      </trkpt>
      <trkpt lat="44.8274" lon="5.34011">
        <ele>1270.4</ele>
        <time>2021-09-01T13:19:48Z</time>
      </trkpt>
      <trkpt lat="44.82738" lon="5.34011">
        <ele>1269.9</ele>
        <time>2021-09-01T13:19:49Z</time>
      </trkpt>
      <trkpt lat="44.82735" lon="5.34009">
        <ele>1269.3</ele>
        <time>2021-09-01T13:19:50Z</time>
      </trkpt>
      <trkpt lat="44.8273" lon="5.34007">
        <ele>1268.4</ele>
        <time>2021-09-01T13:19:52Z</time>
      </trkpt>
      <trkpt lat="44.82727" lon="5.34005">
        <ele>1267.8</ele>
        <time>2021-09-01T13:19:53Z</time>
      </trkpt>
      <trkpt lat="44.82723" lon="5.34003">
        <ele>1267</ele>
        <time>2021-09-01T13:19:54Z</time>
      </trkpt>
      <trkpt lat="44.8272" lon="5.33999">
        <ele>1266.3</ele>
        <time>2021-09-01T13:19:56Z</time>
      </trkpt>
      <trkpt lat="44.82716" lon="5.33992">
        <ele>1265.2</ele>
        <time>2021-09-01T13:19:57Z</time>
      </trkpt>
      <trkpt lat="44.82714" lon="5.33986">
        <ele>1264.5</ele>
        <time>2021-09-01T13:19:59Z</time>
      </trkpt>
      <trkpt lat="44.82714" lon="5.33982">
        <ele>1263.9</ele>
        <time>2021-09-01T13:20:00Z</time>
      </trkpt>
      <trkpt lat="44.82714" lon="5.33977">
        <ele>1263.3</ele>
        <time>2021-09-01T13:20:01Z</time>
      </trkpt>
      <trkpt lat="44.82714" lon="5.33974">
        <ele>1263</ele>
        <time>2021-09-01T13:20:02Z</time>
      </trkpt>
      <trkpt lat="44.82714" lon="5.3397">
        <ele>1262.6</ele>
        <time>2021-09-01T13:20:03Z</time>
      </trkpt>
      <trkpt lat="44.82714" lon="5.33967">
        <ele>1262.2</ele>
        <time>2021-09-01T13:20:05Z</time>
      </trkpt>
      <trkpt lat="44.82716" lon="5.33965">
        <ele>1262</ele>
        <time>2021-09-01T13:20:07Z</time>
      </trkpt>
      <trkpt lat="44.82717" lon="5.33965">
        <ele>1261.8</ele>
        <time>2021-09-01T13:20:08Z</time>
      </trkpt>
      <trkpt lat="44.82718" lon="5.33963">
        <ele>1261.6</ele>
        <time>2021-09-01T13:20:09Z</time>
      </trkpt>
      <trkpt lat="44.82719" lon="5.33961">
        <ele>1261.4</ele>
        <time>2021-09-01T13:20:11Z</time>
      </trkpt>
      <trkpt lat="44.82719" lon="5.33958">
        <ele>1261.3</ele>
        <time>2021-09-01T13:20:13Z</time>
      </trkpt>
      <trkpt lat="44.8272" lon="5.33956">
        <ele>1261.1</ele>
        <time>2021-09-01T13:20:14Z</time>
      </trkpt>
      <trkpt lat="44.82721" lon="5.33954">
        <ele>1260.9</ele>
        <time>2021-09-01T13:20:16Z</time>
      </trkpt>
      <trkpt lat="44.82721" lon="5.33952">
        <ele>1260.8</ele>
        <time>2021-09-01T13:20:28Z</time>
      </trkpt>
      <trkpt lat="44.82722" lon="5.3395">
        <ele>1260.6</ele>
        <time>2021-09-01T13:20:30Z</time>
      </trkpt>
      <trkpt lat="44.82723" lon="5.33948">
        <ele>1260.4</ele>
        <time>2021-09-01T13:20:31Z</time>
      </trkpt>
      <trkpt lat="44.82723" lon="5.33945">
        <ele>1260.3</ele>
        <time>2021-09-01T13:20:33Z</time>
      </trkpt>
      <trkpt lat="44.82722" lon="5.33942">
        <ele>1260.1</ele>
        <time>2021-09-01T13:20:34Z</time>
      </trkpt>
      <trkpt lat="44.82722" lon="5.33941">
        <ele>1260.1</ele>
        <time>2021-09-01T13:20:36Z</time>
      </trkpt>
      <trkpt lat="44.82723" lon="5.33941">
        <ele>1260</ele>
        <time>2021-09-01T13:20:38Z</time>
      </trkpt>
      <trkpt lat="44.82723" lon="5.3394">
        <ele>1260</ele>
        <time>2021-09-01T13:20:39Z</time>
      </trkpt>
      <trkpt lat="44.82723" lon="5.3394">
        <ele>1260</ele>
        <time>2021-09-01T13:20:41Z</time>
      </trkpt>
      <trkpt lat="44.82723" lon="5.33939">
        <ele>1259.9</ele>
        <time>2021-09-01T13:20:43Z</time>
      </trkpt>
      <trkpt lat="44.82722" lon="5.33939">
        <ele>1259.9</ele>
        <time>2021-09-01T13:20:45Z</time>
      </trkpt>
      <trkpt lat="44.82722" lon="5.33939">
        <ele>1259.9</ele>
        <time>2021-09-01T13:20:47Z</time>
      </trkpt>
      <trkpt lat="44.82722" lon="5.33938">
        <ele>1259.9</ele>
        <time>2021-09-01T13:20:49Z</time>
      </trkpt>
      <trkpt lat="44.82722" lon="5.33938">
        <ele>1259.9</ele>
        <time>2021-09-01T13:20:50Z</time>
      </trkpt>
      <trkpt lat="44.82722" lon="5.33938">
        <ele>1259.9</ele>
        <time>2021-09-01T13:20:52Z</time>
      </trkpt>
      <trkpt lat="44.82722" lon="5.33939">
        <ele>1259.9</ele>
        <time>2021-09-01T13:20:53Z</time>
      </trkpt>
      <trkpt lat="44.82722" lon="5.33938">
        <ele>1259.8</ele>
        <time>2021-09-01T13:20:55Z</time>
      </trkpt>
      <trkpt lat="44.82723" lon="5.33938">
        <ele>1259.8</ele>
        <time>2021-09-01T13:20:56Z</time>
      </trkpt>
      <trkpt lat="44.82725" lon="5.33937">
        <ele>1259.7</ele>
        <time>2021-09-01T13:20:58Z</time>
      </trkpt>
      <trkpt lat="44.82725" lon="5.33937">
        <ele>1259.6</ele>
        <time>2021-09-01T13:20:59Z</time>
      </trkpt>
      <trkpt lat="44.82727" lon="5.33936">
        <ele>1259.4</ele>
        <time>2021-09-01T13:21:01Z</time>
      </trkpt>
      <trkpt lat="44.82733" lon="5.33935">
        <ele>1258.9</ele>
        <time>2021-09-01T13:21:03Z</time>
      </trkpt>
      <trkpt lat="44.82735" lon="5.33934">
        <ele>1258.7</ele>
        <time>2021-09-01T13:21:04Z</time>
      </trkpt>
      <trkpt lat="44.82736" lon="5.33934">
        <ele>1258.6</ele>
        <time>2021-09-01T13:21:06Z</time>
      </trkpt>
      <trkpt lat="44.82736" lon="5.33934">
        <ele>1258.6</ele>
        <time>2021-09-01T13:21:08Z</time>
      </trkpt>
      <trkpt lat="44.82733" lon="5.33943">
        <ele>1257.8</ele>
        <time>2021-09-01T13:21:10Z</time>
      </trkpt>
      <trkpt lat="44.82731" lon="5.33947">
        <ele>1257.4</ele>
        <time>2021-09-01T13:21:11Z</time>
      </trkpt>
      <trkpt lat="44.8273" lon="5.33949">
        <ele>1257.1</ele>
        <time>2021-09-01T13:21:13Z</time>
      </trkpt>
      <trkpt lat="44.8273" lon="5.3395">
        <ele>1257</ele>
        <time>2021-09-01T13:21:14Z</time>
      </trkpt>
      <trkpt lat="44.8273" lon="5.3395">
        <ele>1257</ele>
        <time>2021-09-01T13:21:15Z</time>
      </trkpt>
      <trkpt lat="44.82732" lon="5.33946">
        <ele>1256.5</ele>
        <time>2021-09-01T13:21:16Z</time>
      </trkpt>
      <trkpt lat="44.82732" lon="5.33945">
        <ele>1256.3</ele>
        <time>2021-09-01T13:21:17Z</time>
      </trkpt>
      <trkpt lat="44.82733" lon="5.33946">
        <ele>1256.3</ele>
        <time>2021-09-01T13:21:18Z</time>
      </trkpt>
      <trkpt lat="44.82733" lon="5.33947">
        <ele>1256.2</ele>
        <time>2021-09-01T13:21:20Z</time>
      </trkpt>
      <trkpt lat="44.82732" lon="5.33948">
        <ele>1256</ele>
        <time>2021-09-01T13:21:21Z</time>
      </trkpt>
      <trkpt lat="44.82732" lon="5.33949">
        <ele>1255.9</ele>
        <time>2021-09-01T13:21:22Z</time>
      </trkpt>
      <trkpt lat="44.82732" lon="5.33949">
        <ele>1255.8</ele>
        <time>2021-09-01T13:21:24Z</time>
      </trkpt>
      <trkpt lat="44.82732" lon="5.3395">
        <ele>1255.8</ele>
        <time>2021-09-01T13:21:26Z</time>
      </trkpt>
      <trkpt lat="44.82732" lon="5.3395">
        <ele>1255.7</ele>
        <time>2021-09-01T13:21:27Z</time>
      </trkpt>
      <trkpt lat="44.82731" lon="5.33948">
        <ele>1255.4</ele>
        <time>2021-09-01T13:21:29Z</time>
      </trkpt>
      <trkpt lat="44.8273" lon="5.33947">
        <ele>1255.2</ele>
        <time>2021-09-01T13:21:30Z</time>
      </trkpt>
      <trkpt lat="44.82729" lon="5.33946">
        <ele>1255</ele>
        <time>2021-09-01T13:21:31Z</time>
      </trkpt>
      <trkpt lat="44.82727" lon="5.33945">
        <ele>1254.7</ele>
        <time>2021-09-01T13:21:33Z</time>
      </trkpt>
      <trkpt lat="44.82726" lon="5.33944">
        <ele>1254.4</ele>
        <time>2021-09-01T13:21:34Z</time>
      </trkpt>
      <trkpt lat="44.82725" lon="5.33943">
        <ele>1254.1</ele>
        <time>2021-09-01T13:21:35Z</time>
      </trkpt>
      <trkpt lat="44.82724" lon="5.3394">
        <ele>1253.8</ele>
        <time>2021-09-01T13:21:36Z</time>
      </trkpt>
      <trkpt lat="44.82718" lon="5.3394">
        <ele>1252.4</ele>
        <time>2021-09-01T13:21:37Z</time>
      </trkpt>
      <trkpt lat="44.82712" lon="5.33941">
        <ele>1251.2</ele>
        <time>2021-09-01T13:21:38Z</time>
      </trkpt>
      <trkpt lat="44.82707" lon="5.33943">
        <ele>1249.9</ele>
        <time>2021-09-01T13:21:40Z</time>
      </trkpt>
      <trkpt lat="44.827" lon="5.33943">
        <ele>1248.3</ele>
        <time>2021-09-01T13:21:42Z</time>
      </trkpt>
      <trkpt lat="44.82696" lon="5.33943">
        <ele>1247.5</ele>
        <time>2021-09-01T13:21:43Z</time>
      </trkpt>
      <trkpt lat="44.82693" lon="5.33943">
        <ele>1246.7</ele>
        <time>2021-09-01T13:21:44Z</time>
      </trkpt>
      <trkpt lat="44.82692" lon="5.33943">
        <ele>1246.5</ele>
        <time>2021-09-01T13:21:45Z</time>
      </trkpt>
      <trkpt lat="44.8269" lon="5.33943">
        <ele>1246.1</ele>
        <time>2021-09-01T13:21:46Z</time>
      </trkpt>
      <trkpt lat="44.82689" lon="5.33944">
        <ele>1245.8</ele>
        <time>2021-09-01T13:21:47Z</time>
      </trkpt>
      <trkpt lat="44.82686" lon="5.33946">
        <ele>1244.9</ele>
        <time>2021-09-01T13:21:48Z</time>
      </trkpt>
      <trkpt lat="44.82685" lon="5.33947">
        <ele>1244.6</ele>
        <time>2021-09-01T13:21:49Z</time>
      </trkpt>
      <trkpt lat="44.82678" lon="5.33952">
        <ele>1242.7</ele>
        <time>2021-09-01T13:21:51Z</time>
      </trkpt>
      <trkpt lat="44.82673" lon="5.33956">
        <ele>1241.3</ele>
        <time>2021-09-01T13:21:52Z</time>
      </trkpt>
      <trkpt lat="44.82669" lon="5.33957">
        <ele>1240.2</ele>
        <time>2021-09-01T13:21:54Z</time>
      </trkpt>
      <trkpt lat="44.82664" lon="5.33958">
        <ele>1239</ele>
        <time>2021-09-01T13:21:55Z</time>
      </trkpt>
      <trkpt lat="44.82659" lon="5.33956">
        <ele>1237.6</ele>
        <time>2021-09-01T13:21:57Z</time>
      </trkpt>
      <trkpt lat="44.82655" lon="5.33956">
        <ele>1236.6</ele>
        <time>2021-09-01T13:21:59Z</time>
      </trkpt>
      <trkpt lat="44.8265" lon="5.33954">
        <ele>1235.3</ele>
        <time>2021-09-01T13:22:00Z</time>
      </trkpt>
      <trkpt lat="44.82646" lon="5.33951">
        <ele>1234.1</ele>
        <time>2021-09-01T13:22:01Z</time>
      </trkpt>
      <trkpt lat="44.8264" lon="5.3395">
        <ele>1232.8</ele>
        <time>2021-09-01T13:22:03Z</time>
      </trkpt>
      <trkpt lat="44.82635" lon="5.33948">
        <ele>1231.6</ele>
        <time>2021-09-01T13:22:04Z</time>
      </trkpt>
      <trkpt lat="44.82629" lon="5.33945">
        <ele>1230.3</ele>
        <time>2021-09-01T13:22:06Z</time>
      </trkpt>
      <trkpt lat="44.82625" lon="5.33942">
        <ele>1229.2</ele>
        <time>2021-09-01T13:22:07Z</time>
      </trkpt>
      <trkpt lat="44.82622" lon="5.3394">
        <ele>1228.4</ele>
        <time>2021-09-01T13:22:08Z</time>
      </trkpt>
      <trkpt lat="44.82619" lon="5.33937">
        <ele>1227.7</ele>
        <time>2021-09-01T13:22:10Z</time>
      </trkpt>
      <trkpt lat="44.82615" lon="5.33931">
        <ele>1226.2</ele>
        <time>2021-09-01T13:22:12Z</time>
      </trkpt>
      <trkpt lat="44.8261" lon="5.33924">
        <ele>1224.4</ele>
        <time>2021-09-01T13:22:13Z</time>
      </trkpt>
      <trkpt lat="44.82607" lon="5.33919">
        <ele>1223.3</ele>
        <time>2021-09-01T13:22:14Z</time>
      </trkpt>
      <trkpt lat="44.82603" lon="5.33913">
        <ele>1222.1</ele>
        <time>2021-09-01T13:22:16Z</time>
      </trkpt>
      <trkpt lat="44.82599" lon="5.33908">
        <ele>1220.8</ele>
        <time>2021-09-01T13:22:17Z</time>
      </trkpt>
      <trkpt lat="44.82595" lon="5.33906">
        <ele>1219.8</ele>
        <time>2021-09-01T13:22:18Z</time>
      </trkpt>
      <trkpt lat="44.82591" lon="5.33904">
        <ele>1218.9</ele>
        <time>2021-09-01T13:22:20Z</time>
      </trkpt>
      <trkpt lat="44.82585" lon="5.33904">
        <ele>1217.7</ele>
        <time>2021-09-01T13:22:21Z</time>
      </trkpt>
      <trkpt lat="44.8258" lon="5.33903">
        <ele>1216.7</ele>
        <time>2021-09-01T13:22:23Z</time>
      </trkpt>
      <trkpt lat="44.82575" lon="5.33903">
        <ele>1215.7</ele>
        <time>2021-09-01T13:22:24Z</time>
      </trkpt>
      <trkpt lat="44.82571" lon="5.33904">
        <ele>1215</ele>
        <time>2021-09-01T13:22:25Z</time>
      </trkpt>
      <trkpt lat="44.82567" lon="5.33905">
        <ele>1214.3</ele>
        <time>2021-09-01T13:22:26Z</time>
      </trkpt>
      <trkpt lat="44.82561" lon="5.33903">
        <ele>1213.1</ele>
        <time>2021-09-01T13:22:27Z</time>
      </trkpt>
      <trkpt lat="44.82558" lon="5.33903">
        <ele>1212.4</ele>
        <time>2021-09-01T13:22:29Z</time>
      </trkpt>
      <trkpt lat="44.82557" lon="5.33903">
        <ele>1212.2</ele>
        <time>2021-09-01T13:22:30Z</time>
      </trkpt>
      <trkpt lat="44.82554" lon="5.33902">
        <ele>1211.6</ele>
        <time>2021-09-01T13:22:31Z</time>
      </trkpt>
      <trkpt lat="44.82553" lon="5.33901">
        <ele>1211.3</ele>
        <time>2021-09-01T13:22:32Z</time>
      </trkpt>
      <trkpt lat="44.8255" lon="5.33898">
        <ele>1210.6</ele>
        <time>2021-09-01T13:22:33Z</time>
      </trkpt>
      <trkpt lat="44.82548" lon="5.33897">
        <ele>1210</ele>
        <time>2021-09-01T13:22:34Z</time>
      </trkpt>
      <trkpt lat="44.82545" lon="5.33896">
        <ele>1209.6</ele>
        <time>2021-09-01T13:22:36Z</time>
      </trkpt>
      <trkpt lat="44.82543" lon="5.33895">
        <ele>1209.1</ele>
        <time>2021-09-01T13:22:38Z</time>
      </trkpt>
      <trkpt lat="44.82543" lon="5.33895">
        <ele>1209</ele>
        <time>2021-09-01T13:22:39Z</time>
      </trkpt>
      <trkpt lat="44.82543" lon="5.33895">
        <ele>1208.9</ele>
        <time>2021-09-01T13:22:41Z</time>
      </trkpt>
      <trkpt lat="44.82542" lon="5.33895">
        <ele>1208.8</ele>
        <time>2021-09-01T13:22:42Z</time>
      </trkpt>
      <trkpt lat="44.82542" lon="5.33895">
        <ele>1208.8</ele>
        <time>2021-09-01T13:22:44Z</time>
      </trkpt>
      <trkpt lat="44.82542" lon="5.33895">
        <ele>1208.7</ele>
        <time>2021-09-01T13:22:45Z</time>
      </trkpt>
      <trkpt lat="44.82542" lon="5.33896">
        <ele>1208.7</ele>
        <time>2021-09-01T13:22:47Z</time>
      </trkpt>
      <trkpt lat="44.82536" lon="5.33889">
        <ele>1207.2</ele>
        <time>2021-09-01T13:22:53Z</time>
      </trkpt>
      <trkpt lat="44.82534" lon="5.33887">
        <ele>1206.5</ele>
        <time>2021-09-01T13:22:54Z</time>
      </trkpt>
      <trkpt lat="44.82529" lon="5.33885">
        <ele>1205.5</ele>
        <time>2021-09-01T13:22:56Z</time>
      </trkpt>
      <trkpt lat="44.82522" lon="5.3388">
        <ele>1204</ele>
        <time>2021-09-01T13:22:58Z</time>
      </trkpt>
      <trkpt lat="44.82518" lon="5.33879">
        <ele>1203.1</ele>
        <time>2021-09-01T13:22:59Z</time>
      </trkpt>
      <trkpt lat="44.82514" lon="5.33878">
        <ele>1202.2</ele>
        <time>2021-09-01T13:23:00Z</time>
      </trkpt>
      <trkpt lat="44.82508" lon="5.33876">
        <ele>1201</ele>
        <time>2021-09-01T13:23:01Z</time>
      </trkpt>
      <trkpt lat="44.82503" lon="5.33876">
        <ele>1200.1</ele>
        <time>2021-09-01T13:23:03Z</time>
      </trkpt>
      <trkpt lat="44.825" lon="5.33874">
        <ele>1199.3</ele>
        <time>2021-09-01T13:23:04Z</time>
      </trkpt>
      <trkpt lat="44.82496" lon="5.33872">
        <ele>1198.4</ele>
        <time>2021-09-01T13:23:05Z</time>
      </trkpt>
      <trkpt lat="44.82492" lon="5.33868">
        <ele>1197.3</ele>
        <time>2021-09-01T13:23:06Z</time>
      </trkpt>
      <trkpt lat="44.82487" lon="5.33865">
        <ele>1196.2</ele>
        <time>2021-09-01T13:23:07Z</time>
      </trkpt>
      <trkpt lat="44.82484" lon="5.33862">
        <ele>1195.3</ele>
        <time>2021-09-01T13:23:09Z</time>
      </trkpt>
      <trkpt lat="44.82481" lon="5.33859">
        <ele>1194.4</ele>
        <time>2021-09-01T13:23:10Z</time>
      </trkpt>
      <trkpt lat="44.82478" lon="5.33855">
        <ele>1193.6</ele>
        <time>2021-09-01T13:23:11Z</time>
      </trkpt>
      <trkpt lat="44.82476" lon="5.33852">
        <ele>1192.7</ele>
        <time>2021-09-01T13:23:12Z</time>
      </trkpt>
      <trkpt lat="44.8247" lon="5.33847">
        <ele>1191.1</ele>
        <time>2021-09-01T13:23:14Z</time>
      </trkpt>
      <trkpt lat="44.82466" lon="5.33841">
        <ele>1189.5</ele>
        <time>2021-09-01T13:23:16Z</time>
      </trkpt>
      <trkpt lat="44.82464" lon="5.33838">
        <ele>1188.7</ele>
        <time>2021-09-01T13:23:17Z</time>
      </trkpt>
      <trkpt lat="44.82459" lon="5.33831">
        <ele>1186.9</ele>
        <time>2021-09-01T13:23:19Z</time>
      </trkpt>
      <trkpt lat="44.82457" lon="5.3383">
        <ele>1186.1</ele>
        <time>2021-09-01T13:23:20Z</time>
      </trkpt>
      <trkpt lat="44.82452" lon="5.33827">
        <ele>1184.7</ele>
        <time>2021-09-01T13:23:21Z</time>
      </trkpt>
      <trkpt lat="44.8245" lon="5.33823">
        <ele>1183.7</ele>
        <time>2021-09-01T13:23:22Z</time>
      </trkpt>
      <trkpt lat="44.82447" lon="5.3382">
        <ele>1182.7</ele>
        <time>2021-09-01T13:23:24Z</time>
      </trkpt>
      <trkpt lat="44.82443" lon="5.33819">
        <ele>1181.6</ele>
        <time>2021-09-01T13:23:25Z</time>
      </trkpt>
      <trkpt lat="44.82442" lon="5.33819">
        <ele>1181.2</ele>
        <time>2021-09-01T13:23:26Z</time>
      </trkpt>
      <trkpt lat="44.8244" lon="5.33818">
        <ele>1180.5</ele>
        <time>2021-09-01T13:23:27Z</time>
      </trkpt>
      <trkpt lat="44.82439" lon="5.33818">
        <ele>1180.3</ele>
        <time>2021-09-01T13:23:28Z</time>
      </trkpt>
      <trkpt lat="44.82438" lon="5.33817">
        <ele>1180</ele>
        <time>2021-09-01T13:23:30Z</time>
      </trkpt>
      <trkpt lat="44.82439" lon="5.33816">
        <ele>1179.8</ele>
        <time>2021-09-01T13:23:32Z</time>
      </trkpt>
      <trkpt lat="44.82439" lon="5.33816">
        <ele>1179.7</ele>
        <time>2021-09-01T13:23:34Z</time>
      </trkpt>
      <trkpt lat="44.82439" lon="5.33816">
        <ele>1179.7</ele>
        <time>2021-09-01T13:23:36Z</time>
      </trkpt>
      <trkpt lat="44.82439" lon="5.33816">
        <ele>1179.7</ele>
        <time>2021-09-01T13:23:37Z</time>
      </trkpt>
      <trkpt lat="44.82439" lon="5.33817">
        <ele>1179.7</ele>
        <time>2021-09-01T13:23:38Z</time>
      </trkpt>
      <trkpt lat="44.82419" lon="5.33797">
        <ele>1172.2</ele>
        <time>2021-09-01T13:24:24Z</time>
      </trkpt>
      <trkpt lat="44.82418" lon="5.33793">
        <ele>1171.1</ele>
        <time>2021-09-01T13:24:25Z</time>
      </trkpt>
      <trkpt lat="44.82415" lon="5.33791">
        <ele>1170</ele>
        <time>2021-09-01T13:24:27Z</time>
      </trkpt>
      <trkpt lat="44.82412" lon="5.3379">
        <ele>1169.1</ele>
        <time>2021-09-01T13:24:28Z</time>
      </trkpt>
      <trkpt lat="44.8241" lon="5.3379">
        <ele>1168.3</ele>
        <time>2021-09-01T13:24:29Z</time>
      </trkpt>
      <trkpt lat="44.82405" lon="5.33788">
        <ele>1166.7</ele>
        <time>2021-09-01T13:24:30Z</time>
      </trkpt>
      <trkpt lat="44.82401" lon="5.33786">
        <ele>1165.5</ele>
        <time>2021-09-01T13:24:32Z</time>
      </trkpt>
      <trkpt lat="44.82397" lon="5.33784">
        <ele>1164.2</ele>
        <time>2021-09-01T13:24:33Z</time>
      </trkpt>
      <trkpt lat="44.82395" lon="5.33784">
        <ele>1163.3</ele>
        <time>2021-09-01T13:24:34Z</time>
      </trkpt>
      <trkpt lat="44.82392" lon="5.33783">
        <ele>1162.5</ele>
        <time>2021-09-01T13:24:35Z</time>
      </trkpt>
      <trkpt lat="44.82389" lon="5.33783">
        <ele>1161.3</ele>
        <time>2021-09-01T13:24:37Z</time>
      </trkpt>
      <trkpt lat="44.82384" lon="5.3378">
        <ele>1159.6</ele>
        <time>2021-09-01T13:24:38Z</time>
      </trkpt>
      <trkpt lat="44.8238" lon="5.33778">
        <ele>1158.2</ele>
        <time>2021-09-01T13:24:40Z</time>
      </trkpt>
      <trkpt lat="44.82376" lon="5.33777">
        <ele>1157.1</ele>
        <time>2021-09-01T13:24:41Z</time>
      </trkpt>
      <trkpt lat="44.82375" lon="5.33776">
        <ele>1156.6</ele>
        <time>2021-09-01T13:24:43Z</time>
      </trkpt>
      <trkpt lat="44.82374" lon="5.33775">
        <ele>1156.1</ele>
        <time>2021-09-01T13:24:44Z</time>
      </trkpt>
      <trkpt lat="44.82371" lon="5.33772">
        <ele>1155</ele>
        <time>2021-09-01T13:24:45Z</time>
      </trkpt>
      <trkpt lat="44.82369" lon="5.3377">
        <ele>1154.3</ele>
        <time>2021-09-01T13:24:46Z</time>
      </trkpt>
      <trkpt lat="44.82367" lon="5.33768">
        <ele>1153.5</ele>
        <time>2021-09-01T13:24:48Z</time>
      </trkpt>
      <trkpt lat="44.82363" lon="5.33764">
        <ele>1151.9</ele>
        <time>2021-09-01T13:24:49Z</time>
      </trkpt>
      <trkpt lat="44.82362" lon="5.33762">
        <ele>1151.2</ele>
        <time>2021-09-01T13:24:50Z</time>
      </trkpt>
      <trkpt lat="44.82359" lon="5.33758">
        <ele>1150.1</ele>
        <time>2021-09-01T13:24:51Z</time>
      </trkpt>
      <trkpt lat="44.82355" lon="5.33754">
        <ele>1148.5</ele>
        <time>2021-09-01T13:24:53Z</time>
      </trkpt>
      <trkpt lat="44.82352" lon="5.3375">
        <ele>1147.3</ele>
        <time>2021-09-01T13:24:55Z</time>
      </trkpt>
      <trkpt lat="44.82348" lon="5.33745">
        <ele>1145.7</ele>
        <time>2021-09-01T13:24:56Z</time>
      </trkpt>
      <trkpt lat="44.82344" lon="5.33742">
        <ele>1144.2</ele>
        <time>2021-09-01T13:24:58Z</time>
      </trkpt>
      <trkpt lat="44.82341" lon="5.33739">
        <ele>1142.9</ele>
        <time>2021-09-01T13:24:59Z</time>
      </trkpt>
      <trkpt lat="44.82339" lon="5.33737">
        <ele>1142.2</ele>
        <time>2021-09-01T13:25:01Z</time>
      </trkpt>
      <trkpt lat="44.82337" lon="5.33736">
        <ele>1141.8</ele>
        <time>2021-09-01T13:25:02Z</time>
      </trkpt>
      <trkpt lat="44.82335" lon="5.33735">
        <ele>1141.1</ele>
        <time>2021-09-01T13:25:03Z</time>
      </trkpt>
      <trkpt lat="44.82334" lon="5.33735">
        <ele>1140.5</ele>
        <time>2021-09-01T13:25:05Z</time>
      </trkpt>
      <trkpt lat="44.82334" lon="5.33734">
        <ele>1140.2</ele>
        <time>2021-09-01T13:25:06Z</time>
      </trkpt>
      <trkpt lat="44.82335" lon="5.33734">
        <ele>1140</ele>
        <time>2021-09-01T13:25:08Z</time>
      </trkpt>
      <trkpt lat="44.82336" lon="5.33734">
        <ele>1139.8</ele>
        <time>2021-09-01T13:25:09Z</time>
      </trkpt>
      <trkpt lat="44.82336" lon="5.33734">
        <ele>1139.5</ele>
        <time>2021-09-01T13:25:10Z</time>
      </trkpt>
      <trkpt lat="44.82337" lon="5.33734">
        <ele>1139.3</ele>
        <time>2021-09-01T13:25:12Z</time>
      </trkpt>
      <trkpt lat="44.82338" lon="5.33734">
        <ele>1139</ele>
        <time>2021-09-01T13:25:14Z</time>
      </trkpt>
      <trkpt lat="44.82338" lon="5.33734">
        <ele>1138.8</ele>
        <time>2021-09-01T13:25:16Z</time>
      </trkpt>
      <trkpt lat="44.82339" lon="5.33734">
        <ele>1138.5</ele>
        <time>2021-09-01T13:26:31Z</time>
      </trkpt>
      <trkpt lat="44.8234" lon="5.33734">
        <ele>1138.3</ele>
        <time>2021-09-01T13:26:32Z</time>
      </trkpt>
      <trkpt lat="44.82336" lon="5.33731">
        <ele>1136.8</ele>
        <time>2021-09-01T13:26:33Z</time>
      </trkpt>
      <trkpt lat="44.82333" lon="5.33727">
        <ele>1135.2</ele>
        <time>2021-09-01T13:26:35Z</time>
      </trkpt>
      <trkpt lat="44.82329" lon="5.33724">
        <ele>1133.6</ele>
        <time>2021-09-01T13:26:37Z</time>
      </trkpt>
      <trkpt lat="44.82327" lon="5.33723">
        <ele>1131.3</ele>
        <time>2021-09-01T13:26:38Z</time>
      </trkpt>
      <trkpt lat="44.82325" lon="5.33723">
        <ele>1131.3</ele>
        <time>2021-09-01T13:26:39Z</time>
      </trkpt>
      <trkpt lat="44.82324" lon="5.33724">
        <ele>1129.1</ele>
        <time>2021-09-01T13:26:40Z</time>
      </trkpt>
      <trkpt lat="44.82323" lon="5.33726">
        <ele>1128.8</ele>
        <time>2021-09-01T13:26:42Z</time>
      </trkpt>
      <trkpt lat="44.82323" lon="5.33727">
        <ele>1128.7</ele>
        <time>2021-09-01T13:26:43Z</time>
      </trkpt>
      <trkpt lat="44.82323" lon="5.33731">
        <ele>1128.5</ele>
        <time>2021-09-01T13:26:45Z</time>
      </trkpt>
      <trkpt lat="44.82323" lon="5.33734">
        <ele>1128.4</ele>
        <time>2021-09-01T13:26:46Z</time>
      </trkpt>
      <trkpt lat="44.82322" lon="5.33734">
        <ele>1128.1</ele>
        <time>2021-09-01T13:26:48Z</time>
      </trkpt>
      <trkpt lat="44.82323" lon="5.33733">
        <ele>1128.2</ele>
        <time>2021-09-01T13:26:49Z</time>
      </trkpt>
      <trkpt lat="44.82323" lon="5.33733">
        <ele>1128.2</ele>
        <time>2021-09-01T13:26:50Z</time>
      </trkpt>
      <trkpt lat="44.82323" lon="5.33733">
        <ele>1128.1</ele>
        <time>2021-09-01T13:26:51Z</time>
      </trkpt>
      <trkpt lat="44.82322" lon="5.33733">
        <ele>1125.9</ele>
        <time>2021-09-01T13:26:52Z</time>
      </trkpt>
      <trkpt lat="44.82322" lon="5.33734">
        <ele>1125.6</ele>
        <time>2021-09-01T13:26:53Z</time>
      </trkpt>
      <trkpt lat="44.82322" lon="5.33735">
        <ele>1125.6</ele>
        <time>2021-09-01T13:26:54Z</time>
      </trkpt>
      <trkpt lat="44.82321" lon="5.33735">
        <ele>1125.5</ele>
        <time>2021-09-01T13:26:55Z</time>
      </trkpt>
      <trkpt lat="44.82321" lon="5.33736">
        <ele>1125.4</ele>
        <time>2021-09-01T13:26:56Z</time>
      </trkpt>
      <trkpt lat="44.82321" lon="5.33737">
        <ele>1125.3</ele>
        <time>2021-09-01T13:26:58Z</time>
      </trkpt>
      <trkpt lat="44.82322" lon="5.33739">
        <ele>1125</ele>
        <time>2021-09-01T13:26:59Z</time>
      </trkpt>
      <trkpt lat="44.82322" lon="5.33745">
        <ele>1126.7</ele>
        <time>2021-09-01T13:27:00Z</time>
      </trkpt>
      <trkpt lat="44.82322" lon="5.33747">
        <ele>1126.3</ele>
        <time>2021-09-01T13:27:02Z</time>
      </trkpt>
      <trkpt lat="44.82322" lon="5.3375">
        <ele>1126.2</ele>
        <time>2021-09-01T13:27:03Z</time>
      </trkpt>
      <trkpt lat="44.82321" lon="5.33756">
        <ele>1123.6</ele>
        <time>2021-09-01T13:27:04Z</time>
      </trkpt>
      <trkpt lat="44.8232" lon="5.3376">
        <ele>1123.3</ele>
        <time>2021-09-01T13:27:06Z</time>
      </trkpt>
      <trkpt lat="44.8232" lon="5.33763">
        <ele>1123.2</ele>
        <time>2021-09-01T13:27:07Z</time>
      </trkpt>
      <trkpt lat="44.82318" lon="5.33765">
        <ele>1120.9</ele>
        <time>2021-09-01T13:27:09Z</time>
      </trkpt>
      <trkpt lat="44.82318" lon="5.33765">
        <ele>1120.8</ele>
        <time>2021-09-01T13:27:10Z</time>
      </trkpt>
      <trkpt lat="44.82319" lon="5.33766">
        <ele>1122.7</ele>
        <time>2021-09-01T13:27:11Z</time>
      </trkpt>
      <trkpt lat="44.8232" lon="5.33766">
        <ele>1122.6</ele>
        <time>2021-09-01T13:27:12Z</time>
      </trkpt>
      <trkpt lat="44.8232" lon="5.33767">
        <ele>1122.6</ele>
        <time>2021-09-01T13:27:14Z</time>
      </trkpt>
      <trkpt lat="44.8232" lon="5.33767">
        <ele>1122.5</ele>
        <time>2021-09-01T13:27:15Z</time>
      </trkpt>
      <trkpt lat="44.8232" lon="5.33767">
        <ele>1122.4</ele>
        <time>2021-09-01T13:27:17Z</time>
      </trkpt>
      <trkpt lat="44.8232" lon="5.33767">
        <ele>1122.3</ele>
        <time>2021-09-01T13:27:18Z</time>
      </trkpt>
      <trkpt lat="44.8232" lon="5.33767">
        <ele>1122.3</ele>
        <time>2021-09-01T13:27:20Z</time>
      </trkpt>
      <trkpt lat="44.823" lon="5.33764">
        <ele>1107.9</ele>
        <time>2021-09-01T13:28:16Z</time>
      </trkpt>
      <trkpt lat="44.82297" lon="5.3376">
        <ele>1105.8</ele>
        <time>2021-09-01T13:28:18Z</time>
      </trkpt>
      <trkpt lat="44.82295" lon="5.33758">
        <ele>1105.9</ele>
        <time>2021-09-01T13:28:19Z</time>
      </trkpt>
      <trkpt lat="44.82291" lon="5.33755">
        <ele>1102.1</ele>
        <time>2021-09-01T13:28:20Z</time>
      </trkpt>
      <trkpt lat="44.8229" lon="5.33755">
        <ele>1102.2</ele>
        <time>2021-09-01T13:28:21Z</time>
      </trkpt>
      <trkpt lat="44.82288" lon="5.33757">
        <ele>1102</ele>
        <time>2021-09-01T13:28:22Z</time>
      </trkpt>
      <trkpt lat="44.82289" lon="5.33759">
        <ele>1101.9</ele>
        <time>2021-09-01T13:28:24Z</time>
      </trkpt>
      <trkpt lat="44.8229" lon="5.33763">
        <ele>1101.8</ele>
        <time>2021-09-01T13:28:25Z</time>
      </trkpt>
      <trkpt lat="44.8229" lon="5.33766">
        <ele>1101.6</ele>
        <time>2021-09-01T13:28:26Z</time>
      </trkpt>
      <trkpt lat="44.82291" lon="5.33768">
        <ele>1101.5</ele>
        <time>2021-09-01T13:28:28Z</time>
      </trkpt>
      <trkpt lat="44.82293" lon="5.33772">
        <ele>1103.1</ele>
        <time>2021-09-01T13:28:29Z</time>
      </trkpt>
      <trkpt lat="44.82293" lon="5.33774">
        <ele>1102.9</ele>
        <time>2021-09-01T13:28:30Z</time>
      </trkpt>
      <trkpt lat="44.82293" lon="5.33776">
        <ele>1102.8</ele>
        <time>2021-09-01T13:28:31Z</time>
      </trkpt>
      <trkpt lat="44.82293" lon="5.33776">
        <ele>1102.7</ele>
        <time>2021-09-01T13:28:33Z</time>
      </trkpt>
      <trkpt lat="44.82293" lon="5.33775">
        <ele>1102.7</ele>
        <time>2021-09-01T13:28:34Z</time>
      </trkpt>
      <trkpt lat="44.82291" lon="5.33772">
        <ele>1101</ele>
        <time>2021-09-01T13:28:35Z</time>
      </trkpt>
      <trkpt lat="44.82289" lon="5.33769">
        <ele>1100.9</ele>
        <time>2021-09-01T13:28:37Z</time>
      </trkpt>
      <trkpt lat="44.82287" lon="5.33763">
        <ele>1099.3</ele>
        <time>2021-09-01T13:28:38Z</time>
      </trkpt>
      <trkpt lat="44.82285" lon="5.33759">
        <ele>1097.4</ele>
        <time>2021-09-01T13:28:39Z</time>
      </trkpt>
      <trkpt lat="44.82282" lon="5.33756">
        <ele>1097.4</ele>
        <time>2021-09-01T13:28:41Z</time>
      </trkpt>
      <trkpt lat="44.8228" lon="5.33753">
        <ele>1095.4</ele>
        <time>2021-09-01T13:28:42Z</time>
      </trkpt>
      <trkpt lat="44.82278" lon="5.3375">
        <ele>1093.3</ele>
        <time>2021-09-01T13:28:44Z</time>
      </trkpt>
      <trkpt lat="44.82276" lon="5.3375">
        <ele>1091.1</ele>
        <time>2021-09-01T13:28:45Z</time>
      </trkpt>
      <trkpt lat="44.82274" lon="5.3375">
        <ele>1091</ele>
        <time>2021-09-01T13:28:47Z</time>
      </trkpt>
      <trkpt lat="44.82274" lon="5.33749">
        <ele>1091</ele>
        <time>2021-09-01T13:28:48Z</time>
      </trkpt>
      <trkpt lat="44.82272" lon="5.33748">
        <ele>1088.9</ele>
        <time>2021-09-01T13:28:49Z</time>
      </trkpt>
      <trkpt lat="44.82271" lon="5.33748">
        <ele>1088.8</ele>
        <time>2021-09-01T13:28:50Z</time>
      </trkpt>
      <trkpt lat="44.8227" lon="5.33748">
        <ele>1086.9</ele>
        <time>2021-09-01T13:28:52Z</time>
      </trkpt>
      <trkpt lat="44.82268" lon="5.33747">
        <ele>1086.8</ele>
        <time>2021-09-01T13:28:53Z</time>
      </trkpt>
      <trkpt lat="44.82267" lon="5.33745">
        <ele>1085.1</ele>
        <time>2021-09-01T13:28:55Z</time>
      </trkpt>
      <trkpt lat="44.82266" lon="5.33745">
        <ele>1085.1</ele>
        <time>2021-09-01T13:28:56Z</time>
      </trkpt>
      <trkpt lat="44.82265" lon="5.33744">
        <ele>1085</ele>
        <time>2021-09-01T13:28:58Z</time>
      </trkpt>
      <trkpt lat="44.82264" lon="5.33744">
        <ele>1084.9</ele>
        <time>2021-09-01T13:28:59Z</time>
      </trkpt>
      <trkpt lat="44.82263" lon="5.33744">
        <ele>1083.2</ele>
        <time>2021-09-01T13:29:00Z</time>
      </trkpt>
      <trkpt lat="44.82262" lon="5.33744">
        <ele>1083.1</ele>
        <time>2021-09-01T13:29:02Z</time>
      </trkpt>
      <trkpt lat="44.82255" lon="5.33749">
        <ele>1079.3</ele>
        <time>2021-09-01T13:29:06Z</time>
      </trkpt>
      <trkpt lat="44.82253" lon="5.33752">
        <ele>1077.1</ele>
        <time>2021-09-01T13:29:07Z</time>
      </trkpt>
      <trkpt lat="44.82252" lon="5.33759">
        <ele>1077</ele>
        <time>2021-09-01T13:29:09Z</time>
      </trkpt>
      <trkpt lat="44.82251" lon="5.33764">
        <ele>1074.7</ele>
        <time>2021-09-01T13:29:10Z</time>
      </trkpt>
      <trkpt lat="44.82251" lon="5.3377">
        <ele>1074.5</ele>
        <time>2021-09-01T13:29:11Z</time>
      </trkpt>
      <trkpt lat="44.82252" lon="5.33774">
        <ele>1076.5</ele>
        <time>2021-09-01T13:29:13Z</time>
      </trkpt>
      <trkpt lat="44.82252" lon="5.33776">
        <ele>1076.4</ele>
        <time>2021-09-01T13:29:14Z</time>
      </trkpt>
      <trkpt lat="44.82251" lon="5.33778">
        <ele>1074</ele>
        <time>2021-09-01T13:29:15Z</time>
      </trkpt>
      <trkpt lat="44.82252" lon="5.33779">
        <ele>1076.2</ele>
        <time>2021-09-01T13:29:16Z</time>
      </trkpt>
      <trkpt lat="44.82252" lon="5.3378">
        <ele>1073.9</ele>
        <time>2021-09-01T13:29:17Z</time>
      </trkpt>
      <trkpt lat="44.82251" lon="5.33781">
        <ele>1073.8</ele>
        <time>2021-09-01T13:29:19Z</time>
      </trkpt>
      <trkpt lat="44.8225" lon="5.33782">
        <ele>1073.6</ele>
        <time>2021-09-01T13:29:20Z</time>
      </trkpt>
      <trkpt lat="44.82249" lon="5.33783">
        <ele>1073.5</ele>
        <time>2021-09-01T13:29:22Z</time>
      </trkpt>
      <trkpt lat="44.82246" lon="5.33784">
        <ele>1071.3</ele>
        <time>2021-09-01T13:29:23Z</time>
      </trkpt>
      <trkpt lat="44.82242" lon="5.33785">
        <ele>1067.3</ele>
        <time>2021-09-01T13:29:24Z</time>
      </trkpt>
      <trkpt lat="44.8224" lon="5.33786">
        <ele>1067</ele>
        <time>2021-09-01T13:29:25Z</time>
      </trkpt>
      <trkpt lat="44.82234" lon="5.33782">
        <ele>1063.5</ele>
        <time>2021-09-01T13:29:27Z</time>
      </trkpt>
      <trkpt lat="44.82222" lon="5.33769">
        <ele>1056.8</ele>
        <time>2021-09-01T13:29:29Z</time>
      </trkpt>
      <trkpt lat="44.8222" lon="5.33766">
        <ele>1055.2</ele>
        <time>2021-09-01T13:29:30Z</time>
      </trkpt>
      <trkpt lat="44.82216" lon="5.3376">
        <ele>1054.2</ele>
        <time>2021-09-01T13:29:32Z</time>
      </trkpt>
      <trkpt lat="44.82214" lon="5.33752">
        <ele>1053</ele>
        <time>2021-09-01T13:29:34Z</time>
      </trkpt>
      <trkpt lat="44.82213" lon="5.33747">
        <ele>1053.4</ele>
        <time>2021-09-01T13:29:35Z</time>
      </trkpt>
      <trkpt lat="44.8221" lon="5.33736">
        <ele>1053.5</ele>
        <time>2021-09-01T13:29:36Z</time>
      </trkpt>
      <trkpt lat="44.8221" lon="5.33729">
        <ele>1054.7</ele>
        <time>2021-09-01T13:29:38Z</time>
      </trkpt>
      <trkpt lat="44.8221" lon="5.33721">
        <ele>1055.3</ele>
        <time>2021-09-01T13:29:39Z</time>
      </trkpt>
      <trkpt lat="44.8221" lon="5.33713">
        <ele>1056.6</ele>
        <time>2021-09-01T13:29:41Z</time>
      </trkpt>
      <trkpt lat="44.8221" lon="5.33713">
        <ele>1056.5</ele>
        <time>2021-09-01T13:29:41Z</time>
      </trkpt>
      <trkpt lat="44.8221" lon="5.33709">
        <ele>1057.2</ele>
        <time>2021-09-01T13:29:42Z</time>
      </trkpt>
      <trkpt lat="44.82211" lon="5.33704">
        <ele>1057.8</ele>
        <time>2021-09-01T13:29:43Z</time>
      </trkpt>
      <trkpt lat="44.82214" lon="5.33701">
        <ele>1059.8</ele>
        <time>2021-09-01T13:29:44Z</time>
      </trkpt>
      <trkpt lat="44.82215" lon="5.33699">
        <ele>1060.5</ele>
        <time>2021-09-01T13:29:45Z</time>
      </trkpt>
      <trkpt lat="44.82216" lon="5.33696">
        <ele>1061.7</ele>
        <time>2021-09-01T13:29:47Z</time>
      </trkpt>
      <trkpt lat="44.82217" lon="5.33692">
        <ele>1062.4</ele>
        <time>2021-09-01T13:29:48Z</time>
      </trkpt>
      <trkpt lat="44.82218" lon="5.33688">
        <ele>1063.1</ele>
        <time>2021-09-01T13:29:50Z</time>
      </trkpt>
      <trkpt lat="44.82228" lon="5.33686">
        <ele>1069.2</ele>
        <time>2021-09-01T13:30:03Z</time>
      </trkpt>
      <trkpt lat="44.82228" lon="5.33686">
        <ele>1069.1</ele>
        <time>2021-09-01T13:30:05Z</time>
      </trkpt>
      <trkpt lat="44.82228" lon="5.33686">
        <ele>1069.1</ele>
        <time>2021-09-01T13:30:06Z</time>
      </trkpt>
      <trkpt lat="44.82032" lon="5.3341">
        <ele>1014.6</ele>
        <time>2021-09-01T13:33:18Z</time>
      </trkpt>
      <trkpt lat="44.82031" lon="5.33407">
        <ele>1015.1</ele>
        <time>2021-09-01T13:33:20Z</time>
      </trkpt>
      <trkpt lat="44.8203" lon="5.33403">
        <ele>1015</ele>
        <time>2021-09-01T13:33:21Z</time>
      </trkpt>
      <trkpt lat="44.82028" lon="5.33395">
        <ele>1014.1</ele>
        <time>2021-09-01T13:33:22Z</time>
      </trkpt>
      <trkpt lat="44.82026" lon="5.3339">
        <ele>1013.3</ele>
        <time>2021-09-01T13:33:23Z</time>
      </trkpt>
      <trkpt lat="44.82027" lon="5.33384">
        <ele>1015.7</ele>
        <time>2021-09-01T13:33:25Z</time>
      </trkpt>
      <trkpt lat="44.82028" lon="5.3338">
        <ele>1016.3</ele>
        <time>2021-09-01T13:33:27Z</time>
      </trkpt>
      <trkpt lat="44.82029" lon="5.33376">
        <ele>1016.8</ele>
        <time>2021-09-01T13:33:28Z</time>
      </trkpt>
      <trkpt lat="44.82047" lon="5.33314">
        <ele>1032.8</ele>
        <time>2021-09-01T13:33:29Z</time>
      </trkpt>
      <trkpt lat="44.82055" lon="5.3329">
        <ele>1038.8</ele>
        <time>2021-09-01T13:33:30Z</time>
      </trkpt>
      <trkpt lat="44.82059" lon="5.33278">
        <ele>1041.1</ele>
        <time>2021-09-01T13:33:32Z</time>
      </trkpt>
      <trkpt lat="44.82062" lon="5.33269">
        <ele>1040.6</ele>
        <time>2021-09-01T13:33:33Z</time>
      </trkpt>
      <trkpt lat="44.82062" lon="5.33262">
        <ele>1040.3</ele>
        <time>2021-09-01T13:33:34Z</time>
      </trkpt>
      <trkpt lat="44.82063" lon="5.33258">
        <ele>1040.1</ele>
        <time>2021-09-01T13:33:35Z</time>
      </trkpt>
      <trkpt lat="44.82064" lon="5.33252">
        <ele>1039.7</ele>
        <time>2021-09-01T13:33:36Z</time>
      </trkpt>
      <trkpt lat="44.82065" lon="5.33248">
        <ele>1039.5</ele>
        <time>2021-09-01T13:33:37Z</time>
      </trkpt>
      <trkpt lat="44.82065" lon="5.33244">
        <ele>1039.2</ele>
        <time>2021-09-01T13:33:39Z</time>
      </trkpt>
      <trkpt lat="44.82065" lon="5.33242">
        <ele>1039.2</ele>
        <time>2021-09-01T13:33:40Z</time>
      </trkpt>
      <trkpt lat="44.82066" lon="5.33238">
        <ele>1038.9</ele>
        <time>2021-09-01T13:33:42Z</time>
      </trkpt>
      <trkpt lat="44.82067" lon="5.33234">
        <ele>1038.7</ele>
        <time>2021-09-01T13:33:43Z</time>
      </trkpt>
      <trkpt lat="44.82068" lon="5.33233">
        <ele>1038.6</ele>
        <time>2021-09-01T13:33:44Z</time>
      </trkpt>
      <trkpt lat="44.82063" lon="5.33093">
        <ele>1032.5</ele>
        <time>2021-09-01T13:34:28Z</time>
      </trkpt>
      <trkpt lat="44.82065" lon="5.33087">
        <ele>1032.3</ele>
        <time>2021-09-01T13:34:29Z</time>
      </trkpt>
      <trkpt lat="44.82068" lon="5.33082">
        <ele>1032</ele>
        <time>2021-09-01T13:34:30Z</time>
      </trkpt>
      <trkpt lat="44.82073" lon="5.33076">
        <ele>1031.7</ele>
        <time>2021-09-01T13:34:32Z</time>
      </trkpt>
      <trkpt lat="44.82077" lon="5.33072">
        <ele>1031.5</ele>
        <time>2021-09-01T13:34:33Z</time>
      </trkpt>
      <trkpt lat="44.82082" lon="5.33068">
        <ele>1031.2</ele>
        <time>2021-09-01T13:34:35Z</time>
      </trkpt>
      <trkpt lat="44.82086" lon="5.33065">
        <ele>1031</ele>
        <time>2021-09-01T13:34:36Z</time>
      </trkpt>
      <trkpt lat="44.82089" lon="5.33063">
        <ele>1030.9</ele>
        <time>2021-09-01T13:34:37Z</time>
      </trkpt>
      <trkpt lat="44.82091" lon="5.33061">
        <ele>1030.7</ele>
        <time>2021-09-01T13:34:38Z</time>
      </trkpt>
      <trkpt lat="44.82095" lon="5.33057">
        <ele>1030.4</ele>
        <time>2021-09-01T13:34:40Z</time>
      </trkpt>
      <trkpt lat="44.82098" lon="5.33053">
        <ele>1030.1</ele>
        <time>2021-09-01T13:34:42Z</time>
      </trkpt>
      <trkpt lat="44.82102" lon="5.3305">
        <ele>1029.8</ele>
        <time>2021-09-01T13:34:43Z</time>
      </trkpt>
      <trkpt lat="44.82105" lon="5.33046">
        <ele>1029.6</ele>
        <time>2021-09-01T13:34:45Z</time>
      </trkpt>
      <trkpt lat="44.82106" lon="5.33042">
        <ele>1029.4</ele>
        <time>2021-09-01T13:34:46Z</time>
      </trkpt>
      <trkpt lat="44.82104" lon="5.33039">
        <ele>1029.2</ele>
        <time>2021-09-01T13:34:48Z</time>
      </trkpt>
      <trkpt lat="44.82102" lon="5.33037">
        <ele>1029.1</ele>
        <time>2021-09-01T13:34:49Z</time>
      </trkpt>
      <trkpt lat="44.82099" lon="5.33034">
        <ele>1028.9</ele>
        <time>2021-09-01T13:34:51Z</time>
      </trkpt>
      <trkpt lat="44.82097" lon="5.3303">
        <ele>1028.7</ele>
        <time>2021-09-01T13:34:53Z</time>
      </trkpt>
      <trkpt lat="44.82096" lon="5.33029">
        <ele>1028.7</ele>
        <time>2021-09-01T13:34:54Z</time>
      </trkpt>
      <trkpt lat="44.82095" lon="5.33026">
        <ele>1028.5</ele>
        <time>2021-09-01T13:34:55Z</time>
      </trkpt>
      <trkpt lat="44.82093" lon="5.33024">
        <ele>1028.4</ele>
        <time>2021-09-01T13:34:56Z</time>
      </trkpt>
      <trkpt lat="44.82085" lon="5.32848">
        <ele>1012.5</ele>
        <time>2021-09-01T13:35:47Z</time>
      </trkpt>
      <trkpt lat="44.82087" lon="5.32846">
        <ele>1012.1</ele>
        <time>2021-09-01T13:35:48Z</time>
      </trkpt>
      <trkpt lat="44.8209" lon="5.32844">
        <ele>1011.6</ele>
        <time>2021-09-01T13:35:50Z</time>
      </trkpt>
      <trkpt lat="44.82092" lon="5.32841">
        <ele>1012</ele>
        <time>2021-09-01T13:35:52Z</time>
      </trkpt>
      <trkpt lat="44.82095" lon="5.32839">
        <ele>1012.5</ele>
        <time>2021-09-01T13:35:53Z</time>
      </trkpt>
      <trkpt lat="44.82097" lon="5.32837">
        <ele>1012.9</ele>
        <time>2021-09-01T13:35:54Z</time>
      </trkpt>
      <trkpt lat="44.82099" lon="5.32835">
        <ele>1013.3</ele>
        <time>2021-09-01T13:35:56Z</time>
      </trkpt>
      <trkpt lat="44.82101" lon="5.32833">
        <ele>1013.7</ele>
        <time>2021-09-01T13:35:57Z</time>
      </trkpt>
      <trkpt lat="44.82103" lon="5.32831">
        <ele>1014.2</ele>
        <time>2021-09-01T13:35:59Z</time>
      </trkpt>
      <trkpt lat="44.82105" lon="5.3283">
        <ele>1014.6</ele>
        <time>2021-09-01T13:36:00Z</time>
      </trkpt>
      <trkpt lat="44.82106" lon="5.32829">
        <ele>1014.8</ele>
        <time>2021-09-01T13:36:02Z</time>
      </trkpt>
      <trkpt lat="44.82109" lon="5.32828">
        <ele>1015.4</ele>
        <time>2021-09-01T13:36:03Z</time>
      </trkpt>
      <trkpt lat="44.8211" lon="5.32827">
        <ele>1015.6</ele>
        <time>2021-09-01T13:36:04Z</time>
      </trkpt>
      <trkpt lat="44.82114" lon="5.32826">
        <ele>1016.2</ele>
        <time>2021-09-01T13:36:06Z</time>
      </trkpt>
      <trkpt lat="44.82115" lon="5.32826">
        <ele>1016.4</ele>
        <time>2021-09-01T13:36:07Z</time>
      </trkpt>
      <trkpt lat="44.82118" lon="5.32827">
        <ele>1016.9</ele>
        <time>2021-09-01T13:36:09Z</time>
      </trkpt>
      <trkpt lat="44.82118" lon="5.32827">
        <ele>1017.1</ele>
        <time>2021-09-01T13:36:10Z</time>
      </trkpt>
      <trkpt lat="44.8212" lon="5.32828">
        <ele>1017.4</ele>
        <time>2021-09-01T13:36:11Z</time>
      </trkpt>
      <trkpt lat="44.82122" lon="5.32829">
        <ele>1017.7</ele>
        <time>2021-09-01T13:36:13Z</time>
      </trkpt>
      <trkpt lat="44.82123" lon="5.3283">
        <ele>1018</ele>
        <time>2021-09-01T13:36:14Z</time>
      </trkpt>
      <trkpt lat="44.82125" lon="5.32831">
        <ele>1018.2</ele>
        <time>2021-09-01T13:36:16Z</time>
      </trkpt>
      <trkpt lat="44.82126" lon="5.32831">
        <ele>1018.5</ele>
        <time>2021-09-01T13:36:17Z</time>
      </trkpt>
      <trkpt lat="44.82127" lon="5.32831">
        <ele>1018.6</ele>
        <time>2021-09-01T13:36:19Z</time>
      </trkpt>
      <trkpt lat="44.82128" lon="5.32831">
        <ele>1018.8</ele>
        <time>2021-09-01T13:36:20Z</time>
      </trkpt>
      <trkpt lat="44.82129" lon="5.32831">
        <ele>1019</ele>
        <time>2021-09-01T13:36:22Z</time>
      </trkpt>
      <trkpt lat="44.8213" lon="5.3283">
        <ele>1019.2</ele>
        <time>2021-09-01T13:36:23Z</time>
      </trkpt>
      <trkpt lat="44.82131" lon="5.32829">
        <ele>1019.3</ele>
        <time>2021-09-01T13:36:24Z</time>
      </trkpt>
      <trkpt lat="44.82132" lon="5.32827">
        <ele>1019.7</ele>
        <time>2021-09-01T13:36:25Z</time>
      </trkpt>
      <trkpt lat="44.82133" lon="5.32826">
        <ele>1019.8</ele>
        <time>2021-09-01T13:36:27Z</time>
      </trkpt>
      <trkpt lat="44.82134" lon="5.32824">
        <ele>1020.1</ele>
        <time>2021-09-01T13:36:28Z</time>
      </trkpt>
      <trkpt lat="44.82135" lon="5.32821">
        <ele>1020.5</ele>
        <time>2021-09-01T13:36:30Z</time>
      </trkpt>
      <trkpt lat="44.82135" lon="5.3282">
        <ele>1020.6</ele>
        <time>2021-09-01T13:36:31Z</time>
      </trkpt>
      <trkpt lat="44.82135" lon="5.3282">
        <ele>1020.6</ele>
        <time>2021-09-01T13:36:32Z</time>
      </trkpt>
      <trkpt lat="44.82136" lon="5.32819">
        <ele>1020.7</ele>
        <time>2021-09-01T13:36:34Z</time>
      </trkpt>
      <trkpt lat="44.82136" lon="5.32819">
        <ele>1020.8</ele>
        <time>2021-09-01T13:36:35Z</time>
      </trkpt>
      <trkpt lat="44.82138" lon="5.32816">
        <ele>1021.2</ele>
        <time>2021-09-01T13:36:37Z</time>
      </trkpt>
      <trkpt lat="44.82141" lon="5.32816">
        <ele>1021.7</ele>
        <time>2021-09-01T13:36:38Z</time>
      </trkpt>
      <trkpt lat="44.82144" lon="5.32815">
        <ele>1022</ele>
        <time>2021-09-01T13:36:39Z</time>
      </trkpt>
      <trkpt lat="44.82147" lon="5.32814">
        <ele>1022.6</ele>
        <time>2021-09-01T13:36:41Z</time>
      </trkpt>
      <trkpt lat="44.82151" lon="5.32813">
        <ele>1023.2</ele>
        <time>2021-09-01T13:36:42Z</time>
      </trkpt>
      <trkpt lat="44.82153" lon="5.32813">
        <ele>1023.5</ele>
        <time>2021-09-01T13:36:43Z</time>
      </trkpt>
      <trkpt lat="44.82157" lon="5.3281">
        <ele>1024.3</ele>
        <time>2021-09-01T13:36:45Z</time>
      </trkpt>
      <trkpt lat="44.8216" lon="5.32806">
        <ele>1024.8</ele>
        <time>2021-09-01T13:36:46Z</time>
      </trkpt>
      <trkpt lat="44.82161" lon="5.32802">
        <ele>1025.2</ele>
        <time>2021-09-01T13:36:48Z</time>
      </trkpt>
      <trkpt lat="44.82161" lon="5.328">
        <ele>1025.3</ele>
        <time>2021-09-01T13:36:49Z</time>
      </trkpt>
      <trkpt lat="44.82163" lon="5.32796">
        <ele>1025.7</ele>
        <time>2021-09-01T13:36:50Z</time>
      </trkpt>
      <trkpt lat="44.82163" lon="5.32793">
        <ele>1026</ele>
        <time>2021-09-01T13:36:52Z</time>
      </trkpt>
      <trkpt lat="44.82164" lon="5.32791">
        <ele>1026.1</ele>
        <time>2021-09-01T13:36:54Z</time>
      </trkpt>
      <trkpt lat="44.82164" lon="5.32788">
        <ele>1026.3</ele>
        <time>2021-09-01T13:36:55Z</time>
      </trkpt>
      <trkpt lat="44.82164" lon="5.32786">
        <ele>1026.4</ele>
        <time>2021-09-01T13:36:57Z</time>
      </trkpt>
      <trkpt lat="44.82164" lon="5.3278">
        <ele>1026.7</ele>
        <time>2021-09-01T13:36:58Z</time>
      </trkpt>
      <trkpt lat="44.82163" lon="5.32775">
        <ele>1027</ele>
        <time>2021-09-01T13:37:00Z</time>
      </trkpt>
      <trkpt lat="44.8216" lon="5.32769">
        <ele>1027.2</ele>
        <time>2021-09-01T13:37:01Z</time>
      </trkpt>
      <trkpt lat="44.82159" lon="5.32764">
        <ele>1027.4</ele>
        <time>2021-09-01T13:37:02Z</time>
      </trkpt>
      <trkpt lat="44.82157" lon="5.32759">
        <ele>1027.6</ele>
        <time>2021-09-01T13:37:04Z</time>
      </trkpt>
      <trkpt lat="44.82156" lon="5.32755">
        <ele>1027.6</ele>
        <time>2021-09-01T13:37:05Z</time>
      </trkpt>
      <trkpt lat="44.82154" lon="5.32746">
        <ele>1027.8</ele>
        <time>2021-09-01T13:37:06Z</time>
      </trkpt>
      <trkpt lat="44.82153" lon="5.3274">
        <ele>1027.9</ele>
        <time>2021-09-01T13:37:08Z</time>
      </trkpt>
      <trkpt lat="44.82152" lon="5.32736">
        <ele>1027.9</ele>
        <time>2021-09-01T13:37:09Z</time>
      </trkpt>
      <trkpt lat="44.8215" lon="5.3273">
        <ele>1028</ele>
        <time>2021-09-01T13:37:10Z</time>
      </trkpt>
      <trkpt lat="44.82149" lon="5.32728">
        <ele>1028</ele>
        <time>2021-09-01T13:37:11Z</time>
      </trkpt>
      <trkpt lat="44.82148" lon="5.32722">
        <ele>1028</ele>
        <time>2021-09-01T13:37:12Z</time>
      </trkpt>
      <trkpt lat="44.82147" lon="5.32718">
        <ele>1028</ele>
        <time>2021-09-01T13:37:13Z</time>
      </trkpt>
      <trkpt lat="44.82145" lon="5.32714">
        <ele>1027.9</ele>
        <time>2021-09-01T13:37:15Z</time>
      </trkpt>
      <trkpt lat="44.82143" lon="5.3271">
        <ele>1027.9</ele>
        <time>2021-09-01T13:37:16Z</time>
      </trkpt>
      <trkpt lat="44.82141" lon="5.32706">
        <ele>1027.8</ele>
        <time>2021-09-01T13:37:17Z</time>
      </trkpt>
      <trkpt lat="44.82141" lon="5.32705">
        <ele>1027.8</ele>
        <time>2021-09-01T13:37:18Z</time>
      </trkpt>
      <trkpt lat="44.82139" lon="5.327">
        <ele>1027.6</ele>
        <time>2021-09-01T13:37:20Z</time>
      </trkpt>
      <trkpt lat="44.82138" lon="5.32698">
        <ele>1027.6</ele>
        <time>2021-09-01T13:37:21Z</time>
      </trkpt>
      <trkpt lat="44.82137" lon="5.32694">
        <ele>1027.4</ele>
        <time>2021-09-01T13:37:23Z</time>
      </trkpt>
      <trkpt lat="44.82135" lon="5.3269">
        <ele>1027.2</ele>
        <time>2021-09-01T13:37:24Z</time>
      </trkpt>
      <trkpt lat="44.82132" lon="5.32684">
        <ele>1026.9</ele>
        <time>2021-09-01T13:37:26Z</time>
      </trkpt>
      <trkpt lat="44.8213" lon="5.32681">
        <ele>1026.6</ele>
        <time>2021-09-01T13:37:27Z</time>
      </trkpt>
      <trkpt lat="44.82128" lon="5.32678">
        <ele>1026.4</ele>
        <time>2021-09-01T13:37:28Z</time>
      </trkpt>
      <trkpt lat="44.82125" lon="5.32673">
        <ele>1026.1</ele>
        <time>2021-09-01T13:37:29Z</time>
      </trkpt>
      <trkpt lat="44.82124" lon="5.32671">
        <ele>1025.9</ele>
        <time>2021-09-01T13:37:30Z</time>
      </trkpt>
      <trkpt lat="44.82122" lon="5.32666">
        <ele>1025.6</ele>
        <time>2021-09-01T13:37:32Z</time>
      </trkpt>
      <trkpt lat="44.8212" lon="5.32662">
        <ele>1025.4</ele>
        <time>2021-09-01T13:37:33Z</time>
      </trkpt>
      <trkpt lat="44.82118" lon="5.32659">
        <ele>1025.3</ele>
        <time>2021-09-01T13:37:34Z</time>
      </trkpt>
      <trkpt lat="44.82117" lon="5.32655">
        <ele>1024.9</ele>
        <time>2021-09-01T13:37:36Z</time>
      </trkpt>
      <trkpt lat="44.82116" lon="5.32649">
        <ele>1024.1</ele>
        <time>2021-09-01T13:37:38Z</time>
      </trkpt>
      <trkpt lat="44.82116" lon="5.32645">
        <ele>1023.7</ele>
        <time>2021-09-01T13:37:39Z</time>
      </trkpt>
      <trkpt lat="44.82114" lon="5.3264">
        <ele>1023.1</ele>
        <time>2021-09-01T13:37:40Z</time>
      </trkpt>
      <trkpt lat="44.82114" lon="5.32639">
        <ele>1022.9</ele>
        <time>2021-09-01T13:37:41Z</time>
      </trkpt>
      <trkpt lat="44.82112" lon="5.32635">
        <ele>1022.4</ele>
        <time>2021-09-01T13:37:42Z</time>
      </trkpt>
      <trkpt lat="44.82111" lon="5.32634">
        <ele>1022.2</ele>
        <time>2021-09-01T13:37:43Z</time>
      </trkpt>
      <trkpt lat="44.82109" lon="5.32632">
        <ele>1021.8</ele>
        <time>2021-09-01T13:37:44Z</time>
      </trkpt>
      <trkpt lat="44.82107" lon="5.32628">
        <ele>1021.2</ele>
        <time>2021-09-01T13:37:46Z</time>
      </trkpt>
      <trkpt lat="44.82106" lon="5.32622">
        <ele>1020.6</ele>
        <time>2021-09-01T13:37:48Z</time>
      </trkpt>
      <trkpt lat="44.82104" lon="5.32619">
        <ele>1020.4</ele>
        <time>2021-09-01T13:37:51Z</time>
      </trkpt>
      <trkpt lat="44.82102" lon="5.3262">
        <ele>1020.2</ele>
        <time>2021-09-01T13:37:53Z</time>
      </trkpt>
      <trkpt lat="44.82101" lon="5.32621">
        <ele>1020</ele>
        <time>2021-09-01T13:37:54Z</time>
      </trkpt>
      <trkpt lat="44.82102" lon="5.32624">
        <ele>1019.8</ele>
        <time>2021-09-01T13:37:56Z</time>
      </trkpt>
      <trkpt lat="44.82103" lon="5.32626">
        <ele>1019.7</ele>
        <time>2021-09-01T13:37:58Z</time>
      </trkpt>
      <trkpt lat="44.82103" lon="5.32626">
        <ele>1019.7</ele>
        <time>2021-09-01T13:37:59Z</time>
      </trkpt>
      <trkpt lat="44.82103" lon="5.32625">
        <ele>1019.6</ele>
        <time>2021-09-01T13:38:01Z</time>
      </trkpt>
      <trkpt lat="44.82103" lon="5.32625">
        <ele>1019.6</ele>
        <time>2021-09-01T13:38:02Z</time>
      </trkpt>
      <trkpt lat="44.82103" lon="5.32624">
        <ele>1019.6</ele>
        <time>2021-09-01T13:38:04Z</time>
      </trkpt>
      <trkpt lat="44.82103" lon="5.32624">
        <ele>1019.6</ele>
        <time>2021-09-01T13:38:06Z</time>
      </trkpt>
      <trkpt lat="44.82103" lon="5.32624">
        <ele>1019.5</ele>
        <time>2021-09-01T13:38:08Z</time>
      </trkpt>
      <trkpt lat="44.82092" lon="5.32577">
        <ele>1016.3</ele>
        <time>2021-09-01T13:38:39Z</time>
      </trkpt>
      <trkpt lat="44.82089" lon="5.32564">
        <ele>1015.4</ele>
        <time>2021-09-01T13:38:41Z</time>
      </trkpt>
      <trkpt lat="44.82077" lon="5.32536">
        <ele>1013.2</ele>
        <time>2021-09-01T13:38:42Z</time>
      </trkpt>
      <trkpt lat="44.82074" lon="5.32531">
        <ele>1012.8</ele>
        <time>2021-09-01T13:38:43Z</time>
      </trkpt>
      <trkpt lat="44.82065" lon="5.32511">
        <ele>1011</ele>
        <time>2021-09-01T13:38:45Z</time>
      </trkpt>
      <trkpt lat="44.8206" lon="5.32503">
        <ele>1010.2</ele>
        <time>2021-09-01T13:38:46Z</time>
      </trkpt>
      <trkpt lat="44.8205" lon="5.32487">
        <ele>1008.5</ele>
        <time>2021-09-01T13:38:48Z</time>
      </trkpt>
      <trkpt lat="44.82045" lon="5.3248">
        <ele>1007.7</ele>
        <time>2021-09-01T13:38:49Z</time>
      </trkpt>
      <trkpt lat="44.82041" lon="5.32473">
        <ele>1007</ele>
        <time>2021-09-01T13:38:50Z</time>
      </trkpt>
      <trkpt lat="44.82034" lon="5.32461">
        <ele>1005.7</ele>
        <time>2021-09-01T13:38:52Z</time>
      </trkpt>
      <trkpt lat="44.8203" lon="5.32455">
        <ele>1005</ele>
        <time>2021-09-01T13:38:53Z</time>
      </trkpt>
      <trkpt lat="44.82021" lon="5.32446">
        <ele>1003.7</ele>
        <time>2021-09-01T13:38:55Z</time>
      </trkpt>
      <trkpt lat="44.82015" lon="5.32442">
        <ele>1003</ele>
        <time>2021-09-01T13:38:56Z</time>
      </trkpt>
      <trkpt lat="44.82003" lon="5.32435">
        <ele>1001.6</ele>
        <time>2021-09-01T13:38:58Z</time>
      </trkpt>
      <trkpt lat="44.81997" lon="5.32431">
        <ele>1000.7</ele>
        <time>2021-09-01T13:38:59Z</time>
      </trkpt>
      <trkpt lat="44.8199" lon="5.32427">
        <ele>999.9</ele>
        <time>2021-09-01T13:39:00Z</time>
      </trkpt>
      <trkpt lat="44.81984" lon="5.32424">
        <ele>999</ele>
        <time>2021-09-01T13:39:01Z</time>
      </trkpt>
      <trkpt lat="44.81978" lon="5.3242">
        <ele>998.1</ele>
        <time>2021-09-01T13:39:02Z</time>
      </trkpt>
      <trkpt lat="44.81965" lon="5.32413">
        <ele>996.3</ele>
        <time>2021-09-01T13:39:04Z</time>
      </trkpt>
      <trkpt lat="44.81958" lon="5.32409">
        <ele>995.5</ele>
        <time>2021-09-01T13:39:05Z</time>
      </trkpt>
      <trkpt lat="44.81946" lon="5.32403">
        <ele>994</ele>
        <time>2021-09-01T13:39:07Z</time>
      </trkpt>
      <trkpt lat="44.81941" lon="5.324">
        <ele>993.3</ele>
        <time>2021-09-01T13:39:08Z</time>
      </trkpt>
      <trkpt lat="44.81935" lon="5.32396">
        <ele>992.7</ele>
        <time>2021-09-01T13:39:09Z</time>
      </trkpt>
      <trkpt lat="44.81924" lon="5.3239">
        <ele>991.4</ele>
        <time>2021-09-01T13:39:11Z</time>
      </trkpt>
      <trkpt lat="44.81917" lon="5.32387">
        <ele>990.7</ele>
        <time>2021-09-01T13:39:12Z</time>
      </trkpt>
      <trkpt lat="44.81911" lon="5.32383">
        <ele>989.9</ele>
        <time>2021-09-01T13:39:13Z</time>
      </trkpt>
      <trkpt lat="44.81904" lon="5.3238">
        <ele>989.1</ele>
        <time>2021-09-01T13:39:14Z</time>
      </trkpt>
      <trkpt lat="44.81897" lon="5.32376">
        <ele>988.3</ele>
        <time>2021-09-01T13:39:15Z</time>
      </trkpt>
      <trkpt lat="44.81883" lon="5.3237">
        <ele>986.7</ele>
        <time>2021-09-01T13:39:17Z</time>
      </trkpt>
      <trkpt lat="44.81876" lon="5.32368">
        <ele>986</ele>
        <time>2021-09-01T13:39:18Z</time>
      </trkpt>
      <trkpt lat="44.81869" lon="5.32365">
        <ele>985.3</ele>
        <time>2021-09-01T13:39:19Z</time>
      </trkpt>
      <trkpt lat="44.81852" lon="5.32362">
        <ele>983.9</ele>
        <time>2021-09-01T13:39:21Z</time>
      </trkpt>
      <trkpt lat="44.81843" lon="5.3236">
        <ele>983.1</ele>
        <time>2021-09-01T13:39:22Z</time>
      </trkpt>
      <trkpt lat="44.81835" lon="5.32359">
        <ele>982.4</ele>
        <time>2021-09-01T13:39:23Z</time>
      </trkpt>
      <trkpt lat="44.81819" lon="5.32356">
        <ele>980.9</ele>
        <time>2021-09-01T13:39:25Z</time>
      </trkpt>
      <trkpt lat="44.8181" lon="5.32354">
        <ele>980.1</ele>
        <time>2021-09-01T13:39:26Z</time>
      </trkpt>
      <trkpt lat="44.81796" lon="5.3235">
        <ele>978.6</ele>
        <time>2021-09-01T13:39:28Z</time>
      </trkpt>
      <trkpt lat="44.81788" lon="5.32349">
        <ele>977.8</ele>
        <time>2021-09-01T13:39:29Z</time>
      </trkpt>
      <trkpt lat="44.81782" lon="5.32347">
        <ele>977</ele>
        <time>2021-09-01T13:39:30Z</time>
      </trkpt>
      <trkpt lat="44.81769" lon="5.32343">
        <ele>975.6</ele>
        <time>2021-09-01T13:39:32Z</time>
      </trkpt>
      <trkpt lat="44.81763" lon="5.3234">
        <ele>974.9</ele>
        <time>2021-09-01T13:39:33Z</time>
      </trkpt>
      <trkpt lat="44.81752" lon="5.32331">
        <ele>973</ele>
        <time>2021-09-01T13:39:35Z</time>
      </trkpt>
      <trkpt lat="44.81742" lon="5.32318">
        <ele>971.1</ele>
        <time>2021-09-01T13:39:37Z</time>
      </trkpt>
      <trkpt lat="44.81737" lon="5.32311">
        <ele>970.3</ele>
        <time>2021-09-01T13:39:38Z</time>
      </trkpt>
      <trkpt lat="44.81728" lon="5.32299">
        <ele>968.6</ele>
        <time>2021-09-01T13:39:40Z</time>
      </trkpt>
      <trkpt lat="44.81723" lon="5.32293">
        <ele>967.8</ele>
        <time>2021-09-01T13:39:41Z</time>
      </trkpt>
      <trkpt lat="44.81717" lon="5.32286">
        <ele>966.9</ele>
        <time>2021-09-01T13:39:42Z</time>
      </trkpt>
      <trkpt lat="44.81712" lon="5.32279">
        <ele>965.9</ele>
        <time>2021-09-01T13:39:43Z</time>
      </trkpt>
      <trkpt lat="44.81701" lon="5.32263">
        <ele>963.7</ele>
        <time>2021-09-01T13:39:45Z</time>
      </trkpt>
      <trkpt lat="44.81695" lon="5.32255">
        <ele>962.6</ele>
        <time>2021-09-01T13:39:46Z</time>
      </trkpt>
      <trkpt lat="44.8169" lon="5.32246">
        <ele>961.5</ele>
        <time>2021-09-01T13:39:47Z</time>
      </trkpt>
      <trkpt lat="44.81685" lon="5.32237">
        <ele>960.6</ele>
        <time>2021-09-01T13:39:48Z</time>
      </trkpt>
      <trkpt lat="44.8168" lon="5.32229">
        <ele>959.8</ele>
        <time>2021-09-01T13:39:49Z</time>
      </trkpt>
      <trkpt lat="44.81675" lon="5.32221">
        <ele>959.2</ele>
        <time>2021-09-01T13:39:50Z</time>
      </trkpt>
      <trkpt lat="44.81667" lon="5.32207">
        <ele>957.9</ele>
        <time>2021-09-01T13:39:52Z</time>
      </trkpt>
      <trkpt lat="44.81665" lon="5.322">
        <ele>957.4</ele>
        <time>2021-09-01T13:39:53Z</time>
      </trkpt>
      <trkpt lat="44.8166" lon="5.32187">
        <ele>956.4</ele>
        <time>2021-09-01T13:39:55Z</time>
      </trkpt>
      <trkpt lat="44.81659" lon="5.32183">
        <ele>956</ele>
        <time>2021-09-01T13:39:56Z</time>
      </trkpt>
      <trkpt lat="44.81656" lon="5.32173">
        <ele>955</ele>
        <time>2021-09-01T13:39:58Z</time>
      </trkpt>
      <trkpt lat="44.81655" lon="5.32168">
        <ele>954.4</ele>
        <time>2021-09-01T13:39:59Z</time>
      </trkpt>
      <trkpt lat="44.81656" lon="5.32162">
        <ele>953.8</ele>
        <time>2021-09-01T13:40:00Z</time>
      </trkpt>
      <trkpt lat="44.81661" lon="5.3215">
        <ele>952.3</ele>
        <time>2021-09-01T13:40:02Z</time>
      </trkpt>
      <trkpt lat="44.81666" lon="5.32146">
        <ele>951.4</ele>
        <time>2021-09-01T13:40:03Z</time>
      </trkpt>
      <trkpt lat="44.81681" lon="5.32136">
        <ele>949.2</ele>
        <time>2021-09-01T13:40:05Z</time>
      </trkpt>
      <trkpt lat="44.8169" lon="5.32131">
        <ele>948</ele>
        <time>2021-09-01T13:40:06Z</time>
      </trkpt>
      <trkpt lat="44.81699" lon="5.32125">
        <ele>946.8</ele>
        <time>2021-09-01T13:40:07Z</time>
      </trkpt>
      <trkpt lat="44.8171" lon="5.3212">
        <ele>935.2</ele>
        <time>2021-09-01T13:40:08Z</time>
      </trkpt>
      <trkpt lat="44.8173" lon="5.32109">
        <ele>923.3</ele>
        <time>2021-09-01T13:40:10Z</time>
      </trkpt>
      <trkpt lat="44.81749" lon="5.32097">
        <ele>925.7</ele>
        <time>2021-09-01T13:40:12Z</time>
      </trkpt>
      <trkpt lat="44.81767" lon="5.32085">
        <ele>928.2</ele>
        <time>2021-09-01T13:40:14Z</time>
      </trkpt>
      <trkpt lat="44.81784" lon="5.32076">
        <ele>930.2</ele>
        <time>2021-09-01T13:40:16Z</time>
      </trkpt>
      <trkpt lat="44.81792" lon="5.32072">
        <ele>931.1</ele>
        <time>2021-09-01T13:40:17Z</time>
      </trkpt>
      <trkpt lat="44.81801" lon="5.32067">
        <ele>932</ele>
        <time>2021-09-01T13:40:18Z</time>
      </trkpt>
      <trkpt lat="44.81809" lon="5.32063">
        <ele>932.9</ele>
        <time>2021-09-01T13:40:19Z</time>
      </trkpt>
      <trkpt lat="44.81816" lon="5.32058">
        <ele>933.6</ele>
        <time>2021-09-01T13:40:20Z</time>
      </trkpt>
      <trkpt lat="44.81826" lon="5.3205">
        <ele>934.4</ele>
        <time>2021-09-01T13:40:22Z</time>
      </trkpt>
      <trkpt lat="44.8183" lon="5.32046">
        <ele>934</ele>
        <time>2021-09-01T13:40:23Z</time>
      </trkpt>
      <trkpt lat="44.81835" lon="5.32041">
        <ele>933.6</ele>
        <time>2021-09-01T13:40:25Z</time>
      </trkpt>
      <trkpt lat="44.81834" lon="5.3204">
        <ele>933.5</ele>
        <time>2021-09-01T13:40:26Z</time>
      </trkpt>
      <trkpt lat="44.81832" lon="5.32041">
        <ele>933.3</ele>
        <time>2021-09-01T13:40:28Z</time>
      </trkpt>
      <trkpt lat="44.8183" lon="5.32042">
        <ele>933.1</ele>
        <time>2021-09-01T13:40:29Z</time>
      </trkpt>
      <trkpt lat="44.81817" lon="5.32049">
        <ele>932</ele>
        <time>2021-09-01T13:40:31Z</time>
      </trkpt>
      <trkpt lat="44.8181" lon="5.32051">
        <ele>931.3</ele>
        <time>2021-09-01T13:40:32Z</time>
      </trkpt>
      <trkpt lat="44.81802" lon="5.32053">
        <ele>930.6</ele>
        <time>2021-09-01T13:40:33Z</time>
      </trkpt>
      <trkpt lat="44.81786" lon="5.32055">
        <ele>929.2</ele>
        <time>2021-09-01T13:40:35Z</time>
      </trkpt>
      <trkpt lat="44.81778" lon="5.32057">
        <ele>928.5</ele>
        <time>2021-09-01T13:40:36Z</time>
      </trkpt>
      <trkpt lat="44.81769" lon="5.32059">
        <ele>927.6</ele>
        <time>2021-09-01T13:40:37Z</time>
      </trkpt>
      <trkpt lat="44.81751" lon="5.32064">
        <ele>925.7</ele>
        <time>2021-09-01T13:40:39Z</time>
      </trkpt>
      <trkpt lat="44.81732" lon="5.3207">
        <ele>923.8</ele>
        <time>2021-09-01T13:40:41Z</time>
      </trkpt>
      <trkpt lat="44.81722" lon="5.32073">
        <ele>922.8</ele>
        <time>2021-09-01T13:40:42Z</time>
      </trkpt>
      <trkpt lat="44.81712" lon="5.32075">
        <ele>921.7</ele>
        <time>2021-09-01T13:40:43Z</time>
      </trkpt>
      <trkpt lat="44.81692" lon="5.3208">
        <ele>918.7</ele>
        <time>2021-09-01T13:40:45Z</time>
      </trkpt>
      <trkpt lat="44.81671" lon="5.32084">
        <ele>916.1</ele>
        <time>2021-09-01T13:40:47Z</time>
      </trkpt>
      <trkpt lat="44.81661" lon="5.32085">
        <ele>914.8</ele>
        <time>2021-09-01T13:40:48Z</time>
      </trkpt>
      <trkpt lat="44.8164" lon="5.32087">
        <ele>912.1</ele>
        <time>2021-09-01T13:40:50Z</time>
      </trkpt>
      <trkpt lat="44.8163" lon="5.32088">
        <ele>910.7</ele>
        <time>2021-09-01T13:40:51Z</time>
      </trkpt>
      <trkpt lat="44.81612" lon="5.32091">
        <ele>908</ele>
        <time>2021-09-01T13:40:53Z</time>
      </trkpt>
      <trkpt lat="44.81603" lon="5.3209">
        <ele>906.6</ele>
        <time>2021-09-01T13:40:54Z</time>
      </trkpt>
      <trkpt lat="44.81583" lon="5.32083">
        <ele>904.1</ele>
        <time>2021-09-01T13:40:56Z</time>
      </trkpt>
      <trkpt lat="44.81574" lon="5.3208">
        <ele>903</ele>
        <time>2021-09-01T13:40:57Z</time>
      </trkpt>
      <trkpt lat="44.81559" lon="5.32073">
        <ele>901.3</ele>
        <time>2021-09-01T13:40:59Z</time>
      </trkpt>
      <trkpt lat="44.81546" lon="5.32066">
        <ele>899.8</ele>
        <time>2021-09-01T13:41:01Z</time>
      </trkpt>
      <trkpt lat="44.8154" lon="5.32063">
        <ele>899</ele>
        <time>2021-09-01T13:41:02Z</time>
      </trkpt>
      <trkpt lat="44.8153" lon="5.32059">
        <ele>897.6</ele>
        <time>2021-09-01T13:41:04Z</time>
      </trkpt>
      <trkpt lat="44.81524" lon="5.32058">
        <ele>897</ele>
        <time>2021-09-01T13:41:05Z</time>
      </trkpt>
      <trkpt lat="44.8152" lon="5.32057">
        <ele>896.5</ele>
        <time>2021-09-01T13:41:06Z</time>
      </trkpt>
      <trkpt lat="44.81512" lon="5.32057">
        <ele>895.8</ele>
        <time>2021-09-01T13:41:08Z</time>
      </trkpt>
      <trkpt lat="44.81507" lon="5.3206">
        <ele>895.3</ele>
        <time>2021-09-01T13:41:10Z</time>
      </trkpt>
      <trkpt lat="44.81502" lon="5.32064">
        <ele>894.7</ele>
        <time>2021-09-01T13:41:12Z</time>
      </trkpt>
      <trkpt lat="44.81499" lon="5.32066">
        <ele>894.3</ele>
        <time>2021-09-01T13:41:14Z</time>
      </trkpt>
      <trkpt lat="44.81496" lon="5.32067">
        <ele>894</ele>
        <time>2021-09-01T13:41:15Z</time>
      </trkpt>
      <trkpt lat="44.81493" lon="5.32068">
        <ele>893.6</ele>
        <time>2021-09-01T13:41:16Z</time>
      </trkpt>
      <trkpt lat="44.8149" lon="5.32069">
        <ele>893.3</ele>
        <time>2021-09-01T13:41:18Z</time>
      </trkpt>
      <trkpt lat="44.81487" lon="5.3207">
        <ele>892.9</ele>
        <time>2021-09-01T13:41:19Z</time>
      </trkpt>
      <trkpt lat="44.81484" lon="5.32071">
        <ele>892.5</ele>
        <time>2021-09-01T13:41:20Z</time>
      </trkpt>
      <trkpt lat="44.81481" lon="5.32072">
        <ele>892.1</ele>
        <time>2021-09-01T13:41:22Z</time>
      </trkpt>
      <trkpt lat="44.81478" lon="5.32073">
        <ele>891.7</ele>
        <time>2021-09-01T13:41:56Z</time>
      </trkpt>
      <trkpt lat="44.81475" lon="5.32073">
        <ele>891.2</ele>
        <time>2021-09-01T13:41:57Z</time>
      </trkpt>
      <trkpt lat="44.81471" lon="5.32076">
        <ele>890.6</ele>
        <time>2021-09-01T13:41:59Z</time>
      </trkpt>
      <trkpt lat="44.81467" lon="5.32077">
        <ele>890</ele>
        <time>2021-09-01T13:42:00Z</time>
      </trkpt>
      <trkpt lat="44.81463" lon="5.32079">
        <ele>889.5</ele>
        <time>2021-09-01T13:42:01Z</time>
      </trkpt>
      <trkpt lat="44.81459" lon="5.3208">
        <ele>888.9</ele>
        <time>2021-09-01T13:42:02Z</time>
      </trkpt>
      <trkpt lat="44.81455" lon="5.3208">
        <ele>888.4</ele>
        <time>2021-09-01T13:42:04Z</time>
      </trkpt>
      <trkpt lat="44.81452" lon="5.3208">
        <ele>888</ele>
        <time>2021-09-01T13:42:05Z</time>
      </trkpt>
      <trkpt lat="44.81449" lon="5.3208">
        <ele>887.5</ele>
        <time>2021-09-01T13:42:06Z</time>
      </trkpt>
      <trkpt lat="44.81444" lon="5.32079">
        <ele>886.8</ele>
        <time>2021-09-01T13:42:08Z</time>
      </trkpt>
      <trkpt lat="44.81439" lon="5.32078">
        <ele>886.1</ele>
        <time>2021-09-01T13:42:09Z</time>
      </trkpt>
      <trkpt lat="44.81433" lon="5.32075">
        <ele>885.2</ele>
        <time>2021-09-01T13:42:10Z</time>
      </trkpt>
      <trkpt lat="44.81428" lon="5.32072">
        <ele>884.5</ele>
        <time>2021-09-01T13:42:12Z</time>
      </trkpt>
      <trkpt lat="44.81422" lon="5.32072">
        <ele>883.7</ele>
        <time>2021-09-01T13:42:14Z</time>
      </trkpt>
      <trkpt lat="44.81419" lon="5.32067">
        <ele>882.9</ele>
        <time>2021-09-01T13:42:16Z</time>
      </trkpt>
      <trkpt lat="44.81417" lon="5.32063">
        <ele>882.4</ele>
        <time>2021-09-01T13:42:17Z</time>
      </trkpt>
      <trkpt lat="44.81416" lon="5.32062">
        <ele>882.2</ele>
        <time>2021-09-01T13:42:18Z</time>
      </trkpt>
      <trkpt lat="44.81416" lon="5.3206">
        <ele>882</ele>
        <time>2021-09-01T13:42:20Z</time>
      </trkpt>
      <trkpt lat="44.81416" lon="5.3206">
        <ele>881.9</ele>
        <time>2021-09-01T13:42:21Z</time>
      </trkpt>
      <trkpt lat="44.81416" lon="5.32059">
        <ele>881.9</ele>
        <time>2021-09-01T13:42:23Z</time>
      </trkpt>
      <trkpt lat="44.81416" lon="5.32059">
        <ele>881.8</ele>
        <time>2021-09-01T13:42:24Z</time>
      </trkpt>
      <trkpt lat="44.81416" lon="5.32059">
        <ele>881.8</ele>
        <time>2021-09-01T13:42:26Z</time>
      </trkpt>
      <trkpt lat="44.81416" lon="5.32059">
        <ele>881.8</ele>
        <time>2021-09-01T13:42:28Z</time>
      </trkpt>
      <trkpt lat="44.81403" lon="5.32051">
        <ele>879.5</ele>
        <time>2021-09-01T13:42:54Z</time>
      </trkpt>
      <trkpt lat="44.81398" lon="5.32051">
        <ele>878.5</ele>
        <time>2021-09-01T13:42:56Z</time>
      </trkpt>
      <trkpt lat="44.81394" lon="5.32054">
        <ele>877.9</ele>
        <time>2021-09-01T13:42:57Z</time>
      </trkpt>
      <trkpt lat="44.8139" lon="5.32057">
        <ele>877.2</ele>
        <time>2021-09-01T13:42:58Z</time>
      </trkpt>
      <trkpt lat="44.8138" lon="5.32062">
        <ele>875.8</ele>
        <time>2021-09-01T13:43:00Z</time>
      </trkpt>
      <trkpt lat="44.81375" lon="5.32065">
        <ele>875.2</ele>
        <time>2021-09-01T13:43:01Z</time>
      </trkpt>
      <trkpt lat="44.81369" lon="5.32065">
        <ele>874.5</ele>
        <time>2021-09-01T13:43:02Z</time>
      </trkpt>
      <trkpt lat="44.8136" lon="5.32066">
        <ele>873.5</ele>
        <time>2021-09-01T13:43:04Z</time>
      </trkpt>
      <trkpt lat="44.81355" lon="5.32069">
        <ele>872.8</ele>
        <time>2021-09-01T13:43:05Z</time>
      </trkpt>
      <trkpt lat="44.81351" lon="5.32071">
        <ele>872.3</ele>
        <time>2021-09-01T13:43:06Z</time>
      </trkpt>
      <trkpt lat="44.81344" lon="5.32072">
        <ele>871.5</ele>
        <time>2021-09-01T13:43:07Z</time>
      </trkpt>
      <trkpt lat="44.81339" lon="5.32075">
        <ele>870.8</ele>
        <time>2021-09-01T13:43:09Z</time>
      </trkpt>
      <trkpt lat="44.81337" lon="5.32077">
        <ele>870.3</ele>
        <time>2021-09-01T13:43:10Z</time>
      </trkpt>
      <trkpt lat="44.81332" lon="5.32082">
        <ele>869.6</ele>
        <time>2021-09-01T13:43:12Z</time>
      </trkpt>
      <trkpt lat="44.8133" lon="5.32085">
        <ele>869.1</ele>
        <time>2021-09-01T13:43:13Z</time>
      </trkpt>
      <trkpt lat="44.81328" lon="5.32088">
        <ele>868.7</ele>
        <time>2021-09-01T13:43:14Z</time>
      </trkpt>
      <trkpt lat="44.81323" lon="5.32092">
        <ele>867.9</ele>
        <time>2021-09-01T13:43:15Z</time>
      </trkpt>
      <trkpt lat="44.81319" lon="5.32096">
        <ele>867.2</ele>
        <time>2021-09-01T13:43:17Z</time>
      </trkpt>
      <trkpt lat="44.81315" lon="5.321">
        <ele>866.3</ele>
        <time>2021-09-01T13:43:18Z</time>
      </trkpt>
      <trkpt lat="44.81311" lon="5.32103">
        <ele>865.5</ele>
        <time>2021-09-01T13:43:20Z</time>
      </trkpt>
      <trkpt lat="44.81306" lon="5.32106">
        <ele>864.7</ele>
        <time>2021-09-01T13:43:21Z</time>
      </trkpt>
      <trkpt lat="44.81299" lon="5.32108">
        <ele>863.6</ele>
        <time>2021-09-01T13:43:23Z</time>
      </trkpt>
      <trkpt lat="44.81296" lon="5.32108">
        <ele>863.1</ele>
        <time>2021-09-01T13:43:24Z</time>
      </trkpt>
      <trkpt lat="44.81292" lon="5.32108">
        <ele>862.5</ele>
        <time>2021-09-01T13:43:25Z</time>
      </trkpt>
      <trkpt lat="44.81289" lon="5.32107">
        <ele>862</ele>
        <time>2021-09-01T13:43:26Z</time>
      </trkpt>
      <trkpt lat="44.81286" lon="5.32106">
        <ele>861.6</ele>
        <time>2021-09-01T13:43:27Z</time>
      </trkpt>
      <trkpt lat="44.81282" lon="5.32106">
        <ele>861</ele>
        <time>2021-09-01T13:43:28Z</time>
      </trkpt>
      <trkpt lat="44.81281" lon="5.32106">
        <ele>860.9</ele>
        <time>2021-09-01T13:43:29Z</time>
      </trkpt>
      <trkpt lat="44.81278" lon="5.32106">
        <ele>860.3</ele>
        <time>2021-09-01T13:43:31Z</time>
      </trkpt>
      <trkpt lat="44.81276" lon="5.32105">
        <ele>860.2</ele>
        <time>2021-09-01T13:43:32Z</time>
      </trkpt>
      <trkpt lat="44.81274" lon="5.32102">
        <ele>859.7</ele>
        <time>2021-09-01T13:43:33Z</time>
      </trkpt>
      <trkpt lat="44.81272" lon="5.32099">
        <ele>859.3</ele>
        <time>2021-09-01T13:43:34Z</time>
      </trkpt>
      <trkpt lat="44.81269" lon="5.32094">
        <ele>858.6</ele>
        <time>2021-09-01T13:43:36Z</time>
      </trkpt>
      <trkpt lat="44.81266" lon="5.32089">
        <ele>858</ele>
        <time>2021-09-01T13:43:37Z</time>
      </trkpt>
      <trkpt lat="44.81264" lon="5.32085">
        <ele>857.4</ele>
        <time>2021-09-01T13:43:39Z</time>
      </trkpt>
      <trkpt lat="44.8126" lon="5.3208">
        <ele>857.1</ele>
        <time>2021-09-01T13:43:41Z</time>
      </trkpt>
      <trkpt lat="44.81259" lon="5.32078">
        <ele>857.1</ele>
        <time>2021-09-01T13:43:42Z</time>
      </trkpt>
      <trkpt lat="44.81257" lon="5.32077">
        <ele>857.1</ele>
        <time>2021-09-01T13:43:44Z</time>
      </trkpt>
      <trkpt lat="44.81257" lon="5.32076">
        <ele>857.1</ele>
        <time>2021-09-01T13:43:45Z</time>
      </trkpt>
      <trkpt lat="44.81257" lon="5.32076">
        <ele>857.1</ele>
        <time>2021-09-01T13:43:46Z</time>
      </trkpt>
      <trkpt lat="44.81256" lon="5.32075">
        <ele>857.1</ele>
        <time>2021-09-01T13:43:48Z</time>
      </trkpt>
      <trkpt lat="44.81256" lon="5.32075">
        <ele>857.1</ele>
        <time>2021-09-01T13:43:49Z</time>
      </trkpt>
      <trkpt lat="44.81255" lon="5.32074">
        <ele>857.1</ele>
        <time>2021-09-01T13:43:51Z</time>
      </trkpt>
      <trkpt lat="44.81255" lon="5.32074">
        <ele>857.1</ele>
        <time>2021-09-01T13:43:52Z</time>
      </trkpt>
      <trkpt lat="44.81445" lon="5.31761">
        <ele>804.3</ele>
        <time>2021-09-01T13:48:53Z</time>
      </trkpt>
      <trkpt lat="44.81448" lon="5.31763">
        <ele>804.5</ele>
        <time>2021-09-01T13:48:55Z</time>
      </trkpt>
      <trkpt lat="44.81451" lon="5.31765">
        <ele>804.7</ele>
        <time>2021-09-01T13:48:56Z</time>
      </trkpt>
      <trkpt lat="44.81455" lon="5.31767">
        <ele>804.9</ele>
        <time>2021-09-01T13:48:58Z</time>
      </trkpt>
      <trkpt lat="44.81459" lon="5.31769">
        <ele>805.2</ele>
        <time>2021-09-01T13:48:59Z</time>
      </trkpt>
      <trkpt lat="44.81463" lon="5.31771">
        <ele>805.5</ele>
        <time>2021-09-01T13:49:01Z</time>
      </trkpt>
      <trkpt lat="44.81466" lon="5.31771">
        <ele>805.6</ele>
        <time>2021-09-01T13:49:02Z</time>
      </trkpt>
      <trkpt lat="44.8147" lon="5.31773">
        <ele>805.8</ele>
        <time>2021-09-01T13:49:03Z</time>
      </trkpt>
      <trkpt lat="44.8147" lon="5.31774">
        <ele>805.8</ele>
        <time>2021-09-01T13:49:04Z</time>
      </trkpt>
      <trkpt lat="44.81474" lon="5.31776">
        <ele>806</ele>
        <time>2021-09-01T13:49:05Z</time>
      </trkpt>
      <trkpt lat="44.81475" lon="5.31777">
        <ele>806</ele>
        <time>2021-09-01T13:49:06Z</time>
      </trkpt>
      <trkpt lat="44.81478" lon="5.31778">
        <ele>806.1</ele>
        <time>2021-09-01T13:49:08Z</time>
      </trkpt>
      <trkpt lat="44.8148" lon="5.31779">
        <ele>806.2</ele>
        <time>2021-09-01T13:49:09Z</time>
      </trkpt>
      <trkpt lat="44.81482" lon="5.31778">
        <ele>806.2</ele>
        <time>2021-09-01T13:49:10Z</time>
      </trkpt>
      <trkpt lat="44.81485" lon="5.31777">
        <ele>806.3</ele>
        <time>2021-09-01T13:49:12Z</time>
      </trkpt>
      <trkpt lat="44.81486" lon="5.31776">
        <ele>806.3</ele>
        <time>2021-09-01T13:49:13Z</time>
      </trkpt>
      <trkpt lat="44.81489" lon="5.31776">
        <ele>806.4</ele>
        <time>2021-09-01T13:49:14Z</time>
      </trkpt>
      <trkpt lat="44.81493" lon="5.31776">
        <ele>806.4</ele>
        <time>2021-09-01T13:49:16Z</time>
      </trkpt>
      <trkpt lat="44.81497" lon="5.31776">
        <ele>806.5</ele>
        <time>2021-09-01T13:49:17Z</time>
      </trkpt>
      <trkpt lat="44.81498" lon="5.31775">
        <ele>806.5</ele>
        <time>2021-09-01T13:49:18Z</time>
      </trkpt>
      <trkpt lat="44.81501" lon="5.31775">
        <ele>806.5</ele>
        <time>2021-09-01T13:49:19Z</time>
      </trkpt>
      <trkpt lat="44.81504" lon="5.31775">
        <ele>806.6</ele>
        <time>2021-09-01T13:49:21Z</time>
      </trkpt>
      <trkpt lat="44.81509" lon="5.31775">
        <ele>806.7</ele>
        <time>2021-09-01T13:49:22Z</time>
      </trkpt>
      <trkpt lat="44.81511" lon="5.31774">
        <ele>806.7</ele>
        <time>2021-09-01T13:49:23Z</time>
      </trkpt>
      <trkpt lat="44.81514" lon="5.31775">
        <ele>806.8</ele>
        <time>2021-09-01T13:49:25Z</time>
      </trkpt>
      <trkpt lat="44.81518" lon="5.31776">
        <ele>806.9</ele>
        <time>2021-09-01T13:49:27Z</time>
      </trkpt>
      <trkpt lat="44.81522" lon="5.31776">
        <ele>807</ele>
        <time>2021-09-01T13:49:28Z</time>
      </trkpt>
      <trkpt lat="44.81526" lon="5.31775">
        <ele>807.1</ele>
        <time>2021-09-01T13:49:30Z</time>
      </trkpt>
      <trkpt lat="44.81529" lon="5.31773">
        <ele>807.2</ele>
        <time>2021-09-01T13:49:31Z</time>
      </trkpt>
      <trkpt lat="44.81533" lon="5.31772">
        <ele>807.3</ele>
        <time>2021-09-01T13:49:33Z</time>
      </trkpt>
      <trkpt lat="44.81537" lon="5.3177">
        <ele>807.3</ele>
        <time>2021-09-01T13:49:35Z</time>
      </trkpt>
      <trkpt lat="44.8154" lon="5.31768">
        <ele>807.4</ele>
        <time>2021-09-01T13:49:36Z</time>
      </trkpt>
      <trkpt lat="44.81543" lon="5.31765">
        <ele>807.5</ele>
        <time>2021-09-01T13:49:37Z</time>
      </trkpt>
      <trkpt lat="44.81548" lon="5.31762">
        <ele>807.5</ele>
        <time>2021-09-01T13:49:38Z</time>
      </trkpt>
      <trkpt lat="44.81552" lon="5.31758">
        <ele>807.6</ele>
        <time>2021-09-01T13:49:40Z</time>
      </trkpt>
      <trkpt lat="44.81555" lon="5.31757">
        <ele>807.6</ele>
        <time>2021-09-01T13:49:41Z</time>
      </trkpt>
      <trkpt lat="44.81557" lon="5.31756">
        <ele>807.6</ele>
        <time>2021-09-01T13:49:43Z</time>
      </trkpt>
      <trkpt lat="44.8156" lon="5.31754">
        <ele>807.6</ele>
        <time>2021-09-01T13:49:45Z</time>
      </trkpt>
      <trkpt lat="44.81564" lon="5.31753">
        <ele>807.6</ele>
        <time>2021-09-01T13:49:47Z</time>
      </trkpt>
      <trkpt lat="44.81568" lon="5.31753">
        <ele>807.7</ele>
        <time>2021-09-01T13:49:48Z</time>
      </trkpt>
      <trkpt lat="44.81632" lon="5.31787">
        <ele>807.7</ele>
        <time>2021-09-01T13:50:09Z</time>
      </trkpt>
      <trkpt lat="44.81635" lon="5.31791">
        <ele>807.7</ele>
        <time>2021-09-01T13:50:11Z</time>
      </trkpt>
      <trkpt lat="44.81638" lon="5.31794">
        <ele>807.7</ele>
        <time>2021-09-01T13:50:12Z</time>
      </trkpt>
      <trkpt lat="44.81642" lon="5.31797">
        <ele>807.7</ele>
        <time>2021-09-01T13:50:14Z</time>
      </trkpt>
      <trkpt lat="44.81649" lon="5.31803">
        <ele>807.7</ele>
        <time>2021-09-01T13:50:15Z</time>
      </trkpt>
      <trkpt lat="44.81654" lon="5.31806">
        <ele>807.7</ele>
        <time>2021-09-01T13:50:16Z</time>
      </trkpt>
      <trkpt lat="44.81656" lon="5.31809">
        <ele>807.7</ele>
        <time>2021-09-01T13:50:18Z</time>
      </trkpt>
      <trkpt lat="44.81657" lon="5.3181">
        <ele>807.7</ele>
        <time>2021-09-01T13:50:19Z</time>
      </trkpt>
      <trkpt lat="44.81661" lon="5.31814">
        <ele>807.7</ele>
        <time>2021-09-01T13:50:21Z</time>
      </trkpt>
      <trkpt lat="44.81664" lon="5.31816">
        <ele>807.7</ele>
        <time>2021-09-01T13:50:22Z</time>
      </trkpt>
      <trkpt lat="44.81765" lon="5.31792">
        <ele>808.7</ele>
        <time>2021-09-01T13:51:43Z</time>
      </trkpt>
      <trkpt lat="44.81769" lon="5.3179">
        <ele>808.8</ele>
        <time>2021-09-01T13:51:45Z</time>
      </trkpt>
      <trkpt lat="44.81772" lon="5.31788">
        <ele>808.8</ele>
        <time>2021-09-01T13:51:47Z</time>
      </trkpt>
      <trkpt lat="44.81772" lon="5.31788">
        <ele>808.8</ele>
        <time>2021-09-01T13:51:48Z</time>
      </trkpt>
      <trkpt lat="44.81773" lon="5.31787">
        <ele>808.8</ele>
        <time>2021-09-01T13:51:50Z</time>
      </trkpt>
      <trkpt lat="44.81773" lon="5.31787">
        <ele>808.8</ele>
        <time>2021-09-01T13:51:51Z</time>
      </trkpt>
      <trkpt lat="44.81773" lon="5.31787">
        <ele>808.8</ele>
        <time>2021-09-01T13:51:53Z</time>
      </trkpt>
      <trkpt lat="44.81773" lon="5.31787">
        <ele>808.8</ele>
        <time>2021-09-01T13:51:54Z</time>
      </trkpt>
      <trkpt lat="44.81772" lon="5.31787">
        <ele>808.8</ele>
        <time>2021-09-01T13:51:56Z</time>
      </trkpt>
      <trkpt lat="44.81769" lon="5.31788">
        <ele>808.8</ele>
        <time>2021-09-01T13:51:57Z</time>
      </trkpt>
      <trkpt lat="44.81765" lon="5.3179">
        <ele>808.9</ele>
        <time>2021-09-01T13:51:59Z</time>
      </trkpt>
      <trkpt lat="44.81763" lon="5.31791">
        <ele>808.9</ele>
        <time>2021-09-01T13:52:00Z</time>
      </trkpt>
      <trkpt lat="44.81763" lon="5.31791">
        <ele>808.9</ele>
        <time>2021-09-01T13:52:01Z</time>
      </trkpt>
      <trkpt lat="44.81763" lon="5.31792">
        <ele>808.9</ele>
        <time>2021-09-01T13:52:02Z</time>
      </trkpt>
      <trkpt lat="44.81763" lon="5.31792">
        <ele>808.9</ele>
        <time>2021-09-01T13:52:04Z</time>
      </trkpt>
      <trkpt lat="44.81763" lon="5.31792">
        <ele>808.9</ele>
        <time>2021-09-01T13:52:05Z</time>
      </trkpt>
      <trkpt lat="44.81763" lon="5.31793">
        <ele>808.9</ele>
        <time>2021-09-01T13:52:06Z</time>
      </trkpt>
      <trkpt lat="44.81762" lon="5.31793">
        <ele>808.9</ele>
        <time>2021-09-01T13:52:07Z</time>
      </trkpt>
      <trkpt lat="44.81762" lon="5.31794">
        <ele>808.9</ele>
        <time>2021-09-01T13:52:08Z</time>
      </trkpt>
      <trkpt lat="44.81762" lon="5.31794">
        <ele>808.9</ele>
        <time>2021-09-01T13:52:09Z</time>
      </trkpt>
      <trkpt lat="44.81762" lon="5.31794">
        <ele>808.9</ele>
        <time>2021-09-01T13:52:11Z</time>
      </trkpt>
      <trkpt lat="44.81762" lon="5.31795">
        <ele>808.9</ele>
        <time>2021-09-01T13:52:13Z</time>
      </trkpt>
      <trkpt lat="44.81762" lon="5.31795">
        <ele>808.9</ele>
        <time>2021-09-01T13:52:15Z</time>
      </trkpt>
      <trkpt lat="44.81762" lon="5.31795">
        <ele>808.9</ele>
        <time>2021-09-01T13:52:17Z</time>
      </trkpt>
      <trkpt lat="44.81762" lon="5.31796">
        <ele>808.9</ele>
        <time>2021-09-01T13:52:18Z</time>
      </trkpt>
      <trkpt lat="44.81761" lon="5.31796">
        <ele>808.9</ele>
        <time>2021-09-01T13:52:20Z</time>
      </trkpt>
      <trkpt lat="44.81761" lon="5.31796">
        <ele>808.9</ele>
        <time>2021-09-01T13:52:22Z</time>
      </trkpt>
      <trkpt lat="44.81761" lon="5.31797">
        <ele>809</ele>
        <time>2021-09-01T13:52:23Z</time>
      </trkpt>
      <trkpt lat="44.81759" lon="5.31803">
        <ele>809</ele>
        <time>2021-09-01T13:52:24Z</time>
      </trkpt>
      <trkpt lat="44.81759" lon="5.31804">
        <ele>809</ele>
        <time>2021-09-01T13:52:25Z</time>
      </trkpt>
      <trkpt lat="44.81761" lon="5.31799">
        <ele>809.1</ele>
        <time>2021-09-01T13:52:27Z</time>
      </trkpt>
      <trkpt lat="44.8176" lon="5.31801">
        <ele>809.1</ele>
        <time>2021-09-01T13:52:29Z</time>
      </trkpt>
      <trkpt lat="44.8176" lon="5.31803">
        <ele>809.1</ele>
        <time>2021-09-01T13:52:30Z</time>
      </trkpt>
      <trkpt lat="44.8176" lon="5.31804">
        <ele>809.1</ele>
        <time>2021-09-01T13:52:32Z</time>
      </trkpt>
      <trkpt lat="44.81759" lon="5.31805">
        <ele>809.2</ele>
        <time>2021-09-01T13:52:33Z</time>
      </trkpt>
      <trkpt lat="44.81759" lon="5.31805">
        <ele>809.2</ele>
        <time>2021-09-01T13:52:34Z</time>
      </trkpt>
      <trkpt lat="44.81759" lon="5.31804">
        <ele>809.2</ele>
        <time>2021-09-01T13:52:35Z</time>
      </trkpt>
      <trkpt lat="44.81759" lon="5.31803">
        <ele>809.2</ele>
        <time>2021-09-01T13:52:36Z</time>
      </trkpt>
      <trkpt lat="44.81758" lon="5.31801">
        <ele>809.2</ele>
        <time>2021-09-01T13:52:37Z</time>
      </trkpt>
      <trkpt lat="44.81758" lon="5.31799">
        <ele>809.2</ele>
        <time>2021-09-01T13:52:38Z</time>
      </trkpt>
      <trkpt lat="44.81757" lon="5.31795">
        <ele>809.2</ele>
        <time>2021-09-01T13:52:40Z</time>
      </trkpt>
      <trkpt lat="44.81757" lon="5.31794">
        <ele>809.2</ele>
        <time>2021-09-01T13:52:41Z</time>
      </trkpt>
      <trkpt lat="44.81754" lon="5.31788">
        <ele>809.3</ele>
        <time>2021-09-01T13:52:43Z</time>
      </trkpt>
      <trkpt lat="44.8175" lon="5.3178">
        <ele>809.3</ele>
        <time>2021-09-01T13:52:45Z</time>
      </trkpt>
      <trkpt lat="44.81747" lon="5.31773">
        <ele>809.3</ele>
        <time>2021-09-01T13:52:46Z</time>
      </trkpt>
      <trkpt lat="44.81745" lon="5.31766">
        <ele>809.4</ele>
        <time>2021-09-01T13:52:48Z</time>
      </trkpt>
      <trkpt lat="44.81744" lon="5.31762">
        <ele>809.5</ele>
        <time>2021-09-01T13:52:49Z</time>
      </trkpt>
      <trkpt lat="44.81744" lon="5.31759">
        <ele>809.5</ele>
        <time>2021-09-01T13:52:51Z</time>
      </trkpt>
      <trkpt lat="44.81744" lon="5.31755">
        <ele>809.5</ele>
        <time>2021-09-01T13:52:52Z</time>
      </trkpt>
      <trkpt lat="44.81743" lon="5.31751">
        <ele>809.6</ele>
        <time>2021-09-01T13:52:54Z</time>
      </trkpt>
      <trkpt lat="44.8158" lon="5.31374">
        <ele>807.9</ele>
        <time>2021-09-01T13:55:36Z</time>
      </trkpt>
      <trkpt lat="44.81578" lon="5.31372">
        <ele>807.8</ele>
        <time>2021-09-01T13:55:37Z</time>
      </trkpt>
      <trkpt lat="44.81575" lon="5.31368">
        <ele>807.7</ele>
        <time>2021-09-01T13:55:39Z</time>
      </trkpt>
      <trkpt lat="44.81572" lon="5.31362">
        <ele>807.5</ele>
        <time>2021-09-01T13:55:41Z</time>
      </trkpt>
      <trkpt lat="44.8157" lon="5.31356">
        <ele>807.4</ele>
        <time>2021-09-01T13:55:42Z</time>
      </trkpt>
      <trkpt lat="44.81568" lon="5.31351">
        <ele>807.3</ele>
        <time>2021-09-01T13:55:43Z</time>
      </trkpt>
      <trkpt lat="44.81565" lon="5.31346">
        <ele>807.2</ele>
        <time>2021-09-01T13:55:45Z</time>
      </trkpt>
      <trkpt lat="44.81563" lon="5.31342">
        <ele>807.1</ele>
        <time>2021-09-01T13:55:46Z</time>
      </trkpt>
      <trkpt lat="44.81562" lon="5.31336">
        <ele>807</ele>
        <time>2021-09-01T13:55:47Z</time>
      </trkpt>
      <trkpt lat="44.81562" lon="5.31332">
        <ele>807</ele>
        <time>2021-09-01T13:55:49Z</time>
      </trkpt>
      <trkpt lat="44.81562" lon="5.31329">
        <ele>807</ele>
        <time>2021-09-01T13:55:50Z</time>
      </trkpt>
      <trkpt lat="44.81561" lon="5.3132">
        <ele>806.9</ele>
        <time>2021-09-01T13:55:52Z</time>
      </trkpt>
      <trkpt lat="44.81559" lon="5.31319">
        <ele>806.9</ele>
        <time>2021-09-01T13:55:53Z</time>
      </trkpt>
      <trkpt lat="44.81556" lon="5.31318">
        <ele>806.9</ele>
        <time>2021-09-01T13:55:55Z</time>
      </trkpt>
      <trkpt lat="44.81552" lon="5.31315">
        <ele>806.8</ele>
        <time>2021-09-01T13:55:57Z</time>
      </trkpt>
      <trkpt lat="44.81548" lon="5.31313">
        <ele>806.7</ele>
        <time>2021-09-01T13:55:58Z</time>
      </trkpt>
      <trkpt lat="44.81544" lon="5.31311">
        <ele>806.6</ele>
        <time>2021-09-01T13:56:00Z</time>
      </trkpt>
      <trkpt lat="44.81541" lon="5.3131">
        <ele>806.5</ele>
        <time>2021-09-01T13:56:01Z</time>
      </trkpt>
      <trkpt lat="44.81538" lon="5.31307">
        <ele>806.4</ele>
        <time>2021-09-01T13:56:03Z</time>
      </trkpt>
      <trkpt lat="44.81535" lon="5.31304">
        <ele>806.3</ele>
        <time>2021-09-01T13:56:04Z</time>
      </trkpt>
      <trkpt lat="44.81535" lon="5.31302">
        <ele>806.2</ele>
        <time>2021-09-01T13:56:05Z</time>
      </trkpt>
      <trkpt lat="44.81533" lon="5.313">
        <ele>806.2</ele>
        <time>2021-09-01T13:56:06Z</time>
      </trkpt>
      <trkpt lat="44.81532" lon="5.31295">
        <ele>806</ele>
        <time>2021-09-01T13:56:08Z</time>
      </trkpt>
      <trkpt lat="44.8153" lon="5.31292">
        <ele>805.9</ele>
        <time>2021-09-01T13:56:09Z</time>
      </trkpt>
      <trkpt lat="44.81528" lon="5.31288">
        <ele>805.8</ele>
        <time>2021-09-01T13:56:10Z</time>
      </trkpt>
      <trkpt lat="44.81526" lon="5.31286">
        <ele>805.7</ele>
        <time>2021-09-01T13:56:11Z</time>
      </trkpt>
      <trkpt lat="44.81524" lon="5.31282">
        <ele>805.6</ele>
        <time>2021-09-01T13:56:13Z</time>
      </trkpt>
      <trkpt lat="44.81521" lon="5.31276">
        <ele>805.5</ele>
        <time>2021-09-01T13:56:15Z</time>
      </trkpt>
      <trkpt lat="44.8152" lon="5.31271">
        <ele>805.4</ele>
        <time>2021-09-01T13:56:16Z</time>
      </trkpt>
      <trkpt lat="44.81519" lon="5.31267">
        <ele>805.3</ele>
        <time>2021-09-01T13:56:17Z</time>
      </trkpt>
      <trkpt lat="44.81517" lon="5.3126">
        <ele>805.2</ele>
        <time>2021-09-01T13:56:19Z</time>
      </trkpt>
      <trkpt lat="44.81516" lon="5.31253">
        <ele>805.1</ele>
        <time>2021-09-01T13:56:21Z</time>
      </trkpt>
      <trkpt lat="44.81515" lon="5.31248">
        <ele>805</ele>
        <time>2021-09-01T13:56:22Z</time>
      </trkpt>
      <trkpt lat="44.81515" lon="5.31242">
        <ele>805</ele>
        <time>2021-09-01T13:56:23Z</time>
      </trkpt>
      <trkpt lat="44.81514" lon="5.31239">
        <ele>804.9</ele>
        <time>2021-09-01T13:56:24Z</time>
      </trkpt>
      <trkpt lat="44.81514" lon="5.31233">
        <ele>804.9</ele>
        <time>2021-09-01T13:56:26Z</time>
      </trkpt>
      <trkpt lat="44.81514" lon="5.31228">
        <ele>804.8</ele>
        <time>2021-09-01T13:56:27Z</time>
      </trkpt>
      <trkpt lat="44.81515" lon="5.31221">
        <ele>804.7</ele>
        <time>2021-09-01T13:56:29Z</time>
      </trkpt>
      <trkpt lat="44.81516" lon="5.31215">
        <ele>804.2</ele>
        <time>2021-09-01T13:56:30Z</time>
      </trkpt>
      <trkpt lat="44.81516" lon="5.31207">
        <ele>803.9</ele>
        <time>2021-09-01T13:56:31Z</time>
      </trkpt>
      <trkpt lat="44.81516" lon="5.31198">
        <ele>803.7</ele>
        <time>2021-09-01T13:56:33Z</time>
      </trkpt>
      <trkpt lat="44.81515" lon="5.31189">
        <ele>803.4</ele>
        <time>2021-09-01T13:56:34Z</time>
      </trkpt>
      <trkpt lat="44.81514" lon="5.31179">
        <ele>803.2</ele>
        <time>2021-09-01T13:56:36Z</time>
      </trkpt>
      <trkpt lat="44.81513" lon="5.31168">
        <ele>803.1</ele>
        <time>2021-09-01T13:56:38Z</time>
      </trkpt>
      <trkpt lat="44.81512" lon="5.31161">
        <ele>803</ele>
        <time>2021-09-01T13:56:39Z</time>
      </trkpt>
      <trkpt lat="44.81511" lon="5.31155">
        <ele>803</ele>
        <time>2021-09-01T13:56:40Z</time>
      </trkpt>
      <trkpt lat="44.81509" lon="5.31147">
        <ele>802.9</ele>
        <time>2021-09-01T13:56:41Z</time>
      </trkpt>
      <trkpt lat="44.81508" lon="5.31142">
        <ele>802.9</ele>
        <time>2021-09-01T13:56:42Z</time>
      </trkpt>
      <trkpt lat="44.81507" lon="5.31136">
        <ele>802.8</ele>
        <time>2021-09-01T13:56:44Z</time>
      </trkpt>
      <trkpt lat="44.81507" lon="5.31131">
        <ele>802.8</ele>
        <time>2021-09-01T13:56:45Z</time>
      </trkpt>
      <trkpt lat="44.81507" lon="5.31126">
        <ele>802.8</ele>
        <time>2021-09-01T13:56:46Z</time>
      </trkpt>
      <trkpt lat="44.81507" lon="5.3112">
        <ele>802.8</ele>
        <time>2021-09-01T13:56:47Z</time>
      </trkpt>
      <trkpt lat="44.81507" lon="5.31115">
        <ele>802.8</ele>
        <time>2021-09-01T13:56:48Z</time>
      </trkpt>
      <trkpt lat="44.81508" lon="5.31109">
        <ele>802.8</ele>
        <time>2021-09-01T13:56:50Z</time>
      </trkpt>
      <trkpt lat="44.81507" lon="5.31104">
        <ele>802.7</ele>
        <time>2021-09-01T13:56:51Z</time>
      </trkpt>
      <trkpt lat="44.81507" lon="5.31102">
        <ele>802.7</ele>
        <time>2021-09-01T13:56:52Z</time>
      </trkpt>
      <trkpt lat="44.81506" lon="5.31098">
        <ele>802.7</ele>
        <time>2021-09-01T13:56:53Z</time>
      </trkpt>
      <trkpt lat="44.81506" lon="5.31096">
        <ele>802.7</ele>
        <time>2021-09-01T13:56:54Z</time>
      </trkpt>
      <trkpt lat="44.81507" lon="5.31091">
        <ele>802.6</ele>
        <time>2021-09-01T13:56:56Z</time>
      </trkpt>
      <trkpt lat="44.81506" lon="5.31087">
        <ele>802.6</ele>
        <time>2021-09-01T13:56:58Z</time>
      </trkpt>
      <trkpt lat="44.81504" lon="5.31083">
        <ele>802.5</ele>
        <time>2021-09-01T13:56:59Z</time>
      </trkpt>
      <trkpt lat="44.81502" lon="5.31079">
        <ele>802.5</ele>
        <time>2021-09-01T13:57:00Z</time>
      </trkpt>
      <trkpt lat="44.81501" lon="5.31074">
        <ele>802.5</ele>
        <time>2021-09-01T13:57:02Z</time>
      </trkpt>
      <trkpt lat="44.81499" lon="5.31068">
        <ele>802.4</ele>
        <time>2021-09-01T13:57:04Z</time>
      </trkpt>
      <trkpt lat="44.81499" lon="5.31064">
        <ele>802.4</ele>
        <time>2021-09-01T13:57:05Z</time>
      </trkpt>
      <trkpt lat="44.81499" lon="5.31059">
        <ele>802.4</ele>
        <time>2021-09-01T13:57:06Z</time>
      </trkpt>
      <trkpt lat="44.81498" lon="5.31053">
        <ele>802.4</ele>
        <time>2021-09-01T13:57:08Z</time>
      </trkpt>
      <trkpt lat="44.81498" lon="5.31049">
        <ele>802.4</ele>
        <time>2021-09-01T13:57:09Z</time>
      </trkpt>
      <trkpt lat="44.81499" lon="5.31045">
        <ele>802.4</ele>
        <time>2021-09-01T13:57:10Z</time>
      </trkpt>
      <trkpt lat="44.81499" lon="5.31039">
        <ele>802.4</ele>
        <time>2021-09-01T13:57:12Z</time>
      </trkpt>
      <trkpt lat="44.81499" lon="5.31036">
        <ele>802.4</ele>
        <time>2021-09-01T13:57:13Z</time>
      </trkpt>
      <trkpt lat="44.81499" lon="5.31034">
        <ele>802.4</ele>
        <time>2021-09-01T13:57:14Z</time>
      </trkpt>
      <trkpt lat="44.81499" lon="5.31031">
        <ele>802.4</ele>
        <time>2021-09-01T13:57:15Z</time>
      </trkpt>
      <trkpt lat="44.815" lon="5.31028">
        <ele>802.4</ele>
        <time>2021-09-01T13:57:17Z</time>
      </trkpt>
      <trkpt lat="44.815" lon="5.31026">
        <ele>802.4</ele>
        <time>2021-09-01T13:57:18Z</time>
      </trkpt>
      <trkpt lat="44.81502" lon="5.31021">
        <ele>802.4</ele>
        <time>2021-09-01T13:57:20Z</time>
      </trkpt>
      <trkpt lat="44.81504" lon="5.31017">
        <ele>802.4</ele>
        <time>2021-09-01T13:57:21Z</time>
      </trkpt>
      <trkpt lat="44.81505" lon="5.31015">
        <ele>802.4</ele>
        <time>2021-09-01T13:57:22Z</time>
      </trkpt>
      <trkpt lat="44.81504" lon="5.31012">
        <ele>802.4</ele>
        <time>2021-09-01T13:57:24Z</time>
      </trkpt>
      <trkpt lat="44.81503" lon="5.31011">
        <ele>802.4</ele>
        <time>2021-09-01T13:57:25Z</time>
      </trkpt>
      <trkpt lat="44.81503" lon="5.3101">
        <ele>802.4</ele>
        <time>2021-09-01T13:57:26Z</time>
      </trkpt>
      <trkpt lat="44.81503" lon="5.31005">
        <ele>802.4</ele>
        <time>2021-09-01T13:57:27Z</time>
      </trkpt>
      <trkpt lat="44.81504" lon="5.31">
        <ele>802.4</ele>
        <time>2021-09-01T13:57:28Z</time>
      </trkpt>
      <trkpt lat="44.81505" lon="5.30997">
        <ele>802.4</ele>
        <time>2021-09-01T13:57:29Z</time>
      </trkpt>
      <trkpt lat="44.81506" lon="5.30992">
        <ele>802.4</ele>
        <time>2021-09-01T13:57:31Z</time>
      </trkpt>
      <trkpt lat="44.81507" lon="5.30986">
        <ele>802.4</ele>
        <time>2021-09-01T13:57:33Z</time>
      </trkpt>
      <trkpt lat="44.81508" lon="5.30983">
        <ele>802.4</ele>
        <time>2021-09-01T13:57:34Z</time>
      </trkpt>
      <trkpt lat="44.8151" lon="5.30979">
        <ele>802.4</ele>
        <time>2021-09-01T13:57:35Z</time>
      </trkpt>
      <trkpt lat="44.81511" lon="5.30973">
        <ele>802.4</ele>
        <time>2021-09-01T13:57:36Z</time>
      </trkpt>
      <trkpt lat="44.81511" lon="5.30971">
        <ele>802.4</ele>
        <time>2021-09-01T13:57:37Z</time>
      </trkpt>
      <trkpt lat="44.81511" lon="5.30965">
        <ele>802.4</ele>
        <time>2021-09-01T13:57:39Z</time>
      </trkpt>
      <trkpt lat="44.81511" lon="5.30962">
        <ele>802.4</ele>
        <time>2021-09-01T13:57:40Z</time>
      </trkpt>
      <trkpt lat="44.8151" lon="5.3096">
        <ele>802.4</ele>
        <time>2021-09-01T13:57:41Z</time>
      </trkpt>
      <trkpt lat="44.81511" lon="5.30956">
        <ele>802.4</ele>
        <time>2021-09-01T13:57:42Z</time>
      </trkpt>
      <trkpt lat="44.81512" lon="5.30952">
        <ele>802.4</ele>
        <time>2021-09-01T13:57:43Z</time>
      </trkpt>
      <trkpt lat="44.81513" lon="5.30944">
        <ele>802.4</ele>
        <time>2021-09-01T13:57:45Z</time>
      </trkpt>
      <trkpt lat="44.81516" lon="5.30937">
        <ele>802.4</ele>
        <time>2021-09-01T13:57:46Z</time>
      </trkpt>
      <trkpt lat="44.81518" lon="5.30932">
        <ele>802.5</ele>
        <time>2021-09-01T13:57:47Z</time>
      </trkpt>
      <trkpt lat="44.81521" lon="5.30926">
        <ele>802.5</ele>
        <time>2021-09-01T13:57:48Z</time>
      </trkpt>
      <trkpt lat="44.81525" lon="5.30916">
        <ele>802.6</ele>
        <time>2021-09-01T13:57:50Z</time>
      </trkpt>
      <trkpt lat="44.81528" lon="5.30911">
        <ele>802.6</ele>
        <time>2021-09-01T13:57:51Z</time>
      </trkpt>
      <trkpt lat="44.81529" lon="5.30907">
        <ele>802.6</ele>
        <time>2021-09-01T13:57:52Z</time>
      </trkpt>
      <trkpt lat="44.8153" lon="5.30903">
        <ele>802.6</ele>
        <time>2021-09-01T13:57:53Z</time>
      </trkpt>
      <trkpt lat="44.8153" lon="5.30899">
        <ele>802.6</ele>
        <time>2021-09-01T13:57:54Z</time>
      </trkpt>
      <trkpt lat="44.81532" lon="5.30894">
        <ele>802.6</ele>
        <time>2021-09-01T13:57:55Z</time>
      </trkpt>
      <trkpt lat="44.81533" lon="5.30892">
        <ele>802.6</ele>
        <time>2021-09-01T13:57:56Z</time>
      </trkpt>
      <trkpt lat="44.81535" lon="5.30888">
        <ele>802.6</ele>
        <time>2021-09-01T13:57:57Z</time>
      </trkpt>
      <trkpt lat="44.81535" lon="5.30886">
        <ele>802.6</ele>
        <time>2021-09-01T13:57:58Z</time>
      </trkpt>
      <trkpt lat="44.81536" lon="5.30879">
        <ele>802.6</ele>
        <time>2021-09-01T13:58:00Z</time>
      </trkpt>
      <trkpt lat="44.81536" lon="5.30873">
        <ele>802.6</ele>
        <time>2021-09-01T13:58:02Z</time>
      </trkpt>
      <trkpt lat="44.81538" lon="5.30868">
        <ele>802.7</ele>
        <time>2021-09-01T13:58:03Z</time>
      </trkpt>
      <trkpt lat="44.81539" lon="5.30865">
        <ele>802.7</ele>
        <time>2021-09-01T13:58:04Z</time>
      </trkpt>
      <trkpt lat="44.81539" lon="5.3086">
        <ele>802.7</ele>
        <time>2021-09-01T13:58:06Z</time>
      </trkpt>
      <trkpt lat="44.81539" lon="5.30858">
        <ele>802.7</ele>
        <time>2021-09-01T13:58:07Z</time>
      </trkpt>
      <trkpt lat="44.8154" lon="5.30853">
        <ele>802.7</ele>
        <time>2021-09-01T13:58:08Z</time>
      </trkpt>
      <trkpt lat="44.8154" lon="5.30851">
        <ele>802.7</ele>
        <time>2021-09-01T13:58:09Z</time>
      </trkpt>
      <trkpt lat="44.81541" lon="5.30846">
        <ele>802.7</ele>
        <time>2021-09-01T13:58:10Z</time>
      </trkpt>
      <trkpt lat="44.81541" lon="5.30844">
        <ele>802.7</ele>
        <time>2021-09-01T13:58:11Z</time>
      </trkpt>
      <trkpt lat="44.81543" lon="5.30839">
        <ele>802.7</ele>
        <time>2021-09-01T13:58:12Z</time>
      </trkpt>
      <trkpt lat="44.81543" lon="5.30838">
        <ele>802.7</ele>
        <time>2021-09-01T13:58:13Z</time>
      </trkpt>
      <trkpt lat="44.81545" lon="5.30832">
        <ele>802.7</ele>
        <time>2021-09-01T13:58:15Z</time>
      </trkpt>
      <trkpt lat="44.81547" lon="5.30827">
        <ele>802.7</ele>
        <time>2021-09-01T13:58:16Z</time>
      </trkpt>
      <trkpt lat="44.81547" lon="5.30826">
        <ele>802.7</ele>
        <time>2021-09-01T13:58:17Z</time>
      </trkpt>
      <trkpt lat="44.8155" lon="5.30822">
        <ele>802.7</ele>
        <time>2021-09-01T13:58:18Z</time>
      </trkpt>
      <trkpt lat="44.81553" lon="5.3082">
        <ele>802.7</ele>
        <time>2021-09-01T13:58:20Z</time>
      </trkpt>
      <trkpt lat="44.81554" lon="5.30819">
        <ele>802.7</ele>
        <time>2021-09-01T13:58:21Z</time>
      </trkpt>
      <trkpt lat="44.81557" lon="5.30816">
        <ele>802.7</ele>
        <time>2021-09-01T13:58:22Z</time>
      </trkpt>
      <trkpt lat="44.81559" lon="5.30814">
        <ele>802.7</ele>
        <time>2021-09-01T13:58:23Z</time>
      </trkpt>
      <trkpt lat="44.8156" lon="5.30813">
        <ele>802.7</ele>
        <time>2021-09-01T13:58:24Z</time>
      </trkpt>
      <trkpt lat="44.81563" lon="5.3081">
        <ele>802.7</ele>
        <time>2021-09-01T13:58:26Z</time>
      </trkpt>
      <trkpt lat="44.81565" lon="5.30807">
        <ele>802.7</ele>
        <time>2021-09-01T13:58:28Z</time>
      </trkpt>
      <trkpt lat="44.81567" lon="5.30806">
        <ele>802.7</ele>
        <time>2021-09-01T13:58:29Z</time>
      </trkpt>
      <trkpt lat="44.81568" lon="5.30804">
        <ele>802.7</ele>
        <time>2021-09-01T13:58:30Z</time>
      </trkpt>
      <trkpt lat="44.8157" lon="5.30804">
        <ele>802.7</ele>
        <time>2021-09-01T13:58:31Z</time>
      </trkpt>
      <trkpt lat="44.81571" lon="5.30803">
        <ele>802.7</ele>
        <time>2021-09-01T13:58:32Z</time>
      </trkpt>
      <trkpt lat="44.81571" lon="5.30802">
        <ele>802.7</ele>
        <time>2021-09-01T13:58:33Z</time>
      </trkpt>
      <trkpt lat="44.8157" lon="5.30798">
        <ele>802.7</ele>
        <time>2021-09-01T13:58:35Z</time>
      </trkpt>
      <trkpt lat="44.81568" lon="5.30792">
        <ele>802.6</ele>
        <time>2021-09-01T13:58:37Z</time>
      </trkpt>
      <trkpt lat="44.81568" lon="5.3079">
        <ele>802.6</ele>
        <time>2021-09-01T13:58:38Z</time>
      </trkpt>
      <trkpt lat="44.81568" lon="5.30788">
        <ele>802.6</ele>
        <time>2021-09-01T13:58:39Z</time>
      </trkpt>
      <trkpt lat="44.81569" lon="5.30783">
        <ele>802.6</ele>
        <time>2021-09-01T13:58:41Z</time>
      </trkpt>
      <trkpt lat="44.81569" lon="5.30778">
        <ele>802.5</ele>
        <time>2021-09-01T13:58:43Z</time>
      </trkpt>
      <trkpt lat="44.81569" lon="5.30776">
        <ele>802.5</ele>
        <time>2021-09-01T13:58:44Z</time>
      </trkpt>
      <trkpt lat="44.81568" lon="5.30777">
        <ele>802.5</ele>
        <time>2021-09-01T13:58:45Z</time>
      </trkpt>
      <trkpt lat="44.81568" lon="5.30777">
        <ele>802.5</ele>
        <time>2021-09-01T13:58:47Z</time>
      </trkpt>
      <trkpt lat="44.81569" lon="5.30774">
        <ele>802.5</ele>
        <time>2021-09-01T13:58:48Z</time>
      </trkpt>
      <trkpt lat="44.8157" lon="5.30769">
        <ele>802.4</ele>
        <time>2021-09-01T13:58:50Z</time>
      </trkpt>
      <trkpt lat="44.81573" lon="5.30765">
        <ele>802.3</ele>
        <time>2021-09-01T13:58:52Z</time>
      </trkpt>
      <trkpt lat="44.81576" lon="5.30762">
        <ele>802.3</ele>
        <time>2021-09-01T13:58:53Z</time>
      </trkpt>
      <trkpt lat="44.81577" lon="5.3076">
        <ele>802.3</ele>
        <time>2021-09-01T13:58:54Z</time>
      </trkpt>
      <trkpt lat="44.81578" lon="5.30758">
        <ele>802.2</ele>
        <time>2021-09-01T13:58:55Z</time>
      </trkpt>
      <trkpt lat="44.81579" lon="5.30757">
        <ele>802.2</ele>
        <time>2021-09-01T13:58:56Z</time>
      </trkpt>
      <trkpt lat="44.8158" lon="5.30753">
        <ele>802.2</ele>
        <time>2021-09-01T13:58:58Z</time>
      </trkpt>
      <trkpt lat="44.8158" lon="5.30752">
        <ele>802.1</ele>
        <time>2021-09-01T13:58:59Z</time>
      </trkpt>
      <trkpt lat="44.81583" lon="5.30746">
        <ele>802.1</ele>
        <time>2021-09-01T13:59:00Z</time>
      </trkpt>
      <trkpt lat="44.81585" lon="5.30744">
        <ele>802</ele>
        <time>2021-09-01T13:59:01Z</time>
      </trkpt>
      <trkpt lat="44.81588" lon="5.30739">
        <ele>801.9</ele>
        <time>2021-09-01T13:59:03Z</time>
      </trkpt>
      <trkpt lat="44.81592" lon="5.30732">
        <ele>801.8</ele>
        <time>2021-09-01T13:59:05Z</time>
      </trkpt>
      <trkpt lat="44.81593" lon="5.30726">
        <ele>801.7</ele>
        <time>2021-09-01T13:59:07Z</time>
      </trkpt>
      <trkpt lat="44.81594" lon="5.30722">
        <ele>801.6</ele>
        <time>2021-09-01T13:59:08Z</time>
      </trkpt>
      <trkpt lat="44.81595" lon="5.30721">
        <ele>801.6</ele>
        <time>2021-09-01T13:59:09Z</time>
      </trkpt>
      <trkpt lat="44.81597" lon="5.30718">
        <ele>801.5</ele>
        <time>2021-09-01T13:59:11Z</time>
      </trkpt>
      <trkpt lat="44.816" lon="5.30715">
        <ele>801.5</ele>
        <time>2021-09-01T13:59:12Z</time>
      </trkpt>
      <trkpt lat="44.81601" lon="5.30714">
        <ele>801.4</ele>
        <time>2021-09-01T13:59:13Z</time>
      </trkpt>
      <trkpt lat="44.81602" lon="5.30712">
        <ele>801.4</ele>
        <time>2021-09-01T13:59:14Z</time>
      </trkpt>
      <trkpt lat="44.81605" lon="5.30707">
        <ele>801.4</ele>
        <time>2021-09-01T13:59:16Z</time>
      </trkpt>
      <trkpt lat="44.81608" lon="5.30704">
        <ele>801.3</ele>
        <time>2021-09-01T13:59:17Z</time>
      </trkpt>
      <trkpt lat="44.81609" lon="5.30703">
        <ele>801.3</ele>
        <time>2021-09-01T13:59:18Z</time>
      </trkpt>
      <trkpt lat="44.81613" lon="5.30698">
        <ele>801.3</ele>
        <time>2021-09-01T13:59:20Z</time>
      </trkpt>
      <trkpt lat="44.81616" lon="5.30694">
        <ele>801.2</ele>
        <time>2021-09-01T13:59:21Z</time>
      </trkpt>
      <trkpt lat="44.81617" lon="5.30692">
        <ele>801.2</ele>
        <time>2021-09-01T13:59:22Z</time>
      </trkpt>
      <trkpt lat="44.81621" lon="5.30689">
        <ele>801.1</ele>
        <time>2021-09-01T13:59:23Z</time>
      </trkpt>
      <trkpt lat="44.81625" lon="5.30686">
        <ele>801.1</ele>
        <time>2021-09-01T13:59:24Z</time>
      </trkpt>
      <trkpt lat="44.81627" lon="5.30682">
        <ele>801</ele>
        <time>2021-09-01T13:59:26Z</time>
      </trkpt>
      <trkpt lat="44.81629" lon="5.3068">
        <ele>801</ele>
        <time>2021-09-01T13:59:27Z</time>
      </trkpt>
      <trkpt lat="44.81632" lon="5.30676">
        <ele>800.8</ele>
        <time>2021-09-01T13:59:29Z</time>
      </trkpt>
      <trkpt lat="44.81636" lon="5.30674">
        <ele>800.6</ele>
        <time>2021-09-01T13:59:30Z</time>
      </trkpt>
      <trkpt lat="44.81638" lon="5.30667">
        <ele>800.1</ele>
        <time>2021-09-01T13:59:31Z</time>
      </trkpt>
      <trkpt lat="44.81639" lon="5.30661">
        <ele>799.5</ele>
        <time>2021-09-01T13:59:33Z</time>
      </trkpt>
      <trkpt lat="44.8164" lon="5.30654">
        <ele>798.8</ele>
        <time>2021-09-01T13:59:34Z</time>
      </trkpt>
      <trkpt lat="44.81642" lon="5.30648">
        <ele>797.9</ele>
        <time>2021-09-01T13:59:36Z</time>
      </trkpt>
      <trkpt lat="44.81643" lon="5.30642">
        <ele>796.8</ele>
        <time>2021-09-01T13:59:37Z</time>
      </trkpt>
      <trkpt lat="44.81644" lon="5.30635">
        <ele>795.7</ele>
        <time>2021-09-01T14:00:15Z</time>
      </trkpt>
      <trkpt lat="44.81646" lon="5.30629">
        <ele>794.4</ele>
        <time>2021-09-01T14:00:16Z</time>
      </trkpt>
      <trkpt lat="44.81643" lon="5.30625">
        <ele>793.1</ele>
        <time>2021-09-01T14:00:17Z</time>
      </trkpt>
      <trkpt lat="44.8164" lon="5.30616">
        <ele>791.1</ele>
        <time>2021-09-01T14:00:19Z</time>
      </trkpt>
      <trkpt lat="44.81639" lon="5.30611">
        <ele>789.9</ele>
        <time>2021-09-01T14:00:20Z</time>
      </trkpt>
      <trkpt lat="44.81638" lon="5.30607">
        <ele>788.8</ele>
        <time>2021-09-01T14:00:21Z</time>
      </trkpt>
      <trkpt lat="44.81638" lon="5.30605">
        <ele>788.5</ele>
        <time>2021-09-01T14:00:22Z</time>
      </trkpt>
      <trkpt lat="44.81637" lon="5.30601">
        <ele>787.6</ele>
        <time>2021-09-01T14:00:23Z</time>
      </trkpt>
      <trkpt lat="44.81636" lon="5.30597">
        <ele>786.7</ele>
        <time>2021-09-01T14:00:25Z</time>
      </trkpt>
      <trkpt lat="44.81636" lon="5.30592">
        <ele>785.9</ele>
        <time>2021-09-01T14:00:26Z</time>
      </trkpt>
      <trkpt lat="44.81638" lon="5.30585">
        <ele>784.7</ele>
        <time>2021-09-01T14:00:28Z</time>
      </trkpt>
      <trkpt lat="44.8164" lon="5.3058">
        <ele>783.8</ele>
        <time>2021-09-01T14:00:29Z</time>
      </trkpt>
      <trkpt lat="44.81641" lon="5.30575">
        <ele>783</ele>
        <time>2021-09-01T14:00:30Z</time>
      </trkpt>
      <trkpt lat="44.81643" lon="5.30565">
        <ele>781.7</ele>
        <time>2021-09-01T14:00:32Z</time>
      </trkpt>
      <trkpt lat="44.81647" lon="5.30559">
        <ele>780.8</ele>
        <time>2021-09-01T14:00:33Z</time>
      </trkpt>
      <trkpt lat="44.81647" lon="5.30553">
        <ele>780.2</ele>
        <time>2021-09-01T14:00:35Z</time>
      </trkpt>
      <trkpt lat="44.81647" lon="5.30551">
        <ele>780</ele>
        <time>2021-09-01T14:00:36Z</time>
      </trkpt>
      <trkpt lat="44.81647" lon="5.3055">
        <ele>779.8</ele>
        <time>2021-09-01T14:00:37Z</time>
      </trkpt>
      <trkpt lat="44.81647" lon="5.30547">
        <ele>779.5</ele>
        <time>2021-09-01T14:00:38Z</time>
      </trkpt>
      <trkpt lat="44.81645" lon="5.30543">
        <ele>779</ele>
        <time>2021-09-01T14:00:40Z</time>
      </trkpt>
      <trkpt lat="44.81644" lon="5.30541">
        <ele>778.7</ele>
        <time>2021-09-01T14:00:41Z</time>
      </trkpt>
      <trkpt lat="44.81644" lon="5.30538">
        <ele>778.5</ele>
        <time>2021-09-01T14:00:42Z</time>
      </trkpt>
      <trkpt lat="44.81643" lon="5.30533">
        <ele>777.9</ele>
        <time>2021-09-01T14:00:44Z</time>
      </trkpt>
      <trkpt lat="44.81643" lon="5.30532">
        <ele>777.8</ele>
        <time>2021-09-01T14:00:45Z</time>
      </trkpt>
      <trkpt lat="44.81642" lon="5.30528">
        <ele>777.3</ele>
        <time>2021-09-01T14:00:47Z</time>
      </trkpt>
      <trkpt lat="44.8164" lon="5.30524">
        <ele>776.8</ele>
        <time>2021-09-01T14:00:48Z</time>
      </trkpt>
      <trkpt lat="44.81638" lon="5.3052">
        <ele>776.4</ele>
        <time>2021-09-01T14:00:49Z</time>
      </trkpt>
      <trkpt lat="44.81637" lon="5.30515">
        <ele>775.8</ele>
        <time>2021-09-01T14:00:50Z</time>
      </trkpt>
      <trkpt lat="44.81635" lon="5.30509">
        <ele>774.9</ele>
        <time>2021-09-01T14:00:52Z</time>
      </trkpt>
      <trkpt lat="44.81633" lon="5.30505">
        <ele>774.5</ele>
        <time>2021-09-01T14:00:53Z</time>
      </trkpt>
      <trkpt lat="44.81632" lon="5.305">
        <ele>773.8</ele>
        <time>2021-09-01T14:00:54Z</time>
      </trkpt>
      <trkpt lat="44.81631" lon="5.30497">
        <ele>773.4</ele>
        <time>2021-09-01T14:00:55Z</time>
      </trkpt>
      <trkpt lat="44.81629" lon="5.30492">
        <ele>772.7</ele>
        <time>2021-09-01T14:00:57Z</time>
      </trkpt>
      <trkpt lat="44.81628" lon="5.30491">
        <ele>772.5</ele>
        <time>2021-09-01T14:00:58Z</time>
      </trkpt>
      <trkpt lat="44.81627" lon="5.30486">
        <ele>771.8</ele>
        <time>2021-09-01T14:00:59Z</time>
      </trkpt>
      <trkpt lat="44.81626" lon="5.30485">
        <ele>771.6</ele>
        <time>2021-09-01T14:01:00Z</time>
      </trkpt>
      <trkpt lat="44.81625" lon="5.30483">
        <ele>771.2</ele>
        <time>2021-09-01T14:01:01Z</time>
      </trkpt>
      <trkpt lat="44.81623" lon="5.30478">
        <ele>770.3</ele>
        <time>2021-09-01T14:01:03Z</time>
      </trkpt>
      <trkpt lat="44.81622" lon="5.30473">
        <ele>769.5</ele>
        <time>2021-09-01T14:01:05Z</time>
      </trkpt>
      <trkpt lat="44.81621" lon="5.30471">
        <ele>769.2</ele>
        <time>2021-09-01T14:01:06Z</time>
      </trkpt>
      <trkpt lat="44.81619" lon="5.3047">
        <ele>768.6</ele>
        <time>2021-09-01T14:01:08Z</time>
      </trkpt>
      <trkpt lat="44.81617" lon="5.30469">
        <ele>768.3</ele>
        <time>2021-09-01T14:01:09Z</time>
      </trkpt>
      <trkpt lat="44.81616" lon="5.30468">
        <ele>768</ele>
        <time>2021-09-01T14:01:10Z</time>
      </trkpt>
      <trkpt lat="44.81615" lon="5.30467">
        <ele>767.6</ele>
        <time>2021-09-01T14:01:11Z</time>
      </trkpt>
      <trkpt lat="44.81614" lon="5.30464">
        <ele>767.2</ele>
        <time>2021-09-01T14:01:13Z</time>
      </trkpt>
      <trkpt lat="44.81614" lon="5.30462">
        <ele>766.8</ele>
        <time>2021-09-01T14:01:14Z</time>
      </trkpt>
      <trkpt lat="44.81613" lon="5.3046">
        <ele>766.5</ele>
        <time>2021-09-01T14:01:15Z</time>
      </trkpt>
      <trkpt lat="44.81612" lon="5.30458">
        <ele>766.2</ele>
        <time>2021-09-01T14:01:16Z</time>
      </trkpt>
      <trkpt lat="44.81611" lon="5.30456">
        <ele>765.9</ele>
        <time>2021-09-01T14:01:17Z</time>
      </trkpt>
      <trkpt lat="44.81609" lon="5.30453">
        <ele>765.3</ele>
        <time>2021-09-01T14:01:19Z</time>
      </trkpt>
      <trkpt lat="44.81608" lon="5.30452">
        <ele>765.1</ele>
        <time>2021-09-01T14:01:20Z</time>
      </trkpt>
      <trkpt lat="44.81606" lon="5.3045">
        <ele>764.7</ele>
        <time>2021-09-01T14:01:21Z</time>
      </trkpt>
      <trkpt lat="44.81605" lon="5.30449">
        <ele>764.5</ele>
        <time>2021-09-01T14:01:22Z</time>
      </trkpt>
      <trkpt lat="44.81605" lon="5.30448">
        <ele>764.4</ele>
        <time>2021-09-01T14:01:23Z</time>
      </trkpt>
      <trkpt lat="44.81603" lon="5.30441">
        <ele>763.6</ele>
        <time>2021-09-01T14:01:24Z</time>
      </trkpt>
      <trkpt lat="44.81601" lon="5.30436">
        <ele>762.9</ele>
        <time>2021-09-01T14:01:26Z</time>
      </trkpt>
      <trkpt lat="44.81598" lon="5.3043">
        <ele>762.2</ele>
        <time>2021-09-01T14:01:28Z</time>
      </trkpt>
      <trkpt lat="44.81596" lon="5.30426">
        <ele>761.7</ele>
        <time>2021-09-01T14:01:29Z</time>
      </trkpt>
      <trkpt lat="44.81594" lon="5.30423">
        <ele>761.3</ele>
        <time>2021-09-01T14:01:30Z</time>
      </trkpt>
      <trkpt lat="44.81592" lon="5.30415">
        <ele>760.4</ele>
        <time>2021-09-01T14:01:31Z</time>
      </trkpt>
      <trkpt lat="44.8159" lon="5.30407">
        <ele>759.5</ele>
        <time>2021-09-01T14:01:33Z</time>
      </trkpt>
      <trkpt lat="44.81589" lon="5.304">
        <ele>758.6</ele>
        <time>2021-09-01T14:01:34Z</time>
      </trkpt>
      <trkpt lat="44.81587" lon="5.3039">
        <ele>757.3</ele>
        <time>2021-09-01T14:01:35Z</time>
      </trkpt>
      <trkpt lat="44.81586" lon="5.30385">
        <ele>756.5</ele>
        <time>2021-09-01T14:01:37Z</time>
      </trkpt>
      <trkpt lat="44.81585" lon="5.30381">
        <ele>756</ele>
        <time>2021-09-01T14:01:38Z</time>
      </trkpt>
      <trkpt lat="44.81584" lon="5.30378">
        <ele>755.6</ele>
        <time>2021-09-01T14:01:39Z</time>
      </trkpt>
      <trkpt lat="44.81584" lon="5.30377">
        <ele>755.4</ele>
        <time>2021-09-01T14:01:40Z</time>
      </trkpt>
      <trkpt lat="44.81583" lon="5.30372">
        <ele>754.9</ele>
        <time>2021-09-01T14:01:42Z</time>
      </trkpt>
      <trkpt lat="44.81583" lon="5.30372">
        <ele>754.8</ele>
        <time>2021-09-01T14:01:43Z</time>
      </trkpt>
      <trkpt lat="44.81583" lon="5.30372">
        <ele>754.8</ele>
        <time>2021-09-01T14:01:44Z</time>
      </trkpt>
      <trkpt lat="44.81583" lon="5.30371">
        <ele>754.7</ele>
        <time>2021-09-01T14:01:46Z</time>
      </trkpt>
      <trkpt lat="44.81583" lon="5.30371">
        <ele>754.7</ele>
        <time>2021-09-01T14:01:47Z</time>
      </trkpt>
      <trkpt lat="44.81582" lon="5.30371">
        <ele>754.7</ele>
        <time>2021-09-01T14:01:48Z</time>
      </trkpt>
      <trkpt lat="44.81582" lon="5.30371">
        <ele>754.6</ele>
        <time>2021-09-01T14:01:49Z</time>
      </trkpt>
      <trkpt lat="44.81577" lon="5.30359">
        <ele>753.3</ele>
        <time>2021-09-01T14:01:56Z</time>
      </trkpt>
      <trkpt lat="44.81576" lon="5.30355">
        <ele>752.8</ele>
        <time>2021-09-01T14:01:57Z</time>
      </trkpt>
      <trkpt lat="44.81569" lon="5.30347">
        <ele>751.8</ele>
        <time>2021-09-01T14:01:59Z</time>
      </trkpt>
      <trkpt lat="44.81565" lon="5.30341">
        <ele>751</ele>
        <time>2021-09-01T14:02:00Z</time>
      </trkpt>
      <trkpt lat="44.81563" lon="5.30337">
        <ele>750.6</ele>
        <time>2021-09-01T14:02:01Z</time>
      </trkpt>
      <trkpt lat="44.81561" lon="5.30333">
        <ele>750.2</ele>
        <time>2021-09-01T14:02:02Z</time>
      </trkpt>
      <trkpt lat="44.81558" lon="5.30328">
        <ele>749.7</ele>
        <time>2021-09-01T14:02:03Z</time>
      </trkpt>
      <trkpt lat="44.81555" lon="5.30323">
        <ele>749.1</ele>
        <time>2021-09-01T14:02:05Z</time>
      </trkpt>
      <trkpt lat="44.81553" lon="5.30321">
        <ele>748.8</ele>
        <time>2021-09-01T14:02:06Z</time>
      </trkpt>
      <trkpt lat="44.81552" lon="5.30318">
        <ele>748.5</ele>
        <time>2021-09-01T14:02:07Z</time>
      </trkpt>
      <trkpt lat="44.81549" lon="5.30314">
        <ele>747.9</ele>
        <time>2021-09-01T14:02:09Z</time>
      </trkpt>
      <trkpt lat="44.81547" lon="5.3031">
        <ele>747.4</ele>
        <time>2021-09-01T14:02:10Z</time>
      </trkpt>
      <trkpt lat="44.81545" lon="5.30305">
        <ele>746.8</ele>
        <time>2021-09-01T14:02:12Z</time>
      </trkpt>
      <trkpt lat="44.81543" lon="5.30301">
        <ele>746.3</ele>
        <time>2021-09-01T14:02:13Z</time>
      </trkpt>
      <trkpt lat="44.8154" lon="5.30295">
        <ele>745.5</ele>
        <time>2021-09-01T14:02:15Z</time>
      </trkpt>
      <trkpt lat="44.81538" lon="5.30287">
        <ele>744.5</ele>
        <time>2021-09-01T14:02:16Z</time>
      </trkpt>
      <trkpt lat="44.81536" lon="5.30279">
        <ele>743.5</ele>
        <time>2021-09-01T14:02:17Z</time>
      </trkpt>
      <trkpt lat="44.81533" lon="5.30271">
        <ele>742.6</ele>
        <time>2021-09-01T14:02:19Z</time>
      </trkpt>
      <trkpt lat="44.81532" lon="5.30266">
        <ele>742</ele>
        <time>2021-09-01T14:02:20Z</time>
      </trkpt>
      <trkpt lat="44.8153" lon="5.30259">
        <ele>741.2</ele>
        <time>2021-09-01T14:02:22Z</time>
      </trkpt>
      <trkpt lat="44.81528" lon="5.30255">
        <ele>740.7</ele>
        <time>2021-09-01T14:02:23Z</time>
      </trkpt>
      <trkpt lat="44.81527" lon="5.30254">
        <ele>740.5</ele>
        <time>2021-09-01T14:02:24Z</time>
      </trkpt>
      <trkpt lat="44.81524" lon="5.3025">
        <ele>740.1</ele>
        <time>2021-09-01T14:02:25Z</time>
      </trkpt>
      <trkpt lat="44.81523" lon="5.30249">
        <ele>739.9</ele>
        <time>2021-09-01T14:02:26Z</time>
      </trkpt>
      <trkpt lat="44.8152" lon="5.30245">
        <ele>739.5</ele>
        <time>2021-09-01T14:02:28Z</time>
      </trkpt>
      <trkpt lat="44.81516" lon="5.3024">
        <ele>739</ele>
        <time>2021-09-01T14:02:30Z</time>
      </trkpt>
      <trkpt lat="44.81514" lon="5.30236">
        <ele>738.7</ele>
        <time>2021-09-01T14:02:31Z</time>
      </trkpt>
      <trkpt lat="44.81513" lon="5.3023">
        <ele>738.4</ele>
        <time>2021-09-01T14:02:32Z</time>
      </trkpt>
      <trkpt lat="44.81512" lon="5.30226">
        <ele>738.1</ele>
        <time>2021-09-01T14:02:34Z</time>
      </trkpt>
      <trkpt lat="44.81511" lon="5.30225">
        <ele>738.1</ele>
        <time>2021-09-01T14:02:35Z</time>
      </trkpt>
      <trkpt lat="44.81511" lon="5.30225">
        <ele>738.1</ele>
        <time>2021-09-01T14:02:36Z</time>
      </trkpt>
      <trkpt lat="44.81511" lon="5.30225">
        <ele>738.1</ele>
        <time>2021-09-01T14:02:38Z</time>
      </trkpt>
      <trkpt lat="44.81511" lon="5.30224">
        <ele>738</ele>
        <time>2021-09-01T14:02:40Z</time>
      </trkpt>
      <trkpt lat="44.81498" lon="5.30237">
        <ele>729.5</ele>
        <time>2021-09-01T14:03:28Z</time>
      </trkpt>
      <trkpt lat="44.81496" lon="5.30242">
        <ele>728.7</ele>
        <time>2021-09-01T14:03:30Z</time>
      </trkpt>
      <trkpt lat="44.81494" lon="5.30246">
        <ele>728</ele>
        <time>2021-09-01T14:03:31Z</time>
      </trkpt>
      <trkpt lat="44.81492" lon="5.30251">
        <ele>727.1</ele>
        <time>2021-09-01T14:03:33Z</time>
      </trkpt>
      <trkpt lat="44.81489" lon="5.30255">
        <ele>726.5</ele>
        <time>2021-09-01T14:03:34Z</time>
      </trkpt>
      <trkpt lat="44.81487" lon="5.30257">
        <ele>725.9</ele>
        <time>2021-09-01T14:03:35Z</time>
      </trkpt>
      <trkpt lat="44.81485" lon="5.30261">
        <ele>725.3</ele>
        <time>2021-09-01T14:03:36Z</time>
      </trkpt>
      <trkpt lat="44.8148" lon="5.30267">
        <ele>724.1</ele>
        <time>2021-09-01T14:03:38Z</time>
      </trkpt>
      <trkpt lat="44.81476" lon="5.30271">
        <ele>723.1</ele>
        <time>2021-09-01T14:03:39Z</time>
      </trkpt>
      <trkpt lat="44.81473" lon="5.30274">
        <ele>722.3</ele>
        <time>2021-09-01T14:03:41Z</time>
      </trkpt>
      <trkpt lat="44.8147" lon="5.30278">
        <ele>721.5</ele>
        <time>2021-09-01T14:03:42Z</time>
      </trkpt>
      <trkpt lat="44.81468" lon="5.30284">
        <ele>720.5</ele>
        <time>2021-09-01T14:03:44Z</time>
      </trkpt>
      <trkpt lat="44.81467" lon="5.30288">
        <ele>719.8</ele>
        <time>2021-09-01T14:03:45Z</time>
      </trkpt>
      <trkpt lat="44.81467" lon="5.3029">
        <ele>719.6</ele>
        <time>2021-09-01T14:03:46Z</time>
      </trkpt>
      <trkpt lat="44.81466" lon="5.30295">
        <ele>718.9</ele>
        <time>2021-09-01T14:03:47Z</time>
      </trkpt>
      <trkpt lat="44.81464" lon="5.303">
        <ele>718.1</ele>
        <time>2021-09-01T14:03:49Z</time>
      </trkpt>
      <trkpt lat="44.81463" lon="5.30305">
        <ele>717.2</ele>
        <time>2021-09-01T14:03:50Z</time>
      </trkpt>
      <trkpt lat="44.81463" lon="5.3031">
        <ele>716.4</ele>
        <time>2021-09-01T14:03:51Z</time>
      </trkpt>
      <trkpt lat="44.81463" lon="5.30317">
        <ele>715.5</ele>
        <time>2021-09-01T14:03:53Z</time>
      </trkpt>
      <trkpt lat="44.81464" lon="5.30319">
        <ele>715.1</ele>
        <time>2021-09-01T14:03:54Z</time>
      </trkpt>
      <trkpt lat="44.81464" lon="5.30321">
        <ele>714.8</ele>
        <time>2021-09-01T14:03:55Z</time>
      </trkpt>
      <trkpt lat="44.81464" lon="5.30323">
        <ele>714.5</ele>
        <time>2021-09-01T14:03:56Z</time>
      </trkpt>
      <trkpt lat="44.81463" lon="5.30326">
        <ele>714.2</ele>
        <time>2021-09-01T14:03:57Z</time>
      </trkpt>
      <trkpt lat="44.81462" lon="5.3033">
        <ele>713.7</ele>
        <time>2021-09-01T14:03:59Z</time>
      </trkpt>
      <trkpt lat="44.81462" lon="5.30331">
        <ele>713.6</ele>
        <time>2021-09-01T14:04:00Z</time>
      </trkpt>
      <trkpt lat="44.81461" lon="5.30336">
        <ele>713.1</ele>
        <time>2021-09-01T14:04:01Z</time>
      </trkpt>
      <trkpt lat="44.81461" lon="5.30342">
        <ele>712.6</ele>
        <time>2021-09-01T14:04:03Z</time>
      </trkpt>
      <trkpt lat="44.8146" lon="5.30348">
        <ele>712.3</ele>
        <time>2021-09-01T14:04:05Z</time>
      </trkpt>
      <trkpt lat="44.81457" lon="5.30352">
        <ele>712.1</ele>
        <time>2021-09-01T14:04:07Z</time>
      </trkpt>
      <trkpt lat="44.81454" lon="5.30356">
        <ele>712.1</ele>
        <time>2021-09-01T14:04:08Z</time>
      </trkpt>
      <trkpt lat="44.81454" lon="5.30357">
        <ele>712.2</ele>
        <time>2021-09-01T14:04:09Z</time>
      </trkpt>
      <trkpt lat="44.8145" lon="5.30361">
        <ele>712.3</ele>
        <time>2021-09-01T14:04:11Z</time>
      </trkpt>
      <trkpt lat="44.81449" lon="5.30363">
        <ele>712.4</ele>
        <time>2021-09-01T14:04:12Z</time>
      </trkpt>
      <trkpt lat="44.81448" lon="5.30368">
        <ele>712.6</ele>
        <time>2021-09-01T14:04:14Z</time>
      </trkpt>
      <trkpt lat="44.81447" lon="5.30372">
        <ele>712.7</ele>
        <time>2021-09-01T14:04:16Z</time>
      </trkpt>
      <trkpt lat="44.81445" lon="5.30376">
        <ele>712.9</ele>
        <time>2021-09-01T14:04:17Z</time>
      </trkpt>
      <trkpt lat="44.81443" lon="5.30381">
        <ele>713.1</ele>
        <time>2021-09-01T14:04:19Z</time>
      </trkpt>
      <trkpt lat="44.81442" lon="5.30383">
        <ele>713.2</ele>
        <time>2021-09-01T14:04:20Z</time>
      </trkpt>
      <trkpt lat="44.81441" lon="5.30387">
        <ele>713.3</ele>
        <time>2021-09-01T14:04:21Z</time>
      </trkpt>
      <trkpt lat="44.81437" lon="5.30392">
        <ele>713.5</ele>
        <time>2021-09-01T14:04:23Z</time>
      </trkpt>
      <trkpt lat="44.81436" lon="5.30393">
        <ele>713.6</ele>
        <time>2021-09-01T14:04:24Z</time>
      </trkpt>
      <trkpt lat="44.81435" lon="5.30395">
        <ele>713.6</ele>
        <time>2021-09-01T14:04:25Z</time>
      </trkpt>
      <trkpt lat="44.81432" lon="5.30398">
        <ele>713.8</ele>
        <time>2021-09-01T14:04:27Z</time>
      </trkpt>
      <trkpt lat="44.81428" lon="5.30401">
        <ele>713.9</ele>
        <time>2021-09-01T14:04:28Z</time>
      </trkpt>
      <trkpt lat="44.81424" lon="5.30405">
        <ele>714</ele>
        <time>2021-09-01T14:04:29Z</time>
      </trkpt>
      <trkpt lat="44.81421" lon="5.30407">
        <ele>714</ele>
        <time>2021-09-01T14:04:30Z</time>
      </trkpt>
      <trkpt lat="44.81418" lon="5.30408">
        <ele>714.1</ele>
        <time>2021-09-01T14:04:32Z</time>
      </trkpt>
      <trkpt lat="44.81414" lon="5.30409">
        <ele>714.1</ele>
        <time>2021-09-01T14:04:33Z</time>
      </trkpt>
      <trkpt lat="44.81411" lon="5.30412">
        <ele>714.2</ele>
        <time>2021-09-01T14:04:35Z</time>
      </trkpt>
      <trkpt lat="44.81409" lon="5.30413">
        <ele>714.2</ele>
        <time>2021-09-01T14:04:36Z</time>
      </trkpt>
      <trkpt lat="44.81407" lon="5.30416">
        <ele>714.2</ele>
        <time>2021-09-01T14:04:38Z</time>
      </trkpt>
      <trkpt lat="44.81406" lon="5.30421">
        <ele>714.3</ele>
        <time>2021-09-01T14:04:39Z</time>
      </trkpt>
      <trkpt lat="44.81405" lon="5.30424">
        <ele>714.3</ele>
        <time>2021-09-01T14:04:40Z</time>
      </trkpt>
      <trkpt lat="44.81403" lon="5.30428">
        <ele>714.3</ele>
        <time>2021-09-01T14:04:42Z</time>
      </trkpt>
      <trkpt lat="44.81401" lon="5.30432">
        <ele>714.3</ele>
        <time>2021-09-01T14:04:44Z</time>
      </trkpt>
      <trkpt lat="44.81399" lon="5.30435">
        <ele>714.3</ele>
        <time>2021-09-01T14:04:45Z</time>
      </trkpt>
      <trkpt lat="44.81395" lon="5.3044">
        <ele>714.3</ele>
        <time>2021-09-01T14:04:47Z</time>
      </trkpt>
      <trkpt lat="44.81392" lon="5.30444">
        <ele>714.3</ele>
        <time>2021-09-01T14:04:48Z</time>
      </trkpt>
      <trkpt lat="44.81388" lon="5.30449">
        <ele>714.3</ele>
        <time>2021-09-01T14:04:50Z</time>
      </trkpt>
      <trkpt lat="44.81384" lon="5.30455">
        <ele>714.3</ele>
        <time>2021-09-01T14:04:51Z</time>
      </trkpt>
      <trkpt lat="44.8138" lon="5.30459">
        <ele>714.2</ele>
        <time>2021-09-01T14:04:53Z</time>
      </trkpt>
      <trkpt lat="44.81374" lon="5.30465">
        <ele>714.2</ele>
        <time>2021-09-01T14:04:54Z</time>
      </trkpt>
      <trkpt lat="44.8137" lon="5.30469">
        <ele>714.1</ele>
        <time>2021-09-01T14:04:55Z</time>
      </trkpt>
      <trkpt lat="44.81365" lon="5.30474">
        <ele>713.9</ele>
        <time>2021-09-01T14:04:57Z</time>
      </trkpt>
      <trkpt lat="44.81359" lon="5.30482">
        <ele>713.5</ele>
        <time>2021-09-01T14:04:59Z</time>
      </trkpt>
      <trkpt lat="44.81355" lon="5.30487">
        <ele>713.2</ele>
        <time>2021-09-01T14:05:00Z</time>
      </trkpt>
      <trkpt lat="44.8135" lon="5.30493">
        <ele>712.7</ele>
        <time>2021-09-01T14:05:01Z</time>
      </trkpt>
      <trkpt lat="44.81343" lon="5.30501">
        <ele>711.8</ele>
        <time>2021-09-01T14:05:03Z</time>
      </trkpt>
      <trkpt lat="44.8134" lon="5.30505">
        <ele>711.4</ele>
        <time>2021-09-01T14:05:04Z</time>
      </trkpt>
      <trkpt lat="44.81338" lon="5.30507">
        <ele>711.2</ele>
        <time>2021-09-01T14:05:05Z</time>
      </trkpt>
      <trkpt lat="44.81333" lon="5.30513">
        <ele>710.6</ele>
        <time>2021-09-01T14:05:07Z</time>
      </trkpt>
      <trkpt lat="44.81331" lon="5.30518">
        <ele>710.1</ele>
        <time>2021-09-01T14:05:08Z</time>
      </trkpt>
      <trkpt lat="44.81328" lon="5.30526">
        <ele>709.5</ele>
        <time>2021-09-01T14:05:09Z</time>
      </trkpt>
      <trkpt lat="44.81325" lon="5.30534">
        <ele>709</ele>
        <time>2021-09-01T14:05:11Z</time>
      </trkpt>
      <trkpt lat="44.8132" lon="5.30541">
        <ele>708.8</ele>
        <time>2021-09-01T14:05:12Z</time>
      </trkpt>
      <trkpt lat="44.81315" lon="5.30546">
        <ele>708.9</ele>
        <time>2021-09-01T14:05:13Z</time>
      </trkpt>
      <trkpt lat="44.81309" lon="5.30551">
        <ele>709.2</ele>
        <time>2021-09-01T14:05:15Z</time>
      </trkpt>
      <trkpt lat="44.81306" lon="5.30555">
        <ele>709.6</ele>
        <time>2021-09-01T14:05:17Z</time>
      </trkpt>
      <trkpt lat="44.81303" lon="5.30562">
        <ele>710.1</ele>
        <time>2021-09-01T14:05:18Z</time>
      </trkpt>
      <trkpt lat="44.81302" lon="5.30565">
        <ele>710.5</ele>
        <time>2021-09-01T14:05:20Z</time>
      </trkpt>
      <trkpt lat="44.813" lon="5.30568">
        <ele>710.8</ele>
        <time>2021-09-01T14:05:21Z</time>
      </trkpt>
      <trkpt lat="44.81299" lon="5.30572">
        <ele>711.2</ele>
        <time>2021-09-01T14:05:23Z</time>
      </trkpt>
      <trkpt lat="44.81297" lon="5.30575">
        <ele>711.5</ele>
        <time>2021-09-01T14:05:24Z</time>
      </trkpt>
      <trkpt lat="44.81295" lon="5.30578">
        <ele>711.8</ele>
        <time>2021-09-01T14:05:26Z</time>
      </trkpt>
      <trkpt lat="44.81293" lon="5.30581">
        <ele>712.2</ele>
        <time>2021-09-01T14:05:27Z</time>
      </trkpt>
      <trkpt lat="44.81291" lon="5.30585">
        <ele>712.5</ele>
        <time>2021-09-01T14:05:29Z</time>
      </trkpt>
      <trkpt lat="44.81291" lon="5.30586">
        <ele>712.6</ele>
        <time>2021-09-01T14:05:30Z</time>
      </trkpt>
      <trkpt lat="44.81288" lon="5.3059">
        <ele>713</ele>
        <time>2021-09-01T14:05:31Z</time>
      </trkpt>
      <trkpt lat="44.81287" lon="5.30592">
        <ele>713.1</ele>
        <time>2021-09-01T14:05:32Z</time>
      </trkpt>
      <trkpt lat="44.81285" lon="5.30595">
        <ele>713.3</ele>
        <time>2021-09-01T14:05:34Z</time>
      </trkpt>
      <trkpt lat="44.81282" lon="5.30599">
        <ele>713.6</ele>
        <time>2021-09-01T14:05:36Z</time>
      </trkpt>
      <trkpt lat="44.81279" lon="5.30603">
        <ele>713.8</ele>
        <time>2021-09-01T14:05:37Z</time>
      </trkpt>
      <trkpt lat="44.81277" lon="5.30607">
        <ele>713.9</ele>
        <time>2021-09-01T14:05:39Z</time>
      </trkpt>
      <trkpt lat="44.81274" lon="5.30611">
        <ele>714</ele>
        <time>2021-09-01T14:05:40Z</time>
      </trkpt>
      <trkpt lat="44.81272" lon="5.30615">
        <ele>714</ele>
        <time>2021-09-01T14:05:41Z</time>
      </trkpt>
      <trkpt lat="44.81269" lon="5.30618">
        <ele>714.1</ele>
        <time>2021-09-01T14:05:42Z</time>
      </trkpt>
      <trkpt lat="44.81266" lon="5.30623">
        <ele>714.1</ele>
        <time>2021-09-01T14:05:44Z</time>
      </trkpt>
      <trkpt lat="44.81263" lon="5.30629">
        <ele>714</ele>
        <time>2021-09-01T14:05:46Z</time>
      </trkpt>
      <trkpt lat="44.81255" lon="5.30642">
        <ele>713.7</ele>
        <time>2021-09-01T14:05:48Z</time>
      </trkpt>
      <trkpt lat="44.81248" lon="5.30651">
        <ele>713.5</ele>
        <time>2021-09-01T14:05:50Z</time>
      </trkpt>
      <trkpt lat="44.81244" lon="5.30657">
        <ele>713.5</ele>
        <time>2021-09-01T14:05:51Z</time>
      </trkpt>
      <trkpt lat="44.81242" lon="5.3066">
        <ele>713.4</ele>
        <time>2021-09-01T14:05:52Z</time>
      </trkpt>
      <trkpt lat="44.81238" lon="5.30665">
        <ele>713.3</ele>
        <time>2021-09-01T14:05:53Z</time>
      </trkpt>
      <trkpt lat="44.81233" lon="5.30671">
        <ele>713.2</ele>
        <time>2021-09-01T14:05:55Z</time>
      </trkpt>
      <trkpt lat="44.81224" lon="5.30681">
        <ele>713</ele>
        <time>2021-09-01T14:05:57Z</time>
      </trkpt>
      <trkpt lat="44.8122" lon="5.30686">
        <ele>712.9</ele>
        <time>2021-09-01T14:05:58Z</time>
      </trkpt>
      <trkpt lat="44.81214" lon="5.30691">
        <ele>712.8</ele>
        <time>2021-09-01T14:05:59Z</time>
      </trkpt>
      <trkpt lat="44.8121" lon="5.30695">
        <ele>712.8</ele>
        <time>2021-09-01T14:06:00Z</time>
      </trkpt>
      <trkpt lat="44.81203" lon="5.30704">
        <ele>713</ele>
        <time>2021-09-01T14:06:02Z</time>
      </trkpt>
      <trkpt lat="44.81198" lon="5.30712">
        <ele>713.2</ele>
        <time>2021-09-01T14:06:03Z</time>
      </trkpt>
      <trkpt lat="44.81195" lon="5.30719">
        <ele>713.3</ele>
        <time>2021-09-01T14:06:05Z</time>
      </trkpt>
      <trkpt lat="44.81192" lon="5.30726">
        <ele>713.4</ele>
        <time>2021-09-01T14:06:06Z</time>
      </trkpt>
      <trkpt lat="44.81187" lon="5.30737">
        <ele>713.5</ele>
        <time>2021-09-01T14:06:08Z</time>
      </trkpt>
      <trkpt lat="44.81182" lon="5.3075">
        <ele>713.4</ele>
        <time>2021-09-01T14:06:10Z</time>
      </trkpt>
      <trkpt lat="44.81179" lon="5.30759">
        <ele>713.5</ele>
        <time>2021-09-01T14:06:11Z</time>
      </trkpt>
      <trkpt lat="44.81178" lon="5.30766">
        <ele>713.6</ele>
        <time>2021-09-01T14:06:13Z</time>
      </trkpt>
      <trkpt lat="44.81176" lon="5.3077">
        <ele>713.6</ele>
        <time>2021-09-01T14:06:14Z</time>
      </trkpt>
      <trkpt lat="44.81171" lon="5.30779">
        <ele>714</ele>
        <time>2021-09-01T14:06:15Z</time>
      </trkpt>
      <trkpt lat="44.81167" lon="5.30786">
        <ele>714.1</ele>
        <time>2021-09-01T14:06:16Z</time>
      </trkpt>
      <trkpt lat="44.81164" lon="5.30793">
        <ele>714.3</ele>
        <time>2021-09-01T14:06:18Z</time>
      </trkpt>
      <trkpt lat="44.81162" lon="5.30801">
        <ele>714.3</ele>
        <time>2021-09-01T14:06:19Z</time>
      </trkpt>
      <trkpt lat="44.81158" lon="5.30809">
        <ele>714</ele>
        <time>2021-09-01T14:06:20Z</time>
      </trkpt>
      <trkpt lat="44.81156" lon="5.30815">
        <ele>713.8</ele>
        <time>2021-09-01T14:06:21Z</time>
      </trkpt>
      <trkpt lat="44.81153" lon="5.30819">
        <ele>713.5</ele>
        <time>2021-09-01T14:06:22Z</time>
      </trkpt>
      <trkpt lat="44.81149" lon="5.30824">
        <ele>713</ele>
        <time>2021-09-01T14:06:24Z</time>
      </trkpt>
      <trkpt lat="44.81147" lon="5.30827">
        <ele>712.5</ele>
        <time>2021-09-01T14:06:25Z</time>
      </trkpt>
      <trkpt lat="44.81143" lon="5.30831">
        <ele>711.8</ele>
        <time>2021-09-01T14:06:26Z</time>
      </trkpt>
      <trkpt lat="44.81141" lon="5.30834">
        <ele>711.4</ele>
        <time>2021-09-01T14:06:27Z</time>
      </trkpt>
      <trkpt lat="44.81139" lon="5.30837">
        <ele>710.8</ele>
        <time>2021-09-01T14:06:29Z</time>
      </trkpt>
      <trkpt lat="44.81138" lon="5.30841">
        <ele>710.1</ele>
        <time>2021-09-01T14:06:30Z</time>
      </trkpt>
      <trkpt lat="44.81139" lon="5.30843">
        <ele>709.7</ele>
        <time>2021-09-01T14:06:31Z</time>
      </trkpt>
      <trkpt lat="44.81139" lon="5.30847">
        <ele>709.1</ele>
        <time>2021-09-01T14:06:32Z</time>
      </trkpt>
      <trkpt lat="44.81139" lon="5.30849">
        <ele>708.7</ele>
        <time>2021-09-01T14:06:34Z</time>
      </trkpt>
      <trkpt lat="44.81138" lon="5.30851">
        <ele>708.4</ele>
        <time>2021-09-01T14:06:35Z</time>
      </trkpt>
      <trkpt lat="44.81138" lon="5.30852">
        <ele>708.1</ele>
        <time>2021-09-01T14:06:36Z</time>
      </trkpt>
      <trkpt lat="44.81138" lon="5.30854">
        <ele>707.7</ele>
        <time>2021-09-01T14:06:37Z</time>
      </trkpt>
      <trkpt lat="44.81138" lon="5.30856">
        <ele>707.4</ele>
        <time>2021-09-01T14:06:39Z</time>
      </trkpt>
      <trkpt lat="44.81138" lon="5.30858">
        <ele>707.1</ele>
        <time>2021-09-01T14:06:40Z</time>
      </trkpt>
      <trkpt lat="44.81138" lon="5.3086">
        <ele>706.7</ele>
        <time>2021-09-01T14:06:42Z</time>
      </trkpt>
      <trkpt lat="44.81138" lon="5.30861">
        <ele>706.4</ele>
        <time>2021-09-01T14:07:56Z</time>
      </trkpt>
      <trkpt lat="44.81138" lon="5.30863">
        <ele>706.1</ele>
        <time>2021-09-01T14:07:57Z</time>
      </trkpt>
      <trkpt lat="44.81136" lon="5.3087">
        <ele>704.6</ele>
        <time>2021-09-01T14:07:58Z</time>
      </trkpt>
      <trkpt lat="44.81133" lon="5.30873">
        <ele>703.8</ele>
        <time>2021-09-01T14:07:59Z</time>
      </trkpt>
      <trkpt lat="44.81132" lon="5.30878">
        <ele>702.8</ele>
        <time>2021-09-01T14:08:01Z</time>
      </trkpt>
      <trkpt lat="44.81132" lon="5.3088">
        <ele>702.4</ele>
        <time>2021-09-01T14:08:02Z</time>
      </trkpt>
      <trkpt lat="44.81132" lon="5.30884">
        <ele>701.7</ele>
        <time>2021-09-01T14:08:03Z</time>
      </trkpt>
      <trkpt lat="44.81131" lon="5.3089">
        <ele>700.7</ele>
        <time>2021-09-01T14:08:05Z</time>
      </trkpt>
      <trkpt lat="44.81131" lon="5.30891">
        <ele>700.4</ele>
        <time>2021-09-01T14:08:06Z</time>
      </trkpt>
      <trkpt lat="44.81128" lon="5.30899">
        <ele>698.9</ele>
        <time>2021-09-01T14:08:07Z</time>
      </trkpt>
      <trkpt lat="44.81124" lon="5.30904">
        <ele>698.3</ele>
        <time>2021-09-01T14:08:09Z</time>
      </trkpt>
      <trkpt lat="44.81121" lon="5.3091">
        <ele>698.2</ele>
        <time>2021-09-01T14:08:10Z</time>
      </trkpt>
      <trkpt lat="44.81114" lon="5.30927">
        <ele>696.8</ele>
        <time>2021-09-01T14:08:12Z</time>
      </trkpt>
      <trkpt lat="44.81112" lon="5.30943">
        <ele>694.6</ele>
        <time>2021-09-01T14:08:14Z</time>
      </trkpt>
      <trkpt lat="44.81112" lon="5.30952">
        <ele>693.5</ele>
        <time>2021-09-01T14:08:15Z</time>
      </trkpt>
      <trkpt lat="44.81113" lon="5.30957">
        <ele>692.9</ele>
        <time>2021-09-01T14:08:17Z</time>
      </trkpt>
      <trkpt lat="44.81115" lon="5.30969">
        <ele>691.7</ele>
        <time>2021-09-01T14:08:19Z</time>
      </trkpt>
      <trkpt lat="44.81116" lon="5.30977">
        <ele>691</ele>
        <time>2021-09-01T14:08:20Z</time>
      </trkpt>
      <trkpt lat="44.81118" lon="5.30985">
        <ele>690.4</ele>
        <time>2021-09-01T14:08:21Z</time>
      </trkpt>
      <trkpt lat="44.81122" lon="5.30993">
        <ele>690</ele>
        <time>2021-09-01T14:08:23Z</time>
      </trkpt>
      <trkpt lat="44.81125" lon="5.31003">
        <ele>689.7</ele>
        <time>2021-09-01T14:08:24Z</time>
      </trkpt>
      <trkpt lat="44.81127" lon="5.31008">
        <ele>689.7</ele>
        <time>2021-09-01T14:08:25Z</time>
      </trkpt>
      <trkpt lat="44.81129" lon="5.31012">
        <ele>689.8</ele>
        <time>2021-09-01T14:08:27Z</time>
      </trkpt>
      <trkpt lat="44.81132" lon="5.31019">
        <ele>689.9</ele>
        <time>2021-09-01T14:08:29Z</time>
      </trkpt>
      <trkpt lat="44.81133" lon="5.31023">
        <ele>690</ele>
        <time>2021-09-01T14:08:30Z</time>
      </trkpt>
      <trkpt lat="44.81133" lon="5.31024">
        <ele>690</ele>
        <time>2021-09-01T14:08:31Z</time>
      </trkpt>
      <trkpt lat="44.81134" lon="5.31027">
        <ele>690</ele>
        <time>2021-09-01T14:08:32Z</time>
      </trkpt>
      <trkpt lat="44.81135" lon="5.31029">
        <ele>690.1</ele>
        <time>2021-09-01T14:08:34Z</time>
      </trkpt>
      <trkpt lat="44.81133" lon="5.3103">
        <ele>690.1</ele>
        <time>2021-09-01T14:08:35Z</time>
      </trkpt>
      <trkpt lat="44.81133" lon="5.3103">
        <ele>690.1</ele>
        <time>2021-09-01T14:08:36Z</time>
      </trkpt>
      <trkpt lat="44.81133" lon="5.3103">
        <ele>690.1</ele>
        <time>2021-09-01T14:08:38Z</time>
      </trkpt>
      <trkpt lat="44.81132" lon="5.3103">
        <ele>690.2</ele>
        <time>2021-09-01T14:08:39Z</time>
      </trkpt>
      <trkpt lat="44.81133" lon="5.31031">
        <ele>690.2</ele>
        <time>2021-09-01T14:08:41Z</time>
      </trkpt>
      <trkpt lat="44.81133" lon="5.31031">
        <ele>690.2</ele>
        <time>2021-09-01T14:08:42Z</time>
      </trkpt>
      <trkpt lat="44.8113" lon="5.31039">
        <ele>690.4</ele>
        <time>2021-09-01T14:08:55Z</time>
      </trkpt>
      <trkpt lat="44.81128" lon="5.31043">
        <ele>690.5</ele>
        <time>2021-09-01T14:08:57Z</time>
      </trkpt>
      <trkpt lat="44.81124" lon="5.31048">
        <ele>690.7</ele>
        <time>2021-09-01T14:08:58Z</time>
      </trkpt>
      <trkpt lat="44.81121" lon="5.31052">
        <ele>690.8</ele>
        <time>2021-09-01T14:08:59Z</time>
      </trkpt>
      <trkpt lat="44.81119" lon="5.31055">
        <ele>690.9</ele>
        <time>2021-09-01T14:09:00Z</time>
      </trkpt>
      <trkpt lat="44.81114" lon="5.31059">
        <ele>691.1</ele>
        <time>2021-09-01T14:09:03Z</time>
      </trkpt>
      <trkpt lat="44.81111" lon="5.31062">
        <ele>691.2</ele>
        <time>2021-09-01T14:09:04Z</time>
      </trkpt>
      <trkpt lat="44.81107" lon="5.31064">
        <ele>691.2</ele>
        <time>2021-09-01T14:09:05Z</time>
      </trkpt>
      <trkpt lat="44.81103" lon="5.31067">
        <ele>691.2</ele>
        <time>2021-09-01T14:09:07Z</time>
      </trkpt>
      <trkpt lat="44.81102" lon="5.31068">
        <ele>691.1</ele>
        <time>2021-09-01T14:09:08Z</time>
      </trkpt>
      <trkpt lat="44.811" lon="5.3107">
        <ele>691</ele>
        <time>2021-09-01T14:09:09Z</time>
      </trkpt>
      <trkpt lat="44.81096" lon="5.31072">
        <ele>690.9</ele>
        <time>2021-09-01T14:09:11Z</time>
      </trkpt>
      <trkpt lat="44.81092" lon="5.31074">
        <ele>690.6</ele>
        <time>2021-09-01T14:09:12Z</time>
      </trkpt>
      <trkpt lat="44.81087" lon="5.31075">
        <ele>690.3</ele>
        <time>2021-09-01T14:09:13Z</time>
      </trkpt>
      <trkpt lat="44.81082" lon="5.31076">
        <ele>690</ele>
        <time>2021-09-01T14:09:15Z</time>
      </trkpt>
      <trkpt lat="44.81077" lon="5.31075">
        <ele>689.6</ele>
        <time>2021-09-01T14:09:16Z</time>
      </trkpt>
      <trkpt lat="44.81072" lon="5.31075">
        <ele>689.2</ele>
        <time>2021-09-01T14:09:18Z</time>
      </trkpt>
      <trkpt lat="44.81065" lon="5.31075">
        <ele>688.8</ele>
        <time>2021-09-01T14:09:19Z</time>
      </trkpt>
      <trkpt lat="44.8106" lon="5.31074">
        <ele>688.6</ele>
        <time>2021-09-01T14:09:21Z</time>
      </trkpt>
      <trkpt lat="44.81052" lon="5.31073">
        <ele>688.3</ele>
        <time>2021-09-01T14:09:22Z</time>
      </trkpt>
      <trkpt lat="44.81048" lon="5.31072">
        <ele>688.2</ele>
        <time>2021-09-01T14:09:24Z</time>
      </trkpt>
      <trkpt lat="44.81043" lon="5.31071">
        <ele>688</ele>
        <time>2021-09-01T14:09:25Z</time>
      </trkpt>
      <trkpt lat="44.81038" lon="5.3107">
        <ele>687.9</ele>
        <time>2021-09-01T14:09:26Z</time>
      </trkpt>
      <trkpt lat="44.81034" lon="5.31068">
        <ele>687.7</ele>
        <time>2021-09-01T14:09:28Z</time>
      </trkpt>
      <trkpt lat="44.81031" lon="5.31067">
        <ele>687.6</ele>
        <time>2021-09-01T14:09:29Z</time>
      </trkpt>
      <trkpt lat="44.81025" lon="5.31065">
        <ele>687.4</ele>
        <time>2021-09-01T14:09:31Z</time>
      </trkpt>
      <trkpt lat="44.81019" lon="5.31064">
        <ele>687.2</ele>
        <time>2021-09-01T14:09:33Z</time>
      </trkpt>
      <trkpt lat="44.81016" lon="5.31065">
        <ele>687</ele>
        <time>2021-09-01T14:09:34Z</time>
      </trkpt>
      <trkpt lat="44.81006" lon="5.31066">
        <ele>686.3</ele>
        <time>2021-09-01T14:09:36Z</time>
      </trkpt>
      <trkpt lat="44.81" lon="5.31068">
        <ele>685.9</ele>
        <time>2021-09-01T14:09:37Z</time>
      </trkpt>
      <trkpt lat="44.80995" lon="5.31069">
        <ele>685.5</ele>
        <time>2021-09-01T14:09:38Z</time>
      </trkpt>
      <trkpt lat="44.8099" lon="5.31071">
        <ele>685.1</ele>
        <time>2021-09-01T14:09:39Z</time>
      </trkpt>
      <trkpt lat="44.80978" lon="5.31077">
        <ele>684.2</ele>
        <time>2021-09-01T14:09:41Z</time>
      </trkpt>
      <trkpt lat="44.80972" lon="5.31081">
        <ele>683.7</ele>
        <time>2021-09-01T14:09:42Z</time>
      </trkpt>
      <trkpt lat="44.8096" lon="5.31092">
        <ele>682.5</ele>
        <time>2021-09-01T14:09:44Z</time>
      </trkpt>
      <trkpt lat="44.80955" lon="5.31096">
        <ele>681.9</ele>
        <time>2021-09-01T14:09:45Z</time>
      </trkpt>
      <trkpt lat="44.80945" lon="5.31103">
        <ele>681.3</ele>
        <time>2021-09-01T14:09:47Z</time>
      </trkpt>
      <trkpt lat="44.80936" lon="5.31111">
        <ele>680.9</ele>
        <time>2021-09-01T14:09:49Z</time>
      </trkpt>
      <trkpt lat="44.80928" lon="5.31119">
        <ele>680.5</ele>
        <time>2021-09-01T14:09:51Z</time>
      </trkpt>
      <trkpt lat="44.80922" lon="5.31126">
        <ele>680.1</ele>
        <time>2021-09-01T14:09:53Z</time>
      </trkpt>
      <trkpt lat="44.80919" lon="5.3113">
        <ele>679.9</ele>
        <time>2021-09-01T14:09:54Z</time>
      </trkpt>
      <trkpt lat="44.80911" lon="5.31141">
        <ele>679.3</ele>
        <time>2021-09-01T14:09:56Z</time>
      </trkpt>
      <trkpt lat="44.80903" lon="5.3115">
        <ele>678.7</ele>
        <time>2021-09-01T14:09:58Z</time>
      </trkpt>
      <trkpt lat="44.80899" lon="5.31154">
        <ele>678.5</ele>
        <time>2021-09-01T14:09:59Z</time>
      </trkpt>
      <trkpt lat="44.80893" lon="5.31164">
        <ele>677.9</ele>
        <time>2021-09-01T14:10:01Z</time>
      </trkpt>
      <trkpt lat="44.80885" lon="5.31174">
        <ele>677.1</ele>
        <time>2021-09-01T14:10:03Z</time>
      </trkpt>
      <trkpt lat="44.80877" lon="5.31183">
        <ele>676.3</ele>
        <time>2021-09-01T14:10:05Z</time>
      </trkpt>
      <trkpt lat="44.80873" lon="5.31188">
        <ele>676</ele>
        <time>2021-09-01T14:10:06Z</time>
      </trkpt>
      <trkpt lat="44.80865" lon="5.31196">
        <ele>675.3</ele>
        <time>2021-09-01T14:10:08Z</time>
      </trkpt>
      <trkpt lat="44.80856" lon="5.31206">
        <ele>674.9</ele>
        <time>2021-09-01T14:10:10Z</time>
      </trkpt>
      <trkpt lat="44.80852" lon="5.31212">
        <ele>674.7</ele>
        <time>2021-09-01T14:10:11Z</time>
      </trkpt>
      <trkpt lat="44.80848" lon="5.31217">
        <ele>674.5</ele>
        <time>2021-09-01T14:10:12Z</time>
      </trkpt>
      <trkpt lat="44.8084" lon="5.31226">
        <ele>674.4</ele>
        <time>2021-09-01T14:10:14Z</time>
      </trkpt>
      <trkpt lat="44.80834" lon="5.31233">
        <ele>674.3</ele>
        <time>2021-09-01T14:10:16Z</time>
      </trkpt>
      <trkpt lat="44.80831" lon="5.31237">
        <ele>674.2</ele>
        <time>2021-09-01T14:10:17Z</time>
      </trkpt>
      <trkpt lat="44.80828" lon="5.31242">
        <ele>674.1</ele>
        <time>2021-09-01T14:10:18Z</time>
      </trkpt>
      <trkpt lat="44.80822" lon="5.31249">
        <ele>673.8</ele>
        <time>2021-09-01T14:10:20Z</time>
      </trkpt>
      <trkpt lat="44.80819" lon="5.31245">
        <ele>673.6</ele>
        <time>2021-09-01T14:10:21Z</time>
      </trkpt>
      <trkpt lat="44.80812" lon="5.3126">
        <ele>673.2</ele>
        <time>2021-09-01T14:10:23Z</time>
      </trkpt>
      <trkpt lat="44.80808" lon="5.31265">
        <ele>673</ele>
        <time>2021-09-01T14:10:24Z</time>
      </trkpt>
      <trkpt lat="44.80804" lon="5.31271">
        <ele>672.9</ele>
        <time>2021-09-01T14:10:25Z</time>
      </trkpt>
      <trkpt lat="44.80795" lon="5.3128">
        <ele>672.8</ele>
        <time>2021-09-01T14:10:27Z</time>
      </trkpt>
      <trkpt lat="44.80791" lon="5.31283">
        <ele>672.9</ele>
        <time>2021-09-01T14:10:28Z</time>
      </trkpt>
      <trkpt lat="44.80788" lon="5.31287">
        <ele>672.9</ele>
        <time>2021-09-01T14:10:29Z</time>
      </trkpt>
      <trkpt lat="44.80785" lon="5.3129">
        <ele>672.9</ele>
        <time>2021-09-01T14:10:30Z</time>
      </trkpt>
      <trkpt lat="44.80782" lon="5.31294">
        <ele>672.9</ele>
        <time>2021-09-01T14:10:31Z</time>
      </trkpt>
      <trkpt lat="44.80779" lon="5.31298">
        <ele>672.9</ele>
        <time>2021-09-01T14:10:32Z</time>
      </trkpt>
      <trkpt lat="44.80777" lon="5.31303">
        <ele>672.8</ele>
        <time>2021-09-01T14:10:33Z</time>
      </trkpt>
      <trkpt lat="44.80776" lon="5.31308">
        <ele>672.8</ele>
        <time>2021-09-01T14:10:34Z</time>
      </trkpt>
      <trkpt lat="44.80776" lon="5.31314">
        <ele>672.6</ele>
        <time>2021-09-01T14:10:36Z</time>
      </trkpt>
      <trkpt lat="44.80777" lon="5.31321">
        <ele>672.5</ele>
        <time>2021-09-01T14:10:37Z</time>
      </trkpt>
      <trkpt lat="44.80779" lon="5.31326">
        <ele>672.3</ele>
        <time>2021-09-01T14:10:38Z</time>
      </trkpt>
      <trkpt lat="44.80782" lon="5.31331">
        <ele>672.2</ele>
        <time>2021-09-01T14:10:40Z</time>
      </trkpt>
      <trkpt lat="44.80785" lon="5.31335">
        <ele>672.1</ele>
        <time>2021-09-01T14:10:41Z</time>
      </trkpt>
      <trkpt lat="44.80789" lon="5.31338">
        <ele>671.9</ele>
        <time>2021-09-01T14:10:43Z</time>
      </trkpt>
      <trkpt lat="44.80792" lon="5.3134">
        <ele>671.8</ele>
        <time>2021-09-01T14:10:44Z</time>
      </trkpt>
      <trkpt lat="44.80796" lon="5.31341">
        <ele>671.7</ele>
        <time>2021-09-01T14:10:45Z</time>
      </trkpt>
      <trkpt lat="44.808" lon="5.31343">
        <ele>671.5</ele>
        <time>2021-09-01T14:10:46Z</time>
      </trkpt>
      <trkpt lat="44.80804" lon="5.31343">
        <ele>671.4</ele>
        <time>2021-09-01T14:10:47Z</time>
      </trkpt>
      <trkpt lat="44.80809" lon="5.31345">
        <ele>671.2</ele>
        <time>2021-09-01T14:10:49Z</time>
      </trkpt>
      <trkpt lat="44.80814" lon="5.31346">
        <ele>671.1</ele>
        <time>2021-09-01T14:10:50Z</time>
      </trkpt>
      <trkpt lat="44.80821" lon="5.31347">
        <ele>670.9</ele>
        <time>2021-09-01T14:10:52Z</time>
      </trkpt>
      <trkpt lat="44.80825" lon="5.31347">
        <ele>670.8</ele>
        <time>2021-09-01T14:10:53Z</time>
      </trkpt>
      <trkpt lat="44.80829" lon="5.31347">
        <ele>670.7</ele>
        <time>2021-09-01T14:10:54Z</time>
      </trkpt>
      <trkpt lat="44.80834" lon="5.31347">
        <ele>670.5</ele>
        <time>2021-09-01T14:10:55Z</time>
      </trkpt>
      <trkpt lat="44.80838" lon="5.31347">
        <ele>670.3</ele>
        <time>2021-09-01T14:10:57Z</time>
      </trkpt>
      <trkpt lat="44.80842" lon="5.31347">
        <ele>670.1</ele>
        <time>2021-09-01T14:10:58Z</time>
      </trkpt>
      <trkpt lat="44.80848" lon="5.31347">
        <ele>669.7</ele>
        <time>2021-09-01T14:10:59Z</time>
      </trkpt>
      <trkpt lat="44.80853" lon="5.31349">
        <ele>669.3</ele>
        <time>2021-09-01T14:11:00Z</time>
      </trkpt>
      <trkpt lat="44.80857" lon="5.3135">
        <ele>669</ele>
        <time>2021-09-01T14:11:02Z</time>
      </trkpt>
      <trkpt lat="44.80863" lon="5.31353">
        <ele>668.5</ele>
        <time>2021-09-01T14:11:03Z</time>
      </trkpt>
      <trkpt lat="44.80866" lon="5.31355">
        <ele>668.2</ele>
        <time>2021-09-01T14:11:05Z</time>
      </trkpt>
      <trkpt lat="44.80869" lon="5.31357">
        <ele>667.9</ele>
        <time>2021-09-01T14:11:06Z</time>
      </trkpt>
      <trkpt lat="44.80874" lon="5.31359">
        <ele>667.2</ele>
        <time>2021-09-01T14:11:07Z</time>
      </trkpt>
      <trkpt lat="44.80879" lon="5.31361">
        <ele>666.6</ele>
        <time>2021-09-01T14:11:08Z</time>
      </trkpt>
      <trkpt lat="44.80883" lon="5.31362">
        <ele>666</ele>
        <time>2021-09-01T14:11:09Z</time>
      </trkpt>
      <trkpt lat="44.80887" lon="5.31363">
        <ele>665.4</ele>
        <time>2021-09-01T14:11:10Z</time>
      </trkpt>
      <trkpt lat="44.80892" lon="5.31364">
        <ele>664.7</ele>
        <time>2021-09-01T14:11:12Z</time>
      </trkpt>
      <trkpt lat="44.80904" lon="5.3137">
        <ele>663</ele>
        <time>2021-09-01T14:11:14Z</time>
      </trkpt>
      <trkpt lat="44.80916" lon="5.31376">
        <ele>661.3</ele>
        <time>2021-09-01T14:11:16Z</time>
      </trkpt>
      <trkpt lat="44.80921" lon="5.31378">
        <ele>660.7</ele>
        <time>2021-09-01T14:11:17Z</time>
      </trkpt>
      <trkpt lat="44.80926" lon="5.31381">
        <ele>660.1</ele>
        <time>2021-09-01T14:11:18Z</time>
      </trkpt>
      <trkpt lat="44.80931" lon="5.31384">
        <ele>659.5</ele>
        <time>2021-09-01T14:11:20Z</time>
      </trkpt>
      <trkpt lat="44.80935" lon="5.31388">
        <ele>659</ele>
        <time>2021-09-01T14:11:21Z</time>
      </trkpt>
      <trkpt lat="44.80937" lon="5.31393">
        <ele>658.4</ele>
        <time>2021-09-01T14:11:22Z</time>
      </trkpt>
      <trkpt lat="44.80935" lon="5.314">
        <ele>657.8</ele>
        <time>2021-09-01T14:11:24Z</time>
      </trkpt>
      <trkpt lat="44.80934" lon="5.31403">
        <ele>657.5</ele>
        <time>2021-09-01T14:11:25Z</time>
      </trkpt>
      <trkpt lat="44.8093" lon="5.31405">
        <ele>657.2</ele>
        <time>2021-09-01T14:11:27Z</time>
      </trkpt>
      <trkpt lat="44.80929" lon="5.31407">
        <ele>657</ele>
        <time>2021-09-01T14:11:28Z</time>
      </trkpt>
      <trkpt lat="44.80928" lon="5.31408">
        <ele>657</ele>
        <time>2021-09-01T14:11:29Z</time>
      </trkpt>
      <trkpt lat="44.80927" lon="5.31409">
        <ele>656.9</ele>
        <time>2021-09-01T14:11:30Z</time>
      </trkpt>
      <trkpt lat="44.80926" lon="5.31411">
        <ele>656.9</ele>
        <time>2021-09-01T14:11:31Z</time>
      </trkpt>
      <trkpt lat="44.80925" lon="5.31414">
        <ele>656.9</ele>
        <time>2021-09-01T14:11:33Z</time>
      </trkpt>
      <trkpt lat="44.80922" lon="5.31415">
        <ele>657</ele>
        <time>2021-09-01T14:11:34Z</time>
      </trkpt>
      <trkpt lat="44.80921" lon="5.31416">
        <ele>657</ele>
        <time>2021-09-01T14:11:36Z</time>
      </trkpt>
      <trkpt lat="44.8092" lon="5.31416">
        <ele>657.1</ele>
        <time>2021-09-01T14:11:37Z</time>
      </trkpt>
      <trkpt lat="44.80918" lon="5.31416">
        <ele>657.2</ele>
        <time>2021-09-01T14:11:38Z</time>
      </trkpt>
      <trkpt lat="44.80917" lon="5.31415">
        <ele>657.3</ele>
        <time>2021-09-01T14:11:39Z</time>
      </trkpt>
      <trkpt lat="44.80916" lon="5.31414">
        <ele>657.5</ele>
        <time>2021-09-01T14:11:41Z</time>
      </trkpt>
      <trkpt lat="44.80916" lon="5.31414">
        <ele>657.5</ele>
        <time>2021-09-01T14:11:43Z</time>
      </trkpt>
      <trkpt lat="44.80915" lon="5.31414">
        <ele>657.6</ele>
        <time>2021-09-01T14:11:45Z</time>
      </trkpt>
      <trkpt lat="44.80853" lon="5.31444">
        <ele>667.5</ele>
        <time>2021-09-01T14:14:18Z</time>
      </trkpt>
      <trkpt lat="44.8085" lon="5.3145">
        <ele>667.7</ele>
        <time>2021-09-01T14:14:20Z</time>
      </trkpt>
      <trkpt lat="44.80847" lon="5.31455">
        <ele>667.9</ele>
        <time>2021-09-01T14:14:21Z</time>
      </trkpt>
      <trkpt lat="44.80845" lon="5.31457">
        <ele>668.1</ele>
        <time>2021-09-01T14:14:22Z</time>
      </trkpt>
      <trkpt lat="44.80843" lon="5.31459">
        <ele>668.3</ele>
        <time>2021-09-01T14:14:24Z</time>
      </trkpt>
      <trkpt lat="44.80841" lon="5.31459">
        <ele>668.4</ele>
        <time>2021-09-01T14:14:25Z</time>
      </trkpt>
      <trkpt lat="44.80834" lon="5.31464">
        <ele>669.1</ele>
        <time>2021-09-01T14:14:27Z</time>
      </trkpt>
      <trkpt lat="44.80826" lon="5.31469">
        <ele>669.9</ele>
        <time>2021-09-01T14:14:28Z</time>
      </trkpt>
      <trkpt lat="44.80818" lon="5.31473">
        <ele>670.2</ele>
        <time>2021-09-01T14:14:30Z</time>
      </trkpt>
      <trkpt lat="44.80811" lon="5.31478">
        <ele>670</ele>
        <time>2021-09-01T14:14:31Z</time>
      </trkpt>
      <trkpt lat="44.80803" lon="5.31482">
        <ele>669.5</ele>
        <time>2021-09-01T14:15:46Z</time>
      </trkpt>
      <trkpt lat="44.80796" lon="5.31487">
        <ele>669.1</ele>
        <time>2021-09-01T14:15:48Z</time>
      </trkpt>
      <trkpt lat="44.80775" lon="5.31494">
        <ele>667.8</ele>
        <time>2021-09-01T14:15:50Z</time>
      </trkpt>
      <trkpt lat="44.80766" lon="5.31498">
        <ele>667.2</ele>
        <time>2021-09-01T14:15:51Z</time>
      </trkpt>
      <trkpt lat="44.80746" lon="5.31505">
        <ele>666.1</ele>
        <time>2021-09-01T14:15:53Z</time>
      </trkpt>
      <trkpt lat="44.80738" lon="5.31507">
        <ele>665.7</ele>
        <time>2021-09-01T14:15:54Z</time>
      </trkpt>
      <trkpt lat="44.80727" lon="5.31518">
        <ele>665</ele>
        <time>2021-09-01T14:15:56Z</time>
      </trkpt>
      <trkpt lat="44.80724" lon="5.31525">
        <ele>664.7</ele>
        <time>2021-09-01T14:15:57Z</time>
      </trkpt>
      <trkpt lat="44.80724" lon="5.31541">
        <ele>663.8</ele>
        <time>2021-09-01T14:15:58Z</time>
      </trkpt>
      <trkpt lat="44.80727" lon="5.3156">
        <ele>662.8</ele>
        <time>2021-09-01T14:16:00Z</time>
      </trkpt>
      <trkpt lat="44.80731" lon="5.31579">
        <ele>661.9</ele>
        <time>2021-09-01T14:16:02Z</time>
      </trkpt>
      <trkpt lat="44.80734" lon="5.31588">
        <ele>661.5</ele>
        <time>2021-09-01T14:16:03Z</time>
      </trkpt>
      <trkpt lat="44.80736" lon="5.31598">
        <ele>660.2</ele>
        <time>2021-09-01T14:16:04Z</time>
      </trkpt>
      <trkpt lat="44.80738" lon="5.31607">
        <ele>659</ele>
        <time>2021-09-01T14:16:05Z</time>
      </trkpt>
      <trkpt lat="44.80742" lon="5.31623">
        <ele>657</ele>
        <time>2021-09-01T14:16:07Z</time>
      </trkpt>
      <trkpt lat="44.80745" lon="5.31631">
        <ele>656.2</ele>
        <time>2021-09-01T14:16:08Z</time>
      </trkpt>
      <trkpt lat="44.80749" lon="5.31644">
        <ele>654.4</ele>
        <time>2021-09-01T14:16:10Z</time>
      </trkpt>
      <trkpt lat="44.80751" lon="5.31648">
        <ele>653.8</ele>
        <time>2021-09-01T14:16:11Z</time>
      </trkpt>
      <trkpt lat="44.80752" lon="5.31654">
        <ele>653.1</ele>
        <time>2021-09-01T14:16:12Z</time>
      </trkpt>
      <trkpt lat="44.80751" lon="5.31665">
        <ele>652.1</ele>
        <time>2021-09-01T14:16:14Z</time>
      </trkpt>
      <trkpt lat="44.80748" lon="5.3167">
        <ele>651.6</ele>
        <time>2021-09-01T14:16:15Z</time>
      </trkpt>
      <trkpt lat="44.80742" lon="5.31676">
        <ele>651</ele>
        <time>2021-09-01T14:16:17Z</time>
      </trkpt>
      <trkpt lat="44.80738" lon="5.31681">
        <ele>650.6</ele>
        <time>2021-09-01T14:16:18Z</time>
      </trkpt>
      <trkpt lat="44.8073" lon="5.31684">
        <ele>650</ele>
        <time>2021-09-01T14:16:20Z</time>
      </trkpt>
      <trkpt lat="44.80721" lon="5.31686">
        <ele>649.5</ele>
        <time>2021-09-01T14:16:22Z</time>
      </trkpt>
      <trkpt lat="44.80716" lon="5.31684">
        <ele>649.2</ele>
        <time>2021-09-01T14:16:23Z</time>
      </trkpt>
      <trkpt lat="44.80708" lon="5.31685">
        <ele>648.9</ele>
        <time>2021-09-01T14:16:25Z</time>
      </trkpt>
      <trkpt lat="44.80702" lon="5.31687">
        <ele>648.6</ele>
        <time>2021-09-01T14:16:26Z</time>
      </trkpt>
      <trkpt lat="44.80695" lon="5.31689">
        <ele>648.4</ele>
        <time>2021-09-01T14:16:28Z</time>
      </trkpt>
      <trkpt lat="44.80688" lon="5.3169">
        <ele>648.3</ele>
        <time>2021-09-01T14:16:29Z</time>
      </trkpt>
      <trkpt lat="44.80683" lon="5.31692">
        <ele>648.2</ele>
        <time>2021-09-01T14:16:31Z</time>
      </trkpt>
      <trkpt lat="44.8068" lon="5.31694">
        <ele>648.1</ele>
        <time>2021-09-01T14:16:32Z</time>
      </trkpt>
      <trkpt lat="44.80676" lon="5.31697">
        <ele>647.8</ele>
        <time>2021-09-01T14:16:34Z</time>
      </trkpt>
      <trkpt lat="44.80673" lon="5.31694">
        <ele>647.6</ele>
        <time>2021-09-01T14:16:35Z</time>
      </trkpt>
      <trkpt lat="44.8067" lon="5.31697">
        <ele>647.2</ele>
        <time>2021-09-01T14:16:37Z</time>
      </trkpt>
      <trkpt lat="44.80669" lon="5.31698">
        <ele>647.1</ele>
        <time>2021-09-01T14:16:38Z</time>
      </trkpt>
      <trkpt lat="44.80668" lon="5.31701">
        <ele>646.9</ele>
        <time>2021-09-01T14:16:40Z</time>
      </trkpt>
      <trkpt lat="44.80667" lon="5.31706">
        <ele>646.5</ele>
        <time>2021-09-01T14:16:41Z</time>
      </trkpt>
      <trkpt lat="44.80667" lon="5.31708">
        <ele>646.3</ele>
        <time>2021-09-01T14:16:42Z</time>
      </trkpt>
      <trkpt lat="44.80666" lon="5.31713">
        <ele>646</ele>
        <time>2021-09-01T14:16:43Z</time>
      </trkpt>
      <trkpt lat="44.80666" lon="5.31724">
        <ele>645.3</ele>
        <time>2021-09-01T14:16:45Z</time>
      </trkpt>
      <trkpt lat="44.80666" lon="5.31732">
        <ele>644.8</ele>
        <time>2021-09-01T14:16:46Z</time>
      </trkpt>
      <trkpt lat="44.80666" lon="5.31739">
        <ele>644.5</ele>
        <time>2021-09-01T14:16:47Z</time>
      </trkpt>
      <trkpt lat="44.80665" lon="5.31753">
        <ele>643.9</ele>
        <time>2021-09-01T14:16:49Z</time>
      </trkpt>
      <trkpt lat="44.80662" lon="5.31766">
        <ele>643.4</ele>
        <time>2021-09-01T14:16:51Z</time>
      </trkpt>
      <trkpt lat="44.80661" lon="5.31773">
        <ele>643.3</ele>
        <time>2021-09-01T14:16:52Z</time>
      </trkpt>
      <trkpt lat="44.8066" lon="5.3178">
        <ele>643.1</ele>
        <time>2021-09-01T14:16:53Z</time>
      </trkpt>
      <trkpt lat="44.80656" lon="5.31789">
        <ele>643.1</ele>
        <time>2021-09-01T14:16:55Z</time>
      </trkpt>
      <trkpt lat="44.80651" lon="5.31798">
        <ele>643.1</ele>
        <time>2021-09-01T14:16:57Z</time>
      </trkpt>
      <trkpt lat="44.80648" lon="5.31801">
        <ele>643.1</ele>
        <time>2021-09-01T14:16:58Z</time>
      </trkpt>
      <trkpt lat="44.80644" lon="5.31804">
        <ele>643.2</ele>
        <time>2021-09-01T14:16:59Z</time>
      </trkpt>
      <trkpt lat="44.80637" lon="5.31811">
        <ele>643.3</ele>
        <time>2021-09-01T14:17:01Z</time>
      </trkpt>
      <trkpt lat="44.80631" lon="5.31815">
        <ele>643.3</ele>
        <time>2021-09-01T14:17:03Z</time>
      </trkpt>
      <trkpt lat="44.80628" lon="5.31816">
        <ele>643.3</ele>
        <time>2021-09-01T14:17:04Z</time>
      </trkpt>
      <trkpt lat="44.80624" lon="5.31818">
        <ele>643.4</ele>
        <time>2021-09-01T14:17:05Z</time>
      </trkpt>
      <trkpt lat="44.8062" lon="5.31819">
        <ele>643.4</ele>
        <time>2021-09-01T14:17:07Z</time>
      </trkpt>
      <trkpt lat="44.80617" lon="5.31819">
        <ele>643.5</ele>
        <time>2021-09-01T14:17:08Z</time>
      </trkpt>
      <trkpt lat="44.80612" lon="5.31821">
        <ele>643.5</ele>
        <time>2021-09-01T14:17:09Z</time>
      </trkpt>
      <trkpt lat="44.80607" lon="5.31822">
        <ele>643.6</ele>
        <time>2021-09-01T14:17:10Z</time>
      </trkpt>
      <trkpt lat="44.80603" lon="5.31824">
        <ele>643.6</ele>
        <time>2021-09-01T14:17:12Z</time>
      </trkpt>
      <trkpt lat="44.806" lon="5.31826">
        <ele>643.6</ele>
        <time>2021-09-01T14:17:13Z</time>
      </trkpt>
      <trkpt lat="44.80596" lon="5.31828">
        <ele>643.6</ele>
        <time>2021-09-01T14:17:14Z</time>
      </trkpt>
      <trkpt lat="44.80593" lon="5.31831">
        <ele>643.5</ele>
        <time>2021-09-01T14:17:15Z</time>
      </trkpt>
      <trkpt lat="44.8059" lon="5.31836">
        <ele>643.4</ele>
        <time>2021-09-01T14:17:16Z</time>
      </trkpt>
      <trkpt lat="44.80587" lon="5.31842">
        <ele>643.3</ele>
        <time>2021-09-01T14:17:18Z</time>
      </trkpt>
      <trkpt lat="44.80586" lon="5.31847">
        <ele>643.2</ele>
        <time>2021-09-01T14:17:19Z</time>
      </trkpt>
      <trkpt lat="44.80584" lon="5.31859">
        <ele>642.8</ele>
        <time>2021-09-01T14:17:21Z</time>
      </trkpt>
      <trkpt lat="44.80583" lon="5.3187">
        <ele>642.5</ele>
        <time>2021-09-01T14:17:22Z</time>
      </trkpt>
      <trkpt lat="44.80582" lon="5.31881">
        <ele>642.1</ele>
        <time>2021-09-01T14:17:24Z</time>
      </trkpt>
      <trkpt lat="44.80582" lon="5.31891">
        <ele>641.8</ele>
        <time>2021-09-01T14:17:25Z</time>
      </trkpt>
      <trkpt lat="44.80581" lon="5.31899">
        <ele>641.6</ele>
        <time>2021-09-01T14:17:26Z</time>
      </trkpt>
      <trkpt lat="44.8058" lon="5.31906">
        <ele>641.3</ele>
        <time>2021-09-01T14:17:27Z</time>
      </trkpt>
      <trkpt lat="44.80579" lon="5.31912">
        <ele>641.2</ele>
        <time>2021-09-01T14:17:29Z</time>
      </trkpt>
      <trkpt lat="44.80578" lon="5.31916">
        <ele>641.1</ele>
        <time>2021-09-01T14:17:30Z</time>
      </trkpt>
      <trkpt lat="44.80574" lon="5.31922">
        <ele>640.9</ele>
        <time>2021-09-01T14:17:31Z</time>
      </trkpt>
      <trkpt lat="44.80569" lon="5.31928">
        <ele>640.7</ele>
        <time>2021-09-01T14:17:33Z</time>
      </trkpt>
      <trkpt lat="44.80562" lon="5.31933">
        <ele>640.6</ele>
        <time>2021-09-01T14:17:34Z</time>
      </trkpt>
      <trkpt lat="44.80557" lon="5.31936">
        <ele>640.6</ele>
        <time>2021-09-01T14:17:36Z</time>
      </trkpt>
      <trkpt lat="44.80554" lon="5.31938">
        <ele>640.6</ele>
        <time>2021-09-01T14:17:37Z</time>
      </trkpt>
      <trkpt lat="44.80547" lon="5.31942">
        <ele>640.7</ele>
        <time>2021-09-01T14:17:38Z</time>
      </trkpt>
      <trkpt lat="44.80542" lon="5.31944">
        <ele>640.7</ele>
        <time>2021-09-01T14:17:40Z</time>
      </trkpt>
      <trkpt lat="44.80535" lon="5.31948">
        <ele>640.8</ele>
        <time>2021-09-01T14:17:41Z</time>
      </trkpt>
      <trkpt lat="44.80529" lon="5.31953">
        <ele>640.9</ele>
        <time>2021-09-01T14:17:43Z</time>
      </trkpt>
      <trkpt lat="44.80522" lon="5.31962">
        <ele>641.1</ele>
        <time>2021-09-01T14:17:45Z</time>
      </trkpt>
      <trkpt lat="44.80515" lon="5.31969">
        <ele>641.1</ele>
        <time>2021-09-01T14:17:46Z</time>
      </trkpt>
      <trkpt lat="44.8051" lon="5.31974">
        <ele>641</ele>
        <time>2021-09-01T14:17:48Z</time>
      </trkpt>
      <trkpt lat="44.80504" lon="5.31981">
        <ele>640.8</ele>
        <time>2021-09-01T14:17:49Z</time>
      </trkpt>
      <trkpt lat="44.80498" lon="5.31987">
        <ele>640.7</ele>
        <time>2021-09-01T14:17:51Z</time>
      </trkpt>
      <trkpt lat="44.80494" lon="5.31991">
        <ele>640.8</ele>
        <time>2021-09-01T14:17:52Z</time>
      </trkpt>
      <trkpt lat="44.80483" lon="5.32008">
        <ele>641.7</ele>
        <time>2021-09-01T14:17:54Z</time>
      </trkpt>
      <trkpt lat="44.80481" lon="5.32014">
        <ele>642</ele>
        <time>2021-09-01T14:17:55Z</time>
      </trkpt>
      <trkpt lat="44.80477" lon="5.32021">
        <ele>642.3</ele>
        <time>2021-09-01T14:17:56Z</time>
      </trkpt>
      <trkpt lat="44.80474" lon="5.32028">
        <ele>642.7</ele>
        <time>2021-09-01T14:17:58Z</time>
      </trkpt>
      <trkpt lat="44.80472" lon="5.32036">
        <ele>642.9</ele>
        <time>2021-09-01T14:17:59Z</time>
      </trkpt>
      <trkpt lat="44.80471" lon="5.32042">
        <ele>642.5</ele>
        <time>2021-09-01T14:18:00Z</time>
      </trkpt>
      <trkpt lat="44.80471" lon="5.32055">
        <ele>643.7</ele>
        <time>2021-09-01T14:18:02Z</time>
      </trkpt>
      <trkpt lat="44.80472" lon="5.32062">
        <ele>643.8</ele>
        <time>2021-09-01T14:18:03Z</time>
      </trkpt>
      <trkpt lat="44.80474" lon="5.32073">
        <ele>643.8</ele>
        <time>2021-09-01T14:18:04Z</time>
      </trkpt>
      <trkpt lat="44.80476" lon="5.3208">
        <ele>644.1</ele>
        <time>2021-09-01T14:18:06Z</time>
      </trkpt>
      <trkpt lat="44.80478" lon="5.32086">
        <ele>644.1</ele>
        <time>2021-09-01T14:18:07Z</time>
      </trkpt>
      <trkpt lat="44.80479" lon="5.3209">
        <ele>643.9</ele>
        <time>2021-09-01T14:18:08Z</time>
      </trkpt>
      <trkpt lat="44.80481" lon="5.32094">
        <ele>644.3</ele>
        <time>2021-09-01T14:18:09Z</time>
      </trkpt>
      <trkpt lat="44.80483" lon="5.32098">
        <ele>644.4</ele>
        <time>2021-09-01T14:18:10Z</time>
      </trkpt>
      <trkpt lat="44.80485" lon="5.321">
        <ele>644.1</ele>
        <time>2021-09-01T14:18:11Z</time>
      </trkpt>
      <trkpt lat="44.80488" lon="5.32103">
        <ele>644.5</ele>
        <time>2021-09-01T14:18:13Z</time>
      </trkpt>
      <trkpt lat="44.8049" lon="5.32105">
        <ele>644.4</ele>
        <time>2021-09-01T14:18:14Z</time>
      </trkpt>
      <trkpt lat="44.8049" lon="5.32104">
        <ele>644.4</ele>
        <time>2021-09-01T14:18:15Z</time>
      </trkpt>
      <trkpt lat="44.8049" lon="5.32106">
        <ele>644.4</ele>
        <time>2021-09-01T14:18:17Z</time>
      </trkpt>
      <trkpt lat="44.80491" lon="5.32108">
        <ele>644</ele>
        <time>2021-09-01T14:18:18Z</time>
      </trkpt>
      <trkpt lat="44.80491" lon="5.3211">
        <ele>644</ele>
        <time>2021-09-01T14:18:19Z</time>
      </trkpt>
      <trkpt lat="44.8049" lon="5.32112">
        <ele>643.5</ele>
        <time>2021-09-01T14:18:21Z</time>
      </trkpt>
      <trkpt lat="44.8049" lon="5.32114">
        <ele>643.5</ele>
        <time>2021-09-01T14:18:22Z</time>
      </trkpt>
      <trkpt lat="44.80488" lon="5.32116">
        <ele>643.2</ele>
        <time>2021-09-01T14:18:23Z</time>
      </trkpt>
      <trkpt lat="44.80486" lon="5.32117">
        <ele>642.7</ele>
        <time>2021-09-01T14:18:24Z</time>
      </trkpt>
      <trkpt lat="44.80437" lon="5.32137">
        <ele>631.2</ele>
        <time>2021-09-01T14:18:31Z</time>
      </trkpt>
      <trkpt lat="44.80429" lon="5.32141">
        <ele>630.3</ele>
        <time>2021-09-01T14:18:32Z</time>
      </trkpt>
      <trkpt lat="44.80421" lon="5.32144">
        <ele>628.5</ele>
        <time>2021-09-01T14:18:33Z</time>
      </trkpt>
      <trkpt lat="44.80406" lon="5.32148">
        <ele>626</ele>
        <time>2021-09-01T14:18:35Z</time>
      </trkpt>
      <trkpt lat="44.8039" lon="5.32156">
        <ele>623.2</ele>
        <time>2021-09-01T14:18:37Z</time>
      </trkpt>
      <trkpt lat="44.80374" lon="5.32164">
        <ele>620.3</ele>
        <time>2021-09-01T14:18:39Z</time>
      </trkpt>
      <trkpt lat="44.80365" lon="5.32168">
        <ele>618.8</ele>
        <time>2021-09-01T14:18:40Z</time>
      </trkpt>
      <trkpt lat="44.80357" lon="5.32172">
        <ele>617.3</ele>
        <time>2021-09-01T14:18:41Z</time>
      </trkpt>
      <trkpt lat="44.80341" lon="5.32179">
        <ele>615.6</ele>
        <time>2021-09-01T14:18:43Z</time>
      </trkpt>
      <trkpt lat="44.80335" lon="5.32181">
        <ele>614.9</ele>
        <time>2021-09-01T14:18:44Z</time>
      </trkpt>
      <trkpt lat="44.8033" lon="5.32183">
        <ele>614.5</ele>
        <time>2021-09-01T14:18:45Z</time>
      </trkpt>
      <trkpt lat="44.80323" lon="5.32187">
        <ele>613.8</ele>
        <time>2021-09-01T14:18:47Z</time>
      </trkpt>
      <trkpt lat="44.80319" lon="5.32193">
        <ele>613.3</ele>
        <time>2021-09-01T14:18:49Z</time>
      </trkpt>
      <trkpt lat="44.80317" lon="5.32196">
        <ele>612.9</ele>
        <time>2021-09-01T14:18:50Z</time>
      </trkpt>
      <trkpt lat="44.80317" lon="5.32197">
        <ele>612.9</ele>
        <time>2021-09-01T14:18:51Z</time>
      </trkpt>
      <trkpt lat="44.80317" lon="5.32198">
        <ele>612.6</ele>
        <time>2021-09-01T14:18:53Z</time>
      </trkpt>
      <trkpt lat="44.80316" lon="5.322">
        <ele>612.7</ele>
        <time>2021-09-01T14:18:56Z</time>
      </trkpt>
      <trkpt lat="44.80316" lon="5.32201">
        <ele>612.7</ele>
        <time>2021-09-01T14:18:57Z</time>
      </trkpt>
      <trkpt lat="44.80316" lon="5.32202">
        <ele>612.5</ele>
        <time>2021-09-01T14:18:59Z</time>
      </trkpt>
      <trkpt lat="44.80316" lon="5.32204">
        <ele>612.5</ele>
        <time>2021-09-01T14:19:10Z</time>
      </trkpt>
      <trkpt lat="44.80316" lon="5.32205">
        <ele>612.5</ele>
        <time>2021-09-01T14:19:12Z</time>
      </trkpt>
      <trkpt lat="44.80315" lon="5.32206">
        <ele>612.3</ele>
        <time>2021-09-01T14:19:13Z</time>
      </trkpt>
      <trkpt lat="44.80314" lon="5.32209">
        <ele>612.2</ele>
        <time>2021-09-01T14:19:14Z</time>
      </trkpt>
      <trkpt lat="44.80312" lon="5.3221">
        <ele>612.2</ele>
        <time>2021-09-01T14:19:16Z</time>
      </trkpt>
      <trkpt lat="44.80311" lon="5.32211">
        <ele>611.9</ele>
        <time>2021-09-01T14:19:17Z</time>
      </trkpt>
      <trkpt lat="44.80304" lon="5.32212">
        <ele>611.5</ele>
        <time>2021-09-01T14:19:18Z</time>
      </trkpt>
      <trkpt lat="44.8029" lon="5.3221">
        <ele>609.9</ele>
        <time>2021-09-01T14:19:20Z</time>
      </trkpt>
      <trkpt lat="44.80279" lon="5.32205">
        <ele>608.4</ele>
        <time>2021-09-01T14:19:22Z</time>
      </trkpt>
      <trkpt lat="44.80269" lon="5.32201">
        <ele>607.1</ele>
        <time>2021-09-01T14:19:24Z</time>
      </trkpt>
      <trkpt lat="44.80263" lon="5.32198">
        <ele>606.3</ele>
        <time>2021-09-01T14:19:26Z</time>
      </trkpt>
      <trkpt lat="44.8026" lon="5.32195">
        <ele>606</ele>
        <time>2021-09-01T14:19:27Z</time>
      </trkpt>
      <trkpt lat="44.80257" lon="5.32193">
        <ele>605.7</ele>
        <time>2021-09-01T14:19:28Z</time>
      </trkpt>
      <trkpt lat="44.80253" lon="5.32191">
        <ele>605.3</ele>
        <time>2021-09-01T14:19:29Z</time>
      </trkpt>
      <trkpt lat="44.80249" lon="5.32188">
        <ele>604.8</ele>
        <time>2021-09-01T14:19:30Z</time>
      </trkpt>
      <trkpt lat="44.80246" lon="5.32188">
        <ele>604.5</ele>
        <time>2021-09-01T14:19:32Z</time>
      </trkpt>
      <trkpt lat="44.80243" lon="5.32189">
        <ele>604.2</ele>
        <time>2021-09-01T14:19:33Z</time>
      </trkpt>
      <trkpt lat="44.8024" lon="5.32192">
        <ele>604.2</ele>
        <time>2021-09-01T14:19:34Z</time>
      </trkpt>
      <trkpt lat="44.80239" lon="5.32199">
        <ele>604.2</ele>
        <time>2021-09-01T14:19:36Z</time>
      </trkpt>
      <trkpt lat="44.80237" lon="5.32205">
        <ele>604.2</ele>
        <time>2021-09-01T14:19:37Z</time>
      </trkpt>
      <trkpt lat="44.80236" lon="5.3221">
        <ele>604.2</ele>
        <time>2021-09-01T14:19:39Z</time>
      </trkpt>
      <trkpt lat="44.80235" lon="5.32215">
        <ele>604.2</ele>
        <time>2021-09-01T14:19:40Z</time>
      </trkpt>
      <trkpt lat="44.80234" lon="5.3222">
        <ele>604.2</ele>
        <time>2021-09-01T14:19:41Z</time>
      </trkpt>
      <trkpt lat="44.80234" lon="5.32224">
        <ele>604.1</ele>
        <time>2021-09-01T14:19:42Z</time>
      </trkpt>
      <trkpt lat="44.80234" lon="5.32229">
        <ele>604.1</ele>
        <time>2021-09-01T14:19:43Z</time>
      </trkpt>
      <trkpt lat="44.80234" lon="5.32234">
        <ele>604.1</ele>
        <time>2021-09-01T14:19:44Z</time>
      </trkpt>
      <trkpt lat="44.80236" lon="5.3224">
        <ele>604.1</ele>
        <time>2021-09-01T14:19:45Z</time>
      </trkpt>
      <trkpt lat="44.80237" lon="5.32247">
        <ele>604</ele>
        <time>2021-09-01T14:19:47Z</time>
      </trkpt>
      <trkpt lat="44.8024" lon="5.32254">
        <ele>603.9</ele>
        <time>2021-09-01T14:19:48Z</time>
      </trkpt>
      <trkpt lat="44.80243" lon="5.32259">
        <ele>604.5</ele>
        <time>2021-09-01T14:19:49Z</time>
      </trkpt>
      <trkpt lat="44.80246" lon="5.32263">
        <ele>604.9</ele>
        <time>2021-09-01T14:19:51Z</time>
      </trkpt>
      <trkpt lat="44.80249" lon="5.32267">
        <ele>605.2</ele>
        <time>2021-09-01T14:19:52Z</time>
      </trkpt>
      <trkpt lat="44.80253" lon="5.3227">
        <ele>605.5</ele>
        <time>2021-09-01T14:19:54Z</time>
      </trkpt>
      <trkpt lat="44.80254" lon="5.32272">
        <ele>605.7</ele>
        <time>2021-09-01T14:19:55Z</time>
      </trkpt>
      <trkpt lat="44.80257" lon="5.32276">
        <ele>606</ele>
        <time>2021-09-01T14:19:57Z</time>
      </trkpt>
      <trkpt lat="44.80258" lon="5.32278">
        <ele>606.2</ele>
        <time>2021-09-01T14:19:58Z</time>
      </trkpt>
      <trkpt lat="44.80259" lon="5.32279">
        <ele>606.3</ele>
        <time>2021-09-01T14:19:59Z</time>
      </trkpt>
      <trkpt lat="44.80259" lon="5.32279">
        <ele>606.3</ele>
        <time>2021-09-01T14:20:00Z</time>
      </trkpt>
      <trkpt lat="44.80259" lon="5.32279">
        <ele>606.3</ele>
        <time>2021-09-01T14:20:02Z</time>
      </trkpt>
      <trkpt lat="44.80259" lon="5.32279">
        <ele>606.3</ele>
        <time>2021-09-01T14:20:04Z</time>
      </trkpt>
      <trkpt lat="44.80259" lon="5.32279">
        <ele>606.3</ele>
        <time>2021-09-01T14:20:06Z</time>
      </trkpt>
      <trkpt lat="44.80258" lon="5.32279">
        <ele>606.4</ele>
        <time>2021-09-01T14:20:07Z</time>
      </trkpt>
      <trkpt lat="44.80269" lon="5.32299">
        <ele>607.9</ele>
        <time>2021-09-01T14:20:54Z</time>
      </trkpt>
      <trkpt lat="44.80268" lon="5.32305">
        <ele>608.2</ele>
        <time>2021-09-01T14:20:56Z</time>
      </trkpt>
      <trkpt lat="44.80268" lon="5.32309">
        <ele>608.7</ele>
        <time>2021-09-01T14:20:57Z</time>
      </trkpt>
      <trkpt lat="44.80268" lon="5.32318">
        <ele>609.1</ele>
        <time>2021-09-01T14:20:58Z</time>
      </trkpt>
      <trkpt lat="44.80267" lon="5.32323">
        <ele>609.4</ele>
        <time>2021-09-01T14:21:00Z</time>
      </trkpt>
      <trkpt lat="44.80266" lon="5.3233">
        <ele>609.7</ele>
        <time>2021-09-01T14:21:02Z</time>
      </trkpt>
      <trkpt lat="44.80263" lon="5.32336">
        <ele>610</ele>
        <time>2021-09-01T14:21:03Z</time>
      </trkpt>
      <trkpt lat="44.80262" lon="5.32341">
        <ele>610.2</ele>
        <time>2021-09-01T14:21:05Z</time>
      </trkpt>
      <trkpt lat="44.80261" lon="5.32346">
        <ele>610.4</ele>
        <time>2021-09-01T14:21:07Z</time>
      </trkpt>
      <trkpt lat="44.8026" lon="5.32352">
        <ele>610.6</ele>
        <time>2021-09-01T14:21:08Z</time>
      </trkpt>
      <trkpt lat="44.80259" lon="5.32353">
        <ele>610.7</ele>
        <time>2021-09-01T14:21:09Z</time>
      </trkpt>
      <trkpt lat="44.80258" lon="5.32358">
        <ele>610.9</ele>
        <time>2021-09-01T14:21:11Z</time>
      </trkpt>
      <trkpt lat="44.80256" lon="5.32361">
        <ele>611</ele>
        <time>2021-09-01T14:21:12Z</time>
      </trkpt>
      <trkpt lat="44.80254" lon="5.32366">
        <ele>611.2</ele>
        <time>2021-09-01T14:21:13Z</time>
      </trkpt>
      <trkpt lat="44.80253" lon="5.32368">
        <ele>611.3</ele>
        <time>2021-09-01T14:21:14Z</time>
      </trkpt>
      <trkpt lat="44.80249" lon="5.32374">
        <ele>611.6</ele>
        <time>2021-09-01T14:21:16Z</time>
      </trkpt>
      <trkpt lat="44.80248" lon="5.32377">
        <ele>611.7</ele>
        <time>2021-09-01T14:21:17Z</time>
      </trkpt>
      <trkpt lat="44.80247" lon="5.32379">
        <ele>611.8</ele>
        <time>2021-09-01T14:21:18Z</time>
      </trkpt>
      <trkpt lat="44.80247" lon="5.32384">
        <ele>612</ele>
        <time>2021-09-01T14:21:20Z</time>
      </trkpt>
      <trkpt lat="44.80246" lon="5.32386">
        <ele>612.1</ele>
        <time>2021-09-01T14:21:21Z</time>
      </trkpt>
      <trkpt lat="44.80246" lon="5.32391">
        <ele>612.3</ele>
        <time>2021-09-01T14:21:22Z</time>
      </trkpt>
      <trkpt lat="44.80244" lon="5.32398">
        <ele>612.5</ele>
        <time>2021-09-01T14:21:24Z</time>
      </trkpt>
      <trkpt lat="44.80244" lon="5.32401">
        <ele>612.6</ele>
        <time>2021-09-01T14:21:25Z</time>
      </trkpt>
      <trkpt lat="44.80243" lon="5.32403">
        <ele>612.7</ele>
        <time>2021-09-01T14:21:26Z</time>
      </trkpt>
      <trkpt lat="44.80242" lon="5.32409">
        <ele>612.9</ele>
        <time>2021-09-01T14:21:28Z</time>
      </trkpt>
      <trkpt lat="44.80241" lon="5.32413">
        <ele>613.1</ele>
        <time>2021-09-01T14:21:29Z</time>
      </trkpt>
      <trkpt lat="44.80241" lon="5.32417">
        <ele>613.2</ele>
        <time>2021-09-01T14:21:30Z</time>
      </trkpt>
      <trkpt lat="44.8024" lon="5.32423">
        <ele>613.4</ele>
        <time>2021-09-01T14:21:31Z</time>
      </trkpt>
      <trkpt lat="44.8024" lon="5.32425">
        <ele>613.5</ele>
        <time>2021-09-01T14:21:32Z</time>
      </trkpt>
      <trkpt lat="44.8024" lon="5.32433">
        <ele>613.8</ele>
        <time>2021-09-01T14:21:34Z</time>
      </trkpt>
      <trkpt lat="44.80239" lon="5.3244">
        <ele>614</ele>
        <time>2021-09-01T14:21:35Z</time>
      </trkpt>
      <trkpt lat="44.80238" lon="5.32445">
        <ele>614.2</ele>
        <time>2021-09-01T14:21:37Z</time>
      </trkpt>
      <trkpt lat="44.80238" lon="5.32449">
        <ele>614.4</ele>
        <time>2021-09-01T14:21:38Z</time>
      </trkpt>
      <trkpt lat="44.80238" lon="5.32456">
        <ele>614.6</ele>
        <time>2021-09-01T14:21:40Z</time>
      </trkpt>
      <trkpt lat="44.80238" lon="5.3246">
        <ele>614.8</ele>
        <time>2021-09-01T14:21:41Z</time>
      </trkpt>
      <trkpt lat="44.80238" lon="5.32464">
        <ele>614.9</ele>
        <time>2021-09-01T14:21:42Z</time>
      </trkpt>
      <trkpt lat="44.8024" lon="5.32468">
        <ele>615.1</ele>
        <time>2021-09-01T14:21:43Z</time>
      </trkpt>
      <trkpt lat="44.80243" lon="5.32477">
        <ele>615.4</ele>
        <time>2021-09-01T14:21:45Z</time>
      </trkpt>
      <trkpt lat="44.80245" lon="5.32484">
        <ele>615.6</ele>
        <time>2021-09-01T14:21:47Z</time>
      </trkpt>
      <trkpt lat="44.80247" lon="5.32488">
        <ele>615.8</ele>
        <time>2021-09-01T14:21:48Z</time>
      </trkpt>
      <trkpt lat="44.80249" lon="5.32491">
        <ele>615.9</ele>
        <time>2021-09-01T14:21:49Z</time>
      </trkpt>
      <trkpt lat="44.80252" lon="5.32497">
        <ele>616.1</ele>
        <time>2021-09-01T14:21:51Z</time>
      </trkpt>
      <trkpt lat="44.80254" lon="5.32501">
        <ele>616.2</ele>
        <time>2021-09-01T14:21:52Z</time>
      </trkpt>
      <trkpt lat="44.80256" lon="5.32505">
        <ele>616.3</ele>
        <time>2021-09-01T14:21:53Z</time>
      </trkpt>
      <trkpt lat="44.80259" lon="5.32511">
        <ele>616.5</ele>
        <time>2021-09-01T14:21:54Z</time>
      </trkpt>
      <trkpt lat="44.8026" lon="5.32516">
        <ele>616.6</ele>
        <time>2021-09-01T14:21:56Z</time>
      </trkpt>
      <trkpt lat="44.80262" lon="5.32521">
        <ele>616.7</ele>
        <time>2021-09-01T14:21:57Z</time>
      </trkpt>
      <trkpt lat="44.80264" lon="5.32528">
        <ele>616.9</ele>
        <time>2021-09-01T14:21:58Z</time>
      </trkpt>
      <trkpt lat="44.80266" lon="5.32535">
        <ele>617.1</ele>
        <time>2021-09-01T14:22:00Z</time>
      </trkpt>
      <trkpt lat="44.80266" lon="5.3254">
        <ele>617.2</ele>
        <time>2021-09-01T14:22:01Z</time>
      </trkpt>
      <trkpt lat="44.80265" lon="5.32546">
        <ele>617.3</ele>
        <time>2021-09-01T14:22:02Z</time>
      </trkpt>
      <trkpt lat="44.80262" lon="5.32552">
        <ele>617.4</ele>
        <time>2021-09-01T14:22:04Z</time>
      </trkpt>
      <trkpt lat="44.80259" lon="5.32559">
        <ele>617.6</ele>
        <time>2021-09-01T14:22:05Z</time>
      </trkpt>
      <trkpt lat="44.80256" lon="5.32563">
        <ele>617.8</ele>
        <time>2021-09-01T14:22:06Z</time>
      </trkpt>
      <trkpt lat="44.80254" lon="5.32569">
        <ele>617.9</ele>
        <time>2021-09-01T14:22:08Z</time>
      </trkpt>
      <trkpt lat="44.80252" lon="5.32573">
        <ele>618</ele>
        <time>2021-09-01T14:22:09Z</time>
      </trkpt>
      <trkpt lat="44.8025" lon="5.32582">
        <ele>618.3</ele>
        <time>2021-09-01T14:22:11Z</time>
      </trkpt>
      <trkpt lat="44.80248" lon="5.32589">
        <ele>618.5</ele>
        <time>2021-09-01T14:22:13Z</time>
      </trkpt>
      <trkpt lat="44.80247" lon="5.32595">
        <ele>618.6</ele>
        <time>2021-09-01T14:22:14Z</time>
      </trkpt>
      <trkpt lat="44.80247" lon="5.32602">
        <ele>618.7</ele>
        <time>2021-09-01T14:22:15Z</time>
      </trkpt>
      <trkpt lat="44.80247" lon="5.32607">
        <ele>618.8</ele>
        <time>2021-09-01T14:22:16Z</time>
      </trkpt>
      <trkpt lat="44.80248" lon="5.32613">
        <ele>618.9</ele>
        <time>2021-09-01T14:22:18Z</time>
      </trkpt>
      <trkpt lat="44.80249" lon="5.32622">
        <ele>619</ele>
        <time>2021-09-01T14:22:19Z</time>
      </trkpt>
      <trkpt lat="44.80249" lon="5.32629">
        <ele>619.1</ele>
        <time>2021-09-01T14:22:21Z</time>
      </trkpt>
      <trkpt lat="44.8025" lon="5.32634">
        <ele>619.2</ele>
        <time>2021-09-01T14:22:22Z</time>
      </trkpt>
      <trkpt lat="44.8025" lon="5.32641">
        <ele>619.2</ele>
        <time>2021-09-01T14:22:23Z</time>
      </trkpt>
      <trkpt lat="44.8025" lon="5.32648">
        <ele>619.3</ele>
        <time>2021-09-01T14:22:25Z</time>
      </trkpt>
      <trkpt lat="44.8025" lon="5.32655">
        <ele>619.3</ele>
        <time>2021-09-01T14:22:26Z</time>
      </trkpt>
      <trkpt lat="44.8025" lon="5.32661">
        <ele>619.4</ele>
        <time>2021-09-01T14:22:28Z</time>
      </trkpt>
      <trkpt lat="44.8025" lon="5.32667">
        <ele>619.4</ele>
        <time>2021-09-01T14:22:29Z</time>
      </trkpt>
      <trkpt lat="44.8025" lon="5.32672">
        <ele>619.5</ele>
        <time>2021-09-01T14:22:30Z</time>
      </trkpt>
      <trkpt lat="44.80249" lon="5.32677">
        <ele>619.5</ele>
        <time>2021-09-01T14:22:31Z</time>
      </trkpt>
      <trkpt lat="44.80248" lon="5.32687">
        <ele>619.6</ele>
        <time>2021-09-01T14:22:33Z</time>
      </trkpt>
      <trkpt lat="44.80247" lon="5.32693">
        <ele>619.7</ele>
        <time>2021-09-01T14:22:34Z</time>
      </trkpt>
      <trkpt lat="44.80245" lon="5.32698">
        <ele>619.7</ele>
        <time>2021-09-01T14:22:35Z</time>
      </trkpt>
      <trkpt lat="44.80244" lon="5.32702">
        <ele>619.8</ele>
        <time>2021-09-01T14:22:36Z</time>
      </trkpt>
      <trkpt lat="44.80241" lon="5.3271">
        <ele>619.9</ele>
        <time>2021-09-01T14:22:37Z</time>
      </trkpt>
      <trkpt lat="44.80239" lon="5.32716">
        <ele>620</ele>
        <time>2021-09-01T14:22:39Z</time>
      </trkpt>
      <trkpt lat="44.80237" lon="5.32724">
        <ele>620.1</ele>
        <time>2021-09-01T14:22:41Z</time>
      </trkpt>
      <trkpt lat="44.80235" lon="5.3273">
        <ele>620.2</ele>
        <time>2021-09-01T14:22:42Z</time>
      </trkpt>
      <trkpt lat="44.80234" lon="5.32736">
        <ele>620.3</ele>
        <time>2021-09-01T14:22:43Z</time>
      </trkpt>
      <trkpt lat="44.80233" lon="5.32741">
        <ele>620.4</ele>
        <time>2021-09-01T14:22:44Z</time>
      </trkpt>
      <trkpt lat="44.80232" lon="5.3275">
        <ele>620.6</ele>
        <time>2021-09-01T14:22:45Z</time>
      </trkpt>
      <trkpt lat="44.80232" lon="5.32758">
        <ele>620.8</ele>
        <time>2021-09-01T14:22:47Z</time>
      </trkpt>
      <trkpt lat="44.80232" lon="5.32764">
        <ele>620.9</ele>
        <time>2021-09-01T14:22:48Z</time>
      </trkpt>
      <trkpt lat="44.80231" lon="5.32769">
        <ele>621</ele>
        <time>2021-09-01T14:22:49Z</time>
      </trkpt>
      <trkpt lat="44.8023" lon="5.32778">
        <ele>621.2</ele>
        <time>2021-09-01T14:22:50Z</time>
      </trkpt>
      <trkpt lat="44.8023" lon="5.32786">
        <ele>621.5</ele>
        <time>2021-09-01T14:22:52Z</time>
      </trkpt>
      <trkpt lat="44.80228" lon="5.32797">
        <ele>621.7</ele>
        <time>2021-09-01T14:22:54Z</time>
      </trkpt>
      <trkpt lat="44.80227" lon="5.32802">
        <ele>621.9</ele>
        <time>2021-09-01T14:22:55Z</time>
      </trkpt>
      <trkpt lat="44.80225" lon="5.32806">
        <ele>622</ele>
        <time>2021-09-01T14:22:56Z</time>
      </trkpt>
      <trkpt lat="44.80222" lon="5.32813">
        <ele>622.2</ele>
        <time>2021-09-01T14:22:57Z</time>
      </trkpt>
      <trkpt lat="44.8022" lon="5.32817">
        <ele>622.3</ele>
        <time>2021-09-01T14:22:58Z</time>
      </trkpt>
      <trkpt lat="44.80218" lon="5.32824">
        <ele>622.4</ele>
        <time>2021-09-01T14:23:00Z</time>
      </trkpt>
      <trkpt lat="44.80216" lon="5.32828">
        <ele>622.6</ele>
        <time>2021-09-01T14:23:01Z</time>
      </trkpt>
      <trkpt lat="44.80214" lon="5.32833">
        <ele>622.7</ele>
        <time>2021-09-01T14:23:02Z</time>
      </trkpt>
      <trkpt lat="44.8021" lon="5.32842">
        <ele>622.9</ele>
        <time>2021-09-01T14:23:04Z</time>
      </trkpt>
      <trkpt lat="44.80208" lon="5.32848">
        <ele>623.1</ele>
        <time>2021-09-01T14:23:05Z</time>
      </trkpt>
      <trkpt lat="44.80205" lon="5.32857">
        <ele>623.3</ele>
        <time>2021-09-01T14:23:06Z</time>
      </trkpt>
      <trkpt lat="44.80203" lon="5.32864">
        <ele>623.5</ele>
        <time>2021-09-01T14:23:08Z</time>
      </trkpt>
      <trkpt lat="44.80201" lon="5.32868">
        <ele>623.6</ele>
        <time>2021-09-01T14:23:09Z</time>
      </trkpt>
      <trkpt lat="44.80199" lon="5.32873">
        <ele>623.8</ele>
        <time>2021-09-01T14:23:10Z</time>
      </trkpt>
      <trkpt lat="44.80197" lon="5.32878">
        <ele>623.9</ele>
        <time>2021-09-01T14:23:11Z</time>
      </trkpt>
      <trkpt lat="44.80194" lon="5.32887">
        <ele>624.1</ele>
        <time>2021-09-01T14:23:12Z</time>
      </trkpt>
      <trkpt lat="44.80192" lon="5.32894">
        <ele>624.3</ele>
        <time>2021-09-01T14:23:14Z</time>
      </trkpt>
      <trkpt lat="44.8019" lon="5.32899">
        <ele>624.5</ele>
        <time>2021-09-01T14:23:15Z</time>
      </trkpt>
      <trkpt lat="44.80188" lon="5.32904">
        <ele>624.6</ele>
        <time>2021-09-01T14:23:16Z</time>
      </trkpt>
      <trkpt lat="44.80187" lon="5.32909">
        <ele>624.7</ele>
        <time>2021-09-01T14:23:17Z</time>
      </trkpt>
      <trkpt lat="44.80186" lon="5.32914">
        <ele>624.9</ele>
        <time>2021-09-01T14:23:18Z</time>
      </trkpt>
      <trkpt lat="44.80185" lon="5.32919">
        <ele>625</ele>
        <time>2021-09-01T14:23:19Z</time>
      </trkpt>
      <trkpt lat="44.80183" lon="5.32924">
        <ele>625.2</ele>
        <time>2021-09-01T14:23:20Z</time>
      </trkpt>
      <trkpt lat="44.80181" lon="5.32933">
        <ele>625.5</ele>
        <time>2021-09-01T14:23:22Z</time>
      </trkpt>
      <trkpt lat="44.80179" lon="5.32942">
        <ele>625.7</ele>
        <time>2021-09-01T14:23:24Z</time>
      </trkpt>
      <trkpt lat="44.80178" lon="5.32947">
        <ele>625.9</ele>
        <time>2021-09-01T14:23:25Z</time>
      </trkpt>
      <trkpt lat="44.80177" lon="5.32952">
        <ele>626</ele>
        <time>2021-09-01T14:23:26Z</time>
      </trkpt>
      <trkpt lat="44.80176" lon="5.32957">
        <ele>626.2</ele>
        <time>2021-09-01T14:23:27Z</time>
      </trkpt>
      <trkpt lat="44.80175" lon="5.32965">
        <ele>626.4</ele>
        <time>2021-09-01T14:23:28Z</time>
      </trkpt>
      <trkpt lat="44.80174" lon="5.32971">
        <ele>626.6</ele>
        <time>2021-09-01T14:23:30Z</time>
      </trkpt>
      <trkpt lat="44.80173" lon="5.32977">
        <ele>626.7</ele>
        <time>2021-09-01T14:23:31Z</time>
      </trkpt>
      <trkpt lat="44.80172" lon="5.32985">
        <ele>627</ele>
        <time>2021-09-01T14:23:33Z</time>
      </trkpt>
      <trkpt lat="44.80171" lon="5.32989">
        <ele>627.1</ele>
        <time>2021-09-01T14:23:34Z</time>
      </trkpt>
      <trkpt lat="44.8017" lon="5.32998">
        <ele>627.3</ele>
        <time>2021-09-01T14:23:36Z</time>
      </trkpt>
      <trkpt lat="44.80171" lon="5.33008">
        <ele>627.5</ele>
        <time>2021-09-01T14:23:38Z</time>
      </trkpt>
      <trkpt lat="44.80171" lon="5.33018">
        <ele>627.7</ele>
        <time>2021-09-01T14:23:40Z</time>
      </trkpt>
      <trkpt lat="44.80173" lon="5.33026">
        <ele>627.8</ele>
        <time>2021-09-01T14:23:42Z</time>
      </trkpt>
      <trkpt lat="44.80175" lon="5.3303">
        <ele>627.9</ele>
        <time>2021-09-01T14:23:43Z</time>
      </trkpt>
      <trkpt lat="44.80177" lon="5.33035">
        <ele>627.9</ele>
        <time>2021-09-01T14:23:44Z</time>
      </trkpt>
      <trkpt lat="44.80181" lon="5.33041">
        <ele>628</ele>
        <time>2021-09-01T14:23:45Z</time>
      </trkpt>
      <trkpt lat="44.80184" lon="5.33044">
        <ele>628</ele>
        <time>2021-09-01T14:23:46Z</time>
      </trkpt>
      <trkpt lat="44.80189" lon="5.33049">
        <ele>628</ele>
        <time>2021-09-01T14:23:48Z</time>
      </trkpt>
      <trkpt lat="44.80193" lon="5.33052">
        <ele>628</ele>
        <time>2021-09-01T14:23:49Z</time>
      </trkpt>
      <trkpt lat="44.80197" lon="5.33054">
        <ele>628</ele>
        <time>2021-09-01T14:23:51Z</time>
      </trkpt>
      <trkpt lat="44.802" lon="5.33056">
        <ele>628</ele>
        <time>2021-09-01T14:23:52Z</time>
      </trkpt>
      <trkpt lat="44.80203" lon="5.33057">
        <ele>627.9</ele>
        <time>2021-09-01T14:23:53Z</time>
      </trkpt>
      <trkpt lat="44.80208" lon="5.33059">
        <ele>627.9</ele>
        <time>2021-09-01T14:23:54Z</time>
      </trkpt>
      <trkpt lat="44.80218" lon="5.33061">
        <ele>627.8</ele>
        <time>2021-09-01T14:23:56Z</time>
      </trkpt>
      <trkpt lat="44.80223" lon="5.33061">
        <ele>627.7</ele>
        <time>2021-09-01T14:23:57Z</time>
      </trkpt>
      <trkpt lat="44.80235" lon="5.33063">
        <ele>627.5</ele>
        <time>2021-09-01T14:23:59Z</time>
      </trkpt>
      <trkpt lat="44.80248" lon="5.33065">
        <ele>627.3</ele>
        <time>2021-09-01T14:24:01Z</time>
      </trkpt>
      <trkpt lat="44.80254" lon="5.33067">
        <ele>627.2</ele>
        <time>2021-09-01T14:24:02Z</time>
      </trkpt>
      <trkpt lat="44.8026" lon="5.33068">
        <ele>627.1</ele>
        <time>2021-09-01T14:24:03Z</time>
      </trkpt>
      <trkpt lat="44.80273" lon="5.3307">
        <ele>627</ele>
        <time>2021-09-01T14:24:05Z</time>
      </trkpt>
      <trkpt lat="44.80285" lon="5.33072">
        <ele>626.8</ele>
        <time>2021-09-01T14:24:07Z</time>
      </trkpt>
      <trkpt lat="44.80298" lon="5.33073">
        <ele>626.7</ele>
        <time>2021-09-01T14:24:09Z</time>
      </trkpt>
      <trkpt lat="44.80304" lon="5.33074">
        <ele>626.7</ele>
        <time>2021-09-01T14:24:10Z</time>
      </trkpt>
      <trkpt lat="44.80311" lon="5.33075">
        <ele>626.6</ele>
        <time>2021-09-01T14:24:11Z</time>
      </trkpt>
      <trkpt lat="44.80317" lon="5.33075">
        <ele>626.6</ele>
        <time>2021-09-01T14:24:12Z</time>
      </trkpt>
      <trkpt lat="44.8033" lon="5.33078">
        <ele>626.4</ele>
        <time>2021-09-01T14:24:14Z</time>
      </trkpt>
      <trkpt lat="44.80336" lon="5.3308">
        <ele>626.3</ele>
        <time>2021-09-01T14:24:15Z</time>
      </trkpt>
      <trkpt lat="44.80342" lon="5.33082">
        <ele>626.2</ele>
        <time>2021-09-01T14:24:16Z</time>
      </trkpt>
      <trkpt lat="44.80354" lon="5.33089">
        <ele>626.1</ele>
        <time>2021-09-01T14:24:18Z</time>
      </trkpt>
      <trkpt lat="44.8036" lon="5.33093">
        <ele>626</ele>
        <time>2021-09-01T14:24:19Z</time>
      </trkpt>
      <trkpt lat="44.80372" lon="5.33101">
        <ele>625.9</ele>
        <time>2021-09-01T14:24:21Z</time>
      </trkpt>
      <trkpt lat="44.80378" lon="5.33106">
        <ele>625.9</ele>
        <time>2021-09-01T14:24:22Z</time>
      </trkpt>
      <trkpt lat="44.80384" lon="5.33111">
        <ele>625.8</ele>
        <time>2021-09-01T14:24:23Z</time>
      </trkpt>
      <trkpt lat="44.80395" lon="5.33122">
        <ele>625.7</ele>
        <time>2021-09-01T14:24:25Z</time>
      </trkpt>
      <trkpt lat="44.804" lon="5.33128">
        <ele>625.7</ele>
        <time>2021-09-01T14:24:26Z</time>
      </trkpt>
      <trkpt lat="44.80409" lon="5.33143">
        <ele>625.6</ele>
        <time>2021-09-01T14:24:28Z</time>
      </trkpt>
      <trkpt lat="44.80415" lon="5.33159">
        <ele>625.5</ele>
        <time>2021-09-01T14:24:30Z</time>
      </trkpt>
      <trkpt lat="44.80419" lon="5.33177">
        <ele>625.5</ele>
        <time>2021-09-01T14:24:32Z</time>
      </trkpt>
      <trkpt lat="44.80421" lon="5.33194">
        <ele>625.5</ele>
        <time>2021-09-01T14:24:34Z</time>
      </trkpt>
      <trkpt lat="44.80418" lon="5.3321">
        <ele>625.4</ele>
        <time>2021-09-01T14:24:36Z</time>
      </trkpt>
      <trkpt lat="44.80415" lon="5.33217">
        <ele>625.3</ele>
        <time>2021-09-01T14:24:37Z</time>
      </trkpt>
      <trkpt lat="44.80407" lon="5.3323">
        <ele>625.2</ele>
        <time>2021-09-01T14:24:39Z</time>
      </trkpt>
      <trkpt lat="44.80402" lon="5.33235">
        <ele>625.2</ele>
        <time>2021-09-01T14:24:40Z</time>
      </trkpt>
      <trkpt lat="44.80395" lon="5.3324">
        <ele>625.1</ele>
        <time>2021-09-01T14:24:41Z</time>
      </trkpt>
      <trkpt lat="44.80383" lon="5.33249">
        <ele>625.1</ele>
        <time>2021-09-01T14:24:43Z</time>
      </trkpt>
      <trkpt lat="44.80377" lon="5.33253">
        <ele>625.1</ele>
        <time>2021-09-01T14:24:44Z</time>
      </trkpt>
      <trkpt lat="44.8037" lon="5.33258">
        <ele>625.1</ele>
        <time>2021-09-01T14:24:45Z</time>
      </trkpt>
      <trkpt lat="44.80363" lon="5.33262">
        <ele>625.1</ele>
        <time>2021-09-01T14:24:46Z</time>
      </trkpt>
      <trkpt lat="44.80357" lon="5.33265">
        <ele>625.1</ele>
        <time>2021-09-01T14:24:47Z</time>
      </trkpt>
      <trkpt lat="44.80345" lon="5.33271">
        <ele>625.2</ele>
        <time>2021-09-01T14:24:49Z</time>
      </trkpt>
      <trkpt lat="44.80339" lon="5.33274">
        <ele>625.2</ele>
        <time>2021-09-01T14:24:50Z</time>
      </trkpt>
      <trkpt lat="44.80329" lon="5.3328">
        <ele>625.2</ele>
        <time>2021-09-01T14:24:52Z</time>
      </trkpt>
      <trkpt lat="44.80324" lon="5.33282">
        <ele>625.3</ele>
        <time>2021-09-01T14:24:53Z</time>
      </trkpt>
      <trkpt lat="44.80316" lon="5.33286">
        <ele>625.3</ele>
        <time>2021-09-01T14:24:55Z</time>
      </trkpt>
      <trkpt lat="44.80306" lon="5.33291">
        <ele>625.3</ele>
        <time>2021-09-01T14:24:57Z</time>
      </trkpt>
      <trkpt lat="44.80302" lon="5.33294">
        <ele>625.3</ele>
        <time>2021-09-01T14:24:58Z</time>
      </trkpt>
      <trkpt lat="44.80297" lon="5.33298">
        <ele>625.3</ele>
        <time>2021-09-01T14:24:59Z</time>
      </trkpt>
      <trkpt lat="44.80291" lon="5.33294">
        <ele>625.4</ele>
        <time>2021-09-01T14:25:00Z</time>
      </trkpt>
      <trkpt lat="44.80287" lon="5.33294">
        <ele>625.4</ele>
        <time>2021-09-01T14:25:02Z</time>
      </trkpt>
      <trkpt lat="44.8028" lon="5.33303">
        <ele>625.4</ele>
        <time>2021-09-01T14:25:04Z</time>
      </trkpt>
      <trkpt lat="44.80276" lon="5.33307">
        <ele>625.3</ele>
        <time>2021-09-01T14:25:05Z</time>
      </trkpt>
      <trkpt lat="44.80272" lon="5.33313">
        <ele>625.2</ele>
        <time>2021-09-01T14:25:06Z</time>
      </trkpt>
      <trkpt lat="44.80268" lon="5.33318">
        <ele>625.1</ele>
        <time>2021-09-01T14:25:07Z</time>
      </trkpt>
      <trkpt lat="44.80264" lon="5.33322">
        <ele>625</ele>
        <time>2021-09-01T14:25:08Z</time>
      </trkpt>
      <trkpt lat="44.8026" lon="5.33326">
        <ele>624.9</ele>
        <time>2021-09-01T14:25:10Z</time>
      </trkpt>
      <trkpt lat="44.80257" lon="5.33329">
        <ele>624.8</ele>
        <time>2021-09-01T14:25:11Z</time>
      </trkpt>
      <trkpt lat="44.80255" lon="5.33332">
        <ele>624.8</ele>
        <time>2021-09-01T14:25:12Z</time>
      </trkpt>
      <trkpt lat="44.80253" lon="5.33335">
        <ele>624.8</ele>
        <time>2021-09-01T14:25:13Z</time>
      </trkpt>
      <trkpt lat="44.80252" lon="5.33339">
        <ele>624.5</ele>
        <time>2021-09-01T14:25:15Z</time>
      </trkpt>
      <trkpt lat="44.8025" lon="5.3334">
        <ele>624.5</ele>
        <time>2021-09-01T14:25:16Z</time>
      </trkpt>
      <trkpt lat="44.80249" lon="5.3334">
        <ele>624.5</ele>
        <time>2021-09-01T14:25:18Z</time>
      </trkpt>
      <trkpt lat="44.80247" lon="5.33339">
        <ele>624.5</ele>
        <time>2021-09-01T14:25:19Z</time>
      </trkpt>
      <trkpt lat="44.80245" lon="5.33339">
        <ele>624.4</ele>
        <time>2021-09-01T14:25:20Z</time>
      </trkpt>
      <trkpt lat="44.80243" lon="5.33338">
        <ele>624.3</ele>
        <time>2021-09-01T14:25:22Z</time>
      </trkpt>
      <trkpt lat="44.80242" lon="5.33338">
        <ele>624.2</ele>
        <time>2021-09-01T14:25:23Z</time>
      </trkpt>
      <trkpt lat="44.8024" lon="5.33337">
        <ele>624</ele>
        <time>2021-09-01T14:25:24Z</time>
      </trkpt>
      <trkpt lat="44.80238" lon="5.33337">
        <ele>623.9</ele>
        <time>2021-09-01T14:25:26Z</time>
      </trkpt>
      <trkpt lat="44.80236" lon="5.33336">
        <ele>623.8</ele>
        <time>2021-09-01T14:25:28Z</time>
      </trkpt>
      <trkpt lat="44.80235" lon="5.33336">
        <ele>623.7</ele>
        <time>2021-09-01T14:30:14Z</time>
      </trkpt>
      <trkpt lat="44.80233" lon="5.33335">
        <ele>623.5</ele>
        <time>2021-09-01T14:30:15Z</time>
      </trkpt>
      <trkpt lat="44.80224" lon="5.33336">
        <ele>622.3</ele>
        <time>2021-09-01T14:30:17Z</time>
      </trkpt>
      <trkpt lat="44.80212" lon="5.33337">
        <ele>620.9</ele>
        <time>2021-09-01T14:30:18Z</time>
      </trkpt>
      <trkpt lat="44.80205" lon="5.33338">
        <ele>620.4</ele>
        <time>2021-09-01T14:30:20Z</time>
      </trkpt>
      <trkpt lat="44.80198" lon="5.33338">
        <ele>619.8</ele>
        <time>2021-09-01T14:30:21Z</time>
      </trkpt>
      <trkpt lat="44.80184" lon="5.33342">
        <ele>618.5</ele>
        <time>2021-09-01T14:30:23Z</time>
      </trkpt>
      <trkpt lat="44.80171" lon="5.33348">
        <ele>617.3</ele>
        <time>2021-09-01T14:30:25Z</time>
      </trkpt>
      <trkpt lat="44.80157" lon="5.33355">
        <ele>616</ele>
        <time>2021-09-01T14:30:27Z</time>
      </trkpt>
      <trkpt lat="44.80142" lon="5.3336">
        <ele>614.6</ele>
        <time>2021-09-01T14:30:29Z</time>
      </trkpt>
      <trkpt lat="44.80127" lon="5.33364">
        <ele>613.6</ele>
        <time>2021-09-01T14:30:31Z</time>
      </trkpt>
      <trkpt lat="44.80111" lon="5.33369">
        <ele>613.1</ele>
        <time>2021-09-01T14:30:33Z</time>
      </trkpt>
      <trkpt lat="44.80103" lon="5.33371">
        <ele>612.6</ele>
        <time>2021-09-01T14:30:34Z</time>
      </trkpt>
      <trkpt lat="44.80094" lon="5.33373">
        <ele>611.9</ele>
        <time>2021-09-01T14:30:35Z</time>
      </trkpt>
      <trkpt lat="44.80077" lon="5.33376">
        <ele>610.7</ele>
        <time>2021-09-01T14:30:37Z</time>
      </trkpt>
      <trkpt lat="44.80059" lon="5.33379">
        <ele>609.5</ele>
        <time>2021-09-01T14:30:39Z</time>
      </trkpt>
      <trkpt lat="44.80051" lon="5.33381">
        <ele>608.9</ele>
        <time>2021-09-01T14:30:40Z</time>
      </trkpt>
      <trkpt lat="44.80034" lon="5.33384">
        <ele>607.9</ele>
        <time>2021-09-01T14:30:42Z</time>
      </trkpt>
      <trkpt lat="44.80017" lon="5.33387">
        <ele>607</ele>
        <time>2021-09-01T14:30:44Z</time>
      </trkpt>
      <trkpt lat="44.80001" lon="5.3339">
        <ele>606</ele>
        <time>2021-09-01T14:30:46Z</time>
      </trkpt>
      <trkpt lat="44.79993" lon="5.33392">
        <ele>605.5</ele>
        <time>2021-09-01T14:30:47Z</time>
      </trkpt>
      <trkpt lat="44.79976" lon="5.33394">
        <ele>604.6</ele>
        <time>2021-09-01T14:30:49Z</time>
      </trkpt>
      <trkpt lat="44.79958" lon="5.33397">
        <ele>603.8</ele>
        <time>2021-09-01T14:30:51Z</time>
      </trkpt>
      <trkpt lat="44.79949" lon="5.33399">
        <ele>603.5</ele>
        <time>2021-09-01T14:30:52Z</time>
      </trkpt>
      <trkpt lat="44.79941" lon="5.334">
        <ele>603.2</ele>
        <time>2021-09-01T14:30:53Z</time>
      </trkpt>
      <trkpt lat="44.79923" lon="5.33404">
        <ele>602.7</ele>
        <time>2021-09-01T14:30:55Z</time>
      </trkpt>
      <trkpt lat="44.79907" lon="5.33413">
        <ele>602.1</ele>
        <time>2021-09-01T14:30:57Z</time>
      </trkpt>
      <trkpt lat="44.79893" lon="5.3343">
        <ele>601.3</ele>
        <time>2021-09-01T14:30:59Z</time>
      </trkpt>
      <trkpt lat="44.7988" lon="5.33449">
        <ele>599.8</ele>
        <time>2021-09-01T14:31:01Z</time>
      </trkpt>
      <trkpt lat="44.79869" lon="5.33471">
        <ele>598.3</ele>
        <time>2021-09-01T14:31:03Z</time>
      </trkpt>
      <trkpt lat="44.79859" lon="5.33495">
        <ele>596.8</ele>
        <time>2021-09-01T14:31:05Z</time>
      </trkpt>
      <trkpt lat="44.79854" lon="5.33507">
        <ele>595.9</ele>
        <time>2021-09-01T14:31:06Z</time>
      </trkpt>
      <trkpt lat="44.79851" lon="5.33521">
        <ele>595</ele>
        <time>2021-09-01T14:31:07Z</time>
      </trkpt>
      <trkpt lat="44.79844" lon="5.33549">
        <ele>593.2</ele>
        <time>2021-09-01T14:31:09Z</time>
      </trkpt>
      <trkpt lat="44.79839" lon="5.33581">
        <ele>591.1</ele>
        <time>2021-09-01T14:31:11Z</time>
      </trkpt>
      <trkpt lat="44.79837" lon="5.33596">
        <ele>590</ele>
        <time>2021-09-01T14:31:12Z</time>
      </trkpt>
      <trkpt lat="44.79832" lon="5.33626">
        <ele>588</ele>
        <time>2021-09-01T14:31:14Z</time>
      </trkpt>
      <trkpt lat="44.79829" lon="5.33642">
        <ele>587</ele>
        <time>2021-09-01T14:31:15Z</time>
      </trkpt>
      <trkpt lat="44.79822" lon="5.33674">
        <ele>585.2</ele>
        <time>2021-09-01T14:31:17Z</time>
      </trkpt>
      <trkpt lat="44.79819" lon="5.3369">
        <ele>584.2</ele>
        <time>2021-09-01T14:31:18Z</time>
      </trkpt>
      <trkpt lat="44.79811" lon="5.33722">
        <ele>582.5</ele>
        <time>2021-09-01T14:31:20Z</time>
      </trkpt>
      <trkpt lat="44.79804" lon="5.33753">
        <ele>581</ele>
        <time>2021-09-01T14:31:22Z</time>
      </trkpt>
      <trkpt lat="44.79797" lon="5.33784">
        <ele>579.5</ele>
        <time>2021-09-01T14:31:24Z</time>
      </trkpt>
      <trkpt lat="44.79793" lon="5.338">
        <ele>578.7</ele>
        <time>2021-09-01T14:31:25Z</time>
      </trkpt>
      <trkpt lat="44.79786" lon="5.33831">
        <ele>577.1</ele>
        <time>2021-09-01T14:31:27Z</time>
      </trkpt>
      <trkpt lat="44.79783" lon="5.33846">
        <ele>576.4</ele>
        <time>2021-09-01T14:31:28Z</time>
      </trkpt>
      <trkpt lat="44.79779" lon="5.33877">
        <ele>574.8</ele>
        <time>2021-09-01T14:31:30Z</time>
      </trkpt>
      <trkpt lat="44.79776" lon="5.33893">
        <ele>574</ele>
        <time>2021-09-01T14:31:31Z</time>
      </trkpt>
      <trkpt lat="44.7977" lon="5.33923">
        <ele>572.6</ele>
        <time>2021-09-01T14:31:33Z</time>
      </trkpt>
      <trkpt lat="44.79766" lon="5.33937">
        <ele>571.9</ele>
        <time>2021-09-01T14:31:34Z</time>
      </trkpt>
      <trkpt lat="44.79761" lon="5.33952">
        <ele>571</ele>
        <time>2021-09-01T14:31:35Z</time>
      </trkpt>
      <trkpt lat="44.79757" lon="5.33966">
        <ele>570.4</ele>
        <time>2021-09-01T14:31:36Z</time>
      </trkpt>
      <trkpt lat="44.79752" lon="5.33979">
        <ele>569.8</ele>
        <time>2021-09-01T14:31:37Z</time>
      </trkpt>
      <trkpt lat="44.79742" lon="5.34004">
        <ele>568.6</ele>
        <time>2021-09-01T14:31:39Z</time>
      </trkpt>
      <trkpt lat="44.79737" lon="5.34017">
        <ele>568</ele>
        <time>2021-09-01T14:31:40Z</time>
      </trkpt>
      <trkpt lat="44.79734" lon="5.34031">
        <ele>567.4</ele>
        <time>2021-09-01T14:31:41Z</time>
      </trkpt>
      <trkpt lat="44.79731" lon="5.34044">
        <ele>566.9</ele>
        <time>2021-09-01T14:31:42Z</time>
      </trkpt>
      <trkpt lat="44.79728" lon="5.34058">
        <ele>566.3</ele>
        <time>2021-09-01T14:31:43Z</time>
      </trkpt>
      <trkpt lat="44.79726" lon="5.34072">
        <ele>565.7</ele>
        <time>2021-09-01T14:31:44Z</time>
      </trkpt>
      <trkpt lat="44.79722" lon="5.34099">
        <ele>564.5</ele>
        <time>2021-09-01T14:31:46Z</time>
      </trkpt>
      <trkpt lat="44.79718" lon="5.34127">
        <ele>563.3</ele>
        <time>2021-09-01T14:31:48Z</time>
      </trkpt>
      <trkpt lat="44.79716" lon="5.34142">
        <ele>562.7</ele>
        <time>2021-09-01T14:31:49Z</time>
      </trkpt>
      <trkpt lat="44.79714" lon="5.34171">
        <ele>561.7</ele>
        <time>2021-09-01T14:31:51Z</time>
      </trkpt>
      <trkpt lat="44.79712" lon="5.34185">
        <ele>561.2</ele>
        <time>2021-09-01T14:31:52Z</time>
      </trkpt>
      <trkpt lat="44.7971" lon="5.34199">
        <ele>560.8</ele>
        <time>2021-09-01T14:31:53Z</time>
      </trkpt>
      <trkpt lat="44.79709" lon="5.34213">
        <ele>560.4</ele>
        <time>2021-09-01T14:31:54Z</time>
      </trkpt>
      <trkpt lat="44.79708" lon="5.34226">
        <ele>560</ele>
        <time>2021-09-01T14:31:55Z</time>
      </trkpt>
      <trkpt lat="44.79706" lon="5.34253">
        <ele>559.1</ele>
        <time>2021-09-01T14:31:57Z</time>
      </trkpt>
      <trkpt lat="44.79702" lon="5.34278">
        <ele>558.3</ele>
        <time>2021-09-01T14:31:59Z</time>
      </trkpt>
      <trkpt lat="44.79697" lon="5.34302">
        <ele>557.4</ele>
        <time>2021-09-01T14:32:01Z</time>
      </trkpt>
      <trkpt lat="44.79695" lon="5.34314">
        <ele>557</ele>
        <time>2021-09-01T14:32:02Z</time>
      </trkpt>
      <trkpt lat="44.79692" lon="5.34325">
        <ele>556.7</ele>
        <time>2021-09-01T14:32:03Z</time>
      </trkpt>
      <trkpt lat="44.79689" lon="5.34336">
        <ele>556.3</ele>
        <time>2021-09-01T14:32:04Z</time>
      </trkpt>
      <trkpt lat="44.79682" lon="5.34358">
        <ele>555.4</ele>
        <time>2021-09-01T14:32:06Z</time>
      </trkpt>
      <trkpt lat="44.79675" lon="5.3438">
        <ele>554.3</ele>
        <time>2021-09-01T14:32:08Z</time>
      </trkpt>
      <trkpt lat="44.79671" lon="5.34391">
        <ele>553.8</ele>
        <time>2021-09-01T14:32:09Z</time>
      </trkpt>
      <trkpt lat="44.79667" lon="5.34403">
        <ele>553.3</ele>
        <time>2021-09-01T14:32:10Z</time>
      </trkpt>
      <trkpt lat="44.79659" lon="5.34425">
        <ele>552.2</ele>
        <time>2021-09-01T14:32:12Z</time>
      </trkpt>
      <trkpt lat="44.79655" lon="5.34437">
        <ele>551.7</ele>
        <time>2021-09-01T14:32:13Z</time>
      </trkpt>
      <trkpt lat="44.79646" lon="5.34459">
        <ele>550.8</ele>
        <time>2021-09-01T14:32:15Z</time>
      </trkpt>
      <trkpt lat="44.79636" lon="5.34479">
        <ele>550.2</ele>
        <time>2021-09-01T14:32:17Z</time>
      </trkpt>
      <trkpt lat="44.79627" lon="5.34497">
        <ele>549.7</ele>
        <time>2021-09-01T14:32:19Z</time>
      </trkpt>
      <trkpt lat="44.79617" lon="5.34511">
        <ele>549.2</ele>
        <time>2021-09-01T14:32:21Z</time>
      </trkpt>
      <trkpt lat="44.79609" lon="5.34524">
        <ele>548.6</ele>
        <time>2021-09-01T14:32:23Z</time>
      </trkpt>
      <trkpt lat="44.79597" lon="5.34533">
        <ele>548</ele>
        <time>2021-09-01T14:32:25Z</time>
      </trkpt>
      <trkpt lat="44.7958" lon="5.34537">
        <ele>547.3</ele>
        <time>2021-09-01T14:32:27Z</time>
      </trkpt>
      <trkpt lat="44.79566" lon="5.34532">
        <ele>546.5</ele>
        <time>2021-09-01T14:32:28Z</time>
      </trkpt>
      <trkpt lat="44.79555" lon="5.34529">
        <ele>545.8</ele>
        <time>2021-09-01T14:32:29Z</time>
      </trkpt>
      <trkpt lat="44.79546" lon="5.34528">
        <ele>545.3</ele>
        <time>2021-09-01T14:32:30Z</time>
      </trkpt>
      <trkpt lat="44.7953" lon="5.34528">
        <ele>544.4</ele>
        <time>2021-09-01T14:32:32Z</time>
      </trkpt>
      <trkpt lat="44.79514" lon="5.34533">
        <ele>542.3</ele>
        <time>2021-09-01T14:32:34Z</time>
      </trkpt>
      <trkpt lat="44.79506" lon="5.34537">
        <ele>542</ele>
        <time>2021-09-01T14:32:35Z</time>
      </trkpt>
      <trkpt lat="44.79494" lon="5.34547">
        <ele>541.5</ele>
        <time>2021-09-01T14:32:37Z</time>
      </trkpt>
      <trkpt lat="44.79482" lon="5.3456">
        <ele>541.1</ele>
        <time>2021-09-01T14:32:39Z</time>
      </trkpt>
      <trkpt lat="44.79477" lon="5.34567">
        <ele>540.8</ele>
        <time>2021-09-01T14:32:40Z</time>
      </trkpt>
      <trkpt lat="44.79472" lon="5.34574">
        <ele>540.6</ele>
        <time>2021-09-01T14:32:41Z</time>
      </trkpt>
      <trkpt lat="44.79463" lon="5.34589">
        <ele>540.2</ele>
        <time>2021-09-01T14:32:43Z</time>
      </trkpt>
      <trkpt lat="44.79454" lon="5.34604">
        <ele>539.8</ele>
        <time>2021-09-01T14:32:45Z</time>
      </trkpt>
      <trkpt lat="44.79445" lon="5.34621">
        <ele>539.6</ele>
        <time>2021-09-01T14:32:47Z</time>
      </trkpt>
      <trkpt lat="44.7944" lon="5.34629">
        <ele>539.5</ele>
        <time>2021-09-01T14:32:48Z</time>
      </trkpt>
      <trkpt lat="44.79435" lon="5.34637">
        <ele>539.4</ele>
        <time>2021-09-01T14:32:49Z</time>
      </trkpt>
      <trkpt lat="44.79425" lon="5.34653">
        <ele>539.1</ele>
        <time>2021-09-01T14:32:51Z</time>
      </trkpt>
      <trkpt lat="44.79415" lon="5.3467">
        <ele>538.9</ele>
        <time>2021-09-01T14:32:53Z</time>
      </trkpt>
      <trkpt lat="44.79405" lon="5.34687">
        <ele>538.5</ele>
        <time>2021-09-01T14:32:55Z</time>
      </trkpt>
      <trkpt lat="44.79399" lon="5.34696">
        <ele>538.3</ele>
        <time>2021-09-01T14:32:56Z</time>
      </trkpt>
      <trkpt lat="44.79394" lon="5.34705">
        <ele>538.2</ele>
        <time>2021-09-01T14:32:57Z</time>
      </trkpt>
      <trkpt lat="44.79384" lon="5.34722">
        <ele>538</ele>
        <time>2021-09-01T14:32:59Z</time>
      </trkpt>
      <trkpt lat="44.7938" lon="5.3473">
        <ele>537.8</ele>
        <time>2021-09-01T14:33:00Z</time>
      </trkpt>
      <trkpt lat="44.79375" lon="5.34738">
        <ele>537.7</ele>
        <time>2021-09-01T14:33:01Z</time>
      </trkpt>
      <trkpt lat="44.79366" lon="5.34755">
        <ele>537.4</ele>
        <time>2021-09-01T14:33:03Z</time>
      </trkpt>
      <trkpt lat="44.79358" lon="5.34772">
        <ele>537</ele>
        <time>2021-09-01T14:33:05Z</time>
      </trkpt>
      <trkpt lat="44.79349" lon="5.34788">
        <ele>536.6</ele>
        <time>2021-09-01T14:33:07Z</time>
      </trkpt>
      <trkpt lat="44.79344" lon="5.34796">
        <ele>536.4</ele>
        <time>2021-09-01T14:33:08Z</time>
      </trkpt>
      <trkpt lat="44.79339" lon="5.34803">
        <ele>536.3</ele>
        <time>2021-09-01T14:33:09Z</time>
      </trkpt>
      <trkpt lat="44.79328" lon="5.34815">
        <ele>535.8</ele>
        <time>2021-09-01T14:33:11Z</time>
      </trkpt>
      <trkpt lat="44.79322" lon="5.3482">
        <ele>535.4</ele>
        <time>2021-09-01T14:33:12Z</time>
      </trkpt>
      <trkpt lat="44.79308" lon="5.34828">
        <ele>534.8</ele>
        <time>2021-09-01T14:33:14Z</time>
      </trkpt>
      <trkpt lat="44.79302" lon="5.34832">
        <ele>534.5</ele>
        <time>2021-09-01T14:33:15Z</time>
      </trkpt>
      <trkpt lat="44.79288" lon="5.34838">
        <ele>533.9</ele>
        <time>2021-09-01T14:33:17Z</time>
      </trkpt>
      <trkpt lat="44.79274" lon="5.34845">
        <ele>533.4</ele>
        <time>2021-09-01T14:33:19Z</time>
      </trkpt>
      <trkpt lat="44.7926" lon="5.34851">
        <ele>532.9</ele>
        <time>2021-09-01T14:33:21Z</time>
      </trkpt>
      <trkpt lat="44.79252" lon="5.34854">
        <ele>532.6</ele>
        <time>2021-09-01T14:33:22Z</time>
      </trkpt>
      <trkpt lat="44.79245" lon="5.34857">
        <ele>532.4</ele>
        <time>2021-09-01T14:33:23Z</time>
      </trkpt>
      <trkpt lat="44.7923" lon="5.34863">
        <ele>531.8</ele>
        <time>2021-09-01T14:33:25Z</time>
      </trkpt>
      <trkpt lat="44.79223" lon="5.34866">
        <ele>531.6</ele>
        <time>2021-09-01T14:33:26Z</time>
      </trkpt>
      <trkpt lat="44.79216" lon="5.34868">
        <ele>531.2</ele>
        <time>2021-09-01T14:33:27Z</time>
      </trkpt>
      <trkpt lat="44.79201" lon="5.34874">
        <ele>530.6</ele>
        <time>2021-09-01T14:33:29Z</time>
      </trkpt>
      <trkpt lat="44.79194" lon="5.34877">
        <ele>530.2</ele>
        <time>2021-09-01T14:33:30Z</time>
      </trkpt>
      <trkpt lat="44.79186" lon="5.3488">
        <ele>529.7</ele>
        <time>2021-09-01T14:33:31Z</time>
      </trkpt>
      <trkpt lat="44.79179" lon="5.34883">
        <ele>529.2</ele>
        <time>2021-09-01T14:33:32Z</time>
      </trkpt>
      <trkpt lat="44.79165" lon="5.34891">
        <ele>528.3</ele>
        <time>2021-09-01T14:33:34Z</time>
      </trkpt>
      <trkpt lat="44.79154" lon="5.34902">
        <ele>527.5</ele>
        <time>2021-09-01T14:33:36Z</time>
      </trkpt>
      <trkpt lat="44.7915" lon="5.34908">
        <ele>527.2</ele>
        <time>2021-09-01T14:33:37Z</time>
      </trkpt>
      <trkpt lat="44.79147" lon="5.34924">
        <ele>526.7</ele>
        <time>2021-09-01T14:33:39Z</time>
      </trkpt>
      <trkpt lat="44.79146" lon="5.34932">
        <ele>526.4</ele>
        <time>2021-09-01T14:33:40Z</time>
      </trkpt>
      <trkpt lat="44.79147" lon="5.34941">
        <ele>526.1</ele>
        <time>2021-09-01T14:33:41Z</time>
      </trkpt>
      <trkpt lat="44.79147" lon="5.34958">
        <ele>525.6</ele>
        <time>2021-09-01T14:33:43Z</time>
      </trkpt>
      <trkpt lat="44.79147" lon="5.34966">
        <ele>525.3</ele>
        <time>2021-09-01T14:33:44Z</time>
      </trkpt>
      <trkpt lat="44.79145" lon="5.34984">
        <ele>524.7</ele>
        <time>2021-09-01T14:33:46Z</time>
      </trkpt>
      <trkpt lat="44.79144" lon="5.34993">
        <ele>524.4</ele>
        <time>2021-09-01T14:33:47Z</time>
      </trkpt>
      <trkpt lat="44.7914" lon="5.3501">
        <ele>523.9</ele>
        <time>2021-09-01T14:33:49Z</time>
      </trkpt>
      <trkpt lat="44.79135" lon="5.35024">
        <ele>523.4</ele>
        <time>2021-09-01T14:33:51Z</time>
      </trkpt>
      <trkpt lat="44.79129" lon="5.35037">
        <ele>522.8</ele>
        <time>2021-09-01T14:33:53Z</time>
      </trkpt>
      <trkpt lat="44.79123" lon="5.35049">
        <ele>522.3</ele>
        <time>2021-09-01T14:33:55Z</time>
      </trkpt>
      <trkpt lat="44.7912" lon="5.35056">
        <ele>521.9</ele>
        <time>2021-09-01T14:33:56Z</time>
      </trkpt>
      <trkpt lat="44.79112" lon="5.35068">
        <ele>521.2</ele>
        <time>2021-09-01T14:33:58Z</time>
      </trkpt>
      <trkpt lat="44.79109" lon="5.35075">
        <ele>520.9</ele>
        <time>2021-09-01T14:33:59Z</time>
      </trkpt>
      <trkpt lat="44.79105" lon="5.3508">
        <ele>520.6</ele>
        <time>2021-09-01T14:34:00Z</time>
      </trkpt>
      <trkpt lat="44.79101" lon="5.35086">
        <ele>520.3</ele>
        <time>2021-09-01T14:34:01Z</time>
      </trkpt>
      <trkpt lat="44.79091" lon="5.35097">
        <ele>519.5</ele>
        <time>2021-09-01T14:34:03Z</time>
      </trkpt>
      <trkpt lat="44.79086" lon="5.35103">
        <ele>519</ele>
        <time>2021-09-01T14:34:04Z</time>
      </trkpt>
      <trkpt lat="44.7908" lon="5.35109">
        <ele>518.5</ele>
        <time>2021-09-01T14:34:05Z</time>
      </trkpt>
      <trkpt lat="44.79068" lon="5.35122">
        <ele>517.6</ele>
        <time>2021-09-01T14:34:07Z</time>
      </trkpt>
      <trkpt lat="44.79056" lon="5.35135">
        <ele>516.8</ele>
        <time>2021-09-01T14:34:09Z</time>
      </trkpt>
      <trkpt lat="44.79049" lon="5.35141">
        <ele>516.4</ele>
        <time>2021-09-01T14:34:10Z</time>
      </trkpt>
      <trkpt lat="44.79042" lon="5.35146">
        <ele>515.9</ele>
        <time>2021-09-01T14:34:11Z</time>
      </trkpt>
      <trkpt lat="44.79027" lon="5.35156">
        <ele>515</ele>
        <time>2021-09-01T14:34:13Z</time>
      </trkpt>
      <trkpt lat="44.79019" lon="5.35161">
        <ele>514.5</ele>
        <time>2021-09-01T14:34:14Z</time>
      </trkpt>
      <trkpt lat="44.79004" lon="5.35173">
        <ele>513.6</ele>
        <time>2021-09-01T14:34:16Z</time>
      </trkpt>
      <trkpt lat="44.78996" lon="5.3518">
        <ele>513.1</ele>
        <time>2021-09-01T14:34:17Z</time>
      </trkpt>
      <trkpt lat="44.78978" lon="5.35193">
        <ele>512</ele>
        <time>2021-09-01T14:34:19Z</time>
      </trkpt>
      <trkpt lat="44.78959" lon="5.35202">
        <ele>511</ele>
        <time>2021-09-01T14:34:21Z</time>
      </trkpt>
      <trkpt lat="44.7895" lon="5.35206">
        <ele>510.4</ele>
        <time>2021-09-01T14:34:22Z</time>
      </trkpt>
      <trkpt lat="44.78932" lon="5.35214">
        <ele>509.4</ele>
        <time>2021-09-01T14:34:24Z</time>
      </trkpt>
      <trkpt lat="44.78924" lon="5.35218">
        <ele>508.9</ele>
        <time>2021-09-01T14:34:25Z</time>
      </trkpt>
      <trkpt lat="44.78906" lon="5.35224">
        <ele>507.9</ele>
        <time>2021-09-01T14:34:27Z</time>
      </trkpt>
      <trkpt lat="44.78888" lon="5.3523">
        <ele>506.9</ele>
        <time>2021-09-01T14:34:29Z</time>
      </trkpt>
      <trkpt lat="44.78871" lon="5.35236">
        <ele>506</ele>
        <time>2021-09-01T14:34:31Z</time>
      </trkpt>
      <trkpt lat="44.78862" lon="5.35238">
        <ele>505.5</ele>
        <time>2021-09-01T14:34:32Z</time>
      </trkpt>
      <trkpt lat="44.78853" lon="5.35239">
        <ele>504.9</ele>
        <time>2021-09-01T14:34:33Z</time>
      </trkpt>
      <trkpt lat="44.78844" lon="5.3524">
        <ele>504.5</ele>
        <time>2021-09-01T14:34:34Z</time>
      </trkpt>
      <trkpt lat="44.78834" lon="5.35242">
        <ele>504</ele>
        <time>2021-09-01T14:34:35Z</time>
      </trkpt>
      <trkpt lat="44.78825" lon="5.35244">
        <ele>503.5</ele>
        <time>2021-09-01T14:34:36Z</time>
      </trkpt>
      <trkpt lat="44.78806" lon="5.35247">
        <ele>502.6</ele>
        <time>2021-09-01T14:34:38Z</time>
      </trkpt>
      <trkpt lat="44.78788" lon="5.35249">
        <ele>501.6</ele>
        <time>2021-09-01T14:34:40Z</time>
      </trkpt>
      <trkpt lat="44.78779" lon="5.35252">
        <ele>501.1</ele>
        <time>2021-09-01T14:34:41Z</time>
      </trkpt>
      <trkpt lat="44.78761" lon="5.35257">
        <ele>500.1</ele>
        <time>2021-09-01T14:34:43Z</time>
      </trkpt>
      <trkpt lat="44.78744" lon="5.35264">
        <ele>499.2</ele>
        <time>2021-09-01T14:34:45Z</time>
      </trkpt>
      <trkpt lat="44.78735" lon="5.35269">
        <ele>498.7</ele>
        <time>2021-09-01T14:34:46Z</time>
      </trkpt>
      <trkpt lat="44.78727" lon="5.35275">
        <ele>498.3</ele>
        <time>2021-09-01T14:34:47Z</time>
      </trkpt>
      <trkpt lat="44.78712" lon="5.35287">
        <ele>497.4</ele>
        <time>2021-09-01T14:34:49Z</time>
      </trkpt>
      <trkpt lat="44.78704" lon="5.35293">
        <ele>497</ele>
        <time>2021-09-01T14:34:50Z</time>
      </trkpt>
      <trkpt lat="44.7869" lon="5.35304">
        <ele>496.3</ele>
        <time>2021-09-01T14:34:52Z</time>
      </trkpt>
      <trkpt lat="44.78684" lon="5.35308">
        <ele>496</ele>
        <time>2021-09-01T14:34:53Z</time>
      </trkpt>
      <trkpt lat="44.78669" lon="5.35312">
        <ele>495.3</ele>
        <time>2021-09-01T14:34:55Z</time>
      </trkpt>
      <trkpt lat="44.78655" lon="5.35308">
        <ele>494.5</ele>
        <time>2021-09-01T14:34:57Z</time>
      </trkpt>
      <trkpt lat="44.78648" lon="5.35304">
        <ele>494.1</ele>
        <time>2021-09-01T14:34:58Z</time>
      </trkpt>
      <trkpt lat="44.78641" lon="5.35297">
        <ele>493.6</ele>
        <time>2021-09-01T14:34:59Z</time>
      </trkpt>
      <trkpt lat="44.78634" lon="5.35291">
        <ele>493.1</ele>
        <time>2021-09-01T14:35:00Z</time>
      </trkpt>
      <trkpt lat="44.7862" lon="5.35278">
        <ele>492.2</ele>
        <time>2021-09-01T14:35:02Z</time>
      </trkpt>
      <trkpt lat="44.78605" lon="5.35267">
        <ele>491.3</ele>
        <time>2021-09-01T14:35:04Z</time>
      </trkpt>
      <trkpt lat="44.78588" lon="5.35258">
        <ele>490.3</ele>
        <time>2021-09-01T14:35:06Z</time>
      </trkpt>
      <trkpt lat="44.78571" lon="5.35251">
        <ele>489.3</ele>
        <time>2021-09-01T14:35:08Z</time>
      </trkpt>
      <trkpt lat="44.78562" lon="5.35249">
        <ele>488.8</ele>
        <time>2021-09-01T14:35:09Z</time>
      </trkpt>
      <trkpt lat="44.78553" lon="5.35249">
        <ele>488.2</ele>
        <time>2021-09-01T14:35:10Z</time>
      </trkpt>
      <trkpt lat="44.78534" lon="5.35248">
        <ele>487.1</ele>
        <time>2021-09-01T14:35:12Z</time>
      </trkpt>
      <trkpt lat="44.78515" lon="5.35249">
        <ele>486</ele>
        <time>2021-09-01T14:35:14Z</time>
      </trkpt>
      <trkpt lat="44.78505" lon="5.35251">
        <ele>485.5</ele>
        <time>2021-09-01T14:35:15Z</time>
      </trkpt>
      <trkpt lat="44.78496" lon="5.35253">
        <ele>485</ele>
        <time>2021-09-01T14:35:16Z</time>
      </trkpt>
      <trkpt lat="44.78486" lon="5.35256">
        <ele>484.5</ele>
        <time>2021-09-01T14:35:17Z</time>
      </trkpt>
      <trkpt lat="44.78477" lon="5.35259">
        <ele>484.1</ele>
        <time>2021-09-01T14:35:18Z</time>
      </trkpt>
      <trkpt lat="44.7846" lon="5.35266">
        <ele>483.2</ele>
        <time>2021-09-01T14:35:20Z</time>
      </trkpt>
      <trkpt lat="44.78444" lon="5.35275">
        <ele>482.3</ele>
        <time>2021-09-01T14:35:22Z</time>
      </trkpt>
      <trkpt lat="44.78436" lon="5.3528">
        <ele>481.8</ele>
        <time>2021-09-01T14:35:23Z</time>
      </trkpt>
      <trkpt lat="44.78419" lon="5.35291">
        <ele>480.8</ele>
        <time>2021-09-01T14:35:25Z</time>
      </trkpt>
      <trkpt lat="44.78403" lon="5.35304">
        <ele>479.8</ele>
        <time>2021-09-01T14:35:27Z</time>
      </trkpt>
      <trkpt lat="44.78395" lon="5.35312">
        <ele>479.3</ele>
        <time>2021-09-01T14:35:28Z</time>
      </trkpt>
      <trkpt lat="44.78387" lon="5.35319">
        <ele>478.9</ele>
        <time>2021-09-01T14:35:29Z</time>
      </trkpt>
      <trkpt lat="44.78379" lon="5.35326">
        <ele>478.4</ele>
        <time>2021-09-01T14:35:30Z</time>
      </trkpt>
      <trkpt lat="44.78363" lon="5.35339">
        <ele>477.5</ele>
        <time>2021-09-01T14:35:32Z</time>
      </trkpt>
      <trkpt lat="44.78347" lon="5.3535">
        <ele>476.6</ele>
        <time>2021-09-01T14:35:34Z</time>
      </trkpt>
      <trkpt lat="44.78339" lon="5.35355">
        <ele>476.1</ele>
        <time>2021-09-01T14:35:35Z</time>
      </trkpt>
      <trkpt lat="44.78331" lon="5.35359">
        <ele>475.6</ele>
        <time>2021-09-01T14:35:36Z</time>
      </trkpt>
      <trkpt lat="44.78315" lon="5.35367">
        <ele>474.5</ele>
        <time>2021-09-01T14:35:38Z</time>
      </trkpt>
      <trkpt lat="44.78307" lon="5.35371">
        <ele>474</ele>
        <time>2021-09-01T14:35:39Z</time>
      </trkpt>
      <trkpt lat="44.78299" lon="5.35374">
        <ele>473.4</ele>
        <time>2021-09-01T14:35:40Z</time>
      </trkpt>
      <trkpt lat="44.78283" lon="5.35381">
        <ele>472.5</ele>
        <time>2021-09-01T14:35:42Z</time>
      </trkpt>
      <trkpt lat="44.78274" lon="5.35386">
        <ele>472</ele>
        <time>2021-09-01T14:35:43Z</time>
      </trkpt>
      <trkpt lat="44.78259" lon="5.35397">
        <ele>471.2</ele>
        <time>2021-09-01T14:35:45Z</time>
      </trkpt>
      <trkpt lat="44.78252" lon="5.35403">
        <ele>470.9</ele>
        <time>2021-09-01T14:35:46Z</time>
      </trkpt>
      <trkpt lat="44.78245" lon="5.35411">
        <ele>470.6</ele>
        <time>2021-09-01T14:35:47Z</time>
      </trkpt>
      <trkpt lat="44.78234" lon="5.35428">
        <ele>470.1</ele>
        <time>2021-09-01T14:35:49Z</time>
      </trkpt>
      <trkpt lat="44.78227" lon="5.3545">
        <ele>469.5</ele>
        <time>2021-09-01T14:35:51Z</time>
      </trkpt>
      <trkpt lat="44.78223" lon="5.35461">
        <ele>469.1</ele>
        <time>2021-09-01T14:35:52Z</time>
      </trkpt>
      <trkpt lat="44.7822" lon="5.35473">
        <ele>468.7</ele>
        <time>2021-09-01T14:35:53Z</time>
      </trkpt>
      <trkpt lat="44.78216" lon="5.35482">
        <ele>470.2</ele>
        <time>2021-09-01T14:35:54Z</time>
      </trkpt>
      <trkpt lat="44.78208" lon="5.35499">
        <ele>473.2</ele>
        <time>2021-09-01T14:35:56Z</time>
      </trkpt>
      <trkpt lat="44.78199" lon="5.35514">
        <ele>474.2</ele>
        <time>2021-09-01T14:35:58Z</time>
      </trkpt>
      <trkpt lat="44.78188" lon="5.35525">
        <ele>475.4</ele>
        <time>2021-09-01T14:36:00Z</time>
      </trkpt>
      <trkpt lat="44.78182" lon="5.35528">
        <ele>475.7</ele>
        <time>2021-09-01T14:36:01Z</time>
      </trkpt>
      <trkpt lat="44.78168" lon="5.35528">
        <ele>473.6</ele>
        <time>2021-09-01T14:36:03Z</time>
      </trkpt>
      <trkpt lat="44.78159" lon="5.35527">
        <ele>471.6</ele>
        <time>2021-09-01T14:36:04Z</time>
      </trkpt>
      <trkpt lat="44.78151" lon="5.35525">
        <ele>471.2</ele>
        <time>2021-09-01T14:36:05Z</time>
      </trkpt>
      <trkpt lat="44.78136" lon="5.35521">
        <ele>468.9</ele>
        <time>2021-09-01T14:36:07Z</time>
      </trkpt>
      <trkpt lat="44.78128" lon="5.35517">
        <ele>467.8</ele>
        <time>2021-09-01T14:36:08Z</time>
      </trkpt>
      <trkpt lat="44.78113" lon="5.35502">
        <ele>465.3</ele>
        <time>2021-09-01T14:36:10Z</time>
      </trkpt>
      <trkpt lat="44.78106" lon="5.35493">
        <ele>464</ele>
        <time>2021-09-01T14:36:11Z</time>
      </trkpt>
      <trkpt lat="44.78099" lon="5.35484">
        <ele>462</ele>
        <time>2021-09-01T14:36:12Z</time>
      </trkpt>
      <trkpt lat="44.78092" lon="5.35474">
        <ele>461</ele>
        <time>2021-09-01T14:36:13Z</time>
      </trkpt>
      <trkpt lat="44.78078" lon="5.35449">
        <ele>457.3</ele>
        <time>2021-09-01T14:36:15Z</time>
      </trkpt>
      <trkpt lat="44.78072" lon="5.35436">
        <ele>455.2</ele>
        <time>2021-09-01T14:36:16Z</time>
      </trkpt>
      <trkpt lat="44.78066" lon="5.35422">
        <ele>453.3</ele>
        <time>2021-09-01T14:36:17Z</time>
      </trkpt>
      <trkpt lat="44.78056" lon="5.35394">
        <ele>448.8</ele>
        <time>2021-09-01T14:36:19Z</time>
      </trkpt>
      <trkpt lat="44.78047" lon="5.35372">
        <ele>446.2</ele>
        <time>2021-09-01T14:36:21Z</time>
      </trkpt>
      <trkpt lat="44.78036" lon="5.35355">
        <ele>443.6</ele>
        <time>2021-09-01T14:36:23Z</time>
      </trkpt>
      <trkpt lat="44.78025" lon="5.35348">
        <ele>443.5</ele>
        <time>2021-09-01T14:36:25Z</time>
      </trkpt>
      <trkpt lat="44.78018" lon="5.35345">
        <ele>443.4</ele>
        <time>2021-09-01T14:36:26Z</time>
      </trkpt>
      <trkpt lat="44.78005" lon="5.3534">
        <ele>443.9</ele>
        <time>2021-09-01T14:36:28Z</time>
      </trkpt>
      <trkpt lat="44.77999" lon="5.35338">
        <ele>444.2</ele>
        <time>2021-09-01T14:36:29Z</time>
      </trkpt>
      <trkpt lat="44.77993" lon="5.35337">
        <ele>445.2</ele>
        <time>2021-09-01T14:36:30Z</time>
      </trkpt>
      <trkpt lat="44.7798" lon="5.35336">
        <ele>446.8</ele>
        <time>2021-09-01T14:36:32Z</time>
      </trkpt>
      <trkpt lat="44.77967" lon="5.35333">
        <ele>447.9</ele>
        <time>2021-09-01T14:36:34Z</time>
      </trkpt>
      <trkpt lat="44.77952" lon="5.35329">
        <ele>448.9</ele>
        <time>2021-09-01T14:36:36Z</time>
      </trkpt>
      <trkpt lat="44.77936" lon="5.35325">
        <ele>450</ele>
        <time>2021-09-01T14:36:38Z</time>
      </trkpt>
      <trkpt lat="44.7792" lon="5.35321">
        <ele>450.7</ele>
        <time>2021-09-01T14:36:40Z</time>
      </trkpt>
      <trkpt lat="44.77913" lon="5.35317">
        <ele>450.5</ele>
        <time>2021-09-01T14:36:41Z</time>
      </trkpt>
      <trkpt lat="44.77906" lon="5.35312">
        <ele>450.5</ele>
        <time>2021-09-01T14:36:42Z</time>
      </trkpt>
      <trkpt lat="44.77892" lon="5.35302">
        <ele>449.8</ele>
        <time>2021-09-01T14:36:44Z</time>
      </trkpt>
      <trkpt lat="44.7788" lon="5.3529">
        <ele>448.5</ele>
        <time>2021-09-01T14:36:46Z</time>
      </trkpt>
      <trkpt lat="44.77876" lon="5.35285">
        <ele>448.4</ele>
        <time>2021-09-01T14:36:47Z</time>
      </trkpt>
      <trkpt lat="44.77872" lon="5.3528">
        <ele>448.2</ele>
        <time>2021-09-01T14:36:48Z</time>
      </trkpt>
      <trkpt lat="44.77867" lon="5.35263">
        <ele>445.3</ele>
        <time>2021-09-01T14:36:50Z</time>
      </trkpt>
      <trkpt lat="44.77866" lon="5.35253">
        <ele>443.6</ele>
        <time>2021-09-01T14:36:51Z</time>
      </trkpt>
      <trkpt lat="44.77864" lon="5.35242">
        <ele>442.5</ele>
        <time>2021-09-01T14:36:52Z</time>
      </trkpt>
      <trkpt lat="44.77861" lon="5.35232">
        <ele>441.6</ele>
        <time>2021-09-01T14:36:53Z</time>
      </trkpt>
      <trkpt lat="44.77855" lon="5.35217">
        <ele>439.1</ele>
        <time>2021-09-01T14:36:55Z</time>
      </trkpt>
      <trkpt lat="44.77854" lon="5.3521">
        <ele>438.1</ele>
        <time>2021-09-01T14:36:56Z</time>
      </trkpt>
      <trkpt lat="44.77849" lon="5.352">
        <ele>437.2</ele>
        <time>2021-09-01T14:36:58Z</time>
      </trkpt>
      <trkpt lat="44.77845" lon="5.35195">
        <ele>436.9</ele>
        <time>2021-09-01T14:36:59Z</time>
      </trkpt>
      <trkpt lat="44.7784" lon="5.35192">
        <ele>436.6</ele>
        <time>2021-09-01T14:37:00Z</time>
      </trkpt>
      <trkpt lat="44.77825" lon="5.35192">
        <ele>435.8</ele>
        <time>2021-09-01T14:37:02Z</time>
      </trkpt>
      <trkpt lat="44.77808" lon="5.35191">
        <ele>434.8</ele>
        <time>2021-09-01T14:37:04Z</time>
      </trkpt>
      <trkpt lat="44.77791" lon="5.35191">
        <ele>433.9</ele>
        <time>2021-09-01T14:37:06Z</time>
      </trkpt>
      <trkpt lat="44.77774" lon="5.35188">
        <ele>432.9</ele>
        <time>2021-09-01T14:37:08Z</time>
      </trkpt>
      <trkpt lat="44.77758" lon="5.35182">
        <ele>431.9</ele>
        <time>2021-09-01T14:37:10Z</time>
      </trkpt>
      <trkpt lat="44.77742" lon="5.35174">
        <ele>431.1</ele>
        <time>2021-09-01T14:37:12Z</time>
      </trkpt>
      <trkpt lat="44.77727" lon="5.35161">
        <ele>430.2</ele>
        <time>2021-09-01T14:37:14Z</time>
      </trkpt>
      <trkpt lat="44.77711" lon="5.35147">
        <ele>429.2</ele>
        <time>2021-09-01T14:37:16Z</time>
      </trkpt>
      <trkpt lat="44.77703" lon="5.35141">
        <ele>428.7</ele>
        <time>2021-09-01T14:37:17Z</time>
      </trkpt>
      <trkpt lat="44.77686" lon="5.3513">
        <ele>427.7</ele>
        <time>2021-09-01T14:37:19Z</time>
      </trkpt>
      <trkpt lat="44.77677" lon="5.35124">
        <ele>427.2</ele>
        <time>2021-09-01T14:37:20Z</time>
      </trkpt>
      <trkpt lat="44.77661" lon="5.35112">
        <ele>426.2</ele>
        <time>2021-09-01T14:37:22Z</time>
      </trkpt>
      <trkpt lat="44.77653" lon="5.35105">
        <ele>425.8</ele>
        <time>2021-09-01T14:37:23Z</time>
      </trkpt>
      <trkpt lat="44.77639" lon="5.35089">
        <ele>424.8</ele>
        <time>2021-09-01T14:37:25Z</time>
      </trkpt>
      <trkpt lat="44.77625" lon="5.35071">
        <ele>423.8</ele>
        <time>2021-09-01T14:37:27Z</time>
      </trkpt>
      <trkpt lat="44.77618" lon="5.35062">
        <ele>423.3</ele>
        <time>2021-09-01T14:37:28Z</time>
      </trkpt>
      <trkpt lat="44.77611" lon="5.35053">
        <ele>422.8</ele>
        <time>2021-09-01T14:37:29Z</time>
      </trkpt>
      <trkpt lat="44.77596" lon="5.35038">
        <ele>421.9</ele>
        <time>2021-09-01T14:37:31Z</time>
      </trkpt>
      <trkpt lat="44.77588" lon="5.35031">
        <ele>421.4</ele>
        <time>2021-09-01T14:37:32Z</time>
      </trkpt>
      <trkpt lat="44.77572" lon="5.35019">
        <ele>420.4</ele>
        <time>2021-09-01T14:37:34Z</time>
      </trkpt>
      <trkpt lat="44.77564" lon="5.35014">
        <ele>419.9</ele>
        <time>2021-09-01T14:37:35Z</time>
      </trkpt>
      <trkpt lat="44.77549" lon="5.35003">
        <ele>419</ele>
        <time>2021-09-01T14:37:37Z</time>
      </trkpt>
      <trkpt lat="44.77541" lon="5.34998">
        <ele>418.5</ele>
        <time>2021-09-01T14:37:38Z</time>
      </trkpt>
      <trkpt lat="44.77534" lon="5.34992">
        <ele>418</ele>
        <time>2021-09-01T14:37:39Z</time>
      </trkpt>
      <trkpt lat="44.77527" lon="5.34986">
        <ele>417.5</ele>
        <time>2021-09-01T14:37:40Z</time>
      </trkpt>
      <trkpt lat="44.77512" lon="5.34973">
        <ele>416.5</ele>
        <time>2021-09-01T14:37:42Z</time>
      </trkpt>
      <trkpt lat="44.77505" lon="5.34966">
        <ele>416</ele>
        <time>2021-09-01T14:37:43Z</time>
      </trkpt>
      <trkpt lat="44.77491" lon="5.34955">
        <ele>415.2</ele>
        <time>2021-09-01T14:37:45Z</time>
      </trkpt>
      <trkpt lat="44.77477" lon="5.34944">
        <ele>414.3</ele>
        <time>2021-09-01T14:37:47Z</time>
      </trkpt>
      <trkpt lat="44.77465" lon="5.34931">
        <ele>413.5</ele>
        <time>2021-09-01T14:37:49Z</time>
      </trkpt>
      <trkpt lat="44.77453" lon="5.34917">
        <ele>412.6</ele>
        <time>2021-09-01T14:37:51Z</time>
      </trkpt>
      <trkpt lat="44.77448" lon="5.34909">
        <ele>412.2</ele>
        <time>2021-09-01T14:37:52Z</time>
      </trkpt>
      <trkpt lat="44.77443" lon="5.349">
        <ele>411.8</ele>
        <time>2021-09-01T14:37:53Z</time>
      </trkpt>
      <trkpt lat="44.77432" lon="5.34881">
        <ele>410.9</ele>
        <time>2021-09-01T14:37:55Z</time>
      </trkpt>
      <trkpt lat="44.7742" lon="5.34862">
        <ele>410.1</ele>
        <time>2021-09-01T14:37:57Z</time>
      </trkpt>
      <trkpt lat="44.77407" lon="5.34845">
        <ele>409.3</ele>
        <time>2021-09-01T14:37:59Z</time>
      </trkpt>
      <trkpt lat="44.77393" lon="5.34831">
        <ele>408.6</ele>
        <time>2021-09-01T14:38:01Z</time>
      </trkpt>
      <trkpt lat="44.7738" lon="5.34817">
        <ele>407.9</ele>
        <time>2021-09-01T14:38:03Z</time>
      </trkpt>
      <trkpt lat="44.77373" lon="5.34811">
        <ele>407.5</ele>
        <time>2021-09-01T14:38:04Z</time>
      </trkpt>
      <trkpt lat="44.77366" lon="5.34805">
        <ele>407.2</ele>
        <time>2021-09-01T14:38:05Z</time>
      </trkpt>
      <trkpt lat="44.77352" lon="5.34796">
        <ele>406.6</ele>
        <time>2021-09-01T14:38:07Z</time>
      </trkpt>
      <trkpt lat="44.77345" lon="5.34792">
        <ele>406.3</ele>
        <time>2021-09-01T14:38:08Z</time>
      </trkpt>
      <trkpt lat="44.77331" lon="5.34785">
        <ele>405.7</ele>
        <time>2021-09-01T14:38:10Z</time>
      </trkpt>
      <trkpt lat="44.77324" lon="5.34781">
        <ele>405.4</ele>
        <time>2021-09-01T14:38:11Z</time>
      </trkpt>
      <trkpt lat="44.77311" lon="5.34771">
        <ele>404.8</ele>
        <time>2021-09-01T14:38:13Z</time>
      </trkpt>
      <trkpt lat="44.77297" lon="5.34761">
        <ele>404.2</ele>
        <time>2021-09-01T14:38:15Z</time>
      </trkpt>
      <trkpt lat="44.77283" lon="5.34752">
        <ele>403.7</ele>
        <time>2021-09-01T14:38:17Z</time>
      </trkpt>
      <trkpt lat="44.77269" lon="5.34744">
        <ele>403.2</ele>
        <time>2021-09-01T14:38:19Z</time>
      </trkpt>
      <trkpt lat="44.77256" lon="5.34737">
        <ele>402.6</ele>
        <time>2021-09-01T14:38:21Z</time>
      </trkpt>
      <trkpt lat="44.77249" lon="5.34733">
        <ele>402.3</ele>
        <time>2021-09-01T14:38:22Z</time>
      </trkpt>
      <trkpt lat="44.77242" lon="5.34729">
        <ele>402.1</ele>
        <time>2021-09-01T14:38:23Z</time>
      </trkpt>
      <trkpt lat="44.77229" lon="5.34721">
        <ele>401.6</ele>
        <time>2021-09-01T14:38:25Z</time>
      </trkpt>
      <trkpt lat="44.77216" lon="5.34713">
        <ele>401.3</ele>
        <time>2021-09-01T14:38:27Z</time>
      </trkpt>
      <trkpt lat="44.7721" lon="5.34709">
        <ele>401.2</ele>
        <time>2021-09-01T14:38:28Z</time>
      </trkpt>
      <trkpt lat="44.77196" lon="5.34703">
        <ele>401</ele>
        <time>2021-09-01T14:38:30Z</time>
      </trkpt>
      <trkpt lat="44.7719" lon="5.347">
        <ele>400.8</ele>
        <time>2021-09-01T14:38:31Z</time>
      </trkpt>
      <trkpt lat="44.77177" lon="5.34695">
        <ele>400.6</ele>
        <time>2021-09-01T14:38:33Z</time>
      </trkpt>
      <trkpt lat="44.7717" lon="5.34694">
        <ele>400.5</ele>
        <time>2021-09-01T14:38:34Z</time>
      </trkpt>
      <trkpt lat="44.77164" lon="5.34693">
        <ele>400.4</ele>
        <time>2021-09-01T14:38:35Z</time>
      </trkpt>
      <trkpt lat="44.7715" lon="5.34696">
        <ele>400.2</ele>
        <time>2021-09-01T14:38:37Z</time>
      </trkpt>
      <trkpt lat="44.77138" lon="5.34704">
        <ele>400</ele>
        <time>2021-09-01T14:38:39Z</time>
      </trkpt>
      <trkpt lat="44.77133" lon="5.34709">
        <ele>399.8</ele>
        <time>2021-09-01T14:38:40Z</time>
      </trkpt>
      <trkpt lat="44.77122" lon="5.3472">
        <ele>399.6</ele>
        <time>2021-09-01T14:38:42Z</time>
      </trkpt>
      <trkpt lat="44.77118" lon="5.34726">
        <ele>399.5</ele>
        <time>2021-09-01T14:38:43Z</time>
      </trkpt>
      <trkpt lat="44.77109" lon="5.3474">
        <ele>399.4</ele>
        <time>2021-09-01T14:38:45Z</time>
      </trkpt>
      <trkpt lat="44.77105" lon="5.34748">
        <ele>399.3</ele>
        <time>2021-09-01T14:38:46Z</time>
      </trkpt>
      <trkpt lat="44.77102" lon="5.34756">
        <ele>399.2</ele>
        <time>2021-09-01T14:38:47Z</time>
      </trkpt>
      <trkpt lat="44.77099" lon="5.34764">
        <ele>399.2</ele>
        <time>2021-09-01T14:38:48Z</time>
      </trkpt>
      <trkpt lat="44.77096" lon="5.34774">
        <ele>399.1</ele>
        <time>2021-09-01T14:38:49Z</time>
      </trkpt>
      <trkpt lat="44.77091" lon="5.34793">
        <ele>398.9</ele>
        <time>2021-09-01T14:38:51Z</time>
      </trkpt>
      <trkpt lat="44.77089" lon="5.34803">
        <ele>398.8</ele>
        <time>2021-09-01T14:38:52Z</time>
      </trkpt>
      <trkpt lat="44.77086" lon="5.34812">
        <ele>398.7</ele>
        <time>2021-09-01T14:38:53Z</time>
      </trkpt>
      <trkpt lat="44.77083" lon="5.34821">
        <ele>398.6</ele>
        <time>2021-09-01T14:38:54Z</time>
      </trkpt>
      <trkpt lat="44.77076" lon="5.34839">
        <ele>398.4</ele>
        <time>2021-09-01T14:38:56Z</time>
      </trkpt>
      <trkpt lat="44.77072" lon="5.34848">
        <ele>398.3</ele>
        <time>2021-09-01T14:38:57Z</time>
      </trkpt>
      <trkpt lat="44.77063" lon="5.34865">
        <ele>398.1</ele>
        <time>2021-09-01T14:38:59Z</time>
      </trkpt>
      <trkpt lat="44.77059" lon="5.34873">
        <ele>398</ele>
        <time>2021-09-01T14:39:00Z</time>
      </trkpt>
      <trkpt lat="44.77053" lon="5.3488">
        <ele>397.9</ele>
        <time>2021-09-01T14:39:01Z</time>
      </trkpt>
      <trkpt lat="44.77043" lon="5.34896">
        <ele>397.7</ele>
        <time>2021-09-01T14:39:03Z</time>
      </trkpt>
      <trkpt lat="44.77034" lon="5.34911">
        <ele>397.6</ele>
        <time>2021-09-01T14:39:05Z</time>
      </trkpt>
      <trkpt lat="44.77029" lon="5.34919">
        <ele>397.6</ele>
        <time>2021-09-01T14:39:06Z</time>
      </trkpt>
      <trkpt lat="44.77024" lon="5.34926">
        <ele>397.5</ele>
        <time>2021-09-01T14:39:07Z</time>
      </trkpt>
      <trkpt lat="44.77014" lon="5.3494">
        <ele>397.4</ele>
        <time>2021-09-01T14:39:09Z</time>
      </trkpt>
      <trkpt lat="44.77009" lon="5.34947">
        <ele>397.4</ele>
        <time>2021-09-01T14:39:10Z</time>
      </trkpt>
      <trkpt lat="44.77004" lon="5.34953">
        <ele>397.3</ele>
        <time>2021-09-01T14:39:11Z</time>
      </trkpt>
      <trkpt lat="44.77" lon="5.34959">
        <ele>397.3</ele>
        <time>2021-09-01T14:39:12Z</time>
      </trkpt>
      <trkpt lat="44.76991" lon="5.34972">
        <ele>397.2</ele>
        <time>2021-09-01T14:39:14Z</time>
      </trkpt>
      <trkpt lat="44.76986" lon="5.34978">
        <ele>397.1</ele>
        <time>2021-09-01T14:39:15Z</time>
      </trkpt>
      <trkpt lat="44.76981" lon="5.34984">
        <ele>397</ele>
        <time>2021-09-01T14:39:16Z</time>
      </trkpt>
      <trkpt lat="44.76977" lon="5.3499">
        <ele>397</ele>
        <time>2021-09-01T14:39:17Z</time>
      </trkpt>
      <trkpt lat="44.76972" lon="5.34997">
        <ele>396.9</ele>
        <time>2021-09-01T14:39:18Z</time>
      </trkpt>
      <trkpt lat="44.76963" lon="5.35009">
        <ele>396.7</ele>
        <time>2021-09-01T14:39:20Z</time>
      </trkpt>
      <trkpt lat="44.76959" lon="5.35015">
        <ele>396.7</ele>
        <time>2021-09-01T14:39:21Z</time>
      </trkpt>
      <trkpt lat="44.76954" lon="5.35021">
        <ele>396.6</ele>
        <time>2021-09-01T14:39:22Z</time>
      </trkpt>
      <trkpt lat="44.76945" lon="5.35032">
        <ele>396.4</ele>
        <time>2021-09-01T14:39:24Z</time>
      </trkpt>
      <trkpt lat="44.7694" lon="5.35037">
        <ele>396.2</ele>
        <time>2021-09-01T14:39:25Z</time>
      </trkpt>
      <trkpt lat="44.76929" lon="5.35044">
        <ele>395.9</ele>
        <time>2021-09-01T14:39:27Z</time>
      </trkpt>
      <trkpt lat="44.76923" lon="5.35047">
        <ele>395.8</ele>
        <time>2021-09-01T14:39:28Z</time>
      </trkpt>
      <trkpt lat="44.76917" lon="5.35049">
        <ele>395.6</ele>
        <time>2021-09-01T14:39:29Z</time>
      </trkpt>
      <trkpt lat="44.76911" lon="5.35051">
        <ele>395.4</ele>
        <time>2021-09-01T14:39:30Z</time>
      </trkpt>
      <trkpt lat="44.76899" lon="5.35053">
        <ele>395</ele>
        <time>2021-09-01T14:39:32Z</time>
      </trkpt>
      <trkpt lat="44.76893" lon="5.35053">
        <ele>394.8</ele>
        <time>2021-09-01T14:39:33Z</time>
      </trkpt>
      <trkpt lat="44.7688" lon="5.35049">
        <ele>394.3</ele>
        <time>2021-09-01T14:39:35Z</time>
      </trkpt>
      <trkpt lat="44.76869" lon="5.35045">
        <ele>393.9</ele>
        <time>2021-09-01T14:39:37Z</time>
      </trkpt>
      <trkpt lat="44.76865" lon="5.35043">
        <ele>393.7</ele>
        <time>2021-09-01T14:39:38Z</time>
      </trkpt>
      <trkpt lat="44.76856" lon="5.35042">
        <ele>393.4</ele>
        <time>2021-09-01T14:39:40Z</time>
      </trkpt>
      <trkpt lat="44.76851" lon="5.35043">
        <ele>392.5</ele>
        <time>2021-09-01T14:39:41Z</time>
      </trkpt>
      <trkpt lat="44.76841" lon="5.35048">
        <ele>392.1</ele>
        <time>2021-09-01T14:39:43Z</time>
      </trkpt>
      <trkpt lat="44.76835" lon="5.35052">
        <ele>391.9</ele>
        <time>2021-09-01T14:39:44Z</time>
      </trkpt>
      <trkpt lat="44.76824" lon="5.35062">
        <ele>391.6</ele>
        <time>2021-09-01T14:39:46Z</time>
      </trkpt>
      <trkpt lat="44.76813" lon="5.35073">
        <ele>391.4</ele>
        <time>2021-09-01T14:39:48Z</time>
      </trkpt>
      <trkpt lat="44.76807" lon="5.35078">
        <ele>391.3</ele>
        <time>2021-09-01T14:39:49Z</time>
      </trkpt>
      <trkpt lat="44.76802" lon="5.35084">
        <ele>391.3</ele>
        <time>2021-09-01T14:39:50Z</time>
      </trkpt>
      <trkpt lat="44.76796" lon="5.3509">
        <ele>391.2</ele>
        <time>2021-09-01T14:39:51Z</time>
      </trkpt>
      <trkpt lat="44.76785" lon="5.35102">
        <ele>391.3</ele>
        <time>2021-09-01T14:39:53Z</time>
      </trkpt>
      <trkpt lat="44.76779" lon="5.35107">
        <ele>391.3</ele>
        <time>2021-09-01T14:39:54Z</time>
      </trkpt>
      <trkpt lat="44.76773" lon="5.35113">
        <ele>391.4</ele>
        <time>2021-09-01T14:39:55Z</time>
      </trkpt>
      <trkpt lat="44.76762" lon="5.35126">
        <ele>391.6</ele>
        <time>2021-09-01T14:39:57Z</time>
      </trkpt>
      <trkpt lat="44.76757" lon="5.35132">
        <ele>391.7</ele>
        <time>2021-09-01T14:39:58Z</time>
      </trkpt>
      <trkpt lat="44.76752" lon="5.35139">
        <ele>391.8</ele>
        <time>2021-09-01T14:39:59Z</time>
      </trkpt>
      <trkpt lat="44.76744" lon="5.35151">
        <ele>392.1</ele>
        <time>2021-09-01T14:40:01Z</time>
      </trkpt>
      <trkpt lat="44.76735" lon="5.35163">
        <ele>392.4</ele>
        <time>2021-09-01T14:40:03Z</time>
      </trkpt>
      <trkpt lat="44.76732" lon="5.35168">
        <ele>392.6</ele>
        <time>2021-09-01T14:40:04Z</time>
      </trkpt>
      <trkpt lat="44.76724" lon="5.3518">
        <ele>392.9</ele>
        <time>2021-09-01T14:40:06Z</time>
      </trkpt>
      <trkpt lat="44.7672" lon="5.35185">
        <ele>393</ele>
        <time>2021-09-01T14:40:07Z</time>
      </trkpt>
      <trkpt lat="44.76712" lon="5.35195">
        <ele>393.2</ele>
        <time>2021-09-01T14:40:09Z</time>
      </trkpt>
      <trkpt lat="44.76708" lon="5.352">
        <ele>393.3</ele>
        <time>2021-09-01T14:40:10Z</time>
      </trkpt>
      <trkpt lat="44.76702" lon="5.3521">
        <ele>393.5</ele>
        <time>2021-09-01T14:40:12Z</time>
      </trkpt>
      <trkpt lat="44.76698" lon="5.35215">
        <ele>393.6</ele>
        <time>2021-09-01T14:40:13Z</time>
      </trkpt>
      <trkpt lat="44.76695" lon="5.35219">
        <ele>393.7</ele>
        <time>2021-09-01T14:40:14Z</time>
      </trkpt>
      <trkpt lat="44.76689" lon="5.35227">
        <ele>393.8</ele>
        <time>2021-09-01T14:40:16Z</time>
      </trkpt>
      <trkpt lat="44.76687" lon="5.35231">
        <ele>393.9</ele>
        <time>2021-09-01T14:40:17Z</time>
      </trkpt>
      <trkpt lat="44.7668" lon="5.3524">
        <ele>394.1</ele>
        <time>2021-09-01T14:40:19Z</time>
      </trkpt>
      <trkpt lat="44.76673" lon="5.35249">
        <ele>394.2</ele>
        <time>2021-09-01T14:40:21Z</time>
      </trkpt>
      <trkpt lat="44.76673" lon="5.35253">
        <ele>394.2</ele>
        <time>2021-09-01T14:40:22Z</time>
      </trkpt>
      <trkpt lat="44.76671" lon="5.35255">
        <ele>394.3</ele>
        <time>2021-09-01T14:40:23Z</time>
      </trkpt>
      <trkpt lat="44.76669" lon="5.35257">
        <ele>394.3</ele>
        <time>2021-09-01T14:40:24Z</time>
      </trkpt>
      <trkpt lat="44.76662" lon="5.35265">
        <ele>394.5</ele>
        <time>2021-09-01T14:40:26Z</time>
      </trkpt>
      <trkpt lat="44.76655" lon="5.35273">
        <ele>394.6</ele>
        <time>2021-09-01T14:40:28Z</time>
      </trkpt>
      <trkpt lat="44.76648" lon="5.35281">
        <ele>394.6</ele>
        <time>2021-09-01T14:40:29Z</time>
      </trkpt>
      <trkpt lat="44.76644" lon="5.35286">
        <ele>394.6</ele>
        <time>2021-09-01T14:40:31Z</time>
      </trkpt>
      <trkpt lat="44.76641" lon="5.35291">
        <ele>394.7</ele>
        <time>2021-09-01T14:40:32Z</time>
      </trkpt>
      <trkpt lat="44.76636" lon="5.35297">
        <ele>394.7</ele>
        <time>2021-09-01T14:40:33Z</time>
      </trkpt>
      <trkpt lat="44.76631" lon="5.35304">
        <ele>394.7</ele>
        <time>2021-09-01T14:40:35Z</time>
      </trkpt>
      <trkpt lat="44.76628" lon="5.35309">
        <ele>394.7</ele>
        <time>2021-09-01T14:40:36Z</time>
      </trkpt>
      <trkpt lat="44.76622" lon="5.35317">
        <ele>394.7</ele>
        <time>2021-09-01T14:40:38Z</time>
      </trkpt>
      <trkpt lat="44.76615" lon="5.35325">
        <ele>394.8</ele>
        <time>2021-09-01T14:40:40Z</time>
      </trkpt>
      <trkpt lat="44.76611" lon="5.35331">
        <ele>394.8</ele>
        <time>2021-09-01T14:40:41Z</time>
      </trkpt>
      <trkpt lat="44.76605" lon="5.3534">
        <ele>394.8</ele>
        <time>2021-09-01T14:40:43Z</time>
      </trkpt>
      <trkpt lat="44.76598" lon="5.35349">
        <ele>394.8</ele>
        <time>2021-09-01T14:40:45Z</time>
      </trkpt>
      <trkpt lat="44.76591" lon="5.35359">
        <ele>394.8</ele>
        <time>2021-09-01T14:40:47Z</time>
      </trkpt>
      <trkpt lat="44.76588" lon="5.35363">
        <ele>394.9</ele>
        <time>2021-09-01T14:40:48Z</time>
      </trkpt>
      <trkpt lat="44.76584" lon="5.35368">
        <ele>394.9</ele>
        <time>2021-09-01T14:40:49Z</time>
      </trkpt>
      <trkpt lat="44.76578" lon="5.35378">
        <ele>395.1</ele>
        <time>2021-09-01T14:40:51Z</time>
      </trkpt>
      <trkpt lat="44.76571" lon="5.35387">
        <ele>395.2</ele>
        <time>2021-09-01T14:40:53Z</time>
      </trkpt>
      <trkpt lat="44.76563" lon="5.35395">
        <ele>395.3</ele>
        <time>2021-09-01T14:40:55Z</time>
      </trkpt>
      <trkpt lat="44.76556" lon="5.35401">
        <ele>395.3</ele>
        <time>2021-09-01T14:40:57Z</time>
      </trkpt>
      <trkpt lat="44.76552" lon="5.35403">
        <ele>395.3</ele>
        <time>2021-09-01T14:40:58Z</time>
      </trkpt>
      <trkpt lat="44.76549" lon="5.35406">
        <ele>395.4</ele>
        <time>2021-09-01T14:40:59Z</time>
      </trkpt>
      <trkpt lat="44.7654" lon="5.35412">
        <ele>395.4</ele>
        <time>2021-09-01T14:41:01Z</time>
      </trkpt>
      <trkpt lat="44.76536" lon="5.35418">
        <ele>395.4</ele>
        <time>2021-09-01T14:41:02Z</time>
      </trkpt>
      <trkpt lat="44.76532" lon="5.35427">
        <ele>395.4</ele>
        <time>2021-09-01T14:41:04Z</time>
      </trkpt>
      <trkpt lat="44.7653" lon="5.35432">
        <ele>395.4</ele>
        <time>2021-09-01T14:41:05Z</time>
      </trkpt>
      <trkpt lat="44.76528" lon="5.35438">
        <ele>395.5</ele>
        <time>2021-09-01T14:41:06Z</time>
      </trkpt>
      <trkpt lat="44.76524" lon="5.35445">
        <ele>395.5</ele>
        <time>2021-09-01T14:41:07Z</time>
      </trkpt>
      <trkpt lat="44.76521" lon="5.35449">
        <ele>395.5</ele>
        <time>2021-09-01T14:41:08Z</time>
      </trkpt>
      <trkpt lat="44.76515" lon="5.35456">
        <ele>395.6</ele>
        <time>2021-09-01T14:41:10Z</time>
      </trkpt>
      <trkpt lat="44.76512" lon="5.35461">
        <ele>395.6</ele>
        <time>2021-09-01T14:41:11Z</time>
      </trkpt>
      <trkpt lat="44.76508" lon="5.35469">
        <ele>395.7</ele>
        <time>2021-09-01T14:41:12Z</time>
      </trkpt>
      <trkpt lat="44.76505" lon="5.35474">
        <ele>395.8</ele>
        <time>2021-09-01T14:41:14Z</time>
      </trkpt>
      <trkpt lat="44.76501" lon="5.35479">
        <ele>395.8</ele>
        <time>2021-09-01T14:41:15Z</time>
      </trkpt>
      <trkpt lat="44.76497" lon="5.35483">
        <ele>395.9</ele>
        <time>2021-09-01T14:41:16Z</time>
      </trkpt>
      <trkpt lat="44.76495" lon="5.35488">
        <ele>395.9</ele>
        <time>2021-09-01T14:41:17Z</time>
      </trkpt>
      <trkpt lat="44.76489" lon="5.35495">
        <ele>396</ele>
        <time>2021-09-01T14:41:19Z</time>
      </trkpt>
      <trkpt lat="44.76484" lon="5.35501">
        <ele>396</ele>
        <time>2021-09-01T14:41:20Z</time>
      </trkpt>
      <trkpt lat="44.7648" lon="5.35506">
        <ele>396.1</ele>
        <time>2021-09-01T14:41:22Z</time>
      </trkpt>
      <trkpt lat="44.76474" lon="5.35513">
        <ele>396.1</ele>
        <time>2021-09-01T14:41:23Z</time>
      </trkpt>
      <trkpt lat="44.76471" lon="5.35517">
        <ele>396.2</ele>
        <time>2021-09-01T14:41:24Z</time>
      </trkpt>
      <trkpt lat="44.76467" lon="5.35521">
        <ele>396.2</ele>
        <time>2021-09-01T14:41:25Z</time>
      </trkpt>
      <trkpt lat="44.76464" lon="5.35525">
        <ele>396.3</ele>
        <time>2021-09-01T14:41:26Z</time>
      </trkpt>
      <trkpt lat="44.76461" lon="5.35529">
        <ele>396.3</ele>
        <time>2021-09-01T14:41:27Z</time>
      </trkpt>
      <trkpt lat="44.76454" lon="5.35537">
        <ele>396.4</ele>
        <time>2021-09-01T14:41:29Z</time>
      </trkpt>
      <trkpt lat="44.76451" lon="5.35541">
        <ele>396.5</ele>
        <time>2021-09-01T14:41:30Z</time>
      </trkpt>
      <trkpt lat="44.76446" lon="5.35547">
        <ele>396.5</ele>
        <time>2021-09-01T14:41:32Z</time>
      </trkpt>
      <trkpt lat="44.76441" lon="5.35552">
        <ele>396.6</ele>
        <time>2021-09-01T14:41:33Z</time>
      </trkpt>
      <trkpt lat="44.76437" lon="5.35558">
        <ele>396.6</ele>
        <time>2021-09-01T14:41:35Z</time>
      </trkpt>
      <trkpt lat="44.76432" lon="5.35564">
        <ele>396.7</ele>
        <time>2021-09-01T14:41:36Z</time>
      </trkpt>
      <trkpt lat="44.76427" lon="5.35569">
        <ele>396.8</ele>
        <time>2021-09-01T14:41:38Z</time>
      </trkpt>
      <trkpt lat="44.76422" lon="5.35574">
        <ele>396.9</ele>
        <time>2021-09-01T14:41:39Z</time>
      </trkpt>
      <trkpt lat="44.76419" lon="5.35577">
        <ele>396.9</ele>
        <time>2021-09-01T14:41:40Z</time>
      </trkpt>
      <trkpt lat="44.76413" lon="5.35583">
        <ele>397</ele>
        <time>2021-09-01T14:41:42Z</time>
      </trkpt>
      <trkpt lat="44.76409" lon="5.35587">
        <ele>397.1</ele>
        <time>2021-09-01T14:41:43Z</time>
      </trkpt>
      <trkpt lat="44.76402" lon="5.35594">
        <ele>397.2</ele>
        <time>2021-09-01T14:41:45Z</time>
      </trkpt>
      <trkpt lat="44.76396" lon="5.356">
        <ele>397.2</ele>
        <time>2021-09-01T14:41:47Z</time>
      </trkpt>
      <trkpt lat="44.76389" lon="5.35607">
        <ele>397.3</ele>
        <time>2021-09-01T14:41:49Z</time>
      </trkpt>
      <trkpt lat="44.76382" lon="5.35615">
        <ele>397.3</ele>
        <time>2021-09-01T14:41:51Z</time>
      </trkpt>
      <trkpt lat="44.76375" lon="5.35623">
        <ele>397.3</ele>
        <time>2021-09-01T14:41:53Z</time>
      </trkpt>
      <trkpt lat="44.76372" lon="5.35627">
        <ele>397.4</ele>
        <time>2021-09-01T14:41:54Z</time>
      </trkpt>
      <trkpt lat="44.76368" lon="5.35631">
        <ele>397.4</ele>
        <time>2021-09-01T14:41:55Z</time>
      </trkpt>
      <trkpt lat="44.76361" lon="5.35639">
        <ele>397.4</ele>
        <time>2021-09-01T14:41:57Z</time>
      </trkpt>
      <trkpt lat="44.76358" lon="5.35644">
        <ele>397.5</ele>
        <time>2021-09-01T14:41:58Z</time>
      </trkpt>
      <trkpt lat="44.76354" lon="5.35648">
        <ele>397.5</ele>
        <time>2021-09-01T14:41:59Z</time>
      </trkpt>
      <trkpt lat="44.76351" lon="5.35652">
        <ele>397.5</ele>
        <time>2021-09-01T14:42:00Z</time>
      </trkpt>
      <trkpt lat="44.76347" lon="5.35656">
        <ele>397.5</ele>
        <time>2021-09-01T14:42:01Z</time>
      </trkpt>
      <trkpt lat="44.76343" lon="5.35661">
        <ele>397.5</ele>
        <time>2021-09-01T14:42:02Z</time>
      </trkpt>
      <trkpt lat="44.76337" lon="5.35669">
        <ele>397.6</ele>
        <time>2021-09-01T14:42:04Z</time>
      </trkpt>
      <trkpt lat="44.76332" lon="5.35675">
        <ele>397.6</ele>
        <time>2021-09-01T14:42:06Z</time>
      </trkpt>
      <trkpt lat="44.7633" lon="5.35679">
        <ele>397.6</ele>
        <time>2021-09-01T14:42:07Z</time>
      </trkpt>
      <trkpt lat="44.76325" lon="5.35684">
        <ele>397.7</ele>
        <time>2021-09-01T14:42:08Z</time>
      </trkpt>
      <trkpt lat="44.7632" lon="5.3569">
        <ele>397.7</ele>
        <time>2021-09-01T14:42:10Z</time>
      </trkpt>
      <trkpt lat="44.76316" lon="5.35694">
        <ele>397.7</ele>
        <time>2021-09-01T14:42:11Z</time>
      </trkpt>
      <trkpt lat="44.76312" lon="5.357">
        <ele>397.8</ele>
        <time>2021-09-01T14:42:12Z</time>
      </trkpt>
      <trkpt lat="44.76308" lon="5.35705">
        <ele>397.8</ele>
        <time>2021-09-01T14:42:13Z</time>
      </trkpt>
      <trkpt lat="44.76302" lon="5.35711">
        <ele>397.8</ele>
        <time>2021-09-01T14:42:15Z</time>
      </trkpt>
      <trkpt lat="44.76299" lon="5.35716">
        <ele>397.9</ele>
        <time>2021-09-01T14:42:16Z</time>
      </trkpt>
      <trkpt lat="44.76295" lon="5.3572">
        <ele>397.9</ele>
        <time>2021-09-01T14:42:17Z</time>
      </trkpt>
      <trkpt lat="44.7629" lon="5.35726">
        <ele>397.9</ele>
        <time>2021-09-01T14:42:18Z</time>
      </trkpt>
      <trkpt lat="44.76285" lon="5.35733">
        <ele>398</ele>
        <time>2021-09-01T14:42:20Z</time>
      </trkpt>
      <trkpt lat="44.76281" lon="5.35737">
        <ele>398</ele>
        <time>2021-09-01T14:42:21Z</time>
      </trkpt>
      <trkpt lat="44.76274" lon="5.35745">
        <ele>398.1</ele>
        <time>2021-09-01T14:42:23Z</time>
      </trkpt>
      <trkpt lat="44.76271" lon="5.3575">
        <ele>398.1</ele>
        <time>2021-09-01T14:42:24Z</time>
      </trkpt>
      <trkpt lat="44.76264" lon="5.35758">
        <ele>398.2</ele>
        <time>2021-09-01T14:42:26Z</time>
      </trkpt>
      <trkpt lat="44.76258" lon="5.35766">
        <ele>398.3</ele>
        <time>2021-09-01T14:42:28Z</time>
      </trkpt>
      <trkpt lat="44.76255" lon="5.3577">
        <ele>398.3</ele>
        <time>2021-09-01T14:42:29Z</time>
      </trkpt>
      <trkpt lat="44.76252" lon="5.35774">
        <ele>398.4</ele>
        <time>2021-09-01T14:42:30Z</time>
      </trkpt>
      <trkpt lat="44.76247" lon="5.35781">
        <ele>398.5</ele>
        <time>2021-09-01T14:42:31Z</time>
      </trkpt>
      <trkpt lat="44.76243" lon="5.35785">
        <ele>398.6</ele>
        <time>2021-09-01T14:42:33Z</time>
      </trkpt>
      <trkpt lat="44.76237" lon="5.35791">
        <ele>398.7</ele>
        <time>2021-09-01T14:42:34Z</time>
      </trkpt>
      <trkpt lat="44.76233" lon="5.35796">
        <ele>398.8</ele>
        <time>2021-09-01T14:42:36Z</time>
      </trkpt>
      <trkpt lat="44.7623" lon="5.35799">
        <ele>398.8</ele>
        <time>2021-09-01T14:42:37Z</time>
      </trkpt>
      <trkpt lat="44.76227" lon="5.35803">
        <ele>398.9</ele>
        <time>2021-09-01T14:42:38Z</time>
      </trkpt>
      <trkpt lat="44.76222" lon="5.35809">
        <ele>399</ele>
        <time>2021-09-01T14:42:39Z</time>
      </trkpt>
      <trkpt lat="44.76218" lon="5.35814">
        <ele>399.1</ele>
        <time>2021-09-01T14:42:40Z</time>
      </trkpt>
      <trkpt lat="44.76215" lon="5.35819">
        <ele>399.1</ele>
        <time>2021-09-01T14:42:42Z</time>
      </trkpt>
      <trkpt lat="44.7621" lon="5.35826">
        <ele>399.2</ele>
        <time>2021-09-01T14:42:44Z</time>
      </trkpt>
      <trkpt lat="44.76206" lon="5.3583">
        <ele>399.2</ele>
        <time>2021-09-01T14:42:45Z</time>
      </trkpt>
      <trkpt lat="44.76204" lon="5.35834">
        <ele>399.2</ele>
        <time>2021-09-01T14:42:46Z</time>
      </trkpt>
      <trkpt lat="44.76201" lon="5.35838">
        <ele>399.2</ele>
        <time>2021-09-01T14:42:47Z</time>
      </trkpt>
      <trkpt lat="44.76198" lon="5.35843">
        <ele>399.2</ele>
        <time>2021-09-01T14:42:48Z</time>
      </trkpt>
      <trkpt lat="44.76196" lon="5.35847">
        <ele>399.2</ele>
        <time>2021-09-01T14:42:49Z</time>
      </trkpt>
      <trkpt lat="44.76192" lon="5.35853">
        <ele>399.3</ele>
        <time>2021-09-01T14:42:51Z</time>
      </trkpt>
      <trkpt lat="44.76187" lon="5.3586">
        <ele>399.3</ele>
        <time>2021-09-01T14:42:53Z</time>
      </trkpt>
      <trkpt lat="44.76182" lon="5.35865">
        <ele>399.3</ele>
        <time>2021-09-01T14:42:54Z</time>
      </trkpt>
      <trkpt lat="44.76178" lon="5.35871">
        <ele>399.3</ele>
        <time>2021-09-01T14:42:56Z</time>
      </trkpt>
      <trkpt lat="44.76174" lon="5.35875">
        <ele>399.3</ele>
        <time>2021-09-01T14:42:57Z</time>
      </trkpt>
      <trkpt lat="44.76167" lon="5.35884">
        <ele>399.4</ele>
        <time>2021-09-01T14:42:59Z</time>
      </trkpt>
      <trkpt lat="44.76164" lon="5.35888">
        <ele>399.4</ele>
        <time>2021-09-01T14:43:00Z</time>
      </trkpt>
      <trkpt lat="44.76161" lon="5.35892">
        <ele>399.4</ele>
        <time>2021-09-01T14:43:01Z</time>
      </trkpt>
      <trkpt lat="44.76158" lon="5.35896">
        <ele>399.5</ele>
        <time>2021-09-01T14:43:02Z</time>
      </trkpt>
      <trkpt lat="44.76152" lon="5.35902">
        <ele>399.5</ele>
        <time>2021-09-01T14:43:03Z</time>
      </trkpt>
      <trkpt lat="44.76148" lon="5.35907">
        <ele>399.5</ele>
        <time>2021-09-01T14:43:05Z</time>
      </trkpt>
      <trkpt lat="44.76144" lon="5.35911">
        <ele>399.6</ele>
        <time>2021-09-01T14:43:06Z</time>
      </trkpt>
      <trkpt lat="44.76138" lon="5.35917">
        <ele>399.6</ele>
        <time>2021-09-01T14:43:07Z</time>
      </trkpt>
      <trkpt lat="44.76134" lon="5.35921">
        <ele>399.6</ele>
        <time>2021-09-01T14:43:08Z</time>
      </trkpt>
      <trkpt lat="44.7613" lon="5.35926">
        <ele>399.7</ele>
        <time>2021-09-01T14:43:09Z</time>
      </trkpt>
      <trkpt lat="44.76126" lon="5.35931">
        <ele>399.7</ele>
        <time>2021-09-01T14:43:11Z</time>
      </trkpt>
      <trkpt lat="44.76123" lon="5.35936">
        <ele>399.7</ele>
        <time>2021-09-01T14:43:12Z</time>
      </trkpt>
      <trkpt lat="44.76118" lon="5.35941">
        <ele>399.7</ele>
        <time>2021-09-01T14:43:13Z</time>
      </trkpt>
      <trkpt lat="44.76115" lon="5.35947">
        <ele>399.8</ele>
        <time>2021-09-01T14:43:14Z</time>
      </trkpt>
      <trkpt lat="44.76112" lon="5.35951">
        <ele>399.8</ele>
        <time>2021-09-01T14:43:15Z</time>
      </trkpt>
      <trkpt lat="44.76109" lon="5.35956">
        <ele>399.9</ele>
        <time>2021-09-01T14:43:17Z</time>
      </trkpt>
      <trkpt lat="44.76105" lon="5.35961">
        <ele>400</ele>
        <time>2021-09-01T14:43:18Z</time>
      </trkpt>
      <trkpt lat="44.76101" lon="5.35967">
        <ele>400.1</ele>
        <time>2021-09-01T14:43:19Z</time>
      </trkpt>
      <trkpt lat="44.76098" lon="5.35974">
        <ele>400.2</ele>
        <time>2021-09-01T14:43:21Z</time>
      </trkpt>
      <trkpt lat="44.76094" lon="5.35979">
        <ele>400.3</ele>
        <time>2021-09-01T14:43:22Z</time>
      </trkpt>
      <trkpt lat="44.76092" lon="5.35983">
        <ele>400.4</ele>
        <time>2021-09-01T14:43:23Z</time>
      </trkpt>
      <trkpt lat="44.76089" lon="5.35987">
        <ele>400.5</ele>
        <time>2021-09-01T14:43:24Z</time>
      </trkpt>
      <trkpt lat="44.76087" lon="5.35991">
        <ele>400.5</ele>
        <time>2021-09-01T14:43:25Z</time>
      </trkpt>
      <trkpt lat="44.76083" lon="5.35997">
        <ele>400.5</ele>
        <time>2021-09-01T14:43:27Z</time>
      </trkpt>
      <trkpt lat="44.7608" lon="5.36">
        <ele>400.5</ele>
        <time>2021-09-01T14:43:28Z</time>
      </trkpt>
      <trkpt lat="44.76074" lon="5.36007">
        <ele>400.4</ele>
        <time>2021-09-01T14:43:30Z</time>
      </trkpt>
      <trkpt lat="44.7607" lon="5.36011">
        <ele>400.4</ele>
        <time>2021-09-01T14:43:31Z</time>
      </trkpt>
      <trkpt lat="44.76066" lon="5.36015">
        <ele>400.3</ele>
        <time>2021-09-01T14:43:32Z</time>
      </trkpt>
      <trkpt lat="44.76063" lon="5.36019">
        <ele>400.3</ele>
        <time>2021-09-01T14:43:33Z</time>
      </trkpt>
      <trkpt lat="44.76058" lon="5.36025">
        <ele>400.2</ele>
        <time>2021-09-01T14:43:34Z</time>
      </trkpt>
      <trkpt lat="44.76054" lon="5.36032">
        <ele>400.1</ele>
        <time>2021-09-01T14:43:36Z</time>
      </trkpt>
      <trkpt lat="44.76049" lon="5.36038">
        <ele>400</ele>
        <time>2021-09-01T14:43:37Z</time>
      </trkpt>
      <trkpt lat="44.76042" lon="5.36046">
        <ele>399.9</ele>
        <time>2021-09-01T14:43:39Z</time>
      </trkpt>
      <trkpt lat="44.76034" lon="5.36055">
        <ele>399.8</ele>
        <time>2021-09-01T14:43:41Z</time>
      </trkpt>
      <trkpt lat="44.76025" lon="5.36066">
        <ele>399.7</ele>
        <time>2021-09-01T14:43:43Z</time>
      </trkpt>
      <trkpt lat="44.76017" lon="5.36077">
        <ele>399.6</ele>
        <time>2021-09-01T14:43:45Z</time>
      </trkpt>
      <trkpt lat="44.76008" lon="5.36089">
        <ele>399.5</ele>
        <time>2021-09-01T14:43:47Z</time>
      </trkpt>
      <trkpt lat="44.76004" lon="5.36095">
        <ele>399.4</ele>
        <time>2021-09-01T14:43:48Z</time>
      </trkpt>
      <trkpt lat="44.75994" lon="5.36106">
        <ele>399.4</ele>
        <time>2021-09-01T14:43:50Z</time>
      </trkpt>
      <trkpt lat="44.75985" lon="5.36115">
        <ele>399.3</ele>
        <time>2021-09-01T14:43:52Z</time>
      </trkpt>
      <trkpt lat="44.75981" lon="5.3612">
        <ele>399.3</ele>
        <time>2021-09-01T14:43:53Z</time>
      </trkpt>
      <trkpt lat="44.75978" lon="5.36125">
        <ele>399.3</ele>
        <time>2021-09-01T14:43:54Z</time>
      </trkpt>
      <trkpt lat="44.7597" lon="5.36133">
        <ele>399.3</ele>
        <time>2021-09-01T14:43:56Z</time>
      </trkpt>
      <trkpt lat="44.75966" lon="5.36137">
        <ele>399.2</ele>
        <time>2021-09-01T14:43:57Z</time>
      </trkpt>
      <trkpt lat="44.75963" lon="5.36141">
        <ele>399.2</ele>
        <time>2021-09-01T14:43:58Z</time>
      </trkpt>
      <trkpt lat="44.75956" lon="5.36148">
        <ele>399.2</ele>
        <time>2021-09-01T14:44:00Z</time>
      </trkpt>
      <trkpt lat="44.75953" lon="5.3615">
        <ele>399.2</ele>
        <time>2021-09-01T14:44:01Z</time>
      </trkpt>
      <trkpt lat="44.75952" lon="5.36149">
        <ele>399.2</ele>
        <time>2021-09-01T14:44:02Z</time>
      </trkpt>
      <trkpt lat="44.75951" lon="5.3615">
        <ele>399.2</ele>
        <time>2021-09-01T14:44:03Z</time>
      </trkpt>
      <trkpt lat="44.7595" lon="5.36151">
        <ele>399.2</ele>
        <time>2021-09-01T14:44:05Z</time>
      </trkpt>
      <trkpt lat="44.75949" lon="5.36152">
        <ele>399.2</ele>
        <time>2021-09-01T14:44:06Z</time>
      </trkpt>
      <trkpt lat="44.75946" lon="5.36153">
        <ele>399.2</ele>
        <time>2021-09-01T14:44:07Z</time>
      </trkpt>
      <trkpt lat="44.75942" lon="5.36159">
        <ele>399.1</ele>
        <time>2021-09-01T14:44:09Z</time>
      </trkpt>
      <trkpt lat="44.75938" lon="5.36165">
        <ele>399.1</ele>
        <time>2021-09-01T14:44:11Z</time>
      </trkpt>
      <trkpt lat="44.75934" lon="5.36173">
        <ele>399</ele>
        <time>2021-09-01T14:44:12Z</time>
      </trkpt>
      <trkpt lat="44.75931" lon="5.36179">
        <ele>399</ele>
        <time>2021-09-01T14:44:14Z</time>
      </trkpt>
      <trkpt lat="44.7593" lon="5.36186">
        <ele>399</ele>
        <time>2021-09-01T14:44:15Z</time>
      </trkpt>
      <trkpt lat="44.75926" lon="5.36196">
        <ele>399.1</ele>
        <time>2021-09-01T14:44:17Z</time>
      </trkpt>
      <trkpt lat="44.75923" lon="5.36201">
        <ele>399.1</ele>
        <time>2021-09-01T14:44:18Z</time>
      </trkpt>
      <trkpt lat="44.75921" lon="5.36206">
        <ele>399.1</ele>
        <time>2021-09-01T14:44:19Z</time>
      </trkpt>
      <trkpt lat="44.75918" lon="5.36213">
        <ele>399.1</ele>
        <time>2021-09-01T14:44:20Z</time>
      </trkpt>
      <trkpt lat="44.75914" lon="5.36221">
        <ele>399.1</ele>
        <time>2021-09-01T14:44:22Z</time>
      </trkpt>
      <trkpt lat="44.75911" lon="5.36226">
        <ele>399.1</ele>
        <time>2021-09-01T14:44:23Z</time>
      </trkpt>
      <trkpt lat="44.75908" lon="5.36233">
        <ele>399.1</ele>
        <time>2021-09-01T14:44:24Z</time>
      </trkpt>
      <trkpt lat="44.75904" lon="5.36241">
        <ele>399.2</ele>
        <time>2021-09-01T14:44:26Z</time>
      </trkpt>
      <trkpt lat="44.75899" lon="5.36251">
        <ele>399.2</ele>
        <time>2021-09-01T14:44:28Z</time>
      </trkpt>
      <trkpt lat="44.75897" lon="5.36257">
        <ele>399.2</ele>
        <time>2021-09-01T14:44:29Z</time>
      </trkpt>
      <trkpt lat="44.75893" lon="5.36267">
        <ele>399.3</ele>
        <time>2021-09-01T14:44:31Z</time>
      </trkpt>
      <trkpt lat="44.75892" lon="5.36273">
        <ele>399.3</ele>
        <time>2021-09-01T14:44:32Z</time>
      </trkpt>
      <trkpt lat="44.75889" lon="5.36278">
        <ele>399.3</ele>
        <time>2021-09-01T14:44:33Z</time>
      </trkpt>
      <trkpt lat="44.75885" lon="5.36288">
        <ele>399.3</ele>
        <time>2021-09-01T14:44:35Z</time>
      </trkpt>
      <trkpt lat="44.75883" lon="5.36294">
        <ele>399.3</ele>
        <time>2021-09-01T14:44:36Z</time>
      </trkpt>
      <trkpt lat="44.75879" lon="5.36301">
        <ele>399.3</ele>
        <time>2021-09-01T14:44:37Z</time>
      </trkpt>
      <trkpt lat="44.75877" lon="5.36306">
        <ele>399.4</ele>
        <time>2021-09-01T14:44:38Z</time>
      </trkpt>
      <trkpt lat="44.75873" lon="5.36313">
        <ele>399.4</ele>
        <time>2021-09-01T14:44:40Z</time>
      </trkpt>
      <trkpt lat="44.7587" lon="5.36319">
        <ele>399.4</ele>
        <time>2021-09-01T14:44:41Z</time>
      </trkpt>
      <trkpt lat="44.75862" lon="5.3633">
        <ele>399.5</ele>
        <time>2021-09-01T14:44:43Z</time>
      </trkpt>
      <trkpt lat="44.75858" lon="5.36335">
        <ele>399.5</ele>
        <time>2021-09-01T14:44:44Z</time>
      </trkpt>
      <trkpt lat="44.75854" lon="5.3634">
        <ele>399.5</ele>
        <time>2021-09-01T14:44:45Z</time>
      </trkpt>
      <trkpt lat="44.75851" lon="5.36346">
        <ele>399.5</ele>
        <time>2021-09-01T14:44:46Z</time>
      </trkpt>
      <trkpt lat="44.75849" lon="5.36351">
        <ele>399.5</ele>
        <time>2021-09-01T14:44:47Z</time>
      </trkpt>
      <trkpt lat="44.75843" lon="5.36362">
        <ele>399.6</ele>
        <time>2021-09-01T14:44:49Z</time>
      </trkpt>
      <trkpt lat="44.7584" lon="5.3637">
        <ele>399.6</ele>
        <time>2021-09-01T14:44:51Z</time>
      </trkpt>
      <trkpt lat="44.75838" lon="5.3638">
        <ele>399.7</ele>
        <time>2021-09-01T14:44:53Z</time>
      </trkpt>
      <trkpt lat="44.75836" lon="5.36389">
        <ele>399.7</ele>
        <time>2021-09-01T14:44:54Z</time>
      </trkpt>
      <trkpt lat="44.75832" lon="5.36396">
        <ele>399.8</ele>
        <time>2021-09-01T14:44:55Z</time>
      </trkpt>
      <trkpt lat="44.75827" lon="5.36403">
        <ele>399.9</ele>
        <time>2021-09-01T14:44:57Z</time>
      </trkpt>
      <trkpt lat="44.75823" lon="5.36408">
        <ele>399.9</ele>
        <time>2021-09-01T14:44:58Z</time>
      </trkpt>
      <trkpt lat="44.75819" lon="5.36414">
        <ele>400</ele>
        <time>2021-09-01T14:44:59Z</time>
      </trkpt>
      <trkpt lat="44.75814" lon="5.36422">
        <ele>400.1</ele>
        <time>2021-09-01T14:45:01Z</time>
      </trkpt>
      <trkpt lat="44.7581" lon="5.36428">
        <ele>400.2</ele>
        <time>2021-09-01T14:45:02Z</time>
      </trkpt>
      <trkpt lat="44.75807" lon="5.36432">
        <ele>400.3</ele>
        <time>2021-09-01T14:45:03Z</time>
      </trkpt>
      <trkpt lat="44.75804" lon="5.36437">
        <ele>400.3</ele>
        <time>2021-09-01T14:45:04Z</time>
      </trkpt>
      <trkpt lat="44.75801" lon="5.36442">
        <ele>400.4</ele>
        <time>2021-09-01T14:45:05Z</time>
      </trkpt>
      <trkpt lat="44.75799" lon="5.36447">
        <ele>400.5</ele>
        <time>2021-09-01T14:45:06Z</time>
      </trkpt>
      <trkpt lat="44.75796" lon="5.36453">
        <ele>400.6</ele>
        <time>2021-09-01T14:45:08Z</time>
      </trkpt>
      <trkpt lat="44.75794" lon="5.36459">
        <ele>400.7</ele>
        <time>2021-09-01T14:45:09Z</time>
      </trkpt>
      <trkpt lat="44.75791" lon="5.36463">
        <ele>400.7</ele>
        <time>2021-09-01T14:45:10Z</time>
      </trkpt>
      <trkpt lat="44.75788" lon="5.36473">
        <ele>400.8</ele>
        <time>2021-09-01T14:45:12Z</time>
      </trkpt>
      <trkpt lat="44.75784" lon="5.36482">
        <ele>400.9</ele>
        <time>2021-09-01T14:45:14Z</time>
      </trkpt>
      <trkpt lat="44.75781" lon="5.36489">
        <ele>401</ele>
        <time>2021-09-01T14:45:15Z</time>
      </trkpt>
      <trkpt lat="44.75777" lon="5.36496">
        <ele>401.1</ele>
        <time>2021-09-01T14:45:17Z</time>
      </trkpt>
      <trkpt lat="44.75775" lon="5.365">
        <ele>401.2</ele>
        <time>2021-09-01T14:45:18Z</time>
      </trkpt>
      <trkpt lat="44.75772" lon="5.36506">
        <ele>401.2</ele>
        <time>2021-09-01T14:45:19Z</time>
      </trkpt>
      <trkpt lat="44.75769" lon="5.36512">
        <ele>401.3</ele>
        <time>2021-09-01T14:45:21Z</time>
      </trkpt>
      <trkpt lat="44.75767" lon="5.36517">
        <ele>401.4</ele>
        <time>2021-09-01T14:45:22Z</time>
      </trkpt>
      <trkpt lat="44.75764" lon="5.36522">
        <ele>401.4</ele>
        <time>2021-09-01T14:45:23Z</time>
      </trkpt>
      <trkpt lat="44.75762" lon="5.36528">
        <ele>401.5</ele>
        <time>2021-09-01T14:45:24Z</time>
      </trkpt>
      <trkpt lat="44.75758" lon="5.36535">
        <ele>401.7</ele>
        <time>2021-09-01T14:45:26Z</time>
      </trkpt>
      <trkpt lat="44.75755" lon="5.3654">
        <ele>401.8</ele>
        <time>2021-09-01T14:45:27Z</time>
      </trkpt>
      <trkpt lat="44.75753" lon="5.36545">
        <ele>401.9</ele>
        <time>2021-09-01T14:45:28Z</time>
      </trkpt>
      <trkpt lat="44.7575" lon="5.36551">
        <ele>402</ele>
        <time>2021-09-01T14:45:30Z</time>
      </trkpt>
      <trkpt lat="44.75748" lon="5.36556">
        <ele>402.1</ele>
        <time>2021-09-01T14:45:31Z</time>
      </trkpt>
      <trkpt lat="44.75746" lon="5.36563">
        <ele>402.3</ele>
        <time>2021-09-01T14:45:33Z</time>
      </trkpt>
      <trkpt lat="44.75745" lon="5.36567">
        <ele>402.4</ele>
        <time>2021-09-01T14:45:34Z</time>
      </trkpt>
      <trkpt lat="44.75743" lon="5.36573">
        <ele>402.5</ele>
        <time>2021-09-01T14:45:35Z</time>
      </trkpt>
      <trkpt lat="44.75741" lon="5.36579">
        <ele>402.7</ele>
        <time>2021-09-01T14:45:37Z</time>
      </trkpt>
      <trkpt lat="44.75737" lon="5.36584">
        <ele>402.9</ele>
        <time>2021-09-01T14:45:38Z</time>
      </trkpt>
      <trkpt lat="44.75733" lon="5.36589">
        <ele>403</ele>
        <time>2021-09-01T14:45:39Z</time>
      </trkpt>
      <trkpt lat="44.75729" lon="5.36594">
        <ele>403.2</ele>
        <time>2021-09-01T14:45:41Z</time>
      </trkpt>
      <trkpt lat="44.75726" lon="5.36598">
        <ele>403.4</ele>
        <time>2021-09-01T14:45:42Z</time>
      </trkpt>
      <trkpt lat="44.75722" lon="5.36601">
        <ele>403.5</ele>
        <time>2021-09-01T14:45:43Z</time>
      </trkpt>
      <trkpt lat="44.75716" lon="5.36606">
        <ele>403.8</ele>
        <time>2021-09-01T14:45:44Z</time>
      </trkpt>
      <trkpt lat="44.75712" lon="5.36608">
        <ele>403.9</ele>
        <time>2021-09-01T14:45:45Z</time>
      </trkpt>
      <trkpt lat="44.75709" lon="5.36611">
        <ele>404.1</ele>
        <time>2021-09-01T14:45:47Z</time>
      </trkpt>
      <trkpt lat="44.75706" lon="5.36612">
        <ele>404.3</ele>
        <time>2021-09-01T14:45:48Z</time>
      </trkpt>
      <trkpt lat="44.75702" lon="5.36612">
        <ele>404.2</ele>
        <time>2021-09-01T14:45:49Z</time>
      </trkpt>
      <trkpt lat="44.75698" lon="5.36612">
        <ele>404.1</ele>
        <time>2021-09-01T14:45:51Z</time>
      </trkpt>
      <trkpt lat="44.75693" lon="5.36611">
        <ele>403.9</ele>
        <time>2021-09-01T14:45:52Z</time>
      </trkpt>
      <trkpt lat="44.75689" lon="5.36611">
        <ele>403.8</ele>
        <time>2021-09-01T14:45:54Z</time>
      </trkpt>
      <trkpt lat="44.75685" lon="5.36611">
        <ele>403.6</ele>
        <time>2021-09-01T14:45:55Z</time>
      </trkpt>
      <trkpt lat="44.75677" lon="5.3661">
        <ele>403.3</ele>
        <time>2021-09-01T14:45:57Z</time>
      </trkpt>
      <trkpt lat="44.75673" lon="5.36609">
        <ele>403.1</ele>
        <time>2021-09-01T14:45:58Z</time>
      </trkpt>
      <trkpt lat="44.75666" lon="5.3661">
        <ele>403</ele>
        <time>2021-09-01T14:46:00Z</time>
      </trkpt>
      <trkpt lat="44.7566" lon="5.36611">
        <ele>403</ele>
        <time>2021-09-01T14:46:02Z</time>
      </trkpt>
      <trkpt lat="44.75655" lon="5.36611">
        <ele>403</ele>
        <time>2021-09-01T14:46:04Z</time>
      </trkpt>
      <trkpt lat="44.75653" lon="5.36611">
        <ele>403.1</ele>
        <time>2021-09-01T14:46:05Z</time>
      </trkpt>
      <trkpt lat="44.75652" lon="5.36611">
        <ele>403.1</ele>
        <time>2021-09-01T14:46:06Z</time>
      </trkpt>
      <trkpt lat="44.75651" lon="5.3661">
        <ele>403.1</ele>
        <time>2021-09-01T14:46:08Z</time>
      </trkpt>
      <trkpt lat="44.7565" lon="5.36609">
        <ele>403.1</ele>
        <time>2021-09-01T14:46:09Z</time>
      </trkpt>
      <trkpt lat="44.75649" lon="5.36609">
        <ele>403.1</ele>
        <time>2021-09-01T14:46:10Z</time>
      </trkpt>
      <trkpt lat="44.75649" lon="5.36609">
        <ele>403.1</ele>
        <time>2021-09-01T14:46:12Z</time>
      </trkpt>
      <trkpt lat="44.75648" lon="5.36609">
        <ele>403.1</ele>
        <time>2021-09-01T14:46:14Z</time>
      </trkpt>
      <trkpt lat="44.75648" lon="5.36609">
        <ele>403.1</ele>
        <time>2021-09-01T14:46:15Z</time>
      </trkpt>
      <trkpt lat="44.75648" lon="5.36608">
        <ele>403.1</ele>
        <time>2021-09-01T14:46:17Z</time>
      </trkpt>
      <trkpt lat="44.75648" lon="5.36607">
        <ele>403.1</ele>
        <time>2021-09-01T14:46:18Z</time>
      </trkpt>
      <trkpt lat="44.7565" lon="5.36605">
        <ele>403.1</ele>
        <time>2021-09-01T14:46:19Z</time>
      </trkpt>
      <trkpt lat="44.75653" lon="5.36601">
        <ele>403.1</ele>
        <time>2021-09-01T14:46:23Z</time>
      </trkpt>
      <trkpt lat="44.75657" lon="5.36598">
        <ele>403.2</ele>
        <time>2021-09-01T14:46:25Z</time>
      </trkpt>
      <trkpt lat="44.7566" lon="5.36597">
        <ele>403.2</ele>
        <time>2021-09-01T14:46:26Z</time>
      </trkpt>
      <trkpt lat="44.75665" lon="5.36597">
        <ele>403.2</ele>
        <time>2021-09-01T14:46:28Z</time>
      </trkpt>
      <trkpt lat="44.75664" lon="5.36598">
        <ele>403.2</ele>
        <time>2021-09-01T14:46:29Z</time>
      </trkpt>
      <trkpt lat="44.75662" lon="5.36599">
        <ele>403.2</ele>
        <time>2021-09-01T14:46:30Z</time>
      </trkpt>
      <trkpt lat="44.75661" lon="5.366">
        <ele>403.3</ele>
        <time>2021-09-01T14:46:32Z</time>
      </trkpt>
      <trkpt lat="44.75659" lon="5.36602">
        <ele>403.3</ele>
        <time>2021-09-01T14:46:33Z</time>
      </trkpt>
      <trkpt lat="44.75658" lon="5.36603">
        <ele>403.3</ele>
        <time>2021-09-01T14:46:35Z</time>
      </trkpt>
      <trkpt lat="44.75656" lon="5.36604">
        <ele>403.3</ele>
        <time>2021-09-01T14:46:36Z</time>
      </trkpt>
      <trkpt lat="44.75655" lon="5.36605">
        <ele>403.3</ele>
        <time>2021-09-01T14:47:22Z</time>
      </trkpt>
      <trkpt lat="44.75653" lon="5.36606">
        <ele>403.3</ele>
        <time>2021-09-01T14:47:23Z</time>
      </trkpt>
      <trkpt lat="44.75647" lon="5.36611">
        <ele>403.4</ele>
        <time>2021-09-01T14:47:25Z</time>
      </trkpt>
      <trkpt lat="44.75642" lon="5.36614">
        <ele>403.5</ele>
        <time>2021-09-01T14:47:26Z</time>
      </trkpt>
      <trkpt lat="44.75637" lon="5.36616">
        <ele>403.5</ele>
        <time>2021-09-01T14:47:28Z</time>
      </trkpt>
      <trkpt lat="44.75633" lon="5.36616">
        <ele>403.7</ele>
        <time>2021-09-01T14:47:29Z</time>
      </trkpt>
      <trkpt lat="44.75627" lon="5.36617">
        <ele>403.9</ele>
        <time>2021-09-01T14:47:30Z</time>
      </trkpt>
      <trkpt lat="44.75622" lon="5.36617">
        <ele>404.1</ele>
        <time>2021-09-01T14:47:32Z</time>
      </trkpt>
      <trkpt lat="44.75616" lon="5.36619">
        <ele>404.2</ele>
        <time>2021-09-01T14:47:34Z</time>
      </trkpt>
      <trkpt lat="44.75612" lon="5.3662">
        <ele>404.4</ele>
        <time>2021-09-01T14:47:35Z</time>
      </trkpt>
      <trkpt lat="44.75606" lon="5.36622">
        <ele>404.5</ele>
        <time>2021-09-01T14:47:36Z</time>
      </trkpt>
      <trkpt lat="44.75602" lon="5.36623">
        <ele>404.5</ele>
        <time>2021-09-01T14:47:37Z</time>
      </trkpt>
      <trkpt lat="44.75599" lon="5.36624">
        <ele>404.6</ele>
        <time>2021-09-01T14:47:38Z</time>
      </trkpt>
      <trkpt lat="44.75595" lon="5.36626">
        <ele>404.6</ele>
        <time>2021-09-01T14:47:40Z</time>
      </trkpt>
      <trkpt lat="44.75589" lon="5.36629">
        <ele>404.6</ele>
        <time>2021-09-01T14:47:41Z</time>
      </trkpt>
      <trkpt lat="44.75583" lon="5.36632">
        <ele>404.5</ele>
        <time>2021-09-01T14:47:42Z</time>
      </trkpt>
      <trkpt lat="44.75575" lon="5.36637">
        <ele>404.3</ele>
        <time>2021-09-01T14:47:44Z</time>
      </trkpt>
      <trkpt lat="44.75567" lon="5.36642">
        <ele>404.1</ele>
        <time>2021-09-01T14:47:46Z</time>
      </trkpt>
      <trkpt lat="44.75556" lon="5.36651">
        <ele>403.6</ele>
        <time>2021-09-01T14:47:48Z</time>
      </trkpt>
      <trkpt lat="44.7555" lon="5.36656">
        <ele>403.4</ele>
        <time>2021-09-01T14:47:49Z</time>
      </trkpt>
      <trkpt lat="44.75545" lon="5.36662">
        <ele>403.2</ele>
        <time>2021-09-01T14:47:50Z</time>
      </trkpt>
      <trkpt lat="44.75537" lon="5.36674">
        <ele>403.1</ele>
        <time>2021-09-01T14:47:52Z</time>
      </trkpt>
      <trkpt lat="44.75533" lon="5.3668">
        <ele>403.1</ele>
        <time>2021-09-01T14:47:53Z</time>
      </trkpt>
      <trkpt lat="44.75525" lon="5.36692">
        <ele>403.4</ele>
        <time>2021-09-01T14:47:55Z</time>
      </trkpt>
      <trkpt lat="44.75516" lon="5.36703">
        <ele>403.9</ele>
        <time>2021-09-01T14:47:57Z</time>
      </trkpt>
      <trkpt lat="44.75513" lon="5.36708">
        <ele>404.2</ele>
        <time>2021-09-01T14:47:58Z</time>
      </trkpt>
      <trkpt lat="44.7551" lon="5.36712">
        <ele>404.5</ele>
        <time>2021-09-01T14:47:59Z</time>
      </trkpt>
      <trkpt lat="44.75505" lon="5.3672">
        <ele>404.9</ele>
        <time>2021-09-01T14:48:01Z</time>
      </trkpt>
      <trkpt lat="44.755" lon="5.36727">
        <ele>405.4</ele>
        <time>2021-09-01T14:48:03Z</time>
      </trkpt>
      <trkpt lat="44.75498" lon="5.36731">
        <ele>405.7</ele>
        <time>2021-09-01T14:48:04Z</time>
      </trkpt>
      <trkpt lat="44.75494" lon="5.36732">
        <ele>406</ele>
        <time>2021-09-01T14:48:06Z</time>
      </trkpt>
      <trkpt lat="44.75492" lon="5.36736">
        <ele>406.3</ele>
        <time>2021-09-01T14:48:07Z</time>
      </trkpt>
      <trkpt lat="44.7549" lon="5.36739">
        <ele>406.5</ele>
        <time>2021-09-01T14:48:08Z</time>
      </trkpt>
      <trkpt lat="44.75487" lon="5.36745">
        <ele>407.1</ele>
        <time>2021-09-01T14:48:09Z</time>
      </trkpt>
      <trkpt lat="44.75484" lon="5.36749">
        <ele>407.5</ele>
        <time>2021-09-01T14:48:11Z</time>
      </trkpt>
      <trkpt lat="44.75482" lon="5.36752">
        <ele>407.7</ele>
        <time>2021-09-01T14:48:12Z</time>
      </trkpt>
      <trkpt lat="44.75479" lon="5.36758">
        <ele>408.3</ele>
        <time>2021-09-01T14:48:14Z</time>
      </trkpt>
      <trkpt lat="44.75476" lon="5.36761">
        <ele>408.7</ele>
        <time>2021-09-01T14:48:15Z</time>
      </trkpt>
      <trkpt lat="44.75472" lon="5.36763">
        <ele>409.2</ele>
        <time>2021-09-01T14:48:16Z</time>
      </trkpt>
      <trkpt lat="44.75468" lon="5.36767">
        <ele>409.8</ele>
        <time>2021-09-01T14:48:18Z</time>
      </trkpt>
      <trkpt lat="44.75466" lon="5.36768">
        <ele>410</ele>
        <time>2021-09-01T14:48:19Z</time>
      </trkpt>
      <trkpt lat="44.75465" lon="5.3677">
        <ele>410.2</ele>
        <time>2021-09-01T14:48:20Z</time>
      </trkpt>
      <trkpt lat="44.75461" lon="5.36774">
        <ele>410.8</ele>
        <time>2021-09-01T14:48:22Z</time>
      </trkpt>
      <trkpt lat="44.75459" lon="5.36776">
        <ele>410.8</ele>
        <time>2021-09-01T14:48:23Z</time>
      </trkpt>
      <trkpt lat="44.75457" lon="5.36777">
        <ele>410.8</ele>
        <time>2021-09-01T14:48:24Z</time>
      </trkpt>
      <trkpt lat="44.75452" lon="5.36778">
        <ele>410.8</ele>
        <time>2021-09-01T14:48:26Z</time>
      </trkpt>
      <trkpt lat="44.75448" lon="5.3678">
        <ele>410.8</ele>
        <time>2021-09-01T14:48:28Z</time>
      </trkpt>
      <trkpt lat="44.75442" lon="5.36781">
        <ele>410.9</ele>
        <time>2021-09-01T14:48:29Z</time>
      </trkpt>
      <trkpt lat="44.75438" lon="5.36782">
        <ele>410.9</ele>
        <time>2021-09-01T14:48:31Z</time>
      </trkpt>
      <trkpt lat="44.75434" lon="5.36783">
        <ele>410.9</ele>
        <time>2021-09-01T14:48:32Z</time>
      </trkpt>
      <trkpt lat="44.75429" lon="5.36783">
        <ele>410.9</ele>
        <time>2021-09-01T14:48:33Z</time>
      </trkpt>
      <trkpt lat="44.75424" lon="5.36784">
        <ele>410.8</ele>
        <time>2021-09-01T14:48:34Z</time>
      </trkpt>
      <trkpt lat="44.75419" lon="5.36784">
        <ele>410.8</ele>
        <time>2021-09-01T14:48:35Z</time>
      </trkpt>
      <trkpt lat="44.75414" lon="5.36785">
        <ele>410.8</ele>
        <time>2021-09-01T14:48:36Z</time>
      </trkpt>
      <trkpt lat="44.75409" lon="5.36785">
        <ele>410.8</ele>
        <time>2021-09-01T14:48:38Z</time>
      </trkpt>
      <trkpt lat="44.75405" lon="5.36785">
        <ele>410.7</ele>
        <time>2021-09-01T14:48:39Z</time>
      </trkpt>
      <trkpt lat="44.75396" lon="5.36784">
        <ele>410.7</ele>
        <time>2021-09-01T14:48:41Z</time>
      </trkpt>
      <trkpt lat="44.75389" lon="5.36783">
        <ele>410.7</ele>
        <time>2021-09-01T14:48:42Z</time>
      </trkpt>
      <trkpt lat="44.75383" lon="5.36783">
        <ele>410.6</ele>
        <time>2021-09-01T14:48:43Z</time>
      </trkpt>
      <trkpt lat="44.75378" lon="5.36784">
        <ele>410.6</ele>
        <time>2021-09-01T14:48:44Z</time>
      </trkpt>
      <trkpt lat="44.75367" lon="5.36785">
        <ele>410.5</ele>
        <time>2021-09-01T14:48:46Z</time>
      </trkpt>
      <trkpt lat="44.75362" lon="5.36785">
        <ele>410.5</ele>
        <time>2021-09-01T14:48:47Z</time>
      </trkpt>
      <trkpt lat="44.75357" lon="5.36784">
        <ele>410.4</ele>
        <time>2021-09-01T14:48:48Z</time>
      </trkpt>
      <trkpt lat="44.75352" lon="5.36782">
        <ele>410.4</ele>
        <time>2021-09-01T14:48:49Z</time>
      </trkpt>
      <trkpt lat="44.75341" lon="5.36782">
        <ele>410.3</ele>
        <time>2021-09-01T14:48:51Z</time>
      </trkpt>
      <trkpt lat="44.7533" lon="5.36782">
        <ele>410.2</ele>
        <time>2021-09-01T14:48:53Z</time>
      </trkpt>
      <trkpt lat="44.75325" lon="5.36782">
        <ele>410.1</ele>
        <time>2021-09-01T14:48:54Z</time>
      </trkpt>
      <trkpt lat="44.75319" lon="5.36781">
        <ele>410.1</ele>
        <time>2021-09-01T14:48:55Z</time>
      </trkpt>
      <trkpt lat="44.75314" lon="5.3678">
        <ele>410</ele>
        <time>2021-09-01T14:48:56Z</time>
      </trkpt>
      <trkpt lat="44.75302" lon="5.3678">
        <ele>409.9</ele>
        <time>2021-09-01T14:48:58Z</time>
      </trkpt>
      <trkpt lat="44.75296" lon="5.3678">
        <ele>409.8</ele>
        <time>2021-09-01T14:48:59Z</time>
      </trkpt>
      <trkpt lat="44.75283" lon="5.3678">
        <ele>409.6</ele>
        <time>2021-09-01T14:49:01Z</time>
      </trkpt>
      <trkpt lat="44.75277" lon="5.36781">
        <ele>409.6</ele>
        <time>2021-09-01T14:49:02Z</time>
      </trkpt>
      <trkpt lat="44.75265" lon="5.36784">
        <ele>409.4</ele>
        <time>2021-09-01T14:49:04Z</time>
      </trkpt>
      <trkpt lat="44.75259" lon="5.36786">
        <ele>409.4</ele>
        <time>2021-09-01T14:49:05Z</time>
      </trkpt>
      <trkpt lat="44.75246" lon="5.36791">
        <ele>409.3</ele>
        <time>2021-09-01T14:49:07Z</time>
      </trkpt>
      <trkpt lat="44.75234" lon="5.36796">
        <ele>409.3</ele>
        <time>2021-09-01T14:49:09Z</time>
      </trkpt>
      <trkpt lat="44.75228" lon="5.36799">
        <ele>409.3</ele>
        <time>2021-09-01T14:49:10Z</time>
      </trkpt>
      <trkpt lat="44.75223" lon="5.36803">
        <ele>409.3</ele>
        <time>2021-09-01T14:49:11Z</time>
      </trkpt>
      <trkpt lat="44.75213" lon="5.36809">
        <ele>409.4</ele>
        <time>2021-09-01T14:49:13Z</time>
      </trkpt>
      <trkpt lat="44.75209" lon="5.36813">
        <ele>409.4</ele>
        <time>2021-09-01T14:49:14Z</time>
      </trkpt>
      <trkpt lat="44.75206" lon="5.36817">
        <ele>409.4</ele>
        <time>2021-09-01T14:49:15Z</time>
      </trkpt>
      <trkpt lat="44.75197" lon="5.36825">
        <ele>409.5</ele>
        <time>2021-09-01T14:49:17Z</time>
      </trkpt>
      <trkpt lat="44.75193" lon="5.36829">
        <ele>409.5</ele>
        <time>2021-09-01T14:49:18Z</time>
      </trkpt>
      <trkpt lat="44.75185" lon="5.36838">
        <ele>409.6</ele>
        <time>2021-09-01T14:49:20Z</time>
      </trkpt>
      <trkpt lat="44.75181" lon="5.36844">
        <ele>409.6</ele>
        <time>2021-09-01T14:49:21Z</time>
      </trkpt>
      <trkpt lat="44.75176" lon="5.36849">
        <ele>409.6</ele>
        <time>2021-09-01T14:49:22Z</time>
      </trkpt>
      <trkpt lat="44.75171" lon="5.36855">
        <ele>409.7</ele>
        <time>2021-09-01T14:49:23Z</time>
      </trkpt>
      <trkpt lat="44.75164" lon="5.36864">
        <ele>409.8</ele>
        <time>2021-09-01T14:49:25Z</time>
      </trkpt>
      <trkpt lat="44.75158" lon="5.36872">
        <ele>409.9</ele>
        <time>2021-09-01T14:49:27Z</time>
      </trkpt>
      <trkpt lat="44.75156" lon="5.36876">
        <ele>410</ele>
        <time>2021-09-01T14:49:28Z</time>
      </trkpt>
      <trkpt lat="44.75153" lon="5.3688">
        <ele>410.1</ele>
        <time>2021-09-01T14:49:29Z</time>
      </trkpt>
      <trkpt lat="44.75153" lon="5.36881">
        <ele>410.1</ele>
        <time>2021-09-01T14:49:30Z</time>
      </trkpt>
      <trkpt lat="44.75151" lon="5.36887">
        <ele>410.1</ele>
        <time>2021-09-01T14:49:32Z</time>
      </trkpt>
      <trkpt lat="44.7515" lon="5.36888">
        <ele>410.2</ele>
        <time>2021-09-01T14:49:34Z</time>
      </trkpt>
      <trkpt lat="44.75149" lon="5.3689">
        <ele>410.2</ele>
        <time>2021-09-01T14:49:35Z</time>
      </trkpt>
      <trkpt lat="44.75148" lon="5.3689">
        <ele>410.2</ele>
        <time>2021-09-01T14:49:37Z</time>
      </trkpt>
      <trkpt lat="44.75147" lon="5.3689">
        <ele>410.2</ele>
        <time>2021-09-01T14:49:38Z</time>
      </trkpt>
      <trkpt lat="44.75145" lon="5.36884">
        <ele>408.3</ele>
        <time>2021-09-01T14:49:40Z</time>
      </trkpt>
      <trkpt lat="44.75142" lon="5.36876">
        <ele>407.8</ele>
        <time>2021-09-01T14:49:42Z</time>
      </trkpt>
      <trkpt lat="44.75141" lon="5.3687">
        <ele>407.4</ele>
        <time>2021-09-01T14:49:43Z</time>
      </trkpt>
      <trkpt lat="44.75138" lon="5.3686">
        <ele>406.9</ele>
        <time>2021-09-01T14:49:44Z</time>
      </trkpt>
      <trkpt lat="44.75137" lon="5.36852">
        <ele>406.5</ele>
        <time>2021-09-01T14:49:45Z</time>
      </trkpt>
      <trkpt lat="44.75135" lon="5.36844">
        <ele>406.1</ele>
        <time>2021-09-01T14:49:46Z</time>
      </trkpt>
      <trkpt lat="44.75134" lon="5.36828">
        <ele>405.7</ele>
        <time>2021-09-01T14:49:48Z</time>
      </trkpt>
      <trkpt lat="44.75134" lon="5.3682">
        <ele>405.5</ele>
        <time>2021-09-01T14:49:49Z</time>
      </trkpt>
      <trkpt lat="44.75134" lon="5.36806">
        <ele>405.3</ele>
        <time>2021-09-01T14:49:51Z</time>
      </trkpt>
      <trkpt lat="44.75135" lon="5.36799">
        <ele>405.2</ele>
        <time>2021-09-01T14:49:52Z</time>
      </trkpt>
      <trkpt lat="44.75136" lon="5.36792">
        <ele>405.1</ele>
        <time>2021-09-01T14:49:53Z</time>
      </trkpt>
      <trkpt lat="44.75137" lon="5.36777">
        <ele>404.9</ele>
        <time>2021-09-01T14:49:55Z</time>
      </trkpt>
      <trkpt lat="44.7514" lon="5.36763">
        <ele>404.7</ele>
        <time>2021-09-01T14:49:57Z</time>
      </trkpt>
      <trkpt lat="44.75141" lon="5.36757">
        <ele>404.6</ele>
        <time>2021-09-01T14:49:58Z</time>
      </trkpt>
      <trkpt lat="44.75144" lon="5.36742">
        <ele>404.3</ele>
        <time>2021-09-01T14:50:00Z</time>
      </trkpt>
      <trkpt lat="44.75145" lon="5.36734">
        <ele>404.2</ele>
        <time>2021-09-01T14:50:01Z</time>
      </trkpt>
      <trkpt lat="44.75148" lon="5.36718">
        <ele>403.9</ele>
        <time>2021-09-01T14:50:03Z</time>
      </trkpt>
      <trkpt lat="44.75151" lon="5.36703">
        <ele>403.7</ele>
        <time>2021-09-01T14:50:05Z</time>
      </trkpt>
      <trkpt lat="44.75154" lon="5.36689">
        <ele>403.6</ele>
        <time>2021-09-01T14:50:07Z</time>
      </trkpt>
      <trkpt lat="44.75155" lon="5.36675">
        <ele>403.5</ele>
        <time>2021-09-01T14:50:09Z</time>
      </trkpt>
      <trkpt lat="44.75155" lon="5.36668">
        <ele>403.4</ele>
        <time>2021-09-01T14:50:10Z</time>
      </trkpt>
      <trkpt lat="44.75154" lon="5.36664">
        <ele>403.4</ele>
        <time>2021-09-01T14:50:11Z</time>
      </trkpt>
      <trkpt lat="44.75153" lon="5.36655">
        <ele>403.4</ele>
        <time>2021-09-01T14:50:13Z</time>
      </trkpt>
      <trkpt lat="44.75149" lon="5.36644">
        <ele>403.3</ele>
        <time>2021-09-01T14:50:15Z</time>
      </trkpt>
      <trkpt lat="44.75147" lon="5.36638">
        <ele>403.2</ele>
        <time>2021-09-01T14:50:16Z</time>
      </trkpt>
      <trkpt lat="44.75147" lon="5.3663">
        <ele>403</ele>
        <time>2021-09-01T14:50:17Z</time>
      </trkpt>
      <trkpt lat="44.75146" lon="5.36623">
        <ele>403</ele>
        <time>2021-09-01T14:50:19Z</time>
      </trkpt>
      <trkpt lat="44.75142" lon="5.36618">
        <ele>402.9</ele>
        <time>2021-09-01T14:50:20Z</time>
      </trkpt>
      <trkpt lat="44.75136" lon="5.36614">
        <ele>402.9</ele>
        <time>2021-09-01T14:50:22Z</time>
      </trkpt>
      <trkpt lat="44.75126" lon="5.36614">
        <ele>402.6</ele>
        <time>2021-09-01T14:50:24Z</time>
      </trkpt>
      <trkpt lat="44.75121" lon="5.36615">
        <ele>402.4</ele>
        <time>2021-09-01T14:50:25Z</time>
      </trkpt>
      <trkpt lat="44.75113" lon="5.36617">
        <ele>402.1</ele>
        <time>2021-09-01T14:50:26Z</time>
      </trkpt>
      <trkpt lat="44.75106" lon="5.3662">
        <ele>401.9</ele>
        <time>2021-09-01T14:50:28Z</time>
      </trkpt>
      <trkpt lat="44.75099" lon="5.36622">
        <ele>401.7</ele>
        <time>2021-09-01T14:50:29Z</time>
      </trkpt>
      <trkpt lat="44.75094" lon="5.36624">
        <ele>401.6</ele>
        <time>2021-09-01T14:50:31Z</time>
      </trkpt>
      <trkpt lat="44.75086" lon="5.36626">
        <ele>401.4</ele>
        <time>2021-09-01T14:50:33Z</time>
      </trkpt>
      <trkpt lat="44.75082" lon="5.36627">
        <ele>401.4</ele>
        <time>2021-09-01T14:50:34Z</time>
      </trkpt>
      <trkpt lat="44.75076" lon="5.36628">
        <ele>401.3</ele>
        <time>2021-09-01T14:50:36Z</time>
      </trkpt>
      <trkpt lat="44.75074" lon="5.36627">
        <ele>400.4</ele>
        <time>2021-09-01T14:50:37Z</time>
      </trkpt>
      <trkpt lat="44.7507" lon="5.36626">
        <ele>400.3</ele>
        <time>2021-09-01T14:50:39Z</time>
      </trkpt>
      <trkpt lat="44.75069" lon="5.36625">
        <ele>400.2</ele>
        <time>2021-09-01T14:50:40Z</time>
      </trkpt>
      <trkpt lat="44.75065" lon="5.36622">
        <ele>400.1</ele>
        <time>2021-09-01T14:50:42Z</time>
      </trkpt>
      <trkpt lat="44.75064" lon="5.36622">
        <ele>399.9</ele>
        <time>2021-09-01T14:50:43Z</time>
      </trkpt>
      <trkpt lat="44.7506" lon="5.36621">
        <ele>399.8</ele>
        <time>2021-09-01T14:50:45Z</time>
      </trkpt>
      <trkpt lat="44.75058" lon="5.36621">
        <ele>399.7</ele>
        <time>2021-09-01T14:50:46Z</time>
      </trkpt>
      <trkpt lat="44.75057" lon="5.36623">
        <ele>399.7</ele>
        <time>2021-09-01T14:50:47Z</time>
      </trkpt>
      <trkpt lat="44.75057" lon="5.36623">
        <ele>399.7</ele>
        <time>2021-09-01T14:50:49Z</time>
      </trkpt>
      <trkpt lat="44.75057" lon="5.36624">
        <ele>399.7</ele>
        <time>2021-09-01T14:50:50Z</time>
      </trkpt>
      <trkpt lat="44.75057" lon="5.36624">
        <ele>399.7</ele>
        <time>2021-09-01T14:50:51Z</time>
      </trkpt>
      <trkpt lat="44.75057" lon="5.36625">
        <ele>399.7</ele>
        <time>2021-09-01T14:50:53Z</time>
      </trkpt>
      <trkpt lat="44.75057" lon="5.36625">
        <ele>399.7</ele>
        <time>2021-09-01T14:50:54Z</time>
      </trkpt>
      <trkpt lat="44.75058" lon="5.36625">
        <ele>399.7</ele>
        <time>2021-09-01T14:50:55Z</time>
      </trkpt>
      <trkpt lat="44.75058" lon="5.36625">
        <ele>399.7</ele>
        <time>2021-09-01T14:50:56Z</time>
      </trkpt>
      <trkpt lat="44.75062" lon="5.36603">
        <ele>399.3</ele>
        <time>2021-09-01T14:58:31Z</time>
      </trkpt>
      <trkpt lat="44.75062" lon="5.36602">
        <ele>399.2</ele>
        <time>2021-09-01T14:58:32Z</time>
      </trkpt>
      <trkpt lat="44.75061" lon="5.36602">
        <ele>399.1</ele>
        <time>2021-09-01T14:58:34Z</time>
      </trkpt>
      <trkpt lat="44.7506" lon="5.36601">
        <ele>399</ele>
        <time>2021-09-01T14:58:36Z</time>
      </trkpt>
      <trkpt lat="44.7506" lon="5.366">
        <ele>398.9</ele>
        <time>2021-09-01T14:58:37Z</time>
      </trkpt>
      <trkpt lat="44.75059" lon="5.36598">
        <ele>398.8</ele>
        <time>2021-09-01T14:58:38Z</time>
      </trkpt>
      <trkpt lat="44.75058" lon="5.36598">
        <ele>398.8</ele>
        <time>2021-09-01T14:58:40Z</time>
      </trkpt>
      <trkpt lat="44.75058" lon="5.36597">
        <ele>398.7</ele>
        <time>2021-09-01T14:58:41Z</time>
      </trkpt>
      <trkpt lat="44.75058" lon="5.36597">
        <ele>398.7</ele>
        <time>2021-09-01T14:58:42Z</time>
      </trkpt>
      <trkpt lat="44.75057" lon="5.36596">
        <ele>398.6</ele>
        <time>2021-09-01T14:58:44Z</time>
      </trkpt>
      <trkpt lat="44.75057" lon="5.36596">
        <ele>398.6</ele>
        <time>2021-09-01T14:58:45Z</time>
      </trkpt>
      <trkpt lat="44.75056" lon="5.36596">
        <ele>398.5</ele>
        <time>2021-09-01T14:58:47Z</time>
      </trkpt>
      <trkpt lat="44.75042" lon="5.36585">
        <ele>397.2</ele>
        <time>2021-09-01T14:58:54Z</time>
      </trkpt>
      <trkpt lat="44.75035" lon="5.36569">
        <ele>396.5</ele>
        <time>2021-09-01T14:58:55Z</time>
      </trkpt>
      <trkpt lat="44.75035" lon="5.36562">
        <ele>396.2</ele>
        <time>2021-09-01T14:58:57Z</time>
      </trkpt>
      <trkpt lat="44.75035" lon="5.36557">
        <ele>396.2</ele>
        <time>2021-09-01T14:58:58Z</time>
      </trkpt>
      <trkpt lat="44.75036" lon="5.36553">
        <ele>396.2</ele>
        <time>2021-09-01T14:58:59Z</time>
      </trkpt>
      <trkpt lat="44.7504" lon="5.36548">
        <ele>395.7</ele>
        <time>2021-09-01T14:59:01Z</time>
      </trkpt>
      <trkpt lat="44.75043" lon="5.36545">
        <ele>395.5</ele>
        <time>2021-09-01T14:59:02Z</time>
      </trkpt>
      <trkpt lat="44.75046" lon="5.36543">
        <ele>395.3</ele>
        <time>2021-09-01T14:59:03Z</time>
      </trkpt>
      <trkpt lat="44.75051" lon="5.36538">
        <ele>394.8</ele>
        <time>2021-09-01T14:59:05Z</time>
      </trkpt>
      <trkpt lat="44.75054" lon="5.36531">
        <ele>394.4</ele>
        <time>2021-09-01T14:59:07Z</time>
      </trkpt>
      <trkpt lat="44.75056" lon="5.36523">
        <ele>394.1</ele>
        <time>2021-09-01T14:59:09Z</time>
      </trkpt>
      <trkpt lat="44.75057" lon="5.36519">
        <ele>394.1</ele>
        <time>2021-09-01T14:59:10Z</time>
      </trkpt>
      <trkpt lat="44.75057" lon="5.36515">
        <ele>394</ele>
        <time>2021-09-01T14:59:11Z</time>
      </trkpt>
      <trkpt lat="44.75057" lon="5.36507">
        <ele>393.7</ele>
        <time>2021-09-01T14:59:13Z</time>
      </trkpt>
      <trkpt lat="44.75056" lon="5.36498">
        <ele>393.3</ele>
        <time>2021-09-01T14:59:15Z</time>
      </trkpt>
      <trkpt lat="44.75056" lon="5.36494">
        <ele>393</ele>
        <time>2021-09-01T14:59:16Z</time>
      </trkpt>
      <trkpt lat="44.75056" lon="5.36489">
        <ele>392.8</ele>
        <time>2021-09-01T14:59:17Z</time>
      </trkpt>
      <trkpt lat="44.75056" lon="5.36485">
        <ele>392.8</ele>
        <time>2021-09-01T14:59:18Z</time>
      </trkpt>
      <trkpt lat="44.75057" lon="5.36481">
        <ele>392.7</ele>
        <time>2021-09-01T14:59:19Z</time>
      </trkpt>
      <trkpt lat="44.75056" lon="5.36472">
        <ele>392.7</ele>
        <time>2021-09-01T14:59:21Z</time>
      </trkpt>
      <trkpt lat="44.75055" lon="5.36468">
        <ele>392.6</ele>
        <time>2021-09-01T14:59:22Z</time>
      </trkpt>
      <trkpt lat="44.75054" lon="5.36464">
        <ele>392.6</ele>
        <time>2021-09-01T14:59:23Z</time>
      </trkpt>
      <trkpt lat="44.75053" lon="5.36459">
        <ele>392.6</ele>
        <time>2021-09-01T14:59:24Z</time>
      </trkpt>
      <trkpt lat="44.75053" lon="5.36451">
        <ele>392.5</ele>
        <time>2021-09-01T14:59:26Z</time>
      </trkpt>
      <trkpt lat="44.75053" lon="5.36443">
        <ele>392.5</ele>
        <time>2021-09-01T14:59:28Z</time>
      </trkpt>
      <trkpt lat="44.75054" lon="5.36438">
        <ele>392.4</ele>
        <time>2021-09-01T14:59:29Z</time>
      </trkpt>
      <trkpt lat="44.75054" lon="5.36434">
        <ele>392.4</ele>
        <time>2021-09-01T14:59:30Z</time>
      </trkpt>
      <trkpt lat="44.75055" lon="5.36425">
        <ele>392.4</ele>
        <time>2021-09-01T14:59:32Z</time>
      </trkpt>
      <trkpt lat="44.75057" lon="5.36416">
        <ele>392.5</ele>
        <time>2021-09-01T14:59:34Z</time>
      </trkpt>
      <trkpt lat="44.75058" lon="5.36411">
        <ele>392.5</ele>
        <time>2021-09-01T14:59:35Z</time>
      </trkpt>
      <trkpt lat="44.7506" lon="5.36407">
        <ele>392.5</ele>
        <time>2021-09-01T14:59:36Z</time>
      </trkpt>
      <trkpt lat="44.75062" lon="5.36399">
        <ele>392.5</ele>
        <time>2021-09-01T14:59:38Z</time>
      </trkpt>
      <trkpt lat="44.75064" lon="5.36395">
        <ele>392.5</ele>
        <time>2021-09-01T14:59:39Z</time>
      </trkpt>
      <trkpt lat="44.75066" lon="5.36387">
        <ele>392.6</ele>
        <time>2021-09-01T14:59:41Z</time>
      </trkpt>
      <trkpt lat="44.75067" lon="5.36382">
        <ele>392.6</ele>
        <time>2021-09-01T14:59:42Z</time>
      </trkpt>
      <trkpt lat="44.75068" lon="5.36378">
        <ele>392.7</ele>
        <time>2021-09-01T14:59:43Z</time>
      </trkpt>
      <trkpt lat="44.75071" lon="5.36369">
        <ele>392.8</ele>
        <time>2021-09-01T14:59:45Z</time>
      </trkpt>
      <trkpt lat="44.75073" lon="5.36365">
        <ele>392.9</ele>
        <time>2021-09-01T14:59:46Z</time>
      </trkpt>
      <trkpt lat="44.75075" lon="5.36362">
        <ele>393</ele>
        <time>2021-09-01T14:59:47Z</time>
      </trkpt>
      <trkpt lat="44.75077" lon="5.36358">
        <ele>393.1</ele>
        <time>2021-09-01T14:59:48Z</time>
      </trkpt>
      <trkpt lat="44.75079" lon="5.36355">
        <ele>393.3</ele>
        <time>2021-09-01T14:59:49Z</time>
      </trkpt>
      <trkpt lat="44.75082" lon="5.36349">
        <ele>393.5</ele>
        <time>2021-09-01T14:59:51Z</time>
      </trkpt>
      <trkpt lat="44.75084" lon="5.36344">
        <ele>393.6</ele>
        <time>2021-09-01T14:59:53Z</time>
      </trkpt>
      <trkpt lat="44.75085" lon="5.36341">
        <ele>393.6</ele>
        <time>2021-09-01T14:59:54Z</time>
      </trkpt>
      <trkpt lat="44.75086" lon="5.36339">
        <ele>393.6</ele>
        <time>2021-09-01T14:59:55Z</time>
      </trkpt>
      <trkpt lat="44.75089" lon="5.36336">
        <ele>393.5</ele>
        <time>2021-09-01T14:59:57Z</time>
      </trkpt>
      <trkpt lat="44.75092" lon="5.36335">
        <ele>393.5</ele>
        <time>2021-09-01T14:59:58Z</time>
      </trkpt>
      <trkpt lat="44.75093" lon="5.36334">
        <ele>393.5</ele>
        <time>2021-09-01T14:59:59Z</time>
      </trkpt>
      <trkpt lat="44.75095" lon="5.36334">
        <ele>393.5</ele>
        <time>2021-09-01T15:00:00Z</time>
      </trkpt>
      <trkpt lat="44.75099" lon="5.36333">
        <ele>393.5</ele>
        <time>2021-09-01T15:00:02Z</time>
      </trkpt>
      <trkpt lat="44.75101" lon="5.36333">
        <ele>393.4</ele>
        <time>2021-09-01T15:00:03Z</time>
      </trkpt>
      <trkpt lat="44.75104" lon="5.36333">
        <ele>393.4</ele>
        <time>2021-09-01T15:00:04Z</time>
      </trkpt>
      <trkpt lat="44.75109" lon="5.36333">
        <ele>393.4</ele>
        <time>2021-09-01T15:00:05Z</time>
      </trkpt>
      <trkpt lat="44.75113" lon="5.36333">
        <ele>393.3</ele>
        <time>2021-09-01T15:00:07Z</time>
      </trkpt>
      <trkpt lat="44.75116" lon="5.36333">
        <ele>393.3</ele>
        <time>2021-09-01T15:00:08Z</time>
      </trkpt>
      <trkpt lat="44.75121" lon="5.36333">
        <ele>393.3</ele>
        <time>2021-09-01T15:00:10Z</time>
      </trkpt>
      <trkpt lat="44.75125" lon="5.36334">
        <ele>393.3</ele>
        <time>2021-09-01T15:00:11Z</time>
      </trkpt>
      <trkpt lat="44.75126" lon="5.36334">
        <ele>393.2</ele>
        <time>2021-09-01T15:00:12Z</time>
      </trkpt>
      <trkpt lat="44.7513" lon="5.36334">
        <ele>393.2</ele>
        <time>2021-09-01T15:00:14Z</time>
      </trkpt>
      <trkpt lat="44.75134" lon="5.36335">
        <ele>393.2</ele>
        <time>2021-09-01T15:00:16Z</time>
      </trkpt>
      <trkpt lat="44.75135" lon="5.36336">
        <ele>393.2</ele>
        <time>2021-09-01T15:00:17Z</time>
      </trkpt>
      <trkpt lat="44.75135" lon="5.36335">
        <ele>393.2</ele>
        <time>2021-09-01T15:00:19Z</time>
      </trkpt>
      <trkpt lat="44.75136" lon="5.36334">
        <ele>393.2</ele>
        <time>2021-09-01T15:00:21Z</time>
      </trkpt>
      <trkpt lat="44.75136" lon="5.36332">
        <ele>393.1</ele>
        <time>2021-09-01T15:00:22Z</time>
      </trkpt>
      <trkpt lat="44.75135" lon="5.36328">
        <ele>393.1</ele>
        <time>2021-09-01T15:00:24Z</time>
      </trkpt>
      <trkpt lat="44.75134" lon="5.36327">
        <ele>393.1</ele>
        <time>2021-09-01T15:00:25Z</time>
      </trkpt>
      <trkpt lat="44.75132" lon="5.36326">
        <ele>393.1</ele>
        <time>2021-09-01T15:00:26Z</time>
      </trkpt>
      <trkpt lat="44.7513" lon="5.36326">
        <ele>393.1</ele>
        <time>2021-09-01T15:00:27Z</time>
      </trkpt>
      <trkpt lat="44.75126" lon="5.36325">
        <ele>393.1</ele>
        <time>2021-09-01T15:00:29Z</time>
      </trkpt>
      <trkpt lat="44.75125" lon="5.36324">
        <ele>393</ele>
        <time>2021-09-01T15:00:30Z</time>
      </trkpt>
      <trkpt lat="44.75123" lon="5.36322">
        <ele>393</ele>
        <time>2021-09-01T15:00:32Z</time>
      </trkpt>
      <trkpt lat="44.75122" lon="5.36323">
        <ele>393</ele>
        <time>2021-09-01T15:00:34Z</time>
      </trkpt>
      <trkpt lat="44.75121" lon="5.36323">
        <ele>393</ele>
        <time>2021-09-01T15:00:35Z</time>
      </trkpt>
      <trkpt lat="44.7512" lon="5.36324">
        <ele>393</ele>
        <time>2021-09-01T15:00:36Z</time>
      </trkpt>
      <trkpt lat="44.75119" lon="5.36324">
        <ele>393</ele>
        <time>2021-09-01T15:00:37Z</time>
      </trkpt>
      <trkpt lat="44.75116" lon="5.36325">
        <ele>393</ele>
        <time>2021-09-01T15:00:39Z</time>
      </trkpt>
      <trkpt lat="44.75114" lon="5.36325">
        <ele>393</ele>
        <time>2021-09-01T15:00:40Z</time>
      </trkpt>
      <trkpt lat="44.75112" lon="5.36326">
        <ele>393</ele>
        <time>2021-09-01T15:00:42Z</time>
      </trkpt>
      <trkpt lat="44.75111" lon="5.36326">
        <ele>393</ele>
        <time>2021-09-01T15:00:43Z</time>
      </trkpt>
      <trkpt lat="44.75109" lon="5.36327">
        <ele>392.9</ele>
        <time>2021-09-01T15:00:44Z</time>
      </trkpt>
      <trkpt lat="44.75109" lon="5.3633">
        <ele>392.9</ele>
        <time>2021-09-01T15:00:46Z</time>
      </trkpt>
      <trkpt lat="44.75109" lon="5.36331">
        <ele>392.9</ele>
        <time>2021-09-01T15:00:47Z</time>
      </trkpt>
      <trkpt lat="44.75109" lon="5.36331">
        <ele>392.9</ele>
        <time>2021-09-01T15:00:49Z</time>
      </trkpt>
      <trkpt lat="44.75109" lon="5.36332">
        <ele>392.9</ele>
        <time>2021-09-01T15:00:50Z</time>
      </trkpt>
      <trkpt lat="44.7511" lon="5.36333">
        <ele>392.9</ele>
        <time>2021-09-01T15:00:51Z</time>
      </trkpt>
      <trkpt lat="44.75115" lon="5.36335">
        <ele>392.9</ele>
        <time>2021-09-01T15:00:52Z</time>
      </trkpt>
      <trkpt lat="44.75117" lon="5.36335">
        <ele>392.9</ele>
        <time>2021-09-01T15:00:53Z</time>
      </trkpt>
      <trkpt lat="44.75122" lon="5.36335">
        <ele>392.9</ele>
        <time>2021-09-01T15:00:54Z</time>
      </trkpt>
      <trkpt lat="44.75126" lon="5.36335">
        <ele>392.9</ele>
        <time>2021-09-01T15:00:56Z</time>
      </trkpt>
      <trkpt lat="44.75129" lon="5.36336">
        <ele>392.8</ele>
        <time>2021-09-01T15:00:57Z</time>
      </trkpt>
      <trkpt lat="44.75132" lon="5.36336">
        <ele>392.8</ele>
        <time>2021-09-01T15:00:58Z</time>
      </trkpt>
      <trkpt lat="44.75135" lon="5.36337">
        <ele>392.8</ele>
        <time>2021-09-01T15:00:59Z</time>
      </trkpt>
      <trkpt lat="44.75139" lon="5.36339">
        <ele>392.8</ele>
        <time>2021-09-01T15:01:01Z</time>
      </trkpt>
      <trkpt lat="44.75143" lon="5.36341">
        <ele>392.8</ele>
        <time>2021-09-01T15:01:03Z</time>
      </trkpt>
      <trkpt lat="44.75145" lon="5.36341">
        <ele>392.8</ele>
        <time>2021-09-01T15:01:04Z</time>
      </trkpt>
      <trkpt lat="44.75148" lon="5.36341">
        <ele>392.8</ele>
        <time>2021-09-01T15:01:06Z</time>
      </trkpt>
      <trkpt lat="44.75151" lon="5.3634">
        <ele>392.8</ele>
        <time>2021-09-01T15:01:07Z</time>
      </trkpt>
      <trkpt lat="44.75152" lon="5.3634">
        <ele>392.8</ele>
        <time>2021-09-01T15:01:08Z</time>
      </trkpt>
      <trkpt lat="44.75154" lon="5.36339">
        <ele>392.8</ele>
        <time>2021-09-01T15:01:10Z</time>
      </trkpt>
      <trkpt lat="44.75155" lon="5.36338">
        <ele>392.8</ele>
        <time>2021-09-01T15:01:11Z</time>
      </trkpt>
      <trkpt lat="44.75155" lon="5.36337">
        <ele>392.8</ele>
        <time>2021-09-01T15:01:12Z</time>
      </trkpt>
      <trkpt lat="44.75155" lon="5.36336">
        <ele>392.8</ele>
        <time>2021-09-01T15:01:14Z</time>
      </trkpt>
      <trkpt lat="44.75155" lon="5.36336">
        <ele>392.8</ele>
        <time>2021-09-01T15:01:16Z</time>
      </trkpt>
      <trkpt lat="44.75154" lon="5.36335">
        <ele>392.8</ele>
        <time>2021-09-01T15:01:17Z</time>
      </trkpt>
      <trkpt lat="44.75154" lon="5.36335">
        <ele>392.8</ele>
        <time>2021-09-01T15:01:18Z</time>
      </trkpt>
      <trkpt lat="44.75154" lon="5.36335">
        <ele>392.8</ele>
        <time>2021-09-01T15:01:20Z</time>
      </trkpt>
      <trkpt lat="44.75154" lon="5.36335">
        <ele>392.8</ele>
        <time>2021-09-01T15:01:22Z</time>
      </trkpt>
      <trkpt lat="44.75151" lon="5.36327">
        <ele>392.8</ele>
        <time>2021-09-01T15:03:26Z</time>
      </trkpt>
      <trkpt lat="44.75151" lon="5.36333">
        <ele>392.8</ele>
        <time>2021-09-01T15:03:28Z</time>
      </trkpt>
      <trkpt lat="44.75151" lon="5.36335">
        <ele>392.8</ele>
        <time>2021-09-01T15:03:29Z</time>
      </trkpt>
      <trkpt lat="44.75151" lon="5.36335">
        <ele>392.8</ele>
        <time>2021-09-01T15:03:31Z</time>
      </trkpt>
      <trkpt lat="44.75152" lon="5.36335">
        <ele>392.8</ele>
        <time>2021-09-01T15:03:32Z</time>
      </trkpt>
      <trkpt lat="44.75152" lon="5.36335">
        <ele>392.8</ele>
        <time>2021-09-01T15:03:34Z</time>
      </trkpt>
      <trkpt lat="44.75152" lon="5.36335">
        <ele>392.8</ele>
        <time>2021-09-01T15:03:35Z</time>
      </trkpt>
      <trkpt lat="44.75152" lon="5.36335">
        <ele>392.8</ele>
        <time>2021-09-01T15:03:37Z</time>
      </trkpt>
      <trkpt lat="44.75153" lon="5.36336">
        <ele>392.8</ele>
        <time>2021-09-01T15:03:39Z</time>
      </trkpt>
      <trkpt lat="44.75153" lon="5.36336">
        <ele>392.8</ele>
        <time>2021-09-01T15:03:41Z</time>
      </trkpt>
      <trkpt lat="44.75153" lon="5.36336">
        <ele>392.8</ele>
        <time>2021-09-01T15:03:42Z</time>
      </trkpt>
      <trkpt lat="44.75153" lon="5.36336">
        <ele>392.8</ele>
        <time>2021-09-01T15:03:43Z</time>
      </trkpt>
      <trkpt lat="44.75153" lon="5.36336">
        <ele>392.8</ele>
        <time>2021-09-01T15:03:45Z</time>
      </trkpt>
      <trkpt lat="44.75154" lon="5.36336">
        <ele>392.8</ele>
        <time>2021-09-01T15:03:46Z</time>
      </trkpt>
      <trkpt lat="44.75154" lon="5.36336">
        <ele>392.8</ele>
        <time>2021-09-01T15:03:48Z</time>
      </trkpt>
      <trkpt lat="44.75154" lon="5.36336">
        <ele>392.8</ele>
        <time>2021-09-01T15:03:49Z</time>
      </trkpt>
      <trkpt lat="44.75154" lon="5.36336">
        <ele>392.8</ele>
        <time>2021-09-01T15:03:51Z</time>
      </trkpt>
      <trkpt lat="44.75155" lon="5.36337">
        <ele>392.8</ele>
        <time>2021-09-01T15:03:52Z</time>
      </trkpt>
      <trkpt lat="44.75155" lon="5.36337">
        <ele>392.8</ele>
        <time>2021-09-01T15:03:53Z</time>
      </trkpt>
      <trkpt lat="44.75155" lon="5.36337">
        <ele>392.8</ele>
        <time>2021-09-01T15:03:54Z</time>
      </trkpt>
      <trkpt lat="44.75155" lon="5.36337">
        <ele>392.8</ele>
        <time>2021-09-01T15:03:56Z</time>
      </trkpt>
      <trkpt lat="44.75155" lon="5.36337">
        <ele>392.8</ele>
        <time>2021-09-01T15:03:57Z</time>
      </trkpt>
      <trkpt lat="44.75156" lon="5.36337">
        <ele>392.8</ele>
        <time>2021-09-01T15:03:58Z</time>
      </trkpt>
      <trkpt lat="44.75157" lon="5.36338">
        <ele>392.8</ele>
        <time>2021-09-01T15:04:00Z</time>
      </trkpt>
      <trkpt lat="44.75159" lon="5.36339">
        <ele>392.8</ele>
        <time>2021-09-01T15:04:01Z</time>
      </trkpt>
      <trkpt lat="44.7516" lon="5.3634">
        <ele>392.8</ele>
        <time>2021-09-01T15:04:03Z</time>
      </trkpt>
      <trkpt lat="44.75161" lon="5.3634">
        <ele>392.8</ele>
        <time>2021-09-01T15:04:05Z</time>
      </trkpt>
      <trkpt lat="44.75161" lon="5.36341">
        <ele>392.8</ele>
        <time>2021-09-01T15:04:06Z</time>
      </trkpt>
      <trkpt lat="44.75162" lon="5.36341">
        <ele>392.8</ele>
        <time>2021-09-01T15:04:08Z</time>
      </trkpt>
      <trkpt lat="44.75163" lon="5.36341">
        <ele>392.8</ele>
        <time>2021-09-01T15:04:09Z</time>
      </trkpt>
      <trkpt lat="44.75163" lon="5.36341">
        <ele>392.8</ele>
        <time>2021-09-01T15:04:10Z</time>
      </trkpt>
      <trkpt lat="44.75164" lon="5.36341">
        <ele>392.8</ele>
        <time>2021-09-01T15:04:11Z</time>
      </trkpt>
      <trkpt lat="44.75165" lon="5.36341">
        <ele>392.8</ele>
        <time>2021-09-01T15:04:13Z</time>
      </trkpt>
      <trkpt lat="44.75165" lon="5.36341">
        <ele>392.8</ele>
        <time>2021-09-01T15:04:14Z</time>
      </trkpt>
      <trkpt lat="44.75167" lon="5.36341">
        <ele>392.8</ele>
        <time>2021-09-01T15:04:15Z</time>
      </trkpt>
      <trkpt lat="44.75168" lon="5.36342">
        <ele>392.8</ele>
        <time>2021-09-01T15:04:16Z</time>
      </trkpt>
      <trkpt lat="44.75171" lon="5.36343">
        <ele>392.8</ele>
        <time>2021-09-01T15:04:17Z</time>
      </trkpt>
      <trkpt lat="44.75172" lon="5.36344">
        <ele>392.9</ele>
        <time>2021-09-01T15:04:19Z</time>
      </trkpt>
      <trkpt lat="44.75173" lon="5.36345">
        <ele>392.9</ele>
        <time>2021-09-01T15:04:20Z</time>
      </trkpt>
      <trkpt lat="44.75174" lon="5.36345">
        <ele>392.9</ele>
        <time>2021-09-01T15:04:21Z</time>
      </trkpt>
      <trkpt lat="44.75175" lon="5.36345">
        <ele>392.9</ele>
        <time>2021-09-01T15:04:23Z</time>
      </trkpt>
      <trkpt lat="44.75176" lon="5.36345">
        <ele>392.9</ele>
        <time>2021-09-01T15:04:25Z</time>
      </trkpt>
      <trkpt lat="44.75177" lon="5.36345">
        <ele>392.9</ele>
        <time>2021-09-01T15:04:26Z</time>
      </trkpt>
      <trkpt lat="44.75177" lon="5.36345">
        <ele>392.9</ele>
        <time>2021-09-01T15:04:27Z</time>
      </trkpt>
      <trkpt lat="44.75177" lon="5.36345">
        <ele>392.9</ele>
        <time>2021-09-01T15:04:29Z</time>
      </trkpt>
      <trkpt lat="44.74616" lon="5.38549">
        <ele>412.8</ele>
        <time>2021-09-03T07:36:24Z</time>
      </trkpt>
      <trkpt lat="44.74616" lon="5.38549">
        <ele>412.8</ele>
        <time>2021-09-03T07:36:24Z</time>
      </trkpt>
      <trkpt lat="44.74633" lon="5.38469">
        <ele>410.6</ele>
        <time>2021-09-03T07:36:44Z</time>
      </trkpt>
      <trkpt lat="44.74636" lon="5.38468">
        <ele>410.6</ele>
        <time>2021-09-03T07:36:46Z</time>
      </trkpt>
      <trkpt lat="44.74636" lon="5.38479">
        <ele>410.8</ele>
        <time>2021-09-03T07:36:48Z</time>
      </trkpt>
      <trkpt lat="44.74636" lon="5.38483">
        <ele>410.9</ele>
        <time>2021-09-03T07:36:49Z</time>
      </trkpt>
      <trkpt lat="44.74635" lon="5.38484">
        <ele>410.9</ele>
        <time>2021-09-03T07:36:50Z</time>
      </trkpt>
      <trkpt lat="44.74634" lon="5.38487">
        <ele>411</ele>
        <time>2021-09-03T07:36:51Z</time>
      </trkpt>
      <trkpt lat="44.74634" lon="5.38489">
        <ele>411</ele>
        <time>2021-09-03T07:36:53Z</time>
      </trkpt>
      <trkpt lat="44.7463" lon="5.38493">
        <ele>411.2</ele>
        <time>2021-09-03T07:36:54Z</time>
      </trkpt>
      <trkpt lat="44.74629" lon="5.38495">
        <ele>411.3</ele>
        <time>2021-09-03T07:36:55Z</time>
      </trkpt>
      <trkpt lat="44.74627" lon="5.38497">
        <ele>411.3</ele>
        <time>2021-09-03T07:36:57Z</time>
      </trkpt>
      <trkpt lat="44.74626" lon="5.38498">
        <ele>411.4</ele>
        <time>2021-09-03T07:36:58Z</time>
      </trkpt>
      <trkpt lat="44.74591" lon="5.38624">
        <ele>414.4</ele>
        <time>2021-09-03T07:37:29Z</time>
      </trkpt>
      <trkpt lat="44.74588" lon="5.38628">
        <ele>414.6</ele>
        <time>2021-09-03T07:37:30Z</time>
      </trkpt>
      <trkpt lat="44.74585" lon="5.3863">
        <ele>414.8</ele>
        <time>2021-09-03T07:37:31Z</time>
      </trkpt>
      <trkpt lat="44.74579" lon="5.38634">
        <ele>415.2</ele>
        <time>2021-09-03T07:37:33Z</time>
      </trkpt>
      <trkpt lat="44.74576" lon="5.38636">
        <ele>415.3</ele>
        <time>2021-09-03T07:37:34Z</time>
      </trkpt>
      <trkpt lat="44.74573" lon="5.3864">
        <ele>415.6</ele>
        <time>2021-09-03T07:37:36Z</time>
      </trkpt>
      <trkpt lat="44.74568" lon="5.38647">
        <ele>416</ele>
        <time>2021-09-03T07:37:38Z</time>
      </trkpt>
      <trkpt lat="44.74566" lon="5.38649">
        <ele>416.1</ele>
        <time>2021-09-03T07:37:39Z</time>
      </trkpt>
      <trkpt lat="44.74566" lon="5.38651">
        <ele>416.2</ele>
        <time>2021-09-03T07:37:41Z</time>
      </trkpt>
      <trkpt lat="44.74566" lon="5.38652">
        <ele>416.2</ele>
        <time>2021-09-03T07:37:42Z</time>
      </trkpt>
      <trkpt lat="44.74566" lon="5.38652">
        <ele>416.3</ele>
        <time>2021-09-03T07:37:44Z</time>
      </trkpt>
      <trkpt lat="44.74558" lon="5.38679">
        <ele>417.4</ele>
        <time>2021-09-03T07:38:02Z</time>
      </trkpt>
      <trkpt lat="44.74556" lon="5.38681">
        <ele>417.6</ele>
        <time>2021-09-03T07:38:03Z</time>
      </trkpt>
      <trkpt lat="44.74551" lon="5.38686">
        <ele>418</ele>
        <time>2021-09-03T07:38:05Z</time>
      </trkpt>
      <trkpt lat="44.74548" lon="5.3869">
        <ele>418.2</ele>
        <time>2021-09-03T07:38:06Z</time>
      </trkpt>
      <trkpt lat="44.74546" lon="5.38695">
        <ele>418.5</ele>
        <time>2021-09-03T07:38:07Z</time>
      </trkpt>
      <trkpt lat="44.74541" lon="5.38701">
        <ele>418.8</ele>
        <time>2021-09-03T07:38:09Z</time>
      </trkpt>
      <trkpt lat="44.74538" lon="5.38703">
        <ele>419.1</ele>
        <time>2021-09-03T07:38:10Z</time>
      </trkpt>
      <trkpt lat="44.74536" lon="5.38704">
        <ele>419.2</ele>
        <time>2021-09-03T07:38:11Z</time>
      </trkpt>
      <trkpt lat="44.74532" lon="5.38707">
        <ele>419.6</ele>
        <time>2021-09-03T07:38:12Z</time>
      </trkpt>
      <trkpt lat="44.7453" lon="5.3871">
        <ele>419.8</ele>
        <time>2021-09-03T07:38:14Z</time>
      </trkpt>
      <trkpt lat="44.74529" lon="5.38711">
        <ele>419.9</ele>
        <time>2021-09-03T07:38:15Z</time>
      </trkpt>
      <trkpt lat="44.74527" lon="5.38715">
        <ele>420.1</ele>
        <time>2021-09-03T07:38:17Z</time>
      </trkpt>
      <trkpt lat="44.7452" lon="5.38724">
        <ele>420.8</ele>
        <time>2021-09-03T07:38:22Z</time>
      </trkpt>
      <trkpt lat="44.74518" lon="5.38725">
        <ele>420.9</ele>
        <time>2021-09-03T07:38:23Z</time>
      </trkpt>
      <trkpt lat="44.74517" lon="5.38727">
        <ele>421.1</ele>
        <time>2021-09-03T07:38:24Z</time>
      </trkpt>
      <trkpt lat="44.74514" lon="5.38729">
        <ele>421.3</ele>
        <time>2021-09-03T07:38:25Z</time>
      </trkpt>
      <trkpt lat="44.74512" lon="5.38732">
        <ele>421.5</ele>
        <time>2021-09-03T07:38:26Z</time>
      </trkpt>
      <trkpt lat="44.7451" lon="5.38736">
        <ele>421.8</ele>
        <time>2021-09-03T07:38:27Z</time>
      </trkpt>
      <trkpt lat="44.74509" lon="5.38739">
        <ele>422</ele>
        <time>2021-09-03T07:38:28Z</time>
      </trkpt>
      <trkpt lat="44.74507" lon="5.38743">
        <ele>422.2</ele>
        <time>2021-09-03T07:38:29Z</time>
      </trkpt>
      <trkpt lat="44.74504" lon="5.38748">
        <ele>422.5</ele>
        <time>2021-09-03T07:38:31Z</time>
      </trkpt>
      <trkpt lat="44.74503" lon="5.38748">
        <ele>422.6</ele>
        <time>2021-09-03T07:38:33Z</time>
      </trkpt>
      <trkpt lat="44.74502" lon="5.3875">
        <ele>422.7</ele>
        <time>2021-09-03T07:38:34Z</time>
      </trkpt>
      <trkpt lat="44.74502" lon="5.38751">
        <ele>422.7</ele>
        <time>2021-09-03T07:38:35Z</time>
      </trkpt>
      <trkpt lat="44.74502" lon="5.38751">
        <ele>422.8</ele>
        <time>2021-09-03T07:38:36Z</time>
      </trkpt>
      <trkpt lat="44.74502" lon="5.38752">
        <ele>422.8</ele>
        <time>2021-09-03T07:38:37Z</time>
      </trkpt>
      <trkpt lat="44.74502" lon="5.38753">
        <ele>422.8</ele>
        <time>2021-09-03T07:38:38Z</time>
      </trkpt>
      <trkpt lat="44.74502" lon="5.38753">
        <ele>422.9</ele>
        <time>2021-09-03T07:38:40Z</time>
      </trkpt>
      <trkpt lat="44.74501" lon="5.38755">
        <ele>423</ele>
        <time>2021-09-03T07:38:41Z</time>
      </trkpt>
      <trkpt lat="44.74499" lon="5.38759">
        <ele>423.2</ele>
        <time>2021-09-03T07:38:42Z</time>
      </trkpt>
      <trkpt lat="44.74499" lon="5.38761">
        <ele>423.3</ele>
        <time>2021-09-03T07:38:43Z</time>
      </trkpt>
      <trkpt lat="44.74499" lon="5.38768">
        <ele>423.6</ele>
        <time>2021-09-03T07:38:45Z</time>
      </trkpt>
      <trkpt lat="44.74499" lon="5.38774">
        <ele>423.9</ele>
        <time>2021-09-03T07:38:46Z</time>
      </trkpt>
      <trkpt lat="44.74499" lon="5.38781">
        <ele>424.1</ele>
        <time>2021-09-03T07:38:47Z</time>
      </trkpt>
      <trkpt lat="44.74498" lon="5.38789">
        <ele>424.3</ele>
        <time>2021-09-03T07:38:48Z</time>
      </trkpt>
      <trkpt lat="44.74494" lon="5.38796">
        <ele>424.5</ele>
        <time>2021-09-03T07:38:49Z</time>
      </trkpt>
      <trkpt lat="44.74492" lon="5.388">
        <ele>424.6</ele>
        <time>2021-09-03T07:38:50Z</time>
      </trkpt>
      <trkpt lat="44.74489" lon="5.38806">
        <ele>424.6</ele>
        <time>2021-09-03T07:38:51Z</time>
      </trkpt>
      <trkpt lat="44.74487" lon="5.38809">
        <ele>424.6</ele>
        <time>2021-09-03T07:38:53Z</time>
      </trkpt>
      <trkpt lat="44.74483" lon="5.38812">
        <ele>424.7</ele>
        <time>2021-09-03T07:38:54Z</time>
      </trkpt>
      <trkpt lat="44.7448" lon="5.38814">
        <ele>424.7</ele>
        <time>2021-09-03T07:38:55Z</time>
      </trkpt>
      <trkpt lat="44.74478" lon="5.38815">
        <ele>424.7</ele>
        <time>2021-09-03T07:38:57Z</time>
      </trkpt>
      <trkpt lat="44.74474" lon="5.38821">
        <ele>424.7</ele>
        <time>2021-09-03T07:38:59Z</time>
      </trkpt>
      <trkpt lat="44.74469" lon="5.38824">
        <ele>424.7</ele>
        <time>2021-09-03T07:39:00Z</time>
      </trkpt>
      <trkpt lat="44.74464" lon="5.38827">
        <ele>424.7</ele>
        <time>2021-09-03T07:39:02Z</time>
      </trkpt>
      <trkpt lat="44.74459" lon="5.38829">
        <ele>424.6</ele>
        <time>2021-09-03T07:39:03Z</time>
      </trkpt>
      <trkpt lat="44.74454" lon="5.38831">
        <ele>424.6</ele>
        <time>2021-09-03T07:39:05Z</time>
      </trkpt>
      <trkpt lat="44.74448" lon="5.38834">
        <ele>424.6</ele>
        <time>2021-09-03T07:39:06Z</time>
      </trkpt>
      <trkpt lat="44.74443" lon="5.38836">
        <ele>424.6</ele>
        <time>2021-09-03T07:39:07Z</time>
      </trkpt>
      <trkpt lat="44.74438" lon="5.38837">
        <ele>424.5</ele>
        <time>2021-09-03T07:39:09Z</time>
      </trkpt>
      <trkpt lat="44.74433" lon="5.38839">
        <ele>424.5</ele>
        <time>2021-09-03T07:39:10Z</time>
      </trkpt>
      <trkpt lat="44.74428" lon="5.38842">
        <ele>424.4</ele>
        <time>2021-09-03T07:39:11Z</time>
      </trkpt>
      <trkpt lat="44.74423" lon="5.38845">
        <ele>424.4</ele>
        <time>2021-09-03T07:39:12Z</time>
      </trkpt>
      <trkpt lat="44.74417" lon="5.38849">
        <ele>424.4</ele>
        <time>2021-09-03T07:39:14Z</time>
      </trkpt>
      <trkpt lat="44.7441" lon="5.38856">
        <ele>424.4</ele>
        <time>2021-09-03T07:39:16Z</time>
      </trkpt>
      <trkpt lat="44.74405" lon="5.38863">
        <ele>424.4</ele>
        <time>2021-09-03T07:39:17Z</time>
      </trkpt>
      <trkpt lat="44.74399" lon="5.38871">
        <ele>424.4</ele>
        <time>2021-09-03T07:39:19Z</time>
      </trkpt>
      <trkpt lat="44.74394" lon="5.3888">
        <ele>424.5</ele>
        <time>2021-09-03T07:39:21Z</time>
      </trkpt>
      <trkpt lat="44.74389" lon="5.38889">
        <ele>424.6</ele>
        <time>2021-09-03T07:39:23Z</time>
      </trkpt>
      <trkpt lat="44.74385" lon="5.38895">
        <ele>424.7</ele>
        <time>2021-09-03T07:39:24Z</time>
      </trkpt>
      <trkpt lat="44.74382" lon="5.389">
        <ele>424.8</ele>
        <time>2021-09-03T07:39:25Z</time>
      </trkpt>
      <trkpt lat="44.7438" lon="5.38906">
        <ele>424.9</ele>
        <time>2021-09-03T07:39:26Z</time>
      </trkpt>
      <trkpt lat="44.74378" lon="5.38913">
        <ele>425.1</ele>
        <time>2021-09-03T07:39:27Z</time>
      </trkpt>
      <trkpt lat="44.74374" lon="5.38918">
        <ele>425.3</ele>
        <time>2021-09-03T07:39:29Z</time>
      </trkpt>
      <trkpt lat="44.74371" lon="5.38923">
        <ele>425.5</ele>
        <time>2021-09-03T07:39:31Z</time>
      </trkpt>
      <trkpt lat="44.74369" lon="5.38928">
        <ele>425.6</ele>
        <time>2021-09-03T07:39:32Z</time>
      </trkpt>
      <trkpt lat="44.74367" lon="5.38935">
        <ele>425.9</ele>
        <time>2021-09-03T07:39:34Z</time>
      </trkpt>
      <trkpt lat="44.74364" lon="5.38941">
        <ele>426.2</ele>
        <time>2021-09-03T07:39:36Z</time>
      </trkpt>
      <trkpt lat="44.74363" lon="5.38946">
        <ele>426.4</ele>
        <time>2021-09-03T07:39:37Z</time>
      </trkpt>
      <trkpt lat="44.74363" lon="5.38951">
        <ele>426.6</ele>
        <time>2021-09-03T07:39:38Z</time>
      </trkpt>
      <trkpt lat="44.74362" lon="5.38953">
        <ele>426.7</ele>
        <time>2021-09-03T07:39:39Z</time>
      </trkpt>
      <trkpt lat="44.74362" lon="5.38958">
        <ele>426.9</ele>
        <time>2021-09-03T07:39:40Z</time>
      </trkpt>
      <trkpt lat="44.7436" lon="5.38963">
        <ele>427.2</ele>
        <time>2021-09-03T07:39:42Z</time>
      </trkpt>
      <trkpt lat="44.74357" lon="5.38968">
        <ele>427.4</ele>
        <time>2021-09-03T07:39:43Z</time>
      </trkpt>
      <trkpt lat="44.74356" lon="5.38973">
        <ele>427.6</ele>
        <time>2021-09-03T07:39:45Z</time>
      </trkpt>
      <trkpt lat="44.74355" lon="5.38978">
        <ele>427.8</ele>
        <time>2021-09-03T07:39:46Z</time>
      </trkpt>
      <trkpt lat="44.74353" lon="5.3898">
        <ele>428</ele>
        <time>2021-09-03T07:39:47Z</time>
      </trkpt>
      <trkpt lat="44.74352" lon="5.38979">
        <ele>428</ele>
        <time>2021-09-03T07:39:49Z</time>
      </trkpt>
      <trkpt lat="44.74351" lon="5.38979">
        <ele>428.1</ele>
        <time>2021-09-03T07:39:50Z</time>
      </trkpt>
      <trkpt lat="44.7435" lon="5.3898">
        <ele>428.2</ele>
        <time>2021-09-03T07:39:51Z</time>
      </trkpt>
      <trkpt lat="44.74349" lon="5.38981">
        <ele>428.2</ele>
        <time>2021-09-03T07:39:52Z</time>
      </trkpt>
      <trkpt lat="44.74348" lon="5.38984">
        <ele>428.4</ele>
        <time>2021-09-03T07:39:54Z</time>
      </trkpt>
      <trkpt lat="44.74346" lon="5.38989">
        <ele>428.6</ele>
        <time>2021-09-03T07:39:55Z</time>
      </trkpt>
      <trkpt lat="44.74342" lon="5.38997">
        <ele>429</ele>
        <time>2021-09-03T07:39:57Z</time>
      </trkpt>
      <trkpt lat="44.74338" lon="5.39004">
        <ele>429.4</ele>
        <time>2021-09-03T07:39:59Z</time>
      </trkpt>
      <trkpt lat="44.74335" lon="5.39008">
        <ele>430</ele>
        <time>2021-09-03T07:40:00Z</time>
      </trkpt>
      <trkpt lat="44.74333" lon="5.39011">
        <ele>430.1</ele>
        <time>2021-09-03T07:40:01Z</time>
      </trkpt>
      <trkpt lat="44.7433" lon="5.39014">
        <ele>430.3</ele>
        <time>2021-09-03T07:40:02Z</time>
      </trkpt>
      <trkpt lat="44.74329" lon="5.39015">
        <ele>430.3</ele>
        <time>2021-09-03T07:40:03Z</time>
      </trkpt>
      <trkpt lat="44.74326" lon="5.39017">
        <ele>430.5</ele>
        <time>2021-09-03T07:40:05Z</time>
      </trkpt>
      <trkpt lat="44.74324" lon="5.39019">
        <ele>430.6</ele>
        <time>2021-09-03T07:40:06Z</time>
      </trkpt>
      <trkpt lat="44.74321" lon="5.39021">
        <ele>430.7</ele>
        <time>2021-09-03T07:40:08Z</time>
      </trkpt>
      <trkpt lat="44.74318" lon="5.39023">
        <ele>430.9</ele>
        <time>2021-09-03T07:40:10Z</time>
      </trkpt>
      <trkpt lat="44.74316" lon="5.39025">
        <ele>431</ele>
        <time>2021-09-03T07:40:11Z</time>
      </trkpt>
      <trkpt lat="44.74312" lon="5.39024">
        <ele>431.2</ele>
        <time>2021-09-03T07:40:13Z</time>
      </trkpt>
      <trkpt lat="44.74309" lon="5.39023">
        <ele>431.4</ele>
        <time>2021-09-03T07:40:14Z</time>
      </trkpt>
      <trkpt lat="44.74307" lon="5.39025">
        <ele>431.5</ele>
        <time>2021-09-03T07:40:15Z</time>
      </trkpt>
      <trkpt lat="44.74304" lon="5.39027">
        <ele>431.6</ele>
        <time>2021-09-03T07:40:17Z</time>
      </trkpt>
      <trkpt lat="44.74301" lon="5.39028">
        <ele>431.8</ele>
        <time>2021-09-03T07:40:18Z</time>
      </trkpt>
      <trkpt lat="44.74299" lon="5.39028">
        <ele>431.9</ele>
        <time>2021-09-03T07:40:19Z</time>
      </trkpt>
      <trkpt lat="44.74295" lon="5.39028">
        <ele>432.1</ele>
        <time>2021-09-03T07:40:21Z</time>
      </trkpt>
      <trkpt lat="44.74294" lon="5.39032">
        <ele>432.2</ele>
        <time>2021-09-03T07:40:22Z</time>
      </trkpt>
      <trkpt lat="44.74295" lon="5.39036">
        <ele>432.3</ele>
        <time>2021-09-03T07:40:23Z</time>
      </trkpt>
      <trkpt lat="44.74295" lon="5.3904">
        <ele>432.5</ele>
        <time>2021-09-03T07:40:24Z</time>
      </trkpt>
      <trkpt lat="44.74295" lon="5.39048">
        <ele>432.7</ele>
        <time>2021-09-03T07:40:26Z</time>
      </trkpt>
      <trkpt lat="44.74295" lon="5.39052">
        <ele>432.8</ele>
        <time>2021-09-03T07:40:27Z</time>
      </trkpt>
      <trkpt lat="44.74292" lon="5.39054">
        <ele>433</ele>
        <time>2021-09-03T07:40:29Z</time>
      </trkpt>
      <trkpt lat="44.7429" lon="5.39054">
        <ele>433</ele>
        <time>2021-09-03T07:40:30Z</time>
      </trkpt>
      <trkpt lat="44.74289" lon="5.39054">
        <ele>433.1</ele>
        <time>2021-09-03T07:40:31Z</time>
      </trkpt>
      <trkpt lat="44.74287" lon="5.39054">
        <ele>433.1</ele>
        <time>2021-09-03T07:40:32Z</time>
      </trkpt>
      <trkpt lat="44.74283" lon="5.39056">
        <ele>433.3</ele>
        <time>2021-09-03T07:40:34Z</time>
      </trkpt>
      <trkpt lat="44.74282" lon="5.39058">
        <ele>433.4</ele>
        <time>2021-09-03T07:40:35Z</time>
      </trkpt>
      <trkpt lat="44.74281" lon="5.39059">
        <ele>433.4</ele>
        <time>2021-09-03T07:40:36Z</time>
      </trkpt>
      <trkpt lat="44.74278" lon="5.39061">
        <ele>433.5</ele>
        <time>2021-09-03T07:40:37Z</time>
      </trkpt>
      <trkpt lat="44.74271" lon="5.39063">
        <ele>433.7</ele>
        <time>2021-09-03T07:40:39Z</time>
      </trkpt>
      <trkpt lat="44.74265" lon="5.39065">
        <ele>433.8</ele>
        <time>2021-09-03T07:40:40Z</time>
      </trkpt>
      <trkpt lat="44.7426" lon="5.39067">
        <ele>433.9</ele>
        <time>2021-09-03T07:40:41Z</time>
      </trkpt>
      <trkpt lat="44.74254" lon="5.3907">
        <ele>434</ele>
        <time>2021-09-03T07:40:42Z</time>
      </trkpt>
      <trkpt lat="44.74249" lon="5.39072">
        <ele>434.1</ele>
        <time>2021-09-03T07:40:43Z</time>
      </trkpt>
      <trkpt lat="44.7424" lon="5.39078">
        <ele>434.3</ele>
        <time>2021-09-03T07:40:45Z</time>
      </trkpt>
      <trkpt lat="44.74235" lon="5.39081">
        <ele>434.4</ele>
        <time>2021-09-03T07:40:46Z</time>
      </trkpt>
      <trkpt lat="44.74231" lon="5.39084">
        <ele>434.5</ele>
        <time>2021-09-03T07:40:47Z</time>
      </trkpt>
      <trkpt lat="44.74227" lon="5.39087">
        <ele>434.6</ele>
        <time>2021-09-03T07:40:48Z</time>
      </trkpt>
      <trkpt lat="44.7422" lon="5.39092">
        <ele>434.9</ele>
        <time>2021-09-03T07:40:50Z</time>
      </trkpt>
      <trkpt lat="44.74217" lon="5.39094">
        <ele>435</ele>
        <time>2021-09-03T07:40:51Z</time>
      </trkpt>
      <trkpt lat="44.74212" lon="5.39096">
        <ele>435.1</ele>
        <time>2021-09-03T07:40:53Z</time>
      </trkpt>
      <trkpt lat="44.74207" lon="5.39095">
        <ele>435.2</ele>
        <time>2021-09-03T07:40:54Z</time>
      </trkpt>
      <trkpt lat="44.74202" lon="5.39096">
        <ele>435.4</ele>
        <time>2021-09-03T07:40:56Z</time>
      </trkpt>
      <trkpt lat="44.74199" lon="5.39097">
        <ele>435.5</ele>
        <time>2021-09-03T07:40:57Z</time>
      </trkpt>
      <trkpt lat="44.74194" lon="5.391">
        <ele>435.7</ele>
        <time>2021-09-03T07:40:59Z</time>
      </trkpt>
      <trkpt lat="44.74189" lon="5.39103">
        <ele>435.8</ele>
        <time>2021-09-03T07:41:00Z</time>
      </trkpt>
      <trkpt lat="44.74187" lon="5.39108">
        <ele>435.9</ele>
        <time>2021-09-03T07:41:01Z</time>
      </trkpt>
      <trkpt lat="44.74182" lon="5.39115">
        <ele>436.1</ele>
        <time>2021-09-03T07:41:03Z</time>
      </trkpt>
      <trkpt lat="44.74177" lon="5.39121">
        <ele>436.3</ele>
        <time>2021-09-03T07:41:05Z</time>
      </trkpt>
      <trkpt lat="44.74172" lon="5.39126">
        <ele>436.4</ele>
        <time>2021-09-03T07:41:07Z</time>
      </trkpt>
      <trkpt lat="44.74169" lon="5.39128">
        <ele>436.5</ele>
        <time>2021-09-03T07:41:08Z</time>
      </trkpt>
      <trkpt lat="44.74167" lon="5.3913">
        <ele>436.6</ele>
        <time>2021-09-03T07:41:09Z</time>
      </trkpt>
      <trkpt lat="44.74165" lon="5.39133">
        <ele>436.7</ele>
        <time>2021-09-03T07:41:10Z</time>
      </trkpt>
      <trkpt lat="44.74161" lon="5.39139">
        <ele>436.8</ele>
        <time>2021-09-03T07:41:12Z</time>
      </trkpt>
      <trkpt lat="44.74159" lon="5.39142">
        <ele>436.8</ele>
        <time>2021-09-03T07:41:13Z</time>
      </trkpt>
      <trkpt lat="44.74157" lon="5.39149">
        <ele>436.9</ele>
        <time>2021-09-03T07:41:15Z</time>
      </trkpt>
      <trkpt lat="44.74158" lon="5.39151">
        <ele>437</ele>
        <time>2021-09-03T07:41:16Z</time>
      </trkpt>
      <trkpt lat="44.74158" lon="5.39152">
        <ele>437</ele>
        <time>2021-09-03T07:41:17Z</time>
      </trkpt>
      <trkpt lat="44.74155" lon="5.39154">
        <ele>437.1</ele>
        <time>2021-09-03T07:41:19Z</time>
      </trkpt>
      <trkpt lat="44.74151" lon="5.39156">
        <ele>437.1</ele>
        <time>2021-09-03T07:41:21Z</time>
      </trkpt>
      <trkpt lat="44.74151" lon="5.39156">
        <ele>437.2</ele>
        <time>2021-09-03T07:41:22Z</time>
      </trkpt>
      <trkpt lat="44.74151" lon="5.39156">
        <ele>437.2</ele>
        <time>2021-09-03T07:41:23Z</time>
      </trkpt>
      <trkpt lat="44.74151" lon="5.39157">
        <ele>437.2</ele>
        <time>2021-09-03T07:41:24Z</time>
      </trkpt>
      <trkpt lat="44.7415" lon="5.39158">
        <ele>437.2</ele>
        <time>2021-09-03T07:41:25Z</time>
      </trkpt>
      <trkpt lat="44.74148" lon="5.39161">
        <ele>437.3</ele>
        <time>2021-09-03T07:41:27Z</time>
      </trkpt>
      <trkpt lat="44.74145" lon="5.39164">
        <ele>437.4</ele>
        <time>2021-09-03T07:41:28Z</time>
      </trkpt>
      <trkpt lat="44.74141" lon="5.39167">
        <ele>437.5</ele>
        <time>2021-09-03T07:41:29Z</time>
      </trkpt>
      <trkpt lat="44.74135" lon="5.39172">
        <ele>437.8</ele>
        <time>2021-09-03T07:41:31Z</time>
      </trkpt>
      <trkpt lat="44.74128" lon="5.39176">
        <ele>438.1</ele>
        <time>2021-09-03T07:41:33Z</time>
      </trkpt>
      <trkpt lat="44.74119" lon="5.39182">
        <ele>437.9</ele>
        <time>2021-09-03T07:41:35Z</time>
      </trkpt>
      <trkpt lat="44.74111" lon="5.39187">
        <ele>437.8</ele>
        <time>2021-09-03T07:41:36Z</time>
      </trkpt>
      <trkpt lat="44.74105" lon="5.39189">
        <ele>437.7</ele>
        <time>2021-09-03T07:41:38Z</time>
      </trkpt>
      <trkpt lat="44.74098" lon="5.39192">
        <ele>437.6</ele>
        <time>2021-09-03T07:41:39Z</time>
      </trkpt>
      <trkpt lat="44.74092" lon="5.39196">
        <ele>437.5</ele>
        <time>2021-09-03T07:41:40Z</time>
      </trkpt>
      <trkpt lat="44.74076" lon="5.39206">
        <ele>437.3</ele>
        <time>2021-09-03T07:41:42Z</time>
      </trkpt>
      <trkpt lat="44.74065" lon="5.39217">
        <ele>437.1</ele>
        <time>2021-09-03T07:41:44Z</time>
      </trkpt>
      <trkpt lat="44.7406" lon="5.39222">
        <ele>437.1</ele>
        <time>2021-09-03T07:41:45Z</time>
      </trkpt>
      <trkpt lat="44.74049" lon="5.39228">
        <ele>436.9</ele>
        <time>2021-09-03T07:41:47Z</time>
      </trkpt>
      <trkpt lat="44.74043" lon="5.3923">
        <ele>436.9</ele>
        <time>2021-09-03T07:41:48Z</time>
      </trkpt>
      <trkpt lat="44.74039" lon="5.39233">
        <ele>436.8</ele>
        <time>2021-09-03T07:41:49Z</time>
      </trkpt>
      <trkpt lat="44.74029" lon="5.39242">
        <ele>436.7</ele>
        <time>2021-09-03T07:41:51Z</time>
      </trkpt>
      <trkpt lat="44.74022" lon="5.39251">
        <ele>436.7</ele>
        <time>2021-09-03T07:41:53Z</time>
      </trkpt>
      <trkpt lat="44.74019" lon="5.39256">
        <ele>436.6</ele>
        <time>2021-09-03T07:41:54Z</time>
      </trkpt>
      <trkpt lat="44.74015" lon="5.39262">
        <ele>436.6</ele>
        <time>2021-09-03T07:41:55Z</time>
      </trkpt>
      <trkpt lat="44.74009" lon="5.39274">
        <ele>436.6</ele>
        <time>2021-09-03T07:41:57Z</time>
      </trkpt>
      <trkpt lat="44.74003" lon="5.39286">
        <ele>436.6</ele>
        <time>2021-09-03T07:41:59Z</time>
      </trkpt>
      <trkpt lat="44.74" lon="5.39293">
        <ele>436.6</ele>
        <time>2021-09-03T07:42:00Z</time>
      </trkpt>
      <trkpt lat="44.73995" lon="5.39304">
        <ele>436.6</ele>
        <time>2021-09-03T07:42:02Z</time>
      </trkpt>
      <trkpt lat="44.73992" lon="5.39309">
        <ele>436.7</ele>
        <time>2021-09-03T07:42:03Z</time>
      </trkpt>
      <trkpt lat="44.73985" lon="5.39317">
        <ele>436.8</ele>
        <time>2021-09-03T07:42:05Z</time>
      </trkpt>
      <trkpt lat="44.73978" lon="5.39325">
        <ele>436.9</ele>
        <time>2021-09-03T07:42:07Z</time>
      </trkpt>
      <trkpt lat="44.73971" lon="5.39331">
        <ele>437</ele>
        <time>2021-09-03T07:42:09Z</time>
      </trkpt>
      <trkpt lat="44.73968" lon="5.39334">
        <ele>437</ele>
        <time>2021-09-03T07:42:10Z</time>
      </trkpt>
      <trkpt lat="44.73961" lon="5.39342">
        <ele>437.1</ele>
        <time>2021-09-03T07:42:12Z</time>
      </trkpt>
      <trkpt lat="44.73958" lon="5.39346">
        <ele>437.2</ele>
        <time>2021-09-03T07:42:13Z</time>
      </trkpt>
      <trkpt lat="44.73951" lon="5.39352">
        <ele>437.3</ele>
        <time>2021-09-03T07:42:15Z</time>
      </trkpt>
      <trkpt lat="44.73949" lon="5.39353">
        <ele>437.4</ele>
        <time>2021-09-03T07:42:16Z</time>
      </trkpt>
      <trkpt lat="44.73947" lon="5.39348">
        <ele>437.4</ele>
        <time>2021-09-03T07:42:18Z</time>
      </trkpt>
      <trkpt lat="44.73945" lon="5.39358">
        <ele>437.5</ele>
        <time>2021-09-03T07:42:19Z</time>
      </trkpt>
      <trkpt lat="44.73941" lon="5.3937">
        <ele>437.5</ele>
        <time>2021-09-03T07:42:21Z</time>
      </trkpt>
      <trkpt lat="44.73939" lon="5.39376">
        <ele>437.5</ele>
        <time>2021-09-03T07:42:22Z</time>
      </trkpt>
      <trkpt lat="44.73937" lon="5.39382">
        <ele>437.4</ele>
        <time>2021-09-03T07:42:23Z</time>
      </trkpt>
      <trkpt lat="44.73934" lon="5.39392">
        <ele>437.2</ele>
        <time>2021-09-03T07:42:25Z</time>
      </trkpt>
      <trkpt lat="44.73932" lon="5.39399">
        <ele>437.1</ele>
        <time>2021-09-03T07:42:26Z</time>
      </trkpt>
      <trkpt lat="44.7393" lon="5.39408">
        <ele>437</ele>
        <time>2021-09-03T07:42:27Z</time>
      </trkpt>
      <trkpt lat="44.73928" lon="5.39418">
        <ele>436.9</ele>
        <time>2021-09-03T07:42:29Z</time>
      </trkpt>
      <trkpt lat="44.73925" lon="5.39426">
        <ele>436.8</ele>
        <time>2021-09-03T07:42:31Z</time>
      </trkpt>
      <trkpt lat="44.73916" lon="5.39437">
        <ele>436.7</ele>
        <time>2021-09-03T07:42:32Z</time>
      </trkpt>
      <trkpt lat="44.73907" lon="5.39448">
        <ele>436.6</ele>
        <time>2021-09-03T07:42:34Z</time>
      </trkpt>
      <trkpt lat="44.73904" lon="5.39455">
        <ele>436.6</ele>
        <time>2021-09-03T07:42:35Z</time>
      </trkpt>
      <trkpt lat="44.739" lon="5.39467">
        <ele>436.6</ele>
        <time>2021-09-03T07:42:37Z</time>
      </trkpt>
      <trkpt lat="44.73898" lon="5.39472">
        <ele>436.6</ele>
        <time>2021-09-03T07:42:38Z</time>
      </trkpt>
      <trkpt lat="44.73896" lon="5.39478">
        <ele>436.6</ele>
        <time>2021-09-03T07:42:39Z</time>
      </trkpt>
      <trkpt lat="44.73894" lon="5.39484">
        <ele>436.7</ele>
        <time>2021-09-03T07:42:40Z</time>
      </trkpt>
      <trkpt lat="44.73891" lon="5.39492">
        <ele>436.7</ele>
        <time>2021-09-03T07:42:42Z</time>
      </trkpt>
      <trkpt lat="44.73887" lon="5.39497">
        <ele>436.8</ele>
        <time>2021-09-03T07:42:43Z</time>
      </trkpt>
      <trkpt lat="44.73882" lon="5.39503">
        <ele>436.8</ele>
        <time>2021-09-03T07:42:45Z</time>
      </trkpt>
      <trkpt lat="44.73878" lon="5.3951">
        <ele>436.9</ele>
        <time>2021-09-03T07:42:46Z</time>
      </trkpt>
      <trkpt lat="44.73874" lon="5.39519">
        <ele>436.9</ele>
        <time>2021-09-03T07:42:48Z</time>
      </trkpt>
      <trkpt lat="44.73871" lon="5.3953">
        <ele>437</ele>
        <time>2021-09-03T07:42:50Z</time>
      </trkpt>
      <trkpt lat="44.73869" lon="5.39539">
        <ele>437.1</ele>
        <time>2021-09-03T07:42:51Z</time>
      </trkpt>
      <trkpt lat="44.73867" lon="5.39545">
        <ele>437.2</ele>
        <time>2021-09-03T07:42:52Z</time>
      </trkpt>
      <trkpt lat="44.73865" lon="5.39551">
        <ele>437.2</ele>
        <time>2021-09-03T07:42:53Z</time>
      </trkpt>
      <trkpt lat="44.73861" lon="5.39559">
        <ele>437.4</ele>
        <time>2021-09-03T07:42:55Z</time>
      </trkpt>
      <trkpt lat="44.73857" lon="5.3957">
        <ele>437.6</ele>
        <time>2021-09-03T07:42:57Z</time>
      </trkpt>
      <trkpt lat="44.73854" lon="5.39579">
        <ele>437.8</ele>
        <time>2021-09-03T07:42:59Z</time>
      </trkpt>
      <trkpt lat="44.7385" lon="5.39587">
        <ele>437.9</ele>
        <time>2021-09-03T07:43:01Z</time>
      </trkpt>
      <trkpt lat="44.73848" lon="5.39592">
        <ele>438.1</ele>
        <time>2021-09-03T07:43:02Z</time>
      </trkpt>
      <trkpt lat="44.73847" lon="5.39598">
        <ele>438.2</ele>
        <time>2021-09-03T07:43:04Z</time>
      </trkpt>
      <trkpt lat="44.73844" lon="5.39602">
        <ele>438.3</ele>
        <time>2021-09-03T07:43:05Z</time>
      </trkpt>
      <trkpt lat="44.73843" lon="5.39607">
        <ele>438.5</ele>
        <time>2021-09-03T07:43:07Z</time>
      </trkpt>
      <trkpt lat="44.7384" lon="5.39612">
        <ele>438.7</ele>
        <time>2021-09-03T07:43:08Z</time>
      </trkpt>
      <trkpt lat="44.73838" lon="5.39615">
        <ele>438.8</ele>
        <time>2021-09-03T07:43:09Z</time>
      </trkpt>
      <trkpt lat="44.73835" lon="5.39621">
        <ele>439</ele>
        <time>2021-09-03T07:43:11Z</time>
      </trkpt>
      <trkpt lat="44.73835" lon="5.39627">
        <ele>439.2</ele>
        <time>2021-09-03T07:43:12Z</time>
      </trkpt>
      <trkpt lat="44.73834" lon="5.39631">
        <ele>439.4</ele>
        <time>2021-09-03T07:43:13Z</time>
      </trkpt>
      <trkpt lat="44.73832" lon="5.39635">
        <ele>439.6</ele>
        <time>2021-09-03T07:43:14Z</time>
      </trkpt>
      <trkpt lat="44.73831" lon="5.39641">
        <ele>439.8</ele>
        <time>2021-09-03T07:43:15Z</time>
      </trkpt>
      <trkpt lat="44.7383" lon="5.39646">
        <ele>440</ele>
        <time>2021-09-03T07:43:17Z</time>
      </trkpt>
      <trkpt lat="44.73829" lon="5.39651">
        <ele>440.2</ele>
        <time>2021-09-03T07:43:18Z</time>
      </trkpt>
      <trkpt lat="44.73828" lon="5.39655">
        <ele>440.4</ele>
        <time>2021-09-03T07:43:20Z</time>
      </trkpt>
      <trkpt lat="44.73826" lon="5.39659">
        <ele>440.6</ele>
        <time>2021-09-03T07:43:21Z</time>
      </trkpt>
      <trkpt lat="44.73825" lon="5.3966">
        <ele>440.6</ele>
        <time>2021-09-03T07:43:22Z</time>
      </trkpt>
      <trkpt lat="44.73824" lon="5.39661">
        <ele>440.7</ele>
        <time>2021-09-03T07:43:23Z</time>
      </trkpt>
      <trkpt lat="44.73824" lon="5.39665">
        <ele>440.8</ele>
        <time>2021-09-03T07:43:25Z</time>
      </trkpt>
      <trkpt lat="44.73824" lon="5.39669">
        <ele>441</ele>
        <time>2021-09-03T07:43:27Z</time>
      </trkpt>
      <trkpt lat="44.73823" lon="5.39674">
        <ele>441.3</ele>
        <time>2021-09-03T07:43:29Z</time>
      </trkpt>
      <trkpt lat="44.73822" lon="5.39679">
        <ele>441.5</ele>
        <time>2021-09-03T07:43:31Z</time>
      </trkpt>
      <trkpt lat="44.73821" lon="5.39683">
        <ele>441.7</ele>
        <time>2021-09-03T07:43:32Z</time>
      </trkpt>
      <trkpt lat="44.73819" lon="5.39688">
        <ele>442</ele>
        <time>2021-09-03T07:43:34Z</time>
      </trkpt>
      <trkpt lat="44.73819" lon="5.39689">
        <ele>442.1</ele>
        <time>2021-09-03T07:43:35Z</time>
      </trkpt>
      <trkpt lat="44.73817" lon="5.39692">
        <ele>442.3</ele>
        <time>2021-09-03T07:43:36Z</time>
      </trkpt>
      <trkpt lat="44.73815" lon="5.39695">
        <ele>442.5</ele>
        <time>2021-09-03T07:43:38Z</time>
      </trkpt>
      <trkpt lat="44.73811" lon="5.39698">
        <ele>442.7</ele>
        <time>2021-09-03T07:43:40Z</time>
      </trkpt>
      <trkpt lat="44.73809" lon="5.39701">
        <ele>442.9</ele>
        <time>2021-09-03T07:43:41Z</time>
      </trkpt>
      <trkpt lat="44.73807" lon="5.39703">
        <ele>443.1</ele>
        <time>2021-09-03T07:43:42Z</time>
      </trkpt>
      <trkpt lat="44.73804" lon="5.39707">
        <ele>443.3</ele>
        <time>2021-09-03T07:43:43Z</time>
      </trkpt>
      <trkpt lat="44.73801" lon="5.39712">
        <ele>443.6</ele>
        <time>2021-09-03T07:43:45Z</time>
      </trkpt>
      <trkpt lat="44.73798" lon="5.39715">
        <ele>443.8</ele>
        <time>2021-09-03T07:43:46Z</time>
      </trkpt>
      <trkpt lat="44.73795" lon="5.39719">
        <ele>444</ele>
        <time>2021-09-03T07:43:48Z</time>
      </trkpt>
      <trkpt lat="44.73793" lon="5.39723">
        <ele>444.2</ele>
        <time>2021-09-03T07:43:50Z</time>
      </trkpt>
      <trkpt lat="44.73792" lon="5.39729">
        <ele>444.5</ele>
        <time>2021-09-03T07:43:51Z</time>
      </trkpt>
      <trkpt lat="44.73792" lon="5.39731">
        <ele>444.5</ele>
        <time>2021-09-03T07:43:52Z</time>
      </trkpt>
      <trkpt lat="44.73791" lon="5.39737">
        <ele>444.8</ele>
        <time>2021-09-03T07:43:54Z</time>
      </trkpt>
      <trkpt lat="44.7379" lon="5.39741">
        <ele>445</ele>
        <time>2021-09-03T07:43:55Z</time>
      </trkpt>
      <trkpt lat="44.73789" lon="5.39745">
        <ele>445.2</ele>
        <time>2021-09-03T07:43:56Z</time>
      </trkpt>
      <trkpt lat="44.73788" lon="5.39749">
        <ele>445.4</ele>
        <time>2021-09-03T07:43:58Z</time>
      </trkpt>
      <trkpt lat="44.73786" lon="5.39752">
        <ele>445.6</ele>
        <time>2021-09-03T07:44:00Z</time>
      </trkpt>
      <trkpt lat="44.73783" lon="5.39754">
        <ele>445.8</ele>
        <time>2021-09-03T07:44:01Z</time>
      </trkpt>
      <trkpt lat="44.7378" lon="5.39756">
        <ele>446</ele>
        <time>2021-09-03T07:44:02Z</time>
      </trkpt>
      <trkpt lat="44.73777" lon="5.39757">
        <ele>446.2</ele>
        <time>2021-09-03T07:44:03Z</time>
      </trkpt>
      <trkpt lat="44.73776" lon="5.39757">
        <ele>446.3</ele>
        <time>2021-09-03T07:44:04Z</time>
      </trkpt>
      <trkpt lat="44.73773" lon="5.39758">
        <ele>446.5</ele>
        <time>2021-09-03T07:44:06Z</time>
      </trkpt>
      <trkpt lat="44.73771" lon="5.39758">
        <ele>446.6</ele>
        <time>2021-09-03T07:44:08Z</time>
      </trkpt>
      <trkpt lat="44.73769" lon="5.39759">
        <ele>446.8</ele>
        <time>2021-09-03T07:44:09Z</time>
      </trkpt>
      <trkpt lat="44.73767" lon="5.3976">
        <ele>446.9</ele>
        <time>2021-09-03T07:44:10Z</time>
      </trkpt>
      <trkpt lat="44.73765" lon="5.39761">
        <ele>447.1</ele>
        <time>2021-09-03T07:44:12Z</time>
      </trkpt>
      <trkpt lat="44.73763" lon="5.39761">
        <ele>447.2</ele>
        <time>2021-09-03T07:44:13Z</time>
      </trkpt>
      <trkpt lat="44.73761" lon="5.39762">
        <ele>447.3</ele>
        <time>2021-09-03T07:44:15Z</time>
      </trkpt>
      <trkpt lat="44.73759" lon="5.39763">
        <ele>447.5</ele>
        <time>2021-09-03T07:44:34Z</time>
      </trkpt>
      <trkpt lat="44.73757" lon="5.39763">
        <ele>447.6</ele>
        <time>2021-09-03T07:44:35Z</time>
      </trkpt>
      <trkpt lat="44.73755" lon="5.39764">
        <ele>447.8</ele>
        <time>2021-09-03T07:44:37Z</time>
      </trkpt>
      <trkpt lat="44.73753" lon="5.39765">
        <ele>447.9</ele>
        <time>2021-09-03T07:44:38Z</time>
      </trkpt>
      <trkpt lat="44.73751" lon="5.39765">
        <ele>448.1</ele>
        <time>2021-09-03T07:44:40Z</time>
      </trkpt>
      <trkpt lat="44.7375" lon="5.39766">
        <ele>448.2</ele>
        <time>2021-09-03T07:44:41Z</time>
      </trkpt>
      <trkpt lat="44.73748" lon="5.39768">
        <ele>448.4</ele>
        <time>2021-09-03T07:44:42Z</time>
      </trkpt>
      <trkpt lat="44.73745" lon="5.39774">
        <ele>448.8</ele>
        <time>2021-09-03T07:44:44Z</time>
      </trkpt>
      <trkpt lat="44.73744" lon="5.39778">
        <ele>449.1</ele>
        <time>2021-09-03T07:44:45Z</time>
      </trkpt>
      <trkpt lat="44.73743" lon="5.3978">
        <ele>449.2</ele>
        <time>2021-09-03T07:44:46Z</time>
      </trkpt>
      <trkpt lat="44.73742" lon="5.39781">
        <ele>449.3</ele>
        <time>2021-09-03T07:44:47Z</time>
      </trkpt>
      <trkpt lat="44.73738" lon="5.39784">
        <ele>449.7</ele>
        <time>2021-09-03T07:44:49Z</time>
      </trkpt>
      <trkpt lat="44.73737" lon="5.39785">
        <ele>449.9</ele>
        <time>2021-09-03T07:44:50Z</time>
      </trkpt>
      <trkpt lat="44.73733" lon="5.39788">
        <ele>450.3</ele>
        <time>2021-09-03T07:44:51Z</time>
      </trkpt>
      <trkpt lat="44.7373" lon="5.39791">
        <ele>450.6</ele>
        <time>2021-09-03T07:44:52Z</time>
      </trkpt>
      <trkpt lat="44.73729" lon="5.39792">
        <ele>450.7</ele>
        <time>2021-09-03T07:44:53Z</time>
      </trkpt>
      <trkpt lat="44.73723" lon="5.39797">
        <ele>451.3</ele>
        <time>2021-09-03T07:44:55Z</time>
      </trkpt>
      <trkpt lat="44.73719" lon="5.398">
        <ele>451.8</ele>
        <time>2021-09-03T07:44:57Z</time>
      </trkpt>
      <trkpt lat="44.73711" lon="5.39806">
        <ele>452.5</ele>
        <time>2021-09-03T07:44:58Z</time>
      </trkpt>
      <trkpt lat="44.73706" lon="5.3981">
        <ele>452.8</ele>
        <time>2021-09-03T07:44:59Z</time>
      </trkpt>
      <trkpt lat="44.73703" lon="5.39813">
        <ele>453</ele>
        <time>2021-09-03T07:45:00Z</time>
      </trkpt>
      <trkpt lat="44.73699" lon="5.39817">
        <ele>453.2</ele>
        <time>2021-09-03T07:45:01Z</time>
      </trkpt>
      <trkpt lat="44.73697" lon="5.39818">
        <ele>453.3</ele>
        <time>2021-09-03T07:45:02Z</time>
      </trkpt>
      <trkpt lat="44.73694" lon="5.39821">
        <ele>453.4</ele>
        <time>2021-09-03T07:45:04Z</time>
      </trkpt>
      <trkpt lat="44.73686" lon="5.39837">
        <ele>453.6</ele>
        <time>2021-09-03T07:45:05Z</time>
      </trkpt>
      <trkpt lat="44.73655" lon="5.399">
        <ele>452.2</ele>
        <time>2021-09-03T07:45:12Z</time>
      </trkpt>
      <trkpt lat="44.73646" lon="5.3992">
        <ele>451.6</ele>
        <time>2021-09-03T07:45:14Z</time>
      </trkpt>
      <trkpt lat="44.73644" lon="5.39926">
        <ele>451.5</ele>
        <time>2021-09-03T07:45:15Z</time>
      </trkpt>
      <trkpt lat="44.73643" lon="5.39931">
        <ele>451.4</ele>
        <time>2021-09-03T07:45:16Z</time>
      </trkpt>
      <trkpt lat="44.73644" lon="5.39938">
        <ele>451.3</ele>
        <time>2021-09-03T07:45:18Z</time>
      </trkpt>
      <trkpt lat="44.73641" lon="5.39946">
        <ele>451.2</ele>
        <time>2021-09-03T07:45:20Z</time>
      </trkpt>
      <trkpt lat="44.73641" lon="5.39946">
        <ele>451.2</ele>
        <time>2021-09-03T07:45:21Z</time>
      </trkpt>
      <trkpt lat="44.73642" lon="5.39944">
        <ele>451.1</ele>
        <time>2021-09-03T07:45:22Z</time>
      </trkpt>
      <trkpt lat="44.73643" lon="5.39942">
        <ele>451.1</ele>
        <time>2021-09-03T07:45:24Z</time>
      </trkpt>
      <trkpt lat="44.73644" lon="5.3994">
        <ele>451.1</ele>
        <time>2021-09-03T07:45:25Z</time>
      </trkpt>
      <trkpt lat="44.73647" lon="5.39935">
        <ele>451</ele>
        <time>2021-09-03T07:45:27Z</time>
      </trkpt>
      <trkpt lat="44.73649" lon="5.39932">
        <ele>450.9</ele>
        <time>2021-09-03T07:45:28Z</time>
      </trkpt>
      <trkpt lat="44.7365" lon="5.39928">
        <ele>451</ele>
        <time>2021-09-03T07:45:29Z</time>
      </trkpt>
      <trkpt lat="44.73654" lon="5.39923">
        <ele>451.1</ele>
        <time>2021-09-03T07:45:31Z</time>
      </trkpt>
      <trkpt lat="44.73655" lon="5.39918">
        <ele>451.2</ele>
        <time>2021-09-03T07:45:32Z</time>
      </trkpt>
      <trkpt lat="44.73655" lon="5.39911">
        <ele>451.3</ele>
        <time>2021-09-03T07:45:34Z</time>
      </trkpt>
      <trkpt lat="44.73658" lon="5.39904">
        <ele>451.4</ele>
        <time>2021-09-03T07:45:35Z</time>
      </trkpt>
      <trkpt lat="44.73659" lon="5.39898">
        <ele>451.6</ele>
        <time>2021-09-03T07:45:37Z</time>
      </trkpt>
      <trkpt lat="44.73661" lon="5.39894">
        <ele>451.7</ele>
        <time>2021-09-03T07:45:38Z</time>
      </trkpt>
      <trkpt lat="44.73663" lon="5.39891">
        <ele>451.7</ele>
        <time>2021-09-03T07:45:39Z</time>
      </trkpt>
      <trkpt lat="44.73665" lon="5.39885">
        <ele>451.9</ele>
        <time>2021-09-03T07:45:41Z</time>
      </trkpt>
      <trkpt lat="44.73667" lon="5.3988">
        <ele>452</ele>
        <time>2021-09-03T07:45:42Z</time>
      </trkpt>
      <trkpt lat="44.73667" lon="5.39879">
        <ele>452.1</ele>
        <time>2021-09-03T07:45:43Z</time>
      </trkpt>
      <trkpt lat="44.7367" lon="5.39874">
        <ele>452.2</ele>
        <time>2021-09-03T07:45:45Z</time>
      </trkpt>
      <trkpt lat="44.73671" lon="5.39868">
        <ele>452.4</ele>
        <time>2021-09-03T07:45:47Z</time>
      </trkpt>
      <trkpt lat="44.73672" lon="5.39866">
        <ele>452.3</ele>
        <time>2021-09-03T07:45:48Z</time>
      </trkpt>
      <trkpt lat="44.73672" lon="5.39864">
        <ele>452.3</ele>
        <time>2021-09-03T07:45:49Z</time>
      </trkpt>
      <trkpt lat="44.73673" lon="5.39863">
        <ele>452.3</ele>
        <time>2021-09-03T07:45:50Z</time>
      </trkpt>
      <trkpt lat="44.73676" lon="5.39858">
        <ele>452.2</ele>
        <time>2021-09-03T07:45:52Z</time>
      </trkpt>
      <trkpt lat="44.73676" lon="5.39856">
        <ele>452.1</ele>
        <time>2021-09-03T07:45:53Z</time>
      </trkpt>
      <trkpt lat="44.73677" lon="5.39854">
        <ele>452.1</ele>
        <time>2021-09-03T07:45:54Z</time>
      </trkpt>
      <trkpt lat="44.73677" lon="5.39857">
        <ele>452</ele>
        <time>2021-09-03T07:45:56Z</time>
      </trkpt>
      <trkpt lat="44.73675" lon="5.39857">
        <ele>452</ele>
        <time>2021-09-03T07:45:58Z</time>
      </trkpt>
      <trkpt lat="44.73673" lon="5.39862">
        <ele>451.9</ele>
        <time>2021-09-03T07:46:00Z</time>
      </trkpt>
      <trkpt lat="44.73672" lon="5.39865">
        <ele>451.9</ele>
        <time>2021-09-03T07:46:01Z</time>
      </trkpt>
      <trkpt lat="44.73669" lon="5.39874">
        <ele>451.7</ele>
        <time>2021-09-03T07:46:03Z</time>
      </trkpt>
      <trkpt lat="44.73667" lon="5.39882">
        <ele>451.6</ele>
        <time>2021-09-03T07:46:05Z</time>
      </trkpt>
      <trkpt lat="44.73667" lon="5.39885">
        <ele>451.6</ele>
        <time>2021-09-03T07:46:07Z</time>
      </trkpt>
      <trkpt lat="44.73666" lon="5.39887">
        <ele>451.5</ele>
        <time>2021-09-03T07:46:08Z</time>
      </trkpt>
      <trkpt lat="44.73666" lon="5.3989">
        <ele>451.5</ele>
        <time>2021-09-03T07:46:09Z</time>
      </trkpt>
      <trkpt lat="44.73665" lon="5.39895">
        <ele>451.5</ele>
        <time>2021-09-03T07:46:11Z</time>
      </trkpt>
      <trkpt lat="44.73665" lon="5.39897">
        <ele>451.4</ele>
        <time>2021-09-03T07:46:12Z</time>
      </trkpt>
      <trkpt lat="44.73664" lon="5.39899">
        <ele>451.4</ele>
        <time>2021-09-03T07:46:13Z</time>
      </trkpt>
      <trkpt lat="44.73664" lon="5.39901">
        <ele>451.4</ele>
        <time>2021-09-03T07:46:14Z</time>
      </trkpt>
      <trkpt lat="44.73663" lon="5.39902">
        <ele>451.4</ele>
        <time>2021-09-03T07:46:15Z</time>
      </trkpt>
      <trkpt lat="44.73663" lon="5.39904">
        <ele>451.3</ele>
        <time>2021-09-03T07:46:17Z</time>
      </trkpt>
      <trkpt lat="44.73663" lon="5.39905">
        <ele>451.3</ele>
        <time>2021-09-03T07:46:18Z</time>
      </trkpt>
      <trkpt lat="44.73662" lon="5.39906">
        <ele>451.3</ele>
        <time>2021-09-03T07:46:20Z</time>
      </trkpt>
      <trkpt lat="44.73662" lon="5.39907">
        <ele>451.3</ele>
        <time>2021-09-03T07:46:21Z</time>
      </trkpt>
      <trkpt lat="44.73662" lon="5.39908">
        <ele>451.3</ele>
        <time>2021-09-03T07:46:22Z</time>
      </trkpt>
      <trkpt lat="44.73662" lon="5.39907">
        <ele>451.3</ele>
        <time>2021-09-03T07:46:24Z</time>
      </trkpt>
      <trkpt lat="44.73662" lon="5.39908">
        <ele>451.3</ele>
        <time>2021-09-03T07:46:27Z</time>
      </trkpt>
      <trkpt lat="44.73661" lon="5.39909">
        <ele>451.2</ele>
        <time>2021-09-03T07:46:29Z</time>
      </trkpt>
      <trkpt lat="44.7366" lon="5.3991">
        <ele>451.2</ele>
        <time>2021-09-03T07:46:30Z</time>
      </trkpt>
      <trkpt lat="44.7366" lon="5.3991">
        <ele>451.2</ele>
        <time>2021-09-03T07:46:31Z</time>
      </trkpt>
      <trkpt lat="44.73659" lon="5.3991">
        <ele>451.2</ele>
        <time>2021-09-03T07:46:32Z</time>
      </trkpt>
      <trkpt lat="44.73659" lon="5.39911">
        <ele>451.2</ele>
        <time>2021-09-03T07:46:34Z</time>
      </trkpt>
      <trkpt lat="44.7365" lon="5.39958">
        <ele>450.8</ele>
        <time>2021-09-03T07:51:09Z</time>
      </trkpt>
      <trkpt lat="44.73648" lon="5.39966">
        <ele>450.7</ele>
        <time>2021-09-03T07:51:11Z</time>
      </trkpt>
      <trkpt lat="44.73646" lon="5.39971">
        <ele>450.7</ele>
        <time>2021-09-03T07:51:12Z</time>
      </trkpt>
      <trkpt lat="44.73643" lon="5.39979">
        <ele>450.7</ele>
        <time>2021-09-03T07:51:14Z</time>
      </trkpt>
      <trkpt lat="44.73642" lon="5.39985">
        <ele>450.7</ele>
        <time>2021-09-03T07:51:16Z</time>
      </trkpt>
      <trkpt lat="44.73641" lon="5.3999">
        <ele>450.7</ele>
        <time>2021-09-03T07:51:17Z</time>
      </trkpt>
      <trkpt lat="44.73641" lon="5.39994">
        <ele>450.7</ele>
        <time>2021-09-03T07:51:19Z</time>
      </trkpt>
      <trkpt lat="44.73641" lon="5.39999">
        <ele>450.7</ele>
        <time>2021-09-03T07:51:21Z</time>
      </trkpt>
      <trkpt lat="44.73639" lon="5.40002">
        <ele>450.7</ele>
        <time>2021-09-03T07:51:23Z</time>
      </trkpt>
      <trkpt lat="44.73638" lon="5.40003">
        <ele>450.7</ele>
        <time>2021-09-03T07:51:24Z</time>
      </trkpt>
      <trkpt lat="44.73636" lon="5.40003">
        <ele>450.7</ele>
        <time>2021-09-03T07:51:25Z</time>
      </trkpt>
      <trkpt lat="44.73634" lon="5.40005">
        <ele>450.7</ele>
        <time>2021-09-03T07:51:27Z</time>
      </trkpt>
      <trkpt lat="44.73633" lon="5.40007">
        <ele>450.7</ele>
        <time>2021-09-03T07:51:28Z</time>
      </trkpt>
      <trkpt lat="44.73632" lon="5.40008">
        <ele>450.7</ele>
        <time>2021-09-03T07:51:29Z</time>
      </trkpt>
      <trkpt lat="44.73632" lon="5.4001">
        <ele>450.7</ele>
        <time>2021-09-03T07:51:31Z</time>
      </trkpt>
      <trkpt lat="44.73632" lon="5.40012">
        <ele>450.7</ele>
        <time>2021-09-03T07:51:32Z</time>
      </trkpt>
      <trkpt lat="44.73632" lon="5.40014">
        <ele>450.7</ele>
        <time>2021-09-03T07:51:34Z</time>
      </trkpt>
      <trkpt lat="44.73632" lon="5.40015">
        <ele>450.7</ele>
        <time>2021-09-03T07:51:35Z</time>
      </trkpt>
      <trkpt lat="44.73632" lon="5.40017">
        <ele>450.7</ele>
        <time>2021-09-03T07:51:36Z</time>
      </trkpt>
      <trkpt lat="44.73632" lon="5.40019">
        <ele>450.7</ele>
        <time>2021-09-03T07:51:38Z</time>
      </trkpt>
      <trkpt lat="44.73632" lon="5.40021">
        <ele>450.7</ele>
        <time>2021-09-03T07:51:40Z</time>
      </trkpt>
      <trkpt lat="44.73632" lon="5.40023">
        <ele>450.7</ele>
        <time>2021-09-03T07:51:42Z</time>
      </trkpt>
      <trkpt lat="44.73631" lon="5.40024">
        <ele>450.7</ele>
        <time>2021-09-03T07:55:51Z</time>
      </trkpt>
      <trkpt lat="44.73631" lon="5.40026">
        <ele>450.7</ele>
        <time>2021-09-03T07:55:52Z</time>
      </trkpt>
      <trkpt lat="44.73625" lon="5.40025">
        <ele>450.7</ele>
        <time>2021-09-03T07:55:53Z</time>
      </trkpt>
      <trkpt lat="44.73611" lon="5.40023">
        <ele>450.8</ele>
        <time>2021-09-03T07:55:55Z</time>
      </trkpt>
      <trkpt lat="44.73604" lon="5.40025">
        <ele>450.9</ele>
        <time>2021-09-03T07:55:57Z</time>
      </trkpt>
      <trkpt lat="44.73604" lon="5.40024">
        <ele>450.9</ele>
        <time>2021-09-03T07:55:59Z</time>
      </trkpt>
      <trkpt lat="44.73604" lon="5.40023">
        <ele>450.9</ele>
        <time>2021-09-03T07:56:00Z</time>
      </trkpt>
      <trkpt lat="44.73605" lon="5.40022">
        <ele>450.9</ele>
        <time>2021-09-03T07:56:01Z</time>
      </trkpt>
      <trkpt lat="44.73606" lon="5.40021">
        <ele>450.9</ele>
        <time>2021-09-03T07:56:03Z</time>
      </trkpt>
      <trkpt lat="44.73607" lon="5.4002">
        <ele>450.9</ele>
        <time>2021-09-03T07:56:05Z</time>
      </trkpt>
      <trkpt lat="44.73608" lon="5.4002">
        <ele>450.9</ele>
        <time>2021-09-03T07:56:06Z</time>
      </trkpt>
      <trkpt lat="44.73609" lon="5.40019">
        <ele>450.9</ele>
        <time>2021-09-03T07:56:07Z</time>
      </trkpt>
      <trkpt lat="44.73635" lon="5.40006">
        <ele>451.2</ele>
        <time>2021-09-03T07:56:38Z</time>
      </trkpt>
      <trkpt lat="44.7363" lon="5.40004">
        <ele>451.3</ele>
        <time>2021-09-03T07:56:40Z</time>
      </trkpt>
      <trkpt lat="44.73629" lon="5.40003">
        <ele>451.3</ele>
        <time>2021-09-03T07:56:41Z</time>
      </trkpt>
      <trkpt lat="44.73629" lon="5.40003">
        <ele>451.3</ele>
        <time>2021-09-03T07:56:42Z</time>
      </trkpt>
      <trkpt lat="44.73628" lon="5.40002">
        <ele>451.3</ele>
        <time>2021-09-03T07:56:44Z</time>
      </trkpt>
      <trkpt lat="44.73628" lon="5.40003">
        <ele>451.4</ele>
        <time>2021-09-03T07:56:46Z</time>
      </trkpt>
      <trkpt lat="44.73628" lon="5.40004">
        <ele>451.4</ele>
        <time>2021-09-03T07:56:47Z</time>
      </trkpt>
      <trkpt lat="44.73632" lon="5.40005">
        <ele>451.4</ele>
        <time>2021-09-03T07:56:49Z</time>
      </trkpt>
      <trkpt lat="44.73633" lon="5.40005">
        <ele>451.5</ele>
        <time>2021-09-03T07:56:50Z</time>
      </trkpt>
      <trkpt lat="44.73635" lon="5.40006">
        <ele>451.5</ele>
        <time>2021-09-03T07:56:52Z</time>
      </trkpt>
      <trkpt lat="44.73623" lon="5.40032">
        <ele>452.1</ele>
        <time>2021-09-03T07:57:33Z</time>
      </trkpt>
      <trkpt lat="44.73622" lon="5.4004">
        <ele>452.3</ele>
        <time>2021-09-03T07:57:35Z</time>
      </trkpt>
      <trkpt lat="44.73622" lon="5.40046">
        <ele>452.5</ele>
        <time>2021-09-03T07:57:37Z</time>
      </trkpt>
      <trkpt lat="44.73621" lon="5.40048">
        <ele>452.5</ele>
        <time>2021-09-03T07:57:38Z</time>
      </trkpt>
      <trkpt lat="44.73619" lon="5.40054">
        <ele>452.7</ele>
        <time>2021-09-03T07:57:40Z</time>
      </trkpt>
      <trkpt lat="44.73618" lon="5.40059">
        <ele>452.8</ele>
        <time>2021-09-03T07:57:42Z</time>
      </trkpt>
      <trkpt lat="44.73617" lon="5.40062">
        <ele>452.9</ele>
        <time>2021-09-03T07:57:43Z</time>
      </trkpt>
      <trkpt lat="44.73614" lon="5.40067">
        <ele>453.1</ele>
        <time>2021-09-03T07:57:45Z</time>
      </trkpt>
      <trkpt lat="44.73611" lon="5.40072">
        <ele>453.3</ele>
        <time>2021-09-03T07:57:47Z</time>
      </trkpt>
      <trkpt lat="44.7361" lon="5.40073">
        <ele>453.4</ele>
        <time>2021-09-03T07:57:48Z</time>
      </trkpt>
      <trkpt lat="44.73609" lon="5.40075">
        <ele>453.5</ele>
        <time>2021-09-03T07:57:49Z</time>
      </trkpt>
      <trkpt lat="44.73608" lon="5.40078">
        <ele>453.5</ele>
        <time>2021-09-03T07:57:50Z</time>
      </trkpt>
      <trkpt lat="44.73605" lon="5.40083">
        <ele>453.7</ele>
        <time>2021-09-03T07:57:52Z</time>
      </trkpt>
      <trkpt lat="44.73604" lon="5.40089">
        <ele>454</ele>
        <time>2021-09-03T07:57:54Z</time>
      </trkpt>
      <trkpt lat="44.73603" lon="5.40094">
        <ele>454.1</ele>
        <time>2021-09-03T07:57:56Z</time>
      </trkpt>
      <trkpt lat="44.73604" lon="5.40098">
        <ele>454.3</ele>
        <time>2021-09-03T07:57:57Z</time>
      </trkpt>
      <trkpt lat="44.73604" lon="5.40101">
        <ele>454.4</ele>
        <time>2021-09-03T07:57:59Z</time>
      </trkpt>
      <trkpt lat="44.73604" lon="5.40104">
        <ele>454.5</ele>
        <time>2021-09-03T07:58:00Z</time>
      </trkpt>
      <trkpt lat="44.73604" lon="5.40106">
        <ele>454.6</ele>
        <time>2021-09-03T07:58:01Z</time>
      </trkpt>
      <trkpt lat="44.73605" lon="5.4011">
        <ele>454.7</ele>
        <time>2021-09-03T07:58:02Z</time>
      </trkpt>
      <trkpt lat="44.73605" lon="5.40112">
        <ele>454.8</ele>
        <time>2021-09-03T07:58:03Z</time>
      </trkpt>
      <trkpt lat="44.73606" lon="5.40114">
        <ele>454.9</ele>
        <time>2021-09-03T07:58:04Z</time>
      </trkpt>
      <trkpt lat="44.73607" lon="5.40117">
        <ele>455</ele>
        <time>2021-09-03T07:58:06Z</time>
      </trkpt>
      <trkpt lat="44.73609" lon="5.40122">
        <ele>455.2</ele>
        <time>2021-09-03T07:58:07Z</time>
      </trkpt>
      <trkpt lat="44.7361" lon="5.40124">
        <ele>455.3</ele>
        <time>2021-09-03T07:58:08Z</time>
      </trkpt>
      <trkpt lat="44.73611" lon="5.40129">
        <ele>455.5</ele>
        <time>2021-09-03T07:58:09Z</time>
      </trkpt>
      <trkpt lat="44.73611" lon="5.4013">
        <ele>455.6</ele>
        <time>2021-09-03T07:58:10Z</time>
      </trkpt>
      <trkpt lat="44.7361" lon="5.40133">
        <ele>455.7</ele>
        <time>2021-09-03T07:58:12Z</time>
      </trkpt>
      <trkpt lat="44.7361" lon="5.40138">
        <ele>455.9</ele>
        <time>2021-09-03T07:58:14Z</time>
      </trkpt>
      <trkpt lat="44.7361" lon="5.4014">
        <ele>456</ele>
        <time>2021-09-03T07:58:15Z</time>
      </trkpt>
      <trkpt lat="44.7361" lon="5.40142">
        <ele>456.1</ele>
        <time>2021-09-03T07:58:16Z</time>
      </trkpt>
      <trkpt lat="44.7361" lon="5.40145">
        <ele>456.2</ele>
        <time>2021-09-03T07:58:18Z</time>
      </trkpt>
      <trkpt lat="44.7361" lon="5.40146">
        <ele>456.3</ele>
        <time>2021-09-03T07:58:20Z</time>
      </trkpt>
      <trkpt lat="44.73609" lon="5.40148">
        <ele>456.3</ele>
        <time>2021-09-03T07:58:21Z</time>
      </trkpt>
      <trkpt lat="44.73609" lon="5.4015">
        <ele>456.4</ele>
        <time>2021-09-03T07:58:23Z</time>
      </trkpt>
      <trkpt lat="44.73608" lon="5.40153">
        <ele>456.6</ele>
        <time>2021-09-03T07:58:25Z</time>
      </trkpt>
      <trkpt lat="44.73607" lon="5.40155">
        <ele>456.7</ele>
        <time>2021-09-03T07:58:26Z</time>
      </trkpt>
      <trkpt lat="44.73605" lon="5.40157">
        <ele>456.8</ele>
        <time>2021-09-03T07:58:27Z</time>
      </trkpt>
      <trkpt lat="44.73604" lon="5.40157">
        <ele>456.9</ele>
        <time>2021-09-03T07:58:28Z</time>
      </trkpt>
      <trkpt lat="44.73603" lon="5.40159">
        <ele>456.9</ele>
        <time>2021-09-03T07:58:29Z</time>
      </trkpt>
      <trkpt lat="44.736" lon="5.4016">
        <ele>457.2</ele>
        <time>2021-09-03T07:58:31Z</time>
      </trkpt>
      <trkpt lat="44.73597" lon="5.40162">
        <ele>457.4</ele>
        <time>2021-09-03T07:58:32Z</time>
      </trkpt>
      <trkpt lat="44.73596" lon="5.40163">
        <ele>457.4</ele>
        <time>2021-09-03T07:58:33Z</time>
      </trkpt>
      <trkpt lat="44.73594" lon="5.40165">
        <ele>457.6</ele>
        <time>2021-09-03T07:58:34Z</time>
      </trkpt>
      <trkpt lat="44.73593" lon="5.40166">
        <ele>457.7</ele>
        <time>2021-09-03T07:58:35Z</time>
      </trkpt>
      <trkpt lat="44.73588" lon="5.40167">
        <ele>458</ele>
        <time>2021-09-03T07:58:37Z</time>
      </trkpt>
      <trkpt lat="44.73585" lon="5.40169">
        <ele>458.3</ele>
        <time>2021-09-03T07:58:38Z</time>
      </trkpt>
      <trkpt lat="44.73582" lon="5.4017">
        <ele>458.5</ele>
        <time>2021-09-03T07:58:39Z</time>
      </trkpt>
      <trkpt lat="44.7358" lon="5.40173">
        <ele>458.7</ele>
        <time>2021-09-03T07:58:40Z</time>
      </trkpt>
      <trkpt lat="44.73579" lon="5.40173">
        <ele>458.8</ele>
        <time>2021-09-03T07:58:41Z</time>
      </trkpt>
      <trkpt lat="44.73577" lon="5.40176">
        <ele>459</ele>
        <time>2021-09-03T07:58:43Z</time>
      </trkpt>
      <trkpt lat="44.73577" lon="5.40176">
        <ele>459</ele>
        <time>2021-09-03T07:58:45Z</time>
      </trkpt>
      <trkpt lat="44.73578" lon="5.40178">
        <ele>459.1</ele>
        <time>2021-09-03T07:58:46Z</time>
      </trkpt>
      <trkpt lat="44.7358" lon="5.40179">
        <ele>459.3</ele>
        <time>2021-09-03T07:58:47Z</time>
      </trkpt>
      <trkpt lat="44.7358" lon="5.40181">
        <ele>459.4</ele>
        <time>2021-09-03T07:58:48Z</time>
      </trkpt>
      <trkpt lat="44.73579" lon="5.40182">
        <ele>459.5</ele>
        <time>2021-09-03T07:58:50Z</time>
      </trkpt>
      <trkpt lat="44.73579" lon="5.40183">
        <ele>459.5</ele>
        <time>2021-09-03T07:58:51Z</time>
      </trkpt>
      <trkpt lat="44.73579" lon="5.40185">
        <ele>459.6</ele>
        <time>2021-09-03T07:58:52Z</time>
      </trkpt>
      <trkpt lat="44.73578" lon="5.40187">
        <ele>459.7</ele>
        <time>2021-09-03T07:58:53Z</time>
      </trkpt>
      <trkpt lat="44.73577" lon="5.40189">
        <ele>459.9</ele>
        <time>2021-09-03T07:58:55Z</time>
      </trkpt>
      <trkpt lat="44.73578" lon="5.4019">
        <ele>460</ele>
        <time>2021-09-03T07:58:57Z</time>
      </trkpt>
      <trkpt lat="44.7358" lon="5.40193">
        <ele>460.2</ele>
        <time>2021-09-03T07:58:59Z</time>
      </trkpt>
      <trkpt lat="44.73581" lon="5.40193">
        <ele>460.3</ele>
        <time>2021-09-03T07:59:00Z</time>
      </trkpt>
      <trkpt lat="44.73583" lon="5.40195">
        <ele>460.5</ele>
        <time>2021-09-03T07:59:02Z</time>
      </trkpt>
      <trkpt lat="44.73585" lon="5.40195">
        <ele>460.7</ele>
        <time>2021-09-03T07:59:04Z</time>
      </trkpt>
      <trkpt lat="44.73586" lon="5.40196">
        <ele>460.8</ele>
        <time>2021-09-03T07:59:05Z</time>
      </trkpt>
      <trkpt lat="44.73587" lon="5.40196">
        <ele>460.9</ele>
        <time>2021-09-03T07:59:06Z</time>
      </trkpt>
      <trkpt lat="44.73588" lon="5.40196">
        <ele>461</ele>
        <time>2021-09-03T07:59:08Z</time>
      </trkpt>
      <trkpt lat="44.73589" lon="5.40196">
        <ele>461</ele>
        <time>2021-09-03T07:59:09Z</time>
      </trkpt>
      <trkpt lat="44.73589" lon="5.40196">
        <ele>461.1</ele>
        <time>2021-09-03T07:59:11Z</time>
      </trkpt>
      <trkpt lat="44.73589" lon="5.40196">
        <ele>461.1</ele>
        <time>2021-09-03T07:59:12Z</time>
      </trkpt>
      <trkpt lat="44.7359" lon="5.40196">
        <ele>461.1</ele>
        <time>2021-09-03T07:59:13Z</time>
      </trkpt>
      <trkpt lat="44.7359" lon="5.40196">
        <ele>461.2</ele>
        <time>2021-09-03T07:59:15Z</time>
      </trkpt>
      <trkpt lat="44.73605" lon="5.4022">
        <ele>463.1</ele>
        <time>2021-09-03T07:59:33Z</time>
      </trkpt>
      <trkpt lat="44.73606" lon="5.40226">
        <ele>464.1</ele>
        <time>2021-09-03T07:59:35Z</time>
      </trkpt>
      <trkpt lat="44.73608" lon="5.40236">
        <ele>466.2</ele>
        <time>2021-09-03T07:59:37Z</time>
      </trkpt>
      <trkpt lat="44.73608" lon="5.40238">
        <ele>466.6</ele>
        <time>2021-09-03T07:59:38Z</time>
      </trkpt>
      <trkpt lat="44.7361" lon="5.40242">
        <ele>467.7</ele>
        <time>2021-09-03T07:59:40Z</time>
      </trkpt>
      <trkpt lat="44.7361" lon="5.40244">
        <ele>468</ele>
        <time>2021-09-03T07:59:41Z</time>
      </trkpt>
      <trkpt lat="44.73611" lon="5.40244">
        <ele>468.4</ele>
        <time>2021-09-03T07:59:42Z</time>
      </trkpt>
      <trkpt lat="44.7361" lon="5.40244">
        <ele>468.8</ele>
        <time>2021-09-03T07:59:43Z</time>
      </trkpt>
      <trkpt lat="44.7361" lon="5.40244">
        <ele>469.7</ele>
        <time>2021-09-03T07:59:44Z</time>
      </trkpt>
      <trkpt lat="44.7361" lon="5.40245">
        <ele>470.1</ele>
        <time>2021-09-03T07:59:45Z</time>
      </trkpt>
      <trkpt lat="44.73609" lon="5.40245">
        <ele>470.2</ele>
        <time>2021-09-03T07:59:46Z</time>
      </trkpt>
      <trkpt lat="44.73608" lon="5.40245">
        <ele>470.6</ele>
        <time>2021-09-03T07:59:47Z</time>
      </trkpt>
      <trkpt lat="44.73607" lon="5.40247">
        <ele>470.9</ele>
        <time>2021-09-03T07:59:49Z</time>
      </trkpt>
      <trkpt lat="44.73605" lon="5.4025">
        <ele>471.6</ele>
        <time>2021-09-03T07:59:50Z</time>
      </trkpt>
      <trkpt lat="44.73603" lon="5.40255">
        <ele>472.4</ele>
        <time>2021-09-03T07:59:52Z</time>
      </trkpt>
      <trkpt lat="44.73601" lon="5.40256">
        <ele>472.7</ele>
        <time>2021-09-03T07:59:53Z</time>
      </trkpt>
      <trkpt lat="44.73599" lon="5.40258">
        <ele>473.5</ele>
        <time>2021-09-03T07:59:55Z</time>
      </trkpt>
      <trkpt lat="44.73598" lon="5.40262">
        <ele>474.5</ele>
        <time>2021-09-03T07:59:56Z</time>
      </trkpt>
      <trkpt lat="44.73597" lon="5.40267">
        <ele>475.2</ele>
        <time>2021-09-03T07:59:57Z</time>
      </trkpt>
      <trkpt lat="44.73596" lon="5.40269">
        <ele>475.6</ele>
        <time>2021-09-03T07:59:58Z</time>
      </trkpt>
      <trkpt lat="44.73596" lon="5.40271">
        <ele>476.6</ele>
        <time>2021-09-03T07:59:59Z</time>
      </trkpt>
      <trkpt lat="44.73595" lon="5.40273">
        <ele>476.9</ele>
        <time>2021-09-03T08:00:01Z</time>
      </trkpt>
      <trkpt lat="44.73595" lon="5.40274">
        <ele>477.3</ele>
        <time>2021-09-03T08:00:02Z</time>
      </trkpt>
      <trkpt lat="44.73596" lon="5.40274">
        <ele>477.3</ele>
        <time>2021-09-03T08:00:03Z</time>
      </trkpt>
      <trkpt lat="44.73596" lon="5.40275">
        <ele>477.4</ele>
        <time>2021-09-03T08:00:05Z</time>
      </trkpt>
      <trkpt lat="44.73597" lon="5.40274">
        <ele>477.4</ele>
        <time>2021-09-03T08:00:06Z</time>
      </trkpt>
      <trkpt lat="44.73601" lon="5.40276">
        <ele>477.6</ele>
        <time>2021-09-03T08:00:10Z</time>
      </trkpt>
      <trkpt lat="44.73602" lon="5.40276">
        <ele>477.7</ele>
        <time>2021-09-03T08:00:11Z</time>
      </trkpt>
      <trkpt lat="44.73602" lon="5.40277">
        <ele>477.7</ele>
        <time>2021-09-03T08:00:13Z</time>
      </trkpt>
      <trkpt lat="44.73601" lon="5.40279">
        <ele>477.8</ele>
        <time>2021-09-03T08:00:14Z</time>
      </trkpt>
      <trkpt lat="44.736" lon="5.40281">
        <ele>477.9</ele>
        <time>2021-09-03T08:00:16Z</time>
      </trkpt>
      <trkpt lat="44.736" lon="5.40282">
        <ele>478</ele>
        <time>2021-09-03T08:00:17Z</time>
      </trkpt>
      <trkpt lat="44.736" lon="5.40283">
        <ele>478</ele>
        <time>2021-09-03T08:00:18Z</time>
      </trkpt>
      <trkpt lat="44.736" lon="5.40283">
        <ele>478</ele>
        <time>2021-09-03T08:00:19Z</time>
      </trkpt>
      <trkpt lat="44.73599" lon="5.40284">
        <ele>478.1</ele>
        <time>2021-09-03T08:00:20Z</time>
      </trkpt>
      <trkpt lat="44.73598" lon="5.40285">
        <ele>478.1</ele>
        <time>2021-09-03T08:00:22Z</time>
      </trkpt>
      <trkpt lat="44.73598" lon="5.40285">
        <ele>478.1</ele>
        <time>2021-09-03T08:00:22Z</time>
      </trkpt>
      <trkpt lat="44.73597" lon="5.40284">
        <ele>478.2</ele>
        <time>2021-09-03T08:00:23Z</time>
      </trkpt>
      <trkpt lat="44.73597" lon="5.40283">
        <ele>478.2</ele>
        <time>2021-09-03T08:00:24Z</time>
      </trkpt>
      <trkpt lat="44.73597" lon="5.40283">
        <ele>478.3</ele>
        <time>2021-09-03T08:00:26Z</time>
      </trkpt>
      <trkpt lat="44.73597" lon="5.40282">
        <ele>478.3</ele>
        <time>2021-09-03T08:00:28Z</time>
      </trkpt>
      <trkpt lat="44.73597" lon="5.40281">
        <ele>478.3</ele>
        <time>2021-09-03T08:00:30Z</time>
      </trkpt>
      <trkpt lat="44.73597" lon="5.4028">
        <ele>478.4</ele>
        <time>2021-09-03T08:00:31Z</time>
      </trkpt>
      <trkpt lat="44.73597" lon="5.40279">
        <ele>478.4</ele>
        <time>2021-09-03T08:00:32Z</time>
      </trkpt>
      <trkpt lat="44.73597" lon="5.40279">
        <ele>478.4</ele>
        <time>2021-09-03T08:00:33Z</time>
      </trkpt>
      <trkpt lat="44.73597" lon="5.40278">
        <ele>478.5</ele>
        <time>2021-09-03T08:00:35Z</time>
      </trkpt>
      <trkpt lat="44.73597" lon="5.40277">
        <ele>478.5</ele>
        <time>2021-09-03T08:00:36Z</time>
      </trkpt>
      <trkpt lat="44.73597" lon="5.40276">
        <ele>478.5</ele>
        <time>2021-09-03T08:00:37Z</time>
      </trkpt>
      <trkpt lat="44.73594" lon="5.40273">
        <ele>478.7</ele>
        <time>2021-09-03T08:00:38Z</time>
      </trkpt>
      <trkpt lat="44.73591" lon="5.4027">
        <ele>478.9</ele>
        <time>2021-09-03T08:00:39Z</time>
      </trkpt>
      <trkpt lat="44.73591" lon="5.40269">
        <ele>479</ele>
        <time>2021-09-03T08:00:40Z</time>
      </trkpt>
      <trkpt lat="44.7359" lon="5.40267">
        <ele>479.1</ele>
        <time>2021-09-03T08:00:42Z</time>
      </trkpt>
      <trkpt lat="44.73589" lon="5.40265">
        <ele>479.2</ele>
        <time>2021-09-03T08:00:43Z</time>
      </trkpt>
      <trkpt lat="44.73588" lon="5.40263">
        <ele>479.3</ele>
        <time>2021-09-03T08:00:44Z</time>
      </trkpt>
      <trkpt lat="44.73587" lon="5.40261">
        <ele>479.3</ele>
        <time>2021-09-03T08:00:46Z</time>
      </trkpt>
      <trkpt lat="44.73586" lon="5.40258">
        <ele>479.5</ele>
        <time>2021-09-03T08:00:47Z</time>
      </trkpt>
      <trkpt lat="44.73585" lon="5.40256">
        <ele>479.6</ele>
        <time>2021-09-03T08:00:49Z</time>
      </trkpt>
      <trkpt lat="44.73585" lon="5.40254">
        <ele>479.7</ele>
        <time>2021-09-03T08:00:50Z</time>
      </trkpt>
      <trkpt lat="44.73584" lon="5.40253">
        <ele>479.7</ele>
        <time>2021-09-03T08:00:52Z</time>
      </trkpt>
      <trkpt lat="44.73583" lon="5.40252">
        <ele>479.8</ele>
        <time>2021-09-03T08:00:53Z</time>
      </trkpt>
      <trkpt lat="44.73583" lon="5.40253">
        <ele>479.8</ele>
        <time>2021-09-03T08:00:54Z</time>
      </trkpt>
      <trkpt lat="44.73583" lon="5.40254">
        <ele>479.8</ele>
        <time>2021-09-03T08:00:55Z</time>
      </trkpt>
      <trkpt lat="44.73582" lon="5.40254">
        <ele>479.8</ele>
        <time>2021-09-03T08:00:56Z</time>
      </trkpt>
      <trkpt lat="44.73581" lon="5.40255">
        <ele>479.9</ele>
        <time>2021-09-03T08:00:58Z</time>
      </trkpt>
      <trkpt lat="44.7358" lon="5.40256">
        <ele>480</ele>
        <time>2021-09-03T08:00:59Z</time>
      </trkpt>
      <trkpt lat="44.73579" lon="5.40257">
        <ele>480</ele>
        <time>2021-09-03T08:01:00Z</time>
      </trkpt>
      <trkpt lat="44.73578" lon="5.40258">
        <ele>480.1</ele>
        <time>2021-09-03T08:01:01Z</time>
      </trkpt>
      <trkpt lat="44.73577" lon="5.40259">
        <ele>480.2</ele>
        <time>2021-09-03T08:01:03Z</time>
      </trkpt>
      <trkpt lat="44.73575" lon="5.4026">
        <ele>480.3</ele>
        <time>2021-09-03T08:01:04Z</time>
      </trkpt>
      <trkpt lat="44.73571" lon="5.40263">
        <ele>480.6</ele>
        <time>2021-09-03T08:01:06Z</time>
      </trkpt>
      <trkpt lat="44.7357" lon="5.40265">
        <ele>480.7</ele>
        <time>2021-09-03T08:01:07Z</time>
      </trkpt>
      <trkpt lat="44.73567" lon="5.40267">
        <ele>480.9</ele>
        <time>2021-09-03T08:01:08Z</time>
      </trkpt>
      <trkpt lat="44.73565" lon="5.40269">
        <ele>481</ele>
        <time>2021-09-03T08:01:10Z</time>
      </trkpt>
      <trkpt lat="44.73564" lon="5.40271">
        <ele>481.1</ele>
        <time>2021-09-03T08:01:11Z</time>
      </trkpt>
      <trkpt lat="44.73559" lon="5.40277">
        <ele>481.5</ele>
        <time>2021-09-03T08:01:13Z</time>
      </trkpt>
      <trkpt lat="44.73556" lon="5.40281">
        <ele>481.7</ele>
        <time>2021-09-03T08:01:14Z</time>
      </trkpt>
      <trkpt lat="44.73555" lon="5.40283">
        <ele>481.9</ele>
        <time>2021-09-03T08:01:15Z</time>
      </trkpt>
      <trkpt lat="44.73552" lon="5.40287">
        <ele>482.1</ele>
        <time>2021-09-03T08:01:17Z</time>
      </trkpt>
      <trkpt lat="44.73551" lon="5.40292">
        <ele>482.3</ele>
        <time>2021-09-03T08:01:18Z</time>
      </trkpt>
      <trkpt lat="44.73551" lon="5.40292">
        <ele>482.4</ele>
        <time>2021-09-03T08:01:19Z</time>
      </trkpt>
      <trkpt lat="44.73551" lon="5.40297">
        <ele>482.6</ele>
        <time>2021-09-03T08:01:21Z</time>
      </trkpt>
      <trkpt lat="44.73551" lon="5.40298">
        <ele>482.6</ele>
        <time>2021-09-03T08:01:22Z</time>
      </trkpt>
      <trkpt lat="44.73551" lon="5.40305">
        <ele>482.9</ele>
        <time>2021-09-03T08:01:24Z</time>
      </trkpt>
      <trkpt lat="44.73552" lon="5.4031">
        <ele>483.2</ele>
        <time>2021-09-03T08:01:26Z</time>
      </trkpt>
      <trkpt lat="44.73551" lon="5.40314">
        <ele>483.3</ele>
        <time>2021-09-03T08:01:27Z</time>
      </trkpt>
      <trkpt lat="44.7355" lon="5.4032">
        <ele>483.6</ele>
        <time>2021-09-03T08:01:29Z</time>
      </trkpt>
      <trkpt lat="44.73549" lon="5.40324">
        <ele>483.8</ele>
        <time>2021-09-03T08:01:30Z</time>
      </trkpt>
      <trkpt lat="44.73547" lon="5.40328">
        <ele>484</ele>
        <time>2021-09-03T08:01:32Z</time>
      </trkpt>
      <trkpt lat="44.73545" lon="5.4033">
        <ele>484.2</ele>
        <time>2021-09-03T08:01:33Z</time>
      </trkpt>
      <trkpt lat="44.73541" lon="5.40332">
        <ele>484.4</ele>
        <time>2021-09-03T08:01:35Z</time>
      </trkpt>
      <trkpt lat="44.73538" lon="5.40334">
        <ele>484.7</ele>
        <time>2021-09-03T08:01:37Z</time>
      </trkpt>
      <trkpt lat="44.73537" lon="5.40335">
        <ele>484.8</ele>
        <time>2021-09-03T08:01:38Z</time>
      </trkpt>
      <trkpt lat="44.73534" lon="5.40336">
        <ele>484.9</ele>
        <time>2021-09-03T08:01:39Z</time>
      </trkpt>
      <trkpt lat="44.73531" lon="5.40337">
        <ele>485.2</ele>
        <time>2021-09-03T08:01:41Z</time>
      </trkpt>
      <trkpt lat="44.73527" lon="5.40339">
        <ele>485.4</ele>
        <time>2021-09-03T08:01:42Z</time>
      </trkpt>
      <trkpt lat="44.73525" lon="5.40341">
        <ele>485.6</ele>
        <time>2021-09-03T08:01:44Z</time>
      </trkpt>
      <trkpt lat="44.73524" lon="5.40341">
        <ele>485.7</ele>
        <time>2021-09-03T08:01:45Z</time>
      </trkpt>
      <trkpt lat="44.73521" lon="5.4034">
        <ele>486.4</ele>
        <time>2021-09-03T08:01:46Z</time>
      </trkpt>
      <trkpt lat="44.7352" lon="5.4034">
        <ele>486.5</ele>
        <time>2021-09-03T08:01:47Z</time>
      </trkpt>
      <trkpt lat="44.73519" lon="5.4034">
        <ele>486.6</ele>
        <time>2021-09-03T08:01:49Z</time>
      </trkpt>
      <trkpt lat="44.73519" lon="5.4034">
        <ele>486.6</ele>
        <time>2021-09-03T08:01:50Z</time>
      </trkpt>
      <trkpt lat="44.73519" lon="5.40341">
        <ele>486.7</ele>
        <time>2021-09-03T08:01:51Z</time>
      </trkpt>
      <trkpt lat="44.7352" lon="5.40341">
        <ele>486.7</ele>
        <time>2021-09-03T08:01:53Z</time>
      </trkpt>
      <trkpt lat="44.73521" lon="5.40342">
        <ele>486.9</ele>
        <time>2021-09-03T08:01:55Z</time>
      </trkpt>
      <trkpt lat="44.73523" lon="5.40345">
        <ele>487.2</ele>
        <time>2021-09-03T08:01:57Z</time>
      </trkpt>
      <trkpt lat="44.73524" lon="5.40347">
        <ele>487.4</ele>
        <time>2021-09-03T08:01:58Z</time>
      </trkpt>
      <trkpt lat="44.73524" lon="5.40349">
        <ele>487.5</ele>
        <time>2021-09-03T08:01:59Z</time>
      </trkpt>
      <trkpt lat="44.73525" lon="5.4035">
        <ele>487.6</ele>
        <time>2021-09-03T08:02:01Z</time>
      </trkpt>
      <trkpt lat="44.73542" lon="5.4038">
        <ele>491.3</ele>
        <time>2021-09-03T08:02:32Z</time>
      </trkpt>
      <trkpt lat="44.73543" lon="5.40384">
        <ele>491.8</ele>
        <time>2021-09-03T08:02:33Z</time>
      </trkpt>
      <trkpt lat="44.73543" lon="5.40388">
        <ele>492.2</ele>
        <time>2021-09-03T08:02:35Z</time>
      </trkpt>
      <trkpt lat="44.73544" lon="5.40397">
        <ele>493.1</ele>
        <time>2021-09-03T08:02:37Z</time>
      </trkpt>
      <trkpt lat="44.73543" lon="5.40398">
        <ele>493.2</ele>
        <time>2021-09-03T08:02:38Z</time>
      </trkpt>
      <trkpt lat="44.73543" lon="5.40399">
        <ele>493.3</ele>
        <time>2021-09-03T08:02:39Z</time>
      </trkpt>
      <trkpt lat="44.73542" lon="5.40399">
        <ele>493.4</ele>
        <time>2021-09-03T08:02:40Z</time>
      </trkpt>
      <trkpt lat="44.73541" lon="5.40399">
        <ele>493.5</ele>
        <time>2021-09-03T08:02:41Z</time>
      </trkpt>
      <trkpt lat="44.73542" lon="5.40401">
        <ele>493.7</ele>
        <time>2021-09-03T08:02:42Z</time>
      </trkpt>
      <trkpt lat="44.73542" lon="5.40402">
        <ele>493.8</ele>
        <time>2021-09-03T08:02:44Z</time>
      </trkpt>
      <trkpt lat="44.73543" lon="5.40403">
        <ele>493.9</ele>
        <time>2021-09-03T08:02:45Z</time>
      </trkpt>
      <trkpt lat="44.73543" lon="5.40404">
        <ele>493.9</ele>
        <time>2021-09-03T08:02:46Z</time>
      </trkpt>
      <trkpt lat="44.73544" lon="5.40404">
        <ele>494</ele>
        <time>2021-09-03T08:02:47Z</time>
      </trkpt>
      <trkpt lat="44.73544" lon="5.40405">
        <ele>494.1</ele>
        <time>2021-09-03T08:02:48Z</time>
      </trkpt>
      <trkpt lat="44.73544" lon="5.40406">
        <ele>494.2</ele>
        <time>2021-09-03T08:02:49Z</time>
      </trkpt>
      <trkpt lat="44.73544" lon="5.40407">
        <ele>494.3</ele>
        <time>2021-09-03T08:02:50Z</time>
      </trkpt>
      <trkpt lat="44.73545" lon="5.40407">
        <ele>494.3</ele>
        <time>2021-09-03T08:02:51Z</time>
      </trkpt>
      <trkpt lat="44.73546" lon="5.40408">
        <ele>494.4</ele>
        <time>2021-09-03T08:02:53Z</time>
      </trkpt>
      <trkpt lat="44.73547" lon="5.40406">
        <ele>494.6</ele>
        <time>2021-09-03T08:02:54Z</time>
      </trkpt>
      <trkpt lat="44.73549" lon="5.40405">
        <ele>494.9</ele>
        <time>2021-09-03T08:02:56Z</time>
      </trkpt>
      <trkpt lat="44.7355" lon="5.40405">
        <ele>495</ele>
        <time>2021-09-03T08:02:58Z</time>
      </trkpt>
      <trkpt lat="44.7355" lon="5.40405">
        <ele>495</ele>
        <time>2021-09-03T08:02:59Z</time>
      </trkpt>
      <trkpt lat="44.7355" lon="5.40405">
        <ele>495</ele>
        <time>2021-09-03T08:03:01Z</time>
      </trkpt>
      <trkpt lat="44.73558" lon="5.40401">
        <ele>495.9</ele>
        <time>2021-09-03T08:03:05Z</time>
      </trkpt>
      <trkpt lat="44.73559" lon="5.40404">
        <ele>496.2</ele>
        <time>2021-09-03T08:03:06Z</time>
      </trkpt>
      <trkpt lat="44.73561" lon="5.40405">
        <ele>496.3</ele>
        <time>2021-09-03T08:03:07Z</time>
      </trkpt>
      <trkpt lat="44.73562" lon="5.40405">
        <ele>496.5</ele>
        <time>2021-09-03T08:03:08Z</time>
      </trkpt>
      <trkpt lat="44.73562" lon="5.40405">
        <ele>496.6</ele>
        <time>2021-09-03T08:03:10Z</time>
      </trkpt>
      <trkpt lat="44.73562" lon="5.40406">
        <ele>496.7</ele>
        <time>2021-09-03T08:03:11Z</time>
      </trkpt>
      <trkpt lat="44.73562" lon="5.40407">
        <ele>496.7</ele>
        <time>2021-09-03T08:03:12Z</time>
      </trkpt>
      <trkpt lat="44.73562" lon="5.40408">
        <ele>496.8</ele>
        <time>2021-09-03T08:03:14Z</time>
      </trkpt>
      <trkpt lat="44.73562" lon="5.40409">
        <ele>496.9</ele>
        <time>2021-09-03T08:03:15Z</time>
      </trkpt>
      <trkpt lat="44.73562" lon="5.4041">
        <ele>497</ele>
        <time>2021-09-03T08:03:16Z</time>
      </trkpt>
      <trkpt lat="44.73561" lon="5.40413">
        <ele>497.2</ele>
        <time>2021-09-03T08:03:18Z</time>
      </trkpt>
      <trkpt lat="44.73561" lon="5.40414">
        <ele>497.4</ele>
        <time>2021-09-03T08:03:19Z</time>
      </trkpt>
      <trkpt lat="44.73561" lon="5.40416">
        <ele>497.5</ele>
        <time>2021-09-03T08:03:20Z</time>
      </trkpt>
      <trkpt lat="44.73561" lon="5.4042">
        <ele>497.8</ele>
        <time>2021-09-03T08:03:22Z</time>
      </trkpt>
      <trkpt lat="44.73561" lon="5.40422">
        <ele>498</ele>
        <time>2021-09-03T08:03:23Z</time>
      </trkpt>
      <trkpt lat="44.7356" lon="5.40424">
        <ele>498.2</ele>
        <time>2021-09-03T08:03:24Z</time>
      </trkpt>
      <trkpt lat="44.7356" lon="5.40427">
        <ele>498.5</ele>
        <time>2021-09-03T08:03:25Z</time>
      </trkpt>
      <trkpt lat="44.73577" lon="5.40491">
        <ele>501</ele>
        <time>2021-09-03T08:03:39Z</time>
      </trkpt>
      <trkpt lat="44.7358" lon="5.40501">
        <ele>500.7</ele>
        <time>2021-09-03T08:03:41Z</time>
      </trkpt>
      <trkpt lat="44.73583" lon="5.40512">
        <ele>500.3</ele>
        <time>2021-09-03T08:03:42Z</time>
      </trkpt>
      <trkpt lat="44.73584" lon="5.40519">
        <ele>500.1</ele>
        <time>2021-09-03T08:03:44Z</time>
      </trkpt>
      <trkpt lat="44.73588" lon="5.40531">
        <ele>499.6</ele>
        <time>2021-09-03T08:03:45Z</time>
      </trkpt>
      <trkpt lat="44.73605" lon="5.40566">
        <ele>497.9</ele>
        <time>2021-09-03T08:03:46Z</time>
      </trkpt>
      <trkpt lat="44.73607" lon="5.40571">
        <ele>497.7</ele>
        <time>2021-09-03T08:03:47Z</time>
      </trkpt>
      <trkpt lat="44.73614" lon="5.40579">
        <ele>497.3</ele>
        <time>2021-09-03T08:03:48Z</time>
      </trkpt>
      <trkpt lat="44.73629" lon="5.40592">
        <ele>496.5</ele>
        <time>2021-09-03T08:03:50Z</time>
      </trkpt>
      <trkpt lat="44.73635" lon="5.40594">
        <ele>496.1</ele>
        <time>2021-09-03T08:03:51Z</time>
      </trkpt>
      <trkpt lat="44.73648" lon="5.40595">
        <ele>495.3</ele>
        <time>2021-09-03T08:03:53Z</time>
      </trkpt>
      <trkpt lat="44.73655" lon="5.40599">
        <ele>494.8</ele>
        <time>2021-09-03T08:03:54Z</time>
      </trkpt>
      <trkpt lat="44.73667" lon="5.40604">
        <ele>493.7</ele>
        <time>2021-09-03T08:03:56Z</time>
      </trkpt>
      <trkpt lat="44.73681" lon="5.40615">
        <ele>492.2</ele>
        <time>2021-09-03T08:03:58Z</time>
      </trkpt>
      <trkpt lat="44.73688" lon="5.40624">
        <ele>491.3</ele>
        <time>2021-09-03T08:03:59Z</time>
      </trkpt>
      <trkpt lat="44.73698" lon="5.40647">
        <ele>489.5</ele>
        <time>2021-09-03T08:04:01Z</time>
      </trkpt>
      <trkpt lat="44.73704" lon="5.40674">
        <ele>488.3</ele>
        <time>2021-09-03T08:04:03Z</time>
      </trkpt>
      <trkpt lat="44.73705" lon="5.40687">
        <ele>487.7</ele>
        <time>2021-09-03T08:04:04Z</time>
      </trkpt>
      <trkpt lat="44.73707" lon="5.40714">
        <ele>486.7</ele>
        <time>2021-09-03T08:04:06Z</time>
      </trkpt>
      <trkpt lat="44.7371" lon="5.40739">
        <ele>485.8</ele>
        <time>2021-09-03T08:04:08Z</time>
      </trkpt>
      <trkpt lat="44.73714" lon="5.40763">
        <ele>485.2</ele>
        <time>2021-09-03T08:04:10Z</time>
      </trkpt>
      <trkpt lat="44.73716" lon="5.40775">
        <ele>485</ele>
        <time>2021-09-03T08:04:11Z</time>
      </trkpt>
      <trkpt lat="44.73719" lon="5.40785">
        <ele>484.9</ele>
        <time>2021-09-03T08:04:12Z</time>
      </trkpt>
      <trkpt lat="44.73726" lon="5.40803">
        <ele>484.7</ele>
        <time>2021-09-03T08:04:14Z</time>
      </trkpt>
      <trkpt lat="44.73735" lon="5.40817">
        <ele>484.6</ele>
        <time>2021-09-03T08:04:16Z</time>
      </trkpt>
      <trkpt lat="44.73739" lon="5.40825">
        <ele>484.6</ele>
        <time>2021-09-03T08:04:17Z</time>
      </trkpt>
      <trkpt lat="44.73748" lon="5.40839">
        <ele>484.6</ele>
        <time>2021-09-03T08:04:19Z</time>
      </trkpt>
      <trkpt lat="44.73757" lon="5.40849">
        <ele>484.6</ele>
        <time>2021-09-03T08:04:21Z</time>
      </trkpt>
      <trkpt lat="44.73762" lon="5.40853">
        <ele>484.6</ele>
        <time>2021-09-03T08:04:22Z</time>
      </trkpt>
      <trkpt lat="44.73767" lon="5.40858">
        <ele>484.7</ele>
        <time>2021-09-03T08:04:23Z</time>
      </trkpt>
      <trkpt lat="44.73776" lon="5.4087">
        <ele>484.9</ele>
        <time>2021-09-03T08:04:25Z</time>
      </trkpt>
      <trkpt lat="44.73784" lon="5.40879">
        <ele>485.1</ele>
        <time>2021-09-03T08:04:27Z</time>
      </trkpt>
      <trkpt lat="44.73793" lon="5.40888">
        <ele>485.4</ele>
        <time>2021-09-03T08:04:29Z</time>
      </trkpt>
      <trkpt lat="44.73798" lon="5.40892">
        <ele>485.6</ele>
        <time>2021-09-03T08:04:30Z</time>
      </trkpt>
      <trkpt lat="44.73805" lon="5.40899">
        <ele>486</ele>
        <time>2021-09-03T08:04:32Z</time>
      </trkpt>
      <trkpt lat="44.73808" lon="5.40902">
        <ele>486.1</ele>
        <time>2021-09-03T08:04:33Z</time>
      </trkpt>
      <trkpt lat="44.73812" lon="5.40909">
        <ele>486.5</ele>
        <time>2021-09-03T08:04:35Z</time>
      </trkpt>
      <trkpt lat="44.73813" lon="5.40912">
        <ele>486.6</ele>
        <time>2021-09-03T08:04:36Z</time>
      </trkpt>
      <trkpt lat="44.73813" lon="5.40919">
        <ele>487</ele>
        <time>2021-09-03T08:04:38Z</time>
      </trkpt>
      <trkpt lat="44.73814" lon="5.40924">
        <ele>487.2</ele>
        <time>2021-09-03T08:04:39Z</time>
      </trkpt>
      <trkpt lat="44.73813" lon="5.40928">
        <ele>487.5</ele>
        <time>2021-09-03T08:04:41Z</time>
      </trkpt>
      <trkpt lat="44.73812" lon="5.40931">
        <ele>487.7</ele>
        <time>2021-09-03T08:04:43Z</time>
      </trkpt>
      <trkpt lat="44.7381" lon="5.40936">
        <ele>488</ele>
        <time>2021-09-03T08:04:45Z</time>
      </trkpt>
      <trkpt lat="44.73808" lon="5.40939">
        <ele>488.3</ele>
        <time>2021-09-03T08:04:46Z</time>
      </trkpt>
      <trkpt lat="44.73807" lon="5.4094">
        <ele>488.5</ele>
        <time>2021-09-03T08:04:47Z</time>
      </trkpt>
      <trkpt lat="44.73805" lon="5.40945">
        <ele>488.8</ele>
        <time>2021-09-03T08:04:49Z</time>
      </trkpt>
      <trkpt lat="44.73803" lon="5.40949">
        <ele>489.1</ele>
        <time>2021-09-03T08:04:50Z</time>
      </trkpt>
      <trkpt lat="44.73802" lon="5.4095">
        <ele>489.2</ele>
        <time>2021-09-03T08:04:51Z</time>
      </trkpt>
      <trkpt lat="44.73799" lon="5.40955">
        <ele>489.6</ele>
        <time>2021-09-03T08:04:53Z</time>
      </trkpt>
      <trkpt lat="44.73795" lon="5.4096">
        <ele>490</ele>
        <time>2021-09-03T08:04:55Z</time>
      </trkpt>
      <trkpt lat="44.73793" lon="5.40962">
        <ele>490.2</ele>
        <time>2021-09-03T08:04:56Z</time>
      </trkpt>
      <trkpt lat="44.73792" lon="5.40965">
        <ele>490.3</ele>
        <time>2021-09-03T08:04:58Z</time>
      </trkpt>
      <trkpt lat="44.73792" lon="5.40966">
        <ele>490.4</ele>
        <time>2021-09-03T08:04:59Z</time>
      </trkpt>
      <trkpt lat="44.73792" lon="5.4097">
        <ele>490.7</ele>
        <time>2021-09-03T08:05:01Z</time>
      </trkpt>
      <trkpt lat="44.73792" lon="5.40975">
        <ele>490.9</ele>
        <time>2021-09-03T08:05:02Z</time>
      </trkpt>
      <trkpt lat="44.73792" lon="5.4098">
        <ele>491.2</ele>
        <time>2021-09-03T08:05:03Z</time>
      </trkpt>
      <trkpt lat="44.73792" lon="5.40982">
        <ele>491.3</ele>
        <time>2021-09-03T08:05:04Z</time>
      </trkpt>
      <trkpt lat="44.73792" lon="5.40986">
        <ele>491.5</ele>
        <time>2021-09-03T08:05:06Z</time>
      </trkpt>
      <trkpt lat="44.73792" lon="5.40988">
        <ele>491.6</ele>
        <time>2021-09-03T08:05:07Z</time>
      </trkpt>
      <trkpt lat="44.73791" lon="5.40994">
        <ele>491.9</ele>
        <time>2021-09-03T08:05:08Z</time>
      </trkpt>
      <trkpt lat="44.7379" lon="5.40999">
        <ele>492.1</ele>
        <time>2021-09-03T08:05:10Z</time>
      </trkpt>
      <trkpt lat="44.7379" lon="5.41">
        <ele>492.2</ele>
        <time>2021-09-03T08:05:11Z</time>
      </trkpt>
      <trkpt lat="44.73788" lon="5.41005">
        <ele>492.4</ele>
        <time>2021-09-03T08:05:12Z</time>
      </trkpt>
      <trkpt lat="44.73786" lon="5.4101">
        <ele>492.7</ele>
        <time>2021-09-03T08:05:14Z</time>
      </trkpt>
      <trkpt lat="44.73784" lon="5.41013">
        <ele>492.9</ele>
        <time>2021-09-03T08:05:15Z</time>
      </trkpt>
      <trkpt lat="44.73783" lon="5.41017">
        <ele>493.1</ele>
        <time>2021-09-03T08:05:16Z</time>
      </trkpt>
      <trkpt lat="44.73781" lon="5.4102">
        <ele>493.3</ele>
        <time>2021-09-03T08:05:17Z</time>
      </trkpt>
      <trkpt lat="44.73779" lon="5.41025">
        <ele>493.6</ele>
        <time>2021-09-03T08:05:18Z</time>
      </trkpt>
      <trkpt lat="44.73778" lon="5.41027">
        <ele>493.7</ele>
        <time>2021-09-03T08:05:19Z</time>
      </trkpt>
      <trkpt lat="44.73776" lon="5.4103">
        <ele>493.9</ele>
        <time>2021-09-03T08:05:20Z</time>
      </trkpt>
      <trkpt lat="44.73775" lon="5.41034">
        <ele>494.1</ele>
        <time>2021-09-03T08:05:21Z</time>
      </trkpt>
      <trkpt lat="44.73773" lon="5.41039">
        <ele>494.4</ele>
        <time>2021-09-03T08:05:22Z</time>
      </trkpt>
      <trkpt lat="44.73773" lon="5.4104">
        <ele>494.5</ele>
        <time>2021-09-03T08:05:23Z</time>
      </trkpt>
      <trkpt lat="44.73773" lon="5.41045">
        <ele>494.7</ele>
        <time>2021-09-03T08:05:24Z</time>
      </trkpt>
      <trkpt lat="44.73774" lon="5.41049">
        <ele>495</ele>
        <time>2021-09-03T08:05:25Z</time>
      </trkpt>
      <trkpt lat="44.73775" lon="5.41051">
        <ele>495</ele>
        <time>2021-09-03T08:05:26Z</time>
      </trkpt>
      <trkpt lat="44.73776" lon="5.41055">
        <ele>495.3</ele>
        <time>2021-09-03T08:05:28Z</time>
      </trkpt>
      <trkpt lat="44.73777" lon="5.41056">
        <ele>495.4</ele>
        <time>2021-09-03T08:05:29Z</time>
      </trkpt>
      <trkpt lat="44.73778" lon="5.4106">
        <ele>495.6</ele>
        <time>2021-09-03T08:05:30Z</time>
      </trkpt>
      <trkpt lat="44.73778" lon="5.41066">
        <ele>496</ele>
        <time>2021-09-03T08:05:32Z</time>
      </trkpt>
      <trkpt lat="44.73779" lon="5.41068">
        <ele>496.1</ele>
        <time>2021-09-03T08:05:33Z</time>
      </trkpt>
      <trkpt lat="44.73779" lon="5.4107">
        <ele>496.3</ele>
        <time>2021-09-03T08:05:34Z</time>
      </trkpt>
      <trkpt lat="44.73779" lon="5.41072">
        <ele>496.4</ele>
        <time>2021-09-03T08:05:35Z</time>
      </trkpt>
      <trkpt lat="44.7378" lon="5.41075">
        <ele>496.6</ele>
        <time>2021-09-03T08:05:36Z</time>
      </trkpt>
      <trkpt lat="44.7378" lon="5.41079">
        <ele>496.9</ele>
        <time>2021-09-03T08:05:37Z</time>
      </trkpt>
      <trkpt lat="44.73781" lon="5.4108">
        <ele>497</ele>
        <time>2021-09-03T08:05:39Z</time>
      </trkpt>
      <trkpt lat="44.73781" lon="5.41082">
        <ele>497.1</ele>
        <time>2021-09-03T08:05:40Z</time>
      </trkpt>
      <trkpt lat="44.73781" lon="5.41084">
        <ele>497.3</ele>
        <time>2021-09-03T08:05:41Z</time>
      </trkpt>
      <trkpt lat="44.7378" lon="5.41089">
        <ele>497.6</ele>
        <time>2021-09-03T08:05:43Z</time>
      </trkpt>
      <trkpt lat="44.7378" lon="5.41091">
        <ele>497.7</ele>
        <time>2021-09-03T08:05:44Z</time>
      </trkpt>
      <trkpt lat="44.7378" lon="5.41092">
        <ele>497.8</ele>
        <time>2021-09-03T08:05:46Z</time>
      </trkpt>
      <trkpt lat="44.7378" lon="5.41093">
        <ele>497.9</ele>
        <time>2021-09-03T08:05:47Z</time>
      </trkpt>
      <trkpt lat="44.7378" lon="5.41094">
        <ele>498</ele>
        <time>2021-09-03T08:05:49Z</time>
      </trkpt>
      <trkpt lat="44.7378" lon="5.41095">
        <ele>498.1</ele>
        <time>2021-09-03T08:05:51Z</time>
      </trkpt>
      <trkpt lat="44.73781" lon="5.41097">
        <ele>498.2</ele>
        <time>2021-09-03T08:05:52Z</time>
      </trkpt>
      <trkpt lat="44.73782" lon="5.41098">
        <ele>498.3</ele>
        <time>2021-09-03T08:05:53Z</time>
      </trkpt>
      <trkpt lat="44.73789" lon="5.41113">
        <ele>499.4</ele>
        <time>2021-09-03T08:06:03Z</time>
      </trkpt>
      <trkpt lat="44.73793" lon="5.41118">
        <ele>499.8</ele>
        <time>2021-09-03T08:06:04Z</time>
      </trkpt>
      <trkpt lat="44.73797" lon="5.41123">
        <ele>500.2</ele>
        <time>2021-09-03T08:06:06Z</time>
      </trkpt>
      <trkpt lat="44.73798" lon="5.41128">
        <ele>500.5</ele>
        <time>2021-09-03T08:06:07Z</time>
      </trkpt>
      <trkpt lat="44.73801" lon="5.41135">
        <ele>500.8</ele>
        <time>2021-09-03T08:06:08Z</time>
      </trkpt>
      <trkpt lat="44.73803" lon="5.4114">
        <ele>501.1</ele>
        <time>2021-09-03T08:06:10Z</time>
      </trkpt>
      <trkpt lat="44.73805" lon="5.41143">
        <ele>501.4</ele>
        <time>2021-09-03T08:06:11Z</time>
      </trkpt>
      <trkpt lat="44.73806" lon="5.41144">
        <ele>501.4</ele>
        <time>2021-09-03T08:06:12Z</time>
      </trkpt>
      <trkpt lat="44.73807" lon="5.41145">
        <ele>501.5</ele>
        <time>2021-09-03T08:06:14Z</time>
      </trkpt>
      <trkpt lat="44.73807" lon="5.41145">
        <ele>501.5</ele>
        <time>2021-09-03T08:06:15Z</time>
      </trkpt>
      <trkpt lat="44.73807" lon="5.41146">
        <ele>501.5</ele>
        <time>2021-09-03T08:06:17Z</time>
      </trkpt>
      <trkpt lat="44.73807" lon="5.41146">
        <ele>501.5</ele>
        <time>2021-09-03T08:06:18Z</time>
      </trkpt>
      <trkpt lat="44.73807" lon="5.41146">
        <ele>501.5</ele>
        <time>2021-09-03T08:06:19Z</time>
      </trkpt>
      <trkpt lat="44.73807" lon="5.41146">
        <ele>501.5</ele>
        <time>2021-09-03T08:06:21Z</time>
      </trkpt>
      <trkpt lat="44.73813" lon="5.41149">
        <ele>501.9</ele>
        <time>2021-09-03T08:06:29Z</time>
      </trkpt>
      <trkpt lat="44.73816" lon="5.41153">
        <ele>502.1</ele>
        <time>2021-09-03T08:06:31Z</time>
      </trkpt>
      <trkpt lat="44.73819" lon="5.41157">
        <ele>502.2</ele>
        <time>2021-09-03T08:06:32Z</time>
      </trkpt>
      <trkpt lat="44.7382" lon="5.41158">
        <ele>502.3</ele>
        <time>2021-09-03T08:06:33Z</time>
      </trkpt>
      <trkpt lat="44.73823" lon="5.41161">
        <ele>502.5</ele>
        <time>2021-09-03T08:06:35Z</time>
      </trkpt>
      <trkpt lat="44.73828" lon="5.41163">
        <ele>502.7</ele>
        <time>2021-09-03T08:06:37Z</time>
      </trkpt>
      <trkpt lat="44.73832" lon="5.41163">
        <ele>502.9</ele>
        <time>2021-09-03T08:06:38Z</time>
      </trkpt>
      <trkpt lat="44.73835" lon="5.41166">
        <ele>503</ele>
        <time>2021-09-03T08:06:40Z</time>
      </trkpt>
      <trkpt lat="44.73838" lon="5.4117">
        <ele>503.1</ele>
        <time>2021-09-03T08:06:41Z</time>
      </trkpt>
      <trkpt lat="44.7384" lon="5.41174">
        <ele>503.2</ele>
        <time>2021-09-03T08:06:43Z</time>
      </trkpt>
      <trkpt lat="44.73842" lon="5.41178">
        <ele>503.3</ele>
        <time>2021-09-03T08:06:45Z</time>
      </trkpt>
      <trkpt lat="44.73842" lon="5.41179">
        <ele>503.4</ele>
        <time>2021-09-03T08:06:46Z</time>
      </trkpt>
      <trkpt lat="44.73844" lon="5.41184">
        <ele>503.5</ele>
        <time>2021-09-03T08:06:47Z</time>
      </trkpt>
      <trkpt lat="44.73845" lon="5.4119">
        <ele>503.6</ele>
        <time>2021-09-03T08:06:49Z</time>
      </trkpt>
      <trkpt lat="44.73844" lon="5.41194">
        <ele>503.8</ele>
        <time>2021-09-03T08:06:50Z</time>
      </trkpt>
      <trkpt lat="44.73843" lon="5.41199">
        <ele>503.9</ele>
        <time>2021-09-03T08:06:51Z</time>
      </trkpt>
      <trkpt lat="44.73843" lon="5.412">
        <ele>503.9</ele>
        <time>2021-09-03T08:06:52Z</time>
      </trkpt>
      <trkpt lat="44.73845" lon="5.41205">
        <ele>504.1</ele>
        <time>2021-09-03T08:06:54Z</time>
      </trkpt>
      <trkpt lat="44.73846" lon="5.41206">
        <ele>504.1</ele>
        <time>2021-09-03T08:06:55Z</time>
      </trkpt>
      <trkpt lat="44.7385" lon="5.41208">
        <ele>504.4</ele>
        <time>2021-09-03T08:06:56Z</time>
      </trkpt>
      <trkpt lat="44.73851" lon="5.41209">
        <ele>504.4</ele>
        <time>2021-09-03T08:06:57Z</time>
      </trkpt>
      <trkpt lat="44.73852" lon="5.41211">
        <ele>504.5</ele>
        <time>2021-09-03T08:06:58Z</time>
      </trkpt>
      <trkpt lat="44.73853" lon="5.41213">
        <ele>504.6</ele>
        <time>2021-09-03T08:06:59Z</time>
      </trkpt>
      <trkpt lat="44.73855" lon="5.41213">
        <ele>504.7</ele>
        <time>2021-09-03T08:07:00Z</time>
      </trkpt>
      <trkpt lat="44.73857" lon="5.41214">
        <ele>504.9</ele>
        <time>2021-09-03T08:07:02Z</time>
      </trkpt>
      <trkpt lat="44.73857" lon="5.41213">
        <ele>504.9</ele>
        <time>2021-09-03T08:07:03Z</time>
      </trkpt>
      <trkpt lat="44.73857" lon="5.41214">
        <ele>504.9</ele>
        <time>2021-09-03T08:07:05Z</time>
      </trkpt>
      <trkpt lat="44.73856" lon="5.41214">
        <ele>505</ele>
        <time>2021-09-03T08:07:06Z</time>
      </trkpt>
      <trkpt lat="44.73856" lon="5.41215">
        <ele>505</ele>
        <time>2021-09-03T08:07:07Z</time>
      </trkpt>
      <trkpt lat="44.73856" lon="5.41216">
        <ele>505.1</ele>
        <time>2021-09-03T08:07:09Z</time>
      </trkpt>
      <trkpt lat="44.73856" lon="5.41217">
        <ele>505.1</ele>
        <time>2021-09-03T08:07:10Z</time>
      </trkpt>
      <trkpt lat="44.73856" lon="5.41218">
        <ele>505.2</ele>
        <time>2021-09-03T08:07:12Z</time>
      </trkpt>
      <trkpt lat="44.73897" lon="5.41267">
        <ele>509.1</ele>
        <time>2021-09-03T08:07:44Z</time>
      </trkpt>
      <trkpt lat="44.739" lon="5.41272">
        <ele>509.4</ele>
        <time>2021-09-03T08:07:45Z</time>
      </trkpt>
      <trkpt lat="44.73902" lon="5.41276">
        <ele>509.7</ele>
        <time>2021-09-03T08:07:47Z</time>
      </trkpt>
      <trkpt lat="44.73902" lon="5.41278">
        <ele>509.8</ele>
        <time>2021-09-03T08:07:48Z</time>
      </trkpt>
      <trkpt lat="44.73904" lon="5.41283">
        <ele>510.1</ele>
        <time>2021-09-03T08:07:49Z</time>
      </trkpt>
      <trkpt lat="44.73904" lon="5.41284">
        <ele>510.2</ele>
        <time>2021-09-03T08:07:50Z</time>
      </trkpt>
      <trkpt lat="44.73906" lon="5.41289">
        <ele>510.5</ele>
        <time>2021-09-03T08:07:51Z</time>
      </trkpt>
      <trkpt lat="44.73906" lon="5.4129">
        <ele>510.6</ele>
        <time>2021-09-03T08:07:52Z</time>
      </trkpt>
      <trkpt lat="44.73908" lon="5.41294">
        <ele>510.9</ele>
        <time>2021-09-03T08:07:53Z</time>
      </trkpt>
      <trkpt lat="44.7391" lon="5.41299">
        <ele>511.2</ele>
        <time>2021-09-03T08:07:54Z</time>
      </trkpt>
      <trkpt lat="44.7391" lon="5.413">
        <ele>511.3</ele>
        <time>2021-09-03T08:07:55Z</time>
      </trkpt>
      <trkpt lat="44.73911" lon="5.41303">
        <ele>511.5</ele>
        <time>2021-09-03T08:07:56Z</time>
      </trkpt>
      <trkpt lat="44.73914" lon="5.41306">
        <ele>512.1</ele>
        <time>2021-09-03T08:07:58Z</time>
      </trkpt>
      <trkpt lat="44.73915" lon="5.41308">
        <ele>512.3</ele>
        <time>2021-09-03T08:07:59Z</time>
      </trkpt>
      <trkpt lat="44.73916" lon="5.41309">
        <ele>512.4</ele>
        <time>2021-09-03T08:08:00Z</time>
      </trkpt>
      <trkpt lat="44.73916" lon="5.41311">
        <ele>512.5</ele>
        <time>2021-09-03T08:08:01Z</time>
      </trkpt>
      <trkpt lat="44.73917" lon="5.41312">
        <ele>512.6</ele>
        <time>2021-09-03T08:08:03Z</time>
      </trkpt>
      <trkpt lat="44.73917" lon="5.41311">
        <ele>512.7</ele>
        <time>2021-09-03T08:08:04Z</time>
      </trkpt>
      <trkpt lat="44.73918" lon="5.41311">
        <ele>512.7</ele>
        <time>2021-09-03T08:08:06Z</time>
      </trkpt>
      <trkpt lat="44.73918" lon="5.41311">
        <ele>512.7</ele>
        <time>2021-09-03T08:08:07Z</time>
      </trkpt>
      <trkpt lat="44.73918" lon="5.41311">
        <ele>512.8</ele>
        <time>2021-09-03T08:08:08Z</time>
      </trkpt>
      <trkpt lat="44.73918" lon="5.41311">
        <ele>512.8</ele>
        <time>2021-09-03T08:08:09Z</time>
      </trkpt>
      <trkpt lat="44.73914" lon="5.41314">
        <ele>513.2</ele>
        <time>2021-09-03T08:08:11Z</time>
      </trkpt>
      <trkpt lat="44.7391" lon="5.41317">
        <ele>513.7</ele>
        <time>2021-09-03T08:08:56Z</time>
      </trkpt>
      <trkpt lat="44.73906" lon="5.4132">
        <ele>514.1</ele>
        <time>2021-09-03T08:08:57Z</time>
      </trkpt>
      <trkpt lat="44.73902" lon="5.41322">
        <ele>514.6</ele>
        <time>2021-09-03T08:08:58Z</time>
      </trkpt>
      <trkpt lat="44.73901" lon="5.41322">
        <ele>514.8</ele>
        <time>2021-09-03T08:09:00Z</time>
      </trkpt>
      <trkpt lat="44.739" lon="5.41321">
        <ele>514.9</ele>
        <time>2021-09-03T08:09:01Z</time>
      </trkpt>
      <trkpt lat="44.739" lon="5.41321">
        <ele>515</ele>
        <time>2021-09-03T08:09:02Z</time>
      </trkpt>
      <trkpt lat="44.73899" lon="5.41321">
        <ele>515.1</ele>
        <time>2021-09-03T08:09:04Z</time>
      </trkpt>
      <trkpt lat="44.73898" lon="5.4132">
        <ele>515.1</ele>
        <time>2021-09-03T08:09:05Z</time>
      </trkpt>
      <trkpt lat="44.73897" lon="5.4132">
        <ele>515.3</ele>
        <time>2021-09-03T08:09:06Z</time>
      </trkpt>
      <trkpt lat="44.73896" lon="5.41321">
        <ele>515.4</ele>
        <time>2021-09-03T08:09:07Z</time>
      </trkpt>
      <trkpt lat="44.73908" lon="5.41393">
        <ele>520.3</ele>
        <time>2021-09-03T08:10:14Z</time>
      </trkpt>
      <trkpt lat="44.7391" lon="5.41397">
        <ele>520.4</ele>
        <time>2021-09-03T08:10:16Z</time>
      </trkpt>
      <trkpt lat="44.73912" lon="5.41401">
        <ele>520.5</ele>
        <time>2021-09-03T08:10:17Z</time>
      </trkpt>
      <trkpt lat="44.73917" lon="5.41407">
        <ele>520.6</ele>
        <time>2021-09-03T08:10:19Z</time>
      </trkpt>
      <trkpt lat="44.73923" lon="5.41415">
        <ele>520.8</ele>
        <time>2021-09-03T08:10:21Z</time>
      </trkpt>
      <trkpt lat="44.73925" lon="5.41418">
        <ele>520.8</ele>
        <time>2021-09-03T08:10:22Z</time>
      </trkpt>
      <trkpt lat="44.73927" lon="5.41421">
        <ele>520.9</ele>
        <time>2021-09-03T08:10:23Z</time>
      </trkpt>
      <trkpt lat="44.73928" lon="5.41424">
        <ele>520.9</ele>
        <time>2021-09-03T08:10:24Z</time>
      </trkpt>
      <trkpt lat="44.73931" lon="5.41431">
        <ele>521</ele>
        <time>2021-09-03T08:10:26Z</time>
      </trkpt>
      <trkpt lat="44.73933" lon="5.41434">
        <ele>521</ele>
        <time>2021-09-03T08:10:27Z</time>
      </trkpt>
      <trkpt lat="44.73937" lon="5.41439">
        <ele>521.1</ele>
        <time>2021-09-03T08:10:28Z</time>
      </trkpt>
      <trkpt lat="44.7394" lon="5.41444">
        <ele>521.2</ele>
        <time>2021-09-03T08:10:30Z</time>
      </trkpt>
      <trkpt lat="44.73941" lon="5.41447">
        <ele>521.3</ele>
        <time>2021-09-03T08:10:31Z</time>
      </trkpt>
      <trkpt lat="44.73944" lon="5.41451">
        <ele>521.4</ele>
        <time>2021-09-03T08:10:32Z</time>
      </trkpt>
      <trkpt lat="44.73945" lon="5.41453">
        <ele>521.4</ele>
        <time>2021-09-03T08:10:33Z</time>
      </trkpt>
      <trkpt lat="44.73946" lon="5.41456">
        <ele>521.5</ele>
        <time>2021-09-03T08:10:35Z</time>
      </trkpt>
      <trkpt lat="44.73948" lon="5.4146">
        <ele>521.6</ele>
        <time>2021-09-03T08:10:36Z</time>
      </trkpt>
      <trkpt lat="44.73951" lon="5.41464">
        <ele>521.8</ele>
        <time>2021-09-03T08:10:37Z</time>
      </trkpt>
      <trkpt lat="44.73953" lon="5.41465">
        <ele>521.8</ele>
        <time>2021-09-03T08:10:38Z</time>
      </trkpt>
      <trkpt lat="44.73955" lon="5.41469">
        <ele>522</ele>
        <time>2021-09-03T08:10:40Z</time>
      </trkpt>
      <trkpt lat="44.73957" lon="5.41476">
        <ele>522.1</ele>
        <time>2021-09-03T08:10:41Z</time>
      </trkpt>
      <trkpt lat="44.73958" lon="5.41478">
        <ele>522.2</ele>
        <time>2021-09-03T08:10:42Z</time>
      </trkpt>
      <trkpt lat="44.7396" lon="5.41484">
        <ele>522.4</ele>
        <time>2021-09-03T08:10:44Z</time>
      </trkpt>
      <trkpt lat="44.73961" lon="5.41488">
        <ele>522.5</ele>
        <time>2021-09-03T08:10:45Z</time>
      </trkpt>
      <trkpt lat="44.73962" lon="5.41494">
        <ele>522.7</ele>
        <time>2021-09-03T08:10:47Z</time>
      </trkpt>
      <trkpt lat="44.73962" lon="5.41498">
        <ele>522.8</ele>
        <time>2021-09-03T08:10:48Z</time>
      </trkpt>
      <trkpt lat="44.73963" lon="5.41503">
        <ele>523</ele>
        <time>2021-09-03T08:10:50Z</time>
      </trkpt>
      <trkpt lat="44.73966" lon="5.41507">
        <ele>523.1</ele>
        <time>2021-09-03T08:10:52Z</time>
      </trkpt>
      <trkpt lat="44.73967" lon="5.4151">
        <ele>523.2</ele>
        <time>2021-09-03T08:10:53Z</time>
      </trkpt>
      <trkpt lat="44.73969" lon="5.41513">
        <ele>523.4</ele>
        <time>2021-09-03T08:10:55Z</time>
      </trkpt>
      <trkpt lat="44.73971" lon="5.41516">
        <ele>523.5</ele>
        <time>2021-09-03T08:10:56Z</time>
      </trkpt>
      <trkpt lat="44.73971" lon="5.41518">
        <ele>523.6</ele>
        <time>2021-09-03T08:10:57Z</time>
      </trkpt>
      <trkpt lat="44.73971" lon="5.41521">
        <ele>523.7</ele>
        <time>2021-09-03T08:10:58Z</time>
      </trkpt>
      <trkpt lat="44.73972" lon="5.41526">
        <ele>523.8</ele>
        <time>2021-09-03T08:10:59Z</time>
      </trkpt>
      <trkpt lat="44.73972" lon="5.4153">
        <ele>523.9</ele>
        <time>2021-09-03T08:11:00Z</time>
      </trkpt>
      <trkpt lat="44.73973" lon="5.41535">
        <ele>524.1</ele>
        <time>2021-09-03T08:11:02Z</time>
      </trkpt>
      <trkpt lat="44.73974" lon="5.4154">
        <ele>524.3</ele>
        <time>2021-09-03T08:11:03Z</time>
      </trkpt>
      <trkpt lat="44.73976" lon="5.41546">
        <ele>524.5</ele>
        <time>2021-09-03T08:11:05Z</time>
      </trkpt>
      <trkpt lat="44.73978" lon="5.4155">
        <ele>524.7</ele>
        <time>2021-09-03T08:11:06Z</time>
      </trkpt>
      <trkpt lat="44.73981" lon="5.41556">
        <ele>524.9</ele>
        <time>2021-09-03T08:11:08Z</time>
      </trkpt>
      <trkpt lat="44.73985" lon="5.41565">
        <ele>525.2</ele>
        <time>2021-09-03T08:11:10Z</time>
      </trkpt>
      <trkpt lat="44.73987" lon="5.4157">
        <ele>525.4</ele>
        <time>2021-09-03T08:11:11Z</time>
      </trkpt>
      <trkpt lat="44.73989" lon="5.41578">
        <ele>525.6</ele>
        <time>2021-09-03T08:11:12Z</time>
      </trkpt>
      <trkpt lat="44.73992" lon="5.41583">
        <ele>525.8</ele>
        <time>2021-09-03T08:11:14Z</time>
      </trkpt>
      <trkpt lat="44.73994" lon="5.41587">
        <ele>525.9</ele>
        <time>2021-09-03T08:11:15Z</time>
      </trkpt>
      <trkpt lat="44.73995" lon="5.41591">
        <ele>526</ele>
        <time>2021-09-03T08:11:16Z</time>
      </trkpt>
      <trkpt lat="44.73996" lon="5.41595">
        <ele>526.1</ele>
        <time>2021-09-03T08:11:17Z</time>
      </trkpt>
      <trkpt lat="44.73999" lon="5.416">
        <ele>526.3</ele>
        <time>2021-09-03T08:11:18Z</time>
      </trkpt>
      <trkpt lat="44.74003" lon="5.41603">
        <ele>526.4</ele>
        <time>2021-09-03T08:11:20Z</time>
      </trkpt>
      <trkpt lat="44.74006" lon="5.41605">
        <ele>526.5</ele>
        <time>2021-09-03T08:11:21Z</time>
      </trkpt>
      <trkpt lat="44.74012" lon="5.4161">
        <ele>526.8</ele>
        <time>2021-09-03T08:11:23Z</time>
      </trkpt>
      <trkpt lat="44.74015" lon="5.41614">
        <ele>526.9</ele>
        <time>2021-09-03T08:11:24Z</time>
      </trkpt>
      <trkpt lat="44.7402" lon="5.41618">
        <ele>527.1</ele>
        <time>2021-09-03T08:11:26Z</time>
      </trkpt>
      <trkpt lat="44.74023" lon="5.41622">
        <ele>527.3</ele>
        <time>2021-09-03T08:11:27Z</time>
      </trkpt>
      <trkpt lat="44.74027" lon="5.41627">
        <ele>527.5</ele>
        <time>2021-09-03T08:11:29Z</time>
      </trkpt>
      <trkpt lat="44.74028" lon="5.41628">
        <ele>527.6</ele>
        <time>2021-09-03T08:11:30Z</time>
      </trkpt>
      <trkpt lat="44.74029" lon="5.41635">
        <ele>527.8</ele>
        <time>2021-09-03T08:11:32Z</time>
      </trkpt>
      <trkpt lat="44.7403" lon="5.4164">
        <ele>528</ele>
        <time>2021-09-03T08:11:33Z</time>
      </trkpt>
      <trkpt lat="44.74029" lon="5.41646">
        <ele>528.2</ele>
        <time>2021-09-03T08:11:34Z</time>
      </trkpt>
      <trkpt lat="44.7403" lon="5.4165">
        <ele>528.3</ele>
        <time>2021-09-03T08:11:35Z</time>
      </trkpt>
      <trkpt lat="44.7403" lon="5.41654">
        <ele>528.4</ele>
        <time>2021-09-03T08:11:36Z</time>
      </trkpt>
      <trkpt lat="44.7403" lon="5.41659">
        <ele>528.5</ele>
        <time>2021-09-03T08:11:38Z</time>
      </trkpt>
      <trkpt lat="44.74031" lon="5.41663">
        <ele>528.6</ele>
        <time>2021-09-03T08:11:39Z</time>
      </trkpt>
      <trkpt lat="44.74032" lon="5.41664">
        <ele>528.7</ele>
        <time>2021-09-03T08:11:40Z</time>
      </trkpt>
      <trkpt lat="44.74034" lon="5.4167">
        <ele>528.9</ele>
        <time>2021-09-03T08:11:42Z</time>
      </trkpt>
      <trkpt lat="44.74034" lon="5.41672">
        <ele>528.9</ele>
        <time>2021-09-03T08:11:43Z</time>
      </trkpt>
      <trkpt lat="44.74034" lon="5.41675">
        <ele>529</ele>
        <time>2021-09-03T08:11:44Z</time>
      </trkpt>
      <trkpt lat="44.74037" lon="5.41679">
        <ele>529.2</ele>
        <time>2021-09-03T08:11:45Z</time>
      </trkpt>
      <trkpt lat="44.74041" lon="5.41683">
        <ele>529.4</ele>
        <time>2021-09-03T08:11:47Z</time>
      </trkpt>
      <trkpt lat="44.74043" lon="5.41685">
        <ele>529.5</ele>
        <time>2021-09-03T08:11:48Z</time>
      </trkpt>
      <trkpt lat="44.74045" lon="5.4169">
        <ele>529.6</ele>
        <time>2021-09-03T08:11:50Z</time>
      </trkpt>
      <trkpt lat="44.74046" lon="5.41697">
        <ele>529.9</ele>
        <time>2021-09-03T08:11:52Z</time>
      </trkpt>
      <trkpt lat="44.74049" lon="5.41703">
        <ele>530.1</ele>
        <time>2021-09-03T08:11:53Z</time>
      </trkpt>
      <trkpt lat="44.74051" lon="5.41707">
        <ele>530.2</ele>
        <time>2021-09-03T08:11:55Z</time>
      </trkpt>
      <trkpt lat="44.74053" lon="5.41711">
        <ele>530.4</ele>
        <time>2021-09-03T08:11:56Z</time>
      </trkpt>
      <trkpt lat="44.74053" lon="5.41713">
        <ele>530.5</ele>
        <time>2021-09-03T08:11:57Z</time>
      </trkpt>
      <trkpt lat="44.74053" lon="5.41717">
        <ele>530.6</ele>
        <time>2021-09-03T08:11:59Z</time>
      </trkpt>
      <trkpt lat="44.74052" lon="5.41721">
        <ele>530.7</ele>
        <time>2021-09-03T08:12:00Z</time>
      </trkpt>
      <trkpt lat="44.74051" lon="5.41725">
        <ele>530.9</ele>
        <time>2021-09-03T08:12:02Z</time>
      </trkpt>
      <trkpt lat="44.7405" lon="5.4173">
        <ele>531.1</ele>
        <time>2021-09-03T08:12:04Z</time>
      </trkpt>
      <trkpt lat="44.7405" lon="5.41734">
        <ele>531.2</ele>
        <time>2021-09-03T08:12:05Z</time>
      </trkpt>
      <trkpt lat="44.7405" lon="5.41735">
        <ele>531.2</ele>
        <time>2021-09-03T08:12:06Z</time>
      </trkpt>
      <trkpt lat="44.74051" lon="5.41741">
        <ele>531.4</ele>
        <time>2021-09-03T08:12:08Z</time>
      </trkpt>
      <trkpt lat="44.7405" lon="5.41745">
        <ele>531.6</ele>
        <time>2021-09-03T08:12:09Z</time>
      </trkpt>
      <trkpt lat="44.74049" lon="5.4175">
        <ele>531.8</ele>
        <time>2021-09-03T08:12:11Z</time>
      </trkpt>
      <trkpt lat="44.74048" lon="5.41755">
        <ele>531.9</ele>
        <time>2021-09-03T08:12:12Z</time>
      </trkpt>
      <trkpt lat="44.74046" lon="5.41761">
        <ele>532.1</ele>
        <time>2021-09-03T08:12:13Z</time>
      </trkpt>
      <trkpt lat="44.74044" lon="5.41765">
        <ele>532.3</ele>
        <time>2021-09-03T08:12:14Z</time>
      </trkpt>
      <trkpt lat="44.74044" lon="5.4177">
        <ele>532.5</ele>
        <time>2021-09-03T08:12:15Z</time>
      </trkpt>
      <trkpt lat="44.74043" lon="5.41775">
        <ele>532.6</ele>
        <time>2021-09-03T08:12:17Z</time>
      </trkpt>
      <trkpt lat="44.74043" lon="5.41781">
        <ele>532.8</ele>
        <time>2021-09-03T08:12:19Z</time>
      </trkpt>
      <trkpt lat="44.74042" lon="5.41782">
        <ele>532.9</ele>
        <time>2021-09-03T08:12:20Z</time>
      </trkpt>
      <trkpt lat="44.74041" lon="5.41787">
        <ele>533</ele>
        <time>2021-09-03T08:12:22Z</time>
      </trkpt>
      <trkpt lat="44.74041" lon="5.41788">
        <ele>533</ele>
        <time>2021-09-03T08:12:23Z</time>
      </trkpt>
      <trkpt lat="44.74041" lon="5.4179">
        <ele>533.1</ele>
        <time>2021-09-03T08:12:25Z</time>
      </trkpt>
      <trkpt lat="44.7404" lon="5.41792">
        <ele>533.2</ele>
        <time>2021-09-03T08:12:26Z</time>
      </trkpt>
      <trkpt lat="44.7404" lon="5.41793">
        <ele>533.2</ele>
        <time>2021-09-03T08:12:27Z</time>
      </trkpt>
      <trkpt lat="44.74041" lon="5.41809">
        <ele>533.7</ele>
        <time>2021-09-03T08:12:34Z</time>
      </trkpt>
      <trkpt lat="44.74042" lon="5.41813">
        <ele>533.8</ele>
        <time>2021-09-03T08:12:35Z</time>
      </trkpt>
      <trkpt lat="44.74043" lon="5.41816">
        <ele>533.9</ele>
        <time>2021-09-03T08:12:36Z</time>
      </trkpt>
      <trkpt lat="44.74045" lon="5.41821">
        <ele>534.1</ele>
        <time>2021-09-03T08:12:38Z</time>
      </trkpt>
      <trkpt lat="44.74046" lon="5.41826">
        <ele>534.2</ele>
        <time>2021-09-03T08:12:39Z</time>
      </trkpt>
      <trkpt lat="44.74048" lon="5.41833">
        <ele>534.5</ele>
        <time>2021-09-03T08:12:41Z</time>
      </trkpt>
      <trkpt lat="44.74051" lon="5.41837">
        <ele>534.6</ele>
        <time>2021-09-03T08:12:42Z</time>
      </trkpt>
      <trkpt lat="44.74053" lon="5.41841">
        <ele>534.8</ele>
        <time>2021-09-03T08:12:44Z</time>
      </trkpt>
      <trkpt lat="44.74055" lon="5.41847">
        <ele>535</ele>
        <time>2021-09-03T08:12:45Z</time>
      </trkpt>
      <trkpt lat="44.74055" lon="5.4185">
        <ele>535.1</ele>
        <time>2021-09-03T08:12:46Z</time>
      </trkpt>
      <trkpt lat="44.74055" lon="5.41854">
        <ele>535.2</ele>
        <time>2021-09-03T08:12:48Z</time>
      </trkpt>
      <trkpt lat="44.74056" lon="5.41859">
        <ele>535.3</ele>
        <time>2021-09-03T08:12:49Z</time>
      </trkpt>
      <trkpt lat="44.74057" lon="5.41861">
        <ele>535.4</ele>
        <time>2021-09-03T08:12:50Z</time>
      </trkpt>
      <trkpt lat="44.7406" lon="5.41867">
        <ele>535.6</ele>
        <time>2021-09-03T08:12:52Z</time>
      </trkpt>
      <trkpt lat="44.74063" lon="5.41874">
        <ele>535.8</ele>
        <time>2021-09-03T08:12:53Z</time>
      </trkpt>
      <trkpt lat="44.74063" lon="5.41881">
        <ele>536</ele>
        <time>2021-09-03T08:12:54Z</time>
      </trkpt>
      <trkpt lat="44.74064" lon="5.41885">
        <ele>536.1</ele>
        <time>2021-09-03T08:12:55Z</time>
      </trkpt>
      <trkpt lat="44.74065" lon="5.41889">
        <ele>536.2</ele>
        <time>2021-09-03T08:12:56Z</time>
      </trkpt>
      <trkpt lat="44.74067" lon="5.41894">
        <ele>536.4</ele>
        <time>2021-09-03T08:12:58Z</time>
      </trkpt>
      <trkpt lat="44.74067" lon="5.41898">
        <ele>536.5</ele>
        <time>2021-09-03T08:12:59Z</time>
      </trkpt>
      <trkpt lat="44.74064" lon="5.41901">
        <ele>536.6</ele>
        <time>2021-09-03T08:13:00Z</time>
      </trkpt>
      <trkpt lat="44.74063" lon="5.41907">
        <ele>536.8</ele>
        <time>2021-09-03T08:13:02Z</time>
      </trkpt>
      <trkpt lat="44.74063" lon="5.41909">
        <ele>536.8</ele>
        <time>2021-09-03T08:13:03Z</time>
      </trkpt>
      <trkpt lat="44.74063" lon="5.41911">
        <ele>536.9</ele>
        <time>2021-09-03T08:13:04Z</time>
      </trkpt>
      <trkpt lat="44.74064" lon="5.41915">
        <ele>537</ele>
        <time>2021-09-03T08:13:06Z</time>
      </trkpt>
      <trkpt lat="44.74066" lon="5.41918">
        <ele>537.1</ele>
        <time>2021-09-03T08:13:07Z</time>
      </trkpt>
      <trkpt lat="44.74071" lon="5.41925">
        <ele>537.4</ele>
        <time>2021-09-03T08:13:09Z</time>
      </trkpt>
      <trkpt lat="44.74074" lon="5.41928">
        <ele>537.6</ele>
        <time>2021-09-03T08:13:10Z</time>
      </trkpt>
      <trkpt lat="44.74076" lon="5.4193">
        <ele>537.7</ele>
        <time>2021-09-03T08:13:11Z</time>
      </trkpt>
      <trkpt lat="44.74081" lon="5.41932">
        <ele>537.9</ele>
        <time>2021-09-03T08:13:13Z</time>
      </trkpt>
      <trkpt lat="44.74086" lon="5.41932">
        <ele>538.1</ele>
        <time>2021-09-03T08:13:15Z</time>
      </trkpt>
      <trkpt lat="44.74089" lon="5.41931">
        <ele>538.3</ele>
        <time>2021-09-03T08:13:16Z</time>
      </trkpt>
      <trkpt lat="44.74098" lon="5.41929">
        <ele>538.7</ele>
        <time>2021-09-03T08:13:18Z</time>
      </trkpt>
      <trkpt lat="44.74101" lon="5.4193">
        <ele>538.9</ele>
        <time>2021-09-03T08:13:19Z</time>
      </trkpt>
      <trkpt lat="44.74105" lon="5.4193">
        <ele>539.1</ele>
        <time>2021-09-03T08:13:20Z</time>
      </trkpt>
      <trkpt lat="44.74111" lon="5.41929">
        <ele>539.4</ele>
        <time>2021-09-03T08:13:22Z</time>
      </trkpt>
      <trkpt lat="44.74114" lon="5.41928">
        <ele>539.6</ele>
        <time>2021-09-03T08:13:23Z</time>
      </trkpt>
      <trkpt lat="44.7412" lon="5.41929">
        <ele>539.9</ele>
        <time>2021-09-03T08:13:25Z</time>
      </trkpt>
      <trkpt lat="44.74124" lon="5.41929">
        <ele>540.2</ele>
        <time>2021-09-03T08:13:26Z</time>
      </trkpt>
      <trkpt lat="44.74127" lon="5.41931">
        <ele>540.3</ele>
        <time>2021-09-03T08:13:27Z</time>
      </trkpt>
      <trkpt lat="44.74133" lon="5.41934">
        <ele>540.7</ele>
        <time>2021-09-03T08:13:29Z</time>
      </trkpt>
      <trkpt lat="44.74137" lon="5.41937">
        <ele>540.9</ele>
        <time>2021-09-03T08:13:31Z</time>
      </trkpt>
      <trkpt lat="44.7414" lon="5.41938">
        <ele>541.1</ele>
        <time>2021-09-03T08:13:32Z</time>
      </trkpt>
      <trkpt lat="44.74141" lon="5.41938">
        <ele>541.2</ele>
        <time>2021-09-03T08:13:33Z</time>
      </trkpt>
      <trkpt lat="44.74143" lon="5.41941">
        <ele>541.4</ele>
        <time>2021-09-03T08:13:34Z</time>
      </trkpt>
      <trkpt lat="44.74146" lon="5.41944">
        <ele>541.6</ele>
        <time>2021-09-03T08:13:36Z</time>
      </trkpt>
      <trkpt lat="44.74151" lon="5.41946">
        <ele>541.8</ele>
        <time>2021-09-03T08:13:37Z</time>
      </trkpt>
      <trkpt lat="44.74154" lon="5.41947">
        <ele>541.9</ele>
        <time>2021-09-03T08:13:38Z</time>
      </trkpt>
      <trkpt lat="44.74156" lon="5.41949">
        <ele>542</ele>
        <time>2021-09-03T08:13:39Z</time>
      </trkpt>
      <trkpt lat="44.7416" lon="5.41952">
        <ele>542.1</ele>
        <time>2021-09-03T08:13:41Z</time>
      </trkpt>
      <trkpt lat="44.74163" lon="5.41954">
        <ele>542.1</ele>
        <time>2021-09-03T08:13:42Z</time>
      </trkpt>
      <trkpt lat="44.74166" lon="5.41957">
        <ele>542.2</ele>
        <time>2021-09-03T08:13:43Z</time>
      </trkpt>
      <trkpt lat="44.74168" lon="5.41963">
        <ele>542.3</ele>
        <time>2021-09-03T08:13:44Z</time>
      </trkpt>
      <trkpt lat="44.7417" lon="5.41966">
        <ele>542.3</ele>
        <time>2021-09-03T08:13:45Z</time>
      </trkpt>
      <trkpt lat="44.74171" lon="5.41968">
        <ele>542.4</ele>
        <time>2021-09-03T08:13:46Z</time>
      </trkpt>
      <trkpt lat="44.74171" lon="5.4197">
        <ele>542.4</ele>
        <time>2021-09-03T08:13:47Z</time>
      </trkpt>
      <trkpt lat="44.74175" lon="5.41978">
        <ele>542.5</ele>
        <time>2021-09-03T08:13:49Z</time>
      </trkpt>
      <trkpt lat="44.74178" lon="5.41983">
        <ele>542.6</ele>
        <time>2021-09-03T08:13:50Z</time>
      </trkpt>
      <trkpt lat="44.74181" lon="5.41988">
        <ele>542.6</ele>
        <time>2021-09-03T08:13:51Z</time>
      </trkpt>
      <trkpt lat="44.74184" lon="5.41992">
        <ele>542.7</ele>
        <time>2021-09-03T08:13:52Z</time>
      </trkpt>
      <trkpt lat="44.74186" lon="5.42001">
        <ele>542.8</ele>
        <time>2021-09-03T08:13:54Z</time>
      </trkpt>
      <trkpt lat="44.74189" lon="5.42006">
        <ele>542.9</ele>
        <time>2021-09-03T08:13:55Z</time>
      </trkpt>
      <trkpt lat="44.7419" lon="5.42008">
        <ele>542.9</ele>
        <time>2021-09-03T08:13:56Z</time>
      </trkpt>
      <trkpt lat="44.74192" lon="5.42011">
        <ele>543</ele>
        <time>2021-09-03T08:13:57Z</time>
      </trkpt>
      <trkpt lat="44.74194" lon="5.42013">
        <ele>543</ele>
        <time>2021-09-03T08:13:58Z</time>
      </trkpt>
      <trkpt lat="44.74198" lon="5.42016">
        <ele>543.2</ele>
        <time>2021-09-03T08:14:00Z</time>
      </trkpt>
      <trkpt lat="44.74201" lon="5.4202">
        <ele>543.3</ele>
        <time>2021-09-03T08:14:01Z</time>
      </trkpt>
      <trkpt lat="44.74204" lon="5.42026">
        <ele>543.5</ele>
        <time>2021-09-03T08:14:03Z</time>
      </trkpt>
      <trkpt lat="44.74204" lon="5.42028">
        <ele>543.6</ele>
        <time>2021-09-03T08:14:04Z</time>
      </trkpt>
      <trkpt lat="44.74205" lon="5.4203">
        <ele>543.6</ele>
        <time>2021-09-03T08:14:05Z</time>
      </trkpt>
      <trkpt lat="44.74205" lon="5.42031">
        <ele>543.7</ele>
        <time>2021-09-03T08:14:07Z</time>
      </trkpt>
      <trkpt lat="44.74204" lon="5.42032">
        <ele>543.7</ele>
        <time>2021-09-03T08:14:08Z</time>
      </trkpt>
      <trkpt lat="44.74204" lon="5.42035">
        <ele>543.9</ele>
        <time>2021-09-03T08:14:09Z</time>
      </trkpt>
      <trkpt lat="44.74204" lon="5.42037">
        <ele>543.9</ele>
        <time>2021-09-03T08:14:10Z</time>
      </trkpt>
      <trkpt lat="44.74203" lon="5.42039">
        <ele>544</ele>
        <time>2021-09-03T08:14:11Z</time>
      </trkpt>
      <trkpt lat="44.74201" lon="5.42043">
        <ele>544.3</ele>
        <time>2021-09-03T08:14:12Z</time>
      </trkpt>
      <trkpt lat="44.742" lon="5.42044">
        <ele>544.3</ele>
        <time>2021-09-03T08:14:13Z</time>
      </trkpt>
      <trkpt lat="44.74196" lon="5.42048">
        <ele>544.6</ele>
        <time>2021-09-03T08:14:15Z</time>
      </trkpt>
      <trkpt lat="44.74194" lon="5.42051">
        <ele>544.8</ele>
        <time>2021-09-03T08:14:16Z</time>
      </trkpt>
      <trkpt lat="44.74193" lon="5.42053">
        <ele>544.9</ele>
        <time>2021-09-03T08:14:17Z</time>
      </trkpt>
      <trkpt lat="44.74193" lon="5.42056">
        <ele>545.1</ele>
        <time>2021-09-03T08:14:18Z</time>
      </trkpt>
      <trkpt lat="44.74192" lon="5.42058">
        <ele>545.2</ele>
        <time>2021-09-03T08:14:20Z</time>
      </trkpt>
      <trkpt lat="44.74192" lon="5.4206">
        <ele>545.3</ele>
        <time>2021-09-03T08:14:21Z</time>
      </trkpt>
      <trkpt lat="44.74192" lon="5.42062">
        <ele>545.3</ele>
        <time>2021-09-03T08:14:22Z</time>
      </trkpt>
      <trkpt lat="44.74192" lon="5.42063">
        <ele>545.4</ele>
        <time>2021-09-03T08:14:23Z</time>
      </trkpt>
      <trkpt lat="44.74192" lon="5.42064">
        <ele>545.5</ele>
        <time>2021-09-03T08:14:24Z</time>
      </trkpt>
      <trkpt lat="44.74192" lon="5.42068">
        <ele>546.3</ele>
        <time>2021-09-03T08:14:26Z</time>
      </trkpt>
      <trkpt lat="44.74191" lon="5.42072">
        <ele>546.3</ele>
        <time>2021-09-03T08:14:28Z</time>
      </trkpt>
      <trkpt lat="44.74191" lon="5.42076">
        <ele>546.3</ele>
        <time>2021-09-03T08:14:29Z</time>
      </trkpt>
      <trkpt lat="44.74191" lon="5.4208">
        <ele>546.3</ele>
        <time>2021-09-03T08:14:30Z</time>
      </trkpt>
      <trkpt lat="44.74191" lon="5.42085">
        <ele>546.4</ele>
        <time>2021-09-03T08:14:31Z</time>
      </trkpt>
      <trkpt lat="44.74192" lon="5.42097">
        <ele>547.1</ele>
        <time>2021-09-03T08:14:33Z</time>
      </trkpt>
      <trkpt lat="44.74193" lon="5.42106">
        <ele>547.7</ele>
        <time>2021-09-03T08:14:35Z</time>
      </trkpt>
      <trkpt lat="44.74193" lon="5.42111">
        <ele>548</ele>
        <time>2021-09-03T08:14:37Z</time>
      </trkpt>
      <trkpt lat="44.74193" lon="5.42115">
        <ele>548.2</ele>
        <time>2021-09-03T08:14:38Z</time>
      </trkpt>
      <trkpt lat="44.74192" lon="5.4212">
        <ele>548.6</ele>
        <time>2021-09-03T08:14:40Z</time>
      </trkpt>
      <trkpt lat="44.74189" lon="5.42123">
        <ele>548.9</ele>
        <time>2021-09-03T08:14:42Z</time>
      </trkpt>
      <trkpt lat="44.74186" lon="5.42124">
        <ele>549.3</ele>
        <time>2021-09-03T08:14:43Z</time>
      </trkpt>
      <trkpt lat="44.74185" lon="5.42125">
        <ele>549.4</ele>
        <time>2021-09-03T08:14:44Z</time>
      </trkpt>
      <trkpt lat="44.74182" lon="5.42126">
        <ele>549.7</ele>
        <time>2021-09-03T08:14:45Z</time>
      </trkpt>
      <trkpt lat="44.74179" lon="5.42128">
        <ele>550.1</ele>
        <time>2021-09-03T08:14:47Z</time>
      </trkpt>
      <trkpt lat="44.74177" lon="5.42129">
        <ele>550.2</ele>
        <time>2021-09-03T08:14:48Z</time>
      </trkpt>
      <trkpt lat="44.74177" lon="5.42129">
        <ele>550.3</ele>
        <time>2021-09-03T08:14:49Z</time>
      </trkpt>
      <trkpt lat="44.74178" lon="5.42129">
        <ele>550.5</ele>
        <time>2021-09-03T08:14:51Z</time>
      </trkpt>
      <trkpt lat="44.74178" lon="5.42129">
        <ele>550.5</ele>
        <time>2021-09-03T08:14:53Z</time>
      </trkpt>
      <trkpt lat="44.74179" lon="5.42129">
        <ele>550.5</ele>
        <time>2021-09-03T08:14:55Z</time>
      </trkpt>
      <trkpt lat="44.74179" lon="5.42129">
        <ele>550.5</ele>
        <time>2021-09-03T08:14:57Z</time>
      </trkpt>
      <trkpt lat="44.74179" lon="5.4213">
        <ele>550.6</ele>
        <time>2021-09-03T08:14:59Z</time>
      </trkpt>
      <trkpt lat="44.74182" lon="5.42273">
        <ele>564.2</ele>
        <time>2021-09-03T08:17:11Z</time>
      </trkpt>
      <trkpt lat="44.7418" lon="5.42276">
        <ele>564.6</ele>
        <time>2021-09-03T08:17:12Z</time>
      </trkpt>
      <trkpt lat="44.74178" lon="5.42283">
        <ele>565.2</ele>
        <time>2021-09-03T08:17:14Z</time>
      </trkpt>
      <trkpt lat="44.74177" lon="5.42288">
        <ele>565.6</ele>
        <time>2021-09-03T08:17:16Z</time>
      </trkpt>
      <trkpt lat="44.74176" lon="5.42292">
        <ele>566</ele>
        <time>2021-09-03T08:17:17Z</time>
      </trkpt>
      <trkpt lat="44.74174" lon="5.42294">
        <ele>566.3</ele>
        <time>2021-09-03T08:17:18Z</time>
      </trkpt>
      <trkpt lat="44.74173" lon="5.423">
        <ele>566.7</ele>
        <time>2021-09-03T08:17:20Z</time>
      </trkpt>
      <trkpt lat="44.74172" lon="5.42303">
        <ele>567</ele>
        <time>2021-09-03T08:17:21Z</time>
      </trkpt>
      <trkpt lat="44.74172" lon="5.42305">
        <ele>567.1</ele>
        <time>2021-09-03T08:17:22Z</time>
      </trkpt>
      <trkpt lat="44.74172" lon="5.42307">
        <ele>567.3</ele>
        <time>2021-09-03T08:17:23Z</time>
      </trkpt>
      <trkpt lat="44.74171" lon="5.42308">
        <ele>567.4</ele>
        <time>2021-09-03T08:17:24Z</time>
      </trkpt>
      <trkpt lat="44.74172" lon="5.42311">
        <ele>567.7</ele>
        <time>2021-09-03T08:17:26Z</time>
      </trkpt>
      <trkpt lat="44.74172" lon="5.42312">
        <ele>567.8</ele>
        <time>2021-09-03T08:17:27Z</time>
      </trkpt>
      <trkpt lat="44.74172" lon="5.42314">
        <ele>567.9</ele>
        <time>2021-09-03T08:17:28Z</time>
      </trkpt>
      <trkpt lat="44.74172" lon="5.42315">
        <ele>568</ele>
        <time>2021-09-03T08:17:30Z</time>
      </trkpt>
      <trkpt lat="44.74173" lon="5.42315">
        <ele>568.2</ele>
        <time>2021-09-03T08:17:32Z</time>
      </trkpt>
      <trkpt lat="44.74174" lon="5.42315">
        <ele>568.3</ele>
        <time>2021-09-03T08:17:33Z</time>
      </trkpt>
      <trkpt lat="44.74175" lon="5.42315">
        <ele>568.4</ele>
        <time>2021-09-03T08:17:35Z</time>
      </trkpt>
      <trkpt lat="44.74175" lon="5.42315">
        <ele>568.4</ele>
        <time>2021-09-03T08:17:36Z</time>
      </trkpt>
      <trkpt lat="44.74176" lon="5.42315">
        <ele>568.5</ele>
        <time>2021-09-03T08:17:37Z</time>
      </trkpt>
      <trkpt lat="44.74176" lon="5.42315">
        <ele>568.6</ele>
        <time>2021-09-03T08:17:38Z</time>
      </trkpt>
      <trkpt lat="44.74188" lon="5.42355">
        <ele>572.6</ele>
        <time>2021-09-03T08:18:05Z</time>
      </trkpt>
      <trkpt lat="44.74188" lon="5.42358">
        <ele>572.9</ele>
        <time>2021-09-03T08:18:06Z</time>
      </trkpt>
      <trkpt lat="44.74187" lon="5.42366">
        <ele>573.7</ele>
        <time>2021-09-03T08:18:08Z</time>
      </trkpt>
      <trkpt lat="44.74187" lon="5.42371">
        <ele>574.2</ele>
        <time>2021-09-03T08:18:09Z</time>
      </trkpt>
      <trkpt lat="44.74187" lon="5.42371">
        <ele>574.3</ele>
        <time>2021-09-03T08:18:10Z</time>
      </trkpt>
      <trkpt lat="44.74185" lon="5.42378">
        <ele>575</ele>
        <time>2021-09-03T08:18:12Z</time>
      </trkpt>
      <trkpt lat="44.74184" lon="5.4238">
        <ele>575.3</ele>
        <time>2021-09-03T08:18:14Z</time>
      </trkpt>
      <trkpt lat="44.74183" lon="5.42382">
        <ele>575.5</ele>
        <time>2021-09-03T08:18:15Z</time>
      </trkpt>
      <trkpt lat="44.74181" lon="5.42383">
        <ele>575.8</ele>
        <time>2021-09-03T08:18:17Z</time>
      </trkpt>
      <trkpt lat="44.7418" lon="5.42384">
        <ele>576</ele>
        <time>2021-09-03T08:18:18Z</time>
      </trkpt>
      <trkpt lat="44.74212" lon="5.42544">
        <ele>595.5</ele>
        <time>2021-09-03T08:22:51Z</time>
      </trkpt>
      <trkpt lat="44.7421" lon="5.42557">
        <ele>595.9</ele>
        <time>2021-09-03T08:22:53Z</time>
      </trkpt>
      <trkpt lat="44.74209" lon="5.42567">
        <ele>596.7</ele>
        <time>2021-09-03T08:22:54Z</time>
      </trkpt>
      <trkpt lat="44.74207" lon="5.42579">
        <ele>597.3</ele>
        <time>2021-09-03T08:22:55Z</time>
      </trkpt>
      <trkpt lat="44.74205" lon="5.42589">
        <ele>597.8</ele>
        <time>2021-09-03T08:22:56Z</time>
      </trkpt>
      <trkpt lat="44.74206" lon="5.42592">
        <ele>598</ele>
        <time>2021-09-03T08:22:57Z</time>
      </trkpt>
      <trkpt lat="44.74206" lon="5.42593">
        <ele>598</ele>
        <time>2021-09-03T08:22:58Z</time>
      </trkpt>
      <trkpt lat="44.74207" lon="5.42594">
        <ele>598.2</ele>
        <time>2021-09-03T08:22:59Z</time>
      </trkpt>
      <trkpt lat="44.74209" lon="5.426">
        <ele>598.5</ele>
        <time>2021-09-03T08:23:01Z</time>
      </trkpt>
      <trkpt lat="44.74212" lon="5.42602">
        <ele>598.8</ele>
        <time>2021-09-03T08:23:02Z</time>
      </trkpt>
      <trkpt lat="44.74213" lon="5.42603">
        <ele>598.9</ele>
        <time>2021-09-03T08:23:03Z</time>
      </trkpt>
      <trkpt lat="44.74217" lon="5.42607">
        <ele>599.3</ele>
        <time>2021-09-03T08:23:05Z</time>
      </trkpt>
      <trkpt lat="44.74219" lon="5.42606">
        <ele>599.4</ele>
        <time>2021-09-03T08:23:06Z</time>
      </trkpt>
      <trkpt lat="44.74224" lon="5.42606">
        <ele>599.7</ele>
        <time>2021-09-03T08:23:08Z</time>
      </trkpt>
      <trkpt lat="44.74228" lon="5.42607">
        <ele>600</ele>
        <time>2021-09-03T08:23:10Z</time>
      </trkpt>
      <trkpt lat="44.7423" lon="5.42607">
        <ele>600.2</ele>
        <time>2021-09-03T08:23:12Z</time>
      </trkpt>
      <trkpt lat="44.74234" lon="5.42611">
        <ele>600.5</ele>
        <time>2021-09-03T08:23:14Z</time>
      </trkpt>
      <trkpt lat="44.74237" lon="5.42615">
        <ele>600.7</ele>
        <time>2021-09-03T08:23:16Z</time>
      </trkpt>
      <trkpt lat="44.74238" lon="5.42617">
        <ele>600.8</ele>
        <time>2021-09-03T08:23:17Z</time>
      </trkpt>
      <trkpt lat="44.74239" lon="5.42622">
        <ele>601</ele>
        <time>2021-09-03T08:23:19Z</time>
      </trkpt>
      <trkpt lat="44.74238" lon="5.42623">
        <ele>601.1</ele>
        <time>2021-09-03T08:23:21Z</time>
      </trkpt>
      <trkpt lat="44.74236" lon="5.42626">
        <ele>601.3</ele>
        <time>2021-09-03T08:23:23Z</time>
      </trkpt>
      <trkpt lat="44.74235" lon="5.42627">
        <ele>601.4</ele>
        <time>2021-09-03T08:23:24Z</time>
      </trkpt>
      <trkpt lat="44.74234" lon="5.42629">
        <ele>601.5</ele>
        <time>2021-09-03T08:23:26Z</time>
      </trkpt>
      <trkpt lat="44.74234" lon="5.42632">
        <ele>601.6</ele>
        <time>2021-09-03T08:23:27Z</time>
      </trkpt>
      <trkpt lat="44.74254" lon="5.42641">
        <ele>602.8</ele>
        <time>2021-09-03T08:23:38Z</time>
      </trkpt>
      <trkpt lat="44.74259" lon="5.42643">
        <ele>603.2</ele>
        <time>2021-09-03T08:23:39Z</time>
      </trkpt>
      <trkpt lat="44.74261" lon="5.42644">
        <ele>603.3</ele>
        <time>2021-09-03T08:23:41Z</time>
      </trkpt>
      <trkpt lat="44.74263" lon="5.42645">
        <ele>603.4</ele>
        <time>2021-09-03T08:23:42Z</time>
      </trkpt>
      <trkpt lat="44.74265" lon="5.42648">
        <ele>603.6</ele>
        <time>2021-09-03T08:23:43Z</time>
      </trkpt>
      <trkpt lat="44.74265" lon="5.42649">
        <ele>603.6</ele>
        <time>2021-09-03T08:23:44Z</time>
      </trkpt>
      <trkpt lat="44.74266" lon="5.4265">
        <ele>603.7</ele>
        <time>2021-09-03T08:23:46Z</time>
      </trkpt>
      <trkpt lat="44.74266" lon="5.42651">
        <ele>603.8</ele>
        <time>2021-09-03T08:23:47Z</time>
      </trkpt>
      <trkpt lat="44.74266" lon="5.42651">
        <ele>603.8</ele>
        <time>2021-09-03T08:23:48Z</time>
      </trkpt>
      <trkpt lat="44.74267" lon="5.42651">
        <ele>603.8</ele>
        <time>2021-09-03T08:23:49Z</time>
      </trkpt>
      <trkpt lat="44.74267" lon="5.42652">
        <ele>603.8</ele>
        <time>2021-09-03T08:23:52Z</time>
      </trkpt>
      <trkpt lat="44.74267" lon="5.42652">
        <ele>603.8</ele>
        <time>2021-09-03T08:23:53Z</time>
      </trkpt>
      <trkpt lat="44.74268" lon="5.42652">
        <ele>603.9</ele>
        <time>2021-09-03T08:23:54Z</time>
      </trkpt>
      <trkpt lat="44.74281" lon="5.42655">
        <ele>604.8</ele>
        <time>2021-09-03T08:23:59Z</time>
      </trkpt>
      <trkpt lat="44.74287" lon="5.42655">
        <ele>605.3</ele>
        <time>2021-09-03T08:24:00Z</time>
      </trkpt>
      <trkpt lat="44.74291" lon="5.42655">
        <ele>605.6</ele>
        <time>2021-09-03T08:24:01Z</time>
      </trkpt>
      <trkpt lat="44.74295" lon="5.42655">
        <ele>606</ele>
        <time>2021-09-03T08:24:03Z</time>
      </trkpt>
      <trkpt lat="44.74301" lon="5.42656">
        <ele>606.7</ele>
        <time>2021-09-03T08:24:04Z</time>
      </trkpt>
      <trkpt lat="44.74304" lon="5.42656">
        <ele>607</ele>
        <time>2021-09-03T08:24:05Z</time>
      </trkpt>
      <trkpt lat="44.74305" lon="5.42657">
        <ele>607.1</ele>
        <time>2021-09-03T08:24:06Z</time>
      </trkpt>
      <trkpt lat="44.74305" lon="5.42658">
        <ele>607.2</ele>
        <time>2021-09-03T08:24:07Z</time>
      </trkpt>
      <trkpt lat="44.74305" lon="5.42659">
        <ele>607.3</ele>
        <time>2021-09-03T08:24:09Z</time>
      </trkpt>
      <trkpt lat="44.74305" lon="5.4266">
        <ele>607.4</ele>
        <time>2021-09-03T08:24:10Z</time>
      </trkpt>
      <trkpt lat="44.74306" lon="5.42662">
        <ele>607.6</ele>
        <time>2021-09-03T08:24:11Z</time>
      </trkpt>
      <trkpt lat="44.74307" lon="5.42662">
        <ele>607.7</ele>
        <time>2021-09-03T08:24:12Z</time>
      </trkpt>
      <trkpt lat="44.74307" lon="5.42663">
        <ele>607.7</ele>
        <time>2021-09-03T08:24:13Z</time>
      </trkpt>
      <trkpt lat="44.74307" lon="5.42663">
        <ele>607.8</ele>
        <time>2021-09-03T08:24:14Z</time>
      </trkpt>
      <trkpt lat="44.74307" lon="5.42664">
        <ele>607.8</ele>
        <time>2021-09-03T08:24:15Z</time>
      </trkpt>
      <trkpt lat="44.74307" lon="5.42665">
        <ele>607.9</ele>
        <time>2021-09-03T08:24:17Z</time>
      </trkpt>
      <trkpt lat="44.74306" lon="5.42666">
        <ele>608.1</ele>
        <time>2021-09-03T08:24:19Z</time>
      </trkpt>
      <trkpt lat="44.74307" lon="5.42668">
        <ele>608.2</ele>
        <time>2021-09-03T08:24:20Z</time>
      </trkpt>
      <trkpt lat="44.74308" lon="5.4267">
        <ele>608.4</ele>
        <time>2021-09-03T08:24:22Z</time>
      </trkpt>
      <trkpt lat="44.74326" lon="5.42679">
        <ele>610.8</ele>
        <time>2021-09-03T08:24:38Z</time>
      </trkpt>
      <trkpt lat="44.74329" lon="5.42681">
        <ele>611.2</ele>
        <time>2021-09-03T08:24:39Z</time>
      </trkpt>
      <trkpt lat="44.74332" lon="5.42685">
        <ele>611.8</ele>
        <time>2021-09-03T08:24:41Z</time>
      </trkpt>
      <trkpt lat="44.74336" lon="5.4269">
        <ele>612.4</ele>
        <time>2021-09-03T08:24:43Z</time>
      </trkpt>
      <trkpt lat="44.74338" lon="5.42693">
        <ele>612.8</ele>
        <time>2021-09-03T08:24:45Z</time>
      </trkpt>
      <trkpt lat="44.74339" lon="5.42694">
        <ele>612.9</ele>
        <time>2021-09-03T08:24:46Z</time>
      </trkpt>
      <trkpt lat="44.74339" lon="5.42694">
        <ele>612.9</ele>
        <time>2021-09-03T08:24:47Z</time>
      </trkpt>
      <trkpt lat="44.74339" lon="5.42695">
        <ele>613</ele>
        <time>2021-09-03T08:24:49Z</time>
      </trkpt>
      <trkpt lat="44.74339" lon="5.42695">
        <ele>613</ele>
        <time>2021-09-03T08:24:50Z</time>
      </trkpt>
      <trkpt lat="44.74339" lon="5.42697">
        <ele>613.1</ele>
        <time>2021-09-03T08:24:51Z</time>
      </trkpt>
      <trkpt lat="44.7434" lon="5.42699">
        <ele>613.3</ele>
        <time>2021-09-03T08:24:52Z</time>
      </trkpt>
      <trkpt lat="44.74339" lon="5.42702">
        <ele>613.5</ele>
        <time>2021-09-03T08:24:54Z</time>
      </trkpt>
      <trkpt lat="44.74339" lon="5.42704">
        <ele>613.7</ele>
        <time>2021-09-03T08:24:55Z</time>
      </trkpt>
      <trkpt lat="44.74338" lon="5.42706">
        <ele>613.9</ele>
        <time>2021-09-03T08:24:56Z</time>
      </trkpt>
      <trkpt lat="44.74338" lon="5.42707">
        <ele>614</ele>
        <time>2021-09-03T08:24:57Z</time>
      </trkpt>
      <trkpt lat="44.74337" lon="5.42711">
        <ele>614.3</ele>
        <time>2021-09-03T08:24:59Z</time>
      </trkpt>
      <trkpt lat="44.74337" lon="5.42715">
        <ele>614.6</ele>
        <time>2021-09-03T08:25:00Z</time>
      </trkpt>
      <trkpt lat="44.74337" lon="5.4272">
        <ele>614.9</ele>
        <time>2021-09-03T08:25:01Z</time>
      </trkpt>
      <trkpt lat="44.74337" lon="5.42723">
        <ele>615.1</ele>
        <time>2021-09-03T08:25:03Z</time>
      </trkpt>
      <trkpt lat="44.74338" lon="5.42724">
        <ele>615.2</ele>
        <time>2021-09-03T08:25:04Z</time>
      </trkpt>
      <trkpt lat="44.74339" lon="5.42725">
        <ele>615.4</ele>
        <time>2021-09-03T08:25:06Z</time>
      </trkpt>
      <trkpt lat="44.7434" lon="5.42727">
        <ele>615.6</ele>
        <time>2021-09-03T08:25:07Z</time>
      </trkpt>
      <trkpt lat="44.74341" lon="5.42729">
        <ele>615.8</ele>
        <time>2021-09-03T08:25:08Z</time>
      </trkpt>
      <trkpt lat="44.74346" lon="5.42733">
        <ele>616.3</ele>
        <time>2021-09-03T08:25:10Z</time>
      </trkpt>
      <trkpt lat="44.74349" lon="5.42734">
        <ele>616.6</ele>
        <time>2021-09-03T08:25:11Z</time>
      </trkpt>
      <trkpt lat="44.74349" lon="5.42735">
        <ele>616.7</ele>
        <time>2021-09-03T08:25:12Z</time>
      </trkpt>
      <trkpt lat="44.74354" lon="5.42737">
        <ele>617.2</ele>
        <time>2021-09-03T08:25:14Z</time>
      </trkpt>
      <trkpt lat="44.74355" lon="5.42738">
        <ele>617.4</ele>
        <time>2021-09-03T08:25:15Z</time>
      </trkpt>
      <trkpt lat="44.74357" lon="5.4274">
        <ele>617.5</ele>
        <time>2021-09-03T08:25:16Z</time>
      </trkpt>
      <trkpt lat="44.74358" lon="5.42741">
        <ele>617.7</ele>
        <time>2021-09-03T08:25:17Z</time>
      </trkpt>
      <trkpt lat="44.7436" lon="5.42742">
        <ele>617.9</ele>
        <time>2021-09-03T08:25:18Z</time>
      </trkpt>
      <trkpt lat="44.74364" lon="5.42745">
        <ele>618.3</ele>
        <time>2021-09-03T08:25:20Z</time>
      </trkpt>
      <trkpt lat="44.74364" lon="5.42745">
        <ele>618.4</ele>
        <time>2021-09-03T08:25:21Z</time>
      </trkpt>
      <trkpt lat="44.74367" lon="5.42747">
        <ele>618.7</ele>
        <time>2021-09-03T08:25:23Z</time>
      </trkpt>
      <trkpt lat="44.74369" lon="5.42749">
        <ele>619</ele>
        <time>2021-09-03T08:25:24Z</time>
      </trkpt>
      <trkpt lat="44.7437" lon="5.42751">
        <ele>619.2</ele>
        <time>2021-09-03T08:25:25Z</time>
      </trkpt>
      <trkpt lat="44.74373" lon="5.42755">
        <ele>619.6</ele>
        <time>2021-09-03T08:25:27Z</time>
      </trkpt>
      <trkpt lat="44.74376" lon="5.42758">
        <ele>620</ele>
        <time>2021-09-03T08:25:28Z</time>
      </trkpt>
      <trkpt lat="44.74377" lon="5.4276">
        <ele>620.2</ele>
        <time>2021-09-03T08:25:29Z</time>
      </trkpt>
      <trkpt lat="44.74378" lon="5.42761">
        <ele>620.4</ele>
        <time>2021-09-03T08:25:30Z</time>
      </trkpt>
      <trkpt lat="44.74379" lon="5.42763">
        <ele>620.5</ele>
        <time>2021-09-03T08:25:31Z</time>
      </trkpt>
      <trkpt lat="44.74382" lon="5.42768">
        <ele>621</ele>
        <time>2021-09-03T08:25:33Z</time>
      </trkpt>
      <trkpt lat="44.74384" lon="5.42772">
        <ele>621.4</ele>
        <time>2021-09-03T08:25:34Z</time>
      </trkpt>
      <trkpt lat="44.74385" lon="5.42773">
        <ele>621.5</ele>
        <time>2021-09-03T08:25:35Z</time>
      </trkpt>
      <trkpt lat="44.74386" lon="5.42779">
        <ele>621.9</ele>
        <time>2021-09-03T08:25:36Z</time>
      </trkpt>
      <trkpt lat="44.74386" lon="5.42781">
        <ele>622.1</ele>
        <time>2021-09-03T08:25:37Z</time>
      </trkpt>
      <trkpt lat="44.74388" lon="5.42786">
        <ele>622.5</ele>
        <time>2021-09-03T08:25:39Z</time>
      </trkpt>
      <trkpt lat="44.74389" lon="5.42789">
        <ele>622.8</ele>
        <time>2021-09-03T08:25:40Z</time>
      </trkpt>
      <trkpt lat="44.7439" lon="5.4279">
        <ele>622.9</ele>
        <time>2021-09-03T08:25:41Z</time>
      </trkpt>
      <trkpt lat="44.74392" lon="5.42792">
        <ele>623.1</ele>
        <time>2021-09-03T08:25:42Z</time>
      </trkpt>
      <trkpt lat="44.74393" lon="5.42794">
        <ele>623.3</ele>
        <time>2021-09-03T08:25:43Z</time>
      </trkpt>
      <trkpt lat="44.74394" lon="5.42795">
        <ele>623.4</ele>
        <time>2021-09-03T08:25:45Z</time>
      </trkpt>
      <trkpt lat="44.74395" lon="5.42797">
        <ele>623.6</ele>
        <time>2021-09-03T08:25:46Z</time>
      </trkpt>
      <trkpt lat="44.74395" lon="5.428">
        <ele>623.7</ele>
        <time>2021-09-03T08:25:47Z</time>
      </trkpt>
      <trkpt lat="44.74395" lon="5.42802">
        <ele>623.9</ele>
        <time>2021-09-03T08:25:49Z</time>
      </trkpt>
      <trkpt lat="44.74393" lon="5.42802">
        <ele>624</ele>
        <time>2021-09-03T08:25:51Z</time>
      </trkpt>
      <trkpt lat="44.74392" lon="5.42802">
        <ele>624.1</ele>
        <time>2021-09-03T08:25:52Z</time>
      </trkpt>
      <trkpt lat="44.74392" lon="5.42803">
        <ele>624.2</ele>
        <time>2021-09-03T08:25:53Z</time>
      </trkpt>
      <trkpt lat="44.74391" lon="5.42804">
        <ele>624.3</ele>
        <time>2021-09-03T08:25:54Z</time>
      </trkpt>
      <trkpt lat="44.74391" lon="5.42806">
        <ele>624.3</ele>
        <time>2021-09-03T08:25:55Z</time>
      </trkpt>
      <trkpt lat="44.74391" lon="5.42808">
        <ele>624.5</ele>
        <time>2021-09-03T08:25:57Z</time>
      </trkpt>
      <trkpt lat="44.74392" lon="5.42814">
        <ele>624.9</ele>
        <time>2021-09-03T08:26:01Z</time>
      </trkpt>
      <trkpt lat="44.74393" lon="5.42819">
        <ele>625.2</ele>
        <time>2021-09-03T08:26:02Z</time>
      </trkpt>
      <trkpt lat="44.74394" lon="5.42822">
        <ele>625.4</ele>
        <time>2021-09-03T08:26:03Z</time>
      </trkpt>
      <trkpt lat="44.74395" lon="5.42823">
        <ele>625.5</ele>
        <time>2021-09-03T08:26:04Z</time>
      </trkpt>
      <trkpt lat="44.74398" lon="5.42827">
        <ele>625.8</ele>
        <time>2021-09-03T08:26:06Z</time>
      </trkpt>
      <trkpt lat="44.74399" lon="5.42828">
        <ele>625.9</ele>
        <time>2021-09-03T08:26:07Z</time>
      </trkpt>
      <trkpt lat="44.74403" lon="5.42831">
        <ele>626.2</ele>
        <time>2021-09-03T08:26:09Z</time>
      </trkpt>
      <trkpt lat="44.74405" lon="5.42834">
        <ele>626.4</ele>
        <time>2021-09-03T08:26:11Z</time>
      </trkpt>
      <trkpt lat="44.74407" lon="5.42838">
        <ele>626.6</ele>
        <time>2021-09-03T08:26:12Z</time>
      </trkpt>
      <trkpt lat="44.74408" lon="5.4284">
        <ele>626.8</ele>
        <time>2021-09-03T08:26:14Z</time>
      </trkpt>
      <trkpt lat="44.74409" lon="5.42844">
        <ele>626.9</ele>
        <time>2021-09-03T08:26:16Z</time>
      </trkpt>
      <trkpt lat="44.74411" lon="5.42846">
        <ele>627.1</ele>
        <time>2021-09-03T08:26:17Z</time>
      </trkpt>
      <trkpt lat="44.74411" lon="5.42847">
        <ele>627.1</ele>
        <time>2021-09-03T08:26:18Z</time>
      </trkpt>
      <trkpt lat="44.74414" lon="5.42848">
        <ele>627.3</ele>
        <time>2021-09-03T08:26:20Z</time>
      </trkpt>
      <trkpt lat="44.74416" lon="5.4285">
        <ele>627.5</ele>
        <time>2021-09-03T08:26:22Z</time>
      </trkpt>
      <trkpt lat="44.74419" lon="5.42852">
        <ele>627.7</ele>
        <time>2021-09-03T08:26:23Z</time>
      </trkpt>
      <trkpt lat="44.7442" lon="5.42854">
        <ele>627.8</ele>
        <time>2021-09-03T08:26:25Z</time>
      </trkpt>
      <trkpt lat="44.74422" lon="5.42857">
        <ele>628</ele>
        <time>2021-09-03T08:26:27Z</time>
      </trkpt>
      <trkpt lat="44.74423" lon="5.42859">
        <ele>628.1</ele>
        <time>2021-09-03T08:26:28Z</time>
      </trkpt>
      <trkpt lat="44.74423" lon="5.42859">
        <ele>628.1</ele>
        <time>2021-09-03T08:26:30Z</time>
      </trkpt>
      <trkpt lat="44.74424" lon="5.4286">
        <ele>628.2</ele>
        <time>2021-09-03T08:26:32Z</time>
      </trkpt>
      <trkpt lat="44.74425" lon="5.42862">
        <ele>628.3</ele>
        <time>2021-09-03T08:26:33Z</time>
      </trkpt>
      <trkpt lat="44.74426" lon="5.42864">
        <ele>628.4</ele>
        <time>2021-09-03T08:26:35Z</time>
      </trkpt>
      <trkpt lat="44.74427" lon="5.42867">
        <ele>628.6</ele>
        <time>2021-09-03T08:26:37Z</time>
      </trkpt>
      <trkpt lat="44.7443" lon="5.42877">
        <ele>629.2</ele>
        <time>2021-09-03T08:26:40Z</time>
      </trkpt>
      <trkpt lat="44.74431" lon="5.4288">
        <ele>629.4</ele>
        <time>2021-09-03T08:26:41Z</time>
      </trkpt>
      <trkpt lat="44.74436" lon="5.4289">
        <ele>630.1</ele>
        <time>2021-09-03T08:26:43Z</time>
      </trkpt>
      <trkpt lat="44.74439" lon="5.42899">
        <ele>630.7</ele>
        <time>2021-09-03T08:26:44Z</time>
      </trkpt>
      <trkpt lat="44.74442" lon="5.42905">
        <ele>631.2</ele>
        <time>2021-09-03T08:26:46Z</time>
      </trkpt>
      <trkpt lat="44.74443" lon="5.42908">
        <ele>631.5</ele>
        <time>2021-09-03T08:26:47Z</time>
      </trkpt>
      <trkpt lat="44.74447" lon="5.42913">
        <ele>632.1</ele>
        <time>2021-09-03T08:26:49Z</time>
      </trkpt>
      <trkpt lat="44.74451" lon="5.42919">
        <ele>632.7</ele>
        <time>2021-09-03T08:26:50Z</time>
      </trkpt>
      <trkpt lat="44.74455" lon="5.42925">
        <ele>633.2</ele>
        <time>2021-09-03T08:26:52Z</time>
      </trkpt>
      <trkpt lat="44.74456" lon="5.42928">
        <ele>633.4</ele>
        <time>2021-09-03T08:26:53Z</time>
      </trkpt>
      <trkpt lat="44.74461" lon="5.42932">
        <ele>633.9</ele>
        <time>2021-09-03T08:26:55Z</time>
      </trkpt>
      <trkpt lat="44.74464" lon="5.42935">
        <ele>634.2</ele>
        <time>2021-09-03T08:26:57Z</time>
      </trkpt>
      <trkpt lat="44.74466" lon="5.42939">
        <ele>634.5</ele>
        <time>2021-09-03T08:26:58Z</time>
      </trkpt>
      <trkpt lat="44.74466" lon="5.42941">
        <ele>634.6</ele>
        <time>2021-09-03T08:26:59Z</time>
      </trkpt>
      <trkpt lat="44.74468" lon="5.42942">
        <ele>634.7</ele>
        <time>2021-09-03T08:27:00Z</time>
      </trkpt>
      <trkpt lat="44.74469" lon="5.42944">
        <ele>634.8</ele>
        <time>2021-09-03T08:27:01Z</time>
      </trkpt>
      <trkpt lat="44.7447" lon="5.42945">
        <ele>634.9</ele>
        <time>2021-09-03T08:27:03Z</time>
      </trkpt>
      <trkpt lat="44.74471" lon="5.42946">
        <ele>635</ele>
        <time>2021-09-03T08:27:04Z</time>
      </trkpt>
      <trkpt lat="44.74472" lon="5.42947">
        <ele>635.1</ele>
        <time>2021-09-03T08:27:05Z</time>
      </trkpt>
      <trkpt lat="44.74472" lon="5.42949">
        <ele>635.2</ele>
        <time>2021-09-03T08:27:06Z</time>
      </trkpt>
      <trkpt lat="44.74474" lon="5.42953">
        <ele>635.4</ele>
        <time>2021-09-03T08:27:08Z</time>
      </trkpt>
      <trkpt lat="44.74473" lon="5.42958">
        <ele>635.7</ele>
        <time>2021-09-03T08:27:10Z</time>
      </trkpt>
      <trkpt lat="44.74471" lon="5.42962">
        <ele>635.9</ele>
        <time>2021-09-03T08:27:12Z</time>
      </trkpt>
      <trkpt lat="44.74469" lon="5.42966">
        <ele>636.2</ele>
        <time>2021-09-03T08:27:13Z</time>
      </trkpt>
      <trkpt lat="44.74468" lon="5.42967">
        <ele>636.2</ele>
        <time>2021-09-03T08:27:14Z</time>
      </trkpt>
      <trkpt lat="44.74465" lon="5.4297">
        <ele>636.4</ele>
        <time>2021-09-03T08:27:15Z</time>
      </trkpt>
      <trkpt lat="44.74463" lon="5.42974">
        <ele>636.6</ele>
        <time>2021-09-03T08:27:16Z</time>
      </trkpt>
      <trkpt lat="44.74463" lon="5.42975">
        <ele>636.7</ele>
        <time>2021-09-03T08:27:17Z</time>
      </trkpt>
      <trkpt lat="44.74462" lon="5.42976">
        <ele>636.8</ele>
        <time>2021-09-03T08:27:18Z</time>
      </trkpt>
      <trkpt lat="44.74461" lon="5.42981">
        <ele>636.9</ele>
        <time>2021-09-03T08:27:20Z</time>
      </trkpt>
      <trkpt lat="44.74461" lon="5.42983">
        <ele>637</ele>
        <time>2021-09-03T08:27:21Z</time>
      </trkpt>
      <trkpt lat="44.74461" lon="5.42985">
        <ele>637.1</ele>
        <time>2021-09-03T08:27:22Z</time>
      </trkpt>
      <trkpt lat="44.74461" lon="5.42986">
        <ele>637.1</ele>
        <time>2021-09-03T08:27:23Z</time>
      </trkpt>
      <trkpt lat="44.74462" lon="5.42987">
        <ele>637.2</ele>
        <time>2021-09-03T08:27:24Z</time>
      </trkpt>
      <trkpt lat="44.74464" lon="5.42988">
        <ele>637.3</ele>
        <time>2021-09-03T08:27:25Z</time>
      </trkpt>
      <trkpt lat="44.74467" lon="5.4299">
        <ele>637.5</ele>
        <time>2021-09-03T08:27:27Z</time>
      </trkpt>
      <trkpt lat="44.74468" lon="5.4299">
        <ele>637.6</ele>
        <time>2021-09-03T08:27:28Z</time>
      </trkpt>
      <trkpt lat="44.7447" lon="5.42992">
        <ele>637.7</ele>
        <time>2021-09-03T08:27:29Z</time>
      </trkpt>
      <trkpt lat="44.74472" lon="5.42995">
        <ele>637.8</ele>
        <time>2021-09-03T08:27:31Z</time>
      </trkpt>
      <trkpt lat="44.74473" lon="5.42997">
        <ele>637.9</ele>
        <time>2021-09-03T08:27:32Z</time>
      </trkpt>
      <trkpt lat="44.74473" lon="5.42999">
        <ele>638</ele>
        <time>2021-09-03T08:27:34Z</time>
      </trkpt>
      <trkpt lat="44.74473" lon="5.43">
        <ele>638.1</ele>
        <time>2021-09-03T08:27:35Z</time>
      </trkpt>
      <trkpt lat="44.74472" lon="5.42999">
        <ele>638.1</ele>
        <time>2021-09-03T08:27:37Z</time>
      </trkpt>
      <trkpt lat="44.74472" lon="5.42999">
        <ele>638.1</ele>
        <time>2021-09-03T08:27:38Z</time>
      </trkpt>
      <trkpt lat="44.74471" lon="5.43">
        <ele>638.2</ele>
        <time>2021-09-03T08:27:39Z</time>
      </trkpt>
      <trkpt lat="44.74471" lon="5.43">
        <ele>638.2</ele>
        <time>2021-09-03T08:27:40Z</time>
      </trkpt>
      <trkpt lat="44.74471" lon="5.43">
        <ele>638.2</ele>
        <time>2021-09-03T08:27:42Z</time>
      </trkpt>
      <trkpt lat="44.74471" lon="5.43">
        <ele>638.2</ele>
        <time>2021-09-03T08:27:44Z</time>
      </trkpt>
      <trkpt lat="44.74468" lon="5.43005">
        <ele>638.4</ele>
        <time>2021-09-03T08:28:18Z</time>
      </trkpt>
      <trkpt lat="44.74468" lon="5.43009">
        <ele>638.6</ele>
        <time>2021-09-03T08:28:19Z</time>
      </trkpt>
      <trkpt lat="44.74469" lon="5.43014">
        <ele>638.8</ele>
        <time>2021-09-03T08:28:20Z</time>
      </trkpt>
      <trkpt lat="44.7447" lon="5.43023">
        <ele>639.2</ele>
        <time>2021-09-03T08:28:22Z</time>
      </trkpt>
      <trkpt lat="44.74471" lon="5.43032">
        <ele>639.6</ele>
        <time>2021-09-03T08:28:24Z</time>
      </trkpt>
      <trkpt lat="44.74472" lon="5.43037">
        <ele>639.8</ele>
        <time>2021-09-03T08:28:25Z</time>
      </trkpt>
      <trkpt lat="44.74476" lon="5.43041">
        <ele>640.1</ele>
        <time>2021-09-03T08:28:26Z</time>
      </trkpt>
      <trkpt lat="44.74477" lon="5.43043">
        <ele>640.2</ele>
        <time>2021-09-03T08:28:27Z</time>
      </trkpt>
      <trkpt lat="44.74482" lon="5.43046">
        <ele>640.6</ele>
        <time>2021-09-03T08:28:29Z</time>
      </trkpt>
      <trkpt lat="44.74484" lon="5.43052">
        <ele>640.8</ele>
        <time>2021-09-03T08:28:31Z</time>
      </trkpt>
      <trkpt lat="44.74485" lon="5.43058">
        <ele>641.1</ele>
        <time>2021-09-03T08:28:33Z</time>
      </trkpt>
      <trkpt lat="44.74486" lon="5.4306">
        <ele>641.3</ele>
        <time>2021-09-03T08:28:34Z</time>
      </trkpt>
      <trkpt lat="44.7449" lon="5.43063">
        <ele>641.5</ele>
        <time>2021-09-03T08:28:36Z</time>
      </trkpt>
      <trkpt lat="44.74492" lon="5.43066">
        <ele>641.7</ele>
        <time>2021-09-03T08:28:37Z</time>
      </trkpt>
      <trkpt lat="44.74494" lon="5.4307">
        <ele>642</ele>
        <time>2021-09-03T08:28:38Z</time>
      </trkpt>
      <trkpt lat="44.74495" lon="5.43071">
        <ele>642</ele>
        <time>2021-09-03T08:28:39Z</time>
      </trkpt>
      <trkpt lat="44.74496" lon="5.43078">
        <ele>642.3</ele>
        <time>2021-09-03T08:28:41Z</time>
      </trkpt>
      <trkpt lat="44.74496" lon="5.43081">
        <ele>642.5</ele>
        <time>2021-09-03T08:28:42Z</time>
      </trkpt>
      <trkpt lat="44.74497" lon="5.43083">
        <ele>642.6</ele>
        <time>2021-09-03T08:28:43Z</time>
      </trkpt>
      <trkpt lat="44.74499" lon="5.43088">
        <ele>642.8</ele>
        <time>2021-09-03T08:28:44Z</time>
      </trkpt>
      <trkpt lat="44.74501" lon="5.43089">
        <ele>642.9</ele>
        <time>2021-09-03T08:28:45Z</time>
      </trkpt>
      <trkpt lat="44.74503" lon="5.43092">
        <ele>643.2</ele>
        <time>2021-09-03T08:28:47Z</time>
      </trkpt>
      <trkpt lat="44.74505" lon="5.43094">
        <ele>643.3</ele>
        <time>2021-09-03T08:28:48Z</time>
      </trkpt>
      <trkpt lat="44.74508" lon="5.43098">
        <ele>643.6</ele>
        <time>2021-09-03T08:28:50Z</time>
      </trkpt>
      <trkpt lat="44.74509" lon="5.431">
        <ele>643.7</ele>
        <time>2021-09-03T08:28:51Z</time>
      </trkpt>
      <trkpt lat="44.74512" lon="5.43104">
        <ele>643.9</ele>
        <time>2021-09-03T08:28:53Z</time>
      </trkpt>
      <trkpt lat="44.74514" lon="5.4311">
        <ele>644.3</ele>
        <time>2021-09-03T08:28:55Z</time>
      </trkpt>
      <trkpt lat="44.74515" lon="5.43113">
        <ele>644.4</ele>
        <time>2021-09-03T08:28:56Z</time>
      </trkpt>
      <trkpt lat="44.74515" lon="5.43117">
        <ele>644.6</ele>
        <time>2021-09-03T08:28:58Z</time>
      </trkpt>
      <trkpt lat="44.74515" lon="5.43121">
        <ele>644.8</ele>
        <time>2021-09-03T08:28:59Z</time>
      </trkpt>
      <trkpt lat="44.74515" lon="5.43126">
        <ele>645</ele>
        <time>2021-09-03T08:29:00Z</time>
      </trkpt>
      <trkpt lat="44.74515" lon="5.43128">
        <ele>645.1</ele>
        <time>2021-09-03T08:29:01Z</time>
      </trkpt>
      <trkpt lat="44.74514" lon="5.43132">
        <ele>645.3</ele>
        <time>2021-09-03T08:29:03Z</time>
      </trkpt>
      <trkpt lat="44.74512" lon="5.43136">
        <ele>645.5</ele>
        <time>2021-09-03T08:29:04Z</time>
      </trkpt>
      <trkpt lat="44.74511" lon="5.43139">
        <ele>645.7</ele>
        <time>2021-09-03T08:29:05Z</time>
      </trkpt>
      <trkpt lat="44.74511" lon="5.43144">
        <ele>646</ele>
        <time>2021-09-03T08:29:07Z</time>
      </trkpt>
      <trkpt lat="44.74513" lon="5.43148">
        <ele>646.3</ele>
        <time>2021-09-03T08:29:09Z</time>
      </trkpt>
      <trkpt lat="44.74516" lon="5.43155">
        <ele>646.7</ele>
        <time>2021-09-03T08:29:11Z</time>
      </trkpt>
      <trkpt lat="44.74518" lon="5.43159">
        <ele>647</ele>
        <time>2021-09-03T08:29:12Z</time>
      </trkpt>
      <trkpt lat="44.7452" lon="5.43163">
        <ele>647.3</ele>
        <time>2021-09-03T08:29:13Z</time>
      </trkpt>
      <trkpt lat="44.74522" lon="5.43168">
        <ele>647.7</ele>
        <time>2021-09-03T08:29:15Z</time>
      </trkpt>
      <trkpt lat="44.74524" lon="5.43175">
        <ele>648.2</ele>
        <time>2021-09-03T08:29:17Z</time>
      </trkpt>
      <trkpt lat="44.74526" lon="5.4318">
        <ele>648.6</ele>
        <time>2021-09-03T08:29:18Z</time>
      </trkpt>
      <trkpt lat="44.74527" lon="5.43182">
        <ele>648.8</ele>
        <time>2021-09-03T08:29:19Z</time>
      </trkpt>
      <trkpt lat="44.74529" lon="5.43185">
        <ele>649.1</ele>
        <time>2021-09-03T08:29:21Z</time>
      </trkpt>
      <trkpt lat="44.7453" lon="5.4319">
        <ele>649.5</ele>
        <time>2021-09-03T08:29:23Z</time>
      </trkpt>
      <trkpt lat="44.74529" lon="5.43197">
        <ele>650</ele>
        <time>2021-09-03T08:29:24Z</time>
      </trkpt>
      <trkpt lat="44.74527" lon="5.43204">
        <ele>650.6</ele>
        <time>2021-09-03T08:29:26Z</time>
      </trkpt>
      <trkpt lat="44.74527" lon="5.43209">
        <ele>651</ele>
        <time>2021-09-03T08:29:27Z</time>
      </trkpt>
      <trkpt lat="44.74528" lon="5.43216">
        <ele>651.5</ele>
        <time>2021-09-03T08:29:29Z</time>
      </trkpt>
      <trkpt lat="44.74528" lon="5.43221">
        <ele>652</ele>
        <time>2021-09-03T08:29:30Z</time>
      </trkpt>
      <trkpt lat="44.74529" lon="5.43225">
        <ele>652.3</ele>
        <time>2021-09-03T08:29:32Z</time>
      </trkpt>
      <trkpt lat="44.7453" lon="5.43229">
        <ele>652.7</ele>
        <time>2021-09-03T08:29:33Z</time>
      </trkpt>
      <trkpt lat="44.74531" lon="5.43232">
        <ele>653</ele>
        <time>2021-09-03T08:29:34Z</time>
      </trkpt>
      <trkpt lat="44.74533" lon="5.43236">
        <ele>653.4</ele>
        <time>2021-09-03T08:29:36Z</time>
      </trkpt>
      <trkpt lat="44.74536" lon="5.43238">
        <ele>653.7</ele>
        <time>2021-09-03T08:29:37Z</time>
      </trkpt>
      <trkpt lat="44.7454" lon="5.43237">
        <ele>654.2</ele>
        <time>2021-09-03T08:29:39Z</time>
      </trkpt>
      <trkpt lat="44.74545" lon="5.43236">
        <ele>654.7</ele>
        <time>2021-09-03T08:29:41Z</time>
      </trkpt>
      <trkpt lat="44.74549" lon="5.43238">
        <ele>655.6</ele>
        <time>2021-09-03T08:29:42Z</time>
      </trkpt>
      <trkpt lat="44.7455" lon="5.43238">
        <ele>655.8</ele>
        <time>2021-09-03T08:29:44Z</time>
      </trkpt>
      <trkpt lat="44.74551" lon="5.43239">
        <ele>655.9</ele>
        <time>2021-09-03T08:29:45Z</time>
      </trkpt>
      <trkpt lat="44.74551" lon="5.4324">
        <ele>656</ele>
        <time>2021-09-03T08:29:46Z</time>
      </trkpt>
      <trkpt lat="44.74552" lon="5.4324">
        <ele>656.1</ele>
        <time>2021-09-03T08:29:48Z</time>
      </trkpt>
      <trkpt lat="44.74553" lon="5.4324">
        <ele>656.2</ele>
        <time>2021-09-03T08:29:49Z</time>
      </trkpt>
      <trkpt lat="44.74579" lon="5.4325">
        <ele>659.4</ele>
        <time>2021-09-03T08:30:13Z</time>
      </trkpt>
      <trkpt lat="44.74578" lon="5.43253">
        <ele>659.7</ele>
        <time>2021-09-03T08:30:14Z</time>
      </trkpt>
      <trkpt lat="44.74578" lon="5.43254">
        <ele>659.8</ele>
        <time>2021-09-03T08:30:15Z</time>
      </trkpt>
      <trkpt lat="44.74578" lon="5.43255">
        <ele>659.8</ele>
        <time>2021-09-03T08:30:17Z</time>
      </trkpt>
      <trkpt lat="44.74578" lon="5.43257">
        <ele>660</ele>
        <time>2021-09-03T08:30:18Z</time>
      </trkpt>
      <trkpt lat="44.74577" lon="5.43258">
        <ele>660.1</ele>
        <time>2021-09-03T08:30:20Z</time>
      </trkpt>
      <trkpt lat="44.74578" lon="5.43259">
        <ele>660.2</ele>
        <time>2021-09-03T08:30:21Z</time>
      </trkpt>
      <trkpt lat="44.74579" lon="5.43259">
        <ele>660.3</ele>
        <time>2021-09-03T08:30:23Z</time>
      </trkpt>
      <trkpt lat="44.7458" lon="5.43259">
        <ele>660.4</ele>
        <time>2021-09-03T08:30:24Z</time>
      </trkpt>
      <trkpt lat="44.74583" lon="5.43259">
        <ele>660.7</ele>
        <time>2021-09-03T08:30:25Z</time>
      </trkpt>
      <trkpt lat="44.74585" lon="5.43259">
        <ele>660.9</ele>
        <time>2021-09-03T08:30:27Z</time>
      </trkpt>
      <trkpt lat="44.74586" lon="5.43258">
        <ele>661</ele>
        <time>2021-09-03T08:30:28Z</time>
      </trkpt>
      <trkpt lat="44.74587" lon="5.43258">
        <ele>661.2</ele>
        <time>2021-09-03T08:30:29Z</time>
      </trkpt>
      <trkpt lat="44.74589" lon="5.43258">
        <ele>661.4</ele>
        <time>2021-09-03T08:30:31Z</time>
      </trkpt>
      <trkpt lat="44.7459" lon="5.43258">
        <ele>661.5</ele>
        <time>2021-09-03T08:30:32Z</time>
      </trkpt>
      <trkpt lat="44.74591" lon="5.43258">
        <ele>661.5</ele>
        <time>2021-09-03T08:30:33Z</time>
      </trkpt>
      <trkpt lat="44.74592" lon="5.43258">
        <ele>661.7</ele>
        <time>2021-09-03T08:30:34Z</time>
      </trkpt>
      <trkpt lat="44.74593" lon="5.43258">
        <ele>661.7</ele>
        <time>2021-09-03T08:30:35Z</time>
      </trkpt>
      <trkpt lat="44.74595" lon="5.4326">
        <ele>662</ele>
        <time>2021-09-03T08:30:37Z</time>
      </trkpt>
      <trkpt lat="44.74595" lon="5.4326">
        <ele>662.1</ele>
        <time>2021-09-03T08:30:38Z</time>
      </trkpt>
      <trkpt lat="44.74596" lon="5.43261">
        <ele>662.1</ele>
        <time>2021-09-03T08:30:39Z</time>
      </trkpt>
      <trkpt lat="44.74597" lon="5.43261">
        <ele>662.2</ele>
        <time>2021-09-03T08:30:40Z</time>
      </trkpt>
      <trkpt lat="44.74597" lon="5.43261">
        <ele>662.3</ele>
        <time>2021-09-03T08:30:41Z</time>
      </trkpt>
      <trkpt lat="44.74598" lon="5.43262">
        <ele>662.3</ele>
        <time>2021-09-03T08:30:42Z</time>
      </trkpt>
      <trkpt lat="44.74599" lon="5.43262">
        <ele>662.4</ele>
        <time>2021-09-03T08:30:44Z</time>
      </trkpt>
      <trkpt lat="44.74599" lon="5.43262">
        <ele>662.4</ele>
        <time>2021-09-03T08:30:45Z</time>
      </trkpt>
      <trkpt lat="44.746" lon="5.43263">
        <ele>662.5</ele>
        <time>2021-09-03T08:30:47Z</time>
      </trkpt>
      <trkpt lat="44.74616" lon="5.43335">
        <ele>672.8</ele>
        <time>2021-09-03T08:40:17Z</time>
      </trkpt>
      <trkpt lat="44.74618" lon="5.43336">
        <ele>672.8</ele>
        <time>2021-09-03T08:40:18Z</time>
      </trkpt>
      <trkpt lat="44.74618" lon="5.43338">
        <ele>672.8</ele>
        <time>2021-09-03T08:40:19Z</time>
      </trkpt>
      <trkpt lat="44.74619" lon="5.4334">
        <ele>672.8</ele>
        <time>2021-09-03T08:40:20Z</time>
      </trkpt>
      <trkpt lat="44.74619" lon="5.43344">
        <ele>672.8</ele>
        <time>2021-09-03T08:40:22Z</time>
      </trkpt>
      <trkpt lat="44.74618" lon="5.43344">
        <ele>672.8</ele>
        <time>2021-09-03T08:40:23Z</time>
      </trkpt>
      <trkpt lat="44.74617" lon="5.43344">
        <ele>672.8</ele>
        <time>2021-09-03T08:40:25Z</time>
      </trkpt>
      <trkpt lat="44.74617" lon="5.43344">
        <ele>672.8</ele>
        <time>2021-09-03T08:40:26Z</time>
      </trkpt>
      <trkpt lat="44.74617" lon="5.43344">
        <ele>672.8</ele>
        <time>2021-09-03T08:40:27Z</time>
      </trkpt>
      <trkpt lat="44.74616" lon="5.43345">
        <ele>672.8</ele>
        <time>2021-09-03T08:40:29Z</time>
      </trkpt>
      <trkpt lat="44.74615" lon="5.43346">
        <ele>672.8</ele>
        <time>2021-09-03T08:40:30Z</time>
      </trkpt>
      <trkpt lat="44.74609" lon="5.43353">
        <ele>672.8</ele>
        <time>2021-09-03T08:40:34Z</time>
      </trkpt>
      <trkpt lat="44.74607" lon="5.43356">
        <ele>672.8</ele>
        <time>2021-09-03T08:40:35Z</time>
      </trkpt>
      <trkpt lat="44.74604" lon="5.43359">
        <ele>672.8</ele>
        <time>2021-09-03T08:40:37Z</time>
      </trkpt>
      <trkpt lat="44.74603" lon="5.43359">
        <ele>672.8</ele>
        <time>2021-09-03T08:40:38Z</time>
      </trkpt>
      <trkpt lat="44.74602" lon="5.4336">
        <ele>672.8</ele>
        <time>2021-09-03T08:40:40Z</time>
      </trkpt>
      <trkpt lat="44.746" lon="5.4336">
        <ele>672.8</ele>
        <time>2021-09-03T08:40:41Z</time>
      </trkpt>
      <trkpt lat="44.74598" lon="5.43363">
        <ele>672.8</ele>
        <time>2021-09-03T08:40:42Z</time>
      </trkpt>
      <trkpt lat="44.74597" lon="5.43364">
        <ele>672.8</ele>
        <time>2021-09-03T08:40:43Z</time>
      </trkpt>
      <trkpt lat="44.74596" lon="5.43365">
        <ele>672.8</ele>
        <time>2021-09-03T08:40:45Z</time>
      </trkpt>
      <trkpt lat="44.74595" lon="5.43367">
        <ele>672.8</ele>
        <time>2021-09-03T08:40:46Z</time>
      </trkpt>
      <trkpt lat="44.74594" lon="5.43368">
        <ele>672.8</ele>
        <time>2021-09-03T08:40:47Z</time>
      </trkpt>
      <trkpt lat="44.74594" lon="5.43368">
        <ele>672.8</ele>
        <time>2021-09-03T08:40:49Z</time>
      </trkpt>
      <trkpt lat="44.74593" lon="5.43368">
        <ele>672.8</ele>
        <time>2021-09-03T08:40:50Z</time>
      </trkpt>
      <trkpt lat="44.74593" lon="5.43369">
        <ele>672.8</ele>
        <time>2021-09-03T08:40:51Z</time>
      </trkpt>
      <trkpt lat="44.74593" lon="5.43369">
        <ele>672.8</ele>
        <time>2021-09-03T08:40:53Z</time>
      </trkpt>
      <trkpt lat="44.74589" lon="5.43376">
        <ele>672.8</ele>
        <time>2021-09-03T08:45:21Z</time>
      </trkpt>
      <trkpt lat="44.7459" lon="5.43375">
        <ele>672.8</ele>
        <time>2021-09-03T08:45:22Z</time>
      </trkpt>
      <trkpt lat="44.7459" lon="5.43373">
        <ele>672.8</ele>
        <time>2021-09-03T08:45:23Z</time>
      </trkpt>
      <trkpt lat="44.74591" lon="5.43372">
        <ele>672.8</ele>
        <time>2021-09-03T08:45:25Z</time>
      </trkpt>
      <trkpt lat="44.74592" lon="5.4337">
        <ele>672.8</ele>
        <time>2021-09-03T08:45:26Z</time>
      </trkpt>
      <trkpt lat="44.74592" lon="5.43369">
        <ele>672.8</ele>
        <time>2021-09-03T08:45:27Z</time>
      </trkpt>
      <trkpt lat="44.74593" lon="5.43367">
        <ele>672.8</ele>
        <time>2021-09-03T08:45:28Z</time>
      </trkpt>
      <trkpt lat="44.74594" lon="5.43365">
        <ele>672.8</ele>
        <time>2021-09-03T08:45:30Z</time>
      </trkpt>
      <trkpt lat="44.74595" lon="5.43364">
        <ele>672.8</ele>
        <time>2021-09-03T08:45:32Z</time>
      </trkpt>
      <trkpt lat="44.74596" lon="5.43363">
        <ele>672.8</ele>
        <time>2021-09-03T08:45:33Z</time>
      </trkpt>
      <trkpt lat="44.74598" lon="5.43359">
        <ele>672.8</ele>
        <time>2021-09-03T08:45:35Z</time>
      </trkpt>
      <trkpt lat="44.74598" lon="5.43358">
        <ele>672.8</ele>
        <time>2021-09-03T08:45:36Z</time>
      </trkpt>
      <trkpt lat="44.74598" lon="5.43356">
        <ele>672.8</ele>
        <time>2021-09-03T08:45:37Z</time>
      </trkpt>
      <trkpt lat="44.74597" lon="5.43355">
        <ele>672.8</ele>
        <time>2021-09-03T08:45:38Z</time>
      </trkpt>
      <trkpt lat="44.74597" lon="5.43353">
        <ele>672.8</ele>
        <time>2021-09-03T08:45:39Z</time>
      </trkpt>
      <trkpt lat="44.74596" lon="5.43352">
        <ele>672.8</ele>
        <time>2021-09-03T08:45:41Z</time>
      </trkpt>
      <trkpt lat="44.74596" lon="5.4335">
        <ele>672.8</ele>
        <time>2021-09-03T08:45:43Z</time>
      </trkpt>
      <trkpt lat="44.74595" lon="5.43349">
        <ele>672.8</ele>
        <time>2021-09-03T08:45:44Z</time>
      </trkpt>
      <trkpt lat="44.74594" lon="5.43347">
        <ele>672.8</ele>
        <time>2021-09-03T08:45:46Z</time>
      </trkpt>
      <trkpt lat="44.74594" lon="5.43346">
        <ele>672.8</ele>
        <time>2021-09-03T08:56:21Z</time>
      </trkpt>
      <trkpt lat="44.74593" lon="5.43344">
        <ele>672.8</ele>
        <time>2021-09-03T08:56:23Z</time>
      </trkpt>
      <trkpt lat="44.74593" lon="5.43343">
        <ele>672.8</ele>
        <time>2021-09-03T08:56:25Z</time>
      </trkpt>
      <trkpt lat="44.74592" lon="5.43341">
        <ele>672.8</ele>
        <time>2021-09-03T08:56:26Z</time>
      </trkpt>
      <trkpt lat="44.74592" lon="5.4334">
        <ele>672.8</ele>
        <time>2021-09-03T08:56:28Z</time>
      </trkpt>
      <trkpt lat="44.74591" lon="5.43338">
        <ele>672.8</ele>
        <time>2021-09-03T08:56:29Z</time>
      </trkpt>
      <trkpt lat="44.74591" lon="5.43337">
        <ele>672.8</ele>
        <time>2021-09-03T08:56:30Z</time>
      </trkpt>
      <trkpt lat="44.74591" lon="5.43337">
        <ele>672.8</ele>
        <time>2021-09-03T08:56:32Z</time>
      </trkpt>
      <trkpt lat="44.7459" lon="5.43336">
        <ele>672.8</ele>
        <time>2021-09-03T08:56:33Z</time>
      </trkpt>
      <trkpt lat="44.74589" lon="5.43335">
        <ele>672.8</ele>
        <time>2021-09-03T08:56:35Z</time>
      </trkpt>
      <trkpt lat="44.74589" lon="5.43335">
        <ele>672.8</ele>
        <time>2021-09-03T08:56:36Z</time>
      </trkpt>
      <trkpt lat="44.74589" lon="5.43334">
        <ele>672.8</ele>
        <time>2021-09-03T08:56:37Z</time>
      </trkpt>
      <trkpt lat="44.74589" lon="5.43333">
        <ele>672.8</ele>
        <time>2021-09-03T08:56:39Z</time>
      </trkpt>
      <trkpt lat="44.74589" lon="5.43332">
        <ele>672.8</ele>
        <time>2021-09-03T08:56:41Z</time>
      </trkpt>
      <trkpt lat="44.74589" lon="5.43332">
        <ele>672.8</ele>
        <time>2021-09-03T08:56:42Z</time>
      </trkpt>
      <trkpt lat="44.74588" lon="5.43332">
        <ele>672.8</ele>
        <time>2021-09-03T08:56:43Z</time>
      </trkpt>
      <trkpt lat="44.74588" lon="5.43331">
        <ele>672.8</ele>
        <time>2021-09-03T08:56:44Z</time>
      </trkpt>
      <trkpt lat="44.74588" lon="5.43331">
        <ele>672.8</ele>
        <time>2021-09-03T08:56:46Z</time>
      </trkpt>
      <trkpt lat="44.74588" lon="5.43331">
        <ele>672.8</ele>
        <time>2021-09-03T08:56:47Z</time>
      </trkpt>
      <trkpt lat="44.74588" lon="5.43331">
        <ele>672.8</ele>
        <time>2021-09-03T08:56:48Z</time>
      </trkpt>
      <trkpt lat="44.74588" lon="5.4333">
        <ele>672.8</ele>
        <time>2021-09-03T08:56:50Z</time>
      </trkpt>
      <trkpt lat="44.74588" lon="5.4333">
        <ele>672.8</ele>
        <time>2021-09-03T08:56:52Z</time>
      </trkpt>
      <trkpt lat="44.74588" lon="5.4333">
        <ele>672.8</ele>
        <time>2021-09-03T08:56:53Z</time>
      </trkpt>
      <trkpt lat="44.74588" lon="5.4333">
        <ele>672.8</ele>
        <time>2021-09-03T08:56:54Z</time>
      </trkpt>
      <trkpt lat="44.74588" lon="5.4333">
        <ele>672.8</ele>
        <time>2021-09-03T08:56:55Z</time>
      </trkpt>
      <trkpt lat="44.74588" lon="5.4333">
        <ele>672.8</ele>
        <time>2021-09-03T08:56:56Z</time>
      </trkpt>
      <trkpt lat="44.74588" lon="5.4333">
        <ele>672.8</ele>
        <time>2021-09-03T08:56:58Z</time>
      </trkpt>
      <trkpt lat="44.74588" lon="5.43331">
        <ele>672.8</ele>
        <time>2021-09-03T08:56:59Z</time>
      </trkpt>
      <trkpt lat="44.74588" lon="5.43331">
        <ele>672.8</ele>
        <time>2021-09-03T08:57:00Z</time>
      </trkpt>
      <trkpt lat="44.74588" lon="5.43331">
        <ele>672.8</ele>
        <time>2021-09-03T08:57:02Z</time>
      </trkpt>
      <trkpt lat="44.74593" lon="5.43338">
        <ele>672.8</ele>
        <time>2021-09-03T08:57:04Z</time>
      </trkpt>
      <trkpt lat="44.74595" lon="5.43342">
        <ele>672.8</ele>
        <time>2021-09-03T08:57:05Z</time>
      </trkpt>
      <trkpt lat="44.74595" lon="5.43343">
        <ele>672.8</ele>
        <time>2021-09-03T08:57:06Z</time>
      </trkpt>
      <trkpt lat="44.74595" lon="5.43345">
        <ele>672.8</ele>
        <time>2021-09-03T08:57:08Z</time>
      </trkpt>
      <trkpt lat="44.74596" lon="5.43345">
        <ele>672.8</ele>
        <time>2021-09-03T08:57:10Z</time>
      </trkpt>
      <trkpt lat="44.74596" lon="5.43345">
        <ele>672.8</ele>
        <time>2021-09-03T08:57:11Z</time>
      </trkpt>
      <trkpt lat="44.74596" lon="5.43345">
        <ele>672.8</ele>
        <time>2021-09-03T08:57:13Z</time>
      </trkpt>
      <trkpt lat="44.74596" lon="5.43345">
        <ele>672.8</ele>
        <time>2021-09-03T08:57:14Z</time>
      </trkpt>
      <trkpt lat="44.74596" lon="5.43345">
        <ele>672.8</ele>
        <time>2021-09-03T08:57:16Z</time>
      </trkpt>
      <trkpt lat="44.74596" lon="5.43345">
        <ele>672.8</ele>
        <time>2021-09-03T08:57:18Z</time>
      </trkpt>
      <trkpt lat="44.74596" lon="5.43345">
        <ele>672.8</ele>
        <time>2021-09-03T08:57:20Z</time>
      </trkpt>
      <trkpt lat="44.74596" lon="5.43345">
        <ele>672.8</ele>
        <time>2021-09-03T08:57:22Z</time>
      </trkpt>
      <trkpt lat="44.74596" lon="5.43345">
        <ele>672.8</ele>
        <time>2021-09-03T08:57:24Z</time>
      </trkpt>
      <trkpt lat="44.74596" lon="5.43345">
        <ele>672.8</ele>
        <time>2021-09-03T08:57:25Z</time>
      </trkpt>
      <trkpt lat="44.74596" lon="5.43345">
        <ele>672.8</ele>
        <time>2021-09-03T08:57:27Z</time>
      </trkpt>
      <trkpt lat="44.74596" lon="5.43345">
        <ele>672.8</ele>
        <time>2021-09-03T08:57:29Z</time>
      </trkpt>
      <trkpt lat="44.74596" lon="5.43345">
        <ele>672.8</ele>
        <time>2021-09-03T08:57:30Z</time>
      </trkpt>
      <trkpt lat="44.74596" lon="5.43345">
        <ele>672.8</ele>
        <time>2021-09-03T08:57:31Z</time>
      </trkpt>
      <trkpt lat="44.74596" lon="5.43345">
        <ele>672.8</ele>
        <time>2021-09-03T08:57:32Z</time>
      </trkpt>
      <trkpt lat="44.74596" lon="5.43345">
        <ele>672.8</ele>
        <time>2021-09-03T08:57:34Z</time>
      </trkpt>
      <trkpt lat="44.74596" lon="5.43345">
        <ele>672.8</ele>
        <time>2021-09-03T08:57:36Z</time>
      </trkpt>
      <trkpt lat="44.74596" lon="5.43345">
        <ele>672.8</ele>
        <time>2021-09-03T08:57:38Z</time>
      </trkpt>
      <trkpt lat="44.74596" lon="5.43345">
        <ele>672.8</ele>
        <time>2021-09-03T08:57:40Z</time>
      </trkpt>
      <trkpt lat="44.74596" lon="5.43345">
        <ele>672.8</ele>
        <time>2021-09-03T08:57:42Z</time>
      </trkpt>
      <trkpt lat="44.74596" lon="5.43345">
        <ele>672.8</ele>
        <time>2021-09-03T08:57:44Z</time>
      </trkpt>
      <trkpt lat="44.74596" lon="5.43345">
        <ele>672.8</ele>
        <time>2021-09-03T08:57:46Z</time>
      </trkpt>
      <trkpt lat="44.74596" lon="5.43345">
        <ele>672.8</ele>
        <time>2021-09-03T08:57:48Z</time>
      </trkpt>
      <trkpt lat="44.74596" lon="5.43345">
        <ele>672.8</ele>
        <time>2021-09-03T08:57:49Z</time>
      </trkpt>
      <trkpt lat="44.74596" lon="5.43345">
        <ele>672.8</ele>
        <time>2021-09-03T08:57:50Z</time>
      </trkpt>
      <trkpt lat="44.74596" lon="5.43345">
        <ele>672.8</ele>
        <time>2021-09-03T08:57:52Z</time>
      </trkpt>
      <trkpt lat="44.74596" lon="5.43345">
        <ele>672.8</ele>
        <time>2021-09-03T08:57:54Z</time>
      </trkpt>
      <trkpt lat="44.74596" lon="5.43345">
        <ele>672.8</ele>
        <time>2021-09-03T08:57:55Z</time>
      </trkpt>
      <trkpt lat="44.74596" lon="5.43345">
        <ele>672.8</ele>
        <time>2021-09-03T08:57:57Z</time>
      </trkpt>
      <trkpt lat="44.74596" lon="5.43345">
        <ele>672.8</ele>
        <time>2021-09-03T08:57:59Z</time>
      </trkpt>
      <trkpt lat="44.74596" lon="5.43345">
        <ele>672.8</ele>
        <time>2021-09-03T08:58:01Z</time>
      </trkpt>
      <trkpt lat="44.74596" lon="5.43345">
        <ele>672.8</ele>
        <time>2021-09-03T08:58:02Z</time>
      </trkpt>
      <trkpt lat="44.74596" lon="5.43345">
        <ele>672.8</ele>
        <time>2021-09-03T08:58:04Z</time>
      </trkpt>
      <trkpt lat="44.74596" lon="5.43345">
        <ele>672.8</ele>
        <time>2021-09-03T08:58:05Z</time>
      </trkpt>
      <trkpt lat="44.74596" lon="5.43345">
        <ele>672.8</ele>
        <time>2021-09-03T08:58:07Z</time>
      </trkpt>
      <trkpt lat="44.74596" lon="5.43345">
        <ele>672.8</ele>
        <time>2021-09-03T08:58:08Z</time>
      </trkpt>
      <trkpt lat="44.74596" lon="5.43345">
        <ele>672.8</ele>
        <time>2021-09-03T08:58:10Z</time>
      </trkpt>
      <trkpt lat="44.74596" lon="5.43345">
        <ele>672.8</ele>
        <time>2021-09-03T08:58:11Z</time>
      </trkpt>
      <trkpt lat="44.74596" lon="5.43345">
        <ele>672.8</ele>
        <time>2021-09-03T08:58:13Z</time>
      </trkpt>
      <trkpt lat="44.74596" lon="5.43345">
        <ele>672.8</ele>
        <time>2021-09-03T08:58:14Z</time>
      </trkpt>
      <trkpt lat="44.74596" lon="5.43345">
        <ele>672.8</ele>
        <time>2021-09-03T08:58:16Z</time>
      </trkpt>
      <trkpt lat="44.74596" lon="5.43345">
        <ele>672.8</ele>
        <time>2021-09-03T08:58:17Z</time>
      </trkpt>
      <trkpt lat="44.74596" lon="5.43345">
        <ele>672.8</ele>
        <time>2021-09-03T08:58:19Z</time>
      </trkpt>
      <trkpt lat="44.74596" lon="5.43345">
        <ele>672.8</ele>
        <time>2021-09-03T08:58:20Z</time>
      </trkpt>
      <trkpt lat="44.74596" lon="5.43345">
        <ele>672.8</ele>
        <time>2021-09-03T08:58:22Z</time>
      </trkpt>
      <trkpt lat="44.74596" lon="5.43345">
        <ele>672.8</ele>
        <time>2021-09-03T08:58:23Z</time>
      </trkpt>
      <trkpt lat="44.74596" lon="5.43345">
        <ele>672.8</ele>
        <time>2021-09-03T08:58:25Z</time>
      </trkpt>
      <trkpt lat="44.74596" lon="5.43345">
        <ele>672.8</ele>
        <time>2021-09-03T08:58:26Z</time>
      </trkpt>
      <trkpt lat="44.74596" lon="5.43345">
        <ele>672.8</ele>
        <time>2021-09-03T08:58:27Z</time>
      </trkpt>
      <trkpt lat="44.74596" lon="5.43345">
        <ele>672.8</ele>
        <time>2021-09-03T08:58:29Z</time>
      </trkpt>
      <trkpt lat="44.74596" lon="5.43345">
        <ele>672.8</ele>
        <time>2021-09-03T08:58:31Z</time>
      </trkpt>
      <trkpt lat="44.74596" lon="5.43345">
        <ele>672.8</ele>
        <time>2021-09-03T08:58:33Z</time>
      </trkpt>
      <trkpt lat="44.74596" lon="5.43345">
        <ele>672.8</ele>
        <time>2021-09-03T08:58:35Z</time>
      </trkpt>
      <trkpt lat="44.74596" lon="5.43345">
        <ele>672.8</ele>
        <time>2021-09-03T08:58:37Z</time>
      </trkpt>
      <trkpt lat="44.74596" lon="5.43345">
        <ele>672.8</ele>
        <time>2021-09-03T08:58:39Z</time>
      </trkpt>
      <trkpt lat="44.74596" lon="5.43345">
        <ele>672.8</ele>
        <time>2021-09-03T08:58:41Z</time>
      </trkpt>
      <trkpt lat="44.74596" lon="5.43345">
        <ele>672.8</ele>
        <time>2021-09-03T08:58:42Z</time>
      </trkpt>
      <trkpt lat="44.74599" lon="5.43341">
        <ele>672.8</ele>
        <time>2021-09-03T08:58:44Z</time>
      </trkpt>
      <trkpt lat="44.746" lon="5.43335">
        <ele>672.8</ele>
        <time>2021-09-03T08:58:46Z</time>
      </trkpt>
      <trkpt lat="44.746" lon="5.43332">
        <ele>672.8</ele>
        <time>2021-09-03T08:58:47Z</time>
      </trkpt>
      <trkpt lat="44.74598" lon="5.43328">
        <ele>672.8</ele>
        <time>2021-09-03T08:58:49Z</time>
      </trkpt>
      <trkpt lat="44.74597" lon="5.43326">
        <ele>672.8</ele>
        <time>2021-09-03T08:58:50Z</time>
      </trkpt>
      <trkpt lat="44.74597" lon="5.43327">
        <ele>672.8</ele>
        <time>2021-09-03T08:58:52Z</time>
      </trkpt>
      <trkpt lat="44.74596" lon="5.43327">
        <ele>672.8</ele>
        <time>2021-09-03T08:58:53Z</time>
      </trkpt>
      <trkpt lat="44.74595" lon="5.43327">
        <ele>672.8</ele>
        <time>2021-09-03T08:58:54Z</time>
      </trkpt>
      <trkpt lat="44.74595" lon="5.43327">
        <ele>672.8</ele>
        <time>2021-09-03T08:58:56Z</time>
      </trkpt>
      <trkpt lat="44.74594" lon="5.43327">
        <ele>672.8</ele>
        <time>2021-09-03T08:58:57Z</time>
      </trkpt>
      <trkpt lat="44.74593" lon="5.43327">
        <ele>672.8</ele>
        <time>2021-09-03T08:58:59Z</time>
      </trkpt>
      <trkpt lat="44.74593" lon="5.43327">
        <ele>672.8</ele>
        <time>2021-09-03T08:59:00Z</time>
      </trkpt>
      <trkpt lat="44.74587" lon="5.43332">
        <ele>672.8</ele>
        <time>2021-09-03T08:59:02Z</time>
      </trkpt>
      <trkpt lat="44.74584" lon="5.43333">
        <ele>672.8</ele>
        <time>2021-09-03T08:59:04Z</time>
      </trkpt>
      <trkpt lat="44.74582" lon="5.43334">
        <ele>672.8</ele>
        <time>2021-09-03T08:59:06Z</time>
      </trkpt>
      <trkpt lat="44.7458" lon="5.43335">
        <ele>672.8</ele>
        <time>2021-09-03T08:59:08Z</time>
      </trkpt>
      <trkpt lat="44.7458" lon="5.43335">
        <ele>672.8</ele>
        <time>2021-09-03T08:59:10Z</time>
      </trkpt>
      <trkpt lat="44.74581" lon="5.43336">
        <ele>672.8</ele>
        <time>2021-09-03T08:59:11Z</time>
      </trkpt>
      <trkpt lat="44.74581" lon="5.43336">
        <ele>672.8</ele>
        <time>2021-09-03T08:59:12Z</time>
      </trkpt>
      <trkpt lat="44.74581" lon="5.43336">
        <ele>672.8</ele>
        <time>2021-09-03T08:59:14Z</time>
      </trkpt>
      <trkpt lat="44.74582" lon="5.43336">
        <ele>672.8</ele>
        <time>2021-09-03T08:59:16Z</time>
      </trkpt>
      <trkpt lat="44.74582" lon="5.43337">
        <ele>672.8</ele>
        <time>2021-09-03T08:59:18Z</time>
      </trkpt>
      <trkpt lat="44.74582" lon="5.43337">
        <ele>672.8</ele>
        <time>2021-09-03T08:59:20Z</time>
      </trkpt>
      <trkpt lat="44.74582" lon="5.43337">
        <ele>672.8</ele>
        <time>2021-09-03T08:59:21Z</time>
      </trkpt>
      <trkpt lat="44.74583" lon="5.43337">
        <ele>672.8</ele>
        <time>2021-09-03T08:59:23Z</time>
      </trkpt>
      <trkpt lat="44.74583" lon="5.43338">
        <ele>672.8</ele>
        <time>2021-09-03T08:59:24Z</time>
      </trkpt>
      <trkpt lat="44.74583" lon="5.43338">
        <ele>672.8</ele>
        <time>2021-09-03T08:59:25Z</time>
      </trkpt>
      <trkpt lat="44.74589" lon="5.43341">
        <ele>672.8</ele>
        <time>2021-09-03T08:59:27Z</time>
      </trkpt>
      <trkpt lat="44.74592" lon="5.43342">
        <ele>672.8</ele>
        <time>2021-09-03T08:59:28Z</time>
      </trkpt>
      <trkpt lat="44.74597" lon="5.43342">
        <ele>672.8</ele>
        <time>2021-09-03T08:59:30Z</time>
      </trkpt>
      <trkpt lat="44.746" lon="5.43343">
        <ele>672.8</ele>
        <time>2021-09-03T08:59:32Z</time>
      </trkpt>
      <trkpt lat="44.74601" lon="5.43343">
        <ele>672.8</ele>
        <time>2021-09-03T08:59:33Z</time>
      </trkpt>
      <trkpt lat="44.74603" lon="5.43344">
        <ele>672.8</ele>
        <time>2021-09-03T08:59:35Z</time>
      </trkpt>
      <trkpt lat="44.74605" lon="5.43345">
        <ele>672.8</ele>
        <time>2021-09-03T08:59:36Z</time>
      </trkpt>
      <trkpt lat="44.74605" lon="5.43345">
        <ele>672.8</ele>
        <time>2021-09-03T08:59:37Z</time>
      </trkpt>
      <trkpt lat="44.74607" lon="5.43346">
        <ele>672.8</ele>
        <time>2021-09-03T08:59:39Z</time>
      </trkpt>
      <trkpt lat="44.74607" lon="5.43347">
        <ele>672.8</ele>
        <time>2021-09-03T08:59:41Z</time>
      </trkpt>
      <trkpt lat="44.74607" lon="5.43346">
        <ele>672.8</ele>
        <time>2021-09-03T08:59:42Z</time>
      </trkpt>
      <trkpt lat="44.74607" lon="5.43346">
        <ele>672.8</ele>
        <time>2021-09-03T08:59:43Z</time>
      </trkpt>
      <trkpt lat="44.74607" lon="5.43346">
        <ele>672.8</ele>
        <time>2021-09-03T08:59:45Z</time>
      </trkpt>
      <trkpt lat="44.74607" lon="5.43346">
        <ele>672.8</ele>
        <time>2021-09-03T08:59:47Z</time>
      </trkpt>
      <trkpt lat="44.74607" lon="5.43345">
        <ele>672.8</ele>
        <time>2021-09-03T08:59:48Z</time>
      </trkpt>
      <trkpt lat="44.74607" lon="5.43345">
        <ele>672.8</ele>
        <time>2021-09-03T08:59:50Z</time>
      </trkpt>
      <trkpt lat="44.74607" lon="5.43345">
        <ele>672.8</ele>
        <time>2021-09-03T08:59:51Z</time>
      </trkpt>
      <trkpt lat="44.74607" lon="5.43345">
        <ele>672.8</ele>
        <time>2021-09-03T08:59:52Z</time>
      </trkpt>
      <trkpt lat="44.74607" lon="5.43344">
        <ele>672.8</ele>
        <time>2021-09-03T08:59:54Z</time>
      </trkpt>
      <trkpt lat="44.74607" lon="5.43344">
        <ele>672.8</ele>
        <time>2021-09-03T08:59:56Z</time>
      </trkpt>
      <trkpt lat="44.74607" lon="5.43344">
        <ele>672.8</ele>
        <time>2021-09-03T08:59:57Z</time>
      </trkpt>
      <trkpt lat="44.74607" lon="5.43344">
        <ele>672.8</ele>
        <time>2021-09-03T08:59:59Z</time>
      </trkpt>
      <trkpt lat="44.74607" lon="5.43343">
        <ele>672.8</ele>
        <time>2021-09-03T09:00:01Z</time>
      </trkpt>
      <trkpt lat="44.74607" lon="5.43343">
        <ele>672.8</ele>
        <time>2021-09-03T09:00:03Z</time>
      </trkpt>
      <trkpt lat="44.74607" lon="5.43343">
        <ele>672.8</ele>
        <time>2021-09-03T09:00:04Z</time>
      </trkpt>
      <trkpt lat="44.74607" lon="5.43343">
        <ele>672.8</ele>
        <time>2021-09-03T09:00:05Z</time>
      </trkpt>
      <trkpt lat="44.74607" lon="5.43342">
        <ele>672.8</ele>
        <time>2021-09-03T09:00:06Z</time>
      </trkpt>
      <trkpt lat="44.74607" lon="5.43342">
        <ele>672.8</ele>
        <time>2021-09-03T09:00:08Z</time>
      </trkpt>
      <trkpt lat="44.74607" lon="5.43342">
        <ele>672.8</ele>
        <time>2021-09-03T09:00:10Z</time>
      </trkpt>
      <trkpt lat="44.74607" lon="5.43342">
        <ele>672.8</ele>
        <time>2021-09-03T09:00:11Z</time>
      </trkpt>
      <trkpt lat="44.74607" lon="5.43342">
        <ele>672.8</ele>
        <time>2021-09-03T09:00:12Z</time>
      </trkpt>
      <trkpt lat="44.74607" lon="5.43341">
        <ele>672.8</ele>
        <time>2021-09-03T09:00:14Z</time>
      </trkpt>
      <trkpt lat="44.74607" lon="5.43341">
        <ele>672.8</ele>
        <time>2021-09-03T09:00:16Z</time>
      </trkpt>
      <trkpt lat="44.74607" lon="5.43341">
        <ele>672.8</ele>
        <time>2021-09-03T09:00:18Z</time>
      </trkpt>
      <trkpt lat="44.74607" lon="5.43341">
        <ele>672.8</ele>
        <time>2021-09-03T09:00:20Z</time>
      </trkpt>
      <trkpt lat="44.74607" lon="5.4334">
        <ele>672.8</ele>
        <time>2021-09-03T09:00:22Z</time>
      </trkpt>
      <trkpt lat="44.74607" lon="5.4334">
        <ele>672.8</ele>
        <time>2021-09-03T09:00:24Z</time>
      </trkpt>
      <trkpt lat="44.74607" lon="5.4334">
        <ele>672.8</ele>
        <time>2021-09-03T09:00:25Z</time>
      </trkpt>
      <trkpt lat="44.74607" lon="5.4334">
        <ele>672.8</ele>
        <time>2021-09-03T09:00:27Z</time>
      </trkpt>
      <trkpt lat="44.74607" lon="5.43339">
        <ele>672.8</ele>
        <time>2021-09-03T09:00:28Z</time>
      </trkpt>
      <trkpt lat="44.74607" lon="5.43339">
        <ele>672.8</ele>
        <time>2021-09-03T09:00:30Z</time>
      </trkpt>
      <trkpt lat="44.74608" lon="5.43339">
        <ele>672.8</ele>
        <time>2021-09-03T09:00:31Z</time>
      </trkpt>
      <trkpt lat="44.74608" lon="5.43339">
        <ele>672.8</ele>
        <time>2021-09-03T09:00:32Z</time>
      </trkpt>
      <trkpt lat="44.74608" lon="5.43338">
        <ele>672.8</ele>
        <time>2021-09-03T09:00:34Z</time>
      </trkpt>
      <trkpt lat="44.74608" lon="5.43338">
        <ele>672.8</ele>
        <time>2021-09-03T09:00:35Z</time>
      </trkpt>
      <trkpt lat="44.74608" lon="5.43338">
        <ele>672.8</ele>
        <time>2021-09-03T09:00:36Z</time>
      </trkpt>
      <trkpt lat="44.74608" lon="5.43338">
        <ele>672.8</ele>
        <time>2021-09-03T09:00:38Z</time>
      </trkpt>
      <trkpt lat="44.74608" lon="5.43337">
        <ele>672.8</ele>
        <time>2021-09-03T09:00:40Z</time>
      </trkpt>
      <trkpt lat="44.74608" lon="5.43337">
        <ele>672.8</ele>
        <time>2021-09-03T09:00:41Z</time>
      </trkpt>
      <trkpt lat="44.74608" lon="5.43337">
        <ele>672.8</ele>
        <time>2021-09-03T09:00:42Z</time>
      </trkpt>
      <trkpt lat="44.74608" lon="5.43337">
        <ele>672.8</ele>
        <time>2021-09-03T09:00:44Z</time>
      </trkpt>
      <trkpt lat="44.74608" lon="5.43336">
        <ele>672.8</ele>
        <time>2021-09-03T09:00:46Z</time>
      </trkpt>
      <trkpt lat="44.74608" lon="5.43336">
        <ele>672.8</ele>
        <time>2021-09-03T09:00:47Z</time>
      </trkpt>
      <trkpt lat="44.74608" lon="5.43336">
        <ele>672.8</ele>
        <time>2021-09-03T09:00:48Z</time>
      </trkpt>
      <trkpt lat="44.7461" lon="5.43333">
        <ele>672.8</ele>
        <time>2021-09-03T09:00:50Z</time>
      </trkpt>
      <trkpt lat="44.74611" lon="5.43332">
        <ele>672.8</ele>
        <time>2021-09-03T09:00:52Z</time>
      </trkpt>
      <trkpt lat="44.74611" lon="5.43332">
        <ele>672.8</ele>
        <time>2021-09-03T09:00:53Z</time>
      </trkpt>
      <trkpt lat="44.74611" lon="5.43332">
        <ele>672.8</ele>
        <time>2021-09-03T09:00:55Z</time>
      </trkpt>
      <trkpt lat="44.74611" lon="5.43332">
        <ele>672.8</ele>
        <time>2021-09-03T09:00:57Z</time>
      </trkpt>
      <trkpt lat="44.74611" lon="5.43332">
        <ele>672.8</ele>
        <time>2021-09-03T09:00:59Z</time>
      </trkpt>
      <trkpt lat="44.74611" lon="5.43332">
        <ele>672.8</ele>
        <time>2021-09-03T09:01:01Z</time>
      </trkpt>
      <trkpt lat="44.74611" lon="5.43332">
        <ele>672.8</ele>
        <time>2021-09-03T09:01:03Z</time>
      </trkpt>
      <trkpt lat="44.74611" lon="5.43332">
        <ele>672.8</ele>
        <time>2021-09-03T09:01:05Z</time>
      </trkpt>
      <trkpt lat="44.74611" lon="5.43332">
        <ele>672.8</ele>
        <time>2021-09-03T09:01:06Z</time>
      </trkpt>
      <trkpt lat="44.74611" lon="5.43332">
        <ele>672.8</ele>
        <time>2021-09-03T09:01:07Z</time>
      </trkpt>
      <trkpt lat="44.74611" lon="5.43332">
        <ele>672.8</ele>
        <time>2021-09-03T09:01:08Z</time>
      </trkpt>
      <trkpt lat="44.74611" lon="5.43332">
        <ele>672.8</ele>
        <time>2021-09-03T09:01:10Z</time>
      </trkpt>
      <trkpt lat="44.74611" lon="5.43332">
        <ele>672.8</ele>
        <time>2021-09-03T09:01:11Z</time>
      </trkpt>
      <trkpt lat="44.74611" lon="5.43332">
        <ele>672.8</ele>
        <time>2021-09-03T09:01:12Z</time>
      </trkpt>
      <trkpt lat="44.74611" lon="5.43332">
        <ele>672.8</ele>
        <time>2021-09-03T09:01:14Z</time>
      </trkpt>
      <trkpt lat="44.74611" lon="5.43332">
        <ele>672.8</ele>
        <time>2021-09-03T09:01:16Z</time>
      </trkpt>
      <trkpt lat="44.74611" lon="5.43332">
        <ele>672.8</ele>
        <time>2021-09-03T09:01:17Z</time>
      </trkpt>
      <trkpt lat="44.74611" lon="5.43332">
        <ele>672.8</ele>
        <time>2021-09-03T09:01:18Z</time>
      </trkpt>
      <trkpt lat="44.74611" lon="5.43332">
        <ele>672.8</ele>
        <time>2021-09-03T09:01:20Z</time>
      </trkpt>
      <trkpt lat="44.74611" lon="5.43332">
        <ele>672.8</ele>
        <time>2021-09-03T09:01:22Z</time>
      </trkpt>
      <trkpt lat="44.74611" lon="5.43332">
        <ele>672.8</ele>
        <time>2021-09-03T09:01:23Z</time>
      </trkpt>
      <trkpt lat="44.74607" lon="5.43333">
        <ele>672.8</ele>
        <time>2021-09-03T09:01:25Z</time>
      </trkpt>
      <trkpt lat="44.74604" lon="5.43335">
        <ele>672.8</ele>
        <time>2021-09-03T09:01:27Z</time>
      </trkpt>
      <trkpt lat="44.74602" lon="5.43336">
        <ele>672.8</ele>
        <time>2021-09-03T09:01:29Z</time>
      </trkpt>
      <trkpt lat="44.74602" lon="5.43336">
        <ele>672.8</ele>
        <time>2021-09-03T09:01:30Z</time>
      </trkpt>
      <trkpt lat="44.74601" lon="5.43336">
        <ele>672.8</ele>
        <time>2021-09-03T09:01:31Z</time>
      </trkpt>
      <trkpt lat="44.74601" lon="5.43336">
        <ele>672.8</ele>
        <time>2021-09-03T09:01:32Z</time>
      </trkpt>
      <trkpt lat="44.74601" lon="5.43336">
        <ele>672.8</ele>
        <time>2021-09-03T09:01:34Z</time>
      </trkpt>
      <trkpt lat="44.74601" lon="5.43336">
        <ele>672.8</ele>
        <time>2021-09-03T09:01:36Z</time>
      </trkpt>
      <trkpt lat="44.74601" lon="5.43336">
        <ele>672.8</ele>
        <time>2021-09-03T09:01:37Z</time>
      </trkpt>
      <trkpt lat="44.74601" lon="5.43336">
        <ele>672.8</ele>
        <time>2021-09-03T09:01:38Z</time>
      </trkpt>
      <trkpt lat="44.74601" lon="5.43336">
        <ele>672.8</ele>
        <time>2021-09-03T09:01:40Z</time>
      </trkpt>
      <trkpt lat="44.74601" lon="5.43336">
        <ele>672.8</ele>
        <time>2021-09-03T09:01:42Z</time>
      </trkpt>
      <trkpt lat="44.74595" lon="5.43335">
        <ele>672.8</ele>
        <time>2021-09-03T09:01:44Z</time>
      </trkpt>
      <trkpt lat="44.74595" lon="5.43332">
        <ele>672.8</ele>
        <time>2021-09-03T09:01:46Z</time>
      </trkpt>
      <trkpt lat="44.74596" lon="5.43331">
        <ele>672.8</ele>
        <time>2021-09-03T09:01:48Z</time>
      </trkpt>
      <trkpt lat="44.746" lon="5.43328">
        <ele>672.8</ele>
        <time>2021-09-03T09:01:50Z</time>
      </trkpt>
      <trkpt lat="44.74604" lon="5.43326">
        <ele>672.8</ele>
        <time>2021-09-03T09:01:52Z</time>
      </trkpt>
      <trkpt lat="44.74604" lon="5.43327">
        <ele>672.8</ele>
        <time>2021-09-03T09:01:54Z</time>
      </trkpt>
      <trkpt lat="44.74605" lon="5.43327">
        <ele>672.8</ele>
        <time>2021-09-03T09:01:56Z</time>
      </trkpt>
      <trkpt lat="44.74605" lon="5.43327">
        <ele>672.8</ele>
        <time>2021-09-03T09:01:57Z</time>
      </trkpt>
      <trkpt lat="44.74605" lon="5.43327">
        <ele>672.8</ele>
        <time>2021-09-03T09:01:58Z</time>
      </trkpt>
      <trkpt lat="44.74605" lon="5.43327">
        <ele>672.8</ele>
        <time>2021-09-03T09:02:00Z</time>
      </trkpt>
      <trkpt lat="44.74606" lon="5.43327">
        <ele>672.8</ele>
        <time>2021-09-03T09:02:02Z</time>
      </trkpt>
      <trkpt lat="44.74606" lon="5.43327">
        <ele>672.8</ele>
        <time>2021-09-03T09:02:04Z</time>
      </trkpt>
      <trkpt lat="44.74606" lon="5.43327">
        <ele>672.8</ele>
        <time>2021-09-03T09:02:06Z</time>
      </trkpt>
      <trkpt lat="44.74607" lon="5.43327">
        <ele>672.8</ele>
        <time>2021-09-03T09:02:08Z</time>
      </trkpt>
      <trkpt lat="44.74607" lon="5.43327">
        <ele>672.8</ele>
        <time>2021-09-03T09:02:10Z</time>
      </trkpt>
      <trkpt lat="44.74607" lon="5.43327">
        <ele>672.8</ele>
        <time>2021-09-03T09:02:12Z</time>
      </trkpt>
      <trkpt lat="44.74608" lon="5.43327">
        <ele>672.8</ele>
        <time>2021-09-03T09:02:13Z</time>
      </trkpt>
      <trkpt lat="44.74608" lon="5.43327">
        <ele>672.8</ele>
        <time>2021-09-03T09:02:14Z</time>
      </trkpt>
      <trkpt lat="44.74608" lon="5.43327">
        <ele>672.8</ele>
        <time>2021-09-03T09:02:16Z</time>
      </trkpt>
      <trkpt lat="44.74609" lon="5.43327">
        <ele>672.8</ele>
        <time>2021-09-03T09:02:17Z</time>
      </trkpt>
      <trkpt lat="44.74613" lon="5.43327">
        <ele>672.8</ele>
        <time>2021-09-03T09:02:19Z</time>
      </trkpt>
      <trkpt lat="44.74613" lon="5.43327">
        <ele>672.8</ele>
        <time>2021-09-03T09:02:20Z</time>
      </trkpt>
      <trkpt lat="44.74613" lon="5.43327">
        <ele>672.8</ele>
        <time>2021-09-03T09:02:22Z</time>
      </trkpt>
      <trkpt lat="44.74614" lon="5.43327">
        <ele>672.8</ele>
        <time>2021-09-03T09:02:24Z</time>
      </trkpt>
      <trkpt lat="44.74614" lon="5.43327">
        <ele>672.8</ele>
        <time>2021-09-03T09:02:25Z</time>
      </trkpt>
      <trkpt lat="44.74614" lon="5.43327">
        <ele>672.8</ele>
        <time>2021-09-03T09:02:26Z</time>
      </trkpt>
      <trkpt lat="44.74614" lon="5.43327">
        <ele>672.8</ele>
        <time>2021-09-03T09:02:28Z</time>
      </trkpt>
      <trkpt lat="44.74614" lon="5.43327">
        <ele>672.8</ele>
        <time>2021-09-03T09:02:30Z</time>
      </trkpt>
      <trkpt lat="44.74614" lon="5.43327">
        <ele>672.8</ele>
        <time>2021-09-03T09:02:31Z</time>
      </trkpt>
      <trkpt lat="44.74614" lon="5.43327">
        <ele>672.8</ele>
        <time>2021-09-03T09:02:32Z</time>
      </trkpt>
      <trkpt lat="44.74614" lon="5.43327">
        <ele>672.8</ele>
        <time>2021-09-03T09:02:34Z</time>
      </trkpt>
      <trkpt lat="44.74614" lon="5.43327">
        <ele>672.8</ele>
        <time>2021-09-03T09:02:35Z</time>
      </trkpt>
      <trkpt lat="44.74614" lon="5.43327">
        <ele>672.8</ele>
        <time>2021-09-03T09:02:37Z</time>
      </trkpt>
      <trkpt lat="44.74614" lon="5.43327">
        <ele>672.8</ele>
        <time>2021-09-03T09:02:38Z</time>
      </trkpt>
      <trkpt lat="44.74614" lon="5.43327">
        <ele>672.8</ele>
        <time>2021-09-03T09:02:39Z</time>
      </trkpt>
      <trkpt lat="44.74614" lon="5.43327">
        <ele>672.8</ele>
        <time>2021-09-03T09:02:41Z</time>
      </trkpt>
      <trkpt lat="44.74614" lon="5.43327">
        <ele>672.8</ele>
        <time>2021-09-03T09:02:43Z</time>
      </trkpt>
      <trkpt lat="44.74614" lon="5.43327">
        <ele>672.8</ele>
        <time>2021-09-03T09:02:44Z</time>
      </trkpt>
      <trkpt lat="44.74614" lon="5.43327">
        <ele>672.8</ele>
        <time>2021-09-03T09:02:46Z</time>
      </trkpt>
      <trkpt lat="44.74614" lon="5.43327">
        <ele>672.8</ele>
        <time>2021-09-03T09:02:48Z</time>
      </trkpt>
      <trkpt lat="44.74614" lon="5.43327">
        <ele>672.8</ele>
        <time>2021-09-03T09:02:50Z</time>
      </trkpt>
      <trkpt lat="44.74614" lon="5.43327">
        <ele>672.8</ele>
        <time>2021-09-03T09:02:52Z</time>
      </trkpt>
      <trkpt lat="44.74614" lon="5.43327">
        <ele>672.8</ele>
        <time>2021-09-03T09:02:53Z</time>
      </trkpt>
      <trkpt lat="44.74614" lon="5.43327">
        <ele>672.8</ele>
        <time>2021-09-03T09:02:54Z</time>
      </trkpt>
      <trkpt lat="44.74614" lon="5.43327">
        <ele>672.8</ele>
        <time>2021-09-03T09:02:56Z</time>
      </trkpt>
      <trkpt lat="44.74614" lon="5.43327">
        <ele>672.8</ele>
        <time>2021-09-03T09:02:58Z</time>
      </trkpt>
      <trkpt lat="44.74614" lon="5.43327">
        <ele>672.8</ele>
        <time>2021-09-03T09:02:59Z</time>
      </trkpt>
      <trkpt lat="44.74614" lon="5.43327">
        <ele>672.8</ele>
        <time>2021-09-03T09:03:01Z</time>
      </trkpt>
      <trkpt lat="44.74614" lon="5.43327">
        <ele>672.8</ele>
        <time>2021-09-03T09:03:02Z</time>
      </trkpt>
      <trkpt lat="44.74614" lon="5.43327">
        <ele>672.8</ele>
        <time>2021-09-03T09:03:04Z</time>
      </trkpt>
      <trkpt lat="44.74614" lon="5.43327">
        <ele>672.8</ele>
        <time>2021-09-03T09:03:05Z</time>
      </trkpt>
      <trkpt lat="44.74614" lon="5.43327">
        <ele>672.8</ele>
        <time>2021-09-03T09:03:06Z</time>
      </trkpt>
      <trkpt lat="44.74614" lon="5.43327">
        <ele>672.8</ele>
        <time>2021-09-03T09:03:08Z</time>
      </trkpt>
      <trkpt lat="44.74614" lon="5.43327">
        <ele>672.8</ele>
        <time>2021-09-03T09:03:10Z</time>
      </trkpt>
      <trkpt lat="44.74614" lon="5.43327">
        <ele>672.8</ele>
        <time>2021-09-03T09:03:11Z</time>
      </trkpt>
      <trkpt lat="44.74614" lon="5.43327">
        <ele>672.8</ele>
        <time>2021-09-03T09:03:12Z</time>
      </trkpt>
      <trkpt lat="44.74614" lon="5.43327">
        <ele>672.8</ele>
        <time>2021-09-03T09:03:14Z</time>
      </trkpt>
      <trkpt lat="44.74614" lon="5.43327">
        <ele>672.8</ele>
        <time>2021-09-03T09:03:16Z</time>
      </trkpt>
      <trkpt lat="44.74614" lon="5.43327">
        <ele>672.8</ele>
        <time>2021-09-03T09:03:17Z</time>
      </trkpt>
      <trkpt lat="44.74614" lon="5.43327">
        <ele>672.8</ele>
        <time>2021-09-03T09:03:18Z</time>
      </trkpt>
      <trkpt lat="44.74614" lon="5.43327">
        <ele>672.8</ele>
        <time>2021-09-03T09:03:20Z</time>
      </trkpt>
      <trkpt lat="44.74614" lon="5.43327">
        <ele>672.8</ele>
        <time>2021-09-03T09:03:21Z</time>
      </trkpt>
      <trkpt lat="44.74609" lon="5.43326">
        <ele>672.8</ele>
        <time>2021-09-03T09:03:22Z</time>
      </trkpt>
      <trkpt lat="44.74606" lon="5.43325">
        <ele>672.8</ele>
        <time>2021-09-03T09:03:23Z</time>
      </trkpt>
      <trkpt lat="44.74605" lon="5.43325">
        <ele>672.8</ele>
        <time>2021-09-03T09:03:24Z</time>
      </trkpt>
      <trkpt lat="44.74604" lon="5.43325">
        <ele>672.8</ele>
        <time>2021-09-03T09:03:25Z</time>
      </trkpt>
      <trkpt lat="44.74603" lon="5.43326">
        <ele>672.8</ele>
        <time>2021-09-03T09:03:27Z</time>
      </trkpt>
      <trkpt lat="44.74603" lon="5.43326">
        <ele>672.8</ele>
        <time>2021-09-03T09:03:28Z</time>
      </trkpt>
      <trkpt lat="44.74603" lon="5.43326">
        <ele>672.8</ele>
        <time>2021-09-03T09:03:30Z</time>
      </trkpt>
      <trkpt lat="44.74603" lon="5.43326">
        <ele>672.8</ele>
        <time>2021-09-03T09:03:31Z</time>
      </trkpt>
      <trkpt lat="44.74603" lon="5.43326">
        <ele>672.8</ele>
        <time>2021-09-03T09:03:33Z</time>
      </trkpt>
      <trkpt lat="44.74606" lon="5.43325">
        <ele>672.8</ele>
        <time>2021-09-03T09:03:35Z</time>
      </trkpt>
      <trkpt lat="44.74608" lon="5.43324">
        <ele>672.8</ele>
        <time>2021-09-03T09:03:37Z</time>
      </trkpt>
      <trkpt lat="44.74608" lon="5.43324">
        <ele>672.8</ele>
        <time>2021-09-03T09:03:39Z</time>
      </trkpt>
      <trkpt lat="44.74609" lon="5.43324">
        <ele>672.8</ele>
        <time>2021-09-03T09:03:41Z</time>
      </trkpt>
      <trkpt lat="44.74609" lon="5.43324">
        <ele>672.8</ele>
        <time>2021-09-03T09:03:42Z</time>
      </trkpt>
      <trkpt lat="44.74609" lon="5.43324">
        <ele>672.8</ele>
        <time>2021-09-03T09:03:44Z</time>
      </trkpt>
      <trkpt lat="44.74609" lon="5.43324">
        <ele>672.8</ele>
        <time>2021-09-03T09:03:45Z</time>
      </trkpt>
      <trkpt lat="44.74609" lon="5.43324">
        <ele>672.8</ele>
        <time>2021-09-03T09:03:46Z</time>
      </trkpt>
      <trkpt lat="44.74609" lon="5.43324">
        <ele>672.8</ele>
        <time>2021-09-03T09:03:48Z</time>
      </trkpt>
      <trkpt lat="44.74609" lon="5.43324">
        <ele>672.8</ele>
        <time>2021-09-03T09:03:49Z</time>
      </trkpt>
      <trkpt lat="44.74609" lon="5.43324">
        <ele>672.8</ele>
        <time>2021-09-03T09:03:51Z</time>
      </trkpt>
      <trkpt lat="44.74609" lon="5.43324">
        <ele>672.8</ele>
        <time>2021-09-03T09:03:52Z</time>
      </trkpt>
      <trkpt lat="44.7461" lon="5.43324">
        <ele>672.8</ele>
        <time>2021-09-03T09:03:53Z</time>
      </trkpt>
      <trkpt lat="44.7461" lon="5.43324">
        <ele>672.8</ele>
        <time>2021-09-03T09:03:55Z</time>
      </trkpt>
      <trkpt lat="44.7461" lon="5.43324">
        <ele>672.8</ele>
        <time>2021-09-03T09:03:57Z</time>
      </trkpt>
      <trkpt lat="44.7461" lon="5.43324">
        <ele>672.8</ele>
        <time>2021-09-03T09:03:58Z</time>
      </trkpt>
      <trkpt lat="44.7461" lon="5.43324">
        <ele>672.8</ele>
        <time>2021-09-03T09:04:00Z</time>
      </trkpt>
      <trkpt lat="44.7461" lon="5.43324">
        <ele>672.8</ele>
        <time>2021-09-03T09:04:02Z</time>
      </trkpt>
      <trkpt lat="44.7461" lon="5.43324">
        <ele>672.8</ele>
        <time>2021-09-03T09:04:04Z</time>
      </trkpt>
      <trkpt lat="44.7461" lon="5.43323">
        <ele>672.8</ele>
        <time>2021-09-03T09:04:05Z</time>
      </trkpt>
      <trkpt lat="44.7461" lon="5.43323">
        <ele>672.8</ele>
        <time>2021-09-03T09:04:07Z</time>
      </trkpt>
      <trkpt lat="44.7461" lon="5.43323">
        <ele>672.8</ele>
        <time>2021-09-03T09:04:08Z</time>
      </trkpt>
      <trkpt lat="44.74611" lon="5.43323">
        <ele>672.8</ele>
        <time>2021-09-03T09:04:10Z</time>
      </trkpt>
      <trkpt lat="44.74611" lon="5.43323">
        <ele>672.8</ele>
        <time>2021-09-03T09:04:11Z</time>
      </trkpt>
      <trkpt lat="44.74611" lon="5.43323">
        <ele>672.8</ele>
        <time>2021-09-03T09:04:13Z</time>
      </trkpt>
      <trkpt lat="44.74611" lon="5.43323">
        <ele>672.8</ele>
        <time>2021-09-03T09:04:14Z</time>
      </trkpt>
      <trkpt lat="44.74611" lon="5.43323">
        <ele>672.8</ele>
        <time>2021-09-03T09:04:16Z</time>
      </trkpt>
      <trkpt lat="44.74611" lon="5.43323">
        <ele>672.8</ele>
        <time>2021-09-03T09:04:18Z</time>
      </trkpt>
      <trkpt lat="44.74611" lon="5.43323">
        <ele>672.8</ele>
        <time>2021-09-03T09:04:20Z</time>
      </trkpt>
      <trkpt lat="44.74611" lon="5.43323">
        <ele>672.8</ele>
        <time>2021-09-03T09:04:22Z</time>
      </trkpt>
      <trkpt lat="44.74611" lon="5.43323">
        <ele>672.8</ele>
        <time>2021-09-03T09:04:24Z</time>
      </trkpt>
      <trkpt lat="44.74612" lon="5.43323">
        <ele>672.8</ele>
        <time>2021-09-03T09:04:25Z</time>
      </trkpt>
      <trkpt lat="44.74612" lon="5.43323">
        <ele>672.8</ele>
        <time>2021-09-03T09:04:26Z</time>
      </trkpt>
      <trkpt lat="44.74612" lon="5.43323">
        <ele>672.8</ele>
        <time>2021-09-03T09:04:28Z</time>
      </trkpt>
      <trkpt lat="44.74612" lon="5.43323">
        <ele>672.8</ele>
        <time>2021-09-03T09:04:29Z</time>
      </trkpt>
      <trkpt lat="44.74612" lon="5.43323">
        <ele>672.8</ele>
        <time>2021-09-03T09:04:30Z</time>
      </trkpt>
      <trkpt lat="44.74615" lon="5.43324">
        <ele>672.8</ele>
        <time>2021-09-03T09:04:31Z</time>
      </trkpt>
      <trkpt lat="44.74617" lon="5.43326">
        <ele>672.8</ele>
        <time>2021-09-03T09:04:32Z</time>
      </trkpt>
      <trkpt lat="44.74617" lon="5.43326">
        <ele>672.8</ele>
        <time>2021-09-03T09:04:34Z</time>
      </trkpt>
      <trkpt lat="44.74617" lon="5.43326">
        <ele>672.8</ele>
        <time>2021-09-03T09:04:35Z</time>
      </trkpt>
      <trkpt lat="44.74618" lon="5.43326">
        <ele>672.7</ele>
        <time>2021-09-03T09:04:37Z</time>
      </trkpt>
      <trkpt lat="44.74618" lon="5.43327">
        <ele>672.7</ele>
        <time>2021-09-03T09:04:38Z</time>
      </trkpt>
      <trkpt lat="44.74618" lon="5.43327">
        <ele>672.7</ele>
        <time>2021-09-03T09:04:40Z</time>
      </trkpt>
      <trkpt lat="44.74619" lon="5.43327">
        <ele>672.6</ele>
        <time>2021-09-03T09:04:41Z</time>
      </trkpt>
      <trkpt lat="44.74618" lon="5.43329">
        <ele>672.5</ele>
        <time>2021-09-03T09:04:42Z</time>
      </trkpt>
      <trkpt lat="44.74617" lon="5.43331">
        <ele>672.3</ele>
        <time>2021-09-03T09:04:44Z</time>
      </trkpt>
      <trkpt lat="44.74616" lon="5.43331">
        <ele>672.3</ele>
        <time>2021-09-03T09:04:46Z</time>
      </trkpt>
      <trkpt lat="44.74616" lon="5.43332">
        <ele>672.2</ele>
        <time>2021-09-03T09:04:47Z</time>
      </trkpt>
      <trkpt lat="44.74616" lon="5.43332">
        <ele>672.2</ele>
        <time>2021-09-03T09:04:48Z</time>
      </trkpt>
      <trkpt lat="44.74616" lon="5.43332">
        <ele>672.2</ele>
        <time>2021-09-03T09:04:49Z</time>
      </trkpt>
      <trkpt lat="44.74616" lon="5.43332">
        <ele>672.2</ele>
        <time>2021-09-03T09:04:51Z</time>
      </trkpt>
      <trkpt lat="44.74616" lon="5.43332">
        <ele>672.2</ele>
        <time>2021-09-03T09:04:53Z</time>
      </trkpt>
      <trkpt lat="44.74616" lon="5.43332">
        <ele>672.2</ele>
        <time>2021-09-03T09:04:54Z</time>
      </trkpt>
      <trkpt lat="44.74612" lon="5.43334">
        <ele>671.8</ele>
        <time>2021-09-03T09:04:56Z</time>
      </trkpt>
      <trkpt lat="44.74605" lon="5.43338">
        <ele>671.1</ele>
        <time>2021-09-03T09:04:58Z</time>
      </trkpt>
      <trkpt lat="44.74601" lon="5.43339">
        <ele>670.7</ele>
        <time>2021-09-03T09:04:59Z</time>
      </trkpt>
      <trkpt lat="44.74599" lon="5.43335">
        <ele>670.2</ele>
        <time>2021-09-03T09:05:00Z</time>
      </trkpt>
      <trkpt lat="44.74599" lon="5.43331">
        <ele>669.9</ele>
        <time>2021-09-03T09:05:02Z</time>
      </trkpt>
      <trkpt lat="44.74598" lon="5.43328">
        <ele>669.6</ele>
        <time>2021-09-03T09:05:03Z</time>
      </trkpt>
      <trkpt lat="44.74597" lon="5.4332">
        <ele>669</ele>
        <time>2021-09-03T09:05:04Z</time>
      </trkpt>
      <trkpt lat="44.74599" lon="5.43319">
        <ele>668.9</ele>
        <time>2021-09-03T09:05:06Z</time>
      </trkpt>
      <trkpt lat="44.746" lon="5.4332">
        <ele>668.7</ele>
        <time>2021-09-03T09:05:07Z</time>
      </trkpt>
      <trkpt lat="44.746" lon="5.43321">
        <ele>668.6</ele>
        <time>2021-09-03T09:05:08Z</time>
      </trkpt>
      <trkpt lat="44.74601" lon="5.43321">
        <ele>668.6</ele>
        <time>2021-09-03T09:05:09Z</time>
      </trkpt>
      <trkpt lat="44.74603" lon="5.43322">
        <ele>668.4</ele>
        <time>2021-09-03T09:05:10Z</time>
      </trkpt>
      <trkpt lat="44.74604" lon="5.43322">
        <ele>668.2</ele>
        <time>2021-09-03T09:05:12Z</time>
      </trkpt>
      <trkpt lat="44.74605" lon="5.43322">
        <ele>668.1</ele>
        <time>2021-09-03T09:05:13Z</time>
      </trkpt>
      <trkpt lat="44.74607" lon="5.43323">
        <ele>667.9</ele>
        <time>2021-09-03T09:05:14Z</time>
      </trkpt>
      <trkpt lat="44.74608" lon="5.43323">
        <ele>667.8</ele>
        <time>2021-09-03T09:05:15Z</time>
      </trkpt>
      <trkpt lat="44.74609" lon="5.43324">
        <ele>667.7</ele>
        <time>2021-09-03T09:05:16Z</time>
      </trkpt>
      <trkpt lat="44.7461" lon="5.43324">
        <ele>667.6</ele>
        <time>2021-09-03T09:05:18Z</time>
      </trkpt>
      <trkpt lat="44.74611" lon="5.43323">
        <ele>667.5</ele>
        <time>2021-09-03T09:05:19Z</time>
      </trkpt>
      <trkpt lat="44.74612" lon="5.43323">
        <ele>667.4</ele>
        <time>2021-09-03T09:05:21Z</time>
      </trkpt>
      <trkpt lat="44.74613" lon="5.43323">
        <ele>667.2</ele>
        <time>2021-09-03T09:05:22Z</time>
      </trkpt>
      <trkpt lat="44.74613" lon="5.43322">
        <ele>667.2</ele>
        <time>2021-09-03T09:05:24Z</time>
      </trkpt>
      <trkpt lat="44.74614" lon="5.43322">
        <ele>667.1</ele>
        <time>2021-09-03T09:05:25Z</time>
      </trkpt>
      <trkpt lat="44.74614" lon="5.43321">
        <ele>667.1</ele>
        <time>2021-09-03T09:05:27Z</time>
      </trkpt>
      <trkpt lat="44.74614" lon="5.43321">
        <ele>667.1</ele>
        <time>2021-09-03T09:05:28Z</time>
      </trkpt>
      <trkpt lat="44.74614" lon="5.43321">
        <ele>667.1</ele>
        <time>2021-09-03T09:05:29Z</time>
      </trkpt>
      <trkpt lat="44.74614" lon="5.43321">
        <ele>667</ele>
        <time>2021-09-03T09:05:31Z</time>
      </trkpt>
      <trkpt lat="44.74614" lon="5.43321">
        <ele>667</ele>
        <time>2021-09-03T09:05:33Z</time>
      </trkpt>
      <trkpt lat="44.74614" lon="5.43321">
        <ele>667</ele>
        <time>2021-09-03T09:05:35Z</time>
      </trkpt>
      <trkpt lat="44.74614" lon="5.43321">
        <ele>667</ele>
        <time>2021-09-03T09:05:37Z</time>
      </trkpt>
      <trkpt lat="44.74614" lon="5.43321">
        <ele>667</ele>
        <time>2021-09-03T09:05:39Z</time>
      </trkpt>
      <trkpt lat="44.74614" lon="5.43321">
        <ele>667</ele>
        <time>2021-09-03T09:05:41Z</time>
      </trkpt>
      <trkpt lat="44.74614" lon="5.4332">
        <ele>667</ele>
        <time>2021-09-03T09:05:42Z</time>
      </trkpt>
      <trkpt lat="44.74614" lon="5.4332">
        <ele>667</ele>
        <time>2021-09-03T09:05:43Z</time>
      </trkpt>
      <trkpt lat="44.74614" lon="5.4332">
        <ele>667</ele>
        <time>2021-09-03T09:05:44Z</time>
      </trkpt>
      <trkpt lat="44.74614" lon="5.4332">
        <ele>667</ele>
        <time>2021-09-03T09:05:45Z</time>
      </trkpt>
      <trkpt lat="44.74615" lon="5.43321">
        <ele>666.9</ele>
        <time>2021-09-03T09:05:47Z</time>
      </trkpt>
      <trkpt lat="44.74615" lon="5.43321">
        <ele>666.9</ele>
        <time>2021-09-03T09:05:48Z</time>
      </trkpt>
      <trkpt lat="44.74615" lon="5.43322">
        <ele>666.9</ele>
        <time>2021-09-03T09:05:50Z</time>
      </trkpt>
      <trkpt lat="44.74615" lon="5.43322">
        <ele>666.9</ele>
        <time>2021-09-03T09:05:52Z</time>
      </trkpt>
      <trkpt lat="44.74615" lon="5.43322">
        <ele>666.9</ele>
        <time>2021-09-03T09:05:54Z</time>
      </trkpt>
      <trkpt lat="44.74615" lon="5.43322">
        <ele>666.9</ele>
        <time>2021-09-03T09:05:55Z</time>
      </trkpt>
      <trkpt lat="44.74615" lon="5.43321">
        <ele>666.8</ele>
        <time>2021-09-03T09:05:56Z</time>
      </trkpt>
      <trkpt lat="44.74615" lon="5.43321">
        <ele>666.8</ele>
        <time>2021-09-03T09:05:58Z</time>
      </trkpt>
      <trkpt lat="44.74615" lon="5.43321">
        <ele>666.8</ele>
        <time>2021-09-03T09:05:59Z</time>
      </trkpt>
      <trkpt lat="44.74614" lon="5.43321">
        <ele>666.8</ele>
        <time>2021-09-03T09:06:00Z</time>
      </trkpt>
      <trkpt lat="44.74614" lon="5.43321">
        <ele>666.8</ele>
        <time>2021-09-03T09:06:02Z</time>
      </trkpt>
      <trkpt lat="44.74614" lon="5.43321">
        <ele>666.8</ele>
        <time>2021-09-03T09:06:03Z</time>
      </trkpt>
      <trkpt lat="44.74614" lon="5.43321">
        <ele>666.8</ele>
        <time>2021-09-03T09:06:05Z</time>
      </trkpt>
      <trkpt lat="44.74614" lon="5.43321">
        <ele>666.8</ele>
        <time>2021-09-03T09:06:06Z</time>
      </trkpt>
      <trkpt lat="44.74614" lon="5.43321">
        <ele>666.8</ele>
        <time>2021-09-03T09:06:08Z</time>
      </trkpt>
      <trkpt lat="44.74614" lon="5.43321">
        <ele>666.8</ele>
        <time>2021-09-03T09:06:10Z</time>
      </trkpt>
      <trkpt lat="44.74614" lon="5.43321">
        <ele>666.8</ele>
        <time>2021-09-03T09:06:11Z</time>
      </trkpt>
      <trkpt lat="44.74614" lon="5.43321">
        <ele>666.8</ele>
        <time>2021-09-03T09:06:12Z</time>
      </trkpt>
      <trkpt lat="44.74614" lon="5.43321">
        <ele>666.8</ele>
        <time>2021-09-03T09:06:13Z</time>
      </trkpt>
      <trkpt lat="44.74614" lon="5.43321">
        <ele>666.7</ele>
        <time>2021-09-03T09:06:15Z</time>
      </trkpt>
      <trkpt lat="44.74614" lon="5.43321">
        <ele>666.7</ele>
        <time>2021-09-03T09:06:16Z</time>
      </trkpt>
      <trkpt lat="44.74614" lon="5.43321">
        <ele>666.7</ele>
        <time>2021-09-03T09:06:18Z</time>
      </trkpt>
      <trkpt lat="44.74614" lon="5.43321">
        <ele>666.7</ele>
        <time>2021-09-03T09:06:20Z</time>
      </trkpt>
      <trkpt lat="44.74614" lon="5.43321">
        <ele>666.7</ele>
        <time>2021-09-03T09:06:22Z</time>
      </trkpt>
      <trkpt lat="44.74614" lon="5.43321">
        <ele>666.7</ele>
        <time>2021-09-03T09:06:23Z</time>
      </trkpt>
      <trkpt lat="44.74614" lon="5.43321">
        <ele>666.7</ele>
        <time>2021-09-03T09:06:24Z</time>
      </trkpt>
      <trkpt lat="44.74614" lon="5.43321">
        <ele>666.7</ele>
        <time>2021-09-03T09:06:25Z</time>
      </trkpt>
      <trkpt lat="44.74614" lon="5.43321">
        <ele>666.7</ele>
        <time>2021-09-03T09:06:27Z</time>
      </trkpt>
      <trkpt lat="44.74615" lon="5.4332">
        <ele>666.6</ele>
        <time>2021-09-03T09:06:29Z</time>
      </trkpt>
      <trkpt lat="44.74615" lon="5.43319">
        <ele>666.5</ele>
        <time>2021-09-03T09:06:31Z</time>
      </trkpt>
      <trkpt lat="44.74615" lon="5.43318">
        <ele>666.5</ele>
        <time>2021-09-03T09:06:32Z</time>
      </trkpt>
      <trkpt lat="44.74616" lon="5.43317">
        <ele>666.4</ele>
        <time>2021-09-03T09:06:34Z</time>
      </trkpt>
      <trkpt lat="44.74618" lon="5.43316">
        <ele>666.2</ele>
        <time>2021-09-03T09:06:35Z</time>
      </trkpt>
      <trkpt lat="44.74619" lon="5.43316">
        <ele>666.1</ele>
        <time>2021-09-03T09:06:37Z</time>
      </trkpt>
      <trkpt lat="44.74619" lon="5.43316">
        <ele>666.1</ele>
        <time>2021-09-03T09:06:38Z</time>
      </trkpt>
      <trkpt lat="44.74619" lon="5.43316">
        <ele>666.1</ele>
        <time>2021-09-03T09:06:40Z</time>
      </trkpt>
      <trkpt lat="44.74619" lon="5.43315">
        <ele>666</ele>
        <time>2021-09-03T09:06:41Z</time>
      </trkpt>
      <trkpt lat="44.74619" lon="5.43315">
        <ele>666</ele>
        <time>2021-09-03T09:06:43Z</time>
      </trkpt>
      <trkpt lat="44.74619" lon="5.43315">
        <ele>666</ele>
        <time>2021-09-03T09:06:44Z</time>
      </trkpt>
      <trkpt lat="44.74619" lon="5.43315">
        <ele>666</ele>
        <time>2021-09-03T09:06:46Z</time>
      </trkpt>
      <trkpt lat="44.74619" lon="5.43315">
        <ele>666</ele>
        <time>2021-09-03T09:06:48Z</time>
      </trkpt>
      <trkpt lat="44.74619" lon="5.43315">
        <ele>666</ele>
        <time>2021-09-03T09:06:50Z</time>
      </trkpt>
      <trkpt lat="44.7462" lon="5.43315">
        <ele>666</ele>
        <time>2021-09-03T09:06:51Z</time>
      </trkpt>
      <trkpt lat="44.7462" lon="5.43315">
        <ele>666</ele>
        <time>2021-09-03T09:06:53Z</time>
      </trkpt>
      <trkpt lat="44.7462" lon="5.43315">
        <ele>666</ele>
        <time>2021-09-03T09:06:55Z</time>
      </trkpt>
      <trkpt lat="44.7462" lon="5.43315">
        <ele>665.9</ele>
        <time>2021-09-03T09:06:56Z</time>
      </trkpt>
      <trkpt lat="44.7462" lon="5.43315">
        <ele>665.9</ele>
        <time>2021-09-03T09:06:58Z</time>
      </trkpt>
      <trkpt lat="44.7462" lon="5.43315">
        <ele>665.9</ele>
        <time>2021-09-03T09:06:59Z</time>
      </trkpt>
      <trkpt lat="44.74619" lon="5.43315">
        <ele>665.9</ele>
        <time>2021-09-03T09:07:01Z</time>
      </trkpt>
      <trkpt lat="44.7462" lon="5.43315">
        <ele>665.9</ele>
        <time>2021-09-03T09:07:02Z</time>
      </trkpt>
      <trkpt lat="44.74619" lon="5.43315">
        <ele>665.9</ele>
        <time>2021-09-03T09:07:04Z</time>
      </trkpt>
      <trkpt lat="44.74618" lon="5.43314">
        <ele>665.8</ele>
        <time>2021-09-03T09:07:05Z</time>
      </trkpt>
      <trkpt lat="44.74616" lon="5.43314">
        <ele>665.6</ele>
        <time>2021-09-03T09:07:07Z</time>
      </trkpt>
      <trkpt lat="44.74614" lon="5.43314">
        <ele>665.5</ele>
        <time>2021-09-03T09:07:08Z</time>
      </trkpt>
      <trkpt lat="44.74614" lon="5.43314">
        <ele>665.5</ele>
        <time>2021-09-03T09:07:09Z</time>
      </trkpt>
      <trkpt lat="44.74613" lon="5.43314">
        <ele>665.4</ele>
        <time>2021-09-03T09:07:11Z</time>
      </trkpt>
      <trkpt lat="44.74613" lon="5.43314">
        <ele>665.3</ele>
        <time>2021-09-03T09:07:13Z</time>
      </trkpt>
      <trkpt lat="44.74612" lon="5.43315">
        <ele>665.3</ele>
        <time>2021-09-03T09:07:14Z</time>
      </trkpt>
      <trkpt lat="44.74612" lon="5.43315">
        <ele>665.3</ele>
        <time>2021-09-03T09:07:16Z</time>
      </trkpt>
      <trkpt lat="44.74612" lon="5.43315">
        <ele>665.3</ele>
        <time>2021-09-03T09:07:17Z</time>
      </trkpt>
      <trkpt lat="44.74612" lon="5.43315">
        <ele>665.3</ele>
        <time>2021-09-03T09:07:18Z</time>
      </trkpt>
      <trkpt lat="44.74611" lon="5.43315">
        <ele>665.3</ele>
        <time>2021-09-03T09:07:20Z</time>
      </trkpt>
      <trkpt lat="44.74611" lon="5.43315">
        <ele>665.2</ele>
        <time>2021-09-03T09:07:21Z</time>
      </trkpt>
      <trkpt lat="44.74611" lon="5.43315">
        <ele>665.2</ele>
        <time>2021-09-03T09:07:22Z</time>
      </trkpt>
      <trkpt lat="44.74611" lon="5.43315">
        <ele>665.2</ele>
        <time>2021-09-03T09:07:23Z</time>
      </trkpt>
      <trkpt lat="44.74611" lon="5.43315">
        <ele>665.2</ele>
        <time>2021-09-03T09:07:24Z</time>
      </trkpt>
      <trkpt lat="44.74611" lon="5.43315">
        <ele>665.2</ele>
        <time>2021-09-03T09:07:26Z</time>
      </trkpt>
      <trkpt lat="44.74611" lon="5.43315">
        <ele>665.2</ele>
        <time>2021-09-03T09:07:27Z</time>
      </trkpt>
      <trkpt lat="44.74611" lon="5.43315">
        <ele>665.2</ele>
        <time>2021-09-03T09:07:29Z</time>
      </trkpt>
      <trkpt lat="44.74611" lon="5.43315">
        <ele>665.2</ele>
        <time>2021-09-03T09:07:30Z</time>
      </trkpt>
      <trkpt lat="44.74611" lon="5.43315">
        <ele>665.2</ele>
        <time>2021-09-03T09:07:32Z</time>
      </trkpt>
      <trkpt lat="44.74611" lon="5.43315">
        <ele>665.2</ele>
        <time>2021-09-03T09:07:33Z</time>
      </trkpt>
      <trkpt lat="44.74611" lon="5.43315">
        <ele>665.2</ele>
        <time>2021-09-03T09:07:34Z</time>
      </trkpt>
      <trkpt lat="44.74611" lon="5.43315">
        <ele>665.2</ele>
        <time>2021-09-03T09:07:35Z</time>
      </trkpt>
      <trkpt lat="44.74611" lon="5.43315">
        <ele>665.2</ele>
        <time>2021-09-03T09:07:37Z</time>
      </trkpt>
      <trkpt lat="44.74611" lon="5.43315">
        <ele>665.2</ele>
        <time>2021-09-03T09:07:39Z</time>
      </trkpt>
      <trkpt lat="44.74611" lon="5.43315">
        <ele>665.2</ele>
        <time>2021-09-03T09:07:40Z</time>
      </trkpt>
      <trkpt lat="44.74611" lon="5.43315">
        <ele>665.2</ele>
        <time>2021-09-03T09:07:41Z</time>
      </trkpt>
      <trkpt lat="44.74611" lon="5.43315">
        <ele>665.2</ele>
        <time>2021-09-03T09:07:42Z</time>
      </trkpt>
      <trkpt lat="44.74611" lon="5.43315">
        <ele>665.2</ele>
        <time>2021-09-03T09:07:43Z</time>
      </trkpt>
      <trkpt lat="44.74611" lon="5.43315">
        <ele>665.2</ele>
        <time>2021-09-03T09:07:45Z</time>
      </trkpt>
      <trkpt lat="44.74611" lon="5.43315">
        <ele>665.2</ele>
        <time>2021-09-03T09:07:46Z</time>
      </trkpt>
      <trkpt lat="44.74611" lon="5.43315">
        <ele>665.2</ele>
        <time>2021-09-03T09:07:47Z</time>
      </trkpt>
      <trkpt lat="44.74611" lon="5.43315">
        <ele>665.2</ele>
        <time>2021-09-03T09:07:49Z</time>
      </trkpt>
      <trkpt lat="44.74611" lon="5.43315">
        <ele>665.2</ele>
        <time>2021-09-03T09:07:51Z</time>
      </trkpt>
      <trkpt lat="44.74611" lon="5.43315">
        <ele>665.2</ele>
        <time>2021-09-03T09:07:52Z</time>
      </trkpt>
      <trkpt lat="44.74611" lon="5.43315">
        <ele>665.2</ele>
        <time>2021-09-03T09:07:53Z</time>
      </trkpt>
      <trkpt lat="44.74611" lon="5.43315">
        <ele>665.2</ele>
        <time>2021-09-03T09:07:55Z</time>
      </trkpt>
      <trkpt lat="44.74611" lon="5.43315">
        <ele>665.2</ele>
        <time>2021-09-03T09:07:57Z</time>
      </trkpt>
      <trkpt lat="44.74611" lon="5.43315">
        <ele>665.2</ele>
        <time>2021-09-03T09:07:58Z</time>
      </trkpt>
      <trkpt lat="44.74611" lon="5.43315">
        <ele>665.2</ele>
        <time>2021-09-03T09:07:59Z</time>
      </trkpt>
      <trkpt lat="44.74611" lon="5.43315">
        <ele>665.2</ele>
        <time>2021-09-03T09:08:01Z</time>
      </trkpt>
      <trkpt lat="44.74611" lon="5.43315">
        <ele>665.2</ele>
        <time>2021-09-03T09:08:03Z</time>
      </trkpt>
      <trkpt lat="44.74611" lon="5.43315">
        <ele>665.2</ele>
        <time>2021-09-03T09:08:04Z</time>
      </trkpt>
      <trkpt lat="44.74611" lon="5.43315">
        <ele>665.2</ele>
        <time>2021-09-03T09:08:05Z</time>
      </trkpt>
      <trkpt lat="44.74611" lon="5.43315">
        <ele>665.2</ele>
        <time>2021-09-03T09:08:07Z</time>
      </trkpt>
      <trkpt lat="44.74611" lon="5.43315">
        <ele>665.2</ele>
        <time>2021-09-03T09:08:09Z</time>
      </trkpt>
      <trkpt lat="44.74611" lon="5.43315">
        <ele>665.2</ele>
        <time>2021-09-03T09:08:10Z</time>
      </trkpt>
      <trkpt lat="44.74611" lon="5.43315">
        <ele>665.2</ele>
        <time>2021-09-03T09:08:11Z</time>
      </trkpt>
      <trkpt lat="44.74611" lon="5.43315">
        <ele>665.2</ele>
        <time>2021-09-03T09:08:13Z</time>
      </trkpt>
      <trkpt lat="44.74611" lon="5.43315">
        <ele>665.2</ele>
        <time>2021-09-03T09:08:15Z</time>
      </trkpt>
      <trkpt lat="44.74611" lon="5.43315">
        <ele>665.2</ele>
        <time>2021-09-03T09:08:16Z</time>
      </trkpt>
      <trkpt lat="44.74611" lon="5.43315">
        <ele>665.2</ele>
        <time>2021-09-03T09:08:17Z</time>
      </trkpt>
      <trkpt lat="44.74611" lon="5.43315">
        <ele>665.2</ele>
        <time>2021-09-03T09:08:19Z</time>
      </trkpt>
      <trkpt lat="44.74611" lon="5.43315">
        <ele>665.2</ele>
        <time>2021-09-03T09:08:21Z</time>
      </trkpt>
      <trkpt lat="44.74611" lon="5.43315">
        <ele>665.2</ele>
        <time>2021-09-03T09:08:22Z</time>
      </trkpt>
      <trkpt lat="44.74611" lon="5.43315">
        <ele>665.2</ele>
        <time>2021-09-03T09:08:23Z</time>
      </trkpt>
      <trkpt lat="44.74611" lon="5.43315">
        <ele>665.2</ele>
        <time>2021-09-03T09:08:25Z</time>
      </trkpt>
      <trkpt lat="44.74611" lon="5.43315">
        <ele>665.2</ele>
        <time>2021-09-03T09:08:26Z</time>
      </trkpt>
      <trkpt lat="44.74611" lon="5.43315">
        <ele>665.2</ele>
        <time>2021-09-03T09:08:27Z</time>
      </trkpt>
      <trkpt lat="44.74611" lon="5.43315">
        <ele>665.2</ele>
        <time>2021-09-03T09:08:29Z</time>
      </trkpt>
      <trkpt lat="44.74611" lon="5.43315">
        <ele>665.2</ele>
        <time>2021-09-03T09:08:30Z</time>
      </trkpt>
      <trkpt lat="44.74611" lon="5.43315">
        <ele>665.2</ele>
        <time>2021-09-03T09:08:32Z</time>
      </trkpt>
      <trkpt lat="44.74611" lon="5.43315">
        <ele>665.2</ele>
        <time>2021-09-03T09:08:34Z</time>
      </trkpt>
      <trkpt lat="44.74611" lon="5.43315">
        <ele>665.2</ele>
        <time>2021-09-03T09:08:35Z</time>
      </trkpt>
      <trkpt lat="44.74611" lon="5.43315">
        <ele>665.2</ele>
        <time>2021-09-03T09:08:37Z</time>
      </trkpt>
      <trkpt lat="44.74611" lon="5.43315">
        <ele>665.2</ele>
        <time>2021-09-03T09:08:39Z</time>
      </trkpt>
      <trkpt lat="44.74611" lon="5.43315">
        <ele>665.2</ele>
        <time>2021-09-03T09:08:41Z</time>
      </trkpt>
      <trkpt lat="44.74611" lon="5.43315">
        <ele>665.2</ele>
        <time>2021-09-03T09:08:42Z</time>
      </trkpt>
      <trkpt lat="44.74611" lon="5.43315">
        <ele>665.2</ele>
        <time>2021-09-03T09:08:43Z</time>
      </trkpt>
      <trkpt lat="44.74611" lon="5.43315">
        <ele>665.2</ele>
        <time>2021-09-03T09:08:45Z</time>
      </trkpt>
      <trkpt lat="44.74611" lon="5.43315">
        <ele>665.2</ele>
        <time>2021-09-03T09:08:47Z</time>
      </trkpt>
      <trkpt lat="44.74611" lon="5.43315">
        <ele>665.2</ele>
        <time>2021-09-03T09:08:48Z</time>
      </trkpt>
      <trkpt lat="44.74611" lon="5.43315">
        <ele>665.2</ele>
        <time>2021-09-03T09:08:49Z</time>
      </trkpt>
      <trkpt lat="44.74611" lon="5.43315">
        <ele>665.2</ele>
        <time>2021-09-03T09:08:51Z</time>
      </trkpt>
      <trkpt lat="44.74611" lon="5.43315">
        <ele>665.2</ele>
        <time>2021-09-03T09:08:53Z</time>
      </trkpt>
      <trkpt lat="44.74611" lon="5.43315">
        <ele>665.2</ele>
        <time>2021-09-03T09:08:54Z</time>
      </trkpt>
      <trkpt lat="44.74611" lon="5.43315">
        <ele>665.2</ele>
        <time>2021-09-03T09:08:55Z</time>
      </trkpt>
      <trkpt lat="44.74611" lon="5.43315">
        <ele>665.2</ele>
        <time>2021-09-03T09:08:57Z</time>
      </trkpt>
      <trkpt lat="44.74611" lon="5.43315">
        <ele>665.2</ele>
        <time>2021-09-03T09:08:59Z</time>
      </trkpt>
      <trkpt lat="44.74611" lon="5.43315">
        <ele>665.2</ele>
        <time>2021-09-03T09:09:00Z</time>
      </trkpt>
      <trkpt lat="44.74611" lon="5.43315">
        <ele>665.2</ele>
        <time>2021-09-03T09:09:02Z</time>
      </trkpt>
      <trkpt lat="44.74611" lon="5.43315">
        <ele>665.2</ele>
        <time>2021-09-03T09:09:04Z</time>
      </trkpt>
      <trkpt lat="44.74611" lon="5.43315">
        <ele>665.2</ele>
        <time>2021-09-03T09:09:06Z</time>
      </trkpt>
      <trkpt lat="44.74611" lon="5.43315">
        <ele>665.2</ele>
        <time>2021-09-03T09:09:07Z</time>
      </trkpt>
      <trkpt lat="44.74611" lon="5.43315">
        <ele>665.2</ele>
        <time>2021-09-03T09:09:09Z</time>
      </trkpt>
      <trkpt lat="44.74611" lon="5.43315">
        <ele>665.2</ele>
        <time>2021-09-03T09:09:10Z</time>
      </trkpt>
      <trkpt lat="44.74611" lon="5.43315">
        <ele>665.2</ele>
        <time>2021-09-03T09:09:12Z</time>
      </trkpt>
      <trkpt lat="44.74611" lon="5.43315">
        <ele>665.2</ele>
        <time>2021-09-03T09:09:13Z</time>
      </trkpt>
      <trkpt lat="44.74611" lon="5.43315">
        <ele>665.2</ele>
        <time>2021-09-03T09:09:15Z</time>
      </trkpt>
      <trkpt lat="44.74611" lon="5.43315">
        <ele>665.2</ele>
        <time>2021-09-03T09:09:16Z</time>
      </trkpt>
      <trkpt lat="44.74611" lon="5.43315">
        <ele>665.2</ele>
        <time>2021-09-03T09:09:18Z</time>
      </trkpt>
      <trkpt lat="44.74611" lon="5.43315">
        <ele>665.2</ele>
        <time>2021-09-03T09:09:19Z</time>
      </trkpt>
      <trkpt lat="44.74611" lon="5.43315">
        <ele>665.2</ele>
        <time>2021-09-03T09:09:21Z</time>
      </trkpt>
      <trkpt lat="44.74611" lon="5.43315">
        <ele>665.2</ele>
        <time>2021-09-03T09:09:22Z</time>
      </trkpt>
      <trkpt lat="44.74611" lon="5.43315">
        <ele>665.2</ele>
        <time>2021-09-03T09:09:24Z</time>
      </trkpt>
      <trkpt lat="44.74611" lon="5.43315">
        <ele>665.2</ele>
        <time>2021-09-03T09:09:25Z</time>
      </trkpt>
      <trkpt lat="44.74611" lon="5.43315">
        <ele>665.2</ele>
        <time>2021-09-03T09:09:27Z</time>
      </trkpt>
      <trkpt lat="44.74611" lon="5.43315">
        <ele>665.2</ele>
        <time>2021-09-03T09:09:28Z</time>
      </trkpt>
      <trkpt lat="44.74611" lon="5.43315">
        <ele>665.2</ele>
        <time>2021-09-03T09:09:30Z</time>
      </trkpt>
      <trkpt lat="44.74611" lon="5.43315">
        <ele>665.2</ele>
        <time>2021-09-03T09:09:31Z</time>
      </trkpt>
      <trkpt lat="44.74611" lon="5.43315">
        <ele>665.2</ele>
        <time>2021-09-03T09:09:32Z</time>
      </trkpt>
      <trkpt lat="44.74611" lon="5.43315">
        <ele>665.2</ele>
        <time>2021-09-03T09:09:34Z</time>
      </trkpt>
      <trkpt lat="44.74611" lon="5.43315">
        <ele>665.2</ele>
        <time>2021-09-03T09:09:35Z</time>
      </trkpt>
      <trkpt lat="44.74611" lon="5.43315">
        <ele>665.2</ele>
        <time>2021-09-03T09:09:37Z</time>
      </trkpt>
      <trkpt lat="44.74611" lon="5.43315">
        <ele>665.2</ele>
        <time>2021-09-03T09:09:38Z</time>
      </trkpt>
      <trkpt lat="44.74611" lon="5.43315">
        <ele>665.2</ele>
        <time>2021-09-03T09:09:39Z</time>
      </trkpt>
      <trkpt lat="44.74611" lon="5.43315">
        <ele>665.2</ele>
        <time>2021-09-03T09:09:41Z</time>
      </trkpt>
      <trkpt lat="44.74611" lon="5.43315">
        <ele>665.2</ele>
        <time>2021-09-03T09:09:43Z</time>
      </trkpt>
      <trkpt lat="44.74611" lon="5.43315">
        <ele>665.2</ele>
        <time>2021-09-03T09:09:44Z</time>
      </trkpt>
      <trkpt lat="44.74611" lon="5.43315">
        <ele>665.2</ele>
        <time>2021-09-03T09:09:46Z</time>
      </trkpt>
      <trkpt lat="44.74611" lon="5.43315">
        <ele>665.2</ele>
        <time>2021-09-03T09:09:47Z</time>
      </trkpt>
      <trkpt lat="44.74611" lon="5.43315">
        <ele>665.2</ele>
        <time>2021-09-03T09:09:49Z</time>
      </trkpt>
      <trkpt lat="44.74611" lon="5.43315">
        <ele>665.2</ele>
        <time>2021-09-03T09:09:50Z</time>
      </trkpt>
      <trkpt lat="44.74611" lon="5.43315">
        <ele>665.2</ele>
        <time>2021-09-03T09:09:51Z</time>
      </trkpt>
      <trkpt lat="44.74611" lon="5.43315">
        <ele>665.2</ele>
        <time>2021-09-03T09:09:52Z</time>
      </trkpt>
      <trkpt lat="44.74611" lon="5.43315">
        <ele>665.2</ele>
        <time>2021-09-03T09:09:54Z</time>
      </trkpt>
      <trkpt lat="44.74611" lon="5.43315">
        <ele>665.2</ele>
        <time>2021-09-03T09:09:55Z</time>
      </trkpt>
      <trkpt lat="44.74611" lon="5.43315">
        <ele>665.2</ele>
        <time>2021-09-03T09:09:57Z</time>
      </trkpt>
      <trkpt lat="44.74611" lon="5.43315">
        <ele>665.2</ele>
        <time>2021-09-03T09:09:58Z</time>
      </trkpt>
      <trkpt lat="44.74611" lon="5.43315">
        <ele>665.2</ele>
        <time>2021-09-03T09:10:00Z</time>
      </trkpt>
      <trkpt lat="44.74611" lon="5.43315">
        <ele>665.2</ele>
        <time>2021-09-03T09:10:01Z</time>
      </trkpt>
      <trkpt lat="44.74611" lon="5.43315">
        <ele>665.2</ele>
        <time>2021-09-03T09:10:02Z</time>
      </trkpt>
      <trkpt lat="44.74611" lon="5.43315">
        <ele>665.2</ele>
        <time>2021-09-03T09:10:03Z</time>
      </trkpt>
      <trkpt lat="44.74611" lon="5.43315">
        <ele>665.2</ele>
        <time>2021-09-03T09:10:05Z</time>
      </trkpt>
      <trkpt lat="44.74611" lon="5.43315">
        <ele>665.2</ele>
        <time>2021-09-03T09:10:06Z</time>
      </trkpt>
      <trkpt lat="44.74611" lon="5.43315">
        <ele>665.2</ele>
        <time>2021-09-03T09:10:07Z</time>
      </trkpt>
      <trkpt lat="44.74611" lon="5.43315">
        <ele>665.2</ele>
        <time>2021-09-03T09:10:09Z</time>
      </trkpt>
      <trkpt lat="44.74611" lon="5.43315">
        <ele>665.2</ele>
        <time>2021-09-03T09:10:10Z</time>
      </trkpt>
      <trkpt lat="44.74611" lon="5.43315">
        <ele>665.2</ele>
        <time>2021-09-03T09:10:11Z</time>
      </trkpt>
      <trkpt lat="44.74611" lon="5.43315">
        <ele>665.2</ele>
        <time>2021-09-03T09:10:12Z</time>
      </trkpt>
      <trkpt lat="44.74611" lon="5.43315">
        <ele>665.2</ele>
        <time>2021-09-03T09:10:14Z</time>
      </trkpt>
      <trkpt lat="44.74611" lon="5.43314">
        <ele>665.1</ele>
        <time>2021-09-03T09:10:15Z</time>
      </trkpt>
      <trkpt lat="44.7461" lon="5.43314">
        <ele>665.1</ele>
        <time>2021-09-03T09:10:16Z</time>
      </trkpt>
      <trkpt lat="44.74609" lon="5.43312">
        <ele>665</ele>
        <time>2021-09-03T09:10:17Z</time>
      </trkpt>
      <trkpt lat="44.74607" lon="5.43309">
        <ele>664.8</ele>
        <time>2021-09-03T09:10:18Z</time>
      </trkpt>
      <trkpt lat="44.74606" lon="5.43308">
        <ele>664.7</ele>
        <time>2021-09-03T09:10:19Z</time>
      </trkpt>
      <trkpt lat="44.74605" lon="5.43306">
        <ele>664.7</ele>
        <time>2021-09-03T09:10:20Z</time>
      </trkpt>
      <trkpt lat="44.74603" lon="5.433">
        <ele>664.4</ele>
        <time>2021-09-03T09:10:22Z</time>
      </trkpt>
      <trkpt lat="44.746" lon="5.43292">
        <ele>663.5</ele>
        <time>2021-09-03T09:10:23Z</time>
      </trkpt>
      <trkpt lat="44.74597" lon="5.43285">
        <ele>662.9</ele>
        <time>2021-09-03T09:10:24Z</time>
      </trkpt>
      <trkpt lat="44.74593" lon="5.4328">
        <ele>662.2</ele>
        <time>2021-09-03T09:10:26Z</time>
      </trkpt>
      <trkpt lat="44.74588" lon="5.43276">
        <ele>661.5</ele>
        <time>2021-09-03T09:10:27Z</time>
      </trkpt>
      <trkpt lat="44.74584" lon="5.43274">
        <ele>661</ele>
        <time>2021-09-03T09:10:28Z</time>
      </trkpt>
      <trkpt lat="44.74581" lon="5.4327">
        <ele>660.5</ele>
        <time>2021-09-03T09:10:29Z</time>
      </trkpt>
      <trkpt lat="44.74577" lon="5.43268">
        <ele>659.9</ele>
        <time>2021-09-03T09:10:30Z</time>
      </trkpt>
      <trkpt lat="44.74573" lon="5.43264">
        <ele>659.2</ele>
        <time>2021-09-03T09:10:32Z</time>
      </trkpt>
      <trkpt lat="44.7457" lon="5.4326">
        <ele>658.7</ele>
        <time>2021-09-03T09:10:33Z</time>
      </trkpt>
      <trkpt lat="44.74567" lon="5.43257">
        <ele>658.3</ele>
        <time>2021-09-03T09:10:34Z</time>
      </trkpt>
      <trkpt lat="44.74564" lon="5.43254">
        <ele>657.9</ele>
        <time>2021-09-03T09:10:35Z</time>
      </trkpt>
      <trkpt lat="44.74561" lon="5.4325">
        <ele>657.5</ele>
        <time>2021-09-03T09:10:37Z</time>
      </trkpt>
      <trkpt lat="44.74557" lon="5.43249">
        <ele>657</ele>
        <time>2021-09-03T09:10:39Z</time>
      </trkpt>
      <trkpt lat="44.74553" lon="5.43249">
        <ele>655.7</ele>
        <time>2021-09-03T09:10:40Z</time>
      </trkpt>
      <trkpt lat="44.74551" lon="5.4325">
        <ele>655.7</ele>
        <time>2021-09-03T09:10:41Z</time>
      </trkpt>
      <trkpt lat="44.7455" lon="5.43251">
        <ele>656.2</ele>
        <time>2021-09-03T09:10:42Z</time>
      </trkpt>
      <trkpt lat="44.74547" lon="5.43255">
        <ele>656.7</ele>
        <time>2021-09-03T09:10:44Z</time>
      </trkpt>
      <trkpt lat="44.74545" lon="5.43257">
        <ele>657.1</ele>
        <time>2021-09-03T09:10:46Z</time>
      </trkpt>
      <trkpt lat="44.74541" lon="5.43258">
        <ele>657.5</ele>
        <time>2021-09-03T09:10:47Z</time>
      </trkpt>
      <trkpt lat="44.74541" lon="5.43258">
        <ele>657.6</ele>
        <time>2021-09-03T09:10:49Z</time>
      </trkpt>
      <trkpt lat="44.74543" lon="5.43257">
        <ele>657.9</ele>
        <time>2021-09-03T09:10:50Z</time>
      </trkpt>
      <trkpt lat="44.74544" lon="5.43257">
        <ele>658</ele>
        <time>2021-09-03T09:10:51Z</time>
      </trkpt>
      <trkpt lat="44.74542" lon="5.43257">
        <ele>658.2</ele>
        <time>2021-09-03T09:10:53Z</time>
      </trkpt>
      <trkpt lat="44.74541" lon="5.43257">
        <ele>658.4</ele>
        <time>2021-09-03T09:10:54Z</time>
      </trkpt>
      <trkpt lat="44.74539" lon="5.4326">
        <ele>658.8</ele>
        <time>2021-09-03T09:10:55Z</time>
      </trkpt>
      <trkpt lat="44.74538" lon="5.43263">
        <ele>659.1</ele>
        <time>2021-09-03T09:10:57Z</time>
      </trkpt>
      <trkpt lat="44.74537" lon="5.43269">
        <ele>659.7</ele>
        <time>2021-09-03T09:10:58Z</time>
      </trkpt>
      <trkpt lat="44.74536" lon="5.43271">
        <ele>660</ele>
        <time>2021-09-03T09:10:59Z</time>
      </trkpt>
      <trkpt lat="44.74536" lon="5.43275">
        <ele>660.4</ele>
        <time>2021-09-03T09:11:00Z</time>
      </trkpt>
      <trkpt lat="44.74536" lon="5.43279">
        <ele>660.8</ele>
        <time>2021-09-03T09:11:01Z</time>
      </trkpt>
      <trkpt lat="44.74537" lon="5.43284">
        <ele>661.3</ele>
        <time>2021-09-03T09:11:03Z</time>
      </trkpt>
      <trkpt lat="44.74538" lon="5.43285">
        <ele>661.5</ele>
        <time>2021-09-03T09:11:04Z</time>
      </trkpt>
      <trkpt lat="44.74537" lon="5.4329">
        <ele>662</ele>
        <time>2021-09-03T09:11:05Z</time>
      </trkpt>
      <trkpt lat="44.74537" lon="5.43292">
        <ele>662.2</ele>
        <time>2021-09-03T09:11:06Z</time>
      </trkpt>
      <trkpt lat="44.74538" lon="5.43294">
        <ele>662.5</ele>
        <time>2021-09-03T09:11:07Z</time>
      </trkpt>
      <trkpt lat="44.74537" lon="5.43296">
        <ele>662.7</ele>
        <time>2021-09-03T09:11:09Z</time>
      </trkpt>
      <trkpt lat="44.74536" lon="5.43299">
        <ele>663.1</ele>
        <time>2021-09-03T09:11:10Z</time>
      </trkpt>
      <trkpt lat="44.74535" lon="5.43302">
        <ele>663.4</ele>
        <time>2021-09-03T09:11:12Z</time>
      </trkpt>
      <trkpt lat="44.74536" lon="5.43304">
        <ele>663.7</ele>
        <time>2021-09-03T09:11:13Z</time>
      </trkpt>
      <trkpt lat="44.74536" lon="5.43306">
        <ele>664</ele>
        <time>2021-09-03T09:11:14Z</time>
      </trkpt>
      <trkpt lat="44.74535" lon="5.43309">
        <ele>664.3</ele>
        <time>2021-09-03T09:11:16Z</time>
      </trkpt>
      <trkpt lat="44.74533" lon="5.43311">
        <ele>664.7</ele>
        <time>2021-09-03T09:11:17Z</time>
      </trkpt>
      <trkpt lat="44.74532" lon="5.43312">
        <ele>664.9</ele>
        <time>2021-09-03T09:11:18Z</time>
      </trkpt>
      <trkpt lat="44.7453" lon="5.43312">
        <ele>665.2</ele>
        <time>2021-09-03T09:11:19Z</time>
      </trkpt>
      <trkpt lat="44.74529" lon="5.43311">
        <ele>665.4</ele>
        <time>2021-09-03T09:11:20Z</time>
      </trkpt>
      <trkpt lat="44.74528" lon="5.43313">
        <ele>665.7</ele>
        <time>2021-09-03T09:11:21Z</time>
      </trkpt>
      <trkpt lat="44.74527" lon="5.43314">
        <ele>665.9</ele>
        <time>2021-09-03T09:11:23Z</time>
      </trkpt>
      <trkpt lat="44.74527" lon="5.43315">
        <ele>665.9</ele>
        <time>2021-09-03T09:11:25Z</time>
      </trkpt>
      <trkpt lat="44.74527" lon="5.43316">
        <ele>666</ele>
        <time>2021-09-03T09:11:26Z</time>
      </trkpt>
      <trkpt lat="44.74527" lon="5.43317">
        <ele>666.2</ele>
        <time>2021-09-03T09:11:28Z</time>
      </trkpt>
      <trkpt lat="44.74527" lon="5.43318">
        <ele>666.3</ele>
        <time>2021-09-03T09:11:29Z</time>
      </trkpt>
      <trkpt lat="44.74527" lon="5.4332">
        <ele>666.5</ele>
        <time>2021-09-03T09:11:31Z</time>
      </trkpt>
      <trkpt lat="44.74527" lon="5.43324">
        <ele>666.9</ele>
        <time>2021-09-03T09:11:34Z</time>
      </trkpt>
      <trkpt lat="44.74527" lon="5.43327">
        <ele>667.3</ele>
        <time>2021-09-03T09:11:35Z</time>
      </trkpt>
      <trkpt lat="44.74528" lon="5.43328">
        <ele>667.4</ele>
        <time>2021-09-03T09:11:36Z</time>
      </trkpt>
      <trkpt lat="44.74528" lon="5.43329">
        <ele>667.6</ele>
        <time>2021-09-03T09:11:37Z</time>
      </trkpt>
      <trkpt lat="44.74529" lon="5.4333">
        <ele>667.7</ele>
        <time>2021-09-03T09:11:38Z</time>
      </trkpt>
      <trkpt lat="44.74529" lon="5.43331">
        <ele>667.8</ele>
        <time>2021-09-03T09:11:40Z</time>
      </trkpt>
      <trkpt lat="44.7453" lon="5.43331">
        <ele>667.9</ele>
        <time>2021-09-03T09:11:41Z</time>
      </trkpt>
      <trkpt lat="44.7453" lon="5.43331">
        <ele>668</ele>
        <time>2021-09-03T09:11:43Z</time>
      </trkpt>
      <trkpt lat="44.74531" lon="5.43332">
        <ele>668</ele>
        <time>2021-09-03T09:11:44Z</time>
      </trkpt>
      <trkpt lat="44.74531" lon="5.43332">
        <ele>668.1</ele>
        <time>2021-09-03T09:11:46Z</time>
      </trkpt>
      <trkpt lat="44.74531" lon="5.43332">
        <ele>668.1</ele>
        <time>2021-09-03T09:11:47Z</time>
      </trkpt>
      <trkpt lat="44.74532" lon="5.43334">
        <ele>668.3</ele>
        <time>2021-09-03T09:11:49Z</time>
      </trkpt>
      <trkpt lat="44.74532" lon="5.43335">
        <ele>668.5</ele>
        <time>2021-09-03T09:11:51Z</time>
      </trkpt>
      <trkpt lat="44.74532" lon="5.43336">
        <ele>668.6</ele>
        <time>2021-09-03T09:11:53Z</time>
      </trkpt>
      <trkpt lat="44.74533" lon="5.43337">
        <ele>668.7</ele>
        <time>2021-09-03T09:11:54Z</time>
      </trkpt>
      <trkpt lat="44.74533" lon="5.43337">
        <ele>668.7</ele>
        <time>2021-09-03T09:11:56Z</time>
      </trkpt>
      <trkpt lat="44.74533" lon="5.43338">
        <ele>668.8</ele>
        <time>2021-09-03T09:11:57Z</time>
      </trkpt>
      <trkpt lat="44.74533" lon="5.43338">
        <ele>668.8</ele>
        <time>2021-09-03T09:11:58Z</time>
      </trkpt>
      <trkpt lat="44.74533" lon="5.43338">
        <ele>668.8</ele>
        <time>2021-09-03T09:11:59Z</time>
      </trkpt>
      <trkpt lat="44.74533" lon="5.43339">
        <ele>668.9</ele>
        <time>2021-09-03T09:12:01Z</time>
      </trkpt>
      <trkpt lat="44.74533" lon="5.43339">
        <ele>668.9</ele>
        <time>2021-09-03T09:12:02Z</time>
      </trkpt>
      <trkpt lat="44.74533" lon="5.43339">
        <ele>668.9</ele>
        <time>2021-09-03T09:12:04Z</time>
      </trkpt>
      <trkpt lat="44.74533" lon="5.43339">
        <ele>668.9</ele>
        <time>2021-09-03T09:12:05Z</time>
      </trkpt>
      <trkpt lat="44.74534" lon="5.4334">
        <ele>669.1</ele>
        <time>2021-09-03T09:12:06Z</time>
      </trkpt>
      <trkpt lat="44.74535" lon="5.43342">
        <ele>669.2</ele>
        <time>2021-09-03T09:12:07Z</time>
      </trkpt>
      <trkpt lat="44.74537" lon="5.43344">
        <ele>669.6</ele>
        <time>2021-09-03T09:12:09Z</time>
      </trkpt>
      <trkpt lat="44.74537" lon="5.43345">
        <ele>669.7</ele>
        <time>2021-09-03T09:12:10Z</time>
      </trkpt>
      <trkpt lat="44.74539" lon="5.43347">
        <ele>670</ele>
        <time>2021-09-03T09:12:11Z</time>
      </trkpt>
      <trkpt lat="44.74548" lon="5.43357">
        <ele>671.4</ele>
        <time>2021-09-03T09:12:12Z</time>
      </trkpt>
      <trkpt lat="44.74552" lon="5.43361">
        <ele>671.9</ele>
        <time>2021-09-03T09:12:13Z</time>
      </trkpt>
      <trkpt lat="44.74552" lon="5.43361">
        <ele>672</ele>
        <time>2021-09-03T09:12:14Z</time>
      </trkpt>
      <trkpt lat="44.74553" lon="5.43362">
        <ele>672</ele>
        <time>2021-09-03T09:12:15Z</time>
      </trkpt>
      <trkpt lat="44.74553" lon="5.43362">
        <ele>672.1</ele>
        <time>2021-09-03T09:12:17Z</time>
      </trkpt>
      <trkpt lat="44.74553" lon="5.43364">
        <ele>672.2</ele>
        <time>2021-09-03T09:12:18Z</time>
      </trkpt>
      <trkpt lat="44.74554" lon="5.43365">
        <ele>672.3</ele>
        <time>2021-09-03T09:12:19Z</time>
      </trkpt>
      <trkpt lat="44.74554" lon="5.43369">
        <ele>672.6</ele>
        <time>2021-09-03T09:12:21Z</time>
      </trkpt>
      <trkpt lat="44.74554" lon="5.43371">
        <ele>672.8</ele>
        <time>2021-09-03T09:12:23Z</time>
      </trkpt>
      <trkpt lat="44.74554" lon="5.43373">
        <ele>672.9</ele>
        <time>2021-09-03T09:12:24Z</time>
      </trkpt>
      <trkpt lat="44.74552" lon="5.43376">
        <ele>673.2</ele>
        <time>2021-09-03T09:12:26Z</time>
      </trkpt>
      <trkpt lat="44.7455" lon="5.43377">
        <ele>673.5</ele>
        <time>2021-09-03T09:12:27Z</time>
      </trkpt>
      <trkpt lat="44.74549" lon="5.43379">
        <ele>673.6</ele>
        <time>2021-09-03T09:12:28Z</time>
      </trkpt>
      <trkpt lat="44.74548" lon="5.43381">
        <ele>673.8</ele>
        <time>2021-09-03T09:12:29Z</time>
      </trkpt>
      <trkpt lat="44.74548" lon="5.43382">
        <ele>673.9</ele>
        <time>2021-09-03T09:12:30Z</time>
      </trkpt>
      <trkpt lat="44.74548" lon="5.43384">
        <ele>674.1</ele>
        <time>2021-09-03T09:12:31Z</time>
      </trkpt>
      <trkpt lat="44.74546" lon="5.43388">
        <ele>674.4</ele>
        <time>2021-09-03T09:12:33Z</time>
      </trkpt>
      <trkpt lat="44.74544" lon="5.43391">
        <ele>674.8</ele>
        <time>2021-09-03T09:12:34Z</time>
      </trkpt>
      <trkpt lat="44.74543" lon="5.43392">
        <ele>675</ele>
        <time>2021-09-03T09:12:35Z</time>
      </trkpt>
      <trkpt lat="44.74542" lon="5.43393">
        <ele>675.1</ele>
        <time>2021-09-03T09:12:36Z</time>
      </trkpt>
      <trkpt lat="44.74541" lon="5.43394">
        <ele>675.3</ele>
        <time>2021-09-03T09:12:37Z</time>
      </trkpt>
      <trkpt lat="44.74541" lon="5.43395">
        <ele>675.4</ele>
        <time>2021-09-03T09:12:39Z</time>
      </trkpt>
      <trkpt lat="44.7454" lon="5.43396">
        <ele>675.5</ele>
        <time>2021-09-03T09:12:40Z</time>
      </trkpt>
      <trkpt lat="44.74539" lon="5.43397">
        <ele>675.6</ele>
        <time>2021-09-03T09:12:41Z</time>
      </trkpt>
      <trkpt lat="44.74539" lon="5.43398">
        <ele>675.7</ele>
        <time>2021-09-03T09:12:42Z</time>
      </trkpt>
      <trkpt lat="44.74538" lon="5.434">
        <ele>676</ele>
        <time>2021-09-03T09:12:44Z</time>
      </trkpt>
      <trkpt lat="44.74534" lon="5.43421">
        <ele>677.8</ele>
        <time>2021-09-03T09:13:03Z</time>
      </trkpt>
      <trkpt lat="44.74535" lon="5.43425">
        <ele>678.1</ele>
        <time>2021-09-03T09:13:04Z</time>
      </trkpt>
      <trkpt lat="44.74535" lon="5.43427">
        <ele>678.3</ele>
        <time>2021-09-03T09:13:05Z</time>
      </trkpt>
      <trkpt lat="44.74536" lon="5.43431">
        <ele>678.7</ele>
        <time>2021-09-03T09:13:07Z</time>
      </trkpt>
      <trkpt lat="44.74536" lon="5.43432">
        <ele>678.7</ele>
        <time>2021-09-03T09:13:08Z</time>
      </trkpt>
      <trkpt lat="44.74536" lon="5.43432">
        <ele>678.7</ele>
        <time>2021-09-03T09:13:10Z</time>
      </trkpt>
      <trkpt lat="44.74536" lon="5.43432">
        <ele>678.8</ele>
        <time>2021-09-03T09:13:12Z</time>
      </trkpt>
      <trkpt lat="44.74535" lon="5.43432">
        <ele>678.8</ele>
        <time>2021-09-03T09:13:13Z</time>
      </trkpt>
      <trkpt lat="44.74535" lon="5.43432">
        <ele>678.8</ele>
        <time>2021-09-03T09:13:15Z</time>
      </trkpt>
      <trkpt lat="44.74535" lon="5.43432">
        <ele>678.9</ele>
        <time>2021-09-03T09:13:16Z</time>
      </trkpt>
      <trkpt lat="44.74535" lon="5.43432">
        <ele>678.9</ele>
        <time>2021-09-03T09:13:17Z</time>
      </trkpt>
      <trkpt lat="44.74533" lon="5.43432">
        <ele>679</ele>
        <time>2021-09-03T09:13:19Z</time>
      </trkpt>
      <trkpt lat="44.74532" lon="5.43432">
        <ele>679.1</ele>
        <time>2021-09-03T09:13:20Z</time>
      </trkpt>
      <trkpt lat="44.74531" lon="5.43433">
        <ele>679.2</ele>
        <time>2021-09-03T09:13:22Z</time>
      </trkpt>
      <trkpt lat="44.74531" lon="5.43433">
        <ele>679.3</ele>
        <time>2021-09-03T09:13:23Z</time>
      </trkpt>
      <trkpt lat="44.74533" lon="5.43434">
        <ele>679.5</ele>
        <time>2021-09-03T09:13:24Z</time>
      </trkpt>
      <trkpt lat="44.74535" lon="5.43435">
        <ele>679.7</ele>
        <time>2021-09-03T09:13:26Z</time>
      </trkpt>
      <trkpt lat="44.74538" lon="5.43436">
        <ele>679.9</ele>
        <time>2021-09-03T09:14:17Z</time>
      </trkpt>
      <trkpt lat="44.7454" lon="5.43436">
        <ele>680.1</ele>
        <time>2021-09-03T09:14:18Z</time>
      </trkpt>
      <trkpt lat="44.74545" lon="5.43432">
        <ele>680.5</ele>
        <time>2021-09-03T09:14:19Z</time>
      </trkpt>
      <trkpt lat="44.74547" lon="5.43428">
        <ele>680.7</ele>
        <time>2021-09-03T09:14:20Z</time>
      </trkpt>
      <trkpt lat="44.74547" lon="5.43427">
        <ele>680.8</ele>
        <time>2021-09-03T09:14:21Z</time>
      </trkpt>
      <trkpt lat="44.74548" lon="5.43426">
        <ele>680.8</ele>
        <time>2021-09-03T09:14:22Z</time>
      </trkpt>
      <trkpt lat="44.74548" lon="5.43427">
        <ele>680.8</ele>
        <time>2021-09-03T09:14:24Z</time>
      </trkpt>
      <trkpt lat="44.74547" lon="5.43427">
        <ele>680.8</ele>
        <time>2021-09-03T09:14:25Z</time>
      </trkpt>
      <trkpt lat="44.74547" lon="5.43428">
        <ele>680.9</ele>
        <time>2021-09-03T09:14:26Z</time>
      </trkpt>
      <trkpt lat="44.74547" lon="5.43428">
        <ele>680.9</ele>
        <time>2021-09-03T09:14:27Z</time>
      </trkpt>
      <trkpt lat="44.74547" lon="5.43428">
        <ele>680.9</ele>
        <time>2021-09-03T09:14:29Z</time>
      </trkpt>
      <trkpt lat="44.74539" lon="5.43487">
        <ele>683.2</ele>
        <time>2021-09-03T09:15:09Z</time>
      </trkpt>
      <trkpt lat="44.74539" lon="5.43496">
        <ele>683.5</ele>
        <time>2021-09-03T09:15:11Z</time>
      </trkpt>
      <trkpt lat="44.74537" lon="5.43503">
        <ele>683.8</ele>
        <time>2021-09-03T09:15:12Z</time>
      </trkpt>
      <trkpt lat="44.74537" lon="5.43507">
        <ele>683.9</ele>
        <time>2021-09-03T09:15:13Z</time>
      </trkpt>
      <trkpt lat="44.74538" lon="5.4351">
        <ele>684</ele>
        <time>2021-09-03T09:15:15Z</time>
      </trkpt>
      <trkpt lat="44.7454" lon="5.43513">
        <ele>684.2</ele>
        <time>2021-09-03T09:15:16Z</time>
      </trkpt>
      <trkpt lat="44.74541" lon="5.43514">
        <ele>684.3</ele>
        <time>2021-09-03T09:15:17Z</time>
      </trkpt>
      <trkpt lat="44.74542" lon="5.43515">
        <ele>684.3</ele>
        <time>2021-09-03T09:15:19Z</time>
      </trkpt>
      <trkpt lat="44.74542" lon="5.43515">
        <ele>684.3</ele>
        <time>2021-09-03T09:15:20Z</time>
      </trkpt>
      <trkpt lat="44.74542" lon="5.43515">
        <ele>684.4</ele>
        <time>2021-09-03T09:15:22Z</time>
      </trkpt>
      <trkpt lat="44.74542" lon="5.43515">
        <ele>684.4</ele>
        <time>2021-09-03T09:15:23Z</time>
      </trkpt>
      <trkpt lat="44.74542" lon="5.43515">
        <ele>684.4</ele>
        <time>2021-09-03T09:15:25Z</time>
      </trkpt>
      <trkpt lat="44.7454" lon="5.43534">
        <ele>686.1</ele>
        <time>2021-09-03T09:15:59Z</time>
      </trkpt>
      <trkpt lat="44.74537" lon="5.43538">
        <ele>687</ele>
        <time>2021-09-03T09:16:01Z</time>
      </trkpt>
      <trkpt lat="44.74536" lon="5.43538">
        <ele>687.6</ele>
        <time>2021-09-03T09:16:03Z</time>
      </trkpt>
      <trkpt lat="44.74534" lon="5.43538">
        <ele>687.6</ele>
        <time>2021-09-03T09:16:04Z</time>
      </trkpt>
      <trkpt lat="44.74533" lon="5.43538">
        <ele>687.6</ele>
        <time>2021-09-03T09:16:05Z</time>
      </trkpt>
      <trkpt lat="44.74532" lon="5.43538">
        <ele>688.3</ele>
        <time>2021-09-03T09:16:07Z</time>
      </trkpt>
      <trkpt lat="44.74532" lon="5.43538">
        <ele>688.4</ele>
        <time>2021-09-03T09:16:08Z</time>
      </trkpt>
      <trkpt lat="44.74532" lon="5.43538">
        <ele>688.4</ele>
        <time>2021-09-03T09:16:09Z</time>
      </trkpt>
      <trkpt lat="44.74531" lon="5.43538">
        <ele>688.4</ele>
        <time>2021-09-03T09:16:11Z</time>
      </trkpt>
      <trkpt lat="44.74531" lon="5.4354">
        <ele>688.4</ele>
        <time>2021-09-03T09:16:12Z</time>
      </trkpt>
      <trkpt lat="44.74532" lon="5.43542">
        <ele>688.8</ele>
        <time>2021-09-03T09:16:14Z</time>
      </trkpt>
      <trkpt lat="44.74533" lon="5.43544">
        <ele>688.8</ele>
        <time>2021-09-03T09:16:15Z</time>
      </trkpt>
      <trkpt lat="44.74535" lon="5.43548">
        <ele>688.5</ele>
        <time>2021-09-03T09:16:17Z</time>
      </trkpt>
      <trkpt lat="44.74535" lon="5.43548">
        <ele>688.5</ele>
        <time>2021-09-03T09:16:18Z</time>
      </trkpt>
      <trkpt lat="44.74537" lon="5.43553">
        <ele>688.6</ele>
        <time>2021-09-03T09:16:20Z</time>
      </trkpt>
      <trkpt lat="44.74537" lon="5.43555">
        <ele>688.6</ele>
        <time>2021-09-03T09:16:21Z</time>
      </trkpt>
      <trkpt lat="44.74538" lon="5.43561">
        <ele>688.9</ele>
        <time>2021-09-03T09:16:23Z</time>
      </trkpt>
      <trkpt lat="44.74538" lon="5.43566">
        <ele>689.5</ele>
        <time>2021-09-03T09:16:24Z</time>
      </trkpt>
      <trkpt lat="44.74536" lon="5.4357">
        <ele>690</ele>
        <time>2021-09-03T09:16:26Z</time>
      </trkpt>
      <trkpt lat="44.74535" lon="5.43572">
        <ele>690.3</ele>
        <time>2021-09-03T09:16:27Z</time>
      </trkpt>
      <trkpt lat="44.74534" lon="5.43574">
        <ele>690.3</ele>
        <time>2021-09-03T09:16:29Z</time>
      </trkpt>
      <trkpt lat="44.74534" lon="5.43575">
        <ele>690.7</ele>
        <time>2021-09-03T09:16:30Z</time>
      </trkpt>
      <trkpt lat="44.74534" lon="5.43576">
        <ele>690.7</ele>
        <time>2021-09-03T09:16:31Z</time>
      </trkpt>
      <trkpt lat="44.74534" lon="5.43577">
        <ele>690.7</ele>
        <time>2021-09-03T09:16:33Z</time>
      </trkpt>
      <trkpt lat="44.74533" lon="5.43578">
        <ele>690.7</ele>
        <time>2021-09-03T09:16:34Z</time>
      </trkpt>
      <trkpt lat="44.74533" lon="5.4358">
        <ele>691.1</ele>
        <time>2021-09-03T09:16:36Z</time>
      </trkpt>
      <trkpt lat="44.74533" lon="5.43581">
        <ele>691.1</ele>
        <time>2021-09-03T09:16:37Z</time>
      </trkpt>
      <trkpt lat="44.74553" lon="5.4371">
        <ele>703</ele>
        <time>2021-09-03T09:19:05Z</time>
      </trkpt>
      <trkpt lat="44.74553" lon="5.43712">
        <ele>703.6</ele>
        <time>2021-09-03T09:19:06Z</time>
      </trkpt>
      <trkpt lat="44.74553" lon="5.43714">
        <ele>703.6</ele>
        <time>2021-09-03T09:19:07Z</time>
      </trkpt>
      <trkpt lat="44.74554" lon="5.43717">
        <ele>704.2</ele>
        <time>2021-09-03T09:19:08Z</time>
      </trkpt>
      <trkpt lat="44.74555" lon="5.43719">
        <ele>703.5</ele>
        <time>2021-09-03T09:19:10Z</time>
      </trkpt>
      <trkpt lat="44.74556" lon="5.43721">
        <ele>704.2</ele>
        <time>2021-09-03T09:19:12Z</time>
      </trkpt>
      <trkpt lat="44.74557" lon="5.43722">
        <ele>704.2</ele>
        <time>2021-09-03T09:19:13Z</time>
      </trkpt>
      <trkpt lat="44.74557" lon="5.43724">
        <ele>704.2</ele>
        <time>2021-09-03T09:19:14Z</time>
      </trkpt>
      <trkpt lat="44.74558" lon="5.43724">
        <ele>704.2</ele>
        <time>2021-09-03T09:19:16Z</time>
      </trkpt>
      <trkpt lat="44.74557" lon="5.43728">
        <ele>704.8</ele>
        <time>2021-09-03T09:19:18Z</time>
      </trkpt>
      <trkpt lat="44.74555" lon="5.43733">
        <ele>705.4</ele>
        <time>2021-09-03T09:19:19Z</time>
      </trkpt>
      <trkpt lat="44.74554" lon="5.43735">
        <ele>706.7</ele>
        <time>2021-09-03T09:19:20Z</time>
      </trkpt>
      <trkpt lat="44.74554" lon="5.43745">
        <ele>707.7</ele>
        <time>2021-09-03T09:19:22Z</time>
      </trkpt>
      <trkpt lat="44.74555" lon="5.43752">
        <ele>708.1</ele>
        <time>2021-09-03T09:19:24Z</time>
      </trkpt>
      <trkpt lat="44.74556" lon="5.4376">
        <ele>709.3</ele>
        <time>2021-09-03T09:19:25Z</time>
      </trkpt>
      <trkpt lat="44.74557" lon="5.43767">
        <ele>709.9</ele>
        <time>2021-09-03T09:19:27Z</time>
      </trkpt>
      <trkpt lat="44.74558" lon="5.43775">
        <ele>710.6</ele>
        <time>2021-09-03T09:19:28Z</time>
      </trkpt>
      <trkpt lat="44.74559" lon="5.43783">
        <ele>711.9</ele>
        <time>2021-09-03T09:19:29Z</time>
      </trkpt>
      <trkpt lat="44.7456" lon="5.4379">
        <ele>713.2</ele>
        <time>2021-09-03T09:19:30Z</time>
      </trkpt>
      <trkpt lat="44.7456" lon="5.43798">
        <ele>714.5</ele>
        <time>2021-09-03T09:22:15Z</time>
      </trkpt>
      <trkpt lat="44.74561" lon="5.43805">
        <ele>714.7</ele>
        <time>2021-09-03T09:22:16Z</time>
      </trkpt>
      <trkpt lat="44.74562" lon="5.43794">
        <ele>713.3</ele>
        <time>2021-09-03T09:22:18Z</time>
      </trkpt>
      <trkpt lat="44.74564" lon="5.43774">
        <ele>709.8</ele>
        <time>2021-09-03T09:22:19Z</time>
      </trkpt>
      <trkpt lat="44.74565" lon="5.43755">
        <ele>706.7</ele>
        <time>2021-09-03T09:22:21Z</time>
      </trkpt>
      <trkpt lat="44.74564" lon="5.43743">
        <ele>706</ele>
        <time>2021-09-03T09:22:23Z</time>
      </trkpt>
      <trkpt lat="44.74563" lon="5.43736">
        <ele>705</ele>
        <time>2021-09-03T09:22:24Z</time>
      </trkpt>
      <trkpt lat="44.7456" lon="5.43721">
        <ele>703.9</ele>
        <time>2021-09-03T09:22:26Z</time>
      </trkpt>
      <trkpt lat="44.74562" lon="5.43711">
        <ele>701.6</ele>
        <time>2021-09-03T09:22:27Z</time>
      </trkpt>
      <trkpt lat="44.74562" lon="5.43699">
        <ele>700.5</ele>
        <time>2021-09-03T09:22:29Z</time>
      </trkpt>
      <trkpt lat="44.74561" lon="5.43691">
        <ele>699.6</ele>
        <time>2021-09-03T09:22:30Z</time>
      </trkpt>
      <trkpt lat="44.7456" lon="5.43678">
        <ele>698.6</ele>
        <time>2021-09-03T09:22:32Z</time>
      </trkpt>
      <trkpt lat="44.7456" lon="5.43671">
        <ele>697.7</ele>
        <time>2021-09-03T09:22:33Z</time>
      </trkpt>
      <trkpt lat="44.74559" lon="5.43664">
        <ele>696.7</ele>
        <time>2021-09-03T09:22:34Z</time>
      </trkpt>
      <trkpt lat="44.74559" lon="5.43657">
        <ele>696.3</ele>
        <time>2021-09-03T09:22:35Z</time>
      </trkpt>
      <trkpt lat="44.7456" lon="5.43652">
        <ele>695.9</ele>
        <time>2021-09-03T09:22:36Z</time>
      </trkpt>
      <trkpt lat="44.74558" lon="5.43637">
        <ele>694.1</ele>
        <time>2021-09-03T09:22:38Z</time>
      </trkpt>
      <trkpt lat="44.74556" lon="5.43629">
        <ele>693.5</ele>
        <time>2021-09-03T09:22:39Z</time>
      </trkpt>
      <trkpt lat="44.74555" lon="5.43621">
        <ele>692.5</ele>
        <time>2021-09-03T09:22:40Z</time>
      </trkpt>
      <trkpt lat="44.74554" lon="5.43614">
        <ele>692.5</ele>
        <time>2021-09-03T09:22:41Z</time>
      </trkpt>
      <trkpt lat="44.74552" lon="5.43606">
        <ele>691.6</ele>
        <time>2021-09-03T09:22:42Z</time>
      </trkpt>
      <trkpt lat="44.74551" lon="5.43599">
        <ele>691.1</ele>
        <time>2021-09-03T09:22:43Z</time>
      </trkpt>
      <trkpt lat="44.7455" lon="5.43583">
        <ele>690</ele>
        <time>2021-09-03T09:22:45Z</time>
      </trkpt>
      <trkpt lat="44.7455" lon="5.43577">
        <ele>689.5</ele>
        <time>2021-09-03T09:22:46Z</time>
      </trkpt>
      <trkpt lat="44.74552" lon="5.4357">
        <ele>688.8</ele>
        <time>2021-09-03T09:22:47Z</time>
      </trkpt>
      <trkpt lat="44.74552" lon="5.43564">
        <ele>688.4</ele>
        <time>2021-09-03T09:22:48Z</time>
      </trkpt>
      <trkpt lat="44.74551" lon="5.43558">
        <ele>687.9</ele>
        <time>2021-09-03T09:22:49Z</time>
      </trkpt>
      <trkpt lat="44.7455" lon="5.4355">
        <ele>687.3</ele>
        <time>2021-09-03T09:22:51Z</time>
      </trkpt>
      <trkpt lat="44.7455" lon="5.43545">
        <ele>686.9</ele>
        <time>2021-09-03T09:22:52Z</time>
      </trkpt>
      <trkpt lat="44.74549" lon="5.43535">
        <ele>686.2</ele>
        <time>2021-09-03T09:22:53Z</time>
      </trkpt>
      <trkpt lat="44.74548" lon="5.43529">
        <ele>685.8</ele>
        <time>2021-09-03T09:22:54Z</time>
      </trkpt>
      <trkpt lat="44.74548" lon="5.43521">
        <ele>685.2</ele>
        <time>2021-09-03T09:22:56Z</time>
      </trkpt>
      <trkpt lat="44.74548" lon="5.43513">
        <ele>684.7</ele>
        <time>2021-09-03T09:22:57Z</time>
      </trkpt>
      <trkpt lat="44.74549" lon="5.43503">
        <ele>684.1</ele>
        <time>2021-09-03T09:22:58Z</time>
      </trkpt>
      <trkpt lat="44.74549" lon="5.43495">
        <ele>683.6</ele>
        <time>2021-09-03T09:22:59Z</time>
      </trkpt>
      <trkpt lat="44.7455" lon="5.43488">
        <ele>683.2</ele>
        <time>2021-09-03T09:23:01Z</time>
      </trkpt>
      <trkpt lat="44.74549" lon="5.4348">
        <ele>682.8</ele>
        <time>2021-09-03T09:23:02Z</time>
      </trkpt>
      <trkpt lat="44.74548" lon="5.43473">
        <ele>682.4</ele>
        <time>2021-09-03T09:23:04Z</time>
      </trkpt>
      <trkpt lat="44.74548" lon="5.43468">
        <ele>682.2</ele>
        <time>2021-09-03T09:23:05Z</time>
      </trkpt>
      <trkpt lat="44.7455" lon="5.4346">
        <ele>681.7</ele>
        <time>2021-09-03T09:23:07Z</time>
      </trkpt>
      <trkpt lat="44.74551" lon="5.43455">
        <ele>681.4</ele>
        <time>2021-09-03T09:23:09Z</time>
      </trkpt>
      <trkpt lat="44.74551" lon="5.4345">
        <ele>681.1</ele>
        <time>2021-09-03T09:23:10Z</time>
      </trkpt>
      <trkpt lat="44.74551" lon="5.43448">
        <ele>681</ele>
        <time>2021-09-03T09:23:11Z</time>
      </trkpt>
      <trkpt lat="44.74551" lon="5.43443">
        <ele>680.7</ele>
        <time>2021-09-03T09:23:12Z</time>
      </trkpt>
      <trkpt lat="44.74551" lon="5.43437">
        <ele>680.2</ele>
        <time>2021-09-03T09:23:13Z</time>
      </trkpt>
      <trkpt lat="44.74551" lon="5.4343">
        <ele>679.6</ele>
        <time>2021-09-03T09:23:14Z</time>
      </trkpt>
      <trkpt lat="44.74551" lon="5.43419">
        <ele>678.5</ele>
        <time>2021-09-03T09:23:16Z</time>
      </trkpt>
      <trkpt lat="44.74551" lon="5.43414">
        <ele>678</ele>
        <time>2021-09-03T09:23:17Z</time>
      </trkpt>
      <trkpt lat="44.74552" lon="5.43402">
        <ele>676.4</ele>
        <time>2021-09-03T09:23:19Z</time>
      </trkpt>
      <trkpt lat="44.74553" lon="5.43389">
        <ele>674.7</ele>
        <time>2021-09-03T09:23:21Z</time>
      </trkpt>
      <trkpt lat="44.74554" lon="5.43383">
        <ele>673.9</ele>
        <time>2021-09-03T09:23:22Z</time>
      </trkpt>
      <trkpt lat="44.74554" lon="5.43377">
        <ele>673.3</ele>
        <time>2021-09-03T09:23:23Z</time>
      </trkpt>
      <trkpt lat="44.74555" lon="5.43365">
        <ele>671.9</ele>
        <time>2021-09-03T09:23:25Z</time>
      </trkpt>
      <trkpt lat="44.74555" lon="5.43353">
        <ele>670.4</ele>
        <time>2021-09-03T09:23:27Z</time>
      </trkpt>
      <trkpt lat="44.74554" lon="5.43344">
        <ele>669.2</ele>
        <time>2021-09-03T09:23:28Z</time>
      </trkpt>
      <trkpt lat="44.74551" lon="5.43322">
        <ele>667</ele>
        <time>2021-09-03T09:23:30Z</time>
      </trkpt>
      <trkpt lat="44.7455" lon="5.43305">
        <ele>664.1</ele>
        <time>2021-09-03T09:23:32Z</time>
      </trkpt>
      <trkpt lat="44.74547" lon="5.43288">
        <ele>661.4</ele>
        <time>2021-09-03T09:23:34Z</time>
      </trkpt>
      <trkpt lat="44.74547" lon="5.4328">
        <ele>660.2</ele>
        <time>2021-09-03T09:23:35Z</time>
      </trkpt>
      <trkpt lat="44.74547" lon="5.43273">
        <ele>659.2</ele>
        <time>2021-09-03T09:23:36Z</time>
      </trkpt>
      <trkpt lat="44.74547" lon="5.43267">
        <ele>658.4</ele>
        <time>2021-09-03T09:23:37Z</time>
      </trkpt>
      <trkpt lat="44.74549" lon="5.43261">
        <ele>657.5</ele>
        <time>2021-09-03T09:23:38Z</time>
      </trkpt>
      <trkpt lat="44.7455" lon="5.43255">
        <ele>656.6</ele>
        <time>2021-09-03T09:23:39Z</time>
      </trkpt>
      <trkpt lat="44.7455" lon="5.43247">
        <ele>655.7</ele>
        <time>2021-09-03T09:23:40Z</time>
      </trkpt>
      <trkpt lat="44.74547" lon="5.43236">
        <ele>654.7</ele>
        <time>2021-09-03T09:23:42Z</time>
      </trkpt>
      <trkpt lat="44.74545" lon="5.4323">
        <ele>654</ele>
        <time>2021-09-03T09:23:43Z</time>
      </trkpt>
      <trkpt lat="44.74541" lon="5.43217">
        <ele>652.7</ele>
        <time>2021-09-03T09:23:45Z</time>
      </trkpt>
      <trkpt lat="44.74536" lon="5.43203">
        <ele>651.2</ele>
        <time>2021-09-03T09:23:47Z</time>
      </trkpt>
      <trkpt lat="44.74532" lon="5.43184">
        <ele>649.4</ele>
        <time>2021-09-03T09:23:49Z</time>
      </trkpt>
      <trkpt lat="44.74527" lon="5.43161">
        <ele>647.4</ele>
        <time>2021-09-03T09:23:51Z</time>
      </trkpt>
      <trkpt lat="44.74523" lon="5.4315">
        <ele>646.5</ele>
        <time>2021-09-03T09:23:52Z</time>
      </trkpt>
      <trkpt lat="44.74519" lon="5.43137">
        <ele>645.7</ele>
        <time>2021-09-03T09:23:53Z</time>
      </trkpt>
      <trkpt lat="44.74514" lon="5.43125">
        <ele>644.9</ele>
        <time>2021-09-03T09:23:54Z</time>
      </trkpt>
      <trkpt lat="44.74504" lon="5.43101">
        <ele>643.4</ele>
        <time>2021-09-03T09:23:56Z</time>
      </trkpt>
      <trkpt lat="44.745" lon="5.43089">
        <ele>642.7</ele>
        <time>2021-09-03T09:23:57Z</time>
      </trkpt>
      <trkpt lat="44.74496" lon="5.43078">
        <ele>642</ele>
        <time>2021-09-03T09:23:58Z</time>
      </trkpt>
      <trkpt lat="44.74488" lon="5.43058">
        <ele>640.8</ele>
        <time>2021-09-03T09:24:00Z</time>
      </trkpt>
      <trkpt lat="44.74484" lon="5.43048">
        <ele>640.1</ele>
        <time>2021-09-03T09:24:01Z</time>
      </trkpt>
      <trkpt lat="44.74475" lon="5.43028">
        <ele>639</ele>
        <time>2021-09-03T09:24:03Z</time>
      </trkpt>
      <trkpt lat="44.74471" lon="5.43017">
        <ele>638.4</ele>
        <time>2021-09-03T09:24:04Z</time>
      </trkpt>
      <trkpt lat="44.74468" lon="5.43007">
        <ele>637.9</ele>
        <time>2021-09-03T09:24:05Z</time>
      </trkpt>
      <trkpt lat="44.7446" lon="5.42987">
        <ele>636.8</ele>
        <time>2021-09-03T09:24:07Z</time>
      </trkpt>
      <trkpt lat="44.74451" lon="5.42966">
        <ele>635.6</ele>
        <time>2021-09-03T09:24:09Z</time>
      </trkpt>
      <trkpt lat="44.74447" lon="5.42956">
        <ele>634.9</ele>
        <time>2021-09-03T09:24:10Z</time>
      </trkpt>
      <trkpt lat="44.74442" lon="5.42946">
        <ele>634.1</ele>
        <time>2021-09-03T09:24:11Z</time>
      </trkpt>
      <trkpt lat="44.74434" lon="5.42929">
        <ele>632.6</ele>
        <time>2021-09-03T09:24:13Z</time>
      </trkpt>
      <trkpt lat="44.74427" lon="5.42916">
        <ele>631.3</ele>
        <time>2021-09-03T09:24:15Z</time>
      </trkpt>
      <trkpt lat="44.74422" lon="5.42909">
        <ele>630.5</ele>
        <time>2021-09-03T09:24:17Z</time>
      </trkpt>
      <trkpt lat="44.74417" lon="5.42905">
        <ele>629.9</ele>
        <time>2021-09-03T09:24:19Z</time>
      </trkpt>
      <trkpt lat="44.74413" lon="5.429">
        <ele>629.4</ele>
        <time>2021-09-03T09:24:21Z</time>
      </trkpt>
      <trkpt lat="44.74412" lon="5.42895">
        <ele>629</ele>
        <time>2021-09-03T09:24:23Z</time>
      </trkpt>
      <trkpt lat="44.74411" lon="5.42889">
        <ele>628.6</ele>
        <time>2021-09-03T09:24:25Z</time>
      </trkpt>
      <trkpt lat="44.7441" lon="5.42884">
        <ele>628.3</ele>
        <time>2021-09-03T09:24:27Z</time>
      </trkpt>
      <trkpt lat="44.74409" lon="5.42879">
        <ele>628</ele>
        <time>2021-09-03T09:24:29Z</time>
      </trkpt>
      <trkpt lat="44.74408" lon="5.42873">
        <ele>627.7</ele>
        <time>2021-09-03T09:24:31Z</time>
      </trkpt>
      <trkpt lat="44.74407" lon="5.42868">
        <ele>627.4</ele>
        <time>2021-09-03T09:24:33Z</time>
      </trkpt>
      <trkpt lat="44.74406" lon="5.42862">
        <ele>627.1</ele>
        <time>2021-09-03T09:25:15Z</time>
      </trkpt>
      <trkpt lat="44.74405" lon="5.42857">
        <ele>626.8</ele>
        <time>2021-09-03T09:25:17Z</time>
      </trkpt>
      <trkpt lat="44.74397" lon="5.4284">
        <ele>625.7</ele>
        <time>2021-09-03T09:25:19Z</time>
      </trkpt>
      <trkpt lat="44.7439" lon="5.42823">
        <ele>624.3</ele>
        <time>2021-09-03T09:25:21Z</time>
      </trkpt>
      <trkpt lat="44.74386" lon="5.42814">
        <ele>623.5</ele>
        <time>2021-09-03T09:25:22Z</time>
      </trkpt>
      <trkpt lat="44.74383" lon="5.42805">
        <ele>622.7</ele>
        <time>2021-09-03T09:25:23Z</time>
      </trkpt>
      <trkpt lat="44.74378" lon="5.42789">
        <ele>621.2</ele>
        <time>2021-09-03T09:25:25Z</time>
      </trkpt>
      <trkpt lat="44.74377" lon="5.42782">
        <ele>620.5</ele>
        <time>2021-09-03T09:25:26Z</time>
      </trkpt>
      <trkpt lat="44.74372" lon="5.42766">
        <ele>619</ele>
        <time>2021-09-03T09:25:28Z</time>
      </trkpt>
      <trkpt lat="44.74368" lon="5.42756">
        <ele>618.1</ele>
        <time>2021-09-03T09:25:29Z</time>
      </trkpt>
      <trkpt lat="44.74361" lon="5.42747">
        <ele>616.9</ele>
        <time>2021-09-03T09:25:30Z</time>
      </trkpt>
      <trkpt lat="44.74348" lon="5.42729">
        <ele>614.8</ele>
        <time>2021-09-03T09:25:32Z</time>
      </trkpt>
      <trkpt lat="44.74342" lon="5.4272">
        <ele>613.8</ele>
        <time>2021-09-03T09:25:33Z</time>
      </trkpt>
      <trkpt lat="44.74331" lon="5.42704">
        <ele>611.6</ele>
        <time>2021-09-03T09:25:35Z</time>
      </trkpt>
      <trkpt lat="44.74325" lon="5.42697">
        <ele>610.5</ele>
        <time>2021-09-03T09:25:36Z</time>
      </trkpt>
      <trkpt lat="44.74318" lon="5.4269">
        <ele>609.3</ele>
        <time>2021-09-03T09:25:37Z</time>
      </trkpt>
      <trkpt lat="44.74303" lon="5.42676">
        <ele>606.8</ele>
        <time>2021-09-03T09:25:39Z</time>
      </trkpt>
      <trkpt lat="44.74287" lon="5.42664">
        <ele>604.8</ele>
        <time>2021-09-03T09:25:41Z</time>
      </trkpt>
      <trkpt lat="44.74272" lon="5.42654">
        <ele>603.5</ele>
        <time>2021-09-03T09:25:43Z</time>
      </trkpt>
      <trkpt lat="44.74261" lon="5.42642">
        <ele>602.5</ele>
        <time>2021-09-03T09:25:45Z</time>
      </trkpt>
      <trkpt lat="44.74256" lon="5.42633">
        <ele>602</ele>
        <time>2021-09-03T09:25:46Z</time>
      </trkpt>
      <trkpt lat="44.74245" lon="5.42616">
        <ele>600.8</ele>
        <time>2021-09-03T09:25:48Z</time>
      </trkpt>
      <trkpt lat="44.74235" lon="5.42597">
        <ele>599.6</ele>
        <time>2021-09-03T09:25:50Z</time>
      </trkpt>
      <trkpt lat="44.74231" lon="5.42588">
        <ele>599</ele>
        <time>2021-09-03T09:25:51Z</time>
      </trkpt>
      <trkpt lat="44.74225" lon="5.42574">
        <ele>597.9</ele>
        <time>2021-09-03T09:25:53Z</time>
      </trkpt>
      <trkpt lat="44.74218" lon="5.42562">
        <ele>596.9</ele>
        <time>2021-09-03T09:25:55Z</time>
      </trkpt>
      <trkpt lat="44.74214" lon="5.42558">
        <ele>596.6</ele>
        <time>2021-09-03T09:25:56Z</time>
      </trkpt>
      <trkpt lat="44.74209" lon="5.42552">
        <ele>596.1</ele>
        <time>2021-09-03T09:25:58Z</time>
      </trkpt>
      <trkpt lat="44.74204" lon="5.42551">
        <ele>595.9</ele>
        <time>2021-09-03T09:26:00Z</time>
      </trkpt>
      <trkpt lat="44.74201" lon="5.42551">
        <ele>596</ele>
        <time>2021-09-03T09:26:01Z</time>
      </trkpt>
      <trkpt lat="44.74199" lon="5.42551">
        <ele>596.1</ele>
        <time>2021-09-03T09:26:02Z</time>
      </trkpt>
      <trkpt lat="44.74194" lon="5.42553">
        <ele>596.3</ele>
        <time>2021-09-03T09:26:04Z</time>
      </trkpt>
      <trkpt lat="44.74194" lon="5.42553">
        <ele>596.3</ele>
        <time>2021-09-03T09:26:05Z</time>
      </trkpt>
      <trkpt lat="44.74191" lon="5.42556">
        <ele>596.4</ele>
        <time>2021-09-03T09:26:07Z</time>
      </trkpt>
      <trkpt lat="44.74187" lon="5.42557">
        <ele>596.6</ele>
        <time>2021-09-03T09:26:08Z</time>
      </trkpt>
      <trkpt lat="44.74184" lon="5.42558">
        <ele>596.8</ele>
        <time>2021-09-03T09:26:10Z</time>
      </trkpt>
      <trkpt lat="44.74184" lon="5.42559">
        <ele>596.8</ele>
        <time>2021-09-03T09:26:11Z</time>
      </trkpt>
      <trkpt lat="44.74187" lon="5.42561">
        <ele>597</ele>
        <time>2021-09-03T09:26:12Z</time>
      </trkpt>
      <trkpt lat="44.74188" lon="5.42561">
        <ele>597.1</ele>
        <time>2021-09-03T09:26:14Z</time>
      </trkpt>
      <trkpt lat="44.74188" lon="5.42562">
        <ele>597.1</ele>
        <time>2021-09-03T09:26:15Z</time>
      </trkpt>
      <trkpt lat="44.74188" lon="5.42563">
        <ele>597.2</ele>
        <time>2021-09-03T09:26:17Z</time>
      </trkpt>
      <trkpt lat="44.74188" lon="5.42565">
        <ele>597.3</ele>
        <time>2021-09-03T09:26:18Z</time>
      </trkpt>
      <trkpt lat="44.74188" lon="5.42568">
        <ele>597.4</ele>
        <time>2021-09-03T09:26:20Z</time>
      </trkpt>
      <trkpt lat="44.74188" lon="5.42569">
        <ele>597.5</ele>
        <time>2021-09-03T09:26:21Z</time>
      </trkpt>
      <trkpt lat="44.74069" lon="5.42886">
        <ele>646.4</ele>
        <time>2021-09-03T09:32:07Z</time>
      </trkpt>
      <trkpt lat="44.74068" lon="5.42891">
        <ele>646.4</ele>
        <time>2021-09-03T09:32:09Z</time>
      </trkpt>
      <trkpt lat="44.74067" lon="5.42895">
        <ele>646.4</ele>
        <time>2021-09-03T09:32:10Z</time>
      </trkpt>
      <trkpt lat="44.74067" lon="5.42898">
        <ele>646.6</ele>
        <time>2021-09-03T09:32:11Z</time>
      </trkpt>
      <trkpt lat="44.74068" lon="5.429">
        <ele>646.7</ele>
        <time>2021-09-03T09:32:12Z</time>
      </trkpt>
      <trkpt lat="44.74068" lon="5.42902">
        <ele>646.9</ele>
        <time>2021-09-03T09:32:14Z</time>
      </trkpt>
      <trkpt lat="44.74068" lon="5.42905">
        <ele>647</ele>
        <time>2021-09-03T09:32:15Z</time>
      </trkpt>
      <trkpt lat="44.74068" lon="5.42907">
        <ele>647.2</ele>
        <time>2021-09-03T09:32:16Z</time>
      </trkpt>
      <trkpt lat="44.74068" lon="5.42908">
        <ele>647.3</ele>
        <time>2021-09-03T09:32:17Z</time>
      </trkpt>
      <trkpt lat="44.74068" lon="5.42909">
        <ele>647.4</ele>
        <time>2021-09-03T09:32:18Z</time>
      </trkpt>
      <trkpt lat="44.74069" lon="5.42911">
        <ele>647.5</ele>
        <time>2021-09-03T09:32:20Z</time>
      </trkpt>
      <trkpt lat="44.74067" lon="5.42916">
        <ele>647.9</ele>
        <time>2021-09-03T09:32:22Z</time>
      </trkpt>
      <trkpt lat="44.74059" lon="5.42924">
        <ele>649.1</ele>
        <time>2021-09-03T09:32:29Z</time>
      </trkpt>
      <trkpt lat="44.74053" lon="5.42929">
        <ele>650</ele>
        <time>2021-09-03T09:32:30Z</time>
      </trkpt>
      <trkpt lat="44.7405" lon="5.4293">
        <ele>650.3</ele>
        <time>2021-09-03T09:32:31Z</time>
      </trkpt>
      <trkpt lat="44.74046" lon="5.42934">
        <ele>650.9</ele>
        <time>2021-09-03T09:32:33Z</time>
      </trkpt>
      <trkpt lat="44.74043" lon="5.42937">
        <ele>651.3</ele>
        <time>2021-09-03T09:32:34Z</time>
      </trkpt>
      <trkpt lat="44.74041" lon="5.42939">
        <ele>651.6</ele>
        <time>2021-09-03T09:32:35Z</time>
      </trkpt>
      <trkpt lat="44.7404" lon="5.4294">
        <ele>651.8</ele>
        <time>2021-09-03T09:32:36Z</time>
      </trkpt>
      <trkpt lat="44.74037" lon="5.42942">
        <ele>652.1</ele>
        <time>2021-09-03T09:32:38Z</time>
      </trkpt>
      <trkpt lat="44.74037" lon="5.42943">
        <ele>652.2</ele>
        <time>2021-09-03T09:32:39Z</time>
      </trkpt>
      <trkpt lat="44.74033" lon="5.42945">
        <ele>652.6</ele>
        <time>2021-09-03T09:32:41Z</time>
      </trkpt>
      <trkpt lat="44.7403" lon="5.42946">
        <ele>653</ele>
        <time>2021-09-03T09:32:42Z</time>
      </trkpt>
      <trkpt lat="44.74029" lon="5.42946">
        <ele>653</ele>
        <time>2021-09-03T09:32:43Z</time>
      </trkpt>
      <trkpt lat="44.74028" lon="5.42946">
        <ele>653.2</ele>
        <time>2021-09-03T09:32:45Z</time>
      </trkpt>
      <trkpt lat="44.74026" lon="5.42946">
        <ele>653.4</ele>
        <time>2021-09-03T09:32:47Z</time>
      </trkpt>
      <trkpt lat="44.74024" lon="5.42946">
        <ele>653.5</ele>
        <time>2021-09-03T09:32:48Z</time>
      </trkpt>
      <trkpt lat="44.74022" lon="5.42946">
        <ele>653.7</ele>
        <time>2021-09-03T09:32:50Z</time>
      </trkpt>
      <trkpt lat="44.74021" lon="5.42946">
        <ele>653.9</ele>
        <time>2021-09-03T09:32:51Z</time>
      </trkpt>
      <trkpt lat="44.74021" lon="5.42945">
        <ele>653.9</ele>
        <time>2021-09-03T09:32:53Z</time>
      </trkpt>
      <trkpt lat="44.74021" lon="5.42945">
        <ele>654</ele>
        <time>2021-09-03T09:32:54Z</time>
      </trkpt>
      <trkpt lat="44.7402" lon="5.42945">
        <ele>654</ele>
        <time>2021-09-03T09:32:56Z</time>
      </trkpt>
      <trkpt lat="44.74019" lon="5.42945">
        <ele>654.2</ele>
        <time>2021-09-03T09:32:57Z</time>
      </trkpt>
      <trkpt lat="44.74016" lon="5.42944">
        <ele>654.4</ele>
        <time>2021-09-03T09:32:58Z</time>
      </trkpt>
      <trkpt lat="44.74012" lon="5.42943">
        <ele>654.8</ele>
        <time>2021-09-03T09:33:00Z</time>
      </trkpt>
      <trkpt lat="44.74011" lon="5.42942">
        <ele>654.9</ele>
        <time>2021-09-03T09:33:01Z</time>
      </trkpt>
      <trkpt lat="44.74008" lon="5.42941">
        <ele>655.2</ele>
        <time>2021-09-03T09:33:03Z</time>
      </trkpt>
      <trkpt lat="44.74005" lon="5.42941">
        <ele>655.4</ele>
        <time>2021-09-03T09:33:05Z</time>
      </trkpt>
      <trkpt lat="44.74002" lon="5.4294">
        <ele>655.6</ele>
        <time>2021-09-03T09:33:06Z</time>
      </trkpt>
      <trkpt lat="44.73998" lon="5.4294">
        <ele>655.9</ele>
        <time>2021-09-03T09:33:08Z</time>
      </trkpt>
      <trkpt lat="44.73997" lon="5.4294">
        <ele>656</ele>
        <time>2021-09-03T09:33:09Z</time>
      </trkpt>
      <trkpt lat="44.73995" lon="5.4294">
        <ele>656.2</ele>
        <time>2021-09-03T09:33:10Z</time>
      </trkpt>
      <trkpt lat="44.73992" lon="5.4294">
        <ele>656.4</ele>
        <time>2021-09-03T09:33:12Z</time>
      </trkpt>
      <trkpt lat="44.73989" lon="5.42939">
        <ele>656.7</ele>
        <time>2021-09-03T09:33:13Z</time>
      </trkpt>
      <trkpt lat="44.73987" lon="5.42939">
        <ele>656.8</ele>
        <time>2021-09-03T09:33:14Z</time>
      </trkpt>
      <trkpt lat="44.73986" lon="5.42939">
        <ele>656.9</ele>
        <time>2021-09-03T09:33:16Z</time>
      </trkpt>
      <trkpt lat="44.73986" lon="5.42939">
        <ele>656.9</ele>
        <time>2021-09-03T09:33:17Z</time>
      </trkpt>
      <trkpt lat="44.73985" lon="5.4294">
        <ele>657</ele>
        <time>2021-09-03T09:33:18Z</time>
      </trkpt>
      <trkpt lat="44.73984" lon="5.42941">
        <ele>657.1</ele>
        <time>2021-09-03T09:33:21Z</time>
      </trkpt>
      <trkpt lat="44.73983" lon="5.42942">
        <ele>657.2</ele>
        <time>2021-09-03T09:33:22Z</time>
      </trkpt>
      <trkpt lat="44.73981" lon="5.42943">
        <ele>657.4</ele>
        <time>2021-09-03T09:33:24Z</time>
      </trkpt>
      <trkpt lat="44.73977" lon="5.42944">
        <ele>657.8</ele>
        <time>2021-09-03T09:33:27Z</time>
      </trkpt>
      <trkpt lat="44.73973" lon="5.42945">
        <ele>658.1</ele>
        <time>2021-09-03T09:33:29Z</time>
      </trkpt>
      <trkpt lat="44.73968" lon="5.42945">
        <ele>658.5</ele>
        <time>2021-09-03T09:33:31Z</time>
      </trkpt>
      <trkpt lat="44.73965" lon="5.42945">
        <ele>658.8</ele>
        <time>2021-09-03T09:33:32Z</time>
      </trkpt>
      <trkpt lat="44.73962" lon="5.42945">
        <ele>659.1</ele>
        <time>2021-09-03T09:33:33Z</time>
      </trkpt>
      <trkpt lat="44.7396" lon="5.42945">
        <ele>659.2</ele>
        <time>2021-09-03T09:33:34Z</time>
      </trkpt>
      <trkpt lat="44.73959" lon="5.42945">
        <ele>659.4</ele>
        <time>2021-09-03T09:33:35Z</time>
      </trkpt>
      <trkpt lat="44.73954" lon="5.42945">
        <ele>659.8</ele>
        <time>2021-09-03T09:33:37Z</time>
      </trkpt>
      <trkpt lat="44.73951" lon="5.42947">
        <ele>660.1</ele>
        <time>2021-09-03T09:33:39Z</time>
      </trkpt>
      <trkpt lat="44.73947" lon="5.42948">
        <ele>660.5</ele>
        <time>2021-09-03T09:33:40Z</time>
      </trkpt>
      <trkpt lat="44.73941" lon="5.42948">
        <ele>661.1</ele>
        <time>2021-09-03T09:33:42Z</time>
      </trkpt>
      <trkpt lat="44.73936" lon="5.42949">
        <ele>661.6</ele>
        <time>2021-09-03T09:33:44Z</time>
      </trkpt>
      <trkpt lat="44.73933" lon="5.42949">
        <ele>661.9</ele>
        <time>2021-09-03T09:33:45Z</time>
      </trkpt>
      <trkpt lat="44.73931" lon="5.42948">
        <ele>662.1</ele>
        <time>2021-09-03T09:33:46Z</time>
      </trkpt>
      <trkpt lat="44.73928" lon="5.42948">
        <ele>662.5</ele>
        <time>2021-09-03T09:33:48Z</time>
      </trkpt>
      <trkpt lat="44.73927" lon="5.42948">
        <ele>662.7</ele>
        <time>2021-09-03T09:33:49Z</time>
      </trkpt>
      <trkpt lat="44.73925" lon="5.42948">
        <ele>662.9</ele>
        <time>2021-09-03T09:33:51Z</time>
      </trkpt>
      <trkpt lat="44.73924" lon="5.42948">
        <ele>663.1</ele>
        <time>2021-09-03T09:33:52Z</time>
      </trkpt>
      <trkpt lat="44.73922" lon="5.4295">
        <ele>663.2</ele>
        <time>2021-09-03T09:33:53Z</time>
      </trkpt>
      <trkpt lat="44.73921" lon="5.42952">
        <ele>663.5</ele>
        <time>2021-09-03T09:33:54Z</time>
      </trkpt>
      <trkpt lat="44.73919" lon="5.42956">
        <ele>663.9</ele>
        <time>2021-09-03T09:33:56Z</time>
      </trkpt>
      <trkpt lat="44.73918" lon="5.4296">
        <ele>664.2</ele>
        <time>2021-09-03T09:33:57Z</time>
      </trkpt>
      <trkpt lat="44.73917" lon="5.42961">
        <ele>664.3</ele>
        <time>2021-09-03T09:33:58Z</time>
      </trkpt>
      <trkpt lat="44.73914" lon="5.42963">
        <ele>664.6</ele>
        <time>2021-09-03T09:34:00Z</time>
      </trkpt>
      <trkpt lat="44.73913" lon="5.42965">
        <ele>664.7</ele>
        <time>2021-09-03T09:34:01Z</time>
      </trkpt>
      <trkpt lat="44.7391" lon="5.42969">
        <ele>665</ele>
        <time>2021-09-03T09:34:03Z</time>
      </trkpt>
      <trkpt lat="44.73909" lon="5.42971">
        <ele>665.1</ele>
        <time>2021-09-03T09:34:04Z</time>
      </trkpt>
      <trkpt lat="44.73907" lon="5.42976">
        <ele>665.3</ele>
        <time>2021-09-03T09:34:06Z</time>
      </trkpt>
      <trkpt lat="44.73905" lon="5.4298">
        <ele>665.4</ele>
        <time>2021-09-03T09:34:07Z</time>
      </trkpt>
      <trkpt lat="44.739" lon="5.42985">
        <ele>665.6</ele>
        <time>2021-09-03T09:34:09Z</time>
      </trkpt>
      <trkpt lat="44.73898" lon="5.42986">
        <ele>665.7</ele>
        <time>2021-09-03T09:34:10Z</time>
      </trkpt>
      <trkpt lat="44.73896" lon="5.42987">
        <ele>665.7</ele>
        <time>2021-09-03T09:34:11Z</time>
      </trkpt>
      <trkpt lat="44.73895" lon="5.42989">
        <ele>665.8</ele>
        <time>2021-09-03T09:34:12Z</time>
      </trkpt>
      <trkpt lat="44.73893" lon="5.42993">
        <ele>665.9</ele>
        <time>2021-09-03T09:34:14Z</time>
      </trkpt>
      <trkpt lat="44.73891" lon="5.42994">
        <ele>665.9</ele>
        <time>2021-09-03T09:34:15Z</time>
      </trkpt>
      <trkpt lat="44.73889" lon="5.42996">
        <ele>666.1</ele>
        <time>2021-09-03T09:34:17Z</time>
      </trkpt>
      <trkpt lat="44.73888" lon="5.42997">
        <ele>666.1</ele>
        <time>2021-09-03T09:34:18Z</time>
      </trkpt>
      <trkpt lat="44.73886" lon="5.42998">
        <ele>666.2</ele>
        <time>2021-09-03T09:34:19Z</time>
      </trkpt>
      <trkpt lat="44.73884" lon="5.43">
        <ele>666.3</ele>
        <time>2021-09-03T09:34:21Z</time>
      </trkpt>
      <trkpt lat="44.73882" lon="5.43002">
        <ele>666.5</ele>
        <time>2021-09-03T09:34:22Z</time>
      </trkpt>
      <trkpt lat="44.73879" lon="5.43004">
        <ele>666.7</ele>
        <time>2021-09-03T09:34:24Z</time>
      </trkpt>
      <trkpt lat="44.73876" lon="5.43005">
        <ele>666.9</ele>
        <time>2021-09-03T09:34:25Z</time>
      </trkpt>
      <trkpt lat="44.73875" lon="5.43005">
        <ele>667</ele>
        <time>2021-09-03T09:34:26Z</time>
      </trkpt>
      <trkpt lat="44.73873" lon="5.43007">
        <ele>667.3</ele>
        <time>2021-09-03T09:34:28Z</time>
      </trkpt>
      <trkpt lat="44.73872" lon="5.43007">
        <ele>667.3</ele>
        <time>2021-09-03T09:34:29Z</time>
      </trkpt>
      <trkpt lat="44.73872" lon="5.43008">
        <ele>667.3</ele>
        <time>2021-09-03T09:34:30Z</time>
      </trkpt>
      <trkpt lat="44.73871" lon="5.43008">
        <ele>667.4</ele>
        <time>2021-09-03T09:34:32Z</time>
      </trkpt>
      <trkpt lat="44.73871" lon="5.43007">
        <ele>667.4</ele>
        <time>2021-09-03T09:34:33Z</time>
      </trkpt>
      <trkpt lat="44.73871" lon="5.43007">
        <ele>667.4</ele>
        <time>2021-09-03T09:34:34Z</time>
      </trkpt>
      <trkpt lat="44.73869" lon="5.43008">
        <ele>667.6</ele>
        <time>2021-09-03T09:34:36Z</time>
      </trkpt>
      <trkpt lat="44.73868" lon="5.43009">
        <ele>667.7</ele>
        <time>2021-09-03T09:34:38Z</time>
      </trkpt>
      <trkpt lat="44.73867" lon="5.43009">
        <ele>667.8</ele>
        <time>2021-09-03T09:34:39Z</time>
      </trkpt>
      <trkpt lat="44.73856" lon="5.4301">
        <ele>669.2</ele>
        <time>2021-09-03T09:34:46Z</time>
      </trkpt>
      <trkpt lat="44.73853" lon="5.43009">
        <ele>669.6</ele>
        <time>2021-09-03T09:34:47Z</time>
      </trkpt>
      <trkpt lat="44.7385" lon="5.4301">
        <ele>670.2</ele>
        <time>2021-09-03T09:34:49Z</time>
      </trkpt>
      <trkpt lat="44.73847" lon="5.43011">
        <ele>670.6</ele>
        <time>2021-09-03T09:34:50Z</time>
      </trkpt>
      <trkpt lat="44.73846" lon="5.43012">
        <ele>670.7</ele>
        <time>2021-09-03T09:34:51Z</time>
      </trkpt>
      <trkpt lat="44.73846" lon="5.43013">
        <ele>670.8</ele>
        <time>2021-09-03T09:34:52Z</time>
      </trkpt>
      <trkpt lat="44.73846" lon="5.43014">
        <ele>670.9</ele>
        <time>2021-09-03T09:34:54Z</time>
      </trkpt>
      <trkpt lat="44.73846" lon="5.43015">
        <ele>670.9</ele>
        <time>2021-09-03T09:34:55Z</time>
      </trkpt>
      <trkpt lat="44.73846" lon="5.43015">
        <ele>671</ele>
        <time>2021-09-03T09:34:56Z</time>
      </trkpt>
      <trkpt lat="44.73846" lon="5.43016">
        <ele>671.1</ele>
        <time>2021-09-03T09:34:58Z</time>
      </trkpt>
      <trkpt lat="44.73846" lon="5.43017">
        <ele>671.2</ele>
        <time>2021-09-03T09:34:59Z</time>
      </trkpt>
      <trkpt lat="44.73846" lon="5.43018">
        <ele>671.3</ele>
        <time>2021-09-03T09:35:00Z</time>
      </trkpt>
      <trkpt lat="44.73825" lon="5.43061">
        <ele>676.2</ele>
        <time>2021-09-03T09:35:24Z</time>
      </trkpt>
      <trkpt lat="44.73822" lon="5.43064">
        <ele>676.6</ele>
        <time>2021-09-03T09:35:25Z</time>
      </trkpt>
      <trkpt lat="44.7382" lon="5.43069">
        <ele>677.1</ele>
        <time>2021-09-03T09:35:26Z</time>
      </trkpt>
      <trkpt lat="44.73816" lon="5.43077">
        <ele>678.1</ele>
        <time>2021-09-03T09:35:28Z</time>
      </trkpt>
      <trkpt lat="44.73816" lon="5.43078">
        <ele>678.2</ele>
        <time>2021-09-03T09:35:29Z</time>
      </trkpt>
      <trkpt lat="44.73815" lon="5.43078">
        <ele>678.2</ele>
        <time>2021-09-03T09:35:30Z</time>
      </trkpt>
      <trkpt lat="44.73814" lon="5.43078">
        <ele>678.4</ele>
        <time>2021-09-03T09:35:32Z</time>
      </trkpt>
      <trkpt lat="44.73813" lon="5.43078">
        <ele>678.5</ele>
        <time>2021-09-03T09:35:33Z</time>
      </trkpt>
      <trkpt lat="44.73812" lon="5.43078">
        <ele>678.6</ele>
        <time>2021-09-03T09:35:34Z</time>
      </trkpt>
      <trkpt lat="44.73812" lon="5.43078">
        <ele>678.7</ele>
        <time>2021-09-03T09:35:36Z</time>
      </trkpt>
      <trkpt lat="44.73811" lon="5.43078">
        <ele>678.8</ele>
        <time>2021-09-03T09:35:37Z</time>
      </trkpt>
      <trkpt lat="44.7381" lon="5.43079">
        <ele>678.9</ele>
        <time>2021-09-03T09:35:38Z</time>
      </trkpt>
      <trkpt lat="44.73809" lon="5.4308">
        <ele>679.1</ele>
        <time>2021-09-03T09:35:40Z</time>
      </trkpt>
      <trkpt lat="44.73808" lon="5.43079">
        <ele>679.2</ele>
        <time>2021-09-03T09:35:42Z</time>
      </trkpt>
      <trkpt lat="44.73807" lon="5.43079">
        <ele>679.3</ele>
        <time>2021-09-03T09:35:43Z</time>
      </trkpt>
      <trkpt lat="44.73806" lon="5.4308">
        <ele>679.4</ele>
        <time>2021-09-03T09:35:44Z</time>
      </trkpt>
      <trkpt lat="44.73804" lon="5.43079">
        <ele>679.7</ele>
        <time>2021-09-03T09:35:46Z</time>
      </trkpt>
      <trkpt lat="44.73803" lon="5.43079">
        <ele>679.9</ele>
        <time>2021-09-03T09:35:48Z</time>
      </trkpt>
      <trkpt lat="44.73802" lon="5.43079">
        <ele>680</ele>
        <time>2021-09-03T09:35:49Z</time>
      </trkpt>
      <trkpt lat="44.738" lon="5.4308">
        <ele>680.2</ele>
        <time>2021-09-03T09:35:50Z</time>
      </trkpt>
      <trkpt lat="44.73798" lon="5.4308">
        <ele>680.5</ele>
        <time>2021-09-03T09:35:52Z</time>
      </trkpt>
      <trkpt lat="44.73797" lon="5.43081">
        <ele>680.6</ele>
        <time>2021-09-03T09:35:53Z</time>
      </trkpt>
      <trkpt lat="44.73797" lon="5.43081">
        <ele>680.6</ele>
        <time>2021-09-03T09:35:54Z</time>
      </trkpt>
      <trkpt lat="44.73796" lon="5.43081">
        <ele>680.8</ele>
        <time>2021-09-03T09:35:56Z</time>
      </trkpt>
      <trkpt lat="44.73795" lon="5.43082">
        <ele>680.9</ele>
        <time>2021-09-03T09:35:57Z</time>
      </trkpt>
      <trkpt lat="44.73792" lon="5.43083">
        <ele>681.2</ele>
        <time>2021-09-03T09:35:58Z</time>
      </trkpt>
      <trkpt lat="44.73791" lon="5.43083">
        <ele>681.4</ele>
        <time>2021-09-03T09:35:59Z</time>
      </trkpt>
      <trkpt lat="44.73789" lon="5.43084">
        <ele>681.6</ele>
        <time>2021-09-03T09:36:00Z</time>
      </trkpt>
      <trkpt lat="44.73787" lon="5.43084">
        <ele>681.9</ele>
        <time>2021-09-03T09:36:02Z</time>
      </trkpt>
      <trkpt lat="44.73786" lon="5.43085">
        <ele>682</ele>
        <time>2021-09-03T09:36:03Z</time>
      </trkpt>
      <trkpt lat="44.73783" lon="5.43085">
        <ele>682.4</ele>
        <time>2021-09-03T09:36:05Z</time>
      </trkpt>
      <trkpt lat="44.73782" lon="5.43085">
        <ele>682.5</ele>
        <time>2021-09-03T09:36:06Z</time>
      </trkpt>
      <trkpt lat="44.73781" lon="5.43085">
        <ele>682.7</ele>
        <time>2021-09-03T09:36:08Z</time>
      </trkpt>
      <trkpt lat="44.7378" lon="5.43084">
        <ele>682.8</ele>
        <time>2021-09-03T09:36:09Z</time>
      </trkpt>
      <trkpt lat="44.73777" lon="5.43084">
        <ele>683.2</ele>
        <time>2021-09-03T09:36:11Z</time>
      </trkpt>
      <trkpt lat="44.73776" lon="5.43084">
        <ele>683.3</ele>
        <time>2021-09-03T09:36:12Z</time>
      </trkpt>
      <trkpt lat="44.73774" lon="5.43082">
        <ele>683.6</ele>
        <time>2021-09-03T09:36:14Z</time>
      </trkpt>
      <trkpt lat="44.73773" lon="5.43082">
        <ele>683.7</ele>
        <time>2021-09-03T09:36:15Z</time>
      </trkpt>
      <trkpt lat="44.73771" lon="5.43081">
        <ele>684</ele>
        <time>2021-09-03T09:36:17Z</time>
      </trkpt>
      <trkpt lat="44.7377" lon="5.4308">
        <ele>684.1</ele>
        <time>2021-09-03T09:36:19Z</time>
      </trkpt>
      <trkpt lat="44.7377" lon="5.4308">
        <ele>684.2</ele>
        <time>2021-09-03T09:36:20Z</time>
      </trkpt>
      <trkpt lat="44.73769" lon="5.4308">
        <ele>684.3</ele>
        <time>2021-09-03T09:36:21Z</time>
      </trkpt>
      <trkpt lat="44.73769" lon="5.43079">
        <ele>684.3</ele>
        <time>2021-09-03T09:36:23Z</time>
      </trkpt>
      <trkpt lat="44.73768" lon="5.43081">
        <ele>684.6</ele>
        <time>2021-09-03T09:36:25Z</time>
      </trkpt>
      <trkpt lat="44.73766" lon="5.43082">
        <ele>684.8</ele>
        <time>2021-09-03T09:36:26Z</time>
      </trkpt>
      <trkpt lat="44.73765" lon="5.43084">
        <ele>685.1</ele>
        <time>2021-09-03T09:36:27Z</time>
      </trkpt>
      <trkpt lat="44.73764" lon="5.43085">
        <ele>685.3</ele>
        <time>2021-09-03T09:36:29Z</time>
      </trkpt>
      <trkpt lat="44.73762" lon="5.43087">
        <ele>685.5</ele>
        <time>2021-09-03T09:36:30Z</time>
      </trkpt>
      <trkpt lat="44.73762" lon="5.43088">
        <ele>685.7</ele>
        <time>2021-09-03T09:36:31Z</time>
      </trkpt>
      <trkpt lat="44.7376" lon="5.43088">
        <ele>685.9</ele>
        <time>2021-09-03T09:36:32Z</time>
      </trkpt>
      <trkpt lat="44.73757" lon="5.43091">
        <ele>686.5</ele>
        <time>2021-09-03T09:36:34Z</time>
      </trkpt>
      <trkpt lat="44.73754" lon="5.43093">
        <ele>686.8</ele>
        <time>2021-09-03T09:36:36Z</time>
      </trkpt>
      <trkpt lat="44.73752" lon="5.43094">
        <ele>686.9</ele>
        <time>2021-09-03T09:36:37Z</time>
      </trkpt>
      <trkpt lat="44.7375" lon="5.43094">
        <ele>687.1</ele>
        <time>2021-09-03T09:36:38Z</time>
      </trkpt>
      <trkpt lat="44.73748" lon="5.43095">
        <ele>687.2</ele>
        <time>2021-09-03T09:36:39Z</time>
      </trkpt>
      <trkpt lat="44.73745" lon="5.43095">
        <ele>687.5</ele>
        <time>2021-09-03T09:36:41Z</time>
      </trkpt>
      <trkpt lat="44.73741" lon="5.43095">
        <ele>687.7</ele>
        <time>2021-09-03T09:36:42Z</time>
      </trkpt>
      <trkpt lat="44.73738" lon="5.43094">
        <ele>687.9</ele>
        <time>2021-09-03T09:36:43Z</time>
      </trkpt>
      <trkpt lat="44.73735" lon="5.43094">
        <ele>688.2</ele>
        <time>2021-09-03T09:36:45Z</time>
      </trkpt>
      <trkpt lat="44.73732" lon="5.43094">
        <ele>688.4</ele>
        <time>2021-09-03T09:36:46Z</time>
      </trkpt>
      <trkpt lat="44.73729" lon="5.43093">
        <ele>688.5</ele>
        <time>2021-09-03T09:36:47Z</time>
      </trkpt>
      <trkpt lat="44.73725" lon="5.43094">
        <ele>688.7</ele>
        <time>2021-09-03T09:36:49Z</time>
      </trkpt>
      <trkpt lat="44.73722" lon="5.43096">
        <ele>688.8</ele>
        <time>2021-09-03T09:36:50Z</time>
      </trkpt>
      <trkpt lat="44.7372" lon="5.43099">
        <ele>688.9</ele>
        <time>2021-09-03T09:36:52Z</time>
      </trkpt>
      <trkpt lat="44.73717" lon="5.43102">
        <ele>689</ele>
        <time>2021-09-03T09:36:53Z</time>
      </trkpt>
      <trkpt lat="44.73714" lon="5.43105">
        <ele>689.1</ele>
        <time>2021-09-03T09:36:54Z</time>
      </trkpt>
      <trkpt lat="44.7371" lon="5.43111">
        <ele>689.2</ele>
        <time>2021-09-03T09:36:56Z</time>
      </trkpt>
      <trkpt lat="44.73708" lon="5.43116">
        <ele>689.2</ele>
        <time>2021-09-03T09:36:57Z</time>
      </trkpt>
      <trkpt lat="44.73707" lon="5.43119">
        <ele>689.2</ele>
        <time>2021-09-03T09:36:58Z</time>
      </trkpt>
      <trkpt lat="44.73707" lon="5.43119">
        <ele>689.3</ele>
        <time>2021-09-03T09:36:59Z</time>
      </trkpt>
      <trkpt lat="44.73705" lon="5.43123">
        <ele>689.3</ele>
        <time>2021-09-03T09:37:01Z</time>
      </trkpt>
      <trkpt lat="44.73703" lon="5.43125">
        <ele>689.4</ele>
        <time>2021-09-03T09:37:02Z</time>
      </trkpt>
      <trkpt lat="44.73699" lon="5.43127">
        <ele>689.4</ele>
        <time>2021-09-03T09:37:04Z</time>
      </trkpt>
      <trkpt lat="44.73694" lon="5.43127">
        <ele>689.5</ele>
        <time>2021-09-03T09:37:05Z</time>
      </trkpt>
      <trkpt lat="44.7369" lon="5.43127">
        <ele>689.5</ele>
        <time>2021-09-03T09:37:07Z</time>
      </trkpt>
      <trkpt lat="44.73687" lon="5.43127">
        <ele>689.6</ele>
        <time>2021-09-03T09:37:08Z</time>
      </trkpt>
      <trkpt lat="44.73683" lon="5.43128">
        <ele>689.6</ele>
        <time>2021-09-03T09:37:09Z</time>
      </trkpt>
      <trkpt lat="44.73677" lon="5.4313">
        <ele>689.6</ele>
        <time>2021-09-03T09:37:11Z</time>
      </trkpt>
      <trkpt lat="44.73673" lon="5.43131">
        <ele>689.6</ele>
        <time>2021-09-03T09:37:12Z</time>
      </trkpt>
      <trkpt lat="44.73669" lon="5.43133">
        <ele>689.7</ele>
        <time>2021-09-03T09:37:14Z</time>
      </trkpt>
      <trkpt lat="44.73667" lon="5.43134">
        <ele>689.7</ele>
        <time>2021-09-03T09:37:15Z</time>
      </trkpt>
      <trkpt lat="44.73663" lon="5.43141">
        <ele>689.7</ele>
        <time>2021-09-03T09:37:17Z</time>
      </trkpt>
      <trkpt lat="44.73661" lon="5.43145">
        <ele>689.7</ele>
        <time>2021-09-03T09:37:19Z</time>
      </trkpt>
      <trkpt lat="44.73658" lon="5.43148">
        <ele>689.7</ele>
        <time>2021-09-03T09:37:20Z</time>
      </trkpt>
      <trkpt lat="44.73656" lon="5.4315">
        <ele>689.8</ele>
        <time>2021-09-03T09:37:21Z</time>
      </trkpt>
      <trkpt lat="44.73654" lon="5.43155">
        <ele>689.8</ele>
        <time>2021-09-03T09:37:23Z</time>
      </trkpt>
      <trkpt lat="44.7365" lon="5.4316">
        <ele>689.8</ele>
        <time>2021-09-03T09:37:24Z</time>
      </trkpt>
      <trkpt lat="44.73647" lon="5.43164">
        <ele>689.8</ele>
        <time>2021-09-03T09:37:25Z</time>
      </trkpt>
      <trkpt lat="44.73637" lon="5.43176">
        <ele>689.5</ele>
        <time>2021-09-03T09:37:27Z</time>
      </trkpt>
      <trkpt lat="44.73633" lon="5.43182">
        <ele>689.3</ele>
        <time>2021-09-03T09:37:28Z</time>
      </trkpt>
      <trkpt lat="44.73626" lon="5.43189">
        <ele>688.9</ele>
        <time>2021-09-03T09:37:30Z</time>
      </trkpt>
      <trkpt lat="44.73623" lon="5.43193">
        <ele>688.8</ele>
        <time>2021-09-03T09:37:32Z</time>
      </trkpt>
      <trkpt lat="44.73616" lon="5.43198">
        <ele>688.5</ele>
        <time>2021-09-03T09:37:33Z</time>
      </trkpt>
      <trkpt lat="44.73612" lon="5.43202">
        <ele>688.4</ele>
        <time>2021-09-03T09:37:35Z</time>
      </trkpt>
      <trkpt lat="44.7361" lon="5.43204">
        <ele>688.4</ele>
        <time>2021-09-03T09:37:36Z</time>
      </trkpt>
      <trkpt lat="44.73609" lon="5.43205">
        <ele>688.4</ele>
        <time>2021-09-03T09:37:38Z</time>
      </trkpt>
      <trkpt lat="44.73607" lon="5.43207">
        <ele>688.4</ele>
        <time>2021-09-03T09:37:40Z</time>
      </trkpt>
      <trkpt lat="44.73606" lon="5.43208">
        <ele>688.4</ele>
        <time>2021-09-03T09:37:41Z</time>
      </trkpt>
      <trkpt lat="44.73606" lon="5.43209">
        <ele>688.4</ele>
        <time>2021-09-03T09:37:42Z</time>
      </trkpt>
      <trkpt lat="44.73605" lon="5.43213">
        <ele>688.4</ele>
        <time>2021-09-03T09:37:44Z</time>
      </trkpt>
      <trkpt lat="44.73604" lon="5.43216">
        <ele>688.4</ele>
        <time>2021-09-03T09:37:45Z</time>
      </trkpt>
      <trkpt lat="44.73604" lon="5.4322">
        <ele>688.4</ele>
        <time>2021-09-03T09:37:47Z</time>
      </trkpt>
      <trkpt lat="44.73604" lon="5.43226">
        <ele>688.5</ele>
        <time>2021-09-03T09:37:48Z</time>
      </trkpt>
      <trkpt lat="44.73604" lon="5.43227">
        <ele>688.5</ele>
        <time>2021-09-03T09:37:49Z</time>
      </trkpt>
      <trkpt lat="44.73603" lon="5.43234">
        <ele>688.7</ele>
        <time>2021-09-03T09:37:51Z</time>
      </trkpt>
      <trkpt lat="44.73602" lon="5.43238">
        <ele>688.8</ele>
        <time>2021-09-03T09:37:52Z</time>
      </trkpt>
      <trkpt lat="44.73601" lon="5.43242">
        <ele>688.9</ele>
        <time>2021-09-03T09:37:53Z</time>
      </trkpt>
      <trkpt lat="44.736" lon="5.43246">
        <ele>689.1</ele>
        <time>2021-09-03T09:37:55Z</time>
      </trkpt>
      <trkpt lat="44.73599" lon="5.4325">
        <ele>689.3</ele>
        <time>2021-09-03T09:37:56Z</time>
      </trkpt>
      <trkpt lat="44.73598" lon="5.43253">
        <ele>689.4</ele>
        <time>2021-09-03T09:37:58Z</time>
      </trkpt>
      <trkpt lat="44.73598" lon="5.43255">
        <ele>689.5</ele>
        <time>2021-09-03T09:37:59Z</time>
      </trkpt>
      <trkpt lat="44.73597" lon="5.43256">
        <ele>689.5</ele>
        <time>2021-09-03T09:38:00Z</time>
      </trkpt>
      <trkpt lat="44.73597" lon="5.43257">
        <ele>689.6</ele>
        <time>2021-09-03T09:38:02Z</time>
      </trkpt>
      <trkpt lat="44.73596" lon="5.43257">
        <ele>689.6</ele>
        <time>2021-09-03T09:38:03Z</time>
      </trkpt>
      <trkpt lat="44.73596" lon="5.43258">
        <ele>689.6</ele>
        <time>2021-09-03T09:38:04Z</time>
      </trkpt>
      <trkpt lat="44.73596" lon="5.43259">
        <ele>689.7</ele>
        <time>2021-09-03T09:38:06Z</time>
      </trkpt>
      <trkpt lat="44.73606" lon="5.43244">
        <ele>688.9</ele>
        <time>2021-09-03T09:38:50Z</time>
      </trkpt>
      <trkpt lat="44.73606" lon="5.43238">
        <ele>688.7</ele>
        <time>2021-09-03T09:38:52Z</time>
      </trkpt>
      <trkpt lat="44.73607" lon="5.43232">
        <ele>688.5</ele>
        <time>2021-09-03T09:38:54Z</time>
      </trkpt>
      <trkpt lat="44.73609" lon="5.43228">
        <ele>688.5</ele>
        <time>2021-09-03T09:38:55Z</time>
      </trkpt>
      <trkpt lat="44.7361" lon="5.43227">
        <ele>688.4</ele>
        <time>2021-09-03T09:38:56Z</time>
      </trkpt>
      <trkpt lat="44.73613" lon="5.43222">
        <ele>688.4</ele>
        <time>2021-09-03T09:38:58Z</time>
      </trkpt>
      <trkpt lat="44.73615" lon="5.43217">
        <ele>688.4</ele>
        <time>2021-09-03T09:38:59Z</time>
      </trkpt>
      <trkpt lat="44.73615" lon="5.43216">
        <ele>688.4</ele>
        <time>2021-09-03T09:39:00Z</time>
      </trkpt>
      <trkpt lat="44.73616" lon="5.43211">
        <ele>688.4</ele>
        <time>2021-09-03T09:39:02Z</time>
      </trkpt>
      <trkpt lat="44.73616" lon="5.43207">
        <ele>688.4</ele>
        <time>2021-09-03T09:39:04Z</time>
      </trkpt>
      <trkpt lat="44.73617" lon="5.43205">
        <ele>688.4</ele>
        <time>2021-09-03T09:39:05Z</time>
      </trkpt>
      <trkpt lat="44.73617" lon="5.43203">
        <ele>688.4</ele>
        <time>2021-09-03T09:39:06Z</time>
      </trkpt>
      <trkpt lat="44.73615" lon="5.43199">
        <ele>689.4</ele>
        <time>2021-09-03T09:39:08Z</time>
      </trkpt>
      <trkpt lat="44.73615" lon="5.43197">
        <ele>689.9</ele>
        <time>2021-09-03T09:39:09Z</time>
      </trkpt>
      <trkpt lat="44.73615" lon="5.43195">
        <ele>689.8</ele>
        <time>2021-09-03T09:39:10Z</time>
      </trkpt>
      <trkpt lat="44.73615" lon="5.43193">
        <ele>689.8</ele>
        <time>2021-09-03T09:39:11Z</time>
      </trkpt>
      <trkpt lat="44.73614" lon="5.43191">
        <ele>690.3</ele>
        <time>2021-09-03T09:39:12Z</time>
      </trkpt>
      <trkpt lat="44.73612" lon="5.43188">
        <ele>691.4</ele>
        <time>2021-09-03T09:39:13Z</time>
      </trkpt>
      <trkpt lat="44.73612" lon="5.43184">
        <ele>692</ele>
        <time>2021-09-03T09:39:15Z</time>
      </trkpt>
      <trkpt lat="44.73613" lon="5.43181">
        <ele>691.4</ele>
        <time>2021-09-03T09:39:17Z</time>
      </trkpt>
      <trkpt lat="44.73613" lon="5.43182">
        <ele>691.4</ele>
        <time>2021-09-03T09:39:18Z</time>
      </trkpt>
      <trkpt lat="44.73613" lon="5.4318">
        <ele>691.3</ele>
        <time>2021-09-03T09:39:20Z</time>
      </trkpt>
      <trkpt lat="44.73613" lon="5.43178">
        <ele>691.9</ele>
        <time>2021-09-03T09:39:21Z</time>
      </trkpt>
      <trkpt lat="44.73613" lon="5.43176">
        <ele>691.8</ele>
        <time>2021-09-03T09:39:22Z</time>
      </trkpt>
      <trkpt lat="44.73613" lon="5.43174">
        <ele>693</ele>
        <time>2021-09-03T09:39:23Z</time>
      </trkpt>
      <trkpt lat="44.73612" lon="5.43172">
        <ele>692.9</ele>
        <time>2021-09-03T09:39:24Z</time>
      </trkpt>
      <trkpt lat="44.73612" lon="5.4317">
        <ele>693.5</ele>
        <time>2021-09-03T09:39:26Z</time>
      </trkpt>
      <trkpt lat="44.73612" lon="5.43168">
        <ele>693.5</ele>
        <time>2021-09-03T09:39:37Z</time>
      </trkpt>
      <trkpt lat="44.73612" lon="5.43166">
        <ele>694.1</ele>
        <time>2021-09-03T09:39:38Z</time>
      </trkpt>
      <trkpt lat="44.73612" lon="5.43162">
        <ele>694.7</ele>
        <time>2021-09-03T09:39:39Z</time>
      </trkpt>
      <trkpt lat="44.73611" lon="5.4316">
        <ele>694.6</ele>
        <time>2021-09-03T09:39:41Z</time>
      </trkpt>
      <trkpt lat="44.73611" lon="5.43158">
        <ele>695.2</ele>
        <time>2021-09-03T09:39:42Z</time>
      </trkpt>
      <trkpt lat="44.7361" lon="5.43156">
        <ele>695.1</ele>
        <time>2021-09-03T09:39:44Z</time>
      </trkpt>
      <trkpt lat="44.7361" lon="5.43155">
        <ele>695</ele>
        <time>2021-09-03T09:39:46Z</time>
      </trkpt>
      <trkpt lat="44.7361" lon="5.43154">
        <ele>694.9</ele>
        <time>2021-09-03T09:39:47Z</time>
      </trkpt>
      <trkpt lat="44.73609" lon="5.43153">
        <ele>696.1</ele>
        <time>2021-09-03T09:39:48Z</time>
      </trkpt>
      <trkpt lat="44.73618" lon="5.43131">
        <ele>697.9</ele>
        <time>2021-09-03T09:40:11Z</time>
      </trkpt>
      <trkpt lat="44.73616" lon="5.4313">
        <ele>697.8</ele>
        <time>2021-09-03T09:40:12Z</time>
      </trkpt>
      <trkpt lat="44.73611" lon="5.43128">
        <ele>699.7</ele>
        <time>2021-09-03T09:40:13Z</time>
      </trkpt>
      <trkpt lat="44.73606" lon="5.43126">
        <ele>700.8</ele>
        <time>2021-09-03T09:40:15Z</time>
      </trkpt>
      <trkpt lat="44.73602" lon="5.43127">
        <ele>701.2</ele>
        <time>2021-09-03T09:40:16Z</time>
      </trkpt>
      <trkpt lat="44.73599" lon="5.43128">
        <ele>701.6</ele>
        <time>2021-09-03T09:40:18Z</time>
      </trkpt>
      <trkpt lat="44.73597" lon="5.43128">
        <ele>702</ele>
        <time>2021-09-03T09:40:20Z</time>
      </trkpt>
      <trkpt lat="44.73595" lon="5.43129">
        <ele>701.2</ele>
        <time>2021-09-03T09:40:22Z</time>
      </trkpt>
      <trkpt lat="44.73593" lon="5.4313">
        <ele>701.7</ele>
        <time>2021-09-03T09:40:23Z</time>
      </trkpt>
      <trkpt lat="44.73591" lon="5.43135">
        <ele>701.4</ele>
        <time>2021-09-03T09:40:25Z</time>
      </trkpt>
      <trkpt lat="44.73588" lon="5.43138">
        <ele>700.6</ele>
        <time>2021-09-03T09:40:26Z</time>
      </trkpt>
      <trkpt lat="44.73587" lon="5.4314">
        <ele>701.2</ele>
        <time>2021-09-03T09:40:28Z</time>
      </trkpt>
      <trkpt lat="44.73586" lon="5.4314">
        <ele>701.1</ele>
        <time>2021-09-03T09:40:29Z</time>
      </trkpt>
      <trkpt lat="44.73585" lon="5.43141">
        <ele>701</ele>
        <time>2021-09-03T09:40:30Z</time>
      </trkpt>
      <trkpt lat="44.73583" lon="5.43141">
        <ele>700.9</ele>
        <time>2021-09-03T09:40:31Z</time>
      </trkpt>
      <trkpt lat="44.73581" lon="5.43143">
        <ele>701.4</ele>
        <time>2021-09-03T09:40:33Z</time>
      </trkpt>
      <trkpt lat="44.73577" lon="5.43143">
        <ele>702</ele>
        <time>2021-09-03T09:40:35Z</time>
      </trkpt>
      <trkpt lat="44.73572" lon="5.43144">
        <ele>703.2</ele>
        <time>2021-09-03T09:40:36Z</time>
      </trkpt>
      <trkpt lat="44.73568" lon="5.43145">
        <ele>703.1</ele>
        <time>2021-09-03T09:40:38Z</time>
      </trkpt>
      <trkpt lat="44.73565" lon="5.43148">
        <ele>703.6</ele>
        <time>2021-09-03T09:40:40Z</time>
      </trkpt>
      <trkpt lat="44.73564" lon="5.43149">
        <ele>703.6</ele>
        <time>2021-09-03T09:40:41Z</time>
      </trkpt>
      <trkpt lat="44.73563" lon="5.4315">
        <ele>703.5</ele>
        <time>2021-09-03T09:40:42Z</time>
      </trkpt>
      <trkpt lat="44.73563" lon="5.4315">
        <ele>703.5</ele>
        <time>2021-09-03T09:40:43Z</time>
      </trkpt>
      <trkpt lat="44.73563" lon="5.43151">
        <ele>703.4</ele>
        <time>2021-09-03T09:40:45Z</time>
      </trkpt>
      <trkpt lat="44.73563" lon="5.43151">
        <ele>703.3</ele>
        <time>2021-09-03T09:40:46Z</time>
      </trkpt>
      <trkpt lat="44.73562" lon="5.43151">
        <ele>703.2</ele>
        <time>2021-09-03T09:40:47Z</time>
      </trkpt>
      <trkpt lat="44.73562" lon="5.43152">
        <ele>703.2</ele>
        <time>2021-09-03T09:40:48Z</time>
      </trkpt>
      <trkpt lat="44.73542" lon="5.43159">
        <ele>707</ele>
        <time>2021-09-03T09:41:03Z</time>
      </trkpt>
      <trkpt lat="44.7354" lon="5.43163">
        <ele>706.4</ele>
        <time>2021-09-03T09:41:04Z</time>
      </trkpt>
      <trkpt lat="44.73538" lon="5.43165">
        <ele>707.1</ele>
        <time>2021-09-03T09:41:06Z</time>
      </trkpt>
      <trkpt lat="44.73537" lon="5.43166">
        <ele>707</ele>
        <time>2021-09-03T09:41:07Z</time>
      </trkpt>
      <trkpt lat="44.73536" lon="5.43168">
        <ele>707.2</ele>
        <time>2021-09-03T09:41:09Z</time>
      </trkpt>
      <trkpt lat="44.73535" lon="5.43169">
        <ele>707.1</ele>
        <time>2021-09-03T09:41:10Z</time>
      </trkpt>
      <trkpt lat="44.73534" lon="5.43172">
        <ele>706.4</ele>
        <time>2021-09-03T09:41:11Z</time>
      </trkpt>
      <trkpt lat="44.73533" lon="5.43175">
        <ele>707.3</ele>
        <time>2021-09-03T09:41:13Z</time>
      </trkpt>
      <trkpt lat="44.73532" lon="5.43177">
        <ele>706.7</ele>
        <time>2021-09-03T09:41:15Z</time>
      </trkpt>
      <trkpt lat="44.73532" lon="5.43178">
        <ele>706.6</ele>
        <time>2021-09-03T09:41:16Z</time>
      </trkpt>
      <trkpt lat="44.73532" lon="5.43179">
        <ele>706.6</ele>
        <time>2021-09-03T09:41:17Z</time>
      </trkpt>
      <trkpt lat="44.73531" lon="5.4318">
        <ele>706</ele>
        <time>2021-09-03T09:41:18Z</time>
      </trkpt>
      <trkpt lat="44.7353" lon="5.43181">
        <ele>707</ele>
        <time>2021-09-03T09:41:20Z</time>
      </trkpt>
      <trkpt lat="44.73527" lon="5.43181">
        <ele>708</ele>
        <time>2021-09-03T09:41:22Z</time>
      </trkpt>
      <trkpt lat="44.73523" lon="5.43182">
        <ele>709</ele>
        <time>2021-09-03T09:41:23Z</time>
      </trkpt>
      <trkpt lat="44.73519" lon="5.43182">
        <ele>710</ele>
        <time>2021-09-03T09:41:25Z</time>
      </trkpt>
      <trkpt lat="44.73517" lon="5.43182">
        <ele>710.9</ele>
        <time>2021-09-03T09:41:26Z</time>
      </trkpt>
      <trkpt lat="44.73516" lon="5.43182">
        <ele>710.8</ele>
        <time>2021-09-03T09:41:27Z</time>
      </trkpt>
      <trkpt lat="44.73513" lon="5.43182">
        <ele>711.7</ele>
        <time>2021-09-03T09:41:28Z</time>
      </trkpt>
      <trkpt lat="44.7351" lon="5.43182">
        <ele>712.6</ele>
        <time>2021-09-03T09:41:30Z</time>
      </trkpt>
      <trkpt lat="44.73505" lon="5.43184">
        <ele>714.7</ele>
        <time>2021-09-03T09:41:32Z</time>
      </trkpt>
      <trkpt lat="44.73502" lon="5.43184">
        <ele>715.3</ele>
        <time>2021-09-03T09:41:33Z</time>
      </trkpt>
      <trkpt lat="44.73499" lon="5.43185">
        <ele>716.4</ele>
        <time>2021-09-03T09:41:34Z</time>
      </trkpt>
      <trkpt lat="44.73495" lon="5.43188">
        <ele>717.5</ele>
        <time>2021-09-03T09:41:36Z</time>
      </trkpt>
      <trkpt lat="44.73493" lon="5.4319">
        <ele>717.9</ele>
        <time>2021-09-03T09:41:37Z</time>
      </trkpt>
      <trkpt lat="44.73492" lon="5.4319">
        <ele>717.9</ele>
        <time>2021-09-03T09:41:38Z</time>
      </trkpt>
      <trkpt lat="44.7349" lon="5.43191">
        <ele>718.8</ele>
        <time>2021-09-03T09:41:39Z</time>
      </trkpt>
      <trkpt lat="44.7349" lon="5.43191">
        <ele>718.7</ele>
        <time>2021-09-03T09:41:40Z</time>
      </trkpt>
      <trkpt lat="44.7349" lon="5.4319">
        <ele>718.7</ele>
        <time>2021-09-03T09:41:42Z</time>
      </trkpt>
      <trkpt lat="44.73489" lon="5.4319">
        <ele>718.6</ele>
        <time>2021-09-03T09:41:43Z</time>
      </trkpt>
      <trkpt lat="44.73489" lon="5.43189">
        <ele>718.5</ele>
        <time>2021-09-03T09:41:45Z</time>
      </trkpt>
      <trkpt lat="44.73489" lon="5.43188">
        <ele>718.5</ele>
        <time>2021-09-03T09:41:47Z</time>
      </trkpt>
      <trkpt lat="44.73489" lon="5.43188">
        <ele>718.9</ele>
        <time>2021-09-03T09:41:48Z</time>
      </trkpt>
      <trkpt lat="44.73489" lon="5.43187">
        <ele>718.8</ele>
        <time>2021-09-03T09:41:50Z</time>
      </trkpt>
      <trkpt lat="44.73489" lon="5.43187">
        <ele>718.8</ele>
        <time>2021-09-03T09:41:51Z</time>
      </trkpt>
      <trkpt lat="44.73489" lon="5.43186">
        <ele>718.7</ele>
        <time>2021-09-03T09:41:53Z</time>
      </trkpt>
      <trkpt lat="44.73488" lon="5.43186">
        <ele>718.6</ele>
        <time>2021-09-03T09:41:54Z</time>
      </trkpt>
      <trkpt lat="44.73488" lon="5.43185">
        <ele>718.5</ele>
        <time>2021-09-03T09:41:56Z</time>
      </trkpt>
      <trkpt lat="44.73489" lon="5.43185">
        <ele>718.5</ele>
        <time>2021-09-03T09:41:57Z</time>
      </trkpt>
      <trkpt lat="44.73489" lon="5.43185">
        <ele>718.4</ele>
        <time>2021-09-03T09:41:58Z</time>
      </trkpt>
      <trkpt lat="44.73489" lon="5.43185">
        <ele>718.3</ele>
        <time>2021-09-03T09:42:00Z</time>
      </trkpt>
      <trkpt lat="44.73489" lon="5.43184">
        <ele>718.8</ele>
        <time>2021-09-03T09:42:01Z</time>
      </trkpt>
      <trkpt lat="44.73488" lon="5.43182">
        <ele>718.7</ele>
        <time>2021-09-03T09:42:03Z</time>
      </trkpt>
      <trkpt lat="44.73488" lon="5.43181">
        <ele>718.6</ele>
        <time>2021-09-03T09:42:04Z</time>
      </trkpt>
      <trkpt lat="44.73488" lon="5.43179">
        <ele>719.1</ele>
        <time>2021-09-03T09:42:05Z</time>
      </trkpt>
      <trkpt lat="44.7343" lon="5.43168">
        <ele>740.3</ele>
        <time>2021-09-03T09:44:29Z</time>
      </trkpt>
      <trkpt lat="44.73429" lon="5.43172">
        <ele>740.6</ele>
        <time>2021-09-03T09:44:30Z</time>
      </trkpt>
      <trkpt lat="44.73427" lon="5.43174">
        <ele>740.9</ele>
        <time>2021-09-03T09:44:32Z</time>
      </trkpt>
      <trkpt lat="44.73426" lon="5.43175">
        <ele>741</ele>
        <time>2021-09-03T09:44:33Z</time>
      </trkpt>
      <trkpt lat="44.73425" lon="5.43176">
        <ele>741.1</ele>
        <time>2021-09-03T09:44:34Z</time>
      </trkpt>
      <trkpt lat="44.73424" lon="5.43177">
        <ele>741.2</ele>
        <time>2021-09-03T09:44:35Z</time>
      </trkpt>
      <trkpt lat="44.73424" lon="5.43177">
        <ele>741.3</ele>
        <time>2021-09-03T09:44:36Z</time>
      </trkpt>
      <trkpt lat="44.73423" lon="5.43177">
        <ele>741.4</ele>
        <time>2021-09-03T09:44:38Z</time>
      </trkpt>
      <trkpt lat="44.73423" lon="5.43177">
        <ele>741.4</ele>
        <time>2021-09-03T09:44:39Z</time>
      </trkpt>
      <trkpt lat="44.73423" lon="5.43177">
        <ele>741.4</ele>
        <time>2021-09-03T09:44:40Z</time>
      </trkpt>
      <trkpt lat="44.73423" lon="5.43177">
        <ele>741.4</ele>
        <time>2021-09-03T09:44:41Z</time>
      </trkpt>
      <trkpt lat="44.73423" lon="5.43177">
        <ele>741.4</ele>
        <time>2021-09-03T09:44:43Z</time>
      </trkpt>
      <trkpt lat="44.73422" lon="5.43179">
        <ele>741.6</ele>
        <time>2021-09-03T09:44:44Z</time>
      </trkpt>
      <trkpt lat="44.73418" lon="5.43227">
        <ele>745.2</ele>
        <time>2021-09-03T09:45:08Z</time>
      </trkpt>
      <trkpt lat="44.73417" lon="5.4323">
        <ele>745.4</ele>
        <time>2021-09-03T09:45:09Z</time>
      </trkpt>
      <trkpt lat="44.73417" lon="5.43232">
        <ele>745.6</ele>
        <time>2021-09-03T09:45:10Z</time>
      </trkpt>
      <trkpt lat="44.73417" lon="5.43233">
        <ele>745.7</ele>
        <time>2021-09-03T09:45:12Z</time>
      </trkpt>
      <trkpt lat="44.73416" lon="5.43235">
        <ele>745.9</ele>
        <time>2021-09-03T09:45:13Z</time>
      </trkpt>
      <trkpt lat="44.73416" lon="5.43237">
        <ele>746</ele>
        <time>2021-09-03T09:45:14Z</time>
      </trkpt>
      <trkpt lat="44.73415" lon="5.43239">
        <ele>746.3</ele>
        <time>2021-09-03T09:45:15Z</time>
      </trkpt>
      <trkpt lat="44.73414" lon="5.43241">
        <ele>746.4</ele>
        <time>2021-09-03T09:45:16Z</time>
      </trkpt>
      <trkpt lat="44.73413" lon="5.43242">
        <ele>746.5</ele>
        <time>2021-09-03T09:45:18Z</time>
      </trkpt>
      <trkpt lat="44.73413" lon="5.43242">
        <ele>746.6</ele>
        <time>2021-09-03T09:45:19Z</time>
      </trkpt>
      <trkpt lat="44.73413" lon="5.43243">
        <ele>746.6</ele>
        <time>2021-09-03T09:45:21Z</time>
      </trkpt>
      <trkpt lat="44.73412" lon="5.43245">
        <ele>746.8</ele>
        <time>2021-09-03T09:45:22Z</time>
      </trkpt>
      <trkpt lat="44.73411" lon="5.43247">
        <ele>747</ele>
        <time>2021-09-03T09:45:23Z</time>
      </trkpt>
      <trkpt lat="44.7341" lon="5.43249">
        <ele>747.1</ele>
        <time>2021-09-03T09:45:24Z</time>
      </trkpt>
      <trkpt lat="44.7341" lon="5.4325">
        <ele>747.2</ele>
        <time>2021-09-03T09:45:25Z</time>
      </trkpt>
      <trkpt lat="44.73409" lon="5.43251">
        <ele>747.3</ele>
        <time>2021-09-03T09:45:27Z</time>
      </trkpt>
      <trkpt lat="44.73408" lon="5.43251">
        <ele>747.4</ele>
        <time>2021-09-03T09:45:28Z</time>
      </trkpt>
      <trkpt lat="44.73407" lon="5.43251">
        <ele>747.7</ele>
        <time>2021-09-03T09:45:29Z</time>
      </trkpt>
      <trkpt lat="44.73405" lon="5.43251">
        <ele>747.9</ele>
        <time>2021-09-03T09:45:31Z</time>
      </trkpt>
      <trkpt lat="44.73404" lon="5.43252">
        <ele>748</ele>
        <time>2021-09-03T09:45:32Z</time>
      </trkpt>
      <trkpt lat="44.73403" lon="5.43252">
        <ele>748.2</ele>
        <time>2021-09-03T09:45:33Z</time>
      </trkpt>
      <trkpt lat="44.73402" lon="5.43253">
        <ele>748.3</ele>
        <time>2021-09-03T09:45:34Z</time>
      </trkpt>
      <trkpt lat="44.73391" lon="5.4325">
        <ele>749.8</ele>
        <time>2021-09-03T09:45:43Z</time>
      </trkpt>
      <trkpt lat="44.73391" lon="5.4325">
        <ele>749.8</ele>
        <time>2021-09-03T09:45:44Z</time>
      </trkpt>
      <trkpt lat="44.73392" lon="5.43249">
        <ele>749.9</ele>
        <time>2021-09-03T09:45:46Z</time>
      </trkpt>
      <trkpt lat="44.73392" lon="5.43249">
        <ele>749.9</ele>
        <time>2021-09-03T09:45:47Z</time>
      </trkpt>
      <trkpt lat="44.73392" lon="5.43248">
        <ele>750</ele>
        <time>2021-09-03T09:45:48Z</time>
      </trkpt>
      <trkpt lat="44.73392" lon="5.43248">
        <ele>750</ele>
        <time>2021-09-03T09:45:49Z</time>
      </trkpt>
      <trkpt lat="44.73392" lon="5.43248">
        <ele>750</ele>
        <time>2021-09-03T09:45:50Z</time>
      </trkpt>
      <trkpt lat="44.73391" lon="5.43248">
        <ele>750.1</ele>
        <time>2021-09-03T09:45:52Z</time>
      </trkpt>
      <trkpt lat="44.73391" lon="5.43247">
        <ele>750.2</ele>
        <time>2021-09-03T09:45:53Z</time>
      </trkpt>
      <trkpt lat="44.7339" lon="5.43246">
        <ele>750.4</ele>
        <time>2021-09-03T09:45:54Z</time>
      </trkpt>
      <trkpt lat="44.73389" lon="5.43245">
        <ele>750.5</ele>
        <time>2021-09-03T09:45:55Z</time>
      </trkpt>
      <trkpt lat="44.73389" lon="5.43244">
        <ele>750.6</ele>
        <time>2021-09-03T09:45:57Z</time>
      </trkpt>
      <trkpt lat="44.73389" lon="5.43244">
        <ele>750.7</ele>
        <time>2021-09-03T09:45:58Z</time>
      </trkpt>
      <trkpt lat="44.73389" lon="5.43243">
        <ele>750.8</ele>
        <time>2021-09-03T09:46:00Z</time>
      </trkpt>
      <trkpt lat="44.73388" lon="5.43242">
        <ele>750.8</ele>
        <time>2021-09-03T09:46:01Z</time>
      </trkpt>
      <trkpt lat="44.73388" lon="5.43242">
        <ele>750.9</ele>
        <time>2021-09-03T09:46:03Z</time>
      </trkpt>
      <trkpt lat="44.73388" lon="5.43242">
        <ele>750.9</ele>
        <time>2021-09-03T09:46:05Z</time>
      </trkpt>
      <trkpt lat="44.73388" lon="5.43241">
        <ele>750.9</ele>
        <time>2021-09-03T09:46:06Z</time>
      </trkpt>
      <trkpt lat="44.73388" lon="5.43241">
        <ele>751</ele>
        <time>2021-09-03T09:46:08Z</time>
      </trkpt>
      <trkpt lat="44.73388" lon="5.43241">
        <ele>751</ele>
        <time>2021-09-03T09:46:10Z</time>
      </trkpt>
      <trkpt lat="44.73388" lon="5.4324">
        <ele>751.1</ele>
        <time>2021-09-03T09:46:12Z</time>
      </trkpt>
      <trkpt lat="44.73388" lon="5.43238">
        <ele>751.3</ele>
        <time>2021-09-03T09:46:13Z</time>
      </trkpt>
      <trkpt lat="44.73388" lon="5.43236">
        <ele>751.5</ele>
        <time>2021-09-03T09:46:14Z</time>
      </trkpt>
      <trkpt lat="44.73387" lon="5.43233">
        <ele>751.8</ele>
        <time>2021-09-03T09:46:15Z</time>
      </trkpt>
      <trkpt lat="44.73387" lon="5.4323">
        <ele>752.1</ele>
        <time>2021-09-03T09:46:16Z</time>
      </trkpt>
      <trkpt lat="44.73387" lon="5.43228">
        <ele>752.3</ele>
        <time>2021-09-03T09:46:18Z</time>
      </trkpt>
      <trkpt lat="44.73387" lon="5.43227">
        <ele>752.4</ele>
        <time>2021-09-03T09:46:19Z</time>
      </trkpt>
      <trkpt lat="44.73388" lon="5.43223">
        <ele>752.8</ele>
        <time>2021-09-03T09:46:21Z</time>
      </trkpt>
      <trkpt lat="44.73388" lon="5.43218">
        <ele>753.3</ele>
        <time>2021-09-03T09:46:22Z</time>
      </trkpt>
      <trkpt lat="44.73388" lon="5.43213">
        <ele>753.8</ele>
        <time>2021-09-03T09:46:24Z</time>
      </trkpt>
      <trkpt lat="44.73386" lon="5.43208">
        <ele>754.3</ele>
        <time>2021-09-03T09:46:26Z</time>
      </trkpt>
      <trkpt lat="44.73383" lon="5.43202">
        <ele>754.9</ele>
        <time>2021-09-03T09:46:28Z</time>
      </trkpt>
      <trkpt lat="44.73383" lon="5.43199">
        <ele>755.1</ele>
        <time>2021-09-03T09:46:29Z</time>
      </trkpt>
      <trkpt lat="44.73382" lon="5.43198">
        <ele>755.2</ele>
        <time>2021-09-03T09:46:31Z</time>
      </trkpt>
      <trkpt lat="44.73382" lon="5.43197">
        <ele>755.3</ele>
        <time>2021-09-03T09:46:32Z</time>
      </trkpt>
      <trkpt lat="44.73381" lon="5.43196">
        <ele>755.4</ele>
        <time>2021-09-03T09:46:33Z</time>
      </trkpt>
      <trkpt lat="44.73381" lon="5.43195">
        <ele>755.5</ele>
        <time>2021-09-03T09:46:35Z</time>
      </trkpt>
      <trkpt lat="44.73381" lon="5.43194">
        <ele>755.6</ele>
        <time>2021-09-03T09:46:36Z</time>
      </trkpt>
      <trkpt lat="44.73381" lon="5.43193">
        <ele>755.7</ele>
        <time>2021-09-03T09:46:37Z</time>
      </trkpt>
      <trkpt lat="44.73381" lon="5.43192">
        <ele>755.8</ele>
        <time>2021-09-03T09:46:39Z</time>
      </trkpt>
      <trkpt lat="44.73387" lon="5.43151">
        <ele>759</ele>
        <time>2021-09-03T09:47:04Z</time>
      </trkpt>
      <trkpt lat="44.73389" lon="5.43145">
        <ele>759.4</ele>
        <time>2021-09-03T09:47:06Z</time>
      </trkpt>
      <trkpt lat="44.7339" lon="5.43142">
        <ele>759.7</ele>
        <time>2021-09-03T09:47:07Z</time>
      </trkpt>
      <trkpt lat="44.73393" lon="5.43137">
        <ele>760.1</ele>
        <time>2021-09-03T09:47:09Z</time>
      </trkpt>
      <trkpt lat="44.73395" lon="5.43133">
        <ele>760.4</ele>
        <time>2021-09-03T09:47:11Z</time>
      </trkpt>
      <trkpt lat="44.73397" lon="5.43132">
        <ele>760.6</ele>
        <time>2021-09-03T09:47:12Z</time>
      </trkpt>
      <trkpt lat="44.73399" lon="5.43132">
        <ele>760.8</ele>
        <time>2021-09-03T09:47:14Z</time>
      </trkpt>
      <trkpt lat="44.73401" lon="5.43132">
        <ele>761</ele>
        <time>2021-09-03T09:47:15Z</time>
      </trkpt>
      <trkpt lat="44.73401" lon="5.43133">
        <ele>761.1</ele>
        <time>2021-09-03T09:47:17Z</time>
      </trkpt>
      <trkpt lat="44.73402" lon="5.43133">
        <ele>761.1</ele>
        <time>2021-09-03T09:47:18Z</time>
      </trkpt>
      <trkpt lat="44.73402" lon="5.43133">
        <ele>761.1</ele>
        <time>2021-09-03T09:47:19Z</time>
      </trkpt>
      <trkpt lat="44.73402" lon="5.43132">
        <ele>761.2</ele>
        <time>2021-09-03T09:47:20Z</time>
      </trkpt>
      <trkpt lat="44.73402" lon="5.4313">
        <ele>761.4</ele>
        <time>2021-09-03T09:47:21Z</time>
      </trkpt>
      <trkpt lat="44.73401" lon="5.43128">
        <ele>761.5</ele>
        <time>2021-09-03T09:47:23Z</time>
      </trkpt>
      <trkpt lat="44.734" lon="5.43124">
        <ele>761.8</ele>
        <time>2021-09-03T09:47:24Z</time>
      </trkpt>
      <trkpt lat="44.73332" lon="5.43111">
        <ele>772.3</ele>
        <time>2021-09-03T09:48:54Z</time>
      </trkpt>
      <trkpt lat="44.73331" lon="5.43118">
        <ele>772.9</ele>
        <time>2021-09-03T09:48:56Z</time>
      </trkpt>
      <trkpt lat="44.73331" lon="5.4312">
        <ele>773.1</ele>
        <time>2021-09-03T09:48:57Z</time>
      </trkpt>
      <trkpt lat="44.73331" lon="5.43121">
        <ele>773.2</ele>
        <time>2021-09-03T09:48:59Z</time>
      </trkpt>
      <trkpt lat="44.7333" lon="5.43122">
        <ele>773.3</ele>
        <time>2021-09-03T09:49:00Z</time>
      </trkpt>
      <trkpt lat="44.7333" lon="5.43125">
        <ele>773.5</ele>
        <time>2021-09-03T09:49:01Z</time>
      </trkpt>
      <trkpt lat="44.73329" lon="5.43127">
        <ele>773.7</ele>
        <time>2021-09-03T09:49:02Z</time>
      </trkpt>
      <trkpt lat="44.73329" lon="5.43128">
        <ele>773.8</ele>
        <time>2021-09-03T09:49:04Z</time>
      </trkpt>
      <trkpt lat="44.73328" lon="5.43129">
        <ele>773.9</ele>
        <time>2021-09-03T09:49:05Z</time>
      </trkpt>
      <trkpt lat="44.73328" lon="5.4313">
        <ele>774</ele>
        <time>2021-09-03T09:49:06Z</time>
      </trkpt>
      <trkpt lat="44.73327" lon="5.4313">
        <ele>774.1</ele>
        <time>2021-09-03T09:49:08Z</time>
      </trkpt>
      <trkpt lat="44.73327" lon="5.43131">
        <ele>774.2</ele>
        <time>2021-09-03T09:49:09Z</time>
      </trkpt>
      <trkpt lat="44.73325" lon="5.43132">
        <ele>774.4</ele>
        <time>2021-09-03T09:49:10Z</time>
      </trkpt>
      <trkpt lat="44.73323" lon="5.43133">
        <ele>774.7</ele>
        <time>2021-09-03T09:49:11Z</time>
      </trkpt>
      <trkpt lat="44.73321" lon="5.43134">
        <ele>774.9</ele>
        <time>2021-09-03T09:49:13Z</time>
      </trkpt>
      <trkpt lat="44.73318" lon="5.43134">
        <ele>775.2</ele>
        <time>2021-09-03T09:49:14Z</time>
      </trkpt>
      <trkpt lat="44.73317" lon="5.43135">
        <ele>775.4</ele>
        <time>2021-09-03T09:49:16Z</time>
      </trkpt>
      <trkpt lat="44.73316" lon="5.43135">
        <ele>775.5</ele>
        <time>2021-09-03T09:49:17Z</time>
      </trkpt>
      <trkpt lat="44.73311" lon="5.43134">
        <ele>776</ele>
        <time>2021-09-03T09:49:19Z</time>
      </trkpt>
      <trkpt lat="44.73302" lon="5.43132">
        <ele>776.9</ele>
        <time>2021-09-03T09:49:20Z</time>
      </trkpt>
      <trkpt lat="44.733" lon="5.43131">
        <ele>777.2</ele>
        <time>2021-09-03T09:49:21Z</time>
      </trkpt>
      <trkpt lat="44.73298" lon="5.43131">
        <ele>777.3</ele>
        <time>2021-09-03T09:49:23Z</time>
      </trkpt>
      <trkpt lat="44.73297" lon="5.43132">
        <ele>777.5</ele>
        <time>2021-09-03T09:49:24Z</time>
      </trkpt>
      <trkpt lat="44.73297" lon="5.43134">
        <ele>777.6</ele>
        <time>2021-09-03T09:49:25Z</time>
      </trkpt>
      <trkpt lat="44.73297" lon="5.43136">
        <ele>777.7</ele>
        <time>2021-09-03T09:49:27Z</time>
      </trkpt>
      <trkpt lat="44.73297" lon="5.43137">
        <ele>777.8</ele>
        <time>2021-09-03T09:49:29Z</time>
      </trkpt>
      <trkpt lat="44.73297" lon="5.43137">
        <ele>777.9</ele>
        <time>2021-09-03T09:49:31Z</time>
      </trkpt>
      <trkpt lat="44.73297" lon="5.43138">
        <ele>777.9</ele>
        <time>2021-09-03T09:49:32Z</time>
      </trkpt>
      <trkpt lat="44.73297" lon="5.43138">
        <ele>777.9</ele>
        <time>2021-09-03T09:49:33Z</time>
      </trkpt>
      <trkpt lat="44.73297" lon="5.43138">
        <ele>777.9</ele>
        <time>2021-09-03T09:49:35Z</time>
      </trkpt>
      <trkpt lat="44.73298" lon="5.43139">
        <ele>778</ele>
        <time>2021-09-03T09:49:36Z</time>
      </trkpt>
      <trkpt lat="44.73299" lon="5.4314">
        <ele>778.2</ele>
        <time>2021-09-03T09:49:38Z</time>
      </trkpt>
      <trkpt lat="44.733" lon="5.43141">
        <ele>778.3</ele>
        <time>2021-09-03T09:49:39Z</time>
      </trkpt>
      <trkpt lat="44.73302" lon="5.43141">
        <ele>778.5</ele>
        <time>2021-09-03T09:49:41Z</time>
      </trkpt>
      <trkpt lat="44.73303" lon="5.43142">
        <ele>778.6</ele>
        <time>2021-09-03T09:49:42Z</time>
      </trkpt>
      <trkpt lat="44.73304" lon="5.43142">
        <ele>778.7</ele>
        <time>2021-09-03T09:49:44Z</time>
      </trkpt>
      <trkpt lat="44.73304" lon="5.43143">
        <ele>778.8</ele>
        <time>2021-09-03T09:49:45Z</time>
      </trkpt>
      <trkpt lat="44.73304" lon="5.43143">
        <ele>778.8</ele>
        <time>2021-09-03T09:49:46Z</time>
      </trkpt>
      <trkpt lat="44.73304" lon="5.43143">
        <ele>778.8</ele>
        <time>2021-09-03T09:49:47Z</time>
      </trkpt>
      <trkpt lat="44.73304" lon="5.43143">
        <ele>778.9</ele>
        <time>2021-09-03T09:49:48Z</time>
      </trkpt>
      <trkpt lat="44.73305" lon="5.43144">
        <ele>778.9</ele>
        <time>2021-09-03T09:49:49Z</time>
      </trkpt>
      <trkpt lat="44.73305" lon="5.43144">
        <ele>778.9</ele>
        <time>2021-09-03T09:49:50Z</time>
      </trkpt>
      <trkpt lat="44.73305" lon="5.43146">
        <ele>779</ele>
        <time>2021-09-03T09:49:51Z</time>
      </trkpt>
      <trkpt lat="44.73305" lon="5.43149">
        <ele>779.3</ele>
        <time>2021-09-03T09:49:53Z</time>
      </trkpt>
      <trkpt lat="44.73305" lon="5.43153">
        <ele>779.6</ele>
        <time>2021-09-03T09:49:54Z</time>
      </trkpt>
      <trkpt lat="44.73305" lon="5.43154">
        <ele>779.7</ele>
        <time>2021-09-03T09:49:55Z</time>
      </trkpt>
      <trkpt lat="44.73305" lon="5.43156">
        <ele>779.8</ele>
        <time>2021-09-03T09:49:56Z</time>
      </trkpt>
      <trkpt lat="44.73305" lon="5.43157">
        <ele>779.9</ele>
        <time>2021-09-03T09:49:57Z</time>
      </trkpt>
      <trkpt lat="44.73304" lon="5.43159">
        <ele>780.1</ele>
        <time>2021-09-03T09:49:58Z</time>
      </trkpt>
      <trkpt lat="44.73304" lon="5.43161">
        <ele>780.2</ele>
        <time>2021-09-03T09:49:59Z</time>
      </trkpt>
      <trkpt lat="44.73304" lon="5.43164">
        <ele>780.4</ele>
        <time>2021-09-03T09:50:01Z</time>
      </trkpt>
      <trkpt lat="44.73304" lon="5.43166">
        <ele>780.6</ele>
        <time>2021-09-03T09:50:02Z</time>
      </trkpt>
      <trkpt lat="44.73303" lon="5.43172">
        <ele>781</ele>
        <time>2021-09-03T09:50:04Z</time>
      </trkpt>
      <trkpt lat="44.73303" lon="5.43176">
        <ele>781.4</ele>
        <time>2021-09-03T09:50:05Z</time>
      </trkpt>
      <trkpt lat="44.73303" lon="5.43178">
        <ele>781.5</ele>
        <time>2021-09-03T09:50:06Z</time>
      </trkpt>
      <trkpt lat="44.73302" lon="5.43183">
        <ele>781.9</ele>
        <time>2021-09-03T09:50:08Z</time>
      </trkpt>
      <trkpt lat="44.73302" lon="5.43185">
        <ele>782.1</ele>
        <time>2021-09-03T09:50:09Z</time>
      </trkpt>
      <trkpt lat="44.73301" lon="5.43189">
        <ele>782.4</ele>
        <time>2021-09-03T09:50:10Z</time>
      </trkpt>
      <trkpt lat="44.733" lon="5.43191">
        <ele>782.6</ele>
        <time>2021-09-03T09:50:11Z</time>
      </trkpt>
      <trkpt lat="44.73296" lon="5.43194">
        <ele>783.2</ele>
        <time>2021-09-03T09:50:13Z</time>
      </trkpt>
      <trkpt lat="44.73294" lon="5.43196">
        <ele>783.4</ele>
        <time>2021-09-03T09:50:14Z</time>
      </trkpt>
      <trkpt lat="44.73293" lon="5.43197">
        <ele>783.7</ele>
        <time>2021-09-03T09:50:15Z</time>
      </trkpt>
      <trkpt lat="44.73292" lon="5.432">
        <ele>783.9</ele>
        <time>2021-09-03T09:50:17Z</time>
      </trkpt>
      <trkpt lat="44.73291" lon="5.432">
        <ele>784</ele>
        <time>2021-09-03T09:50:18Z</time>
      </trkpt>
      <trkpt lat="44.7329" lon="5.43201">
        <ele>784.2</ele>
        <time>2021-09-03T09:50:20Z</time>
      </trkpt>
      <trkpt lat="44.73287" lon="5.43207">
        <ele>784.9</ele>
        <time>2021-09-03T09:50:21Z</time>
      </trkpt>
      <trkpt lat="44.73285" lon="5.43212">
        <ele>785.3</ele>
        <time>2021-09-03T09:50:22Z</time>
      </trkpt>
      <trkpt lat="44.73283" lon="5.43218">
        <ele>785.8</ele>
        <time>2021-09-03T09:50:24Z</time>
      </trkpt>
      <trkpt lat="44.73282" lon="5.43223">
        <ele>786.2</ele>
        <time>2021-09-03T09:50:25Z</time>
      </trkpt>
      <trkpt lat="44.7328" lon="5.43228">
        <ele>786.6</ele>
        <time>2021-09-03T09:50:27Z</time>
      </trkpt>
      <trkpt lat="44.73278" lon="5.43233">
        <ele>787</ele>
        <time>2021-09-03T09:50:28Z</time>
      </trkpt>
      <trkpt lat="44.73277" lon="5.43238">
        <ele>787.3</ele>
        <time>2021-09-03T09:50:29Z</time>
      </trkpt>
      <trkpt lat="44.73275" lon="5.43243">
        <ele>787.7</ele>
        <time>2021-09-03T09:50:30Z</time>
      </trkpt>
      <trkpt lat="44.73273" lon="5.43248">
        <ele>788.1</ele>
        <time>2021-09-03T09:50:32Z</time>
      </trkpt>
      <trkpt lat="44.73272" lon="5.43253">
        <ele>788.4</ele>
        <time>2021-09-03T09:51:19Z</time>
      </trkpt>
      <trkpt lat="44.7327" lon="5.43258">
        <ele>788.8</ele>
        <time>2021-09-03T09:51:20Z</time>
      </trkpt>
      <trkpt lat="44.73268" lon="5.43263">
        <ele>789.2</ele>
        <time>2021-09-03T09:51:22Z</time>
      </trkpt>
      <trkpt lat="44.73267" lon="5.43268">
        <ele>789.7</ele>
        <time>2021-09-03T09:51:23Z</time>
      </trkpt>
      <trkpt lat="44.73266" lon="5.43268">
        <ele>789.7</ele>
        <time>2021-09-03T09:51:25Z</time>
      </trkpt>
      <trkpt lat="44.73266" lon="5.43269">
        <ele>789.8</ele>
        <time>2021-09-03T09:51:26Z</time>
      </trkpt>
      <trkpt lat="44.73266" lon="5.43269">
        <ele>789.8</ele>
        <time>2021-09-03T09:51:27Z</time>
      </trkpt>
      <trkpt lat="44.73266" lon="5.43269">
        <ele>789.8</ele>
        <time>2021-09-03T09:51:28Z</time>
      </trkpt>
      <trkpt lat="44.73266" lon="5.43269">
        <ele>789.8</ele>
        <time>2021-09-03T09:51:30Z</time>
      </trkpt>
      <trkpt lat="44.73266" lon="5.43269">
        <ele>789.8</ele>
        <time>2021-09-03T09:51:31Z</time>
      </trkpt>
      <trkpt lat="44.73266" lon="5.43269">
        <ele>789.8</ele>
        <time>2021-09-03T09:51:32Z</time>
      </trkpt>
      <trkpt lat="44.73267" lon="5.4332">
        <ele>793.9</ele>
        <time>2021-09-03T09:52:46Z</time>
      </trkpt>
      <trkpt lat="44.73269" lon="5.43324">
        <ele>794.3</ele>
        <time>2021-09-03T09:52:48Z</time>
      </trkpt>
      <trkpt lat="44.73272" lon="5.4333">
        <ele>795</ele>
        <time>2021-09-03T09:52:50Z</time>
      </trkpt>
      <trkpt lat="44.73272" lon="5.43332">
        <ele>795.1</ele>
        <time>2021-09-03T09:52:51Z</time>
      </trkpt>
      <trkpt lat="44.73272" lon="5.43335">
        <ele>795.4</ele>
        <time>2021-09-03T09:52:52Z</time>
      </trkpt>
      <trkpt lat="44.73271" lon="5.43338">
        <ele>795.7</ele>
        <time>2021-09-03T09:52:53Z</time>
      </trkpt>
      <trkpt lat="44.73269" lon="5.4334">
        <ele>796</ele>
        <time>2021-09-03T09:52:55Z</time>
      </trkpt>
      <trkpt lat="44.73268" lon="5.43343">
        <ele>796.2</ele>
        <time>2021-09-03T09:52:56Z</time>
      </trkpt>
      <trkpt lat="44.73267" lon="5.43344">
        <ele>796.4</ele>
        <time>2021-09-03T09:52:58Z</time>
      </trkpt>
      <trkpt lat="44.73266" lon="5.43345">
        <ele>796.6</ele>
        <time>2021-09-03T09:52:59Z</time>
      </trkpt>
      <trkpt lat="44.73264" lon="5.43345">
        <ele>796.8</ele>
        <time>2021-09-03T09:53:00Z</time>
      </trkpt>
      <trkpt lat="44.73262" lon="5.43345">
        <ele>797</ele>
        <time>2021-09-03T09:53:01Z</time>
      </trkpt>
      <trkpt lat="44.73261" lon="5.43345">
        <ele>797.1</ele>
        <time>2021-09-03T09:53:03Z</time>
      </trkpt>
      <trkpt lat="44.73261" lon="5.43344">
        <ele>797.2</ele>
        <time>2021-09-03T09:53:04Z</time>
      </trkpt>
      <trkpt lat="44.73259" lon="5.43346">
        <ele>797.4</ele>
        <time>2021-09-03T09:53:06Z</time>
      </trkpt>
      <trkpt lat="44.73259" lon="5.43347">
        <ele>797.5</ele>
        <time>2021-09-03T09:53:07Z</time>
      </trkpt>
      <trkpt lat="44.73252" lon="5.43354">
        <ele>798.5</ele>
        <time>2021-09-03T09:53:08Z</time>
      </trkpt>
      <trkpt lat="44.73246" lon="5.4336">
        <ele>799.4</ele>
        <time>2021-09-03T09:53:10Z</time>
      </trkpt>
      <trkpt lat="44.73241" lon="5.43366">
        <ele>800.3</ele>
        <time>2021-09-03T09:53:42Z</time>
      </trkpt>
      <trkpt lat="44.73235" lon="5.43372">
        <ele>801.2</ele>
        <time>2021-09-03T09:53:44Z</time>
      </trkpt>
      <trkpt lat="44.7323" lon="5.43378">
        <ele>802</ele>
        <time>2021-09-03T09:53:45Z</time>
      </trkpt>
      <trkpt lat="44.73228" lon="5.43382">
        <ele>802.4</ele>
        <time>2021-09-03T09:53:46Z</time>
      </trkpt>
      <trkpt lat="44.73228" lon="5.43382">
        <ele>802.4</ele>
        <time>2021-09-03T09:53:47Z</time>
      </trkpt>
      <trkpt lat="44.73228" lon="5.43384">
        <ele>802.6</ele>
        <time>2021-09-03T09:53:49Z</time>
      </trkpt>
      <trkpt lat="44.73228" lon="5.43386">
        <ele>802.7</ele>
        <time>2021-09-03T09:53:50Z</time>
      </trkpt>
      <trkpt lat="44.73229" lon="5.43389">
        <ele>803</ele>
        <time>2021-09-03T09:53:52Z</time>
      </trkpt>
      <trkpt lat="44.73231" lon="5.4339">
        <ele>803.3</ele>
        <time>2021-09-03T09:53:53Z</time>
      </trkpt>
      <trkpt lat="44.73233" lon="5.4339">
        <ele>803.5</ele>
        <time>2021-09-03T09:53:54Z</time>
      </trkpt>
      <trkpt lat="44.73234" lon="5.4339">
        <ele>803.7</ele>
        <time>2021-09-03T09:53:56Z</time>
      </trkpt>
      <trkpt lat="44.73236" lon="5.43389">
        <ele>803.8</ele>
        <time>2021-09-03T09:53:57Z</time>
      </trkpt>
      <trkpt lat="44.73235" lon="5.4339">
        <ele>803.9</ele>
        <time>2021-09-03T09:53:58Z</time>
      </trkpt>
      <trkpt lat="44.73235" lon="5.4339">
        <ele>804</ele>
        <time>2021-09-03T09:53:59Z</time>
      </trkpt>
      <trkpt lat="44.73235" lon="5.43391">
        <ele>804.1</ele>
        <time>2021-09-03T09:54:01Z</time>
      </trkpt>
      <trkpt lat="44.73235" lon="5.43392">
        <ele>804.2</ele>
        <time>2021-09-03T09:54:02Z</time>
      </trkpt>
      <trkpt lat="44.73235" lon="5.43397">
        <ele>804.6</ele>
        <time>2021-09-03T09:54:03Z</time>
      </trkpt>
      <trkpt lat="44.73235" lon="5.43402">
        <ele>805</ele>
        <time>2021-09-03T09:54:04Z</time>
      </trkpt>
      <trkpt lat="44.73235" lon="5.43404">
        <ele>805.2</ele>
        <time>2021-09-03T09:54:06Z</time>
      </trkpt>
      <trkpt lat="44.73235" lon="5.43406">
        <ele>805.4</ele>
        <time>2021-09-03T09:54:07Z</time>
      </trkpt>
      <trkpt lat="44.73235" lon="5.43409">
        <ele>805.7</ele>
        <time>2021-09-03T09:54:08Z</time>
      </trkpt>
      <trkpt lat="44.73234" lon="5.43412">
        <ele>805.9</ele>
        <time>2021-09-03T09:54:09Z</time>
      </trkpt>
      <trkpt lat="44.73234" lon="5.43414">
        <ele>806.2</ele>
        <time>2021-09-03T09:54:11Z</time>
      </trkpt>
      <trkpt lat="44.73234" lon="5.43416">
        <ele>806.3</ele>
        <time>2021-09-03T09:54:12Z</time>
      </trkpt>
      <trkpt lat="44.73234" lon="5.43417">
        <ele>806.4</ele>
        <time>2021-09-03T09:54:13Z</time>
      </trkpt>
      <trkpt lat="44.73233" lon="5.43419">
        <ele>806.5</ele>
        <time>2021-09-03T09:54:14Z</time>
      </trkpt>
      <trkpt lat="44.73233" lon="5.43422">
        <ele>806.9</ele>
        <time>2021-09-03T09:54:16Z</time>
      </trkpt>
      <trkpt lat="44.73233" lon="5.43422">
        <ele>806.9</ele>
        <time>2021-09-03T09:54:17Z</time>
      </trkpt>
      <trkpt lat="44.73232" lon="5.43423">
        <ele>807</ele>
        <time>2021-09-03T09:54:19Z</time>
      </trkpt>
      <trkpt lat="44.73232" lon="5.43423">
        <ele>807</ele>
        <time>2021-09-03T09:54:20Z</time>
      </trkpt>
      <trkpt lat="44.73232" lon="5.43423">
        <ele>807</ele>
        <time>2021-09-03T09:54:22Z</time>
      </trkpt>
      <trkpt lat="44.73232" lon="5.43423">
        <ele>807.1</ele>
        <time>2021-09-03T09:54:23Z</time>
      </trkpt>
      <trkpt lat="44.73232" lon="5.43423">
        <ele>807.1</ele>
        <time>2021-09-03T09:54:24Z</time>
      </trkpt>
      <trkpt lat="44.73232" lon="5.43423">
        <ele>807.1</ele>
        <time>2021-09-03T09:54:26Z</time>
      </trkpt>
      <trkpt lat="44.73232" lon="5.43423">
        <ele>807.1</ele>
        <time>2021-09-03T09:54:27Z</time>
      </trkpt>
      <trkpt lat="44.73231" lon="5.43422">
        <ele>807.1</ele>
        <time>2021-09-03T09:54:28Z</time>
      </trkpt>
      <trkpt lat="44.73231" lon="5.43422">
        <ele>807.2</ele>
        <time>2021-09-03T09:54:29Z</time>
      </trkpt>
      <trkpt lat="44.73231" lon="5.43422">
        <ele>807.2</ele>
        <time>2021-09-03T09:54:31Z</time>
      </trkpt>
      <trkpt lat="44.73231" lon="5.43422">
        <ele>807.2</ele>
        <time>2021-09-03T09:54:32Z</time>
      </trkpt>
      <trkpt lat="44.73215" lon="5.43486">
        <ele>813.8</ele>
        <time>2021-09-03T09:55:22Z</time>
      </trkpt>
      <trkpt lat="44.73212" lon="5.43491">
        <ele>814.3</ele>
        <time>2021-09-03T09:55:24Z</time>
      </trkpt>
      <trkpt lat="44.73211" lon="5.43491">
        <ele>814.4</ele>
        <time>2021-09-03T09:55:25Z</time>
      </trkpt>
      <trkpt lat="44.73211" lon="5.43492">
        <ele>814.5</ele>
        <time>2021-09-03T09:55:26Z</time>
      </trkpt>
      <trkpt lat="44.7321" lon="5.43493">
        <ele>814.6</ele>
        <time>2021-09-03T09:55:27Z</time>
      </trkpt>
      <trkpt lat="44.7321" lon="5.43494">
        <ele>814.7</ele>
        <time>2021-09-03T09:55:28Z</time>
      </trkpt>
      <trkpt lat="44.73209" lon="5.43494">
        <ele>814.7</ele>
        <time>2021-09-03T09:55:29Z</time>
      </trkpt>
      <trkpt lat="44.73209" lon="5.43495">
        <ele>814.7</ele>
        <time>2021-09-03T09:55:31Z</time>
      </trkpt>
      <trkpt lat="44.73209" lon="5.43495">
        <ele>814.8</ele>
        <time>2021-09-03T09:55:32Z</time>
      </trkpt>
      <trkpt lat="44.73208" lon="5.43495">
        <ele>814.9</ele>
        <time>2021-09-03T09:55:33Z</time>
      </trkpt>
      <trkpt lat="44.73207" lon="5.43496">
        <ele>815.3</ele>
        <time>2021-09-03T09:55:34Z</time>
      </trkpt>
      <trkpt lat="44.73206" lon="5.43497">
        <ele>815.4</ele>
        <time>2021-09-03T09:55:36Z</time>
      </trkpt>
      <trkpt lat="44.73205" lon="5.43498">
        <ele>815.5</ele>
        <time>2021-09-03T09:55:37Z</time>
      </trkpt>
      <trkpt lat="44.73204" lon="5.43499">
        <ele>815.6</ele>
        <time>2021-09-03T09:55:38Z</time>
      </trkpt>
      <trkpt lat="44.73202" lon="5.43501">
        <ele>815.7</ele>
        <time>2021-09-03T09:55:39Z</time>
      </trkpt>
      <trkpt lat="44.732" lon="5.43503">
        <ele>815.9</ele>
        <time>2021-09-03T09:55:41Z</time>
      </trkpt>
      <trkpt lat="44.73199" lon="5.43504">
        <ele>816</ele>
        <time>2021-09-03T09:55:42Z</time>
      </trkpt>
      <trkpt lat="44.73196" lon="5.43505">
        <ele>816.2</ele>
        <time>2021-09-03T09:55:43Z</time>
      </trkpt>
      <trkpt lat="44.73195" lon="5.43506">
        <ele>816.3</ele>
        <time>2021-09-03T09:55:44Z</time>
      </trkpt>
      <trkpt lat="44.73192" lon="5.43507">
        <ele>816.6</ele>
        <time>2021-09-03T09:55:45Z</time>
      </trkpt>
      <trkpt lat="44.73189" lon="5.43509">
        <ele>816.9</ele>
        <time>2021-09-03T09:55:47Z</time>
      </trkpt>
      <trkpt lat="44.73188" lon="5.43511">
        <ele>817</ele>
        <time>2021-09-03T09:55:48Z</time>
      </trkpt>
      <trkpt lat="44.73184" lon="5.43513">
        <ele>817.3</ele>
        <time>2021-09-03T09:55:50Z</time>
      </trkpt>
      <trkpt lat="44.73179" lon="5.43513">
        <ele>817.8</ele>
        <time>2021-09-03T09:55:52Z</time>
      </trkpt>
      <trkpt lat="44.73177" lon="5.43514">
        <ele>818</ele>
        <time>2021-09-03T09:55:53Z</time>
      </trkpt>
      <trkpt lat="44.73175" lon="5.43515">
        <ele>818.2</ele>
        <time>2021-09-03T09:55:54Z</time>
      </trkpt>
      <trkpt lat="44.73173" lon="5.43517">
        <ele>818.5</ele>
        <time>2021-09-03T09:55:55Z</time>
      </trkpt>
      <trkpt lat="44.73172" lon="5.43518">
        <ele>818.6</ele>
        <time>2021-09-03T09:55:56Z</time>
      </trkpt>
      <trkpt lat="44.7317" lon="5.43519">
        <ele>818.8</ele>
        <time>2021-09-03T09:55:57Z</time>
      </trkpt>
      <trkpt lat="44.73167" lon="5.43522">
        <ele>819.2</ele>
        <time>2021-09-03T09:55:59Z</time>
      </trkpt>
      <trkpt lat="44.73164" lon="5.43522">
        <ele>819.6</ele>
        <time>2021-09-03T09:56:01Z</time>
      </trkpt>
      <trkpt lat="44.73164" lon="5.43521">
        <ele>819.7</ele>
        <time>2021-09-03T09:56:02Z</time>
      </trkpt>
      <trkpt lat="44.73163" lon="5.4352">
        <ele>819.8</ele>
        <time>2021-09-03T09:56:03Z</time>
      </trkpt>
      <trkpt lat="44.73162" lon="5.43521">
        <ele>819.9</ele>
        <time>2021-09-03T09:56:05Z</time>
      </trkpt>
      <trkpt lat="44.73163" lon="5.43522">
        <ele>820.1</ele>
        <time>2021-09-03T09:56:06Z</time>
      </trkpt>
      <trkpt lat="44.73164" lon="5.43523">
        <ele>820.2</ele>
        <time>2021-09-03T09:56:08Z</time>
      </trkpt>
      <trkpt lat="44.73164" lon="5.43525">
        <ele>820.4</ele>
        <time>2021-09-03T09:56:09Z</time>
      </trkpt>
      <trkpt lat="44.73163" lon="5.43529">
        <ele>820.8</ele>
        <time>2021-09-03T09:56:10Z</time>
      </trkpt>
      <trkpt lat="44.73162" lon="5.43533">
        <ele>821.2</ele>
        <time>2021-09-03T09:56:11Z</time>
      </trkpt>
      <trkpt lat="44.73161" lon="5.43534">
        <ele>821.3</ele>
        <time>2021-09-03T09:56:12Z</time>
      </trkpt>
      <trkpt lat="44.73161" lon="5.43537">
        <ele>821.5</ele>
        <time>2021-09-03T09:56:14Z</time>
      </trkpt>
      <trkpt lat="44.73161" lon="5.43539">
        <ele>821.6</ele>
        <time>2021-09-03T09:56:15Z</time>
      </trkpt>
      <trkpt lat="44.73162" lon="5.43541">
        <ele>821.8</ele>
        <time>2021-09-03T09:56:16Z</time>
      </trkpt>
      <trkpt lat="44.73162" lon="5.43543">
        <ele>822</ele>
        <time>2021-09-03T09:56:17Z</time>
      </trkpt>
      <trkpt lat="44.7316" lon="5.43545">
        <ele>822.2</ele>
        <time>2021-09-03T09:56:19Z</time>
      </trkpt>
      <trkpt lat="44.7316" lon="5.43547">
        <ele>822.4</ele>
        <time>2021-09-03T09:56:20Z</time>
      </trkpt>
      <trkpt lat="44.73161" lon="5.43552">
        <ele>822.7</ele>
        <time>2021-09-03T09:56:21Z</time>
      </trkpt>
      <trkpt lat="44.7316" lon="5.43556">
        <ele>823</ele>
        <time>2021-09-03T09:56:23Z</time>
      </trkpt>
      <trkpt lat="44.7316" lon="5.43557">
        <ele>823.1</ele>
        <time>2021-09-03T09:56:24Z</time>
      </trkpt>
      <trkpt lat="44.73159" lon="5.43559">
        <ele>823.3</ele>
        <time>2021-09-03T09:56:25Z</time>
      </trkpt>
      <trkpt lat="44.73158" lon="5.4356">
        <ele>823.5</ele>
        <time>2021-09-03T09:56:26Z</time>
      </trkpt>
      <trkpt lat="44.73156" lon="5.43563">
        <ele>823.8</ele>
        <time>2021-09-03T09:56:27Z</time>
      </trkpt>
      <trkpt lat="44.73153" lon="5.43567">
        <ele>824.2</ele>
        <time>2021-09-03T09:56:29Z</time>
      </trkpt>
      <trkpt lat="44.7315" lon="5.43571">
        <ele>824.6</ele>
        <time>2021-09-03T09:56:31Z</time>
      </trkpt>
      <trkpt lat="44.73149" lon="5.43572">
        <ele>824.7</ele>
        <time>2021-09-03T09:56:32Z</time>
      </trkpt>
      <trkpt lat="44.73149" lon="5.43575">
        <ele>824.9</ele>
        <time>2021-09-03T09:56:33Z</time>
      </trkpt>
      <trkpt lat="44.73148" lon="5.43576">
        <ele>825</ele>
        <time>2021-09-03T09:56:35Z</time>
      </trkpt>
      <trkpt lat="44.73149" lon="5.43576">
        <ele>825.1</ele>
        <time>2021-09-03T09:56:36Z</time>
      </trkpt>
      <trkpt lat="44.7315" lon="5.43575">
        <ele>825.3</ele>
        <time>2021-09-03T09:56:37Z</time>
      </trkpt>
      <trkpt lat="44.73151" lon="5.43574">
        <ele>825.3</ele>
        <time>2021-09-03T09:56:38Z</time>
      </trkpt>
      <trkpt lat="44.73151" lon="5.43574">
        <ele>825.3</ele>
        <time>2021-09-03T09:56:40Z</time>
      </trkpt>
      <trkpt lat="44.73151" lon="5.43574">
        <ele>825.3</ele>
        <time>2021-09-03T09:56:42Z</time>
      </trkpt>
      <trkpt lat="44.73151" lon="5.43574">
        <ele>825.3</ele>
        <time>2021-09-03T09:56:43Z</time>
      </trkpt>
      <trkpt lat="44.73087" lon="5.43608">
        <ele>839.7</ele>
        <time>2021-09-03T09:58:23Z</time>
      </trkpt>
      <trkpt lat="44.73084" lon="5.43607">
        <ele>839.9</ele>
        <time>2021-09-03T09:58:24Z</time>
      </trkpt>
      <trkpt lat="44.7308" lon="5.43606">
        <ele>840.3</ele>
        <time>2021-09-03T09:58:26Z</time>
      </trkpt>
      <trkpt lat="44.73076" lon="5.43605">
        <ele>840.6</ele>
        <time>2021-09-03T09:58:27Z</time>
      </trkpt>
      <trkpt lat="44.73075" lon="5.43604">
        <ele>840.8</ele>
        <time>2021-09-03T09:58:28Z</time>
      </trkpt>
      <trkpt lat="44.73074" lon="5.43603">
        <ele>840.9</ele>
        <time>2021-09-03T09:58:29Z</time>
      </trkpt>
      <trkpt lat="44.73073" lon="5.43602">
        <ele>840.9</ele>
        <time>2021-09-03T09:58:31Z</time>
      </trkpt>
      <trkpt lat="44.73073" lon="5.43602">
        <ele>841</ele>
        <time>2021-09-03T09:58:32Z</time>
      </trkpt>
      <trkpt lat="44.73073" lon="5.43602">
        <ele>841</ele>
        <time>2021-09-03T09:58:33Z</time>
      </trkpt>
      <trkpt lat="44.73073" lon="5.43602">
        <ele>841</ele>
        <time>2021-09-03T09:58:35Z</time>
      </trkpt>
      <trkpt lat="44.73073" lon="5.43602">
        <ele>841</ele>
        <time>2021-09-03T09:58:36Z</time>
      </trkpt>
      <trkpt lat="44.73072" lon="5.43602">
        <ele>841</ele>
        <time>2021-09-03T09:58:37Z</time>
      </trkpt>
      <trkpt lat="44.73058" lon="5.43603">
        <ele>842.4</ele>
        <time>2021-09-03T09:58:47Z</time>
      </trkpt>
      <trkpt lat="44.73054" lon="5.43606">
        <ele>842.9</ele>
        <time>2021-09-03T09:58:49Z</time>
      </trkpt>
      <trkpt lat="44.73051" lon="5.43607">
        <ele>843.2</ele>
        <time>2021-09-03T09:58:50Z</time>
      </trkpt>
      <trkpt lat="44.73044" lon="5.43609">
        <ele>844</ele>
        <time>2021-09-03T09:58:52Z</time>
      </trkpt>
      <trkpt lat="44.73037" lon="5.43612">
        <ele>844.9</ele>
        <time>2021-09-03T09:58:54Z</time>
      </trkpt>
      <trkpt lat="44.73036" lon="5.43614">
        <ele>845.1</ele>
        <time>2021-09-03T09:58:55Z</time>
      </trkpt>
      <trkpt lat="44.73036" lon="5.43616">
        <ele>845.3</ele>
        <time>2021-09-03T09:58:56Z</time>
      </trkpt>
      <trkpt lat="44.73035" lon="5.43619">
        <ele>845.6</ele>
        <time>2021-09-03T09:58:57Z</time>
      </trkpt>
      <trkpt lat="44.73035" lon="5.43621">
        <ele>845.8</ele>
        <time>2021-09-03T09:58:59Z</time>
      </trkpt>
      <trkpt lat="44.73036" lon="5.43623">
        <ele>845.9</ele>
        <time>2021-09-03T09:59:00Z</time>
      </trkpt>
      <trkpt lat="44.73037" lon="5.43646">
        <ele>848.1</ele>
        <time>2021-09-03T09:59:10Z</time>
      </trkpt>
      <trkpt lat="44.73037" lon="5.43654">
        <ele>848.9</ele>
        <time>2021-09-03T09:59:12Z</time>
      </trkpt>
      <trkpt lat="44.73037" lon="5.43663">
        <ele>849.6</ele>
        <time>2021-09-03T09:59:14Z</time>
      </trkpt>
      <trkpt lat="44.73037" lon="5.43667">
        <ele>850</ele>
        <time>2021-09-03T09:59:15Z</time>
      </trkpt>
      <trkpt lat="44.73036" lon="5.43676">
        <ele>850.6</ele>
        <time>2021-09-03T09:59:17Z</time>
      </trkpt>
      <trkpt lat="44.73036" lon="5.43676">
        <ele>850.6</ele>
        <time>2021-09-03T09:59:18Z</time>
      </trkpt>
      <trkpt lat="44.73036" lon="5.43677">
        <ele>850.6</ele>
        <time>2021-09-03T09:59:19Z</time>
      </trkpt>
      <trkpt lat="44.73036" lon="5.43677">
        <ele>850.7</ele>
        <time>2021-09-03T09:59:20Z</time>
      </trkpt>
      <trkpt lat="44.73036" lon="5.43678">
        <ele>850.7</ele>
        <time>2021-09-03T09:59:21Z</time>
      </trkpt>
      <trkpt lat="44.73036" lon="5.43678">
        <ele>850.7</ele>
        <time>2021-09-03T09:59:22Z</time>
      </trkpt>
      <trkpt lat="44.73036" lon="5.43678">
        <ele>850.7</ele>
        <time>2021-09-03T09:59:24Z</time>
      </trkpt>
      <trkpt lat="44.73036" lon="5.43679">
        <ele>850.8</ele>
        <time>2021-09-03T09:59:25Z</time>
      </trkpt>
      <trkpt lat="44.73038" lon="5.4369">
        <ele>851.4</ele>
        <time>2021-09-03T09:59:43Z</time>
      </trkpt>
      <trkpt lat="44.73041" lon="5.43696">
        <ele>851.6</ele>
        <time>2021-09-03T09:59:45Z</time>
      </trkpt>
      <trkpt lat="44.73043" lon="5.43699">
        <ele>851.7</ele>
        <time>2021-09-03T09:59:46Z</time>
      </trkpt>
      <trkpt lat="44.73044" lon="5.43701">
        <ele>851.7</ele>
        <time>2021-09-03T09:59:47Z</time>
      </trkpt>
      <trkpt lat="44.73044" lon="5.43704">
        <ele>851.8</ele>
        <time>2021-09-03T09:59:48Z</time>
      </trkpt>
      <trkpt lat="44.73044" lon="5.43706">
        <ele>851.8</ele>
        <time>2021-09-03T09:59:50Z</time>
      </trkpt>
      <trkpt lat="44.73044" lon="5.43708">
        <ele>851.8</ele>
        <time>2021-09-03T09:59:52Z</time>
      </trkpt>
      <trkpt lat="44.73044" lon="5.43709">
        <ele>851.8</ele>
        <time>2021-09-03T09:59:53Z</time>
      </trkpt>
      <trkpt lat="44.73045" lon="5.4371">
        <ele>851.8</ele>
        <time>2021-09-03T09:59:55Z</time>
      </trkpt>
      <trkpt lat="44.73045" lon="5.43711">
        <ele>851.8</ele>
        <time>2021-09-03T09:59:56Z</time>
      </trkpt>
      <trkpt lat="44.73046" lon="5.43714">
        <ele>851.8</ele>
        <time>2021-09-03T09:59:58Z</time>
      </trkpt>
      <trkpt lat="44.73053" lon="5.43723">
        <ele>851.7</ele>
        <time>2021-09-03T10:00:03Z</time>
      </trkpt>
      <trkpt lat="44.73054" lon="5.4373">
        <ele>851.6</ele>
        <time>2021-09-03T10:00:04Z</time>
      </trkpt>
      <trkpt lat="44.73055" lon="5.43734">
        <ele>851.5</ele>
        <time>2021-09-03T10:00:06Z</time>
      </trkpt>
      <trkpt lat="44.73055" lon="5.43735">
        <ele>851.5</ele>
        <time>2021-09-03T10:00:07Z</time>
      </trkpt>
      <trkpt lat="44.73057" lon="5.43739">
        <ele>851.3</ele>
        <time>2021-09-03T10:00:08Z</time>
      </trkpt>
      <trkpt lat="44.7306" lon="5.43748">
        <ele>850.8</ele>
        <time>2021-09-03T10:00:10Z</time>
      </trkpt>
      <trkpt lat="44.73062" lon="5.43754">
        <ele>850.5</ele>
        <time>2021-09-03T10:00:11Z</time>
      </trkpt>
      <trkpt lat="44.73062" lon="5.43758">
        <ele>850.2</ele>
        <time>2021-09-03T10:00:12Z</time>
      </trkpt>
      <trkpt lat="44.73061" lon="5.43762">
        <ele>850</ele>
        <time>2021-09-03T10:00:13Z</time>
      </trkpt>
      <trkpt lat="44.73061" lon="5.43763">
        <ele>849.9</ele>
        <time>2021-09-03T10:00:15Z</time>
      </trkpt>
      <trkpt lat="44.73058" lon="5.43767">
        <ele>849.1</ele>
        <time>2021-09-03T10:00:17Z</time>
      </trkpt>
      <trkpt lat="44.73058" lon="5.43767">
        <ele>849.1</ele>
        <time>2021-09-03T10:00:18Z</time>
      </trkpt>
      <trkpt lat="44.73056" lon="5.43768">
        <ele>849.1</ele>
        <time>2021-09-03T10:00:20Z</time>
      </trkpt>
      <trkpt lat="44.73054" lon="5.43769">
        <ele>849.1</ele>
        <time>2021-09-03T10:00:22Z</time>
      </trkpt>
      <trkpt lat="44.73053" lon="5.43769">
        <ele>849.1</ele>
        <time>2021-09-03T10:00:23Z</time>
      </trkpt>
      <trkpt lat="44.73035" lon="5.43776">
        <ele>847.7</ele>
        <time>2021-09-03T10:01:19Z</time>
      </trkpt>
      <trkpt lat="44.73031" lon="5.43774">
        <ele>847.1</ele>
        <time>2021-09-03T10:01:20Z</time>
      </trkpt>
      <trkpt lat="44.73026" lon="5.43772">
        <ele>846.3</ele>
        <time>2021-09-03T10:01:22Z</time>
      </trkpt>
      <trkpt lat="44.73021" lon="5.4377">
        <ele>845.5</ele>
        <time>2021-09-03T10:01:23Z</time>
      </trkpt>
      <trkpt lat="44.73016" lon="5.43768">
        <ele>844.8</ele>
        <time>2021-09-03T10:01:24Z</time>
      </trkpt>
      <trkpt lat="44.73011" lon="5.43768">
        <ele>844</ele>
        <time>2021-09-03T10:01:25Z</time>
      </trkpt>
      <trkpt lat="44.73005" lon="5.43769">
        <ele>843.2</ele>
        <time>2021-09-03T10:01:27Z</time>
      </trkpt>
      <trkpt lat="44.73001" lon="5.43769">
        <ele>842.7</ele>
        <time>2021-09-03T10:01:28Z</time>
      </trkpt>
      <trkpt lat="44.72997" lon="5.43767">
        <ele>842</ele>
        <time>2021-09-03T10:01:29Z</time>
      </trkpt>
      <trkpt lat="44.72993" lon="5.43765">
        <ele>841.5</ele>
        <time>2021-09-03T10:01:31Z</time>
      </trkpt>
      <trkpt lat="44.7299" lon="5.43763">
        <ele>840.9</ele>
        <time>2021-09-03T10:01:32Z</time>
      </trkpt>
      <trkpt lat="44.72989" lon="5.43762">
        <ele>840.7</ele>
        <time>2021-09-03T10:01:34Z</time>
      </trkpt>
      <trkpt lat="44.72988" lon="5.43762">
        <ele>840.5</ele>
        <time>2021-09-03T10:01:35Z</time>
      </trkpt>
      <trkpt lat="44.72986" lon="5.43762">
        <ele>840.3</ele>
        <time>2021-09-03T10:01:36Z</time>
      </trkpt>
      <trkpt lat="44.72985" lon="5.43761">
        <ele>840.1</ele>
        <time>2021-09-03T10:01:37Z</time>
      </trkpt>
      <trkpt lat="44.72984" lon="5.43761">
        <ele>839.9</ele>
        <time>2021-09-03T10:01:39Z</time>
      </trkpt>
      <trkpt lat="44.72982" lon="5.43761">
        <ele>839.8</ele>
        <time>2021-09-03T10:01:40Z</time>
      </trkpt>
      <trkpt lat="44.72981" lon="5.43761">
        <ele>839.6</ele>
        <time>2021-09-03T10:01:42Z</time>
      </trkpt>
      <trkpt lat="44.7298" lon="5.4376">
        <ele>839.4</ele>
        <time>2021-09-03T10:02:47Z</time>
      </trkpt>
      <trkpt lat="44.72979" lon="5.4376">
        <ele>839.2</ele>
        <time>2021-09-03T10:02:48Z</time>
      </trkpt>
      <trkpt lat="44.72974" lon="5.43761">
        <ele>838.6</ele>
        <time>2021-09-03T10:02:49Z</time>
      </trkpt>
      <trkpt lat="44.72969" lon="5.43762">
        <ele>837.9</ele>
        <time>2021-09-03T10:02:51Z</time>
      </trkpt>
      <trkpt lat="44.72966" lon="5.43764">
        <ele>837.3</ele>
        <time>2021-09-03T10:02:52Z</time>
      </trkpt>
      <trkpt lat="44.72962" lon="5.43766">
        <ele>836.7</ele>
        <time>2021-09-03T10:02:53Z</time>
      </trkpt>
      <trkpt lat="44.72959" lon="5.43768">
        <ele>836.2</ele>
        <time>2021-09-03T10:02:54Z</time>
      </trkpt>
      <trkpt lat="44.72956" lon="5.43769">
        <ele>835.7</ele>
        <time>2021-09-03T10:02:56Z</time>
      </trkpt>
      <trkpt lat="44.72951" lon="5.43768">
        <ele>835.1</ele>
        <time>2021-09-03T10:02:57Z</time>
      </trkpt>
      <trkpt lat="44.72949" lon="5.43767">
        <ele>834.8</ele>
        <time>2021-09-03T10:02:58Z</time>
      </trkpt>
      <trkpt lat="44.72946" lon="5.43768">
        <ele>834.3</ele>
        <time>2021-09-03T10:03:00Z</time>
      </trkpt>
      <trkpt lat="44.72943" lon="5.4377">
        <ele>833.8</ele>
        <time>2021-09-03T10:03:01Z</time>
      </trkpt>
      <trkpt lat="44.7294" lon="5.43772">
        <ele>833.3</ele>
        <time>2021-09-03T10:03:02Z</time>
      </trkpt>
      <trkpt lat="44.72937" lon="5.43773">
        <ele>832.9</ele>
        <time>2021-09-03T10:03:03Z</time>
      </trkpt>
      <trkpt lat="44.72934" lon="5.43772">
        <ele>832.4</ele>
        <time>2021-09-03T10:03:05Z</time>
      </trkpt>
      <trkpt lat="44.7293" lon="5.4377">
        <ele>831.8</ele>
        <time>2021-09-03T10:03:07Z</time>
      </trkpt>
      <trkpt lat="44.72926" lon="5.43773">
        <ele>831.2</ele>
        <time>2021-09-03T10:03:08Z</time>
      </trkpt>
      <trkpt lat="44.72925" lon="5.43775">
        <ele>831</ele>
        <time>2021-09-03T10:03:09Z</time>
      </trkpt>
      <trkpt lat="44.72922" lon="5.43778">
        <ele>830.5</ele>
        <time>2021-09-03T10:03:10Z</time>
      </trkpt>
      <trkpt lat="44.72917" lon="5.43779">
        <ele>829.7</ele>
        <time>2021-09-03T10:03:11Z</time>
      </trkpt>
      <trkpt lat="44.72914" lon="5.4378">
        <ele>829.2</ele>
        <time>2021-09-03T10:03:13Z</time>
      </trkpt>
      <trkpt lat="44.7291" lon="5.43782">
        <ele>828.6</ele>
        <time>2021-09-03T10:03:14Z</time>
      </trkpt>
      <trkpt lat="44.72906" lon="5.43787">
        <ele>827.8</ele>
        <time>2021-09-03T10:03:16Z</time>
      </trkpt>
      <trkpt lat="44.72903" lon="5.43793">
        <ele>827.1</ele>
        <time>2021-09-03T10:03:17Z</time>
      </trkpt>
      <trkpt lat="44.72901" lon="5.43797">
        <ele>826.6</ele>
        <time>2021-09-03T10:03:18Z</time>
      </trkpt>
      <trkpt lat="44.72898" lon="5.43802">
        <ele>825.9</ele>
        <time>2021-09-03T10:03:20Z</time>
      </trkpt>
      <trkpt lat="44.72894" lon="5.43808">
        <ele>825.1</ele>
        <time>2021-09-03T10:03:21Z</time>
      </trkpt>
      <trkpt lat="44.72891" lon="5.43813">
        <ele>824.3</ele>
        <time>2021-09-03T10:03:22Z</time>
      </trkpt>
      <trkpt lat="44.72888" lon="5.43818">
        <ele>823.7</ele>
        <time>2021-09-03T10:03:23Z</time>
      </trkpt>
      <trkpt lat="44.72887" lon="5.43822">
        <ele>823.2</ele>
        <time>2021-09-03T10:03:25Z</time>
      </trkpt>
      <trkpt lat="44.72886" lon="5.43827">
        <ele>822.7</ele>
        <time>2021-09-03T10:03:26Z</time>
      </trkpt>
      <trkpt lat="44.72886" lon="5.43831">
        <ele>822.3</ele>
        <time>2021-09-03T10:03:28Z</time>
      </trkpt>
      <trkpt lat="44.72885" lon="5.43836">
        <ele>821.8</ele>
        <time>2021-09-03T10:03:29Z</time>
      </trkpt>
      <trkpt lat="44.72884" lon="5.43842">
        <ele>821.1</ele>
        <time>2021-09-03T10:03:30Z</time>
      </trkpt>
      <trkpt lat="44.72882" lon="5.43848">
        <ele>820.4</ele>
        <time>2021-09-03T10:03:32Z</time>
      </trkpt>
      <trkpt lat="44.72879" lon="5.43854">
        <ele>819.6</ele>
        <time>2021-09-03T10:03:33Z</time>
      </trkpt>
      <trkpt lat="44.72877" lon="5.4386">
        <ele>819</ele>
        <time>2021-09-03T10:03:35Z</time>
      </trkpt>
      <trkpt lat="44.72875" lon="5.43865">
        <ele>818.4</ele>
        <time>2021-09-03T10:03:36Z</time>
      </trkpt>
      <trkpt lat="44.72875" lon="5.43871">
        <ele>817.8</ele>
        <time>2021-09-03T10:03:37Z</time>
      </trkpt>
      <trkpt lat="44.72874" lon="5.43877">
        <ele>817.2</ele>
        <time>2021-09-03T10:03:39Z</time>
      </trkpt>
      <trkpt lat="44.72872" lon="5.43882">
        <ele>816.6</ele>
        <time>2021-09-03T10:03:40Z</time>
      </trkpt>
      <trkpt lat="44.72871" lon="5.43887">
        <ele>816.1</ele>
        <time>2021-09-03T10:03:41Z</time>
      </trkpt>
      <trkpt lat="44.72871" lon="5.43888">
        <ele>815.9</ele>
        <time>2021-09-03T10:03:42Z</time>
      </trkpt>
      <trkpt lat="44.7287" lon="5.43893">
        <ele>815.4</ele>
        <time>2021-09-03T10:03:43Z</time>
      </trkpt>
      <trkpt lat="44.72869" lon="5.43897">
        <ele>815</ele>
        <time>2021-09-03T10:03:44Z</time>
      </trkpt>
      <trkpt lat="44.72867" lon="5.43902">
        <ele>814.3</ele>
        <time>2021-09-03T10:03:46Z</time>
      </trkpt>
      <trkpt lat="44.72865" lon="5.43907">
        <ele>813.8</ele>
        <time>2021-09-03T10:03:47Z</time>
      </trkpt>
      <trkpt lat="44.72863" lon="5.43911">
        <ele>813.3</ele>
        <time>2021-09-03T10:03:48Z</time>
      </trkpt>
      <trkpt lat="44.72862" lon="5.43916">
        <ele>812.7</ele>
        <time>2021-09-03T10:03:49Z</time>
      </trkpt>
      <trkpt lat="44.72861" lon="5.43919">
        <ele>812.4</ele>
        <time>2021-09-03T10:03:50Z</time>
      </trkpt>
      <trkpt lat="44.7286" lon="5.43923">
        <ele>811.9</ele>
        <time>2021-09-03T10:03:52Z</time>
      </trkpt>
      <trkpt lat="44.72859" lon="5.43929">
        <ele>811.3</ele>
        <time>2021-09-03T10:03:53Z</time>
      </trkpt>
      <trkpt lat="44.72858" lon="5.43931">
        <ele>811.1</ele>
        <time>2021-09-03T10:03:54Z</time>
      </trkpt>
      <trkpt lat="44.72856" lon="5.43935">
        <ele>810.6</ele>
        <time>2021-09-03T10:03:56Z</time>
      </trkpt>
      <trkpt lat="44.72855" lon="5.43938">
        <ele>810.2</ele>
        <time>2021-09-03T10:03:57Z</time>
      </trkpt>
      <trkpt lat="44.72853" lon="5.43943">
        <ele>809.6</ele>
        <time>2021-09-03T10:03:58Z</time>
      </trkpt>
      <trkpt lat="44.72851" lon="5.43946">
        <ele>809.2</ele>
        <time>2021-09-03T10:03:59Z</time>
      </trkpt>
      <trkpt lat="44.7285" lon="5.43951">
        <ele>808.7</ele>
        <time>2021-09-03T10:04:00Z</time>
      </trkpt>
      <trkpt lat="44.7285" lon="5.43954">
        <ele>808.4</ele>
        <time>2021-09-03T10:04:01Z</time>
      </trkpt>
      <trkpt lat="44.7285" lon="5.43956">
        <ele>808.2</ele>
        <time>2021-09-03T10:04:03Z</time>
      </trkpt>
      <trkpt lat="44.7285" lon="5.43957">
        <ele>808</ele>
        <time>2021-09-03T10:04:04Z</time>
      </trkpt>
      <trkpt lat="44.7285" lon="5.43959">
        <ele>807.8</ele>
        <time>2021-09-03T10:04:05Z</time>
      </trkpt>
      <trkpt lat="44.72848" lon="5.4396">
        <ele>807.6</ele>
        <time>2021-09-03T10:04:06Z</time>
      </trkpt>
      <trkpt lat="44.72845" lon="5.43961">
        <ele>807.1</ele>
        <time>2021-09-03T10:04:07Z</time>
      </trkpt>
      <trkpt lat="44.72844" lon="5.43962">
        <ele>806.9</ele>
        <time>2021-09-03T10:04:08Z</time>
      </trkpt>
      <trkpt lat="44.72841" lon="5.43966">
        <ele>806.3</ele>
        <time>2021-09-03T10:04:09Z</time>
      </trkpt>
      <trkpt lat="44.7284" lon="5.43967">
        <ele>806.2</ele>
        <time>2021-09-03T10:04:10Z</time>
      </trkpt>
      <trkpt lat="44.72838" lon="5.43972">
        <ele>805.6</ele>
        <time>2021-09-03T10:04:12Z</time>
      </trkpt>
      <trkpt lat="44.72835" lon="5.43977">
        <ele>804.9</ele>
        <time>2021-09-03T10:04:13Z</time>
      </trkpt>
      <trkpt lat="44.72829" lon="5.43986">
        <ele>803.6</ele>
        <time>2021-09-03T10:04:14Z</time>
      </trkpt>
      <trkpt lat="44.7282" lon="5.43997">
        <ele>801.9</ele>
        <time>2021-09-03T10:04:16Z</time>
      </trkpt>
      <trkpt lat="44.72817" lon="5.44001">
        <ele>801.3</ele>
        <time>2021-09-03T10:04:17Z</time>
      </trkpt>
      <trkpt lat="44.72815" lon="5.44002">
        <ele>801</ele>
        <time>2021-09-03T10:04:18Z</time>
      </trkpt>
      <trkpt lat="44.7281" lon="5.44003">
        <ele>800.2</ele>
        <time>2021-09-03T10:04:20Z</time>
      </trkpt>
      <trkpt lat="44.72804" lon="5.44003">
        <ele>799.4</ele>
        <time>2021-09-03T10:04:21Z</time>
      </trkpt>
      <trkpt lat="44.728" lon="5.44002">
        <ele>798.8</ele>
        <time>2021-09-03T10:04:22Z</time>
      </trkpt>
      <trkpt lat="44.72796" lon="5.44002">
        <ele>798.2</ele>
        <time>2021-09-03T10:04:24Z</time>
      </trkpt>
      <trkpt lat="44.72791" lon="5.44004">
        <ele>797.6</ele>
        <time>2021-09-03T10:04:25Z</time>
      </trkpt>
      <trkpt lat="44.72788" lon="5.44004">
        <ele>797</ele>
        <time>2021-09-03T10:04:26Z</time>
      </trkpt>
      <trkpt lat="44.72783" lon="5.44006">
        <ele>796.4</ele>
        <time>2021-09-03T10:04:28Z</time>
      </trkpt>
      <trkpt lat="44.72779" lon="5.44008">
        <ele>795.7</ele>
        <time>2021-09-03T10:04:29Z</time>
      </trkpt>
      <trkpt lat="44.72775" lon="5.44011">
        <ele>795</ele>
        <time>2021-09-03T10:04:30Z</time>
      </trkpt>
      <trkpt lat="44.72769" lon="5.44015">
        <ele>794.1</ele>
        <time>2021-09-03T10:04:31Z</time>
      </trkpt>
      <trkpt lat="44.72761" lon="5.44024">
        <ele>792.6</ele>
        <time>2021-09-03T10:04:33Z</time>
      </trkpt>
      <trkpt lat="44.72756" lon="5.44027">
        <ele>791.8</ele>
        <time>2021-09-03T10:04:34Z</time>
      </trkpt>
      <trkpt lat="44.72751" lon="5.4403">
        <ele>791</ele>
        <time>2021-09-03T10:04:35Z</time>
      </trkpt>
      <trkpt lat="44.72747" lon="5.44034">
        <ele>790.3</ele>
        <time>2021-09-03T10:04:36Z</time>
      </trkpt>
      <trkpt lat="44.72743" lon="5.44038">
        <ele>789.6</ele>
        <time>2021-09-03T10:04:37Z</time>
      </trkpt>
      <trkpt lat="44.72736" lon="5.4404">
        <ele>788.5</ele>
        <time>2021-09-03T10:04:39Z</time>
      </trkpt>
      <trkpt lat="44.72732" lon="5.44042">
        <ele>787.8</ele>
        <time>2021-09-03T10:04:40Z</time>
      </trkpt>
      <trkpt lat="44.72728" lon="5.44044">
        <ele>787.2</ele>
        <time>2021-09-03T10:04:42Z</time>
      </trkpt>
      <trkpt lat="44.72725" lon="5.44046">
        <ele>786.8</ele>
        <time>2021-09-03T10:04:43Z</time>
      </trkpt>
      <trkpt lat="44.72724" lon="5.44046">
        <ele>786.7</ele>
        <time>2021-09-03T10:04:44Z</time>
      </trkpt>
      <trkpt lat="44.72723" lon="5.44047">
        <ele>786.5</ele>
        <time>2021-09-03T10:04:46Z</time>
      </trkpt>
      <trkpt lat="44.72722" lon="5.44048">
        <ele>786.3</ele>
        <time>2021-09-03T10:04:47Z</time>
      </trkpt>
      <trkpt lat="44.72722" lon="5.44049">
        <ele>786.2</ele>
        <time>2021-09-03T10:04:48Z</time>
      </trkpt>
      <trkpt lat="44.72721" lon="5.44049">
        <ele>786.1</ele>
        <time>2021-09-03T10:04:49Z</time>
      </trkpt>
      <trkpt lat="44.72718" lon="5.44051">
        <ele>785.6</ele>
        <time>2021-09-03T10:04:51Z</time>
      </trkpt>
      <trkpt lat="44.72715" lon="5.44053">
        <ele>785.2</ele>
        <time>2021-09-03T10:04:52Z</time>
      </trkpt>
      <trkpt lat="44.72712" lon="5.44054">
        <ele>784.7</ele>
        <time>2021-09-03T10:04:53Z</time>
      </trkpt>
      <trkpt lat="44.72709" lon="5.44057">
        <ele>784.2</ele>
        <time>2021-09-03T10:04:54Z</time>
      </trkpt>
      <trkpt lat="44.72705" lon="5.44059">
        <ele>783.5</ele>
        <time>2021-09-03T10:04:56Z</time>
      </trkpt>
      <trkpt lat="44.72703" lon="5.44061">
        <ele>783.2</ele>
        <time>2021-09-03T10:04:57Z</time>
      </trkpt>
      <trkpt lat="44.72699" lon="5.44063">
        <ele>782.6</ele>
        <time>2021-09-03T10:04:58Z</time>
      </trkpt>
      <trkpt lat="44.72696" lon="5.44064">
        <ele>782.1</ele>
        <time>2021-09-03T10:05:00Z</time>
      </trkpt>
      <trkpt lat="44.72693" lon="5.44065">
        <ele>781.7</ele>
        <time>2021-09-03T10:05:02Z</time>
      </trkpt>
      <trkpt lat="44.7269" lon="5.44064">
        <ele>781.3</ele>
        <time>2021-09-03T10:05:03Z</time>
      </trkpt>
      <trkpt lat="44.72687" lon="5.44066">
        <ele>780.9</ele>
        <time>2021-09-03T10:05:05Z</time>
      </trkpt>
      <trkpt lat="44.72682" lon="5.44067">
        <ele>780</ele>
        <time>2021-09-03T10:05:06Z</time>
      </trkpt>
      <trkpt lat="44.72677" lon="5.44069">
        <ele>779.3</ele>
        <time>2021-09-03T10:05:07Z</time>
      </trkpt>
      <trkpt lat="44.72672" lon="5.44071">
        <ele>778.6</ele>
        <time>2021-09-03T10:05:08Z</time>
      </trkpt>
      <trkpt lat="44.7267" lon="5.44074">
        <ele>778.2</ele>
        <time>2021-09-03T10:05:09Z</time>
      </trkpt>
      <trkpt lat="44.72667" lon="5.44075">
        <ele>777.7</ele>
        <time>2021-09-03T10:05:10Z</time>
      </trkpt>
      <trkpt lat="44.72662" lon="5.44078">
        <ele>777</ele>
        <time>2021-09-03T10:05:12Z</time>
      </trkpt>
      <trkpt lat="44.72659" lon="5.44081">
        <ele>776.4</ele>
        <time>2021-09-03T10:05:13Z</time>
      </trkpt>
      <trkpt lat="44.72654" lon="5.44084">
        <ele>775.7</ele>
        <time>2021-09-03T10:05:14Z</time>
      </trkpt>
      <trkpt lat="44.72645" lon="5.4409">
        <ele>774.2</ele>
        <time>2021-09-03T10:05:16Z</time>
      </trkpt>
      <trkpt lat="44.72643" lon="5.44093">
        <ele>773.8</ele>
        <time>2021-09-03T10:05:17Z</time>
      </trkpt>
      <trkpt lat="44.72639" lon="5.44099">
        <ele>773</ele>
        <time>2021-09-03T10:05:18Z</time>
      </trkpt>
      <trkpt lat="44.72633" lon="5.44115">
        <ele>771.1</ele>
        <time>2021-09-03T10:05:20Z</time>
      </trkpt>
      <trkpt lat="44.72631" lon="5.4412">
        <ele>770.4</ele>
        <time>2021-09-03T10:05:21Z</time>
      </trkpt>
      <trkpt lat="44.72627" lon="5.44126">
        <ele>769.6</ele>
        <time>2021-09-03T10:05:22Z</time>
      </trkpt>
      <trkpt lat="44.72622" lon="5.44131">
        <ele>768.7</ele>
        <time>2021-09-03T10:05:23Z</time>
      </trkpt>
      <trkpt lat="44.72611" lon="5.4414">
        <ele>766.9</ele>
        <time>2021-09-03T10:05:25Z</time>
      </trkpt>
      <trkpt lat="44.726" lon="5.44147">
        <ele>765.2</ele>
        <time>2021-09-03T10:05:27Z</time>
      </trkpt>
      <trkpt lat="44.7259" lon="5.44156">
        <ele>763.4</ele>
        <time>2021-09-03T10:05:29Z</time>
      </trkpt>
      <trkpt lat="44.72586" lon="5.44159">
        <ele>762.7</ele>
        <time>2021-09-03T10:05:30Z</time>
      </trkpt>
      <trkpt lat="44.72581" lon="5.44156">
        <ele>761.9</ele>
        <time>2021-09-03T10:05:32Z</time>
      </trkpt>
      <trkpt lat="44.7257" lon="5.44167">
        <ele>760</ele>
        <time>2021-09-03T10:05:33Z</time>
      </trkpt>
      <trkpt lat="44.72565" lon="5.44172">
        <ele>759.1</ele>
        <time>2021-09-03T10:05:34Z</time>
      </trkpt>
      <trkpt lat="44.72556" lon="5.44179">
        <ele>757.2</ele>
        <time>2021-09-03T10:05:36Z</time>
      </trkpt>
      <trkpt lat="44.72549" lon="5.44185">
        <ele>756</ele>
        <time>2021-09-03T10:05:38Z</time>
      </trkpt>
      <trkpt lat="44.72544" lon="5.44189">
        <ele>755.1</ele>
        <time>2021-09-03T10:05:39Z</time>
      </trkpt>
      <trkpt lat="44.72542" lon="5.44192">
        <ele>754.6</ele>
        <time>2021-09-03T10:05:41Z</time>
      </trkpt>
      <trkpt lat="44.72538" lon="5.44196">
        <ele>753.9</ele>
        <time>2021-09-03T10:05:42Z</time>
      </trkpt>
      <trkpt lat="44.72538" lon="5.44198">
        <ele>753.7</ele>
        <time>2021-09-03T10:05:43Z</time>
      </trkpt>
      <trkpt lat="44.72537" lon="5.44198">
        <ele>753.6</ele>
        <time>2021-09-03T10:05:45Z</time>
      </trkpt>
      <trkpt lat="44.72539" lon="5.44197">
        <ele>753.3</ele>
        <time>2021-09-03T10:05:46Z</time>
      </trkpt>
      <trkpt lat="44.72542" lon="5.44195">
        <ele>752.9</ele>
        <time>2021-09-03T10:05:47Z</time>
      </trkpt>
      <trkpt lat="44.72542" lon="5.44195">
        <ele>752.9</ele>
        <time>2021-09-03T10:05:49Z</time>
      </trkpt>
      <trkpt lat="44.72542" lon="5.44195">
        <ele>752.8</ele>
        <time>2021-09-03T10:05:50Z</time>
      </trkpt>
      <trkpt lat="44.72542" lon="5.44195">
        <ele>752.8</ele>
        <time>2021-09-03T10:05:52Z</time>
      </trkpt>
      <trkpt lat="44.72542" lon="5.44194">
        <ele>752.8</ele>
        <time>2021-09-03T10:05:53Z</time>
      </trkpt>
      <trkpt lat="44.72536" lon="5.44197">
        <ele>751.8</ele>
        <time>2021-09-03T10:06:13Z</time>
      </trkpt>
      <trkpt lat="44.72529" lon="5.44199">
        <ele>750.7</ele>
        <time>2021-09-03T10:06:15Z</time>
      </trkpt>
      <trkpt lat="44.72526" lon="5.442">
        <ele>750.1</ele>
        <time>2021-09-03T10:06:16Z</time>
      </trkpt>
      <trkpt lat="44.72522" lon="5.44202">
        <ele>749.5</ele>
        <time>2021-09-03T10:06:17Z</time>
      </trkpt>
      <trkpt lat="44.7252" lon="5.44204">
        <ele>749.1</ele>
        <time>2021-09-03T10:06:18Z</time>
      </trkpt>
      <trkpt lat="44.72516" lon="5.44207">
        <ele>748.5</ele>
        <time>2021-09-03T10:06:19Z</time>
      </trkpt>
      <trkpt lat="44.72515" lon="5.44209">
        <ele>748.2</ele>
        <time>2021-09-03T10:06:20Z</time>
      </trkpt>
      <trkpt lat="44.72511" lon="5.44211">
        <ele>747.6</ele>
        <time>2021-09-03T10:06:22Z</time>
      </trkpt>
      <trkpt lat="44.72505" lon="5.44214">
        <ele>746.8</ele>
        <time>2021-09-03T10:06:23Z</time>
      </trkpt>
      <trkpt lat="44.72501" lon="5.44217">
        <ele>746.4</ele>
        <time>2021-09-03T10:06:24Z</time>
      </trkpt>
      <trkpt lat="44.72497" lon="5.44222">
        <ele>745.8</ele>
        <time>2021-09-03T10:06:25Z</time>
      </trkpt>
      <trkpt lat="44.72495" lon="5.44225">
        <ele>745.4</ele>
        <time>2021-09-03T10:06:27Z</time>
      </trkpt>
      <trkpt lat="44.7249" lon="5.44227">
        <ele>745</ele>
        <time>2021-09-03T10:06:28Z</time>
      </trkpt>
      <trkpt lat="44.72483" lon="5.44229">
        <ele>744.4</ele>
        <time>2021-09-03T10:06:30Z</time>
      </trkpt>
      <trkpt lat="44.72476" lon="5.44231">
        <ele>743.8</ele>
        <time>2021-09-03T10:06:31Z</time>
      </trkpt>
      <trkpt lat="44.72464" lon="5.44231">
        <ele>743</ele>
        <time>2021-09-03T10:06:33Z</time>
      </trkpt>
      <trkpt lat="44.72459" lon="5.44231">
        <ele>742.6</ele>
        <time>2021-09-03T10:06:34Z</time>
      </trkpt>
      <trkpt lat="44.72456" lon="5.44227">
        <ele>742.3</ele>
        <time>2021-09-03T10:06:35Z</time>
      </trkpt>
      <trkpt lat="44.72452" lon="5.44225">
        <ele>742.1</ele>
        <time>2021-09-03T10:06:37Z</time>
      </trkpt>
      <trkpt lat="44.72446" lon="5.44228">
        <ele>741.7</ele>
        <time>2021-09-03T10:06:38Z</time>
      </trkpt>
      <trkpt lat="44.72441" lon="5.44231">
        <ele>741.4</ele>
        <time>2021-09-03T10:06:40Z</time>
      </trkpt>
      <trkpt lat="44.72437" lon="5.44232">
        <ele>741.2</ele>
        <time>2021-09-03T10:06:41Z</time>
      </trkpt>
      <trkpt lat="44.72432" lon="5.4423">
        <ele>740.9</ele>
        <time>2021-09-03T10:06:42Z</time>
      </trkpt>
      <trkpt lat="44.72428" lon="5.44228">
        <ele>740.7</ele>
        <time>2021-09-03T10:06:43Z</time>
      </trkpt>
      <trkpt lat="44.72422" lon="5.44227">
        <ele>740.3</ele>
        <time>2021-09-03T10:06:44Z</time>
      </trkpt>
      <trkpt lat="44.72417" lon="5.44228">
        <ele>739.9</ele>
        <time>2021-09-03T10:06:46Z</time>
      </trkpt>
      <trkpt lat="44.72413" lon="5.44226">
        <ele>739.5</ele>
        <time>2021-09-03T10:06:47Z</time>
      </trkpt>
      <trkpt lat="44.7241" lon="5.44225">
        <ele>739</ele>
        <time>2021-09-03T10:06:48Z</time>
      </trkpt>
      <trkpt lat="44.72406" lon="5.44224">
        <ele>738.4</ele>
        <time>2021-09-03T10:06:49Z</time>
      </trkpt>
      <trkpt lat="44.72403" lon="5.44225">
        <ele>737.9</ele>
        <time>2021-09-03T10:06:50Z</time>
      </trkpt>
      <trkpt lat="44.72399" lon="5.44227">
        <ele>737.3</ele>
        <time>2021-09-03T10:06:51Z</time>
      </trkpt>
      <trkpt lat="44.72397" lon="5.4423">
        <ele>736.6</ele>
        <time>2021-09-03T10:06:53Z</time>
      </trkpt>
      <trkpt lat="44.72394" lon="5.44233">
        <ele>735.9</ele>
        <time>2021-09-03T10:06:54Z</time>
      </trkpt>
      <trkpt lat="44.7239" lon="5.44237">
        <ele>734.9</ele>
        <time>2021-09-03T10:06:56Z</time>
      </trkpt>
      <trkpt lat="44.72388" lon="5.4424">
        <ele>734.3</ele>
        <time>2021-09-03T10:06:57Z</time>
      </trkpt>
      <trkpt lat="44.72385" lon="5.44243">
        <ele>733.5</ele>
        <time>2021-09-03T10:06:59Z</time>
      </trkpt>
      <trkpt lat="44.72382" lon="5.44248">
        <ele>732.6</ele>
        <time>2021-09-03T10:07:00Z</time>
      </trkpt>
      <trkpt lat="44.72377" lon="5.44251">
        <ele>731.6</ele>
        <time>2021-09-03T10:07:02Z</time>
      </trkpt>
      <trkpt lat="44.72376" lon="5.44252">
        <ele>731.2</ele>
        <time>2021-09-03T10:07:03Z</time>
      </trkpt>
      <trkpt lat="44.72374" lon="5.44253">
        <ele>730.8</ele>
        <time>2021-09-03T10:07:04Z</time>
      </trkpt>
      <trkpt lat="44.72371" lon="5.44256">
        <ele>730</ele>
        <time>2021-09-03T10:07:05Z</time>
      </trkpt>
      <trkpt lat="44.72368" lon="5.44257">
        <ele>729.2</ele>
        <time>2021-09-03T10:07:06Z</time>
      </trkpt>
      <trkpt lat="44.72366" lon="5.44258">
        <ele>728.7</ele>
        <time>2021-09-03T10:07:07Z</time>
      </trkpt>
      <trkpt lat="44.72365" lon="5.44258">
        <ele>728.5</ele>
        <time>2021-09-03T10:07:09Z</time>
      </trkpt>
      <trkpt lat="44.72364" lon="5.44258">
        <ele>728.4</ele>
        <time>2021-09-03T10:07:10Z</time>
      </trkpt>
      <trkpt lat="44.72361" lon="5.44262">
        <ele>727.4</ele>
        <time>2021-09-03T10:07:11Z</time>
      </trkpt>
      <trkpt lat="44.72353" lon="5.44266">
        <ele>725.4</ele>
        <time>2021-09-03T10:07:12Z</time>
      </trkpt>
      <trkpt lat="44.72343" lon="5.44272">
        <ele>723.2</ele>
        <time>2021-09-03T10:07:14Z</time>
      </trkpt>
      <trkpt lat="44.72335" lon="5.44274">
        <ele>721.9</ele>
        <time>2021-09-03T10:07:16Z</time>
      </trkpt>
      <trkpt lat="44.72331" lon="5.44278">
        <ele>721.1</ele>
        <time>2021-09-03T10:07:17Z</time>
      </trkpt>
      <trkpt lat="44.72327" lon="5.44281">
        <ele>720.4</ele>
        <time>2021-09-03T10:07:18Z</time>
      </trkpt>
      <trkpt lat="44.72322" lon="5.44286">
        <ele>719.6</ele>
        <time>2021-09-03T10:07:20Z</time>
      </trkpt>
      <trkpt lat="44.72318" lon="5.44289">
        <ele>719</ele>
        <time>2021-09-03T10:07:21Z</time>
      </trkpt>
      <trkpt lat="44.72315" lon="5.44292">
        <ele>718.5</ele>
        <time>2021-09-03T10:07:22Z</time>
      </trkpt>
      <trkpt lat="44.72311" lon="5.44299">
        <ele>717.7</ele>
        <time>2021-09-03T10:07:23Z</time>
      </trkpt>
      <trkpt lat="44.72307" lon="5.44304">
        <ele>716.9</ele>
        <time>2021-09-03T10:07:24Z</time>
      </trkpt>
      <trkpt lat="44.72304" lon="5.4431">
        <ele>716.2</ele>
        <time>2021-09-03T10:07:25Z</time>
      </trkpt>
      <trkpt lat="44.72299" lon="5.44319">
        <ele>715</ele>
        <time>2021-09-03T10:07:27Z</time>
      </trkpt>
      <trkpt lat="44.72295" lon="5.44324">
        <ele>714.2</ele>
        <time>2021-09-03T10:07:29Z</time>
      </trkpt>
      <trkpt lat="44.72292" lon="5.44327">
        <ele>713.7</ele>
        <time>2021-09-03T10:07:30Z</time>
      </trkpt>
      <trkpt lat="44.72291" lon="5.44333">
        <ele>713</ele>
        <time>2021-09-03T10:07:32Z</time>
      </trkpt>
      <trkpt lat="44.72288" lon="5.44336">
        <ele>712.5</ele>
        <time>2021-09-03T10:07:33Z</time>
      </trkpt>
      <trkpt lat="44.72288" lon="5.44336">
        <ele>712.4</ele>
        <time>2021-09-03T10:07:34Z</time>
      </trkpt>
      <trkpt lat="44.72286" lon="5.44337">
        <ele>712</ele>
        <time>2021-09-03T10:07:35Z</time>
      </trkpt>
      <trkpt lat="44.72284" lon="5.44338">
        <ele>711.7</ele>
        <time>2021-09-03T10:07:37Z</time>
      </trkpt>
      <trkpt lat="44.72283" lon="5.4434">
        <ele>711.4</ele>
        <time>2021-09-03T10:07:38Z</time>
      </trkpt>
      <trkpt lat="44.72283" lon="5.44339">
        <ele>711.3</ele>
        <time>2021-09-03T10:07:39Z</time>
      </trkpt>
      <trkpt lat="44.7228" lon="5.44339">
        <ele>710.9</ele>
        <time>2021-09-03T10:07:41Z</time>
      </trkpt>
      <trkpt lat="44.72276" lon="5.44339">
        <ele>710.2</ele>
        <time>2021-09-03T10:07:42Z</time>
      </trkpt>
      <trkpt lat="44.72271" lon="5.44339">
        <ele>709.4</ele>
        <time>2021-09-03T10:07:44Z</time>
      </trkpt>
      <trkpt lat="44.72268" lon="5.44338">
        <ele>709</ele>
        <time>2021-09-03T10:07:45Z</time>
      </trkpt>
      <trkpt lat="44.72265" lon="5.44337">
        <ele>708.5</ele>
        <time>2021-09-03T10:07:46Z</time>
      </trkpt>
      <trkpt lat="44.72262" lon="5.44337">
        <ele>708.1</ele>
        <time>2021-09-03T10:07:47Z</time>
      </trkpt>
      <trkpt lat="44.72259" lon="5.44336">
        <ele>707.7</ele>
        <time>2021-09-03T10:07:49Z</time>
      </trkpt>
      <trkpt lat="44.72258" lon="5.44335">
        <ele>707.5</ele>
        <time>2021-09-03T10:07:50Z</time>
      </trkpt>
      <trkpt lat="44.72255" lon="5.44333">
        <ele>707</ele>
        <time>2021-09-03T10:07:51Z</time>
      </trkpt>
      <trkpt lat="44.72254" lon="5.44332">
        <ele>706.8</ele>
        <time>2021-09-03T10:07:52Z</time>
      </trkpt>
      <trkpt lat="44.72251" lon="5.4433">
        <ele>706.3</ele>
        <time>2021-09-03T10:07:53Z</time>
      </trkpt>
      <trkpt lat="44.72249" lon="5.4433">
        <ele>706.1</ele>
        <time>2021-09-03T10:07:54Z</time>
      </trkpt>
      <trkpt lat="44.72246" lon="5.44327">
        <ele>705.5</ele>
        <time>2021-09-03T10:07:56Z</time>
      </trkpt>
      <trkpt lat="44.72243" lon="5.44323">
        <ele>704.9</ele>
        <time>2021-09-03T10:07:57Z</time>
      </trkpt>
      <trkpt lat="44.72238" lon="5.44319">
        <ele>704</ele>
        <time>2021-09-03T10:07:58Z</time>
      </trkpt>
      <trkpt lat="44.72229" lon="5.44314">
        <ele>702.8</ele>
        <time>2021-09-03T10:08:00Z</time>
      </trkpt>
      <trkpt lat="44.72222" lon="5.44312">
        <ele>702.1</ele>
        <time>2021-09-03T10:08:02Z</time>
      </trkpt>
      <trkpt lat="44.72217" lon="5.44311">
        <ele>701.6</ele>
        <time>2021-09-03T10:08:03Z</time>
      </trkpt>
      <trkpt lat="44.72213" lon="5.44311">
        <ele>701.2</ele>
        <time>2021-09-03T10:08:04Z</time>
      </trkpt>
      <trkpt lat="44.72208" lon="5.44312">
        <ele>700.7</ele>
        <time>2021-09-03T10:08:05Z</time>
      </trkpt>
      <trkpt lat="44.72201" lon="5.44314">
        <ele>699.8</ele>
        <time>2021-09-03T10:08:07Z</time>
      </trkpt>
      <trkpt lat="44.72197" lon="5.44316">
        <ele>699.3</ele>
        <time>2021-09-03T10:08:08Z</time>
      </trkpt>
      <trkpt lat="44.72193" lon="5.44317">
        <ele>698.8</ele>
        <time>2021-09-03T10:08:09Z</time>
      </trkpt>
      <trkpt lat="44.72188" lon="5.44318">
        <ele>698.2</ele>
        <time>2021-09-03T10:08:11Z</time>
      </trkpt>
      <trkpt lat="44.72184" lon="5.44318">
        <ele>697.7</ele>
        <time>2021-09-03T10:08:12Z</time>
      </trkpt>
      <trkpt lat="44.72179" lon="5.4432">
        <ele>697</ele>
        <time>2021-09-03T10:08:14Z</time>
      </trkpt>
      <trkpt lat="44.72174" lon="5.44323">
        <ele>696.3</ele>
        <time>2021-09-03T10:08:15Z</time>
      </trkpt>
      <trkpt lat="44.7217" lon="5.44323">
        <ele>695.7</ele>
        <time>2021-09-03T10:08:16Z</time>
      </trkpt>
      <trkpt lat="44.72164" lon="5.44323">
        <ele>694.9</ele>
        <time>2021-09-03T10:08:18Z</time>
      </trkpt>
      <trkpt lat="44.7216" lon="5.44324">
        <ele>694.2</ele>
        <time>2021-09-03T10:08:19Z</time>
      </trkpt>
      <trkpt lat="44.72154" lon="5.44326">
        <ele>693.4</ele>
        <time>2021-09-03T10:08:21Z</time>
      </trkpt>
      <trkpt lat="44.72149" lon="5.44327">
        <ele>692.6</ele>
        <time>2021-09-03T10:08:22Z</time>
      </trkpt>
      <trkpt lat="44.72144" lon="5.44328">
        <ele>691.8</ele>
        <time>2021-09-03T10:08:23Z</time>
      </trkpt>
      <trkpt lat="44.72139" lon="5.44329">
        <ele>691</ele>
        <time>2021-09-03T10:08:24Z</time>
      </trkpt>
      <trkpt lat="44.72134" lon="5.4433">
        <ele>690.3</ele>
        <time>2021-09-03T10:08:26Z</time>
      </trkpt>
      <trkpt lat="44.72129" lon="5.4433">
        <ele>689.5</ele>
        <time>2021-09-03T10:08:27Z</time>
      </trkpt>
      <trkpt lat="44.72127" lon="5.4433">
        <ele>689.2</ele>
        <time>2021-09-03T10:08:28Z</time>
      </trkpt>
      <trkpt lat="44.72128" lon="5.44329">
        <ele>689.2</ele>
        <time>2021-09-03T10:08:30Z</time>
      </trkpt>
      <trkpt lat="44.72129" lon="5.44329">
        <ele>689</ele>
        <time>2021-09-03T10:08:31Z</time>
      </trkpt>
      <trkpt lat="44.72129" lon="5.44329">
        <ele>688.9</ele>
        <time>2021-09-03T10:08:32Z</time>
      </trkpt>
      <trkpt lat="44.7213" lon="5.44329">
        <ele>688.8</ele>
        <time>2021-09-03T10:08:34Z</time>
      </trkpt>
      <trkpt lat="44.7213" lon="5.44329">
        <ele>688.8</ele>
        <time>2021-09-03T10:08:36Z</time>
      </trkpt>
      <trkpt lat="44.7213" lon="5.44329">
        <ele>688.8</ele>
        <time>2021-09-03T10:08:37Z</time>
      </trkpt>
      <trkpt lat="44.7213" lon="5.44329">
        <ele>688.8</ele>
        <time>2021-09-03T10:08:38Z</time>
      </trkpt>
      <trkpt lat="44.72119" lon="5.44321">
        <ele>686.4</ele>
        <time>2021-09-03T10:08:49Z</time>
      </trkpt>
      <trkpt lat="44.72114" lon="5.44314">
        <ele>685</ele>
        <time>2021-09-03T10:08:51Z</time>
      </trkpt>
      <trkpt lat="44.7211" lon="5.44305">
        <ele>683.7</ele>
        <time>2021-09-03T10:08:52Z</time>
      </trkpt>
      <trkpt lat="44.72107" lon="5.443">
        <ele>682.9</ele>
        <time>2021-09-03T10:08:53Z</time>
      </trkpt>
      <trkpt lat="44.72104" lon="5.44296">
        <ele>682.4</ele>
        <time>2021-09-03T10:08:54Z</time>
      </trkpt>
      <trkpt lat="44.72099" lon="5.44293">
        <ele>681.6</ele>
        <time>2021-09-03T10:08:56Z</time>
      </trkpt>
      <trkpt lat="44.72096" lon="5.44292">
        <ele>681.2</ele>
        <time>2021-09-03T10:08:57Z</time>
      </trkpt>
      <trkpt lat="44.72093" lon="5.44294">
        <ele>680.7</ele>
        <time>2021-09-03T10:08:58Z</time>
      </trkpt>
      <trkpt lat="44.72092" lon="5.44294">
        <ele>680.5</ele>
        <time>2021-09-03T10:08:59Z</time>
      </trkpt>
      <trkpt lat="44.7209" lon="5.44295">
        <ele>680.3</ele>
        <time>2021-09-03T10:09:00Z</time>
      </trkpt>
      <trkpt lat="44.72089" lon="5.44295">
        <ele>680.1</ele>
        <time>2021-09-03T10:09:01Z</time>
      </trkpt>
      <trkpt lat="44.72085" lon="5.44295">
        <ele>679.7</ele>
        <time>2021-09-03T10:09:03Z</time>
      </trkpt>
      <trkpt lat="44.72083" lon="5.44294">
        <ele>679.6</ele>
        <time>2021-09-03T10:09:04Z</time>
      </trkpt>
      <trkpt lat="44.72083" lon="5.44295">
        <ele>679.5</ele>
        <time>2021-09-03T10:09:05Z</time>
      </trkpt>
      <trkpt lat="44.72083" lon="5.44295">
        <ele>679.5</ele>
        <time>2021-09-03T10:09:06Z</time>
      </trkpt>
      <trkpt lat="44.72082" lon="5.44295">
        <ele>679.4</ele>
        <time>2021-09-03T10:09:07Z</time>
      </trkpt>
      <trkpt lat="44.72078" lon="5.44295">
        <ele>679.1</ele>
        <time>2021-09-03T10:09:09Z</time>
      </trkpt>
      <trkpt lat="44.72076" lon="5.44294">
        <ele>678.8</ele>
        <time>2021-09-03T10:09:10Z</time>
      </trkpt>
      <trkpt lat="44.72074" lon="5.44293">
        <ele>678.7</ele>
        <time>2021-09-03T10:09:12Z</time>
      </trkpt>
      <trkpt lat="44.72072" lon="5.44294">
        <ele>678.6</ele>
        <time>2021-09-03T10:09:13Z</time>
      </trkpt>
      <trkpt lat="44.72069" lon="5.44295">
        <ele>677.9</ele>
        <time>2021-09-03T10:09:15Z</time>
      </trkpt>
      <trkpt lat="44.72068" lon="5.44295">
        <ele>677.9</ele>
        <time>2021-09-03T10:09:16Z</time>
      </trkpt>
      <trkpt lat="44.72067" lon="5.44291">
        <ele>677.8</ele>
        <time>2021-09-03T10:09:18Z</time>
      </trkpt>
      <trkpt lat="44.72066" lon="5.44287">
        <ele>677.7</ele>
        <time>2021-09-03T10:09:19Z</time>
      </trkpt>
      <trkpt lat="44.72066" lon="5.44284">
        <ele>677.6</ele>
        <time>2021-09-03T10:09:20Z</time>
      </trkpt>
      <trkpt lat="44.72066" lon="5.44277">
        <ele>677.4</ele>
        <time>2021-09-03T10:09:22Z</time>
      </trkpt>
      <trkpt lat="44.72068" lon="5.44271">
        <ele>677.3</ele>
        <time>2021-09-03T10:09:23Z</time>
      </trkpt>
      <trkpt lat="44.7207" lon="5.44263">
        <ele>677.2</ele>
        <time>2021-09-03T10:09:25Z</time>
      </trkpt>
      <trkpt lat="44.72071" lon="5.44257">
        <ele>677.2</ele>
        <time>2021-09-03T10:09:26Z</time>
      </trkpt>
      <trkpt lat="44.72071" lon="5.44251">
        <ele>677.2</ele>
        <time>2021-09-03T10:09:27Z</time>
      </trkpt>
      <trkpt lat="44.72068" lon="5.44243">
        <ele>677.3</ele>
        <time>2021-09-03T10:09:29Z</time>
      </trkpt>
      <trkpt lat="44.72067" lon="5.44237">
        <ele>677.4</ele>
        <time>2021-09-03T10:09:30Z</time>
      </trkpt>
      <trkpt lat="44.72066" lon="5.44232">
        <ele>677.6</ele>
        <time>2021-09-03T10:09:32Z</time>
      </trkpt>
      <trkpt lat="44.72064" lon="5.44228">
        <ele>677.8</ele>
        <time>2021-09-03T10:09:33Z</time>
      </trkpt>
      <trkpt lat="44.72063" lon="5.44227">
        <ele>677.8</ele>
        <time>2021-09-03T10:09:34Z</time>
      </trkpt>
      <trkpt lat="44.72061" lon="5.44223">
        <ele>678.1</ele>
        <time>2021-09-03T10:09:36Z</time>
      </trkpt>
      <trkpt lat="44.72059" lon="5.4422">
        <ele>678.3</ele>
        <time>2021-09-03T10:09:37Z</time>
      </trkpt>
      <trkpt lat="44.72057" lon="5.44215">
        <ele>678.6</ele>
        <time>2021-09-03T10:09:39Z</time>
      </trkpt>
      <trkpt lat="44.72056" lon="5.44211">
        <ele>678.9</ele>
        <time>2021-09-03T10:09:40Z</time>
      </trkpt>
      <trkpt lat="44.72056" lon="5.4421">
        <ele>678.9</ele>
        <time>2021-09-03T10:09:41Z</time>
      </trkpt>
      <trkpt lat="44.72055" lon="5.4421">
        <ele>679</ele>
        <time>2021-09-03T10:09:43Z</time>
      </trkpt>
      <trkpt lat="44.72054" lon="5.44209">
        <ele>679.1</ele>
        <time>2021-09-03T10:09:44Z</time>
      </trkpt>
      <trkpt lat="44.72053" lon="5.44209">
        <ele>679.1</ele>
        <time>2021-09-03T10:09:45Z</time>
      </trkpt>
      <trkpt lat="44.72052" lon="5.44209">
        <ele>679.2</ele>
        <time>2021-09-03T10:09:47Z</time>
      </trkpt>
      <trkpt lat="44.72052" lon="5.44208">
        <ele>679.3</ele>
        <time>2021-09-03T10:09:48Z</time>
      </trkpt>
      <trkpt lat="44.72051" lon="5.44208">
        <ele>679.4</ele>
        <time>2021-09-03T10:09:50Z</time>
      </trkpt>
      <trkpt lat="44.72038" lon="5.44164">
        <ele>682</ele>
        <time>2021-09-03T10:10:42Z</time>
      </trkpt>
      <trkpt lat="44.72032" lon="5.4416">
        <ele>681.2</ele>
        <time>2021-09-03T10:10:44Z</time>
      </trkpt>
      <trkpt lat="44.72027" lon="5.44157">
        <ele>680.5</ele>
        <time>2021-09-03T10:10:45Z</time>
      </trkpt>
      <trkpt lat="44.72022" lon="5.4415">
        <ele>679.6</ele>
        <time>2021-09-03T10:10:46Z</time>
      </trkpt>
      <trkpt lat="44.72015" lon="5.44141">
        <ele>678.7</ele>
        <time>2021-09-03T10:10:47Z</time>
      </trkpt>
      <trkpt lat="44.7201" lon="5.44129">
        <ele>677.9</ele>
        <time>2021-09-03T10:10:49Z</time>
      </trkpt>
      <trkpt lat="44.72008" lon="5.44121">
        <ele>677.4</ele>
        <time>2021-09-03T10:10:50Z</time>
      </trkpt>
      <trkpt lat="44.72007" lon="5.44113">
        <ele>677</ele>
        <time>2021-09-03T10:10:52Z</time>
      </trkpt>
      <trkpt lat="44.72006" lon="5.44109">
        <ele>676.7</ele>
        <time>2021-09-03T10:10:53Z</time>
      </trkpt>
      <trkpt lat="44.72006" lon="5.44105">
        <ele>676.3</ele>
        <time>2021-09-03T10:10:54Z</time>
      </trkpt>
      <trkpt lat="44.72006" lon="5.441">
        <ele>676</ele>
        <time>2021-09-03T10:10:55Z</time>
      </trkpt>
      <trkpt lat="44.72006" lon="5.44098">
        <ele>675.7</ele>
        <time>2021-09-03T10:10:56Z</time>
      </trkpt>
      <trkpt lat="44.72006" lon="5.44093">
        <ele>675.2</ele>
        <time>2021-09-03T10:10:57Z</time>
      </trkpt>
      <trkpt lat="44.72006" lon="5.4409">
        <ele>675</ele>
        <time>2021-09-03T10:10:59Z</time>
      </trkpt>
      <trkpt lat="44.72007" lon="5.44088">
        <ele>674.8</ele>
        <time>2021-09-03T10:11:00Z</time>
      </trkpt>
      <trkpt lat="44.72006" lon="5.44085">
        <ele>674.4</ele>
        <time>2021-09-03T10:11:01Z</time>
      </trkpt>
      <trkpt lat="44.72006" lon="5.44084">
        <ele>674.2</ele>
        <time>2021-09-03T10:11:02Z</time>
      </trkpt>
      <trkpt lat="44.72006" lon="5.44083">
        <ele>674.1</ele>
        <time>2021-09-03T10:11:03Z</time>
      </trkpt>
      <trkpt lat="44.72006" lon="5.44082">
        <ele>673.9</ele>
        <time>2021-09-03T10:11:04Z</time>
      </trkpt>
      <trkpt lat="44.71994" lon="5.44078">
        <ele>671.6</ele>
        <time>2021-09-03T10:11:28Z</time>
      </trkpt>
      <trkpt lat="44.71991" lon="5.44075">
        <ele>670.8</ele>
        <time>2021-09-03T10:11:29Z</time>
      </trkpt>
      <trkpt lat="44.71987" lon="5.44072">
        <ele>669.7</ele>
        <time>2021-09-03T10:11:30Z</time>
      </trkpt>
      <trkpt lat="44.71982" lon="5.44067">
        <ele>668.4</ele>
        <time>2021-09-03T10:11:32Z</time>
      </trkpt>
      <trkpt lat="44.7198" lon="5.44066">
        <ele>667.9</ele>
        <time>2021-09-03T10:11:33Z</time>
      </trkpt>
      <trkpt lat="44.71979" lon="5.44064">
        <ele>667.5</ele>
        <time>2021-09-03T10:11:34Z</time>
      </trkpt>
      <trkpt lat="44.71977" lon="5.44059">
        <ele>666.6</ele>
        <time>2021-09-03T10:11:35Z</time>
      </trkpt>
      <trkpt lat="44.71976" lon="5.44057">
        <ele>666.2</ele>
        <time>2021-09-03T10:11:36Z</time>
      </trkpt>
      <trkpt lat="44.71974" lon="5.44052">
        <ele>665.2</ele>
        <time>2021-09-03T10:11:38Z</time>
      </trkpt>
      <trkpt lat="44.71975" lon="5.44047">
        <ele>664.3</ele>
        <time>2021-09-03T10:11:40Z</time>
      </trkpt>
      <trkpt lat="44.71975" lon="5.44044">
        <ele>663.9</ele>
        <time>2021-09-03T10:11:41Z</time>
      </trkpt>
      <trkpt lat="44.71974" lon="5.44038">
        <ele>662.8</ele>
        <time>2021-09-03T10:11:42Z</time>
      </trkpt>
      <trkpt lat="44.71973" lon="5.44035">
        <ele>662.4</ele>
        <time>2021-09-03T10:11:43Z</time>
      </trkpt>
      <trkpt lat="44.71972" lon="5.4403">
        <ele>661.6</ele>
        <time>2021-09-03T10:11:45Z</time>
      </trkpt>
      <trkpt lat="44.71962" lon="5.44015">
        <ele>659.2</ele>
        <time>2021-09-03T10:11:46Z</time>
      </trkpt>
      <trkpt lat="44.71954" lon="5.44002">
        <ele>657.5</ele>
        <time>2021-09-03T10:11:47Z</time>
      </trkpt>
      <trkpt lat="44.71942" lon="5.43983">
        <ele>655.4</ele>
        <time>2021-09-03T10:11:49Z</time>
      </trkpt>
      <trkpt lat="44.71938" lon="5.43975">
        <ele>654.6</ele>
        <time>2021-09-03T10:11:50Z</time>
      </trkpt>
      <trkpt lat="44.71928" lon="5.43959">
        <ele>652.3</ele>
        <time>2021-09-03T10:11:52Z</time>
      </trkpt>
      <trkpt lat="44.71924" lon="5.43949">
        <ele>651</ele>
        <time>2021-09-03T10:11:53Z</time>
      </trkpt>
      <trkpt lat="44.71916" lon="5.43928">
        <ele>648.7</ele>
        <time>2021-09-03T10:11:55Z</time>
      </trkpt>
      <trkpt lat="44.71905" lon="5.43909">
        <ele>646.3</ele>
        <time>2021-09-03T10:11:57Z</time>
      </trkpt>
      <trkpt lat="44.719" lon="5.439">
        <ele>645.2</ele>
        <time>2021-09-03T10:11:58Z</time>
      </trkpt>
      <trkpt lat="44.71896" lon="5.43891">
        <ele>644.2</ele>
        <time>2021-09-03T10:11:59Z</time>
      </trkpt>
      <trkpt lat="44.71887" lon="5.43877">
        <ele>642.3</ele>
        <time>2021-09-03T10:12:01Z</time>
      </trkpt>
      <trkpt lat="44.7188" lon="5.43866">
        <ele>640.1</ele>
        <time>2021-09-03T10:12:03Z</time>
      </trkpt>
      <trkpt lat="44.71877" lon="5.43859">
        <ele>638.9</ele>
        <time>2021-09-03T10:12:04Z</time>
      </trkpt>
      <trkpt lat="44.71875" lon="5.43851">
        <ele>637.5</ele>
        <time>2021-09-03T10:12:05Z</time>
      </trkpt>
      <trkpt lat="44.71873" lon="5.43844">
        <ele>636.3</ele>
        <time>2021-09-03T10:12:06Z</time>
      </trkpt>
      <trkpt lat="44.71871" lon="5.43838">
        <ele>635.3</ele>
        <time>2021-09-03T10:12:07Z</time>
      </trkpt>
      <trkpt lat="44.71869" lon="5.43831">
        <ele>634.3</ele>
        <time>2021-09-03T10:12:08Z</time>
      </trkpt>
      <trkpt lat="44.71868" lon="5.43813">
        <ele>632</ele>
        <time>2021-09-03T10:12:10Z</time>
      </trkpt>
      <trkpt lat="44.71868" lon="5.43797">
        <ele>630.2</ele>
        <time>2021-09-03T10:12:12Z</time>
      </trkpt>
      <trkpt lat="44.71868" lon="5.43788">
        <ele>629.3</ele>
        <time>2021-09-03T10:12:13Z</time>
      </trkpt>
      <trkpt lat="44.71867" lon="5.4378">
        <ele>628.4</ele>
        <time>2021-09-03T10:12:14Z</time>
      </trkpt>
      <trkpt lat="44.71866" lon="5.43762">
        <ele>626.7</ele>
        <time>2021-09-03T10:12:16Z</time>
      </trkpt>
      <trkpt lat="44.71865" lon="5.43752">
        <ele>625.9</ele>
        <time>2021-09-03T10:12:17Z</time>
      </trkpt>
      <trkpt lat="44.71856" lon="5.43735">
        <ele>624.7</ele>
        <time>2021-09-03T10:12:19Z</time>
      </trkpt>
      <trkpt lat="44.71848" lon="5.43728">
        <ele>624.3</ele>
        <time>2021-09-03T10:12:20Z</time>
      </trkpt>
      <trkpt lat="44.71833" lon="5.43718">
        <ele>624.1</ele>
        <time>2021-09-03T10:12:22Z</time>
      </trkpt>
      <trkpt lat="44.7182" lon="5.43709">
        <ele>623.8</ele>
        <time>2021-09-03T10:12:24Z</time>
      </trkpt>
      <trkpt lat="44.71813" lon="5.43706">
        <ele>623.5</ele>
        <time>2021-09-03T10:12:25Z</time>
      </trkpt>
      <trkpt lat="44.71802" lon="5.43704">
        <ele>622.5</ele>
        <time>2021-09-03T10:12:27Z</time>
      </trkpt>
      <trkpt lat="44.71797" lon="5.43703">
        <ele>621.9</ele>
        <time>2021-09-03T10:12:28Z</time>
      </trkpt>
      <trkpt lat="44.71793" lon="5.43703">
        <ele>621.3</ele>
        <time>2021-09-03T10:12:29Z</time>
      </trkpt>
      <trkpt lat="44.71785" lon="5.43702">
        <ele>620.1</ele>
        <time>2021-09-03T10:12:31Z</time>
      </trkpt>
      <trkpt lat="44.7178" lon="5.437">
        <ele>619.3</ele>
        <time>2021-09-03T10:12:32Z</time>
      </trkpt>
      <trkpt lat="44.71771" lon="5.43694">
        <ele>617.6</ele>
        <time>2021-09-03T10:12:34Z</time>
      </trkpt>
      <trkpt lat="44.71761" lon="5.43687">
        <ele>615.8</ele>
        <time>2021-09-03T10:12:36Z</time>
      </trkpt>
      <trkpt lat="44.71755" lon="5.43683">
        <ele>614.7</ele>
        <time>2021-09-03T10:12:37Z</time>
      </trkpt>
      <trkpt lat="44.71746" lon="5.43675">
        <ele>612.8</ele>
        <time>2021-09-03T10:12:39Z</time>
      </trkpt>
      <trkpt lat="44.71742" lon="5.4367">
        <ele>611.3</ele>
        <time>2021-09-03T10:12:40Z</time>
      </trkpt>
      <trkpt lat="44.71737" lon="5.43664">
        <ele>609.7</ele>
        <time>2021-09-03T10:12:42Z</time>
      </trkpt>
      <trkpt lat="44.71734" lon="5.4366">
        <ele>608.7</ele>
        <time>2021-09-03T10:12:43Z</time>
      </trkpt>
      <trkpt lat="44.71731" lon="5.43657">
        <ele>608</ele>
        <time>2021-09-03T10:12:44Z</time>
      </trkpt>
      <trkpt lat="44.71723" lon="5.43649">
        <ele>605.9</ele>
        <time>2021-09-03T10:12:46Z</time>
      </trkpt>
      <trkpt lat="44.71714" lon="5.4364">
        <ele>604</ele>
        <time>2021-09-03T10:12:48Z</time>
      </trkpt>
      <trkpt lat="44.71713" lon="5.43636">
        <ele>603.6</ele>
        <time>2021-09-03T10:12:49Z</time>
      </trkpt>
      <trkpt lat="44.71714" lon="5.43635">
        <ele>603.4</ele>
        <time>2021-09-03T10:12:50Z</time>
      </trkpt>
      <trkpt lat="44.71714" lon="5.43628">
        <ele>602.8</ele>
        <time>2021-09-03T10:12:52Z</time>
      </trkpt>
      <trkpt lat="44.71713" lon="5.43622">
        <ele>602.4</ele>
        <time>2021-09-03T10:12:53Z</time>
      </trkpt>
      <trkpt lat="44.71713" lon="5.43619">
        <ele>602.2</ele>
        <time>2021-09-03T10:12:54Z</time>
      </trkpt>
      <trkpt lat="44.71714" lon="5.43614">
        <ele>602</ele>
        <time>2021-09-03T10:12:56Z</time>
      </trkpt>
      <trkpt lat="44.71715" lon="5.43609">
        <ele>601.7</ele>
        <time>2021-09-03T10:12:57Z</time>
      </trkpt>
      <trkpt lat="44.71715" lon="5.43605">
        <ele>601.7</ele>
        <time>2021-09-03T10:12:58Z</time>
      </trkpt>
      <trkpt lat="44.71714" lon="5.43597">
        <ele>601.6</ele>
        <time>2021-09-03T10:13:00Z</time>
      </trkpt>
      <trkpt lat="44.71711" lon="5.4359">
        <ele>601.6</ele>
        <time>2021-09-03T10:13:01Z</time>
      </trkpt>
      <trkpt lat="44.71709" lon="5.43586">
        <ele>601.4</ele>
        <time>2021-09-03T10:13:02Z</time>
      </trkpt>
      <trkpt lat="44.71704" lon="5.4358">
        <ele>601.2</ele>
        <time>2021-09-03T10:13:04Z</time>
      </trkpt>
      <trkpt lat="44.717" lon="5.43577">
        <ele>600.9</ele>
        <time>2021-09-03T10:13:05Z</time>
      </trkpt>
      <trkpt lat="44.71697" lon="5.43572">
        <ele>600.6</ele>
        <time>2021-09-03T10:13:06Z</time>
      </trkpt>
      <trkpt lat="44.71692" lon="5.43568">
        <ele>600.3</ele>
        <time>2021-09-03T10:13:08Z</time>
      </trkpt>
      <trkpt lat="44.71683" lon="5.43567">
        <ele>599.8</ele>
        <time>2021-09-03T10:13:09Z</time>
      </trkpt>
      <trkpt lat="44.71679" lon="5.43564">
        <ele>599.5</ele>
        <time>2021-09-03T10:13:10Z</time>
      </trkpt>
      <trkpt lat="44.71676" lon="5.4356">
        <ele>599.2</ele>
        <time>2021-09-03T10:13:11Z</time>
      </trkpt>
      <trkpt lat="44.71669" lon="5.4355">
        <ele>598.9</ele>
        <time>2021-09-03T10:13:13Z</time>
      </trkpt>
      <trkpt lat="44.71662" lon="5.43537">
        <ele>598.6</ele>
        <time>2021-09-03T10:13:15Z</time>
      </trkpt>
      <trkpt lat="44.71658" lon="5.43522">
        <ele>598.1</ele>
        <time>2021-09-03T10:13:17Z</time>
      </trkpt>
      <trkpt lat="44.71656" lon="5.43515">
        <ele>597.9</ele>
        <time>2021-09-03T10:13:18Z</time>
      </trkpt>
      <trkpt lat="44.71654" lon="5.43506">
        <ele>597.7</ele>
        <time>2021-09-03T10:13:20Z</time>
      </trkpt>
      <trkpt lat="44.71654" lon="5.43501">
        <ele>597.6</ele>
        <time>2021-09-03T10:13:21Z</time>
      </trkpt>
      <trkpt lat="44.71653" lon="5.43488">
        <ele>597.3</ele>
        <time>2021-09-03T10:13:23Z</time>
      </trkpt>
      <trkpt lat="44.71651" lon="5.43478">
        <ele>597</ele>
        <time>2021-09-03T10:13:25Z</time>
      </trkpt>
      <trkpt lat="44.71649" lon="5.43467">
        <ele>596.6</ele>
        <time>2021-09-03T10:13:27Z</time>
      </trkpt>
      <trkpt lat="44.71649" lon="5.43462">
        <ele>596.5</ele>
        <time>2021-09-03T10:13:28Z</time>
      </trkpt>
      <trkpt lat="44.7165" lon="5.43449">
        <ele>595.9</ele>
        <time>2021-09-03T10:13:30Z</time>
      </trkpt>
      <trkpt lat="44.71649" lon="5.43442">
        <ele>595.6</ele>
        <time>2021-09-03T10:13:31Z</time>
      </trkpt>
      <trkpt lat="44.71648" lon="5.43435">
        <ele>595.2</ele>
        <time>2021-09-03T10:13:32Z</time>
      </trkpt>
      <trkpt lat="44.71648" lon="5.43424">
        <ele>594.5</ele>
        <time>2021-09-03T10:13:34Z</time>
      </trkpt>
      <trkpt lat="44.71647" lon="5.4342">
        <ele>594.3</ele>
        <time>2021-09-03T10:13:35Z</time>
      </trkpt>
      <trkpt lat="44.71646" lon="5.43413">
        <ele>594.1</ele>
        <time>2021-09-03T10:13:37Z</time>
      </trkpt>
      <trkpt lat="44.71644" lon="5.43409">
        <ele>594</ele>
        <time>2021-09-03T10:13:38Z</time>
      </trkpt>
      <trkpt lat="44.71638" lon="5.43403">
        <ele>593.7</ele>
        <time>2021-09-03T10:13:40Z</time>
      </trkpt>
      <trkpt lat="44.71633" lon="5.43401">
        <ele>593.2</ele>
        <time>2021-09-03T10:13:41Z</time>
      </trkpt>
      <trkpt lat="44.71624" lon="5.43399">
        <ele>592.5</ele>
        <time>2021-09-03T10:13:43Z</time>
      </trkpt>
      <trkpt lat="44.71616" lon="5.43403">
        <ele>591.8</ele>
        <time>2021-09-03T10:13:45Z</time>
      </trkpt>
      <trkpt lat="44.71612" lon="5.43409">
        <ele>591.5</ele>
        <time>2021-09-03T10:13:47Z</time>
      </trkpt>
      <trkpt lat="44.71612" lon="5.43412">
        <ele>591.3</ele>
        <time>2021-09-03T10:13:48Z</time>
      </trkpt>
      <trkpt lat="44.71612" lon="5.43414">
        <ele>591.3</ele>
        <time>2021-09-03T10:13:49Z</time>
      </trkpt>
      <trkpt lat="44.71611" lon="5.4341">
        <ele>591.1</ele>
        <time>2021-09-03T10:13:51Z</time>
      </trkpt>
      <trkpt lat="44.7161" lon="5.43406">
        <ele>591</ele>
        <time>2021-09-03T10:13:52Z</time>
      </trkpt>
      <trkpt lat="44.7161" lon="5.43403">
        <ele>590.8</ele>
        <time>2021-09-03T10:13:54Z</time>
      </trkpt>
      <trkpt lat="44.71609" lon="5.43399">
        <ele>590.7</ele>
        <time>2021-09-03T10:13:55Z</time>
      </trkpt>
      <trkpt lat="44.71608" lon="5.43395">
        <ele>590.5</ele>
        <time>2021-09-03T10:13:56Z</time>
      </trkpt>
      <trkpt lat="44.71607" lon="5.43392">
        <ele>590.4</ele>
        <time>2021-09-03T10:13:57Z</time>
      </trkpt>
      <trkpt lat="44.71606" lon="5.43388">
        <ele>590.2</ele>
        <time>2021-09-03T10:13:59Z</time>
      </trkpt>
      <trkpt lat="44.71605" lon="5.43385">
        <ele>590.1</ele>
        <time>2021-09-03T10:15:12Z</time>
      </trkpt>
      <trkpt lat="44.71604" lon="5.43381">
        <ele>590</ele>
        <time>2021-09-03T10:15:13Z</time>
      </trkpt>
      <trkpt lat="44.71603" lon="5.43374">
        <ele>589.9</ele>
        <time>2021-09-03T10:15:14Z</time>
      </trkpt>
      <trkpt lat="44.71602" lon="5.43366">
        <ele>589.7</ele>
        <time>2021-09-03T10:15:15Z</time>
      </trkpt>
      <trkpt lat="44.71602" lon="5.43359">
        <ele>589.5</ele>
        <time>2021-09-03T10:15:16Z</time>
      </trkpt>
      <trkpt lat="44.71602" lon="5.43351">
        <ele>589.4</ele>
        <time>2021-09-03T10:15:17Z</time>
      </trkpt>
      <trkpt lat="44.71602" lon="5.4333">
        <ele>588.8</ele>
        <time>2021-09-03T10:15:19Z</time>
      </trkpt>
      <trkpt lat="44.71598" lon="5.4331">
        <ele>588.3</ele>
        <time>2021-09-03T10:15:21Z</time>
      </trkpt>
      <trkpt lat="44.71596" lon="5.43301">
        <ele>588</ele>
        <time>2021-09-03T10:15:22Z</time>
      </trkpt>
      <trkpt lat="44.71594" lon="5.43293">
        <ele>587.6</ele>
        <time>2021-09-03T10:15:23Z</time>
      </trkpt>
      <trkpt lat="44.71592" lon="5.43285">
        <ele>587.2</ele>
        <time>2021-09-03T10:15:24Z</time>
      </trkpt>
      <trkpt lat="44.71587" lon="5.43271">
        <ele>586.3</ele>
        <time>2021-09-03T10:15:26Z</time>
      </trkpt>
      <trkpt lat="44.71579" lon="5.4326">
        <ele>585.3</ele>
        <time>2021-09-03T10:15:28Z</time>
      </trkpt>
      <trkpt lat="44.71575" lon="5.43255">
        <ele>584.7</ele>
        <time>2021-09-03T10:15:29Z</time>
      </trkpt>
      <trkpt lat="44.71566" lon="5.43249">
        <ele>583.6</ele>
        <time>2021-09-03T10:15:31Z</time>
      </trkpt>
      <trkpt lat="44.7156" lon="5.43247">
        <ele>583</ele>
        <time>2021-09-03T10:15:32Z</time>
      </trkpt>
      <trkpt lat="44.71547" lon="5.43248">
        <ele>581.6</ele>
        <time>2021-09-03T10:15:34Z</time>
      </trkpt>
      <trkpt lat="44.71539" lon="5.4325">
        <ele>580.7</ele>
        <time>2021-09-03T10:15:35Z</time>
      </trkpt>
      <trkpt lat="44.71522" lon="5.43258">
        <ele>578.6</ele>
        <time>2021-09-03T10:15:37Z</time>
      </trkpt>
      <trkpt lat="44.71504" lon="5.43267">
        <ele>576.5</ele>
        <time>2021-09-03T10:15:39Z</time>
      </trkpt>
      <trkpt lat="44.71488" lon="5.43275">
        <ele>574.6</ele>
        <time>2021-09-03T10:15:41Z</time>
      </trkpt>
      <trkpt lat="44.71472" lon="5.4328">
        <ele>572.5</ele>
        <time>2021-09-03T10:15:43Z</time>
      </trkpt>
      <trkpt lat="44.71456" lon="5.43278">
        <ele>571</ele>
        <time>2021-09-03T10:15:45Z</time>
      </trkpt>
      <trkpt lat="44.71439" lon="5.43273">
        <ele>569.6</ele>
        <time>2021-09-03T10:15:47Z</time>
      </trkpt>
      <trkpt lat="44.71432" lon="5.4327">
        <ele>569</ele>
        <time>2021-09-03T10:15:48Z</time>
      </trkpt>
      <trkpt lat="44.71419" lon="5.43264">
        <ele>568.1</ele>
        <time>2021-09-03T10:15:50Z</time>
      </trkpt>
      <trkpt lat="44.71412" lon="5.4326">
        <ele>567.6</ele>
        <time>2021-09-03T10:15:51Z</time>
      </trkpt>
      <trkpt lat="44.71406" lon="5.43257">
        <ele>567.2</ele>
        <time>2021-09-03T10:15:52Z</time>
      </trkpt>
      <trkpt lat="44.71399" lon="5.43255">
        <ele>566.8</ele>
        <time>2021-09-03T10:15:53Z</time>
      </trkpt>
      <trkpt lat="44.71387" lon="5.4325">
        <ele>565.9</ele>
        <time>2021-09-03T10:15:55Z</time>
      </trkpt>
      <trkpt lat="44.71377" lon="5.43243">
        <ele>565.1</ele>
        <time>2021-09-03T10:15:57Z</time>
      </trkpt>
      <trkpt lat="44.71372" lon="5.43241">
        <ele>564.7</ele>
        <time>2021-09-03T10:15:58Z</time>
      </trkpt>
      <trkpt lat="44.71363" lon="5.43234">
        <ele>563.9</ele>
        <time>2021-09-03T10:16:00Z</time>
      </trkpt>
      <trkpt lat="44.71353" lon="5.43223">
        <ele>563.1</ele>
        <time>2021-09-03T10:16:02Z</time>
      </trkpt>
      <trkpt lat="44.71343" lon="5.43211">
        <ele>562.3</ele>
        <time>2021-09-03T10:16:04Z</time>
      </trkpt>
      <trkpt lat="44.71334" lon="5.43202">
        <ele>561.6</ele>
        <time>2021-09-03T10:16:06Z</time>
      </trkpt>
      <trkpt lat="44.71327" lon="5.4319">
        <ele>560.9</ele>
        <time>2021-09-03T10:16:08Z</time>
      </trkpt>
      <trkpt lat="44.71324" lon="5.43183">
        <ele>560.6</ele>
        <time>2021-09-03T10:16:09Z</time>
      </trkpt>
      <trkpt lat="44.71321" lon="5.43177">
        <ele>560.2</ele>
        <time>2021-09-03T10:16:10Z</time>
      </trkpt>
      <trkpt lat="44.71318" lon="5.43172">
        <ele>560</ele>
        <time>2021-09-03T10:16:11Z</time>
      </trkpt>
      <trkpt lat="44.71312" lon="5.43158">
        <ele>559.2</ele>
        <time>2021-09-03T10:16:13Z</time>
      </trkpt>
      <trkpt lat="44.7131" lon="5.4315">
        <ele>558.8</ele>
        <time>2021-09-03T10:16:14Z</time>
      </trkpt>
      <trkpt lat="44.71305" lon="5.43138">
        <ele>558.1</ele>
        <time>2021-09-03T10:16:16Z</time>
      </trkpt>
      <trkpt lat="44.71302" lon="5.43134">
        <ele>557.9</ele>
        <time>2021-09-03T10:16:17Z</time>
      </trkpt>
      <trkpt lat="44.71298" lon="5.43129">
        <ele>557.5</ele>
        <time>2021-09-03T10:16:19Z</time>
      </trkpt>
      <trkpt lat="44.71296" lon="5.43126">
        <ele>557.3</ele>
        <time>2021-09-03T10:16:20Z</time>
      </trkpt>
      <trkpt lat="44.7129" lon="5.43119">
        <ele>556.9</ele>
        <time>2021-09-03T10:16:22Z</time>
      </trkpt>
      <trkpt lat="44.71287" lon="5.43114">
        <ele>556.6</ele>
        <time>2021-09-03T10:16:23Z</time>
      </trkpt>
      <trkpt lat="44.71283" lon="5.43109">
        <ele>556.3</ele>
        <time>2021-09-03T10:16:24Z</time>
      </trkpt>
      <trkpt lat="44.71281" lon="5.43106">
        <ele>556.2</ele>
        <time>2021-09-03T10:16:25Z</time>
      </trkpt>
      <trkpt lat="44.71279" lon="5.43101">
        <ele>556</ele>
        <time>2021-09-03T10:16:26Z</time>
      </trkpt>
      <trkpt lat="44.71277" lon="5.43094">
        <ele>555.7</ele>
        <time>2021-09-03T10:16:27Z</time>
      </trkpt>
      <trkpt lat="44.71275" lon="5.43089">
        <ele>555.5</ele>
        <time>2021-09-03T10:16:28Z</time>
      </trkpt>
      <trkpt lat="44.71272" lon="5.43082">
        <ele>555.1</ele>
        <time>2021-09-03T10:16:30Z</time>
      </trkpt>
      <trkpt lat="44.71266" lon="5.43079">
        <ele>554.8</ele>
        <time>2021-09-03T10:16:32Z</time>
      </trkpt>
      <trkpt lat="44.71262" lon="5.4308">
        <ele>554.7</ele>
        <time>2021-09-03T10:16:33Z</time>
      </trkpt>
      <trkpt lat="44.71257" lon="5.43083">
        <ele>554.7</ele>
        <time>2021-09-03T10:16:35Z</time>
      </trkpt>
      <trkpt lat="44.71254" lon="5.43086">
        <ele>554.7</ele>
        <time>2021-09-03T10:16:36Z</time>
      </trkpt>
      <trkpt lat="44.71251" lon="5.4309">
        <ele>554.7</ele>
        <time>2021-09-03T10:16:37Z</time>
      </trkpt>
      <trkpt lat="44.71248" lon="5.43092">
        <ele>554.8</ele>
        <time>2021-09-03T10:16:38Z</time>
      </trkpt>
      <trkpt lat="44.71244" lon="5.43092">
        <ele>554.9</ele>
        <time>2021-09-03T10:16:39Z</time>
      </trkpt>
      <trkpt lat="44.7124" lon="5.43093">
        <ele>555.1</ele>
        <time>2021-09-03T10:16:41Z</time>
      </trkpt>
      <trkpt lat="44.71234" lon="5.43094">
        <ele>555.3</ele>
        <time>2021-09-03T10:16:43Z</time>
      </trkpt>
      <trkpt lat="44.71229" lon="5.43095">
        <ele>555.5</ele>
        <time>2021-09-03T10:16:45Z</time>
      </trkpt>
      <trkpt lat="44.71226" lon="5.43095">
        <ele>555.6</ele>
        <time>2021-09-03T10:16:46Z</time>
      </trkpt>
      <trkpt lat="44.71222" lon="5.43095">
        <ele>555.8</ele>
        <time>2021-09-03T10:16:47Z</time>
      </trkpt>
      <trkpt lat="44.7122" lon="5.43096">
        <ele>555.9</ele>
        <time>2021-09-03T10:16:48Z</time>
      </trkpt>
      <trkpt lat="44.71214" lon="5.43098">
        <ele>556.1</ele>
        <time>2021-09-03T10:16:50Z</time>
      </trkpt>
      <trkpt lat="44.71208" lon="5.43099">
        <ele>556.3</ele>
        <time>2021-09-03T10:16:51Z</time>
      </trkpt>
      <trkpt lat="44.71204" lon="5.431">
        <ele>556.5</ele>
        <time>2021-09-03T10:16:52Z</time>
      </trkpt>
      <trkpt lat="44.712" lon="5.43101">
        <ele>556.6</ele>
        <time>2021-09-03T10:16:53Z</time>
      </trkpt>
      <trkpt lat="44.71192" lon="5.43103">
        <ele>556.9</ele>
        <time>2021-09-03T10:16:55Z</time>
      </trkpt>
      <trkpt lat="44.71186" lon="5.43103">
        <ele>557.1</ele>
        <time>2021-09-03T10:16:57Z</time>
      </trkpt>
      <trkpt lat="44.71182" lon="5.43102">
        <ele>557.3</ele>
        <time>2021-09-03T10:16:58Z</time>
      </trkpt>
      <trkpt lat="44.71175" lon="5.431">
        <ele>557.6</ele>
        <time>2021-09-03T10:17:00Z</time>
      </trkpt>
      <trkpt lat="44.71171" lon="5.43099">
        <ele>557.8</ele>
        <time>2021-09-03T10:17:01Z</time>
      </trkpt>
      <trkpt lat="44.71164" lon="5.43098">
        <ele>558</ele>
        <time>2021-09-03T10:17:03Z</time>
      </trkpt>
      <trkpt lat="44.71161" lon="5.43098">
        <ele>558.2</ele>
        <time>2021-09-03T10:17:04Z</time>
      </trkpt>
      <trkpt lat="44.71157" lon="5.43098">
        <ele>558.3</ele>
        <time>2021-09-03T10:17:05Z</time>
      </trkpt>
      <trkpt lat="44.71153" lon="5.43098">
        <ele>558.5</ele>
        <time>2021-09-03T10:17:07Z</time>
      </trkpt>
      <trkpt lat="44.71148" lon="5.43099">
        <ele>558.8</ele>
        <time>2021-09-03T10:17:08Z</time>
      </trkpt>
      <trkpt lat="44.71144" lon="5.43099">
        <ele>559</ele>
        <time>2021-09-03T10:17:09Z</time>
      </trkpt>
      <trkpt lat="44.71137" lon="5.43099">
        <ele>559.3</ele>
        <time>2021-09-03T10:17:11Z</time>
      </trkpt>
      <trkpt lat="44.71133" lon="5.43097">
        <ele>559.6</ele>
        <time>2021-09-03T10:17:13Z</time>
      </trkpt>
      <trkpt lat="44.71128" lon="5.43097">
        <ele>559.8</ele>
        <time>2021-09-03T10:17:15Z</time>
      </trkpt>
      <trkpt lat="44.71123" lon="5.43096">
        <ele>560.1</ele>
        <time>2021-09-03T10:17:16Z</time>
      </trkpt>
      <trkpt lat="44.7112" lon="5.43095">
        <ele>560.3</ele>
        <time>2021-09-03T10:17:17Z</time>
      </trkpt>
      <trkpt lat="44.71119" lon="5.43095">
        <ele>560.4</ele>
        <time>2021-09-03T10:17:18Z</time>
      </trkpt>
      <trkpt lat="44.71117" lon="5.43094">
        <ele>560.5</ele>
        <time>2021-09-03T10:17:19Z</time>
      </trkpt>
      <trkpt lat="44.71115" lon="5.43094">
        <ele>560.7</ele>
        <time>2021-09-03T10:17:21Z</time>
      </trkpt>
      <trkpt lat="44.71111" lon="5.43094">
        <ele>560.9</ele>
        <time>2021-09-03T10:17:22Z</time>
      </trkpt>
      <trkpt lat="44.7111" lon="5.43094">
        <ele>561</ele>
        <time>2021-09-03T10:17:23Z</time>
      </trkpt>
      <trkpt lat="44.71105" lon="5.43092">
        <ele>561.3</ele>
        <time>2021-09-03T10:17:25Z</time>
      </trkpt>
      <trkpt lat="44.71102" lon="5.43092">
        <ele>561.5</ele>
        <time>2021-09-03T10:17:27Z</time>
      </trkpt>
      <trkpt lat="44.711" lon="5.43091">
        <ele>561.6</ele>
        <time>2021-09-03T10:17:28Z</time>
      </trkpt>
      <trkpt lat="44.71096" lon="5.43091">
        <ele>561.9</ele>
        <time>2021-09-03T10:17:30Z</time>
      </trkpt>
      <trkpt lat="44.71093" lon="5.43092">
        <ele>562.1</ele>
        <time>2021-09-03T10:17:31Z</time>
      </trkpt>
      <trkpt lat="44.7109" lon="5.4309">
        <ele>562.3</ele>
        <time>2021-09-03T10:17:33Z</time>
      </trkpt>
      <trkpt lat="44.71085" lon="5.43089">
        <ele>562.5</ele>
        <time>2021-09-03T10:17:35Z</time>
      </trkpt>
      <trkpt lat="44.7108" lon="5.4309">
        <ele>562.7</ele>
        <time>2021-09-03T10:17:37Z</time>
      </trkpt>
      <trkpt lat="44.71078" lon="5.43091">
        <ele>562.7</ele>
        <time>2021-09-03T10:17:38Z</time>
      </trkpt>
      <trkpt lat="44.71077" lon="5.43093">
        <ele>562.8</ele>
        <time>2021-09-03T10:17:39Z</time>
      </trkpt>
      <trkpt lat="44.71074" lon="5.43094">
        <ele>562.9</ele>
        <time>2021-09-03T10:17:41Z</time>
      </trkpt>
      <trkpt lat="44.7107" lon="5.43095">
        <ele>563.1</ele>
        <time>2021-09-03T10:17:42Z</time>
      </trkpt>
      <trkpt lat="44.71066" lon="5.43096">
        <ele>563.2</ele>
        <time>2021-09-03T10:17:44Z</time>
      </trkpt>
      <trkpt lat="44.71063" lon="5.43096">
        <ele>563.4</ele>
        <time>2021-09-03T10:17:45Z</time>
      </trkpt>
      <trkpt lat="44.71061" lon="5.43095">
        <ele>563.4</ele>
        <time>2021-09-03T10:17:46Z</time>
      </trkpt>
      <trkpt lat="44.71059" lon="5.43096">
        <ele>563.5</ele>
        <time>2021-09-03T10:17:47Z</time>
      </trkpt>
      <trkpt lat="44.71055" lon="5.43096">
        <ele>563.6</ele>
        <time>2021-09-03T10:17:49Z</time>
      </trkpt>
      <trkpt lat="44.71051" lon="5.43096">
        <ele>563.6</ele>
        <time>2021-09-03T10:17:50Z</time>
      </trkpt>
      <trkpt lat="44.71048" lon="5.43097">
        <ele>563.6</ele>
        <time>2021-09-03T10:17:51Z</time>
      </trkpt>
      <trkpt lat="44.71048" lon="5.43098">
        <ele>563.7</ele>
        <time>2021-09-03T10:17:52Z</time>
      </trkpt>
      <trkpt lat="44.71043" lon="5.431">
        <ele>563.7</ele>
        <time>2021-09-03T10:17:54Z</time>
      </trkpt>
      <trkpt lat="44.71041" lon="5.43102">
        <ele>563.8</ele>
        <time>2021-09-03T10:17:55Z</time>
      </trkpt>
      <trkpt lat="44.71039" lon="5.43103">
        <ele>563.8</ele>
        <time>2021-09-03T10:17:56Z</time>
      </trkpt>
      <trkpt lat="44.71036" lon="5.43103">
        <ele>563.8</ele>
        <time>2021-09-03T10:17:57Z</time>
      </trkpt>
      <trkpt lat="44.71031" lon="5.43104">
        <ele>563.9</ele>
        <time>2021-09-03T10:17:59Z</time>
      </trkpt>
      <trkpt lat="44.71025" lon="5.43104">
        <ele>564</ele>
        <time>2021-09-03T10:18:01Z</time>
      </trkpt>
      <trkpt lat="44.7102" lon="5.43103">
        <ele>564.1</ele>
        <time>2021-09-03T10:18:03Z</time>
      </trkpt>
      <trkpt lat="44.71017" lon="5.43102">
        <ele>564.2</ele>
        <time>2021-09-03T10:18:04Z</time>
      </trkpt>
      <trkpt lat="44.71014" lon="5.43101">
        <ele>564.2</ele>
        <time>2021-09-03T10:18:05Z</time>
      </trkpt>
      <trkpt lat="44.71011" lon="5.431">
        <ele>564.3</ele>
        <time>2021-09-03T10:18:06Z</time>
      </trkpt>
      <trkpt lat="44.71008" lon="5.43099">
        <ele>564.4</ele>
        <time>2021-09-03T10:18:07Z</time>
      </trkpt>
      <trkpt lat="44.71006" lon="5.43099">
        <ele>564.4</ele>
        <time>2021-09-03T10:18:08Z</time>
      </trkpt>
      <trkpt lat="44.71002" lon="5.43096">
        <ele>564.5</ele>
        <time>2021-09-03T10:18:10Z</time>
      </trkpt>
      <trkpt lat="44.70999" lon="5.43094">
        <ele>564.6</ele>
        <time>2021-09-03T10:18:11Z</time>
      </trkpt>
      <trkpt lat="44.70995" lon="5.43092">
        <ele>564.7</ele>
        <time>2021-09-03T10:18:12Z</time>
      </trkpt>
      <trkpt lat="44.7099" lon="5.43089">
        <ele>564.8</ele>
        <time>2021-09-03T10:18:14Z</time>
      </trkpt>
      <trkpt lat="44.70986" lon="5.43087">
        <ele>564.9</ele>
        <time>2021-09-03T10:18:15Z</time>
      </trkpt>
      <trkpt lat="44.7098" lon="5.43083">
        <ele>565.2</ele>
        <time>2021-09-03T10:18:17Z</time>
      </trkpt>
      <trkpt lat="44.70976" lon="5.4308">
        <ele>565.3</ele>
        <time>2021-09-03T10:18:18Z</time>
      </trkpt>
      <trkpt lat="44.70971" lon="5.43077">
        <ele>565.5</ele>
        <time>2021-09-03T10:18:19Z</time>
      </trkpt>
      <trkpt lat="44.70968" lon="5.43074">
        <ele>565.6</ele>
        <time>2021-09-03T10:18:20Z</time>
      </trkpt>
      <trkpt lat="44.70965" lon="5.43071">
        <ele>565.6</ele>
        <time>2021-09-03T10:18:21Z</time>
      </trkpt>
      <trkpt lat="44.70961" lon="5.43065">
        <ele>565.6</ele>
        <time>2021-09-03T10:18:23Z</time>
      </trkpt>
      <trkpt lat="44.70957" lon="5.43059">
        <ele>565.6</ele>
        <time>2021-09-03T10:18:25Z</time>
      </trkpt>
      <trkpt lat="44.70955" lon="5.43055">
        <ele>565.6</ele>
        <time>2021-09-03T10:18:26Z</time>
      </trkpt>
      <trkpt lat="44.70953" lon="5.43051">
        <ele>565.5</ele>
        <time>2021-09-03T10:18:27Z</time>
      </trkpt>
      <trkpt lat="44.70949" lon="5.43044">
        <ele>565.4</ele>
        <time>2021-09-03T10:18:29Z</time>
      </trkpt>
      <trkpt lat="44.70946" lon="5.43037">
        <ele>565.3</ele>
        <time>2021-09-03T10:18:31Z</time>
      </trkpt>
      <trkpt lat="44.70942" lon="5.4303">
        <ele>565.3</ele>
        <time>2021-09-03T10:18:32Z</time>
      </trkpt>
      <trkpt lat="44.7094" lon="5.43025">
        <ele>565.2</ele>
        <time>2021-09-03T10:18:33Z</time>
      </trkpt>
      <trkpt lat="44.70935" lon="5.43015">
        <ele>565</ele>
        <time>2021-09-03T10:18:35Z</time>
      </trkpt>
      <trkpt lat="44.7093" lon="5.43006">
        <ele>564.8</ele>
        <time>2021-09-03T10:18:37Z</time>
      </trkpt>
      <trkpt lat="44.70923" lon="5.42998">
        <ele>564.6</ele>
        <time>2021-09-03T10:18:39Z</time>
      </trkpt>
      <trkpt lat="44.70919" lon="5.42995">
        <ele>564.4</ele>
        <time>2021-09-03T10:18:40Z</time>
      </trkpt>
      <trkpt lat="44.70916" lon="5.42992">
        <ele>564.2</ele>
        <time>2021-09-03T10:18:41Z</time>
      </trkpt>
      <trkpt lat="44.70909" lon="5.42987">
        <ele>563.9</ele>
        <time>2021-09-03T10:18:43Z</time>
      </trkpt>
      <trkpt lat="44.70902" lon="5.42985">
        <ele>563.6</ele>
        <time>2021-09-03T10:18:44Z</time>
      </trkpt>
      <trkpt lat="44.70896" lon="5.42984">
        <ele>563.3</ele>
        <time>2021-09-03T10:18:46Z</time>
      </trkpt>
      <trkpt lat="44.70892" lon="5.42985">
        <ele>563.1</ele>
        <time>2021-09-03T10:18:47Z</time>
      </trkpt>
      <trkpt lat="44.70887" lon="5.42985">
        <ele>562.8</ele>
        <time>2021-09-03T10:18:49Z</time>
      </trkpt>
      <trkpt lat="44.70884" lon="5.42985">
        <ele>562.6</ele>
        <time>2021-09-03T10:18:50Z</time>
      </trkpt>
      <trkpt lat="44.70878" lon="5.42988">
        <ele>562.3</ele>
        <time>2021-09-03T10:18:52Z</time>
      </trkpt>
      <trkpt lat="44.70875" lon="5.42989">
        <ele>562.1</ele>
        <time>2021-09-03T10:18:53Z</time>
      </trkpt>
      <trkpt lat="44.70871" lon="5.42989">
        <ele>561.8</ele>
        <time>2021-09-03T10:18:55Z</time>
      </trkpt>
      <trkpt lat="44.70867" lon="5.42989">
        <ele>561.6</ele>
        <time>2021-09-03T10:18:57Z</time>
      </trkpt>
      <trkpt lat="44.70864" lon="5.42989">
        <ele>561.4</ele>
        <time>2021-09-03T10:18:58Z</time>
      </trkpt>
      <trkpt lat="44.7086" lon="5.42989">
        <ele>561.2</ele>
        <time>2021-09-03T10:19:00Z</time>
      </trkpt>
      <trkpt lat="44.70856" lon="5.42989">
        <ele>561</ele>
        <time>2021-09-03T10:19:31Z</time>
      </trkpt>
      <trkpt lat="44.70853" lon="5.42989">
        <ele>560.8</ele>
        <time>2021-09-03T10:19:32Z</time>
      </trkpt>
      <trkpt lat="44.70839" lon="5.42993">
        <ele>560</ele>
        <time>2021-09-03T10:19:34Z</time>
      </trkpt>
      <trkpt lat="44.70832" lon="5.42994">
        <ele>559.6</ele>
        <time>2021-09-03T10:19:35Z</time>
      </trkpt>
      <trkpt lat="44.7082" lon="5.42995">
        <ele>559</ele>
        <time>2021-09-03T10:19:37Z</time>
      </trkpt>
      <trkpt lat="44.70814" lon="5.42995">
        <ele>558.6</ele>
        <time>2021-09-03T10:19:38Z</time>
      </trkpt>
      <trkpt lat="44.70799" lon="5.42996">
        <ele>557.7</ele>
        <time>2021-09-03T10:19:40Z</time>
      </trkpt>
      <trkpt lat="44.70784" lon="5.42999">
        <ele>557</ele>
        <time>2021-09-03T10:19:42Z</time>
      </trkpt>
      <trkpt lat="44.70775" lon="5.43">
        <ele>556.7</ele>
        <time>2021-09-03T10:19:43Z</time>
      </trkpt>
      <trkpt lat="44.70759" lon="5.43002">
        <ele>556.2</ele>
        <time>2021-09-03T10:19:45Z</time>
      </trkpt>
      <trkpt lat="44.7075" lon="5.43003">
        <ele>556.1</ele>
        <time>2021-09-03T10:19:46Z</time>
      </trkpt>
      <trkpt lat="44.70742" lon="5.43002">
        <ele>556.2</ele>
        <time>2021-09-03T10:19:47Z</time>
      </trkpt>
      <trkpt lat="44.70726" lon="5.43001">
        <ele>556.8</ele>
        <time>2021-09-03T10:19:49Z</time>
      </trkpt>
      <trkpt lat="44.70719" lon="5.43">
        <ele>557.3</ele>
        <time>2021-09-03T10:19:50Z</time>
      </trkpt>
      <trkpt lat="44.70712" lon="5.42999">
        <ele>557.8</ele>
        <time>2021-09-03T10:19:51Z</time>
      </trkpt>
      <trkpt lat="44.707" lon="5.42996">
        <ele>558.8</ele>
        <time>2021-09-03T10:19:53Z</time>
      </trkpt>
      <trkpt lat="44.7069" lon="5.42993">
        <ele>559.6</ele>
        <time>2021-09-03T10:19:55Z</time>
      </trkpt>
      <trkpt lat="44.70681" lon="5.42992">
        <ele>560.3</ele>
        <time>2021-09-03T10:19:57Z</time>
      </trkpt>
      <trkpt lat="44.70677" lon="5.42991">
        <ele>560.6</ele>
        <time>2021-09-03T10:19:58Z</time>
      </trkpt>
      <trkpt lat="44.70672" lon="5.4299">
        <ele>561</ele>
        <time>2021-09-03T10:20:00Z</time>
      </trkpt>
      <trkpt lat="44.70669" lon="5.4299">
        <ele>561.2</ele>
        <time>2021-09-03T10:20:01Z</time>
      </trkpt>
      <trkpt lat="44.70664" lon="5.4299">
        <ele>561.5</ele>
        <time>2021-09-03T10:20:03Z</time>
      </trkpt>
      <trkpt lat="44.7066" lon="5.42989">
        <ele>561.8</ele>
        <time>2021-09-03T10:20:04Z</time>
      </trkpt>
      <trkpt lat="44.70657" lon="5.42992">
        <ele>562</ele>
        <time>2021-09-03T10:20:06Z</time>
      </trkpt>
      <trkpt lat="44.70656" lon="5.42991">
        <ele>562.1</ele>
        <time>2021-09-03T10:20:07Z</time>
      </trkpt>
      <trkpt lat="44.70655" lon="5.42991">
        <ele>562.2</ele>
        <time>2021-09-03T10:20:08Z</time>
      </trkpt>
      <trkpt lat="44.70654" lon="5.4299">
        <ele>562.2</ele>
        <time>2021-09-03T10:20:09Z</time>
      </trkpt>
      <trkpt lat="44.7065" lon="5.42989">
        <ele>562.4</ele>
        <time>2021-09-03T10:20:11Z</time>
      </trkpt>
      <trkpt lat="44.70649" lon="5.42989">
        <ele>562.5</ele>
        <time>2021-09-03T10:20:12Z</time>
      </trkpt>
      <trkpt lat="44.70646" lon="5.42989">
        <ele>562.7</ele>
        <time>2021-09-03T10:20:13Z</time>
      </trkpt>
      <trkpt lat="44.70642" lon="5.42989">
        <ele>562.9</ele>
        <time>2021-09-03T10:20:15Z</time>
      </trkpt>
      <trkpt lat="44.70639" lon="5.42987">
        <ele>563</ele>
        <time>2021-09-03T10:20:16Z</time>
      </trkpt>
      <trkpt lat="44.70638" lon="5.42987">
        <ele>563</ele>
        <time>2021-09-03T10:20:17Z</time>
      </trkpt>
      <trkpt lat="44.70636" lon="5.42987">
        <ele>563.1</ele>
        <time>2021-09-03T10:20:18Z</time>
      </trkpt>
      <trkpt lat="44.70631" lon="5.42987">
        <ele>563.3</ele>
        <time>2021-09-03T10:20:20Z</time>
      </trkpt>
      <trkpt lat="44.70627" lon="5.42989">
        <ele>563.4</ele>
        <time>2021-09-03T10:20:22Z</time>
      </trkpt>
      <trkpt lat="44.70624" lon="5.42991">
        <ele>563.4</ele>
        <time>2021-09-03T10:20:23Z</time>
      </trkpt>
      <trkpt lat="44.70621" lon="5.42992">
        <ele>563.3</ele>
        <time>2021-09-03T10:20:24Z</time>
      </trkpt>
      <trkpt lat="44.70619" lon="5.42991">
        <ele>563.3</ele>
        <time>2021-09-03T10:20:25Z</time>
      </trkpt>
      <trkpt lat="44.70615" lon="5.4299">
        <ele>563.2</ele>
        <time>2021-09-03T10:20:27Z</time>
      </trkpt>
      <trkpt lat="44.7061" lon="5.42989">
        <ele>563</ele>
        <time>2021-09-03T10:20:28Z</time>
      </trkpt>
      <trkpt lat="44.70603" lon="5.42991">
        <ele>562.7</ele>
        <time>2021-09-03T10:20:29Z</time>
      </trkpt>
      <trkpt lat="44.70598" lon="5.42994">
        <ele>562.3</ele>
        <time>2021-09-03T10:20:30Z</time>
      </trkpt>
      <trkpt lat="44.70594" lon="5.42999">
        <ele>561.9</ele>
        <time>2021-09-03T10:20:31Z</time>
      </trkpt>
      <trkpt lat="44.70587" lon="5.43011">
        <ele>561.2</ele>
        <time>2021-09-03T10:20:33Z</time>
      </trkpt>
      <trkpt lat="44.70583" lon="5.43019">
        <ele>560.8</ele>
        <time>2021-09-03T10:20:34Z</time>
      </trkpt>
      <trkpt lat="44.70581" lon="5.43029">
        <ele>560.5</ele>
        <time>2021-09-03T10:20:35Z</time>
      </trkpt>
      <trkpt lat="44.70577" lon="5.4305">
        <ele>560.4</ele>
        <time>2021-09-03T10:20:37Z</time>
      </trkpt>
      <trkpt lat="44.70575" lon="5.43068">
        <ele>560.9</ele>
        <time>2021-09-03T10:20:39Z</time>
      </trkpt>
      <trkpt lat="44.70575" lon="5.43083">
        <ele>561.6</ele>
        <time>2021-09-03T10:20:41Z</time>
      </trkpt>
      <trkpt lat="44.70576" lon="5.43091">
        <ele>562.1</ele>
        <time>2021-09-03T10:20:43Z</time>
      </trkpt>
      <trkpt lat="44.70577" lon="5.43094">
        <ele>562.3</ele>
        <time>2021-09-03T10:20:44Z</time>
      </trkpt>
      <trkpt lat="44.70577" lon="5.43105">
        <ele>563.1</ele>
        <time>2021-09-03T10:20:46Z</time>
      </trkpt>
      <trkpt lat="44.70579" lon="5.43112">
        <ele>563.8</ele>
        <time>2021-09-03T10:20:48Z</time>
      </trkpt>
      <trkpt lat="44.70579" lon="5.43116">
        <ele>564</ele>
        <time>2021-09-03T10:20:49Z</time>
      </trkpt>
      <trkpt lat="44.70581" lon="5.43117">
        <ele>564.3</ele>
        <time>2021-09-03T10:20:50Z</time>
      </trkpt>
      <trkpt lat="44.70583" lon="5.43119">
        <ele>564.6</ele>
        <time>2021-09-03T10:20:51Z</time>
      </trkpt>
      <trkpt lat="44.70585" lon="5.43121">
        <ele>564.8</ele>
        <time>2021-09-03T10:20:52Z</time>
      </trkpt>
      <trkpt lat="44.70587" lon="5.43124">
        <ele>565.2</ele>
        <time>2021-09-03T10:20:53Z</time>
      </trkpt>
      <trkpt lat="44.70588" lon="5.43125">
        <ele>565.3</ele>
        <time>2021-09-03T10:20:54Z</time>
      </trkpt>
      <trkpt lat="44.70588" lon="5.43128">
        <ele>565.6</ele>
        <time>2021-09-03T10:20:56Z</time>
      </trkpt>
      <trkpt lat="44.70589" lon="5.43133">
        <ele>565.9</ele>
        <time>2021-09-03T10:20:58Z</time>
      </trkpt>
      <trkpt lat="44.7059" lon="5.4314">
        <ele>566.5</ele>
        <time>2021-09-03T10:21:00Z</time>
      </trkpt>
      <trkpt lat="44.7059" lon="5.43144">
        <ele>566.8</ele>
        <time>2021-09-03T10:21:07Z</time>
      </trkpt>
      <trkpt lat="44.70591" lon="5.43148">
        <ele>567.2</ele>
        <time>2021-09-03T10:21:08Z</time>
      </trkpt>
      <trkpt lat="44.70591" lon="5.43152">
        <ele>567.5</ele>
        <time>2021-09-03T10:21:09Z</time>
      </trkpt>
      <trkpt lat="44.70591" lon="5.43158">
        <ele>568</ele>
        <time>2021-09-03T10:21:11Z</time>
      </trkpt>
      <trkpt lat="44.70591" lon="5.4316">
        <ele>568.2</ele>
        <time>2021-09-03T10:21:12Z</time>
      </trkpt>
      <trkpt lat="44.7059" lon="5.43165">
        <ele>568.7</ele>
        <time>2021-09-03T10:21:14Z</time>
      </trkpt>
      <trkpt lat="44.70589" lon="5.43168">
        <ele>569</ele>
        <time>2021-09-03T10:21:15Z</time>
      </trkpt>
      <trkpt lat="44.70589" lon="5.43169">
        <ele>569.1</ele>
        <time>2021-09-03T10:21:16Z</time>
      </trkpt>
      <trkpt lat="44.70589" lon="5.43169">
        <ele>569.1</ele>
        <time>2021-09-03T10:21:18Z</time>
      </trkpt>
      <trkpt lat="44.70589" lon="5.43169">
        <ele>569.2</ele>
        <time>2021-09-03T10:21:19Z</time>
      </trkpt>
      <trkpt lat="44.7059" lon="5.43169">
        <ele>569.2</ele>
        <time>2021-09-03T10:21:20Z</time>
      </trkpt>
      <trkpt lat="44.7059" lon="5.4317">
        <ele>569.3</ele>
        <time>2021-09-03T10:21:21Z</time>
      </trkpt>
      <trkpt lat="44.70591" lon="5.43171">
        <ele>569.5</ele>
        <time>2021-09-03T10:21:23Z</time>
      </trkpt>
      <trkpt lat="44.70591" lon="5.43173">
        <ele>569.6</ele>
        <time>2021-09-03T10:21:25Z</time>
      </trkpt>
      <trkpt lat="44.70591" lon="5.43182">
        <ele>570.5</ele>
        <time>2021-09-03T10:21:32Z</time>
      </trkpt>
      <trkpt lat="44.70591" lon="5.43188">
        <ele>571</ele>
        <time>2021-09-03T10:21:33Z</time>
      </trkpt>
      <trkpt lat="44.7059" lon="5.43193">
        <ele>571.5</ele>
        <time>2021-09-03T10:21:35Z</time>
      </trkpt>
      <trkpt lat="44.70588" lon="5.43197">
        <ele>572</ele>
        <time>2021-09-03T10:21:37Z</time>
      </trkpt>
      <trkpt lat="44.70587" lon="5.432">
        <ele>572.3</ele>
        <time>2021-09-03T10:21:38Z</time>
      </trkpt>
      <trkpt lat="44.70587" lon="5.43202">
        <ele>572.6</ele>
        <time>2021-09-03T10:21:40Z</time>
      </trkpt>
      <trkpt lat="44.70586" lon="5.43204">
        <ele>572.8</ele>
        <time>2021-09-03T10:21:41Z</time>
      </trkpt>
      <trkpt lat="44.70585" lon="5.43206">
        <ele>573</ele>
        <time>2021-09-03T10:21:42Z</time>
      </trkpt>
      <trkpt lat="44.70584" lon="5.43207">
        <ele>573.2</ele>
        <time>2021-09-03T10:21:44Z</time>
      </trkpt>
      <trkpt lat="44.70584" lon="5.43209">
        <ele>573.3</ele>
        <time>2021-09-03T10:21:45Z</time>
      </trkpt>
      <trkpt lat="44.70585" lon="5.43211">
        <ele>573.5</ele>
        <time>2021-09-03T10:21:46Z</time>
      </trkpt>
      <trkpt lat="44.70585" lon="5.43211">
        <ele>573.6</ele>
        <time>2021-09-03T10:21:47Z</time>
      </trkpt>
      <trkpt lat="44.70585" lon="5.43211">
        <ele>573.6</ele>
        <time>2021-09-03T10:21:48Z</time>
      </trkpt>
      <trkpt lat="44.70585" lon="5.43213">
        <ele>573.8</ele>
        <time>2021-09-03T10:21:49Z</time>
      </trkpt>
      <trkpt lat="44.70585" lon="5.43215">
        <ele>574</ele>
        <time>2021-09-03T10:21:50Z</time>
      </trkpt>
      <trkpt lat="44.70585" lon="5.43217">
        <ele>574.2</ele>
        <time>2021-09-03T10:21:51Z</time>
      </trkpt>
      <trkpt lat="44.70585" lon="5.43218">
        <ele>574.3</ele>
        <time>2021-09-03T10:21:52Z</time>
      </trkpt>
      <trkpt lat="44.70584" lon="5.4322">
        <ele>574.5</ele>
        <time>2021-09-03T10:21:54Z</time>
      </trkpt>
      <trkpt lat="44.70584" lon="5.43225">
        <ele>575</ele>
        <time>2021-09-03T10:21:56Z</time>
      </trkpt>
      <trkpt lat="44.70583" lon="5.43226">
        <ele>575.1</ele>
        <time>2021-09-03T10:21:57Z</time>
      </trkpt>
      <trkpt lat="44.70583" lon="5.43229">
        <ele>575.4</ele>
        <time>2021-09-03T10:21:58Z</time>
      </trkpt>
      <trkpt lat="44.70583" lon="5.43231">
        <ele>575.5</ele>
        <time>2021-09-03T10:21:59Z</time>
      </trkpt>
      <trkpt lat="44.70584" lon="5.43233">
        <ele>575.7</ele>
        <time>2021-09-03T10:22:01Z</time>
      </trkpt>
      <trkpt lat="44.70584" lon="5.43236">
        <ele>576</ele>
        <time>2021-09-03T10:22:03Z</time>
      </trkpt>
      <trkpt lat="44.70584" lon="5.43243">
        <ele>576.7</ele>
        <time>2021-09-03T10:22:04Z</time>
      </trkpt>
      <trkpt lat="44.70584" lon="5.43248">
        <ele>577.1</ele>
        <time>2021-09-03T10:22:10Z</time>
      </trkpt>
      <trkpt lat="44.70584" lon="5.43252">
        <ele>577.5</ele>
        <time>2021-09-03T10:22:11Z</time>
      </trkpt>
      <trkpt lat="44.70584" lon="5.43257">
        <ele>578</ele>
        <time>2021-09-03T10:22:12Z</time>
      </trkpt>
      <trkpt lat="44.70583" lon="5.43263">
        <ele>578.6</ele>
        <time>2021-09-03T10:22:14Z</time>
      </trkpt>
      <trkpt lat="44.70584" lon="5.43266">
        <ele>578.8</ele>
        <time>2021-09-03T10:22:15Z</time>
      </trkpt>
      <trkpt lat="44.70584" lon="5.43268">
        <ele>579</ele>
        <time>2021-09-03T10:22:16Z</time>
      </trkpt>
      <trkpt lat="44.70585" lon="5.43269">
        <ele>579.2</ele>
        <time>2021-09-03T10:22:17Z</time>
      </trkpt>
      <trkpt lat="44.70585" lon="5.43271">
        <ele>579.3</ele>
        <time>2021-09-03T10:22:18Z</time>
      </trkpt>
      <trkpt lat="44.70585" lon="5.43275">
        <ele>579.8</ele>
        <time>2021-09-03T10:22:20Z</time>
      </trkpt>
      <trkpt lat="44.70586" lon="5.4328">
        <ele>580.2</ele>
        <time>2021-09-03T10:22:22Z</time>
      </trkpt>
      <trkpt lat="44.70586" lon="5.43281">
        <ele>580.3</ele>
        <time>2021-09-03T10:22:24Z</time>
      </trkpt>
      <trkpt lat="44.70587" lon="5.43282">
        <ele>580.4</ele>
        <time>2021-09-03T10:22:25Z</time>
      </trkpt>
      <trkpt lat="44.70587" lon="5.43282">
        <ele>580.4</ele>
        <time>2021-09-03T10:22:27Z</time>
      </trkpt>
      <trkpt lat="44.70587" lon="5.43283">
        <ele>580.5</ele>
        <time>2021-09-03T10:22:28Z</time>
      </trkpt>
      <trkpt lat="44.70587" lon="5.43285">
        <ele>580.7</ele>
        <time>2021-09-03T10:22:30Z</time>
      </trkpt>
      <trkpt lat="44.70589" lon="5.43306">
        <ele>582.5</ele>
        <time>2021-09-03T10:22:43Z</time>
      </trkpt>
      <trkpt lat="44.70587" lon="5.4331">
        <ele>582.8</ele>
        <time>2021-09-03T10:22:44Z</time>
      </trkpt>
      <trkpt lat="44.70584" lon="5.43313">
        <ele>583.1</ele>
        <time>2021-09-03T10:22:46Z</time>
      </trkpt>
      <trkpt lat="44.7058" lon="5.43315">
        <ele>583.4</ele>
        <time>2021-09-03T10:22:47Z</time>
      </trkpt>
      <trkpt lat="44.70576" lon="5.43318">
        <ele>583.6</ele>
        <time>2021-09-03T10:22:49Z</time>
      </trkpt>
      <trkpt lat="44.70573" lon="5.43319">
        <ele>583.8</ele>
        <time>2021-09-03T10:22:50Z</time>
      </trkpt>
      <trkpt lat="44.70571" lon="5.43321">
        <ele>583.9</ele>
        <time>2021-09-03T10:22:52Z</time>
      </trkpt>
      <trkpt lat="44.7057" lon="5.43322">
        <ele>584</ele>
        <time>2021-09-03T10:22:53Z</time>
      </trkpt>
      <trkpt lat="44.70568" lon="5.43321">
        <ele>584.1</ele>
        <time>2021-09-03T10:22:55Z</time>
      </trkpt>
      <trkpt lat="44.70567" lon="5.43319">
        <ele>584.1</ele>
        <time>2021-09-03T10:22:56Z</time>
      </trkpt>
      <trkpt lat="44.70566" lon="5.43318">
        <ele>584.2</ele>
        <time>2021-09-03T10:22:57Z</time>
      </trkpt>
      <trkpt lat="44.70565" lon="5.43315">
        <ele>584.3</ele>
        <time>2021-09-03T10:22:59Z</time>
      </trkpt>
      <trkpt lat="44.70563" lon="5.4331">
        <ele>584.5</ele>
        <time>2021-09-03T10:23:01Z</time>
      </trkpt>
      <trkpt lat="44.70563" lon="5.43309">
        <ele>584.6</ele>
        <time>2021-09-03T10:23:02Z</time>
      </trkpt>
      <trkpt lat="44.70562" lon="5.43307">
        <ele>584.7</ele>
        <time>2021-09-03T10:23:03Z</time>
      </trkpt>
      <trkpt lat="44.7056" lon="5.43303">
        <ele>585</ele>
        <time>2021-09-03T10:23:05Z</time>
      </trkpt>
      <trkpt lat="44.70559" lon="5.43302">
        <ele>585.1</ele>
        <time>2021-09-03T10:23:06Z</time>
      </trkpt>
      <trkpt lat="44.70558" lon="5.43298">
        <ele>585.3</ele>
        <time>2021-09-03T10:23:08Z</time>
      </trkpt>
      <trkpt lat="44.70555" lon="5.43294">
        <ele>585.6</ele>
        <time>2021-09-03T10:23:10Z</time>
      </trkpt>
      <trkpt lat="44.70554" lon="5.43292">
        <ele>585.7</ele>
        <time>2021-09-03T10:23:11Z</time>
      </trkpt>
      <trkpt lat="44.70554" lon="5.43291">
        <ele>585.8</ele>
        <time>2021-09-03T10:23:12Z</time>
      </trkpt>
      <trkpt lat="44.70551" lon="5.43289">
        <ele>586.2</ele>
        <time>2021-09-03T10:23:14Z</time>
      </trkpt>
      <trkpt lat="44.70547" lon="5.4329">
        <ele>586.5</ele>
        <time>2021-09-03T10:23:15Z</time>
      </trkpt>
      <trkpt lat="44.70543" lon="5.43293">
        <ele>587.1</ele>
        <time>2021-09-03T10:23:17Z</time>
      </trkpt>
      <trkpt lat="44.70537" lon="5.43295">
        <ele>587.8</ele>
        <time>2021-09-03T10:23:19Z</time>
      </trkpt>
      <trkpt lat="44.70534" lon="5.43295">
        <ele>588.2</ele>
        <time>2021-09-03T10:23:20Z</time>
      </trkpt>
      <trkpt lat="44.70533" lon="5.43295">
        <ele>588.3</ele>
        <time>2021-09-03T10:23:21Z</time>
      </trkpt>
      <trkpt lat="44.70533" lon="5.43295">
        <ele>588.3</ele>
        <time>2021-09-03T10:23:22Z</time>
      </trkpt>
      <trkpt lat="44.70532" lon="5.43296">
        <ele>588.5</ele>
        <time>2021-09-03T10:23:24Z</time>
      </trkpt>
      <trkpt lat="44.70533" lon="5.433">
        <ele>588.9</ele>
        <time>2021-09-03T10:23:25Z</time>
      </trkpt>
      <trkpt lat="44.70535" lon="5.43305">
        <ele>589.4</ele>
        <time>2021-09-03T10:23:27Z</time>
      </trkpt>
      <trkpt lat="44.70536" lon="5.43307">
        <ele>589.6</ele>
        <time>2021-09-03T10:23:28Z</time>
      </trkpt>
      <trkpt lat="44.70535" lon="5.43309">
        <ele>589.8</ele>
        <time>2021-09-03T10:23:29Z</time>
      </trkpt>
      <trkpt lat="44.70535" lon="5.43313">
        <ele>590.2</ele>
        <time>2021-09-03T10:23:31Z</time>
      </trkpt>
      <trkpt lat="44.70534" lon="5.43316">
        <ele>590.5</ele>
        <time>2021-09-03T10:23:32Z</time>
      </trkpt>
      <trkpt lat="44.70534" lon="5.43318">
        <ele>590.6</ele>
        <time>2021-09-03T10:23:34Z</time>
      </trkpt>
      <trkpt lat="44.70535" lon="5.43319">
        <ele>590.8</ele>
        <time>2021-09-03T10:23:35Z</time>
      </trkpt>
      <trkpt lat="44.70535" lon="5.4332">
        <ele>590.9</ele>
        <time>2021-09-03T10:23:36Z</time>
      </trkpt>
      <trkpt lat="44.70537" lon="5.43323">
        <ele>591.2</ele>
        <time>2021-09-03T10:23:38Z</time>
      </trkpt>
      <trkpt lat="44.70539" lon="5.43327">
        <ele>591.7</ele>
        <time>2021-09-03T10:23:39Z</time>
      </trkpt>
      <trkpt lat="44.70539" lon="5.43328">
        <ele>591.8</ele>
        <time>2021-09-03T10:23:40Z</time>
      </trkpt>
      <trkpt lat="44.7054" lon="5.4333">
        <ele>592</ele>
        <time>2021-09-03T10:23:41Z</time>
      </trkpt>
      <trkpt lat="44.70542" lon="5.43336">
        <ele>592.6</ele>
        <time>2021-09-03T10:23:43Z</time>
      </trkpt>
      <trkpt lat="44.70542" lon="5.4334">
        <ele>592.9</ele>
        <time>2021-09-03T10:23:44Z</time>
      </trkpt>
      <trkpt lat="44.70542" lon="5.43342">
        <ele>593.1</ele>
        <time>2021-09-03T10:23:46Z</time>
      </trkpt>
      <trkpt lat="44.70542" lon="5.43344">
        <ele>593.3</ele>
        <time>2021-09-03T10:23:48Z</time>
      </trkpt>
      <trkpt lat="44.70542" lon="5.43346">
        <ele>593.4</ele>
        <time>2021-09-03T10:23:49Z</time>
      </trkpt>
      <trkpt lat="44.70542" lon="5.43346">
        <ele>593.5</ele>
        <time>2021-09-03T10:23:50Z</time>
      </trkpt>
      <trkpt lat="44.70542" lon="5.43344">
        <ele>593.6</ele>
        <time>2021-09-03T10:23:52Z</time>
      </trkpt>
      <trkpt lat="44.70542" lon="5.43345">
        <ele>593.6</ele>
        <time>2021-09-03T10:23:53Z</time>
      </trkpt>
      <trkpt lat="44.70542" lon="5.43345">
        <ele>593.6</ele>
        <time>2021-09-03T10:23:54Z</time>
      </trkpt>
      <trkpt lat="44.70542" lon="5.43345">
        <ele>593.7</ele>
        <time>2021-09-03T10:23:55Z</time>
      </trkpt>
      <trkpt lat="44.70542" lon="5.43347">
        <ele>593.8</ele>
        <time>2021-09-03T10:23:57Z</time>
      </trkpt>
      <trkpt lat="44.70541" lon="5.43348">
        <ele>593.9</ele>
        <time>2021-09-03T10:23:58Z</time>
      </trkpt>
      <trkpt lat="44.7054" lon="5.43349">
        <ele>594</ele>
        <time>2021-09-03T10:23:59Z</time>
      </trkpt>
      <trkpt lat="44.70537" lon="5.43355">
        <ele>594.5</ele>
        <time>2021-09-03T10:24:02Z</time>
      </trkpt>
      <trkpt lat="44.70535" lon="5.43356">
        <ele>594.7</ele>
        <time>2021-09-03T10:24:03Z</time>
      </trkpt>
      <trkpt lat="44.70531" lon="5.43359">
        <ele>595</ele>
        <time>2021-09-03T10:24:05Z</time>
      </trkpt>
      <trkpt lat="44.7053" lon="5.43359">
        <ele>595.1</ele>
        <time>2021-09-03T10:24:06Z</time>
      </trkpt>
      <trkpt lat="44.70529" lon="5.4336">
        <ele>595.1</ele>
        <time>2021-09-03T10:24:07Z</time>
      </trkpt>
      <trkpt lat="44.70529" lon="5.4336">
        <ele>595.2</ele>
        <time>2021-09-03T10:24:09Z</time>
      </trkpt>
      <trkpt lat="44.70529" lon="5.4336">
        <ele>595.2</ele>
        <time>2021-09-03T10:24:11Z</time>
      </trkpt>
      <trkpt lat="44.70529" lon="5.43361">
        <ele>595.2</ele>
        <time>2021-09-03T10:24:12Z</time>
      </trkpt>
      <trkpt lat="44.70529" lon="5.43361">
        <ele>595.2</ele>
        <time>2021-09-03T10:24:13Z</time>
      </trkpt>
      <trkpt lat="44.70521" lon="5.43364">
        <ele>595.5</ele>
        <time>2021-09-03T10:25:06Z</time>
      </trkpt>
      <trkpt lat="44.70514" lon="5.43365">
        <ele>595.6</ele>
        <time>2021-09-03T10:25:08Z</time>
      </trkpt>
      <trkpt lat="44.70507" lon="5.43366">
        <ele>595.5</ele>
        <time>2021-09-03T10:25:09Z</time>
      </trkpt>
      <trkpt lat="44.70503" lon="5.43365">
        <ele>595.4</ele>
        <time>2021-09-03T10:25:10Z</time>
      </trkpt>
      <trkpt lat="44.70493" lon="5.43364">
        <ele>595.2</ele>
        <time>2021-09-03T10:25:12Z</time>
      </trkpt>
      <trkpt lat="44.70487" lon="5.43364">
        <ele>595.1</ele>
        <time>2021-09-03T10:25:13Z</time>
      </trkpt>
      <trkpt lat="44.70483" lon="5.43364">
        <ele>595.1</ele>
        <time>2021-09-03T10:25:14Z</time>
      </trkpt>
      <trkpt lat="44.70476" lon="5.43367">
        <ele>595</ele>
        <time>2021-09-03T10:25:16Z</time>
      </trkpt>
      <trkpt lat="44.70471" lon="5.4337">
        <ele>595</ele>
        <time>2021-09-03T10:25:17Z</time>
      </trkpt>
      <trkpt lat="44.70464" lon="5.43376">
        <ele>595</ele>
        <time>2021-09-03T10:25:19Z</time>
      </trkpt>
      <trkpt lat="44.70461" lon="5.4338">
        <ele>595.1</ele>
        <time>2021-09-03T10:25:20Z</time>
      </trkpt>
      <trkpt lat="44.70457" lon="5.43385">
        <ele>595.3</ele>
        <time>2021-09-03T10:25:22Z</time>
      </trkpt>
      <trkpt lat="44.70453" lon="5.43389">
        <ele>595.4</ele>
        <time>2021-09-03T10:25:23Z</time>
      </trkpt>
      <trkpt lat="44.70451" lon="5.43391">
        <ele>595.5</ele>
        <time>2021-09-03T10:25:24Z</time>
      </trkpt>
      <trkpt lat="44.70446" lon="5.43395">
        <ele>595.8</ele>
        <time>2021-09-03T10:25:26Z</time>
      </trkpt>
      <trkpt lat="44.70442" lon="5.43398">
        <ele>596.1</ele>
        <time>2021-09-03T10:25:27Z</time>
      </trkpt>
      <trkpt lat="44.7044" lon="5.434">
        <ele>596.3</ele>
        <time>2021-09-03T10:25:28Z</time>
      </trkpt>
      <trkpt lat="44.70437" lon="5.43403">
        <ele>596.5</ele>
        <time>2021-09-03T10:25:29Z</time>
      </trkpt>
      <trkpt lat="44.70435" lon="5.43405">
        <ele>596.7</ele>
        <time>2021-09-03T10:25:30Z</time>
      </trkpt>
      <trkpt lat="44.70433" lon="5.43409">
        <ele>596.9</ele>
        <time>2021-09-03T10:25:31Z</time>
      </trkpt>
      <trkpt lat="44.70429" lon="5.43414">
        <ele>597.4</ele>
        <time>2021-09-03T10:25:33Z</time>
      </trkpt>
      <trkpt lat="44.70427" lon="5.43416">
        <ele>597.6</ele>
        <time>2021-09-03T10:25:34Z</time>
      </trkpt>
      <trkpt lat="44.70423" lon="5.43421">
        <ele>598.1</ele>
        <time>2021-09-03T10:25:36Z</time>
      </trkpt>
      <trkpt lat="44.7042" lon="5.43425">
        <ele>598.4</ele>
        <time>2021-09-03T10:25:37Z</time>
      </trkpt>
      <trkpt lat="44.70419" lon="5.43428">
        <ele>598.7</ele>
        <time>2021-09-03T10:25:38Z</time>
      </trkpt>
      <trkpt lat="44.70416" lon="5.43435">
        <ele>599.2</ele>
        <time>2021-09-03T10:25:40Z</time>
      </trkpt>
      <trkpt lat="44.70414" lon="5.43438">
        <ele>599.5</ele>
        <time>2021-09-03T10:25:42Z</time>
      </trkpt>
      <trkpt lat="44.70412" lon="5.43442">
        <ele>599.8</ele>
        <time>2021-09-03T10:25:43Z</time>
      </trkpt>
      <trkpt lat="44.7041" lon="5.43445">
        <ele>600.1</ele>
        <time>2021-09-03T10:25:44Z</time>
      </trkpt>
      <trkpt lat="44.70409" lon="5.43446">
        <ele>600.2</ele>
        <time>2021-09-03T10:25:45Z</time>
      </trkpt>
      <trkpt lat="44.70405" lon="5.43449">
        <ele>600.6</ele>
        <time>2021-09-03T10:25:46Z</time>
      </trkpt>
      <trkpt lat="44.70404" lon="5.4345">
        <ele>600.7</ele>
        <time>2021-09-03T10:25:47Z</time>
      </trkpt>
      <trkpt lat="44.704" lon="5.43454">
        <ele>601</ele>
        <time>2021-09-03T10:25:49Z</time>
      </trkpt>
      <trkpt lat="44.70397" lon="5.43459">
        <ele>601.4</ele>
        <time>2021-09-03T10:25:51Z</time>
      </trkpt>
      <trkpt lat="44.70394" lon="5.43465">
        <ele>601.7</ele>
        <time>2021-09-03T10:25:53Z</time>
      </trkpt>
      <trkpt lat="44.70391" lon="5.4347">
        <ele>602</ele>
        <time>2021-09-03T10:25:55Z</time>
      </trkpt>
      <trkpt lat="44.70389" lon="5.43474">
        <ele>602.2</ele>
        <time>2021-09-03T10:25:56Z</time>
      </trkpt>
      <trkpt lat="44.70388" lon="5.43476">
        <ele>602.2</ele>
        <time>2021-09-03T10:25:57Z</time>
      </trkpt>
      <trkpt lat="44.70384" lon="5.4348">
        <ele>602.5</ele>
        <time>2021-09-03T10:25:59Z</time>
      </trkpt>
      <trkpt lat="44.70381" lon="5.43482">
        <ele>602.6</ele>
        <time>2021-09-03T10:26:00Z</time>
      </trkpt>
      <trkpt lat="44.70378" lon="5.43484">
        <ele>602.8</ele>
        <time>2021-09-03T10:26:01Z</time>
      </trkpt>
      <trkpt lat="44.70375" lon="5.43486">
        <ele>602.9</ele>
        <time>2021-09-03T10:26:02Z</time>
      </trkpt>
      <trkpt lat="44.70372" lon="5.43489">
        <ele>603.1</ele>
        <time>2021-09-03T10:26:03Z</time>
      </trkpt>
      <trkpt lat="44.70371" lon="5.43491">
        <ele>603.2</ele>
        <time>2021-09-03T10:26:04Z</time>
      </trkpt>
      <trkpt lat="44.70369" lon="5.43492">
        <ele>603.3</ele>
        <time>2021-09-03T10:26:05Z</time>
      </trkpt>
      <trkpt lat="44.70364" lon="5.43496">
        <ele>603.6</ele>
        <time>2021-09-03T10:26:07Z</time>
      </trkpt>
      <trkpt lat="44.7036" lon="5.43496">
        <ele>603.9</ele>
        <time>2021-09-03T10:26:08Z</time>
      </trkpt>
      <trkpt lat="44.70357" lon="5.43497">
        <ele>604</ele>
        <time>2021-09-03T10:26:09Z</time>
      </trkpt>
      <trkpt lat="44.70354" lon="5.43498">
        <ele>604.3</ele>
        <time>2021-09-03T10:26:11Z</time>
      </trkpt>
      <trkpt lat="44.70352" lon="5.43498">
        <ele>604.4</ele>
        <time>2021-09-03T10:26:12Z</time>
      </trkpt>
      <trkpt lat="44.7035" lon="5.43499">
        <ele>604.6</ele>
        <time>2021-09-03T10:26:14Z</time>
      </trkpt>
      <trkpt lat="44.70348" lon="5.43499">
        <ele>604.7</ele>
        <time>2021-09-03T10:26:15Z</time>
      </trkpt>
      <trkpt lat="44.70345" lon="5.43501">
        <ele>604.7</ele>
        <time>2021-09-03T10:26:17Z</time>
      </trkpt>
      <trkpt lat="44.70342" lon="5.43501">
        <ele>604.6</ele>
        <time>2021-09-03T10:26:18Z</time>
      </trkpt>
      <trkpt lat="44.7034" lon="5.43501">
        <ele>604.5</ele>
        <time>2021-09-03T10:26:19Z</time>
      </trkpt>
      <trkpt lat="44.70335" lon="5.43503">
        <ele>604.4</ele>
        <time>2021-09-03T10:26:21Z</time>
      </trkpt>
      <trkpt lat="44.70331" lon="5.43504">
        <ele>604.2</ele>
        <time>2021-09-03T10:26:22Z</time>
      </trkpt>
      <trkpt lat="44.70325" lon="5.43506">
        <ele>603.9</ele>
        <time>2021-09-03T10:26:24Z</time>
      </trkpt>
      <trkpt lat="44.70318" lon="5.43511">
        <ele>603.3</ele>
        <time>2021-09-03T10:26:25Z</time>
      </trkpt>
      <trkpt lat="44.70306" lon="5.43517">
        <ele>602.5</ele>
        <time>2021-09-03T10:26:27Z</time>
      </trkpt>
      <trkpt lat="44.70299" lon="5.43519">
        <ele>602</ele>
        <time>2021-09-03T10:26:28Z</time>
      </trkpt>
      <trkpt lat="44.70292" lon="5.43521">
        <ele>601.4</ele>
        <time>2021-09-03T10:26:29Z</time>
      </trkpt>
      <trkpt lat="44.70277" lon="5.43527">
        <ele>600.3</ele>
        <time>2021-09-03T10:26:31Z</time>
      </trkpt>
      <trkpt lat="44.70262" lon="5.43534">
        <ele>599.5</ele>
        <time>2021-09-03T10:26:33Z</time>
      </trkpt>
      <trkpt lat="44.70247" lon="5.4354">
        <ele>599</ele>
        <time>2021-09-03T10:26:35Z</time>
      </trkpt>
      <trkpt lat="44.70239" lon="5.43543">
        <ele>598.8</ele>
        <time>2021-09-03T10:26:36Z</time>
      </trkpt>
      <trkpt lat="44.70233" lon="5.43548">
        <ele>598.6</ele>
        <time>2021-09-03T10:26:37Z</time>
      </trkpt>
      <trkpt lat="44.70223" lon="5.43561">
        <ele>598.2</ele>
        <time>2021-09-03T10:26:39Z</time>
      </trkpt>
      <trkpt lat="44.70218" lon="5.43569">
        <ele>597.9</ele>
        <time>2021-09-03T10:26:40Z</time>
      </trkpt>
      <trkpt lat="44.70213" lon="5.43578">
        <ele>597.5</ele>
        <time>2021-09-03T10:26:41Z</time>
      </trkpt>
      <trkpt lat="44.70202" lon="5.43596">
        <ele>596.5</ele>
        <time>2021-09-03T10:26:43Z</time>
      </trkpt>
      <trkpt lat="44.70191" lon="5.43613">
        <ele>595.7</ele>
        <time>2021-09-03T10:26:45Z</time>
      </trkpt>
      <trkpt lat="44.70177" lon="5.43627">
        <ele>595</ele>
        <time>2021-09-03T10:26:47Z</time>
      </trkpt>
      <trkpt lat="44.70171" lon="5.43634">
        <ele>594.7</ele>
        <time>2021-09-03T10:26:48Z</time>
      </trkpt>
      <trkpt lat="44.70165" lon="5.43641">
        <ele>594.4</ele>
        <time>2021-09-03T10:26:49Z</time>
      </trkpt>
      <trkpt lat="44.70153" lon="5.43654">
        <ele>593.6</ele>
        <time>2021-09-03T10:26:51Z</time>
      </trkpt>
      <trkpt lat="44.70142" lon="5.43663">
        <ele>592.8</ele>
        <time>2021-09-03T10:26:53Z</time>
      </trkpt>
      <trkpt lat="44.70136" lon="5.43665">
        <ele>592.5</ele>
        <time>2021-09-03T10:26:54Z</time>
      </trkpt>
      <trkpt lat="44.70129" lon="5.43662">
        <ele>592.2</ele>
        <time>2021-09-03T10:26:55Z</time>
      </trkpt>
      <trkpt lat="44.70118" lon="5.43644">
        <ele>591.8</ele>
        <time>2021-09-03T10:26:57Z</time>
      </trkpt>
      <trkpt lat="44.70114" lon="5.43634">
        <ele>592</ele>
        <time>2021-09-03T10:26:58Z</time>
      </trkpt>
      <trkpt lat="44.7011" lon="5.43623">
        <ele>592.3</ele>
        <time>2021-09-03T10:26:59Z</time>
      </trkpt>
      <trkpt lat="44.70104" lon="5.43605">
        <ele>593.1</ele>
        <time>2021-09-03T10:27:01Z</time>
      </trkpt>
      <trkpt lat="44.70102" lon="5.4359">
        <ele>594</ele>
        <time>2021-09-03T10:27:03Z</time>
      </trkpt>
      <trkpt lat="44.70101" lon="5.43582">
        <ele>594.4</ele>
        <time>2021-09-03T10:27:04Z</time>
      </trkpt>
      <trkpt lat="44.70101" lon="5.43577">
        <ele>594.7</ele>
        <time>2021-09-03T10:27:05Z</time>
      </trkpt>
      <trkpt lat="44.70099" lon="5.43561">
        <ele>595.6</ele>
        <time>2021-09-03T10:27:07Z</time>
      </trkpt>
      <trkpt lat="44.70097" lon="5.43544">
        <ele>596.4</ele>
        <time>2021-09-03T10:27:09Z</time>
      </trkpt>
      <trkpt lat="44.70094" lon="5.43533">
        <ele>596.9</ele>
        <time>2021-09-03T10:27:10Z</time>
      </trkpt>
      <trkpt lat="44.70092" lon="5.43531">
        <ele>597</ele>
        <time>2021-09-03T10:27:11Z</time>
      </trkpt>
      <trkpt lat="44.70084" lon="5.4352">
        <ele>597.6</ele>
        <time>2021-09-03T10:27:13Z</time>
      </trkpt>
      <trkpt lat="44.70079" lon="5.43514">
        <ele>597.9</ele>
        <time>2021-09-03T10:27:14Z</time>
      </trkpt>
      <trkpt lat="44.7007" lon="5.43506">
        <ele>598.3</ele>
        <time>2021-09-03T10:27:16Z</time>
      </trkpt>
      <trkpt lat="44.70066" lon="5.43503">
        <ele>598.5</ele>
        <time>2021-09-03T10:27:17Z</time>
      </trkpt>
      <trkpt lat="44.70058" lon="5.435">
        <ele>598.7</ele>
        <time>2021-09-03T10:27:19Z</time>
      </trkpt>
      <trkpt lat="44.70051" lon="5.435">
        <ele>598.9</ele>
        <time>2021-09-03T10:27:21Z</time>
      </trkpt>
      <trkpt lat="44.70044" lon="5.43504">
        <ele>598.9</ele>
        <time>2021-09-03T10:27:23Z</time>
      </trkpt>
      <trkpt lat="44.7004" lon="5.43507">
        <ele>598.9</ele>
        <time>2021-09-03T10:27:24Z</time>
      </trkpt>
      <trkpt lat="44.70036" lon="5.4351">
        <ele>598.8</ele>
        <time>2021-09-03T10:27:25Z</time>
      </trkpt>
      <trkpt lat="44.70026" lon="5.43519">
        <ele>598.4</ele>
        <time>2021-09-03T10:27:27Z</time>
      </trkpt>
      <trkpt lat="44.7002" lon="5.43523">
        <ele>598.2</ele>
        <time>2021-09-03T10:27:28Z</time>
      </trkpt>
      <trkpt lat="44.70007" lon="5.43534">
        <ele>597.8</ele>
        <time>2021-09-03T10:27:30Z</time>
      </trkpt>
      <trkpt lat="44.70003" lon="5.43541">
        <ele>597.6</ele>
        <time>2021-09-03T10:27:31Z</time>
      </trkpt>
      <trkpt lat="44.69994" lon="5.43555">
        <ele>597.4</ele>
        <time>2021-09-03T10:27:33Z</time>
      </trkpt>
      <trkpt lat="44.69989" lon="5.43562">
        <ele>597.3</ele>
        <time>2021-09-03T10:27:34Z</time>
      </trkpt>
      <trkpt lat="44.69985" lon="5.4357">
        <ele>597.4</ele>
        <time>2021-09-03T10:27:35Z</time>
      </trkpt>
      <trkpt lat="44.6998" lon="5.43577">
        <ele>597.5</ele>
        <time>2021-09-03T10:27:36Z</time>
      </trkpt>
      <trkpt lat="44.69977" lon="5.43585">
        <ele>597.7</ele>
        <time>2021-09-03T10:27:37Z</time>
      </trkpt>
      <trkpt lat="44.69975" lon="5.43593">
        <ele>597.8</ele>
        <time>2021-09-03T10:27:38Z</time>
      </trkpt>
      <trkpt lat="44.69971" lon="5.43608">
        <ele>598.1</ele>
        <time>2021-09-03T10:27:40Z</time>
      </trkpt>
      <trkpt lat="44.69968" lon="5.43618">
        <ele>598.4</ele>
        <time>2021-09-03T10:27:42Z</time>
      </trkpt>
      <trkpt lat="44.69968" lon="5.43625">
        <ele>598.6</ele>
        <time>2021-09-03T10:27:43Z</time>
      </trkpt>
      <trkpt lat="44.69964" lon="5.43637">
        <ele>598.9</ele>
        <time>2021-09-03T10:27:45Z</time>
      </trkpt>
      <trkpt lat="44.69962" lon="5.43642">
        <ele>599</ele>
        <time>2021-09-03T10:27:46Z</time>
      </trkpt>
      <trkpt lat="44.69961" lon="5.43644">
        <ele>599.1</ele>
        <time>2021-09-03T10:27:47Z</time>
      </trkpt>
      <trkpt lat="44.69959" lon="5.43647">
        <ele>599.1</ele>
        <time>2021-09-03T10:27:48Z</time>
      </trkpt>
      <trkpt lat="44.69958" lon="5.43646">
        <ele>599.2</ele>
        <time>2021-09-03T10:27:49Z</time>
      </trkpt>
      <trkpt lat="44.69956" lon="5.43643">
        <ele>599.2</ele>
        <time>2021-09-03T10:27:51Z</time>
      </trkpt>
      <trkpt lat="44.69953" lon="5.43643">
        <ele>599.3</ele>
        <time>2021-09-03T10:27:52Z</time>
      </trkpt>
      <trkpt lat="44.69951" lon="5.43645">
        <ele>599.3</ele>
        <time>2021-09-03T10:27:54Z</time>
      </trkpt>
      <trkpt lat="44.6995" lon="5.43646">
        <ele>599.3</ele>
        <time>2021-09-03T10:27:55Z</time>
      </trkpt>
      <trkpt lat="44.69948" lon="5.43647">
        <ele>599.3</ele>
        <time>2021-09-03T10:27:56Z</time>
      </trkpt>
      <trkpt lat="44.69947" lon="5.43648">
        <ele>599.3</ele>
        <time>2021-09-03T10:27:57Z</time>
      </trkpt>
      <trkpt lat="44.69938" lon="5.43651">
        <ele>599.2</ele>
        <time>2021-09-03T10:27:59Z</time>
      </trkpt>
      <trkpt lat="44.69881" lon="5.43671">
        <ele>596.4</ele>
        <time>2021-09-03T10:28:06Z</time>
      </trkpt>
      <trkpt lat="44.69875" lon="5.43685">
        <ele>595.7</ele>
        <time>2021-09-03T10:28:07Z</time>
      </trkpt>
      <trkpt lat="44.6987" lon="5.43699">
        <ele>595.1</ele>
        <time>2021-09-03T10:28:08Z</time>
      </trkpt>
      <trkpt lat="44.69861" lon="5.43722">
        <ele>594.2</ele>
        <time>2021-09-03T10:28:10Z</time>
      </trkpt>
      <trkpt lat="44.69857" lon="5.43731">
        <ele>594</ele>
        <time>2021-09-03T10:28:11Z</time>
      </trkpt>
      <trkpt lat="44.69847" lon="5.43749">
        <ele>592.8</ele>
        <time>2021-09-03T10:28:13Z</time>
      </trkpt>
      <trkpt lat="44.69842" lon="5.43756">
        <ele>592.1</ele>
        <time>2021-09-03T10:28:14Z</time>
      </trkpt>
      <trkpt lat="44.69841" lon="5.4377">
        <ele>593</ele>
        <time>2021-09-03T10:28:15Z</time>
      </trkpt>
      <trkpt lat="44.69834" lon="5.43778">
        <ele>591.7</ele>
        <time>2021-09-03T10:28:17Z</time>
      </trkpt>
      <trkpt lat="44.69829" lon="5.43774">
        <ele>590.7</ele>
        <time>2021-09-03T10:28:19Z</time>
      </trkpt>
      <trkpt lat="44.69825" lon="5.43758">
        <ele>589.7</ele>
        <time>2021-09-03T10:28:21Z</time>
      </trkpt>
      <trkpt lat="44.69817" lon="5.43727">
        <ele>587.2</ele>
        <time>2021-09-03T10:28:23Z</time>
      </trkpt>
      <trkpt lat="44.69806" lon="5.43697">
        <ele>584.5</ele>
        <time>2021-09-03T10:28:25Z</time>
      </trkpt>
      <trkpt lat="44.69798" lon="5.43673">
        <ele>582.6</ele>
        <time>2021-09-03T10:28:27Z</time>
      </trkpt>
      <trkpt lat="44.69795" lon="5.43658">
        <ele>581.5</ele>
        <time>2021-09-03T10:28:28Z</time>
      </trkpt>
      <trkpt lat="44.69793" lon="5.43643">
        <ele>580.4</ele>
        <time>2021-09-03T10:28:29Z</time>
      </trkpt>
      <trkpt lat="44.69788" lon="5.4362">
        <ele>578.4</ele>
        <time>2021-09-03T10:28:31Z</time>
      </trkpt>
      <trkpt lat="44.69785" lon="5.43611">
        <ele>577.7</ele>
        <time>2021-09-03T10:28:32Z</time>
      </trkpt>
      <trkpt lat="44.69776" lon="5.436">
        <ele>576.4</ele>
        <time>2021-09-03T10:28:34Z</time>
      </trkpt>
      <trkpt lat="44.69769" lon="5.43598">
        <ele>575.9</ele>
        <time>2021-09-03T10:28:35Z</time>
      </trkpt>
      <trkpt lat="44.69749" lon="5.43607">
        <ele>574.7</ele>
        <time>2021-09-03T10:28:37Z</time>
      </trkpt>
      <trkpt lat="44.69731" lon="5.43614">
        <ele>574.1</ele>
        <time>2021-09-03T10:28:39Z</time>
      </trkpt>
      <trkpt lat="44.69723" lon="5.43613">
        <ele>573.9</ele>
        <time>2021-09-03T10:28:40Z</time>
      </trkpt>
      <trkpt lat="44.69716" lon="5.4361">
        <ele>573.7</ele>
        <time>2021-09-03T10:28:41Z</time>
      </trkpt>
      <trkpt lat="44.69704" lon="5.43599">
        <ele>573.2</ele>
        <time>2021-09-03T10:28:43Z</time>
      </trkpt>
      <trkpt lat="44.69696" lon="5.43582">
        <ele>572</ele>
        <time>2021-09-03T10:28:45Z</time>
      </trkpt>
      <trkpt lat="44.69694" lon="5.43558">
        <ele>570.5</ele>
        <time>2021-09-03T10:28:47Z</time>
      </trkpt>
      <trkpt lat="44.69691" lon="5.43531">
        <ele>568.9</ele>
        <time>2021-09-03T10:28:49Z</time>
      </trkpt>
      <trkpt lat="44.69689" lon="5.43518">
        <ele>568.1</ele>
        <time>2021-09-03T10:28:50Z</time>
      </trkpt>
      <trkpt lat="44.69684" lon="5.43493">
        <ele>566.5</ele>
        <time>2021-09-03T10:28:52Z</time>
      </trkpt>
      <trkpt lat="44.6968" lon="5.43481">
        <ele>565.7</ele>
        <time>2021-09-03T10:28:53Z</time>
      </trkpt>
      <trkpt lat="44.69672" lon="5.43456">
        <ele>564</ele>
        <time>2021-09-03T10:28:55Z</time>
      </trkpt>
      <trkpt lat="44.69667" lon="5.4343">
        <ele>562.3</ele>
        <time>2021-09-03T10:28:57Z</time>
      </trkpt>
      <trkpt lat="44.69665" lon="5.43416">
        <ele>561.3</ele>
        <time>2021-09-03T10:28:58Z</time>
      </trkpt>
      <trkpt lat="44.69664" lon="5.43402">
        <ele>560.4</ele>
        <time>2021-09-03T10:28:59Z</time>
      </trkpt>
      <trkpt lat="44.69664" lon="5.43374">
        <ele>558.6</ele>
        <time>2021-09-03T10:29:01Z</time>
      </trkpt>
      <trkpt lat="44.69664" lon="5.43345">
        <ele>556.7</ele>
        <time>2021-09-03T10:29:03Z</time>
      </trkpt>
      <trkpt lat="44.69664" lon="5.43331">
        <ele>555.8</ele>
        <time>2021-09-03T10:29:04Z</time>
      </trkpt>
      <trkpt lat="44.69664" lon="5.43316">
        <ele>555</ele>
        <time>2021-09-03T10:29:05Z</time>
      </trkpt>
      <trkpt lat="44.69662" lon="5.43287">
        <ele>553.2</ele>
        <time>2021-09-03T10:29:07Z</time>
      </trkpt>
      <trkpt lat="44.69659" lon="5.43259">
        <ele>551.5</ele>
        <time>2021-09-03T10:29:09Z</time>
      </trkpt>
      <trkpt lat="44.69656" lon="5.43245">
        <ele>550.6</ele>
        <time>2021-09-03T10:29:10Z</time>
      </trkpt>
      <trkpt lat="44.69652" lon="5.43231">
        <ele>549.7</ele>
        <time>2021-09-03T10:29:11Z</time>
      </trkpt>
      <trkpt lat="44.69645" lon="5.43203">
        <ele>548.1</ele>
        <time>2021-09-03T10:29:13Z</time>
      </trkpt>
      <trkpt lat="44.69641" lon="5.43189">
        <ele>547.4</ele>
        <time>2021-09-03T10:29:14Z</time>
      </trkpt>
      <trkpt lat="44.69631" lon="5.43164">
        <ele>545.8</ele>
        <time>2021-09-03T10:29:16Z</time>
      </trkpt>
      <trkpt lat="44.69626" lon="5.43153">
        <ele>545.1</ele>
        <time>2021-09-03T10:29:17Z</time>
      </trkpt>
      <trkpt lat="44.69609" lon="5.43133">
        <ele>543.2</ele>
        <time>2021-09-03T10:29:19Z</time>
      </trkpt>
      <trkpt lat="44.69596" lon="5.43111">
        <ele>541.4</ele>
        <time>2021-09-03T10:29:21Z</time>
      </trkpt>
      <trkpt lat="44.6959" lon="5.43098">
        <ele>540.4</ele>
        <time>2021-09-03T10:29:22Z</time>
      </trkpt>
      <trkpt lat="44.69585" lon="5.43085">
        <ele>539.6</ele>
        <time>2021-09-03T10:29:23Z</time>
      </trkpt>
      <trkpt lat="44.69578" lon="5.43057">
        <ele>538.5</ele>
        <time>2021-09-03T10:29:25Z</time>
      </trkpt>
      <trkpt lat="44.69572" lon="5.43033">
        <ele>538</ele>
        <time>2021-09-03T10:29:27Z</time>
      </trkpt>
      <trkpt lat="44.6957" lon="5.43024">
        <ele>537.8</ele>
        <time>2021-09-03T10:29:28Z</time>
      </trkpt>
      <trkpt lat="44.69565" lon="5.43007">
        <ele>537.3</ele>
        <time>2021-09-03T10:29:30Z</time>
      </trkpt>
      <trkpt lat="44.69561" lon="5.43">
        <ele>536.7</ele>
        <time>2021-09-03T10:29:31Z</time>
      </trkpt>
      <trkpt lat="44.69554" lon="5.42999">
        <ele>536.1</ele>
        <time>2021-09-03T10:29:33Z</time>
      </trkpt>
      <trkpt lat="44.69549" lon="5.43003">
        <ele>535.6</ele>
        <time>2021-09-03T10:29:34Z</time>
      </trkpt>
      <trkpt lat="44.69541" lon="5.43008">
        <ele>534.9</ele>
        <time>2021-09-03T10:29:35Z</time>
      </trkpt>
      <trkpt lat="44.69526" lon="5.43021">
        <ele>533.3</ele>
        <time>2021-09-03T10:29:37Z</time>
      </trkpt>
      <trkpt lat="44.69519" lon="5.43028">
        <ele>532.7</ele>
        <time>2021-09-03T10:29:38Z</time>
      </trkpt>
      <trkpt lat="44.69512" lon="5.43034">
        <ele>532</ele>
        <time>2021-09-03T10:29:39Z</time>
      </trkpt>
      <trkpt lat="44.69497" lon="5.43049">
        <ele>531.2</ele>
        <time>2021-09-03T10:29:41Z</time>
      </trkpt>
      <trkpt lat="44.69483" lon="5.4306">
        <ele>531.2</ele>
        <time>2021-09-03T10:29:43Z</time>
      </trkpt>
      <trkpt lat="44.69475" lon="5.43065">
        <ele>531.4</ele>
        <time>2021-09-03T10:29:44Z</time>
      </trkpt>
      <trkpt lat="44.69462" lon="5.43065">
        <ele>532</ele>
        <time>2021-09-03T10:29:46Z</time>
      </trkpt>
      <trkpt lat="44.69455" lon="5.43063">
        <ele>532.4</ele>
        <time>2021-09-03T10:29:47Z</time>
      </trkpt>
      <trkpt lat="44.6944" lon="5.4306">
        <ele>533.2</ele>
        <time>2021-09-03T10:29:49Z</time>
      </trkpt>
      <trkpt lat="44.69433" lon="5.43059">
        <ele>533.4</ele>
        <time>2021-09-03T10:29:50Z</time>
      </trkpt>
      <trkpt lat="44.69417" lon="5.43062">
        <ele>533.6</ele>
        <time>2021-09-03T10:29:52Z</time>
      </trkpt>
      <trkpt lat="44.69408" lon="5.43065">
        <ele>533.5</ele>
        <time>2021-09-03T10:29:53Z</time>
      </trkpt>
      <trkpt lat="44.69394" lon="5.43071">
        <ele>533.3</ele>
        <time>2021-09-03T10:29:55Z</time>
      </trkpt>
      <trkpt lat="44.69382" lon="5.43077">
        <ele>533.1</ele>
        <time>2021-09-03T10:29:57Z</time>
      </trkpt>
      <trkpt lat="44.69377" lon="5.43081">
        <ele>533</ele>
        <time>2021-09-03T10:29:58Z</time>
      </trkpt>
      <trkpt lat="44.69368" lon="5.43088">
        <ele>532.9</ele>
        <time>2021-09-03T10:30:00Z</time>
      </trkpt>
      <trkpt lat="44.69363" lon="5.43092">
        <ele>532.9</ele>
        <time>2021-09-03T10:30:01Z</time>
      </trkpt>
      <trkpt lat="44.69352" lon="5.431">
        <ele>532.9</ele>
        <time>2021-09-03T10:30:03Z</time>
      </trkpt>
      <trkpt lat="44.69346" lon="5.43104">
        <ele>532.9</ele>
        <time>2021-09-03T10:30:04Z</time>
      </trkpt>
      <trkpt lat="44.69342" lon="5.43109">
        <ele>533</ele>
        <time>2021-09-03T10:30:05Z</time>
      </trkpt>
      <trkpt lat="44.69333" lon="5.43121">
        <ele>533.3</ele>
        <time>2021-09-03T10:30:07Z</time>
      </trkpt>
      <trkpt lat="44.69326" lon="5.43133">
        <ele>533.6</ele>
        <time>2021-09-03T10:30:09Z</time>
      </trkpt>
      <trkpt lat="44.69321" lon="5.43144">
        <ele>534</ele>
        <time>2021-09-03T10:30:11Z</time>
      </trkpt>
      <trkpt lat="44.69317" lon="5.43154">
        <ele>534.3</ele>
        <time>2021-09-03T10:30:13Z</time>
      </trkpt>
      <trkpt lat="44.69315" lon="5.43164">
        <ele>534.5</ele>
        <time>2021-09-03T10:30:15Z</time>
      </trkpt>
      <trkpt lat="44.69314" lon="5.43169">
        <ele>534.7</ele>
        <time>2021-09-03T10:30:16Z</time>
      </trkpt>
      <trkpt lat="44.69311" lon="5.43177">
        <ele>534.9</ele>
        <time>2021-09-03T10:30:18Z</time>
      </trkpt>
      <trkpt lat="44.69308" lon="5.43182">
        <ele>535.1</ele>
        <time>2021-09-03T10:30:19Z</time>
      </trkpt>
      <trkpt lat="44.69306" lon="5.43187">
        <ele>535.2</ele>
        <time>2021-09-03T10:30:20Z</time>
      </trkpt>
      <trkpt lat="44.69305" lon="5.43196">
        <ele>535.4</ele>
        <time>2021-09-03T10:30:22Z</time>
      </trkpt>
      <trkpt lat="44.693" lon="5.43206">
        <ele>535.6</ele>
        <time>2021-09-03T10:30:23Z</time>
      </trkpt>
      <trkpt lat="44.69293" lon="5.4322">
        <ele>535.9</ele>
        <time>2021-09-03T10:30:25Z</time>
      </trkpt>
      <trkpt lat="44.69286" lon="5.43233">
        <ele>536.1</ele>
        <time>2021-09-03T10:30:27Z</time>
      </trkpt>
      <trkpt lat="44.69283" lon="5.43238">
        <ele>536.2</ele>
        <time>2021-09-03T10:30:28Z</time>
      </trkpt>
      <trkpt lat="44.69279" lon="5.43242">
        <ele>536.3</ele>
        <time>2021-09-03T10:30:29Z</time>
      </trkpt>
      <trkpt lat="44.69273" lon="5.43248">
        <ele>536.5</ele>
        <time>2021-09-03T10:30:31Z</time>
      </trkpt>
      <trkpt lat="44.69269" lon="5.43248">
        <ele>536.6</ele>
        <time>2021-09-03T10:30:33Z</time>
      </trkpt>
      <trkpt lat="44.69266" lon="5.43251">
        <ele>536.7</ele>
        <time>2021-09-03T10:30:34Z</time>
      </trkpt>
      <trkpt lat="44.69256" lon="5.43265">
        <ele>536.9</ele>
        <time>2021-09-03T10:30:35Z</time>
      </trkpt>
      <trkpt lat="44.69248" lon="5.43277">
        <ele>536.9</ele>
        <time>2021-09-03T10:30:37Z</time>
      </trkpt>
      <trkpt lat="44.69244" lon="5.43282">
        <ele>536.9</ele>
        <time>2021-09-03T10:30:38Z</time>
      </trkpt>
      <trkpt lat="44.6924" lon="5.43286">
        <ele>536.9</ele>
        <time>2021-09-03T10:30:39Z</time>
      </trkpt>
      <trkpt lat="44.69236" lon="5.43289">
        <ele>536.9</ele>
        <time>2021-09-03T10:30:40Z</time>
      </trkpt>
      <trkpt lat="44.69232" lon="5.43293">
        <ele>536.8</ele>
        <time>2021-09-03T10:30:42Z</time>
      </trkpt>
      <trkpt lat="44.69229" lon="5.43295">
        <ele>536.8</ele>
        <time>2021-09-03T10:30:43Z</time>
      </trkpt>
      <trkpt lat="44.69223" lon="5.43296">
        <ele>536.8</ele>
        <time>2021-09-03T10:30:44Z</time>
      </trkpt>
      <trkpt lat="44.69219" lon="5.43295">
        <ele>536.8</ele>
        <time>2021-09-03T10:30:45Z</time>
      </trkpt>
      <trkpt lat="44.69211" lon="5.43288">
        <ele>536.7</ele>
        <time>2021-09-03T10:30:46Z</time>
      </trkpt>
      <trkpt lat="44.69203" lon="5.43282">
        <ele>536.7</ele>
        <time>2021-09-03T10:30:48Z</time>
      </trkpt>
      <trkpt lat="44.69199" lon="5.43277">
        <ele>536.7</ele>
        <time>2021-09-03T10:30:49Z</time>
      </trkpt>
      <trkpt lat="44.69194" lon="5.43275">
        <ele>536.7</ele>
        <time>2021-09-03T10:30:50Z</time>
      </trkpt>
      <trkpt lat="44.6919" lon="5.43273">
        <ele>536.7</ele>
        <time>2021-09-03T10:30:51Z</time>
      </trkpt>
      <trkpt lat="44.69185" lon="5.43268">
        <ele>536.7</ele>
        <time>2021-09-03T10:30:53Z</time>
      </trkpt>
      <trkpt lat="44.69182" lon="5.43264">
        <ele>536.7</ele>
        <time>2021-09-03T10:30:54Z</time>
      </trkpt>
      <trkpt lat="44.69181" lon="5.43261">
        <ele>536.7</ele>
        <time>2021-09-03T10:30:55Z</time>
      </trkpt>
      <trkpt lat="44.69178" lon="5.43259">
        <ele>536.7</ele>
        <time>2021-09-03T10:30:56Z</time>
      </trkpt>
      <trkpt lat="44.69176" lon="5.43257">
        <ele>536.8</ele>
        <time>2021-09-03T10:30:57Z</time>
      </trkpt>
      <trkpt lat="44.69172" lon="5.43258">
        <ele>536.8</ele>
        <time>2021-09-03T10:30:58Z</time>
      </trkpt>
      <trkpt lat="44.69171" lon="5.43258">
        <ele>536.8</ele>
        <time>2021-09-03T10:30:59Z</time>
      </trkpt>
      <trkpt lat="44.69167" lon="5.43261">
        <ele>536.9</ele>
        <time>2021-09-03T10:31:01Z</time>
      </trkpt>
      <trkpt lat="44.69163" lon="5.43266">
        <ele>537</ele>
        <time>2021-09-03T10:31:03Z</time>
      </trkpt>
      <trkpt lat="44.69161" lon="5.4327">
        <ele>537.1</ele>
        <time>2021-09-03T10:31:04Z</time>
      </trkpt>
      <trkpt lat="44.69159" lon="5.43273">
        <ele>537.1</ele>
        <time>2021-09-03T10:31:05Z</time>
      </trkpt>
      <trkpt lat="44.6916" lon="5.43276">
        <ele>537.2</ele>
        <time>2021-09-03T10:31:06Z</time>
      </trkpt>
      <trkpt lat="44.6916" lon="5.43279">
        <ele>537.2</ele>
        <time>2021-09-03T10:31:07Z</time>
      </trkpt>
      <trkpt lat="44.69159" lon="5.4328">
        <ele>537.2</ele>
        <time>2021-09-03T10:31:08Z</time>
      </trkpt>
      <trkpt lat="44.69158" lon="5.43282">
        <ele>537.2</ele>
        <time>2021-09-03T10:31:10Z</time>
      </trkpt>
      <trkpt lat="44.69155" lon="5.43286">
        <ele>537.3</ele>
        <time>2021-09-03T10:31:11Z</time>
      </trkpt>
      <trkpt lat="44.69156" lon="5.43297">
        <ele>537.4</ele>
        <time>2021-09-03T10:31:13Z</time>
      </trkpt>
      <trkpt lat="44.69157" lon="5.43303">
        <ele>537.4</ele>
        <time>2021-09-03T10:31:14Z</time>
      </trkpt>
      <trkpt lat="44.69158" lon="5.43304">
        <ele>537.4</ele>
        <time>2021-09-03T10:31:15Z</time>
      </trkpt>
      <trkpt lat="44.69156" lon="5.43312">
        <ele>537.5</ele>
        <time>2021-09-03T10:31:17Z</time>
      </trkpt>
      <trkpt lat="44.69155" lon="5.43314">
        <ele>537.5</ele>
        <time>2021-09-03T10:31:18Z</time>
      </trkpt>
      <trkpt lat="44.69154" lon="5.43315">
        <ele>537.5</ele>
        <time>2021-09-03T10:31:19Z</time>
      </trkpt>
      <trkpt lat="44.69152" lon="5.43319">
        <ele>537.5</ele>
        <time>2021-09-03T10:31:21Z</time>
      </trkpt>
      <trkpt lat="44.69151" lon="5.43319">
        <ele>537.5</ele>
        <time>2021-09-03T10:31:22Z</time>
      </trkpt>
      <trkpt lat="44.6915" lon="5.4332">
        <ele>537.5</ele>
        <time>2021-09-03T10:31:23Z</time>
      </trkpt>
      <trkpt lat="44.69108" lon="5.43381">
        <ele>537.8</ele>
        <time>2021-09-03T10:31:36Z</time>
      </trkpt>
      <trkpt lat="44.691" lon="5.43402">
        <ele>537.8</ele>
        <time>2021-09-03T10:31:37Z</time>
      </trkpt>
      <trkpt lat="44.69095" lon="5.43417">
        <ele>537.8</ele>
        <time>2021-09-03T10:31:38Z</time>
      </trkpt>
      <trkpt lat="44.69091" lon="5.43436">
        <ele>537.9</ele>
        <time>2021-09-03T10:31:40Z</time>
      </trkpt>
      <trkpt lat="44.6909" lon="5.43442">
        <ele>537.9</ele>
        <time>2021-09-03T10:31:41Z</time>
      </trkpt>
      <trkpt lat="44.6909" lon="5.43442">
        <ele>537.9</ele>
        <time>2021-09-03T10:31:42Z</time>
      </trkpt>
      <trkpt lat="44.69087" lon="5.43445">
        <ele>538</ele>
        <time>2021-09-03T10:31:44Z</time>
      </trkpt>
      <trkpt lat="44.69082" lon="5.43448">
        <ele>538</ele>
        <time>2021-09-03T10:31:45Z</time>
      </trkpt>
      <trkpt lat="44.69078" lon="5.43448">
        <ele>538</ele>
        <time>2021-09-03T10:31:46Z</time>
      </trkpt>
      <trkpt lat="44.69075" lon="5.43448">
        <ele>538</ele>
        <time>2021-09-03T10:31:47Z</time>
      </trkpt>
      <trkpt lat="44.69066" lon="5.43444">
        <ele>538.1</ele>
        <time>2021-09-03T10:31:49Z</time>
      </trkpt>
      <trkpt lat="44.69058" lon="5.43442">
        <ele>538.1</ele>
        <time>2021-09-03T10:31:51Z</time>
      </trkpt>
      <trkpt lat="44.6905" lon="5.43439">
        <ele>538.1</ele>
        <time>2021-09-03T10:31:53Z</time>
      </trkpt>
      <trkpt lat="44.69046" lon="5.43437">
        <ele>538.1</ele>
        <time>2021-09-03T10:31:54Z</time>
      </trkpt>
      <trkpt lat="44.6904" lon="5.43437">
        <ele>538.1</ele>
        <time>2021-09-03T10:31:56Z</time>
      </trkpt>
      <trkpt lat="44.69036" lon="5.43437">
        <ele>538.1</ele>
        <time>2021-09-03T10:31:57Z</time>
      </trkpt>
      <trkpt lat="44.69034" lon="5.43437">
        <ele>538.1</ele>
        <time>2021-09-03T10:31:58Z</time>
      </trkpt>
      <trkpt lat="44.69031" lon="5.43437">
        <ele>538.1</ele>
        <time>2021-09-03T10:31:59Z</time>
      </trkpt>
      <trkpt lat="44.69027" lon="5.43439">
        <ele>538.2</ele>
        <time>2021-09-03T10:32:01Z</time>
      </trkpt>
      <trkpt lat="44.69024" lon="5.4344">
        <ele>538.2</ele>
        <time>2021-09-03T10:32:02Z</time>
      </trkpt>
      <trkpt lat="44.69023" lon="5.43439">
        <ele>538.2</ele>
        <time>2021-09-03T10:32:03Z</time>
      </trkpt>
      <trkpt lat="44.69018" lon="5.43437">
        <ele>538.2</ele>
        <time>2021-09-03T10:32:05Z</time>
      </trkpt>
      <trkpt lat="44.69018" lon="5.43436">
        <ele>538.2</ele>
        <time>2021-09-03T10:32:07Z</time>
      </trkpt>
      <trkpt lat="44.69019" lon="5.43434">
        <ele>538.2</ele>
        <time>2021-09-03T10:32:08Z</time>
      </trkpt>
      <trkpt lat="44.69021" lon="5.43432">
        <ele>538.2</ele>
        <time>2021-09-03T10:32:09Z</time>
      </trkpt>
      <trkpt lat="44.69022" lon="5.4343">
        <ele>538.2</ele>
        <time>2021-09-03T10:32:11Z</time>
      </trkpt>
      <trkpt lat="44.69023" lon="5.43428">
        <ele>538.2</ele>
        <time>2021-09-03T10:32:13Z</time>
      </trkpt>
      <trkpt lat="44.69024" lon="5.43427">
        <ele>538.1</ele>
        <time>2021-09-03T10:32:14Z</time>
      </trkpt>
      <trkpt lat="44.69025" lon="5.43427">
        <ele>538.1</ele>
        <time>2021-09-03T10:32:15Z</time>
      </trkpt>
      <trkpt lat="44.6903" lon="5.43426">
        <ele>538.1</ele>
        <time>2021-09-03T10:32:17Z</time>
      </trkpt>
      <trkpt lat="44.69038" lon="5.43421">
        <ele>538.1</ele>
        <time>2021-09-03T10:32:19Z</time>
      </trkpt>
      <trkpt lat="44.69044" lon="5.43418">
        <ele>538.1</ele>
        <time>2021-09-03T10:32:20Z</time>
      </trkpt>
      <trkpt lat="44.69049" lon="5.43416">
        <ele>538.1</ele>
        <time>2021-09-03T10:32:21Z</time>
      </trkpt>
      <trkpt lat="44.69058" lon="5.43411">
        <ele>538</ele>
        <time>2021-09-03T10:32:23Z</time>
      </trkpt>
      <trkpt lat="44.69062" lon="5.43409">
        <ele>538</ele>
        <time>2021-09-03T10:32:24Z</time>
      </trkpt>
      <trkpt lat="44.69066" lon="5.43405">
        <ele>538</ele>
        <time>2021-09-03T10:32:25Z</time>
      </trkpt>
      <trkpt lat="44.6907" lon="5.43402">
        <ele>538</ele>
        <time>2021-09-03T10:32:26Z</time>
      </trkpt>
      <trkpt lat="44.69075" lon="5.43399">
        <ele>537.9</ele>
        <time>2021-09-03T10:32:27Z</time>
      </trkpt>
      <trkpt lat="44.69081" lon="5.43394">
        <ele>537.8</ele>
        <time>2021-09-03T10:32:29Z</time>
      </trkpt>
      <trkpt lat="44.69087" lon="5.43386">
        <ele>537.8</ele>
        <time>2021-09-03T10:32:31Z</time>
      </trkpt>
      <trkpt lat="44.6909" lon="5.43381">
        <ele>537.8</ele>
        <time>2021-09-03T10:32:33Z</time>
      </trkpt>
      <trkpt lat="44.69094" lon="5.43375">
        <ele>537.8</ele>
        <time>2021-09-03T10:32:34Z</time>
      </trkpt>
      <trkpt lat="44.69098" lon="5.43366">
        <ele>537.8</ele>
        <time>2021-09-03T10:32:36Z</time>
      </trkpt>
      <trkpt lat="44.69101" lon="5.4336">
        <ele>537.8</ele>
        <time>2021-09-03T10:32:37Z</time>
      </trkpt>
      <trkpt lat="44.69104" lon="5.4335">
        <ele>537.8</ele>
        <time>2021-09-03T10:32:39Z</time>
      </trkpt>
      <trkpt lat="44.69106" lon="5.43344">
        <ele>537.8</ele>
        <time>2021-09-03T10:32:40Z</time>
      </trkpt>
      <trkpt lat="44.69108" lon="5.43338">
        <ele>537.8</ele>
        <time>2021-09-03T10:32:42Z</time>
      </trkpt>
      <trkpt lat="44.69111" lon="5.43332">
        <ele>537.7</ele>
        <time>2021-09-03T10:32:43Z</time>
      </trkpt>
      <trkpt lat="44.69115" lon="5.43328">
        <ele>537.7</ele>
        <time>2021-09-03T10:32:45Z</time>
      </trkpt>
      <trkpt lat="44.69118" lon="5.43325">
        <ele>537.7</ele>
        <time>2021-09-03T10:32:46Z</time>
      </trkpt>
      <trkpt lat="44.69122" lon="5.43322">
        <ele>537.7</ele>
        <time>2021-09-03T10:32:48Z</time>
      </trkpt>
      <trkpt lat="44.69123" lon="5.43321">
        <ele>537.7</ele>
        <time>2021-09-03T10:32:49Z</time>
      </trkpt>
      <trkpt lat="44.69124" lon="5.43322">
        <ele>537.7</ele>
        <time>2021-09-03T10:32:50Z</time>
      </trkpt>
      <trkpt lat="44.69125" lon="5.43324">
        <ele>537.7</ele>
        <time>2021-09-03T10:32:51Z</time>
      </trkpt>
      <trkpt lat="44.69127" lon="5.43327">
        <ele>537.7</ele>
        <time>2021-09-03T10:32:53Z</time>
      </trkpt>
      <trkpt lat="44.69127" lon="5.43332">
        <ele>537.7</ele>
        <time>2021-09-03T10:32:54Z</time>
      </trkpt>
      <trkpt lat="44.69127" lon="5.43343">
        <ele>538</ele>
        <time>2021-09-03T10:32:56Z</time>
      </trkpt>
      <trkpt lat="44.69132" lon="5.43361">
        <ele>538.6</ele>
        <time>2021-09-03T10:32:57Z</time>
      </trkpt>
      <trkpt lat="44.69138" lon="5.43376">
        <ele>539.5</ele>
        <time>2021-09-03T10:32:59Z</time>
      </trkpt>
      <trkpt lat="44.69139" lon="5.43381">
        <ele>539.8</ele>
        <time>2021-09-03T10:33:03Z</time>
      </trkpt>
      <trkpt lat="44.6914" lon="5.43383">
        <ele>539.9</ele>
        <time>2021-09-03T10:33:04Z</time>
      </trkpt>
      <trkpt lat="44.69142" lon="5.43388">
        <ele>540.2</ele>
        <time>2021-09-03T10:33:06Z</time>
      </trkpt>
      <trkpt lat="44.69144" lon="5.43392">
        <ele>540.5</ele>
        <time>2021-09-03T10:33:07Z</time>
      </trkpt>
      <trkpt lat="44.69149" lon="5.43403">
        <ele>541.3</ele>
        <time>2021-09-03T10:33:09Z</time>
      </trkpt>
      <trkpt lat="44.69152" lon="5.43409">
        <ele>541.7</ele>
        <time>2021-09-03T10:33:10Z</time>
      </trkpt>
      <trkpt lat="44.69121" lon="5.43521">
        <ele>547.5</ele>
        <time>2021-09-03T10:33:51Z</time>
      </trkpt>
      <trkpt lat="44.69118" lon="5.43525">
        <ele>547.7</ele>
        <time>2021-09-03T10:33:52Z</time>
      </trkpt>
      <trkpt lat="44.69117" lon="5.43525">
        <ele>547.7</ele>
        <time>2021-09-03T10:33:53Z</time>
      </trkpt>
      <trkpt lat="44.69116" lon="5.43526">
        <ele>547.8</ele>
        <time>2021-09-03T10:33:54Z</time>
      </trkpt>
      <trkpt lat="44.69112" lon="5.43531">
        <ele>548.1</ele>
        <time>2021-09-03T10:33:55Z</time>
      </trkpt>
      <trkpt lat="44.69111" lon="5.43535">
        <ele>548.1</ele>
        <time>2021-09-03T10:33:56Z</time>
      </trkpt>
      <trkpt lat="44.69109" lon="5.43542">
        <ele>548.3</ele>
        <time>2021-09-03T10:33:58Z</time>
      </trkpt>
      <trkpt lat="44.69108" lon="5.43545">
        <ele>548.3</ele>
        <time>2021-09-03T10:33:59Z</time>
      </trkpt>
      <trkpt lat="44.69106" lon="5.4355">
        <ele>548.4</ele>
        <time>2021-09-03T10:34:01Z</time>
      </trkpt>
      <trkpt lat="44.69105" lon="5.43554">
        <ele>548.5</ele>
        <time>2021-09-03T10:34:02Z</time>
      </trkpt>
      <trkpt lat="44.69105" lon="5.43559">
        <ele>548.5</ele>
        <time>2021-09-03T10:34:03Z</time>
      </trkpt>
      <trkpt lat="44.69105" lon="5.43561">
        <ele>548.5</ele>
        <time>2021-09-03T10:34:04Z</time>
      </trkpt>
      <trkpt lat="44.69106" lon="5.43566">
        <ele>548.4</ele>
        <time>2021-09-03T10:34:06Z</time>
      </trkpt>
      <trkpt lat="44.69107" lon="5.43567">
        <ele>548.4</ele>
        <time>2021-09-03T10:34:07Z</time>
      </trkpt>
      <trkpt lat="44.69109" lon="5.43569">
        <ele>548.3</ele>
        <time>2021-09-03T10:34:09Z</time>
      </trkpt>
      <trkpt lat="44.69111" lon="5.43571">
        <ele>548.2</ele>
        <time>2021-09-03T10:34:10Z</time>
      </trkpt>
      <trkpt lat="44.69113" lon="5.43572">
        <ele>548.1</ele>
        <time>2021-09-03T10:34:12Z</time>
      </trkpt>
      <trkpt lat="44.69115" lon="5.43573">
        <ele>548</ele>
        <time>2021-09-03T10:34:13Z</time>
      </trkpt>
      <trkpt lat="44.69116" lon="5.43573">
        <ele>548</ele>
        <time>2021-09-03T10:34:14Z</time>
      </trkpt>
      <trkpt lat="44.69172" lon="5.43917">
        <ele>550.5</ele>
        <time>2021-09-03T10:35:03Z</time>
      </trkpt>
      <trkpt lat="44.69174" lon="5.43923">
        <ele>550.6</ele>
        <time>2021-09-03T10:35:04Z</time>
      </trkpt>
      <trkpt lat="44.69174" lon="5.43924">
        <ele>550.7</ele>
        <time>2021-09-03T10:35:06Z</time>
      </trkpt>
      <trkpt lat="44.69173" lon="5.43926">
        <ele>550.7</ele>
        <time>2021-09-03T10:35:07Z</time>
      </trkpt>
      <trkpt lat="44.69173" lon="5.43928">
        <ele>550.8</ele>
        <time>2021-09-03T10:35:09Z</time>
      </trkpt>
      <trkpt lat="44.69173" lon="5.43932">
        <ele>550.9</ele>
        <time>2021-09-03T10:35:11Z</time>
      </trkpt>
      <trkpt lat="44.69173" lon="5.43936">
        <ele>551</ele>
        <time>2021-09-03T10:35:12Z</time>
      </trkpt>
      <trkpt lat="44.69173" lon="5.43939">
        <ele>551.1</ele>
        <time>2021-09-03T10:35:13Z</time>
      </trkpt>
      <trkpt lat="44.69174" lon="5.43944">
        <ele>551.2</ele>
        <time>2021-09-03T10:35:15Z</time>
      </trkpt>
      <trkpt lat="44.69175" lon="5.4395">
        <ele>551.4</ele>
        <time>2021-09-03T10:35:16Z</time>
      </trkpt>
      <trkpt lat="44.69175" lon="5.43952">
        <ele>551.4</ele>
        <time>2021-09-03T10:35:17Z</time>
      </trkpt>
      <trkpt lat="44.69174" lon="5.43958">
        <ele>551.6</ele>
        <time>2021-09-03T10:35:19Z</time>
      </trkpt>
      <trkpt lat="44.69172" lon="5.43961">
        <ele>551.7</ele>
        <time>2021-09-03T10:35:20Z</time>
      </trkpt>
      <trkpt lat="44.69171" lon="5.43962">
        <ele>551.7</ele>
        <time>2021-09-03T10:35:21Z</time>
      </trkpt>
      <trkpt lat="44.69167" lon="5.43964">
        <ele>551.9</ele>
        <time>2021-09-03T10:35:23Z</time>
      </trkpt>
      <trkpt lat="44.69165" lon="5.43964">
        <ele>551.9</ele>
        <time>2021-09-03T10:35:24Z</time>
      </trkpt>
      <trkpt lat="44.69165" lon="5.43964">
        <ele>551.9</ele>
        <time>2021-09-03T10:35:25Z</time>
      </trkpt>
      <trkpt lat="44.69164" lon="5.43964">
        <ele>552</ele>
        <time>2021-09-03T10:35:26Z</time>
      </trkpt>
      <trkpt lat="44.69162" lon="5.43966">
        <ele>552.1</ele>
        <time>2021-09-03T10:35:27Z</time>
      </trkpt>
      <trkpt lat="44.69161" lon="5.43967">
        <ele>552.1</ele>
        <time>2021-09-03T10:35:28Z</time>
      </trkpt>
      <trkpt lat="44.69146" lon="5.43978">
        <ele>552.7</ele>
        <time>2021-09-03T10:35:30Z</time>
      </trkpt>
      <trkpt lat="44.69143" lon="5.43983">
        <ele>552.9</ele>
        <time>2021-09-03T10:35:31Z</time>
      </trkpt>
      <trkpt lat="44.69141" lon="5.43987">
        <ele>553</ele>
        <time>2021-09-03T10:35:32Z</time>
      </trkpt>
      <trkpt lat="44.69139" lon="5.43991">
        <ele>553.1</ele>
        <time>2021-09-03T10:35:34Z</time>
      </trkpt>
      <trkpt lat="44.69139" lon="5.43997">
        <ele>553.2</ele>
        <time>2021-09-03T10:35:36Z</time>
      </trkpt>
      <trkpt lat="44.69137" lon="5.44006">
        <ele>553.4</ele>
        <time>2021-09-03T10:35:37Z</time>
      </trkpt>
      <trkpt lat="44.69136" lon="5.44013">
        <ele>553.6</ele>
        <time>2021-09-03T10:35:39Z</time>
      </trkpt>
      <trkpt lat="44.69135" lon="5.44019">
        <ele>553.7</ele>
        <time>2021-09-03T10:35:40Z</time>
      </trkpt>
      <trkpt lat="44.69134" lon="5.44037">
        <ele>554</ele>
        <time>2021-09-03T10:35:42Z</time>
      </trkpt>
      <trkpt lat="44.69134" lon="5.44043">
        <ele>554.1</ele>
        <time>2021-09-03T10:35:43Z</time>
      </trkpt>
      <trkpt lat="44.69135" lon="5.44048">
        <ele>554.3</ele>
        <time>2021-09-03T10:35:45Z</time>
      </trkpt>
      <trkpt lat="44.69136" lon="5.44052">
        <ele>554.3</ele>
        <time>2021-09-03T10:35:46Z</time>
      </trkpt>
      <trkpt lat="44.69136" lon="5.44054">
        <ele>554.4</ele>
        <time>2021-09-03T10:35:47Z</time>
      </trkpt>
      <trkpt lat="44.69137" lon="5.44056">
        <ele>554.4</ele>
        <time>2021-09-03T10:35:48Z</time>
      </trkpt>
      <trkpt lat="44.69136" lon="5.44059">
        <ele>554.5</ele>
        <time>2021-09-03T10:35:50Z</time>
      </trkpt>
      <trkpt lat="44.69136" lon="5.44061">
        <ele>554.5</ele>
        <time>2021-09-03T10:35:52Z</time>
      </trkpt>
      <trkpt lat="44.69135" lon="5.44063">
        <ele>554.6</ele>
        <time>2021-09-03T10:35:53Z</time>
      </trkpt>
      <trkpt lat="44.69135" lon="5.44064">
        <ele>554.6</ele>
        <time>2021-09-03T10:35:54Z</time>
      </trkpt>
      <trkpt lat="44.69134" lon="5.44066">
        <ele>554.7</ele>
        <time>2021-09-03T10:35:56Z</time>
      </trkpt>
      <trkpt lat="44.69134" lon="5.44067">
        <ele>554.7</ele>
        <time>2021-09-03T10:35:57Z</time>
      </trkpt>
      <trkpt lat="44.69133" lon="5.44069">
        <ele>554.7</ele>
        <time>2021-09-03T10:35:59Z</time>
      </trkpt>
      <trkpt lat="44.69133" lon="5.4407">
        <ele>554.8</ele>
        <time>2021-09-03T10:36:00Z</time>
      </trkpt>
      <trkpt lat="44.69132" lon="5.44072">
        <ele>554.8</ele>
        <time>2021-09-03T10:36:01Z</time>
      </trkpt>
      <trkpt lat="44.69132" lon="5.44074">
        <ele>554.9</ele>
        <time>2021-09-03T10:36:02Z</time>
      </trkpt>
      <trkpt lat="44.69131" lon="5.44078">
        <ele>555</ele>
        <time>2021-09-03T10:36:04Z</time>
      </trkpt>
      <trkpt lat="44.69131" lon="5.44079">
        <ele>555</ele>
        <time>2021-09-03T10:36:05Z</time>
      </trkpt>
      <trkpt lat="44.69131" lon="5.4408">
        <ele>555</ele>
        <time>2021-09-03T10:36:06Z</time>
      </trkpt>
      <trkpt lat="44.69131" lon="5.44081">
        <ele>555</ele>
        <time>2021-09-03T10:36:08Z</time>
      </trkpt>
      <trkpt lat="44.69131" lon="5.44083">
        <ele>555.1</ele>
        <time>2021-09-03T10:36:09Z</time>
      </trkpt>
      <trkpt lat="44.6913" lon="5.44084">
        <ele>555.1</ele>
        <time>2021-09-03T10:36:10Z</time>
      </trkpt>
      <trkpt lat="44.6913" lon="5.44085">
        <ele>555.1</ele>
        <time>2021-09-03T10:36:12Z</time>
      </trkpt>
      <trkpt lat="44.69129" lon="5.44091">
        <ele>555.3</ele>
        <time>2021-09-03T10:36:14Z</time>
      </trkpt>
      <trkpt lat="44.69129" lon="5.44093">
        <ele>555.3</ele>
        <time>2021-09-03T10:36:15Z</time>
      </trkpt>
      <trkpt lat="44.6913" lon="5.44096">
        <ele>555.4</ele>
        <time>2021-09-03T10:36:16Z</time>
      </trkpt>
      <trkpt lat="44.69133" lon="5.44099">
        <ele>555.5</ele>
        <time>2021-09-03T10:36:18Z</time>
      </trkpt>
      <trkpt lat="44.69135" lon="5.441">
        <ele>555.6</ele>
        <time>2021-09-03T10:36:19Z</time>
      </trkpt>
      <trkpt lat="44.69136" lon="5.44102">
        <ele>555.7</ele>
        <time>2021-09-03T10:36:20Z</time>
      </trkpt>
      <trkpt lat="44.69139" lon="5.44109">
        <ele>555.9</ele>
        <time>2021-09-03T10:36:22Z</time>
      </trkpt>
      <trkpt lat="44.6914" lon="5.44112">
        <ele>556</ele>
        <time>2021-09-03T10:36:23Z</time>
      </trkpt>
      <trkpt lat="44.69142" lon="5.44114">
        <ele>556.1</ele>
        <time>2021-09-03T10:36:24Z</time>
      </trkpt>
      <trkpt lat="44.69145" lon="5.44117">
        <ele>556.3</ele>
        <time>2021-09-03T10:36:26Z</time>
      </trkpt>
      <trkpt lat="44.69147" lon="5.44121">
        <ele>556.4</ele>
        <time>2021-09-03T10:36:27Z</time>
      </trkpt>
      <trkpt lat="44.69148" lon="5.44123">
        <ele>556.5</ele>
        <time>2021-09-03T10:36:29Z</time>
      </trkpt>
      <trkpt lat="44.69155" lon="5.44129">
        <ele>556.8</ele>
        <time>2021-09-03T10:36:31Z</time>
      </trkpt>
      <trkpt lat="44.69164" lon="5.44135">
        <ele>557.2</ele>
        <time>2021-09-03T10:36:33Z</time>
      </trkpt>
      <trkpt lat="44.69167" lon="5.44137">
        <ele>557.3</ele>
        <time>2021-09-03T10:36:34Z</time>
      </trkpt>
      <trkpt lat="44.69168" lon="5.44138">
        <ele>557.4</ele>
        <time>2021-09-03T10:36:35Z</time>
      </trkpt>
      <trkpt lat="44.69169" lon="5.44138">
        <ele>557.4</ele>
        <time>2021-09-03T10:36:37Z</time>
      </trkpt>
      <trkpt lat="44.6917" lon="5.44138">
        <ele>557.5</ele>
        <time>2021-09-03T10:36:38Z</time>
      </trkpt>
      <trkpt lat="44.6917" lon="5.44139">
        <ele>557.5</ele>
        <time>2021-09-03T10:36:40Z</time>
      </trkpt>
      <trkpt lat="44.69171" lon="5.44139">
        <ele>557.5</ele>
        <time>2021-09-03T10:36:41Z</time>
      </trkpt>
      <trkpt lat="44.69172" lon="5.44141">
        <ele>557.6</ele>
        <time>2021-09-03T10:36:42Z</time>
      </trkpt>
      <trkpt lat="44.69175" lon="5.44144">
        <ele>557.9</ele>
        <time>2021-09-03T10:36:44Z</time>
      </trkpt>
      <trkpt lat="44.69176" lon="5.44146">
        <ele>558</ele>
        <time>2021-09-03T10:36:45Z</time>
      </trkpt>
      <trkpt lat="44.69178" lon="5.44149">
        <ele>558.2</ele>
        <time>2021-09-03T10:36:47Z</time>
      </trkpt>
      <trkpt lat="44.69179" lon="5.44151">
        <ele>558.3</ele>
        <time>2021-09-03T10:36:49Z</time>
      </trkpt>
      <trkpt lat="44.6918" lon="5.44153">
        <ele>558.5</ele>
        <time>2021-09-03T10:36:50Z</time>
      </trkpt>
      <trkpt lat="44.6918" lon="5.44154">
        <ele>558.6</ele>
        <time>2021-09-03T10:36:51Z</time>
      </trkpt>
      <trkpt lat="44.69181" lon="5.44155">
        <ele>558.7</ele>
        <time>2021-09-03T10:36:53Z</time>
      </trkpt>
      <trkpt lat="44.69181" lon="5.44157">
        <ele>558.8</ele>
        <time>2021-09-03T10:36:54Z</time>
      </trkpt>
      <trkpt lat="44.69182" lon="5.44157">
        <ele>558.9</ele>
        <time>2021-09-03T10:36:55Z</time>
      </trkpt>
      <trkpt lat="44.69183" lon="5.44159">
        <ele>559</ele>
        <time>2021-09-03T10:36:56Z</time>
      </trkpt>
      <trkpt lat="44.69183" lon="5.44159">
        <ele>559.1</ele>
        <time>2021-09-03T10:36:57Z</time>
      </trkpt>
      <trkpt lat="44.69184" lon="5.44161">
        <ele>559.2</ele>
        <time>2021-09-03T10:36:59Z</time>
      </trkpt>
      <trkpt lat="44.69185" lon="5.44162">
        <ele>559.3</ele>
        <time>2021-09-03T10:37:00Z</time>
      </trkpt>
      <trkpt lat="44.69185" lon="5.44164">
        <ele>559.5</ele>
        <time>2021-09-03T10:37:02Z</time>
      </trkpt>
      <trkpt lat="44.69186" lon="5.44168">
        <ele>559.8</ele>
        <time>2021-09-03T10:37:03Z</time>
      </trkpt>
      <trkpt lat="44.69186" lon="5.44169">
        <ele>559.9</ele>
        <time>2021-09-03T10:37:04Z</time>
      </trkpt>
      <trkpt lat="44.69185" lon="5.44172">
        <ele>560.2</ele>
        <time>2021-09-03T10:37:06Z</time>
      </trkpt>
      <trkpt lat="44.69185" lon="5.44174">
        <ele>560.4</ele>
        <time>2021-09-03T10:37:07Z</time>
      </trkpt>
      <trkpt lat="44.69184" lon="5.44175">
        <ele>560.5</ele>
        <time>2021-09-03T10:37:08Z</time>
      </trkpt>
      <trkpt lat="44.69184" lon="5.44176">
        <ele>560.7</ele>
        <time>2021-09-03T10:37:09Z</time>
      </trkpt>
      <trkpt lat="44.69182" lon="5.44178">
        <ele>560.8</ele>
        <time>2021-09-03T10:37:11Z</time>
      </trkpt>
      <trkpt lat="44.69178" lon="5.44184">
        <ele>561.5</ele>
        <time>2021-09-03T10:37:12Z</time>
      </trkpt>
      <trkpt lat="44.69175" lon="5.44188">
        <ele>562.1</ele>
        <time>2021-09-03T10:37:13Z</time>
      </trkpt>
      <trkpt lat="44.69169" lon="5.44198">
        <ele>563.1</ele>
        <time>2021-09-03T10:37:14Z</time>
      </trkpt>
      <trkpt lat="44.69166" lon="5.44201">
        <ele>563.6</ele>
        <time>2021-09-03T10:37:15Z</time>
      </trkpt>
      <trkpt lat="44.69163" lon="5.44206">
        <ele>564.2</ele>
        <time>2021-09-03T10:37:17Z</time>
      </trkpt>
      <trkpt lat="44.69161" lon="5.44208">
        <ele>564.5</ele>
        <time>2021-09-03T10:37:18Z</time>
      </trkpt>
      <trkpt lat="44.69159" lon="5.4421">
        <ele>564.9</ele>
        <time>2021-09-03T10:37:20Z</time>
      </trkpt>
      <trkpt lat="44.69157" lon="5.44211">
        <ele>565.1</ele>
        <time>2021-09-03T10:37:21Z</time>
      </trkpt>
      <trkpt lat="44.69156" lon="5.44212">
        <ele>565.3</ele>
        <time>2021-09-03T10:37:22Z</time>
      </trkpt>
      <trkpt lat="44.69153" lon="5.44214">
        <ele>565.7</ele>
        <time>2021-09-03T10:37:23Z</time>
      </trkpt>
      <trkpt lat="44.69153" lon="5.44215">
        <ele>565.8</ele>
        <time>2021-09-03T10:37:24Z</time>
      </trkpt>
      <trkpt lat="44.69149" lon="5.44217">
        <ele>566.3</ele>
        <time>2021-09-03T10:37:26Z</time>
      </trkpt>
      <trkpt lat="44.69149" lon="5.44217">
        <ele>566.4</ele>
        <time>2021-09-03T10:37:27Z</time>
      </trkpt>
      <trkpt lat="44.69149" lon="5.4422">
        <ele>566.7</ele>
        <time>2021-09-03T10:37:28Z</time>
      </trkpt>
      <trkpt lat="44.6915" lon="5.44222">
        <ele>567.1</ele>
        <time>2021-09-03T10:37:29Z</time>
      </trkpt>
      <trkpt lat="44.69152" lon="5.44225">
        <ele>567.4</ele>
        <time>2021-09-03T10:37:30Z</time>
      </trkpt>
      <trkpt lat="44.69154" lon="5.44227">
        <ele>567.7</ele>
        <time>2021-09-03T10:37:31Z</time>
      </trkpt>
      <trkpt lat="44.69155" lon="5.44229">
        <ele>568.1</ele>
        <time>2021-09-03T10:37:32Z</time>
      </trkpt>
      <trkpt lat="44.69157" lon="5.44232">
        <ele>568.4</ele>
        <time>2021-09-03T10:37:34Z</time>
      </trkpt>
      <trkpt lat="44.69159" lon="5.44234">
        <ele>568.7</ele>
        <time>2021-09-03T10:37:35Z</time>
      </trkpt>
      <trkpt lat="44.6916" lon="5.44237">
        <ele>569</ele>
        <time>2021-09-03T10:37:37Z</time>
      </trkpt>
      <trkpt lat="44.69162" lon="5.44239">
        <ele>569.4</ele>
        <time>2021-09-03T10:38:39Z</time>
      </trkpt>
      <trkpt lat="44.69163" lon="5.44242">
        <ele>569.7</ele>
        <time>2021-09-03T10:38:40Z</time>
      </trkpt>
      <trkpt lat="44.69165" lon="5.44244">
        <ele>569.9</ele>
        <time>2021-09-03T10:38:41Z</time>
      </trkpt>
      <trkpt lat="44.69167" lon="5.44248">
        <ele>570.3</ele>
        <time>2021-09-03T10:38:42Z</time>
      </trkpt>
      <trkpt lat="44.69168" lon="5.44249">
        <ele>570.5</ele>
        <time>2021-09-03T10:38:43Z</time>
      </trkpt>
      <trkpt lat="44.69173" lon="5.44256">
        <ele>571.1</ele>
        <time>2021-09-03T10:38:45Z</time>
      </trkpt>
      <trkpt lat="44.69174" lon="5.44259">
        <ele>571.4</ele>
        <time>2021-09-03T10:38:46Z</time>
      </trkpt>
      <trkpt lat="44.69175" lon="5.44262">
        <ele>571.6</ele>
        <time>2021-09-03T10:38:48Z</time>
      </trkpt>
      <trkpt lat="44.69176" lon="5.44264">
        <ele>571.8</ele>
        <time>2021-09-03T10:38:49Z</time>
      </trkpt>
      <trkpt lat="44.69177" lon="5.44266">
        <ele>571.9</ele>
        <time>2021-09-03T10:38:50Z</time>
      </trkpt>
      <trkpt lat="44.69178" lon="5.44268">
        <ele>572.1</ele>
        <time>2021-09-03T10:38:51Z</time>
      </trkpt>
      <trkpt lat="44.69179" lon="5.44268">
        <ele>572.2</ele>
        <time>2021-09-03T10:38:53Z</time>
      </trkpt>
      <trkpt lat="44.6918" lon="5.4427">
        <ele>572.4</ele>
        <time>2021-09-03T10:38:54Z</time>
      </trkpt>
      <trkpt lat="44.69182" lon="5.4427">
        <ele>572.6</ele>
        <time>2021-09-03T10:38:55Z</time>
      </trkpt>
      <trkpt lat="44.69182" lon="5.4427">
        <ele>572.7</ele>
        <time>2021-09-03T10:38:56Z</time>
      </trkpt>
      <trkpt lat="44.69183" lon="5.44271">
        <ele>572.7</ele>
        <time>2021-09-03T10:38:58Z</time>
      </trkpt>
      <trkpt lat="44.69184" lon="5.44271">
        <ele>572.8</ele>
        <time>2021-09-03T10:38:59Z</time>
      </trkpt>
      <trkpt lat="44.69185" lon="5.44271">
        <ele>572.9</ele>
        <time>2021-09-03T10:39:00Z</time>
      </trkpt>
      <trkpt lat="44.69188" lon="5.44271">
        <ele>573.2</ele>
        <time>2021-09-03T10:39:01Z</time>
      </trkpt>
      <trkpt lat="44.69189" lon="5.44271">
        <ele>573.4</ele>
        <time>2021-09-03T10:39:03Z</time>
      </trkpt>
      <trkpt lat="44.69191" lon="5.44271">
        <ele>573.5</ele>
        <time>2021-09-03T10:39:04Z</time>
      </trkpt>
      <trkpt lat="44.69192" lon="5.44271">
        <ele>573.6</ele>
        <time>2021-09-03T10:39:05Z</time>
      </trkpt>
      <trkpt lat="44.69193" lon="5.44272">
        <ele>573.7</ele>
        <time>2021-09-03T10:39:07Z</time>
      </trkpt>
      <trkpt lat="44.69193" lon="5.44273">
        <ele>573.8</ele>
        <time>2021-09-03T10:39:08Z</time>
      </trkpt>
      <trkpt lat="44.69194" lon="5.44273">
        <ele>573.8</ele>
        <time>2021-09-03T10:39:10Z</time>
      </trkpt>
      <trkpt lat="44.69194" lon="5.44273">
        <ele>573.9</ele>
        <time>2021-09-03T10:39:12Z</time>
      </trkpt>
      <trkpt lat="44.69195" lon="5.44273">
        <ele>573.9</ele>
        <time>2021-09-03T10:39:13Z</time>
      </trkpt>
      <trkpt lat="44.69196" lon="5.44274">
        <ele>574</ele>
        <time>2021-09-03T10:39:14Z</time>
      </trkpt>
      <trkpt lat="44.69196" lon="5.44274">
        <ele>574</ele>
        <time>2021-09-03T10:39:16Z</time>
      </trkpt>
      <trkpt lat="44.69197" lon="5.44275">
        <ele>574.1</ele>
        <time>2021-09-03T10:39:17Z</time>
      </trkpt>
      <trkpt lat="44.69198" lon="5.44276">
        <ele>574.2</ele>
        <time>2021-09-03T10:39:19Z</time>
      </trkpt>
      <trkpt lat="44.69199" lon="5.4428">
        <ele>574.4</ele>
        <time>2021-09-03T10:39:20Z</time>
      </trkpt>
      <trkpt lat="44.69202" lon="5.44284">
        <ele>574.7</ele>
        <time>2021-09-03T10:39:22Z</time>
      </trkpt>
      <trkpt lat="44.69203" lon="5.44285">
        <ele>574.8</ele>
        <time>2021-09-03T10:39:24Z</time>
      </trkpt>
      <trkpt lat="44.69204" lon="5.44286">
        <ele>574.9</ele>
        <time>2021-09-03T10:39:25Z</time>
      </trkpt>
      <trkpt lat="44.69206" lon="5.44288">
        <ele>575.1</ele>
        <time>2021-09-03T10:39:27Z</time>
      </trkpt>
      <trkpt lat="44.6921" lon="5.44289">
        <ele>575.4</ele>
        <time>2021-09-03T10:39:28Z</time>
      </trkpt>
      <trkpt lat="44.69211" lon="5.44289">
        <ele>575.5</ele>
        <time>2021-09-03T10:39:29Z</time>
      </trkpt>
      <trkpt lat="44.69214" lon="5.4429">
        <ele>575.8</ele>
        <time>2021-09-03T10:39:30Z</time>
      </trkpt>
      <trkpt lat="44.69216" lon="5.44291">
        <ele>575.9</ele>
        <time>2021-09-03T10:39:31Z</time>
      </trkpt>
      <trkpt lat="44.69217" lon="5.44292">
        <ele>576</ele>
        <time>2021-09-03T10:39:33Z</time>
      </trkpt>
      <trkpt lat="44.69218" lon="5.44293">
        <ele>576.2</ele>
        <time>2021-09-03T10:39:34Z</time>
      </trkpt>
      <trkpt lat="44.6922" lon="5.44295">
        <ele>576.3</ele>
        <time>2021-09-03T10:39:36Z</time>
      </trkpt>
      <trkpt lat="44.69221" lon="5.44297">
        <ele>576.5</ele>
        <time>2021-09-03T10:39:37Z</time>
      </trkpt>
      <trkpt lat="44.69221" lon="5.44299">
        <ele>576.6</ele>
        <time>2021-09-03T10:39:38Z</time>
      </trkpt>
      <trkpt lat="44.69222" lon="5.44302">
        <ele>576.8</ele>
        <time>2021-09-03T10:39:40Z</time>
      </trkpt>
      <trkpt lat="44.69222" lon="5.44305">
        <ele>577</ele>
        <time>2021-09-03T10:39:41Z</time>
      </trkpt>
      <trkpt lat="44.69224" lon="5.44309">
        <ele>577.2</ele>
        <time>2021-09-03T10:39:43Z</time>
      </trkpt>
      <trkpt lat="44.69225" lon="5.4431">
        <ele>577.4</ele>
        <time>2021-09-03T10:39:44Z</time>
      </trkpt>
      <trkpt lat="44.69226" lon="5.44311">
        <ele>577.5</ele>
        <time>2021-09-03T10:39:45Z</time>
      </trkpt>
      <trkpt lat="44.69227" lon="5.44312">
        <ele>577.6</ele>
        <time>2021-09-03T10:39:47Z</time>
      </trkpt>
      <trkpt lat="44.69227" lon="5.44313">
        <ele>577.7</ele>
        <time>2021-09-03T10:39:48Z</time>
      </trkpt>
      <trkpt lat="44.69228" lon="5.44315">
        <ele>577.8</ele>
        <time>2021-09-03T10:39:49Z</time>
      </trkpt>
      <trkpt lat="44.6923" lon="5.44318">
        <ele>578</ele>
        <time>2021-09-03T10:39:51Z</time>
      </trkpt>
      <trkpt lat="44.6923" lon="5.44319">
        <ele>578.1</ele>
        <time>2021-09-03T10:39:52Z</time>
      </trkpt>
      <trkpt lat="44.69232" lon="5.4432">
        <ele>578.2</ele>
        <time>2021-09-03T10:39:53Z</time>
      </trkpt>
      <trkpt lat="44.69233" lon="5.44322">
        <ele>578.3</ele>
        <time>2021-09-03T10:39:54Z</time>
      </trkpt>
      <trkpt lat="44.69233" lon="5.44324">
        <ele>578.4</ele>
        <time>2021-09-03T10:39:55Z</time>
      </trkpt>
      <trkpt lat="44.69234" lon="5.44326">
        <ele>578.6</ele>
        <time>2021-09-03T10:39:56Z</time>
      </trkpt>
      <trkpt lat="44.69236" lon="5.44329">
        <ele>578.8</ele>
        <time>2021-09-03T10:39:58Z</time>
      </trkpt>
      <trkpt lat="44.69237" lon="5.4433">
        <ele>578.9</ele>
        <time>2021-09-03T10:39:59Z</time>
      </trkpt>
      <trkpt lat="44.69238" lon="5.44331">
        <ele>579</ele>
        <time>2021-09-03T10:40:00Z</time>
      </trkpt>
      <trkpt lat="44.69238" lon="5.44334">
        <ele>579.2</ele>
        <time>2021-09-03T10:40:02Z</time>
      </trkpt>
      <trkpt lat="44.69238" lon="5.44334">
        <ele>579.2</ele>
        <time>2021-09-03T10:40:03Z</time>
      </trkpt>
      <trkpt lat="44.69238" lon="5.44336">
        <ele>579.2</ele>
        <time>2021-09-03T10:40:04Z</time>
      </trkpt>
      <trkpt lat="44.69238" lon="5.44337">
        <ele>579.3</ele>
        <time>2021-09-03T10:40:06Z</time>
      </trkpt>
      <trkpt lat="44.69238" lon="5.44338">
        <ele>579.4</ele>
        <time>2021-09-03T10:40:07Z</time>
      </trkpt>
      <trkpt lat="44.69238" lon="5.44339">
        <ele>579.4</ele>
        <time>2021-09-03T10:40:08Z</time>
      </trkpt>
      <trkpt lat="44.69238" lon="5.44339">
        <ele>579.4</ele>
        <time>2021-09-03T10:40:09Z</time>
      </trkpt>
      <trkpt lat="44.69238" lon="5.44339">
        <ele>579.4</ele>
        <time>2021-09-03T10:40:10Z</time>
      </trkpt>
      <trkpt lat="44.69238" lon="5.44339">
        <ele>579.4</ele>
        <time>2021-09-03T10:40:11Z</time>
      </trkpt>
      <trkpt lat="44.69238" lon="5.4434">
        <ele>579.4</ele>
        <time>2021-09-03T10:40:12Z</time>
      </trkpt>
      <trkpt lat="44.69238" lon="5.4434">
        <ele>579.5</ele>
        <time>2021-09-03T10:40:14Z</time>
      </trkpt>
      <trkpt lat="44.69228" lon="5.44382">
        <ele>582.3</ele>
        <time>2021-09-03T10:40:39Z</time>
      </trkpt>
      <trkpt lat="44.69227" lon="5.44383">
        <ele>582.4</ele>
        <time>2021-09-03T10:40:40Z</time>
      </trkpt>
      <trkpt lat="44.69226" lon="5.44384">
        <ele>582.5</ele>
        <time>2021-09-03T10:40:41Z</time>
      </trkpt>
      <trkpt lat="44.69228" lon="5.44387">
        <ele>582.8</ele>
        <time>2021-09-03T10:40:43Z</time>
      </trkpt>
      <trkpt lat="44.69234" lon="5.4439">
        <ele>583.5</ele>
        <time>2021-09-03T10:40:45Z</time>
      </trkpt>
      <trkpt lat="44.69235" lon="5.4439">
        <ele>583.7</ele>
        <time>2021-09-03T10:40:46Z</time>
      </trkpt>
      <trkpt lat="44.69236" lon="5.44391">
        <ele>583.8</ele>
        <time>2021-09-03T10:40:47Z</time>
      </trkpt>
      <trkpt lat="44.69237" lon="5.44391">
        <ele>584</ele>
        <time>2021-09-03T10:40:49Z</time>
      </trkpt>
      <trkpt lat="44.69239" lon="5.44399">
        <ele>584.8</ele>
        <time>2021-09-03T10:40:50Z</time>
      </trkpt>
      <trkpt lat="44.6924" lon="5.44406">
        <ele>585.5</ele>
        <time>2021-09-03T10:40:51Z</time>
      </trkpt>
      <trkpt lat="44.69242" lon="5.44413">
        <ele>586.2</ele>
        <time>2021-09-03T10:40:52Z</time>
      </trkpt>
      <trkpt lat="44.69243" lon="5.4442">
        <ele>586.9</ele>
        <time>2021-09-03T10:40:54Z</time>
      </trkpt>
      <trkpt lat="44.69244" lon="5.44427">
        <ele>587.6</ele>
        <time>2021-09-03T10:40:55Z</time>
      </trkpt>
      <trkpt lat="44.69245" lon="5.44434">
        <ele>588.3</ele>
        <time>2021-09-03T10:40:57Z</time>
      </trkpt>
      <trkpt lat="44.69247" lon="5.4444">
        <ele>589</ele>
        <time>2021-09-03T10:40:58Z</time>
      </trkpt>
      <trkpt lat="44.69248" lon="5.44447">
        <ele>589.6</ele>
        <time>2021-09-03T10:40:59Z</time>
      </trkpt>
      <trkpt lat="44.69249" lon="5.44454">
        <ele>590.2</ele>
        <time>2021-09-03T10:41:41Z</time>
      </trkpt>
      <trkpt lat="44.69251" lon="5.44461">
        <ele>590.8</ele>
        <time>2021-09-03T10:41:42Z</time>
      </trkpt>
      <trkpt lat="44.69252" lon="5.44468">
        <ele>591.4</ele>
        <time>2021-09-03T10:41:43Z</time>
      </trkpt>
      <trkpt lat="44.69253" lon="5.44471">
        <ele>591.6</ele>
        <time>2021-09-03T10:41:45Z</time>
      </trkpt>
      <trkpt lat="44.69253" lon="5.44472">
        <ele>591.7</ele>
        <time>2021-09-03T10:41:46Z</time>
      </trkpt>
      <trkpt lat="44.69254" lon="5.44473">
        <ele>591.8</ele>
        <time>2021-09-03T10:41:47Z</time>
      </trkpt>
      <trkpt lat="44.69254" lon="5.44474">
        <ele>592</ele>
        <time>2021-09-03T10:41:48Z</time>
      </trkpt>
      <trkpt lat="44.69255" lon="5.44475">
        <ele>593.2</ele>
        <time>2021-09-03T10:41:50Z</time>
      </trkpt>
      <trkpt lat="44.69256" lon="5.44476">
        <ele>593.4</ele>
        <time>2021-09-03T10:41:51Z</time>
      </trkpt>
      <trkpt lat="44.69257" lon="5.44477">
        <ele>593.5</ele>
        <time>2021-09-03T10:41:52Z</time>
      </trkpt>
      <trkpt lat="44.69257" lon="5.44477">
        <ele>593.5</ele>
        <time>2021-09-03T10:41:54Z</time>
      </trkpt>
      <trkpt lat="44.69257" lon="5.44478">
        <ele>593.6</ele>
        <time>2021-09-03T10:41:55Z</time>
      </trkpt>
      <trkpt lat="44.69257" lon="5.44479">
        <ele>593.7</ele>
        <time>2021-09-03T10:41:56Z</time>
      </trkpt>
      <trkpt lat="44.69257" lon="5.4448">
        <ele>593.7</ele>
        <time>2021-09-03T10:41:57Z</time>
      </trkpt>
      <trkpt lat="44.69257" lon="5.44482">
        <ele>593.9</ele>
        <time>2021-09-03T10:41:59Z</time>
      </trkpt>
      <trkpt lat="44.69256" lon="5.44483">
        <ele>594</ele>
        <time>2021-09-03T10:42:00Z</time>
      </trkpt>
      <trkpt lat="44.69256" lon="5.44485">
        <ele>594.1</ele>
        <time>2021-09-03T10:42:01Z</time>
      </trkpt>
      <trkpt lat="44.69254" lon="5.4449">
        <ele>594.5</ele>
        <time>2021-09-03T10:42:04Z</time>
      </trkpt>
      <trkpt lat="44.69253" lon="5.44493">
        <ele>594.7</ele>
        <time>2021-09-03T10:42:05Z</time>
      </trkpt>
      <trkpt lat="44.69253" lon="5.44499">
        <ele>594.9</ele>
        <time>2021-09-03T10:42:07Z</time>
      </trkpt>
      <trkpt lat="44.69253" lon="5.445">
        <ele>594.9</ele>
        <time>2021-09-03T10:42:08Z</time>
      </trkpt>
      <trkpt lat="44.69252" lon="5.44503">
        <ele>594.9</ele>
        <time>2021-09-03T10:42:09Z</time>
      </trkpt>
      <trkpt lat="44.69251" lon="5.44506">
        <ele>594.9</ele>
        <time>2021-09-03T10:42:11Z</time>
      </trkpt>
      <trkpt lat="44.69251" lon="5.44507">
        <ele>594.9</ele>
        <time>2021-09-03T10:42:12Z</time>
      </trkpt>
      <trkpt lat="44.69251" lon="5.44508">
        <ele>594.9</ele>
        <time>2021-09-03T10:42:13Z</time>
      </trkpt>
      <trkpt lat="44.69251" lon="5.44508">
        <ele>594.9</ele>
        <time>2021-09-03T10:42:14Z</time>
      </trkpt>
      <trkpt lat="44.69251" lon="5.44508">
        <ele>594.9</ele>
        <time>2021-09-03T10:42:16Z</time>
      </trkpt>
      <trkpt lat="44.69252" lon="5.44509">
        <ele>594.8</ele>
        <time>2021-09-03T10:42:17Z</time>
      </trkpt>
      <trkpt lat="44.69252" lon="5.44509">
        <ele>594.8</ele>
        <time>2021-09-03T10:42:18Z</time>
      </trkpt>
      <trkpt lat="44.69253" lon="5.44509">
        <ele>594.8</ele>
        <time>2021-09-03T10:42:19Z</time>
      </trkpt>
      <trkpt lat="44.69252" lon="5.44508">
        <ele>594.8</ele>
        <time>2021-09-03T10:42:21Z</time>
      </trkpt>
      <trkpt lat="44.69251" lon="5.44509">
        <ele>594.7</ele>
        <time>2021-09-03T10:42:22Z</time>
      </trkpt>
      <trkpt lat="44.6925" lon="5.44509">
        <ele>594.7</ele>
        <time>2021-09-03T10:42:23Z</time>
      </trkpt>
      <trkpt lat="44.69248" lon="5.4451">
        <ele>594.5</ele>
        <time>2021-09-03T10:42:24Z</time>
      </trkpt>
      <trkpt lat="44.69242" lon="5.44515">
        <ele>593.9</ele>
        <time>2021-09-03T10:42:26Z</time>
      </trkpt>
      <trkpt lat="44.69232" lon="5.44522">
        <ele>592.7</ele>
        <time>2021-09-03T10:42:27Z</time>
      </trkpt>
      <trkpt lat="44.69232" lon="5.44522">
        <ele>592.7</ele>
        <time>2021-09-03T10:42:27Z</time>
      </trkpt>
      <trkpt lat="44.69224" lon="5.44528">
        <ele>591.4</ele>
        <time>2021-09-03T10:42:28Z</time>
      </trkpt>
      <trkpt lat="44.69218" lon="5.44532">
        <ele>590.5</ele>
        <time>2021-09-03T10:42:30Z</time>
      </trkpt>
      <trkpt lat="44.69214" lon="5.44535">
        <ele>589.8</ele>
        <time>2021-09-03T10:42:31Z</time>
      </trkpt>
      <trkpt lat="44.69205" lon="5.44538">
        <ele>588.5</ele>
        <time>2021-09-03T10:42:33Z</time>
      </trkpt>
      <trkpt lat="44.692" lon="5.4454">
        <ele>587.8</ele>
        <time>2021-09-03T10:42:34Z</time>
      </trkpt>
      <trkpt lat="44.69194" lon="5.44543">
        <ele>587.1</ele>
        <time>2021-09-03T10:42:35Z</time>
      </trkpt>
      <trkpt lat="44.69181" lon="5.44549">
        <ele>585.7</ele>
        <time>2021-09-03T10:42:37Z</time>
      </trkpt>
      <trkpt lat="44.69168" lon="5.44555">
        <ele>584.2</ele>
        <time>2021-09-03T10:42:39Z</time>
      </trkpt>
      <trkpt lat="44.69161" lon="5.44559">
        <ele>583.2</ele>
        <time>2021-09-03T10:42:40Z</time>
      </trkpt>
      <trkpt lat="44.69149" lon="5.44566">
        <ele>581</ele>
        <time>2021-09-03T10:42:42Z</time>
      </trkpt>
      <trkpt lat="44.69143" lon="5.44569">
        <ele>580</ele>
        <time>2021-09-03T10:42:43Z</time>
      </trkpt>
      <trkpt lat="44.69132" lon="5.44577">
        <ele>578.2</ele>
        <time>2021-09-03T10:42:45Z</time>
      </trkpt>
      <trkpt lat="44.69128" lon="5.44582">
        <ele>577.4</ele>
        <time>2021-09-03T10:42:46Z</time>
      </trkpt>
      <trkpt lat="44.69124" lon="5.44599">
        <ele>576</ele>
        <time>2021-09-03T10:42:48Z</time>
      </trkpt>
      <trkpt lat="44.69124" lon="5.4462">
        <ele>574.7</ele>
        <time>2021-09-03T10:42:50Z</time>
      </trkpt>
      <trkpt lat="44.69121" lon="5.44637">
        <ele>573.6</ele>
        <time>2021-09-03T10:42:52Z</time>
      </trkpt>
      <trkpt lat="44.69119" lon="5.44645">
        <ele>573</ele>
        <time>2021-09-03T10:42:53Z</time>
      </trkpt>
      <trkpt lat="44.69116" lon="5.44662">
        <ele>571.6</ele>
        <time>2021-09-03T10:42:55Z</time>
      </trkpt>
      <trkpt lat="44.69113" lon="5.44678">
        <ele>570.1</ele>
        <time>2021-09-03T10:42:57Z</time>
      </trkpt>
      <trkpt lat="44.69113" lon="5.44686">
        <ele>569.3</ele>
        <time>2021-09-03T10:42:58Z</time>
      </trkpt>
      <trkpt lat="44.69112" lon="5.44695">
        <ele>568.6</ele>
        <time>2021-09-03T10:42:59Z</time>
      </trkpt>
      <trkpt lat="44.6911" lon="5.4471">
        <ele>567.4</ele>
        <time>2021-09-03T10:43:01Z</time>
      </trkpt>
      <trkpt lat="44.69104" lon="5.44725">
        <ele>566</ele>
        <time>2021-09-03T10:43:03Z</time>
      </trkpt>
      <trkpt lat="44.69096" lon="5.44742">
        <ele>564.3</ele>
        <time>2021-09-03T10:43:05Z</time>
      </trkpt>
      <trkpt lat="44.69092" lon="5.44749">
        <ele>563.7</ele>
        <time>2021-09-03T10:43:06Z</time>
      </trkpt>
      <trkpt lat="44.69085" lon="5.44768">
        <ele>562.2</ele>
        <time>2021-09-03T10:43:08Z</time>
      </trkpt>
      <trkpt lat="44.69081" lon="5.4478">
        <ele>561.3</ele>
        <time>2021-09-03T10:43:09Z</time>
      </trkpt>
      <trkpt lat="44.69077" lon="5.44793">
        <ele>560.4</ele>
        <time>2021-09-03T10:43:10Z</time>
      </trkpt>
      <trkpt lat="44.69069" lon="5.44819">
        <ele>558.6</ele>
        <time>2021-09-03T10:43:12Z</time>
      </trkpt>
      <trkpt lat="44.69065" lon="5.44833">
        <ele>557.7</ele>
        <time>2021-09-03T10:43:13Z</time>
      </trkpt>
      <trkpt lat="44.6906" lon="5.44862">
        <ele>556</ele>
        <time>2021-09-03T10:43:15Z</time>
      </trkpt>
      <trkpt lat="44.69058" lon="5.44876">
        <ele>555.2</ele>
        <time>2021-09-03T10:43:16Z</time>
      </trkpt>
      <trkpt lat="44.69057" lon="5.4489">
        <ele>554.5</ele>
        <time>2021-09-03T10:43:17Z</time>
      </trkpt>
      <trkpt lat="44.69054" lon="5.44916">
        <ele>553.6</ele>
        <time>2021-09-03T10:43:19Z</time>
      </trkpt>
      <trkpt lat="44.6905" lon="5.44936">
        <ele>553.5</ele>
        <time>2021-09-03T10:43:21Z</time>
      </trkpt>
      <trkpt lat="44.69046" lon="5.44954">
        <ele>553.7</ele>
        <time>2021-09-03T10:43:23Z</time>
      </trkpt>
      <trkpt lat="44.69045" lon="5.44963">
        <ele>553.8</ele>
        <time>2021-09-03T10:43:24Z</time>
      </trkpt>
      <trkpt lat="44.69044" lon="5.44972">
        <ele>554.1</ele>
        <time>2021-09-03T10:43:25Z</time>
      </trkpt>
      <trkpt lat="44.69041" lon="5.44985">
        <ele>554.5</ele>
        <time>2021-09-03T10:43:27Z</time>
      </trkpt>
      <trkpt lat="44.69039" lon="5.44991">
        <ele>554.7</ele>
        <time>2021-09-03T10:43:28Z</time>
      </trkpt>
      <trkpt lat="44.69036" lon="5.44997">
        <ele>554.9</ele>
        <time>2021-09-03T10:43:29Z</time>
      </trkpt>
      <trkpt lat="44.69029" lon="5.45007">
        <ele>555.3</ele>
        <time>2021-09-03T10:43:31Z</time>
      </trkpt>
      <trkpt lat="44.69023" lon="5.45018">
        <ele>555.8</ele>
        <time>2021-09-03T10:43:33Z</time>
      </trkpt>
      <trkpt lat="44.69017" lon="5.45028">
        <ele>556.2</ele>
        <time>2021-09-03T10:43:35Z</time>
      </trkpt>
      <trkpt lat="44.6901" lon="5.45038">
        <ele>556.7</ele>
        <time>2021-09-03T10:43:37Z</time>
      </trkpt>
      <trkpt lat="44.69007" lon="5.45043">
        <ele>556.9</ele>
        <time>2021-09-03T10:43:38Z</time>
      </trkpt>
      <trkpt lat="44.69004" lon="5.45052">
        <ele>557.3</ele>
        <time>2021-09-03T10:43:40Z</time>
      </trkpt>
      <trkpt lat="44.69001" lon="5.45062">
        <ele>557.8</ele>
        <time>2021-09-03T10:43:42Z</time>
      </trkpt>
      <trkpt lat="44.69001" lon="5.45065">
        <ele>558</ele>
        <time>2021-09-03T10:43:43Z</time>
      </trkpt>
      <trkpt lat="44.69" lon="5.45071">
        <ele>558.3</ele>
        <time>2021-09-03T10:43:45Z</time>
      </trkpt>
      <trkpt lat="44.69001" lon="5.45077">
        <ele>558.6</ele>
        <time>2021-09-03T10:43:46Z</time>
      </trkpt>
      <trkpt lat="44.69003" lon="5.45082">
        <ele>559</ele>
        <time>2021-09-03T10:43:47Z</time>
      </trkpt>
      <trkpt lat="44.69005" lon="5.45084">
        <ele>559.1</ele>
        <time>2021-09-03T10:43:48Z</time>
      </trkpt>
      <trkpt lat="44.69009" lon="5.45089">
        <ele>559.5</ele>
        <time>2021-09-03T10:43:50Z</time>
      </trkpt>
      <trkpt lat="44.69012" lon="5.45092">
        <ele>559.7</ele>
        <time>2021-09-03T10:43:51Z</time>
      </trkpt>
      <trkpt lat="44.69013" lon="5.45094">
        <ele>559.7</ele>
        <time>2021-09-03T10:43:52Z</time>
      </trkpt>
      <trkpt lat="44.69019" lon="5.45098">
        <ele>559.9</ele>
        <time>2021-09-03T10:43:54Z</time>
      </trkpt>
      <trkpt lat="44.69021" lon="5.451">
        <ele>560</ele>
        <time>2021-09-03T10:43:55Z</time>
      </trkpt>
      <trkpt lat="44.69025" lon="5.45103">
        <ele>560</ele>
        <time>2021-09-03T10:43:57Z</time>
      </trkpt>
      <trkpt lat="44.6903" lon="5.45107">
        <ele>560</ele>
        <time>2021-09-03T10:43:59Z</time>
      </trkpt>
      <trkpt lat="44.6903" lon="5.45112">
        <ele>559.9</ele>
        <time>2021-09-03T10:44:01Z</time>
      </trkpt>
      <trkpt lat="44.69026" lon="5.45118">
        <ele>559.8</ele>
        <time>2021-09-03T10:44:03Z</time>
      </trkpt>
      <trkpt lat="44.69023" lon="5.45122">
        <ele>559.7</ele>
        <time>2021-09-03T10:44:04Z</time>
      </trkpt>
      <trkpt lat="44.69021" lon="5.45128">
        <ele>559.6</ele>
        <time>2021-09-03T10:44:05Z</time>
      </trkpt>
      <trkpt lat="44.69016" lon="5.45141">
        <ele>559.5</ele>
        <time>2021-09-03T10:44:07Z</time>
      </trkpt>
      <trkpt lat="44.69014" lon="5.45148">
        <ele>559.4</ele>
        <time>2021-09-03T10:44:08Z</time>
      </trkpt>
      <trkpt lat="44.69012" lon="5.45159">
        <ele>559.4</ele>
        <time>2021-09-03T10:44:10Z</time>
      </trkpt>
      <trkpt lat="44.69011" lon="5.45165">
        <ele>559.4</ele>
        <time>2021-09-03T10:44:11Z</time>
      </trkpt>
      <trkpt lat="44.69007" lon="5.45177">
        <ele>559.5</ele>
        <time>2021-09-03T10:44:13Z</time>
      </trkpt>
      <trkpt lat="44.69006" lon="5.45181">
        <ele>559.5</ele>
        <time>2021-09-03T10:44:14Z</time>
      </trkpt>
      <trkpt lat="44.69005" lon="5.4519">
        <ele>559.6</ele>
        <time>2021-09-03T10:44:16Z</time>
      </trkpt>
      <trkpt lat="44.69003" lon="5.45199">
        <ele>559.6</ele>
        <time>2021-09-03T10:44:17Z</time>
      </trkpt>
      <trkpt lat="44.69001" lon="5.45207">
        <ele>559.7</ele>
        <time>2021-09-03T10:44:19Z</time>
      </trkpt>
      <trkpt lat="44.69" lon="5.45214">
        <ele>559.8</ele>
        <time>2021-09-03T10:44:20Z</time>
      </trkpt>
      <trkpt lat="44.69" lon="5.4522">
        <ele>559.8</ele>
        <time>2021-09-03T10:44:21Z</time>
      </trkpt>
      <trkpt lat="44.68999" lon="5.4523">
        <ele>559.9</ele>
        <time>2021-09-03T10:44:23Z</time>
      </trkpt>
      <trkpt lat="44.68998" lon="5.45241">
        <ele>560</ele>
        <time>2021-09-03T10:44:25Z</time>
      </trkpt>
      <trkpt lat="44.68997" lon="5.45249">
        <ele>560</ele>
        <time>2021-09-03T10:44:26Z</time>
      </trkpt>
      <trkpt lat="44.68996" lon="5.45256">
        <ele>560.1</ele>
        <time>2021-09-03T10:44:27Z</time>
      </trkpt>
      <trkpt lat="44.68995" lon="5.45265">
        <ele>560.2</ele>
        <time>2021-09-03T10:44:29Z</time>
      </trkpt>
      <trkpt lat="44.68992" lon="5.45275">
        <ele>560.1</ele>
        <time>2021-09-03T10:44:31Z</time>
      </trkpt>
      <trkpt lat="44.68989" lon="5.45283">
        <ele>560</ele>
        <time>2021-09-03T10:44:32Z</time>
      </trkpt>
      <trkpt lat="44.68986" lon="5.45293">
        <ele>560</ele>
        <time>2021-09-03T10:44:34Z</time>
      </trkpt>
      <trkpt lat="44.68984" lon="5.45302">
        <ele>560</ele>
        <time>2021-09-03T10:44:36Z</time>
      </trkpt>
      <trkpt lat="44.68982" lon="5.45309">
        <ele>560</ele>
        <time>2021-09-03T10:44:37Z</time>
      </trkpt>
      <trkpt lat="44.68979" lon="5.45319">
        <ele>560.1</ele>
        <time>2021-09-03T10:44:39Z</time>
      </trkpt>
      <trkpt lat="44.68977" lon="5.45328">
        <ele>560.2</ele>
        <time>2021-09-03T10:44:41Z</time>
      </trkpt>
      <trkpt lat="44.68976" lon="5.45334">
        <ele>560.3</ele>
        <time>2021-09-03T10:44:42Z</time>
      </trkpt>
      <trkpt lat="44.68974" lon="5.45343">
        <ele>560.5</ele>
        <time>2021-09-03T10:44:44Z</time>
      </trkpt>
      <trkpt lat="44.68973" lon="5.45351">
        <ele>560.7</ele>
        <time>2021-09-03T10:44:46Z</time>
      </trkpt>
      <trkpt lat="44.68973" lon="5.45358">
        <ele>560.9</ele>
        <time>2021-09-03T10:44:47Z</time>
      </trkpt>
      <trkpt lat="44.68974" lon="5.45365">
        <ele>561.1</ele>
        <time>2021-09-03T10:44:49Z</time>
      </trkpt>
      <trkpt lat="44.68974" lon="5.45371">
        <ele>561.3</ele>
        <time>2021-09-03T10:44:51Z</time>
      </trkpt>
      <trkpt lat="44.68973" lon="5.45375">
        <ele>561.4</ele>
        <time>2021-09-03T10:44:52Z</time>
      </trkpt>
      <trkpt lat="44.68973" lon="5.4538">
        <ele>561.5</ele>
        <time>2021-09-03T10:44:53Z</time>
      </trkpt>
      <trkpt lat="44.68972" lon="5.45384">
        <ele>561.6</ele>
        <time>2021-09-03T10:44:54Z</time>
      </trkpt>
      <trkpt lat="44.68971" lon="5.45391">
        <ele>561.7</ele>
        <time>2021-09-03T10:44:56Z</time>
      </trkpt>
      <trkpt lat="44.6897" lon="5.45397">
        <ele>561.7</ele>
        <time>2021-09-03T10:44:58Z</time>
      </trkpt>
      <trkpt lat="44.68969" lon="5.45403">
        <ele>561.8</ele>
        <time>2021-09-03T10:44:59Z</time>
      </trkpt>
      <trkpt lat="44.68968" lon="5.4541">
        <ele>561.9</ele>
        <time>2021-09-03T10:45:01Z</time>
      </trkpt>
      <trkpt lat="44.68967" lon="5.45416">
        <ele>561.9</ele>
        <time>2021-09-03T10:45:02Z</time>
      </trkpt>
      <trkpt lat="44.68966" lon="5.45421">
        <ele>561.9</ele>
        <time>2021-09-03T10:45:03Z</time>
      </trkpt>
      <trkpt lat="44.68965" lon="5.45426">
        <ele>561.9</ele>
        <time>2021-09-03T10:45:05Z</time>
      </trkpt>
      <trkpt lat="44.68963" lon="5.45431">
        <ele>561.9</ele>
        <time>2021-09-03T10:45:06Z</time>
      </trkpt>
      <trkpt lat="44.68961" lon="5.45439">
        <ele>561.9</ele>
        <time>2021-09-03T10:45:08Z</time>
      </trkpt>
      <trkpt lat="44.68959" lon="5.45444">
        <ele>561.8</ele>
        <time>2021-09-03T10:45:09Z</time>
      </trkpt>
      <trkpt lat="44.68957" lon="5.45451">
        <ele>561.7</ele>
        <time>2021-09-03T10:45:10Z</time>
      </trkpt>
      <trkpt lat="44.68953" lon="5.45458">
        <ele>561.5</ele>
        <time>2021-09-03T10:45:11Z</time>
      </trkpt>
      <trkpt lat="44.68947" lon="5.4547">
        <ele>561.1</ele>
        <time>2021-09-03T10:45:13Z</time>
      </trkpt>
      <trkpt lat="44.68943" lon="5.45484">
        <ele>560.8</ele>
        <time>2021-09-03T10:45:15Z</time>
      </trkpt>
      <trkpt lat="44.68941" lon="5.45492">
        <ele>560.6</ele>
        <time>2021-09-03T10:45:16Z</time>
      </trkpt>
      <trkpt lat="44.68937" lon="5.45508">
        <ele>560.3</ele>
        <time>2021-09-03T10:45:18Z</time>
      </trkpt>
      <trkpt lat="44.68936" lon="5.45517">
        <ele>560.2</ele>
        <time>2021-09-03T10:45:19Z</time>
      </trkpt>
      <trkpt lat="44.68935" lon="5.45532">
        <ele>560.1</ele>
        <time>2021-09-03T10:45:21Z</time>
      </trkpt>
      <trkpt lat="44.68935" lon="5.4554">
        <ele>560.1</ele>
        <time>2021-09-03T10:45:22Z</time>
      </trkpt>
      <trkpt lat="44.68934" lon="5.45548">
        <ele>560.1</ele>
        <time>2021-09-03T10:45:23Z</time>
      </trkpt>
      <trkpt lat="44.68934" lon="5.45564">
        <ele>560.1</ele>
        <time>2021-09-03T10:45:25Z</time>
      </trkpt>
      <trkpt lat="44.68935" lon="5.45579">
        <ele>560.1</ele>
        <time>2021-09-03T10:45:27Z</time>
      </trkpt>
      <trkpt lat="44.68934" lon="5.45594">
        <ele>560.1</ele>
        <time>2021-09-03T10:45:29Z</time>
      </trkpt>
      <trkpt lat="44.68933" lon="5.45609">
        <ele>560</ele>
        <time>2021-09-03T10:45:31Z</time>
      </trkpt>
      <trkpt lat="44.68932" lon="5.45623">
        <ele>560</ele>
        <time>2021-09-03T10:45:33Z</time>
      </trkpt>
      <trkpt lat="44.68932" lon="5.45627">
        <ele>560</ele>
        <time>2021-09-03T10:45:34Z</time>
      </trkpt>
      <trkpt lat="44.68931" lon="5.45634">
        <ele>560</ele>
        <time>2021-09-03T10:45:35Z</time>
      </trkpt>
      <trkpt lat="44.68931" lon="5.45642">
        <ele>560</ele>
        <time>2021-09-03T10:45:36Z</time>
      </trkpt>
      <trkpt lat="44.6893" lon="5.45649">
        <ele>560</ele>
        <time>2021-09-03T10:45:37Z</time>
      </trkpt>
      <trkpt lat="44.68929" lon="5.45664">
        <ele>559.9</ele>
        <time>2021-09-03T10:45:39Z</time>
      </trkpt>
      <trkpt lat="44.68929" lon="5.45675">
        <ele>559.9</ele>
        <time>2021-09-03T10:45:41Z</time>
      </trkpt>
      <trkpt lat="44.68929" lon="5.45684">
        <ele>559.8</ele>
        <time>2021-09-03T10:45:42Z</time>
      </trkpt>
      <trkpt lat="44.68928" lon="5.45692">
        <ele>559.7</ele>
        <time>2021-09-03T10:45:43Z</time>
      </trkpt>
      <trkpt lat="44.68928" lon="5.45707">
        <ele>559.5</ele>
        <time>2021-09-03T10:45:45Z</time>
      </trkpt>
      <trkpt lat="44.68927" lon="5.45714">
        <ele>559.4</ele>
        <time>2021-09-03T10:45:46Z</time>
      </trkpt>
      <trkpt lat="44.68928" lon="5.45729">
        <ele>559.1</ele>
        <time>2021-09-03T10:45:48Z</time>
      </trkpt>
      <trkpt lat="44.68929" lon="5.45746">
        <ele>558.8</ele>
        <time>2021-09-03T10:45:50Z</time>
      </trkpt>
      <trkpt lat="44.68932" lon="5.45763">
        <ele>558.4</ele>
        <time>2021-09-03T10:45:52Z</time>
      </trkpt>
      <trkpt lat="44.68934" lon="5.45779">
        <ele>557.8</ele>
        <time>2021-09-03T10:45:54Z</time>
      </trkpt>
      <trkpt lat="44.68934" lon="5.45789">
        <ele>557.5</ele>
        <time>2021-09-03T10:45:55Z</time>
      </trkpt>
      <trkpt lat="44.68934" lon="5.45811">
        <ele>556.6</ele>
        <time>2021-09-03T10:45:57Z</time>
      </trkpt>
      <trkpt lat="44.68934" lon="5.45823">
        <ele>556.3</ele>
        <time>2021-09-03T10:45:58Z</time>
      </trkpt>
      <trkpt lat="44.68935" lon="5.45835">
        <ele>555.9</ele>
        <time>2021-09-03T10:45:59Z</time>
      </trkpt>
      <trkpt lat="44.68937" lon="5.45859">
        <ele>555.4</ele>
        <time>2021-09-03T10:46:01Z</time>
      </trkpt>
      <trkpt lat="44.6894" lon="5.45884">
        <ele>554.9</ele>
        <time>2021-09-03T10:46:03Z</time>
      </trkpt>
      <trkpt lat="44.68943" lon="5.45907">
        <ele>554.6</ele>
        <time>2021-09-03T10:46:05Z</time>
      </trkpt>
      <trkpt lat="44.68947" lon="5.45931">
        <ele>554.5</ele>
        <time>2021-09-03T10:46:07Z</time>
      </trkpt>
      <trkpt lat="44.6895" lon="5.45953">
        <ele>554.5</ele>
        <time>2021-09-03T10:46:09Z</time>
      </trkpt>
      <trkpt lat="44.68951" lon="5.45963">
        <ele>554.5</ele>
        <time>2021-09-03T10:46:10Z</time>
      </trkpt>
      <trkpt lat="44.68952" lon="5.45972">
        <ele>554.5</ele>
        <time>2021-09-03T10:46:11Z</time>
      </trkpt>
      <trkpt lat="44.68953" lon="5.45989">
        <ele>554.4</ele>
        <time>2021-09-03T10:46:13Z</time>
      </trkpt>
      <trkpt lat="44.68953" lon="5.45998">
        <ele>554.2</ele>
        <time>2021-09-03T10:46:14Z</time>
      </trkpt>
      <trkpt lat="44.68954" lon="5.46015">
        <ele>554</ele>
        <time>2021-09-03T10:46:16Z</time>
      </trkpt>
      <trkpt lat="44.68955" lon="5.46032">
        <ele>553.6</ele>
        <time>2021-09-03T10:46:18Z</time>
      </trkpt>
      <trkpt lat="44.68955" lon="5.46048">
        <ele>553.4</ele>
        <time>2021-09-03T10:46:20Z</time>
      </trkpt>
      <trkpt lat="44.68957" lon="5.46064">
        <ele>553.2</ele>
        <time>2021-09-03T10:46:22Z</time>
      </trkpt>
      <trkpt lat="44.68958" lon="5.46072">
        <ele>553.1</ele>
        <time>2021-09-03T10:46:23Z</time>
      </trkpt>
      <trkpt lat="44.6896" lon="5.46089">
        <ele>553</ele>
        <time>2021-09-03T10:46:25Z</time>
      </trkpt>
      <trkpt lat="44.68963" lon="5.46106">
        <ele>552.8</ele>
        <time>2021-09-03T10:46:27Z</time>
      </trkpt>
      <trkpt lat="44.68964" lon="5.46114">
        <ele>552.7</ele>
        <time>2021-09-03T10:46:28Z</time>
      </trkpt>
      <trkpt lat="44.68965" lon="5.46123">
        <ele>552.6</ele>
        <time>2021-09-03T10:46:29Z</time>
      </trkpt>
      <trkpt lat="44.68966" lon="5.46142">
        <ele>552.4</ele>
        <time>2021-09-03T10:46:31Z</time>
      </trkpt>
      <trkpt lat="44.68967" lon="5.46158">
        <ele>552.3</ele>
        <time>2021-09-03T10:46:33Z</time>
      </trkpt>
      <trkpt lat="44.68969" lon="5.46175">
        <ele>552.1</ele>
        <time>2021-09-03T10:46:35Z</time>
      </trkpt>
      <trkpt lat="44.68971" lon="5.46193">
        <ele>551.9</ele>
        <time>2021-09-03T10:46:37Z</time>
      </trkpt>
      <trkpt lat="44.68973" lon="5.46211">
        <ele>551.5</ele>
        <time>2021-09-03T10:46:39Z</time>
      </trkpt>
      <trkpt lat="44.68974" lon="5.46231">
        <ele>551.1</ele>
        <time>2021-09-03T10:46:41Z</time>
      </trkpt>
      <trkpt lat="44.68975" lon="5.46241">
        <ele>550.9</ele>
        <time>2021-09-03T10:46:42Z</time>
      </trkpt>
      <trkpt lat="44.68976" lon="5.46262">
        <ele>550.4</ele>
        <time>2021-09-03T10:46:44Z</time>
      </trkpt>
      <trkpt lat="44.68976" lon="5.46272">
        <ele>550.3</ele>
        <time>2021-09-03T10:46:45Z</time>
      </trkpt>
      <trkpt lat="44.68976" lon="5.46283">
        <ele>550.1</ele>
        <time>2021-09-03T10:46:46Z</time>
      </trkpt>
      <trkpt lat="44.68977" lon="5.46293">
        <ele>550</ele>
        <time>2021-09-03T10:46:47Z</time>
      </trkpt>
      <trkpt lat="44.68978" lon="5.46303">
        <ele>549.8</ele>
        <time>2021-09-03T10:46:48Z</time>
      </trkpt>
      <trkpt lat="44.68982" lon="5.46322">
        <ele>549.6</ele>
        <time>2021-09-03T10:46:50Z</time>
      </trkpt>
      <trkpt lat="44.68985" lon="5.46343">
        <ele>549.5</ele>
        <time>2021-09-03T10:46:52Z</time>
      </trkpt>
      <trkpt lat="44.68986" lon="5.46353">
        <ele>549.5</ele>
        <time>2021-09-03T10:46:53Z</time>
      </trkpt>
      <trkpt lat="44.6899" lon="5.46373">
        <ele>549.3</ele>
        <time>2021-09-03T10:46:55Z</time>
      </trkpt>
      <trkpt lat="44.68995" lon="5.46392">
        <ele>549.3</ele>
        <time>2021-09-03T10:46:57Z</time>
      </trkpt>
      <trkpt lat="44.69001" lon="5.46409">
        <ele>549.3</ele>
        <time>2021-09-03T10:46:59Z</time>
      </trkpt>
      <trkpt lat="44.69006" lon="5.46425">
        <ele>549.3</ele>
        <time>2021-09-03T10:47:01Z</time>
      </trkpt>
      <trkpt lat="44.69012" lon="5.46442">
        <ele>549.3</ele>
        <time>2021-09-03T10:47:03Z</time>
      </trkpt>
      <trkpt lat="44.69015" lon="5.4645">
        <ele>549.3</ele>
        <time>2021-09-03T10:47:04Z</time>
      </trkpt>
      <trkpt lat="44.6902" lon="5.46467">
        <ele>549.4</ele>
        <time>2021-09-03T10:47:06Z</time>
      </trkpt>
      <trkpt lat="44.69025" lon="5.46483">
        <ele>549.6</ele>
        <time>2021-09-03T10:47:08Z</time>
      </trkpt>
      <trkpt lat="44.6903" lon="5.46498">
        <ele>549.7</ele>
        <time>2021-09-03T10:47:10Z</time>
      </trkpt>
      <trkpt lat="44.69032" lon="5.46506">
        <ele>549.7</ele>
        <time>2021-09-03T10:47:11Z</time>
      </trkpt>
      <trkpt lat="44.69035" lon="5.46521">
        <ele>549.7</ele>
        <time>2021-09-03T10:47:13Z</time>
      </trkpt>
      <trkpt lat="44.69037" lon="5.46535">
        <ele>549.8</ele>
        <time>2021-09-03T10:47:15Z</time>
      </trkpt>
      <trkpt lat="44.69038" lon="5.46542">
        <ele>549.8</ele>
        <time>2021-09-03T10:47:16Z</time>
      </trkpt>
      <trkpt lat="44.69038" lon="5.46557">
        <ele>549.8</ele>
        <time>2021-09-03T10:47:18Z</time>
      </trkpt>
      <trkpt lat="44.69037" lon="5.46564">
        <ele>549.9</ele>
        <time>2021-09-03T10:47:19Z</time>
      </trkpt>
      <trkpt lat="44.69037" lon="5.4658">
        <ele>550</ele>
        <time>2021-09-03T10:47:21Z</time>
      </trkpt>
      <trkpt lat="44.69038" lon="5.46587">
        <ele>550.1</ele>
        <time>2021-09-03T10:47:22Z</time>
      </trkpt>
      <trkpt lat="44.69038" lon="5.46594">
        <ele>550.1</ele>
        <time>2021-09-03T10:47:23Z</time>
      </trkpt>
      <trkpt lat="44.69039" lon="5.46609">
        <ele>550.3</ele>
        <time>2021-09-03T10:47:25Z</time>
      </trkpt>
      <trkpt lat="44.6904" lon="5.46624">
        <ele>550.6</ele>
        <time>2021-09-03T10:47:27Z</time>
      </trkpt>
      <trkpt lat="44.69041" lon="5.4663">
        <ele>550.7</ele>
        <time>2021-09-03T10:47:28Z</time>
      </trkpt>
      <trkpt lat="44.69042" lon="5.4664">
        <ele>550.9</ele>
        <time>2021-09-03T10:47:30Z</time>
      </trkpt>
      <trkpt lat="44.69044" lon="5.46645">
        <ele>551</ele>
        <time>2021-09-03T10:47:31Z</time>
      </trkpt>
      <trkpt lat="44.69046" lon="5.46656">
        <ele>551</ele>
        <time>2021-09-03T10:47:33Z</time>
      </trkpt>
      <trkpt lat="44.69046" lon="5.46661">
        <ele>551</ele>
        <time>2021-09-03T10:47:34Z</time>
      </trkpt>
      <trkpt lat="44.69049" lon="5.46673">
        <ele>550.9</ele>
        <time>2021-09-03T10:47:36Z</time>
      </trkpt>
      <trkpt lat="44.6905" lon="5.46677">
        <ele>550.8</ele>
        <time>2021-09-03T10:47:37Z</time>
      </trkpt>
      <trkpt lat="44.69053" lon="5.46691">
        <ele>550.7</ele>
        <time>2021-09-03T10:47:39Z</time>
      </trkpt>
      <trkpt lat="44.69056" lon="5.46704">
        <ele>550.7</ele>
        <time>2021-09-03T10:47:41Z</time>
      </trkpt>
      <trkpt lat="44.69056" lon="5.4671">
        <ele>550.7</ele>
        <time>2021-09-03T10:47:42Z</time>
      </trkpt>
      <trkpt lat="44.6906" lon="5.4672">
        <ele>550.7</ele>
        <time>2021-09-03T10:47:44Z</time>
      </trkpt>
      <trkpt lat="44.69063" lon="5.46723">
        <ele>550.7</ele>
        <time>2021-09-03T10:47:45Z</time>
      </trkpt>
      <trkpt lat="44.69065" lon="5.46728">
        <ele>550.7</ele>
        <time>2021-09-03T10:47:46Z</time>
      </trkpt>
      <trkpt lat="44.6907" lon="5.46738">
        <ele>550.8</ele>
        <time>2021-09-03T10:47:48Z</time>
      </trkpt>
      <trkpt lat="44.69075" lon="5.4675">
        <ele>550.9</ele>
        <time>2021-09-03T10:47:50Z</time>
      </trkpt>
      <trkpt lat="44.69077" lon="5.46757">
        <ele>550.9</ele>
        <time>2021-09-03T10:47:51Z</time>
      </trkpt>
      <trkpt lat="44.69079" lon="5.46764">
        <ele>551</ele>
        <time>2021-09-03T10:47:52Z</time>
      </trkpt>
      <trkpt lat="44.69082" lon="5.46776">
        <ele>551</ele>
        <time>2021-09-03T10:47:54Z</time>
      </trkpt>
      <trkpt lat="44.69086" lon="5.46781">
        <ele>551.1</ele>
        <time>2021-09-03T10:47:56Z</time>
      </trkpt>
      <trkpt lat="44.6909" lon="5.46792">
        <ele>551.1</ele>
        <time>2021-09-03T10:47:57Z</time>
      </trkpt>
      <trkpt lat="44.6909" lon="5.46798">
        <ele>551.2</ele>
        <time>2021-09-03T10:47:58Z</time>
      </trkpt>
      <trkpt lat="44.69093" lon="5.46805">
        <ele>551.2</ele>
        <time>2021-09-03T10:47:59Z</time>
      </trkpt>
      <trkpt lat="44.69097" lon="5.46816">
        <ele>551.3</ele>
        <time>2021-09-03T10:48:01Z</time>
      </trkpt>
      <trkpt lat="44.691" lon="5.46826">
        <ele>551.3</ele>
        <time>2021-09-03T10:48:03Z</time>
      </trkpt>
      <trkpt lat="44.69102" lon="5.46838">
        <ele>551.4</ele>
        <time>2021-09-03T10:48:05Z</time>
      </trkpt>
      <trkpt lat="44.69104" lon="5.46847">
        <ele>551.4</ele>
        <time>2021-09-03T10:48:06Z</time>
      </trkpt>
      <trkpt lat="44.69106" lon="5.46855">
        <ele>551.4</ele>
        <time>2021-09-03T10:48:08Z</time>
      </trkpt>
      <trkpt lat="44.69109" lon="5.46861">
        <ele>551.5</ele>
        <time>2021-09-03T10:48:09Z</time>
      </trkpt>
      <trkpt lat="44.69111" lon="5.46867">
        <ele>551.5</ele>
        <time>2021-09-03T10:48:10Z</time>
      </trkpt>
      <trkpt lat="44.69115" lon="5.46872">
        <ele>551.5</ele>
        <time>2021-09-03T10:48:11Z</time>
      </trkpt>
      <trkpt lat="44.69119" lon="5.46879">
        <ele>551.6</ele>
        <time>2021-09-03T10:48:13Z</time>
      </trkpt>
      <trkpt lat="44.69124" lon="5.46885">
        <ele>551.7</ele>
        <time>2021-09-03T10:48:15Z</time>
      </trkpt>
      <trkpt lat="44.69126" lon="5.4689">
        <ele>551.8</ele>
        <time>2021-09-03T10:48:16Z</time>
      </trkpt>
      <trkpt lat="44.69127" lon="5.46895">
        <ele>551.9</ele>
        <time>2021-09-03T10:48:17Z</time>
      </trkpt>
      <trkpt lat="44.69128" lon="5.469">
        <ele>552</ele>
        <time>2021-09-03T10:48:18Z</time>
      </trkpt>
      <trkpt lat="44.69127" lon="5.46904">
        <ele>552</ele>
        <time>2021-09-03T10:48:20Z</time>
      </trkpt>
      <trkpt lat="44.69124" lon="5.46908">
        <ele>551.9</ele>
        <time>2021-09-03T10:48:21Z</time>
      </trkpt>
      <trkpt lat="44.6912" lon="5.46911">
        <ele>551.8</ele>
        <time>2021-09-03T10:48:22Z</time>
      </trkpt>
      <trkpt lat="44.69116" lon="5.46914">
        <ele>551.8</ele>
        <time>2021-09-03T10:48:23Z</time>
      </trkpt>
      <trkpt lat="44.69106" lon="5.46918">
        <ele>551.6</ele>
        <time>2021-09-03T10:48:25Z</time>
      </trkpt>
      <trkpt lat="44.691" lon="5.46921">
        <ele>551.5</ele>
        <time>2021-09-03T10:48:26Z</time>
      </trkpt>
      <trkpt lat="44.69096" lon="5.46924">
        <ele>551.4</ele>
        <time>2021-09-03T10:48:27Z</time>
      </trkpt>
      <trkpt lat="44.69091" lon="5.46928">
        <ele>551.3</ele>
        <time>2021-09-03T10:48:28Z</time>
      </trkpt>
      <trkpt lat="44.69087" lon="5.46932">
        <ele>551.3</ele>
        <time>2021-09-03T10:48:30Z</time>
      </trkpt>
      <trkpt lat="44.69083" lon="5.46936">
        <ele>551.2</ele>
        <time>2021-09-03T10:48:31Z</time>
      </trkpt>
      <trkpt lat="44.6908" lon="5.4694">
        <ele>551.1</ele>
        <time>2021-09-03T10:48:32Z</time>
      </trkpt>
      <trkpt lat="44.69077" lon="5.46946">
        <ele>551.1</ele>
        <time>2021-09-03T10:48:33Z</time>
      </trkpt>
      <trkpt lat="44.69074" lon="5.46951">
        <ele>551</ele>
        <time>2021-09-03T10:48:35Z</time>
      </trkpt>
      <trkpt lat="44.69071" lon="5.46958">
        <ele>550.9</ele>
        <time>2021-09-03T10:48:37Z</time>
      </trkpt>
      <trkpt lat="44.69069" lon="5.46962">
        <ele>550.9</ele>
        <time>2021-09-03T10:48:38Z</time>
      </trkpt>
      <trkpt lat="44.69065" lon="5.46967">
        <ele>550.8</ele>
        <time>2021-09-03T10:48:40Z</time>
      </trkpt>
      <trkpt lat="44.69061" lon="5.4697">
        <ele>550.8</ele>
        <time>2021-09-03T10:48:41Z</time>
      </trkpt>
      <trkpt lat="44.6906" lon="5.46971">
        <ele>550.8</ele>
        <time>2021-09-03T10:48:42Z</time>
      </trkpt>
      <trkpt lat="44.69058" lon="5.46973">
        <ele>550.7</ele>
        <time>2021-09-03T10:48:43Z</time>
      </trkpt>
      <trkpt lat="44.69056" lon="5.46976">
        <ele>550.7</ele>
        <time>2021-09-03T10:48:44Z</time>
      </trkpt>
      <trkpt lat="44.69054" lon="5.46978">
        <ele>550.7</ele>
        <time>2021-09-03T10:48:45Z</time>
      </trkpt>
      <trkpt lat="44.69051" lon="5.46983">
        <ele>550.6</ele>
        <time>2021-09-03T10:48:47Z</time>
      </trkpt>
      <trkpt lat="44.69047" lon="5.46987">
        <ele>550.6</ele>
        <time>2021-09-03T10:48:48Z</time>
      </trkpt>
      <trkpt lat="44.69044" lon="5.46991">
        <ele>550.5</ele>
        <time>2021-09-03T10:48:49Z</time>
      </trkpt>
      <trkpt lat="44.6904" lon="5.46996">
        <ele>550.4</ele>
        <time>2021-09-03T10:48:51Z</time>
      </trkpt>
      <trkpt lat="44.69037" lon="5.47">
        <ele>550.4</ele>
        <time>2021-09-03T10:48:52Z</time>
      </trkpt>
      <trkpt lat="44.69033" lon="5.47005">
        <ele>550.4</ele>
        <time>2021-09-03T10:48:54Z</time>
      </trkpt>
      <trkpt lat="44.69031" lon="5.47008">
        <ele>550.4</ele>
        <time>2021-09-03T10:48:55Z</time>
      </trkpt>
      <trkpt lat="44.69026" lon="5.47014">
        <ele>550.3</ele>
        <time>2021-09-03T10:48:57Z</time>
      </trkpt>
      <trkpt lat="44.69022" lon="5.47018">
        <ele>550.3</ele>
        <time>2021-09-03T10:48:58Z</time>
      </trkpt>
      <trkpt lat="44.69012" lon="5.47026">
        <ele>550.2</ele>
        <time>2021-09-03T10:49:00Z</time>
      </trkpt>
      <trkpt lat="44.69008" lon="5.47029">
        <ele>550.2</ele>
        <time>2021-09-03T10:49:01Z</time>
      </trkpt>
      <trkpt lat="44.69003" lon="5.47036">
        <ele>550.2</ele>
        <time>2021-09-03T10:49:03Z</time>
      </trkpt>
      <trkpt lat="44.69" lon="5.4704">
        <ele>550.1</ele>
        <time>2021-09-03T10:49:04Z</time>
      </trkpt>
      <trkpt lat="44.68995" lon="5.47044">
        <ele>550.1</ele>
        <time>2021-09-03T10:49:05Z</time>
      </trkpt>
      <trkpt lat="44.68991" lon="5.47048">
        <ele>550.1</ele>
        <time>2021-09-03T10:49:07Z</time>
      </trkpt>
      <trkpt lat="44.68987" lon="5.47053">
        <ele>550</ele>
        <time>2021-09-03T10:49:08Z</time>
      </trkpt>
      <trkpt lat="44.68984" lon="5.47057">
        <ele>549.9</ele>
        <time>2021-09-03T10:49:09Z</time>
      </trkpt>
      <trkpt lat="44.68981" lon="5.47063">
        <ele>549.9</ele>
        <time>2021-09-03T10:49:11Z</time>
      </trkpt>
      <trkpt lat="44.68976" lon="5.47067">
        <ele>549.9</ele>
        <time>2021-09-03T10:49:12Z</time>
      </trkpt>
      <trkpt lat="44.68973" lon="5.47072">
        <ele>549.8</ele>
        <time>2021-09-03T10:49:13Z</time>
      </trkpt>
      <trkpt lat="44.68966" lon="5.47082">
        <ele>549.9</ele>
        <time>2021-09-03T10:49:15Z</time>
      </trkpt>
      <trkpt lat="44.68961" lon="5.47095">
        <ele>550</ele>
        <time>2021-09-03T10:49:17Z</time>
      </trkpt>
      <trkpt lat="44.68959" lon="5.47108">
        <ele>550.1</ele>
        <time>2021-09-03T10:49:19Z</time>
      </trkpt>
      <trkpt lat="44.6896" lon="5.47112">
        <ele>550.2</ele>
        <time>2021-09-03T10:49:20Z</time>
      </trkpt>
      <trkpt lat="44.6896" lon="5.47119">
        <ele>550.2</ele>
        <time>2021-09-03T10:49:22Z</time>
      </trkpt>
      <trkpt lat="44.68962" lon="5.47126">
        <ele>550.3</ele>
        <time>2021-09-03T10:49:23Z</time>
      </trkpt>
      <trkpt lat="44.68965" lon="5.47132">
        <ele>550.4</ele>
        <time>2021-09-03T10:49:24Z</time>
      </trkpt>
      <trkpt lat="44.68967" lon="5.47138">
        <ele>550.4</ele>
        <time>2021-09-03T10:49:25Z</time>
      </trkpt>
      <trkpt lat="44.68971" lon="5.47143">
        <ele>550.5</ele>
        <time>2021-09-03T10:49:26Z</time>
      </trkpt>
      <trkpt lat="44.68978" lon="5.47155">
        <ele>550.7</ele>
        <time>2021-09-03T10:49:28Z</time>
      </trkpt>
      <trkpt lat="44.68983" lon="5.4716">
        <ele>550.8</ele>
        <time>2021-09-03T10:49:29Z</time>
      </trkpt>
      <trkpt lat="44.68988" lon="5.47165">
        <ele>550.8</ele>
        <time>2021-09-03T10:49:31Z</time>
      </trkpt>
      <trkpt lat="44.68992" lon="5.47173">
        <ele>550.9</ele>
        <time>2021-09-03T10:49:32Z</time>
      </trkpt>
      <trkpt lat="44.68999" lon="5.47185">
        <ele>551.1</ele>
        <time>2021-09-03T10:49:34Z</time>
      </trkpt>
      <trkpt lat="44.69003" lon="5.4719">
        <ele>551.1</ele>
        <time>2021-09-03T10:49:35Z</time>
      </trkpt>
      <trkpt lat="44.69009" lon="5.47202">
        <ele>551.3</ele>
        <time>2021-09-03T10:49:37Z</time>
      </trkpt>
      <trkpt lat="44.69017" lon="5.47215">
        <ele>551.4</ele>
        <time>2021-09-03T10:49:39Z</time>
      </trkpt>
      <trkpt lat="44.69019" lon="5.47221">
        <ele>551.4</ele>
        <time>2021-09-03T10:49:40Z</time>
      </trkpt>
      <trkpt lat="44.69022" lon="5.47227">
        <ele>551.5</ele>
        <time>2021-09-03T10:49:41Z</time>
      </trkpt>
      <trkpt lat="44.69027" lon="5.4724">
        <ele>551.7</ele>
        <time>2021-09-03T10:49:43Z</time>
      </trkpt>
      <trkpt lat="44.6903" lon="5.47246">
        <ele>551.7</ele>
        <time>2021-09-03T10:49:44Z</time>
      </trkpt>
      <trkpt lat="44.69032" lon="5.47255">
        <ele>551.8</ele>
        <time>2021-09-03T10:49:46Z</time>
      </trkpt>
      <trkpt lat="44.69036" lon="5.47262">
        <ele>551.9</ele>
        <time>2021-09-03T10:49:47Z</time>
      </trkpt>
      <trkpt lat="44.69039" lon="5.47267">
        <ele>552</ele>
        <time>2021-09-03T10:49:48Z</time>
      </trkpt>
      <trkpt lat="44.69044" lon="5.47269">
        <ele>552.1</ele>
        <time>2021-09-03T10:49:49Z</time>
      </trkpt>
      <trkpt lat="44.69052" lon="5.47269">
        <ele>552.2</ele>
        <time>2021-09-03T10:49:51Z</time>
      </trkpt>
      <trkpt lat="44.69055" lon="5.47269">
        <ele>552.2</ele>
        <time>2021-09-03T10:49:52Z</time>
      </trkpt>
      <trkpt lat="44.69055" lon="5.47269">
        <ele>552.2</ele>
        <time>2021-09-03T10:49:53Z</time>
      </trkpt>
      <trkpt lat="44.69057" lon="5.4727">
        <ele>552.2</ele>
        <time>2021-09-03T10:49:55Z</time>
      </trkpt>
      <trkpt lat="44.69058" lon="5.47272">
        <ele>552.3</ele>
        <time>2021-09-03T10:49:57Z</time>
      </trkpt>
      <trkpt lat="44.69058" lon="5.47273">
        <ele>552.3</ele>
        <time>2021-09-03T10:49:58Z</time>
      </trkpt>
      <trkpt lat="44.69059" lon="5.47274">
        <ele>552.3</ele>
        <time>2021-09-03T10:49:59Z</time>
      </trkpt>
      <trkpt lat="44.69059" lon="5.47276">
        <ele>552.3</ele>
        <time>2021-09-03T10:50:01Z</time>
      </trkpt>
      <trkpt lat="44.6906" lon="5.47277">
        <ele>552.3</ele>
        <time>2021-09-03T10:50:02Z</time>
      </trkpt>
      <trkpt lat="44.69061" lon="5.47278">
        <ele>552.3</ele>
        <time>2021-09-03T10:50:04Z</time>
      </trkpt>
      <trkpt lat="44.69061" lon="5.4728">
        <ele>552.4</ele>
        <time>2021-09-03T10:50:16Z</time>
      </trkpt>
      <trkpt lat="44.69062" lon="5.47281">
        <ele>552.4</ele>
        <time>2021-09-03T10:50:17Z</time>
      </trkpt>
      <trkpt lat="44.69065" lon="5.47296">
        <ele>552.6</ele>
        <time>2021-09-03T10:50:19Z</time>
      </trkpt>
      <trkpt lat="44.69066" lon="5.4732">
        <ele>552.8</ele>
        <time>2021-09-03T10:50:20Z</time>
      </trkpt>
      <trkpt lat="44.69068" lon="5.47329">
        <ele>552.9</ele>
        <time>2021-09-03T10:50:21Z</time>
      </trkpt>
      <trkpt lat="44.69069" lon="5.47338">
        <ele>553</ele>
        <time>2021-09-03T10:50:22Z</time>
      </trkpt>
      <trkpt lat="44.69071" lon="5.47347">
        <ele>553.1</ele>
        <time>2021-09-03T10:50:23Z</time>
      </trkpt>
      <trkpt lat="44.69075" lon="5.47359">
        <ele>553.2</ele>
        <time>2021-09-03T10:50:25Z</time>
      </trkpt>
      <trkpt lat="44.69079" lon="5.47371">
        <ele>553.3</ele>
        <time>2021-09-03T10:50:27Z</time>
      </trkpt>
      <trkpt lat="44.69081" lon="5.47377">
        <ele>553.4</ele>
        <time>2021-09-03T10:50:28Z</time>
      </trkpt>
      <trkpt lat="44.69083" lon="5.47383">
        <ele>553.5</ele>
        <time>2021-09-03T10:50:29Z</time>
      </trkpt>
      <trkpt lat="44.69085" lon="5.47391">
        <ele>553.5</ele>
        <time>2021-09-03T10:50:31Z</time>
      </trkpt>
      <trkpt lat="44.69088" lon="5.47399">
        <ele>553.6</ele>
        <time>2021-09-03T10:50:32Z</time>
      </trkpt>
      <trkpt lat="44.69093" lon="5.47412">
        <ele>553.7</ele>
        <time>2021-09-03T10:50:34Z</time>
      </trkpt>
      <trkpt lat="44.69092" lon="5.47418">
        <ele>553.8</ele>
        <time>2021-09-03T10:50:36Z</time>
      </trkpt>
      <trkpt lat="44.69095" lon="5.47425">
        <ele>553.8</ele>
        <time>2021-09-03T10:50:37Z</time>
      </trkpt>
      <trkpt lat="44.69097" lon="5.47431">
        <ele>553.9</ele>
        <time>2021-09-03T10:50:38Z</time>
      </trkpt>
      <trkpt lat="44.69102" lon="5.47441">
        <ele>554</ele>
        <time>2021-09-03T10:50:39Z</time>
      </trkpt>
      <trkpt lat="44.69104" lon="5.47449">
        <ele>554.1</ele>
        <time>2021-09-03T10:50:40Z</time>
      </trkpt>
      <trkpt lat="44.69105" lon="5.47461">
        <ele>554.2</ele>
        <time>2021-09-03T10:50:42Z</time>
      </trkpt>
      <trkpt lat="44.69109" lon="5.47475">
        <ele>554.3</ele>
        <time>2021-09-03T10:50:44Z</time>
      </trkpt>
      <trkpt lat="44.69111" lon="5.47482">
        <ele>554.4</ele>
        <time>2021-09-03T10:50:45Z</time>
      </trkpt>
      <trkpt lat="44.69114" lon="5.47488">
        <ele>554.5</ele>
        <time>2021-09-03T10:50:46Z</time>
      </trkpt>
      <trkpt lat="44.69117" lon="5.47494">
        <ele>554.6</ele>
        <time>2021-09-03T10:50:47Z</time>
      </trkpt>
      <trkpt lat="44.69119" lon="5.475">
        <ele>554.7</ele>
        <time>2021-09-03T10:50:48Z</time>
      </trkpt>
      <trkpt lat="44.6912" lon="5.47505">
        <ele>554.8</ele>
        <time>2021-09-03T10:50:49Z</time>
      </trkpt>
      <trkpt lat="44.69122" lon="5.4751">
        <ele>554.9</ele>
        <time>2021-09-03T10:50:50Z</time>
      </trkpt>
      <trkpt lat="44.69124" lon="5.47516">
        <ele>555</ele>
        <time>2021-09-03T10:50:51Z</time>
      </trkpt>
      <trkpt lat="44.69126" lon="5.47525">
        <ele>555.2</ele>
        <time>2021-09-03T10:50:53Z</time>
      </trkpt>
      <trkpt lat="44.69128" lon="5.47534">
        <ele>555.2</ele>
        <time>2021-09-03T10:50:54Z</time>
      </trkpt>
      <trkpt lat="44.69134" lon="5.47549">
        <ele>555.4</ele>
        <time>2021-09-03T10:50:56Z</time>
      </trkpt>
      <trkpt lat="44.69137" lon="5.47554">
        <ele>555.4</ele>
        <time>2021-09-03T10:50:57Z</time>
      </trkpt>
      <trkpt lat="44.69139" lon="5.47558">
        <ele>555.5</ele>
        <time>2021-09-03T10:50:58Z</time>
      </trkpt>
      <trkpt lat="44.69142" lon="5.47564">
        <ele>555.6</ele>
        <time>2021-09-03T10:50:59Z</time>
      </trkpt>
      <trkpt lat="44.69147" lon="5.47574">
        <ele>555.8</ele>
        <time>2021-09-03T10:51:01Z</time>
      </trkpt>
      <trkpt lat="44.69155" lon="5.47592">
        <ele>556.3</ele>
        <time>2021-09-03T10:51:03Z</time>
      </trkpt>
      <trkpt lat="44.6916" lon="5.47608">
        <ele>556.8</ele>
        <time>2021-09-03T10:51:05Z</time>
      </trkpt>
      <trkpt lat="44.69162" lon="5.47615">
        <ele>557</ele>
        <time>2021-09-03T10:51:06Z</time>
      </trkpt>
      <trkpt lat="44.69166" lon="5.47629">
        <ele>557.4</ele>
        <time>2021-09-03T10:51:08Z</time>
      </trkpt>
      <trkpt lat="44.69168" lon="5.47636">
        <ele>557.6</ele>
        <time>2021-09-03T10:51:09Z</time>
      </trkpt>
      <trkpt lat="44.6917" lon="5.47644">
        <ele>557.9</ele>
        <time>2021-09-03T10:51:10Z</time>
      </trkpt>
      <trkpt lat="44.69174" lon="5.47659">
        <ele>558.3</ele>
        <time>2021-09-03T10:51:12Z</time>
      </trkpt>
      <trkpt lat="44.69175" lon="5.47662">
        <ele>558.4</ele>
        <time>2021-09-03T10:51:13Z</time>
      </trkpt>
      <trkpt lat="44.69177" lon="5.47665">
        <ele>558.6</ele>
        <time>2021-09-03T10:51:15Z</time>
      </trkpt>
      <trkpt lat="44.6918" lon="5.47671">
        <ele>558.8</ele>
        <time>2021-09-03T10:51:16Z</time>
      </trkpt>
      <trkpt lat="44.69181" lon="5.47677">
        <ele>559</ele>
        <time>2021-09-03T10:51:17Z</time>
      </trkpt>
      <trkpt lat="44.69183" lon="5.47687">
        <ele>559.3</ele>
        <time>2021-09-03T10:51:19Z</time>
      </trkpt>
      <trkpt lat="44.69185" lon="5.47695">
        <ele>559.5</ele>
        <time>2021-09-03T10:51:21Z</time>
      </trkpt>
      <trkpt lat="44.6919" lon="5.47703">
        <ele>559.8</ele>
        <time>2021-09-03T10:51:22Z</time>
      </trkpt>
      <trkpt lat="44.69193" lon="5.47708">
        <ele>560</ele>
        <time>2021-09-03T10:51:24Z</time>
      </trkpt>
      <trkpt lat="44.69194" lon="5.4771">
        <ele>560.1</ele>
        <time>2021-09-03T10:51:26Z</time>
      </trkpt>
      <trkpt lat="44.69195" lon="5.47711">
        <ele>560.2</ele>
        <time>2021-09-03T10:51:27Z</time>
      </trkpt>
      <trkpt lat="44.69196" lon="5.47714">
        <ele>560.3</ele>
        <time>2021-09-03T10:51:29Z</time>
      </trkpt>
      <trkpt lat="44.692" lon="5.47721">
        <ele>560.5</ele>
        <time>2021-09-03T10:51:34Z</time>
      </trkpt>
      <trkpt lat="44.69206" lon="5.4773">
        <ele>560.8</ele>
        <time>2021-09-03T10:51:36Z</time>
      </trkpt>
      <trkpt lat="44.69218" lon="5.47744">
        <ele>561.2</ele>
        <time>2021-09-03T10:51:38Z</time>
      </trkpt>
      <trkpt lat="44.69227" lon="5.47757">
        <ele>561.7</ele>
        <time>2021-09-03T10:51:40Z</time>
      </trkpt>
      <trkpt lat="44.69233" lon="5.47766">
        <ele>562</ele>
        <time>2021-09-03T10:51:41Z</time>
      </trkpt>
      <trkpt lat="44.69237" lon="5.47771">
        <ele>562.2</ele>
        <time>2021-09-03T10:51:42Z</time>
      </trkpt>
      <trkpt lat="44.69242" lon="5.47777">
        <ele>562.5</ele>
        <time>2021-09-03T10:51:44Z</time>
      </trkpt>
      <trkpt lat="44.69245" lon="5.47781">
        <ele>562.7</ele>
        <time>2021-09-03T10:51:45Z</time>
      </trkpt>
      <trkpt lat="44.69249" lon="5.47786">
        <ele>562.9</ele>
        <time>2021-09-03T10:51:46Z</time>
      </trkpt>
      <trkpt lat="44.69252" lon="5.4779">
        <ele>563</ele>
        <time>2021-09-03T10:51:47Z</time>
      </trkpt>
      <trkpt lat="44.69254" lon="5.47795">
        <ele>563.2</ele>
        <time>2021-09-03T10:51:48Z</time>
      </trkpt>
      <trkpt lat="44.69258" lon="5.47803">
        <ele>563.5</ele>
        <time>2021-09-03T10:51:50Z</time>
      </trkpt>
      <trkpt lat="44.69261" lon="5.47813">
        <ele>563.8</ele>
        <time>2021-09-03T10:51:52Z</time>
      </trkpt>
      <trkpt lat="44.69264" lon="5.47821">
        <ele>564</ele>
        <time>2021-09-03T10:51:54Z</time>
      </trkpt>
      <trkpt lat="44.69266" lon="5.47827">
        <ele>564.2</ele>
        <time>2021-09-03T10:51:56Z</time>
      </trkpt>
      <trkpt lat="44.69267" lon="5.47832">
        <ele>564.3</ele>
        <time>2021-09-03T10:51:57Z</time>
      </trkpt>
      <trkpt lat="44.69268" lon="5.47836">
        <ele>564.4</ele>
        <time>2021-09-03T10:51:58Z</time>
      </trkpt>
      <trkpt lat="44.69269" lon="5.47842">
        <ele>564.6</ele>
        <time>2021-09-03T10:52:00Z</time>
      </trkpt>
      <trkpt lat="44.69271" lon="5.47848">
        <ele>564.7</ele>
        <time>2021-09-03T10:52:01Z</time>
      </trkpt>
      <trkpt lat="44.69272" lon="5.47852">
        <ele>564.7</ele>
        <time>2021-09-03T10:52:02Z</time>
      </trkpt>
      <trkpt lat="44.69274" lon="5.47857">
        <ele>564.8</ele>
        <time>2021-09-03T10:52:04Z</time>
      </trkpt>
      <trkpt lat="44.69276" lon="5.47862">
        <ele>564.9</ele>
        <time>2021-09-03T10:52:06Z</time>
      </trkpt>
      <trkpt lat="44.69277" lon="5.47867">
        <ele>565.1</ele>
        <time>2021-09-03T10:52:08Z</time>
      </trkpt>
      <trkpt lat="44.69278" lon="5.47875">
        <ele>565.3</ele>
        <time>2021-09-03T10:52:10Z</time>
      </trkpt>
      <trkpt lat="44.69279" lon="5.4788">
        <ele>565.4</ele>
        <time>2021-09-03T10:52:11Z</time>
      </trkpt>
      <trkpt lat="44.6928" lon="5.47882">
        <ele>565.4</ele>
        <time>2021-09-03T10:52:12Z</time>
      </trkpt>
      <trkpt lat="44.69281" lon="5.47889">
        <ele>565.6</ele>
        <time>2021-09-03T10:52:14Z</time>
      </trkpt>
      <trkpt lat="44.69282" lon="5.47892">
        <ele>565.7</ele>
        <time>2021-09-03T10:52:16Z</time>
      </trkpt>
      <trkpt lat="44.69282" lon="5.47893">
        <ele>565.7</ele>
        <time>2021-09-03T10:52:18Z</time>
      </trkpt>
      <trkpt lat="44.69281" lon="5.47894">
        <ele>565.8</ele>
        <time>2021-09-03T10:52:19Z</time>
      </trkpt>
      <trkpt lat="44.6928" lon="5.47895">
        <ele>565.8</ele>
        <time>2021-09-03T10:52:21Z</time>
      </trkpt>
      <trkpt lat="44.69279" lon="5.47896">
        <ele>565.8</ele>
        <time>2021-09-03T10:52:22Z</time>
      </trkpt>
      <trkpt lat="44.69279" lon="5.47897">
        <ele>565.9</ele>
        <time>2021-09-03T10:52:23Z</time>
      </trkpt>
      <trkpt lat="44.69278" lon="5.47902">
        <ele>566</ele>
        <time>2021-09-03T10:52:25Z</time>
      </trkpt>
      <trkpt lat="44.69277" lon="5.47906">
        <ele>566.1</ele>
        <time>2021-09-03T10:52:27Z</time>
      </trkpt>
      <trkpt lat="44.69278" lon="5.47911">
        <ele>566.2</ele>
        <time>2021-09-03T10:52:28Z</time>
      </trkpt>
      <trkpt lat="44.6928" lon="5.47917">
        <ele>566.4</ele>
        <time>2021-09-03T10:52:30Z</time>
      </trkpt>
      <trkpt lat="44.69281" lon="5.47921">
        <ele>566.5</ele>
        <time>2021-09-03T10:52:31Z</time>
      </trkpt>
      <trkpt lat="44.69282" lon="5.47927">
        <ele>566.6</ele>
        <time>2021-09-03T10:52:33Z</time>
      </trkpt>
      <trkpt lat="44.69283" lon="5.47932">
        <ele>566.7</ele>
        <time>2021-09-03T10:52:34Z</time>
      </trkpt>
      <trkpt lat="44.69284" lon="5.47938">
        <ele>566.8</ele>
        <time>2021-09-03T10:52:36Z</time>
      </trkpt>
      <trkpt lat="44.69283" lon="5.47942">
        <ele>566.9</ele>
        <time>2021-09-03T10:52:37Z</time>
      </trkpt>
      <trkpt lat="44.69284" lon="5.47948">
        <ele>567.1</ele>
        <time>2021-09-03T10:52:39Z</time>
      </trkpt>
      <trkpt lat="44.69285" lon="5.47952">
        <ele>567.2</ele>
        <time>2021-09-03T10:52:40Z</time>
      </trkpt>
      <trkpt lat="44.69286" lon="5.47957">
        <ele>567.3</ele>
        <time>2021-09-03T10:52:41Z</time>
      </trkpt>
      <trkpt lat="44.69287" lon="5.47961">
        <ele>567.4</ele>
        <time>2021-09-03T10:52:42Z</time>
      </trkpt>
      <trkpt lat="44.69291" lon="5.47967">
        <ele>567.6</ele>
        <time>2021-09-03T10:52:44Z</time>
      </trkpt>
      <trkpt lat="44.69292" lon="5.4797">
        <ele>567.7</ele>
        <time>2021-09-03T10:52:45Z</time>
      </trkpt>
      <trkpt lat="44.69295" lon="5.47977">
        <ele>567.9</ele>
        <time>2021-09-03T10:52:47Z</time>
      </trkpt>
      <trkpt lat="44.69297" lon="5.47984">
        <ele>568.1</ele>
        <time>2021-09-03T10:52:49Z</time>
      </trkpt>
      <trkpt lat="44.69298" lon="5.47988">
        <ele>568.2</ele>
        <time>2021-09-03T10:52:50Z</time>
      </trkpt>
      <trkpt lat="44.693" lon="5.47994">
        <ele>568.4</ele>
        <time>2021-09-03T10:52:52Z</time>
      </trkpt>
      <trkpt lat="44.69302" lon="5.47998">
        <ele>568.6</ele>
        <time>2021-09-03T10:52:53Z</time>
      </trkpt>
      <trkpt lat="44.69306" lon="5.48003">
        <ele>568.8</ele>
        <time>2021-09-03T10:52:55Z</time>
      </trkpt>
      <trkpt lat="44.69308" lon="5.48006">
        <ele>568.9</ele>
        <time>2021-09-03T10:52:56Z</time>
      </trkpt>
      <trkpt lat="44.69309" lon="5.4801">
        <ele>569</ele>
        <time>2021-09-03T10:52:57Z</time>
      </trkpt>
      <trkpt lat="44.69312" lon="5.48019">
        <ele>569.3</ele>
        <time>2021-09-03T10:52:59Z</time>
      </trkpt>
      <trkpt lat="44.69314" lon="5.48028">
        <ele>569.5</ele>
        <time>2021-09-03T10:53:01Z</time>
      </trkpt>
      <trkpt lat="44.69315" lon="5.48036">
        <ele>569.8</ele>
        <time>2021-09-03T10:53:03Z</time>
      </trkpt>
      <trkpt lat="44.69315" lon="5.4804">
        <ele>569.9</ele>
        <time>2021-09-03T10:53:04Z</time>
      </trkpt>
      <trkpt lat="44.69318" lon="5.48048">
        <ele>570.1</ele>
        <time>2021-09-03T10:53:06Z</time>
      </trkpt>
      <trkpt lat="44.6932" lon="5.48057">
        <ele>570.3</ele>
        <time>2021-09-03T10:53:08Z</time>
      </trkpt>
      <trkpt lat="44.6932" lon="5.48068">
        <ele>570.5</ele>
        <time>2021-09-03T10:53:10Z</time>
      </trkpt>
      <trkpt lat="44.69319" lon="5.48074">
        <ele>570.6</ele>
        <time>2021-09-03T10:53:11Z</time>
      </trkpt>
      <trkpt lat="44.69318" lon="5.48079">
        <ele>570.7</ele>
        <time>2021-09-03T10:53:12Z</time>
      </trkpt>
      <trkpt lat="44.69318" lon="5.48087">
        <ele>570.9</ele>
        <time>2021-09-03T10:53:14Z</time>
      </trkpt>
      <trkpt lat="44.69319" lon="5.48093">
        <ele>570.9</ele>
        <time>2021-09-03T10:53:15Z</time>
      </trkpt>
      <trkpt lat="44.69319" lon="5.48098">
        <ele>571</ele>
        <time>2021-09-03T10:53:16Z</time>
      </trkpt>
      <trkpt lat="44.6932" lon="5.48103">
        <ele>571.1</ele>
        <time>2021-09-03T10:53:17Z</time>
      </trkpt>
      <trkpt lat="44.69322" lon="5.48107">
        <ele>571.1</ele>
        <time>2021-09-03T10:53:18Z</time>
      </trkpt>
      <trkpt lat="44.69323" lon="5.48112">
        <ele>571.2</ele>
        <time>2021-09-03T10:53:19Z</time>
      </trkpt>
      <trkpt lat="44.69327" lon="5.48121">
        <ele>571.3</ele>
        <time>2021-09-03T10:53:21Z</time>
      </trkpt>
      <trkpt lat="44.69329" lon="5.48125">
        <ele>571.3</ele>
        <time>2021-09-03T10:53:22Z</time>
      </trkpt>
      <trkpt lat="44.69333" lon="5.48132">
        <ele>571.4</ele>
        <time>2021-09-03T10:53:24Z</time>
      </trkpt>
      <trkpt lat="44.69336" lon="5.48136">
        <ele>571.4</ele>
        <time>2021-09-03T10:53:25Z</time>
      </trkpt>
      <trkpt lat="44.6934" lon="5.48141">
        <ele>571.4</ele>
        <time>2021-09-03T10:53:27Z</time>
      </trkpt>
      <trkpt lat="44.69343" lon="5.48146">
        <ele>571.4</ele>
        <time>2021-09-03T10:53:28Z</time>
      </trkpt>
      <trkpt lat="44.69346" lon="5.48151">
        <ele>571.4</ele>
        <time>2021-09-03T10:53:29Z</time>
      </trkpt>
      <trkpt lat="44.6935" lon="5.48161">
        <ele>571.4</ele>
        <time>2021-09-03T10:53:31Z</time>
      </trkpt>
      <trkpt lat="44.69353" lon="5.48165">
        <ele>571.4</ele>
        <time>2021-09-03T10:53:32Z</time>
      </trkpt>
      <trkpt lat="44.69358" lon="5.48174">
        <ele>571.3</ele>
        <time>2021-09-03T10:53:34Z</time>
      </trkpt>
      <trkpt lat="44.69359" lon="5.48178">
        <ele>571.3</ele>
        <time>2021-09-03T10:53:35Z</time>
      </trkpt>
      <trkpt lat="44.69361" lon="5.48189">
        <ele>571.3</ele>
        <time>2021-09-03T10:53:37Z</time>
      </trkpt>
      <trkpt lat="44.69363" lon="5.48199">
        <ele>571.2</ele>
        <time>2021-09-03T10:53:39Z</time>
      </trkpt>
      <trkpt lat="44.69362" lon="5.4821">
        <ele>571.2</ele>
        <time>2021-09-03T10:53:40Z</time>
      </trkpt>
      <trkpt lat="44.69359" lon="5.4822">
        <ele>571.2</ele>
        <time>2021-09-03T10:53:41Z</time>
      </trkpt>
      <trkpt lat="44.69359" lon="5.48237">
        <ele>571.1</ele>
        <time>2021-09-03T10:53:43Z</time>
      </trkpt>
      <trkpt lat="44.69359" lon="5.48244">
        <ele>571.1</ele>
        <time>2021-09-03T10:53:44Z</time>
      </trkpt>
      <trkpt lat="44.69362" lon="5.48259">
        <ele>571.1</ele>
        <time>2021-09-03T10:53:46Z</time>
      </trkpt>
      <trkpt lat="44.69363" lon="5.48262">
        <ele>571.1</ele>
        <time>2021-09-03T10:53:48Z</time>
      </trkpt>
      <trkpt lat="44.69367" lon="5.48265">
        <ele>571.1</ele>
        <time>2021-09-03T10:53:49Z</time>
      </trkpt>
      <trkpt lat="44.69371" lon="5.48269">
        <ele>571.1</ele>
        <time>2021-09-03T10:53:51Z</time>
      </trkpt>
      <trkpt lat="44.69373" lon="5.48273">
        <ele>571.1</ele>
        <time>2021-09-03T10:53:52Z</time>
      </trkpt>
      <trkpt lat="44.69374" lon="5.48275">
        <ele>571.1</ele>
        <time>2021-09-03T10:53:53Z</time>
      </trkpt>
      <trkpt lat="44.69375" lon="5.48278">
        <ele>571.1</ele>
        <time>2021-09-03T10:53:55Z</time>
      </trkpt>
      <trkpt lat="44.69376" lon="5.48279">
        <ele>571.1</ele>
        <time>2021-09-03T10:53:56Z</time>
      </trkpt>
      <trkpt lat="44.69377" lon="5.48281">
        <ele>571.1</ele>
        <time>2021-09-03T10:53:57Z</time>
      </trkpt>
      <trkpt lat="44.69385" lon="5.48296">
        <ele>571.1</ele>
        <time>2021-09-03T10:53:59Z</time>
      </trkpt>
      <trkpt lat="44.69388" lon="5.48303">
        <ele>571.1</ele>
        <time>2021-09-03T10:54:00Z</time>
      </trkpt>
      <trkpt lat="44.69391" lon="5.4831">
        <ele>571.1</ele>
        <time>2021-09-03T10:54:01Z</time>
      </trkpt>
      <trkpt lat="44.69392" lon="5.48314">
        <ele>571.1</ele>
        <time>2021-09-03T10:54:02Z</time>
      </trkpt>
      <trkpt lat="44.69393" lon="5.48321">
        <ele>571.1</ele>
        <time>2021-09-03T10:54:03Z</time>
      </trkpt>
      <trkpt lat="44.69397" lon="5.48334">
        <ele>571.1</ele>
        <time>2021-09-03T10:54:05Z</time>
      </trkpt>
      <trkpt lat="44.69396" lon="5.48344">
        <ele>571.2</ele>
        <time>2021-09-03T10:54:07Z</time>
      </trkpt>
      <trkpt lat="44.69396" lon="5.48347">
        <ele>571.2</ele>
        <time>2021-09-03T10:54:08Z</time>
      </trkpt>
      <trkpt lat="44.69395" lon="5.48355">
        <ele>571</ele>
        <time>2021-09-03T10:54:10Z</time>
      </trkpt>
      <trkpt lat="44.69395" lon="5.4837">
        <ele>570.2</ele>
        <time>2021-09-03T10:54:11Z</time>
      </trkpt>
      <trkpt lat="44.69395" lon="5.48388">
        <ele>569.1</ele>
        <time>2021-09-03T10:54:13Z</time>
      </trkpt>
      <trkpt lat="44.69392" lon="5.48404">
        <ele>568.1</ele>
        <time>2021-09-03T10:54:15Z</time>
      </trkpt>
      <trkpt lat="44.69391" lon="5.48411">
        <ele>567.6</ele>
        <time>2021-09-03T10:54:16Z</time>
      </trkpt>
      <trkpt lat="44.69389" lon="5.48414">
        <ele>567.4</ele>
        <time>2021-09-03T10:54:17Z</time>
      </trkpt>
      <trkpt lat="44.69386" lon="5.48416">
        <ele>567.1</ele>
        <time>2021-09-03T10:54:18Z</time>
      </trkpt>
      <trkpt lat="44.69384" lon="5.4842">
        <ele>566.8</ele>
        <time>2021-09-03T10:54:19Z</time>
      </trkpt>
      <trkpt lat="44.69381" lon="5.48428">
        <ele>566.3</ele>
        <time>2021-09-03T10:54:21Z</time>
      </trkpt>
      <trkpt lat="44.69375" lon="5.4843">
        <ele>565.8</ele>
        <time>2021-09-03T10:54:22Z</time>
      </trkpt>
      <trkpt lat="44.6937" lon="5.48433">
        <ele>565.3</ele>
        <time>2021-09-03T10:54:23Z</time>
      </trkpt>
      <trkpt lat="44.6936" lon="5.4844">
        <ele>564.4</ele>
        <time>2021-09-03T10:54:25Z</time>
      </trkpt>
      <trkpt lat="44.69353" lon="5.48453">
        <ele>563.8</ele>
        <time>2021-09-03T10:54:27Z</time>
      </trkpt>
      <trkpt lat="44.6935" lon="5.48461">
        <ele>563.3</ele>
        <time>2021-09-03T10:54:28Z</time>
      </trkpt>
      <trkpt lat="44.69347" lon="5.4847">
        <ele>563</ele>
        <time>2021-09-03T10:54:29Z</time>
      </trkpt>
      <trkpt lat="44.69342" lon="5.48489">
        <ele>562.5</ele>
        <time>2021-09-03T10:54:31Z</time>
      </trkpt>
      <trkpt lat="44.69338" lon="5.48506">
        <ele>562.2</ele>
        <time>2021-09-03T10:54:33Z</time>
      </trkpt>
      <trkpt lat="44.69337" lon="5.48514">
        <ele>562.1</ele>
        <time>2021-09-03T10:54:34Z</time>
      </trkpt>
      <trkpt lat="44.69336" lon="5.48521">
        <ele>562.2</ele>
        <time>2021-09-03T10:54:35Z</time>
      </trkpt>
      <trkpt lat="44.69334" lon="5.48533">
        <ele>562.6</ele>
        <time>2021-09-03T10:54:37Z</time>
      </trkpt>
      <trkpt lat="44.69334" lon="5.48538">
        <ele>562.6</ele>
        <time>2021-09-03T10:54:38Z</time>
      </trkpt>
      <trkpt lat="44.69332" lon="5.4854">
        <ele>562.6</ele>
        <time>2021-09-03T10:54:39Z</time>
      </trkpt>
      <trkpt lat="44.6933" lon="5.48537">
        <ele>562.6</ele>
        <time>2021-09-03T10:54:41Z</time>
      </trkpt>
      <trkpt lat="44.69327" lon="5.48535">
        <ele>562.6</ele>
        <time>2021-09-03T10:54:43Z</time>
      </trkpt>
      <trkpt lat="44.69326" lon="5.48535">
        <ele>562.6</ele>
        <time>2021-09-03T10:54:44Z</time>
      </trkpt>
      <trkpt lat="44.69323" lon="5.48532">
        <ele>562.6</ele>
        <time>2021-09-03T10:54:46Z</time>
      </trkpt>
      <trkpt lat="44.69321" lon="5.4853">
        <ele>562.6</ele>
        <time>2021-09-03T10:54:47Z</time>
      </trkpt>
      <trkpt lat="44.6932" lon="5.4853">
        <ele>562.6</ele>
        <time>2021-09-03T10:54:49Z</time>
      </trkpt>
      <trkpt lat="44.69319" lon="5.4853">
        <ele>562.6</ele>
        <time>2021-09-03T10:54:50Z</time>
      </trkpt>
      <trkpt lat="44.69319" lon="5.4853">
        <ele>562.6</ele>
        <time>2021-09-03T10:54:51Z</time>
      </trkpt>
      <trkpt lat="44.69316" lon="5.48527">
        <ele>562.6</ele>
        <time>2021-09-03T10:54:52Z</time>
      </trkpt>
      <trkpt lat="44.69315" lon="5.48527">
        <ele>562.6</ele>
        <time>2021-09-03T10:54:53Z</time>
      </trkpt>
      <trkpt lat="44.69311" lon="5.48527">
        <ele>562.6</ele>
        <time>2021-09-03T10:54:55Z</time>
      </trkpt>
      <trkpt lat="44.69311" lon="5.48527">
        <ele>562.6</ele>
        <time>2021-09-03T10:54:56Z</time>
      </trkpt>
      <trkpt lat="44.69307" lon="5.48526">
        <ele>562.7</ele>
        <time>2021-09-03T10:54:58Z</time>
      </trkpt>
      <trkpt lat="44.69305" lon="5.48529">
        <ele>562.7</ele>
        <time>2021-09-03T10:54:59Z</time>
      </trkpt>
      <trkpt lat="44.69302" lon="5.48531">
        <ele>562.7</ele>
        <time>2021-09-03T10:55:00Z</time>
      </trkpt>
      <trkpt lat="44.69299" lon="5.48534">
        <ele>562.8</ele>
        <time>2021-09-03T10:55:02Z</time>
      </trkpt>
      <trkpt lat="44.69296" lon="5.48538">
        <ele>562.8</ele>
        <time>2021-09-03T10:55:03Z</time>
      </trkpt>
      <trkpt lat="44.69293" lon="5.48539">
        <ele>562.8</ele>
        <time>2021-09-03T10:55:04Z</time>
      </trkpt>
      <trkpt lat="44.69289" lon="5.48542">
        <ele>562.8</ele>
        <time>2021-09-03T10:55:06Z</time>
      </trkpt>
      <trkpt lat="44.69287" lon="5.48543">
        <ele>562.8</ele>
        <time>2021-09-03T10:55:07Z</time>
      </trkpt>
      <trkpt lat="44.69283" lon="5.48547">
        <ele>562.9</ele>
        <time>2021-09-03T10:55:08Z</time>
      </trkpt>
      <trkpt lat="44.69282" lon="5.48547">
        <ele>562.9</ele>
        <time>2021-09-03T10:55:09Z</time>
      </trkpt>
      <trkpt lat="44.69279" lon="5.48548">
        <ele>562.9</ele>
        <time>2021-09-03T10:55:10Z</time>
      </trkpt>
      <trkpt lat="44.69275" lon="5.48549">
        <ele>562.9</ele>
        <time>2021-09-03T10:55:12Z</time>
      </trkpt>
      <trkpt lat="44.69273" lon="5.48549">
        <ele>563</ele>
        <time>2021-09-03T10:55:13Z</time>
      </trkpt>
      <trkpt lat="44.69272" lon="5.48549">
        <ele>563</ele>
        <time>2021-09-03T10:55:14Z</time>
      </trkpt>
      <trkpt lat="44.69272" lon="5.48548">
        <ele>563</ele>
        <time>2021-09-03T10:55:16Z</time>
      </trkpt>
      <trkpt lat="44.69275" lon="5.48546">
        <ele>563</ele>
        <time>2021-09-03T10:55:17Z</time>
      </trkpt>
      <trkpt lat="44.69279" lon="5.48543">
        <ele>563.1</ele>
        <time>2021-09-03T10:55:19Z</time>
      </trkpt>
      <trkpt lat="44.69284" lon="5.4854">
        <ele>563</ele>
        <time>2021-09-03T10:55:20Z</time>
      </trkpt>
      <trkpt lat="44.69286" lon="5.48539">
        <ele>562.9</ele>
        <time>2021-09-03T10:55:21Z</time>
      </trkpt>
      <trkpt lat="44.69291" lon="5.48536">
        <ele>562.8</ele>
        <time>2021-09-03T10:55:22Z</time>
      </trkpt>
      <trkpt lat="44.693" lon="5.48531">
        <ele>562.7</ele>
        <time>2021-09-03T10:55:24Z</time>
      </trkpt>
      <trkpt lat="44.69303" lon="5.48531">
        <ele>562.7</ele>
        <time>2021-09-03T10:55:25Z</time>
      </trkpt>
      <trkpt lat="44.69309" lon="5.48531">
        <ele>562.7</ele>
        <time>2021-09-03T10:55:27Z</time>
      </trkpt>
      <trkpt lat="44.69313" lon="5.4853">
        <ele>562.6</ele>
        <time>2021-09-03T10:55:28Z</time>
      </trkpt>
      <trkpt lat="44.69317" lon="5.48529">
        <ele>562.6</ele>
        <time>2021-09-03T10:55:29Z</time>
      </trkpt>
      <trkpt lat="44.69322" lon="5.48526">
        <ele>562.6</ele>
        <time>2021-09-03T10:55:30Z</time>
      </trkpt>
      <trkpt lat="44.69326" lon="5.48525">
        <ele>562.6</ele>
        <time>2021-09-03T10:55:32Z</time>
      </trkpt>
      <trkpt lat="44.69329" lon="5.48526">
        <ele>562.6</ele>
        <time>2021-09-03T10:55:33Z</time>
      </trkpt>
      <trkpt lat="44.69333" lon="5.4853">
        <ele>562.6</ele>
        <time>2021-09-03T10:55:34Z</time>
      </trkpt>
      <trkpt lat="44.69336" lon="5.48534">
        <ele>562.6</ele>
        <time>2021-09-03T10:55:35Z</time>
      </trkpt>
      <trkpt lat="44.69339" lon="5.48538">
        <ele>562.7</ele>
        <time>2021-09-03T10:55:37Z</time>
      </trkpt>
      <trkpt lat="44.69336" lon="5.48543">
        <ele>562.8</ele>
        <time>2021-09-03T10:55:39Z</time>
      </trkpt>
      <trkpt lat="44.69334" lon="5.48546">
        <ele>562.9</ele>
        <time>2021-09-03T10:55:40Z</time>
      </trkpt>
      <trkpt lat="44.69332" lon="5.48549">
        <ele>562.9</ele>
        <time>2021-09-03T10:55:41Z</time>
      </trkpt>
      <trkpt lat="44.6933" lon="5.48551">
        <ele>562.9</ele>
        <time>2021-09-03T10:55:42Z</time>
      </trkpt>
      <trkpt lat="44.69329" lon="5.48552">
        <ele>562.9</ele>
        <time>2021-09-03T10:55:43Z</time>
      </trkpt>
      <trkpt lat="44.69327" lon="5.48554">
        <ele>562.9</ele>
        <time>2021-09-03T10:55:45Z</time>
      </trkpt>
      <trkpt lat="44.6932" lon="5.4864">
        <ele>563.5</ele>
        <time>2021-09-03T10:56:03Z</time>
      </trkpt>
      <trkpt lat="44.69322" lon="5.48645">
        <ele>563.5</ele>
        <time>2021-09-03T10:56:04Z</time>
      </trkpt>
      <trkpt lat="44.69324" lon="5.48648">
        <ele>563.5</ele>
        <time>2021-09-03T10:56:06Z</time>
      </trkpt>
      <trkpt lat="44.69326" lon="5.48649">
        <ele>563.5</ele>
        <time>2021-09-03T10:56:08Z</time>
      </trkpt>
      <trkpt lat="44.6933" lon="5.48652">
        <ele>563.5</ele>
        <time>2021-09-03T10:56:10Z</time>
      </trkpt>
      <trkpt lat="44.6933" lon="5.48652">
        <ele>563.5</ele>
        <time>2021-09-03T10:56:12Z</time>
      </trkpt>
      <trkpt lat="44.6933" lon="5.48652">
        <ele>563.5</ele>
        <time>2021-09-03T10:56:14Z</time>
      </trkpt>
      <trkpt lat="44.6933" lon="5.48652">
        <ele>563.5</ele>
        <time>2021-09-03T10:56:16Z</time>
      </trkpt>
      <trkpt lat="44.69329" lon="5.48652">
        <ele>563.5</ele>
        <time>2021-09-03T10:56:17Z</time>
      </trkpt>
      <trkpt lat="44.69329" lon="5.48652">
        <ele>563.5</ele>
        <time>2021-09-03T10:56:18Z</time>
      </trkpt>
      <trkpt lat="44.69335" lon="5.4854">
        <ele>563.7</ele>
        <time>2021-09-06T07:42:32Z</time>
      </trkpt>
      <trkpt lat="44.69335" lon="5.4854">
        <ele>563.7</ele>
        <time>2021-09-06T07:42:32Z</time>
      </trkpt>
      <trkpt lat="44.69336" lon="5.48539">
        <ele>563.5</ele>
        <time>2021-09-06T07:42:34Z</time>
      </trkpt>
      <trkpt lat="44.69337" lon="5.48536">
        <ele>563.9</ele>
        <time>2021-09-06T07:42:39Z</time>
      </trkpt>
      <trkpt lat="44.69335" lon="5.48532">
        <ele>563.4</ele>
        <time>2021-09-06T07:42:45Z</time>
      </trkpt>
      <trkpt lat="44.69299" lon="5.4854">
        <ele>562.8</ele>
        <time>2021-09-06T07:42:49Z</time>
      </trkpt>
      <trkpt lat="44.69201" lon="5.48521">
        <ele>586.8</ele>
        <time>2021-09-06T07:42:53Z</time>
      </trkpt>
      <trkpt lat="44.69163" lon="5.48514">
        <ele>607.6</ele>
        <time>2021-09-06T07:42:54Z</time>
      </trkpt>
      <trkpt lat="44.69107" lon="5.48497">
        <ele>634.1</ele>
        <time>2021-09-06T07:42:56Z</time>
      </trkpt>
      <trkpt lat="44.69083" lon="5.48484">
        <ele>638.1</ele>
        <time>2021-09-06T07:42:58Z</time>
      </trkpt>
      <trkpt lat="44.69071" lon="5.48475">
        <ele>640.5</ele>
        <time>2021-09-06T07:42:59Z</time>
      </trkpt>
      <trkpt lat="44.691" lon="5.48422">
        <ele>599.3</ele>
        <time>2021-09-06T07:43:17Z</time>
      </trkpt>
      <trkpt lat="44.69176" lon="5.48461">
        <ele>584.1</ele>
        <time>2021-09-06T07:43:18Z</time>
      </trkpt>
      <trkpt lat="44.69191" lon="5.48468">
        <ele>579.8</ele>
        <time>2021-09-06T07:43:20Z</time>
      </trkpt>
      <trkpt lat="44.69207" lon="5.48476">
        <ele>575.5</ele>
        <time>2021-09-06T07:43:21Z</time>
      </trkpt>
      <trkpt lat="44.6924" lon="5.48494">
        <ele>567.6</ele>
        <time>2021-09-06T07:43:23Z</time>
      </trkpt>
      <trkpt lat="44.69241" lon="5.48495">
        <ele>567.6</ele>
        <time>2021-09-06T07:43:24Z</time>
      </trkpt>
      <trkpt lat="44.69242" lon="5.48496">
        <ele>567.6</ele>
        <time>2021-09-06T07:43:26Z</time>
      </trkpt>
      <trkpt lat="44.69242" lon="5.48497">
        <ele>567.6</ele>
        <time>2021-09-06T07:43:27Z</time>
      </trkpt>
      <trkpt lat="44.69252" lon="5.48502">
        <ele>565.3</ele>
        <time>2021-09-06T07:43:30Z</time>
      </trkpt>
      <trkpt lat="44.69253" lon="5.48502">
        <ele>565.3</ele>
        <time>2021-09-06T07:43:32Z</time>
      </trkpt>
      <trkpt lat="44.69242" lon="5.48498">
        <ele>567.9</ele>
        <time>2021-09-06T07:43:34Z</time>
      </trkpt>
      <trkpt lat="44.69219" lon="5.48488">
        <ele>572.6</ele>
        <time>2021-09-06T07:43:36Z</time>
      </trkpt>
      <trkpt lat="44.69203" lon="5.4848">
        <ele>577.4</ele>
        <time>2021-09-06T07:43:37Z</time>
      </trkpt>
      <trkpt lat="44.69337" lon="5.48339">
        <ele>564.2</ele>
        <time>2021-09-06T07:44:32Z</time>
      </trkpt>
      <trkpt lat="44.69339" lon="5.48332">
        <ele>565</ele>
        <time>2021-09-06T07:44:34Z</time>
      </trkpt>
      <trkpt lat="44.69343" lon="5.48322">
        <ele>565.8</ele>
        <time>2021-09-06T07:44:37Z</time>
      </trkpt>
      <trkpt lat="44.69344" lon="5.48317">
        <ele>566.4</ele>
        <time>2021-09-06T07:44:38Z</time>
      </trkpt>
      <trkpt lat="44.69346" lon="5.48312">
        <ele>566.6</ele>
        <time>2021-09-06T07:44:39Z</time>
      </trkpt>
      <trkpt lat="44.69346" lon="5.48309">
        <ele>567.3</ele>
        <time>2021-09-06T07:44:41Z</time>
      </trkpt>
      <trkpt lat="44.69346" lon="5.48309">
        <ele>567.3</ele>
        <time>2021-09-06T07:44:42Z</time>
      </trkpt>
      <trkpt lat="44.69347" lon="5.48309">
        <ele>567.3</ele>
        <time>2021-09-06T07:44:44Z</time>
      </trkpt>
      <trkpt lat="44.6935" lon="5.4827">
        <ele>570.7</ele>
        <time>2021-09-06T07:44:55Z</time>
      </trkpt>
      <trkpt lat="44.69347" lon="5.48266">
        <ele>570.7</ele>
        <time>2021-09-06T07:44:56Z</time>
      </trkpt>
      <trkpt lat="44.69339" lon="5.48259">
        <ele>570.5</ele>
        <time>2021-09-06T07:44:58Z</time>
      </trkpt>
      <trkpt lat="44.69334" lon="5.48255">
        <ele>570.2</ele>
        <time>2021-09-06T07:45:00Z</time>
      </trkpt>
      <trkpt lat="44.69334" lon="5.48255">
        <ele>570.2</ele>
        <time>2021-09-06T07:45:01Z</time>
      </trkpt>
      <trkpt lat="44.69334" lon="5.48254">
        <ele>570.2</ele>
        <time>2021-09-06T07:45:02Z</time>
      </trkpt>
      <trkpt lat="44.69334" lon="5.48254">
        <ele>570.2</ele>
        <time>2021-09-06T07:45:03Z</time>
      </trkpt>
      <trkpt lat="44.69329" lon="5.48252">
        <ele>570.3</ele>
        <time>2021-09-06T07:45:05Z</time>
      </trkpt>
      <trkpt lat="44.69326" lon="5.48251">
        <ele>570</ele>
        <time>2021-09-06T07:45:06Z</time>
      </trkpt>
      <trkpt lat="44.69306" lon="5.48226">
        <ele>570.4</ele>
        <time>2021-09-06T07:45:14Z</time>
      </trkpt>
      <trkpt lat="44.69303" lon="5.48221">
        <ele>570.4</ele>
        <time>2021-09-06T07:45:15Z</time>
      </trkpt>
      <trkpt lat="44.69299" lon="5.48216">
        <ele>570.5</ele>
        <time>2021-09-06T07:45:17Z</time>
      </trkpt>
      <trkpt lat="44.69294" lon="5.4821">
        <ele>570.3</ele>
        <time>2021-09-06T07:45:18Z</time>
      </trkpt>
      <trkpt lat="44.69291" lon="5.48207">
        <ele>570.2</ele>
        <time>2021-09-06T07:45:20Z</time>
      </trkpt>
      <trkpt lat="44.69287" lon="5.48205">
        <ele>569.9</ele>
        <time>2021-09-06T07:45:21Z</time>
      </trkpt>
      <trkpt lat="44.69272" lon="5.48197">
        <ele>568.5</ele>
        <time>2021-09-06T07:45:22Z</time>
      </trkpt>
      <trkpt lat="44.69268" lon="5.48194">
        <ele>568.3</ele>
        <time>2021-09-06T07:45:24Z</time>
      </trkpt>
      <trkpt lat="44.69265" lon="5.48192">
        <ele>567.9</ele>
        <time>2021-09-06T07:45:25Z</time>
      </trkpt>
      <trkpt lat="44.69261" lon="5.48191">
        <ele>567.7</ele>
        <time>2021-09-06T07:45:26Z</time>
      </trkpt>
      <trkpt lat="44.69257" lon="5.48192">
        <ele>566.7</ele>
        <time>2021-09-06T07:45:27Z</time>
      </trkpt>
      <trkpt lat="44.69253" lon="5.48194">
        <ele>566.3</ele>
        <time>2021-09-06T07:45:29Z</time>
      </trkpt>
      <trkpt lat="44.69024" lon="5.48174">
        <ele>552.4</ele>
        <time>2021-09-06T07:48:17Z</time>
      </trkpt>
      <trkpt lat="44.69023" lon="5.48169">
        <ele>552.4</ele>
        <time>2021-09-06T07:48:18Z</time>
      </trkpt>
      <trkpt lat="44.6902" lon="5.48165">
        <ele>552.2</ele>
        <time>2021-09-06T07:48:19Z</time>
      </trkpt>
      <trkpt lat="44.69018" lon="5.4816">
        <ele>552.1</ele>
        <time>2021-09-06T07:48:21Z</time>
      </trkpt>
      <trkpt lat="44.69015" lon="5.48155">
        <ele>552.1</ele>
        <time>2021-09-06T07:48:22Z</time>
      </trkpt>
      <trkpt lat="44.69014" lon="5.48154">
        <ele>552.1</ele>
        <time>2021-09-06T07:48:24Z</time>
      </trkpt>
      <trkpt lat="44.69013" lon="5.48152">
        <ele>552.1</ele>
        <time>2021-09-06T07:48:26Z</time>
      </trkpt>
      <trkpt lat="44.69013" lon="5.48151">
        <ele>552.2</ele>
        <time>2021-09-06T07:48:27Z</time>
      </trkpt>
      <trkpt lat="44.69013" lon="5.4815">
        <ele>552.2</ele>
        <time>2021-09-06T07:48:28Z</time>
      </trkpt>
      <trkpt lat="44.69014" lon="5.48145">
        <ele>552.2</ele>
        <time>2021-09-06T07:48:30Z</time>
      </trkpt>
      <trkpt lat="44.69016" lon="5.48142">
        <ele>552.2</ele>
        <time>2021-09-06T07:48:32Z</time>
      </trkpt>
      <trkpt lat="44.69016" lon="5.48141">
        <ele>552.2</ele>
        <time>2021-09-06T07:48:33Z</time>
      </trkpt>
      <trkpt lat="44.69016" lon="5.4814">
        <ele>552.2</ele>
        <time>2021-09-06T07:48:34Z</time>
      </trkpt>
      <trkpt lat="44.69017" lon="5.4814">
        <ele>552.2</ele>
        <time>2021-09-06T07:48:36Z</time>
      </trkpt>
      <trkpt lat="44.69017" lon="5.4814">
        <ele>552.2</ele>
        <time>2021-09-06T07:48:38Z</time>
      </trkpt>
      <trkpt lat="44.69016" lon="5.48139">
        <ele>552.2</ele>
        <time>2021-09-06T07:48:39Z</time>
      </trkpt>
      <trkpt lat="44.69016" lon="5.48139">
        <ele>552.2</ele>
        <time>2021-09-06T07:48:41Z</time>
      </trkpt>
      <trkpt lat="44.69016" lon="5.48139">
        <ele>552.2</ele>
        <time>2021-09-06T07:48:42Z</time>
      </trkpt>
      <trkpt lat="44.69016" lon="5.48139">
        <ele>552.2</ele>
        <time>2021-09-06T07:48:43Z</time>
      </trkpt>
      <trkpt lat="44.69012" lon="5.4811">
        <ele>552.1</ele>
        <time>2021-09-06T07:48:59Z</time>
      </trkpt>
      <trkpt lat="44.69012" lon="5.48104">
        <ele>552</ele>
        <time>2021-09-06T07:49:00Z</time>
      </trkpt>
      <trkpt lat="44.69012" lon="5.48098">
        <ele>551.9</ele>
        <time>2021-09-06T07:49:01Z</time>
      </trkpt>
      <trkpt lat="44.69011" lon="5.48092">
        <ele>551.7</ele>
        <time>2021-09-06T07:49:02Z</time>
      </trkpt>
      <trkpt lat="44.69011" lon="5.48086">
        <ele>551.5</ele>
        <time>2021-09-06T07:49:03Z</time>
      </trkpt>
      <trkpt lat="44.69011" lon="5.48081">
        <ele>551.3</ele>
        <time>2021-09-06T07:49:04Z</time>
      </trkpt>
      <trkpt lat="44.69012" lon="5.48073">
        <ele>551</ele>
        <time>2021-09-06T07:49:06Z</time>
      </trkpt>
      <trkpt lat="44.69013" lon="5.48065">
        <ele>550.6</ele>
        <time>2021-09-06T07:49:07Z</time>
      </trkpt>
      <trkpt lat="44.69014" lon="5.48058">
        <ele>550.2</ele>
        <time>2021-09-06T07:49:08Z</time>
      </trkpt>
      <trkpt lat="44.69015" lon="5.4805">
        <ele>549.8</ele>
        <time>2021-09-06T07:49:09Z</time>
      </trkpt>
      <trkpt lat="44.69017" lon="5.48042">
        <ele>549.3</ele>
        <time>2021-09-06T07:49:11Z</time>
      </trkpt>
      <trkpt lat="44.69019" lon="5.48034">
        <ele>549.2</ele>
        <time>2021-09-06T07:49:12Z</time>
      </trkpt>
      <trkpt lat="44.6902" lon="5.48024">
        <ele>549.1</ele>
        <time>2021-09-06T07:49:13Z</time>
      </trkpt>
      <trkpt lat="44.6902" lon="5.48015">
        <ele>549</ele>
        <time>2021-09-06T07:49:15Z</time>
      </trkpt>
      <trkpt lat="44.69022" lon="5.48007">
        <ele>548.9</ele>
        <time>2021-09-06T07:49:16Z</time>
      </trkpt>
      <trkpt lat="44.69023" lon="5.47999">
        <ele>548.8</ele>
        <time>2021-09-06T07:49:17Z</time>
      </trkpt>
      <trkpt lat="44.69023" lon="5.47991">
        <ele>548.7</ele>
        <time>2021-09-06T07:49:19Z</time>
      </trkpt>
      <trkpt lat="44.69022" lon="5.47983">
        <ele>548.7</ele>
        <time>2021-09-06T07:49:20Z</time>
      </trkpt>
      <trkpt lat="44.69024" lon="5.47975">
        <ele>548.7</ele>
        <time>2021-09-06T07:49:21Z</time>
      </trkpt>
      <trkpt lat="44.69025" lon="5.47964">
        <ele>548.7</ele>
        <time>2021-09-06T07:49:23Z</time>
      </trkpt>
      <trkpt lat="44.69027" lon="5.47954">
        <ele>548.6</ele>
        <time>2021-09-06T07:49:25Z</time>
      </trkpt>
      <trkpt lat="44.69028" lon="5.47947">
        <ele>548.6</ele>
        <time>2021-09-06T07:49:26Z</time>
      </trkpt>
      <trkpt lat="44.69029" lon="5.47936">
        <ele>548.6</ele>
        <time>2021-09-06T07:49:28Z</time>
      </trkpt>
      <trkpt lat="44.69028" lon="5.4793">
        <ele>548.7</ele>
        <time>2021-09-06T07:49:29Z</time>
      </trkpt>
      <trkpt lat="44.69028" lon="5.47924">
        <ele>548.8</ele>
        <time>2021-09-06T07:49:30Z</time>
      </trkpt>
      <trkpt lat="44.69027" lon="5.47916">
        <ele>549</ele>
        <time>2021-09-06T07:49:32Z</time>
      </trkpt>
      <trkpt lat="44.69028" lon="5.47909">
        <ele>549.2</ele>
        <time>2021-09-06T07:49:33Z</time>
      </trkpt>
      <trkpt lat="44.69028" lon="5.47904">
        <ele>549.4</ele>
        <time>2021-09-06T07:49:34Z</time>
      </trkpt>
      <trkpt lat="44.69028" lon="5.479">
        <ele>549.5</ele>
        <time>2021-09-06T07:49:35Z</time>
      </trkpt>
      <trkpt lat="44.69028" lon="5.479">
        <ele>549.5</ele>
        <time>2021-09-06T07:49:37Z</time>
      </trkpt>
      <trkpt lat="44.69029" lon="5.47901">
        <ele>549.6</ele>
        <time>2021-09-06T07:49:38Z</time>
      </trkpt>
      <trkpt lat="44.6903" lon="5.47902">
        <ele>549.6</ele>
        <time>2021-09-06T07:49:39Z</time>
      </trkpt>
      <trkpt lat="44.69029" lon="5.47902">
        <ele>549.6</ele>
        <time>2021-09-06T07:49:41Z</time>
      </trkpt>
      <trkpt lat="44.69029" lon="5.47901">
        <ele>549.7</ele>
        <time>2021-09-06T07:49:42Z</time>
      </trkpt>
      <trkpt lat="44.69027" lon="5.479">
        <ele>549.7</ele>
        <time>2021-09-06T07:49:43Z</time>
      </trkpt>
      <trkpt lat="44.69025" lon="5.47898">
        <ele>549.8</ele>
        <time>2021-09-06T07:49:45Z</time>
      </trkpt>
      <trkpt lat="44.69022" lon="5.47896">
        <ele>549.8</ele>
        <time>2021-09-06T07:49:46Z</time>
      </trkpt>
      <trkpt lat="44.69016" lon="5.47892">
        <ele>549.9</ele>
        <time>2021-09-06T07:49:48Z</time>
      </trkpt>
      <trkpt lat="44.69012" lon="5.47889">
        <ele>549.9</ele>
        <time>2021-09-06T07:49:49Z</time>
      </trkpt>
      <trkpt lat="44.69008" lon="5.47885">
        <ele>549.8</ele>
        <time>2021-09-06T07:49:50Z</time>
      </trkpt>
      <trkpt lat="44.69002" lon="5.47878">
        <ele>549.7</ele>
        <time>2021-09-06T07:49:52Z</time>
      </trkpt>
      <trkpt lat="44.69" lon="5.47873">
        <ele>549.6</ele>
        <time>2021-09-06T07:49:53Z</time>
      </trkpt>
      <trkpt lat="44.68996" lon="5.47863">
        <ele>549.5</ele>
        <time>2021-09-06T07:49:55Z</time>
      </trkpt>
      <trkpt lat="44.68994" lon="5.47856">
        <ele>549.4</ele>
        <time>2021-09-06T07:49:57Z</time>
      </trkpt>
      <trkpt lat="44.68989" lon="5.47847">
        <ele>549.3</ele>
        <time>2021-09-06T07:49:58Z</time>
      </trkpt>
      <trkpt lat="44.68986" lon="5.4784">
        <ele>549.2</ele>
        <time>2021-09-06T07:50:00Z</time>
      </trkpt>
      <trkpt lat="44.68983" lon="5.47835">
        <ele>549.2</ele>
        <time>2021-09-06T07:50:01Z</time>
      </trkpt>
      <trkpt lat="44.68978" lon="5.47832">
        <ele>549.1</ele>
        <time>2021-09-06T07:50:03Z</time>
      </trkpt>
      <trkpt lat="44.68975" lon="5.4783">
        <ele>549.1</ele>
        <time>2021-09-06T07:50:04Z</time>
      </trkpt>
      <trkpt lat="44.68972" lon="5.47828">
        <ele>549.1</ele>
        <time>2021-09-06T07:50:05Z</time>
      </trkpt>
      <trkpt lat="44.68968" lon="5.47824">
        <ele>549.1</ele>
        <time>2021-09-06T07:50:06Z</time>
      </trkpt>
      <trkpt lat="44.68965" lon="5.47819">
        <ele>549</ele>
        <time>2021-09-06T07:50:08Z</time>
      </trkpt>
      <trkpt lat="44.68964" lon="5.47818">
        <ele>549</ele>
        <time>2021-09-06T07:50:09Z</time>
      </trkpt>
      <trkpt lat="44.68962" lon="5.47816">
        <ele>549</ele>
        <time>2021-09-06T07:50:10Z</time>
      </trkpt>
      <trkpt lat="44.68961" lon="5.47809">
        <ele>549</ele>
        <time>2021-09-06T07:50:12Z</time>
      </trkpt>
      <trkpt lat="44.6896" lon="5.47805">
        <ele>549</ele>
        <time>2021-09-06T07:50:13Z</time>
      </trkpt>
      <trkpt lat="44.6896" lon="5.47803">
        <ele>549</ele>
        <time>2021-09-06T07:50:14Z</time>
      </trkpt>
      <trkpt lat="44.68957" lon="5.47796">
        <ele>548.9</ele>
        <time>2021-09-06T07:50:16Z</time>
      </trkpt>
      <trkpt lat="44.68955" lon="5.47793">
        <ele>548.9</ele>
        <time>2021-09-06T07:50:17Z</time>
      </trkpt>
      <trkpt lat="44.68955" lon="5.47792">
        <ele>548.9</ele>
        <time>2021-09-06T07:50:18Z</time>
      </trkpt>
      <trkpt lat="44.68949" lon="5.47787">
        <ele>548.9</ele>
        <time>2021-09-06T07:50:20Z</time>
      </trkpt>
      <trkpt lat="44.68945" lon="5.47783">
        <ele>548.8</ele>
        <time>2021-09-06T07:50:21Z</time>
      </trkpt>
      <trkpt lat="44.68941" lon="5.47777">
        <ele>548.8</ele>
        <time>2021-09-06T07:50:22Z</time>
      </trkpt>
      <trkpt lat="44.6894" lon="5.47775">
        <ele>548.7</ele>
        <time>2021-09-06T07:50:23Z</time>
      </trkpt>
      <trkpt lat="44.68914" lon="5.47739">
        <ele>548.4</ele>
        <time>2021-09-06T07:50:29Z</time>
      </trkpt>
      <trkpt lat="44.68908" lon="5.47728">
        <ele>548.2</ele>
        <time>2021-09-06T07:50:31Z</time>
      </trkpt>
      <trkpt lat="44.68903" lon="5.47721">
        <ele>548.1</ele>
        <time>2021-09-06T07:50:32Z</time>
      </trkpt>
      <trkpt lat="44.68901" lon="5.47717">
        <ele>548.1</ele>
        <time>2021-09-06T07:50:33Z</time>
      </trkpt>
      <trkpt lat="44.68892" lon="5.47705">
        <ele>548</ele>
        <time>2021-09-06T07:50:35Z</time>
      </trkpt>
      <trkpt lat="44.68889" lon="5.477">
        <ele>547.9</ele>
        <time>2021-09-06T07:50:36Z</time>
      </trkpt>
      <trkpt lat="44.68887" lon="5.47698">
        <ele>547.9</ele>
        <time>2021-09-06T07:50:37Z</time>
      </trkpt>
      <trkpt lat="44.68884" lon="5.47694">
        <ele>547.8</ele>
        <time>2021-09-06T07:50:39Z</time>
      </trkpt>
      <trkpt lat="44.68881" lon="5.47692">
        <ele>547.7</ele>
        <time>2021-09-06T07:50:40Z</time>
      </trkpt>
      <trkpt lat="44.68874" lon="5.47688">
        <ele>547.6</ele>
        <time>2021-09-06T07:50:42Z</time>
      </trkpt>
      <trkpt lat="44.68801" lon="5.4754">
        <ele>546.5</ele>
        <time>2021-09-06T07:51:12Z</time>
      </trkpt>
      <trkpt lat="44.68799" lon="5.47531">
        <ele>546.4</ele>
        <time>2021-09-06T07:51:14Z</time>
      </trkpt>
      <trkpt lat="44.68797" lon="5.47522">
        <ele>546.3</ele>
        <time>2021-09-06T07:51:15Z</time>
      </trkpt>
      <trkpt lat="44.68795" lon="5.47512">
        <ele>546.1</ele>
        <time>2021-09-06T07:51:17Z</time>
      </trkpt>
      <trkpt lat="44.68793" lon="5.47505">
        <ele>546.1</ele>
        <time>2021-09-06T07:51:18Z</time>
      </trkpt>
      <trkpt lat="44.68791" lon="5.47501">
        <ele>546</ele>
        <time>2021-09-06T07:51:19Z</time>
      </trkpt>
      <trkpt lat="44.68789" lon="5.47492">
        <ele>545.9</ele>
        <time>2021-09-06T07:51:21Z</time>
      </trkpt>
      <trkpt lat="44.68788" lon="5.47485">
        <ele>545.9</ele>
        <time>2021-09-06T07:51:22Z</time>
      </trkpt>
      <trkpt lat="44.68786" lon="5.47475">
        <ele>545.8</ele>
        <time>2021-09-06T07:51:24Z</time>
      </trkpt>
      <trkpt lat="44.68784" lon="5.47468">
        <ele>545.7</ele>
        <time>2021-09-06T07:51:25Z</time>
      </trkpt>
      <trkpt lat="44.68782" lon="5.4746">
        <ele>545.7</ele>
        <time>2021-09-06T07:51:26Z</time>
      </trkpt>
      <trkpt lat="44.68779" lon="5.47453">
        <ele>545.6</ele>
        <time>2021-09-06T07:51:27Z</time>
      </trkpt>
      <trkpt lat="44.68777" lon="5.47446">
        <ele>545.6</ele>
        <time>2021-09-06T07:51:28Z</time>
      </trkpt>
      <trkpt lat="44.68775" lon="5.4744">
        <ele>545.6</ele>
        <time>2021-09-06T07:51:30Z</time>
      </trkpt>
      <trkpt lat="44.68771" lon="5.47428">
        <ele>545.5</ele>
        <time>2021-09-06T07:51:31Z</time>
      </trkpt>
      <trkpt lat="44.68774" lon="5.47421">
        <ele>545.4</ele>
        <time>2021-09-06T07:51:32Z</time>
      </trkpt>
      <trkpt lat="44.68774" lon="5.47416">
        <ele>545.4</ele>
        <time>2021-09-06T07:51:34Z</time>
      </trkpt>
      <trkpt lat="44.68774" lon="5.47414">
        <ele>545.4</ele>
        <time>2021-09-06T07:51:35Z</time>
      </trkpt>
      <trkpt lat="44.68773" lon="5.47409">
        <ele>545.4</ele>
        <time>2021-09-06T07:51:36Z</time>
      </trkpt>
      <trkpt lat="44.68773" lon="5.47404">
        <ele>545.3</ele>
        <time>2021-09-06T07:51:38Z</time>
      </trkpt>
      <trkpt lat="44.68774" lon="5.47399">
        <ele>545.3</ele>
        <time>2021-09-06T07:51:39Z</time>
      </trkpt>
      <trkpt lat="44.68775" lon="5.47384">
        <ele>545.1</ele>
        <time>2021-09-06T07:51:41Z</time>
      </trkpt>
      <trkpt lat="44.686" lon="5.47039">
        <ele>544.7</ele>
        <time>2021-09-06T07:53:03Z</time>
      </trkpt>
      <trkpt lat="44.686" lon="5.4703">
        <ele>544.6</ele>
        <time>2021-09-06T07:53:05Z</time>
      </trkpt>
      <trkpt lat="44.68581" lon="5.46974">
        <ele>540.5</ele>
        <time>2021-09-06T07:53:06Z</time>
      </trkpt>
      <trkpt lat="44.68573" lon="5.46955">
        <ele>539.5</ele>
        <time>2021-09-06T07:53:08Z</time>
      </trkpt>
      <trkpt lat="44.68566" lon="5.46939">
        <ele>539.1</ele>
        <time>2021-09-06T07:53:09Z</time>
      </trkpt>
      <trkpt lat="44.68554" lon="5.46911">
        <ele>538.8</ele>
        <time>2021-09-06T07:53:11Z</time>
      </trkpt>
      <trkpt lat="44.68549" lon="5.469">
        <ele>538.7</ele>
        <time>2021-09-06T07:53:12Z</time>
      </trkpt>
      <trkpt lat="44.68547" lon="5.46889">
        <ele>538.7</ele>
        <time>2021-09-06T07:53:13Z</time>
      </trkpt>
      <trkpt lat="44.68541" lon="5.46872">
        <ele>538.6</ele>
        <time>2021-09-06T07:53:15Z</time>
      </trkpt>
      <trkpt lat="44.68541" lon="5.46864">
        <ele>538.5</ele>
        <time>2021-09-06T07:53:16Z</time>
      </trkpt>
      <trkpt lat="44.6854" lon="5.46848">
        <ele>538.3</ele>
        <time>2021-09-06T07:53:18Z</time>
      </trkpt>
      <trkpt lat="44.68537" lon="5.46841">
        <ele>538.2</ele>
        <time>2021-09-06T07:53:19Z</time>
      </trkpt>
      <trkpt lat="44.6853" lon="5.46827">
        <ele>538.1</ele>
        <time>2021-09-06T07:53:21Z</time>
      </trkpt>
      <trkpt lat="44.68527" lon="5.4682">
        <ele>538</ele>
        <time>2021-09-06T07:53:22Z</time>
      </trkpt>
      <trkpt lat="44.68524" lon="5.46807">
        <ele>537.9</ele>
        <time>2021-09-06T07:53:24Z</time>
      </trkpt>
      <trkpt lat="44.68524" lon="5.468">
        <ele>537.9</ele>
        <time>2021-09-06T07:53:25Z</time>
      </trkpt>
      <trkpt lat="44.68522" lon="5.46793">
        <ele>537.8</ele>
        <time>2021-09-06T07:53:27Z</time>
      </trkpt>
      <trkpt lat="44.68518" lon="5.46787">
        <ele>537.8</ele>
        <time>2021-09-06T07:53:28Z</time>
      </trkpt>
      <trkpt lat="44.6851" lon="5.46772">
        <ele>537.5</ele>
        <time>2021-09-06T07:53:30Z</time>
      </trkpt>
      <trkpt lat="44.68508" lon="5.46765">
        <ele>537.4</ele>
        <time>2021-09-06T07:53:32Z</time>
      </trkpt>
      <trkpt lat="44.68507" lon="5.46761">
        <ele>537.4</ele>
        <time>2021-09-06T07:53:33Z</time>
      </trkpt>
      <trkpt lat="44.68507" lon="5.4676">
        <ele>537.4</ele>
        <time>2021-09-06T07:53:34Z</time>
      </trkpt>
      <trkpt lat="44.68505" lon="5.46747">
        <ele>537.3</ele>
        <time>2021-09-06T07:53:35Z</time>
      </trkpt>
      <trkpt lat="44.6849" lon="5.46649">
        <ele>536.6</ele>
        <time>2021-09-06T07:53:47Z</time>
      </trkpt>
      <trkpt lat="44.68485" lon="5.46623">
        <ele>536.3</ele>
        <time>2021-09-06T07:53:49Z</time>
      </trkpt>
      <trkpt lat="44.68482" lon="5.46603">
        <ele>536.2</ele>
        <time>2021-09-06T07:53:51Z</time>
      </trkpt>
      <trkpt lat="44.6848" lon="5.46595">
        <ele>536.1</ele>
        <time>2021-09-06T07:53:52Z</time>
      </trkpt>
      <trkpt lat="44.68478" lon="5.46587">
        <ele>536</ele>
        <time>2021-09-06T07:53:53Z</time>
      </trkpt>
      <trkpt lat="44.68477" lon="5.46572">
        <ele>535.9</ele>
        <time>2021-09-06T07:53:55Z</time>
      </trkpt>
      <trkpt lat="44.68473" lon="5.46556">
        <ele>535.7</ele>
        <time>2021-09-06T07:53:57Z</time>
      </trkpt>
      <trkpt lat="44.68472" lon="5.46548">
        <ele>535.7</ele>
        <time>2021-09-06T07:53:58Z</time>
      </trkpt>
      <trkpt lat="44.68471" lon="5.4654">
        <ele>535.6</ele>
        <time>2021-09-06T07:53:59Z</time>
      </trkpt>
      <trkpt lat="44.68471" lon="5.46525">
        <ele>535.4</ele>
        <time>2021-09-06T07:54:01Z</time>
      </trkpt>
      <trkpt lat="44.68471" lon="5.46517">
        <ele>535.3</ele>
        <time>2021-09-06T07:54:02Z</time>
      </trkpt>
      <trkpt lat="44.6847" lon="5.46504">
        <ele>535.1</ele>
        <time>2021-09-06T07:54:04Z</time>
      </trkpt>
      <trkpt lat="44.68469" lon="5.46497">
        <ele>535</ele>
        <time>2021-09-06T07:54:05Z</time>
      </trkpt>
      <trkpt lat="44.68465" lon="5.46481">
        <ele>534.9</ele>
        <time>2021-09-06T07:54:07Z</time>
      </trkpt>
      <trkpt lat="44.68463" lon="5.46473">
        <ele>534.8</ele>
        <time>2021-09-06T07:54:08Z</time>
      </trkpt>
      <trkpt lat="44.68462" lon="5.46465">
        <ele>534.7</ele>
        <time>2021-09-06T07:54:09Z</time>
      </trkpt>
      <trkpt lat="44.6846" lon="5.4645">
        <ele>534.6</ele>
        <time>2021-09-06T07:54:11Z</time>
      </trkpt>
      <trkpt lat="44.68461" lon="5.46435">
        <ele>534.4</ele>
        <time>2021-09-06T07:54:13Z</time>
      </trkpt>
      <trkpt lat="44.68461" lon="5.46428">
        <ele>534.3</ele>
        <time>2021-09-06T07:54:14Z</time>
      </trkpt>
      <trkpt lat="44.68461" lon="5.46412">
        <ele>534.2</ele>
        <time>2021-09-06T07:54:16Z</time>
      </trkpt>
      <trkpt lat="44.68459" lon="5.46397">
        <ele>534</ele>
        <time>2021-09-06T07:54:18Z</time>
      </trkpt>
      <trkpt lat="44.68459" lon="5.46389">
        <ele>533.9</ele>
        <time>2021-09-06T07:54:19Z</time>
      </trkpt>
      <trkpt lat="44.68458" lon="5.46382">
        <ele>533.8</ele>
        <time>2021-09-06T07:54:20Z</time>
      </trkpt>
      <trkpt lat="44.68456" lon="5.46366">
        <ele>533.6</ele>
        <time>2021-09-06T07:54:22Z</time>
      </trkpt>
      <trkpt lat="44.68456" lon="5.46358">
        <ele>533.5</ele>
        <time>2021-09-06T07:54:23Z</time>
      </trkpt>
      <trkpt lat="44.68454" lon="5.46342">
        <ele>533.3</ele>
        <time>2021-09-06T07:54:25Z</time>
      </trkpt>
      <trkpt lat="44.68453" lon="5.46335">
        <ele>533.2</ele>
        <time>2021-09-06T07:54:26Z</time>
      </trkpt>
      <trkpt lat="44.68452" lon="5.46319">
        <ele>533.1</ele>
        <time>2021-09-06T07:54:28Z</time>
      </trkpt>
      <trkpt lat="44.6845" lon="5.46302">
        <ele>532.9</ele>
        <time>2021-09-06T07:54:30Z</time>
      </trkpt>
      <trkpt lat="44.68448" lon="5.46293">
        <ele>532.9</ele>
        <time>2021-09-06T07:54:31Z</time>
      </trkpt>
      <trkpt lat="44.68447" lon="5.46285">
        <ele>532.8</ele>
        <time>2021-09-06T07:54:32Z</time>
      </trkpt>
      <trkpt lat="44.68448" lon="5.4627">
        <ele>532.7</ele>
        <time>2021-09-06T07:54:34Z</time>
      </trkpt>
      <trkpt lat="44.68448" lon="5.46262">
        <ele>532.7</ele>
        <time>2021-09-06T07:54:35Z</time>
      </trkpt>
      <trkpt lat="44.68448" lon="5.46246">
        <ele>532.5</ele>
        <time>2021-09-06T07:54:37Z</time>
      </trkpt>
      <trkpt lat="44.68446" lon="5.46238">
        <ele>532.5</ele>
        <time>2021-09-06T07:54:38Z</time>
      </trkpt>
      <trkpt lat="44.6844" lon="5.46222">
        <ele>532.2</ele>
        <time>2021-09-06T07:54:40Z</time>
      </trkpt>
      <trkpt lat="44.68439" lon="5.46214">
        <ele>532.1</ele>
        <time>2021-09-06T07:54:41Z</time>
      </trkpt>
      <trkpt lat="44.68437" lon="5.46205">
        <ele>532</ele>
        <time>2021-09-06T07:54:42Z</time>
      </trkpt>
      <trkpt lat="44.68436" lon="5.46196">
        <ele>531.9</ele>
        <time>2021-09-06T07:54:43Z</time>
      </trkpt>
      <trkpt lat="44.68434" lon="5.46187">
        <ele>531.9</ele>
        <time>2021-09-06T07:54:44Z</time>
      </trkpt>
      <trkpt lat="44.68432" lon="5.46176">
        <ele>531.7</ele>
        <time>2021-09-06T07:54:46Z</time>
      </trkpt>
      <trkpt lat="44.68431" lon="5.4616">
        <ele>531.6</ele>
        <time>2021-09-06T07:54:48Z</time>
      </trkpt>
      <trkpt lat="44.6843" lon="5.46152">
        <ele>531.5</ele>
        <time>2021-09-06T07:54:49Z</time>
      </trkpt>
      <trkpt lat="44.6843" lon="5.46145">
        <ele>531.5</ele>
        <time>2021-09-06T07:54:50Z</time>
      </trkpt>
      <trkpt lat="44.68432" lon="5.46132">
        <ele>531.3</ele>
        <time>2021-09-06T07:54:52Z</time>
      </trkpt>
      <trkpt lat="44.68433" lon="5.46125">
        <ele>531.3</ele>
        <time>2021-09-06T07:54:53Z</time>
      </trkpt>
      <trkpt lat="44.68435" lon="5.46111">
        <ele>531.1</ele>
        <time>2021-09-06T07:54:55Z</time>
      </trkpt>
      <trkpt lat="44.68434" lon="5.46103">
        <ele>531.1</ele>
        <time>2021-09-06T07:54:56Z</time>
      </trkpt>
      <trkpt lat="44.68434" lon="5.46095">
        <ele>531</ele>
        <time>2021-09-06T07:54:57Z</time>
      </trkpt>
      <trkpt lat="44.6843" lon="5.46082">
        <ele>530.9</ele>
        <time>2021-09-06T07:54:59Z</time>
      </trkpt>
      <trkpt lat="44.6843" lon="5.46075">
        <ele>530.8</ele>
        <time>2021-09-06T07:55:00Z</time>
      </trkpt>
      <trkpt lat="44.68429" lon="5.46067">
        <ele>530.7</ele>
        <time>2021-09-06T07:55:01Z</time>
      </trkpt>
      <trkpt lat="44.68427" lon="5.46051">
        <ele>530.5</ele>
        <time>2021-09-06T07:55:03Z</time>
      </trkpt>
      <trkpt lat="44.68427" lon="5.46044">
        <ele>530.5</ele>
        <time>2021-09-06T07:55:04Z</time>
      </trkpt>
      <trkpt lat="44.68428" lon="5.46038">
        <ele>530.4</ele>
        <time>2021-09-06T07:55:05Z</time>
      </trkpt>
      <trkpt lat="44.68428" lon="5.46025">
        <ele>530.3</ele>
        <time>2021-09-06T07:55:07Z</time>
      </trkpt>
      <trkpt lat="44.68428" lon="5.46018">
        <ele>530.3</ele>
        <time>2021-09-06T07:55:08Z</time>
      </trkpt>
      <trkpt lat="44.68426" lon="5.46005">
        <ele>530.1</ele>
        <time>2021-09-06T07:55:10Z</time>
      </trkpt>
      <trkpt lat="44.68422" lon="5.4599">
        <ele>530</ele>
        <time>2021-09-06T07:55:12Z</time>
      </trkpt>
      <trkpt lat="44.68416" lon="5.45977">
        <ele>529.8</ele>
        <time>2021-09-06T07:55:14Z</time>
      </trkpt>
      <trkpt lat="44.68413" lon="5.45971">
        <ele>529.7</ele>
        <time>2021-09-06T07:55:15Z</time>
      </trkpt>
      <trkpt lat="44.68411" lon="5.45964">
        <ele>529.6</ele>
        <time>2021-09-06T07:55:16Z</time>
      </trkpt>
      <trkpt lat="44.68404" lon="5.45948">
        <ele>529.3</ele>
        <time>2021-09-06T07:55:18Z</time>
      </trkpt>
      <trkpt lat="44.68401" lon="5.45941">
        <ele>529.2</ele>
        <time>2021-09-06T07:55:19Z</time>
      </trkpt>
      <trkpt lat="44.684" lon="5.45934">
        <ele>529.1</ele>
        <time>2021-09-06T07:55:20Z</time>
      </trkpt>
      <trkpt lat="44.68394" lon="5.4592">
        <ele>528.9</ele>
        <time>2021-09-06T07:55:22Z</time>
      </trkpt>
      <trkpt lat="44.68391" lon="5.45913">
        <ele>528.8</ele>
        <time>2021-09-06T07:55:23Z</time>
      </trkpt>
      <trkpt lat="44.68389" lon="5.45899">
        <ele>528.7</ele>
        <time>2021-09-06T07:55:25Z</time>
      </trkpt>
      <trkpt lat="44.68388" lon="5.45893">
        <ele>528.7</ele>
        <time>2021-09-06T07:55:26Z</time>
      </trkpt>
      <trkpt lat="44.68386" lon="5.45879">
        <ele>528.6</ele>
        <time>2021-09-06T07:55:28Z</time>
      </trkpt>
      <trkpt lat="44.68385" lon="5.45872">
        <ele>528.5</ele>
        <time>2021-09-06T07:55:29Z</time>
      </trkpt>
      <trkpt lat="44.6838" lon="5.45859">
        <ele>528.5</ele>
        <time>2021-09-06T07:55:31Z</time>
      </trkpt>
      <trkpt lat="44.68377" lon="5.45852">
        <ele>528.4</ele>
        <time>2021-09-06T07:55:32Z</time>
      </trkpt>
      <trkpt lat="44.68372" lon="5.45836">
        <ele>528.3</ele>
        <time>2021-09-06T07:55:34Z</time>
      </trkpt>
      <trkpt lat="44.6837" lon="5.45829">
        <ele>528.3</ele>
        <time>2021-09-06T07:55:35Z</time>
      </trkpt>
      <trkpt lat="44.68369" lon="5.45816">
        <ele>528.2</ele>
        <time>2021-09-06T07:55:37Z</time>
      </trkpt>
      <trkpt lat="44.68369" lon="5.45809">
        <ele>528.2</ele>
        <time>2021-09-06T07:55:38Z</time>
      </trkpt>
      <trkpt lat="44.68369" lon="5.45796">
        <ele>528.1</ele>
        <time>2021-09-06T07:55:40Z</time>
      </trkpt>
      <trkpt lat="44.68368" lon="5.45792">
        <ele>528.1</ele>
        <time>2021-09-06T07:55:41Z</time>
      </trkpt>
      <trkpt lat="44.68367" lon="5.45782">
        <ele>527.8</ele>
        <time>2021-09-06T07:55:43Z</time>
      </trkpt>
      <trkpt lat="44.68367" lon="5.45778">
        <ele>527.6</ele>
        <time>2021-09-06T07:55:44Z</time>
      </trkpt>
      <trkpt lat="44.68364" lon="5.45774">
        <ele>527.5</ele>
        <time>2021-09-06T07:55:46Z</time>
      </trkpt>
      <trkpt lat="44.68363" lon="5.45774">
        <ele>527.4</ele>
        <time>2021-09-06T07:55:47Z</time>
      </trkpt>
      <trkpt lat="44.68361" lon="5.45774">
        <ele>527.4</ele>
        <time>2021-09-06T07:55:49Z</time>
      </trkpt>
      <trkpt lat="44.6836" lon="5.45773">
        <ele>527.3</ele>
        <time>2021-09-06T07:55:50Z</time>
      </trkpt>
      <trkpt lat="44.68358" lon="5.45773">
        <ele>527.3</ele>
        <time>2021-09-06T07:55:52Z</time>
      </trkpt>
      <trkpt lat="44.68357" lon="5.45773">
        <ele>527.2</ele>
        <time>2021-09-06T07:55:53Z</time>
      </trkpt>
      <trkpt lat="44.68355" lon="5.45773">
        <ele>527.1</ele>
        <time>2021-09-06T07:55:55Z</time>
      </trkpt>
      <trkpt lat="44.68354" lon="5.45772">
        <ele>527.1</ele>
        <time>2021-09-06T07:56:25Z</time>
      </trkpt>
      <trkpt lat="44.68352" lon="5.45772">
        <ele>527</ele>
        <time>2021-09-06T07:56:26Z</time>
      </trkpt>
      <trkpt lat="44.68348" lon="5.45767">
        <ele>526.9</ele>
        <time>2021-09-06T07:56:27Z</time>
      </trkpt>
      <trkpt lat="44.68343" lon="5.4576">
        <ele>526.6</ele>
        <time>2021-09-06T07:56:29Z</time>
      </trkpt>
      <trkpt lat="44.68338" lon="5.45753">
        <ele>526.4</ele>
        <time>2021-09-06T07:56:30Z</time>
      </trkpt>
      <trkpt lat="44.68334" lon="5.45744">
        <ele>526</ele>
        <time>2021-09-06T07:56:32Z</time>
      </trkpt>
      <trkpt lat="44.68331" lon="5.45733">
        <ele>525.5</ele>
        <time>2021-09-06T07:56:33Z</time>
      </trkpt>
      <trkpt lat="44.68326" lon="5.45718">
        <ele>525</ele>
        <time>2021-09-06T07:56:35Z</time>
      </trkpt>
      <trkpt lat="44.68324" lon="5.45704">
        <ele>524.6</ele>
        <time>2021-09-06T07:56:37Z</time>
      </trkpt>
      <trkpt lat="44.68324" lon="5.45697">
        <ele>524.5</ele>
        <time>2021-09-06T07:56:39Z</time>
      </trkpt>
      <trkpt lat="44.68324" lon="5.45692">
        <ele>524.5</ele>
        <time>2021-09-06T07:56:40Z</time>
      </trkpt>
      <trkpt lat="44.68324" lon="5.45688">
        <ele>524.4</ele>
        <time>2021-09-06T07:56:41Z</time>
      </trkpt>
      <trkpt lat="44.68324" lon="5.45683">
        <ele>524.4</ele>
        <time>2021-09-06T07:56:43Z</time>
      </trkpt>
      <trkpt lat="44.68324" lon="5.45682">
        <ele>524.3</ele>
        <time>2021-09-06T07:56:44Z</time>
      </trkpt>
      <trkpt lat="44.68323" lon="5.45677">
        <ele>524.3</ele>
        <time>2021-09-06T07:56:45Z</time>
      </trkpt>
      <trkpt lat="44.68322" lon="5.45675">
        <ele>524.3</ele>
        <time>2021-09-06T07:56:46Z</time>
      </trkpt>
      <trkpt lat="44.6832" lon="5.45672">
        <ele>524.2</ele>
        <time>2021-09-06T07:56:48Z</time>
      </trkpt>
      <trkpt lat="44.68318" lon="5.45668">
        <ele>524.2</ele>
        <time>2021-09-06T07:56:49Z</time>
      </trkpt>
      <trkpt lat="44.68317" lon="5.45662">
        <ele>524.1</ele>
        <time>2021-09-06T07:56:50Z</time>
      </trkpt>
      <trkpt lat="44.68315" lon="5.45658">
        <ele>524.1</ele>
        <time>2021-09-06T07:56:51Z</time>
      </trkpt>
      <trkpt lat="44.68312" lon="5.45651">
        <ele>524</ele>
        <time>2021-09-06T07:56:53Z</time>
      </trkpt>
      <trkpt lat="44.68311" lon="5.45646">
        <ele>524</ele>
        <time>2021-09-06T07:56:54Z</time>
      </trkpt>
      <trkpt lat="44.6831" lon="5.45642">
        <ele>523.9</ele>
        <time>2021-09-06T07:56:55Z</time>
      </trkpt>
      <trkpt lat="44.68307" lon="5.45636">
        <ele>523.9</ele>
        <time>2021-09-06T07:56:57Z</time>
      </trkpt>
      <trkpt lat="44.68304" lon="5.45629">
        <ele>523.8</ele>
        <time>2021-09-06T07:56:58Z</time>
      </trkpt>
      <trkpt lat="44.68301" lon="5.45624">
        <ele>523.7</ele>
        <time>2021-09-06T07:56:59Z</time>
      </trkpt>
      <trkpt lat="44.68299" lon="5.45619">
        <ele>523.7</ele>
        <time>2021-09-06T07:57:01Z</time>
      </trkpt>
      <trkpt lat="44.68297" lon="5.45613">
        <ele>523.6</ele>
        <time>2021-09-06T07:57:02Z</time>
      </trkpt>
      <trkpt lat="44.68295" lon="5.45608">
        <ele>523.5</ele>
        <time>2021-09-06T07:57:03Z</time>
      </trkpt>
      <trkpt lat="44.68293" lon="5.45602">
        <ele>523.5</ele>
        <time>2021-09-06T07:57:05Z</time>
      </trkpt>
      <trkpt lat="44.68291" lon="5.45598">
        <ele>523.4</ele>
        <time>2021-09-06T07:57:06Z</time>
      </trkpt>
      <trkpt lat="44.6829" lon="5.45593">
        <ele>523.4</ele>
        <time>2021-09-06T07:57:07Z</time>
      </trkpt>
      <trkpt lat="44.68289" lon="5.45589">
        <ele>523.4</ele>
        <time>2021-09-06T07:57:08Z</time>
      </trkpt>
      <trkpt lat="44.68286" lon="5.45582">
        <ele>523.3</ele>
        <time>2021-09-06T07:57:09Z</time>
      </trkpt>
      <trkpt lat="44.68283" lon="5.45575">
        <ele>523.3</ele>
        <time>2021-09-06T07:57:11Z</time>
      </trkpt>
      <trkpt lat="44.68281" lon="5.4557">
        <ele>523.2</ele>
        <time>2021-09-06T07:57:12Z</time>
      </trkpt>
      <trkpt lat="44.68281" lon="5.45562">
        <ele>523.2</ele>
        <time>2021-09-06T07:57:13Z</time>
      </trkpt>
      <trkpt lat="44.68281" lon="5.45557">
        <ele>523.2</ele>
        <time>2021-09-06T07:57:14Z</time>
      </trkpt>
      <trkpt lat="44.6828" lon="5.4555">
        <ele>523.1</ele>
        <time>2021-09-06T07:57:16Z</time>
      </trkpt>
      <trkpt lat="44.68279" lon="5.45545">
        <ele>523.1</ele>
        <time>2021-09-06T07:57:17Z</time>
      </trkpt>
      <trkpt lat="44.68276" lon="5.45539">
        <ele>523</ele>
        <time>2021-09-06T07:57:19Z</time>
      </trkpt>
      <trkpt lat="44.68274" lon="5.45534">
        <ele>523</ele>
        <time>2021-09-06T07:57:20Z</time>
      </trkpt>
      <trkpt lat="44.68272" lon="5.45528">
        <ele>522.9</ele>
        <time>2021-09-06T07:57:21Z</time>
      </trkpt>
      <trkpt lat="44.6827" lon="5.45523">
        <ele>522.9</ele>
        <time>2021-09-06T07:57:22Z</time>
      </trkpt>
      <trkpt lat="44.68267" lon="5.45519">
        <ele>522.8</ele>
        <time>2021-09-06T07:57:23Z</time>
      </trkpt>
      <trkpt lat="44.68264" lon="5.45512">
        <ele>522.7</ele>
        <time>2021-09-06T07:57:25Z</time>
      </trkpt>
      <trkpt lat="44.68261" lon="5.45507">
        <ele>522.6</ele>
        <time>2021-09-06T07:57:26Z</time>
      </trkpt>
      <trkpt lat="44.68258" lon="5.455">
        <ele>522.4</ele>
        <time>2021-09-06T07:57:28Z</time>
      </trkpt>
      <trkpt lat="44.68257" lon="5.45495">
        <ele>522.3</ele>
        <time>2021-09-06T07:57:29Z</time>
      </trkpt>
      <trkpt lat="44.68256" lon="5.4549">
        <ele>522.2</ele>
        <time>2021-09-06T07:57:30Z</time>
      </trkpt>
      <trkpt lat="44.68255" lon="5.45483">
        <ele>522.1</ele>
        <time>2021-09-06T07:57:31Z</time>
      </trkpt>
      <trkpt lat="44.68254" lon="5.45474">
        <ele>521.9</ele>
        <time>2021-09-06T07:57:32Z</time>
      </trkpt>
      <trkpt lat="44.68252" lon="5.45468">
        <ele>521.7</ele>
        <time>2021-09-06T07:57:34Z</time>
      </trkpt>
      <trkpt lat="44.68252" lon="5.45463">
        <ele>521.6</ele>
        <time>2021-09-06T07:57:35Z</time>
      </trkpt>
      <trkpt lat="44.68254" lon="5.45456">
        <ele>521.4</ele>
        <time>2021-09-06T07:57:36Z</time>
      </trkpt>
      <trkpt lat="44.68255" lon="5.45448">
        <ele>521.2</ele>
        <time>2021-09-06T07:57:38Z</time>
      </trkpt>
      <trkpt lat="44.68255" lon="5.45438">
        <ele>521</ele>
        <time>2021-09-06T07:57:39Z</time>
      </trkpt>
      <trkpt lat="44.68255" lon="5.4543">
        <ele>520.8</ele>
        <time>2021-09-06T07:57:40Z</time>
      </trkpt>
      <trkpt lat="44.68255" lon="5.45418">
        <ele>520.6</ele>
        <time>2021-09-06T07:57:42Z</time>
      </trkpt>
      <trkpt lat="44.68253" lon="5.45411">
        <ele>520.4</ele>
        <time>2021-09-06T07:57:43Z</time>
      </trkpt>
      <trkpt lat="44.68253" lon="5.45403">
        <ele>520.2</ele>
        <time>2021-09-06T07:57:44Z</time>
      </trkpt>
      <trkpt lat="44.68251" lon="5.45394">
        <ele>520</ele>
        <time>2021-09-06T07:57:46Z</time>
      </trkpt>
      <trkpt lat="44.68248" lon="5.45388">
        <ele>519.8</ele>
        <time>2021-09-06T07:57:47Z</time>
      </trkpt>
      <trkpt lat="44.68249" lon="5.4538">
        <ele>519.5</ele>
        <time>2021-09-06T07:57:49Z</time>
      </trkpt>
      <trkpt lat="44.68251" lon="5.45371">
        <ele>519.3</ele>
        <time>2021-09-06T07:57:50Z</time>
      </trkpt>
      <trkpt lat="44.68252" lon="5.45364">
        <ele>519</ele>
        <time>2021-09-06T07:57:51Z</time>
      </trkpt>
      <trkpt lat="44.68251" lon="5.45356">
        <ele>518.8</ele>
        <time>2021-09-06T07:57:53Z</time>
      </trkpt>
      <trkpt lat="44.68251" lon="5.45347">
        <ele>518.6</ele>
        <time>2021-09-06T07:57:54Z</time>
      </trkpt>
      <trkpt lat="44.68251" lon="5.45341">
        <ele>518.5</ele>
        <time>2021-09-06T07:57:55Z</time>
      </trkpt>
      <trkpt lat="44.6825" lon="5.45329">
        <ele>518.2</ele>
        <time>2021-09-06T07:57:57Z</time>
      </trkpt>
      <trkpt lat="44.68251" lon="5.45323">
        <ele>518</ele>
        <time>2021-09-06T07:57:58Z</time>
      </trkpt>
      <trkpt lat="44.68252" lon="5.45313">
        <ele>517.7</ele>
        <time>2021-09-06T07:58:00Z</time>
      </trkpt>
      <trkpt lat="44.68253" lon="5.45305">
        <ele>517.5</ele>
        <time>2021-09-06T07:58:01Z</time>
      </trkpt>
      <trkpt lat="44.68254" lon="5.453">
        <ele>517.3</ele>
        <time>2021-09-06T07:58:02Z</time>
      </trkpt>
      <trkpt lat="44.68254" lon="5.45292">
        <ele>517.1</ele>
        <time>2021-09-06T07:58:04Z</time>
      </trkpt>
      <trkpt lat="44.68253" lon="5.45284">
        <ele>517</ele>
        <time>2021-09-06T07:58:05Z</time>
      </trkpt>
      <trkpt lat="44.68252" lon="5.4528">
        <ele>516.9</ele>
        <time>2021-09-06T07:58:06Z</time>
      </trkpt>
      <trkpt lat="44.6825" lon="5.45272">
        <ele>516.7</ele>
        <time>2021-09-06T07:58:07Z</time>
      </trkpt>
      <trkpt lat="44.68249" lon="5.45267">
        <ele>516.6</ele>
        <time>2021-09-06T07:58:09Z</time>
      </trkpt>
      <trkpt lat="44.68247" lon="5.45263">
        <ele>516.4</ele>
        <time>2021-09-06T07:58:10Z</time>
      </trkpt>
      <trkpt lat="44.68245" lon="5.45258">
        <ele>516.3</ele>
        <time>2021-09-06T07:58:12Z</time>
      </trkpt>
      <trkpt lat="44.68243" lon="5.45253">
        <ele>516.2</ele>
        <time>2021-09-06T07:58:14Z</time>
      </trkpt>
      <trkpt lat="44.68241" lon="5.45249">
        <ele>516.1</ele>
        <time>2021-09-06T07:58:15Z</time>
      </trkpt>
      <trkpt lat="44.6824" lon="5.45244">
        <ele>516.1</ele>
        <time>2021-09-06T07:58:17Z</time>
      </trkpt>
      <trkpt lat="44.68238" lon="5.45239">
        <ele>516</ele>
        <time>2021-09-06T07:58:44Z</time>
      </trkpt>
      <trkpt lat="44.68236" lon="5.45234">
        <ele>515.9</ele>
        <time>2021-09-06T07:58:45Z</time>
      </trkpt>
      <trkpt lat="44.68231" lon="5.45215">
        <ele>515.7</ele>
        <time>2021-09-06T07:58:46Z</time>
      </trkpt>
      <trkpt lat="44.68228" lon="5.45198">
        <ele>515.5</ele>
        <time>2021-09-06T07:58:48Z</time>
      </trkpt>
      <trkpt lat="44.68227" lon="5.45191">
        <ele>515.4</ele>
        <time>2021-09-06T07:58:49Z</time>
      </trkpt>
      <trkpt lat="44.68225" lon="5.45184">
        <ele>515.4</ele>
        <time>2021-09-06T07:58:50Z</time>
      </trkpt>
      <trkpt lat="44.68223" lon="5.45169">
        <ele>515.3</ele>
        <time>2021-09-06T07:58:52Z</time>
      </trkpt>
      <trkpt lat="44.68221" lon="5.45162">
        <ele>515.3</ele>
        <time>2021-09-06T07:58:53Z</time>
      </trkpt>
      <trkpt lat="44.68219" lon="5.45156">
        <ele>515.3</ele>
        <time>2021-09-06T07:58:54Z</time>
      </trkpt>
      <trkpt lat="44.68218" lon="5.45148">
        <ele>515.3</ele>
        <time>2021-09-06T07:58:56Z</time>
      </trkpt>
      <trkpt lat="44.68216" lon="5.45143">
        <ele>515.4</ele>
        <time>2021-09-06T07:58:57Z</time>
      </trkpt>
      <trkpt lat="44.68212" lon="5.45133">
        <ele>515.6</ele>
        <time>2021-09-06T07:58:59Z</time>
      </trkpt>
      <trkpt lat="44.68208" lon="5.45128">
        <ele>515.7</ele>
        <time>2021-09-06T07:59:00Z</time>
      </trkpt>
      <trkpt lat="44.68205" lon="5.45124">
        <ele>515.8</ele>
        <time>2021-09-06T07:59:01Z</time>
      </trkpt>
      <trkpt lat="44.68204" lon="5.45119">
        <ele>515.9</ele>
        <time>2021-09-06T07:59:02Z</time>
      </trkpt>
      <trkpt lat="44.68201" lon="5.45113">
        <ele>516.1</ele>
        <time>2021-09-06T07:59:04Z</time>
      </trkpt>
      <trkpt lat="44.68199" lon="5.45108">
        <ele>516.2</ele>
        <time>2021-09-06T07:59:05Z</time>
      </trkpt>
      <trkpt lat="44.68197" lon="5.45105">
        <ele>516.3</ele>
        <time>2021-09-06T07:59:06Z</time>
      </trkpt>
      <trkpt lat="44.68192" lon="5.45101">
        <ele>516.4</ele>
        <time>2021-09-06T07:59:08Z</time>
      </trkpt>
      <trkpt lat="44.68189" lon="5.45097">
        <ele>516.5</ele>
        <time>2021-09-06T07:59:09Z</time>
      </trkpt>
      <trkpt lat="44.68186" lon="5.45094">
        <ele>516.5</ele>
        <time>2021-09-06T07:59:10Z</time>
      </trkpt>
      <trkpt lat="44.68182" lon="5.45091">
        <ele>516.6</ele>
        <time>2021-09-06T07:59:11Z</time>
      </trkpt>
      <trkpt lat="44.68179" lon="5.45088">
        <ele>516.6</ele>
        <time>2021-09-06T07:59:12Z</time>
      </trkpt>
      <trkpt lat="44.6817" lon="5.45086">
        <ele>516.8</ele>
        <time>2021-09-06T07:59:14Z</time>
      </trkpt>
      <trkpt lat="44.68164" lon="5.45086">
        <ele>516.9</ele>
        <time>2021-09-06T07:59:15Z</time>
      </trkpt>
      <trkpt lat="44.68158" lon="5.45087">
        <ele>516.9</ele>
        <time>2021-09-06T07:59:17Z</time>
      </trkpt>
      <trkpt lat="44.68155" lon="5.45089">
        <ele>516.9</ele>
        <time>2021-09-06T07:59:18Z</time>
      </trkpt>
      <trkpt lat="44.68158" lon="5.45091">
        <ele>516.8</ele>
        <time>2021-09-06T07:59:19Z</time>
      </trkpt>
      <trkpt lat="44.6816" lon="5.45092">
        <ele>516.8</ele>
        <time>2021-09-06T07:59:20Z</time>
      </trkpt>
      <trkpt lat="44.68164" lon="5.45097">
        <ele>516.7</ele>
        <time>2021-09-06T07:59:22Z</time>
      </trkpt>
      <trkpt lat="44.68167" lon="5.45099">
        <ele>516.7</ele>
        <time>2021-09-06T07:59:23Z</time>
      </trkpt>
      <trkpt lat="44.68176" lon="5.45106">
        <ele>516.5</ele>
        <time>2021-09-06T07:59:25Z</time>
      </trkpt>
      <trkpt lat="44.68183" lon="5.45116">
        <ele>516.4</ele>
        <time>2021-09-06T07:59:27Z</time>
      </trkpt>
      <trkpt lat="44.68187" lon="5.45122">
        <ele>516.3</ele>
        <time>2021-09-06T07:59:28Z</time>
      </trkpt>
      <trkpt lat="44.68191" lon="5.45127">
        <ele>516.2</ele>
        <time>2021-09-06T07:59:29Z</time>
      </trkpt>
      <trkpt lat="44.68195" lon="5.45133">
        <ele>516</ele>
        <time>2021-09-06T07:59:31Z</time>
      </trkpt>
      <trkpt lat="44.68199" lon="5.45137">
        <ele>515.9</ele>
        <time>2021-09-06T07:59:32Z</time>
      </trkpt>
      <trkpt lat="44.68204" lon="5.45139">
        <ele>515.8</ele>
        <time>2021-09-06T07:59:33Z</time>
      </trkpt>
      <trkpt lat="44.68208" lon="5.4514">
        <ele>515.7</ele>
        <time>2021-09-06T07:59:34Z</time>
      </trkpt>
      <trkpt lat="44.68212" lon="5.45137">
        <ele>515.7</ele>
        <time>2021-09-06T07:59:36Z</time>
      </trkpt>
      <trkpt lat="44.68215" lon="5.45134">
        <ele>515.8</ele>
        <time>2021-09-06T07:59:37Z</time>
      </trkpt>
      <trkpt lat="44.68215" lon="5.45133">
        <ele>515.8</ele>
        <time>2021-09-06T07:59:38Z</time>
      </trkpt>
      <trkpt lat="44.68217" lon="5.45129">
        <ele>515.9</ele>
        <time>2021-09-06T07:59:40Z</time>
      </trkpt>
      <trkpt lat="44.68216" lon="5.45126">
        <ele>516</ele>
        <time>2021-09-06T07:59:41Z</time>
      </trkpt>
      <trkpt lat="44.68216" lon="5.45125">
        <ele>516</ele>
        <time>2021-09-06T07:59:43Z</time>
      </trkpt>
      <trkpt lat="44.68215" lon="5.45124">
        <ele>516.1</ele>
        <time>2021-09-06T07:59:44Z</time>
      </trkpt>
      <trkpt lat="44.68215" lon="5.45123">
        <ele>516.1</ele>
        <time>2021-09-06T07:59:45Z</time>
      </trkpt>
      <trkpt lat="44.68214" lon="5.45121">
        <ele>516.1</ele>
        <time>2021-09-06T07:59:46Z</time>
      </trkpt>
      <trkpt lat="44.68214" lon="5.45117">
        <ele>516.2</ele>
        <time>2021-09-06T07:59:48Z</time>
      </trkpt>
      <trkpt lat="44.68214" lon="5.45115">
        <ele>516.3</ele>
        <time>2021-09-06T07:59:49Z</time>
      </trkpt>
      <trkpt lat="44.68214" lon="5.4511">
        <ele>516.4</ele>
        <time>2021-09-06T07:59:50Z</time>
      </trkpt>
      <trkpt lat="44.68214" lon="5.45107">
        <ele>516.4</ele>
        <time>2021-09-06T07:59:51Z</time>
      </trkpt>
      <trkpt lat="44.68213" lon="5.451">
        <ele>516.5</ele>
        <time>2021-09-06T07:59:53Z</time>
      </trkpt>
      <trkpt lat="44.68212" lon="5.45091">
        <ele>516.6</ele>
        <time>2021-09-06T07:59:54Z</time>
      </trkpt>
      <trkpt lat="44.68211" lon="5.45087">
        <ele>516.6</ele>
        <time>2021-09-06T07:59:55Z</time>
      </trkpt>
      <trkpt lat="44.68211" lon="5.4508">
        <ele>516.7</ele>
        <time>2021-09-06T07:59:57Z</time>
      </trkpt>
      <trkpt lat="44.6821" lon="5.45076">
        <ele>516.8</ele>
        <time>2021-09-06T07:59:58Z</time>
      </trkpt>
      <trkpt lat="44.6821" lon="5.45072">
        <ele>516.8</ele>
        <time>2021-09-06T07:59:59Z</time>
      </trkpt>
      <trkpt lat="44.6821" lon="5.45067">
        <ele>516.9</ele>
        <time>2021-09-06T08:00:01Z</time>
      </trkpt>
      <trkpt lat="44.68196" lon="5.45028">
        <ele>516.9</ele>
        <time>2021-09-06T08:00:14Z</time>
      </trkpt>
      <trkpt lat="44.68195" lon="5.45021">
        <ele>516.9</ele>
        <time>2021-09-06T08:00:15Z</time>
      </trkpt>
      <trkpt lat="44.68194" lon="5.45014">
        <ele>516.9</ele>
        <time>2021-09-06T08:00:16Z</time>
      </trkpt>
      <trkpt lat="44.68193" lon="5.45002">
        <ele>516.8</ele>
        <time>2021-09-06T08:00:18Z</time>
      </trkpt>
      <trkpt lat="44.68193" lon="5.44996">
        <ele>516.8</ele>
        <time>2021-09-06T08:00:19Z</time>
      </trkpt>
      <trkpt lat="44.68193" lon="5.44989">
        <ele>516.7</ele>
        <time>2021-09-06T08:00:20Z</time>
      </trkpt>
      <trkpt lat="44.68192" lon="5.44981">
        <ele>516.7</ele>
        <time>2021-09-06T08:00:22Z</time>
      </trkpt>
      <trkpt lat="44.6819" lon="5.44975">
        <ele>516.6</ele>
        <time>2021-09-06T08:00:23Z</time>
      </trkpt>
      <trkpt lat="44.68189" lon="5.4497">
        <ele>516.6</ele>
        <time>2021-09-06T08:00:24Z</time>
      </trkpt>
      <trkpt lat="44.68188" lon="5.44962">
        <ele>516.5</ele>
        <time>2021-09-06T08:00:25Z</time>
      </trkpt>
      <trkpt lat="44.68188" lon="5.44954">
        <ele>516.5</ele>
        <time>2021-09-06T08:00:27Z</time>
      </trkpt>
      <trkpt lat="44.68187" lon="5.44949">
        <ele>516.4</ele>
        <time>2021-09-06T08:00:28Z</time>
      </trkpt>
      <trkpt lat="44.68186" lon="5.44945">
        <ele>516.4</ele>
        <time>2021-09-06T08:00:29Z</time>
      </trkpt>
      <trkpt lat="44.68186" lon="5.44939">
        <ele>516.3</ele>
        <time>2021-09-06T08:00:31Z</time>
      </trkpt>
      <trkpt lat="44.68186" lon="5.44934">
        <ele>516.3</ele>
        <time>2021-09-06T08:00:32Z</time>
      </trkpt>
      <trkpt lat="44.68186" lon="5.44929">
        <ele>516.3</ele>
        <time>2021-09-06T08:00:34Z</time>
      </trkpt>
      <trkpt lat="44.68185" lon="5.44925">
        <ele>516.2</ele>
        <time>2021-09-06T08:00:35Z</time>
      </trkpt>
      <trkpt lat="44.68183" lon="5.44921">
        <ele>516.2</ele>
        <time>2021-09-06T08:00:36Z</time>
      </trkpt>
      <trkpt lat="44.68182" lon="5.44916">
        <ele>516.1</ele>
        <time>2021-09-06T08:00:37Z</time>
      </trkpt>
      <trkpt lat="44.68182" lon="5.44911">
        <ele>516.1</ele>
        <time>2021-09-06T08:00:38Z</time>
      </trkpt>
      <trkpt lat="44.6818" lon="5.44901">
        <ele>516.1</ele>
        <time>2021-09-06T08:00:40Z</time>
      </trkpt>
      <trkpt lat="44.68179" lon="5.44901">
        <ele>516.1</ele>
        <time>2021-09-06T08:00:41Z</time>
      </trkpt>
      <trkpt lat="44.68173" lon="5.44899">
        <ele>516.1</ele>
        <time>2021-09-06T08:00:43Z</time>
      </trkpt>
      <trkpt lat="44.68172" lon="5.44897">
        <ele>516.1</ele>
        <time>2021-09-06T08:00:44Z</time>
      </trkpt>
      <trkpt lat="44.6817" lon="5.44892">
        <ele>516.1</ele>
        <time>2021-09-06T08:00:46Z</time>
      </trkpt>
      <trkpt lat="44.6817" lon="5.4489">
        <ele>516.1</ele>
        <time>2021-09-06T08:00:47Z</time>
      </trkpt>
      <trkpt lat="44.68172" lon="5.44884">
        <ele>516.2</ele>
        <time>2021-09-06T08:00:49Z</time>
      </trkpt>
      <trkpt lat="44.68172" lon="5.44877">
        <ele>516.2</ele>
        <time>2021-09-06T08:00:51Z</time>
      </trkpt>
      <trkpt lat="44.68175" lon="5.44873">
        <ele>516.2</ele>
        <time>2021-09-06T08:00:52Z</time>
      </trkpt>
      <trkpt lat="44.68177" lon="5.44871">
        <ele>516.2</ele>
        <time>2021-09-06T08:00:53Z</time>
      </trkpt>
      <trkpt lat="44.68179" lon="5.44869">
        <ele>516.2</ele>
        <time>2021-09-06T08:00:54Z</time>
      </trkpt>
      <trkpt lat="44.68182" lon="5.44865">
        <ele>516.2</ele>
        <time>2021-09-06T08:00:56Z</time>
      </trkpt>
      <trkpt lat="44.68183" lon="5.44863">
        <ele>516.3</ele>
        <time>2021-09-06T08:00:57Z</time>
      </trkpt>
      <trkpt lat="44.68185" lon="5.4486">
        <ele>516.3</ele>
        <time>2021-09-06T08:00:59Z</time>
      </trkpt>
      <trkpt lat="44.68188" lon="5.44857">
        <ele>516.3</ele>
        <time>2021-09-06T08:01:00Z</time>
      </trkpt>
      <trkpt lat="44.68188" lon="5.44856">
        <ele>516.3</ele>
        <time>2021-09-06T08:01:01Z</time>
      </trkpt>
      <trkpt lat="44.68188" lon="5.44855">
        <ele>516.3</ele>
        <time>2021-09-06T08:01:02Z</time>
      </trkpt>
      <trkpt lat="44.68188" lon="5.44854">
        <ele>516.3</ele>
        <time>2021-09-06T08:01:04Z</time>
      </trkpt>
      <trkpt lat="44.68188" lon="5.44853">
        <ele>516.3</ele>
        <time>2021-09-06T08:01:05Z</time>
      </trkpt>
      <trkpt lat="44.68187" lon="5.44852">
        <ele>516.3</ele>
        <time>2021-09-06T08:01:06Z</time>
      </trkpt>
      <trkpt lat="44.68192" lon="5.44834">
        <ele>516.4</ele>
        <time>2021-09-06T08:01:08Z</time>
      </trkpt>
      <trkpt lat="44.68197" lon="5.44818">
        <ele>516.5</ele>
        <time>2021-09-06T08:01:09Z</time>
      </trkpt>
      <trkpt lat="44.68202" lon="5.44802">
        <ele>516.7</ele>
        <time>2021-09-06T08:01:40Z</time>
      </trkpt>
      <trkpt lat="44.68207" lon="5.44786">
        <ele>517.3</ele>
        <time>2021-09-06T08:01:41Z</time>
      </trkpt>
      <trkpt lat="44.68212" lon="5.44776">
        <ele>518.6</ele>
        <time>2021-09-06T08:01:42Z</time>
      </trkpt>
      <trkpt lat="44.68218" lon="5.44766">
        <ele>518.7</ele>
        <time>2021-09-06T08:01:43Z</time>
      </trkpt>
      <trkpt lat="44.68228" lon="5.44751">
        <ele>519</ele>
        <time>2021-09-06T08:01:45Z</time>
      </trkpt>
      <trkpt lat="44.6824" lon="5.44741">
        <ele>519.4</ele>
        <time>2021-09-06T08:01:47Z</time>
      </trkpt>
      <trkpt lat="44.68246" lon="5.44737">
        <ele>519.5</ele>
        <time>2021-09-06T08:01:48Z</time>
      </trkpt>
      <trkpt lat="44.68247" lon="5.44736">
        <ele>519.6</ele>
        <time>2021-09-06T08:01:49Z</time>
      </trkpt>
      <trkpt lat="44.68248" lon="5.44734">
        <ele>519.6</ele>
        <time>2021-09-06T08:01:50Z</time>
      </trkpt>
      <trkpt lat="44.68248" lon="5.44731">
        <ele>519.6</ele>
        <time>2021-09-06T08:01:52Z</time>
      </trkpt>
      <trkpt lat="44.68251" lon="5.44727">
        <ele>519.7</ele>
        <time>2021-09-06T08:01:54Z</time>
      </trkpt>
      <trkpt lat="44.68254" lon="5.4472">
        <ele>519.8</ele>
        <time>2021-09-06T08:01:56Z</time>
      </trkpt>
      <trkpt lat="44.68256" lon="5.44716">
        <ele>519.8</ele>
        <time>2021-09-06T08:01:57Z</time>
      </trkpt>
      <trkpt lat="44.68255" lon="5.44713">
        <ele>519.8</ele>
        <time>2021-09-06T08:01:58Z</time>
      </trkpt>
      <trkpt lat="44.68254" lon="5.44708">
        <ele>519.8</ele>
        <time>2021-09-06T08:02:00Z</time>
      </trkpt>
      <trkpt lat="44.68253" lon="5.44703">
        <ele>519.9</ele>
        <time>2021-09-06T08:02:01Z</time>
      </trkpt>
      <trkpt lat="44.6825" lon="5.44698">
        <ele>519.8</ele>
        <time>2021-09-06T08:02:02Z</time>
      </trkpt>
      <trkpt lat="44.68248" lon="5.44689">
        <ele>519.8</ele>
        <time>2021-09-06T08:02:04Z</time>
      </trkpt>
      <trkpt lat="44.68245" lon="5.4468">
        <ele>519.8</ele>
        <time>2021-09-06T08:02:05Z</time>
      </trkpt>
      <trkpt lat="44.68242" lon="5.44673">
        <ele>519.7</ele>
        <time>2021-09-06T08:02:06Z</time>
      </trkpt>
      <trkpt lat="44.68238" lon="5.44662">
        <ele>519.7</ele>
        <time>2021-09-06T08:02:08Z</time>
      </trkpt>
      <trkpt lat="44.68233" lon="5.44653">
        <ele>519.7</ele>
        <time>2021-09-06T08:02:10Z</time>
      </trkpt>
      <trkpt lat="44.68229" lon="5.44648">
        <ele>519.5</ele>
        <time>2021-09-06T08:02:11Z</time>
      </trkpt>
      <trkpt lat="44.68224" lon="5.44644">
        <ele>519.5</ele>
        <time>2021-09-06T08:02:13Z</time>
      </trkpt>
      <trkpt lat="44.68222" lon="5.44642">
        <ele>519.2</ele>
        <time>2021-09-06T08:02:14Z</time>
      </trkpt>
      <trkpt lat="44.6822" lon="5.44643">
        <ele>519.2</ele>
        <time>2021-09-06T08:02:16Z</time>
      </trkpt>
      <trkpt lat="44.68219" lon="5.44645">
        <ele>519.2</ele>
        <time>2021-09-06T08:02:17Z</time>
      </trkpt>
      <trkpt lat="44.68216" lon="5.44646">
        <ele>519.1</ele>
        <time>2021-09-06T08:02:19Z</time>
      </trkpt>
      <trkpt lat="44.68215" lon="5.44647">
        <ele>519.1</ele>
        <time>2021-09-06T08:02:20Z</time>
      </trkpt>
      <trkpt lat="44.68206" lon="5.4465">
        <ele>518.9</ele>
        <time>2021-09-06T08:02:22Z</time>
      </trkpt>
      <trkpt lat="44.68179" lon="5.44657">
        <ele>518.2</ele>
        <time>2021-09-06T08:02:23Z</time>
      </trkpt>
      <trkpt lat="44.68174" lon="5.4466">
        <ele>518.1</ele>
        <time>2021-09-06T08:02:24Z</time>
      </trkpt>
      <trkpt lat="44.6816" lon="5.4467">
        <ele>517.8</ele>
        <time>2021-09-06T08:02:26Z</time>
      </trkpt>
      <trkpt lat="44.68153" lon="5.44677">
        <ele>517.7</ele>
        <time>2021-09-06T08:02:27Z</time>
      </trkpt>
      <trkpt lat="44.68141" lon="5.44692">
        <ele>517.5</ele>
        <time>2021-09-06T08:02:29Z</time>
      </trkpt>
      <trkpt lat="44.68134" lon="5.44698">
        <ele>517.4</ele>
        <time>2021-09-06T08:02:30Z</time>
      </trkpt>
      <trkpt lat="44.68126" lon="5.44705">
        <ele>517.3</ele>
        <time>2021-09-06T08:02:31Z</time>
      </trkpt>
      <trkpt lat="44.68112" lon="5.44717">
        <ele>517.3</ele>
        <time>2021-09-06T08:02:33Z</time>
      </trkpt>
      <trkpt lat="44.68099" lon="5.44726">
        <ele>517.2</ele>
        <time>2021-09-06T08:02:35Z</time>
      </trkpt>
      <trkpt lat="44.68095" lon="5.44733">
        <ele>517.2</ele>
        <time>2021-09-06T08:02:36Z</time>
      </trkpt>
      <trkpt lat="44.68091" lon="5.44739">
        <ele>517.2</ele>
        <time>2021-09-06T08:02:37Z</time>
      </trkpt>
      <trkpt lat="44.68088" lon="5.44748">
        <ele>517.1</ele>
        <time>2021-09-06T08:02:38Z</time>
      </trkpt>
      <trkpt lat="44.68091" lon="5.44764">
        <ele>517.1</ele>
        <time>2021-09-06T08:02:40Z</time>
      </trkpt>
      <trkpt lat="44.68089" lon="5.44771">
        <ele>517.1</ele>
        <time>2021-09-06T08:02:41Z</time>
      </trkpt>
      <trkpt lat="44.6809" lon="5.44787">
        <ele>517.1</ele>
        <time>2021-09-06T08:02:43Z</time>
      </trkpt>
      <trkpt lat="44.68092" lon="5.44798">
        <ele>517.1</ele>
        <time>2021-09-06T08:02:44Z</time>
      </trkpt>
      <trkpt lat="44.68092" lon="5.4481">
        <ele>517.1</ele>
        <time>2021-09-06T08:02:45Z</time>
      </trkpt>
      <trkpt lat="44.68092" lon="5.4481">
        <ele>517.1</ele>
        <time>2021-09-06T08:02:46Z</time>
      </trkpt>
      <trkpt lat="44.68091" lon="5.44815">
        <ele>517.2</ele>
        <time>2021-09-06T08:02:47Z</time>
      </trkpt>
      <trkpt lat="44.6809" lon="5.44828">
        <ele>517.3</ele>
        <time>2021-09-06T08:02:49Z</time>
      </trkpt>
      <trkpt lat="44.68092" lon="5.44868">
        <ele>517.7</ele>
        <time>2021-09-06T08:02:54Z</time>
      </trkpt>
      <trkpt lat="44.6809" lon="5.44874">
        <ele>517.8</ele>
        <time>2021-09-06T08:02:55Z</time>
      </trkpt>
      <trkpt lat="44.68087" lon="5.44882">
        <ele>517.9</ele>
        <time>2021-09-06T08:02:56Z</time>
      </trkpt>
      <trkpt lat="44.68084" lon="5.44892">
        <ele>518.1</ele>
        <time>2021-09-06T08:02:58Z</time>
      </trkpt>
      <trkpt lat="44.68082" lon="5.449">
        <ele>518.2</ele>
        <time>2021-09-06T08:02:59Z</time>
      </trkpt>
      <trkpt lat="44.6808" lon="5.44906">
        <ele>518.3</ele>
        <time>2021-09-06T08:03:01Z</time>
      </trkpt>
      <trkpt lat="44.68078" lon="5.44911">
        <ele>518.4</ele>
        <time>2021-09-06T08:03:02Z</time>
      </trkpt>
      <trkpt lat="44.68076" lon="5.44915">
        <ele>518.5</ele>
        <time>2021-09-06T08:03:04Z</time>
      </trkpt>
      <trkpt lat="44.68074" lon="5.4492">
        <ele>518.5</ele>
        <time>2021-09-06T08:03:05Z</time>
      </trkpt>
      <trkpt lat="44.68072" lon="5.44925">
        <ele>518.6</ele>
        <time>2021-09-06T08:03:06Z</time>
      </trkpt>
      <trkpt lat="44.6807" lon="5.44929">
        <ele>518.7</ele>
        <time>2021-09-06T08:03:07Z</time>
      </trkpt>
      <trkpt lat="44.68068" lon="5.44933">
        <ele>518.8</ele>
        <time>2021-09-06T08:03:08Z</time>
      </trkpt>
      <trkpt lat="44.68064" lon="5.44941">
        <ele>519</ele>
        <time>2021-09-06T08:03:10Z</time>
      </trkpt>
      <trkpt lat="44.6806" lon="5.44949">
        <ele>519.2</ele>
        <time>2021-09-06T08:03:12Z</time>
      </trkpt>
      <trkpt lat="44.68057" lon="5.44956">
        <ele>519.4</ele>
        <time>2021-09-06T08:03:14Z</time>
      </trkpt>
      <trkpt lat="44.68053" lon="5.44961">
        <ele>519.5</ele>
        <time>2021-09-06T08:03:15Z</time>
      </trkpt>
      <trkpt lat="44.68049" lon="5.44964">
        <ele>519.7</ele>
        <time>2021-09-06T08:03:17Z</time>
      </trkpt>
      <trkpt lat="44.68044" lon="5.44965">
        <ele>519.9</ele>
        <time>2021-09-06T08:03:18Z</time>
      </trkpt>
      <trkpt lat="44.6804" lon="5.44964">
        <ele>520</ele>
        <time>2021-09-06T08:03:19Z</time>
      </trkpt>
      <trkpt lat="44.68037" lon="5.44964">
        <ele>520.1</ele>
        <time>2021-09-06T08:03:20Z</time>
      </trkpt>
      <trkpt lat="44.68033" lon="5.44964">
        <ele>520.3</ele>
        <time>2021-09-06T08:03:22Z</time>
      </trkpt>
      <trkpt lat="44.68029" lon="5.44965">
        <ele>520.4</ele>
        <time>2021-09-06T08:03:23Z</time>
      </trkpt>
      <trkpt lat="44.68025" lon="5.44964">
        <ele>520.5</ele>
        <time>2021-09-06T08:03:24Z</time>
      </trkpt>
      <trkpt lat="44.68021" lon="5.44963">
        <ele>520.7</ele>
        <time>2021-09-06T08:03:26Z</time>
      </trkpt>
      <trkpt lat="44.68015" lon="5.44963">
        <ele>520.9</ele>
        <time>2021-09-06T08:03:27Z</time>
      </trkpt>
      <trkpt lat="44.6801" lon="5.44963">
        <ele>521</ele>
        <time>2021-09-06T08:03:29Z</time>
      </trkpt>
      <trkpt lat="44.68006" lon="5.44963">
        <ele>521.1</ele>
        <time>2021-09-06T08:03:30Z</time>
      </trkpt>
      <trkpt lat="44.68002" lon="5.44963">
        <ele>521.3</ele>
        <time>2021-09-06T08:03:31Z</time>
      </trkpt>
      <trkpt lat="44.67996" lon="5.44961">
        <ele>521.5</ele>
        <time>2021-09-06T08:03:32Z</time>
      </trkpt>
      <trkpt lat="44.67992" lon="5.44959">
        <ele>521.6</ele>
        <time>2021-09-06T08:03:33Z</time>
      </trkpt>
      <trkpt lat="44.67989" lon="5.44956">
        <ele>521.8</ele>
        <time>2021-09-06T08:03:34Z</time>
      </trkpt>
      <trkpt lat="44.67986" lon="5.44953">
        <ele>521.9</ele>
        <time>2021-09-06T08:03:35Z</time>
      </trkpt>
      <trkpt lat="44.67982" lon="5.44949">
        <ele>522.2</ele>
        <time>2021-09-06T08:03:36Z</time>
      </trkpt>
      <trkpt lat="44.67979" lon="5.44945">
        <ele>522.4</ele>
        <time>2021-09-06T08:03:38Z</time>
      </trkpt>
      <trkpt lat="44.67977" lon="5.44941">
        <ele>522.5</ele>
        <time>2021-09-06T08:03:39Z</time>
      </trkpt>
      <trkpt lat="44.67974" lon="5.44936">
        <ele>522.7</ele>
        <time>2021-09-06T08:03:40Z</time>
      </trkpt>
      <trkpt lat="44.67972" lon="5.44932">
        <ele>522.9</ele>
        <time>2021-09-06T08:03:41Z</time>
      </trkpt>
      <trkpt lat="44.67969" lon="5.44927">
        <ele>523.1</ele>
        <time>2021-09-06T08:03:43Z</time>
      </trkpt>
      <trkpt lat="44.67964" lon="5.44919">
        <ele>523.4</ele>
        <time>2021-09-06T08:03:44Z</time>
      </trkpt>
      <trkpt lat="44.67959" lon="5.4491">
        <ele>523.7</ele>
        <time>2021-09-06T08:03:46Z</time>
      </trkpt>
      <trkpt lat="44.67956" lon="5.44904">
        <ele>523.9</ele>
        <time>2021-09-06T08:03:47Z</time>
      </trkpt>
      <trkpt lat="44.67952" lon="5.44897">
        <ele>524.1</ele>
        <time>2021-09-06T08:03:48Z</time>
      </trkpt>
      <trkpt lat="44.67949" lon="5.4489">
        <ele>524.4</ele>
        <time>2021-09-06T08:03:49Z</time>
      </trkpt>
      <trkpt lat="44.67947" lon="5.44884">
        <ele>524.6</ele>
        <time>2021-09-06T08:03:50Z</time>
      </trkpt>
      <trkpt lat="44.67946" lon="5.44878">
        <ele>524.7</ele>
        <time>2021-09-06T08:03:52Z</time>
      </trkpt>
      <trkpt lat="44.67945" lon="5.44874">
        <ele>524.7</ele>
        <time>2021-09-06T08:03:53Z</time>
      </trkpt>
      <trkpt lat="44.6794" lon="5.44867">
        <ele>524.7</ele>
        <time>2021-09-06T08:03:55Z</time>
      </trkpt>
      <trkpt lat="44.67936" lon="5.44861">
        <ele>524.7</ele>
        <time>2021-09-06T08:03:57Z</time>
      </trkpt>
      <trkpt lat="44.67934" lon="5.44856">
        <ele>524.6</ele>
        <time>2021-09-06T08:03:59Z</time>
      </trkpt>
      <trkpt lat="44.67933" lon="5.44849">
        <ele>524.6</ele>
        <time>2021-09-06T08:04:01Z</time>
      </trkpt>
      <trkpt lat="44.67931" lon="5.44844">
        <ele>524.6</ele>
        <time>2021-09-06T08:04:02Z</time>
      </trkpt>
      <trkpt lat="44.67924" lon="5.44834">
        <ele>524.5</ele>
        <time>2021-09-06T08:04:04Z</time>
      </trkpt>
      <trkpt lat="44.6792" lon="5.44829">
        <ele>524.5</ele>
        <time>2021-09-06T08:04:05Z</time>
      </trkpt>
      <trkpt lat="44.67919" lon="5.44826">
        <ele>524.4</ele>
        <time>2021-09-06T08:04:06Z</time>
      </trkpt>
      <trkpt lat="44.67916" lon="5.44819">
        <ele>524.4</ele>
        <time>2021-09-06T08:04:08Z</time>
      </trkpt>
      <trkpt lat="44.67912" lon="5.44814">
        <ele>524.3</ele>
        <time>2021-09-06T08:04:09Z</time>
      </trkpt>
      <trkpt lat="44.67908" lon="5.44809">
        <ele>524.3</ele>
        <time>2021-09-06T08:04:10Z</time>
      </trkpt>
      <trkpt lat="44.67903" lon="5.44801">
        <ele>524.2</ele>
        <time>2021-09-06T08:04:12Z</time>
      </trkpt>
      <trkpt lat="44.67898" lon="5.44786">
        <ele>524.1</ele>
        <time>2021-09-06T08:04:13Z</time>
      </trkpt>
      <trkpt lat="44.67896" lon="5.44778">
        <ele>524</ele>
        <time>2021-09-06T08:04:14Z</time>
      </trkpt>
      <trkpt lat="44.67894" lon="5.44769">
        <ele>523.9</ele>
        <time>2021-09-06T08:04:16Z</time>
      </trkpt>
      <trkpt lat="44.67893" lon="5.44764">
        <ele>523.9</ele>
        <time>2021-09-06T08:04:18Z</time>
      </trkpt>
      <trkpt lat="44.67891" lon="5.44754">
        <ele>523.8</ele>
        <time>2021-09-06T08:04:19Z</time>
      </trkpt>
      <trkpt lat="44.67889" lon="5.44744">
        <ele>523.8</ele>
        <time>2021-09-06T08:04:20Z</time>
      </trkpt>
      <trkpt lat="44.67885" lon="5.44733">
        <ele>523.7</ele>
        <time>2021-09-06T08:04:22Z</time>
      </trkpt>
      <trkpt lat="44.67882" lon="5.44725">
        <ele>523.6</ele>
        <time>2021-09-06T08:04:23Z</time>
      </trkpt>
      <trkpt lat="44.6788" lon="5.44718">
        <ele>523.6</ele>
        <time>2021-09-06T08:04:24Z</time>
      </trkpt>
      <trkpt lat="44.67873" lon="5.44704">
        <ele>523.4</ele>
        <time>2021-09-06T08:04:26Z</time>
      </trkpt>
      <trkpt lat="44.6787" lon="5.44697">
        <ele>523.4</ele>
        <time>2021-09-06T08:04:27Z</time>
      </trkpt>
      <trkpt lat="44.67868" lon="5.44685">
        <ele>523.2</ele>
        <time>2021-09-06T08:04:29Z</time>
      </trkpt>
      <trkpt lat="44.67868" lon="5.44671">
        <ele>523.1</ele>
        <time>2021-09-06T08:04:31Z</time>
      </trkpt>
      <trkpt lat="44.67865" lon="5.44664">
        <ele>523</ele>
        <time>2021-09-06T08:04:32Z</time>
      </trkpt>
      <trkpt lat="44.67863" lon="5.4465">
        <ele>522.9</ele>
        <time>2021-09-06T08:04:34Z</time>
      </trkpt>
      <trkpt lat="44.67862" lon="5.44643">
        <ele>522.9</ele>
        <time>2021-09-06T08:04:35Z</time>
      </trkpt>
      <trkpt lat="44.67857" lon="5.44629">
        <ele>522.8</ele>
        <time>2021-09-06T08:04:37Z</time>
      </trkpt>
      <trkpt lat="44.67854" lon="5.44622">
        <ele>522.7</ele>
        <time>2021-09-06T08:04:38Z</time>
      </trkpt>
      <trkpt lat="44.67847" lon="5.44609">
        <ele>522.6</ele>
        <time>2021-09-06T08:04:40Z</time>
      </trkpt>
      <trkpt lat="44.67844" lon="5.44602">
        <ele>522.6</ele>
        <time>2021-09-06T08:04:41Z</time>
      </trkpt>
      <trkpt lat="44.67842" lon="5.44595">
        <ele>522.5</ele>
        <time>2021-09-06T08:04:42Z</time>
      </trkpt>
      <trkpt lat="44.67836" lon="5.44582">
        <ele>522.4</ele>
        <time>2021-09-06T08:04:44Z</time>
      </trkpt>
      <trkpt lat="44.67833" lon="5.44576">
        <ele>522.4</ele>
        <time>2021-09-06T08:04:45Z</time>
      </trkpt>
      <trkpt lat="44.67831" lon="5.4457">
        <ele>522.3</ele>
        <time>2021-09-06T08:04:46Z</time>
      </trkpt>
      <trkpt lat="44.67824" lon="5.44558">
        <ele>522.2</ele>
        <time>2021-09-06T08:04:48Z</time>
      </trkpt>
      <trkpt lat="44.67821" lon="5.44552">
        <ele>522.2</ele>
        <time>2021-09-06T08:04:49Z</time>
      </trkpt>
      <trkpt lat="44.67817" lon="5.44545">
        <ele>522.1</ele>
        <time>2021-09-06T08:04:50Z</time>
      </trkpt>
      <trkpt lat="44.67808" lon="5.44531">
        <ele>522</ele>
        <time>2021-09-06T08:04:52Z</time>
      </trkpt>
      <trkpt lat="44.67801" lon="5.44515">
        <ele>521.8</ele>
        <time>2021-09-06T08:04:54Z</time>
      </trkpt>
      <trkpt lat="44.67794" lon="5.44498">
        <ele>521.7</ele>
        <time>2021-09-06T08:04:56Z</time>
      </trkpt>
      <trkpt lat="44.67791" lon="5.4449">
        <ele>521.6</ele>
        <time>2021-09-06T08:04:57Z</time>
      </trkpt>
      <trkpt lat="44.67784" lon="5.44473">
        <ele>521.5</ele>
        <time>2021-09-06T08:04:59Z</time>
      </trkpt>
      <trkpt lat="44.67782" lon="5.44464">
        <ele>521.5</ele>
        <time>2021-09-06T08:05:00Z</time>
      </trkpt>
      <trkpt lat="44.67777" lon="5.44447">
        <ele>521.3</ele>
        <time>2021-09-06T08:05:02Z</time>
      </trkpt>
      <trkpt lat="44.67772" lon="5.44431">
        <ele>521.3</ele>
        <time>2021-09-06T08:05:04Z</time>
      </trkpt>
      <trkpt lat="44.67766" lon="5.44416">
        <ele>521.2</ele>
        <time>2021-09-06T08:05:06Z</time>
      </trkpt>
      <trkpt lat="44.6776" lon="5.44401">
        <ele>521.1</ele>
        <time>2021-09-06T08:05:08Z</time>
      </trkpt>
      <trkpt lat="44.67754" lon="5.44386">
        <ele>521</ele>
        <time>2021-09-06T08:05:10Z</time>
      </trkpt>
      <trkpt lat="44.67751" lon="5.44378">
        <ele>520.9</ele>
        <time>2021-09-06T08:05:11Z</time>
      </trkpt>
      <trkpt lat="44.67747" lon="5.44371">
        <ele>520.9</ele>
        <time>2021-09-06T08:05:12Z</time>
      </trkpt>
      <trkpt lat="44.67743" lon="5.44364">
        <ele>520.9</ele>
        <time>2021-09-06T08:05:13Z</time>
      </trkpt>
      <trkpt lat="44.67741" lon="5.44357">
        <ele>520.8</ele>
        <time>2021-09-06T08:05:14Z</time>
      </trkpt>
      <trkpt lat="44.67738" lon="5.44352">
        <ele>520.8</ele>
        <time>2021-09-06T08:05:15Z</time>
      </trkpt>
      <trkpt lat="44.67731" lon="5.44341">
        <ele>520.8</ele>
        <time>2021-09-06T08:05:17Z</time>
      </trkpt>
      <trkpt lat="44.67727" lon="5.44335">
        <ele>520.7</ele>
        <time>2021-09-06T08:05:18Z</time>
      </trkpt>
      <trkpt lat="44.67718" lon="5.44323">
        <ele>520.7</ele>
        <time>2021-09-06T08:05:20Z</time>
      </trkpt>
      <trkpt lat="44.67707" lon="5.44312">
        <ele>520.7</ele>
        <time>2021-09-06T08:05:22Z</time>
      </trkpt>
      <trkpt lat="44.67703" lon="5.44306">
        <ele>520.8</ele>
        <time>2021-09-06T08:05:23Z</time>
      </trkpt>
      <trkpt lat="44.67698" lon="5.44301">
        <ele>520.8</ele>
        <time>2021-09-06T08:05:24Z</time>
      </trkpt>
      <trkpt lat="44.67689" lon="5.44291">
        <ele>520.8</ele>
        <time>2021-09-06T08:05:26Z</time>
      </trkpt>
      <trkpt lat="44.67682" lon="5.44287">
        <ele>520.9</ele>
        <time>2021-09-06T08:05:27Z</time>
      </trkpt>
      <trkpt lat="44.67668" lon="5.44278">
        <ele>520.9</ele>
        <time>2021-09-06T08:05:29Z</time>
      </trkpt>
      <trkpt lat="44.67662" lon="5.44274">
        <ele>520.9</ele>
        <time>2021-09-06T08:05:30Z</time>
      </trkpt>
      <trkpt lat="44.67657" lon="5.44271">
        <ele>520.9</ele>
        <time>2021-09-06T08:05:31Z</time>
      </trkpt>
      <trkpt lat="44.67647" lon="5.44264">
        <ele>520.8</ele>
        <time>2021-09-06T08:05:33Z</time>
      </trkpt>
      <trkpt lat="44.67643" lon="5.4426">
        <ele>520.8</ele>
        <time>2021-09-06T08:05:34Z</time>
      </trkpt>
      <trkpt lat="44.67634" lon="5.44251">
        <ele>520.7</ele>
        <time>2021-09-06T08:05:36Z</time>
      </trkpt>
      <trkpt lat="44.6763" lon="5.44246">
        <ele>520.6</ele>
        <time>2021-09-06T08:05:37Z</time>
      </trkpt>
      <trkpt lat="44.67625" lon="5.44241">
        <ele>520.6</ele>
        <time>2021-09-06T08:05:38Z</time>
      </trkpt>
      <trkpt lat="44.67617" lon="5.44233">
        <ele>520.5</ele>
        <time>2021-09-06T08:05:40Z</time>
      </trkpt>
      <trkpt lat="44.67612" lon="5.44229">
        <ele>520.4</ele>
        <time>2021-09-06T08:05:41Z</time>
      </trkpt>
      <trkpt lat="44.67607" lon="5.44225">
        <ele>520.4</ele>
        <time>2021-09-06T08:05:42Z</time>
      </trkpt>
      <trkpt lat="44.67596" lon="5.44216">
        <ele>520.3</ele>
        <time>2021-09-06T08:05:44Z</time>
      </trkpt>
      <trkpt lat="44.67585" lon="5.44207">
        <ele>520.2</ele>
        <time>2021-09-06T08:05:46Z</time>
      </trkpt>
      <trkpt lat="44.67574" lon="5.44196">
        <ele>520.2</ele>
        <time>2021-09-06T08:05:48Z</time>
      </trkpt>
      <trkpt lat="44.67569" lon="5.44191">
        <ele>520.1</ele>
        <time>2021-09-06T08:05:49Z</time>
      </trkpt>
      <trkpt lat="44.6756" lon="5.44181">
        <ele>520.1</ele>
        <time>2021-09-06T08:05:51Z</time>
      </trkpt>
      <trkpt lat="44.6755" lon="5.44171">
        <ele>519.9</ele>
        <time>2021-09-06T08:05:53Z</time>
      </trkpt>
      <trkpt lat="44.6754" lon="5.44162">
        <ele>519.8</ele>
        <time>2021-09-06T08:05:55Z</time>
      </trkpt>
      <trkpt lat="44.67535" lon="5.44157">
        <ele>519.7</ele>
        <time>2021-09-06T08:05:56Z</time>
      </trkpt>
      <trkpt lat="44.67526" lon="5.44148">
        <ele>519.6</ele>
        <time>2021-09-06T08:05:58Z</time>
      </trkpt>
      <trkpt lat="44.67516" lon="5.44138">
        <ele>519.5</ele>
        <time>2021-09-06T08:06:00Z</time>
      </trkpt>
      <trkpt lat="44.67504" lon="5.4413">
        <ele>519.3</ele>
        <time>2021-09-06T08:06:02Z</time>
      </trkpt>
      <trkpt lat="44.67493" lon="5.44122">
        <ele>519.2</ele>
        <time>2021-09-06T08:06:04Z</time>
      </trkpt>
      <trkpt lat="44.67481" lon="5.44116">
        <ele>519</ele>
        <time>2021-09-06T08:06:06Z</time>
      </trkpt>
      <trkpt lat="44.6747" lon="5.44108">
        <ele>518.8</ele>
        <time>2021-09-06T08:06:08Z</time>
      </trkpt>
      <trkpt lat="44.67459" lon="5.44101">
        <ele>518.6</ele>
        <time>2021-09-06T08:06:10Z</time>
      </trkpt>
      <trkpt lat="44.67454" lon="5.44097">
        <ele>518.5</ele>
        <time>2021-09-06T08:06:11Z</time>
      </trkpt>
      <trkpt lat="44.67444" lon="5.44089">
        <ele>518.4</ele>
        <time>2021-09-06T08:06:13Z</time>
      </trkpt>
      <trkpt lat="44.67438" lon="5.44085">
        <ele>518.3</ele>
        <time>2021-09-06T08:06:14Z</time>
      </trkpt>
      <trkpt lat="44.67427" lon="5.44076">
        <ele>518.1</ele>
        <time>2021-09-06T08:06:16Z</time>
      </trkpt>
      <trkpt lat="44.67416" lon="5.44067">
        <ele>518</ele>
        <time>2021-09-06T08:06:18Z</time>
      </trkpt>
      <trkpt lat="44.67409" lon="5.44063">
        <ele>517.9</ele>
        <time>2021-09-06T08:06:19Z</time>
      </trkpt>
      <trkpt lat="44.67403" lon="5.44058">
        <ele>517.8</ele>
        <time>2021-09-06T08:06:20Z</time>
      </trkpt>
      <trkpt lat="44.67391" lon="5.44049">
        <ele>517.6</ele>
        <time>2021-09-06T08:06:22Z</time>
      </trkpt>
      <trkpt lat="44.67386" lon="5.44045">
        <ele>517.6</ele>
        <time>2021-09-06T08:06:23Z</time>
      </trkpt>
      <trkpt lat="44.67381" lon="5.44041">
        <ele>517.5</ele>
        <time>2021-09-06T08:06:24Z</time>
      </trkpt>
      <trkpt lat="44.67375" lon="5.44036">
        <ele>517.4</ele>
        <time>2021-09-06T08:06:25Z</time>
      </trkpt>
      <trkpt lat="44.6737" lon="5.4403">
        <ele>517.3</ele>
        <time>2021-09-06T08:06:26Z</time>
      </trkpt>
      <trkpt lat="44.67359" lon="5.44019">
        <ele>517.2</ele>
        <time>2021-09-06T08:06:28Z</time>
      </trkpt>
      <trkpt lat="44.67346" lon="5.44008">
        <ele>517.1</ele>
        <time>2021-09-06T08:06:30Z</time>
      </trkpt>
      <trkpt lat="44.67339" lon="5.44002">
        <ele>517.1</ele>
        <time>2021-09-06T08:06:31Z</time>
      </trkpt>
      <trkpt lat="44.67325" lon="5.43989">
        <ele>517.1</ele>
        <time>2021-09-06T08:06:33Z</time>
      </trkpt>
      <trkpt lat="44.67313" lon="5.43977">
        <ele>517.1</ele>
        <time>2021-09-06T08:06:35Z</time>
      </trkpt>
      <trkpt lat="44.67308" lon="5.4397">
        <ele>517</ele>
        <time>2021-09-06T08:06:36Z</time>
      </trkpt>
      <trkpt lat="44.67304" lon="5.43964">
        <ele>516.9</ele>
        <time>2021-09-06T08:06:37Z</time>
      </trkpt>
      <trkpt lat="44.67296" lon="5.43953">
        <ele>516.7</ele>
        <time>2021-09-06T08:06:39Z</time>
      </trkpt>
      <trkpt lat="44.67292" lon="5.43948">
        <ele>516.5</ele>
        <time>2021-09-06T08:06:40Z</time>
      </trkpt>
      <trkpt lat="44.67289" lon="5.43943">
        <ele>516.5</ele>
        <time>2021-09-06T08:06:41Z</time>
      </trkpt>
      <trkpt lat="44.67282" lon="5.43934">
        <ele>516.3</ele>
        <time>2021-09-06T08:06:43Z</time>
      </trkpt>
      <trkpt lat="44.67279" lon="5.4393">
        <ele>516.3</ele>
        <time>2021-09-06T08:06:44Z</time>
      </trkpt>
      <trkpt lat="44.67268" lon="5.4392">
        <ele>516.1</ele>
        <time>2021-09-06T08:06:46Z</time>
      </trkpt>
      <trkpt lat="44.67262" lon="5.43916">
        <ele>515.9</ele>
        <time>2021-09-06T08:06:47Z</time>
      </trkpt>
      <trkpt lat="44.67249" lon="5.439">
        <ele>515.7</ele>
        <time>2021-09-06T08:06:49Z</time>
      </trkpt>
      <trkpt lat="44.67249" lon="5.43895">
        <ele>515.7</ele>
        <time>2021-09-06T08:06:50Z</time>
      </trkpt>
      <trkpt lat="44.67249" lon="5.43894">
        <ele>515.7</ele>
        <time>2021-09-06T08:06:52Z</time>
      </trkpt>
      <trkpt lat="44.67249" lon="5.43892">
        <ele>515.6</ele>
        <time>2021-09-06T08:06:53Z</time>
      </trkpt>
      <trkpt lat="44.67252" lon="5.43881">
        <ele>515.5</ele>
        <time>2021-09-06T08:06:55Z</time>
      </trkpt>
      <trkpt lat="44.67255" lon="5.43873">
        <ele>515.4</ele>
        <time>2021-09-06T08:06:56Z</time>
      </trkpt>
      <trkpt lat="44.6726" lon="5.43865">
        <ele>515.3</ele>
        <time>2021-09-06T08:06:58Z</time>
      </trkpt>
      <trkpt lat="44.67262" lon="5.43861">
        <ele>515.3</ele>
        <time>2021-09-06T08:06:59Z</time>
      </trkpt>
      <trkpt lat="44.67302" lon="5.43678">
        <ele>512.4</ele>
        <time>2021-09-06T08:07:16Z</time>
      </trkpt>
      <trkpt lat="44.67313" lon="5.43639">
        <ele>512.1</ele>
        <time>2021-09-06T08:07:18Z</time>
      </trkpt>
      <trkpt lat="44.6732" lon="5.43614">
        <ele>511.8</ele>
        <time>2021-09-06T08:07:20Z</time>
      </trkpt>
      <trkpt lat="44.67324" lon="5.43611">
        <ele>511.8</ele>
        <time>2021-09-06T08:07:22Z</time>
      </trkpt>
      <trkpt lat="44.67327" lon="5.43605">
        <ele>511.7</ele>
        <time>2021-09-06T08:07:23Z</time>
      </trkpt>
      <trkpt lat="44.67331" lon="5.43596">
        <ele>511.6</ele>
        <time>2021-09-06T08:07:25Z</time>
      </trkpt>
      <trkpt lat="44.67333" lon="5.43587">
        <ele>511.5</ele>
        <time>2021-09-06T08:07:26Z</time>
      </trkpt>
      <trkpt lat="44.67334" lon="5.43582">
        <ele>511.4</ele>
        <time>2021-09-06T08:07:28Z</time>
      </trkpt>
      <trkpt lat="44.67332" lon="5.43557">
        <ele>511.3</ele>
        <time>2021-09-06T08:07:29Z</time>
      </trkpt>
      <trkpt lat="44.67329" lon="5.43529">
        <ele>511.1</ele>
        <time>2021-09-06T08:07:31Z</time>
      </trkpt>
      <trkpt lat="44.67303" lon="5.43366">
        <ele>511.4</ele>
        <time>2021-09-06T08:07:42Z</time>
      </trkpt>
      <trkpt lat="44.673" lon="5.4335">
        <ele>511.6</ele>
        <time>2021-09-06T08:07:43Z</time>
      </trkpt>
      <trkpt lat="44.67293" lon="5.43328">
        <ele>511.7</ele>
        <time>2021-09-06T08:07:45Z</time>
      </trkpt>
      <trkpt lat="44.67286" lon="5.43312">
        <ele>511.7</ele>
        <time>2021-09-06T08:07:47Z</time>
      </trkpt>
      <trkpt lat="44.67279" lon="5.43298">
        <ele>511.8</ele>
        <time>2021-09-06T08:07:49Z</time>
      </trkpt>
      <trkpt lat="44.67276" lon="5.43292">
        <ele>511.9</ele>
        <time>2021-09-06T08:07:50Z</time>
      </trkpt>
      <trkpt lat="44.67273" lon="5.43286">
        <ele>511.9</ele>
        <time>2021-09-06T08:07:51Z</time>
      </trkpt>
      <trkpt lat="44.67265" lon="5.43275">
        <ele>512</ele>
        <time>2021-09-06T08:07:53Z</time>
      </trkpt>
      <trkpt lat="44.67258" lon="5.43264">
        <ele>512.1</ele>
        <time>2021-09-06T08:07:55Z</time>
      </trkpt>
      <trkpt lat="44.67251" lon="5.43254">
        <ele>512.2</ele>
        <time>2021-09-06T08:07:57Z</time>
      </trkpt>
      <trkpt lat="44.67247" lon="5.4325">
        <ele>512.2</ele>
        <time>2021-09-06T08:07:58Z</time>
      </trkpt>
      <trkpt lat="44.67246" lon="5.43245">
        <ele>512.3</ele>
        <time>2021-09-06T08:07:59Z</time>
      </trkpt>
      <trkpt lat="44.67251" lon="5.43237">
        <ele>512.4</ele>
        <time>2021-09-06T08:08:01Z</time>
      </trkpt>
      <trkpt lat="44.67255" lon="5.43232">
        <ele>512.4</ele>
        <time>2021-09-06T08:08:02Z</time>
      </trkpt>
      <trkpt lat="44.67264" lon="5.4322">
        <ele>512.6</ele>
        <time>2021-09-06T08:08:04Z</time>
      </trkpt>
      <trkpt lat="44.67267" lon="5.43215">
        <ele>512.6</ele>
        <time>2021-09-06T08:08:05Z</time>
      </trkpt>
      <trkpt lat="44.6727" lon="5.43207">
        <ele>512.7</ele>
        <time>2021-09-06T08:08:07Z</time>
      </trkpt>
      <trkpt lat="44.6727" lon="5.43204">
        <ele>512.8</ele>
        <time>2021-09-06T08:08:08Z</time>
      </trkpt>
      <trkpt lat="44.67265" lon="5.43199">
        <ele>512.9</ele>
        <time>2021-09-06T08:08:10Z</time>
      </trkpt>
      <trkpt lat="44.67262" lon="5.43197">
        <ele>512.9</ele>
        <time>2021-09-06T08:08:11Z</time>
      </trkpt>
      <trkpt lat="44.67255" lon="5.43189">
        <ele>513.1</ele>
        <time>2021-09-06T08:08:13Z</time>
      </trkpt>
      <trkpt lat="44.67246" lon="5.43181">
        <ele>513.3</ele>
        <time>2021-09-06T08:08:14Z</time>
      </trkpt>
      <trkpt lat="44.67238" lon="5.43173">
        <ele>513.6</ele>
        <time>2021-09-06T08:08:15Z</time>
      </trkpt>
      <trkpt lat="44.67232" lon="5.43165">
        <ele>513.8</ele>
        <time>2021-09-06T08:08:17Z</time>
      </trkpt>
      <trkpt lat="44.67224" lon="5.43153">
        <ele>514.1</ele>
        <time>2021-09-06T08:08:18Z</time>
      </trkpt>
      <trkpt lat="44.67221" lon="5.43148">
        <ele>514.2</ele>
        <time>2021-09-06T08:08:19Z</time>
      </trkpt>
      <trkpt lat="44.67219" lon="5.43144">
        <ele>514.3</ele>
        <time>2021-09-06T08:08:20Z</time>
      </trkpt>
      <trkpt lat="44.67214" lon="5.43138">
        <ele>514.5</ele>
        <time>2021-09-06T08:08:22Z</time>
      </trkpt>
      <trkpt lat="44.6721" lon="5.43132">
        <ele>514.6</ele>
        <time>2021-09-06T08:08:23Z</time>
      </trkpt>
      <trkpt lat="44.67204" lon="5.43125">
        <ele>514.9</ele>
        <time>2021-09-06T08:08:25Z</time>
      </trkpt>
      <trkpt lat="44.672" lon="5.43121">
        <ele>515</ele>
        <time>2021-09-06T08:08:26Z</time>
      </trkpt>
      <trkpt lat="44.67196" lon="5.43118">
        <ele>515.2</ele>
        <time>2021-09-06T08:08:27Z</time>
      </trkpt>
      <trkpt lat="44.67192" lon="5.43115">
        <ele>515.4</ele>
        <time>2021-09-06T08:08:29Z</time>
      </trkpt>
      <trkpt lat="44.67189" lon="5.43114">
        <ele>515.5</ele>
        <time>2021-09-06T08:08:30Z</time>
      </trkpt>
      <trkpt lat="44.67186" lon="5.43114">
        <ele>515.6</ele>
        <time>2021-09-06T08:08:32Z</time>
      </trkpt>
      <trkpt lat="44.67181" lon="5.43115">
        <ele>515.9</ele>
        <time>2021-09-06T08:08:33Z</time>
      </trkpt>
      <trkpt lat="44.67176" lon="5.43116">
        <ele>516.1</ele>
        <time>2021-09-06T08:08:35Z</time>
      </trkpt>
      <trkpt lat="44.6717" lon="5.43118">
        <ele>516.4</ele>
        <time>2021-09-06T08:08:36Z</time>
      </trkpt>
      <trkpt lat="44.67164" lon="5.4312">
        <ele>516.8</ele>
        <time>2021-09-06T08:08:38Z</time>
      </trkpt>
      <trkpt lat="44.67159" lon="5.4312">
        <ele>517</ele>
        <time>2021-09-06T08:08:39Z</time>
      </trkpt>
      <trkpt lat="44.67155" lon="5.4312">
        <ele>517.2</ele>
        <time>2021-09-06T08:08:40Z</time>
      </trkpt>
      <trkpt lat="44.67151" lon="5.4312">
        <ele>517.4</ele>
        <time>2021-09-06T08:08:41Z</time>
      </trkpt>
      <trkpt lat="44.67144" lon="5.43121">
        <ele>517.8</ele>
        <time>2021-09-06T08:08:43Z</time>
      </trkpt>
      <trkpt lat="44.67138" lon="5.43122">
        <ele>518</ele>
        <time>2021-09-06T08:08:45Z</time>
      </trkpt>
      <trkpt lat="44.67133" lon="5.43123">
        <ele>518.3</ele>
        <time>2021-09-06T08:08:46Z</time>
      </trkpt>
      <trkpt lat="44.67127" lon="5.43124">
        <ele>518.6</ele>
        <time>2021-09-06T08:08:48Z</time>
      </trkpt>
      <trkpt lat="44.67121" lon="5.43126">
        <ele>518.9</ele>
        <time>2021-09-06T08:08:50Z</time>
      </trkpt>
      <trkpt lat="44.67117" lon="5.43127">
        <ele>519.1</ele>
        <time>2021-09-06T08:08:51Z</time>
      </trkpt>
      <trkpt lat="44.67111" lon="5.43128">
        <ele>519.4</ele>
        <time>2021-09-06T08:08:53Z</time>
      </trkpt>
      <trkpt lat="44.67106" lon="5.4313">
        <ele>519.7</ele>
        <time>2021-09-06T08:08:55Z</time>
      </trkpt>
      <trkpt lat="44.67103" lon="5.43132">
        <ele>519.8</ele>
        <time>2021-09-06T08:08:56Z</time>
      </trkpt>
      <trkpt lat="44.67101" lon="5.43133">
        <ele>520</ele>
        <time>2021-09-06T08:08:57Z</time>
      </trkpt>
      <trkpt lat="44.67098" lon="5.43135">
        <ele>520.1</ele>
        <time>2021-09-06T08:08:59Z</time>
      </trkpt>
      <trkpt lat="44.67094" lon="5.43137">
        <ele>520.3</ele>
        <time>2021-09-06T08:09:00Z</time>
      </trkpt>
      <trkpt lat="44.67092" lon="5.4314">
        <ele>520.5</ele>
        <time>2021-09-06T08:09:01Z</time>
      </trkpt>
      <trkpt lat="44.67089" lon="5.43143">
        <ele>520.7</ele>
        <time>2021-09-06T08:09:02Z</time>
      </trkpt>
      <trkpt lat="44.67085" lon="5.43146">
        <ele>520.9</ele>
        <time>2021-09-06T08:09:04Z</time>
      </trkpt>
      <trkpt lat="44.67082" lon="5.43146">
        <ele>521.1</ele>
        <time>2021-09-06T08:09:06Z</time>
      </trkpt>
      <trkpt lat="44.6708" lon="5.43147">
        <ele>521.1</ele>
        <time>2021-09-06T08:09:07Z</time>
      </trkpt>
      <trkpt lat="44.6708" lon="5.43147">
        <ele>521.2</ele>
        <time>2021-09-06T08:09:08Z</time>
      </trkpt>
      <trkpt lat="44.67078" lon="5.43147">
        <ele>521.2</ele>
        <time>2021-09-06T08:09:10Z</time>
      </trkpt>
      <trkpt lat="44.67077" lon="5.43148">
        <ele>521.3</ele>
        <time>2021-09-06T08:09:12Z</time>
      </trkpt>
      <trkpt lat="44.67074" lon="5.43149">
        <ele>521.5</ele>
        <time>2021-09-06T08:09:13Z</time>
      </trkpt>
      <trkpt lat="44.6707" lon="5.4315">
        <ele>521.7</ele>
        <time>2021-09-06T08:09:15Z</time>
      </trkpt>
      <trkpt lat="44.67063" lon="5.43151">
        <ele>522.1</ele>
        <time>2021-09-06T08:09:16Z</time>
      </trkpt>
      <trkpt lat="44.67055" lon="5.43152">
        <ele>522.4</ele>
        <time>2021-09-06T08:09:18Z</time>
      </trkpt>
      <trkpt lat="44.67053" lon="5.43153">
        <ele>522.5</ele>
        <time>2021-09-06T08:09:19Z</time>
      </trkpt>
      <trkpt lat="44.67053" lon="5.43154">
        <ele>522.6</ele>
        <time>2021-09-06T08:09:20Z</time>
      </trkpt>
      <trkpt lat="44.67051" lon="5.43156">
        <ele>522.7</ele>
        <time>2021-09-06T08:09:22Z</time>
      </trkpt>
      <trkpt lat="44.67048" lon="5.43157">
        <ele>522.9</ele>
        <time>2021-09-06T08:09:24Z</time>
      </trkpt>
      <trkpt lat="44.67045" lon="5.43157">
        <ele>523</ele>
        <time>2021-09-06T08:09:25Z</time>
      </trkpt>
      <trkpt lat="44.67043" lon="5.43157">
        <ele>523.1</ele>
        <time>2021-09-06T08:09:26Z</time>
      </trkpt>
      <trkpt lat="44.6704" lon="5.43157">
        <ele>523.2</ele>
        <time>2021-09-06T08:09:28Z</time>
      </trkpt>
      <trkpt lat="44.67039" lon="5.43157">
        <ele>523.3</ele>
        <time>2021-09-06T08:09:29Z</time>
      </trkpt>
      <trkpt lat="44.66845" lon="5.43062">
        <ele>519.2</ele>
        <time>2021-09-06T08:09:58Z</time>
      </trkpt>
      <trkpt lat="44.66838" lon="5.43052">
        <ele>518.8</ele>
        <time>2021-09-06T08:09:59Z</time>
      </trkpt>
      <trkpt lat="44.66833" lon="5.43041">
        <ele>518.3</ele>
        <time>2021-09-06T08:10:00Z</time>
      </trkpt>
      <trkpt lat="44.66825" lon="5.43023">
        <ele>517.6</ele>
        <time>2021-09-06T08:10:02Z</time>
      </trkpt>
      <trkpt lat="44.66816" lon="5.43009">
        <ele>517</ele>
        <time>2021-09-06T08:10:04Z</time>
      </trkpt>
      <trkpt lat="44.66803" lon="5.42993">
        <ele>516.2</ele>
        <time>2021-09-06T08:10:06Z</time>
      </trkpt>
      <trkpt lat="44.66796" lon="5.42986">
        <ele>515.9</ele>
        <time>2021-09-06T08:10:07Z</time>
      </trkpt>
      <trkpt lat="44.66783" lon="5.42971">
        <ele>515.1</ele>
        <time>2021-09-06T08:10:09Z</time>
      </trkpt>
      <trkpt lat="44.6677" lon="5.42956">
        <ele>514.4</ele>
        <time>2021-09-06T08:10:11Z</time>
      </trkpt>
      <trkpt lat="44.66758" lon="5.42942">
        <ele>513.7</ele>
        <time>2021-09-06T08:10:13Z</time>
      </trkpt>
      <trkpt lat="44.66746" lon="5.42929">
        <ele>513</ele>
        <time>2021-09-06T08:10:15Z</time>
      </trkpt>
      <trkpt lat="44.6674" lon="5.42924">
        <ele>512.6</ele>
        <time>2021-09-06T08:10:16Z</time>
      </trkpt>
      <trkpt lat="44.66734" lon="5.42917">
        <ele>512.3</ele>
        <time>2021-09-06T08:10:17Z</time>
      </trkpt>
      <trkpt lat="44.66727" lon="5.42909">
        <ele>511.8</ele>
        <time>2021-09-06T08:10:18Z</time>
      </trkpt>
      <trkpt lat="44.66715" lon="5.42896">
        <ele>511.1</ele>
        <time>2021-09-06T08:10:20Z</time>
      </trkpt>
      <trkpt lat="44.66709" lon="5.4289">
        <ele>510.8</ele>
        <time>2021-09-06T08:10:21Z</time>
      </trkpt>
      <trkpt lat="44.66695" lon="5.42877">
        <ele>510</ele>
        <time>2021-09-06T08:10:23Z</time>
      </trkpt>
      <trkpt lat="44.66688" lon="5.42871">
        <ele>509.7</ele>
        <time>2021-09-06T08:10:24Z</time>
      </trkpt>
      <trkpt lat="44.66675" lon="5.4286">
        <ele>509</ele>
        <time>2021-09-06T08:10:26Z</time>
      </trkpt>
      <trkpt lat="44.66669" lon="5.42853">
        <ele>508.7</ele>
        <time>2021-09-06T08:10:27Z</time>
      </trkpt>
      <trkpt lat="44.66655" lon="5.4284">
        <ele>508</ele>
        <time>2021-09-06T08:10:29Z</time>
      </trkpt>
      <trkpt lat="44.66648" lon="5.42832">
        <ele>507.7</ele>
        <time>2021-09-06T08:10:30Z</time>
      </trkpt>
      <trkpt lat="44.66635" lon="5.42819">
        <ele>507.2</ele>
        <time>2021-09-06T08:10:32Z</time>
      </trkpt>
      <trkpt lat="44.66623" lon="5.42807">
        <ele>506.8</ele>
        <time>2021-09-06T08:10:34Z</time>
      </trkpt>
      <trkpt lat="44.66617" lon="5.42801">
        <ele>506.6</ele>
        <time>2021-09-06T08:10:35Z</time>
      </trkpt>
      <trkpt lat="44.6661" lon="5.42794">
        <ele>506.4</ele>
        <time>2021-09-06T08:10:36Z</time>
      </trkpt>
      <trkpt lat="44.66598" lon="5.42781">
        <ele>506.1</ele>
        <time>2021-09-06T08:10:38Z</time>
      </trkpt>
      <trkpt lat="44.66592" lon="5.42774">
        <ele>505.9</ele>
        <time>2021-09-06T08:10:39Z</time>
      </trkpt>
      <trkpt lat="44.6658" lon="5.42762">
        <ele>505.6</ele>
        <time>2021-09-06T08:10:41Z</time>
      </trkpt>
      <trkpt lat="44.66574" lon="5.42756">
        <ele>505.4</ele>
        <time>2021-09-06T08:10:42Z</time>
      </trkpt>
      <trkpt lat="44.66569" lon="5.42751">
        <ele>505.3</ele>
        <time>2021-09-06T08:10:43Z</time>
      </trkpt>
      <trkpt lat="44.66563" lon="5.42746">
        <ele>505.2</ele>
        <time>2021-09-06T08:10:44Z</time>
      </trkpt>
      <trkpt lat="44.66553" lon="5.42738">
        <ele>504.9</ele>
        <time>2021-09-06T08:10:46Z</time>
      </trkpt>
      <trkpt lat="44.66543" lon="5.42728">
        <ele>504.7</ele>
        <time>2021-09-06T08:10:48Z</time>
      </trkpt>
      <trkpt lat="44.66534" lon="5.42717">
        <ele>504.5</ele>
        <time>2021-09-06T08:10:50Z</time>
      </trkpt>
      <trkpt lat="44.66524" lon="5.42705">
        <ele>504.2</ele>
        <time>2021-09-06T08:10:52Z</time>
      </trkpt>
      <trkpt lat="44.66514" lon="5.42694">
        <ele>504</ele>
        <time>2021-09-06T08:10:54Z</time>
      </trkpt>
      <trkpt lat="44.66504" lon="5.42682">
        <ele>503.8</ele>
        <time>2021-09-06T08:10:56Z</time>
      </trkpt>
      <trkpt lat="44.66494" lon="5.42673">
        <ele>503.6</ele>
        <time>2021-09-06T08:10:58Z</time>
      </trkpt>
      <trkpt lat="44.66488" lon="5.42668">
        <ele>503.6</ele>
        <time>2021-09-06T08:10:59Z</time>
      </trkpt>
      <trkpt lat="44.66483" lon="5.42663">
        <ele>503.5</ele>
        <time>2021-09-06T08:11:00Z</time>
      </trkpt>
      <trkpt lat="44.66478" lon="5.42657">
        <ele>503.4</ele>
        <time>2021-09-06T08:11:01Z</time>
      </trkpt>
      <trkpt lat="44.66473" lon="5.42652">
        <ele>503.3</ele>
        <time>2021-09-06T08:11:02Z</time>
      </trkpt>
      <trkpt lat="44.66461" lon="5.42643">
        <ele>503.1</ele>
        <time>2021-09-06T08:11:04Z</time>
      </trkpt>
      <trkpt lat="44.66451" lon="5.42633">
        <ele>502.9</ele>
        <time>2021-09-06T08:11:06Z</time>
      </trkpt>
      <trkpt lat="44.6644" lon="5.42624">
        <ele>502.7</ele>
        <time>2021-09-06T08:11:08Z</time>
      </trkpt>
      <trkpt lat="44.6643" lon="5.42614">
        <ele>502.5</ele>
        <time>2021-09-06T08:11:10Z</time>
      </trkpt>
      <trkpt lat="44.66424" lon="5.42609">
        <ele>502.4</ele>
        <time>2021-09-06T08:11:11Z</time>
      </trkpt>
      <trkpt lat="44.66418" lon="5.42604">
        <ele>502.3</ele>
        <time>2021-09-06T08:11:12Z</time>
      </trkpt>
      <trkpt lat="44.66412" lon="5.42599">
        <ele>502.2</ele>
        <time>2021-09-06T08:11:13Z</time>
      </trkpt>
      <trkpt lat="44.664" lon="5.42588">
        <ele>502.1</ele>
        <time>2021-09-06T08:11:15Z</time>
      </trkpt>
      <trkpt lat="44.66394" lon="5.42583">
        <ele>502</ele>
        <time>2021-09-06T08:11:16Z</time>
      </trkpt>
      <trkpt lat="44.66383" lon="5.42572">
        <ele>501.7</ele>
        <time>2021-09-06T08:11:18Z</time>
      </trkpt>
      <trkpt lat="44.66378" lon="5.42567">
        <ele>501.7</ele>
        <time>2021-09-06T08:11:19Z</time>
      </trkpt>
      <trkpt lat="44.66374" lon="5.42562">
        <ele>501.6</ele>
        <time>2021-09-06T08:11:20Z</time>
      </trkpt>
      <trkpt lat="44.66364" lon="5.42553">
        <ele>501.4</ele>
        <time>2021-09-06T08:11:22Z</time>
      </trkpt>
      <trkpt lat="44.66354" lon="5.42543">
        <ele>501.2</ele>
        <time>2021-09-06T08:11:24Z</time>
      </trkpt>
      <trkpt lat="44.66342" lon="5.42532">
        <ele>501</ele>
        <time>2021-09-06T08:11:26Z</time>
      </trkpt>
      <trkpt lat="44.66336" lon="5.42527">
        <ele>500.8</ele>
        <time>2021-09-06T08:11:27Z</time>
      </trkpt>
      <trkpt lat="44.66329" lon="5.42523">
        <ele>500.7</ele>
        <time>2021-09-06T08:11:28Z</time>
      </trkpt>
      <trkpt lat="44.66323" lon="5.42518">
        <ele>500.6</ele>
        <time>2021-09-06T08:11:29Z</time>
      </trkpt>
      <trkpt lat="44.66312" lon="5.42508">
        <ele>500.4</ele>
        <time>2021-09-06T08:11:31Z</time>
      </trkpt>
      <trkpt lat="44.66306" lon="5.42503">
        <ele>500.3</ele>
        <time>2021-09-06T08:11:32Z</time>
      </trkpt>
      <trkpt lat="44.66296" lon="5.42492">
        <ele>500.1</ele>
        <time>2021-09-06T08:11:34Z</time>
      </trkpt>
      <trkpt lat="44.6628" lon="5.42484">
        <ele>499.9</ele>
        <time>2021-09-06T08:11:36Z</time>
      </trkpt>
      <trkpt lat="44.66275" lon="5.4248">
        <ele>499.8</ele>
        <time>2021-09-06T08:11:37Z</time>
      </trkpt>
      <trkpt lat="44.6627" lon="5.42476">
        <ele>499.7</ele>
        <time>2021-09-06T08:11:38Z</time>
      </trkpt>
      <trkpt lat="44.6626" lon="5.42466">
        <ele>499.6</ele>
        <time>2021-09-06T08:11:40Z</time>
      </trkpt>
      <trkpt lat="44.6625" lon="5.42456">
        <ele>499.5</ele>
        <time>2021-09-06T08:11:42Z</time>
      </trkpt>
      <trkpt lat="44.66239" lon="5.42446">
        <ele>499.5</ele>
        <time>2021-09-06T08:11:44Z</time>
      </trkpt>
      <trkpt lat="44.66226" lon="5.42437">
        <ele>499.5</ele>
        <time>2021-09-06T08:11:46Z</time>
      </trkpt>
      <trkpt lat="44.66216" lon="5.42427">
        <ele>499.6</ele>
        <time>2021-09-06T08:11:48Z</time>
      </trkpt>
      <trkpt lat="44.66208" lon="5.42417">
        <ele>499.8</ele>
        <time>2021-09-06T08:11:50Z</time>
      </trkpt>
      <trkpt lat="44.66199" lon="5.4241">
        <ele>499.9</ele>
        <time>2021-09-06T08:11:52Z</time>
      </trkpt>
      <trkpt lat="44.66195" lon="5.42406">
        <ele>499.9</ele>
        <time>2021-09-06T08:11:53Z</time>
      </trkpt>
      <trkpt lat="44.66189" lon="5.42401">
        <ele>500</ele>
        <time>2021-09-06T08:11:54Z</time>
      </trkpt>
      <trkpt lat="44.66184" lon="5.42397">
        <ele>500</ele>
        <time>2021-09-06T08:11:55Z</time>
      </trkpt>
      <trkpt lat="44.66179" lon="5.42392">
        <ele>500.1</ele>
        <time>2021-09-06T08:11:56Z</time>
      </trkpt>
      <trkpt lat="44.66169" lon="5.42384">
        <ele>500.3</ele>
        <time>2021-09-06T08:11:58Z</time>
      </trkpt>
      <trkpt lat="44.66165" lon="5.4238">
        <ele>500.4</ele>
        <time>2021-09-06T08:11:59Z</time>
      </trkpt>
      <trkpt lat="44.66156" lon="5.42374">
        <ele>500.6</ele>
        <time>2021-09-06T08:12:01Z</time>
      </trkpt>
      <trkpt lat="44.66152" lon="5.42371">
        <ele>500.6</ele>
        <time>2021-09-06T08:12:02Z</time>
      </trkpt>
      <trkpt lat="44.66145" lon="5.42363">
        <ele>500.8</ele>
        <time>2021-09-06T08:12:04Z</time>
      </trkpt>
      <trkpt lat="44.66141" lon="5.42359">
        <ele>501</ele>
        <time>2021-09-06T08:12:05Z</time>
      </trkpt>
      <trkpt lat="44.66134" lon="5.42351">
        <ele>501.2</ele>
        <time>2021-09-06T08:12:07Z</time>
      </trkpt>
      <trkpt lat="44.66131" lon="5.42347">
        <ele>501.3</ele>
        <time>2021-09-06T08:12:08Z</time>
      </trkpt>
      <trkpt lat="44.66126" lon="5.42336">
        <ele>501.6</ele>
        <time>2021-09-06T08:12:10Z</time>
      </trkpt>
      <trkpt lat="44.66124" lon="5.42331">
        <ele>501.7</ele>
        <time>2021-09-06T08:12:11Z</time>
      </trkpt>
      <trkpt lat="44.66125" lon="5.42326">
        <ele>501.8</ele>
        <time>2021-09-06T08:12:12Z</time>
      </trkpt>
      <trkpt lat="44.66128" lon="5.42316">
        <ele>502.1</ele>
        <time>2021-09-06T08:12:14Z</time>
      </trkpt>
      <trkpt lat="44.66127" lon="5.42308">
        <ele>502.3</ele>
        <time>2021-09-06T08:12:16Z</time>
      </trkpt>
      <trkpt lat="44.66122" lon="5.42296">
        <ele>502.7</ele>
        <time>2021-09-06T08:12:18Z</time>
      </trkpt>
      <trkpt lat="44.66121" lon="5.42295">
        <ele>502.7</ele>
        <time>2021-09-06T08:12:19Z</time>
      </trkpt>
      <trkpt lat="44.66118" lon="5.42288">
        <ele>502.8</ele>
        <time>2021-09-06T08:12:21Z</time>
      </trkpt>
      <trkpt lat="44.66114" lon="5.4228">
        <ele>503</ele>
        <time>2021-09-06T08:12:23Z</time>
      </trkpt>
      <trkpt lat="44.66112" lon="5.42272">
        <ele>503.2</ele>
        <time>2021-09-06T08:12:25Z</time>
      </trkpt>
      <trkpt lat="44.6611" lon="5.42265">
        <ele>503.3</ele>
        <time>2021-09-06T08:12:26Z</time>
      </trkpt>
      <trkpt lat="44.66109" lon="5.42261">
        <ele>503.4</ele>
        <time>2021-09-06T08:12:27Z</time>
      </trkpt>
      <trkpt lat="44.66108" lon="5.42255">
        <ele>503.5</ele>
        <time>2021-09-06T08:12:29Z</time>
      </trkpt>
      <trkpt lat="44.66106" lon="5.42249">
        <ele>503.7</ele>
        <time>2021-09-06T08:12:31Z</time>
      </trkpt>
      <trkpt lat="44.66106" lon="5.42242">
        <ele>503.8</ele>
        <time>2021-09-06T08:12:33Z</time>
      </trkpt>
      <trkpt lat="44.66106" lon="5.42236">
        <ele>503.9</ele>
        <time>2021-09-06T08:12:34Z</time>
      </trkpt>
      <trkpt lat="44.66104" lon="5.42233">
        <ele>504</ele>
        <time>2021-09-06T08:12:35Z</time>
      </trkpt>
      <trkpt lat="44.66103" lon="5.42228">
        <ele>504.1</ele>
        <time>2021-09-06T08:12:36Z</time>
      </trkpt>
      <trkpt lat="44.661" lon="5.4222">
        <ele>504.2</ele>
        <time>2021-09-06T08:12:38Z</time>
      </trkpt>
      <trkpt lat="44.66097" lon="5.42215">
        <ele>504.3</ele>
        <time>2021-09-06T08:12:40Z</time>
      </trkpt>
      <trkpt lat="44.66096" lon="5.42211">
        <ele>504.3</ele>
        <time>2021-09-06T08:12:41Z</time>
      </trkpt>
      <trkpt lat="44.66094" lon="5.42207">
        <ele>504.4</ele>
        <time>2021-09-06T08:12:42Z</time>
      </trkpt>
      <trkpt lat="44.66091" lon="5.42203">
        <ele>504.5</ele>
        <time>2021-09-06T08:12:43Z</time>
      </trkpt>
      <trkpt lat="44.66091" lon="5.42199">
        <ele>504.6</ele>
        <time>2021-09-06T08:12:44Z</time>
      </trkpt>
      <trkpt lat="44.6609" lon="5.42192">
        <ele>504.7</ele>
        <time>2021-09-06T08:12:46Z</time>
      </trkpt>
      <trkpt lat="44.66088" lon="5.42184">
        <ele>504.7</ele>
        <time>2021-09-06T08:12:48Z</time>
      </trkpt>
      <trkpt lat="44.66085" lon="5.42178">
        <ele>504.8</ele>
        <time>2021-09-06T08:12:49Z</time>
      </trkpt>
      <trkpt lat="44.66085" lon="5.42174">
        <ele>504.8</ele>
        <time>2021-09-06T08:12:50Z</time>
      </trkpt>
      <trkpt lat="44.66084" lon="5.42169">
        <ele>504.9</ele>
        <time>2021-09-06T08:12:52Z</time>
      </trkpt>
      <trkpt lat="44.66083" lon="5.42164">
        <ele>504.9</ele>
        <time>2021-09-06T08:12:53Z</time>
      </trkpt>
      <trkpt lat="44.66079" lon="5.42156">
        <ele>504.9</ele>
        <time>2021-09-06T08:12:54Z</time>
      </trkpt>
      <trkpt lat="44.66077" lon="5.4215">
        <ele>504.9</ele>
        <time>2021-09-06T08:12:56Z</time>
      </trkpt>
      <trkpt lat="44.66076" lon="5.42142">
        <ele>504.8</ele>
        <time>2021-09-06T08:12:57Z</time>
      </trkpt>
      <trkpt lat="44.66074" lon="5.42134">
        <ele>504.7</ele>
        <time>2021-09-06T08:12:59Z</time>
      </trkpt>
      <trkpt lat="44.66071" lon="5.42124">
        <ele>504.6</ele>
        <time>2021-09-06T08:13:01Z</time>
      </trkpt>
      <trkpt lat="44.66066" lon="5.42114">
        <ele>504.5</ele>
        <time>2021-09-06T08:13:03Z</time>
      </trkpt>
      <trkpt lat="44.66063" lon="5.42108">
        <ele>504.4</ele>
        <time>2021-09-06T08:13:04Z</time>
      </trkpt>
      <trkpt lat="44.66059" lon="5.42099">
        <ele>504.2</ele>
        <time>2021-09-06T08:13:06Z</time>
      </trkpt>
      <trkpt lat="44.66052" lon="5.42089">
        <ele>504</ele>
        <time>2021-09-06T08:13:07Z</time>
      </trkpt>
      <trkpt lat="44.66048" lon="5.42085">
        <ele>503.9</ele>
        <time>2021-09-06T08:13:08Z</time>
      </trkpt>
      <trkpt lat="44.66045" lon="5.4208">
        <ele>503.8</ele>
        <time>2021-09-06T08:13:09Z</time>
      </trkpt>
      <trkpt lat="44.66043" lon="5.42073">
        <ele>503.8</ele>
        <time>2021-09-06T08:13:11Z</time>
      </trkpt>
      <trkpt lat="44.66019" lon="5.42066">
        <ele>503.2</ele>
        <time>2021-09-06T08:13:12Z</time>
      </trkpt>
      <trkpt lat="44.66011" lon="5.42062">
        <ele>503.1</ele>
        <time>2021-09-06T08:13:14Z</time>
      </trkpt>
      <trkpt lat="44.65996" lon="5.42056">
        <ele>502.6</ele>
        <time>2021-09-06T08:13:16Z</time>
      </trkpt>
      <trkpt lat="44.65983" lon="5.4205">
        <ele>502.3</ele>
        <time>2021-09-06T08:13:18Z</time>
      </trkpt>
      <trkpt lat="44.65972" lon="5.42043">
        <ele>502</ele>
        <time>2021-09-06T08:13:20Z</time>
      </trkpt>
      <trkpt lat="44.6596" lon="5.42038">
        <ele>501.6</ele>
        <time>2021-09-06T08:13:22Z</time>
      </trkpt>
      <trkpt lat="44.65953" lon="5.42036">
        <ele>501.4</ele>
        <time>2021-09-06T08:13:23Z</time>
      </trkpt>
      <trkpt lat="44.65941" lon="5.42033">
        <ele>501.1</ele>
        <time>2021-09-06T08:13:25Z</time>
      </trkpt>
      <trkpt lat="44.65935" lon="5.42032">
        <ele>500.9</ele>
        <time>2021-09-06T08:13:26Z</time>
      </trkpt>
      <trkpt lat="44.65922" lon="5.42028">
        <ele>500.3</ele>
        <time>2021-09-06T08:13:28Z</time>
      </trkpt>
      <trkpt lat="44.65916" lon="5.42025">
        <ele>500.1</ele>
        <time>2021-09-06T08:13:29Z</time>
      </trkpt>
      <trkpt lat="44.65905" lon="5.42018">
        <ele>499.7</ele>
        <time>2021-09-06T08:13:31Z</time>
      </trkpt>
      <trkpt lat="44.65897" lon="5.4201">
        <ele>499.3</ele>
        <time>2021-09-06T08:13:33Z</time>
      </trkpt>
      <trkpt lat="44.6589" lon="5.42">
        <ele>498.9</ele>
        <time>2021-09-06T08:13:35Z</time>
      </trkpt>
      <trkpt lat="44.65886" lon="5.41984">
        <ele>498.5</ele>
        <time>2021-09-06T08:13:37Z</time>
      </trkpt>
      <trkpt lat="44.65884" lon="5.41972">
        <ele>498.2</ele>
        <time>2021-09-06T08:13:38Z</time>
      </trkpt>
      <trkpt lat="44.65882" lon="5.41951">
        <ele>497.7</ele>
        <time>2021-09-06T08:13:40Z</time>
      </trkpt>
      <trkpt lat="44.65881" lon="5.41941">
        <ele>497.5</ele>
        <time>2021-09-06T08:13:41Z</time>
      </trkpt>
      <trkpt lat="44.65882" lon="5.41931">
        <ele>497.3</ele>
        <time>2021-09-06T08:13:42Z</time>
      </trkpt>
      <trkpt lat="44.65886" lon="5.41916">
        <ele>496.9</ele>
        <time>2021-09-06T08:13:44Z</time>
      </trkpt>
      <trkpt lat="44.6589" lon="5.41905">
        <ele>496.7</ele>
        <time>2021-09-06T08:13:45Z</time>
      </trkpt>
      <trkpt lat="44.65894" lon="5.41886">
        <ele>496.3</ele>
        <time>2021-09-06T08:13:47Z</time>
      </trkpt>
      <trkpt lat="44.65892" lon="5.41869">
        <ele>495.9</ele>
        <time>2021-09-06T08:13:49Z</time>
      </trkpt>
      <trkpt lat="44.65886" lon="5.41856">
        <ele>495.6</ele>
        <time>2021-09-06T08:13:51Z</time>
      </trkpt>
      <trkpt lat="44.65879" lon="5.41842">
        <ele>495.3</ele>
        <time>2021-09-06T08:13:53Z</time>
      </trkpt>
      <trkpt lat="44.65875" lon="5.41836">
        <ele>495.1</ele>
        <time>2021-09-06T08:13:54Z</time>
      </trkpt>
      <trkpt lat="44.6587" lon="5.41829">
        <ele>494.9</ele>
        <time>2021-09-06T08:13:55Z</time>
      </trkpt>
      <trkpt lat="44.65866" lon="5.41823">
        <ele>494.7</ele>
        <time>2021-09-06T08:13:56Z</time>
      </trkpt>
      <trkpt lat="44.65857" lon="5.4181">
        <ele>494.3</ele>
        <time>2021-09-06T08:13:58Z</time>
      </trkpt>
      <trkpt lat="44.6585" lon="5.41801">
        <ele>494.1</ele>
        <time>2021-09-06T08:13:59Z</time>
      </trkpt>
      <trkpt lat="44.65845" lon="5.41792">
        <ele>493.8</ele>
        <time>2021-09-06T08:14:00Z</time>
      </trkpt>
      <trkpt lat="44.65836" lon="5.41776">
        <ele>493.5</ele>
        <time>2021-09-06T08:14:02Z</time>
      </trkpt>
      <trkpt lat="44.65827" lon="5.41759">
        <ele>493.3</ele>
        <time>2021-09-06T08:14:04Z</time>
      </trkpt>
      <trkpt lat="44.65817" lon="5.41742">
        <ele>493</ele>
        <time>2021-09-06T08:14:06Z</time>
      </trkpt>
      <trkpt lat="44.65806" lon="5.41727">
        <ele>492.9</ele>
        <time>2021-09-06T08:14:08Z</time>
      </trkpt>
      <trkpt lat="44.65797" lon="5.41714">
        <ele>492.8</ele>
        <time>2021-09-06T08:14:10Z</time>
      </trkpt>
      <trkpt lat="44.65802" lon="5.41704">
        <ele>492.7</ele>
        <time>2021-09-06T08:14:11Z</time>
      </trkpt>
      <trkpt lat="44.65804" lon="5.41692">
        <ele>492.7</ele>
        <time>2021-09-06T08:14:13Z</time>
      </trkpt>
      <trkpt lat="44.65801" lon="5.41686">
        <ele>492.7</ele>
        <time>2021-09-06T08:14:14Z</time>
      </trkpt>
      <trkpt lat="44.65799" lon="5.41678">
        <ele>492.7</ele>
        <time>2021-09-06T08:14:15Z</time>
      </trkpt>
      <trkpt lat="44.65793" lon="5.41665">
        <ele>492.7</ele>
        <time>2021-09-06T08:14:17Z</time>
      </trkpt>
      <trkpt lat="44.6579" lon="5.41655">
        <ele>492.7</ele>
        <time>2021-09-06T08:14:18Z</time>
      </trkpt>
      <trkpt lat="44.65778" lon="5.4164">
        <ele>492.7</ele>
        <time>2021-09-06T08:14:20Z</time>
      </trkpt>
      <trkpt lat="44.65764" lon="5.41629">
        <ele>492.6</ele>
        <time>2021-09-06T08:14:22Z</time>
      </trkpt>
      <trkpt lat="44.65759" lon="5.41624">
        <ele>492.6</ele>
        <time>2021-09-06T08:14:23Z</time>
      </trkpt>
      <trkpt lat="44.6575" lon="5.41611">
        <ele>492.5</ele>
        <time>2021-09-06T08:14:25Z</time>
      </trkpt>
      <trkpt lat="44.65744" lon="5.41605">
        <ele>492.5</ele>
        <time>2021-09-06T08:14:26Z</time>
      </trkpt>
      <trkpt lat="44.65732" lon="5.41592">
        <ele>492.5</ele>
        <time>2021-09-06T08:14:28Z</time>
      </trkpt>
      <trkpt lat="44.65727" lon="5.41586">
        <ele>492.5</ele>
        <time>2021-09-06T08:14:29Z</time>
      </trkpt>
      <trkpt lat="44.65716" lon="5.41572">
        <ele>492.5</ele>
        <time>2021-09-06T08:14:31Z</time>
      </trkpt>
      <trkpt lat="44.65712" lon="5.41566">
        <ele>492.5</ele>
        <time>2021-09-06T08:14:32Z</time>
      </trkpt>
      <trkpt lat="44.65705" lon="5.41554">
        <ele>492.6</ele>
        <time>2021-09-06T08:14:34Z</time>
      </trkpt>
      <trkpt lat="44.65701" lon="5.41548">
        <ele>492.6</ele>
        <time>2021-09-06T08:14:35Z</time>
      </trkpt>
      <trkpt lat="44.65697" lon="5.41542">
        <ele>492.6</ele>
        <time>2021-09-06T08:14:36Z</time>
      </trkpt>
      <trkpt lat="44.6569" lon="5.41529">
        <ele>492.8</ele>
        <time>2021-09-06T08:14:38Z</time>
      </trkpt>
      <trkpt lat="44.65687" lon="5.41524">
        <ele>492.9</ele>
        <time>2021-09-06T08:14:39Z</time>
      </trkpt>
      <trkpt lat="44.65684" lon="5.41512">
        <ele>493</ele>
        <time>2021-09-06T08:14:41Z</time>
      </trkpt>
      <trkpt lat="44.65678" lon="5.41501">
        <ele>493.2</ele>
        <time>2021-09-06T08:14:43Z</time>
      </trkpt>
      <trkpt lat="44.65675" lon="5.41495">
        <ele>493.3</ele>
        <time>2021-09-06T08:14:44Z</time>
      </trkpt>
      <trkpt lat="44.65672" lon="5.4149">
        <ele>493.4</ele>
        <time>2021-09-06T08:14:45Z</time>
      </trkpt>
      <trkpt lat="44.65665" lon="5.41478">
        <ele>493.6</ele>
        <time>2021-09-06T08:14:47Z</time>
      </trkpt>
      <trkpt lat="44.65662" lon="5.41472">
        <ele>493.7</ele>
        <time>2021-09-06T08:14:48Z</time>
      </trkpt>
      <trkpt lat="44.6566" lon="5.41466">
        <ele>493.8</ele>
        <time>2021-09-06T08:14:49Z</time>
      </trkpt>
      <trkpt lat="44.65653" lon="5.41456">
        <ele>494</ele>
        <time>2021-09-06T08:14:51Z</time>
      </trkpt>
      <trkpt lat="44.65646" lon="5.41447">
        <ele>494.3</ele>
        <time>2021-09-06T08:14:53Z</time>
      </trkpt>
      <trkpt lat="44.65643" lon="5.41442">
        <ele>494.4</ele>
        <time>2021-09-06T08:14:54Z</time>
      </trkpt>
      <trkpt lat="44.65637" lon="5.41431">
        <ele>494.7</ele>
        <time>2021-09-06T08:14:56Z</time>
      </trkpt>
      <trkpt lat="44.65635" lon="5.41423">
        <ele>494.9</ele>
        <time>2021-09-06T08:14:58Z</time>
      </trkpt>
      <trkpt lat="44.65633" lon="5.41418">
        <ele>495.1</ele>
        <time>2021-09-06T08:14:59Z</time>
      </trkpt>
      <trkpt lat="44.6563" lon="5.41407">
        <ele>495.4</ele>
        <time>2021-09-06T08:15:01Z</time>
      </trkpt>
      <trkpt lat="44.65628" lon="5.41402">
        <ele>495.5</ele>
        <time>2021-09-06T08:15:02Z</time>
      </trkpt>
      <trkpt lat="44.65626" lon="5.41397">
        <ele>495.6</ele>
        <time>2021-09-06T08:15:04Z</time>
      </trkpt>
      <trkpt lat="44.65624" lon="5.41394">
        <ele>495.7</ele>
        <time>2021-09-06T08:15:05Z</time>
      </trkpt>
      <trkpt lat="44.65623" lon="5.41388">
        <ele>495.9</ele>
        <time>2021-09-06T08:15:06Z</time>
      </trkpt>
      <trkpt lat="44.65623" lon="5.41384">
        <ele>495.9</ele>
        <time>2021-09-06T08:15:07Z</time>
      </trkpt>
      <trkpt lat="44.65623" lon="5.4138">
        <ele>496</ele>
        <time>2021-09-06T08:15:08Z</time>
      </trkpt>
      <trkpt lat="44.65622" lon="5.41373">
        <ele>496.2</ele>
        <time>2021-09-06T08:15:10Z</time>
      </trkpt>
      <trkpt lat="44.65623" lon="5.41365">
        <ele>496.3</ele>
        <time>2021-09-06T08:15:12Z</time>
      </trkpt>
      <trkpt lat="44.65621" lon="5.4136">
        <ele>496.4</ele>
        <time>2021-09-06T08:15:14Z</time>
      </trkpt>
      <trkpt lat="44.6562" lon="5.41359">
        <ele>496.5</ele>
        <time>2021-09-06T08:15:15Z</time>
      </trkpt>
      <trkpt lat="44.65619" lon="5.41358">
        <ele>496.5</ele>
        <time>2021-09-06T08:15:16Z</time>
      </trkpt>
      <trkpt lat="44.65618" lon="5.41352">
        <ele>496.6</ele>
        <time>2021-09-06T08:15:17Z</time>
      </trkpt>
      <trkpt lat="44.65616" lon="5.41349">
        <ele>496.7</ele>
        <time>2021-09-06T08:15:18Z</time>
      </trkpt>
      <trkpt lat="44.65615" lon="5.41342">
        <ele>496.8</ele>
        <time>2021-09-06T08:15:20Z</time>
      </trkpt>
      <trkpt lat="44.65614" lon="5.41331">
        <ele>497</ele>
        <time>2021-09-06T08:15:22Z</time>
      </trkpt>
      <trkpt lat="44.65614" lon="5.41324">
        <ele>497.2</ele>
        <time>2021-09-06T08:15:23Z</time>
      </trkpt>
      <trkpt lat="44.65615" lon="5.41315">
        <ele>497.3</ele>
        <time>2021-09-06T08:15:25Z</time>
      </trkpt>
      <trkpt lat="44.65615" lon="5.41306">
        <ele>497.4</ele>
        <time>2021-09-06T08:15:26Z</time>
      </trkpt>
      <trkpt lat="44.65614" lon="5.41297">
        <ele>497.6</ele>
        <time>2021-09-06T08:15:28Z</time>
      </trkpt>
      <trkpt lat="44.65614" lon="5.4129">
        <ele>497.6</ele>
        <time>2021-09-06T08:15:30Z</time>
      </trkpt>
      <trkpt lat="44.65613" lon="5.41288">
        <ele>497.7</ele>
        <time>2021-09-06T08:15:31Z</time>
      </trkpt>
      <trkpt lat="44.6561" lon="5.41286">
        <ele>497.7</ele>
        <time>2021-09-06T08:15:33Z</time>
      </trkpt>
      <trkpt lat="44.65605" lon="5.41284">
        <ele>497.9</ele>
        <time>2021-09-06T08:15:34Z</time>
      </trkpt>
      <trkpt lat="44.656" lon="5.41282">
        <ele>497.9</ele>
        <time>2021-09-06T08:15:35Z</time>
      </trkpt>
      <trkpt lat="44.65596" lon="5.4128">
        <ele>498</ele>
        <time>2021-09-06T08:15:36Z</time>
      </trkpt>
      <trkpt lat="44.6559" lon="5.41276">
        <ele>498.2</ele>
        <time>2021-09-06T08:15:38Z</time>
      </trkpt>
      <trkpt lat="44.65586" lon="5.4127">
        <ele>498.3</ele>
        <time>2021-09-06T08:15:40Z</time>
      </trkpt>
      <trkpt lat="44.65584" lon="5.41264">
        <ele>498.4</ele>
        <time>2021-09-06T08:15:41Z</time>
      </trkpt>
      <trkpt lat="44.65582" lon="5.41259">
        <ele>498.5</ele>
        <time>2021-09-06T08:15:42Z</time>
      </trkpt>
      <trkpt lat="44.65581" lon="5.41254">
        <ele>498.6</ele>
        <time>2021-09-06T08:15:43Z</time>
      </trkpt>
      <trkpt lat="44.65579" lon="5.41244">
        <ele>498.8</ele>
        <time>2021-09-06T08:15:45Z</time>
      </trkpt>
      <trkpt lat="44.65575" lon="5.41237">
        <ele>499.1</ele>
        <time>2021-09-06T08:15:47Z</time>
      </trkpt>
      <trkpt lat="44.65571" lon="5.41232">
        <ele>499.3</ele>
        <time>2021-09-06T08:15:48Z</time>
      </trkpt>
      <trkpt lat="44.65569" lon="5.41227">
        <ele>499.4</ele>
        <time>2021-09-06T08:15:50Z</time>
      </trkpt>
      <trkpt lat="44.65567" lon="5.4122">
        <ele>499.6</ele>
        <time>2021-09-06T08:15:51Z</time>
      </trkpt>
      <trkpt lat="44.65565" lon="5.41214">
        <ele>499.8</ele>
        <time>2021-09-06T08:15:52Z</time>
      </trkpt>
      <trkpt lat="44.6556" lon="5.41203">
        <ele>499.7</ele>
        <time>2021-09-06T08:15:54Z</time>
      </trkpt>
      <trkpt lat="44.65555" lon="5.41194">
        <ele>499.5</ele>
        <time>2021-09-06T08:15:55Z</time>
      </trkpt>
      <trkpt lat="44.65542" lon="5.41183">
        <ele>499.4</ele>
        <time>2021-09-06T08:15:56Z</time>
      </trkpt>
      <trkpt lat="44.65539" lon="5.41177">
        <ele>499.4</ele>
        <time>2021-09-06T08:15:57Z</time>
      </trkpt>
      <trkpt lat="44.65535" lon="5.41173">
        <ele>499.4</ele>
        <time>2021-09-06T08:15:59Z</time>
      </trkpt>
      <trkpt lat="44.65531" lon="5.41167">
        <ele>499.4</ele>
        <time>2021-09-06T08:16:00Z</time>
      </trkpt>
      <trkpt lat="44.65526" lon="5.41166">
        <ele>499.5</ele>
        <time>2021-09-06T08:16:02Z</time>
      </trkpt>
      <trkpt lat="44.65522" lon="5.41171">
        <ele>499.5</ele>
        <time>2021-09-06T08:16:03Z</time>
      </trkpt>
      <trkpt lat="44.65519" lon="5.41173">
        <ele>499.6</ele>
        <time>2021-09-06T08:16:04Z</time>
      </trkpt>
      <trkpt lat="44.65516" lon="5.41178">
        <ele>499.8</ele>
        <time>2021-09-06T08:16:06Z</time>
      </trkpt>
      <trkpt lat="44.65512" lon="5.41184">
        <ele>499.9</ele>
        <time>2021-09-06T08:16:07Z</time>
      </trkpt>
      <trkpt lat="44.6551" lon="5.41187">
        <ele>500</ele>
        <time>2021-09-06T08:16:08Z</time>
      </trkpt>
      <trkpt lat="44.65505" lon="5.41193">
        <ele>500.1</ele>
        <time>2021-09-06T08:16:10Z</time>
      </trkpt>
      <trkpt lat="44.65503" lon="5.41197">
        <ele>500.3</ele>
        <time>2021-09-06T08:16:11Z</time>
      </trkpt>
      <trkpt lat="44.65499" lon="5.41199">
        <ele>500.4</ele>
        <time>2021-09-06T08:16:13Z</time>
      </trkpt>
      <trkpt lat="44.65497" lon="5.412">
        <ele>500.4</ele>
        <time>2021-09-06T08:16:14Z</time>
      </trkpt>
      <trkpt lat="44.65496" lon="5.412">
        <ele>500.5</ele>
        <time>2021-09-06T08:16:15Z</time>
      </trkpt>
      <trkpt lat="44.65492" lon="5.41206">
        <ele>500.8</ele>
        <time>2021-09-06T08:16:17Z</time>
      </trkpt>
      <trkpt lat="44.65488" lon="5.41212">
        <ele>501</ele>
        <time>2021-09-06T08:16:18Z</time>
      </trkpt>
      <trkpt lat="44.65486" lon="5.4122">
        <ele>501.3</ele>
        <time>2021-09-06T08:16:19Z</time>
      </trkpt>
      <trkpt lat="44.65485" lon="5.41223">
        <ele>501.4</ele>
        <time>2021-09-06T08:16:20Z</time>
      </trkpt>
      <trkpt lat="44.65483" lon="5.4123">
        <ele>501.6</ele>
        <time>2021-09-06T08:16:22Z</time>
      </trkpt>
      <trkpt lat="44.65481" lon="5.41233">
        <ele>501.8</ele>
        <time>2021-09-06T08:16:23Z</time>
      </trkpt>
      <trkpt lat="44.65478" lon="5.41235">
        <ele>501.9</ele>
        <time>2021-09-06T08:16:25Z</time>
      </trkpt>
      <trkpt lat="44.65474" lon="5.41235">
        <ele>502.1</ele>
        <time>2021-09-06T08:16:26Z</time>
      </trkpt>
      <trkpt lat="44.65464" lon="5.41235">
        <ele>502.6</ele>
        <time>2021-09-06T08:16:28Z</time>
      </trkpt>
      <trkpt lat="44.65457" lon="5.41235">
        <ele>502.9</ele>
        <time>2021-09-06T08:16:29Z</time>
      </trkpt>
      <trkpt lat="44.6545" lon="5.41236">
        <ele>503.3</ele>
        <time>2021-09-06T08:16:31Z</time>
      </trkpt>
      <trkpt lat="44.65444" lon="5.41237">
        <ele>503.6</ele>
        <time>2021-09-06T08:16:32Z</time>
      </trkpt>
      <trkpt lat="44.6544" lon="5.41239">
        <ele>503.8</ele>
        <time>2021-09-06T08:16:34Z</time>
      </trkpt>
      <trkpt lat="44.65438" lon="5.41238">
        <ele>503.9</ele>
        <time>2021-09-06T08:16:35Z</time>
      </trkpt>
      <trkpt lat="44.65435" lon="5.41237">
        <ele>504</ele>
        <time>2021-09-06T08:16:37Z</time>
      </trkpt>
      <trkpt lat="44.65431" lon="5.41237">
        <ele>504.2</ele>
        <time>2021-09-06T08:16:38Z</time>
      </trkpt>
      <trkpt lat="44.65427" lon="5.41239">
        <ele>504.4</ele>
        <time>2021-09-06T08:16:40Z</time>
      </trkpt>
      <trkpt lat="44.65423" lon="5.4124">
        <ele>504.6</ele>
        <time>2021-09-06T08:16:41Z</time>
      </trkpt>
      <trkpt lat="44.65419" lon="5.41242">
        <ele>504.8</ele>
        <time>2021-09-06T08:16:43Z</time>
      </trkpt>
      <trkpt lat="44.65415" lon="5.41243">
        <ele>505</ele>
        <time>2021-09-06T08:16:44Z</time>
      </trkpt>
      <trkpt lat="44.65412" lon="5.41245">
        <ele>505</ele>
        <time>2021-09-06T08:16:46Z</time>
      </trkpt>
      <trkpt lat="44.65409" lon="5.41246">
        <ele>505</ele>
        <time>2021-09-06T08:16:47Z</time>
      </trkpt>
      <trkpt lat="44.65407" lon="5.41247">
        <ele>505</ele>
        <time>2021-09-06T08:16:48Z</time>
      </trkpt>
      <trkpt lat="44.65407" lon="5.41247">
        <ele>505</ele>
        <time>2021-09-06T08:16:49Z</time>
      </trkpt>
      <trkpt lat="44.65407" lon="5.41248">
        <ele>505.1</ele>
        <time>2021-09-06T08:16:50Z</time>
      </trkpt>
      <trkpt lat="44.6541" lon="5.4125">
        <ele>505.1</ele>
        <time>2021-09-06T08:16:52Z</time>
      </trkpt>
      <trkpt lat="44.6541" lon="5.4125">
        <ele>505.1</ele>
        <time>2021-09-06T08:16:53Z</time>
      </trkpt>
      <trkpt lat="44.6541" lon="5.41251">
        <ele>505.1</ele>
        <time>2021-09-06T08:16:54Z</time>
      </trkpt>
      <trkpt lat="44.6541" lon="5.41252">
        <ele>505.1</ele>
        <time>2021-09-06T08:16:56Z</time>
      </trkpt>
      <trkpt lat="44.65409" lon="5.41252">
        <ele>505.1</ele>
        <time>2021-09-06T08:16:57Z</time>
      </trkpt>
      <trkpt lat="44.65408" lon="5.41253">
        <ele>505.1</ele>
        <time>2021-09-06T08:16:59Z</time>
      </trkpt>
      <trkpt lat="44.65363" lon="5.41275">
        <ele>507.2</ele>
        <time>2021-09-06T08:20:08Z</time>
      </trkpt>
      <trkpt lat="44.65362" lon="5.41276">
        <ele>507.2</ele>
        <time>2021-09-06T08:20:15Z</time>
      </trkpt>
      <trkpt lat="44.65361" lon="5.41276">
        <ele>507.2</ele>
        <time>2021-09-06T08:20:21Z</time>
      </trkpt>
      <trkpt lat="44.65361" lon="5.41276">
        <ele>507.2</ele>
        <time>2021-09-06T08:20:28Z</time>
      </trkpt>
      <trkpt lat="44.65362" lon="5.41276">
        <ele>507.2</ele>
        <time>2021-09-06T08:20:34Z</time>
      </trkpt>
      <trkpt lat="44.65362" lon="5.41276">
        <ele>507.2</ele>
        <time>2021-09-06T08:20:41Z</time>
      </trkpt>
      <trkpt lat="44.65361" lon="5.41276">
        <ele>507.2</ele>
        <time>2021-09-06T08:20:47Z</time>
      </trkpt>
      <trkpt lat="44.65361" lon="5.41276">
        <ele>507.2</ele>
        <time>2021-09-06T08:20:53Z</time>
      </trkpt>
      <trkpt lat="44.65361" lon="5.41276">
        <ele>507.3</ele>
        <time>2021-09-06T08:21:00Z</time>
      </trkpt>
      <trkpt lat="44.65361" lon="5.41276">
        <ele>507.3</ele>
        <time>2021-09-06T08:21:06Z</time>
      </trkpt>
      <trkpt lat="44.65362" lon="5.41276">
        <ele>507.3</ele>
        <time>2021-09-06T08:21:12Z</time>
      </trkpt>
      <trkpt lat="44.65362" lon="5.41276">
        <ele>507.3</ele>
        <time>2021-09-06T08:21:14Z</time>
      </trkpt>
      <trkpt lat="44.65363" lon="5.41275">
        <ele>507.3</ele>
        <time>2021-09-06T08:21:16Z</time>
      </trkpt>
      <trkpt lat="44.65363" lon="5.41275">
        <ele>507.3</ele>
        <time>2021-09-06T08:21:19Z</time>
      </trkpt>
      <trkpt lat="44.65362" lon="5.41279">
        <ele>507.3</ele>
        <time>2021-09-06T08:21:20Z</time>
      </trkpt>
      <trkpt lat="44.65362" lon="5.4128">
        <ele>507.3</ele>
        <time>2021-09-06T08:21:23Z</time>
      </trkpt>
      <trkpt lat="44.65362" lon="5.4128">
        <ele>507.3</ele>
        <time>2021-09-06T08:21:25Z</time>
      </trkpt>
      <trkpt lat="44.65361" lon="5.41286">
        <ele>507.4</ele>
        <time>2021-09-06T08:21:27Z</time>
      </trkpt>
      <trkpt lat="44.6536" lon="5.41289">
        <ele>507.4</ele>
        <time>2021-09-06T08:21:29Z</time>
      </trkpt>
      <trkpt lat="44.6536" lon="5.41289">
        <ele>507.5</ele>
        <time>2021-09-06T08:21:30Z</time>
      </trkpt>
      <trkpt lat="44.6536" lon="5.41288">
        <ele>507.5</ele>
        <time>2021-09-06T08:21:34Z</time>
      </trkpt>
      <trkpt lat="44.65361" lon="5.41288">
        <ele>507.5</ele>
        <time>2021-09-06T08:21:36Z</time>
      </trkpt>
      <trkpt lat="44.6536" lon="5.41287">
        <ele>507.5</ele>
        <time>2021-09-06T08:21:37Z</time>
      </trkpt>
      <trkpt lat="44.6536" lon="5.41288">
        <ele>507.5</ele>
        <time>2021-09-06T08:21:39Z</time>
      </trkpt>
      <trkpt lat="44.65375" lon="5.41284">
        <ele>507.7</ele>
        <time>2021-09-06T08:25:29Z</time>
      </trkpt>
      <trkpt lat="44.65374" lon="5.41284">
        <ele>507.7</ele>
        <time>2021-09-06T08:25:30Z</time>
      </trkpt>
      <trkpt lat="44.65372" lon="5.41283">
        <ele>507.8</ele>
        <time>2021-09-06T08:25:32Z</time>
      </trkpt>
      <trkpt lat="44.65369" lon="5.41282">
        <ele>507.8</ele>
        <time>2021-09-06T08:25:34Z</time>
      </trkpt>
      <trkpt lat="44.65368" lon="5.41282">
        <ele>507.8</ele>
        <time>2021-09-06T08:25:35Z</time>
      </trkpt>
      <trkpt lat="44.65367" lon="5.41282">
        <ele>507.8</ele>
        <time>2021-09-06T08:25:37Z</time>
      </trkpt>
      <trkpt lat="44.65367" lon="5.41282">
        <ele>507.8</ele>
        <time>2021-09-06T08:25:38Z</time>
      </trkpt>
      <trkpt lat="44.65366" lon="5.41282">
        <ele>507.9</ele>
        <time>2021-09-06T08:25:40Z</time>
      </trkpt>
      <trkpt lat="44.65366" lon="5.41281">
        <ele>507.9</ele>
        <time>2021-09-06T08:25:41Z</time>
      </trkpt>
      <trkpt lat="44.65365" lon="5.41281">
        <ele>507.9</ele>
        <time>2021-09-06T08:25:42Z</time>
      </trkpt>
      <trkpt lat="44.65365" lon="5.41281">
        <ele>507.9</ele>
        <time>2021-09-06T08:25:43Z</time>
      </trkpt>
      <trkpt lat="44.65365" lon="5.41281">
        <ele>507.9</ele>
        <time>2021-09-06T08:25:45Z</time>
      </trkpt>
      <trkpt lat="44.65365" lon="5.41281">
        <ele>507.9</ele>
        <time>2021-09-06T08:25:46Z</time>
      </trkpt>
      <trkpt lat="44.65365" lon="5.4128">
        <ele>507.9</ele>
        <time>2021-09-06T08:25:47Z</time>
      </trkpt>
      <trkpt lat="44.65365" lon="5.4128">
        <ele>507.9</ele>
        <time>2021-09-06T08:25:48Z</time>
      </trkpt>
      <trkpt lat="44.65365" lon="5.4128">
        <ele>507.9</ele>
        <time>2021-09-06T08:25:49Z</time>
      </trkpt>
      <trkpt lat="44.65365" lon="5.4128">
        <ele>507.9</ele>
        <time>2021-09-06T08:25:51Z</time>
      </trkpt>
      <trkpt lat="44.65364" lon="5.4128">
        <ele>507.9</ele>
        <time>2021-09-06T08:25:53Z</time>
      </trkpt>
      <trkpt lat="44.65364" lon="5.41279">
        <ele>507.9</ele>
        <time>2021-09-06T08:25:54Z</time>
      </trkpt>
      <trkpt lat="44.65364" lon="5.41279">
        <ele>507.9</ele>
        <time>2021-09-06T08:25:56Z</time>
      </trkpt>
      <trkpt lat="44.65364" lon="5.41275">
        <ele>507.9</ele>
        <time>2021-09-06T08:25:58Z</time>
      </trkpt>
      <trkpt lat="44.65364" lon="5.41275">
        <ele>507.9</ele>
        <time>2021-09-06T08:25:59Z</time>
      </trkpt>
      <trkpt lat="44.65364" lon="5.41274">
        <ele>507.9</ele>
        <time>2021-09-06T08:26:00Z</time>
      </trkpt>
      <trkpt lat="44.65365" lon="5.41274">
        <ele>507.9</ele>
        <time>2021-09-06T08:26:01Z</time>
      </trkpt>
      <trkpt lat="44.65365" lon="5.41274">
        <ele>507.9</ele>
        <time>2021-09-06T08:26:02Z</time>
      </trkpt>
      <trkpt lat="44.65365" lon="5.41274">
        <ele>507.9</ele>
        <time>2021-09-06T08:26:03Z</time>
      </trkpt>
      <trkpt lat="44.65365" lon="5.41274">
        <ele>507.9</ele>
        <time>2021-09-06T08:26:04Z</time>
      </trkpt>
      <trkpt lat="44.65365" lon="5.41274">
        <ele>507.9</ele>
        <time>2021-09-06T08:26:06Z</time>
      </trkpt>
      <trkpt lat="44.65365" lon="5.41274">
        <ele>507.9</ele>
        <time>2021-09-06T08:26:07Z</time>
      </trkpt>
      <trkpt lat="44.65365" lon="5.41274">
        <ele>507.9</ele>
        <time>2021-09-06T08:26:09Z</time>
      </trkpt>
      <trkpt lat="44.65365" lon="5.41274">
        <ele>507.9</ele>
        <time>2021-09-06T08:26:10Z</time>
      </trkpt>
      <trkpt lat="44.65365" lon="5.41274">
        <ele>507.9</ele>
        <time>2021-09-06T08:26:12Z</time>
      </trkpt>
      <trkpt lat="44.65365" lon="5.41274">
        <ele>507.9</ele>
        <time>2021-09-06T08:26:13Z</time>
      </trkpt>
      <trkpt lat="44.65365" lon="5.41274">
        <ele>507.9</ele>
        <time>2021-09-06T08:26:14Z</time>
      </trkpt>
      <trkpt lat="44.65365" lon="5.41274">
        <ele>507.9</ele>
        <time>2021-09-06T08:26:16Z</time>
      </trkpt>
      <trkpt lat="44.65365" lon="5.41274">
        <ele>507.9</ele>
        <time>2021-09-06T08:26:17Z</time>
      </trkpt>
      <trkpt lat="44.65365" lon="5.41274">
        <ele>507.9</ele>
        <time>2021-09-06T08:26:19Z</time>
      </trkpt>
      <trkpt lat="44.65365" lon="5.41274">
        <ele>507.9</ele>
        <time>2021-09-06T08:26:20Z</time>
      </trkpt>
      <trkpt lat="44.65365" lon="5.41274">
        <ele>507.9</ele>
        <time>2021-09-06T08:26:21Z</time>
      </trkpt>
      <trkpt lat="44.65365" lon="5.41274">
        <ele>507.9</ele>
        <time>2021-09-06T08:26:22Z</time>
      </trkpt>
      <trkpt lat="44.65365" lon="5.41274">
        <ele>507.9</ele>
        <time>2021-09-06T08:26:23Z</time>
      </trkpt>
      <trkpt lat="44.65365" lon="5.41274">
        <ele>507.9</ele>
        <time>2021-09-06T08:26:25Z</time>
      </trkpt>
      <trkpt lat="44.65365" lon="5.41274">
        <ele>507.9</ele>
        <time>2021-09-06T08:26:26Z</time>
      </trkpt>
      <trkpt lat="44.65365" lon="5.41274">
        <ele>507.9</ele>
        <time>2021-09-06T08:26:28Z</time>
      </trkpt>
      <trkpt lat="44.65365" lon="5.41274">
        <ele>507.9</ele>
        <time>2021-09-06T08:26:30Z</time>
      </trkpt>
      <trkpt lat="44.65365" lon="5.41274">
        <ele>507.9</ele>
        <time>2021-09-06T08:26:32Z</time>
      </trkpt>
      <trkpt lat="44.65365" lon="5.41274">
        <ele>507.9</ele>
        <time>2021-09-06T08:26:33Z</time>
      </trkpt>
      <trkpt lat="44.65365" lon="5.41274">
        <ele>507.9</ele>
        <time>2021-09-06T08:26:35Z</time>
      </trkpt>
      <trkpt lat="44.65365" lon="5.41274">
        <ele>507.9</ele>
        <time>2021-09-06T08:26:36Z</time>
      </trkpt>
      <trkpt lat="44.65365" lon="5.41274">
        <ele>507.9</ele>
        <time>2021-09-06T08:26:38Z</time>
      </trkpt>
      <trkpt lat="44.65365" lon="5.41274">
        <ele>507.9</ele>
        <time>2021-09-06T08:26:39Z</time>
      </trkpt>
      <trkpt lat="44.65365" lon="5.41274">
        <ele>507.9</ele>
        <time>2021-09-06T08:26:41Z</time>
      </trkpt>
      <trkpt lat="44.65365" lon="5.41274">
        <ele>507.9</ele>
        <time>2021-09-06T08:26:43Z</time>
      </trkpt>
      <trkpt lat="44.65365" lon="5.41274">
        <ele>507.9</ele>
        <time>2021-09-06T08:26:45Z</time>
      </trkpt>
      <trkpt lat="44.65365" lon="5.41274">
        <ele>507.9</ele>
        <time>2021-09-06T08:26:46Z</time>
      </trkpt>
      <trkpt lat="44.65365" lon="5.41274">
        <ele>507.9</ele>
        <time>2021-09-06T08:26:47Z</time>
      </trkpt>
      <trkpt lat="44.65365" lon="5.41274">
        <ele>507.9</ele>
        <time>2021-09-06T08:26:48Z</time>
      </trkpt>
      <trkpt lat="44.65365" lon="5.41274">
        <ele>507.9</ele>
        <time>2021-09-06T08:26:49Z</time>
      </trkpt>
      <trkpt lat="44.65365" lon="5.41274">
        <ele>507.9</ele>
        <time>2021-09-06T08:26:51Z</time>
      </trkpt>
      <trkpt lat="44.65365" lon="5.41276">
        <ele>508</ele>
        <time>2021-09-06T08:26:53Z</time>
      </trkpt>
      <trkpt lat="44.65365" lon="5.41276">
        <ele>508</ele>
        <time>2021-09-06T08:26:54Z</time>
      </trkpt>
      <trkpt lat="44.65365" lon="5.41276">
        <ele>508</ele>
        <time>2021-09-06T08:26:55Z</time>
      </trkpt>
      <trkpt lat="44.65365" lon="5.41276">
        <ele>508</ele>
        <time>2021-09-06T08:26:57Z</time>
      </trkpt>
      <trkpt lat="44.65365" lon="5.41276">
        <ele>508</ele>
        <time>2021-09-06T08:26:58Z</time>
      </trkpt>
      <trkpt lat="44.65365" lon="5.41276">
        <ele>508</ele>
        <time>2021-09-06T08:26:59Z</time>
      </trkpt>
      <trkpt lat="44.65365" lon="5.41276">
        <ele>508</ele>
        <time>2021-09-06T08:27:00Z</time>
      </trkpt>
      <trkpt lat="44.65365" lon="5.41277">
        <ele>508</ele>
        <time>2021-09-06T08:27:01Z</time>
      </trkpt>
      <trkpt lat="44.65365" lon="5.41277">
        <ele>508</ele>
        <time>2021-09-06T08:27:02Z</time>
      </trkpt>
      <trkpt lat="44.65365" lon="5.41278">
        <ele>508</ele>
        <time>2021-09-06T08:27:04Z</time>
      </trkpt>
      <trkpt lat="44.65364" lon="5.41278">
        <ele>508</ele>
        <time>2021-09-06T08:27:05Z</time>
      </trkpt>
      <trkpt lat="44.65364" lon="5.41279">
        <ele>508</ele>
        <time>2021-09-06T08:27:06Z</time>
      </trkpt>
      <trkpt lat="44.65364" lon="5.41279">
        <ele>508</ele>
        <time>2021-09-06T08:27:07Z</time>
      </trkpt>
      <trkpt lat="44.65364" lon="5.4128">
        <ele>508</ele>
        <time>2021-09-06T08:27:08Z</time>
      </trkpt>
      <trkpt lat="44.65364" lon="5.41281">
        <ele>508</ele>
        <time>2021-09-06T08:27:10Z</time>
      </trkpt>
      <trkpt lat="44.65363" lon="5.41282">
        <ele>508</ele>
        <time>2021-09-06T08:27:11Z</time>
      </trkpt>
      <trkpt lat="44.65363" lon="5.41283">
        <ele>508</ele>
        <time>2021-09-06T08:27:13Z</time>
      </trkpt>
      <trkpt lat="44.65363" lon="5.41283">
        <ele>508</ele>
        <time>2021-09-06T08:27:14Z</time>
      </trkpt>
      <trkpt lat="44.65363" lon="5.41286">
        <ele>508.1</ele>
        <time>2021-09-06T08:27:15Z</time>
      </trkpt>
      <trkpt lat="44.65362" lon="5.41288">
        <ele>508.1</ele>
        <time>2021-09-06T08:27:17Z</time>
      </trkpt>
      <trkpt lat="44.65362" lon="5.41288">
        <ele>508.1</ele>
        <time>2021-09-06T08:27:18Z</time>
      </trkpt>
      <trkpt lat="44.65362" lon="5.41289">
        <ele>508.1</ele>
        <time>2021-09-06T08:27:19Z</time>
      </trkpt>
      <trkpt lat="44.65362" lon="5.41289">
        <ele>508.1</ele>
        <time>2021-09-06T08:27:21Z</time>
      </trkpt>
      <trkpt lat="44.65362" lon="5.41289">
        <ele>508.1</ele>
        <time>2021-09-06T08:27:23Z</time>
      </trkpt>
      <trkpt lat="44.65362" lon="5.41289">
        <ele>508.1</ele>
        <time>2021-09-06T08:27:24Z</time>
      </trkpt>
      <trkpt lat="44.65362" lon="5.41289">
        <ele>508.1</ele>
        <time>2021-09-06T08:27:26Z</time>
      </trkpt>
      <trkpt lat="44.65362" lon="5.41288">
        <ele>508.1</ele>
        <time>2021-09-06T08:27:28Z</time>
      </trkpt>
      <trkpt lat="44.65362" lon="5.41288">
        <ele>508.1</ele>
        <time>2021-09-06T08:27:29Z</time>
      </trkpt>
      <trkpt lat="44.65362" lon="5.41288">
        <ele>508.1</ele>
        <time>2021-09-06T08:27:30Z</time>
      </trkpt>
      <trkpt lat="44.65362" lon="5.41288">
        <ele>508.1</ele>
        <time>2021-09-06T08:27:32Z</time>
      </trkpt>
      <trkpt lat="44.65361" lon="5.41288">
        <ele>508.1</ele>
        <time>2021-09-06T08:27:33Z</time>
      </trkpt>
      <trkpt lat="44.65361" lon="5.41288">
        <ele>508.1</ele>
        <time>2021-09-06T08:27:35Z</time>
      </trkpt>
      <trkpt lat="44.65361" lon="5.41288">
        <ele>508.1</ele>
        <time>2021-09-06T08:27:37Z</time>
      </trkpt>
      <trkpt lat="44.65362" lon="5.41288">
        <ele>508.1</ele>
        <time>2021-09-06T08:27:38Z</time>
      </trkpt>
      <trkpt lat="44.65362" lon="5.41288">
        <ele>508.1</ele>
        <time>2021-09-06T08:27:39Z</time>
      </trkpt>
      <trkpt lat="44.65362" lon="5.41288">
        <ele>508.1</ele>
        <time>2021-09-06T08:27:40Z</time>
      </trkpt>
      <trkpt lat="44.65362" lon="5.41288">
        <ele>508.1</ele>
        <time>2021-09-06T08:27:41Z</time>
      </trkpt>
      <trkpt lat="44.65362" lon="5.41287">
        <ele>508.2</ele>
        <time>2021-09-06T08:27:42Z</time>
      </trkpt>
      <trkpt lat="44.65363" lon="5.41287">
        <ele>508.2</ele>
        <time>2021-09-06T08:27:43Z</time>
      </trkpt>
      <trkpt lat="44.65364" lon="5.41286">
        <ele>508.2</ele>
        <time>2021-09-06T08:27:45Z</time>
      </trkpt>
      <trkpt lat="44.65365" lon="5.41285">
        <ele>508.2</ele>
        <time>2021-09-06T08:27:47Z</time>
      </trkpt>
      <trkpt lat="44.65366" lon="5.41284">
        <ele>508.2</ele>
        <time>2021-09-06T08:27:48Z</time>
      </trkpt>
      <trkpt lat="44.65367" lon="5.41283">
        <ele>508.2</ele>
        <time>2021-09-06T08:27:50Z</time>
      </trkpt>
      <trkpt lat="44.65368" lon="5.41282">
        <ele>508.2</ele>
        <time>2021-09-06T08:27:52Z</time>
      </trkpt>
      <trkpt lat="44.65369" lon="5.41282">
        <ele>508.3</ele>
        <time>2021-09-06T08:27:53Z</time>
      </trkpt>
      <trkpt lat="44.65369" lon="5.41281">
        <ele>508.3</ele>
        <time>2021-09-06T08:27:54Z</time>
      </trkpt>
      <trkpt lat="44.6537" lon="5.41279">
        <ele>508.3</ele>
        <time>2021-09-06T08:27:56Z</time>
      </trkpt>
      <trkpt lat="44.6537" lon="5.41278">
        <ele>508.3</ele>
        <time>2021-09-06T08:27:58Z</time>
      </trkpt>
      <trkpt lat="44.65371" lon="5.41275">
        <ele>508.3</ele>
        <time>2021-09-06T08:27:59Z</time>
      </trkpt>
      <trkpt lat="44.65372" lon="5.41273">
        <ele>508.4</ele>
        <time>2021-09-06T08:28:00Z</time>
      </trkpt>
      <trkpt lat="44.65373" lon="5.41272">
        <ele>508.4</ele>
        <time>2021-09-06T08:28:01Z</time>
      </trkpt>
      <trkpt lat="44.65375" lon="5.41268">
        <ele>508.4</ele>
        <time>2021-09-06T08:28:03Z</time>
      </trkpt>
      <trkpt lat="44.65374" lon="5.4127">
        <ele>508.4</ele>
        <time>2021-09-06T08:28:05Z</time>
      </trkpt>
      <trkpt lat="44.65374" lon="5.41271">
        <ele>508.4</ele>
        <time>2021-09-06T08:28:06Z</time>
      </trkpt>
      <trkpt lat="44.65373" lon="5.41272">
        <ele>508.5</ele>
        <time>2021-09-06T08:28:07Z</time>
      </trkpt>
      <trkpt lat="44.65373" lon="5.41273">
        <ele>508.5</ele>
        <time>2021-09-06T08:28:08Z</time>
      </trkpt>
      <trkpt lat="44.65373" lon="5.41274">
        <ele>508.5</ele>
        <time>2021-09-06T08:28:10Z</time>
      </trkpt>
      <trkpt lat="44.65373" lon="5.41274">
        <ele>508.5</ele>
        <time>2021-09-06T08:28:11Z</time>
      </trkpt>
      <trkpt lat="44.65373" lon="5.41273">
        <ele>508.5</ele>
        <time>2021-09-06T08:28:13Z</time>
      </trkpt>
      <trkpt lat="44.65373" lon="5.41273">
        <ele>508.5</ele>
        <time>2021-09-06T08:28:14Z</time>
      </trkpt>
      <trkpt lat="44.65373" lon="5.41273">
        <ele>508.5</ele>
        <time>2021-09-06T08:28:16Z</time>
      </trkpt>
      <trkpt lat="44.65373" lon="5.41273">
        <ele>508.5</ele>
        <time>2021-09-06T08:28:17Z</time>
      </trkpt>
      <trkpt lat="44.65374" lon="5.41273">
        <ele>508.5</ele>
        <time>2021-09-06T08:28:19Z</time>
      </trkpt>
      <trkpt lat="44.65374" lon="5.41273">
        <ele>508.5</ele>
        <time>2021-09-06T08:28:20Z</time>
      </trkpt>
      <trkpt lat="44.65374" lon="5.41274">
        <ele>508.5</ele>
        <time>2021-09-06T08:28:22Z</time>
      </trkpt>
      <trkpt lat="44.65374" lon="5.41274">
        <ele>508.5</ele>
        <time>2021-09-06T08:28:23Z</time>
      </trkpt>
      <trkpt lat="44.65375" lon="5.41274">
        <ele>508.5</ele>
        <time>2021-09-06T08:28:25Z</time>
      </trkpt>
      <trkpt lat="44.65375" lon="5.41275">
        <ele>508.5</ele>
        <time>2021-09-06T08:28:27Z</time>
      </trkpt>
      <trkpt lat="44.65375" lon="5.41275">
        <ele>508.5</ele>
        <time>2021-09-06T08:28:28Z</time>
      </trkpt>
      <trkpt lat="44.65375" lon="5.41275">
        <ele>508.5</ele>
        <time>2021-09-06T08:28:29Z</time>
      </trkpt>
      <trkpt lat="44.65375" lon="5.41275">
        <ele>508.6</ele>
        <time>2021-09-06T08:28:30Z</time>
      </trkpt>
      <trkpt lat="44.65375" lon="5.41276">
        <ele>508.6</ele>
        <time>2021-09-06T08:28:32Z</time>
      </trkpt>
      <trkpt lat="44.65374" lon="5.41276">
        <ele>508.6</ele>
        <time>2021-09-06T08:28:33Z</time>
      </trkpt>
      <trkpt lat="44.65374" lon="5.41277">
        <ele>508.6</ele>
        <time>2021-09-06T08:28:35Z</time>
      </trkpt>
      <trkpt lat="44.65374" lon="5.41277">
        <ele>508.6</ele>
        <time>2021-09-06T08:28:36Z</time>
      </trkpt>
      <trkpt lat="44.65374" lon="5.41277">
        <ele>508.6</ele>
        <time>2021-09-06T08:28:38Z</time>
      </trkpt>
      <trkpt lat="44.65374" lon="5.41277">
        <ele>508.6</ele>
        <time>2021-09-06T08:28:39Z</time>
      </trkpt>
      <trkpt lat="44.65373" lon="5.41277">
        <ele>508.6</ele>
        <time>2021-09-06T08:28:41Z</time>
      </trkpt>
      <trkpt lat="44.65373" lon="5.41278">
        <ele>508.6</ele>
        <time>2021-09-06T08:28:43Z</time>
      </trkpt>
      <trkpt lat="44.65373" lon="5.41278">
        <ele>508.6</ele>
        <time>2021-09-06T08:28:44Z</time>
      </trkpt>
      <trkpt lat="44.65372" lon="5.41278">
        <ele>508.6</ele>
        <time>2021-09-06T08:28:46Z</time>
      </trkpt>
      <trkpt lat="44.65372" lon="5.41278">
        <ele>508.6</ele>
        <time>2021-09-06T08:28:47Z</time>
      </trkpt>
      <trkpt lat="44.65372" lon="5.41278">
        <ele>508.6</ele>
        <time>2021-09-06T08:28:48Z</time>
      </trkpt>
      <trkpt lat="44.65372" lon="5.41278">
        <ele>508.6</ele>
        <time>2021-09-06T08:28:49Z</time>
      </trkpt>
      <trkpt lat="44.65372" lon="5.41277">
        <ele>508.6</ele>
        <time>2021-09-06T08:28:51Z</time>
      </trkpt>
      <trkpt lat="44.65372" lon="5.41277">
        <ele>508.6</ele>
        <time>2021-09-06T08:28:52Z</time>
      </trkpt>
      <trkpt lat="44.65372" lon="5.41277">
        <ele>508.6</ele>
        <time>2021-09-06T08:28:53Z</time>
      </trkpt>
      <trkpt lat="44.65372" lon="5.41277">
        <ele>508.6</ele>
        <time>2021-09-06T08:28:54Z</time>
      </trkpt>
      <trkpt lat="44.65372" lon="5.41277">
        <ele>508.6</ele>
        <time>2021-09-06T08:28:56Z</time>
      </trkpt>
      <trkpt lat="44.65372" lon="5.41277">
        <ele>508.6</ele>
        <time>2021-09-06T08:28:57Z</time>
      </trkpt>
      <trkpt lat="44.65372" lon="5.41277">
        <ele>508.6</ele>
        <time>2021-09-06T08:28:58Z</time>
      </trkpt>
      <trkpt lat="44.65372" lon="5.41277">
        <ele>508.6</ele>
        <time>2021-09-06T08:29:00Z</time>
      </trkpt>
      <trkpt lat="44.65372" lon="5.41277">
        <ele>508.6</ele>
        <time>2021-09-06T08:29:01Z</time>
      </trkpt>
      <trkpt lat="44.65371" lon="5.41277">
        <ele>508.6</ele>
        <time>2021-09-06T08:29:03Z</time>
      </trkpt>
      <trkpt lat="44.65371" lon="5.41277">
        <ele>508.6</ele>
        <time>2021-09-06T08:29:05Z</time>
      </trkpt>
      <trkpt lat="44.65371" lon="5.41277">
        <ele>508.6</ele>
        <time>2021-09-06T08:29:06Z</time>
      </trkpt>
      <trkpt lat="44.65371" lon="5.41277">
        <ele>508.6</ele>
        <time>2021-09-06T08:29:08Z</time>
      </trkpt>
      <trkpt lat="44.65371" lon="5.41277">
        <ele>508.6</ele>
        <time>2021-09-06T08:29:09Z</time>
      </trkpt>
      <trkpt lat="44.65371" lon="5.41278">
        <ele>508.6</ele>
        <time>2021-09-06T08:29:11Z</time>
      </trkpt>
      <trkpt lat="44.65369" lon="5.41279">
        <ele>508.7</ele>
        <time>2021-09-06T08:29:13Z</time>
      </trkpt>
      <trkpt lat="44.65366" lon="5.41279">
        <ele>508.7</ele>
        <time>2021-09-06T08:29:15Z</time>
      </trkpt>
      <trkpt lat="44.65361" lon="5.4128">
        <ele>508.8</ele>
        <time>2021-09-06T08:29:16Z</time>
      </trkpt>
      <trkpt lat="44.65352" lon="5.41285">
        <ele>508.9</ele>
        <time>2021-09-06T08:29:18Z</time>
      </trkpt>
      <trkpt lat="44.65343" lon="5.41287">
        <ele>509</ele>
        <time>2021-09-06T08:29:20Z</time>
      </trkpt>
      <trkpt lat="44.6534" lon="5.41288">
        <ele>509.1</ele>
        <time>2021-09-06T08:29:21Z</time>
      </trkpt>
      <trkpt lat="44.65334" lon="5.41289">
        <ele>509.2</ele>
        <time>2021-09-06T08:29:23Z</time>
      </trkpt>
      <trkpt lat="44.65329" lon="5.41291">
        <ele>509.3</ele>
        <time>2021-09-06T08:29:25Z</time>
      </trkpt>
      <trkpt lat="44.65327" lon="5.41292">
        <ele>509.3</ele>
        <time>2021-09-06T08:29:26Z</time>
      </trkpt>
      <trkpt lat="44.65323" lon="5.41293">
        <ele>509.4</ele>
        <time>2021-09-06T08:29:28Z</time>
      </trkpt>
      <trkpt lat="44.65321" lon="5.41295">
        <ele>509.4</ele>
        <time>2021-09-06T08:29:30Z</time>
      </trkpt>
      <trkpt lat="44.6532" lon="5.41295">
        <ele>509.4</ele>
        <time>2021-09-06T08:29:31Z</time>
      </trkpt>
      <trkpt lat="44.65317" lon="5.41299">
        <ele>509.5</ele>
        <time>2021-09-06T08:29:33Z</time>
      </trkpt>
      <trkpt lat="44.65316" lon="5.413">
        <ele>509.5</ele>
        <time>2021-09-06T08:29:34Z</time>
      </trkpt>
      <trkpt lat="44.65313" lon="5.41301">
        <ele>509.5</ele>
        <time>2021-09-06T08:29:36Z</time>
      </trkpt>
      <trkpt lat="44.65312" lon="5.41301">
        <ele>509.5</ele>
        <time>2021-09-06T08:29:37Z</time>
      </trkpt>
      <trkpt lat="44.65309" lon="5.41303">
        <ele>509.6</ele>
        <time>2021-09-06T08:29:38Z</time>
      </trkpt>
      <trkpt lat="44.65308" lon="5.41303">
        <ele>509.7</ele>
        <time>2021-09-06T08:29:39Z</time>
      </trkpt>
      <trkpt lat="44.65305" lon="5.41304">
        <ele>509.7</ele>
        <time>2021-09-06T08:29:40Z</time>
      </trkpt>
      <trkpt lat="44.65302" lon="5.41305">
        <ele>509.8</ele>
        <time>2021-09-06T08:29:42Z</time>
      </trkpt>
      <trkpt lat="44.65298" lon="5.41305">
        <ele>510</ele>
        <time>2021-09-06T08:29:43Z</time>
      </trkpt>
      <trkpt lat="44.65295" lon="5.41306">
        <ele>510</ele>
        <time>2021-09-06T08:29:44Z</time>
      </trkpt>
      <trkpt lat="44.65292" lon="5.4131">
        <ele>510.1</ele>
        <time>2021-09-06T08:29:45Z</time>
      </trkpt>
      <trkpt lat="44.6529" lon="5.41313">
        <ele>510.2</ele>
        <time>2021-09-06T08:29:46Z</time>
      </trkpt>
      <trkpt lat="44.65289" lon="5.41314">
        <ele>510.3</ele>
        <time>2021-09-06T08:29:47Z</time>
      </trkpt>
      <trkpt lat="44.65288" lon="5.41315">
        <ele>510.3</ele>
        <time>2021-09-06T08:29:48Z</time>
      </trkpt>
      <trkpt lat="44.65286" lon="5.41318">
        <ele>510.4</ele>
        <time>2021-09-06T08:29:50Z</time>
      </trkpt>
      <trkpt lat="44.65285" lon="5.4132">
        <ele>510.5</ele>
        <time>2021-09-06T08:29:51Z</time>
      </trkpt>
      <trkpt lat="44.65284" lon="5.41322">
        <ele>510.5</ele>
        <time>2021-09-06T08:29:53Z</time>
      </trkpt>
      <trkpt lat="44.65286" lon="5.4132">
        <ele>510.6</ele>
        <time>2021-09-06T08:29:54Z</time>
      </trkpt>
      <trkpt lat="44.65287" lon="5.41319">
        <ele>510.6</ele>
        <time>2021-09-06T08:29:55Z</time>
      </trkpt>
      <trkpt lat="44.65287" lon="5.41318">
        <ele>510.6</ele>
        <time>2021-09-06T08:29:56Z</time>
      </trkpt>
      <trkpt lat="44.65287" lon="5.41318">
        <ele>510.6</ele>
        <time>2021-09-06T08:29:57Z</time>
      </trkpt>
      <trkpt lat="44.65287" lon="5.41318">
        <ele>510.6</ele>
        <time>2021-09-06T08:29:59Z</time>
      </trkpt>
      <trkpt lat="44.65287" lon="5.41318">
        <ele>510.6</ele>
        <time>2021-09-06T08:30:00Z</time>
      </trkpt>
      <trkpt lat="44.65287" lon="5.41318">
        <ele>510.6</ele>
        <time>2021-09-06T08:30:01Z</time>
      </trkpt>
      <trkpt lat="44.65288" lon="5.41312">
        <ele>510.8</ele>
        <time>2021-09-06T08:31:09Z</time>
      </trkpt>
      <trkpt lat="44.65288" lon="5.41312">
        <ele>510.8</ele>
        <time>2021-09-06T08:31:15Z</time>
      </trkpt>
      <trkpt lat="44.65288" lon="5.41312">
        <ele>510.8</ele>
        <time>2021-09-06T08:31:21Z</time>
      </trkpt>
      <trkpt lat="44.65288" lon="5.41312">
        <ele>510.8</ele>
        <time>2021-09-06T08:31:27Z</time>
      </trkpt>
      <trkpt lat="44.65288" lon="5.41312">
        <ele>510.8</ele>
        <time>2021-09-06T08:31:34Z</time>
      </trkpt>
      <trkpt lat="44.65288" lon="5.41312">
        <ele>510.8</ele>
        <time>2021-09-06T08:31:40Z</time>
      </trkpt>
      <trkpt lat="44.65288" lon="5.41311">
        <ele>510.8</ele>
        <time>2021-09-06T08:31:43Z</time>
      </trkpt>
      <trkpt lat="44.65287" lon="5.4131">
        <ele>510.8</ele>
        <time>2021-09-06T08:31:44Z</time>
      </trkpt>
      <trkpt lat="44.65288" lon="5.4131">
        <ele>510.8</ele>
        <time>2021-09-06T08:31:46Z</time>
      </trkpt>
      <trkpt lat="44.65288" lon="5.41311">
        <ele>510.9</ele>
        <time>2021-09-06T08:31:47Z</time>
      </trkpt>
      <trkpt lat="44.65289" lon="5.41311">
        <ele>510.9</ele>
        <time>2021-09-06T08:31:48Z</time>
      </trkpt>
      <trkpt lat="44.6529" lon="5.4131">
        <ele>510.9</ele>
        <time>2021-09-06T08:31:49Z</time>
      </trkpt>
      <trkpt lat="44.65293" lon="5.41309">
        <ele>511.1</ele>
        <time>2021-09-06T08:31:51Z</time>
      </trkpt>
      <trkpt lat="44.65293" lon="5.4131">
        <ele>511.1</ele>
        <time>2021-09-06T08:31:52Z</time>
      </trkpt>
      <trkpt lat="44.65292" lon="5.4131">
        <ele>511.1</ele>
        <time>2021-09-06T08:31:53Z</time>
      </trkpt>
      <trkpt lat="44.65291" lon="5.41311">
        <ele>511.2</ele>
        <time>2021-09-06T08:31:54Z</time>
      </trkpt>
      <trkpt lat="44.6529" lon="5.41312">
        <ele>511.2</ele>
        <time>2021-09-06T08:31:55Z</time>
      </trkpt>
      <trkpt lat="44.65285" lon="5.41314">
        <ele>511.4</ele>
        <time>2021-09-06T08:31:57Z</time>
      </trkpt>
      <trkpt lat="44.65284" lon="5.41314">
        <ele>511.4</ele>
        <time>2021-09-06T08:31:58Z</time>
      </trkpt>
      <trkpt lat="44.65283" lon="5.41315">
        <ele>511.4</ele>
        <time>2021-09-06T08:31:59Z</time>
      </trkpt>
      <trkpt lat="44.65282" lon="5.41315">
        <ele>511.5</ele>
        <time>2021-09-06T08:32:01Z</time>
      </trkpt>
      <trkpt lat="44.65282" lon="5.41315">
        <ele>511.5</ele>
        <time>2021-09-06T08:32:02Z</time>
      </trkpt>
      <trkpt lat="44.65276" lon="5.4132">
        <ele>511.7</ele>
        <time>2021-09-06T08:33:09Z</time>
      </trkpt>
      <trkpt lat="44.65269" lon="5.41323">
        <ele>511.9</ele>
        <time>2021-09-06T08:33:11Z</time>
      </trkpt>
      <trkpt lat="44.65266" lon="5.41324">
        <ele>512.1</ele>
        <time>2021-09-06T08:33:12Z</time>
      </trkpt>
      <trkpt lat="44.65258" lon="5.41327">
        <ele>512.3</ele>
        <time>2021-09-06T08:33:14Z</time>
      </trkpt>
      <trkpt lat="44.65249" lon="5.4133">
        <ele>512.6</ele>
        <time>2021-09-06T08:33:16Z</time>
      </trkpt>
      <trkpt lat="44.65244" lon="5.41333">
        <ele>512.8</ele>
        <time>2021-09-06T08:33:17Z</time>
      </trkpt>
      <trkpt lat="44.6524" lon="5.41334">
        <ele>512.9</ele>
        <time>2021-09-06T08:33:18Z</time>
      </trkpt>
      <trkpt lat="44.65234" lon="5.41338">
        <ele>513.1</ele>
        <time>2021-09-06T08:33:20Z</time>
      </trkpt>
      <trkpt lat="44.65228" lon="5.41342">
        <ele>513.3</ele>
        <time>2021-09-06T08:33:21Z</time>
      </trkpt>
      <trkpt lat="44.65225" lon="5.41344">
        <ele>513.4</ele>
        <time>2021-09-06T08:33:22Z</time>
      </trkpt>
      <trkpt lat="44.65222" lon="5.41346">
        <ele>513.5</ele>
        <time>2021-09-06T08:33:23Z</time>
      </trkpt>
      <trkpt lat="44.65216" lon="5.41349">
        <ele>513.7</ele>
        <time>2021-09-06T08:33:25Z</time>
      </trkpt>
      <trkpt lat="44.65212" lon="5.41351">
        <ele>513.8</ele>
        <time>2021-09-06T08:33:26Z</time>
      </trkpt>
      <trkpt lat="44.65209" lon="5.41353">
        <ele>513.9</ele>
        <time>2021-09-06T08:33:28Z</time>
      </trkpt>
      <trkpt lat="44.65205" lon="5.41355">
        <ele>514</ele>
        <time>2021-09-06T08:33:29Z</time>
      </trkpt>
      <trkpt lat="44.65198" lon="5.41357">
        <ele>514.2</ele>
        <time>2021-09-06T08:33:31Z</time>
      </trkpt>
      <trkpt lat="44.65194" lon="5.41359">
        <ele>514.3</ele>
        <time>2021-09-06T08:33:32Z</time>
      </trkpt>
      <trkpt lat="44.65189" lon="5.41362">
        <ele>514.5</ele>
        <time>2021-09-06T08:33:34Z</time>
      </trkpt>
      <trkpt lat="44.65184" lon="5.41365">
        <ele>514.7</ele>
        <time>2021-09-06T08:33:35Z</time>
      </trkpt>
      <trkpt lat="44.65177" lon="5.41369">
        <ele>514.9</ele>
        <time>2021-09-06T08:33:37Z</time>
      </trkpt>
      <trkpt lat="44.65172" lon="5.41371">
        <ele>515.1</ele>
        <time>2021-09-06T08:33:39Z</time>
      </trkpt>
      <trkpt lat="44.65166" lon="5.41374">
        <ele>515.2</ele>
        <time>2021-09-06T08:33:40Z</time>
      </trkpt>
      <trkpt lat="44.65162" lon="5.41377">
        <ele>515.4</ele>
        <time>2021-09-06T08:33:41Z</time>
      </trkpt>
      <trkpt lat="44.65156" lon="5.41382">
        <ele>515.6</ele>
        <time>2021-09-06T08:33:43Z</time>
      </trkpt>
      <trkpt lat="44.6515" lon="5.41387">
        <ele>515.9</ele>
        <time>2021-09-06T08:33:45Z</time>
      </trkpt>
      <trkpt lat="44.65146" lon="5.41389">
        <ele>516</ele>
        <time>2021-09-06T08:33:46Z</time>
      </trkpt>
      <trkpt lat="44.65142" lon="5.41393">
        <ele>516.2</ele>
        <time>2021-09-06T08:33:48Z</time>
      </trkpt>
      <trkpt lat="44.65138" lon="5.41396">
        <ele>516.3</ele>
        <time>2021-09-06T08:33:49Z</time>
      </trkpt>
      <trkpt lat="44.65135" lon="5.41399">
        <ele>516.4</ele>
        <time>2021-09-06T08:33:50Z</time>
      </trkpt>
      <trkpt lat="44.65132" lon="5.41403">
        <ele>516.5</ele>
        <time>2021-09-06T08:33:52Z</time>
      </trkpt>
      <trkpt lat="44.65128" lon="5.41407">
        <ele>516.7</ele>
        <time>2021-09-06T08:33:53Z</time>
      </trkpt>
      <trkpt lat="44.65127" lon="5.41412">
        <ele>516.8</ele>
        <time>2021-09-06T08:33:54Z</time>
      </trkpt>
      <trkpt lat="44.65124" lon="5.41419">
        <ele>517</ele>
        <time>2021-09-06T08:33:56Z</time>
      </trkpt>
      <trkpt lat="44.65122" lon="5.41427">
        <ele>517.2</ele>
        <time>2021-09-06T08:33:58Z</time>
      </trkpt>
      <trkpt lat="44.65118" lon="5.41435">
        <ele>517.4</ele>
        <time>2021-09-06T08:34:00Z</time>
      </trkpt>
      <trkpt lat="44.65116" lon="5.41438">
        <ele>517.4</ele>
        <time>2021-09-06T08:34:01Z</time>
      </trkpt>
      <trkpt lat="44.65113" lon="5.41443">
        <ele>517.6</ele>
        <time>2021-09-06T08:34:02Z</time>
      </trkpt>
      <trkpt lat="44.65109" lon="5.41449">
        <ele>517.7</ele>
        <time>2021-09-06T08:34:04Z</time>
      </trkpt>
      <trkpt lat="44.65107" lon="5.41453">
        <ele>517.8</ele>
        <time>2021-09-06T08:34:05Z</time>
      </trkpt>
      <trkpt lat="44.65106" lon="5.41457">
        <ele>517.8</ele>
        <time>2021-09-06T08:34:06Z</time>
      </trkpt>
      <trkpt lat="44.65104" lon="5.41461">
        <ele>517.9</ele>
        <time>2021-09-06T08:34:08Z</time>
      </trkpt>
      <trkpt lat="44.65101" lon="5.41467">
        <ele>517.9</ele>
        <time>2021-09-06T08:34:09Z</time>
      </trkpt>
      <trkpt lat="44.65099" lon="5.41472">
        <ele>517.7</ele>
        <time>2021-09-06T08:34:10Z</time>
      </trkpt>
      <trkpt lat="44.65096" lon="5.41478">
        <ele>517.6</ele>
        <time>2021-09-06T08:34:12Z</time>
      </trkpt>
      <trkpt lat="44.65093" lon="5.41483">
        <ele>517.4</ele>
        <time>2021-09-06T08:34:13Z</time>
      </trkpt>
      <trkpt lat="44.65088" lon="5.41491">
        <ele>517.2</ele>
        <time>2021-09-06T08:34:14Z</time>
      </trkpt>
      <trkpt lat="44.6508" lon="5.41502">
        <ele>516.8</ele>
        <time>2021-09-06T08:34:16Z</time>
      </trkpt>
      <trkpt lat="44.65075" lon="5.41507">
        <ele>516.5</ele>
        <time>2021-09-06T08:34:17Z</time>
      </trkpt>
      <trkpt lat="44.65071" lon="5.41513">
        <ele>516.3</ele>
        <time>2021-09-06T08:34:18Z</time>
      </trkpt>
      <trkpt lat="44.65064" lon="5.41524">
        <ele>515.8</ele>
        <time>2021-09-06T08:34:20Z</time>
      </trkpt>
      <trkpt lat="44.65056" lon="5.41535">
        <ele>515.4</ele>
        <time>2021-09-06T08:34:22Z</time>
      </trkpt>
      <trkpt lat="44.65048" lon="5.41547">
        <ele>514.9</ele>
        <time>2021-09-06T08:34:24Z</time>
      </trkpt>
      <trkpt lat="44.65039" lon="5.4156">
        <ele>514.5</ele>
        <time>2021-09-06T08:34:26Z</time>
      </trkpt>
      <trkpt lat="44.65034" lon="5.41567">
        <ele>514.2</ele>
        <time>2021-09-06T08:34:27Z</time>
      </trkpt>
      <trkpt lat="44.65025" lon="5.4158">
        <ele>513.8</ele>
        <time>2021-09-06T08:34:29Z</time>
      </trkpt>
      <trkpt lat="44.6502" lon="5.41587">
        <ele>513.6</ele>
        <time>2021-09-06T08:34:30Z</time>
      </trkpt>
      <trkpt lat="44.65009" lon="5.416">
        <ele>513.3</ele>
        <time>2021-09-06T08:34:32Z</time>
      </trkpt>
      <trkpt lat="44.64998" lon="5.41612">
        <ele>513.1</ele>
        <time>2021-09-06T08:34:34Z</time>
      </trkpt>
      <trkpt lat="44.64986" lon="5.41624">
        <ele>513</ele>
        <time>2021-09-06T08:34:36Z</time>
      </trkpt>
      <trkpt lat="44.6498" lon="5.41629">
        <ele>512.7</ele>
        <time>2021-09-06T08:34:37Z</time>
      </trkpt>
      <trkpt lat="44.64973" lon="5.41634">
        <ele>512.5</ele>
        <time>2021-09-06T08:34:38Z</time>
      </trkpt>
      <trkpt lat="44.6496" lon="5.41645">
        <ele>512.1</ele>
        <time>2021-09-06T08:34:40Z</time>
      </trkpt>
      <trkpt lat="44.64954" lon="5.4165">
        <ele>511.9</ele>
        <time>2021-09-06T08:34:41Z</time>
      </trkpt>
      <trkpt lat="44.64941" lon="5.41659">
        <ele>511.6</ele>
        <time>2021-09-06T08:34:43Z</time>
      </trkpt>
      <trkpt lat="44.64926" lon="5.41665">
        <ele>511.3</ele>
        <time>2021-09-06T08:34:45Z</time>
      </trkpt>
      <trkpt lat="44.64913" lon="5.4167">
        <ele>511.2</ele>
        <time>2021-09-06T08:34:47Z</time>
      </trkpt>
      <trkpt lat="44.6491" lon="5.41672">
        <ele>511.2</ele>
        <time>2021-09-06T08:34:48Z</time>
      </trkpt>
      <trkpt lat="44.64897" lon="5.41674">
        <ele>511.1</ele>
        <time>2021-09-06T08:34:50Z</time>
      </trkpt>
      <trkpt lat="44.64891" lon="5.41675">
        <ele>511.1</ele>
        <time>2021-09-06T08:34:51Z</time>
      </trkpt>
      <trkpt lat="44.64877" lon="5.41676">
        <ele>511</ele>
        <time>2021-09-06T08:34:53Z</time>
      </trkpt>
      <trkpt lat="44.6487" lon="5.41676">
        <ele>511</ele>
        <time>2021-09-06T08:34:54Z</time>
      </trkpt>
      <trkpt lat="44.64863" lon="5.41677">
        <ele>510.9</ele>
        <time>2021-09-06T08:34:56Z</time>
      </trkpt>
      <trkpt lat="44.64861" lon="5.41677">
        <ele>510.9</ele>
        <time>2021-09-06T08:34:57Z</time>
      </trkpt>
      <trkpt lat="44.64857" lon="5.41678">
        <ele>510.9</ele>
        <time>2021-09-06T08:34:58Z</time>
      </trkpt>
      <trkpt lat="44.6473" lon="5.41762">
        <ele>511.5</ele>
        <time>2021-09-06T08:35:17Z</time>
      </trkpt>
      <trkpt lat="44.64721" lon="5.41769">
        <ele>511.6</ele>
        <time>2021-09-06T08:35:18Z</time>
      </trkpt>
      <trkpt lat="44.64711" lon="5.41775">
        <ele>511.7</ele>
        <time>2021-09-06T08:35:19Z</time>
      </trkpt>
      <trkpt lat="44.64696" lon="5.41783">
        <ele>511.7</ele>
        <time>2021-09-06T08:35:21Z</time>
      </trkpt>
      <trkpt lat="44.6469" lon="5.41785">
        <ele>511.7</ele>
        <time>2021-09-06T08:35:22Z</time>
      </trkpt>
      <trkpt lat="44.64677" lon="5.41792">
        <ele>511.7</ele>
        <time>2021-09-06T08:35:24Z</time>
      </trkpt>
      <trkpt lat="44.64671" lon="5.41795">
        <ele>511.7</ele>
        <time>2021-09-06T08:35:25Z</time>
      </trkpt>
      <trkpt lat="44.64666" lon="5.41798">
        <ele>511.7</ele>
        <time>2021-09-06T08:35:26Z</time>
      </trkpt>
      <trkpt lat="44.6466" lon="5.418">
        <ele>511.7</ele>
        <time>2021-09-06T08:35:27Z</time>
      </trkpt>
      <trkpt lat="44.64648" lon="5.41803">
        <ele>511.8</ele>
        <time>2021-09-06T08:35:29Z</time>
      </trkpt>
      <trkpt lat="44.64642" lon="5.41805">
        <ele>511.8</ele>
        <time>2021-09-06T08:35:30Z</time>
      </trkpt>
      <trkpt lat="44.64637" lon="5.41807">
        <ele>511.8</ele>
        <time>2021-09-06T08:35:31Z</time>
      </trkpt>
      <trkpt lat="44.64632" lon="5.41808">
        <ele>511.9</ele>
        <time>2021-09-06T08:35:32Z</time>
      </trkpt>
      <trkpt lat="44.64623" lon="5.41813">
        <ele>511.9</ele>
        <time>2021-09-06T08:35:34Z</time>
      </trkpt>
      <trkpt lat="44.64618" lon="5.41817">
        <ele>512</ele>
        <time>2021-09-06T08:35:35Z</time>
      </trkpt>
      <trkpt lat="44.64614" lon="5.41819">
        <ele>512</ele>
        <time>2021-09-06T08:35:36Z</time>
      </trkpt>
      <trkpt lat="44.64607" lon="5.41823">
        <ele>512.1</ele>
        <time>2021-09-06T08:35:38Z</time>
      </trkpt>
      <trkpt lat="44.64599" lon="5.41829">
        <ele>512.2</ele>
        <time>2021-09-06T08:35:40Z</time>
      </trkpt>
      <trkpt lat="44.64594" lon="5.41832">
        <ele>512.2</ele>
        <time>2021-09-06T08:35:41Z</time>
      </trkpt>
      <trkpt lat="44.64584" lon="5.4184">
        <ele>512.3</ele>
        <time>2021-09-06T08:35:43Z</time>
      </trkpt>
      <trkpt lat="44.64572" lon="5.41847">
        <ele>512.5</ele>
        <time>2021-09-06T08:35:45Z</time>
      </trkpt>
      <trkpt lat="44.6456" lon="5.41852">
        <ele>512.7</ele>
        <time>2021-09-06T08:35:47Z</time>
      </trkpt>
      <trkpt lat="44.64554" lon="5.41855">
        <ele>512.8</ele>
        <time>2021-09-06T08:35:48Z</time>
      </trkpt>
      <trkpt lat="44.64548" lon="5.4186">
        <ele>512.8</ele>
        <time>2021-09-06T08:35:49Z</time>
      </trkpt>
      <trkpt lat="44.64537" lon="5.4187">
        <ele>513</ele>
        <time>2021-09-06T08:35:51Z</time>
      </trkpt>
      <trkpt lat="44.64532" lon="5.41874">
        <ele>513</ele>
        <time>2021-09-06T08:35:52Z</time>
      </trkpt>
      <trkpt lat="44.64527" lon="5.41878">
        <ele>513.1</ele>
        <time>2021-09-06T08:35:53Z</time>
      </trkpt>
      <trkpt lat="44.64523" lon="5.41881">
        <ele>513.1</ele>
        <time>2021-09-06T08:35:54Z</time>
      </trkpt>
      <trkpt lat="44.64516" lon="5.41884">
        <ele>513.2</ele>
        <time>2021-09-06T08:35:56Z</time>
      </trkpt>
      <trkpt lat="44.64512" lon="5.41887">
        <ele>513.2</ele>
        <time>2021-09-06T08:35:57Z</time>
      </trkpt>
      <trkpt lat="44.64502" lon="5.41894">
        <ele>513.4</ele>
        <time>2021-09-06T08:35:59Z</time>
      </trkpt>
      <trkpt lat="44.64497" lon="5.41897">
        <ele>513.5</ele>
        <time>2021-09-06T08:36:00Z</time>
      </trkpt>
      <trkpt lat="44.64492" lon="5.41902">
        <ele>513.5</ele>
        <time>2021-09-06T08:36:02Z</time>
      </trkpt>
      <trkpt lat="44.64488" lon="5.41906">
        <ele>513.6</ele>
        <time>2021-09-06T08:36:03Z</time>
      </trkpt>
      <trkpt lat="44.64485" lon="5.4191">
        <ele>513.7</ele>
        <time>2021-09-06T08:36:04Z</time>
      </trkpt>
      <trkpt lat="44.64482" lon="5.41914">
        <ele>513.7</ele>
        <time>2021-09-06T08:36:05Z</time>
      </trkpt>
      <trkpt lat="44.64477" lon="5.41917">
        <ele>513.8</ele>
        <time>2021-09-06T08:36:07Z</time>
      </trkpt>
      <trkpt lat="44.64473" lon="5.41927">
        <ele>513.9</ele>
        <time>2021-09-06T08:36:08Z</time>
      </trkpt>
      <trkpt lat="44.64469" lon="5.41934">
        <ele>513.9</ele>
        <time>2021-09-06T08:36:09Z</time>
      </trkpt>
      <trkpt lat="44.64461" lon="5.41948">
        <ele>514</ele>
        <time>2021-09-06T08:36:11Z</time>
      </trkpt>
      <trkpt lat="44.64456" lon="5.41954">
        <ele>514</ele>
        <time>2021-09-06T08:36:12Z</time>
      </trkpt>
      <trkpt lat="44.64446" lon="5.41962">
        <ele>514.1</ele>
        <time>2021-09-06T08:36:14Z</time>
      </trkpt>
      <trkpt lat="44.64441" lon="5.41967">
        <ele>514.2</ele>
        <time>2021-09-06T08:36:15Z</time>
      </trkpt>
      <trkpt lat="44.64436" lon="5.41971">
        <ele>514.2</ele>
        <time>2021-09-06T08:36:16Z</time>
      </trkpt>
      <trkpt lat="44.64426" lon="5.41978">
        <ele>514.4</ele>
        <time>2021-09-06T08:36:18Z</time>
      </trkpt>
      <trkpt lat="44.64421" lon="5.41983">
        <ele>514.4</ele>
        <time>2021-09-06T08:36:19Z</time>
      </trkpt>
      <trkpt lat="44.64412" lon="5.41991">
        <ele>514.4</ele>
        <time>2021-09-06T08:36:21Z</time>
      </trkpt>
      <trkpt lat="44.64407" lon="5.41994">
        <ele>514.4</ele>
        <time>2021-09-06T08:36:22Z</time>
      </trkpt>
      <trkpt lat="44.64399" lon="5.42">
        <ele>514.4</ele>
        <time>2021-09-06T08:36:24Z</time>
      </trkpt>
      <trkpt lat="44.64395" lon="5.42003">
        <ele>514.4</ele>
        <time>2021-09-06T08:36:25Z</time>
      </trkpt>
      <trkpt lat="44.64391" lon="5.42005">
        <ele>514.4</ele>
        <time>2021-09-06T08:36:26Z</time>
      </trkpt>
      <trkpt lat="44.64386" lon="5.42008">
        <ele>514.4</ele>
        <time>2021-09-06T08:36:27Z</time>
      </trkpt>
      <trkpt lat="44.64377" lon="5.42015">
        <ele>514.4</ele>
        <time>2021-09-06T08:36:29Z</time>
      </trkpt>
      <trkpt lat="44.64372" lon="5.42018">
        <ele>514.3</ele>
        <time>2021-09-06T08:36:30Z</time>
      </trkpt>
      <trkpt lat="44.64367" lon="5.42022">
        <ele>514.3</ele>
        <time>2021-09-06T08:36:31Z</time>
      </trkpt>
      <trkpt lat="44.64363" lon="5.42026">
        <ele>514.3</ele>
        <time>2021-09-06T08:36:32Z</time>
      </trkpt>
      <trkpt lat="44.64353" lon="5.42035">
        <ele>514.3</ele>
        <time>2021-09-06T08:36:34Z</time>
      </trkpt>
      <trkpt lat="44.64348" lon="5.42039">
        <ele>514.3</ele>
        <time>2021-09-06T08:36:35Z</time>
      </trkpt>
      <trkpt lat="44.64344" lon="5.42043">
        <ele>514.3</ele>
        <time>2021-09-06T08:36:36Z</time>
      </trkpt>
      <trkpt lat="44.64333" lon="5.4205">
        <ele>514.3</ele>
        <time>2021-09-06T08:36:38Z</time>
      </trkpt>
      <trkpt lat="44.64323" lon="5.42057">
        <ele>514.3</ele>
        <time>2021-09-06T08:36:40Z</time>
      </trkpt>
      <trkpt lat="44.64317" lon="5.4206">
        <ele>514.3</ele>
        <time>2021-09-06T08:36:41Z</time>
      </trkpt>
      <trkpt lat="44.64312" lon="5.42064">
        <ele>514.3</ele>
        <time>2021-09-06T08:36:42Z</time>
      </trkpt>
      <trkpt lat="44.64301" lon="5.42071">
        <ele>514.3</ele>
        <time>2021-09-06T08:36:44Z</time>
      </trkpt>
      <trkpt lat="44.6429" lon="5.42077">
        <ele>514.2</ele>
        <time>2021-09-06T08:36:46Z</time>
      </trkpt>
      <trkpt lat="44.64279" lon="5.42085">
        <ele>514.2</ele>
        <time>2021-09-06T08:36:48Z</time>
      </trkpt>
      <trkpt lat="44.64268" lon="5.42092">
        <ele>514.2</ele>
        <time>2021-09-06T08:36:50Z</time>
      </trkpt>
      <trkpt lat="44.64257" lon="5.421">
        <ele>514.2</ele>
        <time>2021-09-06T08:36:52Z</time>
      </trkpt>
      <trkpt lat="44.64246" lon="5.42107">
        <ele>514.2</ele>
        <time>2021-09-06T08:36:54Z</time>
      </trkpt>
      <trkpt lat="44.64236" lon="5.42113">
        <ele>514.2</ele>
        <time>2021-09-06T08:36:56Z</time>
      </trkpt>
      <trkpt lat="44.64227" lon="5.4212">
        <ele>514.2</ele>
        <time>2021-09-06T08:36:58Z</time>
      </trkpt>
      <trkpt lat="44.64217" lon="5.42128">
        <ele>514.2</ele>
        <time>2021-09-06T08:37:00Z</time>
      </trkpt>
      <trkpt lat="44.64212" lon="5.42131">
        <ele>514.2</ele>
        <time>2021-09-06T08:37:01Z</time>
      </trkpt>
      <trkpt lat="44.64207" lon="5.42135">
        <ele>514.2</ele>
        <time>2021-09-06T08:37:02Z</time>
      </trkpt>
      <trkpt lat="44.64201" lon="5.42139">
        <ele>514.3</ele>
        <time>2021-09-06T08:37:03Z</time>
      </trkpt>
      <trkpt lat="44.64191" lon="5.42148">
        <ele>514.3</ele>
        <time>2021-09-06T08:37:05Z</time>
      </trkpt>
      <trkpt lat="44.64186" lon="5.42152">
        <ele>514.3</ele>
        <time>2021-09-06T08:37:06Z</time>
      </trkpt>
      <trkpt lat="44.64175" lon="5.42161">
        <ele>514.3</ele>
        <time>2021-09-06T08:37:08Z</time>
      </trkpt>
      <trkpt lat="44.64164" lon="5.4217">
        <ele>514.3</ele>
        <time>2021-09-06T08:37:10Z</time>
      </trkpt>
      <trkpt lat="44.64159" lon="5.42174">
        <ele>514.3</ele>
        <time>2021-09-06T08:37:11Z</time>
      </trkpt>
      <trkpt lat="44.64149" lon="5.42181">
        <ele>514.4</ele>
        <time>2021-09-06T08:37:13Z</time>
      </trkpt>
      <trkpt lat="44.64144" lon="5.42184">
        <ele>514.5</ele>
        <time>2021-09-06T08:37:14Z</time>
      </trkpt>
      <trkpt lat="44.64134" lon="5.4219">
        <ele>514.5</ele>
        <time>2021-09-06T08:37:16Z</time>
      </trkpt>
      <trkpt lat="44.6413" lon="5.42194">
        <ele>514.5</ele>
        <time>2021-09-06T08:37:17Z</time>
      </trkpt>
      <trkpt lat="44.64126" lon="5.42199">
        <ele>514.6</ele>
        <time>2021-09-06T08:37:18Z</time>
      </trkpt>
      <trkpt lat="44.64118" lon="5.42207">
        <ele>514.6</ele>
        <time>2021-09-06T08:37:20Z</time>
      </trkpt>
      <trkpt lat="44.64114" lon="5.4221">
        <ele>514.7</ele>
        <time>2021-09-06T08:37:21Z</time>
      </trkpt>
      <trkpt lat="44.64108" lon="5.4222">
        <ele>514.7</ele>
        <time>2021-09-06T08:37:23Z</time>
      </trkpt>
      <trkpt lat="44.64104" lon="5.42224">
        <ele>514.8</ele>
        <time>2021-09-06T08:37:24Z</time>
      </trkpt>
      <trkpt lat="44.64097" lon="5.42233">
        <ele>514.9</ele>
        <time>2021-09-06T08:37:26Z</time>
      </trkpt>
      <trkpt lat="44.64093" lon="5.42237">
        <ele>514.9</ele>
        <time>2021-09-06T08:37:27Z</time>
      </trkpt>
      <trkpt lat="44.64085" lon="5.42247">
        <ele>515</ele>
        <time>2021-09-06T08:37:29Z</time>
      </trkpt>
      <trkpt lat="44.64081" lon="5.42251">
        <ele>515.1</ele>
        <time>2021-09-06T08:37:30Z</time>
      </trkpt>
      <trkpt lat="44.64073" lon="5.4226">
        <ele>515.2</ele>
        <time>2021-09-06T08:37:32Z</time>
      </trkpt>
      <trkpt lat="44.64069" lon="5.42265">
        <ele>515.2</ele>
        <time>2021-09-06T08:37:33Z</time>
      </trkpt>
      <trkpt lat="44.64061" lon="5.42274">
        <ele>515.3</ele>
        <time>2021-09-06T08:37:35Z</time>
      </trkpt>
      <trkpt lat="44.64057" lon="5.42278">
        <ele>515.4</ele>
        <time>2021-09-06T08:37:36Z</time>
      </trkpt>
      <trkpt lat="44.64049" lon="5.42287">
        <ele>515.4</ele>
        <time>2021-09-06T08:37:38Z</time>
      </trkpt>
      <trkpt lat="44.64045" lon="5.42291">
        <ele>515.5</ele>
        <time>2021-09-06T08:37:39Z</time>
      </trkpt>
      <trkpt lat="44.6404" lon="5.42296">
        <ele>515.5</ele>
        <time>2021-09-06T08:37:40Z</time>
      </trkpt>
      <trkpt lat="44.64032" lon="5.42305">
        <ele>515.5</ele>
        <time>2021-09-06T08:37:42Z</time>
      </trkpt>
      <trkpt lat="44.64024" lon="5.42314">
        <ele>515.5</ele>
        <time>2021-09-06T08:37:44Z</time>
      </trkpt>
      <trkpt lat="44.64016" lon="5.42322">
        <ele>515.6</ele>
        <time>2021-09-06T08:37:46Z</time>
      </trkpt>
      <trkpt lat="44.64008" lon="5.42331">
        <ele>515.6</ele>
        <time>2021-09-06T08:37:48Z</time>
      </trkpt>
      <trkpt lat="44.63999" lon="5.42341">
        <ele>515.7</ele>
        <time>2021-09-06T08:37:50Z</time>
      </trkpt>
      <trkpt lat="44.63991" lon="5.42349">
        <ele>515.7</ele>
        <time>2021-09-06T08:37:52Z</time>
      </trkpt>
      <trkpt lat="44.63987" lon="5.42354">
        <ele>515.8</ele>
        <time>2021-09-06T08:37:53Z</time>
      </trkpt>
      <trkpt lat="44.63983" lon="5.42359">
        <ele>515.8</ele>
        <time>2021-09-06T08:37:54Z</time>
      </trkpt>
      <trkpt lat="44.63974" lon="5.42367">
        <ele>515.8</ele>
        <time>2021-09-06T08:37:56Z</time>
      </trkpt>
      <trkpt lat="44.6397" lon="5.42372">
        <ele>515.9</ele>
        <time>2021-09-06T08:37:57Z</time>
      </trkpt>
      <trkpt lat="44.63962" lon="5.4238">
        <ele>515.9</ele>
        <time>2021-09-06T08:37:59Z</time>
      </trkpt>
      <trkpt lat="44.63958" lon="5.42385">
        <ele>515.9</ele>
        <time>2021-09-06T08:38:00Z</time>
      </trkpt>
      <trkpt lat="44.6395" lon="5.42394">
        <ele>516</ele>
        <time>2021-09-06T08:38:02Z</time>
      </trkpt>
      <trkpt lat="44.63942" lon="5.42403">
        <ele>516.1</ele>
        <time>2021-09-06T08:38:04Z</time>
      </trkpt>
      <trkpt lat="44.63938" lon="5.42407">
        <ele>516.2</ele>
        <time>2021-09-06T08:38:05Z</time>
      </trkpt>
      <trkpt lat="44.63934" lon="5.42411">
        <ele>516.2</ele>
        <time>2021-09-06T08:38:06Z</time>
      </trkpt>
      <trkpt lat="44.63926" lon="5.4242">
        <ele>516.4</ele>
        <time>2021-09-06T08:38:08Z</time>
      </trkpt>
      <trkpt lat="44.63923" lon="5.42424">
        <ele>516.4</ele>
        <time>2021-09-06T08:38:09Z</time>
      </trkpt>
      <trkpt lat="44.63914" lon="5.42432">
        <ele>516.6</ele>
        <time>2021-09-06T08:38:11Z</time>
      </trkpt>
      <trkpt lat="44.6391" lon="5.42436">
        <ele>516.6</ele>
        <time>2021-09-06T08:38:12Z</time>
      </trkpt>
      <trkpt lat="44.63902" lon="5.42443">
        <ele>516.7</ele>
        <time>2021-09-06T08:38:14Z</time>
      </trkpt>
      <trkpt lat="44.63898" lon="5.42448">
        <ele>516.8</ele>
        <time>2021-09-06T08:38:15Z</time>
      </trkpt>
      <trkpt lat="44.63893" lon="5.42451">
        <ele>516.8</ele>
        <time>2021-09-06T08:38:16Z</time>
      </trkpt>
      <trkpt lat="44.63885" lon="5.42459">
        <ele>517</ele>
        <time>2021-09-06T08:38:18Z</time>
      </trkpt>
      <trkpt lat="44.63877" lon="5.42466">
        <ele>517.1</ele>
        <time>2021-09-06T08:38:20Z</time>
      </trkpt>
      <trkpt lat="44.63868" lon="5.42474">
        <ele>517.2</ele>
        <time>2021-09-06T08:38:22Z</time>
      </trkpt>
      <trkpt lat="44.63858" lon="5.4248">
        <ele>517.3</ele>
        <time>2021-09-06T08:38:24Z</time>
      </trkpt>
      <trkpt lat="44.63853" lon="5.42483">
        <ele>517.4</ele>
        <time>2021-09-06T08:38:25Z</time>
      </trkpt>
      <trkpt lat="44.63849" lon="5.42486">
        <ele>517.5</ele>
        <time>2021-09-06T08:38:26Z</time>
      </trkpt>
      <trkpt lat="44.6384" lon="5.42493">
        <ele>517.7</ele>
        <time>2021-09-06T08:38:28Z</time>
      </trkpt>
      <trkpt lat="44.63836" lon="5.42496">
        <ele>517.7</ele>
        <time>2021-09-06T08:38:29Z</time>
      </trkpt>
      <trkpt lat="44.63829" lon="5.425">
        <ele>517.9</ele>
        <time>2021-09-06T08:38:31Z</time>
      </trkpt>
      <trkpt lat="44.63825" lon="5.42501">
        <ele>517.9</ele>
        <time>2021-09-06T08:38:32Z</time>
      </trkpt>
      <trkpt lat="44.63824" lon="5.42502">
        <ele>517.9</ele>
        <time>2021-09-06T08:38:33Z</time>
      </trkpt>
      <trkpt lat="44.63816" lon="5.42507">
        <ele>518.1</ele>
        <time>2021-09-06T08:38:35Z</time>
      </trkpt>
      <trkpt lat="44.63807" lon="5.42516">
        <ele>518.2</ele>
        <time>2021-09-06T08:38:37Z</time>
      </trkpt>
      <trkpt lat="44.6381" lon="5.42516">
        <ele>518.3</ele>
        <time>2021-09-06T08:38:38Z</time>
      </trkpt>
      <trkpt lat="44.63799" lon="5.42521">
        <ele>518.4</ele>
        <time>2021-09-06T08:38:40Z</time>
      </trkpt>
      <trkpt lat="44.63794" lon="5.42525">
        <ele>518.5</ele>
        <time>2021-09-06T08:38:41Z</time>
      </trkpt>
      <trkpt lat="44.6379" lon="5.42529">
        <ele>518.6</ele>
        <time>2021-09-06T08:38:42Z</time>
      </trkpt>
      <trkpt lat="44.63783" lon="5.42535">
        <ele>518.7</ele>
        <time>2021-09-06T08:38:44Z</time>
      </trkpt>
      <trkpt lat="44.63777" lon="5.42538">
        <ele>518.8</ele>
        <time>2021-09-06T08:38:45Z</time>
      </trkpt>
      <trkpt lat="44.63773" lon="5.42541">
        <ele>518.9</ele>
        <time>2021-09-06T08:38:46Z</time>
      </trkpt>
      <trkpt lat="44.63764" lon="5.42547">
        <ele>519</ele>
        <time>2021-09-06T08:38:48Z</time>
      </trkpt>
      <trkpt lat="44.6376" lon="5.4255">
        <ele>519.1</ele>
        <time>2021-09-06T08:38:49Z</time>
      </trkpt>
      <trkpt lat="44.63756" lon="5.42554">
        <ele>519.1</ele>
        <time>2021-09-06T08:38:50Z</time>
      </trkpt>
      <trkpt lat="44.6375" lon="5.42558">
        <ele>519.2</ele>
        <time>2021-09-06T08:38:52Z</time>
      </trkpt>
      <trkpt lat="44.63746" lon="5.42561">
        <ele>519.3</ele>
        <time>2021-09-06T08:38:53Z</time>
      </trkpt>
      <trkpt lat="44.63743" lon="5.42563">
        <ele>519.3</ele>
        <time>2021-09-06T08:38:54Z</time>
      </trkpt>
      <trkpt lat="44.63736" lon="5.42566">
        <ele>519.4</ele>
        <time>2021-09-06T08:38:56Z</time>
      </trkpt>
      <trkpt lat="44.63729" lon="5.42568">
        <ele>519.5</ele>
        <time>2021-09-06T08:38:58Z</time>
      </trkpt>
      <trkpt lat="44.63722" lon="5.42577">
        <ele>519.6</ele>
        <time>2021-09-06T08:38:59Z</time>
      </trkpt>
      <trkpt lat="44.63718" lon="5.42581">
        <ele>519.7</ele>
        <time>2021-09-06T08:39:00Z</time>
      </trkpt>
      <trkpt lat="44.63713" lon="5.42588">
        <ele>519.8</ele>
        <time>2021-09-06T08:39:02Z</time>
      </trkpt>
      <trkpt lat="44.63706" lon="5.42594">
        <ele>519.9</ele>
        <time>2021-09-06T08:39:03Z</time>
      </trkpt>
      <trkpt lat="44.63696" lon="5.426">
        <ele>520</ele>
        <time>2021-09-06T08:39:05Z</time>
      </trkpt>
      <trkpt lat="44.63687" lon="5.42606">
        <ele>520.1</ele>
        <time>2021-09-06T08:39:07Z</time>
      </trkpt>
      <trkpt lat="44.63683" lon="5.42609">
        <ele>520.1</ele>
        <time>2021-09-06T08:39:08Z</time>
      </trkpt>
      <trkpt lat="44.63676" lon="5.42616">
        <ele>520.3</ele>
        <time>2021-09-06T08:39:10Z</time>
      </trkpt>
      <trkpt lat="44.63668" lon="5.42622">
        <ele>520.4</ele>
        <time>2021-09-06T08:39:12Z</time>
      </trkpt>
      <trkpt lat="44.63663" lon="5.42624">
        <ele>520.4</ele>
        <time>2021-09-06T08:39:14Z</time>
      </trkpt>
      <trkpt lat="44.63661" lon="5.42626">
        <ele>520.5</ele>
        <time>2021-09-06T08:39:15Z</time>
      </trkpt>
      <trkpt lat="44.63653" lon="5.42634">
        <ele>520.6</ele>
        <time>2021-09-06T08:39:16Z</time>
      </trkpt>
      <trkpt lat="44.63647" lon="5.42639">
        <ele>520.7</ele>
        <time>2021-09-06T08:39:18Z</time>
      </trkpt>
      <trkpt lat="44.6364" lon="5.42642">
        <ele>520.8</ele>
        <time>2021-09-06T08:39:19Z</time>
      </trkpt>
      <trkpt lat="44.63636" lon="5.42644">
        <ele>520.9</ele>
        <time>2021-09-06T08:39:20Z</time>
      </trkpt>
      <trkpt lat="44.63627" lon="5.42648">
        <ele>521</ele>
        <time>2021-09-06T08:39:22Z</time>
      </trkpt>
      <trkpt lat="44.63622" lon="5.42649">
        <ele>521</ele>
        <time>2021-09-06T08:39:23Z</time>
      </trkpt>
      <trkpt lat="44.63617" lon="5.4265">
        <ele>521.1</ele>
        <time>2021-09-06T08:39:24Z</time>
      </trkpt>
      <trkpt lat="44.63613" lon="5.42652">
        <ele>521.2</ele>
        <time>2021-09-06T08:39:25Z</time>
      </trkpt>
      <trkpt lat="44.63607" lon="5.42652">
        <ele>521.2</ele>
        <time>2021-09-06T08:39:27Z</time>
      </trkpt>
      <trkpt lat="44.63599" lon="5.42654">
        <ele>521.3</ele>
        <time>2021-09-06T08:39:28Z</time>
      </trkpt>
      <trkpt lat="44.63595" lon="5.42656">
        <ele>521.4</ele>
        <time>2021-09-06T08:39:29Z</time>
      </trkpt>
      <trkpt lat="44.6359" lon="5.42658">
        <ele>521.4</ele>
        <time>2021-09-06T08:39:30Z</time>
      </trkpt>
      <trkpt lat="44.63582" lon="5.42663">
        <ele>521.5</ele>
        <time>2021-09-06T08:39:32Z</time>
      </trkpt>
      <trkpt lat="44.63577" lon="5.42667">
        <ele>521.6</ele>
        <time>2021-09-06T08:39:34Z</time>
      </trkpt>
      <trkpt lat="44.63575" lon="5.4267">
        <ele>521.6</ele>
        <time>2021-09-06T08:39:35Z</time>
      </trkpt>
      <trkpt lat="44.63572" lon="5.42672">
        <ele>521.7</ele>
        <time>2021-09-06T08:39:36Z</time>
      </trkpt>
      <trkpt lat="44.63565" lon="5.42678">
        <ele>521.8</ele>
        <time>2021-09-06T08:39:38Z</time>
      </trkpt>
      <trkpt lat="44.63557" lon="5.42683">
        <ele>522</ele>
        <time>2021-09-06T08:39:40Z</time>
      </trkpt>
      <trkpt lat="44.63549" lon="5.42687">
        <ele>522.1</ele>
        <time>2021-09-06T08:39:42Z</time>
      </trkpt>
      <trkpt lat="44.63541" lon="5.42692">
        <ele>522.3</ele>
        <time>2021-09-06T08:39:44Z</time>
      </trkpt>
      <trkpt lat="44.6354" lon="5.42697">
        <ele>522.3</ele>
        <time>2021-09-06T08:39:46Z</time>
      </trkpt>
      <trkpt lat="44.63534" lon="5.427">
        <ele>522.4</ele>
        <time>2021-09-06T08:39:47Z</time>
      </trkpt>
      <trkpt lat="44.63521" lon="5.42706">
        <ele>522.6</ele>
        <time>2021-09-06T08:39:49Z</time>
      </trkpt>
      <trkpt lat="44.63517" lon="5.42709">
        <ele>522.7</ele>
        <time>2021-09-06T08:39:50Z</time>
      </trkpt>
      <trkpt lat="44.63507" lon="5.42717">
        <ele>522.9</ele>
        <time>2021-09-06T08:39:52Z</time>
      </trkpt>
      <trkpt lat="44.63498" lon="5.42723">
        <ele>523.1</ele>
        <time>2021-09-06T08:39:54Z</time>
      </trkpt>
      <trkpt lat="44.6349" lon="5.42728">
        <ele>523.3</ele>
        <time>2021-09-06T08:39:56Z</time>
      </trkpt>
      <trkpt lat="44.63487" lon="5.42731">
        <ele>523.4</ele>
        <time>2021-09-06T08:39:57Z</time>
      </trkpt>
      <trkpt lat="44.63481" lon="5.42735">
        <ele>523.5</ele>
        <time>2021-09-06T08:39:59Z</time>
      </trkpt>
      <trkpt lat="44.63473" lon="5.42738">
        <ele>523.6</ele>
        <time>2021-09-06T08:40:00Z</time>
      </trkpt>
      <trkpt lat="44.63466" lon="5.42743">
        <ele>523.8</ele>
        <time>2021-09-06T08:40:02Z</time>
      </trkpt>
      <trkpt lat="44.63461" lon="5.42746">
        <ele>523.9</ele>
        <time>2021-09-06T08:40:03Z</time>
      </trkpt>
      <trkpt lat="44.63455" lon="5.42748">
        <ele>524</ele>
        <time>2021-09-06T08:40:04Z</time>
      </trkpt>
      <trkpt lat="44.63446" lon="5.42755">
        <ele>524.2</ele>
        <time>2021-09-06T08:40:06Z</time>
      </trkpt>
      <trkpt lat="44.63437" lon="5.42763">
        <ele>524.4</ele>
        <time>2021-09-06T08:40:08Z</time>
      </trkpt>
      <trkpt lat="44.63432" lon="5.42769">
        <ele>524.5</ele>
        <time>2021-09-06T08:40:10Z</time>
      </trkpt>
      <trkpt lat="44.63427" lon="5.42773">
        <ele>524.6</ele>
        <time>2021-09-06T08:40:11Z</time>
      </trkpt>
      <trkpt lat="44.63422" lon="5.42777">
        <ele>524.7</ele>
        <time>2021-09-06T08:40:12Z</time>
      </trkpt>
      <trkpt lat="44.63417" lon="5.42783">
        <ele>524.8</ele>
        <time>2021-09-06T08:40:14Z</time>
      </trkpt>
      <trkpt lat="44.63414" lon="5.42788">
        <ele>524.9</ele>
        <time>2021-09-06T08:40:15Z</time>
      </trkpt>
      <trkpt lat="44.63409" lon="5.4279">
        <ele>524.9</ele>
        <time>2021-09-06T08:40:17Z</time>
      </trkpt>
      <trkpt lat="44.63402" lon="5.42793">
        <ele>525</ele>
        <time>2021-09-06T08:40:18Z</time>
      </trkpt>
      <trkpt lat="44.63398" lon="5.42796">
        <ele>525.1</ele>
        <time>2021-09-06T08:40:19Z</time>
      </trkpt>
      <trkpt lat="44.63392" lon="5.42802">
        <ele>525.2</ele>
        <time>2021-09-06T08:40:21Z</time>
      </trkpt>
      <trkpt lat="44.63387" lon="5.42806">
        <ele>525.3</ele>
        <time>2021-09-06T08:40:22Z</time>
      </trkpt>
      <trkpt lat="44.63383" lon="5.42809">
        <ele>525.4</ele>
        <time>2021-09-06T08:40:23Z</time>
      </trkpt>
      <trkpt lat="44.63374" lon="5.42815">
        <ele>525.6</ele>
        <time>2021-09-06T08:40:25Z</time>
      </trkpt>
      <trkpt lat="44.6337" lon="5.42822">
        <ele>525.7</ele>
        <time>2021-09-06T08:40:27Z</time>
      </trkpt>
      <trkpt lat="44.63366" lon="5.42825">
        <ele>525.7</ele>
        <time>2021-09-06T08:40:28Z</time>
      </trkpt>
      <trkpt lat="44.6336" lon="5.42827">
        <ele>525.8</ele>
        <time>2021-09-06T08:40:30Z</time>
      </trkpt>
      <trkpt lat="44.63356" lon="5.42829">
        <ele>525.9</ele>
        <time>2021-09-06T08:40:31Z</time>
      </trkpt>
      <trkpt lat="44.63353" lon="5.42831">
        <ele>525.9</ele>
        <time>2021-09-06T08:40:32Z</time>
      </trkpt>
      <trkpt lat="44.63346" lon="5.42837">
        <ele>526</ele>
        <time>2021-09-06T08:40:34Z</time>
      </trkpt>
      <trkpt lat="44.63339" lon="5.42841">
        <ele>526.2</ele>
        <time>2021-09-06T08:40:36Z</time>
      </trkpt>
      <trkpt lat="44.63333" lon="5.42846">
        <ele>526.3</ele>
        <time>2021-09-06T08:40:37Z</time>
      </trkpt>
      <trkpt lat="44.63329" lon="5.42847">
        <ele>526.4</ele>
        <time>2021-09-06T08:40:38Z</time>
      </trkpt>
      <trkpt lat="44.63324" lon="5.4285">
        <ele>526.5</ele>
        <time>2021-09-06T08:40:39Z</time>
      </trkpt>
      <trkpt lat="44.6332" lon="5.42855">
        <ele>526.6</ele>
        <time>2021-09-06T08:40:40Z</time>
      </trkpt>
      <trkpt lat="44.63314" lon="5.42862">
        <ele>526.7</ele>
        <time>2021-09-06T08:40:42Z</time>
      </trkpt>
      <trkpt lat="44.63312" lon="5.42867">
        <ele>526.8</ele>
        <time>2021-09-06T08:40:44Z</time>
      </trkpt>
      <trkpt lat="44.63303" lon="5.42873">
        <ele>527</ele>
        <time>2021-09-06T08:40:46Z</time>
      </trkpt>
      <trkpt lat="44.63295" lon="5.42877">
        <ele>527.1</ele>
        <time>2021-09-06T08:40:47Z</time>
      </trkpt>
      <trkpt lat="44.63289" lon="5.42881">
        <ele>527.3</ele>
        <time>2021-09-06T08:40:48Z</time>
      </trkpt>
      <trkpt lat="44.63281" lon="5.42886">
        <ele>527.4</ele>
        <time>2021-09-06T08:40:50Z</time>
      </trkpt>
      <trkpt lat="44.63273" lon="5.42892">
        <ele>527.6</ele>
        <time>2021-09-06T08:40:52Z</time>
      </trkpt>
      <trkpt lat="44.63265" lon="5.42898">
        <ele>527.7</ele>
        <time>2021-09-06T08:40:54Z</time>
      </trkpt>
      <trkpt lat="44.63261" lon="5.429">
        <ele>527.8</ele>
        <time>2021-09-06T08:40:55Z</time>
      </trkpt>
      <trkpt lat="44.63256" lon="5.42904">
        <ele>527.8</ele>
        <time>2021-09-06T08:40:56Z</time>
      </trkpt>
      <trkpt lat="44.6325" lon="5.42908">
        <ele>527.9</ele>
        <time>2021-09-06T08:40:58Z</time>
      </trkpt>
      <trkpt lat="44.63244" lon="5.42913">
        <ele>528.1</ele>
        <time>2021-09-06T08:40:59Z</time>
      </trkpt>
      <trkpt lat="44.63237" lon="5.42918">
        <ele>528.2</ele>
        <time>2021-09-06T08:41:01Z</time>
      </trkpt>
      <trkpt lat="44.6323" lon="5.42922">
        <ele>528.4</ele>
        <time>2021-09-06T08:41:03Z</time>
      </trkpt>
      <trkpt lat="44.63225" lon="5.42926">
        <ele>528.5</ele>
        <time>2021-09-06T08:41:04Z</time>
      </trkpt>
      <trkpt lat="44.63217" lon="5.4293">
        <ele>528.6</ele>
        <time>2021-09-06T08:41:06Z</time>
      </trkpt>
      <trkpt lat="44.63212" lon="5.42934">
        <ele>528.7</ele>
        <time>2021-09-06T08:41:07Z</time>
      </trkpt>
      <trkpt lat="44.63207" lon="5.42939">
        <ele>528.8</ele>
        <time>2021-09-06T08:41:08Z</time>
      </trkpt>
      <trkpt lat="44.63204" lon="5.42943">
        <ele>528.8</ele>
        <time>2021-09-06T08:41:09Z</time>
      </trkpt>
      <trkpt lat="44.63201" lon="5.42945">
        <ele>528.9</ele>
        <time>2021-09-06T08:41:10Z</time>
      </trkpt>
      <trkpt lat="44.63195" lon="5.42954">
        <ele>529</ele>
        <time>2021-09-06T08:41:12Z</time>
      </trkpt>
      <trkpt lat="44.63189" lon="5.42962">
        <ele>529.2</ele>
        <time>2021-09-06T08:41:14Z</time>
      </trkpt>
      <trkpt lat="44.63184" lon="5.42968">
        <ele>529.3</ele>
        <time>2021-09-06T08:41:15Z</time>
      </trkpt>
      <trkpt lat="44.63178" lon="5.42976">
        <ele>529.4</ele>
        <time>2021-09-06T08:41:17Z</time>
      </trkpt>
      <trkpt lat="44.63174" lon="5.42983">
        <ele>529.5</ele>
        <time>2021-09-06T08:41:18Z</time>
      </trkpt>
      <trkpt lat="44.63169" lon="5.42984">
        <ele>529.6</ele>
        <time>2021-09-06T08:41:20Z</time>
      </trkpt>
      <trkpt lat="44.63165" lon="5.4299">
        <ele>529.7</ele>
        <time>2021-09-06T08:41:21Z</time>
      </trkpt>
      <trkpt lat="44.63161" lon="5.42994">
        <ele>529.7</ele>
        <time>2021-09-06T08:41:22Z</time>
      </trkpt>
      <trkpt lat="44.63156" lon="5.43">
        <ele>529.8</ele>
        <time>2021-09-06T08:41:24Z</time>
      </trkpt>
      <trkpt lat="44.6315" lon="5.43007">
        <ele>529.9</ele>
        <time>2021-09-06T08:41:25Z</time>
      </trkpt>
      <trkpt lat="44.63145" lon="5.43013">
        <ele>529.9</ele>
        <time>2021-09-06T08:41:27Z</time>
      </trkpt>
      <trkpt lat="44.63142" lon="5.43017">
        <ele>530</ele>
        <time>2021-09-06T08:41:28Z</time>
      </trkpt>
      <trkpt lat="44.63138" lon="5.43022">
        <ele>530</ele>
        <time>2021-09-06T08:41:29Z</time>
      </trkpt>
      <trkpt lat="44.63135" lon="5.43026">
        <ele>530.1</ele>
        <time>2021-09-06T08:41:30Z</time>
      </trkpt>
      <trkpt lat="44.63132" lon="5.4303">
        <ele>530.1</ele>
        <time>2021-09-06T08:41:31Z</time>
      </trkpt>
      <trkpt lat="44.63128" lon="5.43034">
        <ele>530.2</ele>
        <time>2021-09-06T08:41:32Z</time>
      </trkpt>
      <trkpt lat="44.63124" lon="5.43038">
        <ele>530.2</ele>
        <time>2021-09-06T08:41:34Z</time>
      </trkpt>
      <trkpt lat="44.63118" lon="5.43044">
        <ele>530.3</ele>
        <time>2021-09-06T08:41:35Z</time>
      </trkpt>
      <trkpt lat="44.63111" lon="5.4305">
        <ele>530.4</ele>
        <time>2021-09-06T08:41:37Z</time>
      </trkpt>
      <trkpt lat="44.63108" lon="5.43054">
        <ele>530.4</ele>
        <time>2021-09-06T08:41:38Z</time>
      </trkpt>
      <trkpt lat="44.63103" lon="5.43062">
        <ele>530.6</ele>
        <time>2021-09-06T08:41:40Z</time>
      </trkpt>
      <trkpt lat="44.63098" lon="5.43069">
        <ele>530.6</ele>
        <time>2021-09-06T08:41:42Z</time>
      </trkpt>
      <trkpt lat="44.63095" lon="5.43073">
        <ele>530.7</ele>
        <time>2021-09-06T08:41:43Z</time>
      </trkpt>
      <trkpt lat="44.63091" lon="5.43077">
        <ele>530.8</ele>
        <time>2021-09-06T08:41:45Z</time>
      </trkpt>
      <trkpt lat="44.63089" lon="5.4308">
        <ele>530.8</ele>
        <time>2021-09-06T08:41:46Z</time>
      </trkpt>
      <trkpt lat="44.63085" lon="5.43086">
        <ele>530.9</ele>
        <time>2021-09-06T08:41:47Z</time>
      </trkpt>
      <trkpt lat="44.63082" lon="5.4309">
        <ele>530.9</ele>
        <time>2021-09-06T08:41:48Z</time>
      </trkpt>
      <trkpt lat="44.63076" lon="5.43094">
        <ele>531.1</ele>
        <time>2021-09-06T08:41:50Z</time>
      </trkpt>
      <trkpt lat="44.63073" lon="5.43097">
        <ele>531.1</ele>
        <time>2021-09-06T08:41:51Z</time>
      </trkpt>
      <trkpt lat="44.63069" lon="5.43102">
        <ele>531.2</ele>
        <time>2021-09-06T08:41:53Z</time>
      </trkpt>
      <trkpt lat="44.63064" lon="5.43105">
        <ele>531.2</ele>
        <time>2021-09-06T08:41:54Z</time>
      </trkpt>
      <trkpt lat="44.63061" lon="5.4311">
        <ele>531.2</ele>
        <time>2021-09-06T08:41:55Z</time>
      </trkpt>
      <trkpt lat="44.63057" lon="5.43115">
        <ele>531.1</ele>
        <time>2021-09-06T08:41:57Z</time>
      </trkpt>
      <trkpt lat="44.63053" lon="5.43119">
        <ele>531.1</ele>
        <time>2021-09-06T08:41:58Z</time>
      </trkpt>
      <trkpt lat="44.63046" lon="5.43125">
        <ele>531</ele>
        <time>2021-09-06T08:41:59Z</time>
      </trkpt>
      <trkpt lat="44.63042" lon="5.4313">
        <ele>530.9</ele>
        <time>2021-09-06T08:42:00Z</time>
      </trkpt>
      <trkpt lat="44.63033" lon="5.43139">
        <ele>530.8</ele>
        <time>2021-09-06T08:42:02Z</time>
      </trkpt>
      <trkpt lat="44.63025" lon="5.43149">
        <ele>530.8</ele>
        <time>2021-09-06T08:42:04Z</time>
      </trkpt>
      <trkpt lat="44.63021" lon="5.43155">
        <ele>530.7</ele>
        <time>2021-09-06T08:42:05Z</time>
      </trkpt>
      <trkpt lat="44.63016" lon="5.43159">
        <ele>530.7</ele>
        <time>2021-09-06T08:42:06Z</time>
      </trkpt>
      <trkpt lat="44.63006" lon="5.43168">
        <ele>530.7</ele>
        <time>2021-09-06T08:42:08Z</time>
      </trkpt>
      <trkpt lat="44.62996" lon="5.43176">
        <ele>530.7</ele>
        <time>2021-09-06T08:42:10Z</time>
      </trkpt>
      <trkpt lat="44.62991" lon="5.43181">
        <ele>530.7</ele>
        <time>2021-09-06T08:42:11Z</time>
      </trkpt>
      <trkpt lat="44.62986" lon="5.43186">
        <ele>530.7</ele>
        <time>2021-09-06T08:42:12Z</time>
      </trkpt>
      <trkpt lat="44.62975" lon="5.43195">
        <ele>530.8</ele>
        <time>2021-09-06T08:42:14Z</time>
      </trkpt>
      <trkpt lat="44.62965" lon="5.43204">
        <ele>530.9</ele>
        <time>2021-09-06T08:42:16Z</time>
      </trkpt>
      <trkpt lat="44.6296" lon="5.43208">
        <ele>530.9</ele>
        <time>2021-09-06T08:42:17Z</time>
      </trkpt>
      <trkpt lat="44.62955" lon="5.43212">
        <ele>530.9</ele>
        <time>2021-09-06T08:42:18Z</time>
      </trkpt>
      <trkpt lat="44.6295" lon="5.43216">
        <ele>530.9</ele>
        <time>2021-09-06T08:42:19Z</time>
      </trkpt>
      <trkpt lat="44.62945" lon="5.43221">
        <ele>530.9</ele>
        <time>2021-09-06T08:42:20Z</time>
      </trkpt>
      <trkpt lat="44.62935" lon="5.43232">
        <ele>531</ele>
        <time>2021-09-06T08:42:22Z</time>
      </trkpt>
      <trkpt lat="44.62931" lon="5.43237">
        <ele>531</ele>
        <time>2021-09-06T08:42:23Z</time>
      </trkpt>
      <trkpt lat="44.62926" lon="5.43243">
        <ele>531.1</ele>
        <time>2021-09-06T08:42:24Z</time>
      </trkpt>
      <trkpt lat="44.62922" lon="5.43249">
        <ele>531.1</ele>
        <time>2021-09-06T08:42:25Z</time>
      </trkpt>
      <trkpt lat="44.62919" lon="5.43254">
        <ele>531.1</ele>
        <time>2021-09-06T08:42:26Z</time>
      </trkpt>
      <trkpt lat="44.62909" lon="5.43265">
        <ele>531.2</ele>
        <time>2021-09-06T08:42:28Z</time>
      </trkpt>
      <trkpt lat="44.62903" lon="5.43271">
        <ele>531.2</ele>
        <time>2021-09-06T08:42:29Z</time>
      </trkpt>
      <trkpt lat="44.62898" lon="5.43277">
        <ele>531.2</ele>
        <time>2021-09-06T08:42:30Z</time>
      </trkpt>
      <trkpt lat="44.62889" lon="5.43288">
        <ele>531.2</ele>
        <time>2021-09-06T08:42:32Z</time>
      </trkpt>
      <trkpt lat="44.62881" lon="5.43299">
        <ele>531.4</ele>
        <time>2021-09-06T08:42:34Z</time>
      </trkpt>
      <trkpt lat="44.62876" lon="5.43304">
        <ele>531.4</ele>
        <time>2021-09-06T08:42:35Z</time>
      </trkpt>
      <trkpt lat="44.62867" lon="5.43313">
        <ele>531.6</ele>
        <time>2021-09-06T08:42:37Z</time>
      </trkpt>
      <trkpt lat="44.62863" lon="5.43318">
        <ele>531.7</ele>
        <time>2021-09-06T08:42:38Z</time>
      </trkpt>
      <trkpt lat="44.62854" lon="5.43327">
        <ele>531.9</ele>
        <time>2021-09-06T08:42:40Z</time>
      </trkpt>
      <trkpt lat="44.62845" lon="5.43336">
        <ele>532</ele>
        <time>2021-09-06T08:42:42Z</time>
      </trkpt>
      <trkpt lat="44.62836" lon="5.43344">
        <ele>532.1</ele>
        <time>2021-09-06T08:42:44Z</time>
      </trkpt>
      <trkpt lat="44.62828" lon="5.43352">
        <ele>532.2</ele>
        <time>2021-09-06T08:42:46Z</time>
      </trkpt>
      <trkpt lat="44.62824" lon="5.43356">
        <ele>532.2</ele>
        <time>2021-09-06T08:42:47Z</time>
      </trkpt>
      <trkpt lat="44.62815" lon="5.43363">
        <ele>532.3</ele>
        <time>2021-09-06T08:42:49Z</time>
      </trkpt>
      <trkpt lat="44.62811" lon="5.43367">
        <ele>532.3</ele>
        <time>2021-09-06T08:42:50Z</time>
      </trkpt>
      <trkpt lat="44.62802" lon="5.43376">
        <ele>532.4</ele>
        <time>2021-09-06T08:42:52Z</time>
      </trkpt>
      <trkpt lat="44.62798" lon="5.4338">
        <ele>532.5</ele>
        <time>2021-09-06T08:42:53Z</time>
      </trkpt>
      <trkpt lat="44.62794" lon="5.43384">
        <ele>532.5</ele>
        <time>2021-09-06T08:42:54Z</time>
      </trkpt>
      <trkpt lat="44.62786" lon="5.43392">
        <ele>532.7</ele>
        <time>2021-09-06T08:42:56Z</time>
      </trkpt>
      <trkpt lat="44.62778" lon="5.43402">
        <ele>532.8</ele>
        <time>2021-09-06T08:42:58Z</time>
      </trkpt>
      <trkpt lat="44.62774" lon="5.43407">
        <ele>532.9</ele>
        <time>2021-09-06T08:42:59Z</time>
      </trkpt>
      <trkpt lat="44.62771" lon="5.43411">
        <ele>532.9</ele>
        <time>2021-09-06T08:43:00Z</time>
      </trkpt>
      <trkpt lat="44.62767" lon="5.43415">
        <ele>533</ele>
        <time>2021-09-06T08:43:01Z</time>
      </trkpt>
      <trkpt lat="44.62759" lon="5.43424">
        <ele>533.1</ele>
        <time>2021-09-06T08:43:03Z</time>
      </trkpt>
      <trkpt lat="44.6275" lon="5.43432">
        <ele>533.2</ele>
        <time>2021-09-06T08:43:05Z</time>
      </trkpt>
      <trkpt lat="44.62741" lon="5.43441">
        <ele>533.2</ele>
        <time>2021-09-06T08:43:07Z</time>
      </trkpt>
      <trkpt lat="44.62737" lon="5.43445">
        <ele>533.3</ele>
        <time>2021-09-06T08:43:08Z</time>
      </trkpt>
      <trkpt lat="44.62728" lon="5.43454">
        <ele>533.4</ele>
        <time>2021-09-06T08:43:10Z</time>
      </trkpt>
      <trkpt lat="44.62724" lon="5.43459">
        <ele>533.4</ele>
        <time>2021-09-06T08:43:11Z</time>
      </trkpt>
      <trkpt lat="44.6272" lon="5.43463">
        <ele>533.5</ele>
        <time>2021-09-06T08:43:12Z</time>
      </trkpt>
      <trkpt lat="44.62712" lon="5.43471">
        <ele>533.6</ele>
        <time>2021-09-06T08:43:14Z</time>
      </trkpt>
      <trkpt lat="44.62709" lon="5.43474">
        <ele>533.6</ele>
        <time>2021-09-06T08:43:15Z</time>
      </trkpt>
      <trkpt lat="44.627" lon="5.43482">
        <ele>533.7</ele>
        <time>2021-09-06T08:43:17Z</time>
      </trkpt>
      <trkpt lat="44.62696" lon="5.43486">
        <ele>533.7</ele>
        <time>2021-09-06T08:43:18Z</time>
      </trkpt>
      <trkpt lat="44.6269" lon="5.43495">
        <ele>533.8</ele>
        <time>2021-09-06T08:43:20Z</time>
      </trkpt>
      <trkpt lat="44.62683" lon="5.43504">
        <ele>533.9</ele>
        <time>2021-09-06T08:43:22Z</time>
      </trkpt>
      <trkpt lat="44.62678" lon="5.43513">
        <ele>534</ele>
        <time>2021-09-06T08:43:24Z</time>
      </trkpt>
      <trkpt lat="44.62675" lon="5.43518">
        <ele>534</ele>
        <time>2021-09-06T08:43:25Z</time>
      </trkpt>
      <trkpt lat="44.62668" lon="5.43527">
        <ele>534.1</ele>
        <time>2021-09-06T08:43:27Z</time>
      </trkpt>
      <trkpt lat="44.62661" lon="5.43536">
        <ele>534.2</ele>
        <time>2021-09-06T08:43:29Z</time>
      </trkpt>
      <trkpt lat="44.62657" lon="5.4354">
        <ele>534.3</ele>
        <time>2021-09-06T08:43:30Z</time>
      </trkpt>
      <trkpt lat="44.6265" lon="5.43547">
        <ele>534.4</ele>
        <time>2021-09-06T08:43:32Z</time>
      </trkpt>
      <trkpt lat="44.62646" lon="5.43551">
        <ele>534.5</ele>
        <time>2021-09-06T08:43:33Z</time>
      </trkpt>
      <trkpt lat="44.62642" lon="5.43556">
        <ele>534.6</ele>
        <time>2021-09-06T08:43:34Z</time>
      </trkpt>
      <trkpt lat="44.62638" lon="5.43559">
        <ele>534.7</ele>
        <time>2021-09-06T08:43:35Z</time>
      </trkpt>
      <trkpt lat="44.62631" lon="5.43566">
        <ele>534.8</ele>
        <time>2021-09-06T08:43:37Z</time>
      </trkpt>
      <trkpt lat="44.62626" lon="5.4357">
        <ele>534.9</ele>
        <time>2021-09-06T08:43:38Z</time>
      </trkpt>
      <trkpt lat="44.62622" lon="5.43574">
        <ele>535</ele>
        <time>2021-09-06T08:43:39Z</time>
      </trkpt>
      <trkpt lat="44.62616" lon="5.4358">
        <ele>535.1</ele>
        <time>2021-09-06T08:43:41Z</time>
      </trkpt>
      <trkpt lat="44.62608" lon="5.43587">
        <ele>535.3</ele>
        <time>2021-09-06T08:43:43Z</time>
      </trkpt>
      <trkpt lat="44.62604" lon="5.43592">
        <ele>535.4</ele>
        <time>2021-09-06T08:43:44Z</time>
      </trkpt>
      <trkpt lat="44.626" lon="5.43596">
        <ele>535.5</ele>
        <time>2021-09-06T08:43:45Z</time>
      </trkpt>
      <trkpt lat="44.62593" lon="5.436">
        <ele>535.7</ele>
        <time>2021-09-06T08:43:47Z</time>
      </trkpt>
      <trkpt lat="44.62592" lon="5.43603">
        <ele>535.7</ele>
        <time>2021-09-06T08:43:48Z</time>
      </trkpt>
      <trkpt lat="44.62582" lon="5.43612">
        <ele>536</ele>
        <time>2021-09-06T08:43:50Z</time>
      </trkpt>
      <trkpt lat="44.62576" lon="5.43619">
        <ele>536.2</ele>
        <time>2021-09-06T08:43:52Z</time>
      </trkpt>
      <trkpt lat="44.62571" lon="5.43625">
        <ele>536.3</ele>
        <time>2021-09-06T08:43:54Z</time>
      </trkpt>
      <trkpt lat="44.62566" lon="5.43632">
        <ele>536.5</ele>
        <time>2021-09-06T08:43:55Z</time>
      </trkpt>
      <trkpt lat="44.62563" lon="5.43636">
        <ele>536.6</ele>
        <time>2021-09-06T08:43:56Z</time>
      </trkpt>
      <trkpt lat="44.62557" lon="5.43645">
        <ele>536.8</ele>
        <time>2021-09-06T08:43:58Z</time>
      </trkpt>
      <trkpt lat="44.62551" lon="5.43647">
        <ele>536.9</ele>
        <time>2021-09-06T08:44:00Z</time>
      </trkpt>
      <trkpt lat="44.62546" lon="5.43654">
        <ele>537.1</ele>
        <time>2021-09-06T08:44:02Z</time>
      </trkpt>
      <trkpt lat="44.62542" lon="5.4366">
        <ele>537.3</ele>
        <time>2021-09-06T08:44:03Z</time>
      </trkpt>
      <trkpt lat="44.62539" lon="5.43664">
        <ele>537.4</ele>
        <time>2021-09-06T08:44:04Z</time>
      </trkpt>
      <trkpt lat="44.62533" lon="5.43671">
        <ele>537.6</ele>
        <time>2021-09-06T08:44:06Z</time>
      </trkpt>
      <trkpt lat="44.62528" lon="5.43676">
        <ele>537.7</ele>
        <time>2021-09-06T08:44:07Z</time>
      </trkpt>
      <trkpt lat="44.62523" lon="5.43681">
        <ele>537.9</ele>
        <time>2021-09-06T08:44:09Z</time>
      </trkpt>
      <trkpt lat="44.62517" lon="5.43688">
        <ele>538.1</ele>
        <time>2021-09-06T08:44:10Z</time>
      </trkpt>
      <trkpt lat="44.62513" lon="5.43692">
        <ele>538.2</ele>
        <time>2021-09-06T08:44:11Z</time>
      </trkpt>
      <trkpt lat="44.62509" lon="5.43696">
        <ele>538.3</ele>
        <time>2021-09-06T08:44:12Z</time>
      </trkpt>
      <trkpt lat="44.62503" lon="5.43703">
        <ele>538.5</ele>
        <time>2021-09-06T08:44:14Z</time>
      </trkpt>
      <trkpt lat="44.62497" lon="5.43709">
        <ele>538.7</ele>
        <time>2021-09-06T08:44:16Z</time>
      </trkpt>
      <trkpt lat="44.62494" lon="5.43712">
        <ele>538.8</ele>
        <time>2021-09-06T08:44:17Z</time>
      </trkpt>
      <trkpt lat="44.6249" lon="5.43717">
        <ele>539</ele>
        <time>2021-09-06T08:44:19Z</time>
      </trkpt>
      <trkpt lat="44.62485" lon="5.43721">
        <ele>539.1</ele>
        <time>2021-09-06T08:44:20Z</time>
      </trkpt>
      <trkpt lat="44.62482" lon="5.43726">
        <ele>539.3</ele>
        <time>2021-09-06T08:44:21Z</time>
      </trkpt>
      <trkpt lat="44.62476" lon="5.43732">
        <ele>539.5</ele>
        <time>2021-09-06T08:44:23Z</time>
      </trkpt>
      <trkpt lat="44.6247" lon="5.43738">
        <ele>539.7</ele>
        <time>2021-09-06T08:44:25Z</time>
      </trkpt>
      <trkpt lat="44.62465" lon="5.43743">
        <ele>539.9</ele>
        <time>2021-09-06T08:44:26Z</time>
      </trkpt>
      <trkpt lat="44.62462" lon="5.43747">
        <ele>540</ele>
        <time>2021-09-06T08:44:27Z</time>
      </trkpt>
      <trkpt lat="44.62458" lon="5.43752">
        <ele>540.2</ele>
        <time>2021-09-06T08:44:29Z</time>
      </trkpt>
      <trkpt lat="44.62453" lon="5.43758">
        <ele>540.3</ele>
        <time>2021-09-06T08:44:30Z</time>
      </trkpt>
      <trkpt lat="44.6245" lon="5.43761">
        <ele>540.5</ele>
        <time>2021-09-06T08:44:32Z</time>
      </trkpt>
      <trkpt lat="44.62446" lon="5.43764">
        <ele>540.6</ele>
        <time>2021-09-06T08:44:33Z</time>
      </trkpt>
      <trkpt lat="44.62443" lon="5.43768">
        <ele>540.7</ele>
        <time>2021-09-06T08:44:34Z</time>
      </trkpt>
      <trkpt lat="44.6244" lon="5.43771">
        <ele>540.8</ele>
        <time>2021-09-06T08:44:35Z</time>
      </trkpt>
      <trkpt lat="44.62436" lon="5.43777">
        <ele>540.9</ele>
        <time>2021-09-06T08:44:36Z</time>
      </trkpt>
      <trkpt lat="44.62433" lon="5.43781">
        <ele>541</ele>
        <time>2021-09-06T08:44:38Z</time>
      </trkpt>
      <trkpt lat="44.6243" lon="5.43784">
        <ele>541</ele>
        <time>2021-09-06T08:44:39Z</time>
      </trkpt>
      <trkpt lat="44.62427" lon="5.43788">
        <ele>541.1</ele>
        <time>2021-09-06T08:44:40Z</time>
      </trkpt>
      <trkpt lat="44.62422" lon="5.43793">
        <ele>541.2</ele>
        <time>2021-09-06T08:44:41Z</time>
      </trkpt>
      <trkpt lat="44.62419" lon="5.43797">
        <ele>541.2</ele>
        <time>2021-09-06T08:44:42Z</time>
      </trkpt>
      <trkpt lat="44.62409" lon="5.43804">
        <ele>541.3</ele>
        <time>2021-09-06T08:44:44Z</time>
      </trkpt>
      <trkpt lat="44.624" lon="5.43811">
        <ele>541.3</ele>
        <time>2021-09-06T08:44:46Z</time>
      </trkpt>
      <trkpt lat="44.62395" lon="5.43815">
        <ele>541.3</ele>
        <time>2021-09-06T08:44:47Z</time>
      </trkpt>
      <trkpt lat="44.62387" lon="5.43823">
        <ele>541.4</ele>
        <time>2021-09-06T08:44:49Z</time>
      </trkpt>
      <trkpt lat="44.62383" lon="5.43827">
        <ele>541.4</ele>
        <time>2021-09-06T08:44:50Z</time>
      </trkpt>
      <trkpt lat="44.62375" lon="5.43835">
        <ele>541.4</ele>
        <time>2021-09-06T08:44:52Z</time>
      </trkpt>
      <trkpt lat="44.62368" lon="5.43843">
        <ele>541.5</ele>
        <time>2021-09-06T08:44:54Z</time>
      </trkpt>
      <trkpt lat="44.6236" lon="5.43851">
        <ele>541.6</ele>
        <time>2021-09-06T08:44:56Z</time>
      </trkpt>
      <trkpt lat="44.62353" lon="5.43859">
        <ele>541.6</ele>
        <time>2021-09-06T08:44:58Z</time>
      </trkpt>
      <trkpt lat="44.62349" lon="5.43863">
        <ele>541.7</ele>
        <time>2021-09-06T08:44:59Z</time>
      </trkpt>
      <trkpt lat="44.62346" lon="5.43867">
        <ele>541.7</ele>
        <time>2021-09-06T08:45:00Z</time>
      </trkpt>
      <trkpt lat="44.62338" lon="5.43875">
        <ele>541.7</ele>
        <time>2021-09-06T08:45:02Z</time>
      </trkpt>
      <trkpt lat="44.62331" lon="5.43882">
        <ele>541.7</ele>
        <time>2021-09-06T08:45:04Z</time>
      </trkpt>
      <trkpt lat="44.62327" lon="5.43886">
        <ele>541.7</ele>
        <time>2021-09-06T08:45:05Z</time>
      </trkpt>
      <trkpt lat="44.62324" lon="5.4389">
        <ele>541.7</ele>
        <time>2021-09-06T08:45:06Z</time>
      </trkpt>
      <trkpt lat="44.62318" lon="5.43896">
        <ele>541.7</ele>
        <time>2021-09-06T08:45:08Z</time>
      </trkpt>
      <trkpt lat="44.62311" lon="5.43904">
        <ele>541.8</ele>
        <time>2021-09-06T08:45:10Z</time>
      </trkpt>
      <trkpt lat="44.62308" lon="5.43908">
        <ele>541.8</ele>
        <time>2021-09-06T08:45:11Z</time>
      </trkpt>
      <trkpt lat="44.62304" lon="5.43913">
        <ele>541.8</ele>
        <time>2021-09-06T08:45:12Z</time>
      </trkpt>
      <trkpt lat="44.62299" lon="5.43917">
        <ele>541.9</ele>
        <time>2021-09-06T08:45:14Z</time>
      </trkpt>
      <trkpt lat="44.62294" lon="5.43919">
        <ele>541.9</ele>
        <time>2021-09-06T08:45:15Z</time>
      </trkpt>
      <trkpt lat="44.62292" lon="5.43922">
        <ele>541.9</ele>
        <time>2021-09-06T08:45:16Z</time>
      </trkpt>
      <trkpt lat="44.62287" lon="5.43929">
        <ele>542</ele>
        <time>2021-09-06T08:45:17Z</time>
      </trkpt>
      <trkpt lat="44.62283" lon="5.43933">
        <ele>542.1</ele>
        <time>2021-09-06T08:45:18Z</time>
      </trkpt>
      <trkpt lat="44.62279" lon="5.43939">
        <ele>542.2</ele>
        <time>2021-09-06T08:45:20Z</time>
      </trkpt>
      <trkpt lat="44.62273" lon="5.43946">
        <ele>542.1</ele>
        <time>2021-09-06T08:45:21Z</time>
      </trkpt>
      <trkpt lat="44.62265" lon="5.43954">
        <ele>542</ele>
        <time>2021-09-06T08:45:23Z</time>
      </trkpt>
      <trkpt lat="44.62261" lon="5.43959">
        <ele>542</ele>
        <time>2021-09-06T08:45:24Z</time>
      </trkpt>
      <trkpt lat="44.62253" lon="5.43967">
        <ele>542</ele>
        <time>2021-09-06T08:45:26Z</time>
      </trkpt>
      <trkpt lat="44.62245" lon="5.43975">
        <ele>542</ele>
        <time>2021-09-06T08:45:28Z</time>
      </trkpt>
      <trkpt lat="44.62241" lon="5.43979">
        <ele>542</ele>
        <time>2021-09-06T08:45:29Z</time>
      </trkpt>
      <trkpt lat="44.62238" lon="5.43983">
        <ele>542</ele>
        <time>2021-09-06T08:45:30Z</time>
      </trkpt>
      <trkpt lat="44.62231" lon="5.43992">
        <ele>542.1</ele>
        <time>2021-09-06T08:45:32Z</time>
      </trkpt>
      <trkpt lat="44.62224" lon="5.43999">
        <ele>542.3</ele>
        <time>2021-09-06T08:45:34Z</time>
      </trkpt>
      <trkpt lat="44.62222" lon="5.44">
        <ele>542.3</ele>
        <time>2021-09-06T08:45:35Z</time>
      </trkpt>
      <trkpt lat="44.62217" lon="5.44007">
        <ele>542.4</ele>
        <time>2021-09-06T08:45:37Z</time>
      </trkpt>
      <trkpt lat="44.62212" lon="5.44013">
        <ele>542.6</ele>
        <time>2021-09-06T08:45:38Z</time>
      </trkpt>
      <trkpt lat="44.62209" lon="5.44017">
        <ele>542.7</ele>
        <time>2021-09-06T08:45:39Z</time>
      </trkpt>
      <trkpt lat="44.62203" lon="5.44024">
        <ele>542.9</ele>
        <time>2021-09-06T08:45:41Z</time>
      </trkpt>
      <trkpt lat="44.62199" lon="5.44027">
        <ele>543</ele>
        <time>2021-09-06T08:45:42Z</time>
      </trkpt>
      <trkpt lat="44.62196" lon="5.44031">
        <ele>543.1</ele>
        <time>2021-09-06T08:45:43Z</time>
      </trkpt>
      <trkpt lat="44.6219" lon="5.44039">
        <ele>543.4</ele>
        <time>2021-09-06T08:45:45Z</time>
      </trkpt>
      <trkpt lat="44.62183" lon="5.44045">
        <ele>543.7</ele>
        <time>2021-09-06T08:45:47Z</time>
      </trkpt>
      <trkpt lat="44.62178" lon="5.44051">
        <ele>543.9</ele>
        <time>2021-09-06T08:45:49Z</time>
      </trkpt>
      <trkpt lat="44.62175" lon="5.44055">
        <ele>544</ele>
        <time>2021-09-06T08:45:50Z</time>
      </trkpt>
      <trkpt lat="44.62171" lon="5.44059">
        <ele>544.2</ele>
        <time>2021-09-06T08:45:51Z</time>
      </trkpt>
      <trkpt lat="44.62166" lon="5.44064">
        <ele>544.4</ele>
        <time>2021-09-06T08:45:53Z</time>
      </trkpt>
      <trkpt lat="44.62161" lon="5.44069">
        <ele>544.6</ele>
        <time>2021-09-06T08:45:54Z</time>
      </trkpt>
      <trkpt lat="44.62157" lon="5.44074">
        <ele>544.8</ele>
        <time>2021-09-06T08:45:56Z</time>
      </trkpt>
      <trkpt lat="44.62152" lon="5.4408">
        <ele>544.9</ele>
        <time>2021-09-06T08:45:57Z</time>
      </trkpt>
      <trkpt lat="44.62148" lon="5.44084">
        <ele>545</ele>
        <time>2021-09-06T08:45:58Z</time>
      </trkpt>
      <trkpt lat="44.62144" lon="5.44087">
        <ele>545</ele>
        <time>2021-09-06T08:46:00Z</time>
      </trkpt>
      <trkpt lat="44.6214" lon="5.44091">
        <ele>545.1</ele>
        <time>2021-09-06T08:46:01Z</time>
      </trkpt>
      <trkpt lat="44.62135" lon="5.44097">
        <ele>545.1</ele>
        <time>2021-09-06T08:46:02Z</time>
      </trkpt>
      <trkpt lat="44.62127" lon="5.44104">
        <ele>545.1</ele>
        <time>2021-09-06T08:46:04Z</time>
      </trkpt>
      <trkpt lat="44.62123" lon="5.44108">
        <ele>545.1</ele>
        <time>2021-09-06T08:46:05Z</time>
      </trkpt>
      <trkpt lat="44.62121" lon="5.44112">
        <ele>545</ele>
        <time>2021-09-06T08:46:07Z</time>
      </trkpt>
      <trkpt lat="44.62112" lon="5.44121">
        <ele>544.9</ele>
        <time>2021-09-06T08:46:08Z</time>
      </trkpt>
      <trkpt lat="44.62103" lon="5.4413">
        <ele>544.8</ele>
        <time>2021-09-06T08:46:10Z</time>
      </trkpt>
      <trkpt lat="44.62099" lon="5.44135">
        <ele>544.8</ele>
        <time>2021-09-06T08:46:11Z</time>
      </trkpt>
      <trkpt lat="44.62091" lon="5.44144">
        <ele>544.7</ele>
        <time>2021-09-06T08:46:13Z</time>
      </trkpt>
      <trkpt lat="44.62087" lon="5.44148">
        <ele>544.7</ele>
        <time>2021-09-06T08:46:14Z</time>
      </trkpt>
      <trkpt lat="44.62078" lon="5.44158">
        <ele>544.7</ele>
        <time>2021-09-06T08:46:16Z</time>
      </trkpt>
      <trkpt lat="44.62074" lon="5.44163">
        <ele>544.7</ele>
        <time>2021-09-06T08:46:17Z</time>
      </trkpt>
      <trkpt lat="44.6207" lon="5.44168">
        <ele>544.7</ele>
        <time>2021-09-06T08:46:18Z</time>
      </trkpt>
      <trkpt lat="44.62066" lon="5.44173">
        <ele>544.7</ele>
        <time>2021-09-06T08:46:19Z</time>
      </trkpt>
      <trkpt lat="44.62062" lon="5.44178">
        <ele>544.7</ele>
        <time>2021-09-06T08:46:20Z</time>
      </trkpt>
      <trkpt lat="44.62055" lon="5.44187">
        <ele>544.8</ele>
        <time>2021-09-06T08:46:22Z</time>
      </trkpt>
      <trkpt lat="44.62046" lon="5.44196">
        <ele>544.8</ele>
        <time>2021-09-06T08:46:24Z</time>
      </trkpt>
      <trkpt lat="44.62037" lon="5.44204">
        <ele>544.9</ele>
        <time>2021-09-06T08:46:26Z</time>
      </trkpt>
      <trkpt lat="44.62028" lon="5.44211">
        <ele>544.9</ele>
        <time>2021-09-06T08:46:28Z</time>
      </trkpt>
      <trkpt lat="44.62024" lon="5.44214">
        <ele>545</ele>
        <time>2021-09-06T08:46:29Z</time>
      </trkpt>
      <trkpt lat="44.6202" lon="5.44217">
        <ele>545</ele>
        <time>2021-09-06T08:46:30Z</time>
      </trkpt>
      <trkpt lat="44.62014" lon="5.44219">
        <ele>545.1</ele>
        <time>2021-09-06T08:46:32Z</time>
      </trkpt>
      <trkpt lat="44.6201" lon="5.4422">
        <ele>545.2</ele>
        <time>2021-09-06T08:46:33Z</time>
      </trkpt>
      <trkpt lat="44.62005" lon="5.4422">
        <ele>545.3</ele>
        <time>2021-09-06T08:46:35Z</time>
      </trkpt>
      <trkpt lat="44.62002" lon="5.4422">
        <ele>545.4</ele>
        <time>2021-09-06T08:46:36Z</time>
      </trkpt>
      <trkpt lat="44.62001" lon="5.44221">
        <ele>545.4</ele>
        <time>2021-09-06T08:46:37Z</time>
      </trkpt>
      <trkpt lat="44.61997" lon="5.44221">
        <ele>545.4</ele>
        <time>2021-09-06T08:46:39Z</time>
      </trkpt>
      <trkpt lat="44.61994" lon="5.4422">
        <ele>545.5</ele>
        <time>2021-09-06T08:46:40Z</time>
      </trkpt>
      <trkpt lat="44.6199" lon="5.4422">
        <ele>545.6</ele>
        <time>2021-09-06T08:46:41Z</time>
      </trkpt>
      <trkpt lat="44.61988" lon="5.44219">
        <ele>545.6</ele>
        <time>2021-09-06T08:46:42Z</time>
      </trkpt>
      <trkpt lat="44.61987" lon="5.44218">
        <ele>545.6</ele>
        <time>2021-09-06T08:46:43Z</time>
      </trkpt>
      <trkpt lat="44.61987" lon="5.44218">
        <ele>545.6</ele>
        <time>2021-09-06T08:46:45Z</time>
      </trkpt>
      <trkpt lat="44.61987" lon="5.44218">
        <ele>545.6</ele>
        <time>2021-09-06T08:46:46Z</time>
      </trkpt>
      <trkpt lat="44.61987" lon="5.44218">
        <ele>545.6</ele>
        <time>2021-09-06T08:46:48Z</time>
      </trkpt>
      <trkpt lat="44.61988" lon="5.44218">
        <ele>545.6</ele>
        <time>2021-09-06T08:46:49Z</time>
      </trkpt>
      <trkpt lat="44.61988" lon="5.44218">
        <ele>545.6</ele>
        <time>2021-09-06T08:46:51Z</time>
      </trkpt>
      <trkpt lat="44.61988" lon="5.44218">
        <ele>545.6</ele>
        <time>2021-09-06T08:46:52Z</time>
      </trkpt>
      <trkpt lat="44.61987" lon="5.44227">
        <ele>545.7</ele>
        <time>2021-09-06T08:47:44Z</time>
      </trkpt>
      <trkpt lat="44.61985" lon="5.44231">
        <ele>545.7</ele>
        <time>2021-09-06T08:47:45Z</time>
      </trkpt>
      <trkpt lat="44.61981" lon="5.44235">
        <ele>545.7</ele>
        <time>2021-09-06T08:47:46Z</time>
      </trkpt>
      <trkpt lat="44.61973" lon="5.4424">
        <ele>545.8</ele>
        <time>2021-09-06T08:47:48Z</time>
      </trkpt>
      <trkpt lat="44.61969" lon="5.44242">
        <ele>545.8</ele>
        <time>2021-09-06T08:47:49Z</time>
      </trkpt>
      <trkpt lat="44.61961" lon="5.44245">
        <ele>545.8</ele>
        <time>2021-09-06T08:47:51Z</time>
      </trkpt>
      <trkpt lat="44.61954" lon="5.44247">
        <ele>545.8</ele>
        <time>2021-09-06T08:47:53Z</time>
      </trkpt>
      <trkpt lat="44.61951" lon="5.44249">
        <ele>545.8</ele>
        <time>2021-09-06T08:47:54Z</time>
      </trkpt>
      <trkpt lat="44.61944" lon="5.44253">
        <ele>545.8</ele>
        <time>2021-09-06T08:47:56Z</time>
      </trkpt>
      <trkpt lat="44.61941" lon="5.44256">
        <ele>545.8</ele>
        <time>2021-09-06T08:47:57Z</time>
      </trkpt>
      <trkpt lat="44.61934" lon="5.4426">
        <ele>545.9</ele>
        <time>2021-09-06T08:47:59Z</time>
      </trkpt>
      <trkpt lat="44.6193" lon="5.44262">
        <ele>545.9</ele>
        <time>2021-09-06T08:48:00Z</time>
      </trkpt>
      <trkpt lat="44.61925" lon="5.44265">
        <ele>545.9</ele>
        <time>2021-09-06T08:48:02Z</time>
      </trkpt>
      <trkpt lat="44.61919" lon="5.44268">
        <ele>545.9</ele>
        <time>2021-09-06T08:48:03Z</time>
      </trkpt>
      <trkpt lat="44.61915" lon="5.44271">
        <ele>545.9</ele>
        <time>2021-09-06T08:48:04Z</time>
      </trkpt>
      <trkpt lat="44.61912" lon="5.44273">
        <ele>545.9</ele>
        <time>2021-09-06T08:48:05Z</time>
      </trkpt>
      <trkpt lat="44.61906" lon="5.44277">
        <ele>545.8</ele>
        <time>2021-09-06T08:48:07Z</time>
      </trkpt>
      <trkpt lat="44.61901" lon="5.44282">
        <ele>545.8</ele>
        <time>2021-09-06T08:48:08Z</time>
      </trkpt>
      <trkpt lat="44.61897" lon="5.44285">
        <ele>545.8</ele>
        <time>2021-09-06T08:48:09Z</time>
      </trkpt>
      <trkpt lat="44.6189" lon="5.44291">
        <ele>545.8</ele>
        <time>2021-09-06T08:48:11Z</time>
      </trkpt>
      <trkpt lat="44.61886" lon="5.44293">
        <ele>545.9</ele>
        <time>2021-09-06T08:48:12Z</time>
      </trkpt>
      <trkpt lat="44.61882" lon="5.44298">
        <ele>545.9</ele>
        <time>2021-09-06T08:48:14Z</time>
      </trkpt>
      <trkpt lat="44.61877" lon="5.44304">
        <ele>545.9</ele>
        <time>2021-09-06T08:48:15Z</time>
      </trkpt>
      <trkpt lat="44.61874" lon="5.44308">
        <ele>545.9</ele>
        <time>2021-09-06T08:48:16Z</time>
      </trkpt>
      <trkpt lat="44.6187" lon="5.44313">
        <ele>545.8</ele>
        <time>2021-09-06T08:48:17Z</time>
      </trkpt>
      <trkpt lat="44.61866" lon="5.44317">
        <ele>545.8</ele>
        <time>2021-09-06T08:48:18Z</time>
      </trkpt>
      <trkpt lat="44.61861" lon="5.4432">
        <ele>545.7</ele>
        <time>2021-09-06T08:48:19Z</time>
      </trkpt>
      <trkpt lat="44.61857" lon="5.44324">
        <ele>545.7</ele>
        <time>2021-09-06T08:48:20Z</time>
      </trkpt>
      <trkpt lat="44.61847" lon="5.4433">
        <ele>545.6</ele>
        <time>2021-09-06T08:48:22Z</time>
      </trkpt>
      <trkpt lat="44.61838" lon="5.44336">
        <ele>545.5</ele>
        <time>2021-09-06T08:48:24Z</time>
      </trkpt>
      <trkpt lat="44.61828" lon="5.44339">
        <ele>545.4</ele>
        <time>2021-09-06T08:48:26Z</time>
      </trkpt>
      <trkpt lat="44.61817" lon="5.44338">
        <ele>545.2</ele>
        <time>2021-09-06T08:48:28Z</time>
      </trkpt>
      <trkpt lat="44.61811" lon="5.44335">
        <ele>545.1</ele>
        <time>2021-09-06T08:48:29Z</time>
      </trkpt>
      <trkpt lat="44.61806" lon="5.44332">
        <ele>545</ele>
        <time>2021-09-06T08:48:30Z</time>
      </trkpt>
      <trkpt lat="44.61795" lon="5.44325">
        <ele>544.8</ele>
        <time>2021-09-06T08:48:32Z</time>
      </trkpt>
      <trkpt lat="44.61784" lon="5.4432">
        <ele>544.6</ele>
        <time>2021-09-06T08:48:34Z</time>
      </trkpt>
      <trkpt lat="44.61778" lon="5.4432">
        <ele>544.5</ele>
        <time>2021-09-06T08:48:35Z</time>
      </trkpt>
      <trkpt lat="44.61772" lon="5.44319">
        <ele>544.4</ele>
        <time>2021-09-06T08:48:36Z</time>
      </trkpt>
      <trkpt lat="44.61759" lon="5.44322">
        <ele>544.3</ele>
        <time>2021-09-06T08:48:38Z</time>
      </trkpt>
      <trkpt lat="44.61748" lon="5.44327">
        <ele>544.2</ele>
        <time>2021-09-06T08:48:40Z</time>
      </trkpt>
      <trkpt lat="44.61739" lon="5.44333">
        <ele>544.2</ele>
        <time>2021-09-06T08:48:42Z</time>
      </trkpt>
      <trkpt lat="44.61732" lon="5.44341">
        <ele>544.2</ele>
        <time>2021-09-06T08:48:44Z</time>
      </trkpt>
      <trkpt lat="44.61724" lon="5.44352">
        <ele>544.2</ele>
        <time>2021-09-06T08:48:46Z</time>
      </trkpt>
      <trkpt lat="44.61721" lon="5.44358">
        <ele>544.3</ele>
        <time>2021-09-06T08:48:47Z</time>
      </trkpt>
      <trkpt lat="44.61717" lon="5.44363">
        <ele>544.3</ele>
        <time>2021-09-06T08:48:48Z</time>
      </trkpt>
      <trkpt lat="44.6171" lon="5.44372">
        <ele>544.5</ele>
        <time>2021-09-06T08:48:50Z</time>
      </trkpt>
      <trkpt lat="44.61702" lon="5.44381">
        <ele>544.8</ele>
        <time>2021-09-06T08:48:52Z</time>
      </trkpt>
      <trkpt lat="44.61699" lon="5.44383">
        <ele>544.9</ele>
        <time>2021-09-06T08:48:53Z</time>
      </trkpt>
      <trkpt lat="44.61698" lon="5.44384">
        <ele>544.9</ele>
        <time>2021-09-06T08:48:54Z</time>
      </trkpt>
      <trkpt lat="44.61693" lon="5.44387">
        <ele>545.1</ele>
        <time>2021-09-06T08:48:56Z</time>
      </trkpt>
      <trkpt lat="44.61689" lon="5.44391">
        <ele>545.4</ele>
        <time>2021-09-06T08:48:58Z</time>
      </trkpt>
      <trkpt lat="44.61687" lon="5.44394">
        <ele>545.6</ele>
        <time>2021-09-06T08:48:59Z</time>
      </trkpt>
      <trkpt lat="44.61689" lon="5.44394">
        <ele>545.7</ele>
        <time>2021-09-06T08:49:00Z</time>
      </trkpt>
      <trkpt lat="44.61687" lon="5.44395">
        <ele>545.8</ele>
        <time>2021-09-06T08:49:02Z</time>
      </trkpt>
      <trkpt lat="44.61685" lon="5.44396">
        <ele>546</ele>
        <time>2021-09-06T08:49:03Z</time>
      </trkpt>
      <trkpt lat="44.61684" lon="5.44398">
        <ele>546</ele>
        <time>2021-09-06T08:49:05Z</time>
      </trkpt>
      <trkpt lat="44.61682" lon="5.44399">
        <ele>546.2</ele>
        <time>2021-09-06T08:49:06Z</time>
      </trkpt>
      <trkpt lat="44.61681" lon="5.44399">
        <ele>546.3</ele>
        <time>2021-09-06T08:49:07Z</time>
      </trkpt>
      <trkpt lat="44.61679" lon="5.44399">
        <ele>546.4</ele>
        <time>2021-09-06T08:49:08Z</time>
      </trkpt>
      <trkpt lat="44.61675" lon="5.44398">
        <ele>546.7</ele>
        <time>2021-09-06T08:49:10Z</time>
      </trkpt>
      <trkpt lat="44.61672" lon="5.44397">
        <ele>546.9</ele>
        <time>2021-09-06T08:49:11Z</time>
      </trkpt>
      <trkpt lat="44.61668" lon="5.44396">
        <ele>547.2</ele>
        <time>2021-09-06T08:49:12Z</time>
      </trkpt>
      <trkpt lat="44.61665" lon="5.44393">
        <ele>547.4</ele>
        <time>2021-09-06T08:49:14Z</time>
      </trkpt>
      <trkpt lat="44.61663" lon="5.44392">
        <ele>547.6</ele>
        <time>2021-09-06T08:49:15Z</time>
      </trkpt>
      <trkpt lat="44.61659" lon="5.44389">
        <ele>547.9</ele>
        <time>2021-09-06T08:49:17Z</time>
      </trkpt>
      <trkpt lat="44.61656" lon="5.44389">
        <ele>548</ele>
        <time>2021-09-06T08:49:18Z</time>
      </trkpt>
      <trkpt lat="44.61652" lon="5.4439">
        <ele>548.2</ele>
        <time>2021-09-06T08:49:20Z</time>
      </trkpt>
      <trkpt lat="44.61647" lon="5.44394">
        <ele>548.4</ele>
        <time>2021-09-06T08:49:22Z</time>
      </trkpt>
      <trkpt lat="44.61643" lon="5.44395">
        <ele>548.6</ele>
        <time>2021-09-06T08:49:25Z</time>
      </trkpt>
      <trkpt lat="44.61637" lon="5.44397">
        <ele>548.8</ele>
        <time>2021-09-06T08:49:26Z</time>
      </trkpt>
      <trkpt lat="44.61633" lon="5.44396">
        <ele>548.9</ele>
        <time>2021-09-06T08:49:27Z</time>
      </trkpt>
      <trkpt lat="44.61629" lon="5.44395">
        <ele>549.1</ele>
        <time>2021-09-06T08:49:28Z</time>
      </trkpt>
      <trkpt lat="44.61613" lon="5.44389">
        <ele>549.5</ele>
        <time>2021-09-06T08:49:30Z</time>
      </trkpt>
      <trkpt lat="44.6161" lon="5.44387">
        <ele>549.6</ele>
        <time>2021-09-06T08:49:31Z</time>
      </trkpt>
      <trkpt lat="44.61607" lon="5.44384">
        <ele>549.7</ele>
        <time>2021-09-06T08:49:32Z</time>
      </trkpt>
      <trkpt lat="44.61604" lon="5.44382">
        <ele>549.7</ele>
        <time>2021-09-06T08:49:33Z</time>
      </trkpt>
      <trkpt lat="44.61603" lon="5.44382">
        <ele>549.7</ele>
        <time>2021-09-06T08:49:34Z</time>
      </trkpt>
      <trkpt lat="44.616" lon="5.44381">
        <ele>549.7</ele>
        <time>2021-09-06T08:49:36Z</time>
      </trkpt>
      <trkpt lat="44.61568" lon="5.44383">
        <ele>549.3</ele>
        <time>2021-09-06T08:49:42Z</time>
      </trkpt>
      <trkpt lat="44.61564" lon="5.4439">
        <ele>549.1</ele>
        <time>2021-09-06T08:49:43Z</time>
      </trkpt>
      <trkpt lat="44.61563" lon="5.44389">
        <ele>549.1</ele>
        <time>2021-09-06T08:49:44Z</time>
      </trkpt>
      <trkpt lat="44.61559" lon="5.44388">
        <ele>549</ele>
        <time>2021-09-06T08:49:46Z</time>
      </trkpt>
      <trkpt lat="44.61557" lon="5.4439">
        <ele>548.9</ele>
        <time>2021-09-06T08:49:48Z</time>
      </trkpt>
      <trkpt lat="44.61556" lon="5.4439">
        <ele>548.8</ele>
        <time>2021-09-06T08:49:49Z</time>
      </trkpt>
      <trkpt lat="44.61555" lon="5.44392">
        <ele>548.8</ele>
        <time>2021-09-06T08:49:50Z</time>
      </trkpt>
      <trkpt lat="44.61542" lon="5.44405">
        <ele>548.3</ele>
        <time>2021-09-06T08:49:52Z</time>
      </trkpt>
      <trkpt lat="44.61532" lon="5.44417">
        <ele>547.9</ele>
        <time>2021-09-06T08:49:54Z</time>
      </trkpt>
      <trkpt lat="44.61529" lon="5.44423">
        <ele>547.7</ele>
        <time>2021-09-06T08:49:55Z</time>
      </trkpt>
      <trkpt lat="44.61528" lon="5.44426">
        <ele>547.7</ele>
        <time>2021-09-06T08:49:56Z</time>
      </trkpt>
      <trkpt lat="44.61514" lon="5.44448">
        <ele>547.1</ele>
        <time>2021-09-06T08:49:58Z</time>
      </trkpt>
      <trkpt lat="44.61508" lon="5.44459">
        <ele>546.8</ele>
        <time>2021-09-06T08:49:59Z</time>
      </trkpt>
      <trkpt lat="44.61503" lon="5.44469">
        <ele>546.5</ele>
        <time>2021-09-06T08:50:00Z</time>
      </trkpt>
      <trkpt lat="44.61498" lon="5.44476">
        <ele>546.4</ele>
        <time>2021-09-06T08:50:01Z</time>
      </trkpt>
      <trkpt lat="44.61493" lon="5.44482">
        <ele>546.2</ele>
        <time>2021-09-06T08:50:02Z</time>
      </trkpt>
      <trkpt lat="44.61482" lon="5.4449">
        <ele>546.1</ele>
        <time>2021-09-06T08:50:04Z</time>
      </trkpt>
      <trkpt lat="44.61478" lon="5.44494">
        <ele>546.1</ele>
        <time>2021-09-06T08:50:05Z</time>
      </trkpt>
      <trkpt lat="44.61474" lon="5.44497">
        <ele>546.1</ele>
        <time>2021-09-06T08:50:06Z</time>
      </trkpt>
      <trkpt lat="44.61471" lon="5.44499">
        <ele>546.1</ele>
        <time>2021-09-06T08:50:08Z</time>
      </trkpt>
      <trkpt lat="44.61468" lon="5.44503">
        <ele>546.2</ele>
        <time>2021-09-06T08:50:10Z</time>
      </trkpt>
      <trkpt lat="44.61457" lon="5.44507">
        <ele>546.3</ele>
        <time>2021-09-06T08:50:11Z</time>
      </trkpt>
      <trkpt lat="44.61452" lon="5.4451">
        <ele>546.4</ele>
        <time>2021-09-06T08:50:12Z</time>
      </trkpt>
      <trkpt lat="44.61449" lon="5.44513">
        <ele>546.4</ele>
        <time>2021-09-06T08:50:13Z</time>
      </trkpt>
      <trkpt lat="44.61442" lon="5.44514">
        <ele>546.6</ele>
        <time>2021-09-06T08:50:14Z</time>
      </trkpt>
      <trkpt lat="44.61434" lon="5.44517">
        <ele>546.7</ele>
        <time>2021-09-06T08:50:16Z</time>
      </trkpt>
      <trkpt lat="44.61429" lon="5.44519">
        <ele>546.8</ele>
        <time>2021-09-06T08:50:17Z</time>
      </trkpt>
      <trkpt lat="44.61424" lon="5.44521">
        <ele>546.9</ele>
        <time>2021-09-06T08:50:19Z</time>
      </trkpt>
      <trkpt lat="44.61419" lon="5.44522">
        <ele>547</ele>
        <time>2021-09-06T08:50:20Z</time>
      </trkpt>
      <trkpt lat="44.61413" lon="5.44525">
        <ele>547.1</ele>
        <time>2021-09-06T08:50:21Z</time>
      </trkpt>
      <trkpt lat="44.61407" lon="5.44525">
        <ele>547.2</ele>
        <time>2021-09-06T08:50:23Z</time>
      </trkpt>
      <trkpt lat="44.61405" lon="5.44525">
        <ele>547.2</ele>
        <time>2021-09-06T08:50:24Z</time>
      </trkpt>
      <trkpt lat="44.61404" lon="5.44524">
        <ele>547.2</ele>
        <time>2021-09-06T08:50:26Z</time>
      </trkpt>
      <trkpt lat="44.61406" lon="5.44522">
        <ele>547.3</ele>
        <time>2021-09-06T08:50:28Z</time>
      </trkpt>
      <trkpt lat="44.61405" lon="5.44521">
        <ele>547.3</ele>
        <time>2021-09-06T08:50:29Z</time>
      </trkpt>
      <trkpt lat="44.61406" lon="5.4452">
        <ele>547.3</ele>
        <time>2021-09-06T08:50:31Z</time>
      </trkpt>
      <trkpt lat="44.61414" lon="5.44509">
        <ele>547.4</ele>
        <time>2021-09-06T08:50:32Z</time>
      </trkpt>
      <trkpt lat="44.61414" lon="5.44507">
        <ele>547.4</ele>
        <time>2021-09-06T08:50:33Z</time>
      </trkpt>
      <trkpt lat="44.61414" lon="5.44505">
        <ele>547.5</ele>
        <time>2021-09-06T08:50:34Z</time>
      </trkpt>
      <trkpt lat="44.61416" lon="5.44505">
        <ele>547.5</ele>
        <time>2021-09-06T08:50:35Z</time>
      </trkpt>
      <trkpt lat="44.61423" lon="5.44507">
        <ele>547.6</ele>
        <time>2021-09-06T08:50:37Z</time>
      </trkpt>
      <trkpt lat="44.61424" lon="5.44507">
        <ele>547.6</ele>
        <time>2021-09-06T08:50:38Z</time>
      </trkpt>
      <trkpt lat="44.61428" lon="5.44507">
        <ele>547.7</ele>
        <time>2021-09-06T08:50:40Z</time>
      </trkpt>
      <trkpt lat="44.61412" lon="5.44506">
        <ele>547.9</ele>
        <time>2021-09-06T08:50:48Z</time>
      </trkpt>
      <trkpt lat="44.61403" lon="5.44502">
        <ele>548.1</ele>
        <time>2021-09-06T08:50:50Z</time>
      </trkpt>
      <trkpt lat="44.61398" lon="5.445">
        <ele>548.2</ele>
        <time>2021-09-06T08:50:51Z</time>
      </trkpt>
      <trkpt lat="44.61393" lon="5.44496">
        <ele>548.3</ele>
        <time>2021-09-06T08:50:52Z</time>
      </trkpt>
      <trkpt lat="44.61381" lon="5.44486">
        <ele>548.5</ele>
        <time>2021-09-06T08:50:53Z</time>
      </trkpt>
      <trkpt lat="44.61375" lon="5.44481">
        <ele>548.6</ele>
        <time>2021-09-06T08:50:55Z</time>
      </trkpt>
      <trkpt lat="44.61368" lon="5.44475">
        <ele>548.8</ele>
        <time>2021-09-06T08:50:57Z</time>
      </trkpt>
      <trkpt lat="44.61364" lon="5.44467">
        <ele>549</ele>
        <time>2021-09-06T08:50:58Z</time>
      </trkpt>
      <trkpt lat="44.61362" lon="5.44464">
        <ele>549.1</ele>
        <time>2021-09-06T08:50:59Z</time>
      </trkpt>
      <trkpt lat="44.6136" lon="5.4446">
        <ele>549.2</ele>
        <time>2021-09-06T08:51:00Z</time>
      </trkpt>
      <trkpt lat="44.61357" lon="5.44456">
        <ele>549.3</ele>
        <time>2021-09-06T08:51:02Z</time>
      </trkpt>
      <trkpt lat="44.61353" lon="5.4445">
        <ele>549.4</ele>
        <time>2021-09-06T08:51:03Z</time>
      </trkpt>
      <trkpt lat="44.61351" lon="5.44446">
        <ele>549.5</ele>
        <time>2021-09-06T08:51:04Z</time>
      </trkpt>
      <trkpt lat="44.6135" lon="5.4444">
        <ele>549.7</ele>
        <time>2021-09-06T08:51:05Z</time>
      </trkpt>
      <trkpt lat="44.61343" lon="5.44433">
        <ele>549.9</ele>
        <time>2021-09-06T08:51:07Z</time>
      </trkpt>
      <trkpt lat="44.6134" lon="5.44432">
        <ele>549.9</ele>
        <time>2021-09-06T08:51:08Z</time>
      </trkpt>
      <trkpt lat="44.61339" lon="5.44432">
        <ele>549.9</ele>
        <time>2021-09-06T08:51:09Z</time>
      </trkpt>
      <trkpt lat="44.61339" lon="5.44435">
        <ele>550</ele>
        <time>2021-09-06T08:51:11Z</time>
      </trkpt>
      <trkpt lat="44.6134" lon="5.44437">
        <ele>550</ele>
        <time>2021-09-06T08:51:12Z</time>
      </trkpt>
      <trkpt lat="44.61337" lon="5.44438">
        <ele>550</ele>
        <time>2021-09-06T08:51:13Z</time>
      </trkpt>
      <trkpt lat="44.61336" lon="5.44439">
        <ele>550</ele>
        <time>2021-09-06T08:51:14Z</time>
      </trkpt>
      <trkpt lat="44.61334" lon="5.4444">
        <ele>550</ele>
        <time>2021-09-06T08:51:15Z</time>
      </trkpt>
      <trkpt lat="44.6133" lon="5.44443">
        <ele>550.1</ele>
        <time>2021-09-06T08:51:17Z</time>
      </trkpt>
      <trkpt lat="44.61326" lon="5.44445">
        <ele>550.1</ele>
        <time>2021-09-06T08:51:19Z</time>
      </trkpt>
      <trkpt lat="44.61323" lon="5.44449">
        <ele>550.1</ele>
        <time>2021-09-06T08:51:21Z</time>
      </trkpt>
      <trkpt lat="44.61318" lon="5.44452">
        <ele>550.2</ele>
        <time>2021-09-06T08:51:22Z</time>
      </trkpt>
      <trkpt lat="44.61314" lon="5.44454">
        <ele>550.2</ele>
        <time>2021-09-06T08:51:23Z</time>
      </trkpt>
      <trkpt lat="44.61308" lon="5.44457">
        <ele>550.3</ele>
        <time>2021-09-06T08:51:24Z</time>
      </trkpt>
      <trkpt lat="44.61303" lon="5.44461">
        <ele>550.4</ele>
        <time>2021-09-06T08:51:26Z</time>
      </trkpt>
      <trkpt lat="44.61297" lon="5.44465">
        <ele>550.5</ele>
        <time>2021-09-06T08:51:27Z</time>
      </trkpt>
      <trkpt lat="44.61293" lon="5.44468">
        <ele>550.6</ele>
        <time>2021-09-06T08:51:28Z</time>
      </trkpt>
      <trkpt lat="44.61286" lon="5.4447">
        <ele>550.8</ele>
        <time>2021-09-06T08:51:30Z</time>
      </trkpt>
      <trkpt lat="44.61279" lon="5.4447">
        <ele>551.1</ele>
        <time>2021-09-06T08:51:32Z</time>
      </trkpt>
      <trkpt lat="44.61276" lon="5.44471">
        <ele>551.2</ele>
        <time>2021-09-06T08:51:33Z</time>
      </trkpt>
      <trkpt lat="44.61273" lon="5.44471">
        <ele>551.3</ele>
        <time>2021-09-06T08:51:34Z</time>
      </trkpt>
      <trkpt lat="44.61271" lon="5.44471">
        <ele>551.4</ele>
        <time>2021-09-06T08:51:35Z</time>
      </trkpt>
      <trkpt lat="44.61268" lon="5.44471">
        <ele>551.5</ele>
        <time>2021-09-06T08:51:37Z</time>
      </trkpt>
      <trkpt lat="44.61265" lon="5.4447">
        <ele>551.7</ele>
        <time>2021-09-06T08:51:38Z</time>
      </trkpt>
      <trkpt lat="44.61264" lon="5.44469">
        <ele>551.7</ele>
        <time>2021-09-06T08:51:39Z</time>
      </trkpt>
      <trkpt lat="44.61261" lon="5.44467">
        <ele>551.9</ele>
        <time>2021-09-06T08:51:40Z</time>
      </trkpt>
      <trkpt lat="44.61261" lon="5.44466">
        <ele>552</ele>
        <time>2021-09-06T08:51:41Z</time>
      </trkpt>
      <trkpt lat="44.61258" lon="5.44462">
        <ele>552.1</ele>
        <time>2021-09-06T08:51:42Z</time>
      </trkpt>
      <trkpt lat="44.61257" lon="5.4446">
        <ele>552.2</ele>
        <time>2021-09-06T08:51:43Z</time>
      </trkpt>
      <trkpt lat="44.61255" lon="5.44458">
        <ele>552.4</ele>
        <time>2021-09-06T08:51:44Z</time>
      </trkpt>
      <trkpt lat="44.61254" lon="5.44457">
        <ele>552.4</ele>
        <time>2021-09-06T08:51:45Z</time>
      </trkpt>
      <trkpt lat="44.61253" lon="5.44454">
        <ele>552.6</ele>
        <time>2021-09-06T08:51:46Z</time>
      </trkpt>
      <trkpt lat="44.61252" lon="5.44452">
        <ele>552.7</ele>
        <time>2021-09-06T08:51:47Z</time>
      </trkpt>
      <trkpt lat="44.61253" lon="5.44453">
        <ele>552.7</ele>
        <time>2021-09-06T08:51:48Z</time>
      </trkpt>
      <trkpt lat="44.61254" lon="5.44454">
        <ele>552.8</ele>
        <time>2021-09-06T08:51:49Z</time>
      </trkpt>
      <trkpt lat="44.61255" lon="5.44456">
        <ele>552.9</ele>
        <time>2021-09-06T08:51:50Z</time>
      </trkpt>
      <trkpt lat="44.61255" lon="5.44456">
        <ele>552.9</ele>
        <time>2021-09-06T08:51:52Z</time>
      </trkpt>
      <trkpt lat="44.61255" lon="5.44456">
        <ele>552.9</ele>
        <time>2021-09-06T08:51:53Z</time>
      </trkpt>
      <trkpt lat="44.61072" lon="5.44421">
        <ele>566.2</ele>
        <time>2021-09-06T08:53:30Z</time>
      </trkpt>
      <trkpt lat="44.61069" lon="5.44419">
        <ele>566.1</ele>
        <time>2021-09-06T08:53:31Z</time>
      </trkpt>
      <trkpt lat="44.61066" lon="5.44417">
        <ele>566.1</ele>
        <time>2021-09-06T08:53:33Z</time>
      </trkpt>
      <trkpt lat="44.61064" lon="5.44415">
        <ele>566</ele>
        <time>2021-09-06T08:53:34Z</time>
      </trkpt>
      <trkpt lat="44.61057" lon="5.44409">
        <ele>565.7</ele>
        <time>2021-09-06T08:53:35Z</time>
      </trkpt>
      <trkpt lat="44.61056" lon="5.44407">
        <ele>565.6</ele>
        <time>2021-09-06T08:53:37Z</time>
      </trkpt>
      <trkpt lat="44.61058" lon="5.44407">
        <ele>565.5</ele>
        <time>2021-09-06T08:53:38Z</time>
      </trkpt>
      <trkpt lat="44.61058" lon="5.44407">
        <ele>565.5</ele>
        <time>2021-09-06T08:53:39Z</time>
      </trkpt>
      <trkpt lat="44.6106" lon="5.44409">
        <ele>565.4</ele>
        <time>2021-09-06T08:53:40Z</time>
      </trkpt>
      <trkpt lat="44.61068" lon="5.4442">
        <ele>564.8</ele>
        <time>2021-09-06T08:53:41Z</time>
      </trkpt>
      <trkpt lat="44.61072" lon="5.44429">
        <ele>564.4</ele>
        <time>2021-09-06T08:53:43Z</time>
      </trkpt>
      <trkpt lat="44.61073" lon="5.44433">
        <ele>564.2</ele>
        <time>2021-09-06T08:53:44Z</time>
      </trkpt>
      <trkpt lat="44.61073" lon="5.44437">
        <ele>564.1</ele>
        <time>2021-09-06T08:53:45Z</time>
      </trkpt>
      <trkpt lat="44.61074" lon="5.4444">
        <ele>564</ele>
        <time>2021-09-06T08:53:47Z</time>
      </trkpt>
      <trkpt lat="44.61075" lon="5.44443">
        <ele>563.8</ele>
        <time>2021-09-06T08:53:48Z</time>
      </trkpt>
      <trkpt lat="44.61076" lon="5.44445">
        <ele>563.8</ele>
        <time>2021-09-06T08:53:50Z</time>
      </trkpt>
      <trkpt lat="44.61077" lon="5.44447">
        <ele>563.7</ele>
        <time>2021-09-06T08:53:51Z</time>
      </trkpt>
      <trkpt lat="44.61078" lon="5.44449">
        <ele>563.6</ele>
        <time>2021-09-06T08:53:52Z</time>
      </trkpt>
      <trkpt lat="44.61079" lon="5.44462">
        <ele>563.2</ele>
        <time>2021-09-06T08:53:54Z</time>
      </trkpt>
      <trkpt lat="44.61082" lon="5.4447">
        <ele>563</ele>
        <time>2021-09-06T08:53:56Z</time>
      </trkpt>
      <trkpt lat="44.61085" lon="5.4448">
        <ele>562.7</ele>
        <time>2021-09-06T08:53:57Z</time>
      </trkpt>
      <trkpt lat="44.61087" lon="5.44485">
        <ele>562.6</ele>
        <time>2021-09-06T08:53:58Z</time>
      </trkpt>
      <trkpt lat="44.61089" lon="5.44491">
        <ele>562.5</ele>
        <time>2021-09-06T08:54:00Z</time>
      </trkpt>
      <trkpt lat="44.6109" lon="5.44495">
        <ele>562.4</ele>
        <time>2021-09-06T08:54:01Z</time>
      </trkpt>
      <trkpt lat="44.6109" lon="5.44496">
        <ele>562.4</ele>
        <time>2021-09-06T08:54:02Z</time>
      </trkpt>
      <trkpt lat="44.6109" lon="5.44499">
        <ele>562.3</ele>
        <time>2021-09-06T08:54:04Z</time>
      </trkpt>
      <trkpt lat="44.6109" lon="5.44501">
        <ele>562.3</ele>
        <time>2021-09-06T08:54:05Z</time>
      </trkpt>
      <trkpt lat="44.61091" lon="5.44504">
        <ele>562.2</ele>
        <time>2021-09-06T08:54:06Z</time>
      </trkpt>
      <trkpt lat="44.6109" lon="5.4451">
        <ele>562.1</ele>
        <time>2021-09-06T08:54:08Z</time>
      </trkpt>
      <trkpt lat="44.6109" lon="5.44514">
        <ele>562</ele>
        <time>2021-09-06T08:54:09Z</time>
      </trkpt>
      <trkpt lat="44.6109" lon="5.44517">
        <ele>562</ele>
        <time>2021-09-06T08:54:10Z</time>
      </trkpt>
      <trkpt lat="44.61028" lon="5.44629">
        <ele>560.3</ele>
        <time>2021-09-06T08:54:32Z</time>
      </trkpt>
      <trkpt lat="44.61026" lon="5.44635">
        <ele>560.3</ele>
        <time>2021-09-06T08:54:33Z</time>
      </trkpt>
      <trkpt lat="44.61022" lon="5.44652">
        <ele>560.1</ele>
        <time>2021-09-06T08:54:34Z</time>
      </trkpt>
      <trkpt lat="44.61019" lon="5.44661">
        <ele>560</ele>
        <time>2021-09-06T08:54:36Z</time>
      </trkpt>
      <trkpt lat="44.61019" lon="5.44665">
        <ele>559.9</ele>
        <time>2021-09-06T08:54:37Z</time>
      </trkpt>
      <trkpt lat="44.61018" lon="5.44666">
        <ele>559.9</ele>
        <time>2021-09-06T08:54:39Z</time>
      </trkpt>
      <trkpt lat="44.61018" lon="5.44671">
        <ele>559.8</ele>
        <time>2021-09-06T08:54:41Z</time>
      </trkpt>
      <trkpt lat="44.61018" lon="5.44676">
        <ele>559.8</ele>
        <time>2021-09-06T08:54:42Z</time>
      </trkpt>
      <trkpt lat="44.61018" lon="5.44677">
        <ele>559.7</ele>
        <time>2021-09-06T08:54:43Z</time>
      </trkpt>
      <trkpt lat="44.61017" lon="5.44684">
        <ele>559.7</ele>
        <time>2021-09-06T08:54:45Z</time>
      </trkpt>
      <trkpt lat="44.61017" lon="5.44688">
        <ele>559.7</ele>
        <time>2021-09-06T08:54:46Z</time>
      </trkpt>
      <trkpt lat="44.61018" lon="5.44703">
        <ele>559.6</ele>
        <time>2021-09-06T08:54:48Z</time>
      </trkpt>
      <trkpt lat="44.61019" lon="5.4472">
        <ele>559.6</ele>
        <time>2021-09-06T08:54:50Z</time>
      </trkpt>
      <trkpt lat="44.6102" lon="5.44731">
        <ele>559.7</ele>
        <time>2021-09-06T08:54:51Z</time>
      </trkpt>
      <trkpt lat="44.6102" lon="5.4474">
        <ele>559.7</ele>
        <time>2021-09-06T08:54:52Z</time>
      </trkpt>
      <trkpt lat="44.61019" lon="5.4475">
        <ele>559.7</ele>
        <time>2021-09-06T08:54:54Z</time>
      </trkpt>
      <trkpt lat="44.6102" lon="5.44751">
        <ele>559.7</ele>
        <time>2021-09-06T08:54:55Z</time>
      </trkpt>
      <trkpt lat="44.61021" lon="5.44753">
        <ele>559.7</ele>
        <time>2021-09-06T08:54:56Z</time>
      </trkpt>
      <trkpt lat="44.61023" lon="5.44758">
        <ele>559.8</ele>
        <time>2021-09-06T08:54:58Z</time>
      </trkpt>
      <trkpt lat="44.61023" lon="5.44759">
        <ele>559.8</ele>
        <time>2021-09-06T08:54:59Z</time>
      </trkpt>
      <trkpt lat="44.61023" lon="5.44762">
        <ele>559.8</ele>
        <time>2021-09-06T08:55:00Z</time>
      </trkpt>
      <trkpt lat="44.61022" lon="5.44769">
        <ele>559.8</ele>
        <time>2021-09-06T08:55:02Z</time>
      </trkpt>
      <trkpt lat="44.61021" lon="5.44773">
        <ele>559.8</ele>
        <time>2021-09-06T08:55:04Z</time>
      </trkpt>
      <trkpt lat="44.61013" lon="5.44782">
        <ele>559.9</ele>
        <time>2021-09-06T08:55:10Z</time>
      </trkpt>
      <trkpt lat="44.6101" lon="5.44785">
        <ele>559.9</ele>
        <time>2021-09-06T08:55:11Z</time>
      </trkpt>
      <trkpt lat="44.61003" lon="5.44789">
        <ele>560</ele>
        <time>2021-09-06T08:55:13Z</time>
      </trkpt>
      <trkpt lat="44.60998" lon="5.4479">
        <ele>560</ele>
        <time>2021-09-06T08:55:14Z</time>
      </trkpt>
      <trkpt lat="44.60993" lon="5.44793">
        <ele>560</ele>
        <time>2021-09-06T08:55:15Z</time>
      </trkpt>
      <trkpt lat="44.60988" lon="5.44796">
        <ele>560.1</ele>
        <time>2021-09-06T08:55:17Z</time>
      </trkpt>
      <trkpt lat="44.60983" lon="5.44799">
        <ele>560.1</ele>
        <time>2021-09-06T08:55:18Z</time>
      </trkpt>
      <trkpt lat="44.60977" lon="5.44803">
        <ele>560.2</ele>
        <time>2021-09-06T08:55:19Z</time>
      </trkpt>
      <trkpt lat="44.60972" lon="5.44805">
        <ele>560.3</ele>
        <time>2021-09-06T08:55:20Z</time>
      </trkpt>
      <trkpt lat="44.60967" lon="5.44807">
        <ele>560.4</ele>
        <time>2021-09-06T08:55:21Z</time>
      </trkpt>
      <trkpt lat="44.60958" lon="5.44806">
        <ele>560.5</ele>
        <time>2021-09-06T08:55:23Z</time>
      </trkpt>
      <trkpt lat="44.60952" lon="5.44806">
        <ele>560.6</ele>
        <time>2021-09-06T08:55:24Z</time>
      </trkpt>
      <trkpt lat="44.60948" lon="5.44807">
        <ele>560.6</ele>
        <time>2021-09-06T08:55:25Z</time>
      </trkpt>
      <trkpt lat="44.60946" lon="5.44811">
        <ele>560.7</ele>
        <time>2021-09-06T08:55:27Z</time>
      </trkpt>
      <trkpt lat="44.60947" lon="5.44812">
        <ele>560.7</ele>
        <time>2021-09-06T08:55:28Z</time>
      </trkpt>
      <trkpt lat="44.60948" lon="5.44814">
        <ele>560.7</ele>
        <time>2021-09-06T08:55:29Z</time>
      </trkpt>
      <trkpt lat="44.60948" lon="5.44818">
        <ele>560.7</ele>
        <time>2021-09-06T08:55:30Z</time>
      </trkpt>
      <trkpt lat="44.60947" lon="5.44821">
        <ele>560.7</ele>
        <time>2021-09-06T08:55:32Z</time>
      </trkpt>
      <trkpt lat="44.60946" lon="5.44825">
        <ele>560.8</ele>
        <time>2021-09-06T08:55:33Z</time>
      </trkpt>
      <trkpt lat="44.60946" lon="5.44826">
        <ele>560.8</ele>
        <time>2021-09-06T08:55:34Z</time>
      </trkpt>
      <trkpt lat="44.60943" lon="5.44842">
        <ele>560.9</ele>
        <time>2021-09-06T08:55:36Z</time>
      </trkpt>
      <trkpt lat="44.60941" lon="5.44856">
        <ele>560.9</ele>
        <time>2021-09-06T08:55:38Z</time>
      </trkpt>
      <trkpt lat="44.60938" lon="5.44869">
        <ele>560.9</ele>
        <time>2021-09-06T08:55:40Z</time>
      </trkpt>
      <trkpt lat="44.60933" lon="5.44878">
        <ele>560.9</ele>
        <time>2021-09-06T08:55:42Z</time>
      </trkpt>
      <trkpt lat="44.6093" lon="5.44886">
        <ele>560.9</ele>
        <time>2021-09-06T08:55:43Z</time>
      </trkpt>
      <trkpt lat="44.60927" lon="5.44897">
        <ele>560.9</ele>
        <time>2021-09-06T08:55:44Z</time>
      </trkpt>
      <trkpt lat="44.60924" lon="5.44909">
        <ele>560.8</ele>
        <time>2021-09-06T08:55:46Z</time>
      </trkpt>
      <trkpt lat="44.60922" lon="5.44917">
        <ele>560.8</ele>
        <time>2021-09-06T08:55:47Z</time>
      </trkpt>
      <trkpt lat="44.6092" lon="5.44929">
        <ele>560.8</ele>
        <time>2021-09-06T08:55:48Z</time>
      </trkpt>
      <trkpt lat="44.60919" lon="5.44935">
        <ele>560.8</ele>
        <time>2021-09-06T08:55:49Z</time>
      </trkpt>
      <trkpt lat="44.60917" lon="5.44942">
        <ele>560.8</ele>
        <time>2021-09-06T08:55:50Z</time>
      </trkpt>
      <trkpt lat="44.60912" lon="5.44953">
        <ele>560.8</ele>
        <time>2021-09-06T08:55:52Z</time>
      </trkpt>
      <trkpt lat="44.60908" lon="5.4496">
        <ele>560.9</ele>
        <time>2021-09-06T08:55:53Z</time>
      </trkpt>
      <trkpt lat="44.60902" lon="5.44967">
        <ele>561</ele>
        <time>2021-09-06T08:55:54Z</time>
      </trkpt>
      <trkpt lat="44.60898" lon="5.44971">
        <ele>561.1</ele>
        <time>2021-09-06T08:55:55Z</time>
      </trkpt>
      <trkpt lat="44.60894" lon="5.4497">
        <ele>561.2</ele>
        <time>2021-09-06T08:55:57Z</time>
      </trkpt>
      <trkpt lat="44.60891" lon="5.44974">
        <ele>561.3</ele>
        <time>2021-09-06T08:55:58Z</time>
      </trkpt>
      <trkpt lat="44.60883" lon="5.44982">
        <ele>561.5</ele>
        <time>2021-09-06T08:56:00Z</time>
      </trkpt>
      <trkpt lat="44.60879" lon="5.44984">
        <ele>561.6</ele>
        <time>2021-09-06T08:56:01Z</time>
      </trkpt>
      <trkpt lat="44.60872" lon="5.44985">
        <ele>561.7</ele>
        <time>2021-09-06T08:56:03Z</time>
      </trkpt>
      <trkpt lat="44.60869" lon="5.44987">
        <ele>561.8</ele>
        <time>2021-09-06T08:56:04Z</time>
      </trkpt>
      <trkpt lat="44.60865" lon="5.44989">
        <ele>561.8</ele>
        <time>2021-09-06T08:56:05Z</time>
      </trkpt>
      <trkpt lat="44.60861" lon="5.4499">
        <ele>561.8</ele>
        <time>2021-09-06T08:56:06Z</time>
      </trkpt>
      <trkpt lat="44.60859" lon="5.44991">
        <ele>561.8</ele>
        <time>2021-09-06T08:56:07Z</time>
      </trkpt>
      <trkpt lat="44.60857" lon="5.44991">
        <ele>561.8</ele>
        <time>2021-09-06T08:56:08Z</time>
      </trkpt>
      <trkpt lat="44.60855" lon="5.44991">
        <ele>561.8</ele>
        <time>2021-09-06T08:56:10Z</time>
      </trkpt>
      <trkpt lat="44.60851" lon="5.44993">
        <ele>561.7</ele>
        <time>2021-09-06T08:56:11Z</time>
      </trkpt>
      <trkpt lat="44.6085" lon="5.44994">
        <ele>561.7</ele>
        <time>2021-09-06T08:56:13Z</time>
      </trkpt>
      <trkpt lat="44.60848" lon="5.44995">
        <ele>561.7</ele>
        <time>2021-09-06T08:56:14Z</time>
      </trkpt>
      <trkpt lat="44.60847" lon="5.44997">
        <ele>561.6</ele>
        <time>2021-09-06T08:56:15Z</time>
      </trkpt>
      <trkpt lat="44.60843" lon="5.44998">
        <ele>561.6</ele>
        <time>2021-09-06T08:56:17Z</time>
      </trkpt>
      <trkpt lat="44.60838" lon="5.44997">
        <ele>561.5</ele>
        <time>2021-09-06T08:56:18Z</time>
      </trkpt>
      <trkpt lat="44.60832" lon="5.44997">
        <ele>561.4</ele>
        <time>2021-09-06T08:56:19Z</time>
      </trkpt>
      <trkpt lat="44.60826" lon="5.44997">
        <ele>561.3</ele>
        <time>2021-09-06T08:56:21Z</time>
      </trkpt>
      <trkpt lat="44.60822" lon="5.45">
        <ele>561.2</ele>
        <time>2021-09-06T08:56:22Z</time>
      </trkpt>
      <trkpt lat="44.60817" lon="5.45004">
        <ele>561.1</ele>
        <time>2021-09-06T08:56:23Z</time>
      </trkpt>
      <trkpt lat="44.60814" lon="5.45007">
        <ele>561</ele>
        <time>2021-09-06T08:56:24Z</time>
      </trkpt>
      <trkpt lat="44.60809" lon="5.45012">
        <ele>560.9</ele>
        <time>2021-09-06T08:56:26Z</time>
      </trkpt>
      <trkpt lat="44.60806" lon="5.45014">
        <ele>560.8</ele>
        <time>2021-09-06T08:56:27Z</time>
      </trkpt>
      <trkpt lat="44.60802" lon="5.45014">
        <ele>560.8</ele>
        <time>2021-09-06T08:56:28Z</time>
      </trkpt>
      <trkpt lat="44.60799" lon="5.45015">
        <ele>560.7</ele>
        <time>2021-09-06T08:56:29Z</time>
      </trkpt>
      <trkpt lat="44.60795" lon="5.45016">
        <ele>560.7</ele>
        <time>2021-09-06T08:56:30Z</time>
      </trkpt>
      <trkpt lat="44.60792" lon="5.45017">
        <ele>560.6</ele>
        <time>2021-09-06T08:56:32Z</time>
      </trkpt>
      <trkpt lat="44.60788" lon="5.4502">
        <ele>560.6</ele>
        <time>2021-09-06T08:56:33Z</time>
      </trkpt>
      <trkpt lat="44.60784" lon="5.45023">
        <ele>560.6</ele>
        <time>2021-09-06T08:56:34Z</time>
      </trkpt>
      <trkpt lat="44.60786" lon="5.45026">
        <ele>560.6</ele>
        <time>2021-09-06T08:56:36Z</time>
      </trkpt>
      <trkpt lat="44.60784" lon="5.45024">
        <ele>560.7</ele>
        <time>2021-09-06T08:56:37Z</time>
      </trkpt>
      <trkpt lat="44.60781" lon="5.45023">
        <ele>560.7</ele>
        <time>2021-09-06T08:56:38Z</time>
      </trkpt>
      <trkpt lat="44.60779" lon="5.45024">
        <ele>560.7</ele>
        <time>2021-09-06T08:56:40Z</time>
      </trkpt>
      <trkpt lat="44.60777" lon="5.45026">
        <ele>560.8</ele>
        <time>2021-09-06T08:56:41Z</time>
      </trkpt>
      <trkpt lat="44.60774" lon="5.45032">
        <ele>560.9</ele>
        <time>2021-09-06T08:56:42Z</time>
      </trkpt>
      <trkpt lat="44.60767" lon="5.45041">
        <ele>561.2</ele>
        <time>2021-09-06T08:56:44Z</time>
      </trkpt>
      <trkpt lat="44.60764" lon="5.45046">
        <ele>561.4</ele>
        <time>2021-09-06T08:56:45Z</time>
      </trkpt>
      <trkpt lat="44.60761" lon="5.45049">
        <ele>561.6</ele>
        <time>2021-09-06T08:56:46Z</time>
      </trkpt>
      <trkpt lat="44.60756" lon="5.45059">
        <ele>562</ele>
        <time>2021-09-06T08:56:48Z</time>
      </trkpt>
      <trkpt lat="44.60754" lon="5.45067">
        <ele>562.3</ele>
        <time>2021-09-06T08:56:49Z</time>
      </trkpt>
      <trkpt lat="44.60753" lon="5.45071">
        <ele>562.4</ele>
        <time>2021-09-06T08:56:50Z</time>
      </trkpt>
      <trkpt lat="44.60753" lon="5.45076">
        <ele>562.6</ele>
        <time>2021-09-06T08:56:52Z</time>
      </trkpt>
      <trkpt lat="44.60751" lon="5.45082">
        <ele>562.9</ele>
        <time>2021-09-06T08:56:53Z</time>
      </trkpt>
      <trkpt lat="44.60749" lon="5.45089">
        <ele>563.2</ele>
        <time>2021-09-06T08:56:54Z</time>
      </trkpt>
      <trkpt lat="44.60749" lon="5.451">
        <ele>563.5</ele>
        <time>2021-09-06T08:56:56Z</time>
      </trkpt>
      <trkpt lat="44.60749" lon="5.45104">
        <ele>563.7</ele>
        <time>2021-09-06T08:56:57Z</time>
      </trkpt>
      <trkpt lat="44.60747" lon="5.45108">
        <ele>563.9</ele>
        <time>2021-09-06T08:56:59Z</time>
      </trkpt>
      <trkpt lat="44.60745" lon="5.45112">
        <ele>564.1</ele>
        <time>2021-09-06T08:57:00Z</time>
      </trkpt>
      <trkpt lat="44.60745" lon="5.45117">
        <ele>564.2</ele>
        <time>2021-09-06T08:57:02Z</time>
      </trkpt>
      <trkpt lat="44.60745" lon="5.4512">
        <ele>564.4</ele>
        <time>2021-09-06T08:57:04Z</time>
      </trkpt>
      <trkpt lat="44.60745" lon="5.45122">
        <ele>564.4</ele>
        <time>2021-09-06T08:57:05Z</time>
      </trkpt>
      <trkpt lat="44.60744" lon="5.45124">
        <ele>564.5</ele>
        <time>2021-09-06T08:57:06Z</time>
      </trkpt>
      <trkpt lat="44.6074" lon="5.45128">
        <ele>564.8</ele>
        <time>2021-09-06T08:57:08Z</time>
      </trkpt>
      <trkpt lat="44.60734" lon="5.4513">
        <ele>565.1</ele>
        <time>2021-09-06T08:57:10Z</time>
      </trkpt>
      <trkpt lat="44.6073" lon="5.4513">
        <ele>565.3</ele>
        <time>2021-09-06T08:57:11Z</time>
      </trkpt>
      <trkpt lat="44.60727" lon="5.45129">
        <ele>565.4</ele>
        <time>2021-09-06T08:57:12Z</time>
      </trkpt>
      <trkpt lat="44.60723" lon="5.45128">
        <ele>565.5</ele>
        <time>2021-09-06T08:57:14Z</time>
      </trkpt>
      <trkpt lat="44.60722" lon="5.45129">
        <ele>565.5</ele>
        <time>2021-09-06T08:57:16Z</time>
      </trkpt>
      <trkpt lat="44.60722" lon="5.4513">
        <ele>565.6</ele>
        <time>2021-09-06T08:57:17Z</time>
      </trkpt>
      <trkpt lat="44.60718" lon="5.45135">
        <ele>565.6</ele>
        <time>2021-09-06T08:57:19Z</time>
      </trkpt>
      <trkpt lat="44.60717" lon="5.45137">
        <ele>565.6</ele>
        <time>2021-09-06T08:57:20Z</time>
      </trkpt>
      <trkpt lat="44.60718" lon="5.45143">
        <ele>565.6</ele>
        <time>2021-09-06T08:57:22Z</time>
      </trkpt>
      <trkpt lat="44.60718" lon="5.45149">
        <ele>565.6</ele>
        <time>2021-09-06T08:57:24Z</time>
      </trkpt>
      <trkpt lat="44.60694" lon="5.45164">
        <ele>565.3</ele>
        <time>2021-09-06T08:57:30Z</time>
      </trkpt>
      <trkpt lat="44.60689" lon="5.45166">
        <ele>565.2</ele>
        <time>2021-09-06T08:57:31Z</time>
      </trkpt>
      <trkpt lat="44.60685" lon="5.45171">
        <ele>565.2</ele>
        <time>2021-09-06T08:57:32Z</time>
      </trkpt>
      <trkpt lat="44.60676" lon="5.45177">
        <ele>565.1</ele>
        <time>2021-09-06T08:57:34Z</time>
      </trkpt>
      <trkpt lat="44.60667" lon="5.45181">
        <ele>564.9</ele>
        <time>2021-09-06T08:57:36Z</time>
      </trkpt>
      <trkpt lat="44.60664" lon="5.45182">
        <ele>564.9</ele>
        <time>2021-09-06T08:57:37Z</time>
      </trkpt>
      <trkpt lat="44.60664" lon="5.45183">
        <ele>564.9</ele>
        <time>2021-09-06T08:57:38Z</time>
      </trkpt>
      <trkpt lat="44.6066" lon="5.4519">
        <ele>564.7</ele>
        <time>2021-09-06T08:57:40Z</time>
      </trkpt>
      <trkpt lat="44.60659" lon="5.45194">
        <ele>564.6</ele>
        <time>2021-09-06T08:57:41Z</time>
      </trkpt>
      <trkpt lat="44.60658" lon="5.45195">
        <ele>564.6</ele>
        <time>2021-09-06T08:57:42Z</time>
      </trkpt>
      <trkpt lat="44.60657" lon="5.452">
        <ele>564.5</ele>
        <time>2021-09-06T08:57:44Z</time>
      </trkpt>
      <trkpt lat="44.60656" lon="5.45202">
        <ele>564.4</ele>
        <time>2021-09-06T08:57:45Z</time>
      </trkpt>
      <trkpt lat="44.60655" lon="5.45203">
        <ele>564.4</ele>
        <time>2021-09-06T08:57:46Z</time>
      </trkpt>
      <trkpt lat="44.60653" lon="5.45206">
        <ele>564.2</ele>
        <time>2021-09-06T08:57:48Z</time>
      </trkpt>
      <trkpt lat="44.60637" lon="5.45219">
        <ele>563.1</ele>
        <time>2021-09-06T08:57:49Z</time>
      </trkpt>
      <trkpt lat="44.60628" lon="5.45226">
        <ele>562.4</ele>
        <time>2021-09-06T08:57:50Z</time>
      </trkpt>
      <trkpt lat="44.60613" lon="5.45246">
        <ele>561.5</ele>
        <time>2021-09-06T08:57:52Z</time>
      </trkpt>
      <trkpt lat="44.60609" lon="5.45254">
        <ele>561.5</ele>
        <time>2021-09-06T08:57:53Z</time>
      </trkpt>
      <trkpt lat="44.60605" lon="5.45259">
        <ele>561.6</ele>
        <time>2021-09-06T08:57:54Z</time>
      </trkpt>
      <trkpt lat="44.60601" lon="5.45262">
        <ele>561.7</ele>
        <time>2021-09-06T08:57:55Z</time>
      </trkpt>
      <trkpt lat="44.60597" lon="5.45265">
        <ele>561.9</ele>
        <time>2021-09-06T08:57:56Z</time>
      </trkpt>
      <trkpt lat="44.60598" lon="5.45267">
        <ele>561.9</ele>
        <time>2021-09-06T08:57:58Z</time>
      </trkpt>
      <trkpt lat="44.60593" lon="5.4527">
        <ele>562.2</ele>
        <time>2021-09-06T08:58:00Z</time>
      </trkpt>
      <trkpt lat="44.6059" lon="5.45272">
        <ele>562.4</ele>
        <time>2021-09-06T08:58:01Z</time>
      </trkpt>
      <trkpt lat="44.60587" lon="5.45274">
        <ele>562.6</ele>
        <time>2021-09-06T08:58:02Z</time>
      </trkpt>
      <trkpt lat="44.60586" lon="5.45278">
        <ele>562.8</ele>
        <time>2021-09-06T08:58:03Z</time>
      </trkpt>
      <trkpt lat="44.60586" lon="5.4528">
        <ele>563</ele>
        <time>2021-09-06T08:58:04Z</time>
      </trkpt>
      <trkpt lat="44.60587" lon="5.45282">
        <ele>563.1</ele>
        <time>2021-09-06T08:58:05Z</time>
      </trkpt>
      <trkpt lat="44.60586" lon="5.45284">
        <ele>563.4</ele>
        <time>2021-09-06T08:58:06Z</time>
      </trkpt>
      <trkpt lat="44.60585" lon="5.45285">
        <ele>563.5</ele>
        <time>2021-09-06T08:58:08Z</time>
      </trkpt>
      <trkpt lat="44.60583" lon="5.45286">
        <ele>563.6</ele>
        <time>2021-09-06T08:58:09Z</time>
      </trkpt>
      <trkpt lat="44.60582" lon="5.45286">
        <ele>563.8</ele>
        <time>2021-09-06T08:58:10Z</time>
      </trkpt>
      <trkpt lat="44.60581" lon="5.45287">
        <ele>563.9</ele>
        <time>2021-09-06T08:58:11Z</time>
      </trkpt>
      <trkpt lat="44.60578" lon="5.45289">
        <ele>564.5</ele>
        <time>2021-09-06T08:58:13Z</time>
      </trkpt>
      <trkpt lat="44.60575" lon="5.45291">
        <ele>564.9</ele>
        <time>2021-09-06T08:58:14Z</time>
      </trkpt>
      <trkpt lat="44.60572" lon="5.45292">
        <ele>565.4</ele>
        <time>2021-09-06T08:58:16Z</time>
      </trkpt>
      <trkpt lat="44.6057" lon="5.45294">
        <ele>565.9</ele>
        <time>2021-09-06T08:58:17Z</time>
      </trkpt>
      <trkpt lat="44.60567" lon="5.45299">
        <ele>566.6</ele>
        <time>2021-09-06T08:58:19Z</time>
      </trkpt>
      <trkpt lat="44.60566" lon="5.45299">
        <ele>566.7</ele>
        <time>2021-09-06T08:58:20Z</time>
      </trkpt>
      <trkpt lat="44.60566" lon="5.45299">
        <ele>566.8</ele>
        <time>2021-09-06T08:58:21Z</time>
      </trkpt>
      <trkpt lat="44.60566" lon="5.45299">
        <ele>566.8</ele>
        <time>2021-09-06T08:58:22Z</time>
      </trkpt>
      <trkpt lat="44.60566" lon="5.45299">
        <ele>566.9</ele>
        <time>2021-09-06T08:58:24Z</time>
      </trkpt>
      <trkpt lat="44.60566" lon="5.45298">
        <ele>566.9</ele>
        <time>2021-09-06T08:58:25Z</time>
      </trkpt>
      <trkpt lat="44.60566" lon="5.45298">
        <ele>566.9</ele>
        <time>2021-09-06T08:58:27Z</time>
      </trkpt>
      <trkpt lat="44.60492" lon="5.45296">
        <ele>574.7</ele>
        <time>2021-09-06T09:01:49Z</time>
      </trkpt>
      <trkpt lat="44.60489" lon="5.45297">
        <ele>574.9</ele>
        <time>2021-09-06T09:01:50Z</time>
      </trkpt>
      <trkpt lat="44.60486" lon="5.453">
        <ele>575.1</ele>
        <time>2021-09-06T09:01:51Z</time>
      </trkpt>
      <trkpt lat="44.60484" lon="5.45303">
        <ele>575.4</ele>
        <time>2021-09-06T09:01:53Z</time>
      </trkpt>
      <trkpt lat="44.60481" lon="5.45307">
        <ele>575.6</ele>
        <time>2021-09-06T09:01:54Z</time>
      </trkpt>
      <trkpt lat="44.60479" lon="5.4531">
        <ele>575.9</ele>
        <time>2021-09-06T09:01:56Z</time>
      </trkpt>
      <trkpt lat="44.60474" lon="5.4532">
        <ele>576.5</ele>
        <time>2021-09-06T09:01:58Z</time>
      </trkpt>
      <trkpt lat="44.60472" lon="5.45324">
        <ele>576.7</ele>
        <time>2021-09-06T09:01:59Z</time>
      </trkpt>
      <trkpt lat="44.60469" lon="5.45331">
        <ele>577</ele>
        <time>2021-09-06T09:02:01Z</time>
      </trkpt>
      <trkpt lat="44.60467" lon="5.45339">
        <ele>577.4</ele>
        <time>2021-09-06T09:02:05Z</time>
      </trkpt>
      <trkpt lat="44.60466" lon="5.45341">
        <ele>577.4</ele>
        <time>2021-09-06T09:02:06Z</time>
      </trkpt>
      <trkpt lat="44.60461" lon="5.45352">
        <ele>577.6</ele>
        <time>2021-09-06T09:02:08Z</time>
      </trkpt>
      <trkpt lat="44.6045" lon="5.4537">
        <ele>577.5</ele>
        <time>2021-09-06T09:02:09Z</time>
      </trkpt>
      <trkpt lat="44.60446" lon="5.45376">
        <ele>577.5</ele>
        <time>2021-09-06T09:02:10Z</time>
      </trkpt>
      <trkpt lat="44.60442" lon="5.45382">
        <ele>577.5</ele>
        <time>2021-09-06T09:02:12Z</time>
      </trkpt>
      <trkpt lat="44.60423" lon="5.45396">
        <ele>577.5</ele>
        <time>2021-09-06T09:02:21Z</time>
      </trkpt>
      <trkpt lat="44.60415" lon="5.45402">
        <ele>577.4</ele>
        <time>2021-09-06T09:02:22Z</time>
      </trkpt>
      <trkpt lat="44.60411" lon="5.45405">
        <ele>577.4</ele>
        <time>2021-09-06T09:02:23Z</time>
      </trkpt>
      <trkpt lat="44.60408" lon="5.45409">
        <ele>577.3</ele>
        <time>2021-09-06T09:02:25Z</time>
      </trkpt>
      <trkpt lat="44.60405" lon="5.45411">
        <ele>577.3</ele>
        <time>2021-09-06T09:02:26Z</time>
      </trkpt>
      <trkpt lat="44.60403" lon="5.45413">
        <ele>577.3</ele>
        <time>2021-09-06T09:02:28Z</time>
      </trkpt>
      <trkpt lat="44.60402" lon="5.45413">
        <ele>577.3</ele>
        <time>2021-09-06T09:02:29Z</time>
      </trkpt>
      <trkpt lat="44.60402" lon="5.45414">
        <ele>577.3</ele>
        <time>2021-09-06T09:02:30Z</time>
      </trkpt>
      <trkpt lat="44.604" lon="5.45414">
        <ele>577.3</ele>
        <time>2021-09-06T09:02:32Z</time>
      </trkpt>
      <trkpt lat="44.60383" lon="5.45432">
        <ele>577.2</ele>
        <time>2021-09-06T09:02:44Z</time>
      </trkpt>
      <trkpt lat="44.6038" lon="5.45439">
        <ele>577.1</ele>
        <time>2021-09-06T09:02:46Z</time>
      </trkpt>
      <trkpt lat="44.60379" lon="5.45443">
        <ele>577</ele>
        <time>2021-09-06T09:02:47Z</time>
      </trkpt>
      <trkpt lat="44.6038" lon="5.45444">
        <ele>577</ele>
        <time>2021-09-06T09:02:48Z</time>
      </trkpt>
      <trkpt lat="44.60382" lon="5.45458">
        <ele>576.5</ele>
        <time>2021-09-06T09:02:50Z</time>
      </trkpt>
      <trkpt lat="44.60383" lon="5.4546">
        <ele>576.5</ele>
        <time>2021-09-06T09:02:51Z</time>
      </trkpt>
      <trkpt lat="44.60384" lon="5.45462">
        <ele>576.3</ele>
        <time>2021-09-06T09:02:53Z</time>
      </trkpt>
      <trkpt lat="44.60384" lon="5.45463">
        <ele>576.3</ele>
        <time>2021-09-06T09:02:55Z</time>
      </trkpt>
      <trkpt lat="44.60384" lon="5.45463">
        <ele>576.3</ele>
        <time>2021-09-06T09:02:56Z</time>
      </trkpt>
      <trkpt lat="44.60227" lon="5.45617">
        <ele>623.4</ele>
        <time>2021-09-06T09:13:50Z</time>
      </trkpt>
      <trkpt lat="44.60227" lon="5.45626">
        <ele>623.1</ele>
        <time>2021-09-06T09:13:52Z</time>
      </trkpt>
      <trkpt lat="44.60227" lon="5.4563">
        <ele>623</ele>
        <time>2021-09-06T09:13:53Z</time>
      </trkpt>
      <trkpt lat="44.60227" lon="5.45631">
        <ele>623</ele>
        <time>2021-09-06T09:13:54Z</time>
      </trkpt>
      <trkpt lat="44.60227" lon="5.45633">
        <ele>622.9</ele>
        <time>2021-09-06T09:13:56Z</time>
      </trkpt>
      <trkpt lat="44.60227" lon="5.45635">
        <ele>622.8</ele>
        <time>2021-09-06T09:13:57Z</time>
      </trkpt>
      <trkpt lat="44.60225" lon="5.45636">
        <ele>622.8</ele>
        <time>2021-09-06T09:13:59Z</time>
      </trkpt>
      <trkpt lat="44.60223" lon="5.45637">
        <ele>622.7</ele>
        <time>2021-09-06T09:14:01Z</time>
      </trkpt>
      <trkpt lat="44.60223" lon="5.45637">
        <ele>622.7</ele>
        <time>2021-09-06T09:14:02Z</time>
      </trkpt>
      <trkpt lat="44.60223" lon="5.45637">
        <ele>622.6</ele>
        <time>2021-09-06T09:14:04Z</time>
      </trkpt>
      <trkpt lat="44.60223" lon="5.45637">
        <ele>622.6</ele>
        <time>2021-09-06T09:14:06Z</time>
      </trkpt>
      <trkpt lat="44.60223" lon="5.45637">
        <ele>622.6</ele>
        <time>2021-09-06T09:14:08Z</time>
      </trkpt>
      <trkpt lat="44.60223" lon="5.45637">
        <ele>622.6</ele>
        <time>2021-09-06T09:14:09Z</time>
      </trkpt>
      <trkpt lat="44.60223" lon="5.45637">
        <ele>622.6</ele>
        <time>2021-09-06T09:14:10Z</time>
      </trkpt>
      <trkpt lat="44.60224" lon="5.45637">
        <ele>622.6</ele>
        <time>2021-09-06T09:14:12Z</time>
      </trkpt>
      <trkpt lat="44.60224" lon="5.45637">
        <ele>622.6</ele>
        <time>2021-09-06T09:14:14Z</time>
      </trkpt>
      <trkpt lat="44.60224" lon="5.45637">
        <ele>622.6</ele>
        <time>2021-09-06T09:14:16Z</time>
      </trkpt>
      <trkpt lat="44.60224" lon="5.45637">
        <ele>622.6</ele>
        <time>2021-09-06T09:14:17Z</time>
      </trkpt>
      <trkpt lat="44.60224" lon="5.45638">
        <ele>622.5</ele>
        <time>2021-09-06T09:14:18Z</time>
      </trkpt>
      <trkpt lat="44.60225" lon="5.45638">
        <ele>622.5</ele>
        <time>2021-09-06T09:14:20Z</time>
      </trkpt>
      <trkpt lat="44.60225" lon="5.45638">
        <ele>622.5</ele>
        <time>2021-09-06T09:14:21Z</time>
      </trkpt>
      <trkpt lat="44.60225" lon="5.45638">
        <ele>622.5</ele>
        <time>2021-09-06T09:14:22Z</time>
      </trkpt>
      <trkpt lat="44.60225" lon="5.45637">
        <ele>622.5</ele>
        <time>2021-09-06T09:14:23Z</time>
      </trkpt>
      <trkpt lat="44.60224" lon="5.45634">
        <ele>622.4</ele>
        <time>2021-09-06T09:14:24Z</time>
      </trkpt>
      <trkpt lat="44.60224" lon="5.4563">
        <ele>622.3</ele>
        <time>2021-09-06T09:14:25Z</time>
      </trkpt>
      <trkpt lat="44.60223" lon="5.45627">
        <ele>622.1</ele>
        <time>2021-09-06T09:14:27Z</time>
      </trkpt>
      <trkpt lat="44.60223" lon="5.45625">
        <ele>622.1</ele>
        <time>2021-09-06T09:14:28Z</time>
      </trkpt>
      <trkpt lat="44.60223" lon="5.45624">
        <ele>622</ele>
        <time>2021-09-06T09:14:29Z</time>
      </trkpt>
      <trkpt lat="44.60224" lon="5.45615">
        <ele>623.7</ele>
        <time>2021-09-06T09:14:31Z</time>
      </trkpt>
      <trkpt lat="44.60225" lon="5.45605">
        <ele>624.1</ele>
        <time>2021-09-06T09:14:33Z</time>
      </trkpt>
      <trkpt lat="44.60226" lon="5.45599">
        <ele>624.3</ele>
        <time>2021-09-06T09:14:34Z</time>
      </trkpt>
      <trkpt lat="44.60227" lon="5.45595">
        <ele>623.2</ele>
        <time>2021-09-06T09:14:36Z</time>
      </trkpt>
      <trkpt lat="44.60228" lon="5.45592">
        <ele>623.3</ele>
        <time>2021-09-06T09:14:38Z</time>
      </trkpt>
      <trkpt lat="44.60229" lon="5.4559">
        <ele>625.9</ele>
        <time>2021-09-06T09:14:40Z</time>
      </trkpt>
      <trkpt lat="44.60229" lon="5.45589">
        <ele>625.9</ele>
        <time>2021-09-06T09:14:42Z</time>
      </trkpt>
      <trkpt lat="44.6023" lon="5.45589">
        <ele>622.6</ele>
        <time>2021-09-06T09:14:44Z</time>
      </trkpt>
      <trkpt lat="44.60228" lon="5.45588">
        <ele>626</ele>
        <time>2021-09-06T09:14:45Z</time>
      </trkpt>
      <trkpt lat="44.60228" lon="5.45587">
        <ele>628.8</ele>
        <time>2021-09-06T09:14:46Z</time>
      </trkpt>
      <trkpt lat="44.60228" lon="5.45587">
        <ele>628.8</ele>
        <time>2021-09-06T09:14:47Z</time>
      </trkpt>
      <trkpt lat="44.60227" lon="5.45586">
        <ele>628.9</ele>
        <time>2021-09-06T09:14:48Z</time>
      </trkpt>
      <trkpt lat="44.60226" lon="5.45585">
        <ele>632.4</ele>
        <time>2021-09-06T09:14:50Z</time>
      </trkpt>
      <trkpt lat="44.60225" lon="5.45585">
        <ele>632.5</ele>
        <time>2021-09-06T09:14:51Z</time>
      </trkpt>
      <trkpt lat="44.60225" lon="5.45585">
        <ele>632.5</ele>
        <time>2021-09-06T09:14:52Z</time>
      </trkpt>
      <trkpt lat="44.60224" lon="5.45585">
        <ele>632.6</ele>
        <time>2021-09-06T09:14:53Z</time>
      </trkpt>
      <trkpt lat="44.60223" lon="5.45585">
        <ele>632.6</ele>
        <time>2021-09-06T09:14:54Z</time>
      </trkpt>
      <trkpt lat="44.60204" lon="5.45595">
        <ele>650.4</ele>
        <time>2021-09-06T09:14:56Z</time>
      </trkpt>
      <trkpt lat="44.60195" lon="5.45603">
        <ele>654.4</ele>
        <time>2021-09-06T09:14:57Z</time>
      </trkpt>
      <trkpt lat="44.60192" lon="5.45608">
        <ele>654.8</ele>
        <time>2021-09-06T09:14:58Z</time>
      </trkpt>
      <trkpt lat="44.6019" lon="5.45616">
        <ele>652.8</ele>
        <time>2021-09-06T09:15:00Z</time>
      </trkpt>
      <trkpt lat="44.60187" lon="5.4562">
        <ele>650.9</ele>
        <time>2021-09-06T09:15:01Z</time>
      </trkpt>
      <trkpt lat="44.60184" lon="5.45624">
        <ele>651.2</ele>
        <time>2021-09-06T09:15:02Z</time>
      </trkpt>
      <trkpt lat="44.60182" lon="5.45628">
        <ele>651.5</ele>
        <time>2021-09-06T09:15:03Z</time>
      </trkpt>
      <trkpt lat="44.60181" lon="5.45629">
        <ele>651.6</ele>
        <time>2021-09-06T09:15:04Z</time>
      </trkpt>
      <trkpt lat="44.6018" lon="5.4563">
        <ele>651.8</ele>
        <time>2021-09-06T09:15:05Z</time>
      </trkpt>
      <trkpt lat="44.60179" lon="5.45634">
        <ele>651.9</ele>
        <time>2021-09-06T09:15:07Z</time>
      </trkpt>
      <trkpt lat="44.60178" lon="5.45636">
        <ele>650.4</ele>
        <time>2021-09-06T09:15:08Z</time>
      </trkpt>
      <trkpt lat="44.60177" lon="5.45637">
        <ele>652.3</ele>
        <time>2021-09-06T09:15:10Z</time>
      </trkpt>
      <trkpt lat="44.60177" lon="5.45638">
        <ele>652.4</ele>
        <time>2021-09-06T09:15:10Z</time>
      </trkpt>
      <trkpt lat="44.60177" lon="5.45639">
        <ele>650.8</ele>
        <time>2021-09-06T09:15:11Z</time>
      </trkpt>
      <trkpt lat="44.60175" lon="5.4564">
        <ele>650.9</ele>
        <time>2021-09-06T09:15:13Z</time>
      </trkpt>
      <trkpt lat="44.60175" lon="5.4564">
        <ele>651</ele>
        <time>2021-09-06T09:15:14Z</time>
      </trkpt>
      <trkpt lat="44.60175" lon="5.4564">
        <ele>651.1</ele>
        <time>2021-09-06T09:15:16Z</time>
      </trkpt>
      <trkpt lat="44.60175" lon="5.4564">
        <ele>651.2</ele>
        <time>2021-09-06T09:15:17Z</time>
      </trkpt>
      <trkpt lat="44.60175" lon="5.4564">
        <ele>651.3</ele>
        <time>2021-09-06T09:15:19Z</time>
      </trkpt>
      <trkpt lat="44.60175" lon="5.45641">
        <ele>651.4</ele>
        <time>2021-09-06T09:15:20Z</time>
      </trkpt>
      <trkpt lat="44.60175" lon="5.45641">
        <ele>651.5</ele>
        <time>2021-09-06T09:15:22Z</time>
      </trkpt>
      <trkpt lat="44.60175" lon="5.45641">
        <ele>651.6</ele>
        <time>2021-09-06T09:15:23Z</time>
      </trkpt>
      <trkpt lat="44.60176" lon="5.45642">
        <ele>651.7</ele>
        <time>2021-09-06T09:15:25Z</time>
      </trkpt>
      <trkpt lat="44.60177" lon="5.45642">
        <ele>650</ele>
        <time>2021-09-06T09:15:26Z</time>
      </trkpt>
      <trkpt lat="44.6019" lon="5.4565">
        <ele>639.5</ele>
        <time>2021-09-06T09:15:27Z</time>
      </trkpt>
      <trkpt lat="44.60202" lon="5.45657">
        <ele>630.6</ele>
        <time>2021-09-06T09:15:29Z</time>
      </trkpt>
      <trkpt lat="44.60204" lon="5.45659">
        <ele>628.5</ele>
        <time>2021-09-06T09:15:30Z</time>
      </trkpt>
      <trkpt lat="44.60207" lon="5.45661">
        <ele>626</ele>
        <time>2021-09-06T09:15:32Z</time>
      </trkpt>
      <trkpt lat="44.60207" lon="5.45662">
        <ele>626.2</ele>
        <time>2021-09-06T09:15:34Z</time>
      </trkpt>
      <trkpt lat="44.60208" lon="5.45663">
        <ele>626.3</ele>
        <time>2021-09-06T09:15:36Z</time>
      </trkpt>
      <trkpt lat="44.60208" lon="5.45664">
        <ele>624.2</ele>
        <time>2021-09-06T09:15:38Z</time>
      </trkpt>
      <trkpt lat="44.60209" lon="5.45665">
        <ele>624</ele>
        <time>2021-09-06T09:15:40Z</time>
      </trkpt>
      <trkpt lat="44.60209" lon="5.45666">
        <ele>624.2</ele>
        <time>2021-09-06T09:15:41Z</time>
      </trkpt>
      <trkpt lat="44.60209" lon="5.45666">
        <ele>624.3</ele>
        <time>2021-09-06T09:15:42Z</time>
      </trkpt>
      <trkpt lat="44.60211" lon="5.45669">
        <ele>624.2</ele>
        <time>2021-09-06T09:15:44Z</time>
      </trkpt>
      <trkpt lat="44.60212" lon="5.4567">
        <ele>622.1</ele>
        <time>2021-09-06T09:15:45Z</time>
      </trkpt>
      <trkpt lat="44.60215" lon="5.45674">
        <ele>619.8</ele>
        <time>2021-09-06T09:15:46Z</time>
      </trkpt>
      <trkpt lat="44.60218" lon="5.45676">
        <ele>617.3</ele>
        <time>2021-09-06T09:15:47Z</time>
      </trkpt>
      <trkpt lat="44.60224" lon="5.4568">
        <ele>612.3</ele>
        <time>2021-09-06T09:15:49Z</time>
      </trkpt>
      <trkpt lat="44.60227" lon="5.45681">
        <ele>610.1</ele>
        <time>2021-09-06T09:15:50Z</time>
      </trkpt>
      <trkpt lat="44.6023" lon="5.45687">
        <ele>609.1</ele>
        <time>2021-09-06T09:15:52Z</time>
      </trkpt>
      <trkpt lat="44.60231" lon="5.45688">
        <ele>609.3</ele>
        <time>2021-09-06T09:15:54Z</time>
      </trkpt>
      <trkpt lat="44.60232" lon="5.45689">
        <ele>609.5</ele>
        <time>2021-09-06T09:15:55Z</time>
      </trkpt>
      <trkpt lat="44.60232" lon="5.45689">
        <ele>609.7</ele>
        <time>2021-09-06T09:15:57Z</time>
      </trkpt>
      <trkpt lat="44.60232" lon="5.4569">
        <ele>609.8</ele>
        <time>2021-09-06T09:15:59Z</time>
      </trkpt>
      <trkpt lat="44.60223" lon="5.45671">
        <ele>615.8</ele>
        <time>2021-09-06T09:17:09Z</time>
      </trkpt>
      <trkpt lat="44.60221" lon="5.45667">
        <ele>615.9</ele>
        <time>2021-09-06T09:17:10Z</time>
      </trkpt>
      <trkpt lat="44.60221" lon="5.45663">
        <ele>616.3</ele>
        <time>2021-09-06T09:17:12Z</time>
      </trkpt>
      <trkpt lat="44.6022" lon="5.45661">
        <ele>616.4</ele>
        <time>2021-09-06T09:17:13Z</time>
      </trkpt>
      <trkpt lat="44.6022" lon="5.45659">
        <ele>619.7</ele>
        <time>2021-09-06T09:17:14Z</time>
      </trkpt>
      <trkpt lat="44.60221" lon="5.45657">
        <ele>617</ele>
        <time>2021-09-06T09:17:16Z</time>
      </trkpt>
      <trkpt lat="44.60222" lon="5.45655">
        <ele>617.5</ele>
        <time>2021-09-06T09:17:18Z</time>
      </trkpt>
      <trkpt lat="44.60222" lon="5.45655">
        <ele>617.7</ele>
        <time>2021-09-06T09:17:19Z</time>
      </trkpt>
      <trkpt lat="44.60222" lon="5.45654">
        <ele>617.8</ele>
        <time>2021-09-06T09:17:20Z</time>
      </trkpt>
      <trkpt lat="44.60223" lon="5.45654">
        <ele>618</ele>
        <time>2021-09-06T09:17:22Z</time>
      </trkpt>
      <trkpt lat="44.60224" lon="5.45651">
        <ele>615.6</ele>
        <time>2021-09-06T09:17:23Z</time>
      </trkpt>
      <trkpt lat="44.60225" lon="5.45648">
        <ele>615.7</ele>
        <time>2021-09-06T09:17:25Z</time>
      </trkpt>
      <trkpt lat="44.60225" lon="5.45644">
        <ele>616.2</ele>
        <time>2021-09-06T09:17:27Z</time>
      </trkpt>
      <trkpt lat="44.60222" lon="5.45642">
        <ele>619.9</ele>
        <time>2021-09-06T09:17:29Z</time>
      </trkpt>
      <trkpt lat="44.60221" lon="5.45643">
        <ele>620</ele>
        <time>2021-09-06T09:17:30Z</time>
      </trkpt>
      <trkpt lat="44.6022" lon="5.45646">
        <ele>622.6</ele>
        <time>2021-09-06T09:17:31Z</time>
      </trkpt>
      <trkpt lat="44.60216" lon="5.45643">
        <ele>626.4</ele>
        <time>2021-09-06T09:17:35Z</time>
      </trkpt>
      <trkpt lat="44.60211" lon="5.45644">
        <ele>628.4</ele>
        <time>2021-09-06T09:17:39Z</time>
      </trkpt>
      <trkpt lat="44.60211" lon="5.45648">
        <ele>627.8</ele>
        <time>2021-09-06T09:17:40Z</time>
      </trkpt>
      <trkpt lat="44.60213" lon="5.45654">
        <ele>627.3</ele>
        <time>2021-09-06T09:17:42Z</time>
      </trkpt>
      <trkpt lat="44.60215" lon="5.45658">
        <ele>624.4</ele>
        <time>2021-09-06T09:17:43Z</time>
      </trkpt>
      <trkpt lat="44.60217" lon="5.45662">
        <ele>624.2</ele>
        <time>2021-09-06T09:17:45Z</time>
      </trkpt>
      <trkpt lat="44.60219" lon="5.45667">
        <ele>621.4</ele>
        <time>2021-09-06T09:17:46Z</time>
      </trkpt>
      <trkpt lat="44.60221" lon="5.45671">
        <ele>618.6</ele>
        <time>2021-09-06T09:17:47Z</time>
      </trkpt>
      <trkpt lat="44.6028" lon="5.45762">
        <ele>596.2</ele>
        <time>2021-09-06T09:17:49Z</time>
      </trkpt>
      <trkpt lat="44.60284" lon="5.45768">
        <ele>595.5</ele>
        <time>2021-09-06T09:17:50Z</time>
      </trkpt>
      <trkpt lat="44.60273" lon="5.45769">
        <ele>598.5</ele>
        <time>2021-09-06T09:17:52Z</time>
      </trkpt>
      <trkpt lat="44.60264" lon="5.45767">
        <ele>601.1</ele>
        <time>2021-09-06T09:17:53Z</time>
      </trkpt>
      <trkpt lat="44.60254" lon="5.45765">
        <ele>602.6</ele>
        <time>2021-09-06T09:17:54Z</time>
      </trkpt>
      <trkpt lat="44.60245" lon="5.45763">
        <ele>603.8</ele>
        <time>2021-09-06T09:17:55Z</time>
      </trkpt>
      <trkpt lat="44.60239" lon="5.45761">
        <ele>605.1</ele>
        <time>2021-09-06T09:17:56Z</time>
      </trkpt>
      <trkpt lat="44.60216" lon="5.45798">
        <ele>610.1</ele>
        <time>2021-09-06T09:26:16Z</time>
      </trkpt>
      <trkpt lat="44.60208" lon="5.45794">
        <ele>613.2</ele>
        <time>2021-09-06T09:26:18Z</time>
      </trkpt>
      <trkpt lat="44.60203" lon="5.45792">
        <ele>614.8</ele>
        <time>2021-09-06T09:26:20Z</time>
      </trkpt>
      <trkpt lat="44.60195" lon="5.45789">
        <ele>619</ele>
        <time>2021-09-06T09:26:22Z</time>
      </trkpt>
      <trkpt lat="44.60194" lon="5.45788">
        <ele>619.1</ele>
        <time>2021-09-06T09:26:23Z</time>
      </trkpt>
      <trkpt lat="44.60195" lon="5.45788">
        <ele>619.2</ele>
        <time>2021-09-06T09:26:25Z</time>
      </trkpt>
      <trkpt lat="44.60196" lon="5.45789">
        <ele>617.3</ele>
        <time>2021-09-06T09:26:27Z</time>
      </trkpt>
      <trkpt lat="44.60197" lon="5.4579">
        <ele>617.4</ele>
        <time>2021-09-06T09:26:28Z</time>
      </trkpt>
      <trkpt lat="44.60206" lon="5.45803">
        <ele>612.6</ele>
        <time>2021-09-06T09:36:25Z</time>
      </trkpt>
      <trkpt lat="44.60199" lon="5.45796">
        <ele>616.8</ele>
        <time>2021-09-06T09:36:58Z</time>
      </trkpt>
      <trkpt lat="44.60199" lon="5.45796">
        <ele>616.9</ele>
        <time>2021-09-06T09:36:59Z</time>
      </trkpt>
      <trkpt lat="44.60199" lon="5.45796">
        <ele>617</ele>
        <time>2021-09-06T09:37:00Z</time>
      </trkpt>
      <trkpt lat="44.60199" lon="5.45796">
        <ele>617.1</ele>
        <time>2021-09-06T09:37:02Z</time>
      </trkpt>
      <trkpt lat="44.60199" lon="5.45796">
        <ele>617.2</ele>
        <time>2021-09-06T09:37:03Z</time>
      </trkpt>
      <trkpt lat="44.60199" lon="5.45796">
        <ele>617.3</ele>
        <time>2021-09-06T09:37:04Z</time>
      </trkpt>
      <trkpt lat="44.60199" lon="5.45796">
        <ele>617.4</ele>
        <time>2021-09-06T09:37:06Z</time>
      </trkpt>
      <trkpt lat="44.60164" lon="5.4584">
        <ele>614.4</ele>
        <time>2021-09-06T09:47:33Z</time>
      </trkpt>
      <trkpt lat="44.60163" lon="5.45841">
        <ele>613.2</ele>
        <time>2021-09-06T09:47:34Z</time>
      </trkpt>
      <trkpt lat="44.60163" lon="5.45841">
        <ele>613.3</ele>
        <time>2021-09-06T09:47:35Z</time>
      </trkpt>
      <trkpt lat="44.60163" lon="5.45841">
        <ele>613.4</ele>
        <time>2021-09-06T09:47:37Z</time>
      </trkpt>
      <trkpt lat="44.60163" lon="5.45842">
        <ele>613.5</ele>
        <time>2021-09-06T09:47:38Z</time>
      </trkpt>
      <trkpt lat="44.60163" lon="5.45842">
        <ele>613.6</ele>
        <time>2021-09-06T09:47:39Z</time>
      </trkpt>
      <trkpt lat="44.60163" lon="5.45842">
        <ele>613.7</ele>
        <time>2021-09-06T09:47:40Z</time>
      </trkpt>
      <trkpt lat="44.60163" lon="5.45842">
        <ele>613.8</ele>
        <time>2021-09-06T09:47:42Z</time>
      </trkpt>
      <trkpt lat="44.60163" lon="5.45842">
        <ele>613.9</ele>
        <time>2021-09-06T09:47:43Z</time>
      </trkpt>
      <trkpt lat="44.60163" lon="5.45843">
        <ele>614.1</ele>
        <time>2021-09-06T09:47:44Z</time>
      </trkpt>
      <trkpt lat="44.60163" lon="5.45842">
        <ele>614.2</ele>
        <time>2021-09-06T09:47:46Z</time>
      </trkpt>
      <trkpt lat="44.60162" lon="5.4584">
        <ele>615.7</ele>
        <time>2021-09-06T09:47:48Z</time>
      </trkpt>
      <trkpt lat="44.60161" lon="5.45838">
        <ele>615.8</ele>
        <time>2021-09-06T09:47:49Z</time>
      </trkpt>
      <trkpt lat="44.6016" lon="5.45837">
        <ele>615.9</ele>
        <time>2021-09-06T09:47:51Z</time>
      </trkpt>
      <trkpt lat="44.60159" lon="5.45836">
        <ele>616</ele>
        <time>2021-09-06T09:47:52Z</time>
      </trkpt>
      <trkpt lat="44.60159" lon="5.45835">
        <ele>617.7</ele>
        <time>2021-09-06T09:47:54Z</time>
      </trkpt>
      <trkpt lat="44.60158" lon="5.45834">
        <ele>617.8</ele>
        <time>2021-09-06T09:47:56Z</time>
      </trkpt>
      <trkpt lat="44.60158" lon="5.45833">
        <ele>617.9</ele>
        <time>2021-09-06T09:47:57Z</time>
      </trkpt>
      <trkpt lat="44.60157" lon="5.45833">
        <ele>618</ele>
        <time>2021-09-06T09:47:58Z</time>
      </trkpt>
      <trkpt lat="44.60156" lon="5.45832">
        <ele>618.1</ele>
        <time>2021-09-06T09:47:59Z</time>
      </trkpt>
      <trkpt lat="44.60156" lon="5.45831">
        <ele>619.7</ele>
        <time>2021-09-06T09:48:01Z</time>
      </trkpt>
      <trkpt lat="44.60156" lon="5.45831">
        <ele>619.8</ele>
        <time>2021-09-06T09:48:02Z</time>
      </trkpt>
      <trkpt lat="44.60155" lon="5.45831">
        <ele>619.9</ele>
        <time>2021-09-06T09:48:04Z</time>
      </trkpt>
      <trkpt lat="44.60155" lon="5.45831">
        <ele>620</ele>
        <time>2021-09-06T09:48:05Z</time>
      </trkpt>
      <trkpt lat="44.60155" lon="5.4583">
        <ele>620.1</ele>
        <time>2021-09-06T09:48:06Z</time>
      </trkpt>
      <trkpt lat="44.60155" lon="5.4583">
        <ele>620.2</ele>
        <time>2021-09-06T09:48:08Z</time>
      </trkpt>
      <trkpt lat="44.60155" lon="5.4583">
        <ele>620.3</ele>
        <time>2021-09-06T09:48:10Z</time>
      </trkpt>
      <trkpt lat="44.60155" lon="5.4583">
        <ele>620.4</ele>
        <time>2021-09-06T09:48:11Z</time>
      </trkpt>
      <trkpt lat="44.60155" lon="5.4583">
        <ele>620.5</ele>
        <time>2021-09-06T09:48:12Z</time>
      </trkpt>
      <trkpt lat="44.60157" lon="5.4583">
        <ele>620.5</ele>
        <time>2021-09-06T09:48:14Z</time>
      </trkpt>
      <trkpt lat="44.60158" lon="5.4583">
        <ele>620.6</ele>
        <time>2021-09-06T09:48:15Z</time>
      </trkpt>
      <trkpt lat="44.60159" lon="5.45831">
        <ele>620.5</ele>
        <time>2021-09-06T09:48:16Z</time>
      </trkpt>
      <trkpt lat="44.6016" lon="5.45831">
        <ele>620.6</ele>
        <time>2021-09-06T09:48:17Z</time>
      </trkpt>
      <trkpt lat="44.60162" lon="5.45831">
        <ele>620.7</ele>
        <time>2021-09-06T09:48:19Z</time>
      </trkpt>
      <trkpt lat="44.60163" lon="5.45831">
        <ele>620.5</ele>
        <time>2021-09-06T09:48:20Z</time>
      </trkpt>
      <trkpt lat="44.60165" lon="5.4583">
        <ele>620.6</ele>
        <time>2021-09-06T09:48:22Z</time>
      </trkpt>
      <trkpt lat="44.60166" lon="5.45829">
        <ele>620.4</ele>
        <time>2021-09-06T09:48:23Z</time>
      </trkpt>
      <trkpt lat="44.60166" lon="5.45829">
        <ele>620.5</ele>
        <time>2021-09-06T09:48:24Z</time>
      </trkpt>
      <trkpt lat="44.60167" lon="5.45828">
        <ele>620.6</ele>
        <time>2021-09-06T09:48:26Z</time>
      </trkpt>
      <trkpt lat="44.60167" lon="5.45828">
        <ele>620.7</ele>
        <time>2021-09-06T09:48:27Z</time>
      </trkpt>
      <trkpt lat="44.60168" lon="5.45828">
        <ele>620.8</ele>
        <time>2021-09-06T09:48:29Z</time>
      </trkpt>
      <trkpt lat="44.60168" lon="5.45828">
        <ele>620.9</ele>
        <time>2021-09-06T09:48:31Z</time>
      </trkpt>
      <trkpt lat="44.60168" lon="5.45828">
        <ele>620.6</ele>
        <time>2021-09-06T09:48:33Z</time>
      </trkpt>
      <trkpt lat="44.60169" lon="5.45828">
        <ele>620.7</ele>
        <time>2021-09-06T09:48:34Z</time>
      </trkpt>
      <trkpt lat="44.60169" lon="5.45828">
        <ele>620.8</ele>
        <time>2021-09-06T09:48:35Z</time>
      </trkpt>
      <trkpt lat="44.6017" lon="5.45829">
        <ele>620.9</ele>
        <time>2021-09-06T09:48:36Z</time>
      </trkpt>
      <trkpt lat="44.60171" lon="5.45829">
        <ele>621</ele>
        <time>2021-09-06T09:48:37Z</time>
      </trkpt>
      <trkpt lat="44.60172" lon="5.4583">
        <ele>620.7</ele>
        <time>2021-09-06T09:48:39Z</time>
      </trkpt>
      <trkpt lat="44.60173" lon="5.4583">
        <ele>620.8</ele>
        <time>2021-09-06T09:48:40Z</time>
      </trkpt>
      <trkpt lat="44.60174" lon="5.4583">
        <ele>620.9</ele>
        <time>2021-09-06T09:48:42Z</time>
      </trkpt>
      <trkpt lat="44.60174" lon="5.4583">
        <ele>621</ele>
        <time>2021-09-06T09:48:43Z</time>
      </trkpt>
      <trkpt lat="44.60175" lon="5.4583">
        <ele>620.7</ele>
        <time>2021-09-06T09:48:44Z</time>
      </trkpt>
      <trkpt lat="44.60175" lon="5.4583">
        <ele>620.8</ele>
        <time>2021-09-06T09:48:46Z</time>
      </trkpt>
      <trkpt lat="44.60175" lon="5.45829">
        <ele>620.6</ele>
        <time>2021-09-06T09:48:47Z</time>
      </trkpt>
      <trkpt lat="44.60175" lon="5.45828">
        <ele>620.5</ele>
        <time>2021-09-06T09:48:48Z</time>
      </trkpt>
      <trkpt lat="44.60176" lon="5.45827">
        <ele>620.2</ele>
        <time>2021-09-06T09:48:50Z</time>
      </trkpt>
      <trkpt lat="44.60176" lon="5.45826">
        <ele>620.1</ele>
        <time>2021-09-06T09:48:51Z</time>
      </trkpt>
      <trkpt lat="44.60176" lon="5.45825">
        <ele>619.8</ele>
        <time>2021-09-06T09:48:52Z</time>
      </trkpt>
      <trkpt lat="44.60178" lon="5.45829">
        <ele>619</ele>
        <time>2021-09-06T09:48:54Z</time>
      </trkpt>
      <trkpt lat="44.6018" lon="5.45835">
        <ele>617.8</ele>
        <time>2021-09-06T09:48:56Z</time>
      </trkpt>
      <trkpt lat="44.60179" lon="5.45834">
        <ele>617.6</ele>
        <time>2021-09-06T09:48:58Z</time>
      </trkpt>
      <trkpt lat="44.6018" lon="5.45836">
        <ele>617.2</ele>
        <time>2021-09-06T09:48:59Z</time>
      </trkpt>
      <trkpt lat="44.60179" lon="5.45835">
        <ele>617</ele>
        <time>2021-09-06T09:49:01Z</time>
      </trkpt>
      <trkpt lat="44.60179" lon="5.45834">
        <ele>617</ele>
        <time>2021-09-06T09:49:02Z</time>
      </trkpt>
      <trkpt lat="44.60178" lon="5.45833">
        <ele>616.6</ele>
        <time>2021-09-06T09:49:04Z</time>
      </trkpt>
      <trkpt lat="44.60177" lon="5.45831">
        <ele>616.2</ele>
        <time>2021-09-06T09:49:05Z</time>
      </trkpt>
      <trkpt lat="44.60176" lon="5.4583">
        <ele>615.7</ele>
        <time>2021-09-06T09:49:06Z</time>
      </trkpt>
      <trkpt lat="44.60175" lon="5.45827">
        <ele>615.3</ele>
        <time>2021-09-06T09:49:07Z</time>
      </trkpt>
      <trkpt lat="44.60174" lon="5.45826">
        <ele>614.9</ele>
        <time>2021-09-06T09:49:09Z</time>
      </trkpt>
      <trkpt lat="44.60174" lon="5.45825">
        <ele>614.7</ele>
        <time>2021-09-06T09:49:10Z</time>
      </trkpt>
      <trkpt lat="44.60173" lon="5.45823">
        <ele>614.4</ele>
        <time>2021-09-06T09:49:11Z</time>
      </trkpt>
      <trkpt lat="44.6017" lon="5.45825">
        <ele>613.5</ele>
        <time>2021-09-06T09:49:12Z</time>
      </trkpt>
      <trkpt lat="44.60169" lon="5.45826">
        <ele>613.1</ele>
        <time>2021-09-06T09:49:13Z</time>
      </trkpt>
      <trkpt lat="44.60168" lon="5.45827">
        <ele>612.7</ele>
        <time>2021-09-06T09:49:15Z</time>
      </trkpt>
      <trkpt lat="44.60168" lon="5.45827">
        <ele>612.6</ele>
        <time>2021-09-06T09:49:16Z</time>
      </trkpt>
      <trkpt lat="44.60167" lon="5.45827">
        <ele>612.5</ele>
        <time>2021-09-06T09:49:17Z</time>
      </trkpt>
      <trkpt lat="44.60167" lon="5.45828">
        <ele>612.2</ele>
        <time>2021-09-06T09:49:18Z</time>
      </trkpt>
      <trkpt lat="44.60165" lon="5.4583">
        <ele>611.7</ele>
        <time>2021-09-06T09:49:20Z</time>
      </trkpt>
      <trkpt lat="44.60158" lon="5.45839">
        <ele>609.1</ele>
        <time>2021-09-06T09:49:21Z</time>
      </trkpt>
      <trkpt lat="44.60154" lon="5.45843">
        <ele>607.9</ele>
        <time>2021-09-06T09:49:22Z</time>
      </trkpt>
      <trkpt lat="44.60151" lon="5.45844">
        <ele>607.1</ele>
        <time>2021-09-06T09:49:24Z</time>
      </trkpt>
      <trkpt lat="44.60148" lon="5.45843">
        <ele>606.4</ele>
        <time>2021-09-06T09:49:26Z</time>
      </trkpt>
      <trkpt lat="44.60147" lon="5.45843">
        <ele>606.1</ele>
        <time>2021-09-06T09:49:27Z</time>
      </trkpt>
      <trkpt lat="44.60145" lon="5.45842">
        <ele>605.7</ele>
        <time>2021-09-06T09:49:29Z</time>
      </trkpt>
      <trkpt lat="44.60144" lon="5.45841">
        <ele>605.2</ele>
        <time>2021-09-06T09:49:30Z</time>
      </trkpt>
      <trkpt lat="44.60142" lon="5.45841">
        <ele>604.9</ele>
        <time>2021-09-06T09:49:31Z</time>
      </trkpt>
      <trkpt lat="44.60141" lon="5.4584">
        <ele>604.5</ele>
        <time>2021-09-06T09:49:32Z</time>
      </trkpt>
      <trkpt lat="44.60139" lon="5.45839">
        <ele>604.2</ele>
        <time>2021-09-06T09:49:33Z</time>
      </trkpt>
      <trkpt lat="44.60138" lon="5.45839">
        <ele>604</ele>
        <time>2021-09-06T09:49:34Z</time>
      </trkpt>
      <trkpt lat="44.60137" lon="5.45838">
        <ele>603.6</ele>
        <time>2021-09-06T09:49:36Z</time>
      </trkpt>
      <trkpt lat="44.60137" lon="5.45838">
        <ele>603.5</ele>
        <time>2021-09-06T09:49:37Z</time>
      </trkpt>
      <trkpt lat="44.60135" lon="5.45838">
        <ele>603</ele>
        <time>2021-09-06T09:49:38Z</time>
      </trkpt>
      <trkpt lat="44.60133" lon="5.45838">
        <ele>602.7</ele>
        <time>2021-09-06T09:49:40Z</time>
      </trkpt>
      <trkpt lat="44.60132" lon="5.45838">
        <ele>602.4</ele>
        <time>2021-09-06T09:49:42Z</time>
      </trkpt>
      <trkpt lat="44.60131" lon="5.45838">
        <ele>602.1</ele>
        <time>2021-09-06T09:49:43Z</time>
      </trkpt>
      <trkpt lat="44.6013" lon="5.45839">
        <ele>601.9</ele>
        <time>2021-09-06T09:49:44Z</time>
      </trkpt>
      <trkpt lat="44.60128" lon="5.45839">
        <ele>601.5</ele>
        <time>2021-09-06T09:49:46Z</time>
      </trkpt>
      <trkpt lat="44.60127" lon="5.4584">
        <ele>601.3</ele>
        <time>2021-09-06T09:49:47Z</time>
      </trkpt>
      <trkpt lat="44.60127" lon="5.4584">
        <ele>601.1</ele>
        <time>2021-09-06T09:49:48Z</time>
      </trkpt>
      <trkpt lat="44.60126" lon="5.45841">
        <ele>600.9</ele>
        <time>2021-09-06T09:49:49Z</time>
      </trkpt>
      <trkpt lat="44.60126" lon="5.45841">
        <ele>600.9</ele>
        <time>2021-09-06T09:49:51Z</time>
      </trkpt>
      <trkpt lat="44.60126" lon="5.45841">
        <ele>600.8</ele>
        <time>2021-09-06T09:49:53Z</time>
      </trkpt>
      <trkpt lat="44.60126" lon="5.45842">
        <ele>600.7</ele>
        <time>2021-09-06T09:49:55Z</time>
      </trkpt>
      <trkpt lat="44.60125" lon="5.45842">
        <ele>600.6</ele>
        <time>2021-09-06T09:49:56Z</time>
      </trkpt>
      <trkpt lat="44.60125" lon="5.45843">
        <ele>600.6</ele>
        <time>2021-09-06T09:49:58Z</time>
      </trkpt>
      <trkpt lat="44.60125" lon="5.45843">
        <ele>600.5</ele>
        <time>2021-09-06T09:49:59Z</time>
      </trkpt>
      <trkpt lat="44.60125" lon="5.45844">
        <ele>600.4</ele>
        <time>2021-09-06T09:50:00Z</time>
      </trkpt>
      <trkpt lat="44.60125" lon="5.45844">
        <ele>600.3</ele>
        <time>2021-09-06T09:50:01Z</time>
      </trkpt>
      <trkpt lat="44.60125" lon="5.45845">
        <ele>600.2</ele>
        <time>2021-09-06T09:50:03Z</time>
      </trkpt>
      <trkpt lat="44.60125" lon="5.45845">
        <ele>600.2</ele>
        <time>2021-09-06T09:50:04Z</time>
      </trkpt>
      <trkpt lat="44.60125" lon="5.45845">
        <ele>600.1</ele>
        <time>2021-09-06T09:50:06Z</time>
      </trkpt>
      <trkpt lat="44.60124" lon="5.45846">
        <ele>600</ele>
        <time>2021-09-06T09:50:08Z</time>
      </trkpt>
      <trkpt lat="44.60124" lon="5.45846">
        <ele>599.9</ele>
        <time>2021-09-06T09:50:09Z</time>
      </trkpt>
      <trkpt lat="44.60124" lon="5.45847">
        <ele>599.9</ele>
        <time>2021-09-06T09:50:11Z</time>
      </trkpt>
      <trkpt lat="44.60124" lon="5.45847">
        <ele>599.8</ele>
        <time>2021-09-06T09:50:12Z</time>
      </trkpt>
      <trkpt lat="44.60124" lon="5.45848">
        <ele>599.7</ele>
        <time>2021-09-06T09:50:13Z</time>
      </trkpt>
      <trkpt lat="44.60124" lon="5.4585">
        <ele>598.7</ele>
        <time>2021-09-06T09:50:15Z</time>
      </trkpt>
      <trkpt lat="44.60125" lon="5.45852">
        <ele>598.7</ele>
        <time>2021-09-06T09:50:16Z</time>
      </trkpt>
      <trkpt lat="44.60126" lon="5.45853">
        <ele>598.7</ele>
        <time>2021-09-06T09:50:18Z</time>
      </trkpt>
      <trkpt lat="44.60127" lon="5.45854">
        <ele>598.8</ele>
        <time>2021-09-06T09:50:19Z</time>
      </trkpt>
      <trkpt lat="44.60127" lon="5.45855">
        <ele>598.8</ele>
        <time>2021-09-06T09:50:20Z</time>
      </trkpt>
      <trkpt lat="44.60128" lon="5.45856">
        <ele>598.8</ele>
        <time>2021-09-06T09:50:21Z</time>
      </trkpt>
      <trkpt lat="44.60128" lon="5.45856">
        <ele>598.8</ele>
        <time>2021-09-06T09:50:22Z</time>
      </trkpt>
      <trkpt lat="44.60128" lon="5.45856">
        <ele>598.8</ele>
        <time>2021-09-06T09:50:24Z</time>
      </trkpt>
      <trkpt lat="44.60128" lon="5.45856">
        <ele>598.8</ele>
        <time>2021-09-06T09:50:25Z</time>
      </trkpt>
      <trkpt lat="44.60128" lon="5.45857">
        <ele>598.8</ele>
        <time>2021-09-06T09:50:27Z</time>
      </trkpt>
      <trkpt lat="44.60129" lon="5.45857">
        <ele>598.8</ele>
        <time>2021-09-06T09:50:28Z</time>
      </trkpt>
      <trkpt lat="44.60129" lon="5.45857">
        <ele>598.8</ele>
        <time>2021-09-06T09:50:29Z</time>
      </trkpt>
      <trkpt lat="44.60131" lon="5.45857">
        <ele>598.8</ele>
        <time>2021-09-06T09:50:31Z</time>
      </trkpt>
      <trkpt lat="44.60132" lon="5.45856">
        <ele>598.8</ele>
        <time>2021-09-06T09:50:33Z</time>
      </trkpt>
      <trkpt lat="44.60132" lon="5.45856">
        <ele>598.8</ele>
        <time>2021-09-06T09:50:34Z</time>
      </trkpt>
      <trkpt lat="44.60132" lon="5.45855">
        <ele>598.8</ele>
        <time>2021-09-06T09:50:36Z</time>
      </trkpt>
      <trkpt lat="44.60132" lon="5.45854">
        <ele>598.8</ele>
        <time>2021-09-06T09:50:37Z</time>
      </trkpt>
      <trkpt lat="44.60131" lon="5.45852">
        <ele>598.8</ele>
        <time>2021-09-06T09:50:39Z</time>
      </trkpt>
      <trkpt lat="44.60131" lon="5.45851">
        <ele>598.8</ele>
        <time>2021-09-06T09:50:40Z</time>
      </trkpt>
      <trkpt lat="44.60131" lon="5.45851">
        <ele>598.8</ele>
        <time>2021-09-06T09:50:42Z</time>
      </trkpt>
      <trkpt lat="44.60131" lon="5.45851">
        <ele>598.8</ele>
        <time>2021-09-06T09:50:43Z</time>
      </trkpt>
      <trkpt lat="44.60131" lon="5.45851">
        <ele>598.8</ele>
        <time>2021-09-06T09:50:44Z</time>
      </trkpt>
      <trkpt lat="44.60131" lon="5.45851">
        <ele>598.8</ele>
        <time>2021-09-06T09:50:46Z</time>
      </trkpt>
      <trkpt lat="44.60131" lon="5.45851">
        <ele>598.8</ele>
        <time>2021-09-06T09:50:48Z</time>
      </trkpt>
      <trkpt lat="44.60131" lon="5.45851">
        <ele>598.8</ele>
        <time>2021-09-06T09:50:49Z</time>
      </trkpt>
      <trkpt lat="44.60131" lon="5.45851">
        <ele>598.8</ele>
        <time>2021-09-06T09:50:50Z</time>
      </trkpt>
      <trkpt lat="44.60131" lon="5.45851">
        <ele>598.8</ele>
        <time>2021-09-06T09:50:52Z</time>
      </trkpt>
      <trkpt lat="44.60131" lon="5.45851">
        <ele>598.8</ele>
        <time>2021-09-06T09:50:53Z</time>
      </trkpt>
      <trkpt lat="44.60131" lon="5.45851">
        <ele>598.8</ele>
        <time>2021-09-06T09:50:55Z</time>
      </trkpt>
      <trkpt lat="44.60131" lon="5.45851">
        <ele>598.8</ele>
        <time>2021-09-06T09:50:57Z</time>
      </trkpt>
      <trkpt lat="44.60131" lon="5.45851">
        <ele>598.8</ele>
        <time>2021-09-06T09:50:58Z</time>
      </trkpt>
      <trkpt lat="44.60131" lon="5.45851">
        <ele>598.8</ele>
        <time>2021-09-06T09:50:59Z</time>
      </trkpt>
      <trkpt lat="44.60131" lon="5.45851">
        <ele>598.8</ele>
        <time>2021-09-06T09:51:00Z</time>
      </trkpt>
      <trkpt lat="44.60131" lon="5.45851">
        <ele>598.8</ele>
        <time>2021-09-06T09:51:02Z</time>
      </trkpt>
      <trkpt lat="44.60131" lon="5.45853">
        <ele>598.8</ele>
        <time>2021-09-06T09:51:04Z</time>
      </trkpt>
      <trkpt lat="44.60131" lon="5.45854">
        <ele>598.8</ele>
        <time>2021-09-06T09:51:05Z</time>
      </trkpt>
      <trkpt lat="44.60131" lon="5.45854">
        <ele>598.8</ele>
        <time>2021-09-06T09:51:06Z</time>
      </trkpt>
      <trkpt lat="44.6013" lon="5.45854">
        <ele>598.8</ele>
        <time>2021-09-06T09:51:07Z</time>
      </trkpt>
      <trkpt lat="44.6013" lon="5.45853">
        <ele>598.8</ele>
        <time>2021-09-06T09:51:08Z</time>
      </trkpt>
      <trkpt lat="44.60129" lon="5.45852">
        <ele>598.8</ele>
        <time>2021-09-06T09:51:10Z</time>
      </trkpt>
      <trkpt lat="44.60129" lon="5.45852">
        <ele>598.8</ele>
        <time>2021-09-06T09:51:11Z</time>
      </trkpt>
      <trkpt lat="44.60128" lon="5.45851">
        <ele>598.8</ele>
        <time>2021-09-06T09:51:12Z</time>
      </trkpt>
      <trkpt lat="44.60128" lon="5.45851">
        <ele>598.8</ele>
        <time>2021-09-06T09:51:13Z</time>
      </trkpt>
      <trkpt lat="44.60128" lon="5.45851">
        <ele>598.8</ele>
        <time>2021-09-06T09:51:14Z</time>
      </trkpt>
      <trkpt lat="44.60127" lon="5.45851">
        <ele>598.8</ele>
        <time>2021-09-06T09:51:16Z</time>
      </trkpt>
      <trkpt lat="44.60127" lon="5.45851">
        <ele>598.8</ele>
        <time>2021-09-06T09:51:17Z</time>
      </trkpt>
      <trkpt lat="44.60126" lon="5.45851">
        <ele>598.8</ele>
        <time>2021-09-06T09:51:18Z</time>
      </trkpt>
      <trkpt lat="44.60126" lon="5.45852">
        <ele>598.8</ele>
        <time>2021-09-06T09:51:19Z</time>
      </trkpt>
      <trkpt lat="44.60125" lon="5.45852">
        <ele>598.8</ele>
        <time>2021-09-06T09:51:20Z</time>
      </trkpt>
      <trkpt lat="44.60124" lon="5.45853">
        <ele>598.8</ele>
        <time>2021-09-06T09:51:22Z</time>
      </trkpt>
      <trkpt lat="44.60124" lon="5.45853">
        <ele>598.8</ele>
        <time>2021-09-06T09:51:23Z</time>
      </trkpt>
      <trkpt lat="44.60122" lon="5.45854">
        <ele>598.8</ele>
        <time>2021-09-06T09:51:25Z</time>
      </trkpt>
      <trkpt lat="44.60122" lon="5.45855">
        <ele>598.8</ele>
        <time>2021-09-06T09:51:26Z</time>
      </trkpt>
      <trkpt lat="44.60122" lon="5.45855">
        <ele>598.8</ele>
        <time>2021-09-06T09:51:27Z</time>
      </trkpt>
      <trkpt lat="44.60121" lon="5.45855">
        <ele>598.8</ele>
        <time>2021-09-06T09:51:29Z</time>
      </trkpt>
      <trkpt lat="44.60121" lon="5.45855">
        <ele>598.8</ele>
        <time>2021-09-06T09:51:30Z</time>
      </trkpt>
      <trkpt lat="44.6012" lon="5.45855">
        <ele>598.8</ele>
        <time>2021-09-06T09:51:32Z</time>
      </trkpt>
      <trkpt lat="44.6012" lon="5.45855">
        <ele>598.8</ele>
        <time>2021-09-06T09:51:33Z</time>
      </trkpt>
      <trkpt lat="44.6012" lon="5.45855">
        <ele>598.8</ele>
        <time>2021-09-06T09:51:34Z</time>
      </trkpt>
      <trkpt lat="44.6012" lon="5.45855">
        <ele>598.8</ele>
        <time>2021-09-06T09:51:36Z</time>
      </trkpt>
      <trkpt lat="44.6012" lon="5.45855">
        <ele>598.8</ele>
        <time>2021-09-06T09:51:37Z</time>
      </trkpt>
      <trkpt lat="44.6012" lon="5.45855">
        <ele>598.8</ele>
        <time>2021-09-06T09:51:39Z</time>
      </trkpt>
      <trkpt lat="44.6012" lon="5.45855">
        <ele>598.8</ele>
        <time>2021-09-06T09:51:40Z</time>
      </trkpt>
      <trkpt lat="44.6012" lon="5.45855">
        <ele>598.8</ele>
        <time>2021-09-06T09:51:42Z</time>
      </trkpt>
      <trkpt lat="44.6012" lon="5.45855">
        <ele>598.8</ele>
        <time>2021-09-06T09:51:44Z</time>
      </trkpt>
      <trkpt lat="44.60121" lon="5.45855">
        <ele>598.8</ele>
        <time>2021-09-06T09:51:45Z</time>
      </trkpt>
      <trkpt lat="44.60121" lon="5.45855">
        <ele>598.8</ele>
        <time>2021-09-06T09:51:47Z</time>
      </trkpt>
      <trkpt lat="44.60121" lon="5.45855">
        <ele>598.8</ele>
        <time>2021-09-06T09:51:48Z</time>
      </trkpt>
      <trkpt lat="44.60121" lon="5.45855">
        <ele>598.8</ele>
        <time>2021-09-06T09:51:50Z</time>
      </trkpt>
      <trkpt lat="44.60121" lon="5.45855">
        <ele>598.8</ele>
        <time>2021-09-06T09:51:52Z</time>
      </trkpt>
      <trkpt lat="44.60121" lon="5.45855">
        <ele>598.8</ele>
        <time>2021-09-06T09:51:54Z</time>
      </trkpt>
      <trkpt lat="44.60121" lon="5.45855">
        <ele>598.8</ele>
        <time>2021-09-06T09:51:56Z</time>
      </trkpt>
      <trkpt lat="44.60121" lon="5.45855">
        <ele>598.8</ele>
        <time>2021-09-06T09:51:58Z</time>
      </trkpt>
      <trkpt lat="44.60121" lon="5.45855">
        <ele>598.8</ele>
        <time>2021-09-06T09:51:59Z</time>
      </trkpt>
      <trkpt lat="44.60121" lon="5.45855">
        <ele>598.8</ele>
        <time>2021-09-06T09:52:00Z</time>
      </trkpt>
      <trkpt lat="44.60121" lon="5.45855">
        <ele>598.8</ele>
        <time>2021-09-06T09:52:02Z</time>
      </trkpt>
      <trkpt lat="44.60121" lon="5.45855">
        <ele>598.8</ele>
        <time>2021-09-06T09:52:03Z</time>
      </trkpt>
      <trkpt lat="44.60121" lon="5.45855">
        <ele>598.8</ele>
        <time>2021-09-06T09:52:05Z</time>
      </trkpt>
      <trkpt lat="44.60121" lon="5.45855">
        <ele>598.8</ele>
        <time>2021-09-06T09:52:06Z</time>
      </trkpt>
      <trkpt lat="44.60121" lon="5.45855">
        <ele>598.8</ele>
        <time>2021-09-06T09:52:08Z</time>
      </trkpt>
      <trkpt lat="44.60121" lon="5.45855">
        <ele>598.8</ele>
        <time>2021-09-06T09:52:09Z</time>
      </trkpt>
      <trkpt lat="44.60121" lon="5.45855">
        <ele>598.8</ele>
        <time>2021-09-06T09:52:11Z</time>
      </trkpt>
      <trkpt lat="44.60121" lon="5.45855">
        <ele>598.8</ele>
        <time>2021-09-06T09:52:13Z</time>
      </trkpt>
      <trkpt lat="44.60121" lon="5.45855">
        <ele>598.8</ele>
        <time>2021-09-06T09:52:14Z</time>
      </trkpt>
      <trkpt lat="44.60122" lon="5.45853">
        <ele>598.8</ele>
        <time>2021-09-06T09:52:16Z</time>
      </trkpt>
      <trkpt lat="44.60122" lon="5.45852">
        <ele>598.8</ele>
        <time>2021-09-06T09:52:17Z</time>
      </trkpt>
      <trkpt lat="44.60126" lon="5.45853">
        <ele>598.8</ele>
        <time>2021-09-06T09:52:19Z</time>
      </trkpt>
      <trkpt lat="44.60126" lon="5.45855">
        <ele>598.8</ele>
        <time>2021-09-06T09:52:20Z</time>
      </trkpt>
      <trkpt lat="44.60126" lon="5.45855">
        <ele>598.8</ele>
        <time>2021-09-06T09:52:22Z</time>
      </trkpt>
      <trkpt lat="44.60128" lon="5.45856">
        <ele>598.8</ele>
        <time>2021-09-06T09:52:23Z</time>
      </trkpt>
      <trkpt lat="44.60131" lon="5.45858">
        <ele>598.8</ele>
        <time>2021-09-06T09:52:24Z</time>
      </trkpt>
      <trkpt lat="44.60136" lon="5.45859">
        <ele>598.8</ele>
        <time>2021-09-06T09:52:25Z</time>
      </trkpt>
      <trkpt lat="44.60143" lon="5.45862">
        <ele>598.9</ele>
        <time>2021-09-06T09:52:27Z</time>
      </trkpt>
      <trkpt lat="44.60146" lon="5.45864">
        <ele>598.9</ele>
        <time>2021-09-06T09:52:28Z</time>
      </trkpt>
      <trkpt lat="44.60148" lon="5.45868">
        <ele>598.9</ele>
        <time>2021-09-06T09:52:29Z</time>
      </trkpt>
      <trkpt lat="44.60154" lon="5.45876">
        <ele>598.9</ele>
        <time>2021-09-06T09:52:31Z</time>
      </trkpt>
      <trkpt lat="44.60157" lon="5.4588">
        <ele>598.9</ele>
        <time>2021-09-06T09:52:32Z</time>
      </trkpt>
      <trkpt lat="44.60162" lon="5.45886">
        <ele>598.9</ele>
        <time>2021-09-06T09:52:34Z</time>
      </trkpt>
      <trkpt lat="44.60164" lon="5.45893">
        <ele>598.9</ele>
        <time>2021-09-06T09:52:36Z</time>
      </trkpt>
      <trkpt lat="44.60165" lon="5.45899">
        <ele>598.9</ele>
        <time>2021-09-06T09:52:38Z</time>
      </trkpt>
      <trkpt lat="44.60164" lon="5.45905">
        <ele>598.8</ele>
        <time>2021-09-06T09:52:40Z</time>
      </trkpt>
      <trkpt lat="44.60162" lon="5.45911">
        <ele>598.8</ele>
        <time>2021-09-06T09:52:41Z</time>
      </trkpt>
      <trkpt lat="44.60159" lon="5.45916">
        <ele>598.7</ele>
        <time>2021-09-06T09:52:42Z</time>
      </trkpt>
      <trkpt lat="44.60154" lon="5.45921">
        <ele>598.7</ele>
        <time>2021-09-06T09:52:44Z</time>
      </trkpt>
      <trkpt lat="44.60151" lon="5.45927">
        <ele>598.6</ele>
        <time>2021-09-06T09:52:46Z</time>
      </trkpt>
      <trkpt lat="44.60149" lon="5.45931">
        <ele>598.6</ele>
        <time>2021-09-06T09:52:47Z</time>
      </trkpt>
      <trkpt lat="44.60148" lon="5.45933">
        <ele>598.6</ele>
        <time>2021-09-06T09:52:48Z</time>
      </trkpt>
      <trkpt lat="44.60143" lon="5.45935">
        <ele>598.6</ele>
        <time>2021-09-06T09:52:50Z</time>
      </trkpt>
      <trkpt lat="44.60142" lon="5.45935">
        <ele>598.6</ele>
        <time>2021-09-06T09:52:51Z</time>
      </trkpt>
      <trkpt lat="44.60139" lon="5.45937">
        <ele>598.6</ele>
        <time>2021-09-06T09:52:53Z</time>
      </trkpt>
      <trkpt lat="44.60136" lon="5.45937">
        <ele>598.6</ele>
        <time>2021-09-06T09:52:54Z</time>
      </trkpt>
      <trkpt lat="44.60135" lon="5.45937">
        <ele>598.6</ele>
        <time>2021-09-06T09:52:55Z</time>
      </trkpt>
      <trkpt lat="44.60133" lon="5.45936">
        <ele>598.6</ele>
        <time>2021-09-06T09:52:56Z</time>
      </trkpt>
      <trkpt lat="44.60132" lon="5.45936">
        <ele>598.6</ele>
        <time>2021-09-06T09:52:57Z</time>
      </trkpt>
      <trkpt lat="44.60131" lon="5.45937">
        <ele>598.6</ele>
        <time>2021-09-06T09:52:58Z</time>
      </trkpt>
      <trkpt lat="44.60131" lon="5.45938">
        <ele>598.6</ele>
        <time>2021-09-06T09:53:00Z</time>
      </trkpt>
      <trkpt lat="44.60131" lon="5.45939">
        <ele>598.6</ele>
        <time>2021-09-06T09:53:02Z</time>
      </trkpt>
      <trkpt lat="44.60131" lon="5.45939">
        <ele>598.7</ele>
        <time>2021-09-06T09:53:03Z</time>
      </trkpt>
      <trkpt lat="44.6013" lon="5.45941">
        <ele>598.7</ele>
        <time>2021-09-06T09:53:05Z</time>
      </trkpt>
      <trkpt lat="44.6013" lon="5.45941">
        <ele>598.7</ele>
        <time>2021-09-06T09:53:06Z</time>
      </trkpt>
      <trkpt lat="44.6013" lon="5.45943">
        <ele>598.7</ele>
        <time>2021-09-06T09:53:08Z</time>
      </trkpt>
      <trkpt lat="44.60067" lon="5.45953">
        <ele>601.3</ele>
        <time>2021-09-06T09:54:36Z</time>
      </trkpt>
      <trkpt lat="44.60062" lon="5.45959">
        <ele>601.4</ele>
        <time>2021-09-06T09:54:38Z</time>
      </trkpt>
      <trkpt lat="44.60059" lon="5.45963">
        <ele>601.4</ele>
        <time>2021-09-06T09:54:39Z</time>
      </trkpt>
      <trkpt lat="44.60056" lon="5.45968">
        <ele>601.4</ele>
        <time>2021-09-06T09:54:40Z</time>
      </trkpt>
      <trkpt lat="44.60054" lon="5.45971">
        <ele>601.3</ele>
        <time>2021-09-06T09:54:41Z</time>
      </trkpt>
      <trkpt lat="44.60047" lon="5.45974">
        <ele>601.2</ele>
        <time>2021-09-06T09:54:43Z</time>
      </trkpt>
      <trkpt lat="44.60041" lon="5.45976">
        <ele>601.1</ele>
        <time>2021-09-06T09:54:45Z</time>
      </trkpt>
      <trkpt lat="44.60037" lon="5.45977">
        <ele>601</ele>
        <time>2021-09-06T09:54:46Z</time>
      </trkpt>
      <trkpt lat="44.60034" lon="5.45979">
        <ele>600.8</ele>
        <time>2021-09-06T09:54:47Z</time>
      </trkpt>
      <trkpt lat="44.6003" lon="5.4598">
        <ele>600.6</ele>
        <time>2021-09-06T09:54:48Z</time>
      </trkpt>
      <trkpt lat="44.60024" lon="5.45979">
        <ele>600.3</ele>
        <time>2021-09-06T09:54:50Z</time>
      </trkpt>
      <trkpt lat="44.60019" lon="5.45978">
        <ele>600</ele>
        <time>2021-09-06T09:54:51Z</time>
      </trkpt>
      <trkpt lat="44.60017" lon="5.4598">
        <ele>599.9</ele>
        <time>2021-09-06T09:54:53Z</time>
      </trkpt>
      <trkpt lat="44.60013" lon="5.45981">
        <ele>599.8</ele>
        <time>2021-09-06T09:54:54Z</time>
      </trkpt>
      <trkpt lat="44.6001" lon="5.45985">
        <ele>599.7</ele>
        <time>2021-09-06T09:54:55Z</time>
      </trkpt>
      <trkpt lat="44.60009" lon="5.45986">
        <ele>599.7</ele>
        <time>2021-09-06T09:54:56Z</time>
      </trkpt>
      <trkpt lat="44.60007" lon="5.4599">
        <ele>599.6</ele>
        <time>2021-09-06T09:54:57Z</time>
      </trkpt>
      <trkpt lat="44.60006" lon="5.45996">
        <ele>599.6</ele>
        <time>2021-09-06T09:54:59Z</time>
      </trkpt>
      <trkpt lat="44.60006" lon="5.45998">
        <ele>599.6</ele>
        <time>2021-09-06T09:55:00Z</time>
      </trkpt>
      <trkpt lat="44.60006" lon="5.46005">
        <ele>599.6</ele>
        <time>2021-09-06T09:55:02Z</time>
      </trkpt>
      <trkpt lat="44.60006" lon="5.46009">
        <ele>599.5</ele>
        <time>2021-09-06T09:55:03Z</time>
      </trkpt>
      <trkpt lat="44.60011" lon="5.46014">
        <ele>599.5</ele>
        <time>2021-09-06T09:55:05Z</time>
      </trkpt>
      <trkpt lat="44.60014" lon="5.46017">
        <ele>599.5</ele>
        <time>2021-09-06T09:55:06Z</time>
      </trkpt>
      <trkpt lat="44.60017" lon="5.4602">
        <ele>599.4</ele>
        <time>2021-09-06T09:55:08Z</time>
      </trkpt>
      <trkpt lat="44.60019" lon="5.46024">
        <ele>599.4</ele>
        <time>2021-09-06T09:55:09Z</time>
      </trkpt>
      <trkpt lat="44.60021" lon="5.46027">
        <ele>599.4</ele>
        <time>2021-09-06T09:55:10Z</time>
      </trkpt>
      <trkpt lat="44.60023" lon="5.46031">
        <ele>599.4</ele>
        <time>2021-09-06T09:55:12Z</time>
      </trkpt>
      <trkpt lat="44.60026" lon="5.46034">
        <ele>599.4</ele>
        <time>2021-09-06T09:55:13Z</time>
      </trkpt>
      <trkpt lat="44.60029" lon="5.46038">
        <ele>599.6</ele>
        <time>2021-09-06T09:55:14Z</time>
      </trkpt>
      <trkpt lat="44.60031" lon="5.4604">
        <ele>599.7</ele>
        <time>2021-09-06T09:55:15Z</time>
      </trkpt>
      <trkpt lat="44.60034" lon="5.46043">
        <ele>599.9</ele>
        <time>2021-09-06T09:55:17Z</time>
      </trkpt>
      <trkpt lat="44.60036" lon="5.46045">
        <ele>600.1</ele>
        <time>2021-09-06T09:55:18Z</time>
      </trkpt>
      <trkpt lat="44.60036" lon="5.46046">
        <ele>600.1</ele>
        <time>2021-09-06T09:55:19Z</time>
      </trkpt>
      <trkpt lat="44.60035" lon="5.46045">
        <ele>600.2</ele>
        <time>2021-09-06T09:55:20Z</time>
      </trkpt>
      <trkpt lat="44.60035" lon="5.46045">
        <ele>600.3</ele>
        <time>2021-09-06T09:55:22Z</time>
      </trkpt>
      <trkpt lat="44.60035" lon="5.46045">
        <ele>600.3</ele>
        <time>2021-09-06T09:55:23Z</time>
      </trkpt>
      <trkpt lat="44.60035" lon="5.46045">
        <ele>600.3</ele>
        <time>2021-09-06T09:55:24Z</time>
      </trkpt>
      <trkpt lat="44.60034" lon="5.46045">
        <ele>600.3</ele>
        <time>2021-09-06T09:55:26Z</time>
      </trkpt>
      <trkpt lat="44.60034" lon="5.46045">
        <ele>600.3</ele>
        <time>2021-09-06T09:55:27Z</time>
      </trkpt>
      <trkpt lat="44.60033" lon="5.46044">
        <ele>600.6</ele>
        <time>2021-09-06T09:55:29Z</time>
      </trkpt>
      <trkpt lat="44.60124" lon="5.46075">
        <ele>619.8</ele>
        <time>2021-09-06T10:00:44Z</time>
      </trkpt>
      <trkpt lat="44.60126" lon="5.46076">
        <ele>620.2</ele>
        <time>2021-09-06T10:00:45Z</time>
      </trkpt>
      <trkpt lat="44.60128" lon="5.46076">
        <ele>620.5</ele>
        <time>2021-09-06T10:00:47Z</time>
      </trkpt>
      <trkpt lat="44.60131" lon="5.46076">
        <ele>620.9</ele>
        <time>2021-09-06T10:00:49Z</time>
      </trkpt>
      <trkpt lat="44.60132" lon="5.46076">
        <ele>621</ele>
        <time>2021-09-06T10:00:50Z</time>
      </trkpt>
      <trkpt lat="44.60133" lon="5.46076">
        <ele>621.2</ele>
        <time>2021-09-06T10:00:52Z</time>
      </trkpt>
      <trkpt lat="44.60133" lon="5.46075">
        <ele>621.2</ele>
        <time>2021-09-06T10:00:53Z</time>
      </trkpt>
      <trkpt lat="44.60133" lon="5.46076">
        <ele>621.2</ele>
        <time>2021-09-06T10:00:55Z</time>
      </trkpt>
      <trkpt lat="44.60133" lon="5.46076">
        <ele>621.3</ele>
        <time>2021-09-06T10:00:57Z</time>
      </trkpt>
      <trkpt lat="44.60133" lon="5.46076">
        <ele>621.3</ele>
        <time>2021-09-06T10:00:58Z</time>
      </trkpt>
      <trkpt lat="44.60133" lon="5.46076">
        <ele>621.3</ele>
        <time>2021-09-06T10:01:00Z</time>
      </trkpt>
      <trkpt lat="44.60133" lon="5.46076">
        <ele>621.3</ele>
        <time>2021-09-06T10:01:01Z</time>
      </trkpt>
      <trkpt lat="44.60133" lon="5.46076">
        <ele>621.3</ele>
        <time>2021-09-06T10:01:03Z</time>
      </trkpt>
      <trkpt lat="44.60133" lon="5.46076">
        <ele>621.3</ele>
        <time>2021-09-06T10:01:04Z</time>
      </trkpt>
      <trkpt lat="44.60133" lon="5.46076">
        <ele>621.3</ele>
        <time>2021-09-06T10:01:06Z</time>
      </trkpt>
      <trkpt lat="44.60133" lon="5.46076">
        <ele>621.3</ele>
        <time>2021-09-06T10:01:08Z</time>
      </trkpt>
      <trkpt lat="44.60133" lon="5.46076">
        <ele>621.4</ele>
        <time>2021-09-06T10:01:09Z</time>
      </trkpt>
      <trkpt lat="44.60133" lon="5.46076">
        <ele>621.4</ele>
        <time>2021-09-06T10:01:10Z</time>
      </trkpt>
      <trkpt lat="44.60133" lon="5.46077">
        <ele>621.4</ele>
        <time>2021-09-06T10:01:12Z</time>
      </trkpt>
      <trkpt lat="44.60133" lon="5.46077">
        <ele>621.4</ele>
        <time>2021-09-06T10:01:13Z</time>
      </trkpt>
      <trkpt lat="44.60133" lon="5.46077">
        <ele>621.5</ele>
        <time>2021-09-06T10:01:14Z</time>
      </trkpt>
      <trkpt lat="44.60133" lon="5.46077">
        <ele>621.5</ele>
        <time>2021-09-06T10:01:15Z</time>
      </trkpt>
      <trkpt lat="44.60133" lon="5.46077">
        <ele>621.5</ele>
        <time>2021-09-06T10:01:17Z</time>
      </trkpt>
      <trkpt lat="44.60133" lon="5.46078">
        <ele>621.6</ele>
        <time>2021-09-06T10:01:18Z</time>
      </trkpt>
      <trkpt lat="44.60135" lon="5.4608">
        <ele>621.9</ele>
        <time>2021-09-06T10:01:19Z</time>
      </trkpt>
      <trkpt lat="44.60136" lon="5.46081">
        <ele>622.2</ele>
        <time>2021-09-06T10:01:20Z</time>
      </trkpt>
      <trkpt lat="44.60138" lon="5.46084">
        <ele>622.7</ele>
        <time>2021-09-06T10:01:22Z</time>
      </trkpt>
      <trkpt lat="44.60138" lon="5.46085">
        <ele>622.8</ele>
        <time>2021-09-06T10:01:23Z</time>
      </trkpt>
      <trkpt lat="44.60139" lon="5.46086">
        <ele>623</ele>
        <time>2021-09-06T10:01:25Z</time>
      </trkpt>
      <trkpt lat="44.60139" lon="5.46087">
        <ele>623.1</ele>
        <time>2021-09-06T10:01:26Z</time>
      </trkpt>
      <trkpt lat="44.60139" lon="5.46088">
        <ele>623.2</ele>
        <time>2021-09-06T10:01:27Z</time>
      </trkpt>
      <trkpt lat="44.60139" lon="5.46089">
        <ele>623.3</ele>
        <time>2021-09-06T10:01:28Z</time>
      </trkpt>
      <trkpt lat="44.60139" lon="5.46089">
        <ele>623.4</ele>
        <time>2021-09-06T10:01:30Z</time>
      </trkpt>
      <trkpt lat="44.60139" lon="5.4609">
        <ele>623.5</ele>
        <time>2021-09-06T10:01:31Z</time>
      </trkpt>
      <trkpt lat="44.60139" lon="5.46091">
        <ele>623.5</ele>
        <time>2021-09-06T10:01:32Z</time>
      </trkpt>
      <trkpt lat="44.60139" lon="5.46093">
        <ele>623.8</ele>
        <time>2021-09-06T10:01:34Z</time>
      </trkpt>
      <trkpt lat="44.60139" lon="5.46094">
        <ele>624</ele>
        <time>2021-09-06T10:01:35Z</time>
      </trkpt>
      <trkpt lat="44.60139" lon="5.46096">
        <ele>624.2</ele>
        <time>2021-09-06T10:01:37Z</time>
      </trkpt>
      <trkpt lat="44.60139" lon="5.46099">
        <ele>624.5</ele>
        <time>2021-09-06T10:01:38Z</time>
      </trkpt>
      <trkpt lat="44.60139" lon="5.46099">
        <ele>624.6</ele>
        <time>2021-09-06T10:01:40Z</time>
      </trkpt>
      <trkpt lat="44.60139" lon="5.461">
        <ele>624.7</ele>
        <time>2021-09-06T10:01:41Z</time>
      </trkpt>
      <trkpt lat="44.60139" lon="5.46101">
        <ele>624.8</ele>
        <time>2021-09-06T10:01:42Z</time>
      </trkpt>
      <trkpt lat="44.60139" lon="5.46102">
        <ele>624.8</ele>
        <time>2021-09-06T10:01:44Z</time>
      </trkpt>
      <trkpt lat="44.60138" lon="5.46102">
        <ele>624.9</ele>
        <time>2021-09-06T10:01:45Z</time>
      </trkpt>
      <trkpt lat="44.60138" lon="5.46103">
        <ele>625</ele>
        <time>2021-09-06T10:01:46Z</time>
      </trkpt>
      <trkpt lat="44.60138" lon="5.46104">
        <ele>625.1</ele>
        <time>2021-09-06T10:01:48Z</time>
      </trkpt>
      <trkpt lat="44.60138" lon="5.46105">
        <ele>625.2</ele>
        <time>2021-09-06T10:01:50Z</time>
      </trkpt>
      <trkpt lat="44.60138" lon="5.46106">
        <ele>625.3</ele>
        <time>2021-09-06T10:01:51Z</time>
      </trkpt>
      <trkpt lat="44.60138" lon="5.46106">
        <ele>625.4</ele>
        <time>2021-09-06T10:01:53Z</time>
      </trkpt>
      <trkpt lat="44.60138" lon="5.46107">
        <ele>625.5</ele>
        <time>2021-09-06T10:01:54Z</time>
      </trkpt>
      <trkpt lat="44.60138" lon="5.46108">
        <ele>625.5</ele>
        <time>2021-09-06T10:01:55Z</time>
      </trkpt>
      <trkpt lat="44.60138" lon="5.46109">
        <ele>625.6</ele>
        <time>2021-09-06T10:01:57Z</time>
      </trkpt>
      <trkpt lat="44.60138" lon="5.46109">
        <ele>625.7</ele>
        <time>2021-09-06T10:01:58Z</time>
      </trkpt>
      <trkpt lat="44.60137" lon="5.4611">
        <ele>625.8</ele>
        <time>2021-09-06T10:01:59Z</time>
      </trkpt>
      <trkpt lat="44.60137" lon="5.46111">
        <ele>625.9</ele>
        <time>2021-09-06T10:02:01Z</time>
      </trkpt>
      <trkpt lat="44.60137" lon="5.46112">
        <ele>626</ele>
        <time>2021-09-06T10:02:02Z</time>
      </trkpt>
      <trkpt lat="44.60137" lon="5.46113">
        <ele>626</ele>
        <time>2021-09-06T10:02:03Z</time>
      </trkpt>
      <trkpt lat="44.60137" lon="5.46113">
        <ele>626.1</ele>
        <time>2021-09-06T10:02:05Z</time>
      </trkpt>
      <trkpt lat="44.60137" lon="5.46114">
        <ele>626.2</ele>
        <time>2021-09-06T10:02:07Z</time>
      </trkpt>
      <trkpt lat="44.60137" lon="5.46115">
        <ele>626.3</ele>
        <time>2021-09-06T10:02:08Z</time>
      </trkpt>
      <trkpt lat="44.60137" lon="5.46117">
        <ele>626.5</ele>
        <time>2021-09-06T10:02:09Z</time>
      </trkpt>
      <trkpt lat="44.60136" lon="5.46118">
        <ele>626.6</ele>
        <time>2021-09-06T10:02:11Z</time>
      </trkpt>
      <trkpt lat="44.60136" lon="5.46119">
        <ele>626.7</ele>
        <time>2021-09-06T10:02:12Z</time>
      </trkpt>
      <trkpt lat="44.60136" lon="5.4612">
        <ele>626.8</ele>
        <time>2021-09-06T10:02:14Z</time>
      </trkpt>
      <trkpt lat="44.60137" lon="5.46121">
        <ele>626.9</ele>
        <time>2021-09-06T10:02:15Z</time>
      </trkpt>
      <trkpt lat="44.60137" lon="5.46122">
        <ele>626.9</ele>
        <time>2021-09-06T10:02:16Z</time>
      </trkpt>
      <trkpt lat="44.60137" lon="5.46122">
        <ele>627</ele>
        <time>2021-09-06T10:02:18Z</time>
      </trkpt>
      <trkpt lat="44.60137" lon="5.46122">
        <ele>627</ele>
        <time>2021-09-06T10:02:19Z</time>
      </trkpt>
      <trkpt lat="44.60137" lon="5.46123">
        <ele>627.1</ele>
        <time>2021-09-06T10:02:21Z</time>
      </trkpt>
      <trkpt lat="44.60139" lon="5.46125">
        <ele>627.4</ele>
        <time>2021-09-06T10:02:22Z</time>
      </trkpt>
      <trkpt lat="44.60139" lon="5.46127">
        <ele>627.3</ele>
        <time>2021-09-06T10:02:23Z</time>
      </trkpt>
      <trkpt lat="44.6014" lon="5.46129">
        <ele>627.8</ele>
        <time>2021-09-06T10:02:25Z</time>
      </trkpt>
      <trkpt lat="44.60141" lon="5.46131">
        <ele>628.5</ele>
        <time>2021-09-06T10:02:27Z</time>
      </trkpt>
      <trkpt lat="44.60141" lon="5.46132">
        <ele>628.5</ele>
        <time>2021-09-06T10:02:28Z</time>
      </trkpt>
      <trkpt lat="44.60141" lon="5.46132">
        <ele>629</ele>
        <time>2021-09-06T10:02:29Z</time>
      </trkpt>
      <trkpt lat="44.60141" lon="5.46133">
        <ele>629</ele>
        <time>2021-09-06T10:02:31Z</time>
      </trkpt>
      <trkpt lat="44.60141" lon="5.46133">
        <ele>628.9</ele>
        <time>2021-09-06T10:02:33Z</time>
      </trkpt>
      <trkpt lat="44.60141" lon="5.46133">
        <ele>628.9</ele>
        <time>2021-09-06T10:02:34Z</time>
      </trkpt>
      <trkpt lat="44.60141" lon="5.46133">
        <ele>628.8</ele>
        <time>2021-09-06T10:02:36Z</time>
      </trkpt>
      <trkpt lat="44.60141" lon="5.46133">
        <ele>628.8</ele>
        <time>2021-09-06T10:02:37Z</time>
      </trkpt>
      <trkpt lat="44.60141" lon="5.46133">
        <ele>628.7</ele>
        <time>2021-09-06T10:02:38Z</time>
      </trkpt>
      <trkpt lat="44.60141" lon="5.46133">
        <ele>628.7</ele>
        <time>2021-09-06T10:02:40Z</time>
      </trkpt>
      <trkpt lat="44.60141" lon="5.46133">
        <ele>628.7</ele>
        <time>2021-09-06T10:02:43Z</time>
      </trkpt>
      <trkpt lat="44.60142" lon="5.46133">
        <ele>628.6</ele>
        <time>2021-09-06T10:02:44Z</time>
      </trkpt>
      <trkpt lat="44.60142" lon="5.46133">
        <ele>628.6</ele>
        <time>2021-09-06T10:02:45Z</time>
      </trkpt>
      <trkpt lat="44.60142" lon="5.46133">
        <ele>628.5</ele>
        <time>2021-09-06T10:02:46Z</time>
      </trkpt>
      <trkpt lat="44.60142" lon="5.46133">
        <ele>628.5</ele>
        <time>2021-09-06T10:02:48Z</time>
      </trkpt>
      <trkpt lat="44.60142" lon="5.46133">
        <ele>628.4</ele>
        <time>2021-09-06T10:02:49Z</time>
      </trkpt>
      <trkpt lat="44.60142" lon="5.46133">
        <ele>628.4</ele>
        <time>2021-09-06T10:02:51Z</time>
      </trkpt>
      <trkpt lat="44.60142" lon="5.46133">
        <ele>628.4</ele>
        <time>2021-09-06T10:02:52Z</time>
      </trkpt>
      <trkpt lat="44.60142" lon="5.46133">
        <ele>628.3</ele>
        <time>2021-09-06T10:02:53Z</time>
      </trkpt>
      <trkpt lat="44.60142" lon="5.46133">
        <ele>628.3</ele>
        <time>2021-09-06T10:02:55Z</time>
      </trkpt>
      <trkpt lat="44.60142" lon="5.46133">
        <ele>628.2</ele>
        <time>2021-09-06T10:02:56Z</time>
      </trkpt>
      <trkpt lat="44.60142" lon="5.46133">
        <ele>628.2</ele>
        <time>2021-09-06T10:02:58Z</time>
      </trkpt>
      <trkpt lat="44.60142" lon="5.46134">
        <ele>628.1</ele>
        <time>2021-09-06T10:02:59Z</time>
      </trkpt>
      <trkpt lat="44.60142" lon="5.46134">
        <ele>628.1</ele>
        <time>2021-09-06T10:03:01Z</time>
      </trkpt>
      <trkpt lat="44.60142" lon="5.46133">
        <ele>628.1</ele>
        <time>2021-09-06T10:03:02Z</time>
      </trkpt>
      <trkpt lat="44.60142" lon="5.46133">
        <ele>628</ele>
        <time>2021-09-06T10:03:03Z</time>
      </trkpt>
      <trkpt lat="44.60142" lon="5.46133">
        <ele>628</ele>
        <time>2021-09-06T10:03:05Z</time>
      </trkpt>
      <trkpt lat="44.60142" lon="5.46133">
        <ele>627.9</ele>
        <time>2021-09-06T10:03:06Z</time>
      </trkpt>
      <trkpt lat="44.60142" lon="5.46133">
        <ele>627.9</ele>
        <time>2021-09-06T10:03:07Z</time>
      </trkpt>
      <trkpt lat="44.60142" lon="5.46133">
        <ele>627.8</ele>
        <time>2021-09-06T10:03:08Z</time>
      </trkpt>
      <trkpt lat="44.60142" lon="5.46133">
        <ele>627.8</ele>
        <time>2021-09-06T10:03:09Z</time>
      </trkpt>
      <trkpt lat="44.60141" lon="5.46133">
        <ele>627.7</ele>
        <time>2021-09-06T10:03:10Z</time>
      </trkpt>
      <trkpt lat="44.60141" lon="5.46133">
        <ele>627.7</ele>
        <time>2021-09-06T10:03:11Z</time>
      </trkpt>
      <trkpt lat="44.60141" lon="5.46133">
        <ele>627.7</ele>
        <time>2021-09-06T10:03:13Z</time>
      </trkpt>
      <trkpt lat="44.6014" lon="5.46134">
        <ele>626.9</ele>
        <time>2021-09-06T10:03:14Z</time>
      </trkpt>
      <trkpt lat="44.6014" lon="5.46135">
        <ele>626.8</ele>
        <time>2021-09-06T10:03:15Z</time>
      </trkpt>
      <trkpt lat="44.60138" lon="5.46136">
        <ele>626.8</ele>
        <time>2021-09-06T10:03:17Z</time>
      </trkpt>
      <trkpt lat="44.60137" lon="5.46137">
        <ele>626.6</ele>
        <time>2021-09-06T10:03:19Z</time>
      </trkpt>
      <trkpt lat="44.60136" lon="5.46137">
        <ele>626.5</ele>
        <time>2021-09-06T10:03:20Z</time>
      </trkpt>
      <trkpt lat="44.60135" lon="5.46138">
        <ele>626.5</ele>
        <time>2021-09-06T10:03:22Z</time>
      </trkpt>
      <trkpt lat="44.60135" lon="5.46138">
        <ele>626.4</ele>
        <time>2021-09-06T10:03:23Z</time>
      </trkpt>
      <trkpt lat="44.60134" lon="5.46139">
        <ele>625.6</ele>
        <time>2021-09-06T10:03:25Z</time>
      </trkpt>
      <trkpt lat="44.60134" lon="5.46139">
        <ele>625.6</ele>
        <time>2021-09-06T10:03:26Z</time>
      </trkpt>
      <trkpt lat="44.60133" lon="5.46139">
        <ele>625.5</ele>
        <time>2021-09-06T10:03:28Z</time>
      </trkpt>
      <trkpt lat="44.60133" lon="5.46139">
        <ele>625.5</ele>
        <time>2021-09-06T10:03:29Z</time>
      </trkpt>
      <trkpt lat="44.60133" lon="5.46139">
        <ele>625.4</ele>
        <time>2021-09-06T10:03:31Z</time>
      </trkpt>
      <trkpt lat="44.60133" lon="5.4614">
        <ele>625.4</ele>
        <time>2021-09-06T10:03:33Z</time>
      </trkpt>
      <trkpt lat="44.60132" lon="5.4614">
        <ele>625.3</ele>
        <time>2021-09-06T10:03:34Z</time>
      </trkpt>
      <trkpt lat="44.60132" lon="5.4614">
        <ele>625.3</ele>
        <time>2021-09-06T10:03:36Z</time>
      </trkpt>
      <trkpt lat="44.60126" lon="5.46143">
        <ele>624.3</ele>
        <time>2021-09-06T10:03:38Z</time>
      </trkpt>
      <trkpt lat="44.60117" lon="5.46143">
        <ele>622.1</ele>
        <time>2021-09-06T10:03:40Z</time>
      </trkpt>
      <trkpt lat="44.60113" lon="5.46144">
        <ele>620.3</ele>
        <time>2021-09-06T10:03:41Z</time>
      </trkpt>
      <trkpt lat="44.60112" lon="5.46144">
        <ele>620.3</ele>
        <time>2021-09-06T10:03:42Z</time>
      </trkpt>
      <trkpt lat="44.6011" lon="5.46145">
        <ele>620.7</ele>
        <time>2021-09-06T10:03:44Z</time>
      </trkpt>
      <trkpt lat="44.60109" lon="5.46147">
        <ele>619.8</ele>
        <time>2021-09-06T10:03:46Z</time>
      </trkpt>
      <trkpt lat="44.60108" lon="5.46148">
        <ele>619.7</ele>
        <time>2021-09-06T10:03:47Z</time>
      </trkpt>
      <trkpt lat="44.60107" lon="5.46149">
        <ele>618.8</ele>
        <time>2021-09-06T10:03:48Z</time>
      </trkpt>
      <trkpt lat="44.60106" lon="5.46151">
        <ele>619.2</ele>
        <time>2021-09-06T10:03:50Z</time>
      </trkpt>
      <trkpt lat="44.60105" lon="5.46152">
        <ele>619.2</ele>
        <time>2021-09-06T10:03:51Z</time>
      </trkpt>
      <trkpt lat="44.60103" lon="5.46157">
        <ele>618.7</ele>
        <time>2021-09-06T10:03:53Z</time>
      </trkpt>
      <trkpt lat="44.60104" lon="5.46156">
        <ele>619.5</ele>
        <time>2021-09-06T10:03:55Z</time>
      </trkpt>
      <trkpt lat="44.60105" lon="5.46155">
        <ele>619.5</ele>
        <time>2021-09-06T10:03:56Z</time>
      </trkpt>
      <trkpt lat="44.60106" lon="5.46154">
        <ele>619.4</ele>
        <time>2021-09-06T10:03:58Z</time>
      </trkpt>
      <trkpt lat="44.60107" lon="5.46153">
        <ele>619.9</ele>
        <time>2021-09-06T10:03:59Z</time>
      </trkpt>
      <trkpt lat="44.60108" lon="5.46152">
        <ele>619.8</ele>
        <time>2021-09-06T10:04:01Z</time>
      </trkpt>
      <trkpt lat="44.60109" lon="5.46151">
        <ele>619.8</ele>
        <time>2021-09-06T10:04:02Z</time>
      </trkpt>
      <trkpt lat="44.6011" lon="5.46151">
        <ele>620.6</ele>
        <time>2021-09-06T10:04:04Z</time>
      </trkpt>
      <trkpt lat="44.60111" lon="5.46152">
        <ele>620.6</ele>
        <time>2021-09-06T10:04:05Z</time>
      </trkpt>
      <trkpt lat="44.60112" lon="5.46152">
        <ele>620.5</ele>
        <time>2021-09-06T10:04:06Z</time>
      </trkpt>
      <trkpt lat="44.60114" lon="5.46151">
        <ele>621.4</ele>
        <time>2021-09-06T10:04:07Z</time>
      </trkpt>
      <trkpt lat="44.60115" lon="5.46151">
        <ele>621.3</ele>
        <time>2021-09-06T10:04:09Z</time>
      </trkpt>
      <trkpt lat="44.60117" lon="5.46151">
        <ele>622.1</ele>
        <time>2021-09-06T10:04:11Z</time>
      </trkpt>
      <trkpt lat="44.60118" lon="5.46152">
        <ele>622.1</ele>
        <time>2021-09-06T10:04:13Z</time>
      </trkpt>
      <trkpt lat="44.60118" lon="5.46152">
        <ele>622</ele>
        <time>2021-09-06T10:04:15Z</time>
      </trkpt>
      <trkpt lat="44.60118" lon="5.46152">
        <ele>622</ele>
        <time>2021-09-06T10:04:17Z</time>
      </trkpt>
      <trkpt lat="44.60118" lon="5.46152">
        <ele>621.9</ele>
        <time>2021-09-06T10:04:18Z</time>
      </trkpt>
      <trkpt lat="44.60119" lon="5.46152">
        <ele>621.9</ele>
        <time>2021-09-06T10:04:20Z</time>
      </trkpt>
      <trkpt lat="44.60119" lon="5.46153">
        <ele>622.6</ele>
        <time>2021-09-06T10:04:22Z</time>
      </trkpt>
      <trkpt lat="44.6012" lon="5.46154">
        <ele>623</ele>
        <time>2021-09-06T10:04:23Z</time>
      </trkpt>
      <trkpt lat="44.60121" lon="5.46154">
        <ele>622.9</ele>
        <time>2021-09-06T10:04:24Z</time>
      </trkpt>
      <trkpt lat="44.60121" lon="5.46155">
        <ele>622.9</ele>
        <time>2021-09-06T10:04:25Z</time>
      </trkpt>
      <trkpt lat="44.60121" lon="5.46155">
        <ele>622.8</ele>
        <time>2021-09-06T10:04:27Z</time>
      </trkpt>
      <trkpt lat="44.60122" lon="5.46155">
        <ele>622.8</ele>
        <time>2021-09-06T10:04:28Z</time>
      </trkpt>
      <trkpt lat="44.60122" lon="5.46156">
        <ele>622.8</ele>
        <time>2021-09-06T10:04:29Z</time>
      </trkpt>
      <trkpt lat="44.60123" lon="5.46157">
        <ele>623.4</ele>
        <time>2021-09-06T10:04:31Z</time>
      </trkpt>
      <trkpt lat="44.60124" lon="5.46157">
        <ele>623.4</ele>
        <time>2021-09-06T10:04:32Z</time>
      </trkpt>
      <trkpt lat="44.60125" lon="5.46154">
        <ele>623.3</ele>
        <time>2021-09-06T10:04:34Z</time>
      </trkpt>
      <trkpt lat="44.60126" lon="5.46151">
        <ele>623.6</ele>
        <time>2021-09-06T10:04:35Z</time>
      </trkpt>
      <trkpt lat="44.60127" lon="5.46149">
        <ele>623.1</ele>
        <time>2021-09-06T10:04:37Z</time>
      </trkpt>
      <trkpt lat="44.60128" lon="5.46147">
        <ele>623</ele>
        <time>2021-09-06T10:04:38Z</time>
      </trkpt>
      <trkpt lat="44.60128" lon="5.46146">
        <ele>623</ele>
        <time>2021-09-06T10:04:39Z</time>
      </trkpt>
      <trkpt lat="44.60129" lon="5.46145">
        <ele>623.2</ele>
        <time>2021-09-06T10:04:40Z</time>
      </trkpt>
      <trkpt lat="44.60131" lon="5.46142">
        <ele>623.1</ele>
        <time>2021-09-06T10:04:42Z</time>
      </trkpt>
      <trkpt lat="44.60131" lon="5.46141">
        <ele>623.1</ele>
        <time>2021-09-06T10:04:43Z</time>
      </trkpt>
      <trkpt lat="44.60132" lon="5.4614">
        <ele>623.3</ele>
        <time>2021-09-06T10:04:44Z</time>
      </trkpt>
      <trkpt lat="44.60132" lon="5.46139">
        <ele>623.2</ele>
        <time>2021-09-06T10:04:45Z</time>
      </trkpt>
      <trkpt lat="44.60133" lon="5.46138">
        <ele>623.2</ele>
        <time>2021-09-06T10:04:46Z</time>
      </trkpt>
      <trkpt lat="44.60133" lon="5.46138">
        <ele>623.2</ele>
        <time>2021-09-06T10:04:48Z</time>
      </trkpt>
      <trkpt lat="44.60133" lon="5.46137">
        <ele>623.1</ele>
        <time>2021-09-06T10:04:49Z</time>
      </trkpt>
      <trkpt lat="44.60133" lon="5.46137">
        <ele>623.1</ele>
        <time>2021-09-06T10:04:50Z</time>
      </trkpt>
      <trkpt lat="44.60134" lon="5.46137">
        <ele>623</ele>
        <time>2021-09-06T10:04:51Z</time>
      </trkpt>
      <trkpt lat="44.60133" lon="5.46135">
        <ele>622.4</ele>
        <time>2021-09-06T10:04:53Z</time>
      </trkpt>
      <trkpt lat="44.60133" lon="5.46134">
        <ele>622.4</ele>
        <time>2021-09-06T10:04:54Z</time>
      </trkpt>
      <trkpt lat="44.60133" lon="5.46132">
        <ele>621.8</ele>
        <time>2021-09-06T10:04:55Z</time>
      </trkpt>
      <trkpt lat="44.60134" lon="5.46131">
        <ele>621.7</ele>
        <time>2021-09-06T10:04:57Z</time>
      </trkpt>
      <trkpt lat="44.60135" lon="5.4613">
        <ele>622.5</ele>
        <time>2021-09-06T10:04:58Z</time>
      </trkpt>
      <trkpt lat="44.60136" lon="5.46129">
        <ele>622.4</ele>
        <time>2021-09-06T10:05:00Z</time>
      </trkpt>
      <trkpt lat="44.60137" lon="5.46128">
        <ele>622.4</ele>
        <time>2021-09-06T10:05:01Z</time>
      </trkpt>
      <trkpt lat="44.60137" lon="5.46128">
        <ele>621.8</ele>
        <time>2021-09-06T10:05:02Z</time>
      </trkpt>
      <trkpt lat="44.60139" lon="5.46127">
        <ele>622.5</ele>
        <time>2021-09-06T10:05:03Z</time>
      </trkpt>
      <trkpt lat="44.60141" lon="5.46126">
        <ele>622.4</ele>
        <time>2021-09-06T10:05:05Z</time>
      </trkpt>
      <trkpt lat="44.60142" lon="5.46125">
        <ele>623.1</ele>
        <time>2021-09-06T10:05:06Z</time>
      </trkpt>
      <trkpt lat="44.60143" lon="5.46125">
        <ele>623.1</ele>
        <time>2021-09-06T10:05:07Z</time>
      </trkpt>
      <trkpt lat="44.60146" lon="5.46123">
        <ele>623.1</ele>
        <time>2021-09-06T10:05:08Z</time>
      </trkpt>
      <trkpt lat="44.6015" lon="5.46118">
        <ele>623.2</ele>
        <time>2021-09-06T10:05:09Z</time>
      </trkpt>
      <trkpt lat="44.60154" lon="5.46109">
        <ele>623.3</ele>
        <time>2021-09-06T10:05:10Z</time>
      </trkpt>
      <trkpt lat="44.60158" lon="5.46101">
        <ele>622.5</ele>
        <time>2021-09-06T10:05:12Z</time>
      </trkpt>
      <trkpt lat="44.6016" lon="5.46097">
        <ele>622.5</ele>
        <time>2021-09-06T10:05:13Z</time>
      </trkpt>
      <trkpt lat="44.60161" lon="5.46097">
        <ele>622.4</ele>
        <time>2021-09-06T10:05:15Z</time>
      </trkpt>
      <trkpt lat="44.60161" lon="5.46099">
        <ele>623.1</ele>
        <time>2021-09-06T10:05:16Z</time>
      </trkpt>
      <trkpt lat="44.60161" lon="5.46101">
        <ele>623.1</ele>
        <time>2021-09-06T10:05:17Z</time>
      </trkpt>
      <trkpt lat="44.60162" lon="5.4611">
        <ele>624.4</ele>
        <time>2021-09-06T10:05:19Z</time>
      </trkpt>
      <trkpt lat="44.60163" lon="5.46118">
        <ele>626.4</ele>
        <time>2021-09-06T10:05:21Z</time>
      </trkpt>
      <trkpt lat="44.60164" lon="5.46126">
        <ele>627.6</ele>
        <time>2021-09-06T10:05:22Z</time>
      </trkpt>
      <trkpt lat="44.60165" lon="5.46133">
        <ele>628.8</ele>
        <time>2021-09-06T10:05:23Z</time>
      </trkpt>
      <trkpt lat="44.60166" lon="5.46141">
        <ele>630.8</ele>
        <time>2021-09-06T10:05:24Z</time>
      </trkpt>
      <trkpt lat="44.60167" lon="5.46149">
        <ele>631.3</ele>
        <time>2021-09-06T10:05:26Z</time>
      </trkpt>
      <trkpt lat="44.60168" lon="5.46156">
        <ele>632.2</ele>
        <time>2021-09-06T10:07:02Z</time>
      </trkpt>
      <trkpt lat="44.60169" lon="5.46164">
        <ele>633.6</ele>
        <time>2021-09-06T10:07:04Z</time>
      </trkpt>
      <trkpt lat="44.6017" lon="5.46172">
        <ele>634.1</ele>
        <time>2021-09-06T10:07:06Z</time>
      </trkpt>
      <trkpt lat="44.60171" lon="5.46179">
        <ele>634.5</ele>
        <time>2021-09-06T10:07:07Z</time>
      </trkpt>
      <trkpt lat="44.60172" lon="5.46187">
        <ele>635.3</ele>
        <time>2021-09-06T10:07:08Z</time>
      </trkpt>
      <trkpt lat="44.60172" lon="5.46191">
        <ele>635.4</ele>
        <time>2021-09-06T10:07:09Z</time>
      </trkpt>
      <trkpt lat="44.60173" lon="5.46192">
        <ele>635.6</ele>
        <time>2021-09-06T10:07:11Z</time>
      </trkpt>
      <trkpt lat="44.60174" lon="5.46194">
        <ele>635.5</ele>
        <time>2021-09-06T10:07:12Z</time>
      </trkpt>
      <trkpt lat="44.60176" lon="5.462">
        <ele>636.1</ele>
        <time>2021-09-06T10:07:14Z</time>
      </trkpt>
      <trkpt lat="44.60177" lon="5.46201">
        <ele>636.6</ele>
        <time>2021-09-06T10:07:15Z</time>
      </trkpt>
      <trkpt lat="44.60178" lon="5.46203">
        <ele>636.6</ele>
        <time>2021-09-06T10:07:16Z</time>
      </trkpt>
      <trkpt lat="44.60179" lon="5.46205">
        <ele>636.5</ele>
        <time>2021-09-06T10:07:17Z</time>
      </trkpt>
      <trkpt lat="44.60177" lon="5.46207">
        <ele>636.3</ele>
        <time>2021-09-06T10:07:19Z</time>
      </trkpt>
      <trkpt lat="44.60177" lon="5.46209">
        <ele>636.2</ele>
        <time>2021-09-06T10:07:20Z</time>
      </trkpt>
      <trkpt lat="44.60177" lon="5.4621">
        <ele>636.3</ele>
        <time>2021-09-06T10:07:22Z</time>
      </trkpt>
      <trkpt lat="44.60177" lon="5.46211">
        <ele>636.3</ele>
        <time>2021-09-06T10:07:23Z</time>
      </trkpt>
      <trkpt lat="44.60177" lon="5.46212">
        <ele>636.2</ele>
        <time>2021-09-06T10:07:24Z</time>
      </trkpt>
      <trkpt lat="44.60176" lon="5.46212">
        <ele>636.2</ele>
        <time>2021-09-06T10:07:25Z</time>
      </trkpt>
      <trkpt lat="44.60174" lon="5.46211">
        <ele>635.8</ele>
        <time>2021-09-06T10:07:27Z</time>
      </trkpt>
      <trkpt lat="44.60171" lon="5.46211">
        <ele>635.7</ele>
        <time>2021-09-06T10:07:39Z</time>
      </trkpt>
      <trkpt lat="44.60169" lon="5.4621">
        <ele>635.3</ele>
        <time>2021-09-06T10:07:40Z</time>
      </trkpt>
      <trkpt lat="44.60165" lon="5.46212">
        <ele>635.1</ele>
        <time>2021-09-06T10:07:41Z</time>
      </trkpt>
      <trkpt lat="44.6016" lon="5.46217">
        <ele>634.7</ele>
        <time>2021-09-06T10:07:43Z</time>
      </trkpt>
      <trkpt lat="44.60157" lon="5.46218">
        <ele>634.6</ele>
        <time>2021-09-06T10:07:45Z</time>
      </trkpt>
      <trkpt lat="44.60156" lon="5.46218">
        <ele>634.5</ele>
        <time>2021-09-06T10:07:46Z</time>
      </trkpt>
      <trkpt lat="44.60153" lon="5.46215">
        <ele>634.3</ele>
        <time>2021-09-06T10:07:48Z</time>
      </trkpt>
      <trkpt lat="44.60152" lon="5.46214">
        <ele>634.2</ele>
        <time>2021-09-06T10:07:49Z</time>
      </trkpt>
      <trkpt lat="44.60151" lon="5.46213">
        <ele>634.2</ele>
        <time>2021-09-06T10:07:50Z</time>
      </trkpt>
      <trkpt lat="44.60107" lon="5.46226">
        <ele>631.8</ele>
        <time>2021-09-06T10:09:16Z</time>
      </trkpt>
      <trkpt lat="44.60105" lon="5.46229">
        <ele>631.6</ele>
        <time>2021-09-06T10:09:17Z</time>
      </trkpt>
      <trkpt lat="44.60099" lon="5.46231">
        <ele>631.3</ele>
        <time>2021-09-06T10:09:18Z</time>
      </trkpt>
      <trkpt lat="44.60095" lon="5.46232">
        <ele>631.1</ele>
        <time>2021-09-06T10:09:19Z</time>
      </trkpt>
      <trkpt lat="44.60091" lon="5.46235">
        <ele>630.9</ele>
        <time>2021-09-06T10:09:21Z</time>
      </trkpt>
      <trkpt lat="44.6009" lon="5.46236">
        <ele>630.8</ele>
        <time>2021-09-06T10:09:22Z</time>
      </trkpt>
      <trkpt lat="44.60089" lon="5.46237">
        <ele>630.8</ele>
        <time>2021-09-06T10:09:23Z</time>
      </trkpt>
      <trkpt lat="44.60089" lon="5.46236">
        <ele>630.8</ele>
        <time>2021-09-06T10:09:25Z</time>
      </trkpt>
      <trkpt lat="44.60089" lon="5.46236">
        <ele>630.9</ele>
        <time>2021-09-06T10:09:26Z</time>
      </trkpt>
      <trkpt lat="44.6009" lon="5.46236">
        <ele>630.9</ele>
        <time>2021-09-06T10:09:27Z</time>
      </trkpt>
      <trkpt lat="44.60091" lon="5.46235">
        <ele>630.9</ele>
        <time>2021-09-06T10:09:29Z</time>
      </trkpt>
      <trkpt lat="44.60092" lon="5.46235">
        <ele>630.9</ele>
        <time>2021-09-06T10:09:30Z</time>
      </trkpt>
      <trkpt lat="44.60093" lon="5.46235">
        <ele>631</ele>
        <time>2021-09-06T10:09:31Z</time>
      </trkpt>
      <trkpt lat="44.60204" lon="5.46245">
        <ele>637.2</ele>
        <time>2021-09-06T10:10:18Z</time>
      </trkpt>
      <trkpt lat="44.60206" lon="5.46246">
        <ele>637.2</ele>
        <time>2021-09-06T10:10:19Z</time>
      </trkpt>
      <trkpt lat="44.60218" lon="5.46247">
        <ele>637.6</ele>
        <time>2021-09-06T10:10:21Z</time>
      </trkpt>
      <trkpt lat="44.60225" lon="5.46248">
        <ele>637.7</ele>
        <time>2021-09-06T10:10:22Z</time>
      </trkpt>
      <trkpt lat="44.60237" lon="5.4625">
        <ele>637.8</ele>
        <time>2021-09-06T10:10:23Z</time>
      </trkpt>
      <trkpt lat="44.60244" lon="5.46251">
        <ele>637.9</ele>
        <time>2021-09-06T10:10:25Z</time>
      </trkpt>
      <trkpt lat="44.60246" lon="5.46251">
        <ele>637.9</ele>
        <time>2021-09-06T10:10:26Z</time>
      </trkpt>
      <trkpt lat="44.60249" lon="5.46252">
        <ele>637.9</ele>
        <time>2021-09-06T10:10:28Z</time>
      </trkpt>
      <trkpt lat="44.6025" lon="5.46254">
        <ele>638</ele>
        <time>2021-09-06T10:10:29Z</time>
      </trkpt>
      <trkpt lat="44.60249" lon="5.46256">
        <ele>638</ele>
        <time>2021-09-06T10:10:31Z</time>
      </trkpt>
      <trkpt lat="44.60249" lon="5.46256">
        <ele>638</ele>
        <time>2021-09-06T10:10:32Z</time>
      </trkpt>
      <trkpt lat="44.60248" lon="5.46257">
        <ele>638</ele>
        <time>2021-09-06T10:10:33Z</time>
      </trkpt>
      <trkpt lat="44.60275" lon="5.46327">
        <ele>638.3</ele>
        <time>2021-09-06T10:10:45Z</time>
      </trkpt>
      <trkpt lat="44.60275" lon="5.46343">
        <ele>638.4</ele>
        <time>2021-09-06T10:10:47Z</time>
      </trkpt>
      <trkpt lat="44.60276" lon="5.46352">
        <ele>638.4</ele>
        <time>2021-09-06T10:10:48Z</time>
      </trkpt>
      <trkpt lat="44.60277" lon="5.46362">
        <ele>638.4</ele>
        <time>2021-09-06T10:10:50Z</time>
      </trkpt>
      <trkpt lat="44.60277" lon="5.4637">
        <ele>638.4</ele>
        <time>2021-09-06T10:10:51Z</time>
      </trkpt>
      <trkpt lat="44.60276" lon="5.46379">
        <ele>638.5</ele>
        <time>2021-09-06T10:10:52Z</time>
      </trkpt>
      <trkpt lat="44.60273" lon="5.46394">
        <ele>638.5</ele>
        <time>2021-09-06T10:10:53Z</time>
      </trkpt>
      <trkpt lat="44.60273" lon="5.46406">
        <ele>638.6</ele>
        <time>2021-09-06T10:10:55Z</time>
      </trkpt>
      <trkpt lat="44.60275" lon="5.46413">
        <ele>638.6</ele>
        <time>2021-09-06T10:10:57Z</time>
      </trkpt>
      <trkpt lat="44.60277" lon="5.46414">
        <ele>638.7</ele>
        <time>2021-09-06T10:10:58Z</time>
      </trkpt>
      <trkpt lat="44.60279" lon="5.46415">
        <ele>638.8</ele>
        <time>2021-09-06T10:10:59Z</time>
      </trkpt>
      <trkpt lat="44.60281" lon="5.46418">
        <ele>638.8</ele>
        <time>2021-09-06T10:11:00Z</time>
      </trkpt>
      <trkpt lat="44.60281" lon="5.46425">
        <ele>638.9</ele>
        <time>2021-09-06T10:11:02Z</time>
      </trkpt>
      <trkpt lat="44.60279" lon="5.46439">
        <ele>639.2</ele>
        <time>2021-09-06T10:11:04Z</time>
      </trkpt>
      <trkpt lat="44.60277" lon="5.46447">
        <ele>639.3</ele>
        <time>2021-09-06T10:11:06Z</time>
      </trkpt>
      <trkpt lat="44.60274" lon="5.46457">
        <ele>639.5</ele>
        <time>2021-09-06T10:11:07Z</time>
      </trkpt>
      <trkpt lat="44.60273" lon="5.46465">
        <ele>639.6</ele>
        <time>2021-09-06T10:11:09Z</time>
      </trkpt>
      <trkpt lat="44.6027" lon="5.46469">
        <ele>639.7</ele>
        <time>2021-09-06T10:11:10Z</time>
      </trkpt>
      <trkpt lat="44.60263" lon="5.46469">
        <ele>639.8</ele>
        <time>2021-09-06T10:11:12Z</time>
      </trkpt>
      <trkpt lat="44.60259" lon="5.46472">
        <ele>639.9</ele>
        <time>2021-09-06T10:11:14Z</time>
      </trkpt>
      <trkpt lat="44.60256" lon="5.46476">
        <ele>640</ele>
        <time>2021-09-06T10:11:15Z</time>
      </trkpt>
      <trkpt lat="44.60255" lon="5.46478">
        <ele>640</ele>
        <time>2021-09-06T10:11:16Z</time>
      </trkpt>
      <trkpt lat="44.60253" lon="5.46479">
        <ele>640.1</ele>
        <time>2021-09-06T10:11:18Z</time>
      </trkpt>
      <trkpt lat="44.60247" lon="5.46482">
        <ele>640.4</ele>
        <time>2021-09-06T10:11:19Z</time>
      </trkpt>
      <trkpt lat="44.60243" lon="5.46485">
        <ele>640.5</ele>
        <time>2021-09-06T10:11:22Z</time>
      </trkpt>
      <trkpt lat="44.60238" lon="5.46488">
        <ele>640.7</ele>
        <time>2021-09-06T10:11:23Z</time>
      </trkpt>
      <trkpt lat="44.60231" lon="5.46496">
        <ele>640.8</ele>
        <time>2021-09-06T10:11:24Z</time>
      </trkpt>
      <trkpt lat="44.60223" lon="5.46507">
        <ele>640.9</ele>
        <time>2021-09-06T10:11:26Z</time>
      </trkpt>
      <trkpt lat="44.60218" lon="5.46512">
        <ele>640.9</ele>
        <time>2021-09-06T10:11:27Z</time>
      </trkpt>
      <trkpt lat="44.60213" lon="5.46516">
        <ele>640.9</ele>
        <time>2021-09-06T10:11:28Z</time>
      </trkpt>
      <trkpt lat="44.60209" lon="5.4652">
        <ele>640.9</ele>
        <time>2021-09-06T10:11:29Z</time>
      </trkpt>
      <trkpt lat="44.60192" lon="5.46532">
        <ele>640.8</ele>
        <time>2021-09-06T10:11:31Z</time>
      </trkpt>
      <trkpt lat="44.60184" lon="5.46537">
        <ele>640.7</ele>
        <time>2021-09-06T10:11:33Z</time>
      </trkpt>
      <trkpt lat="44.6018" lon="5.46537">
        <ele>640.7</ele>
        <time>2021-09-06T10:11:34Z</time>
      </trkpt>
      <trkpt lat="44.60174" lon="5.46542">
        <ele>640.6</ele>
        <time>2021-09-06T10:11:36Z</time>
      </trkpt>
      <trkpt lat="44.60171" lon="5.46545">
        <ele>640.6</ele>
        <time>2021-09-06T10:11:37Z</time>
      </trkpt>
      <trkpt lat="44.60168" lon="5.46549">
        <ele>640.5</ele>
        <time>2021-09-06T10:11:38Z</time>
      </trkpt>
      <trkpt lat="44.60165" lon="5.46551">
        <ele>640.5</ele>
        <time>2021-09-06T10:11:39Z</time>
      </trkpt>
      <trkpt lat="44.60161" lon="5.46554">
        <ele>640.4</ele>
        <time>2021-09-06T10:11:40Z</time>
      </trkpt>
      <trkpt lat="44.60159" lon="5.46555">
        <ele>640.4</ele>
        <time>2021-09-06T10:11:41Z</time>
      </trkpt>
      <trkpt lat="44.60156" lon="5.46558">
        <ele>640.3</ele>
        <time>2021-09-06T10:11:42Z</time>
      </trkpt>
      <trkpt lat="44.60153" lon="5.46561">
        <ele>640.3</ele>
        <time>2021-09-06T10:11:43Z</time>
      </trkpt>
      <trkpt lat="44.60149" lon="5.46564">
        <ele>640.2</ele>
        <time>2021-09-06T10:11:44Z</time>
      </trkpt>
      <trkpt lat="44.60145" lon="5.46567">
        <ele>640.2</ele>
        <time>2021-09-06T10:11:45Z</time>
      </trkpt>
      <trkpt lat="44.60141" lon="5.4657">
        <ele>640.1</ele>
        <time>2021-09-06T10:11:46Z</time>
      </trkpt>
      <trkpt lat="44.60133" lon="5.46575">
        <ele>640</ele>
        <time>2021-09-06T10:11:48Z</time>
      </trkpt>
      <trkpt lat="44.60128" lon="5.46578">
        <ele>639.9</ele>
        <time>2021-09-06T10:11:49Z</time>
      </trkpt>
      <trkpt lat="44.60121" lon="5.46586">
        <ele>639.8</ele>
        <time>2021-09-06T10:11:51Z</time>
      </trkpt>
      <trkpt lat="44.60116" lon="5.46591">
        <ele>639.7</ele>
        <time>2021-09-06T10:11:52Z</time>
      </trkpt>
      <trkpt lat="44.60113" lon="5.46595">
        <ele>639.6</ele>
        <time>2021-09-06T10:11:54Z</time>
      </trkpt>
      <trkpt lat="44.60107" lon="5.46606">
        <ele>639.5</ele>
        <time>2021-09-06T10:11:56Z</time>
      </trkpt>
      <trkpt lat="44.60104" lon="5.4661">
        <ele>639.4</ele>
        <time>2021-09-06T10:11:57Z</time>
      </trkpt>
      <trkpt lat="44.60101" lon="5.46613">
        <ele>639.4</ele>
        <time>2021-09-06T10:11:58Z</time>
      </trkpt>
      <trkpt lat="44.60095" lon="5.46623">
        <ele>639.3</ele>
        <time>2021-09-06T10:12:00Z</time>
      </trkpt>
      <trkpt lat="44.60084" lon="5.46634">
        <ele>639.1</ele>
        <time>2021-09-06T10:12:02Z</time>
      </trkpt>
      <trkpt lat="44.60078" lon="5.46639">
        <ele>639.1</ele>
        <time>2021-09-06T10:12:03Z</time>
      </trkpt>
      <trkpt lat="44.60069" lon="5.46651">
        <ele>638.9</ele>
        <time>2021-09-06T10:12:05Z</time>
      </trkpt>
      <trkpt lat="44.60064" lon="5.46657">
        <ele>638.8</ele>
        <time>2021-09-06T10:12:06Z</time>
      </trkpt>
      <trkpt lat="44.60059" lon="5.46662">
        <ele>638.8</ele>
        <time>2021-09-06T10:12:07Z</time>
      </trkpt>
      <trkpt lat="44.60051" lon="5.46674">
        <ele>638.7</ele>
        <time>2021-09-06T10:12:09Z</time>
      </trkpt>
      <trkpt lat="44.60047" lon="5.46678">
        <ele>638.7</ele>
        <time>2021-09-06T10:12:10Z</time>
      </trkpt>
      <trkpt lat="44.60042" lon="5.46682">
        <ele>638.7</ele>
        <time>2021-09-06T10:12:11Z</time>
      </trkpt>
      <trkpt lat="44.60035" lon="5.46672">
        <ele>638.9</ele>
        <time>2021-09-06T10:12:13Z</time>
      </trkpt>
      <trkpt lat="44.60032" lon="5.46665">
        <ele>639</ele>
        <time>2021-09-06T10:12:14Z</time>
      </trkpt>
      <trkpt lat="44.60031" lon="5.46652">
        <ele>639.2</ele>
        <time>2021-09-06T10:12:16Z</time>
      </trkpt>
      <trkpt lat="44.6003" lon="5.46644">
        <ele>639.4</ele>
        <time>2021-09-06T10:12:17Z</time>
      </trkpt>
      <trkpt lat="44.60027" lon="5.46636">
        <ele>639.6</ele>
        <time>2021-09-06T10:12:18Z</time>
      </trkpt>
      <trkpt lat="44.60027" lon="5.46634">
        <ele>639.7</ele>
        <time>2021-09-06T10:12:19Z</time>
      </trkpt>
      <trkpt lat="44.60026" lon="5.46631">
        <ele>639.8</ele>
        <time>2021-09-06T10:12:21Z</time>
      </trkpt>
      <trkpt lat="44.60022" lon="5.46616">
        <ele>640.4</ele>
        <time>2021-09-06T10:12:23Z</time>
      </trkpt>
      <trkpt lat="44.6002" lon="5.46606">
        <ele>641</ele>
        <time>2021-09-06T10:12:25Z</time>
      </trkpt>
      <trkpt lat="44.60019" lon="5.466">
        <ele>641.4</ele>
        <time>2021-09-06T10:12:26Z</time>
      </trkpt>
      <trkpt lat="44.60016" lon="5.4659">
        <ele>641.9</ele>
        <time>2021-09-06T10:12:28Z</time>
      </trkpt>
      <trkpt lat="44.60016" lon="5.46586">
        <ele>642.1</ele>
        <time>2021-09-06T10:12:29Z</time>
      </trkpt>
      <trkpt lat="44.60016" lon="5.46582">
        <ele>642.3</ele>
        <time>2021-09-06T10:12:30Z</time>
      </trkpt>
      <trkpt lat="44.60016" lon="5.46578">
        <ele>642.5</ele>
        <time>2021-09-06T10:12:31Z</time>
      </trkpt>
      <trkpt lat="44.60015" lon="5.46576">
        <ele>642.6</ele>
        <time>2021-09-06T10:12:32Z</time>
      </trkpt>
      <trkpt lat="44.60014" lon="5.46574">
        <ele>642.7</ele>
        <time>2021-09-06T10:12:34Z</time>
      </trkpt>
      <trkpt lat="44.60013" lon="5.46572">
        <ele>642</ele>
        <time>2021-09-06T10:12:35Z</time>
      </trkpt>
      <trkpt lat="44.60011" lon="5.46567">
        <ele>641.7</ele>
        <time>2021-09-06T10:12:36Z</time>
      </trkpt>
      <trkpt lat="44.60006" lon="5.46562">
        <ele>641.3</ele>
        <time>2021-09-06T10:12:38Z</time>
      </trkpt>
      <trkpt lat="44.60003" lon="5.46559">
        <ele>641.2</ele>
        <time>2021-09-06T10:12:39Z</time>
      </trkpt>
      <trkpt lat="44.59999" lon="5.46557">
        <ele>641.1</ele>
        <time>2021-09-06T10:12:41Z</time>
      </trkpt>
      <trkpt lat="44.59903" lon="5.46547">
        <ele>640.4</ele>
        <time>2021-09-06T10:13:41Z</time>
      </trkpt>
      <trkpt lat="44.59902" lon="5.46545">
        <ele>640.4</ele>
        <time>2021-09-06T10:13:42Z</time>
      </trkpt>
      <trkpt lat="44.59901" lon="5.46545">
        <ele>640.4</ele>
        <time>2021-09-06T10:13:44Z</time>
      </trkpt>
      <trkpt lat="44.599" lon="5.46543">
        <ele>640.4</ele>
        <time>2021-09-06T10:13:45Z</time>
      </trkpt>
      <trkpt lat="44.599" lon="5.46543">
        <ele>640.4</ele>
        <time>2021-09-06T10:13:47Z</time>
      </trkpt>
      <trkpt lat="44.599" lon="5.46543">
        <ele>640.4</ele>
        <time>2021-09-06T10:13:48Z</time>
      </trkpt>
      <trkpt lat="44.59899" lon="5.46542">
        <ele>640.3</ele>
        <time>2021-09-06T10:13:49Z</time>
      </trkpt>
      <trkpt lat="44.59893" lon="5.46541">
        <ele>640.3</ele>
        <time>2021-09-06T10:13:51Z</time>
      </trkpt>
      <trkpt lat="44.5989" lon="5.46541">
        <ele>640.3</ele>
        <time>2021-09-06T10:13:52Z</time>
      </trkpt>
      <trkpt lat="44.59867" lon="5.46547">
        <ele>640.1</ele>
        <time>2021-09-06T10:13:54Z</time>
      </trkpt>
      <trkpt lat="44.59862" lon="5.46548">
        <ele>640.1</ele>
        <time>2021-09-06T10:13:55Z</time>
      </trkpt>
      <trkpt lat="44.59847" lon="5.46546">
        <ele>640</ele>
        <time>2021-09-06T10:14:07Z</time>
      </trkpt>
      <trkpt lat="44.59842" lon="5.46548">
        <ele>640.1</ele>
        <time>2021-09-06T10:14:09Z</time>
      </trkpt>
      <trkpt lat="44.59838" lon="5.46551">
        <ele>640.1</ele>
        <time>2021-09-06T10:14:10Z</time>
      </trkpt>
      <trkpt lat="44.59836" lon="5.46552">
        <ele>640.1</ele>
        <time>2021-09-06T10:14:11Z</time>
      </trkpt>
      <trkpt lat="44.59831" lon="5.46553">
        <ele>640.1</ele>
        <time>2021-09-06T10:14:13Z</time>
      </trkpt>
      <trkpt lat="44.5983" lon="5.46553">
        <ele>640.2</ele>
        <time>2021-09-06T10:14:14Z</time>
      </trkpt>
      <trkpt lat="44.59828" lon="5.46553">
        <ele>640.2</ele>
        <time>2021-09-06T10:14:15Z</time>
      </trkpt>
      <trkpt lat="44.59826" lon="5.46552">
        <ele>640.2</ele>
        <time>2021-09-06T10:14:16Z</time>
      </trkpt>
      <trkpt lat="44.59825" lon="5.46551">
        <ele>640.2</ele>
        <time>2021-09-06T10:14:17Z</time>
      </trkpt>
      <trkpt lat="44.59824" lon="5.4655">
        <ele>640.2</ele>
        <time>2021-09-06T10:14:18Z</time>
      </trkpt>
      <trkpt lat="44.59823" lon="5.4655">
        <ele>640.2</ele>
        <time>2021-09-06T10:14:20Z</time>
      </trkpt>
      <trkpt lat="44.59786" lon="5.46553">
        <ele>640.1</ele>
        <time>2021-09-06T10:14:59Z</time>
      </trkpt>
      <trkpt lat="44.59783" lon="5.46556">
        <ele>640.1</ele>
        <time>2021-09-06T10:15:00Z</time>
      </trkpt>
      <trkpt lat="44.59778" lon="5.46562">
        <ele>640.1</ele>
        <time>2021-09-06T10:15:01Z</time>
      </trkpt>
      <trkpt lat="44.59773" lon="5.46568">
        <ele>640.1</ele>
        <time>2021-09-06T10:15:03Z</time>
      </trkpt>
      <trkpt lat="44.59769" lon="5.46573">
        <ele>640.1</ele>
        <time>2021-09-06T10:15:04Z</time>
      </trkpt>
      <trkpt lat="44.59766" lon="5.46577">
        <ele>640.1</ele>
        <time>2021-09-06T10:15:05Z</time>
      </trkpt>
      <trkpt lat="44.59762" lon="5.46582">
        <ele>640.1</ele>
        <time>2021-09-06T10:15:06Z</time>
      </trkpt>
      <trkpt lat="44.59759" lon="5.46586">
        <ele>640.1</ele>
        <time>2021-09-06T10:15:07Z</time>
      </trkpt>
      <trkpt lat="44.59754" lon="5.46594">
        <ele>640.1</ele>
        <time>2021-09-06T10:15:09Z</time>
      </trkpt>
      <trkpt lat="44.59751" lon="5.466">
        <ele>640.1</ele>
        <time>2021-09-06T10:15:12Z</time>
      </trkpt>
      <trkpt lat="44.5975" lon="5.46601">
        <ele>640.1</ele>
        <time>2021-09-06T10:15:14Z</time>
      </trkpt>
      <trkpt lat="44.59749" lon="5.46603">
        <ele>640.1</ele>
        <time>2021-09-06T10:15:15Z</time>
      </trkpt>
      <trkpt lat="44.59746" lon="5.46606">
        <ele>640.1</ele>
        <time>2021-09-06T10:15:17Z</time>
      </trkpt>
      <trkpt lat="44.59745" lon="5.46607">
        <ele>640.4</ele>
        <time>2021-09-06T10:15:18Z</time>
      </trkpt>
      <trkpt lat="44.59744" lon="5.46608">
        <ele>640.7</ele>
        <time>2021-09-06T10:15:19Z</time>
      </trkpt>
      <trkpt lat="44.59743" lon="5.4661">
        <ele>640.3</ele>
        <time>2021-09-06T10:15:21Z</time>
      </trkpt>
      <trkpt lat="44.59739" lon="5.46618">
        <ele>638.9</ele>
        <time>2021-09-06T10:15:26Z</time>
      </trkpt>
      <trkpt lat="44.59738" lon="5.46621">
        <ele>639.2</ele>
        <time>2021-09-06T10:15:27Z</time>
      </trkpt>
      <trkpt lat="44.59734" lon="5.46624">
        <ele>638.9</ele>
        <time>2021-09-06T10:15:29Z</time>
      </trkpt>
      <trkpt lat="44.59727" lon="5.46615">
        <ele>641.4</ele>
        <time>2021-09-06T10:15:31Z</time>
      </trkpt>
      <trkpt lat="44.59723" lon="5.46612">
        <ele>642.9</ele>
        <time>2021-09-06T10:15:33Z</time>
      </trkpt>
      <trkpt lat="44.5972" lon="5.46612">
        <ele>643.3</ele>
        <time>2021-09-06T10:15:35Z</time>
      </trkpt>
      <trkpt lat="44.59718" lon="5.46612">
        <ele>643.7</ele>
        <time>2021-09-06T10:15:37Z</time>
      </trkpt>
      <trkpt lat="44.59649" lon="5.46623">
        <ele>641</ele>
        <time>2021-09-06T10:16:25Z</time>
      </trkpt>
      <trkpt lat="44.59641" lon="5.46622">
        <ele>640.8</ele>
        <time>2021-09-06T10:16:28Z</time>
      </trkpt>
      <trkpt lat="44.59638" lon="5.46619">
        <ele>641.7</ele>
        <time>2021-09-06T10:16:29Z</time>
      </trkpt>
      <trkpt lat="44.59636" lon="5.46615">
        <ele>642.7</ele>
        <time>2021-09-06T10:16:31Z</time>
      </trkpt>
      <trkpt lat="44.59636" lon="5.46614">
        <ele>642.9</ele>
        <time>2021-09-06T10:16:32Z</time>
      </trkpt>
      <trkpt lat="44.59636" lon="5.46612">
        <ele>644.1</ele>
        <time>2021-09-06T10:16:33Z</time>
      </trkpt>
      <trkpt lat="44.59636" lon="5.46611">
        <ele>644.3</ele>
        <time>2021-09-06T10:16:35Z</time>
      </trkpt>
      <trkpt lat="44.59636" lon="5.4661">
        <ele>644.6</ele>
        <time>2021-09-06T10:16:36Z</time>
      </trkpt>
      <trkpt lat="44.59636" lon="5.46608">
        <ele>645.8</ele>
        <time>2021-09-06T10:16:38Z</time>
      </trkpt>
      <trkpt lat="44.59648" lon="5.46332">
        <ele>692.7</ele>
        <time>2021-09-06T10:23:18Z</time>
      </trkpt>
      <trkpt lat="44.59647" lon="5.46327">
        <ele>692.6</ele>
        <time>2021-09-06T10:23:19Z</time>
      </trkpt>
      <trkpt lat="44.59637" lon="5.46277">
        <ele>684.9</ele>
        <time>2021-09-06T10:23:20Z</time>
      </trkpt>
      <trkpt lat="44.59636" lon="5.46273">
        <ele>684.3</ele>
        <time>2021-09-06T10:23:21Z</time>
      </trkpt>
      <trkpt lat="44.59633" lon="5.46235">
        <ele>682.2</ele>
        <time>2021-09-06T10:23:22Z</time>
      </trkpt>
      <trkpt lat="44.59633" lon="5.46219">
        <ele>682.2</ele>
        <time>2021-09-06T10:23:24Z</time>
      </trkpt>
      <trkpt lat="44.59634" lon="5.46208">
        <ele>681.1</ele>
        <time>2021-09-06T10:23:25Z</time>
      </trkpt>
      <trkpt lat="44.59635" lon="5.46192">
        <ele>679.4</ele>
        <time>2021-09-06T10:23:26Z</time>
      </trkpt>
      <trkpt lat="44.59634" lon="5.46184">
        <ele>679.1</ele>
        <time>2021-09-06T10:23:27Z</time>
      </trkpt>
      <trkpt lat="44.59633" lon="5.46178">
        <ele>679.3</ele>
        <time>2021-09-06T10:23:29Z</time>
      </trkpt>
      <trkpt lat="44.5963" lon="5.46171">
        <ele>680</ele>
        <time>2021-09-06T10:23:30Z</time>
      </trkpt>
      <trkpt lat="44.59627" lon="5.46161">
        <ele>680</ele>
        <time>2021-09-06T10:23:31Z</time>
      </trkpt>
      <trkpt lat="44.59626" lon="5.46159">
        <ele>680.3</ele>
        <time>2021-09-06T10:23:32Z</time>
      </trkpt>
      <trkpt lat="44.59622" lon="5.46152">
        <ele>680.7</ele>
        <time>2021-09-06T10:23:34Z</time>
      </trkpt>
      <trkpt lat="44.59619" lon="5.46143">
        <ele>681.2</ele>
        <time>2021-09-06T10:23:35Z</time>
      </trkpt>
      <trkpt lat="44.59619" lon="5.46138">
        <ele>681.3</ele>
        <time>2021-09-06T10:23:36Z</time>
      </trkpt>
      <trkpt lat="44.59619" lon="5.46132">
        <ele>681.5</ele>
        <time>2021-09-06T10:23:38Z</time>
      </trkpt>
      <trkpt lat="44.5962" lon="5.46126">
        <ele>681.7</ele>
        <time>2021-09-06T10:23:39Z</time>
      </trkpt>
      <trkpt lat="44.59621" lon="5.46122">
        <ele>682</ele>
        <time>2021-09-06T10:23:40Z</time>
      </trkpt>
      <trkpt lat="44.59621" lon="5.46119">
        <ele>682.3</ele>
        <time>2021-09-06T10:23:41Z</time>
      </trkpt>
      <trkpt lat="44.5959" lon="5.46007">
        <ele>693.7</ele>
        <time>2021-09-06T10:24:20Z</time>
      </trkpt>
      <trkpt lat="44.59589" lon="5.46">
        <ele>694.3</ele>
        <time>2021-09-06T10:24:22Z</time>
      </trkpt>
      <trkpt lat="44.5959" lon="5.45994">
        <ele>695.2</ele>
        <time>2021-09-06T10:24:23Z</time>
      </trkpt>
      <trkpt lat="44.59591" lon="5.45989">
        <ele>695.4</ele>
        <time>2021-09-06T10:24:24Z</time>
      </trkpt>
      <trkpt lat="44.59592" lon="5.45981">
        <ele>696.2</ele>
        <time>2021-09-06T10:24:26Z</time>
      </trkpt>
      <trkpt lat="44.59591" lon="5.45974">
        <ele>696.7</ele>
        <time>2021-09-06T10:24:27Z</time>
      </trkpt>
      <trkpt lat="44.59588" lon="5.45967">
        <ele>697.5</ele>
        <time>2021-09-06T10:24:28Z</time>
      </trkpt>
      <trkpt lat="44.59586" lon="5.45961">
        <ele>698.1</ele>
        <time>2021-09-06T10:24:29Z</time>
      </trkpt>
      <trkpt lat="44.59583" lon="5.45955">
        <ele>698.7</ele>
        <time>2021-09-06T10:24:31Z</time>
      </trkpt>
      <trkpt lat="44.59577" lon="5.45951">
        <ele>699</ele>
        <time>2021-09-06T10:24:32Z</time>
      </trkpt>
      <trkpt lat="44.59572" lon="5.45947">
        <ele>699</ele>
        <time>2021-09-06T10:24:34Z</time>
      </trkpt>
      <trkpt lat="44.59568" lon="5.45943">
        <ele>699.2</ele>
        <time>2021-09-06T10:24:35Z</time>
      </trkpt>
      <trkpt lat="44.59565" lon="5.45942">
        <ele>699.3</ele>
        <time>2021-09-06T10:24:36Z</time>
      </trkpt>
      <trkpt lat="44.59563" lon="5.45941">
        <ele>699.6</ele>
        <time>2021-09-06T10:24:37Z</time>
      </trkpt>
      <trkpt lat="44.5956" lon="5.45938">
        <ele>699.5</ele>
        <time>2021-09-06T10:24:39Z</time>
      </trkpt>
      <trkpt lat="44.59557" lon="5.45935">
        <ele>699.8</ele>
        <time>2021-09-06T10:24:40Z</time>
      </trkpt>
      <trkpt lat="44.59556" lon="5.45934">
        <ele>699.9</ele>
        <time>2021-09-06T10:24:41Z</time>
      </trkpt>
      <trkpt lat="44.59554" lon="5.45932">
        <ele>700</ele>
        <time>2021-09-06T10:24:43Z</time>
      </trkpt>
      <trkpt lat="44.59549" lon="5.45929">
        <ele>699.9</ele>
        <time>2021-09-06T10:24:45Z</time>
      </trkpt>
      <trkpt lat="44.59471" lon="5.45895">
        <ele>692.7</ele>
        <time>2021-09-06T10:25:04Z</time>
      </trkpt>
      <trkpt lat="44.59459" lon="5.45898">
        <ele>691.9</ele>
        <time>2021-09-06T10:25:06Z</time>
      </trkpt>
      <trkpt lat="44.59453" lon="5.45901">
        <ele>691.5</ele>
        <time>2021-09-06T10:25:07Z</time>
      </trkpt>
      <trkpt lat="44.59447" lon="5.45904">
        <ele>691.5</ele>
        <time>2021-09-06T10:25:08Z</time>
      </trkpt>
      <trkpt lat="44.59442" lon="5.45907">
        <ele>691.5</ele>
        <time>2021-09-06T10:25:09Z</time>
      </trkpt>
      <trkpt lat="44.59438" lon="5.45912">
        <ele>691.5</ele>
        <time>2021-09-06T10:25:10Z</time>
      </trkpt>
      <trkpt lat="44.59431" lon="5.45918">
        <ele>691.5</ele>
        <time>2021-09-06T10:25:12Z</time>
      </trkpt>
      <trkpt lat="44.59427" lon="5.45922">
        <ele>691.5</ele>
        <time>2021-09-06T10:25:13Z</time>
      </trkpt>
      <trkpt lat="44.59424" lon="5.45924">
        <ele>691.6</ele>
        <time>2021-09-06T10:25:14Z</time>
      </trkpt>
      <trkpt lat="44.59425" lon="5.45921">
        <ele>691.6</ele>
        <time>2021-09-06T10:25:16Z</time>
      </trkpt>
      <trkpt lat="44.59425" lon="5.45919">
        <ele>691.6</ele>
        <time>2021-09-06T10:25:17Z</time>
      </trkpt>
      <trkpt lat="44.59426" lon="5.45913">
        <ele>691.6</ele>
        <time>2021-09-06T10:25:19Z</time>
      </trkpt>
      <trkpt lat="44.59424" lon="5.45912">
        <ele>691.6</ele>
        <time>2021-09-06T10:25:20Z</time>
      </trkpt>
      <trkpt lat="44.59423" lon="5.45913">
        <ele>691.7</ele>
        <time>2021-09-06T10:25:21Z</time>
      </trkpt>
      <trkpt lat="44.59413" lon="5.45914">
        <ele>691.8</ele>
        <time>2021-09-06T10:25:23Z</time>
      </trkpt>
      <trkpt lat="44.59382" lon="5.45923">
        <ele>691.8</ele>
        <time>2021-09-06T10:25:24Z</time>
      </trkpt>
      <trkpt lat="44.59376" lon="5.45925">
        <ele>692</ele>
        <time>2021-09-06T10:25:25Z</time>
      </trkpt>
      <trkpt lat="44.59371" lon="5.45926">
        <ele>692.1</ele>
        <time>2021-09-06T10:25:26Z</time>
      </trkpt>
      <trkpt lat="44.59365" lon="5.45928">
        <ele>692.5</ele>
        <time>2021-09-06T10:25:28Z</time>
      </trkpt>
      <trkpt lat="44.5936" lon="5.45929">
        <ele>692.7</ele>
        <time>2021-09-06T10:25:29Z</time>
      </trkpt>
      <trkpt lat="44.59354" lon="5.4593">
        <ele>693.1</ele>
        <time>2021-09-06T10:25:31Z</time>
      </trkpt>
      <trkpt lat="44.5935" lon="5.4593">
        <ele>693.3</ele>
        <time>2021-09-06T10:25:32Z</time>
      </trkpt>
      <trkpt lat="44.59347" lon="5.45929">
        <ele>693.5</ele>
        <time>2021-09-06T10:25:33Z</time>
      </trkpt>
      <trkpt lat="44.59342" lon="5.45928">
        <ele>693.8</ele>
        <time>2021-09-06T10:25:35Z</time>
      </trkpt>
      <trkpt lat="44.59337" lon="5.45926">
        <ele>694.2</ele>
        <time>2021-09-06T10:25:36Z</time>
      </trkpt>
      <trkpt lat="44.59333" lon="5.45926">
        <ele>694.5</ele>
        <time>2021-09-06T10:25:38Z</time>
      </trkpt>
      <trkpt lat="44.59329" lon="5.45924">
        <ele>694.8</ele>
        <time>2021-09-06T10:25:39Z</time>
      </trkpt>
      <trkpt lat="44.59328" lon="5.45924">
        <ele>695</ele>
        <time>2021-09-06T10:25:40Z</time>
      </trkpt>
      <trkpt lat="44.59325" lon="5.45924">
        <ele>695.2</ele>
        <time>2021-09-06T10:25:41Z</time>
      </trkpt>
      <trkpt lat="44.59324" lon="5.45923">
        <ele>695.3</ele>
        <time>2021-09-06T10:25:42Z</time>
      </trkpt>
      <trkpt lat="44.59321" lon="5.45924">
        <ele>695.5</ele>
        <time>2021-09-06T10:25:44Z</time>
      </trkpt>
      <trkpt lat="44.59318" lon="5.45923">
        <ele>695.7</ele>
        <time>2021-09-06T10:25:45Z</time>
      </trkpt>
      <trkpt lat="44.59317" lon="5.45924">
        <ele>695.8</ele>
        <time>2021-09-06T10:25:47Z</time>
      </trkpt>
      <trkpt lat="44.59314" lon="5.45924">
        <ele>696</ele>
        <time>2021-09-06T10:25:49Z</time>
      </trkpt>
      <trkpt lat="44.5931" lon="5.45926">
        <ele>696.2</ele>
        <time>2021-09-06T10:25:50Z</time>
      </trkpt>
      <trkpt lat="44.59308" lon="5.45926">
        <ele>696.3</ele>
        <time>2021-09-06T10:25:51Z</time>
      </trkpt>
      <trkpt lat="44.59305" lon="5.45927">
        <ele>696.5</ele>
        <time>2021-09-06T10:25:52Z</time>
      </trkpt>
      <trkpt lat="44.59301" lon="5.45927">
        <ele>696.7</ele>
        <time>2021-09-06T10:25:54Z</time>
      </trkpt>
      <trkpt lat="44.59295" lon="5.45926">
        <ele>697</ele>
        <time>2021-09-06T10:25:55Z</time>
      </trkpt>
      <trkpt lat="44.59289" lon="5.45927">
        <ele>697.3</ele>
        <time>2021-09-06T10:25:56Z</time>
      </trkpt>
      <trkpt lat="44.59285" lon="5.45929">
        <ele>697.7</ele>
        <time>2021-09-06T10:25:57Z</time>
      </trkpt>
      <trkpt lat="44.59282" lon="5.45931">
        <ele>697.9</ele>
        <time>2021-09-06T10:25:58Z</time>
      </trkpt>
      <trkpt lat="44.59279" lon="5.45935">
        <ele>698.3</ele>
        <time>2021-09-06T10:26:00Z</time>
      </trkpt>
      <trkpt lat="44.59279" lon="5.45938">
        <ele>698.5</ele>
        <time>2021-09-06T10:26:02Z</time>
      </trkpt>
      <trkpt lat="44.5928" lon="5.45939">
        <ele>698.7</ele>
        <time>2021-09-06T10:26:03Z</time>
      </trkpt>
      <trkpt lat="44.59281" lon="5.4594">
        <ele>698.7</ele>
        <time>2021-09-06T10:26:04Z</time>
      </trkpt>
      <trkpt lat="44.59281" lon="5.4594">
        <ele>698.8</ele>
        <time>2021-09-06T10:26:05Z</time>
      </trkpt>
      <trkpt lat="44.59281" lon="5.45941">
        <ele>698.8</ele>
        <time>2021-09-06T10:26:07Z</time>
      </trkpt>
      <trkpt lat="44.5928" lon="5.45942">
        <ele>699</ele>
        <time>2021-09-06T10:26:09Z</time>
      </trkpt>
      <trkpt lat="44.59279" lon="5.45943">
        <ele>699.1</ele>
        <time>2021-09-06T10:26:10Z</time>
      </trkpt>
      <trkpt lat="44.59261" lon="5.4596">
        <ele>700.9</ele>
        <time>2021-09-06T10:26:21Z</time>
      </trkpt>
      <trkpt lat="44.5926" lon="5.45963">
        <ele>701</ele>
        <time>2021-09-06T10:26:22Z</time>
      </trkpt>
      <trkpt lat="44.5926" lon="5.45967">
        <ele>701.3</ele>
        <time>2021-09-06T10:26:24Z</time>
      </trkpt>
      <trkpt lat="44.59261" lon="5.45975">
        <ele>701.6</ele>
        <time>2021-09-06T10:26:26Z</time>
      </trkpt>
      <trkpt lat="44.59261" lon="5.45977">
        <ele>701.7</ele>
        <time>2021-09-06T10:26:27Z</time>
      </trkpt>
      <trkpt lat="44.59261" lon="5.45978">
        <ele>701.7</ele>
        <time>2021-09-06T10:26:28Z</time>
      </trkpt>
      <trkpt lat="44.59261" lon="5.4598">
        <ele>701.9</ele>
        <time>2021-09-06T10:26:30Z</time>
      </trkpt>
      <trkpt lat="44.59261" lon="5.45982">
        <ele>702</ele>
        <time>2021-09-06T10:26:31Z</time>
      </trkpt>
      <trkpt lat="44.59262" lon="5.45984">
        <ele>702.1</ele>
        <time>2021-09-06T10:26:33Z</time>
      </trkpt>
      <trkpt lat="44.59263" lon="5.46013">
        <ele>703.8</ele>
        <time>2021-09-06T10:26:48Z</time>
      </trkpt>
      <trkpt lat="44.59262" lon="5.46018">
        <ele>704.1</ele>
        <time>2021-09-06T10:26:49Z</time>
      </trkpt>
      <trkpt lat="44.59261" lon="5.46022">
        <ele>704.4</ele>
        <time>2021-09-06T10:26:50Z</time>
      </trkpt>
      <trkpt lat="44.59261" lon="5.46023">
        <ele>704.5</ele>
        <time>2021-09-06T10:26:51Z</time>
      </trkpt>
      <trkpt lat="44.5926" lon="5.46025">
        <ele>704.6</ele>
        <time>2021-09-06T10:26:52Z</time>
      </trkpt>
      <trkpt lat="44.59259" lon="5.46027">
        <ele>704.7</ele>
        <time>2021-09-06T10:26:54Z</time>
      </trkpt>
      <trkpt lat="44.59259" lon="5.46028">
        <ele>704.8</ele>
        <time>2021-09-06T10:26:55Z</time>
      </trkpt>
      <trkpt lat="44.59258" lon="5.4603">
        <ele>705</ele>
        <time>2021-09-06T10:26:56Z</time>
      </trkpt>
      <trkpt lat="44.59257" lon="5.46032">
        <ele>705.1</ele>
        <time>2021-09-06T10:26:57Z</time>
      </trkpt>
      <trkpt lat="44.59256" lon="5.46034">
        <ele>705.2</ele>
        <time>2021-09-06T10:26:58Z</time>
      </trkpt>
      <trkpt lat="44.59251" lon="5.46042">
        <ele>705.8</ele>
        <time>2021-09-06T10:27:00Z</time>
      </trkpt>
      <trkpt lat="44.59251" lon="5.46042">
        <ele>705.8</ele>
        <time>2021-09-06T10:27:00Z</time>
      </trkpt>
      <trkpt lat="44.59246" lon="5.46049">
        <ele>706.4</ele>
        <time>2021-09-06T10:27:02Z</time>
      </trkpt>
      <trkpt lat="44.59244" lon="5.46054">
        <ele>706.8</ele>
        <time>2021-09-06T10:27:03Z</time>
      </trkpt>
      <trkpt lat="44.5924" lon="5.4606">
        <ele>707.2</ele>
        <time>2021-09-06T10:27:05Z</time>
      </trkpt>
      <trkpt lat="44.59238" lon="5.46064">
        <ele>707.6</ele>
        <time>2021-09-06T10:27:06Z</time>
      </trkpt>
      <trkpt lat="44.59234" lon="5.46066">
        <ele>707.9</ele>
        <time>2021-09-06T10:27:07Z</time>
      </trkpt>
      <trkpt lat="44.59233" lon="5.46067">
        <ele>708</ele>
        <time>2021-09-06T10:27:08Z</time>
      </trkpt>
      <trkpt lat="44.59232" lon="5.46068">
        <ele>708.1</ele>
        <time>2021-09-06T10:27:09Z</time>
      </trkpt>
      <trkpt lat="44.5923" lon="5.46069">
        <ele>708.3</ele>
        <time>2021-09-06T10:27:11Z</time>
      </trkpt>
      <trkpt lat="44.59229" lon="5.4607">
        <ele>708.4</ele>
        <time>2021-09-06T10:27:12Z</time>
      </trkpt>
      <trkpt lat="44.59229" lon="5.46071">
        <ele>708.4</ele>
        <time>2021-09-06T10:27:13Z</time>
      </trkpt>
      <trkpt lat="44.59228" lon="5.46072">
        <ele>708.5</ele>
        <time>2021-09-06T10:27:15Z</time>
      </trkpt>
      <trkpt lat="44.59226" lon="5.46073">
        <ele>708.7</ele>
        <time>2021-09-06T10:27:17Z</time>
      </trkpt>
      <trkpt lat="44.59225" lon="5.46074">
        <ele>708.8</ele>
        <time>2021-09-06T10:27:18Z</time>
      </trkpt>
      <trkpt lat="44.59151" lon="5.4618">
        <ele>718.6</ele>
        <time>2021-09-06T10:28:31Z</time>
      </trkpt>
      <trkpt lat="44.5915" lon="5.46184">
        <ele>718.9</ele>
        <time>2021-09-06T10:28:32Z</time>
      </trkpt>
      <trkpt lat="44.59149" lon="5.46187">
        <ele>719.2</ele>
        <time>2021-09-06T10:28:33Z</time>
      </trkpt>
      <trkpt lat="44.59144" lon="5.46192">
        <ele>719.8</ele>
        <time>2021-09-06T10:28:35Z</time>
      </trkpt>
      <trkpt lat="44.59139" lon="5.46195">
        <ele>720.3</ele>
        <time>2021-09-06T10:28:36Z</time>
      </trkpt>
      <trkpt lat="44.59136" lon="5.46197">
        <ele>720.6</ele>
        <time>2021-09-06T10:28:38Z</time>
      </trkpt>
      <trkpt lat="44.59135" lon="5.46198">
        <ele>720.7</ele>
        <time>2021-09-06T10:28:39Z</time>
      </trkpt>
      <trkpt lat="44.59134" lon="5.46199">
        <ele>720.9</ele>
        <time>2021-09-06T10:28:40Z</time>
      </trkpt>
      <trkpt lat="44.59133" lon="5.46199">
        <ele>720.9</ele>
        <time>2021-09-06T10:28:42Z</time>
      </trkpt>
      <trkpt lat="44.591" lon="5.46268">
        <ele>726</ele>
        <time>2021-09-06T10:29:16Z</time>
      </trkpt>
      <trkpt lat="44.59095" lon="5.46273">
        <ele>726.4</ele>
        <time>2021-09-06T10:29:18Z</time>
      </trkpt>
      <trkpt lat="44.59091" lon="5.46279">
        <ele>726.8</ele>
        <time>2021-09-06T10:29:19Z</time>
      </trkpt>
      <trkpt lat="44.59087" lon="5.46283">
        <ele>727.1</ele>
        <time>2021-09-06T10:29:20Z</time>
      </trkpt>
      <trkpt lat="44.59085" lon="5.46287">
        <ele>727.2</ele>
        <time>2021-09-06T10:29:21Z</time>
      </trkpt>
      <trkpt lat="44.59082" lon="5.46291">
        <ele>727.4</ele>
        <time>2021-09-06T10:29:22Z</time>
      </trkpt>
      <trkpt lat="44.59078" lon="5.46297">
        <ele>727.7</ele>
        <time>2021-09-06T10:29:24Z</time>
      </trkpt>
      <trkpt lat="44.59075" lon="5.463">
        <ele>727.9</ele>
        <time>2021-09-06T10:29:25Z</time>
      </trkpt>
      <trkpt lat="44.59074" lon="5.46302">
        <ele>727.9</ele>
        <time>2021-09-06T10:29:26Z</time>
      </trkpt>
      <trkpt lat="44.59072" lon="5.46304">
        <ele>728</ele>
        <time>2021-09-06T10:29:28Z</time>
      </trkpt>
      <trkpt lat="44.59069" lon="5.46307">
        <ele>728.1</ele>
        <time>2021-09-06T10:29:29Z</time>
      </trkpt>
      <trkpt lat="44.59068" lon="5.46309">
        <ele>728.2</ele>
        <time>2021-09-06T10:29:30Z</time>
      </trkpt>
      <trkpt lat="44.59065" lon="5.46311">
        <ele>728.2</ele>
        <time>2021-09-06T10:29:32Z</time>
      </trkpt>
      <trkpt lat="44.59062" lon="5.46313">
        <ele>728.3</ele>
        <time>2021-09-06T10:29:33Z</time>
      </trkpt>
      <trkpt lat="44.59059" lon="5.46316">
        <ele>728.3</ele>
        <time>2021-09-06T10:29:34Z</time>
      </trkpt>
      <trkpt lat="44.59055" lon="5.46323">
        <ele>728.3</ele>
        <time>2021-09-06T10:29:36Z</time>
      </trkpt>
      <trkpt lat="44.59053" lon="5.46328">
        <ele>728.2</ele>
        <time>2021-09-06T10:29:37Z</time>
      </trkpt>
      <trkpt lat="44.59051" lon="5.46333">
        <ele>728.1</ele>
        <time>2021-09-06T10:29:38Z</time>
      </trkpt>
      <trkpt lat="44.59046" lon="5.46342">
        <ele>727.9</ele>
        <time>2021-09-06T10:29:40Z</time>
      </trkpt>
      <trkpt lat="44.59041" lon="5.46348">
        <ele>727.6</ele>
        <time>2021-09-06T10:29:41Z</time>
      </trkpt>
      <trkpt lat="44.59037" lon="5.46354">
        <ele>727.4</ele>
        <time>2021-09-06T10:29:42Z</time>
      </trkpt>
      <trkpt lat="44.59033" lon="5.46363">
        <ele>727</ele>
        <time>2021-09-06T10:29:43Z</time>
      </trkpt>
      <trkpt lat="44.59021" lon="5.46381">
        <ele>726</ele>
        <time>2021-09-06T10:29:45Z</time>
      </trkpt>
      <trkpt lat="44.5901" lon="5.46398">
        <ele>724.9</ele>
        <time>2021-09-06T10:29:47Z</time>
      </trkpt>
      <trkpt lat="44.59002" lon="5.46405">
        <ele>724.3</ele>
        <time>2021-09-06T10:29:48Z</time>
      </trkpt>
      <trkpt lat="44.58995" lon="5.46413">
        <ele>723.6</ele>
        <time>2021-09-06T10:29:49Z</time>
      </trkpt>
      <trkpt lat="44.58989" lon="5.4642">
        <ele>722.9</ele>
        <time>2021-09-06T10:29:50Z</time>
      </trkpt>
      <trkpt lat="44.58982" lon="5.46428">
        <ele>722.2</ele>
        <time>2021-09-06T10:29:51Z</time>
      </trkpt>
      <trkpt lat="44.58976" lon="5.46436">
        <ele>721.6</ele>
        <time>2021-09-06T10:29:52Z</time>
      </trkpt>
      <trkpt lat="44.58969" lon="5.46445">
        <ele>720.9</ele>
        <time>2021-09-06T10:29:53Z</time>
      </trkpt>
      <trkpt lat="44.58963" lon="5.46454">
        <ele>720.3</ele>
        <time>2021-09-06T10:29:54Z</time>
      </trkpt>
      <trkpt lat="44.5895" lon="5.46473">
        <ele>719</ele>
        <time>2021-09-06T10:29:56Z</time>
      </trkpt>
      <trkpt lat="44.58937" lon="5.46494">
        <ele>717.7</ele>
        <time>2021-09-06T10:29:58Z</time>
      </trkpt>
      <trkpt lat="44.58931" lon="5.46503">
        <ele>717.2</ele>
        <time>2021-09-06T10:29:59Z</time>
      </trkpt>
      <trkpt lat="44.58921" lon="5.46523">
        <ele>716.2</ele>
        <time>2021-09-06T10:30:01Z</time>
      </trkpt>
      <trkpt lat="44.58916" lon="5.46533">
        <ele>715.5</ele>
        <time>2021-09-06T10:30:02Z</time>
      </trkpt>
      <trkpt lat="44.58909" lon="5.46545">
        <ele>714.8</ele>
        <time>2021-09-06T10:30:04Z</time>
      </trkpt>
      <trkpt lat="44.58905" lon="5.4655">
        <ele>714.4</ele>
        <time>2021-09-06T10:30:06Z</time>
      </trkpt>
      <trkpt lat="44.58903" lon="5.46554">
        <ele>714.2</ele>
        <time>2021-09-06T10:30:07Z</time>
      </trkpt>
      <trkpt lat="44.58899" lon="5.46557">
        <ele>714</ele>
        <time>2021-09-06T10:30:08Z</time>
      </trkpt>
      <trkpt lat="44.58891" lon="5.46564">
        <ele>713.7</ele>
        <time>2021-09-06T10:30:10Z</time>
      </trkpt>
      <trkpt lat="44.58888" lon="5.46566">
        <ele>713.7</ele>
        <time>2021-09-06T10:30:11Z</time>
      </trkpt>
      <trkpt lat="44.58886" lon="5.46567">
        <ele>713.6</ele>
        <time>2021-09-06T10:30:13Z</time>
      </trkpt>
      <trkpt lat="44.58884" lon="5.46568">
        <ele>713.6</ele>
        <time>2021-09-06T10:30:14Z</time>
      </trkpt>
      <trkpt lat="44.58771" lon="5.46499">
        <ele>705.6</ele>
        <time>2021-09-06T10:30:32Z</time>
      </trkpt>
      <trkpt lat="44.58748" lon="5.46494">
        <ele>704.5</ele>
        <time>2021-09-06T10:30:34Z</time>
      </trkpt>
      <trkpt lat="44.58739" lon="5.46492">
        <ele>704.2</ele>
        <time>2021-09-06T10:30:35Z</time>
      </trkpt>
      <trkpt lat="44.58748" lon="5.46495">
        <ele>704</ele>
        <time>2021-09-06T10:30:36Z</time>
      </trkpt>
      <trkpt lat="44.58751" lon="5.46496">
        <ele>703.9</ele>
        <time>2021-09-06T10:30:38Z</time>
      </trkpt>
      <trkpt lat="44.58741" lon="5.46495">
        <ele>703.6</ele>
        <time>2021-09-06T10:30:39Z</time>
      </trkpt>
      <trkpt lat="44.5873" lon="5.46493">
        <ele>703.1</ele>
        <time>2021-09-06T10:30:40Z</time>
      </trkpt>
      <trkpt lat="44.58724" lon="5.46492">
        <ele>702.6</ele>
        <time>2021-09-06T10:30:41Z</time>
      </trkpt>
      <trkpt lat="44.58718" lon="5.46491">
        <ele>702.1</ele>
        <time>2021-09-06T10:30:43Z</time>
      </trkpt>
      <trkpt lat="44.58714" lon="5.4649">
        <ele>701.8</ele>
        <time>2021-09-06T10:30:44Z</time>
      </trkpt>
      <trkpt lat="44.58711" lon="5.46489">
        <ele>701.6</ele>
        <time>2021-09-06T10:30:45Z</time>
      </trkpt>
      <trkpt lat="44.5871" lon="5.46489">
        <ele>701.5</ele>
        <time>2021-09-06T10:30:46Z</time>
      </trkpt>
      <trkpt lat="44.58589" lon="5.46496">
        <ele>693.3</ele>
        <time>2021-09-06T10:34:12Z</time>
      </trkpt>
      <trkpt lat="44.58592" lon="5.46506">
        <ele>690.3</ele>
        <time>2021-09-06T10:34:14Z</time>
      </trkpt>
      <trkpt lat="44.58596" lon="5.4652">
        <ele>687.8</ele>
        <time>2021-09-06T10:34:16Z</time>
      </trkpt>
      <trkpt lat="44.58597" lon="5.46524">
        <ele>685.9</ele>
        <time>2021-09-06T10:34:17Z</time>
      </trkpt>
      <trkpt lat="44.58598" lon="5.46525">
        <ele>684.1</ele>
        <time>2021-09-06T10:34:18Z</time>
      </trkpt>
      <trkpt lat="44.58599" lon="5.4653">
        <ele>682.2</ele>
        <time>2021-09-06T10:34:20Z</time>
      </trkpt>
      <trkpt lat="44.58599" lon="5.46534">
        <ele>680.4</ele>
        <time>2021-09-06T10:34:21Z</time>
      </trkpt>
      <trkpt lat="44.586" lon="5.46535">
        <ele>680.3</ele>
        <time>2021-09-06T10:34:22Z</time>
      </trkpt>
      <trkpt lat="44.58601" lon="5.46538">
        <ele>680.2</ele>
        <time>2021-09-06T10:34:23Z</time>
      </trkpt>
      <trkpt lat="44.58602" lon="5.46539">
        <ele>680.1</ele>
        <time>2021-09-06T10:34:24Z</time>
      </trkpt>
      <trkpt lat="44.58602" lon="5.46541">
        <ele>680</ele>
        <time>2021-09-06T10:34:25Z</time>
      </trkpt>
      <trkpt lat="44.58603" lon="5.46542">
        <ele>679.9</ele>
        <time>2021-09-06T10:34:26Z</time>
      </trkpt>
      <trkpt lat="44.58603" lon="5.46553">
        <ele>679.4</ele>
        <time>2021-09-06T10:34:28Z</time>
      </trkpt>
      <trkpt lat="44.58603" lon="5.46569">
        <ele>678.3</ele>
        <time>2021-09-06T10:34:30Z</time>
      </trkpt>
      <trkpt lat="44.58604" lon="5.46576">
        <ele>677.8</ele>
        <time>2021-09-06T10:34:31Z</time>
      </trkpt>
      <trkpt lat="44.58607" lon="5.46585">
        <ele>676.9</ele>
        <time>2021-09-06T10:34:33Z</time>
      </trkpt>
      <trkpt lat="44.58609" lon="5.46589">
        <ele>676.6</ele>
        <time>2021-09-06T10:34:34Z</time>
      </trkpt>
      <trkpt lat="44.58758" lon="5.47236">
        <ele>652.3</ele>
        <time>2021-09-06T10:36:17Z</time>
      </trkpt>
      <trkpt lat="44.58752" lon="5.47249">
        <ele>652.1</ele>
        <time>2021-09-06T10:36:18Z</time>
      </trkpt>
      <trkpt lat="44.58738" lon="5.47271">
        <ele>651.7</ele>
        <time>2021-09-06T10:36:20Z</time>
      </trkpt>
      <trkpt lat="44.58733" lon="5.47278">
        <ele>651.6</ele>
        <time>2021-09-06T10:36:21Z</time>
      </trkpt>
      <trkpt lat="44.58729" lon="5.47286">
        <ele>651.5</ele>
        <time>2021-09-06T10:36:22Z</time>
      </trkpt>
      <trkpt lat="44.58723" lon="5.473">
        <ele>651.5</ele>
        <time>2021-09-06T10:36:24Z</time>
      </trkpt>
      <trkpt lat="44.58716" lon="5.47308">
        <ele>651.5</ele>
        <time>2021-09-06T10:36:26Z</time>
      </trkpt>
      <trkpt lat="44.58707" lon="5.47316">
        <ele>651.5</ele>
        <time>2021-09-06T10:36:28Z</time>
      </trkpt>
      <trkpt lat="44.58703" lon="5.47319">
        <ele>651.6</ele>
        <time>2021-09-06T10:36:29Z</time>
      </trkpt>
      <trkpt lat="44.587" lon="5.47322">
        <ele>651.6</ele>
        <time>2021-09-06T10:36:30Z</time>
      </trkpt>
      <trkpt lat="44.58692" lon="5.47327">
        <ele>651.7</ele>
        <time>2021-09-06T10:36:32Z</time>
      </trkpt>
      <trkpt lat="44.58683" lon="5.47329">
        <ele>651.8</ele>
        <time>2021-09-06T10:36:34Z</time>
      </trkpt>
      <trkpt lat="44.58678" lon="5.47329">
        <ele>651.7</ele>
        <time>2021-09-06T10:36:37Z</time>
      </trkpt>
      <trkpt lat="44.58678" lon="5.47329">
        <ele>651.7</ele>
        <time>2021-09-06T10:36:38Z</time>
      </trkpt>
      <trkpt lat="44.58677" lon="5.47329">
        <ele>651.7</ele>
        <time>2021-09-06T10:36:40Z</time>
      </trkpt>
      <trkpt lat="44.58677" lon="5.4733">
        <ele>651.7</ele>
        <time>2021-09-06T10:36:41Z</time>
      </trkpt>
      <trkpt lat="44.58669" lon="5.47323">
        <ele>651.4</ele>
        <time>2021-09-06T10:36:43Z</time>
      </trkpt>
      <trkpt lat="44.58663" lon="5.47318">
        <ele>651.2</ele>
        <time>2021-09-06T10:36:45Z</time>
      </trkpt>
      <trkpt lat="44.58662" lon="5.47318">
        <ele>651.1</ele>
        <time>2021-09-06T10:36:46Z</time>
      </trkpt>
      <trkpt lat="44.57294" lon="5.47881">
        <ele>665.8</ele>
        <time>2021-09-06T10:43:07Z</time>
      </trkpt>
      <trkpt lat="44.57286" lon="5.47875">
        <ele>666.1</ele>
        <time>2021-09-06T10:43:09Z</time>
      </trkpt>
      <trkpt lat="44.57269" lon="5.47868">
        <ele>666.7</ele>
        <time>2021-09-06T10:43:11Z</time>
      </trkpt>
      <trkpt lat="44.5726" lon="5.47866">
        <ele>667</ele>
        <time>2021-09-06T10:43:12Z</time>
      </trkpt>
      <trkpt lat="44.5725" lon="5.4786">
        <ele>667.5</ele>
        <time>2021-09-06T10:43:14Z</time>
      </trkpt>
      <trkpt lat="44.57248" lon="5.47857">
        <ele>667.6</ele>
        <time>2021-09-06T10:43:15Z</time>
      </trkpt>
      <trkpt lat="44.57245" lon="5.47849">
        <ele>667.9</ele>
        <time>2021-09-06T10:43:16Z</time>
      </trkpt>
      <trkpt lat="44.57241" lon="5.47842">
        <ele>668.1</ele>
        <time>2021-09-06T10:43:17Z</time>
      </trkpt>
      <trkpt lat="44.57238" lon="5.47838">
        <ele>668.3</ele>
        <time>2021-09-06T10:43:18Z</time>
      </trkpt>
      <trkpt lat="44.57237" lon="5.47834">
        <ele>668.4</ele>
        <time>2021-09-06T10:43:20Z</time>
      </trkpt>
      <trkpt lat="44.57237" lon="5.4783">
        <ele>668.5</ele>
        <time>2021-09-06T10:43:21Z</time>
      </trkpt>
      <trkpt lat="44.57236" lon="5.47826">
        <ele>668.6</ele>
        <time>2021-09-06T10:43:22Z</time>
      </trkpt>
      <trkpt lat="44.57232" lon="5.47819">
        <ele>668.8</ele>
        <time>2021-09-06T10:43:24Z</time>
      </trkpt>
      <trkpt lat="44.57229" lon="5.47814">
        <ele>669</ele>
        <time>2021-09-06T10:43:25Z</time>
      </trkpt>
      <trkpt lat="44.57227" lon="5.4781">
        <ele>669.1</ele>
        <time>2021-09-06T10:43:26Z</time>
      </trkpt>
      <trkpt lat="44.57225" lon="5.47807">
        <ele>669.2</ele>
        <time>2021-09-06T10:43:27Z</time>
      </trkpt>
      <trkpt lat="44.57224" lon="5.47806">
        <ele>669.3</ele>
        <time>2021-09-06T10:43:29Z</time>
      </trkpt>
      <trkpt lat="44.57117" lon="5.4775">
        <ele>671.9</ele>
        <time>2021-09-06T10:44:02Z</time>
      </trkpt>
      <trkpt lat="44.57112" lon="5.47746">
        <ele>671.4</ele>
        <time>2021-09-06T10:44:04Z</time>
      </trkpt>
      <trkpt lat="44.57111" lon="5.47743">
        <ele>671.2</ele>
        <time>2021-09-06T10:44:05Z</time>
      </trkpt>
      <trkpt lat="44.5711" lon="5.47742">
        <ele>671.1</ele>
        <time>2021-09-06T10:44:06Z</time>
      </trkpt>
      <trkpt lat="44.57108" lon="5.47736">
        <ele>670.6</ele>
        <time>2021-09-06T10:44:07Z</time>
      </trkpt>
      <trkpt lat="44.57106" lon="5.47732">
        <ele>670.4</ele>
        <time>2021-09-06T10:44:09Z</time>
      </trkpt>
      <trkpt lat="44.57104" lon="5.47726">
        <ele>669.9</ele>
        <time>2021-09-06T10:44:11Z</time>
      </trkpt>
      <trkpt lat="44.57102" lon="5.4772">
        <ele>669.5</ele>
        <time>2021-09-06T10:44:12Z</time>
      </trkpt>
      <trkpt lat="44.57101" lon="5.47717">
        <ele>669.3</ele>
        <time>2021-09-06T10:44:13Z</time>
      </trkpt>
      <trkpt lat="44.57098" lon="5.47711">
        <ele>668.8</ele>
        <time>2021-09-06T10:44:14Z</time>
      </trkpt>
      <trkpt lat="44.57094" lon="5.47705">
        <ele>668.3</ele>
        <time>2021-09-06T10:44:15Z</time>
      </trkpt>
      <trkpt lat="44.57091" lon="5.47701">
        <ele>668</ele>
        <time>2021-09-06T10:44:17Z</time>
      </trkpt>
      <trkpt lat="44.57088" lon="5.47698">
        <ele>667.6</ele>
        <time>2021-09-06T10:44:19Z</time>
      </trkpt>
      <trkpt lat="44.57085" lon="5.47695">
        <ele>667.3</ele>
        <time>2021-09-06T10:44:20Z</time>
      </trkpt>
      <trkpt lat="44.57084" lon="5.47694">
        <ele>667.1</ele>
        <time>2021-09-06T10:44:21Z</time>
      </trkpt>
      <trkpt lat="44.57082" lon="5.47692">
        <ele>666.9</ele>
        <time>2021-09-06T10:44:23Z</time>
      </trkpt>
      <trkpt lat="44.5708" lon="5.47692">
        <ele>666.7</ele>
        <time>2021-09-06T10:44:25Z</time>
      </trkpt>
      <trkpt lat="44.57073" lon="5.47694">
        <ele>666</ele>
        <time>2021-09-06T10:44:27Z</time>
      </trkpt>
      <trkpt lat="44.57065" lon="5.47695">
        <ele>665.3</ele>
        <time>2021-09-06T10:44:29Z</time>
      </trkpt>
      <trkpt lat="44.57064" lon="5.47695">
        <ele>665.2</ele>
        <time>2021-09-06T10:44:30Z</time>
      </trkpt>
      <trkpt lat="44.57062" lon="5.47695">
        <ele>665</ele>
        <time>2021-09-06T10:44:31Z</time>
      </trkpt>
      <trkpt lat="44.57062" lon="5.47695">
        <ele>665</ele>
        <time>2021-09-06T10:44:33Z</time>
      </trkpt>
      <trkpt lat="44.57061" lon="5.47695">
        <ele>664.9</ele>
        <time>2021-09-06T10:44:34Z</time>
      </trkpt>
      <trkpt lat="44.5706" lon="5.47696">
        <ele>664.7</ele>
        <time>2021-09-06T10:44:36Z</time>
      </trkpt>
      <trkpt lat="44.57058" lon="5.47698">
        <ele>664.5</ele>
        <time>2021-09-06T10:44:38Z</time>
      </trkpt>
      <trkpt lat="44.57055" lon="5.47699">
        <ele>664.2</ele>
        <time>2021-09-06T10:44:40Z</time>
      </trkpt>
      <trkpt lat="44.57054" lon="5.47699">
        <ele>661.6</ele>
        <time>2021-09-06T10:44:41Z</time>
      </trkpt>
      <trkpt lat="44.57052" lon="5.477">
        <ele>661.1</ele>
        <time>2021-09-06T10:44:42Z</time>
      </trkpt>
      <trkpt lat="44.5705" lon="5.47701">
        <ele>660.7</ele>
        <time>2021-09-06T10:44:43Z</time>
      </trkpt>
      <trkpt lat="44.57048" lon="5.47702">
        <ele>660.3</ele>
        <time>2021-09-06T10:44:44Z</time>
      </trkpt>
      <trkpt lat="44.57046" lon="5.47702">
        <ele>660</ele>
        <time>2021-09-06T10:44:46Z</time>
      </trkpt>
      <trkpt lat="44.57044" lon="5.47703">
        <ele>659.6</ele>
        <time>2021-09-06T10:44:47Z</time>
      </trkpt>
      <trkpt lat="44.57042" lon="5.47704">
        <ele>659.2</ele>
        <time>2021-09-06T10:44:49Z</time>
      </trkpt>
      <trkpt lat="44.5704" lon="5.47704">
        <ele>658.8</ele>
        <time>2021-09-06T10:44:50Z</time>
      </trkpt>
      <trkpt lat="44.57038" lon="5.47705">
        <ele>658.4</ele>
        <time>2021-09-06T10:44:51Z</time>
      </trkpt>
      <trkpt lat="44.57036" lon="5.47706">
        <ele>658</ele>
        <time>2021-09-06T10:44:53Z</time>
      </trkpt>
      <trkpt lat="44.57029" lon="5.47707">
        <ele>656.6</ele>
        <time>2021-09-06T10:44:54Z</time>
      </trkpt>
      <trkpt lat="44.57023" lon="5.47707">
        <ele>655.3</ele>
        <time>2021-09-06T10:44:56Z</time>
      </trkpt>
      <trkpt lat="44.57016" lon="5.47705">
        <ele>655.4</ele>
        <time>2021-09-06T10:44:58Z</time>
      </trkpt>
      <trkpt lat="44.57011" lon="5.47703">
        <ele>655.4</ele>
        <time>2021-09-06T10:45:00Z</time>
      </trkpt>
      <trkpt lat="44.56998" lon="5.47701">
        <ele>655.6</ele>
        <time>2021-09-06T10:45:01Z</time>
      </trkpt>
      <trkpt lat="44.56987" lon="5.47699">
        <ele>655.7</ele>
        <time>2021-09-06T10:45:03Z</time>
      </trkpt>
      <trkpt lat="44.56969" lon="5.47696">
        <ele>655.9</ele>
        <time>2021-09-06T10:45:04Z</time>
      </trkpt>
      <trkpt lat="44.56964" lon="5.47696">
        <ele>656</ele>
        <time>2021-09-06T10:45:06Z</time>
      </trkpt>
      <trkpt lat="44.56959" lon="5.47696">
        <ele>656</ele>
        <time>2021-09-06T10:45:07Z</time>
      </trkpt>
      <trkpt lat="44.56954" lon="5.47696">
        <ele>656.1</ele>
        <time>2021-09-06T10:45:08Z</time>
      </trkpt>
      <trkpt lat="44.56948" lon="5.47695">
        <ele>656.2</ele>
        <time>2021-09-06T10:45:09Z</time>
      </trkpt>
      <trkpt lat="44.56937" lon="5.47695">
        <ele>656.4</ele>
        <time>2021-09-06T10:45:10Z</time>
      </trkpt>
      <trkpt lat="44.5693" lon="5.47694">
        <ele>656.5</ele>
        <time>2021-09-06T10:45:12Z</time>
      </trkpt>
      <trkpt lat="44.56925" lon="5.47695">
        <ele>656.6</ele>
        <time>2021-09-06T10:45:13Z</time>
      </trkpt>
      <trkpt lat="44.56921" lon="5.47695">
        <ele>656.7</ele>
        <time>2021-09-06T10:45:15Z</time>
      </trkpt>
      <trkpt lat="44.56916" lon="5.47694">
        <ele>656.8</ele>
        <time>2021-09-06T10:45:17Z</time>
      </trkpt>
      <trkpt lat="44.56914" lon="5.47693">
        <ele>656.8</ele>
        <time>2021-09-06T10:45:18Z</time>
      </trkpt>
      <trkpt lat="44.56912" lon="5.47692">
        <ele>656.8</ele>
        <time>2021-09-06T10:45:19Z</time>
      </trkpt>
      <trkpt lat="44.56908" lon="5.47691">
        <ele>656.8</ele>
        <time>2021-09-06T10:45:20Z</time>
      </trkpt>
      <trkpt lat="44.56907" lon="5.4769">
        <ele>656.8</ele>
        <time>2021-09-06T10:45:21Z</time>
      </trkpt>
      <trkpt lat="44.56903" lon="5.47687">
        <ele>656.9</ele>
        <time>2021-09-06T10:45:23Z</time>
      </trkpt>
      <trkpt lat="44.56901" lon="5.47686">
        <ele>656.9</ele>
        <time>2021-09-06T10:45:24Z</time>
      </trkpt>
      <trkpt lat="44.56899" lon="5.47684">
        <ele>656.9</ele>
        <time>2021-09-06T10:45:26Z</time>
      </trkpt>
      <trkpt lat="44.56896" lon="5.47681">
        <ele>656.9</ele>
        <time>2021-09-06T10:45:28Z</time>
      </trkpt>
      <trkpt lat="44.56895" lon="5.47681">
        <ele>656.9</ele>
        <time>2021-09-06T10:45:30Z</time>
      </trkpt>
      <trkpt lat="44.56893" lon="5.4768">
        <ele>657</ele>
        <time>2021-09-06T10:45:31Z</time>
      </trkpt>
      <trkpt lat="44.56892" lon="5.4768">
        <ele>657</ele>
        <time>2021-09-06T10:45:32Z</time>
      </trkpt>
      <trkpt lat="44.56888" lon="5.4768">
        <ele>657</ele>
        <time>2021-09-06T10:45:34Z</time>
      </trkpt>
      <trkpt lat="44.56884" lon="5.4768">
        <ele>657</ele>
        <time>2021-09-06T10:45:35Z</time>
      </trkpt>
      <trkpt lat="44.56879" lon="5.4768">
        <ele>657.1</ele>
        <time>2021-09-06T10:45:36Z</time>
      </trkpt>
      <trkpt lat="44.56875" lon="5.47681">
        <ele>657.1</ele>
        <time>2021-09-06T10:45:37Z</time>
      </trkpt>
      <trkpt lat="44.56871" lon="5.47681">
        <ele>657.1</ele>
        <time>2021-09-06T10:45:39Z</time>
      </trkpt>
      <trkpt lat="44.56867" lon="5.47681">
        <ele>657.2</ele>
        <time>2021-09-06T10:45:40Z</time>
      </trkpt>
      <trkpt lat="44.56863" lon="5.47681">
        <ele>657.2</ele>
        <time>2021-09-06T10:45:41Z</time>
      </trkpt>
      <trkpt lat="44.56857" lon="5.47681">
        <ele>657.2</ele>
        <time>2021-09-06T10:45:43Z</time>
      </trkpt>
      <trkpt lat="44.56852" lon="5.47681">
        <ele>657.3</ele>
        <time>2021-09-06T10:45:44Z</time>
      </trkpt>
      <trkpt lat="44.56847" lon="5.47681">
        <ele>657.4</ele>
        <time>2021-09-06T10:45:45Z</time>
      </trkpt>
      <trkpt lat="44.56842" lon="5.47681">
        <ele>657.5</ele>
        <time>2021-09-06T10:45:46Z</time>
      </trkpt>
      <trkpt lat="44.56837" lon="5.47681">
        <ele>657.7</ele>
        <time>2021-09-06T10:45:48Z</time>
      </trkpt>
      <trkpt lat="44.56822" lon="5.47682">
        <ele>658.1</ele>
        <time>2021-09-06T10:45:50Z</time>
      </trkpt>
      <trkpt lat="44.56818" lon="5.47682">
        <ele>658.2</ele>
        <time>2021-09-06T10:45:51Z</time>
      </trkpt>
      <trkpt lat="44.56815" lon="5.47682">
        <ele>658.2</ele>
        <time>2021-09-06T10:45:52Z</time>
      </trkpt>
      <trkpt lat="44.5681" lon="5.47681">
        <ele>658.4</ele>
        <time>2021-09-06T10:45:54Z</time>
      </trkpt>
      <trkpt lat="44.56806" lon="5.47681">
        <ele>658.5</ele>
        <time>2021-09-06T10:45:55Z</time>
      </trkpt>
      <trkpt lat="44.56801" lon="5.47682">
        <ele>658.6</ele>
        <time>2021-09-06T10:45:56Z</time>
      </trkpt>
      <trkpt lat="44.56678" lon="5.47675">
        <ele>662</ele>
        <time>2021-09-06T10:46:36Z</time>
      </trkpt>
      <trkpt lat="44.5667" lon="5.47678">
        <ele>662.2</ele>
        <time>2021-09-06T10:46:37Z</time>
      </trkpt>
      <trkpt lat="44.56665" lon="5.47679">
        <ele>662.3</ele>
        <time>2021-09-06T10:46:38Z</time>
      </trkpt>
      <trkpt lat="44.56661" lon="5.4768">
        <ele>662.4</ele>
        <time>2021-09-06T10:46:39Z</time>
      </trkpt>
      <trkpt lat="44.56642" lon="5.47685">
        <ele>662.9</ele>
        <time>2021-09-06T10:46:41Z</time>
      </trkpt>
      <trkpt lat="44.56636" lon="5.47685">
        <ele>663.1</ele>
        <time>2021-09-06T10:46:42Z</time>
      </trkpt>
      <trkpt lat="44.56632" lon="5.47685">
        <ele>663.2</ele>
        <time>2021-09-06T10:46:43Z</time>
      </trkpt>
      <trkpt lat="44.56629" lon="5.47684">
        <ele>663.3</ele>
        <time>2021-09-06T10:46:44Z</time>
      </trkpt>
      <trkpt lat="44.56627" lon="5.47684">
        <ele>663.3</ele>
        <time>2021-09-06T10:46:45Z</time>
      </trkpt>
      <trkpt lat="44.56622" lon="5.47683">
        <ele>663.5</ele>
        <time>2021-09-06T10:46:47Z</time>
      </trkpt>
      <trkpt lat="44.56539" lon="5.4768">
        <ele>665.6</ele>
        <time>2021-09-06T10:47:07Z</time>
      </trkpt>
      <trkpt lat="44.56536" lon="5.47679">
        <ele>665.6</ele>
        <time>2021-09-06T10:47:08Z</time>
      </trkpt>
      <trkpt lat="44.56532" lon="5.47678">
        <ele>665.6</ele>
        <time>2021-09-06T10:47:09Z</time>
      </trkpt>
      <trkpt lat="44.56528" lon="5.47677">
        <ele>665.6</ele>
        <time>2021-09-06T10:47:10Z</time>
      </trkpt>
      <trkpt lat="44.56524" lon="5.4768">
        <ele>665.6</ele>
        <time>2021-09-06T10:47:12Z</time>
      </trkpt>
      <trkpt lat="44.56521" lon="5.47683">
        <ele>665.7</ele>
        <time>2021-09-06T10:47:13Z</time>
      </trkpt>
      <trkpt lat="44.56516" lon="5.47687">
        <ele>665.7</ele>
        <time>2021-09-06T10:47:15Z</time>
      </trkpt>
      <trkpt lat="44.56515" lon="5.47689">
        <ele>665.7</ele>
        <time>2021-09-06T10:47:16Z</time>
      </trkpt>
      <trkpt lat="44.56514" lon="5.4769">
        <ele>665.7</ele>
        <time>2021-09-06T10:47:17Z</time>
      </trkpt>
      <trkpt lat="44.56511" lon="5.47694">
        <ele>665.7</ele>
        <time>2021-09-06T10:47:18Z</time>
      </trkpt>
      <trkpt lat="44.56505" lon="5.47696">
        <ele>665.8</ele>
        <time>2021-09-06T10:47:20Z</time>
      </trkpt>
      <trkpt lat="44.56498" lon="5.47702">
        <ele>665.8</ele>
        <time>2021-09-06T10:47:21Z</time>
      </trkpt>
      <trkpt lat="44.56495" lon="5.47705">
        <ele>665.9</ele>
        <time>2021-09-06T10:47:23Z</time>
      </trkpt>
      <trkpt lat="44.56486" lon="5.47707">
        <ele>666</ele>
        <time>2021-09-06T10:47:24Z</time>
      </trkpt>
      <trkpt lat="44.5648" lon="5.47707">
        <ele>666</ele>
        <time>2021-09-06T10:47:25Z</time>
      </trkpt>
      <trkpt lat="44.56477" lon="5.47707">
        <ele>666.1</ele>
        <time>2021-09-06T10:47:26Z</time>
      </trkpt>
      <trkpt lat="44.56476" lon="5.47707">
        <ele>666.1</ele>
        <time>2021-09-06T10:47:27Z</time>
      </trkpt>
      <trkpt lat="44.56474" lon="5.47707">
        <ele>666.1</ele>
        <time>2021-09-06T10:47:28Z</time>
      </trkpt>
      <trkpt lat="44.56473" lon="5.47708">
        <ele>666.1</ele>
        <time>2021-09-06T10:47:29Z</time>
      </trkpt>
      <trkpt lat="44.56472" lon="5.47709">
        <ele>666.1</ele>
        <time>2021-09-06T10:47:31Z</time>
      </trkpt>
      <trkpt lat="44.56424" lon="5.47793">
        <ele>669</ele>
        <time>2021-09-06T10:48:22Z</time>
      </trkpt>
      <trkpt lat="44.56422" lon="5.47799">
        <ele>669.3</ele>
        <time>2021-09-06T10:48:23Z</time>
      </trkpt>
      <trkpt lat="44.56421" lon="5.47801">
        <ele>669.5</ele>
        <time>2021-09-06T10:48:24Z</time>
      </trkpt>
      <trkpt lat="44.56419" lon="5.47807">
        <ele>669.8</ele>
        <time>2021-09-06T10:48:26Z</time>
      </trkpt>
      <trkpt lat="44.56418" lon="5.47812">
        <ele>670.5</ele>
        <time>2021-09-06T10:48:30Z</time>
      </trkpt>
      <trkpt lat="44.56418" lon="5.47813">
        <ele>670.5</ele>
        <time>2021-09-06T10:48:32Z</time>
      </trkpt>
      <trkpt lat="44.56417" lon="5.47815">
        <ele>671.2</ele>
        <time>2021-09-06T10:48:34Z</time>
      </trkpt>
      <trkpt lat="44.56417" lon="5.47816">
        <ele>671.3</ele>
        <time>2021-09-06T10:48:35Z</time>
      </trkpt>
      <trkpt lat="44.56417" lon="5.47817">
        <ele>671.3</ele>
        <time>2021-09-06T10:48:36Z</time>
      </trkpt>
      <trkpt lat="44.56606" lon="5.47994">
        <ele>704.1</ele>
        <time>2021-09-06T10:54:20Z</time>
      </trkpt>
      <trkpt lat="44.5661" lon="5.47995">
        <ele>703.7</ele>
        <time>2021-09-06T10:54:21Z</time>
      </trkpt>
      <trkpt lat="44.56612" lon="5.47996">
        <ele>704.7</ele>
        <time>2021-09-06T10:54:23Z</time>
      </trkpt>
      <trkpt lat="44.56614" lon="5.47999">
        <ele>704.3</ele>
        <time>2021-09-06T10:54:25Z</time>
      </trkpt>
      <trkpt lat="44.56616" lon="5.48001">
        <ele>705.7</ele>
        <time>2021-09-06T10:54:26Z</time>
      </trkpt>
      <trkpt lat="44.56618" lon="5.48005">
        <ele>705.8</ele>
        <time>2021-09-06T10:54:28Z</time>
      </trkpt>
      <trkpt lat="44.56621" lon="5.48008">
        <ele>706</ele>
        <time>2021-09-06T10:54:29Z</time>
      </trkpt>
      <trkpt lat="44.56624" lon="5.48011">
        <ele>706.2</ele>
        <time>2021-09-06T10:54:31Z</time>
      </trkpt>
      <trkpt lat="44.56626" lon="5.48013">
        <ele>706.3</ele>
        <time>2021-09-06T10:54:32Z</time>
      </trkpt>
      <trkpt lat="44.56626" lon="5.48015">
        <ele>706.3</ele>
        <time>2021-09-06T10:54:34Z</time>
      </trkpt>
      <trkpt lat="44.56626" lon="5.48016">
        <ele>706.4</ele>
        <time>2021-09-06T10:54:35Z</time>
      </trkpt>
      <trkpt lat="44.56627" lon="5.48017">
        <ele>706.5</ele>
        <time>2021-09-06T10:54:37Z</time>
      </trkpt>
      <trkpt lat="44.56627" lon="5.48018">
        <ele>706.5</ele>
        <time>2021-09-06T10:54:39Z</time>
      </trkpt>
      <trkpt lat="44.56627" lon="5.48019">
        <ele>706.5</ele>
        <time>2021-09-06T10:54:40Z</time>
      </trkpt>
      <trkpt lat="44.56628" lon="5.48019">
        <ele>706.5</ele>
        <time>2021-09-06T10:54:41Z</time>
      </trkpt>
      <trkpt lat="44.56628" lon="5.4802">
        <ele>706.6</ele>
        <time>2021-09-06T10:54:44Z</time>
      </trkpt>
      <trkpt lat="44.56628" lon="5.48021">
        <ele>706.6</ele>
        <time>2021-09-06T10:54:45Z</time>
      </trkpt>
      <trkpt lat="44.5663" lon="5.48021">
        <ele>706.7</ele>
        <time>2021-09-06T10:54:46Z</time>
      </trkpt>
      <trkpt lat="44.56633" lon="5.48023">
        <ele>706.9</ele>
        <time>2021-09-06T10:54:48Z</time>
      </trkpt>
      <trkpt lat="44.56639" lon="5.48024">
        <ele>707.2</ele>
        <time>2021-09-06T10:54:49Z</time>
      </trkpt>
      <trkpt lat="44.56643" lon="5.48024">
        <ele>707.4</ele>
        <time>2021-09-06T10:54:51Z</time>
      </trkpt>
      <trkpt lat="44.56645" lon="5.48024">
        <ele>707.5</ele>
        <time>2021-09-06T10:54:52Z</time>
      </trkpt>
      <trkpt lat="44.56647" lon="5.48025">
        <ele>707.6</ele>
        <time>2021-09-06T10:54:54Z</time>
      </trkpt>
      <trkpt lat="44.5665" lon="5.48026">
        <ele>707.8</ele>
        <time>2021-09-06T10:54:56Z</time>
      </trkpt>
      <trkpt lat="44.56653" lon="5.48027">
        <ele>707.9</ele>
        <time>2021-09-06T10:54:57Z</time>
      </trkpt>
      <trkpt lat="44.56655" lon="5.48028">
        <ele>708.1</ele>
        <time>2021-09-06T10:54:59Z</time>
      </trkpt>
      <trkpt lat="44.5666" lon="5.48032">
        <ele>708.4</ele>
        <time>2021-09-06T10:55:00Z</time>
      </trkpt>
      <trkpt lat="44.56665" lon="5.48036">
        <ele>708.7</ele>
        <time>2021-09-06T10:55:02Z</time>
      </trkpt>
      <trkpt lat="44.56669" lon="5.48039">
        <ele>709</ele>
        <time>2021-09-06T10:55:03Z</time>
      </trkpt>
      <trkpt lat="44.5667" lon="5.48039">
        <ele>709</ele>
        <time>2021-09-06T10:55:05Z</time>
      </trkpt>
      <trkpt lat="44.56672" lon="5.4804">
        <ele>709.2</ele>
        <time>2021-09-06T10:55:06Z</time>
      </trkpt>
      <trkpt lat="44.56685" lon="5.48047">
        <ele>710.1</ele>
        <time>2021-09-06T10:55:08Z</time>
      </trkpt>
      <trkpt lat="44.56688" lon="5.4805">
        <ele>710.3</ele>
        <time>2021-09-06T10:55:09Z</time>
      </trkpt>
      <trkpt lat="44.56689" lon="5.48052">
        <ele>710.5</ele>
        <time>2021-09-06T10:55:10Z</time>
      </trkpt>
      <trkpt lat="44.56693" lon="5.48059">
        <ele>710.9</ele>
        <time>2021-09-06T10:55:12Z</time>
      </trkpt>
      <trkpt lat="44.56698" lon="5.48065">
        <ele>711.3</ele>
        <time>2021-09-06T10:55:13Z</time>
      </trkpt>
      <trkpt lat="44.56703" lon="5.48069">
        <ele>711.7</ele>
        <time>2021-09-06T10:55:14Z</time>
      </trkpt>
      <trkpt lat="44.56708" lon="5.48074">
        <ele>712</ele>
        <time>2021-09-06T10:55:16Z</time>
      </trkpt>
      <trkpt lat="44.5671" lon="5.48076">
        <ele>712.2</ele>
        <time>2021-09-06T10:55:17Z</time>
      </trkpt>
      <trkpt lat="44.56712" lon="5.4808">
        <ele>712.4</ele>
        <time>2021-09-06T10:55:18Z</time>
      </trkpt>
      <trkpt lat="44.56713" lon="5.4809">
        <ele>712.9</ele>
        <time>2021-09-06T10:55:20Z</time>
      </trkpt>
      <trkpt lat="44.56712" lon="5.48098">
        <ele>713.3</ele>
        <time>2021-09-06T10:55:22Z</time>
      </trkpt>
      <trkpt lat="44.56711" lon="5.48107">
        <ele>713.6</ele>
        <time>2021-09-06T10:55:23Z</time>
      </trkpt>
      <trkpt lat="44.5671" lon="5.48116">
        <ele>713.9</ele>
        <time>2021-09-06T10:55:24Z</time>
      </trkpt>
      <trkpt lat="44.56709" lon="5.48125">
        <ele>714.2</ele>
        <time>2021-09-06T10:55:26Z</time>
      </trkpt>
      <trkpt lat="44.56708" lon="5.48133">
        <ele>714.5</ele>
        <time>2021-09-06T10:55:27Z</time>
      </trkpt>
      <trkpt lat="44.56708" lon="5.48142">
        <ele>714.8</ele>
        <time>2021-09-06T10:55:29Z</time>
      </trkpt>
      <trkpt lat="44.56707" lon="5.48151">
        <ele>715.1</ele>
        <time>2021-09-06T10:56:18Z</time>
      </trkpt>
      <trkpt lat="44.56706" lon="5.48159">
        <ele>715.5</ele>
        <time>2021-09-06T10:56:19Z</time>
      </trkpt>
      <trkpt lat="44.56702" lon="5.48169">
        <ele>715.9</ele>
        <time>2021-09-06T10:56:20Z</time>
      </trkpt>
      <trkpt lat="44.56698" lon="5.48179">
        <ele>716.3</ele>
        <time>2021-09-06T10:56:22Z</time>
      </trkpt>
      <trkpt lat="44.56692" lon="5.48191">
        <ele>716.9</ele>
        <time>2021-09-06T10:56:24Z</time>
      </trkpt>
      <trkpt lat="44.56687" lon="5.48199">
        <ele>717.4</ele>
        <time>2021-09-06T10:56:25Z</time>
      </trkpt>
      <trkpt lat="44.56684" lon="5.48201">
        <ele>717.6</ele>
        <time>2021-09-06T10:56:26Z</time>
      </trkpt>
      <trkpt lat="44.56681" lon="5.48207">
        <ele>718</ele>
        <time>2021-09-06T10:56:27Z</time>
      </trkpt>
      <trkpt lat="44.56677" lon="5.48212">
        <ele>718.3</ele>
        <time>2021-09-06T10:56:29Z</time>
      </trkpt>
      <trkpt lat="44.56677" lon="5.48213">
        <ele>718.4</ele>
        <time>2021-09-06T10:56:30Z</time>
      </trkpt>
      <trkpt lat="44.56678" lon="5.48213">
        <ele>718.5</ele>
        <time>2021-09-06T10:56:31Z</time>
      </trkpt>
      <trkpt lat="44.5668" lon="5.48213">
        <ele>718.6</ele>
        <time>2021-09-06T10:56:33Z</time>
      </trkpt>
      <trkpt lat="44.5668" lon="5.48213">
        <ele>718.6</ele>
        <time>2021-09-06T10:56:34Z</time>
      </trkpt>
      <trkpt lat="44.56681" lon="5.48213">
        <ele>718.7</ele>
        <time>2021-09-06T10:56:35Z</time>
      </trkpt>
      <trkpt lat="44.56854" lon="5.4826">
        <ele>731.2</ele>
        <time>2021-09-06T10:59:35Z</time>
      </trkpt>
      <trkpt lat="44.56856" lon="5.48264">
        <ele>731.4</ele>
        <time>2021-09-06T10:59:37Z</time>
      </trkpt>
      <trkpt lat="44.56856" lon="5.48267">
        <ele>731.5</ele>
        <time>2021-09-06T10:59:38Z</time>
      </trkpt>
      <trkpt lat="44.56854" lon="5.4827">
        <ele>731.7</ele>
        <time>2021-09-06T10:59:40Z</time>
      </trkpt>
      <trkpt lat="44.56854" lon="5.48271">
        <ele>731.7</ele>
        <time>2021-09-06T10:59:41Z</time>
      </trkpt>
      <trkpt lat="44.56853" lon="5.48272">
        <ele>731.7</ele>
        <time>2021-09-06T10:59:43Z</time>
      </trkpt>
      <trkpt lat="44.56853" lon="5.48272">
        <ele>731.8</ele>
        <time>2021-09-06T10:59:44Z</time>
      </trkpt>
      <trkpt lat="44.56853" lon="5.48273">
        <ele>731.8</ele>
        <time>2021-09-06T10:59:45Z</time>
      </trkpt>
      <trkpt lat="44.56853" lon="5.48276">
        <ele>732</ele>
        <time>2021-09-06T10:59:47Z</time>
      </trkpt>
      <trkpt lat="44.56853" lon="5.48281">
        <ele>732.2</ele>
        <time>2021-09-06T10:59:49Z</time>
      </trkpt>
      <trkpt lat="44.56854" lon="5.48284">
        <ele>732.3</ele>
        <time>2021-09-06T10:59:50Z</time>
      </trkpt>
      <trkpt lat="44.56854" lon="5.48288">
        <ele>732.5</ele>
        <time>2021-09-06T10:59:52Z</time>
      </trkpt>
      <trkpt lat="44.56853" lon="5.48288">
        <ele>732.5</ele>
        <time>2021-09-06T10:59:54Z</time>
      </trkpt>
      <trkpt lat="44.56853" lon="5.48289">
        <ele>732.6</ele>
        <time>2021-09-06T10:59:55Z</time>
      </trkpt>
      <trkpt lat="44.56853" lon="5.48291">
        <ele>732.6</ele>
        <time>2021-09-06T10:59:56Z</time>
      </trkpt>
      <trkpt lat="44.56854" lon="5.48297">
        <ele>732.8</ele>
        <time>2021-09-06T10:59:58Z</time>
      </trkpt>
      <trkpt lat="44.56855" lon="5.48299">
        <ele>733.1</ele>
        <time>2021-09-06T10:59:59Z</time>
      </trkpt>
      <trkpt lat="44.56856" lon="5.48301">
        <ele>733.3</ele>
        <time>2021-09-06T11:00:00Z</time>
      </trkpt>
      <trkpt lat="44.56857" lon="5.48301">
        <ele>733.5</ele>
        <time>2021-09-06T11:00:01Z</time>
      </trkpt>
      <trkpt lat="44.5686" lon="5.48302">
        <ele>733.9</ele>
        <time>2021-09-06T11:00:03Z</time>
      </trkpt>
      <trkpt lat="44.56862" lon="5.48302">
        <ele>734.2</ele>
        <time>2021-09-06T11:00:05Z</time>
      </trkpt>
      <trkpt lat="44.56863" lon="5.48304">
        <ele>734.4</ele>
        <time>2021-09-06T11:00:06Z</time>
      </trkpt>
      <trkpt lat="44.56863" lon="5.48306">
        <ele>734.6</ele>
        <time>2021-09-06T11:00:08Z</time>
      </trkpt>
      <trkpt lat="44.56863" lon="5.4831">
        <ele>735</ele>
        <time>2021-09-06T11:00:10Z</time>
      </trkpt>
      <trkpt lat="44.56863" lon="5.4831">
        <ele>735</ele>
        <time>2021-09-06T11:00:10Z</time>
      </trkpt>
      <trkpt lat="44.56864" lon="5.48313">
        <ele>735.4</ele>
        <time>2021-09-06T11:00:11Z</time>
      </trkpt>
      <trkpt lat="44.56864" lon="5.48315">
        <ele>735.5</ele>
        <time>2021-09-06T11:00:12Z</time>
      </trkpt>
      <trkpt lat="44.56866" lon="5.48318">
        <ele>735.9</ele>
        <time>2021-09-06T11:00:13Z</time>
      </trkpt>
      <trkpt lat="44.56867" lon="5.48319">
        <ele>736.1</ele>
        <time>2021-09-06T11:00:15Z</time>
      </trkpt>
      <trkpt lat="44.56868" lon="5.4832">
        <ele>736.3</ele>
        <time>2021-09-06T11:00:16Z</time>
      </trkpt>
      <trkpt lat="44.56868" lon="5.48323">
        <ele>736.5</ele>
        <time>2021-09-06T11:00:18Z</time>
      </trkpt>
      <trkpt lat="44.56869" lon="5.48325">
        <ele>736.8</ele>
        <time>2021-09-06T11:00:19Z</time>
      </trkpt>
      <trkpt lat="44.56869" lon="5.48328">
        <ele>737.1</ele>
        <time>2021-09-06T11:00:21Z</time>
      </trkpt>
      <trkpt lat="44.56869" lon="5.48333">
        <ele>737.6</ele>
        <time>2021-09-06T11:00:23Z</time>
      </trkpt>
      <trkpt lat="44.56869" lon="5.48338">
        <ele>738</ele>
        <time>2021-09-06T11:00:24Z</time>
      </trkpt>
      <trkpt lat="44.56869" lon="5.4834">
        <ele>738.2</ele>
        <time>2021-09-06T11:00:26Z</time>
      </trkpt>
      <trkpt lat="44.56869" lon="5.48341">
        <ele>738.4</ele>
        <time>2021-09-06T11:00:27Z</time>
      </trkpt>
      <trkpt lat="44.56869" lon="5.48343">
        <ele>738.6</ele>
        <time>2021-09-06T11:00:29Z</time>
      </trkpt>
      <trkpt lat="44.56869" lon="5.48349">
        <ele>739.1</ele>
        <time>2021-09-06T11:00:31Z</time>
      </trkpt>
      <trkpt lat="44.56869" lon="5.48354">
        <ele>739.7</ele>
        <time>2021-09-06T11:00:32Z</time>
      </trkpt>
      <trkpt lat="44.5687" lon="5.48356">
        <ele>739.9</ele>
        <time>2021-09-06T11:00:33Z</time>
      </trkpt>
      <trkpt lat="44.5687" lon="5.48358">
        <ele>740.1</ele>
        <time>2021-09-06T11:00:35Z</time>
      </trkpt>
      <trkpt lat="44.5687" lon="5.48359">
        <ele>740.2</ele>
        <time>2021-09-06T11:00:36Z</time>
      </trkpt>
      <trkpt lat="44.56872" lon="5.48358">
        <ele>740.4</ele>
        <time>2021-09-06T11:00:37Z</time>
      </trkpt>
      <trkpt lat="44.56872" lon="5.48359">
        <ele>740.5</ele>
        <time>2021-09-06T11:00:38Z</time>
      </trkpt>
      <trkpt lat="44.56872" lon="5.48359">
        <ele>740.5</ele>
        <time>2021-09-06T11:00:40Z</time>
      </trkpt>
      <trkpt lat="44.56872" lon="5.48359">
        <ele>740.6</ele>
        <time>2021-09-06T11:00:41Z</time>
      </trkpt>
      <trkpt lat="44.56872" lon="5.4836">
        <ele>740.6</ele>
        <time>2021-09-06T11:00:43Z</time>
      </trkpt>
      <trkpt lat="44.56873" lon="5.4836">
        <ele>740.7</ele>
        <time>2021-09-06T11:00:44Z</time>
      </trkpt>
      <trkpt lat="44.56874" lon="5.48362">
        <ele>740.9</ele>
        <time>2021-09-06T11:00:46Z</time>
      </trkpt>
      <trkpt lat="44.56912" lon="5.48408">
        <ele>747.5</ele>
        <time>2021-09-06T11:01:17Z</time>
      </trkpt>
      <trkpt lat="44.56917" lon="5.4841">
        <ele>748.2</ele>
        <time>2021-09-06T11:01:19Z</time>
      </trkpt>
      <trkpt lat="44.5692" lon="5.48411">
        <ele>748.5</ele>
        <time>2021-09-06T11:01:20Z</time>
      </trkpt>
      <trkpt lat="44.56926" lon="5.48412">
        <ele>749.2</ele>
        <time>2021-09-06T11:01:21Z</time>
      </trkpt>
      <trkpt lat="44.56928" lon="5.48414">
        <ele>749.5</ele>
        <time>2021-09-06T11:01:23Z</time>
      </trkpt>
      <trkpt lat="44.56929" lon="5.48417">
        <ele>749.8</ele>
        <time>2021-09-06T11:01:25Z</time>
      </trkpt>
      <trkpt lat="44.56929" lon="5.48418">
        <ele>749.9</ele>
        <time>2021-09-06T11:01:27Z</time>
      </trkpt>
      <trkpt lat="44.56928" lon="5.48419">
        <ele>750.1</ele>
        <time>2021-09-06T11:01:29Z</time>
      </trkpt>
      <trkpt lat="44.56927" lon="5.4842">
        <ele>750.2</ele>
        <time>2021-09-06T11:01:30Z</time>
      </trkpt>
      <trkpt lat="44.56926" lon="5.4842">
        <ele>750.3</ele>
        <time>2021-09-06T11:01:31Z</time>
      </trkpt>
      <trkpt lat="44.56926" lon="5.48422">
        <ele>750.4</ele>
        <time>2021-09-06T11:01:33Z</time>
      </trkpt>
      <trkpt lat="44.56926" lon="5.48424">
        <ele>750.6</ele>
        <time>2021-09-06T11:01:35Z</time>
      </trkpt>
      <trkpt lat="44.56925" lon="5.48425">
        <ele>751.3</ele>
        <time>2021-09-06T11:01:36Z</time>
      </trkpt>
      <trkpt lat="44.56925" lon="5.48427">
        <ele>751.4</ele>
        <time>2021-09-06T11:01:38Z</time>
      </trkpt>
      <trkpt lat="44.56905" lon="5.48424">
        <ele>752.7</ele>
        <time>2021-09-06T11:02:44Z</time>
      </trkpt>
      <trkpt lat="44.56903" lon="5.48422">
        <ele>752.8</ele>
        <time>2021-09-06T11:02:45Z</time>
      </trkpt>
      <trkpt lat="44.569" lon="5.4842">
        <ele>753</ele>
        <time>2021-09-06T11:02:47Z</time>
      </trkpt>
      <trkpt lat="44.56898" lon="5.48417">
        <ele>753.2</ele>
        <time>2021-09-06T11:02:48Z</time>
      </trkpt>
      <trkpt lat="44.56896" lon="5.48412">
        <ele>753.3</ele>
        <time>2021-09-06T11:02:50Z</time>
      </trkpt>
      <trkpt lat="44.56894" lon="5.4841">
        <ele>753.5</ele>
        <time>2021-09-06T11:02:51Z</time>
      </trkpt>
      <trkpt lat="44.56893" lon="5.48408">
        <ele>753.8</ele>
        <time>2021-09-06T11:02:53Z</time>
      </trkpt>
      <trkpt lat="44.56893" lon="5.48407">
        <ele>753.8</ele>
        <time>2021-09-06T11:02:54Z</time>
      </trkpt>
      <trkpt lat="44.56892" lon="5.48406">
        <ele>753.9</ele>
        <time>2021-09-06T11:02:55Z</time>
      </trkpt>
      <trkpt lat="44.56847" lon="5.48386">
        <ele>758.6</ele>
        <time>2021-09-06T11:03:27Z</time>
      </trkpt>
      <trkpt lat="44.56844" lon="5.48383">
        <ele>759</ele>
        <time>2021-09-06T11:03:29Z</time>
      </trkpt>
      <trkpt lat="44.56842" lon="5.4838">
        <ele>759.2</ele>
        <time>2021-09-06T11:03:30Z</time>
      </trkpt>
      <trkpt lat="44.56842" lon="5.48379">
        <ele>759.3</ele>
        <time>2021-09-06T11:03:31Z</time>
      </trkpt>
      <trkpt lat="44.5684" lon="5.48378">
        <ele>759.5</ele>
        <time>2021-09-06T11:03:32Z</time>
      </trkpt>
      <trkpt lat="44.56836" lon="5.48375">
        <ele>759.9</ele>
        <time>2021-09-06T11:03:34Z</time>
      </trkpt>
      <trkpt lat="44.5683" lon="5.48371">
        <ele>760.5</ele>
        <time>2021-09-06T11:03:36Z</time>
      </trkpt>
      <trkpt lat="44.56827" lon="5.48369">
        <ele>760.8</ele>
        <time>2021-09-06T11:03:37Z</time>
      </trkpt>
      <trkpt lat="44.56825" lon="5.48369">
        <ele>761</ele>
        <time>2021-09-06T11:03:38Z</time>
      </trkpt>
      <trkpt lat="44.56822" lon="5.48367">
        <ele>761.2</ele>
        <time>2021-09-06T11:03:40Z</time>
      </trkpt>
      <trkpt lat="44.56821" lon="5.48366">
        <ele>761.3</ele>
        <time>2021-09-06T11:03:41Z</time>
      </trkpt>
      <trkpt lat="44.56818" lon="5.48365">
        <ele>761.6</ele>
        <time>2021-09-06T11:03:43Z</time>
      </trkpt>
      <trkpt lat="44.56815" lon="5.48366">
        <ele>761.8</ele>
        <time>2021-09-06T11:03:45Z</time>
      </trkpt>
      <trkpt lat="44.56813" lon="5.48366">
        <ele>762</ele>
        <time>2021-09-06T11:03:47Z</time>
      </trkpt>
      <trkpt lat="44.56812" lon="5.48366">
        <ele>762</ele>
        <time>2021-09-06T11:03:49Z</time>
      </trkpt>
      <trkpt lat="44.56812" lon="5.48367">
        <ele>762.1</ele>
        <time>2021-09-06T11:03:51Z</time>
      </trkpt>
      <trkpt lat="44.56811" lon="5.48368">
        <ele>762.2</ele>
        <time>2021-09-06T11:03:53Z</time>
      </trkpt>
      <trkpt lat="44.5681" lon="5.48368">
        <ele>762.3</ele>
        <time>2021-09-06T11:03:54Z</time>
      </trkpt>
      <trkpt lat="44.5681" lon="5.48369">
        <ele>762.3</ele>
        <time>2021-09-06T11:03:55Z</time>
      </trkpt>
      <trkpt lat="44.5677" lon="5.48339">
        <ele>766.4</ele>
        <time>2021-09-06T11:04:40Z</time>
      </trkpt>
      <trkpt lat="44.56765" lon="5.48337">
        <ele>766.9</ele>
        <time>2021-09-06T11:04:42Z</time>
      </trkpt>
      <trkpt lat="44.56763" lon="5.48337">
        <ele>767.2</ele>
        <time>2021-09-06T11:04:43Z</time>
      </trkpt>
      <trkpt lat="44.56762" lon="5.48337">
        <ele>767.2</ele>
        <time>2021-09-06T11:04:44Z</time>
      </trkpt>
      <trkpt lat="44.56761" lon="5.48337">
        <ele>767.3</ele>
        <time>2021-09-06T11:04:45Z</time>
      </trkpt>
      <trkpt lat="44.5676" lon="5.48337">
        <ele>767.4</ele>
        <time>2021-09-06T11:04:47Z</time>
      </trkpt>
      <trkpt lat="44.56759" lon="5.48337">
        <ele>767.5</ele>
        <time>2021-09-06T11:04:48Z</time>
      </trkpt>
      <trkpt lat="44.56757" lon="5.48336">
        <ele>767.7</ele>
        <time>2021-09-06T11:04:50Z</time>
      </trkpt>
      <trkpt lat="44.56753" lon="5.48334">
        <ele>768.1</ele>
        <time>2021-09-06T11:04:52Z</time>
      </trkpt>
      <trkpt lat="44.56751" lon="5.48333">
        <ele>768.4</ele>
        <time>2021-09-06T11:04:53Z</time>
      </trkpt>
      <trkpt lat="44.56748" lon="5.48331">
        <ele>768.7</ele>
        <time>2021-09-06T11:04:55Z</time>
      </trkpt>
      <trkpt lat="44.56746" lon="5.4833">
        <ele>768.9</ele>
        <time>2021-09-06T11:04:56Z</time>
      </trkpt>
      <trkpt lat="44.56744" lon="5.4833">
        <ele>769.1</ele>
        <time>2021-09-06T11:04:57Z</time>
      </trkpt>
      <trkpt lat="44.56741" lon="5.48329">
        <ele>769.4</ele>
        <time>2021-09-06T11:04:59Z</time>
      </trkpt>
      <trkpt lat="44.5674" lon="5.48329">
        <ele>769.5</ele>
        <time>2021-09-06T11:05:00Z</time>
      </trkpt>
      <trkpt lat="44.56738" lon="5.48329">
        <ele>769.7</ele>
        <time>2021-09-06T11:05:01Z</time>
      </trkpt>
      <trkpt lat="44.56735" lon="5.48328">
        <ele>770</ele>
        <time>2021-09-06T11:05:02Z</time>
      </trkpt>
      <trkpt lat="44.56732" lon="5.48328">
        <ele>770.3</ele>
        <time>2021-09-06T11:05:04Z</time>
      </trkpt>
      <trkpt lat="44.56729" lon="5.48327">
        <ele>770.6</ele>
        <time>2021-09-06T11:05:05Z</time>
      </trkpt>
      <trkpt lat="44.56726" lon="5.48326">
        <ele>770.9</ele>
        <time>2021-09-06T11:05:06Z</time>
      </trkpt>
      <trkpt lat="44.56723" lon="5.48326">
        <ele>771.1</ele>
        <time>2021-09-06T11:05:07Z</time>
      </trkpt>
      <trkpt lat="44.5672" lon="5.48325">
        <ele>771.4</ele>
        <time>2021-09-06T11:05:08Z</time>
      </trkpt>
      <trkpt lat="44.56718" lon="5.48324">
        <ele>771.7</ele>
        <time>2021-09-06T11:05:10Z</time>
      </trkpt>
      <trkpt lat="44.56715" lon="5.48324">
        <ele>772</ele>
        <time>2021-09-06T11:05:11Z</time>
      </trkpt>
      <trkpt lat="44.56712" lon="5.48323">
        <ele>772.2</ele>
        <time>2021-09-06T11:05:12Z</time>
      </trkpt>
      <trkpt lat="44.56709" lon="5.48322">
        <ele>772.4</ele>
        <time>2021-09-06T11:05:35Z</time>
      </trkpt>
      <trkpt lat="44.56706" lon="5.48321">
        <ele>772.7</ele>
        <time>2021-09-06T11:05:36Z</time>
      </trkpt>
      <trkpt lat="44.56703" lon="5.48321">
        <ele>772.9</ele>
        <time>2021-09-06T11:05:37Z</time>
      </trkpt>
      <trkpt lat="44.56697" lon="5.48317">
        <ele>773.4</ele>
        <time>2021-09-06T11:05:39Z</time>
      </trkpt>
      <trkpt lat="44.56694" lon="5.48315">
        <ele>773.7</ele>
        <time>2021-09-06T11:05:40Z</time>
      </trkpt>
      <trkpt lat="44.56691" lon="5.48313">
        <ele>774</ele>
        <time>2021-09-06T11:05:41Z</time>
      </trkpt>
      <trkpt lat="44.5669" lon="5.48312">
        <ele>774.1</ele>
        <time>2021-09-06T11:05:42Z</time>
      </trkpt>
      <trkpt lat="44.56687" lon="5.48309">
        <ele>774.4</ele>
        <time>2021-09-06T11:05:43Z</time>
      </trkpt>
      <trkpt lat="44.56684" lon="5.48307">
        <ele>774.6</ele>
        <time>2021-09-06T11:05:45Z</time>
      </trkpt>
      <trkpt lat="44.56684" lon="5.48308">
        <ele>774.7</ele>
        <time>2021-09-06T11:05:46Z</time>
      </trkpt>
      <trkpt lat="44.56683" lon="5.48308">
        <ele>774.8</ele>
        <time>2021-09-06T11:05:48Z</time>
      </trkpt>
      <trkpt lat="44.56681" lon="5.48307">
        <ele>774.9</ele>
        <time>2021-09-06T11:05:49Z</time>
      </trkpt>
      <trkpt lat="44.5668" lon="5.48306">
        <ele>775</ele>
        <time>2021-09-06T11:05:50Z</time>
      </trkpt>
      <trkpt lat="44.5668" lon="5.48306">
        <ele>775.1</ele>
        <time>2021-09-06T11:05:51Z</time>
      </trkpt>
      <trkpt lat="44.56678" lon="5.48304">
        <ele>775.2</ele>
        <time>2021-09-06T11:05:53Z</time>
      </trkpt>
      <trkpt lat="44.56673" lon="5.48302">
        <ele>775.6</ele>
        <time>2021-09-06T11:05:55Z</time>
      </trkpt>
      <trkpt lat="44.56671" lon="5.48301">
        <ele>775.7</ele>
        <time>2021-09-06T11:05:56Z</time>
      </trkpt>
      <trkpt lat="44.56669" lon="5.48301">
        <ele>775.8</ele>
        <time>2021-09-06T11:05:58Z</time>
      </trkpt>
      <trkpt lat="44.56669" lon="5.48306">
        <ele>776.1</ele>
        <time>2021-09-06T11:06:00Z</time>
      </trkpt>
      <trkpt lat="44.56668" lon="5.48308">
        <ele>776.3</ele>
        <time>2021-09-06T11:06:02Z</time>
      </trkpt>
      <trkpt lat="44.56668" lon="5.48309">
        <ele>776.4</ele>
        <time>2021-09-06T11:06:03Z</time>
      </trkpt>
      <trkpt lat="44.56667" lon="5.4831">
        <ele>776.4</ele>
        <time>2021-09-06T11:06:04Z</time>
      </trkpt>
      <trkpt lat="44.56666" lon="5.4831">
        <ele>776.5</ele>
        <time>2021-09-06T11:06:06Z</time>
      </trkpt>
      <trkpt lat="44.56653" lon="5.4829">
        <ele>777.7</ele>
        <time>2021-09-06T11:06:21Z</time>
      </trkpt>
      <trkpt lat="44.56651" lon="5.48287">
        <ele>777.4</ele>
        <time>2021-09-06T11:06:22Z</time>
      </trkpt>
      <trkpt lat="44.56649" lon="5.48286">
        <ele>777.2</ele>
        <time>2021-09-06T11:06:23Z</time>
      </trkpt>
      <trkpt lat="44.56647" lon="5.48285">
        <ele>777.1</ele>
        <time>2021-09-06T11:06:25Z</time>
      </trkpt>
      <trkpt lat="44.56645" lon="5.48285">
        <ele>776.9</ele>
        <time>2021-09-06T11:06:26Z</time>
      </trkpt>
      <trkpt lat="44.56645" lon="5.48286">
        <ele>776.9</ele>
        <time>2021-09-06T11:06:27Z</time>
      </trkpt>
      <trkpt lat="44.56644" lon="5.48287">
        <ele>776.8</ele>
        <time>2021-09-06T11:06:29Z</time>
      </trkpt>
      <trkpt lat="44.56643" lon="5.4829">
        <ele>776.6</ele>
        <time>2021-09-06T11:06:31Z</time>
      </trkpt>
      <trkpt lat="44.56643" lon="5.48292">
        <ele>776.5</ele>
        <time>2021-09-06T11:06:32Z</time>
      </trkpt>
      <trkpt lat="44.56644" lon="5.48294">
        <ele>776.4</ele>
        <time>2021-09-06T11:06:34Z</time>
      </trkpt>
      <trkpt lat="44.56645" lon="5.48297">
        <ele>776.2</ele>
        <time>2021-09-06T11:06:35Z</time>
      </trkpt>
      <trkpt lat="44.56648" lon="5.48299">
        <ele>775.9</ele>
        <time>2021-09-06T11:06:37Z</time>
      </trkpt>
      <trkpt lat="44.5665" lon="5.483">
        <ele>775.8</ele>
        <time>2021-09-06T11:06:38Z</time>
      </trkpt>
      <trkpt lat="44.56652" lon="5.48301">
        <ele>775.7</ele>
        <time>2021-09-06T11:06:40Z</time>
      </trkpt>
      <trkpt lat="44.56654" lon="5.48303">
        <ele>775.5</ele>
        <time>2021-09-06T11:06:41Z</time>
      </trkpt>
      <trkpt lat="44.56655" lon="5.48304">
        <ele>775.4</ele>
        <time>2021-09-06T11:06:42Z</time>
      </trkpt>
      <trkpt lat="44.56666" lon="5.4831">
        <ele>774.7</ele>
        <time>2021-09-06T11:06:44Z</time>
      </trkpt>
      <trkpt lat="44.56675" lon="5.48316">
        <ele>774</ele>
        <time>2021-09-06T11:06:46Z</time>
      </trkpt>
      <trkpt lat="44.56685" lon="5.48321">
        <ele>773.3</ele>
        <time>2021-09-06T11:06:48Z</time>
      </trkpt>
      <trkpt lat="44.56688" lon="5.48324">
        <ele>773</ele>
        <time>2021-09-06T11:06:49Z</time>
      </trkpt>
      <trkpt lat="44.56692" lon="5.48329">
        <ele>772.7</ele>
        <time>2021-09-06T11:06:50Z</time>
      </trkpt>
      <trkpt lat="44.56694" lon="5.48332">
        <ele>772.5</ele>
        <time>2021-09-06T11:06:52Z</time>
      </trkpt>
      <trkpt lat="44.56695" lon="5.48337">
        <ele>772.2</ele>
        <time>2021-09-06T11:06:54Z</time>
      </trkpt>
      <trkpt lat="44.56696" lon="5.4834">
        <ele>772</ele>
        <time>2021-09-06T11:06:55Z</time>
      </trkpt>
      <trkpt lat="44.56701" lon="5.48343">
        <ele>771.6</ele>
        <time>2021-09-06T11:06:57Z</time>
      </trkpt>
      <trkpt lat="44.56704" lon="5.48347">
        <ele>771.3</ele>
        <time>2021-09-06T11:06:58Z</time>
      </trkpt>
      <trkpt lat="44.56706" lon="5.4835">
        <ele>771.1</ele>
        <time>2021-09-06T11:06:59Z</time>
      </trkpt>
      <trkpt lat="44.56709" lon="5.48353">
        <ele>770.7</ele>
        <time>2021-09-06T11:07:01Z</time>
      </trkpt>
      <trkpt lat="44.56713" lon="5.48357">
        <ele>770.3</ele>
        <time>2021-09-06T11:07:02Z</time>
      </trkpt>
      <trkpt lat="44.56714" lon="5.48358">
        <ele>770.2</ele>
        <time>2021-09-06T11:07:03Z</time>
      </trkpt>
      <trkpt lat="44.56717" lon="5.48361">
        <ele>769.9</ele>
        <time>2021-09-06T11:07:05Z</time>
      </trkpt>
      <trkpt lat="44.56718" lon="5.48363">
        <ele>769.8</ele>
        <time>2021-09-06T11:07:06Z</time>
      </trkpt>
      <trkpt lat="44.56719" lon="5.48364">
        <ele>769.6</ele>
        <time>2021-09-06T11:07:07Z</time>
      </trkpt>
      <trkpt lat="44.56721" lon="5.48365">
        <ele>769.5</ele>
        <time>2021-09-06T11:07:08Z</time>
      </trkpt>
      <trkpt lat="44.56724" lon="5.48367">
        <ele>769.2</ele>
        <time>2021-09-06T11:07:10Z</time>
      </trkpt>
      <trkpt lat="44.56725" lon="5.48368">
        <ele>769.1</ele>
        <time>2021-09-06T11:07:11Z</time>
      </trkpt>
      <trkpt lat="44.56726" lon="5.48369">
        <ele>769</ele>
        <time>2021-09-06T11:07:12Z</time>
      </trkpt>
      <trkpt lat="44.56729" lon="5.4837">
        <ele>768.8</ele>
        <time>2021-09-06T11:07:14Z</time>
      </trkpt>
      <trkpt lat="44.5673" lon="5.4837">
        <ele>768.6</ele>
        <time>2021-09-06T11:07:15Z</time>
      </trkpt>
      <trkpt lat="44.56732" lon="5.4837">
        <ele>768.5</ele>
        <time>2021-09-06T11:07:16Z</time>
      </trkpt>
      <trkpt lat="44.56734" lon="5.48371">
        <ele>768.3</ele>
        <time>2021-09-06T11:07:18Z</time>
      </trkpt>
      <trkpt lat="44.56734" lon="5.48372">
        <ele>768.3</ele>
        <time>2021-09-06T11:07:19Z</time>
      </trkpt>
      <trkpt lat="44.56736" lon="5.48374">
        <ele>768.1</ele>
        <time>2021-09-06T11:07:21Z</time>
      </trkpt>
      <trkpt lat="44.56739" lon="5.48376">
        <ele>767.8</ele>
        <time>2021-09-06T11:07:23Z</time>
      </trkpt>
      <trkpt lat="44.56741" lon="5.48379">
        <ele>767.6</ele>
        <time>2021-09-06T11:07:24Z</time>
      </trkpt>
      <trkpt lat="44.56741" lon="5.48381">
        <ele>767.5</ele>
        <time>2021-09-06T11:07:25Z</time>
      </trkpt>
      <trkpt lat="44.56741" lon="5.48382">
        <ele>767.4</ele>
        <time>2021-09-06T11:07:26Z</time>
      </trkpt>
      <trkpt lat="44.56741" lon="5.48384">
        <ele>767.3</ele>
        <time>2021-09-06T11:07:28Z</time>
      </trkpt>
      <trkpt lat="44.56741" lon="5.48385">
        <ele>767.2</ele>
        <time>2021-09-06T11:07:30Z</time>
      </trkpt>
      <trkpt lat="44.56741" lon="5.48386">
        <ele>767.2</ele>
        <time>2021-09-06T11:07:31Z</time>
      </trkpt>
      <trkpt lat="44.56743" lon="5.48388">
        <ele>767</ele>
        <time>2021-09-06T11:07:32Z</time>
      </trkpt>
      <trkpt lat="44.56746" lon="5.48393">
        <ele>766.6</ele>
        <time>2021-09-06T11:07:34Z</time>
      </trkpt>
      <trkpt lat="44.56747" lon="5.48396">
        <ele>766.4</ele>
        <time>2021-09-06T11:07:35Z</time>
      </trkpt>
      <trkpt lat="44.56749" lon="5.484">
        <ele>766.1</ele>
        <time>2021-09-06T11:07:36Z</time>
      </trkpt>
      <trkpt lat="44.56752" lon="5.48403">
        <ele>765.8</ele>
        <time>2021-09-06T11:07:38Z</time>
      </trkpt>
      <trkpt lat="44.56753" lon="5.48404">
        <ele>765.8</ele>
        <time>2021-09-06T11:07:39Z</time>
      </trkpt>
      <trkpt lat="44.56755" lon="5.48408">
        <ele>765.5</ele>
        <time>2021-09-06T11:07:41Z</time>
      </trkpt>
      <trkpt lat="44.56756" lon="5.48409">
        <ele>765.4</ele>
        <time>2021-09-06T11:07:42Z</time>
      </trkpt>
      <trkpt lat="44.56757" lon="5.48411">
        <ele>765.2</ele>
        <time>2021-09-06T11:07:43Z</time>
      </trkpt>
      <trkpt lat="44.56758" lon="5.48413">
        <ele>765.1</ele>
        <time>2021-09-06T11:07:44Z</time>
      </trkpt>
      <trkpt lat="44.5676" lon="5.48417">
        <ele>764.9</ele>
        <time>2021-09-06T11:07:45Z</time>
      </trkpt>
      <trkpt lat="44.5676" lon="5.48418">
        <ele>764.8</ele>
        <time>2021-09-06T11:07:46Z</time>
      </trkpt>
      <trkpt lat="44.56765" lon="5.48421">
        <ele>764.4</ele>
        <time>2021-09-06T11:07:48Z</time>
      </trkpt>
      <trkpt lat="44.56766" lon="5.48422">
        <ele>764.2</ele>
        <time>2021-09-06T11:07:49Z</time>
      </trkpt>
      <trkpt lat="44.56768" lon="5.48423">
        <ele>764.1</ele>
        <time>2021-09-06T11:07:50Z</time>
      </trkpt>
      <trkpt lat="44.56769" lon="5.48425">
        <ele>767.4</ele>
        <time>2021-09-06T11:07:51Z</time>
      </trkpt>
      <trkpt lat="44.56771" lon="5.48431">
        <ele>770</ele>
        <time>2021-09-06T11:07:53Z</time>
      </trkpt>
      <trkpt lat="44.56774" lon="5.48436">
        <ele>772.5</ele>
        <time>2021-09-06T11:07:54Z</time>
      </trkpt>
      <trkpt lat="44.56777" lon="5.48442">
        <ele>775.9</ele>
        <time>2021-09-06T11:07:56Z</time>
      </trkpt>
      <trkpt lat="44.56779" lon="5.48445">
        <ele>777.4</ele>
        <time>2021-09-06T11:07:57Z</time>
      </trkpt>
      <trkpt lat="44.5678" lon="5.48446">
        <ele>780.6</ele>
        <time>2021-09-06T11:07:58Z</time>
      </trkpt>
      <trkpt lat="44.56783" lon="5.48449">
        <ele>782.1</ele>
        <time>2021-09-06T11:07:59Z</time>
      </trkpt>
      <trkpt lat="44.56784" lon="5.48449">
        <ele>784.3</ele>
        <time>2021-09-06T11:08:00Z</time>
      </trkpt>
      <trkpt lat="44.56786" lon="5.48452">
        <ele>786.7</ele>
        <time>2021-09-06T11:08:01Z</time>
      </trkpt>
      <trkpt lat="44.56787" lon="5.48453">
        <ele>789</ele>
        <time>2021-09-06T11:08:02Z</time>
      </trkpt>
      <trkpt lat="44.56788" lon="5.48455">
        <ele>791.3</ele>
        <time>2021-09-06T11:08:03Z</time>
      </trkpt>
      <trkpt lat="44.56789" lon="5.48461">
        <ele>791.5</ele>
        <time>2021-09-06T11:08:05Z</time>
      </trkpt>
      <trkpt lat="44.5679" lon="5.48465">
        <ele>791.8</ele>
        <time>2021-09-06T11:08:06Z</time>
      </trkpt>
      <trkpt lat="44.5679" lon="5.48467">
        <ele>791.8</ele>
        <time>2021-09-06T11:08:07Z</time>
      </trkpt>
      <trkpt lat="44.56791" lon="5.48469">
        <ele>791.9</ele>
        <time>2021-09-06T11:08:08Z</time>
      </trkpt>
      <trkpt lat="44.56793" lon="5.48472">
        <ele>792.2</ele>
        <time>2021-09-06T11:08:10Z</time>
      </trkpt>
      <trkpt lat="44.56795" lon="5.48476">
        <ele>792.4</ele>
        <time>2021-09-06T11:08:11Z</time>
      </trkpt>
      <trkpt lat="44.56795" lon="5.48477">
        <ele>792.5</ele>
        <time>2021-09-06T11:08:12Z</time>
      </trkpt>
      <trkpt lat="44.56795" lon="5.48475">
        <ele>792.6</ele>
        <time>2021-09-06T11:08:14Z</time>
      </trkpt>
      <trkpt lat="44.56793" lon="5.48474">
        <ele>792.7</ele>
        <time>2021-09-06T11:08:15Z</time>
      </trkpt>
      <trkpt lat="44.56792" lon="5.48474">
        <ele>792.8</ele>
        <time>2021-09-06T11:08:17Z</time>
      </trkpt>
      <trkpt lat="44.56791" lon="5.48474">
        <ele>792.9</ele>
        <time>2021-09-06T11:08:18Z</time>
      </trkpt>
      <trkpt lat="44.5679" lon="5.48475">
        <ele>793</ele>
        <time>2021-09-06T11:08:20Z</time>
      </trkpt>
      <trkpt lat="44.56789" lon="5.48476">
        <ele>793.1</ele>
        <time>2021-09-06T11:08:21Z</time>
      </trkpt>
      <trkpt lat="44.56787" lon="5.48484">
        <ele>793.6</ele>
        <time>2021-09-06T11:08:28Z</time>
      </trkpt>
      <trkpt lat="44.56788" lon="5.48489">
        <ele>793.8</ele>
        <time>2021-09-06T11:08:29Z</time>
      </trkpt>
      <trkpt lat="44.56789" lon="5.48498">
        <ele>794.3</ele>
        <time>2021-09-06T11:08:31Z</time>
      </trkpt>
      <trkpt lat="44.56789" lon="5.48502">
        <ele>794.5</ele>
        <time>2021-09-06T11:08:32Z</time>
      </trkpt>
      <trkpt lat="44.5679" lon="5.48506">
        <ele>794.7</ele>
        <time>2021-09-06T11:08:33Z</time>
      </trkpt>
      <trkpt lat="44.56791" lon="5.48514">
        <ele>795.2</ele>
        <time>2021-09-06T11:08:35Z</time>
      </trkpt>
      <trkpt lat="44.56791" lon="5.48517">
        <ele>795.4</ele>
        <time>2021-09-06T11:08:36Z</time>
      </trkpt>
      <trkpt lat="44.56791" lon="5.48518">
        <ele>795.5</ele>
        <time>2021-09-06T11:08:37Z</time>
      </trkpt>
      <trkpt lat="44.56792" lon="5.48521">
        <ele>795.6</ele>
        <time>2021-09-06T11:08:38Z</time>
      </trkpt>
      <trkpt lat="44.56792" lon="5.48523">
        <ele>795.8</ele>
        <time>2021-09-06T11:08:39Z</time>
      </trkpt>
      <trkpt lat="44.56793" lon="5.48535">
        <ele>796.5</ele>
        <time>2021-09-06T11:08:40Z</time>
      </trkpt>
      <trkpt lat="44.56794" lon="5.48547">
        <ele>797.3</ele>
        <time>2021-09-06T11:08:42Z</time>
      </trkpt>
      <trkpt lat="44.56794" lon="5.48558">
        <ele>797.9</ele>
        <time>2021-09-06T11:08:44Z</time>
      </trkpt>
      <trkpt lat="44.56795" lon="5.4857">
        <ele>798.7</ele>
        <time>2021-09-06T11:08:45Z</time>
      </trkpt>
      <trkpt lat="44.56795" lon="5.48581">
        <ele>799.5</ele>
        <time>2021-09-06T11:09:16Z</time>
      </trkpt>
      <trkpt lat="44.56795" lon="5.48593">
        <ele>800.4</ele>
        <time>2021-09-06T11:09:17Z</time>
      </trkpt>
      <trkpt lat="44.56796" lon="5.48604">
        <ele>801.3</ele>
        <time>2021-09-06T11:09:18Z</time>
      </trkpt>
      <trkpt lat="44.56794" lon="5.48608">
        <ele>801.6</ele>
        <time>2021-09-06T11:09:19Z</time>
      </trkpt>
      <trkpt lat="44.56793" lon="5.48611">
        <ele>801.9</ele>
        <time>2021-09-06T11:09:21Z</time>
      </trkpt>
      <trkpt lat="44.56792" lon="5.48613">
        <ele>802</ele>
        <time>2021-09-06T11:09:22Z</time>
      </trkpt>
      <trkpt lat="44.56792" lon="5.48617">
        <ele>802.3</ele>
        <time>2021-09-06T11:09:24Z</time>
      </trkpt>
      <trkpt lat="44.56792" lon="5.48618">
        <ele>802.4</ele>
        <time>2021-09-06T11:09:25Z</time>
      </trkpt>
      <trkpt lat="44.56792" lon="5.48621">
        <ele>802.5</ele>
        <time>2021-09-06T11:09:27Z</time>
      </trkpt>
      <trkpt lat="44.56792" lon="5.48622">
        <ele>802.6</ele>
        <time>2021-09-06T11:09:28Z</time>
      </trkpt>
      <trkpt lat="44.56792" lon="5.48625">
        <ele>802.8</ele>
        <time>2021-09-06T11:09:29Z</time>
      </trkpt>
      <trkpt lat="44.56792" lon="5.4874">
        <ele>805.4</ele>
        <time>2021-09-06T11:10:26Z</time>
      </trkpt>
      <trkpt lat="44.56792" lon="5.48748">
        <ele>805.7</ele>
        <time>2021-09-06T11:10:28Z</time>
      </trkpt>
      <trkpt lat="44.56792" lon="5.4875">
        <ele>805.7</ele>
        <time>2021-09-06T11:10:29Z</time>
      </trkpt>
      <trkpt lat="44.56791" lon="5.4876">
        <ele>806.1</ele>
        <time>2021-09-06T11:10:31Z</time>
      </trkpt>
      <trkpt lat="44.56793" lon="5.48764">
        <ele>806.3</ele>
        <time>2021-09-06T11:10:33Z</time>
      </trkpt>
      <trkpt lat="44.56795" lon="5.48769">
        <ele>806.5</ele>
        <time>2021-09-06T11:10:34Z</time>
      </trkpt>
      <trkpt lat="44.56797" lon="5.48773">
        <ele>806.6</ele>
        <time>2021-09-06T11:10:35Z</time>
      </trkpt>
      <trkpt lat="44.56801" lon="5.48778">
        <ele>806.9</ele>
        <time>2021-09-06T11:10:37Z</time>
      </trkpt>
      <trkpt lat="44.56805" lon="5.48784">
        <ele>807.1</ele>
        <time>2021-09-06T11:10:38Z</time>
      </trkpt>
      <trkpt lat="44.56806" lon="5.48787">
        <ele>807.2</ele>
        <time>2021-09-06T11:10:39Z</time>
      </trkpt>
      <trkpt lat="44.56809" lon="5.48792">
        <ele>807.3</ele>
        <time>2021-09-06T11:10:41Z</time>
      </trkpt>
      <trkpt lat="44.56811" lon="5.48797">
        <ele>807.4</ele>
        <time>2021-09-06T11:10:42Z</time>
      </trkpt>
      <trkpt lat="44.56813" lon="5.488">
        <ele>807.5</ele>
        <time>2021-09-06T11:10:43Z</time>
      </trkpt>
      <trkpt lat="44.56814" lon="5.48801">
        <ele>807.6</ele>
        <time>2021-09-06T11:10:44Z</time>
      </trkpt>
      <trkpt lat="44.56819" lon="5.48808">
        <ele>807.7</ele>
        <time>2021-09-06T11:10:46Z</time>
      </trkpt>
      <trkpt lat="44.56823" lon="5.48811">
        <ele>807.8</ele>
        <time>2021-09-06T11:10:47Z</time>
      </trkpt>
      <trkpt lat="44.56826" lon="5.48815">
        <ele>807.9</ele>
        <time>2021-09-06T11:10:48Z</time>
      </trkpt>
      <trkpt lat="44.56737" lon="5.49181">
        <ele>828.9</ele>
        <time>2021-09-06T11:14:13Z</time>
      </trkpt>
      <trkpt lat="44.56735" lon="5.49186">
        <ele>829.4</ele>
        <time>2021-09-06T11:14:14Z</time>
      </trkpt>
      <trkpt lat="44.56733" lon="5.49191">
        <ele>829.9</ele>
        <time>2021-09-06T11:14:15Z</time>
      </trkpt>
      <trkpt lat="44.56732" lon="5.49193">
        <ele>830.2</ele>
        <time>2021-09-06T11:14:16Z</time>
      </trkpt>
      <trkpt lat="44.56731" lon="5.49195">
        <ele>830.4</ele>
        <time>2021-09-06T11:14:18Z</time>
      </trkpt>
      <trkpt lat="44.5673" lon="5.49197">
        <ele>830.6</ele>
        <time>2021-09-06T11:14:19Z</time>
      </trkpt>
      <trkpt lat="44.56729" lon="5.49198">
        <ele>830.7</ele>
        <time>2021-09-06T11:14:20Z</time>
      </trkpt>
      <trkpt lat="44.56729" lon="5.49199">
        <ele>830.8</ele>
        <time>2021-09-06T11:14:21Z</time>
      </trkpt>
      <trkpt lat="44.56728" lon="5.49199">
        <ele>830.9</ele>
        <time>2021-09-06T11:14:22Z</time>
      </trkpt>
      <trkpt lat="44.56728" lon="5.492">
        <ele>831</ele>
        <time>2021-09-06T11:14:23Z</time>
      </trkpt>
      <trkpt lat="44.56727" lon="5.49201">
        <ele>831.1</ele>
        <time>2021-09-06T11:14:25Z</time>
      </trkpt>
      <trkpt lat="44.56727" lon="5.49201">
        <ele>831.1</ele>
        <time>2021-09-06T11:14:26Z</time>
      </trkpt>
      <trkpt lat="44.56727" lon="5.49201">
        <ele>831.2</ele>
        <time>2021-09-06T11:14:27Z</time>
      </trkpt>
      <trkpt lat="44.56727" lon="5.49201">
        <ele>831.2</ele>
        <time>2021-09-06T11:14:28Z</time>
      </trkpt>
      <trkpt lat="44.56727" lon="5.49202">
        <ele>831.2</ele>
        <time>2021-09-06T11:14:29Z</time>
      </trkpt>
      <trkpt lat="44.56727" lon="5.49202">
        <ele>831.2</ele>
        <time>2021-09-06T11:14:31Z</time>
      </trkpt>
      <trkpt lat="44.56726" lon="5.49202">
        <ele>831.3</ele>
        <time>2021-09-06T11:14:33Z</time>
      </trkpt>
      <trkpt lat="44.56386" lon="5.49457">
        <ele>862.4</ele>
        <time>2021-09-06T11:18:43Z</time>
      </trkpt>
      <trkpt lat="44.56381" lon="5.49457">
        <ele>862.8</ele>
        <time>2021-09-06T11:18:45Z</time>
      </trkpt>
      <trkpt lat="44.56378" lon="5.49457">
        <ele>863.1</ele>
        <time>2021-09-06T11:18:46Z</time>
      </trkpt>
      <trkpt lat="44.56376" lon="5.49457">
        <ele>863.3</ele>
        <time>2021-09-06T11:18:47Z</time>
      </trkpt>
      <trkpt lat="44.56372" lon="5.49458">
        <ele>863.7</ele>
        <time>2021-09-06T11:18:49Z</time>
      </trkpt>
      <trkpt lat="44.56365" lon="5.49458">
        <ele>864.5</ele>
        <time>2021-09-06T11:18:50Z</time>
      </trkpt>
      <trkpt lat="44.56358" lon="5.49459">
        <ele>865.2</ele>
        <time>2021-09-06T11:18:51Z</time>
      </trkpt>
      <trkpt lat="44.56351" lon="5.49459">
        <ele>866</ele>
        <time>2021-09-06T11:18:53Z</time>
      </trkpt>
      <trkpt lat="44.56344" lon="5.49459">
        <ele>866.8</ele>
        <time>2021-09-06T11:18:54Z</time>
      </trkpt>
      <trkpt lat="44.56337" lon="5.4946">
        <ele>867.6</ele>
        <time>2021-09-06T11:18:56Z</time>
      </trkpt>
      <trkpt lat="44.56331" lon="5.4946">
        <ele>868.4</ele>
        <time>2021-09-06T11:21:04Z</time>
      </trkpt>
      <trkpt lat="44.56324" lon="5.4946">
        <ele>869.2</ele>
        <time>2021-09-06T11:21:06Z</time>
      </trkpt>
      <trkpt lat="44.56317" lon="5.49461">
        <ele>870.1</ele>
        <time>2021-09-06T11:21:07Z</time>
      </trkpt>
      <trkpt lat="44.5631" lon="5.49461">
        <ele>871</ele>
        <time>2021-09-06T11:21:08Z</time>
      </trkpt>
      <trkpt lat="44.56308" lon="5.49461">
        <ele>871.3</ele>
        <time>2021-09-06T11:21:10Z</time>
      </trkpt>
      <trkpt lat="44.56308" lon="5.49462">
        <ele>871.4</ele>
        <time>2021-09-06T11:21:11Z</time>
      </trkpt>
      <trkpt lat="44.56309" lon="5.49464">
        <ele>871.5</ele>
        <time>2021-09-06T11:21:12Z</time>
      </trkpt>
      <trkpt lat="44.56306" lon="5.49467">
        <ele>872</ele>
        <time>2021-09-06T11:21:14Z</time>
      </trkpt>
      <trkpt lat="44.56304" lon="5.49468">
        <ele>872.2</ele>
        <time>2021-09-06T11:21:15Z</time>
      </trkpt>
      <trkpt lat="44.56302" lon="5.4947">
        <ele>872.6</ele>
        <time>2021-09-06T11:21:17Z</time>
      </trkpt>
      <trkpt lat="44.56303" lon="5.4947">
        <ele>872.7</ele>
        <time>2021-09-06T11:21:18Z</time>
      </trkpt>
      <trkpt lat="44.56302" lon="5.49471">
        <ele>872.7</ele>
        <time>2021-09-06T11:21:20Z</time>
      </trkpt>
      <trkpt lat="44.56302" lon="5.49471">
        <ele>872.8</ele>
        <time>2021-09-06T11:21:22Z</time>
      </trkpt>
      <trkpt lat="44.56301" lon="5.4947">
        <ele>873</ele>
        <time>2021-09-06T11:21:24Z</time>
      </trkpt>
      <trkpt lat="44.56299" lon="5.49469">
        <ele>873.2</ele>
        <time>2021-09-06T11:21:26Z</time>
      </trkpt>
      <trkpt lat="44.56295" lon="5.49464">
        <ele>873.9</ele>
        <time>2021-09-06T11:21:29Z</time>
      </trkpt>
      <trkpt lat="44.56292" lon="5.49461">
        <ele>874.2</ele>
        <time>2021-09-06T11:21:30Z</time>
      </trkpt>
      <trkpt lat="44.56288" lon="5.49459">
        <ele>874.6</ele>
        <time>2021-09-06T11:21:31Z</time>
      </trkpt>
      <trkpt lat="44.56287" lon="5.49458">
        <ele>874.8</ele>
        <time>2021-09-06T11:21:32Z</time>
      </trkpt>
      <trkpt lat="44.56283" lon="5.49456">
        <ele>875.2</ele>
        <time>2021-09-06T11:21:33Z</time>
      </trkpt>
      <trkpt lat="44.56279" lon="5.49455">
        <ele>875.7</ele>
        <time>2021-09-06T11:21:35Z</time>
      </trkpt>
      <trkpt lat="44.56275" lon="5.49454">
        <ele>876</ele>
        <time>2021-09-06T11:21:36Z</time>
      </trkpt>
      <trkpt lat="44.56273" lon="5.49454">
        <ele>876.3</ele>
        <time>2021-09-06T11:21:37Z</time>
      </trkpt>
      <trkpt lat="44.56268" lon="5.49452">
        <ele>876.8</ele>
        <time>2021-09-06T11:21:39Z</time>
      </trkpt>
      <trkpt lat="44.56267" lon="5.4945">
        <ele>877</ele>
        <time>2021-09-06T11:21:40Z</time>
      </trkpt>
      <trkpt lat="44.56265" lon="5.49451">
        <ele>877.2</ele>
        <time>2021-09-06T11:21:42Z</time>
      </trkpt>
      <trkpt lat="44.56261" lon="5.49455">
        <ele>877.7</ele>
        <time>2021-09-06T11:21:44Z</time>
      </trkpt>
      <trkpt lat="44.5626" lon="5.49455">
        <ele>877.8</ele>
        <time>2021-09-06T11:21:46Z</time>
      </trkpt>
      <trkpt lat="44.56259" lon="5.49454">
        <ele>878</ele>
        <time>2021-09-06T11:21:48Z</time>
      </trkpt>
      <trkpt lat="44.56256" lon="5.49451">
        <ele>878.3</ele>
        <time>2021-09-06T11:21:50Z</time>
      </trkpt>
      <trkpt lat="44.56256" lon="5.49451">
        <ele>878.3</ele>
        <time>2021-09-06T11:21:50Z</time>
      </trkpt>
      <trkpt lat="44.56255" lon="5.49451">
        <ele>878.5</ele>
        <time>2021-09-06T11:21:51Z</time>
      </trkpt>
      <trkpt lat="44.56254" lon="5.49453">
        <ele>878.6</ele>
        <time>2021-09-06T11:21:52Z</time>
      </trkpt>
      <trkpt lat="44.56253" lon="5.49454">
        <ele>878.7</ele>
        <time>2021-09-06T11:21:54Z</time>
      </trkpt>
      <trkpt lat="44.56253" lon="5.49455">
        <ele>878.8</ele>
        <time>2021-09-06T11:21:55Z</time>
      </trkpt>
      <trkpt lat="44.56252" lon="5.49456">
        <ele>878.9</ele>
        <time>2021-09-06T11:21:56Z</time>
      </trkpt>
      <trkpt lat="44.56252" lon="5.49457">
        <ele>879</ele>
        <time>2021-09-06T11:21:57Z</time>
      </trkpt>
      <trkpt lat="44.56249" lon="5.4946">
        <ele>879.3</ele>
        <time>2021-09-06T11:21:58Z</time>
      </trkpt>
      <trkpt lat="44.56249" lon="5.49461">
        <ele>879.3</ele>
        <time>2021-09-06T11:21:59Z</time>
      </trkpt>
      <trkpt lat="44.56248" lon="5.49464">
        <ele>879.5</ele>
        <time>2021-09-06T11:22:01Z</time>
      </trkpt>
      <trkpt lat="44.56248" lon="5.49465">
        <ele>879.6</ele>
        <time>2021-09-06T11:22:03Z</time>
      </trkpt>
      <trkpt lat="44.56248" lon="5.49467">
        <ele>879.7</ele>
        <time>2021-09-06T11:22:04Z</time>
      </trkpt>
      <trkpt lat="44.56247" lon="5.49468">
        <ele>879.7</ele>
        <time>2021-09-06T11:22:05Z</time>
      </trkpt>
      <trkpt lat="44.56247" lon="5.49468">
        <ele>879.8</ele>
        <time>2021-09-06T11:22:07Z</time>
      </trkpt>
      <trkpt lat="44.56247" lon="5.49469">
        <ele>879.9</ele>
        <time>2021-09-06T11:22:08Z</time>
      </trkpt>
      <trkpt lat="44.56247" lon="5.49474">
        <ele>880.1</ele>
        <time>2021-09-06T11:22:10Z</time>
      </trkpt>
      <trkpt lat="44.56247" lon="5.49475">
        <ele>880.2</ele>
        <time>2021-09-06T11:22:11Z</time>
      </trkpt>
      <trkpt lat="44.56248" lon="5.49477">
        <ele>880.3</ele>
        <time>2021-09-06T11:22:13Z</time>
      </trkpt>
      <trkpt lat="44.56248" lon="5.49477">
        <ele>880.4</ele>
        <time>2021-09-06T11:22:14Z</time>
      </trkpt>
      <trkpt lat="44.56248" lon="5.49478">
        <ele>880.4</ele>
        <time>2021-09-06T11:22:15Z</time>
      </trkpt>
      <trkpt lat="44.56248" lon="5.49478">
        <ele>880.4</ele>
        <time>2021-09-06T11:22:16Z</time>
      </trkpt>
      <trkpt lat="44.56248" lon="5.49479">
        <ele>880.4</ele>
        <time>2021-09-06T11:22:18Z</time>
      </trkpt>
      <trkpt lat="44.56248" lon="5.49479">
        <ele>880.5</ele>
        <time>2021-09-06T11:22:20Z</time>
      </trkpt>
      <trkpt lat="44.56248" lon="5.49479">
        <ele>880.5</ele>
        <time>2021-09-06T11:22:21Z</time>
      </trkpt>
      <trkpt lat="44.56248" lon="5.4948">
        <ele>880.5</ele>
        <time>2021-09-06T11:22:23Z</time>
      </trkpt>
      <trkpt lat="44.56248" lon="5.4948">
        <ele>880.5</ele>
        <time>2021-09-06T11:22:25Z</time>
      </trkpt>
      <trkpt lat="44.56248" lon="5.49481">
        <ele>880.6</ele>
        <time>2021-09-06T11:22:26Z</time>
      </trkpt>
      <trkpt lat="44.56248" lon="5.49481">
        <ele>880.6</ele>
        <time>2021-09-06T11:22:28Z</time>
      </trkpt>
      <trkpt lat="44.56248" lon="5.49481">
        <ele>880.6</ele>
        <time>2021-09-06T11:22:29Z</time>
      </trkpt>
      <trkpt lat="44.56248" lon="5.49482">
        <ele>880.6</ele>
        <time>2021-09-06T11:22:31Z</time>
      </trkpt>
      <trkpt lat="44.56248" lon="5.49482">
        <ele>880.7</ele>
        <time>2021-09-06T11:22:33Z</time>
      </trkpt>
      <trkpt lat="44.56248" lon="5.49483">
        <ele>880.7</ele>
        <time>2021-09-06T11:22:35Z</time>
      </trkpt>
      <trkpt lat="44.56248" lon="5.49483">
        <ele>880.7</ele>
        <time>2021-09-06T11:22:36Z</time>
      </trkpt>
      <trkpt lat="44.56248" lon="5.49483">
        <ele>880.7</ele>
        <time>2021-09-06T11:22:40Z</time>
      </trkpt>
      <trkpt lat="44.56248" lon="5.49484">
        <ele>880.8</ele>
        <time>2021-09-06T11:22:42Z</time>
      </trkpt>
      <trkpt lat="44.56248" lon="5.49484">
        <ele>880.8</ele>
        <time>2021-09-06T11:22:43Z</time>
      </trkpt>
      <trkpt lat="44.56246" lon="5.49488">
        <ele>881.1</ele>
        <time>2021-09-06T11:22:44Z</time>
      </trkpt>
      <trkpt lat="44.56244" lon="5.49494">
        <ele>881.4</ele>
        <time>2021-09-06T11:22:46Z</time>
      </trkpt>
      <trkpt lat="44.56243" lon="5.49498">
        <ele>881.7</ele>
        <time>2021-09-06T11:22:48Z</time>
      </trkpt>
      <trkpt lat="44.56242" lon="5.49501">
        <ele>881.9</ele>
        <time>2021-09-06T11:22:50Z</time>
      </trkpt>
      <trkpt lat="44.56242" lon="5.49502">
        <ele>881.9</ele>
        <time>2021-09-06T11:22:51Z</time>
      </trkpt>
      <trkpt lat="44.56241" lon="5.49502">
        <ele>882</ele>
        <time>2021-09-06T11:22:53Z</time>
      </trkpt>
      <trkpt lat="44.56241" lon="5.49502">
        <ele>882</ele>
        <time>2021-09-06T11:22:54Z</time>
      </trkpt>
      <trkpt lat="44.56241" lon="5.49503">
        <ele>882</ele>
        <time>2021-09-06T11:22:56Z</time>
      </trkpt>
      <trkpt lat="44.56241" lon="5.49503">
        <ele>882</ele>
        <time>2021-09-06T11:22:57Z</time>
      </trkpt>
      <trkpt lat="44.56245" lon="5.495">
        <ele>882.3</ele>
        <time>2021-09-06T11:22:59Z</time>
      </trkpt>
      <trkpt lat="44.56244" lon="5.495">
        <ele>882.4</ele>
        <time>2021-09-06T11:23:00Z</time>
      </trkpt>
      <trkpt lat="44.56244" lon="5.495">
        <ele>882.4</ele>
        <time>2021-09-06T11:23:01Z</time>
      </trkpt>
      <trkpt lat="44.56245" lon="5.495">
        <ele>882.4</ele>
        <time>2021-09-06T11:23:02Z</time>
      </trkpt>
      <trkpt lat="44.56246" lon="5.495">
        <ele>882.5</ele>
        <time>2021-09-06T11:23:04Z</time>
      </trkpt>
      <trkpt lat="44.56246" lon="5.495">
        <ele>882.5</ele>
        <time>2021-09-06T11:23:05Z</time>
      </trkpt>
      <trkpt lat="44.56246" lon="5.495">
        <ele>882.5</ele>
        <time>2021-09-06T11:23:07Z</time>
      </trkpt>
      <trkpt lat="44.56246" lon="5.495">
        <ele>882.5</ele>
        <time>2021-09-06T11:23:09Z</time>
      </trkpt>
      <trkpt lat="44.56246" lon="5.495">
        <ele>882.5</ele>
        <time>2021-09-06T11:23:10Z</time>
      </trkpt>
      <trkpt lat="44.56246" lon="5.495">
        <ele>882.5</ele>
        <time>2021-09-06T11:23:12Z</time>
      </trkpt>
      <trkpt lat="44.56246" lon="5.495">
        <ele>882.5</ele>
        <time>2021-09-06T11:23:13Z</time>
      </trkpt>
      <trkpt lat="44.56246" lon="5.495">
        <ele>882.5</ele>
        <time>2021-09-06T11:23:15Z</time>
      </trkpt>
      <trkpt lat="44.56246" lon="5.495">
        <ele>882.5</ele>
        <time>2021-09-06T11:23:16Z</time>
      </trkpt>
      <trkpt lat="44.56246" lon="5.495">
        <ele>882.5</ele>
        <time>2021-09-06T11:23:18Z</time>
      </trkpt>
      <trkpt lat="44.56246" lon="5.495">
        <ele>882.5</ele>
        <time>2021-09-06T11:23:20Z</time>
      </trkpt>
      <trkpt lat="44.56246" lon="5.49499">
        <ele>882.5</ele>
        <time>2021-09-06T11:23:21Z</time>
      </trkpt>
      <trkpt lat="44.56245" lon="5.49497">
        <ele>882.7</ele>
        <time>2021-09-06T11:23:22Z</time>
      </trkpt>
      <trkpt lat="44.56244" lon="5.49495">
        <ele>882.8</ele>
        <time>2021-09-06T11:23:24Z</time>
      </trkpt>
      <trkpt lat="44.56244" lon="5.49494">
        <ele>882.8</ele>
        <time>2021-09-06T11:23:25Z</time>
      </trkpt>
      <trkpt lat="44.56241" lon="5.49492">
        <ele>883</ele>
        <time>2021-09-06T11:23:27Z</time>
      </trkpt>
      <trkpt lat="44.56238" lon="5.49487">
        <ele>883.3</ele>
        <time>2021-09-06T11:23:29Z</time>
      </trkpt>
      <trkpt lat="44.56237" lon="5.49486">
        <ele>883.4</ele>
        <time>2021-09-06T11:23:30Z</time>
      </trkpt>
      <trkpt lat="44.56236" lon="5.49485">
        <ele>883.5</ele>
        <time>2021-09-06T11:23:31Z</time>
      </trkpt>
      <trkpt lat="44.56234" lon="5.49482">
        <ele>883.7</ele>
        <time>2021-09-06T11:23:33Z</time>
      </trkpt>
      <trkpt lat="44.56232" lon="5.49479">
        <ele>883.9</ele>
        <time>2021-09-06T11:23:35Z</time>
      </trkpt>
      <trkpt lat="44.5623" lon="5.49475">
        <ele>884.1</ele>
        <time>2021-09-06T11:23:37Z</time>
      </trkpt>
      <trkpt lat="44.56229" lon="5.49473">
        <ele>884.2</ele>
        <time>2021-09-06T11:23:39Z</time>
      </trkpt>
      <trkpt lat="44.56227" lon="5.49472">
        <ele>884.3</ele>
        <time>2021-09-06T11:23:41Z</time>
      </trkpt>
      <trkpt lat="44.56226" lon="5.49471">
        <ele>884.4</ele>
        <time>2021-09-06T11:23:43Z</time>
      </trkpt>
      <trkpt lat="44.56226" lon="5.4947">
        <ele>884.4</ele>
        <time>2021-09-06T11:23:44Z</time>
      </trkpt>
      <trkpt lat="44.56226" lon="5.4947">
        <ele>884.5</ele>
        <time>2021-09-06T11:23:45Z</time>
      </trkpt>
      <trkpt lat="44.56225" lon="5.49469">
        <ele>884.6</ele>
        <time>2021-09-06T11:23:47Z</time>
      </trkpt>
      <trkpt lat="44.56224" lon="5.49467">
        <ele>884.7</ele>
        <time>2021-09-06T11:23:49Z</time>
      </trkpt>
      <trkpt lat="44.56223" lon="5.49466">
        <ele>884.7</ele>
        <time>2021-09-06T11:23:50Z</time>
      </trkpt>
      <trkpt lat="44.5622" lon="5.49465">
        <ele>884.9</ele>
        <time>2021-09-06T11:23:52Z</time>
      </trkpt>
      <trkpt lat="44.56217" lon="5.49464">
        <ele>885.2</ele>
        <time>2021-09-06T11:23:54Z</time>
      </trkpt>
      <trkpt lat="44.56211" lon="5.49462">
        <ele>885.7</ele>
        <time>2021-09-06T11:23:56Z</time>
      </trkpt>
      <trkpt lat="44.56208" lon="5.49462">
        <ele>885.9</ele>
        <time>2021-09-06T11:23:57Z</time>
      </trkpt>
      <trkpt lat="44.56205" lon="5.49457">
        <ele>886.2</ele>
        <time>2021-09-06T11:23:59Z</time>
      </trkpt>
      <trkpt lat="44.56202" lon="5.49455">
        <ele>886.5</ele>
        <time>2021-09-06T11:24:00Z</time>
      </trkpt>
      <trkpt lat="44.56201" lon="5.49455">
        <ele>886.6</ele>
        <time>2021-09-06T11:24:01Z</time>
      </trkpt>
      <trkpt lat="44.56199" lon="5.49455">
        <ele>886.7</ele>
        <time>2021-09-06T11:24:02Z</time>
      </trkpt>
      <trkpt lat="44.56197" lon="5.49455">
        <ele>886.9</ele>
        <time>2021-09-06T11:24:03Z</time>
      </trkpt>
      <trkpt lat="44.56194" lon="5.49458">
        <ele>887.2</ele>
        <time>2021-09-06T11:24:05Z</time>
      </trkpt>
      <trkpt lat="44.56191" lon="5.49461">
        <ele>887.5</ele>
        <time>2021-09-06T11:24:06Z</time>
      </trkpt>
      <trkpt lat="44.56187" lon="5.49463">
        <ele>887.8</ele>
        <time>2021-09-06T11:24:08Z</time>
      </trkpt>
      <trkpt lat="44.56184" lon="5.49466">
        <ele>888.1</ele>
        <time>2021-09-06T11:24:09Z</time>
      </trkpt>
      <trkpt lat="44.56183" lon="5.49468">
        <ele>888.3</ele>
        <time>2021-09-06T11:24:10Z</time>
      </trkpt>
      <trkpt lat="44.56179" lon="5.49475">
        <ele>888.8</ele>
        <time>2021-09-06T11:24:12Z</time>
      </trkpt>
      <trkpt lat="44.56176" lon="5.49481">
        <ele>889.8</ele>
        <time>2021-09-06T11:24:14Z</time>
      </trkpt>
      <trkpt lat="44.56175" lon="5.49484">
        <ele>889.9</ele>
        <time>2021-09-06T11:24:15Z</time>
      </trkpt>
      <trkpt lat="44.56177" lon="5.49489">
        <ele>890.1</ele>
        <time>2021-09-06T11:24:17Z</time>
      </trkpt>
      <trkpt lat="44.56178" lon="5.49492">
        <ele>890.3</ele>
        <time>2021-09-06T11:24:19Z</time>
      </trkpt>
      <trkpt lat="44.56178" lon="5.49494">
        <ele>890.4</ele>
        <time>2021-09-06T11:24:20Z</time>
      </trkpt>
      <trkpt lat="44.56177" lon="5.49498">
        <ele>890.5</ele>
        <time>2021-09-06T11:24:22Z</time>
      </trkpt>
      <trkpt lat="44.56175" lon="5.49506">
        <ele>890.8</ele>
        <time>2021-09-06T11:24:24Z</time>
      </trkpt>
      <trkpt lat="44.56174" lon="5.49509">
        <ele>891</ele>
        <time>2021-09-06T11:24:25Z</time>
      </trkpt>
      <trkpt lat="44.56174" lon="5.4951">
        <ele>891</ele>
        <time>2021-09-06T11:24:26Z</time>
      </trkpt>
      <trkpt lat="44.56175" lon="5.49513">
        <ele>891.2</ele>
        <time>2021-09-06T11:24:27Z</time>
      </trkpt>
      <trkpt lat="44.56176" lon="5.49517">
        <ele>891.3</ele>
        <time>2021-09-06T11:24:29Z</time>
      </trkpt>
      <trkpt lat="44.56179" lon="5.49521">
        <ele>891.5</ele>
        <time>2021-09-06T11:24:31Z</time>
      </trkpt>
      <trkpt lat="44.56181" lon="5.49524">
        <ele>891.7</ele>
        <time>2021-09-06T11:24:32Z</time>
      </trkpt>
      <trkpt lat="44.56182" lon="5.49525">
        <ele>891.7</ele>
        <time>2021-09-06T11:24:33Z</time>
      </trkpt>
      <trkpt lat="44.56175" lon="5.49533">
        <ele>892.2</ele>
        <time>2021-09-06T11:24:34Z</time>
      </trkpt>
      <trkpt lat="44.56166" lon="5.49541">
        <ele>892.7</ele>
        <time>2021-09-06T11:25:32Z</time>
      </trkpt>
      <trkpt lat="44.56158" lon="5.49549">
        <ele>893.1</ele>
        <time>2021-09-06T11:25:33Z</time>
      </trkpt>
      <trkpt lat="44.56149" lon="5.49556">
        <ele>893.7</ele>
        <time>2021-09-06T11:25:34Z</time>
      </trkpt>
      <trkpt lat="44.56146" lon="5.49556">
        <ele>893.9</ele>
        <time>2021-09-06T11:25:35Z</time>
      </trkpt>
      <trkpt lat="44.56143" lon="5.49555">
        <ele>894.1</ele>
        <time>2021-09-06T11:25:36Z</time>
      </trkpt>
      <trkpt lat="44.56139" lon="5.49554">
        <ele>894.3</ele>
        <time>2021-09-06T11:25:37Z</time>
      </trkpt>
      <trkpt lat="44.56135" lon="5.49551">
        <ele>894.6</ele>
        <time>2021-09-06T11:25:38Z</time>
      </trkpt>
      <trkpt lat="44.56132" lon="5.49548">
        <ele>894.9</ele>
        <time>2021-09-06T11:25:39Z</time>
      </trkpt>
      <trkpt lat="44.56128" lon="5.49545">
        <ele>895.2</ele>
        <time>2021-09-06T11:25:41Z</time>
      </trkpt>
      <trkpt lat="44.56124" lon="5.49541">
        <ele>895.6</ele>
        <time>2021-09-06T11:25:42Z</time>
      </trkpt>
      <trkpt lat="44.5612" lon="5.49537">
        <ele>896</ele>
        <time>2021-09-06T11:25:43Z</time>
      </trkpt>
      <trkpt lat="44.56114" lon="5.49533">
        <ele>896.6</ele>
        <time>2021-09-06T11:25:44Z</time>
      </trkpt>
      <trkpt lat="44.56108" lon="5.49529">
        <ele>897.3</ele>
        <time>2021-09-06T11:25:46Z</time>
      </trkpt>
      <trkpt lat="44.56101" lon="5.49525">
        <ele>898</ele>
        <time>2021-09-06T11:25:47Z</time>
      </trkpt>
      <trkpt lat="44.56096" lon="5.49523">
        <ele>898.5</ele>
        <time>2021-09-06T11:25:48Z</time>
      </trkpt>
      <trkpt lat="44.56088" lon="5.49518">
        <ele>899.2</ele>
        <time>2021-09-06T11:25:49Z</time>
      </trkpt>
      <trkpt lat="44.56075" lon="5.49508">
        <ele>899.9</ele>
        <time>2021-09-06T11:25:51Z</time>
      </trkpt>
      <trkpt lat="44.5607" lon="5.49504">
        <ele>900.1</ele>
        <time>2021-09-06T11:25:52Z</time>
      </trkpt>
      <trkpt lat="44.56059" lon="5.49496">
        <ele>900.3</ele>
        <time>2021-09-06T11:25:54Z</time>
      </trkpt>
      <trkpt lat="44.56051" lon="5.4949">
        <ele>900.4</ele>
        <time>2021-09-06T11:25:55Z</time>
      </trkpt>
      <trkpt lat="44.56043" lon="5.49486">
        <ele>900.6</ele>
        <time>2021-09-06T11:25:57Z</time>
      </trkpt>
      <trkpt lat="44.56037" lon="5.49483">
        <ele>900.7</ele>
        <time>2021-09-06T11:25:59Z</time>
      </trkpt>
      <trkpt lat="44.56035" lon="5.49482">
        <ele>900.8</ele>
        <time>2021-09-06T11:26:00Z</time>
      </trkpt>
      <trkpt lat="44.56035" lon="5.49481">
        <ele>900.8</ele>
        <time>2021-09-06T11:26:01Z</time>
      </trkpt>
      <trkpt lat="44.56034" lon="5.49481">
        <ele>900.9</ele>
        <time>2021-09-06T11:26:02Z</time>
      </trkpt>
      <trkpt lat="44.56033" lon="5.49478">
        <ele>900.9</ele>
        <time>2021-09-06T11:26:03Z</time>
      </trkpt>
      <trkpt lat="44.56032" lon="5.49477">
        <ele>901</ele>
        <time>2021-09-06T11:26:04Z</time>
      </trkpt>
      <trkpt lat="44.5603" lon="5.49475">
        <ele>901.1</ele>
        <time>2021-09-06T11:26:06Z</time>
      </trkpt>
      <trkpt lat="44.56028" lon="5.49475">
        <ele>901.1</ele>
        <time>2021-09-06T11:26:07Z</time>
      </trkpt>
      <trkpt lat="44.56025" lon="5.49472">
        <ele>901.2</ele>
        <time>2021-09-06T11:26:08Z</time>
      </trkpt>
      <trkpt lat="44.56022" lon="5.4947">
        <ele>901.3</ele>
        <time>2021-09-06T11:26:09Z</time>
      </trkpt>
      <trkpt lat="44.5602" lon="5.49467">
        <ele>901.4</ele>
        <time>2021-09-06T11:26:10Z</time>
      </trkpt>
      <trkpt lat="44.56016" lon="5.49463">
        <ele>901.4</ele>
        <time>2021-09-06T11:26:11Z</time>
      </trkpt>
      <trkpt lat="44.56012" lon="5.49461">
        <ele>901.4</ele>
        <time>2021-09-06T11:26:12Z</time>
      </trkpt>
      <trkpt lat="44.5601" lon="5.4946">
        <ele>901.4</ele>
        <time>2021-09-06T11:26:14Z</time>
      </trkpt>
      <trkpt lat="44.56006" lon="5.49459">
        <ele>901.4</ele>
        <time>2021-09-06T11:26:15Z</time>
      </trkpt>
      <trkpt lat="44.56003" lon="5.49458">
        <ele>901.4</ele>
        <time>2021-09-06T11:26:16Z</time>
      </trkpt>
      <trkpt lat="44.55998" lon="5.49454">
        <ele>901.3</ele>
        <time>2021-09-06T11:26:18Z</time>
      </trkpt>
      <trkpt lat="44.55994" lon="5.4945">
        <ele>901.3</ele>
        <time>2021-09-06T11:26:19Z</time>
      </trkpt>
      <trkpt lat="44.55991" lon="5.49447">
        <ele>901.3</ele>
        <time>2021-09-06T11:26:20Z</time>
      </trkpt>
      <trkpt lat="44.55988" lon="5.49443">
        <ele>901.4</ele>
        <time>2021-09-06T11:26:21Z</time>
      </trkpt>
      <trkpt lat="44.55982" lon="5.49439">
        <ele>901.5</ele>
        <time>2021-09-06T11:26:23Z</time>
      </trkpt>
      <trkpt lat="44.55975" lon="5.49434">
        <ele>901.8</ele>
        <time>2021-09-06T11:26:24Z</time>
      </trkpt>
      <trkpt lat="44.55973" lon="5.4943">
        <ele>902</ele>
        <time>2021-09-06T11:26:26Z</time>
      </trkpt>
      <trkpt lat="44.5597" lon="5.49429">
        <ele>902.2</ele>
        <time>2021-09-06T11:26:27Z</time>
      </trkpt>
      <trkpt lat="44.55966" lon="5.49425">
        <ele>902.6</ele>
        <time>2021-09-06T11:26:28Z</time>
      </trkpt>
      <trkpt lat="44.55963" lon="5.49421">
        <ele>903</ele>
        <time>2021-09-06T11:26:29Z</time>
      </trkpt>
      <trkpt lat="44.5596" lon="5.49417">
        <ele>903.4</ele>
        <time>2021-09-06T11:26:31Z</time>
      </trkpt>
      <trkpt lat="44.55953" lon="5.49413">
        <ele>904.1</ele>
        <time>2021-09-06T11:26:32Z</time>
      </trkpt>
      <trkpt lat="44.55947" lon="5.49411">
        <ele>904.6</ele>
        <time>2021-09-06T11:26:33Z</time>
      </trkpt>
      <trkpt lat="44.55942" lon="5.4941">
        <ele>905</ele>
        <time>2021-09-06T11:26:34Z</time>
      </trkpt>
      <trkpt lat="44.55937" lon="5.49408">
        <ele>905.5</ele>
        <time>2021-09-06T11:26:36Z</time>
      </trkpt>
      <trkpt lat="44.55932" lon="5.49406">
        <ele>906</ele>
        <time>2021-09-06T11:26:37Z</time>
      </trkpt>
      <trkpt lat="44.55927" lon="5.49405">
        <ele>906.5</ele>
        <time>2021-09-06T11:26:38Z</time>
      </trkpt>
      <trkpt lat="44.55922" lon="5.49403">
        <ele>907.1</ele>
        <time>2021-09-06T11:26:40Z</time>
      </trkpt>
      <trkpt lat="44.55917" lon="5.49401">
        <ele>907.7</ele>
        <time>2021-09-06T11:26:42Z</time>
      </trkpt>
      <trkpt lat="44.55912" lon="5.494">
        <ele>908.3</ele>
        <time>2021-09-06T11:26:43Z</time>
      </trkpt>
      <trkpt lat="44.55906" lon="5.49398">
        <ele>908.9</ele>
        <time>2021-09-06T11:26:44Z</time>
      </trkpt>
      <trkpt lat="44.55901" lon="5.49396">
        <ele>909.5</ele>
        <time>2021-09-06T11:27:48Z</time>
      </trkpt>
      <trkpt lat="44.55896" lon="5.49395">
        <ele>910.1</ele>
        <time>2021-09-06T11:27:49Z</time>
      </trkpt>
      <trkpt lat="44.55894" lon="5.49392">
        <ele>910.4</ele>
        <time>2021-09-06T11:27:50Z</time>
      </trkpt>
      <trkpt lat="44.55893" lon="5.49391">
        <ele>910.5</ele>
        <time>2021-09-06T11:27:51Z</time>
      </trkpt>
      <trkpt lat="44.55892" lon="5.4939">
        <ele>910.7</ele>
        <time>2021-09-06T11:27:53Z</time>
      </trkpt>
      <trkpt lat="44.55891" lon="5.4939">
        <ele>910.8</ele>
        <time>2021-09-06T11:27:54Z</time>
      </trkpt>
      <trkpt lat="44.5589" lon="5.4939">
        <ele>910.9</ele>
        <time>2021-09-06T11:27:55Z</time>
      </trkpt>
      <trkpt lat="44.55889" lon="5.49391">
        <ele>911</ele>
        <time>2021-09-06T11:27:56Z</time>
      </trkpt>
      <trkpt lat="44.55888" lon="5.49391">
        <ele>911.1</ele>
        <time>2021-09-06T11:27:58Z</time>
      </trkpt>
      <trkpt lat="44.55888" lon="5.49392">
        <ele>911.2</ele>
        <time>2021-09-06T11:27:59Z</time>
      </trkpt>
      <trkpt lat="44.55851" lon="5.49442">
        <ele>917</ele>
        <time>2021-09-06T11:28:44Z</time>
      </trkpt>
      <trkpt lat="44.55849" lon="5.49445">
        <ele>917.3</ele>
        <time>2021-09-06T11:28:46Z</time>
      </trkpt>
      <trkpt lat="44.55849" lon="5.49445">
        <ele>917.4</ele>
        <time>2021-09-06T11:28:47Z</time>
      </trkpt>
      <trkpt lat="44.55849" lon="5.49446">
        <ele>917.5</ele>
        <time>2021-09-06T11:28:49Z</time>
      </trkpt>
      <trkpt lat="44.55849" lon="5.49447">
        <ele>917.6</ele>
        <time>2021-09-06T11:28:51Z</time>
      </trkpt>
      <trkpt lat="44.55849" lon="5.49448">
        <ele>917.6</ele>
        <time>2021-09-06T11:28:52Z</time>
      </trkpt>
      <trkpt lat="44.55849" lon="5.49449">
        <ele>917.7</ele>
        <time>2021-09-06T11:28:54Z</time>
      </trkpt>
      <trkpt lat="44.55848" lon="5.49449">
        <ele>917.7</ele>
        <time>2021-09-06T11:28:55Z</time>
      </trkpt>
      <trkpt lat="44.55848" lon="5.49449">
        <ele>917.8</ele>
        <time>2021-09-06T11:28:56Z</time>
      </trkpt>
      <trkpt lat="44.55831" lon="5.49439">
        <ele>920.1</ele>
        <time>2021-09-06T11:29:20Z</time>
      </trkpt>
      <trkpt lat="44.55829" lon="5.49428">
        <ele>921.1</ele>
        <time>2021-09-06T11:29:22Z</time>
      </trkpt>
      <trkpt lat="44.55824" lon="5.49424">
        <ele>921.7</ele>
        <time>2021-09-06T11:29:24Z</time>
      </trkpt>
      <trkpt lat="44.55822" lon="5.49423">
        <ele>921.9</ele>
        <time>2021-09-06T11:29:25Z</time>
      </trkpt>
      <trkpt lat="44.55821" lon="5.49423">
        <ele>922</ele>
        <time>2021-09-06T11:29:26Z</time>
      </trkpt>
      <trkpt lat="44.55821" lon="5.49424">
        <ele>922.1</ele>
        <time>2021-09-06T11:29:28Z</time>
      </trkpt>
      <trkpt lat="44.55821" lon="5.49424">
        <ele>922.1</ele>
        <time>2021-09-06T11:29:29Z</time>
      </trkpt>
      <trkpt lat="44.5582" lon="5.49424">
        <ele>922.2</ele>
        <time>2021-09-06T11:29:31Z</time>
      </trkpt>
      <trkpt lat="44.5582" lon="5.49424">
        <ele>922.2</ele>
        <time>2021-09-06T11:29:32Z</time>
      </trkpt>
      <trkpt lat="44.55728" lon="5.49472">
        <ele>930.3</ele>
        <time>2021-09-06T11:31:13Z</time>
      </trkpt>
      <trkpt lat="44.55724" lon="5.49473">
        <ele>930.5</ele>
        <time>2021-09-06T11:31:14Z</time>
      </trkpt>
      <trkpt lat="44.55723" lon="5.49474">
        <ele>930.6</ele>
        <time>2021-09-06T11:31:15Z</time>
      </trkpt>
      <trkpt lat="44.55723" lon="5.49474">
        <ele>930.6</ele>
        <time>2021-09-06T11:31:16Z</time>
      </trkpt>
      <trkpt lat="44.55722" lon="5.49474">
        <ele>930.6</ele>
        <time>2021-09-06T11:31:17Z</time>
      </trkpt>
      <trkpt lat="44.55722" lon="5.49475">
        <ele>930.7</ele>
        <time>2021-09-06T11:31:19Z</time>
      </trkpt>
      <trkpt lat="44.55722" lon="5.49475">
        <ele>930.7</ele>
        <time>2021-09-06T11:31:20Z</time>
      </trkpt>
      <trkpt lat="44.55722" lon="5.49475">
        <ele>930.7</ele>
        <time>2021-09-06T11:31:21Z</time>
      </trkpt>
      <trkpt lat="44.55722" lon="5.49476">
        <ele>930.7</ele>
        <time>2021-09-06T11:31:23Z</time>
      </trkpt>
      <trkpt lat="44.55722" lon="5.49476">
        <ele>930.7</ele>
        <time>2021-09-06T11:31:24Z</time>
      </trkpt>
      <trkpt lat="44.55722" lon="5.49476">
        <ele>930.8</ele>
        <time>2021-09-06T11:31:25Z</time>
      </trkpt>
      <trkpt lat="44.55696" lon="5.49524">
        <ele>933.1</ele>
        <time>2021-09-06T11:32:15Z</time>
      </trkpt>
      <trkpt lat="44.55696" lon="5.49528">
        <ele>933.2</ele>
        <time>2021-09-06T11:32:16Z</time>
      </trkpt>
      <trkpt lat="44.55696" lon="5.49532">
        <ele>933.3</ele>
        <time>2021-09-06T11:32:17Z</time>
      </trkpt>
      <trkpt lat="44.55695" lon="5.49536">
        <ele>933.5</ele>
        <time>2021-09-06T11:32:19Z</time>
      </trkpt>
      <trkpt lat="44.55697" lon="5.49539">
        <ele>933.6</ele>
        <time>2021-09-06T11:32:20Z</time>
      </trkpt>
      <trkpt lat="44.55698" lon="5.49542">
        <ele>933.7</ele>
        <time>2021-09-06T11:32:21Z</time>
      </trkpt>
      <trkpt lat="44.55698" lon="5.49543">
        <ele>933.8</ele>
        <time>2021-09-06T11:32:23Z</time>
      </trkpt>
      <trkpt lat="44.55698" lon="5.49544">
        <ele>933.8</ele>
        <time>2021-09-06T11:32:24Z</time>
      </trkpt>
      <trkpt lat="44.55697" lon="5.49546">
        <ele>933.9</ele>
        <time>2021-09-06T11:32:25Z</time>
      </trkpt>
      <trkpt lat="44.55695" lon="5.4955">
        <ele>934.1</ele>
        <time>2021-09-06T11:32:27Z</time>
      </trkpt>
      <trkpt lat="44.55694" lon="5.49554">
        <ele>934.3</ele>
        <time>2021-09-06T11:32:28Z</time>
      </trkpt>
      <trkpt lat="44.55693" lon="5.49559">
        <ele>934.5</ele>
        <time>2021-09-06T11:32:30Z</time>
      </trkpt>
      <trkpt lat="44.55691" lon="5.49567">
        <ele>934.8</ele>
        <time>2021-09-06T11:32:32Z</time>
      </trkpt>
      <trkpt lat="44.55691" lon="5.49573">
        <ele>935</ele>
        <time>2021-09-06T11:32:33Z</time>
      </trkpt>
      <trkpt lat="44.55691" lon="5.49578">
        <ele>935.3</ele>
        <time>2021-09-06T11:32:34Z</time>
      </trkpt>
      <trkpt lat="44.55694" lon="5.49587">
        <ele>935.8</ele>
        <time>2021-09-06T11:32:36Z</time>
      </trkpt>
      <trkpt lat="44.55694" lon="5.49588">
        <ele>935.8</ele>
        <time>2021-09-06T11:32:37Z</time>
      </trkpt>
      <trkpt lat="44.55696" lon="5.4959">
        <ele>935.9</ele>
        <time>2021-09-06T11:32:39Z</time>
      </trkpt>
      <trkpt lat="44.55696" lon="5.4959">
        <ele>936</ele>
        <time>2021-09-06T11:32:40Z</time>
      </trkpt>
      <trkpt lat="44.557" lon="5.49598">
        <ele>936.5</ele>
        <time>2021-09-06T11:32:41Z</time>
      </trkpt>
      <trkpt lat="44.55704" lon="5.49605">
        <ele>937</ele>
        <time>2021-09-06T11:32:43Z</time>
      </trkpt>
      <trkpt lat="44.55707" lon="5.49611">
        <ele>937.5</ele>
        <time>2021-09-06T11:32:44Z</time>
      </trkpt>
      <trkpt lat="44.55711" lon="5.49618">
        <ele>938</ele>
        <time>2021-09-06T11:33:17Z</time>
      </trkpt>
      <trkpt lat="44.55714" lon="5.49624">
        <ele>938.5</ele>
        <time>2021-09-06T11:33:18Z</time>
      </trkpt>
      <trkpt lat="44.55717" lon="5.49631">
        <ele>939</ele>
        <time>2021-09-06T11:33:19Z</time>
      </trkpt>
      <trkpt lat="44.55715" lon="5.49634">
        <ele>939.3</ele>
        <time>2021-09-06T11:33:20Z</time>
      </trkpt>
      <trkpt lat="44.55714" lon="5.49637">
        <ele>939.5</ele>
        <time>2021-09-06T11:33:22Z</time>
      </trkpt>
      <trkpt lat="44.55713" lon="5.49638">
        <ele>939.6</ele>
        <time>2021-09-06T11:33:23Z</time>
      </trkpt>
      <trkpt lat="44.55713" lon="5.4964">
        <ele>939.7</ele>
        <time>2021-09-06T11:33:25Z</time>
      </trkpt>
      <trkpt lat="44.55712" lon="5.4964">
        <ele>939.8</ele>
        <time>2021-09-06T11:33:26Z</time>
      </trkpt>
      <trkpt lat="44.55711" lon="5.49641">
        <ele>939.9</ele>
        <time>2021-09-06T11:33:27Z</time>
      </trkpt>
      <trkpt lat="44.5571" lon="5.49642">
        <ele>940</ele>
        <time>2021-09-06T11:33:29Z</time>
      </trkpt>
      <trkpt lat="44.55679" lon="5.49703">
        <ele>944.5</ele>
        <time>2021-09-06T11:34:22Z</time>
      </trkpt>
      <trkpt lat="44.55679" lon="5.49706">
        <ele>944.6</ele>
        <time>2021-09-06T11:34:23Z</time>
      </trkpt>
      <trkpt lat="44.55679" lon="5.49708">
        <ele>944.7</ele>
        <time>2021-09-06T11:34:24Z</time>
      </trkpt>
      <trkpt lat="44.55678" lon="5.4971">
        <ele>944.9</ele>
        <time>2021-09-06T11:34:25Z</time>
      </trkpt>
      <trkpt lat="44.55675" lon="5.49712">
        <ele>945.1</ele>
        <time>2021-09-06T11:34:27Z</time>
      </trkpt>
      <trkpt lat="44.55673" lon="5.49712">
        <ele>945.2</ele>
        <time>2021-09-06T11:34:28Z</time>
      </trkpt>
      <trkpt lat="44.55672" lon="5.49712">
        <ele>945.3</ele>
        <time>2021-09-06T11:34:29Z</time>
      </trkpt>
      <trkpt lat="44.55672" lon="5.49712">
        <ele>945.3</ele>
        <time>2021-09-06T11:34:30Z</time>
      </trkpt>
      <trkpt lat="44.5567" lon="5.49712">
        <ele>945.4</ele>
        <time>2021-09-06T11:34:32Z</time>
      </trkpt>
      <trkpt lat="44.55669" lon="5.49712">
        <ele>945.5</ele>
        <time>2021-09-06T11:34:33Z</time>
      </trkpt>
      <trkpt lat="44.55667" lon="5.49713">
        <ele>945.6</ele>
        <time>2021-09-06T11:34:34Z</time>
      </trkpt>
      <trkpt lat="44.55666" lon="5.49714">
        <ele>945.7</ele>
        <time>2021-09-06T11:34:35Z</time>
      </trkpt>
      <trkpt lat="44.55664" lon="5.49714">
        <ele>945.8</ele>
        <time>2021-09-06T11:34:36Z</time>
      </trkpt>
      <trkpt lat="44.55661" lon="5.49715">
        <ele>946</ele>
        <time>2021-09-06T11:34:38Z</time>
      </trkpt>
      <trkpt lat="44.55658" lon="5.49715">
        <ele>946.2</ele>
        <time>2021-09-06T11:34:39Z</time>
      </trkpt>
      <trkpt lat="44.55657" lon="5.49716">
        <ele>946.3</ele>
        <time>2021-09-06T11:34:41Z</time>
      </trkpt>
      <trkpt lat="44.55657" lon="5.49719">
        <ele>946.4</ele>
        <time>2021-09-06T11:34:42Z</time>
      </trkpt>
      <trkpt lat="44.55657" lon="5.4972">
        <ele>946.4</ele>
        <time>2021-09-06T11:34:44Z</time>
      </trkpt>
      <trkpt lat="44.55656" lon="5.4972">
        <ele>946.4</ele>
        <time>2021-09-06T11:34:45Z</time>
      </trkpt>
      <trkpt lat="44.55657" lon="5.49721">
        <ele>946.5</ele>
        <time>2021-09-06T11:34:46Z</time>
      </trkpt>
      <trkpt lat="44.55657" lon="5.49723">
        <ele>946.5</ele>
        <time>2021-09-06T11:34:47Z</time>
      </trkpt>
      <trkpt lat="44.55658" lon="5.49724">
        <ele>946.6</ele>
        <time>2021-09-06T11:34:48Z</time>
      </trkpt>
      <trkpt lat="44.55658" lon="5.49725">
        <ele>946.7</ele>
        <time>2021-09-06T11:34:49Z</time>
      </trkpt>
      <trkpt lat="44.55658" lon="5.49727">
        <ele>946.8</ele>
        <time>2021-09-06T11:34:51Z</time>
      </trkpt>
      <trkpt lat="44.55522" lon="5.49873">
        <ele>970.5</ele>
        <time>2021-09-06T11:38:37Z</time>
      </trkpt>
      <trkpt lat="44.55519" lon="5.49876">
        <ele>970.8</ele>
        <time>2021-09-06T11:38:38Z</time>
      </trkpt>
      <trkpt lat="44.55518" lon="5.49876">
        <ele>970.9</ele>
        <time>2021-09-06T11:38:39Z</time>
      </trkpt>
      <trkpt lat="44.55515" lon="5.49877">
        <ele>971.2</ele>
        <time>2021-09-06T11:38:40Z</time>
      </trkpt>
      <trkpt lat="44.5551" lon="5.49881">
        <ele>971.7</ele>
        <time>2021-09-06T11:38:42Z</time>
      </trkpt>
      <trkpt lat="44.55507" lon="5.49883">
        <ele>971.9</ele>
        <time>2021-09-06T11:38:43Z</time>
      </trkpt>
      <trkpt lat="44.55507" lon="5.49883">
        <ele>971.9</ele>
        <time>2021-09-06T11:38:44Z</time>
      </trkpt>
      <trkpt lat="44.55508" lon="5.49883">
        <ele>972</ele>
        <time>2021-09-06T11:38:45Z</time>
      </trkpt>
      <trkpt lat="44.55508" lon="5.49883">
        <ele>972</ele>
        <time>2021-09-06T11:38:47Z</time>
      </trkpt>
      <trkpt lat="44.55508" lon="5.49883">
        <ele>972</ele>
        <time>2021-09-06T11:38:48Z</time>
      </trkpt>
      <trkpt lat="44.55508" lon="5.49883">
        <ele>972</ele>
        <time>2021-09-06T11:38:49Z</time>
      </trkpt>
      <trkpt lat="44.55508" lon="5.49882">
        <ele>972.1</ele>
        <time>2021-09-06T11:38:50Z</time>
      </trkpt>
      <trkpt lat="44.55508" lon="5.49882">
        <ele>972.1</ele>
        <time>2021-09-06T11:38:52Z</time>
      </trkpt>
      <trkpt lat="44.55508" lon="5.49882">
        <ele>972.1</ele>
        <time>2021-09-06T11:38:53Z</time>
      </trkpt>
      <trkpt lat="44.55447" lon="5.49972">
        <ele>978.5</ele>
        <time>2021-09-06T11:40:20Z</time>
      </trkpt>
      <trkpt lat="44.55446" lon="5.49973">
        <ele>978.6</ele>
        <time>2021-09-06T11:40:22Z</time>
      </trkpt>
      <trkpt lat="44.55445" lon="5.49974">
        <ele>978.7</ele>
        <time>2021-09-06T11:40:23Z</time>
      </trkpt>
      <trkpt lat="44.55445" lon="5.49975">
        <ele>978.7</ele>
        <time>2021-09-06T11:40:24Z</time>
      </trkpt>
      <trkpt lat="44.55445" lon="5.49977">
        <ele>978.8</ele>
        <time>2021-09-06T11:40:26Z</time>
      </trkpt>
      <trkpt lat="44.55445" lon="5.49977">
        <ele>978.8</ele>
        <time>2021-09-06T11:40:27Z</time>
      </trkpt>
      <trkpt lat="44.55445" lon="5.49978">
        <ele>978.8</ele>
        <time>2021-09-06T11:40:28Z</time>
      </trkpt>
      <trkpt lat="44.55444" lon="5.49979">
        <ele>978.9</ele>
        <time>2021-09-06T11:40:29Z</time>
      </trkpt>
      <trkpt lat="44.55444" lon="5.4998">
        <ele>979</ele>
        <time>2021-09-06T11:40:30Z</time>
      </trkpt>
      <trkpt lat="44.55443" lon="5.49982">
        <ele>979.1</ele>
        <time>2021-09-06T11:40:32Z</time>
      </trkpt>
      <trkpt lat="44.55441" lon="5.49993">
        <ele>979.8</ele>
        <time>2021-09-06T11:40:36Z</time>
      </trkpt>
      <trkpt lat="44.5544" lon="5.49998">
        <ele>980.1</ele>
        <time>2021-09-06T11:40:37Z</time>
      </trkpt>
      <trkpt lat="44.55439" lon="5.50007">
        <ele>980.7</ele>
        <time>2021-09-06T11:40:39Z</time>
      </trkpt>
      <trkpt lat="44.55439" lon="5.50011">
        <ele>981</ele>
        <time>2021-09-06T11:40:40Z</time>
      </trkpt>
      <trkpt lat="44.55439" lon="5.50013">
        <ele>981.1</ele>
        <time>2021-09-06T11:40:41Z</time>
      </trkpt>
      <trkpt lat="44.5544" lon="5.50014">
        <ele>981.2</ele>
        <time>2021-09-06T11:40:42Z</time>
      </trkpt>
      <trkpt lat="44.5544" lon="5.50018">
        <ele>981.5</ele>
        <time>2021-09-06T11:40:44Z</time>
      </trkpt>
      <trkpt lat="44.55439" lon="5.5002">
        <ele>981.6</ele>
        <time>2021-09-06T11:40:45Z</time>
      </trkpt>
      <trkpt lat="44.55439" lon="5.50021">
        <ele>981.7</ele>
        <time>2021-09-06T11:40:47Z</time>
      </trkpt>
      <trkpt lat="44.55438" lon="5.50021">
        <ele>981.8</ele>
        <time>2021-09-06T11:40:48Z</time>
      </trkpt>
      <trkpt lat="44.55437" lon="5.50022">
        <ele>981.9</ele>
        <time>2021-09-06T11:40:50Z</time>
      </trkpt>
      <trkpt lat="44.55436" lon="5.50023">
        <ele>982</ele>
        <time>2021-09-06T11:40:51Z</time>
      </trkpt>
      <trkpt lat="44.55434" lon="5.50023">
        <ele>982.2</ele>
        <time>2021-09-06T11:40:53Z</time>
      </trkpt>
      <trkpt lat="44.55434" lon="5.50023">
        <ele>982.2</ele>
        <time>2021-09-06T11:40:54Z</time>
      </trkpt>
      <trkpt lat="44.55433" lon="5.50023">
        <ele>982.3</ele>
        <time>2021-09-06T11:40:55Z</time>
      </trkpt>
      <trkpt lat="44.55434" lon="5.50061">
        <ele>984.6</ele>
        <time>2021-09-06T11:41:42Z</time>
      </trkpt>
      <trkpt lat="44.55433" lon="5.50069">
        <ele>985</ele>
        <time>2021-09-06T11:41:44Z</time>
      </trkpt>
      <trkpt lat="44.55433" lon="5.50073">
        <ele>985.3</ele>
        <time>2021-09-06T11:41:45Z</time>
      </trkpt>
      <trkpt lat="44.55432" lon="5.50078">
        <ele>985.5</ele>
        <time>2021-09-06T11:41:47Z</time>
      </trkpt>
      <trkpt lat="44.55432" lon="5.50079">
        <ele>985.6</ele>
        <time>2021-09-06T11:41:48Z</time>
      </trkpt>
      <trkpt lat="44.55434" lon="5.50088">
        <ele>986.1</ele>
        <time>2021-09-06T11:41:49Z</time>
      </trkpt>
      <trkpt lat="44.55437" lon="5.50096">
        <ele>986.6</ele>
        <time>2021-09-06T11:41:50Z</time>
      </trkpt>
      <trkpt lat="44.55439" lon="5.50103">
        <ele>987.1</ele>
        <time>2021-09-06T11:41:52Z</time>
      </trkpt>
      <trkpt lat="44.55442" lon="5.50111">
        <ele>987.6</ele>
        <time>2021-09-06T11:41:54Z</time>
      </trkpt>
      <trkpt lat="44.55445" lon="5.50118">
        <ele>988.2</ele>
        <time>2021-09-06T11:41:55Z</time>
      </trkpt>
      <trkpt lat="44.55448" lon="5.50126">
        <ele>988.8</ele>
        <time>2021-09-06T11:42:42Z</time>
      </trkpt>
      <trkpt lat="44.5545" lon="5.50133">
        <ele>989.4</ele>
        <time>2021-09-06T11:42:43Z</time>
      </trkpt>
      <trkpt lat="44.55453" lon="5.50141">
        <ele>990</ele>
        <time>2021-09-06T11:42:44Z</time>
      </trkpt>
      <trkpt lat="44.55453" lon="5.50146">
        <ele>990.4</ele>
        <time>2021-09-06T11:42:46Z</time>
      </trkpt>
      <trkpt lat="44.55453" lon="5.50148">
        <ele>990.5</ele>
        <time>2021-09-06T11:42:47Z</time>
      </trkpt>
      <trkpt lat="44.55452" lon="5.50151">
        <ele>990.7</ele>
        <time>2021-09-06T11:42:49Z</time>
      </trkpt>
      <trkpt lat="44.55452" lon="5.50152">
        <ele>990.9</ele>
        <time>2021-09-06T11:42:50Z</time>
      </trkpt>
      <trkpt lat="44.55454" lon="5.50159">
        <ele>991.4</ele>
        <time>2021-09-06T11:42:52Z</time>
      </trkpt>
      <trkpt lat="44.55457" lon="5.50165">
        <ele>992</ele>
        <time>2021-09-06T11:42:53Z</time>
      </trkpt>
      <trkpt lat="44.5546" lon="5.50171">
        <ele>992.5</ele>
        <time>2021-09-06T11:42:55Z</time>
      </trkpt>
      <trkpt lat="44.55463" lon="5.50177">
        <ele>993.1</ele>
        <time>2021-09-06T11:43:25Z</time>
      </trkpt>
      <trkpt lat="44.55465" lon="5.50182">
        <ele>993.8</ele>
        <time>2021-09-06T11:43:26Z</time>
      </trkpt>
      <trkpt lat="44.55468" lon="5.50188">
        <ele>994.4</ele>
        <time>2021-09-06T11:43:27Z</time>
      </trkpt>
      <trkpt lat="44.55465" lon="5.50184">
        <ele>994.9</ele>
        <time>2021-09-06T11:43:29Z</time>
      </trkpt>
      <trkpt lat="44.55463" lon="5.50182">
        <ele>995.3</ele>
        <time>2021-09-06T11:43:30Z</time>
      </trkpt>
      <trkpt lat="44.55459" lon="5.50174">
        <ele>996.2</ele>
        <time>2021-09-06T11:43:32Z</time>
      </trkpt>
      <trkpt lat="44.55458" lon="5.50173">
        <ele>996.3</ele>
        <time>2021-09-06T11:43:33Z</time>
      </trkpt>
      <trkpt lat="44.55456" lon="5.50173">
        <ele>996.5</ele>
        <time>2021-09-06T11:43:34Z</time>
      </trkpt>
      <trkpt lat="44.55455" lon="5.50173">
        <ele>996.7</ele>
        <time>2021-09-06T11:43:35Z</time>
      </trkpt>
      <trkpt lat="44.55454" lon="5.50173">
        <ele>996.9</ele>
        <time>2021-09-06T11:43:36Z</time>
      </trkpt>
      <trkpt lat="44.55454" lon="5.50173">
        <ele>996.9</ele>
        <time>2021-09-06T11:43:37Z</time>
      </trkpt>
      <trkpt lat="44.55454" lon="5.50173">
        <ele>997</ele>
        <time>2021-09-06T11:43:38Z</time>
      </trkpt>
      <trkpt lat="44.55452" lon="5.50174">
        <ele>997.2</ele>
        <time>2021-09-06T11:43:39Z</time>
      </trkpt>
      <trkpt lat="44.5545" lon="5.50174">
        <ele>997.5</ele>
        <time>2021-09-06T11:43:41Z</time>
      </trkpt>
      <trkpt lat="44.55447" lon="5.50176">
        <ele>997.9</ele>
        <time>2021-09-06T11:43:42Z</time>
      </trkpt>
      <trkpt lat="44.55444" lon="5.50177">
        <ele>998.3</ele>
        <time>2021-09-06T11:43:44Z</time>
      </trkpt>
      <trkpt lat="44.55441" lon="5.50179">
        <ele>998.7</ele>
        <time>2021-09-06T11:43:46Z</time>
      </trkpt>
      <trkpt lat="44.55441" lon="5.50179">
        <ele>998.7</ele>
        <time>2021-09-06T11:43:46Z</time>
      </trkpt>
      <trkpt lat="44.55438" lon="5.50181">
        <ele>999.1</ele>
        <time>2021-09-06T11:43:47Z</time>
      </trkpt>
      <trkpt lat="44.55435" lon="5.50182">
        <ele>999.6</ele>
        <time>2021-09-06T11:43:48Z</time>
      </trkpt>
      <trkpt lat="44.55433" lon="5.50182">
        <ele>999.8</ele>
        <time>2021-09-06T11:43:49Z</time>
      </trkpt>
      <trkpt lat="44.55429" lon="5.50184">
        <ele>1000.2</ele>
        <time>2021-09-06T11:43:51Z</time>
      </trkpt>
      <trkpt lat="44.55428" lon="5.50186">
        <ele>1000.4</ele>
        <time>2021-09-06T11:43:52Z</time>
      </trkpt>
      <trkpt lat="44.55427" lon="5.50188">
        <ele>1000.5</ele>
        <time>2021-09-06T11:43:53Z</time>
      </trkpt>
      <trkpt lat="44.55426" lon="5.5019">
        <ele>1000.7</ele>
        <time>2021-09-06T11:43:54Z</time>
      </trkpt>
      <trkpt lat="44.55425" lon="5.50192">
        <ele>1000.9</ele>
        <time>2021-09-06T11:43:56Z</time>
      </trkpt>
      <trkpt lat="44.55424" lon="5.50194">
        <ele>1001</ele>
        <time>2021-09-06T11:43:57Z</time>
      </trkpt>
      <trkpt lat="44.55423" lon="5.50196">
        <ele>1001.2</ele>
        <time>2021-09-06T11:43:58Z</time>
      </trkpt>
      <trkpt lat="44.55422" lon="5.50199">
        <ele>1001.4</ele>
        <time>2021-09-06T11:44:00Z</time>
      </trkpt>
      <trkpt lat="44.55421" lon="5.50201">
        <ele>1001.5</ele>
        <time>2021-09-06T11:44:01Z</time>
      </trkpt>
      <trkpt lat="44.5542" lon="5.50203">
        <ele>1001.7</ele>
        <time>2021-09-06T11:44:35Z</time>
      </trkpt>
      <trkpt lat="44.55419" lon="5.50205">
        <ele>1001.9</ele>
        <time>2021-09-06T11:44:36Z</time>
      </trkpt>
      <trkpt lat="44.55417" lon="5.50205">
        <ele>1002.1</ele>
        <time>2021-09-06T11:44:37Z</time>
      </trkpt>
      <trkpt lat="44.55414" lon="5.50206">
        <ele>1002.3</ele>
        <time>2021-09-06T11:44:39Z</time>
      </trkpt>
      <trkpt lat="44.5541" lon="5.50207">
        <ele>1002.7</ele>
        <time>2021-09-06T11:44:40Z</time>
      </trkpt>
      <trkpt lat="44.55409" lon="5.50208">
        <ele>1002.7</ele>
        <time>2021-09-06T11:44:41Z</time>
      </trkpt>
      <trkpt lat="44.55406" lon="5.5021">
        <ele>1003</ele>
        <time>2021-09-06T11:44:42Z</time>
      </trkpt>
      <trkpt lat="44.55406" lon="5.5021">
        <ele>1003.1</ele>
        <time>2021-09-06T11:44:43Z</time>
      </trkpt>
      <trkpt lat="44.55402" lon="5.50211">
        <ele>1003.5</ele>
        <time>2021-09-06T11:44:45Z</time>
      </trkpt>
      <trkpt lat="44.55399" lon="5.50209">
        <ele>1003.9</ele>
        <time>2021-09-06T11:44:46Z</time>
      </trkpt>
      <trkpt lat="44.55398" lon="5.50209">
        <ele>1003.9</ele>
        <time>2021-09-06T11:44:47Z</time>
      </trkpt>
      <trkpt lat="44.55395" lon="5.50207">
        <ele>1004.4</ele>
        <time>2021-09-06T11:44:49Z</time>
      </trkpt>
      <trkpt lat="44.55394" lon="5.50207">
        <ele>1004.5</ele>
        <time>2021-09-06T11:44:50Z</time>
      </trkpt>
      <trkpt lat="44.55391" lon="5.50207">
        <ele>1004.8</ele>
        <time>2021-09-06T11:44:51Z</time>
      </trkpt>
      <trkpt lat="44.5539" lon="5.50207">
        <ele>1004.9</ele>
        <time>2021-09-06T11:44:52Z</time>
      </trkpt>
      <trkpt lat="44.55389" lon="5.50208">
        <ele>1005</ele>
        <time>2021-09-06T11:44:53Z</time>
      </trkpt>
      <trkpt lat="44.55388" lon="5.50208">
        <ele>1005.2</ele>
        <time>2021-09-06T11:44:54Z</time>
      </trkpt>
      <trkpt lat="44.55387" lon="5.50208">
        <ele>1005.3</ele>
        <time>2021-09-06T11:44:55Z</time>
      </trkpt>
      <trkpt lat="44.55386" lon="5.50209">
        <ele>1005.4</ele>
        <time>2021-09-06T11:44:56Z</time>
      </trkpt>
      <trkpt lat="44.55385" lon="5.5021">
        <ele>1005.5</ele>
        <time>2021-09-06T11:44:58Z</time>
      </trkpt>
      <trkpt lat="44.55384" lon="5.50212">
        <ele>1005.8</ele>
        <time>2021-09-06T11:45:00Z</time>
      </trkpt>
      <trkpt lat="44.55383" lon="5.50214">
        <ele>1006</ele>
        <time>2021-09-06T11:45:01Z</time>
      </trkpt>
      <trkpt lat="44.55382" lon="5.50216">
        <ele>1006.2</ele>
        <time>2021-09-06T11:45:02Z</time>
      </trkpt>
      <trkpt lat="44.55381" lon="5.50218">
        <ele>1006.4</ele>
        <time>2021-09-06T11:45:05Z</time>
      </trkpt>
      <trkpt lat="44.55381" lon="5.50219">
        <ele>1006.4</ele>
        <time>2021-09-06T11:45:06Z</time>
      </trkpt>
      <trkpt lat="44.5538" lon="5.5022">
        <ele>1006.6</ele>
        <time>2021-09-06T11:45:08Z</time>
      </trkpt>
      <trkpt lat="44.5538" lon="5.5022">
        <ele>1006.6</ele>
        <time>2021-09-06T11:45:09Z</time>
      </trkpt>
      <trkpt lat="44.5538" lon="5.50221">
        <ele>1006.7</ele>
        <time>2021-09-06T11:45:11Z</time>
      </trkpt>
      <trkpt lat="44.5538" lon="5.50222">
        <ele>1006.7</ele>
        <time>2021-09-06T11:45:13Z</time>
      </trkpt>
      <trkpt lat="44.5538" lon="5.50223">
        <ele>1006.8</ele>
        <time>2021-09-06T11:45:15Z</time>
      </trkpt>
      <trkpt lat="44.5538" lon="5.50225">
        <ele>1007</ele>
        <time>2021-09-06T11:45:17Z</time>
      </trkpt>
      <trkpt lat="44.55379" lon="5.50226">
        <ele>1007.1</ele>
        <time>2021-09-06T11:45:18Z</time>
      </trkpt>
      <trkpt lat="44.55379" lon="5.50226">
        <ele>1007.2</ele>
        <time>2021-09-06T11:45:24Z</time>
      </trkpt>
      <trkpt lat="44.55378" lon="5.50225">
        <ele>1007.3</ele>
        <time>2021-09-06T11:45:56Z</time>
      </trkpt>
      <trkpt lat="44.55377" lon="5.50225">
        <ele>1007.4</ele>
        <time>2021-09-06T11:45:58Z</time>
      </trkpt>
      <trkpt lat="44.55377" lon="5.50225">
        <ele>1007.4</ele>
        <time>2021-09-06T11:45:59Z</time>
      </trkpt>
      <trkpt lat="44.55373" lon="5.5022">
        <ele>1007.9</ele>
        <time>2021-09-06T11:46:01Z</time>
      </trkpt>
      <trkpt lat="44.55371" lon="5.50218">
        <ele>1008.2</ele>
        <time>2021-09-06T11:46:02Z</time>
      </trkpt>
      <trkpt lat="44.5537" lon="5.50217">
        <ele>1008.4</ele>
        <time>2021-09-06T11:46:03Z</time>
      </trkpt>
      <trkpt lat="44.55366" lon="5.50217">
        <ele>1008.7</ele>
        <time>2021-09-06T11:46:05Z</time>
      </trkpt>
      <trkpt lat="44.55363" lon="5.50219">
        <ele>1009</ele>
        <time>2021-09-06T11:46:06Z</time>
      </trkpt>
      <trkpt lat="44.5536" lon="5.5022">
        <ele>1009.3</ele>
        <time>2021-09-06T11:46:07Z</time>
      </trkpt>
      <trkpt lat="44.55357" lon="5.50222">
        <ele>1009.6</ele>
        <time>2021-09-06T11:46:08Z</time>
      </trkpt>
      <trkpt lat="44.55353" lon="5.50223">
        <ele>1010</ele>
        <time>2021-09-06T11:46:09Z</time>
      </trkpt>
      <trkpt lat="44.55346" lon="5.50224">
        <ele>1010.6</ele>
        <time>2021-09-06T11:46:11Z</time>
      </trkpt>
      <trkpt lat="44.55343" lon="5.50225">
        <ele>1010.9</ele>
        <time>2021-09-06T11:46:12Z</time>
      </trkpt>
      <trkpt lat="44.55339" lon="5.50226">
        <ele>1011.2</ele>
        <time>2021-09-06T11:46:14Z</time>
      </trkpt>
      <trkpt lat="44.55337" lon="5.50223">
        <ele>1011.4</ele>
        <time>2021-09-06T11:46:15Z</time>
      </trkpt>
      <trkpt lat="44.55337" lon="5.50222">
        <ele>1011.5</ele>
        <time>2021-09-06T11:46:17Z</time>
      </trkpt>
      <trkpt lat="44.55336" lon="5.50221">
        <ele>1011.6</ele>
        <time>2021-09-06T11:46:18Z</time>
      </trkpt>
      <trkpt lat="44.55336" lon="5.50221">
        <ele>1011.7</ele>
        <time>2021-09-06T11:46:19Z</time>
      </trkpt>
      <trkpt lat="44.55335" lon="5.5022">
        <ele>1011.8</ele>
        <time>2021-09-06T11:46:21Z</time>
      </trkpt>
      <trkpt lat="44.55333" lon="5.50219">
        <ele>1012</ele>
        <time>2021-09-06T11:46:22Z</time>
      </trkpt>
      <trkpt lat="44.55331" lon="5.50219">
        <ele>1012.1</ele>
        <time>2021-09-06T11:46:23Z</time>
      </trkpt>
      <trkpt lat="44.55329" lon="5.50219">
        <ele>1012.3</ele>
        <time>2021-09-06T11:46:24Z</time>
      </trkpt>
      <trkpt lat="44.55328" lon="5.5022">
        <ele>1012.4</ele>
        <time>2021-09-06T11:46:25Z</time>
      </trkpt>
      <trkpt lat="44.55328" lon="5.5022">
        <ele>1012.5</ele>
        <time>2021-09-06T11:46:26Z</time>
      </trkpt>
      <trkpt lat="44.55328" lon="5.5022">
        <ele>1012.5</ele>
        <time>2021-09-06T11:46:27Z</time>
      </trkpt>
      <trkpt lat="44.55328" lon="5.5022">
        <ele>1012.5</ele>
        <time>2021-09-06T11:46:28Z</time>
      </trkpt>
      <trkpt lat="44.55327" lon="5.5022">
        <ele>1012.5</ele>
        <time>2021-09-06T11:46:29Z</time>
      </trkpt>
      <trkpt lat="44.55327" lon="5.5022">
        <ele>1012.5</ele>
        <time>2021-09-06T11:46:30Z</time>
      </trkpt>
      <trkpt lat="44.55326" lon="5.5022">
        <ele>1012.6</ele>
        <time>2021-09-06T11:46:32Z</time>
      </trkpt>
      <trkpt lat="44.55325" lon="5.50219">
        <ele>1012.7</ele>
        <time>2021-09-06T11:46:34Z</time>
      </trkpt>
      <trkpt lat="44.55324" lon="5.50218">
        <ele>1012.8</ele>
        <time>2021-09-06T11:46:35Z</time>
      </trkpt>
      <trkpt lat="44.55314" lon="5.5021">
        <ele>1014</ele>
        <time>2021-09-06T11:46:42Z</time>
      </trkpt>
      <trkpt lat="44.5531" lon="5.50208">
        <ele>1014.4</ele>
        <time>2021-09-06T11:46:43Z</time>
      </trkpt>
      <trkpt lat="44.55307" lon="5.50206">
        <ele>1014.7</ele>
        <time>2021-09-06T11:46:45Z</time>
      </trkpt>
      <trkpt lat="44.55308" lon="5.50206">
        <ele>1014.7</ele>
        <time>2021-09-06T11:46:46Z</time>
      </trkpt>
      <trkpt lat="44.55307" lon="5.50205">
        <ele>1014.7</ele>
        <time>2021-09-06T11:46:47Z</time>
      </trkpt>
      <trkpt lat="44.55305" lon="5.50202">
        <ele>1015</ele>
        <time>2021-09-06T11:46:49Z</time>
      </trkpt>
      <trkpt lat="44.55304" lon="5.50202">
        <ele>1015.1</ele>
        <time>2021-09-06T11:46:50Z</time>
      </trkpt>
      <trkpt lat="44.55304" lon="5.50201">
        <ele>1015.2</ele>
        <time>2021-09-06T11:46:51Z</time>
      </trkpt>
      <trkpt lat="44.55303" lon="5.502">
        <ele>1015.3</ele>
        <time>2021-09-06T11:46:52Z</time>
      </trkpt>
      <trkpt lat="44.55302" lon="5.50199">
        <ele>1015.4</ele>
        <time>2021-09-06T11:46:54Z</time>
      </trkpt>
      <trkpt lat="44.55302" lon="5.50199">
        <ele>1015.4</ele>
        <time>2021-09-06T11:46:55Z</time>
      </trkpt>
      <trkpt lat="44.55301" lon="5.50198">
        <ele>1015.5</ele>
        <time>2021-09-06T11:46:56Z</time>
      </trkpt>
      <trkpt lat="44.55299" lon="5.50196">
        <ele>1015.7</ele>
        <time>2021-09-06T11:46:58Z</time>
      </trkpt>
      <trkpt lat="44.55298" lon="5.50195">
        <ele>1015.9</ele>
        <time>2021-09-06T11:46:59Z</time>
      </trkpt>
      <trkpt lat="44.55296" lon="5.50195">
        <ele>1016.1</ele>
        <time>2021-09-06T11:47:00Z</time>
      </trkpt>
      <trkpt lat="44.55292" lon="5.50197">
        <ele>1016.5</ele>
        <time>2021-09-06T11:47:01Z</time>
      </trkpt>
      <trkpt lat="44.55287" lon="5.502">
        <ele>1016.9</ele>
        <time>2021-09-06T11:47:03Z</time>
      </trkpt>
      <trkpt lat="44.55284" lon="5.50202">
        <ele>1017.2</ele>
        <time>2021-09-06T11:47:04Z</time>
      </trkpt>
      <trkpt lat="44.55276" lon="5.50208">
        <ele>1017.9</ele>
        <time>2021-09-06T11:47:06Z</time>
      </trkpt>
      <trkpt lat="44.55268" lon="5.50215">
        <ele>1018.6</ele>
        <time>2021-09-06T11:47:08Z</time>
      </trkpt>
      <trkpt lat="44.55262" lon="5.50217">
        <ele>1018.8</ele>
        <time>2021-09-06T11:47:09Z</time>
      </trkpt>
      <trkpt lat="44.55252" lon="5.50227">
        <ele>1018.6</ele>
        <time>2021-09-06T11:47:11Z</time>
      </trkpt>
      <trkpt lat="44.55248" lon="5.50232">
        <ele>1018.4</ele>
        <time>2021-09-06T11:47:12Z</time>
      </trkpt>
      <trkpt lat="44.55245" lon="5.50234">
        <ele>1018.2</ele>
        <time>2021-09-06T11:47:14Z</time>
      </trkpt>
      <trkpt lat="44.5524" lon="5.50243">
        <ele>1017.9</ele>
        <time>2021-09-06T11:47:16Z</time>
      </trkpt>
      <trkpt lat="44.55237" lon="5.50247">
        <ele>1017.7</ele>
        <time>2021-09-06T11:47:17Z</time>
      </trkpt>
      <trkpt lat="44.55236" lon="5.50253">
        <ele>1017.6</ele>
        <time>2021-09-06T11:47:18Z</time>
      </trkpt>
      <trkpt lat="44.55234" lon="5.5026">
        <ele>1017.4</ele>
        <time>2021-09-06T11:47:20Z</time>
      </trkpt>
      <trkpt lat="44.55228" lon="5.50271">
        <ele>1017.2</ele>
        <time>2021-09-06T11:47:22Z</time>
      </trkpt>
      <trkpt lat="44.55225" lon="5.50278">
        <ele>1017.1</ele>
        <time>2021-09-06T11:47:23Z</time>
      </trkpt>
      <trkpt lat="44.55221" lon="5.50284">
        <ele>1016.9</ele>
        <time>2021-09-06T11:47:24Z</time>
      </trkpt>
      <trkpt lat="44.55213" lon="5.50293">
        <ele>1016.5</ele>
        <time>2021-09-06T11:47:26Z</time>
      </trkpt>
      <trkpt lat="44.55204" lon="5.503">
        <ele>1016</ele>
        <time>2021-09-06T11:47:28Z</time>
      </trkpt>
      <trkpt lat="44.55199" lon="5.50304">
        <ele>1015.7</ele>
        <time>2021-09-06T11:47:29Z</time>
      </trkpt>
      <trkpt lat="44.55193" lon="5.50307">
        <ele>1015.3</ele>
        <time>2021-09-06T11:47:30Z</time>
      </trkpt>
      <trkpt lat="44.55187" lon="5.50311">
        <ele>1015</ele>
        <time>2021-09-06T11:47:31Z</time>
      </trkpt>
      <trkpt lat="44.55176" lon="5.50317">
        <ele>1014.4</ele>
        <time>2021-09-06T11:47:33Z</time>
      </trkpt>
      <trkpt lat="44.55171" lon="5.5032">
        <ele>1014.2</ele>
        <time>2021-09-06T11:47:34Z</time>
      </trkpt>
      <trkpt lat="44.55166" lon="5.50322">
        <ele>1014</ele>
        <time>2021-09-06T11:47:35Z</time>
      </trkpt>
      <trkpt lat="44.55161" lon="5.50325">
        <ele>1013.8</ele>
        <time>2021-09-06T11:47:36Z</time>
      </trkpt>
      <trkpt lat="44.55151" lon="5.5033">
        <ele>1013.4</ele>
        <time>2021-09-06T11:47:38Z</time>
      </trkpt>
      <trkpt lat="44.55142" lon="5.50334">
        <ele>1013.1</ele>
        <time>2021-09-06T11:47:40Z</time>
      </trkpt>
      <trkpt lat="44.55135" lon="5.50338">
        <ele>1012.9</ele>
        <time>2021-09-06T11:47:42Z</time>
      </trkpt>
      <trkpt lat="44.55131" lon="5.50341">
        <ele>1012.7</ele>
        <time>2021-09-06T11:47:43Z</time>
      </trkpt>
      <trkpt lat="44.55127" lon="5.50343">
        <ele>1012.6</ele>
        <time>2021-09-06T11:47:44Z</time>
      </trkpt>
      <trkpt lat="44.55118" lon="5.50348">
        <ele>1012.3</ele>
        <time>2021-09-06T11:47:46Z</time>
      </trkpt>
      <trkpt lat="44.55109" lon="5.50355">
        <ele>1012.1</ele>
        <time>2021-09-06T11:47:48Z</time>
      </trkpt>
      <trkpt lat="44.551" lon="5.50367">
        <ele>1011.8</ele>
        <time>2021-09-06T11:47:50Z</time>
      </trkpt>
      <trkpt lat="44.5509" lon="5.50377">
        <ele>1011.4</ele>
        <time>2021-09-06T11:47:52Z</time>
      </trkpt>
      <trkpt lat="44.55085" lon="5.50381">
        <ele>1011.1</ele>
        <time>2021-09-06T11:47:53Z</time>
      </trkpt>
      <trkpt lat="44.5508" lon="5.50387">
        <ele>1010.8</ele>
        <time>2021-09-06T11:47:54Z</time>
      </trkpt>
      <trkpt lat="44.55075" lon="5.50392">
        <ele>1010.6</ele>
        <time>2021-09-06T11:47:55Z</time>
      </trkpt>
      <trkpt lat="44.55071" lon="5.50397">
        <ele>1010.4</ele>
        <time>2021-09-06T11:47:56Z</time>
      </trkpt>
      <trkpt lat="44.55062" lon="5.50409">
        <ele>1010</ele>
        <time>2021-09-06T11:47:58Z</time>
      </trkpt>
      <trkpt lat="44.55058" lon="5.50415">
        <ele>1009.8</ele>
        <time>2021-09-06T11:47:59Z</time>
      </trkpt>
      <trkpt lat="44.55054" lon="5.5042">
        <ele>1009.7</ele>
        <time>2021-09-06T11:48:00Z</time>
      </trkpt>
      <trkpt lat="44.5505" lon="5.50425">
        <ele>1009.6</ele>
        <time>2021-09-06T11:48:01Z</time>
      </trkpt>
      <trkpt lat="44.55047" lon="5.50428">
        <ele>1009.4</ele>
        <time>2021-09-06T11:48:02Z</time>
      </trkpt>
      <trkpt lat="44.55038" lon="5.50437">
        <ele>1009.1</ele>
        <time>2021-09-06T11:48:04Z</time>
      </trkpt>
      <trkpt lat="44.55034" lon="5.50442">
        <ele>1009</ele>
        <time>2021-09-06T11:48:05Z</time>
      </trkpt>
      <trkpt lat="44.55031" lon="5.50447">
        <ele>1008.9</ele>
        <time>2021-09-06T11:48:06Z</time>
      </trkpt>
      <trkpt lat="44.55027" lon="5.50452">
        <ele>1008.8</ele>
        <time>2021-09-06T11:48:07Z</time>
      </trkpt>
      <trkpt lat="44.55024" lon="5.50456">
        <ele>1008.7</ele>
        <time>2021-09-06T11:48:08Z</time>
      </trkpt>
      <trkpt lat="44.55019" lon="5.50465">
        <ele>1008.6</ele>
        <time>2021-09-06T11:48:10Z</time>
      </trkpt>
      <trkpt lat="44.55016" lon="5.50469">
        <ele>1008.5</ele>
        <time>2021-09-06T11:48:11Z</time>
      </trkpt>
      <trkpt lat="44.55013" lon="5.50474">
        <ele>1008.5</ele>
        <time>2021-09-06T11:48:12Z</time>
      </trkpt>
      <trkpt lat="44.5501" lon="5.50478">
        <ele>1008.4</ele>
        <time>2021-09-06T11:48:14Z</time>
      </trkpt>
      <trkpt lat="44.55008" lon="5.50482">
        <ele>1008.4</ele>
        <time>2021-09-06T11:48:15Z</time>
      </trkpt>
      <trkpt lat="44.55005" lon="5.50487">
        <ele>1008.3</ele>
        <time>2021-09-06T11:48:16Z</time>
      </trkpt>
      <trkpt lat="44.55002" lon="5.50493">
        <ele>1008.2</ele>
        <time>2021-09-06T11:48:17Z</time>
      </trkpt>
      <trkpt lat="44.54995" lon="5.50502">
        <ele>1008.2</ele>
        <time>2021-09-06T11:48:19Z</time>
      </trkpt>
      <trkpt lat="44.54991" lon="5.50507">
        <ele>1008.3</ele>
        <time>2021-09-06T11:48:20Z</time>
      </trkpt>
      <trkpt lat="44.54988" lon="5.50512">
        <ele>1008.3</ele>
        <time>2021-09-06T11:48:21Z</time>
      </trkpt>
      <trkpt lat="44.54984" lon="5.50519">
        <ele>1008.4</ele>
        <time>2021-09-06T11:48:23Z</time>
      </trkpt>
      <trkpt lat="44.54983" lon="5.50523">
        <ele>1008.5</ele>
        <time>2021-09-06T11:48:24Z</time>
      </trkpt>
      <trkpt lat="44.5498" lon="5.50525">
        <ele>1008.5</ele>
        <time>2021-09-06T11:48:25Z</time>
      </trkpt>
      <trkpt lat="44.54976" lon="5.50526">
        <ele>1008.6</ele>
        <time>2021-09-06T11:48:26Z</time>
      </trkpt>
      <trkpt lat="44.54971" lon="5.50525">
        <ele>1008.5</ele>
        <time>2021-09-06T11:48:27Z</time>
      </trkpt>
      <trkpt lat="44.54966" lon="5.50523">
        <ele>1008.4</ele>
        <time>2021-09-06T11:48:28Z</time>
      </trkpt>
      <trkpt lat="44.5496" lon="5.50519">
        <ele>1008.3</ele>
        <time>2021-09-06T11:48:30Z</time>
      </trkpt>
      <trkpt lat="44.54957" lon="5.50516">
        <ele>1008.2</ele>
        <time>2021-09-06T11:48:31Z</time>
      </trkpt>
      <trkpt lat="44.54953" lon="5.50515">
        <ele>1008</ele>
        <time>2021-09-06T11:48:33Z</time>
      </trkpt>
      <trkpt lat="44.5495" lon="5.50516">
        <ele>1007.6</ele>
        <time>2021-09-06T11:48:35Z</time>
      </trkpt>
      <trkpt lat="44.54948" lon="5.50515">
        <ele>1007.7</ele>
        <time>2021-09-06T11:48:36Z</time>
      </trkpt>
      <trkpt lat="44.54945" lon="5.50514">
        <ele>1007.9</ele>
        <time>2021-09-06T11:48:38Z</time>
      </trkpt>
      <trkpt lat="44.54942" lon="5.50513">
        <ele>1008.1</ele>
        <time>2021-09-06T11:48:39Z</time>
      </trkpt>
      <trkpt lat="44.54941" lon="5.50512">
        <ele>1008.1</ele>
        <time>2021-09-06T11:48:40Z</time>
      </trkpt>
      <trkpt lat="44.54938" lon="5.50511">
        <ele>1008.3</ele>
        <time>2021-09-06T11:48:41Z</time>
      </trkpt>
      <trkpt lat="44.54936" lon="5.50511">
        <ele>1008.4</ele>
        <time>2021-09-06T11:48:42Z</time>
      </trkpt>
      <trkpt lat="44.54932" lon="5.50507">
        <ele>1008.7</ele>
        <time>2021-09-06T11:48:44Z</time>
      </trkpt>
      <trkpt lat="44.54931" lon="5.50506">
        <ele>1008.8</ele>
        <time>2021-09-06T11:48:45Z</time>
      </trkpt>
      <trkpt lat="44.5493" lon="5.50504">
        <ele>1008.9</ele>
        <time>2021-09-06T11:48:46Z</time>
      </trkpt>
      <trkpt lat="44.54926" lon="5.50502">
        <ele>1009.2</ele>
        <time>2021-09-06T11:48:48Z</time>
      </trkpt>
      <trkpt lat="44.54924" lon="5.505">
        <ele>1009.4</ele>
        <time>2021-09-06T11:48:49Z</time>
      </trkpt>
      <trkpt lat="44.54924" lon="5.50502">
        <ele>1008.9</ele>
        <time>2021-09-06T11:48:51Z</time>
      </trkpt>
      <trkpt lat="44.54925" lon="5.50506">
        <ele>1008.4</ele>
        <time>2021-09-06T11:48:52Z</time>
      </trkpt>
      <trkpt lat="44.54924" lon="5.50507">
        <ele>1008.5</ele>
        <time>2021-09-06T11:48:53Z</time>
      </trkpt>
      <trkpt lat="44.54924" lon="5.50507">
        <ele>1008.6</ele>
        <time>2021-09-06T11:48:55Z</time>
      </trkpt>
      <trkpt lat="44.54923" lon="5.50508">
        <ele>1008.7</ele>
        <time>2021-09-06T11:48:56Z</time>
      </trkpt>
      <trkpt lat="44.54922" lon="5.50509">
        <ele>1009</ele>
        <time>2021-09-06T11:48:57Z</time>
      </trkpt>
      <trkpt lat="44.54929" lon="5.50538">
        <ele>1005.7</ele>
        <time>2021-09-06T11:48:59Z</time>
      </trkpt>
      <trkpt lat="44.54937" lon="5.50566">
        <ele>1001.9</ele>
        <time>2021-09-06T11:49:59Z</time>
      </trkpt>
      <trkpt lat="44.54945" lon="5.50593">
        <ele>998.6</ele>
        <time>2021-09-06T11:50:00Z</time>
      </trkpt>
      <trkpt lat="44.5495" lon="5.50603">
        <ele>997.3</ele>
        <time>2021-09-06T11:50:01Z</time>
      </trkpt>
      <trkpt lat="44.54955" lon="5.5061">
        <ele>996.4</ele>
        <time>2021-09-06T11:50:02Z</time>
      </trkpt>
      <trkpt lat="44.54958" lon="5.50616">
        <ele>995.8</ele>
        <time>2021-09-06T11:50:03Z</time>
      </trkpt>
      <trkpt lat="44.54963" lon="5.50625">
        <ele>994.5</ele>
        <time>2021-09-06T11:50:05Z</time>
      </trkpt>
      <trkpt lat="44.54965" lon="5.50628">
        <ele>994.2</ele>
        <time>2021-09-06T11:50:06Z</time>
      </trkpt>
      <trkpt lat="44.54965" lon="5.5063">
        <ele>994.3</ele>
        <time>2021-09-06T11:50:07Z</time>
      </trkpt>
      <trkpt lat="44.54964" lon="5.50631">
        <ele>994</ele>
        <time>2021-09-06T11:50:09Z</time>
      </trkpt>
      <trkpt lat="44.54963" lon="5.50633">
        <ele>994.1</ele>
        <time>2021-09-06T11:50:11Z</time>
      </trkpt>
      <trkpt lat="44.54962" lon="5.50634">
        <ele>994.2</ele>
        <time>2021-09-06T11:50:12Z</time>
      </trkpt>
      <trkpt lat="44.54962" lon="5.50634">
        <ele>994.7</ele>
        <time>2021-09-06T11:50:13Z</time>
      </trkpt>
      <trkpt lat="44.54962" lon="5.50636">
        <ele>994.3</ele>
        <time>2021-09-06T11:50:15Z</time>
      </trkpt>
      <trkpt lat="44.54962" lon="5.50637">
        <ele>994</ele>
        <time>2021-09-06T11:50:16Z</time>
      </trkpt>
      <trkpt lat="44.54973" lon="5.50649">
        <ele>991.3</ele>
        <time>2021-09-06T11:50:17Z</time>
      </trkpt>
      <trkpt lat="44.54983" lon="5.5066">
        <ele>989</ele>
        <time>2021-09-06T11:51:42Z</time>
      </trkpt>
      <trkpt lat="44.54994" lon="5.5067">
        <ele>985.9</ele>
        <time>2021-09-06T11:51:43Z</time>
      </trkpt>
      <trkpt lat="44.54994" lon="5.50684">
        <ele>984.7</ele>
        <time>2021-09-06T11:51:45Z</time>
      </trkpt>
      <trkpt lat="44.54993" lon="5.50691">
        <ele>984.3</ele>
        <time>2021-09-06T11:51:46Z</time>
      </trkpt>
      <trkpt lat="44.5499" lon="5.507">
        <ele>983.5</ele>
        <time>2021-09-06T11:51:48Z</time>
      </trkpt>
      <trkpt lat="44.54988" lon="5.50705">
        <ele>983.6</ele>
        <time>2021-09-06T11:51:49Z</time>
      </trkpt>
      <trkpt lat="44.54985" lon="5.50709">
        <ele>983.7</ele>
        <time>2021-09-06T11:51:51Z</time>
      </trkpt>
      <trkpt lat="44.5498" lon="5.50707">
        <ele>985.1</ele>
        <time>2021-09-06T11:51:53Z</time>
      </trkpt>
      <trkpt lat="44.54979" lon="5.50706">
        <ele>985.2</ele>
        <time>2021-09-06T11:51:54Z</time>
      </trkpt>
      <trkpt lat="44.54978" lon="5.50706">
        <ele>985.3</ele>
        <time>2021-09-06T11:51:55Z</time>
      </trkpt>
      <trkpt lat="44.54974" lon="5.50706">
        <ele>986.3</ele>
        <time>2021-09-06T11:51:56Z</time>
      </trkpt>
      <trkpt lat="44.54969" lon="5.50708">
        <ele>986.4</ele>
        <time>2021-09-06T11:51:57Z</time>
      </trkpt>
      <trkpt lat="44.54966" lon="5.50709">
        <ele>986.9</ele>
        <time>2021-09-06T11:51:58Z</time>
      </trkpt>
      <trkpt lat="44.5496" lon="5.50708">
        <ele>987.8</ele>
        <time>2021-09-06T11:51:59Z</time>
      </trkpt>
      <trkpt lat="44.54957" lon="5.5071">
        <ele>988.3</ele>
        <time>2021-09-06T11:52:00Z</time>
      </trkpt>
      <trkpt lat="44.54952" lon="5.50718">
        <ele>988</ele>
        <time>2021-09-06T11:52:02Z</time>
      </trkpt>
      <trkpt lat="44.54948" lon="5.50727">
        <ele>987.2</ele>
        <time>2021-09-06T11:52:03Z</time>
      </trkpt>
      <trkpt lat="44.54949" lon="5.50736">
        <ele>986</ele>
        <time>2021-09-06T11:52:04Z</time>
      </trkpt>
      <trkpt lat="44.54953" lon="5.50752">
        <ele>983.2</ele>
        <time>2021-09-06T11:52:06Z</time>
      </trkpt>
      <trkpt lat="44.54957" lon="5.50759">
        <ele>981.8</ele>
        <time>2021-09-06T11:52:07Z</time>
      </trkpt>
      <trkpt lat="44.54964" lon="5.50769">
        <ele>980.1</ele>
        <time>2021-09-06T11:52:09Z</time>
      </trkpt>
      <trkpt lat="44.54966" lon="5.50773">
        <ele>979.3</ele>
        <time>2021-09-06T11:52:10Z</time>
      </trkpt>
      <trkpt lat="44.54976" lon="5.50763">
        <ele>979.6</ele>
        <time>2021-09-06T11:52:12Z</time>
      </trkpt>
      <trkpt lat="44.54978" lon="5.50767">
        <ele>978.7</ele>
        <time>2021-09-06T11:52:13Z</time>
      </trkpt>
      <trkpt lat="44.54982" lon="5.50771">
        <ele>978.4</ele>
        <time>2021-09-06T11:52:15Z</time>
      </trkpt>
      <trkpt lat="44.54984" lon="5.50773">
        <ele>977.5</ele>
        <time>2021-09-06T11:52:16Z</time>
      </trkpt>
      <trkpt lat="44.54992" lon="5.5077">
        <ele>977.5</ele>
        <time>2021-09-06T11:52:18Z</time>
      </trkpt>
      <trkpt lat="44.55003" lon="5.50764">
        <ele>976.2</ele>
        <time>2021-09-06T11:52:20Z</time>
      </trkpt>
      <trkpt lat="44.55007" lon="5.50762">
        <ele>976.4</ele>
        <time>2021-09-06T11:52:21Z</time>
      </trkpt>
      <trkpt lat="44.55013" lon="5.50764">
        <ele>975.1</ele>
        <time>2021-09-06T11:52:23Z</time>
      </trkpt>
      <trkpt lat="44.55015" lon="5.50768">
        <ele>974.2</ele>
        <time>2021-09-06T11:52:24Z</time>
      </trkpt>
      <trkpt lat="44.55019" lon="5.50773">
        <ele>973.3</ele>
        <time>2021-09-06T11:52:26Z</time>
      </trkpt>
      <trkpt lat="44.55023" lon="5.50778">
        <ele>972.4</ele>
        <time>2021-09-06T11:52:28Z</time>
      </trkpt>
      <trkpt lat="44.55025" lon="5.50781">
        <ele>971.5</ele>
        <time>2021-09-06T11:52:29Z</time>
      </trkpt>
      <trkpt lat="44.55026" lon="5.50788">
        <ele>971</ele>
        <time>2021-09-06T11:52:31Z</time>
      </trkpt>
      <trkpt lat="44.55021" lon="5.50796">
        <ele>970.3</ele>
        <time>2021-09-06T11:52:33Z</time>
      </trkpt>
      <trkpt lat="44.55017" lon="5.50802">
        <ele>969.9</ele>
        <time>2021-09-06T11:52:34Z</time>
      </trkpt>
      <trkpt lat="44.55014" lon="5.50804">
        <ele>970.3</ele>
        <time>2021-09-06T11:52:35Z</time>
      </trkpt>
      <trkpt lat="44.55007" lon="5.5081">
        <ele>970</ele>
        <time>2021-09-06T11:52:37Z</time>
      </trkpt>
      <trkpt lat="44.54996" lon="5.5082">
        <ele>970.9</ele>
        <time>2021-09-06T11:52:39Z</time>
      </trkpt>
      <trkpt lat="44.54977" lon="5.50829">
        <ele>972.2</ele>
        <time>2021-09-06T11:52:41Z</time>
      </trkpt>
      <trkpt lat="44.54968" lon="5.50828">
        <ele>973.4</ele>
        <time>2021-09-06T11:52:42Z</time>
      </trkpt>
      <trkpt lat="44.54951" lon="5.50818">
        <ele>976.5</ele>
        <time>2021-09-06T11:52:44Z</time>
      </trkpt>
      <trkpt lat="44.54945" lon="5.50814">
        <ele>976.1</ele>
        <time>2021-09-06T11:52:45Z</time>
      </trkpt>
      <trkpt lat="44.54938" lon="5.50809">
        <ele>975.6</ele>
        <time>2021-09-06T11:52:46Z</time>
      </trkpt>
      <trkpt lat="44.54924" lon="5.50805">
        <ele>974.7</ele>
        <time>2021-09-06T11:52:48Z</time>
      </trkpt>
      <trkpt lat="44.54911" lon="5.50803">
        <ele>974.1</ele>
        <time>2021-09-06T11:52:50Z</time>
      </trkpt>
      <trkpt lat="44.54905" lon="5.50802">
        <ele>973.9</ele>
        <time>2021-09-06T11:52:51Z</time>
      </trkpt>
      <trkpt lat="44.54893" lon="5.50791">
        <ele>973</ele>
        <time>2021-09-06T11:52:53Z</time>
      </trkpt>
      <trkpt lat="44.54886" lon="5.50778">
        <ele>972.2</ele>
        <time>2021-09-06T11:52:54Z</time>
      </trkpt>
      <trkpt lat="44.54873" lon="5.50763">
        <ele>971.1</ele>
        <time>2021-09-06T11:52:56Z</time>
      </trkpt>
      <trkpt lat="44.54858" lon="5.50757">
        <ele>970</ele>
        <time>2021-09-06T11:52:58Z</time>
      </trkpt>
      <trkpt lat="44.54852" lon="5.50755">
        <ele>969.5</ele>
        <time>2021-09-06T11:52:59Z</time>
      </trkpt>
      <trkpt lat="44.54844" lon="5.50753">
        <ele>968.9</ele>
        <time>2021-09-06T11:53:00Z</time>
      </trkpt>
      <trkpt lat="44.54837" lon="5.50753">
        <ele>968.3</ele>
        <time>2021-09-06T11:53:01Z</time>
      </trkpt>
      <trkpt lat="44.54831" lon="5.50752">
        <ele>967.8</ele>
        <time>2021-09-06T11:53:02Z</time>
      </trkpt>
      <trkpt lat="44.54817" lon="5.50744">
        <ele>966.6</ele>
        <time>2021-09-06T11:53:04Z</time>
      </trkpt>
      <trkpt lat="44.54811" lon="5.50737">
        <ele>966</ele>
        <time>2021-09-06T11:53:05Z</time>
      </trkpt>
      <trkpt lat="44.54804" lon="5.50729">
        <ele>965.4</ele>
        <time>2021-09-06T11:53:06Z</time>
      </trkpt>
      <trkpt lat="44.54798" lon="5.50721">
        <ele>964.8</ele>
        <time>2021-09-06T11:53:07Z</time>
      </trkpt>
      <trkpt lat="44.54784" lon="5.5071">
        <ele>963.8</ele>
        <time>2021-09-06T11:53:09Z</time>
      </trkpt>
      <trkpt lat="44.54776" lon="5.50707">
        <ele>963.3</ele>
        <time>2021-09-06T11:53:10Z</time>
      </trkpt>
      <trkpt lat="44.54759" lon="5.50699">
        <ele>962.2</ele>
        <time>2021-09-06T11:53:12Z</time>
      </trkpt>
      <trkpt lat="44.54751" lon="5.50694">
        <ele>961.6</ele>
        <time>2021-09-06T11:53:13Z</time>
      </trkpt>
      <trkpt lat="44.54743" lon="5.50687">
        <ele>961</ele>
        <time>2021-09-06T11:53:14Z</time>
      </trkpt>
      <trkpt lat="44.54734" lon="5.50677">
        <ele>960.4</ele>
        <time>2021-09-06T11:53:15Z</time>
      </trkpt>
      <trkpt lat="44.54721" lon="5.50661">
        <ele>959.4</ele>
        <time>2021-09-06T11:53:17Z</time>
      </trkpt>
      <trkpt lat="44.54712" lon="5.50653">
        <ele>958.9</ele>
        <time>2021-09-06T11:53:18Z</time>
      </trkpt>
      <trkpt lat="44.54697" lon="5.50639">
        <ele>958.1</ele>
        <time>2021-09-06T11:53:20Z</time>
      </trkpt>
      <trkpt lat="44.54684" lon="5.50636">
        <ele>957.4</ele>
        <time>2021-09-06T11:53:22Z</time>
      </trkpt>
      <trkpt lat="44.54675" lon="5.50632">
        <ele>956.8</ele>
        <time>2021-09-06T11:53:24Z</time>
      </trkpt>
      <trkpt lat="44.54671" lon="5.50628">
        <ele>956.5</ele>
        <time>2021-09-06T11:53:25Z</time>
      </trkpt>
      <trkpt lat="44.54663" lon="5.50619">
        <ele>955.9</ele>
        <time>2021-09-06T11:53:27Z</time>
      </trkpt>
      <trkpt lat="44.54655" lon="5.50611">
        <ele>955.4</ele>
        <time>2021-09-06T11:53:29Z</time>
      </trkpt>
      <trkpt lat="44.54645" lon="5.50605">
        <ele>954.8</ele>
        <time>2021-09-06T11:53:31Z</time>
      </trkpt>
      <trkpt lat="44.5464" lon="5.50602">
        <ele>954.5</ele>
        <time>2021-09-06T11:53:32Z</time>
      </trkpt>
      <trkpt lat="44.54626" lon="5.50604">
        <ele>953.8</ele>
        <time>2021-09-06T11:53:34Z</time>
      </trkpt>
      <trkpt lat="44.54619" lon="5.50608">
        <ele>953.2</ele>
        <time>2021-09-06T11:53:35Z</time>
      </trkpt>
      <trkpt lat="44.54603" lon="5.50613">
        <ele>952.1</ele>
        <time>2021-09-06T11:53:37Z</time>
      </trkpt>
      <trkpt lat="44.54595" lon="5.50614">
        <ele>951.6</ele>
        <time>2021-09-06T11:53:38Z</time>
      </trkpt>
      <trkpt lat="44.54584" lon="5.50616">
        <ele>950.9</ele>
        <time>2021-09-06T11:53:40Z</time>
      </trkpt>
      <trkpt lat="44.54574" lon="5.5062">
        <ele>950.2</ele>
        <time>2021-09-06T11:53:42Z</time>
      </trkpt>
      <trkpt lat="44.54572" lon="5.50623">
        <ele>950</ele>
        <time>2021-09-06T11:53:43Z</time>
      </trkpt>
      <trkpt lat="44.54578" lon="5.50631">
        <ele>949.4</ele>
        <time>2021-09-06T11:53:45Z</time>
      </trkpt>
      <trkpt lat="44.54584" lon="5.50634">
        <ele>949</ele>
        <time>2021-09-06T11:53:46Z</time>
      </trkpt>
      <trkpt lat="44.54587" lon="5.50635">
        <ele>948.8</ele>
        <time>2021-09-06T11:53:48Z</time>
      </trkpt>
      <trkpt lat="44.54587" lon="5.50636">
        <ele>948.8</ele>
        <time>2021-09-06T11:53:49Z</time>
      </trkpt>
      <trkpt lat="44.54587" lon="5.50636">
        <ele>948.8</ele>
        <time>2021-09-06T11:53:50Z</time>
      </trkpt>
      <trkpt lat="44.54587" lon="5.50637">
        <ele>948.8</ele>
        <time>2021-09-06T11:53:52Z</time>
      </trkpt>
      <trkpt lat="44.54587" lon="5.50637">
        <ele>948.8</ele>
        <time>2021-09-06T11:53:54Z</time>
      </trkpt>
      <trkpt lat="44.54582" lon="5.50656">
        <ele>947.8</ele>
        <time>2021-09-06T11:54:34Z</time>
      </trkpt>
      <trkpt lat="44.5458" lon="5.5066">
        <ele>947.6</ele>
        <time>2021-09-06T11:54:35Z</time>
      </trkpt>
      <trkpt lat="44.54577" lon="5.50666">
        <ele>947.2</ele>
        <time>2021-09-06T11:54:36Z</time>
      </trkpt>
      <trkpt lat="44.54574" lon="5.50669">
        <ele>946.9</ele>
        <time>2021-09-06T11:54:37Z</time>
      </trkpt>
      <trkpt lat="44.54567" lon="5.50673">
        <ele>946.7</ele>
        <time>2021-09-06T11:54:39Z</time>
      </trkpt>
      <trkpt lat="44.54557" lon="5.50681">
        <ele>945.7</ele>
        <time>2021-09-06T11:54:41Z</time>
      </trkpt>
      <trkpt lat="44.54552" lon="5.50686">
        <ele>944.8</ele>
        <time>2021-09-06T11:54:42Z</time>
      </trkpt>
      <trkpt lat="44.5454" lon="5.50693">
        <ele>942.9</ele>
        <time>2021-09-06T11:54:44Z</time>
      </trkpt>
      <trkpt lat="44.54533" lon="5.50696">
        <ele>941.9</ele>
        <time>2021-09-06T11:54:45Z</time>
      </trkpt>
      <trkpt lat="44.54526" lon="5.50697">
        <ele>941.1</ele>
        <time>2021-09-06T11:54:46Z</time>
      </trkpt>
      <trkpt lat="44.54511" lon="5.50701">
        <ele>939.5</ele>
        <time>2021-09-06T11:54:48Z</time>
      </trkpt>
      <trkpt lat="44.54495" lon="5.5071">
        <ele>938.2</ele>
        <time>2021-09-06T11:54:50Z</time>
      </trkpt>
      <trkpt lat="44.54487" lon="5.50715">
        <ele>937.5</ele>
        <time>2021-09-06T11:54:51Z</time>
      </trkpt>
      <trkpt lat="44.54471" lon="5.50735">
        <ele>935.4</ele>
        <time>2021-09-06T11:54:53Z</time>
      </trkpt>
      <trkpt lat="44.54463" lon="5.50744">
        <ele>934.2</ele>
        <time>2021-09-06T11:54:54Z</time>
      </trkpt>
      <trkpt lat="44.54449" lon="5.5076">
        <ele>932.1</ele>
        <time>2021-09-06T11:54:56Z</time>
      </trkpt>
      <trkpt lat="44.54437" lon="5.50775">
        <ele>930.6</ele>
        <time>2021-09-06T11:54:58Z</time>
      </trkpt>
      <trkpt lat="44.54431" lon="5.50782">
        <ele>930</ele>
        <time>2021-09-06T11:54:59Z</time>
      </trkpt>
      <trkpt lat="44.54424" lon="5.50789">
        <ele>929.4</ele>
        <time>2021-09-06T11:55:00Z</time>
      </trkpt>
      <trkpt lat="44.54421" lon="5.50796">
        <ele>928.9</ele>
        <time>2021-09-06T11:55:01Z</time>
      </trkpt>
      <trkpt lat="44.54416" lon="5.50802">
        <ele>928.4</ele>
        <time>2021-09-06T11:55:02Z</time>
      </trkpt>
      <trkpt lat="44.54404" lon="5.50812">
        <ele>927.3</ele>
        <time>2021-09-06T11:55:04Z</time>
      </trkpt>
      <trkpt lat="44.54391" lon="5.50821">
        <ele>926.1</ele>
        <time>2021-09-06T11:55:06Z</time>
      </trkpt>
      <trkpt lat="44.54377" lon="5.50826">
        <ele>925</ele>
        <time>2021-09-06T11:55:08Z</time>
      </trkpt>
      <trkpt lat="44.54371" lon="5.50828">
        <ele>924.5</ele>
        <time>2021-09-06T11:55:09Z</time>
      </trkpt>
      <trkpt lat="44.54364" lon="5.50829">
        <ele>924</ele>
        <time>2021-09-06T11:55:10Z</time>
      </trkpt>
      <trkpt lat="44.5435" lon="5.50825">
        <ele>923</ele>
        <time>2021-09-06T11:55:12Z</time>
      </trkpt>
      <trkpt lat="44.54333" lon="5.50821">
        <ele>921.8</ele>
        <time>2021-09-06T11:55:14Z</time>
      </trkpt>
      <trkpt lat="44.54317" lon="5.50822">
        <ele>920.3</ele>
        <time>2021-09-06T11:55:16Z</time>
      </trkpt>
      <trkpt lat="44.54301" lon="5.50827">
        <ele>918.8</ele>
        <time>2021-09-06T11:55:18Z</time>
      </trkpt>
      <trkpt lat="44.54293" lon="5.5083">
        <ele>918.2</ele>
        <time>2021-09-06T11:55:19Z</time>
      </trkpt>
      <trkpt lat="44.54286" lon="5.50833">
        <ele>917.7</ele>
        <time>2021-09-06T11:55:20Z</time>
      </trkpt>
      <trkpt lat="44.54271" lon="5.50837">
        <ele>916.3</ele>
        <time>2021-09-06T11:55:22Z</time>
      </trkpt>
      <trkpt lat="44.54251" lon="5.50835">
        <ele>914.7</ele>
        <time>2021-09-06T11:55:24Z</time>
      </trkpt>
      <trkpt lat="44.54233" lon="5.50833">
        <ele>912.6</ele>
        <time>2021-09-06T11:55:26Z</time>
      </trkpt>
      <trkpt lat="44.54225" lon="5.5083">
        <ele>912.1</ele>
        <time>2021-09-06T11:55:27Z</time>
      </trkpt>
      <trkpt lat="44.54209" lon="5.5082">
        <ele>911.3</ele>
        <time>2021-09-06T11:55:29Z</time>
      </trkpt>
      <trkpt lat="44.5419" lon="5.50809">
        <ele>910.3</ele>
        <time>2021-09-06T11:55:31Z</time>
      </trkpt>
      <trkpt lat="44.54169" lon="5.50786">
        <ele>908.8</ele>
        <time>2021-09-06T11:55:33Z</time>
      </trkpt>
      <trkpt lat="44.54159" lon="5.50773">
        <ele>908.2</ele>
        <time>2021-09-06T11:55:34Z</time>
      </trkpt>
      <trkpt lat="44.54138" lon="5.50755">
        <ele>907.1</ele>
        <time>2021-09-06T11:55:36Z</time>
      </trkpt>
      <trkpt lat="44.5412" lon="5.50739">
        <ele>905.8</ele>
        <time>2021-09-06T11:55:38Z</time>
      </trkpt>
      <trkpt lat="44.54103" lon="5.50726">
        <ele>904.8</ele>
        <time>2021-09-06T11:55:40Z</time>
      </trkpt>
      <trkpt lat="44.54092" lon="5.50716">
        <ele>904.2</ele>
        <time>2021-09-06T11:55:41Z</time>
      </trkpt>
      <trkpt lat="44.54081" lon="5.50707">
        <ele>903.7</ele>
        <time>2021-09-06T11:55:42Z</time>
      </trkpt>
      <trkpt lat="44.54063" lon="5.50695">
        <ele>903</ele>
        <time>2021-09-06T11:55:44Z</time>
      </trkpt>
      <trkpt lat="44.54053" lon="5.50689">
        <ele>902.5</ele>
        <time>2021-09-06T11:55:45Z</time>
      </trkpt>
      <trkpt lat="44.54044" lon="5.50683">
        <ele>901.9</ele>
        <time>2021-09-06T11:55:46Z</time>
      </trkpt>
      <trkpt lat="44.54035" lon="5.50677">
        <ele>901.3</ele>
        <time>2021-09-06T11:55:47Z</time>
      </trkpt>
      <trkpt lat="44.54025" lon="5.50671">
        <ele>900.5</ele>
        <time>2021-09-06T11:55:48Z</time>
      </trkpt>
      <trkpt lat="44.54016" lon="5.50665">
        <ele>899.4</ele>
        <time>2021-09-06T11:55:49Z</time>
      </trkpt>
      <trkpt lat="44.53996" lon="5.50655">
        <ele>897.4</ele>
        <time>2021-09-06T11:55:51Z</time>
      </trkpt>
      <trkpt lat="44.53976" lon="5.50649">
        <ele>895.9</ele>
        <time>2021-09-06T11:55:53Z</time>
      </trkpt>
      <trkpt lat="44.53968" lon="5.50665">
        <ele>895.3</ele>
        <time>2021-09-06T11:55:54Z</time>
      </trkpt>
      <trkpt lat="44.53951" lon="5.50663">
        <ele>894.8</ele>
        <time>2021-09-06T11:55:56Z</time>
      </trkpt>
      <trkpt lat="44.53942" lon="5.50662">
        <ele>894.6</ele>
        <time>2021-09-06T11:55:57Z</time>
      </trkpt>
      <trkpt lat="44.53932" lon="5.50657">
        <ele>894.5</ele>
        <time>2021-09-06T11:55:58Z</time>
      </trkpt>
      <trkpt lat="44.53923" lon="5.50651">
        <ele>894.3</ele>
        <time>2021-09-06T11:55:59Z</time>
      </trkpt>
      <trkpt lat="44.53913" lon="5.50645">
        <ele>893.9</ele>
        <time>2021-09-06T11:56:00Z</time>
      </trkpt>
      <trkpt lat="44.53895" lon="5.50635">
        <ele>892.7</ele>
        <time>2021-09-06T11:56:02Z</time>
      </trkpt>
      <trkpt lat="44.53885" lon="5.50634">
        <ele>892</ele>
        <time>2021-09-06T11:56:03Z</time>
      </trkpt>
      <trkpt lat="44.53877" lon="5.50631">
        <ele>891.5</ele>
        <time>2021-09-06T11:56:04Z</time>
      </trkpt>
      <trkpt lat="44.53862" lon="5.50627">
        <ele>890.6</ele>
        <time>2021-09-06T11:56:06Z</time>
      </trkpt>
      <trkpt lat="44.53858" lon="5.50622">
        <ele>890.3</ele>
        <time>2021-09-06T11:56:07Z</time>
      </trkpt>
      <trkpt lat="44.53856" lon="5.5062">
        <ele>890.2</ele>
        <time>2021-09-06T11:56:08Z</time>
      </trkpt>
      <trkpt lat="44.53845" lon="5.50618">
        <ele>889.4</ele>
        <time>2021-09-06T11:56:10Z</time>
      </trkpt>
      <trkpt lat="44.5384" lon="5.50618">
        <ele>889.1</ele>
        <time>2021-09-06T11:56:11Z</time>
      </trkpt>
      <trkpt lat="44.53835" lon="5.50618">
        <ele>888.7</ele>
        <time>2021-09-06T11:56:12Z</time>
      </trkpt>
      <trkpt lat="44.53819" lon="5.50619">
        <ele>888</ele>
        <time>2021-09-06T11:56:14Z</time>
      </trkpt>
      <trkpt lat="44.53812" lon="5.5062">
        <ele>887.7</ele>
        <time>2021-09-06T11:56:15Z</time>
      </trkpt>
      <trkpt lat="44.53806" lon="5.50621">
        <ele>887.6</ele>
        <time>2021-09-06T11:56:17Z</time>
      </trkpt>
      <trkpt lat="44.53816" lon="5.50624">
        <ele>887.5</ele>
        <time>2021-09-06T11:56:18Z</time>
      </trkpt>
      <trkpt lat="44.53825" lon="5.50628">
        <ele>887.4</ele>
        <time>2021-09-06T11:56:20Z</time>
      </trkpt>
      <trkpt lat="44.53829" lon="5.50629">
        <ele>887.5</ele>
        <time>2021-09-06T11:56:21Z</time>
      </trkpt>
      <trkpt lat="44.5383" lon="5.50629">
        <ele>887.7</ele>
        <time>2021-09-06T11:56:22Z</time>
      </trkpt>
      <trkpt lat="44.53831" lon="5.50629">
        <ele>887.9</ele>
        <time>2021-09-06T11:56:23Z</time>
      </trkpt>
      <trkpt lat="44.5383" lon="5.50632">
        <ele>887.1</ele>
        <time>2021-09-06T11:56:25Z</time>
      </trkpt>
      <trkpt lat="44.53756" lon="5.50743">
        <ele>879.3</ele>
        <time>2021-09-06T11:57:25Z</time>
      </trkpt>
      <trkpt lat="44.53752" lon="5.50756">
        <ele>877.6</ele>
        <time>2021-09-06T11:57:26Z</time>
      </trkpt>
      <trkpt lat="44.53751" lon="5.50763">
        <ele>876.6</ele>
        <time>2021-09-06T11:57:28Z</time>
      </trkpt>
      <trkpt lat="44.53749" lon="5.50768">
        <ele>875.7</ele>
        <time>2021-09-06T11:57:29Z</time>
      </trkpt>
      <trkpt lat="44.53747" lon="5.50772">
        <ele>875.5</ele>
        <time>2021-09-06T11:57:30Z</time>
      </trkpt>
      <trkpt lat="44.53745" lon="5.50776">
        <ele>875.3</ele>
        <time>2021-09-06T11:57:31Z</time>
      </trkpt>
      <trkpt lat="44.53728" lon="5.50806">
        <ele>871.5</ele>
        <time>2021-09-06T11:57:33Z</time>
      </trkpt>
      <trkpt lat="44.53728" lon="5.5081">
        <ele>870.7</ele>
        <time>2021-09-06T11:57:34Z</time>
      </trkpt>
      <trkpt lat="44.53728" lon="5.50813">
        <ele>870.9</ele>
        <time>2021-09-06T11:57:35Z</time>
      </trkpt>
      <trkpt lat="44.53728" lon="5.50814">
        <ele>871.1</ele>
        <time>2021-09-06T11:57:37Z</time>
      </trkpt>
      <trkpt lat="44.53728" lon="5.50815">
        <ele>870.3</ele>
        <time>2021-09-06T11:57:38Z</time>
      </trkpt>
      <trkpt lat="44.53726" lon="5.50821">
        <ele>870.3</ele>
        <time>2021-09-06T11:57:40Z</time>
      </trkpt>
      <trkpt lat="44.53727" lon="5.5083">
        <ele>868.1</ele>
        <time>2021-09-06T11:57:42Z</time>
      </trkpt>
      <trkpt lat="44.53727" lon="5.50834">
        <ele>867.6</ele>
        <time>2021-09-06T11:57:43Z</time>
      </trkpt>
      <trkpt lat="44.53728" lon="5.50839">
        <ele>867.1</ele>
        <time>2021-09-06T11:57:44Z</time>
      </trkpt>
      <trkpt lat="44.53728" lon="5.50843">
        <ele>866.6</ele>
        <time>2021-09-06T11:57:46Z</time>
      </trkpt>
      <trkpt lat="44.53728" lon="5.50844">
        <ele>866.8</ele>
        <time>2021-09-06T11:57:47Z</time>
      </trkpt>
      <trkpt lat="44.53728" lon="5.50845">
        <ele>866.4</ele>
        <time>2021-09-06T11:57:48Z</time>
      </trkpt>
      <trkpt lat="44.53728" lon="5.50852">
        <ele>866</ele>
        <time>2021-09-06T11:57:49Z</time>
      </trkpt>
      <trkpt lat="44.53729" lon="5.50857">
        <ele>865.6</ele>
        <time>2021-09-06T11:57:51Z</time>
      </trkpt>
      <trkpt lat="44.53731" lon="5.50859">
        <ele>864.7</ele>
        <time>2021-09-06T11:57:52Z</time>
      </trkpt>
      <trkpt lat="44.53733" lon="5.5086">
        <ele>864.9</ele>
        <time>2021-09-06T11:57:54Z</time>
      </trkpt>
      <trkpt lat="44.5377" lon="5.50845">
        <ele>861</ele>
        <time>2021-09-06T11:58:00Z</time>
      </trkpt>
      <trkpt lat="44.5378" lon="5.50841">
        <ele>859.9</ele>
        <time>2021-09-06T11:58:01Z</time>
      </trkpt>
      <trkpt lat="44.53785" lon="5.50841">
        <ele>859</ele>
        <time>2021-09-06T11:58:02Z</time>
      </trkpt>
      <trkpt lat="44.53796" lon="5.5084">
        <ele>858.4</ele>
        <time>2021-09-06T11:58:03Z</time>
      </trkpt>
      <trkpt lat="44.53801" lon="5.5084">
        <ele>858.2</ele>
        <time>2021-09-06T11:58:04Z</time>
      </trkpt>
      <trkpt lat="44.53807" lon="5.50841">
        <ele>858</ele>
        <time>2021-09-06T11:58:06Z</time>
      </trkpt>
      <trkpt lat="44.53811" lon="5.50842">
        <ele>857.9</ele>
        <time>2021-09-06T11:58:07Z</time>
      </trkpt>
      <trkpt lat="44.53816" lon="5.50848">
        <ele>857.7</ele>
        <time>2021-09-06T11:58:09Z</time>
      </trkpt>
      <trkpt lat="44.53819" lon="5.50853">
        <ele>857.6</ele>
        <time>2021-09-06T11:58:10Z</time>
      </trkpt>
      <trkpt lat="44.53821" lon="5.50858">
        <ele>857.5</ele>
        <time>2021-09-06T11:58:11Z</time>
      </trkpt>
      <trkpt lat="44.53825" lon="5.50869">
        <ele>857.3</ele>
        <time>2021-09-06T11:58:12Z</time>
      </trkpt>
      <trkpt lat="44.53828" lon="5.50877">
        <ele>857.1</ele>
        <time>2021-09-06T11:58:13Z</time>
      </trkpt>
      <trkpt lat="44.53835" lon="5.50893">
        <ele>856.5</ele>
        <time>2021-09-06T11:58:15Z</time>
      </trkpt>
      <trkpt lat="44.53834" lon="5.50901">
        <ele>856.3</ele>
        <time>2021-09-06T11:58:17Z</time>
      </trkpt>
      <trkpt lat="44.53834" lon="5.509">
        <ele>856.2</ele>
        <time>2021-09-06T11:58:18Z</time>
      </trkpt>
      <trkpt lat="44.53835" lon="5.509">
        <ele>856.2</ele>
        <time>2021-09-06T11:58:19Z</time>
      </trkpt>
      <trkpt lat="44.53835" lon="5.50901">
        <ele>856.2</ele>
        <time>2021-09-06T11:58:21Z</time>
      </trkpt>
      <trkpt lat="44.53835" lon="5.50902">
        <ele>856.2</ele>
        <time>2021-09-06T11:58:22Z</time>
      </trkpt>
      <trkpt lat="44.53834" lon="5.50903">
        <ele>856.1</ele>
        <time>2021-09-06T11:58:24Z</time>
      </trkpt>
      <trkpt lat="44.53834" lon="5.50905">
        <ele>856.1</ele>
        <time>2021-09-06T11:58:25Z</time>
      </trkpt>
      <trkpt lat="44.53853" lon="5.50909">
        <ele>855.2</ele>
        <time>2021-09-06T11:59:38Z</time>
      </trkpt>
      <trkpt lat="44.53854" lon="5.50909">
        <ele>855.2</ele>
        <time>2021-09-06T11:59:40Z</time>
      </trkpt>
      <trkpt lat="44.53854" lon="5.50908">
        <ele>855.2</ele>
        <time>2021-09-06T11:59:41Z</time>
      </trkpt>
      <trkpt lat="44.53854" lon="5.50908">
        <ele>855.2</ele>
        <time>2021-09-06T11:59:42Z</time>
      </trkpt>
      <trkpt lat="44.53853" lon="5.50908">
        <ele>855.2</ele>
        <time>2021-09-06T11:59:44Z</time>
      </trkpt>
      <trkpt lat="44.53853" lon="5.5091">
        <ele>855.1</ele>
        <time>2021-09-06T11:59:45Z</time>
      </trkpt>
      <trkpt lat="44.53852" lon="5.50912">
        <ele>855</ele>
        <time>2021-09-06T11:59:46Z</time>
      </trkpt>
      <trkpt lat="44.53851" lon="5.50916">
        <ele>854.9</ele>
        <time>2021-09-06T11:59:47Z</time>
      </trkpt>
      <trkpt lat="44.5385" lon="5.50917">
        <ele>854.9</ele>
        <time>2021-09-06T11:59:49Z</time>
      </trkpt>
      <trkpt lat="44.53849" lon="5.50919">
        <ele>854.8</ele>
        <time>2021-09-06T11:59:51Z</time>
      </trkpt>
      <trkpt lat="44.5384" lon="5.50941">
        <ele>853.8</ele>
        <time>2021-09-06T12:00:31Z</time>
      </trkpt>
      <trkpt lat="44.53841" lon="5.50939">
        <ele>853.7</ele>
        <time>2021-09-06T12:00:32Z</time>
      </trkpt>
      <trkpt lat="44.5384" lon="5.50934">
        <ele>853.5</ele>
        <time>2021-09-06T12:00:34Z</time>
      </trkpt>
      <trkpt lat="44.5384" lon="5.50932">
        <ele>853.4</ele>
        <time>2021-09-06T12:00:35Z</time>
      </trkpt>
      <trkpt lat="44.53839" lon="5.50931">
        <ele>853.4</ele>
        <time>2021-09-06T12:00:36Z</time>
      </trkpt>
      <trkpt lat="44.53839" lon="5.5093">
        <ele>853.4</ele>
        <time>2021-09-06T12:00:37Z</time>
      </trkpt>
      <trkpt lat="44.53841" lon="5.50933">
        <ele>853.2</ele>
        <time>2021-09-06T12:00:38Z</time>
      </trkpt>
      <trkpt lat="44.53844" lon="5.50937">
        <ele>853</ele>
        <time>2021-09-06T12:00:40Z</time>
      </trkpt>
      <trkpt lat="44.53846" lon="5.5094">
        <ele>852.8</ele>
        <time>2021-09-06T12:00:41Z</time>
      </trkpt>
      <trkpt lat="44.53849" lon="5.50943">
        <ele>852.5</ele>
        <time>2021-09-06T12:00:43Z</time>
      </trkpt>
      <trkpt lat="44.53851" lon="5.50947">
        <ele>852.3</ele>
        <time>2021-09-06T12:02:35Z</time>
      </trkpt>
      <trkpt lat="44.53853" lon="5.5095">
        <ele>852.1</ele>
        <time>2021-09-06T12:02:36Z</time>
      </trkpt>
      <trkpt lat="44.53856" lon="5.50953">
        <ele>851.9</ele>
        <time>2021-09-06T12:02:38Z</time>
      </trkpt>
      <trkpt lat="44.53858" lon="5.50957">
        <ele>851.6</ele>
        <time>2021-09-06T12:02:39Z</time>
      </trkpt>
      <trkpt lat="44.5386" lon="5.5096">
        <ele>851.4</ele>
        <time>2021-09-06T12:02:40Z</time>
      </trkpt>
      <trkpt lat="44.53863" lon="5.50966">
        <ele>851</ele>
        <time>2021-09-06T12:02:41Z</time>
      </trkpt>
      <trkpt lat="44.53864" lon="5.50968">
        <ele>850.9</ele>
        <time>2021-09-06T12:02:43Z</time>
      </trkpt>
      <trkpt lat="44.53864" lon="5.50969">
        <ele>850.8</ele>
        <time>2021-09-06T12:02:44Z</time>
      </trkpt>
      <trkpt lat="44.53865" lon="5.50969">
        <ele>850.7</ele>
        <time>2021-09-06T12:02:46Z</time>
      </trkpt>
      <trkpt lat="44.53865" lon="5.5097">
        <ele>850.7</ele>
        <time>2021-09-06T12:02:47Z</time>
      </trkpt>
      <trkpt lat="44.53866" lon="5.50971">
        <ele>850.6</ele>
        <time>2021-09-06T12:02:48Z</time>
      </trkpt>
      <trkpt lat="44.53867" lon="5.50972">
        <ele>850.5</ele>
        <time>2021-09-06T12:02:50Z</time>
      </trkpt>
      <trkpt lat="44.53883" lon="5.5099">
        <ele>850.9</ele>
        <time>2021-09-06T12:03:02Z</time>
      </trkpt>
      <trkpt lat="44.53885" lon="5.50995">
        <ele>851.2</ele>
        <time>2021-09-06T12:03:03Z</time>
      </trkpt>
      <trkpt lat="44.53887" lon="5.50999">
        <ele>851.4</ele>
        <time>2021-09-06T12:03:04Z</time>
      </trkpt>
      <trkpt lat="44.5389" lon="5.51012">
        <ele>851.9</ele>
        <time>2021-09-06T12:03:05Z</time>
      </trkpt>
      <trkpt lat="44.53892" lon="5.51023">
        <ele>852.3</ele>
        <time>2021-09-06T12:03:07Z</time>
      </trkpt>
      <trkpt lat="44.53894" lon="5.51036">
        <ele>852.8</ele>
        <time>2021-09-06T12:03:08Z</time>
      </trkpt>
      <trkpt lat="44.53896" lon="5.51046">
        <ele>853.2</ele>
        <time>2021-09-06T12:03:10Z</time>
      </trkpt>
      <trkpt lat="44.53897" lon="5.51058">
        <ele>853.7</ele>
        <time>2021-09-06T12:03:12Z</time>
      </trkpt>
      <trkpt lat="44.53897" lon="5.51064">
        <ele>853.9</ele>
        <time>2021-09-06T12:03:13Z</time>
      </trkpt>
      <trkpt lat="44.53898" lon="5.51068">
        <ele>854.1</ele>
        <time>2021-09-06T12:03:15Z</time>
      </trkpt>
      <trkpt lat="44.53898" lon="5.5107">
        <ele>854.2</ele>
        <time>2021-09-06T12:03:16Z</time>
      </trkpt>
      <trkpt lat="44.53896" lon="5.51071">
        <ele>854.3</ele>
        <time>2021-09-06T12:03:17Z</time>
      </trkpt>
      <trkpt lat="44.53895" lon="5.51073">
        <ele>854.4</ele>
        <time>2021-09-06T12:03:19Z</time>
      </trkpt>
      <trkpt lat="44.53896" lon="5.51075">
        <ele>854.4</ele>
        <time>2021-09-06T12:03:20Z</time>
      </trkpt>
      <trkpt lat="44.53896" lon="5.51076">
        <ele>854.5</ele>
        <time>2021-09-06T12:03:22Z</time>
      </trkpt>
      <trkpt lat="44.53897" lon="5.51077">
        <ele>854.5</ele>
        <time>2021-09-06T12:03:23Z</time>
      </trkpt>
      <trkpt lat="44.539" lon="5.51082">
        <ele>854.8</ele>
        <time>2021-09-06T12:03:25Z</time>
      </trkpt>
      <trkpt lat="44.53901" lon="5.51085">
        <ele>854.9</ele>
        <time>2021-09-06T12:03:26Z</time>
      </trkpt>
      <trkpt lat="44.53904" lon="5.51091">
        <ele>855.2</ele>
        <time>2021-09-06T12:03:28Z</time>
      </trkpt>
      <trkpt lat="44.53905" lon="5.51094">
        <ele>855.3</ele>
        <time>2021-09-06T12:03:29Z</time>
      </trkpt>
      <trkpt lat="44.53907" lon="5.51099">
        <ele>855.5</ele>
        <time>2021-09-06T12:03:31Z</time>
      </trkpt>
      <trkpt lat="44.53907" lon="5.511">
        <ele>855.6</ele>
        <time>2021-09-06T12:03:32Z</time>
      </trkpt>
      <trkpt lat="44.53908" lon="5.51102">
        <ele>855.7</ele>
        <time>2021-09-06T12:03:33Z</time>
      </trkpt>
      <trkpt lat="44.53908" lon="5.51103">
        <ele>855.7</ele>
        <time>2021-09-06T12:03:35Z</time>
      </trkpt>
      <trkpt lat="44.53908" lon="5.51104">
        <ele>855.8</ele>
        <time>2021-09-06T12:03:37Z</time>
      </trkpt>
      <trkpt lat="44.53908" lon="5.51105">
        <ele>855.8</ele>
        <time>2021-09-06T12:03:38Z</time>
      </trkpt>
      <trkpt lat="44.53908" lon="5.51105">
        <ele>855.8</ele>
        <time>2021-09-06T12:03:40Z</time>
      </trkpt>
      <trkpt lat="44.53908" lon="5.51105">
        <ele>855.8</ele>
        <time>2021-09-06T12:03:41Z</time>
      </trkpt>
      <trkpt lat="44.53907" lon="5.51108">
        <ele>855.9</ele>
        <time>2021-09-06T12:03:42Z</time>
      </trkpt>
      <trkpt lat="44.53905" lon="5.51116">
        <ele>856.2</ele>
        <time>2021-09-06T12:03:44Z</time>
      </trkpt>
      <trkpt lat="44.53913" lon="5.51151">
        <ele>857.6</ele>
        <time>2021-09-06T12:03:56Z</time>
      </trkpt>
      <trkpt lat="44.53917" lon="5.51158">
        <ele>858</ele>
        <time>2021-09-06T12:03:58Z</time>
      </trkpt>
      <trkpt lat="44.53921" lon="5.51168">
        <ele>858.4</ele>
        <time>2021-09-06T12:04:00Z</time>
      </trkpt>
      <trkpt lat="44.53922" lon="5.5118">
        <ele>858.8</ele>
        <time>2021-09-06T12:04:02Z</time>
      </trkpt>
      <trkpt lat="44.53921" lon="5.51183">
        <ele>859</ele>
        <time>2021-09-06T12:04:03Z</time>
      </trkpt>
      <trkpt lat="44.5392" lon="5.51189">
        <ele>859.2</ele>
        <time>2021-09-06T12:04:04Z</time>
      </trkpt>
      <trkpt lat="44.5392" lon="5.51191">
        <ele>859.3</ele>
        <time>2021-09-06T12:04:05Z</time>
      </trkpt>
      <trkpt lat="44.53919" lon="5.51195">
        <ele>859.4</ele>
        <time>2021-09-06T12:04:06Z</time>
      </trkpt>
      <trkpt lat="44.53917" lon="5.51202">
        <ele>859.7</ele>
        <time>2021-09-06T12:04:08Z</time>
      </trkpt>
      <trkpt lat="44.53916" lon="5.51206">
        <ele>859.9</ele>
        <time>2021-09-06T12:04:09Z</time>
      </trkpt>
      <trkpt lat="44.53915" lon="5.51213">
        <ele>860.2</ele>
        <time>2021-09-06T12:04:11Z</time>
      </trkpt>
      <trkpt lat="44.53916" lon="5.51217">
        <ele>860.3</ele>
        <time>2021-09-06T12:04:13Z</time>
      </trkpt>
      <trkpt lat="44.53917" lon="5.51218">
        <ele>860.4</ele>
        <time>2021-09-06T12:04:14Z</time>
      </trkpt>
      <trkpt lat="44.53917" lon="5.51222">
        <ele>860.5</ele>
        <time>2021-09-06T12:04:16Z</time>
      </trkpt>
      <trkpt lat="44.53916" lon="5.51224">
        <ele>860.6</ele>
        <time>2021-09-06T12:04:17Z</time>
      </trkpt>
      <trkpt lat="44.53916" lon="5.51225">
        <ele>860.6</ele>
        <time>2021-09-06T12:04:18Z</time>
      </trkpt>
      <trkpt lat="44.53917" lon="5.51231">
        <ele>860.9</ele>
        <time>2021-09-06T12:04:20Z</time>
      </trkpt>
      <trkpt lat="44.5392" lon="5.51241">
        <ele>861.3</ele>
        <time>2021-09-06T12:04:22Z</time>
      </trkpt>
      <trkpt lat="44.5392" lon="5.51248">
        <ele>861.5</ele>
        <time>2021-09-06T12:04:23Z</time>
      </trkpt>
      <trkpt lat="44.5392" lon="5.5125">
        <ele>861.7</ele>
        <time>2021-09-06T12:04:24Z</time>
      </trkpt>
      <trkpt lat="44.5392" lon="5.51251">
        <ele>861.7</ele>
        <time>2021-09-06T12:04:25Z</time>
      </trkpt>
      <trkpt lat="44.5392" lon="5.51252">
        <ele>861.7</ele>
        <time>2021-09-06T12:04:26Z</time>
      </trkpt>
      <trkpt lat="44.53919" lon="5.51255">
        <ele>861.8</ele>
        <time>2021-09-06T12:04:28Z</time>
      </trkpt>
      <trkpt lat="44.53919" lon="5.51256">
        <ele>861.9</ele>
        <time>2021-09-06T12:04:29Z</time>
      </trkpt>
      <trkpt lat="44.53916" lon="5.51264">
        <ele>862.2</ele>
        <time>2021-09-06T12:04:30Z</time>
      </trkpt>
      <trkpt lat="44.53914" lon="5.5127">
        <ele>862.5</ele>
        <time>2021-09-06T12:04:32Z</time>
      </trkpt>
      <trkpt lat="44.53912" lon="5.51275">
        <ele>862.7</ele>
        <time>2021-09-06T12:04:33Z</time>
      </trkpt>
      <trkpt lat="44.53909" lon="5.51281">
        <ele>863</ele>
        <time>2021-09-06T12:05:01Z</time>
      </trkpt>
      <trkpt lat="44.53907" lon="5.51287">
        <ele>863.2</ele>
        <time>2021-09-06T12:05:02Z</time>
      </trkpt>
      <trkpt lat="44.53905" lon="5.51292">
        <ele>863.5</ele>
        <time>2021-09-06T12:05:03Z</time>
      </trkpt>
      <trkpt lat="44.53902" lon="5.51295">
        <ele>863.6</ele>
        <time>2021-09-06T12:05:04Z</time>
      </trkpt>
      <trkpt lat="44.539" lon="5.51297">
        <ele>863.8</ele>
        <time>2021-09-06T12:05:06Z</time>
      </trkpt>
      <trkpt lat="44.53899" lon="5.51298">
        <ele>863.4</ele>
        <time>2021-09-06T12:05:07Z</time>
      </trkpt>
      <trkpt lat="44.53898" lon="5.51298">
        <ele>863</ele>
        <time>2021-09-06T12:05:08Z</time>
      </trkpt>
      <trkpt lat="44.53897" lon="5.51297">
        <ele>863.2</ele>
        <time>2021-09-06T12:05:09Z</time>
      </trkpt>
      <trkpt lat="44.53895" lon="5.51297">
        <ele>862.8</ele>
        <time>2021-09-06T12:05:10Z</time>
      </trkpt>
      <trkpt lat="44.53893" lon="5.51296">
        <ele>863</ele>
        <time>2021-09-06T12:05:12Z</time>
      </trkpt>
      <trkpt lat="44.53892" lon="5.51298">
        <ele>862.6</ele>
        <time>2021-09-06T12:05:13Z</time>
      </trkpt>
      <trkpt lat="44.53892" lon="5.51299">
        <ele>862.2</ele>
        <time>2021-09-06T12:05:15Z</time>
      </trkpt>
      <trkpt lat="44.53891" lon="5.513">
        <ele>862.4</ele>
        <time>2021-09-06T12:05:17Z</time>
      </trkpt>
      <trkpt lat="44.5389" lon="5.51302">
        <ele>862</ele>
        <time>2021-09-06T12:05:19Z</time>
      </trkpt>
      <trkpt lat="44.53889" lon="5.51303">
        <ele>861.6</ele>
        <time>2021-09-06T12:05:20Z</time>
      </trkpt>
      <trkpt lat="44.5386" lon="5.51322">
        <ele>867.7</ele>
        <time>2021-09-06T12:05:44Z</time>
      </trkpt>
      <trkpt lat="44.53856" lon="5.5132">
        <ele>868.1</ele>
        <time>2021-09-06T12:05:45Z</time>
      </trkpt>
      <trkpt lat="44.53854" lon="5.51322">
        <ele>868.4</ele>
        <time>2021-09-06T12:05:46Z</time>
      </trkpt>
      <trkpt lat="44.53853" lon="5.51327">
        <ele>868</ele>
        <time>2021-09-06T12:05:48Z</time>
      </trkpt>
      <trkpt lat="44.53849" lon="5.51325">
        <ele>868.3</ele>
        <time>2021-09-06T12:05:49Z</time>
      </trkpt>
      <trkpt lat="44.53846" lon="5.5132">
        <ele>868.6</ele>
        <time>2021-09-06T12:05:51Z</time>
      </trkpt>
      <trkpt lat="44.53843" lon="5.51315">
        <ele>868.9</ele>
        <time>2021-09-06T12:05:52Z</time>
      </trkpt>
      <trkpt lat="44.5384" lon="5.5131">
        <ele>869.3</ele>
        <time>2021-09-06T12:05:54Z</time>
      </trkpt>
      <trkpt lat="44.53837" lon="5.51305">
        <ele>870.6</ele>
        <time>2021-09-06T12:05:55Z</time>
      </trkpt>
      <trkpt lat="44.53834" lon="5.51299">
        <ele>871.2</ele>
        <time>2021-09-06T12:07:20Z</time>
      </trkpt>
      <trkpt lat="44.5383" lon="5.51294">
        <ele>871.7</ele>
        <time>2021-09-06T12:07:21Z</time>
      </trkpt>
      <trkpt lat="44.53827" lon="5.51289">
        <ele>872.1</ele>
        <time>2021-09-06T12:07:22Z</time>
      </trkpt>
      <trkpt lat="44.53828" lon="5.51293">
        <ele>872.4</ele>
        <time>2021-09-06T12:07:23Z</time>
      </trkpt>
      <trkpt lat="44.53828" lon="5.51294">
        <ele>872.4</ele>
        <time>2021-09-06T12:07:24Z</time>
      </trkpt>
      <trkpt lat="44.53826" lon="5.51298">
        <ele>872.8</ele>
        <time>2021-09-06T12:07:26Z</time>
      </trkpt>
      <trkpt lat="44.53825" lon="5.51304">
        <ele>873.1</ele>
        <time>2021-09-06T12:07:28Z</time>
      </trkpt>
      <trkpt lat="44.53824" lon="5.51308">
        <ele>873.4</ele>
        <time>2021-09-06T12:07:29Z</time>
      </trkpt>
      <trkpt lat="44.53822" lon="5.51312">
        <ele>873.7</ele>
        <time>2021-09-06T12:07:31Z</time>
      </trkpt>
      <trkpt lat="44.53821" lon="5.51314">
        <ele>873.9</ele>
        <time>2021-09-06T12:07:32Z</time>
      </trkpt>
      <trkpt lat="44.5382" lon="5.51318">
        <ele>874.1</ele>
        <time>2021-09-06T12:07:34Z</time>
      </trkpt>
      <trkpt lat="44.5382" lon="5.51322">
        <ele>874.4</ele>
        <time>2021-09-06T12:07:35Z</time>
      </trkpt>
      <trkpt lat="44.5382" lon="5.51323">
        <ele>874.5</ele>
        <time>2021-09-06T12:07:36Z</time>
      </trkpt>
      <trkpt lat="44.53819" lon="5.51328">
        <ele>874.8</ele>
        <time>2021-09-06T12:07:37Z</time>
      </trkpt>
      <trkpt lat="44.53818" lon="5.5133">
        <ele>875</ele>
        <time>2021-09-06T12:07:38Z</time>
      </trkpt>
      <trkpt lat="44.53817" lon="5.51332">
        <ele>875.1</ele>
        <time>2021-09-06T12:07:39Z</time>
      </trkpt>
      <trkpt lat="44.53817" lon="5.51332">
        <ele>875.1</ele>
        <time>2021-09-06T12:07:40Z</time>
      </trkpt>
      <trkpt lat="44.53817" lon="5.51333">
        <ele>875.2</ele>
        <time>2021-09-06T12:07:41Z</time>
      </trkpt>
      <trkpt lat="44.53817" lon="5.51333">
        <ele>875.3</ele>
        <time>2021-09-06T12:07:43Z</time>
      </trkpt>
      <trkpt lat="44.53816" lon="5.51334">
        <ele>875.3</ele>
        <time>2021-09-06T12:07:44Z</time>
      </trkpt>
      <trkpt lat="44.53816" lon="5.51335">
        <ele>875.4</ele>
        <time>2021-09-06T12:07:45Z</time>
      </trkpt>
      <trkpt lat="44.53816" lon="5.51336">
        <ele>875.4</ele>
        <time>2021-09-06T12:07:46Z</time>
      </trkpt>
      <trkpt lat="44.53816" lon="5.51337">
        <ele>875.5</ele>
        <time>2021-09-06T12:07:47Z</time>
      </trkpt>
      <trkpt lat="44.53815" lon="5.51339">
        <ele>875.7</ele>
        <time>2021-09-06T12:07:48Z</time>
      </trkpt>
      <trkpt lat="44.53814" lon="5.5134">
        <ele>875.7</ele>
        <time>2021-09-06T12:07:49Z</time>
      </trkpt>
      <trkpt lat="44.53814" lon="5.5134">
        <ele>875.8</ele>
        <time>2021-09-06T12:07:50Z</time>
      </trkpt>
      <trkpt lat="44.53813" lon="5.5134">
        <ele>875.9</ele>
        <time>2021-09-06T12:07:52Z</time>
      </trkpt>
      <trkpt lat="44.53813" lon="5.51341">
        <ele>875.9</ele>
        <time>2021-09-06T12:07:53Z</time>
      </trkpt>
      <trkpt lat="44.53812" lon="5.51341">
        <ele>876</ele>
        <time>2021-09-06T12:07:54Z</time>
      </trkpt>
      <trkpt lat="44.53812" lon="5.51341">
        <ele>876</ele>
        <time>2021-09-06T12:07:55Z</time>
      </trkpt>
      <trkpt lat="44.53811" lon="5.51341">
        <ele>876.1</ele>
        <time>2021-09-06T12:07:56Z</time>
      </trkpt>
      <trkpt lat="44.5381" lon="5.5134">
        <ele>876.2</ele>
        <time>2021-09-06T12:07:57Z</time>
      </trkpt>
      <trkpt lat="44.53798" lon="5.51401">
        <ele>881.1</ele>
        <time>2021-09-06T12:08:51Z</time>
      </trkpt>
      <trkpt lat="44.53798" lon="5.51405">
        <ele>881.5</ele>
        <time>2021-09-06T12:08:52Z</time>
      </trkpt>
      <trkpt lat="44.53797" lon="5.51414">
        <ele>882.2</ele>
        <time>2021-09-06T12:08:54Z</time>
      </trkpt>
      <trkpt lat="44.53797" lon="5.51423">
        <ele>883</ele>
        <time>2021-09-06T12:08:56Z</time>
      </trkpt>
      <trkpt lat="44.53797" lon="5.51427">
        <ele>883.4</ele>
        <time>2021-09-06T12:08:57Z</time>
      </trkpt>
      <trkpt lat="44.53797" lon="5.51434">
        <ele>884</ele>
        <time>2021-09-06T12:08:59Z</time>
      </trkpt>
      <trkpt lat="44.53798" lon="5.51439">
        <ele>884.4</ele>
        <time>2021-09-06T12:09:01Z</time>
      </trkpt>
      <trkpt lat="44.53799" lon="5.51442">
        <ele>884.7</ele>
        <time>2021-09-06T12:09:02Z</time>
      </trkpt>
      <trkpt lat="44.53799" lon="5.51445">
        <ele>885</ele>
        <time>2021-09-06T12:09:04Z</time>
      </trkpt>
      <trkpt lat="44.53799" lon="5.51447">
        <ele>885.2</ele>
        <time>2021-09-06T12:09:05Z</time>
      </trkpt>
      <trkpt lat="44.53798" lon="5.51449">
        <ele>885.4</ele>
        <time>2021-09-06T12:09:06Z</time>
      </trkpt>
      <trkpt lat="44.53799" lon="5.51458">
        <ele>886.2</ele>
        <time>2021-09-06T12:09:07Z</time>
      </trkpt>
      <trkpt lat="44.53799" lon="5.51468">
        <ele>887.1</ele>
        <time>2021-09-06T12:09:09Z</time>
      </trkpt>
      <trkpt lat="44.538" lon="5.51477">
        <ele>888</ele>
        <time>2021-09-06T12:09:10Z</time>
      </trkpt>
      <trkpt lat="44.538" lon="5.51487">
        <ele>888.9</ele>
        <time>2021-09-06T12:09:12Z</time>
      </trkpt>
      <trkpt lat="44.538" lon="5.51497">
        <ele>889.9</ele>
        <time>2021-09-06T12:09:14Z</time>
      </trkpt>
      <trkpt lat="44.53801" lon="5.51506">
        <ele>891.6</ele>
        <time>2021-09-06T12:09:16Z</time>
      </trkpt>
      <trkpt lat="44.53801" lon="5.51516">
        <ele>891</ele>
        <time>2021-09-06T12:09:47Z</time>
      </trkpt>
      <trkpt lat="44.53801" lon="5.51525">
        <ele>890.5</ele>
        <time>2021-09-06T12:09:48Z</time>
      </trkpt>
      <trkpt lat="44.53815" lon="5.51538">
        <ele>889.8</ele>
        <time>2021-09-06T12:09:50Z</time>
      </trkpt>
      <trkpt lat="44.53823" lon="5.51549">
        <ele>889.8</ele>
        <time>2021-09-06T12:09:52Z</time>
      </trkpt>
      <trkpt lat="44.53826" lon="5.51552">
        <ele>889.8</ele>
        <time>2021-09-06T12:09:53Z</time>
      </trkpt>
      <trkpt lat="44.53827" lon="5.51551">
        <ele>889.9</ele>
        <time>2021-09-06T12:09:54Z</time>
      </trkpt>
      <trkpt lat="44.53836" lon="5.51556">
        <ele>890.1</ele>
        <time>2021-09-06T12:09:56Z</time>
      </trkpt>
      <trkpt lat="44.5384" lon="5.51561">
        <ele>890.3</ele>
        <time>2021-09-06T12:09:57Z</time>
      </trkpt>
      <trkpt lat="44.53846" lon="5.51565">
        <ele>890.4</ele>
        <time>2021-09-06T12:09:59Z</time>
      </trkpt>
      <trkpt lat="44.53851" lon="5.51572">
        <ele>890.5</ele>
        <time>2021-09-06T12:10:00Z</time>
      </trkpt>
      <trkpt lat="44.53853" lon="5.51577">
        <ele>890.6</ele>
        <time>2021-09-06T12:10:01Z</time>
      </trkpt>
      <trkpt lat="44.53856" lon="5.51581">
        <ele>890.7</ele>
        <time>2021-09-06T12:10:02Z</time>
      </trkpt>
      <trkpt lat="44.53861" lon="5.51586">
        <ele>890.8</ele>
        <time>2021-09-06T12:10:03Z</time>
      </trkpt>
      <trkpt lat="44.53865" lon="5.51589">
        <ele>890.9</ele>
        <time>2021-09-06T12:10:05Z</time>
      </trkpt>
      <trkpt lat="44.53868" lon="5.51592">
        <ele>891</ele>
        <time>2021-09-06T12:10:06Z</time>
      </trkpt>
      <trkpt lat="44.53873" lon="5.51596">
        <ele>891.2</ele>
        <time>2021-09-06T12:10:08Z</time>
      </trkpt>
      <trkpt lat="44.53876" lon="5.516">
        <ele>891.4</ele>
        <time>2021-09-06T12:10:09Z</time>
      </trkpt>
      <trkpt lat="44.53881" lon="5.51607">
        <ele>891.8</ele>
        <time>2021-09-06T12:10:11Z</time>
      </trkpt>
      <trkpt lat="44.53884" lon="5.5161">
        <ele>892.1</ele>
        <time>2021-09-06T12:10:12Z</time>
      </trkpt>
      <trkpt lat="44.53885" lon="5.51611">
        <ele>892.2</ele>
        <time>2021-09-06T12:10:13Z</time>
      </trkpt>
      <trkpt lat="44.53887" lon="5.51614">
        <ele>892.4</ele>
        <time>2021-09-06T12:10:15Z</time>
      </trkpt>
      <trkpt lat="44.53888" lon="5.51614">
        <ele>892.6</ele>
        <time>2021-09-06T12:10:16Z</time>
      </trkpt>
      <trkpt lat="44.53891" lon="5.51614">
        <ele>892.8</ele>
        <time>2021-09-06T12:10:18Z</time>
      </trkpt>
      <trkpt lat="44.53892" lon="5.51614">
        <ele>893</ele>
        <time>2021-09-06T12:10:19Z</time>
      </trkpt>
      <trkpt lat="44.53894" lon="5.51616">
        <ele>893.2</ele>
        <time>2021-09-06T12:10:20Z</time>
      </trkpt>
      <trkpt lat="44.53898" lon="5.51618">
        <ele>893.8</ele>
        <time>2021-09-06T12:10:22Z</time>
      </trkpt>
      <trkpt lat="44.53901" lon="5.51621">
        <ele>894.2</ele>
        <time>2021-09-06T12:10:23Z</time>
      </trkpt>
      <trkpt lat="44.53902" lon="5.51623">
        <ele>894.4</ele>
        <time>2021-09-06T12:10:24Z</time>
      </trkpt>
      <trkpt lat="44.53904" lon="5.51626">
        <ele>894.7</ele>
        <time>2021-09-06T12:10:25Z</time>
      </trkpt>
      <trkpt lat="44.53906" lon="5.51631">
        <ele>895.3</ele>
        <time>2021-09-06T12:10:27Z</time>
      </trkpt>
      <trkpt lat="44.53908" lon="5.51635">
        <ele>895.6</ele>
        <time>2021-09-06T12:10:28Z</time>
      </trkpt>
      <trkpt lat="44.53909" lon="5.51636">
        <ele>895.8</ele>
        <time>2021-09-06T12:10:29Z</time>
      </trkpt>
      <trkpt lat="44.53909" lon="5.51637">
        <ele>895.9</ele>
        <time>2021-09-06T12:10:30Z</time>
      </trkpt>
      <trkpt lat="44.5391" lon="5.51636">
        <ele>896</ele>
        <time>2021-09-06T12:10:31Z</time>
      </trkpt>
      <trkpt lat="44.53911" lon="5.51636">
        <ele>896.1</ele>
        <time>2021-09-06T12:10:32Z</time>
      </trkpt>
      <trkpt lat="44.53911" lon="5.51635">
        <ele>896.1</ele>
        <time>2021-09-06T12:10:33Z</time>
      </trkpt>
      <trkpt lat="44.53913" lon="5.51635">
        <ele>896.3</ele>
        <time>2021-09-06T12:10:35Z</time>
      </trkpt>
      <trkpt lat="44.53914" lon="5.51636">
        <ele>896.4</ele>
        <time>2021-09-06T12:10:36Z</time>
      </trkpt>
      <trkpt lat="44.53915" lon="5.51636">
        <ele>896.5</ele>
        <time>2021-09-06T12:10:38Z</time>
      </trkpt>
      <trkpt lat="44.53916" lon="5.51637">
        <ele>896.6</ele>
        <time>2021-09-06T12:10:39Z</time>
      </trkpt>
      <trkpt lat="44.53916" lon="5.51638">
        <ele>896.7</ele>
        <time>2021-09-06T12:10:40Z</time>
      </trkpt>
      <trkpt lat="44.53917" lon="5.51638">
        <ele>896.8</ele>
        <time>2021-09-06T12:10:41Z</time>
      </trkpt>
      <trkpt lat="44.53962" lon="5.51726">
        <ele>902.5</ele>
        <time>2021-09-06T12:11:39Z</time>
      </trkpt>
      <trkpt lat="44.53962" lon="5.5173">
        <ele>902.8</ele>
        <time>2021-09-06T12:11:40Z</time>
      </trkpt>
      <trkpt lat="44.53961" lon="5.51732">
        <ele>902.9</ele>
        <time>2021-09-06T12:11:41Z</time>
      </trkpt>
      <trkpt lat="44.5396" lon="5.51735">
        <ele>903.2</ele>
        <time>2021-09-06T12:11:43Z</time>
      </trkpt>
      <trkpt lat="44.53959" lon="5.51736">
        <ele>903.3</ele>
        <time>2021-09-06T12:11:44Z</time>
      </trkpt>
      <trkpt lat="44.53958" lon="5.51737">
        <ele>903.4</ele>
        <time>2021-09-06T12:11:45Z</time>
      </trkpt>
      <trkpt lat="44.53958" lon="5.51738">
        <ele>903.5</ele>
        <time>2021-09-06T12:11:46Z</time>
      </trkpt>
      <trkpt lat="44.53957" lon="5.51739">
        <ele>903.6</ele>
        <time>2021-09-06T12:11:47Z</time>
      </trkpt>
      <trkpt lat="44.53957" lon="5.5174">
        <ele>903.7</ele>
        <time>2021-09-06T12:11:49Z</time>
      </trkpt>
      <trkpt lat="44.53956" lon="5.51742">
        <ele>903.8</ele>
        <time>2021-09-06T12:11:50Z</time>
      </trkpt>
      <trkpt lat="44.53955" lon="5.51744">
        <ele>904</ele>
        <time>2021-09-06T12:11:51Z</time>
      </trkpt>
      <trkpt lat="44.53953" lon="5.5176">
        <ele>905</ele>
        <time>2021-09-06T12:11:55Z</time>
      </trkpt>
      <trkpt lat="44.53954" lon="5.51766">
        <ele>905.4</ele>
        <time>2021-09-06T12:11:56Z</time>
      </trkpt>
      <trkpt lat="44.53955" lon="5.51773">
        <ele>905.9</ele>
        <time>2021-09-06T12:11:57Z</time>
      </trkpt>
      <trkpt lat="44.53956" lon="5.51781">
        <ele>906.5</ele>
        <time>2021-09-06T12:11:58Z</time>
      </trkpt>
      <trkpt lat="44.53957" lon="5.51786">
        <ele>907</ele>
        <time>2021-09-06T12:11:59Z</time>
      </trkpt>
      <trkpt lat="44.53957" lon="5.51787">
        <ele>907.1</ele>
        <time>2021-09-06T12:12:00Z</time>
      </trkpt>
      <trkpt lat="44.53957" lon="5.51787">
        <ele>907.1</ele>
        <time>2021-09-06T12:12:01Z</time>
      </trkpt>
      <trkpt lat="44.53957" lon="5.51788">
        <ele>907.1</ele>
        <time>2021-09-06T12:12:03Z</time>
      </trkpt>
      <trkpt lat="44.53957" lon="5.51788">
        <ele>907.1</ele>
        <time>2021-09-06T12:12:04Z</time>
      </trkpt>
      <trkpt lat="44.53958" lon="5.51788">
        <ele>907.2</ele>
        <time>2021-09-06T12:12:05Z</time>
      </trkpt>
      <trkpt lat="44.53958" lon="5.51789">
        <ele>907.3</ele>
        <time>2021-09-06T12:12:06Z</time>
      </trkpt>
      <trkpt lat="44.53981" lon="5.51886">
        <ele>914.2</ele>
        <time>2021-09-06T12:15:04Z</time>
      </trkpt>
      <trkpt lat="44.53982" lon="5.51889">
        <ele>914.4</ele>
        <time>2021-09-06T12:15:05Z</time>
      </trkpt>
      <trkpt lat="44.53984" lon="5.51892">
        <ele>914.6</ele>
        <time>2021-09-06T12:15:07Z</time>
      </trkpt>
      <trkpt lat="44.53986" lon="5.51893">
        <ele>914.9</ele>
        <time>2021-09-06T12:15:08Z</time>
      </trkpt>
      <trkpt lat="44.53986" lon="5.51893">
        <ele>914.9</ele>
        <time>2021-09-06T12:15:09Z</time>
      </trkpt>
      <trkpt lat="44.53986" lon="5.51894">
        <ele>914.9</ele>
        <time>2021-09-06T12:15:10Z</time>
      </trkpt>
      <trkpt lat="44.53986" lon="5.51894">
        <ele>914.9</ele>
        <time>2021-09-06T12:15:12Z</time>
      </trkpt>
      <trkpt lat="44.53986" lon="5.51894">
        <ele>914.9</ele>
        <time>2021-09-06T12:15:14Z</time>
      </trkpt>
      <trkpt lat="44.53986" lon="5.51895">
        <ele>915</ele>
        <time>2021-09-06T12:15:16Z</time>
      </trkpt>
      <trkpt lat="44.53979" lon="5.51923">
        <ele>916.7</ele>
        <time>2021-09-06T12:15:33Z</time>
      </trkpt>
      <trkpt lat="44.53979" lon="5.51928">
        <ele>916.9</ele>
        <time>2021-09-06T12:15:34Z</time>
      </trkpt>
      <trkpt lat="44.53978" lon="5.51934">
        <ele>917.2</ele>
        <time>2021-09-06T12:15:35Z</time>
      </trkpt>
      <trkpt lat="44.53979" lon="5.51946">
        <ele>917.8</ele>
        <time>2021-09-06T12:15:37Z</time>
      </trkpt>
      <trkpt lat="44.5398" lon="5.51953">
        <ele>918.1</ele>
        <time>2021-09-06T12:15:38Z</time>
      </trkpt>
      <trkpt lat="44.53981" lon="5.5196">
        <ele>918.4</ele>
        <time>2021-09-06T12:15:39Z</time>
      </trkpt>
      <trkpt lat="44.53982" lon="5.51968">
        <ele>918.6</ele>
        <time>2021-09-06T12:15:41Z</time>
      </trkpt>
      <trkpt lat="44.53982" lon="5.5197">
        <ele>918.7</ele>
        <time>2021-09-06T12:15:43Z</time>
      </trkpt>
      <trkpt lat="44.53982" lon="5.5197">
        <ele>918.7</ele>
        <time>2021-09-06T12:15:44Z</time>
      </trkpt>
      <trkpt lat="44.53981" lon="5.51971">
        <ele>918.7</ele>
        <time>2021-09-06T12:15:46Z</time>
      </trkpt>
      <trkpt lat="44.53981" lon="5.51972">
        <ele>918.8</ele>
        <time>2021-09-06T12:15:47Z</time>
      </trkpt>
      <trkpt lat="44.53981" lon="5.51973">
        <ele>918.8</ele>
        <time>2021-09-06T12:15:49Z</time>
      </trkpt>
      <trkpt lat="44.5398" lon="5.51975">
        <ele>918.9</ele>
        <time>2021-09-06T12:15:51Z</time>
      </trkpt>
      <trkpt lat="44.53976" lon="5.51987">
        <ele>919.3</ele>
        <time>2021-09-06T12:15:56Z</time>
      </trkpt>
      <trkpt lat="44.53976" lon="5.51991">
        <ele>919.5</ele>
        <time>2021-09-06T12:15:57Z</time>
      </trkpt>
      <trkpt lat="44.53976" lon="5.51993">
        <ele>919.5</ele>
        <time>2021-09-06T12:15:58Z</time>
      </trkpt>
      <trkpt lat="44.53975" lon="5.51995">
        <ele>919.6</ele>
        <time>2021-09-06T12:15:59Z</time>
      </trkpt>
      <trkpt lat="44.53974" lon="5.52">
        <ele>919.8</ele>
        <time>2021-09-06T12:16:00Z</time>
      </trkpt>
      <trkpt lat="44.53973" lon="5.52001">
        <ele>919.9</ele>
        <time>2021-09-06T12:16:01Z</time>
      </trkpt>
      <trkpt lat="44.53973" lon="5.52004">
        <ele>920.1</ele>
        <time>2021-09-06T12:16:03Z</time>
      </trkpt>
      <trkpt lat="44.53974" lon="5.52006">
        <ele>920.2</ele>
        <time>2021-09-06T12:16:05Z</time>
      </trkpt>
      <trkpt lat="44.53974" lon="5.52007">
        <ele>920.2</ele>
        <time>2021-09-06T12:16:06Z</time>
      </trkpt>
      <trkpt lat="44.53975" lon="5.52009">
        <ele>920.3</ele>
        <time>2021-09-06T12:16:08Z</time>
      </trkpt>
      <trkpt lat="44.53975" lon="5.5201">
        <ele>920.4</ele>
        <time>2021-09-06T12:16:09Z</time>
      </trkpt>
      <trkpt lat="44.53976" lon="5.52014">
        <ele>920.7</ele>
        <time>2021-09-06T12:16:11Z</time>
      </trkpt>
      <trkpt lat="44.53976" lon="5.52015">
        <ele>920.7</ele>
        <time>2021-09-06T12:16:12Z</time>
      </trkpt>
      <trkpt lat="44.53977" lon="5.52017">
        <ele>920.8</ele>
        <time>2021-09-06T12:16:13Z</time>
      </trkpt>
      <trkpt lat="44.53998" lon="5.52034">
        <ele>923.1</ele>
        <time>2021-09-06T12:16:35Z</time>
      </trkpt>
      <trkpt lat="44.54" lon="5.52036">
        <ele>923.2</ele>
        <time>2021-09-06T12:16:36Z</time>
      </trkpt>
      <trkpt lat="44.54001" lon="5.52038">
        <ele>923.3</ele>
        <time>2021-09-06T12:16:37Z</time>
      </trkpt>
      <trkpt lat="44.54002" lon="5.52039">
        <ele>923.5</ele>
        <time>2021-09-06T12:16:38Z</time>
      </trkpt>
      <trkpt lat="44.54003" lon="5.52041">
        <ele>923.6</ele>
        <time>2021-09-06T12:16:39Z</time>
      </trkpt>
      <trkpt lat="44.54004" lon="5.52042">
        <ele>923.7</ele>
        <time>2021-09-06T12:16:40Z</time>
      </trkpt>
      <trkpt lat="44.54006" lon="5.52043">
        <ele>923.9</ele>
        <time>2021-09-06T12:16:42Z</time>
      </trkpt>
      <trkpt lat="44.54007" lon="5.52045">
        <ele>924</ele>
        <time>2021-09-06T12:16:43Z</time>
      </trkpt>
      <trkpt lat="44.54007" lon="5.52047">
        <ele>924.2</ele>
        <time>2021-09-06T12:16:44Z</time>
      </trkpt>
      <trkpt lat="44.54008" lon="5.5205">
        <ele>924.3</ele>
        <time>2021-09-06T12:16:45Z</time>
      </trkpt>
      <trkpt lat="44.54009" lon="5.52052">
        <ele>924.5</ele>
        <time>2021-09-06T12:16:46Z</time>
      </trkpt>
      <trkpt lat="44.54012" lon="5.52057">
        <ele>924.9</ele>
        <time>2021-09-06T12:16:48Z</time>
      </trkpt>
      <trkpt lat="44.54012" lon="5.52059">
        <ele>925</ele>
        <time>2021-09-06T12:16:49Z</time>
      </trkpt>
      <trkpt lat="44.54013" lon="5.52061">
        <ele>925.1</ele>
        <time>2021-09-06T12:16:50Z</time>
      </trkpt>
      <trkpt lat="44.54015" lon="5.52065">
        <ele>925.4</ele>
        <time>2021-09-06T12:16:52Z</time>
      </trkpt>
      <trkpt lat="44.54016" lon="5.52068">
        <ele>925.7</ele>
        <time>2021-09-06T12:16:53Z</time>
      </trkpt>
      <trkpt lat="44.54018" lon="5.52073">
        <ele>926</ele>
        <time>2021-09-06T12:16:55Z</time>
      </trkpt>
      <trkpt lat="44.54018" lon="5.52075">
        <ele>926.1</ele>
        <time>2021-09-06T12:16:56Z</time>
      </trkpt>
      <trkpt lat="44.54019" lon="5.52079">
        <ele>926.4</ele>
        <time>2021-09-06T12:16:58Z</time>
      </trkpt>
      <trkpt lat="44.54019" lon="5.52081">
        <ele>926.5</ele>
        <time>2021-09-06T12:16:59Z</time>
      </trkpt>
      <trkpt lat="44.54019" lon="5.52083">
        <ele>926.6</ele>
        <time>2021-09-06T12:17:00Z</time>
      </trkpt>
      <trkpt lat="44.5402" lon="5.52085">
        <ele>926.7</ele>
        <time>2021-09-06T12:17:02Z</time>
      </trkpt>
      <trkpt lat="44.5402" lon="5.52088">
        <ele>926.9</ele>
        <time>2021-09-06T12:17:04Z</time>
      </trkpt>
      <trkpt lat="44.5402" lon="5.52089">
        <ele>927</ele>
        <time>2021-09-06T12:17:05Z</time>
      </trkpt>
      <trkpt lat="44.5402" lon="5.5209">
        <ele>927</ele>
        <time>2021-09-06T12:17:06Z</time>
      </trkpt>
      <trkpt lat="44.54021" lon="5.52092">
        <ele>927.2</ele>
        <time>2021-09-06T12:17:08Z</time>
      </trkpt>
      <trkpt lat="44.54021" lon="5.52097">
        <ele>927.4</ele>
        <time>2021-09-06T12:17:10Z</time>
      </trkpt>
      <trkpt lat="44.54022" lon="5.52099">
        <ele>927.6</ele>
        <time>2021-09-06T12:17:11Z</time>
      </trkpt>
      <trkpt lat="44.54023" lon="5.52108">
        <ele>928.1</ele>
        <time>2021-09-06T12:17:13Z</time>
      </trkpt>
      <trkpt lat="44.54026" lon="5.52116">
        <ele>928.6</ele>
        <time>2021-09-06T12:17:15Z</time>
      </trkpt>
      <trkpt lat="44.54027" lon="5.52122">
        <ele>928.9</ele>
        <time>2021-09-06T12:17:16Z</time>
      </trkpt>
      <trkpt lat="44.54028" lon="5.52127">
        <ele>929.2</ele>
        <time>2021-09-06T12:17:18Z</time>
      </trkpt>
      <trkpt lat="44.54029" lon="5.52131">
        <ele>929.4</ele>
        <time>2021-09-06T12:17:19Z</time>
      </trkpt>
      <trkpt lat="44.54029" lon="5.52132">
        <ele>929.4</ele>
        <time>2021-09-06T12:17:20Z</time>
      </trkpt>
      <trkpt lat="44.54029" lon="5.52136">
        <ele>929.6</ele>
        <time>2021-09-06T12:17:21Z</time>
      </trkpt>
      <trkpt lat="44.54029" lon="5.52138">
        <ele>929.6</ele>
        <time>2021-09-06T12:17:22Z</time>
      </trkpt>
      <trkpt lat="44.54029" lon="5.52142">
        <ele>929.8</ele>
        <time>2021-09-06T12:17:23Z</time>
      </trkpt>
      <trkpt lat="44.54031" lon="5.52146">
        <ele>930</ele>
        <time>2021-09-06T12:17:25Z</time>
      </trkpt>
      <trkpt lat="44.54031" lon="5.52147">
        <ele>930.1</ele>
        <time>2021-09-06T12:17:26Z</time>
      </trkpt>
      <trkpt lat="44.54033" lon="5.52147">
        <ele>930.2</ele>
        <time>2021-09-06T12:17:27Z</time>
      </trkpt>
      <trkpt lat="44.54034" lon="5.52147">
        <ele>930.3</ele>
        <time>2021-09-06T12:17:28Z</time>
      </trkpt>
      <trkpt lat="44.54035" lon="5.52147">
        <ele>930.3</ele>
        <time>2021-09-06T12:17:29Z</time>
      </trkpt>
      <trkpt lat="44.54036" lon="5.52145">
        <ele>930.4</ele>
        <time>2021-09-06T12:17:31Z</time>
      </trkpt>
      <trkpt lat="44.54037" lon="5.52145">
        <ele>930.4</ele>
        <time>2021-09-06T12:17:32Z</time>
      </trkpt>
      <trkpt lat="44.54039" lon="5.52149">
        <ele>930.7</ele>
        <time>2021-09-06T12:17:34Z</time>
      </trkpt>
      <trkpt lat="44.54039" lon="5.52155">
        <ele>930.9</ele>
        <time>2021-09-06T12:17:35Z</time>
      </trkpt>
      <trkpt lat="44.54038" lon="5.52158">
        <ele>931.1</ele>
        <time>2021-09-06T12:17:36Z</time>
      </trkpt>
      <trkpt lat="44.54038" lon="5.52161">
        <ele>931.3</ele>
        <time>2021-09-06T12:17:38Z</time>
      </trkpt>
      <trkpt lat="44.54036" lon="5.52163">
        <ele>931.4</ele>
        <time>2021-09-06T12:17:39Z</time>
      </trkpt>
      <trkpt lat="44.54035" lon="5.52165">
        <ele>931.5</ele>
        <time>2021-09-06T12:17:40Z</time>
      </trkpt>
      <trkpt lat="44.54034" lon="5.52167">
        <ele>931.7</ele>
        <time>2021-09-06T12:17:41Z</time>
      </trkpt>
      <trkpt lat="44.54034" lon="5.52169">
        <ele>931.8</ele>
        <time>2021-09-06T12:17:42Z</time>
      </trkpt>
      <trkpt lat="44.54034" lon="5.52175">
        <ele>932.2</ele>
        <time>2021-09-06T12:17:44Z</time>
      </trkpt>
      <trkpt lat="44.54034" lon="5.52176">
        <ele>932.3</ele>
        <time>2021-09-06T12:17:45Z</time>
      </trkpt>
      <trkpt lat="44.54035" lon="5.52178">
        <ele>932.4</ele>
        <time>2021-09-06T12:17:46Z</time>
      </trkpt>
      <trkpt lat="44.54035" lon="5.52179">
        <ele>932.5</ele>
        <time>2021-09-06T12:17:47Z</time>
      </trkpt>
      <trkpt lat="44.54038" lon="5.52181">
        <ele>932.8</ele>
        <time>2021-09-06T12:17:48Z</time>
      </trkpt>
      <trkpt lat="44.54039" lon="5.52182">
        <ele>932.9</ele>
        <time>2021-09-06T12:17:49Z</time>
      </trkpt>
      <trkpt lat="44.54041" lon="5.52185">
        <ele>933.1</ele>
        <time>2021-09-06T12:17:50Z</time>
      </trkpt>
      <trkpt lat="44.54044" lon="5.52193">
        <ele>933.6</ele>
        <time>2021-09-06T12:17:52Z</time>
      </trkpt>
      <trkpt lat="44.54046" lon="5.52201">
        <ele>934</ele>
        <time>2021-09-06T12:17:54Z</time>
      </trkpt>
      <trkpt lat="44.54048" lon="5.52208">
        <ele>934.4</ele>
        <time>2021-09-06T12:17:56Z</time>
      </trkpt>
      <trkpt lat="44.54046" lon="5.52208">
        <ele>934.5</ele>
        <time>2021-09-06T12:17:58Z</time>
      </trkpt>
      <trkpt lat="44.54045" lon="5.52208">
        <ele>934.6</ele>
        <time>2021-09-06T12:17:59Z</time>
      </trkpt>
      <trkpt lat="44.54041" lon="5.52208">
        <ele>934.8</ele>
        <time>2021-09-06T12:18:01Z</time>
      </trkpt>
      <trkpt lat="44.5404" lon="5.52208">
        <ele>934.9</ele>
        <time>2021-09-06T12:18:02Z</time>
      </trkpt>
      <trkpt lat="44.54037" lon="5.52207">
        <ele>935.1</ele>
        <time>2021-09-06T12:18:03Z</time>
      </trkpt>
      <trkpt lat="44.54035" lon="5.52208">
        <ele>935.3</ele>
        <time>2021-09-06T12:18:05Z</time>
      </trkpt>
      <trkpt lat="44.54038" lon="5.5224">
        <ele>936.8</ele>
        <time>2021-09-06T12:18:25Z</time>
      </trkpt>
      <trkpt lat="44.54042" lon="5.52247">
        <ele>937.2</ele>
        <time>2021-09-06T12:18:27Z</time>
      </trkpt>
      <trkpt lat="44.54046" lon="5.52254">
        <ele>937.6</ele>
        <time>2021-09-06T12:18:28Z</time>
      </trkpt>
      <trkpt lat="44.54048" lon="5.52259">
        <ele>937.9</ele>
        <time>2021-09-06T12:18:30Z</time>
      </trkpt>
      <trkpt lat="44.5405" lon="5.52263">
        <ele>938.1</ele>
        <time>2021-09-06T12:18:31Z</time>
      </trkpt>
      <trkpt lat="44.54051" lon="5.52267">
        <ele>938.4</ele>
        <time>2021-09-06T12:18:32Z</time>
      </trkpt>
      <trkpt lat="44.54054" lon="5.5227">
        <ele>938.7</ele>
        <time>2021-09-06T12:18:33Z</time>
      </trkpt>
      <trkpt lat="44.54055" lon="5.52271">
        <ele>938.8</ele>
        <time>2021-09-06T12:18:34Z</time>
      </trkpt>
      <trkpt lat="44.54056" lon="5.52274">
        <ele>939</ele>
        <time>2021-09-06T12:18:35Z</time>
      </trkpt>
      <trkpt lat="44.54056" lon="5.52275">
        <ele>939.1</ele>
        <time>2021-09-06T12:18:36Z</time>
      </trkpt>
      <trkpt lat="44.54057" lon="5.52277">
        <ele>939.2</ele>
        <time>2021-09-06T12:18:37Z</time>
      </trkpt>
      <trkpt lat="44.54057" lon="5.52279">
        <ele>939.3</ele>
        <time>2021-09-06T12:18:39Z</time>
      </trkpt>
      <trkpt lat="44.54059" lon="5.52284">
        <ele>939.7</ele>
        <time>2021-09-06T12:18:41Z</time>
      </trkpt>
      <trkpt lat="44.54062" lon="5.52289">
        <ele>940</ele>
        <time>2021-09-06T12:18:42Z</time>
      </trkpt>
      <trkpt lat="44.54063" lon="5.52291">
        <ele>940.2</ele>
        <time>2021-09-06T12:18:43Z</time>
      </trkpt>
      <trkpt lat="44.54065" lon="5.52295">
        <ele>940.4</ele>
        <time>2021-09-06T12:18:45Z</time>
      </trkpt>
      <trkpt lat="44.54065" lon="5.52296">
        <ele>940.5</ele>
        <time>2021-09-06T12:18:46Z</time>
      </trkpt>
      <trkpt lat="44.54067" lon="5.52298">
        <ele>940.6</ele>
        <time>2021-09-06T12:18:47Z</time>
      </trkpt>
      <trkpt lat="44.54068" lon="5.52303">
        <ele>940.8</ele>
        <time>2021-09-06T12:18:49Z</time>
      </trkpt>
      <trkpt lat="44.54068" lon="5.52305">
        <ele>941</ele>
        <time>2021-09-06T12:18:50Z</time>
      </trkpt>
      <trkpt lat="44.54069" lon="5.52306">
        <ele>941.1</ele>
        <time>2021-09-06T12:18:51Z</time>
      </trkpt>
      <trkpt lat="44.5407" lon="5.5231">
        <ele>941.3</ele>
        <time>2021-09-06T12:18:52Z</time>
      </trkpt>
      <trkpt lat="44.5407" lon="5.52312">
        <ele>941.3</ele>
        <time>2021-09-06T12:18:53Z</time>
      </trkpt>
      <trkpt lat="44.54069" lon="5.52313">
        <ele>941.4</ele>
        <time>2021-09-06T12:18:54Z</time>
      </trkpt>
      <trkpt lat="44.54069" lon="5.52315">
        <ele>941.5</ele>
        <time>2021-09-06T12:18:55Z</time>
      </trkpt>
      <trkpt lat="44.54069" lon="5.52315">
        <ele>941.5</ele>
        <time>2021-09-06T12:18:56Z</time>
      </trkpt>
      <trkpt lat="44.54067" lon="5.52318">
        <ele>941.7</ele>
        <time>2021-09-06T12:18:58Z</time>
      </trkpt>
      <trkpt lat="44.54067" lon="5.5232">
        <ele>941.8</ele>
        <time>2021-09-06T12:19:00Z</time>
      </trkpt>
      <trkpt lat="44.54066" lon="5.52323">
        <ele>942</ele>
        <time>2021-09-06T12:19:01Z</time>
      </trkpt>
      <trkpt lat="44.54066" lon="5.52325">
        <ele>942.1</ele>
        <time>2021-09-06T12:19:02Z</time>
      </trkpt>
      <trkpt lat="44.54067" lon="5.5233">
        <ele>942.3</ele>
        <time>2021-09-06T12:19:03Z</time>
      </trkpt>
      <trkpt lat="44.54067" lon="5.52331">
        <ele>942.4</ele>
        <time>2021-09-06T12:19:04Z</time>
      </trkpt>
      <trkpt lat="44.54067" lon="5.52334">
        <ele>942.6</ele>
        <time>2021-09-06T12:19:05Z</time>
      </trkpt>
      <trkpt lat="44.54067" lon="5.52336">
        <ele>942.6</ele>
        <time>2021-09-06T12:19:07Z</time>
      </trkpt>
      <trkpt lat="44.54067" lon="5.52338">
        <ele>942.7</ele>
        <time>2021-09-06T12:19:08Z</time>
      </trkpt>
      <trkpt lat="44.54067" lon="5.52339">
        <ele>942.8</ele>
        <time>2021-09-06T12:19:10Z</time>
      </trkpt>
      <trkpt lat="44.54066" lon="5.5234">
        <ele>942.8</ele>
        <time>2021-09-06T12:19:11Z</time>
      </trkpt>
      <trkpt lat="44.54064" lon="5.52341">
        <ele>943</ele>
        <time>2021-09-06T12:19:12Z</time>
      </trkpt>
      <trkpt lat="44.54063" lon="5.52342">
        <ele>943</ele>
        <time>2021-09-06T12:19:13Z</time>
      </trkpt>
      <trkpt lat="44.54062" lon="5.52343">
        <ele>943.2</ele>
        <time>2021-09-06T12:19:14Z</time>
      </trkpt>
      <trkpt lat="44.54061" lon="5.52344">
        <ele>943.2</ele>
        <time>2021-09-06T12:19:15Z</time>
      </trkpt>
      <trkpt lat="44.5406" lon="5.52344">
        <ele>943.3</ele>
        <time>2021-09-06T12:19:16Z</time>
      </trkpt>
      <trkpt lat="44.54059" lon="5.52345">
        <ele>943.4</ele>
        <time>2021-09-06T12:19:17Z</time>
      </trkpt>
      <trkpt lat="44.54057" lon="5.52346">
        <ele>943.5</ele>
        <time>2021-09-06T12:19:18Z</time>
      </trkpt>
      <trkpt lat="44.54057" lon="5.52348">
        <ele>943.6</ele>
        <time>2021-09-06T12:19:19Z</time>
      </trkpt>
      <trkpt lat="44.54056" lon="5.52351">
        <ele>943.7</ele>
        <time>2021-09-06T12:19:21Z</time>
      </trkpt>
      <trkpt lat="44.54055" lon="5.52352">
        <ele>943.8</ele>
        <time>2021-09-06T12:19:22Z</time>
      </trkpt>
      <trkpt lat="44.54054" lon="5.52353">
        <ele>943.8</ele>
        <time>2021-09-06T12:19:23Z</time>
      </trkpt>
      <trkpt lat="44.54053" lon="5.52354">
        <ele>943.9</ele>
        <time>2021-09-06T12:19:24Z</time>
      </trkpt>
      <trkpt lat="44.54051" lon="5.52356">
        <ele>944</ele>
        <time>2021-09-06T12:19:26Z</time>
      </trkpt>
      <trkpt lat="44.5405" lon="5.52359">
        <ele>944.2</ele>
        <time>2021-09-06T12:19:27Z</time>
      </trkpt>
      <trkpt lat="44.54049" lon="5.52361">
        <ele>944.3</ele>
        <time>2021-09-06T12:19:28Z</time>
      </trkpt>
      <trkpt lat="44.5405" lon="5.52361">
        <ele>944.3</ele>
        <time>2021-09-06T12:19:29Z</time>
      </trkpt>
      <trkpt lat="44.5405" lon="5.52362">
        <ele>944.4</ele>
        <time>2021-09-06T12:19:31Z</time>
      </trkpt>
      <trkpt lat="44.54051" lon="5.52362">
        <ele>944.4</ele>
        <time>2021-09-06T12:19:32Z</time>
      </trkpt>
      <trkpt lat="44.54051" lon="5.52362">
        <ele>944.4</ele>
        <time>2021-09-06T12:19:33Z</time>
      </trkpt>
      <trkpt lat="44.54051" lon="5.52362">
        <ele>944.4</ele>
        <time>2021-09-06T12:19:35Z</time>
      </trkpt>
      <trkpt lat="44.54051" lon="5.52362">
        <ele>944.4</ele>
        <time>2021-09-06T12:19:37Z</time>
      </trkpt>
      <trkpt lat="44.54051" lon="5.52362">
        <ele>944.4</ele>
        <time>2021-09-06T12:19:38Z</time>
      </trkpt>
      <trkpt lat="44.5404" lon="5.52369">
        <ele>945.2</ele>
        <time>2021-09-06T12:20:58Z</time>
      </trkpt>
      <trkpt lat="44.54039" lon="5.52371">
        <ele>945.4</ele>
        <time>2021-09-06T12:20:59Z</time>
      </trkpt>
      <trkpt lat="44.54038" lon="5.52371">
        <ele>945.4</ele>
        <time>2021-09-06T12:21:00Z</time>
      </trkpt>
      <trkpt lat="44.54037" lon="5.52374">
        <ele>945.6</ele>
        <time>2021-09-06T12:21:02Z</time>
      </trkpt>
      <trkpt lat="44.54035" lon="5.52378">
        <ele>945.8</ele>
        <time>2021-09-06T12:21:03Z</time>
      </trkpt>
      <trkpt lat="44.54034" lon="5.52379">
        <ele>946</ele>
        <time>2021-09-06T12:21:04Z</time>
      </trkpt>
      <trkpt lat="44.54032" lon="5.52382">
        <ele>946.2</ele>
        <time>2021-09-06T12:21:06Z</time>
      </trkpt>
      <trkpt lat="44.54031" lon="5.52383">
        <ele>946.3</ele>
        <time>2021-09-06T12:21:07Z</time>
      </trkpt>
      <trkpt lat="44.54031" lon="5.52385">
        <ele>946.4</ele>
        <time>2021-09-06T12:21:09Z</time>
      </trkpt>
      <trkpt lat="44.54031" lon="5.52386">
        <ele>946.4</ele>
        <time>2021-09-06T12:21:10Z</time>
      </trkpt>
      <trkpt lat="44.54031" lon="5.52386">
        <ele>946.5</ele>
        <time>2021-09-06T12:21:12Z</time>
      </trkpt>
      <trkpt lat="44.5403" lon="5.52388">
        <ele>946.6</ele>
        <time>2021-09-06T12:21:13Z</time>
      </trkpt>
      <trkpt lat="44.5403" lon="5.5239">
        <ele>946.7</ele>
        <time>2021-09-06T12:21:14Z</time>
      </trkpt>
      <trkpt lat="44.54029" lon="5.52392">
        <ele>946.9</ele>
        <time>2021-09-06T12:21:15Z</time>
      </trkpt>
      <trkpt lat="44.54028" lon="5.52395">
        <ele>947.1</ele>
        <time>2021-09-06T12:21:17Z</time>
      </trkpt>
      <trkpt lat="44.54028" lon="5.52397">
        <ele>947.2</ele>
        <time>2021-09-06T12:21:18Z</time>
      </trkpt>
      <trkpt lat="44.54028" lon="5.52398">
        <ele>947.3</ele>
        <time>2021-09-06T12:21:19Z</time>
      </trkpt>
      <trkpt lat="44.54028" lon="5.52398">
        <ele>947.3</ele>
        <time>2021-09-06T12:21:21Z</time>
      </trkpt>
      <trkpt lat="44.54028" lon="5.524">
        <ele>947.5</ele>
        <time>2021-09-06T12:21:22Z</time>
      </trkpt>
      <trkpt lat="44.54028" lon="5.52401">
        <ele>947.5</ele>
        <time>2021-09-06T12:21:23Z</time>
      </trkpt>
      <trkpt lat="44.54028" lon="5.52401">
        <ele>947.5</ele>
        <time>2021-09-06T12:21:25Z</time>
      </trkpt>
      <trkpt lat="44.54028" lon="5.52402">
        <ele>947.6</ele>
        <time>2021-09-06T12:21:26Z</time>
      </trkpt>
      <trkpt lat="44.54028" lon="5.52402">
        <ele>947.6</ele>
        <time>2021-09-06T12:21:27Z</time>
      </trkpt>
      <trkpt lat="44.54028" lon="5.52403">
        <ele>947.6</ele>
        <time>2021-09-06T12:21:29Z</time>
      </trkpt>
      <trkpt lat="44.54028" lon="5.52403">
        <ele>947.6</ele>
        <time>2021-09-06T12:21:30Z</time>
      </trkpt>
      <trkpt lat="44.54028" lon="5.52403">
        <ele>947.6</ele>
        <time>2021-09-06T12:21:31Z</time>
      </trkpt>
      <trkpt lat="44.54028" lon="5.52403">
        <ele>947.7</ele>
        <time>2021-09-06T12:21:33Z</time>
      </trkpt>
      <trkpt lat="44.54037" lon="5.52419">
        <ele>949.2</ele>
        <time>2021-09-06T12:21:42Z</time>
      </trkpt>
      <trkpt lat="44.54039" lon="5.52424">
        <ele>949.6</ele>
        <time>2021-09-06T12:21:44Z</time>
      </trkpt>
      <trkpt lat="44.54039" lon="5.52426">
        <ele>949.8</ele>
        <time>2021-09-06T12:21:45Z</time>
      </trkpt>
      <trkpt lat="44.5404" lon="5.5243">
        <ele>950.1</ele>
        <time>2021-09-06T12:21:46Z</time>
      </trkpt>
      <trkpt lat="44.5404" lon="5.52434">
        <ele>950.4</ele>
        <time>2021-09-06T12:21:48Z</time>
      </trkpt>
      <trkpt lat="44.54039" lon="5.52437">
        <ele>950.6</ele>
        <time>2021-09-06T12:21:49Z</time>
      </trkpt>
      <trkpt lat="44.54038" lon="5.52439">
        <ele>950.8</ele>
        <time>2021-09-06T12:21:51Z</time>
      </trkpt>
      <trkpt lat="44.54038" lon="5.52441">
        <ele>950.9</ele>
        <time>2021-09-06T12:21:52Z</time>
      </trkpt>
      <trkpt lat="44.54037" lon="5.52442">
        <ele>951</ele>
        <time>2021-09-06T12:21:53Z</time>
      </trkpt>
      <trkpt lat="44.54037" lon="5.52442">
        <ele>951.1</ele>
        <time>2021-09-06T12:21:55Z</time>
      </trkpt>
      <trkpt lat="44.54037" lon="5.52443">
        <ele>951.1</ele>
        <time>2021-09-06T12:21:56Z</time>
      </trkpt>
      <trkpt lat="44.54037" lon="5.52444">
        <ele>951.2</ele>
        <time>2021-09-06T12:21:57Z</time>
      </trkpt>
      <trkpt lat="44.54038" lon="5.52445">
        <ele>951.3</ele>
        <time>2021-09-06T12:21:59Z</time>
      </trkpt>
      <trkpt lat="44.54038" lon="5.52447">
        <ele>951.4</ele>
        <time>2021-09-06T12:22:01Z</time>
      </trkpt>
      <trkpt lat="44.54038" lon="5.52448">
        <ele>951.5</ele>
        <time>2021-09-06T12:22:02Z</time>
      </trkpt>
      <trkpt lat="44.54038" lon="5.5245">
        <ele>951.7</ele>
        <time>2021-09-06T12:22:03Z</time>
      </trkpt>
      <trkpt lat="44.54038" lon="5.52452">
        <ele>951.8</ele>
        <time>2021-09-06T12:22:05Z</time>
      </trkpt>
      <trkpt lat="44.54038" lon="5.52453">
        <ele>951.9</ele>
        <time>2021-09-06T12:22:07Z</time>
      </trkpt>
      <trkpt lat="44.54038" lon="5.52454">
        <ele>951.9</ele>
        <time>2021-09-06T12:22:08Z</time>
      </trkpt>
      <trkpt lat="44.54038" lon="5.52454">
        <ele>951.9</ele>
        <time>2021-09-06T12:22:09Z</time>
      </trkpt>
      <trkpt lat="44.54037" lon="5.52478">
        <ele>953.3</ele>
        <time>2021-09-06T12:22:22Z</time>
      </trkpt>
      <trkpt lat="44.54036" lon="5.52482">
        <ele>953.5</ele>
        <time>2021-09-06T12:22:24Z</time>
      </trkpt>
      <trkpt lat="44.54036" lon="5.52484">
        <ele>953.6</ele>
        <time>2021-09-06T12:22:25Z</time>
      </trkpt>
      <trkpt lat="44.54035" lon="5.52486">
        <ele>953.8</ele>
        <time>2021-09-06T12:22:26Z</time>
      </trkpt>
      <trkpt lat="44.54034" lon="5.52491">
        <ele>954</ele>
        <time>2021-09-06T12:22:27Z</time>
      </trkpt>
      <trkpt lat="44.54034" lon="5.52492">
        <ele>954.1</ele>
        <time>2021-09-06T12:22:28Z</time>
      </trkpt>
      <trkpt lat="44.54032" lon="5.52498">
        <ele>954.4</ele>
        <time>2021-09-06T12:22:30Z</time>
      </trkpt>
      <trkpt lat="44.5403" lon="5.525">
        <ele>954.8</ele>
        <time>2021-09-06T12:22:32Z</time>
      </trkpt>
      <trkpt lat="44.54029" lon="5.52503">
        <ele>954.9</ele>
        <time>2021-09-06T12:22:34Z</time>
      </trkpt>
      <trkpt lat="44.54028" lon="5.52505">
        <ele>955.1</ele>
        <time>2021-09-06T12:22:35Z</time>
      </trkpt>
      <trkpt lat="44.54028" lon="5.52506">
        <ele>955.2</ele>
        <time>2021-09-06T12:22:36Z</time>
      </trkpt>
      <trkpt lat="44.54028" lon="5.52506">
        <ele>955.3</ele>
        <time>2021-09-06T12:22:38Z</time>
      </trkpt>
      <trkpt lat="44.54028" lon="5.52505">
        <ele>955.3</ele>
        <time>2021-09-06T12:22:39Z</time>
      </trkpt>
      <trkpt lat="44.54027" lon="5.52506">
        <ele>955.4</ele>
        <time>2021-09-06T12:22:40Z</time>
      </trkpt>
      <trkpt lat="44.54026" lon="5.52506">
        <ele>955.5</ele>
        <time>2021-09-06T12:22:42Z</time>
      </trkpt>
      <trkpt lat="44.54026" lon="5.52506">
        <ele>955.5</ele>
        <time>2021-09-06T12:22:43Z</time>
      </trkpt>
      <trkpt lat="44.54025" lon="5.52506">
        <ele>955.6</ele>
        <time>2021-09-06T12:22:44Z</time>
      </trkpt>
      <trkpt lat="44.54025" lon="5.52507">
        <ele>955.6</ele>
        <time>2021-09-06T12:22:46Z</time>
      </trkpt>
      <trkpt lat="44.54025" lon="5.52508">
        <ele>955.7</ele>
        <time>2021-09-06T12:22:47Z</time>
      </trkpt>
      <trkpt lat="44.54025" lon="5.52509">
        <ele>955.8</ele>
        <time>2021-09-06T12:22:48Z</time>
      </trkpt>
      <trkpt lat="44.54025" lon="5.52511">
        <ele>955.9</ele>
        <time>2021-09-06T12:22:50Z</time>
      </trkpt>
      <trkpt lat="44.54026" lon="5.52512">
        <ele>956</ele>
        <time>2021-09-06T12:22:52Z</time>
      </trkpt>
      <trkpt lat="44.54026" lon="5.52513">
        <ele>956.1</ele>
        <time>2021-09-06T12:22:53Z</time>
      </trkpt>
      <trkpt lat="44.54029" lon="5.52531">
        <ele>957.4</ele>
        <time>2021-09-06T12:23:03Z</time>
      </trkpt>
      <trkpt lat="44.54029" lon="5.52534">
        <ele>957.6</ele>
        <time>2021-09-06T12:23:05Z</time>
      </trkpt>
      <trkpt lat="44.54029" lon="5.52535">
        <ele>957.7</ele>
        <time>2021-09-06T12:23:06Z</time>
      </trkpt>
      <trkpt lat="44.54029" lon="5.52536">
        <ele>957.7</ele>
        <time>2021-09-06T12:23:07Z</time>
      </trkpt>
      <trkpt lat="44.54029" lon="5.52537">
        <ele>957.8</ele>
        <time>2021-09-06T12:23:08Z</time>
      </trkpt>
      <trkpt lat="44.54029" lon="5.5254">
        <ele>958</ele>
        <time>2021-09-06T12:23:10Z</time>
      </trkpt>
      <trkpt lat="44.54029" lon="5.52542">
        <ele>958.1</ele>
        <time>2021-09-06T12:23:11Z</time>
      </trkpt>
      <trkpt lat="44.54029" lon="5.52544">
        <ele>958.3</ele>
        <time>2021-09-06T12:23:13Z</time>
      </trkpt>
      <trkpt lat="44.54028" lon="5.52545">
        <ele>958.3</ele>
        <time>2021-09-06T12:23:14Z</time>
      </trkpt>
      <trkpt lat="44.54028" lon="5.52546">
        <ele>958.4</ele>
        <time>2021-09-06T12:23:15Z</time>
      </trkpt>
      <trkpt lat="44.54027" lon="5.52547">
        <ele>958.6</ele>
        <time>2021-09-06T12:23:16Z</time>
      </trkpt>
      <trkpt lat="44.54026" lon="5.52548">
        <ele>958.7</ele>
        <time>2021-09-06T12:23:18Z</time>
      </trkpt>
      <trkpt lat="44.54026" lon="5.5255">
        <ele>958.8</ele>
        <time>2021-09-06T12:23:19Z</time>
      </trkpt>
      <trkpt lat="44.54026" lon="5.52551">
        <ele>958.8</ele>
        <time>2021-09-06T12:23:20Z</time>
      </trkpt>
      <trkpt lat="44.54025" lon="5.52552">
        <ele>958.9</ele>
        <time>2021-09-06T12:23:21Z</time>
      </trkpt>
      <trkpt lat="44.54021" lon="5.52573">
        <ele>960.3</ele>
        <time>2021-09-06T12:23:37Z</time>
      </trkpt>
      <trkpt lat="44.5402" lon="5.52575">
        <ele>960.4</ele>
        <time>2021-09-06T12:23:38Z</time>
      </trkpt>
      <trkpt lat="44.5402" lon="5.52578">
        <ele>960.6</ele>
        <time>2021-09-06T12:23:40Z</time>
      </trkpt>
      <trkpt lat="44.54019" lon="5.5258">
        <ele>960.7</ele>
        <time>2021-09-06T12:23:41Z</time>
      </trkpt>
      <trkpt lat="44.54019" lon="5.52582">
        <ele>960.8</ele>
        <time>2021-09-06T12:23:42Z</time>
      </trkpt>
      <trkpt lat="44.54018" lon="5.52587">
        <ele>961.1</ele>
        <time>2021-09-06T12:23:44Z</time>
      </trkpt>
      <trkpt lat="44.54018" lon="5.52591">
        <ele>961.3</ele>
        <time>2021-09-06T12:23:46Z</time>
      </trkpt>
      <trkpt lat="44.54018" lon="5.52591">
        <ele>961.4</ele>
        <time>2021-09-06T12:23:47Z</time>
      </trkpt>
      <trkpt lat="44.54018" lon="5.52592">
        <ele>961.4</ele>
        <time>2021-09-06T12:23:48Z</time>
      </trkpt>
      <trkpt lat="44.54017" lon="5.52593">
        <ele>961.5</ele>
        <time>2021-09-06T12:23:50Z</time>
      </trkpt>
      <trkpt lat="44.54018" lon="5.52597">
        <ele>961.6</ele>
        <time>2021-09-06T12:23:52Z</time>
      </trkpt>
      <trkpt lat="44.54017" lon="5.52599">
        <ele>961.7</ele>
        <time>2021-09-06T12:23:53Z</time>
      </trkpt>
      <trkpt lat="44.54017" lon="5.52604">
        <ele>961.9</ele>
        <time>2021-09-06T12:23:55Z</time>
      </trkpt>
      <trkpt lat="44.54017" lon="5.52604">
        <ele>961.9</ele>
        <time>2021-09-06T12:23:55Z</time>
      </trkpt>
      <trkpt lat="44.54014" lon="5.52609">
        <ele>962</ele>
        <time>2021-09-06T12:23:56Z</time>
      </trkpt>
      <trkpt lat="44.54011" lon="5.52618">
        <ele>962.3</ele>
        <time>2021-09-06T12:23:58Z</time>
      </trkpt>
      <trkpt lat="44.54009" lon="5.52623">
        <ele>962.4</ele>
        <time>2021-09-06T12:23:59Z</time>
      </trkpt>
      <trkpt lat="44.54005" lon="5.5263">
        <ele>962.5</ele>
        <time>2021-09-06T12:24:00Z</time>
      </trkpt>
      <trkpt lat="44.54003" lon="5.52636">
        <ele>962.6</ele>
        <time>2021-09-06T12:24:02Z</time>
      </trkpt>
      <trkpt lat="44.54001" lon="5.52641">
        <ele>962.7</ele>
        <time>2021-09-06T12:24:04Z</time>
      </trkpt>
      <trkpt lat="44.54" lon="5.52647">
        <ele>962.8</ele>
        <time>2021-09-06T12:24:05Z</time>
      </trkpt>
      <trkpt lat="44.53999" lon="5.52653">
        <ele>963</ele>
        <time>2021-09-06T12:24:07Z</time>
      </trkpt>
      <trkpt lat="44.53999" lon="5.5266">
        <ele>963.1</ele>
        <time>2021-09-06T12:24:08Z</time>
      </trkpt>
      <trkpt lat="44.53998" lon="5.52669">
        <ele>963.3</ele>
        <time>2021-09-06T12:24:10Z</time>
      </trkpt>
      <trkpt lat="44.53997" lon="5.52673">
        <ele>963.4</ele>
        <time>2021-09-06T12:24:11Z</time>
      </trkpt>
      <trkpt lat="44.53997" lon="5.52679">
        <ele>963.6</ele>
        <time>2021-09-06T12:24:12Z</time>
      </trkpt>
      <trkpt lat="44.53996" lon="5.52688">
        <ele>963.8</ele>
        <time>2021-09-06T12:24:14Z</time>
      </trkpt>
      <trkpt lat="44.53994" lon="5.52697">
        <ele>964</ele>
        <time>2021-09-06T12:24:15Z</time>
      </trkpt>
      <trkpt lat="44.53992" lon="5.52703">
        <ele>964.2</ele>
        <time>2021-09-06T12:24:17Z</time>
      </trkpt>
      <trkpt lat="44.53991" lon="5.52705">
        <ele>964.2</ele>
        <time>2021-09-06T12:24:18Z</time>
      </trkpt>
      <trkpt lat="44.5399" lon="5.52706">
        <ele>964.3</ele>
        <time>2021-09-06T12:24:19Z</time>
      </trkpt>
      <trkpt lat="44.53988" lon="5.5271">
        <ele>964.4</ele>
        <time>2021-09-06T12:24:20Z</time>
      </trkpt>
      <trkpt lat="44.53987" lon="5.52712">
        <ele>964.5</ele>
        <time>2021-09-06T12:24:21Z</time>
      </trkpt>
      <trkpt lat="44.53986" lon="5.52717">
        <ele>964.6</ele>
        <time>2021-09-06T12:24:23Z</time>
      </trkpt>
      <trkpt lat="44.53984" lon="5.5272">
        <ele>964.7</ele>
        <time>2021-09-06T12:24:24Z</time>
      </trkpt>
      <trkpt lat="44.53981" lon="5.52724">
        <ele>964.9</ele>
        <time>2021-09-06T12:24:25Z</time>
      </trkpt>
      <trkpt lat="44.53979" lon="5.52728">
        <ele>965</ele>
        <time>2021-09-06T12:24:26Z</time>
      </trkpt>
      <trkpt lat="44.53978" lon="5.52731">
        <ele>965.1</ele>
        <time>2021-09-06T12:24:27Z</time>
      </trkpt>
      <trkpt lat="44.53977" lon="5.52732">
        <ele>965.1</ele>
        <time>2021-09-06T12:24:28Z</time>
      </trkpt>
      <trkpt lat="44.53976" lon="5.52733">
        <ele>965.2</ele>
        <time>2021-09-06T12:24:29Z</time>
      </trkpt>
      <trkpt lat="44.53974" lon="5.52735">
        <ele>965.2</ele>
        <time>2021-09-06T12:24:31Z</time>
      </trkpt>
      <trkpt lat="44.53973" lon="5.52736">
        <ele>965.3</ele>
        <time>2021-09-06T12:24:32Z</time>
      </trkpt>
      <trkpt lat="44.53971" lon="5.52738">
        <ele>965.4</ele>
        <time>2021-09-06T12:24:33Z</time>
      </trkpt>
      <trkpt lat="44.5397" lon="5.52739">
        <ele>965.5</ele>
        <time>2021-09-06T12:24:34Z</time>
      </trkpt>
      <trkpt lat="44.53968" lon="5.5274">
        <ele>965.5</ele>
        <time>2021-09-06T12:24:36Z</time>
      </trkpt>
      <trkpt lat="44.53965" lon="5.52744">
        <ele>965.7</ele>
        <time>2021-09-06T12:24:37Z</time>
      </trkpt>
      <trkpt lat="44.53965" lon="5.52745">
        <ele>965.7</ele>
        <time>2021-09-06T12:24:38Z</time>
      </trkpt>
      <trkpt lat="44.53963" lon="5.5275">
        <ele>965.9</ele>
        <time>2021-09-06T12:24:39Z</time>
      </trkpt>
      <trkpt lat="44.53961" lon="5.52754">
        <ele>966.1</ele>
        <time>2021-09-06T12:24:41Z</time>
      </trkpt>
      <trkpt lat="44.53959" lon="5.52758">
        <ele>966.2</ele>
        <time>2021-09-06T12:24:42Z</time>
      </trkpt>
      <trkpt lat="44.53958" lon="5.5276">
        <ele>966.3</ele>
        <time>2021-09-06T12:24:43Z</time>
      </trkpt>
      <trkpt lat="44.53957" lon="5.52765">
        <ele>966.4</ele>
        <time>2021-09-06T12:24:45Z</time>
      </trkpt>
      <trkpt lat="44.53956" lon="5.52768">
        <ele>966.5</ele>
        <time>2021-09-06T12:24:46Z</time>
      </trkpt>
      <trkpt lat="44.53955" lon="5.52772">
        <ele>966.7</ele>
        <time>2021-09-06T12:24:48Z</time>
      </trkpt>
      <trkpt lat="44.53955" lon="5.52773">
        <ele>966.7</ele>
        <time>2021-09-06T12:24:49Z</time>
      </trkpt>
      <trkpt lat="44.53954" lon="5.52776">
        <ele>966.8</ele>
        <time>2021-09-06T12:24:50Z</time>
      </trkpt>
      <trkpt lat="44.53952" lon="5.52781">
        <ele>967</ele>
        <time>2021-09-06T12:24:51Z</time>
      </trkpt>
      <trkpt lat="44.53951" lon="5.52782">
        <ele>967.1</ele>
        <time>2021-09-06T12:24:52Z</time>
      </trkpt>
      <trkpt lat="44.53948" lon="5.52787">
        <ele>967.3</ele>
        <time>2021-09-06T12:24:54Z</time>
      </trkpt>
      <trkpt lat="44.53947" lon="5.5279">
        <ele>967.4</ele>
        <time>2021-09-06T12:24:55Z</time>
      </trkpt>
      <trkpt lat="44.53945" lon="5.52793">
        <ele>967.6</ele>
        <time>2021-09-06T12:24:57Z</time>
      </trkpt>
      <trkpt lat="44.53944" lon="5.52794">
        <ele>967.6</ele>
        <time>2021-09-06T12:24:58Z</time>
      </trkpt>
      <trkpt lat="44.53942" lon="5.52796">
        <ele>967.7</ele>
        <time>2021-09-06T12:24:59Z</time>
      </trkpt>
      <trkpt lat="44.53941" lon="5.52796">
        <ele>967.8</ele>
        <time>2021-09-06T12:25:00Z</time>
      </trkpt>
      <trkpt lat="44.53938" lon="5.528">
        <ele>967.9</ele>
        <time>2021-09-06T12:25:01Z</time>
      </trkpt>
      <trkpt lat="44.53938" lon="5.52801">
        <ele>968</ele>
        <time>2021-09-06T12:25:02Z</time>
      </trkpt>
      <trkpt lat="44.53937" lon="5.52803">
        <ele>968.1</ele>
        <time>2021-09-06T12:25:03Z</time>
      </trkpt>
      <trkpt lat="44.53936" lon="5.52805">
        <ele>968.2</ele>
        <time>2021-09-06T12:25:04Z</time>
      </trkpt>
      <trkpt lat="44.53935" lon="5.5281">
        <ele>968.3</ele>
        <time>2021-09-06T12:25:06Z</time>
      </trkpt>
      <trkpt lat="44.53934" lon="5.52812">
        <ele>968.4</ele>
        <time>2021-09-06T12:25:07Z</time>
      </trkpt>
      <trkpt lat="44.53933" lon="5.52817">
        <ele>968.6</ele>
        <time>2021-09-06T12:25:08Z</time>
      </trkpt>
      <trkpt lat="44.53932" lon="5.52821">
        <ele>968.8</ele>
        <time>2021-09-06T12:25:10Z</time>
      </trkpt>
      <trkpt lat="44.53931" lon="5.52825">
        <ele>968.9</ele>
        <time>2021-09-06T12:25:11Z</time>
      </trkpt>
      <trkpt lat="44.53931" lon="5.5283">
        <ele>969.1</ele>
        <time>2021-09-06T12:25:12Z</time>
      </trkpt>
      <trkpt lat="44.53931" lon="5.52836">
        <ele>969.3</ele>
        <time>2021-09-06T12:25:13Z</time>
      </trkpt>
      <trkpt lat="44.53931" lon="5.52837">
        <ele>969.3</ele>
        <time>2021-09-06T12:25:14Z</time>
      </trkpt>
      <trkpt lat="44.53932" lon="5.52843">
        <ele>969.5</ele>
        <time>2021-09-06T12:25:16Z</time>
      </trkpt>
      <trkpt lat="44.53932" lon="5.52845">
        <ele>969.6</ele>
        <time>2021-09-06T12:25:17Z</time>
      </trkpt>
      <trkpt lat="44.53932" lon="5.52848">
        <ele>969.7</ele>
        <time>2021-09-06T12:25:18Z</time>
      </trkpt>
      <trkpt lat="44.53933" lon="5.52851">
        <ele>969.8</ele>
        <time>2021-09-06T12:25:20Z</time>
      </trkpt>
      <trkpt lat="44.53933" lon="5.52854">
        <ele>969.9</ele>
        <time>2021-09-06T12:25:21Z</time>
      </trkpt>
      <trkpt lat="44.53935" lon="5.52864">
        <ele>970.4</ele>
        <time>2021-09-06T12:25:23Z</time>
      </trkpt>
      <trkpt lat="44.53935" lon="5.5287">
        <ele>970.6</ele>
        <time>2021-09-06T12:25:24Z</time>
      </trkpt>
      <trkpt lat="44.53934" lon="5.5288">
        <ele>970.9</ele>
        <time>2021-09-06T12:25:26Z</time>
      </trkpt>
      <trkpt lat="44.53932" lon="5.52885">
        <ele>971.1</ele>
        <time>2021-09-06T12:25:27Z</time>
      </trkpt>
      <trkpt lat="44.53931" lon="5.52888">
        <ele>971.2</ele>
        <time>2021-09-06T12:25:28Z</time>
      </trkpt>
      <trkpt lat="44.53928" lon="5.52892">
        <ele>971.4</ele>
        <time>2021-09-06T12:25:30Z</time>
      </trkpt>
      <trkpt lat="44.53927" lon="5.52895">
        <ele>971.5</ele>
        <time>2021-09-06T12:25:31Z</time>
      </trkpt>
      <trkpt lat="44.53924" lon="5.529">
        <ele>971.8</ele>
        <time>2021-09-06T12:25:33Z</time>
      </trkpt>
      <trkpt lat="44.53923" lon="5.52901">
        <ele>971.8</ele>
        <time>2021-09-06T12:25:34Z</time>
      </trkpt>
      <trkpt lat="44.53922" lon="5.52902">
        <ele>971.9</ele>
        <time>2021-09-06T12:25:35Z</time>
      </trkpt>
      <trkpt lat="44.53919" lon="5.52903">
        <ele>972.1</ele>
        <time>2021-09-06T12:25:36Z</time>
      </trkpt>
      <trkpt lat="44.53916" lon="5.52904">
        <ele>972.2</ele>
        <time>2021-09-06T12:25:37Z</time>
      </trkpt>
      <trkpt lat="44.53913" lon="5.52904">
        <ele>972.4</ele>
        <time>2021-09-06T12:25:38Z</time>
      </trkpt>
      <trkpt lat="44.53912" lon="5.52904">
        <ele>972.5</ele>
        <time>2021-09-06T12:25:39Z</time>
      </trkpt>
      <trkpt lat="44.53908" lon="5.52905">
        <ele>972.7</ele>
        <time>2021-09-06T12:25:40Z</time>
      </trkpt>
      <trkpt lat="44.53907" lon="5.52905">
        <ele>972.7</ele>
        <time>2021-09-06T12:25:41Z</time>
      </trkpt>
      <trkpt lat="44.53905" lon="5.52906">
        <ele>972.8</ele>
        <time>2021-09-06T12:25:42Z</time>
      </trkpt>
      <trkpt lat="44.53901" lon="5.52909">
        <ele>973.1</ele>
        <time>2021-09-06T12:25:44Z</time>
      </trkpt>
      <trkpt lat="44.53897" lon="5.52912">
        <ele>973.3</ele>
        <time>2021-09-06T12:25:46Z</time>
      </trkpt>
      <trkpt lat="44.53893" lon="5.52914">
        <ele>973.6</ele>
        <time>2021-09-06T12:25:48Z</time>
      </trkpt>
      <trkpt lat="44.5389" lon="5.52917">
        <ele>973.8</ele>
        <time>2021-09-06T12:25:50Z</time>
      </trkpt>
      <trkpt lat="44.53887" lon="5.5292">
        <ele>973.9</ele>
        <time>2021-09-06T12:25:51Z</time>
      </trkpt>
      <trkpt lat="44.53886" lon="5.52921">
        <ele>974</ele>
        <time>2021-09-06T12:25:52Z</time>
      </trkpt>
      <trkpt lat="44.53884" lon="5.52923">
        <ele>974.1</ele>
        <time>2021-09-06T12:25:53Z</time>
      </trkpt>
      <trkpt lat="44.53881" lon="5.52927">
        <ele>974.4</ele>
        <time>2021-09-06T12:25:55Z</time>
      </trkpt>
      <trkpt lat="44.53879" lon="5.52931">
        <ele>974.6</ele>
        <time>2021-09-06T12:25:57Z</time>
      </trkpt>
      <trkpt lat="44.53878" lon="5.52933">
        <ele>974.7</ele>
        <time>2021-09-06T12:25:58Z</time>
      </trkpt>
      <trkpt lat="44.53874" lon="5.52937">
        <ele>975</ele>
        <time>2021-09-06T12:26:00Z</time>
      </trkpt>
      <trkpt lat="44.53873" lon="5.52938">
        <ele>975.1</ele>
        <time>2021-09-06T12:26:01Z</time>
      </trkpt>
      <trkpt lat="44.5387" lon="5.5294">
        <ele>975.3</ele>
        <time>2021-09-06T12:26:03Z</time>
      </trkpt>
      <trkpt lat="44.53869" lon="5.52942">
        <ele>975.4</ele>
        <time>2021-09-06T12:26:04Z</time>
      </trkpt>
      <trkpt lat="44.53868" lon="5.52945">
        <ele>975.6</ele>
        <time>2021-09-06T12:26:06Z</time>
      </trkpt>
      <trkpt lat="44.53865" lon="5.52949">
        <ele>975.8</ele>
        <time>2021-09-06T12:26:08Z</time>
      </trkpt>
      <trkpt lat="44.53864" lon="5.52951">
        <ele>975.9</ele>
        <time>2021-09-06T12:26:09Z</time>
      </trkpt>
      <trkpt lat="44.53864" lon="5.52954">
        <ele>976.1</ele>
        <time>2021-09-06T12:26:11Z</time>
      </trkpt>
      <trkpt lat="44.53863" lon="5.52956">
        <ele>976.2</ele>
        <time>2021-09-06T12:26:12Z</time>
      </trkpt>
      <trkpt lat="44.53863" lon="5.52958">
        <ele>976.4</ele>
        <time>2021-09-06T12:26:13Z</time>
      </trkpt>
      <trkpt lat="44.53862" lon="5.52961">
        <ele>976.6</ele>
        <time>2021-09-06T12:26:15Z</time>
      </trkpt>
      <trkpt lat="44.5386" lon="5.52965">
        <ele>976.8</ele>
        <time>2021-09-06T12:26:16Z</time>
      </trkpt>
      <trkpt lat="44.53857" lon="5.52968">
        <ele>977.1</ele>
        <time>2021-09-06T12:26:17Z</time>
      </trkpt>
      <trkpt lat="44.53856" lon="5.52971">
        <ele>977.3</ele>
        <time>2021-09-06T12:26:18Z</time>
      </trkpt>
      <trkpt lat="44.53854" lon="5.52974">
        <ele>977.5</ele>
        <time>2021-09-06T12:26:19Z</time>
      </trkpt>
      <trkpt lat="44.53852" lon="5.52977">
        <ele>977.8</ele>
        <time>2021-09-06T12:26:21Z</time>
      </trkpt>
      <trkpt lat="44.53852" lon="5.52978">
        <ele>977.8</ele>
        <time>2021-09-06T12:26:22Z</time>
      </trkpt>
      <trkpt lat="44.53852" lon="5.52978">
        <ele>977.9</ele>
        <time>2021-09-06T12:26:23Z</time>
      </trkpt>
      <trkpt lat="44.53852" lon="5.52979">
        <ele>977.9</ele>
        <time>2021-09-06T12:26:24Z</time>
      </trkpt>
      <trkpt lat="44.53852" lon="5.5298">
        <ele>978</ele>
        <time>2021-09-06T12:26:25Z</time>
      </trkpt>
      <trkpt lat="44.53851" lon="5.52983">
        <ele>978.2</ele>
        <time>2021-09-06T12:26:26Z</time>
      </trkpt>
      <trkpt lat="44.53851" lon="5.52987">
        <ele>978.4</ele>
        <time>2021-09-06T12:26:28Z</time>
      </trkpt>
      <trkpt lat="44.53852" lon="5.52989">
        <ele>978.5</ele>
        <time>2021-09-06T12:26:29Z</time>
      </trkpt>
      <trkpt lat="44.53852" lon="5.52993">
        <ele>978.7</ele>
        <time>2021-09-06T12:26:31Z</time>
      </trkpt>
      <trkpt lat="44.53852" lon="5.52995">
        <ele>978.9</ele>
        <time>2021-09-06T12:26:33Z</time>
      </trkpt>
      <trkpt lat="44.53853" lon="5.52995">
        <ele>979</ele>
        <time>2021-09-06T12:26:34Z</time>
      </trkpt>
      <trkpt lat="44.53854" lon="5.53001">
        <ele>979.3</ele>
        <time>2021-09-06T12:26:36Z</time>
      </trkpt>
      <trkpt lat="44.53853" lon="5.53005">
        <ele>979.5</ele>
        <time>2021-09-06T12:26:37Z</time>
      </trkpt>
      <trkpt lat="44.53853" lon="5.53005">
        <ele>979.6</ele>
        <time>2021-09-06T12:26:39Z</time>
      </trkpt>
      <trkpt lat="44.53853" lon="5.53006">
        <ele>979.6</ele>
        <time>2021-09-06T12:26:40Z</time>
      </trkpt>
      <trkpt lat="44.53852" lon="5.5301">
        <ele>979.9</ele>
        <time>2021-09-06T12:26:42Z</time>
      </trkpt>
      <trkpt lat="44.53851" lon="5.53014">
        <ele>980.1</ele>
        <time>2021-09-06T12:26:43Z</time>
      </trkpt>
      <trkpt lat="44.53849" lon="5.53018">
        <ele>980.4</ele>
        <time>2021-09-06T12:26:45Z</time>
      </trkpt>
      <trkpt lat="44.53848" lon="5.53018">
        <ele>980.4</ele>
        <time>2021-09-06T12:26:46Z</time>
      </trkpt>
      <trkpt lat="44.53846" lon="5.53019">
        <ele>980.6</ele>
        <time>2021-09-06T12:26:47Z</time>
      </trkpt>
      <trkpt lat="44.53844" lon="5.53019">
        <ele>980.7</ele>
        <time>2021-09-06T12:26:48Z</time>
      </trkpt>
      <trkpt lat="44.53841" lon="5.53019">
        <ele>980.9</ele>
        <time>2021-09-06T12:26:49Z</time>
      </trkpt>
      <trkpt lat="44.53841" lon="5.53019">
        <ele>981</ele>
        <time>2021-09-06T12:26:50Z</time>
      </trkpt>
      <trkpt lat="44.53838" lon="5.5302">
        <ele>981.2</ele>
        <time>2021-09-06T12:26:51Z</time>
      </trkpt>
      <trkpt lat="44.53837" lon="5.53022">
        <ele>981.4</ele>
        <time>2021-09-06T12:26:53Z</time>
      </trkpt>
      <trkpt lat="44.53833" lon="5.53025">
        <ele>981.7</ele>
        <time>2021-09-06T12:26:54Z</time>
      </trkpt>
      <trkpt lat="44.53831" lon="5.53026">
        <ele>981.8</ele>
        <time>2021-09-06T12:26:55Z</time>
      </trkpt>
      <trkpt lat="44.53827" lon="5.53028">
        <ele>982</ele>
        <time>2021-09-06T12:26:57Z</time>
      </trkpt>
      <trkpt lat="44.53822" lon="5.53029">
        <ele>982.2</ele>
        <time>2021-09-06T12:26:58Z</time>
      </trkpt>
      <trkpt lat="44.53817" lon="5.53032">
        <ele>982.4</ele>
        <time>2021-09-06T12:26:59Z</time>
      </trkpt>
      <trkpt lat="44.53814" lon="5.53034">
        <ele>982.4</ele>
        <time>2021-09-06T12:27:00Z</time>
      </trkpt>
      <trkpt lat="44.5381" lon="5.53036">
        <ele>982.4</ele>
        <time>2021-09-06T12:27:01Z</time>
      </trkpt>
      <trkpt lat="44.53805" lon="5.53037">
        <ele>982.3</ele>
        <time>2021-09-06T12:27:03Z</time>
      </trkpt>
      <trkpt lat="44.53801" lon="5.53038">
        <ele>982.2</ele>
        <time>2021-09-06T12:27:04Z</time>
      </trkpt>
      <trkpt lat="44.53796" lon="5.53041">
        <ele>982.1</ele>
        <time>2021-09-06T12:27:05Z</time>
      </trkpt>
      <trkpt lat="44.53792" lon="5.53043">
        <ele>981.9</ele>
        <time>2021-09-06T12:27:07Z</time>
      </trkpt>
      <trkpt lat="44.53789" lon="5.53045">
        <ele>981.8</ele>
        <time>2021-09-06T12:27:08Z</time>
      </trkpt>
      <trkpt lat="44.53785" lon="5.53047">
        <ele>981.7</ele>
        <time>2021-09-06T12:27:09Z</time>
      </trkpt>
      <trkpt lat="44.53782" lon="5.53048">
        <ele>981.6</ele>
        <time>2021-09-06T12:27:10Z</time>
      </trkpt>
      <trkpt lat="44.53775" lon="5.5305">
        <ele>981.4</ele>
        <time>2021-09-06T12:27:12Z</time>
      </trkpt>
      <trkpt lat="44.53772" lon="5.53053">
        <ele>981.3</ele>
        <time>2021-09-06T12:27:13Z</time>
      </trkpt>
      <trkpt lat="44.53771" lon="5.53057">
        <ele>981.3</ele>
        <time>2021-09-06T12:27:14Z</time>
      </trkpt>
      <trkpt lat="44.5377" lon="5.53061">
        <ele>981.2</ele>
        <time>2021-09-06T12:27:15Z</time>
      </trkpt>
      <trkpt lat="44.53772" lon="5.53065">
        <ele>981.1</ele>
        <time>2021-09-06T12:27:17Z</time>
      </trkpt>
      <trkpt lat="44.53775" lon="5.53068">
        <ele>981</ele>
        <time>2021-09-06T12:27:18Z</time>
      </trkpt>
      <trkpt lat="44.53779" lon="5.5307">
        <ele>980.7</ele>
        <time>2021-09-06T12:27:19Z</time>
      </trkpt>
      <trkpt lat="44.53783" lon="5.53071">
        <ele>980.4</ele>
        <time>2021-09-06T12:27:21Z</time>
      </trkpt>
      <trkpt lat="44.53786" lon="5.5307">
        <ele>980.1</ele>
        <time>2021-09-06T12:27:22Z</time>
      </trkpt>
      <trkpt lat="44.5379" lon="5.53071">
        <ele>979.9</ele>
        <time>2021-09-06T12:27:23Z</time>
      </trkpt>
      <trkpt lat="44.53795" lon="5.53075">
        <ele>979.4</ele>
        <time>2021-09-06T12:27:24Z</time>
      </trkpt>
      <trkpt lat="44.53799" lon="5.53083">
        <ele>978.7</ele>
        <time>2021-09-06T12:27:26Z</time>
      </trkpt>
      <trkpt lat="44.53804" lon="5.5309">
        <ele>977.8</ele>
        <time>2021-09-06T12:27:28Z</time>
      </trkpt>
      <trkpt lat="44.53808" lon="5.53095">
        <ele>977.2</ele>
        <time>2021-09-06T12:27:29Z</time>
      </trkpt>
      <trkpt lat="44.5381" lon="5.531">
        <ele>976.7</ele>
        <time>2021-09-06T12:27:30Z</time>
      </trkpt>
      <trkpt lat="44.53814" lon="5.53105">
        <ele>976.2</ele>
        <time>2021-09-06T12:27:31Z</time>
      </trkpt>
      <trkpt lat="44.53816" lon="5.53111">
        <ele>975.9</ele>
        <time>2021-09-06T12:27:32Z</time>
      </trkpt>
      <trkpt lat="44.53817" lon="5.53117">
        <ele>975.5</ele>
        <time>2021-09-06T12:27:34Z</time>
      </trkpt>
      <trkpt lat="44.5382" lon="5.53122">
        <ele>975.3</ele>
        <time>2021-09-06T12:27:35Z</time>
      </trkpt>
      <trkpt lat="44.53823" lon="5.53128">
        <ele>974.9</ele>
        <time>2021-09-06T12:27:36Z</time>
      </trkpt>
      <trkpt lat="44.53825" lon="5.53133">
        <ele>974.6</ele>
        <time>2021-09-06T12:27:38Z</time>
      </trkpt>
      <trkpt lat="44.53828" lon="5.53138">
        <ele>974.3</ele>
        <time>2021-09-06T12:27:39Z</time>
      </trkpt>
      <trkpt lat="44.53833" lon="5.53145">
        <ele>973.7</ele>
        <time>2021-09-06T12:27:41Z</time>
      </trkpt>
      <trkpt lat="44.53838" lon="5.53159">
        <ele>972.9</ele>
        <time>2021-09-06T12:27:43Z</time>
      </trkpt>
      <trkpt lat="44.5384" lon="5.53172">
        <ele>972.1</ele>
        <time>2021-09-06T12:27:45Z</time>
      </trkpt>
      <trkpt lat="44.53842" lon="5.53176">
        <ele>971.8</ele>
        <time>2021-09-06T12:27:46Z</time>
      </trkpt>
      <trkpt lat="44.53843" lon="5.53181">
        <ele>971.6</ele>
        <time>2021-09-06T12:27:47Z</time>
      </trkpt>
      <trkpt lat="44.53844" lon="5.53185">
        <ele>971.3</ele>
        <time>2021-09-06T12:27:49Z</time>
      </trkpt>
      <trkpt lat="44.53844" lon="5.53186">
        <ele>971.2</ele>
        <time>2021-09-06T12:27:50Z</time>
      </trkpt>
      <trkpt lat="44.53844" lon="5.53189">
        <ele>971.1</ele>
        <time>2021-09-06T12:27:51Z</time>
      </trkpt>
      <trkpt lat="44.53844" lon="5.53192">
        <ele>970.9</ele>
        <time>2021-09-06T12:27:53Z</time>
      </trkpt>
      <trkpt lat="44.53845" lon="5.53193">
        <ele>970.8</ele>
        <time>2021-09-06T12:27:54Z</time>
      </trkpt>
      <trkpt lat="44.53845" lon="5.53192">
        <ele>970.8</ele>
        <time>2021-09-06T12:27:56Z</time>
      </trkpt>
      <trkpt lat="44.53844" lon="5.53192">
        <ele>970.7</ele>
        <time>2021-09-06T12:27:58Z</time>
      </trkpt>
      <trkpt lat="44.53844" lon="5.53191">
        <ele>970.7</ele>
        <time>2021-09-06T12:27:59Z</time>
      </trkpt>
      <trkpt lat="44.53844" lon="5.53191">
        <ele>970.7</ele>
        <time>2021-09-06T12:28:01Z</time>
      </trkpt>
      <trkpt lat="44.53844" lon="5.53191">
        <ele>970.7</ele>
        <time>2021-09-06T12:28:02Z</time>
      </trkpt>
      <trkpt lat="44.53844" lon="5.53191">
        <ele>970.7</ele>
        <time>2021-09-06T12:28:03Z</time>
      </trkpt>
      <trkpt lat="44.53849" lon="5.53202">
        <ele>970</ele>
        <time>2021-09-06T12:28:47Z</time>
      </trkpt>
      <trkpt lat="44.53852" lon="5.53207">
        <ele>969.6</ele>
        <time>2021-09-06T12:28:49Z</time>
      </trkpt>
      <trkpt lat="44.53856" lon="5.53212">
        <ele>969.2</ele>
        <time>2021-09-06T12:28:51Z</time>
      </trkpt>
      <trkpt lat="44.53859" lon="5.53214">
        <ele>969</ele>
        <time>2021-09-06T12:28:52Z</time>
      </trkpt>
      <trkpt lat="44.53863" lon="5.53217">
        <ele>968.7</ele>
        <time>2021-09-06T12:28:54Z</time>
      </trkpt>
      <trkpt lat="44.53863" lon="5.53217">
        <ele>968.6</ele>
        <time>2021-09-06T12:28:56Z</time>
      </trkpt>
      <trkpt lat="44.53864" lon="5.53218">
        <ele>968.6</ele>
        <time>2021-09-06T12:28:58Z</time>
      </trkpt>
      <trkpt lat="44.53864" lon="5.53217">
        <ele>968.6</ele>
        <time>2021-09-06T12:29:00Z</time>
      </trkpt>
      <trkpt lat="44.53864" lon="5.53217">
        <ele>968.6</ele>
        <time>2021-09-06T12:29:01Z</time>
      </trkpt>
      <trkpt lat="44.5386" lon="5.53225">
        <ele>968.1</ele>
        <time>2021-09-06T12:41:02Z</time>
      </trkpt>
      <trkpt lat="44.53863" lon="5.53228">
        <ele>967.8</ele>
        <time>2021-09-06T12:41:03Z</time>
      </trkpt>
      <trkpt lat="44.53866" lon="5.53229">
        <ele>967.6</ele>
        <time>2021-09-06T12:41:04Z</time>
      </trkpt>
      <trkpt lat="44.5387" lon="5.53228">
        <ele>967.2</ele>
        <time>2021-09-06T12:41:05Z</time>
      </trkpt>
      <trkpt lat="44.53878" lon="5.53226">
        <ele>966.6</ele>
        <time>2021-09-06T12:41:07Z</time>
      </trkpt>
      <trkpt lat="44.53886" lon="5.53226">
        <ele>965.8</ele>
        <time>2021-09-06T12:41:09Z</time>
      </trkpt>
      <trkpt lat="44.53889" lon="5.53226">
        <ele>965.6</ele>
        <time>2021-09-06T12:41:10Z</time>
      </trkpt>
      <trkpt lat="44.53891" lon="5.53227">
        <ele>965.4</ele>
        <time>2021-09-06T12:41:12Z</time>
      </trkpt>
      <trkpt lat="44.53891" lon="5.53227">
        <ele>965.4</ele>
        <time>2021-09-06T12:41:13Z</time>
      </trkpt>
      <trkpt lat="44.5389" lon="5.53226">
        <ele>965.3</ele>
        <time>2021-09-06T12:41:15Z</time>
      </trkpt>
      <trkpt lat="44.53889" lon="5.53226">
        <ele>965.3</ele>
        <time>2021-09-06T12:41:16Z</time>
      </trkpt>
      <trkpt lat="44.53887" lon="5.53226">
        <ele>965.1</ele>
        <time>2021-09-06T12:41:18Z</time>
      </trkpt>
      <trkpt lat="44.53887" lon="5.53226">
        <ele>965.1</ele>
        <time>2021-09-06T12:41:19Z</time>
      </trkpt>
      <trkpt lat="44.53857" lon="5.53223">
        <ele>962.4</ele>
        <time>2021-09-06T13:01:32Z</time>
      </trkpt>
      <trkpt lat="44.53862" lon="5.53227">
        <ele>961.9</ele>
        <time>2021-09-06T13:01:34Z</time>
      </trkpt>
      <trkpt lat="44.53866" lon="5.53229">
        <ele>961.5</ele>
        <time>2021-09-06T13:01:35Z</time>
      </trkpt>
      <trkpt lat="44.53869" lon="5.53232">
        <ele>961.2</ele>
        <time>2021-09-06T13:01:36Z</time>
      </trkpt>
      <trkpt lat="44.53872" lon="5.53235">
        <ele>960.9</ele>
        <time>2021-09-06T13:01:37Z</time>
      </trkpt>
      <trkpt lat="44.53873" lon="5.53235">
        <ele>960.9</ele>
        <time>2021-09-06T13:01:38Z</time>
      </trkpt>
      <trkpt lat="44.53875" lon="5.53238">
        <ele>960.6</ele>
        <time>2021-09-06T13:01:40Z</time>
      </trkpt>
      <trkpt lat="44.53877" lon="5.53239">
        <ele>960.5</ele>
        <time>2021-09-06T13:01:42Z</time>
      </trkpt>
      <trkpt lat="44.53879" lon="5.53241">
        <ele>960.3</ele>
        <time>2021-09-06T13:01:43Z</time>
      </trkpt>
      <trkpt lat="44.5388" lon="5.53242">
        <ele>960.2</ele>
        <time>2021-09-06T13:01:44Z</time>
      </trkpt>
      <trkpt lat="44.53882" lon="5.53244">
        <ele>960</ele>
        <time>2021-09-06T13:01:46Z</time>
      </trkpt>
      <trkpt lat="44.53884" lon="5.53245">
        <ele>959.9</ele>
        <time>2021-09-06T13:01:47Z</time>
      </trkpt>
      <trkpt lat="44.53885" lon="5.53246">
        <ele>959.8</ele>
        <time>2021-09-06T13:01:49Z</time>
      </trkpt>
      <trkpt lat="44.53887" lon="5.53248">
        <ele>959.7</ele>
        <time>2021-09-06T13:01:58Z</time>
      </trkpt>
      <trkpt lat="44.53888" lon="5.53249">
        <ele>959.5</ele>
        <time>2021-09-06T13:01:59Z</time>
      </trkpt>
      <trkpt lat="44.53891" lon="5.53253">
        <ele>959.2</ele>
        <time>2021-09-06T13:02:00Z</time>
      </trkpt>
      <trkpt lat="44.53894" lon="5.53258">
        <ele>959</ele>
        <time>2021-09-06T13:02:01Z</time>
      </trkpt>
      <trkpt lat="44.53897" lon="5.53263">
        <ele>958.7</ele>
        <time>2021-09-06T13:02:02Z</time>
      </trkpt>
      <trkpt lat="44.539" lon="5.53267">
        <ele>958.6</ele>
        <time>2021-09-06T13:02:03Z</time>
      </trkpt>
      <trkpt lat="44.53902" lon="5.5327">
        <ele>958.4</ele>
        <time>2021-09-06T13:02:04Z</time>
      </trkpt>
      <trkpt lat="44.53904" lon="5.53274">
        <ele>958.2</ele>
        <time>2021-09-06T13:02:05Z</time>
      </trkpt>
      <trkpt lat="44.53906" lon="5.53278">
        <ele>958</ele>
        <time>2021-09-06T13:02:06Z</time>
      </trkpt>
      <trkpt lat="44.53908" lon="5.53282">
        <ele>957.8</ele>
        <time>2021-09-06T13:02:07Z</time>
      </trkpt>
      <trkpt lat="44.53911" lon="5.5329">
        <ele>957.2</ele>
        <time>2021-09-06T13:02:08Z</time>
      </trkpt>
      <trkpt lat="44.53913" lon="5.53295">
        <ele>956.7</ele>
        <time>2021-09-06T13:02:10Z</time>
      </trkpt>
      <trkpt lat="44.53916" lon="5.53301">
        <ele>956</ele>
        <time>2021-09-06T13:02:11Z</time>
      </trkpt>
      <trkpt lat="44.53918" lon="5.53306">
        <ele>955.3</ele>
        <time>2021-09-06T13:02:12Z</time>
      </trkpt>
      <trkpt lat="44.5392" lon="5.5331">
        <ele>954.7</ele>
        <time>2021-09-06T13:02:13Z</time>
      </trkpt>
      <trkpt lat="44.53923" lon="5.53316">
        <ele>953.8</ele>
        <time>2021-09-06T13:02:14Z</time>
      </trkpt>
      <trkpt lat="44.53925" lon="5.53321">
        <ele>953.2</ele>
        <time>2021-09-06T13:02:16Z</time>
      </trkpt>
      <trkpt lat="44.53928" lon="5.53326">
        <ele>952.6</ele>
        <time>2021-09-06T13:02:17Z</time>
      </trkpt>
      <trkpt lat="44.5393" lon="5.5333">
        <ele>952.1</ele>
        <time>2021-09-06T13:02:18Z</time>
      </trkpt>
      <trkpt lat="44.53931" lon="5.53335">
        <ele>951.6</ele>
        <time>2021-09-06T13:02:19Z</time>
      </trkpt>
      <trkpt lat="44.5393" lon="5.53342">
        <ele>951</ele>
        <time>2021-09-06T13:02:21Z</time>
      </trkpt>
      <trkpt lat="44.53929" lon="5.53345">
        <ele>950.7</ele>
        <time>2021-09-06T13:02:22Z</time>
      </trkpt>
      <trkpt lat="44.53929" lon="5.53346">
        <ele>950.6</ele>
        <time>2021-09-06T13:02:24Z</time>
      </trkpt>
      <trkpt lat="44.53928" lon="5.53343">
        <ele>950.4</ele>
        <time>2021-09-06T13:02:25Z</time>
      </trkpt>
      <trkpt lat="44.53928" lon="5.53342">
        <ele>950.3</ele>
        <time>2021-09-06T13:02:27Z</time>
      </trkpt>
      <trkpt lat="44.53928" lon="5.53342">
        <ele>950.3</ele>
        <time>2021-09-06T13:02:28Z</time>
      </trkpt>
      <trkpt lat="44.53928" lon="5.53342">
        <ele>950.3</ele>
        <time>2021-09-06T13:02:29Z</time>
      </trkpt>
      <trkpt lat="44.53928" lon="5.53341">
        <ele>950.3</ele>
        <time>2021-09-06T13:02:31Z</time>
      </trkpt>
      <trkpt lat="44.53927" lon="5.53341">
        <ele>950.3</ele>
        <time>2021-09-06T13:02:33Z</time>
      </trkpt>
      <trkpt lat="44.53914" lon="5.53334">
        <ele>949</ele>
        <time>2021-09-06T13:03:06Z</time>
      </trkpt>
      <trkpt lat="44.53906" lon="5.53325">
        <ele>948.3</ele>
        <time>2021-09-06T13:03:08Z</time>
      </trkpt>
      <trkpt lat="44.53901" lon="5.53318">
        <ele>947.8</ele>
        <time>2021-09-06T13:03:09Z</time>
      </trkpt>
      <trkpt lat="44.53895" lon="5.53312">
        <ele>947.3</ele>
        <time>2021-09-06T13:03:10Z</time>
      </trkpt>
      <trkpt lat="44.53886" lon="5.53304">
        <ele>946.4</ele>
        <time>2021-09-06T13:03:12Z</time>
      </trkpt>
      <trkpt lat="44.5388" lon="5.53299">
        <ele>945.8</ele>
        <time>2021-09-06T13:03:13Z</time>
      </trkpt>
      <trkpt lat="44.53875" lon="5.53294">
        <ele>945.2</ele>
        <time>2021-09-06T13:03:14Z</time>
      </trkpt>
      <trkpt lat="44.53868" lon="5.53289">
        <ele>944.6</ele>
        <time>2021-09-06T13:03:16Z</time>
      </trkpt>
      <trkpt lat="44.53863" lon="5.53287">
        <ele>944</ele>
        <time>2021-09-06T13:03:17Z</time>
      </trkpt>
      <trkpt lat="44.53858" lon="5.53285">
        <ele>943.6</ele>
        <time>2021-09-06T13:03:18Z</time>
      </trkpt>
      <trkpt lat="44.53854" lon="5.53283">
        <ele>943.2</ele>
        <time>2021-09-06T13:03:19Z</time>
      </trkpt>
      <trkpt lat="44.53846" lon="5.53278">
        <ele>942.4</ele>
        <time>2021-09-06T13:03:21Z</time>
      </trkpt>
      <trkpt lat="44.53842" lon="5.53275">
        <ele>942</ele>
        <time>2021-09-06T13:03:22Z</time>
      </trkpt>
      <trkpt lat="44.53837" lon="5.53272">
        <ele>941.6</ele>
        <time>2021-09-06T13:03:23Z</time>
      </trkpt>
      <trkpt lat="44.5383" lon="5.53265">
        <ele>940.9</ele>
        <time>2021-09-06T13:03:25Z</time>
      </trkpt>
      <trkpt lat="44.53823" lon="5.53258">
        <ele>940.3</ele>
        <time>2021-09-06T13:03:27Z</time>
      </trkpt>
      <trkpt lat="44.53818" lon="5.53253">
        <ele>939.9</ele>
        <time>2021-09-06T13:03:28Z</time>
      </trkpt>
      <trkpt lat="44.53816" lon="5.53251">
        <ele>939.7</ele>
        <time>2021-09-06T13:03:29Z</time>
      </trkpt>
      <trkpt lat="44.53809" lon="5.53243">
        <ele>939</ele>
        <time>2021-09-06T13:03:31Z</time>
      </trkpt>
      <trkpt lat="44.53803" lon="5.5324">
        <ele>938.6</ele>
        <time>2021-09-06T13:03:33Z</time>
      </trkpt>
      <trkpt lat="44.538" lon="5.53242">
        <ele>938.3</ele>
        <time>2021-09-06T13:03:34Z</time>
      </trkpt>
      <trkpt lat="44.53794" lon="5.53237">
        <ele>937.7</ele>
        <time>2021-09-06T13:03:35Z</time>
      </trkpt>
      <trkpt lat="44.53788" lon="5.53236">
        <ele>937.3</ele>
        <time>2021-09-06T13:03:36Z</time>
      </trkpt>
      <trkpt lat="44.53783" lon="5.53237">
        <ele>936.9</ele>
        <time>2021-09-06T13:03:38Z</time>
      </trkpt>
      <trkpt lat="44.53777" lon="5.53239">
        <ele>936.5</ele>
        <time>2021-09-06T13:03:39Z</time>
      </trkpt>
      <trkpt lat="44.53767" lon="5.53243">
        <ele>935.7</ele>
        <time>2021-09-06T13:03:41Z</time>
      </trkpt>
      <trkpt lat="44.53762" lon="5.53238">
        <ele>935.2</ele>
        <time>2021-09-06T13:03:42Z</time>
      </trkpt>
      <trkpt lat="44.53757" lon="5.53238">
        <ele>934.6</ele>
        <time>2021-09-06T13:03:44Z</time>
      </trkpt>
      <trkpt lat="44.53751" lon="5.53239">
        <ele>933.8</ele>
        <time>2021-09-06T13:03:45Z</time>
      </trkpt>
      <trkpt lat="44.53747" lon="5.5324">
        <ele>933.2</ele>
        <time>2021-09-06T13:03:46Z</time>
      </trkpt>
      <trkpt lat="44.53743" lon="5.53241">
        <ele>932.7</ele>
        <time>2021-09-06T13:03:48Z</time>
      </trkpt>
      <trkpt lat="44.5374" lon="5.53241">
        <ele>932.3</ele>
        <time>2021-09-06T13:03:49Z</time>
      </trkpt>
      <trkpt lat="44.5374" lon="5.53242">
        <ele>932.2</ele>
        <time>2021-09-06T13:03:50Z</time>
      </trkpt>
      <trkpt lat="44.53741" lon="5.53242">
        <ele>932</ele>
        <time>2021-09-06T13:03:51Z</time>
      </trkpt>
      <trkpt lat="44.53742" lon="5.53246">
        <ele>931.6</ele>
        <time>2021-09-06T13:03:53Z</time>
      </trkpt>
      <trkpt lat="44.53745" lon="5.53252">
        <ele>931.1</ele>
        <time>2021-09-06T13:03:54Z</time>
      </trkpt>
      <trkpt lat="44.53746" lon="5.53255">
        <ele>930.8</ele>
        <time>2021-09-06T13:03:55Z</time>
      </trkpt>
      <trkpt lat="44.53746" lon="5.53257">
        <ele>930.7</ele>
        <time>2021-09-06T13:03:56Z</time>
      </trkpt>
      <trkpt lat="44.53749" lon="5.53282">
        <ele>929.2</ele>
        <time>2021-09-06T13:03:57Z</time>
      </trkpt>
      <trkpt lat="44.53749" lon="5.53293">
        <ele>928.6</ele>
        <time>2021-09-06T13:03:58Z</time>
      </trkpt>
      <trkpt lat="44.53748" lon="5.53301">
        <ele>928.3</ele>
        <time>2021-09-06T13:03:59Z</time>
      </trkpt>
      <trkpt lat="44.53745" lon="5.53308">
        <ele>928</ele>
        <time>2021-09-06T13:04:01Z</time>
      </trkpt>
      <trkpt lat="44.53738" lon="5.53323">
        <ele>927.1</ele>
        <time>2021-09-06T13:04:03Z</time>
      </trkpt>
      <trkpt lat="44.53724" lon="5.53339">
        <ele>925.3</ele>
        <time>2021-09-06T13:04:04Z</time>
      </trkpt>
      <trkpt lat="44.53717" lon="5.53349">
        <ele>924.6</ele>
        <time>2021-09-06T13:04:05Z</time>
      </trkpt>
      <trkpt lat="44.53708" lon="5.53362">
        <ele>923.7</ele>
        <time>2021-09-06T13:04:07Z</time>
      </trkpt>
      <trkpt lat="44.53703" lon="5.53374">
        <ele>922.8</ele>
        <time>2021-09-06T13:04:09Z</time>
      </trkpt>
      <trkpt lat="44.53702" lon="5.53381">
        <ele>922.3</ele>
        <time>2021-09-06T13:04:10Z</time>
      </trkpt>
      <trkpt lat="44.53708" lon="5.53382">
        <ele>921.7</ele>
        <time>2021-09-06T13:04:11Z</time>
      </trkpt>
      <trkpt lat="44.53711" lon="5.53388">
        <ele>921.1</ele>
        <time>2021-09-06T13:04:13Z</time>
      </trkpt>
      <trkpt lat="44.53721" lon="5.53392">
        <ele>920</ele>
        <time>2021-09-06T13:04:14Z</time>
      </trkpt>
      <trkpt lat="44.53727" lon="5.53397">
        <ele>919.4</ele>
        <time>2021-09-06T13:04:15Z</time>
      </trkpt>
      <trkpt lat="44.53735" lon="5.5341">
        <ele>918</ele>
        <time>2021-09-06T13:04:17Z</time>
      </trkpt>
      <trkpt lat="44.5374" lon="5.53424">
        <ele>916.3</ele>
        <time>2021-09-06T13:04:19Z</time>
      </trkpt>
      <trkpt lat="44.53744" lon="5.5344">
        <ele>914.6</ele>
        <time>2021-09-06T13:04:21Z</time>
      </trkpt>
      <trkpt lat="44.53745" lon="5.53447">
        <ele>913.8</ele>
        <time>2021-09-06T13:04:22Z</time>
      </trkpt>
      <trkpt lat="44.53746" lon="5.53454">
        <ele>913</ele>
        <time>2021-09-06T13:04:23Z</time>
      </trkpt>
      <trkpt lat="44.53746" lon="5.53457">
        <ele>912.6</ele>
        <time>2021-09-06T13:04:24Z</time>
      </trkpt>
      <trkpt lat="44.53744" lon="5.53463">
        <ele>912</ele>
        <time>2021-09-06T13:04:25Z</time>
      </trkpt>
      <trkpt lat="44.5374" lon="5.53468">
        <ele>911.1</ele>
        <time>2021-09-06T13:04:26Z</time>
      </trkpt>
      <trkpt lat="44.53733" lon="5.53482">
        <ele>909.5</ele>
        <time>2021-09-06T13:04:28Z</time>
      </trkpt>
      <trkpt lat="44.53732" lon="5.53491">
        <ele>908.7</ele>
        <time>2021-09-06T13:04:29Z</time>
      </trkpt>
      <trkpt lat="44.53732" lon="5.535">
        <ele>908.1</ele>
        <time>2021-09-06T13:04:30Z</time>
      </trkpt>
      <trkpt lat="44.53733" lon="5.53508">
        <ele>907.6</ele>
        <time>2021-09-06T13:04:31Z</time>
      </trkpt>
      <trkpt lat="44.53736" lon="5.53521">
        <ele>906.7</ele>
        <time>2021-09-06T13:04:33Z</time>
      </trkpt>
      <trkpt lat="44.53734" lon="5.53527">
        <ele>906.3</ele>
        <time>2021-09-06T13:04:34Z</time>
      </trkpt>
      <trkpt lat="44.53735" lon="5.53534">
        <ele>905.9</ele>
        <time>2021-09-06T13:04:36Z</time>
      </trkpt>
      <trkpt lat="44.53733" lon="5.5354">
        <ele>904.7</ele>
        <time>2021-09-06T13:04:37Z</time>
      </trkpt>
      <trkpt lat="44.53731" lon="5.53546">
        <ele>904.8</ele>
        <time>2021-09-06T13:04:38Z</time>
      </trkpt>
      <trkpt lat="44.53728" lon="5.5355">
        <ele>905.1</ele>
        <time>2021-09-06T13:04:39Z</time>
      </trkpt>
      <trkpt lat="44.53726" lon="5.53552">
        <ele>905.3</ele>
        <time>2021-09-06T13:04:40Z</time>
      </trkpt>
      <trkpt lat="44.53723" lon="5.53555">
        <ele>906.3</ele>
        <time>2021-09-06T13:04:41Z</time>
      </trkpt>
      <trkpt lat="44.5372" lon="5.53558">
        <ele>906.6</ele>
        <time>2021-09-06T13:04:43Z</time>
      </trkpt>
      <trkpt lat="44.53719" lon="5.53559">
        <ele>906.6</ele>
        <time>2021-09-06T13:04:45Z</time>
      </trkpt>
      <trkpt lat="44.5372" lon="5.53556">
        <ele>907.2</ele>
        <time>2021-09-06T13:04:46Z</time>
      </trkpt>
      <trkpt lat="44.53721" lon="5.53554">
        <ele>906.3</ele>
        <time>2021-09-06T13:04:47Z</time>
      </trkpt>
      <trkpt lat="44.53712" lon="5.53562">
        <ele>907.8</ele>
        <time>2021-09-06T13:04:49Z</time>
      </trkpt>
      <trkpt lat="44.53702" lon="5.53569">
        <ele>910.9</ele>
        <time>2021-09-06T13:04:50Z</time>
      </trkpt>
      <trkpt lat="44.53692" lon="5.53577">
        <ele>913.1</ele>
        <time>2021-09-06T13:04:52Z</time>
      </trkpt>
      <trkpt lat="44.53682" lon="5.53585">
        <ele>915.5</ele>
        <time>2021-09-06T13:04:53Z</time>
      </trkpt>
      <trkpt lat="44.53672" lon="5.53593">
        <ele>917.5</ele>
        <time>2021-09-06T13:06:32Z</time>
      </trkpt>
      <trkpt lat="44.53663" lon="5.536">
        <ele>920.1</ele>
        <time>2021-09-06T13:06:33Z</time>
      </trkpt>
      <trkpt lat="44.53657" lon="5.53604">
        <ele>922.1</ele>
        <time>2021-09-06T13:06:34Z</time>
      </trkpt>
      <trkpt lat="44.53653" lon="5.53606">
        <ele>923.2</ele>
        <time>2021-09-06T13:06:35Z</time>
      </trkpt>
      <trkpt lat="44.53646" lon="5.53611">
        <ele>926</ele>
        <time>2021-09-06T13:06:37Z</time>
      </trkpt>
      <trkpt lat="44.53639" lon="5.53616">
        <ele>928.2</ele>
        <time>2021-09-06T13:06:38Z</time>
      </trkpt>
      <trkpt lat="44.53633" lon="5.53621">
        <ele>930.5</ele>
        <time>2021-09-06T13:06:40Z</time>
      </trkpt>
      <trkpt lat="44.53629" lon="5.53624">
        <ele>931.3</ele>
        <time>2021-09-06T13:06:41Z</time>
      </trkpt>
      <trkpt lat="44.53627" lon="5.53627">
        <ele>932.1</ele>
        <time>2021-09-06T13:06:42Z</time>
      </trkpt>
      <trkpt lat="44.53627" lon="5.53629">
        <ele>932.1</ele>
        <time>2021-09-06T13:06:44Z</time>
      </trkpt>
      <trkpt lat="44.53626" lon="5.53631">
        <ele>931.8</ele>
        <time>2021-09-06T13:06:45Z</time>
      </trkpt>
      <trkpt lat="44.53625" lon="5.53632">
        <ele>933</ele>
        <time>2021-09-06T13:06:46Z</time>
      </trkpt>
      <trkpt lat="44.53624" lon="5.53634">
        <ele>932.6</ele>
        <time>2021-09-06T13:06:47Z</time>
      </trkpt>
      <trkpt lat="44.53624" lon="5.53636">
        <ele>932.6</ele>
        <time>2021-09-06T13:06:48Z</time>
      </trkpt>
      <trkpt lat="44.53624" lon="5.53638">
        <ele>932.1</ele>
        <time>2021-09-06T13:06:50Z</time>
      </trkpt>
      <trkpt lat="44.53624" lon="5.53644">
        <ele>931.7</ele>
        <time>2021-09-06T13:06:52Z</time>
      </trkpt>
      <trkpt lat="44.53625" lon="5.53646">
        <ele>931.7</ele>
        <time>2021-09-06T13:06:54Z</time>
      </trkpt>
      <trkpt lat="44.53626" lon="5.53647">
        <ele>929.9</ele>
        <time>2021-09-06T13:06:55Z</time>
      </trkpt>
      <trkpt lat="44.53626" lon="5.53648">
        <ele>929.9</ele>
        <time>2021-09-06T13:06:56Z</time>
      </trkpt>
      <trkpt lat="44.53625" lon="5.53649">
        <ele>931.2</ele>
        <time>2021-09-06T13:06:57Z</time>
      </trkpt>
      <trkpt lat="44.53625" lon="5.53649">
        <ele>931.2</ele>
        <time>2021-09-06T13:06:58Z</time>
      </trkpt>
      <trkpt lat="44.53624" lon="5.53649">
        <ele>931.2</ele>
        <time>2021-09-06T13:06:59Z</time>
      </trkpt>
      <trkpt lat="44.53624" lon="5.5365">
        <ele>931.2</ele>
        <time>2021-09-06T13:07:00Z</time>
      </trkpt>
      <trkpt lat="44.53623" lon="5.5365">
        <ele>931.2</ele>
        <time>2021-09-06T13:07:01Z</time>
      </trkpt>
      <trkpt lat="44.53616" lon="5.53653">
        <ele>934.9</ele>
        <time>2021-09-06T13:07:03Z</time>
      </trkpt>
      <trkpt lat="44.53609" lon="5.53655">
        <ele>937.9</ele>
        <time>2021-09-06T13:07:04Z</time>
      </trkpt>
      <trkpt lat="44.53603" lon="5.53657">
        <ele>940.3</ele>
        <time>2021-09-06T13:07:06Z</time>
      </trkpt>
      <trkpt lat="44.536" lon="5.53658">
        <ele>941.7</ele>
        <time>2021-09-06T13:07:08Z</time>
      </trkpt>
      <trkpt lat="44.53598" lon="5.53658">
        <ele>941.7</ele>
        <time>2021-09-06T13:07:09Z</time>
      </trkpt>
      <trkpt lat="44.53598" lon="5.53659">
        <ele>943</ele>
        <time>2021-09-06T13:07:11Z</time>
      </trkpt>
      <trkpt lat="44.53597" lon="5.53659">
        <ele>943</ele>
        <time>2021-09-06T13:07:12Z</time>
      </trkpt>
      <trkpt lat="44.53596" lon="5.5366">
        <ele>942.7</ele>
        <time>2021-09-06T13:07:14Z</time>
      </trkpt>
      <trkpt lat="44.53595" lon="5.53661">
        <ele>942.7</ele>
        <time>2021-09-06T13:07:15Z</time>
      </trkpt>
      <trkpt lat="44.53595" lon="5.53663">
        <ele>944</ele>
        <time>2021-09-06T13:07:17Z</time>
      </trkpt>
      <trkpt lat="44.53594" lon="5.53664">
        <ele>943.7</ele>
        <time>2021-09-06T13:07:18Z</time>
      </trkpt>
      <trkpt lat="44.53594" lon="5.53666">
        <ele>943.7</ele>
        <time>2021-09-06T13:07:20Z</time>
      </trkpt>
      <trkpt lat="44.53593" lon="5.53667">
        <ele>943.7</ele>
        <time>2021-09-06T13:07:21Z</time>
      </trkpt>
      <trkpt lat="44.53593" lon="5.53669">
        <ele>943.4</ele>
        <time>2021-09-06T13:07:23Z</time>
      </trkpt>
      <trkpt lat="44.53594" lon="5.53671">
        <ele>943.4</ele>
        <time>2021-09-06T13:07:25Z</time>
      </trkpt>
      <trkpt lat="44.53596" lon="5.53672">
        <ele>942</ele>
        <time>2021-09-06T13:07:26Z</time>
      </trkpt>
      <trkpt lat="44.53596" lon="5.53672">
        <ele>942</ele>
        <time>2021-09-06T13:07:27Z</time>
      </trkpt>
      <trkpt lat="44.53598" lon="5.53673">
        <ele>941.7</ele>
        <time>2021-09-06T13:07:29Z</time>
      </trkpt>
      <trkpt lat="44.53599" lon="5.53674">
        <ele>940.3</ele>
        <time>2021-09-06T13:07:31Z</time>
      </trkpt>
      <trkpt lat="44.53599" lon="5.53675">
        <ele>940.3</ele>
        <time>2021-09-06T13:07:32Z</time>
      </trkpt>
      <trkpt lat="44.53599" lon="5.53675">
        <ele>940.3</ele>
        <time>2021-09-06T13:07:34Z</time>
      </trkpt>
      <trkpt lat="44.536" lon="5.53675">
        <ele>940.3</ele>
        <time>2021-09-06T13:07:35Z</time>
      </trkpt>
      <trkpt lat="44.536" lon="5.53675">
        <ele>940.3</ele>
        <time>2021-09-06T13:07:37Z</time>
      </trkpt>
      <trkpt lat="44.536" lon="5.53676">
        <ele>940.3</ele>
        <time>2021-09-06T13:07:38Z</time>
      </trkpt>
      <trkpt lat="44.536" lon="5.53676">
        <ele>940.3</ele>
        <time>2021-09-06T13:07:39Z</time>
      </trkpt>
      <trkpt lat="44.536" lon="5.53676">
        <ele>940.3</ele>
        <time>2021-09-06T13:07:40Z</time>
      </trkpt>
      <trkpt lat="44.53601" lon="5.53677">
        <ele>940</ele>
        <time>2021-09-06T13:07:41Z</time>
      </trkpt>
      <trkpt lat="44.53601" lon="5.53678">
        <ele>940</ele>
        <time>2021-09-06T13:07:43Z</time>
      </trkpt>
      <trkpt lat="44.536" lon="5.53679">
        <ele>940</ele>
        <time>2021-09-06T13:07:45Z</time>
      </trkpt>
      <trkpt lat="44.53599" lon="5.53679">
        <ele>940</ele>
        <time>2021-09-06T13:07:46Z</time>
      </trkpt>
      <trkpt lat="44.53599" lon="5.53679">
        <ele>940</ele>
        <time>2021-09-06T13:07:47Z</time>
      </trkpt>
      <trkpt lat="44.53597" lon="5.5368">
        <ele>941.4</ele>
        <time>2021-09-06T13:07:49Z</time>
      </trkpt>
      <trkpt lat="44.53596" lon="5.5368">
        <ele>941.4</ele>
        <time>2021-09-06T13:07:50Z</time>
      </trkpt>
      <trkpt lat="44.53596" lon="5.5368">
        <ele>941.4</ele>
        <time>2021-09-06T13:07:51Z</time>
      </trkpt>
      <trkpt lat="44.53595" lon="5.53681">
        <ele>942.8</ele>
        <time>2021-09-06T13:07:53Z</time>
      </trkpt>
      <trkpt lat="44.53594" lon="5.53681">
        <ele>942.5</ele>
        <time>2021-09-06T13:07:54Z</time>
      </trkpt>
      <trkpt lat="44.53593" lon="5.53682">
        <ele>942.5</ele>
        <time>2021-09-06T13:07:55Z</time>
      </trkpt>
      <trkpt lat="44.53592" lon="5.53684">
        <ele>943.9</ele>
        <time>2021-09-06T13:07:56Z</time>
      </trkpt>
      <trkpt lat="44.5359" lon="5.53686">
        <ele>943.6</ele>
        <time>2021-09-06T13:07:58Z</time>
      </trkpt>
      <trkpt lat="44.53589" lon="5.53687">
        <ele>943.6</ele>
        <time>2021-09-06T13:07:59Z</time>
      </trkpt>
      <trkpt lat="44.53588" lon="5.53688">
        <ele>945</ele>
        <time>2021-09-06T13:08:00Z</time>
      </trkpt>
      <trkpt lat="44.53588" lon="5.53689">
        <ele>945</ele>
        <time>2021-09-06T13:08:02Z</time>
      </trkpt>
      <trkpt lat="44.53587" lon="5.53689">
        <ele>945</ele>
        <time>2021-09-06T13:08:03Z</time>
      </trkpt>
      <trkpt lat="44.53587" lon="5.53689">
        <ele>945</ele>
        <time>2021-09-06T13:08:05Z</time>
      </trkpt>
      <trkpt lat="44.53586" lon="5.53689">
        <ele>944.9</ele>
        <time>2021-09-06T13:08:07Z</time>
      </trkpt>
      <trkpt lat="44.53585" lon="5.53689">
        <ele>946.4</ele>
        <time>2021-09-06T13:08:08Z</time>
      </trkpt>
      <trkpt lat="44.53584" lon="5.53688">
        <ele>946.4</ele>
        <time>2021-09-06T13:08:09Z</time>
      </trkpt>
      <trkpt lat="44.53584" lon="5.53688">
        <ele>946.4</ele>
        <time>2021-09-06T13:08:10Z</time>
      </trkpt>
      <trkpt lat="44.53583" lon="5.53688">
        <ele>947.9</ele>
        <time>2021-09-06T13:08:12Z</time>
      </trkpt>
      <trkpt lat="44.53582" lon="5.53688">
        <ele>947.9</ele>
        <time>2021-09-06T13:08:13Z</time>
      </trkpt>
      <trkpt lat="44.53582" lon="5.53688">
        <ele>947.9</ele>
        <time>2021-09-06T13:08:15Z</time>
      </trkpt>
      <trkpt lat="44.53581" lon="5.53688">
        <ele>947.9</ele>
        <time>2021-09-06T13:08:16Z</time>
      </trkpt>
      <trkpt lat="44.53581" lon="5.53688">
        <ele>947.9</ele>
        <time>2021-09-06T13:08:17Z</time>
      </trkpt>
      <trkpt lat="44.53581" lon="5.53688">
        <ele>947.9</ele>
        <time>2021-09-06T13:08:19Z</time>
      </trkpt>
      <trkpt lat="44.53581" lon="5.53688">
        <ele>947.9</ele>
        <time>2021-09-06T13:08:21Z</time>
      </trkpt>
      <trkpt lat="44.5358" lon="5.53688">
        <ele>947.9</ele>
        <time>2021-09-06T13:08:22Z</time>
      </trkpt>
      <trkpt lat="44.5358" lon="5.53687">
        <ele>947.9</ele>
        <time>2021-09-06T13:08:23Z</time>
      </trkpt>
      <trkpt lat="44.5358" lon="5.53687">
        <ele>947.9</ele>
        <time>2021-09-06T13:08:25Z</time>
      </trkpt>
      <trkpt lat="44.5358" lon="5.53686">
        <ele>947.9</ele>
        <time>2021-09-06T13:08:27Z</time>
      </trkpt>
      <trkpt lat="44.5358" lon="5.53686">
        <ele>947.9</ele>
        <time>2021-09-06T13:08:28Z</time>
      </trkpt>
      <trkpt lat="44.5358" lon="5.53686">
        <ele>947.9</ele>
        <time>2021-09-06T13:08:29Z</time>
      </trkpt>
      <trkpt lat="44.5358" lon="5.53686">
        <ele>947.9</ele>
        <time>2021-09-06T13:08:30Z</time>
      </trkpt>
      <trkpt lat="44.5358" lon="5.53687">
        <ele>947.9</ele>
        <time>2021-09-06T13:08:31Z</time>
      </trkpt>
      <trkpt lat="44.5358" lon="5.53687">
        <ele>947.9</ele>
        <time>2021-09-06T13:08:33Z</time>
      </trkpt>
      <trkpt lat="44.5358" lon="5.53687">
        <ele>949.4</ele>
        <time>2021-09-06T13:08:34Z</time>
      </trkpt>
      <trkpt lat="44.5358" lon="5.53687">
        <ele>949.4</ele>
        <time>2021-09-06T13:08:35Z</time>
      </trkpt>
      <trkpt lat="44.53579" lon="5.53687">
        <ele>949.4</ele>
        <time>2021-09-06T13:08:36Z</time>
      </trkpt>
      <trkpt lat="44.53579" lon="5.53687">
        <ele>949.4</ele>
        <time>2021-09-06T13:08:37Z</time>
      </trkpt>
      <trkpt lat="44.53578" lon="5.53688">
        <ele>949.4</ele>
        <time>2021-09-06T13:08:38Z</time>
      </trkpt>
      <trkpt lat="44.53577" lon="5.53689">
        <ele>949.4</ele>
        <time>2021-09-06T13:08:40Z</time>
      </trkpt>
      <trkpt lat="44.53576" lon="5.5369">
        <ele>950.5</ele>
        <time>2021-09-06T13:08:41Z</time>
      </trkpt>
      <trkpt lat="44.53575" lon="5.53691">
        <ele>950.5</ele>
        <time>2021-09-06T13:08:42Z</time>
      </trkpt>
      <trkpt lat="44.53574" lon="5.53691">
        <ele>951.9</ele>
        <time>2021-09-06T13:08:44Z</time>
      </trkpt>
      <trkpt lat="44.53572" lon="5.53691">
        <ele>951.9</ele>
        <time>2021-09-06T13:08:45Z</time>
      </trkpt>
      <trkpt lat="44.53571" lon="5.53692">
        <ele>951.9</ele>
        <time>2021-09-06T13:08:47Z</time>
      </trkpt>
      <trkpt lat="44.53571" lon="5.53692">
        <ele>951.9</ele>
        <time>2021-09-06T13:08:48Z</time>
      </trkpt>
      <trkpt lat="44.5357" lon="5.53693">
        <ele>953.2</ele>
        <time>2021-09-06T13:08:50Z</time>
      </trkpt>
      <trkpt lat="44.53571" lon="5.53697">
        <ele>951.6</ele>
        <time>2021-09-06T13:08:52Z</time>
      </trkpt>
      <trkpt lat="44.53573" lon="5.537">
        <ele>951.3</ele>
        <time>2021-09-06T13:08:54Z</time>
      </trkpt>
      <trkpt lat="44.53574" lon="5.53701">
        <ele>949.9</ele>
        <time>2021-09-06T13:08:55Z</time>
      </trkpt>
      <trkpt lat="44.53577" lon="5.53716">
        <ele>947.1</ele>
        <time>2021-09-06T13:08:57Z</time>
      </trkpt>
      <trkpt lat="44.53578" lon="5.53727">
        <ele>946.6</ele>
        <time>2021-09-06T13:08:58Z</time>
      </trkpt>
      <trkpt lat="44.53577" lon="5.53737">
        <ele>946.1</ele>
        <time>2021-09-06T13:08:59Z</time>
      </trkpt>
      <trkpt lat="44.53574" lon="5.53741">
        <ele>947.5</ele>
        <time>2021-09-06T13:09:01Z</time>
      </trkpt>
      <trkpt lat="44.53572" lon="5.53742">
        <ele>948.8</ele>
        <time>2021-09-06T13:09:02Z</time>
      </trkpt>
      <trkpt lat="44.53566" lon="5.53745">
        <ele>952.4</ele>
        <time>2021-09-06T13:09:03Z</time>
      </trkpt>
      <trkpt lat="44.53561" lon="5.53754">
        <ele>955.3</ele>
        <time>2021-09-06T13:09:05Z</time>
      </trkpt>
      <trkpt lat="44.53559" lon="5.5376">
        <ele>955.2</ele>
        <time>2021-09-06T13:09:06Z</time>
      </trkpt>
      <trkpt lat="44.53557" lon="5.53762">
        <ele>956.9</ele>
        <time>2021-09-06T13:09:07Z</time>
      </trkpt>
      <trkpt lat="44.53556" lon="5.53763">
        <ele>957</ele>
        <time>2021-09-06T13:09:08Z</time>
      </trkpt>
      <trkpt lat="44.53555" lon="5.53764">
        <ele>957</ele>
        <time>2021-09-06T13:09:09Z</time>
      </trkpt>
      <trkpt lat="44.53555" lon="5.53765">
        <ele>958.7</ele>
        <time>2021-09-06T13:09:11Z</time>
      </trkpt>
      <trkpt lat="44.53555" lon="5.53765">
        <ele>958.7</ele>
        <time>2021-09-06T13:09:12Z</time>
      </trkpt>
      <trkpt lat="44.53555" lon="5.53766">
        <ele>958.7</ele>
        <time>2021-09-06T13:09:13Z</time>
      </trkpt>
      <trkpt lat="44.53555" lon="5.53767">
        <ele>958.7</ele>
        <time>2021-09-06T13:09:15Z</time>
      </trkpt>
      <trkpt lat="44.53555" lon="5.53769">
        <ele>958.7</ele>
        <time>2021-09-06T13:09:16Z</time>
      </trkpt>
      <trkpt lat="44.53554" lon="5.5377">
        <ele>958.7</ele>
        <time>2021-09-06T13:09:17Z</time>
      </trkpt>
      <trkpt lat="44.53388" lon="5.54002">
        <ele>1003</ele>
        <time>2021-09-06T13:18:24Z</time>
      </trkpt>
      <trkpt lat="44.53389" lon="5.54006">
        <ele>1002.9</ele>
        <time>2021-09-06T13:18:25Z</time>
      </trkpt>
      <trkpt lat="44.53392" lon="5.54011">
        <ele>1002.4</ele>
        <time>2021-09-06T13:18:27Z</time>
      </trkpt>
      <trkpt lat="44.53393" lon="5.54013">
        <ele>1001.8</ele>
        <time>2021-09-06T13:18:28Z</time>
      </trkpt>
      <trkpt lat="44.53393" lon="5.54014">
        <ele>1001.8</ele>
        <time>2021-09-06T13:18:29Z</time>
      </trkpt>
      <trkpt lat="44.53394" lon="5.54014">
        <ele>1001.8</ele>
        <time>2021-09-06T13:18:30Z</time>
      </trkpt>
      <trkpt lat="44.53394" lon="5.54014">
        <ele>1001.8</ele>
        <time>2021-09-06T13:18:32Z</time>
      </trkpt>
      <trkpt lat="44.53394" lon="5.54014">
        <ele>1001.8</ele>
        <time>2021-09-06T13:18:34Z</time>
      </trkpt>
      <trkpt lat="44.53394" lon="5.54014">
        <ele>1001.8</ele>
        <time>2021-09-06T13:18:35Z</time>
      </trkpt>
      <trkpt lat="44.53392" lon="5.54014">
        <ele>1002.2</ele>
        <time>2021-09-06T13:18:36Z</time>
      </trkpt>
      <trkpt lat="44.53391" lon="5.54015">
        <ele>1002.2</ele>
        <time>2021-09-06T13:18:37Z</time>
      </trkpt>
      <trkpt lat="44.5339" lon="5.54015">
        <ele>1002.6</ele>
        <time>2021-09-06T13:18:39Z</time>
      </trkpt>
      <trkpt lat="44.53388" lon="5.54016">
        <ele>1002.5</ele>
        <time>2021-09-06T13:18:40Z</time>
      </trkpt>
      <trkpt lat="44.53386" lon="5.54016">
        <ele>1002.9</ele>
        <time>2021-09-06T13:18:42Z</time>
      </trkpt>
      <trkpt lat="44.53384" lon="5.54016">
        <ele>1002.9</ele>
        <time>2021-09-06T13:18:43Z</time>
      </trkpt>
      <trkpt lat="44.53383" lon="5.54016">
        <ele>1003.3</ele>
        <time>2021-09-06T13:18:44Z</time>
      </trkpt>
      <trkpt lat="44.53383" lon="5.54016">
        <ele>1003.3</ele>
        <time>2021-09-06T13:18:46Z</time>
      </trkpt>
      <trkpt lat="44.53382" lon="5.54016">
        <ele>1003.3</ele>
        <time>2021-09-06T13:18:47Z</time>
      </trkpt>
      <trkpt lat="44.53381" lon="5.54017">
        <ele>1003.7</ele>
        <time>2021-09-06T13:18:48Z</time>
      </trkpt>
      <trkpt lat="44.5338" lon="5.54017">
        <ele>1003.7</ele>
        <time>2021-09-06T13:18:50Z</time>
      </trkpt>
      <trkpt lat="44.53379" lon="5.54016">
        <ele>1003.7</ele>
        <time>2021-09-06T13:18:51Z</time>
      </trkpt>
      <trkpt lat="44.53378" lon="5.54016">
        <ele>1003.7</ele>
        <time>2021-09-06T13:18:52Z</time>
      </trkpt>
      <trkpt lat="44.53376" lon="5.54017">
        <ele>1004.1</ele>
        <time>2021-09-06T13:18:54Z</time>
      </trkpt>
      <trkpt lat="44.53375" lon="5.54017">
        <ele>1004.1</ele>
        <time>2021-09-06T13:18:55Z</time>
      </trkpt>
      <trkpt lat="44.53374" lon="5.54018">
        <ele>1004.4</ele>
        <time>2021-09-06T13:18:56Z</time>
      </trkpt>
      <trkpt lat="44.53372" lon="5.54018">
        <ele>1004.4</ele>
        <time>2021-09-06T13:18:57Z</time>
      </trkpt>
      <trkpt lat="44.53371" lon="5.54018">
        <ele>1004.8</ele>
        <time>2021-09-06T13:18:58Z</time>
      </trkpt>
      <trkpt lat="44.5337" lon="5.54018">
        <ele>1004.8</ele>
        <time>2021-09-06T13:18:59Z</time>
      </trkpt>
      <trkpt lat="44.53368" lon="5.54017">
        <ele>1005.1</ele>
        <time>2021-09-06T13:19:00Z</time>
      </trkpt>
      <trkpt lat="44.53366" lon="5.54016">
        <ele>1005.1</ele>
        <time>2021-09-06T13:19:02Z</time>
      </trkpt>
      <trkpt lat="44.53365" lon="5.54016">
        <ele>1005.6</ele>
        <time>2021-09-06T13:19:03Z</time>
      </trkpt>
      <trkpt lat="44.53363" lon="5.54017">
        <ele>1005.6</ele>
        <time>2021-09-06T13:19:04Z</time>
      </trkpt>
      <trkpt lat="44.53362" lon="5.54017">
        <ele>1006.1</ele>
        <time>2021-09-06T13:19:06Z</time>
      </trkpt>
      <trkpt lat="44.53361" lon="5.54018">
        <ele>1006.1</ele>
        <time>2021-09-06T13:19:07Z</time>
      </trkpt>
      <trkpt lat="44.53359" lon="5.5402">
        <ele>1006.6</ele>
        <time>2021-09-06T13:19:08Z</time>
      </trkpt>
      <trkpt lat="44.53358" lon="5.54021">
        <ele>1006.4</ele>
        <time>2021-09-06T13:19:09Z</time>
      </trkpt>
      <trkpt lat="44.53355" lon="5.54024">
        <ele>1006.9</ele>
        <time>2021-09-06T13:19:11Z</time>
      </trkpt>
      <trkpt lat="44.53354" lon="5.54025">
        <ele>1006.8</ele>
        <time>2021-09-06T13:19:12Z</time>
      </trkpt>
      <trkpt lat="44.53351" lon="5.54028">
        <ele>1007.3</ele>
        <time>2021-09-06T13:19:13Z</time>
      </trkpt>
      <trkpt lat="44.53349" lon="5.54029">
        <ele>1007.6</ele>
        <time>2021-09-06T13:19:14Z</time>
      </trkpt>
      <trkpt lat="44.53346" lon="5.54032">
        <ele>1008</ele>
        <time>2021-09-06T13:19:16Z</time>
      </trkpt>
      <trkpt lat="44.53344" lon="5.54033">
        <ele>1008.4</ele>
        <time>2021-09-06T13:19:18Z</time>
      </trkpt>
      <trkpt lat="44.53343" lon="5.54034">
        <ele>1008.4</ele>
        <time>2021-09-06T13:19:19Z</time>
      </trkpt>
      <trkpt lat="44.53342" lon="5.54035">
        <ele>1008.4</ele>
        <time>2021-09-06T13:19:20Z</time>
      </trkpt>
      <trkpt lat="44.53342" lon="5.54035">
        <ele>1008.4</ele>
        <time>2021-09-06T13:19:21Z</time>
      </trkpt>
      <trkpt lat="44.53342" lon="5.54035">
        <ele>1008.4</ele>
        <time>2021-09-06T13:19:22Z</time>
      </trkpt>
      <trkpt lat="44.53341" lon="5.54035">
        <ele>1008.4</ele>
        <time>2021-09-06T13:19:23Z</time>
      </trkpt>
      <trkpt lat="44.53341" lon="5.54035">
        <ele>1008.4</ele>
        <time>2021-09-06T13:19:25Z</time>
      </trkpt>
      <trkpt lat="44.53341" lon="5.54035">
        <ele>1008.9</ele>
        <time>2021-09-06T13:19:26Z</time>
      </trkpt>
      <trkpt lat="44.5334" lon="5.54036">
        <ele>1008.9</ele>
        <time>2021-09-06T13:19:27Z</time>
      </trkpt>
      <trkpt lat="44.5334" lon="5.54037">
        <ele>1008.8</ele>
        <time>2021-09-06T13:19:28Z</time>
      </trkpt>
      <trkpt lat="44.53288" lon="5.54074">
        <ele>1019.4</ele>
        <time>2021-09-06T13:20:42Z</time>
      </trkpt>
      <trkpt lat="44.53286" lon="5.54078">
        <ele>1019.3</ele>
        <time>2021-09-06T13:20:43Z</time>
      </trkpt>
      <trkpt lat="44.53285" lon="5.54083">
        <ele>1019.9</ele>
        <time>2021-09-06T13:20:45Z</time>
      </trkpt>
      <trkpt lat="44.53284" lon="5.54084">
        <ele>1019.9</ele>
        <time>2021-09-06T13:20:47Z</time>
      </trkpt>
      <trkpt lat="44.53284" lon="5.54084">
        <ele>1019.9</ele>
        <time>2021-09-06T13:20:48Z</time>
      </trkpt>
      <trkpt lat="44.53284" lon="5.54085">
        <ele>1019.7</ele>
        <time>2021-09-06T13:20:49Z</time>
      </trkpt>
      <trkpt lat="44.53284" lon="5.54085">
        <ele>1019.7</ele>
        <time>2021-09-06T13:20:50Z</time>
      </trkpt>
      <trkpt lat="44.53283" lon="5.54086">
        <ele>1019.7</ele>
        <time>2021-09-06T13:20:52Z</time>
      </trkpt>
      <trkpt lat="44.53282" lon="5.54086">
        <ele>1020.5</ele>
        <time>2021-09-06T13:20:53Z</time>
      </trkpt>
      <trkpt lat="44.53223" lon="5.54137">
        <ele>1031.7</ele>
        <time>2021-09-06T13:22:22Z</time>
      </trkpt>
      <trkpt lat="44.53221" lon="5.54138">
        <ele>1032.6</ele>
        <time>2021-09-06T13:22:24Z</time>
      </trkpt>
      <trkpt lat="44.5322" lon="5.54137">
        <ele>1032.6</ele>
        <time>2021-09-06T13:22:25Z</time>
      </trkpt>
      <trkpt lat="44.53219" lon="5.54136">
        <ele>1032.6</ele>
        <time>2021-09-06T13:22:26Z</time>
      </trkpt>
      <trkpt lat="44.53218" lon="5.54135">
        <ele>1033.6</ele>
        <time>2021-09-06T13:22:28Z</time>
      </trkpt>
      <trkpt lat="44.53217" lon="5.54135">
        <ele>1033.6</ele>
        <time>2021-09-06T13:22:29Z</time>
      </trkpt>
      <trkpt lat="44.53216" lon="5.54135">
        <ele>1033.6</ele>
        <time>2021-09-06T13:22:30Z</time>
      </trkpt>
      <trkpt lat="44.53214" lon="5.54135">
        <ele>1034.4</ele>
        <time>2021-09-06T13:22:31Z</time>
      </trkpt>
      <trkpt lat="44.53213" lon="5.54135">
        <ele>1035.2</ele>
        <time>2021-09-06T13:22:32Z</time>
      </trkpt>
      <trkpt lat="44.53211" lon="5.54136">
        <ele>1035.2</ele>
        <time>2021-09-06T13:22:34Z</time>
      </trkpt>
      <trkpt lat="44.53209" lon="5.54136">
        <ele>1035.7</ele>
        <time>2021-09-06T13:22:35Z</time>
      </trkpt>
      <trkpt lat="44.53209" lon="5.54137">
        <ele>1035.7</ele>
        <time>2021-09-06T13:22:36Z</time>
      </trkpt>
      <trkpt lat="44.53209" lon="5.54137">
        <ele>1035.7</ele>
        <time>2021-09-06T13:22:38Z</time>
      </trkpt>
      <trkpt lat="44.5321" lon="5.54137">
        <ele>1035</ele>
        <time>2021-09-06T13:22:39Z</time>
      </trkpt>
      <trkpt lat="44.53211" lon="5.54137">
        <ele>1035</ele>
        <time>2021-09-06T13:22:41Z</time>
      </trkpt>
      <trkpt lat="44.53211" lon="5.54137">
        <ele>1035</ele>
        <time>2021-09-06T13:22:42Z</time>
      </trkpt>
      <trkpt lat="44.53211" lon="5.54138">
        <ele>1035</ele>
        <time>2021-09-06T13:22:43Z</time>
      </trkpt>
      <trkpt lat="44.53211" lon="5.54138">
        <ele>1035</ele>
        <time>2021-09-06T13:22:44Z</time>
      </trkpt>
      <trkpt lat="44.53211" lon="5.54138">
        <ele>1034.9</ele>
        <time>2021-09-06T13:22:45Z</time>
      </trkpt>
      <trkpt lat="44.5321" lon="5.54139">
        <ele>1034.9</ele>
        <time>2021-09-06T13:22:47Z</time>
      </trkpt>
      <trkpt lat="44.5321" lon="5.5414">
        <ele>1035.7</ele>
        <time>2021-09-06T13:22:48Z</time>
      </trkpt>
      <trkpt lat="44.53207" lon="5.54145">
        <ele>1035.3</ele>
        <time>2021-09-06T13:22:50Z</time>
      </trkpt>
      <trkpt lat="44.53205" lon="5.54149">
        <ele>1035.9</ele>
        <time>2021-09-06T13:22:56Z</time>
      </trkpt>
      <trkpt lat="44.53204" lon="5.54153">
        <ele>1035.9</ele>
        <time>2021-09-06T13:22:58Z</time>
      </trkpt>
      <trkpt lat="44.53203" lon="5.54157">
        <ele>1036.6</ele>
        <time>2021-09-06T13:22:59Z</time>
      </trkpt>
      <trkpt lat="44.53201" lon="5.54162">
        <ele>1036.2</ele>
        <time>2021-09-06T13:23:01Z</time>
      </trkpt>
      <trkpt lat="44.53199" lon="5.54166">
        <ele>1036.9</ele>
        <time>2021-09-06T13:23:02Z</time>
      </trkpt>
      <trkpt lat="44.53198" lon="5.54169">
        <ele>1036.9</ele>
        <time>2021-09-06T13:23:03Z</time>
      </trkpt>
      <trkpt lat="44.53196" lon="5.54169">
        <ele>1037.8</ele>
        <time>2021-09-06T13:23:04Z</time>
      </trkpt>
      <trkpt lat="44.53195" lon="5.54169">
        <ele>1037.8</ele>
        <time>2021-09-06T13:23:05Z</time>
      </trkpt>
      <trkpt lat="44.53194" lon="5.54168">
        <ele>1038.7</ele>
        <time>2021-09-06T13:23:06Z</time>
      </trkpt>
      <trkpt lat="44.53192" lon="5.54169">
        <ele>1038.7</ele>
        <time>2021-09-06T13:23:07Z</time>
      </trkpt>
      <trkpt lat="44.53188" lon="5.5417">
        <ele>1040.7</ele>
        <time>2021-09-06T13:23:09Z</time>
      </trkpt>
      <trkpt lat="44.53185" lon="5.54171">
        <ele>1041.4</ele>
        <time>2021-09-06T13:23:10Z</time>
      </trkpt>
      <trkpt lat="44.53184" lon="5.54172">
        <ele>1041.4</ele>
        <time>2021-09-06T13:23:11Z</time>
      </trkpt>
      <trkpt lat="44.53181" lon="5.54173">
        <ele>1042.4</ele>
        <time>2021-09-06T13:23:13Z</time>
      </trkpt>
      <trkpt lat="44.5318" lon="5.54173">
        <ele>1042.4</ele>
        <time>2021-09-06T13:23:14Z</time>
      </trkpt>
      <trkpt lat="44.53176" lon="5.54175">
        <ele>1043.2</ele>
        <time>2021-09-06T13:23:16Z</time>
      </trkpt>
      <trkpt lat="44.53175" lon="5.54176">
        <ele>1044.1</ele>
        <time>2021-09-06T13:23:17Z</time>
      </trkpt>
      <trkpt lat="44.53173" lon="5.54179">
        <ele>1043.9</ele>
        <time>2021-09-06T13:23:19Z</time>
      </trkpt>
      <trkpt lat="44.53173" lon="5.5418">
        <ele>1044.9</ele>
        <time>2021-09-06T13:23:20Z</time>
      </trkpt>
      <trkpt lat="44.53172" lon="5.54179">
        <ele>1044.9</ele>
        <time>2021-09-06T13:23:22Z</time>
      </trkpt>
      <trkpt lat="44.53172" lon="5.5418">
        <ele>1044.9</ele>
        <time>2021-09-06T13:23:23Z</time>
      </trkpt>
      <trkpt lat="44.53171" lon="5.54181">
        <ele>1044.9</ele>
        <time>2021-09-06T13:23:24Z</time>
      </trkpt>
      <trkpt lat="44.53171" lon="5.54182">
        <ele>1044.9</ele>
        <time>2021-09-06T13:23:26Z</time>
      </trkpt>
      <trkpt lat="44.53171" lon="5.54183">
        <ele>1044.9</ele>
        <time>2021-09-06T13:23:27Z</time>
      </trkpt>
      <trkpt lat="44.53171" lon="5.54185">
        <ele>1044.7</ele>
        <time>2021-09-06T13:23:29Z</time>
      </trkpt>
      <trkpt lat="44.53171" lon="5.54187">
        <ele>1044.7</ele>
        <time>2021-09-06T13:23:30Z</time>
      </trkpt>
      <trkpt lat="44.53172" lon="5.54221">
        <ele>1042.7</ele>
        <time>2021-09-06T13:23:50Z</time>
      </trkpt>
      <trkpt lat="44.53173" lon="5.54227">
        <ele>1041.1</ele>
        <time>2021-09-06T13:23:52Z</time>
      </trkpt>
      <trkpt lat="44.53174" lon="5.54229">
        <ele>1041.1</ele>
        <time>2021-09-06T13:23:53Z</time>
      </trkpt>
      <trkpt lat="44.53176" lon="5.54234">
        <ele>1039.9</ele>
        <time>2021-09-06T13:23:55Z</time>
      </trkpt>
      <trkpt lat="44.53177" lon="5.5424">
        <ele>1039.3</ele>
        <time>2021-09-06T13:23:56Z</time>
      </trkpt>
      <trkpt lat="44.53176" lon="5.54246">
        <ele>1039</ele>
        <time>2021-09-06T13:23:58Z</time>
      </trkpt>
      <trkpt lat="44.53174" lon="5.5425">
        <ele>1039.5</ele>
        <time>2021-09-06T13:23:59Z</time>
      </trkpt>
      <trkpt lat="44.53167" lon="5.54254">
        <ele>1041</ele>
        <time>2021-09-06T13:24:00Z</time>
      </trkpt>
      <trkpt lat="44.53161" lon="5.54256">
        <ele>1043</ele>
        <time>2021-09-06T13:24:02Z</time>
      </trkpt>
      <trkpt lat="44.53156" lon="5.54258">
        <ele>1044.5</ele>
        <time>2021-09-06T13:24:03Z</time>
      </trkpt>
      <trkpt lat="44.53143" lon="5.54264">
        <ele>1047.4</ele>
        <time>2021-09-06T13:24:06Z</time>
      </trkpt>
      <trkpt lat="44.53138" lon="5.54268">
        <ele>1049.1</ele>
        <time>2021-09-06T13:24:07Z</time>
      </trkpt>
      <trkpt lat="44.53131" lon="5.54276">
        <ele>1050.4</ele>
        <time>2021-09-06T13:24:08Z</time>
      </trkpt>
      <trkpt lat="44.53124" lon="5.54282">
        <ele>1052.4</ele>
        <time>2021-09-06T13:24:10Z</time>
      </trkpt>
      <trkpt lat="44.5312" lon="5.54286">
        <ele>1053.1</ele>
        <time>2021-09-06T13:24:11Z</time>
      </trkpt>
      <trkpt lat="44.53117" lon="5.5429">
        <ele>1053.9</ele>
        <time>2021-09-06T13:24:13Z</time>
      </trkpt>
      <trkpt lat="44.53116" lon="5.54295">
        <ele>1053.7</ele>
        <time>2021-09-06T13:24:14Z</time>
      </trkpt>
      <trkpt lat="44.53115" lon="5.54297">
        <ele>1053.7</ele>
        <time>2021-09-06T13:24:15Z</time>
      </trkpt>
      <trkpt lat="44.53116" lon="5.543">
        <ele>1053.5</ele>
        <time>2021-09-06T13:24:16Z</time>
      </trkpt>
      <trkpt lat="44.53117" lon="5.543">
        <ele>1053.5</ele>
        <time>2021-09-06T13:24:17Z</time>
      </trkpt>
      <trkpt lat="44.53118" lon="5.54302">
        <ele>1052.5</ele>
        <time>2021-09-06T13:24:19Z</time>
      </trkpt>
      <trkpt lat="44.53119" lon="5.54302">
        <ele>1052.5</ele>
        <time>2021-09-06T13:24:20Z</time>
      </trkpt>
      <trkpt lat="44.53119" lon="5.54301">
        <ele>1052.5</ele>
        <time>2021-09-06T13:24:22Z</time>
      </trkpt>
      <trkpt lat="44.5312" lon="5.54302">
        <ele>1052.5</ele>
        <time>2021-09-06T13:24:23Z</time>
      </trkpt>
      <trkpt lat="44.5312" lon="5.54305">
        <ele>1052.3</ele>
        <time>2021-09-06T13:24:25Z</time>
      </trkpt>
      <trkpt lat="44.5312" lon="5.54307">
        <ele>1052.3</ele>
        <time>2021-09-06T13:24:27Z</time>
      </trkpt>
      <trkpt lat="44.5312" lon="5.54309">
        <ele>1052.1</ele>
        <time>2021-09-06T13:24:28Z</time>
      </trkpt>
      <trkpt lat="44.5312" lon="5.54314">
        <ele>1051.9</ele>
        <time>2021-09-06T13:24:30Z</time>
      </trkpt>
      <trkpt lat="44.5312" lon="5.54333">
        <ele>1051</ele>
        <time>2021-09-06T13:24:38Z</time>
      </trkpt>
      <trkpt lat="44.53119" lon="5.54338">
        <ele>1050.8</ele>
        <time>2021-09-06T13:24:39Z</time>
      </trkpt>
      <trkpt lat="44.53118" lon="5.54339">
        <ele>1050.6</ele>
        <time>2021-09-06T13:24:40Z</time>
      </trkpt>
      <trkpt lat="44.53116" lon="5.54343">
        <ele>1051.4</ele>
        <time>2021-09-06T13:24:42Z</time>
      </trkpt>
      <trkpt lat="44.53113" lon="5.54345">
        <ele>1052.5</ele>
        <time>2021-09-06T13:24:43Z</time>
      </trkpt>
      <trkpt lat="44.5311" lon="5.54348">
        <ele>1053.5</ele>
        <time>2021-09-06T13:24:44Z</time>
      </trkpt>
      <trkpt lat="44.53108" lon="5.54349">
        <ele>1054.6</ele>
        <time>2021-09-06T13:24:45Z</time>
      </trkpt>
      <trkpt lat="44.53103" lon="5.54349">
        <ele>1055.6</ele>
        <time>2021-09-06T13:24:47Z</time>
      </trkpt>
      <trkpt lat="44.53098" lon="5.54349">
        <ele>1057.5</ele>
        <time>2021-09-06T13:24:49Z</time>
      </trkpt>
      <trkpt lat="44.53095" lon="5.54351">
        <ele>1058.3</ele>
        <time>2021-09-06T13:24:50Z</time>
      </trkpt>
      <trkpt lat="44.53093" lon="5.54355">
        <ele>1059.2</ele>
        <time>2021-09-06T13:24:51Z</time>
      </trkpt>
      <trkpt lat="44.53092" lon="5.54357">
        <ele>1059.1</ele>
        <time>2021-09-06T13:24:53Z</time>
      </trkpt>
      <trkpt lat="44.5309" lon="5.54364">
        <ele>1058.9</ele>
        <time>2021-09-06T13:24:55Z</time>
      </trkpt>
      <trkpt lat="44.53089" lon="5.54368">
        <ele>1058.8</ele>
        <time>2021-09-06T13:24:56Z</time>
      </trkpt>
      <trkpt lat="44.53088" lon="5.54372">
        <ele>1058.6</ele>
        <time>2021-09-06T13:24:57Z</time>
      </trkpt>
      <trkpt lat="44.53088" lon="5.54374">
        <ele>1058.6</ele>
        <time>2021-09-06T13:24:58Z</time>
      </trkpt>
      <trkpt lat="44.53087" lon="5.54378">
        <ele>1058.5</ele>
        <time>2021-09-06T13:24:59Z</time>
      </trkpt>
      <trkpt lat="44.53086" lon="5.54383">
        <ele>1058.3</ele>
        <time>2021-09-06T13:25:01Z</time>
      </trkpt>
      <trkpt lat="44.53084" lon="5.5439">
        <ele>1058.1</ele>
        <time>2021-09-06T13:25:03Z</time>
      </trkpt>
      <trkpt lat="44.53083" lon="5.54397">
        <ele>1058</ele>
        <time>2021-09-06T13:25:05Z</time>
      </trkpt>
      <trkpt lat="44.53085" lon="5.54401">
        <ele>1057.9</ele>
        <time>2021-09-06T13:25:07Z</time>
      </trkpt>
      <trkpt lat="44.53085" lon="5.54402">
        <ele>1057.9</ele>
        <time>2021-09-06T13:25:08Z</time>
      </trkpt>
      <trkpt lat="44.53085" lon="5.54403">
        <ele>1057.9</ele>
        <time>2021-09-06T13:25:09Z</time>
      </trkpt>
      <trkpt lat="44.53085" lon="5.54404">
        <ele>1057.9</ele>
        <time>2021-09-06T13:25:10Z</time>
      </trkpt>
      <trkpt lat="44.53084" lon="5.54406">
        <ele>1057.8</ele>
        <time>2021-09-06T13:25:11Z</time>
      </trkpt>
      <trkpt lat="44.53083" lon="5.54411">
        <ele>1057.8</ele>
        <time>2021-09-06T13:25:13Z</time>
      </trkpt>
      <trkpt lat="44.5308" lon="5.54416">
        <ele>1057.9</ele>
        <time>2021-09-06T13:25:14Z</time>
      </trkpt>
      <trkpt lat="44.53076" lon="5.54422">
        <ele>1057.9</ele>
        <time>2021-09-06T13:25:15Z</time>
      </trkpt>
      <trkpt lat="44.53073" lon="5.54425">
        <ele>1058</ele>
        <time>2021-09-06T13:25:17Z</time>
      </trkpt>
      <trkpt lat="44.5307" lon="5.5443">
        <ele>1058</ele>
        <time>2021-09-06T13:25:18Z</time>
      </trkpt>
      <trkpt lat="44.53068" lon="5.54433">
        <ele>1058.1</ele>
        <time>2021-09-06T13:25:19Z</time>
      </trkpt>
      <trkpt lat="44.53066" lon="5.54437">
        <ele>1058.1</ele>
        <time>2021-09-06T13:25:20Z</time>
      </trkpt>
      <trkpt lat="44.53066" lon="5.54437">
        <ele>1058.1</ele>
        <time>2021-09-06T13:25:21Z</time>
      </trkpt>
      <trkpt lat="44.53066" lon="5.5444">
        <ele>1058.1</ele>
        <time>2021-09-06T13:25:23Z</time>
      </trkpt>
      <trkpt lat="44.53067" lon="5.54441">
        <ele>1058.1</ele>
        <time>2021-09-06T13:25:24Z</time>
      </trkpt>
      <trkpt lat="44.53068" lon="5.54442">
        <ele>1058.1</ele>
        <time>2021-09-06T13:25:25Z</time>
      </trkpt>
      <trkpt lat="44.53073" lon="5.54443">
        <ele>1058.1</ele>
        <time>2021-09-06T13:25:27Z</time>
      </trkpt>
      <trkpt lat="44.53076" lon="5.54446">
        <ele>1058.1</ele>
        <time>2021-09-06T13:25:28Z</time>
      </trkpt>
      <trkpt lat="44.53078" lon="5.54449">
        <ele>1058.1</ele>
        <time>2021-09-06T13:25:30Z</time>
      </trkpt>
      <trkpt lat="44.5308" lon="5.54452">
        <ele>1058.1</ele>
        <time>2021-09-06T13:25:31Z</time>
      </trkpt>
      <trkpt lat="44.53083" lon="5.54459">
        <ele>1058</ele>
        <time>2021-09-06T13:25:33Z</time>
      </trkpt>
      <trkpt lat="44.53083" lon="5.54468">
        <ele>1057.8</ele>
        <time>2021-09-06T13:25:34Z</time>
      </trkpt>
      <trkpt lat="44.53082" lon="5.54474">
        <ele>1057.7</ele>
        <time>2021-09-06T13:25:36Z</time>
      </trkpt>
      <trkpt lat="44.53079" lon="5.54482">
        <ele>1057.4</ele>
        <time>2021-09-06T13:25:37Z</time>
      </trkpt>
      <trkpt lat="44.53072" lon="5.54494">
        <ele>1056.6</ele>
        <time>2021-09-06T13:25:38Z</time>
      </trkpt>
      <trkpt lat="44.53058" lon="5.54512">
        <ele>1055.2</ele>
        <time>2021-09-06T13:25:40Z</time>
      </trkpt>
      <trkpt lat="44.53041" lon="5.54528">
        <ele>1053.9</ele>
        <time>2021-09-06T13:25:42Z</time>
      </trkpt>
      <trkpt lat="44.53034" lon="5.54537">
        <ele>1053.4</ele>
        <time>2021-09-06T13:25:43Z</time>
      </trkpt>
      <trkpt lat="44.5302" lon="5.54553">
        <ele>1052.8</ele>
        <time>2021-09-06T13:25:45Z</time>
      </trkpt>
      <trkpt lat="44.53014" lon="5.5456">
        <ele>1052.6</ele>
        <time>2021-09-06T13:25:46Z</time>
      </trkpt>
      <trkpt lat="44.53002" lon="5.54578">
        <ele>1052.3</ele>
        <time>2021-09-06T13:25:48Z</time>
      </trkpt>
      <trkpt lat="44.52997" lon="5.54587">
        <ele>1052.3</ele>
        <time>2021-09-06T13:25:49Z</time>
      </trkpt>
      <trkpt lat="44.5299" lon="5.54602">
        <ele>1052.8</ele>
        <time>2021-09-06T13:25:51Z</time>
      </trkpt>
      <trkpt lat="44.52988" lon="5.54609">
        <ele>1053.1</ele>
        <time>2021-09-06T13:25:52Z</time>
      </trkpt>
      <trkpt lat="44.52986" lon="5.54615">
        <ele>1053.3</ele>
        <time>2021-09-06T13:25:53Z</time>
      </trkpt>
      <trkpt lat="44.52984" lon="5.54624">
        <ele>1053.9</ele>
        <time>2021-09-06T13:25:55Z</time>
      </trkpt>
      <trkpt lat="44.52984" lon="5.54626">
        <ele>1054</ele>
        <time>2021-09-06T13:25:56Z</time>
      </trkpt>
      <trkpt lat="44.52992" lon="5.54623">
        <ele>1054.6</ele>
        <time>2021-09-06T13:25:58Z</time>
      </trkpt>
      <trkpt lat="44.52995" lon="5.54622">
        <ele>1054.8</ele>
        <time>2021-09-06T13:26:00Z</time>
      </trkpt>
      <trkpt lat="44.52996" lon="5.54622">
        <ele>1054.9</ele>
        <time>2021-09-06T13:26:01Z</time>
      </trkpt>
      <trkpt lat="44.52996" lon="5.54622">
        <ele>1054.9</ele>
        <time>2021-09-06T13:26:02Z</time>
      </trkpt>
      <trkpt lat="44.52996" lon="5.54622">
        <ele>1054.9</ele>
        <time>2021-09-06T13:26:04Z</time>
      </trkpt>
      <trkpt lat="44.52997" lon="5.54624">
        <ele>1055.1</ele>
        <time>2021-09-06T13:26:05Z</time>
      </trkpt>
      <trkpt lat="44.52997" lon="5.54625">
        <ele>1055.1</ele>
        <time>2021-09-06T13:26:06Z</time>
      </trkpt>
      <trkpt lat="44.52997" lon="5.54625">
        <ele>1055.1</ele>
        <time>2021-09-06T13:26:07Z</time>
      </trkpt>
      <trkpt lat="44.52997" lon="5.54626">
        <ele>1055.2</ele>
        <time>2021-09-06T13:26:08Z</time>
      </trkpt>
      <trkpt lat="44.52931" lon="5.54761">
        <ele>1065.6</ele>
        <time>2021-09-06T13:28:25Z</time>
      </trkpt>
      <trkpt lat="44.52931" lon="5.54761">
        <ele>1065.7</ele>
        <time>2021-09-06T13:28:27Z</time>
      </trkpt>
      <trkpt lat="44.52932" lon="5.54763">
        <ele>1065.8</ele>
        <time>2021-09-06T13:28:28Z</time>
      </trkpt>
      <trkpt lat="44.52932" lon="5.54764">
        <ele>1065.9</ele>
        <time>2021-09-06T13:28:30Z</time>
      </trkpt>
      <trkpt lat="44.52932" lon="5.54765">
        <ele>1066</ele>
        <time>2021-09-06T13:28:31Z</time>
      </trkpt>
      <trkpt lat="44.52932" lon="5.54766">
        <ele>1066.1</ele>
        <time>2021-09-06T13:28:32Z</time>
      </trkpt>
      <trkpt lat="44.52932" lon="5.54768">
        <ele>1066.2</ele>
        <time>2021-09-06T13:28:34Z</time>
      </trkpt>
      <trkpt lat="44.5293" lon="5.54769">
        <ele>1066.4</ele>
        <time>2021-09-06T13:28:35Z</time>
      </trkpt>
      <trkpt lat="44.5293" lon="5.54771">
        <ele>1066.5</ele>
        <time>2021-09-06T13:28:37Z</time>
      </trkpt>
      <trkpt lat="44.5293" lon="5.54771">
        <ele>1066.5</ele>
        <time>2021-09-06T13:28:38Z</time>
      </trkpt>
      <trkpt lat="44.52929" lon="5.54773">
        <ele>1066.7</ele>
        <time>2021-09-06T13:28:39Z</time>
      </trkpt>
      <trkpt lat="44.52929" lon="5.54774">
        <ele>1066.8</ele>
        <time>2021-09-06T13:28:41Z</time>
      </trkpt>
      <trkpt lat="44.52928" lon="5.54775">
        <ele>1066.8</ele>
        <time>2021-09-06T13:28:42Z</time>
      </trkpt>
      <trkpt lat="44.52928" lon="5.54777">
        <ele>1067</ele>
        <time>2021-09-06T13:28:43Z</time>
      </trkpt>
      <trkpt lat="44.52927" lon="5.54779">
        <ele>1067.2</ele>
        <time>2021-09-06T13:28:44Z</time>
      </trkpt>
      <trkpt lat="44.52926" lon="5.54782">
        <ele>1067.4</ele>
        <time>2021-09-06T13:28:46Z</time>
      </trkpt>
      <trkpt lat="44.52926" lon="5.54785">
        <ele>1067.6</ele>
        <time>2021-09-06T13:28:47Z</time>
      </trkpt>
      <trkpt lat="44.52925" lon="5.54786">
        <ele>1067.8</ele>
        <time>2021-09-06T13:28:49Z</time>
      </trkpt>
      <trkpt lat="44.52925" lon="5.54788">
        <ele>1067.9</ele>
        <time>2021-09-06T13:28:50Z</time>
      </trkpt>
      <trkpt lat="44.52924" lon="5.5479">
        <ele>1068</ele>
        <time>2021-09-06T13:28:51Z</time>
      </trkpt>
      <trkpt lat="44.52924" lon="5.54794">
        <ele>1068.3</ele>
        <time>2021-09-06T13:28:53Z</time>
      </trkpt>
      <trkpt lat="44.52924" lon="5.54799">
        <ele>1068.7</ele>
        <time>2021-09-06T13:28:55Z</time>
      </trkpt>
      <trkpt lat="44.52924" lon="5.54801">
        <ele>1068.8</ele>
        <time>2021-09-06T13:28:56Z</time>
      </trkpt>
      <trkpt lat="44.52924" lon="5.54804">
        <ele>1069</ele>
        <time>2021-09-06T13:28:57Z</time>
      </trkpt>
      <trkpt lat="44.52923" lon="5.54808">
        <ele>1069.2</ele>
        <time>2021-09-06T13:28:59Z</time>
      </trkpt>
      <trkpt lat="44.52923" lon="5.54809">
        <ele>1069.3</ele>
        <time>2021-09-06T13:29:01Z</time>
      </trkpt>
      <trkpt lat="44.52922" lon="5.54812">
        <ele>1069.5</ele>
        <time>2021-09-06T13:29:03Z</time>
      </trkpt>
      <trkpt lat="44.52921" lon="5.54813">
        <ele>1069.6</ele>
        <time>2021-09-06T13:29:04Z</time>
      </trkpt>
      <trkpt lat="44.52919" lon="5.54816">
        <ele>1069.8</ele>
        <time>2021-09-06T13:29:06Z</time>
      </trkpt>
      <trkpt lat="44.52918" lon="5.54818">
        <ele>1070</ele>
        <time>2021-09-06T13:29:08Z</time>
      </trkpt>
      <trkpt lat="44.52917" lon="5.5482">
        <ele>1070.1</ele>
        <time>2021-09-06T13:29:09Z</time>
      </trkpt>
      <trkpt lat="44.52916" lon="5.54822">
        <ele>1070.2</ele>
        <time>2021-09-06T13:29:10Z</time>
      </trkpt>
      <trkpt lat="44.52915" lon="5.54823">
        <ele>1070.3</ele>
        <time>2021-09-06T13:29:12Z</time>
      </trkpt>
      <trkpt lat="44.52915" lon="5.54825">
        <ele>1070.4</ele>
        <time>2021-09-06T13:29:13Z</time>
      </trkpt>
      <trkpt lat="44.52914" lon="5.54826">
        <ele>1070.5</ele>
        <time>2021-09-06T13:29:15Z</time>
      </trkpt>
      <trkpt lat="44.52914" lon="5.54827">
        <ele>1070.6</ele>
        <time>2021-09-06T13:29:16Z</time>
      </trkpt>
      <trkpt lat="44.52914" lon="5.54829">
        <ele>1070.6</ele>
        <time>2021-09-06T13:29:18Z</time>
      </trkpt>
      <trkpt lat="44.52913" lon="5.54829">
        <ele>1070.7</ele>
        <time>2021-09-06T13:29:20Z</time>
      </trkpt>
      <trkpt lat="44.52913" lon="5.5483">
        <ele>1070.7</ele>
        <time>2021-09-06T13:29:21Z</time>
      </trkpt>
      <trkpt lat="44.52913" lon="5.5483">
        <ele>1070.7</ele>
        <time>2021-09-06T13:29:23Z</time>
      </trkpt>
      <trkpt lat="44.52912" lon="5.54831">
        <ele>1070.8</ele>
        <time>2021-09-06T13:29:24Z</time>
      </trkpt>
      <trkpt lat="44.52912" lon="5.54831">
        <ele>1070.8</ele>
        <time>2021-09-06T13:29:25Z</time>
      </trkpt>
      <trkpt lat="44.52911" lon="5.54832">
        <ele>1070.9</ele>
        <time>2021-09-06T13:29:27Z</time>
      </trkpt>
      <trkpt lat="44.52909" lon="5.54832">
        <ele>1071</ele>
        <time>2021-09-06T13:29:28Z</time>
      </trkpt>
      <trkpt lat="44.52905" lon="5.54834">
        <ele>1071.3</ele>
        <time>2021-09-06T13:29:29Z</time>
      </trkpt>
      <trkpt lat="44.52904" lon="5.54834">
        <ele>1071.5</ele>
        <time>2021-09-06T13:29:30Z</time>
      </trkpt>
      <trkpt lat="44.52902" lon="5.54835">
        <ele>1071.6</ele>
        <time>2021-09-06T13:29:32Z</time>
      </trkpt>
      <trkpt lat="44.529" lon="5.54835">
        <ele>1071.7</ele>
        <time>2021-09-06T13:29:33Z</time>
      </trkpt>
      <trkpt lat="44.52899" lon="5.54835">
        <ele>1071.9</ele>
        <time>2021-09-06T13:29:34Z</time>
      </trkpt>
      <trkpt lat="44.52897" lon="5.54836">
        <ele>1072</ele>
        <time>2021-09-06T13:29:36Z</time>
      </trkpt>
      <trkpt lat="44.52896" lon="5.54836">
        <ele>1072.1</ele>
        <time>2021-09-06T13:29:37Z</time>
      </trkpt>
      <trkpt lat="44.52894" lon="5.54837">
        <ele>1072.3</ele>
        <time>2021-09-06T13:29:38Z</time>
      </trkpt>
      <trkpt lat="44.52893" lon="5.54837">
        <ele>1072.4</ele>
        <time>2021-09-06T13:29:40Z</time>
      </trkpt>
      <trkpt lat="44.52893" lon="5.54838">
        <ele>1072.5</ele>
        <time>2021-09-06T13:29:41Z</time>
      </trkpt>
      <trkpt lat="44.52891" lon="5.54838">
        <ele>1072.5</ele>
        <time>2021-09-06T13:29:42Z</time>
      </trkpt>
      <trkpt lat="44.5289" lon="5.5484">
        <ele>1072.7</ele>
        <time>2021-09-06T13:29:44Z</time>
      </trkpt>
      <trkpt lat="44.52889" lon="5.5484">
        <ele>1072.8</ele>
        <time>2021-09-06T13:29:45Z</time>
      </trkpt>
      <trkpt lat="44.52888" lon="5.54841">
        <ele>1072.9</ele>
        <time>2021-09-06T13:29:46Z</time>
      </trkpt>
      <trkpt lat="44.52887" lon="5.54842">
        <ele>1073</ele>
        <time>2021-09-06T13:29:47Z</time>
      </trkpt>
      <trkpt lat="44.52887" lon="5.54843">
        <ele>1073.1</ele>
        <time>2021-09-06T13:29:48Z</time>
      </trkpt>
      <trkpt lat="44.52886" lon="5.54844">
        <ele>1073.2</ele>
        <time>2021-09-06T13:29:50Z</time>
      </trkpt>
      <trkpt lat="44.52885" lon="5.54846">
        <ele>1073.3</ele>
        <time>2021-09-06T13:29:51Z</time>
      </trkpt>
      <trkpt lat="44.52885" lon="5.54847">
        <ele>1073.4</ele>
        <time>2021-09-06T13:29:52Z</time>
      </trkpt>
      <trkpt lat="44.52883" lon="5.54849">
        <ele>1073.6</ele>
        <time>2021-09-06T13:29:54Z</time>
      </trkpt>
      <trkpt lat="44.52881" lon="5.54851">
        <ele>1073.8</ele>
        <time>2021-09-06T13:29:55Z</time>
      </trkpt>
      <trkpt lat="44.52881" lon="5.54852">
        <ele>1073.9</ele>
        <time>2021-09-06T13:29:56Z</time>
      </trkpt>
      <trkpt lat="44.52877" lon="5.54857">
        <ele>1074.4</ele>
        <time>2021-09-06T13:29:58Z</time>
      </trkpt>
      <trkpt lat="44.52876" lon="5.54859">
        <ele>1074.6</ele>
        <time>2021-09-06T13:29:59Z</time>
      </trkpt>
      <trkpt lat="44.52875" lon="5.54861">
        <ele>1074.8</ele>
        <time>2021-09-06T13:30:01Z</time>
      </trkpt>
      <trkpt lat="44.52874" lon="5.54862">
        <ele>1074.9</ele>
        <time>2021-09-06T13:30:02Z</time>
      </trkpt>
      <trkpt lat="44.52873" lon="5.54865">
        <ele>1075.1</ele>
        <time>2021-09-06T13:30:03Z</time>
      </trkpt>
      <trkpt lat="44.52873" lon="5.54867">
        <ele>1075.3</ele>
        <time>2021-09-06T13:30:05Z</time>
      </trkpt>
      <trkpt lat="44.52872" lon="5.54869">
        <ele>1075.5</ele>
        <time>2021-09-06T13:30:06Z</time>
      </trkpt>
      <trkpt lat="44.52872" lon="5.54872">
        <ele>1075.6</ele>
        <time>2021-09-06T13:30:07Z</time>
      </trkpt>
      <trkpt lat="44.52872" lon="5.54873">
        <ele>1075.8</ele>
        <time>2021-09-06T13:30:08Z</time>
      </trkpt>
      <trkpt lat="44.52871" lon="5.54877">
        <ele>1076</ele>
        <time>2021-09-06T13:30:10Z</time>
      </trkpt>
      <trkpt lat="44.52871" lon="5.54878">
        <ele>1076.1</ele>
        <time>2021-09-06T13:30:11Z</time>
      </trkpt>
      <trkpt lat="44.52871" lon="5.5488">
        <ele>1076.2</ele>
        <time>2021-09-06T13:30:12Z</time>
      </trkpt>
      <trkpt lat="44.52871" lon="5.54882">
        <ele>1076.4</ele>
        <time>2021-09-06T13:30:14Z</time>
      </trkpt>
      <trkpt lat="44.52871" lon="5.54884">
        <ele>1076.5</ele>
        <time>2021-09-06T13:30:15Z</time>
      </trkpt>
      <trkpt lat="44.52872" lon="5.54887">
        <ele>1076.7</ele>
        <time>2021-09-06T13:30:16Z</time>
      </trkpt>
      <trkpt lat="44.52873" lon="5.54889">
        <ele>1076.8</ele>
        <time>2021-09-06T13:30:18Z</time>
      </trkpt>
      <trkpt lat="44.52874" lon="5.54891">
        <ele>1077</ele>
        <time>2021-09-06T13:30:19Z</time>
      </trkpt>
      <trkpt lat="44.52875" lon="5.54892">
        <ele>1077</ele>
        <time>2021-09-06T13:30:20Z</time>
      </trkpt>
      <trkpt lat="44.52876" lon="5.54893">
        <ele>1077.1</ele>
        <time>2021-09-06T13:30:21Z</time>
      </trkpt>
      <trkpt lat="44.52877" lon="5.54894">
        <ele>1077.2</ele>
        <time>2021-09-06T13:30:23Z</time>
      </trkpt>
      <trkpt lat="44.52877" lon="5.54895">
        <ele>1077.2</ele>
        <time>2021-09-06T13:30:24Z</time>
      </trkpt>
      <trkpt lat="44.52877" lon="5.54896">
        <ele>1077.3</ele>
        <time>2021-09-06T13:30:25Z</time>
      </trkpt>
      <trkpt lat="44.52878" lon="5.54897">
        <ele>1077.4</ele>
        <time>2021-09-06T13:30:26Z</time>
      </trkpt>
      <trkpt lat="44.52878" lon="5.549">
        <ele>1077.5</ele>
        <time>2021-09-06T13:30:27Z</time>
      </trkpt>
      <trkpt lat="44.52879" lon="5.54904">
        <ele>1077.7</ele>
        <time>2021-09-06T13:30:29Z</time>
      </trkpt>
      <trkpt lat="44.5288" lon="5.54906">
        <ele>1077.8</ele>
        <time>2021-09-06T13:30:30Z</time>
      </trkpt>
      <trkpt lat="44.5288" lon="5.5491">
        <ele>1078</ele>
        <time>2021-09-06T13:30:32Z</time>
      </trkpt>
      <trkpt lat="44.5288" lon="5.54912">
        <ele>1078.1</ele>
        <time>2021-09-06T13:30:33Z</time>
      </trkpt>
      <trkpt lat="44.5288" lon="5.54913">
        <ele>1078.1</ele>
        <time>2021-09-06T13:30:34Z</time>
      </trkpt>
      <trkpt lat="44.5288" lon="5.54914">
        <ele>1078.2</ele>
        <time>2021-09-06T13:30:36Z</time>
      </trkpt>
      <trkpt lat="44.5288" lon="5.54915">
        <ele>1078.2</ele>
        <time>2021-09-06T13:30:38Z</time>
      </trkpt>
      <trkpt lat="44.52881" lon="5.54916">
        <ele>1078.3</ele>
        <time>2021-09-06T13:30:39Z</time>
      </trkpt>
      <trkpt lat="44.52881" lon="5.54917">
        <ele>1078.4</ele>
        <time>2021-09-06T13:30:40Z</time>
      </trkpt>
      <trkpt lat="44.52881" lon="5.54918">
        <ele>1078.4</ele>
        <time>2021-09-06T13:30:42Z</time>
      </trkpt>
      <trkpt lat="44.52881" lon="5.54919">
        <ele>1078.5</ele>
        <time>2021-09-06T13:30:43Z</time>
      </trkpt>
      <trkpt lat="44.52881" lon="5.54919">
        <ele>1078.6</ele>
        <time>2021-09-06T13:30:44Z</time>
      </trkpt>
      <trkpt lat="44.52882" lon="5.5492">
        <ele>1078.6</ele>
        <time>2021-09-06T13:30:45Z</time>
      </trkpt>
      <trkpt lat="44.52882" lon="5.54921">
        <ele>1078.7</ele>
        <time>2021-09-06T13:30:47Z</time>
      </trkpt>
      <trkpt lat="44.52882" lon="5.54922">
        <ele>1078.8</ele>
        <time>2021-09-06T13:30:48Z</time>
      </trkpt>
      <trkpt lat="44.52882" lon="5.54923">
        <ele>1078.8</ele>
        <time>2021-09-06T13:30:49Z</time>
      </trkpt>
      <trkpt lat="44.52883" lon="5.54924">
        <ele>1078.9</ele>
        <time>2021-09-06T13:30:51Z</time>
      </trkpt>
      <trkpt lat="44.52883" lon="5.54926">
        <ele>1079</ele>
        <time>2021-09-06T13:30:52Z</time>
      </trkpt>
      <trkpt lat="44.52884" lon="5.54927">
        <ele>1079.1</ele>
        <time>2021-09-06T13:30:53Z</time>
      </trkpt>
      <trkpt lat="44.52884" lon="5.54928">
        <ele>1079.2</ele>
        <time>2021-09-06T13:30:54Z</time>
      </trkpt>
      <trkpt lat="44.52884" lon="5.54929">
        <ele>1079.2</ele>
        <time>2021-09-06T13:30:56Z</time>
      </trkpt>
      <trkpt lat="44.52885" lon="5.54929">
        <ele>1079.3</ele>
        <time>2021-09-06T13:30:57Z</time>
      </trkpt>
      <trkpt lat="44.52885" lon="5.5493">
        <ele>1079.3</ele>
        <time>2021-09-06T13:30:59Z</time>
      </trkpt>
      <trkpt lat="44.52885" lon="5.54931">
        <ele>1079.4</ele>
        <time>2021-09-06T13:31:00Z</time>
      </trkpt>
      <trkpt lat="44.52884" lon="5.54932">
        <ele>1079.4</ele>
        <time>2021-09-06T13:31:02Z</time>
      </trkpt>
      <trkpt lat="44.52884" lon="5.54933">
        <ele>1079.5</ele>
        <time>2021-09-06T13:31:03Z</time>
      </trkpt>
      <trkpt lat="44.52884" lon="5.54935">
        <ele>1079.6</ele>
        <time>2021-09-06T13:31:05Z</time>
      </trkpt>
      <trkpt lat="44.52883" lon="5.54938">
        <ele>1079.8</ele>
        <time>2021-09-06T13:31:07Z</time>
      </trkpt>
      <trkpt lat="44.52882" lon="5.54939">
        <ele>1079.8</ele>
        <time>2021-09-06T13:31:08Z</time>
      </trkpt>
      <trkpt lat="44.52881" lon="5.54941">
        <ele>1080</ele>
        <time>2021-09-06T13:31:10Z</time>
      </trkpt>
      <trkpt lat="44.5288" lon="5.54942">
        <ele>1080</ele>
        <time>2021-09-06T13:31:11Z</time>
      </trkpt>
      <trkpt lat="44.52877" lon="5.54944">
        <ele>1080.2</ele>
        <time>2021-09-06T13:31:12Z</time>
      </trkpt>
      <trkpt lat="44.52874" lon="5.54947">
        <ele>1080.4</ele>
        <time>2021-09-06T13:31:13Z</time>
      </trkpt>
      <trkpt lat="44.52871" lon="5.5495">
        <ele>1080.5</ele>
        <time>2021-09-06T13:31:15Z</time>
      </trkpt>
      <trkpt lat="44.52867" lon="5.54953">
        <ele>1080.6</ele>
        <time>2021-09-06T13:31:16Z</time>
      </trkpt>
      <trkpt lat="44.52863" lon="5.54956">
        <ele>1080.6</ele>
        <time>2021-09-06T13:31:18Z</time>
      </trkpt>
      <trkpt lat="44.52858" lon="5.54959">
        <ele>1080.6</ele>
        <time>2021-09-06T13:31:20Z</time>
      </trkpt>
      <trkpt lat="44.52852" lon="5.54961">
        <ele>1080.4</ele>
        <time>2021-09-06T13:31:22Z</time>
      </trkpt>
      <trkpt lat="44.52848" lon="5.54961">
        <ele>1080.3</ele>
        <time>2021-09-06T13:31:23Z</time>
      </trkpt>
      <trkpt lat="44.52844" lon="5.54962">
        <ele>1080.1</ele>
        <time>2021-09-06T13:31:24Z</time>
      </trkpt>
      <trkpt lat="44.52839" lon="5.54963">
        <ele>1079.8</ele>
        <time>2021-09-06T13:31:26Z</time>
      </trkpt>
      <trkpt lat="44.52836" lon="5.54963">
        <ele>1079.6</ele>
        <time>2021-09-06T13:31:27Z</time>
      </trkpt>
      <trkpt lat="44.52832" lon="5.54962">
        <ele>1079.3</ele>
        <time>2021-09-06T13:31:28Z</time>
      </trkpt>
      <trkpt lat="44.52828" lon="5.54961">
        <ele>1079</ele>
        <time>2021-09-06T13:31:30Z</time>
      </trkpt>
      <trkpt lat="44.52825" lon="5.54959">
        <ele>1078.7</ele>
        <time>2021-09-06T13:31:31Z</time>
      </trkpt>
      <trkpt lat="44.52821" lon="5.54956">
        <ele>1078.3</ele>
        <time>2021-09-06T13:31:33Z</time>
      </trkpt>
      <trkpt lat="44.52819" lon="5.54952">
        <ele>1078</ele>
        <time>2021-09-06T13:31:34Z</time>
      </trkpt>
      <trkpt lat="44.52815" lon="5.54947">
        <ele>1077.6</ele>
        <time>2021-09-06T13:31:35Z</time>
      </trkpt>
      <trkpt lat="44.52811" lon="5.54941">
        <ele>1077</ele>
        <time>2021-09-06T13:31:37Z</time>
      </trkpt>
      <trkpt lat="44.52807" lon="5.54935">
        <ele>1076.5</ele>
        <time>2021-09-06T13:31:38Z</time>
      </trkpt>
      <trkpt lat="44.52802" lon="5.54928">
        <ele>1075.8</ele>
        <time>2021-09-06T13:31:39Z</time>
      </trkpt>
      <trkpt lat="44.52797" lon="5.54922">
        <ele>1075.1</ele>
        <time>2021-09-06T13:31:40Z</time>
      </trkpt>
      <trkpt lat="44.52792" lon="5.54918">
        <ele>1074.5</ele>
        <time>2021-09-06T13:31:41Z</time>
      </trkpt>
      <trkpt lat="44.52787" lon="5.54913">
        <ele>1073.8</ele>
        <time>2021-09-06T13:31:43Z</time>
      </trkpt>
      <trkpt lat="44.52782" lon="5.5491">
        <ele>1073.2</ele>
        <time>2021-09-06T13:31:44Z</time>
      </trkpt>
      <trkpt lat="44.52777" lon="5.54907">
        <ele>1072.7</ele>
        <time>2021-09-06T13:31:45Z</time>
      </trkpt>
      <trkpt lat="44.52772" lon="5.54904">
        <ele>1072</ele>
        <time>2021-09-06T13:31:46Z</time>
      </trkpt>
      <trkpt lat="44.52763" lon="5.54899">
        <ele>1070.9</ele>
        <time>2021-09-06T13:31:47Z</time>
      </trkpt>
      <trkpt lat="44.52753" lon="5.54893">
        <ele>1069.5</ele>
        <time>2021-09-06T13:31:49Z</time>
      </trkpt>
      <trkpt lat="44.52741" lon="5.54887">
        <ele>1068</ele>
        <time>2021-09-06T13:31:51Z</time>
      </trkpt>
      <trkpt lat="44.52735" lon="5.54884">
        <ele>1067.2</ele>
        <time>2021-09-06T13:31:52Z</time>
      </trkpt>
      <trkpt lat="44.52729" lon="5.54881">
        <ele>1066.5</ele>
        <time>2021-09-06T13:31:53Z</time>
      </trkpt>
      <trkpt lat="44.52715" lon="5.54875">
        <ele>1065</ele>
        <time>2021-09-06T13:31:55Z</time>
      </trkpt>
      <trkpt lat="44.52698" lon="5.5487">
        <ele>1063.3</ele>
        <time>2021-09-06T13:31:57Z</time>
      </trkpt>
      <trkpt lat="44.5268" lon="5.54865">
        <ele>1062.2</ele>
        <time>2021-09-06T13:31:59Z</time>
      </trkpt>
      <trkpt lat="44.52662" lon="5.5486">
        <ele>1061.9</ele>
        <time>2021-09-06T13:32:01Z</time>
      </trkpt>
      <trkpt lat="44.52652" lon="5.54856">
        <ele>1062</ele>
        <time>2021-09-06T13:32:02Z</time>
      </trkpt>
      <trkpt lat="44.52635" lon="5.54848">
        <ele>1062.3</ele>
        <time>2021-09-06T13:32:04Z</time>
      </trkpt>
      <trkpt lat="44.52621" lon="5.5484">
        <ele>1062.4</ele>
        <time>2021-09-06T13:32:06Z</time>
      </trkpt>
      <trkpt lat="44.52615" lon="5.54836">
        <ele>1062.6</ele>
        <time>2021-09-06T13:32:07Z</time>
      </trkpt>
      <trkpt lat="44.52601" lon="5.54825">
        <ele>1063.5</ele>
        <time>2021-09-06T13:32:09Z</time>
      </trkpt>
      <trkpt lat="44.52593" lon="5.54819">
        <ele>1064.2</ele>
        <time>2021-09-06T13:32:10Z</time>
      </trkpt>
      <trkpt lat="44.52582" lon="5.54808">
        <ele>1065.5</ele>
        <time>2021-09-06T13:32:12Z</time>
      </trkpt>
      <trkpt lat="44.52577" lon="5.54803">
        <ele>1066.1</ele>
        <time>2021-09-06T13:32:13Z</time>
      </trkpt>
      <trkpt lat="44.52573" lon="5.54799">
        <ele>1066.5</ele>
        <time>2021-09-06T13:32:14Z</time>
      </trkpt>
      <trkpt lat="44.52568" lon="5.54791">
        <ele>1067.2</ele>
        <time>2021-09-06T13:32:16Z</time>
      </trkpt>
      <trkpt lat="44.52563" lon="5.54783">
        <ele>1067.9</ele>
        <time>2021-09-06T13:32:18Z</time>
      </trkpt>
      <trkpt lat="44.5256" lon="5.54779">
        <ele>1068.2</ele>
        <time>2021-09-06T13:32:19Z</time>
      </trkpt>
      <trkpt lat="44.52553" lon="5.54773">
        <ele>1068.9</ele>
        <time>2021-09-06T13:32:21Z</time>
      </trkpt>
      <trkpt lat="44.5255" lon="5.54768">
        <ele>1069.3</ele>
        <time>2021-09-06T13:32:23Z</time>
      </trkpt>
      <trkpt lat="44.52548" lon="5.54765">
        <ele>1069.4</ele>
        <time>2021-09-06T13:32:24Z</time>
      </trkpt>
      <trkpt lat="44.52544" lon="5.54759">
        <ele>1069.7</ele>
        <time>2021-09-06T13:32:26Z</time>
      </trkpt>
      <trkpt lat="44.52542" lon="5.54755">
        <ele>1069.8</ele>
        <time>2021-09-06T13:32:27Z</time>
      </trkpt>
      <trkpt lat="44.52541" lon="5.54754">
        <ele>1069.8</ele>
        <time>2021-09-06T13:32:28Z</time>
      </trkpt>
      <trkpt lat="44.52539" lon="5.54751">
        <ele>1069.8</ele>
        <time>2021-09-06T13:32:29Z</time>
      </trkpt>
      <trkpt lat="44.52536" lon="5.54748">
        <ele>1069.9</ele>
        <time>2021-09-06T13:32:31Z</time>
      </trkpt>
      <trkpt lat="44.52531" lon="5.54745">
        <ele>1069.9</ele>
        <time>2021-09-06T13:32:33Z</time>
      </trkpt>
      <trkpt lat="44.52526" lon="5.5474">
        <ele>1070</ele>
        <time>2021-09-06T13:32:35Z</time>
      </trkpt>
      <trkpt lat="44.52524" lon="5.54737">
        <ele>1070</ele>
        <time>2021-09-06T13:32:36Z</time>
      </trkpt>
      <trkpt lat="44.5252" lon="5.54734">
        <ele>1070</ele>
        <time>2021-09-06T13:32:37Z</time>
      </trkpt>
      <trkpt lat="44.52514" lon="5.54729">
        <ele>1070.1</ele>
        <time>2021-09-06T13:32:39Z</time>
      </trkpt>
      <trkpt lat="44.5251" lon="5.54725">
        <ele>1070.3</ele>
        <time>2021-09-06T13:32:40Z</time>
      </trkpt>
      <trkpt lat="44.52505" lon="5.54718">
        <ele>1070.5</ele>
        <time>2021-09-06T13:32:42Z</time>
      </trkpt>
      <trkpt lat="44.52502" lon="5.54714">
        <ele>1070.6</ele>
        <time>2021-09-06T13:32:43Z</time>
      </trkpt>
      <trkpt lat="44.52499" lon="5.5471">
        <ele>1070.8</ele>
        <time>2021-09-06T13:32:45Z</time>
      </trkpt>
      <trkpt lat="44.52496" lon="5.54707">
        <ele>1071</ele>
        <time>2021-09-06T13:32:46Z</time>
      </trkpt>
      <trkpt lat="44.52495" lon="5.54706">
        <ele>1071</ele>
        <time>2021-09-06T13:32:47Z</time>
      </trkpt>
      <trkpt lat="44.52494" lon="5.54705">
        <ele>1071.1</ele>
        <time>2021-09-06T13:32:48Z</time>
      </trkpt>
      <trkpt lat="44.5249" lon="5.54703">
        <ele>1071.3</ele>
        <time>2021-09-06T13:32:50Z</time>
      </trkpt>
      <trkpt lat="44.52487" lon="5.54703">
        <ele>1071.4</ele>
        <time>2021-09-06T13:32:51Z</time>
      </trkpt>
      <trkpt lat="44.52482" lon="5.54702">
        <ele>1071.7</ele>
        <time>2021-09-06T13:32:53Z</time>
      </trkpt>
      <trkpt lat="44.52479" lon="5.54702">
        <ele>1072</ele>
        <time>2021-09-06T13:32:54Z</time>
      </trkpt>
      <trkpt lat="44.52478" lon="5.54702">
        <ele>1072.1</ele>
        <time>2021-09-06T13:32:55Z</time>
      </trkpt>
      <trkpt lat="44.52475" lon="5.54701">
        <ele>1072.3</ele>
        <time>2021-09-06T13:32:56Z</time>
      </trkpt>
      <trkpt lat="44.52472" lon="5.54701">
        <ele>1072.6</ele>
        <time>2021-09-06T13:32:58Z</time>
      </trkpt>
      <trkpt lat="44.5247" lon="5.54701">
        <ele>1072.7</ele>
        <time>2021-09-06T13:32:59Z</time>
      </trkpt>
      <trkpt lat="44.52469" lon="5.547">
        <ele>1072.8</ele>
        <time>2021-09-06T13:33:00Z</time>
      </trkpt>
      <trkpt lat="44.52469" lon="5.54699">
        <ele>1072.9</ele>
        <time>2021-09-06T13:33:02Z</time>
      </trkpt>
      <trkpt lat="44.52468" lon="5.54699">
        <ele>1073</ele>
        <time>2021-09-06T13:33:03Z</time>
      </trkpt>
      <trkpt lat="44.52467" lon="5.54699">
        <ele>1073.1</ele>
        <time>2021-09-06T13:33:04Z</time>
      </trkpt>
      <trkpt lat="44.52465" lon="5.54697">
        <ele>1073.2</ele>
        <time>2021-09-06T13:33:05Z</time>
      </trkpt>
      <trkpt lat="44.52463" lon="5.54697">
        <ele>1073.4</ele>
        <time>2021-09-06T13:33:07Z</time>
      </trkpt>
      <trkpt lat="44.52462" lon="5.54697">
        <ele>1073.5</ele>
        <time>2021-09-06T13:33:08Z</time>
      </trkpt>
      <trkpt lat="44.52459" lon="5.54697">
        <ele>1073.8</ele>
        <time>2021-09-06T13:33:10Z</time>
      </trkpt>
      <trkpt lat="44.52457" lon="5.54697">
        <ele>1073.9</ele>
        <time>2021-09-06T13:33:11Z</time>
      </trkpt>
      <trkpt lat="44.52454" lon="5.54697">
        <ele>1074.2</ele>
        <time>2021-09-06T13:33:13Z</time>
      </trkpt>
      <trkpt lat="44.52451" lon="5.54696">
        <ele>1074.4</ele>
        <time>2021-09-06T13:33:15Z</time>
      </trkpt>
      <trkpt lat="44.52449" lon="5.54695">
        <ele>1074.5</ele>
        <time>2021-09-06T13:33:16Z</time>
      </trkpt>
      <trkpt lat="44.52446" lon="5.54695">
        <ele>1074.8</ele>
        <time>2021-09-06T13:33:18Z</time>
      </trkpt>
      <trkpt lat="44.52443" lon="5.54695">
        <ele>1075</ele>
        <time>2021-09-06T13:33:20Z</time>
      </trkpt>
      <trkpt lat="44.52441" lon="5.54695">
        <ele>1075.1</ele>
        <time>2021-09-06T13:33:21Z</time>
      </trkpt>
      <trkpt lat="44.5244" lon="5.54696">
        <ele>1075.2</ele>
        <time>2021-09-06T13:33:22Z</time>
      </trkpt>
      <trkpt lat="44.52437" lon="5.54698">
        <ele>1075.3</ele>
        <time>2021-09-06T13:33:23Z</time>
      </trkpt>
      <trkpt lat="44.52436" lon="5.54698">
        <ele>1075.4</ele>
        <time>2021-09-06T13:33:24Z</time>
      </trkpt>
      <trkpt lat="44.52435" lon="5.54699">
        <ele>1075.4</ele>
        <time>2021-09-06T13:33:25Z</time>
      </trkpt>
      <trkpt lat="44.52433" lon="5.547">
        <ele>1075.5</ele>
        <time>2021-09-06T13:33:26Z</time>
      </trkpt>
      <trkpt lat="44.5243" lon="5.54703">
        <ele>1075.7</ele>
        <time>2021-09-06T13:33:28Z</time>
      </trkpt>
      <trkpt lat="44.52426" lon="5.54705">
        <ele>1075.8</ele>
        <time>2021-09-06T13:33:29Z</time>
      </trkpt>
      <trkpt lat="44.52425" lon="5.54705">
        <ele>1075.8</ele>
        <time>2021-09-06T13:33:30Z</time>
      </trkpt>
      <trkpt lat="44.52422" lon="5.54707">
        <ele>1075.9</ele>
        <time>2021-09-06T13:33:32Z</time>
      </trkpt>
      <trkpt lat="44.52418" lon="5.54709">
        <ele>1076</ele>
        <time>2021-09-06T13:33:33Z</time>
      </trkpt>
      <trkpt lat="44.52415" lon="5.5471">
        <ele>1076.1</ele>
        <time>2021-09-06T13:33:34Z</time>
      </trkpt>
      <trkpt lat="44.52413" lon="5.5471">
        <ele>1076.1</ele>
        <time>2021-09-06T13:33:35Z</time>
      </trkpt>
      <trkpt lat="44.52409" lon="5.54712">
        <ele>1076.2</ele>
        <time>2021-09-06T13:33:37Z</time>
      </trkpt>
      <trkpt lat="44.52408" lon="5.54713">
        <ele>1076.2</ele>
        <time>2021-09-06T13:33:38Z</time>
      </trkpt>
      <trkpt lat="44.52407" lon="5.54714">
        <ele>1076.2</ele>
        <time>2021-09-06T13:33:39Z</time>
      </trkpt>
      <trkpt lat="44.52403" lon="5.54717">
        <ele>1076.3</ele>
        <time>2021-09-06T13:33:41Z</time>
      </trkpt>
      <trkpt lat="44.524" lon="5.54719">
        <ele>1076.4</ele>
        <time>2021-09-06T13:33:42Z</time>
      </trkpt>
      <trkpt lat="44.52397" lon="5.54722">
        <ele>1076.5</ele>
        <time>2021-09-06T13:33:44Z</time>
      </trkpt>
      <trkpt lat="44.52394" lon="5.54725">
        <ele>1076.6</ele>
        <time>2021-09-06T13:33:45Z</time>
      </trkpt>
      <trkpt lat="44.52392" lon="5.54727">
        <ele>1076.7</ele>
        <time>2021-09-06T13:33:46Z</time>
      </trkpt>
      <trkpt lat="44.52389" lon="5.54731">
        <ele>1076.8</ele>
        <time>2021-09-06T13:33:47Z</time>
      </trkpt>
      <trkpt lat="44.52388" lon="5.54732">
        <ele>1076.9</ele>
        <time>2021-09-06T13:33:48Z</time>
      </trkpt>
      <trkpt lat="44.52386" lon="5.54734">
        <ele>1076.9</ele>
        <time>2021-09-06T13:33:49Z</time>
      </trkpt>
      <trkpt lat="44.52383" lon="5.54739">
        <ele>1077.1</ele>
        <time>2021-09-06T13:33:51Z</time>
      </trkpt>
      <trkpt lat="44.5238" lon="5.54743">
        <ele>1077.2</ele>
        <time>2021-09-06T13:33:52Z</time>
      </trkpt>
      <trkpt lat="44.52378" lon="5.54746">
        <ele>1077.4</ele>
        <time>2021-09-06T13:33:54Z</time>
      </trkpt>
      <trkpt lat="44.52376" lon="5.54748">
        <ele>1077.4</ele>
        <time>2021-09-06T13:33:55Z</time>
      </trkpt>
      <trkpt lat="44.52374" lon="5.54752">
        <ele>1077.6</ele>
        <time>2021-09-06T13:33:57Z</time>
      </trkpt>
      <trkpt lat="44.52372" lon="5.54754">
        <ele>1077.7</ele>
        <time>2021-09-06T13:33:58Z</time>
      </trkpt>
      <trkpt lat="44.5237" lon="5.54757">
        <ele>1077.9</ele>
        <time>2021-09-06T13:34:00Z</time>
      </trkpt>
      <trkpt lat="44.52369" lon="5.54759">
        <ele>1078</ele>
        <time>2021-09-06T13:34:01Z</time>
      </trkpt>
      <trkpt lat="44.52369" lon="5.54761">
        <ele>1078.1</ele>
        <time>2021-09-06T13:34:02Z</time>
      </trkpt>
      <trkpt lat="44.52367" lon="5.54763">
        <ele>1078.3</ele>
        <time>2021-09-06T13:34:04Z</time>
      </trkpt>
      <trkpt lat="44.52366" lon="5.54765">
        <ele>1078.4</ele>
        <time>2021-09-06T13:34:05Z</time>
      </trkpt>
      <trkpt lat="44.52365" lon="5.54766">
        <ele>1078.5</ele>
        <time>2021-09-06T13:34:06Z</time>
      </trkpt>
      <trkpt lat="44.52363" lon="5.5477">
        <ele>1078.8</ele>
        <time>2021-09-06T13:34:08Z</time>
      </trkpt>
      <trkpt lat="44.52362" lon="5.5477">
        <ele>1078.9</ele>
        <time>2021-09-06T13:34:09Z</time>
      </trkpt>
      <trkpt lat="44.52361" lon="5.54771">
        <ele>1079.1</ele>
        <time>2021-09-06T13:34:10Z</time>
      </trkpt>
      <trkpt lat="44.5236" lon="5.54773">
        <ele>1079.2</ele>
        <time>2021-09-06T13:34:11Z</time>
      </trkpt>
      <trkpt lat="44.52357" lon="5.54775">
        <ele>1079.5</ele>
        <time>2021-09-06T13:34:13Z</time>
      </trkpt>
      <trkpt lat="44.52356" lon="5.54776">
        <ele>1079.7</ele>
        <time>2021-09-06T13:34:14Z</time>
      </trkpt>
      <trkpt lat="44.52354" lon="5.54777">
        <ele>1079.9</ele>
        <time>2021-09-06T13:34:15Z</time>
      </trkpt>
      <trkpt lat="44.52352" lon="5.54778">
        <ele>1080.1</ele>
        <time>2021-09-06T13:34:17Z</time>
      </trkpt>
      <trkpt lat="44.52349" lon="5.54779">
        <ele>1080.4</ele>
        <time>2021-09-06T13:34:18Z</time>
      </trkpt>
      <trkpt lat="44.52346" lon="5.5478">
        <ele>1080.6</ele>
        <time>2021-09-06T13:34:19Z</time>
      </trkpt>
      <trkpt lat="44.52342" lon="5.54781">
        <ele>1080.9</ele>
        <time>2021-09-06T13:34:21Z</time>
      </trkpt>
      <trkpt lat="44.52339" lon="5.54782">
        <ele>1081.1</ele>
        <time>2021-09-06T13:34:22Z</time>
      </trkpt>
      <trkpt lat="44.52336" lon="5.54784">
        <ele>1081.2</ele>
        <time>2021-09-06T13:34:23Z</time>
      </trkpt>
      <trkpt lat="44.52335" lon="5.54785">
        <ele>1081.3</ele>
        <time>2021-09-06T13:34:24Z</time>
      </trkpt>
      <trkpt lat="44.52333" lon="5.54787">
        <ele>1081.4</ele>
        <time>2021-09-06T13:34:26Z</time>
      </trkpt>
      <trkpt lat="44.52332" lon="5.54788">
        <ele>1081.5</ele>
        <time>2021-09-06T13:34:27Z</time>
      </trkpt>
      <trkpt lat="44.5233" lon="5.5479">
        <ele>1081.6</ele>
        <time>2021-09-06T13:34:28Z</time>
      </trkpt>
      <trkpt lat="44.52329" lon="5.54791">
        <ele>1081.6</ele>
        <time>2021-09-06T13:34:29Z</time>
      </trkpt>
      <trkpt lat="44.52325" lon="5.54795">
        <ele>1081.7</ele>
        <time>2021-09-06T13:34:31Z</time>
      </trkpt>
      <trkpt lat="44.52323" lon="5.54796">
        <ele>1081.8</ele>
        <time>2021-09-06T13:34:32Z</time>
      </trkpt>
      <trkpt lat="44.5232" lon="5.548">
        <ele>1082</ele>
        <time>2021-09-06T13:34:34Z</time>
      </trkpt>
      <trkpt lat="44.52317" lon="5.54804">
        <ele>1082</ele>
        <time>2021-09-06T13:34:35Z</time>
      </trkpt>
      <trkpt lat="44.52317" lon="5.54805">
        <ele>1082.1</ele>
        <time>2021-09-06T13:34:36Z</time>
      </trkpt>
      <trkpt lat="44.52314" lon="5.54808">
        <ele>1082.2</ele>
        <time>2021-09-06T13:34:38Z</time>
      </trkpt>
      <trkpt lat="44.52312" lon="5.54811">
        <ele>1082.2</ele>
        <time>2021-09-06T13:34:39Z</time>
      </trkpt>
      <trkpt lat="44.52309" lon="5.54814">
        <ele>1082.3</ele>
        <time>2021-09-06T13:34:41Z</time>
      </trkpt>
      <trkpt lat="44.52307" lon="5.54816">
        <ele>1082.4</ele>
        <time>2021-09-06T13:34:42Z</time>
      </trkpt>
      <trkpt lat="44.52304" lon="5.54819">
        <ele>1082.4</ele>
        <time>2021-09-06T13:34:43Z</time>
      </trkpt>
      <trkpt lat="44.52302" lon="5.5482">
        <ele>1082.5</ele>
        <time>2021-09-06T13:34:45Z</time>
      </trkpt>
      <trkpt lat="44.523" lon="5.54822">
        <ele>1082.6</ele>
        <time>2021-09-06T13:34:46Z</time>
      </trkpt>
      <trkpt lat="44.52297" lon="5.54825">
        <ele>1082.7</ele>
        <time>2021-09-06T13:34:48Z</time>
      </trkpt>
      <trkpt lat="44.52294" lon="5.54828">
        <ele>1082.8</ele>
        <time>2021-09-06T13:34:49Z</time>
      </trkpt>
      <trkpt lat="44.52293" lon="5.54829">
        <ele>1082.8</ele>
        <time>2021-09-06T13:34:50Z</time>
      </trkpt>
      <trkpt lat="44.5229" lon="5.54831">
        <ele>1083</ele>
        <time>2021-09-06T13:34:52Z</time>
      </trkpt>
      <trkpt lat="44.52289" lon="5.54833">
        <ele>1083.1</ele>
        <time>2021-09-06T13:34:53Z</time>
      </trkpt>
      <trkpt lat="44.52286" lon="5.54836">
        <ele>1083.3</ele>
        <time>2021-09-06T13:34:55Z</time>
      </trkpt>
      <trkpt lat="44.52285" lon="5.54838">
        <ele>1083.4</ele>
        <time>2021-09-06T13:34:56Z</time>
      </trkpt>
      <trkpt lat="44.52282" lon="5.54842">
        <ele>1083.7</ele>
        <time>2021-09-06T13:34:58Z</time>
      </trkpt>
      <trkpt lat="44.52279" lon="5.54845">
        <ele>1084</ele>
        <time>2021-09-06T13:34:59Z</time>
      </trkpt>
      <trkpt lat="44.52278" lon="5.54846">
        <ele>1084.1</ele>
        <time>2021-09-06T13:35:00Z</time>
      </trkpt>
      <trkpt lat="44.52275" lon="5.54848">
        <ele>1084.4</ele>
        <time>2021-09-06T13:35:01Z</time>
      </trkpt>
      <trkpt lat="44.52272" lon="5.54851">
        <ele>1084.6</ele>
        <time>2021-09-06T13:35:03Z</time>
      </trkpt>
      <trkpt lat="44.52271" lon="5.54854">
        <ele>1084.8</ele>
        <time>2021-09-06T13:35:04Z</time>
      </trkpt>
      <trkpt lat="44.52268" lon="5.54858">
        <ele>1085.1</ele>
        <time>2021-09-06T13:35:06Z</time>
      </trkpt>
      <trkpt lat="44.52266" lon="5.5486">
        <ele>1085.2</ele>
        <time>2021-09-06T13:35:07Z</time>
      </trkpt>
      <trkpt lat="44.52263" lon="5.54864">
        <ele>1085.5</ele>
        <time>2021-09-06T13:35:09Z</time>
      </trkpt>
      <trkpt lat="44.52262" lon="5.54867">
        <ele>1085.6</ele>
        <time>2021-09-06T13:35:10Z</time>
      </trkpt>
      <trkpt lat="44.5226" lon="5.54869">
        <ele>1085.7</ele>
        <time>2021-09-06T13:35:11Z</time>
      </trkpt>
      <trkpt lat="44.52257" lon="5.54875">
        <ele>1085.9</ele>
        <time>2021-09-06T13:35:13Z</time>
      </trkpt>
      <trkpt lat="44.52254" lon="5.54879">
        <ele>1086.1</ele>
        <time>2021-09-06T13:35:14Z</time>
      </trkpt>
      <trkpt lat="44.52253" lon="5.54881">
        <ele>1086.2</ele>
        <time>2021-09-06T13:35:15Z</time>
      </trkpt>
      <trkpt lat="44.52251" lon="5.54883">
        <ele>1086.3</ele>
        <time>2021-09-06T13:35:16Z</time>
      </trkpt>
      <trkpt lat="44.52248" lon="5.54887">
        <ele>1086.4</ele>
        <time>2021-09-06T13:35:18Z</time>
      </trkpt>
      <trkpt lat="44.52246" lon="5.54889">
        <ele>1086.6</ele>
        <time>2021-09-06T13:35:19Z</time>
      </trkpt>
      <trkpt lat="44.52245" lon="5.5489">
        <ele>1086.6</ele>
        <time>2021-09-06T13:35:20Z</time>
      </trkpt>
      <trkpt lat="44.52243" lon="5.54893">
        <ele>1086.7</ele>
        <time>2021-09-06T13:35:21Z</time>
      </trkpt>
      <trkpt lat="44.52242" lon="5.54894">
        <ele>1086.8</ele>
        <time>2021-09-06T13:35:22Z</time>
      </trkpt>
      <trkpt lat="44.52239" lon="5.54897">
        <ele>1086.8</ele>
        <time>2021-09-06T13:35:23Z</time>
      </trkpt>
      <trkpt lat="44.52238" lon="5.54898">
        <ele>1086.8</ele>
        <time>2021-09-06T13:35:24Z</time>
      </trkpt>
      <trkpt lat="44.52235" lon="5.54903">
        <ele>1086.8</ele>
        <time>2021-09-06T13:35:26Z</time>
      </trkpt>
      <trkpt lat="44.52234" lon="5.54907">
        <ele>1086.8</ele>
        <time>2021-09-06T13:35:27Z</time>
      </trkpt>
      <trkpt lat="44.5223" lon="5.54913">
        <ele>1086.7</ele>
        <time>2021-09-06T13:35:29Z</time>
      </trkpt>
      <trkpt lat="44.52228" lon="5.54917">
        <ele>1086.7</ele>
        <time>2021-09-06T13:35:30Z</time>
      </trkpt>
      <trkpt lat="44.52226" lon="5.54922">
        <ele>1086.7</ele>
        <time>2021-09-06T13:35:31Z</time>
      </trkpt>
      <trkpt lat="44.52224" lon="5.54928">
        <ele>1086.7</ele>
        <time>2021-09-06T13:35:33Z</time>
      </trkpt>
      <trkpt lat="44.52222" lon="5.54931">
        <ele>1086.7</ele>
        <time>2021-09-06T13:35:34Z</time>
      </trkpt>
      <trkpt lat="44.5222" lon="5.54937">
        <ele>1086.6</ele>
        <time>2021-09-06T13:35:36Z</time>
      </trkpt>
      <trkpt lat="44.5222" lon="5.54941">
        <ele>1086.5</ele>
        <time>2021-09-06T13:35:37Z</time>
      </trkpt>
      <trkpt lat="44.52218" lon="5.54946">
        <ele>1086.4</ele>
        <time>2021-09-06T13:35:38Z</time>
      </trkpt>
      <trkpt lat="44.52217" lon="5.54953">
        <ele>1086.2</ele>
        <time>2021-09-06T13:35:39Z</time>
      </trkpt>
      <trkpt lat="44.52216" lon="5.54958">
        <ele>1085.9</ele>
        <time>2021-09-06T13:35:41Z</time>
      </trkpt>
      <trkpt lat="44.52214" lon="5.54964">
        <ele>1085.6</ele>
        <time>2021-09-06T13:35:42Z</time>
      </trkpt>
      <trkpt lat="44.52213" lon="5.54973">
        <ele>1085.1</ele>
        <time>2021-09-06T13:35:43Z</time>
      </trkpt>
      <trkpt lat="44.52211" lon="5.54979">
        <ele>1084.8</ele>
        <time>2021-09-06T13:35:44Z</time>
      </trkpt>
      <trkpt lat="44.52209" lon="5.54986">
        <ele>1084.3</ele>
        <time>2021-09-06T13:35:46Z</time>
      </trkpt>
      <trkpt lat="44.52207" lon="5.54993">
        <ele>1083.8</ele>
        <time>2021-09-06T13:35:47Z</time>
      </trkpt>
      <trkpt lat="44.52201" lon="5.55006">
        <ele>1082.6</ele>
        <time>2021-09-06T13:35:49Z</time>
      </trkpt>
      <trkpt lat="44.52193" lon="5.55019">
        <ele>1081</ele>
        <time>2021-09-06T13:35:51Z</time>
      </trkpt>
      <trkpt lat="44.52188" lon="5.55026">
        <ele>1080.3</ele>
        <time>2021-09-06T13:35:52Z</time>
      </trkpt>
      <trkpt lat="44.52184" lon="5.55033">
        <ele>1079.9</ele>
        <time>2021-09-06T13:35:53Z</time>
      </trkpt>
      <trkpt lat="44.52179" lon="5.55038">
        <ele>1079.5</ele>
        <time>2021-09-06T13:35:54Z</time>
      </trkpt>
      <trkpt lat="44.52173" lon="5.55043">
        <ele>1079</ele>
        <time>2021-09-06T13:35:55Z</time>
      </trkpt>
      <trkpt lat="44.52162" lon="5.55049">
        <ele>1077.6</ele>
        <time>2021-09-06T13:35:57Z</time>
      </trkpt>
      <trkpt lat="44.52157" lon="5.5505">
        <ele>1076.9</ele>
        <time>2021-09-06T13:35:58Z</time>
      </trkpt>
      <trkpt lat="44.52145" lon="5.55049">
        <ele>1075</ele>
        <time>2021-09-06T13:36:00Z</time>
      </trkpt>
      <trkpt lat="44.52139" lon="5.55052">
        <ele>1074.1</ele>
        <time>2021-09-06T13:36:01Z</time>
      </trkpt>
      <trkpt lat="44.52134" lon="5.55056">
        <ele>1073.3</ele>
        <time>2021-09-06T13:36:02Z</time>
      </trkpt>
      <trkpt lat="44.52124" lon="5.55062">
        <ele>1072</ele>
        <time>2021-09-06T13:36:04Z</time>
      </trkpt>
      <trkpt lat="44.52119" lon="5.55065">
        <ele>1071.3</ele>
        <time>2021-09-06T13:36:05Z</time>
      </trkpt>
      <trkpt lat="44.52108" lon="5.55071">
        <ele>1070</ele>
        <time>2021-09-06T13:36:07Z</time>
      </trkpt>
      <trkpt lat="44.52098" lon="5.55076">
        <ele>1068.6</ele>
        <time>2021-09-06T13:36:09Z</time>
      </trkpt>
      <trkpt lat="44.52085" lon="5.55081">
        <ele>1066.9</ele>
        <time>2021-09-06T13:36:11Z</time>
      </trkpt>
      <trkpt lat="44.5207" lon="5.55086">
        <ele>1065.1</ele>
        <time>2021-09-06T13:36:13Z</time>
      </trkpt>
      <trkpt lat="44.52054" lon="5.55091">
        <ele>1063.2</ele>
        <time>2021-09-06T13:36:15Z</time>
      </trkpt>
      <trkpt lat="44.52044" lon="5.55093">
        <ele>1062.5</ele>
        <time>2021-09-06T13:36:16Z</time>
      </trkpt>
      <trkpt lat="44.52035" lon="5.55095">
        <ele>1062.3</ele>
        <time>2021-09-06T13:36:17Z</time>
      </trkpt>
      <trkpt lat="44.52027" lon="5.55096">
        <ele>1062.2</ele>
        <time>2021-09-06T13:36:18Z</time>
      </trkpt>
      <trkpt lat="44.5202" lon="5.55098">
        <ele>1062.2</ele>
        <time>2021-09-06T13:36:19Z</time>
      </trkpt>
      <trkpt lat="44.5201" lon="5.55104">
        <ele>1062.2</ele>
        <time>2021-09-06T13:36:21Z</time>
      </trkpt>
      <trkpt lat="44.52006" lon="5.55109">
        <ele>1062</ele>
        <time>2021-09-06T13:36:22Z</time>
      </trkpt>
      <trkpt lat="44.51997" lon="5.55118">
        <ele>1061.7</ele>
        <time>2021-09-06T13:36:24Z</time>
      </trkpt>
      <trkpt lat="44.51992" lon="5.55122">
        <ele>1061.5</ele>
        <time>2021-09-06T13:36:25Z</time>
      </trkpt>
      <trkpt lat="44.51984" lon="5.5513">
        <ele>1061.2</ele>
        <time>2021-09-06T13:36:27Z</time>
      </trkpt>
      <trkpt lat="44.51979" lon="5.55135">
        <ele>1061</ele>
        <time>2021-09-06T13:36:29Z</time>
      </trkpt>
      <trkpt lat="44.51978" lon="5.55136">
        <ele>1060.9</ele>
        <time>2021-09-06T13:36:30Z</time>
      </trkpt>
      <trkpt lat="44.51977" lon="5.55138">
        <ele>1060.9</ele>
        <time>2021-09-06T13:36:31Z</time>
      </trkpt>
      <trkpt lat="44.51976" lon="5.55138">
        <ele>1060.9</ele>
        <time>2021-09-06T13:36:33Z</time>
      </trkpt>
      <trkpt lat="44.51976" lon="5.55138">
        <ele>1060.9</ele>
        <time>2021-09-06T13:36:34Z</time>
      </trkpt>
      <trkpt lat="44.51976" lon="5.55138">
        <ele>1060.9</ele>
        <time>2021-09-06T13:36:35Z</time>
      </trkpt>
      <trkpt lat="44.51976" lon="5.55138">
        <ele>1060.9</ele>
        <time>2021-09-06T13:36:36Z</time>
      </trkpt>
      <trkpt lat="44.51976" lon="5.55138">
        <ele>1060.8</ele>
        <time>2021-09-06T13:36:38Z</time>
      </trkpt>
      <trkpt lat="44.51976" lon="5.55138">
        <ele>1060.8</ele>
        <time>2021-09-06T13:36:40Z</time>
      </trkpt>
      <trkpt lat="44.51973" lon="5.55156">
        <ele>1060.4</ele>
        <time>2021-09-06T13:37:23Z</time>
      </trkpt>
      <trkpt lat="44.51973" lon="5.55165">
        <ele>1060.2</ele>
        <time>2021-09-06T13:37:25Z</time>
      </trkpt>
      <trkpt lat="44.51971" lon="5.55174">
        <ele>1060</ele>
        <time>2021-09-06T13:37:27Z</time>
      </trkpt>
      <trkpt lat="44.51969" lon="5.55183">
        <ele>1059.9</ele>
        <time>2021-09-06T13:37:29Z</time>
      </trkpt>
      <trkpt lat="44.51967" lon="5.55187">
        <ele>1059.9</ele>
        <time>2021-09-06T13:37:30Z</time>
      </trkpt>
      <trkpt lat="44.51965" lon="5.55191">
        <ele>1059.9</ele>
        <time>2021-09-06T13:37:31Z</time>
      </trkpt>
      <trkpt lat="44.51964" lon="5.55195">
        <ele>1059.9</ele>
        <time>2021-09-06T13:37:32Z</time>
      </trkpt>
      <trkpt lat="44.51963" lon="5.55199">
        <ele>1059.9</ele>
        <time>2021-09-06T13:37:33Z</time>
      </trkpt>
      <trkpt lat="44.5196" lon="5.55207">
        <ele>1059.9</ele>
        <time>2021-09-06T13:37:35Z</time>
      </trkpt>
      <trkpt lat="44.51956" lon="5.55213">
        <ele>1059.8</ele>
        <time>2021-09-06T13:37:37Z</time>
      </trkpt>
      <trkpt lat="44.5195" lon="5.55217">
        <ele>1059.6</ele>
        <time>2021-09-06T13:37:39Z</time>
      </trkpt>
      <trkpt lat="44.51946" lon="5.5522">
        <ele>1059.4</ele>
        <time>2021-09-06T13:37:40Z</time>
      </trkpt>
      <trkpt lat="44.51941" lon="5.55224">
        <ele>1059.2</ele>
        <time>2021-09-06T13:37:41Z</time>
      </trkpt>
      <trkpt lat="44.51933" lon="5.5523">
        <ele>1058.7</ele>
        <time>2021-09-06T13:37:43Z</time>
      </trkpt>
      <trkpt lat="44.51923" lon="5.55239">
        <ele>1058.1</ele>
        <time>2021-09-06T13:37:45Z</time>
      </trkpt>
      <trkpt lat="44.51915" lon="5.55249">
        <ele>1057.4</ele>
        <time>2021-09-06T13:37:47Z</time>
      </trkpt>
      <trkpt lat="44.51911" lon="5.55255">
        <ele>1057.1</ele>
        <time>2021-09-06T13:37:48Z</time>
      </trkpt>
      <trkpt lat="44.51905" lon="5.55268">
        <ele>1056.6</ele>
        <time>2021-09-06T13:37:50Z</time>
      </trkpt>
      <trkpt lat="44.519" lon="5.55281">
        <ele>1056.2</ele>
        <time>2021-09-06T13:37:52Z</time>
      </trkpt>
      <trkpt lat="44.51898" lon="5.55288">
        <ele>1056</ele>
        <time>2021-09-06T13:37:53Z</time>
      </trkpt>
      <trkpt lat="44.51894" lon="5.55301">
        <ele>1055.6</ele>
        <time>2021-09-06T13:37:55Z</time>
      </trkpt>
      <trkpt lat="44.5189" lon="5.55312">
        <ele>1055.3</ele>
        <time>2021-09-06T13:37:57Z</time>
      </trkpt>
      <trkpt lat="44.51886" lon="5.55322">
        <ele>1055.1</ele>
        <time>2021-09-06T13:37:59Z</time>
      </trkpt>
      <trkpt lat="44.51883" lon="5.5533">
        <ele>1054.9</ele>
        <time>2021-09-06T13:38:01Z</time>
      </trkpt>
      <trkpt lat="44.51879" lon="5.55338">
        <ele>1054.7</ele>
        <time>2021-09-06T13:38:03Z</time>
      </trkpt>
      <trkpt lat="44.51876" lon="5.55343">
        <ele>1054.3</ele>
        <time>2021-09-06T13:38:04Z</time>
      </trkpt>
      <trkpt lat="44.51875" lon="5.55345">
        <ele>1053.9</ele>
        <time>2021-09-06T13:38:05Z</time>
      </trkpt>
      <trkpt lat="44.51868" lon="5.55353">
        <ele>1052.3</ele>
        <time>2021-09-06T13:38:07Z</time>
      </trkpt>
      <trkpt lat="44.51865" lon="5.55356">
        <ele>1051.5</ele>
        <time>2021-09-06T13:38:08Z</time>
      </trkpt>
      <trkpt lat="44.51857" lon="5.55364">
        <ele>1050</ele>
        <time>2021-09-06T13:38:10Z</time>
      </trkpt>
      <trkpt lat="44.5185" lon="5.55371">
        <ele>1048.9</ele>
        <time>2021-09-06T13:38:12Z</time>
      </trkpt>
      <trkpt lat="44.51847" lon="5.55374">
        <ele>1048.4</ele>
        <time>2021-09-06T13:38:13Z</time>
      </trkpt>
      <trkpt lat="44.51845" lon="5.55377">
        <ele>1048</ele>
        <time>2021-09-06T13:38:15Z</time>
      </trkpt>
      <trkpt lat="44.51844" lon="5.55379">
        <ele>1047.8</ele>
        <time>2021-09-06T13:38:16Z</time>
      </trkpt>
      <trkpt lat="44.51844" lon="5.55379">
        <ele>1047.8</ele>
        <time>2021-09-06T13:38:18Z</time>
      </trkpt>
      <trkpt lat="44.51844" lon="5.55379">
        <ele>1047.8</ele>
        <time>2021-09-06T13:38:19Z</time>
      </trkpt>
      <trkpt lat="44.51844" lon="5.55379">
        <ele>1047.8</ele>
        <time>2021-09-06T13:38:21Z</time>
      </trkpt>
      <trkpt lat="44.51844" lon="5.55379">
        <ele>1047.8</ele>
        <time>2021-09-06T13:38:23Z</time>
      </trkpt>
      <trkpt lat="44.51844" lon="5.55379">
        <ele>1047.8</ele>
        <time>2021-09-06T13:38:25Z</time>
      </trkpt>
      <trkpt lat="44.51839" lon="5.55384">
        <ele>1046.9</ele>
        <time>2021-09-06T13:38:33Z</time>
      </trkpt>
      <trkpt lat="44.51833" lon="5.55392">
        <ele>1045.7</ele>
        <time>2021-09-06T13:38:35Z</time>
      </trkpt>
      <trkpt lat="44.51829" lon="5.55398">
        <ele>1044.5</ele>
        <time>2021-09-06T13:38:36Z</time>
      </trkpt>
      <trkpt lat="44.51824" lon="5.55405">
        <ele>1043.3</ele>
        <time>2021-09-06T13:38:37Z</time>
      </trkpt>
      <trkpt lat="44.51818" lon="5.55415">
        <ele>1041.9</ele>
        <time>2021-09-06T13:38:39Z</time>
      </trkpt>
      <trkpt lat="44.51814" lon="5.55424">
        <ele>1040.9</ele>
        <time>2021-09-06T13:38:41Z</time>
      </trkpt>
      <trkpt lat="44.51812" lon="5.5543">
        <ele>1040.3</ele>
        <time>2021-09-06T13:38:42Z</time>
      </trkpt>
      <trkpt lat="44.51811" lon="5.55435">
        <ele>1039.9</ele>
        <time>2021-09-06T13:38:43Z</time>
      </trkpt>
      <trkpt lat="44.51808" lon="5.5544">
        <ele>1039.2</ele>
        <time>2021-09-06T13:38:44Z</time>
      </trkpt>
      <trkpt lat="44.51805" lon="5.55446">
        <ele>1038.5</ele>
        <time>2021-09-06T13:38:46Z</time>
      </trkpt>
      <trkpt lat="44.51803" lon="5.55451">
        <ele>1037.9</ele>
        <time>2021-09-06T13:38:47Z</time>
      </trkpt>
      <trkpt lat="44.51801" lon="5.55456">
        <ele>1037.2</ele>
        <time>2021-09-06T13:38:49Z</time>
      </trkpt>
      <trkpt lat="44.51798" lon="5.55459">
        <ele>1036.6</ele>
        <time>2021-09-06T13:38:50Z</time>
      </trkpt>
      <trkpt lat="44.51796" lon="5.55463">
        <ele>1036.1</ele>
        <time>2021-09-06T13:38:51Z</time>
      </trkpt>
      <trkpt lat="44.51793" lon="5.55469">
        <ele>1035.3</ele>
        <time>2021-09-06T13:38:52Z</time>
      </trkpt>
      <trkpt lat="44.51788" lon="5.55474">
        <ele>1034.4</ele>
        <time>2021-09-06T13:38:54Z</time>
      </trkpt>
      <trkpt lat="44.51784" lon="5.55478">
        <ele>1033.7</ele>
        <time>2021-09-06T13:38:55Z</time>
      </trkpt>
      <trkpt lat="44.51778" lon="5.55483">
        <ele>1032.6</ele>
        <time>2021-09-06T13:38:57Z</time>
      </trkpt>
      <trkpt lat="44.51774" lon="5.55486">
        <ele>1032</ele>
        <time>2021-09-06T13:38:58Z</time>
      </trkpt>
      <trkpt lat="44.51771" lon="5.55488">
        <ele>1031.4</ele>
        <time>2021-09-06T13:38:59Z</time>
      </trkpt>
      <trkpt lat="44.51766" lon="5.55493">
        <ele>1030.4</ele>
        <time>2021-09-06T13:39:00Z</time>
      </trkpt>
      <trkpt lat="44.51762" lon="5.55496">
        <ele>1029.5</ele>
        <time>2021-09-06T13:39:02Z</time>
      </trkpt>
      <trkpt lat="44.51758" lon="5.555">
        <ele>1028.3</ele>
        <time>2021-09-06T13:39:03Z</time>
      </trkpt>
      <trkpt lat="44.51751" lon="5.55504">
        <ele>1026.6</ele>
        <time>2021-09-06T13:39:04Z</time>
      </trkpt>
      <trkpt lat="44.51742" lon="5.55514">
        <ele>1023.9</ele>
        <time>2021-09-06T13:39:06Z</time>
      </trkpt>
      <trkpt lat="44.51733" lon="5.55523">
        <ele>1021.9</ele>
        <time>2021-09-06T13:39:08Z</time>
      </trkpt>
      <trkpt lat="44.51729" lon="5.55527">
        <ele>1021</ele>
        <time>2021-09-06T13:39:09Z</time>
      </trkpt>
      <trkpt lat="44.51725" lon="5.55531">
        <ele>1020.2</ele>
        <time>2021-09-06T13:39:10Z</time>
      </trkpt>
      <trkpt lat="44.51722" lon="5.55529">
        <ele>1019.6</ele>
        <time>2021-09-06T13:39:11Z</time>
      </trkpt>
      <trkpt lat="44.51719" lon="5.55531">
        <ele>1018.8</ele>
        <time>2021-09-06T13:39:12Z</time>
      </trkpt>
      <trkpt lat="44.51713" lon="5.55539">
        <ele>1017.3</ele>
        <time>2021-09-06T13:39:14Z</time>
      </trkpt>
      <trkpt lat="44.51707" lon="5.55546">
        <ele>1015.7</ele>
        <time>2021-09-06T13:39:15Z</time>
      </trkpt>
      <trkpt lat="44.517" lon="5.55552">
        <ele>1014.3</ele>
        <time>2021-09-06T13:39:17Z</time>
      </trkpt>
      <trkpt lat="44.51692" lon="5.55559">
        <ele>1012.7</ele>
        <time>2021-09-06T13:39:18Z</time>
      </trkpt>
      <trkpt lat="44.51686" lon="5.55563">
        <ele>1011.8</ele>
        <time>2021-09-06T13:39:19Z</time>
      </trkpt>
      <trkpt lat="44.51682" lon="5.55565">
        <ele>1011</ele>
        <time>2021-09-06T13:39:20Z</time>
      </trkpt>
      <trkpt lat="44.51678" lon="5.55568">
        <ele>1010.3</ele>
        <time>2021-09-06T13:39:21Z</time>
      </trkpt>
      <trkpt lat="44.51673" lon="5.55572">
        <ele>1009.4</ele>
        <time>2021-09-06T13:39:22Z</time>
      </trkpt>
      <trkpt lat="44.51669" lon="5.55578">
        <ele>1008.5</ele>
        <time>2021-09-06T13:39:24Z</time>
      </trkpt>
      <trkpt lat="44.51666" lon="5.55583">
        <ele>1007.5</ele>
        <time>2021-09-06T13:39:25Z</time>
      </trkpt>
      <trkpt lat="44.51664" lon="5.55589">
        <ele>1006.6</ele>
        <time>2021-09-06T13:39:26Z</time>
      </trkpt>
      <trkpt lat="44.51662" lon="5.55595">
        <ele>1005.4</ele>
        <time>2021-09-06T13:39:27Z</time>
      </trkpt>
      <trkpt lat="44.5166" lon="5.55601">
        <ele>1004.6</ele>
        <time>2021-09-06T13:39:28Z</time>
      </trkpt>
      <trkpt lat="44.51659" lon="5.55607">
        <ele>1003.5</ele>
        <time>2021-09-06T13:39:29Z</time>
      </trkpt>
      <trkpt lat="44.51659" lon="5.55613">
        <ele>1002.5</ele>
        <time>2021-09-06T13:39:31Z</time>
      </trkpt>
      <trkpt lat="44.51657" lon="5.5562">
        <ele>1001.3</ele>
        <time>2021-09-06T13:39:32Z</time>
      </trkpt>
      <trkpt lat="44.51654" lon="5.55628">
        <ele>999.9</ele>
        <time>2021-09-06T13:39:33Z</time>
      </trkpt>
      <trkpt lat="44.51652" lon="5.55634">
        <ele>998.9</ele>
        <time>2021-09-06T13:39:35Z</time>
      </trkpt>
      <trkpt lat="44.5165" lon="5.5564">
        <ele>998</ele>
        <time>2021-09-06T13:39:36Z</time>
      </trkpt>
      <trkpt lat="44.51648" lon="5.55647">
        <ele>997.2</ele>
        <time>2021-09-06T13:39:37Z</time>
      </trkpt>
      <trkpt lat="44.51646" lon="5.55654">
        <ele>996.4</ele>
        <time>2021-09-06T13:39:38Z</time>
      </trkpt>
      <trkpt lat="44.51643" lon="5.55659">
        <ele>995.9</ele>
        <time>2021-09-06T13:39:39Z</time>
      </trkpt>
      <trkpt lat="44.51641" lon="5.55662">
        <ele>995.4</ele>
        <time>2021-09-06T13:39:40Z</time>
      </trkpt>
      <trkpt lat="44.51637" lon="5.55667">
        <ele>994.9</ele>
        <time>2021-09-06T13:39:42Z</time>
      </trkpt>
      <trkpt lat="44.51634" lon="5.5567">
        <ele>994.4</ele>
        <time>2021-09-06T13:39:43Z</time>
      </trkpt>
      <trkpt lat="44.51629" lon="5.55673">
        <ele>993.8</ele>
        <time>2021-09-06T13:39:44Z</time>
      </trkpt>
      <trkpt lat="44.51626" lon="5.55676">
        <ele>993.2</ele>
        <time>2021-09-06T13:39:46Z</time>
      </trkpt>
      <trkpt lat="44.51622" lon="5.55679">
        <ele>992.8</ele>
        <time>2021-09-06T13:39:47Z</time>
      </trkpt>
      <trkpt lat="44.51618" lon="5.55683">
        <ele>992.5</ele>
        <time>2021-09-06T13:39:48Z</time>
      </trkpt>
      <trkpt lat="44.51616" lon="5.55686">
        <ele>992.4</ele>
        <time>2021-09-06T13:39:50Z</time>
      </trkpt>
      <trkpt lat="44.51613" lon="5.5569">
        <ele>992.4</ele>
        <time>2021-09-06T13:39:51Z</time>
      </trkpt>
      <trkpt lat="44.5161" lon="5.55694">
        <ele>992.4</ele>
        <time>2021-09-06T13:39:52Z</time>
      </trkpt>
      <trkpt lat="44.51607" lon="5.55698">
        <ele>992.4</ele>
        <time>2021-09-06T13:39:53Z</time>
      </trkpt>
      <trkpt lat="44.51605" lon="5.55702">
        <ele>992.4</ele>
        <time>2021-09-06T13:39:54Z</time>
      </trkpt>
      <trkpt lat="44.51601" lon="5.55707">
        <ele>992.4</ele>
        <time>2021-09-06T13:39:55Z</time>
      </trkpt>
      <trkpt lat="44.51599" lon="5.55711">
        <ele>992.4</ele>
        <time>2021-09-06T13:39:56Z</time>
      </trkpt>
      <trkpt lat="44.51595" lon="5.55716">
        <ele>992.5</ele>
        <time>2021-09-06T13:39:57Z</time>
      </trkpt>
      <trkpt lat="44.51592" lon="5.55721">
        <ele>992.6</ele>
        <time>2021-09-06T13:39:59Z</time>
      </trkpt>
      <trkpt lat="44.51589" lon="5.55726">
        <ele>992.7</ele>
        <time>2021-09-06T13:40:01Z</time>
      </trkpt>
      <trkpt lat="44.51586" lon="5.5573">
        <ele>992.8</ele>
        <time>2021-09-06T13:40:02Z</time>
      </trkpt>
      <trkpt lat="44.51584" lon="5.55735">
        <ele>993</ele>
        <time>2021-09-06T13:40:03Z</time>
      </trkpt>
      <trkpt lat="44.51583" lon="5.55737">
        <ele>993.1</ele>
        <time>2021-09-06T13:40:04Z</time>
      </trkpt>
      <trkpt lat="44.51582" lon="5.55741">
        <ele>993.2</ele>
        <time>2021-09-06T13:40:06Z</time>
      </trkpt>
      <trkpt lat="44.5158" lon="5.55744">
        <ele>993.3</ele>
        <time>2021-09-06T13:40:07Z</time>
      </trkpt>
      <trkpt lat="44.51577" lon="5.55749">
        <ele>993.6</ele>
        <time>2021-09-06T13:40:09Z</time>
      </trkpt>
      <trkpt lat="44.51576" lon="5.55752">
        <ele>993.8</ele>
        <time>2021-09-06T13:40:10Z</time>
      </trkpt>
      <trkpt lat="44.51575" lon="5.55755">
        <ele>993.9</ele>
        <time>2021-09-06T13:40:11Z</time>
      </trkpt>
      <trkpt lat="44.51573" lon="5.55761">
        <ele>994.1</ele>
        <time>2021-09-06T13:40:13Z</time>
      </trkpt>
      <trkpt lat="44.51571" lon="5.55767">
        <ele>994.4</ele>
        <time>2021-09-06T13:40:14Z</time>
      </trkpt>
      <trkpt lat="44.51571" lon="5.55769">
        <ele>994.5</ele>
        <time>2021-09-06T13:40:15Z</time>
      </trkpt>
      <trkpt lat="44.5157" lon="5.55774">
        <ele>994.6</ele>
        <time>2021-09-06T13:40:17Z</time>
      </trkpt>
      <trkpt lat="44.51568" lon="5.55777">
        <ele>994.8</ele>
        <time>2021-09-06T13:40:18Z</time>
      </trkpt>
      <trkpt lat="44.51566" lon="5.5578">
        <ele>994.9</ele>
        <time>2021-09-06T13:40:20Z</time>
      </trkpt>
      <trkpt lat="44.51565" lon="5.55781">
        <ele>994.9</ele>
        <time>2021-09-06T13:40:21Z</time>
      </trkpt>
      <trkpt lat="44.51563" lon="5.55782">
        <ele>995</ele>
        <time>2021-09-06T13:40:22Z</time>
      </trkpt>
      <trkpt lat="44.51562" lon="5.55783">
        <ele>995.1</ele>
        <time>2021-09-06T13:40:23Z</time>
      </trkpt>
      <trkpt lat="44.5156" lon="5.55785">
        <ele>995.1</ele>
        <time>2021-09-06T13:40:24Z</time>
      </trkpt>
      <trkpt lat="44.5156" lon="5.55787">
        <ele>995.1</ele>
        <time>2021-09-06T13:40:26Z</time>
      </trkpt>
      <trkpt lat="44.51559" lon="5.55789">
        <ele>995.1</ele>
        <time>2021-09-06T13:40:27Z</time>
      </trkpt>
      <trkpt lat="44.51558" lon="5.55791">
        <ele>995.1</ele>
        <time>2021-09-06T13:40:28Z</time>
      </trkpt>
      <trkpt lat="44.51555" lon="5.55792">
        <ele>995.1</ele>
        <time>2021-09-06T13:40:30Z</time>
      </trkpt>
      <trkpt lat="44.51553" lon="5.55792">
        <ele>995</ele>
        <time>2021-09-06T13:40:31Z</time>
      </trkpt>
      <trkpt lat="44.51549" lon="5.55794">
        <ele>994.7</ele>
        <time>2021-09-06T13:40:33Z</time>
      </trkpt>
      <trkpt lat="44.51546" lon="5.55796">
        <ele>994.5</ele>
        <time>2021-09-06T13:40:34Z</time>
      </trkpt>
      <trkpt lat="44.51545" lon="5.55796">
        <ele>994.4</ele>
        <time>2021-09-06T13:40:35Z</time>
      </trkpt>
      <trkpt lat="44.51539" lon="5.55798">
        <ele>993.7</ele>
        <time>2021-09-06T13:40:37Z</time>
      </trkpt>
      <trkpt lat="44.51536" lon="5.55799">
        <ele>993.2</ele>
        <time>2021-09-06T13:40:38Z</time>
      </trkpt>
      <trkpt lat="44.51531" lon="5.55801">
        <ele>992.6</ele>
        <time>2021-09-06T13:40:39Z</time>
      </trkpt>
      <trkpt lat="44.51527" lon="5.55802">
        <ele>991.9</ele>
        <time>2021-09-06T13:40:40Z</time>
      </trkpt>
      <trkpt lat="44.51522" lon="5.55803">
        <ele>991.1</ele>
        <time>2021-09-06T13:40:41Z</time>
      </trkpt>
      <trkpt lat="44.51515" lon="5.55806">
        <ele>990</ele>
        <time>2021-09-06T13:40:42Z</time>
      </trkpt>
      <trkpt lat="44.51511" lon="5.55809">
        <ele>989.4</ele>
        <time>2021-09-06T13:40:43Z</time>
      </trkpt>
      <trkpt lat="44.51508" lon="5.55812">
        <ele>988.8</ele>
        <time>2021-09-06T13:40:45Z</time>
      </trkpt>
      <trkpt lat="44.51505" lon="5.55815">
        <ele>988.3</ele>
        <time>2021-09-06T13:40:46Z</time>
      </trkpt>
      <trkpt lat="44.51501" lon="5.55821">
        <ele>987.6</ele>
        <time>2021-09-06T13:40:48Z</time>
      </trkpt>
      <trkpt lat="44.51498" lon="5.55828">
        <ele>986.9</ele>
        <time>2021-09-06T13:40:49Z</time>
      </trkpt>
      <trkpt lat="44.51496" lon="5.55833">
        <ele>986.3</ele>
        <time>2021-09-06T13:40:50Z</time>
      </trkpt>
      <trkpt lat="44.51494" lon="5.55838">
        <ele>985.7</ele>
        <time>2021-09-06T13:40:51Z</time>
      </trkpt>
      <trkpt lat="44.51492" lon="5.55847">
        <ele>984.9</ele>
        <time>2021-09-06T13:40:53Z</time>
      </trkpt>
      <trkpt lat="44.51491" lon="5.55852">
        <ele>984.6</ele>
        <time>2021-09-06T13:40:54Z</time>
      </trkpt>
      <trkpt lat="44.51491" lon="5.55856">
        <ele>984.3</ele>
        <time>2021-09-06T13:40:55Z</time>
      </trkpt>
      <trkpt lat="44.5149" lon="5.55861">
        <ele>984</ele>
        <time>2021-09-06T13:40:56Z</time>
      </trkpt>
      <trkpt lat="44.51489" lon="5.55866">
        <ele>983.7</ele>
        <time>2021-09-06T13:40:58Z</time>
      </trkpt>
      <trkpt lat="44.51488" lon="5.55871">
        <ele>983.5</ele>
        <time>2021-09-06T13:41:00Z</time>
      </trkpt>
      <trkpt lat="44.51487" lon="5.55876">
        <ele>983.3</ele>
        <time>2021-09-06T13:41:02Z</time>
      </trkpt>
      <trkpt lat="44.51487" lon="5.55879">
        <ele>983.2</ele>
        <time>2021-09-06T13:41:03Z</time>
      </trkpt>
      <trkpt lat="44.51486" lon="5.55881">
        <ele>983.1</ele>
        <time>2021-09-06T13:41:04Z</time>
      </trkpt>
      <trkpt lat="44.51485" lon="5.55886">
        <ele>982.9</ele>
        <time>2021-09-06T13:41:06Z</time>
      </trkpt>
      <trkpt lat="44.51484" lon="5.55891">
        <ele>982.7</ele>
        <time>2021-09-06T13:41:07Z</time>
      </trkpt>
      <trkpt lat="44.51483" lon="5.55896">
        <ele>982.6</ele>
        <time>2021-09-06T13:41:08Z</time>
      </trkpt>
      <trkpt lat="44.51482" lon="5.55903">
        <ele>982.3</ele>
        <time>2021-09-06T13:41:09Z</time>
      </trkpt>
      <trkpt lat="44.51479" lon="5.55912">
        <ele>982</ele>
        <time>2021-09-06T13:41:11Z</time>
      </trkpt>
      <trkpt lat="44.51477" lon="5.55918">
        <ele>981.7</ele>
        <time>2021-09-06T13:41:12Z</time>
      </trkpt>
      <trkpt lat="44.51473" lon="5.5593">
        <ele>980.8</ele>
        <time>2021-09-06T13:41:14Z</time>
      </trkpt>
      <trkpt lat="44.51469" lon="5.5594">
        <ele>979.7</ele>
        <time>2021-09-06T13:41:15Z</time>
      </trkpt>
      <trkpt lat="44.51467" lon="5.55946">
        <ele>979</ele>
        <time>2021-09-06T13:41:17Z</time>
      </trkpt>
      <trkpt lat="44.51464" lon="5.55952">
        <ele>978.2</ele>
        <time>2021-09-06T13:41:18Z</time>
      </trkpt>
      <trkpt lat="44.51461" lon="5.55957">
        <ele>977.5</ele>
        <time>2021-09-06T13:41:19Z</time>
      </trkpt>
      <trkpt lat="44.51458" lon="5.55964">
        <ele>976.7</ele>
        <time>2021-09-06T13:41:20Z</time>
      </trkpt>
      <trkpt lat="44.51455" lon="5.55969">
        <ele>976</ele>
        <time>2021-09-06T13:41:22Z</time>
      </trkpt>
      <trkpt lat="44.51451" lon="5.55974">
        <ele>975.3</ele>
        <time>2021-09-06T13:41:23Z</time>
      </trkpt>
      <trkpt lat="44.51443" lon="5.55982">
        <ele>974.1</ele>
        <time>2021-09-06T13:41:25Z</time>
      </trkpt>
      <trkpt lat="44.51437" lon="5.5599">
        <ele>973.1</ele>
        <time>2021-09-06T13:41:26Z</time>
      </trkpt>
      <trkpt lat="44.51433" lon="5.55998">
        <ele>972.4</ele>
        <time>2021-09-06T13:41:28Z</time>
      </trkpt>
      <trkpt lat="44.5143" lon="5.56002">
        <ele>972.1</ele>
        <time>2021-09-06T13:41:29Z</time>
      </trkpt>
      <trkpt lat="44.51427" lon="5.56006">
        <ele>971.9</ele>
        <time>2021-09-06T13:41:30Z</time>
      </trkpt>
      <trkpt lat="44.51425" lon="5.56009">
        <ele>971.8</ele>
        <time>2021-09-06T13:41:31Z</time>
      </trkpt>
      <trkpt lat="44.51421" lon="5.56014">
        <ele>971.8</ele>
        <time>2021-09-06T13:41:33Z</time>
      </trkpt>
      <trkpt lat="44.51418" lon="5.56017">
        <ele>972.1</ele>
        <time>2021-09-06T13:41:34Z</time>
      </trkpt>
      <trkpt lat="44.51414" lon="5.56021">
        <ele>972.6</ele>
        <time>2021-09-06T13:41:35Z</time>
      </trkpt>
      <trkpt lat="44.51411" lon="5.56024">
        <ele>973.1</ele>
        <time>2021-09-06T13:41:37Z</time>
      </trkpt>
      <trkpt lat="44.51408" lon="5.56027">
        <ele>973.5</ele>
        <time>2021-09-06T13:41:38Z</time>
      </trkpt>
      <trkpt lat="44.51404" lon="5.56031">
        <ele>973.6</ele>
        <time>2021-09-06T13:41:39Z</time>
      </trkpt>
      <trkpt lat="44.51402" lon="5.56035">
        <ele>973.7</ele>
        <time>2021-09-06T13:41:40Z</time>
      </trkpt>
      <trkpt lat="44.51399" lon="5.56039">
        <ele>973.8</ele>
        <time>2021-09-06T13:41:42Z</time>
      </trkpt>
      <trkpt lat="44.51397" lon="5.56043">
        <ele>973.8</ele>
        <time>2021-09-06T13:41:43Z</time>
      </trkpt>
      <trkpt lat="44.51394" lon="5.5605">
        <ele>973.9</ele>
        <time>2021-09-06T13:41:45Z</time>
      </trkpt>
      <trkpt lat="44.51391" lon="5.56058">
        <ele>973.8</ele>
        <time>2021-09-06T13:41:47Z</time>
      </trkpt>
      <trkpt lat="44.51389" lon="5.56062">
        <ele>973.8</ele>
        <time>2021-09-06T13:41:48Z</time>
      </trkpt>
      <trkpt lat="44.51385" lon="5.56068">
        <ele>973.6</ele>
        <time>2021-09-06T13:41:50Z</time>
      </trkpt>
      <trkpt lat="44.51382" lon="5.56073">
        <ele>973.4</ele>
        <time>2021-09-06T13:41:51Z</time>
      </trkpt>
      <trkpt lat="44.51378" lon="5.5608">
        <ele>973.1</ele>
        <time>2021-09-06T13:41:52Z</time>
      </trkpt>
      <trkpt lat="44.51375" lon="5.56085">
        <ele>972.9</ele>
        <time>2021-09-06T13:41:54Z</time>
      </trkpt>
      <trkpt lat="44.51372" lon="5.5609">
        <ele>972.6</ele>
        <time>2021-09-06T13:41:55Z</time>
      </trkpt>
      <trkpt lat="44.51367" lon="5.56095">
        <ele>972.2</ele>
        <time>2021-09-06T13:41:56Z</time>
      </trkpt>
      <trkpt lat="44.51364" lon="5.561">
        <ele>972</ele>
        <time>2021-09-06T13:41:58Z</time>
      </trkpt>
      <trkpt lat="44.5136" lon="5.56106">
        <ele>971.7</ele>
        <time>2021-09-06T13:41:59Z</time>
      </trkpt>
      <trkpt lat="44.51358" lon="5.56112">
        <ele>971.4</ele>
        <time>2021-09-06T13:42:00Z</time>
      </trkpt>
      <trkpt lat="44.51355" lon="5.56117">
        <ele>971.2</ele>
        <time>2021-09-06T13:42:01Z</time>
      </trkpt>
      <trkpt lat="44.5135" lon="5.56122">
        <ele>970.8</ele>
        <time>2021-09-06T13:42:02Z</time>
      </trkpt>
      <trkpt lat="44.51347" lon="5.56128">
        <ele>970.5</ele>
        <time>2021-09-06T13:42:04Z</time>
      </trkpt>
      <trkpt lat="44.51344" lon="5.56132">
        <ele>970.2</ele>
        <time>2021-09-06T13:42:05Z</time>
      </trkpt>
      <trkpt lat="44.51339" lon="5.56139">
        <ele>969.8</ele>
        <time>2021-09-06T13:42:07Z</time>
      </trkpt>
      <trkpt lat="44.51335" lon="5.56145">
        <ele>969.4</ele>
        <time>2021-09-06T13:42:08Z</time>
      </trkpt>
      <trkpt lat="44.51327" lon="5.56159">
        <ele>968.5</ele>
        <time>2021-09-06T13:42:10Z</time>
      </trkpt>
      <trkpt lat="44.51325" lon="5.56165">
        <ele>968.2</ele>
        <time>2021-09-06T13:42:11Z</time>
      </trkpt>
      <trkpt lat="44.51325" lon="5.56169">
        <ele>968.1</ele>
        <time>2021-09-06T13:42:12Z</time>
      </trkpt>
      <trkpt lat="44.51322" lon="5.56178">
        <ele>967.8</ele>
        <time>2021-09-06T13:42:14Z</time>
      </trkpt>
      <trkpt lat="44.51319" lon="5.56184">
        <ele>967.6</ele>
        <time>2021-09-06T13:42:15Z</time>
      </trkpt>
      <trkpt lat="44.51316" lon="5.56192">
        <ele>967.3</ele>
        <time>2021-09-06T13:42:16Z</time>
      </trkpt>
      <trkpt lat="44.51313" lon="5.56199">
        <ele>967.1</ele>
        <time>2021-09-06T13:42:18Z</time>
      </trkpt>
      <trkpt lat="44.5131" lon="5.56204">
        <ele>966.9</ele>
        <time>2021-09-06T13:42:19Z</time>
      </trkpt>
      <trkpt lat="44.51305" lon="5.56212">
        <ele>966.6</ele>
        <time>2021-09-06T13:42:21Z</time>
      </trkpt>
      <trkpt lat="44.51302" lon="5.56217">
        <ele>966.5</ele>
        <time>2021-09-06T13:42:22Z</time>
      </trkpt>
      <trkpt lat="44.51299" lon="5.56223">
        <ele>966.3</ele>
        <time>2021-09-06T13:42:23Z</time>
      </trkpt>
      <trkpt lat="44.51296" lon="5.56228">
        <ele>966</ele>
        <time>2021-09-06T13:42:24Z</time>
      </trkpt>
      <trkpt lat="44.51293" lon="5.56232">
        <ele>965.9</ele>
        <time>2021-09-06T13:42:26Z</time>
      </trkpt>
      <trkpt lat="44.5129" lon="5.56237">
        <ele>965.7</ele>
        <time>2021-09-06T13:42:28Z</time>
      </trkpt>
      <trkpt lat="44.51289" lon="5.5624">
        <ele>965.6</ele>
        <time>2021-09-06T13:42:29Z</time>
      </trkpt>
      <trkpt lat="44.51287" lon="5.56244">
        <ele>965.4</ele>
        <time>2021-09-06T13:42:30Z</time>
      </trkpt>
      <trkpt lat="44.51285" lon="5.56248">
        <ele>965.2</ele>
        <time>2021-09-06T13:42:32Z</time>
      </trkpt>
      <trkpt lat="44.51284" lon="5.56253">
        <ele>964.9</ele>
        <time>2021-09-06T13:42:33Z</time>
      </trkpt>
      <trkpt lat="44.51283" lon="5.56255">
        <ele>964.8</ele>
        <time>2021-09-06T13:42:34Z</time>
      </trkpt>
      <trkpt lat="44.51282" lon="5.56257">
        <ele>964.7</ele>
        <time>2021-09-06T13:42:35Z</time>
      </trkpt>
      <trkpt lat="44.51281" lon="5.56259">
        <ele>964.5</ele>
        <time>2021-09-06T13:42:37Z</time>
      </trkpt>
      <trkpt lat="44.5128" lon="5.56261">
        <ele>964.4</ele>
        <time>2021-09-06T13:42:39Z</time>
      </trkpt>
      <trkpt lat="44.51279" lon="5.56263">
        <ele>964.3</ele>
        <time>2021-09-06T13:42:40Z</time>
      </trkpt>
      <trkpt lat="44.51278" lon="5.56265">
        <ele>964.1</ele>
        <time>2021-09-06T13:42:41Z</time>
      </trkpt>
      <trkpt lat="44.51277" lon="5.56267">
        <ele>964</ele>
        <time>2021-09-06T13:42:43Z</time>
      </trkpt>
      <trkpt lat="44.51276" lon="5.56269">
        <ele>963.8</ele>
        <time>2021-09-06T13:42:44Z</time>
      </trkpt>
      <trkpt lat="44.51275" lon="5.56271">
        <ele>963.7</ele>
        <time>2021-09-06T13:43:13Z</time>
      </trkpt>
      <trkpt lat="44.51274" lon="5.56274">
        <ele>963.5</ele>
        <time>2021-09-06T13:43:14Z</time>
      </trkpt>
      <trkpt lat="44.51266" lon="5.56285">
        <ele>962.6</ele>
        <time>2021-09-06T13:43:15Z</time>
      </trkpt>
      <trkpt lat="44.51261" lon="5.56291">
        <ele>962.1</ele>
        <time>2021-09-06T13:43:16Z</time>
      </trkpt>
      <trkpt lat="44.51256" lon="5.56296">
        <ele>961.6</ele>
        <time>2021-09-06T13:43:18Z</time>
      </trkpt>
      <trkpt lat="44.51252" lon="5.56302">
        <ele>961</ele>
        <time>2021-09-06T13:43:19Z</time>
      </trkpt>
      <trkpt lat="44.51248" lon="5.56307">
        <ele>960.5</ele>
        <time>2021-09-06T13:43:21Z</time>
      </trkpt>
      <trkpt lat="44.51243" lon="5.56315">
        <ele>959.7</ele>
        <time>2021-09-06T13:43:22Z</time>
      </trkpt>
      <trkpt lat="44.51237" lon="5.56326">
        <ele>958.6</ele>
        <time>2021-09-06T13:43:24Z</time>
      </trkpt>
      <trkpt lat="44.51234" lon="5.56332">
        <ele>958.1</ele>
        <time>2021-09-06T13:43:25Z</time>
      </trkpt>
      <trkpt lat="44.5123" lon="5.56345">
        <ele>957.1</ele>
        <time>2021-09-06T13:43:27Z</time>
      </trkpt>
      <trkpt lat="44.51228" lon="5.56352">
        <ele>956.6</ele>
        <time>2021-09-06T13:43:28Z</time>
      </trkpt>
      <trkpt lat="44.51227" lon="5.56361">
        <ele>956</ele>
        <time>2021-09-06T13:43:30Z</time>
      </trkpt>
      <trkpt lat="44.51228" lon="5.56366">
        <ele>955.7</ele>
        <time>2021-09-06T13:43:31Z</time>
      </trkpt>
      <trkpt lat="44.51226" lon="5.56373">
        <ele>955.2</ele>
        <time>2021-09-06T13:43:32Z</time>
      </trkpt>
      <trkpt lat="44.51223" lon="5.56382">
        <ele>954.3</ele>
        <time>2021-09-06T13:43:34Z</time>
      </trkpt>
      <trkpt lat="44.51222" lon="5.56388">
        <ele>953.8</ele>
        <time>2021-09-06T13:43:35Z</time>
      </trkpt>
      <trkpt lat="44.51218" lon="5.564">
        <ele>952.6</ele>
        <time>2021-09-06T13:43:37Z</time>
      </trkpt>
      <trkpt lat="44.51211" lon="5.56411">
        <ele>951.5</ele>
        <time>2021-09-06T13:43:39Z</time>
      </trkpt>
      <trkpt lat="44.51208" lon="5.56416">
        <ele>951.1</ele>
        <time>2021-09-06T13:43:40Z</time>
      </trkpt>
      <trkpt lat="44.51203" lon="5.56417">
        <ele>950.8</ele>
        <time>2021-09-06T13:43:43Z</time>
      </trkpt>
      <trkpt lat="44.512" lon="5.56422">
        <ele>950.7</ele>
        <time>2021-09-06T13:43:44Z</time>
      </trkpt>
      <trkpt lat="44.51198" lon="5.5643">
        <ele>950.6</ele>
        <time>2021-09-06T13:43:45Z</time>
      </trkpt>
      <trkpt lat="44.51197" lon="5.56435">
        <ele>950.6</ele>
        <time>2021-09-06T13:43:46Z</time>
      </trkpt>
      <trkpt lat="44.51195" lon="5.56441">
        <ele>950.5</ele>
        <time>2021-09-06T13:43:48Z</time>
      </trkpt>
      <trkpt lat="44.51194" lon="5.56445">
        <ele>950.5</ele>
        <time>2021-09-06T13:43:49Z</time>
      </trkpt>
      <trkpt lat="44.51192" lon="5.56451">
        <ele>950.4</ele>
        <time>2021-09-06T13:43:50Z</time>
      </trkpt>
      <trkpt lat="44.51189" lon="5.56456">
        <ele>950.3</ele>
        <time>2021-09-06T13:43:52Z</time>
      </trkpt>
      <trkpt lat="44.51188" lon="5.56459">
        <ele>950.2</ele>
        <time>2021-09-06T13:43:53Z</time>
      </trkpt>
      <trkpt lat="44.51185" lon="5.56464">
        <ele>950.1</ele>
        <time>2021-09-06T13:43:55Z</time>
      </trkpt>
      <trkpt lat="44.51184" lon="5.56467">
        <ele>950</ele>
        <time>2021-09-06T13:43:56Z</time>
      </trkpt>
      <trkpt lat="44.51184" lon="5.56468">
        <ele>949.9</ele>
        <time>2021-09-06T13:43:57Z</time>
      </trkpt>
      <trkpt lat="44.51182" lon="5.56473">
        <ele>949.7</ele>
        <time>2021-09-06T13:43:59Z</time>
      </trkpt>
      <trkpt lat="44.51182" lon="5.56474">
        <ele>949.7</ele>
        <time>2021-09-06T13:44:00Z</time>
      </trkpt>
      <trkpt lat="44.51182" lon="5.56477">
        <ele>949.5</ele>
        <time>2021-09-06T13:44:02Z</time>
      </trkpt>
      <trkpt lat="44.51182" lon="5.56478">
        <ele>949.5</ele>
        <time>2021-09-06T13:44:03Z</time>
      </trkpt>
      <trkpt lat="44.5118" lon="5.56483">
        <ele>949.2</ele>
        <time>2021-09-06T13:44:04Z</time>
      </trkpt>
      <trkpt lat="44.5118" lon="5.56484">
        <ele>949.1</ele>
        <time>2021-09-06T13:44:05Z</time>
      </trkpt>
      <trkpt lat="44.51178" lon="5.56489">
        <ele>948.7</ele>
        <time>2021-09-06T13:44:07Z</time>
      </trkpt>
      <trkpt lat="44.51177" lon="5.56491">
        <ele>948.5</ele>
        <time>2021-09-06T13:44:08Z</time>
      </trkpt>
      <trkpt lat="44.51175" lon="5.56496">
        <ele>947.9</ele>
        <time>2021-09-06T13:44:09Z</time>
      </trkpt>
      <trkpt lat="44.51174" lon="5.56498">
        <ele>947.7</ele>
        <time>2021-09-06T13:44:10Z</time>
      </trkpt>
      <trkpt lat="44.51171" lon="5.56503">
        <ele>947</ele>
        <time>2021-09-06T13:44:12Z</time>
      </trkpt>
      <trkpt lat="44.51167" lon="5.56509">
        <ele>946.2</ele>
        <time>2021-09-06T13:44:13Z</time>
      </trkpt>
      <trkpt lat="44.51162" lon="5.56515">
        <ele>945.1</ele>
        <time>2021-09-06T13:44:14Z</time>
      </trkpt>
      <trkpt lat="44.51159" lon="5.5652">
        <ele>944.2</ele>
        <time>2021-09-06T13:44:15Z</time>
      </trkpt>
      <trkpt lat="44.51156" lon="5.56526">
        <ele>943.4</ele>
        <time>2021-09-06T13:44:17Z</time>
      </trkpt>
      <trkpt lat="44.5115" lon="5.56534">
        <ele>942.2</ele>
        <time>2021-09-06T13:44:18Z</time>
      </trkpt>
      <trkpt lat="44.51146" lon="5.56539">
        <ele>941.5</ele>
        <time>2021-09-06T13:44:19Z</time>
      </trkpt>
      <trkpt lat="44.51142" lon="5.56544">
        <ele>940.8</ele>
        <time>2021-09-06T13:44:20Z</time>
      </trkpt>
      <trkpt lat="44.51136" lon="5.5655">
        <ele>940</ele>
        <time>2021-09-06T13:44:22Z</time>
      </trkpt>
      <trkpt lat="44.5113" lon="5.56557">
        <ele>939</ele>
        <time>2021-09-06T13:44:24Z</time>
      </trkpt>
      <trkpt lat="44.51126" lon="5.56562">
        <ele>938.5</ele>
        <time>2021-09-06T13:44:25Z</time>
      </trkpt>
      <trkpt lat="44.51122" lon="5.5657">
        <ele>938</ele>
        <time>2021-09-06T13:44:26Z</time>
      </trkpt>
      <trkpt lat="44.51118" lon="5.56577">
        <ele>937.6</ele>
        <time>2021-09-06T13:44:28Z</time>
      </trkpt>
      <trkpt lat="44.51114" lon="5.56581">
        <ele>937.5</ele>
        <time>2021-09-06T13:44:29Z</time>
      </trkpt>
      <trkpt lat="44.51111" lon="5.56585">
        <ele>937.3</ele>
        <time>2021-09-06T13:44:30Z</time>
      </trkpt>
      <trkpt lat="44.51107" lon="5.56588">
        <ele>937.2</ele>
        <time>2021-09-06T13:44:31Z</time>
      </trkpt>
      <trkpt lat="44.51103" lon="5.56593">
        <ele>937</ele>
        <time>2021-09-06T13:44:32Z</time>
      </trkpt>
      <trkpt lat="44.51097" lon="5.56598">
        <ele>936.8</ele>
        <time>2021-09-06T13:44:34Z</time>
      </trkpt>
      <trkpt lat="44.51093" lon="5.56601">
        <ele>936.6</ele>
        <time>2021-09-06T13:44:35Z</time>
      </trkpt>
      <trkpt lat="44.51088" lon="5.56606">
        <ele>936.4</ele>
        <time>2021-09-06T13:44:37Z</time>
      </trkpt>
      <trkpt lat="44.51083" lon="5.56611">
        <ele>936.3</ele>
        <time>2021-09-06T13:44:38Z</time>
      </trkpt>
      <trkpt lat="44.51079" lon="5.56614">
        <ele>936.3</ele>
        <time>2021-09-06T13:44:40Z</time>
      </trkpt>
      <trkpt lat="44.51075" lon="5.56617">
        <ele>936.3</ele>
        <time>2021-09-06T13:44:41Z</time>
      </trkpt>
      <trkpt lat="44.51071" lon="5.56619">
        <ele>936.4</ele>
        <time>2021-09-06T13:44:43Z</time>
      </trkpt>
      <trkpt lat="44.51068" lon="5.5662">
        <ele>936.4</ele>
        <time>2021-09-06T13:44:45Z</time>
      </trkpt>
      <trkpt lat="44.51066" lon="5.56622">
        <ele>936.5</ele>
        <time>2021-09-06T13:44:46Z</time>
      </trkpt>
      <trkpt lat="44.51062" lon="5.56624">
        <ele>936.6</ele>
        <time>2021-09-06T13:44:48Z</time>
      </trkpt>
      <trkpt lat="44.51059" lon="5.56625">
        <ele>936.8</ele>
        <time>2021-09-06T13:44:49Z</time>
      </trkpt>
      <trkpt lat="44.51055" lon="5.56628">
        <ele>937</ele>
        <time>2021-09-06T13:44:51Z</time>
      </trkpt>
      <trkpt lat="44.51054" lon="5.56628">
        <ele>937</ele>
        <time>2021-09-06T13:44:52Z</time>
      </trkpt>
      <trkpt lat="44.51052" lon="5.56629">
        <ele>937.1</ele>
        <time>2021-09-06T13:44:53Z</time>
      </trkpt>
      <trkpt lat="44.51049" lon="5.56631">
        <ele>937.3</ele>
        <time>2021-09-06T13:44:54Z</time>
      </trkpt>
      <trkpt lat="44.51046" lon="5.56635">
        <ele>937.5</ele>
        <time>2021-09-06T13:44:56Z</time>
      </trkpt>
      <trkpt lat="44.51045" lon="5.56637">
        <ele>937.6</ele>
        <time>2021-09-06T13:44:57Z</time>
      </trkpt>
      <trkpt lat="44.51043" lon="5.56638">
        <ele>937.8</ele>
        <time>2021-09-06T13:44:58Z</time>
      </trkpt>
      <trkpt lat="44.51041" lon="5.5664">
        <ele>937.9</ele>
        <time>2021-09-06T13:45:00Z</time>
      </trkpt>
      <trkpt lat="44.51038" lon="5.56642">
        <ele>938.2</ele>
        <time>2021-09-06T13:45:01Z</time>
      </trkpt>
      <trkpt lat="44.51037" lon="5.56643">
        <ele>938.3</ele>
        <time>2021-09-06T13:45:02Z</time>
      </trkpt>
      <trkpt lat="44.51035" lon="5.56644">
        <ele>938.4</ele>
        <time>2021-09-06T13:45:04Z</time>
      </trkpt>
      <trkpt lat="44.51031" lon="5.56647">
        <ele>938.8</ele>
        <time>2021-09-06T13:45:06Z</time>
      </trkpt>
      <trkpt lat="44.51028" lon="5.56649">
        <ele>939.1</ele>
        <time>2021-09-06T13:45:07Z</time>
      </trkpt>
      <trkpt lat="44.51024" lon="5.5665">
        <ele>939.5</ele>
        <time>2021-09-06T13:45:09Z</time>
      </trkpt>
      <trkpt lat="44.51022" lon="5.56651">
        <ele>939.7</ele>
        <time>2021-09-06T13:45:11Z</time>
      </trkpt>
      <trkpt lat="44.51021" lon="5.56652">
        <ele>939.8</ele>
        <time>2021-09-06T13:45:12Z</time>
      </trkpt>
      <trkpt lat="44.5102" lon="5.56652">
        <ele>939.9</ele>
        <time>2021-09-06T13:45:14Z</time>
      </trkpt>
      <trkpt lat="44.5102" lon="5.56653">
        <ele>940</ele>
        <time>2021-09-06T13:45:15Z</time>
      </trkpt>
      <trkpt lat="44.51017" lon="5.56656">
        <ele>940.3</ele>
        <time>2021-09-06T13:45:17Z</time>
      </trkpt>
      <trkpt lat="44.51016" lon="5.56658">
        <ele>940.5</ele>
        <time>2021-09-06T13:45:19Z</time>
      </trkpt>
      <trkpt lat="44.51015" lon="5.56659">
        <ele>940.7</ele>
        <time>2021-09-06T13:45:21Z</time>
      </trkpt>
      <trkpt lat="44.51014" lon="5.5666">
        <ele>940.7</ele>
        <time>2021-09-06T13:45:22Z</time>
      </trkpt>
      <trkpt lat="44.51014" lon="5.5666">
        <ele>940.8</ele>
        <time>2021-09-06T13:45:23Z</time>
      </trkpt>
      <trkpt lat="44.51013" lon="5.56661">
        <ele>940.8</ele>
        <time>2021-09-06T13:45:24Z</time>
      </trkpt>
      <trkpt lat="44.51012" lon="5.56663">
        <ele>941</ele>
        <time>2021-09-06T13:45:26Z</time>
      </trkpt>
      <trkpt lat="44.51008" lon="5.56667">
        <ele>941.5</ele>
        <time>2021-09-06T13:45:29Z</time>
      </trkpt>
      <trkpt lat="44.51004" lon="5.56674">
        <ele>942</ele>
        <time>2021-09-06T13:45:32Z</time>
      </trkpt>
      <trkpt lat="44.51001" lon="5.56675">
        <ele>942.2</ele>
        <time>2021-09-06T13:45:33Z</time>
      </trkpt>
      <trkpt lat="44.50998" lon="5.56675">
        <ele>942.2</ele>
        <time>2021-09-06T13:45:35Z</time>
      </trkpt>
      <trkpt lat="44.50994" lon="5.56674">
        <ele>942.2</ele>
        <time>2021-09-06T13:45:37Z</time>
      </trkpt>
      <trkpt lat="44.5099" lon="5.56675">
        <ele>942.2</ele>
        <time>2021-09-06T13:45:38Z</time>
      </trkpt>
      <trkpt lat="44.50989" lon="5.56677">
        <ele>942.1</ele>
        <time>2021-09-06T13:45:40Z</time>
      </trkpt>
      <trkpt lat="44.50989" lon="5.56678">
        <ele>942.1</ele>
        <time>2021-09-06T13:45:41Z</time>
      </trkpt>
      <trkpt lat="44.50988" lon="5.56678">
        <ele>942</ele>
        <time>2021-09-06T13:45:43Z</time>
      </trkpt>
      <trkpt lat="44.50987" lon="5.56678">
        <ele>942</ele>
        <time>2021-09-06T13:45:44Z</time>
      </trkpt>
      <trkpt lat="44.50986" lon="5.56678">
        <ele>942</ele>
        <time>2021-09-06T13:45:46Z</time>
      </trkpt>
      <trkpt lat="44.50986" lon="5.56678">
        <ele>942</ele>
        <time>2021-09-06T13:45:47Z</time>
      </trkpt>
      <trkpt lat="44.50986" lon="5.56678">
        <ele>941.9</ele>
        <time>2021-09-06T13:45:48Z</time>
      </trkpt>
      <trkpt lat="44.50976" lon="5.5669">
        <ele>940.9</ele>
        <time>2021-09-06T13:46:04Z</time>
      </trkpt>
      <trkpt lat="44.50972" lon="5.5669">
        <ele>940.4</ele>
        <time>2021-09-06T13:46:05Z</time>
      </trkpt>
      <trkpt lat="44.50968" lon="5.56691">
        <ele>939.9</ele>
        <time>2021-09-06T13:46:06Z</time>
      </trkpt>
      <trkpt lat="44.50961" lon="5.56693">
        <ele>939</ele>
        <time>2021-09-06T13:46:08Z</time>
      </trkpt>
      <trkpt lat="44.50958" lon="5.56695">
        <ele>938.6</ele>
        <time>2021-09-06T13:46:09Z</time>
      </trkpt>
      <trkpt lat="44.50954" lon="5.56699">
        <ele>937.9</ele>
        <time>2021-09-06T13:46:10Z</time>
      </trkpt>
      <trkpt lat="44.50952" lon="5.56702">
        <ele>937.5</ele>
        <time>2021-09-06T13:46:12Z</time>
      </trkpt>
      <trkpt lat="44.50949" lon="5.56704">
        <ele>937.1</ele>
        <time>2021-09-06T13:46:13Z</time>
      </trkpt>
      <trkpt lat="44.50945" lon="5.56706">
        <ele>936.5</ele>
        <time>2021-09-06T13:46:14Z</time>
      </trkpt>
      <trkpt lat="44.50939" lon="5.56708">
        <ele>935.6</ele>
        <time>2021-09-06T13:46:16Z</time>
      </trkpt>
      <trkpt lat="44.50932" lon="5.56711">
        <ele>934.3</ele>
        <time>2021-09-06T13:46:18Z</time>
      </trkpt>
      <trkpt lat="44.50926" lon="5.56711">
        <ele>933.3</ele>
        <time>2021-09-06T13:46:20Z</time>
      </trkpt>
      <trkpt lat="44.50922" lon="5.56714">
        <ele>932.5</ele>
        <time>2021-09-06T13:46:21Z</time>
      </trkpt>
      <trkpt lat="44.50918" lon="5.56718">
        <ele>931.9</ele>
        <time>2021-09-06T13:46:22Z</time>
      </trkpt>
      <trkpt lat="44.50914" lon="5.56724">
        <ele>931.3</ele>
        <time>2021-09-06T13:46:24Z</time>
      </trkpt>
      <trkpt lat="44.50911" lon="5.5673">
        <ele>930.9</ele>
        <time>2021-09-06T13:46:25Z</time>
      </trkpt>
      <trkpt lat="44.50909" lon="5.56736">
        <ele>930.5</ele>
        <time>2021-09-06T13:46:27Z</time>
      </trkpt>
      <trkpt lat="44.50908" lon="5.56738">
        <ele>930.4</ele>
        <time>2021-09-06T13:46:28Z</time>
      </trkpt>
      <trkpt lat="44.50907" lon="5.5674">
        <ele>930.3</ele>
        <time>2021-09-06T13:46:29Z</time>
      </trkpt>
      <trkpt lat="44.50906" lon="5.56742">
        <ele>930.1</ele>
        <time>2021-09-06T13:46:30Z</time>
      </trkpt>
      <trkpt lat="44.50905" lon="5.56746">
        <ele>929.9</ele>
        <time>2021-09-06T13:46:32Z</time>
      </trkpt>
      <trkpt lat="44.50903" lon="5.56751">
        <ele>929.6</ele>
        <time>2021-09-06T13:46:33Z</time>
      </trkpt>
      <trkpt lat="44.50902" lon="5.56752">
        <ele>929.5</ele>
        <time>2021-09-06T13:46:34Z</time>
      </trkpt>
      <trkpt lat="44.509" lon="5.56756">
        <ele>929.1</ele>
        <time>2021-09-06T13:46:36Z</time>
      </trkpt>
      <trkpt lat="44.50898" lon="5.56759">
        <ele>928.8</ele>
        <time>2021-09-06T13:46:37Z</time>
      </trkpt>
      <trkpt lat="44.50896" lon="5.56762">
        <ele>928.5</ele>
        <time>2021-09-06T13:46:38Z</time>
      </trkpt>
      <trkpt lat="44.50893" lon="5.56768">
        <ele>927.8</ele>
        <time>2021-09-06T13:46:40Z</time>
      </trkpt>
      <trkpt lat="44.5089" lon="5.56773">
        <ele>927.2</ele>
        <time>2021-09-06T13:46:41Z</time>
      </trkpt>
      <trkpt lat="44.50888" lon="5.56776">
        <ele>926.7</ele>
        <time>2021-09-06T13:46:42Z</time>
      </trkpt>
      <trkpt lat="44.50886" lon="5.56778">
        <ele>926.4</ele>
        <time>2021-09-06T13:46:43Z</time>
      </trkpt>
      <trkpt lat="44.50886" lon="5.56778">
        <ele>926.3</ele>
        <time>2021-09-06T13:46:44Z</time>
      </trkpt>
      <trkpt lat="44.50883" lon="5.56779">
        <ele>926</ele>
        <time>2021-09-06T13:46:45Z</time>
      </trkpt>
      <trkpt lat="44.50883" lon="5.56781">
        <ele>925.8</ele>
        <time>2021-09-06T13:46:47Z</time>
      </trkpt>
      <trkpt lat="44.50882" lon="5.56783">
        <ele>925.7</ele>
        <time>2021-09-06T13:46:48Z</time>
      </trkpt>
      <trkpt lat="44.50882" lon="5.56784">
        <ele>925.5</ele>
        <time>2021-09-06T13:46:50Z</time>
      </trkpt>
      <trkpt lat="44.50881" lon="5.56786">
        <ele>925.4</ele>
        <time>2021-09-06T13:46:51Z</time>
      </trkpt>
      <trkpt lat="44.5088" lon="5.56787">
        <ele>925.2</ele>
        <time>2021-09-06T13:46:52Z</time>
      </trkpt>
      <trkpt lat="44.5088" lon="5.56789">
        <ele>925.1</ele>
        <time>2021-09-06T13:46:53Z</time>
      </trkpt>
      <trkpt lat="44.50879" lon="5.5679">
        <ele>924.9</ele>
        <time>2021-09-06T13:47:50Z</time>
      </trkpt>
      <trkpt lat="44.50879" lon="5.56792">
        <ele>924.8</ele>
        <time>2021-09-06T13:47:51Z</time>
      </trkpt>
      <trkpt lat="44.50875" lon="5.56797">
        <ele>924.3</ele>
        <time>2021-09-06T13:47:52Z</time>
      </trkpt>
      <trkpt lat="44.50872" lon="5.56802">
        <ele>923.9</ele>
        <time>2021-09-06T13:47:53Z</time>
      </trkpt>
      <trkpt lat="44.50868" lon="5.56806">
        <ele>923.3</ele>
        <time>2021-09-06T13:47:55Z</time>
      </trkpt>
      <trkpt lat="44.50864" lon="5.5681">
        <ele>922.7</ele>
        <time>2021-09-06T13:47:56Z</time>
      </trkpt>
      <trkpt lat="44.50862" lon="5.56813">
        <ele>922.3</ele>
        <time>2021-09-06T13:47:57Z</time>
      </trkpt>
      <trkpt lat="44.5086" lon="5.56816">
        <ele>921.8</ele>
        <time>2021-09-06T13:47:58Z</time>
      </trkpt>
      <trkpt lat="44.50857" lon="5.56821">
        <ele>921.1</ele>
        <time>2021-09-06T13:48:00Z</time>
      </trkpt>
      <trkpt lat="44.50853" lon="5.56825">
        <ele>920.3</ele>
        <time>2021-09-06T13:48:01Z</time>
      </trkpt>
      <trkpt lat="44.50847" lon="5.56832">
        <ele>918.9</ele>
        <time>2021-09-06T13:48:03Z</time>
      </trkpt>
      <trkpt lat="44.50844" lon="5.56836">
        <ele>918</ele>
        <time>2021-09-06T13:48:04Z</time>
      </trkpt>
      <trkpt lat="44.50841" lon="5.56839">
        <ele>917.1</ele>
        <time>2021-09-06T13:48:05Z</time>
      </trkpt>
      <trkpt lat="44.50837" lon="5.56844">
        <ele>915.9</ele>
        <time>2021-09-06T13:48:06Z</time>
      </trkpt>
      <trkpt lat="44.50834" lon="5.56848">
        <ele>914.9</ele>
        <time>2021-09-06T13:48:08Z</time>
      </trkpt>
      <trkpt lat="44.5083" lon="5.56852">
        <ele>913.6</ele>
        <time>2021-09-06T13:48:09Z</time>
      </trkpt>
      <trkpt lat="44.50825" lon="5.56857">
        <ele>912.7</ele>
        <time>2021-09-06T13:48:10Z</time>
      </trkpt>
      <trkpt lat="44.50822" lon="5.56861">
        <ele>912.3</ele>
        <time>2021-09-06T13:48:12Z</time>
      </trkpt>
      <trkpt lat="44.50819" lon="5.56864">
        <ele>911.8</ele>
        <time>2021-09-06T13:48:13Z</time>
      </trkpt>
      <trkpt lat="44.50815" lon="5.56868">
        <ele>911.3</ele>
        <time>2021-09-06T13:48:14Z</time>
      </trkpt>
      <trkpt lat="44.50812" lon="5.56872">
        <ele>910.8</ele>
        <time>2021-09-06T13:48:15Z</time>
      </trkpt>
      <trkpt lat="44.50809" lon="5.56875">
        <ele>910.4</ele>
        <time>2021-09-06T13:48:17Z</time>
      </trkpt>
      <trkpt lat="44.50807" lon="5.56878">
        <ele>910</ele>
        <time>2021-09-06T13:48:18Z</time>
      </trkpt>
      <trkpt lat="44.50805" lon="5.56883">
        <ele>909.5</ele>
        <time>2021-09-06T13:48:19Z</time>
      </trkpt>
      <trkpt lat="44.50804" lon="5.56886">
        <ele>909.1</ele>
        <time>2021-09-06T13:48:20Z</time>
      </trkpt>
      <trkpt lat="44.50801" lon="5.56892">
        <ele>908.6</ele>
        <time>2021-09-06T13:48:22Z</time>
      </trkpt>
      <trkpt lat="44.508" lon="5.56896">
        <ele>908.3</ele>
        <time>2021-09-06T13:48:23Z</time>
      </trkpt>
      <trkpt lat="44.50797" lon="5.569">
        <ele>908</ele>
        <time>2021-09-06T13:48:24Z</time>
      </trkpt>
      <trkpt lat="44.50796" lon="5.56903">
        <ele>907.7</ele>
        <time>2021-09-06T13:48:25Z</time>
      </trkpt>
      <trkpt lat="44.50793" lon="5.56908">
        <ele>907.5</ele>
        <time>2021-09-06T13:48:27Z</time>
      </trkpt>
      <trkpt lat="44.50791" lon="5.56913">
        <ele>907.2</ele>
        <time>2021-09-06T13:48:28Z</time>
      </trkpt>
      <trkpt lat="44.50789" lon="5.56919">
        <ele>906.9</ele>
        <time>2021-09-06T13:48:30Z</time>
      </trkpt>
      <trkpt lat="44.50787" lon="5.56925">
        <ele>906.5</ele>
        <time>2021-09-06T13:48:31Z</time>
      </trkpt>
      <trkpt lat="44.50786" lon="5.56931">
        <ele>905.9</ele>
        <time>2021-09-06T13:48:32Z</time>
      </trkpt>
      <trkpt lat="44.50784" lon="5.56936">
        <ele>905.3</ele>
        <time>2021-09-06T13:48:33Z</time>
      </trkpt>
      <trkpt lat="44.50782" lon="5.56943">
        <ele>904.5</ele>
        <time>2021-09-06T13:48:35Z</time>
      </trkpt>
      <trkpt lat="44.50781" lon="5.5695">
        <ele>903.6</ele>
        <time>2021-09-06T13:48:36Z</time>
      </trkpt>
      <trkpt lat="44.50781" lon="5.56956">
        <ele>902.7</ele>
        <time>2021-09-06T13:48:38Z</time>
      </trkpt>
      <trkpt lat="44.50781" lon="5.56961">
        <ele>902.2</ele>
        <time>2021-09-06T13:48:39Z</time>
      </trkpt>
      <trkpt lat="44.50783" lon="5.56969">
        <ele>901</ele>
        <time>2021-09-06T13:48:41Z</time>
      </trkpt>
      <trkpt lat="44.50785" lon="5.56974">
        <ele>900.4</ele>
        <time>2021-09-06T13:48:42Z</time>
      </trkpt>
      <trkpt lat="44.50787" lon="5.56979">
        <ele>899.8</ele>
        <time>2021-09-06T13:48:43Z</time>
      </trkpt>
      <trkpt lat="44.50791" lon="5.56984">
        <ele>899</ele>
        <time>2021-09-06T13:48:45Z</time>
      </trkpt>
      <trkpt lat="44.50794" lon="5.56986">
        <ele>898.5</ele>
        <time>2021-09-06T13:48:46Z</time>
      </trkpt>
      <trkpt lat="44.50795" lon="5.56986">
        <ele>898.4</ele>
        <time>2021-09-06T13:48:47Z</time>
      </trkpt>
      <trkpt lat="44.50798" lon="5.56988">
        <ele>898</ele>
        <time>2021-09-06T13:48:49Z</time>
      </trkpt>
      <trkpt lat="44.50799" lon="5.56989">
        <ele>897.7</ele>
        <time>2021-09-06T13:48:50Z</time>
      </trkpt>
      <trkpt lat="44.508" lon="5.56991">
        <ele>897.6</ele>
        <time>2021-09-06T13:48:52Z</time>
      </trkpt>
      <trkpt lat="44.508" lon="5.56991">
        <ele>897.5</ele>
        <time>2021-09-06T13:48:53Z</time>
      </trkpt>
      <trkpt lat="44.50801" lon="5.56992">
        <ele>897.4</ele>
        <time>2021-09-06T13:48:55Z</time>
      </trkpt>
      <trkpt lat="44.50801" lon="5.56992">
        <ele>897.4</ele>
        <time>2021-09-06T13:48:56Z</time>
      </trkpt>
      <trkpt lat="44.50801" lon="5.56992">
        <ele>897.3</ele>
        <time>2021-09-06T13:48:58Z</time>
      </trkpt>
      <trkpt lat="44.50801" lon="5.56992">
        <ele>897.3</ele>
        <time>2021-09-06T13:48:59Z</time>
      </trkpt>
      <trkpt lat="44.50801" lon="5.56992">
        <ele>897.3</ele>
        <time>2021-09-06T13:49:00Z</time>
      </trkpt>
      <trkpt lat="44.50807" lon="5.56997">
        <ele>896.4</ele>
        <time>2021-09-06T13:49:06Z</time>
      </trkpt>
      <trkpt lat="44.50809" lon="5.56999">
        <ele>896</ele>
        <time>2021-09-06T13:49:07Z</time>
      </trkpt>
      <trkpt lat="44.5081" lon="5.57">
        <ele>895.7</ele>
        <time>2021-09-06T13:49:09Z</time>
      </trkpt>
      <trkpt lat="44.50811" lon="5.57002">
        <ele>895.5</ele>
        <time>2021-09-06T13:49:10Z</time>
      </trkpt>
      <trkpt lat="44.50811" lon="5.57002">
        <ele>895.5</ele>
        <time>2021-09-06T13:49:12Z</time>
      </trkpt>
      <trkpt lat="44.50811" lon="5.57003">
        <ele>895.4</ele>
        <time>2021-09-06T13:49:13Z</time>
      </trkpt>
      <trkpt lat="44.50811" lon="5.57003">
        <ele>895.3</ele>
        <time>2021-09-06T13:49:14Z</time>
      </trkpt>
      <trkpt lat="44.50812" lon="5.57004">
        <ele>895.2</ele>
        <time>2021-09-06T13:49:15Z</time>
      </trkpt>
      <trkpt lat="44.50812" lon="5.57005">
        <ele>895.1</ele>
        <time>2021-09-06T13:49:17Z</time>
      </trkpt>
      <trkpt lat="44.50788" lon="5.57002">
        <ele>892.1</ele>
        <time>2021-09-06T13:50:02Z</time>
      </trkpt>
      <trkpt lat="44.5079" lon="5.57002">
        <ele>891.9</ele>
        <time>2021-09-06T13:50:04Z</time>
      </trkpt>
      <trkpt lat="44.50791" lon="5.57002">
        <ele>891.8</ele>
        <time>2021-09-06T13:50:06Z</time>
      </trkpt>
      <trkpt lat="44.50792" lon="5.57002">
        <ele>891.7</ele>
        <time>2021-09-06T13:50:07Z</time>
      </trkpt>
      <trkpt lat="44.50793" lon="5.57002">
        <ele>891.7</ele>
        <time>2021-09-06T13:50:08Z</time>
      </trkpt>
      <trkpt lat="44.50794" lon="5.57001">
        <ele>891.6</ele>
        <time>2021-09-06T13:50:10Z</time>
      </trkpt>
      <trkpt lat="44.50795" lon="5.57001">
        <ele>891.5</ele>
        <time>2021-09-06T13:50:12Z</time>
      </trkpt>
      <trkpt lat="44.50794" lon="5.57">
        <ele>891.5</ele>
        <time>2021-09-06T13:50:14Z</time>
      </trkpt>
      <trkpt lat="44.50794" lon="5.56999">
        <ele>891.4</ele>
        <time>2021-09-06T13:50:15Z</time>
      </trkpt>
      <trkpt lat="44.50793" lon="5.56998">
        <ele>891.3</ele>
        <time>2021-09-06T13:50:16Z</time>
      </trkpt>
      <trkpt lat="44.50791" lon="5.56997">
        <ele>891.1</ele>
        <time>2021-09-06T13:50:18Z</time>
      </trkpt>
      <trkpt lat="44.50788" lon="5.56996">
        <ele>890.9</ele>
        <time>2021-09-06T13:50:20Z</time>
      </trkpt>
      <trkpt lat="44.50785" lon="5.56991">
        <ele>890.5</ele>
        <time>2021-09-06T13:50:22Z</time>
      </trkpt>
      <trkpt lat="44.50783" lon="5.56987">
        <ele>890.3</ele>
        <time>2021-09-06T13:50:23Z</time>
      </trkpt>
      <trkpt lat="44.50783" lon="5.56986">
        <ele>890.2</ele>
        <time>2021-09-06T13:50:24Z</time>
      </trkpt>
      <trkpt lat="44.50781" lon="5.56982">
        <ele>890</ele>
        <time>2021-09-06T13:50:25Z</time>
      </trkpt>
      <trkpt lat="44.5078" lon="5.56982">
        <ele>889.9</ele>
        <time>2021-09-06T13:50:27Z</time>
      </trkpt>
      <trkpt lat="44.5078" lon="5.56982">
        <ele>889.9</ele>
        <time>2021-09-06T13:50:28Z</time>
      </trkpt>
      <trkpt lat="44.5078" lon="5.56982">
        <ele>889.9</ele>
        <time>2021-09-06T13:50:29Z</time>
      </trkpt>
      <trkpt lat="44.5078" lon="5.56984">
        <ele>889.8</ele>
        <time>2021-09-06T13:50:30Z</time>
      </trkpt>
      <trkpt lat="44.50781" lon="5.5699">
        <ele>889.4</ele>
        <time>2021-09-06T13:50:32Z</time>
      </trkpt>
      <trkpt lat="44.50779" lon="5.56994">
        <ele>889</ele>
        <time>2021-09-06T13:50:33Z</time>
      </trkpt>
      <trkpt lat="44.50779" lon="5.56996">
        <ele>888.9</ele>
        <time>2021-09-06T13:50:34Z</time>
      </trkpt>
      <trkpt lat="44.50777" lon="5.56998">
        <ele>888.6</ele>
        <time>2021-09-06T13:50:36Z</time>
      </trkpt>
      <trkpt lat="44.50777" lon="5.57001">
        <ele>888.4</ele>
        <time>2021-09-06T13:50:38Z</time>
      </trkpt>
      <trkpt lat="44.50776" lon="5.57002">
        <ele>888.2</ele>
        <time>2021-09-06T13:50:39Z</time>
      </trkpt>
      <trkpt lat="44.50776" lon="5.57003">
        <ele>888.1</ele>
        <time>2021-09-06T13:50:41Z</time>
      </trkpt>
      <trkpt lat="44.50776" lon="5.57004">
        <ele>888.1</ele>
        <time>2021-09-06T13:50:42Z</time>
      </trkpt>
      <trkpt lat="44.50775" lon="5.57007">
        <ele>887.7</ele>
        <time>2021-09-06T13:50:44Z</time>
      </trkpt>
      <trkpt lat="44.50766" lon="5.57035">
        <ele>883.8</ele>
        <time>2021-09-06T13:50:59Z</time>
      </trkpt>
      <trkpt lat="44.50763" lon="5.57044">
        <ele>882.5</ele>
        <time>2021-09-06T13:51:01Z</time>
      </trkpt>
      <trkpt lat="44.5076" lon="5.57051">
        <ele>881.2</ele>
        <time>2021-09-06T13:51:02Z</time>
      </trkpt>
      <trkpt lat="44.50757" lon="5.57058">
        <ele>879.9</ele>
        <time>2021-09-06T13:51:03Z</time>
      </trkpt>
      <trkpt lat="44.50753" lon="5.57066">
        <ele>878.2</ele>
        <time>2021-09-06T13:51:04Z</time>
      </trkpt>
      <trkpt lat="44.50749" lon="5.57073">
        <ele>876.9</ele>
        <time>2021-09-06T13:51:06Z</time>
      </trkpt>
      <trkpt lat="44.50745" lon="5.5708">
        <ele>875.5</ele>
        <time>2021-09-06T13:51:07Z</time>
      </trkpt>
      <trkpt lat="44.5074" lon="5.57088">
        <ele>874.1</ele>
        <time>2021-09-06T13:51:09Z</time>
      </trkpt>
      <trkpt lat="44.50738" lon="5.57093">
        <ele>873.6</ele>
        <time>2021-09-06T13:51:10Z</time>
      </trkpt>
      <trkpt lat="44.50735" lon="5.57099">
        <ele>872.9</ele>
        <time>2021-09-06T13:51:11Z</time>
      </trkpt>
      <trkpt lat="44.50734" lon="5.57105">
        <ele>872.3</ele>
        <time>2021-09-06T13:51:13Z</time>
      </trkpt>
      <trkpt lat="44.50732" lon="5.57111">
        <ele>871.8</ele>
        <time>2021-09-06T13:51:14Z</time>
      </trkpt>
      <trkpt lat="44.50731" lon="5.57114">
        <ele>871.4</ele>
        <time>2021-09-06T13:51:15Z</time>
      </trkpt>
      <trkpt lat="44.5073" lon="5.57118">
        <ele>871</ele>
        <time>2021-09-06T13:51:16Z</time>
      </trkpt>
      <trkpt lat="44.50729" lon="5.57123">
        <ele>870.4</ele>
        <time>2021-09-06T13:51:18Z</time>
      </trkpt>
      <trkpt lat="44.50727" lon="5.57128">
        <ele>869.8</ele>
        <time>2021-09-06T13:51:19Z</time>
      </trkpt>
      <trkpt lat="44.50724" lon="5.57133">
        <ele>869.1</ele>
        <time>2021-09-06T13:51:21Z</time>
      </trkpt>
      <trkpt lat="44.50722" lon="5.57137">
        <ele>868.5</ele>
        <time>2021-09-06T13:51:22Z</time>
      </trkpt>
      <trkpt lat="44.5072" lon="5.57139">
        <ele>868.2</ele>
        <time>2021-09-06T13:51:23Z</time>
      </trkpt>
      <trkpt lat="44.50717" lon="5.57141">
        <ele>867.7</ele>
        <time>2021-09-06T13:51:25Z</time>
      </trkpt>
      <trkpt lat="44.50713" lon="5.57143">
        <ele>867.1</ele>
        <time>2021-09-06T13:51:26Z</time>
      </trkpt>
      <trkpt lat="44.5071" lon="5.57145">
        <ele>866.6</ele>
        <time>2021-09-06T13:51:27Z</time>
      </trkpt>
      <trkpt lat="44.50707" lon="5.57147">
        <ele>866</ele>
        <time>2021-09-06T13:51:28Z</time>
      </trkpt>
      <trkpt lat="44.50704" lon="5.5715">
        <ele>865.4</ele>
        <time>2021-09-06T13:51:30Z</time>
      </trkpt>
      <trkpt lat="44.50701" lon="5.57153">
        <ele>864.7</ele>
        <time>2021-09-06T13:51:31Z</time>
      </trkpt>
      <trkpt lat="44.507" lon="5.57154">
        <ele>864.5</ele>
        <time>2021-09-06T13:51:32Z</time>
      </trkpt>
      <trkpt lat="44.50697" lon="5.57157">
        <ele>863.8</ele>
        <time>2021-09-06T13:51:34Z</time>
      </trkpt>
      <trkpt lat="44.50694" lon="5.5716">
        <ele>863.4</ele>
        <time>2021-09-06T13:51:35Z</time>
      </trkpt>
      <trkpt lat="44.50692" lon="5.57162">
        <ele>862.9</ele>
        <time>2021-09-06T13:51:36Z</time>
      </trkpt>
      <trkpt lat="44.5069" lon="5.57163">
        <ele>862.7</ele>
        <time>2021-09-06T13:51:37Z</time>
      </trkpt>
      <trkpt lat="44.50688" lon="5.57166">
        <ele>862.3</ele>
        <time>2021-09-06T13:51:39Z</time>
      </trkpt>
      <trkpt lat="44.50686" lon="5.5717">
        <ele>861.8</ele>
        <time>2021-09-06T13:51:40Z</time>
      </trkpt>
      <trkpt lat="44.50685" lon="5.57171">
        <ele>861.7</ele>
        <time>2021-09-06T13:51:41Z</time>
      </trkpt>
      <trkpt lat="44.50682" lon="5.57176">
        <ele>861</ele>
        <time>2021-09-06T13:51:42Z</time>
      </trkpt>
      <trkpt lat="44.5068" lon="5.57178">
        <ele>860.7</ele>
        <time>2021-09-06T13:51:43Z</time>
      </trkpt>
      <trkpt lat="44.50677" lon="5.57179">
        <ele>860.2</ele>
        <time>2021-09-06T13:51:45Z</time>
      </trkpt>
      <trkpt lat="44.50674" lon="5.5718">
        <ele>859.7</ele>
        <time>2021-09-06T13:51:46Z</time>
      </trkpt>
      <trkpt lat="44.50672" lon="5.5718">
        <ele>859.2</ele>
        <time>2021-09-06T13:51:47Z</time>
      </trkpt>
      <trkpt lat="44.50669" lon="5.5718">
        <ele>858.7</ele>
        <time>2021-09-06T13:51:49Z</time>
      </trkpt>
      <trkpt lat="44.50666" lon="5.57179">
        <ele>858.1</ele>
        <time>2021-09-06T13:51:50Z</time>
      </trkpt>
      <trkpt lat="44.50663" lon="5.57178">
        <ele>857.5</ele>
        <time>2021-09-06T13:51:51Z</time>
      </trkpt>
      <trkpt lat="44.50659" lon="5.57177">
        <ele>856.7</ele>
        <time>2021-09-06T13:51:52Z</time>
      </trkpt>
      <trkpt lat="44.50656" lon="5.57176">
        <ele>856.1</ele>
        <time>2021-09-06T13:51:53Z</time>
      </trkpt>
      <trkpt lat="44.50652" lon="5.57175">
        <ele>855.3</ele>
        <time>2021-09-06T13:51:55Z</time>
      </trkpt>
      <trkpt lat="44.5065" lon="5.57175">
        <ele>855.2</ele>
        <time>2021-09-06T13:51:56Z</time>
      </trkpt>
      <trkpt lat="44.50649" lon="5.57175">
        <ele>855</ele>
        <time>2021-09-06T13:51:57Z</time>
      </trkpt>
      <trkpt lat="44.50648" lon="5.57177">
        <ele>854.7</ele>
        <time>2021-09-06T13:51:58Z</time>
      </trkpt>
      <trkpt lat="44.50649" lon="5.57178">
        <ele>854.6</ele>
        <time>2021-09-06T13:51:59Z</time>
      </trkpt>
      <trkpt lat="44.50649" lon="5.5718">
        <ele>854.5</ele>
        <time>2021-09-06T13:52:00Z</time>
      </trkpt>
      <trkpt lat="44.50649" lon="5.57181">
        <ele>854.3</ele>
        <time>2021-09-06T13:52:02Z</time>
      </trkpt>
      <trkpt lat="44.50649" lon="5.57183">
        <ele>854.2</ele>
        <time>2021-09-06T13:52:03Z</time>
      </trkpt>
      <trkpt lat="44.50649" lon="5.57184">
        <ele>854</ele>
        <time>2021-09-06T13:52:04Z</time>
      </trkpt>
      <trkpt lat="44.5065" lon="5.57185">
        <ele>853.9</ele>
        <time>2021-09-06T13:52:05Z</time>
      </trkpt>
      <trkpt lat="44.5065" lon="5.57187">
        <ele>853.7</ele>
        <time>2021-09-06T13:52:06Z</time>
      </trkpt>
      <trkpt lat="44.5065" lon="5.57188">
        <ele>853.6</ele>
        <time>2021-09-06T13:52:08Z</time>
      </trkpt>
      <trkpt lat="44.5065" lon="5.5719">
        <ele>853.4</ele>
        <time>2021-09-06T13:52:41Z</time>
      </trkpt>
      <trkpt lat="44.5065" lon="5.57191">
        <ele>853.3</ele>
        <time>2021-09-06T13:52:42Z</time>
      </trkpt>
      <trkpt lat="44.5065" lon="5.57195">
        <ele>852.8</ele>
        <time>2021-09-06T13:52:44Z</time>
      </trkpt>
      <trkpt lat="44.5065" lon="5.57198">
        <ele>852.5</ele>
        <time>2021-09-06T13:52:45Z</time>
      </trkpt>
      <trkpt lat="44.5065" lon="5.57199">
        <ele>852.3</ele>
        <time>2021-09-06T13:52:46Z</time>
      </trkpt>
      <trkpt lat="44.50649" lon="5.57198">
        <ele>851.9</ele>
        <time>2021-09-06T13:52:47Z</time>
      </trkpt>
      <trkpt lat="44.50647" lon="5.57196">
        <ele>851.4</ele>
        <time>2021-09-06T13:52:49Z</time>
      </trkpt>
      <trkpt lat="44.50645" lon="5.57193">
        <ele>850.9</ele>
        <time>2021-09-06T13:52:50Z</time>
      </trkpt>
      <trkpt lat="44.50643" lon="5.57191">
        <ele>850.5</ele>
        <time>2021-09-06T13:52:51Z</time>
      </trkpt>
      <trkpt lat="44.50641" lon="5.57189">
        <ele>850</ele>
        <time>2021-09-06T13:52:53Z</time>
      </trkpt>
      <trkpt lat="44.50639" lon="5.57186">
        <ele>849.5</ele>
        <time>2021-09-06T13:53:01Z</time>
      </trkpt>
      <trkpt lat="44.50637" lon="5.57184">
        <ele>849.2</ele>
        <time>2021-09-06T13:53:02Z</time>
      </trkpt>
      <trkpt lat="44.50629" lon="5.57175">
        <ele>847.9</ele>
        <time>2021-09-06T13:53:03Z</time>
      </trkpt>
      <trkpt lat="44.50625" lon="5.57169">
        <ele>847.1</ele>
        <time>2021-09-06T13:53:04Z</time>
      </trkpt>
      <trkpt lat="44.50621" lon="5.57163">
        <ele>846.1</ele>
        <time>2021-09-06T13:53:05Z</time>
      </trkpt>
      <trkpt lat="44.50617" lon="5.57153">
        <ele>844.5</ele>
        <time>2021-09-06T13:53:07Z</time>
      </trkpt>
      <trkpt lat="44.50615" lon="5.57145">
        <ele>843.3</ele>
        <time>2021-09-06T13:53:08Z</time>
      </trkpt>
      <trkpt lat="44.50612" lon="5.57135">
        <ele>841.7</ele>
        <time>2021-09-06T13:53:10Z</time>
      </trkpt>
      <trkpt lat="44.50609" lon="5.57129">
        <ele>840.7</ele>
        <time>2021-09-06T13:53:11Z</time>
      </trkpt>
      <trkpt lat="44.50604" lon="5.57119">
        <ele>839</ele>
        <time>2021-09-06T13:53:13Z</time>
      </trkpt>
      <trkpt lat="44.50599" lon="5.57109">
        <ele>837.2</ele>
        <time>2021-09-06T13:53:14Z</time>
      </trkpt>
      <trkpt lat="44.50593" lon="5.571">
        <ele>835.4</ele>
        <time>2021-09-06T13:53:16Z</time>
      </trkpt>
      <trkpt lat="44.50586" lon="5.57092">
        <ele>833.7</ele>
        <time>2021-09-06T13:53:17Z</time>
      </trkpt>
      <trkpt lat="44.50576" lon="5.57084">
        <ele>831.4</ele>
        <time>2021-09-06T13:53:19Z</time>
      </trkpt>
      <trkpt lat="44.50571" lon="5.5708">
        <ele>830.3</ele>
        <time>2021-09-06T13:53:20Z</time>
      </trkpt>
      <trkpt lat="44.50567" lon="5.57077">
        <ele>829.4</ele>
        <time>2021-09-06T13:53:21Z</time>
      </trkpt>
      <trkpt lat="44.50564" lon="5.5707">
        <ele>828.3</ele>
        <time>2021-09-06T13:53:22Z</time>
      </trkpt>
      <trkpt lat="44.5056" lon="5.57066">
        <ele>827.6</ele>
        <time>2021-09-06T13:53:24Z</time>
      </trkpt>
      <trkpt lat="44.50558" lon="5.5706">
        <ele>826.2</ele>
        <time>2021-09-06T13:53:25Z</time>
      </trkpt>
      <trkpt lat="44.50557" lon="5.57054">
        <ele>826.5</ele>
        <time>2021-09-06T13:53:26Z</time>
      </trkpt>
      <trkpt lat="44.50556" lon="5.57048">
        <ele>825</ele>
        <time>2021-09-06T13:53:27Z</time>
      </trkpt>
      <trkpt lat="44.50553" lon="5.57043">
        <ele>823.5</ele>
        <time>2021-09-06T13:53:28Z</time>
      </trkpt>
      <trkpt lat="44.5055" lon="5.57039">
        <ele>822</ele>
        <time>2021-09-06T13:53:30Z</time>
      </trkpt>
      <trkpt lat="44.50548" lon="5.57038">
        <ele>821.7</ele>
        <time>2021-09-06T13:53:31Z</time>
      </trkpt>
      <trkpt lat="44.50547" lon="5.57037">
        <ele>820.1</ele>
        <time>2021-09-06T13:53:33Z</time>
      </trkpt>
      <trkpt lat="44.50551" lon="5.57041">
        <ele>822.5</ele>
        <time>2021-09-06T13:53:34Z</time>
      </trkpt>
      <trkpt lat="44.50553" lon="5.57044">
        <ele>822</ele>
        <time>2021-09-06T13:53:35Z</time>
      </trkpt>
      <trkpt lat="44.50555" lon="5.57047">
        <ele>822.9</ele>
        <time>2021-09-06T13:53:37Z</time>
      </trkpt>
      <trkpt lat="44.50557" lon="5.57051">
        <ele>823.8</ele>
        <time>2021-09-06T13:53:38Z</time>
      </trkpt>
      <trkpt lat="44.50559" lon="5.57054">
        <ele>823.2</ele>
        <time>2021-09-06T13:53:39Z</time>
      </trkpt>
      <trkpt lat="44.50561" lon="5.57058">
        <ele>824.4</ele>
        <time>2021-09-06T13:53:41Z</time>
      </trkpt>
      <trkpt lat="44.50563" lon="5.57061">
        <ele>825.1</ele>
        <time>2021-09-06T13:54:58Z</time>
      </trkpt>
      <trkpt lat="44.50565" lon="5.57065">
        <ele>824.5</ele>
        <time>2021-09-06T13:54:59Z</time>
      </trkpt>
      <trkpt lat="44.50565" lon="5.57072">
        <ele>823.5</ele>
        <time>2021-09-06T13:55:00Z</time>
      </trkpt>
      <trkpt lat="44.50564" lon="5.57083">
        <ele>822.4</ele>
        <time>2021-09-06T13:55:02Z</time>
      </trkpt>
      <trkpt lat="44.50564" lon="5.57091">
        <ele>821.2</ele>
        <time>2021-09-06T13:55:03Z</time>
      </trkpt>
      <trkpt lat="44.50563" lon="5.57101">
        <ele>818.4</ele>
        <time>2021-09-06T13:55:04Z</time>
      </trkpt>
      <trkpt lat="44.50562" lon="5.57107">
        <ele>816.7</ele>
        <time>2021-09-06T13:55:06Z</time>
      </trkpt>
      <trkpt lat="44.50561" lon="5.57114">
        <ele>815.7</ele>
        <time>2021-09-06T13:55:07Z</time>
      </trkpt>
      <trkpt lat="44.5056" lon="5.57122">
        <ele>812.4</ele>
        <time>2021-09-06T13:55:08Z</time>
      </trkpt>
      <trkpt lat="44.50558" lon="5.57132">
        <ele>810</ele>
        <time>2021-09-06T13:55:10Z</time>
      </trkpt>
      <trkpt lat="44.50558" lon="5.57137">
        <ele>809</ele>
        <time>2021-09-06T13:55:11Z</time>
      </trkpt>
      <trkpt lat="44.50557" lon="5.57142">
        <ele>808</ele>
        <time>2021-09-06T13:55:12Z</time>
      </trkpt>
      <trkpt lat="44.50558" lon="5.57151">
        <ele>806.3</ele>
        <time>2021-09-06T13:55:14Z</time>
      </trkpt>
      <trkpt lat="44.50557" lon="5.57155">
        <ele>805.3</ele>
        <time>2021-09-06T13:55:15Z</time>
      </trkpt>
      <trkpt lat="44.50554" lon="5.57159">
        <ele>803</ele>
        <time>2021-09-06T13:55:17Z</time>
      </trkpt>
      <trkpt lat="44.50553" lon="5.57159">
        <ele>801.4</ele>
        <time>2021-09-06T13:55:18Z</time>
      </trkpt>
      <trkpt lat="44.50552" lon="5.5716">
        <ele>801.1</ele>
        <time>2021-09-06T13:55:19Z</time>
      </trkpt>
      <trkpt lat="44.50551" lon="5.57161">
        <ele>800.8</ele>
        <time>2021-09-06T13:55:20Z</time>
      </trkpt>
      <trkpt lat="44.50547" lon="5.57158">
        <ele>799.3</ele>
        <time>2021-09-06T13:55:22Z</time>
      </trkpt>
      <trkpt lat="44.50546" lon="5.57156">
        <ele>798.5</ele>
        <time>2021-09-06T13:55:23Z</time>
      </trkpt>
      <trkpt lat="44.50543" lon="5.5715">
        <ele>797.7</ele>
        <time>2021-09-06T13:55:24Z</time>
      </trkpt>
      <trkpt lat="44.50541" lon="5.57147">
        <ele>796.9</ele>
        <time>2021-09-06T13:55:25Z</time>
      </trkpt>
      <trkpt lat="44.50538" lon="5.57144">
        <ele>796.6</ele>
        <time>2021-09-06T13:55:26Z</time>
      </trkpt>
      <trkpt lat="44.50537" lon="5.57144">
        <ele>795.8</ele>
        <time>2021-09-06T13:55:28Z</time>
      </trkpt>
      <trkpt lat="44.50536" lon="5.57143">
        <ele>795.5</ele>
        <time>2021-09-06T13:55:29Z</time>
      </trkpt>
      <trkpt lat="44.50536" lon="5.57143">
        <ele>795.2</ele>
        <time>2021-09-06T13:55:30Z</time>
      </trkpt>
      <trkpt lat="44.50536" lon="5.57143">
        <ele>795.2</ele>
        <time>2021-09-06T13:55:32Z</time>
      </trkpt>
      <trkpt lat="44.50536" lon="5.57143">
        <ele>795.2</ele>
        <time>2021-09-06T13:55:34Z</time>
      </trkpt>
      <trkpt lat="44.50535" lon="5.57143">
        <ele>795.1</ele>
        <time>2021-09-06T13:55:35Z</time>
      </trkpt>
      <trkpt lat="44.50535" lon="5.57145">
        <ele>795.1</ele>
        <time>2021-09-06T13:55:36Z</time>
      </trkpt>
      <trkpt lat="44.50534" lon="5.57157">
        <ele>794.7</ele>
        <time>2021-09-06T13:55:41Z</time>
      </trkpt>
      <trkpt lat="44.50538" lon="5.57167">
        <ele>794.4</ele>
        <time>2021-09-06T13:55:42Z</time>
      </trkpt>
      <trkpt lat="44.50543" lon="5.57182">
        <ele>793.9</ele>
        <time>2021-09-06T13:55:44Z</time>
      </trkpt>
      <trkpt lat="44.50548" lon="5.57196">
        <ele>793.4</ele>
        <time>2021-09-06T13:55:46Z</time>
      </trkpt>
      <trkpt lat="44.50553" lon="5.57209">
        <ele>792.9</ele>
        <time>2021-09-06T13:55:48Z</time>
      </trkpt>
      <trkpt lat="44.50557" lon="5.57216">
        <ele>792.6</ele>
        <time>2021-09-06T13:55:49Z</time>
      </trkpt>
      <trkpt lat="44.50564" lon="5.57227">
        <ele>792.1</ele>
        <time>2021-09-06T13:55:51Z</time>
      </trkpt>
      <trkpt lat="44.50568" lon="5.57232">
        <ele>791.9</ele>
        <time>2021-09-06T13:55:52Z</time>
      </trkpt>
      <trkpt lat="44.50576" lon="5.57242">
        <ele>791.4</ele>
        <time>2021-09-06T13:55:54Z</time>
      </trkpt>
      <trkpt lat="44.50584" lon="5.57253">
        <ele>790.8</ele>
        <time>2021-09-06T13:55:56Z</time>
      </trkpt>
      <trkpt lat="44.50594" lon="5.57265">
        <ele>790.3</ele>
        <time>2021-09-06T13:55:58Z</time>
      </trkpt>
      <trkpt lat="44.50602" lon="5.57279">
        <ele>789.8</ele>
        <time>2021-09-06T13:56:00Z</time>
      </trkpt>
      <trkpt lat="44.50606" lon="5.57288">
        <ele>789.6</ele>
        <time>2021-09-06T13:56:01Z</time>
      </trkpt>
      <trkpt lat="44.50609" lon="5.57298">
        <ele>789.4</ele>
        <time>2021-09-06T13:56:02Z</time>
      </trkpt>
      <trkpt lat="44.50612" lon="5.57307">
        <ele>789.3</ele>
        <time>2021-09-06T13:56:03Z</time>
      </trkpt>
      <trkpt lat="44.50617" lon="5.57326">
        <ele>789.2</ele>
        <time>2021-09-06T13:56:05Z</time>
      </trkpt>
      <trkpt lat="44.50619" lon="5.57336">
        <ele>789.2</ele>
        <time>2021-09-06T13:56:06Z</time>
      </trkpt>
      <trkpt lat="44.5062" lon="5.57347">
        <ele>789.2</ele>
        <time>2021-09-06T13:56:07Z</time>
      </trkpt>
      <trkpt lat="44.50622" lon="5.57358">
        <ele>789.2</ele>
        <time>2021-09-06T13:56:08Z</time>
      </trkpt>
      <trkpt lat="44.50623" lon="5.57368">
        <ele>789.3</ele>
        <time>2021-09-06T13:56:09Z</time>
      </trkpt>
      <trkpt lat="44.50623" lon="5.57386">
        <ele>789.4</ele>
        <time>2021-09-06T13:56:11Z</time>
      </trkpt>
      <trkpt lat="44.50622" lon="5.57394">
        <ele>789.5</ele>
        <time>2021-09-06T13:56:12Z</time>
      </trkpt>
      <trkpt lat="44.50618" lon="5.57405">
        <ele>789.6</ele>
        <time>2021-09-06T13:56:14Z</time>
      </trkpt>
      <trkpt lat="44.50615" lon="5.57412">
        <ele>789.7</ele>
        <time>2021-09-06T13:56:15Z</time>
      </trkpt>
      <trkpt lat="44.50609" lon="5.57421">
        <ele>789.9</ele>
        <time>2021-09-06T13:56:17Z</time>
      </trkpt>
      <trkpt lat="44.50605" lon="5.57426">
        <ele>790</ele>
        <time>2021-09-06T13:56:18Z</time>
      </trkpt>
      <trkpt lat="44.50603" lon="5.57432">
        <ele>790.1</ele>
        <time>2021-09-06T13:56:19Z</time>
      </trkpt>
      <trkpt lat="44.50599" lon="5.57437">
        <ele>790.2</ele>
        <time>2021-09-06T13:56:21Z</time>
      </trkpt>
      <trkpt lat="44.50598" lon="5.57443">
        <ele>790.2</ele>
        <time>2021-09-06T13:56:23Z</time>
      </trkpt>
      <trkpt lat="44.50596" lon="5.57444">
        <ele>790.2</ele>
        <time>2021-09-06T13:56:24Z</time>
      </trkpt>
      <trkpt lat="44.50595" lon="5.57443">
        <ele>790.2</ele>
        <time>2021-09-06T13:56:26Z</time>
      </trkpt>
      <trkpt lat="44.50593" lon="5.57442">
        <ele>790.2</ele>
        <time>2021-09-06T13:56:27Z</time>
      </trkpt>
      <trkpt lat="44.50592" lon="5.5744">
        <ele>790.2</ele>
        <time>2021-09-06T13:56:29Z</time>
      </trkpt>
      <trkpt lat="44.50591" lon="5.57439">
        <ele>790.3</ele>
        <time>2021-09-06T13:56:30Z</time>
      </trkpt>
      <trkpt lat="44.50589" lon="5.57435">
        <ele>790.3</ele>
        <time>2021-09-06T13:56:32Z</time>
      </trkpt>
      <trkpt lat="44.50585" lon="5.57432">
        <ele>790.3</ele>
        <time>2021-09-06T13:56:34Z</time>
      </trkpt>
      <trkpt lat="44.50585" lon="5.57432">
        <ele>790.3</ele>
        <time>2021-09-06T13:56:35Z</time>
      </trkpt>
      <trkpt lat="44.50585" lon="5.57432">
        <ele>790.3</ele>
        <time>2021-09-06T13:56:36Z</time>
      </trkpt>
      <trkpt lat="44.50585" lon="5.57432">
        <ele>790.3</ele>
        <time>2021-09-06T13:56:37Z</time>
      </trkpt>
      <trkpt lat="44.50584" lon="5.57431">
        <ele>790.3</ele>
        <time>2021-09-06T13:56:39Z</time>
      </trkpt>
      <trkpt lat="44.50584" lon="5.57431">
        <ele>790.3</ele>
        <time>2021-09-06T13:56:40Z</time>
      </trkpt>
      <trkpt lat="44.5058" lon="5.57436">
        <ele>790.3</ele>
        <time>2021-09-06T13:57:34Z</time>
      </trkpt>
      <trkpt lat="44.50577" lon="5.57444">
        <ele>790.5</ele>
        <time>2021-09-06T13:57:36Z</time>
      </trkpt>
      <trkpt lat="44.50575" lon="5.57448">
        <ele>790.6</ele>
        <time>2021-09-06T13:57:37Z</time>
      </trkpt>
      <trkpt lat="44.50573" lon="5.57454">
        <ele>790.7</ele>
        <time>2021-09-06T13:57:38Z</time>
      </trkpt>
      <trkpt lat="44.50573" lon="5.57455">
        <ele>790.8</ele>
        <time>2021-09-06T13:57:39Z</time>
      </trkpt>
      <trkpt lat="44.5057" lon="5.57461">
        <ele>790.8</ele>
        <time>2021-09-06T13:57:41Z</time>
      </trkpt>
      <trkpt lat="44.50567" lon="5.57467">
        <ele>790.8</ele>
        <time>2021-09-06T13:57:43Z</time>
      </trkpt>
      <trkpt lat="44.50564" lon="5.57473">
        <ele>790.7</ele>
        <time>2021-09-06T13:57:45Z</time>
      </trkpt>
      <trkpt lat="44.50564" lon="5.57476">
        <ele>790.6</ele>
        <time>2021-09-06T13:57:46Z</time>
      </trkpt>
      <trkpt lat="44.50564" lon="5.57477">
        <ele>790.6</ele>
        <time>2021-09-06T13:57:47Z</time>
      </trkpt>
      <trkpt lat="44.50562" lon="5.57479">
        <ele>790.6</ele>
        <time>2021-09-06T13:57:49Z</time>
      </trkpt>
      <trkpt lat="44.50562" lon="5.57479">
        <ele>790.6</ele>
        <time>2021-09-06T13:57:50Z</time>
      </trkpt>
      <trkpt lat="44.50563" lon="5.57481">
        <ele>790.6</ele>
        <time>2021-09-06T13:57:51Z</time>
      </trkpt>
      <trkpt lat="44.50565" lon="5.57483">
        <ele>790.5</ele>
        <time>2021-09-06T13:57:53Z</time>
      </trkpt>
      <trkpt lat="44.50568" lon="5.57483">
        <ele>790.5</ele>
        <time>2021-09-06T13:57:54Z</time>
      </trkpt>
      <trkpt lat="44.50568" lon="5.5748">
        <ele>790.4</ele>
        <time>2021-09-06T13:57:55Z</time>
      </trkpt>
      <trkpt lat="44.50567" lon="5.5748">
        <ele>790.4</ele>
        <time>2021-09-06T13:57:57Z</time>
      </trkpt>
      <trkpt lat="44.50566" lon="5.5748">
        <ele>790.4</ele>
        <time>2021-09-06T13:57:58Z</time>
      </trkpt>
      <trkpt lat="44.50566" lon="5.57479">
        <ele>790.4</ele>
        <time>2021-09-06T13:57:59Z</time>
      </trkpt>
      <trkpt lat="44.50565" lon="5.57479">
        <ele>790.4</ele>
        <time>2021-09-06T13:58:00Z</time>
      </trkpt>
      <trkpt lat="44.50557" lon="5.57482">
        <ele>790.2</ele>
        <time>2021-09-06T13:58:02Z</time>
      </trkpt>
      <trkpt lat="44.50549" lon="5.57485">
        <ele>790.1</ele>
        <time>2021-09-06T13:58:04Z</time>
      </trkpt>
      <trkpt lat="44.5054" lon="5.5749">
        <ele>789.9</ele>
        <time>2021-09-06T13:58:06Z</time>
      </trkpt>
      <trkpt lat="44.50532" lon="5.57495">
        <ele>789.8</ele>
        <time>2021-09-06T13:58:07Z</time>
      </trkpt>
      <trkpt lat="44.50525" lon="5.57499">
        <ele>789.6</ele>
        <time>2021-09-06T13:58:09Z</time>
      </trkpt>
      <trkpt lat="44.50516" lon="5.57504">
        <ele>789.5</ele>
        <time>2021-09-06T13:58:11Z</time>
      </trkpt>
      <trkpt lat="44.50512" lon="5.57506">
        <ele>789.5</ele>
        <time>2021-09-06T13:58:12Z</time>
      </trkpt>
      <trkpt lat="44.50508" lon="5.57508">
        <ele>789.4</ele>
        <time>2021-09-06T13:58:13Z</time>
      </trkpt>
      <trkpt lat="44.50504" lon="5.57511">
        <ele>789.4</ele>
        <time>2021-09-06T13:58:14Z</time>
      </trkpt>
      <trkpt lat="44.505" lon="5.57517">
        <ele>789.3</ele>
        <time>2021-09-06T13:58:16Z</time>
      </trkpt>
      <trkpt lat="44.50499" lon="5.57522">
        <ele>789.3</ele>
        <time>2021-09-06T13:58:17Z</time>
      </trkpt>
      <trkpt lat="44.50499" lon="5.57523">
        <ele>789.3</ele>
        <time>2021-09-06T13:58:18Z</time>
      </trkpt>
      <trkpt lat="44.50499" lon="5.57525">
        <ele>789.3</ele>
        <time>2021-09-06T13:58:20Z</time>
      </trkpt>
      <trkpt lat="44.50499" lon="5.57526">
        <ele>789.2</ele>
        <time>2021-09-06T13:58:21Z</time>
      </trkpt>
      <trkpt lat="44.50498" lon="5.57528">
        <ele>789.2</ele>
        <time>2021-09-06T13:58:22Z</time>
      </trkpt>
      <trkpt lat="44.505" lon="5.5753">
        <ele>789.2</ele>
        <time>2021-09-06T13:58:23Z</time>
      </trkpt>
      <trkpt lat="44.50502" lon="5.57531">
        <ele>789.2</ele>
        <time>2021-09-06T13:58:24Z</time>
      </trkpt>
      <trkpt lat="44.50505" lon="5.57533">
        <ele>789.2</ele>
        <time>2021-09-06T13:58:26Z</time>
      </trkpt>
      <trkpt lat="44.50509" lon="5.57534">
        <ele>789.2</ele>
        <time>2021-09-06T13:58:27Z</time>
      </trkpt>
      <trkpt lat="44.50512" lon="5.57536">
        <ele>789.2</ele>
        <time>2021-09-06T13:58:28Z</time>
      </trkpt>
      <trkpt lat="44.50516" lon="5.57538">
        <ele>789.2</ele>
        <time>2021-09-06T13:58:29Z</time>
      </trkpt>
      <trkpt lat="44.50519" lon="5.57539">
        <ele>789.2</ele>
        <time>2021-09-06T13:58:31Z</time>
      </trkpt>
      <trkpt lat="44.50522" lon="5.57539">
        <ele>789.2</ele>
        <time>2021-09-06T13:58:32Z</time>
      </trkpt>
      <trkpt lat="44.50524" lon="5.57539">
        <ele>789.2</ele>
        <time>2021-09-06T13:58:34Z</time>
      </trkpt>
      <trkpt lat="44.50525" lon="5.57539">
        <ele>789.2</ele>
        <time>2021-09-06T13:58:35Z</time>
      </trkpt>
      <trkpt lat="44.50526" lon="5.57539">
        <ele>789.2</ele>
        <time>2021-09-06T13:58:37Z</time>
      </trkpt>
      <trkpt lat="44.50527" lon="5.57539">
        <ele>789.2</ele>
        <time>2021-09-06T13:58:38Z</time>
      </trkpt>
      <trkpt lat="44.50526" lon="5.5754">
        <ele>789.2</ele>
        <time>2021-09-06T13:58:40Z</time>
      </trkpt>
      <trkpt lat="44.50526" lon="5.5754">
        <ele>789.2</ele>
        <time>2021-09-06T13:58:41Z</time>
      </trkpt>
      <trkpt lat="44.50526" lon="5.57541">
        <ele>789.2</ele>
        <time>2021-09-06T13:58:42Z</time>
      </trkpt>
      <trkpt lat="44.50526" lon="5.57541">
        <ele>789.2</ele>
        <time>2021-09-06T13:58:44Z</time>
      </trkpt>
      <trkpt lat="44.50526" lon="5.57541">
        <ele>789.2</ele>
        <time>2021-09-06T13:58:46Z</time>
      </trkpt>
      <trkpt lat="44.50526" lon="5.57542">
        <ele>789.2</ele>
        <time>2021-09-06T13:58:47Z</time>
      </trkpt>
      <trkpt lat="44.50526" lon="5.57542">
        <ele>789.2</ele>
        <time>2021-09-06T13:58:48Z</time>
      </trkpt>
      <trkpt lat="44.50553" lon="5.5753">
        <ele>778</ele>
        <time>2021-09-07T08:03:43Z</time>
      </trkpt>
      <trkpt lat="44.50553" lon="5.5753">
        <ele>778</ele>
        <time>2021-09-07T08:03:43Z</time>
      </trkpt>
      <trkpt lat="44.50553" lon="5.5753">
        <ele>778</ele>
        <time>2021-09-07T08:03:44Z</time>
      </trkpt>
      <trkpt lat="44.50553" lon="5.5753">
        <ele>778</ele>
        <time>2021-09-07T08:03:45Z</time>
      </trkpt>
      <trkpt lat="44.50553" lon="5.5753">
        <ele>778</ele>
        <time>2021-09-07T08:03:46Z</time>
      </trkpt>
      <trkpt lat="44.50553" lon="5.5753">
        <ele>778</ele>
        <time>2021-09-07T08:03:47Z</time>
      </trkpt>
      <trkpt lat="44.50553" lon="5.5753">
        <ele>778</ele>
        <time>2021-09-07T08:03:48Z</time>
      </trkpt>
      <trkpt lat="44.50553" lon="5.5753">
        <ele>778</ele>
        <time>2021-09-07T08:03:49Z</time>
      </trkpt>
      <trkpt lat="44.50553" lon="5.5753">
        <ele>778</ele>
        <time>2021-09-07T08:03:50Z</time>
      </trkpt>
      <trkpt lat="44.50553" lon="5.5753">
        <ele>778</ele>
        <time>2021-09-07T08:03:51Z</time>
      </trkpt>
      <trkpt lat="44.50553" lon="5.57531">
        <ele>777.8</ele>
        <time>2021-09-07T08:03:52Z</time>
      </trkpt>
      <trkpt lat="44.50553" lon="5.57531">
        <ele>777.8</ele>
        <time>2021-09-07T08:03:53Z</time>
      </trkpt>
      <trkpt lat="44.50553" lon="5.57531">
        <ele>777.8</ele>
        <time>2021-09-07T08:03:54Z</time>
      </trkpt>
      <trkpt lat="44.50553" lon="5.57531">
        <ele>777.8</ele>
        <time>2021-09-07T08:03:55Z</time>
      </trkpt>
      <trkpt lat="44.50553" lon="5.57532">
        <ele>777.8</ele>
        <time>2021-09-07T08:03:56Z</time>
      </trkpt>
      <trkpt lat="44.50553" lon="5.57532">
        <ele>777.8</ele>
        <time>2021-09-07T08:03:57Z</time>
      </trkpt>
      <trkpt lat="44.50553" lon="5.57533">
        <ele>777.8</ele>
        <time>2021-09-07T08:03:58Z</time>
      </trkpt>
      <trkpt lat="44.50553" lon="5.57533">
        <ele>777.8</ele>
        <time>2021-09-07T08:03:59Z</time>
      </trkpt>
      <trkpt lat="44.50553" lon="5.57534">
        <ele>777.8</ele>
        <time>2021-09-07T08:04:00Z</time>
      </trkpt>
      <trkpt lat="44.50553" lon="5.57534">
        <ele>777.8</ele>
        <time>2021-09-07T08:04:01Z</time>
      </trkpt>
      <trkpt lat="44.50553" lon="5.57535">
        <ele>777.6</ele>
        <time>2021-09-07T08:04:02Z</time>
      </trkpt>
      <trkpt lat="44.50553" lon="5.57536">
        <ele>777.6</ele>
        <time>2021-09-07T08:04:03Z</time>
      </trkpt>
      <trkpt lat="44.50553" lon="5.57536">
        <ele>777.6</ele>
        <time>2021-09-07T08:04:04Z</time>
      </trkpt>
      <trkpt lat="44.50553" lon="5.57537">
        <ele>777.6</ele>
        <time>2021-09-07T08:04:05Z</time>
      </trkpt>
      <trkpt lat="44.50553" lon="5.57537">
        <ele>777.6</ele>
        <time>2021-09-07T08:04:06Z</time>
      </trkpt>
      <trkpt lat="44.50553" lon="5.57538">
        <ele>777.6</ele>
        <time>2021-09-07T08:04:07Z</time>
      </trkpt>
      <trkpt lat="44.50553" lon="5.57538">
        <ele>777.6</ele>
        <time>2021-09-07T08:04:08Z</time>
      </trkpt>
      <trkpt lat="44.50553" lon="5.57539">
        <ele>777.6</ele>
        <time>2021-09-07T08:04:09Z</time>
      </trkpt>
      <trkpt lat="44.50553" lon="5.57539">
        <ele>777.4</ele>
        <time>2021-09-07T08:04:10Z</time>
      </trkpt>
      <trkpt lat="44.50553" lon="5.5754">
        <ele>777.4</ele>
        <time>2021-09-07T08:04:11Z</time>
      </trkpt>
      <trkpt lat="44.50553" lon="5.57541">
        <ele>777.4</ele>
        <time>2021-09-07T08:04:12Z</time>
      </trkpt>
      <trkpt lat="44.50553" lon="5.57541">
        <ele>777.4</ele>
        <time>2021-09-07T08:04:13Z</time>
      </trkpt>
      <trkpt lat="44.50553" lon="5.57542">
        <ele>777.4</ele>
        <time>2021-09-07T08:04:14Z</time>
      </trkpt>
      <trkpt lat="44.50553" lon="5.57542">
        <ele>777.4</ele>
        <time>2021-09-07T08:04:15Z</time>
      </trkpt>
      <trkpt lat="44.50553" lon="5.57543">
        <ele>777.4</ele>
        <time>2021-09-07T08:04:16Z</time>
      </trkpt>
      <trkpt lat="44.50553" lon="5.57543">
        <ele>777.4</ele>
        <time>2021-09-07T08:04:17Z</time>
      </trkpt>
      <trkpt lat="44.50553" lon="5.57544">
        <ele>777.4</ele>
        <time>2021-09-07T08:04:18Z</time>
      </trkpt>
      <trkpt lat="44.50553" lon="5.57544">
        <ele>777.4</ele>
        <time>2021-09-07T08:04:19Z</time>
      </trkpt>
      <trkpt lat="44.50553" lon="5.57545">
        <ele>777.4</ele>
        <time>2021-09-07T08:04:20Z</time>
      </trkpt>
      <trkpt lat="44.50553" lon="5.57546">
        <ele>777.4</ele>
        <time>2021-09-07T08:04:21Z</time>
      </trkpt>
      <trkpt lat="44.50553" lon="5.57546">
        <ele>777.4</ele>
        <time>2021-09-07T08:04:22Z</time>
      </trkpt>
      <trkpt lat="44.50553" lon="5.57547">
        <ele>777.4</ele>
        <time>2021-09-07T08:04:23Z</time>
      </trkpt>
      <trkpt lat="44.50553" lon="5.57547">
        <ele>777.4</ele>
        <time>2021-09-07T08:04:24Z</time>
      </trkpt>
      <trkpt lat="44.50553" lon="5.57548">
        <ele>777.3</ele>
        <time>2021-09-07T08:04:25Z</time>
      </trkpt>
      <trkpt lat="44.50553" lon="5.57548">
        <ele>777.3</ele>
        <time>2021-09-07T08:04:26Z</time>
      </trkpt>
      <trkpt lat="44.50553" lon="5.57549">
        <ele>777.3</ele>
        <time>2021-09-07T08:04:27Z</time>
      </trkpt>
      <trkpt lat="44.50553" lon="5.57549">
        <ele>777.3</ele>
        <time>2021-09-07T08:04:28Z</time>
      </trkpt>
      <trkpt lat="44.50553" lon="5.5755">
        <ele>777.3</ele>
        <time>2021-09-07T08:04:29Z</time>
      </trkpt>
      <trkpt lat="44.50553" lon="5.57551">
        <ele>777.3</ele>
        <time>2021-09-07T08:04:30Z</time>
      </trkpt>
      <trkpt lat="44.50553" lon="5.57552">
        <ele>777.3</ele>
        <time>2021-09-07T08:04:31Z</time>
      </trkpt>
      <trkpt lat="44.50553" lon="5.57551">
        <ele>777.3</ele>
        <time>2021-09-07T08:04:32Z</time>
      </trkpt>
      <trkpt lat="44.50553" lon="5.57549">
        <ele>777.3</ele>
        <time>2021-09-07T08:04:33Z</time>
      </trkpt>
      <trkpt lat="44.50553" lon="5.57546">
        <ele>777.4</ele>
        <time>2021-09-07T08:04:34Z</time>
      </trkpt>
      <trkpt lat="44.50553" lon="5.57542">
        <ele>777.4</ele>
        <time>2021-09-07T08:04:35Z</time>
      </trkpt>
      <trkpt lat="44.50553" lon="5.57546">
        <ele>777.4</ele>
        <time>2021-09-07T08:04:36Z</time>
      </trkpt>
      <trkpt lat="44.50552" lon="5.57542">
        <ele>777.4</ele>
        <time>2021-09-07T08:04:37Z</time>
      </trkpt>
      <trkpt lat="44.50551" lon="5.5754">
        <ele>777.4</ele>
        <time>2021-09-07T08:04:38Z</time>
      </trkpt>
      <trkpt lat="44.5055" lon="5.57538">
        <ele>777.8</ele>
        <time>2021-09-07T08:04:39Z</time>
      </trkpt>
      <trkpt lat="44.50549" lon="5.57536">
        <ele>777.8</ele>
        <time>2021-09-07T08:04:40Z</time>
      </trkpt>
      <trkpt lat="44.50548" lon="5.57535">
        <ele>778</ele>
        <time>2021-09-07T08:04:41Z</time>
      </trkpt>
      <trkpt lat="44.50542" lon="5.5753">
        <ele>779</ele>
        <time>2021-09-07T08:04:42Z</time>
      </trkpt>
      <trkpt lat="44.50542" lon="5.5753">
        <ele>779</ele>
        <time>2021-09-07T08:04:43Z</time>
      </trkpt>
      <trkpt lat="44.50543" lon="5.5753">
        <ele>779</ele>
        <time>2021-09-07T08:04:44Z</time>
      </trkpt>
      <trkpt lat="44.50543" lon="5.57529">
        <ele>779</ele>
        <time>2021-09-07T08:04:45Z</time>
      </trkpt>
      <trkpt lat="44.50543" lon="5.57529">
        <ele>779</ele>
        <time>2021-09-07T08:04:46Z</time>
      </trkpt>
      <trkpt lat="44.50543" lon="5.57529">
        <ele>779</ele>
        <time>2021-09-07T08:04:47Z</time>
      </trkpt>
      <trkpt lat="44.50544" lon="5.57529">
        <ele>779</ele>
        <time>2021-09-07T08:04:48Z</time>
      </trkpt>
      <trkpt lat="44.50544" lon="5.57529">
        <ele>779</ele>
        <time>2021-09-07T08:04:49Z</time>
      </trkpt>
      <trkpt lat="44.50544" lon="5.57529">
        <ele>779</ele>
        <time>2021-09-07T08:04:50Z</time>
      </trkpt>
      <trkpt lat="44.50545" lon="5.57529">
        <ele>778.7</ele>
        <time>2021-09-07T08:04:51Z</time>
      </trkpt>
      <trkpt lat="44.50545" lon="5.57528">
        <ele>778.7</ele>
        <time>2021-09-07T08:04:52Z</time>
      </trkpt>
      <trkpt lat="44.50545" lon="5.57527">
        <ele>778.7</ele>
        <time>2021-09-07T08:04:53Z</time>
      </trkpt>
      <trkpt lat="44.50544" lon="5.57526">
        <ele>779.5</ele>
        <time>2021-09-07T08:04:54Z</time>
      </trkpt>
      <trkpt lat="44.50543" lon="5.57524">
        <ele>779.5</ele>
        <time>2021-09-07T08:04:55Z</time>
      </trkpt>
      <trkpt lat="44.50542" lon="5.57522">
        <ele>779.5</ele>
        <time>2021-09-07T08:04:56Z</time>
      </trkpt>
      <trkpt lat="44.5054" lon="5.57519">
        <ele>780.5</ele>
        <time>2021-09-07T08:04:57Z</time>
      </trkpt>
      <trkpt lat="44.50538" lon="5.57518">
        <ele>781</ele>
        <time>2021-09-07T08:04:58Z</time>
      </trkpt>
      <trkpt lat="44.50536" lon="5.57517">
        <ele>781.6</ele>
        <time>2021-09-07T08:04:59Z</time>
      </trkpt>
      <trkpt lat="44.50534" lon="5.57516">
        <ele>782.1</ele>
        <time>2021-09-07T08:05:00Z</time>
      </trkpt>
      <trkpt lat="44.50534" lon="5.57515">
        <ele>782.1</ele>
        <time>2021-09-07T08:05:01Z</time>
      </trkpt>
      <trkpt lat="44.50534" lon="5.57516">
        <ele>782.1</ele>
        <time>2021-09-07T08:05:02Z</time>
      </trkpt>
      <trkpt lat="44.50534" lon="5.57516">
        <ele>782.1</ele>
        <time>2021-09-07T08:05:03Z</time>
      </trkpt>
      <trkpt lat="44.50535" lon="5.57516">
        <ele>782.1</ele>
        <time>2021-09-07T08:05:04Z</time>
      </trkpt>
      <trkpt lat="44.50535" lon="5.57517">
        <ele>782.1</ele>
        <time>2021-09-07T08:05:05Z</time>
      </trkpt>
      <trkpt lat="44.50535" lon="5.57517">
        <ele>782.1</ele>
        <time>2021-09-07T08:05:06Z</time>
      </trkpt>
      <trkpt lat="44.50535" lon="5.57517">
        <ele>782.1</ele>
        <time>2021-09-07T08:05:07Z</time>
      </trkpt>
      <trkpt lat="44.50535" lon="5.57518">
        <ele>781.4</ele>
        <time>2021-09-07T08:05:08Z</time>
      </trkpt>
      <trkpt lat="44.50535" lon="5.57518">
        <ele>781</ele>
        <time>2021-09-07T08:05:09Z</time>
      </trkpt>
      <trkpt lat="44.50535" lon="5.57518">
        <ele>781</ele>
        <time>2021-09-07T08:05:10Z</time>
      </trkpt>
      <trkpt lat="44.50536" lon="5.57519">
        <ele>781</ele>
        <time>2021-09-07T08:05:11Z</time>
      </trkpt>
      <trkpt lat="44.50536" lon="5.57519">
        <ele>781</ele>
        <time>2021-09-07T08:05:12Z</time>
      </trkpt>
      <trkpt lat="44.50536" lon="5.57519">
        <ele>781</ele>
        <time>2021-09-07T08:05:13Z</time>
      </trkpt>
      <trkpt lat="44.50536" lon="5.5752">
        <ele>781</ele>
        <time>2021-09-07T08:05:14Z</time>
      </trkpt>
      <trkpt lat="44.50536" lon="5.5752">
        <ele>781</ele>
        <time>2021-09-07T08:05:15Z</time>
      </trkpt>
      <trkpt lat="44.50537" lon="5.57521">
        <ele>781</ele>
        <time>2021-09-07T08:05:16Z</time>
      </trkpt>
      <trkpt lat="44.50538" lon="5.57521">
        <ele>781</ele>
        <time>2021-09-07T08:05:17Z</time>
      </trkpt>
      <trkpt lat="44.50538" lon="5.57521">
        <ele>781</ele>
        <time>2021-09-07T08:05:18Z</time>
      </trkpt>
      <trkpt lat="44.50538" lon="5.57521">
        <ele>781</ele>
        <time>2021-09-07T08:05:19Z</time>
      </trkpt>
      <trkpt lat="44.50538" lon="5.57521">
        <ele>781</ele>
        <time>2021-09-07T08:05:20Z</time>
      </trkpt>
      <trkpt lat="44.50539" lon="5.57521">
        <ele>780.5</ele>
        <time>2021-09-07T08:05:21Z</time>
      </trkpt>
      <trkpt lat="44.50539" lon="5.5752">
        <ele>780.5</ele>
        <time>2021-09-07T08:05:22Z</time>
      </trkpt>
      <trkpt lat="44.50539" lon="5.5752">
        <ele>780.5</ele>
        <time>2021-09-07T08:05:23Z</time>
      </trkpt>
      <trkpt lat="44.5054" lon="5.57521">
        <ele>780.5</ele>
        <time>2021-09-07T08:05:24Z</time>
      </trkpt>
      <trkpt lat="44.5054" lon="5.57522">
        <ele>779.9</ele>
        <time>2021-09-07T08:05:25Z</time>
      </trkpt>
      <trkpt lat="44.50541" lon="5.57526">
        <ele>779.9</ele>
        <time>2021-09-07T08:05:26Z</time>
      </trkpt>
      <trkpt lat="44.50542" lon="5.57529">
        <ele>779</ele>
        <time>2021-09-07T08:05:27Z</time>
      </trkpt>
      <trkpt lat="44.50542" lon="5.5753">
        <ele>779</ele>
        <time>2021-09-07T08:05:28Z</time>
      </trkpt>
      <trkpt lat="44.50542" lon="5.57531">
        <ele>778.6</ele>
        <time>2021-09-07T08:05:29Z</time>
      </trkpt>
      <trkpt lat="44.50543" lon="5.57532">
        <ele>778.6</ele>
        <time>2021-09-07T08:05:30Z</time>
      </trkpt>
      <trkpt lat="44.50543" lon="5.57535">
        <ele>778.2</ele>
        <time>2021-09-07T08:05:31Z</time>
      </trkpt>
      <trkpt lat="44.50543" lon="5.57536">
        <ele>778.2</ele>
        <time>2021-09-07T08:05:32Z</time>
      </trkpt>
      <trkpt lat="44.50543" lon="5.57536">
        <ele>778.2</ele>
        <time>2021-09-07T08:05:33Z</time>
      </trkpt>
      <trkpt lat="44.50542" lon="5.57536">
        <ele>778.2</ele>
        <time>2021-09-07T08:05:34Z</time>
      </trkpt>
      <trkpt lat="44.50542" lon="5.57536">
        <ele>778.2</ele>
        <time>2021-09-07T08:05:35Z</time>
      </trkpt>
      <trkpt lat="44.50541" lon="5.57536">
        <ele>778.4</ele>
        <time>2021-09-07T08:05:36Z</time>
      </trkpt>
      <trkpt lat="44.5054" lon="5.57536">
        <ele>778.4</ele>
        <time>2021-09-07T08:05:37Z</time>
      </trkpt>
      <trkpt lat="44.5054" lon="5.57535">
        <ele>778.4</ele>
        <time>2021-09-07T08:05:38Z</time>
      </trkpt>
      <trkpt lat="44.50539" lon="5.57535">
        <ele>778.4</ele>
        <time>2021-09-07T08:05:39Z</time>
      </trkpt>
      <trkpt lat="44.50538" lon="5.57535">
        <ele>778.4</ele>
        <time>2021-09-07T08:05:40Z</time>
      </trkpt>
      <trkpt lat="44.50538" lon="5.57535">
        <ele>778.7</ele>
        <time>2021-09-07T08:05:41Z</time>
      </trkpt>
      <trkpt lat="44.50537" lon="5.57535">
        <ele>778.7</ele>
        <time>2021-09-07T08:05:42Z</time>
      </trkpt>
      <trkpt lat="44.50537" lon="5.57535">
        <ele>778.7</ele>
        <time>2021-09-07T08:05:43Z</time>
      </trkpt>
      <trkpt lat="44.50536" lon="5.57535">
        <ele>778.7</ele>
        <time>2021-09-07T08:05:44Z</time>
      </trkpt>
      <trkpt lat="44.50535" lon="5.57535">
        <ele>778.7</ele>
        <time>2021-09-07T08:05:45Z</time>
      </trkpt>
      <trkpt lat="44.50535" lon="5.57535">
        <ele>779.5</ele>
        <time>2021-09-07T08:05:46Z</time>
      </trkpt>
      <trkpt lat="44.50534" lon="5.57535">
        <ele>779.5</ele>
        <time>2021-09-07T08:05:47Z</time>
      </trkpt>
      <trkpt lat="44.50533" lon="5.57535">
        <ele>779.5</ele>
        <time>2021-09-07T08:05:48Z</time>
      </trkpt>
      <trkpt lat="44.50533" lon="5.57534">
        <ele>779.5</ele>
        <time>2021-09-07T08:05:49Z</time>
      </trkpt>
      <trkpt lat="44.50532" lon="5.57534">
        <ele>779.9</ele>
        <time>2021-09-07T08:05:50Z</time>
      </trkpt>
      <trkpt lat="44.50531" lon="5.57534">
        <ele>779.9</ele>
        <time>2021-09-07T08:05:51Z</time>
      </trkpt>
      <trkpt lat="44.50531" lon="5.57534">
        <ele>779.9</ele>
        <time>2021-09-07T08:05:52Z</time>
      </trkpt>
      <trkpt lat="44.5053" lon="5.57534">
        <ele>779.9</ele>
        <time>2021-09-07T08:05:53Z</time>
      </trkpt>
      <trkpt lat="44.5053" lon="5.57534">
        <ele>779.9</ele>
        <time>2021-09-07T08:05:54Z</time>
      </trkpt>
      <trkpt lat="44.50529" lon="5.57534">
        <ele>780.3</ele>
        <time>2021-09-07T08:05:55Z</time>
      </trkpt>
      <trkpt lat="44.50528" lon="5.57534">
        <ele>780.3</ele>
        <time>2021-09-07T08:05:56Z</time>
      </trkpt>
      <trkpt lat="44.50528" lon="5.57534">
        <ele>780.3</ele>
        <time>2021-09-07T08:05:57Z</time>
      </trkpt>
      <trkpt lat="44.50527" lon="5.57534">
        <ele>780.3</ele>
        <time>2021-09-07T08:05:58Z</time>
      </trkpt>
      <trkpt lat="44.50526" lon="5.57534">
        <ele>780.3</ele>
        <time>2021-09-07T08:05:59Z</time>
      </trkpt>
      <trkpt lat="44.50526" lon="5.57533">
        <ele>780.7</ele>
        <time>2021-09-07T08:06:00Z</time>
      </trkpt>
      <trkpt lat="44.50525" lon="5.57533">
        <ele>780.7</ele>
        <time>2021-09-07T08:06:01Z</time>
      </trkpt>
      <trkpt lat="44.50525" lon="5.57533">
        <ele>780.7</ele>
        <time>2021-09-07T08:06:02Z</time>
      </trkpt>
      <trkpt lat="44.50517" lon="5.57523">
        <ele>782.9</ele>
        <time>2021-09-07T08:06:03Z</time>
      </trkpt>
      <trkpt lat="44.50515" lon="5.57519">
        <ele>784</ele>
        <time>2021-09-07T08:06:04Z</time>
      </trkpt>
      <trkpt lat="44.50513" lon="5.57516">
        <ele>785</ele>
        <time>2021-09-07T08:06:05Z</time>
      </trkpt>
      <trkpt lat="44.50513" lon="5.57515">
        <ele>785</ele>
        <time>2021-09-07T08:06:06Z</time>
      </trkpt>
      <trkpt lat="44.50513" lon="5.57514">
        <ele>785</ele>
        <time>2021-09-07T08:06:07Z</time>
      </trkpt>
      <trkpt lat="44.50515" lon="5.57513">
        <ele>785.3</ele>
        <time>2021-09-07T08:06:08Z</time>
      </trkpt>
      <trkpt lat="44.50516" lon="5.57511">
        <ele>785.3</ele>
        <time>2021-09-07T08:06:09Z</time>
      </trkpt>
      <trkpt lat="44.50519" lon="5.57508">
        <ele>785.5</ele>
        <time>2021-09-07T08:06:10Z</time>
      </trkpt>
      <trkpt lat="44.50521" lon="5.57505">
        <ele>785.1</ele>
        <time>2021-09-07T08:06:11Z</time>
      </trkpt>
      <trkpt lat="44.50523" lon="5.57503">
        <ele>785.1</ele>
        <time>2021-09-07T08:06:12Z</time>
      </trkpt>
      <trkpt lat="44.50525" lon="5.57503">
        <ele>785.1</ele>
        <time>2021-09-07T08:06:13Z</time>
      </trkpt>
      <trkpt lat="44.50527" lon="5.57502">
        <ele>784.7</ele>
        <time>2021-09-07T08:06:14Z</time>
      </trkpt>
      <trkpt lat="44.50532" lon="5.575">
        <ele>784.7</ele>
        <time>2021-09-07T08:06:15Z</time>
      </trkpt>
      <trkpt lat="44.50537" lon="5.57496">
        <ele>784.1</ele>
        <time>2021-09-07T08:06:16Z</time>
      </trkpt>
      <trkpt lat="44.5054" lon="5.57493">
        <ele>783.6</ele>
        <time>2021-09-07T08:06:17Z</time>
      </trkpt>
      <trkpt lat="44.50543" lon="5.57489">
        <ele>783.4</ele>
        <time>2021-09-07T08:06:18Z</time>
      </trkpt>
      <trkpt lat="44.50545" lon="5.57488">
        <ele>782.9</ele>
        <time>2021-09-07T08:06:19Z</time>
      </trkpt>
      <trkpt lat="44.50547" lon="5.57486">
        <ele>783.2</ele>
        <time>2021-09-07T08:06:20Z</time>
      </trkpt>
      <trkpt lat="44.5055" lon="5.57483">
        <ele>783</ele>
        <time>2021-09-07T08:06:21Z</time>
      </trkpt>
      <trkpt lat="44.50553" lon="5.57481">
        <ele>782.5</ele>
        <time>2021-09-07T08:06:22Z</time>
      </trkpt>
      <trkpt lat="44.50556" lon="5.57479">
        <ele>781.9</ele>
        <time>2021-09-07T08:06:23Z</time>
      </trkpt>
      <trkpt lat="44.50559" lon="5.57477">
        <ele>781.6</ele>
        <time>2021-09-07T08:06:24Z</time>
      </trkpt>
      <trkpt lat="44.50562" lon="5.57474">
        <ele>781.3</ele>
        <time>2021-09-07T08:06:25Z</time>
      </trkpt>
      <trkpt lat="44.50564" lon="5.57471">
        <ele>780.8</ele>
        <time>2021-09-07T08:06:26Z</time>
      </trkpt>
      <trkpt lat="44.50566" lon="5.57468">
        <ele>780.5</ele>
        <time>2021-09-07T08:06:27Z</time>
      </trkpt>
      <trkpt lat="44.50568" lon="5.57464">
        <ele>780.7</ele>
        <time>2021-09-07T08:06:28Z</time>
      </trkpt>
      <trkpt lat="44.50569" lon="5.57461">
        <ele>780.4</ele>
        <time>2021-09-07T08:06:29Z</time>
      </trkpt>
      <trkpt lat="44.5057" lon="5.57457">
        <ele>780.6</ele>
        <time>2021-09-07T08:06:30Z</time>
      </trkpt>
      <trkpt lat="44.50571" lon="5.57455">
        <ele>780.6</ele>
        <time>2021-09-07T08:06:31Z</time>
      </trkpt>
      <trkpt lat="44.50571" lon="5.57453">
        <ele>780.8</ele>
        <time>2021-09-07T08:06:32Z</time>
      </trkpt>
      <trkpt lat="44.50572" lon="5.5745">
        <ele>780.3</ele>
        <time>2021-09-07T08:06:33Z</time>
      </trkpt>
      <trkpt lat="44.50573" lon="5.57447">
        <ele>780.5</ele>
        <time>2021-09-07T08:06:34Z</time>
      </trkpt>
      <trkpt lat="44.50574" lon="5.57444">
        <ele>780.7</ele>
        <time>2021-09-07T08:06:35Z</time>
      </trkpt>
      <trkpt lat="44.50574" lon="5.57441">
        <ele>780.7</ele>
        <time>2021-09-07T08:06:36Z</time>
      </trkpt>
      <trkpt lat="44.50575" lon="5.57438">
        <ele>780.4</ele>
        <time>2021-09-07T08:06:37Z</time>
      </trkpt>
      <trkpt lat="44.50576" lon="5.57436">
        <ele>780.6</ele>
        <time>2021-09-07T08:06:38Z</time>
      </trkpt>
      <trkpt lat="44.50576" lon="5.57433">
        <ele>780.6</ele>
        <time>2021-09-07T08:06:39Z</time>
      </trkpt>
      <trkpt lat="44.50577" lon="5.5743">
        <ele>780.9</ele>
        <time>2021-09-07T08:06:40Z</time>
      </trkpt>
      <trkpt lat="44.50579" lon="5.57426">
        <ele>780.8</ele>
        <time>2021-09-07T08:06:41Z</time>
      </trkpt>
      <trkpt lat="44.50581" lon="5.57424">
        <ele>780.8</ele>
        <time>2021-09-07T08:06:42Z</time>
      </trkpt>
      <trkpt lat="44.50582" lon="5.57421">
        <ele>780.7</ele>
        <time>2021-09-07T08:06:43Z</time>
      </trkpt>
      <trkpt lat="44.50582" lon="5.57425">
        <ele>780.3</ele>
        <time>2021-09-07T08:06:44Z</time>
      </trkpt>
      <trkpt lat="44.50581" lon="5.57428">
        <ele>780.4</ele>
        <time>2021-09-07T08:06:45Z</time>
      </trkpt>
      <trkpt lat="44.50581" lon="5.5743">
        <ele>780.4</ele>
        <time>2021-09-07T08:06:46Z</time>
      </trkpt>
      <trkpt lat="44.5058" lon="5.57431">
        <ele>780.4</ele>
        <time>2021-09-07T08:06:47Z</time>
      </trkpt>
      <trkpt lat="44.50578" lon="5.57435">
        <ele>780.1</ele>
        <time>2021-09-07T08:06:48Z</time>
      </trkpt>
      <trkpt lat="44.50575" lon="5.5744">
        <ele>780.4</ele>
        <time>2021-09-07T08:06:49Z</time>
      </trkpt>
      <trkpt lat="44.50573" lon="5.5744">
        <ele>780.9</ele>
        <time>2021-09-07T08:06:50Z</time>
      </trkpt>
      <trkpt lat="44.50573" lon="5.57437">
        <ele>780.9</ele>
        <time>2021-09-07T08:06:51Z</time>
      </trkpt>
      <trkpt lat="44.50572" lon="5.57434">
        <ele>781.1</ele>
        <time>2021-09-07T08:06:52Z</time>
      </trkpt>
      <trkpt lat="44.50571" lon="5.57432">
        <ele>781.5</ele>
        <time>2021-09-07T08:06:53Z</time>
      </trkpt>
      <trkpt lat="44.50571" lon="5.57429">
        <ele>781.8</ele>
        <time>2021-09-07T08:06:54Z</time>
      </trkpt>
      <trkpt lat="44.5057" lon="5.57427">
        <ele>782</ele>
        <time>2021-09-07T08:06:55Z</time>
      </trkpt>
      <trkpt lat="44.50569" lon="5.57424">
        <ele>782</ele>
        <time>2021-09-07T08:06:56Z</time>
      </trkpt>
      <trkpt lat="44.50569" lon="5.57422">
        <ele>782.7</ele>
        <time>2021-09-07T08:06:57Z</time>
      </trkpt>
      <trkpt lat="44.50568" lon="5.57419">
        <ele>782.7</ele>
        <time>2021-09-07T08:06:58Z</time>
      </trkpt>
      <trkpt lat="44.50567" lon="5.57417">
        <ele>783</ele>
        <time>2021-09-07T08:06:59Z</time>
      </trkpt>
      <trkpt lat="44.50567" lon="5.57414">
        <ele>783.3</ele>
        <time>2021-09-07T08:07:00Z</time>
      </trkpt>
      <trkpt lat="44.50566" lon="5.57411">
        <ele>783.3</ele>
        <time>2021-09-07T08:07:01Z</time>
      </trkpt>
      <trkpt lat="44.50565" lon="5.57409">
        <ele>783.9</ele>
        <time>2021-09-07T08:07:02Z</time>
      </trkpt>
      <trkpt lat="44.50565" lon="5.57406">
        <ele>783.9</ele>
        <time>2021-09-07T08:07:03Z</time>
      </trkpt>
      <trkpt lat="44.50564" lon="5.57404">
        <ele>784.2</ele>
        <time>2021-09-07T08:07:04Z</time>
      </trkpt>
      <trkpt lat="44.50563" lon="5.57401">
        <ele>784.5</ele>
        <time>2021-09-07T08:07:05Z</time>
      </trkpt>
      <trkpt lat="44.50563" lon="5.57399">
        <ele>784.9</ele>
        <time>2021-09-07T08:07:06Z</time>
      </trkpt>
      <trkpt lat="44.50562" lon="5.57396">
        <ele>785.1</ele>
        <time>2021-09-07T08:07:07Z</time>
      </trkpt>
      <trkpt lat="44.50561" lon="5.57394">
        <ele>785.1</ele>
        <time>2021-09-07T08:07:08Z</time>
      </trkpt>
      <trkpt lat="44.50561" lon="5.57391">
        <ele>785.4</ele>
        <time>2021-09-07T08:07:09Z</time>
      </trkpt>
      <trkpt lat="44.5056" lon="5.57389">
        <ele>785.7</ele>
        <time>2021-09-07T08:07:10Z</time>
      </trkpt>
      <trkpt lat="44.50555" lon="5.57359">
        <ele>788.2</ele>
        <time>2021-09-07T08:07:11Z</time>
      </trkpt>
      <trkpt lat="44.5055" lon="5.5733">
        <ele>789.8</ele>
        <time>2021-09-07T08:07:12Z</time>
      </trkpt>
      <trkpt lat="44.50544" lon="5.573">
        <ele>790.6</ele>
        <time>2021-09-07T08:07:13Z</time>
      </trkpt>
      <trkpt lat="44.50539" lon="5.57271">
        <ele>791.9</ele>
        <time>2021-09-07T08:07:14Z</time>
      </trkpt>
      <trkpt lat="44.50534" lon="5.57241">
        <ele>792.4</ele>
        <time>2021-09-07T08:07:15Z</time>
      </trkpt>
      <trkpt lat="44.50533" lon="5.57232">
        <ele>792.8</ele>
        <time>2021-09-07T08:07:16Z</time>
      </trkpt>
      <trkpt lat="44.50531" lon="5.57223">
        <ele>792.8</ele>
        <time>2021-09-07T08:07:17Z</time>
      </trkpt>
      <trkpt lat="44.5053" lon="5.57215">
        <ele>792.8</ele>
        <time>2021-09-07T08:07:18Z</time>
      </trkpt>
      <trkpt lat="44.50528" lon="5.57206">
        <ele>792.8</ele>
        <time>2021-09-07T08:07:19Z</time>
      </trkpt>
      <trkpt lat="44.50527" lon="5.57197">
        <ele>792.8</ele>
        <time>2021-09-07T08:07:20Z</time>
      </trkpt>
      <trkpt lat="44.50525" lon="5.57188">
        <ele>792.8</ele>
        <time>2021-09-07T08:07:21Z</time>
      </trkpt>
      <trkpt lat="44.50524" lon="5.5719">
        <ele>792.8</ele>
        <time>2021-09-07T08:07:22Z</time>
      </trkpt>
      <trkpt lat="44.50524" lon="5.57192">
        <ele>792.8</ele>
        <time>2021-09-07T08:07:23Z</time>
      </trkpt>
      <trkpt lat="44.50523" lon="5.57194">
        <ele>792.8</ele>
        <time>2021-09-07T08:07:24Z</time>
      </trkpt>
      <trkpt lat="44.50522" lon="5.57195">
        <ele>792.8</ele>
        <time>2021-09-07T08:07:25Z</time>
      </trkpt>
      <trkpt lat="44.50522" lon="5.57197">
        <ele>792.8</ele>
        <time>2021-09-07T08:07:26Z</time>
      </trkpt>
      <trkpt lat="44.50521" lon="5.57199">
        <ele>792.8</ele>
        <time>2021-09-07T08:07:27Z</time>
      </trkpt>
      <trkpt lat="44.50518" lon="5.57195">
        <ele>792.8</ele>
        <time>2021-09-07T08:07:28Z</time>
      </trkpt>
      <trkpt lat="44.50517" lon="5.57194">
        <ele>792.8</ele>
        <time>2021-09-07T08:07:29Z</time>
      </trkpt>
      <trkpt lat="44.50516" lon="5.57192">
        <ele>792.8</ele>
        <time>2021-09-07T08:07:30Z</time>
      </trkpt>
      <trkpt lat="44.50515" lon="5.57192">
        <ele>792.8</ele>
        <time>2021-09-07T08:07:31Z</time>
      </trkpt>
      <trkpt lat="44.50515" lon="5.57193">
        <ele>792.8</ele>
        <time>2021-09-07T08:07:32Z</time>
      </trkpt>
      <trkpt lat="44.50515" lon="5.57193">
        <ele>792.8</ele>
        <time>2021-09-07T08:07:33Z</time>
      </trkpt>
      <trkpt lat="44.50516" lon="5.57194">
        <ele>792.8</ele>
        <time>2021-09-07T08:07:34Z</time>
      </trkpt>
      <trkpt lat="44.50516" lon="5.57195">
        <ele>792.8</ele>
        <time>2021-09-07T08:07:35Z</time>
      </trkpt>
      <trkpt lat="44.50517" lon="5.57196">
        <ele>792.8</ele>
        <time>2021-09-07T08:07:36Z</time>
      </trkpt>
      <trkpt lat="44.50517" lon="5.57196">
        <ele>792.8</ele>
        <time>2021-09-07T08:07:37Z</time>
      </trkpt>
      <trkpt lat="44.50517" lon="5.57196">
        <ele>792.8</ele>
        <time>2021-09-07T08:07:38Z</time>
      </trkpt>
      <trkpt lat="44.50518" lon="5.57197">
        <ele>792.8</ele>
        <time>2021-09-07T08:07:39Z</time>
      </trkpt>
      <trkpt lat="44.50518" lon="5.57197">
        <ele>792.8</ele>
        <time>2021-09-07T08:07:40Z</time>
      </trkpt>
      <trkpt lat="44.50518" lon="5.57198">
        <ele>792.8</ele>
        <time>2021-09-07T08:07:41Z</time>
      </trkpt>
      <trkpt lat="44.50519" lon="5.57198">
        <ele>792.8</ele>
        <time>2021-09-07T08:07:42Z</time>
      </trkpt>
      <trkpt lat="44.50519" lon="5.57198">
        <ele>792.8</ele>
        <time>2021-09-07T08:07:43Z</time>
      </trkpt>
      <trkpt lat="44.50519" lon="5.57198">
        <ele>792.8</ele>
        <time>2021-09-07T08:07:44Z</time>
      </trkpt>
      <trkpt lat="44.50518" lon="5.57198">
        <ele>792.8</ele>
        <time>2021-09-07T08:07:45Z</time>
      </trkpt>
      <trkpt lat="44.50518" lon="5.57199">
        <ele>792.8</ele>
        <time>2021-09-07T08:07:46Z</time>
      </trkpt>
      <trkpt lat="44.50518" lon="5.57199">
        <ele>792.8</ele>
        <time>2021-09-07T08:07:47Z</time>
      </trkpt>
      <trkpt lat="44.50518" lon="5.57199">
        <ele>792.8</ele>
        <time>2021-09-07T08:07:48Z</time>
      </trkpt>
      <trkpt lat="44.50518" lon="5.572">
        <ele>792.8</ele>
        <time>2021-09-07T08:07:49Z</time>
      </trkpt>
      <trkpt lat="44.50519" lon="5.57201">
        <ele>792.8</ele>
        <time>2021-09-07T08:07:50Z</time>
      </trkpt>
      <trkpt lat="44.50519" lon="5.57202">
        <ele>792.8</ele>
        <time>2021-09-07T08:07:51Z</time>
      </trkpt>
      <trkpt lat="44.50519" lon="5.57202">
        <ele>792.8</ele>
        <time>2021-09-07T08:07:52Z</time>
      </trkpt>
      <trkpt lat="44.50519" lon="5.57202">
        <ele>792.8</ele>
        <time>2021-09-07T08:07:53Z</time>
      </trkpt>
      <trkpt lat="44.50519" lon="5.57203">
        <ele>792.8</ele>
        <time>2021-09-07T08:07:54Z</time>
      </trkpt>
      <trkpt lat="44.5052" lon="5.57204">
        <ele>792.8</ele>
        <time>2021-09-07T08:07:55Z</time>
      </trkpt>
      <trkpt lat="44.5052" lon="5.57205">
        <ele>792.8</ele>
        <time>2021-09-07T08:07:56Z</time>
      </trkpt>
      <trkpt lat="44.5052" lon="5.57205">
        <ele>792.8</ele>
        <time>2021-09-07T08:07:57Z</time>
      </trkpt>
      <trkpt lat="44.5052" lon="5.57205">
        <ele>792.8</ele>
        <time>2021-09-07T08:07:58Z</time>
      </trkpt>
      <trkpt lat="44.5052" lon="5.57206">
        <ele>792.8</ele>
        <time>2021-09-07T08:07:59Z</time>
      </trkpt>
      <trkpt lat="44.50519" lon="5.57206">
        <ele>792.8</ele>
        <time>2021-09-07T08:08:00Z</time>
      </trkpt>
      <trkpt lat="44.50519" lon="5.57207">
        <ele>792.8</ele>
        <time>2021-09-07T08:08:01Z</time>
      </trkpt>
      <trkpt lat="44.50519" lon="5.57207">
        <ele>792.8</ele>
        <time>2021-09-07T08:08:02Z</time>
      </trkpt>
      <trkpt lat="44.50519" lon="5.57208">
        <ele>792.8</ele>
        <time>2021-09-07T08:08:03Z</time>
      </trkpt>
      <trkpt lat="44.50519" lon="5.57208">
        <ele>792.8</ele>
        <time>2021-09-07T08:08:04Z</time>
      </trkpt>
      <trkpt lat="44.50519" lon="5.57209">
        <ele>792.8</ele>
        <time>2021-09-07T08:08:05Z</time>
      </trkpt>
      <trkpt lat="44.50519" lon="5.5721">
        <ele>792.8</ele>
        <time>2021-09-07T08:08:06Z</time>
      </trkpt>
      <trkpt lat="44.50519" lon="5.57211">
        <ele>792.8</ele>
        <time>2021-09-07T08:08:07Z</time>
      </trkpt>
      <trkpt lat="44.50519" lon="5.57211">
        <ele>792.8</ele>
        <time>2021-09-07T08:08:08Z</time>
      </trkpt>
      <trkpt lat="44.5052" lon="5.57212">
        <ele>792.8</ele>
        <time>2021-09-07T08:08:09Z</time>
      </trkpt>
      <trkpt lat="44.5052" lon="5.57213">
        <ele>792.8</ele>
        <time>2021-09-07T08:08:10Z</time>
      </trkpt>
      <trkpt lat="44.5052" lon="5.57213">
        <ele>792.8</ele>
        <time>2021-09-07T08:08:11Z</time>
      </trkpt>
      <trkpt lat="44.5052" lon="5.57215">
        <ele>792.8</ele>
        <time>2021-09-07T08:08:12Z</time>
      </trkpt>
      <trkpt lat="44.5052" lon="5.57215">
        <ele>792.8</ele>
        <time>2021-09-07T08:08:13Z</time>
      </trkpt>
      <trkpt lat="44.5052" lon="5.57215">
        <ele>792.8</ele>
        <time>2021-09-07T08:08:14Z</time>
      </trkpt>
      <trkpt lat="44.5052" lon="5.57216">
        <ele>792.8</ele>
        <time>2021-09-07T08:08:15Z</time>
      </trkpt>
      <trkpt lat="44.5052" lon="5.57217">
        <ele>792.8</ele>
        <time>2021-09-07T08:08:16Z</time>
      </trkpt>
      <trkpt lat="44.5052" lon="5.57217">
        <ele>792.8</ele>
        <time>2021-09-07T08:08:17Z</time>
      </trkpt>
      <trkpt lat="44.50521" lon="5.57218">
        <ele>792.8</ele>
        <time>2021-09-07T08:08:18Z</time>
      </trkpt>
      <trkpt lat="44.50521" lon="5.57218">
        <ele>792.8</ele>
        <time>2021-09-07T08:08:19Z</time>
      </trkpt>
      <trkpt lat="44.50521" lon="5.57218">
        <ele>792.8</ele>
        <time>2021-09-07T08:08:20Z</time>
      </trkpt>
      <trkpt lat="44.50521" lon="5.57219">
        <ele>792.8</ele>
        <time>2021-09-07T08:08:21Z</time>
      </trkpt>
      <trkpt lat="44.50521" lon="5.57219">
        <ele>792.8</ele>
        <time>2021-09-07T08:08:22Z</time>
      </trkpt>
      <trkpt lat="44.50522" lon="5.5722">
        <ele>792.8</ele>
        <time>2021-09-07T08:08:23Z</time>
      </trkpt>
      <trkpt lat="44.50522" lon="5.5722">
        <ele>792.8</ele>
        <time>2021-09-07T08:08:24Z</time>
      </trkpt>
      <trkpt lat="44.50523" lon="5.57221">
        <ele>792.8</ele>
        <time>2021-09-07T08:08:25Z</time>
      </trkpt>
      <trkpt lat="44.50523" lon="5.57221">
        <ele>792.8</ele>
        <time>2021-09-07T08:08:26Z</time>
      </trkpt>
      <trkpt lat="44.50523" lon="5.57221">
        <ele>792.8</ele>
        <time>2021-09-07T08:08:27Z</time>
      </trkpt>
      <trkpt lat="44.50523" lon="5.57221">
        <ele>792.8</ele>
        <time>2021-09-07T08:08:28Z</time>
      </trkpt>
      <trkpt lat="44.50524" lon="5.57222">
        <ele>792.8</ele>
        <time>2021-09-07T08:08:29Z</time>
      </trkpt>
      <trkpt lat="44.50524" lon="5.57222">
        <ele>792.8</ele>
        <time>2021-09-07T08:08:30Z</time>
      </trkpt>
      <trkpt lat="44.50525" lon="5.57222">
        <ele>792.8</ele>
        <time>2021-09-07T08:08:31Z</time>
      </trkpt>
      <trkpt lat="44.50525" lon="5.57223">
        <ele>792.8</ele>
        <time>2021-09-07T08:08:32Z</time>
      </trkpt>
      <trkpt lat="44.50525" lon="5.57223">
        <ele>792.8</ele>
        <time>2021-09-07T08:08:33Z</time>
      </trkpt>
      <trkpt lat="44.50526" lon="5.57224">
        <ele>792.8</ele>
        <time>2021-09-07T08:08:34Z</time>
      </trkpt>
      <trkpt lat="44.50527" lon="5.57224">
        <ele>792.8</ele>
        <time>2021-09-07T08:08:35Z</time>
      </trkpt>
      <trkpt lat="44.50528" lon="5.57225">
        <ele>792.8</ele>
        <time>2021-09-07T08:08:36Z</time>
      </trkpt>
      <trkpt lat="44.50528" lon="5.57225">
        <ele>792.8</ele>
        <time>2021-09-07T08:08:37Z</time>
      </trkpt>
      <trkpt lat="44.50529" lon="5.57226">
        <ele>792.8</ele>
        <time>2021-09-07T08:08:38Z</time>
      </trkpt>
      <trkpt lat="44.50529" lon="5.57227">
        <ele>792.8</ele>
        <time>2021-09-07T08:08:39Z</time>
      </trkpt>
      <trkpt lat="44.5053" lon="5.57228">
        <ele>792.8</ele>
        <time>2021-09-07T08:08:40Z</time>
      </trkpt>
      <trkpt lat="44.5053" lon="5.57228">
        <ele>792.8</ele>
        <time>2021-09-07T08:08:41Z</time>
      </trkpt>
      <trkpt lat="44.50529" lon="5.5723">
        <ele>792.8</ele>
        <time>2021-09-07T08:08:42Z</time>
      </trkpt>
      <trkpt lat="44.50528" lon="5.57232">
        <ele>792.8</ele>
        <time>2021-09-07T08:08:43Z</time>
      </trkpt>
      <trkpt lat="44.50528" lon="5.57233">
        <ele>792.8</ele>
        <time>2021-09-07T08:08:44Z</time>
      </trkpt>
      <trkpt lat="44.50527" lon="5.57234">
        <ele>792.8</ele>
        <time>2021-09-07T08:08:45Z</time>
      </trkpt>
      <trkpt lat="44.50526" lon="5.57236">
        <ele>792.8</ele>
        <time>2021-09-07T08:08:46Z</time>
      </trkpt>
      <trkpt lat="44.50524" lon="5.57237">
        <ele>792.8</ele>
        <time>2021-09-07T08:08:47Z</time>
      </trkpt>
      <trkpt lat="44.50522" lon="5.5724">
        <ele>792.7</ele>
        <time>2021-09-07T08:08:48Z</time>
      </trkpt>
      <trkpt lat="44.50533" lon="5.57072">
        <ele>797.7</ele>
        <time>2021-09-07T08:08:49Z</time>
      </trkpt>
      <trkpt lat="44.50544" lon="5.56904">
        <ele>800.3</ele>
        <time>2021-09-07T08:08:50Z</time>
      </trkpt>
      <trkpt lat="44.50548" lon="5.56899">
        <ele>800.3</ele>
        <time>2021-09-07T08:08:51Z</time>
      </trkpt>
      <trkpt lat="44.50552" lon="5.56895">
        <ele>800.3</ele>
        <time>2021-09-07T08:08:52Z</time>
      </trkpt>
      <trkpt lat="44.50553" lon="5.56893">
        <ele>800.3</ele>
        <time>2021-09-07T08:08:53Z</time>
      </trkpt>
      <trkpt lat="44.50553" lon="5.56891">
        <ele>800.4</ele>
        <time>2021-09-07T08:08:54Z</time>
      </trkpt>
      <trkpt lat="44.50554" lon="5.56888">
        <ele>800.3</ele>
        <time>2021-09-07T08:08:55Z</time>
      </trkpt>
      <trkpt lat="44.50555" lon="5.56885">
        <ele>800.3</ele>
        <time>2021-09-07T08:08:56Z</time>
      </trkpt>
      <trkpt lat="44.50555" lon="5.56882">
        <ele>800.3</ele>
        <time>2021-09-07T08:08:57Z</time>
      </trkpt>
      <trkpt lat="44.50555" lon="5.56878">
        <ele>800.3</ele>
        <time>2021-09-07T08:08:58Z</time>
      </trkpt>
      <trkpt lat="44.50555" lon="5.56876">
        <ele>800.3</ele>
        <time>2021-09-07T08:08:59Z</time>
      </trkpt>
      <trkpt lat="44.50554" lon="5.56871">
        <ele>800.3</ele>
        <time>2021-09-07T08:09:00Z</time>
      </trkpt>
      <trkpt lat="44.50552" lon="5.56865">
        <ele>800.3</ele>
        <time>2021-09-07T08:09:01Z</time>
      </trkpt>
      <trkpt lat="44.50549" lon="5.56848">
        <ele>800.4</ele>
        <time>2021-09-07T08:09:02Z</time>
      </trkpt>
      <trkpt lat="44.50547" lon="5.56838">
        <ele>800.4</ele>
        <time>2021-09-07T08:09:03Z</time>
      </trkpt>
      <trkpt lat="44.50544" lon="5.56828">
        <ele>800.4</ele>
        <time>2021-09-07T08:09:04Z</time>
      </trkpt>
      <trkpt lat="44.50543" lon="5.56825">
        <ele>800.4</ele>
        <time>2021-09-07T08:09:05Z</time>
      </trkpt>
      <trkpt lat="44.5053" lon="5.56806">
        <ele>800.6</ele>
        <time>2021-09-07T08:09:06Z</time>
      </trkpt>
      <trkpt lat="44.50518" lon="5.56787">
        <ele>800.9</ele>
        <time>2021-09-07T08:09:07Z</time>
      </trkpt>
      <trkpt lat="44.50511" lon="5.56776">
        <ele>801</ele>
        <time>2021-09-07T08:09:08Z</time>
      </trkpt>
      <trkpt lat="44.50508" lon="5.56772">
        <ele>801.1</ele>
        <time>2021-09-07T08:09:09Z</time>
      </trkpt>
      <trkpt lat="44.50507" lon="5.5677">
        <ele>801.2</ele>
        <time>2021-09-07T08:09:10Z</time>
      </trkpt>
      <trkpt lat="44.50505" lon="5.56767">
        <ele>801.2</ele>
        <time>2021-09-07T08:09:11Z</time>
      </trkpt>
      <trkpt lat="44.50504" lon="5.5676">
        <ele>801.3</ele>
        <time>2021-09-07T08:09:12Z</time>
      </trkpt>
      <trkpt lat="44.50503" lon="5.56755">
        <ele>801.4</ele>
        <time>2021-09-07T08:09:13Z</time>
      </trkpt>
      <trkpt lat="44.505" lon="5.56745">
        <ele>801.6</ele>
        <time>2021-09-07T08:09:14Z</time>
      </trkpt>
      <trkpt lat="44.50499" lon="5.5674">
        <ele>801.6</ele>
        <time>2021-09-07T08:09:15Z</time>
      </trkpt>
      <trkpt lat="44.50498" lon="5.56738">
        <ele>801.7</ele>
        <time>2021-09-07T08:09:16Z</time>
      </trkpt>
      <trkpt lat="44.50498" lon="5.56738">
        <ele>801.7</ele>
        <time>2021-09-07T08:09:17Z</time>
      </trkpt>
      <trkpt lat="44.50498" lon="5.56738">
        <ele>801.7</ele>
        <time>2021-09-07T08:09:18Z</time>
      </trkpt>
      <trkpt lat="44.50498" lon="5.56738">
        <ele>801.7</ele>
        <time>2021-09-07T08:09:19Z</time>
      </trkpt>
      <trkpt lat="44.50498" lon="5.56738">
        <ele>801.7</ele>
        <time>2021-09-07T08:09:20Z</time>
      </trkpt>
      <trkpt lat="44.50497" lon="5.56738">
        <ele>801.7</ele>
        <time>2021-09-07T08:09:21Z</time>
      </trkpt>
      <trkpt lat="44.50497" lon="5.56738">
        <ele>801.7</ele>
        <time>2021-09-07T08:09:22Z</time>
      </trkpt>
      <trkpt lat="44.50497" lon="5.56738">
        <ele>801.7</ele>
        <time>2021-09-07T08:09:23Z</time>
      </trkpt>
      <trkpt lat="44.50497" lon="5.56738">
        <ele>801.7</ele>
        <time>2021-09-07T08:09:24Z</time>
      </trkpt>
      <trkpt lat="44.50497" lon="5.56738">
        <ele>801.7</ele>
        <time>2021-09-07T08:09:25Z</time>
      </trkpt>
      <trkpt lat="44.50496" lon="5.56738">
        <ele>801.7</ele>
        <time>2021-09-07T08:09:26Z</time>
      </trkpt>
      <trkpt lat="44.50496" lon="5.56738">
        <ele>801.7</ele>
        <time>2021-09-07T08:09:27Z</time>
      </trkpt>
      <trkpt lat="44.50496" lon="5.56738">
        <ele>801.7</ele>
        <time>2021-09-07T08:09:28Z</time>
      </trkpt>
      <trkpt lat="44.50496" lon="5.56738">
        <ele>801.7</ele>
        <time>2021-09-07T08:09:29Z</time>
      </trkpt>
      <trkpt lat="44.50496" lon="5.56738">
        <ele>801.7</ele>
        <time>2021-09-07T08:09:30Z</time>
      </trkpt>
      <trkpt lat="44.50495" lon="5.56737">
        <ele>801.7</ele>
        <time>2021-09-07T08:09:31Z</time>
      </trkpt>
      <trkpt lat="44.50495" lon="5.56737">
        <ele>801.7</ele>
        <time>2021-09-07T08:09:32Z</time>
      </trkpt>
      <trkpt lat="44.50495" lon="5.56737">
        <ele>801.7</ele>
        <time>2021-09-07T08:09:33Z</time>
      </trkpt>
      <trkpt lat="44.50495" lon="5.56737">
        <ele>801.7</ele>
        <time>2021-09-07T08:09:34Z</time>
      </trkpt>
      <trkpt lat="44.50495" lon="5.56737">
        <ele>801.8</ele>
        <time>2021-09-07T08:09:35Z</time>
      </trkpt>
      <trkpt lat="44.50494" lon="5.56737">
        <ele>801.8</ele>
        <time>2021-09-07T08:09:36Z</time>
      </trkpt>
      <trkpt lat="44.50494" lon="5.56737">
        <ele>801.8</ele>
        <time>2021-09-07T08:09:37Z</time>
      </trkpt>
      <trkpt lat="44.50494" lon="5.56737">
        <ele>801.8</ele>
        <time>2021-09-07T08:09:38Z</time>
      </trkpt>
      <trkpt lat="44.50494" lon="5.56737">
        <ele>801.8</ele>
        <time>2021-09-07T08:09:39Z</time>
      </trkpt>
      <trkpt lat="44.50494" lon="5.56737">
        <ele>801.8</ele>
        <time>2021-09-07T08:09:40Z</time>
      </trkpt>
      <trkpt lat="44.50493" lon="5.56737">
        <ele>801.8</ele>
        <time>2021-09-07T08:09:41Z</time>
      </trkpt>
      <trkpt lat="44.50493" lon="5.56737">
        <ele>801.8</ele>
        <time>2021-09-07T08:09:42Z</time>
      </trkpt>
      <trkpt lat="44.50493" lon="5.56737">
        <ele>801.8</ele>
        <time>2021-09-07T08:09:43Z</time>
      </trkpt>
      <trkpt lat="44.50493" lon="5.56737">
        <ele>801.8</ele>
        <time>2021-09-07T08:09:44Z</time>
      </trkpt>
      <trkpt lat="44.50493" lon="5.56737">
        <ele>801.8</ele>
        <time>2021-09-07T08:09:45Z</time>
      </trkpt>
      <trkpt lat="44.50492" lon="5.56737">
        <ele>801.8</ele>
        <time>2021-09-07T08:09:46Z</time>
      </trkpt>
      <trkpt lat="44.50492" lon="5.56736">
        <ele>801.8</ele>
        <time>2021-09-07T08:09:47Z</time>
      </trkpt>
      <trkpt lat="44.50492" lon="5.56736">
        <ele>801.8</ele>
        <time>2021-09-07T08:09:48Z</time>
      </trkpt>
      <trkpt lat="44.50492" lon="5.56736">
        <ele>801.8</ele>
        <time>2021-09-07T08:09:49Z</time>
      </trkpt>
      <trkpt lat="44.50492" lon="5.56736">
        <ele>801.8</ele>
        <time>2021-09-07T08:09:50Z</time>
      </trkpt>
      <trkpt lat="44.50491" lon="5.56736">
        <ele>801.8</ele>
        <time>2021-09-07T08:09:51Z</time>
      </trkpt>
      <trkpt lat="44.50491" lon="5.56736">
        <ele>801.8</ele>
        <time>2021-09-07T08:09:52Z</time>
      </trkpt>
      <trkpt lat="44.50491" lon="5.56736">
        <ele>801.8</ele>
        <time>2021-09-07T08:09:53Z</time>
      </trkpt>
      <trkpt lat="44.50492" lon="5.56731">
        <ele>801.9</ele>
        <time>2021-09-07T08:09:54Z</time>
      </trkpt>
      <trkpt lat="44.50494" lon="5.56718">
        <ele>802.1</ele>
        <time>2021-09-07T08:09:55Z</time>
      </trkpt>
      <trkpt lat="44.50502" lon="5.56678">
        <ele>802.7</ele>
        <time>2021-09-07T08:09:56Z</time>
      </trkpt>
      <trkpt lat="44.50509" lon="5.56638">
        <ele>803.2</ele>
        <time>2021-09-07T08:09:57Z</time>
      </trkpt>
      <trkpt lat="44.50516" lon="5.56602">
        <ele>803.6</ele>
        <time>2021-09-07T08:09:58Z</time>
      </trkpt>
      <trkpt lat="44.50523" lon="5.56565">
        <ele>804</ele>
        <time>2021-09-07T08:09:59Z</time>
      </trkpt>
      <trkpt lat="44.50532" lon="5.56518">
        <ele>804.7</ele>
        <time>2021-09-07T08:10:00Z</time>
      </trkpt>
      <trkpt lat="44.50536" lon="5.56497">
        <ele>805.1</ele>
        <time>2021-09-07T08:10:01Z</time>
      </trkpt>
      <trkpt lat="44.50538" lon="5.56485">
        <ele>805.4</ele>
        <time>2021-09-07T08:10:02Z</time>
      </trkpt>
      <trkpt lat="44.50539" lon="5.56481">
        <ele>805.5</ele>
        <time>2021-09-07T08:10:03Z</time>
      </trkpt>
      <trkpt lat="44.5054" lon="5.56477">
        <ele>805.6</ele>
        <time>2021-09-07T08:10:04Z</time>
      </trkpt>
      <trkpt lat="44.50539" lon="5.56482">
        <ele>805.8</ele>
        <time>2021-09-07T08:10:05Z</time>
      </trkpt>
      <trkpt lat="44.50538" lon="5.56488">
        <ele>805.9</ele>
        <time>2021-09-07T08:10:06Z</time>
      </trkpt>
      <trkpt lat="44.50537" lon="5.56493">
        <ele>806</ele>
        <time>2021-09-07T08:10:07Z</time>
      </trkpt>
      <trkpt lat="44.50535" lon="5.56504">
        <ele>806.3</ele>
        <time>2021-09-07T08:10:08Z</time>
      </trkpt>
      <trkpt lat="44.50533" lon="5.56513">
        <ele>806.6</ele>
        <time>2021-09-07T08:10:09Z</time>
      </trkpt>
      <trkpt lat="44.50533" lon="5.56517">
        <ele>806.8</ele>
        <time>2021-09-07T08:10:10Z</time>
      </trkpt>
      <trkpt lat="44.50532" lon="5.56521">
        <ele>806.9</ele>
        <time>2021-09-07T08:10:11Z</time>
      </trkpt>
      <trkpt lat="44.50531" lon="5.56525">
        <ele>807</ele>
        <time>2021-09-07T08:10:12Z</time>
      </trkpt>
      <trkpt lat="44.5053" lon="5.56528">
        <ele>807.1</ele>
        <time>2021-09-07T08:10:13Z</time>
      </trkpt>
      <trkpt lat="44.5053" lon="5.56531">
        <ele>807.2</ele>
        <time>2021-09-07T08:10:14Z</time>
      </trkpt>
      <trkpt lat="44.5053" lon="5.56528">
        <ele>807.4</ele>
        <time>2021-09-07T08:10:15Z</time>
      </trkpt>
      <trkpt lat="44.50531" lon="5.56523">
        <ele>807.5</ele>
        <time>2021-09-07T08:10:16Z</time>
      </trkpt>
      <trkpt lat="44.50531" lon="5.56519">
        <ele>807.7</ele>
        <time>2021-09-07T08:10:17Z</time>
      </trkpt>
      <trkpt lat="44.50532" lon="5.56515">
        <ele>807.9</ele>
        <time>2021-09-07T08:10:18Z</time>
      </trkpt>
      <trkpt lat="44.50533" lon="5.56511">
        <ele>808</ele>
        <time>2021-09-07T08:10:19Z</time>
      </trkpt>
      <trkpt lat="44.50534" lon="5.56506">
        <ele>808.2</ele>
        <time>2021-09-07T08:10:20Z</time>
      </trkpt>
      <trkpt lat="44.50535" lon="5.56502">
        <ele>808.3</ele>
        <time>2021-09-07T08:10:21Z</time>
      </trkpt>
      <trkpt lat="44.50542" lon="5.5647">
        <ele>809.3</ele>
        <time>2021-09-07T08:10:22Z</time>
      </trkpt>
      <trkpt lat="44.50548" lon="5.56444">
        <ele>809.8</ele>
        <time>2021-09-07T08:10:23Z</time>
      </trkpt>
      <trkpt lat="44.50549" lon="5.56438">
        <ele>810</ele>
        <time>2021-09-07T08:10:24Z</time>
      </trkpt>
      <trkpt lat="44.5055" lon="5.56437">
        <ele>810</ele>
        <time>2021-09-07T08:10:25Z</time>
      </trkpt>
      <trkpt lat="44.5055" lon="5.56436">
        <ele>810</ele>
        <time>2021-09-07T08:10:26Z</time>
      </trkpt>
      <trkpt lat="44.5055" lon="5.56435">
        <ele>810</ele>
        <time>2021-09-07T08:10:27Z</time>
      </trkpt>
      <trkpt lat="44.50551" lon="5.56434">
        <ele>810.1</ele>
        <time>2021-09-07T08:10:28Z</time>
      </trkpt>
      <trkpt lat="44.50551" lon="5.56432">
        <ele>810.1</ele>
        <time>2021-09-07T08:10:29Z</time>
      </trkpt>
      <trkpt lat="44.50552" lon="5.5643">
        <ele>810.2</ele>
        <time>2021-09-07T08:10:30Z</time>
      </trkpt>
      <trkpt lat="44.50552" lon="5.56428">
        <ele>810.2</ele>
        <time>2021-09-07T08:10:31Z</time>
      </trkpt>
      <trkpt lat="44.50551" lon="5.56426">
        <ele>810.3</ele>
        <time>2021-09-07T08:10:32Z</time>
      </trkpt>
      <trkpt lat="44.50551" lon="5.56425">
        <ele>810.2</ele>
        <time>2021-09-07T08:10:33Z</time>
      </trkpt>
      <trkpt lat="44.5055" lon="5.56423">
        <ele>809.9</ele>
        <time>2021-09-07T08:10:34Z</time>
      </trkpt>
      <trkpt lat="44.5055" lon="5.56422">
        <ele>810</ele>
        <time>2021-09-07T08:10:35Z</time>
      </trkpt>
      <trkpt lat="44.50549" lon="5.5642">
        <ele>810</ele>
        <time>2021-09-07T08:10:36Z</time>
      </trkpt>
      <trkpt lat="44.50549" lon="5.56419">
        <ele>809.9</ele>
        <time>2021-09-07T08:10:37Z</time>
      </trkpt>
      <trkpt lat="44.50548" lon="5.56417">
        <ele>810.1</ele>
        <time>2021-09-07T08:10:38Z</time>
      </trkpt>
      <trkpt lat="44.50548" lon="5.56416">
        <ele>810.1</ele>
        <time>2021-09-07T08:10:39Z</time>
      </trkpt>
      <trkpt lat="44.50548" lon="5.56415">
        <ele>810.3</ele>
        <time>2021-09-07T08:10:40Z</time>
      </trkpt>
      <trkpt lat="44.50547" lon="5.56413">
        <ele>810</ele>
        <time>2021-09-07T08:10:41Z</time>
      </trkpt>
      <trkpt lat="44.50547" lon="5.56412">
        <ele>809.9</ele>
        <time>2021-09-07T08:10:42Z</time>
      </trkpt>
      <trkpt lat="44.50546" lon="5.5641">
        <ele>810.2</ele>
        <time>2021-09-07T08:10:43Z</time>
      </trkpt>
      <trkpt lat="44.50546" lon="5.56409">
        <ele>810.1</ele>
        <time>2021-09-07T08:10:44Z</time>
      </trkpt>
      <trkpt lat="44.50545" lon="5.56407">
        <ele>810.1</ele>
        <time>2021-09-07T08:10:45Z</time>
      </trkpt>
      <trkpt lat="44.50545" lon="5.56406">
        <ele>810.4</ele>
        <time>2021-09-07T08:10:46Z</time>
      </trkpt>
      <trkpt lat="44.50544" lon="5.56404">
        <ele>810.3</ele>
        <time>2021-09-07T08:10:47Z</time>
      </trkpt>
      <trkpt lat="44.50544" lon="5.56403">
        <ele>810</ele>
        <time>2021-09-07T08:10:48Z</time>
      </trkpt>
      <trkpt lat="44.50544" lon="5.56402">
        <ele>810.4</ele>
        <time>2021-09-07T08:10:49Z</time>
      </trkpt>
      <trkpt lat="44.50543" lon="5.564">
        <ele>810.4</ele>
        <time>2021-09-07T08:10:50Z</time>
      </trkpt>
      <trkpt lat="44.50543" lon="5.56399">
        <ele>810.3</ele>
        <time>2021-09-07T08:10:51Z</time>
      </trkpt>
      <trkpt lat="44.50542" lon="5.56397">
        <ele>810.8</ele>
        <time>2021-09-07T08:10:52Z</time>
      </trkpt>
      <trkpt lat="44.50542" lon="5.56396">
        <ele>810.7</ele>
        <time>2021-09-07T08:10:53Z</time>
      </trkpt>
      <trkpt lat="44.50541" lon="5.56394">
        <ele>810.5</ele>
        <time>2021-09-07T08:10:54Z</time>
      </trkpt>
      <trkpt lat="44.50541" lon="5.56393">
        <ele>811</ele>
        <time>2021-09-07T08:10:55Z</time>
      </trkpt>
      <trkpt lat="44.5054" lon="5.56391">
        <ele>811</ele>
        <time>2021-09-07T08:10:56Z</time>
      </trkpt>
      <trkpt lat="44.5054" lon="5.5639">
        <ele>810.9</ele>
        <time>2021-09-07T08:10:57Z</time>
      </trkpt>
      <trkpt lat="44.50539" lon="5.56389">
        <ele>811.5</ele>
        <time>2021-09-07T08:10:58Z</time>
      </trkpt>
      <trkpt lat="44.50539" lon="5.56387">
        <ele>811.4</ele>
        <time>2021-09-07T08:10:59Z</time>
      </trkpt>
      <trkpt lat="44.50539" lon="5.56386">
        <ele>811.4</ele>
        <time>2021-09-07T08:11:00Z</time>
      </trkpt>
      <trkpt lat="44.50538" lon="5.56384">
        <ele>811.8</ele>
        <time>2021-09-07T08:11:01Z</time>
      </trkpt>
      <trkpt lat="44.50538" lon="5.56383">
        <ele>811.7</ele>
        <time>2021-09-07T08:11:02Z</time>
      </trkpt>
      <trkpt lat="44.50537" lon="5.56381">
        <ele>811.7</ele>
        <time>2021-09-07T08:11:03Z</time>
      </trkpt>
      <trkpt lat="44.50537" lon="5.5638">
        <ele>812.3</ele>
        <time>2021-09-07T08:11:04Z</time>
      </trkpt>
      <trkpt lat="44.50536" lon="5.56378">
        <ele>812.3</ele>
        <time>2021-09-07T08:11:05Z</time>
      </trkpt>
      <trkpt lat="44.50536" lon="5.56377">
        <ele>812.2</ele>
        <time>2021-09-07T08:11:06Z</time>
      </trkpt>
      <trkpt lat="44.50535" lon="5.56376">
        <ele>812.8</ele>
        <time>2021-09-07T08:11:07Z</time>
      </trkpt>
      <trkpt lat="44.50535" lon="5.56374">
        <ele>812.5</ele>
        <time>2021-09-07T08:11:08Z</time>
      </trkpt>
      <trkpt lat="44.50535" lon="5.56373">
        <ele>812.5</ele>
        <time>2021-09-07T08:11:09Z</time>
      </trkpt>
      <trkpt lat="44.50534" lon="5.56371">
        <ele>813</ele>
        <time>2021-09-07T08:11:10Z</time>
      </trkpt>
      <trkpt lat="44.50534" lon="5.5637">
        <ele>813</ele>
        <time>2021-09-07T08:11:11Z</time>
      </trkpt>
      <trkpt lat="44.50533" lon="5.56368">
        <ele>812.9</ele>
        <time>2021-09-07T08:11:12Z</time>
      </trkpt>
      <trkpt lat="44.50533" lon="5.56367">
        <ele>813.5</ele>
        <time>2021-09-07T08:11:13Z</time>
      </trkpt>
      <trkpt lat="44.50532" lon="5.56365">
        <ele>813.4</ele>
        <time>2021-09-07T08:11:14Z</time>
      </trkpt>
      <trkpt lat="44.50532" lon="5.56364">
        <ele>813.2</ele>
        <time>2021-09-07T08:11:15Z</time>
      </trkpt>
      <trkpt lat="44.50531" lon="5.56363">
        <ele>813.7</ele>
        <time>2021-09-07T08:11:16Z</time>
      </trkpt>
      <trkpt lat="44.50531" lon="5.56361">
        <ele>813.7</ele>
        <time>2021-09-07T08:11:17Z</time>
      </trkpt>
      <trkpt lat="44.50531" lon="5.5636">
        <ele>813.6</ele>
        <time>2021-09-07T08:11:18Z</time>
      </trkpt>
      <trkpt lat="44.5053" lon="5.56358">
        <ele>814.2</ele>
        <time>2021-09-07T08:11:19Z</time>
      </trkpt>
      <trkpt lat="44.5053" lon="5.56357">
        <ele>814.1</ele>
        <time>2021-09-07T08:11:20Z</time>
      </trkpt>
      <trkpt lat="44.50529" lon="5.56355">
        <ele>814.1</ele>
        <time>2021-09-07T08:11:21Z</time>
      </trkpt>
      <trkpt lat="44.50529" lon="5.56354">
        <ele>814.4</ele>
        <time>2021-09-07T08:11:22Z</time>
      </trkpt>
      <trkpt lat="44.50528" lon="5.56352">
        <ele>814.4</ele>
        <time>2021-09-07T08:11:23Z</time>
      </trkpt>
      <trkpt lat="44.50528" lon="5.56351">
        <ele>814.3</ele>
        <time>2021-09-07T08:11:24Z</time>
      </trkpt>
      <trkpt lat="44.50527" lon="5.5635">
        <ele>814.9</ele>
        <time>2021-09-07T08:11:25Z</time>
      </trkpt>
      <trkpt lat="44.50527" lon="5.56348">
        <ele>814.8</ele>
        <time>2021-09-07T08:11:26Z</time>
      </trkpt>
      <trkpt lat="44.50526" lon="5.56347">
        <ele>814.8</ele>
        <time>2021-09-07T08:11:27Z</time>
      </trkpt>
      <trkpt lat="44.50526" lon="5.56345">
        <ele>815.3</ele>
        <time>2021-09-07T08:11:28Z</time>
      </trkpt>
      <trkpt lat="44.50526" lon="5.56344">
        <ele>815.1</ele>
        <time>2021-09-07T08:11:29Z</time>
      </trkpt>
      <trkpt lat="44.50525" lon="5.56342">
        <ele>815.1</ele>
        <time>2021-09-07T08:11:30Z</time>
      </trkpt>
      <trkpt lat="44.50525" lon="5.56341">
        <ele>815.6</ele>
        <time>2021-09-07T08:11:31Z</time>
      </trkpt>
      <trkpt lat="44.50524" lon="5.56339">
        <ele>815.5</ele>
        <time>2021-09-07T08:11:32Z</time>
      </trkpt>
      <trkpt lat="44.50524" lon="5.56338">
        <ele>815.5</ele>
        <time>2021-09-07T08:11:33Z</time>
      </trkpt>
      <trkpt lat="44.50523" lon="5.56337">
        <ele>816</ele>
        <time>2021-09-07T08:11:34Z</time>
      </trkpt>
      <trkpt lat="44.50523" lon="5.56335">
        <ele>815.8</ele>
        <time>2021-09-07T08:11:35Z</time>
      </trkpt>
      <trkpt lat="44.50522" lon="5.56334">
        <ele>815.7</ele>
        <time>2021-09-07T08:11:36Z</time>
      </trkpt>
      <trkpt lat="44.50522" lon="5.56332">
        <ele>816.2</ele>
        <time>2021-09-07T08:11:37Z</time>
      </trkpt>
      <trkpt lat="44.50522" lon="5.56331">
        <ele>816.2</ele>
        <time>2021-09-07T08:11:38Z</time>
      </trkpt>
      <trkpt lat="44.50495" lon="5.56278">
        <ele>821.4</ele>
        <time>2021-09-07T08:11:39Z</time>
      </trkpt>
      <trkpt lat="44.50494" lon="5.56276">
        <ele>821.8</ele>
        <time>2021-09-07T08:11:40Z</time>
      </trkpt>
      <trkpt lat="44.50494" lon="5.56276">
        <ele>821.8</ele>
        <time>2021-09-07T08:11:41Z</time>
      </trkpt>
      <trkpt lat="44.50494" lon="5.56277">
        <ele>821.8</ele>
        <time>2021-09-07T08:11:42Z</time>
      </trkpt>
      <trkpt lat="44.50494" lon="5.56277">
        <ele>821.7</ele>
        <time>2021-09-07T08:11:43Z</time>
      </trkpt>
      <trkpt lat="44.50494" lon="5.56278">
        <ele>821.2</ele>
        <time>2021-09-07T08:11:44Z</time>
      </trkpt>
      <trkpt lat="44.50495" lon="5.56279">
        <ele>821.1</ele>
        <time>2021-09-07T08:11:45Z</time>
      </trkpt>
      <trkpt lat="44.50495" lon="5.5628">
        <ele>821.1</ele>
        <time>2021-09-07T08:11:46Z</time>
      </trkpt>
      <trkpt lat="44.50495" lon="5.56281">
        <ele>821</ele>
        <time>2021-09-07T08:11:47Z</time>
      </trkpt>
      <trkpt lat="44.50495" lon="5.56281">
        <ele>821</ele>
        <time>2021-09-07T08:11:48Z</time>
      </trkpt>
      <trkpt lat="44.50495" lon="5.56282">
        <ele>820.4</ele>
        <time>2021-09-07T08:11:49Z</time>
      </trkpt>
      <trkpt lat="44.50496" lon="5.56284">
        <ele>820.5</ele>
        <time>2021-09-07T08:11:50Z</time>
      </trkpt>
      <trkpt lat="44.50497" lon="5.56285">
        <ele>820.5</ele>
        <time>2021-09-07T08:11:51Z</time>
      </trkpt>
      <trkpt lat="44.50497" lon="5.56286">
        <ele>819.9</ele>
        <time>2021-09-07T08:11:52Z</time>
      </trkpt>
      <trkpt lat="44.50499" lon="5.56289">
        <ele>820</ele>
        <time>2021-09-07T08:11:53Z</time>
      </trkpt>
      <trkpt lat="44.505" lon="5.56291">
        <ele>819.4</ele>
        <time>2021-09-07T08:11:54Z</time>
      </trkpt>
      <trkpt lat="44.50501" lon="5.56294">
        <ele>819.4</ele>
        <time>2021-09-07T08:11:55Z</time>
      </trkpt>
      <trkpt lat="44.50502" lon="5.56296">
        <ele>818.9</ele>
        <time>2021-09-07T08:11:56Z</time>
      </trkpt>
      <trkpt lat="44.50504" lon="5.563">
        <ele>818.2</ele>
        <time>2021-09-07T08:11:57Z</time>
      </trkpt>
      <trkpt lat="44.50506" lon="5.56302">
        <ele>818.3</ele>
        <time>2021-09-07T08:11:58Z</time>
      </trkpt>
      <trkpt lat="44.50507" lon="5.56304">
        <ele>817.6</ele>
        <time>2021-09-07T08:11:59Z</time>
      </trkpt>
      <trkpt lat="44.50511" lon="5.5631">
        <ele>817.2</ele>
        <time>2021-09-07T08:12:00Z</time>
      </trkpt>
      <trkpt lat="44.50512" lon="5.56312">
        <ele>816.7</ele>
        <time>2021-09-07T08:12:01Z</time>
      </trkpt>
      <trkpt lat="44.50513" lon="5.56314">
        <ele>816.6</ele>
        <time>2021-09-07T08:12:02Z</time>
      </trkpt>
      <trkpt lat="44.50516" lon="5.56317">
        <ele>816.2</ele>
        <time>2021-09-07T08:12:03Z</time>
      </trkpt>
      <trkpt lat="44.50517" lon="5.56319">
        <ele>816.3</ele>
        <time>2021-09-07T08:12:04Z</time>
      </trkpt>
      <trkpt lat="44.50518" lon="5.5632">
        <ele>816.2</ele>
        <time>2021-09-07T08:12:05Z</time>
      </trkpt>
      <trkpt lat="44.50519" lon="5.56321">
        <ele>815.7</ele>
        <time>2021-09-07T08:12:06Z</time>
      </trkpt>
      <trkpt lat="44.5052" lon="5.56322">
        <ele>815.8</ele>
        <time>2021-09-07T08:12:07Z</time>
      </trkpt>
      <trkpt lat="44.50522" lon="5.56322">
        <ele>815.8</ele>
        <time>2021-09-07T08:12:08Z</time>
      </trkpt>
      <trkpt lat="44.50523" lon="5.56322">
        <ele>815.9</ele>
        <time>2021-09-07T08:12:09Z</time>
      </trkpt>
      <trkpt lat="44.50525" lon="5.56322">
        <ele>815.8</ele>
        <time>2021-09-07T08:12:10Z</time>
      </trkpt>
      <trkpt lat="44.50526" lon="5.56322">
        <ele>815.9</ele>
        <time>2021-09-07T08:12:11Z</time>
      </trkpt>
      <trkpt lat="44.50527" lon="5.56322">
        <ele>815.8</ele>
        <time>2021-09-07T08:12:12Z</time>
      </trkpt>
      <trkpt lat="44.5053" lon="5.56321">
        <ele>815.9</ele>
        <time>2021-09-07T08:12:13Z</time>
      </trkpt>
      <trkpt lat="44.50532" lon="5.56321">
        <ele>815.8</ele>
        <time>2021-09-07T08:12:14Z</time>
      </trkpt>
      <trkpt lat="44.50533" lon="5.5632">
        <ele>816.3</ele>
        <time>2021-09-07T08:12:15Z</time>
      </trkpt>
      <trkpt lat="44.50535" lon="5.56319">
        <ele>816.2</ele>
        <time>2021-09-07T08:12:16Z</time>
      </trkpt>
      <trkpt lat="44.50537" lon="5.56318">
        <ele>816.3</ele>
        <time>2021-09-07T08:12:17Z</time>
      </trkpt>
      <trkpt lat="44.50538" lon="5.56317">
        <ele>816.2</ele>
        <time>2021-09-07T08:12:18Z</time>
      </trkpt>
      <trkpt lat="44.5054" lon="5.56317">
        <ele>816.2</ele>
        <time>2021-09-07T08:12:19Z</time>
      </trkpt>
      <trkpt lat="44.50541" lon="5.56316">
        <ele>816.2</ele>
        <time>2021-09-07T08:12:20Z</time>
      </trkpt>
      <trkpt lat="44.50543" lon="5.56315">
        <ele>816.6</ele>
        <time>2021-09-07T08:12:21Z</time>
      </trkpt>
      <trkpt lat="44.50545" lon="5.56314">
        <ele>816.5</ele>
        <time>2021-09-07T08:12:22Z</time>
      </trkpt>
      <trkpt lat="44.50547" lon="5.56313">
        <ele>816.5</ele>
        <time>2021-09-07T08:12:23Z</time>
      </trkpt>
      <trkpt lat="44.50548" lon="5.56313">
        <ele>816.4</ele>
        <time>2021-09-07T08:12:24Z</time>
      </trkpt>
      <trkpt lat="44.50548" lon="5.56313">
        <ele>816.4</ele>
        <time>2021-09-07T08:12:25Z</time>
      </trkpt>
      <trkpt lat="44.50549" lon="5.56312">
        <ele>816.3</ele>
        <time>2021-09-07T08:12:26Z</time>
      </trkpt>
      <trkpt lat="44.5055" lon="5.56312">
        <ele>816.7</ele>
        <time>2021-09-07T08:12:27Z</time>
      </trkpt>
      <trkpt lat="44.50551" lon="5.56311">
        <ele>816.6</ele>
        <time>2021-09-07T08:12:28Z</time>
      </trkpt>
      <trkpt lat="44.50552" lon="5.56311">
        <ele>816.6</ele>
        <time>2021-09-07T08:12:29Z</time>
      </trkpt>
      <trkpt lat="44.50553" lon="5.5631">
        <ele>816.5</ele>
        <time>2021-09-07T08:12:30Z</time>
      </trkpt>
      <trkpt lat="44.50554" lon="5.56309">
        <ele>816.4</ele>
        <time>2021-09-07T08:12:31Z</time>
      </trkpt>
      <trkpt lat="44.50555" lon="5.56308">
        <ele>816.4</ele>
        <time>2021-09-07T08:12:32Z</time>
      </trkpt>
      <trkpt lat="44.50556" lon="5.56308">
        <ele>816.4</ele>
        <time>2021-09-07T08:12:33Z</time>
      </trkpt>
      <trkpt lat="44.50557" lon="5.56307">
        <ele>816.6</ele>
        <time>2021-09-07T08:12:34Z</time>
      </trkpt>
      <trkpt lat="44.50558" lon="5.56306">
        <ele>816.6</ele>
        <time>2021-09-07T08:12:35Z</time>
      </trkpt>
      <trkpt lat="44.50559" lon="5.56305">
        <ele>816.5</ele>
        <time>2021-09-07T08:12:36Z</time>
      </trkpt>
      <trkpt lat="44.50559" lon="5.56304">
        <ele>816.5</ele>
        <time>2021-09-07T08:12:37Z</time>
      </trkpt>
      <trkpt lat="44.5056" lon="5.56304">
        <ele>816.5</ele>
        <time>2021-09-07T08:12:38Z</time>
      </trkpt>
      <trkpt lat="44.5056" lon="5.56303">
        <ele>816.7</ele>
        <time>2021-09-07T08:12:39Z</time>
      </trkpt>
      <trkpt lat="44.50561" lon="5.56302">
        <ele>816.7</ele>
        <time>2021-09-07T08:12:40Z</time>
      </trkpt>
      <trkpt lat="44.50562" lon="5.56301">
        <ele>816.6</ele>
        <time>2021-09-07T08:12:41Z</time>
      </trkpt>
      <trkpt lat="44.50559" lon="5.56297">
        <ele>817.1</ele>
        <time>2021-09-07T08:12:42Z</time>
      </trkpt>
      <trkpt lat="44.50556" lon="5.56292">
        <ele>817.6</ele>
        <time>2021-09-07T08:12:43Z</time>
      </trkpt>
      <trkpt lat="44.50529" lon="5.56261">
        <ele>821.6</ele>
        <time>2021-09-07T08:12:44Z</time>
      </trkpt>
      <trkpt lat="44.50502" lon="5.5623">
        <ele>825.5</ele>
        <time>2021-09-07T08:12:45Z</time>
      </trkpt>
      <trkpt lat="44.50493" lon="5.5622">
        <ele>825.9</ele>
        <time>2021-09-07T08:12:46Z</time>
      </trkpt>
      <trkpt lat="44.5049" lon="5.56216">
        <ele>826.1</ele>
        <time>2021-09-07T08:12:47Z</time>
      </trkpt>
      <trkpt lat="44.50486" lon="5.56212">
        <ele>826.2</ele>
        <time>2021-09-07T08:12:48Z</time>
      </trkpt>
      <trkpt lat="44.50484" lon="5.56208">
        <ele>826.4</ele>
        <time>2021-09-07T08:12:49Z</time>
      </trkpt>
      <trkpt lat="44.50483" lon="5.56207">
        <ele>826.4</ele>
        <time>2021-09-07T08:12:50Z</time>
      </trkpt>
      <trkpt lat="44.50482" lon="5.56205">
        <ele>826.5</ele>
        <time>2021-09-07T08:12:51Z</time>
      </trkpt>
      <trkpt lat="44.50482" lon="5.56203">
        <ele>826.5</ele>
        <time>2021-09-07T08:12:52Z</time>
      </trkpt>
      <trkpt lat="44.50481" lon="5.56201">
        <ele>826.6</ele>
        <time>2021-09-07T08:12:53Z</time>
      </trkpt>
      <trkpt lat="44.50479" lon="5.56198">
        <ele>826.7</ele>
        <time>2021-09-07T08:12:54Z</time>
      </trkpt>
      <trkpt lat="44.50478" lon="5.56196">
        <ele>826.8</ele>
        <time>2021-09-07T08:12:55Z</time>
      </trkpt>
      <trkpt lat="44.50476" lon="5.56194">
        <ele>826.9</ele>
        <time>2021-09-07T08:12:56Z</time>
      </trkpt>
      <trkpt lat="44.50475" lon="5.56192">
        <ele>827</ele>
        <time>2021-09-07T08:12:57Z</time>
      </trkpt>
      <trkpt lat="44.50473" lon="5.5619">
        <ele>827</ele>
        <time>2021-09-07T08:12:58Z</time>
      </trkpt>
      <trkpt lat="44.50471" lon="5.56188">
        <ele>827.1</ele>
        <time>2021-09-07T08:12:59Z</time>
      </trkpt>
      <trkpt lat="44.5047" lon="5.56187">
        <ele>827.2</ele>
        <time>2021-09-07T08:13:00Z</time>
      </trkpt>
      <trkpt lat="44.50468" lon="5.56185">
        <ele>827.3</ele>
        <time>2021-09-07T08:13:01Z</time>
      </trkpt>
      <trkpt lat="44.50465" lon="5.56183">
        <ele>827.4</ele>
        <time>2021-09-07T08:13:02Z</time>
      </trkpt>
      <trkpt lat="44.50461" lon="5.5618">
        <ele>827.6</ele>
        <time>2021-09-07T08:13:03Z</time>
      </trkpt>
      <trkpt lat="44.50457" lon="5.56176">
        <ele>827.8</ele>
        <time>2021-09-07T08:13:04Z</time>
      </trkpt>
      <trkpt lat="44.50454" lon="5.56174">
        <ele>827.9</ele>
        <time>2021-09-07T08:13:05Z</time>
      </trkpt>
      <trkpt lat="44.50451" lon="5.56171">
        <ele>828.1</ele>
        <time>2021-09-07T08:13:06Z</time>
      </trkpt>
      <trkpt lat="44.50448" lon="5.56168">
        <ele>828.3</ele>
        <time>2021-09-07T08:13:07Z</time>
      </trkpt>
      <trkpt lat="44.50445" lon="5.56164">
        <ele>828.4</ele>
        <time>2021-09-07T08:13:08Z</time>
      </trkpt>
      <trkpt lat="44.50442" lon="5.56159">
        <ele>828.6</ele>
        <time>2021-09-07T08:13:09Z</time>
      </trkpt>
      <trkpt lat="44.50439" lon="5.56153">
        <ele>828.9</ele>
        <time>2021-09-07T08:13:10Z</time>
      </trkpt>
      <trkpt lat="44.50438" lon="5.5615">
        <ele>829</ele>
        <time>2021-09-07T08:13:11Z</time>
      </trkpt>
      <trkpt lat="44.50436" lon="5.56147">
        <ele>829.1</ele>
        <time>2021-09-07T08:13:12Z</time>
      </trkpt>
      <trkpt lat="44.50435" lon="5.56145">
        <ele>829.2</ele>
        <time>2021-09-07T08:13:13Z</time>
      </trkpt>
      <trkpt lat="44.50434" lon="5.56142">
        <ele>829.2</ele>
        <time>2021-09-07T08:13:14Z</time>
      </trkpt>
      <trkpt lat="44.50432" lon="5.5614">
        <ele>829.4</ele>
        <time>2021-09-07T08:13:15Z</time>
      </trkpt>
      <trkpt lat="44.50431" lon="5.56138">
        <ele>829.4</ele>
        <time>2021-09-07T08:13:16Z</time>
      </trkpt>
      <trkpt lat="44.50431" lon="5.56137">
        <ele>829.5</ele>
        <time>2021-09-07T08:13:17Z</time>
      </trkpt>
      <trkpt lat="44.5043" lon="5.56135">
        <ele>829.5</ele>
        <time>2021-09-07T08:13:18Z</time>
      </trkpt>
      <trkpt lat="44.5043" lon="5.56134">
        <ele>829.6</ele>
        <time>2021-09-07T08:13:19Z</time>
      </trkpt>
      <trkpt lat="44.50429" lon="5.56132">
        <ele>829.6</ele>
        <time>2021-09-07T08:13:20Z</time>
      </trkpt>
      <trkpt lat="44.50429" lon="5.5613">
        <ele>829.7</ele>
        <time>2021-09-07T08:13:21Z</time>
      </trkpt>
      <trkpt lat="44.5043" lon="5.56129">
        <ele>829.7</ele>
        <time>2021-09-07T08:13:22Z</time>
      </trkpt>
      <trkpt lat="44.5043" lon="5.56127">
        <ele>829.8</ele>
        <time>2021-09-07T08:13:23Z</time>
      </trkpt>
      <trkpt lat="44.50431" lon="5.56125">
        <ele>829.9</ele>
        <time>2021-09-07T08:13:24Z</time>
      </trkpt>
      <trkpt lat="44.50432" lon="5.56122">
        <ele>830</ele>
        <time>2021-09-07T08:13:25Z</time>
      </trkpt>
      <trkpt lat="44.50433" lon="5.56121">
        <ele>830</ele>
        <time>2021-09-07T08:13:26Z</time>
      </trkpt>
      <trkpt lat="44.50434" lon="5.56119">
        <ele>830.1</ele>
        <time>2021-09-07T08:13:27Z</time>
      </trkpt>
      <trkpt lat="44.50436" lon="5.56117">
        <ele>830.2</ele>
        <time>2021-09-07T08:13:28Z</time>
      </trkpt>
      <trkpt lat="44.50437" lon="5.56115">
        <ele>830.3</ele>
        <time>2021-09-07T08:13:29Z</time>
      </trkpt>
      <trkpt lat="44.5044" lon="5.56113">
        <ele>830.4</ele>
        <time>2021-09-07T08:13:30Z</time>
      </trkpt>
      <trkpt lat="44.50441" lon="5.56111">
        <ele>830.5</ele>
        <time>2021-09-07T08:13:31Z</time>
      </trkpt>
      <trkpt lat="44.50443" lon="5.5611">
        <ele>830.5</ele>
        <time>2021-09-07T08:13:32Z</time>
      </trkpt>
      <trkpt lat="44.50444" lon="5.56109">
        <ele>830.6</ele>
        <time>2021-09-07T08:13:33Z</time>
      </trkpt>
      <trkpt lat="44.50446" lon="5.56107">
        <ele>830.7</ele>
        <time>2021-09-07T08:13:34Z</time>
      </trkpt>
      <trkpt lat="44.50449" lon="5.56106">
        <ele>830.8</ele>
        <time>2021-09-07T08:13:35Z</time>
      </trkpt>
      <trkpt lat="44.50451" lon="5.56105">
        <ele>830.9</ele>
        <time>2021-09-07T08:13:36Z</time>
      </trkpt>
      <trkpt lat="44.50452" lon="5.56104">
        <ele>831</ele>
        <time>2021-09-07T08:13:37Z</time>
      </trkpt>
      <trkpt lat="44.50454" lon="5.56103">
        <ele>831.1</ele>
        <time>2021-09-07T08:13:38Z</time>
      </trkpt>
      <trkpt lat="44.50456" lon="5.56102">
        <ele>831.2</ele>
        <time>2021-09-07T08:13:39Z</time>
      </trkpt>
      <trkpt lat="44.50458" lon="5.56102">
        <ele>831.2</ele>
        <time>2021-09-07T08:13:40Z</time>
      </trkpt>
      <trkpt lat="44.5046" lon="5.56101">
        <ele>831.3</ele>
        <time>2021-09-07T08:13:41Z</time>
      </trkpt>
      <trkpt lat="44.50462" lon="5.561">
        <ele>831.4</ele>
        <time>2021-09-07T08:13:42Z</time>
      </trkpt>
      <trkpt lat="44.50463" lon="5.56099">
        <ele>831.5</ele>
        <time>2021-09-07T08:13:43Z</time>
      </trkpt>
      <trkpt lat="44.50466" lon="5.56098">
        <ele>831.6</ele>
        <time>2021-09-07T08:13:44Z</time>
      </trkpt>
      <trkpt lat="44.50468" lon="5.56097">
        <ele>831.7</ele>
        <time>2021-09-07T08:13:45Z</time>
      </trkpt>
      <trkpt lat="44.5047" lon="5.56097">
        <ele>831.7</ele>
        <time>2021-09-07T08:13:46Z</time>
      </trkpt>
      <trkpt lat="44.50471" lon="5.56096">
        <ele>831.8</ele>
        <time>2021-09-07T08:13:47Z</time>
      </trkpt>
      <trkpt lat="44.50473" lon="5.56096">
        <ele>831.9</ele>
        <time>2021-09-07T08:13:48Z</time>
      </trkpt>
      <trkpt lat="44.50474" lon="5.56095">
        <ele>831.9</ele>
        <time>2021-09-07T08:13:49Z</time>
      </trkpt>
      <trkpt lat="44.50476" lon="5.56094">
        <ele>832</ele>
        <time>2021-09-07T08:13:50Z</time>
      </trkpt>
      <trkpt lat="44.50483" lon="5.56087">
        <ele>832.4</ele>
        <time>2021-09-07T08:13:51Z</time>
      </trkpt>
      <trkpt lat="44.50486" lon="5.56085">
        <ele>832.5</ele>
        <time>2021-09-07T08:13:52Z</time>
      </trkpt>
      <trkpt lat="44.50489" lon="5.56082">
        <ele>832.6</ele>
        <time>2021-09-07T08:13:53Z</time>
      </trkpt>
      <trkpt lat="44.50491" lon="5.5608">
        <ele>832.7</ele>
        <time>2021-09-07T08:13:54Z</time>
      </trkpt>
      <trkpt lat="44.50493" lon="5.56078">
        <ele>832.8</ele>
        <time>2021-09-07T08:13:55Z</time>
      </trkpt>
      <trkpt lat="44.50495" lon="5.56076">
        <ele>832.9</ele>
        <time>2021-09-07T08:13:56Z</time>
      </trkpt>
      <trkpt lat="44.50496" lon="5.56074">
        <ele>833</ele>
        <time>2021-09-07T08:13:57Z</time>
      </trkpt>
      <trkpt lat="44.50497" lon="5.56072">
        <ele>833.1</ele>
        <time>2021-09-07T08:13:58Z</time>
      </trkpt>
      <trkpt lat="44.50498" lon="5.5607">
        <ele>833.2</ele>
        <time>2021-09-07T08:13:59Z</time>
      </trkpt>
      <trkpt lat="44.50499" lon="5.56069">
        <ele>833.2</ele>
        <time>2021-09-07T08:14:00Z</time>
      </trkpt>
      <trkpt lat="44.50499" lon="5.56068">
        <ele>833.2</ele>
        <time>2021-09-07T08:14:01Z</time>
      </trkpt>
      <trkpt lat="44.50499" lon="5.56066">
        <ele>833.3</ele>
        <time>2021-09-07T08:14:02Z</time>
      </trkpt>
      <trkpt lat="44.50499" lon="5.56064">
        <ele>833.3</ele>
        <time>2021-09-07T08:14:03Z</time>
      </trkpt>
      <trkpt lat="44.50499" lon="5.56063">
        <ele>833.4</ele>
        <time>2021-09-07T08:14:04Z</time>
      </trkpt>
      <trkpt lat="44.50499" lon="5.56061">
        <ele>833.4</ele>
        <time>2021-09-07T08:14:05Z</time>
      </trkpt>
      <trkpt lat="44.50499" lon="5.5606">
        <ele>833.5</ele>
        <time>2021-09-07T08:14:06Z</time>
      </trkpt>
      <trkpt lat="44.50499" lon="5.56058">
        <ele>833.5</ele>
        <time>2021-09-07T08:14:07Z</time>
      </trkpt>
      <trkpt lat="44.50499" lon="5.56056">
        <ele>833.6</ele>
        <time>2021-09-07T08:14:08Z</time>
      </trkpt>
      <trkpt lat="44.50499" lon="5.56054">
        <ele>833.6</ele>
        <time>2021-09-07T08:14:09Z</time>
      </trkpt>
      <trkpt lat="44.505" lon="5.56052">
        <ele>833.7</ele>
        <time>2021-09-07T08:14:10Z</time>
      </trkpt>
      <trkpt lat="44.505" lon="5.5605">
        <ele>833.8</ele>
        <time>2021-09-07T08:14:11Z</time>
      </trkpt>
      <trkpt lat="44.50501" lon="5.56046">
        <ele>833.9</ele>
        <time>2021-09-07T08:14:12Z</time>
      </trkpt>
      <trkpt lat="44.50503" lon="5.5604">
        <ele>834.1</ele>
        <time>2021-09-07T08:14:13Z</time>
      </trkpt>
      <trkpt lat="44.50504" lon="5.56038">
        <ele>834.2</ele>
        <time>2021-09-07T08:14:14Z</time>
      </trkpt>
      <trkpt lat="44.50505" lon="5.56036">
        <ele>834.2</ele>
        <time>2021-09-07T08:14:15Z</time>
      </trkpt>
      <trkpt lat="44.50506" lon="5.56033">
        <ele>834.3</ele>
        <time>2021-09-07T08:14:16Z</time>
      </trkpt>
      <trkpt lat="44.50507" lon="5.5603">
        <ele>834.4</ele>
        <time>2021-09-07T08:14:17Z</time>
      </trkpt>
      <trkpt lat="44.50508" lon="5.56025">
        <ele>834.6</ele>
        <time>2021-09-07T08:14:18Z</time>
      </trkpt>
      <trkpt lat="44.50509" lon="5.56019">
        <ele>834.8</ele>
        <time>2021-09-07T08:14:19Z</time>
      </trkpt>
      <trkpt lat="44.50511" lon="5.56008">
        <ele>835.9</ele>
        <time>2021-09-07T08:14:20Z</time>
      </trkpt>
      <trkpt lat="44.50512" lon="5.56005">
        <ele>836</ele>
        <time>2021-09-07T08:14:21Z</time>
      </trkpt>
      <trkpt lat="44.50514" lon="5.56001">
        <ele>836.1</ele>
        <time>2021-09-07T08:14:22Z</time>
      </trkpt>
      <trkpt lat="44.50515" lon="5.55998">
        <ele>836.3</ele>
        <time>2021-09-07T08:14:23Z</time>
      </trkpt>
      <trkpt lat="44.50516" lon="5.55997">
        <ele>836.3</ele>
        <time>2021-09-07T08:14:24Z</time>
      </trkpt>
      <trkpt lat="44.50516" lon="5.55995">
        <ele>836.4</ele>
        <time>2021-09-07T08:14:25Z</time>
      </trkpt>
      <trkpt lat="44.50516" lon="5.55993">
        <ele>836.4</ele>
        <time>2021-09-07T08:14:26Z</time>
      </trkpt>
      <trkpt lat="44.50515" lon="5.55991">
        <ele>836.5</ele>
        <time>2021-09-07T08:14:27Z</time>
      </trkpt>
      <trkpt lat="44.50515" lon="5.55989">
        <ele>836.6</ele>
        <time>2021-09-07T08:14:28Z</time>
      </trkpt>
      <trkpt lat="44.50514" lon="5.55986">
        <ele>836.7</ele>
        <time>2021-09-07T08:14:29Z</time>
      </trkpt>
      <trkpt lat="44.50512" lon="5.55983">
        <ele>836.8</ele>
        <time>2021-09-07T08:14:30Z</time>
      </trkpt>
      <trkpt lat="44.50511" lon="5.55981">
        <ele>836.9</ele>
        <time>2021-09-07T08:14:31Z</time>
      </trkpt>
      <trkpt lat="44.5051" lon="5.55978">
        <ele>836.9</ele>
        <time>2021-09-07T08:14:32Z</time>
      </trkpt>
      <trkpt lat="44.50509" lon="5.55975">
        <ele>837.1</ele>
        <time>2021-09-07T08:14:33Z</time>
      </trkpt>
      <trkpt lat="44.50507" lon="5.55971">
        <ele>837.2</ele>
        <time>2021-09-07T08:14:34Z</time>
      </trkpt>
      <trkpt lat="44.50505" lon="5.55965">
        <ele>837.4</ele>
        <time>2021-09-07T08:14:35Z</time>
      </trkpt>
      <trkpt lat="44.50504" lon="5.55962">
        <ele>837.5</ele>
        <time>2021-09-07T08:14:36Z</time>
      </trkpt>
      <trkpt lat="44.50504" lon="5.55961">
        <ele>837.5</ele>
        <time>2021-09-07T08:14:37Z</time>
      </trkpt>
      <trkpt lat="44.50503" lon="5.55959">
        <ele>837.6</ele>
        <time>2021-09-07T08:14:38Z</time>
      </trkpt>
      <trkpt lat="44.50503" lon="5.55956">
        <ele>837.7</ele>
        <time>2021-09-07T08:14:39Z</time>
      </trkpt>
      <trkpt lat="44.50504" lon="5.55954">
        <ele>837.7</ele>
        <time>2021-09-07T08:14:40Z</time>
      </trkpt>
      <trkpt lat="44.50504" lon="5.55951">
        <ele>837.8</ele>
        <time>2021-09-07T08:14:41Z</time>
      </trkpt>
      <trkpt lat="44.50504" lon="5.5595">
        <ele>837.9</ele>
        <time>2021-09-07T08:14:42Z</time>
      </trkpt>
      <trkpt lat="44.50504" lon="5.55949">
        <ele>837.9</ele>
        <time>2021-09-07T08:14:43Z</time>
      </trkpt>
      <trkpt lat="44.50504" lon="5.55948">
        <ele>837.9</ele>
        <time>2021-09-07T08:14:44Z</time>
      </trkpt>
      <trkpt lat="44.50504" lon="5.55946">
        <ele>838</ele>
        <time>2021-09-07T08:14:45Z</time>
      </trkpt>
      <trkpt lat="44.50503" lon="5.55943">
        <ele>838.1</ele>
        <time>2021-09-07T08:14:46Z</time>
      </trkpt>
      <trkpt lat="44.50501" lon="5.5594">
        <ele>838.2</ele>
        <time>2021-09-07T08:14:47Z</time>
      </trkpt>
      <trkpt lat="44.505" lon="5.55938">
        <ele>838.3</ele>
        <time>2021-09-07T08:14:48Z</time>
      </trkpt>
      <trkpt lat="44.50496" lon="5.55933">
        <ele>838.6</ele>
        <time>2021-09-07T08:14:49Z</time>
      </trkpt>
      <trkpt lat="44.50491" lon="5.55927">
        <ele>838.9</ele>
        <time>2021-09-07T08:14:50Z</time>
      </trkpt>
      <trkpt lat="44.5049" lon="5.55925">
        <ele>839</ele>
        <time>2021-09-07T08:14:51Z</time>
      </trkpt>
      <trkpt lat="44.50488" lon="5.55923">
        <ele>839.2</ele>
        <time>2021-09-07T08:14:52Z</time>
      </trkpt>
      <trkpt lat="44.50485" lon="5.55917">
        <ele>839.4</ele>
        <time>2021-09-07T08:14:53Z</time>
      </trkpt>
      <trkpt lat="44.50485" lon="5.55915">
        <ele>839.5</ele>
        <time>2021-09-07T08:14:54Z</time>
      </trkpt>
      <trkpt lat="44.50485" lon="5.55912">
        <ele>839.6</ele>
        <time>2021-09-07T08:14:55Z</time>
      </trkpt>
      <trkpt lat="44.50484" lon="5.55909">
        <ele>839.8</ele>
        <time>2021-09-07T08:14:56Z</time>
      </trkpt>
      <trkpt lat="44.50484" lon="5.55909">
        <ele>839.8</ele>
        <time>2021-09-07T08:14:57Z</time>
      </trkpt>
      <trkpt lat="44.50483" lon="5.55908">
        <ele>839.8</ele>
        <time>2021-09-07T08:14:58Z</time>
      </trkpt>
      <trkpt lat="44.50483" lon="5.55907">
        <ele>839.8</ele>
        <time>2021-09-07T08:14:59Z</time>
      </trkpt>
      <trkpt lat="44.50483" lon="5.55907">
        <ele>839.9</ele>
        <time>2021-09-07T08:15:00Z</time>
      </trkpt>
      <trkpt lat="44.50483" lon="5.55906">
        <ele>839.9</ele>
        <time>2021-09-07T08:15:01Z</time>
      </trkpt>
      <trkpt lat="44.50482" lon="5.55905">
        <ele>839.9</ele>
        <time>2021-09-07T08:15:02Z</time>
      </trkpt>
      <trkpt lat="44.50482" lon="5.55905">
        <ele>840</ele>
        <time>2021-09-07T08:15:03Z</time>
      </trkpt>
      <trkpt lat="44.50482" lon="5.55904">
        <ele>840</ele>
        <time>2021-09-07T08:15:04Z</time>
      </trkpt>
      <trkpt lat="44.50482" lon="5.55903">
        <ele>840</ele>
        <time>2021-09-07T08:15:05Z</time>
      </trkpt>
      <trkpt lat="44.50481" lon="5.55903">
        <ele>840</ele>
        <time>2021-09-07T08:15:06Z</time>
      </trkpt>
      <trkpt lat="44.50481" lon="5.55902">
        <ele>840.1</ele>
        <time>2021-09-07T08:15:07Z</time>
      </trkpt>
      <trkpt lat="44.50481" lon="5.55901">
        <ele>840.1</ele>
        <time>2021-09-07T08:15:08Z</time>
      </trkpt>
      <trkpt lat="44.50481" lon="5.55901">
        <ele>840.1</ele>
        <time>2021-09-07T08:15:09Z</time>
      </trkpt>
      <trkpt lat="44.5048" lon="5.559">
        <ele>840.2</ele>
        <time>2021-09-07T08:15:10Z</time>
      </trkpt>
      <trkpt lat="44.5048" lon="5.55899">
        <ele>840.2</ele>
        <time>2021-09-07T08:15:11Z</time>
      </trkpt>
      <trkpt lat="44.5048" lon="5.55899">
        <ele>840.2</ele>
        <time>2021-09-07T08:15:12Z</time>
      </trkpt>
      <trkpt lat="44.5048" lon="5.55898">
        <ele>840.2</ele>
        <time>2021-09-07T08:15:13Z</time>
      </trkpt>
      <trkpt lat="44.50479" lon="5.55897">
        <ele>840.3</ele>
        <time>2021-09-07T08:15:14Z</time>
      </trkpt>
      <trkpt lat="44.50479" lon="5.55897">
        <ele>840.3</ele>
        <time>2021-09-07T08:15:15Z</time>
      </trkpt>
      <trkpt lat="44.50479" lon="5.55896">
        <ele>840.3</ele>
        <time>2021-09-07T08:15:16Z</time>
      </trkpt>
      <trkpt lat="44.50479" lon="5.55895">
        <ele>840.4</ele>
        <time>2021-09-07T08:15:17Z</time>
      </trkpt>
      <trkpt lat="44.50478" lon="5.55895">
        <ele>840.4</ele>
        <time>2021-09-07T08:15:18Z</time>
      </trkpt>
      <trkpt lat="44.50478" lon="5.55894">
        <ele>840.4</ele>
        <time>2021-09-07T08:15:19Z</time>
      </trkpt>
      <trkpt lat="44.50478" lon="5.55893">
        <ele>840.4</ele>
        <time>2021-09-07T08:15:20Z</time>
      </trkpt>
      <trkpt lat="44.50478" lon="5.55893">
        <ele>840.5</ele>
        <time>2021-09-07T08:15:21Z</time>
      </trkpt>
      <trkpt lat="44.50478" lon="5.55886">
        <ele>840.7</ele>
        <time>2021-09-07T08:15:22Z</time>
      </trkpt>
      <trkpt lat="44.50476" lon="5.55859">
        <ele>841.7</ele>
        <time>2021-09-07T08:15:23Z</time>
      </trkpt>
      <trkpt lat="44.50474" lon="5.55831">
        <ele>842.8</ele>
        <time>2021-09-07T08:15:24Z</time>
      </trkpt>
      <trkpt lat="44.50472" lon="5.55826">
        <ele>843</ele>
        <time>2021-09-07T08:15:25Z</time>
      </trkpt>
      <trkpt lat="44.50469" lon="5.55821">
        <ele>843.3</ele>
        <time>2021-09-07T08:15:26Z</time>
      </trkpt>
      <trkpt lat="44.50468" lon="5.55819">
        <ele>843.4</ele>
        <time>2021-09-07T08:15:27Z</time>
      </trkpt>
      <trkpt lat="44.50469" lon="5.55816">
        <ele>843.5</ele>
        <time>2021-09-07T08:15:28Z</time>
      </trkpt>
      <trkpt lat="44.50469" lon="5.55812">
        <ele>843.7</ele>
        <time>2021-09-07T08:15:29Z</time>
      </trkpt>
      <trkpt lat="44.5047" lon="5.55808">
        <ele>843.8</ele>
        <time>2021-09-07T08:15:30Z</time>
      </trkpt>
      <trkpt lat="44.50471" lon="5.55807">
        <ele>843.9</ele>
        <time>2021-09-07T08:15:31Z</time>
      </trkpt>
      <trkpt lat="44.50471" lon="5.55806">
        <ele>843.9</ele>
        <time>2021-09-07T08:15:32Z</time>
      </trkpt>
      <trkpt lat="44.50473" lon="5.55804">
        <ele>844.1</ele>
        <time>2021-09-07T08:15:33Z</time>
      </trkpt>
      <trkpt lat="44.50475" lon="5.55802">
        <ele>844.2</ele>
        <time>2021-09-07T08:15:34Z</time>
      </trkpt>
      <trkpt lat="44.50476" lon="5.55801">
        <ele>844.3</ele>
        <time>2021-09-07T08:15:35Z</time>
      </trkpt>
      <trkpt lat="44.50478" lon="5.55798">
        <ele>844.5</ele>
        <time>2021-09-07T08:15:36Z</time>
      </trkpt>
      <trkpt lat="44.50478" lon="5.55795">
        <ele>844.6</ele>
        <time>2021-09-07T08:15:37Z</time>
      </trkpt>
      <trkpt lat="44.50478" lon="5.55792">
        <ele>844.7</ele>
        <time>2021-09-07T08:15:38Z</time>
      </trkpt>
      <trkpt lat="44.50478" lon="5.55788">
        <ele>844.9</ele>
        <time>2021-09-07T08:15:39Z</time>
      </trkpt>
      <trkpt lat="44.50477" lon="5.55784">
        <ele>845.1</ele>
        <time>2021-09-07T08:15:40Z</time>
      </trkpt>
      <trkpt lat="44.50476" lon="5.5578">
        <ele>845.3</ele>
        <time>2021-09-07T08:15:41Z</time>
      </trkpt>
      <trkpt lat="44.50473" lon="5.55777">
        <ele>845.5</ele>
        <time>2021-09-07T08:15:42Z</time>
      </trkpt>
      <trkpt lat="44.5047" lon="5.55773">
        <ele>845.7</ele>
        <time>2021-09-07T08:15:43Z</time>
      </trkpt>
      <trkpt lat="44.50468" lon="5.55769">
        <ele>846</ele>
        <time>2021-09-07T08:15:44Z</time>
      </trkpt>
      <trkpt lat="44.50468" lon="5.55766">
        <ele>846.1</ele>
        <time>2021-09-07T08:15:45Z</time>
      </trkpt>
      <trkpt lat="44.50467" lon="5.55763">
        <ele>846.2</ele>
        <time>2021-09-07T08:15:46Z</time>
      </trkpt>
      <trkpt lat="44.50467" lon="5.5576">
        <ele>846.4</ele>
        <time>2021-09-07T08:15:47Z</time>
      </trkpt>
      <trkpt lat="44.50467" lon="5.55757">
        <ele>846.5</ele>
        <time>2021-09-07T08:15:48Z</time>
      </trkpt>
      <trkpt lat="44.50467" lon="5.55755">
        <ele>846.6</ele>
        <time>2021-09-07T08:15:49Z</time>
      </trkpt>
      <trkpt lat="44.50467" lon="5.55752">
        <ele>846.7</ele>
        <time>2021-09-07T08:15:50Z</time>
      </trkpt>
      <trkpt lat="44.50468" lon="5.55753">
        <ele>846.8</ele>
        <time>2021-09-07T08:15:51Z</time>
      </trkpt>
      <trkpt lat="44.5047" lon="5.55751">
        <ele>846.9</ele>
        <time>2021-09-07T08:15:52Z</time>
      </trkpt>
      <trkpt lat="44.50472" lon="5.5575">
        <ele>847</ele>
        <time>2021-09-07T08:15:53Z</time>
      </trkpt>
      <trkpt lat="44.50473" lon="5.55748">
        <ele>847.2</ele>
        <time>2021-09-07T08:15:54Z</time>
      </trkpt>
      <trkpt lat="44.50474" lon="5.55748">
        <ele>847.2</ele>
        <time>2021-09-07T08:15:55Z</time>
      </trkpt>
      <trkpt lat="44.50475" lon="5.55748">
        <ele>847.3</ele>
        <time>2021-09-07T08:15:56Z</time>
      </trkpt>
      <trkpt lat="44.50476" lon="5.55747">
        <ele>847.4</ele>
        <time>2021-09-07T08:15:57Z</time>
      </trkpt>
      <trkpt lat="44.50476" lon="5.55746">
        <ele>847.4</ele>
        <time>2021-09-07T08:15:58Z</time>
      </trkpt>
      <trkpt lat="44.50476" lon="5.55745">
        <ele>847.5</ele>
        <time>2021-09-07T08:15:59Z</time>
      </trkpt>
      <trkpt lat="44.50476" lon="5.55744">
        <ele>847.5</ele>
        <time>2021-09-07T08:16:00Z</time>
      </trkpt>
      <trkpt lat="44.50477" lon="5.55743">
        <ele>847.6</ele>
        <time>2021-09-07T08:16:01Z</time>
      </trkpt>
      <trkpt lat="44.50477" lon="5.55741">
        <ele>847.7</ele>
        <time>2021-09-07T08:16:02Z</time>
      </trkpt>
      <trkpt lat="44.50477" lon="5.55739">
        <ele>847.8</ele>
        <time>2021-09-07T08:16:03Z</time>
      </trkpt>
      <trkpt lat="44.50477" lon="5.55738">
        <ele>847.8</ele>
        <time>2021-09-07T08:16:04Z</time>
      </trkpt>
      <trkpt lat="44.50477" lon="5.55736">
        <ele>847.9</ele>
        <time>2021-09-07T08:16:05Z</time>
      </trkpt>
      <trkpt lat="44.50478" lon="5.55734">
        <ele>848</ele>
        <time>2021-09-07T08:16:06Z</time>
      </trkpt>
      <trkpt lat="44.50479" lon="5.55731">
        <ele>848.2</ele>
        <time>2021-09-07T08:16:07Z</time>
      </trkpt>
      <trkpt lat="44.50479" lon="5.55728">
        <ele>848.3</ele>
        <time>2021-09-07T08:16:08Z</time>
      </trkpt>
      <trkpt lat="44.5048" lon="5.55724">
        <ele>848.5</ele>
        <time>2021-09-07T08:16:09Z</time>
      </trkpt>
      <trkpt lat="44.50481" lon="5.55722">
        <ele>848.7</ele>
        <time>2021-09-07T08:16:10Z</time>
      </trkpt>
      <trkpt lat="44.50481" lon="5.55719">
        <ele>848.8</ele>
        <time>2021-09-07T08:16:11Z</time>
      </trkpt>
      <trkpt lat="44.50479" lon="5.55715">
        <ele>849</ele>
        <time>2021-09-07T08:16:12Z</time>
      </trkpt>
      <trkpt lat="44.50478" lon="5.55713">
        <ele>849.2</ele>
        <time>2021-09-07T08:16:13Z</time>
      </trkpt>
      <trkpt lat="44.50477" lon="5.5571">
        <ele>849.3</ele>
        <time>2021-09-07T08:16:14Z</time>
      </trkpt>
      <trkpt lat="44.50477" lon="5.55709">
        <ele>849.4</ele>
        <time>2021-09-07T08:16:15Z</time>
      </trkpt>
      <trkpt lat="44.50477" lon="5.55708">
        <ele>849.4</ele>
        <time>2021-09-07T08:16:16Z</time>
      </trkpt>
      <trkpt lat="44.50477" lon="5.55705">
        <ele>849.6</ele>
        <time>2021-09-07T08:16:17Z</time>
      </trkpt>
      <trkpt lat="44.50477" lon="5.55701">
        <ele>849.8</ele>
        <time>2021-09-07T08:16:18Z</time>
      </trkpt>
      <trkpt lat="44.50474" lon="5.55695">
        <ele>850.2</ele>
        <time>2021-09-07T08:16:19Z</time>
      </trkpt>
      <trkpt lat="44.5047" lon="5.55688">
        <ele>850.6</ele>
        <time>2021-09-07T08:16:20Z</time>
      </trkpt>
      <trkpt lat="44.50466" lon="5.5568">
        <ele>851.1</ele>
        <time>2021-09-07T08:16:21Z</time>
      </trkpt>
      <trkpt lat="44.50466" lon="5.55675">
        <ele>851.3</ele>
        <time>2021-09-07T08:16:22Z</time>
      </trkpt>
      <trkpt lat="44.50465" lon="5.5567">
        <ele>851.6</ele>
        <time>2021-09-07T08:16:23Z</time>
      </trkpt>
      <trkpt lat="44.50463" lon="5.55665">
        <ele>851.8</ele>
        <time>2021-09-07T08:16:24Z</time>
      </trkpt>
      <trkpt lat="44.50462" lon="5.55663">
        <ele>852</ele>
        <time>2021-09-07T08:16:25Z</time>
      </trkpt>
      <trkpt lat="44.50461" lon="5.55661">
        <ele>852.1</ele>
        <time>2021-09-07T08:16:26Z</time>
      </trkpt>
      <trkpt lat="44.50462" lon="5.5566">
        <ele>852.2</ele>
        <time>2021-09-07T08:16:27Z</time>
      </trkpt>
      <trkpt lat="44.50463" lon="5.5566">
        <ele>852.2</ele>
        <time>2021-09-07T08:16:28Z</time>
      </trkpt>
      <trkpt lat="44.50464" lon="5.5566">
        <ele>852.3</ele>
        <time>2021-09-07T08:16:29Z</time>
      </trkpt>
      <trkpt lat="44.50465" lon="5.5566">
        <ele>852.4</ele>
        <time>2021-09-07T08:16:30Z</time>
      </trkpt>
      <trkpt lat="44.50466" lon="5.5566">
        <ele>852.4</ele>
        <time>2021-09-07T08:16:31Z</time>
      </trkpt>
      <trkpt lat="44.50467" lon="5.5566">
        <ele>852.5</ele>
        <time>2021-09-07T08:16:32Z</time>
      </trkpt>
      <trkpt lat="44.50469" lon="5.5566">
        <ele>852.6</ele>
        <time>2021-09-07T08:16:33Z</time>
      </trkpt>
      <trkpt lat="44.5047" lon="5.55659">
        <ele>852.7</ele>
        <time>2021-09-07T08:16:34Z</time>
      </trkpt>
      <trkpt lat="44.50472" lon="5.55658">
        <ele>852.9</ele>
        <time>2021-09-07T08:16:35Z</time>
      </trkpt>
      <trkpt lat="44.50474" lon="5.55655">
        <ele>853.1</ele>
        <time>2021-09-07T08:16:36Z</time>
      </trkpt>
      <trkpt lat="44.50475" lon="5.55654">
        <ele>853.2</ele>
        <time>2021-09-07T08:16:37Z</time>
      </trkpt>
      <trkpt lat="44.50476" lon="5.55652">
        <ele>853.3</ele>
        <time>2021-09-07T08:16:38Z</time>
      </trkpt>
      <trkpt lat="44.50477" lon="5.55651">
        <ele>853.4</ele>
        <time>2021-09-07T08:16:39Z</time>
      </trkpt>
      <trkpt lat="44.50479" lon="5.55649">
        <ele>853.5</ele>
        <time>2021-09-07T08:16:40Z</time>
      </trkpt>
      <trkpt lat="44.50483" lon="5.55643">
        <ele>854</ele>
        <time>2021-09-07T08:16:41Z</time>
      </trkpt>
      <trkpt lat="44.50487" lon="5.55639">
        <ele>854.4</ele>
        <time>2021-09-07T08:16:42Z</time>
      </trkpt>
      <trkpt lat="44.50491" lon="5.55634">
        <ele>854.8</ele>
        <time>2021-09-07T08:16:43Z</time>
      </trkpt>
      <trkpt lat="44.50493" lon="5.55633">
        <ele>854.9</ele>
        <time>2021-09-07T08:16:44Z</time>
      </trkpt>
      <trkpt lat="44.50494" lon="5.55631">
        <ele>855.1</ele>
        <time>2021-09-07T08:16:45Z</time>
      </trkpt>
      <trkpt lat="44.50497" lon="5.55627">
        <ele>855.4</ele>
        <time>2021-09-07T08:16:46Z</time>
      </trkpt>
      <trkpt lat="44.50497" lon="5.55623">
        <ele>855.6</ele>
        <time>2021-09-07T08:16:47Z</time>
      </trkpt>
      <trkpt lat="44.50497" lon="5.5562">
        <ele>855.8</ele>
        <time>2021-09-07T08:16:48Z</time>
      </trkpt>
      <trkpt lat="44.50497" lon="5.55619">
        <ele>855.8</ele>
        <time>2021-09-07T08:16:49Z</time>
      </trkpt>
      <trkpt lat="44.50497" lon="5.55617">
        <ele>855.9</ele>
        <time>2021-09-07T08:16:50Z</time>
      </trkpt>
      <trkpt lat="44.50497" lon="5.55616">
        <ele>856</ele>
        <time>2021-09-07T08:16:51Z</time>
      </trkpt>
      <trkpt lat="44.50497" lon="5.55615">
        <ele>856</ele>
        <time>2021-09-07T08:16:52Z</time>
      </trkpt>
      <trkpt lat="44.50497" lon="5.55614">
        <ele>856.1</ele>
        <time>2021-09-07T08:16:53Z</time>
      </trkpt>
      <trkpt lat="44.50497" lon="5.55612">
        <ele>856.2</ele>
        <time>2021-09-07T08:16:54Z</time>
      </trkpt>
      <trkpt lat="44.50497" lon="5.55611">
        <ele>856.2</ele>
        <time>2021-09-07T08:16:55Z</time>
      </trkpt>
      <trkpt lat="44.50496" lon="5.5561">
        <ele>856.3</ele>
        <time>2021-09-07T08:16:56Z</time>
      </trkpt>
      <trkpt lat="44.50496" lon="5.55608">
        <ele>856.4</ele>
        <time>2021-09-07T08:16:57Z</time>
      </trkpt>
      <trkpt lat="44.50496" lon="5.55607">
        <ele>856.5</ele>
        <time>2021-09-07T08:16:58Z</time>
      </trkpt>
      <trkpt lat="44.50496" lon="5.55606">
        <ele>856.5</ele>
        <time>2021-09-07T08:16:59Z</time>
      </trkpt>
      <trkpt lat="44.50496" lon="5.55604">
        <ele>856.6</ele>
        <time>2021-09-07T08:17:00Z</time>
      </trkpt>
      <trkpt lat="44.50496" lon="5.55603">
        <ele>856.7</ele>
        <time>2021-09-07T08:17:01Z</time>
      </trkpt>
      <trkpt lat="44.50496" lon="5.55602">
        <ele>856.7</ele>
        <time>2021-09-07T08:17:02Z</time>
      </trkpt>
      <trkpt lat="44.50496" lon="5.556">
        <ele>856.8</ele>
        <time>2021-09-07T08:17:03Z</time>
      </trkpt>
      <trkpt lat="44.50496" lon="5.55599">
        <ele>856.9</ele>
        <time>2021-09-07T08:17:04Z</time>
      </trkpt>
      <trkpt lat="44.50496" lon="5.55598">
        <ele>857</ele>
        <time>2021-09-07T08:17:05Z</time>
      </trkpt>
      <trkpt lat="44.50496" lon="5.55597">
        <ele>857</ele>
        <time>2021-09-07T08:17:06Z</time>
      </trkpt>
      <trkpt lat="44.50496" lon="5.55595">
        <ele>857.1</ele>
        <time>2021-09-07T08:17:07Z</time>
      </trkpt>
      <trkpt lat="44.50496" lon="5.55594">
        <ele>857.2</ele>
        <time>2021-09-07T08:17:08Z</time>
      </trkpt>
      <trkpt lat="44.50496" lon="5.55593">
        <ele>857.2</ele>
        <time>2021-09-07T08:17:09Z</time>
      </trkpt>
      <trkpt lat="44.50495" lon="5.55591">
        <ele>857.3</ele>
        <time>2021-09-07T08:17:10Z</time>
      </trkpt>
      <trkpt lat="44.50495" lon="5.5559">
        <ele>857.4</ele>
        <time>2021-09-07T08:17:11Z</time>
      </trkpt>
      <trkpt lat="44.50495" lon="5.55589">
        <ele>857.4</ele>
        <time>2021-09-07T08:17:12Z</time>
      </trkpt>
      <trkpt lat="44.50495" lon="5.55587">
        <ele>857.5</ele>
        <time>2021-09-07T08:17:13Z</time>
      </trkpt>
      <trkpt lat="44.50495" lon="5.55586">
        <ele>857.6</ele>
        <time>2021-09-07T08:17:14Z</time>
      </trkpt>
      <trkpt lat="44.50495" lon="5.55585">
        <ele>857.7</ele>
        <time>2021-09-07T08:17:15Z</time>
      </trkpt>
      <trkpt lat="44.50495" lon="5.55583">
        <ele>857.7</ele>
        <time>2021-09-07T08:17:16Z</time>
      </trkpt>
      <trkpt lat="44.50495" lon="5.55582">
        <ele>857.8</ele>
        <time>2021-09-07T08:17:17Z</time>
      </trkpt>
      <trkpt lat="44.50495" lon="5.55581">
        <ele>857.9</ele>
        <time>2021-09-07T08:17:18Z</time>
      </trkpt>
      <trkpt lat="44.50495" lon="5.5558">
        <ele>857.9</ele>
        <time>2021-09-07T08:17:19Z</time>
      </trkpt>
      <trkpt lat="44.50495" lon="5.55578">
        <ele>858</ele>
        <time>2021-09-07T08:17:20Z</time>
      </trkpt>
      <trkpt lat="44.50495" lon="5.55577">
        <ele>858.1</ele>
        <time>2021-09-07T08:17:21Z</time>
      </trkpt>
      <trkpt lat="44.50495" lon="5.55576">
        <ele>858.1</ele>
        <time>2021-09-07T08:17:22Z</time>
      </trkpt>
      <trkpt lat="44.50495" lon="5.55574">
        <ele>858.2</ele>
        <time>2021-09-07T08:17:23Z</time>
      </trkpt>
      <trkpt lat="44.50495" lon="5.55573">
        <ele>858.3</ele>
        <time>2021-09-07T08:17:24Z</time>
      </trkpt>
      <trkpt lat="44.50494" lon="5.55572">
        <ele>858.3</ele>
        <time>2021-09-07T08:17:25Z</time>
      </trkpt>
      <trkpt lat="44.50494" lon="5.5557">
        <ele>858.4</ele>
        <time>2021-09-07T08:17:26Z</time>
      </trkpt>
      <trkpt lat="44.50494" lon="5.55569">
        <ele>858.5</ele>
        <time>2021-09-07T08:17:27Z</time>
      </trkpt>
      <trkpt lat="44.50494" lon="5.55568">
        <ele>858.5</ele>
        <time>2021-09-07T08:17:28Z</time>
      </trkpt>
      <trkpt lat="44.50494" lon="5.55566">
        <ele>858.6</ele>
        <time>2021-09-07T08:17:29Z</time>
      </trkpt>
      <trkpt lat="44.50494" lon="5.55565">
        <ele>858.7</ele>
        <time>2021-09-07T08:17:30Z</time>
      </trkpt>
      <trkpt lat="44.50494" lon="5.55564">
        <ele>858.7</ele>
        <time>2021-09-07T08:17:31Z</time>
      </trkpt>
      <trkpt lat="44.50494" lon="5.55563">
        <ele>858.8</ele>
        <time>2021-09-07T08:17:32Z</time>
      </trkpt>
      <trkpt lat="44.50494" lon="5.55561">
        <ele>858.9</ele>
        <time>2021-09-07T08:17:33Z</time>
      </trkpt>
      <trkpt lat="44.50494" lon="5.5556">
        <ele>858.9</ele>
        <time>2021-09-07T08:17:34Z</time>
      </trkpt>
      <trkpt lat="44.50494" lon="5.55559">
        <ele>859</ele>
        <time>2021-09-07T08:17:35Z</time>
      </trkpt>
      <trkpt lat="44.50494" lon="5.55557">
        <ele>859.1</ele>
        <time>2021-09-07T08:17:36Z</time>
      </trkpt>
      <trkpt lat="44.50494" lon="5.55556">
        <ele>859.1</ele>
        <time>2021-09-07T08:17:37Z</time>
      </trkpt>
      <trkpt lat="44.50494" lon="5.55555">
        <ele>859.2</ele>
        <time>2021-09-07T08:17:38Z</time>
      </trkpt>
      <trkpt lat="44.50493" lon="5.55553">
        <ele>859.3</ele>
        <time>2021-09-07T08:17:39Z</time>
      </trkpt>
      <trkpt lat="44.50493" lon="5.55552">
        <ele>859.3</ele>
        <time>2021-09-07T08:17:40Z</time>
      </trkpt>
      <trkpt lat="44.50493" lon="5.55551">
        <ele>859.4</ele>
        <time>2021-09-07T08:17:41Z</time>
      </trkpt>
      <trkpt lat="44.50493" lon="5.55549">
        <ele>859.5</ele>
        <time>2021-09-07T08:17:42Z</time>
      </trkpt>
      <trkpt lat="44.50493" lon="5.55548">
        <ele>859.5</ele>
        <time>2021-09-07T08:17:43Z</time>
      </trkpt>
      <trkpt lat="44.50493" lon="5.55547">
        <ele>859.6</ele>
        <time>2021-09-07T08:17:44Z</time>
      </trkpt>
      <trkpt lat="44.50493" lon="5.55546">
        <ele>859.7</ele>
        <time>2021-09-07T08:17:45Z</time>
      </trkpt>
      <trkpt lat="44.50493" lon="5.55544">
        <ele>859.7</ele>
        <time>2021-09-07T08:17:46Z</time>
      </trkpt>
      <trkpt lat="44.50493" lon="5.55543">
        <ele>859.8</ele>
        <time>2021-09-07T08:17:47Z</time>
      </trkpt>
      <trkpt lat="44.50493" lon="5.55542">
        <ele>859.9</ele>
        <time>2021-09-07T08:17:48Z</time>
      </trkpt>
      <trkpt lat="44.50493" lon="5.5554">
        <ele>859.9</ele>
        <time>2021-09-07T08:17:49Z</time>
      </trkpt>
      <trkpt lat="44.50493" lon="5.55539">
        <ele>860</ele>
        <time>2021-09-07T08:17:50Z</time>
      </trkpt>
      <trkpt lat="44.50493" lon="5.55538">
        <ele>860.1</ele>
        <time>2021-09-07T08:17:51Z</time>
      </trkpt>
      <trkpt lat="44.50493" lon="5.55536">
        <ele>860.1</ele>
        <time>2021-09-07T08:17:52Z</time>
      </trkpt>
      <trkpt lat="44.50492" lon="5.55535">
        <ele>860.2</ele>
        <time>2021-09-07T08:17:53Z</time>
      </trkpt>
      <trkpt lat="44.50492" lon="5.55534">
        <ele>860.2</ele>
        <time>2021-09-07T08:17:54Z</time>
      </trkpt>
      <trkpt lat="44.50492" lon="5.55533">
        <ele>860.3</ele>
        <time>2021-09-07T08:17:55Z</time>
      </trkpt>
      <trkpt lat="44.50492" lon="5.55531">
        <ele>860.4</ele>
        <time>2021-09-07T08:17:56Z</time>
      </trkpt>
      <trkpt lat="44.50492" lon="5.5553">
        <ele>860.4</ele>
        <time>2021-09-07T08:17:57Z</time>
      </trkpt>
      <trkpt lat="44.50492" lon="5.55529">
        <ele>860.5</ele>
        <time>2021-09-07T08:17:58Z</time>
      </trkpt>
      <trkpt lat="44.50492" lon="5.55527">
        <ele>860.6</ele>
        <time>2021-09-07T08:17:59Z</time>
      </trkpt>
      <trkpt lat="44.50492" lon="5.55526">
        <ele>860.6</ele>
        <time>2021-09-07T08:18:00Z</time>
      </trkpt>
      <trkpt lat="44.50492" lon="5.55525">
        <ele>860.7</ele>
        <time>2021-09-07T08:18:01Z</time>
      </trkpt>
      <trkpt lat="44.50492" lon="5.55523">
        <ele>860.8</ele>
        <time>2021-09-07T08:18:02Z</time>
      </trkpt>
      <trkpt lat="44.50492" lon="5.55522">
        <ele>860.8</ele>
        <time>2021-09-07T08:18:03Z</time>
      </trkpt>
      <trkpt lat="44.50492" lon="5.55521">
        <ele>860.9</ele>
        <time>2021-09-07T08:18:04Z</time>
      </trkpt>
      <trkpt lat="44.50492" lon="5.55519">
        <ele>860.9</ele>
        <time>2021-09-07T08:18:05Z</time>
      </trkpt>
      <trkpt lat="44.50492" lon="5.55518">
        <ele>861</ele>
        <time>2021-09-07T08:18:06Z</time>
      </trkpt>
      <trkpt lat="44.50491" lon="5.55517">
        <ele>861.1</ele>
        <time>2021-09-07T08:18:07Z</time>
      </trkpt>
      <trkpt lat="44.50491" lon="5.55516">
        <ele>861.1</ele>
        <time>2021-09-07T08:18:08Z</time>
      </trkpt>
      <trkpt lat="44.50491" lon="5.55514">
        <ele>861.2</ele>
        <time>2021-09-07T08:18:09Z</time>
      </trkpt>
      <trkpt lat="44.50491" lon="5.55513">
        <ele>861.3</ele>
        <time>2021-09-07T08:18:10Z</time>
      </trkpt>
      <trkpt lat="44.50491" lon="5.55512">
        <ele>861.3</ele>
        <time>2021-09-07T08:18:11Z</time>
      </trkpt>
      <trkpt lat="44.50491" lon="5.5551">
        <ele>861.4</ele>
        <time>2021-09-07T08:18:12Z</time>
      </trkpt>
      <trkpt lat="44.50491" lon="5.55509">
        <ele>861.5</ele>
        <time>2021-09-07T08:18:13Z</time>
      </trkpt>
      <trkpt lat="44.50491" lon="5.55508">
        <ele>861.5</ele>
        <time>2021-09-07T08:18:14Z</time>
      </trkpt>
      <trkpt lat="44.50491" lon="5.55506">
        <ele>861.6</ele>
        <time>2021-09-07T08:18:15Z</time>
      </trkpt>
      <trkpt lat="44.50491" lon="5.55505">
        <ele>861.6</ele>
        <time>2021-09-07T08:18:16Z</time>
      </trkpt>
      <trkpt lat="44.50491" lon="5.55504">
        <ele>861.7</ele>
        <time>2021-09-07T08:18:17Z</time>
      </trkpt>
      <trkpt lat="44.50491" lon="5.55502">
        <ele>861.8</ele>
        <time>2021-09-07T08:18:18Z</time>
      </trkpt>
      <trkpt lat="44.50491" lon="5.55501">
        <ele>861.8</ele>
        <time>2021-09-07T08:18:19Z</time>
      </trkpt>
      <trkpt lat="44.50491" lon="5.555">
        <ele>861.9</ele>
        <time>2021-09-07T08:18:20Z</time>
      </trkpt>
      <trkpt lat="44.50492" lon="5.55392">
        <ele>867.6</ele>
        <time>2021-09-07T08:18:21Z</time>
      </trkpt>
      <trkpt lat="44.5049" lon="5.55389">
        <ele>867.8</ele>
        <time>2021-09-07T08:18:22Z</time>
      </trkpt>
      <trkpt lat="44.50489" lon="5.55387">
        <ele>868</ele>
        <time>2021-09-07T08:18:23Z</time>
      </trkpt>
      <trkpt lat="44.50487" lon="5.55384">
        <ele>868.2</ele>
        <time>2021-09-07T08:18:24Z</time>
      </trkpt>
      <trkpt lat="44.50484" lon="5.55381">
        <ele>868.4</ele>
        <time>2021-09-07T08:18:25Z</time>
      </trkpt>
      <trkpt lat="44.50482" lon="5.55379">
        <ele>868.6</ele>
        <time>2021-09-07T08:18:26Z</time>
      </trkpt>
      <trkpt lat="44.50481" lon="5.55377">
        <ele>868.8</ele>
        <time>2021-09-07T08:18:27Z</time>
      </trkpt>
      <trkpt lat="44.50479" lon="5.55375">
        <ele>869</ele>
        <time>2021-09-07T08:18:28Z</time>
      </trkpt>
      <trkpt lat="44.50477" lon="5.55373">
        <ele>869.1</ele>
        <time>2021-09-07T08:18:29Z</time>
      </trkpt>
      <trkpt lat="44.50475" lon="5.5537">
        <ele>869.4</ele>
        <time>2021-09-07T08:18:30Z</time>
      </trkpt>
      <trkpt lat="44.50474" lon="5.55369">
        <ele>869.5</ele>
        <time>2021-09-07T08:18:31Z</time>
      </trkpt>
      <trkpt lat="44.50473" lon="5.55367">
        <ele>869.6</ele>
        <time>2021-09-07T08:18:32Z</time>
      </trkpt>
      <trkpt lat="44.50473" lon="5.55366">
        <ele>869.7</ele>
        <time>2021-09-07T08:18:33Z</time>
      </trkpt>
      <trkpt lat="44.50473" lon="5.55364">
        <ele>869.7</ele>
        <time>2021-09-07T08:18:34Z</time>
      </trkpt>
      <trkpt lat="44.50472" lon="5.55362">
        <ele>869.9</ele>
        <time>2021-09-07T08:18:35Z</time>
      </trkpt>
      <trkpt lat="44.50472" lon="5.55361">
        <ele>869.9</ele>
        <time>2021-09-07T08:18:36Z</time>
      </trkpt>
      <trkpt lat="44.50471" lon="5.5536">
        <ele>870</ele>
        <time>2021-09-07T08:18:37Z</time>
      </trkpt>
      <trkpt lat="44.5047" lon="5.55358">
        <ele>870.1</ele>
        <time>2021-09-07T08:18:38Z</time>
      </trkpt>
      <trkpt lat="44.5047" lon="5.55357">
        <ele>870.2</ele>
        <time>2021-09-07T08:18:39Z</time>
      </trkpt>
      <trkpt lat="44.5047" lon="5.55355">
        <ele>870.3</ele>
        <time>2021-09-07T08:18:40Z</time>
      </trkpt>
      <trkpt lat="44.5047" lon="5.55354">
        <ele>870.4</ele>
        <time>2021-09-07T08:18:41Z</time>
      </trkpt>
      <trkpt lat="44.5047" lon="5.55352">
        <ele>870.5</ele>
        <time>2021-09-07T08:18:42Z</time>
      </trkpt>
      <trkpt lat="44.5047" lon="5.5535">
        <ele>870.6</ele>
        <time>2021-09-07T08:18:43Z</time>
      </trkpt>
      <trkpt lat="44.50469" lon="5.55349">
        <ele>870.7</ele>
        <time>2021-09-07T08:18:44Z</time>
      </trkpt>
      <trkpt lat="44.50469" lon="5.55345">
        <ele>870.9</ele>
        <time>2021-09-07T08:18:45Z</time>
      </trkpt>
      <trkpt lat="44.50469" lon="5.55344">
        <ele>871</ele>
        <time>2021-09-07T08:18:46Z</time>
      </trkpt>
      <trkpt lat="44.50468" lon="5.55342">
        <ele>871.1</ele>
        <time>2021-09-07T08:18:47Z</time>
      </trkpt>
      <trkpt lat="44.50469" lon="5.5534">
        <ele>871.2</ele>
        <time>2021-09-07T08:18:48Z</time>
      </trkpt>
      <trkpt lat="44.5047" lon="5.55339">
        <ele>871.3</ele>
        <time>2021-09-07T08:18:49Z</time>
      </trkpt>
      <trkpt lat="44.5047" lon="5.55337">
        <ele>871.4</ele>
        <time>2021-09-07T08:18:50Z</time>
      </trkpt>
      <trkpt lat="44.50471" lon="5.55334">
        <ele>871.5</ele>
        <time>2021-09-07T08:18:51Z</time>
      </trkpt>
      <trkpt lat="44.50472" lon="5.5533">
        <ele>871.8</ele>
        <time>2021-09-07T08:18:52Z</time>
      </trkpt>
      <trkpt lat="44.50473" lon="5.55328">
        <ele>871.9</ele>
        <time>2021-09-07T08:18:53Z</time>
      </trkpt>
      <trkpt lat="44.50474" lon="5.55326">
        <ele>872</ele>
        <time>2021-09-07T08:18:54Z</time>
      </trkpt>
      <trkpt lat="44.50475" lon="5.55325">
        <ele>872.1</ele>
        <time>2021-09-07T08:18:55Z</time>
      </trkpt>
      <trkpt lat="44.50475" lon="5.55323">
        <ele>872.2</ele>
        <time>2021-09-07T08:18:56Z</time>
      </trkpt>
      <trkpt lat="44.50476" lon="5.5532">
        <ele>872.4</ele>
        <time>2021-09-07T08:18:57Z</time>
      </trkpt>
      <trkpt lat="44.50475" lon="5.55315">
        <ele>872.7</ele>
        <time>2021-09-07T08:18:58Z</time>
      </trkpt>
      <trkpt lat="44.50475" lon="5.55311">
        <ele>872.9</ele>
        <time>2021-09-07T08:18:59Z</time>
      </trkpt>
      <trkpt lat="44.50472" lon="5.55306">
        <ele>873.2</ele>
        <time>2021-09-07T08:19:00Z</time>
      </trkpt>
      <trkpt lat="44.5047" lon="5.55303">
        <ele>873.5</ele>
        <time>2021-09-07T08:19:01Z</time>
      </trkpt>
      <trkpt lat="44.50467" lon="5.55299">
        <ele>873.8</ele>
        <time>2021-09-07T08:19:02Z</time>
      </trkpt>
      <trkpt lat="44.50465" lon="5.55296">
        <ele>874</ele>
        <time>2021-09-07T08:19:03Z</time>
      </trkpt>
      <trkpt lat="44.50462" lon="5.55293">
        <ele>874.3</ele>
        <time>2021-09-07T08:19:04Z</time>
      </trkpt>
      <trkpt lat="44.50456" lon="5.55287">
        <ele>874.9</ele>
        <time>2021-09-07T08:19:05Z</time>
      </trkpt>
      <trkpt lat="44.50451" lon="5.55281">
        <ele>875.4</ele>
        <time>2021-09-07T08:19:06Z</time>
      </trkpt>
      <trkpt lat="44.50449" lon="5.55278">
        <ele>875.7</ele>
        <time>2021-09-07T08:19:07Z</time>
      </trkpt>
      <trkpt lat="44.50447" lon="5.55274">
        <ele>875.9</ele>
        <time>2021-09-07T08:19:08Z</time>
      </trkpt>
      <trkpt lat="44.50444" lon="5.55271">
        <ele>876.2</ele>
        <time>2021-09-07T08:19:09Z</time>
      </trkpt>
      <trkpt lat="44.50441" lon="5.55267">
        <ele>876.6</ele>
        <time>2021-09-07T08:19:10Z</time>
      </trkpt>
      <trkpt lat="44.50438" lon="5.55262">
        <ele>876.9</ele>
        <time>2021-09-07T08:19:11Z</time>
      </trkpt>
      <trkpt lat="44.50437" lon="5.55259">
        <ele>877.1</ele>
        <time>2021-09-07T08:19:12Z</time>
      </trkpt>
      <trkpt lat="44.50436" lon="5.55256">
        <ele>877.3</ele>
        <time>2021-09-07T08:19:13Z</time>
      </trkpt>
      <trkpt lat="44.50435" lon="5.55254">
        <ele>877.5</ele>
        <time>2021-09-07T08:19:14Z</time>
      </trkpt>
      <trkpt lat="44.50435" lon="5.55252">
        <ele>877.6</ele>
        <time>2021-09-07T08:19:15Z</time>
      </trkpt>
      <trkpt lat="44.50435" lon="5.5525">
        <ele>877.7</ele>
        <time>2021-09-07T08:19:16Z</time>
      </trkpt>
      <trkpt lat="44.50435" lon="5.55249">
        <ele>877.8</ele>
        <time>2021-09-07T08:19:17Z</time>
      </trkpt>
      <trkpt lat="44.50434" lon="5.55247">
        <ele>877.9</ele>
        <time>2021-09-07T08:19:18Z</time>
      </trkpt>
      <trkpt lat="44.50433" lon="5.55245">
        <ele>878</ele>
        <time>2021-09-07T08:19:19Z</time>
      </trkpt>
      <trkpt lat="44.50432" lon="5.55243">
        <ele>878.2</ele>
        <time>2021-09-07T08:19:20Z</time>
      </trkpt>
      <trkpt lat="44.5043" lon="5.5524">
        <ele>878.4</ele>
        <time>2021-09-07T08:19:21Z</time>
      </trkpt>
      <trkpt lat="44.50427" lon="5.55238">
        <ele>878.7</ele>
        <time>2021-09-07T08:19:22Z</time>
      </trkpt>
      <trkpt lat="44.50426" lon="5.55237">
        <ele>878.8</ele>
        <time>2021-09-07T08:19:23Z</time>
      </trkpt>
      <trkpt lat="44.50424" lon="5.55235">
        <ele>879</ele>
        <time>2021-09-07T08:19:24Z</time>
      </trkpt>
      <trkpt lat="44.50423" lon="5.55233">
        <ele>879.1</ele>
        <time>2021-09-07T08:19:25Z</time>
      </trkpt>
      <trkpt lat="44.50422" lon="5.55231">
        <ele>879.3</ele>
        <time>2021-09-07T08:19:26Z</time>
      </trkpt>
      <trkpt lat="44.50423" lon="5.55231">
        <ele>879.3</ele>
        <time>2021-09-07T08:19:27Z</time>
      </trkpt>
      <trkpt lat="44.50424" lon="5.55231">
        <ele>879.4</ele>
        <time>2021-09-07T08:19:28Z</time>
      </trkpt>
      <trkpt lat="44.50424" lon="5.5523">
        <ele>879.4</ele>
        <time>2021-09-07T08:19:29Z</time>
      </trkpt>
      <trkpt lat="44.50424" lon="5.55228">
        <ele>879.6</ele>
        <time>2021-09-07T08:19:30Z</time>
      </trkpt>
      <trkpt lat="44.50424" lon="5.55225">
        <ele>879.7</ele>
        <time>2021-09-07T08:19:31Z</time>
      </trkpt>
      <trkpt lat="44.50424" lon="5.55224">
        <ele>879.8</ele>
        <time>2021-09-07T08:19:32Z</time>
      </trkpt>
      <trkpt lat="44.50423" lon="5.55223">
        <ele>879.9</ele>
        <time>2021-09-07T08:19:33Z</time>
      </trkpt>
      <trkpt lat="44.50422" lon="5.5522">
        <ele>880.1</ele>
        <time>2021-09-07T08:19:34Z</time>
      </trkpt>
      <trkpt lat="44.50421" lon="5.55217">
        <ele>880.3</ele>
        <time>2021-09-07T08:19:35Z</time>
      </trkpt>
      <trkpt lat="44.50421" lon="5.55214">
        <ele>880.5</ele>
        <time>2021-09-07T08:19:36Z</time>
      </trkpt>
      <trkpt lat="44.50422" lon="5.55211">
        <ele>880.7</ele>
        <time>2021-09-07T08:19:37Z</time>
      </trkpt>
      <trkpt lat="44.50422" lon="5.55207">
        <ele>881</ele>
        <time>2021-09-07T08:19:38Z</time>
      </trkpt>
      <trkpt lat="44.50422" lon="5.55205">
        <ele>881.1</ele>
        <time>2021-09-07T08:19:39Z</time>
      </trkpt>
      <trkpt lat="44.50422" lon="5.55202">
        <ele>881.3</ele>
        <time>2021-09-07T08:19:40Z</time>
      </trkpt>
      <trkpt lat="44.50422" lon="5.55197">
        <ele>881.6</ele>
        <time>2021-09-07T08:19:41Z</time>
      </trkpt>
      <trkpt lat="44.50422" lon="5.55193">
        <ele>881.9</ele>
        <time>2021-09-07T08:19:42Z</time>
      </trkpt>
      <trkpt lat="44.50423" lon="5.55191">
        <ele>882.1</ele>
        <time>2021-09-07T08:19:43Z</time>
      </trkpt>
      <trkpt lat="44.50423" lon="5.55189">
        <ele>882.2</ele>
        <time>2021-09-07T08:19:44Z</time>
      </trkpt>
      <trkpt lat="44.50422" lon="5.55187">
        <ele>882.3</ele>
        <time>2021-09-07T08:19:45Z</time>
      </trkpt>
      <trkpt lat="44.50422" lon="5.55185">
        <ele>882.5</ele>
        <time>2021-09-07T08:19:46Z</time>
      </trkpt>
      <trkpt lat="44.50421" lon="5.55182">
        <ele>882.7</ele>
        <time>2021-09-07T08:19:47Z</time>
      </trkpt>
      <trkpt lat="44.50419" lon="5.55178">
        <ele>883</ele>
        <time>2021-09-07T08:19:48Z</time>
      </trkpt>
      <trkpt lat="44.50418" lon="5.55175">
        <ele>883.2</ele>
        <time>2021-09-07T08:19:49Z</time>
      </trkpt>
      <trkpt lat="44.50417" lon="5.55172">
        <ele>883.4</ele>
        <time>2021-09-07T08:19:50Z</time>
      </trkpt>
      <trkpt lat="44.50417" lon="5.5517">
        <ele>883.5</ele>
        <time>2021-09-07T08:19:51Z</time>
      </trkpt>
      <trkpt lat="44.50416" lon="5.55168">
        <ele>883.7</ele>
        <time>2021-09-07T08:19:52Z</time>
      </trkpt>
      <trkpt lat="44.50416" lon="5.55169">
        <ele>883.7</ele>
        <time>2021-09-07T08:19:53Z</time>
      </trkpt>
      <trkpt lat="44.50418" lon="5.55172">
        <ele>883.9</ele>
        <time>2021-09-07T08:19:54Z</time>
      </trkpt>
      <trkpt lat="44.50418" lon="5.55172">
        <ele>883.9</ele>
        <time>2021-09-07T08:19:55Z</time>
      </trkpt>
      <trkpt lat="44.50418" lon="5.55172">
        <ele>883.9</ele>
        <time>2021-09-07T08:19:56Z</time>
      </trkpt>
      <trkpt lat="44.50418" lon="5.55172">
        <ele>883.9</ele>
        <time>2021-09-07T08:19:57Z</time>
      </trkpt>
      <trkpt lat="44.50419" lon="5.55172">
        <ele>884</ele>
        <time>2021-09-07T08:19:58Z</time>
      </trkpt>
      <trkpt lat="44.50419" lon="5.55172">
        <ele>884</ele>
        <time>2021-09-07T08:19:59Z</time>
      </trkpt>
      <trkpt lat="44.50419" lon="5.55172">
        <ele>884</ele>
        <time>2021-09-07T08:20:00Z</time>
      </trkpt>
      <trkpt lat="44.50419" lon="5.55172">
        <ele>884</ele>
        <time>2021-09-07T08:20:01Z</time>
      </trkpt>
      <trkpt lat="44.50419" lon="5.55172">
        <ele>884</ele>
        <time>2021-09-07T08:20:02Z</time>
      </trkpt>
      <trkpt lat="44.5042" lon="5.55172">
        <ele>884.1</ele>
        <time>2021-09-07T08:20:03Z</time>
      </trkpt>
      <trkpt lat="44.50421" lon="5.55172">
        <ele>884.2</ele>
        <time>2021-09-07T08:20:04Z</time>
      </trkpt>
      <trkpt lat="44.50422" lon="5.55172">
        <ele>884.2</ele>
        <time>2021-09-07T08:20:05Z</time>
      </trkpt>
      <trkpt lat="44.50423" lon="5.55172">
        <ele>884.3</ele>
        <time>2021-09-07T08:20:06Z</time>
      </trkpt>
      <trkpt lat="44.50424" lon="5.55172">
        <ele>884.4</ele>
        <time>2021-09-07T08:20:07Z</time>
      </trkpt>
      <trkpt lat="44.50424" lon="5.55171">
        <ele>884.4</ele>
        <time>2021-09-07T08:20:08Z</time>
      </trkpt>
      <trkpt lat="44.50424" lon="5.55169">
        <ele>884.5</ele>
        <time>2021-09-07T08:20:09Z</time>
      </trkpt>
      <trkpt lat="44.50424" lon="5.55166">
        <ele>884.6</ele>
        <time>2021-09-07T08:20:10Z</time>
      </trkpt>
      <trkpt lat="44.50424" lon="5.55163">
        <ele>884.8</ele>
        <time>2021-09-07T08:20:11Z</time>
      </trkpt>
      <trkpt lat="44.50425" lon="5.55158">
        <ele>885</ele>
        <time>2021-09-07T08:20:12Z</time>
      </trkpt>
      <trkpt lat="44.50425" lon="5.55157">
        <ele>885.1</ele>
        <time>2021-09-07T08:20:13Z</time>
      </trkpt>
      <trkpt lat="44.50425" lon="5.55155">
        <ele>885.1</ele>
        <time>2021-09-07T08:20:14Z</time>
      </trkpt>
      <trkpt lat="44.50425" lon="5.55152">
        <ele>885.3</ele>
        <time>2021-09-07T08:20:15Z</time>
      </trkpt>
      <trkpt lat="44.50425" lon="5.55151">
        <ele>885.3</ele>
        <time>2021-09-07T08:20:16Z</time>
      </trkpt>
      <trkpt lat="44.50425" lon="5.55149">
        <ele>885.4</ele>
        <time>2021-09-07T08:20:17Z</time>
      </trkpt>
      <trkpt lat="44.50424" lon="5.55145">
        <ele>885.5</ele>
        <time>2021-09-07T08:20:18Z</time>
      </trkpt>
      <trkpt lat="44.50423" lon="5.55141">
        <ele>885.7</ele>
        <time>2021-09-07T08:20:19Z</time>
      </trkpt>
      <trkpt lat="44.50422" lon="5.5514">
        <ele>885.7</ele>
        <time>2021-09-07T08:20:20Z</time>
      </trkpt>
      <trkpt lat="44.50421" lon="5.55138">
        <ele>885.8</ele>
        <time>2021-09-07T08:20:21Z</time>
      </trkpt>
      <trkpt lat="44.5042" lon="5.55136">
        <ele>885.9</ele>
        <time>2021-09-07T08:20:22Z</time>
      </trkpt>
      <trkpt lat="44.50416" lon="5.55132">
        <ele>886.1</ele>
        <time>2021-09-07T08:20:23Z</time>
      </trkpt>
      <trkpt lat="44.50408" lon="5.55125">
        <ele>886.4</ele>
        <time>2021-09-07T08:20:24Z</time>
      </trkpt>
      <trkpt lat="44.504" lon="5.55117">
        <ele>886.7</ele>
        <time>2021-09-07T08:20:25Z</time>
      </trkpt>
      <trkpt lat="44.50398" lon="5.55115">
        <ele>886.8</ele>
        <time>2021-09-07T08:20:26Z</time>
      </trkpt>
      <trkpt lat="44.50396" lon="5.55114">
        <ele>886.8</ele>
        <time>2021-09-07T08:20:27Z</time>
      </trkpt>
      <trkpt lat="44.50394" lon="5.55113">
        <ele>886.9</ele>
        <time>2021-09-07T08:20:28Z</time>
      </trkpt>
      <trkpt lat="44.50393" lon="5.55113">
        <ele>886.9</ele>
        <time>2021-09-07T08:20:29Z</time>
      </trkpt>
      <trkpt lat="44.50392" lon="5.55112">
        <ele>887</ele>
        <time>2021-09-07T08:20:30Z</time>
      </trkpt>
      <trkpt lat="44.50391" lon="5.55112">
        <ele>887</ele>
        <time>2021-09-07T08:20:31Z</time>
      </trkpt>
      <trkpt lat="44.5039" lon="5.55111">
        <ele>887</ele>
        <time>2021-09-07T08:20:32Z</time>
      </trkpt>
      <trkpt lat="44.50388" lon="5.5511">
        <ele>887.1</ele>
        <time>2021-09-07T08:20:33Z</time>
      </trkpt>
      <trkpt lat="44.50387" lon="5.55109">
        <ele>887.1</ele>
        <time>2021-09-07T08:20:34Z</time>
      </trkpt>
      <trkpt lat="44.50383" lon="5.55107">
        <ele>887.3</ele>
        <time>2021-09-07T08:20:35Z</time>
      </trkpt>
      <trkpt lat="44.50382" lon="5.55106">
        <ele>887.3</ele>
        <time>2021-09-07T08:20:36Z</time>
      </trkpt>
      <trkpt lat="44.5038" lon="5.55105">
        <ele>887.4</ele>
        <time>2021-09-07T08:20:37Z</time>
      </trkpt>
      <trkpt lat="44.5038" lon="5.55105">
        <ele>887.4</ele>
        <time>2021-09-07T08:20:38Z</time>
      </trkpt>
      <trkpt lat="44.50379" lon="5.55104">
        <ele>887.4</ele>
        <time>2021-09-07T08:20:39Z</time>
      </trkpt>
      <trkpt lat="44.50379" lon="5.55104">
        <ele>887.4</ele>
        <time>2021-09-07T08:20:40Z</time>
      </trkpt>
      <trkpt lat="44.50378" lon="5.55103">
        <ele>887.5</ele>
        <time>2021-09-07T08:20:41Z</time>
      </trkpt>
      <trkpt lat="44.50377" lon="5.55102">
        <ele>887.5</ele>
        <time>2021-09-07T08:20:42Z</time>
      </trkpt>
      <trkpt lat="44.50375" lon="5.55101">
        <ele>887.6</ele>
        <time>2021-09-07T08:20:43Z</time>
      </trkpt>
      <trkpt lat="44.5037" lon="5.551">
        <ele>887.8</ele>
        <time>2021-09-07T08:20:44Z</time>
      </trkpt>
      <trkpt lat="44.50365" lon="5.55098">
        <ele>888</ele>
        <time>2021-09-07T08:20:45Z</time>
      </trkpt>
      <trkpt lat="44.5036" lon="5.55096">
        <ele>888.2</ele>
        <time>2021-09-07T08:20:46Z</time>
      </trkpt>
      <trkpt lat="44.50358" lon="5.55096">
        <ele>888.3</ele>
        <time>2021-09-07T08:20:47Z</time>
      </trkpt>
      <trkpt lat="44.50356" lon="5.55095">
        <ele>888.4</ele>
        <time>2021-09-07T08:20:48Z</time>
      </trkpt>
      <trkpt lat="44.50354" lon="5.55093">
        <ele>888.5</ele>
        <time>2021-09-07T08:20:49Z</time>
      </trkpt>
      <trkpt lat="44.50354" lon="5.55093">
        <ele>888.5</ele>
        <time>2021-09-07T08:20:50Z</time>
      </trkpt>
      <trkpt lat="44.50353" lon="5.55092">
        <ele>888.5</ele>
        <time>2021-09-07T08:20:51Z</time>
      </trkpt>
      <trkpt lat="44.50352" lon="5.55091">
        <ele>888.6</ele>
        <time>2021-09-07T08:20:52Z</time>
      </trkpt>
      <trkpt lat="44.50351" lon="5.55089">
        <ele>888.7</ele>
        <time>2021-09-07T08:20:53Z</time>
      </trkpt>
      <trkpt lat="44.50349" lon="5.55087">
        <ele>888.8</ele>
        <time>2021-09-07T08:20:54Z</time>
      </trkpt>
      <trkpt lat="44.50346" lon="5.55085">
        <ele>889</ele>
        <time>2021-09-07T08:20:55Z</time>
      </trkpt>
      <trkpt lat="44.50343" lon="5.55083">
        <ele>889.1</ele>
        <time>2021-09-07T08:20:56Z</time>
      </trkpt>
      <trkpt lat="44.50339" lon="5.55081">
        <ele>889.3</ele>
        <time>2021-09-07T08:20:57Z</time>
      </trkpt>
      <trkpt lat="44.50333" lon="5.55077">
        <ele>889.7</ele>
        <time>2021-09-07T08:20:58Z</time>
      </trkpt>
      <trkpt lat="44.50326" lon="5.55073">
        <ele>890.1</ele>
        <time>2021-09-07T08:20:59Z</time>
      </trkpt>
      <trkpt lat="44.50322" lon="5.55071">
        <ele>890.3</ele>
        <time>2021-09-07T08:21:00Z</time>
      </trkpt>
      <trkpt lat="44.5031" lon="5.5507">
        <ele>891</ele>
        <time>2021-09-07T08:21:01Z</time>
      </trkpt>
      <trkpt lat="44.50299" lon="5.55068">
        <ele>891.7</ele>
        <time>2021-09-07T08:21:02Z</time>
      </trkpt>
      <trkpt lat="44.50288" lon="5.55066">
        <ele>892.4</ele>
        <time>2021-09-07T08:21:03Z</time>
      </trkpt>
      <trkpt lat="44.50285" lon="5.55066">
        <ele>892.6</ele>
        <time>2021-09-07T08:21:04Z</time>
      </trkpt>
      <trkpt lat="44.50282" lon="5.55065">
        <ele>892.8</ele>
        <time>2021-09-07T08:21:05Z</time>
      </trkpt>
      <trkpt lat="44.50279" lon="5.55064">
        <ele>893</ele>
        <time>2021-09-07T08:21:06Z</time>
      </trkpt>
      <trkpt lat="44.50276" lon="5.55063">
        <ele>893.2</ele>
        <time>2021-09-07T08:21:07Z</time>
      </trkpt>
      <trkpt lat="44.50273" lon="5.55062">
        <ele>893.5</ele>
        <time>2021-09-07T08:21:08Z</time>
      </trkpt>
      <trkpt lat="44.50269" lon="5.55058">
        <ele>893.9</ele>
        <time>2021-09-07T08:21:09Z</time>
      </trkpt>
      <trkpt lat="44.50264" lon="5.55053">
        <ele>894.3</ele>
        <time>2021-09-07T08:21:10Z</time>
      </trkpt>
      <trkpt lat="44.50263" lon="5.5505">
        <ele>894.4</ele>
        <time>2021-09-07T08:21:11Z</time>
      </trkpt>
      <trkpt lat="44.50261" lon="5.55047">
        <ele>894.6</ele>
        <time>2021-09-07T08:21:12Z</time>
      </trkpt>
      <trkpt lat="44.50262" lon="5.55044">
        <ele>894.8</ele>
        <time>2021-09-07T08:21:13Z</time>
      </trkpt>
      <trkpt lat="44.50262" lon="5.5504">
        <ele>895</ele>
        <time>2021-09-07T08:21:14Z</time>
      </trkpt>
      <trkpt lat="44.50262" lon="5.55037">
        <ele>895.2</ele>
        <time>2021-09-07T08:21:15Z</time>
      </trkpt>
      <trkpt lat="44.50263" lon="5.55035">
        <ele>895.3</ele>
        <time>2021-09-07T08:21:16Z</time>
      </trkpt>
      <trkpt lat="44.50265" lon="5.55032">
        <ele>895.5</ele>
        <time>2021-09-07T08:21:17Z</time>
      </trkpt>
      <trkpt lat="44.50268" lon="5.5503">
        <ele>895.7</ele>
        <time>2021-09-07T08:21:18Z</time>
      </trkpt>
      <trkpt lat="44.5027" lon="5.55029">
        <ele>895.9</ele>
        <time>2021-09-07T08:21:19Z</time>
      </trkpt>
      <trkpt lat="44.50272" lon="5.55027">
        <ele>896</ele>
        <time>2021-09-07T08:21:20Z</time>
      </trkpt>
      <trkpt lat="44.50274" lon="5.55026">
        <ele>896.2</ele>
        <time>2021-09-07T08:21:21Z</time>
      </trkpt>
      <trkpt lat="44.50277" lon="5.55025">
        <ele>896.4</ele>
        <time>2021-09-07T08:21:22Z</time>
      </trkpt>
      <trkpt lat="44.50287" lon="5.55021">
        <ele>897.1</ele>
        <time>2021-09-07T08:21:23Z</time>
      </trkpt>
      <trkpt lat="44.50294" lon="5.55018">
        <ele>897.6</ele>
        <time>2021-09-07T08:21:24Z</time>
      </trkpt>
      <trkpt lat="44.50299" lon="5.55016">
        <ele>897.9</ele>
        <time>2021-09-07T08:21:25Z</time>
      </trkpt>
      <trkpt lat="44.50304" lon="5.55014">
        <ele>898.2</ele>
        <time>2021-09-07T08:21:26Z</time>
      </trkpt>
      <trkpt lat="44.50307" lon="5.55013">
        <ele>898.4</ele>
        <time>2021-09-07T08:21:27Z</time>
      </trkpt>
      <trkpt lat="44.50309" lon="5.55012">
        <ele>898.6</ele>
        <time>2021-09-07T08:21:28Z</time>
      </trkpt>
      <trkpt lat="44.50311" lon="5.55011">
        <ele>898.7</ele>
        <time>2021-09-07T08:21:29Z</time>
      </trkpt>
      <trkpt lat="44.50312" lon="5.5501">
        <ele>898.8</ele>
        <time>2021-09-07T08:21:30Z</time>
      </trkpt>
      <trkpt lat="44.50312" lon="5.55009">
        <ele>898.8</ele>
        <time>2021-09-07T08:21:31Z</time>
      </trkpt>
      <trkpt lat="44.50311" lon="5.55008">
        <ele>898.9</ele>
        <time>2021-09-07T08:21:32Z</time>
      </trkpt>
      <trkpt lat="44.50311" lon="5.55007">
        <ele>898.9</ele>
        <time>2021-09-07T08:21:33Z</time>
      </trkpt>
      <trkpt lat="44.50311" lon="5.55005">
        <ele>899</ele>
        <time>2021-09-07T08:21:34Z</time>
      </trkpt>
      <trkpt lat="44.5031" lon="5.55003">
        <ele>899.1</ele>
        <time>2021-09-07T08:21:35Z</time>
      </trkpt>
      <trkpt lat="44.5031" lon="5.55001">
        <ele>899.2</ele>
        <time>2021-09-07T08:21:36Z</time>
      </trkpt>
      <trkpt lat="44.5031" lon="5.55">
        <ele>899.2</ele>
        <time>2021-09-07T08:21:37Z</time>
      </trkpt>
      <trkpt lat="44.5031" lon="5.54998">
        <ele>899.3</ele>
        <time>2021-09-07T08:21:38Z</time>
      </trkpt>
      <trkpt lat="44.5031" lon="5.54995">
        <ele>899.4</ele>
        <time>2021-09-07T08:21:39Z</time>
      </trkpt>
      <trkpt lat="44.5031" lon="5.54991">
        <ele>899.6</ele>
        <time>2021-09-07T08:21:40Z</time>
      </trkpt>
      <trkpt lat="44.50311" lon="5.54988">
        <ele>899.7</ele>
        <time>2021-09-07T08:21:41Z</time>
      </trkpt>
      <trkpt lat="44.50312" lon="5.54985">
        <ele>899.8</ele>
        <time>2021-09-07T08:21:42Z</time>
      </trkpt>
      <trkpt lat="44.50314" lon="5.5498">
        <ele>900</ele>
        <time>2021-09-07T08:21:43Z</time>
      </trkpt>
      <trkpt lat="44.50315" lon="5.54978">
        <ele>900.1</ele>
        <time>2021-09-07T08:21:44Z</time>
      </trkpt>
      <trkpt lat="44.50316" lon="5.54977">
        <ele>900.2</ele>
        <time>2021-09-07T08:21:45Z</time>
      </trkpt>
      <trkpt lat="44.50317" lon="5.54975">
        <ele>900.3</ele>
        <time>2021-09-07T08:21:46Z</time>
      </trkpt>
      <trkpt lat="44.50318" lon="5.54972">
        <ele>900.4</ele>
        <time>2021-09-07T08:21:47Z</time>
      </trkpt>
      <trkpt lat="44.50318" lon="5.54969">
        <ele>900.5</ele>
        <time>2021-09-07T08:21:48Z</time>
      </trkpt>
      <trkpt lat="44.50319" lon="5.54967">
        <ele>900.6</ele>
        <time>2021-09-07T08:21:49Z</time>
      </trkpt>
      <trkpt lat="44.50319" lon="5.54966">
        <ele>900.7</ele>
        <time>2021-09-07T08:21:50Z</time>
      </trkpt>
      <trkpt lat="44.50319" lon="5.54964">
        <ele>900.7</ele>
        <time>2021-09-07T08:21:51Z</time>
      </trkpt>
      <trkpt lat="44.5032" lon="5.54962">
        <ele>900.8</ele>
        <time>2021-09-07T08:21:52Z</time>
      </trkpt>
      <trkpt lat="44.5032" lon="5.54961">
        <ele>900.9</ele>
        <time>2021-09-07T08:21:53Z</time>
      </trkpt>
      <trkpt lat="44.5032" lon="5.54959">
        <ele>900.9</ele>
        <time>2021-09-07T08:21:54Z</time>
      </trkpt>
      <trkpt lat="44.5032" lon="5.54958">
        <ele>901</ele>
        <time>2021-09-07T08:21:55Z</time>
      </trkpt>
      <trkpt lat="44.5032" lon="5.54956">
        <ele>901</ele>
        <time>2021-09-07T08:21:56Z</time>
      </trkpt>
      <trkpt lat="44.50321" lon="5.54953">
        <ele>901.1</ele>
        <time>2021-09-07T08:21:57Z</time>
      </trkpt>
      <trkpt lat="44.50321" lon="5.54951">
        <ele>901.2</ele>
        <time>2021-09-07T08:21:58Z</time>
      </trkpt>
      <trkpt lat="44.50321" lon="5.54949">
        <ele>901.3</ele>
        <time>2021-09-07T08:21:59Z</time>
      </trkpt>
      <trkpt lat="44.5032" lon="5.54946">
        <ele>901.4</ele>
        <time>2021-09-07T08:22:00Z</time>
      </trkpt>
      <trkpt lat="44.5032" lon="5.54944">
        <ele>901.5</ele>
        <time>2021-09-07T08:22:01Z</time>
      </trkpt>
      <trkpt lat="44.5032" lon="5.54942">
        <ele>901.5</ele>
        <time>2021-09-07T08:22:02Z</time>
      </trkpt>
      <trkpt lat="44.5032" lon="5.54938">
        <ele>901.7</ele>
        <time>2021-09-07T08:22:03Z</time>
      </trkpt>
      <trkpt lat="44.5032" lon="5.54936">
        <ele>901.8</ele>
        <time>2021-09-07T08:22:04Z</time>
      </trkpt>
      <trkpt lat="44.5032" lon="5.54934">
        <ele>901.8</ele>
        <time>2021-09-07T08:22:05Z</time>
      </trkpt>
      <trkpt lat="44.5032" lon="5.54932">
        <ele>901.9</ele>
        <time>2021-09-07T08:22:06Z</time>
      </trkpt>
      <trkpt lat="44.5032" lon="5.5493">
        <ele>902</ele>
        <time>2021-09-07T08:22:07Z</time>
      </trkpt>
      <trkpt lat="44.50319" lon="5.54928">
        <ele>902.1</ele>
        <time>2021-09-07T08:22:08Z</time>
      </trkpt>
      <trkpt lat="44.50319" lon="5.54925">
        <ele>902.2</ele>
        <time>2021-09-07T08:22:09Z</time>
      </trkpt>
      <trkpt lat="44.50318" lon="5.54923">
        <ele>902.3</ele>
        <time>2021-09-07T08:22:10Z</time>
      </trkpt>
      <trkpt lat="44.50317" lon="5.5492">
        <ele>902.4</ele>
        <time>2021-09-07T08:22:11Z</time>
      </trkpt>
      <trkpt lat="44.50316" lon="5.54916">
        <ele>902.6</ele>
        <time>2021-09-07T08:22:12Z</time>
      </trkpt>
      <trkpt lat="44.50316" lon="5.54915">
        <ele>902.6</ele>
        <time>2021-09-07T08:22:13Z</time>
      </trkpt>
      <trkpt lat="44.50315" lon="5.54913">
        <ele>902.7</ele>
        <time>2021-09-07T08:22:14Z</time>
      </trkpt>
      <trkpt lat="44.50314" lon="5.54911">
        <ele>902.8</ele>
        <time>2021-09-07T08:22:15Z</time>
      </trkpt>
      <trkpt lat="44.50313" lon="5.54908">
        <ele>902.9</ele>
        <time>2021-09-07T08:22:16Z</time>
      </trkpt>
      <trkpt lat="44.50312" lon="5.54905">
        <ele>903.1</ele>
        <time>2021-09-07T08:22:17Z</time>
      </trkpt>
      <trkpt lat="44.5031" lon="5.54901">
        <ele>903.2</ele>
        <time>2021-09-07T08:22:18Z</time>
      </trkpt>
      <trkpt lat="44.50309" lon="5.54897">
        <ele>903.4</ele>
        <time>2021-09-07T08:22:19Z</time>
      </trkpt>
      <trkpt lat="44.50308" lon="5.54894">
        <ele>903.5</ele>
        <time>2021-09-07T08:22:20Z</time>
      </trkpt>
      <trkpt lat="44.50307" lon="5.5489">
        <ele>903.7</ele>
        <time>2021-09-07T08:22:21Z</time>
      </trkpt>
      <trkpt lat="44.50306" lon="5.54888">
        <ele>903.8</ele>
        <time>2021-09-07T08:22:22Z</time>
      </trkpt>
      <trkpt lat="44.50305" lon="5.54885">
        <ele>903.9</ele>
        <time>2021-09-07T08:22:23Z</time>
      </trkpt>
      <trkpt lat="44.50305" lon="5.54882">
        <ele>904</ele>
        <time>2021-09-07T08:22:24Z</time>
      </trkpt>
      <trkpt lat="44.50305" lon="5.54881">
        <ele>904</ele>
        <time>2021-09-07T08:22:25Z</time>
      </trkpt>
      <trkpt lat="44.50304" lon="5.5488">
        <ele>904.1</ele>
        <time>2021-09-07T08:22:26Z</time>
      </trkpt>
      <trkpt lat="44.50304" lon="5.54879">
        <ele>904.2</ele>
        <time>2021-09-07T08:22:27Z</time>
      </trkpt>
      <trkpt lat="44.50304" lon="5.54877">
        <ele>904.2</ele>
        <time>2021-09-07T08:22:28Z</time>
      </trkpt>
      <trkpt lat="44.50304" lon="5.54875">
        <ele>904.3</ele>
        <time>2021-09-07T08:22:29Z</time>
      </trkpt>
      <trkpt lat="44.50304" lon="5.54873">
        <ele>904.4</ele>
        <time>2021-09-07T08:22:30Z</time>
      </trkpt>
      <trkpt lat="44.50304" lon="5.54871">
        <ele>904.4</ele>
        <time>2021-09-07T08:22:31Z</time>
      </trkpt>
      <trkpt lat="44.50306" lon="5.54868">
        <ele>904.6</ele>
        <time>2021-09-07T08:22:32Z</time>
      </trkpt>
      <trkpt lat="44.50307" lon="5.54867">
        <ele>904.7</ele>
        <time>2021-09-07T08:22:33Z</time>
      </trkpt>
      <trkpt lat="44.50308" lon="5.54865">
        <ele>904.8</ele>
        <time>2021-09-07T08:22:34Z</time>
      </trkpt>
      <trkpt lat="44.50309" lon="5.54863">
        <ele>904.9</ele>
        <time>2021-09-07T08:22:35Z</time>
      </trkpt>
      <trkpt lat="44.5031" lon="5.54861">
        <ele>905</ele>
        <time>2021-09-07T08:22:36Z</time>
      </trkpt>
      <trkpt lat="44.50311" lon="5.54858">
        <ele>905.1</ele>
        <time>2021-09-07T08:22:37Z</time>
      </trkpt>
      <trkpt lat="44.5031" lon="5.54854">
        <ele>905.3</ele>
        <time>2021-09-07T08:22:38Z</time>
      </trkpt>
      <trkpt lat="44.50308" lon="5.54849">
        <ele>905.5</ele>
        <time>2021-09-07T08:22:39Z</time>
      </trkpt>
      <trkpt lat="44.50307" lon="5.54845">
        <ele>905.8</ele>
        <time>2021-09-07T08:22:40Z</time>
      </trkpt>
      <trkpt lat="44.50305" lon="5.5484">
        <ele>906</ele>
        <time>2021-09-07T08:22:41Z</time>
      </trkpt>
      <trkpt lat="44.50303" lon="5.54836">
        <ele>906.8</ele>
        <time>2021-09-07T08:22:42Z</time>
      </trkpt>
      <trkpt lat="44.503" lon="5.54832">
        <ele>907.1</ele>
        <time>2021-09-07T08:22:43Z</time>
      </trkpt>
      <trkpt lat="44.50298" lon="5.54829">
        <ele>907.4</ele>
        <time>2021-09-07T08:22:44Z</time>
      </trkpt>
      <trkpt lat="44.50296" lon="5.54825">
        <ele>907.7</ele>
        <time>2021-09-07T08:22:45Z</time>
      </trkpt>
      <trkpt lat="44.50293" lon="5.5482">
        <ele>908.1</ele>
        <time>2021-09-07T08:22:46Z</time>
      </trkpt>
      <trkpt lat="44.50289" lon="5.54816">
        <ele>908.5</ele>
        <time>2021-09-07T08:22:47Z</time>
      </trkpt>
      <trkpt lat="44.50287" lon="5.54813">
        <ele>908.8</ele>
        <time>2021-09-07T08:22:48Z</time>
      </trkpt>
      <trkpt lat="44.50285" lon="5.5481">
        <ele>909.1</ele>
        <time>2021-09-07T08:22:49Z</time>
      </trkpt>
      <trkpt lat="44.50283" lon="5.54808">
        <ele>909.3</ele>
        <time>2021-09-07T08:22:50Z</time>
      </trkpt>
      <trkpt lat="44.50281" lon="5.54805">
        <ele>909.5</ele>
        <time>2021-09-07T08:22:51Z</time>
      </trkpt>
      <trkpt lat="44.5028" lon="5.54802">
        <ele>909.7</ele>
        <time>2021-09-07T08:22:52Z</time>
      </trkpt>
      <trkpt lat="44.50279" lon="5.54799">
        <ele>910</ele>
        <time>2021-09-07T08:22:53Z</time>
      </trkpt>
      <trkpt lat="44.50279" lon="5.54795">
        <ele>910.2</ele>
        <time>2021-09-07T08:22:54Z</time>
      </trkpt>
      <trkpt lat="44.5028" lon="5.54793">
        <ele>910.4</ele>
        <time>2021-09-07T08:22:55Z</time>
      </trkpt>
      <trkpt lat="44.50279" lon="5.54792">
        <ele>910.5</ele>
        <time>2021-09-07T08:22:56Z</time>
      </trkpt>
      <trkpt lat="44.50278" lon="5.54791">
        <ele>910.6</ele>
        <time>2021-09-07T08:22:57Z</time>
      </trkpt>
      <trkpt lat="44.50278" lon="5.54791">
        <ele>910.7</ele>
        <time>2021-09-07T08:22:58Z</time>
      </trkpt>
      <trkpt lat="44.50277" lon="5.5479">
        <ele>910.7</ele>
        <time>2021-09-07T08:22:59Z</time>
      </trkpt>
      <trkpt lat="44.50277" lon="5.54789">
        <ele>910.8</ele>
        <time>2021-09-07T08:23:00Z</time>
      </trkpt>
      <trkpt lat="44.50276" lon="5.54787">
        <ele>910.9</ele>
        <time>2021-09-07T08:23:01Z</time>
      </trkpt>
      <trkpt lat="44.50276" lon="5.54786">
        <ele>911</ele>
        <time>2021-09-07T08:23:02Z</time>
      </trkpt>
      <trkpt lat="44.50276" lon="5.54786">
        <ele>911</ele>
        <time>2021-09-07T08:23:03Z</time>
      </trkpt>
      <trkpt lat="44.50276" lon="5.54784">
        <ele>911.1</ele>
        <time>2021-09-07T08:23:04Z</time>
      </trkpt>
      <trkpt lat="44.50276" lon="5.54783">
        <ele>911.2</ele>
        <time>2021-09-07T08:23:05Z</time>
      </trkpt>
      <trkpt lat="44.50276" lon="5.54782">
        <ele>911.3</ele>
        <time>2021-09-07T08:23:06Z</time>
      </trkpt>
      <trkpt lat="44.50276" lon="5.54782">
        <ele>911.3</ele>
        <time>2021-09-07T08:23:07Z</time>
      </trkpt>
      <trkpt lat="44.50275" lon="5.54781">
        <ele>911.4</ele>
        <time>2021-09-07T08:23:08Z</time>
      </trkpt>
      <trkpt lat="44.50275" lon="5.54781">
        <ele>911.4</ele>
        <time>2021-09-07T08:23:09Z</time>
      </trkpt>
      <trkpt lat="44.50275" lon="5.5478">
        <ele>911.5</ele>
        <time>2021-09-07T08:23:10Z</time>
      </trkpt>
      <trkpt lat="44.50274" lon="5.54779">
        <ele>911.6</ele>
        <time>2021-09-07T08:23:11Z</time>
      </trkpt>
      <trkpt lat="44.50273" lon="5.54778">
        <ele>911.7</ele>
        <time>2021-09-07T08:23:12Z</time>
      </trkpt>
      <trkpt lat="44.50272" lon="5.54777">
        <ele>911.8</ele>
        <time>2021-09-07T08:23:13Z</time>
      </trkpt>
      <trkpt lat="44.50271" lon="5.54776">
        <ele>911.9</ele>
        <time>2021-09-07T08:23:14Z</time>
      </trkpt>
      <trkpt lat="44.5027" lon="5.54775">
        <ele>912</ele>
        <time>2021-09-07T08:23:15Z</time>
      </trkpt>
      <trkpt lat="44.50269" lon="5.54774">
        <ele>912.2</ele>
        <time>2021-09-07T08:23:16Z</time>
      </trkpt>
      <trkpt lat="44.50268" lon="5.54772">
        <ele>912.3</ele>
        <time>2021-09-07T08:23:17Z</time>
      </trkpt>
      <trkpt lat="44.50268" lon="5.54771">
        <ele>912.4</ele>
        <time>2021-09-07T08:23:18Z</time>
      </trkpt>
      <trkpt lat="44.50267" lon="5.54769">
        <ele>912.5</ele>
        <time>2021-09-07T08:23:19Z</time>
      </trkpt>
      <trkpt lat="44.50267" lon="5.54767">
        <ele>912.7</ele>
        <time>2021-09-07T08:23:20Z</time>
      </trkpt>
      <trkpt lat="44.50267" lon="5.54765">
        <ele>912.8</ele>
        <time>2021-09-07T08:23:21Z</time>
      </trkpt>
      <trkpt lat="44.50267" lon="5.54762">
        <ele>913</ele>
        <time>2021-09-07T08:23:22Z</time>
      </trkpt>
      <trkpt lat="44.50267" lon="5.5476">
        <ele>913.1</ele>
        <time>2021-09-07T08:23:23Z</time>
      </trkpt>
      <trkpt lat="44.50267" lon="5.54758">
        <ele>913.2</ele>
        <time>2021-09-07T08:23:24Z</time>
      </trkpt>
      <trkpt lat="44.50267" lon="5.54754">
        <ele>913.5</ele>
        <time>2021-09-07T08:23:25Z</time>
      </trkpt>
      <trkpt lat="44.50266" lon="5.5475">
        <ele>913.7</ele>
        <time>2021-09-07T08:23:26Z</time>
      </trkpt>
      <trkpt lat="44.50266" lon="5.54747">
        <ele>913.9</ele>
        <time>2021-09-07T08:23:27Z</time>
      </trkpt>
      <trkpt lat="44.50266" lon="5.54744">
        <ele>914.1</ele>
        <time>2021-09-07T08:23:28Z</time>
      </trkpt>
      <trkpt lat="44.50266" lon="5.54742">
        <ele>915.3</ele>
        <time>2021-09-07T08:23:29Z</time>
      </trkpt>
      <trkpt lat="44.50265" lon="5.54739">
        <ele>917.4</ele>
        <time>2021-09-07T08:23:30Z</time>
      </trkpt>
      <trkpt lat="44.50264" lon="5.54735">
        <ele>919.5</ele>
        <time>2021-09-07T08:23:31Z</time>
      </trkpt>
      <trkpt lat="44.50265" lon="5.54731">
        <ele>921.6</ele>
        <time>2021-09-07T08:23:32Z</time>
      </trkpt>
      <trkpt lat="44.50265" lon="5.54729">
        <ele>923.4</ele>
        <time>2021-09-07T08:23:33Z</time>
      </trkpt>
      <trkpt lat="44.50266" lon="5.54726">
        <ele>925.5</ele>
        <time>2021-09-07T08:23:34Z</time>
      </trkpt>
      <trkpt lat="44.50266" lon="5.54719">
        <ele>928.4</ele>
        <time>2021-09-07T08:23:35Z</time>
      </trkpt>
      <trkpt lat="44.50267" lon="5.54709">
        <ele>930.6</ele>
        <time>2021-09-07T08:23:36Z</time>
      </trkpt>
      <trkpt lat="44.50267" lon="5.54699">
        <ele>929.9</ele>
        <time>2021-09-07T08:23:37Z</time>
      </trkpt>
      <trkpt lat="44.50267" lon="5.54696">
        <ele>929.6</ele>
        <time>2021-09-07T08:23:38Z</time>
      </trkpt>
      <trkpt lat="44.50266" lon="5.54692">
        <ele>929.4</ele>
        <time>2021-09-07T08:23:39Z</time>
      </trkpt>
      <trkpt lat="44.50266" lon="5.54688">
        <ele>929.1</ele>
        <time>2021-09-07T08:23:40Z</time>
      </trkpt>
      <trkpt lat="44.50267" lon="5.54686">
        <ele>928.9</ele>
        <time>2021-09-07T08:23:41Z</time>
      </trkpt>
      <trkpt lat="44.50268" lon="5.54684">
        <ele>928.8</ele>
        <time>2021-09-07T08:23:42Z</time>
      </trkpt>
      <trkpt lat="44.50269" lon="5.54682">
        <ele>928.7</ele>
        <time>2021-09-07T08:23:43Z</time>
      </trkpt>
      <trkpt lat="44.50271" lon="5.5468">
        <ele>928.4</ele>
        <time>2021-09-07T08:23:44Z</time>
      </trkpt>
      <trkpt lat="44.50273" lon="5.54678">
        <ele>928.3</ele>
        <time>2021-09-07T08:23:45Z</time>
      </trkpt>
      <trkpt lat="44.50274" lon="5.54675">
        <ele>928.1</ele>
        <time>2021-09-07T08:23:46Z</time>
      </trkpt>
      <trkpt lat="44.50276" lon="5.54669">
        <ele>927.8</ele>
        <time>2021-09-07T08:23:47Z</time>
      </trkpt>
      <trkpt lat="44.50278" lon="5.54666">
        <ele>927.6</ele>
        <time>2021-09-07T08:23:48Z</time>
      </trkpt>
      <trkpt lat="44.5028" lon="5.54662">
        <ele>927.4</ele>
        <time>2021-09-07T08:23:49Z</time>
      </trkpt>
      <trkpt lat="44.50283" lon="5.54658">
        <ele>927.1</ele>
        <time>2021-09-07T08:23:50Z</time>
      </trkpt>
      <trkpt lat="44.50285" lon="5.54653">
        <ele>926.9</ele>
        <time>2021-09-07T08:23:51Z</time>
      </trkpt>
      <trkpt lat="44.50288" lon="5.5465">
        <ele>926.8</ele>
        <time>2021-09-07T08:23:52Z</time>
      </trkpt>
      <trkpt lat="44.5029" lon="5.54647">
        <ele>926.7</ele>
        <time>2021-09-07T08:23:53Z</time>
      </trkpt>
      <trkpt lat="44.5029" lon="5.54645">
        <ele>926.6</ele>
        <time>2021-09-07T08:23:54Z</time>
      </trkpt>
      <trkpt lat="44.50291" lon="5.5464">
        <ele>926.5</ele>
        <time>2021-09-07T08:23:55Z</time>
      </trkpt>
      <trkpt lat="44.50291" lon="5.54638">
        <ele>926.5</ele>
        <time>2021-09-07T08:23:56Z</time>
      </trkpt>
      <trkpt lat="44.50291" lon="5.54637">
        <ele>926.5</ele>
        <time>2021-09-07T08:23:57Z</time>
      </trkpt>
      <trkpt lat="44.50291" lon="5.54636">
        <ele>926.5</ele>
        <time>2021-09-07T08:23:58Z</time>
      </trkpt>
      <trkpt lat="44.50289" lon="5.54634">
        <ele>926.4</ele>
        <time>2021-09-07T08:23:59Z</time>
      </trkpt>
      <trkpt lat="44.50288" lon="5.54633">
        <ele>926.4</ele>
        <time>2021-09-07T08:24:00Z</time>
      </trkpt>
      <trkpt lat="44.50287" lon="5.54631">
        <ele>926.3</ele>
        <time>2021-09-07T08:24:01Z</time>
      </trkpt>
      <trkpt lat="44.50286" lon="5.5463">
        <ele>926.3</ele>
        <time>2021-09-07T08:24:02Z</time>
      </trkpt>
      <trkpt lat="44.50285" lon="5.54629">
        <ele>926.3</ele>
        <time>2021-09-07T08:24:03Z</time>
      </trkpt>
      <trkpt lat="44.50285" lon="5.54628">
        <ele>926.3</ele>
        <time>2021-09-07T08:24:04Z</time>
      </trkpt>
      <trkpt lat="44.50284" lon="5.54627">
        <ele>926.3</ele>
        <time>2021-09-07T08:24:05Z</time>
      </trkpt>
      <trkpt lat="44.50284" lon="5.54625">
        <ele>926.2</ele>
        <time>2021-09-07T08:24:06Z</time>
      </trkpt>
      <trkpt lat="44.50284" lon="5.54623">
        <ele>926.2</ele>
        <time>2021-09-07T08:24:07Z</time>
      </trkpt>
      <trkpt lat="44.50284" lon="5.5462">
        <ele>926.2</ele>
        <time>2021-09-07T08:24:08Z</time>
      </trkpt>
      <trkpt lat="44.50285" lon="5.54617">
        <ele>926.2</ele>
        <time>2021-09-07T08:24:09Z</time>
      </trkpt>
      <trkpt lat="44.50285" lon="5.54614">
        <ele>926.1</ele>
        <time>2021-09-07T08:24:10Z</time>
      </trkpt>
      <trkpt lat="44.50283" lon="5.54609">
        <ele>926.1</ele>
        <time>2021-09-07T08:24:11Z</time>
      </trkpt>
      <trkpt lat="44.50282" lon="5.54607">
        <ele>926.1</ele>
        <time>2021-09-07T08:24:12Z</time>
      </trkpt>
      <trkpt lat="44.5028" lon="5.54604">
        <ele>926</ele>
        <time>2021-09-07T08:24:13Z</time>
      </trkpt>
      <trkpt lat="44.50279" lon="5.54602">
        <ele>926</ele>
        <time>2021-09-07T08:24:14Z</time>
      </trkpt>
      <trkpt lat="44.50278" lon="5.54599">
        <ele>925.9</ele>
        <time>2021-09-07T08:24:15Z</time>
      </trkpt>
      <trkpt lat="44.50271" lon="5.54591">
        <ele>925.7</ele>
        <time>2021-09-07T08:24:16Z</time>
      </trkpt>
      <trkpt lat="44.50266" lon="5.54583">
        <ele>925.3</ele>
        <time>2021-09-07T08:24:17Z</time>
      </trkpt>
      <trkpt lat="44.50265" lon="5.5458">
        <ele>925.2</ele>
        <time>2021-09-07T08:24:18Z</time>
      </trkpt>
      <trkpt lat="44.50263" lon="5.54577">
        <ele>925</ele>
        <time>2021-09-07T08:24:19Z</time>
      </trkpt>
      <trkpt lat="44.50262" lon="5.54574">
        <ele>924.8</ele>
        <time>2021-09-07T08:24:20Z</time>
      </trkpt>
      <trkpt lat="44.50261" lon="5.54572">
        <ele>924.7</ele>
        <time>2021-09-07T08:24:21Z</time>
      </trkpt>
      <trkpt lat="44.50261" lon="5.5457">
        <ele>924.9</ele>
        <time>2021-09-07T08:24:22Z</time>
      </trkpt>
      <trkpt lat="44.5026" lon="5.54568">
        <ele>925</ele>
        <time>2021-09-07T08:24:23Z</time>
      </trkpt>
      <trkpt lat="44.50261" lon="5.54567">
        <ele>925.1</ele>
        <time>2021-09-07T08:24:24Z</time>
      </trkpt>
      <trkpt lat="44.50261" lon="5.54565">
        <ele>925.1</ele>
        <time>2021-09-07T08:24:25Z</time>
      </trkpt>
      <trkpt lat="44.50263" lon="5.54564">
        <ele>925.3</ele>
        <time>2021-09-07T08:24:26Z</time>
      </trkpt>
      <trkpt lat="44.50265" lon="5.54563">
        <ele>925.4</ele>
        <time>2021-09-07T08:24:27Z</time>
      </trkpt>
      <trkpt lat="44.50268" lon="5.54564">
        <ele>925.5</ele>
        <time>2021-09-07T08:24:28Z</time>
      </trkpt>
      <trkpt lat="44.5027" lon="5.54565">
        <ele>925.7</ele>
        <time>2021-09-07T08:24:29Z</time>
      </trkpt>
      <trkpt lat="44.50276" lon="5.54569">
        <ele>925.9</ele>
        <time>2021-09-07T08:24:30Z</time>
      </trkpt>
      <trkpt lat="44.50279" lon="5.54572">
        <ele>926</ele>
        <time>2021-09-07T08:24:31Z</time>
      </trkpt>
      <trkpt lat="44.50281" lon="5.54574">
        <ele>926</ele>
        <time>2021-09-07T08:24:32Z</time>
      </trkpt>
      <trkpt lat="44.50284" lon="5.54576">
        <ele>926.1</ele>
        <time>2021-09-07T08:24:33Z</time>
      </trkpt>
      <trkpt lat="44.50287" lon="5.54582">
        <ele>926.1</ele>
        <time>2021-09-07T08:24:34Z</time>
      </trkpt>
      <trkpt lat="44.50289" lon="5.54587">
        <ele>926.2</ele>
        <time>2021-09-07T08:24:35Z</time>
      </trkpt>
      <trkpt lat="44.50297" lon="5.54603">
        <ele>926.5</ele>
        <time>2021-09-07T08:24:36Z</time>
      </trkpt>
      <trkpt lat="44.50301" lon="5.54612">
        <ele>926.7</ele>
        <time>2021-09-07T08:24:37Z</time>
      </trkpt>
      <trkpt lat="44.50304" lon="5.54621">
        <ele>927</ele>
        <time>2021-09-07T08:24:38Z</time>
      </trkpt>
      <trkpt lat="44.50304" lon="5.54624">
        <ele>927.1</ele>
        <time>2021-09-07T08:24:39Z</time>
      </trkpt>
      <trkpt lat="44.50303" lon="5.54626">
        <ele>927.2</ele>
        <time>2021-09-07T08:24:40Z</time>
      </trkpt>
      <trkpt lat="44.50301" lon="5.5463">
        <ele>927.4</ele>
        <time>2021-09-07T08:24:41Z</time>
      </trkpt>
      <trkpt lat="44.503" lon="5.54633">
        <ele>927.6</ele>
        <time>2021-09-07T08:24:42Z</time>
      </trkpt>
      <trkpt lat="44.50299" lon="5.54637">
        <ele>927.7</ele>
        <time>2021-09-07T08:24:43Z</time>
      </trkpt>
      <trkpt lat="44.50298" lon="5.5464">
        <ele>927.9</ele>
        <time>2021-09-07T08:24:44Z</time>
      </trkpt>
      <trkpt lat="44.50299" lon="5.54644">
        <ele>928.2</ele>
        <time>2021-09-07T08:24:45Z</time>
      </trkpt>
      <trkpt lat="44.50299" lon="5.54647">
        <ele>928.3</ele>
        <time>2021-09-07T08:24:46Z</time>
      </trkpt>
      <trkpt lat="44.50299" lon="5.54649">
        <ele>928.4</ele>
        <time>2021-09-07T08:24:47Z</time>
      </trkpt>
      <trkpt lat="44.50298" lon="5.5465">
        <ele>928.5</ele>
        <time>2021-09-07T08:24:48Z</time>
      </trkpt>
      <trkpt lat="44.50298" lon="5.54653">
        <ele>928.7</ele>
        <time>2021-09-07T08:24:49Z</time>
      </trkpt>
      <trkpt lat="44.50297" lon="5.54655">
        <ele>928.9</ele>
        <time>2021-09-07T08:24:50Z</time>
      </trkpt>
      <trkpt lat="44.50296" lon="5.54658">
        <ele>929.1</ele>
        <time>2021-09-07T08:24:51Z</time>
      </trkpt>
      <trkpt lat="44.50295" lon="5.5466">
        <ele>929.3</ele>
        <time>2021-09-07T08:24:52Z</time>
      </trkpt>
      <trkpt lat="44.50294" lon="5.54662">
        <ele>929.5</ele>
        <time>2021-09-07T08:24:53Z</time>
      </trkpt>
      <trkpt lat="44.50292" lon="5.54664">
        <ele>929.7</ele>
        <time>2021-09-07T08:24:54Z</time>
      </trkpt>
      <trkpt lat="44.5029" lon="5.54667">
        <ele>930</ele>
        <time>2021-09-07T08:24:55Z</time>
      </trkpt>
      <trkpt lat="44.50287" lon="5.54669">
        <ele>930.3</ele>
        <time>2021-09-07T08:24:56Z</time>
      </trkpt>
      <trkpt lat="44.50286" lon="5.54671">
        <ele>930.5</ele>
        <time>2021-09-07T08:24:57Z</time>
      </trkpt>
      <trkpt lat="44.50285" lon="5.54673">
        <ele>930.7</ele>
        <time>2021-09-07T08:24:58Z</time>
      </trkpt>
      <trkpt lat="44.50283" lon="5.54674">
        <ele>930.9</ele>
        <time>2021-09-07T08:24:59Z</time>
      </trkpt>
      <trkpt lat="44.50281" lon="5.5468">
        <ele>931.4</ele>
        <time>2021-09-07T08:25:00Z</time>
      </trkpt>
      <trkpt lat="44.50281" lon="5.54682">
        <ele>931.5</ele>
        <time>2021-09-07T08:25:01Z</time>
      </trkpt>
      <trkpt lat="44.5028" lon="5.54684">
        <ele>931.7</ele>
        <time>2021-09-07T08:25:02Z</time>
      </trkpt>
      <trkpt lat="44.50278" lon="5.5469">
        <ele>932.1</ele>
        <time>2021-09-07T08:25:03Z</time>
      </trkpt>
      <trkpt lat="44.50278" lon="5.54692">
        <ele>932.3</ele>
        <time>2021-09-07T08:25:04Z</time>
      </trkpt>
      <trkpt lat="44.50279" lon="5.54695">
        <ele>932.4</ele>
        <time>2021-09-07T08:25:05Z</time>
      </trkpt>
      <trkpt lat="44.50279" lon="5.54697">
        <ele>932.6</ele>
        <time>2021-09-07T08:25:06Z</time>
      </trkpt>
      <trkpt lat="44.5028" lon="5.54701">
        <ele>932.8</ele>
        <time>2021-09-07T08:25:07Z</time>
      </trkpt>
      <trkpt lat="44.50279" lon="5.54704">
        <ele>933</ele>
        <time>2021-09-07T08:25:08Z</time>
      </trkpt>
      <trkpt lat="44.50279" lon="5.54708">
        <ele>933.1</ele>
        <time>2021-09-07T08:25:09Z</time>
      </trkpt>
      <trkpt lat="44.50279" lon="5.54711">
        <ele>933.3</ele>
        <time>2021-09-07T08:25:10Z</time>
      </trkpt>
      <trkpt lat="44.50278" lon="5.54715">
        <ele>933.4</ele>
        <time>2021-09-07T08:25:11Z</time>
      </trkpt>
      <trkpt lat="44.50277" lon="5.54719">
        <ele>933.6</ele>
        <time>2021-09-07T08:25:12Z</time>
      </trkpt>
      <trkpt lat="44.50276" lon="5.54723">
        <ele>933.7</ele>
        <time>2021-09-07T08:25:13Z</time>
      </trkpt>
      <trkpt lat="44.50275" lon="5.54726">
        <ele>933.7</ele>
        <time>2021-09-07T08:25:14Z</time>
      </trkpt>
      <trkpt lat="44.50276" lon="5.54727">
        <ele>933.8</ele>
        <time>2021-09-07T08:25:15Z</time>
      </trkpt>
      <trkpt lat="44.50276" lon="5.54728">
        <ele>933.8</ele>
        <time>2021-09-07T08:25:16Z</time>
      </trkpt>
      <trkpt lat="44.50277" lon="5.54729">
        <ele>933.8</ele>
        <time>2021-09-07T08:25:17Z</time>
      </trkpt>
      <trkpt lat="44.50278" lon="5.5473">
        <ele>933.9</ele>
        <time>2021-09-07T08:25:18Z</time>
      </trkpt>
      <trkpt lat="44.5028" lon="5.54731">
        <ele>933.9</ele>
        <time>2021-09-07T08:25:19Z</time>
      </trkpt>
      <trkpt lat="44.50282" lon="5.54732">
        <ele>934</ele>
        <time>2021-09-07T08:25:20Z</time>
      </trkpt>
      <trkpt lat="44.50285" lon="5.54732">
        <ele>934.1</ele>
        <time>2021-09-07T08:25:21Z</time>
      </trkpt>
      <trkpt lat="44.50287" lon="5.54732">
        <ele>934.1</ele>
        <time>2021-09-07T08:25:22Z</time>
      </trkpt>
      <trkpt lat="44.50289" lon="5.54732">
        <ele>934.2</ele>
        <time>2021-09-07T08:25:23Z</time>
      </trkpt>
      <trkpt lat="44.5029" lon="5.54732">
        <ele>934.2</ele>
        <time>2021-09-07T08:25:24Z</time>
      </trkpt>
      <trkpt lat="44.50292" lon="5.54732">
        <ele>934.3</ele>
        <time>2021-09-07T08:25:25Z</time>
      </trkpt>
      <trkpt lat="44.50294" lon="5.54733">
        <ele>934.3</ele>
        <time>2021-09-07T08:25:26Z</time>
      </trkpt>
      <trkpt lat="44.50297" lon="5.54734">
        <ele>934.4</ele>
        <time>2021-09-07T08:25:27Z</time>
      </trkpt>
      <trkpt lat="44.50299" lon="5.54735">
        <ele>934.5</ele>
        <time>2021-09-07T08:25:28Z</time>
      </trkpt>
      <trkpt lat="44.50302" lon="5.54735">
        <ele>934.6</ele>
        <time>2021-09-07T08:25:29Z</time>
      </trkpt>
      <trkpt lat="44.50303" lon="5.54735">
        <ele>934.6</ele>
        <time>2021-09-07T08:25:30Z</time>
      </trkpt>
      <trkpt lat="44.50305" lon="5.54735">
        <ele>934.7</ele>
        <time>2021-09-07T08:25:31Z</time>
      </trkpt>
      <trkpt lat="44.50306" lon="5.54734">
        <ele>934.7</ele>
        <time>2021-09-07T08:25:32Z</time>
      </trkpt>
      <trkpt lat="44.50308" lon="5.54734">
        <ele>934.8</ele>
        <time>2021-09-07T08:25:33Z</time>
      </trkpt>
      <trkpt lat="44.5031" lon="5.54734">
        <ele>934.9</ele>
        <time>2021-09-07T08:25:34Z</time>
      </trkpt>
      <trkpt lat="44.50312" lon="5.54735">
        <ele>935</ele>
        <time>2021-09-07T08:25:35Z</time>
      </trkpt>
      <trkpt lat="44.50313" lon="5.54735">
        <ele>935</ele>
        <time>2021-09-07T08:25:36Z</time>
      </trkpt>
      <trkpt lat="44.50314" lon="5.54735">
        <ele>935</ele>
        <time>2021-09-07T08:25:37Z</time>
      </trkpt>
      <trkpt lat="44.50317" lon="5.54736">
        <ele>935.2</ele>
        <time>2021-09-07T08:25:38Z</time>
      </trkpt>
      <trkpt lat="44.50317" lon="5.54736">
        <ele>935.2</ele>
        <time>2021-09-07T08:25:39Z</time>
      </trkpt>
      <trkpt lat="44.50317" lon="5.54736">
        <ele>935.2</ele>
        <time>2021-09-07T08:25:40Z</time>
      </trkpt>
      <trkpt lat="44.50318" lon="5.54737">
        <ele>935.2</ele>
        <time>2021-09-07T08:25:41Z</time>
      </trkpt>
      <trkpt lat="44.50318" lon="5.54737">
        <ele>935.2</ele>
        <time>2021-09-07T08:25:42Z</time>
      </trkpt>
      <trkpt lat="44.50319" lon="5.54738">
        <ele>935.3</ele>
        <time>2021-09-07T08:25:43Z</time>
      </trkpt>
      <trkpt lat="44.50319" lon="5.54739">
        <ele>935.3</ele>
        <time>2021-09-07T08:25:44Z</time>
      </trkpt>
      <trkpt lat="44.50319" lon="5.54741">
        <ele>935.3</ele>
        <time>2021-09-07T08:25:45Z</time>
      </trkpt>
      <trkpt lat="44.50319" lon="5.54742">
        <ele>935.4</ele>
        <time>2021-09-07T08:25:46Z</time>
      </trkpt>
      <trkpt lat="44.50319" lon="5.54743">
        <ele>935.4</ele>
        <time>2021-09-07T08:25:47Z</time>
      </trkpt>
      <trkpt lat="44.50319" lon="5.54744">
        <ele>935.4</ele>
        <time>2021-09-07T08:25:48Z</time>
      </trkpt>
      <trkpt lat="44.50321" lon="5.54749">
        <ele>935.6</ele>
        <time>2021-09-07T08:25:49Z</time>
      </trkpt>
      <trkpt lat="44.50323" lon="5.54751">
        <ele>935.7</ele>
        <time>2021-09-07T08:25:50Z</time>
      </trkpt>
      <trkpt lat="44.50325" lon="5.54755">
        <ele>935.9</ele>
        <time>2021-09-07T08:25:51Z</time>
      </trkpt>
      <trkpt lat="44.50326" lon="5.54758">
        <ele>936</ele>
        <time>2021-09-07T08:25:52Z</time>
      </trkpt>
      <trkpt lat="44.50329" lon="5.54761">
        <ele>936.2</ele>
        <time>2021-09-07T08:25:53Z</time>
      </trkpt>
      <trkpt lat="44.50331" lon="5.54763">
        <ele>936.4</ele>
        <time>2021-09-07T08:25:54Z</time>
      </trkpt>
      <trkpt lat="44.50335" lon="5.54768">
        <ele>936.6</ele>
        <time>2021-09-07T08:25:55Z</time>
      </trkpt>
      <trkpt lat="44.50338" lon="5.54771">
        <ele>936.8</ele>
        <time>2021-09-07T08:25:56Z</time>
      </trkpt>
      <trkpt lat="44.50341" lon="5.54773">
        <ele>937</ele>
        <time>2021-09-07T08:25:57Z</time>
      </trkpt>
      <trkpt lat="44.50343" lon="5.54776">
        <ele>937.2</ele>
        <time>2021-09-07T08:25:58Z</time>
      </trkpt>
      <trkpt lat="44.50344" lon="5.54778">
        <ele>937.3</ele>
        <time>2021-09-07T08:25:59Z</time>
      </trkpt>
      <trkpt lat="44.50345" lon="5.5478">
        <ele>937.4</ele>
        <time>2021-09-07T08:26:00Z</time>
      </trkpt>
      <trkpt lat="44.50346" lon="5.54781">
        <ele>937.5</ele>
        <time>2021-09-07T08:26:01Z</time>
      </trkpt>
      <trkpt lat="44.50346" lon="5.54782">
        <ele>937.5</ele>
        <time>2021-09-07T08:26:02Z</time>
      </trkpt>
      <trkpt lat="44.50347" lon="5.54784">
        <ele>937.6</ele>
        <time>2021-09-07T08:26:03Z</time>
      </trkpt>
      <trkpt lat="44.50347" lon="5.54785">
        <ele>937.7</ele>
        <time>2021-09-07T08:26:04Z</time>
      </trkpt>
      <trkpt lat="44.50349" lon="5.54787">
        <ele>937.8</ele>
        <time>2021-09-07T08:26:05Z</time>
      </trkpt>
      <trkpt lat="44.50349" lon="5.54789">
        <ele>937.9</ele>
        <time>2021-09-07T08:26:06Z</time>
      </trkpt>
      <trkpt lat="44.5035" lon="5.54791">
        <ele>938</ele>
        <time>2021-09-07T08:26:07Z</time>
      </trkpt>
      <trkpt lat="44.50351" lon="5.54792">
        <ele>938.1</ele>
        <time>2021-09-07T08:26:08Z</time>
      </trkpt>
      <trkpt lat="44.50352" lon="5.54793">
        <ele>938.2</ele>
        <time>2021-09-07T08:26:09Z</time>
      </trkpt>
      <trkpt lat="44.50352" lon="5.54795">
        <ele>938.3</ele>
        <time>2021-09-07T08:26:10Z</time>
      </trkpt>
      <trkpt lat="44.50353" lon="5.54796">
        <ele>938.4</ele>
        <time>2021-09-07T08:26:11Z</time>
      </trkpt>
      <trkpt lat="44.50353" lon="5.54797">
        <ele>938.4</ele>
        <time>2021-09-07T08:26:12Z</time>
      </trkpt>
      <trkpt lat="44.50355" lon="5.54798">
        <ele>938.6</ele>
        <time>2021-09-07T08:26:13Z</time>
      </trkpt>
      <trkpt lat="44.50356" lon="5.54799">
        <ele>938.6</ele>
        <time>2021-09-07T08:26:14Z</time>
      </trkpt>
      <trkpt lat="44.50356" lon="5.54799">
        <ele>938.7</ele>
        <time>2021-09-07T08:26:15Z</time>
      </trkpt>
      <trkpt lat="44.50357" lon="5.548">
        <ele>938.8</ele>
        <time>2021-09-07T08:26:16Z</time>
      </trkpt>
      <trkpt lat="44.50357" lon="5.54802">
        <ele>938.9</ele>
        <time>2021-09-07T08:26:17Z</time>
      </trkpt>
      <trkpt lat="44.50358" lon="5.54803">
        <ele>939</ele>
        <time>2021-09-07T08:26:18Z</time>
      </trkpt>
      <trkpt lat="44.50359" lon="5.54804">
        <ele>939.1</ele>
        <time>2021-09-07T08:26:19Z</time>
      </trkpt>
      <trkpt lat="44.50358" lon="5.54804">
        <ele>939.1</ele>
        <time>2021-09-07T08:26:20Z</time>
      </trkpt>
      <trkpt lat="44.50358" lon="5.54806">
        <ele>939.2</ele>
        <time>2021-09-07T08:26:21Z</time>
      </trkpt>
      <trkpt lat="44.50358" lon="5.54807">
        <ele>939.3</ele>
        <time>2021-09-07T08:26:22Z</time>
      </trkpt>
      <trkpt lat="44.50359" lon="5.54808">
        <ele>939.4</ele>
        <time>2021-09-07T08:26:23Z</time>
      </trkpt>
      <trkpt lat="44.50359" lon="5.54809">
        <ele>939.4</ele>
        <time>2021-09-07T08:26:24Z</time>
      </trkpt>
      <trkpt lat="44.50361" lon="5.54812">
        <ele>939.6</ele>
        <time>2021-09-07T08:26:25Z</time>
      </trkpt>
      <trkpt lat="44.50362" lon="5.54814">
        <ele>939.7</ele>
        <time>2021-09-07T08:26:26Z</time>
      </trkpt>
      <trkpt lat="44.50362" lon="5.54815">
        <ele>939.8</ele>
        <time>2021-09-07T08:26:27Z</time>
      </trkpt>
      <trkpt lat="44.50362" lon="5.5482">
        <ele>940.1</ele>
        <time>2021-09-07T08:26:28Z</time>
      </trkpt>
      <trkpt lat="44.50362" lon="5.54822">
        <ele>940.2</ele>
        <time>2021-09-07T08:26:29Z</time>
      </trkpt>
      <trkpt lat="44.50361" lon="5.54824">
        <ele>940.3</ele>
        <time>2021-09-07T08:26:30Z</time>
      </trkpt>
      <trkpt lat="44.5036" lon="5.54829">
        <ele>940.6</ele>
        <time>2021-09-07T08:26:31Z</time>
      </trkpt>
      <trkpt lat="44.50359" lon="5.54833">
        <ele>940.8</ele>
        <time>2021-09-07T08:26:32Z</time>
      </trkpt>
      <trkpt lat="44.50358" lon="5.54836">
        <ele>941</ele>
        <time>2021-09-07T08:26:33Z</time>
      </trkpt>
      <trkpt lat="44.50358" lon="5.54838">
        <ele>941.1</ele>
        <time>2021-09-07T08:26:34Z</time>
      </trkpt>
      <trkpt lat="44.50358" lon="5.5484">
        <ele>941.3</ele>
        <time>2021-09-07T08:26:35Z</time>
      </trkpt>
      <trkpt lat="44.50358" lon="5.54842">
        <ele>941.4</ele>
        <time>2021-09-07T08:26:36Z</time>
      </trkpt>
      <trkpt lat="44.50358" lon="5.54843">
        <ele>941.4</ele>
        <time>2021-09-07T08:26:37Z</time>
      </trkpt>
      <trkpt lat="44.50358" lon="5.54844">
        <ele>941.5</ele>
        <time>2021-09-07T08:26:38Z</time>
      </trkpt>
      <trkpt lat="44.50358" lon="5.54846">
        <ele>941.6</ele>
        <time>2021-09-07T08:26:39Z</time>
      </trkpt>
      <trkpt lat="44.50359" lon="5.54848">
        <ele>941.7</ele>
        <time>2021-09-07T08:26:40Z</time>
      </trkpt>
      <trkpt lat="44.5036" lon="5.5485">
        <ele>941.9</ele>
        <time>2021-09-07T08:26:41Z</time>
      </trkpt>
      <trkpt lat="44.50362" lon="5.54852">
        <ele>942</ele>
        <time>2021-09-07T08:26:42Z</time>
      </trkpt>
      <trkpt lat="44.50364" lon="5.54853">
        <ele>942.2</ele>
        <time>2021-09-07T08:26:43Z</time>
      </trkpt>
      <trkpt lat="44.50365" lon="5.54854">
        <ele>942.3</ele>
        <time>2021-09-07T08:26:44Z</time>
      </trkpt>
      <trkpt lat="44.50367" lon="5.54855">
        <ele>942.4</ele>
        <time>2021-09-07T08:26:45Z</time>
      </trkpt>
      <trkpt lat="44.50368" lon="5.54856">
        <ele>942.6</ele>
        <time>2021-09-07T08:26:46Z</time>
      </trkpt>
      <trkpt lat="44.5037" lon="5.54859">
        <ele>942.8</ele>
        <time>2021-09-07T08:26:47Z</time>
      </trkpt>
      <trkpt lat="44.50371" lon="5.54861">
        <ele>942.9</ele>
        <time>2021-09-07T08:26:48Z</time>
      </trkpt>
      <trkpt lat="44.50372" lon="5.54863">
        <ele>943</ele>
        <time>2021-09-07T08:26:49Z</time>
      </trkpt>
      <trkpt lat="44.50373" lon="5.54864">
        <ele>943.2</ele>
        <time>2021-09-07T08:26:50Z</time>
      </trkpt>
      <trkpt lat="44.50374" lon="5.54865">
        <ele>943.2</ele>
        <time>2021-09-07T08:26:51Z</time>
      </trkpt>
      <trkpt lat="44.50375" lon="5.54867">
        <ele>943.4</ele>
        <time>2021-09-07T08:26:52Z</time>
      </trkpt>
      <trkpt lat="44.50376" lon="5.54868">
        <ele>943.4</ele>
        <time>2021-09-07T08:26:53Z</time>
      </trkpt>
      <trkpt lat="44.50376" lon="5.54868">
        <ele>943.5</ele>
        <time>2021-09-07T08:26:54Z</time>
      </trkpt>
      <trkpt lat="44.50377" lon="5.54869">
        <ele>943.5</ele>
        <time>2021-09-07T08:26:55Z</time>
      </trkpt>
      <trkpt lat="44.50377" lon="5.5487">
        <ele>943.6</ele>
        <time>2021-09-07T08:26:56Z</time>
      </trkpt>
      <trkpt lat="44.50379" lon="5.54872">
        <ele>943.8</ele>
        <time>2021-09-07T08:26:57Z</time>
      </trkpt>
      <trkpt lat="44.50379" lon="5.54873">
        <ele>943.9</ele>
        <time>2021-09-07T08:26:58Z</time>
      </trkpt>
      <trkpt lat="44.5038" lon="5.54874">
        <ele>943.9</ele>
        <time>2021-09-07T08:26:59Z</time>
      </trkpt>
      <trkpt lat="44.50381" lon="5.54874">
        <ele>944</ele>
        <time>2021-09-07T08:27:00Z</time>
      </trkpt>
      <trkpt lat="44.50382" lon="5.54876">
        <ele>944.2</ele>
        <time>2021-09-07T08:27:01Z</time>
      </trkpt>
      <trkpt lat="44.50383" lon="5.54877">
        <ele>944.2</ele>
        <time>2021-09-07T08:27:02Z</time>
      </trkpt>
      <trkpt lat="44.50384" lon="5.54878">
        <ele>944.3</ele>
        <time>2021-09-07T08:27:03Z</time>
      </trkpt>
      <trkpt lat="44.50385" lon="5.54878">
        <ele>944.4</ele>
        <time>2021-09-07T08:27:04Z</time>
      </trkpt>
      <trkpt lat="44.50387" lon="5.54879">
        <ele>944.6</ele>
        <time>2021-09-07T08:27:05Z</time>
      </trkpt>
      <trkpt lat="44.50388" lon="5.54879">
        <ele>944.6</ele>
        <time>2021-09-07T08:27:06Z</time>
      </trkpt>
      <trkpt lat="44.50389" lon="5.54879">
        <ele>944.7</ele>
        <time>2021-09-07T08:27:07Z</time>
      </trkpt>
      <trkpt lat="44.50392" lon="5.5488">
        <ele>944.9</ele>
        <time>2021-09-07T08:27:08Z</time>
      </trkpt>
      <trkpt lat="44.50395" lon="5.54882">
        <ele>945.2</ele>
        <time>2021-09-07T08:27:09Z</time>
      </trkpt>
      <trkpt lat="44.50398" lon="5.54884">
        <ele>945.4</ele>
        <time>2021-09-07T08:27:10Z</time>
      </trkpt>
      <trkpt lat="44.50401" lon="5.54886">
        <ele>945.7</ele>
        <time>2021-09-07T08:27:11Z</time>
      </trkpt>
      <trkpt lat="44.50405" lon="5.54888">
        <ele>946</ele>
        <time>2021-09-07T08:27:12Z</time>
      </trkpt>
      <trkpt lat="44.50407" lon="5.5489">
        <ele>946.1</ele>
        <time>2021-09-07T08:27:13Z</time>
      </trkpt>
      <trkpt lat="44.50409" lon="5.54891">
        <ele>946.3</ele>
        <time>2021-09-07T08:27:14Z</time>
      </trkpt>
      <trkpt lat="44.50413" lon="5.54893">
        <ele>946.6</ele>
        <time>2021-09-07T08:27:15Z</time>
      </trkpt>
      <trkpt lat="44.50416" lon="5.54895">
        <ele>946.8</ele>
        <time>2021-09-07T08:27:16Z</time>
      </trkpt>
      <trkpt lat="44.50418" lon="5.54897">
        <ele>947.1</ele>
        <time>2021-09-07T08:27:17Z</time>
      </trkpt>
      <trkpt lat="44.5042" lon="5.54898">
        <ele>947.2</ele>
        <time>2021-09-07T08:27:18Z</time>
      </trkpt>
      <trkpt lat="44.50423" lon="5.549">
        <ele>947.4</ele>
        <time>2021-09-07T08:27:19Z</time>
      </trkpt>
      <trkpt lat="44.50425" lon="5.54901">
        <ele>947.7</ele>
        <time>2021-09-07T08:27:20Z</time>
      </trkpt>
      <trkpt lat="44.50427" lon="5.54902">
        <ele>947.8</ele>
        <time>2021-09-07T08:27:21Z</time>
      </trkpt>
      <trkpt lat="44.50426" lon="5.54903">
        <ele>947.9</ele>
        <time>2021-09-07T08:27:22Z</time>
      </trkpt>
      <trkpt lat="44.50427" lon="5.54905">
        <ele>948</ele>
        <time>2021-09-07T08:27:23Z</time>
      </trkpt>
      <trkpt lat="44.50427" lon="5.54906">
        <ele>948.1</ele>
        <time>2021-09-07T08:27:24Z</time>
      </trkpt>
      <trkpt lat="44.50428" lon="5.54908">
        <ele>948.3</ele>
        <time>2021-09-07T08:27:25Z</time>
      </trkpt>
      <trkpt lat="44.50428" lon="5.54909">
        <ele>948.3</ele>
        <time>2021-09-07T08:27:26Z</time>
      </trkpt>
      <trkpt lat="44.50428" lon="5.54911">
        <ele>948.4</ele>
        <time>2021-09-07T08:27:27Z</time>
      </trkpt>
      <trkpt lat="44.50427" lon="5.54912">
        <ele>948.5</ele>
        <time>2021-09-07T08:27:28Z</time>
      </trkpt>
      <trkpt lat="44.50428" lon="5.54913">
        <ele>948.6</ele>
        <time>2021-09-07T08:27:29Z</time>
      </trkpt>
      <trkpt lat="44.5043" lon="5.54914">
        <ele>949.6</ele>
        <time>2021-09-07T08:27:30Z</time>
      </trkpt>
      <trkpt lat="44.50432" lon="5.54915">
        <ele>950.5</ele>
        <time>2021-09-07T08:27:31Z</time>
      </trkpt>
      <trkpt lat="44.50436" lon="5.54915">
        <ele>951.9</ele>
        <time>2021-09-07T08:27:32Z</time>
      </trkpt>
      <trkpt lat="44.50438" lon="5.54915">
        <ele>952.8</ele>
        <time>2021-09-07T08:27:33Z</time>
      </trkpt>
      <trkpt lat="44.5044" lon="5.54915">
        <ele>953</ele>
        <time>2021-09-07T08:27:34Z</time>
      </trkpt>
      <trkpt lat="44.50442" lon="5.54916">
        <ele>954</ele>
        <time>2021-09-07T08:27:35Z</time>
      </trkpt>
      <trkpt lat="44.50443" lon="5.54916">
        <ele>954.2</ele>
        <time>2021-09-07T08:27:36Z</time>
      </trkpt>
      <trkpt lat="44.50445" lon="5.54917">
        <ele>955.2</ele>
        <time>2021-09-07T08:27:37Z</time>
      </trkpt>
      <trkpt lat="44.50447" lon="5.54917">
        <ele>955.7</ele>
        <time>2021-09-07T08:27:38Z</time>
      </trkpt>
      <trkpt lat="44.5045" lon="5.54919">
        <ele>956.7</ele>
        <time>2021-09-07T08:27:39Z</time>
      </trkpt>
      <trkpt lat="44.50452" lon="5.5492">
        <ele>956.9</ele>
        <time>2021-09-07T08:27:40Z</time>
      </trkpt>
      <trkpt lat="44.50453" lon="5.5492">
        <ele>957.8</ele>
        <time>2021-09-07T08:27:41Z</time>
      </trkpt>
      <trkpt lat="44.50452" lon="5.5492">
        <ele>957.2</ele>
        <time>2021-09-07T08:27:42Z</time>
      </trkpt>
      <trkpt lat="44.50451" lon="5.54922">
        <ele>956.8</ele>
        <time>2021-09-07T08:27:43Z</time>
      </trkpt>
      <trkpt lat="44.50449" lon="5.54923">
        <ele>956.1</ele>
        <time>2021-09-07T08:27:44Z</time>
      </trkpt>
      <trkpt lat="44.50449" lon="5.54924">
        <ele>956.3</ele>
        <time>2021-09-07T08:27:45Z</time>
      </trkpt>
      <trkpt lat="44.50449" lon="5.54926">
        <ele>955.9</ele>
        <time>2021-09-07T08:27:46Z</time>
      </trkpt>
      <trkpt lat="44.50448" lon="5.54928">
        <ele>956</ele>
        <time>2021-09-07T08:27:47Z</time>
      </trkpt>
      <trkpt lat="44.50447" lon="5.54931">
        <ele>955.6</ele>
        <time>2021-09-07T08:27:48Z</time>
      </trkpt>
      <trkpt lat="44.50443" lon="5.5494">
        <ele>952.5</ele>
        <time>2021-09-07T08:27:49Z</time>
      </trkpt>
      <trkpt lat="44.50443" lon="5.54941">
        <ele>952.7</ele>
        <time>2021-09-07T08:27:50Z</time>
      </trkpt>
      <trkpt lat="44.50443" lon="5.54943">
        <ele>952.9</ele>
        <time>2021-09-07T08:27:51Z</time>
      </trkpt>
      <trkpt lat="44.50442" lon="5.54944">
        <ele>952.3</ele>
        <time>2021-09-07T08:27:52Z</time>
      </trkpt>
      <trkpt lat="44.50441" lon="5.54946">
        <ele>952.4</ele>
        <time>2021-09-07T08:27:53Z</time>
      </trkpt>
      <trkpt lat="44.50441" lon="5.54948">
        <ele>951.8</ele>
        <time>2021-09-07T08:27:54Z</time>
      </trkpt>
      <trkpt lat="44.5044" lon="5.5495">
        <ele>951.1</ele>
        <time>2021-09-07T08:27:55Z</time>
      </trkpt>
      <trkpt lat="44.5044" lon="5.54951">
        <ele>951.2</ele>
        <time>2021-09-07T08:27:56Z</time>
      </trkpt>
      <trkpt lat="44.5044" lon="5.54951">
        <ele>951.4</ele>
        <time>2021-09-07T08:27:57Z</time>
      </trkpt>
      <trkpt lat="44.50439" lon="5.54952">
        <ele>950.8</ele>
        <time>2021-09-07T08:27:58Z</time>
      </trkpt>
      <trkpt lat="44.50439" lon="5.54953">
        <ele>950.9</ele>
        <time>2021-09-07T08:27:59Z</time>
      </trkpt>
      <trkpt lat="44.50439" lon="5.54954">
        <ele>951.1</ele>
        <time>2021-09-07T08:28:00Z</time>
      </trkpt>
      <trkpt lat="44.50439" lon="5.54956">
        <ele>950.5</ele>
        <time>2021-09-07T08:28:01Z</time>
      </trkpt>
      <trkpt lat="44.50439" lon="5.54958">
        <ele>950.6</ele>
        <time>2021-09-07T08:28:02Z</time>
      </trkpt>
      <trkpt lat="44.5044" lon="5.54959">
        <ele>950.8</ele>
        <time>2021-09-07T08:28:03Z</time>
      </trkpt>
      <trkpt lat="44.5044" lon="5.54959">
        <ele>951</ele>
        <time>2021-09-07T08:28:04Z</time>
      </trkpt>
      <trkpt lat="44.5044" lon="5.54961">
        <ele>950.4</ele>
        <time>2021-09-07T08:28:05Z</time>
      </trkpt>
      <trkpt lat="44.50441" lon="5.54962">
        <ele>951.5</ele>
        <time>2021-09-07T08:28:06Z</time>
      </trkpt>
      <trkpt lat="44.50442" lon="5.54962">
        <ele>951.6</ele>
        <time>2021-09-07T08:28:07Z</time>
      </trkpt>
      <trkpt lat="44.50446" lon="5.54961">
        <ele>952.8</ele>
        <time>2021-09-07T08:28:08Z</time>
      </trkpt>
      <trkpt lat="44.50447" lon="5.54959">
        <ele>954.8</ele>
        <time>2021-09-07T08:28:09Z</time>
      </trkpt>
      <trkpt lat="44.50448" lon="5.54957">
        <ele>954.9</ele>
        <time>2021-09-07T08:28:10Z</time>
      </trkpt>
      <trkpt lat="44.5045" lon="5.54954">
        <ele>954.9</ele>
        <time>2021-09-07T08:28:11Z</time>
      </trkpt>
      <trkpt lat="44.5045" lon="5.54953">
        <ele>954.9</ele>
        <time>2021-09-07T08:28:12Z</time>
      </trkpt>
      <trkpt lat="44.5045" lon="5.54951">
        <ele>954.9</ele>
        <time>2021-09-07T08:28:13Z</time>
      </trkpt>
      <trkpt lat="44.5045" lon="5.54948">
        <ele>954.8</ele>
        <time>2021-09-07T08:28:14Z</time>
      </trkpt>
      <trkpt lat="44.5045" lon="5.54947">
        <ele>954.8</ele>
        <time>2021-09-07T08:28:15Z</time>
      </trkpt>
      <trkpt lat="44.50449" lon="5.54946">
        <ele>954.8</ele>
        <time>2021-09-07T08:28:16Z</time>
      </trkpt>
      <trkpt lat="44.50448" lon="5.54946">
        <ele>954.8</ele>
        <time>2021-09-07T08:28:17Z</time>
      </trkpt>
      <trkpt lat="44.50447" lon="5.54945">
        <ele>954.8</ele>
        <time>2021-09-07T08:28:18Z</time>
      </trkpt>
      <trkpt lat="44.50447" lon="5.54945">
        <ele>954.8</ele>
        <time>2021-09-07T08:28:19Z</time>
      </trkpt>
      <trkpt lat="44.50446" lon="5.54944">
        <ele>954.7</ele>
        <time>2021-09-07T08:28:20Z</time>
      </trkpt>
      <trkpt lat="44.50445" lon="5.54943">
        <ele>954.7</ele>
        <time>2021-09-07T08:28:21Z</time>
      </trkpt>
      <trkpt lat="44.50444" lon="5.54941">
        <ele>954.7</ele>
        <time>2021-09-07T08:28:22Z</time>
      </trkpt>
      <trkpt lat="44.50443" lon="5.54938">
        <ele>954.7</ele>
        <time>2021-09-07T08:28:23Z</time>
      </trkpt>
      <trkpt lat="44.5044" lon="5.54934">
        <ele>954.6</ele>
        <time>2021-09-07T08:28:24Z</time>
      </trkpt>
      <trkpt lat="44.50438" lon="5.54931">
        <ele>954.6</ele>
        <time>2021-09-07T08:28:25Z</time>
      </trkpt>
      <trkpt lat="44.50437" lon="5.54929">
        <ele>954.5</ele>
        <time>2021-09-07T08:28:26Z</time>
      </trkpt>
      <trkpt lat="44.50435" lon="5.54926">
        <ele>954.5</ele>
        <time>2021-09-07T08:28:27Z</time>
      </trkpt>
      <trkpt lat="44.50434" lon="5.54922">
        <ele>954.5</ele>
        <time>2021-09-07T08:28:28Z</time>
      </trkpt>
      <trkpt lat="44.50433" lon="5.54918">
        <ele>954.5</ele>
        <time>2021-09-07T08:28:29Z</time>
      </trkpt>
      <trkpt lat="44.50433" lon="5.54916">
        <ele>954.5</ele>
        <time>2021-09-07T08:28:30Z</time>
      </trkpt>
      <trkpt lat="44.50433" lon="5.54914">
        <ele>954.6</ele>
        <time>2021-09-07T08:28:31Z</time>
      </trkpt>
      <trkpt lat="44.50433" lon="5.54911">
        <ele>954.6</ele>
        <time>2021-09-07T08:28:32Z</time>
      </trkpt>
      <trkpt lat="44.50432" lon="5.54908">
        <ele>954.6</ele>
        <time>2021-09-07T08:28:33Z</time>
      </trkpt>
      <trkpt lat="44.50432" lon="5.54906">
        <ele>954.6</ele>
        <time>2021-09-07T08:28:34Z</time>
      </trkpt>
      <trkpt lat="44.50432" lon="5.54905">
        <ele>954.6</ele>
        <time>2021-09-07T08:28:35Z</time>
      </trkpt>
      <trkpt lat="44.50432" lon="5.54904">
        <ele>954.6</ele>
        <time>2021-09-07T08:28:36Z</time>
      </trkpt>
      <trkpt lat="44.50432" lon="5.54903">
        <ele>954.6</ele>
        <time>2021-09-07T08:28:37Z</time>
      </trkpt>
      <trkpt lat="44.50431" lon="5.54902">
        <ele>954.7</ele>
        <time>2021-09-07T08:28:38Z</time>
      </trkpt>
      <trkpt lat="44.50431" lon="5.549">
        <ele>954.7</ele>
        <time>2021-09-07T08:28:39Z</time>
      </trkpt>
      <trkpt lat="44.50431" lon="5.54895">
        <ele>954.7</ele>
        <time>2021-09-07T08:28:40Z</time>
      </trkpt>
      <trkpt lat="44.50431" lon="5.54892">
        <ele>954.8</ele>
        <time>2021-09-07T08:28:41Z</time>
      </trkpt>
      <trkpt lat="44.50431" lon="5.54888">
        <ele>954.9</ele>
        <time>2021-09-07T08:28:42Z</time>
      </trkpt>
      <trkpt lat="44.5043" lon="5.54884">
        <ele>955</ele>
        <time>2021-09-07T08:28:43Z</time>
      </trkpt>
      <trkpt lat="44.50429" lon="5.54879">
        <ele>955</ele>
        <time>2021-09-07T08:28:44Z</time>
      </trkpt>
      <trkpt lat="44.50428" lon="5.54872">
        <ele>955.2</ele>
        <time>2021-09-07T08:28:45Z</time>
      </trkpt>
      <trkpt lat="44.50428" lon="5.54869">
        <ele>955.3</ele>
        <time>2021-09-07T08:28:46Z</time>
      </trkpt>
      <trkpt lat="44.50427" lon="5.54866">
        <ele>955.4</ele>
        <time>2021-09-07T08:28:47Z</time>
      </trkpt>
      <trkpt lat="44.50427" lon="5.54864">
        <ele>955.4</ele>
        <time>2021-09-07T08:28:48Z</time>
      </trkpt>
      <trkpt lat="44.50426" lon="5.54861">
        <ele>955.5</ele>
        <time>2021-09-07T08:28:49Z</time>
      </trkpt>
      <trkpt lat="44.50425" lon="5.5486">
        <ele>955.5</ele>
        <time>2021-09-07T08:28:50Z</time>
      </trkpt>
      <trkpt lat="44.50425" lon="5.54858">
        <ele>955.6</ele>
        <time>2021-09-07T08:28:51Z</time>
      </trkpt>
      <trkpt lat="44.50425" lon="5.54857">
        <ele>955.6</ele>
        <time>2021-09-07T08:28:52Z</time>
      </trkpt>
      <trkpt lat="44.50424" lon="5.54856">
        <ele>955.7</ele>
        <time>2021-09-07T08:28:53Z</time>
      </trkpt>
      <trkpt lat="44.50424" lon="5.54856">
        <ele>955.7</ele>
        <time>2021-09-07T08:28:54Z</time>
      </trkpt>
      <trkpt lat="44.50424" lon="5.54855">
        <ele>955.7</ele>
        <time>2021-09-07T08:28:55Z</time>
      </trkpt>
      <trkpt lat="44.50423" lon="5.54854">
        <ele>955.7</ele>
        <time>2021-09-07T08:28:56Z</time>
      </trkpt>
      <trkpt lat="44.50423" lon="5.54853">
        <ele>955.8</ele>
        <time>2021-09-07T08:28:57Z</time>
      </trkpt>
      <trkpt lat="44.50423" lon="5.54852">
        <ele>955.8</ele>
        <time>2021-09-07T08:28:58Z</time>
      </trkpt>
      <trkpt lat="44.50423" lon="5.54852">
        <ele>955.8</ele>
        <time>2021-09-07T08:28:59Z</time>
      </trkpt>
      <trkpt lat="44.50423" lon="5.54851">
        <ele>955.8</ele>
        <time>2021-09-07T08:29:00Z</time>
      </trkpt>
      <trkpt lat="44.50424" lon="5.54849">
        <ele>955.9</ele>
        <time>2021-09-07T08:29:01Z</time>
      </trkpt>
      <trkpt lat="44.50424" lon="5.54846">
        <ele>956</ele>
        <time>2021-09-07T08:29:02Z</time>
      </trkpt>
      <trkpt lat="44.50424" lon="5.54844">
        <ele>956.1</ele>
        <time>2021-09-07T08:29:03Z</time>
      </trkpt>
      <trkpt lat="44.50425" lon="5.54842">
        <ele>956.1</ele>
        <time>2021-09-07T08:29:04Z</time>
      </trkpt>
      <trkpt lat="44.50425" lon="5.5484">
        <ele>956.2</ele>
        <time>2021-09-07T08:29:05Z</time>
      </trkpt>
      <trkpt lat="44.50425" lon="5.54837">
        <ele>956.3</ele>
        <time>2021-09-07T08:29:06Z</time>
      </trkpt>
      <trkpt lat="44.50425" lon="5.54835">
        <ele>956.3</ele>
        <time>2021-09-07T08:29:07Z</time>
      </trkpt>
      <trkpt lat="44.50426" lon="5.54833">
        <ele>956.4</ele>
        <time>2021-09-07T08:29:08Z</time>
      </trkpt>
      <trkpt lat="44.50426" lon="5.54831">
        <ele>956.5</ele>
        <time>2021-09-07T08:29:09Z</time>
      </trkpt>
      <trkpt lat="44.50426" lon="5.54829">
        <ele>956.6</ele>
        <time>2021-09-07T08:29:10Z</time>
      </trkpt>
      <trkpt lat="44.50427" lon="5.54826">
        <ele>956.7</ele>
        <time>2021-09-07T08:29:11Z</time>
      </trkpt>
      <trkpt lat="44.50428" lon="5.54823">
        <ele>956.8</ele>
        <time>2021-09-07T08:29:12Z</time>
      </trkpt>
      <trkpt lat="44.50429" lon="5.5482">
        <ele>956.9</ele>
        <time>2021-09-07T08:29:13Z</time>
      </trkpt>
      <trkpt lat="44.50429" lon="5.54816">
        <ele>957.1</ele>
        <time>2021-09-07T08:29:14Z</time>
      </trkpt>
      <trkpt lat="44.5043" lon="5.54811">
        <ele>957.3</ele>
        <time>2021-09-07T08:29:15Z</time>
      </trkpt>
      <trkpt lat="44.5043" lon="5.54809">
        <ele>957.4</ele>
        <time>2021-09-07T08:29:16Z</time>
      </trkpt>
      <trkpt lat="44.5043" lon="5.54806">
        <ele>957.5</ele>
        <time>2021-09-07T08:29:17Z</time>
      </trkpt>
      <trkpt lat="44.50429" lon="5.54804">
        <ele>957.6</ele>
        <time>2021-09-07T08:29:18Z</time>
      </trkpt>
      <trkpt lat="44.50428" lon="5.54801">
        <ele>957.7</ele>
        <time>2021-09-07T08:29:19Z</time>
      </trkpt>
      <trkpt lat="44.50428" lon="5.54799">
        <ele>957.8</ele>
        <time>2021-09-07T08:29:20Z</time>
      </trkpt>
      <trkpt lat="44.50428" lon="5.54798">
        <ele>957.9</ele>
        <time>2021-09-07T08:29:21Z</time>
      </trkpt>
      <trkpt lat="44.50427" lon="5.54796">
        <ele>957.9</ele>
        <time>2021-09-07T08:29:22Z</time>
      </trkpt>
      <trkpt lat="44.50427" lon="5.54792">
        <ele>958.1</ele>
        <time>2021-09-07T08:29:23Z</time>
      </trkpt>
      <trkpt lat="44.50428" lon="5.54789">
        <ele>958.3</ele>
        <time>2021-09-07T08:29:24Z</time>
      </trkpt>
      <trkpt lat="44.50429" lon="5.54787">
        <ele>958.4</ele>
        <time>2021-09-07T08:29:25Z</time>
      </trkpt>
      <trkpt lat="44.50429" lon="5.54784">
        <ele>958.5</ele>
        <time>2021-09-07T08:29:26Z</time>
      </trkpt>
      <trkpt lat="44.50429" lon="5.54783">
        <ele>958.5</ele>
        <time>2021-09-07T08:29:27Z</time>
      </trkpt>
      <trkpt lat="44.50429" lon="5.54782">
        <ele>958.6</ele>
        <time>2021-09-07T08:29:28Z</time>
      </trkpt>
      <trkpt lat="44.50428" lon="5.5478">
        <ele>958.7</ele>
        <time>2021-09-07T08:29:29Z</time>
      </trkpt>
      <trkpt lat="44.50427" lon="5.54778">
        <ele>958.8</ele>
        <time>2021-09-07T08:29:30Z</time>
      </trkpt>
      <trkpt lat="44.50427" lon="5.54776">
        <ele>958.9</ele>
        <time>2021-09-07T08:29:31Z</time>
      </trkpt>
      <trkpt lat="44.50426" lon="5.54773">
        <ele>959</ele>
        <time>2021-09-07T08:29:32Z</time>
      </trkpt>
      <trkpt lat="44.50426" lon="5.54771">
        <ele>959.1</ele>
        <time>2021-09-07T08:29:33Z</time>
      </trkpt>
      <trkpt lat="44.50426" lon="5.54768">
        <ele>959.3</ele>
        <time>2021-09-07T08:29:34Z</time>
      </trkpt>
      <trkpt lat="44.50427" lon="5.54763">
        <ele>959.5</ele>
        <time>2021-09-07T08:29:35Z</time>
      </trkpt>
      <trkpt lat="44.50428" lon="5.54761">
        <ele>959.6</ele>
        <time>2021-09-07T08:29:36Z</time>
      </trkpt>
      <trkpt lat="44.50428" lon="5.54759">
        <ele>959.7</ele>
        <time>2021-09-07T08:29:37Z</time>
      </trkpt>
      <trkpt lat="44.50429" lon="5.54757">
        <ele>959.8</ele>
        <time>2021-09-07T08:29:38Z</time>
      </trkpt>
      <trkpt lat="44.5043" lon="5.54756">
        <ele>959.9</ele>
        <time>2021-09-07T08:29:39Z</time>
      </trkpt>
      <trkpt lat="44.5043" lon="5.54754">
        <ele>959.9</ele>
        <time>2021-09-07T08:29:40Z</time>
      </trkpt>
      <trkpt lat="44.5043" lon="5.5475">
        <ele>960.1</ele>
        <time>2021-09-07T08:29:41Z</time>
      </trkpt>
      <trkpt lat="44.5043" lon="5.54748">
        <ele>960.2</ele>
        <time>2021-09-07T08:29:42Z</time>
      </trkpt>
      <trkpt lat="44.5043" lon="5.54746">
        <ele>960.3</ele>
        <time>2021-09-07T08:29:43Z</time>
      </trkpt>
      <trkpt lat="44.5043" lon="5.54744">
        <ele>960.4</ele>
        <time>2021-09-07T08:29:44Z</time>
      </trkpt>
      <trkpt lat="44.5043" lon="5.54742">
        <ele>960.5</ele>
        <time>2021-09-07T08:29:45Z</time>
      </trkpt>
      <trkpt lat="44.5043" lon="5.5474">
        <ele>960.6</ele>
        <time>2021-09-07T08:29:46Z</time>
      </trkpt>
      <trkpt lat="44.5043" lon="5.54735">
        <ele>960.8</ele>
        <time>2021-09-07T08:29:47Z</time>
      </trkpt>
      <trkpt lat="44.5043" lon="5.54733">
        <ele>960.9</ele>
        <time>2021-09-07T08:29:48Z</time>
      </trkpt>
      <trkpt lat="44.50429" lon="5.54731">
        <ele>961</ele>
        <time>2021-09-07T08:29:49Z</time>
      </trkpt>
      <trkpt lat="44.50428" lon="5.54729">
        <ele>961.1</ele>
        <time>2021-09-07T08:29:50Z</time>
      </trkpt>
      <trkpt lat="44.50427" lon="5.54727">
        <ele>961.2</ele>
        <time>2021-09-07T08:29:51Z</time>
      </trkpt>
      <trkpt lat="44.50426" lon="5.54723">
        <ele>961.4</ele>
        <time>2021-09-07T08:29:52Z</time>
      </trkpt>
      <trkpt lat="44.50425" lon="5.5472">
        <ele>961.6</ele>
        <time>2021-09-07T08:29:53Z</time>
      </trkpt>
      <trkpt lat="44.50425" lon="5.54718">
        <ele>961.7</ele>
        <time>2021-09-07T08:29:54Z</time>
      </trkpt>
      <trkpt lat="44.50425" lon="5.54716">
        <ele>961.8</ele>
        <time>2021-09-07T08:29:55Z</time>
      </trkpt>
      <trkpt lat="44.50426" lon="5.54716">
        <ele>961.9</ele>
        <time>2021-09-07T08:29:56Z</time>
      </trkpt>
      <trkpt lat="44.50426" lon="5.54715">
        <ele>961.9</ele>
        <time>2021-09-07T08:29:57Z</time>
      </trkpt>
      <trkpt lat="44.50426" lon="5.54713">
        <ele>962</ele>
        <time>2021-09-07T08:29:58Z</time>
      </trkpt>
      <trkpt lat="44.50426" lon="5.54712">
        <ele>962.1</ele>
        <time>2021-09-07T08:29:59Z</time>
      </trkpt>
      <trkpt lat="44.50426" lon="5.5471">
        <ele>962.2</ele>
        <time>2021-09-07T08:30:00Z</time>
      </trkpt>
      <trkpt lat="44.50426" lon="5.54707">
        <ele>962.3</ele>
        <time>2021-09-07T08:30:01Z</time>
      </trkpt>
      <trkpt lat="44.50426" lon="5.54702">
        <ele>962.6</ele>
        <time>2021-09-07T08:30:02Z</time>
      </trkpt>
      <trkpt lat="44.50425" lon="5.54695">
        <ele>963</ele>
        <time>2021-09-07T08:30:03Z</time>
      </trkpt>
      <trkpt lat="44.50424" lon="5.54691">
        <ele>963.3</ele>
        <time>2021-09-07T08:30:04Z</time>
      </trkpt>
      <trkpt lat="44.50423" lon="5.54687">
        <ele>963.5</ele>
        <time>2021-09-07T08:30:05Z</time>
      </trkpt>
      <trkpt lat="44.50423" lon="5.54683">
        <ele>963.8</ele>
        <time>2021-09-07T08:30:06Z</time>
      </trkpt>
      <trkpt lat="44.50423" lon="5.54678">
        <ele>964.1</ele>
        <time>2021-09-07T08:30:07Z</time>
      </trkpt>
      <trkpt lat="44.50423" lon="5.54672">
        <ele>964.4</ele>
        <time>2021-09-07T08:30:08Z</time>
      </trkpt>
      <trkpt lat="44.50423" lon="5.54668">
        <ele>964.6</ele>
        <time>2021-09-07T08:30:09Z</time>
      </trkpt>
      <trkpt lat="44.50424" lon="5.54666">
        <ele>964.8</ele>
        <time>2021-09-07T08:30:10Z</time>
      </trkpt>
      <trkpt lat="44.50424" lon="5.54663">
        <ele>964.9</ele>
        <time>2021-09-07T08:30:11Z</time>
      </trkpt>
      <trkpt lat="44.50424" lon="5.54662">
        <ele>965</ele>
        <time>2021-09-07T08:30:12Z</time>
      </trkpt>
      <trkpt lat="44.50424" lon="5.54661">
        <ele>965</ele>
        <time>2021-09-07T08:30:13Z</time>
      </trkpt>
      <trkpt lat="44.50424" lon="5.54656">
        <ele>965.3</ele>
        <time>2021-09-07T08:30:14Z</time>
      </trkpt>
      <trkpt lat="44.50425" lon="5.54655">
        <ele>965.4</ele>
        <time>2021-09-07T08:30:15Z</time>
      </trkpt>
      <trkpt lat="44.50426" lon="5.54652">
        <ele>965.6</ele>
        <time>2021-09-07T08:30:16Z</time>
      </trkpt>
      <trkpt lat="44.50427" lon="5.54649">
        <ele>965.8</ele>
        <time>2021-09-07T08:30:17Z</time>
      </trkpt>
      <trkpt lat="44.50429" lon="5.54647">
        <ele>966</ele>
        <time>2021-09-07T08:30:18Z</time>
      </trkpt>
      <trkpt lat="44.50431" lon="5.54645">
        <ele>966.2</ele>
        <time>2021-09-07T08:30:19Z</time>
      </trkpt>
      <trkpt lat="44.50433" lon="5.54643">
        <ele>966.4</ele>
        <time>2021-09-07T08:30:20Z</time>
      </trkpt>
      <trkpt lat="44.50437" lon="5.54641">
        <ele>966.7</ele>
        <time>2021-09-07T08:30:21Z</time>
      </trkpt>
      <trkpt lat="44.5044" lon="5.54641">
        <ele>966.9</ele>
        <time>2021-09-07T08:30:22Z</time>
      </trkpt>
      <trkpt lat="44.50443" lon="5.54641">
        <ele>967.1</ele>
        <time>2021-09-07T08:30:23Z</time>
      </trkpt>
      <trkpt lat="44.5045" lon="5.54642">
        <ele>967.7</ele>
        <time>2021-09-07T08:30:24Z</time>
      </trkpt>
      <trkpt lat="44.50455" lon="5.54641">
        <ele>968.1</ele>
        <time>2021-09-07T08:30:25Z</time>
      </trkpt>
      <trkpt lat="44.50458" lon="5.5464">
        <ele>968.3</ele>
        <time>2021-09-07T08:30:26Z</time>
      </trkpt>
      <trkpt lat="44.50459" lon="5.54639">
        <ele>968.4</ele>
        <time>2021-09-07T08:30:27Z</time>
      </trkpt>
      <trkpt lat="44.5046" lon="5.54638">
        <ele>968.5</ele>
        <time>2021-09-07T08:30:28Z</time>
      </trkpt>
      <trkpt lat="44.50461" lon="5.54635">
        <ele>968.7</ele>
        <time>2021-09-07T08:30:29Z</time>
      </trkpt>
      <trkpt lat="44.50461" lon="5.54633">
        <ele>968.8</ele>
        <time>2021-09-07T08:30:30Z</time>
      </trkpt>
      <trkpt lat="44.50461" lon="5.54632">
        <ele>968.8</ele>
        <time>2021-09-07T08:30:31Z</time>
      </trkpt>
      <trkpt lat="44.5046" lon="5.54631">
        <ele>968.9</ele>
        <time>2021-09-07T08:30:32Z</time>
      </trkpt>
      <trkpt lat="44.50458" lon="5.54627">
        <ele>969.1</ele>
        <time>2021-09-07T08:30:33Z</time>
      </trkpt>
      <trkpt lat="44.50456" lon="5.54625">
        <ele>969.3</ele>
        <time>2021-09-07T08:30:34Z</time>
      </trkpt>
      <trkpt lat="44.50455" lon="5.54623">
        <ele>969.4</ele>
        <time>2021-09-07T08:30:35Z</time>
      </trkpt>
      <trkpt lat="44.50453" lon="5.5462">
        <ele>969.6</ele>
        <time>2021-09-07T08:30:36Z</time>
      </trkpt>
      <trkpt lat="44.50452" lon="5.54617">
        <ele>969.7</ele>
        <time>2021-09-07T08:30:37Z</time>
      </trkpt>
      <trkpt lat="44.5045" lon="5.54614">
        <ele>969.9</ele>
        <time>2021-09-07T08:30:38Z</time>
      </trkpt>
      <trkpt lat="44.50448" lon="5.54612">
        <ele>970</ele>
        <time>2021-09-07T08:30:39Z</time>
      </trkpt>
      <trkpt lat="44.50448" lon="5.54611">
        <ele>970.1</ele>
        <time>2021-09-07T08:30:40Z</time>
      </trkpt>
      <trkpt lat="44.50448" lon="5.54611">
        <ele>970.1</ele>
        <time>2021-09-07T08:30:41Z</time>
      </trkpt>
      <trkpt lat="44.50448" lon="5.54611">
        <ele>970.1</ele>
        <time>2021-09-07T08:30:42Z</time>
      </trkpt>
      <trkpt lat="44.50448" lon="5.5461">
        <ele>970.1</ele>
        <time>2021-09-07T08:30:43Z</time>
      </trkpt>
      <trkpt lat="44.50448" lon="5.54609">
        <ele>970.1</ele>
        <time>2021-09-07T08:30:44Z</time>
      </trkpt>
      <trkpt lat="44.50451" lon="5.54606">
        <ele>970.3</ele>
        <time>2021-09-07T08:30:45Z</time>
      </trkpt>
      <trkpt lat="44.50452" lon="5.54605">
        <ele>970.4</ele>
        <time>2021-09-07T08:30:46Z</time>
      </trkpt>
      <trkpt lat="44.50453" lon="5.54603">
        <ele>970.5</ele>
        <time>2021-09-07T08:30:47Z</time>
      </trkpt>
      <trkpt lat="44.50455" lon="5.54601">
        <ele>970.6</ele>
        <time>2021-09-07T08:30:48Z</time>
      </trkpt>
      <trkpt lat="44.50458" lon="5.54601">
        <ele>970.8</ele>
        <time>2021-09-07T08:30:49Z</time>
      </trkpt>
      <trkpt lat="44.5046" lon="5.54601">
        <ele>970.9</ele>
        <time>2021-09-07T08:30:50Z</time>
      </trkpt>
      <trkpt lat="44.50461" lon="5.54601">
        <ele>971</ele>
        <time>2021-09-07T08:30:51Z</time>
      </trkpt>
      <trkpt lat="44.50462" lon="5.546">
        <ele>971</ele>
        <time>2021-09-07T08:30:52Z</time>
      </trkpt>
      <trkpt lat="44.50463" lon="5.54599">
        <ele>971.1</ele>
        <time>2021-09-07T08:30:53Z</time>
      </trkpt>
      <trkpt lat="44.50465" lon="5.54599">
        <ele>971.2</ele>
        <time>2021-09-07T08:30:54Z</time>
      </trkpt>
      <trkpt lat="44.50466" lon="5.54598">
        <ele>971.3</ele>
        <time>2021-09-07T08:30:55Z</time>
      </trkpt>
      <trkpt lat="44.50467" lon="5.54597">
        <ele>971.3</ele>
        <time>2021-09-07T08:30:56Z</time>
      </trkpt>
      <trkpt lat="44.50468" lon="5.54596">
        <ele>971.4</ele>
        <time>2021-09-07T08:30:57Z</time>
      </trkpt>
      <trkpt lat="44.50468" lon="5.54594">
        <ele>971.4</ele>
        <time>2021-09-07T08:30:58Z</time>
      </trkpt>
      <trkpt lat="44.50468" lon="5.54592">
        <ele>971.5</ele>
        <time>2021-09-07T08:30:59Z</time>
      </trkpt>
      <trkpt lat="44.50468" lon="5.5459">
        <ele>971.6</ele>
        <time>2021-09-07T08:31:00Z</time>
      </trkpt>
      <trkpt lat="44.50468" lon="5.54588">
        <ele>971.7</ele>
        <time>2021-09-07T08:31:01Z</time>
      </trkpt>
      <trkpt lat="44.50468" lon="5.54586">
        <ele>971.8</ele>
        <time>2021-09-07T08:31:02Z</time>
      </trkpt>
      <trkpt lat="44.5047" lon="5.54581">
        <ele>972</ele>
        <time>2021-09-07T08:31:03Z</time>
      </trkpt>
      <trkpt lat="44.50471" lon="5.54578">
        <ele>972.1</ele>
        <time>2021-09-07T08:31:04Z</time>
      </trkpt>
      <trkpt lat="44.50472" lon="5.54574">
        <ele>972.3</ele>
        <time>2021-09-07T08:31:05Z</time>
      </trkpt>
      <trkpt lat="44.50471" lon="5.54569">
        <ele>972.5</ele>
        <time>2021-09-07T08:31:06Z</time>
      </trkpt>
      <trkpt lat="44.50471" lon="5.54566">
        <ele>972.6</ele>
        <time>2021-09-07T08:31:07Z</time>
      </trkpt>
      <trkpt lat="44.5047" lon="5.54563">
        <ele>972.7</ele>
        <time>2021-09-07T08:31:08Z</time>
      </trkpt>
      <trkpt lat="44.50469" lon="5.54558">
        <ele>972.9</ele>
        <time>2021-09-07T08:31:09Z</time>
      </trkpt>
      <trkpt lat="44.50468" lon="5.54555">
        <ele>973.1</ele>
        <time>2021-09-07T08:31:10Z</time>
      </trkpt>
      <trkpt lat="44.50465" lon="5.54551">
        <ele>973.3</ele>
        <time>2021-09-07T08:31:11Z</time>
      </trkpt>
      <trkpt lat="44.50464" lon="5.54549">
        <ele>973.4</ele>
        <time>2021-09-07T08:31:12Z</time>
      </trkpt>
      <trkpt lat="44.50463" lon="5.54547">
        <ele>973.5</ele>
        <time>2021-09-07T08:31:13Z</time>
      </trkpt>
      <trkpt lat="44.50462" lon="5.54543">
        <ele>973.6</ele>
        <time>2021-09-07T08:31:14Z</time>
      </trkpt>
      <trkpt lat="44.50463" lon="5.54542">
        <ele>973.7</ele>
        <time>2021-09-07T08:31:15Z</time>
      </trkpt>
      <trkpt lat="44.50463" lon="5.5454">
        <ele>973.8</ele>
        <time>2021-09-07T08:31:16Z</time>
      </trkpt>
      <trkpt lat="44.50465" lon="5.54536">
        <ele>973.9</ele>
        <time>2021-09-07T08:31:17Z</time>
      </trkpt>
      <trkpt lat="44.50466" lon="5.54534">
        <ele>974</ele>
        <time>2021-09-07T08:31:18Z</time>
      </trkpt>
      <trkpt lat="44.50466" lon="5.54532">
        <ele>974.1</ele>
        <time>2021-09-07T08:31:19Z</time>
      </trkpt>
      <trkpt lat="44.50467" lon="5.54528">
        <ele>974.3</ele>
        <time>2021-09-07T08:31:20Z</time>
      </trkpt>
      <trkpt lat="44.50468" lon="5.54526">
        <ele>974.4</ele>
        <time>2021-09-07T08:31:21Z</time>
      </trkpt>
      <trkpt lat="44.50468" lon="5.54523">
        <ele>974.5</ele>
        <time>2021-09-07T08:31:22Z</time>
      </trkpt>
      <trkpt lat="44.50468" lon="5.54521">
        <ele>974.6</ele>
        <time>2021-09-07T08:31:23Z</time>
      </trkpt>
      <trkpt lat="44.50467" lon="5.54519">
        <ele>974.6</ele>
        <time>2021-09-07T08:31:24Z</time>
      </trkpt>
      <trkpt lat="44.50465" lon="5.54515">
        <ele>974.8</ele>
        <time>2021-09-07T08:31:25Z</time>
      </trkpt>
      <trkpt lat="44.50464" lon="5.54512">
        <ele>975</ele>
        <time>2021-09-07T08:31:26Z</time>
      </trkpt>
      <trkpt lat="44.50464" lon="5.5451">
        <ele>975</ele>
        <time>2021-09-07T08:31:27Z</time>
      </trkpt>
      <trkpt lat="44.50463" lon="5.54508">
        <ele>975.1</ele>
        <time>2021-09-07T08:31:28Z</time>
      </trkpt>
      <trkpt lat="44.50463" lon="5.54504">
        <ele>975.3</ele>
        <time>2021-09-07T08:31:29Z</time>
      </trkpt>
      <trkpt lat="44.50463" lon="5.54502">
        <ele>975.4</ele>
        <time>2021-09-07T08:31:30Z</time>
      </trkpt>
      <trkpt lat="44.50463" lon="5.545">
        <ele>975.5</ele>
        <time>2021-09-07T08:31:31Z</time>
      </trkpt>
      <trkpt lat="44.50463" lon="5.54498">
        <ele>975.5</ele>
        <time>2021-09-07T08:31:32Z</time>
      </trkpt>
      <trkpt lat="44.50463" lon="5.54496">
        <ele>975.6</ele>
        <time>2021-09-07T08:31:33Z</time>
      </trkpt>
      <trkpt lat="44.50464" lon="5.54493">
        <ele>975.8</ele>
        <time>2021-09-07T08:31:34Z</time>
      </trkpt>
      <trkpt lat="44.50465" lon="5.54491">
        <ele>975.8</ele>
        <time>2021-09-07T08:31:35Z</time>
      </trkpt>
      <trkpt lat="44.50465" lon="5.54489">
        <ele>975.9</ele>
        <time>2021-09-07T08:31:36Z</time>
      </trkpt>
      <trkpt lat="44.50465" lon="5.54487">
        <ele>976</ele>
        <time>2021-09-07T08:31:37Z</time>
      </trkpt>
      <trkpt lat="44.50465" lon="5.54487">
        <ele>976.1</ele>
        <time>2021-09-07T08:31:38Z</time>
      </trkpt>
      <trkpt lat="44.50464" lon="5.54486">
        <ele>976.1</ele>
        <time>2021-09-07T08:31:39Z</time>
      </trkpt>
      <trkpt lat="44.50464" lon="5.54485">
        <ele>976.2</ele>
        <time>2021-09-07T08:31:40Z</time>
      </trkpt>
      <trkpt lat="44.50464" lon="5.54483">
        <ele>976.2</ele>
        <time>2021-09-07T08:31:41Z</time>
      </trkpt>
      <trkpt lat="44.50463" lon="5.54481">
        <ele>976.3</ele>
        <time>2021-09-07T08:31:42Z</time>
      </trkpt>
      <trkpt lat="44.50464" lon="5.54479">
        <ele>976.4</ele>
        <time>2021-09-07T08:31:43Z</time>
      </trkpt>
      <trkpt lat="44.50464" lon="5.54477">
        <ele>976.5</ele>
        <time>2021-09-07T08:31:44Z</time>
      </trkpt>
      <trkpt lat="44.50464" lon="5.54475">
        <ele>976.6</ele>
        <time>2021-09-07T08:31:45Z</time>
      </trkpt>
      <trkpt lat="44.50464" lon="5.54473">
        <ele>976.7</ele>
        <time>2021-09-07T08:31:46Z</time>
      </trkpt>
      <trkpt lat="44.50463" lon="5.5447">
        <ele>976.8</ele>
        <time>2021-09-07T08:31:47Z</time>
      </trkpt>
      <trkpt lat="44.50462" lon="5.54466">
        <ele>977</ele>
        <time>2021-09-07T08:31:48Z</time>
      </trkpt>
      <trkpt lat="44.50462" lon="5.54464">
        <ele>977.1</ele>
        <time>2021-09-07T08:31:49Z</time>
      </trkpt>
      <trkpt lat="44.50462" lon="5.54461">
        <ele>977.2</ele>
        <time>2021-09-07T08:31:50Z</time>
      </trkpt>
      <trkpt lat="44.50461" lon="5.54457">
        <ele>977.4</ele>
        <time>2021-09-07T08:31:51Z</time>
      </trkpt>
      <trkpt lat="44.50461" lon="5.54455">
        <ele>977.5</ele>
        <time>2021-09-07T08:31:52Z</time>
      </trkpt>
      <trkpt lat="44.50461" lon="5.54452">
        <ele>977.6</ele>
        <time>2021-09-07T08:31:53Z</time>
      </trkpt>
      <trkpt lat="44.50463" lon="5.54448">
        <ele>977.9</ele>
        <time>2021-09-07T08:31:54Z</time>
      </trkpt>
      <trkpt lat="44.50465" lon="5.54445">
        <ele>978</ele>
        <time>2021-09-07T08:31:55Z</time>
      </trkpt>
      <trkpt lat="44.50467" lon="5.54442">
        <ele>978.2</ele>
        <time>2021-09-07T08:31:56Z</time>
      </trkpt>
      <trkpt lat="44.50468" lon="5.54438">
        <ele>978.4</ele>
        <time>2021-09-07T08:31:57Z</time>
      </trkpt>
      <trkpt lat="44.50469" lon="5.54436">
        <ele>978.5</ele>
        <time>2021-09-07T08:31:58Z</time>
      </trkpt>
      <trkpt lat="44.50469" lon="5.54433">
        <ele>978.7</ele>
        <time>2021-09-07T08:31:59Z</time>
      </trkpt>
      <trkpt lat="44.50469" lon="5.5443">
        <ele>978.8</ele>
        <time>2021-09-07T08:32:00Z</time>
      </trkpt>
      <trkpt lat="44.5047" lon="5.54429">
        <ele>978.8</ele>
        <time>2021-09-07T08:32:01Z</time>
      </trkpt>
      <trkpt lat="44.5047" lon="5.54428">
        <ele>978.9</ele>
        <time>2021-09-07T08:32:02Z</time>
      </trkpt>
      <trkpt lat="44.50471" lon="5.54426">
        <ele>979</ele>
        <time>2021-09-07T08:32:03Z</time>
      </trkpt>
      <trkpt lat="44.50472" lon="5.54424">
        <ele>979.1</ele>
        <time>2021-09-07T08:32:04Z</time>
      </trkpt>
      <trkpt lat="44.50473" lon="5.54423">
        <ele>979.2</ele>
        <time>2021-09-07T08:32:05Z</time>
      </trkpt>
      <trkpt lat="44.50473" lon="5.54421">
        <ele>979.2</ele>
        <time>2021-09-07T08:32:06Z</time>
      </trkpt>
      <trkpt lat="44.50474" lon="5.54418">
        <ele>979.4</ele>
        <time>2021-09-07T08:32:07Z</time>
      </trkpt>
      <trkpt lat="44.50474" lon="5.54417">
        <ele>979.4</ele>
        <time>2021-09-07T08:32:08Z</time>
      </trkpt>
      <trkpt lat="44.50474" lon="5.54415">
        <ele>979.5</ele>
        <time>2021-09-07T08:32:09Z</time>
      </trkpt>
      <trkpt lat="44.50474" lon="5.54412">
        <ele>979.6</ele>
        <time>2021-09-07T08:32:10Z</time>
      </trkpt>
      <trkpt lat="44.50475" lon="5.54409">
        <ele>979.7</ele>
        <time>2021-09-07T08:32:11Z</time>
      </trkpt>
      <trkpt lat="44.50475" lon="5.54407">
        <ele>979.8</ele>
        <time>2021-09-07T08:32:12Z</time>
      </trkpt>
      <trkpt lat="44.50475" lon="5.54405">
        <ele>979.9</ele>
        <time>2021-09-07T08:32:13Z</time>
      </trkpt>
      <trkpt lat="44.50475" lon="5.54403">
        <ele>979.9</ele>
        <time>2021-09-07T08:32:14Z</time>
      </trkpt>
      <trkpt lat="44.50474" lon="5.54401">
        <ele>980</ele>
        <time>2021-09-07T08:32:15Z</time>
      </trkpt>
      <trkpt lat="44.50473" lon="5.544">
        <ele>980.1</ele>
        <time>2021-09-07T08:32:16Z</time>
      </trkpt>
      <trkpt lat="44.50471" lon="5.54398">
        <ele>980.2</ele>
        <time>2021-09-07T08:32:17Z</time>
      </trkpt>
      <trkpt lat="44.50469" lon="5.54396">
        <ele>980.3</ele>
        <time>2021-09-07T08:32:18Z</time>
      </trkpt>
      <trkpt lat="44.50468" lon="5.54395">
        <ele>980.4</ele>
        <time>2021-09-07T08:32:19Z</time>
      </trkpt>
      <trkpt lat="44.50466" lon="5.54393">
        <ele>980.5</ele>
        <time>2021-09-07T08:32:20Z</time>
      </trkpt>
      <trkpt lat="44.50466" lon="5.54391">
        <ele>980.6</ele>
        <time>2021-09-07T08:32:21Z</time>
      </trkpt>
      <trkpt lat="44.50466" lon="5.54389">
        <ele>980.7</ele>
        <time>2021-09-07T08:32:22Z</time>
      </trkpt>
      <trkpt lat="44.50466" lon="5.54386">
        <ele>980.8</ele>
        <time>2021-09-07T08:32:23Z</time>
      </trkpt>
      <trkpt lat="44.50467" lon="5.54383">
        <ele>980.9</ele>
        <time>2021-09-07T08:32:24Z</time>
      </trkpt>
      <trkpt lat="44.50467" lon="5.54382">
        <ele>980.9</ele>
        <time>2021-09-07T08:32:25Z</time>
      </trkpt>
      <trkpt lat="44.50467" lon="5.54381">
        <ele>981</ele>
        <time>2021-09-07T08:32:26Z</time>
      </trkpt>
      <trkpt lat="44.50468" lon="5.54378">
        <ele>981.1</ele>
        <time>2021-09-07T08:32:27Z</time>
      </trkpt>
      <trkpt lat="44.50468" lon="5.54376">
        <ele>981.2</ele>
        <time>2021-09-07T08:32:28Z</time>
      </trkpt>
      <trkpt lat="44.50468" lon="5.54374">
        <ele>981.2</ele>
        <time>2021-09-07T08:32:29Z</time>
      </trkpt>
      <trkpt lat="44.5047" lon="5.54369">
        <ele>981.4</ele>
        <time>2021-09-07T08:32:30Z</time>
      </trkpt>
      <trkpt lat="44.50471" lon="5.54367">
        <ele>981.5</ele>
        <time>2021-09-07T08:32:31Z</time>
      </trkpt>
      <trkpt lat="44.50472" lon="5.54364">
        <ele>981.6</ele>
        <time>2021-09-07T08:32:32Z</time>
      </trkpt>
      <trkpt lat="44.50472" lon="5.54359">
        <ele>981.8</ele>
        <time>2021-09-07T08:32:33Z</time>
      </trkpt>
      <trkpt lat="44.50472" lon="5.54358">
        <ele>981.8</ele>
        <time>2021-09-07T08:32:34Z</time>
      </trkpt>
      <trkpt lat="44.50473" lon="5.54358">
        <ele>981.9</ele>
        <time>2021-09-07T08:32:35Z</time>
      </trkpt>
      <trkpt lat="44.50473" lon="5.54357">
        <ele>981.9</ele>
        <time>2021-09-07T08:32:36Z</time>
      </trkpt>
      <trkpt lat="44.50472" lon="5.54352">
        <ele>982</ele>
        <time>2021-09-07T08:32:37Z</time>
      </trkpt>
      <trkpt lat="44.50473" lon="5.5435">
        <ele>982.1</ele>
        <time>2021-09-07T08:32:38Z</time>
      </trkpt>
      <trkpt lat="44.50473" lon="5.54348">
        <ele>982.2</ele>
        <time>2021-09-07T08:32:39Z</time>
      </trkpt>
      <trkpt lat="44.50474" lon="5.54345">
        <ele>982.3</ele>
        <time>2021-09-07T08:32:40Z</time>
      </trkpt>
      <trkpt lat="44.50474" lon="5.54345">
        <ele>982.3</ele>
        <time>2021-09-07T08:32:41Z</time>
      </trkpt>
      <trkpt lat="44.50474" lon="5.54344">
        <ele>982.3</ele>
        <time>2021-09-07T08:32:42Z</time>
      </trkpt>
      <trkpt lat="44.50474" lon="5.54343">
        <ele>982.3</ele>
        <time>2021-09-07T08:32:43Z</time>
      </trkpt>
      <trkpt lat="44.50474" lon="5.54343">
        <ele>982.3</ele>
        <time>2021-09-07T08:32:44Z</time>
      </trkpt>
      <trkpt lat="44.50474" lon="5.54342">
        <ele>982.3</ele>
        <time>2021-09-07T08:32:45Z</time>
      </trkpt>
      <trkpt lat="44.50474" lon="5.54342">
        <ele>982.3</ele>
        <time>2021-09-07T08:32:46Z</time>
      </trkpt>
      <trkpt lat="44.50475" lon="5.54341">
        <ele>982.4</ele>
        <time>2021-09-07T08:32:47Z</time>
      </trkpt>
      <trkpt lat="44.50475" lon="5.54339">
        <ele>982.4</ele>
        <time>2021-09-07T08:32:48Z</time>
      </trkpt>
      <trkpt lat="44.50476" lon="5.54337">
        <ele>982.5</ele>
        <time>2021-09-07T08:32:49Z</time>
      </trkpt>
      <trkpt lat="44.50477" lon="5.54332">
        <ele>982.6</ele>
        <time>2021-09-07T08:32:50Z</time>
      </trkpt>
      <trkpt lat="44.50478" lon="5.54327">
        <ele>982.7</ele>
        <time>2021-09-07T08:32:51Z</time>
      </trkpt>
      <trkpt lat="44.50482" lon="5.54322">
        <ele>982.9</ele>
        <time>2021-09-07T08:32:52Z</time>
      </trkpt>
      <trkpt lat="44.50486" lon="5.54319">
        <ele>982.9</ele>
        <time>2021-09-07T08:32:53Z</time>
      </trkpt>
      <trkpt lat="44.50489" lon="5.54315">
        <ele>983</ele>
        <time>2021-09-07T08:32:54Z</time>
      </trkpt>
      <trkpt lat="44.50492" lon="5.54313">
        <ele>983.1</ele>
        <time>2021-09-07T08:32:55Z</time>
      </trkpt>
      <trkpt lat="44.50494" lon="5.5431">
        <ele>983.1</ele>
        <time>2021-09-07T08:32:56Z</time>
      </trkpt>
      <trkpt lat="44.50499" lon="5.54304">
        <ele>983.2</ele>
        <time>2021-09-07T08:32:57Z</time>
      </trkpt>
      <trkpt lat="44.50501" lon="5.54301">
        <ele>983.2</ele>
        <time>2021-09-07T08:32:58Z</time>
      </trkpt>
      <trkpt lat="44.50503" lon="5.54298">
        <ele>983.2</ele>
        <time>2021-09-07T08:32:59Z</time>
      </trkpt>
      <trkpt lat="44.50505" lon="5.54294">
        <ele>983.3</ele>
        <time>2021-09-07T08:33:00Z</time>
      </trkpt>
      <trkpt lat="44.50508" lon="5.54291">
        <ele>983.3</ele>
        <time>2021-09-07T08:33:01Z</time>
      </trkpt>
      <trkpt lat="44.5051" lon="5.54287">
        <ele>983.3</ele>
        <time>2021-09-07T08:33:02Z</time>
      </trkpt>
      <trkpt lat="44.50511" lon="5.54284">
        <ele>983.4</ele>
        <time>2021-09-07T08:33:03Z</time>
      </trkpt>
      <trkpt lat="44.50513" lon="5.54282">
        <ele>983.4</ele>
        <time>2021-09-07T08:33:04Z</time>
      </trkpt>
      <trkpt lat="44.50515" lon="5.54281">
        <ele>983.4</ele>
        <time>2021-09-07T08:33:05Z</time>
      </trkpt>
      <trkpt lat="44.50517" lon="5.54279">
        <ele>983.4</ele>
        <time>2021-09-07T08:33:06Z</time>
      </trkpt>
      <trkpt lat="44.50519" lon="5.54276">
        <ele>983.5</ele>
        <time>2021-09-07T08:33:07Z</time>
      </trkpt>
      <trkpt lat="44.50519" lon="5.54272">
        <ele>983.5</ele>
        <time>2021-09-07T08:33:08Z</time>
      </trkpt>
      <trkpt lat="44.50519" lon="5.54268">
        <ele>983.5</ele>
        <time>2021-09-07T08:33:09Z</time>
      </trkpt>
      <trkpt lat="44.50519" lon="5.54266">
        <ele>983.6</ele>
        <time>2021-09-07T08:33:10Z</time>
      </trkpt>
      <trkpt lat="44.50519" lon="5.54263">
        <ele>983.6</ele>
        <time>2021-09-07T08:33:11Z</time>
      </trkpt>
      <trkpt lat="44.50519" lon="5.54257">
        <ele>983.6</ele>
        <time>2021-09-07T08:33:12Z</time>
      </trkpt>
      <trkpt lat="44.50519" lon="5.54252">
        <ele>983.7</ele>
        <time>2021-09-07T08:33:13Z</time>
      </trkpt>
      <trkpt lat="44.5052" lon="5.54247">
        <ele>983.7</ele>
        <time>2021-09-07T08:33:14Z</time>
      </trkpt>
      <trkpt lat="44.50521" lon="5.54241">
        <ele>983.8</ele>
        <time>2021-09-07T08:33:15Z</time>
      </trkpt>
      <trkpt lat="44.50523" lon="5.54238">
        <ele>983.8</ele>
        <time>2021-09-07T08:33:16Z</time>
      </trkpt>
      <trkpt lat="44.50524" lon="5.54235">
        <ele>983.8</ele>
        <time>2021-09-07T08:33:17Z</time>
      </trkpt>
      <trkpt lat="44.50525" lon="5.54231">
        <ele>983.9</ele>
        <time>2021-09-07T08:33:18Z</time>
      </trkpt>
      <trkpt lat="44.50527" lon="5.54227">
        <ele>983.9</ele>
        <time>2021-09-07T08:33:19Z</time>
      </trkpt>
      <trkpt lat="44.50528" lon="5.54224">
        <ele>983.9</ele>
        <time>2021-09-07T08:33:20Z</time>
      </trkpt>
      <trkpt lat="44.50529" lon="5.54221">
        <ele>984</ele>
        <time>2021-09-07T08:33:21Z</time>
      </trkpt>
      <trkpt lat="44.50533" lon="5.54215">
        <ele>984</ele>
        <time>2021-09-07T08:33:22Z</time>
      </trkpt>
      <trkpt lat="44.50536" lon="5.54211">
        <ele>984.1</ele>
        <time>2021-09-07T08:33:23Z</time>
      </trkpt>
      <trkpt lat="44.50538" lon="5.54207">
        <ele>984.2</ele>
        <time>2021-09-07T08:33:24Z</time>
      </trkpt>
      <trkpt lat="44.50544" lon="5.54203">
        <ele>984.3</ele>
        <time>2021-09-07T08:33:25Z</time>
      </trkpt>
      <trkpt lat="44.50549" lon="5.54201">
        <ele>984.4</ele>
        <time>2021-09-07T08:33:26Z</time>
      </trkpt>
      <trkpt lat="44.50554" lon="5.54197">
        <ele>984.6</ele>
        <time>2021-09-07T08:33:27Z</time>
      </trkpt>
      <trkpt lat="44.50559" lon="5.54193">
        <ele>984.8</ele>
        <time>2021-09-07T08:33:28Z</time>
      </trkpt>
      <trkpt lat="44.50565" lon="5.54189">
        <ele>985</ele>
        <time>2021-09-07T08:33:29Z</time>
      </trkpt>
      <trkpt lat="44.50568" lon="5.54186">
        <ele>985.1</ele>
        <time>2021-09-07T08:33:30Z</time>
      </trkpt>
      <trkpt lat="44.50571" lon="5.54182">
        <ele>985.3</ele>
        <time>2021-09-07T08:33:31Z</time>
      </trkpt>
      <trkpt lat="44.50573" lon="5.54179">
        <ele>985.4</ele>
        <time>2021-09-07T08:33:32Z</time>
      </trkpt>
      <trkpt lat="44.50575" lon="5.54175">
        <ele>985.5</ele>
        <time>2021-09-07T08:33:33Z</time>
      </trkpt>
      <trkpt lat="44.50576" lon="5.5417">
        <ele>985.6</ele>
        <time>2021-09-07T08:33:34Z</time>
      </trkpt>
      <trkpt lat="44.50577" lon="5.54167">
        <ele>985.7</ele>
        <time>2021-09-07T08:33:35Z</time>
      </trkpt>
      <trkpt lat="44.50577" lon="5.54164">
        <ele>985.8</ele>
        <time>2021-09-07T08:33:36Z</time>
      </trkpt>
      <trkpt lat="44.50578" lon="5.54159">
        <ele>986</ele>
        <time>2021-09-07T08:33:37Z</time>
      </trkpt>
      <trkpt lat="44.50577" lon="5.54155">
        <ele>986.1</ele>
        <time>2021-09-07T08:33:38Z</time>
      </trkpt>
      <trkpt lat="44.50577" lon="5.54152">
        <ele>986.2</ele>
        <time>2021-09-07T08:33:39Z</time>
      </trkpt>
      <trkpt lat="44.50576" lon="5.54148">
        <ele>986.4</ele>
        <time>2021-09-07T08:33:40Z</time>
      </trkpt>
      <trkpt lat="44.50577" lon="5.54144">
        <ele>986.5</ele>
        <time>2021-09-07T08:33:41Z</time>
      </trkpt>
      <trkpt lat="44.50577" lon="5.54141">
        <ele>986.7</ele>
        <time>2021-09-07T08:33:42Z</time>
      </trkpt>
      <trkpt lat="44.50577" lon="5.54137">
        <ele>986.8</ele>
        <time>2021-09-07T08:33:43Z</time>
      </trkpt>
      <trkpt lat="44.50576" lon="5.54134">
        <ele>986.9</ele>
        <time>2021-09-07T08:33:44Z</time>
      </trkpt>
      <trkpt lat="44.50576" lon="5.5413">
        <ele>987.1</ele>
        <time>2021-09-07T08:33:45Z</time>
      </trkpt>
      <trkpt lat="44.50576" lon="5.5413">
        <ele>987.1</ele>
        <time>2021-09-07T08:33:46Z</time>
      </trkpt>
      <trkpt lat="44.50576" lon="5.5413">
        <ele>987.1</ele>
        <time>2021-09-07T08:33:47Z</time>
      </trkpt>
      <trkpt lat="44.50574" lon="5.54129">
        <ele>987.2</ele>
        <time>2021-09-07T08:33:48Z</time>
      </trkpt>
      <trkpt lat="44.50574" lon="5.54126">
        <ele>987.4</ele>
        <time>2021-09-07T08:33:49Z</time>
      </trkpt>
      <trkpt lat="44.50574" lon="5.54123">
        <ele>987.5</ele>
        <time>2021-09-07T08:33:50Z</time>
      </trkpt>
      <trkpt lat="44.50574" lon="5.54122">
        <ele>987.6</ele>
        <time>2021-09-07T08:33:51Z</time>
      </trkpt>
      <trkpt lat="44.50573" lon="5.5412">
        <ele>987.6</ele>
        <time>2021-09-07T08:33:52Z</time>
      </trkpt>
      <trkpt lat="44.50571" lon="5.54116">
        <ele>987.8</ele>
        <time>2021-09-07T08:33:53Z</time>
      </trkpt>
      <trkpt lat="44.50569" lon="5.54114">
        <ele>988</ele>
        <time>2021-09-07T08:33:54Z</time>
      </trkpt>
      <trkpt lat="44.50567" lon="5.54111">
        <ele>988.2</ele>
        <time>2021-09-07T08:33:55Z</time>
      </trkpt>
      <trkpt lat="44.50564" lon="5.54107">
        <ele>988.4</ele>
        <time>2021-09-07T08:33:56Z</time>
      </trkpt>
      <trkpt lat="44.50561" lon="5.54104">
        <ele>988.6</ele>
        <time>2021-09-07T08:33:57Z</time>
      </trkpt>
      <trkpt lat="44.5056" lon="5.54102">
        <ele>988.8</ele>
        <time>2021-09-07T08:33:58Z</time>
      </trkpt>
      <trkpt lat="44.50558" lon="5.541">
        <ele>988.9</ele>
        <time>2021-09-07T08:33:59Z</time>
      </trkpt>
      <trkpt lat="44.50556" lon="5.54094">
        <ele>989.2</ele>
        <time>2021-09-07T08:34:00Z</time>
      </trkpt>
      <trkpt lat="44.50556" lon="5.54093">
        <ele>989.3</ele>
        <time>2021-09-07T08:34:01Z</time>
      </trkpt>
      <trkpt lat="44.50555" lon="5.54091">
        <ele>989.4</ele>
        <time>2021-09-07T08:34:02Z</time>
      </trkpt>
      <trkpt lat="44.50554" lon="5.54091">
        <ele>989.4</ele>
        <time>2021-09-07T08:34:03Z</time>
      </trkpt>
      <trkpt lat="44.50554" lon="5.54091">
        <ele>989.4</ele>
        <time>2021-09-07T08:34:04Z</time>
      </trkpt>
      <trkpt lat="44.50554" lon="5.54091">
        <ele>989.4</ele>
        <time>2021-09-07T08:34:05Z</time>
      </trkpt>
      <trkpt lat="44.50554" lon="5.5409">
        <ele>989.5</ele>
        <time>2021-09-07T08:34:06Z</time>
      </trkpt>
      <trkpt lat="44.50556" lon="5.5409">
        <ele>989.6</ele>
        <time>2021-09-07T08:34:07Z</time>
      </trkpt>
      <trkpt lat="44.50558" lon="5.54089">
        <ele>989.7</ele>
        <time>2021-09-07T08:34:08Z</time>
      </trkpt>
      <trkpt lat="44.50559" lon="5.54089">
        <ele>989.8</ele>
        <time>2021-09-07T08:34:09Z</time>
      </trkpt>
      <trkpt lat="44.5056" lon="5.54088">
        <ele>989.9</ele>
        <time>2021-09-07T08:34:10Z</time>
      </trkpt>
      <trkpt lat="44.50562" lon="5.54087">
        <ele>990</ele>
        <time>2021-09-07T08:34:11Z</time>
      </trkpt>
      <trkpt lat="44.50563" lon="5.54086">
        <ele>990.1</ele>
        <time>2021-09-07T08:34:12Z</time>
      </trkpt>
      <trkpt lat="44.50564" lon="5.54084">
        <ele>990.2</ele>
        <time>2021-09-07T08:34:13Z</time>
      </trkpt>
      <trkpt lat="44.50565" lon="5.54082">
        <ele>990.4</ele>
        <time>2021-09-07T08:34:14Z</time>
      </trkpt>
      <trkpt lat="44.50567" lon="5.54078">
        <ele>990.6</ele>
        <time>2021-09-07T08:34:15Z</time>
      </trkpt>
      <trkpt lat="44.50569" lon="5.54074">
        <ele>990.9</ele>
        <time>2021-09-07T08:34:16Z</time>
      </trkpt>
      <trkpt lat="44.50571" lon="5.54072">
        <ele>991</ele>
        <time>2021-09-07T08:34:17Z</time>
      </trkpt>
      <trkpt lat="44.50572" lon="5.5407">
        <ele>991.2</ele>
        <time>2021-09-07T08:34:18Z</time>
      </trkpt>
      <trkpt lat="44.50573" lon="5.54068">
        <ele>991.3</ele>
        <time>2021-09-07T08:34:19Z</time>
      </trkpt>
      <trkpt lat="44.50574" lon="5.54066">
        <ele>991.5</ele>
        <time>2021-09-07T08:34:20Z</time>
      </trkpt>
      <trkpt lat="44.50575" lon="5.54066">
        <ele>991.5</ele>
        <time>2021-09-07T08:34:21Z</time>
      </trkpt>
      <trkpt lat="44.50575" lon="5.54065">
        <ele>991.6</ele>
        <time>2021-09-07T08:34:22Z</time>
      </trkpt>
      <trkpt lat="44.50575" lon="5.54065">
        <ele>991.6</ele>
        <time>2021-09-07T08:34:23Z</time>
      </trkpt>
      <trkpt lat="44.50575" lon="5.54064">
        <ele>991.6</ele>
        <time>2021-09-07T08:34:24Z</time>
      </trkpt>
      <trkpt lat="44.50577" lon="5.54061">
        <ele>991.9</ele>
        <time>2021-09-07T08:34:25Z</time>
      </trkpt>
      <trkpt lat="44.5058" lon="5.54056">
        <ele>992.3</ele>
        <time>2021-09-07T08:34:26Z</time>
      </trkpt>
      <trkpt lat="44.50583" lon="5.54051">
        <ele>992.6</ele>
        <time>2021-09-07T08:34:27Z</time>
      </trkpt>
      <trkpt lat="44.50585" lon="5.54042">
        <ele>993.2</ele>
        <time>2021-09-07T08:34:28Z</time>
      </trkpt>
      <trkpt lat="44.50585" lon="5.54039">
        <ele>993.4</ele>
        <time>2021-09-07T08:34:29Z</time>
      </trkpt>
      <trkpt lat="44.50585" lon="5.54037">
        <ele>993.6</ele>
        <time>2021-09-07T08:34:30Z</time>
      </trkpt>
      <trkpt lat="44.50585" lon="5.54034">
        <ele>993.7</ele>
        <time>2021-09-07T08:34:31Z</time>
      </trkpt>
      <trkpt lat="44.50585" lon="5.5403">
        <ele>994</ele>
        <time>2021-09-07T08:34:32Z</time>
      </trkpt>
      <trkpt lat="44.50584" lon="5.54027">
        <ele>994.2</ele>
        <time>2021-09-07T08:34:33Z</time>
      </trkpt>
      <trkpt lat="44.50582" lon="5.54021">
        <ele>994.6</ele>
        <time>2021-09-07T08:34:34Z</time>
      </trkpt>
      <trkpt lat="44.5058" lon="5.54014">
        <ele>995.1</ele>
        <time>2021-09-07T08:34:35Z</time>
      </trkpt>
      <trkpt lat="44.5058" lon="5.54012">
        <ele>995.2</ele>
        <time>2021-09-07T08:34:36Z</time>
      </trkpt>
      <trkpt lat="44.50579" lon="5.5401">
        <ele>995.3</ele>
        <time>2021-09-07T08:34:37Z</time>
      </trkpt>
      <trkpt lat="44.50578" lon="5.54008">
        <ele>995.5</ele>
        <time>2021-09-07T08:34:38Z</time>
      </trkpt>
      <trkpt lat="44.50578" lon="5.54007">
        <ele>995.6</ele>
        <time>2021-09-07T08:34:39Z</time>
      </trkpt>
      <trkpt lat="44.50577" lon="5.54006">
        <ele>995.6</ele>
        <time>2021-09-07T08:34:40Z</time>
      </trkpt>
      <trkpt lat="44.50577" lon="5.54003">
        <ele>995.8</ele>
        <time>2021-09-07T08:34:41Z</time>
      </trkpt>
      <trkpt lat="44.50576" lon="5.54002">
        <ele>996</ele>
        <time>2021-09-07T08:34:42Z</time>
      </trkpt>
      <trkpt lat="44.50574" lon="5.54">
        <ele>996.1</ele>
        <time>2021-09-07T08:34:43Z</time>
      </trkpt>
      <trkpt lat="44.50573" lon="5.53996">
        <ele>996.4</ele>
        <time>2021-09-07T08:34:44Z</time>
      </trkpt>
      <trkpt lat="44.50572" lon="5.53994">
        <ele>996.6</ele>
        <time>2021-09-07T08:34:45Z</time>
      </trkpt>
      <trkpt lat="44.5057" lon="5.53992">
        <ele>996.8</ele>
        <time>2021-09-07T08:34:46Z</time>
      </trkpt>
      <trkpt lat="44.50568" lon="5.5399">
        <ele>997</ele>
        <time>2021-09-07T08:34:47Z</time>
      </trkpt>
      <trkpt lat="44.50567" lon="5.53989">
        <ele>997.1</ele>
        <time>2021-09-07T08:34:48Z</time>
      </trkpt>
      <trkpt lat="44.50566" lon="5.53987">
        <ele>997.2</ele>
        <time>2021-09-07T08:34:49Z</time>
      </trkpt>
      <trkpt lat="44.50565" lon="5.53985">
        <ele>997.4</ele>
        <time>2021-09-07T08:34:50Z</time>
      </trkpt>
      <trkpt lat="44.50565" lon="5.53983">
        <ele>997.5</ele>
        <time>2021-09-07T08:34:51Z</time>
      </trkpt>
      <trkpt lat="44.50565" lon="5.53981">
        <ele>997.6</ele>
        <time>2021-09-07T08:34:52Z</time>
      </trkpt>
      <trkpt lat="44.50565" lon="5.53977">
        <ele>997.8</ele>
        <time>2021-09-07T08:34:53Z</time>
      </trkpt>
      <trkpt lat="44.50564" lon="5.53975">
        <ele>998</ele>
        <time>2021-09-07T08:34:54Z</time>
      </trkpt>
      <trkpt lat="44.50564" lon="5.53973">
        <ele>998.1</ele>
        <time>2021-09-07T08:34:55Z</time>
      </trkpt>
      <trkpt lat="44.50563" lon="5.5397">
        <ele>998.2</ele>
        <time>2021-09-07T08:34:56Z</time>
      </trkpt>
      <trkpt lat="44.50563" lon="5.53966">
        <ele>998.4</ele>
        <time>2021-09-07T08:34:57Z</time>
      </trkpt>
      <trkpt lat="44.50563" lon="5.53963">
        <ele>998.6</ele>
        <time>2021-09-07T08:34:58Z</time>
      </trkpt>
      <trkpt lat="44.50562" lon="5.53961">
        <ele>998.7</ele>
        <time>2021-09-07T08:34:59Z</time>
      </trkpt>
      <trkpt lat="44.50561" lon="5.53958">
        <ele>998.9</ele>
        <time>2021-09-07T08:35:00Z</time>
      </trkpt>
      <trkpt lat="44.50558" lon="5.53953">
        <ele>999.2</ele>
        <time>2021-09-07T08:35:01Z</time>
      </trkpt>
      <trkpt lat="44.50557" lon="5.53951">
        <ele>999.4</ele>
        <time>2021-09-07T08:35:02Z</time>
      </trkpt>
      <trkpt lat="44.50555" lon="5.53949">
        <ele>999.5</ele>
        <time>2021-09-07T08:35:03Z</time>
      </trkpt>
      <trkpt lat="44.50553" lon="5.53947">
        <ele>999.7</ele>
        <time>2021-09-07T08:35:04Z</time>
      </trkpt>
      <trkpt lat="44.50552" lon="5.53945">
        <ele>999.8</ele>
        <time>2021-09-07T08:35:05Z</time>
      </trkpt>
      <trkpt lat="44.50551" lon="5.53944">
        <ele>999.9</ele>
        <time>2021-09-07T08:35:06Z</time>
      </trkpt>
      <trkpt lat="44.50549" lon="5.53943">
        <ele>1000</ele>
        <time>2021-09-07T08:35:07Z</time>
      </trkpt>
      <trkpt lat="44.50547" lon="5.53942">
        <ele>1000.1</ele>
        <time>2021-09-07T08:35:08Z</time>
      </trkpt>
      <trkpt lat="44.50547" lon="5.53942">
        <ele>1000.1</ele>
        <time>2021-09-07T08:35:09Z</time>
      </trkpt>
      <trkpt lat="44.50547" lon="5.53942">
        <ele>1000.2</ele>
        <time>2021-09-07T08:35:10Z</time>
      </trkpt>
      <trkpt lat="44.50547" lon="5.53941">
        <ele>1000.2</ele>
        <time>2021-09-07T08:35:11Z</time>
      </trkpt>
      <trkpt lat="44.50548" lon="5.5394">
        <ele>1000.3</ele>
        <time>2021-09-07T08:35:12Z</time>
      </trkpt>
      <trkpt lat="44.50548" lon="5.53939">
        <ele>1000.3</ele>
        <time>2021-09-07T08:35:13Z</time>
      </trkpt>
      <trkpt lat="44.50549" lon="5.53938">
        <ele>1000.4</ele>
        <time>2021-09-07T08:35:14Z</time>
      </trkpt>
      <trkpt lat="44.50549" lon="5.53937">
        <ele>1000.4</ele>
        <time>2021-09-07T08:35:15Z</time>
      </trkpt>
      <trkpt lat="44.5055" lon="5.53935">
        <ele>1000.5</ele>
        <time>2021-09-07T08:35:16Z</time>
      </trkpt>
      <trkpt lat="44.50551" lon="5.53934">
        <ele>1000.6</ele>
        <time>2021-09-07T08:35:17Z</time>
      </trkpt>
      <trkpt lat="44.50552" lon="5.53934">
        <ele>1000.7</ele>
        <time>2021-09-07T08:35:18Z</time>
      </trkpt>
      <trkpt lat="44.50552" lon="5.53933">
        <ele>1000.7</ele>
        <time>2021-09-07T08:35:19Z</time>
      </trkpt>
      <trkpt lat="44.50552" lon="5.53932">
        <ele>1000.7</ele>
        <time>2021-09-07T08:35:20Z</time>
      </trkpt>
      <trkpt lat="44.50553" lon="5.53931">
        <ele>1000.8</ele>
        <time>2021-09-07T08:35:21Z</time>
      </trkpt>
      <trkpt lat="44.50553" lon="5.53929">
        <ele>1000.9</ele>
        <time>2021-09-07T08:35:22Z</time>
      </trkpt>
      <trkpt lat="44.50554" lon="5.53928">
        <ele>1001</ele>
        <time>2021-09-07T08:35:23Z</time>
      </trkpt>
      <trkpt lat="44.50554" lon="5.53927">
        <ele>1001.1</ele>
        <time>2021-09-07T08:35:24Z</time>
      </trkpt>
      <trkpt lat="44.50554" lon="5.53925">
        <ele>1001.1</ele>
        <time>2021-09-07T08:35:25Z</time>
      </trkpt>
      <trkpt lat="44.50555" lon="5.53923">
        <ele>1001.3</ele>
        <time>2021-09-07T08:35:26Z</time>
      </trkpt>
      <trkpt lat="44.50555" lon="5.53922">
        <ele>1001.3</ele>
        <time>2021-09-07T08:35:27Z</time>
      </trkpt>
      <trkpt lat="44.50555" lon="5.53921">
        <ele>1001.3</ele>
        <time>2021-09-07T08:35:28Z</time>
      </trkpt>
      <trkpt lat="44.50557" lon="5.53918">
        <ele>1001.5</ele>
        <time>2021-09-07T08:35:29Z</time>
      </trkpt>
      <trkpt lat="44.50559" lon="5.53915">
        <ele>1001.7</ele>
        <time>2021-09-07T08:35:30Z</time>
      </trkpt>
      <trkpt lat="44.50561" lon="5.53911">
        <ele>1001.9</ele>
        <time>2021-09-07T08:35:31Z</time>
      </trkpt>
      <trkpt lat="44.50563" lon="5.53907">
        <ele>1002.2</ele>
        <time>2021-09-07T08:35:32Z</time>
      </trkpt>
      <trkpt lat="44.50564" lon="5.53903">
        <ele>1002.4</ele>
        <time>2021-09-07T08:35:33Z</time>
      </trkpt>
      <trkpt lat="44.50565" lon="5.53899">
        <ele>1002.5</ele>
        <time>2021-09-07T08:35:34Z</time>
      </trkpt>
      <trkpt lat="44.50566" lon="5.53896">
        <ele>1002.7</ele>
        <time>2021-09-07T08:35:35Z</time>
      </trkpt>
      <trkpt lat="44.50566" lon="5.53893">
        <ele>1002.8</ele>
        <time>2021-09-07T08:35:36Z</time>
      </trkpt>
      <trkpt lat="44.50568" lon="5.5389">
        <ele>1003</ele>
        <time>2021-09-07T08:35:37Z</time>
      </trkpt>
      <trkpt lat="44.50569" lon="5.53888">
        <ele>1003.1</ele>
        <time>2021-09-07T08:35:38Z</time>
      </trkpt>
      <trkpt lat="44.50571" lon="5.53886">
        <ele>1003.3</ele>
        <time>2021-09-07T08:35:39Z</time>
      </trkpt>
      <trkpt lat="44.50572" lon="5.53884">
        <ele>1003.4</ele>
        <time>2021-09-07T08:35:40Z</time>
      </trkpt>
      <trkpt lat="44.50573" lon="5.53882">
        <ele>1003.5</ele>
        <time>2021-09-07T08:35:41Z</time>
      </trkpt>
      <trkpt lat="44.50574" lon="5.53881">
        <ele>1003.6</ele>
        <time>2021-09-07T08:35:42Z</time>
      </trkpt>
      <trkpt lat="44.50574" lon="5.5388">
        <ele>1003.7</ele>
        <time>2021-09-07T08:35:43Z</time>
      </trkpt>
      <trkpt lat="44.50573" lon="5.53878">
        <ele>1003.7</ele>
        <time>2021-09-07T08:35:44Z</time>
      </trkpt>
      <trkpt lat="44.50575" lon="5.53877">
        <ele>1003.9</ele>
        <time>2021-09-07T08:35:45Z</time>
      </trkpt>
      <trkpt lat="44.50576" lon="5.53875">
        <ele>1004</ele>
        <time>2021-09-07T08:35:46Z</time>
      </trkpt>
      <trkpt lat="44.50578" lon="5.53873">
        <ele>1004.1</ele>
        <time>2021-09-07T08:35:47Z</time>
      </trkpt>
      <trkpt lat="44.5058" lon="5.53871">
        <ele>1004.3</ele>
        <time>2021-09-07T08:35:48Z</time>
      </trkpt>
      <trkpt lat="44.5058" lon="5.5387">
        <ele>1004.4</ele>
        <time>2021-09-07T08:35:49Z</time>
      </trkpt>
      <trkpt lat="44.5058" lon="5.53868">
        <ele>1004.4</ele>
        <time>2021-09-07T08:35:50Z</time>
      </trkpt>
      <trkpt lat="44.50581" lon="5.53865">
        <ele>1004.6</ele>
        <time>2021-09-07T08:35:51Z</time>
      </trkpt>
      <trkpt lat="44.50581" lon="5.53862">
        <ele>1004.7</ele>
        <time>2021-09-07T08:35:52Z</time>
      </trkpt>
      <trkpt lat="44.50581" lon="5.5386">
        <ele>1004.8</ele>
        <time>2021-09-07T08:35:53Z</time>
      </trkpt>
      <trkpt lat="44.50581" lon="5.53858">
        <ele>1004.9</ele>
        <time>2021-09-07T08:35:54Z</time>
      </trkpt>
      <trkpt lat="44.50581" lon="5.53856">
        <ele>1004.9</ele>
        <time>2021-09-07T08:35:55Z</time>
      </trkpt>
      <trkpt lat="44.50581" lon="5.53853">
        <ele>1005.1</ele>
        <time>2021-09-07T08:35:56Z</time>
      </trkpt>
      <trkpt lat="44.50581" lon="5.53851">
        <ele>1005.1</ele>
        <time>2021-09-07T08:35:57Z</time>
      </trkpt>
      <trkpt lat="44.50581" lon="5.53848">
        <ele>1005.2</ele>
        <time>2021-09-07T08:35:58Z</time>
      </trkpt>
      <trkpt lat="44.50582" lon="5.53845">
        <ele>1005.4</ele>
        <time>2021-09-07T08:35:59Z</time>
      </trkpt>
      <trkpt lat="44.50583" lon="5.53842">
        <ele>1005.5</ele>
        <time>2021-09-07T08:36:00Z</time>
      </trkpt>
      <trkpt lat="44.50583" lon="5.53839">
        <ele>1005.6</ele>
        <time>2021-09-07T08:36:01Z</time>
      </trkpt>
      <trkpt lat="44.50582" lon="5.53836">
        <ele>1005.7</ele>
        <time>2021-09-07T08:36:02Z</time>
      </trkpt>
      <trkpt lat="44.50584" lon="5.53833">
        <ele>1005.9</ele>
        <time>2021-09-07T08:36:03Z</time>
      </trkpt>
      <trkpt lat="44.50585" lon="5.5383">
        <ele>1006</ele>
        <time>2021-09-07T08:36:04Z</time>
      </trkpt>
      <trkpt lat="44.50586" lon="5.53828">
        <ele>1006.1</ele>
        <time>2021-09-07T08:36:05Z</time>
      </trkpt>
      <trkpt lat="44.50586" lon="5.53826">
        <ele>1006.2</ele>
        <time>2021-09-07T08:36:06Z</time>
      </trkpt>
      <trkpt lat="44.50586" lon="5.53823">
        <ele>1006.3</ele>
        <time>2021-09-07T08:36:07Z</time>
      </trkpt>
      <trkpt lat="44.50585" lon="5.53821">
        <ele>1006.4</ele>
        <time>2021-09-07T08:36:08Z</time>
      </trkpt>
      <trkpt lat="44.50584" lon="5.53819">
        <ele>1006.5</ele>
        <time>2021-09-07T08:36:09Z</time>
      </trkpt>
      <trkpt lat="44.50582" lon="5.53816">
        <ele>1006.6</ele>
        <time>2021-09-07T08:36:10Z</time>
      </trkpt>
      <trkpt lat="44.50582" lon="5.53814">
        <ele>1006.7</ele>
        <time>2021-09-07T08:36:11Z</time>
      </trkpt>
      <trkpt lat="44.50582" lon="5.53812">
        <ele>1006.8</ele>
        <time>2021-09-07T08:36:12Z</time>
      </trkpt>
      <trkpt lat="44.50582" lon="5.5381">
        <ele>1006.9</ele>
        <time>2021-09-07T08:36:13Z</time>
      </trkpt>
      <trkpt lat="44.50582" lon="5.53807">
        <ele>1007</ele>
        <time>2021-09-07T08:36:14Z</time>
      </trkpt>
      <trkpt lat="44.50584" lon="5.53806">
        <ele>1007.1</ele>
        <time>2021-09-07T08:36:15Z</time>
      </trkpt>
      <trkpt lat="44.50585" lon="5.53804">
        <ele>1007.2</ele>
        <time>2021-09-07T08:36:16Z</time>
      </trkpt>
      <trkpt lat="44.50586" lon="5.53802">
        <ele>1007.3</ele>
        <time>2021-09-07T08:36:17Z</time>
      </trkpt>
      <trkpt lat="44.50586" lon="5.53799">
        <ele>1007.4</ele>
        <time>2021-09-07T08:36:18Z</time>
      </trkpt>
      <trkpt lat="44.50587" lon="5.53796">
        <ele>1007.5</ele>
        <time>2021-09-07T08:36:19Z</time>
      </trkpt>
      <trkpt lat="44.50588" lon="5.53793">
        <ele>1007.7</ele>
        <time>2021-09-07T08:36:20Z</time>
      </trkpt>
      <trkpt lat="44.50589" lon="5.53791">
        <ele>1007.8</ele>
        <time>2021-09-07T08:36:21Z</time>
      </trkpt>
      <trkpt lat="44.50589" lon="5.53788">
        <ele>1007.9</ele>
        <time>2021-09-07T08:36:22Z</time>
      </trkpt>
      <trkpt lat="44.50589" lon="5.53785">
        <ele>1008</ele>
        <time>2021-09-07T08:36:23Z</time>
      </trkpt>
      <trkpt lat="44.50588" lon="5.53782">
        <ele>1008.1</ele>
        <time>2021-09-07T08:36:24Z</time>
      </trkpt>
      <trkpt lat="44.50588" lon="5.5378">
        <ele>1008.2</ele>
        <time>2021-09-07T08:36:25Z</time>
      </trkpt>
      <trkpt lat="44.50588" lon="5.53777">
        <ele>1008.3</ele>
        <time>2021-09-07T08:36:26Z</time>
      </trkpt>
      <trkpt lat="44.50588" lon="5.53775">
        <ele>1008.4</ele>
        <time>2021-09-07T08:36:27Z</time>
      </trkpt>
      <trkpt lat="44.50588" lon="5.53772">
        <ele>1008.5</ele>
        <time>2021-09-07T08:36:28Z</time>
      </trkpt>
      <trkpt lat="44.50587" lon="5.53769">
        <ele>1008.6</ele>
        <time>2021-09-07T08:36:29Z</time>
      </trkpt>
      <trkpt lat="44.50587" lon="5.53766">
        <ele>1008.7</ele>
        <time>2021-09-07T08:36:30Z</time>
      </trkpt>
      <trkpt lat="44.50587" lon="5.53763">
        <ele>1008.8</ele>
        <time>2021-09-07T08:36:31Z</time>
      </trkpt>
      <trkpt lat="44.50586" lon="5.5376">
        <ele>1008.9</ele>
        <time>2021-09-07T08:36:32Z</time>
      </trkpt>
      <trkpt lat="44.50585" lon="5.53757">
        <ele>1009.1</ele>
        <time>2021-09-07T08:36:33Z</time>
      </trkpt>
      <trkpt lat="44.50584" lon="5.53754">
        <ele>1009.2</ele>
        <time>2021-09-07T08:36:34Z</time>
      </trkpt>
      <trkpt lat="44.5058" lon="5.53748">
        <ele>1009.5</ele>
        <time>2021-09-07T08:36:35Z</time>
      </trkpt>
      <trkpt lat="44.50578" lon="5.53746">
        <ele>1009.6</ele>
        <time>2021-09-07T08:36:36Z</time>
      </trkpt>
      <trkpt lat="44.50575" lon="5.53743">
        <ele>1009.8</ele>
        <time>2021-09-07T08:36:37Z</time>
      </trkpt>
      <trkpt lat="44.50571" lon="5.5374">
        <ele>1010</ele>
        <time>2021-09-07T08:36:38Z</time>
      </trkpt>
      <trkpt lat="44.50569" lon="5.53739">
        <ele>1010.1</ele>
        <time>2021-09-07T08:36:39Z</time>
      </trkpt>
      <trkpt lat="44.50566" lon="5.53736">
        <ele>1010.3</ele>
        <time>2021-09-07T08:36:40Z</time>
      </trkpt>
      <trkpt lat="44.50564" lon="5.53736">
        <ele>1010.4</ele>
        <time>2021-09-07T08:36:41Z</time>
      </trkpt>
      <trkpt lat="44.50562" lon="5.53735">
        <ele>1010.5</ele>
        <time>2021-09-07T08:36:42Z</time>
      </trkpt>
      <trkpt lat="44.5056" lon="5.53732">
        <ele>1010.7</ele>
        <time>2021-09-07T08:36:43Z</time>
      </trkpt>
      <trkpt lat="44.50559" lon="5.5373">
        <ele>1010.8</ele>
        <time>2021-09-07T08:36:44Z</time>
      </trkpt>
      <trkpt lat="44.50557" lon="5.53728">
        <ele>1010.9</ele>
        <time>2021-09-07T08:36:45Z</time>
      </trkpt>
      <trkpt lat="44.50555" lon="5.53724">
        <ele>1011.1</ele>
        <time>2021-09-07T08:36:46Z</time>
      </trkpt>
      <trkpt lat="44.50555" lon="5.53722">
        <ele>1011.2</ele>
        <time>2021-09-07T08:36:47Z</time>
      </trkpt>
      <trkpt lat="44.50554" lon="5.53719">
        <ele>1011.3</ele>
        <time>2021-09-07T08:36:48Z</time>
      </trkpt>
      <trkpt lat="44.50553" lon="5.53716">
        <ele>1011.4</ele>
        <time>2021-09-07T08:36:49Z</time>
      </trkpt>
      <trkpt lat="44.50552" lon="5.53713">
        <ele>1011.6</ele>
        <time>2021-09-07T08:36:50Z</time>
      </trkpt>
      <trkpt lat="44.50551" lon="5.53711">
        <ele>1011.7</ele>
        <time>2021-09-07T08:36:51Z</time>
      </trkpt>
      <trkpt lat="44.5055" lon="5.53708">
        <ele>1011.8</ele>
        <time>2021-09-07T08:36:52Z</time>
      </trkpt>
      <trkpt lat="44.5055" lon="5.53706">
        <ele>1011.9</ele>
        <time>2021-09-07T08:36:53Z</time>
      </trkpt>
      <trkpt lat="44.50549" lon="5.53704">
        <ele>1012</ele>
        <time>2021-09-07T08:36:54Z</time>
      </trkpt>
      <trkpt lat="44.50549" lon="5.53702">
        <ele>1012.1</ele>
        <time>2021-09-07T08:36:55Z</time>
      </trkpt>
      <trkpt lat="44.50549" lon="5.53699">
        <ele>1012.2</ele>
        <time>2021-09-07T08:36:56Z</time>
      </trkpt>
      <trkpt lat="44.50548" lon="5.53697">
        <ele>1012.3</ele>
        <time>2021-09-07T08:36:57Z</time>
      </trkpt>
      <trkpt lat="44.50547" lon="5.53694">
        <ele>1012.4</ele>
        <time>2021-09-07T08:36:58Z</time>
      </trkpt>
      <trkpt lat="44.50546" lon="5.5369">
        <ele>1012.5</ele>
        <time>2021-09-07T08:36:59Z</time>
      </trkpt>
      <trkpt lat="44.50544" lon="5.53688">
        <ele>1012.7</ele>
        <time>2021-09-07T08:37:00Z</time>
      </trkpt>
      <trkpt lat="44.50544" lon="5.53686">
        <ele>1012.8</ele>
        <time>2021-09-07T08:37:01Z</time>
      </trkpt>
      <trkpt lat="44.50543" lon="5.53683">
        <ele>1012.9</ele>
        <time>2021-09-07T08:37:02Z</time>
      </trkpt>
      <trkpt lat="44.50543" lon="5.53681">
        <ele>1012.9</ele>
        <time>2021-09-07T08:37:03Z</time>
      </trkpt>
      <trkpt lat="44.50542" lon="5.53678">
        <ele>1013</ele>
        <time>2021-09-07T08:37:04Z</time>
      </trkpt>
      <trkpt lat="44.50542" lon="5.53675">
        <ele>1013.1</ele>
        <time>2021-09-07T08:37:05Z</time>
      </trkpt>
      <trkpt lat="44.50542" lon="5.53672">
        <ele>1013.3</ele>
        <time>2021-09-07T08:37:06Z</time>
      </trkpt>
      <trkpt lat="44.50542" lon="5.5367">
        <ele>1013.3</ele>
        <time>2021-09-07T08:37:07Z</time>
      </trkpt>
      <trkpt lat="44.50542" lon="5.53667">
        <ele>1013.4</ele>
        <time>2021-09-07T08:37:08Z</time>
      </trkpt>
      <trkpt lat="44.50541" lon="5.53663">
        <ele>1013.6</ele>
        <time>2021-09-07T08:37:09Z</time>
      </trkpt>
      <trkpt lat="44.50541" lon="5.5366">
        <ele>1013.7</ele>
        <time>2021-09-07T08:37:10Z</time>
      </trkpt>
      <trkpt lat="44.50542" lon="5.53658">
        <ele>1013.8</ele>
        <time>2021-09-07T08:37:11Z</time>
      </trkpt>
      <trkpt lat="44.50543" lon="5.53656">
        <ele>1013.9</ele>
        <time>2021-09-07T08:37:12Z</time>
      </trkpt>
      <trkpt lat="44.50545" lon="5.53652">
        <ele>1014.1</ele>
        <time>2021-09-07T08:37:13Z</time>
      </trkpt>
      <trkpt lat="44.50546" lon="5.53648">
        <ele>1014.2</ele>
        <time>2021-09-07T08:37:14Z</time>
      </trkpt>
      <trkpt lat="44.50546" lon="5.53644">
        <ele>1014.4</ele>
        <time>2021-09-07T08:37:15Z</time>
      </trkpt>
      <trkpt lat="44.50546" lon="5.53641">
        <ele>1014.5</ele>
        <time>2021-09-07T08:37:16Z</time>
      </trkpt>
      <trkpt lat="44.50545" lon="5.53638">
        <ele>1014.6</ele>
        <time>2021-09-07T08:37:17Z</time>
      </trkpt>
      <trkpt lat="44.50544" lon="5.53636">
        <ele>1014.7</ele>
        <time>2021-09-07T08:37:18Z</time>
      </trkpt>
      <trkpt lat="44.50544" lon="5.53634">
        <ele>1014.7</ele>
        <time>2021-09-07T08:37:19Z</time>
      </trkpt>
      <trkpt lat="44.50545" lon="5.53632">
        <ele>1014.8</ele>
        <time>2021-09-07T08:37:20Z</time>
      </trkpt>
      <trkpt lat="44.50546" lon="5.5363">
        <ele>1014.9</ele>
        <time>2021-09-07T08:37:21Z</time>
      </trkpt>
      <trkpt lat="44.50548" lon="5.53626">
        <ele>1015.1</ele>
        <time>2021-09-07T08:37:22Z</time>
      </trkpt>
      <trkpt lat="44.50549" lon="5.53622">
        <ele>1015.3</ele>
        <time>2021-09-07T08:37:23Z</time>
      </trkpt>
      <trkpt lat="44.50551" lon="5.53619">
        <ele>1015.4</ele>
        <time>2021-09-07T08:37:24Z</time>
      </trkpt>
      <trkpt lat="44.50553" lon="5.53617">
        <ele>1015.6</ele>
        <time>2021-09-07T08:37:25Z</time>
      </trkpt>
      <trkpt lat="44.50554" lon="5.53614">
        <ele>1015.7</ele>
        <time>2021-09-07T08:37:26Z</time>
      </trkpt>
      <trkpt lat="44.50556" lon="5.5361">
        <ele>1015.9</ele>
        <time>2021-09-07T08:37:27Z</time>
      </trkpt>
      <trkpt lat="44.50556" lon="5.53608">
        <ele>1016</ele>
        <time>2021-09-07T08:37:28Z</time>
      </trkpt>
      <trkpt lat="44.50555" lon="5.53605">
        <ele>1016.1</ele>
        <time>2021-09-07T08:37:29Z</time>
      </trkpt>
      <trkpt lat="44.50555" lon="5.536">
        <ele>1016.3</ele>
        <time>2021-09-07T08:37:30Z</time>
      </trkpt>
      <trkpt lat="44.50556" lon="5.53597">
        <ele>1016.4</ele>
        <time>2021-09-07T08:37:31Z</time>
      </trkpt>
      <trkpt lat="44.50556" lon="5.53594">
        <ele>1016.5</ele>
        <time>2021-09-07T08:37:32Z</time>
      </trkpt>
      <trkpt lat="44.50557" lon="5.53591">
        <ele>1016.6</ele>
        <time>2021-09-07T08:37:33Z</time>
      </trkpt>
      <trkpt lat="44.50558" lon="5.5359">
        <ele>1016.7</ele>
        <time>2021-09-07T08:37:34Z</time>
      </trkpt>
      <trkpt lat="44.50558" lon="5.53588">
        <ele>1016.8</ele>
        <time>2021-09-07T08:37:35Z</time>
      </trkpt>
      <trkpt lat="44.50559" lon="5.53587">
        <ele>1016.8</ele>
        <time>2021-09-07T08:37:36Z</time>
      </trkpt>
      <trkpt lat="44.50559" lon="5.53585">
        <ele>1016.9</ele>
        <time>2021-09-07T08:37:37Z</time>
      </trkpt>
      <trkpt lat="44.5056" lon="5.53581">
        <ele>1017.1</ele>
        <time>2021-09-07T08:37:38Z</time>
      </trkpt>
      <trkpt lat="44.50562" lon="5.53579">
        <ele>1017.2</ele>
        <time>2021-09-07T08:37:39Z</time>
      </trkpt>
      <trkpt lat="44.50563" lon="5.53577">
        <ele>1017.4</ele>
        <time>2021-09-07T08:37:40Z</time>
      </trkpt>
      <trkpt lat="44.50565" lon="5.53574">
        <ele>1017.5</ele>
        <time>2021-09-07T08:37:41Z</time>
      </trkpt>
      <trkpt lat="44.50567" lon="5.53572">
        <ele>1017.7</ele>
        <time>2021-09-07T08:37:42Z</time>
      </trkpt>
      <trkpt lat="44.50569" lon="5.53571">
        <ele>1017.8</ele>
        <time>2021-09-07T08:37:43Z</time>
      </trkpt>
      <trkpt lat="44.5057" lon="5.5357">
        <ele>1017.9</ele>
        <time>2021-09-07T08:37:44Z</time>
      </trkpt>
      <trkpt lat="44.50573" lon="5.53567">
        <ele>1018.1</ele>
        <time>2021-09-07T08:37:45Z</time>
      </trkpt>
      <trkpt lat="44.50575" lon="5.53565">
        <ele>1018.3</ele>
        <time>2021-09-07T08:37:46Z</time>
      </trkpt>
      <trkpt lat="44.50577" lon="5.53563">
        <ele>1018.4</ele>
        <time>2021-09-07T08:37:47Z</time>
      </trkpt>
      <trkpt lat="44.5058" lon="5.53562">
        <ele>1018.6</ele>
        <time>2021-09-07T08:37:48Z</time>
      </trkpt>
      <trkpt lat="44.50582" lon="5.5356">
        <ele>1018.8</ele>
        <time>2021-09-07T08:37:49Z</time>
      </trkpt>
      <trkpt lat="44.50585" lon="5.53558">
        <ele>1019</ele>
        <time>2021-09-07T08:37:50Z</time>
      </trkpt>
      <trkpt lat="44.50586" lon="5.53557">
        <ele>1019.1</ele>
        <time>2021-09-07T08:37:51Z</time>
      </trkpt>
      <trkpt lat="44.50587" lon="5.53555">
        <ele>1019.2</ele>
        <time>2021-09-07T08:37:52Z</time>
      </trkpt>
      <trkpt lat="44.5059" lon="5.53554">
        <ele>1019.4</ele>
        <time>2021-09-07T08:37:53Z</time>
      </trkpt>
      <trkpt lat="44.5059" lon="5.53553">
        <ele>1019.5</ele>
        <time>2021-09-07T08:37:54Z</time>
      </trkpt>
      <trkpt lat="44.50592" lon="5.53553">
        <ele>1019.6</ele>
        <time>2021-09-07T08:37:55Z</time>
      </trkpt>
      <trkpt lat="44.50593" lon="5.53552">
        <ele>1019.7</ele>
        <time>2021-09-07T08:37:56Z</time>
      </trkpt>
      <trkpt lat="44.50594" lon="5.53551">
        <ele>1019.8</ele>
        <time>2021-09-07T08:37:57Z</time>
      </trkpt>
      <trkpt lat="44.50595" lon="5.5355">
        <ele>1019.9</ele>
        <time>2021-09-07T08:37:58Z</time>
      </trkpt>
      <trkpt lat="44.50596" lon="5.53549">
        <ele>1020</ele>
        <time>2021-09-07T08:37:59Z</time>
      </trkpt>
      <trkpt lat="44.50598" lon="5.53548">
        <ele>1020.1</ele>
        <time>2021-09-07T08:38:00Z</time>
      </trkpt>
      <trkpt lat="44.50599" lon="5.53546">
        <ele>1020.2</ele>
        <time>2021-09-07T08:38:01Z</time>
      </trkpt>
      <trkpt lat="44.506" lon="5.53545">
        <ele>1020.3</ele>
        <time>2021-09-07T08:38:02Z</time>
      </trkpt>
      <trkpt lat="44.50601" lon="5.53543">
        <ele>1020.4</ele>
        <time>2021-09-07T08:38:03Z</time>
      </trkpt>
      <trkpt lat="44.50601" lon="5.53541">
        <ele>1020.5</ele>
        <time>2021-09-07T08:38:04Z</time>
      </trkpt>
      <trkpt lat="44.50601" lon="5.53539">
        <ele>1020.6</ele>
        <time>2021-09-07T08:38:05Z</time>
      </trkpt>
      <trkpt lat="44.50603" lon="5.53534">
        <ele>1020.9</ele>
        <time>2021-09-07T08:38:06Z</time>
      </trkpt>
      <trkpt lat="44.50604" lon="5.53533">
        <ele>1021</ele>
        <time>2021-09-07T08:38:07Z</time>
      </trkpt>
      <trkpt lat="44.50605" lon="5.53531">
        <ele>1021.2</ele>
        <time>2021-09-07T08:38:08Z</time>
      </trkpt>
      <trkpt lat="44.50608" lon="5.53528">
        <ele>1021.4</ele>
        <time>2021-09-07T08:38:09Z</time>
      </trkpt>
      <trkpt lat="44.5061" lon="5.53527">
        <ele>1021.6</ele>
        <time>2021-09-07T08:38:10Z</time>
      </trkpt>
      <trkpt lat="44.50611" lon="5.53526">
        <ele>1021.7</ele>
        <time>2021-09-07T08:38:11Z</time>
      </trkpt>
      <trkpt lat="44.50612" lon="5.53524">
        <ele>1021.8</ele>
        <time>2021-09-07T08:38:12Z</time>
      </trkpt>
      <trkpt lat="44.50612" lon="5.53524">
        <ele>1021.8</ele>
        <time>2021-09-07T08:38:13Z</time>
      </trkpt>
      <trkpt lat="44.50613" lon="5.53524">
        <ele>1021.9</ele>
        <time>2021-09-07T08:38:14Z</time>
      </trkpt>
      <trkpt lat="44.50614" lon="5.53523">
        <ele>1022</ele>
        <time>2021-09-07T08:38:15Z</time>
      </trkpt>
      <trkpt lat="44.50614" lon="5.53521">
        <ele>1022</ele>
        <time>2021-09-07T08:38:16Z</time>
      </trkpt>
      <trkpt lat="44.50615" lon="5.53519">
        <ele>1022.2</ele>
        <time>2021-09-07T08:38:17Z</time>
      </trkpt>
      <trkpt lat="44.50615" lon="5.53516">
        <ele>1022.3</ele>
        <time>2021-09-07T08:38:18Z</time>
      </trkpt>
      <trkpt lat="44.50615" lon="5.53513">
        <ele>1022.5</ele>
        <time>2021-09-07T08:38:19Z</time>
      </trkpt>
      <trkpt lat="44.50614" lon="5.53512">
        <ele>1022.6</ele>
        <time>2021-09-07T08:38:20Z</time>
      </trkpt>
      <trkpt lat="44.50613" lon="5.5351">
        <ele>1022.7</ele>
        <time>2021-09-07T08:38:21Z</time>
      </trkpt>
      <trkpt lat="44.50611" lon="5.53508">
        <ele>1022.8</ele>
        <time>2021-09-07T08:38:22Z</time>
      </trkpt>
      <trkpt lat="44.50608" lon="5.53507">
        <ele>1023.1</ele>
        <time>2021-09-07T08:38:23Z</time>
      </trkpt>
      <trkpt lat="44.50607" lon="5.53507">
        <ele>1023.1</ele>
        <time>2021-09-07T08:38:24Z</time>
      </trkpt>
      <trkpt lat="44.50606" lon="5.53506">
        <ele>1023.2</ele>
        <time>2021-09-07T08:38:25Z</time>
      </trkpt>
      <trkpt lat="44.50605" lon="5.53502">
        <ele>1023.4</ele>
        <time>2021-09-07T08:38:26Z</time>
      </trkpt>
      <trkpt lat="44.50603" lon="5.535">
        <ele>1023.6</ele>
        <time>2021-09-07T08:38:27Z</time>
      </trkpt>
      <trkpt lat="44.506" lon="5.53497">
        <ele>1023.8</ele>
        <time>2021-09-07T08:38:28Z</time>
      </trkpt>
      <trkpt lat="44.50597" lon="5.53496">
        <ele>1024.1</ele>
        <time>2021-09-07T08:38:29Z</time>
      </trkpt>
      <trkpt lat="44.50594" lon="5.53494">
        <ele>1024.2</ele>
        <time>2021-09-07T08:38:30Z</time>
      </trkpt>
      <trkpt lat="44.50591" lon="5.53491">
        <ele>1024.5</ele>
        <time>2021-09-07T08:38:31Z</time>
      </trkpt>
      <trkpt lat="44.5059" lon="5.53489">
        <ele>1024.6</ele>
        <time>2021-09-07T08:38:32Z</time>
      </trkpt>
      <trkpt lat="44.5059" lon="5.53487">
        <ele>1024.7</ele>
        <time>2021-09-07T08:38:33Z</time>
      </trkpt>
      <trkpt lat="44.50589" lon="5.53484">
        <ele>1024.8</ele>
        <time>2021-09-07T08:38:34Z</time>
      </trkpt>
      <trkpt lat="44.50589" lon="5.53483">
        <ele>1024.9</ele>
        <time>2021-09-07T08:38:35Z</time>
      </trkpt>
      <trkpt lat="44.50588" lon="5.53481">
        <ele>1025</ele>
        <time>2021-09-07T08:38:36Z</time>
      </trkpt>
      <trkpt lat="44.50587" lon="5.53479">
        <ele>1025.1</ele>
        <time>2021-09-07T08:38:37Z</time>
      </trkpt>
      <trkpt lat="44.50587" lon="5.53479">
        <ele>1025.1</ele>
        <time>2021-09-07T08:38:38Z</time>
      </trkpt>
      <trkpt lat="44.50586" lon="5.53478">
        <ele>1025.1</ele>
        <time>2021-09-07T08:38:39Z</time>
      </trkpt>
      <trkpt lat="44.50587" lon="5.53477">
        <ele>1025.2</ele>
        <time>2021-09-07T08:38:40Z</time>
      </trkpt>
      <trkpt lat="44.50587" lon="5.53477">
        <ele>1025.2</ele>
        <time>2021-09-07T08:38:41Z</time>
      </trkpt>
      <trkpt lat="44.50587" lon="5.53476">
        <ele>1025.3</ele>
        <time>2021-09-07T08:38:42Z</time>
      </trkpt>
      <trkpt lat="44.50588" lon="5.53474">
        <ele>1025.4</ele>
        <time>2021-09-07T08:38:43Z</time>
      </trkpt>
      <trkpt lat="44.50588" lon="5.53472">
        <ele>1025.5</ele>
        <time>2021-09-07T08:38:44Z</time>
      </trkpt>
      <trkpt lat="44.50589" lon="5.5347">
        <ele>1025.6</ele>
        <time>2021-09-07T08:38:45Z</time>
      </trkpt>
      <trkpt lat="44.5059" lon="5.53467">
        <ele>1025.7</ele>
        <time>2021-09-07T08:38:46Z</time>
      </trkpt>
      <trkpt lat="44.50591" lon="5.53464">
        <ele>1025.9</ele>
        <time>2021-09-07T08:38:47Z</time>
      </trkpt>
      <trkpt lat="44.50591" lon="5.53462">
        <ele>1026</ele>
        <time>2021-09-07T08:38:48Z</time>
      </trkpt>
      <trkpt lat="44.50592" lon="5.53461">
        <ele>1026.1</ele>
        <time>2021-09-07T08:38:49Z</time>
      </trkpt>
      <trkpt lat="44.50593" lon="5.53459">
        <ele>1026.2</ele>
        <time>2021-09-07T08:38:50Z</time>
      </trkpt>
      <trkpt lat="44.50595" lon="5.53458">
        <ele>1026.3</ele>
        <time>2021-09-07T08:38:51Z</time>
      </trkpt>
      <trkpt lat="44.50597" lon="5.53457">
        <ele>1026.4</ele>
        <time>2021-09-07T08:38:52Z</time>
      </trkpt>
      <trkpt lat="44.50599" lon="5.53455">
        <ele>1026.6</ele>
        <time>2021-09-07T08:38:53Z</time>
      </trkpt>
      <trkpt lat="44.50599" lon="5.53454">
        <ele>1026.6</ele>
        <time>2021-09-07T08:38:54Z</time>
      </trkpt>
      <trkpt lat="44.50599" lon="5.53453">
        <ele>1026.7</ele>
        <time>2021-09-07T08:38:55Z</time>
      </trkpt>
      <trkpt lat="44.50597" lon="5.5345">
        <ele>1026.9</ele>
        <time>2021-09-07T08:38:56Z</time>
      </trkpt>
      <trkpt lat="44.50597" lon="5.53449">
        <ele>1026.9</ele>
        <time>2021-09-07T08:38:57Z</time>
      </trkpt>
      <trkpt lat="44.50597" lon="5.53448">
        <ele>1027</ele>
        <time>2021-09-07T08:38:58Z</time>
      </trkpt>
      <trkpt lat="44.50597" lon="5.53445">
        <ele>1027.1</ele>
        <time>2021-09-07T08:38:59Z</time>
      </trkpt>
      <trkpt lat="44.50597" lon="5.53441">
        <ele>1027.3</ele>
        <time>2021-09-07T08:39:00Z</time>
      </trkpt>
      <trkpt lat="44.50596" lon="5.53438">
        <ele>1027.4</ele>
        <time>2021-09-07T08:39:01Z</time>
      </trkpt>
      <trkpt lat="44.50596" lon="5.53436">
        <ele>1027.5</ele>
        <time>2021-09-07T08:39:02Z</time>
      </trkpt>
      <trkpt lat="44.50595" lon="5.53434">
        <ele>1027.6</ele>
        <time>2021-09-07T08:39:03Z</time>
      </trkpt>
      <trkpt lat="44.50594" lon="5.53432">
        <ele>1027.8</ele>
        <time>2021-09-07T08:39:04Z</time>
      </trkpt>
      <trkpt lat="44.50591" lon="5.53427">
        <ele>1028.1</ele>
        <time>2021-09-07T08:39:05Z</time>
      </trkpt>
      <trkpt lat="44.50589" lon="5.53423">
        <ele>1028.3</ele>
        <time>2021-09-07T08:39:06Z</time>
      </trkpt>
      <trkpt lat="44.50588" lon="5.5342">
        <ele>1028.5</ele>
        <time>2021-09-07T08:39:07Z</time>
      </trkpt>
      <trkpt lat="44.50587" lon="5.53417">
        <ele>1028.6</ele>
        <time>2021-09-07T08:39:08Z</time>
      </trkpt>
      <trkpt lat="44.50587" lon="5.53415">
        <ele>1028.7</ele>
        <time>2021-09-07T08:39:09Z</time>
      </trkpt>
      <trkpt lat="44.50586" lon="5.53412">
        <ele>1028.9</ele>
        <time>2021-09-07T08:39:10Z</time>
      </trkpt>
      <trkpt lat="44.50586" lon="5.53411">
        <ele>1028.9</ele>
        <time>2021-09-07T08:39:11Z</time>
      </trkpt>
      <trkpt lat="44.50585" lon="5.5341">
        <ele>1029</ele>
        <time>2021-09-07T08:39:12Z</time>
      </trkpt>
      <trkpt lat="44.50584" lon="5.53408">
        <ele>1029.1</ele>
        <time>2021-09-07T08:39:13Z</time>
      </trkpt>
      <trkpt lat="44.50582" lon="5.53405">
        <ele>1029.3</ele>
        <time>2021-09-07T08:39:14Z</time>
      </trkpt>
      <trkpt lat="44.5058" lon="5.53402">
        <ele>1029.5</ele>
        <time>2021-09-07T08:39:15Z</time>
      </trkpt>
      <trkpt lat="44.50578" lon="5.53399">
        <ele>1029.6</ele>
        <time>2021-09-07T08:39:16Z</time>
      </trkpt>
      <trkpt lat="44.50576" lon="5.53397">
        <ele>1029.8</ele>
        <time>2021-09-07T08:39:17Z</time>
      </trkpt>
      <trkpt lat="44.50573" lon="5.53395">
        <ele>1030</ele>
        <time>2021-09-07T08:39:18Z</time>
      </trkpt>
      <trkpt lat="44.50571" lon="5.53393">
        <ele>1030.1</ele>
        <time>2021-09-07T08:39:19Z</time>
      </trkpt>
      <trkpt lat="44.5057" lon="5.53392">
        <ele>1030.2</ele>
        <time>2021-09-07T08:39:20Z</time>
      </trkpt>
      <trkpt lat="44.50568" lon="5.5339">
        <ele>1030.3</ele>
        <time>2021-09-07T08:39:21Z</time>
      </trkpt>
      <trkpt lat="44.50566" lon="5.5339">
        <ele>1030.4</ele>
        <time>2021-09-07T08:39:22Z</time>
      </trkpt>
      <trkpt lat="44.50564" lon="5.53389">
        <ele>1030.5</ele>
        <time>2021-09-07T08:39:23Z</time>
      </trkpt>
      <trkpt lat="44.50561" lon="5.53387">
        <ele>1030.8</ele>
        <time>2021-09-07T08:39:24Z</time>
      </trkpt>
      <trkpt lat="44.50557" lon="5.53386">
        <ele>1031.1</ele>
        <time>2021-09-07T08:39:25Z</time>
      </trkpt>
      <trkpt lat="44.50556" lon="5.53386">
        <ele>1031.1</ele>
        <time>2021-09-07T08:39:26Z</time>
      </trkpt>
      <trkpt lat="44.50554" lon="5.53385">
        <ele>1031.2</ele>
        <time>2021-09-07T08:39:27Z</time>
      </trkpt>
      <trkpt lat="44.50551" lon="5.53385">
        <ele>1031.4</ele>
        <time>2021-09-07T08:39:28Z</time>
      </trkpt>
      <trkpt lat="44.50549" lon="5.53385">
        <ele>1031.6</ele>
        <time>2021-09-07T08:39:29Z</time>
      </trkpt>
      <trkpt lat="44.50546" lon="5.53386">
        <ele>1031.7</ele>
        <time>2021-09-07T08:39:30Z</time>
      </trkpt>
      <trkpt lat="44.50544" lon="5.53387">
        <ele>1031.9</ele>
        <time>2021-09-07T08:39:31Z</time>
      </trkpt>
      <trkpt lat="44.50541" lon="5.53387">
        <ele>1032</ele>
        <time>2021-09-07T08:39:32Z</time>
      </trkpt>
      <trkpt lat="44.50541" lon="5.53387">
        <ele>1032.1</ele>
        <time>2021-09-07T08:39:33Z</time>
      </trkpt>
      <trkpt lat="44.5054" lon="5.53387">
        <ele>1032.1</ele>
        <time>2021-09-07T08:39:34Z</time>
      </trkpt>
      <trkpt lat="44.5054" lon="5.53385">
        <ele>1032.2</ele>
        <time>2021-09-07T08:39:35Z</time>
      </trkpt>
      <trkpt lat="44.50539" lon="5.53385">
        <ele>1032.2</ele>
        <time>2021-09-07T08:39:36Z</time>
      </trkpt>
      <trkpt lat="44.50539" lon="5.53385">
        <ele>1032.3</ele>
        <time>2021-09-07T08:39:37Z</time>
      </trkpt>
      <trkpt lat="44.50538" lon="5.53384">
        <ele>1032.3</ele>
        <time>2021-09-07T08:39:38Z</time>
      </trkpt>
      <trkpt lat="44.50539" lon="5.53384">
        <ele>1032.3</ele>
        <time>2021-09-07T08:39:39Z</time>
      </trkpt>
      <trkpt lat="44.50539" lon="5.53383">
        <ele>1032.4</ele>
        <time>2021-09-07T08:39:40Z</time>
      </trkpt>
      <trkpt lat="44.50539" lon="5.53382">
        <ele>1032.4</ele>
        <time>2021-09-07T08:39:41Z</time>
      </trkpt>
      <trkpt lat="44.50539" lon="5.53382">
        <ele>1032.4</ele>
        <time>2021-09-07T08:39:42Z</time>
      </trkpt>
      <trkpt lat="44.50539" lon="5.53381">
        <ele>1032.4</ele>
        <time>2021-09-07T08:39:43Z</time>
      </trkpt>
      <trkpt lat="44.50539" lon="5.5338">
        <ele>1032.5</ele>
        <time>2021-09-07T08:39:44Z</time>
      </trkpt>
      <trkpt lat="44.50538" lon="5.53377">
        <ele>1032.6</ele>
        <time>2021-09-07T08:39:45Z</time>
      </trkpt>
      <trkpt lat="44.50539" lon="5.53375">
        <ele>1032.7</ele>
        <time>2021-09-07T08:39:46Z</time>
      </trkpt>
      <trkpt lat="44.50539" lon="5.53373">
        <ele>1032.8</ele>
        <time>2021-09-07T08:39:47Z</time>
      </trkpt>
      <trkpt lat="44.50538" lon="5.5337">
        <ele>1032.9</ele>
        <time>2021-09-07T08:39:48Z</time>
      </trkpt>
      <trkpt lat="44.50538" lon="5.53367">
        <ele>1033</ele>
        <time>2021-09-07T08:39:49Z</time>
      </trkpt>
      <trkpt lat="44.50537" lon="5.53364">
        <ele>1033.1</ele>
        <time>2021-09-07T08:39:50Z</time>
      </trkpt>
      <trkpt lat="44.50533" lon="5.53361">
        <ele>1033.3</ele>
        <time>2021-09-07T08:39:51Z</time>
      </trkpt>
      <trkpt lat="44.50531" lon="5.53359">
        <ele>1033.5</ele>
        <time>2021-09-07T08:39:52Z</time>
      </trkpt>
      <trkpt lat="44.50529" lon="5.53359">
        <ele>1033.6</ele>
        <time>2021-09-07T08:39:53Z</time>
      </trkpt>
      <trkpt lat="44.50527" lon="5.53358">
        <ele>1033.7</ele>
        <time>2021-09-07T08:39:54Z</time>
      </trkpt>
      <trkpt lat="44.50524" lon="5.53356">
        <ele>1033.8</ele>
        <time>2021-09-07T08:39:55Z</time>
      </trkpt>
      <trkpt lat="44.50522" lon="5.53355">
        <ele>1033.9</ele>
        <time>2021-09-07T08:39:56Z</time>
      </trkpt>
      <trkpt lat="44.5052" lon="5.53354">
        <ele>1034.1</ele>
        <time>2021-09-07T08:39:57Z</time>
      </trkpt>
      <trkpt lat="44.50519" lon="5.53352">
        <ele>1034.2</ele>
        <time>2021-09-07T08:39:58Z</time>
      </trkpt>
      <trkpt lat="44.50523" lon="5.53347">
        <ele>1034.4</ele>
        <time>2021-09-07T08:39:59Z</time>
      </trkpt>
      <trkpt lat="44.50526" lon="5.53342">
        <ele>1034.7</ele>
        <time>2021-09-07T08:40:00Z</time>
      </trkpt>
      <trkpt lat="44.50528" lon="5.53337">
        <ele>1034.9</ele>
        <time>2021-09-07T08:40:01Z</time>
      </trkpt>
      <trkpt lat="44.50529" lon="5.53334">
        <ele>1035.1</ele>
        <time>2021-09-07T08:40:02Z</time>
      </trkpt>
      <trkpt lat="44.50529" lon="5.53332">
        <ele>1035.2</ele>
        <time>2021-09-07T08:40:03Z</time>
      </trkpt>
      <trkpt lat="44.50529" lon="5.53329">
        <ele>1035.3</ele>
        <time>2021-09-07T08:40:04Z</time>
      </trkpt>
      <trkpt lat="44.50529" lon="5.53323">
        <ele>1035.6</ele>
        <time>2021-09-07T08:40:05Z</time>
      </trkpt>
      <trkpt lat="44.50528" lon="5.53318">
        <ele>1035.8</ele>
        <time>2021-09-07T08:40:06Z</time>
      </trkpt>
      <trkpt lat="44.5053" lon="5.53314">
        <ele>1036</ele>
        <time>2021-09-07T08:40:07Z</time>
      </trkpt>
      <trkpt lat="44.5053" lon="5.53312">
        <ele>1036.1</ele>
        <time>2021-09-07T08:40:08Z</time>
      </trkpt>
      <trkpt lat="44.50532" lon="5.5331">
        <ele>1036.3</ele>
        <time>2021-09-07T08:40:09Z</time>
      </trkpt>
      <trkpt lat="44.50533" lon="5.53307">
        <ele>1036.4</ele>
        <time>2021-09-07T08:40:10Z</time>
      </trkpt>
      <trkpt lat="44.50534" lon="5.53304">
        <ele>1036.6</ele>
        <time>2021-09-07T08:40:11Z</time>
      </trkpt>
      <trkpt lat="44.50534" lon="5.53301">
        <ele>1036.7</ele>
        <time>2021-09-07T08:40:12Z</time>
      </trkpt>
      <trkpt lat="44.50535" lon="5.53299">
        <ele>1036.8</ele>
        <time>2021-09-07T08:40:13Z</time>
      </trkpt>
      <trkpt lat="44.50535" lon="5.53297">
        <ele>1036.9</ele>
        <time>2021-09-07T08:40:14Z</time>
      </trkpt>
      <trkpt lat="44.50536" lon="5.53295">
        <ele>1037</ele>
        <time>2021-09-07T08:40:15Z</time>
      </trkpt>
      <trkpt lat="44.50536" lon="5.53293">
        <ele>1037.1</ele>
        <time>2021-09-07T08:40:16Z</time>
      </trkpt>
      <trkpt lat="44.50535" lon="5.53291">
        <ele>1037.2</ele>
        <time>2021-09-07T08:40:17Z</time>
      </trkpt>
      <trkpt lat="44.50534" lon="5.5329">
        <ele>1037.3</ele>
        <time>2021-09-07T08:40:18Z</time>
      </trkpt>
      <trkpt lat="44.50533" lon="5.53289">
        <ele>1037.4</ele>
        <time>2021-09-07T08:40:19Z</time>
      </trkpt>
      <trkpt lat="44.50531" lon="5.53287">
        <ele>1037.5</ele>
        <time>2021-09-07T08:40:20Z</time>
      </trkpt>
      <trkpt lat="44.50529" lon="5.53286">
        <ele>1037.7</ele>
        <time>2021-09-07T08:40:21Z</time>
      </trkpt>
      <trkpt lat="44.50528" lon="5.53284">
        <ele>1037.8</ele>
        <time>2021-09-07T08:40:22Z</time>
      </trkpt>
      <trkpt lat="44.50527" lon="5.53283">
        <ele>1037.9</ele>
        <time>2021-09-07T08:40:23Z</time>
      </trkpt>
      <trkpt lat="44.50525" lon="5.53282">
        <ele>1038</ele>
        <time>2021-09-07T08:40:24Z</time>
      </trkpt>
      <trkpt lat="44.50523" lon="5.53281">
        <ele>1038.1</ele>
        <time>2021-09-07T08:40:25Z</time>
      </trkpt>
      <trkpt lat="44.50522" lon="5.53279">
        <ele>1038.2</ele>
        <time>2021-09-07T08:40:26Z</time>
      </trkpt>
      <trkpt lat="44.50521" lon="5.53278">
        <ele>1038.3</ele>
        <time>2021-09-07T08:40:27Z</time>
      </trkpt>
      <trkpt lat="44.50519" lon="5.53277">
        <ele>1038.4</ele>
        <time>2021-09-07T08:40:28Z</time>
      </trkpt>
      <trkpt lat="44.50517" lon="5.53276">
        <ele>1038.6</ele>
        <time>2021-09-07T08:40:29Z</time>
      </trkpt>
      <trkpt lat="44.50515" lon="5.53275">
        <ele>1038.7</ele>
        <time>2021-09-07T08:40:30Z</time>
      </trkpt>
      <trkpt lat="44.50515" lon="5.53274">
        <ele>1038.7</ele>
        <time>2021-09-07T08:40:31Z</time>
      </trkpt>
      <trkpt lat="44.50514" lon="5.53273">
        <ele>1038.8</ele>
        <time>2021-09-07T08:40:32Z</time>
      </trkpt>
      <trkpt lat="44.50512" lon="5.53271">
        <ele>1039</ele>
        <time>2021-09-07T08:40:33Z</time>
      </trkpt>
      <trkpt lat="44.50512" lon="5.5327">
        <ele>1039</ele>
        <time>2021-09-07T08:40:34Z</time>
      </trkpt>
      <trkpt lat="44.50511" lon="5.53268">
        <ele>1039.1</ele>
        <time>2021-09-07T08:40:35Z</time>
      </trkpt>
      <trkpt lat="44.50509" lon="5.53266">
        <ele>1039.3</ele>
        <time>2021-09-07T08:40:36Z</time>
      </trkpt>
      <trkpt lat="44.50509" lon="5.53265">
        <ele>1039.3</ele>
        <time>2021-09-07T08:40:37Z</time>
      </trkpt>
      <trkpt lat="44.50509" lon="5.53263">
        <ele>1039.4</ele>
        <time>2021-09-07T08:40:38Z</time>
      </trkpt>
      <trkpt lat="44.50509" lon="5.53261">
        <ele>1039.5</ele>
        <time>2021-09-07T08:40:39Z</time>
      </trkpt>
      <trkpt lat="44.5051" lon="5.53259">
        <ele>1039.6</ele>
        <time>2021-09-07T08:40:40Z</time>
      </trkpt>
      <trkpt lat="44.5051" lon="5.53257">
        <ele>1039.6</ele>
        <time>2021-09-07T08:40:41Z</time>
      </trkpt>
      <trkpt lat="44.50511" lon="5.53254">
        <ele>1039.8</ele>
        <time>2021-09-07T08:40:42Z</time>
      </trkpt>
      <trkpt lat="44.50512" lon="5.53252">
        <ele>1039.9</ele>
        <time>2021-09-07T08:40:43Z</time>
      </trkpt>
      <trkpt lat="44.50512" lon="5.53249">
        <ele>1040</ele>
        <time>2021-09-07T08:40:44Z</time>
      </trkpt>
      <trkpt lat="44.50512" lon="5.53246">
        <ele>1040.1</ele>
        <time>2021-09-07T08:40:45Z</time>
      </trkpt>
      <trkpt lat="44.50512" lon="5.53244">
        <ele>1040.2</ele>
        <time>2021-09-07T08:40:46Z</time>
      </trkpt>
      <trkpt lat="44.50513" lon="5.53242">
        <ele>1040.2</ele>
        <time>2021-09-07T08:40:47Z</time>
      </trkpt>
      <trkpt lat="44.50514" lon="5.5324">
        <ele>1040.3</ele>
        <time>2021-09-07T08:40:48Z</time>
      </trkpt>
      <trkpt lat="44.50516" lon="5.53239">
        <ele>1040.4</ele>
        <time>2021-09-07T08:40:49Z</time>
      </trkpt>
      <trkpt lat="44.50517" lon="5.53237">
        <ele>1040.5</ele>
        <time>2021-09-07T08:40:50Z</time>
      </trkpt>
      <trkpt lat="44.50517" lon="5.53234">
        <ele>1040.6</ele>
        <time>2021-09-07T08:40:51Z</time>
      </trkpt>
      <trkpt lat="44.50516" lon="5.53232">
        <ele>1040.6</ele>
        <time>2021-09-07T08:40:52Z</time>
      </trkpt>
      <trkpt lat="44.50515" lon="5.5323">
        <ele>1040.7</ele>
        <time>2021-09-07T08:40:53Z</time>
      </trkpt>
      <trkpt lat="44.50515" lon="5.53228">
        <ele>1040.7</ele>
        <time>2021-09-07T08:40:54Z</time>
      </trkpt>
      <trkpt lat="44.50515" lon="5.53226">
        <ele>1040.8</ele>
        <time>2021-09-07T08:40:55Z</time>
      </trkpt>
      <trkpt lat="44.50514" lon="5.53223">
        <ele>1040.9</ele>
        <time>2021-09-07T08:40:56Z</time>
      </trkpt>
      <trkpt lat="44.50515" lon="5.53221">
        <ele>1041</ele>
        <time>2021-09-07T08:40:57Z</time>
      </trkpt>
      <trkpt lat="44.50515" lon="5.53219">
        <ele>1041</ele>
        <time>2021-09-07T08:40:58Z</time>
      </trkpt>
      <trkpt lat="44.50516" lon="5.53217">
        <ele>1041.1</ele>
        <time>2021-09-07T08:40:59Z</time>
      </trkpt>
      <trkpt lat="44.50516" lon="5.53214">
        <ele>1041.2</ele>
        <time>2021-09-07T08:41:00Z</time>
      </trkpt>
      <trkpt lat="44.50516" lon="5.53212">
        <ele>1041.2</ele>
        <time>2021-09-07T08:41:01Z</time>
      </trkpt>
      <trkpt lat="44.50516" lon="5.53209">
        <ele>1041.3</ele>
        <time>2021-09-07T08:41:02Z</time>
      </trkpt>
      <trkpt lat="44.50516" lon="5.53207">
        <ele>1041.4</ele>
        <time>2021-09-07T08:41:03Z</time>
      </trkpt>
      <trkpt lat="44.50515" lon="5.53205">
        <ele>1041.4</ele>
        <time>2021-09-07T08:41:04Z</time>
      </trkpt>
      <trkpt lat="44.50513" lon="5.53202">
        <ele>1041.6</ele>
        <time>2021-09-07T08:41:05Z</time>
      </trkpt>
      <trkpt lat="44.50513" lon="5.532">
        <ele>1041.6</ele>
        <time>2021-09-07T08:41:06Z</time>
      </trkpt>
      <trkpt lat="44.50514" lon="5.53197">
        <ele>1041.7</ele>
        <time>2021-09-07T08:41:07Z</time>
      </trkpt>
      <trkpt lat="44.50515" lon="5.53194">
        <ele>1041.8</ele>
        <time>2021-09-07T08:41:08Z</time>
      </trkpt>
      <trkpt lat="44.50516" lon="5.53192">
        <ele>1041.9</ele>
        <time>2021-09-07T08:41:09Z</time>
      </trkpt>
      <trkpt lat="44.50517" lon="5.5319">
        <ele>1042</ele>
        <time>2021-09-07T08:41:10Z</time>
      </trkpt>
      <trkpt lat="44.50518" lon="5.53185">
        <ele>1042.2</ele>
        <time>2021-09-07T08:41:11Z</time>
      </trkpt>
      <trkpt lat="44.50518" lon="5.53182">
        <ele>1042.3</ele>
        <time>2021-09-07T08:41:12Z</time>
      </trkpt>
      <trkpt lat="44.50519" lon="5.5318">
        <ele>1042.3</ele>
        <time>2021-09-07T08:41:13Z</time>
      </trkpt>
      <trkpt lat="44.50519" lon="5.53178">
        <ele>1042.4</ele>
        <time>2021-09-07T08:41:14Z</time>
      </trkpt>
      <trkpt lat="44.5052" lon="5.53177">
        <ele>1042.5</ele>
        <time>2021-09-07T08:41:15Z</time>
      </trkpt>
      <trkpt lat="44.50521" lon="5.53175">
        <ele>1042.5</ele>
        <time>2021-09-07T08:41:16Z</time>
      </trkpt>
      <trkpt lat="44.50522" lon="5.53174">
        <ele>1042.6</ele>
        <time>2021-09-07T08:41:17Z</time>
      </trkpt>
      <trkpt lat="44.50522" lon="5.53173">
        <ele>1042.6</ele>
        <time>2021-09-07T08:41:18Z</time>
      </trkpt>
      <trkpt lat="44.50523" lon="5.53172">
        <ele>1042.7</ele>
        <time>2021-09-07T08:41:19Z</time>
      </trkpt>
      <trkpt lat="44.50523" lon="5.5317">
        <ele>1042.8</ele>
        <time>2021-09-07T08:41:20Z</time>
      </trkpt>
      <trkpt lat="44.50522" lon="5.53168">
        <ele>1042.8</ele>
        <time>2021-09-07T08:41:21Z</time>
      </trkpt>
      <trkpt lat="44.50521" lon="5.53166">
        <ele>1042.9</ele>
        <time>2021-09-07T08:41:22Z</time>
      </trkpt>
      <trkpt lat="44.5052" lon="5.53164">
        <ele>1043</ele>
        <time>2021-09-07T08:41:23Z</time>
      </trkpt>
      <trkpt lat="44.50519" lon="5.53162">
        <ele>1043.1</ele>
        <time>2021-09-07T08:41:24Z</time>
      </trkpt>
      <trkpt lat="44.50519" lon="5.53161">
        <ele>1043.2</ele>
        <time>2021-09-07T08:41:25Z</time>
      </trkpt>
      <trkpt lat="44.50518" lon="5.53159">
        <ele>1043.3</ele>
        <time>2021-09-07T08:41:26Z</time>
      </trkpt>
      <trkpt lat="44.50517" lon="5.53156">
        <ele>1043.4</ele>
        <time>2021-09-07T08:41:27Z</time>
      </trkpt>
      <trkpt lat="44.50518" lon="5.53153">
        <ele>1043.5</ele>
        <time>2021-09-07T08:41:28Z</time>
      </trkpt>
      <trkpt lat="44.50518" lon="5.5315">
        <ele>1043.7</ele>
        <time>2021-09-07T08:41:29Z</time>
      </trkpt>
      <trkpt lat="44.50518" lon="5.53146">
        <ele>1043.8</ele>
        <time>2021-09-07T08:41:30Z</time>
      </trkpt>
      <trkpt lat="44.50518" lon="5.53143">
        <ele>1043.9</ele>
        <time>2021-09-07T08:41:31Z</time>
      </trkpt>
      <trkpt lat="44.50517" lon="5.53141">
        <ele>1044</ele>
        <time>2021-09-07T08:41:32Z</time>
      </trkpt>
      <trkpt lat="44.50517" lon="5.5314">
        <ele>1044.1</ele>
        <time>2021-09-07T08:41:33Z</time>
      </trkpt>
      <trkpt lat="44.50516" lon="5.53138">
        <ele>1044.2</ele>
        <time>2021-09-07T08:41:34Z</time>
      </trkpt>
      <trkpt lat="44.50513" lon="5.53134">
        <ele>1044.4</ele>
        <time>2021-09-07T08:41:35Z</time>
      </trkpt>
      <trkpt lat="44.5051" lon="5.53131">
        <ele>1044.6</ele>
        <time>2021-09-07T08:41:36Z</time>
      </trkpt>
      <trkpt lat="44.50508" lon="5.5313">
        <ele>1044.8</ele>
        <time>2021-09-07T08:41:37Z</time>
      </trkpt>
      <trkpt lat="44.50506" lon="5.53129">
        <ele>1044.9</ele>
        <time>2021-09-07T08:41:38Z</time>
      </trkpt>
      <trkpt lat="44.50504" lon="5.53127">
        <ele>1045</ele>
        <time>2021-09-07T08:41:39Z</time>
      </trkpt>
      <trkpt lat="44.50502" lon="5.53125">
        <ele>1045.2</ele>
        <time>2021-09-07T08:41:40Z</time>
      </trkpt>
      <trkpt lat="44.505" lon="5.53122">
        <ele>1045.4</ele>
        <time>2021-09-07T08:41:41Z</time>
      </trkpt>
      <trkpt lat="44.50499" lon="5.53119">
        <ele>1045.5</ele>
        <time>2021-09-07T08:41:42Z</time>
      </trkpt>
      <trkpt lat="44.505" lon="5.53115">
        <ele>1045.7</ele>
        <time>2021-09-07T08:41:43Z</time>
      </trkpt>
      <trkpt lat="44.505" lon="5.5311">
        <ele>1045.9</ele>
        <time>2021-09-07T08:41:44Z</time>
      </trkpt>
      <trkpt lat="44.50501" lon="5.53106">
        <ele>1046.2</ele>
        <time>2021-09-07T08:41:45Z</time>
      </trkpt>
      <trkpt lat="44.50502" lon="5.53102">
        <ele>1046.4</ele>
        <time>2021-09-07T08:41:46Z</time>
      </trkpt>
      <trkpt lat="44.50503" lon="5.53097">
        <ele>1046.6</ele>
        <time>2021-09-07T08:41:47Z</time>
      </trkpt>
      <trkpt lat="44.50505" lon="5.53093">
        <ele>1046.9</ele>
        <time>2021-09-07T08:41:48Z</time>
      </trkpt>
      <trkpt lat="44.50506" lon="5.5309">
        <ele>1047</ele>
        <time>2021-09-07T08:41:49Z</time>
      </trkpt>
      <trkpt lat="44.50507" lon="5.53087">
        <ele>1047.2</ele>
        <time>2021-09-07T08:41:50Z</time>
      </trkpt>
      <trkpt lat="44.50507" lon="5.53085">
        <ele>1047.3</ele>
        <time>2021-09-07T08:41:51Z</time>
      </trkpt>
      <trkpt lat="44.50506" lon="5.53085">
        <ele>1047.4</ele>
        <time>2021-09-07T08:41:52Z</time>
      </trkpt>
      <trkpt lat="44.50506" lon="5.53084">
        <ele>1047.5</ele>
        <time>2021-09-07T08:41:53Z</time>
      </trkpt>
      <trkpt lat="44.50506" lon="5.53082">
        <ele>1047.6</ele>
        <time>2021-09-07T08:41:54Z</time>
      </trkpt>
      <trkpt lat="44.50505" lon="5.53081">
        <ele>1047.6</ele>
        <time>2021-09-07T08:41:55Z</time>
      </trkpt>
      <trkpt lat="44.50505" lon="5.53079">
        <ele>1047.8</ele>
        <time>2021-09-07T08:41:56Z</time>
      </trkpt>
      <trkpt lat="44.50505" lon="5.53078">
        <ele>1047.8</ele>
        <time>2021-09-07T08:41:57Z</time>
      </trkpt>
      <trkpt lat="44.50504" lon="5.53076">
        <ele>1047.9</ele>
        <time>2021-09-07T08:41:58Z</time>
      </trkpt>
      <trkpt lat="44.50502" lon="5.53075">
        <ele>1048.1</ele>
        <time>2021-09-07T08:41:59Z</time>
      </trkpt>
      <trkpt lat="44.50501" lon="5.53073">
        <ele>1048.2</ele>
        <time>2021-09-07T08:42:00Z</time>
      </trkpt>
      <trkpt lat="44.50501" lon="5.5307">
        <ele>1048.4</ele>
        <time>2021-09-07T08:42:01Z</time>
      </trkpt>
      <trkpt lat="44.505" lon="5.53066">
        <ele>1048.6</ele>
        <time>2021-09-07T08:42:02Z</time>
      </trkpt>
      <trkpt lat="44.50498" lon="5.53063">
        <ele>1048.8</ele>
        <time>2021-09-07T08:42:03Z</time>
      </trkpt>
      <trkpt lat="44.50496" lon="5.53059">
        <ele>1049</ele>
        <time>2021-09-07T08:42:04Z</time>
      </trkpt>
      <trkpt lat="44.50494" lon="5.53055">
        <ele>1049.2</ele>
        <time>2021-09-07T08:42:05Z</time>
      </trkpt>
      <trkpt lat="44.50492" lon="5.53053">
        <ele>1049.3</ele>
        <time>2021-09-07T08:42:06Z</time>
      </trkpt>
      <trkpt lat="44.50492" lon="5.53052">
        <ele>1049.4</ele>
        <time>2021-09-07T08:42:07Z</time>
      </trkpt>
      <trkpt lat="44.50491" lon="5.5305">
        <ele>1049.5</ele>
        <time>2021-09-07T08:42:08Z</time>
      </trkpt>
      <trkpt lat="44.50491" lon="5.53048">
        <ele>1049.5</ele>
        <time>2021-09-07T08:42:09Z</time>
      </trkpt>
      <trkpt lat="44.50493" lon="5.53048">
        <ele>1049.7</ele>
        <time>2021-09-07T08:42:10Z</time>
      </trkpt>
      <trkpt lat="44.50495" lon="5.53048">
        <ele>1049.8</ele>
        <time>2021-09-07T08:42:11Z</time>
      </trkpt>
      <trkpt lat="44.50497" lon="5.53047">
        <ele>1049.9</ele>
        <time>2021-09-07T08:42:12Z</time>
      </trkpt>
      <trkpt lat="44.50499" lon="5.53047">
        <ele>1050</ele>
        <time>2021-09-07T08:42:13Z</time>
      </trkpt>
      <trkpt lat="44.505" lon="5.53047">
        <ele>1050</ele>
        <time>2021-09-07T08:42:14Z</time>
      </trkpt>
      <trkpt lat="44.505" lon="5.53046">
        <ele>1050</ele>
        <time>2021-09-07T08:42:15Z</time>
      </trkpt>
      <trkpt lat="44.505" lon="5.53045">
        <ele>1050.1</ele>
        <time>2021-09-07T08:42:16Z</time>
      </trkpt>
      <trkpt lat="44.50499" lon="5.53043">
        <ele>1050.1</ele>
        <time>2021-09-07T08:42:17Z</time>
      </trkpt>
      <trkpt lat="44.505" lon="5.53042">
        <ele>1050.2</ele>
        <time>2021-09-07T08:42:18Z</time>
      </trkpt>
      <trkpt lat="44.50501" lon="5.5304">
        <ele>1050.3</ele>
        <time>2021-09-07T08:42:19Z</time>
      </trkpt>
      <trkpt lat="44.50501" lon="5.53038">
        <ele>1050.3</ele>
        <time>2021-09-07T08:42:20Z</time>
      </trkpt>
      <trkpt lat="44.50502" lon="5.53037">
        <ele>1050.4</ele>
        <time>2021-09-07T08:42:21Z</time>
      </trkpt>
      <trkpt lat="44.50502" lon="5.53036">
        <ele>1050.4</ele>
        <time>2021-09-07T08:42:22Z</time>
      </trkpt>
      <trkpt lat="44.50504" lon="5.53034">
        <ele>1050.6</ele>
        <time>2021-09-07T08:42:23Z</time>
      </trkpt>
      <trkpt lat="44.50505" lon="5.53032">
        <ele>1050.6</ele>
        <time>2021-09-07T08:42:24Z</time>
      </trkpt>
      <trkpt lat="44.50506" lon="5.5303">
        <ele>1050.7</ele>
        <time>2021-09-07T08:42:25Z</time>
      </trkpt>
      <trkpt lat="44.50507" lon="5.53028">
        <ele>1050.8</ele>
        <time>2021-09-07T08:42:26Z</time>
      </trkpt>
      <trkpt lat="44.50507" lon="5.53024">
        <ele>1050.9</ele>
        <time>2021-09-07T08:42:27Z</time>
      </trkpt>
      <trkpt lat="44.50508" lon="5.53022">
        <ele>1051</ele>
        <time>2021-09-07T08:42:28Z</time>
      </trkpt>
      <trkpt lat="44.50509" lon="5.5302">
        <ele>1051.1</ele>
        <time>2021-09-07T08:42:29Z</time>
      </trkpt>
      <trkpt lat="44.50512" lon="5.53017">
        <ele>1051.3</ele>
        <time>2021-09-07T08:42:30Z</time>
      </trkpt>
      <trkpt lat="44.50513" lon="5.53015">
        <ele>1051.3</ele>
        <time>2021-09-07T08:42:31Z</time>
      </trkpt>
      <trkpt lat="44.50513" lon="5.53012">
        <ele>1051.4</ele>
        <time>2021-09-07T08:42:32Z</time>
      </trkpt>
      <trkpt lat="44.50514" lon="5.53007">
        <ele>1051.6</ele>
        <time>2021-09-07T08:42:33Z</time>
      </trkpt>
      <trkpt lat="44.50513" lon="5.53004">
        <ele>1051.7</ele>
        <time>2021-09-07T08:42:34Z</time>
      </trkpt>
      <trkpt lat="44.50513" lon="5.53003">
        <ele>1051.7</ele>
        <time>2021-09-07T08:42:35Z</time>
      </trkpt>
      <trkpt lat="44.50512" lon="5.53002">
        <ele>1051.8</ele>
        <time>2021-09-07T08:42:36Z</time>
      </trkpt>
      <trkpt lat="44.50513" lon="5.53">
        <ele>1051.9</ele>
        <time>2021-09-07T08:42:37Z</time>
      </trkpt>
      <trkpt lat="44.50514" lon="5.52998">
        <ele>1051.9</ele>
        <time>2021-09-07T08:42:38Z</time>
      </trkpt>
      <trkpt lat="44.50515" lon="5.52996">
        <ele>1052</ele>
        <time>2021-09-07T08:42:39Z</time>
      </trkpt>
      <trkpt lat="44.50515" lon="5.52994">
        <ele>1052.1</ele>
        <time>2021-09-07T08:42:40Z</time>
      </trkpt>
      <trkpt lat="44.50515" lon="5.52993">
        <ele>1052.1</ele>
        <time>2021-09-07T08:42:41Z</time>
      </trkpt>
      <trkpt lat="44.50515" lon="5.52991">
        <ele>1052.1</ele>
        <time>2021-09-07T08:42:42Z</time>
      </trkpt>
      <trkpt lat="44.50515" lon="5.52989">
        <ele>1052.2</ele>
        <time>2021-09-07T08:42:43Z</time>
      </trkpt>
      <trkpt lat="44.50516" lon="5.52989">
        <ele>1052.2</ele>
        <time>2021-09-07T08:42:44Z</time>
      </trkpt>
      <trkpt lat="44.50517" lon="5.52988">
        <ele>1052.3</ele>
        <time>2021-09-07T08:42:45Z</time>
      </trkpt>
      <trkpt lat="44.50519" lon="5.52986">
        <ele>1052.4</ele>
        <time>2021-09-07T08:42:46Z</time>
      </trkpt>
      <trkpt lat="44.50519" lon="5.52982">
        <ele>1052.5</ele>
        <time>2021-09-07T08:42:47Z</time>
      </trkpt>
      <trkpt lat="44.5052" lon="5.52979">
        <ele>1052.5</ele>
        <time>2021-09-07T08:42:48Z</time>
      </trkpt>
      <trkpt lat="44.5052" lon="5.52976">
        <ele>1052.6</ele>
        <time>2021-09-07T08:42:49Z</time>
      </trkpt>
      <trkpt lat="44.50523" lon="5.52975">
        <ele>1052.7</ele>
        <time>2021-09-07T08:42:50Z</time>
      </trkpt>
      <trkpt lat="44.50525" lon="5.52974">
        <ele>1052.8</ele>
        <time>2021-09-07T08:42:51Z</time>
      </trkpt>
      <trkpt lat="44.50528" lon="5.52973">
        <ele>1052.9</ele>
        <time>2021-09-07T08:42:52Z</time>
      </trkpt>
      <trkpt lat="44.50531" lon="5.52972">
        <ele>1053</ele>
        <time>2021-09-07T08:42:53Z</time>
      </trkpt>
      <trkpt lat="44.50534" lon="5.5297">
        <ele>1053.1</ele>
        <time>2021-09-07T08:42:54Z</time>
      </trkpt>
      <trkpt lat="44.50537" lon="5.52968">
        <ele>1053.2</ele>
        <time>2021-09-07T08:42:55Z</time>
      </trkpt>
      <trkpt lat="44.50539" lon="5.52966">
        <ele>1053.3</ele>
        <time>2021-09-07T08:42:56Z</time>
      </trkpt>
      <trkpt lat="44.5054" lon="5.52963">
        <ele>1053.4</ele>
        <time>2021-09-07T08:42:57Z</time>
      </trkpt>
      <trkpt lat="44.5054" lon="5.52958">
        <ele>1053.5</ele>
        <time>2021-09-07T08:42:58Z</time>
      </trkpt>
      <trkpt lat="44.5054" lon="5.52954">
        <ele>1053.6</ele>
        <time>2021-09-07T08:42:59Z</time>
      </trkpt>
      <trkpt lat="44.50539" lon="5.52949">
        <ele>1053.7</ele>
        <time>2021-09-07T08:43:00Z</time>
      </trkpt>
      <trkpt lat="44.50539" lon="5.52945">
        <ele>1053.8</ele>
        <time>2021-09-07T08:43:01Z</time>
      </trkpt>
      <trkpt lat="44.50539" lon="5.52941">
        <ele>1053.9</ele>
        <time>2021-09-07T08:43:02Z</time>
      </trkpt>
      <trkpt lat="44.50538" lon="5.52938">
        <ele>1053.9</ele>
        <time>2021-09-07T08:43:03Z</time>
      </trkpt>
      <trkpt lat="44.50537" lon="5.52935">
        <ele>1054</ele>
        <time>2021-09-07T08:43:04Z</time>
      </trkpt>
      <trkpt lat="44.50534" lon="5.52929">
        <ele>1054.2</ele>
        <time>2021-09-07T08:43:05Z</time>
      </trkpt>
      <trkpt lat="44.50532" lon="5.52926">
        <ele>1054.2</ele>
        <time>2021-09-07T08:43:06Z</time>
      </trkpt>
      <trkpt lat="44.5053" lon="5.52923">
        <ele>1054.3</ele>
        <time>2021-09-07T08:43:07Z</time>
      </trkpt>
      <trkpt lat="44.50528" lon="5.5292">
        <ele>1054.4</ele>
        <time>2021-09-07T08:43:08Z</time>
      </trkpt>
      <trkpt lat="44.50526" lon="5.52917">
        <ele>1054.5</ele>
        <time>2021-09-07T08:43:09Z</time>
      </trkpt>
      <trkpt lat="44.50524" lon="5.52913">
        <ele>1054.6</ele>
        <time>2021-09-07T08:43:10Z</time>
      </trkpt>
      <trkpt lat="44.50521" lon="5.52909">
        <ele>1054.7</ele>
        <time>2021-09-07T08:43:11Z</time>
      </trkpt>
      <trkpt lat="44.50516" lon="5.52905">
        <ele>1054.8</ele>
        <time>2021-09-07T08:43:12Z</time>
      </trkpt>
      <trkpt lat="44.50514" lon="5.52901">
        <ele>1054.9</ele>
        <time>2021-09-07T08:43:13Z</time>
      </trkpt>
      <trkpt lat="44.50512" lon="5.52896">
        <ele>1055</ele>
        <time>2021-09-07T08:43:14Z</time>
      </trkpt>
      <trkpt lat="44.50511" lon="5.52891">
        <ele>1055.1</ele>
        <time>2021-09-07T08:43:15Z</time>
      </trkpt>
      <trkpt lat="44.5051" lon="5.52889">
        <ele>1055.2</ele>
        <time>2021-09-07T08:43:16Z</time>
      </trkpt>
      <trkpt lat="44.50508" lon="5.52886">
        <ele>1055.2</ele>
        <time>2021-09-07T08:43:17Z</time>
      </trkpt>
      <trkpt lat="44.50506" lon="5.52882">
        <ele>1055.3</ele>
        <time>2021-09-07T08:43:18Z</time>
      </trkpt>
      <trkpt lat="44.50504" lon="5.52879">
        <ele>1055.4</ele>
        <time>2021-09-07T08:43:19Z</time>
      </trkpt>
      <trkpt lat="44.50504" lon="5.52875">
        <ele>1055.4</ele>
        <time>2021-09-07T08:43:20Z</time>
      </trkpt>
      <trkpt lat="44.50504" lon="5.5287">
        <ele>1055.5</ele>
        <time>2021-09-07T08:43:21Z</time>
      </trkpt>
      <trkpt lat="44.50504" lon="5.52865">
        <ele>1055.6</ele>
        <time>2021-09-07T08:43:22Z</time>
      </trkpt>
      <trkpt lat="44.50503" lon="5.52859">
        <ele>1055.7</ele>
        <time>2021-09-07T08:43:23Z</time>
      </trkpt>
      <trkpt lat="44.50503" lon="5.52854">
        <ele>1055.8</ele>
        <time>2021-09-07T08:43:24Z</time>
      </trkpt>
      <trkpt lat="44.50503" lon="5.5285">
        <ele>1055.9</ele>
        <time>2021-09-07T08:43:25Z</time>
      </trkpt>
      <trkpt lat="44.50502" lon="5.52845">
        <ele>1055.9</ele>
        <time>2021-09-07T08:43:26Z</time>
      </trkpt>
      <trkpt lat="44.50501" lon="5.5284">
        <ele>1056</ele>
        <time>2021-09-07T08:43:27Z</time>
      </trkpt>
      <trkpt lat="44.50501" lon="5.52835">
        <ele>1056.1</ele>
        <time>2021-09-07T08:43:28Z</time>
      </trkpt>
      <trkpt lat="44.50501" lon="5.52831">
        <ele>1056.2</ele>
        <time>2021-09-07T08:43:29Z</time>
      </trkpt>
      <trkpt lat="44.50501" lon="5.52826">
        <ele>1056.3</ele>
        <time>2021-09-07T08:43:30Z</time>
      </trkpt>
      <trkpt lat="44.50499" lon="5.5282">
        <ele>1056.4</ele>
        <time>2021-09-07T08:43:31Z</time>
      </trkpt>
      <trkpt lat="44.50498" lon="5.52815">
        <ele>1056.5</ele>
        <time>2021-09-07T08:43:32Z</time>
      </trkpt>
      <trkpt lat="44.50497" lon="5.52811">
        <ele>1056.6</ele>
        <time>2021-09-07T08:43:33Z</time>
      </trkpt>
      <trkpt lat="44.50496" lon="5.52806">
        <ele>1056.7</ele>
        <time>2021-09-07T08:43:34Z</time>
      </trkpt>
      <trkpt lat="44.50495" lon="5.52799">
        <ele>1056.9</ele>
        <time>2021-09-07T08:43:35Z</time>
      </trkpt>
      <trkpt lat="44.50495" lon="5.52794">
        <ele>1057</ele>
        <time>2021-09-07T08:43:36Z</time>
      </trkpt>
      <trkpt lat="44.50496" lon="5.52791">
        <ele>1057</ele>
        <time>2021-09-07T08:43:37Z</time>
      </trkpt>
      <trkpt lat="44.50496" lon="5.52787">
        <ele>1057.1</ele>
        <time>2021-09-07T08:43:38Z</time>
      </trkpt>
      <trkpt lat="44.50496" lon="5.52782">
        <ele>1057.2</ele>
        <time>2021-09-07T08:43:39Z</time>
      </trkpt>
      <trkpt lat="44.50497" lon="5.5278">
        <ele>1057.3</ele>
        <time>2021-09-07T08:43:40Z</time>
      </trkpt>
      <trkpt lat="44.50497" lon="5.52777">
        <ele>1057.3</ele>
        <time>2021-09-07T08:43:41Z</time>
      </trkpt>
      <trkpt lat="44.50498" lon="5.52772">
        <ele>1057.4</ele>
        <time>2021-09-07T08:43:42Z</time>
      </trkpt>
      <trkpt lat="44.50499" lon="5.5277">
        <ele>1057.5</ele>
        <time>2021-09-07T08:43:43Z</time>
      </trkpt>
      <trkpt lat="44.50499" lon="5.52767">
        <ele>1057.5</ele>
        <time>2021-09-07T08:43:44Z</time>
      </trkpt>
      <trkpt lat="44.50499" lon="5.52762">
        <ele>1057.6</ele>
        <time>2021-09-07T08:43:45Z</time>
      </trkpt>
      <trkpt lat="44.505" lon="5.52759">
        <ele>1057.7</ele>
        <time>2021-09-07T08:43:46Z</time>
      </trkpt>
      <trkpt lat="44.505" lon="5.52756">
        <ele>1057.8</ele>
        <time>2021-09-07T08:43:47Z</time>
      </trkpt>
      <trkpt lat="44.50501" lon="5.52754">
        <ele>1057.8</ele>
        <time>2021-09-07T08:43:48Z</time>
      </trkpt>
      <trkpt lat="44.50502" lon="5.52752">
        <ele>1057.9</ele>
        <time>2021-09-07T08:43:49Z</time>
      </trkpt>
      <trkpt lat="44.50504" lon="5.52749">
        <ele>1058</ele>
        <time>2021-09-07T08:43:50Z</time>
      </trkpt>
      <trkpt lat="44.50505" lon="5.52747">
        <ele>1058.1</ele>
        <time>2021-09-07T08:43:51Z</time>
      </trkpt>
      <trkpt lat="44.50506" lon="5.52745">
        <ele>1058.1</ele>
        <time>2021-09-07T08:43:52Z</time>
      </trkpt>
      <trkpt lat="44.50509" lon="5.52742">
        <ele>1058.3</ele>
        <time>2021-09-07T08:43:53Z</time>
      </trkpt>
      <trkpt lat="44.5051" lon="5.52739">
        <ele>1058.4</ele>
        <time>2021-09-07T08:43:54Z</time>
      </trkpt>
      <trkpt lat="44.50511" lon="5.52735">
        <ele>1058.5</ele>
        <time>2021-09-07T08:43:55Z</time>
      </trkpt>
      <trkpt lat="44.50512" lon="5.52731">
        <ele>1058.6</ele>
        <time>2021-09-07T08:43:56Z</time>
      </trkpt>
      <trkpt lat="44.50512" lon="5.52727">
        <ele>1058.7</ele>
        <time>2021-09-07T08:43:57Z</time>
      </trkpt>
      <trkpt lat="44.50512" lon="5.52723">
        <ele>1058.8</ele>
        <time>2021-09-07T08:43:58Z</time>
      </trkpt>
      <trkpt lat="44.50512" lon="5.52719">
        <ele>1058.9</ele>
        <time>2021-09-07T08:43:59Z</time>
      </trkpt>
      <trkpt lat="44.50511" lon="5.52715">
        <ele>1059.1</ele>
        <time>2021-09-07T08:44:00Z</time>
      </trkpt>
      <trkpt lat="44.5051" lon="5.52713">
        <ele>1059.2</ele>
        <time>2021-09-07T08:44:01Z</time>
      </trkpt>
      <trkpt lat="44.50509" lon="5.5271">
        <ele>1059.3</ele>
        <time>2021-09-07T08:44:02Z</time>
      </trkpt>
      <trkpt lat="44.50507" lon="5.52705">
        <ele>1059.5</ele>
        <time>2021-09-07T08:44:03Z</time>
      </trkpt>
      <trkpt lat="44.50506" lon="5.52702">
        <ele>1059.6</ele>
        <time>2021-09-07T08:44:04Z</time>
      </trkpt>
      <trkpt lat="44.50504" lon="5.52699">
        <ele>1059.8</ele>
        <time>2021-09-07T08:44:05Z</time>
      </trkpt>
      <trkpt lat="44.50504" lon="5.52694">
        <ele>1060</ele>
        <time>2021-09-07T08:44:06Z</time>
      </trkpt>
      <trkpt lat="44.50503" lon="5.5269">
        <ele>1060.2</ele>
        <time>2021-09-07T08:44:07Z</time>
      </trkpt>
      <trkpt lat="44.50502" lon="5.52686">
        <ele>1060.3</ele>
        <time>2021-09-07T08:44:08Z</time>
      </trkpt>
      <trkpt lat="44.50502" lon="5.52684">
        <ele>1060.4</ele>
        <time>2021-09-07T08:44:09Z</time>
      </trkpt>
      <trkpt lat="44.50502" lon="5.52681">
        <ele>1060.5</ele>
        <time>2021-09-07T08:44:10Z</time>
      </trkpt>
      <trkpt lat="44.50502" lon="5.52676">
        <ele>1060.7</ele>
        <time>2021-09-07T08:44:11Z</time>
      </trkpt>
      <trkpt lat="44.50502" lon="5.52673">
        <ele>1060.8</ele>
        <time>2021-09-07T08:44:12Z</time>
      </trkpt>
      <trkpt lat="44.50502" lon="5.5267">
        <ele>1061</ele>
        <time>2021-09-07T08:44:13Z</time>
      </trkpt>
      <trkpt lat="44.50501" lon="5.52666">
        <ele>1061.1</ele>
        <time>2021-09-07T08:44:14Z</time>
      </trkpt>
      <trkpt lat="44.50499" lon="5.52663">
        <ele>1061.3</ele>
        <time>2021-09-07T08:44:15Z</time>
      </trkpt>
      <trkpt lat="44.50499" lon="5.5266">
        <ele>1061.4</ele>
        <time>2021-09-07T08:44:16Z</time>
      </trkpt>
      <trkpt lat="44.50499" lon="5.52658">
        <ele>1061.5</ele>
        <time>2021-09-07T08:44:17Z</time>
      </trkpt>
      <trkpt lat="44.50498" lon="5.52655">
        <ele>1061.5</ele>
        <time>2021-09-07T08:44:18Z</time>
      </trkpt>
      <trkpt lat="44.50497" lon="5.52651">
        <ele>1061.7</ele>
        <time>2021-09-07T08:44:19Z</time>
      </trkpt>
      <trkpt lat="44.50497" lon="5.52649">
        <ele>1061.8</ele>
        <time>2021-09-07T08:44:20Z</time>
      </trkpt>
      <trkpt lat="44.50497" lon="5.52647">
        <ele>1061.8</ele>
        <time>2021-09-07T08:44:21Z</time>
      </trkpt>
      <trkpt lat="44.50496" lon="5.52645">
        <ele>1061.9</ele>
        <time>2021-09-07T08:44:22Z</time>
      </trkpt>
      <trkpt lat="44.50497" lon="5.52641">
        <ele>1062</ele>
        <time>2021-09-07T08:44:23Z</time>
      </trkpt>
      <trkpt lat="44.50497" lon="5.52638">
        <ele>1062.1</ele>
        <time>2021-09-07T08:44:24Z</time>
      </trkpt>
      <trkpt lat="44.50497" lon="5.52635">
        <ele>1062.2</ele>
        <time>2021-09-07T08:44:25Z</time>
      </trkpt>
      <trkpt lat="44.50497" lon="5.52632">
        <ele>1062.3</ele>
        <time>2021-09-07T08:44:26Z</time>
      </trkpt>
      <trkpt lat="44.50497" lon="5.52627">
        <ele>1062.5</ele>
        <time>2021-09-07T08:44:27Z</time>
      </trkpt>
      <trkpt lat="44.50497" lon="5.52624">
        <ele>1062.6</ele>
        <time>2021-09-07T08:44:28Z</time>
      </trkpt>
      <trkpt lat="44.50497" lon="5.5262">
        <ele>1062.8</ele>
        <time>2021-09-07T08:44:29Z</time>
      </trkpt>
      <trkpt lat="44.50496" lon="5.52617">
        <ele>1062.9</ele>
        <time>2021-09-07T08:44:30Z</time>
      </trkpt>
      <trkpt lat="44.50496" lon="5.52614">
        <ele>1063</ele>
        <time>2021-09-07T08:44:31Z</time>
      </trkpt>
      <trkpt lat="44.50495" lon="5.52611">
        <ele>1063.1</ele>
        <time>2021-09-07T08:44:32Z</time>
      </trkpt>
      <trkpt lat="44.50494" lon="5.52606">
        <ele>1063.3</ele>
        <time>2021-09-07T08:44:33Z</time>
      </trkpt>
      <trkpt lat="44.50494" lon="5.52603">
        <ele>1063.4</ele>
        <time>2021-09-07T08:44:34Z</time>
      </trkpt>
      <trkpt lat="44.50493" lon="5.52601">
        <ele>1063.5</ele>
        <time>2021-09-07T08:44:35Z</time>
      </trkpt>
      <trkpt lat="44.50492" lon="5.52598">
        <ele>1063.6</ele>
        <time>2021-09-07T08:44:36Z</time>
      </trkpt>
      <trkpt lat="44.50491" lon="5.52593">
        <ele>1063.8</ele>
        <time>2021-09-07T08:44:37Z</time>
      </trkpt>
      <trkpt lat="44.50491" lon="5.52589">
        <ele>1063.9</ele>
        <time>2021-09-07T08:44:38Z</time>
      </trkpt>
      <trkpt lat="44.50492" lon="5.52587">
        <ele>1064</ele>
        <time>2021-09-07T08:44:39Z</time>
      </trkpt>
      <trkpt lat="44.50492" lon="5.52584">
        <ele>1064.1</ele>
        <time>2021-09-07T08:44:40Z</time>
      </trkpt>
      <trkpt lat="44.50492" lon="5.52581">
        <ele>1064.2</ele>
        <time>2021-09-07T08:44:41Z</time>
      </trkpt>
      <trkpt lat="44.50492" lon="5.52578">
        <ele>1064.3</ele>
        <time>2021-09-07T08:44:42Z</time>
      </trkpt>
      <trkpt lat="44.50492" lon="5.52576">
        <ele>1064.3</ele>
        <time>2021-09-07T08:44:43Z</time>
      </trkpt>
      <trkpt lat="44.50492" lon="5.52574">
        <ele>1064.4</ele>
        <time>2021-09-07T08:44:44Z</time>
      </trkpt>
      <trkpt lat="44.50491" lon="5.52569">
        <ele>1064.6</ele>
        <time>2021-09-07T08:44:45Z</time>
      </trkpt>
      <trkpt lat="44.5049" lon="5.52566">
        <ele>1064.7</ele>
        <time>2021-09-07T08:44:46Z</time>
      </trkpt>
      <trkpt lat="44.50489" lon="5.52563">
        <ele>1064.8</ele>
        <time>2021-09-07T08:44:47Z</time>
      </trkpt>
      <trkpt lat="44.50487" lon="5.52558">
        <ele>1064.9</ele>
        <time>2021-09-07T08:44:48Z</time>
      </trkpt>
      <trkpt lat="44.50487" lon="5.52555">
        <ele>1065</ele>
        <time>2021-09-07T08:44:49Z</time>
      </trkpt>
      <trkpt lat="44.50486" lon="5.52552">
        <ele>1065.1</ele>
        <time>2021-09-07T08:44:50Z</time>
      </trkpt>
      <trkpt lat="44.50486" lon="5.52549">
        <ele>1065.2</ele>
        <time>2021-09-07T08:44:51Z</time>
      </trkpt>
      <trkpt lat="44.50486" lon="5.52545">
        <ele>1065.3</ele>
        <time>2021-09-07T08:44:52Z</time>
      </trkpt>
      <trkpt lat="44.50486" lon="5.52542">
        <ele>1065.3</ele>
        <time>2021-09-07T08:44:53Z</time>
      </trkpt>
      <trkpt lat="44.50486" lon="5.52539">
        <ele>1065.4</ele>
        <time>2021-09-07T08:44:54Z</time>
      </trkpt>
      <trkpt lat="44.50486" lon="5.52536">
        <ele>1065.5</ele>
        <time>2021-09-07T08:44:55Z</time>
      </trkpt>
      <trkpt lat="44.50486" lon="5.52533">
        <ele>1065.6</ele>
        <time>2021-09-07T08:44:56Z</time>
      </trkpt>
      <trkpt lat="44.50487" lon="5.52529">
        <ele>1065.7</ele>
        <time>2021-09-07T08:44:57Z</time>
      </trkpt>
      <trkpt lat="44.50487" lon="5.52525">
        <ele>1065.8</ele>
        <time>2021-09-07T08:44:58Z</time>
      </trkpt>
      <trkpt lat="44.50488" lon="5.5252">
        <ele>1065.9</ele>
        <time>2021-09-07T08:44:59Z</time>
      </trkpt>
      <trkpt lat="44.50489" lon="5.52516">
        <ele>1066</ele>
        <time>2021-09-07T08:45:00Z</time>
      </trkpt>
      <trkpt lat="44.50489" lon="5.52512">
        <ele>1066.1</ele>
        <time>2021-09-07T08:45:01Z</time>
      </trkpt>
      <trkpt lat="44.50489" lon="5.52509">
        <ele>1066.2</ele>
        <time>2021-09-07T08:45:02Z</time>
      </trkpt>
      <trkpt lat="44.50488" lon="5.52505">
        <ele>1066.3</ele>
        <time>2021-09-07T08:45:03Z</time>
      </trkpt>
      <trkpt lat="44.50487" lon="5.52498">
        <ele>1066.4</ele>
        <time>2021-09-07T08:45:04Z</time>
      </trkpt>
      <trkpt lat="44.50487" lon="5.52494">
        <ele>1066.5</ele>
        <time>2021-09-07T08:45:05Z</time>
      </trkpt>
      <trkpt lat="44.50486" lon="5.5249">
        <ele>1066.6</ele>
        <time>2021-09-07T08:45:06Z</time>
      </trkpt>
      <trkpt lat="44.50487" lon="5.52487">
        <ele>1066.7</ele>
        <time>2021-09-07T08:45:07Z</time>
      </trkpt>
      <trkpt lat="44.50487" lon="5.52483">
        <ele>1066.8</ele>
        <time>2021-09-07T08:45:08Z</time>
      </trkpt>
      <trkpt lat="44.50487" lon="5.52479">
        <ele>1066.9</ele>
        <time>2021-09-07T08:45:09Z</time>
      </trkpt>
      <trkpt lat="44.50487" lon="5.52475">
        <ele>1067</ele>
        <time>2021-09-07T08:45:10Z</time>
      </trkpt>
      <trkpt lat="44.50487" lon="5.52471">
        <ele>1067.1</ele>
        <time>2021-09-07T08:45:11Z</time>
      </trkpt>
      <trkpt lat="44.50486" lon="5.52468">
        <ele>1067.2</ele>
        <time>2021-09-07T08:45:12Z</time>
      </trkpt>
      <trkpt lat="44.50486" lon="5.52466">
        <ele>1067.2</ele>
        <time>2021-09-07T08:45:13Z</time>
      </trkpt>
      <trkpt lat="44.50486" lon="5.52463">
        <ele>1067.3</ele>
        <time>2021-09-07T08:45:14Z</time>
      </trkpt>
      <trkpt lat="44.50487" lon="5.52458">
        <ele>1067.5</ele>
        <time>2021-09-07T08:45:15Z</time>
      </trkpt>
      <trkpt lat="44.50487" lon="5.52455">
        <ele>1067.6</ele>
        <time>2021-09-07T08:45:16Z</time>
      </trkpt>
      <trkpt lat="44.50487" lon="5.52451">
        <ele>1067.7</ele>
        <time>2021-09-07T08:45:17Z</time>
      </trkpt>
      <trkpt lat="44.50486" lon="5.52446">
        <ele>1067.9</ele>
        <time>2021-09-07T08:45:18Z</time>
      </trkpt>
      <trkpt lat="44.50486" lon="5.52444">
        <ele>1068</ele>
        <time>2021-09-07T08:45:19Z</time>
      </trkpt>
      <trkpt lat="44.50485" lon="5.52441">
        <ele>1068.1</ele>
        <time>2021-09-07T08:45:20Z</time>
      </trkpt>
      <trkpt lat="44.50484" lon="5.52436">
        <ele>1068.3</ele>
        <time>2021-09-07T08:45:21Z</time>
      </trkpt>
      <trkpt lat="44.50484" lon="5.52432">
        <ele>1068.5</ele>
        <time>2021-09-07T08:45:22Z</time>
      </trkpt>
      <trkpt lat="44.50483" lon="5.52428">
        <ele>1068.7</ele>
        <time>2021-09-07T08:45:23Z</time>
      </trkpt>
      <trkpt lat="44.50483" lon="5.52425">
        <ele>1068.8</ele>
        <time>2021-09-07T08:45:24Z</time>
      </trkpt>
      <trkpt lat="44.50482" lon="5.52422">
        <ele>1068.9</ele>
        <time>2021-09-07T08:45:25Z</time>
      </trkpt>
      <trkpt lat="44.50483" lon="5.52419">
        <ele>1069.1</ele>
        <time>2021-09-07T08:45:26Z</time>
      </trkpt>
      <trkpt lat="44.50484" lon="5.52416">
        <ele>1069.2</ele>
        <time>2021-09-07T08:45:27Z</time>
      </trkpt>
      <trkpt lat="44.50485" lon="5.52413">
        <ele>1069.4</ele>
        <time>2021-09-07T08:45:28Z</time>
      </trkpt>
      <trkpt lat="44.50484" lon="5.52408">
        <ele>1069.6</ele>
        <time>2021-09-07T08:45:29Z</time>
      </trkpt>
      <trkpt lat="44.50483" lon="5.52405">
        <ele>1069.7</ele>
        <time>2021-09-07T08:45:30Z</time>
      </trkpt>
      <trkpt lat="44.50482" lon="5.52402">
        <ele>1069.8</ele>
        <time>2021-09-07T08:45:31Z</time>
      </trkpt>
      <trkpt lat="44.50481" lon="5.52399">
        <ele>1070</ele>
        <time>2021-09-07T08:45:32Z</time>
      </trkpt>
      <trkpt lat="44.50479" lon="5.52396">
        <ele>1070.1</ele>
        <time>2021-09-07T08:45:33Z</time>
      </trkpt>
      <trkpt lat="44.50477" lon="5.52394">
        <ele>1070.3</ele>
        <time>2021-09-07T08:45:34Z</time>
      </trkpt>
      <trkpt lat="44.50475" lon="5.52391">
        <ele>1070.4</ele>
        <time>2021-09-07T08:45:35Z</time>
      </trkpt>
      <trkpt lat="44.50471" lon="5.52386">
        <ele>1070.7</ele>
        <time>2021-09-07T08:45:36Z</time>
      </trkpt>
      <trkpt lat="44.5047" lon="5.52383">
        <ele>1070.8</ele>
        <time>2021-09-07T08:45:37Z</time>
      </trkpt>
      <trkpt lat="44.50469" lon="5.5238">
        <ele>1070.9</ele>
        <time>2021-09-07T08:45:38Z</time>
      </trkpt>
      <trkpt lat="44.50469" lon="5.52377">
        <ele>1071</ele>
        <time>2021-09-07T08:45:39Z</time>
      </trkpt>
      <trkpt lat="44.50468" lon="5.52373">
        <ele>1071.2</ele>
        <time>2021-09-07T08:45:40Z</time>
      </trkpt>
      <trkpt lat="44.50468" lon="5.52368">
        <ele>1071.3</ele>
        <time>2021-09-07T08:45:41Z</time>
      </trkpt>
      <trkpt lat="44.50468" lon="5.52364">
        <ele>1071.4</ele>
        <time>2021-09-07T08:45:42Z</time>
      </trkpt>
      <trkpt lat="44.50468" lon="5.52361">
        <ele>1071.4</ele>
        <time>2021-09-07T08:45:43Z</time>
      </trkpt>
      <trkpt lat="44.50468" lon="5.52357">
        <ele>1071.5</ele>
        <time>2021-09-07T08:45:44Z</time>
      </trkpt>
      <trkpt lat="44.50469" lon="5.5235">
        <ele>1071.6</ele>
        <time>2021-09-07T08:45:45Z</time>
      </trkpt>
      <trkpt lat="44.50469" lon="5.52346">
        <ele>1071.6</ele>
        <time>2021-09-07T08:45:46Z</time>
      </trkpt>
      <trkpt lat="44.50469" lon="5.52342">
        <ele>1071.6</ele>
        <time>2021-09-07T08:45:47Z</time>
      </trkpt>
      <trkpt lat="44.50469" lon="5.52339">
        <ele>1071.7</ele>
        <time>2021-09-07T08:45:48Z</time>
      </trkpt>
      <trkpt lat="44.50469" lon="5.52336">
        <ele>1071.7</ele>
        <time>2021-09-07T08:45:49Z</time>
      </trkpt>
      <trkpt lat="44.50468" lon="5.52329">
        <ele>1071.8</ele>
        <time>2021-09-07T08:45:50Z</time>
      </trkpt>
      <trkpt lat="44.50469" lon="5.52326">
        <ele>1071.8</ele>
        <time>2021-09-07T08:45:51Z</time>
      </trkpt>
      <trkpt lat="44.50469" lon="5.52322">
        <ele>1071.9</ele>
        <time>2021-09-07T08:45:52Z</time>
      </trkpt>
      <trkpt lat="44.50469" lon="5.52315">
        <ele>1071.9</ele>
        <time>2021-09-07T08:45:53Z</time>
      </trkpt>
      <trkpt lat="44.5047" lon="5.52311">
        <ele>1072</ele>
        <time>2021-09-07T08:45:54Z</time>
      </trkpt>
      <trkpt lat="44.50471" lon="5.52306">
        <ele>1072.1</ele>
        <time>2021-09-07T08:45:55Z</time>
      </trkpt>
      <trkpt lat="44.50472" lon="5.52301">
        <ele>1072.2</ele>
        <time>2021-09-07T08:45:56Z</time>
      </trkpt>
      <trkpt lat="44.50475" lon="5.52297">
        <ele>1072.4</ele>
        <time>2021-09-07T08:45:57Z</time>
      </trkpt>
      <trkpt lat="44.50476" lon="5.52294">
        <ele>1072.5</ele>
        <time>2021-09-07T08:45:58Z</time>
      </trkpt>
      <trkpt lat="44.50477" lon="5.52291">
        <ele>1072.6</ele>
        <time>2021-09-07T08:45:59Z</time>
      </trkpt>
      <trkpt lat="44.50478" lon="5.52288">
        <ele>1072.7</ele>
        <time>2021-09-07T08:46:00Z</time>
      </trkpt>
      <trkpt lat="44.50479" lon="5.52284">
        <ele>1072.7</ele>
        <time>2021-09-07T08:46:01Z</time>
      </trkpt>
      <trkpt lat="44.50481" lon="5.5228">
        <ele>1072.9</ele>
        <time>2021-09-07T08:46:02Z</time>
      </trkpt>
      <trkpt lat="44.50482" lon="5.52275">
        <ele>1073</ele>
        <time>2021-09-07T08:46:03Z</time>
      </trkpt>
      <trkpt lat="44.50483" lon="5.52272">
        <ele>1073.1</ele>
        <time>2021-09-07T08:46:04Z</time>
      </trkpt>
      <trkpt lat="44.50483" lon="5.52269">
        <ele>1073.2</ele>
        <time>2021-09-07T08:46:05Z</time>
      </trkpt>
      <trkpt lat="44.50484" lon="5.52264">
        <ele>1073.3</ele>
        <time>2021-09-07T08:46:06Z</time>
      </trkpt>
      <trkpt lat="44.50485" lon="5.5226">
        <ele>1073.4</ele>
        <time>2021-09-07T08:46:07Z</time>
      </trkpt>
      <trkpt lat="44.50486" lon="5.52256">
        <ele>1073.5</ele>
        <time>2021-09-07T08:46:08Z</time>
      </trkpt>
      <trkpt lat="44.50486" lon="5.52254">
        <ele>1073.6</ele>
        <time>2021-09-07T08:46:09Z</time>
      </trkpt>
      <trkpt lat="44.50486" lon="5.52251">
        <ele>1073.7</ele>
        <time>2021-09-07T08:46:10Z</time>
      </trkpt>
      <trkpt lat="44.50489" lon="5.52246">
        <ele>1073.8</ele>
        <time>2021-09-07T08:46:11Z</time>
      </trkpt>
      <trkpt lat="44.5049" lon="5.52243">
        <ele>1073.9</ele>
        <time>2021-09-07T08:46:12Z</time>
      </trkpt>
      <trkpt lat="44.5049" lon="5.52239">
        <ele>1074</ele>
        <time>2021-09-07T08:46:13Z</time>
      </trkpt>
      <trkpt lat="44.5049" lon="5.52234">
        <ele>1074.2</ele>
        <time>2021-09-07T08:46:14Z</time>
      </trkpt>
      <trkpt lat="44.50491" lon="5.52231">
        <ele>1074.3</ele>
        <time>2021-09-07T08:46:15Z</time>
      </trkpt>
      <trkpt lat="44.50491" lon="5.52227">
        <ele>1074.4</ele>
        <time>2021-09-07T08:46:16Z</time>
      </trkpt>
      <trkpt lat="44.50491" lon="5.52224">
        <ele>1074.5</ele>
        <time>2021-09-07T08:46:17Z</time>
      </trkpt>
      <trkpt lat="44.5049" lon="5.5222">
        <ele>1074.6</ele>
        <time>2021-09-07T08:46:18Z</time>
      </trkpt>
      <trkpt lat="44.50488" lon="5.52215">
        <ele>1074.8</ele>
        <time>2021-09-07T08:46:19Z</time>
      </trkpt>
      <trkpt lat="44.50487" lon="5.52212">
        <ele>1074.9</ele>
        <time>2021-09-07T08:46:20Z</time>
      </trkpt>
      <trkpt lat="44.50486" lon="5.52209">
        <ele>1075</ele>
        <time>2021-09-07T08:46:21Z</time>
      </trkpt>
      <trkpt lat="44.50484" lon="5.52206">
        <ele>1075.1</ele>
        <time>2021-09-07T08:46:22Z</time>
      </trkpt>
      <trkpt lat="44.50483" lon="5.52203">
        <ele>1075.2</ele>
        <time>2021-09-07T08:46:23Z</time>
      </trkpt>
      <trkpt lat="44.50482" lon="5.522">
        <ele>1075.3</ele>
        <time>2021-09-07T08:46:24Z</time>
      </trkpt>
      <trkpt lat="44.5048" lon="5.52196">
        <ele>1075.5</ele>
        <time>2021-09-07T08:46:25Z</time>
      </trkpt>
      <trkpt lat="44.50479" lon="5.52194">
        <ele>1075.6</ele>
        <time>2021-09-07T08:46:26Z</time>
      </trkpt>
      <trkpt lat="44.50478" lon="5.52191">
        <ele>1075.7</ele>
        <time>2021-09-07T08:46:27Z</time>
      </trkpt>
      <trkpt lat="44.50476" lon="5.52189">
        <ele>1075.8</ele>
        <time>2021-09-07T08:46:28Z</time>
      </trkpt>
      <trkpt lat="44.50474" lon="5.52186">
        <ele>1075.9</ele>
        <time>2021-09-07T08:46:29Z</time>
      </trkpt>
      <trkpt lat="44.50471" lon="5.52183">
        <ele>1076</ele>
        <time>2021-09-07T08:46:30Z</time>
      </trkpt>
      <trkpt lat="44.5047" lon="5.52182">
        <ele>1076.1</ele>
        <time>2021-09-07T08:46:31Z</time>
      </trkpt>
      <trkpt lat="44.50469" lon="5.5218">
        <ele>1076.2</ele>
        <time>2021-09-07T08:46:32Z</time>
      </trkpt>
      <trkpt lat="44.50468" lon="5.52177">
        <ele>1076.3</ele>
        <time>2021-09-07T08:46:33Z</time>
      </trkpt>
      <trkpt lat="44.50466" lon="5.52173">
        <ele>1076.4</ele>
        <time>2021-09-07T08:46:34Z</time>
      </trkpt>
      <trkpt lat="44.50464" lon="5.52171">
        <ele>1076.5</ele>
        <time>2021-09-07T08:46:35Z</time>
      </trkpt>
      <trkpt lat="44.50462" lon="5.52169">
        <ele>1076.6</ele>
        <time>2021-09-07T08:46:36Z</time>
      </trkpt>
      <trkpt lat="44.5046" lon="5.52166">
        <ele>1076.7</ele>
        <time>2021-09-07T08:46:37Z</time>
      </trkpt>
      <trkpt lat="44.50457" lon="5.52164">
        <ele>1076.9</ele>
        <time>2021-09-07T08:46:38Z</time>
      </trkpt>
      <trkpt lat="44.50455" lon="5.52162">
        <ele>1077</ele>
        <time>2021-09-07T08:46:39Z</time>
      </trkpt>
      <trkpt lat="44.50453" lon="5.5216">
        <ele>1077.1</ele>
        <time>2021-09-07T08:46:40Z</time>
      </trkpt>
      <trkpt lat="44.50451" lon="5.52155">
        <ele>1077.3</ele>
        <time>2021-09-07T08:46:41Z</time>
      </trkpt>
      <trkpt lat="44.50449" lon="5.52153">
        <ele>1077.4</ele>
        <time>2021-09-07T08:46:42Z</time>
      </trkpt>
      <trkpt lat="44.50448" lon="5.52151">
        <ele>1077.5</ele>
        <time>2021-09-07T08:46:43Z</time>
      </trkpt>
      <trkpt lat="44.50446" lon="5.52148">
        <ele>1077.6</ele>
        <time>2021-09-07T08:46:44Z</time>
      </trkpt>
      <trkpt lat="44.50445" lon="5.52146">
        <ele>1077.7</ele>
        <time>2021-09-07T08:46:45Z</time>
      </trkpt>
      <trkpt lat="44.50444" lon="5.52143">
        <ele>1077.8</ele>
        <time>2021-09-07T08:46:46Z</time>
      </trkpt>
      <trkpt lat="44.50442" lon="5.5214">
        <ele>1077.9</ele>
        <time>2021-09-07T08:46:47Z</time>
      </trkpt>
      <trkpt lat="44.50441" lon="5.52136">
        <ele>1078.1</ele>
        <time>2021-09-07T08:46:48Z</time>
      </trkpt>
      <trkpt lat="44.5044" lon="5.52134">
        <ele>1078.2</ele>
        <time>2021-09-07T08:46:49Z</time>
      </trkpt>
      <trkpt lat="44.5044" lon="5.52132">
        <ele>1078.2</ele>
        <time>2021-09-07T08:46:50Z</time>
      </trkpt>
      <trkpt lat="44.50439" lon="5.5213">
        <ele>1078.3</ele>
        <time>2021-09-07T08:46:51Z</time>
      </trkpt>
      <trkpt lat="44.50438" lon="5.52125">
        <ele>1078.5</ele>
        <time>2021-09-07T08:46:52Z</time>
      </trkpt>
      <trkpt lat="44.50437" lon="5.5212">
        <ele>1078.6</ele>
        <time>2021-09-07T08:46:53Z</time>
      </trkpt>
      <trkpt lat="44.50437" lon="5.52118">
        <ele>1078.7</ele>
        <time>2021-09-07T08:46:54Z</time>
      </trkpt>
      <trkpt lat="44.50437" lon="5.52115">
        <ele>1078.8</ele>
        <time>2021-09-07T08:46:55Z</time>
      </trkpt>
      <trkpt lat="44.50437" lon="5.52112">
        <ele>1078.9</ele>
        <time>2021-09-07T08:46:56Z</time>
      </trkpt>
      <trkpt lat="44.50438" lon="5.52108">
        <ele>1079</ele>
        <time>2021-09-07T08:46:57Z</time>
      </trkpt>
      <trkpt lat="44.50437" lon="5.52105">
        <ele>1079.1</ele>
        <time>2021-09-07T08:46:58Z</time>
      </trkpt>
      <trkpt lat="44.50437" lon="5.52102">
        <ele>1079.2</ele>
        <time>2021-09-07T08:46:59Z</time>
      </trkpt>
      <trkpt lat="44.50436" lon="5.52099">
        <ele>1079.3</ele>
        <time>2021-09-07T08:47:00Z</time>
      </trkpt>
      <trkpt lat="44.50436" lon="5.52096">
        <ele>1079.4</ele>
        <time>2021-09-07T08:47:01Z</time>
      </trkpt>
      <trkpt lat="44.50436" lon="5.52093">
        <ele>1079.5</ele>
        <time>2021-09-07T08:47:02Z</time>
      </trkpt>
      <trkpt lat="44.50438" lon="5.5209">
        <ele>1079.6</ele>
        <time>2021-09-07T08:47:03Z</time>
      </trkpt>
      <trkpt lat="44.5044" lon="5.52087">
        <ele>1079.7</ele>
        <time>2021-09-07T08:47:04Z</time>
      </trkpt>
      <trkpt lat="44.50442" lon="5.52085">
        <ele>1079.8</ele>
        <time>2021-09-07T08:47:05Z</time>
      </trkpt>
      <trkpt lat="44.50444" lon="5.52083">
        <ele>1079.9</ele>
        <time>2021-09-07T08:47:06Z</time>
      </trkpt>
      <trkpt lat="44.50447" lon="5.52078">
        <ele>1080</ele>
        <time>2021-09-07T08:47:07Z</time>
      </trkpt>
      <trkpt lat="44.5045" lon="5.52076">
        <ele>1080.1</ele>
        <time>2021-09-07T08:47:08Z</time>
      </trkpt>
      <trkpt lat="44.50452" lon="5.52074">
        <ele>1080.2</ele>
        <time>2021-09-07T08:47:09Z</time>
      </trkpt>
      <trkpt lat="44.50454" lon="5.52073">
        <ele>1080.3</ele>
        <time>2021-09-07T08:47:10Z</time>
      </trkpt>
      <trkpt lat="44.50455" lon="5.52071">
        <ele>1080.3</ele>
        <time>2021-09-07T08:47:11Z</time>
      </trkpt>
      <trkpt lat="44.50456" lon="5.52066">
        <ele>1080.4</ele>
        <time>2021-09-07T08:47:12Z</time>
      </trkpt>
      <trkpt lat="44.50457" lon="5.52063">
        <ele>1080.5</ele>
        <time>2021-09-07T08:47:13Z</time>
      </trkpt>
      <trkpt lat="44.50458" lon="5.52059">
        <ele>1080.6</ele>
        <time>2021-09-07T08:47:14Z</time>
      </trkpt>
      <trkpt lat="44.50459" lon="5.52053">
        <ele>1080.7</ele>
        <time>2021-09-07T08:47:15Z</time>
      </trkpt>
      <trkpt lat="44.50459" lon="5.52051">
        <ele>1080.7</ele>
        <time>2021-09-07T08:47:16Z</time>
      </trkpt>
      <trkpt lat="44.50459" lon="5.52048">
        <ele>1080.8</ele>
        <time>2021-09-07T08:47:17Z</time>
      </trkpt>
      <trkpt lat="44.50458" lon="5.52042">
        <ele>1080.9</ele>
        <time>2021-09-07T08:47:18Z</time>
      </trkpt>
      <trkpt lat="44.50458" lon="5.5204">
        <ele>1081</ele>
        <time>2021-09-07T08:47:19Z</time>
      </trkpt>
      <trkpt lat="44.50458" lon="5.52037">
        <ele>1081</ele>
        <time>2021-09-07T08:47:20Z</time>
      </trkpt>
      <trkpt lat="44.50458" lon="5.52033">
        <ele>1081.1</ele>
        <time>2021-09-07T08:47:21Z</time>
      </trkpt>
      <trkpt lat="44.50458" lon="5.52029">
        <ele>1081.2</ele>
        <time>2021-09-07T08:47:22Z</time>
      </trkpt>
      <trkpt lat="44.50457" lon="5.52023">
        <ele>1081.4</ele>
        <time>2021-09-07T08:47:23Z</time>
      </trkpt>
      <trkpt lat="44.50457" lon="5.52019">
        <ele>1081.5</ele>
        <time>2021-09-07T08:47:24Z</time>
      </trkpt>
      <trkpt lat="44.50457" lon="5.52014">
        <ele>1081.6</ele>
        <time>2021-09-07T08:47:25Z</time>
      </trkpt>
      <trkpt lat="44.50457" lon="5.52008">
        <ele>1081.7</ele>
        <time>2021-09-07T08:47:26Z</time>
      </trkpt>
      <trkpt lat="44.50458" lon="5.52003">
        <ele>1081.9</ele>
        <time>2021-09-07T08:47:27Z</time>
      </trkpt>
      <trkpt lat="44.50459" lon="5.52001">
        <ele>1081.9</ele>
        <time>2021-09-07T08:47:28Z</time>
      </trkpt>
      <trkpt lat="44.5046" lon="5.51998">
        <ele>1082</ele>
        <time>2021-09-07T08:47:29Z</time>
      </trkpt>
      <trkpt lat="44.50459" lon="5.51993">
        <ele>1082.1</ele>
        <time>2021-09-07T08:47:30Z</time>
      </trkpt>
      <trkpt lat="44.50459" lon="5.5199">
        <ele>1082.2</ele>
        <time>2021-09-07T08:47:31Z</time>
      </trkpt>
      <trkpt lat="44.50458" lon="5.51986">
        <ele>1082.3</ele>
        <time>2021-09-07T08:47:32Z</time>
      </trkpt>
      <trkpt lat="44.50458" lon="5.51982">
        <ele>1082.4</ele>
        <time>2021-09-07T08:47:33Z</time>
      </trkpt>
      <trkpt lat="44.50457" lon="5.51978">
        <ele>1082.5</ele>
        <time>2021-09-07T08:47:34Z</time>
      </trkpt>
      <trkpt lat="44.50455" lon="5.51975">
        <ele>1082.6</ele>
        <time>2021-09-07T08:47:35Z</time>
      </trkpt>
      <trkpt lat="44.50453" lon="5.51972">
        <ele>1082.7</ele>
        <time>2021-09-07T08:47:36Z</time>
      </trkpt>
      <trkpt lat="44.5045" lon="5.51967">
        <ele>1082.9</ele>
        <time>2021-09-07T08:47:37Z</time>
      </trkpt>
      <trkpt lat="44.50448" lon="5.51963">
        <ele>1083</ele>
        <time>2021-09-07T08:47:38Z</time>
      </trkpt>
      <trkpt lat="44.50446" lon="5.51959">
        <ele>1083.1</ele>
        <time>2021-09-07T08:47:39Z</time>
      </trkpt>
      <trkpt lat="44.50445" lon="5.51956">
        <ele>1083.2</ele>
        <time>2021-09-07T08:47:40Z</time>
      </trkpt>
      <trkpt lat="44.50443" lon="5.51953">
        <ele>1083.3</ele>
        <time>2021-09-07T08:47:41Z</time>
      </trkpt>
      <trkpt lat="44.50441" lon="5.51947">
        <ele>1083.5</ele>
        <time>2021-09-07T08:47:42Z</time>
      </trkpt>
      <trkpt lat="44.50439" lon="5.51944">
        <ele>1083.6</ele>
        <time>2021-09-07T08:47:43Z</time>
      </trkpt>
      <trkpt lat="44.50437" lon="5.51941">
        <ele>1083.8</ele>
        <time>2021-09-07T08:47:44Z</time>
      </trkpt>
      <trkpt lat="44.50435" lon="5.51937">
        <ele>1083.9</ele>
        <time>2021-09-07T08:47:45Z</time>
      </trkpt>
      <trkpt lat="44.50434" lon="5.51933">
        <ele>1084.1</ele>
        <time>2021-09-07T08:47:46Z</time>
      </trkpt>
      <trkpt lat="44.50434" lon="5.51929">
        <ele>1084.2</ele>
        <time>2021-09-07T08:47:47Z</time>
      </trkpt>
      <trkpt lat="44.50434" lon="5.51925">
        <ele>1084.3</ele>
        <time>2021-09-07T08:47:48Z</time>
      </trkpt>
      <trkpt lat="44.50433" lon="5.5192">
        <ele>1084.5</ele>
        <time>2021-09-07T08:47:49Z</time>
      </trkpt>
      <trkpt lat="44.50431" lon="5.51917">
        <ele>1084.7</ele>
        <time>2021-09-07T08:47:50Z</time>
      </trkpt>
      <trkpt lat="44.5043" lon="5.51913">
        <ele>1084.8</ele>
        <time>2021-09-07T08:47:51Z</time>
      </trkpt>
      <trkpt lat="44.50429" lon="5.5191">
        <ele>1084.9</ele>
        <time>2021-09-07T08:47:52Z</time>
      </trkpt>
      <trkpt lat="44.50428" lon="5.51906">
        <ele>1085</ele>
        <time>2021-09-07T08:47:53Z</time>
      </trkpt>
      <trkpt lat="44.50427" lon="5.51902">
        <ele>1085.1</ele>
        <time>2021-09-07T08:47:54Z</time>
      </trkpt>
      <trkpt lat="44.50426" lon="5.51899">
        <ele>1085.2</ele>
        <time>2021-09-07T08:47:55Z</time>
      </trkpt>
      <trkpt lat="44.50424" lon="5.51895">
        <ele>1085.3</ele>
        <time>2021-09-07T08:47:56Z</time>
      </trkpt>
      <trkpt lat="44.50424" lon="5.51892">
        <ele>1085.4</ele>
        <time>2021-09-07T08:47:57Z</time>
      </trkpt>
      <trkpt lat="44.50423" lon="5.51888">
        <ele>1085.5</ele>
        <time>2021-09-07T08:47:58Z</time>
      </trkpt>
      <trkpt lat="44.50422" lon="5.51886">
        <ele>1085.6</ele>
        <time>2021-09-07T08:47:59Z</time>
      </trkpt>
      <trkpt lat="44.50421" lon="5.51884">
        <ele>1085.7</ele>
        <time>2021-09-07T08:48:00Z</time>
      </trkpt>
      <trkpt lat="44.50421" lon="5.51883">
        <ele>1085.7</ele>
        <time>2021-09-07T08:48:01Z</time>
      </trkpt>
      <trkpt lat="44.50421" lon="5.51881">
        <ele>1085.7</ele>
        <time>2021-09-07T08:48:02Z</time>
      </trkpt>
      <trkpt lat="44.50421" lon="5.51876">
        <ele>1085.9</ele>
        <time>2021-09-07T08:48:03Z</time>
      </trkpt>
      <trkpt lat="44.50421" lon="5.51873">
        <ele>1085.9</ele>
        <time>2021-09-07T08:48:04Z</time>
      </trkpt>
      <trkpt lat="44.50421" lon="5.5187">
        <ele>1086</ele>
        <time>2021-09-07T08:48:05Z</time>
      </trkpt>
      <trkpt lat="44.5042" lon="5.51867">
        <ele>1086.1</ele>
        <time>2021-09-07T08:48:06Z</time>
      </trkpt>
      <trkpt lat="44.5042" lon="5.51865">
        <ele>1086.2</ele>
        <time>2021-09-07T08:48:07Z</time>
      </trkpt>
      <trkpt lat="44.5042" lon="5.51863">
        <ele>1086.2</ele>
        <time>2021-09-07T08:48:08Z</time>
      </trkpt>
      <trkpt lat="44.50419" lon="5.51861">
        <ele>1086.3</ele>
        <time>2021-09-07T08:48:09Z</time>
      </trkpt>
      <trkpt lat="44.50418" lon="5.51859">
        <ele>1086.4</ele>
        <time>2021-09-07T08:48:10Z</time>
      </trkpt>
      <trkpt lat="44.50417" lon="5.51857">
        <ele>1086.4</ele>
        <time>2021-09-07T08:48:11Z</time>
      </trkpt>
      <trkpt lat="44.50417" lon="5.51855">
        <ele>1086.5</ele>
        <time>2021-09-07T08:48:12Z</time>
      </trkpt>
      <trkpt lat="44.50416" lon="5.51853">
        <ele>1086.5</ele>
        <time>2021-09-07T08:48:13Z</time>
      </trkpt>
      <trkpt lat="44.50415" lon="5.5185">
        <ele>1086.6</ele>
        <time>2021-09-07T08:48:14Z</time>
      </trkpt>
      <trkpt lat="44.50414" lon="5.51848">
        <ele>1086.7</ele>
        <time>2021-09-07T08:48:15Z</time>
      </trkpt>
      <trkpt lat="44.50413" lon="5.51846">
        <ele>1086.7</ele>
        <time>2021-09-07T08:48:16Z</time>
      </trkpt>
      <trkpt lat="44.50411" lon="5.51843">
        <ele>1086.9</ele>
        <time>2021-09-07T08:48:17Z</time>
      </trkpt>
      <trkpt lat="44.50411" lon="5.5184">
        <ele>1086.9</ele>
        <time>2021-09-07T08:48:18Z</time>
      </trkpt>
      <trkpt lat="44.50411" lon="5.51838">
        <ele>1087</ele>
        <time>2021-09-07T08:48:19Z</time>
      </trkpt>
      <trkpt lat="44.5041" lon="5.51836">
        <ele>1087.1</ele>
        <time>2021-09-07T08:48:20Z</time>
      </trkpt>
      <trkpt lat="44.5041" lon="5.51834">
        <ele>1087.1</ele>
        <time>2021-09-07T08:48:21Z</time>
      </trkpt>
      <trkpt lat="44.50412" lon="5.51832">
        <ele>1087.2</ele>
        <time>2021-09-07T08:48:22Z</time>
      </trkpt>
      <trkpt lat="44.50413" lon="5.5183">
        <ele>1087.3</ele>
        <time>2021-09-07T08:48:23Z</time>
      </trkpt>
      <trkpt lat="44.50414" lon="5.51828">
        <ele>1087.4</ele>
        <time>2021-09-07T08:48:24Z</time>
      </trkpt>
      <trkpt lat="44.50415" lon="5.51825">
        <ele>1087.4</ele>
        <time>2021-09-07T08:48:25Z</time>
      </trkpt>
      <trkpt lat="44.50416" lon="5.51823">
        <ele>1087.5</ele>
        <time>2021-09-07T08:48:26Z</time>
      </trkpt>
      <trkpt lat="44.50417" lon="5.51821">
        <ele>1087.6</ele>
        <time>2021-09-07T08:48:27Z</time>
      </trkpt>
      <trkpt lat="44.50418" lon="5.51819">
        <ele>1087.6</ele>
        <time>2021-09-07T08:48:28Z</time>
      </trkpt>
      <trkpt lat="44.50419" lon="5.51815">
        <ele>1087.7</ele>
        <time>2021-09-07T08:48:29Z</time>
      </trkpt>
      <trkpt lat="44.50418" lon="5.51813">
        <ele>1087.8</ele>
        <time>2021-09-07T08:48:30Z</time>
      </trkpt>
      <trkpt lat="44.50418" lon="5.51811">
        <ele>1087.9</ele>
        <time>2021-09-07T08:48:31Z</time>
      </trkpt>
      <trkpt lat="44.50417" lon="5.51808">
        <ele>1087.9</ele>
        <time>2021-09-07T08:48:32Z</time>
      </trkpt>
      <trkpt lat="44.50418" lon="5.51804">
        <ele>1088</ele>
        <time>2021-09-07T08:48:33Z</time>
      </trkpt>
      <trkpt lat="44.50419" lon="5.518">
        <ele>1088.1</ele>
        <time>2021-09-07T08:48:34Z</time>
      </trkpt>
      <trkpt lat="44.5042" lon="5.51797">
        <ele>1088.2</ele>
        <time>2021-09-07T08:48:35Z</time>
      </trkpt>
      <trkpt lat="44.50421" lon="5.51794">
        <ele>1088.3</ele>
        <time>2021-09-07T08:48:36Z</time>
      </trkpt>
      <trkpt lat="44.50423" lon="5.51792">
        <ele>1088.4</ele>
        <time>2021-09-07T08:48:37Z</time>
      </trkpt>
      <trkpt lat="44.50425" lon="5.5179">
        <ele>1088.5</ele>
        <time>2021-09-07T08:48:38Z</time>
      </trkpt>
      <trkpt lat="44.50425" lon="5.51787">
        <ele>1088.6</ele>
        <time>2021-09-07T08:48:39Z</time>
      </trkpt>
      <trkpt lat="44.50426" lon="5.51785">
        <ele>1088.6</ele>
        <time>2021-09-07T08:48:40Z</time>
      </trkpt>
      <trkpt lat="44.50427" lon="5.51782">
        <ele>1088.7</ele>
        <time>2021-09-07T08:48:41Z</time>
      </trkpt>
      <trkpt lat="44.50427" lon="5.51779">
        <ele>1088.8</ele>
        <time>2021-09-07T08:48:42Z</time>
      </trkpt>
      <trkpt lat="44.50427" lon="5.51776">
        <ele>1088.8</ele>
        <time>2021-09-07T08:48:43Z</time>
      </trkpt>
      <trkpt lat="44.50427" lon="5.51773">
        <ele>1088.9</ele>
        <time>2021-09-07T08:48:44Z</time>
      </trkpt>
      <trkpt lat="44.50427" lon="5.5177">
        <ele>1089</ele>
        <time>2021-09-07T08:48:45Z</time>
      </trkpt>
      <trkpt lat="44.50427" lon="5.51766">
        <ele>1089.1</ele>
        <time>2021-09-07T08:48:46Z</time>
      </trkpt>
      <trkpt lat="44.50427" lon="5.51764">
        <ele>1089.2</ele>
        <time>2021-09-07T08:48:47Z</time>
      </trkpt>
      <trkpt lat="44.50427" lon="5.51761">
        <ele>1089.2</ele>
        <time>2021-09-07T08:48:48Z</time>
      </trkpt>
      <trkpt lat="44.50428" lon="5.5176">
        <ele>1089.3</ele>
        <time>2021-09-07T08:48:49Z</time>
      </trkpt>
      <trkpt lat="44.50428" lon="5.51758">
        <ele>1089.3</ele>
        <time>2021-09-07T08:48:50Z</time>
      </trkpt>
      <trkpt lat="44.50429" lon="5.51756">
        <ele>1089.2</ele>
        <time>2021-09-07T08:48:51Z</time>
      </trkpt>
      <trkpt lat="44.5043" lon="5.51755">
        <ele>1089.2</ele>
        <time>2021-09-07T08:48:52Z</time>
      </trkpt>
      <trkpt lat="44.50429" lon="5.51757">
        <ele>1089.1</ele>
        <time>2021-09-07T08:48:53Z</time>
      </trkpt>
      <trkpt lat="44.50428" lon="5.51758">
        <ele>1089.1</ele>
        <time>2021-09-07T08:48:54Z</time>
      </trkpt>
      <trkpt lat="44.50428" lon="5.51762">
        <ele>1089</ele>
        <time>2021-09-07T08:48:55Z</time>
      </trkpt>
      <trkpt lat="44.50427" lon="5.51766">
        <ele>1088.9</ele>
        <time>2021-09-07T08:48:56Z</time>
      </trkpt>
      <trkpt lat="44.50426" lon="5.51768">
        <ele>1088.9</ele>
        <time>2021-09-07T08:48:57Z</time>
      </trkpt>
      <trkpt lat="44.50425" lon="5.51769">
        <ele>1088.8</ele>
        <time>2021-09-07T08:48:58Z</time>
      </trkpt>
      <trkpt lat="44.50425" lon="5.51774">
        <ele>1088.7</ele>
        <time>2021-09-07T08:48:59Z</time>
      </trkpt>
      <trkpt lat="44.50424" lon="5.51777">
        <ele>1088.7</ele>
        <time>2021-09-07T08:49:00Z</time>
      </trkpt>
      <trkpt lat="44.50423" lon="5.5178">
        <ele>1088.6</ele>
        <time>2021-09-07T08:49:01Z</time>
      </trkpt>
      <trkpt lat="44.50422" lon="5.51785">
        <ele>1088.5</ele>
        <time>2021-09-07T08:49:02Z</time>
      </trkpt>
      <trkpt lat="44.50421" lon="5.51789">
        <ele>1088.4</ele>
        <time>2021-09-07T08:49:03Z</time>
      </trkpt>
      <trkpt lat="44.5042" lon="5.51794">
        <ele>1088.3</ele>
        <time>2021-09-07T08:49:04Z</time>
      </trkpt>
      <trkpt lat="44.50419" lon="5.51798">
        <ele>1088.2</ele>
        <time>2021-09-07T08:49:05Z</time>
      </trkpt>
      <trkpt lat="44.50417" lon="5.51803">
        <ele>1088.1</ele>
        <time>2021-09-07T08:49:06Z</time>
      </trkpt>
      <trkpt lat="44.50415" lon="5.51808">
        <ele>1088</ele>
        <time>2021-09-07T08:49:07Z</time>
      </trkpt>
      <trkpt lat="44.50414" lon="5.51813">
        <ele>1087.9</ele>
        <time>2021-09-07T08:49:08Z</time>
      </trkpt>
      <trkpt lat="44.50412" lon="5.51818">
        <ele>1087.8</ele>
        <time>2021-09-07T08:49:09Z</time>
      </trkpt>
      <trkpt lat="44.50411" lon="5.51824">
        <ele>1087.7</ele>
        <time>2021-09-07T08:49:10Z</time>
      </trkpt>
      <trkpt lat="44.50409" lon="5.51829">
        <ele>1087.5</ele>
        <time>2021-09-07T08:49:11Z</time>
      </trkpt>
      <trkpt lat="44.50408" lon="5.51833">
        <ele>1087.5</ele>
        <time>2021-09-07T08:49:12Z</time>
      </trkpt>
      <trkpt lat="44.50406" lon="5.51836">
        <ele>1087.4</ele>
        <time>2021-09-07T08:49:13Z</time>
      </trkpt>
      <trkpt lat="44.50405" lon="5.51837">
        <ele>1087.3</ele>
        <time>2021-09-07T08:49:14Z</time>
      </trkpt>
      <trkpt lat="44.50405" lon="5.51838">
        <ele>1087.3</ele>
        <time>2021-09-07T08:49:15Z</time>
      </trkpt>
      <trkpt lat="44.50405" lon="5.51838">
        <ele>1087.3</ele>
        <time>2021-09-07T08:49:16Z</time>
      </trkpt>
      <trkpt lat="44.50405" lon="5.51837">
        <ele>1087.3</ele>
        <time>2021-09-07T08:49:17Z</time>
      </trkpt>
      <trkpt lat="44.50405" lon="5.51837">
        <ele>1087.3</ele>
        <time>2021-09-07T08:49:18Z</time>
      </trkpt>
      <trkpt lat="44.50405" lon="5.51837">
        <ele>1087.3</ele>
        <time>2021-09-07T08:49:19Z</time>
      </trkpt>
      <trkpt lat="44.50405" lon="5.51837">
        <ele>1087.3</ele>
        <time>2021-09-07T08:49:20Z</time>
      </trkpt>
      <trkpt lat="44.50405" lon="5.51838">
        <ele>1087.3</ele>
        <time>2021-09-07T08:49:21Z</time>
      </trkpt>
      <trkpt lat="44.50405" lon="5.51838">
        <ele>1087.3</ele>
        <time>2021-09-07T08:49:22Z</time>
      </trkpt>
      <trkpt lat="44.50404" lon="5.51838">
        <ele>1087.2</ele>
        <time>2021-09-07T08:49:23Z</time>
      </trkpt>
      <trkpt lat="44.50404" lon="5.51838">
        <ele>1087.2</ele>
        <time>2021-09-07T08:49:24Z</time>
      </trkpt>
      <trkpt lat="44.50404" lon="5.51838">
        <ele>1087.2</ele>
        <time>2021-09-07T08:49:25Z</time>
      </trkpt>
      <trkpt lat="44.50404" lon="5.51838">
        <ele>1087.2</ele>
        <time>2021-09-07T08:49:26Z</time>
      </trkpt>
      <trkpt lat="44.50404" lon="5.51838">
        <ele>1087.2</ele>
        <time>2021-09-07T08:49:27Z</time>
      </trkpt>
      <trkpt lat="44.50404" lon="5.51838">
        <ele>1087.2</ele>
        <time>2021-09-07T08:49:28Z</time>
      </trkpt>
      <trkpt lat="44.50404" lon="5.51838">
        <ele>1087.2</ele>
        <time>2021-09-07T08:49:29Z</time>
      </trkpt>
      <trkpt lat="44.50404" lon="5.51838">
        <ele>1087.2</ele>
        <time>2021-09-07T08:49:30Z</time>
      </trkpt>
      <trkpt lat="44.50404" lon="5.51838">
        <ele>1087.2</ele>
        <time>2021-09-07T08:49:31Z</time>
      </trkpt>
      <trkpt lat="44.50404" lon="5.51838">
        <ele>1087.2</ele>
        <time>2021-09-07T08:49:32Z</time>
      </trkpt>
      <trkpt lat="44.50404" lon="5.51838">
        <ele>1087.2</ele>
        <time>2021-09-07T08:49:33Z</time>
      </trkpt>
      <trkpt lat="44.50404" lon="5.51838">
        <ele>1087.2</ele>
        <time>2021-09-07T08:49:34Z</time>
      </trkpt>
      <trkpt lat="44.50404" lon="5.51837">
        <ele>1087.2</ele>
        <time>2021-09-07T08:49:35Z</time>
      </trkpt>
      <trkpt lat="44.50404" lon="5.51837">
        <ele>1087.2</ele>
        <time>2021-09-07T08:49:36Z</time>
      </trkpt>
      <trkpt lat="44.50404" lon="5.51837">
        <ele>1087.2</ele>
        <time>2021-09-07T08:49:37Z</time>
      </trkpt>
      <trkpt lat="44.50404" lon="5.51837">
        <ele>1087.2</ele>
        <time>2021-09-07T08:49:38Z</time>
      </trkpt>
      <trkpt lat="44.50404" lon="5.51837">
        <ele>1087.2</ele>
        <time>2021-09-07T08:49:39Z</time>
      </trkpt>
      <trkpt lat="44.50404" lon="5.51837">
        <ele>1087.2</ele>
        <time>2021-09-07T08:49:40Z</time>
      </trkpt>
      <trkpt lat="44.50404" lon="5.51837">
        <ele>1087.2</ele>
        <time>2021-09-07T08:49:41Z</time>
      </trkpt>
      <trkpt lat="44.50404" lon="5.51837">
        <ele>1087.2</ele>
        <time>2021-09-07T08:49:42Z</time>
      </trkpt>
      <trkpt lat="44.50404" lon="5.51837">
        <ele>1087.2</ele>
        <time>2021-09-07T08:49:43Z</time>
      </trkpt>
      <trkpt lat="44.50404" lon="5.51837">
        <ele>1087.2</ele>
        <time>2021-09-07T08:49:44Z</time>
      </trkpt>
      <trkpt lat="44.50404" lon="5.51837">
        <ele>1087.2</ele>
        <time>2021-09-07T08:49:45Z</time>
      </trkpt>
      <trkpt lat="44.50404" lon="5.51837">
        <ele>1087.2</ele>
        <time>2021-09-07T08:49:46Z</time>
      </trkpt>
      <trkpt lat="44.50404" lon="5.51837">
        <ele>1087.2</ele>
        <time>2021-09-07T08:49:47Z</time>
      </trkpt>
      <trkpt lat="44.50404" lon="5.51837">
        <ele>1087.2</ele>
        <time>2021-09-07T08:49:48Z</time>
      </trkpt>
      <trkpt lat="44.50404" lon="5.51837">
        <ele>1087.2</ele>
        <time>2021-09-07T08:49:49Z</time>
      </trkpt>
      <trkpt lat="44.50404" lon="5.51837">
        <ele>1087.2</ele>
        <time>2021-09-07T08:49:50Z</time>
      </trkpt>
      <trkpt lat="44.50405" lon="5.51838">
        <ele>1087.2</ele>
        <time>2021-09-07T08:49:51Z</time>
      </trkpt>
      <trkpt lat="44.50406" lon="5.51838">
        <ele>1087.1</ele>
        <time>2021-09-07T08:49:52Z</time>
      </trkpt>
      <trkpt lat="44.50405" lon="5.51838">
        <ele>1087.1</ele>
        <time>2021-09-07T08:49:53Z</time>
      </trkpt>
      <trkpt lat="44.50406" lon="5.51839">
        <ele>1087.1</ele>
        <time>2021-09-07T08:49:54Z</time>
      </trkpt>
      <trkpt lat="44.50406" lon="5.5184">
        <ele>1087.1</ele>
        <time>2021-09-07T08:49:55Z</time>
      </trkpt>
      <trkpt lat="44.50406" lon="5.51841">
        <ele>1087</ele>
        <time>2021-09-07T08:49:56Z</time>
      </trkpt>
      <trkpt lat="44.50407" lon="5.51844">
        <ele>1087</ele>
        <time>2021-09-07T08:49:57Z</time>
      </trkpt>
      <trkpt lat="44.50408" lon="5.51845">
        <ele>1086.9</ele>
        <time>2021-09-07T08:49:58Z</time>
      </trkpt>
      <trkpt lat="44.50408" lon="5.51851">
        <ele>1086.8</ele>
        <time>2021-09-07T08:49:59Z</time>
      </trkpt>
      <trkpt lat="44.50408" lon="5.51856">
        <ele>1086.6</ele>
        <time>2021-09-07T08:50:00Z</time>
      </trkpt>
      <trkpt lat="44.50409" lon="5.51866">
        <ele>1086.4</ele>
        <time>2021-09-07T08:50:01Z</time>
      </trkpt>
      <trkpt lat="44.5041" lon="5.51875">
        <ele>1086.1</ele>
        <time>2021-09-07T08:50:02Z</time>
      </trkpt>
      <trkpt lat="44.50409" lon="5.51881">
        <ele>1085.9</ele>
        <time>2021-09-07T08:50:03Z</time>
      </trkpt>
      <trkpt lat="44.50408" lon="5.51887">
        <ele>1085.6</ele>
        <time>2021-09-07T08:50:04Z</time>
      </trkpt>
      <trkpt lat="44.50403" lon="5.51898">
        <ele>1085</ele>
        <time>2021-09-07T08:50:05Z</time>
      </trkpt>
      <trkpt lat="44.504" lon="5.51902">
        <ele>1084.7</ele>
        <time>2021-09-07T08:50:06Z</time>
      </trkpt>
      <trkpt lat="44.50401" lon="5.51905">
        <ele>1084.5</ele>
        <time>2021-09-07T08:50:07Z</time>
      </trkpt>
      <trkpt lat="44.50401" lon="5.51908">
        <ele>1084.3</ele>
        <time>2021-09-07T08:50:08Z</time>
      </trkpt>
      <trkpt lat="44.50394" lon="5.51911">
        <ele>1083.8</ele>
        <time>2021-09-07T08:50:09Z</time>
      </trkpt>
      <trkpt lat="44.50386" lon="5.51913">
        <ele>1083.3</ele>
        <time>2021-09-07T08:50:10Z</time>
      </trkpt>
      <trkpt lat="44.5038" lon="5.51914">
        <ele>1082.9</ele>
        <time>2021-09-07T08:50:11Z</time>
      </trkpt>
      <trkpt lat="44.50377" lon="5.51914">
        <ele>1082.6</ele>
        <time>2021-09-07T08:50:12Z</time>
      </trkpt>
      <trkpt lat="44.50373" lon="5.51913">
        <ele>1082.3</ele>
        <time>2021-09-07T08:50:13Z</time>
      </trkpt>
      <trkpt lat="44.50365" lon="5.51911">
        <ele>1081.7</ele>
        <time>2021-09-07T08:50:14Z</time>
      </trkpt>
      <trkpt lat="44.50357" lon="5.51906">
        <ele>1081.1</ele>
        <time>2021-09-07T08:50:15Z</time>
      </trkpt>
      <trkpt lat="44.50354" lon="5.51904">
        <ele>1080.8</ele>
        <time>2021-09-07T08:50:16Z</time>
      </trkpt>
      <trkpt lat="44.5035" lon="5.51901">
        <ele>1080.6</ele>
        <time>2021-09-07T08:50:17Z</time>
      </trkpt>
      <trkpt lat="44.50342" lon="5.51895">
        <ele>1080.2</ele>
        <time>2021-09-07T08:50:18Z</time>
      </trkpt>
      <trkpt lat="44.50336" lon="5.51889">
        <ele>1080</ele>
        <time>2021-09-07T08:50:19Z</time>
      </trkpt>
      <trkpt lat="44.5033" lon="5.51884">
        <ele>1079.9</ele>
        <time>2021-09-07T08:50:20Z</time>
      </trkpt>
      <trkpt lat="44.50326" lon="5.51879">
        <ele>1080</ele>
        <time>2021-09-07T08:50:21Z</time>
      </trkpt>
      <trkpt lat="44.50322" lon="5.51874">
        <ele>1080</ele>
        <time>2021-09-07T08:50:22Z</time>
      </trkpt>
      <trkpt lat="44.50319" lon="5.5187">
        <ele>1080.1</ele>
        <time>2021-09-07T08:50:23Z</time>
      </trkpt>
      <trkpt lat="44.50316" lon="5.51865">
        <ele>1080.3</ele>
        <time>2021-09-07T08:50:24Z</time>
      </trkpt>
      <trkpt lat="44.5031" lon="5.51858">
        <ele>1080.6</ele>
        <time>2021-09-07T08:50:25Z</time>
      </trkpt>
      <trkpt lat="44.50308" lon="5.51854">
        <ele>1080.8</ele>
        <time>2021-09-07T08:50:26Z</time>
      </trkpt>
      <trkpt lat="44.50305" lon="5.5185">
        <ele>1081.1</ele>
        <time>2021-09-07T08:50:27Z</time>
      </trkpt>
      <trkpt lat="44.503" lon="5.51844">
        <ele>1081.5</ele>
        <time>2021-09-07T08:50:28Z</time>
      </trkpt>
      <trkpt lat="44.50298" lon="5.51842">
        <ele>1081.7</ele>
        <time>2021-09-07T08:50:29Z</time>
      </trkpt>
      <trkpt lat="44.50296" lon="5.5184">
        <ele>1081.8</ele>
        <time>2021-09-07T08:50:30Z</time>
      </trkpt>
      <trkpt lat="44.50292" lon="5.51835">
        <ele>1082.2</ele>
        <time>2021-09-07T08:50:31Z</time>
      </trkpt>
      <trkpt lat="44.50289" lon="5.51832">
        <ele>1082.5</ele>
        <time>2021-09-07T08:50:32Z</time>
      </trkpt>
      <trkpt lat="44.50287" lon="5.51829">
        <ele>1082.7</ele>
        <time>2021-09-07T08:50:33Z</time>
      </trkpt>
      <trkpt lat="44.50286" lon="5.51827">
        <ele>1082.9</ele>
        <time>2021-09-07T08:50:34Z</time>
      </trkpt>
      <trkpt lat="44.50284" lon="5.51825">
        <ele>1083</ele>
        <time>2021-09-07T08:50:35Z</time>
      </trkpt>
      <trkpt lat="44.50283" lon="5.51823">
        <ele>1083.2</ele>
        <time>2021-09-07T08:50:36Z</time>
      </trkpt>
      <trkpt lat="44.50281" lon="5.51821">
        <ele>1083.3</ele>
        <time>2021-09-07T08:50:37Z</time>
      </trkpt>
      <trkpt lat="44.5028" lon="5.5182">
        <ele>1083.4</ele>
        <time>2021-09-07T08:50:38Z</time>
      </trkpt>
      <trkpt lat="44.50279" lon="5.51818">
        <ele>1083.5</ele>
        <time>2021-09-07T08:50:39Z</time>
      </trkpt>
      <trkpt lat="44.50279" lon="5.51817">
        <ele>1083.6</ele>
        <time>2021-09-07T08:50:40Z</time>
      </trkpt>
      <trkpt lat="44.50278" lon="5.51816">
        <ele>1083.7</ele>
        <time>2021-09-07T08:50:41Z</time>
      </trkpt>
      <trkpt lat="44.50276" lon="5.51814">
        <ele>1083.9</ele>
        <time>2021-09-07T08:50:42Z</time>
      </trkpt>
      <trkpt lat="44.50275" lon="5.51812">
        <ele>1084</ele>
        <time>2021-09-07T08:50:43Z</time>
      </trkpt>
      <trkpt lat="44.50274" lon="5.5181">
        <ele>1084.2</ele>
        <time>2021-09-07T08:50:44Z</time>
      </trkpt>
      <trkpt lat="44.50273" lon="5.51809">
        <ele>1084.3</ele>
        <time>2021-09-07T08:50:45Z</time>
      </trkpt>
      <trkpt lat="44.50272" lon="5.51809">
        <ele>1084.4</ele>
        <time>2021-09-07T08:50:46Z</time>
      </trkpt>
      <trkpt lat="44.50271" lon="5.51808">
        <ele>1084.4</ele>
        <time>2021-09-07T08:50:47Z</time>
      </trkpt>
      <trkpt lat="44.50269" lon="5.51807">
        <ele>1084.6</ele>
        <time>2021-09-07T08:50:48Z</time>
      </trkpt>
      <trkpt lat="44.50268" lon="5.51807">
        <ele>1084.8</ele>
        <time>2021-09-07T08:50:49Z</time>
      </trkpt>
      <trkpt lat="44.50266" lon="5.51806">
        <ele>1084.9</ele>
        <time>2021-09-07T08:50:50Z</time>
      </trkpt>
      <trkpt lat="44.50264" lon="5.51805">
        <ele>1085.1</ele>
        <time>2021-09-07T08:50:51Z</time>
      </trkpt>
      <trkpt lat="44.50263" lon="5.51804">
        <ele>1085.2</ele>
        <time>2021-09-07T08:50:52Z</time>
      </trkpt>
      <trkpt lat="44.50262" lon="5.51804">
        <ele>1085.3</ele>
        <time>2021-09-07T08:50:53Z</time>
      </trkpt>
      <trkpt lat="44.50262" lon="5.51805">
        <ele>1085.3</ele>
        <time>2021-09-07T08:50:54Z</time>
      </trkpt>
      <trkpt lat="44.50261" lon="5.51805">
        <ele>1085.4</ele>
        <time>2021-09-07T08:50:55Z</time>
      </trkpt>
      <trkpt lat="44.50261" lon="5.51805">
        <ele>1085.4</ele>
        <time>2021-09-07T08:50:56Z</time>
      </trkpt>
      <trkpt lat="44.50261" lon="5.51805">
        <ele>1085.4</ele>
        <time>2021-09-07T08:50:57Z</time>
      </trkpt>
      <trkpt lat="44.50261" lon="5.51805">
        <ele>1085.4</ele>
        <time>2021-09-07T08:50:58Z</time>
      </trkpt>
      <trkpt lat="44.50261" lon="5.51805">
        <ele>1085.4</ele>
        <time>2021-09-07T08:50:59Z</time>
      </trkpt>
      <trkpt lat="44.50261" lon="5.51805">
        <ele>1085.4</ele>
        <time>2021-09-07T08:51:00Z</time>
      </trkpt>
      <trkpt lat="44.50261" lon="5.51805">
        <ele>1085.4</ele>
        <time>2021-09-07T08:51:01Z</time>
      </trkpt>
      <trkpt lat="44.50261" lon="5.51805">
        <ele>1085.4</ele>
        <time>2021-09-07T08:51:02Z</time>
      </trkpt>
      <trkpt lat="44.50261" lon="5.51805">
        <ele>1085.4</ele>
        <time>2021-09-07T08:51:03Z</time>
      </trkpt>
      <trkpt lat="44.50261" lon="5.51805">
        <ele>1085.4</ele>
        <time>2021-09-07T08:51:04Z</time>
      </trkpt>
      <trkpt lat="44.50261" lon="5.51805">
        <ele>1085.4</ele>
        <time>2021-09-07T08:51:05Z</time>
      </trkpt>
      <trkpt lat="44.50261" lon="5.51805">
        <ele>1085.4</ele>
        <time>2021-09-07T08:51:06Z</time>
      </trkpt>
      <trkpt lat="44.50261" lon="5.51806">
        <ele>1085.4</ele>
        <time>2021-09-07T08:51:07Z</time>
      </trkpt>
      <trkpt lat="44.50261" lon="5.51806">
        <ele>1085.5</ele>
        <time>2021-09-07T08:51:08Z</time>
      </trkpt>
      <trkpt lat="44.50261" lon="5.51805">
        <ele>1085.5</ele>
        <time>2021-09-07T08:51:09Z</time>
      </trkpt>
      <trkpt lat="44.5026" lon="5.51804">
        <ele>1085.6</ele>
        <time>2021-09-07T08:51:10Z</time>
      </trkpt>
      <trkpt lat="44.50257" lon="5.51803">
        <ele>1085.9</ele>
        <time>2021-09-07T08:51:11Z</time>
      </trkpt>
      <trkpt lat="44.50256" lon="5.51803">
        <ele>1086</ele>
        <time>2021-09-07T08:51:12Z</time>
      </trkpt>
      <trkpt lat="44.50255" lon="5.51802">
        <ele>1086.1</ele>
        <time>2021-09-07T08:51:13Z</time>
      </trkpt>
      <trkpt lat="44.50253" lon="5.51801">
        <ele>1086.3</ele>
        <time>2021-09-07T08:51:14Z</time>
      </trkpt>
      <trkpt lat="44.5025" lon="5.51799">
        <ele>1086.6</ele>
        <time>2021-09-07T08:51:15Z</time>
      </trkpt>
      <trkpt lat="44.50248" lon="5.51798">
        <ele>1086.8</ele>
        <time>2021-09-07T08:51:16Z</time>
      </trkpt>
      <trkpt lat="44.50247" lon="5.51797">
        <ele>1087</ele>
        <time>2021-09-07T08:51:17Z</time>
      </trkpt>
      <trkpt lat="44.50247" lon="5.51797">
        <ele>1087</ele>
        <time>2021-09-07T08:51:18Z</time>
      </trkpt>
      <trkpt lat="44.50246" lon="5.51796">
        <ele>1087.1</ele>
        <time>2021-09-07T08:51:19Z</time>
      </trkpt>
      <trkpt lat="44.50245" lon="5.51796">
        <ele>1087.2</ele>
        <time>2021-09-07T08:51:20Z</time>
      </trkpt>
      <trkpt lat="44.50245" lon="5.51795">
        <ele>1087.2</ele>
        <time>2021-09-07T08:51:21Z</time>
      </trkpt>
      <trkpt lat="44.50245" lon="5.51795">
        <ele>1087.3</ele>
        <time>2021-09-07T08:51:22Z</time>
      </trkpt>
      <trkpt lat="44.50244" lon="5.51795">
        <ele>1087.3</ele>
        <time>2021-09-07T08:51:23Z</time>
      </trkpt>
      <trkpt lat="44.50243" lon="5.51795">
        <ele>1087.4</ele>
        <time>2021-09-07T08:51:24Z</time>
      </trkpt>
      <trkpt lat="44.50242" lon="5.51794">
        <ele>1087.5</ele>
        <time>2021-09-07T08:51:25Z</time>
      </trkpt>
      <trkpt lat="44.5024" lon="5.51794">
        <ele>1087.7</ele>
        <time>2021-09-07T08:51:26Z</time>
      </trkpt>
      <trkpt lat="44.50239" lon="5.51794">
        <ele>1087.8</ele>
        <time>2021-09-07T08:51:27Z</time>
      </trkpt>
      <trkpt lat="44.50237" lon="5.51793">
        <ele>1087.9</ele>
        <time>2021-09-07T08:51:28Z</time>
      </trkpt>
      <trkpt lat="44.50235" lon="5.51793">
        <ele>1088.1</ele>
        <time>2021-09-07T08:51:29Z</time>
      </trkpt>
      <trkpt lat="44.50233" lon="5.51793">
        <ele>1088.3</ele>
        <time>2021-09-07T08:51:30Z</time>
      </trkpt>
      <trkpt lat="44.50232" lon="5.51793">
        <ele>1088.3</ele>
        <time>2021-09-07T08:51:31Z</time>
      </trkpt>
      <trkpt lat="44.5023" lon="5.51793">
        <ele>1088.5</ele>
        <time>2021-09-07T08:51:32Z</time>
      </trkpt>
      <trkpt lat="44.50229" lon="5.51793">
        <ele>1088.6</ele>
        <time>2021-09-07T08:51:33Z</time>
      </trkpt>
      <trkpt lat="44.50227" lon="5.51793">
        <ele>1088.7</ele>
        <time>2021-09-07T08:51:34Z</time>
      </trkpt>
      <trkpt lat="44.50225" lon="5.51792">
        <ele>1088.9</ele>
        <time>2021-09-07T08:51:35Z</time>
      </trkpt>
      <trkpt lat="44.50224" lon="5.51791">
        <ele>1089</ele>
        <time>2021-09-07T08:51:36Z</time>
      </trkpt>
      <trkpt lat="44.50222" lon="5.5179">
        <ele>1089.1</ele>
        <time>2021-09-07T08:51:37Z</time>
      </trkpt>
      <trkpt lat="44.5022" lon="5.51789">
        <ele>1089.2</ele>
        <time>2021-09-07T08:51:38Z</time>
      </trkpt>
      <trkpt lat="44.50218" lon="5.51789">
        <ele>1089.3</ele>
        <time>2021-09-07T08:51:39Z</time>
      </trkpt>
      <trkpt lat="44.50217" lon="5.51789">
        <ele>1089.4</ele>
        <time>2021-09-07T08:51:40Z</time>
      </trkpt>
      <trkpt lat="44.50216" lon="5.51788">
        <ele>1089.5</ele>
        <time>2021-09-07T08:51:41Z</time>
      </trkpt>
      <trkpt lat="44.50215" lon="5.51787">
        <ele>1089.6</ele>
        <time>2021-09-07T08:51:42Z</time>
      </trkpt>
      <trkpt lat="44.50213" lon="5.51786">
        <ele>1089.7</ele>
        <time>2021-09-07T08:51:43Z</time>
      </trkpt>
      <trkpt lat="44.50212" lon="5.51786">
        <ele>1089.7</ele>
        <time>2021-09-07T08:51:44Z</time>
      </trkpt>
      <trkpt lat="44.50211" lon="5.51786">
        <ele>1089.8</ele>
        <time>2021-09-07T08:51:45Z</time>
      </trkpt>
      <trkpt lat="44.5021" lon="5.51785">
        <ele>1089.8</ele>
        <time>2021-09-07T08:51:46Z</time>
      </trkpt>
      <trkpt lat="44.50209" lon="5.51785">
        <ele>1089.9</ele>
        <time>2021-09-07T08:51:47Z</time>
      </trkpt>
      <trkpt lat="44.50208" lon="5.51785">
        <ele>1090</ele>
        <time>2021-09-07T08:51:48Z</time>
      </trkpt>
      <trkpt lat="44.50207" lon="5.51784">
        <ele>1090</ele>
        <time>2021-09-07T08:51:49Z</time>
      </trkpt>
      <trkpt lat="44.50205" lon="5.51783">
        <ele>1090.1</ele>
        <time>2021-09-07T08:51:50Z</time>
      </trkpt>
      <trkpt lat="44.50204" lon="5.51782">
        <ele>1090.2</ele>
        <time>2021-09-07T08:51:51Z</time>
      </trkpt>
      <trkpt lat="44.50203" lon="5.51781">
        <ele>1090.3</ele>
        <time>2021-09-07T08:51:52Z</time>
      </trkpt>
      <trkpt lat="44.50201" lon="5.51778">
        <ele>1090.4</ele>
        <time>2021-09-07T08:51:53Z</time>
      </trkpt>
      <trkpt lat="44.502" lon="5.51777">
        <ele>1090.5</ele>
        <time>2021-09-07T08:51:54Z</time>
      </trkpt>
      <trkpt lat="44.50199" lon="5.51776">
        <ele>1090.6</ele>
        <time>2021-09-07T08:51:55Z</time>
      </trkpt>
      <trkpt lat="44.50197" lon="5.51773">
        <ele>1090.8</ele>
        <time>2021-09-07T08:51:56Z</time>
      </trkpt>
      <trkpt lat="44.50196" lon="5.51772">
        <ele>1090.9</ele>
        <time>2021-09-07T08:51:57Z</time>
      </trkpt>
      <trkpt lat="44.50195" lon="5.51771">
        <ele>1090.9</ele>
        <time>2021-09-07T08:51:58Z</time>
      </trkpt>
      <trkpt lat="44.50193" lon="5.51769">
        <ele>1091.1</ele>
        <time>2021-09-07T08:51:59Z</time>
      </trkpt>
      <trkpt lat="44.5019" lon="5.51766">
        <ele>1091.3</ele>
        <time>2021-09-07T08:52:00Z</time>
      </trkpt>
      <trkpt lat="44.50188" lon="5.51765">
        <ele>1091.5</ele>
        <time>2021-09-07T08:52:01Z</time>
      </trkpt>
      <trkpt lat="44.50185" lon="5.51764">
        <ele>1091.7</ele>
        <time>2021-09-07T08:52:02Z</time>
      </trkpt>
      <trkpt lat="44.50182" lon="5.51762">
        <ele>1091.9</ele>
        <time>2021-09-07T08:52:03Z</time>
      </trkpt>
      <trkpt lat="44.50178" lon="5.51761">
        <ele>1092.2</ele>
        <time>2021-09-07T08:52:04Z</time>
      </trkpt>
      <trkpt lat="44.50176" lon="5.51761">
        <ele>1092.4</ele>
        <time>2021-09-07T08:52:05Z</time>
      </trkpt>
      <trkpt lat="44.50174" lon="5.51761">
        <ele>1092.5</ele>
        <time>2021-09-07T08:52:06Z</time>
      </trkpt>
      <trkpt lat="44.50171" lon="5.51761">
        <ele>1092.7</ele>
        <time>2021-09-07T08:52:07Z</time>
      </trkpt>
      <trkpt lat="44.50169" lon="5.51762">
        <ele>1092.9</ele>
        <time>2021-09-07T08:52:08Z</time>
      </trkpt>
      <trkpt lat="44.50168" lon="5.51762">
        <ele>1092.9</ele>
        <time>2021-09-07T08:52:09Z</time>
      </trkpt>
      <trkpt lat="44.50168" lon="5.51763">
        <ele>1093</ele>
        <time>2021-09-07T08:52:10Z</time>
      </trkpt>
      <trkpt lat="44.5017" lon="5.51764">
        <ele>1093.1</ele>
        <time>2021-09-07T08:52:11Z</time>
      </trkpt>
      <trkpt lat="44.5017" lon="5.51764">
        <ele>1093.1</ele>
        <time>2021-09-07T08:52:12Z</time>
      </trkpt>
      <trkpt lat="44.5017" lon="5.51764">
        <ele>1093.1</ele>
        <time>2021-09-07T08:52:13Z</time>
      </trkpt>
      <trkpt lat="44.5017" lon="5.51765">
        <ele>1093.2</ele>
        <time>2021-09-07T08:52:14Z</time>
      </trkpt>
      <trkpt lat="44.5017" lon="5.51765">
        <ele>1093.2</ele>
        <time>2021-09-07T08:52:15Z</time>
      </trkpt>
      <trkpt lat="44.50171" lon="5.51765">
        <ele>1093.3</ele>
        <time>2021-09-07T08:52:16Z</time>
      </trkpt>
      <trkpt lat="44.50171" lon="5.51765">
        <ele>1093.3</ele>
        <time>2021-09-07T08:52:17Z</time>
      </trkpt>
      <trkpt lat="44.50171" lon="5.51765">
        <ele>1093.3</ele>
        <time>2021-09-07T08:52:18Z</time>
      </trkpt>
      <trkpt lat="44.50171" lon="5.51765">
        <ele>1093.3</ele>
        <time>2021-09-07T08:52:19Z</time>
      </trkpt>
      <trkpt lat="44.50171" lon="5.51765">
        <ele>1093.3</ele>
        <time>2021-09-07T08:52:20Z</time>
      </trkpt>
      <trkpt lat="44.50171" lon="5.51765">
        <ele>1093.3</ele>
        <time>2021-09-07T08:52:21Z</time>
      </trkpt>
      <trkpt lat="44.50171" lon="5.51765">
        <ele>1093.3</ele>
        <time>2021-09-07T08:52:22Z</time>
      </trkpt>
      <trkpt lat="44.5017" lon="5.51765">
        <ele>1093.3</ele>
        <time>2021-09-07T08:52:23Z</time>
      </trkpt>
      <trkpt lat="44.50169" lon="5.51765">
        <ele>1093.4</ele>
        <time>2021-09-07T08:52:24Z</time>
      </trkpt>
      <trkpt lat="44.50168" lon="5.51765">
        <ele>1093.5</ele>
        <time>2021-09-07T08:52:25Z</time>
      </trkpt>
      <trkpt lat="44.50166" lon="5.51765">
        <ele>1093.6</ele>
        <time>2021-09-07T08:52:26Z</time>
      </trkpt>
      <trkpt lat="44.50164" lon="5.51764">
        <ele>1093.8</ele>
        <time>2021-09-07T08:52:27Z</time>
      </trkpt>
      <trkpt lat="44.5016" lon="5.51761">
        <ele>1094.2</ele>
        <time>2021-09-07T08:52:28Z</time>
      </trkpt>
      <trkpt lat="44.50157" lon="5.51759">
        <ele>1094.4</ele>
        <time>2021-09-07T08:52:29Z</time>
      </trkpt>
      <trkpt lat="44.50156" lon="5.51758">
        <ele>1094.5</ele>
        <time>2021-09-07T08:52:30Z</time>
      </trkpt>
      <trkpt lat="44.50154" lon="5.51757">
        <ele>1094.7</ele>
        <time>2021-09-07T08:52:31Z</time>
      </trkpt>
      <trkpt lat="44.50153" lon="5.51757">
        <ele>1094.8</ele>
        <time>2021-09-07T08:52:32Z</time>
      </trkpt>
      <trkpt lat="44.50151" lon="5.51756">
        <ele>1095</ele>
        <time>2021-09-07T08:52:33Z</time>
      </trkpt>
      <trkpt lat="44.5015" lon="5.51756">
        <ele>1095.1</ele>
        <time>2021-09-07T08:52:34Z</time>
      </trkpt>
      <trkpt lat="44.50149" lon="5.51755">
        <ele>1095.2</ele>
        <time>2021-09-07T08:52:35Z</time>
      </trkpt>
      <trkpt lat="44.50146" lon="5.51756">
        <ele>1095.5</ele>
        <time>2021-09-07T08:52:36Z</time>
      </trkpt>
      <trkpt lat="44.50144" lon="5.51756">
        <ele>1095.6</ele>
        <time>2021-09-07T08:52:37Z</time>
      </trkpt>
      <trkpt lat="44.50142" lon="5.51755">
        <ele>1095.8</ele>
        <time>2021-09-07T08:52:38Z</time>
      </trkpt>
      <trkpt lat="44.50142" lon="5.51755">
        <ele>1095.8</ele>
        <time>2021-09-07T08:52:39Z</time>
      </trkpt>
      <trkpt lat="44.50141" lon="5.51754">
        <ele>1095.9</ele>
        <time>2021-09-07T08:52:40Z</time>
      </trkpt>
      <trkpt lat="44.50141" lon="5.51754">
        <ele>1096</ele>
        <time>2021-09-07T08:52:41Z</time>
      </trkpt>
      <trkpt lat="44.5014" lon="5.51754">
        <ele>1096</ele>
        <time>2021-09-07T08:52:42Z</time>
      </trkpt>
      <trkpt lat="44.5014" lon="5.51754">
        <ele>1096</ele>
        <time>2021-09-07T08:52:43Z</time>
      </trkpt>
      <trkpt lat="44.50139" lon="5.51753">
        <ele>1096.1</ele>
        <time>2021-09-07T08:52:44Z</time>
      </trkpt>
      <trkpt lat="44.50138" lon="5.51753">
        <ele>1096.2</ele>
        <time>2021-09-07T08:52:45Z</time>
      </trkpt>
      <trkpt lat="44.50137" lon="5.51753">
        <ele>1096.3</ele>
        <time>2021-09-07T08:52:46Z</time>
      </trkpt>
      <trkpt lat="44.50136" lon="5.51753">
        <ele>1096.4</ele>
        <time>2021-09-07T08:52:47Z</time>
      </trkpt>
      <trkpt lat="44.50134" lon="5.51753">
        <ele>1096.6</ele>
        <time>2021-09-07T08:52:48Z</time>
      </trkpt>
      <trkpt lat="44.50134" lon="5.51753">
        <ele>1096.6</ele>
        <time>2021-09-07T08:52:49Z</time>
      </trkpt>
      <trkpt lat="44.50133" lon="5.51753">
        <ele>1096.7</ele>
        <time>2021-09-07T08:52:50Z</time>
      </trkpt>
      <trkpt lat="44.50132" lon="5.51753">
        <ele>1096.7</ele>
        <time>2021-09-07T08:52:51Z</time>
      </trkpt>
      <trkpt lat="44.50131" lon="5.51753">
        <ele>1096.8</ele>
        <time>2021-09-07T08:52:52Z</time>
      </trkpt>
      <trkpt lat="44.5013" lon="5.51753">
        <ele>1096.9</ele>
        <time>2021-09-07T08:52:53Z</time>
      </trkpt>
      <trkpt lat="44.50129" lon="5.51753">
        <ele>1097</ele>
        <time>2021-09-07T08:52:54Z</time>
      </trkpt>
      <trkpt lat="44.50128" lon="5.51753">
        <ele>1097.1</ele>
        <time>2021-09-07T08:52:55Z</time>
      </trkpt>
      <trkpt lat="44.50127" lon="5.51754">
        <ele>1097.2</ele>
        <time>2021-09-07T08:52:56Z</time>
      </trkpt>
      <trkpt lat="44.50127" lon="5.51755">
        <ele>1097.3</ele>
        <time>2021-09-07T08:52:57Z</time>
      </trkpt>
      <trkpt lat="44.50126" lon="5.51755">
        <ele>1097.3</ele>
        <time>2021-09-07T08:52:58Z</time>
      </trkpt>
      <trkpt lat="44.50125" lon="5.51755">
        <ele>1097.4</ele>
        <time>2021-09-07T08:52:59Z</time>
      </trkpt>
      <trkpt lat="44.50125" lon="5.51755">
        <ele>1097.4</ele>
        <time>2021-09-07T08:53:00Z</time>
      </trkpt>
      <trkpt lat="44.50125" lon="5.51756">
        <ele>1097.4</ele>
        <time>2021-09-07T08:53:01Z</time>
      </trkpt>
      <trkpt lat="44.50124" lon="5.51756">
        <ele>1097.5</ele>
        <time>2021-09-07T08:53:02Z</time>
      </trkpt>
      <trkpt lat="44.50124" lon="5.51756">
        <ele>1097.6</ele>
        <time>2021-09-07T08:53:03Z</time>
      </trkpt>
      <trkpt lat="44.50123" lon="5.51756">
        <ele>1097.6</ele>
        <time>2021-09-07T08:53:04Z</time>
      </trkpt>
      <trkpt lat="44.50122" lon="5.51756">
        <ele>1097.7</ele>
        <time>2021-09-07T08:53:05Z</time>
      </trkpt>
      <trkpt lat="44.50122" lon="5.51756">
        <ele>1097.7</ele>
        <time>2021-09-07T08:53:06Z</time>
      </trkpt>
      <trkpt lat="44.50122" lon="5.51756">
        <ele>1097.7</ele>
        <time>2021-09-07T08:53:07Z</time>
      </trkpt>
      <trkpt lat="44.50121" lon="5.51756">
        <ele>1097.8</ele>
        <time>2021-09-07T08:53:08Z</time>
      </trkpt>
      <trkpt lat="44.50121" lon="5.51756">
        <ele>1097.8</ele>
        <time>2021-09-07T08:53:09Z</time>
      </trkpt>
      <trkpt lat="44.50121" lon="5.51756">
        <ele>1097.8</ele>
        <time>2021-09-07T08:53:10Z</time>
      </trkpt>
      <trkpt lat="44.50121" lon="5.51756">
        <ele>1097.8</ele>
        <time>2021-09-07T08:53:11Z</time>
      </trkpt>
      <trkpt lat="44.50121" lon="5.51756">
        <ele>1097.8</ele>
        <time>2021-09-07T08:53:12Z</time>
      </trkpt>
      <trkpt lat="44.5012" lon="5.51756">
        <ele>1097.9</ele>
        <time>2021-09-07T08:53:13Z</time>
      </trkpt>
      <trkpt lat="44.50119" lon="5.51755">
        <ele>1098</ele>
        <time>2021-09-07T08:53:14Z</time>
      </trkpt>
      <trkpt lat="44.50118" lon="5.51755">
        <ele>1098</ele>
        <time>2021-09-07T08:53:15Z</time>
      </trkpt>
      <trkpt lat="44.50117" lon="5.51755">
        <ele>1098.1</ele>
        <time>2021-09-07T08:53:16Z</time>
      </trkpt>
      <trkpt lat="44.50116" lon="5.51755">
        <ele>1098.2</ele>
        <time>2021-09-07T08:53:17Z</time>
      </trkpt>
      <trkpt lat="44.50115" lon="5.51755">
        <ele>1098.3</ele>
        <time>2021-09-07T08:53:18Z</time>
      </trkpt>
      <trkpt lat="44.50114" lon="5.51755">
        <ele>1098.4</ele>
        <time>2021-09-07T08:53:19Z</time>
      </trkpt>
      <trkpt lat="44.50112" lon="5.51754">
        <ele>1098.5</ele>
        <time>2021-09-07T08:53:20Z</time>
      </trkpt>
      <trkpt lat="44.50112" lon="5.51754">
        <ele>1098.6</ele>
        <time>2021-09-07T08:53:21Z</time>
      </trkpt>
      <trkpt lat="44.50111" lon="5.51754">
        <ele>1098.6</ele>
        <time>2021-09-07T08:53:22Z</time>
      </trkpt>
      <trkpt lat="44.5011" lon="5.51754">
        <ele>1098.7</ele>
        <time>2021-09-07T08:53:23Z</time>
      </trkpt>
      <trkpt lat="44.5011" lon="5.51755">
        <ele>1098.7</ele>
        <time>2021-09-07T08:53:24Z</time>
      </trkpt>
      <trkpt lat="44.5011" lon="5.51755">
        <ele>1098.8</ele>
        <time>2021-09-07T08:53:25Z</time>
      </trkpt>
      <trkpt lat="44.50109" lon="5.51755">
        <ele>1098.8</ele>
        <time>2021-09-07T08:53:26Z</time>
      </trkpt>
      <trkpt lat="44.50108" lon="5.51755">
        <ele>1098.9</ele>
        <time>2021-09-07T08:53:27Z</time>
      </trkpt>
      <trkpt lat="44.50107" lon="5.51755">
        <ele>1099</ele>
        <time>2021-09-07T08:53:28Z</time>
      </trkpt>
      <trkpt lat="44.50105" lon="5.51755">
        <ele>1099.2</ele>
        <time>2021-09-07T08:53:29Z</time>
      </trkpt>
      <trkpt lat="44.50104" lon="5.51755">
        <ele>1099.3</ele>
        <time>2021-09-07T08:53:30Z</time>
      </trkpt>
      <trkpt lat="44.50103" lon="5.51755">
        <ele>1099.4</ele>
        <time>2021-09-07T08:53:31Z</time>
      </trkpt>
      <trkpt lat="44.50101" lon="5.51755">
        <ele>1099.5</ele>
        <time>2021-09-07T08:53:32Z</time>
      </trkpt>
      <trkpt lat="44.50099" lon="5.51755">
        <ele>1099.7</ele>
        <time>2021-09-07T08:53:33Z</time>
      </trkpt>
      <trkpt lat="44.50097" lon="5.51755">
        <ele>1099.9</ele>
        <time>2021-09-07T08:53:34Z</time>
      </trkpt>
      <trkpt lat="44.50094" lon="5.51755">
        <ele>1100.1</ele>
        <time>2021-09-07T08:53:35Z</time>
      </trkpt>
      <trkpt lat="44.50091" lon="5.51756">
        <ele>1100.4</ele>
        <time>2021-09-07T08:53:36Z</time>
      </trkpt>
      <trkpt lat="44.50088" lon="5.51756">
        <ele>1100.6</ele>
        <time>2021-09-07T08:53:37Z</time>
      </trkpt>
      <trkpt lat="44.50086" lon="5.51755">
        <ele>1100.8</ele>
        <time>2021-09-07T08:53:38Z</time>
      </trkpt>
      <trkpt lat="44.50083" lon="5.51754">
        <ele>1101.1</ele>
        <time>2021-09-07T08:53:39Z</time>
      </trkpt>
      <trkpt lat="44.5008" lon="5.51755">
        <ele>1101.3</ele>
        <time>2021-09-07T08:53:40Z</time>
      </trkpt>
      <trkpt lat="44.50079" lon="5.51755">
        <ele>1101.4</ele>
        <time>2021-09-07T08:53:41Z</time>
      </trkpt>
      <trkpt lat="44.50077" lon="5.51754">
        <ele>1101.5</ele>
        <time>2021-09-07T08:53:42Z</time>
      </trkpt>
      <trkpt lat="44.50076" lon="5.51752">
        <ele>1101.7</ele>
        <time>2021-09-07T08:53:43Z</time>
      </trkpt>
      <trkpt lat="44.50077" lon="5.51752">
        <ele>1101.8</ele>
        <time>2021-09-07T08:53:44Z</time>
      </trkpt>
      <trkpt lat="44.50079" lon="5.51752">
        <ele>1101.9</ele>
        <time>2021-09-07T08:53:45Z</time>
      </trkpt>
      <trkpt lat="44.5008" lon="5.51751">
        <ele>1102</ele>
        <time>2021-09-07T08:53:46Z</time>
      </trkpt>
      <trkpt lat="44.5008" lon="5.51751">
        <ele>1102</ele>
        <time>2021-09-07T08:53:47Z</time>
      </trkpt>
      <trkpt lat="44.50079" lon="5.51751">
        <ele>1102.1</ele>
        <time>2021-09-07T08:53:48Z</time>
      </trkpt>
      <trkpt lat="44.50079" lon="5.51751">
        <ele>1102.1</ele>
        <time>2021-09-07T08:53:49Z</time>
      </trkpt>
      <trkpt lat="44.50079" lon="5.51751">
        <ele>1102.1</ele>
        <time>2021-09-07T08:53:50Z</time>
      </trkpt>
      <trkpt lat="44.50078" lon="5.51751">
        <ele>1102.1</ele>
        <time>2021-09-07T08:53:51Z</time>
      </trkpt>
      <trkpt lat="44.50077" lon="5.51751">
        <ele>1102.2</ele>
        <time>2021-09-07T08:53:52Z</time>
      </trkpt>
      <trkpt lat="44.50076" lon="5.51751">
        <ele>1102.3</ele>
        <time>2021-09-07T08:53:53Z</time>
      </trkpt>
      <trkpt lat="44.50074" lon="5.51751">
        <ele>1102.4</ele>
        <time>2021-09-07T08:53:54Z</time>
      </trkpt>
      <trkpt lat="44.50071" lon="5.5175">
        <ele>1102.6</ele>
        <time>2021-09-07T08:53:55Z</time>
      </trkpt>
      <trkpt lat="44.50068" lon="5.5175">
        <ele>1102.8</ele>
        <time>2021-09-07T08:53:56Z</time>
      </trkpt>
      <trkpt lat="44.50065" lon="5.51751">
        <ele>1103</ele>
        <time>2021-09-07T08:53:57Z</time>
      </trkpt>
      <trkpt lat="44.50062" lon="5.51752">
        <ele>1103.2</ele>
        <time>2021-09-07T08:53:58Z</time>
      </trkpt>
      <trkpt lat="44.50059" lon="5.51753">
        <ele>1103.4</ele>
        <time>2021-09-07T08:53:59Z</time>
      </trkpt>
      <trkpt lat="44.50056" lon="5.51754">
        <ele>1103.6</ele>
        <time>2021-09-07T08:54:00Z</time>
      </trkpt>
      <trkpt lat="44.50054" lon="5.51755">
        <ele>1103.8</ele>
        <time>2021-09-07T08:54:01Z</time>
      </trkpt>
      <trkpt lat="44.50052" lon="5.51756">
        <ele>1103.9</ele>
        <time>2021-09-07T08:54:02Z</time>
      </trkpt>
      <trkpt lat="44.50051" lon="5.51758">
        <ele>1104</ele>
        <time>2021-09-07T08:54:03Z</time>
      </trkpt>
      <trkpt lat="44.50049" lon="5.5176">
        <ele>1104.2</ele>
        <time>2021-09-07T08:54:04Z</time>
      </trkpt>
      <trkpt lat="44.50047" lon="5.51761">
        <ele>1104.3</ele>
        <time>2021-09-07T08:54:05Z</time>
      </trkpt>
      <trkpt lat="44.50047" lon="5.51761">
        <ele>1104.3</ele>
        <time>2021-09-07T08:54:06Z</time>
      </trkpt>
      <trkpt lat="44.50047" lon="5.51762">
        <ele>1104.3</ele>
        <time>2021-09-07T08:54:07Z</time>
      </trkpt>
      <trkpt lat="44.50047" lon="5.51762">
        <ele>1104.3</ele>
        <time>2021-09-07T08:54:08Z</time>
      </trkpt>
      <trkpt lat="44.50047" lon="5.51762">
        <ele>1104.3</ele>
        <time>2021-09-07T08:54:09Z</time>
      </trkpt>
      <trkpt lat="44.50047" lon="5.51762">
        <ele>1104.3</ele>
        <time>2021-09-07T08:54:10Z</time>
      </trkpt>
      <trkpt lat="44.50047" lon="5.51763">
        <ele>1104.4</ele>
        <time>2021-09-07T08:54:11Z</time>
      </trkpt>
      <trkpt lat="44.50047" lon="5.51763">
        <ele>1104.4</ele>
        <time>2021-09-07T08:54:12Z</time>
      </trkpt>
      <trkpt lat="44.50046" lon="5.51763">
        <ele>1104.5</ele>
        <time>2021-09-07T08:54:13Z</time>
      </trkpt>
      <trkpt lat="44.50046" lon="5.51764">
        <ele>1104.5</ele>
        <time>2021-09-07T08:54:14Z</time>
      </trkpt>
      <trkpt lat="44.50045" lon="5.51765">
        <ele>1104.6</ele>
        <time>2021-09-07T08:54:15Z</time>
      </trkpt>
      <trkpt lat="44.50044" lon="5.51765">
        <ele>1104.7</ele>
        <time>2021-09-07T08:54:16Z</time>
      </trkpt>
      <trkpt lat="44.50044" lon="5.51766">
        <ele>1104.7</ele>
        <time>2021-09-07T08:54:17Z</time>
      </trkpt>
      <trkpt lat="44.50043" lon="5.51766">
        <ele>1104.7</ele>
        <time>2021-09-07T08:54:18Z</time>
      </trkpt>
      <trkpt lat="44.50042" lon="5.51767">
        <ele>1104.8</ele>
        <time>2021-09-07T08:54:19Z</time>
      </trkpt>
      <trkpt lat="44.50041" lon="5.51767">
        <ele>1104.9</ele>
        <time>2021-09-07T08:54:20Z</time>
      </trkpt>
      <trkpt lat="44.5004" lon="5.51768">
        <ele>1105</ele>
        <time>2021-09-07T08:54:21Z</time>
      </trkpt>
      <trkpt lat="44.50039" lon="5.51769">
        <ele>1105</ele>
        <time>2021-09-07T08:54:22Z</time>
      </trkpt>
      <trkpt lat="44.50038" lon="5.5177">
        <ele>1105.1</ele>
        <time>2021-09-07T08:54:23Z</time>
      </trkpt>
      <trkpt lat="44.50037" lon="5.51771">
        <ele>1105.2</ele>
        <time>2021-09-07T08:54:24Z</time>
      </trkpt>
      <trkpt lat="44.50036" lon="5.51772">
        <ele>1105.3</ele>
        <time>2021-09-07T08:54:25Z</time>
      </trkpt>
      <trkpt lat="44.50035" lon="5.51772">
        <ele>1105.3</ele>
        <time>2021-09-07T08:54:26Z</time>
      </trkpt>
      <trkpt lat="44.50034" lon="5.51773">
        <ele>1105.4</ele>
        <time>2021-09-07T08:54:27Z</time>
      </trkpt>
      <trkpt lat="44.50033" lon="5.51773">
        <ele>1105.5</ele>
        <time>2021-09-07T08:54:28Z</time>
      </trkpt>
      <trkpt lat="44.50033" lon="5.51773">
        <ele>1105.5</ele>
        <time>2021-09-07T08:54:29Z</time>
      </trkpt>
      <trkpt lat="44.50032" lon="5.51773">
        <ele>1105.6</ele>
        <time>2021-09-07T08:54:30Z</time>
      </trkpt>
      <trkpt lat="44.50031" lon="5.51773">
        <ele>1105.6</ele>
        <time>2021-09-07T08:54:31Z</time>
      </trkpt>
      <trkpt lat="44.50029" lon="5.51773">
        <ele>1105.8</ele>
        <time>2021-09-07T08:54:32Z</time>
      </trkpt>
      <trkpt lat="44.50029" lon="5.51773">
        <ele>1105.8</ele>
        <time>2021-09-07T08:54:33Z</time>
      </trkpt>
      <trkpt lat="44.50028" lon="5.51772">
        <ele>1105.8</ele>
        <time>2021-09-07T08:54:34Z</time>
      </trkpt>
      <trkpt lat="44.50027" lon="5.51771">
        <ele>1105.9</ele>
        <time>2021-09-07T08:54:35Z</time>
      </trkpt>
      <trkpt lat="44.50026" lon="5.51771">
        <ele>1106</ele>
        <time>2021-09-07T08:54:36Z</time>
      </trkpt>
      <trkpt lat="44.50025" lon="5.5177">
        <ele>1106.1</ele>
        <time>2021-09-07T08:54:37Z</time>
      </trkpt>
      <trkpt lat="44.50024" lon="5.51768">
        <ele>1106.2</ele>
        <time>2021-09-07T08:54:38Z</time>
      </trkpt>
      <trkpt lat="44.50024" lon="5.51768">
        <ele>1106.2</ele>
        <time>2021-09-07T08:54:39Z</time>
      </trkpt>
      <trkpt lat="44.50023" lon="5.51767">
        <ele>1106.3</ele>
        <time>2021-09-07T08:54:40Z</time>
      </trkpt>
      <trkpt lat="44.50022" lon="5.51766">
        <ele>1106.3</ele>
        <time>2021-09-07T08:54:41Z</time>
      </trkpt>
      <trkpt lat="44.50021" lon="5.51765">
        <ele>1106.4</ele>
        <time>2021-09-07T08:54:42Z</time>
      </trkpt>
      <trkpt lat="44.5002" lon="5.51765">
        <ele>1106.5</ele>
        <time>2021-09-07T08:54:43Z</time>
      </trkpt>
      <trkpt lat="44.50018" lon="5.51764">
        <ele>1106.6</ele>
        <time>2021-09-07T08:54:44Z</time>
      </trkpt>
      <trkpt lat="44.50017" lon="5.51764">
        <ele>1106.7</ele>
        <time>2021-09-07T08:54:45Z</time>
      </trkpt>
      <trkpt lat="44.50015" lon="5.51763">
        <ele>1106.8</ele>
        <time>2021-09-07T08:54:46Z</time>
      </trkpt>
      <trkpt lat="44.50015" lon="5.51763">
        <ele>1106.8</ele>
        <time>2021-09-07T08:54:47Z</time>
      </trkpt>
      <trkpt lat="44.50014" lon="5.51763">
        <ele>1106.9</ele>
        <time>2021-09-07T08:54:48Z</time>
      </trkpt>
      <trkpt lat="44.50014" lon="5.51763">
        <ele>1106.9</ele>
        <time>2021-09-07T08:54:49Z</time>
      </trkpt>
      <trkpt lat="44.50013" lon="5.51763">
        <ele>1107</ele>
        <time>2021-09-07T08:54:50Z</time>
      </trkpt>
      <trkpt lat="44.50013" lon="5.51763">
        <ele>1107</ele>
        <time>2021-09-07T08:54:51Z</time>
      </trkpt>
      <trkpt lat="44.50013" lon="5.51763">
        <ele>1107</ele>
        <time>2021-09-07T08:54:52Z</time>
      </trkpt>
      <trkpt lat="44.50013" lon="5.51763">
        <ele>1107</ele>
        <time>2021-09-07T08:54:53Z</time>
      </trkpt>
      <trkpt lat="44.50013" lon="5.51763">
        <ele>1107</ele>
        <time>2021-09-07T08:54:54Z</time>
      </trkpt>
      <trkpt lat="44.50012" lon="5.51763">
        <ele>1107.1</ele>
        <time>2021-09-07T08:54:55Z</time>
      </trkpt>
      <trkpt lat="44.50012" lon="5.51762">
        <ele>1107.1</ele>
        <time>2021-09-07T08:54:56Z</time>
      </trkpt>
      <trkpt lat="44.50012" lon="5.51762">
        <ele>1107.1</ele>
        <time>2021-09-07T08:54:57Z</time>
      </trkpt>
      <trkpt lat="44.5001" lon="5.51762">
        <ele>1107.3</ele>
        <time>2021-09-07T08:54:58Z</time>
      </trkpt>
      <trkpt lat="44.50008" lon="5.51761">
        <ele>1107.4</ele>
        <time>2021-09-07T08:54:59Z</time>
      </trkpt>
      <trkpt lat="44.50006" lon="5.51761">
        <ele>1107.6</ele>
        <time>2021-09-07T08:55:00Z</time>
      </trkpt>
      <trkpt lat="44.50003" lon="5.51761">
        <ele>1107.8</ele>
        <time>2021-09-07T08:55:01Z</time>
      </trkpt>
      <trkpt lat="44.5" lon="5.51761">
        <ele>1108</ele>
        <time>2021-09-07T08:55:02Z</time>
      </trkpt>
      <trkpt lat="44.49996" lon="5.5176">
        <ele>1108.4</ele>
        <time>2021-09-07T08:55:03Z</time>
      </trkpt>
      <trkpt lat="44.49992" lon="5.51758">
        <ele>1108.8</ele>
        <time>2021-09-07T08:55:04Z</time>
      </trkpt>
      <trkpt lat="44.49987" lon="5.51756">
        <ele>1109.2</ele>
        <time>2021-09-07T08:55:05Z</time>
      </trkpt>
      <trkpt lat="44.49984" lon="5.51755">
        <ele>1109.5</ele>
        <time>2021-09-07T08:55:06Z</time>
      </trkpt>
      <trkpt lat="44.49981" lon="5.51755">
        <ele>1109.8</ele>
        <time>2021-09-07T08:55:07Z</time>
      </trkpt>
      <trkpt lat="44.4998" lon="5.51755">
        <ele>1109.9</ele>
        <time>2021-09-07T08:55:08Z</time>
      </trkpt>
      <trkpt lat="44.49979" lon="5.51755">
        <ele>1110</ele>
        <time>2021-09-07T08:55:09Z</time>
      </trkpt>
      <trkpt lat="44.49978" lon="5.51755">
        <ele>1110.1</ele>
        <time>2021-09-07T08:55:10Z</time>
      </trkpt>
      <trkpt lat="44.49978" lon="5.51755">
        <ele>1110.1</ele>
        <time>2021-09-07T08:55:11Z</time>
      </trkpt>
      <trkpt lat="44.49977" lon="5.51756">
        <ele>1110.3</ele>
        <time>2021-09-07T08:55:12Z</time>
      </trkpt>
      <trkpt lat="44.49977" lon="5.51756">
        <ele>1110.3</ele>
        <time>2021-09-07T08:55:13Z</time>
      </trkpt>
      <trkpt lat="44.49977" lon="5.51756">
        <ele>1110.3</ele>
        <time>2021-09-07T08:55:14Z</time>
      </trkpt>
      <trkpt lat="44.49977" lon="5.51756">
        <ele>1110.3</ele>
        <time>2021-09-07T08:55:15Z</time>
      </trkpt>
      <trkpt lat="44.49976" lon="5.51756">
        <ele>1110.4</ele>
        <time>2021-09-07T08:55:16Z</time>
      </trkpt>
      <trkpt lat="44.49974" lon="5.51756">
        <ele>1110.6</ele>
        <time>2021-09-07T08:55:17Z</time>
      </trkpt>
      <trkpt lat="44.49973" lon="5.51756">
        <ele>1110.7</ele>
        <time>2021-09-07T08:55:18Z</time>
      </trkpt>
      <trkpt lat="44.49972" lon="5.51757">
        <ele>1110.8</ele>
        <time>2021-09-07T08:55:19Z</time>
      </trkpt>
      <trkpt lat="44.49971" lon="5.51757">
        <ele>1110.9</ele>
        <time>2021-09-07T08:55:20Z</time>
      </trkpt>
      <trkpt lat="44.4997" lon="5.51757">
        <ele>1111</ele>
        <time>2021-09-07T08:55:21Z</time>
      </trkpt>
      <trkpt lat="44.49968" lon="5.51757">
        <ele>1111.2</ele>
        <time>2021-09-07T08:55:22Z</time>
      </trkpt>
      <trkpt lat="44.49967" lon="5.51758">
        <ele>1111.3</ele>
        <time>2021-09-07T08:55:23Z</time>
      </trkpt>
      <trkpt lat="44.49965" lon="5.51757">
        <ele>1111.5</ele>
        <time>2021-09-07T08:55:24Z</time>
      </trkpt>
      <trkpt lat="44.49964" lon="5.51757">
        <ele>1111.7</ele>
        <time>2021-09-07T08:55:25Z</time>
      </trkpt>
      <trkpt lat="44.49963" lon="5.51757">
        <ele>1111.8</ele>
        <time>2021-09-07T08:55:26Z</time>
      </trkpt>
      <trkpt lat="44.49961" lon="5.51757">
        <ele>1112</ele>
        <time>2021-09-07T08:55:27Z</time>
      </trkpt>
      <trkpt lat="44.49959" lon="5.51757">
        <ele>1112.2</ele>
        <time>2021-09-07T08:55:28Z</time>
      </trkpt>
      <trkpt lat="44.49958" lon="5.51757">
        <ele>1112.3</ele>
        <time>2021-09-07T08:55:29Z</time>
      </trkpt>
      <trkpt lat="44.49957" lon="5.51757">
        <ele>1112.4</ele>
        <time>2021-09-07T08:55:30Z</time>
      </trkpt>
      <trkpt lat="44.49956" lon="5.51758">
        <ele>1112.6</ele>
        <time>2021-09-07T08:55:31Z</time>
      </trkpt>
      <trkpt lat="44.49955" lon="5.51758">
        <ele>1112.7</ele>
        <time>2021-09-07T08:55:32Z</time>
      </trkpt>
      <trkpt lat="44.49955" lon="5.51758">
        <ele>1112.7</ele>
        <time>2021-09-07T08:55:33Z</time>
      </trkpt>
      <trkpt lat="44.49954" lon="5.51758">
        <ele>1112.8</ele>
        <time>2021-09-07T08:55:34Z</time>
      </trkpt>
      <trkpt lat="44.49953" lon="5.51758">
        <ele>1112.9</ele>
        <time>2021-09-07T08:55:35Z</time>
      </trkpt>
      <trkpt lat="44.49952" lon="5.51759">
        <ele>1113</ele>
        <time>2021-09-07T08:55:36Z</time>
      </trkpt>
      <trkpt lat="44.49951" lon="5.51759">
        <ele>1113.1</ele>
        <time>2021-09-07T08:55:37Z</time>
      </trkpt>
      <trkpt lat="44.4995" lon="5.51759">
        <ele>1113.2</ele>
        <time>2021-09-07T08:55:38Z</time>
      </trkpt>
      <trkpt lat="44.49948" lon="5.5176">
        <ele>1113.5</ele>
        <time>2021-09-07T08:55:39Z</time>
      </trkpt>
      <trkpt lat="44.49947" lon="5.51761">
        <ele>1113.6</ele>
        <time>2021-09-07T08:55:40Z</time>
      </trkpt>
      <trkpt lat="44.49946" lon="5.51761">
        <ele>1113.8</ele>
        <time>2021-09-07T08:55:41Z</time>
      </trkpt>
      <trkpt lat="44.49945" lon="5.51761">
        <ele>1113.9</ele>
        <time>2021-09-07T08:55:42Z</time>
      </trkpt>
      <trkpt lat="44.49944" lon="5.51762">
        <ele>1114</ele>
        <time>2021-09-07T08:55:43Z</time>
      </trkpt>
      <trkpt lat="44.49944" lon="5.51763">
        <ele>1114.1</ele>
        <time>2021-09-07T08:55:44Z</time>
      </trkpt>
      <trkpt lat="44.49943" lon="5.51763">
        <ele>1114.2</ele>
        <time>2021-09-07T08:55:45Z</time>
      </trkpt>
      <trkpt lat="44.49942" lon="5.51763">
        <ele>1114.3</ele>
        <time>2021-09-07T08:55:46Z</time>
      </trkpt>
      <trkpt lat="44.49941" lon="5.51764">
        <ele>1114.4</ele>
        <time>2021-09-07T08:55:47Z</time>
      </trkpt>
      <trkpt lat="44.49941" lon="5.51764">
        <ele>1114.4</ele>
        <time>2021-09-07T08:55:48Z</time>
      </trkpt>
      <trkpt lat="44.49941" lon="5.51765">
        <ele>1114.5</ele>
        <time>2021-09-07T08:55:49Z</time>
      </trkpt>
      <trkpt lat="44.4994" lon="5.51766">
        <ele>1114.6</ele>
        <time>2021-09-07T08:55:50Z</time>
      </trkpt>
      <trkpt lat="44.49939" lon="5.51767">
        <ele>1114.8</ele>
        <time>2021-09-07T08:55:51Z</time>
      </trkpt>
      <trkpt lat="44.49938" lon="5.51768">
        <ele>1114.9</ele>
        <time>2021-09-07T08:55:52Z</time>
      </trkpt>
      <trkpt lat="44.49938" lon="5.51768">
        <ele>1114.9</ele>
        <time>2021-09-07T08:55:53Z</time>
      </trkpt>
      <trkpt lat="44.49938" lon="5.51769">
        <ele>1115</ele>
        <time>2021-09-07T08:55:54Z</time>
      </trkpt>
      <trkpt lat="44.49937" lon="5.51769">
        <ele>1115.1</ele>
        <time>2021-09-07T08:55:55Z</time>
      </trkpt>
      <trkpt lat="44.49937" lon="5.51769">
        <ele>1115.1</ele>
        <time>2021-09-07T08:55:56Z</time>
      </trkpt>
      <trkpt lat="44.49937" lon="5.51769">
        <ele>1115.1</ele>
        <time>2021-09-07T08:55:57Z</time>
      </trkpt>
      <trkpt lat="44.49937" lon="5.5177">
        <ele>1115.2</ele>
        <time>2021-09-07T08:55:58Z</time>
      </trkpt>
      <trkpt lat="44.49937" lon="5.5177">
        <ele>1115.2</ele>
        <time>2021-09-07T08:55:59Z</time>
      </trkpt>
      <trkpt lat="44.49937" lon="5.5177">
        <ele>1115.2</ele>
        <time>2021-09-07T08:56:00Z</time>
      </trkpt>
      <trkpt lat="44.49937" lon="5.5177">
        <ele>1115.2</ele>
        <time>2021-09-07T08:56:01Z</time>
      </trkpt>
      <trkpt lat="44.49937" lon="5.5177">
        <ele>1115.2</ele>
        <time>2021-09-07T08:56:02Z</time>
      </trkpt>
      <trkpt lat="44.49937" lon="5.5177">
        <ele>1115.2</ele>
        <time>2021-09-07T08:56:03Z</time>
      </trkpt>
      <trkpt lat="44.49937" lon="5.5177">
        <ele>1115.2</ele>
        <time>2021-09-07T08:56:04Z</time>
      </trkpt>
      <trkpt lat="44.49936" lon="5.51771">
        <ele>1115.3</ele>
        <time>2021-09-07T08:56:05Z</time>
      </trkpt>
      <trkpt lat="44.49935" lon="5.51772">
        <ele>1115.5</ele>
        <time>2021-09-07T08:56:06Z</time>
      </trkpt>
      <trkpt lat="44.49934" lon="5.51773">
        <ele>1115.6</ele>
        <time>2021-09-07T08:56:07Z</time>
      </trkpt>
      <trkpt lat="44.49933" lon="5.51774">
        <ele>1115.7</ele>
        <time>2021-09-07T08:56:08Z</time>
      </trkpt>
      <trkpt lat="44.49932" lon="5.51774">
        <ele>1115.9</ele>
        <time>2021-09-07T08:56:09Z</time>
      </trkpt>
      <trkpt lat="44.4993" lon="5.51776">
        <ele>1116.2</ele>
        <time>2021-09-07T08:56:10Z</time>
      </trkpt>
      <trkpt lat="44.49929" lon="5.51777">
        <ele>1116.3</ele>
        <time>2021-09-07T08:56:11Z</time>
      </trkpt>
      <trkpt lat="44.49928" lon="5.51778">
        <ele>1116.5</ele>
        <time>2021-09-07T08:56:12Z</time>
      </trkpt>
      <trkpt lat="44.49927" lon="5.51779">
        <ele>1116.6</ele>
        <time>2021-09-07T08:56:13Z</time>
      </trkpt>
      <trkpt lat="44.49927" lon="5.5178">
        <ele>1116.7</ele>
        <time>2021-09-07T08:56:14Z</time>
      </trkpt>
      <trkpt lat="44.49926" lon="5.5178">
        <ele>1116.8</ele>
        <time>2021-09-07T08:56:15Z</time>
      </trkpt>
      <trkpt lat="44.49925" lon="5.51781">
        <ele>1116.9</ele>
        <time>2021-09-07T08:56:16Z</time>
      </trkpt>
      <trkpt lat="44.49924" lon="5.51782">
        <ele>1117.1</ele>
        <time>2021-09-07T08:56:17Z</time>
      </trkpt>
      <trkpt lat="44.49922" lon="5.51784">
        <ele>1117.4</ele>
        <time>2021-09-07T08:56:18Z</time>
      </trkpt>
      <trkpt lat="44.49921" lon="5.51785">
        <ele>1117.5</ele>
        <time>2021-09-07T08:56:19Z</time>
      </trkpt>
      <trkpt lat="44.49921" lon="5.51786">
        <ele>1117.6</ele>
        <time>2021-09-07T08:56:20Z</time>
      </trkpt>
      <trkpt lat="44.4992" lon="5.51786">
        <ele>1117.7</ele>
        <time>2021-09-07T08:56:21Z</time>
      </trkpt>
      <trkpt lat="44.49919" lon="5.51788">
        <ele>1117.9</ele>
        <time>2021-09-07T08:56:22Z</time>
      </trkpt>
      <trkpt lat="44.49918" lon="5.51789">
        <ele>1118</ele>
        <time>2021-09-07T08:56:23Z</time>
      </trkpt>
      <trkpt lat="44.49918" lon="5.51789">
        <ele>1118</ele>
        <time>2021-09-07T08:56:24Z</time>
      </trkpt>
      <trkpt lat="44.49918" lon="5.5179">
        <ele>1118.1</ele>
        <time>2021-09-07T08:56:25Z</time>
      </trkpt>
      <trkpt lat="44.49918" lon="5.5179">
        <ele>1118.1</ele>
        <time>2021-09-07T08:56:26Z</time>
      </trkpt>
      <trkpt lat="44.49918" lon="5.51791">
        <ele>1118.2</ele>
        <time>2021-09-07T08:56:27Z</time>
      </trkpt>
      <trkpt lat="44.49918" lon="5.51791">
        <ele>1118.2</ele>
        <time>2021-09-07T08:56:28Z</time>
      </trkpt>
      <trkpt lat="44.49918" lon="5.51791">
        <ele>1118.2</ele>
        <time>2021-09-07T08:56:29Z</time>
      </trkpt>
      <trkpt lat="44.49918" lon="5.51791">
        <ele>1118.2</ele>
        <time>2021-09-07T08:56:30Z</time>
      </trkpt>
      <trkpt lat="44.49917" lon="5.51791">
        <ele>1118.3</ele>
        <time>2021-09-07T08:56:31Z</time>
      </trkpt>
      <trkpt lat="44.49916" lon="5.51792">
        <ele>1118.5</ele>
        <time>2021-09-07T08:56:32Z</time>
      </trkpt>
      <trkpt lat="44.49914" lon="5.51792">
        <ele>1118.7</ele>
        <time>2021-09-07T08:56:33Z</time>
      </trkpt>
      <trkpt lat="44.49913" lon="5.51794">
        <ele>1118.9</ele>
        <time>2021-09-07T08:56:34Z</time>
      </trkpt>
      <trkpt lat="44.49911" lon="5.51795">
        <ele>1119.1</ele>
        <time>2021-09-07T08:56:35Z</time>
      </trkpt>
      <trkpt lat="44.4991" lon="5.51796">
        <ele>1119.3</ele>
        <time>2021-09-07T08:56:36Z</time>
      </trkpt>
      <trkpt lat="44.49909" lon="5.51796">
        <ele>1119.4</ele>
        <time>2021-09-07T08:56:37Z</time>
      </trkpt>
      <trkpt lat="44.49908" lon="5.51796">
        <ele>1119.5</ele>
        <time>2021-09-07T08:56:38Z</time>
      </trkpt>
      <trkpt lat="44.49907" lon="5.51796">
        <ele>1119.6</ele>
        <time>2021-09-07T08:56:39Z</time>
      </trkpt>
      <trkpt lat="44.49906" lon="5.51797">
        <ele>1119.7</ele>
        <time>2021-09-07T08:56:40Z</time>
      </trkpt>
      <trkpt lat="44.49905" lon="5.51797">
        <ele>1119.8</ele>
        <time>2021-09-07T08:56:41Z</time>
      </trkpt>
      <trkpt lat="44.49904" lon="5.51797">
        <ele>1119.9</ele>
        <time>2021-09-07T08:56:42Z</time>
      </trkpt>
      <trkpt lat="44.49903" lon="5.51797">
        <ele>1120</ele>
        <time>2021-09-07T08:56:43Z</time>
      </trkpt>
      <trkpt lat="44.49903" lon="5.51798">
        <ele>1120.1</ele>
        <time>2021-09-07T08:56:44Z</time>
      </trkpt>
      <trkpt lat="44.49902" lon="5.51798">
        <ele>1120.2</ele>
        <time>2021-09-07T08:56:45Z</time>
      </trkpt>
      <trkpt lat="44.49901" lon="5.51799">
        <ele>1120.3</ele>
        <time>2021-09-07T08:56:46Z</time>
      </trkpt>
      <trkpt lat="44.499" lon="5.518">
        <ele>1120.4</ele>
        <time>2021-09-07T08:56:47Z</time>
      </trkpt>
      <trkpt lat="44.49898" lon="5.51801">
        <ele>1120.7</ele>
        <time>2021-09-07T08:56:48Z</time>
      </trkpt>
      <trkpt lat="44.49897" lon="5.51801">
        <ele>1120.8</ele>
        <time>2021-09-07T08:56:49Z</time>
      </trkpt>
      <trkpt lat="44.49896" lon="5.51801">
        <ele>1120.9</ele>
        <time>2021-09-07T08:56:50Z</time>
      </trkpt>
      <trkpt lat="44.49896" lon="5.51801">
        <ele>1120.9</ele>
        <time>2021-09-07T08:56:51Z</time>
      </trkpt>
      <trkpt lat="44.49895" lon="5.518">
        <ele>1121</ele>
        <time>2021-09-07T08:56:52Z</time>
      </trkpt>
      <trkpt lat="44.49894" lon="5.518">
        <ele>1121.1</ele>
        <time>2021-09-07T08:56:53Z</time>
      </trkpt>
      <trkpt lat="44.49893" lon="5.51799">
        <ele>1121.2</ele>
        <time>2021-09-07T08:56:54Z</time>
      </trkpt>
      <trkpt lat="44.49893" lon="5.51799">
        <ele>1121.2</ele>
        <time>2021-09-07T08:56:55Z</time>
      </trkpt>
      <trkpt lat="44.49892" lon="5.51798">
        <ele>1121.3</ele>
        <time>2021-09-07T08:56:56Z</time>
      </trkpt>
      <trkpt lat="44.49891" lon="5.51797">
        <ele>1121.5</ele>
        <time>2021-09-07T08:56:57Z</time>
      </trkpt>
      <trkpt lat="44.4989" lon="5.51796">
        <ele>1121.6</ele>
        <time>2021-09-07T08:56:58Z</time>
      </trkpt>
      <trkpt lat="44.49889" lon="5.51795">
        <ele>1121.7</ele>
        <time>2021-09-07T08:56:59Z</time>
      </trkpt>
      <trkpt lat="44.49888" lon="5.51793">
        <ele>1121.9</ele>
        <time>2021-09-07T08:57:00Z</time>
      </trkpt>
      <trkpt lat="44.49886" lon="5.51791">
        <ele>1122.1</ele>
        <time>2021-09-07T08:57:01Z</time>
      </trkpt>
      <trkpt lat="44.49885" lon="5.5179">
        <ele>1122.2</ele>
        <time>2021-09-07T08:57:02Z</time>
      </trkpt>
      <trkpt lat="44.49884" lon="5.51788">
        <ele>1122.3</ele>
        <time>2021-09-07T08:57:03Z</time>
      </trkpt>
      <trkpt lat="44.49882" lon="5.51787">
        <ele>1122.5</ele>
        <time>2021-09-07T08:57:04Z</time>
      </trkpt>
      <trkpt lat="44.4988" lon="5.51786">
        <ele>1122.7</ele>
        <time>2021-09-07T08:57:05Z</time>
      </trkpt>
      <trkpt lat="44.49879" lon="5.51785">
        <ele>1122.8</ele>
        <time>2021-09-07T08:57:06Z</time>
      </trkpt>
      <trkpt lat="44.49877" lon="5.51783">
        <ele>1123</ele>
        <time>2021-09-07T08:57:07Z</time>
      </trkpt>
      <trkpt lat="44.49876" lon="5.51782">
        <ele>1123.1</ele>
        <time>2021-09-07T08:57:08Z</time>
      </trkpt>
      <trkpt lat="44.49875" lon="5.51781">
        <ele>1123.2</ele>
        <time>2021-09-07T08:57:09Z</time>
      </trkpt>
      <trkpt lat="44.49874" lon="5.51779">
        <ele>1123.3</ele>
        <time>2021-09-07T08:57:10Z</time>
      </trkpt>
      <trkpt lat="44.49872" lon="5.51777">
        <ele>1123.5</ele>
        <time>2021-09-07T08:57:11Z</time>
      </trkpt>
      <trkpt lat="44.49872" lon="5.51776">
        <ele>1123.6</ele>
        <time>2021-09-07T08:57:12Z</time>
      </trkpt>
      <trkpt lat="44.49871" lon="5.51775">
        <ele>1123.6</ele>
        <time>2021-09-07T08:57:13Z</time>
      </trkpt>
      <trkpt lat="44.4987" lon="5.51774">
        <ele>1123.7</ele>
        <time>2021-09-07T08:57:14Z</time>
      </trkpt>
      <trkpt lat="44.49869" lon="5.51774">
        <ele>1123.8</ele>
        <time>2021-09-07T08:57:15Z</time>
      </trkpt>
      <trkpt lat="44.49869" lon="5.51773">
        <ele>1123.8</ele>
        <time>2021-09-07T08:57:16Z</time>
      </trkpt>
      <trkpt lat="44.49869" lon="5.51773">
        <ele>1123.9</ele>
        <time>2021-09-07T08:57:17Z</time>
      </trkpt>
      <trkpt lat="44.49868" lon="5.51773">
        <ele>1123.9</ele>
        <time>2021-09-07T08:57:18Z</time>
      </trkpt>
      <trkpt lat="44.49868" lon="5.51773">
        <ele>1123.9</ele>
        <time>2021-09-07T08:57:19Z</time>
      </trkpt>
      <trkpt lat="44.49868" lon="5.51772">
        <ele>1124</ele>
        <time>2021-09-07T08:57:20Z</time>
      </trkpt>
      <trkpt lat="44.49868" lon="5.51772">
        <ele>1124</ele>
        <time>2021-09-07T08:57:21Z</time>
      </trkpt>
      <trkpt lat="44.49868" lon="5.51772">
        <ele>1124</ele>
        <time>2021-09-07T08:57:22Z</time>
      </trkpt>
      <trkpt lat="44.49868" lon="5.51772">
        <ele>1124</ele>
        <time>2021-09-07T08:57:23Z</time>
      </trkpt>
      <trkpt lat="44.49868" lon="5.51772">
        <ele>1124</ele>
        <time>2021-09-07T08:57:24Z</time>
      </trkpt>
      <trkpt lat="44.49867" lon="5.51771">
        <ele>1124.1</ele>
        <time>2021-09-07T08:57:25Z</time>
      </trkpt>
      <trkpt lat="44.49866" lon="5.5177">
        <ele>1124.2</ele>
        <time>2021-09-07T08:57:26Z</time>
      </trkpt>
      <trkpt lat="44.49865" lon="5.51768">
        <ele>1124.3</ele>
        <time>2021-09-07T08:57:27Z</time>
      </trkpt>
      <trkpt lat="44.49863" lon="5.51765">
        <ele>1124.5</ele>
        <time>2021-09-07T08:57:28Z</time>
      </trkpt>
      <trkpt lat="44.49861" lon="5.51763">
        <ele>1124.7</ele>
        <time>2021-09-07T08:57:29Z</time>
      </trkpt>
      <trkpt lat="44.4986" lon="5.51763">
        <ele>1124.8</ele>
        <time>2021-09-07T08:57:30Z</time>
      </trkpt>
      <trkpt lat="44.49859" lon="5.51762">
        <ele>1124.9</ele>
        <time>2021-09-07T08:57:31Z</time>
      </trkpt>
      <trkpt lat="44.49858" lon="5.5176">
        <ele>1125.1</ele>
        <time>2021-09-07T08:57:32Z</time>
      </trkpt>
      <trkpt lat="44.49856" lon="5.51758">
        <ele>1125.3</ele>
        <time>2021-09-07T08:57:33Z</time>
      </trkpt>
      <trkpt lat="44.49854" lon="5.51756">
        <ele>1125.6</ele>
        <time>2021-09-07T08:57:34Z</time>
      </trkpt>
      <trkpt lat="44.49853" lon="5.51755">
        <ele>1125.7</ele>
        <time>2021-09-07T08:57:35Z</time>
      </trkpt>
      <trkpt lat="44.49852" lon="5.51754">
        <ele>1125.8</ele>
        <time>2021-09-07T08:57:36Z</time>
      </trkpt>
      <trkpt lat="44.49851" lon="5.51753">
        <ele>1125.9</ele>
        <time>2021-09-07T08:57:37Z</time>
      </trkpt>
      <trkpt lat="44.49851" lon="5.51753">
        <ele>1126</ele>
        <time>2021-09-07T08:57:38Z</time>
      </trkpt>
      <trkpt lat="44.4985" lon="5.51752">
        <ele>1126</ele>
        <time>2021-09-07T08:57:39Z</time>
      </trkpt>
      <trkpt lat="44.49849" lon="5.51752">
        <ele>1126.2</ele>
        <time>2021-09-07T08:57:40Z</time>
      </trkpt>
      <trkpt lat="44.49848" lon="5.51751">
        <ele>1126.3</ele>
        <time>2021-09-07T08:57:41Z</time>
      </trkpt>
      <trkpt lat="44.49847" lon="5.51751">
        <ele>1126.4</ele>
        <time>2021-09-07T08:57:42Z</time>
      </trkpt>
      <trkpt lat="44.49846" lon="5.5175">
        <ele>1126.5</ele>
        <time>2021-09-07T08:57:43Z</time>
      </trkpt>
      <trkpt lat="44.49846" lon="5.5175">
        <ele>1126.5</ele>
        <time>2021-09-07T08:57:44Z</time>
      </trkpt>
      <trkpt lat="44.49846" lon="5.5175">
        <ele>1126.5</ele>
        <time>2021-09-07T08:57:45Z</time>
      </trkpt>
      <trkpt lat="44.49845" lon="5.51749">
        <ele>1126.6</ele>
        <time>2021-09-07T08:57:46Z</time>
      </trkpt>
      <trkpt lat="44.49845" lon="5.51749">
        <ele>1126.6</ele>
        <time>2021-09-07T08:57:47Z</time>
      </trkpt>
      <trkpt lat="44.49845" lon="5.51749">
        <ele>1126.6</ele>
        <time>2021-09-07T08:57:48Z</time>
      </trkpt>
      <trkpt lat="44.49845" lon="5.51749">
        <ele>1126.6</ele>
        <time>2021-09-07T08:57:49Z</time>
      </trkpt>
      <trkpt lat="44.49845" lon="5.51749">
        <ele>1126.6</ele>
        <time>2021-09-07T08:57:50Z</time>
      </trkpt>
      <trkpt lat="44.49844" lon="5.51749">
        <ele>1126.7</ele>
        <time>2021-09-07T08:57:51Z</time>
      </trkpt>
      <trkpt lat="44.49842" lon="5.51748">
        <ele>1127</ele>
        <time>2021-09-07T08:57:52Z</time>
      </trkpt>
      <trkpt lat="44.4984" lon="5.51747">
        <ele>1127.2</ele>
        <time>2021-09-07T08:57:53Z</time>
      </trkpt>
      <trkpt lat="44.49839" lon="5.51746">
        <ele>1127.3</ele>
        <time>2021-09-07T08:57:54Z</time>
      </trkpt>
      <trkpt lat="44.49838" lon="5.51746">
        <ele>1127.5</ele>
        <time>2021-09-07T08:57:55Z</time>
      </trkpt>
      <trkpt lat="44.49837" lon="5.51745">
        <ele>1127.6</ele>
        <time>2021-09-07T08:57:56Z</time>
      </trkpt>
      <trkpt lat="44.49836" lon="5.51745">
        <ele>1127.7</ele>
        <time>2021-09-07T08:57:57Z</time>
      </trkpt>
      <trkpt lat="44.49834" lon="5.51744">
        <ele>1127.9</ele>
        <time>2021-09-07T08:57:58Z</time>
      </trkpt>
      <trkpt lat="44.49833" lon="5.51743">
        <ele>1128</ele>
        <time>2021-09-07T08:57:59Z</time>
      </trkpt>
      <trkpt lat="44.49831" lon="5.51742">
        <ele>1128.3</ele>
        <time>2021-09-07T08:58:00Z</time>
      </trkpt>
      <trkpt lat="44.49829" lon="5.51741">
        <ele>1128.5</ele>
        <time>2021-09-07T08:58:01Z</time>
      </trkpt>
      <trkpt lat="44.49827" lon="5.51739">
        <ele>1128.8</ele>
        <time>2021-09-07T08:58:02Z</time>
      </trkpt>
      <trkpt lat="44.49826" lon="5.51739">
        <ele>1128.9</ele>
        <time>2021-09-07T08:58:03Z</time>
      </trkpt>
      <trkpt lat="44.49825" lon="5.51738">
        <ele>1129</ele>
        <time>2021-09-07T08:58:04Z</time>
      </trkpt>
      <trkpt lat="44.49823" lon="5.51736">
        <ele>1129.3</ele>
        <time>2021-09-07T08:58:05Z</time>
      </trkpt>
      <trkpt lat="44.49821" lon="5.51735">
        <ele>1129.5</ele>
        <time>2021-09-07T08:58:06Z</time>
      </trkpt>
      <trkpt lat="44.49821" lon="5.51734">
        <ele>1129.6</ele>
        <time>2021-09-07T08:58:07Z</time>
      </trkpt>
      <trkpt lat="44.49821" lon="5.51734">
        <ele>1129.7</ele>
        <time>2021-09-07T08:58:08Z</time>
      </trkpt>
      <trkpt lat="44.4982" lon="5.51733">
        <ele>1129.8</ele>
        <time>2021-09-07T08:58:09Z</time>
      </trkpt>
      <trkpt lat="44.49819" lon="5.51733">
        <ele>1129.9</ele>
        <time>2021-09-07T08:58:10Z</time>
      </trkpt>
      <trkpt lat="44.49819" lon="5.51732">
        <ele>1130</ele>
        <time>2021-09-07T08:58:11Z</time>
      </trkpt>
      <trkpt lat="44.49818" lon="5.51732">
        <ele>1130.1</ele>
        <time>2021-09-07T08:58:12Z</time>
      </trkpt>
      <trkpt lat="44.49817" lon="5.51732">
        <ele>1130.2</ele>
        <time>2021-09-07T08:58:13Z</time>
      </trkpt>
      <trkpt lat="44.49816" lon="5.51732">
        <ele>1130.3</ele>
        <time>2021-09-07T08:58:14Z</time>
      </trkpt>
      <trkpt lat="44.49815" lon="5.51732">
        <ele>1130.4</ele>
        <time>2021-09-07T08:58:15Z</time>
      </trkpt>
      <trkpt lat="44.49814" lon="5.51732">
        <ele>1130.5</ele>
        <time>2021-09-07T08:58:16Z</time>
      </trkpt>
      <trkpt lat="44.49812" lon="5.51732">
        <ele>1130.8</ele>
        <time>2021-09-07T08:58:17Z</time>
      </trkpt>
      <trkpt lat="44.49811" lon="5.51733">
        <ele>1130.9</ele>
        <time>2021-09-07T08:58:18Z</time>
      </trkpt>
      <trkpt lat="44.49809" lon="5.51733">
        <ele>1131.1</ele>
        <time>2021-09-07T08:58:19Z</time>
      </trkpt>
      <trkpt lat="44.49809" lon="5.51734">
        <ele>1131.2</ele>
        <time>2021-09-07T08:58:20Z</time>
      </trkpt>
      <trkpt lat="44.49808" lon="5.51734">
        <ele>1131.3</ele>
        <time>2021-09-07T08:58:21Z</time>
      </trkpt>
      <trkpt lat="44.49808" lon="5.51734">
        <ele>1131.3</ele>
        <time>2021-09-07T08:58:22Z</time>
      </trkpt>
      <trkpt lat="44.49807" lon="5.51734">
        <ele>1131.4</ele>
        <time>2021-09-07T08:58:23Z</time>
      </trkpt>
      <trkpt lat="44.49807" lon="5.51735">
        <ele>1131.4</ele>
        <time>2021-09-07T08:58:24Z</time>
      </trkpt>
      <trkpt lat="44.49807" lon="5.51735">
        <ele>1131.5</ele>
        <time>2021-09-07T08:58:25Z</time>
      </trkpt>
      <trkpt lat="44.49806" lon="5.51735">
        <ele>1131.6</ele>
        <time>2021-09-07T08:58:26Z</time>
      </trkpt>
      <trkpt lat="44.49805" lon="5.51734">
        <ele>1131.7</ele>
        <time>2021-09-07T08:58:27Z</time>
      </trkpt>
      <trkpt lat="44.49804" lon="5.51734">
        <ele>1131.8</ele>
        <time>2021-09-07T08:58:28Z</time>
      </trkpt>
      <trkpt lat="44.49803" lon="5.51733">
        <ele>1131.9</ele>
        <time>2021-09-07T08:58:29Z</time>
      </trkpt>
      <trkpt lat="44.49802" lon="5.51733">
        <ele>1132</ele>
        <time>2021-09-07T08:58:30Z</time>
      </trkpt>
      <trkpt lat="44.49801" lon="5.51733">
        <ele>1132.2</ele>
        <time>2021-09-07T08:58:31Z</time>
      </trkpt>
      <trkpt lat="44.498" lon="5.51733">
        <ele>1132.3</ele>
        <time>2021-09-07T08:58:32Z</time>
      </trkpt>
      <trkpt lat="44.49798" lon="5.51733">
        <ele>1132.5</ele>
        <time>2021-09-07T08:58:33Z</time>
      </trkpt>
      <trkpt lat="44.49797" lon="5.51733">
        <ele>1132.6</ele>
        <time>2021-09-07T08:58:34Z</time>
      </trkpt>
      <trkpt lat="44.49796" lon="5.51733">
        <ele>1132.7</ele>
        <time>2021-09-07T08:58:35Z</time>
      </trkpt>
      <trkpt lat="44.49795" lon="5.51733">
        <ele>1132.8</ele>
        <time>2021-09-07T08:58:36Z</time>
      </trkpt>
      <trkpt lat="44.49793" lon="5.51732">
        <ele>1133</ele>
        <time>2021-09-07T08:58:37Z</time>
      </trkpt>
      <trkpt lat="44.49792" lon="5.51732">
        <ele>1133.2</ele>
        <time>2021-09-07T08:58:38Z</time>
      </trkpt>
      <trkpt lat="44.49791" lon="5.51731">
        <ele>1133.3</ele>
        <time>2021-09-07T08:58:39Z</time>
      </trkpt>
      <trkpt lat="44.4979" lon="5.51731">
        <ele>1133.4</ele>
        <time>2021-09-07T08:58:40Z</time>
      </trkpt>
      <trkpt lat="44.49789" lon="5.51731">
        <ele>1133.5</ele>
        <time>2021-09-07T08:58:41Z</time>
      </trkpt>
      <trkpt lat="44.49788" lon="5.5173">
        <ele>1133.6</ele>
        <time>2021-09-07T08:58:42Z</time>
      </trkpt>
      <trkpt lat="44.49787" lon="5.5173">
        <ele>1133.7</ele>
        <time>2021-09-07T08:58:43Z</time>
      </trkpt>
      <trkpt lat="44.49786" lon="5.5173">
        <ele>1133.8</ele>
        <time>2021-09-07T08:58:44Z</time>
      </trkpt>
      <trkpt lat="44.49785" lon="5.51729">
        <ele>1134</ele>
        <time>2021-09-07T08:58:45Z</time>
      </trkpt>
      <trkpt lat="44.49785" lon="5.51729">
        <ele>1134</ele>
        <time>2021-09-07T08:58:46Z</time>
      </trkpt>
      <trkpt lat="44.49785" lon="5.51728">
        <ele>1134</ele>
        <time>2021-09-07T08:58:47Z</time>
      </trkpt>
      <trkpt lat="44.49785" lon="5.51728">
        <ele>1134.1</ele>
        <time>2021-09-07T08:58:48Z</time>
      </trkpt>
      <trkpt lat="44.49784" lon="5.51728">
        <ele>1134.1</ele>
        <time>2021-09-07T08:58:49Z</time>
      </trkpt>
      <trkpt lat="44.49784" lon="5.51728">
        <ele>1134.1</ele>
        <time>2021-09-07T08:58:50Z</time>
      </trkpt>
      <trkpt lat="44.49784" lon="5.51728">
        <ele>1134.1</ele>
        <time>2021-09-07T08:58:51Z</time>
      </trkpt>
      <trkpt lat="44.49784" lon="5.51728">
        <ele>1134.1</ele>
        <time>2021-09-07T08:58:52Z</time>
      </trkpt>
      <trkpt lat="44.49784" lon="5.51728">
        <ele>1134.1</ele>
        <time>2021-09-07T08:58:53Z</time>
      </trkpt>
      <trkpt lat="44.49784" lon="5.51728">
        <ele>1134.1</ele>
        <time>2021-09-07T08:58:54Z</time>
      </trkpt>
      <trkpt lat="44.49784" lon="5.51728">
        <ele>1134.1</ele>
        <time>2021-09-07T08:58:55Z</time>
      </trkpt>
      <trkpt lat="44.49783" lon="5.51728">
        <ele>1134.2</ele>
        <time>2021-09-07T08:58:56Z</time>
      </trkpt>
      <trkpt lat="44.49783" lon="5.51728">
        <ele>1134.2</ele>
        <time>2021-09-07T08:58:57Z</time>
      </trkpt>
      <trkpt lat="44.49783" lon="5.51728">
        <ele>1134.2</ele>
        <time>2021-09-07T08:58:58Z</time>
      </trkpt>
      <trkpt lat="44.49783" lon="5.51727">
        <ele>1134.3</ele>
        <time>2021-09-07T08:58:59Z</time>
      </trkpt>
      <trkpt lat="44.49783" lon="5.51727">
        <ele>1134.3</ele>
        <time>2021-09-07T08:59:00Z</time>
      </trkpt>
      <trkpt lat="44.49783" lon="5.51727">
        <ele>1134.3</ele>
        <time>2021-09-07T08:59:01Z</time>
      </trkpt>
      <trkpt lat="44.49783" lon="5.51727">
        <ele>1134.3</ele>
        <time>2021-09-07T08:59:02Z</time>
      </trkpt>
      <trkpt lat="44.49784" lon="5.51727">
        <ele>1134.4</ele>
        <time>2021-09-07T08:59:03Z</time>
      </trkpt>
      <trkpt lat="44.49784" lon="5.51727">
        <ele>1134.4</ele>
        <time>2021-09-07T08:59:04Z</time>
      </trkpt>
      <trkpt lat="44.49784" lon="5.51727">
        <ele>1134.4</ele>
        <time>2021-09-07T08:59:05Z</time>
      </trkpt>
      <trkpt lat="44.49784" lon="5.51727">
        <ele>1134.4</ele>
        <time>2021-09-07T08:59:06Z</time>
      </trkpt>
      <trkpt lat="44.49783" lon="5.51727">
        <ele>1134.5</ele>
        <time>2021-09-07T08:59:07Z</time>
      </trkpt>
      <trkpt lat="44.49783" lon="5.51727">
        <ele>1134.5</ele>
        <time>2021-09-07T08:59:08Z</time>
      </trkpt>
      <trkpt lat="44.49783" lon="5.51727">
        <ele>1134.5</ele>
        <time>2021-09-07T08:59:09Z</time>
      </trkpt>
      <trkpt lat="44.49783" lon="5.51727">
        <ele>1134.5</ele>
        <time>2021-09-07T08:59:10Z</time>
      </trkpt>
      <trkpt lat="44.49783" lon="5.51727">
        <ele>1134.5</ele>
        <time>2021-09-07T08:59:11Z</time>
      </trkpt>
      <trkpt lat="44.49783" lon="5.51727">
        <ele>1134.5</ele>
        <time>2021-09-07T08:59:12Z</time>
      </trkpt>
      <trkpt lat="44.49783" lon="5.51727">
        <ele>1134.5</ele>
        <time>2021-09-07T08:59:13Z</time>
      </trkpt>
      <trkpt lat="44.49783" lon="5.51727">
        <ele>1134.5</ele>
        <time>2021-09-07T08:59:14Z</time>
      </trkpt>
      <trkpt lat="44.49783" lon="5.51727">
        <ele>1134.5</ele>
        <time>2021-09-07T08:59:15Z</time>
      </trkpt>
      <trkpt lat="44.49783" lon="5.51727">
        <ele>1134.5</ele>
        <time>2021-09-07T08:59:16Z</time>
      </trkpt>
      <trkpt lat="44.49783" lon="5.51727">
        <ele>1134.5</ele>
        <time>2021-09-07T08:59:17Z</time>
      </trkpt>
      <trkpt lat="44.49783" lon="5.51727">
        <ele>1134.5</ele>
        <time>2021-09-07T08:59:18Z</time>
      </trkpt>
      <trkpt lat="44.49783" lon="5.51727">
        <ele>1134.5</ele>
        <time>2021-09-07T08:59:19Z</time>
      </trkpt>
      <trkpt lat="44.49783" lon="5.51727">
        <ele>1134.5</ele>
        <time>2021-09-07T08:59:20Z</time>
      </trkpt>
      <trkpt lat="44.49784" lon="5.51727">
        <ele>1134.5</ele>
        <time>2021-09-07T08:59:21Z</time>
      </trkpt>
      <trkpt lat="44.49784" lon="5.51727">
        <ele>1134.6</ele>
        <time>2021-09-07T08:59:22Z</time>
      </trkpt>
      <trkpt lat="44.49784" lon="5.51727">
        <ele>1134.6</ele>
        <time>2021-09-07T08:59:23Z</time>
      </trkpt>
      <trkpt lat="44.49784" lon="5.51727">
        <ele>1134.6</ele>
        <time>2021-09-07T08:59:24Z</time>
      </trkpt>
      <trkpt lat="44.49784" lon="5.51727">
        <ele>1134.6</ele>
        <time>2021-09-07T08:59:25Z</time>
      </trkpt>
      <trkpt lat="44.49784" lon="5.51727">
        <ele>1134.6</ele>
        <time>2021-09-07T08:59:26Z</time>
      </trkpt>
      <trkpt lat="44.49784" lon="5.51727">
        <ele>1134.6</ele>
        <time>2021-09-07T08:59:27Z</time>
      </trkpt>
      <trkpt lat="44.49784" lon="5.51727">
        <ele>1134.6</ele>
        <time>2021-09-07T08:59:28Z</time>
      </trkpt>
      <trkpt lat="44.49784" lon="5.51727">
        <ele>1134.6</ele>
        <time>2021-09-07T08:59:29Z</time>
      </trkpt>
      <trkpt lat="44.49784" lon="5.51728">
        <ele>1134.7</ele>
        <time>2021-09-07T08:59:30Z</time>
      </trkpt>
      <trkpt lat="44.49784" lon="5.51728">
        <ele>1134.7</ele>
        <time>2021-09-07T08:59:31Z</time>
      </trkpt>
      <trkpt lat="44.49784" lon="5.51728">
        <ele>1134.7</ele>
        <time>2021-09-07T08:59:32Z</time>
      </trkpt>
      <trkpt lat="44.49784" lon="5.51728">
        <ele>1134.7</ele>
        <time>2021-09-07T08:59:33Z</time>
      </trkpt>
      <trkpt lat="44.49784" lon="5.51729">
        <ele>1134.7</ele>
        <time>2021-09-07T08:59:34Z</time>
      </trkpt>
      <trkpt lat="44.49784" lon="5.51729">
        <ele>1134.7</ele>
        <time>2021-09-07T08:59:35Z</time>
      </trkpt>
      <trkpt lat="44.49784" lon="5.51729">
        <ele>1134.7</ele>
        <time>2021-09-07T08:59:36Z</time>
      </trkpt>
      <trkpt lat="44.49784" lon="5.51729">
        <ele>1134.7</ele>
        <time>2021-09-07T08:59:37Z</time>
      </trkpt>
      <trkpt lat="44.49784" lon="5.51729">
        <ele>1134.7</ele>
        <time>2021-09-07T08:59:38Z</time>
      </trkpt>
      <trkpt lat="44.49784" lon="5.51729">
        <ele>1134.7</ele>
        <time>2021-09-07T08:59:39Z</time>
      </trkpt>
      <trkpt lat="44.49784" lon="5.51729">
        <ele>1134.7</ele>
        <time>2021-09-07T08:59:40Z</time>
      </trkpt>
      <trkpt lat="44.49784" lon="5.51729">
        <ele>1134.7</ele>
        <time>2021-09-07T08:59:41Z</time>
      </trkpt>
      <trkpt lat="44.49784" lon="5.51729">
        <ele>1134.8</ele>
        <time>2021-09-07T08:59:42Z</time>
      </trkpt>
      <trkpt lat="44.49783" lon="5.51729">
        <ele>1134.8</ele>
        <time>2021-09-07T08:59:43Z</time>
      </trkpt>
      <trkpt lat="44.49783" lon="5.51729">
        <ele>1134.8</ele>
        <time>2021-09-07T08:59:44Z</time>
      </trkpt>
      <trkpt lat="44.49783" lon="5.51729">
        <ele>1134.8</ele>
        <time>2021-09-07T08:59:45Z</time>
      </trkpt>
      <trkpt lat="44.49783" lon="5.51729">
        <ele>1134.8</ele>
        <time>2021-09-07T08:59:46Z</time>
      </trkpt>
      <trkpt lat="44.49783" lon="5.51729">
        <ele>1134.8</ele>
        <time>2021-09-07T08:59:47Z</time>
      </trkpt>
      <trkpt lat="44.49783" lon="5.51729">
        <ele>1134.8</ele>
        <time>2021-09-07T08:59:48Z</time>
      </trkpt>
      <trkpt lat="44.49783" lon="5.51729">
        <ele>1134.8</ele>
        <time>2021-09-07T08:59:49Z</time>
      </trkpt>
      <trkpt lat="44.49783" lon="5.51729">
        <ele>1134.8</ele>
        <time>2021-09-07T08:59:50Z</time>
      </trkpt>
      <trkpt lat="44.49783" lon="5.51729">
        <ele>1134.8</ele>
        <time>2021-09-07T08:59:51Z</time>
      </trkpt>
      <trkpt lat="44.49783" lon="5.51729">
        <ele>1134.8</ele>
        <time>2021-09-07T08:59:52Z</time>
      </trkpt>
      <trkpt lat="44.49783" lon="5.51729">
        <ele>1134.8</ele>
        <time>2021-09-07T08:59:53Z</time>
      </trkpt>
      <trkpt lat="44.49783" lon="5.51729">
        <ele>1134.8</ele>
        <time>2021-09-07T08:59:54Z</time>
      </trkpt>
      <trkpt lat="44.49783" lon="5.51729">
        <ele>1134.8</ele>
        <time>2021-09-07T08:59:55Z</time>
      </trkpt>
      <trkpt lat="44.49783" lon="5.51728">
        <ele>1134.9</ele>
        <time>2021-09-07T08:59:56Z</time>
      </trkpt>
      <trkpt lat="44.49783" lon="5.51728">
        <ele>1134.9</ele>
        <time>2021-09-07T08:59:57Z</time>
      </trkpt>
      <trkpt lat="44.49782" lon="5.51728">
        <ele>1135.1</ele>
        <time>2021-09-07T08:59:58Z</time>
      </trkpt>
      <trkpt lat="44.4978" lon="5.51728">
        <ele>1135.2</ele>
        <time>2021-09-07T08:59:59Z</time>
      </trkpt>
      <trkpt lat="44.49779" lon="5.51728">
        <ele>1135.3</ele>
        <time>2021-09-07T09:00:00Z</time>
      </trkpt>
      <trkpt lat="44.49778" lon="5.51728">
        <ele>1135.4</ele>
        <time>2021-09-07T09:00:01Z</time>
      </trkpt>
      <trkpt lat="44.49777" lon="5.51727">
        <ele>1135.5</ele>
        <time>2021-09-07T09:00:02Z</time>
      </trkpt>
      <trkpt lat="44.49777" lon="5.51727">
        <ele>1135.5</ele>
        <time>2021-09-07T09:00:03Z</time>
      </trkpt>
      <trkpt lat="44.49776" lon="5.51727">
        <ele>1135.5</ele>
        <time>2021-09-07T09:00:04Z</time>
      </trkpt>
      <trkpt lat="44.49775" lon="5.51726">
        <ele>1135.5</ele>
        <time>2021-09-07T09:00:05Z</time>
      </trkpt>
      <trkpt lat="44.49775" lon="5.51726">
        <ele>1135.5</ele>
        <time>2021-09-07T09:00:06Z</time>
      </trkpt>
      <trkpt lat="44.49775" lon="5.51726">
        <ele>1135.5</ele>
        <time>2021-09-07T09:00:07Z</time>
      </trkpt>
      <trkpt lat="44.49774" lon="5.51726">
        <ele>1135.5</ele>
        <time>2021-09-07T09:00:08Z</time>
      </trkpt>
      <trkpt lat="44.49774" lon="5.51726">
        <ele>1135.5</ele>
        <time>2021-09-07T09:00:09Z</time>
      </trkpt>
      <trkpt lat="44.49774" lon="5.51725">
        <ele>1135.6</ele>
        <time>2021-09-07T09:00:10Z</time>
      </trkpt>
      <trkpt lat="44.49774" lon="5.51725">
        <ele>1135.6</ele>
        <time>2021-09-07T09:00:11Z</time>
      </trkpt>
      <trkpt lat="44.49774" lon="5.51725">
        <ele>1135.6</ele>
        <time>2021-09-07T09:00:12Z</time>
      </trkpt>
      <trkpt lat="44.49774" lon="5.51725">
        <ele>1135.6</ele>
        <time>2021-09-07T09:00:13Z</time>
      </trkpt>
      <trkpt lat="44.49773" lon="5.51725">
        <ele>1135.6</ele>
        <time>2021-09-07T09:00:14Z</time>
      </trkpt>
      <trkpt lat="44.49773" lon="5.51725">
        <ele>1135.6</ele>
        <time>2021-09-07T09:00:15Z</time>
      </trkpt>
      <trkpt lat="44.49773" lon="5.51725">
        <ele>1135.6</ele>
        <time>2021-09-07T09:00:16Z</time>
      </trkpt>
      <trkpt lat="44.49773" lon="5.51725">
        <ele>1135.6</ele>
        <time>2021-09-07T09:00:17Z</time>
      </trkpt>
      <trkpt lat="44.49773" lon="5.51725">
        <ele>1135.6</ele>
        <time>2021-09-07T09:00:18Z</time>
      </trkpt>
      <trkpt lat="44.49773" lon="5.51725">
        <ele>1135.6</ele>
        <time>2021-09-07T09:00:19Z</time>
      </trkpt>
      <trkpt lat="44.49773" lon="5.51724">
        <ele>1135.6</ele>
        <time>2021-09-07T09:00:20Z</time>
      </trkpt>
      <trkpt lat="44.49773" lon="5.51724">
        <ele>1135.6</ele>
        <time>2021-09-07T09:00:21Z</time>
      </trkpt>
      <trkpt lat="44.49772" lon="5.51723">
        <ele>1135.6</ele>
        <time>2021-09-07T09:00:22Z</time>
      </trkpt>
      <trkpt lat="44.49771" lon="5.51723">
        <ele>1135.6</ele>
        <time>2021-09-07T09:00:23Z</time>
      </trkpt>
      <trkpt lat="44.4977" lon="5.51723">
        <ele>1135.6</ele>
        <time>2021-09-07T09:00:24Z</time>
      </trkpt>
      <trkpt lat="44.49769" lon="5.51723">
        <ele>1135.6</ele>
        <time>2021-09-07T09:00:25Z</time>
      </trkpt>
      <trkpt lat="44.49768" lon="5.51723">
        <ele>1135.6</ele>
        <time>2021-09-07T09:00:26Z</time>
      </trkpt>
      <trkpt lat="44.49767" lon="5.51723">
        <ele>1135.6</ele>
        <time>2021-09-07T09:00:27Z</time>
      </trkpt>
      <trkpt lat="44.49766" lon="5.51723">
        <ele>1135.6</ele>
        <time>2021-09-07T09:00:28Z</time>
      </trkpt>
      <trkpt lat="44.49765" lon="5.51722">
        <ele>1135.6</ele>
        <time>2021-09-07T09:00:29Z</time>
      </trkpt>
      <trkpt lat="44.49764" lon="5.51722">
        <ele>1135.6</ele>
        <time>2021-09-07T09:00:30Z</time>
      </trkpt>
      <trkpt lat="44.49764" lon="5.51722">
        <ele>1135.6</ele>
        <time>2021-09-07T09:00:31Z</time>
      </trkpt>
      <trkpt lat="44.49764" lon="5.51722">
        <ele>1135.6</ele>
        <time>2021-09-07T09:00:32Z</time>
      </trkpt>
      <trkpt lat="44.49764" lon="5.51722">
        <ele>1135.6</ele>
        <time>2021-09-07T09:00:33Z</time>
      </trkpt>
      <trkpt lat="44.49764" lon="5.51722">
        <ele>1135.5</ele>
        <time>2021-09-07T09:00:34Z</time>
      </trkpt>
      <trkpt lat="44.49763" lon="5.51722">
        <ele>1135.5</ele>
        <time>2021-09-07T09:00:35Z</time>
      </trkpt>
      <trkpt lat="44.49763" lon="5.51722">
        <ele>1135.5</ele>
        <time>2021-09-07T09:00:36Z</time>
      </trkpt>
      <trkpt lat="44.49763" lon="5.51722">
        <ele>1135.5</ele>
        <time>2021-09-07T09:00:37Z</time>
      </trkpt>
      <trkpt lat="44.49763" lon="5.51722">
        <ele>1135.5</ele>
        <time>2021-09-07T09:00:38Z</time>
      </trkpt>
      <trkpt lat="44.49763" lon="5.51722">
        <ele>1135.5</ele>
        <time>2021-09-07T09:00:39Z</time>
      </trkpt>
      <trkpt lat="44.49762" lon="5.51722">
        <ele>1135.5</ele>
        <time>2021-09-07T09:00:40Z</time>
      </trkpt>
      <trkpt lat="44.49762" lon="5.51722">
        <ele>1135.5</ele>
        <time>2021-09-07T09:00:41Z</time>
      </trkpt>
      <trkpt lat="44.49762" lon="5.51722">
        <ele>1135.5</ele>
        <time>2021-09-07T09:00:42Z</time>
      </trkpt>
      <trkpt lat="44.49762" lon="5.51722">
        <ele>1135.5</ele>
        <time>2021-09-07T09:00:43Z</time>
      </trkpt>
      <trkpt lat="44.49762" lon="5.51722">
        <ele>1135.5</ele>
        <time>2021-09-07T09:00:44Z</time>
      </trkpt>
      <trkpt lat="44.49762" lon="5.51722">
        <ele>1135.5</ele>
        <time>2021-09-07T09:00:45Z</time>
      </trkpt>
      <trkpt lat="44.49763" lon="5.51722">
        <ele>1135.5</ele>
        <time>2021-09-07T09:00:46Z</time>
      </trkpt>
      <trkpt lat="44.49763" lon="5.51721">
        <ele>1135.5</ele>
        <time>2021-09-07T09:00:47Z</time>
      </trkpt>
      <trkpt lat="44.49764" lon="5.5172">
        <ele>1135.5</ele>
        <time>2021-09-07T09:00:48Z</time>
      </trkpt>
      <trkpt lat="44.49765" lon="5.51719">
        <ele>1135.5</ele>
        <time>2021-09-07T09:00:49Z</time>
      </trkpt>
      <trkpt lat="44.49766" lon="5.51719">
        <ele>1135.4</ele>
        <time>2021-09-07T09:00:50Z</time>
      </trkpt>
      <trkpt lat="44.49768" lon="5.51718">
        <ele>1135.4</ele>
        <time>2021-09-07T09:00:51Z</time>
      </trkpt>
      <trkpt lat="44.49769" lon="5.51717">
        <ele>1135.4</ele>
        <time>2021-09-07T09:00:52Z</time>
      </trkpt>
      <trkpt lat="44.4977" lon="5.51717">
        <ele>1135.4</ele>
        <time>2021-09-07T09:00:53Z</time>
      </trkpt>
      <trkpt lat="44.49771" lon="5.51716">
        <ele>1135.4</ele>
        <time>2021-09-07T09:00:54Z</time>
      </trkpt>
      <trkpt lat="44.49772" lon="5.51714">
        <ele>1135.3</ele>
        <time>2021-09-07T09:00:55Z</time>
      </trkpt>
      <trkpt lat="44.49773" lon="5.51712">
        <ele>1135.3</ele>
        <time>2021-09-07T09:00:56Z</time>
      </trkpt>
      <trkpt lat="44.49773" lon="5.5171">
        <ele>1135.3</ele>
        <time>2021-09-07T09:00:57Z</time>
      </trkpt>
      <trkpt lat="44.49774" lon="5.51708">
        <ele>1135.3</ele>
        <time>2021-09-07T09:00:58Z</time>
      </trkpt>
      <trkpt lat="44.49774" lon="5.51706">
        <ele>1135.3</ele>
        <time>2021-09-07T09:00:59Z</time>
      </trkpt>
      <trkpt lat="44.49776" lon="5.51703">
        <ele>1135.3</ele>
        <time>2021-09-07T09:01:00Z</time>
      </trkpt>
      <trkpt lat="44.49777" lon="5.517">
        <ele>1135.3</ele>
        <time>2021-09-07T09:01:01Z</time>
      </trkpt>
      <trkpt lat="44.49778" lon="5.51697">
        <ele>1135.3</ele>
        <time>2021-09-07T09:01:02Z</time>
      </trkpt>
      <trkpt lat="44.49779" lon="5.51693">
        <ele>1135.3</ele>
        <time>2021-09-07T09:01:03Z</time>
      </trkpt>
      <trkpt lat="44.49779" lon="5.51682">
        <ele>1135.3</ele>
        <time>2021-09-07T09:01:04Z</time>
      </trkpt>
      <trkpt lat="44.4978" lon="5.51678">
        <ele>1135.3</ele>
        <time>2021-09-07T09:01:05Z</time>
      </trkpt>
      <trkpt lat="44.4978" lon="5.51674">
        <ele>1135.3</ele>
        <time>2021-09-07T09:01:06Z</time>
      </trkpt>
      <trkpt lat="44.49779" lon="5.5167">
        <ele>1135.3</ele>
        <time>2021-09-07T09:01:07Z</time>
      </trkpt>
      <trkpt lat="44.49778" lon="5.51666">
        <ele>1135.4</ele>
        <time>2021-09-07T09:01:08Z</time>
      </trkpt>
      <trkpt lat="44.49777" lon="5.51662">
        <ele>1135.4</ele>
        <time>2021-09-07T09:01:09Z</time>
      </trkpt>
      <trkpt lat="44.49776" lon="5.5166">
        <ele>1135.5</ele>
        <time>2021-09-07T09:01:10Z</time>
      </trkpt>
      <trkpt lat="44.49775" lon="5.51657">
        <ele>1135.5</ele>
        <time>2021-09-07T09:01:11Z</time>
      </trkpt>
      <trkpt lat="44.49774" lon="5.51652">
        <ele>1135.6</ele>
        <time>2021-09-07T09:01:12Z</time>
      </trkpt>
      <trkpt lat="44.49774" lon="5.51649">
        <ele>1135.7</ele>
        <time>2021-09-07T09:01:13Z</time>
      </trkpt>
      <trkpt lat="44.49773" lon="5.51645">
        <ele>1135.7</ele>
        <time>2021-09-07T09:01:14Z</time>
      </trkpt>
      <trkpt lat="44.49773" lon="5.51643">
        <ele>1135.8</ele>
        <time>2021-09-07T09:01:15Z</time>
      </trkpt>
      <trkpt lat="44.49773" lon="5.51641">
        <ele>1135.8</ele>
        <time>2021-09-07T09:01:16Z</time>
      </trkpt>
      <trkpt lat="44.49773" lon="5.51638">
        <ele>1135.9</ele>
        <time>2021-09-07T09:01:17Z</time>
      </trkpt>
      <trkpt lat="44.49775" lon="5.51633">
        <ele>1136.1</ele>
        <time>2021-09-07T09:01:18Z</time>
      </trkpt>
      <trkpt lat="44.49776" lon="5.5163">
        <ele>1136.2</ele>
        <time>2021-09-07T09:01:19Z</time>
      </trkpt>
      <trkpt lat="44.49777" lon="5.51629">
        <ele>1136.3</ele>
        <time>2021-09-07T09:01:20Z</time>
      </trkpt>
      <trkpt lat="44.49777" lon="5.51627">
        <ele>1136.3</ele>
        <time>2021-09-07T09:01:21Z</time>
      </trkpt>
      <trkpt lat="44.49778" lon="5.51624">
        <ele>1136.5</ele>
        <time>2021-09-07T09:01:22Z</time>
      </trkpt>
      <trkpt lat="44.49779" lon="5.5162">
        <ele>1136.6</ele>
        <time>2021-09-07T09:01:23Z</time>
      </trkpt>
      <trkpt lat="44.4978" lon="5.51619">
        <ele>1136.7</ele>
        <time>2021-09-07T09:01:24Z</time>
      </trkpt>
      <trkpt lat="44.49781" lon="5.51617">
        <ele>1136.8</ele>
        <time>2021-09-07T09:01:25Z</time>
      </trkpt>
      <trkpt lat="44.49782" lon="5.51616">
        <ele>1136.9</ele>
        <time>2021-09-07T09:01:26Z</time>
      </trkpt>
      <trkpt lat="44.49784" lon="5.51616">
        <ele>1137</ele>
        <time>2021-09-07T09:01:27Z</time>
      </trkpt>
      <trkpt lat="44.49786" lon="5.51615">
        <ele>1137.1</ele>
        <time>2021-09-07T09:01:28Z</time>
      </trkpt>
      <trkpt lat="44.49787" lon="5.51612">
        <ele>1137.2</ele>
        <time>2021-09-07T09:01:29Z</time>
      </trkpt>
      <trkpt lat="44.49788" lon="5.51607">
        <ele>1137.4</ele>
        <time>2021-09-07T09:01:30Z</time>
      </trkpt>
      <trkpt lat="44.49787" lon="5.51605">
        <ele>1137.5</ele>
        <time>2021-09-07T09:01:31Z</time>
      </trkpt>
      <trkpt lat="44.49787" lon="5.51602">
        <ele>1137.6</ele>
        <time>2021-09-07T09:01:32Z</time>
      </trkpt>
      <trkpt lat="44.49788" lon="5.516">
        <ele>1137.7</ele>
        <time>2021-09-07T09:01:33Z</time>
      </trkpt>
      <trkpt lat="44.49788" lon="5.51597">
        <ele>1137.8</ele>
        <time>2021-09-07T09:01:34Z</time>
      </trkpt>
      <trkpt lat="44.49789" lon="5.51594">
        <ele>1137.9</ele>
        <time>2021-09-07T09:01:35Z</time>
      </trkpt>
      <trkpt lat="44.49789" lon="5.51592">
        <ele>1138</ele>
        <time>2021-09-07T09:01:36Z</time>
      </trkpt>
      <trkpt lat="44.49789" lon="5.51589">
        <ele>1138.1</ele>
        <time>2021-09-07T09:01:37Z</time>
      </trkpt>
      <trkpt lat="44.49789" lon="5.51587">
        <ele>1138.2</ele>
        <time>2021-09-07T09:01:38Z</time>
      </trkpt>
      <trkpt lat="44.49789" lon="5.51584">
        <ele>1138.3</ele>
        <time>2021-09-07T09:01:39Z</time>
      </trkpt>
      <trkpt lat="44.49788" lon="5.51583">
        <ele>1138.3</ele>
        <time>2021-09-07T09:01:40Z</time>
      </trkpt>
      <trkpt lat="44.49788" lon="5.51581">
        <ele>1138.4</ele>
        <time>2021-09-07T09:01:41Z</time>
      </trkpt>
      <trkpt lat="44.49788" lon="5.5158">
        <ele>1138.4</ele>
        <time>2021-09-07T09:01:42Z</time>
      </trkpt>
      <trkpt lat="44.49789" lon="5.51579">
        <ele>1138.5</ele>
        <time>2021-09-07T09:01:43Z</time>
      </trkpt>
      <trkpt lat="44.4979" lon="5.51577">
        <ele>1138.6</ele>
        <time>2021-09-07T09:01:44Z</time>
      </trkpt>
      <trkpt lat="44.49791" lon="5.51576">
        <ele>1138.6</ele>
        <time>2021-09-07T09:01:45Z</time>
      </trkpt>
      <trkpt lat="44.49791" lon="5.51574">
        <ele>1138.7</ele>
        <time>2021-09-07T09:01:46Z</time>
      </trkpt>
      <trkpt lat="44.49792" lon="5.51572">
        <ele>1138.8</ele>
        <time>2021-09-07T09:01:47Z</time>
      </trkpt>
      <trkpt lat="44.49792" lon="5.5157">
        <ele>1138.8</ele>
        <time>2021-09-07T09:01:48Z</time>
      </trkpt>
      <trkpt lat="44.49793" lon="5.51567">
        <ele>1139</ele>
        <time>2021-09-07T09:01:49Z</time>
      </trkpt>
      <trkpt lat="44.49793" lon="5.51564">
        <ele>1139.1</ele>
        <time>2021-09-07T09:01:50Z</time>
      </trkpt>
      <trkpt lat="44.49794" lon="5.51561">
        <ele>1139.2</ele>
        <time>2021-09-07T09:01:51Z</time>
      </trkpt>
      <trkpt lat="44.49794" lon="5.51558">
        <ele>1139.3</ele>
        <time>2021-09-07T09:01:52Z</time>
      </trkpt>
      <trkpt lat="44.49793" lon="5.51555">
        <ele>1139.4</ele>
        <time>2021-09-07T09:01:53Z</time>
      </trkpt>
      <trkpt lat="44.49792" lon="5.51552">
        <ele>1139.5</ele>
        <time>2021-09-07T09:01:54Z</time>
      </trkpt>
      <trkpt lat="44.49791" lon="5.51549">
        <ele>1139.6</ele>
        <time>2021-09-07T09:01:55Z</time>
      </trkpt>
      <trkpt lat="44.49791" lon="5.51547">
        <ele>1139.7</ele>
        <time>2021-09-07T09:01:56Z</time>
      </trkpt>
      <trkpt lat="44.4979" lon="5.51544">
        <ele>1139.8</ele>
        <time>2021-09-07T09:01:57Z</time>
      </trkpt>
      <trkpt lat="44.49791" lon="5.51541">
        <ele>1140</ele>
        <time>2021-09-07T09:01:58Z</time>
      </trkpt>
      <trkpt lat="44.4979" lon="5.5154">
        <ele>1140</ele>
        <time>2021-09-07T09:01:59Z</time>
      </trkpt>
      <trkpt lat="44.49789" lon="5.51538">
        <ele>1140.1</ele>
        <time>2021-09-07T09:02:00Z</time>
      </trkpt>
      <trkpt lat="44.49788" lon="5.51534">
        <ele>1140.3</ele>
        <time>2021-09-07T09:02:01Z</time>
      </trkpt>
      <trkpt lat="44.49787" lon="5.51532">
        <ele>1140.3</ele>
        <time>2021-09-07T09:02:02Z</time>
      </trkpt>
      <trkpt lat="44.49787" lon="5.5153">
        <ele>1140.4</ele>
        <time>2021-09-07T09:02:03Z</time>
      </trkpt>
      <trkpt lat="44.49787" lon="5.51527">
        <ele>1140.5</ele>
        <time>2021-09-07T09:02:04Z</time>
      </trkpt>
      <trkpt lat="44.49785" lon="5.51526">
        <ele>1140.6</ele>
        <time>2021-09-07T09:02:05Z</time>
      </trkpt>
      <trkpt lat="44.49784" lon="5.51526">
        <ele>1140.6</ele>
        <time>2021-09-07T09:02:06Z</time>
      </trkpt>
      <trkpt lat="44.49783" lon="5.51525">
        <ele>1140.7</ele>
        <time>2021-09-07T09:02:07Z</time>
      </trkpt>
      <trkpt lat="44.49782" lon="5.51525">
        <ele>1140.7</ele>
        <time>2021-09-07T09:02:08Z</time>
      </trkpt>
      <trkpt lat="44.49781" lon="5.51525">
        <ele>1140.7</ele>
        <time>2021-09-07T09:02:09Z</time>
      </trkpt>
      <trkpt lat="44.4978" lon="5.51524">
        <ele>1140.8</ele>
        <time>2021-09-07T09:02:10Z</time>
      </trkpt>
      <trkpt lat="44.49779" lon="5.51523">
        <ele>1140.8</ele>
        <time>2021-09-07T09:02:11Z</time>
      </trkpt>
      <trkpt lat="44.49777" lon="5.51522">
        <ele>1140.9</ele>
        <time>2021-09-07T09:02:12Z</time>
      </trkpt>
      <trkpt lat="44.49775" lon="5.51521">
        <ele>1141</ele>
        <time>2021-09-07T09:02:13Z</time>
      </trkpt>
      <trkpt lat="44.49774" lon="5.51521">
        <ele>1141</ele>
        <time>2021-09-07T09:02:14Z</time>
      </trkpt>
      <trkpt lat="44.49773" lon="5.51521">
        <ele>1141</ele>
        <time>2021-09-07T09:02:15Z</time>
      </trkpt>
      <trkpt lat="44.49771" lon="5.5152">
        <ele>1141.1</ele>
        <time>2021-09-07T09:02:16Z</time>
      </trkpt>
      <trkpt lat="44.49769" lon="5.51518">
        <ele>1141.2</ele>
        <time>2021-09-07T09:02:17Z</time>
      </trkpt>
      <trkpt lat="44.49767" lon="5.51516">
        <ele>1141.3</ele>
        <time>2021-09-07T09:02:18Z</time>
      </trkpt>
      <trkpt lat="44.49766" lon="5.51513">
        <ele>1141.4</ele>
        <time>2021-09-07T09:02:19Z</time>
      </trkpt>
      <trkpt lat="44.49765" lon="5.51511">
        <ele>1141.5</ele>
        <time>2021-09-07T09:02:20Z</time>
      </trkpt>
      <trkpt lat="44.49764" lon="5.5151">
        <ele>1141.5</ele>
        <time>2021-09-07T09:02:21Z</time>
      </trkpt>
      <trkpt lat="44.49763" lon="5.51509">
        <ele>1141.6</ele>
        <time>2021-09-07T09:02:22Z</time>
      </trkpt>
      <trkpt lat="44.49762" lon="5.51507">
        <ele>1141.7</ele>
        <time>2021-09-07T09:02:23Z</time>
      </trkpt>
      <trkpt lat="44.49762" lon="5.51506">
        <ele>1141.7</ele>
        <time>2021-09-07T09:02:24Z</time>
      </trkpt>
      <trkpt lat="44.49762" lon="5.51504">
        <ele>1141.8</ele>
        <time>2021-09-07T09:02:25Z</time>
      </trkpt>
      <trkpt lat="44.49762" lon="5.51504">
        <ele>1141.8</ele>
        <time>2021-09-07T09:02:26Z</time>
      </trkpt>
      <trkpt lat="44.49762" lon="5.51503">
        <ele>1141.8</ele>
        <time>2021-09-07T09:02:27Z</time>
      </trkpt>
      <trkpt lat="44.49762" lon="5.51502">
        <ele>1141.9</ele>
        <time>2021-09-07T09:02:28Z</time>
      </trkpt>
      <trkpt lat="44.49762" lon="5.51501">
        <ele>1141.9</ele>
        <time>2021-09-07T09:02:29Z</time>
      </trkpt>
      <trkpt lat="44.49763" lon="5.51501">
        <ele>1141.9</ele>
        <time>2021-09-07T09:02:30Z</time>
      </trkpt>
      <trkpt lat="44.49763" lon="5.515">
        <ele>1142</ele>
        <time>2021-09-07T09:02:31Z</time>
      </trkpt>
      <trkpt lat="44.49762" lon="5.51499">
        <ele>1142</ele>
        <time>2021-09-07T09:02:32Z</time>
      </trkpt>
      <trkpt lat="44.49761" lon="5.51498">
        <ele>1142.1</ele>
        <time>2021-09-07T09:02:33Z</time>
      </trkpt>
      <trkpt lat="44.4976" lon="5.51497">
        <ele>1142.2</ele>
        <time>2021-09-07T09:02:34Z</time>
      </trkpt>
      <trkpt lat="44.49759" lon="5.51496">
        <ele>1142.2</ele>
        <time>2021-09-07T09:02:35Z</time>
      </trkpt>
      <trkpt lat="44.49758" lon="5.51494">
        <ele>1142.3</ele>
        <time>2021-09-07T09:02:36Z</time>
      </trkpt>
      <trkpt lat="44.49757" lon="5.51493">
        <ele>1142.4</ele>
        <time>2021-09-07T09:02:37Z</time>
      </trkpt>
      <trkpt lat="44.49756" lon="5.51491">
        <ele>1142.5</ele>
        <time>2021-09-07T09:02:38Z</time>
      </trkpt>
      <trkpt lat="44.49756" lon="5.5149">
        <ele>1142.6</ele>
        <time>2021-09-07T09:02:39Z</time>
      </trkpt>
      <trkpt lat="44.49755" lon="5.51489">
        <ele>1142.6</ele>
        <time>2021-09-07T09:02:40Z</time>
      </trkpt>
      <trkpt lat="44.49754" lon="5.51488">
        <ele>1142.7</ele>
        <time>2021-09-07T09:02:41Z</time>
      </trkpt>
      <trkpt lat="44.49753" lon="5.51486">
        <ele>1142.8</ele>
        <time>2021-09-07T09:02:42Z</time>
      </trkpt>
      <trkpt lat="44.49752" lon="5.51484">
        <ele>1142.9</ele>
        <time>2021-09-07T09:02:43Z</time>
      </trkpt>
      <trkpt lat="44.49752" lon="5.51482">
        <ele>1143.1</ele>
        <time>2021-09-07T09:02:44Z</time>
      </trkpt>
      <trkpt lat="44.49751" lon="5.5148">
        <ele>1143.2</ele>
        <time>2021-09-07T09:02:45Z</time>
      </trkpt>
      <trkpt lat="44.4975" lon="5.51478">
        <ele>1143.3</ele>
        <time>2021-09-07T09:02:46Z</time>
      </trkpt>
      <trkpt lat="44.4975" lon="5.51476">
        <ele>1143.5</ele>
        <time>2021-09-07T09:02:47Z</time>
      </trkpt>
      <trkpt lat="44.49749" lon="5.51475">
        <ele>1143.6</ele>
        <time>2021-09-07T09:02:48Z</time>
      </trkpt>
      <trkpt lat="44.49748" lon="5.51474">
        <ele>1143.7</ele>
        <time>2021-09-07T09:02:49Z</time>
      </trkpt>
      <trkpt lat="44.49747" lon="5.51472">
        <ele>1143.9</ele>
        <time>2021-09-07T09:02:50Z</time>
      </trkpt>
      <trkpt lat="44.49746" lon="5.51472">
        <ele>1144</ele>
        <time>2021-09-07T09:02:51Z</time>
      </trkpt>
      <trkpt lat="44.49745" lon="5.51471">
        <ele>1144.1</ele>
        <time>2021-09-07T09:02:52Z</time>
      </trkpt>
      <trkpt lat="44.49745" lon="5.51471">
        <ele>1144.1</ele>
        <time>2021-09-07T09:02:53Z</time>
      </trkpt>
      <trkpt lat="44.49744" lon="5.51471">
        <ele>1144.3</ele>
        <time>2021-09-07T09:02:54Z</time>
      </trkpt>
      <trkpt lat="44.49743" lon="5.5147">
        <ele>1144.4</ele>
        <time>2021-09-07T09:02:55Z</time>
      </trkpt>
      <trkpt lat="44.49743" lon="5.5147">
        <ele>1144.4</ele>
        <time>2021-09-07T09:02:56Z</time>
      </trkpt>
      <trkpt lat="44.49743" lon="5.5147">
        <ele>1144.4</ele>
        <time>2021-09-07T09:02:57Z</time>
      </trkpt>
      <trkpt lat="44.49743" lon="5.51469">
        <ele>1144.5</ele>
        <time>2021-09-07T09:02:58Z</time>
      </trkpt>
      <trkpt lat="44.49743" lon="5.51469">
        <ele>1144.5</ele>
        <time>2021-09-07T09:02:59Z</time>
      </trkpt>
      <trkpt lat="44.49743" lon="5.51469">
        <ele>1144.5</ele>
        <time>2021-09-07T09:03:00Z</time>
      </trkpt>
      <trkpt lat="44.49743" lon="5.51469">
        <ele>1144.5</ele>
        <time>2021-09-07T09:03:01Z</time>
      </trkpt>
      <trkpt lat="44.49742" lon="5.51469">
        <ele>1144.6</ele>
        <time>2021-09-07T09:03:02Z</time>
      </trkpt>
      <trkpt lat="44.49742" lon="5.51469">
        <ele>1144.6</ele>
        <time>2021-09-07T09:03:03Z</time>
      </trkpt>
      <trkpt lat="44.49742" lon="5.51469">
        <ele>1144.6</ele>
        <time>2021-09-07T09:03:04Z</time>
      </trkpt>
      <trkpt lat="44.49742" lon="5.51469">
        <ele>1144.6</ele>
        <time>2021-09-07T09:03:05Z</time>
      </trkpt>
      <trkpt lat="44.49742" lon="5.51469">
        <ele>1144.6</ele>
        <time>2021-09-07T09:03:06Z</time>
      </trkpt>
      <trkpt lat="44.49742" lon="5.51469">
        <ele>1144.6</ele>
        <time>2021-09-07T09:03:07Z</time>
      </trkpt>
      <trkpt lat="44.49742" lon="5.51469">
        <ele>1144.6</ele>
        <time>2021-09-07T09:03:08Z</time>
      </trkpt>
      <trkpt lat="44.49742" lon="5.5147">
        <ele>1144.7</ele>
        <time>2021-09-07T09:03:09Z</time>
      </trkpt>
      <trkpt lat="44.49742" lon="5.5147">
        <ele>1144.7</ele>
        <time>2021-09-07T09:03:10Z</time>
      </trkpt>
      <trkpt lat="44.49742" lon="5.5147">
        <ele>1144.7</ele>
        <time>2021-09-07T09:03:11Z</time>
      </trkpt>
      <trkpt lat="44.49742" lon="5.5147">
        <ele>1144.7</ele>
        <time>2021-09-07T09:03:12Z</time>
      </trkpt>
      <trkpt lat="44.49742" lon="5.5147">
        <ele>1144.7</ele>
        <time>2021-09-07T09:03:13Z</time>
      </trkpt>
      <trkpt lat="44.49742" lon="5.5147">
        <ele>1144.7</ele>
        <time>2021-09-07T09:03:14Z</time>
      </trkpt>
      <trkpt lat="44.49742" lon="5.5147">
        <ele>1144.7</ele>
        <time>2021-09-07T09:03:15Z</time>
      </trkpt>
      <trkpt lat="44.49742" lon="5.51469">
        <ele>1144.8</ele>
        <time>2021-09-07T09:03:16Z</time>
      </trkpt>
      <trkpt lat="44.49742" lon="5.51469">
        <ele>1144.8</ele>
        <time>2021-09-07T09:03:17Z</time>
      </trkpt>
      <trkpt lat="44.49742" lon="5.51469">
        <ele>1144.8</ele>
        <time>2021-09-07T09:03:18Z</time>
      </trkpt>
      <trkpt lat="44.49741" lon="5.51469">
        <ele>1145</ele>
        <time>2021-09-07T09:03:19Z</time>
      </trkpt>
      <trkpt lat="44.4974" lon="5.51468">
        <ele>1145.2</ele>
        <time>2021-09-07T09:03:20Z</time>
      </trkpt>
      <trkpt lat="44.49739" lon="5.51468">
        <ele>1145.3</ele>
        <time>2021-09-07T09:03:21Z</time>
      </trkpt>
      <trkpt lat="44.49738" lon="5.51467">
        <ele>1145.5</ele>
        <time>2021-09-07T09:03:22Z</time>
      </trkpt>
      <trkpt lat="44.49738" lon="5.51467">
        <ele>1145.5</ele>
        <time>2021-09-07T09:03:23Z</time>
      </trkpt>
      <trkpt lat="44.49737" lon="5.51466">
        <ele>1145.7</ele>
        <time>2021-09-07T09:03:24Z</time>
      </trkpt>
      <trkpt lat="44.49736" lon="5.51465">
        <ele>1145.9</ele>
        <time>2021-09-07T09:03:25Z</time>
      </trkpt>
      <trkpt lat="44.49736" lon="5.51465">
        <ele>1145.9</ele>
        <time>2021-09-07T09:03:26Z</time>
      </trkpt>
      <trkpt lat="44.49735" lon="5.51465">
        <ele>1146.1</ele>
        <time>2021-09-07T09:03:27Z</time>
      </trkpt>
      <trkpt lat="44.49735" lon="5.51464">
        <ele>1146.2</ele>
        <time>2021-09-07T09:03:28Z</time>
      </trkpt>
      <trkpt lat="44.49735" lon="5.51464">
        <ele>1146.2</ele>
        <time>2021-09-07T09:03:29Z</time>
      </trkpt>
      <trkpt lat="44.49735" lon="5.51464">
        <ele>1146.2</ele>
        <time>2021-09-07T09:03:30Z</time>
      </trkpt>
      <trkpt lat="44.49735" lon="5.51464">
        <ele>1146.3</ele>
        <time>2021-09-07T09:03:31Z</time>
      </trkpt>
      <trkpt lat="44.49734" lon="5.51464">
        <ele>1146.4</ele>
        <time>2021-09-07T09:03:32Z</time>
      </trkpt>
      <trkpt lat="44.49734" lon="5.51464">
        <ele>1146.4</ele>
        <time>2021-09-07T09:03:33Z</time>
      </trkpt>
      <trkpt lat="44.49734" lon="5.51464">
        <ele>1146.4</ele>
        <time>2021-09-07T09:03:34Z</time>
      </trkpt>
      <trkpt lat="44.49734" lon="5.51464">
        <ele>1146.4</ele>
        <time>2021-09-07T09:03:35Z</time>
      </trkpt>
      <trkpt lat="44.49734" lon="5.51464">
        <ele>1146.4</ele>
        <time>2021-09-07T09:03:36Z</time>
      </trkpt>
      <trkpt lat="44.49734" lon="5.51464">
        <ele>1146.4</ele>
        <time>2021-09-07T09:03:37Z</time>
      </trkpt>
      <trkpt lat="44.49734" lon="5.51465">
        <ele>1146.4</ele>
        <time>2021-09-07T09:03:38Z</time>
      </trkpt>
      <trkpt lat="44.49734" lon="5.51465">
        <ele>1146.5</ele>
        <time>2021-09-07T09:03:39Z</time>
      </trkpt>
      <trkpt lat="44.49733" lon="5.51464">
        <ele>1146.7</ele>
        <time>2021-09-07T09:03:40Z</time>
      </trkpt>
      <trkpt lat="44.49733" lon="5.51464">
        <ele>1146.7</ele>
        <time>2021-09-07T09:03:41Z</time>
      </trkpt>
      <trkpt lat="44.49733" lon="5.51464">
        <ele>1146.7</ele>
        <time>2021-09-07T09:03:42Z</time>
      </trkpt>
      <trkpt lat="44.49733" lon="5.51464">
        <ele>1146.7</ele>
        <time>2021-09-07T09:03:43Z</time>
      </trkpt>
      <trkpt lat="44.49733" lon="5.51464">
        <ele>1146.7</ele>
        <time>2021-09-07T09:03:44Z</time>
      </trkpt>
      <trkpt lat="44.49733" lon="5.51464">
        <ele>1146.8</ele>
        <time>2021-09-07T09:03:45Z</time>
      </trkpt>
      <trkpt lat="44.49732" lon="5.51463">
        <ele>1146.9</ele>
        <time>2021-09-07T09:03:46Z</time>
      </trkpt>
      <trkpt lat="44.49732" lon="5.51463">
        <ele>1146.9</ele>
        <time>2021-09-07T09:03:47Z</time>
      </trkpt>
      <trkpt lat="44.49731" lon="5.51463">
        <ele>1147.1</ele>
        <time>2021-09-07T09:03:48Z</time>
      </trkpt>
      <trkpt lat="44.4973" lon="5.51463">
        <ele>1147.3</ele>
        <time>2021-09-07T09:03:49Z</time>
      </trkpt>
      <trkpt lat="44.49729" lon="5.51462">
        <ele>1147.5</ele>
        <time>2021-09-07T09:03:50Z</time>
      </trkpt>
      <trkpt lat="44.49729" lon="5.51462">
        <ele>1147.5</ele>
        <time>2021-09-07T09:03:51Z</time>
      </trkpt>
      <trkpt lat="44.49729" lon="5.51462">
        <ele>1147.5</ele>
        <time>2021-09-07T09:03:52Z</time>
      </trkpt>
      <trkpt lat="44.49729" lon="5.51462">
        <ele>1147.5</ele>
        <time>2021-09-07T09:03:53Z</time>
      </trkpt>
      <trkpt lat="44.49729" lon="5.51462">
        <ele>1147.5</ele>
        <time>2021-09-07T09:03:54Z</time>
      </trkpt>
      <trkpt lat="44.49729" lon="5.51462">
        <ele>1147.5</ele>
        <time>2021-09-07T09:03:55Z</time>
      </trkpt>
      <trkpt lat="44.49728" lon="5.51462">
        <ele>1147.7</ele>
        <time>2021-09-07T09:03:56Z</time>
      </trkpt>
      <trkpt lat="44.49728" lon="5.51462">
        <ele>1147.8</ele>
        <time>2021-09-07T09:03:57Z</time>
      </trkpt>
      <trkpt lat="44.49728" lon="5.51461">
        <ele>1147.8</ele>
        <time>2021-09-07T09:03:58Z</time>
      </trkpt>
      <trkpt lat="44.49728" lon="5.51461">
        <ele>1147.8</ele>
        <time>2021-09-07T09:03:59Z</time>
      </trkpt>
      <trkpt lat="44.49728" lon="5.51461">
        <ele>1147.8</ele>
        <time>2021-09-07T09:04:00Z</time>
      </trkpt>
      <trkpt lat="44.49729" lon="5.5146">
        <ele>1148.1</ele>
        <time>2021-09-07T09:04:01Z</time>
      </trkpt>
      <trkpt lat="44.49729" lon="5.51458">
        <ele>1148.3</ele>
        <time>2021-09-07T09:04:02Z</time>
      </trkpt>
      <trkpt lat="44.49729" lon="5.51455">
        <ele>1148.7</ele>
        <time>2021-09-07T09:04:03Z</time>
      </trkpt>
      <trkpt lat="44.4973" lon="5.51453">
        <ele>1149</ele>
        <time>2021-09-07T09:04:04Z</time>
      </trkpt>
      <trkpt lat="44.49731" lon="5.51452">
        <ele>1149.2</ele>
        <time>2021-09-07T09:04:05Z</time>
      </trkpt>
      <trkpt lat="44.49731" lon="5.5145">
        <ele>1149.4</ele>
        <time>2021-09-07T09:04:06Z</time>
      </trkpt>
      <trkpt lat="44.49732" lon="5.51449">
        <ele>1149.6</ele>
        <time>2021-09-07T09:04:07Z</time>
      </trkpt>
      <trkpt lat="44.49734" lon="5.51448">
        <ele>1150</ele>
        <time>2021-09-07T09:04:08Z</time>
      </trkpt>
      <trkpt lat="44.49735" lon="5.51448">
        <ele>1150.1</ele>
        <time>2021-09-07T09:04:09Z</time>
      </trkpt>
      <trkpt lat="44.49735" lon="5.51447">
        <ele>1150.2</ele>
        <time>2021-09-07T09:04:10Z</time>
      </trkpt>
      <trkpt lat="44.49736" lon="5.51447">
        <ele>1150.4</ele>
        <time>2021-09-07T09:04:11Z</time>
      </trkpt>
      <trkpt lat="44.49736" lon="5.51446">
        <ele>1150.5</ele>
        <time>2021-09-07T09:04:12Z</time>
      </trkpt>
      <trkpt lat="44.49736" lon="5.51446">
        <ele>1150.5</ele>
        <time>2021-09-07T09:04:13Z</time>
      </trkpt>
      <trkpt lat="44.49736" lon="5.51446">
        <ele>1150.5</ele>
        <time>2021-09-07T09:04:14Z</time>
      </trkpt>
      <trkpt lat="44.49737" lon="5.51446">
        <ele>1150.6</ele>
        <time>2021-09-07T09:04:15Z</time>
      </trkpt>
      <trkpt lat="44.49737" lon="5.51445">
        <ele>1150.7</ele>
        <time>2021-09-07T09:04:16Z</time>
      </trkpt>
      <trkpt lat="44.49737" lon="5.51445">
        <ele>1150.7</ele>
        <time>2021-09-07T09:04:17Z</time>
      </trkpt>
      <trkpt lat="44.49737" lon="5.51445">
        <ele>1150.7</ele>
        <time>2021-09-07T09:04:18Z</time>
      </trkpt>
      <trkpt lat="44.49737" lon="5.51445">
        <ele>1150.7</ele>
        <time>2021-09-07T09:04:19Z</time>
      </trkpt>
      <trkpt lat="44.49737" lon="5.51445">
        <ele>1150.7</ele>
        <time>2021-09-07T09:04:20Z</time>
      </trkpt>
      <trkpt lat="44.49738" lon="5.51445">
        <ele>1150.8</ele>
        <time>2021-09-07T09:04:21Z</time>
      </trkpt>
      <trkpt lat="44.49738" lon="5.51444">
        <ele>1150.9</ele>
        <time>2021-09-07T09:04:22Z</time>
      </trkpt>
      <trkpt lat="44.49738" lon="5.51444">
        <ele>1150.9</ele>
        <time>2021-09-07T09:04:23Z</time>
      </trkpt>
      <trkpt lat="44.49738" lon="5.51444">
        <ele>1150.9</ele>
        <time>2021-09-07T09:04:24Z</time>
      </trkpt>
      <trkpt lat="44.49738" lon="5.51444">
        <ele>1150.9</ele>
        <time>2021-09-07T09:04:25Z</time>
      </trkpt>
      <trkpt lat="44.49738" lon="5.51444">
        <ele>1150.9</ele>
        <time>2021-09-07T09:04:26Z</time>
      </trkpt>
      <trkpt lat="44.49738" lon="5.51444">
        <ele>1150.9</ele>
        <time>2021-09-07T09:04:27Z</time>
      </trkpt>
      <trkpt lat="44.49738" lon="5.51444">
        <ele>1150.9</ele>
        <time>2021-09-07T09:04:28Z</time>
      </trkpt>
      <trkpt lat="44.49738" lon="5.51444">
        <ele>1150.9</ele>
        <time>2021-09-07T09:04:29Z</time>
      </trkpt>
      <trkpt lat="44.49739" lon="5.51444">
        <ele>1151</ele>
        <time>2021-09-07T09:04:30Z</time>
      </trkpt>
      <trkpt lat="44.49739" lon="5.51444">
        <ele>1151.1</ele>
        <time>2021-09-07T09:04:31Z</time>
      </trkpt>
      <trkpt lat="44.49739" lon="5.51444">
        <ele>1151.1</ele>
        <time>2021-09-07T09:04:32Z</time>
      </trkpt>
      <trkpt lat="44.4974" lon="5.51443">
        <ele>1151.4</ele>
        <time>2021-09-07T09:04:33Z</time>
      </trkpt>
      <trkpt lat="44.4974" lon="5.51443">
        <ele>1151.4</ele>
        <time>2021-09-07T09:04:34Z</time>
      </trkpt>
      <trkpt lat="44.49741" lon="5.51443">
        <ele>1151.5</ele>
        <time>2021-09-07T09:04:35Z</time>
      </trkpt>
      <trkpt lat="44.49741" lon="5.51443">
        <ele>1151.5</ele>
        <time>2021-09-07T09:04:36Z</time>
      </trkpt>
      <trkpt lat="44.49741" lon="5.51443">
        <ele>1151.5</ele>
        <time>2021-09-07T09:04:37Z</time>
      </trkpt>
      <trkpt lat="44.49741" lon="5.51442">
        <ele>1151.7</ele>
        <time>2021-09-07T09:04:38Z</time>
      </trkpt>
      <trkpt lat="44.49741" lon="5.51442">
        <ele>1151.7</ele>
        <time>2021-09-07T09:04:39Z</time>
      </trkpt>
      <trkpt lat="44.49741" lon="5.51441">
        <ele>1151.8</ele>
        <time>2021-09-07T09:04:40Z</time>
      </trkpt>
      <trkpt lat="44.49741" lon="5.5144">
        <ele>1152</ele>
        <time>2021-09-07T09:04:41Z</time>
      </trkpt>
      <trkpt lat="44.49741" lon="5.51438">
        <ele>1152.2</ele>
        <time>2021-09-07T09:04:42Z</time>
      </trkpt>
      <trkpt lat="44.4974" lon="5.51437">
        <ele>1152.4</ele>
        <time>2021-09-07T09:04:43Z</time>
      </trkpt>
      <trkpt lat="44.4974" lon="5.51435">
        <ele>1152.7</ele>
        <time>2021-09-07T09:04:44Z</time>
      </trkpt>
      <trkpt lat="44.4974" lon="5.51434">
        <ele>1152.9</ele>
        <time>2021-09-07T09:04:45Z</time>
      </trkpt>
      <trkpt lat="44.49739" lon="5.51433">
        <ele>1153</ele>
        <time>2021-09-07T09:04:46Z</time>
      </trkpt>
      <trkpt lat="44.49739" lon="5.51431">
        <ele>1153.3</ele>
        <time>2021-09-07T09:04:47Z</time>
      </trkpt>
      <trkpt lat="44.49739" lon="5.51431">
        <ele>1153.3</ele>
        <time>2021-09-07T09:04:48Z</time>
      </trkpt>
      <trkpt lat="44.49739" lon="5.5143">
        <ele>1153.4</ele>
        <time>2021-09-07T09:04:49Z</time>
      </trkpt>
      <trkpt lat="44.49739" lon="5.5143">
        <ele>1153.5</ele>
        <time>2021-09-07T09:04:50Z</time>
      </trkpt>
      <trkpt lat="44.49739" lon="5.51429">
        <ele>1153.6</ele>
        <time>2021-09-07T09:04:51Z</time>
      </trkpt>
      <trkpt lat="44.49739" lon="5.51429">
        <ele>1153.6</ele>
        <time>2021-09-07T09:04:52Z</time>
      </trkpt>
      <trkpt lat="44.49739" lon="5.51428">
        <ele>1153.7</ele>
        <time>2021-09-07T09:04:53Z</time>
      </trkpt>
      <trkpt lat="44.49739" lon="5.51428">
        <ele>1153.7</ele>
        <time>2021-09-07T09:04:54Z</time>
      </trkpt>
      <trkpt lat="44.49739" lon="5.51428">
        <ele>1153.7</ele>
        <time>2021-09-07T09:04:55Z</time>
      </trkpt>
      <trkpt lat="44.49739" lon="5.51428">
        <ele>1153.7</ele>
        <time>2021-09-07T09:04:56Z</time>
      </trkpt>
      <trkpt lat="44.49739" lon="5.51428">
        <ele>1153.7</ele>
        <time>2021-09-07T09:04:57Z</time>
      </trkpt>
      <trkpt lat="44.49739" lon="5.51428">
        <ele>1153.7</ele>
        <time>2021-09-07T09:04:58Z</time>
      </trkpt>
      <trkpt lat="44.49739" lon="5.51428">
        <ele>1153.7</ele>
        <time>2021-09-07T09:04:59Z</time>
      </trkpt>
      <trkpt lat="44.49739" lon="5.51428">
        <ele>1153.7</ele>
        <time>2021-09-07T09:05:00Z</time>
      </trkpt>
      <trkpt lat="44.49739" lon="5.51428">
        <ele>1153.7</ele>
        <time>2021-09-07T09:05:01Z</time>
      </trkpt>
      <trkpt lat="44.49739" lon="5.51428">
        <ele>1153.7</ele>
        <time>2021-09-07T09:05:02Z</time>
      </trkpt>
      <trkpt lat="44.4974" lon="5.51428">
        <ele>1153.8</ele>
        <time>2021-09-07T09:05:03Z</time>
      </trkpt>
      <trkpt lat="44.4974" lon="5.51428">
        <ele>1153.9</ele>
        <time>2021-09-07T09:05:04Z</time>
      </trkpt>
      <trkpt lat="44.4974" lon="5.51428">
        <ele>1153.9</ele>
        <time>2021-09-07T09:05:05Z</time>
      </trkpt>
      <trkpt lat="44.4974" lon="5.51428">
        <ele>1154</ele>
        <time>2021-09-07T09:05:06Z</time>
      </trkpt>
      <trkpt lat="44.4974" lon="5.51428">
        <ele>1154</ele>
        <time>2021-09-07T09:05:07Z</time>
      </trkpt>
      <trkpt lat="44.4974" lon="5.51428">
        <ele>1154</ele>
        <time>2021-09-07T09:05:08Z</time>
      </trkpt>
      <trkpt lat="44.49739" lon="5.51428">
        <ele>1154.1</ele>
        <time>2021-09-07T09:05:09Z</time>
      </trkpt>
      <trkpt lat="44.49739" lon="5.51427">
        <ele>1154.3</ele>
        <time>2021-09-07T09:05:10Z</time>
      </trkpt>
      <trkpt lat="44.49739" lon="5.51427">
        <ele>1154.3</ele>
        <time>2021-09-07T09:05:11Z</time>
      </trkpt>
      <trkpt lat="44.49739" lon="5.51427">
        <ele>1154.3</ele>
        <time>2021-09-07T09:05:12Z</time>
      </trkpt>
      <trkpt lat="44.4974" lon="5.51427">
        <ele>1154.6</ele>
        <time>2021-09-07T09:05:13Z</time>
      </trkpt>
      <trkpt lat="44.49741" lon="5.51426">
        <ele>1154.8</ele>
        <time>2021-09-07T09:05:14Z</time>
      </trkpt>
      <trkpt lat="44.49742" lon="5.51424">
        <ele>1155.1</ele>
        <time>2021-09-07T09:05:15Z</time>
      </trkpt>
      <trkpt lat="44.49744" lon="5.51424">
        <ele>1155.4</ele>
        <time>2021-09-07T09:05:16Z</time>
      </trkpt>
      <trkpt lat="44.49745" lon="5.51423">
        <ele>1155.7</ele>
        <time>2021-09-07T09:05:17Z</time>
      </trkpt>
      <trkpt lat="44.49747" lon="5.51422">
        <ele>1156.1</ele>
        <time>2021-09-07T09:05:18Z</time>
      </trkpt>
      <trkpt lat="44.49749" lon="5.51421">
        <ele>1156.4</ele>
        <time>2021-09-07T09:05:19Z</time>
      </trkpt>
      <trkpt lat="44.49749" lon="5.5142">
        <ele>1156.6</ele>
        <time>2021-09-07T09:05:20Z</time>
      </trkpt>
      <trkpt lat="44.4975" lon="5.51419">
        <ele>1156.8</ele>
        <time>2021-09-07T09:05:21Z</time>
      </trkpt>
      <trkpt lat="44.49751" lon="5.51418">
        <ele>1157</ele>
        <time>2021-09-07T09:05:22Z</time>
      </trkpt>
      <trkpt lat="44.49752" lon="5.51417">
        <ele>1157.3</ele>
        <time>2021-09-07T09:05:23Z</time>
      </trkpt>
      <trkpt lat="44.49753" lon="5.51417">
        <ele>1157.4</ele>
        <time>2021-09-07T09:05:24Z</time>
      </trkpt>
      <trkpt lat="44.49753" lon="5.51416">
        <ele>1157.5</ele>
        <time>2021-09-07T09:05:25Z</time>
      </trkpt>
      <trkpt lat="44.49754" lon="5.51415">
        <ele>1157.7</ele>
        <time>2021-09-07T09:05:26Z</time>
      </trkpt>
      <trkpt lat="44.49754" lon="5.51415">
        <ele>1157.7</ele>
        <time>2021-09-07T09:05:27Z</time>
      </trkpt>
      <trkpt lat="44.49755" lon="5.51415">
        <ele>1157.9</ele>
        <time>2021-09-07T09:05:28Z</time>
      </trkpt>
      <trkpt lat="44.49755" lon="5.51415">
        <ele>1158</ele>
        <time>2021-09-07T09:05:29Z</time>
      </trkpt>
      <trkpt lat="44.49755" lon="5.51415">
        <ele>1158</ele>
        <time>2021-09-07T09:05:30Z</time>
      </trkpt>
      <trkpt lat="44.49755" lon="5.51414">
        <ele>1158.2</ele>
        <time>2021-09-07T09:05:31Z</time>
      </trkpt>
      <trkpt lat="44.49756" lon="5.51414">
        <ele>1158.3</ele>
        <time>2021-09-07T09:05:32Z</time>
      </trkpt>
      <trkpt lat="44.49756" lon="5.51414">
        <ele>1158.3</ele>
        <time>2021-09-07T09:05:33Z</time>
      </trkpt>
      <trkpt lat="44.49756" lon="5.51414">
        <ele>1158.4</ele>
        <time>2021-09-07T09:05:34Z</time>
      </trkpt>
      <trkpt lat="44.49756" lon="5.51413">
        <ele>1158.6</ele>
        <time>2021-09-07T09:05:35Z</time>
      </trkpt>
      <trkpt lat="44.49756" lon="5.51411">
        <ele>1158.8</ele>
        <time>2021-09-07T09:05:36Z</time>
      </trkpt>
      <trkpt lat="44.49755" lon="5.51409">
        <ele>1159.1</ele>
        <time>2021-09-07T09:05:37Z</time>
      </trkpt>
      <trkpt lat="44.49755" lon="5.51408">
        <ele>1159.3</ele>
        <time>2021-09-07T09:05:38Z</time>
      </trkpt>
      <trkpt lat="44.49755" lon="5.51406">
        <ele>1159.5</ele>
        <time>2021-09-07T09:05:39Z</time>
      </trkpt>
      <trkpt lat="44.49755" lon="5.51405">
        <ele>1159.6</ele>
        <time>2021-09-07T09:05:40Z</time>
      </trkpt>
      <trkpt lat="44.49755" lon="5.51404">
        <ele>1159.8</ele>
        <time>2021-09-07T09:05:41Z</time>
      </trkpt>
      <trkpt lat="44.49754" lon="5.51403">
        <ele>1160</ele>
        <time>2021-09-07T09:05:42Z</time>
      </trkpt>
      <trkpt lat="44.49754" lon="5.51402">
        <ele>1160.1</ele>
        <time>2021-09-07T09:05:43Z</time>
      </trkpt>
      <trkpt lat="44.49755" lon="5.514">
        <ele>1160.5</ele>
        <time>2021-09-07T09:05:44Z</time>
      </trkpt>
      <trkpt lat="44.49755" lon="5.51399">
        <ele>1160.6</ele>
        <time>2021-09-07T09:05:45Z</time>
      </trkpt>
      <trkpt lat="44.49755" lon="5.51398">
        <ele>1160.7</ele>
        <time>2021-09-07T09:05:46Z</time>
      </trkpt>
      <trkpt lat="44.49755" lon="5.51397">
        <ele>1160.9</ele>
        <time>2021-09-07T09:05:47Z</time>
      </trkpt>
      <trkpt lat="44.49756" lon="5.51396">
        <ele>1161.1</ele>
        <time>2021-09-07T09:05:48Z</time>
      </trkpt>
      <trkpt lat="44.49757" lon="5.51394">
        <ele>1161.4</ele>
        <time>2021-09-07T09:05:49Z</time>
      </trkpt>
      <trkpt lat="44.49758" lon="5.51394">
        <ele>1161.5</ele>
        <time>2021-09-07T09:05:50Z</time>
      </trkpt>
      <trkpt lat="44.49758" lon="5.51393">
        <ele>1161.7</ele>
        <time>2021-09-07T09:05:51Z</time>
      </trkpt>
      <trkpt lat="44.49758" lon="5.51392">
        <ele>1161.8</ele>
        <time>2021-09-07T09:05:52Z</time>
      </trkpt>
      <trkpt lat="44.49759" lon="5.5139">
        <ele>1162.1</ele>
        <time>2021-09-07T09:05:53Z</time>
      </trkpt>
      <trkpt lat="44.49759" lon="5.51389">
        <ele>1162.3</ele>
        <time>2021-09-07T09:05:54Z</time>
      </trkpt>
      <trkpt lat="44.49759" lon="5.51388">
        <ele>1162.4</ele>
        <time>2021-09-07T09:05:55Z</time>
      </trkpt>
      <trkpt lat="44.49759" lon="5.51387">
        <ele>1162.6</ele>
        <time>2021-09-07T09:05:56Z</time>
      </trkpt>
      <trkpt lat="44.49759" lon="5.51385">
        <ele>1162.8</ele>
        <time>2021-09-07T09:05:57Z</time>
      </trkpt>
      <trkpt lat="44.4976" lon="5.51383">
        <ele>1163.1</ele>
        <time>2021-09-07T09:05:58Z</time>
      </trkpt>
      <trkpt lat="44.4976" lon="5.51382">
        <ele>1163.3</ele>
        <time>2021-09-07T09:05:59Z</time>
      </trkpt>
      <trkpt lat="44.4976" lon="5.51381">
        <ele>1163.4</ele>
        <time>2021-09-07T09:06:00Z</time>
      </trkpt>
      <trkpt lat="44.4976" lon="5.51381">
        <ele>1163.5</ele>
        <time>2021-09-07T09:06:01Z</time>
      </trkpt>
      <trkpt lat="44.4976" lon="5.51381">
        <ele>1163.5</ele>
        <time>2021-09-07T09:06:02Z</time>
      </trkpt>
      <trkpt lat="44.4976" lon="5.5138">
        <ele>1163.6</ele>
        <time>2021-09-07T09:06:03Z</time>
      </trkpt>
      <trkpt lat="44.4976" lon="5.5138">
        <ele>1163.7</ele>
        <time>2021-09-07T09:06:04Z</time>
      </trkpt>
      <trkpt lat="44.4976" lon="5.5138">
        <ele>1163.8</ele>
        <time>2021-09-07T09:06:05Z</time>
      </trkpt>
      <trkpt lat="44.4976" lon="5.51379">
        <ele>1163.8</ele>
        <time>2021-09-07T09:06:06Z</time>
      </trkpt>
      <trkpt lat="44.4976" lon="5.51379">
        <ele>1163.9</ele>
        <time>2021-09-07T09:06:07Z</time>
      </trkpt>
      <trkpt lat="44.4976" lon="5.51379">
        <ele>1163.9</ele>
        <time>2021-09-07T09:06:08Z</time>
      </trkpt>
      <trkpt lat="44.4976" lon="5.51379">
        <ele>1164</ele>
        <time>2021-09-07T09:06:09Z</time>
      </trkpt>
      <trkpt lat="44.4976" lon="5.51378">
        <ele>1164.1</ele>
        <time>2021-09-07T09:06:10Z</time>
      </trkpt>
      <trkpt lat="44.4976" lon="5.51378">
        <ele>1164.1</ele>
        <time>2021-09-07T09:06:11Z</time>
      </trkpt>
      <trkpt lat="44.4976" lon="5.51378">
        <ele>1164.2</ele>
        <time>2021-09-07T09:06:12Z</time>
      </trkpt>
      <trkpt lat="44.4976" lon="5.51377">
        <ele>1164.3</ele>
        <time>2021-09-07T09:06:13Z</time>
      </trkpt>
      <trkpt lat="44.49759" lon="5.51377">
        <ele>1164.4</ele>
        <time>2021-09-07T09:06:14Z</time>
      </trkpt>
      <trkpt lat="44.49759" lon="5.51377">
        <ele>1164.5</ele>
        <time>2021-09-07T09:06:15Z</time>
      </trkpt>
      <trkpt lat="44.49759" lon="5.51376">
        <ele>1164.5</ele>
        <time>2021-09-07T09:06:16Z</time>
      </trkpt>
      <trkpt lat="44.49759" lon="5.51376">
        <ele>1164.6</ele>
        <time>2021-09-07T09:06:17Z</time>
      </trkpt>
      <trkpt lat="44.49759" lon="5.51376">
        <ele>1164.7</ele>
        <time>2021-09-07T09:06:18Z</time>
      </trkpt>
      <trkpt lat="44.49759" lon="5.51375">
        <ele>1164.7</ele>
        <time>2021-09-07T09:06:19Z</time>
      </trkpt>
      <trkpt lat="44.49759" lon="5.51375">
        <ele>1164.8</ele>
        <time>2021-09-07T09:06:20Z</time>
      </trkpt>
      <trkpt lat="44.49759" lon="5.51375">
        <ele>1164.9</ele>
        <time>2021-09-07T09:06:21Z</time>
      </trkpt>
      <trkpt lat="44.49759" lon="5.51374">
        <ele>1164.9</ele>
        <time>2021-09-07T09:06:22Z</time>
      </trkpt>
      <trkpt lat="44.49759" lon="5.51374">
        <ele>1165</ele>
        <time>2021-09-07T09:06:23Z</time>
      </trkpt>
      <trkpt lat="44.49759" lon="5.51374">
        <ele>1165.1</ele>
        <time>2021-09-07T09:06:24Z</time>
      </trkpt>
      <trkpt lat="44.49759" lon="5.51373">
        <ele>1165.2</ele>
        <time>2021-09-07T09:06:25Z</time>
      </trkpt>
      <trkpt lat="44.49759" lon="5.51373">
        <ele>1165.2</ele>
        <time>2021-09-07T09:06:26Z</time>
      </trkpt>
      <trkpt lat="44.49757" lon="5.5137">
        <ele>1165.8</ele>
        <time>2021-09-07T09:06:27Z</time>
      </trkpt>
      <trkpt lat="44.49754" lon="5.51367">
        <ele>1166.4</ele>
        <time>2021-09-07T09:06:28Z</time>
      </trkpt>
      <trkpt lat="44.49753" lon="5.51365">
        <ele>1166.8</ele>
        <time>2021-09-07T09:06:29Z</time>
      </trkpt>
      <trkpt lat="44.49751" lon="5.51362">
        <ele>1167.2</ele>
        <time>2021-09-07T09:06:30Z</time>
      </trkpt>
      <trkpt lat="44.4975" lon="5.5136">
        <ele>1167.5</ele>
        <time>2021-09-07T09:06:31Z</time>
      </trkpt>
      <trkpt lat="44.49753" lon="5.51363">
        <ele>1168</ele>
        <time>2021-09-07T09:06:32Z</time>
      </trkpt>
      <trkpt lat="44.49755" lon="5.51365">
        <ele>1168.5</ele>
        <time>2021-09-07T09:06:33Z</time>
      </trkpt>
      <trkpt lat="44.49754" lon="5.51365">
        <ele>1168.8</ele>
        <time>2021-09-07T09:06:34Z</time>
      </trkpt>
      <trkpt lat="44.49753" lon="5.51364">
        <ele>1169</ele>
        <time>2021-09-07T09:06:35Z</time>
      </trkpt>
      <trkpt lat="44.49752" lon="5.51363">
        <ele>1169.2</ele>
        <time>2021-09-07T09:06:36Z</time>
      </trkpt>
      <trkpt lat="44.49751" lon="5.51361">
        <ele>1169.6</ele>
        <time>2021-09-07T09:06:37Z</time>
      </trkpt>
      <trkpt lat="44.4975" lon="5.5136">
        <ele>1169.8</ele>
        <time>2021-09-07T09:06:38Z</time>
      </trkpt>
      <trkpt lat="44.49749" lon="5.51359">
        <ele>1170</ele>
        <time>2021-09-07T09:06:39Z</time>
      </trkpt>
      <trkpt lat="44.49749" lon="5.51359">
        <ele>1170.1</ele>
        <time>2021-09-07T09:06:40Z</time>
      </trkpt>
      <trkpt lat="44.49749" lon="5.51359">
        <ele>1170.1</ele>
        <time>2021-09-07T09:06:41Z</time>
      </trkpt>
      <trkpt lat="44.49749" lon="5.51358">
        <ele>1170.2</ele>
        <time>2021-09-07T09:06:42Z</time>
      </trkpt>
      <trkpt lat="44.49749" lon="5.51357">
        <ele>1170.4</ele>
        <time>2021-09-07T09:06:43Z</time>
      </trkpt>
      <trkpt lat="44.49749" lon="5.51357">
        <ele>1170.5</ele>
        <time>2021-09-07T09:06:44Z</time>
      </trkpt>
      <trkpt lat="44.49748" lon="5.51357">
        <ele>1170.5</ele>
        <time>2021-09-07T09:06:45Z</time>
      </trkpt>
      <trkpt lat="44.49749" lon="5.51356">
        <ele>1170.7</ele>
        <time>2021-09-07T09:06:46Z</time>
      </trkpt>
      <trkpt lat="44.4975" lon="5.51354">
        <ele>1171</ele>
        <time>2021-09-07T09:06:47Z</time>
      </trkpt>
      <trkpt lat="44.49751" lon="5.51353">
        <ele>1171.2</ele>
        <time>2021-09-07T09:06:48Z</time>
      </trkpt>
      <trkpt lat="44.49751" lon="5.51351">
        <ele>1171.4</ele>
        <time>2021-09-07T09:06:49Z</time>
      </trkpt>
      <trkpt lat="44.49751" lon="5.5135">
        <ele>1171.5</ele>
        <time>2021-09-07T09:06:50Z</time>
      </trkpt>
      <trkpt lat="44.49751" lon="5.51349">
        <ele>1171.7</ele>
        <time>2021-09-07T09:06:51Z</time>
      </trkpt>
      <trkpt lat="44.49751" lon="5.51348">
        <ele>1171.8</ele>
        <time>2021-09-07T09:06:52Z</time>
      </trkpt>
      <trkpt lat="44.49751" lon="5.51346">
        <ele>1172</ele>
        <time>2021-09-07T09:06:53Z</time>
      </trkpt>
      <trkpt lat="44.49752" lon="5.51345">
        <ele>1172.2</ele>
        <time>2021-09-07T09:06:54Z</time>
      </trkpt>
      <trkpt lat="44.49752" lon="5.51344">
        <ele>1172.3</ele>
        <time>2021-09-07T09:06:55Z</time>
      </trkpt>
      <trkpt lat="44.49752" lon="5.51343">
        <ele>1172.5</ele>
        <time>2021-09-07T09:06:56Z</time>
      </trkpt>
      <trkpt lat="44.49752" lon="5.51341">
        <ele>1172.7</ele>
        <time>2021-09-07T09:06:57Z</time>
      </trkpt>
      <trkpt lat="44.49752" lon="5.51341">
        <ele>1172.8</ele>
        <time>2021-09-07T09:06:58Z</time>
      </trkpt>
      <trkpt lat="44.49752" lon="5.5134">
        <ele>1172.8</ele>
        <time>2021-09-07T09:06:59Z</time>
      </trkpt>
      <trkpt lat="44.49753" lon="5.51339">
        <ele>1173</ele>
        <time>2021-09-07T09:07:00Z</time>
      </trkpt>
      <trkpt lat="44.49753" lon="5.51339">
        <ele>1173.1</ele>
        <time>2021-09-07T09:07:01Z</time>
      </trkpt>
      <trkpt lat="44.49753" lon="5.51338">
        <ele>1173.1</ele>
        <time>2021-09-07T09:07:02Z</time>
      </trkpt>
      <trkpt lat="44.49753" lon="5.51338">
        <ele>1173.2</ele>
        <time>2021-09-07T09:07:03Z</time>
      </trkpt>
      <trkpt lat="44.49753" lon="5.51337">
        <ele>1173.3</ele>
        <time>2021-09-07T09:07:04Z</time>
      </trkpt>
      <trkpt lat="44.49754" lon="5.51337">
        <ele>1173.4</ele>
        <time>2021-09-07T09:07:05Z</time>
      </trkpt>
      <trkpt lat="44.49754" lon="5.51337">
        <ele>1173.4</ele>
        <time>2021-09-07T09:07:06Z</time>
      </trkpt>
      <trkpt lat="44.49754" lon="5.51337">
        <ele>1173.5</ele>
        <time>2021-09-07T09:07:07Z</time>
      </trkpt>
      <trkpt lat="44.49753" lon="5.51336">
        <ele>1173.6</ele>
        <time>2021-09-07T09:07:08Z</time>
      </trkpt>
      <trkpt lat="44.49753" lon="5.51335">
        <ele>1173.8</ele>
        <time>2021-09-07T09:07:09Z</time>
      </trkpt>
      <trkpt lat="44.49753" lon="5.51334">
        <ele>1173.9</ele>
        <time>2021-09-07T09:07:10Z</time>
      </trkpt>
      <trkpt lat="44.49753" lon="5.51334">
        <ele>1174</ele>
        <time>2021-09-07T09:07:11Z</time>
      </trkpt>
      <trkpt lat="44.49753" lon="5.51333">
        <ele>1174</ele>
        <time>2021-09-07T09:07:12Z</time>
      </trkpt>
      <trkpt lat="44.49753" lon="5.51331">
        <ele>1174.3</ele>
        <time>2021-09-07T09:07:13Z</time>
      </trkpt>
      <trkpt lat="44.49753" lon="5.5133">
        <ele>1174.4</ele>
        <time>2021-09-07T09:07:14Z</time>
      </trkpt>
      <trkpt lat="44.49754" lon="5.5133">
        <ele>1174.5</ele>
        <time>2021-09-07T09:07:15Z</time>
      </trkpt>
      <trkpt lat="44.49754" lon="5.51329">
        <ele>1174.6</ele>
        <time>2021-09-07T09:07:16Z</time>
      </trkpt>
      <trkpt lat="44.49754" lon="5.51328">
        <ele>1174.7</ele>
        <time>2021-09-07T09:07:17Z</time>
      </trkpt>
      <trkpt lat="44.49754" lon="5.51326">
        <ele>1174.9</ele>
        <time>2021-09-07T09:07:18Z</time>
      </trkpt>
      <trkpt lat="44.49754" lon="5.51326">
        <ele>1174.9</ele>
        <time>2021-09-07T09:07:19Z</time>
      </trkpt>
      <trkpt lat="44.49754" lon="5.51326">
        <ele>1175</ele>
        <time>2021-09-07T09:07:20Z</time>
      </trkpt>
      <trkpt lat="44.49754" lon="5.51325">
        <ele>1175.1</ele>
        <time>2021-09-07T09:07:21Z</time>
      </trkpt>
      <trkpt lat="44.49754" lon="5.51325">
        <ele>1175.1</ele>
        <time>2021-09-07T09:07:22Z</time>
      </trkpt>
      <trkpt lat="44.49754" lon="5.51324">
        <ele>1175.2</ele>
        <time>2021-09-07T09:07:23Z</time>
      </trkpt>
      <trkpt lat="44.49754" lon="5.51324">
        <ele>1175.2</ele>
        <time>2021-09-07T09:07:24Z</time>
      </trkpt>
      <trkpt lat="44.49754" lon="5.51324">
        <ele>1175.2</ele>
        <time>2021-09-07T09:07:25Z</time>
      </trkpt>
      <trkpt lat="44.49754" lon="5.51324">
        <ele>1175.2</ele>
        <time>2021-09-07T09:07:26Z</time>
      </trkpt>
      <trkpt lat="44.49754" lon="5.51324">
        <ele>1175.2</ele>
        <time>2021-09-07T09:07:27Z</time>
      </trkpt>
      <trkpt lat="44.49754" lon="5.51323">
        <ele>1175.3</ele>
        <time>2021-09-07T09:07:28Z</time>
      </trkpt>
      <trkpt lat="44.49754" lon="5.51323">
        <ele>1175.3</ele>
        <time>2021-09-07T09:07:29Z</time>
      </trkpt>
      <trkpt lat="44.49755" lon="5.51323">
        <ele>1175.5</ele>
        <time>2021-09-07T09:07:30Z</time>
      </trkpt>
      <trkpt lat="44.49755" lon="5.51323">
        <ele>1175.5</ele>
        <time>2021-09-07T09:07:31Z</time>
      </trkpt>
      <trkpt lat="44.49755" lon="5.51323">
        <ele>1175.5</ele>
        <time>2021-09-07T09:07:32Z</time>
      </trkpt>
      <trkpt lat="44.49755" lon="5.51322">
        <ele>1175.6</ele>
        <time>2021-09-07T09:07:33Z</time>
      </trkpt>
      <trkpt lat="44.49754" lon="5.5132">
        <ele>1175.8</ele>
        <time>2021-09-07T09:07:34Z</time>
      </trkpt>
      <trkpt lat="44.49754" lon="5.51318">
        <ele>1176.1</ele>
        <time>2021-09-07T09:07:35Z</time>
      </trkpt>
      <trkpt lat="44.49754" lon="5.51316">
        <ele>1176.3</ele>
        <time>2021-09-07T09:07:36Z</time>
      </trkpt>
      <trkpt lat="44.49754" lon="5.51315">
        <ele>1176.4</ele>
        <time>2021-09-07T09:07:37Z</time>
      </trkpt>
      <trkpt lat="44.49754" lon="5.51314">
        <ele>1176.5</ele>
        <time>2021-09-07T09:07:38Z</time>
      </trkpt>
      <trkpt lat="44.49754" lon="5.51314">
        <ele>1176.6</ele>
        <time>2021-09-07T09:07:39Z</time>
      </trkpt>
      <trkpt lat="44.49754" lon="5.51313">
        <ele>1176.7</ele>
        <time>2021-09-07T09:07:40Z</time>
      </trkpt>
      <trkpt lat="44.49754" lon="5.51312">
        <ele>1176.8</ele>
        <time>2021-09-07T09:07:41Z</time>
      </trkpt>
      <trkpt lat="44.49754" lon="5.51312">
        <ele>1176.8</ele>
        <time>2021-09-07T09:07:42Z</time>
      </trkpt>
      <trkpt lat="44.49754" lon="5.51311">
        <ele>1176.9</ele>
        <time>2021-09-07T09:07:43Z</time>
      </trkpt>
      <trkpt lat="44.49754" lon="5.51311">
        <ele>1176.9</ele>
        <time>2021-09-07T09:07:44Z</time>
      </trkpt>
      <trkpt lat="44.49754" lon="5.51311">
        <ele>1176.9</ele>
        <time>2021-09-07T09:07:45Z</time>
      </trkpt>
      <trkpt lat="44.49754" lon="5.5131">
        <ele>1177</ele>
        <time>2021-09-07T09:07:46Z</time>
      </trkpt>
      <trkpt lat="44.49754" lon="5.5131">
        <ele>1177</ele>
        <time>2021-09-07T09:07:47Z</time>
      </trkpt>
      <trkpt lat="44.49754" lon="5.5131">
        <ele>1177</ele>
        <time>2021-09-07T09:07:48Z</time>
      </trkpt>
      <trkpt lat="44.49754" lon="5.5131">
        <ele>1177</ele>
        <time>2021-09-07T09:07:49Z</time>
      </trkpt>
      <trkpt lat="44.49754" lon="5.51309">
        <ele>1177.1</ele>
        <time>2021-09-07T09:07:50Z</time>
      </trkpt>
      <trkpt lat="44.49754" lon="5.51309">
        <ele>1177.1</ele>
        <time>2021-09-07T09:07:51Z</time>
      </trkpt>
      <trkpt lat="44.49754" lon="5.51309">
        <ele>1177.1</ele>
        <time>2021-09-07T09:07:52Z</time>
      </trkpt>
      <trkpt lat="44.49754" lon="5.51309">
        <ele>1177.2</ele>
        <time>2021-09-07T09:07:53Z</time>
      </trkpt>
      <trkpt lat="44.49754" lon="5.51308">
        <ele>1177.2</ele>
        <time>2021-09-07T09:07:54Z</time>
      </trkpt>
      <trkpt lat="44.49754" lon="5.51308">
        <ele>1177.3</ele>
        <time>2021-09-07T09:07:55Z</time>
      </trkpt>
      <trkpt lat="44.49754" lon="5.51307">
        <ele>1177.4</ele>
        <time>2021-09-07T09:07:56Z</time>
      </trkpt>
      <trkpt lat="44.49754" lon="5.51306">
        <ele>1177.5</ele>
        <time>2021-09-07T09:07:57Z</time>
      </trkpt>
      <trkpt lat="44.49754" lon="5.51305">
        <ele>1177.6</ele>
        <time>2021-09-07T09:07:58Z</time>
      </trkpt>
      <trkpt lat="44.49753" lon="5.51304">
        <ele>1177.8</ele>
        <time>2021-09-07T09:07:59Z</time>
      </trkpt>
      <trkpt lat="44.49753" lon="5.51303">
        <ele>1177.9</ele>
        <time>2021-09-07T09:08:00Z</time>
      </trkpt>
      <trkpt lat="44.49753" lon="5.51302">
        <ele>1178</ele>
        <time>2021-09-07T09:08:01Z</time>
      </trkpt>
      <trkpt lat="44.49753" lon="5.51301">
        <ele>1178.1</ele>
        <time>2021-09-07T09:08:02Z</time>
      </trkpt>
      <trkpt lat="44.49753" lon="5.513">
        <ele>1178.3</ele>
        <time>2021-09-07T09:08:03Z</time>
      </trkpt>
      <trkpt lat="44.49753" lon="5.51299">
        <ele>1178.4</ele>
        <time>2021-09-07T09:08:04Z</time>
      </trkpt>
      <trkpt lat="44.49753" lon="5.51298">
        <ele>1178.5</ele>
        <time>2021-09-07T09:08:05Z</time>
      </trkpt>
      <trkpt lat="44.49753" lon="5.51297">
        <ele>1178.6</ele>
        <time>2021-09-07T09:08:06Z</time>
      </trkpt>
      <trkpt lat="44.49753" lon="5.51296">
        <ele>1178.7</ele>
        <time>2021-09-07T09:08:07Z</time>
      </trkpt>
      <trkpt lat="44.49753" lon="5.51295">
        <ele>1178.9</ele>
        <time>2021-09-07T09:08:08Z</time>
      </trkpt>
      <trkpt lat="44.49753" lon="5.51295">
        <ele>1178.9</ele>
        <time>2021-09-07T09:08:09Z</time>
      </trkpt>
      <trkpt lat="44.49753" lon="5.51294">
        <ele>1179</ele>
        <time>2021-09-07T09:08:10Z</time>
      </trkpt>
      <trkpt lat="44.49753" lon="5.51294">
        <ele>1179</ele>
        <time>2021-09-07T09:08:11Z</time>
      </trkpt>
      <trkpt lat="44.49753" lon="5.51293">
        <ele>1179.1</ele>
        <time>2021-09-07T09:08:12Z</time>
      </trkpt>
      <trkpt lat="44.49753" lon="5.51293">
        <ele>1179.1</ele>
        <time>2021-09-07T09:08:13Z</time>
      </trkpt>
      <trkpt lat="44.49753" lon="5.51293">
        <ele>1179.1</ele>
        <time>2021-09-07T09:08:14Z</time>
      </trkpt>
      <trkpt lat="44.49753" lon="5.51293">
        <ele>1179.1</ele>
        <time>2021-09-07T09:08:15Z</time>
      </trkpt>
      <trkpt lat="44.49753" lon="5.51293">
        <ele>1179.1</ele>
        <time>2021-09-07T09:08:16Z</time>
      </trkpt>
      <trkpt lat="44.49753" lon="5.51293">
        <ele>1179.1</ele>
        <time>2021-09-07T09:08:17Z</time>
      </trkpt>
      <trkpt lat="44.49753" lon="5.51293">
        <ele>1179.1</ele>
        <time>2021-09-07T09:08:18Z</time>
      </trkpt>
      <trkpt lat="44.49753" lon="5.51293">
        <ele>1179.1</ele>
        <time>2021-09-07T09:08:19Z</time>
      </trkpt>
      <trkpt lat="44.49753" lon="5.51293">
        <ele>1179.1</ele>
        <time>2021-09-07T09:08:20Z</time>
      </trkpt>
      <trkpt lat="44.49753" lon="5.51293">
        <ele>1179.1</ele>
        <time>2021-09-07T09:08:21Z</time>
      </trkpt>
      <trkpt lat="44.49753" lon="5.51293">
        <ele>1179.1</ele>
        <time>2021-09-07T09:08:22Z</time>
      </trkpt>
      <trkpt lat="44.49753" lon="5.51293">
        <ele>1179.1</ele>
        <time>2021-09-07T09:08:23Z</time>
      </trkpt>
      <trkpt lat="44.49753" lon="5.51293">
        <ele>1179.1</ele>
        <time>2021-09-07T09:08:24Z</time>
      </trkpt>
      <trkpt lat="44.49753" lon="5.51293">
        <ele>1179.1</ele>
        <time>2021-09-07T09:08:25Z</time>
      </trkpt>
      <trkpt lat="44.49753" lon="5.51293">
        <ele>1179.1</ele>
        <time>2021-09-07T09:08:26Z</time>
      </trkpt>
      <trkpt lat="44.49753" lon="5.51293">
        <ele>1179.1</ele>
        <time>2021-09-07T09:08:27Z</time>
      </trkpt>
      <trkpt lat="44.49753" lon="5.51293">
        <ele>1179.1</ele>
        <time>2021-09-07T09:08:28Z</time>
      </trkpt>
      <trkpt lat="44.49753" lon="5.51293">
        <ele>1179.1</ele>
        <time>2021-09-07T09:08:29Z</time>
      </trkpt>
      <trkpt lat="44.49753" lon="5.51293">
        <ele>1179.1</ele>
        <time>2021-09-07T09:08:30Z</time>
      </trkpt>
      <trkpt lat="44.49753" lon="5.51293">
        <ele>1179.1</ele>
        <time>2021-09-07T09:08:31Z</time>
      </trkpt>
      <trkpt lat="44.49753" lon="5.51293">
        <ele>1179.1</ele>
        <time>2021-09-07T09:08:32Z</time>
      </trkpt>
      <trkpt lat="44.49753" lon="5.51293">
        <ele>1179.1</ele>
        <time>2021-09-07T09:08:33Z</time>
      </trkpt>
      <trkpt lat="44.49753" lon="5.51293">
        <ele>1179.1</ele>
        <time>2021-09-07T09:08:34Z</time>
      </trkpt>
      <trkpt lat="44.49753" lon="5.51293">
        <ele>1179.1</ele>
        <time>2021-09-07T09:08:35Z</time>
      </trkpt>
      <trkpt lat="44.49753" lon="5.51293">
        <ele>1179.1</ele>
        <time>2021-09-07T09:08:36Z</time>
      </trkpt>
      <trkpt lat="44.49753" lon="5.51293">
        <ele>1179.1</ele>
        <time>2021-09-07T09:08:37Z</time>
      </trkpt>
      <trkpt lat="44.49753" lon="5.51293">
        <ele>1179.2</ele>
        <time>2021-09-07T09:08:38Z</time>
      </trkpt>
      <trkpt lat="44.49752" lon="5.51293">
        <ele>1179.3</ele>
        <time>2021-09-07T09:08:39Z</time>
      </trkpt>
      <trkpt lat="44.49752" lon="5.51293">
        <ele>1179.3</ele>
        <time>2021-09-07T09:08:40Z</time>
      </trkpt>
      <trkpt lat="44.49752" lon="5.51293">
        <ele>1179.3</ele>
        <time>2021-09-07T09:08:41Z</time>
      </trkpt>
      <trkpt lat="44.49752" lon="5.51293">
        <ele>1179.3</ele>
        <time>2021-09-07T09:08:42Z</time>
      </trkpt>
      <trkpt lat="44.49752" lon="5.51293">
        <ele>1179.3</ele>
        <time>2021-09-07T09:08:43Z</time>
      </trkpt>
      <trkpt lat="44.49752" lon="5.51293">
        <ele>1179.3</ele>
        <time>2021-09-07T09:08:44Z</time>
      </trkpt>
      <trkpt lat="44.49752" lon="5.51293">
        <ele>1179.3</ele>
        <time>2021-09-07T09:08:45Z</time>
      </trkpt>
      <trkpt lat="44.49752" lon="5.51293">
        <ele>1179.3</ele>
        <time>2021-09-07T09:08:46Z</time>
      </trkpt>
      <trkpt lat="44.49752" lon="5.51292">
        <ele>1179.5</ele>
        <time>2021-09-07T09:08:47Z</time>
      </trkpt>
      <trkpt lat="44.49752" lon="5.5129">
        <ele>1179.6</ele>
        <time>2021-09-07T09:08:48Z</time>
      </trkpt>
      <trkpt lat="44.49752" lon="5.5129">
        <ele>1179.6</ele>
        <time>2021-09-07T09:08:49Z</time>
      </trkpt>
      <trkpt lat="44.49752" lon="5.51289">
        <ele>1179.8</ele>
        <time>2021-09-07T09:08:50Z</time>
      </trkpt>
      <trkpt lat="44.49752" lon="5.51288">
        <ele>1180</ele>
        <time>2021-09-07T09:08:51Z</time>
      </trkpt>
      <trkpt lat="44.49751" lon="5.51286">
        <ele>1180.2</ele>
        <time>2021-09-07T09:08:52Z</time>
      </trkpt>
      <trkpt lat="44.49751" lon="5.51284">
        <ele>1180.4</ele>
        <time>2021-09-07T09:08:53Z</time>
      </trkpt>
      <trkpt lat="44.49751" lon="5.51282">
        <ele>1180.6</ele>
        <time>2021-09-07T09:08:54Z</time>
      </trkpt>
      <trkpt lat="44.49752" lon="5.5128">
        <ele>1180.9</ele>
        <time>2021-09-07T09:08:55Z</time>
      </trkpt>
      <trkpt lat="44.49752" lon="5.51278">
        <ele>1181.1</ele>
        <time>2021-09-07T09:08:56Z</time>
      </trkpt>
      <trkpt lat="44.49753" lon="5.51277">
        <ele>1181.3</ele>
        <time>2021-09-07T09:08:57Z</time>
      </trkpt>
      <trkpt lat="44.49753" lon="5.51275">
        <ele>1181.5</ele>
        <time>2021-09-07T09:08:58Z</time>
      </trkpt>
      <trkpt lat="44.49753" lon="5.51273">
        <ele>1181.7</ele>
        <time>2021-09-07T09:08:59Z</time>
      </trkpt>
      <trkpt lat="44.49754" lon="5.51271">
        <ele>1182</ele>
        <time>2021-09-07T09:09:00Z</time>
      </trkpt>
      <trkpt lat="44.49754" lon="5.5127">
        <ele>1182.1</ele>
        <time>2021-09-07T09:09:01Z</time>
      </trkpt>
      <trkpt lat="44.49754" lon="5.51269">
        <ele>1182.2</ele>
        <time>2021-09-07T09:09:02Z</time>
      </trkpt>
      <trkpt lat="44.49754" lon="5.51268">
        <ele>1182.3</ele>
        <time>2021-09-07T09:09:03Z</time>
      </trkpt>
      <trkpt lat="44.49754" lon="5.51267">
        <ele>1182.4</ele>
        <time>2021-09-07T09:09:04Z</time>
      </trkpt>
      <trkpt lat="44.49754" lon="5.51265">
        <ele>1182.6</ele>
        <time>2021-09-07T09:09:05Z</time>
      </trkpt>
      <trkpt lat="44.49754" lon="5.51264">
        <ele>1182.7</ele>
        <time>2021-09-07T09:09:06Z</time>
      </trkpt>
      <trkpt lat="44.49754" lon="5.51263">
        <ele>1182.8</ele>
        <time>2021-09-07T09:09:07Z</time>
      </trkpt>
      <trkpt lat="44.49754" lon="5.51262">
        <ele>1182.9</ele>
        <time>2021-09-07T09:09:08Z</time>
      </trkpt>
      <trkpt lat="44.49754" lon="5.51261">
        <ele>1183</ele>
        <time>2021-09-07T09:09:09Z</time>
      </trkpt>
      <trkpt lat="44.49754" lon="5.51259">
        <ele>1183.2</ele>
        <time>2021-09-07T09:09:10Z</time>
      </trkpt>
      <trkpt lat="44.49754" lon="5.51257">
        <ele>1183.4</ele>
        <time>2021-09-07T09:09:11Z</time>
      </trkpt>
      <trkpt lat="44.49753" lon="5.51256">
        <ele>1183.6</ele>
        <time>2021-09-07T09:09:12Z</time>
      </trkpt>
      <trkpt lat="44.49753" lon="5.51255">
        <ele>1183.7</ele>
        <time>2021-09-07T09:09:13Z</time>
      </trkpt>
      <trkpt lat="44.49753" lon="5.51254">
        <ele>1183.8</ele>
        <time>2021-09-07T09:09:14Z</time>
      </trkpt>
      <trkpt lat="44.49753" lon="5.51253">
        <ele>1183.9</ele>
        <time>2021-09-07T09:09:15Z</time>
      </trkpt>
      <trkpt lat="44.49753" lon="5.51251">
        <ele>1184.1</ele>
        <time>2021-09-07T09:09:16Z</time>
      </trkpt>
      <trkpt lat="44.49753" lon="5.5125">
        <ele>1184.2</ele>
        <time>2021-09-07T09:09:17Z</time>
      </trkpt>
      <trkpt lat="44.49754" lon="5.51249">
        <ele>1184.3</ele>
        <time>2021-09-07T09:09:18Z</time>
      </trkpt>
      <trkpt lat="44.49754" lon="5.51248">
        <ele>1184.4</ele>
        <time>2021-09-07T09:09:19Z</time>
      </trkpt>
      <trkpt lat="44.49754" lon="5.51247">
        <ele>1184.5</ele>
        <time>2021-09-07T09:09:20Z</time>
      </trkpt>
      <trkpt lat="44.49754" lon="5.51246">
        <ele>1184.6</ele>
        <time>2021-09-07T09:09:21Z</time>
      </trkpt>
      <trkpt lat="44.49754" lon="5.51245">
        <ele>1184.7</ele>
        <time>2021-09-07T09:09:22Z</time>
      </trkpt>
      <trkpt lat="44.49754" lon="5.51244">
        <ele>1184.8</ele>
        <time>2021-09-07T09:09:23Z</time>
      </trkpt>
      <trkpt lat="44.49754" lon="5.51243">
        <ele>1184.9</ele>
        <time>2021-09-07T09:09:24Z</time>
      </trkpt>
      <trkpt lat="44.49754" lon="5.51242">
        <ele>1185</ele>
        <time>2021-09-07T09:09:25Z</time>
      </trkpt>
      <trkpt lat="44.49754" lon="5.51241">
        <ele>1185.1</ele>
        <time>2021-09-07T09:09:26Z</time>
      </trkpt>
      <trkpt lat="44.49754" lon="5.51241">
        <ele>1185.1</ele>
        <time>2021-09-07T09:09:27Z</time>
      </trkpt>
      <trkpt lat="44.49754" lon="5.51241">
        <ele>1185.2</ele>
        <time>2021-09-07T09:09:28Z</time>
      </trkpt>
      <trkpt lat="44.49754" lon="5.5124">
        <ele>1185.2</ele>
        <time>2021-09-07T09:09:29Z</time>
      </trkpt>
      <trkpt lat="44.49754" lon="5.5124">
        <ele>1185.3</ele>
        <time>2021-09-07T09:09:30Z</time>
      </trkpt>
      <trkpt lat="44.49753" lon="5.5124">
        <ele>1185.4</ele>
        <time>2021-09-07T09:09:31Z</time>
      </trkpt>
      <trkpt lat="44.49753" lon="5.5124">
        <ele>1185.4</ele>
        <time>2021-09-07T09:09:32Z</time>
      </trkpt>
      <trkpt lat="44.49753" lon="5.51239">
        <ele>1185.5</ele>
        <time>2021-09-07T09:09:33Z</time>
      </trkpt>
      <trkpt lat="44.49753" lon="5.51239">
        <ele>1185.5</ele>
        <time>2021-09-07T09:09:34Z</time>
      </trkpt>
      <trkpt lat="44.49753" lon="5.51239">
        <ele>1185.5</ele>
        <time>2021-09-07T09:09:35Z</time>
      </trkpt>
      <trkpt lat="44.49753" lon="5.51239">
        <ele>1185.5</ele>
        <time>2021-09-07T09:09:36Z</time>
      </trkpt>
      <trkpt lat="44.49753" lon="5.51239">
        <ele>1185.5</ele>
        <time>2021-09-07T09:09:37Z</time>
      </trkpt>
      <trkpt lat="44.49753" lon="5.51239">
        <ele>1185.5</ele>
        <time>2021-09-07T09:09:38Z</time>
      </trkpt>
      <trkpt lat="44.49753" lon="5.51239">
        <ele>1185.5</ele>
        <time>2021-09-07T09:09:39Z</time>
      </trkpt>
      <trkpt lat="44.49753" lon="5.51239">
        <ele>1185.5</ele>
        <time>2021-09-07T09:09:40Z</time>
      </trkpt>
      <trkpt lat="44.49753" lon="5.51238">
        <ele>1185.6</ele>
        <time>2021-09-07T09:09:41Z</time>
      </trkpt>
      <trkpt lat="44.49753" lon="5.51238">
        <ele>1185.6</ele>
        <time>2021-09-07T09:09:42Z</time>
      </trkpt>
      <trkpt lat="44.49753" lon="5.51238">
        <ele>1185.6</ele>
        <time>2021-09-07T09:09:43Z</time>
      </trkpt>
      <trkpt lat="44.49753" lon="5.51238">
        <ele>1185.6</ele>
        <time>2021-09-07T09:09:44Z</time>
      </trkpt>
      <trkpt lat="44.49753" lon="5.51238">
        <ele>1185.6</ele>
        <time>2021-09-07T09:09:45Z</time>
      </trkpt>
      <trkpt lat="44.49753" lon="5.51238">
        <ele>1185.6</ele>
        <time>2021-09-07T09:09:46Z</time>
      </trkpt>
      <trkpt lat="44.49753" lon="5.51238">
        <ele>1185.6</ele>
        <time>2021-09-07T09:09:47Z</time>
      </trkpt>
      <trkpt lat="44.49753" lon="5.51238">
        <ele>1185.6</ele>
        <time>2021-09-07T09:09:48Z</time>
      </trkpt>
      <trkpt lat="44.49753" lon="5.51238">
        <ele>1185.6</ele>
        <time>2021-09-07T09:09:49Z</time>
      </trkpt>
      <trkpt lat="44.49753" lon="5.51238">
        <ele>1185.7</ele>
        <time>2021-09-07T09:09:50Z</time>
      </trkpt>
      <trkpt lat="44.49752" lon="5.51238">
        <ele>1185.7</ele>
        <time>2021-09-07T09:09:51Z</time>
      </trkpt>
      <trkpt lat="44.49752" lon="5.51238">
        <ele>1185.7</ele>
        <time>2021-09-07T09:09:52Z</time>
      </trkpt>
      <trkpt lat="44.49752" lon="5.51238">
        <ele>1185.7</ele>
        <time>2021-09-07T09:09:53Z</time>
      </trkpt>
      <trkpt lat="44.49752" lon="5.51238">
        <ele>1185.7</ele>
        <time>2021-09-07T09:09:54Z</time>
      </trkpt>
      <trkpt lat="44.49752" lon="5.51238">
        <ele>1185.7</ele>
        <time>2021-09-07T09:09:55Z</time>
      </trkpt>
      <trkpt lat="44.49752" lon="5.51238">
        <ele>1185.7</ele>
        <time>2021-09-07T09:09:56Z</time>
      </trkpt>
      <trkpt lat="44.49752" lon="5.51238">
        <ele>1185.7</ele>
        <time>2021-09-07T09:09:57Z</time>
      </trkpt>
      <trkpt lat="44.49752" lon="5.51238">
        <ele>1185.8</ele>
        <time>2021-09-07T09:09:58Z</time>
      </trkpt>
      <trkpt lat="44.49753" lon="5.51237">
        <ele>1185.8</ele>
        <time>2021-09-07T09:09:59Z</time>
      </trkpt>
      <trkpt lat="44.49753" lon="5.51237">
        <ele>1185.9</ele>
        <time>2021-09-07T09:10:00Z</time>
      </trkpt>
      <trkpt lat="44.49753" lon="5.51236">
        <ele>1186</ele>
        <time>2021-09-07T09:10:01Z</time>
      </trkpt>
      <trkpt lat="44.49753" lon="5.51235">
        <ele>1186.1</ele>
        <time>2021-09-07T09:10:02Z</time>
      </trkpt>
      <trkpt lat="44.49754" lon="5.51234">
        <ele>1186.3</ele>
        <time>2021-09-07T09:10:03Z</time>
      </trkpt>
      <trkpt lat="44.49755" lon="5.51233">
        <ele>1186.4</ele>
        <time>2021-09-07T09:10:04Z</time>
      </trkpt>
      <trkpt lat="44.49755" lon="5.51232">
        <ele>1186.5</ele>
        <time>2021-09-07T09:10:05Z</time>
      </trkpt>
      <trkpt lat="44.49755" lon="5.5123">
        <ele>1186.7</ele>
        <time>2021-09-07T09:10:06Z</time>
      </trkpt>
      <trkpt lat="44.49756" lon="5.51229">
        <ele>1186.9</ele>
        <time>2021-09-07T09:10:07Z</time>
      </trkpt>
      <trkpt lat="44.49757" lon="5.51228">
        <ele>1187.1</ele>
        <time>2021-09-07T09:10:08Z</time>
      </trkpt>
      <trkpt lat="44.49757" lon="5.51227">
        <ele>1187.2</ele>
        <time>2021-09-07T09:10:09Z</time>
      </trkpt>
      <trkpt lat="44.49757" lon="5.51225">
        <ele>1187.4</ele>
        <time>2021-09-07T09:10:10Z</time>
      </trkpt>
      <trkpt lat="44.49757" lon="5.51223">
        <ele>1187.6</ele>
        <time>2021-09-07T09:10:11Z</time>
      </trkpt>
      <trkpt lat="44.49757" lon="5.51221">
        <ele>1187.8</ele>
        <time>2021-09-07T09:10:12Z</time>
      </trkpt>
      <trkpt lat="44.49757" lon="5.51219">
        <ele>1188</ele>
        <time>2021-09-07T09:10:13Z</time>
      </trkpt>
      <trkpt lat="44.49758" lon="5.51217">
        <ele>1188.1</ele>
        <time>2021-09-07T09:10:14Z</time>
      </trkpt>
      <trkpt lat="44.49758" lon="5.51215">
        <ele>1188.3</ele>
        <time>2021-09-07T09:10:15Z</time>
      </trkpt>
      <trkpt lat="44.49758" lon="5.51212">
        <ele>1188.6</ele>
        <time>2021-09-07T09:10:16Z</time>
      </trkpt>
      <trkpt lat="44.49758" lon="5.51209">
        <ele>1188.9</ele>
        <time>2021-09-07T09:10:17Z</time>
      </trkpt>
      <trkpt lat="44.49758" lon="5.51206">
        <ele>1189.1</ele>
        <time>2021-09-07T09:10:18Z</time>
      </trkpt>
      <trkpt lat="44.49758" lon="5.51206">
        <ele>1189.1</ele>
        <time>2021-09-07T09:10:19Z</time>
      </trkpt>
      <trkpt lat="44.49758" lon="5.51206">
        <ele>1189.2</ele>
        <time>2021-09-07T09:10:20Z</time>
      </trkpt>
      <trkpt lat="44.49758" lon="5.51205">
        <ele>1189.2</ele>
        <time>2021-09-07T09:10:21Z</time>
      </trkpt>
      <trkpt lat="44.49757" lon="5.51202">
        <ele>1189.5</ele>
        <time>2021-09-07T09:10:22Z</time>
      </trkpt>
      <trkpt lat="44.49756" lon="5.51201">
        <ele>1189.7</ele>
        <time>2021-09-07T09:10:23Z</time>
      </trkpt>
      <trkpt lat="44.49756" lon="5.51201">
        <ele>1189.7</ele>
        <time>2021-09-07T09:10:24Z</time>
      </trkpt>
      <trkpt lat="44.49756" lon="5.51201">
        <ele>1189.7</ele>
        <time>2021-09-07T09:10:25Z</time>
      </trkpt>
      <trkpt lat="44.49756" lon="5.51201">
        <ele>1189.7</ele>
        <time>2021-09-07T09:10:26Z</time>
      </trkpt>
      <trkpt lat="44.49756" lon="5.51201">
        <ele>1189.7</ele>
        <time>2021-09-07T09:10:27Z</time>
      </trkpt>
      <trkpt lat="44.49756" lon="5.51201">
        <ele>1189.7</ele>
        <time>2021-09-07T09:10:28Z</time>
      </trkpt>
      <trkpt lat="44.49756" lon="5.51201">
        <ele>1189.7</ele>
        <time>2021-09-07T09:10:29Z</time>
      </trkpt>
      <trkpt lat="44.49756" lon="5.51201">
        <ele>1189.7</ele>
        <time>2021-09-07T09:10:30Z</time>
      </trkpt>
      <trkpt lat="44.49756" lon="5.512">
        <ele>1189.7</ele>
        <time>2021-09-07T09:10:31Z</time>
      </trkpt>
      <trkpt lat="44.49756" lon="5.512">
        <ele>1189.7</ele>
        <time>2021-09-07T09:10:32Z</time>
      </trkpt>
      <trkpt lat="44.49756" lon="5.512">
        <ele>1189.7</ele>
        <time>2021-09-07T09:10:33Z</time>
      </trkpt>
      <trkpt lat="44.49756" lon="5.512">
        <ele>1189.7</ele>
        <time>2021-09-07T09:10:34Z</time>
      </trkpt>
      <trkpt lat="44.49756" lon="5.512">
        <ele>1189.7</ele>
        <time>2021-09-07T09:10:35Z</time>
      </trkpt>
      <trkpt lat="44.49756" lon="5.512">
        <ele>1189.7</ele>
        <time>2021-09-07T09:10:36Z</time>
      </trkpt>
      <trkpt lat="44.49756" lon="5.512">
        <ele>1189.7</ele>
        <time>2021-09-07T09:10:37Z</time>
      </trkpt>
      <trkpt lat="44.49756" lon="5.512">
        <ele>1189.7</ele>
        <time>2021-09-07T09:10:38Z</time>
      </trkpt>
      <trkpt lat="44.49756" lon="5.512">
        <ele>1189.7</ele>
        <time>2021-09-07T09:10:39Z</time>
      </trkpt>
      <trkpt lat="44.49756" lon="5.512">
        <ele>1189.7</ele>
        <time>2021-09-07T09:10:40Z</time>
      </trkpt>
      <trkpt lat="44.49756" lon="5.512">
        <ele>1189.7</ele>
        <time>2021-09-07T09:10:41Z</time>
      </trkpt>
      <trkpt lat="44.49756" lon="5.512">
        <ele>1189.7</ele>
        <time>2021-09-07T09:10:42Z</time>
      </trkpt>
      <trkpt lat="44.49756" lon="5.512">
        <ele>1189.7</ele>
        <time>2021-09-07T09:10:43Z</time>
      </trkpt>
      <trkpt lat="44.49756" lon="5.512">
        <ele>1189.7</ele>
        <time>2021-09-07T09:10:44Z</time>
      </trkpt>
      <trkpt lat="44.49756" lon="5.512">
        <ele>1189.7</ele>
        <time>2021-09-07T09:10:45Z</time>
      </trkpt>
      <trkpt lat="44.49756" lon="5.512">
        <ele>1189.7</ele>
        <time>2021-09-07T09:10:46Z</time>
      </trkpt>
      <trkpt lat="44.49756" lon="5.512">
        <ele>1189.7</ele>
        <time>2021-09-07T09:10:47Z</time>
      </trkpt>
      <trkpt lat="44.49756" lon="5.512">
        <ele>1189.7</ele>
        <time>2021-09-07T09:10:48Z</time>
      </trkpt>
      <trkpt lat="44.49756" lon="5.512">
        <ele>1189.7</ele>
        <time>2021-09-07T09:10:49Z</time>
      </trkpt>
      <trkpt lat="44.49756" lon="5.512">
        <ele>1189.7</ele>
        <time>2021-09-07T09:10:50Z</time>
      </trkpt>
      <trkpt lat="44.49756" lon="5.512">
        <ele>1189.7</ele>
        <time>2021-09-07T09:10:51Z</time>
      </trkpt>
      <trkpt lat="44.49756" lon="5.512">
        <ele>1189.7</ele>
        <time>2021-09-07T09:10:52Z</time>
      </trkpt>
      <trkpt lat="44.49756" lon="5.512">
        <ele>1189.7</ele>
        <time>2021-09-07T09:10:53Z</time>
      </trkpt>
      <trkpt lat="44.49756" lon="5.512">
        <ele>1189.7</ele>
        <time>2021-09-07T09:10:54Z</time>
      </trkpt>
      <trkpt lat="44.49756" lon="5.512">
        <ele>1189.7</ele>
        <time>2021-09-07T09:10:55Z</time>
      </trkpt>
      <trkpt lat="44.49756" lon="5.512">
        <ele>1189.7</ele>
        <time>2021-09-07T09:10:56Z</time>
      </trkpt>
      <trkpt lat="44.49756" lon="5.512">
        <ele>1189.7</ele>
        <time>2021-09-07T09:10:57Z</time>
      </trkpt>
      <trkpt lat="44.49756" lon="5.512">
        <ele>1189.7</ele>
        <time>2021-09-07T09:10:58Z</time>
      </trkpt>
      <trkpt lat="44.49756" lon="5.512">
        <ele>1189.7</ele>
        <time>2021-09-07T09:10:59Z</time>
      </trkpt>
      <trkpt lat="44.49756" lon="5.512">
        <ele>1189.7</ele>
        <time>2021-09-07T09:11:00Z</time>
      </trkpt>
      <trkpt lat="44.49756" lon="5.512">
        <ele>1189.7</ele>
        <time>2021-09-07T09:11:01Z</time>
      </trkpt>
      <trkpt lat="44.49756" lon="5.512">
        <ele>1189.7</ele>
        <time>2021-09-07T09:11:02Z</time>
      </trkpt>
      <trkpt lat="44.49756" lon="5.512">
        <ele>1189.7</ele>
        <time>2021-09-07T09:11:03Z</time>
      </trkpt>
      <trkpt lat="44.49756" lon="5.512">
        <ele>1189.7</ele>
        <time>2021-09-07T09:11:04Z</time>
      </trkpt>
      <trkpt lat="44.49756" lon="5.512">
        <ele>1189.7</ele>
        <time>2021-09-07T09:11:05Z</time>
      </trkpt>
      <trkpt lat="44.49756" lon="5.512">
        <ele>1189.7</ele>
        <time>2021-09-07T09:11:06Z</time>
      </trkpt>
      <trkpt lat="44.49756" lon="5.512">
        <ele>1189.7</ele>
        <time>2021-09-07T09:11:07Z</time>
      </trkpt>
      <trkpt lat="44.49756" lon="5.512">
        <ele>1189.7</ele>
        <time>2021-09-07T09:11:08Z</time>
      </trkpt>
      <trkpt lat="44.49756" lon="5.512">
        <ele>1189.7</ele>
        <time>2021-09-07T09:11:09Z</time>
      </trkpt>
      <trkpt lat="44.49756" lon="5.512">
        <ele>1189.7</ele>
        <time>2021-09-07T09:11:10Z</time>
      </trkpt>
      <trkpt lat="44.49756" lon="5.512">
        <ele>1189.7</ele>
        <time>2021-09-07T09:11:11Z</time>
      </trkpt>
      <trkpt lat="44.49756" lon="5.512">
        <ele>1189.7</ele>
        <time>2021-09-07T09:11:12Z</time>
      </trkpt>
      <trkpt lat="44.49756" lon="5.512">
        <ele>1189.7</ele>
        <time>2021-09-07T09:11:13Z</time>
      </trkpt>
      <trkpt lat="44.49756" lon="5.512">
        <ele>1189.7</ele>
        <time>2021-09-07T09:11:14Z</time>
      </trkpt>
      <trkpt lat="44.49756" lon="5.512">
        <ele>1189.7</ele>
        <time>2021-09-07T09:11:15Z</time>
      </trkpt>
      <trkpt lat="44.49756" lon="5.512">
        <ele>1189.7</ele>
        <time>2021-09-07T09:11:16Z</time>
      </trkpt>
      <trkpt lat="44.49756" lon="5.512">
        <ele>1189.7</ele>
        <time>2021-09-07T09:11:17Z</time>
      </trkpt>
      <trkpt lat="44.49756" lon="5.512">
        <ele>1189.7</ele>
        <time>2021-09-07T09:11:18Z</time>
      </trkpt>
      <trkpt lat="44.49756" lon="5.512">
        <ele>1189.7</ele>
        <time>2021-09-07T09:11:19Z</time>
      </trkpt>
      <trkpt lat="44.49756" lon="5.512">
        <ele>1189.7</ele>
        <time>2021-09-07T09:11:20Z</time>
      </trkpt>
      <trkpt lat="44.49756" lon="5.512">
        <ele>1189.7</ele>
        <time>2021-09-07T09:11:21Z</time>
      </trkpt>
      <trkpt lat="44.49756" lon="5.512">
        <ele>1189.7</ele>
        <time>2021-09-07T09:11:22Z</time>
      </trkpt>
      <trkpt lat="44.49756" lon="5.512">
        <ele>1189.7</ele>
        <time>2021-09-07T09:11:23Z</time>
      </trkpt>
      <trkpt lat="44.49756" lon="5.512">
        <ele>1189.7</ele>
        <time>2021-09-07T09:11:24Z</time>
      </trkpt>
      <trkpt lat="44.49756" lon="5.512">
        <ele>1189.7</ele>
        <time>2021-09-07T09:11:25Z</time>
      </trkpt>
      <trkpt lat="44.49756" lon="5.512">
        <ele>1189.7</ele>
        <time>2021-09-07T09:11:26Z</time>
      </trkpt>
      <trkpt lat="44.49756" lon="5.512">
        <ele>1189.7</ele>
        <time>2021-09-07T09:11:27Z</time>
      </trkpt>
      <trkpt lat="44.49756" lon="5.512">
        <ele>1189.7</ele>
        <time>2021-09-07T09:11:28Z</time>
      </trkpt>
      <trkpt lat="44.49756" lon="5.512">
        <ele>1189.7</ele>
        <time>2021-09-07T09:11:29Z</time>
      </trkpt>
      <trkpt lat="44.49756" lon="5.512">
        <ele>1189.7</ele>
        <time>2021-09-07T09:11:30Z</time>
      </trkpt>
      <trkpt lat="44.49756" lon="5.512">
        <ele>1189.7</ele>
        <time>2021-09-07T09:11:31Z</time>
      </trkpt>
      <trkpt lat="44.49756" lon="5.512">
        <ele>1189.7</ele>
        <time>2021-09-07T09:11:32Z</time>
      </trkpt>
      <trkpt lat="44.49756" lon="5.512">
        <ele>1189.7</ele>
        <time>2021-09-07T09:11:33Z</time>
      </trkpt>
      <trkpt lat="44.49756" lon="5.512">
        <ele>1189.7</ele>
        <time>2021-09-07T09:11:34Z</time>
      </trkpt>
      <trkpt lat="44.49756" lon="5.512">
        <ele>1189.7</ele>
        <time>2021-09-07T09:11:35Z</time>
      </trkpt>
      <trkpt lat="44.49756" lon="5.512">
        <ele>1189.7</ele>
        <time>2021-09-07T09:11:36Z</time>
      </trkpt>
      <trkpt lat="44.49756" lon="5.512">
        <ele>1189.7</ele>
        <time>2021-09-07T09:11:37Z</time>
      </trkpt>
      <trkpt lat="44.49756" lon="5.512">
        <ele>1189.7</ele>
        <time>2021-09-07T09:11:38Z</time>
      </trkpt>
      <trkpt lat="44.49756" lon="5.512">
        <ele>1189.7</ele>
        <time>2021-09-07T09:11:39Z</time>
      </trkpt>
      <trkpt lat="44.49756" lon="5.512">
        <ele>1189.7</ele>
        <time>2021-09-07T09:11:40Z</time>
      </trkpt>
      <trkpt lat="44.49756" lon="5.512">
        <ele>1189.7</ele>
        <time>2021-09-07T09:11:41Z</time>
      </trkpt>
      <trkpt lat="44.49756" lon="5.512">
        <ele>1189.7</ele>
        <time>2021-09-07T09:11:42Z</time>
      </trkpt>
      <trkpt lat="44.49756" lon="5.512">
        <ele>1189.7</ele>
        <time>2021-09-07T09:11:43Z</time>
      </trkpt>
      <trkpt lat="44.49756" lon="5.512">
        <ele>1189.7</ele>
        <time>2021-09-07T09:11:44Z</time>
      </trkpt>
      <trkpt lat="44.49756" lon="5.51197">
        <ele>1190</ele>
        <time>2021-09-07T09:11:45Z</time>
      </trkpt>
      <trkpt lat="44.49756" lon="5.51196">
        <ele>1190.1</ele>
        <time>2021-09-07T09:11:46Z</time>
      </trkpt>
      <trkpt lat="44.49756" lon="5.51194">
        <ele>1190.3</ele>
        <time>2021-09-07T09:11:47Z</time>
      </trkpt>
      <trkpt lat="44.49756" lon="5.51194">
        <ele>1190.3</ele>
        <time>2021-09-07T09:11:48Z</time>
      </trkpt>
      <trkpt lat="44.49756" lon="5.51194">
        <ele>1190.3</ele>
        <time>2021-09-07T09:11:49Z</time>
      </trkpt>
      <trkpt lat="44.49756" lon="5.51194">
        <ele>1190.3</ele>
        <time>2021-09-07T09:11:50Z</time>
      </trkpt>
      <trkpt lat="44.49756" lon="5.51194">
        <ele>1190.3</ele>
        <time>2021-09-07T09:11:51Z</time>
      </trkpt>
      <trkpt lat="44.49756" lon="5.51194">
        <ele>1190.3</ele>
        <time>2021-09-07T09:11:52Z</time>
      </trkpt>
      <trkpt lat="44.49755" lon="5.51194">
        <ele>1190.4</ele>
        <time>2021-09-07T09:11:53Z</time>
      </trkpt>
      <trkpt lat="44.49754" lon="5.51193">
        <ele>1190.5</ele>
        <time>2021-09-07T09:11:54Z</time>
      </trkpt>
      <trkpt lat="44.49752" lon="5.51192">
        <ele>1190.8</ele>
        <time>2021-09-07T09:11:55Z</time>
      </trkpt>
      <trkpt lat="44.4975" lon="5.51191">
        <ele>1191</ele>
        <time>2021-09-07T09:11:56Z</time>
      </trkpt>
      <trkpt lat="44.49748" lon="5.51191">
        <ele>1191.3</ele>
        <time>2021-09-07T09:11:57Z</time>
      </trkpt>
      <trkpt lat="44.49748" lon="5.51191">
        <ele>1191.3</ele>
        <time>2021-09-07T09:11:58Z</time>
      </trkpt>
      <trkpt lat="44.49748" lon="5.5119">
        <ele>1191.4</ele>
        <time>2021-09-07T09:11:59Z</time>
      </trkpt>
      <trkpt lat="44.49747" lon="5.5119">
        <ele>1191.5</ele>
        <time>2021-09-07T09:12:00Z</time>
      </trkpt>
      <trkpt lat="44.49747" lon="5.5119">
        <ele>1191.5</ele>
        <time>2021-09-07T09:12:01Z</time>
      </trkpt>
      <trkpt lat="44.49747" lon="5.5119">
        <ele>1191.5</ele>
        <time>2021-09-07T09:12:02Z</time>
      </trkpt>
      <trkpt lat="44.49746" lon="5.5119">
        <ele>1191.6</ele>
        <time>2021-09-07T09:12:03Z</time>
      </trkpt>
      <trkpt lat="44.49745" lon="5.51191">
        <ele>1191.7</ele>
        <time>2021-09-07T09:12:04Z</time>
      </trkpt>
      <trkpt lat="44.49745" lon="5.51191">
        <ele>1191.7</ele>
        <time>2021-09-07T09:12:05Z</time>
      </trkpt>
      <trkpt lat="44.49744" lon="5.51191">
        <ele>1191.9</ele>
        <time>2021-09-07T09:12:06Z</time>
      </trkpt>
      <trkpt lat="44.49744" lon="5.51191">
        <ele>1191.9</ele>
        <time>2021-09-07T09:12:07Z</time>
      </trkpt>
      <trkpt lat="44.49743" lon="5.51191">
        <ele>1192</ele>
        <time>2021-09-07T09:12:08Z</time>
      </trkpt>
      <trkpt lat="44.49743" lon="5.51191">
        <ele>1192</ele>
        <time>2021-09-07T09:12:09Z</time>
      </trkpt>
      <trkpt lat="44.49743" lon="5.51191">
        <ele>1192</ele>
        <time>2021-09-07T09:12:10Z</time>
      </trkpt>
      <trkpt lat="44.49742" lon="5.51191">
        <ele>1192.1</ele>
        <time>2021-09-07T09:12:11Z</time>
      </trkpt>
      <trkpt lat="44.49742" lon="5.51191">
        <ele>1192.1</ele>
        <time>2021-09-07T09:12:12Z</time>
      </trkpt>
      <trkpt lat="44.49742" lon="5.51191">
        <ele>1192.1</ele>
        <time>2021-09-07T09:12:13Z</time>
      </trkpt>
      <trkpt lat="44.49742" lon="5.51191">
        <ele>1192.1</ele>
        <time>2021-09-07T09:12:14Z</time>
      </trkpt>
      <trkpt lat="44.49742" lon="5.51191">
        <ele>1192.1</ele>
        <time>2021-09-07T09:12:15Z</time>
      </trkpt>
      <trkpt lat="44.49742" lon="5.51191">
        <ele>1192.1</ele>
        <time>2021-09-07T09:12:16Z</time>
      </trkpt>
      <trkpt lat="44.49742" lon="5.51191">
        <ele>1192.1</ele>
        <time>2021-09-07T09:12:17Z</time>
      </trkpt>
      <trkpt lat="44.49742" lon="5.51191">
        <ele>1192.1</ele>
        <time>2021-09-07T09:12:18Z</time>
      </trkpt>
      <trkpt lat="44.49742" lon="5.51191">
        <ele>1192.1</ele>
        <time>2021-09-07T09:12:19Z</time>
      </trkpt>
      <trkpt lat="44.49742" lon="5.51191">
        <ele>1192.1</ele>
        <time>2021-09-07T09:12:20Z</time>
      </trkpt>
      <trkpt lat="44.49742" lon="5.51191">
        <ele>1192.1</ele>
        <time>2021-09-07T09:12:21Z</time>
      </trkpt>
      <trkpt lat="44.49742" lon="5.5119">
        <ele>1192.2</ele>
        <time>2021-09-07T09:12:22Z</time>
      </trkpt>
      <trkpt lat="44.49741" lon="5.51188">
        <ele>1192.4</ele>
        <time>2021-09-07T09:12:23Z</time>
      </trkpt>
      <trkpt lat="44.4974" lon="5.51186">
        <ele>1192.6</ele>
        <time>2021-09-07T09:12:24Z</time>
      </trkpt>
      <trkpt lat="44.49739" lon="5.51184">
        <ele>1192.8</ele>
        <time>2021-09-07T09:12:25Z</time>
      </trkpt>
      <trkpt lat="44.49737" lon="5.51181">
        <ele>1193.1</ele>
        <time>2021-09-07T09:12:26Z</time>
      </trkpt>
      <trkpt lat="44.49736" lon="5.51179">
        <ele>1193.3</ele>
        <time>2021-09-07T09:12:27Z</time>
      </trkpt>
      <trkpt lat="44.49735" lon="5.51178">
        <ele>1193.4</ele>
        <time>2021-09-07T09:12:28Z</time>
      </trkpt>
      <trkpt lat="44.49734" lon="5.51177">
        <ele>1193.5</ele>
        <time>2021-09-07T09:12:29Z</time>
      </trkpt>
      <trkpt lat="44.49733" lon="5.51175">
        <ele>1193.7</ele>
        <time>2021-09-07T09:12:30Z</time>
      </trkpt>
      <trkpt lat="44.49732" lon="5.51174">
        <ele>1193.9</ele>
        <time>2021-09-07T09:12:31Z</time>
      </trkpt>
      <trkpt lat="44.4973" lon="5.51172">
        <ele>1194</ele>
        <time>2021-09-07T09:12:32Z</time>
      </trkpt>
      <trkpt lat="44.4973" lon="5.51171">
        <ele>1194.1</ele>
        <time>2021-09-07T09:12:33Z</time>
      </trkpt>
      <trkpt lat="44.49729" lon="5.5117">
        <ele>1194.2</ele>
        <time>2021-09-07T09:12:34Z</time>
      </trkpt>
      <trkpt lat="44.49729" lon="5.51169">
        <ele>1194.3</ele>
        <time>2021-09-07T09:12:35Z</time>
      </trkpt>
      <trkpt lat="44.49729" lon="5.51169">
        <ele>1194.3</ele>
        <time>2021-09-07T09:12:36Z</time>
      </trkpt>
      <trkpt lat="44.49729" lon="5.51168">
        <ele>1194.3</ele>
        <time>2021-09-07T09:12:37Z</time>
      </trkpt>
      <trkpt lat="44.49729" lon="5.51168">
        <ele>1194.4</ele>
        <time>2021-09-07T09:12:38Z</time>
      </trkpt>
      <trkpt lat="44.49728" lon="5.51167">
        <ele>1194.4</ele>
        <time>2021-09-07T09:12:39Z</time>
      </trkpt>
      <trkpt lat="44.49728" lon="5.51167">
        <ele>1194.4</ele>
        <time>2021-09-07T09:12:40Z</time>
      </trkpt>
      <trkpt lat="44.49728" lon="5.51167">
        <ele>1194.4</ele>
        <time>2021-09-07T09:12:41Z</time>
      </trkpt>
      <trkpt lat="44.49728" lon="5.51167">
        <ele>1194.4</ele>
        <time>2021-09-07T09:12:42Z</time>
      </trkpt>
      <trkpt lat="44.49728" lon="5.51167">
        <ele>1194.4</ele>
        <time>2021-09-07T09:12:43Z</time>
      </trkpt>
      <trkpt lat="44.49728" lon="5.51166">
        <ele>1194.5</ele>
        <time>2021-09-07T09:12:44Z</time>
      </trkpt>
      <trkpt lat="44.49728" lon="5.51166">
        <ele>1194.5</ele>
        <time>2021-09-07T09:12:45Z</time>
      </trkpt>
      <trkpt lat="44.49727" lon="5.51166">
        <ele>1194.6</ele>
        <time>2021-09-07T09:12:46Z</time>
      </trkpt>
      <trkpt lat="44.49726" lon="5.51165">
        <ele>1194.7</ele>
        <time>2021-09-07T09:12:47Z</time>
      </trkpt>
      <trkpt lat="44.49725" lon="5.51165">
        <ele>1194.8</ele>
        <time>2021-09-07T09:12:48Z</time>
      </trkpt>
      <trkpt lat="44.49724" lon="5.51165">
        <ele>1194.9</ele>
        <time>2021-09-07T09:12:49Z</time>
      </trkpt>
      <trkpt lat="44.49723" lon="5.51165">
        <ele>1195</ele>
        <time>2021-09-07T09:12:50Z</time>
      </trkpt>
      <trkpt lat="44.49721" lon="5.51164">
        <ele>1195.2</ele>
        <time>2021-09-07T09:12:51Z</time>
      </trkpt>
      <trkpt lat="44.49718" lon="5.51163">
        <ele>1195.4</ele>
        <time>2021-09-07T09:12:52Z</time>
      </trkpt>
      <trkpt lat="44.49716" lon="5.51162">
        <ele>1195.6</ele>
        <time>2021-09-07T09:12:53Z</time>
      </trkpt>
      <trkpt lat="44.49714" lon="5.51161">
        <ele>1195.8</ele>
        <time>2021-09-07T09:12:54Z</time>
      </trkpt>
      <trkpt lat="44.49712" lon="5.51159">
        <ele>1195.9</ele>
        <time>2021-09-07T09:12:55Z</time>
      </trkpt>
      <trkpt lat="44.4971" lon="5.51157">
        <ele>1196.1</ele>
        <time>2021-09-07T09:12:56Z</time>
      </trkpt>
      <trkpt lat="44.49709" lon="5.51156">
        <ele>1196.2</ele>
        <time>2021-09-07T09:12:57Z</time>
      </trkpt>
      <trkpt lat="44.49708" lon="5.51155">
        <ele>1196.3</ele>
        <time>2021-09-07T09:12:58Z</time>
      </trkpt>
      <trkpt lat="44.49707" lon="5.51152">
        <ele>1196.4</ele>
        <time>2021-09-07T09:12:59Z</time>
      </trkpt>
      <trkpt lat="44.49707" lon="5.5115">
        <ele>1196.5</ele>
        <time>2021-09-07T09:13:00Z</time>
      </trkpt>
      <trkpt lat="44.49706" lon="5.51148">
        <ele>1196.6</ele>
        <time>2021-09-07T09:13:01Z</time>
      </trkpt>
      <trkpt lat="44.49705" lon="5.51146">
        <ele>1196.8</ele>
        <time>2021-09-07T09:13:02Z</time>
      </trkpt>
      <trkpt lat="44.49706" lon="5.51142">
        <ele>1197</ele>
        <time>2021-09-07T09:13:03Z</time>
      </trkpt>
      <trkpt lat="44.49705" lon="5.51139">
        <ele>1197.2</ele>
        <time>2021-09-07T09:13:04Z</time>
      </trkpt>
      <trkpt lat="44.49704" lon="5.51137">
        <ele>1197.3</ele>
        <time>2021-09-07T09:13:05Z</time>
      </trkpt>
      <trkpt lat="44.49703" lon="5.51134">
        <ele>1197.5</ele>
        <time>2021-09-07T09:13:06Z</time>
      </trkpt>
      <trkpt lat="44.49703" lon="5.51132">
        <ele>1197.6</ele>
        <time>2021-09-07T09:13:07Z</time>
      </trkpt>
      <trkpt lat="44.49702" lon="5.5113">
        <ele>1197.8</ele>
        <time>2021-09-07T09:13:08Z</time>
      </trkpt>
      <trkpt lat="44.497" lon="5.51127">
        <ele>1198</ele>
        <time>2021-09-07T09:13:09Z</time>
      </trkpt>
      <trkpt lat="44.497" lon="5.51125">
        <ele>1198.2</ele>
        <time>2021-09-07T09:13:10Z</time>
      </trkpt>
      <trkpt lat="44.497" lon="5.51123">
        <ele>1198.3</ele>
        <time>2021-09-07T09:13:11Z</time>
      </trkpt>
      <trkpt lat="44.497" lon="5.5112">
        <ele>1198.5</ele>
        <time>2021-09-07T09:13:12Z</time>
      </trkpt>
      <trkpt lat="44.49701" lon="5.51118">
        <ele>1198.6</ele>
        <time>2021-09-07T09:13:13Z</time>
      </trkpt>
      <trkpt lat="44.49701" lon="5.51116">
        <ele>1198.7</ele>
        <time>2021-09-07T09:13:14Z</time>
      </trkpt>
      <trkpt lat="44.49701" lon="5.51113">
        <ele>1198.9</ele>
        <time>2021-09-07T09:13:15Z</time>
      </trkpt>
      <trkpt lat="44.497" lon="5.51111">
        <ele>1199.1</ele>
        <time>2021-09-07T09:13:16Z</time>
      </trkpt>
      <trkpt lat="44.497" lon="5.51108">
        <ele>1199.3</ele>
        <time>2021-09-07T09:13:17Z</time>
      </trkpt>
      <trkpt lat="44.49699" lon="5.51106">
        <ele>1199.4</ele>
        <time>2021-09-07T09:13:18Z</time>
      </trkpt>
      <trkpt lat="44.49698" lon="5.51104">
        <ele>1199.5</ele>
        <time>2021-09-07T09:13:19Z</time>
      </trkpt>
      <trkpt lat="44.49697" lon="5.51102">
        <ele>1199.7</ele>
        <time>2021-09-07T09:13:20Z</time>
      </trkpt>
      <trkpt lat="44.49697" lon="5.51101">
        <ele>1199.7</ele>
        <time>2021-09-07T09:13:21Z</time>
      </trkpt>
      <trkpt lat="44.49697" lon="5.51099">
        <ele>1199.8</ele>
        <time>2021-09-07T09:13:22Z</time>
      </trkpt>
      <trkpt lat="44.49698" lon="5.51095">
        <ele>1200</ele>
        <time>2021-09-07T09:13:23Z</time>
      </trkpt>
      <trkpt lat="44.49698" lon="5.51093">
        <ele>1200.1</ele>
        <time>2021-09-07T09:13:24Z</time>
      </trkpt>
      <trkpt lat="44.49698" lon="5.51091">
        <ele>1200.2</ele>
        <time>2021-09-07T09:13:25Z</time>
      </trkpt>
      <trkpt lat="44.49697" lon="5.51087">
        <ele>1200.4</ele>
        <time>2021-09-07T09:13:26Z</time>
      </trkpt>
      <trkpt lat="44.49697" lon="5.51088">
        <ele>1200.5</ele>
        <time>2021-09-07T09:13:27Z</time>
      </trkpt>
      <trkpt lat="44.49696" lon="5.51088">
        <ele>1200.5</ele>
        <time>2021-09-07T09:13:28Z</time>
      </trkpt>
      <trkpt lat="44.49696" lon="5.51088">
        <ele>1200.5</ele>
        <time>2021-09-07T09:13:29Z</time>
      </trkpt>
      <trkpt lat="44.49696" lon="5.51088">
        <ele>1200.5</ele>
        <time>2021-09-07T09:13:30Z</time>
      </trkpt>
      <trkpt lat="44.49694" lon="5.51089">
        <ele>1200.6</ele>
        <time>2021-09-07T09:13:31Z</time>
      </trkpt>
      <trkpt lat="44.49693" lon="5.51089">
        <ele>1200.7</ele>
        <time>2021-09-07T09:13:32Z</time>
      </trkpt>
      <trkpt lat="44.49692" lon="5.51089">
        <ele>1200.8</ele>
        <time>2021-09-07T09:13:33Z</time>
      </trkpt>
      <trkpt lat="44.49691" lon="5.51089">
        <ele>1200.8</ele>
        <time>2021-09-07T09:13:34Z</time>
      </trkpt>
      <trkpt lat="44.49691" lon="5.51089">
        <ele>1200.8</ele>
        <time>2021-09-07T09:13:35Z</time>
      </trkpt>
      <trkpt lat="44.49691" lon="5.51089">
        <ele>1200.8</ele>
        <time>2021-09-07T09:13:36Z</time>
      </trkpt>
      <trkpt lat="44.4969" lon="5.51089">
        <ele>1200.9</ele>
        <time>2021-09-07T09:13:37Z</time>
      </trkpt>
      <trkpt lat="44.49691" lon="5.51089">
        <ele>1200.9</ele>
        <time>2021-09-07T09:13:38Z</time>
      </trkpt>
      <trkpt lat="44.49691" lon="5.51088">
        <ele>1201</ele>
        <time>2021-09-07T09:13:39Z</time>
      </trkpt>
      <trkpt lat="44.49691" lon="5.51087">
        <ele>1201</ele>
        <time>2021-09-07T09:13:40Z</time>
      </trkpt>
      <trkpt lat="44.49691" lon="5.51087">
        <ele>1201</ele>
        <time>2021-09-07T09:13:41Z</time>
      </trkpt>
      <trkpt lat="44.4969" lon="5.51086">
        <ele>1201.1</ele>
        <time>2021-09-07T09:13:42Z</time>
      </trkpt>
      <trkpt lat="44.4969" lon="5.51085">
        <ele>1201.1</ele>
        <time>2021-09-07T09:13:43Z</time>
      </trkpt>
      <trkpt lat="44.49689" lon="5.51084">
        <ele>1201.2</ele>
        <time>2021-09-07T09:13:44Z</time>
      </trkpt>
      <trkpt lat="44.49688" lon="5.51082">
        <ele>1201.3</ele>
        <time>2021-09-07T09:13:45Z</time>
      </trkpt>
      <trkpt lat="44.49687" lon="5.5108">
        <ele>1201.4</ele>
        <time>2021-09-07T09:13:46Z</time>
      </trkpt>
      <trkpt lat="44.49687" lon="5.51079">
        <ele>1201.5</ele>
        <time>2021-09-07T09:13:47Z</time>
      </trkpt>
      <trkpt lat="44.49686" lon="5.51077">
        <ele>1201.5</ele>
        <time>2021-09-07T09:13:48Z</time>
      </trkpt>
      <trkpt lat="44.49685" lon="5.51075">
        <ele>1201.6</ele>
        <time>2021-09-07T09:13:49Z</time>
      </trkpt>
      <trkpt lat="44.49684" lon="5.51072">
        <ele>1201.8</ele>
        <time>2021-09-07T09:13:50Z</time>
      </trkpt>
      <trkpt lat="44.49684" lon="5.51071">
        <ele>1201.8</ele>
        <time>2021-09-07T09:13:51Z</time>
      </trkpt>
      <trkpt lat="44.49683" lon="5.51069">
        <ele>1201.9</ele>
        <time>2021-09-07T09:13:52Z</time>
      </trkpt>
      <trkpt lat="44.49682" lon="5.51066">
        <ele>1202</ele>
        <time>2021-09-07T09:13:53Z</time>
      </trkpt>
      <trkpt lat="44.49681" lon="5.51064">
        <ele>1202.1</ele>
        <time>2021-09-07T09:13:54Z</time>
      </trkpt>
      <trkpt lat="44.4968" lon="5.51062">
        <ele>1202.2</ele>
        <time>2021-09-07T09:13:55Z</time>
      </trkpt>
      <trkpt lat="44.4968" lon="5.51061">
        <ele>1202.3</ele>
        <time>2021-09-07T09:13:56Z</time>
      </trkpt>
      <trkpt lat="44.4968" lon="5.5106">
        <ele>1202.3</ele>
        <time>2021-09-07T09:13:57Z</time>
      </trkpt>
      <trkpt lat="44.4968" lon="5.51058">
        <ele>1202.4</ele>
        <time>2021-09-07T09:13:58Z</time>
      </trkpt>
      <trkpt lat="44.4968" lon="5.51057">
        <ele>1202.4</ele>
        <time>2021-09-07T09:13:59Z</time>
      </trkpt>
      <trkpt lat="44.4968" lon="5.51055">
        <ele>1202.5</ele>
        <time>2021-09-07T09:14:00Z</time>
      </trkpt>
      <trkpt lat="44.49681" lon="5.51054">
        <ele>1202.6</ele>
        <time>2021-09-07T09:14:01Z</time>
      </trkpt>
      <trkpt lat="44.49681" lon="5.51052">
        <ele>1202.7</ele>
        <time>2021-09-07T09:14:02Z</time>
      </trkpt>
      <trkpt lat="44.49681" lon="5.51048">
        <ele>1202.8</ele>
        <time>2021-09-07T09:14:03Z</time>
      </trkpt>
      <trkpt lat="44.49681" lon="5.51047">
        <ele>1202.9</ele>
        <time>2021-09-07T09:14:04Z</time>
      </trkpt>
      <trkpt lat="44.49681" lon="5.51046">
        <ele>1202.9</ele>
        <time>2021-09-07T09:14:05Z</time>
      </trkpt>
      <trkpt lat="44.49682" lon="5.51044">
        <ele>1203</ele>
        <time>2021-09-07T09:14:06Z</time>
      </trkpt>
      <trkpt lat="44.49682" lon="5.51044">
        <ele>1203.1</ele>
        <time>2021-09-07T09:14:07Z</time>
      </trkpt>
      <trkpt lat="44.49682" lon="5.51043">
        <ele>1203.1</ele>
        <time>2021-09-07T09:14:08Z</time>
      </trkpt>
      <trkpt lat="44.49682" lon="5.51042">
        <ele>1203.1</ele>
        <time>2021-09-07T09:14:09Z</time>
      </trkpt>
      <trkpt lat="44.49683" lon="5.51041">
        <ele>1203.2</ele>
        <time>2021-09-07T09:14:10Z</time>
      </trkpt>
      <trkpt lat="44.49683" lon="5.5104">
        <ele>1203.2</ele>
        <time>2021-09-07T09:14:11Z</time>
      </trkpt>
      <trkpt lat="44.49683" lon="5.51039">
        <ele>1203.3</ele>
        <time>2021-09-07T09:14:12Z</time>
      </trkpt>
      <trkpt lat="44.49683" lon="5.51037">
        <ele>1203.4</ele>
        <time>2021-09-07T09:14:13Z</time>
      </trkpt>
      <trkpt lat="44.49683" lon="5.51033">
        <ele>1203.6</ele>
        <time>2021-09-07T09:14:14Z</time>
      </trkpt>
      <trkpt lat="44.49684" lon="5.51029">
        <ele>1203.9</ele>
        <time>2021-09-07T09:14:15Z</time>
      </trkpt>
      <trkpt lat="44.49686" lon="5.51025">
        <ele>1204.1</ele>
        <time>2021-09-07T09:14:16Z</time>
      </trkpt>
      <trkpt lat="44.49687" lon="5.51022">
        <ele>1204.4</ele>
        <time>2021-09-07T09:14:17Z</time>
      </trkpt>
      <trkpt lat="44.49688" lon="5.51018">
        <ele>1204.7</ele>
        <time>2021-09-07T09:14:18Z</time>
      </trkpt>
      <trkpt lat="44.49691" lon="5.51011">
        <ele>1205.3</ele>
        <time>2021-09-07T09:14:19Z</time>
      </trkpt>
      <trkpt lat="44.49692" lon="5.51007">
        <ele>1205.6</ele>
        <time>2021-09-07T09:14:20Z</time>
      </trkpt>
      <trkpt lat="44.49692" lon="5.51005">
        <ele>1205.8</ele>
        <time>2021-09-07T09:14:21Z</time>
      </trkpt>
      <trkpt lat="44.49693" lon="5.51004">
        <ele>1205.9</ele>
        <time>2021-09-07T09:14:22Z</time>
      </trkpt>
      <trkpt lat="44.49693" lon="5.51003">
        <ele>1206</ele>
        <time>2021-09-07T09:14:23Z</time>
      </trkpt>
      <trkpt lat="44.49693" lon="5.51001">
        <ele>1206.1</ele>
        <time>2021-09-07T09:14:24Z</time>
      </trkpt>
      <trkpt lat="44.49693" lon="5.51001">
        <ele>1206.2</ele>
        <time>2021-09-07T09:14:25Z</time>
      </trkpt>
      <trkpt lat="44.49693" lon="5.51">
        <ele>1206.2</ele>
        <time>2021-09-07T09:14:26Z</time>
      </trkpt>
      <trkpt lat="44.49694" lon="5.50998">
        <ele>1206.4</ele>
        <time>2021-09-07T09:14:27Z</time>
      </trkpt>
      <trkpt lat="44.49694" lon="5.50997">
        <ele>1206.5</ele>
        <time>2021-09-07T09:14:28Z</time>
      </trkpt>
      <trkpt lat="44.49694" lon="5.50996">
        <ele>1206.5</ele>
        <time>2021-09-07T09:14:29Z</time>
      </trkpt>
      <trkpt lat="44.49694" lon="5.50995">
        <ele>1206.6</ele>
        <time>2021-09-07T09:14:30Z</time>
      </trkpt>
      <trkpt lat="44.49694" lon="5.50995">
        <ele>1206.6</ele>
        <time>2021-09-07T09:14:31Z</time>
      </trkpt>
      <trkpt lat="44.49695" lon="5.50994">
        <ele>1206.7</ele>
        <time>2021-09-07T09:14:32Z</time>
      </trkpt>
      <trkpt lat="44.49695" lon="5.50993">
        <ele>1206.8</ele>
        <time>2021-09-07T09:14:33Z</time>
      </trkpt>
      <trkpt lat="44.49694" lon="5.50989">
        <ele>1207.1</ele>
        <time>2021-09-07T09:14:34Z</time>
      </trkpt>
      <trkpt lat="44.49694" lon="5.50987">
        <ele>1207.2</ele>
        <time>2021-09-07T09:14:35Z</time>
      </trkpt>
      <trkpt lat="44.49694" lon="5.50984">
        <ele>1207.5</ele>
        <time>2021-09-07T09:14:36Z</time>
      </trkpt>
      <trkpt lat="44.49694" lon="5.50981">
        <ele>1207.7</ele>
        <time>2021-09-07T09:14:37Z</time>
      </trkpt>
      <trkpt lat="44.49693" lon="5.50978">
        <ele>1207.9</ele>
        <time>2021-09-07T09:14:38Z</time>
      </trkpt>
      <trkpt lat="44.49692" lon="5.50975">
        <ele>1208.1</ele>
        <time>2021-09-07T09:14:39Z</time>
      </trkpt>
      <trkpt lat="44.49691" lon="5.50973">
        <ele>1208.3</ele>
        <time>2021-09-07T09:14:40Z</time>
      </trkpt>
      <trkpt lat="44.4969" lon="5.5097">
        <ele>1208.5</ele>
        <time>2021-09-07T09:14:41Z</time>
      </trkpt>
      <trkpt lat="44.49689" lon="5.50968">
        <ele>1208.6</ele>
        <time>2021-09-07T09:14:42Z</time>
      </trkpt>
      <trkpt lat="44.49688" lon="5.50964">
        <ele>1208.9</ele>
        <time>2021-09-07T09:14:43Z</time>
      </trkpt>
      <trkpt lat="44.49686" lon="5.5096">
        <ele>1209.2</ele>
        <time>2021-09-07T09:14:44Z</time>
      </trkpt>
      <trkpt lat="44.49684" lon="5.50956">
        <ele>1209.5</ele>
        <time>2021-09-07T09:14:45Z</time>
      </trkpt>
      <trkpt lat="44.49684" lon="5.50956">
        <ele>1209.5</ele>
        <time>2021-09-07T09:14:46Z</time>
      </trkpt>
      <trkpt lat="44.49684" lon="5.50955">
        <ele>1209.6</ele>
        <time>2021-09-07T09:14:47Z</time>
      </trkpt>
      <trkpt lat="44.49683" lon="5.50953">
        <ele>1209.7</ele>
        <time>2021-09-07T09:14:48Z</time>
      </trkpt>
      <trkpt lat="44.49683" lon="5.50952">
        <ele>1209.8</ele>
        <time>2021-09-07T09:14:49Z</time>
      </trkpt>
      <trkpt lat="44.49683" lon="5.50951">
        <ele>1209.9</ele>
        <time>2021-09-07T09:14:50Z</time>
      </trkpt>
      <trkpt lat="44.49682" lon="5.50949">
        <ele>1210</ele>
        <time>2021-09-07T09:14:51Z</time>
      </trkpt>
      <trkpt lat="44.49681" lon="5.50947">
        <ele>1210.2</ele>
        <time>2021-09-07T09:14:52Z</time>
      </trkpt>
      <trkpt lat="44.4968" lon="5.50945">
        <ele>1210.3</ele>
        <time>2021-09-07T09:14:53Z</time>
      </trkpt>
      <trkpt lat="44.4968" lon="5.50944">
        <ele>1210.4</ele>
        <time>2021-09-07T09:14:54Z</time>
      </trkpt>
      <trkpt lat="44.4968" lon="5.50943">
        <ele>1210.4</ele>
        <time>2021-09-07T09:14:55Z</time>
      </trkpt>
      <trkpt lat="44.49679" lon="5.50941">
        <ele>1210.6</ele>
        <time>2021-09-07T09:14:56Z</time>
      </trkpt>
      <trkpt lat="44.49679" lon="5.5094">
        <ele>1210.7</ele>
        <time>2021-09-07T09:14:57Z</time>
      </trkpt>
      <trkpt lat="44.49678" lon="5.50938">
        <ele>1210.8</ele>
        <time>2021-09-07T09:14:58Z</time>
      </trkpt>
      <trkpt lat="44.49677" lon="5.50934">
        <ele>1211.1</ele>
        <time>2021-09-07T09:14:59Z</time>
      </trkpt>
      <trkpt lat="44.49677" lon="5.50933">
        <ele>1211.2</ele>
        <time>2021-09-07T09:15:00Z</time>
      </trkpt>
      <trkpt lat="44.49676" lon="5.50932">
        <ele>1211.3</ele>
        <time>2021-09-07T09:15:01Z</time>
      </trkpt>
      <trkpt lat="44.49675" lon="5.50927">
        <ele>1211.6</ele>
        <time>2021-09-07T09:15:02Z</time>
      </trkpt>
      <trkpt lat="44.49675" lon="5.50926">
        <ele>1211.8</ele>
        <time>2021-09-07T09:15:03Z</time>
      </trkpt>
      <trkpt lat="44.49674" lon="5.50924">
        <ele>1211.9</ele>
        <time>2021-09-07T09:15:04Z</time>
      </trkpt>
      <trkpt lat="44.49673" lon="5.50922">
        <ele>1212.1</ele>
        <time>2021-09-07T09:15:05Z</time>
      </trkpt>
      <trkpt lat="44.49673" lon="5.50921">
        <ele>1212.2</ele>
        <time>2021-09-07T09:15:06Z</time>
      </trkpt>
      <trkpt lat="44.49673" lon="5.50921">
        <ele>1212.2</ele>
        <time>2021-09-07T09:15:07Z</time>
      </trkpt>
      <trkpt lat="44.49672" lon="5.5092">
        <ele>1212.3</ele>
        <time>2021-09-07T09:15:08Z</time>
      </trkpt>
      <trkpt lat="44.49672" lon="5.50918">
        <ele>1212.5</ele>
        <time>2021-09-07T09:15:09Z</time>
      </trkpt>
      <trkpt lat="44.49672" lon="5.50917">
        <ele>1212.6</ele>
        <time>2021-09-07T09:15:10Z</time>
      </trkpt>
      <trkpt lat="44.49671" lon="5.50915">
        <ele>1212.7</ele>
        <time>2021-09-07T09:15:11Z</time>
      </trkpt>
      <trkpt lat="44.4967" lon="5.50913">
        <ele>1212.9</ele>
        <time>2021-09-07T09:15:12Z</time>
      </trkpt>
      <trkpt lat="44.49669" lon="5.50911">
        <ele>1213.1</ele>
        <time>2021-09-07T09:15:13Z</time>
      </trkpt>
      <trkpt lat="44.49668" lon="5.50908">
        <ele>1213.4</ele>
        <time>2021-09-07T09:15:14Z</time>
      </trkpt>
      <trkpt lat="44.49668" lon="5.50907">
        <ele>1213.5</ele>
        <time>2021-09-07T09:15:15Z</time>
      </trkpt>
      <trkpt lat="44.49667" lon="5.50905">
        <ele>1213.7</ele>
        <time>2021-09-07T09:15:16Z</time>
      </trkpt>
      <trkpt lat="44.49666" lon="5.50903">
        <ele>1213.9</ele>
        <time>2021-09-07T09:15:17Z</time>
      </trkpt>
      <trkpt lat="44.49664" lon="5.50902">
        <ele>1214.1</ele>
        <time>2021-09-07T09:15:18Z</time>
      </trkpt>
      <trkpt lat="44.49663" lon="5.509">
        <ele>1214.3</ele>
        <time>2021-09-07T09:15:19Z</time>
      </trkpt>
      <trkpt lat="44.49662" lon="5.50898">
        <ele>1214.5</ele>
        <time>2021-09-07T09:15:20Z</time>
      </trkpt>
      <trkpt lat="44.49661" lon="5.50896">
        <ele>1214.6</ele>
        <time>2021-09-07T09:15:21Z</time>
      </trkpt>
      <trkpt lat="44.4966" lon="5.50892">
        <ele>1214.9</ele>
        <time>2021-09-07T09:15:22Z</time>
      </trkpt>
      <trkpt lat="44.49658" lon="5.50888">
        <ele>1215.2</ele>
        <time>2021-09-07T09:15:23Z</time>
      </trkpt>
      <trkpt lat="44.49657" lon="5.50887">
        <ele>1215.4</ele>
        <time>2021-09-07T09:15:24Z</time>
      </trkpt>
      <trkpt lat="44.49656" lon="5.50885">
        <ele>1215.5</ele>
        <time>2021-09-07T09:15:25Z</time>
      </trkpt>
      <trkpt lat="44.49654" lon="5.50882">
        <ele>1215.8</ele>
        <time>2021-09-07T09:15:26Z</time>
      </trkpt>
      <trkpt lat="44.49653" lon="5.50881">
        <ele>1215.9</ele>
        <time>2021-09-07T09:15:27Z</time>
      </trkpt>
      <trkpt lat="44.49652" lon="5.50881">
        <ele>1216</ele>
        <time>2021-09-07T09:15:28Z</time>
      </trkpt>
      <trkpt lat="44.49651" lon="5.5088">
        <ele>1216.1</ele>
        <time>2021-09-07T09:15:29Z</time>
      </trkpt>
      <trkpt lat="44.4965" lon="5.50879">
        <ele>1216.2</ele>
        <time>2021-09-07T09:15:30Z</time>
      </trkpt>
      <trkpt lat="44.49648" lon="5.50877">
        <ele>1216.4</ele>
        <time>2021-09-07T09:15:31Z</time>
      </trkpt>
      <trkpt lat="44.49644" lon="5.50875">
        <ele>1216.8</ele>
        <time>2021-09-07T09:15:32Z</time>
      </trkpt>
      <trkpt lat="44.49643" lon="5.50875">
        <ele>1216.9</ele>
        <time>2021-09-07T09:15:33Z</time>
      </trkpt>
      <trkpt lat="44.49642" lon="5.50874">
        <ele>1217</ele>
        <time>2021-09-07T09:15:34Z</time>
      </trkpt>
      <trkpt lat="44.49641" lon="5.50873">
        <ele>1217.2</ele>
        <time>2021-09-07T09:15:35Z</time>
      </trkpt>
      <trkpt lat="44.49639" lon="5.50871">
        <ele>1217.4</ele>
        <time>2021-09-07T09:15:36Z</time>
      </trkpt>
      <trkpt lat="44.49636" lon="5.50869">
        <ele>1217.8</ele>
        <time>2021-09-07T09:15:37Z</time>
      </trkpt>
      <trkpt lat="44.49636" lon="5.50869">
        <ele>1217.8</ele>
        <time>2021-09-07T09:15:38Z</time>
      </trkpt>
      <trkpt lat="44.49635" lon="5.50869">
        <ele>1217.9</ele>
        <time>2021-09-07T09:15:39Z</time>
      </trkpt>
      <trkpt lat="44.49633" lon="5.50868">
        <ele>1218.1</ele>
        <time>2021-09-07T09:15:40Z</time>
      </trkpt>
      <trkpt lat="44.49633" lon="5.50867">
        <ele>1218.2</ele>
        <time>2021-09-07T09:15:41Z</time>
      </trkpt>
      <trkpt lat="44.49632" lon="5.50866">
        <ele>1218.3</ele>
        <time>2021-09-07T09:15:42Z</time>
      </trkpt>
      <trkpt lat="44.49632" lon="5.50865">
        <ele>1218.4</ele>
        <time>2021-09-07T09:15:43Z</time>
      </trkpt>
      <trkpt lat="44.49632" lon="5.50864">
        <ele>1218.5</ele>
        <time>2021-09-07T09:15:44Z</time>
      </trkpt>
      <trkpt lat="44.49631" lon="5.50863">
        <ele>1218.6</ele>
        <time>2021-09-07T09:15:45Z</time>
      </trkpt>
      <trkpt lat="44.4963" lon="5.50863">
        <ele>1218.7</ele>
        <time>2021-09-07T09:15:46Z</time>
      </trkpt>
      <trkpt lat="44.49631" lon="5.50862">
        <ele>1218.9</ele>
        <time>2021-09-07T09:15:47Z</time>
      </trkpt>
      <trkpt lat="44.4963" lon="5.50862">
        <ele>1219</ele>
        <time>2021-09-07T09:15:48Z</time>
      </trkpt>
      <trkpt lat="44.4963" lon="5.50862">
        <ele>1219</ele>
        <time>2021-09-07T09:15:49Z</time>
      </trkpt>
      <trkpt lat="44.4963" lon="5.50861">
        <ele>1219</ele>
        <time>2021-09-07T09:15:50Z</time>
      </trkpt>
      <trkpt lat="44.49631" lon="5.5086">
        <ele>1219.2</ele>
        <time>2021-09-07T09:15:51Z</time>
      </trkpt>
      <trkpt lat="44.49631" lon="5.50858">
        <ele>1219.3</ele>
        <time>2021-09-07T09:15:52Z</time>
      </trkpt>
      <trkpt lat="44.49631" lon="5.50856">
        <ele>1219.5</ele>
        <time>2021-09-07T09:15:53Z</time>
      </trkpt>
      <trkpt lat="44.49632" lon="5.50855">
        <ele>1219.7</ele>
        <time>2021-09-07T09:15:54Z</time>
      </trkpt>
      <trkpt lat="44.49632" lon="5.50853">
        <ele>1219.8</ele>
        <time>2021-09-07T09:15:55Z</time>
      </trkpt>
      <trkpt lat="44.49632" lon="5.50853">
        <ele>1219.9</ele>
        <time>2021-09-07T09:15:56Z</time>
      </trkpt>
      <trkpt lat="44.49631" lon="5.50852">
        <ele>1220</ele>
        <time>2021-09-07T09:15:57Z</time>
      </trkpt>
      <trkpt lat="44.49631" lon="5.50851">
        <ele>1220.1</ele>
        <time>2021-09-07T09:15:58Z</time>
      </trkpt>
      <trkpt lat="44.49631" lon="5.50851">
        <ele>1220.1</ele>
        <time>2021-09-07T09:15:59Z</time>
      </trkpt>
      <trkpt lat="44.49631" lon="5.5085">
        <ele>1220.1</ele>
        <time>2021-09-07T09:16:00Z</time>
      </trkpt>
      <trkpt lat="44.49631" lon="5.5085">
        <ele>1220.1</ele>
        <time>2021-09-07T09:16:01Z</time>
      </trkpt>
      <trkpt lat="44.49631" lon="5.50849">
        <ele>1220.2</ele>
        <time>2021-09-07T09:16:02Z</time>
      </trkpt>
      <trkpt lat="44.49631" lon="5.50849">
        <ele>1220.3</ele>
        <time>2021-09-07T09:16:03Z</time>
      </trkpt>
      <trkpt lat="44.4963" lon="5.50848">
        <ele>1220.4</ele>
        <time>2021-09-07T09:16:04Z</time>
      </trkpt>
      <trkpt lat="44.49628" lon="5.50847">
        <ele>1220.6</ele>
        <time>2021-09-07T09:16:05Z</time>
      </trkpt>
      <trkpt lat="44.49627" lon="5.50846">
        <ele>1220.8</ele>
        <time>2021-09-07T09:16:06Z</time>
      </trkpt>
      <trkpt lat="44.49627" lon="5.50845">
        <ele>1220.9</ele>
        <time>2021-09-07T09:16:07Z</time>
      </trkpt>
      <trkpt lat="44.49627" lon="5.50843">
        <ele>1221.1</ele>
        <time>2021-09-07T09:16:08Z</time>
      </trkpt>
      <trkpt lat="44.49626" lon="5.50842">
        <ele>1221.2</ele>
        <time>2021-09-07T09:16:09Z</time>
      </trkpt>
      <trkpt lat="44.49626" lon="5.5084">
        <ele>1221.4</ele>
        <time>2021-09-07T09:16:10Z</time>
      </trkpt>
      <trkpt lat="44.49625" lon="5.50839">
        <ele>1221.5</ele>
        <time>2021-09-07T09:16:11Z</time>
      </trkpt>
      <trkpt lat="44.49625" lon="5.50839">
        <ele>1221.6</ele>
        <time>2021-09-07T09:16:12Z</time>
      </trkpt>
      <trkpt lat="44.49625" lon="5.50838">
        <ele>1221.6</ele>
        <time>2021-09-07T09:16:13Z</time>
      </trkpt>
      <trkpt lat="44.49623" lon="5.50835">
        <ele>1222</ele>
        <time>2021-09-07T09:16:14Z</time>
      </trkpt>
      <trkpt lat="44.49622" lon="5.50833">
        <ele>1222.2</ele>
        <time>2021-09-07T09:16:15Z</time>
      </trkpt>
      <trkpt lat="44.49622" lon="5.50832">
        <ele>1222.3</ele>
        <time>2021-09-07T09:16:16Z</time>
      </trkpt>
      <trkpt lat="44.49621" lon="5.50832">
        <ele>1222.4</ele>
        <time>2021-09-07T09:16:17Z</time>
      </trkpt>
      <trkpt lat="44.4962" lon="5.50831">
        <ele>1222.5</ele>
        <time>2021-09-07T09:16:18Z</time>
      </trkpt>
      <trkpt lat="44.49617" lon="5.50831">
        <ele>1222.8</ele>
        <time>2021-09-07T09:16:19Z</time>
      </trkpt>
      <trkpt lat="44.49616" lon="5.50831">
        <ele>1222.9</ele>
        <time>2021-09-07T09:16:20Z</time>
      </trkpt>
      <trkpt lat="44.49615" lon="5.50831">
        <ele>1223</ele>
        <time>2021-09-07T09:16:21Z</time>
      </trkpt>
      <trkpt lat="44.49612" lon="5.5083">
        <ele>1223.4</ele>
        <time>2021-09-07T09:16:22Z</time>
      </trkpt>
      <trkpt lat="44.49611" lon="5.50829">
        <ele>1223.5</ele>
        <time>2021-09-07T09:16:23Z</time>
      </trkpt>
      <trkpt lat="44.4961" lon="5.50829">
        <ele>1223.6</ele>
        <time>2021-09-07T09:16:24Z</time>
      </trkpt>
      <trkpt lat="44.49609" lon="5.50828">
        <ele>1223.7</ele>
        <time>2021-09-07T09:16:25Z</time>
      </trkpt>
      <trkpt lat="44.49608" lon="5.50827">
        <ele>1223.8</ele>
        <time>2021-09-07T09:16:26Z</time>
      </trkpt>
      <trkpt lat="44.49608" lon="5.50827">
        <ele>1223.8</ele>
        <time>2021-09-07T09:16:27Z</time>
      </trkpt>
      <trkpt lat="44.49608" lon="5.50827">
        <ele>1223.8</ele>
        <time>2021-09-07T09:16:28Z</time>
      </trkpt>
      <trkpt lat="44.49607" lon="5.50827">
        <ele>1223.9</ele>
        <time>2021-09-07T09:16:29Z</time>
      </trkpt>
      <trkpt lat="44.49606" lon="5.50825">
        <ele>1224.1</ele>
        <time>2021-09-07T09:16:30Z</time>
      </trkpt>
      <trkpt lat="44.49605" lon="5.50825">
        <ele>1224.2</ele>
        <time>2021-09-07T09:16:31Z</time>
      </trkpt>
      <trkpt lat="44.49604" lon="5.50824">
        <ele>1224.3</ele>
        <time>2021-09-07T09:16:32Z</time>
      </trkpt>
      <trkpt lat="44.49602" lon="5.50823">
        <ele>1224.5</ele>
        <time>2021-09-07T09:16:33Z</time>
      </trkpt>
      <trkpt lat="44.49601" lon="5.50822">
        <ele>1224.6</ele>
        <time>2021-09-07T09:16:34Z</time>
      </trkpt>
      <trkpt lat="44.496" lon="5.50821">
        <ele>1224.8</ele>
        <time>2021-09-07T09:16:35Z</time>
      </trkpt>
      <trkpt lat="44.49599" lon="5.5082">
        <ele>1224.9</ele>
        <time>2021-09-07T09:16:36Z</time>
      </trkpt>
      <trkpt lat="44.49596" lon="5.50819">
        <ele>1225.2</ele>
        <time>2021-09-07T09:16:37Z</time>
      </trkpt>
      <trkpt lat="44.49594" lon="5.50819">
        <ele>1225.4</ele>
        <time>2021-09-07T09:16:38Z</time>
      </trkpt>
      <trkpt lat="44.49593" lon="5.50818">
        <ele>1225.5</ele>
        <time>2021-09-07T09:16:39Z</time>
      </trkpt>
      <trkpt lat="44.49592" lon="5.50818">
        <ele>1225.6</ele>
        <time>2021-09-07T09:16:40Z</time>
      </trkpt>
      <trkpt lat="44.49591" lon="5.50818">
        <ele>1225.7</ele>
        <time>2021-09-07T09:16:41Z</time>
      </trkpt>
      <trkpt lat="44.49587" lon="5.50817">
        <ele>1226.2</ele>
        <time>2021-09-07T09:16:42Z</time>
      </trkpt>
      <trkpt lat="44.49585" lon="5.50816">
        <ele>1226.4</ele>
        <time>2021-09-07T09:16:43Z</time>
      </trkpt>
      <trkpt lat="44.49584" lon="5.50816">
        <ele>1226.5</ele>
        <time>2021-09-07T09:16:44Z</time>
      </trkpt>
      <trkpt lat="44.49583" lon="5.50815">
        <ele>1226.6</ele>
        <time>2021-09-07T09:16:45Z</time>
      </trkpt>
      <trkpt lat="44.49581" lon="5.50814">
        <ele>1226.8</ele>
        <time>2021-09-07T09:16:46Z</time>
      </trkpt>
      <trkpt lat="44.4958" lon="5.50813">
        <ele>1227</ele>
        <time>2021-09-07T09:16:47Z</time>
      </trkpt>
      <trkpt lat="44.49578" lon="5.50812">
        <ele>1227.2</ele>
        <time>2021-09-07T09:16:48Z</time>
      </trkpt>
      <trkpt lat="44.49577" lon="5.50812">
        <ele>1227.3</ele>
        <time>2021-09-07T09:16:49Z</time>
      </trkpt>
      <trkpt lat="44.49577" lon="5.50812">
        <ele>1227.3</ele>
        <time>2021-09-07T09:16:50Z</time>
      </trkpt>
      <trkpt lat="44.49577" lon="5.50812">
        <ele>1227.3</ele>
        <time>2021-09-07T09:16:51Z</time>
      </trkpt>
      <trkpt lat="44.49577" lon="5.50812">
        <ele>1227.4</ele>
        <time>2021-09-07T09:16:52Z</time>
      </trkpt>
      <trkpt lat="44.49576" lon="5.50812">
        <ele>1227.4</ele>
        <time>2021-09-07T09:16:53Z</time>
      </trkpt>
      <trkpt lat="44.49576" lon="5.50812">
        <ele>1227.4</ele>
        <time>2021-09-07T09:16:54Z</time>
      </trkpt>
      <trkpt lat="44.49576" lon="5.50812">
        <ele>1227.4</ele>
        <time>2021-09-07T09:16:55Z</time>
      </trkpt>
      <trkpt lat="44.49576" lon="5.50812">
        <ele>1227.4</ele>
        <time>2021-09-07T09:16:56Z</time>
      </trkpt>
      <trkpt lat="44.49576" lon="5.50813">
        <ele>1227.4</ele>
        <time>2021-09-07T09:16:57Z</time>
      </trkpt>
      <trkpt lat="44.49576" lon="5.50813">
        <ele>1227.4</ele>
        <time>2021-09-07T09:16:58Z</time>
      </trkpt>
      <trkpt lat="44.49576" lon="5.50813">
        <ele>1227.5</ele>
        <time>2021-09-07T09:16:59Z</time>
      </trkpt>
      <trkpt lat="44.49575" lon="5.50813">
        <ele>1227.5</ele>
        <time>2021-09-07T09:17:00Z</time>
      </trkpt>
      <trkpt lat="44.49575" lon="5.50813">
        <ele>1227.5</ele>
        <time>2021-09-07T09:17:01Z</time>
      </trkpt>
      <trkpt lat="44.49575" lon="5.50813">
        <ele>1227.5</ele>
        <time>2021-09-07T09:17:02Z</time>
      </trkpt>
      <trkpt lat="44.49575" lon="5.50813">
        <ele>1227.5</ele>
        <time>2021-09-07T09:17:03Z</time>
      </trkpt>
      <trkpt lat="44.49575" lon="5.50813">
        <ele>1227.5</ele>
        <time>2021-09-07T09:17:04Z</time>
      </trkpt>
      <trkpt lat="44.49575" lon="5.50813">
        <ele>1227.6</ele>
        <time>2021-09-07T09:17:05Z</time>
      </trkpt>
      <trkpt lat="44.49575" lon="5.50813">
        <ele>1227.6</ele>
        <time>2021-09-07T09:17:06Z</time>
      </trkpt>
      <trkpt lat="44.49574" lon="5.50813">
        <ele>1227.6</ele>
        <time>2021-09-07T09:17:07Z</time>
      </trkpt>
      <trkpt lat="44.49574" lon="5.50813">
        <ele>1227.6</ele>
        <time>2021-09-07T09:17:08Z</time>
      </trkpt>
      <trkpt lat="44.49574" lon="5.50813">
        <ele>1227.6</ele>
        <time>2021-09-07T09:17:09Z</time>
      </trkpt>
      <trkpt lat="44.49574" lon="5.50813">
        <ele>1227.6</ele>
        <time>2021-09-07T09:17:10Z</time>
      </trkpt>
      <trkpt lat="44.49574" lon="5.50813">
        <ele>1227.6</ele>
        <time>2021-09-07T09:17:11Z</time>
      </trkpt>
      <trkpt lat="44.49574" lon="5.50813">
        <ele>1227.6</ele>
        <time>2021-09-07T09:17:12Z</time>
      </trkpt>
      <trkpt lat="44.49574" lon="5.50813">
        <ele>1227.7</ele>
        <time>2021-09-07T09:17:13Z</time>
      </trkpt>
      <trkpt lat="44.49574" lon="5.50814">
        <ele>1227.7</ele>
        <time>2021-09-07T09:17:14Z</time>
      </trkpt>
      <trkpt lat="44.49573" lon="5.50814">
        <ele>1227.7</ele>
        <time>2021-09-07T09:17:15Z</time>
      </trkpt>
      <trkpt lat="44.49573" lon="5.50814">
        <ele>1227.7</ele>
        <time>2021-09-07T09:17:16Z</time>
      </trkpt>
      <trkpt lat="44.49573" lon="5.50814">
        <ele>1227.7</ele>
        <time>2021-09-07T09:17:17Z</time>
      </trkpt>
      <trkpt lat="44.49573" lon="5.50814">
        <ele>1227.7</ele>
        <time>2021-09-07T09:17:18Z</time>
      </trkpt>
      <trkpt lat="44.49573" lon="5.50814">
        <ele>1227.8</ele>
        <time>2021-09-07T09:17:19Z</time>
      </trkpt>
      <trkpt lat="44.49573" lon="5.50814">
        <ele>1227.8</ele>
        <time>2021-09-07T09:17:20Z</time>
      </trkpt>
      <trkpt lat="44.49573" lon="5.50814">
        <ele>1227.8</ele>
        <time>2021-09-07T09:17:21Z</time>
      </trkpt>
      <trkpt lat="44.49572" lon="5.50814">
        <ele>1227.8</ele>
        <time>2021-09-07T09:17:22Z</time>
      </trkpt>
      <trkpt lat="44.49572" lon="5.50814">
        <ele>1227.8</ele>
        <time>2021-09-07T09:17:23Z</time>
      </trkpt>
      <trkpt lat="44.49572" lon="5.50814">
        <ele>1227.8</ele>
        <time>2021-09-07T09:17:24Z</time>
      </trkpt>
      <trkpt lat="44.49572" lon="5.50814">
        <ele>1227.8</ele>
        <time>2021-09-07T09:17:25Z</time>
      </trkpt>
      <trkpt lat="44.49572" lon="5.50814">
        <ele>1227.9</ele>
        <time>2021-09-07T09:17:26Z</time>
      </trkpt>
      <trkpt lat="44.49572" lon="5.50814">
        <ele>1227.9</ele>
        <time>2021-09-07T09:17:27Z</time>
      </trkpt>
      <trkpt lat="44.49572" lon="5.50814">
        <ele>1227.9</ele>
        <time>2021-09-07T09:17:28Z</time>
      </trkpt>
      <trkpt lat="44.49572" lon="5.50814">
        <ele>1227.9</ele>
        <time>2021-09-07T09:17:29Z</time>
      </trkpt>
      <trkpt lat="44.49571" lon="5.50814">
        <ele>1227.9</ele>
        <time>2021-09-07T09:17:30Z</time>
      </trkpt>
      <trkpt lat="44.49571" lon="5.50814">
        <ele>1227.9</ele>
        <time>2021-09-07T09:17:31Z</time>
      </trkpt>
      <trkpt lat="44.49571" lon="5.50815">
        <ele>1227.9</ele>
        <time>2021-09-07T09:17:32Z</time>
      </trkpt>
      <trkpt lat="44.49571" lon="5.50815">
        <ele>1228</ele>
        <time>2021-09-07T09:17:33Z</time>
      </trkpt>
      <trkpt lat="44.49571" lon="5.50815">
        <ele>1228</ele>
        <time>2021-09-07T09:17:34Z</time>
      </trkpt>
      <trkpt lat="44.49571" lon="5.50815">
        <ele>1228</ele>
        <time>2021-09-07T09:17:35Z</time>
      </trkpt>
      <trkpt lat="44.49571" lon="5.50815">
        <ele>1228</ele>
        <time>2021-09-07T09:17:36Z</time>
      </trkpt>
      <trkpt lat="44.4957" lon="5.50815">
        <ele>1228</ele>
        <time>2021-09-07T09:17:37Z</time>
      </trkpt>
      <trkpt lat="44.4957" lon="5.50815">
        <ele>1228</ele>
        <time>2021-09-07T09:17:38Z</time>
      </trkpt>
      <trkpt lat="44.4957" lon="5.50815">
        <ele>1228</ele>
        <time>2021-09-07T09:17:39Z</time>
      </trkpt>
      <trkpt lat="44.4957" lon="5.50815">
        <ele>1228.1</ele>
        <time>2021-09-07T09:17:40Z</time>
      </trkpt>
      <trkpt lat="44.4957" lon="5.50815">
        <ele>1228.1</ele>
        <time>2021-09-07T09:17:41Z</time>
      </trkpt>
      <trkpt lat="44.4957" lon="5.50815">
        <ele>1228.1</ele>
        <time>2021-09-07T09:17:42Z</time>
      </trkpt>
      <trkpt lat="44.4957" lon="5.50815">
        <ele>1228.1</ele>
        <time>2021-09-07T09:17:43Z</time>
      </trkpt>
      <trkpt lat="44.49569" lon="5.50815">
        <ele>1228.1</ele>
        <time>2021-09-07T09:17:44Z</time>
      </trkpt>
      <trkpt lat="44.49569" lon="5.50815">
        <ele>1228.1</ele>
        <time>2021-09-07T09:17:45Z</time>
      </trkpt>
      <trkpt lat="44.49569" lon="5.50815">
        <ele>1228.1</ele>
        <time>2021-09-07T09:17:46Z</time>
      </trkpt>
      <trkpt lat="44.49569" lon="5.50815">
        <ele>1228.2</ele>
        <time>2021-09-07T09:17:47Z</time>
      </trkpt>
      <trkpt lat="44.49569" lon="5.50815">
        <ele>1228.2</ele>
        <time>2021-09-07T09:17:48Z</time>
      </trkpt>
      <trkpt lat="44.49569" lon="5.50815">
        <ele>1228.2</ele>
        <time>2021-09-07T09:17:49Z</time>
      </trkpt>
      <trkpt lat="44.49569" lon="5.50816">
        <ele>1228.2</ele>
        <time>2021-09-07T09:17:50Z</time>
      </trkpt>
      <trkpt lat="44.49569" lon="5.50816">
        <ele>1228.2</ele>
        <time>2021-09-07T09:17:51Z</time>
      </trkpt>
      <trkpt lat="44.49568" lon="5.50816">
        <ele>1228.2</ele>
        <time>2021-09-07T09:17:52Z</time>
      </trkpt>
      <trkpt lat="44.49568" lon="5.50816">
        <ele>1228.2</ele>
        <time>2021-09-07T09:17:53Z</time>
      </trkpt>
      <trkpt lat="44.49568" lon="5.50816">
        <ele>1228.2</ele>
        <time>2021-09-07T09:17:54Z</time>
      </trkpt>
      <trkpt lat="44.49568" lon="5.50816">
        <ele>1228.3</ele>
        <time>2021-09-07T09:17:55Z</time>
      </trkpt>
      <trkpt lat="44.49568" lon="5.50816">
        <ele>1228.3</ele>
        <time>2021-09-07T09:17:56Z</time>
      </trkpt>
      <trkpt lat="44.49568" lon="5.50816">
        <ele>1228.3</ele>
        <time>2021-09-07T09:17:57Z</time>
      </trkpt>
      <trkpt lat="44.49568" lon="5.50816">
        <ele>1228.3</ele>
        <time>2021-09-07T09:17:58Z</time>
      </trkpt>
      <trkpt lat="44.49567" lon="5.50816">
        <ele>1228.3</ele>
        <time>2021-09-07T09:17:59Z</time>
      </trkpt>
      <trkpt lat="44.49567" lon="5.50816">
        <ele>1228.3</ele>
        <time>2021-09-07T09:18:00Z</time>
      </trkpt>
      <trkpt lat="44.49567" lon="5.50816">
        <ele>1228.3</ele>
        <time>2021-09-07T09:18:01Z</time>
      </trkpt>
      <trkpt lat="44.49567" lon="5.50816">
        <ele>1228.4</ele>
        <time>2021-09-07T09:18:02Z</time>
      </trkpt>
      <trkpt lat="44.49567" lon="5.50816">
        <ele>1228.4</ele>
        <time>2021-09-07T09:18:03Z</time>
      </trkpt>
      <trkpt lat="44.49567" lon="5.50816">
        <ele>1228.4</ele>
        <time>2021-09-07T09:18:04Z</time>
      </trkpt>
      <trkpt lat="44.49567" lon="5.50816">
        <ele>1228.4</ele>
        <time>2021-09-07T09:18:05Z</time>
      </trkpt>
      <trkpt lat="44.49567" lon="5.50816">
        <ele>1228.4</ele>
        <time>2021-09-07T09:18:06Z</time>
      </trkpt>
      <trkpt lat="44.49566" lon="5.50816">
        <ele>1228.4</ele>
        <time>2021-09-07T09:18:07Z</time>
      </trkpt>
      <trkpt lat="44.49566" lon="5.50817">
        <ele>1228.4</ele>
        <time>2021-09-07T09:18:08Z</time>
      </trkpt>
      <trkpt lat="44.49566" lon="5.50817">
        <ele>1228.4</ele>
        <time>2021-09-07T09:18:09Z</time>
      </trkpt>
      <trkpt lat="44.49566" lon="5.50817">
        <ele>1228.5</ele>
        <time>2021-09-07T09:18:10Z</time>
      </trkpt>
      <trkpt lat="44.49566" lon="5.50817">
        <ele>1228.5</ele>
        <time>2021-09-07T09:18:11Z</time>
      </trkpt>
      <trkpt lat="44.49566" lon="5.50817">
        <ele>1228.5</ele>
        <time>2021-09-07T09:18:12Z</time>
      </trkpt>
      <trkpt lat="44.49566" lon="5.50817">
        <ele>1228.5</ele>
        <time>2021-09-07T09:18:13Z</time>
      </trkpt>
      <trkpt lat="44.49565" lon="5.50817">
        <ele>1228.5</ele>
        <time>2021-09-07T09:18:14Z</time>
      </trkpt>
      <trkpt lat="44.49565" lon="5.50817">
        <ele>1228.5</ele>
        <time>2021-09-07T09:18:15Z</time>
      </trkpt>
      <trkpt lat="44.49565" lon="5.50817">
        <ele>1228.5</ele>
        <time>2021-09-07T09:18:16Z</time>
      </trkpt>
      <trkpt lat="44.49565" lon="5.50817">
        <ele>1228.5</ele>
        <time>2021-09-07T09:18:17Z</time>
      </trkpt>
      <trkpt lat="44.49566" lon="5.50822">
        <ele>1228.9</ele>
        <time>2021-09-07T09:18:18Z</time>
      </trkpt>
      <trkpt lat="44.49566" lon="5.50827">
        <ele>1229.2</ele>
        <time>2021-09-07T09:18:19Z</time>
      </trkpt>
      <trkpt lat="44.49566" lon="5.50824">
        <ele>1229.4</ele>
        <time>2021-09-07T09:18:20Z</time>
      </trkpt>
      <trkpt lat="44.49565" lon="5.5082">
        <ele>1229.6</ele>
        <time>2021-09-07T09:18:21Z</time>
      </trkpt>
      <trkpt lat="44.49565" lon="5.5082">
        <ele>1229.7</ele>
        <time>2021-09-07T09:18:22Z</time>
      </trkpt>
      <trkpt lat="44.49564" lon="5.5082">
        <ele>1229.7</ele>
        <time>2021-09-07T09:18:23Z</time>
      </trkpt>
      <trkpt lat="44.49565" lon="5.50822">
        <ele>1229.8</ele>
        <time>2021-09-07T09:18:24Z</time>
      </trkpt>
      <trkpt lat="44.49565" lon="5.50823">
        <ele>1229.9</ele>
        <time>2021-09-07T09:18:25Z</time>
      </trkpt>
      <trkpt lat="44.49564" lon="5.50827">
        <ele>1230.2</ele>
        <time>2021-09-07T09:18:26Z</time>
      </trkpt>
      <trkpt lat="44.49563" lon="5.5083">
        <ele>1230.4</ele>
        <time>2021-09-07T09:18:27Z</time>
      </trkpt>
      <trkpt lat="44.49562" lon="5.50831">
        <ele>1230.5</ele>
        <time>2021-09-07T09:18:28Z</time>
      </trkpt>
      <trkpt lat="44.49562" lon="5.50832">
        <ele>1230.6</ele>
        <time>2021-09-07T09:18:29Z</time>
      </trkpt>
      <trkpt lat="44.49562" lon="5.50833">
        <ele>1230.6</ele>
        <time>2021-09-07T09:18:30Z</time>
      </trkpt>
      <trkpt lat="44.49562" lon="5.50833">
        <ele>1230.6</ele>
        <time>2021-09-07T09:18:31Z</time>
      </trkpt>
      <trkpt lat="44.49562" lon="5.50833">
        <ele>1230.6</ele>
        <time>2021-09-07T09:18:32Z</time>
      </trkpt>
      <trkpt lat="44.49562" lon="5.50833">
        <ele>1230.6</ele>
        <time>2021-09-07T09:18:33Z</time>
      </trkpt>
      <trkpt lat="44.49562" lon="5.50833">
        <ele>1230.6</ele>
        <time>2021-09-07T09:18:34Z</time>
      </trkpt>
      <trkpt lat="44.49562" lon="5.50833">
        <ele>1230.6</ele>
        <time>2021-09-07T09:18:35Z</time>
      </trkpt>
      <trkpt lat="44.49562" lon="5.50832">
        <ele>1230.7</ele>
        <time>2021-09-07T09:18:36Z</time>
      </trkpt>
      <trkpt lat="44.49563" lon="5.50832">
        <ele>1230.8</ele>
        <time>2021-09-07T09:18:37Z</time>
      </trkpt>
      <trkpt lat="44.49563" lon="5.50832">
        <ele>1230.8</ele>
        <time>2021-09-07T09:18:38Z</time>
      </trkpt>
      <trkpt lat="44.49563" lon="5.50832">
        <ele>1230.8</ele>
        <time>2021-09-07T09:18:39Z</time>
      </trkpt>
      <trkpt lat="44.49563" lon="5.50832">
        <ele>1230.8</ele>
        <time>2021-09-07T09:18:40Z</time>
      </trkpt>
      <trkpt lat="44.49563" lon="5.50832">
        <ele>1230.8</ele>
        <time>2021-09-07T09:18:41Z</time>
      </trkpt>
      <trkpt lat="44.49563" lon="5.5083">
        <ele>1230.9</ele>
        <time>2021-09-07T09:18:42Z</time>
      </trkpt>
      <trkpt lat="44.49563" lon="5.50828">
        <ele>1231.1</ele>
        <time>2021-09-07T09:18:43Z</time>
      </trkpt>
      <trkpt lat="44.49563" lon="5.50827">
        <ele>1231.1</ele>
        <time>2021-09-07T09:18:44Z</time>
      </trkpt>
      <trkpt lat="44.49563" lon="5.50826">
        <ele>1231.2</ele>
        <time>2021-09-07T09:18:45Z</time>
      </trkpt>
      <trkpt lat="44.49563" lon="5.50825">
        <ele>1231.3</ele>
        <time>2021-09-07T09:18:46Z</time>
      </trkpt>
      <trkpt lat="44.49563" lon="5.50823">
        <ele>1231.4</ele>
        <time>2021-09-07T09:18:47Z</time>
      </trkpt>
      <trkpt lat="44.49563" lon="5.50821">
        <ele>1231.6</ele>
        <time>2021-09-07T09:18:48Z</time>
      </trkpt>
      <trkpt lat="44.49562" lon="5.50819">
        <ele>1231.7</ele>
        <time>2021-09-07T09:18:49Z</time>
      </trkpt>
      <trkpt lat="44.49562" lon="5.50818">
        <ele>1231.8</ele>
        <time>2021-09-07T09:18:50Z</time>
      </trkpt>
      <trkpt lat="44.49561" lon="5.50817">
        <ele>1231.9</ele>
        <time>2021-09-07T09:18:51Z</time>
      </trkpt>
      <trkpt lat="44.49561" lon="5.50817">
        <ele>1232</ele>
        <time>2021-09-07T09:18:52Z</time>
      </trkpt>
      <trkpt lat="44.49561" lon="5.50816">
        <ele>1232</ele>
        <time>2021-09-07T09:18:53Z</time>
      </trkpt>
      <trkpt lat="44.49561" lon="5.50815">
        <ele>1232.1</ele>
        <time>2021-09-07T09:18:54Z</time>
      </trkpt>
      <trkpt lat="44.4956" lon="5.50814">
        <ele>1232.2</ele>
        <time>2021-09-07T09:18:55Z</time>
      </trkpt>
      <trkpt lat="44.49558" lon="5.50813">
        <ele>1232.4</ele>
        <time>2021-09-07T09:18:56Z</time>
      </trkpt>
      <trkpt lat="44.49558" lon="5.50812">
        <ele>1232.5</ele>
        <time>2021-09-07T09:18:57Z</time>
      </trkpt>
      <trkpt lat="44.49557" lon="5.50811">
        <ele>1232.6</ele>
        <time>2021-09-07T09:18:58Z</time>
      </trkpt>
      <trkpt lat="44.49556" lon="5.5081">
        <ele>1232.7</ele>
        <time>2021-09-07T09:18:59Z</time>
      </trkpt>
      <trkpt lat="44.49554" lon="5.50809">
        <ele>1232.9</ele>
        <time>2021-09-07T09:19:00Z</time>
      </trkpt>
      <trkpt lat="44.49553" lon="5.50808">
        <ele>1233.1</ele>
        <time>2021-09-07T09:19:01Z</time>
      </trkpt>
      <trkpt lat="44.49553" lon="5.50808">
        <ele>1233.1</ele>
        <time>2021-09-07T09:19:02Z</time>
      </trkpt>
      <trkpt lat="44.49553" lon="5.50808">
        <ele>1233.1</ele>
        <time>2021-09-07T09:19:03Z</time>
      </trkpt>
      <trkpt lat="44.49552" lon="5.50807">
        <ele>1233.2</ele>
        <time>2021-09-07T09:19:04Z</time>
      </trkpt>
      <trkpt lat="44.49552" lon="5.50807">
        <ele>1233.2</ele>
        <time>2021-09-07T09:19:05Z</time>
      </trkpt>
      <trkpt lat="44.49552" lon="5.50807">
        <ele>1233.2</ele>
        <time>2021-09-07T09:19:06Z</time>
      </trkpt>
      <trkpt lat="44.49552" lon="5.50806">
        <ele>1233.3</ele>
        <time>2021-09-07T09:19:07Z</time>
      </trkpt>
      <trkpt lat="44.49552" lon="5.50805">
        <ele>1233.3</ele>
        <time>2021-09-07T09:19:08Z</time>
      </trkpt>
      <trkpt lat="44.49553" lon="5.50803">
        <ele>1233.5</ele>
        <time>2021-09-07T09:19:09Z</time>
      </trkpt>
      <trkpt lat="44.49553" lon="5.50802">
        <ele>1233.6</ele>
        <time>2021-09-07T09:19:10Z</time>
      </trkpt>
      <trkpt lat="44.49553" lon="5.50802">
        <ele>1233.6</ele>
        <time>2021-09-07T09:19:11Z</time>
      </trkpt>
      <trkpt lat="44.49552" lon="5.50801">
        <ele>1233.7</ele>
        <time>2021-09-07T09:19:12Z</time>
      </trkpt>
      <trkpt lat="44.49552" lon="5.50799">
        <ele>1233.8</ele>
        <time>2021-09-07T09:19:13Z</time>
      </trkpt>
      <trkpt lat="44.49551" lon="5.508">
        <ele>1234</ele>
        <time>2021-09-07T09:19:14Z</time>
      </trkpt>
      <trkpt lat="44.49551" lon="5.50801">
        <ele>1234</ele>
        <time>2021-09-07T09:19:15Z</time>
      </trkpt>
      <trkpt lat="44.4955" lon="5.50801">
        <ele>1234.1</ele>
        <time>2021-09-07T09:19:16Z</time>
      </trkpt>
      <trkpt lat="44.49548" lon="5.50801">
        <ele>1234.3</ele>
        <time>2021-09-07T09:19:17Z</time>
      </trkpt>
      <trkpt lat="44.49547" lon="5.50802">
        <ele>1234.4</ele>
        <time>2021-09-07T09:19:18Z</time>
      </trkpt>
      <trkpt lat="44.49547" lon="5.50802">
        <ele>1234.4</ele>
        <time>2021-09-07T09:19:19Z</time>
      </trkpt>
      <trkpt lat="44.49546" lon="5.50802">
        <ele>1234.5</ele>
        <time>2021-09-07T09:19:20Z</time>
      </trkpt>
      <trkpt lat="44.49545" lon="5.50803">
        <ele>1234.6</ele>
        <time>2021-09-07T09:19:21Z</time>
      </trkpt>
      <trkpt lat="44.49545" lon="5.50803">
        <ele>1234.6</ele>
        <time>2021-09-07T09:19:22Z</time>
      </trkpt>
      <trkpt lat="44.49544" lon="5.50803">
        <ele>1234.7</ele>
        <time>2021-09-07T09:19:23Z</time>
      </trkpt>
      <trkpt lat="44.49544" lon="5.50803">
        <ele>1234.7</ele>
        <time>2021-09-07T09:19:24Z</time>
      </trkpt>
      <trkpt lat="44.49544" lon="5.50803">
        <ele>1234.7</ele>
        <time>2021-09-07T09:19:25Z</time>
      </trkpt>
      <trkpt lat="44.49543" lon="5.50803">
        <ele>1234.8</ele>
        <time>2021-09-07T09:19:26Z</time>
      </trkpt>
      <trkpt lat="44.49543" lon="5.50803">
        <ele>1234.8</ele>
        <time>2021-09-07T09:19:27Z</time>
      </trkpt>
      <trkpt lat="44.49543" lon="5.50803">
        <ele>1234.8</ele>
        <time>2021-09-07T09:19:28Z</time>
      </trkpt>
      <trkpt lat="44.49543" lon="5.50803">
        <ele>1234.8</ele>
        <time>2021-09-07T09:19:29Z</time>
      </trkpt>
      <trkpt lat="44.49543" lon="5.50803">
        <ele>1234.8</ele>
        <time>2021-09-07T09:19:30Z</time>
      </trkpt>
      <trkpt lat="44.49543" lon="5.50803">
        <ele>1234.8</ele>
        <time>2021-09-07T09:19:31Z</time>
      </trkpt>
      <trkpt lat="44.49543" lon="5.50803">
        <ele>1234.8</ele>
        <time>2021-09-07T09:19:32Z</time>
      </trkpt>
      <trkpt lat="44.49543" lon="5.50803">
        <ele>1234.8</ele>
        <time>2021-09-07T09:19:33Z</time>
      </trkpt>
      <trkpt lat="44.49543" lon="5.50802">
        <ele>1234.9</ele>
        <time>2021-09-07T09:19:34Z</time>
      </trkpt>
      <trkpt lat="44.49543" lon="5.50801">
        <ele>1234.9</ele>
        <time>2021-09-07T09:19:35Z</time>
      </trkpt>
      <trkpt lat="44.49543" lon="5.508">
        <ele>1235</ele>
        <time>2021-09-07T09:19:36Z</time>
      </trkpt>
      <trkpt lat="44.49541" lon="5.50796">
        <ele>1235.3</ele>
        <time>2021-09-07T09:19:37Z</time>
      </trkpt>
      <trkpt lat="44.4954" lon="5.50792">
        <ele>1235.6</ele>
        <time>2021-09-07T09:19:38Z</time>
      </trkpt>
      <trkpt lat="44.4954" lon="5.5079">
        <ele>1235.7</ele>
        <time>2021-09-07T09:19:39Z</time>
      </trkpt>
      <trkpt lat="44.49538" lon="5.50788">
        <ele>1235.9</ele>
        <time>2021-09-07T09:19:40Z</time>
      </trkpt>
      <trkpt lat="44.49536" lon="5.50785">
        <ele>1236.1</ele>
        <time>2021-09-07T09:19:41Z</time>
      </trkpt>
      <trkpt lat="44.49531" lon="5.5078">
        <ele>1236.5</ele>
        <time>2021-09-07T09:19:42Z</time>
      </trkpt>
      <trkpt lat="44.49523" lon="5.50772">
        <ele>1237.1</ele>
        <time>2021-09-07T09:19:43Z</time>
      </trkpt>
      <trkpt lat="44.49518" lon="5.50766">
        <ele>1237.5</ele>
        <time>2021-09-07T09:19:44Z</time>
      </trkpt>
      <trkpt lat="44.49517" lon="5.50765">
        <ele>1237.6</ele>
        <time>2021-09-07T09:19:45Z</time>
      </trkpt>
      <trkpt lat="44.49515" lon="5.50763">
        <ele>1237.7</ele>
        <time>2021-09-07T09:19:46Z</time>
      </trkpt>
      <trkpt lat="44.49511" lon="5.50759">
        <ele>1238</ele>
        <time>2021-09-07T09:19:47Z</time>
      </trkpt>
      <trkpt lat="44.49508" lon="5.50756">
        <ele>1238.2</ele>
        <time>2021-09-07T09:19:48Z</time>
      </trkpt>
      <trkpt lat="44.49505" lon="5.50754">
        <ele>1238.4</ele>
        <time>2021-09-07T09:19:49Z</time>
      </trkpt>
      <trkpt lat="44.49503" lon="5.50753">
        <ele>1238.6</ele>
        <time>2021-09-07T09:19:50Z</time>
      </trkpt>
      <trkpt lat="44.49501" lon="5.50751">
        <ele>1238.7</ele>
        <time>2021-09-07T09:19:51Z</time>
      </trkpt>
      <trkpt lat="44.495" lon="5.50751">
        <ele>1238.8</ele>
        <time>2021-09-07T09:19:52Z</time>
      </trkpt>
      <trkpt lat="44.49499" lon="5.5075">
        <ele>1238.8</ele>
        <time>2021-09-07T09:19:53Z</time>
      </trkpt>
      <trkpt lat="44.49497" lon="5.50748">
        <ele>1239</ele>
        <time>2021-09-07T09:19:54Z</time>
      </trkpt>
      <trkpt lat="44.49496" lon="5.50747">
        <ele>1239.1</ele>
        <time>2021-09-07T09:19:55Z</time>
      </trkpt>
      <trkpt lat="44.49494" lon="5.50746">
        <ele>1239.2</ele>
        <time>2021-09-07T09:19:56Z</time>
      </trkpt>
      <trkpt lat="44.49493" lon="5.50746">
        <ele>1239.3</ele>
        <time>2021-09-07T09:19:57Z</time>
      </trkpt>
      <trkpt lat="44.49491" lon="5.50745">
        <ele>1239.4</ele>
        <time>2021-09-07T09:19:58Z</time>
      </trkpt>
      <trkpt lat="44.49489" lon="5.50746">
        <ele>1239.5</ele>
        <time>2021-09-07T09:19:59Z</time>
      </trkpt>
      <trkpt lat="44.49485" lon="5.50747">
        <ele>1239.8</ele>
        <time>2021-09-07T09:20:00Z</time>
      </trkpt>
      <trkpt lat="44.49484" lon="5.50748">
        <ele>1239.9</ele>
        <time>2021-09-07T09:20:01Z</time>
      </trkpt>
      <trkpt lat="44.49482" lon="5.50748">
        <ele>1240.1</ele>
        <time>2021-09-07T09:20:02Z</time>
      </trkpt>
      <trkpt lat="44.49479" lon="5.50748">
        <ele>1240.3</ele>
        <time>2021-09-07T09:20:03Z</time>
      </trkpt>
      <trkpt lat="44.49479" lon="5.50748">
        <ele>1240.4</ele>
        <time>2021-09-07T09:20:04Z</time>
      </trkpt>
      <trkpt lat="44.49478" lon="5.50748">
        <ele>1240.4</ele>
        <time>2021-09-07T09:20:05Z</time>
      </trkpt>
      <trkpt lat="44.49477" lon="5.50749">
        <ele>1240.5</ele>
        <time>2021-09-07T09:20:06Z</time>
      </trkpt>
      <trkpt lat="44.49477" lon="5.50749">
        <ele>1240.5</ele>
        <time>2021-09-07T09:20:07Z</time>
      </trkpt>
      <trkpt lat="44.49477" lon="5.50749">
        <ele>1240.5</ele>
        <time>2021-09-07T09:20:08Z</time>
      </trkpt>
      <trkpt lat="44.49477" lon="5.5075">
        <ele>1240.6</ele>
        <time>2021-09-07T09:20:09Z</time>
      </trkpt>
      <trkpt lat="44.49476" lon="5.5075">
        <ele>1240.6</ele>
        <time>2021-09-07T09:20:10Z</time>
      </trkpt>
      <trkpt lat="44.49476" lon="5.50751">
        <ele>1240.7</ele>
        <time>2021-09-07T09:20:11Z</time>
      </trkpt>
      <trkpt lat="44.49476" lon="5.50752">
        <ele>1240.7</ele>
        <time>2021-09-07T09:20:12Z</time>
      </trkpt>
      <trkpt lat="44.49476" lon="5.50752">
        <ele>1240.8</ele>
        <time>2021-09-07T09:20:13Z</time>
      </trkpt>
      <trkpt lat="44.49476" lon="5.50756">
        <ele>1241.1</ele>
        <time>2021-09-07T09:20:14Z</time>
      </trkpt>
      <trkpt lat="44.49476" lon="5.50757">
        <ele>1241.2</ele>
        <time>2021-09-07T09:20:15Z</time>
      </trkpt>
      <trkpt lat="44.49476" lon="5.50758">
        <ele>1241.2</ele>
        <time>2021-09-07T09:20:16Z</time>
      </trkpt>
      <trkpt lat="44.49476" lon="5.5076">
        <ele>1241.4</ele>
        <time>2021-09-07T09:20:17Z</time>
      </trkpt>
      <trkpt lat="44.49476" lon="5.50761">
        <ele>1241.5</ele>
        <time>2021-09-07T09:20:18Z</time>
      </trkpt>
      <trkpt lat="44.49475" lon="5.50762">
        <ele>1241.6</ele>
        <time>2021-09-07T09:20:19Z</time>
      </trkpt>
      <trkpt lat="44.49475" lon="5.50763">
        <ele>1241.6</ele>
        <time>2021-09-07T09:20:20Z</time>
      </trkpt>
      <trkpt lat="44.49475" lon="5.50763">
        <ele>1241.7</ele>
        <time>2021-09-07T09:20:21Z</time>
      </trkpt>
      <trkpt lat="44.49472" lon="5.50766">
        <ele>1242.2</ele>
        <time>2021-09-07T09:20:22Z</time>
      </trkpt>
      <trkpt lat="44.49471" lon="5.50767">
        <ele>1242.3</ele>
        <time>2021-09-07T09:20:23Z</time>
      </trkpt>
      <trkpt lat="44.49471" lon="5.50767">
        <ele>1242.4</ele>
        <time>2021-09-07T09:20:24Z</time>
      </trkpt>
      <trkpt lat="44.4947" lon="5.50767">
        <ele>1242.5</ele>
        <time>2021-09-07T09:20:25Z</time>
      </trkpt>
      <trkpt lat="44.49468" lon="5.50767">
        <ele>1242.7</ele>
        <time>2021-09-07T09:20:26Z</time>
      </trkpt>
      <trkpt lat="44.49468" lon="5.50767">
        <ele>1242.8</ele>
        <time>2021-09-07T09:20:27Z</time>
      </trkpt>
      <trkpt lat="44.49467" lon="5.50767">
        <ele>1242.9</ele>
        <time>2021-09-07T09:20:28Z</time>
      </trkpt>
      <trkpt lat="44.49467" lon="5.50767">
        <ele>1242.9</ele>
        <time>2021-09-07T09:20:29Z</time>
      </trkpt>
      <trkpt lat="44.49466" lon="5.50766">
        <ele>1243.1</ele>
        <time>2021-09-07T09:20:30Z</time>
      </trkpt>
      <trkpt lat="44.49466" lon="5.50766">
        <ele>1243.2</ele>
        <time>2021-09-07T09:20:31Z</time>
      </trkpt>
      <trkpt lat="44.49465" lon="5.50765">
        <ele>1243.2</ele>
        <time>2021-09-07T09:20:32Z</time>
      </trkpt>
      <trkpt lat="44.49464" lon="5.50762">
        <ele>1243.6</ele>
        <time>2021-09-07T09:20:33Z</time>
      </trkpt>
      <trkpt lat="44.49464" lon="5.50761">
        <ele>1243.7</ele>
        <time>2021-09-07T09:20:34Z</time>
      </trkpt>
      <trkpt lat="44.49464" lon="5.50761">
        <ele>1243.7</ele>
        <time>2021-09-07T09:20:35Z</time>
      </trkpt>
      <trkpt lat="44.49464" lon="5.5076">
        <ele>1243.8</ele>
        <time>2021-09-07T09:20:36Z</time>
      </trkpt>
      <trkpt lat="44.49463" lon="5.50758">
        <ele>1244</ele>
        <time>2021-09-07T09:20:37Z</time>
      </trkpt>
      <trkpt lat="44.49463" lon="5.50757">
        <ele>1244.1</ele>
        <time>2021-09-07T09:20:38Z</time>
      </trkpt>
      <trkpt lat="44.49463" lon="5.50756">
        <ele>1244.2</ele>
        <time>2021-09-07T09:20:39Z</time>
      </trkpt>
      <trkpt lat="44.49463" lon="5.50754">
        <ele>1244.4</ele>
        <time>2021-09-07T09:20:40Z</time>
      </trkpt>
      <trkpt lat="44.49463" lon="5.50753">
        <ele>1244.5</ele>
        <time>2021-09-07T09:20:41Z</time>
      </trkpt>
      <trkpt lat="44.49463" lon="5.50753">
        <ele>1244.6</ele>
        <time>2021-09-07T09:20:42Z</time>
      </trkpt>
      <trkpt lat="44.49463" lon="5.50752">
        <ele>1244.6</ele>
        <time>2021-09-07T09:20:43Z</time>
      </trkpt>
      <trkpt lat="44.49463" lon="5.50751">
        <ele>1244.7</ele>
        <time>2021-09-07T09:20:44Z</time>
      </trkpt>
      <trkpt lat="44.49462" lon="5.5075">
        <ele>1244.9</ele>
        <time>2021-09-07T09:20:45Z</time>
      </trkpt>
      <trkpt lat="44.49462" lon="5.5075">
        <ele>1245</ele>
        <time>2021-09-07T09:20:46Z</time>
      </trkpt>
      <trkpt lat="44.49462" lon="5.50749">
        <ele>1245</ele>
        <time>2021-09-07T09:20:47Z</time>
      </trkpt>
      <trkpt lat="44.49462" lon="5.50748">
        <ele>1245.1</ele>
        <time>2021-09-07T09:20:48Z</time>
      </trkpt>
      <trkpt lat="44.49462" lon="5.50746">
        <ele>1245.3</ele>
        <time>2021-09-07T09:20:49Z</time>
      </trkpt>
      <trkpt lat="44.49461" lon="5.50744">
        <ele>1245.6</ele>
        <time>2021-09-07T09:20:50Z</time>
      </trkpt>
      <trkpt lat="44.49461" lon="5.50743">
        <ele>1245.7</ele>
        <time>2021-09-07T09:20:51Z</time>
      </trkpt>
      <trkpt lat="44.49461" lon="5.50743">
        <ele>1245.8</ele>
        <time>2021-09-07T09:20:52Z</time>
      </trkpt>
      <trkpt lat="44.4946" lon="5.50742">
        <ele>1245.8</ele>
        <time>2021-09-07T09:20:53Z</time>
      </trkpt>
      <trkpt lat="44.49459" lon="5.50742">
        <ele>1246</ele>
        <time>2021-09-07T09:20:54Z</time>
      </trkpt>
      <trkpt lat="44.49458" lon="5.50741">
        <ele>1246.1</ele>
        <time>2021-09-07T09:20:55Z</time>
      </trkpt>
      <trkpt lat="44.49457" lon="5.5074">
        <ele>1246.3</ele>
        <time>2021-09-07T09:20:56Z</time>
      </trkpt>
      <trkpt lat="44.49456" lon="5.50739">
        <ele>1246.5</ele>
        <time>2021-09-07T09:20:57Z</time>
      </trkpt>
      <trkpt lat="44.49453" lon="5.50738">
        <ele>1246.9</ele>
        <time>2021-09-07T09:20:58Z</time>
      </trkpt>
      <trkpt lat="44.49452" lon="5.50738">
        <ele>1247</ele>
        <time>2021-09-07T09:20:59Z</time>
      </trkpt>
      <trkpt lat="44.49451" lon="5.50737">
        <ele>1247.1</ele>
        <time>2021-09-07T09:21:00Z</time>
      </trkpt>
      <trkpt lat="44.4945" lon="5.50737">
        <ele>1247.3</ele>
        <time>2021-09-07T09:21:01Z</time>
      </trkpt>
      <trkpt lat="44.49449" lon="5.50736">
        <ele>1247.4</ele>
        <time>2021-09-07T09:21:02Z</time>
      </trkpt>
      <trkpt lat="44.49448" lon="5.50736">
        <ele>1247.5</ele>
        <time>2021-09-07T09:21:03Z</time>
      </trkpt>
      <trkpt lat="44.49448" lon="5.50736">
        <ele>1247.5</ele>
        <time>2021-09-07T09:21:04Z</time>
      </trkpt>
      <trkpt lat="44.49448" lon="5.50736">
        <ele>1247.5</ele>
        <time>2021-09-07T09:21:05Z</time>
      </trkpt>
      <trkpt lat="44.49448" lon="5.50736">
        <ele>1247.5</ele>
        <time>2021-09-07T09:21:06Z</time>
      </trkpt>
      <trkpt lat="44.49448" lon="5.50736">
        <ele>1247.5</ele>
        <time>2021-09-07T09:21:07Z</time>
      </trkpt>
      <trkpt lat="44.49448" lon="5.50736">
        <ele>1247.5</ele>
        <time>2021-09-07T09:21:08Z</time>
      </trkpt>
      <trkpt lat="44.49448" lon="5.50736">
        <ele>1247.6</ele>
        <time>2021-09-07T09:21:09Z</time>
      </trkpt>
      <trkpt lat="44.49447" lon="5.50736">
        <ele>1247.6</ele>
        <time>2021-09-07T09:21:10Z</time>
      </trkpt>
      <trkpt lat="44.49447" lon="5.50736">
        <ele>1247.6</ele>
        <time>2021-09-07T09:21:11Z</time>
      </trkpt>
      <trkpt lat="44.49447" lon="5.50736">
        <ele>1247.6</ele>
        <time>2021-09-07T09:21:12Z</time>
      </trkpt>
      <trkpt lat="44.49447" lon="5.50736">
        <ele>1247.6</ele>
        <time>2021-09-07T09:21:13Z</time>
      </trkpt>
      <trkpt lat="44.49447" lon="5.50736">
        <ele>1247.6</ele>
        <time>2021-09-07T09:21:14Z</time>
      </trkpt>
      <trkpt lat="44.49447" lon="5.50736">
        <ele>1247.6</ele>
        <time>2021-09-07T09:21:15Z</time>
      </trkpt>
      <trkpt lat="44.49446" lon="5.50736">
        <ele>1247.8</ele>
        <time>2021-09-07T09:21:16Z</time>
      </trkpt>
      <trkpt lat="44.49445" lon="5.50735">
        <ele>1247.9</ele>
        <time>2021-09-07T09:21:17Z</time>
      </trkpt>
      <trkpt lat="44.49445" lon="5.50735">
        <ele>1247.9</ele>
        <time>2021-09-07T09:21:18Z</time>
      </trkpt>
      <trkpt lat="44.49445" lon="5.50735">
        <ele>1247.9</ele>
        <time>2021-09-07T09:21:19Z</time>
      </trkpt>
      <trkpt lat="44.49443" lon="5.50733">
        <ele>1248.2</ele>
        <time>2021-09-07T09:21:20Z</time>
      </trkpt>
      <trkpt lat="44.49442" lon="5.50732">
        <ele>1248.3</ele>
        <time>2021-09-07T09:21:21Z</time>
      </trkpt>
      <trkpt lat="44.49442" lon="5.50731">
        <ele>1248.4</ele>
        <time>2021-09-07T09:21:22Z</time>
      </trkpt>
      <trkpt lat="44.49442" lon="5.5073">
        <ele>1248.5</ele>
        <time>2021-09-07T09:21:23Z</time>
      </trkpt>
      <trkpt lat="44.49441" lon="5.50729">
        <ele>1248.6</ele>
        <time>2021-09-07T09:21:24Z</time>
      </trkpt>
      <trkpt lat="44.49441" lon="5.50727">
        <ele>1248.7</ele>
        <time>2021-09-07T09:21:25Z</time>
      </trkpt>
      <trkpt lat="44.49439" lon="5.50723">
        <ele>1248.9</ele>
        <time>2021-09-07T09:21:26Z</time>
      </trkpt>
      <trkpt lat="44.49439" lon="5.50722">
        <ele>1249</ele>
        <time>2021-09-07T09:21:27Z</time>
      </trkpt>
      <trkpt lat="44.49439" lon="5.50721">
        <ele>1249</ele>
        <time>2021-09-07T09:21:28Z</time>
      </trkpt>
      <trkpt lat="44.49438" lon="5.50719">
        <ele>1249.1</ele>
        <time>2021-09-07T09:21:29Z</time>
      </trkpt>
      <trkpt lat="44.49438" lon="5.50718">
        <ele>1249.2</ele>
        <time>2021-09-07T09:21:30Z</time>
      </trkpt>
      <trkpt lat="44.49438" lon="5.50717">
        <ele>1249.2</ele>
        <time>2021-09-07T09:21:31Z</time>
      </trkpt>
      <trkpt lat="44.49438" lon="5.50717">
        <ele>1249.3</ele>
        <time>2021-09-07T09:21:32Z</time>
      </trkpt>
      <trkpt lat="44.49438" lon="5.50716">
        <ele>1249.3</ele>
        <time>2021-09-07T09:21:33Z</time>
      </trkpt>
      <trkpt lat="44.49438" lon="5.50716">
        <ele>1249.3</ele>
        <time>2021-09-07T09:21:34Z</time>
      </trkpt>
      <trkpt lat="44.49438" lon="5.50715">
        <ele>1249.3</ele>
        <time>2021-09-07T09:21:35Z</time>
      </trkpt>
      <trkpt lat="44.49438" lon="5.50715">
        <ele>1249.3</ele>
        <time>2021-09-07T09:21:36Z</time>
      </trkpt>
      <trkpt lat="44.49438" lon="5.50715">
        <ele>1249.3</ele>
        <time>2021-09-07T09:21:37Z</time>
      </trkpt>
      <trkpt lat="44.49439" lon="5.50712">
        <ele>1249.5</ele>
        <time>2021-09-07T09:21:38Z</time>
      </trkpt>
      <trkpt lat="44.4944" lon="5.50711">
        <ele>1249.6</ele>
        <time>2021-09-07T09:21:39Z</time>
      </trkpt>
      <trkpt lat="44.4944" lon="5.50709">
        <ele>1249.7</ele>
        <time>2021-09-07T09:21:40Z</time>
      </trkpt>
      <trkpt lat="44.49441" lon="5.50705">
        <ele>1249.9</ele>
        <time>2021-09-07T09:21:41Z</time>
      </trkpt>
      <trkpt lat="44.49441" lon="5.50702">
        <ele>1250</ele>
        <time>2021-09-07T09:21:42Z</time>
      </trkpt>
      <trkpt lat="44.49442" lon="5.50701">
        <ele>1250.1</ele>
        <time>2021-09-07T09:21:43Z</time>
      </trkpt>
      <trkpt lat="44.49442" lon="5.507">
        <ele>1250.1</ele>
        <time>2021-09-07T09:21:44Z</time>
      </trkpt>
      <trkpt lat="44.49443" lon="5.507">
        <ele>1250.2</ele>
        <time>2021-09-07T09:21:45Z</time>
      </trkpt>
      <trkpt lat="44.49446" lon="5.50698">
        <ele>1250.5</ele>
        <time>2021-09-07T09:21:46Z</time>
      </trkpt>
      <trkpt lat="44.49447" lon="5.50698">
        <ele>1250.5</ele>
        <time>2021-09-07T09:21:47Z</time>
      </trkpt>
      <trkpt lat="44.49448" lon="5.50697">
        <ele>1250.6</ele>
        <time>2021-09-07T09:21:48Z</time>
      </trkpt>
      <trkpt lat="44.4945" lon="5.50696">
        <ele>1250.8</ele>
        <time>2021-09-07T09:21:49Z</time>
      </trkpt>
      <trkpt lat="44.49452" lon="5.50694">
        <ele>1250.9</ele>
        <time>2021-09-07T09:21:50Z</time>
      </trkpt>
      <trkpt lat="44.49453" lon="5.50694">
        <ele>1251</ele>
        <time>2021-09-07T09:21:51Z</time>
      </trkpt>
      <trkpt lat="44.49454" lon="5.50693">
        <ele>1251</ele>
        <time>2021-09-07T09:21:52Z</time>
      </trkpt>
      <trkpt lat="44.49455" lon="5.50693">
        <ele>1251.1</ele>
        <time>2021-09-07T09:21:53Z</time>
      </trkpt>
      <trkpt lat="44.49456" lon="5.50692">
        <ele>1251.2</ele>
        <time>2021-09-07T09:21:54Z</time>
      </trkpt>
      <trkpt lat="44.49457" lon="5.50691">
        <ele>1251.3</ele>
        <time>2021-09-07T09:21:55Z</time>
      </trkpt>
      <trkpt lat="44.49459" lon="5.50689">
        <ele>1251.4</ele>
        <time>2021-09-07T09:21:56Z</time>
      </trkpt>
      <trkpt lat="44.49459" lon="5.50689">
        <ele>1251.4</ele>
        <time>2021-09-07T09:21:57Z</time>
      </trkpt>
      <trkpt lat="44.49459" lon="5.50688">
        <ele>1251.4</ele>
        <time>2021-09-07T09:21:58Z</time>
      </trkpt>
      <trkpt lat="44.4946" lon="5.50688">
        <ele>1251.5</ele>
        <time>2021-09-07T09:21:59Z</time>
      </trkpt>
      <trkpt lat="44.4946" lon="5.50688">
        <ele>1251.5</ele>
        <time>2021-09-07T09:22:00Z</time>
      </trkpt>
      <trkpt lat="44.4946" lon="5.50688">
        <ele>1251.5</ele>
        <time>2021-09-07T09:22:01Z</time>
      </trkpt>
      <trkpt lat="44.4946" lon="5.50687">
        <ele>1251.5</ele>
        <time>2021-09-07T09:22:02Z</time>
      </trkpt>
      <trkpt lat="44.4946" lon="5.50687">
        <ele>1251.5</ele>
        <time>2021-09-07T09:22:03Z</time>
      </trkpt>
      <trkpt lat="44.49461" lon="5.50687">
        <ele>1251.6</ele>
        <time>2021-09-07T09:22:04Z</time>
      </trkpt>
      <trkpt lat="44.49461" lon="5.50686">
        <ele>1251.6</ele>
        <time>2021-09-07T09:22:05Z</time>
      </trkpt>
      <trkpt lat="44.49461" lon="5.50686">
        <ele>1251.6</ele>
        <time>2021-09-07T09:22:06Z</time>
      </trkpt>
      <trkpt lat="44.49461" lon="5.50686">
        <ele>1251.6</ele>
        <time>2021-09-07T09:22:07Z</time>
      </trkpt>
      <trkpt lat="44.49461" lon="5.50686">
        <ele>1251.6</ele>
        <time>2021-09-07T09:22:08Z</time>
      </trkpt>
      <trkpt lat="44.49461" lon="5.50686">
        <ele>1251.6</ele>
        <time>2021-09-07T09:22:09Z</time>
      </trkpt>
      <trkpt lat="44.49461" lon="5.50686">
        <ele>1251.6</ele>
        <time>2021-09-07T09:22:10Z</time>
      </trkpt>
      <trkpt lat="44.49461" lon="5.50686">
        <ele>1251.6</ele>
        <time>2021-09-07T09:22:11Z</time>
      </trkpt>
      <trkpt lat="44.49461" lon="5.50686">
        <ele>1251.6</ele>
        <time>2021-09-07T09:22:12Z</time>
      </trkpt>
      <trkpt lat="44.49461" lon="5.50686">
        <ele>1251.6</ele>
        <time>2021-09-07T09:22:13Z</time>
      </trkpt>
      <trkpt lat="44.49461" lon="5.50686">
        <ele>1251.6</ele>
        <time>2021-09-07T09:22:14Z</time>
      </trkpt>
      <trkpt lat="44.49461" lon="5.50686">
        <ele>1251.6</ele>
        <time>2021-09-07T09:22:15Z</time>
      </trkpt>
      <trkpt lat="44.49461" lon="5.50686">
        <ele>1251.6</ele>
        <time>2021-09-07T09:22:16Z</time>
      </trkpt>
      <trkpt lat="44.49461" lon="5.50686">
        <ele>1251.6</ele>
        <time>2021-09-07T09:22:17Z</time>
      </trkpt>
      <trkpt lat="44.49461" lon="5.50685">
        <ele>1251.6</ele>
        <time>2021-09-07T09:22:18Z</time>
      </trkpt>
      <trkpt lat="44.49461" lon="5.50685">
        <ele>1251.6</ele>
        <time>2021-09-07T09:22:19Z</time>
      </trkpt>
      <trkpt lat="44.49461" lon="5.50685">
        <ele>1251.6</ele>
        <time>2021-09-07T09:22:20Z</time>
      </trkpt>
      <trkpt lat="44.4946" lon="5.50685">
        <ele>1251.7</ele>
        <time>2021-09-07T09:22:21Z</time>
      </trkpt>
      <trkpt lat="44.49459" lon="5.50683">
        <ele>1251.8</ele>
        <time>2021-09-07T09:22:22Z</time>
      </trkpt>
      <trkpt lat="44.49458" lon="5.50683">
        <ele>1251.9</ele>
        <time>2021-09-07T09:22:23Z</time>
      </trkpt>
      <trkpt lat="44.49457" lon="5.50682">
        <ele>1251.9</ele>
        <time>2021-09-07T09:22:24Z</time>
      </trkpt>
      <trkpt lat="44.49456" lon="5.50681">
        <ele>1252</ele>
        <time>2021-09-07T09:22:25Z</time>
      </trkpt>
      <trkpt lat="44.49455" lon="5.5068">
        <ele>1252</ele>
        <time>2021-09-07T09:22:26Z</time>
      </trkpt>
      <trkpt lat="44.49454" lon="5.5068">
        <ele>1252.1</ele>
        <time>2021-09-07T09:22:27Z</time>
      </trkpt>
      <trkpt lat="44.49453" lon="5.5068">
        <ele>1252.2</ele>
        <time>2021-09-07T09:22:28Z</time>
      </trkpt>
      <trkpt lat="44.49452" lon="5.50679">
        <ele>1252.2</ele>
        <time>2021-09-07T09:22:29Z</time>
      </trkpt>
      <trkpt lat="44.49452" lon="5.50679">
        <ele>1252.2</ele>
        <time>2021-09-07T09:22:30Z</time>
      </trkpt>
      <trkpt lat="44.49451" lon="5.50679">
        <ele>1252.3</ele>
        <time>2021-09-07T09:22:31Z</time>
      </trkpt>
      <trkpt lat="44.4945" lon="5.50679">
        <ele>1252.3</ele>
        <time>2021-09-07T09:22:32Z</time>
      </trkpt>
      <trkpt lat="44.4945" lon="5.50679">
        <ele>1252.3</ele>
        <time>2021-09-07T09:22:33Z</time>
      </trkpt>
      <trkpt lat="44.4945" lon="5.50679">
        <ele>1252.4</ele>
        <time>2021-09-07T09:22:34Z</time>
      </trkpt>
      <trkpt lat="44.49449" lon="5.50679">
        <ele>1252.4</ele>
        <time>2021-09-07T09:22:35Z</time>
      </trkpt>
      <trkpt lat="44.49449" lon="5.50679">
        <ele>1252.4</ele>
        <time>2021-09-07T09:22:36Z</time>
      </trkpt>
      <trkpt lat="44.49448" lon="5.50679">
        <ele>1252.4</ele>
        <time>2021-09-07T09:22:37Z</time>
      </trkpt>
      <trkpt lat="44.49448" lon="5.50679">
        <ele>1252.4</ele>
        <time>2021-09-07T09:22:38Z</time>
      </trkpt>
      <trkpt lat="44.49448" lon="5.50679">
        <ele>1252.4</ele>
        <time>2021-09-07T09:22:39Z</time>
      </trkpt>
      <trkpt lat="44.49448" lon="5.50679">
        <ele>1252.4</ele>
        <time>2021-09-07T09:22:40Z</time>
      </trkpt>
      <trkpt lat="44.49448" lon="5.50681">
        <ele>1252.5</ele>
        <time>2021-09-07T09:22:41Z</time>
      </trkpt>
      <trkpt lat="44.49448" lon="5.50682">
        <ele>1252.6</ele>
        <time>2021-09-07T09:22:42Z</time>
      </trkpt>
      <trkpt lat="44.49448" lon="5.50683">
        <ele>1252.6</ele>
        <time>2021-09-07T09:22:43Z</time>
      </trkpt>
      <trkpt lat="44.49448" lon="5.50683">
        <ele>1252.6</ele>
        <time>2021-09-07T09:22:44Z</time>
      </trkpt>
      <trkpt lat="44.49448" lon="5.50683">
        <ele>1252.6</ele>
        <time>2021-09-07T09:22:45Z</time>
      </trkpt>
      <trkpt lat="44.49448" lon="5.50683">
        <ele>1252.6</ele>
        <time>2021-09-07T09:22:46Z</time>
      </trkpt>
      <trkpt lat="44.49448" lon="5.50683">
        <ele>1252.6</ele>
        <time>2021-09-07T09:22:47Z</time>
      </trkpt>
      <trkpt lat="44.49448" lon="5.50683">
        <ele>1252.6</ele>
        <time>2021-09-07T09:22:48Z</time>
      </trkpt>
      <trkpt lat="44.49448" lon="5.50683">
        <ele>1252.6</ele>
        <time>2021-09-07T09:22:49Z</time>
      </trkpt>
      <trkpt lat="44.49448" lon="5.50683">
        <ele>1252.6</ele>
        <time>2021-09-07T09:22:50Z</time>
      </trkpt>
      <trkpt lat="44.49448" lon="5.50683">
        <ele>1252.6</ele>
        <time>2021-09-07T09:22:51Z</time>
      </trkpt>
      <trkpt lat="44.49448" lon="5.50683">
        <ele>1252.6</ele>
        <time>2021-09-07T09:22:52Z</time>
      </trkpt>
      <trkpt lat="44.49448" lon="5.50683">
        <ele>1252.6</ele>
        <time>2021-09-07T09:22:53Z</time>
      </trkpt>
      <trkpt lat="44.49448" lon="5.50683">
        <ele>1252.6</ele>
        <time>2021-09-07T09:22:54Z</time>
      </trkpt>
      <trkpt lat="44.49448" lon="5.50683">
        <ele>1252.6</ele>
        <time>2021-09-07T09:22:55Z</time>
      </trkpt>
      <trkpt lat="44.49448" lon="5.50683">
        <ele>1252.6</ele>
        <time>2021-09-07T09:22:56Z</time>
      </trkpt>
      <trkpt lat="44.49448" lon="5.50683">
        <ele>1252.6</ele>
        <time>2021-09-07T09:22:57Z</time>
      </trkpt>
      <trkpt lat="44.49448" lon="5.50683">
        <ele>1252.6</ele>
        <time>2021-09-07T09:22:58Z</time>
      </trkpt>
      <trkpt lat="44.49448" lon="5.50683">
        <ele>1252.6</ele>
        <time>2021-09-07T09:22:59Z</time>
      </trkpt>
      <trkpt lat="44.49448" lon="5.50683">
        <ele>1252.6</ele>
        <time>2021-09-07T09:23:00Z</time>
      </trkpt>
      <trkpt lat="44.49448" lon="5.50683">
        <ele>1252.6</ele>
        <time>2021-09-07T09:23:01Z</time>
      </trkpt>
      <trkpt lat="44.49448" lon="5.50683">
        <ele>1252.6</ele>
        <time>2021-09-07T09:23:02Z</time>
      </trkpt>
      <trkpt lat="44.49448" lon="5.50683">
        <ele>1252.6</ele>
        <time>2021-09-07T09:23:03Z</time>
      </trkpt>
      <trkpt lat="44.49448" lon="5.50683">
        <ele>1252.6</ele>
        <time>2021-09-07T09:23:04Z</time>
      </trkpt>
      <trkpt lat="44.49448" lon="5.50683">
        <ele>1252.6</ele>
        <time>2021-09-07T09:23:05Z</time>
      </trkpt>
      <trkpt lat="44.49448" lon="5.50683">
        <ele>1252.6</ele>
        <time>2021-09-07T09:23:06Z</time>
      </trkpt>
      <trkpt lat="44.49448" lon="5.50683">
        <ele>1252.6</ele>
        <time>2021-09-07T09:23:07Z</time>
      </trkpt>
      <trkpt lat="44.49448" lon="5.50683">
        <ele>1252.6</ele>
        <time>2021-09-07T09:23:08Z</time>
      </trkpt>
      <trkpt lat="44.49448" lon="5.50683">
        <ele>1252.6</ele>
        <time>2021-09-07T09:23:09Z</time>
      </trkpt>
      <trkpt lat="44.49448" lon="5.50683">
        <ele>1252.6</ele>
        <time>2021-09-07T09:23:10Z</time>
      </trkpt>
      <trkpt lat="44.49448" lon="5.50683">
        <ele>1252.6</ele>
        <time>2021-09-07T09:23:11Z</time>
      </trkpt>
      <trkpt lat="44.49448" lon="5.50683">
        <ele>1252.6</ele>
        <time>2021-09-07T09:23:12Z</time>
      </trkpt>
      <trkpt lat="44.49448" lon="5.50683">
        <ele>1252.6</ele>
        <time>2021-09-07T09:23:13Z</time>
      </trkpt>
      <trkpt lat="44.49448" lon="5.50683">
        <ele>1252.6</ele>
        <time>2021-09-07T09:23:14Z</time>
      </trkpt>
      <trkpt lat="44.49448" lon="5.50683">
        <ele>1252.6</ele>
        <time>2021-09-07T09:23:15Z</time>
      </trkpt>
      <trkpt lat="44.49448" lon="5.50683">
        <ele>1252.6</ele>
        <time>2021-09-07T09:23:16Z</time>
      </trkpt>
      <trkpt lat="44.49448" lon="5.50683">
        <ele>1252.6</ele>
        <time>2021-09-07T09:23:17Z</time>
      </trkpt>
      <trkpt lat="44.49448" lon="5.50683">
        <ele>1252.6</ele>
        <time>2021-09-07T09:23:18Z</time>
      </trkpt>
      <trkpt lat="44.49448" lon="5.50683">
        <ele>1252.6</ele>
        <time>2021-09-07T09:23:19Z</time>
      </trkpt>
      <trkpt lat="44.49448" lon="5.50683">
        <ele>1252.6</ele>
        <time>2021-09-07T09:23:20Z</time>
      </trkpt>
      <trkpt lat="44.49448" lon="5.50683">
        <ele>1252.6</ele>
        <time>2021-09-07T09:23:21Z</time>
      </trkpt>
      <trkpt lat="44.49448" lon="5.50683">
        <ele>1252.6</ele>
        <time>2021-09-07T09:23:22Z</time>
      </trkpt>
      <trkpt lat="44.49448" lon="5.50683">
        <ele>1252.6</ele>
        <time>2021-09-07T09:23:23Z</time>
      </trkpt>
      <trkpt lat="44.49448" lon="5.50683">
        <ele>1252.6</ele>
        <time>2021-09-07T09:23:24Z</time>
      </trkpt>
      <trkpt lat="44.49448" lon="5.50683">
        <ele>1252.6</ele>
        <time>2021-09-07T09:23:25Z</time>
      </trkpt>
      <trkpt lat="44.49448" lon="5.50683">
        <ele>1252.6</ele>
        <time>2021-09-07T09:23:26Z</time>
      </trkpt>
      <trkpt lat="44.49448" lon="5.50683">
        <ele>1252.6</ele>
        <time>2021-09-07T09:23:27Z</time>
      </trkpt>
      <trkpt lat="44.49448" lon="5.50683">
        <ele>1252.6</ele>
        <time>2021-09-07T09:23:28Z</time>
      </trkpt>
      <trkpt lat="44.49448" lon="5.50683">
        <ele>1252.6</ele>
        <time>2021-09-07T09:23:29Z</time>
      </trkpt>
      <trkpt lat="44.49448" lon="5.50683">
        <ele>1252.6</ele>
        <time>2021-09-07T09:23:30Z</time>
      </trkpt>
      <trkpt lat="44.49448" lon="5.50683">
        <ele>1252.6</ele>
        <time>2021-09-07T09:23:31Z</time>
      </trkpt>
      <trkpt lat="44.49448" lon="5.50683">
        <ele>1252.6</ele>
        <time>2021-09-07T09:23:32Z</time>
      </trkpt>
      <trkpt lat="44.49448" lon="5.50683">
        <ele>1252.6</ele>
        <time>2021-09-07T09:23:33Z</time>
      </trkpt>
      <trkpt lat="44.49448" lon="5.50683">
        <ele>1252.6</ele>
        <time>2021-09-07T09:23:34Z</time>
      </trkpt>
      <trkpt lat="44.49448" lon="5.50683">
        <ele>1252.6</ele>
        <time>2021-09-07T09:23:35Z</time>
      </trkpt>
      <trkpt lat="44.49448" lon="5.50683">
        <ele>1252.6</ele>
        <time>2021-09-07T09:23:36Z</time>
      </trkpt>
      <trkpt lat="44.49448" lon="5.50683">
        <ele>1252.6</ele>
        <time>2021-09-07T09:23:37Z</time>
      </trkpt>
      <trkpt lat="44.49448" lon="5.50683">
        <ele>1252.6</ele>
        <time>2021-09-07T09:23:38Z</time>
      </trkpt>
      <trkpt lat="44.49448" lon="5.50683">
        <ele>1252.6</ele>
        <time>2021-09-07T09:23:39Z</time>
      </trkpt>
      <trkpt lat="44.49448" lon="5.50683">
        <ele>1252.6</ele>
        <time>2021-09-07T09:23:40Z</time>
      </trkpt>
      <trkpt lat="44.49448" lon="5.50683">
        <ele>1252.6</ele>
        <time>2021-09-07T09:23:41Z</time>
      </trkpt>
      <trkpt lat="44.49448" lon="5.50683">
        <ele>1252.6</ele>
        <time>2021-09-07T09:23:42Z</time>
      </trkpt>
      <trkpt lat="44.49448" lon="5.50683">
        <ele>1252.6</ele>
        <time>2021-09-07T09:23:43Z</time>
      </trkpt>
      <trkpt lat="44.49448" lon="5.50683">
        <ele>1252.6</ele>
        <time>2021-09-07T09:23:44Z</time>
      </trkpt>
      <trkpt lat="44.49448" lon="5.50683">
        <ele>1252.6</ele>
        <time>2021-09-07T09:23:45Z</time>
      </trkpt>
      <trkpt lat="44.49448" lon="5.50683">
        <ele>1252.6</ele>
        <time>2021-09-07T09:23:46Z</time>
      </trkpt>
      <trkpt lat="44.49447" lon="5.50682">
        <ele>1252.7</ele>
        <time>2021-09-07T09:23:47Z</time>
      </trkpt>
      <trkpt lat="44.49447" lon="5.50681">
        <ele>1252.7</ele>
        <time>2021-09-07T09:23:48Z</time>
      </trkpt>
      <trkpt lat="44.49446" lon="5.50681">
        <ele>1252.8</ele>
        <time>2021-09-07T09:23:49Z</time>
      </trkpt>
      <trkpt lat="44.49445" lon="5.50679">
        <ele>1252.8</ele>
        <time>2021-09-07T09:23:50Z</time>
      </trkpt>
      <trkpt lat="44.49445" lon="5.50678">
        <ele>1252.9</ele>
        <time>2021-09-07T09:23:51Z</time>
      </trkpt>
      <trkpt lat="44.49444" lon="5.50677">
        <ele>1253</ele>
        <time>2021-09-07T09:23:52Z</time>
      </trkpt>
      <trkpt lat="44.49444" lon="5.50677">
        <ele>1253</ele>
        <time>2021-09-07T09:23:53Z</time>
      </trkpt>
      <trkpt lat="44.49444" lon="5.50677">
        <ele>1253</ele>
        <time>2021-09-07T09:23:54Z</time>
      </trkpt>
      <trkpt lat="44.49444" lon="5.50676">
        <ele>1253</ele>
        <time>2021-09-07T09:23:55Z</time>
      </trkpt>
      <trkpt lat="44.49444" lon="5.50676">
        <ele>1253</ele>
        <time>2021-09-07T09:23:56Z</time>
      </trkpt>
      <trkpt lat="44.49444" lon="5.50676">
        <ele>1253</ele>
        <time>2021-09-07T09:23:57Z</time>
      </trkpt>
      <trkpt lat="44.49444" lon="5.50675">
        <ele>1253</ele>
        <time>2021-09-07T09:23:58Z</time>
      </trkpt>
      <trkpt lat="44.49444" lon="5.50675">
        <ele>1253</ele>
        <time>2021-09-07T09:23:59Z</time>
      </trkpt>
      <trkpt lat="44.49444" lon="5.50675">
        <ele>1253</ele>
        <time>2021-09-07T09:24:00Z</time>
      </trkpt>
      <trkpt lat="44.49444" lon="5.50675">
        <ele>1253.1</ele>
        <time>2021-09-07T09:24:01Z</time>
      </trkpt>
      <trkpt lat="44.49444" lon="5.50674">
        <ele>1253.1</ele>
        <time>2021-09-07T09:24:02Z</time>
      </trkpt>
      <trkpt lat="44.49443" lon="5.50671">
        <ele>1253.2</ele>
        <time>2021-09-07T09:24:03Z</time>
      </trkpt>
      <trkpt lat="44.49443" lon="5.50668">
        <ele>1253.3</ele>
        <time>2021-09-07T09:24:04Z</time>
      </trkpt>
      <trkpt lat="44.49442" lon="5.50664">
        <ele>1253.5</ele>
        <time>2021-09-07T09:24:05Z</time>
      </trkpt>
      <trkpt lat="44.49442" lon="5.50662">
        <ele>1253.6</ele>
        <time>2021-09-07T09:24:06Z</time>
      </trkpt>
      <trkpt lat="44.49442" lon="5.50661">
        <ele>1253.6</ele>
        <time>2021-09-07T09:24:07Z</time>
      </trkpt>
      <trkpt lat="44.49442" lon="5.5066">
        <ele>1253.7</ele>
        <time>2021-09-07T09:24:08Z</time>
      </trkpt>
      <trkpt lat="44.49442" lon="5.50658">
        <ele>1253.8</ele>
        <time>2021-09-07T09:24:09Z</time>
      </trkpt>
      <trkpt lat="44.49442" lon="5.50657">
        <ele>1253.8</ele>
        <time>2021-09-07T09:24:10Z</time>
      </trkpt>
      <trkpt lat="44.49442" lon="5.50656">
        <ele>1253.9</ele>
        <time>2021-09-07T09:24:11Z</time>
      </trkpt>
      <trkpt lat="44.49442" lon="5.50656">
        <ele>1253.9</ele>
        <time>2021-09-07T09:24:12Z</time>
      </trkpt>
      <trkpt lat="44.49442" lon="5.50655">
        <ele>1253.9</ele>
        <time>2021-09-07T09:24:13Z</time>
      </trkpt>
      <trkpt lat="44.49442" lon="5.50655">
        <ele>1253.9</ele>
        <time>2021-09-07T09:24:14Z</time>
      </trkpt>
      <trkpt lat="44.49442" lon="5.50655">
        <ele>1253.9</ele>
        <time>2021-09-07T09:24:15Z</time>
      </trkpt>
      <trkpt lat="44.49442" lon="5.50655">
        <ele>1253.9</ele>
        <time>2021-09-07T09:24:16Z</time>
      </trkpt>
      <trkpt lat="44.49441" lon="5.50654">
        <ele>1254</ele>
        <time>2021-09-07T09:24:17Z</time>
      </trkpt>
      <trkpt lat="44.49441" lon="5.50651">
        <ele>1254.1</ele>
        <time>2021-09-07T09:24:18Z</time>
      </trkpt>
      <trkpt lat="44.49441" lon="5.5065">
        <ele>1254.1</ele>
        <time>2021-09-07T09:24:19Z</time>
      </trkpt>
      <trkpt lat="44.4944" lon="5.50649">
        <ele>1254.2</ele>
        <time>2021-09-07T09:24:20Z</time>
      </trkpt>
      <trkpt lat="44.49439" lon="5.50645">
        <ele>1254.3</ele>
        <time>2021-09-07T09:24:21Z</time>
      </trkpt>
      <trkpt lat="44.49439" lon="5.50644">
        <ele>1254.4</ele>
        <time>2021-09-07T09:24:22Z</time>
      </trkpt>
      <trkpt lat="44.49438" lon="5.50643">
        <ele>1254.4</ele>
        <time>2021-09-07T09:24:23Z</time>
      </trkpt>
      <trkpt lat="44.49438" lon="5.50642">
        <ele>1254.5</ele>
        <time>2021-09-07T09:24:24Z</time>
      </trkpt>
      <trkpt lat="44.49437" lon="5.50641">
        <ele>1254.5</ele>
        <time>2021-09-07T09:24:25Z</time>
      </trkpt>
      <trkpt lat="44.49437" lon="5.50641">
        <ele>1254.5</ele>
        <time>2021-09-07T09:24:26Z</time>
      </trkpt>
      <trkpt lat="44.49437" lon="5.50641">
        <ele>1254.5</ele>
        <time>2021-09-07T09:24:27Z</time>
      </trkpt>
      <trkpt lat="44.49437" lon="5.5064">
        <ele>1254.5</ele>
        <time>2021-09-07T09:24:28Z</time>
      </trkpt>
      <trkpt lat="44.49437" lon="5.5064">
        <ele>1254.5</ele>
        <time>2021-09-07T09:24:29Z</time>
      </trkpt>
      <trkpt lat="44.49437" lon="5.50639">
        <ele>1254.6</ele>
        <time>2021-09-07T09:24:30Z</time>
      </trkpt>
      <trkpt lat="44.49437" lon="5.50638">
        <ele>1254.6</ele>
        <time>2021-09-07T09:24:31Z</time>
      </trkpt>
      <trkpt lat="44.49437" lon="5.50636">
        <ele>1254.7</ele>
        <time>2021-09-07T09:24:32Z</time>
      </trkpt>
      <trkpt lat="44.49437" lon="5.50635">
        <ele>1254.7</ele>
        <time>2021-09-07T09:24:33Z</time>
      </trkpt>
      <trkpt lat="44.49436" lon="5.50633">
        <ele>1254.8</ele>
        <time>2021-09-07T09:24:34Z</time>
      </trkpt>
      <trkpt lat="44.49434" lon="5.5063">
        <ele>1254.9</ele>
        <time>2021-09-07T09:24:35Z</time>
      </trkpt>
      <trkpt lat="44.49434" lon="5.50628">
        <ele>1254.9</ele>
        <time>2021-09-07T09:24:36Z</time>
      </trkpt>
      <trkpt lat="44.49434" lon="5.50628">
        <ele>1255</ele>
        <time>2021-09-07T09:24:37Z</time>
      </trkpt>
      <trkpt lat="44.49434" lon="5.50627">
        <ele>1255</ele>
        <time>2021-09-07T09:24:38Z</time>
      </trkpt>
      <trkpt lat="44.49434" lon="5.50626">
        <ele>1255</ele>
        <time>2021-09-07T09:24:39Z</time>
      </trkpt>
      <trkpt lat="44.49434" lon="5.50625">
        <ele>1255</ele>
        <time>2021-09-07T09:24:40Z</time>
      </trkpt>
      <trkpt lat="44.49434" lon="5.50624">
        <ele>1255</ele>
        <time>2021-09-07T09:24:41Z</time>
      </trkpt>
      <trkpt lat="44.49434" lon="5.50623">
        <ele>1255</ele>
        <time>2021-09-07T09:24:42Z</time>
      </trkpt>
      <trkpt lat="44.49434" lon="5.50622">
        <ele>1255.1</ele>
        <time>2021-09-07T09:24:43Z</time>
      </trkpt>
      <trkpt lat="44.49434" lon="5.50622">
        <ele>1255.1</ele>
        <time>2021-09-07T09:24:44Z</time>
      </trkpt>
      <trkpt lat="44.49433" lon="5.50621">
        <ele>1255.1</ele>
        <time>2021-09-07T09:24:45Z</time>
      </trkpt>
      <trkpt lat="44.49431" lon="5.5062">
        <ele>1255.1</ele>
        <time>2021-09-07T09:24:46Z</time>
      </trkpt>
      <trkpt lat="44.4943" lon="5.5062">
        <ele>1255.2</ele>
        <time>2021-09-07T09:24:47Z</time>
      </trkpt>
      <trkpt lat="44.49427" lon="5.50619">
        <ele>1255.2</ele>
        <time>2021-09-07T09:24:48Z</time>
      </trkpt>
      <trkpt lat="44.49425" lon="5.50618">
        <ele>1255.3</ele>
        <time>2021-09-07T09:24:49Z</time>
      </trkpt>
      <trkpt lat="44.49423" lon="5.50618">
        <ele>1255.3</ele>
        <time>2021-09-07T09:24:50Z</time>
      </trkpt>
      <trkpt lat="44.49422" lon="5.50618">
        <ele>1255.3</ele>
        <time>2021-09-07T09:24:51Z</time>
      </trkpt>
      <trkpt lat="44.49421" lon="5.50618">
        <ele>1255.3</ele>
        <time>2021-09-07T09:24:52Z</time>
      </trkpt>
      <trkpt lat="44.4942" lon="5.50618">
        <ele>1255.3</ele>
        <time>2021-09-07T09:24:53Z</time>
      </trkpt>
      <trkpt lat="44.49418" lon="5.50618">
        <ele>1255.3</ele>
        <time>2021-09-07T09:24:54Z</time>
      </trkpt>
      <trkpt lat="44.49416" lon="5.50618">
        <ele>1255.3</ele>
        <time>2021-09-07T09:24:55Z</time>
      </trkpt>
      <trkpt lat="44.49415" lon="5.50617">
        <ele>1255.3</ele>
        <time>2021-09-07T09:24:56Z</time>
      </trkpt>
      <trkpt lat="44.49414" lon="5.50617">
        <ele>1255.3</ele>
        <time>2021-09-07T09:24:57Z</time>
      </trkpt>
      <trkpt lat="44.49413" lon="5.50616">
        <ele>1255.4</ele>
        <time>2021-09-07T09:24:58Z</time>
      </trkpt>
      <trkpt lat="44.49411" lon="5.50615">
        <ele>1255.4</ele>
        <time>2021-09-07T09:24:59Z</time>
      </trkpt>
      <trkpt lat="44.4941" lon="5.50613">
        <ele>1255.4</ele>
        <time>2021-09-07T09:25:00Z</time>
      </trkpt>
      <trkpt lat="44.4941" lon="5.50611">
        <ele>1255.4</ele>
        <time>2021-09-07T09:25:01Z</time>
      </trkpt>
      <trkpt lat="44.49409" lon="5.50609">
        <ele>1255.4</ele>
        <time>2021-09-07T09:25:02Z</time>
      </trkpt>
      <trkpt lat="44.49409" lon="5.50608">
        <ele>1255.4</ele>
        <time>2021-09-07T09:25:03Z</time>
      </trkpt>
      <trkpt lat="44.49409" lon="5.50607">
        <ele>1255.4</ele>
        <time>2021-09-07T09:25:04Z</time>
      </trkpt>
      <trkpt lat="44.49408" lon="5.50605">
        <ele>1255.3</ele>
        <time>2021-09-07T09:25:05Z</time>
      </trkpt>
      <trkpt lat="44.49408" lon="5.506">
        <ele>1255.3</ele>
        <time>2021-09-07T09:25:06Z</time>
      </trkpt>
      <trkpt lat="44.49408" lon="5.50596">
        <ele>1255.3</ele>
        <time>2021-09-07T09:25:07Z</time>
      </trkpt>
      <trkpt lat="44.49409" lon="5.50592">
        <ele>1255.3</ele>
        <time>2021-09-07T09:25:08Z</time>
      </trkpt>
      <trkpt lat="44.49409" lon="5.5059">
        <ele>1255.3</ele>
        <time>2021-09-07T09:25:09Z</time>
      </trkpt>
      <trkpt lat="44.4941" lon="5.50587">
        <ele>1255.3</ele>
        <time>2021-09-07T09:25:10Z</time>
      </trkpt>
      <trkpt lat="44.4941" lon="5.50585">
        <ele>1255.3</ele>
        <time>2021-09-07T09:25:11Z</time>
      </trkpt>
      <trkpt lat="44.4941" lon="5.50581">
        <ele>1255.3</ele>
        <time>2021-09-07T09:25:12Z</time>
      </trkpt>
      <trkpt lat="44.4941" lon="5.50581">
        <ele>1255.3</ele>
        <time>2021-09-07T09:25:13Z</time>
      </trkpt>
      <trkpt lat="44.4941" lon="5.5058">
        <ele>1255.3</ele>
        <time>2021-09-07T09:25:14Z</time>
      </trkpt>
      <trkpt lat="44.49412" lon="5.50578">
        <ele>1255.4</ele>
        <time>2021-09-07T09:25:15Z</time>
      </trkpt>
      <trkpt lat="44.49413" lon="5.50578">
        <ele>1255.4</ele>
        <time>2021-09-07T09:25:16Z</time>
      </trkpt>
      <trkpt lat="44.49413" lon="5.50577">
        <ele>1255.4</ele>
        <time>2021-09-07T09:25:17Z</time>
      </trkpt>
      <trkpt lat="44.49413" lon="5.50577">
        <ele>1255.4</ele>
        <time>2021-09-07T09:25:18Z</time>
      </trkpt>
      <trkpt lat="44.49413" lon="5.50576">
        <ele>1255.4</ele>
        <time>2021-09-07T09:25:19Z</time>
      </trkpt>
      <trkpt lat="44.49413" lon="5.50576">
        <ele>1255.4</ele>
        <time>2021-09-07T09:25:20Z</time>
      </trkpt>
      <trkpt lat="44.49413" lon="5.50576">
        <ele>1255.4</ele>
        <time>2021-09-07T09:25:21Z</time>
      </trkpt>
      <trkpt lat="44.49412" lon="5.50576">
        <ele>1255.4</ele>
        <time>2021-09-07T09:25:22Z</time>
      </trkpt>
      <trkpt lat="44.49412" lon="5.50576">
        <ele>1255.4</ele>
        <time>2021-09-07T09:25:23Z</time>
      </trkpt>
      <trkpt lat="44.49412" lon="5.50576">
        <ele>1255.4</ele>
        <time>2021-09-07T09:25:24Z</time>
      </trkpt>
      <trkpt lat="44.49411" lon="5.50576">
        <ele>1255.4</ele>
        <time>2021-09-07T09:25:25Z</time>
      </trkpt>
      <trkpt lat="44.4941" lon="5.50576">
        <ele>1255.4</ele>
        <time>2021-09-07T09:25:26Z</time>
      </trkpt>
      <trkpt lat="44.49408" lon="5.50577">
        <ele>1255.4</ele>
        <time>2021-09-07T09:25:27Z</time>
      </trkpt>
      <trkpt lat="44.49406" lon="5.50579">
        <ele>1255.5</ele>
        <time>2021-09-07T09:25:28Z</time>
      </trkpt>
      <trkpt lat="44.49405" lon="5.5058">
        <ele>1255.5</ele>
        <time>2021-09-07T09:25:29Z</time>
      </trkpt>
      <trkpt lat="44.49405" lon="5.5058">
        <ele>1255.5</ele>
        <time>2021-09-07T09:25:30Z</time>
      </trkpt>
      <trkpt lat="44.49404" lon="5.50581">
        <ele>1255.6</ele>
        <time>2021-09-07T09:25:31Z</time>
      </trkpt>
      <trkpt lat="44.49403" lon="5.50582">
        <ele>1255.6</ele>
        <time>2021-09-07T09:25:32Z</time>
      </trkpt>
      <trkpt lat="44.49402" lon="5.50583">
        <ele>1255.6</ele>
        <time>2021-09-07T09:25:33Z</time>
      </trkpt>
      <trkpt lat="44.494" lon="5.50584">
        <ele>1255.7</ele>
        <time>2021-09-07T09:25:34Z</time>
      </trkpt>
      <trkpt lat="44.49397" lon="5.50585">
        <ele>1255.8</ele>
        <time>2021-09-07T09:25:35Z</time>
      </trkpt>
      <trkpt lat="44.49394" lon="5.50584">
        <ele>1255.8</ele>
        <time>2021-09-07T09:25:36Z</time>
      </trkpt>
      <trkpt lat="44.49391" lon="5.50583">
        <ele>1255.9</ele>
        <time>2021-09-07T09:25:37Z</time>
      </trkpt>
      <trkpt lat="44.49389" lon="5.50582">
        <ele>1256</ele>
        <time>2021-09-07T09:25:38Z</time>
      </trkpt>
      <trkpt lat="44.49388" lon="5.5058">
        <ele>1256</ele>
        <time>2021-09-07T09:25:39Z</time>
      </trkpt>
      <trkpt lat="44.49386" lon="5.50578">
        <ele>1256.1</ele>
        <time>2021-09-07T09:25:40Z</time>
      </trkpt>
      <trkpt lat="44.49385" lon="5.50576">
        <ele>1256.1</ele>
        <time>2021-09-07T09:25:41Z</time>
      </trkpt>
      <trkpt lat="44.49383" lon="5.50573">
        <ele>1256.2</ele>
        <time>2021-09-07T09:25:42Z</time>
      </trkpt>
      <trkpt lat="44.49382" lon="5.50572">
        <ele>1256.2</ele>
        <time>2021-09-07T09:25:43Z</time>
      </trkpt>
      <trkpt lat="44.49382" lon="5.5057">
        <ele>1256.2</ele>
        <time>2021-09-07T09:25:44Z</time>
      </trkpt>
      <trkpt lat="44.49381" lon="5.50568">
        <ele>1256.3</ele>
        <time>2021-09-07T09:25:45Z</time>
      </trkpt>
      <trkpt lat="44.49379" lon="5.50564">
        <ele>1256.3</ele>
        <time>2021-09-07T09:25:46Z</time>
      </trkpt>
      <trkpt lat="44.49379" lon="5.50561">
        <ele>1256.3</ele>
        <time>2021-09-07T09:25:47Z</time>
      </trkpt>
      <trkpt lat="44.49378" lon="5.50559">
        <ele>1256.3</ele>
        <time>2021-09-07T09:25:48Z</time>
      </trkpt>
      <trkpt lat="44.49377" lon="5.50556">
        <ele>1256.3</ele>
        <time>2021-09-07T09:25:49Z</time>
      </trkpt>
      <trkpt lat="44.49375" lon="5.50554">
        <ele>1256.3</ele>
        <time>2021-09-07T09:25:50Z</time>
      </trkpt>
      <trkpt lat="44.49374" lon="5.50553">
        <ele>1256.3</ele>
        <time>2021-09-07T09:25:51Z</time>
      </trkpt>
      <trkpt lat="44.49373" lon="5.50552">
        <ele>1256.3</ele>
        <time>2021-09-07T09:25:52Z</time>
      </trkpt>
      <trkpt lat="44.49371" lon="5.50551">
        <ele>1256.3</ele>
        <time>2021-09-07T09:25:53Z</time>
      </trkpt>
      <trkpt lat="44.49368" lon="5.50549">
        <ele>1256.2</ele>
        <time>2021-09-07T09:25:54Z</time>
      </trkpt>
      <trkpt lat="44.49367" lon="5.50549">
        <ele>1256.2</ele>
        <time>2021-09-07T09:25:55Z</time>
      </trkpt>
      <trkpt lat="44.49365" lon="5.50548">
        <ele>1256.2</ele>
        <time>2021-09-07T09:25:56Z</time>
      </trkpt>
      <trkpt lat="44.4936" lon="5.50548">
        <ele>1256.1</ele>
        <time>2021-09-07T09:25:57Z</time>
      </trkpt>
      <trkpt lat="44.49358" lon="5.50548">
        <ele>1256</ele>
        <time>2021-09-07T09:25:58Z</time>
      </trkpt>
      <trkpt lat="44.49356" lon="5.50548">
        <ele>1256</ele>
        <time>2021-09-07T09:25:59Z</time>
      </trkpt>
      <trkpt lat="44.49353" lon="5.50549">
        <ele>1255.9</ele>
        <time>2021-09-07T09:26:00Z</time>
      </trkpt>
      <trkpt lat="44.4935" lon="5.50549">
        <ele>1255.8</ele>
        <time>2021-09-07T09:26:01Z</time>
      </trkpt>
      <trkpt lat="44.49345" lon="5.50549">
        <ele>1255.6</ele>
        <time>2021-09-07T09:26:02Z</time>
      </trkpt>
      <trkpt lat="44.49342" lon="5.5055">
        <ele>1255.5</ele>
        <time>2021-09-07T09:26:03Z</time>
      </trkpt>
      <trkpt lat="44.49339" lon="5.5055">
        <ele>1255.4</ele>
        <time>2021-09-07T09:26:04Z</time>
      </trkpt>
      <trkpt lat="44.49333" lon="5.50552">
        <ele>1255.1</ele>
        <time>2021-09-07T09:26:05Z</time>
      </trkpt>
      <trkpt lat="44.4933" lon="5.50554">
        <ele>1255</ele>
        <time>2021-09-07T09:26:06Z</time>
      </trkpt>
      <trkpt lat="44.49326" lon="5.50555">
        <ele>1254.8</ele>
        <time>2021-09-07T09:26:07Z</time>
      </trkpt>
      <trkpt lat="44.4932" lon="5.50558">
        <ele>1254.5</ele>
        <time>2021-09-07T09:26:08Z</time>
      </trkpt>
      <trkpt lat="44.49315" lon="5.50562">
        <ele>1254.2</ele>
        <time>2021-09-07T09:26:09Z</time>
      </trkpt>
      <trkpt lat="44.49311" lon="5.50565">
        <ele>1254</ele>
        <time>2021-09-07T09:26:10Z</time>
      </trkpt>
      <trkpt lat="44.49309" lon="5.50566">
        <ele>1253.8</ele>
        <time>2021-09-07T09:26:11Z</time>
      </trkpt>
      <trkpt lat="44.49306" lon="5.50567">
        <ele>1253.7</ele>
        <time>2021-09-07T09:26:12Z</time>
      </trkpt>
      <trkpt lat="44.49302" lon="5.50569">
        <ele>1253.5</ele>
        <time>2021-09-07T09:26:13Z</time>
      </trkpt>
      <trkpt lat="44.49296" lon="5.50571">
        <ele>1253.2</ele>
        <time>2021-09-07T09:26:14Z</time>
      </trkpt>
      <trkpt lat="44.49294" lon="5.50573">
        <ele>1253.1</ele>
        <time>2021-09-07T09:26:15Z</time>
      </trkpt>
      <trkpt lat="44.49292" lon="5.50574">
        <ele>1253</ele>
        <time>2021-09-07T09:26:16Z</time>
      </trkpt>
      <trkpt lat="44.4929" lon="5.50578">
        <ele>1252.9</ele>
        <time>2021-09-07T09:26:17Z</time>
      </trkpt>
      <trkpt lat="44.49288" lon="5.50581">
        <ele>1252.7</ele>
        <time>2021-09-07T09:26:18Z</time>
      </trkpt>
      <trkpt lat="44.49287" lon="5.50588">
        <ele>1252.5</ele>
        <time>2021-09-07T09:26:19Z</time>
      </trkpt>
      <trkpt lat="44.49286" lon="5.50593">
        <ele>1252.4</ele>
        <time>2021-09-07T09:26:20Z</time>
      </trkpt>
      <trkpt lat="44.49284" lon="5.50598">
        <ele>1252.3</ele>
        <time>2021-09-07T09:26:21Z</time>
      </trkpt>
      <trkpt lat="44.49282" lon="5.50602">
        <ele>1252.2</ele>
        <time>2021-09-07T09:26:22Z</time>
      </trkpt>
      <trkpt lat="44.49281" lon="5.50605">
        <ele>1252.2</ele>
        <time>2021-09-07T09:26:23Z</time>
      </trkpt>
      <trkpt lat="44.4928" lon="5.5061">
        <ele>1252.1</ele>
        <time>2021-09-07T09:26:24Z</time>
      </trkpt>
      <trkpt lat="44.49279" lon="5.50612">
        <ele>1252</ele>
        <time>2021-09-07T09:26:25Z</time>
      </trkpt>
      <trkpt lat="44.49278" lon="5.50613">
        <ele>1252</ele>
        <time>2021-09-07T09:26:26Z</time>
      </trkpt>
      <trkpt lat="44.49275" lon="5.50617">
        <ele>1251.9</ele>
        <time>2021-09-07T09:26:27Z</time>
      </trkpt>
      <trkpt lat="44.49273" lon="5.5062">
        <ele>1251.9</ele>
        <time>2021-09-07T09:26:28Z</time>
      </trkpt>
      <trkpt lat="44.49272" lon="5.50622">
        <ele>1251.8</ele>
        <time>2021-09-07T09:26:29Z</time>
      </trkpt>
      <trkpt lat="44.49271" lon="5.50624">
        <ele>1251.8</ele>
        <time>2021-09-07T09:26:30Z</time>
      </trkpt>
      <trkpt lat="44.49269" lon="5.50626">
        <ele>1251.8</ele>
        <time>2021-09-07T09:26:31Z</time>
      </trkpt>
      <trkpt lat="44.49268" lon="5.50628">
        <ele>1251.8</ele>
        <time>2021-09-07T09:26:32Z</time>
      </trkpt>
      <trkpt lat="44.49268" lon="5.50629">
        <ele>1251.7</ele>
        <time>2021-09-07T09:26:33Z</time>
      </trkpt>
      <trkpt lat="44.49268" lon="5.50628">
        <ele>1251.7</ele>
        <time>2021-09-07T09:26:34Z</time>
      </trkpt>
      <trkpt lat="44.49268" lon="5.50627">
        <ele>1251.7</ele>
        <time>2021-09-07T09:26:35Z</time>
      </trkpt>
      <trkpt lat="44.49267" lon="5.50625">
        <ele>1251.7</ele>
        <time>2021-09-07T09:26:36Z</time>
      </trkpt>
      <trkpt lat="44.49266" lon="5.50621">
        <ele>1251.7</ele>
        <time>2021-09-07T09:26:37Z</time>
      </trkpt>
      <trkpt lat="44.49266" lon="5.5062">
        <ele>1251.7</ele>
        <time>2021-09-07T09:26:38Z</time>
      </trkpt>
      <trkpt lat="44.49265" lon="5.50619">
        <ele>1251.7</ele>
        <time>2021-09-07T09:26:39Z</time>
      </trkpt>
      <trkpt lat="44.49264" lon="5.50616">
        <ele>1251.7</ele>
        <time>2021-09-07T09:26:40Z</time>
      </trkpt>
      <trkpt lat="44.49262" lon="5.50613">
        <ele>1251.8</ele>
        <time>2021-09-07T09:26:41Z</time>
      </trkpt>
      <trkpt lat="44.49261" lon="5.50609">
        <ele>1251.8</ele>
        <time>2021-09-07T09:26:42Z</time>
      </trkpt>
      <trkpt lat="44.49259" lon="5.50606">
        <ele>1251.9</ele>
        <time>2021-09-07T09:26:43Z</time>
      </trkpt>
      <trkpt lat="44.49251" lon="5.50591">
        <ele>1252.3</ele>
        <time>2021-09-07T09:26:44Z</time>
      </trkpt>
      <trkpt lat="44.49246" lon="5.50581">
        <ele>1252.8</ele>
        <time>2021-09-07T09:26:45Z</time>
      </trkpt>
      <trkpt lat="44.49245" lon="5.50575">
        <ele>1253</ele>
        <time>2021-09-07T09:26:46Z</time>
      </trkpt>
      <trkpt lat="44.49243" lon="5.50569">
        <ele>1253.4</ele>
        <time>2021-09-07T09:26:47Z</time>
      </trkpt>
      <trkpt lat="44.49242" lon="5.50565">
        <ele>1253.6</ele>
        <time>2021-09-07T09:26:48Z</time>
      </trkpt>
      <trkpt lat="44.49241" lon="5.50562">
        <ele>1253.8</ele>
        <time>2021-09-07T09:26:49Z</time>
      </trkpt>
      <trkpt lat="44.49241" lon="5.5056">
        <ele>1253.9</ele>
        <time>2021-09-07T09:26:50Z</time>
      </trkpt>
      <trkpt lat="44.4924" lon="5.50558">
        <ele>1254</ele>
        <time>2021-09-07T09:26:51Z</time>
      </trkpt>
      <trkpt lat="44.4924" lon="5.50552">
        <ele>1254.3</ele>
        <time>2021-09-07T09:26:52Z</time>
      </trkpt>
      <trkpt lat="44.49239" lon="5.50548">
        <ele>1254.6</ele>
        <time>2021-09-07T09:26:53Z</time>
      </trkpt>
      <trkpt lat="44.49239" lon="5.50546">
        <ele>1254.7</ele>
        <time>2021-09-07T09:26:54Z</time>
      </trkpt>
      <trkpt lat="44.49239" lon="5.50544">
        <ele>1254.8</ele>
        <time>2021-09-07T09:26:55Z</time>
      </trkpt>
      <trkpt lat="44.49239" lon="5.50543">
        <ele>1254.9</ele>
        <time>2021-09-07T09:26:56Z</time>
      </trkpt>
      <trkpt lat="44.49238" lon="5.50542">
        <ele>1254.9</ele>
        <time>2021-09-07T09:26:57Z</time>
      </trkpt>
      <trkpt lat="44.49237" lon="5.5054">
        <ele>1255</ele>
        <time>2021-09-07T09:26:58Z</time>
      </trkpt>
      <trkpt lat="44.49236" lon="5.50538">
        <ele>1255.2</ele>
        <time>2021-09-07T09:26:59Z</time>
      </trkpt>
      <trkpt lat="44.49236" lon="5.50538">
        <ele>1255.2</ele>
        <time>2021-09-07T09:27:00Z</time>
      </trkpt>
      <trkpt lat="44.49235" lon="5.50537">
        <ele>1255.2</ele>
        <time>2021-09-07T09:27:01Z</time>
      </trkpt>
      <trkpt lat="44.49233" lon="5.50537">
        <ele>1255.4</ele>
        <time>2021-09-07T09:27:02Z</time>
      </trkpt>
      <trkpt lat="44.49232" lon="5.50536">
        <ele>1255.4</ele>
        <time>2021-09-07T09:27:03Z</time>
      </trkpt>
      <trkpt lat="44.49231" lon="5.50535">
        <ele>1255.5</ele>
        <time>2021-09-07T09:27:04Z</time>
      </trkpt>
      <trkpt lat="44.4923" lon="5.50534">
        <ele>1255.6</ele>
        <time>2021-09-07T09:27:05Z</time>
      </trkpt>
      <trkpt lat="44.49229" lon="5.50533">
        <ele>1255.6</ele>
        <time>2021-09-07T09:27:06Z</time>
      </trkpt>
      <trkpt lat="44.49228" lon="5.50532">
        <ele>1255.7</ele>
        <time>2021-09-07T09:27:07Z</time>
      </trkpt>
      <trkpt lat="44.49227" lon="5.50531">
        <ele>1255.7</ele>
        <time>2021-09-07T09:27:08Z</time>
      </trkpt>
      <trkpt lat="44.49227" lon="5.50531">
        <ele>1255.8</ele>
        <time>2021-09-07T09:27:09Z</time>
      </trkpt>
      <trkpt lat="44.49226" lon="5.5053">
        <ele>1255.8</ele>
        <time>2021-09-07T09:27:10Z</time>
      </trkpt>
      <trkpt lat="44.49226" lon="5.50529">
        <ele>1255.8</ele>
        <time>2021-09-07T09:27:11Z</time>
      </trkpt>
      <trkpt lat="44.49226" lon="5.50528">
        <ele>1255.9</ele>
        <time>2021-09-07T09:27:12Z</time>
      </trkpt>
      <trkpt lat="44.49226" lon="5.50528">
        <ele>1255.9</ele>
        <time>2021-09-07T09:27:13Z</time>
      </trkpt>
      <trkpt lat="44.49225" lon="5.50528">
        <ele>1255.9</ele>
        <time>2021-09-07T09:27:14Z</time>
      </trkpt>
      <trkpt lat="44.49225" lon="5.50528">
        <ele>1255.9</ele>
        <time>2021-09-07T09:27:15Z</time>
      </trkpt>
      <trkpt lat="44.49225" lon="5.50528">
        <ele>1255.9</ele>
        <time>2021-09-07T09:27:16Z</time>
      </trkpt>
      <trkpt lat="44.49225" lon="5.50527">
        <ele>1255.9</ele>
        <time>2021-09-07T09:27:17Z</time>
      </trkpt>
      <trkpt lat="44.49225" lon="5.50527">
        <ele>1255.9</ele>
        <time>2021-09-07T09:27:18Z</time>
      </trkpt>
      <trkpt lat="44.49223" lon="5.50526">
        <ele>1256</ele>
        <time>2021-09-07T09:27:19Z</time>
      </trkpt>
      <trkpt lat="44.49221" lon="5.50525">
        <ele>1256.1</ele>
        <time>2021-09-07T09:27:20Z</time>
      </trkpt>
      <trkpt lat="44.49219" lon="5.50523">
        <ele>1256.2</ele>
        <time>2021-09-07T09:27:21Z</time>
      </trkpt>
      <trkpt lat="44.49218" lon="5.50522">
        <ele>1256.2</ele>
        <time>2021-09-07T09:27:22Z</time>
      </trkpt>
      <trkpt lat="44.49217" lon="5.50521">
        <ele>1256.3</ele>
        <time>2021-09-07T09:27:23Z</time>
      </trkpt>
      <trkpt lat="44.49216" lon="5.5052">
        <ele>1256.3</ele>
        <time>2021-09-07T09:27:24Z</time>
      </trkpt>
      <trkpt lat="44.49213" lon="5.50518">
        <ele>1255.9</ele>
        <time>2021-09-07T09:27:25Z</time>
      </trkpt>
      <trkpt lat="44.49212" lon="5.50517">
        <ele>1255.7</ele>
        <time>2021-09-07T09:27:26Z</time>
      </trkpt>
      <trkpt lat="44.49212" lon="5.50517">
        <ele>1255.7</ele>
        <time>2021-09-07T09:27:27Z</time>
      </trkpt>
      <trkpt lat="44.49212" lon="5.50517">
        <ele>1255.6</ele>
        <time>2021-09-07T09:27:28Z</time>
      </trkpt>
      <trkpt lat="44.49212" lon="5.50517">
        <ele>1255.6</ele>
        <time>2021-09-07T09:27:29Z</time>
      </trkpt>
      <trkpt lat="44.49212" lon="5.50517">
        <ele>1255.6</ele>
        <time>2021-09-07T09:27:30Z</time>
      </trkpt>
      <trkpt lat="44.49212" lon="5.50517">
        <ele>1255.5</ele>
        <time>2021-09-07T09:27:31Z</time>
      </trkpt>
      <trkpt lat="44.49212" lon="5.50516">
        <ele>1255.5</ele>
        <time>2021-09-07T09:27:32Z</time>
      </trkpt>
      <trkpt lat="44.49212" lon="5.50516">
        <ele>1255.5</ele>
        <time>2021-09-07T09:27:33Z</time>
      </trkpt>
      <trkpt lat="44.49212" lon="5.50516">
        <ele>1255.4</ele>
        <time>2021-09-07T09:27:34Z</time>
      </trkpt>
      <trkpt lat="44.49212" lon="5.50516">
        <ele>1255.4</ele>
        <time>2021-09-07T09:27:35Z</time>
      </trkpt>
      <trkpt lat="44.49212" lon="5.50516">
        <ele>1255.4</ele>
        <time>2021-09-07T09:27:36Z</time>
      </trkpt>
      <trkpt lat="44.49211" lon="5.50516">
        <ele>1255.3</ele>
        <time>2021-09-07T09:27:37Z</time>
      </trkpt>
      <trkpt lat="44.49211" lon="5.50516">
        <ele>1255.3</ele>
        <time>2021-09-07T09:27:38Z</time>
      </trkpt>
      <trkpt lat="44.49211" lon="5.50515">
        <ele>1255.3</ele>
        <time>2021-09-07T09:27:39Z</time>
      </trkpt>
      <trkpt lat="44.49211" lon="5.50515">
        <ele>1255.2</ele>
        <time>2021-09-07T09:27:40Z</time>
      </trkpt>
      <trkpt lat="44.49211" lon="5.50515">
        <ele>1255.2</ele>
        <time>2021-09-07T09:27:41Z</time>
      </trkpt>
      <trkpt lat="44.49211" lon="5.50515">
        <ele>1255.2</ele>
        <time>2021-09-07T09:27:42Z</time>
      </trkpt>
      <trkpt lat="44.49211" lon="5.50515">
        <ele>1255.1</ele>
        <time>2021-09-07T09:27:43Z</time>
      </trkpt>
      <trkpt lat="44.49211" lon="5.50515">
        <ele>1255.1</ele>
        <time>2021-09-07T09:27:44Z</time>
      </trkpt>
      <trkpt lat="44.49211" lon="5.50514">
        <ele>1255.1</ele>
        <time>2021-09-07T09:27:45Z</time>
      </trkpt>
      <trkpt lat="44.49211" lon="5.50514">
        <ele>1255.1</ele>
        <time>2021-09-07T09:27:46Z</time>
      </trkpt>
      <trkpt lat="44.4921" lon="5.50514">
        <ele>1255</ele>
        <time>2021-09-07T09:27:47Z</time>
      </trkpt>
      <trkpt lat="44.4921" lon="5.50514">
        <ele>1255</ele>
        <time>2021-09-07T09:27:48Z</time>
      </trkpt>
      <trkpt lat="44.4921" lon="5.50514">
        <ele>1255</ele>
        <time>2021-09-07T09:27:49Z</time>
      </trkpt>
      <trkpt lat="44.4921" lon="5.50514">
        <ele>1254.9</ele>
        <time>2021-09-07T09:27:50Z</time>
      </trkpt>
      <trkpt lat="44.4921" lon="5.50514">
        <ele>1254.9</ele>
        <time>2021-09-07T09:27:51Z</time>
      </trkpt>
      <trkpt lat="44.4921" lon="5.50513">
        <ele>1254.9</ele>
        <time>2021-09-07T09:27:52Z</time>
      </trkpt>
      <trkpt lat="44.4921" lon="5.50513">
        <ele>1254.8</ele>
        <time>2021-09-07T09:27:53Z</time>
      </trkpt>
      <trkpt lat="44.4921" lon="5.50513">
        <ele>1254.8</ele>
        <time>2021-09-07T09:27:54Z</time>
      </trkpt>
      <trkpt lat="44.4921" lon="5.50513">
        <ele>1254.7</ele>
        <time>2021-09-07T09:27:55Z</time>
      </trkpt>
      <trkpt lat="44.4921" lon="5.50513">
        <ele>1254.7</ele>
        <time>2021-09-07T09:27:56Z</time>
      </trkpt>
      <trkpt lat="44.4921" lon="5.50513">
        <ele>1254.7</ele>
        <time>2021-09-07T09:27:57Z</time>
      </trkpt>
      <trkpt lat="44.49209" lon="5.50512">
        <ele>1254.6</ele>
        <time>2021-09-07T09:27:58Z</time>
      </trkpt>
      <trkpt lat="44.49209" lon="5.50512">
        <ele>1254.6</ele>
        <time>2021-09-07T09:27:59Z</time>
      </trkpt>
      <trkpt lat="44.49209" lon="5.50512">
        <ele>1254.6</ele>
        <time>2021-09-07T09:28:00Z</time>
      </trkpt>
      <trkpt lat="44.49209" lon="5.50512">
        <ele>1254.5</ele>
        <time>2021-09-07T09:28:01Z</time>
      </trkpt>
      <trkpt lat="44.49209" lon="5.50512">
        <ele>1254.5</ele>
        <time>2021-09-07T09:28:02Z</time>
      </trkpt>
      <trkpt lat="44.49209" lon="5.50512">
        <ele>1254.5</ele>
        <time>2021-09-07T09:28:03Z</time>
      </trkpt>
      <trkpt lat="44.49209" lon="5.50512">
        <ele>1254.4</ele>
        <time>2021-09-07T09:28:04Z</time>
      </trkpt>
      <trkpt lat="44.49209" lon="5.50511">
        <ele>1254.4</ele>
        <time>2021-09-07T09:28:05Z</time>
      </trkpt>
      <trkpt lat="44.49209" lon="5.50511">
        <ele>1254.3</ele>
        <time>2021-09-07T09:28:06Z</time>
      </trkpt>
      <trkpt lat="44.49209" lon="5.50511">
        <ele>1254.3</ele>
        <time>2021-09-07T09:28:07Z</time>
      </trkpt>
      <trkpt lat="44.49209" lon="5.50511">
        <ele>1254.3</ele>
        <time>2021-09-07T09:28:08Z</time>
      </trkpt>
      <trkpt lat="44.49208" lon="5.50511">
        <ele>1254.2</ele>
        <time>2021-09-07T09:28:09Z</time>
      </trkpt>
      <trkpt lat="44.49208" lon="5.50511">
        <ele>1254.2</ele>
        <time>2021-09-07T09:28:10Z</time>
      </trkpt>
      <trkpt lat="44.49208" lon="5.5051">
        <ele>1254.2</ele>
        <time>2021-09-07T09:28:11Z</time>
      </trkpt>
      <trkpt lat="44.49208" lon="5.5051">
        <ele>1254.1</ele>
        <time>2021-09-07T09:28:12Z</time>
      </trkpt>
      <trkpt lat="44.49208" lon="5.5051">
        <ele>1254.1</ele>
        <time>2021-09-07T09:28:13Z</time>
      </trkpt>
      <trkpt lat="44.49208" lon="5.5051">
        <ele>1254.1</ele>
        <time>2021-09-07T09:28:14Z</time>
      </trkpt>
      <trkpt lat="44.49208" lon="5.5051">
        <ele>1254</ele>
        <time>2021-09-07T09:28:15Z</time>
      </trkpt>
      <trkpt lat="44.49208" lon="5.5051">
        <ele>1254</ele>
        <time>2021-09-07T09:28:16Z</time>
      </trkpt>
      <trkpt lat="44.49208" lon="5.5051">
        <ele>1253.9</ele>
        <time>2021-09-07T09:28:17Z</time>
      </trkpt>
      <trkpt lat="44.49208" lon="5.50509">
        <ele>1253.9</ele>
        <time>2021-09-07T09:28:18Z</time>
      </trkpt>
      <trkpt lat="44.49207" lon="5.50509">
        <ele>1253.9</ele>
        <time>2021-09-07T09:28:19Z</time>
      </trkpt>
      <trkpt lat="44.49207" lon="5.50509">
        <ele>1253.8</ele>
        <time>2021-09-07T09:28:20Z</time>
      </trkpt>
      <trkpt lat="44.49207" lon="5.50509">
        <ele>1253.8</ele>
        <time>2021-09-07T09:28:21Z</time>
      </trkpt>
      <trkpt lat="44.49207" lon="5.50509">
        <ele>1253.8</ele>
        <time>2021-09-07T09:28:22Z</time>
      </trkpt>
      <trkpt lat="44.49207" lon="5.50509">
        <ele>1253.7</ele>
        <time>2021-09-07T09:28:23Z</time>
      </trkpt>
      <trkpt lat="44.49207" lon="5.50508">
        <ele>1253.7</ele>
        <time>2021-09-07T09:28:24Z</time>
      </trkpt>
      <trkpt lat="44.49207" lon="5.50508">
        <ele>1253.7</ele>
        <time>2021-09-07T09:28:25Z</time>
      </trkpt>
      <trkpt lat="44.49207" lon="5.50508">
        <ele>1253.6</ele>
        <time>2021-09-07T09:28:26Z</time>
      </trkpt>
      <trkpt lat="44.49207" lon="5.50508">
        <ele>1253.6</ele>
        <time>2021-09-07T09:28:27Z</time>
      </trkpt>
      <trkpt lat="44.49207" lon="5.50508">
        <ele>1253.6</ele>
        <time>2021-09-07T09:28:28Z</time>
      </trkpt>
      <trkpt lat="44.49207" lon="5.50508">
        <ele>1253.5</ele>
        <time>2021-09-07T09:28:29Z</time>
      </trkpt>
      <trkpt lat="44.49206" lon="5.50508">
        <ele>1253.5</ele>
        <time>2021-09-07T09:28:30Z</time>
      </trkpt>
      <trkpt lat="44.49206" lon="5.50507">
        <ele>1253.4</ele>
        <time>2021-09-07T09:28:31Z</time>
      </trkpt>
      <trkpt lat="44.49206" lon="5.50507">
        <ele>1253.4</ele>
        <time>2021-09-07T09:28:32Z</time>
      </trkpt>
      <trkpt lat="44.49206" lon="5.50507">
        <ele>1253.4</ele>
        <time>2021-09-07T09:28:33Z</time>
      </trkpt>
      <trkpt lat="44.49206" lon="5.50507">
        <ele>1253.3</ele>
        <time>2021-09-07T09:28:34Z</time>
      </trkpt>
      <trkpt lat="44.49206" lon="5.50507">
        <ele>1253.3</ele>
        <time>2021-09-07T09:28:35Z</time>
      </trkpt>
      <trkpt lat="44.49206" lon="5.50507">
        <ele>1253.3</ele>
        <time>2021-09-07T09:28:36Z</time>
      </trkpt>
      <trkpt lat="44.49206" lon="5.50507">
        <ele>1253.2</ele>
        <time>2021-09-07T09:28:37Z</time>
      </trkpt>
      <trkpt lat="44.49206" lon="5.50506">
        <ele>1253.2</ele>
        <time>2021-09-07T09:28:38Z</time>
      </trkpt>
      <trkpt lat="44.49206" lon="5.50506">
        <ele>1253.1</ele>
        <time>2021-09-07T09:28:39Z</time>
      </trkpt>
      <trkpt lat="44.49205" lon="5.50506">
        <ele>1253.1</ele>
        <time>2021-09-07T09:28:40Z</time>
      </trkpt>
      <trkpt lat="44.49205" lon="5.50506">
        <ele>1253.1</ele>
        <time>2021-09-07T09:28:41Z</time>
      </trkpt>
      <trkpt lat="44.49205" lon="5.50506">
        <ele>1253</ele>
        <time>2021-09-07T09:28:42Z</time>
      </trkpt>
      <trkpt lat="44.49205" lon="5.50506">
        <ele>1253</ele>
        <time>2021-09-07T09:28:43Z</time>
      </trkpt>
      <trkpt lat="44.49205" lon="5.50505">
        <ele>1253</ele>
        <time>2021-09-07T09:28:44Z</time>
      </trkpt>
      <trkpt lat="44.49205" lon="5.50505">
        <ele>1252.9</ele>
        <time>2021-09-07T09:28:45Z</time>
      </trkpt>
      <trkpt lat="44.49205" lon="5.50505">
        <ele>1252.9</ele>
        <time>2021-09-07T09:28:46Z</time>
      </trkpt>
      <trkpt lat="44.49205" lon="5.50505">
        <ele>1252.8</ele>
        <time>2021-09-07T09:28:47Z</time>
      </trkpt>
      <trkpt lat="44.49205" lon="5.50505">
        <ele>1252.8</ele>
        <time>2021-09-07T09:28:48Z</time>
      </trkpt>
      <trkpt lat="44.49205" lon="5.50505">
        <ele>1252.8</ele>
        <time>2021-09-07T09:28:49Z</time>
      </trkpt>
      <trkpt lat="44.49205" lon="5.50505">
        <ele>1252.7</ele>
        <time>2021-09-07T09:28:50Z</time>
      </trkpt>
      <trkpt lat="44.49204" lon="5.50504">
        <ele>1252.7</ele>
        <time>2021-09-07T09:28:51Z</time>
      </trkpt>
      <trkpt lat="44.49204" lon="5.50504">
        <ele>1252.6</ele>
        <time>2021-09-07T09:28:52Z</time>
      </trkpt>
      <trkpt lat="44.49204" lon="5.50504">
        <ele>1252.6</ele>
        <time>2021-09-07T09:28:53Z</time>
      </trkpt>
      <trkpt lat="44.49204" lon="5.50504">
        <ele>1252.6</ele>
        <time>2021-09-07T09:28:54Z</time>
      </trkpt>
      <trkpt lat="44.49204" lon="5.50504">
        <ele>1252.5</ele>
        <time>2021-09-07T09:28:55Z</time>
      </trkpt>
      <trkpt lat="44.49204" lon="5.50504">
        <ele>1252.5</ele>
        <time>2021-09-07T09:28:56Z</time>
      </trkpt>
      <trkpt lat="44.49204" lon="5.50503">
        <ele>1252.5</ele>
        <time>2021-09-07T09:28:57Z</time>
      </trkpt>
      <trkpt lat="44.49204" lon="5.50503">
        <ele>1252.4</ele>
        <time>2021-09-07T09:28:58Z</time>
      </trkpt>
      <trkpt lat="44.49204" lon="5.50503">
        <ele>1252.4</ele>
        <time>2021-09-07T09:28:59Z</time>
      </trkpt>
      <trkpt lat="44.49204" lon="5.50503">
        <ele>1252.4</ele>
        <time>2021-09-07T09:29:00Z</time>
      </trkpt>
      <trkpt lat="44.49204" lon="5.50503">
        <ele>1252.3</ele>
        <time>2021-09-07T09:29:01Z</time>
      </trkpt>
      <trkpt lat="44.49203" lon="5.50503">
        <ele>1252.3</ele>
        <time>2021-09-07T09:29:02Z</time>
      </trkpt>
      <trkpt lat="44.49203" lon="5.50503">
        <ele>1252.2</ele>
        <time>2021-09-07T09:29:03Z</time>
      </trkpt>
      <trkpt lat="44.49203" lon="5.50502">
        <ele>1252.2</ele>
        <time>2021-09-07T09:29:04Z</time>
      </trkpt>
      <trkpt lat="44.49203" lon="5.50502">
        <ele>1252.2</ele>
        <time>2021-09-07T09:29:05Z</time>
      </trkpt>
      <trkpt lat="44.49203" lon="5.50502">
        <ele>1252.1</ele>
        <time>2021-09-07T09:29:06Z</time>
      </trkpt>
      <trkpt lat="44.49212" lon="5.50501">
        <ele>1250.2</ele>
        <time>2021-09-07T09:29:07Z</time>
      </trkpt>
      <trkpt lat="44.4922" lon="5.50499">
        <ele>1249</ele>
        <time>2021-09-07T09:29:08Z</time>
      </trkpt>
      <trkpt lat="44.49229" lon="5.50497">
        <ele>1248.2</ele>
        <time>2021-09-07T09:29:09Z</time>
      </trkpt>
      <trkpt lat="44.49235" lon="5.50495">
        <ele>1247.8</ele>
        <time>2021-09-07T09:29:10Z</time>
      </trkpt>
      <trkpt lat="44.4924" lon="5.5049">
        <ele>1247.5</ele>
        <time>2021-09-07T09:29:11Z</time>
      </trkpt>
      <trkpt lat="44.49245" lon="5.50485">
        <ele>1247.3</ele>
        <time>2021-09-07T09:29:12Z</time>
      </trkpt>
      <trkpt lat="44.49244" lon="5.50484">
        <ele>1247.3</ele>
        <time>2021-09-07T09:29:13Z</time>
      </trkpt>
      <trkpt lat="44.4924" lon="5.50484">
        <ele>1247.2</ele>
        <time>2021-09-07T09:29:14Z</time>
      </trkpt>
      <trkpt lat="44.49235" lon="5.50486">
        <ele>1247</ele>
        <time>2021-09-07T09:29:15Z</time>
      </trkpt>
      <trkpt lat="44.49229" lon="5.50488">
        <ele>1246.8</ele>
        <time>2021-09-07T09:29:16Z</time>
      </trkpt>
      <trkpt lat="44.49228" lon="5.50489">
        <ele>1246.8</ele>
        <time>2021-09-07T09:29:17Z</time>
      </trkpt>
      <trkpt lat="44.49227" lon="5.5049">
        <ele>1246.7</ele>
        <time>2021-09-07T09:29:18Z</time>
      </trkpt>
      <trkpt lat="44.49225" lon="5.50491">
        <ele>1246.7</ele>
        <time>2021-09-07T09:29:19Z</time>
      </trkpt>
      <trkpt lat="44.49224" lon="5.50492">
        <ele>1246.6</ele>
        <time>2021-09-07T09:29:20Z</time>
      </trkpt>
      <trkpt lat="44.49223" lon="5.50493">
        <ele>1246.5</ele>
        <time>2021-09-07T09:29:21Z</time>
      </trkpt>
      <trkpt lat="44.49222" lon="5.50493">
        <ele>1246.5</ele>
        <time>2021-09-07T09:29:22Z</time>
      </trkpt>
      <trkpt lat="44.49221" lon="5.50493">
        <ele>1246.4</ele>
        <time>2021-09-07T09:29:23Z</time>
      </trkpt>
      <trkpt lat="44.49221" lon="5.50492">
        <ele>1246.4</ele>
        <time>2021-09-07T09:29:24Z</time>
      </trkpt>
      <trkpt lat="44.49221" lon="5.5049">
        <ele>1246.3</ele>
        <time>2021-09-07T09:29:25Z</time>
      </trkpt>
      <trkpt lat="44.49221" lon="5.50487">
        <ele>1246.2</ele>
        <time>2021-09-07T09:29:26Z</time>
      </trkpt>
      <trkpt lat="44.49222" lon="5.50485">
        <ele>1246.1</ele>
        <time>2021-09-07T09:29:27Z</time>
      </trkpt>
      <trkpt lat="44.49223" lon="5.50483">
        <ele>1246</ele>
        <time>2021-09-07T09:29:28Z</time>
      </trkpt>
      <trkpt lat="44.49221" lon="5.50484">
        <ele>1245.9</ele>
        <time>2021-09-07T09:29:29Z</time>
      </trkpt>
      <trkpt lat="44.49219" lon="5.50485">
        <ele>1245.8</ele>
        <time>2021-09-07T09:29:30Z</time>
      </trkpt>
      <trkpt lat="44.49217" lon="5.50487">
        <ele>1245.6</ele>
        <time>2021-09-07T09:29:31Z</time>
      </trkpt>
      <trkpt lat="44.49214" lon="5.50488">
        <ele>1245.4</ele>
        <time>2021-09-07T09:29:32Z</time>
      </trkpt>
      <trkpt lat="44.49212" lon="5.50489">
        <ele>1245.3</ele>
        <time>2021-09-07T09:29:33Z</time>
      </trkpt>
      <trkpt lat="44.49211" lon="5.50489">
        <ele>1245.2</ele>
        <time>2021-09-07T09:29:34Z</time>
      </trkpt>
      <trkpt lat="44.4921" lon="5.50489">
        <ele>1245.2</ele>
        <time>2021-09-07T09:29:35Z</time>
      </trkpt>
      <trkpt lat="44.49209" lon="5.50489">
        <ele>1245.1</ele>
        <time>2021-09-07T09:29:36Z</time>
      </trkpt>
      <trkpt lat="44.49207" lon="5.5049">
        <ele>1245</ele>
        <time>2021-09-07T09:29:37Z</time>
      </trkpt>
      <trkpt lat="44.49205" lon="5.50491">
        <ele>1244.9</ele>
        <time>2021-09-07T09:29:38Z</time>
      </trkpt>
      <trkpt lat="44.49203" lon="5.50492">
        <ele>1244.7</ele>
        <time>2021-09-07T09:29:39Z</time>
      </trkpt>
      <trkpt lat="44.49201" lon="5.50493">
        <ele>1244.6</ele>
        <time>2021-09-07T09:29:40Z</time>
      </trkpt>
      <trkpt lat="44.49201" lon="5.50493">
        <ele>1244.6</ele>
        <time>2021-09-07T09:29:41Z</time>
      </trkpt>
      <trkpt lat="44.49201" lon="5.50493">
        <ele>1244.6</ele>
        <time>2021-09-07T09:29:42Z</time>
      </trkpt>
      <trkpt lat="44.492" lon="5.50493">
        <ele>1244.5</ele>
        <time>2021-09-07T09:29:43Z</time>
      </trkpt>
      <trkpt lat="44.492" lon="5.50493">
        <ele>1244.5</ele>
        <time>2021-09-07T09:29:44Z</time>
      </trkpt>
      <trkpt lat="44.492" lon="5.50493">
        <ele>1244.5</ele>
        <time>2021-09-07T09:29:45Z</time>
      </trkpt>
      <trkpt lat="44.49199" lon="5.50494">
        <ele>1244.4</ele>
        <time>2021-09-07T09:29:46Z</time>
      </trkpt>
      <trkpt lat="44.49197" lon="5.50495">
        <ele>1244.4</ele>
        <time>2021-09-07T09:29:47Z</time>
      </trkpt>
      <trkpt lat="44.49193" lon="5.50498">
        <ele>1244.1</ele>
        <time>2021-09-07T09:29:48Z</time>
      </trkpt>
      <trkpt lat="44.49193" lon="5.505">
        <ele>1244</ele>
        <time>2021-09-07T09:29:49Z</time>
      </trkpt>
      <trkpt lat="44.49192" lon="5.50501">
        <ele>1244</ele>
        <time>2021-09-07T09:29:50Z</time>
      </trkpt>
      <trkpt lat="44.49193" lon="5.50503">
        <ele>1243.9</ele>
        <time>2021-09-07T09:29:51Z</time>
      </trkpt>
      <trkpt lat="44.49194" lon="5.50504">
        <ele>1243.8</ele>
        <time>2021-09-07T09:29:52Z</time>
      </trkpt>
      <trkpt lat="44.49196" lon="5.50507">
        <ele>1243.6</ele>
        <time>2021-09-07T09:29:53Z</time>
      </trkpt>
      <trkpt lat="44.49197" lon="5.50509">
        <ele>1243.5</ele>
        <time>2021-09-07T09:29:54Z</time>
      </trkpt>
      <trkpt lat="44.49198" lon="5.5051">
        <ele>1243.5</ele>
        <time>2021-09-07T09:29:55Z</time>
      </trkpt>
      <trkpt lat="44.49199" lon="5.50512">
        <ele>1243.4</ele>
        <time>2021-09-07T09:29:56Z</time>
      </trkpt>
      <trkpt lat="44.49201" lon="5.50514">
        <ele>1243.3</ele>
        <time>2021-09-07T09:29:57Z</time>
      </trkpt>
      <trkpt lat="44.49202" lon="5.50515">
        <ele>1243.2</ele>
        <time>2021-09-07T09:29:58Z</time>
      </trkpt>
      <trkpt lat="44.49203" lon="5.50516">
        <ele>1243.1</ele>
        <time>2021-09-07T09:29:59Z</time>
      </trkpt>
      <trkpt lat="44.49204" lon="5.50517">
        <ele>1243</ele>
        <time>2021-09-07T09:30:00Z</time>
      </trkpt>
      <trkpt lat="44.49204" lon="5.50517">
        <ele>1243</ele>
        <time>2021-09-07T09:30:01Z</time>
      </trkpt>
      <trkpt lat="44.49205" lon="5.50518">
        <ele>1242.9</ele>
        <time>2021-09-07T09:30:02Z</time>
      </trkpt>
      <trkpt lat="44.49205" lon="5.50518">
        <ele>1242.9</ele>
        <time>2021-09-07T09:30:03Z</time>
      </trkpt>
      <trkpt lat="44.49205" lon="5.50518">
        <ele>1242.9</ele>
        <time>2021-09-07T09:30:04Z</time>
      </trkpt>
      <trkpt lat="44.49205" lon="5.50518">
        <ele>1242.9</ele>
        <time>2021-09-07T09:30:05Z</time>
      </trkpt>
      <trkpt lat="44.49205" lon="5.50518">
        <ele>1242.9</ele>
        <time>2021-09-07T09:30:06Z</time>
      </trkpt>
      <trkpt lat="44.49205" lon="5.50518">
        <ele>1242.9</ele>
        <time>2021-09-07T09:30:07Z</time>
      </trkpt>
      <trkpt lat="44.49205" lon="5.50518">
        <ele>1242.9</ele>
        <time>2021-09-07T09:30:08Z</time>
      </trkpt>
      <trkpt lat="44.49205" lon="5.50518">
        <ele>1242.9</ele>
        <time>2021-09-07T09:30:09Z</time>
      </trkpt>
      <trkpt lat="44.49205" lon="5.50518">
        <ele>1242.9</ele>
        <time>2021-09-07T09:30:10Z</time>
      </trkpt>
      <trkpt lat="44.49204" lon="5.50517">
        <ele>1242.9</ele>
        <time>2021-09-07T09:30:11Z</time>
      </trkpt>
      <trkpt lat="44.49204" lon="5.50517">
        <ele>1242.9</ele>
        <time>2021-09-07T09:30:12Z</time>
      </trkpt>
      <trkpt lat="44.49204" lon="5.50516">
        <ele>1242.8</ele>
        <time>2021-09-07T09:30:13Z</time>
      </trkpt>
      <trkpt lat="44.49203" lon="5.50515">
        <ele>1242.8</ele>
        <time>2021-09-07T09:30:14Z</time>
      </trkpt>
      <trkpt lat="44.49203" lon="5.50515">
        <ele>1242.7</ele>
        <time>2021-09-07T09:30:15Z</time>
      </trkpt>
      <trkpt lat="44.49202" lon="5.50514">
        <ele>1242.7</ele>
        <time>2021-09-07T09:30:16Z</time>
      </trkpt>
      <trkpt lat="44.49201" lon="5.50513">
        <ele>1242.6</ele>
        <time>2021-09-07T09:30:17Z</time>
      </trkpt>
      <trkpt lat="44.492" lon="5.50512">
        <ele>1242.6</ele>
        <time>2021-09-07T09:30:18Z</time>
      </trkpt>
      <trkpt lat="44.49199" lon="5.50511">
        <ele>1242.5</ele>
        <time>2021-09-07T09:30:19Z</time>
      </trkpt>
      <trkpt lat="44.49199" lon="5.50511">
        <ele>1242.5</ele>
        <time>2021-09-07T09:30:20Z</time>
      </trkpt>
      <trkpt lat="44.49199" lon="5.50511">
        <ele>1242.5</ele>
        <time>2021-09-07T09:30:21Z</time>
      </trkpt>
      <trkpt lat="44.49199" lon="5.5051">
        <ele>1242.4</ele>
        <time>2021-09-07T09:30:22Z</time>
      </trkpt>
      <trkpt lat="44.49198" lon="5.5051">
        <ele>1242.4</ele>
        <time>2021-09-07T09:30:23Z</time>
      </trkpt>
      <trkpt lat="44.49198" lon="5.5051">
        <ele>1242.4</ele>
        <time>2021-09-07T09:30:24Z</time>
      </trkpt>
      <trkpt lat="44.49198" lon="5.50509">
        <ele>1242.3</ele>
        <time>2021-09-07T09:30:25Z</time>
      </trkpt>
      <trkpt lat="44.49199" lon="5.5051">
        <ele>1242.3</ele>
        <time>2021-09-07T09:30:26Z</time>
      </trkpt>
      <trkpt lat="44.49199" lon="5.5051">
        <ele>1242.3</ele>
        <time>2021-09-07T09:30:27Z</time>
      </trkpt>
      <trkpt lat="44.49199" lon="5.5051">
        <ele>1242.3</ele>
        <time>2021-09-07T09:30:28Z</time>
      </trkpt>
      <trkpt lat="44.492" lon="5.50511">
        <ele>1242.2</ele>
        <time>2021-09-07T09:30:29Z</time>
      </trkpt>
      <trkpt lat="44.492" lon="5.50511">
        <ele>1242.2</ele>
        <time>2021-09-07T09:30:30Z</time>
      </trkpt>
      <trkpt lat="44.49201" lon="5.50512">
        <ele>1242.2</ele>
        <time>2021-09-07T09:30:31Z</time>
      </trkpt>
      <trkpt lat="44.49201" lon="5.50512">
        <ele>1242.1</ele>
        <time>2021-09-07T09:30:32Z</time>
      </trkpt>
      <trkpt lat="44.49202" lon="5.50513">
        <ele>1242.1</ele>
        <time>2021-09-07T09:30:33Z</time>
      </trkpt>
      <trkpt lat="44.49202" lon="5.50514">
        <ele>1242.1</ele>
        <time>2021-09-07T09:30:34Z</time>
      </trkpt>
      <trkpt lat="44.49202" lon="5.50514">
        <ele>1242</ele>
        <time>2021-09-07T09:30:35Z</time>
      </trkpt>
      <trkpt lat="44.49202" lon="5.50514">
        <ele>1242</ele>
        <time>2021-09-07T09:30:36Z</time>
      </trkpt>
      <trkpt lat="44.49202" lon="5.50514">
        <ele>1242</ele>
        <time>2021-09-07T09:30:37Z</time>
      </trkpt>
      <trkpt lat="44.49203" lon="5.50515">
        <ele>1242</ele>
        <time>2021-09-07T09:30:38Z</time>
      </trkpt>
      <trkpt lat="44.49203" lon="5.50515">
        <ele>1242</ele>
        <time>2021-09-07T09:30:39Z</time>
      </trkpt>
      <trkpt lat="44.49203" lon="5.50515">
        <ele>1242</ele>
        <time>2021-09-07T09:30:40Z</time>
      </trkpt>
      <trkpt lat="44.49203" lon="5.50515">
        <ele>1242</ele>
        <time>2021-09-07T09:30:41Z</time>
      </trkpt>
      <trkpt lat="44.49203" lon="5.50514">
        <ele>1241.9</ele>
        <time>2021-09-07T09:30:42Z</time>
      </trkpt>
      <trkpt lat="44.49204" lon="5.50513">
        <ele>1241.9</ele>
        <time>2021-09-07T09:30:43Z</time>
      </trkpt>
      <trkpt lat="44.49204" lon="5.50512">
        <ele>1241.8</ele>
        <time>2021-09-07T09:30:44Z</time>
      </trkpt>
      <trkpt lat="44.49205" lon="5.50511">
        <ele>1241.8</ele>
        <time>2021-09-07T09:30:45Z</time>
      </trkpt>
      <trkpt lat="44.49206" lon="5.50509">
        <ele>1241.7</ele>
        <time>2021-09-07T09:30:46Z</time>
      </trkpt>
      <trkpt lat="44.49207" lon="5.50507">
        <ele>1241.6</ele>
        <time>2021-09-07T09:30:47Z</time>
      </trkpt>
      <trkpt lat="44.49208" lon="5.50506">
        <ele>1241.5</ele>
        <time>2021-09-07T09:30:48Z</time>
      </trkpt>
      <trkpt lat="44.49209" lon="5.50506">
        <ele>1241.5</ele>
        <time>2021-09-07T09:30:49Z</time>
      </trkpt>
      <trkpt lat="44.49209" lon="5.50505">
        <ele>1241.4</ele>
        <time>2021-09-07T09:30:50Z</time>
      </trkpt>
      <trkpt lat="44.4921" lon="5.50504">
        <ele>1241.4</ele>
        <time>2021-09-07T09:30:51Z</time>
      </trkpt>
      <trkpt lat="44.4921" lon="5.50504">
        <ele>1241.4</ele>
        <time>2021-09-07T09:30:52Z</time>
      </trkpt>
      <trkpt lat="44.4921" lon="5.50503">
        <ele>1241.3</ele>
        <time>2021-09-07T09:30:53Z</time>
      </trkpt>
      <trkpt lat="44.4921" lon="5.50503">
        <ele>1241.3</ele>
        <time>2021-09-07T09:30:54Z</time>
      </trkpt>
      <trkpt lat="44.4921" lon="5.50503">
        <ele>1241.3</ele>
        <time>2021-09-07T09:30:55Z</time>
      </trkpt>
      <trkpt lat="44.4921" lon="5.50502">
        <ele>1241.3</ele>
        <time>2021-09-07T09:30:56Z</time>
      </trkpt>
      <trkpt lat="44.4921" lon="5.50503">
        <ele>1241.3</ele>
        <time>2021-09-07T09:30:57Z</time>
      </trkpt>
      <trkpt lat="44.49209" lon="5.50503">
        <ele>1241.2</ele>
        <time>2021-09-07T09:30:58Z</time>
      </trkpt>
      <trkpt lat="44.49208" lon="5.50504">
        <ele>1241.2</ele>
        <time>2021-09-07T09:30:59Z</time>
      </trkpt>
      <trkpt lat="44.49208" lon="5.50505">
        <ele>1241.1</ele>
        <time>2021-09-07T09:31:00Z</time>
      </trkpt>
      <trkpt lat="44.49207" lon="5.50505">
        <ele>1241.1</ele>
        <time>2021-09-07T09:31:01Z</time>
      </trkpt>
      <trkpt lat="44.49207" lon="5.50505">
        <ele>1241.1</ele>
        <time>2021-09-07T09:31:02Z</time>
      </trkpt>
      <trkpt lat="44.49207" lon="5.50506">
        <ele>1241.1</ele>
        <time>2021-09-07T09:31:03Z</time>
      </trkpt>
      <trkpt lat="44.49206" lon="5.50506">
        <ele>1241</ele>
        <time>2021-09-07T09:31:04Z</time>
      </trkpt>
      <trkpt lat="44.49206" lon="5.50506">
        <ele>1241</ele>
        <time>2021-09-07T09:31:05Z</time>
      </trkpt>
      <trkpt lat="44.49206" lon="5.50506">
        <ele>1241</ele>
        <time>2021-09-07T09:31:06Z</time>
      </trkpt>
      <trkpt lat="44.49206" lon="5.50506">
        <ele>1241</ele>
        <time>2021-09-07T09:31:07Z</time>
      </trkpt>
      <trkpt lat="44.49206" lon="5.50506">
        <ele>1241</ele>
        <time>2021-09-07T09:31:08Z</time>
      </trkpt>
      <trkpt lat="44.49205" lon="5.50506">
        <ele>1241</ele>
        <time>2021-09-07T09:31:09Z</time>
      </trkpt>
      <trkpt lat="44.49205" lon="5.50506">
        <ele>1241</ele>
        <time>2021-09-07T09:31:10Z</time>
      </trkpt>
      <trkpt lat="44.49205" lon="5.50506">
        <ele>1241</ele>
        <time>2021-09-07T09:31:11Z</time>
      </trkpt>
      <trkpt lat="44.49205" lon="5.50506">
        <ele>1241</ele>
        <time>2021-09-07T09:31:12Z</time>
      </trkpt>
      <trkpt lat="44.49205" lon="5.50506">
        <ele>1241</ele>
        <time>2021-09-07T09:31:13Z</time>
      </trkpt>
      <trkpt lat="44.49205" lon="5.50507">
        <ele>1240.9</ele>
        <time>2021-09-07T09:31:14Z</time>
      </trkpt>
      <trkpt lat="44.49205" lon="5.50507">
        <ele>1240.9</ele>
        <time>2021-09-07T09:31:15Z</time>
      </trkpt>
      <trkpt lat="44.49204" lon="5.50507">
        <ele>1240.9</ele>
        <time>2021-09-07T09:31:16Z</time>
      </trkpt>
      <trkpt lat="44.49204" lon="5.50507">
        <ele>1240.9</ele>
        <time>2021-09-07T09:31:17Z</time>
      </trkpt>
      <trkpt lat="44.49204" lon="5.50506">
        <ele>1240.9</ele>
        <time>2021-09-07T09:31:18Z</time>
      </trkpt>
      <trkpt lat="44.49204" lon="5.50505">
        <ele>1240.8</ele>
        <time>2021-09-07T09:31:19Z</time>
      </trkpt>
      <trkpt lat="44.49205" lon="5.50503">
        <ele>1240.7</ele>
        <time>2021-09-07T09:31:20Z</time>
      </trkpt>
      <trkpt lat="44.49205" lon="5.505">
        <ele>1240.6</ele>
        <time>2021-09-07T09:31:21Z</time>
      </trkpt>
      <trkpt lat="44.49206" lon="5.50498">
        <ele>1240.6</ele>
        <time>2021-09-07T09:31:22Z</time>
      </trkpt>
      <trkpt lat="44.49206" lon="5.50496">
        <ele>1240.5</ele>
        <time>2021-09-07T09:31:23Z</time>
      </trkpt>
      <trkpt lat="44.49206" lon="5.50491">
        <ele>1240.3</ele>
        <time>2021-09-07T09:31:24Z</time>
      </trkpt>
      <trkpt lat="44.49206" lon="5.50484">
        <ele>1240.1</ele>
        <time>2021-09-07T09:31:25Z</time>
      </trkpt>
      <trkpt lat="44.49206" lon="5.50481">
        <ele>1240</ele>
        <time>2021-09-07T09:31:26Z</time>
      </trkpt>
      <trkpt lat="44.49205" lon="5.50478">
        <ele>1239.9</ele>
        <time>2021-09-07T09:31:27Z</time>
      </trkpt>
      <trkpt lat="44.49204" lon="5.50474">
        <ele>1239.8</ele>
        <time>2021-09-07T09:31:28Z</time>
      </trkpt>
      <trkpt lat="44.49203" lon="5.5047">
        <ele>1239.6</ele>
        <time>2021-09-07T09:31:29Z</time>
      </trkpt>
      <trkpt lat="44.49202" lon="5.50467">
        <ele>1239.5</ele>
        <time>2021-09-07T09:31:30Z</time>
      </trkpt>
      <trkpt lat="44.49202" lon="5.50462">
        <ele>1239.4</ele>
        <time>2021-09-07T09:31:31Z</time>
      </trkpt>
      <trkpt lat="44.49202" lon="5.5046">
        <ele>1239.4</ele>
        <time>2021-09-07T09:31:32Z</time>
      </trkpt>
      <trkpt lat="44.49202" lon="5.50457">
        <ele>1239.3</ele>
        <time>2021-09-07T09:31:33Z</time>
      </trkpt>
      <trkpt lat="44.49202" lon="5.50455">
        <ele>1239.2</ele>
        <time>2021-09-07T09:31:34Z</time>
      </trkpt>
      <trkpt lat="44.49201" lon="5.50453">
        <ele>1239.2</ele>
        <time>2021-09-07T09:31:35Z</time>
      </trkpt>
      <trkpt lat="44.49201" lon="5.5045">
        <ele>1239.1</ele>
        <time>2021-09-07T09:31:36Z</time>
      </trkpt>
      <trkpt lat="44.49201" lon="5.50445">
        <ele>1239</ele>
        <time>2021-09-07T09:31:37Z</time>
      </trkpt>
      <trkpt lat="44.49201" lon="5.50443">
        <ele>1238.9</ele>
        <time>2021-09-07T09:31:38Z</time>
      </trkpt>
      <trkpt lat="44.49201" lon="5.5044">
        <ele>1238.8</ele>
        <time>2021-09-07T09:31:39Z</time>
      </trkpt>
      <trkpt lat="44.49201" lon="5.50437">
        <ele>1238.8</ele>
        <time>2021-09-07T09:31:40Z</time>
      </trkpt>
      <trkpt lat="44.49201" lon="5.50434">
        <ele>1238.7</ele>
        <time>2021-09-07T09:31:41Z</time>
      </trkpt>
      <trkpt lat="44.49201" lon="5.5043">
        <ele>1238.6</ele>
        <time>2021-09-07T09:31:42Z</time>
      </trkpt>
      <trkpt lat="44.492" lon="5.50423">
        <ele>1238.4</ele>
        <time>2021-09-07T09:31:43Z</time>
      </trkpt>
      <trkpt lat="44.492" lon="5.5042">
        <ele>1238.3</ele>
        <time>2021-09-07T09:31:44Z</time>
      </trkpt>
      <trkpt lat="44.49199" lon="5.50416">
        <ele>1238.2</ele>
        <time>2021-09-07T09:31:45Z</time>
      </trkpt>
      <trkpt lat="44.49199" lon="5.5041">
        <ele>1238.1</ele>
        <time>2021-09-07T09:31:46Z</time>
      </trkpt>
      <trkpt lat="44.49199" lon="5.50405">
        <ele>1238</ele>
        <time>2021-09-07T09:31:47Z</time>
      </trkpt>
      <trkpt lat="44.492" lon="5.504">
        <ele>1237.8</ele>
        <time>2021-09-07T09:31:48Z</time>
      </trkpt>
      <trkpt lat="44.492" lon="5.50395">
        <ele>1237.7</ele>
        <time>2021-09-07T09:31:49Z</time>
      </trkpt>
      <trkpt lat="44.492" lon="5.50388">
        <ele>1237.6</ele>
        <time>2021-09-07T09:31:50Z</time>
      </trkpt>
      <trkpt lat="44.492" lon="5.50382">
        <ele>1237.4</ele>
        <time>2021-09-07T09:31:51Z</time>
      </trkpt>
      <trkpt lat="44.492" lon="5.50376">
        <ele>1237.3</ele>
        <time>2021-09-07T09:31:52Z</time>
      </trkpt>
      <trkpt lat="44.492" lon="5.50366">
        <ele>1237</ele>
        <time>2021-09-07T09:31:53Z</time>
      </trkpt>
      <trkpt lat="44.492" lon="5.50359">
        <ele>1236.8</ele>
        <time>2021-09-07T09:31:54Z</time>
      </trkpt>
      <trkpt lat="44.492" lon="5.50351">
        <ele>1236.6</ele>
        <time>2021-09-07T09:31:55Z</time>
      </trkpt>
      <trkpt lat="44.492" lon="5.50344">
        <ele>1236.4</ele>
        <time>2021-09-07T09:31:56Z</time>
      </trkpt>
      <trkpt lat="44.492" lon="5.50336">
        <ele>1236.3</ele>
        <time>2021-09-07T09:31:57Z</time>
      </trkpt>
      <trkpt lat="44.492" lon="5.50329">
        <ele>1236.1</ele>
        <time>2021-09-07T09:31:58Z</time>
      </trkpt>
      <trkpt lat="44.492" lon="5.50323">
        <ele>1235.9</ele>
        <time>2021-09-07T09:31:59Z</time>
      </trkpt>
      <trkpt lat="44.492" lon="5.50317">
        <ele>1235.7</ele>
        <time>2021-09-07T09:32:00Z</time>
      </trkpt>
      <trkpt lat="44.49199" lon="5.5031">
        <ele>1235.5</ele>
        <time>2021-09-07T09:32:01Z</time>
      </trkpt>
      <trkpt lat="44.49199" lon="5.50303">
        <ele>1235.3</ele>
        <time>2021-09-07T09:32:02Z</time>
      </trkpt>
      <trkpt lat="44.49198" lon="5.50295">
        <ele>1235.1</ele>
        <time>2021-09-07T09:32:03Z</time>
      </trkpt>
      <trkpt lat="44.49197" lon="5.50287">
        <ele>1234.9</ele>
        <time>2021-09-07T09:32:04Z</time>
      </trkpt>
      <trkpt lat="44.49197" lon="5.50278">
        <ele>1234.7</ele>
        <time>2021-09-07T09:32:05Z</time>
      </trkpt>
      <trkpt lat="44.49197" lon="5.50268">
        <ele>1234.4</ele>
        <time>2021-09-07T09:32:06Z</time>
      </trkpt>
      <trkpt lat="44.49196" lon="5.50258">
        <ele>1234.1</ele>
        <time>2021-09-07T09:32:07Z</time>
      </trkpt>
      <trkpt lat="44.49195" lon="5.50248">
        <ele>1233.9</ele>
        <time>2021-09-07T09:32:08Z</time>
      </trkpt>
      <trkpt lat="44.49194" lon="5.50238">
        <ele>1233.6</ele>
        <time>2021-09-07T09:32:09Z</time>
      </trkpt>
      <trkpt lat="44.49194" lon="5.50227">
        <ele>1233.4</ele>
        <time>2021-09-07T09:32:10Z</time>
      </trkpt>
      <trkpt lat="44.49194" lon="5.50216">
        <ele>1233.1</ele>
        <time>2021-09-07T09:32:11Z</time>
      </trkpt>
      <trkpt lat="44.49193" lon="5.50205">
        <ele>1232.8</ele>
        <time>2021-09-07T09:32:12Z</time>
      </trkpt>
      <trkpt lat="44.49194" lon="5.50196">
        <ele>1232.6</ele>
        <time>2021-09-07T09:32:13Z</time>
      </trkpt>
      <trkpt lat="44.49194" lon="5.50186">
        <ele>1232.5</ele>
        <time>2021-09-07T09:32:14Z</time>
      </trkpt>
      <trkpt lat="44.49195" lon="5.50177">
        <ele>1232.3</ele>
        <time>2021-09-07T09:32:15Z</time>
      </trkpt>
      <trkpt lat="44.49195" lon="5.50169">
        <ele>1232.2</ele>
        <time>2021-09-07T09:32:16Z</time>
      </trkpt>
      <trkpt lat="44.49195" lon="5.5016">
        <ele>1232.1</ele>
        <time>2021-09-07T09:32:17Z</time>
      </trkpt>
      <trkpt lat="44.49196" lon="5.50152">
        <ele>1232</ele>
        <time>2021-09-07T09:32:18Z</time>
      </trkpt>
      <trkpt lat="44.49197" lon="5.50144">
        <ele>1231.9</ele>
        <time>2021-09-07T09:32:19Z</time>
      </trkpt>
      <trkpt lat="44.49198" lon="5.50136">
        <ele>1231.8</ele>
        <time>2021-09-07T09:32:20Z</time>
      </trkpt>
      <trkpt lat="44.49198" lon="5.50129">
        <ele>1231.8</ele>
        <time>2021-09-07T09:32:21Z</time>
      </trkpt>
      <trkpt lat="44.49199" lon="5.50122">
        <ele>1231.7</ele>
        <time>2021-09-07T09:32:22Z</time>
      </trkpt>
      <trkpt lat="44.492" lon="5.50115">
        <ele>1231.7</ele>
        <time>2021-09-07T09:32:23Z</time>
      </trkpt>
      <trkpt lat="44.49201" lon="5.50108">
        <ele>1231.7</ele>
        <time>2021-09-07T09:32:24Z</time>
      </trkpt>
      <trkpt lat="44.49202" lon="5.50101">
        <ele>1231.7</ele>
        <time>2021-09-07T09:32:25Z</time>
      </trkpt>
      <trkpt lat="44.49203" lon="5.50093">
        <ele>1231.7</ele>
        <time>2021-09-07T09:32:26Z</time>
      </trkpt>
      <trkpt lat="44.49203" lon="5.50087">
        <ele>1231.8</ele>
        <time>2021-09-07T09:32:27Z</time>
      </trkpt>
      <trkpt lat="44.49203" lon="5.5008">
        <ele>1231.9</ele>
        <time>2021-09-07T09:32:28Z</time>
      </trkpt>
      <trkpt lat="44.49203" lon="5.50073">
        <ele>1231.9</ele>
        <time>2021-09-07T09:32:29Z</time>
      </trkpt>
      <trkpt lat="44.49203" lon="5.50066">
        <ele>1232</ele>
        <time>2021-09-07T09:32:30Z</time>
      </trkpt>
      <trkpt lat="44.49202" lon="5.50058">
        <ele>1232.1</ele>
        <time>2021-09-07T09:32:31Z</time>
      </trkpt>
      <trkpt lat="44.49201" lon="5.5005">
        <ele>1232.3</ele>
        <time>2021-09-07T09:32:32Z</time>
      </trkpt>
      <trkpt lat="44.492" lon="5.50042">
        <ele>1232.4</ele>
        <time>2021-09-07T09:32:33Z</time>
      </trkpt>
      <trkpt lat="44.49199" lon="5.50034">
        <ele>1232.6</ele>
        <time>2021-09-07T09:32:34Z</time>
      </trkpt>
      <trkpt lat="44.49199" lon="5.50027">
        <ele>1232.7</ele>
        <time>2021-09-07T09:32:35Z</time>
      </trkpt>
      <trkpt lat="44.49198" lon="5.50019">
        <ele>1232.9</ele>
        <time>2021-09-07T09:32:36Z</time>
      </trkpt>
      <trkpt lat="44.49199" lon="5.50012">
        <ele>1233.1</ele>
        <time>2021-09-07T09:32:37Z</time>
      </trkpt>
      <trkpt lat="44.49199" lon="5.50005">
        <ele>1233.2</ele>
        <time>2021-09-07T09:32:38Z</time>
      </trkpt>
      <trkpt lat="44.49198" lon="5.49997">
        <ele>1233.4</ele>
        <time>2021-09-07T09:32:39Z</time>
      </trkpt>
      <trkpt lat="44.49198" lon="5.4999">
        <ele>1233.5</ele>
        <time>2021-09-07T09:32:40Z</time>
      </trkpt>
      <trkpt lat="44.49197" lon="5.49982">
        <ele>1233.7</ele>
        <time>2021-09-07T09:32:41Z</time>
      </trkpt>
      <trkpt lat="44.49197" lon="5.49974">
        <ele>1234</ele>
        <time>2021-09-07T09:32:42Z</time>
      </trkpt>
      <trkpt lat="44.49198" lon="5.49967">
        <ele>1234.2</ele>
        <time>2021-09-07T09:32:43Z</time>
      </trkpt>
      <trkpt lat="44.49198" lon="5.4996">
        <ele>1234.5</ele>
        <time>2021-09-07T09:32:44Z</time>
      </trkpt>
      <trkpt lat="44.49198" lon="5.49953">
        <ele>1234.8</ele>
        <time>2021-09-07T09:32:45Z</time>
      </trkpt>
      <trkpt lat="44.49199" lon="5.49948">
        <ele>1235.1</ele>
        <time>2021-09-07T09:32:46Z</time>
      </trkpt>
      <trkpt lat="44.49199" lon="5.49942">
        <ele>1235.3</ele>
        <time>2021-09-07T09:32:47Z</time>
      </trkpt>
      <trkpt lat="44.49199" lon="5.49935">
        <ele>1235.6</ele>
        <time>2021-09-07T09:32:48Z</time>
      </trkpt>
      <trkpt lat="44.49198" lon="5.49929">
        <ele>1235.8</ele>
        <time>2021-09-07T09:32:49Z</time>
      </trkpt>
      <trkpt lat="44.49197" lon="5.49922">
        <ele>1236.7</ele>
        <time>2021-09-07T09:32:50Z</time>
      </trkpt>
      <trkpt lat="44.49196" lon="5.49917">
        <ele>1237.3</ele>
        <time>2021-09-07T09:32:51Z</time>
      </trkpt>
      <trkpt lat="44.49195" lon="5.4991">
        <ele>1238.2</ele>
        <time>2021-09-07T09:32:52Z</time>
      </trkpt>
      <trkpt lat="44.49193" lon="5.49903">
        <ele>1239.1</ele>
        <time>2021-09-07T09:32:53Z</time>
      </trkpt>
      <trkpt lat="44.49192" lon="5.49897">
        <ele>1239.8</ele>
        <time>2021-09-07T09:32:54Z</time>
      </trkpt>
      <trkpt lat="44.49191" lon="5.49893">
        <ele>1240.3</ele>
        <time>2021-09-07T09:32:55Z</time>
      </trkpt>
      <trkpt lat="44.4919" lon="5.49891">
        <ele>1240.7</ele>
        <time>2021-09-07T09:32:56Z</time>
      </trkpt>
      <trkpt lat="44.49188" lon="5.49889">
        <ele>1241</ele>
        <time>2021-09-07T09:32:57Z</time>
      </trkpt>
      <trkpt lat="44.49185" lon="5.49888">
        <ele>1241.6</ele>
        <time>2021-09-07T09:32:58Z</time>
      </trkpt>
      <trkpt lat="44.49181" lon="5.49886">
        <ele>1242.3</ele>
        <time>2021-09-07T09:32:59Z</time>
      </trkpt>
      <trkpt lat="44.4918" lon="5.49885">
        <ele>1242.5</ele>
        <time>2021-09-07T09:33:00Z</time>
      </trkpt>
      <trkpt lat="44.49179" lon="5.49883">
        <ele>1242.8</ele>
        <time>2021-09-07T09:33:01Z</time>
      </trkpt>
      <trkpt lat="44.49178" lon="5.4988">
        <ele>1243.2</ele>
        <time>2021-09-07T09:33:02Z</time>
      </trkpt>
      <trkpt lat="44.49178" lon="5.49877">
        <ele>1243.5</ele>
        <time>2021-09-07T09:33:03Z</time>
      </trkpt>
      <trkpt lat="44.49178" lon="5.49875">
        <ele>1243.8</ele>
        <time>2021-09-07T09:33:04Z</time>
      </trkpt>
      <trkpt lat="44.49178" lon="5.49872">
        <ele>1244.1</ele>
        <time>2021-09-07T09:33:05Z</time>
      </trkpt>
      <trkpt lat="44.49179" lon="5.49872">
        <ele>1244.3</ele>
        <time>2021-09-07T09:33:06Z</time>
      </trkpt>
      <trkpt lat="44.4918" lon="5.49873">
        <ele>1244.4</ele>
        <time>2021-09-07T09:33:07Z</time>
      </trkpt>
      <trkpt lat="44.4918" lon="5.49874">
        <ele>1244.6</ele>
        <time>2021-09-07T09:33:08Z</time>
      </trkpt>
      <trkpt lat="44.4918" lon="5.49874">
        <ele>1244.6</ele>
        <time>2021-09-07T09:33:09Z</time>
      </trkpt>
      <trkpt lat="44.4918" lon="5.49875">
        <ele>1244.7</ele>
        <time>2021-09-07T09:33:10Z</time>
      </trkpt>
      <trkpt lat="44.4918" lon="5.49876">
        <ele>1244.8</ele>
        <time>2021-09-07T09:33:11Z</time>
      </trkpt>
      <trkpt lat="44.4918" lon="5.49876">
        <ele>1244.8</ele>
        <time>2021-09-07T09:33:12Z</time>
      </trkpt>
      <trkpt lat="44.4918" lon="5.49876">
        <ele>1244.8</ele>
        <time>2021-09-07T09:33:13Z</time>
      </trkpt>
      <trkpt lat="44.4918" lon="5.49877">
        <ele>1244.9</ele>
        <time>2021-09-07T09:33:14Z</time>
      </trkpt>
      <trkpt lat="44.4918" lon="5.49877">
        <ele>1244.9</ele>
        <time>2021-09-07T09:33:15Z</time>
      </trkpt>
      <trkpt lat="44.4918" lon="5.49877">
        <ele>1244.9</ele>
        <time>2021-09-07T09:33:16Z</time>
      </trkpt>
      <trkpt lat="44.49181" lon="5.49877">
        <ele>1245.1</ele>
        <time>2021-09-07T09:33:17Z</time>
      </trkpt>
      <trkpt lat="44.49181" lon="5.49878">
        <ele>1245.2</ele>
        <time>2021-09-07T09:33:18Z</time>
      </trkpt>
      <trkpt lat="44.49181" lon="5.49878">
        <ele>1245.2</ele>
        <time>2021-09-07T09:33:19Z</time>
      </trkpt>
      <trkpt lat="44.49181" lon="5.49878">
        <ele>1245.2</ele>
        <time>2021-09-07T09:33:20Z</time>
      </trkpt>
      <trkpt lat="44.49181" lon="5.49878">
        <ele>1245.2</ele>
        <time>2021-09-07T09:33:21Z</time>
      </trkpt>
      <trkpt lat="44.49181" lon="5.49878">
        <ele>1245.2</ele>
        <time>2021-09-07T09:33:22Z</time>
      </trkpt>
      <trkpt lat="44.49181" lon="5.49878">
        <ele>1245.2</ele>
        <time>2021-09-07T09:33:23Z</time>
      </trkpt>
      <trkpt lat="44.49181" lon="5.49878">
        <ele>1245.2</ele>
        <time>2021-09-07T09:33:24Z</time>
      </trkpt>
      <trkpt lat="44.49181" lon="5.49878">
        <ele>1245.2</ele>
        <time>2021-09-07T09:33:25Z</time>
      </trkpt>
      <trkpt lat="44.49181" lon="5.49878">
        <ele>1245.2</ele>
        <time>2021-09-07T09:33:26Z</time>
      </trkpt>
      <trkpt lat="44.49181" lon="5.49878">
        <ele>1245.2</ele>
        <time>2021-09-07T09:33:27Z</time>
      </trkpt>
      <trkpt lat="44.49181" lon="5.49878">
        <ele>1245.2</ele>
        <time>2021-09-07T09:33:28Z</time>
      </trkpt>
      <trkpt lat="44.49181" lon="5.49878">
        <ele>1245.2</ele>
        <time>2021-09-07T09:33:29Z</time>
      </trkpt>
      <trkpt lat="44.49181" lon="5.49878">
        <ele>1245.2</ele>
        <time>2021-09-07T09:33:30Z</time>
      </trkpt>
      <trkpt lat="44.49181" lon="5.49878">
        <ele>1245.2</ele>
        <time>2021-09-07T09:33:31Z</time>
      </trkpt>
      <trkpt lat="44.49181" lon="5.49878">
        <ele>1245.2</ele>
        <time>2021-09-07T09:33:32Z</time>
      </trkpt>
      <trkpt lat="44.49181" lon="5.49877">
        <ele>1245.3</ele>
        <time>2021-09-07T09:33:33Z</time>
      </trkpt>
      <trkpt lat="44.49181" lon="5.49877">
        <ele>1245.4</ele>
        <time>2021-09-07T09:33:34Z</time>
      </trkpt>
      <trkpt lat="44.4918" lon="5.49877">
        <ele>1245.5</ele>
        <time>2021-09-07T09:33:35Z</time>
      </trkpt>
      <trkpt lat="44.4918" lon="5.49877">
        <ele>1245.5</ele>
        <time>2021-09-07T09:33:36Z</time>
      </trkpt>
      <trkpt lat="44.4918" lon="5.49877">
        <ele>1245.5</ele>
        <time>2021-09-07T09:33:37Z</time>
      </trkpt>
      <trkpt lat="44.4918" lon="5.49877">
        <ele>1245.5</ele>
        <time>2021-09-07T09:33:38Z</time>
      </trkpt>
      <trkpt lat="44.4918" lon="5.49877">
        <ele>1245.5</ele>
        <time>2021-09-07T09:33:39Z</time>
      </trkpt>
      <trkpt lat="44.4918" lon="5.49877">
        <ele>1245.5</ele>
        <time>2021-09-07T09:33:40Z</time>
      </trkpt>
      <trkpt lat="44.4918" lon="5.49877">
        <ele>1245.5</ele>
        <time>2021-09-07T09:33:41Z</time>
      </trkpt>
      <trkpt lat="44.4918" lon="5.49877">
        <ele>1245.5</ele>
        <time>2021-09-07T09:33:42Z</time>
      </trkpt>
      <trkpt lat="44.4918" lon="5.49877">
        <ele>1245.6</ele>
        <time>2021-09-07T09:33:43Z</time>
      </trkpt>
      <trkpt lat="44.4918" lon="5.49876">
        <ele>1245.6</ele>
        <time>2021-09-07T09:33:44Z</time>
      </trkpt>
      <trkpt lat="44.4918" lon="5.49874">
        <ele>1245.9</ele>
        <time>2021-09-07T09:33:45Z</time>
      </trkpt>
      <trkpt lat="44.4918" lon="5.49872">
        <ele>1246.1</ele>
        <time>2021-09-07T09:33:46Z</time>
      </trkpt>
      <trkpt lat="44.4918" lon="5.4987">
        <ele>1246.4</ele>
        <time>2021-09-07T09:33:47Z</time>
      </trkpt>
      <trkpt lat="44.4918" lon="5.49868">
        <ele>1246.6</ele>
        <time>2021-09-07T09:33:48Z</time>
      </trkpt>
      <trkpt lat="44.4918" lon="5.49866">
        <ele>1246.8</ele>
        <time>2021-09-07T09:33:49Z</time>
      </trkpt>
      <trkpt lat="44.4918" lon="5.49863">
        <ele>1247.2</ele>
        <time>2021-09-07T09:33:50Z</time>
      </trkpt>
      <trkpt lat="44.49181" lon="5.49861">
        <ele>1247.5</ele>
        <time>2021-09-07T09:33:51Z</time>
      </trkpt>
      <trkpt lat="44.49182" lon="5.4986">
        <ele>1247.7</ele>
        <time>2021-09-07T09:33:52Z</time>
      </trkpt>
      <trkpt lat="44.49182" lon="5.49858">
        <ele>1247.9</ele>
        <time>2021-09-07T09:33:53Z</time>
      </trkpt>
      <trkpt lat="44.49183" lon="5.49856">
        <ele>1248.2</ele>
        <time>2021-09-07T09:33:54Z</time>
      </trkpt>
      <trkpt lat="44.49183" lon="5.49854">
        <ele>1248.4</ele>
        <time>2021-09-07T09:33:55Z</time>
      </trkpt>
      <trkpt lat="44.49185" lon="5.4985">
        <ele>1249</ele>
        <time>2021-09-07T09:33:56Z</time>
      </trkpt>
      <trkpt lat="44.49186" lon="5.4985">
        <ele>1249.1</ele>
        <time>2021-09-07T09:33:57Z</time>
      </trkpt>
      <trkpt lat="44.49186" lon="5.49849">
        <ele>1249.2</ele>
        <time>2021-09-07T09:33:58Z</time>
      </trkpt>
      <trkpt lat="44.49187" lon="5.49848">
        <ele>1249.4</ele>
        <time>2021-09-07T09:33:59Z</time>
      </trkpt>
      <trkpt lat="44.49188" lon="5.49847">
        <ele>1249.6</ele>
        <time>2021-09-07T09:34:00Z</time>
      </trkpt>
      <trkpt lat="44.49188" lon="5.49846">
        <ele>1249.8</ele>
        <time>2021-09-07T09:34:01Z</time>
      </trkpt>
      <trkpt lat="44.49188" lon="5.49846">
        <ele>1249.8</ele>
        <time>2021-09-07T09:34:02Z</time>
      </trkpt>
      <trkpt lat="44.49188" lon="5.49845">
        <ele>1249.9</ele>
        <time>2021-09-07T09:34:03Z</time>
      </trkpt>
      <trkpt lat="44.49188" lon="5.49845">
        <ele>1249.9</ele>
        <time>2021-09-07T09:34:04Z</time>
      </trkpt>
      <trkpt lat="44.49188" lon="5.49844">
        <ele>1250</ele>
        <time>2021-09-07T09:34:05Z</time>
      </trkpt>
      <trkpt lat="44.49188" lon="5.49844">
        <ele>1250</ele>
        <time>2021-09-07T09:34:06Z</time>
      </trkpt>
      <trkpt lat="44.49188" lon="5.49844">
        <ele>1250</ele>
        <time>2021-09-07T09:34:07Z</time>
      </trkpt>
      <trkpt lat="44.49189" lon="5.49843">
        <ele>1250.2</ele>
        <time>2021-09-07T09:34:08Z</time>
      </trkpt>
      <trkpt lat="44.49189" lon="5.49843">
        <ele>1250.2</ele>
        <time>2021-09-07T09:34:09Z</time>
      </trkpt>
      <trkpt lat="44.49189" lon="5.49843">
        <ele>1250.2</ele>
        <time>2021-09-07T09:34:10Z</time>
      </trkpt>
      <trkpt lat="44.49189" lon="5.49843">
        <ele>1250.2</ele>
        <time>2021-09-07T09:34:11Z</time>
      </trkpt>
      <trkpt lat="44.49189" lon="5.49842">
        <ele>1250.3</ele>
        <time>2021-09-07T09:34:12Z</time>
      </trkpt>
      <trkpt lat="44.49189" lon="5.49841">
        <ele>1250.4</ele>
        <time>2021-09-07T09:34:13Z</time>
      </trkpt>
      <trkpt lat="44.49189" lon="5.4984">
        <ele>1250.6</ele>
        <time>2021-09-07T09:34:14Z</time>
      </trkpt>
      <trkpt lat="44.49189" lon="5.49838">
        <ele>1250.8</ele>
        <time>2021-09-07T09:34:15Z</time>
      </trkpt>
      <trkpt lat="44.49189" lon="5.49837">
        <ele>1251</ele>
        <time>2021-09-07T09:34:16Z</time>
      </trkpt>
      <trkpt lat="44.49189" lon="5.49835">
        <ele>1251.2</ele>
        <time>2021-09-07T09:34:17Z</time>
      </trkpt>
      <trkpt lat="44.4919" lon="5.49834">
        <ele>1251.4</ele>
        <time>2021-09-07T09:34:18Z</time>
      </trkpt>
      <trkpt lat="44.4919" lon="5.49832">
        <ele>1251.6</ele>
        <time>2021-09-07T09:34:19Z</time>
      </trkpt>
      <trkpt lat="44.4919" lon="5.49832">
        <ele>1251.7</ele>
        <time>2021-09-07T09:34:20Z</time>
      </trkpt>
      <trkpt lat="44.4919" lon="5.49831">
        <ele>1251.7</ele>
        <time>2021-09-07T09:34:21Z</time>
      </trkpt>
      <trkpt lat="44.4919" lon="5.4983">
        <ele>1251.9</ele>
        <time>2021-09-07T09:34:22Z</time>
      </trkpt>
      <trkpt lat="44.4919" lon="5.49829">
        <ele>1252</ele>
        <time>2021-09-07T09:34:23Z</time>
      </trkpt>
      <trkpt lat="44.4919" lon="5.49828">
        <ele>1252.1</ele>
        <time>2021-09-07T09:34:24Z</time>
      </trkpt>
      <trkpt lat="44.49191" lon="5.49826">
        <ele>1252.4</ele>
        <time>2021-09-07T09:34:25Z</time>
      </trkpt>
      <trkpt lat="44.49191" lon="5.49824">
        <ele>1252.6</ele>
        <time>2021-09-07T09:34:26Z</time>
      </trkpt>
      <trkpt lat="44.49191" lon="5.49824">
        <ele>1252.7</ele>
        <time>2021-09-07T09:34:27Z</time>
      </trkpt>
      <trkpt lat="44.49191" lon="5.49823">
        <ele>1252.7</ele>
        <time>2021-09-07T09:34:28Z</time>
      </trkpt>
      <trkpt lat="44.49191" lon="5.49822">
        <ele>1252.9</ele>
        <time>2021-09-07T09:34:29Z</time>
      </trkpt>
      <trkpt lat="44.49191" lon="5.49821">
        <ele>1253</ele>
        <time>2021-09-07T09:34:30Z</time>
      </trkpt>
      <trkpt lat="44.49191" lon="5.49821">
        <ele>1253</ele>
        <time>2021-09-07T09:34:31Z</time>
      </trkpt>
      <trkpt lat="44.49191" lon="5.49821">
        <ele>1253</ele>
        <time>2021-09-07T09:34:32Z</time>
      </trkpt>
      <trkpt lat="44.49191" lon="5.4982">
        <ele>1253.1</ele>
        <time>2021-09-07T09:34:33Z</time>
      </trkpt>
      <trkpt lat="44.49191" lon="5.4982">
        <ele>1253.1</ele>
        <time>2021-09-07T09:34:34Z</time>
      </trkpt>
      <trkpt lat="44.49191" lon="5.4982">
        <ele>1253.1</ele>
        <time>2021-09-07T09:34:35Z</time>
      </trkpt>
      <trkpt lat="44.49191" lon="5.4982">
        <ele>1253.1</ele>
        <time>2021-09-07T09:34:36Z</time>
      </trkpt>
      <trkpt lat="44.49191" lon="5.4982">
        <ele>1253.1</ele>
        <time>2021-09-07T09:34:37Z</time>
      </trkpt>
      <trkpt lat="44.49191" lon="5.4982">
        <ele>1253.1</ele>
        <time>2021-09-07T09:34:38Z</time>
      </trkpt>
      <trkpt lat="44.49191" lon="5.4982">
        <ele>1253.1</ele>
        <time>2021-09-07T09:34:39Z</time>
      </trkpt>
      <trkpt lat="44.49191" lon="5.4982">
        <ele>1253.1</ele>
        <time>2021-09-07T09:34:40Z</time>
      </trkpt>
      <trkpt lat="44.49191" lon="5.4982">
        <ele>1253.2</ele>
        <time>2021-09-07T09:34:41Z</time>
      </trkpt>
      <trkpt lat="44.49191" lon="5.49819">
        <ele>1253.2</ele>
        <time>2021-09-07T09:34:42Z</time>
      </trkpt>
      <trkpt lat="44.49191" lon="5.49819">
        <ele>1253.2</ele>
        <time>2021-09-07T09:34:43Z</time>
      </trkpt>
      <trkpt lat="44.49191" lon="5.49819">
        <ele>1253.2</ele>
        <time>2021-09-07T09:34:44Z</time>
      </trkpt>
      <trkpt lat="44.49191" lon="5.49818">
        <ele>1253.3</ele>
        <time>2021-09-07T09:34:45Z</time>
      </trkpt>
      <trkpt lat="44.49191" lon="5.49817">
        <ele>1253.5</ele>
        <time>2021-09-07T09:34:46Z</time>
      </trkpt>
      <trkpt lat="44.49192" lon="5.49815">
        <ele>1253.7</ele>
        <time>2021-09-07T09:34:47Z</time>
      </trkpt>
      <trkpt lat="44.49192" lon="5.49813">
        <ele>1254</ele>
        <time>2021-09-07T09:34:48Z</time>
      </trkpt>
      <trkpt lat="44.49192" lon="5.49812">
        <ele>1254.1</ele>
        <time>2021-09-07T09:34:49Z</time>
      </trkpt>
      <trkpt lat="44.49193" lon="5.4981">
        <ele>1254.4</ele>
        <time>2021-09-07T09:34:50Z</time>
      </trkpt>
      <trkpt lat="44.49193" lon="5.49808">
        <ele>1254.6</ele>
        <time>2021-09-07T09:34:51Z</time>
      </trkpt>
      <trkpt lat="44.49194" lon="5.49806">
        <ele>1254.9</ele>
        <time>2021-09-07T09:34:52Z</time>
      </trkpt>
      <trkpt lat="44.49194" lon="5.49805">
        <ele>1255</ele>
        <time>2021-09-07T09:34:53Z</time>
      </trkpt>
      <trkpt lat="44.49194" lon="5.49804">
        <ele>1255.2</ele>
        <time>2021-09-07T09:34:54Z</time>
      </trkpt>
      <trkpt lat="44.49194" lon="5.49803">
        <ele>1255.3</ele>
        <time>2021-09-07T09:34:55Z</time>
      </trkpt>
      <trkpt lat="44.49194" lon="5.49802">
        <ele>1255.4</ele>
        <time>2021-09-07T09:34:56Z</time>
      </trkpt>
      <trkpt lat="44.49194" lon="5.49801">
        <ele>1255.5</ele>
        <time>2021-09-07T09:34:57Z</time>
      </trkpt>
      <trkpt lat="44.49194" lon="5.49801">
        <ele>1255.5</ele>
        <time>2021-09-07T09:34:58Z</time>
      </trkpt>
      <trkpt lat="44.49194" lon="5.49801">
        <ele>1255.6</ele>
        <time>2021-09-07T09:34:59Z</time>
      </trkpt>
      <trkpt lat="44.49194" lon="5.498">
        <ele>1255.6</ele>
        <time>2021-09-07T09:35:00Z</time>
      </trkpt>
      <trkpt lat="44.49194" lon="5.498">
        <ele>1255.6</ele>
        <time>2021-09-07T09:35:01Z</time>
      </trkpt>
      <trkpt lat="44.49194" lon="5.498">
        <ele>1255.6</ele>
        <time>2021-09-07T09:35:02Z</time>
      </trkpt>
      <trkpt lat="44.49194" lon="5.49799">
        <ele>1255.8</ele>
        <time>2021-09-07T09:35:03Z</time>
      </trkpt>
      <trkpt lat="44.49194" lon="5.49798">
        <ele>1255.9</ele>
        <time>2021-09-07T09:35:04Z</time>
      </trkpt>
      <trkpt lat="44.49193" lon="5.49797">
        <ele>1256</ele>
        <time>2021-09-07T09:35:05Z</time>
      </trkpt>
      <trkpt lat="44.49193" lon="5.49795">
        <ele>1256.3</ele>
        <time>2021-09-07T09:35:06Z</time>
      </trkpt>
      <trkpt lat="44.49192" lon="5.49792">
        <ele>1256.7</ele>
        <time>2021-09-07T09:35:07Z</time>
      </trkpt>
      <trkpt lat="44.49192" lon="5.49791">
        <ele>1256.8</ele>
        <time>2021-09-07T09:35:08Z</time>
      </trkpt>
      <trkpt lat="44.49191" lon="5.4979">
        <ele>1257</ele>
        <time>2021-09-07T09:35:09Z</time>
      </trkpt>
      <trkpt lat="44.49191" lon="5.49788">
        <ele>1257.2</ele>
        <time>2021-09-07T09:35:10Z</time>
      </trkpt>
      <trkpt lat="44.4919" lon="5.49787">
        <ele>1257.4</ele>
        <time>2021-09-07T09:35:11Z</time>
      </trkpt>
      <trkpt lat="44.4919" lon="5.49787">
        <ele>1257.4</ele>
        <time>2021-09-07T09:35:12Z</time>
      </trkpt>
      <trkpt lat="44.4919" lon="5.49787">
        <ele>1257.4</ele>
        <time>2021-09-07T09:35:13Z</time>
      </trkpt>
      <trkpt lat="44.4919" lon="5.49786">
        <ele>1257.5</ele>
        <time>2021-09-07T09:35:14Z</time>
      </trkpt>
      <trkpt lat="44.4919" lon="5.49786">
        <ele>1257.5</ele>
        <time>2021-09-07T09:35:15Z</time>
      </trkpt>
      <trkpt lat="44.4919" lon="5.49786">
        <ele>1257.5</ele>
        <time>2021-09-07T09:35:16Z</time>
      </trkpt>
      <trkpt lat="44.4919" lon="5.49786">
        <ele>1257.6</ele>
        <time>2021-09-07T09:35:17Z</time>
      </trkpt>
      <trkpt lat="44.49189" lon="5.49786">
        <ele>1257.7</ele>
        <time>2021-09-07T09:35:18Z</time>
      </trkpt>
      <trkpt lat="44.49189" lon="5.49786">
        <ele>1257.7</ele>
        <time>2021-09-07T09:35:19Z</time>
      </trkpt>
      <trkpt lat="44.49189" lon="5.49786">
        <ele>1257.7</ele>
        <time>2021-09-07T09:35:20Z</time>
      </trkpt>
      <trkpt lat="44.49189" lon="5.49786">
        <ele>1257.7</ele>
        <time>2021-09-07T09:35:21Z</time>
      </trkpt>
      <trkpt lat="44.49189" lon="5.49786">
        <ele>1257.7</ele>
        <time>2021-09-07T09:35:22Z</time>
      </trkpt>
      <trkpt lat="44.49189" lon="5.49786">
        <ele>1257.8</ele>
        <time>2021-09-07T09:35:23Z</time>
      </trkpt>
      <trkpt lat="44.49189" lon="5.49785">
        <ele>1257.8</ele>
        <time>2021-09-07T09:35:24Z</time>
      </trkpt>
      <trkpt lat="44.49189" lon="5.49785">
        <ele>1257.8</ele>
        <time>2021-09-07T09:35:25Z</time>
      </trkpt>
      <trkpt lat="44.49189" lon="5.49785">
        <ele>1257.8</ele>
        <time>2021-09-07T09:35:26Z</time>
      </trkpt>
      <trkpt lat="44.49189" lon="5.49785">
        <ele>1257.8</ele>
        <time>2021-09-07T09:35:27Z</time>
      </trkpt>
      <trkpt lat="44.49189" lon="5.49783">
        <ele>1258.1</ele>
        <time>2021-09-07T09:35:28Z</time>
      </trkpt>
      <trkpt lat="44.49189" lon="5.49782">
        <ele>1258.2</ele>
        <time>2021-09-07T09:35:29Z</time>
      </trkpt>
      <trkpt lat="44.49188" lon="5.49781">
        <ele>1258.4</ele>
        <time>2021-09-07T09:35:30Z</time>
      </trkpt>
      <trkpt lat="44.49187" lon="5.4978">
        <ele>1258.6</ele>
        <time>2021-09-07T09:35:31Z</time>
      </trkpt>
      <trkpt lat="44.49187" lon="5.49778">
        <ele>1258.8</ele>
        <time>2021-09-07T09:35:32Z</time>
      </trkpt>
      <trkpt lat="44.49187" lon="5.49777">
        <ele>1259</ele>
        <time>2021-09-07T09:35:33Z</time>
      </trkpt>
      <trkpt lat="44.49186" lon="5.49775">
        <ele>1259.2</ele>
        <time>2021-09-07T09:35:34Z</time>
      </trkpt>
      <trkpt lat="44.49186" lon="5.49774">
        <ele>1259.3</ele>
        <time>2021-09-07T09:35:35Z</time>
      </trkpt>
      <trkpt lat="44.49186" lon="5.49772">
        <ele>1259.6</ele>
        <time>2021-09-07T09:35:36Z</time>
      </trkpt>
      <trkpt lat="44.49186" lon="5.49772">
        <ele>1259.6</ele>
        <time>2021-09-07T09:35:37Z</time>
      </trkpt>
      <trkpt lat="44.49186" lon="5.49771">
        <ele>1259.7</ele>
        <time>2021-09-07T09:35:38Z</time>
      </trkpt>
      <trkpt lat="44.49186" lon="5.49771">
        <ele>1259.7</ele>
        <time>2021-09-07T09:35:39Z</time>
      </trkpt>
      <trkpt lat="44.49185" lon="5.49771">
        <ele>1259.9</ele>
        <time>2021-09-07T09:35:40Z</time>
      </trkpt>
      <trkpt lat="44.49186" lon="5.4977">
        <ele>1260</ele>
        <time>2021-09-07T09:35:41Z</time>
      </trkpt>
      <trkpt lat="44.49186" lon="5.49769">
        <ele>1260.1</ele>
        <time>2021-09-07T09:35:42Z</time>
      </trkpt>
      <trkpt lat="44.49186" lon="5.49766">
        <ele>1260.5</ele>
        <time>2021-09-07T09:35:43Z</time>
      </trkpt>
      <trkpt lat="44.49186" lon="5.49765">
        <ele>1260.6</ele>
        <time>2021-09-07T09:35:44Z</time>
      </trkpt>
      <trkpt lat="44.49187" lon="5.49764">
        <ele>1260.8</ele>
        <time>2021-09-07T09:35:45Z</time>
      </trkpt>
      <trkpt lat="44.49187" lon="5.49762">
        <ele>1261</ele>
        <time>2021-09-07T09:35:46Z</time>
      </trkpt>
      <trkpt lat="44.49187" lon="5.4976">
        <ele>1261.3</ele>
        <time>2021-09-07T09:35:47Z</time>
      </trkpt>
      <trkpt lat="44.49187" lon="5.49759">
        <ele>1261.4</ele>
        <time>2021-09-07T09:35:48Z</time>
      </trkpt>
      <trkpt lat="44.49187" lon="5.49757">
        <ele>1261.6</ele>
        <time>2021-09-07T09:35:49Z</time>
      </trkpt>
      <trkpt lat="44.49187" lon="5.49756">
        <ele>1261.7</ele>
        <time>2021-09-07T09:35:50Z</time>
      </trkpt>
      <trkpt lat="44.49187" lon="5.49755">
        <ele>1261.9</ele>
        <time>2021-09-07T09:35:51Z</time>
      </trkpt>
      <trkpt lat="44.49187" lon="5.49754">
        <ele>1262</ele>
        <time>2021-09-07T09:35:52Z</time>
      </trkpt>
      <trkpt lat="44.49187" lon="5.49754">
        <ele>1262.1</ele>
        <time>2021-09-07T09:35:53Z</time>
      </trkpt>
      <trkpt lat="44.49186" lon="5.49753">
        <ele>1262.2</ele>
        <time>2021-09-07T09:35:54Z</time>
      </trkpt>
      <trkpt lat="44.49186" lon="5.49753">
        <ele>1262.2</ele>
        <time>2021-09-07T09:35:55Z</time>
      </trkpt>
      <trkpt lat="44.49186" lon="5.49753">
        <ele>1262.2</ele>
        <time>2021-09-07T09:35:56Z</time>
      </trkpt>
      <trkpt lat="44.49186" lon="5.49752">
        <ele>1262.3</ele>
        <time>2021-09-07T09:35:57Z</time>
      </trkpt>
      <trkpt lat="44.49186" lon="5.49752">
        <ele>1262.3</ele>
        <time>2021-09-07T09:35:58Z</time>
      </trkpt>
      <trkpt lat="44.49185" lon="5.49752">
        <ele>1262.5</ele>
        <time>2021-09-07T09:35:59Z</time>
      </trkpt>
      <trkpt lat="44.49185" lon="5.49752">
        <ele>1262.5</ele>
        <time>2021-09-07T09:36:00Z</time>
      </trkpt>
      <trkpt lat="44.49185" lon="5.49752">
        <ele>1262.5</ele>
        <time>2021-09-07T09:36:01Z</time>
      </trkpt>
      <trkpt lat="44.49185" lon="5.49752">
        <ele>1262.5</ele>
        <time>2021-09-07T09:36:02Z</time>
      </trkpt>
      <trkpt lat="44.49185" lon="5.49751">
        <ele>1262.6</ele>
        <time>2021-09-07T09:36:03Z</time>
      </trkpt>
      <trkpt lat="44.49185" lon="5.49751">
        <ele>1262.6</ele>
        <time>2021-09-07T09:36:04Z</time>
      </trkpt>
      <trkpt lat="44.49185" lon="5.49751">
        <ele>1262.6</ele>
        <time>2021-09-07T09:36:05Z</time>
      </trkpt>
      <trkpt lat="44.49185" lon="5.49751">
        <ele>1262.6</ele>
        <time>2021-09-07T09:36:06Z</time>
      </trkpt>
      <trkpt lat="44.49185" lon="5.49751">
        <ele>1262.6</ele>
        <time>2021-09-07T09:36:07Z</time>
      </trkpt>
      <trkpt lat="44.49185" lon="5.49751">
        <ele>1262.7</ele>
        <time>2021-09-07T09:36:08Z</time>
      </trkpt>
      <trkpt lat="44.49185" lon="5.4975">
        <ele>1262.7</ele>
        <time>2021-09-07T09:36:09Z</time>
      </trkpt>
      <trkpt lat="44.49185" lon="5.4975">
        <ele>1262.7</ele>
        <time>2021-09-07T09:36:10Z</time>
      </trkpt>
      <trkpt lat="44.49185" lon="5.4975">
        <ele>1262.7</ele>
        <time>2021-09-07T09:36:11Z</time>
      </trkpt>
      <trkpt lat="44.49185" lon="5.4975">
        <ele>1262.7</ele>
        <time>2021-09-07T09:36:12Z</time>
      </trkpt>
      <trkpt lat="44.49185" lon="5.4975">
        <ele>1262.7</ele>
        <time>2021-09-07T09:36:13Z</time>
      </trkpt>
      <trkpt lat="44.49185" lon="5.4975">
        <ele>1262.7</ele>
        <time>2021-09-07T09:36:14Z</time>
      </trkpt>
      <trkpt lat="44.49185" lon="5.49749">
        <ele>1262.8</ele>
        <time>2021-09-07T09:36:15Z</time>
      </trkpt>
      <trkpt lat="44.49184" lon="5.49747">
        <ele>1263.1</ele>
        <time>2021-09-07T09:36:16Z</time>
      </trkpt>
      <trkpt lat="44.49184" lon="5.49745">
        <ele>1263.4</ele>
        <time>2021-09-07T09:36:17Z</time>
      </trkpt>
      <trkpt lat="44.49183" lon="5.49743">
        <ele>1263.6</ele>
        <time>2021-09-07T09:36:18Z</time>
      </trkpt>
      <trkpt lat="44.49183" lon="5.49742">
        <ele>1263.8</ele>
        <time>2021-09-07T09:36:19Z</time>
      </trkpt>
      <trkpt lat="44.49182" lon="5.4974">
        <ele>1264</ele>
        <time>2021-09-07T09:36:20Z</time>
      </trkpt>
      <trkpt lat="44.49182" lon="5.49739">
        <ele>1264.1</ele>
        <time>2021-09-07T09:36:21Z</time>
      </trkpt>
      <trkpt lat="44.49182" lon="5.49739">
        <ele>1264.1</ele>
        <time>2021-09-07T09:36:22Z</time>
      </trkpt>
      <trkpt lat="44.49182" lon="5.49739">
        <ele>1264.2</ele>
        <time>2021-09-07T09:36:23Z</time>
      </trkpt>
      <trkpt lat="44.49182" lon="5.49738">
        <ele>1264.3</ele>
        <time>2021-09-07T09:36:24Z</time>
      </trkpt>
      <trkpt lat="44.49182" lon="5.49738">
        <ele>1264.3</ele>
        <time>2021-09-07T09:36:25Z</time>
      </trkpt>
      <trkpt lat="44.49182" lon="5.49738">
        <ele>1264.3</ele>
        <time>2021-09-07T09:36:26Z</time>
      </trkpt>
      <trkpt lat="44.49181" lon="5.49737">
        <ele>1264.5</ele>
        <time>2021-09-07T09:36:27Z</time>
      </trkpt>
      <trkpt lat="44.49181" lon="5.49737">
        <ele>1264.5</ele>
        <time>2021-09-07T09:36:28Z</time>
      </trkpt>
      <trkpt lat="44.49181" lon="5.49737">
        <ele>1264.5</ele>
        <time>2021-09-07T09:36:29Z</time>
      </trkpt>
      <trkpt lat="44.49181" lon="5.49737">
        <ele>1264.5</ele>
        <time>2021-09-07T09:36:30Z</time>
      </trkpt>
      <trkpt lat="44.49181" lon="5.49737">
        <ele>1264.5</ele>
        <time>2021-09-07T09:36:31Z</time>
      </trkpt>
      <trkpt lat="44.49181" lon="5.49737">
        <ele>1264.5</ele>
        <time>2021-09-07T09:36:32Z</time>
      </trkpt>
      <trkpt lat="44.49181" lon="5.49737">
        <ele>1264.5</ele>
        <time>2021-09-07T09:36:33Z</time>
      </trkpt>
      <trkpt lat="44.49181" lon="5.49736">
        <ele>1264.6</ele>
        <time>2021-09-07T09:36:34Z</time>
      </trkpt>
      <trkpt lat="44.49181" lon="5.49736">
        <ele>1264.7</ele>
        <time>2021-09-07T09:36:35Z</time>
      </trkpt>
      <trkpt lat="44.4918" lon="5.49735">
        <ele>1264.8</ele>
        <time>2021-09-07T09:36:36Z</time>
      </trkpt>
      <trkpt lat="44.4918" lon="5.49735">
        <ele>1264.9</ele>
        <time>2021-09-07T09:36:37Z</time>
      </trkpt>
      <trkpt lat="44.4918" lon="5.49734">
        <ele>1264.9</ele>
        <time>2021-09-07T09:36:38Z</time>
      </trkpt>
      <trkpt lat="44.49179" lon="5.49734">
        <ele>1265.1</ele>
        <time>2021-09-07T09:36:39Z</time>
      </trkpt>
      <trkpt lat="44.49179" lon="5.49734">
        <ele>1265.1</ele>
        <time>2021-09-07T09:36:40Z</time>
      </trkpt>
      <trkpt lat="44.49179" lon="5.49734">
        <ele>1265.1</ele>
        <time>2021-09-07T09:36:41Z</time>
      </trkpt>
      <trkpt lat="44.49179" lon="5.49733">
        <ele>1265.2</ele>
        <time>2021-09-07T09:36:42Z</time>
      </trkpt>
      <trkpt lat="44.49178" lon="5.49733">
        <ele>1265.4</ele>
        <time>2021-09-07T09:36:43Z</time>
      </trkpt>
      <trkpt lat="44.49178" lon="5.49733">
        <ele>1265.4</ele>
        <time>2021-09-07T09:36:44Z</time>
      </trkpt>
      <trkpt lat="44.49178" lon="5.49733">
        <ele>1265.4</ele>
        <time>2021-09-07T09:36:45Z</time>
      </trkpt>
      <trkpt lat="44.49178" lon="5.49733">
        <ele>1265.4</ele>
        <time>2021-09-07T09:36:46Z</time>
      </trkpt>
      <trkpt lat="44.49178" lon="5.49732">
        <ele>1265.5</ele>
        <time>2021-09-07T09:36:47Z</time>
      </trkpt>
      <trkpt lat="44.49178" lon="5.49732">
        <ele>1265.5</ele>
        <time>2021-09-07T09:36:48Z</time>
      </trkpt>
      <trkpt lat="44.49178" lon="5.49732">
        <ele>1265.5</ele>
        <time>2021-09-07T09:36:49Z</time>
      </trkpt>
      <trkpt lat="44.49178" lon="5.49732">
        <ele>1265.5</ele>
        <time>2021-09-07T09:36:50Z</time>
      </trkpt>
      <trkpt lat="44.49179" lon="5.49731">
        <ele>1265.7</ele>
        <time>2021-09-07T09:36:51Z</time>
      </trkpt>
      <trkpt lat="44.49179" lon="5.4973">
        <ele>1265.8</ele>
        <time>2021-09-07T09:36:52Z</time>
      </trkpt>
      <trkpt lat="44.4918" lon="5.49727">
        <ele>1266.2</ele>
        <time>2021-09-07T09:36:53Z</time>
      </trkpt>
      <trkpt lat="44.49181" lon="5.49726">
        <ele>1266.4</ele>
        <time>2021-09-07T09:36:54Z</time>
      </trkpt>
      <trkpt lat="44.49181" lon="5.49724">
        <ele>1266.6</ele>
        <time>2021-09-07T09:36:55Z</time>
      </trkpt>
      <trkpt lat="44.49182" lon="5.49723">
        <ele>1266.8</ele>
        <time>2021-09-07T09:36:56Z</time>
      </trkpt>
      <trkpt lat="44.49182" lon="5.49722">
        <ele>1266.9</ele>
        <time>2021-09-07T09:36:57Z</time>
      </trkpt>
      <trkpt lat="44.49182" lon="5.49721">
        <ele>1267</ele>
        <time>2021-09-07T09:36:58Z</time>
      </trkpt>
      <trkpt lat="44.49182" lon="5.49721">
        <ele>1267.1</ele>
        <time>2021-09-07T09:36:59Z</time>
      </trkpt>
      <trkpt lat="44.49182" lon="5.4972">
        <ele>1267.1</ele>
        <time>2021-09-07T09:37:00Z</time>
      </trkpt>
      <trkpt lat="44.49182" lon="5.4972">
        <ele>1267.2</ele>
        <time>2021-09-07T09:37:01Z</time>
      </trkpt>
      <trkpt lat="44.49182" lon="5.49719">
        <ele>1267.3</ele>
        <time>2021-09-07T09:37:02Z</time>
      </trkpt>
      <trkpt lat="44.49182" lon="5.49719">
        <ele>1267.3</ele>
        <time>2021-09-07T09:37:03Z</time>
      </trkpt>
      <trkpt lat="44.49182" lon="5.49719">
        <ele>1267.3</ele>
        <time>2021-09-07T09:37:04Z</time>
      </trkpt>
      <trkpt lat="44.49182" lon="5.49719">
        <ele>1267.3</ele>
        <time>2021-09-07T09:37:05Z</time>
      </trkpt>
      <trkpt lat="44.49182" lon="5.49718">
        <ele>1267.4</ele>
        <time>2021-09-07T09:37:06Z</time>
      </trkpt>
      <trkpt lat="44.49183" lon="5.49718">
        <ele>1267.5</ele>
        <time>2021-09-07T09:37:07Z</time>
      </trkpt>
      <trkpt lat="44.49183" lon="5.49718">
        <ele>1267.6</ele>
        <time>2021-09-07T09:37:08Z</time>
      </trkpt>
      <trkpt lat="44.49183" lon="5.49718">
        <ele>1267.6</ele>
        <time>2021-09-07T09:37:09Z</time>
      </trkpt>
      <trkpt lat="44.49183" lon="5.49718">
        <ele>1267.6</ele>
        <time>2021-09-07T09:37:10Z</time>
      </trkpt>
      <trkpt lat="44.49183" lon="5.49717">
        <ele>1267.7</ele>
        <time>2021-09-07T09:37:11Z</time>
      </trkpt>
      <trkpt lat="44.49183" lon="5.49717">
        <ele>1267.7</ele>
        <time>2021-09-07T09:37:12Z</time>
      </trkpt>
      <trkpt lat="44.49183" lon="5.49717">
        <ele>1267.7</ele>
        <time>2021-09-07T09:37:13Z</time>
      </trkpt>
      <trkpt lat="44.49183" lon="5.49717">
        <ele>1267.7</ele>
        <time>2021-09-07T09:37:14Z</time>
      </trkpt>
      <trkpt lat="44.49183" lon="5.49717">
        <ele>1267.7</ele>
        <time>2021-09-07T09:37:15Z</time>
      </trkpt>
      <trkpt lat="44.49183" lon="5.49717">
        <ele>1267.7</ele>
        <time>2021-09-07T09:37:16Z</time>
      </trkpt>
      <trkpt lat="44.49183" lon="5.49717">
        <ele>1267.7</ele>
        <time>2021-09-07T09:37:17Z</time>
      </trkpt>
      <trkpt lat="44.49183" lon="5.49717">
        <ele>1267.7</ele>
        <time>2021-09-07T09:37:18Z</time>
      </trkpt>
      <trkpt lat="44.49183" lon="5.49717">
        <ele>1267.7</ele>
        <time>2021-09-07T09:37:19Z</time>
      </trkpt>
      <trkpt lat="44.49183" lon="5.49717">
        <ele>1267.7</ele>
        <time>2021-09-07T09:37:20Z</time>
      </trkpt>
      <trkpt lat="44.49183" lon="5.49717">
        <ele>1267.7</ele>
        <time>2021-09-07T09:37:21Z</time>
      </trkpt>
      <trkpt lat="44.49183" lon="5.49717">
        <ele>1267.7</ele>
        <time>2021-09-07T09:37:22Z</time>
      </trkpt>
      <trkpt lat="44.49183" lon="5.49717">
        <ele>1267.7</ele>
        <time>2021-09-07T09:37:23Z</time>
      </trkpt>
      <trkpt lat="44.49183" lon="5.49717">
        <ele>1267.7</ele>
        <time>2021-09-07T09:37:24Z</time>
      </trkpt>
      <trkpt lat="44.49183" lon="5.49717">
        <ele>1267.7</ele>
        <time>2021-09-07T09:37:25Z</time>
      </trkpt>
      <trkpt lat="44.49183" lon="5.49716">
        <ele>1267.8</ele>
        <time>2021-09-07T09:37:26Z</time>
      </trkpt>
      <trkpt lat="44.49183" lon="5.49714">
        <ele>1268</ele>
        <time>2021-09-07T09:37:27Z</time>
      </trkpt>
      <trkpt lat="44.49183" lon="5.49712">
        <ele>1268.3</ele>
        <time>2021-09-07T09:37:28Z</time>
      </trkpt>
      <trkpt lat="44.49183" lon="5.49711">
        <ele>1268.5</ele>
        <time>2021-09-07T09:37:29Z</time>
      </trkpt>
      <trkpt lat="44.49183" lon="5.49709">
        <ele>1268.6</ele>
        <time>2021-09-07T09:37:30Z</time>
      </trkpt>
      <trkpt lat="44.49183" lon="5.49707">
        <ele>1268.9</ele>
        <time>2021-09-07T09:37:31Z</time>
      </trkpt>
      <trkpt lat="44.49183" lon="5.49706">
        <ele>1269</ele>
        <time>2021-09-07T09:37:32Z</time>
      </trkpt>
      <trkpt lat="44.49183" lon="5.49705">
        <ele>1269.1</ele>
        <time>2021-09-07T09:37:33Z</time>
      </trkpt>
      <trkpt lat="44.49183" lon="5.49704">
        <ele>1269.2</ele>
        <time>2021-09-07T09:37:34Z</time>
      </trkpt>
      <trkpt lat="44.49184" lon="5.49704">
        <ele>1269.3</ele>
        <time>2021-09-07T09:37:35Z</time>
      </trkpt>
      <trkpt lat="44.49184" lon="5.49703">
        <ele>1269.4</ele>
        <time>2021-09-07T09:37:36Z</time>
      </trkpt>
      <trkpt lat="44.49184" lon="5.49703">
        <ele>1269.4</ele>
        <time>2021-09-07T09:37:37Z</time>
      </trkpt>
      <trkpt lat="44.49184" lon="5.49703">
        <ele>1269.5</ele>
        <time>2021-09-07T09:37:38Z</time>
      </trkpt>
      <trkpt lat="44.49184" lon="5.49702">
        <ele>1269.6</ele>
        <time>2021-09-07T09:37:39Z</time>
      </trkpt>
      <trkpt lat="44.49184" lon="5.49701">
        <ele>1269.8</ele>
        <time>2021-09-07T09:37:40Z</time>
      </trkpt>
      <trkpt lat="44.49183" lon="5.49699">
        <ele>1270</ele>
        <time>2021-09-07T09:37:41Z</time>
      </trkpt>
      <trkpt lat="44.49183" lon="5.49696">
        <ele>1270.3</ele>
        <time>2021-09-07T09:37:42Z</time>
      </trkpt>
      <trkpt lat="44.49183" lon="5.49695">
        <ele>1270.5</ele>
        <time>2021-09-07T09:37:43Z</time>
      </trkpt>
      <trkpt lat="44.49183" lon="5.49693">
        <ele>1270.7</ele>
        <time>2021-09-07T09:37:44Z</time>
      </trkpt>
      <trkpt lat="44.49183" lon="5.49692">
        <ele>1270.8</ele>
        <time>2021-09-07T09:37:45Z</time>
      </trkpt>
      <trkpt lat="44.49183" lon="5.49691">
        <ele>1270.9</ele>
        <time>2021-09-07T09:37:46Z</time>
      </trkpt>
      <trkpt lat="44.49183" lon="5.49691">
        <ele>1271</ele>
        <time>2021-09-07T09:37:47Z</time>
      </trkpt>
      <trkpt lat="44.49183" lon="5.4969">
        <ele>1271</ele>
        <time>2021-09-07T09:37:48Z</time>
      </trkpt>
      <trkpt lat="44.49183" lon="5.4969">
        <ele>1271</ele>
        <time>2021-09-07T09:37:49Z</time>
      </trkpt>
      <trkpt lat="44.49183" lon="5.4969">
        <ele>1271</ele>
        <time>2021-09-07T09:37:50Z</time>
      </trkpt>
      <trkpt lat="44.49183" lon="5.4969">
        <ele>1271.1</ele>
        <time>2021-09-07T09:37:51Z</time>
      </trkpt>
      <trkpt lat="44.49183" lon="5.49689">
        <ele>1271.2</ele>
        <time>2021-09-07T09:37:52Z</time>
      </trkpt>
      <trkpt lat="44.49183" lon="5.49689">
        <ele>1271.2</ele>
        <time>2021-09-07T09:37:53Z</time>
      </trkpt>
      <trkpt lat="44.49183" lon="5.49689">
        <ele>1271.2</ele>
        <time>2021-09-07T09:37:54Z</time>
      </trkpt>
      <trkpt lat="44.49183" lon="5.49689">
        <ele>1271.2</ele>
        <time>2021-09-07T09:37:55Z</time>
      </trkpt>
      <trkpt lat="44.49183" lon="5.49689">
        <ele>1271.2</ele>
        <time>2021-09-07T09:37:56Z</time>
      </trkpt>
      <trkpt lat="44.49183" lon="5.49689">
        <ele>1271.2</ele>
        <time>2021-09-07T09:37:57Z</time>
      </trkpt>
      <trkpt lat="44.49183" lon="5.49689">
        <ele>1271.2</ele>
        <time>2021-09-07T09:37:58Z</time>
      </trkpt>
      <trkpt lat="44.49183" lon="5.49689">
        <ele>1271.2</ele>
        <time>2021-09-07T09:37:59Z</time>
      </trkpt>
      <trkpt lat="44.49183" lon="5.49688">
        <ele>1271.3</ele>
        <time>2021-09-07T09:38:00Z</time>
      </trkpt>
      <trkpt lat="44.49183" lon="5.49688">
        <ele>1271.4</ele>
        <time>2021-09-07T09:38:01Z</time>
      </trkpt>
      <trkpt lat="44.49182" lon="5.49687">
        <ele>1271.5</ele>
        <time>2021-09-07T09:38:02Z</time>
      </trkpt>
      <trkpt lat="44.49183" lon="5.49686">
        <ele>1271.7</ele>
        <time>2021-09-07T09:38:03Z</time>
      </trkpt>
      <trkpt lat="44.49183" lon="5.49684">
        <ele>1271.9</ele>
        <time>2021-09-07T09:38:04Z</time>
      </trkpt>
      <trkpt lat="44.49183" lon="5.49683">
        <ele>1272</ele>
        <time>2021-09-07T09:38:05Z</time>
      </trkpt>
      <trkpt lat="44.49183" lon="5.49682">
        <ele>1272.2</ele>
        <time>2021-09-07T09:38:06Z</time>
      </trkpt>
      <trkpt lat="44.49183" lon="5.4968">
        <ele>1272.4</ele>
        <time>2021-09-07T09:38:07Z</time>
      </trkpt>
      <trkpt lat="44.49183" lon="5.49679">
        <ele>1272.6</ele>
        <time>2021-09-07T09:38:08Z</time>
      </trkpt>
      <trkpt lat="44.49183" lon="5.49677">
        <ele>1272.8</ele>
        <time>2021-09-07T09:38:09Z</time>
      </trkpt>
      <trkpt lat="44.49183" lon="5.49675">
        <ele>1273</ele>
        <time>2021-09-07T09:38:10Z</time>
      </trkpt>
      <trkpt lat="44.49183" lon="5.49673">
        <ele>1273.2</ele>
        <time>2021-09-07T09:38:11Z</time>
      </trkpt>
      <trkpt lat="44.49183" lon="5.49672">
        <ele>1273.4</ele>
        <time>2021-09-07T09:38:12Z</time>
      </trkpt>
      <trkpt lat="44.49183" lon="5.49672">
        <ele>1273.4</ele>
        <time>2021-09-07T09:38:13Z</time>
      </trkpt>
      <trkpt lat="44.49183" lon="5.49671">
        <ele>1273.5</ele>
        <time>2021-09-07T09:38:14Z</time>
      </trkpt>
      <trkpt lat="44.49183" lon="5.49671">
        <ele>1273.6</ele>
        <time>2021-09-07T09:38:15Z</time>
      </trkpt>
      <trkpt lat="44.49182" lon="5.4967">
        <ele>1273.7</ele>
        <time>2021-09-07T09:38:16Z</time>
      </trkpt>
      <trkpt lat="44.49182" lon="5.4967">
        <ele>1273.8</ele>
        <time>2021-09-07T09:38:17Z</time>
      </trkpt>
      <trkpt lat="44.49182" lon="5.49669">
        <ele>1273.8</ele>
        <time>2021-09-07T09:38:18Z</time>
      </trkpt>
      <trkpt lat="44.49182" lon="5.49669">
        <ele>1273.8</ele>
        <time>2021-09-07T09:38:19Z</time>
      </trkpt>
      <trkpt lat="44.49182" lon="5.49669">
        <ele>1273.8</ele>
        <time>2021-09-07T09:38:20Z</time>
      </trkpt>
      <trkpt lat="44.49182" lon="5.49669">
        <ele>1273.8</ele>
        <time>2021-09-07T09:38:21Z</time>
      </trkpt>
      <trkpt lat="44.49182" lon="5.49669">
        <ele>1273.8</ele>
        <time>2021-09-07T09:38:22Z</time>
      </trkpt>
      <trkpt lat="44.49182" lon="5.49669">
        <ele>1273.8</ele>
        <time>2021-09-07T09:38:23Z</time>
      </trkpt>
      <trkpt lat="44.49182" lon="5.49669">
        <ele>1273.8</ele>
        <time>2021-09-07T09:38:24Z</time>
      </trkpt>
      <trkpt lat="44.49182" lon="5.49669">
        <ele>1273.9</ele>
        <time>2021-09-07T09:38:25Z</time>
      </trkpt>
      <trkpt lat="44.49181" lon="5.49669">
        <ele>1274</ele>
        <time>2021-09-07T09:38:26Z</time>
      </trkpt>
      <trkpt lat="44.49181" lon="5.49669">
        <ele>1274</ele>
        <time>2021-09-07T09:38:27Z</time>
      </trkpt>
      <trkpt lat="44.49181" lon="5.49669">
        <ele>1274</ele>
        <time>2021-09-07T09:38:28Z</time>
      </trkpt>
      <trkpt lat="44.49181" lon="5.49668">
        <ele>1274.1</ele>
        <time>2021-09-07T09:38:29Z</time>
      </trkpt>
      <trkpt lat="44.49181" lon="5.49668">
        <ele>1274.1</ele>
        <time>2021-09-07T09:38:30Z</time>
      </trkpt>
      <trkpt lat="44.49181" lon="5.49668">
        <ele>1274.1</ele>
        <time>2021-09-07T09:38:31Z</time>
      </trkpt>
      <trkpt lat="44.49181" lon="5.49668">
        <ele>1274.1</ele>
        <time>2021-09-07T09:38:32Z</time>
      </trkpt>
      <trkpt lat="44.49181" lon="5.49668">
        <ele>1274.1</ele>
        <time>2021-09-07T09:38:33Z</time>
      </trkpt>
      <trkpt lat="44.49181" lon="5.49668">
        <ele>1274.1</ele>
        <time>2021-09-07T09:38:34Z</time>
      </trkpt>
      <trkpt lat="44.49181" lon="5.49668">
        <ele>1274.1</ele>
        <time>2021-09-07T09:38:35Z</time>
      </trkpt>
      <trkpt lat="44.49181" lon="5.49668">
        <ele>1274.1</ele>
        <time>2021-09-07T09:38:36Z</time>
      </trkpt>
      <trkpt lat="44.49181" lon="5.49668">
        <ele>1274.1</ele>
        <time>2021-09-07T09:38:37Z</time>
      </trkpt>
      <trkpt lat="44.49181" lon="5.49668">
        <ele>1274.1</ele>
        <time>2021-09-07T09:38:38Z</time>
      </trkpt>
      <trkpt lat="44.49181" lon="5.49668">
        <ele>1274.1</ele>
        <time>2021-09-07T09:38:39Z</time>
      </trkpt>
      <trkpt lat="44.49181" lon="5.49668">
        <ele>1274.1</ele>
        <time>2021-09-07T09:38:40Z</time>
      </trkpt>
      <trkpt lat="44.49181" lon="5.49668">
        <ele>1274.1</ele>
        <time>2021-09-07T09:38:41Z</time>
      </trkpt>
      <trkpt lat="44.49181" lon="5.49668">
        <ele>1274.1</ele>
        <time>2021-09-07T09:38:42Z</time>
      </trkpt>
      <trkpt lat="44.49181" lon="5.49668">
        <ele>1274.1</ele>
        <time>2021-09-07T09:38:43Z</time>
      </trkpt>
      <trkpt lat="44.49181" lon="5.49668">
        <ele>1274.1</ele>
        <time>2021-09-07T09:38:44Z</time>
      </trkpt>
      <trkpt lat="44.49181" lon="5.49668">
        <ele>1274.1</ele>
        <time>2021-09-07T09:38:45Z</time>
      </trkpt>
      <trkpt lat="44.49181" lon="5.49668">
        <ele>1274.2</ele>
        <time>2021-09-07T09:38:46Z</time>
      </trkpt>
      <trkpt lat="44.49181" lon="5.49667">
        <ele>1274.2</ele>
        <time>2021-09-07T09:38:47Z</time>
      </trkpt>
      <trkpt lat="44.49182" lon="5.49664">
        <ele>1274.6</ele>
        <time>2021-09-07T09:38:48Z</time>
      </trkpt>
      <trkpt lat="44.49181" lon="5.49661">
        <ele>1275</ele>
        <time>2021-09-07T09:38:49Z</time>
      </trkpt>
      <trkpt lat="44.49181" lon="5.49659">
        <ele>1275.3</ele>
        <time>2021-09-07T09:38:50Z</time>
      </trkpt>
      <trkpt lat="44.49181" lon="5.49659">
        <ele>1275.3</ele>
        <time>2021-09-07T09:38:51Z</time>
      </trkpt>
      <trkpt lat="44.49181" lon="5.49658">
        <ele>1275.4</ele>
        <time>2021-09-07T09:38:52Z</time>
      </trkpt>
      <trkpt lat="44.49181" lon="5.49656">
        <ele>1275.6</ele>
        <time>2021-09-07T09:38:53Z</time>
      </trkpt>
      <trkpt lat="44.49181" lon="5.49656">
        <ele>1275.7</ele>
        <time>2021-09-07T09:38:54Z</time>
      </trkpt>
      <trkpt lat="44.49181" lon="5.49655">
        <ele>1275.7</ele>
        <time>2021-09-07T09:38:55Z</time>
      </trkpt>
      <trkpt lat="44.49181" lon="5.49654">
        <ele>1275.9</ele>
        <time>2021-09-07T09:38:56Z</time>
      </trkpt>
      <trkpt lat="44.49181" lon="5.49653">
        <ele>1276</ele>
        <time>2021-09-07T09:38:57Z</time>
      </trkpt>
      <trkpt lat="44.49181" lon="5.49652">
        <ele>1276.1</ele>
        <time>2021-09-07T09:38:58Z</time>
      </trkpt>
      <trkpt lat="44.4918" lon="5.49651">
        <ele>1276.3</ele>
        <time>2021-09-07T09:38:59Z</time>
      </trkpt>
      <trkpt lat="44.49179" lon="5.49648">
        <ele>1276.7</ele>
        <time>2021-09-07T09:39:00Z</time>
      </trkpt>
      <trkpt lat="44.49178" lon="5.49647">
        <ele>1276.9</ele>
        <time>2021-09-07T09:39:01Z</time>
      </trkpt>
      <trkpt lat="44.49177" lon="5.49646">
        <ele>1277.1</ele>
        <time>2021-09-07T09:39:02Z</time>
      </trkpt>
      <trkpt lat="44.49176" lon="5.49644">
        <ele>1277.4</ele>
        <time>2021-09-07T09:39:03Z</time>
      </trkpt>
      <trkpt lat="44.49176" lon="5.49644">
        <ele>1277.5</ele>
        <time>2021-09-07T09:39:04Z</time>
      </trkpt>
      <trkpt lat="44.49175" lon="5.49643">
        <ele>1277.6</ele>
        <time>2021-09-07T09:39:05Z</time>
      </trkpt>
      <trkpt lat="44.49175" lon="5.49642">
        <ele>1277.7</ele>
        <time>2021-09-07T09:39:06Z</time>
      </trkpt>
      <trkpt lat="44.49175" lon="5.49642">
        <ele>1277.8</ele>
        <time>2021-09-07T09:39:07Z</time>
      </trkpt>
      <trkpt lat="44.49175" lon="5.49641">
        <ele>1277.8</ele>
        <time>2021-09-07T09:39:08Z</time>
      </trkpt>
      <trkpt lat="44.49175" lon="5.49641">
        <ele>1277.8</ele>
        <time>2021-09-07T09:39:09Z</time>
      </trkpt>
      <trkpt lat="44.49174" lon="5.49641">
        <ele>1278</ele>
        <time>2021-09-07T09:39:10Z</time>
      </trkpt>
      <trkpt lat="44.49174" lon="5.49641">
        <ele>1278</ele>
        <time>2021-09-07T09:39:11Z</time>
      </trkpt>
      <trkpt lat="44.49174" lon="5.4964">
        <ele>1278.1</ele>
        <time>2021-09-07T09:39:12Z</time>
      </trkpt>
      <trkpt lat="44.49174" lon="5.4964">
        <ele>1278.1</ele>
        <time>2021-09-07T09:39:13Z</time>
      </trkpt>
      <trkpt lat="44.49174" lon="5.4964">
        <ele>1278.1</ele>
        <time>2021-09-07T09:39:14Z</time>
      </trkpt>
      <trkpt lat="44.49175" lon="5.4964">
        <ele>1278.2</ele>
        <time>2021-09-07T09:39:15Z</time>
      </trkpt>
      <trkpt lat="44.49175" lon="5.49639">
        <ele>1278.3</ele>
        <time>2021-09-07T09:39:16Z</time>
      </trkpt>
      <trkpt lat="44.49175" lon="5.49639">
        <ele>1278.3</ele>
        <time>2021-09-07T09:39:17Z</time>
      </trkpt>
      <trkpt lat="44.49175" lon="5.49639">
        <ele>1278.3</ele>
        <time>2021-09-07T09:39:18Z</time>
      </trkpt>
      <trkpt lat="44.49175" lon="5.49639">
        <ele>1278.3</ele>
        <time>2021-09-07T09:39:19Z</time>
      </trkpt>
      <trkpt lat="44.49175" lon="5.49639">
        <ele>1278.3</ele>
        <time>2021-09-07T09:39:20Z</time>
      </trkpt>
      <trkpt lat="44.49175" lon="5.49639">
        <ele>1278.3</ele>
        <time>2021-09-07T09:39:21Z</time>
      </trkpt>
      <trkpt lat="44.49175" lon="5.49639">
        <ele>1278.3</ele>
        <time>2021-09-07T09:39:22Z</time>
      </trkpt>
      <trkpt lat="44.49175" lon="5.49639">
        <ele>1278.4</ele>
        <time>2021-09-07T09:39:23Z</time>
      </trkpt>
      <trkpt lat="44.49175" lon="5.49638">
        <ele>1278.4</ele>
        <time>2021-09-07T09:39:24Z</time>
      </trkpt>
      <trkpt lat="44.49175" lon="5.49639">
        <ele>1278.5</ele>
        <time>2021-09-07T09:39:25Z</time>
      </trkpt>
      <trkpt lat="44.49175" lon="5.49639">
        <ele>1278.5</ele>
        <time>2021-09-07T09:39:26Z</time>
      </trkpt>
      <trkpt lat="44.49175" lon="5.49639">
        <ele>1278.5</ele>
        <time>2021-09-07T09:39:27Z</time>
      </trkpt>
      <trkpt lat="44.49175" lon="5.49639">
        <ele>1278.5</ele>
        <time>2021-09-07T09:39:28Z</time>
      </trkpt>
      <trkpt lat="44.49175" lon="5.49639">
        <ele>1278.5</ele>
        <time>2021-09-07T09:39:29Z</time>
      </trkpt>
      <trkpt lat="44.49175" lon="5.49639">
        <ele>1278.5</ele>
        <time>2021-09-07T09:39:30Z</time>
      </trkpt>
      <trkpt lat="44.49175" lon="5.49639">
        <ele>1278.6</ele>
        <time>2021-09-07T09:39:31Z</time>
      </trkpt>
      <trkpt lat="44.49174" lon="5.49639">
        <ele>1278.7</ele>
        <time>2021-09-07T09:39:32Z</time>
      </trkpt>
      <trkpt lat="44.49174" lon="5.49638">
        <ele>1278.8</ele>
        <time>2021-09-07T09:39:33Z</time>
      </trkpt>
      <trkpt lat="44.49174" lon="5.49638">
        <ele>1278.8</ele>
        <time>2021-09-07T09:39:34Z</time>
      </trkpt>
      <trkpt lat="44.49174" lon="5.49638">
        <ele>1278.8</ele>
        <time>2021-09-07T09:39:35Z</time>
      </trkpt>
      <trkpt lat="44.49174" lon="5.49638">
        <ele>1278.8</ele>
        <time>2021-09-07T09:39:36Z</time>
      </trkpt>
      <trkpt lat="44.49174" lon="5.49638">
        <ele>1278.8</ele>
        <time>2021-09-07T09:39:37Z</time>
      </trkpt>
      <trkpt lat="44.49174" lon="5.49638">
        <ele>1278.8</ele>
        <time>2021-09-07T09:39:38Z</time>
      </trkpt>
      <trkpt lat="44.49174" lon="5.49638">
        <ele>1278.8</ele>
        <time>2021-09-07T09:39:39Z</time>
      </trkpt>
      <trkpt lat="44.49174" lon="5.49638">
        <ele>1278.8</ele>
        <time>2021-09-07T09:39:40Z</time>
      </trkpt>
      <trkpt lat="44.49174" lon="5.49638">
        <ele>1278.8</ele>
        <time>2021-09-07T09:39:41Z</time>
      </trkpt>
      <trkpt lat="44.49174" lon="5.49638">
        <ele>1278.9</ele>
        <time>2021-09-07T09:39:42Z</time>
      </trkpt>
      <trkpt lat="44.49174" lon="5.49637">
        <ele>1279</ele>
        <time>2021-09-07T09:39:43Z</time>
      </trkpt>
      <trkpt lat="44.49174" lon="5.49634">
        <ele>1279.3</ele>
        <time>2021-09-07T09:39:44Z</time>
      </trkpt>
      <trkpt lat="44.49174" lon="5.49633">
        <ele>1279.5</ele>
        <time>2021-09-07T09:39:45Z</time>
      </trkpt>
      <trkpt lat="44.49173" lon="5.49631">
        <ele>1279.7</ele>
        <time>2021-09-07T09:39:46Z</time>
      </trkpt>
      <trkpt lat="44.49173" lon="5.4963">
        <ele>1279.8</ele>
        <time>2021-09-07T09:39:47Z</time>
      </trkpt>
      <trkpt lat="44.49173" lon="5.49627">
        <ele>1280.2</ele>
        <time>2021-09-07T09:39:48Z</time>
      </trkpt>
      <trkpt lat="44.49173" lon="5.49626">
        <ele>1280.3</ele>
        <time>2021-09-07T09:39:49Z</time>
      </trkpt>
      <trkpt lat="44.49172" lon="5.49625">
        <ele>1280.5</ele>
        <time>2021-09-07T09:39:50Z</time>
      </trkpt>
      <trkpt lat="44.49172" lon="5.49625">
        <ele>1280.5</ele>
        <time>2021-09-07T09:39:51Z</time>
      </trkpt>
      <trkpt lat="44.49172" lon="5.49624">
        <ele>1280.6</ele>
        <time>2021-09-07T09:39:52Z</time>
      </trkpt>
      <trkpt lat="44.49172" lon="5.49624">
        <ele>1280.6</ele>
        <time>2021-09-07T09:39:53Z</time>
      </trkpt>
      <trkpt lat="44.49172" lon="5.49624">
        <ele>1280.6</ele>
        <time>2021-09-07T09:39:54Z</time>
      </trkpt>
      <trkpt lat="44.49172" lon="5.49623">
        <ele>1280.7</ele>
        <time>2021-09-07T09:39:55Z</time>
      </trkpt>
      <trkpt lat="44.49172" lon="5.49623">
        <ele>1280.7</ele>
        <time>2021-09-07T09:39:56Z</time>
      </trkpt>
      <trkpt lat="44.49172" lon="5.49623">
        <ele>1280.7</ele>
        <time>2021-09-07T09:39:57Z</time>
      </trkpt>
      <trkpt lat="44.49172" lon="5.49623">
        <ele>1280.7</ele>
        <time>2021-09-07T09:39:58Z</time>
      </trkpt>
      <trkpt lat="44.49172" lon="5.49623">
        <ele>1280.7</ele>
        <time>2021-09-07T09:39:59Z</time>
      </trkpt>
      <trkpt lat="44.49172" lon="5.49623">
        <ele>1280.7</ele>
        <time>2021-09-07T09:40:00Z</time>
      </trkpt>
      <trkpt lat="44.49172" lon="5.49623">
        <ele>1280.7</ele>
        <time>2021-09-07T09:40:01Z</time>
      </trkpt>
      <trkpt lat="44.49172" lon="5.49623">
        <ele>1280.7</ele>
        <time>2021-09-07T09:40:02Z</time>
      </trkpt>
      <trkpt lat="44.49172" lon="5.49622">
        <ele>1280.8</ele>
        <time>2021-09-07T09:40:03Z</time>
      </trkpt>
      <trkpt lat="44.49172" lon="5.49621">
        <ele>1281</ele>
        <time>2021-09-07T09:40:04Z</time>
      </trkpt>
      <trkpt lat="44.49172" lon="5.49619">
        <ele>1281.2</ele>
        <time>2021-09-07T09:40:05Z</time>
      </trkpt>
      <trkpt lat="44.49172" lon="5.49617">
        <ele>1281.5</ele>
        <time>2021-09-07T09:40:06Z</time>
      </trkpt>
      <trkpt lat="44.49172" lon="5.49614">
        <ele>1281.8</ele>
        <time>2021-09-07T09:40:07Z</time>
      </trkpt>
      <trkpt lat="44.49173" lon="5.49613">
        <ele>1282</ele>
        <time>2021-09-07T09:40:08Z</time>
      </trkpt>
      <trkpt lat="44.49173" lon="5.49611">
        <ele>1282.2</ele>
        <time>2021-09-07T09:40:09Z</time>
      </trkpt>
      <trkpt lat="44.49173" lon="5.4961">
        <ele>1282.3</ele>
        <time>2021-09-07T09:40:10Z</time>
      </trkpt>
      <trkpt lat="44.49173" lon="5.49609">
        <ele>1282.4</ele>
        <time>2021-09-07T09:40:11Z</time>
      </trkpt>
      <trkpt lat="44.49173" lon="5.49609">
        <ele>1282.5</ele>
        <time>2021-09-07T09:40:12Z</time>
      </trkpt>
      <trkpt lat="44.49173" lon="5.49608">
        <ele>1282.6</ele>
        <time>2021-09-07T09:40:13Z</time>
      </trkpt>
      <trkpt lat="44.49173" lon="5.49608">
        <ele>1282.6</ele>
        <time>2021-09-07T09:40:14Z</time>
      </trkpt>
      <trkpt lat="44.49173" lon="5.49608">
        <ele>1282.6</ele>
        <time>2021-09-07T09:40:15Z</time>
      </trkpt>
      <trkpt lat="44.49173" lon="5.49608">
        <ele>1282.6</ele>
        <time>2021-09-07T09:40:16Z</time>
      </trkpt>
      <trkpt lat="44.49173" lon="5.49608">
        <ele>1282.6</ele>
        <time>2021-09-07T09:40:17Z</time>
      </trkpt>
      <trkpt lat="44.49173" lon="5.49608">
        <ele>1282.6</ele>
        <time>2021-09-07T09:40:18Z</time>
      </trkpt>
      <trkpt lat="44.49173" lon="5.49608">
        <ele>1282.6</ele>
        <time>2021-09-07T09:40:19Z</time>
      </trkpt>
      <trkpt lat="44.49173" lon="5.49608">
        <ele>1282.6</ele>
        <time>2021-09-07T09:40:20Z</time>
      </trkpt>
      <trkpt lat="44.49173" lon="5.49608">
        <ele>1282.6</ele>
        <time>2021-09-07T09:40:21Z</time>
      </trkpt>
      <trkpt lat="44.49173" lon="5.49608">
        <ele>1282.6</ele>
        <time>2021-09-07T09:40:22Z</time>
      </trkpt>
      <trkpt lat="44.49173" lon="5.49608">
        <ele>1282.6</ele>
        <time>2021-09-07T09:40:23Z</time>
      </trkpt>
      <trkpt lat="44.49173" lon="5.49608">
        <ele>1282.6</ele>
        <time>2021-09-07T09:40:24Z</time>
      </trkpt>
      <trkpt lat="44.49173" lon="5.49608">
        <ele>1282.6</ele>
        <time>2021-09-07T09:40:25Z</time>
      </trkpt>
      <trkpt lat="44.49173" lon="5.49608">
        <ele>1282.6</ele>
        <time>2021-09-07T09:40:26Z</time>
      </trkpt>
      <trkpt lat="44.49173" lon="5.49608">
        <ele>1282.6</ele>
        <time>2021-09-07T09:40:27Z</time>
      </trkpt>
      <trkpt lat="44.49173" lon="5.49608">
        <ele>1282.6</ele>
        <time>2021-09-07T09:40:28Z</time>
      </trkpt>
      <trkpt lat="44.49173" lon="5.49608">
        <ele>1282.6</ele>
        <time>2021-09-07T09:40:29Z</time>
      </trkpt>
      <trkpt lat="44.49172" lon="5.49608">
        <ele>1282.7</ele>
        <time>2021-09-07T09:40:30Z</time>
      </trkpt>
      <trkpt lat="44.49172" lon="5.49608">
        <ele>1282.7</ele>
        <time>2021-09-07T09:40:31Z</time>
      </trkpt>
      <trkpt lat="44.49173" lon="5.49607">
        <ele>1282.9</ele>
        <time>2021-09-07T09:40:32Z</time>
      </trkpt>
      <trkpt lat="44.49173" lon="5.49607">
        <ele>1282.9</ele>
        <time>2021-09-07T09:40:33Z</time>
      </trkpt>
      <trkpt lat="44.49173" lon="5.49607">
        <ele>1282.9</ele>
        <time>2021-09-07T09:40:34Z</time>
      </trkpt>
      <trkpt lat="44.49173" lon="5.49607">
        <ele>1282.9</ele>
        <time>2021-09-07T09:40:35Z</time>
      </trkpt>
      <trkpt lat="44.49173" lon="5.49607">
        <ele>1282.9</ele>
        <time>2021-09-07T09:40:36Z</time>
      </trkpt>
      <trkpt lat="44.49173" lon="5.49607">
        <ele>1282.9</ele>
        <time>2021-09-07T09:40:37Z</time>
      </trkpt>
      <trkpt lat="44.49173" lon="5.49607">
        <ele>1282.9</ele>
        <time>2021-09-07T09:40:38Z</time>
      </trkpt>
      <trkpt lat="44.49173" lon="5.49607">
        <ele>1282.9</ele>
        <time>2021-09-07T09:40:39Z</time>
      </trkpt>
      <trkpt lat="44.49173" lon="5.49607">
        <ele>1282.9</ele>
        <time>2021-09-07T09:40:40Z</time>
      </trkpt>
      <trkpt lat="44.49173" lon="5.49607">
        <ele>1283</ele>
        <time>2021-09-07T09:40:41Z</time>
      </trkpt>
      <trkpt lat="44.49173" lon="5.49606">
        <ele>1283</ele>
        <time>2021-09-07T09:40:42Z</time>
      </trkpt>
      <trkpt lat="44.49173" lon="5.49606">
        <ele>1283</ele>
        <time>2021-09-07T09:40:43Z</time>
      </trkpt>
      <trkpt lat="44.49173" lon="5.49606">
        <ele>1283</ele>
        <time>2021-09-07T09:40:44Z</time>
      </trkpt>
      <trkpt lat="44.49173" lon="5.49606">
        <ele>1283</ele>
        <time>2021-09-07T09:40:45Z</time>
      </trkpt>
      <trkpt lat="44.49173" lon="5.49606">
        <ele>1283</ele>
        <time>2021-09-07T09:40:46Z</time>
      </trkpt>
      <trkpt lat="44.49173" lon="5.49606">
        <ele>1283</ele>
        <time>2021-09-07T09:40:47Z</time>
      </trkpt>
      <trkpt lat="44.49173" lon="5.49606">
        <ele>1283</ele>
        <time>2021-09-07T09:40:48Z</time>
      </trkpt>
      <trkpt lat="44.49173" lon="5.49606">
        <ele>1283</ele>
        <time>2021-09-07T09:40:49Z</time>
      </trkpt>
      <trkpt lat="44.49173" lon="5.49606">
        <ele>1283</ele>
        <time>2021-09-07T09:40:50Z</time>
      </trkpt>
      <trkpt lat="44.49173" lon="5.49606">
        <ele>1283</ele>
        <time>2021-09-07T09:40:51Z</time>
      </trkpt>
      <trkpt lat="44.49171" lon="5.49606">
        <ele>1283.4</ele>
        <time>2021-09-07T09:40:52Z</time>
      </trkpt>
      <trkpt lat="44.4917" lon="5.49606">
        <ele>1283.6</ele>
        <time>2021-09-07T09:40:53Z</time>
      </trkpt>
      <trkpt lat="44.49169" lon="5.49605">
        <ele>1283.7</ele>
        <time>2021-09-07T09:40:54Z</time>
      </trkpt>
      <trkpt lat="44.49168" lon="5.49604">
        <ele>1283.9</ele>
        <time>2021-09-07T09:40:55Z</time>
      </trkpt>
      <trkpt lat="44.49167" lon="5.49603">
        <ele>1284.2</ele>
        <time>2021-09-07T09:40:56Z</time>
      </trkpt>
      <trkpt lat="44.49166" lon="5.49602">
        <ele>1284.4</ele>
        <time>2021-09-07T09:40:57Z</time>
      </trkpt>
      <trkpt lat="44.49166" lon="5.49602">
        <ele>1284.5</ele>
        <time>2021-09-07T09:40:58Z</time>
      </trkpt>
      <trkpt lat="44.49165" lon="5.49601">
        <ele>1284.6</ele>
        <time>2021-09-07T09:40:59Z</time>
      </trkpt>
      <trkpt lat="44.49165" lon="5.49601">
        <ele>1284.7</ele>
        <time>2021-09-07T09:41:00Z</time>
      </trkpt>
      <trkpt lat="44.49164" lon="5.496">
        <ele>1284.8</ele>
        <time>2021-09-07T09:41:01Z</time>
      </trkpt>
      <trkpt lat="44.49163" lon="5.496">
        <ele>1284.9</ele>
        <time>2021-09-07T09:41:02Z</time>
      </trkpt>
      <trkpt lat="44.49163" lon="5.496">
        <ele>1284.9</ele>
        <time>2021-09-07T09:41:03Z</time>
      </trkpt>
      <trkpt lat="44.49163" lon="5.496">
        <ele>1284.9</ele>
        <time>2021-09-07T09:41:04Z</time>
      </trkpt>
      <trkpt lat="44.49163" lon="5.496">
        <ele>1285</ele>
        <time>2021-09-07T09:41:05Z</time>
      </trkpt>
      <trkpt lat="44.49163" lon="5.49599">
        <ele>1285.1</ele>
        <time>2021-09-07T09:41:06Z</time>
      </trkpt>
      <trkpt lat="44.49163" lon="5.49599">
        <ele>1285.1</ele>
        <time>2021-09-07T09:41:07Z</time>
      </trkpt>
      <trkpt lat="44.49163" lon="5.49599">
        <ele>1285.1</ele>
        <time>2021-09-07T09:41:08Z</time>
      </trkpt>
      <trkpt lat="44.49163" lon="5.49599">
        <ele>1285.1</ele>
        <time>2021-09-07T09:41:09Z</time>
      </trkpt>
      <trkpt lat="44.49163" lon="5.49599">
        <ele>1285.1</ele>
        <time>2021-09-07T09:41:10Z</time>
      </trkpt>
      <trkpt lat="44.49163" lon="5.49599">
        <ele>1285.1</ele>
        <time>2021-09-07T09:41:11Z</time>
      </trkpt>
      <trkpt lat="44.49163" lon="5.49599">
        <ele>1285.1</ele>
        <time>2021-09-07T09:41:12Z</time>
      </trkpt>
      <trkpt lat="44.49163" lon="5.49599">
        <ele>1285.1</ele>
        <time>2021-09-07T09:41:13Z</time>
      </trkpt>
      <trkpt lat="44.49163" lon="5.49599">
        <ele>1285.1</ele>
        <time>2021-09-07T09:41:14Z</time>
      </trkpt>
      <trkpt lat="44.49163" lon="5.49599">
        <ele>1285.1</ele>
        <time>2021-09-07T09:41:15Z</time>
      </trkpt>
      <trkpt lat="44.49162" lon="5.49599">
        <ele>1285.2</ele>
        <time>2021-09-07T09:41:16Z</time>
      </trkpt>
      <trkpt lat="44.49162" lon="5.49599">
        <ele>1285.2</ele>
        <time>2021-09-07T09:41:17Z</time>
      </trkpt>
      <trkpt lat="44.49162" lon="5.49599">
        <ele>1285.2</ele>
        <time>2021-09-07T09:41:18Z</time>
      </trkpt>
      <trkpt lat="44.49162" lon="5.49599">
        <ele>1285.2</ele>
        <time>2021-09-07T09:41:19Z</time>
      </trkpt>
      <trkpt lat="44.49162" lon="5.49599">
        <ele>1285.2</ele>
        <time>2021-09-07T09:41:20Z</time>
      </trkpt>
      <trkpt lat="44.49162" lon="5.49599">
        <ele>1285.3</ele>
        <time>2021-09-07T09:41:21Z</time>
      </trkpt>
      <trkpt lat="44.49162" lon="5.49598">
        <ele>1285.3</ele>
        <time>2021-09-07T09:41:22Z</time>
      </trkpt>
      <trkpt lat="44.49161" lon="5.49596">
        <ele>1285.6</ele>
        <time>2021-09-07T09:41:23Z</time>
      </trkpt>
      <trkpt lat="44.4916" lon="5.49593">
        <ele>1286</ele>
        <time>2021-09-07T09:41:24Z</time>
      </trkpt>
      <trkpt lat="44.4916" lon="5.49592">
        <ele>1286.2</ele>
        <time>2021-09-07T09:41:25Z</time>
      </trkpt>
      <trkpt lat="44.49159" lon="5.4959">
        <ele>1286.4</ele>
        <time>2021-09-07T09:41:26Z</time>
      </trkpt>
      <trkpt lat="44.49159" lon="5.49588">
        <ele>1286.7</ele>
        <time>2021-09-07T09:41:27Z</time>
      </trkpt>
      <trkpt lat="44.49158" lon="5.49586">
        <ele>1287</ele>
        <time>2021-09-07T09:41:28Z</time>
      </trkpt>
      <trkpt lat="44.49158" lon="5.49585">
        <ele>1287.1</ele>
        <time>2021-09-07T09:41:29Z</time>
      </trkpt>
      <trkpt lat="44.49158" lon="5.49583">
        <ele>1287.3</ele>
        <time>2021-09-07T09:41:30Z</time>
      </trkpt>
      <trkpt lat="44.49157" lon="5.49582">
        <ele>1287.5</ele>
        <time>2021-09-07T09:41:31Z</time>
      </trkpt>
      <trkpt lat="44.49157" lon="5.49582">
        <ele>1287.5</ele>
        <time>2021-09-07T09:41:32Z</time>
      </trkpt>
      <trkpt lat="44.49157" lon="5.49582">
        <ele>1287.5</ele>
        <time>2021-09-07T09:41:33Z</time>
      </trkpt>
      <trkpt lat="44.49157" lon="5.49581">
        <ele>1287.7</ele>
        <time>2021-09-07T09:41:34Z</time>
      </trkpt>
      <trkpt lat="44.49157" lon="5.49581">
        <ele>1287.7</ele>
        <time>2021-09-07T09:41:35Z</time>
      </trkpt>
      <trkpt lat="44.49157" lon="5.49581">
        <ele>1287.7</ele>
        <time>2021-09-07T09:41:36Z</time>
      </trkpt>
      <trkpt lat="44.49156" lon="5.49581">
        <ele>1287.8</ele>
        <time>2021-09-07T09:41:37Z</time>
      </trkpt>
      <trkpt lat="44.49156" lon="5.49581">
        <ele>1287.8</ele>
        <time>2021-09-07T09:41:38Z</time>
      </trkpt>
      <trkpt lat="44.49156" lon="5.49581">
        <ele>1287.8</ele>
        <time>2021-09-07T09:41:39Z</time>
      </trkpt>
      <trkpt lat="44.49156" lon="5.49581">
        <ele>1287.8</ele>
        <time>2021-09-07T09:41:40Z</time>
      </trkpt>
      <trkpt lat="44.49156" lon="5.4958">
        <ele>1287.9</ele>
        <time>2021-09-07T09:41:41Z</time>
      </trkpt>
      <trkpt lat="44.49156" lon="5.4958">
        <ele>1287.9</ele>
        <time>2021-09-07T09:41:42Z</time>
      </trkpt>
      <trkpt lat="44.49156" lon="5.4958">
        <ele>1287.9</ele>
        <time>2021-09-07T09:41:43Z</time>
      </trkpt>
      <trkpt lat="44.49156" lon="5.4958">
        <ele>1287.9</ele>
        <time>2021-09-07T09:41:44Z</time>
      </trkpt>
      <trkpt lat="44.49156" lon="5.4958">
        <ele>1287.9</ele>
        <time>2021-09-07T09:41:45Z</time>
      </trkpt>
      <trkpt lat="44.49156" lon="5.4958">
        <ele>1287.9</ele>
        <time>2021-09-07T09:41:46Z</time>
      </trkpt>
      <trkpt lat="44.49156" lon="5.4958">
        <ele>1287.9</ele>
        <time>2021-09-07T09:41:47Z</time>
      </trkpt>
      <trkpt lat="44.49156" lon="5.4958">
        <ele>1287.9</ele>
        <time>2021-09-07T09:41:48Z</time>
      </trkpt>
      <trkpt lat="44.49156" lon="5.4958">
        <ele>1287.9</ele>
        <time>2021-09-07T09:41:49Z</time>
      </trkpt>
      <trkpt lat="44.49156" lon="5.4958">
        <ele>1287.9</ele>
        <time>2021-09-07T09:41:50Z</time>
      </trkpt>
      <trkpt lat="44.49155" lon="5.49579">
        <ele>1288.1</ele>
        <time>2021-09-07T09:41:51Z</time>
      </trkpt>
      <trkpt lat="44.49155" lon="5.49578">
        <ele>1288.3</ele>
        <time>2021-09-07T09:41:52Z</time>
      </trkpt>
      <trkpt lat="44.49155" lon="5.49576">
        <ele>1288.5</ele>
        <time>2021-09-07T09:41:53Z</time>
      </trkpt>
      <trkpt lat="44.49154" lon="5.49574">
        <ele>1288.8</ele>
        <time>2021-09-07T09:41:54Z</time>
      </trkpt>
      <trkpt lat="44.49154" lon="5.49573">
        <ele>1288.9</ele>
        <time>2021-09-07T09:41:55Z</time>
      </trkpt>
      <trkpt lat="44.49154" lon="5.49572">
        <ele>1289</ele>
        <time>2021-09-07T09:41:56Z</time>
      </trkpt>
      <trkpt lat="44.49153" lon="5.49571">
        <ele>1289.2</ele>
        <time>2021-09-07T09:41:57Z</time>
      </trkpt>
      <trkpt lat="44.49153" lon="5.4957">
        <ele>1289.3</ele>
        <time>2021-09-07T09:41:58Z</time>
      </trkpt>
      <trkpt lat="44.49153" lon="5.4957">
        <ele>1289.4</ele>
        <time>2021-09-07T09:41:59Z</time>
      </trkpt>
      <trkpt lat="44.49152" lon="5.49569">
        <ele>1289.5</ele>
        <time>2021-09-07T09:42:00Z</time>
      </trkpt>
      <trkpt lat="44.49152" lon="5.49569">
        <ele>1289.5</ele>
        <time>2021-09-07T09:42:01Z</time>
      </trkpt>
      <trkpt lat="44.49152" lon="5.49568">
        <ele>1289.7</ele>
        <time>2021-09-07T09:42:02Z</time>
      </trkpt>
      <trkpt lat="44.49152" lon="5.49568">
        <ele>1289.7</ele>
        <time>2021-09-07T09:42:03Z</time>
      </trkpt>
      <trkpt lat="44.49152" lon="5.49568">
        <ele>1289.7</ele>
        <time>2021-09-07T09:42:04Z</time>
      </trkpt>
      <trkpt lat="44.49152" lon="5.49568">
        <ele>1289.8</ele>
        <time>2021-09-07T09:42:05Z</time>
      </trkpt>
      <trkpt lat="44.49151" lon="5.49567">
        <ele>1289.9</ele>
        <time>2021-09-07T09:42:06Z</time>
      </trkpt>
      <trkpt lat="44.49151" lon="5.49567">
        <ele>1289.9</ele>
        <time>2021-09-07T09:42:07Z</time>
      </trkpt>
      <trkpt lat="44.49151" lon="5.49567">
        <ele>1289.9</ele>
        <time>2021-09-07T09:42:08Z</time>
      </trkpt>
      <trkpt lat="44.49151" lon="5.49567">
        <ele>1289.9</ele>
        <time>2021-09-07T09:42:09Z</time>
      </trkpt>
      <trkpt lat="44.49151" lon="5.49567">
        <ele>1289.9</ele>
        <time>2021-09-07T09:42:10Z</time>
      </trkpt>
      <trkpt lat="44.49151" lon="5.49567">
        <ele>1290</ele>
        <time>2021-09-07T09:42:11Z</time>
      </trkpt>
      <trkpt lat="44.4915" lon="5.49567">
        <ele>1290</ele>
        <time>2021-09-07T09:42:12Z</time>
      </trkpt>
      <trkpt lat="44.4915" lon="5.49567">
        <ele>1290.1</ele>
        <time>2021-09-07T09:42:13Z</time>
      </trkpt>
      <trkpt lat="44.49149" lon="5.49567">
        <ele>1290.2</ele>
        <time>2021-09-07T09:42:14Z</time>
      </trkpt>
      <trkpt lat="44.49148" lon="5.49567">
        <ele>1290.4</ele>
        <time>2021-09-07T09:42:15Z</time>
      </trkpt>
      <trkpt lat="44.49147" lon="5.49567">
        <ele>1290.5</ele>
        <time>2021-09-07T09:42:16Z</time>
      </trkpt>
      <trkpt lat="44.49147" lon="5.49567">
        <ele>1290.6</ele>
        <time>2021-09-07T09:42:17Z</time>
      </trkpt>
      <trkpt lat="44.49146" lon="5.49567">
        <ele>1290.7</ele>
        <time>2021-09-07T09:42:18Z</time>
      </trkpt>
      <trkpt lat="44.49145" lon="5.49567">
        <ele>1290.9</ele>
        <time>2021-09-07T09:42:19Z</time>
      </trkpt>
      <trkpt lat="44.49144" lon="5.49567">
        <ele>1291</ele>
        <time>2021-09-07T09:42:20Z</time>
      </trkpt>
      <trkpt lat="44.49144" lon="5.49567">
        <ele>1291.1</ele>
        <time>2021-09-07T09:42:21Z</time>
      </trkpt>
      <trkpt lat="44.49143" lon="5.49567">
        <ele>1291.2</ele>
        <time>2021-09-07T09:42:22Z</time>
      </trkpt>
      <trkpt lat="44.49143" lon="5.49567">
        <ele>1291.2</ele>
        <time>2021-09-07T09:42:23Z</time>
      </trkpt>
      <trkpt lat="44.49142" lon="5.49567">
        <ele>1291.4</ele>
        <time>2021-09-07T09:42:24Z</time>
      </trkpt>
      <trkpt lat="44.49142" lon="5.49567">
        <ele>1291.4</ele>
        <time>2021-09-07T09:42:25Z</time>
      </trkpt>
      <trkpt lat="44.49142" lon="5.49567">
        <ele>1291.5</ele>
        <time>2021-09-07T09:42:26Z</time>
      </trkpt>
      <trkpt lat="44.49141" lon="5.49567">
        <ele>1291.6</ele>
        <time>2021-09-07T09:42:27Z</time>
      </trkpt>
      <trkpt lat="44.49141" lon="5.49567">
        <ele>1291.6</ele>
        <time>2021-09-07T09:42:28Z</time>
      </trkpt>
      <trkpt lat="44.49141" lon="5.49568">
        <ele>1291.6</ele>
        <time>2021-09-07T09:42:29Z</time>
      </trkpt>
      <trkpt lat="44.49141" lon="5.49568">
        <ele>1291.7</ele>
        <time>2021-09-07T09:42:30Z</time>
      </trkpt>
      <trkpt lat="44.49141" lon="5.49568">
        <ele>1291.7</ele>
        <time>2021-09-07T09:42:31Z</time>
      </trkpt>
      <trkpt lat="44.49141" lon="5.49568">
        <ele>1291.7</ele>
        <time>2021-09-07T09:42:32Z</time>
      </trkpt>
      <trkpt lat="44.49141" lon="5.49567">
        <ele>1291.8</ele>
        <time>2021-09-07T09:42:33Z</time>
      </trkpt>
      <trkpt lat="44.49141" lon="5.49567">
        <ele>1291.8</ele>
        <time>2021-09-07T09:42:34Z</time>
      </trkpt>
      <trkpt lat="44.49141" lon="5.49568">
        <ele>1291.9</ele>
        <time>2021-09-07T09:42:35Z</time>
      </trkpt>
      <trkpt lat="44.49141" lon="5.49568">
        <ele>1291.9</ele>
        <time>2021-09-07T09:42:36Z</time>
      </trkpt>
      <trkpt lat="44.49141" lon="5.49568">
        <ele>1291.9</ele>
        <time>2021-09-07T09:42:37Z</time>
      </trkpt>
      <trkpt lat="44.49141" lon="5.49568">
        <ele>1291.9</ele>
        <time>2021-09-07T09:42:38Z</time>
      </trkpt>
      <trkpt lat="44.49141" lon="5.49568">
        <ele>1291.9</ele>
        <time>2021-09-07T09:42:39Z</time>
      </trkpt>
      <trkpt lat="44.49141" lon="5.49568">
        <ele>1291.9</ele>
        <time>2021-09-07T09:42:40Z</time>
      </trkpt>
      <trkpt lat="44.49141" lon="5.49568">
        <ele>1291.9</ele>
        <time>2021-09-07T09:42:41Z</time>
      </trkpt>
      <trkpt lat="44.49141" lon="5.49568">
        <ele>1291.9</ele>
        <time>2021-09-07T09:42:42Z</time>
      </trkpt>
      <trkpt lat="44.49141" lon="5.49568">
        <ele>1291.9</ele>
        <time>2021-09-07T09:42:43Z</time>
      </trkpt>
      <trkpt lat="44.49141" lon="5.49568">
        <ele>1291.9</ele>
        <time>2021-09-07T09:42:44Z</time>
      </trkpt>
      <trkpt lat="44.4914" lon="5.49568">
        <ele>1292.1</ele>
        <time>2021-09-07T09:42:45Z</time>
      </trkpt>
      <trkpt lat="44.4914" lon="5.49569">
        <ele>1292.1</ele>
        <time>2021-09-07T09:42:46Z</time>
      </trkpt>
      <trkpt lat="44.4914" lon="5.49569">
        <ele>1292.2</ele>
        <time>2021-09-07T09:42:47Z</time>
      </trkpt>
      <trkpt lat="44.4914" lon="5.49569">
        <ele>1292.2</ele>
        <time>2021-09-07T09:42:48Z</time>
      </trkpt>
      <trkpt lat="44.4914" lon="5.49569">
        <ele>1292.2</ele>
        <time>2021-09-07T09:42:49Z</time>
      </trkpt>
      <trkpt lat="44.4914" lon="5.49569">
        <ele>1292.2</ele>
        <time>2021-09-07T09:42:50Z</time>
      </trkpt>
      <trkpt lat="44.4914" lon="5.49569">
        <ele>1292.2</ele>
        <time>2021-09-07T09:42:51Z</time>
      </trkpt>
      <trkpt lat="44.4914" lon="5.4957">
        <ele>1292.3</ele>
        <time>2021-09-07T09:42:52Z</time>
      </trkpt>
      <trkpt lat="44.4914" lon="5.4957">
        <ele>1292.3</ele>
        <time>2021-09-07T09:42:53Z</time>
      </trkpt>
      <trkpt lat="44.4914" lon="5.4957">
        <ele>1292.3</ele>
        <time>2021-09-07T09:42:54Z</time>
      </trkpt>
      <trkpt lat="44.4914" lon="5.4957">
        <ele>1292.3</ele>
        <time>2021-09-07T09:42:55Z</time>
      </trkpt>
      <trkpt lat="44.4914" lon="5.4957">
        <ele>1292.3</ele>
        <time>2021-09-07T09:42:56Z</time>
      </trkpt>
      <trkpt lat="44.49139" lon="5.4957">
        <ele>1292.5</ele>
        <time>2021-09-07T09:42:57Z</time>
      </trkpt>
      <trkpt lat="44.49139" lon="5.4957">
        <ele>1292.5</ele>
        <time>2021-09-07T09:42:58Z</time>
      </trkpt>
      <trkpt lat="44.49139" lon="5.4957">
        <ele>1292.5</ele>
        <time>2021-09-07T09:42:59Z</time>
      </trkpt>
      <trkpt lat="44.49139" lon="5.4957">
        <ele>1292.5</ele>
        <time>2021-09-07T09:43:00Z</time>
      </trkpt>
      <trkpt lat="44.49139" lon="5.4957">
        <ele>1292.5</ele>
        <time>2021-09-07T09:43:01Z</time>
      </trkpt>
      <trkpt lat="44.49139" lon="5.4957">
        <ele>1292.5</ele>
        <time>2021-09-07T09:43:02Z</time>
      </trkpt>
      <trkpt lat="44.49139" lon="5.4957">
        <ele>1292.5</ele>
        <time>2021-09-07T09:43:03Z</time>
      </trkpt>
      <trkpt lat="44.49139" lon="5.4957">
        <ele>1292.5</ele>
        <time>2021-09-07T09:43:04Z</time>
      </trkpt>
      <trkpt lat="44.49139" lon="5.4957">
        <ele>1292.5</ele>
        <time>2021-09-07T09:43:05Z</time>
      </trkpt>
      <trkpt lat="44.49139" lon="5.4957">
        <ele>1292.5</ele>
        <time>2021-09-07T09:43:06Z</time>
      </trkpt>
      <trkpt lat="44.49139" lon="5.4957">
        <ele>1292.5</ele>
        <time>2021-09-07T09:43:07Z</time>
      </trkpt>
      <trkpt lat="44.49139" lon="5.4957">
        <ele>1292.5</ele>
        <time>2021-09-07T09:43:08Z</time>
      </trkpt>
      <trkpt lat="44.49139" lon="5.49567">
        <ele>1292.8</ele>
        <time>2021-09-07T09:43:09Z</time>
      </trkpt>
      <trkpt lat="44.49139" lon="5.49566">
        <ele>1293</ele>
        <time>2021-09-07T09:43:10Z</time>
      </trkpt>
      <trkpt lat="44.49138" lon="5.49565">
        <ele>1293.1</ele>
        <time>2021-09-07T09:43:11Z</time>
      </trkpt>
      <trkpt lat="44.49138" lon="5.49562">
        <ele>1293.5</ele>
        <time>2021-09-07T09:43:12Z</time>
      </trkpt>
      <trkpt lat="44.49138" lon="5.4956">
        <ele>1293.7</ele>
        <time>2021-09-07T09:43:13Z</time>
      </trkpt>
      <trkpt lat="44.49138" lon="5.4956">
        <ele>1293.8</ele>
        <time>2021-09-07T09:43:14Z</time>
      </trkpt>
      <trkpt lat="44.49138" lon="5.49559">
        <ele>1293.9</ele>
        <time>2021-09-07T09:43:15Z</time>
      </trkpt>
      <trkpt lat="44.49137" lon="5.49558">
        <ele>1294.1</ele>
        <time>2021-09-07T09:43:16Z</time>
      </trkpt>
      <trkpt lat="44.49137" lon="5.49558">
        <ele>1294.1</ele>
        <time>2021-09-07T09:43:17Z</time>
      </trkpt>
      <trkpt lat="44.49137" lon="5.49557">
        <ele>1294.2</ele>
        <time>2021-09-07T09:43:18Z</time>
      </trkpt>
      <trkpt lat="44.49137" lon="5.49557">
        <ele>1294.2</ele>
        <time>2021-09-07T09:43:19Z</time>
      </trkpt>
      <trkpt lat="44.49137" lon="5.49557">
        <ele>1294.2</ele>
        <time>2021-09-07T09:43:20Z</time>
      </trkpt>
      <trkpt lat="44.49137" lon="5.49556">
        <ele>1294.3</ele>
        <time>2021-09-07T09:43:21Z</time>
      </trkpt>
      <trkpt lat="44.49137" lon="5.49556">
        <ele>1294.3</ele>
        <time>2021-09-07T09:43:22Z</time>
      </trkpt>
      <trkpt lat="44.49137" lon="5.49556">
        <ele>1294.3</ele>
        <time>2021-09-07T09:43:23Z</time>
      </trkpt>
      <trkpt lat="44.49137" lon="5.49556">
        <ele>1294.3</ele>
        <time>2021-09-07T09:43:24Z</time>
      </trkpt>
      <trkpt lat="44.49137" lon="5.49556">
        <ele>1294.3</ele>
        <time>2021-09-07T09:43:25Z</time>
      </trkpt>
      <trkpt lat="44.49137" lon="5.49556">
        <ele>1294.3</ele>
        <time>2021-09-07T09:43:26Z</time>
      </trkpt>
      <trkpt lat="44.49137" lon="5.49556">
        <ele>1294.3</ele>
        <time>2021-09-07T09:43:27Z</time>
      </trkpt>
      <trkpt lat="44.49137" lon="5.49556">
        <ele>1294.3</ele>
        <time>2021-09-07T09:43:28Z</time>
      </trkpt>
      <trkpt lat="44.49137" lon="5.49556">
        <ele>1294.3</ele>
        <time>2021-09-07T09:43:29Z</time>
      </trkpt>
      <trkpt lat="44.49137" lon="5.49556">
        <ele>1294.3</ele>
        <time>2021-09-07T09:43:30Z</time>
      </trkpt>
      <trkpt lat="44.49136" lon="5.49554">
        <ele>1294.6</ele>
        <time>2021-09-07T09:43:31Z</time>
      </trkpt>
      <trkpt lat="44.49135" lon="5.49552">
        <ele>1294.9</ele>
        <time>2021-09-07T09:43:32Z</time>
      </trkpt>
      <trkpt lat="44.49135" lon="5.49551">
        <ele>1295</ele>
        <time>2021-09-07T09:43:33Z</time>
      </trkpt>
      <trkpt lat="44.49135" lon="5.4955">
        <ele>1295.1</ele>
        <time>2021-09-07T09:43:34Z</time>
      </trkpt>
      <trkpt lat="44.49134" lon="5.49548">
        <ele>1295.5</ele>
        <time>2021-09-07T09:43:35Z</time>
      </trkpt>
      <trkpt lat="44.49133" lon="5.49545">
        <ele>1295.8</ele>
        <time>2021-09-07T09:43:36Z</time>
      </trkpt>
      <trkpt lat="44.49132" lon="5.49544">
        <ele>1296</ele>
        <time>2021-09-07T09:43:37Z</time>
      </trkpt>
      <trkpt lat="44.49132" lon="5.49543">
        <ele>1296.1</ele>
        <time>2021-09-07T09:43:38Z</time>
      </trkpt>
      <trkpt lat="44.49132" lon="5.49544">
        <ele>1296.3</ele>
        <time>2021-09-07T09:43:39Z</time>
      </trkpt>
      <trkpt lat="44.49132" lon="5.49545">
        <ele>1296.4</ele>
        <time>2021-09-07T09:43:40Z</time>
      </trkpt>
      <trkpt lat="44.49132" lon="5.49545">
        <ele>1296.4</ele>
        <time>2021-09-07T09:43:41Z</time>
      </trkpt>
      <trkpt lat="44.49132" lon="5.49545">
        <ele>1296.4</ele>
        <time>2021-09-07T09:43:42Z</time>
      </trkpt>
      <trkpt lat="44.49132" lon="5.49545">
        <ele>1296.4</ele>
        <time>2021-09-07T09:43:43Z</time>
      </trkpt>
      <trkpt lat="44.49132" lon="5.49544">
        <ele>1296.5</ele>
        <time>2021-09-07T09:43:44Z</time>
      </trkpt>
      <trkpt lat="44.49132" lon="5.49544">
        <ele>1296.5</ele>
        <time>2021-09-07T09:43:45Z</time>
      </trkpt>
      <trkpt lat="44.49132" lon="5.49543">
        <ele>1296.6</ele>
        <time>2021-09-07T09:43:46Z</time>
      </trkpt>
      <trkpt lat="44.49132" lon="5.49543">
        <ele>1296.6</ele>
        <time>2021-09-07T09:43:47Z</time>
      </trkpt>
      <trkpt lat="44.49132" lon="5.49543">
        <ele>1296.6</ele>
        <time>2021-09-07T09:43:48Z</time>
      </trkpt>
      <trkpt lat="44.49133" lon="5.4954">
        <ele>1297</ele>
        <time>2021-09-07T09:43:49Z</time>
      </trkpt>
      <trkpt lat="44.49134" lon="5.49538">
        <ele>1297.3</ele>
        <time>2021-09-07T09:43:50Z</time>
      </trkpt>
      <trkpt lat="44.49134" lon="5.49537">
        <ele>1297.4</ele>
        <time>2021-09-07T09:43:51Z</time>
      </trkpt>
      <trkpt lat="44.49134" lon="5.49536">
        <ele>1297.6</ele>
        <time>2021-09-07T09:43:52Z</time>
      </trkpt>
      <trkpt lat="44.49134" lon="5.49535">
        <ele>1297.7</ele>
        <time>2021-09-07T09:43:53Z</time>
      </trkpt>
      <trkpt lat="44.49134" lon="5.49535">
        <ele>1297.7</ele>
        <time>2021-09-07T09:43:54Z</time>
      </trkpt>
      <trkpt lat="44.49134" lon="5.49534">
        <ele>1297.8</ele>
        <time>2021-09-07T09:43:55Z</time>
      </trkpt>
      <trkpt lat="44.49134" lon="5.49534">
        <ele>1297.8</ele>
        <time>2021-09-07T09:43:56Z</time>
      </trkpt>
      <trkpt lat="44.49135" lon="5.49533">
        <ele>1298</ele>
        <time>2021-09-07T09:43:57Z</time>
      </trkpt>
      <trkpt lat="44.49135" lon="5.49533">
        <ele>1298</ele>
        <time>2021-09-07T09:43:58Z</time>
      </trkpt>
      <trkpt lat="44.49135" lon="5.49533">
        <ele>1298.1</ele>
        <time>2021-09-07T09:43:59Z</time>
      </trkpt>
      <trkpt lat="44.49135" lon="5.49532">
        <ele>1298.1</ele>
        <time>2021-09-07T09:44:00Z</time>
      </trkpt>
      <trkpt lat="44.49135" lon="5.49532">
        <ele>1298.1</ele>
        <time>2021-09-07T09:44:01Z</time>
      </trkpt>
      <trkpt lat="44.49135" lon="5.49532">
        <ele>1298.1</ele>
        <time>2021-09-07T09:44:02Z</time>
      </trkpt>
      <trkpt lat="44.49135" lon="5.49532">
        <ele>1298.1</ele>
        <time>2021-09-07T09:44:03Z</time>
      </trkpt>
      <trkpt lat="44.49135" lon="5.49532">
        <ele>1298.2</ele>
        <time>2021-09-07T09:44:04Z</time>
      </trkpt>
      <trkpt lat="44.49135" lon="5.49531">
        <ele>1298.2</ele>
        <time>2021-09-07T09:44:05Z</time>
      </trkpt>
      <trkpt lat="44.49135" lon="5.49531">
        <ele>1298.2</ele>
        <time>2021-09-07T09:44:06Z</time>
      </trkpt>
      <trkpt lat="44.49135" lon="5.49531">
        <ele>1298.2</ele>
        <time>2021-09-07T09:44:07Z</time>
      </trkpt>
      <trkpt lat="44.49135" lon="5.49531">
        <ele>1298.2</ele>
        <time>2021-09-07T09:44:08Z</time>
      </trkpt>
      <trkpt lat="44.49135" lon="5.49531">
        <ele>1298.2</ele>
        <time>2021-09-07T09:44:09Z</time>
      </trkpt>
      <trkpt lat="44.49135" lon="5.49531">
        <ele>1298.2</ele>
        <time>2021-09-07T09:44:10Z</time>
      </trkpt>
      <trkpt lat="44.49135" lon="5.49531">
        <ele>1298.2</ele>
        <time>2021-09-07T09:44:11Z</time>
      </trkpt>
      <trkpt lat="44.49135" lon="5.49531">
        <ele>1298.2</ele>
        <time>2021-09-07T09:44:12Z</time>
      </trkpt>
      <trkpt lat="44.49135" lon="5.49531">
        <ele>1298.2</ele>
        <time>2021-09-07T09:44:13Z</time>
      </trkpt>
      <trkpt lat="44.49135" lon="5.49531">
        <ele>1298.2</ele>
        <time>2021-09-07T09:44:14Z</time>
      </trkpt>
      <trkpt lat="44.49135" lon="5.49531">
        <ele>1298.2</ele>
        <time>2021-09-07T09:44:15Z</time>
      </trkpt>
      <trkpt lat="44.49135" lon="5.49531">
        <ele>1298.2</ele>
        <time>2021-09-07T09:44:16Z</time>
      </trkpt>
      <trkpt lat="44.49135" lon="5.49531">
        <ele>1298.2</ele>
        <time>2021-09-07T09:44:17Z</time>
      </trkpt>
      <trkpt lat="44.49135" lon="5.49531">
        <ele>1298.2</ele>
        <time>2021-09-07T09:44:18Z</time>
      </trkpt>
      <trkpt lat="44.49135" lon="5.49531">
        <ele>1298.2</ele>
        <time>2021-09-07T09:44:19Z</time>
      </trkpt>
      <trkpt lat="44.49135" lon="5.49531">
        <ele>1298.2</ele>
        <time>2021-09-07T09:44:20Z</time>
      </trkpt>
      <trkpt lat="44.49135" lon="5.49531">
        <ele>1298.2</ele>
        <time>2021-09-07T09:44:21Z</time>
      </trkpt>
      <trkpt lat="44.49135" lon="5.4953">
        <ele>1298.4</ele>
        <time>2021-09-07T09:44:22Z</time>
      </trkpt>
      <trkpt lat="44.49135" lon="5.4953">
        <ele>1298.4</ele>
        <time>2021-09-07T09:44:23Z</time>
      </trkpt>
      <trkpt lat="44.49135" lon="5.4953">
        <ele>1298.4</ele>
        <time>2021-09-07T09:44:24Z</time>
      </trkpt>
      <trkpt lat="44.49135" lon="5.4953">
        <ele>1298.4</ele>
        <time>2021-09-07T09:44:25Z</time>
      </trkpt>
      <trkpt lat="44.49135" lon="5.4953">
        <ele>1298.4</ele>
        <time>2021-09-07T09:44:26Z</time>
      </trkpt>
      <trkpt lat="44.49135" lon="5.4953">
        <ele>1298.4</ele>
        <time>2021-09-07T09:44:27Z</time>
      </trkpt>
      <trkpt lat="44.49135" lon="5.4953">
        <ele>1298.4</ele>
        <time>2021-09-07T09:44:28Z</time>
      </trkpt>
      <trkpt lat="44.49135" lon="5.4953">
        <ele>1298.4</ele>
        <time>2021-09-07T09:44:29Z</time>
      </trkpt>
      <trkpt lat="44.49135" lon="5.4953">
        <ele>1298.4</ele>
        <time>2021-09-07T09:44:30Z</time>
      </trkpt>
      <trkpt lat="44.49135" lon="5.4953">
        <ele>1298.4</ele>
        <time>2021-09-07T09:44:31Z</time>
      </trkpt>
      <trkpt lat="44.49134" lon="5.4953">
        <ele>1298.5</ele>
        <time>2021-09-07T09:44:32Z</time>
      </trkpt>
      <trkpt lat="44.49134" lon="5.4953">
        <ele>1298.5</ele>
        <time>2021-09-07T09:44:33Z</time>
      </trkpt>
      <trkpt lat="44.49134" lon="5.4953">
        <ele>1298.5</ele>
        <time>2021-09-07T09:44:34Z</time>
      </trkpt>
      <trkpt lat="44.49134" lon="5.49531">
        <ele>1298.6</ele>
        <time>2021-09-07T09:44:35Z</time>
      </trkpt>
      <trkpt lat="44.49134" lon="5.49531">
        <ele>1298.6</ele>
        <time>2021-09-07T09:44:36Z</time>
      </trkpt>
      <trkpt lat="44.49134" lon="5.49531">
        <ele>1298.6</ele>
        <time>2021-09-07T09:44:37Z</time>
      </trkpt>
      <trkpt lat="44.49134" lon="5.49531">
        <ele>1298.6</ele>
        <time>2021-09-07T09:44:38Z</time>
      </trkpt>
      <trkpt lat="44.49134" lon="5.49531">
        <ele>1298.6</ele>
        <time>2021-09-07T09:44:39Z</time>
      </trkpt>
      <trkpt lat="44.49134" lon="5.49531">
        <ele>1298.6</ele>
        <time>2021-09-07T09:44:40Z</time>
      </trkpt>
      <trkpt lat="44.49134" lon="5.49531">
        <ele>1298.6</ele>
        <time>2021-09-07T09:44:41Z</time>
      </trkpt>
      <trkpt lat="44.49134" lon="5.49531">
        <ele>1298.6</ele>
        <time>2021-09-07T09:44:42Z</time>
      </trkpt>
      <trkpt lat="44.49134" lon="5.49531">
        <ele>1298.7</ele>
        <time>2021-09-07T09:44:43Z</time>
      </trkpt>
      <trkpt lat="44.49134" lon="5.4953">
        <ele>1298.8</ele>
        <time>2021-09-07T09:44:44Z</time>
      </trkpt>
      <trkpt lat="44.49134" lon="5.4953">
        <ele>1298.8</ele>
        <time>2021-09-07T09:44:45Z</time>
      </trkpt>
      <trkpt lat="44.49134" lon="5.4953">
        <ele>1298.8</ele>
        <time>2021-09-07T09:44:46Z</time>
      </trkpt>
      <trkpt lat="44.49134" lon="5.4953">
        <ele>1298.8</ele>
        <time>2021-09-07T09:44:47Z</time>
      </trkpt>
      <trkpt lat="44.49134" lon="5.4953">
        <ele>1298.8</ele>
        <time>2021-09-07T09:44:48Z</time>
      </trkpt>
      <trkpt lat="44.49134" lon="5.4953">
        <ele>1298.8</ele>
        <time>2021-09-07T09:44:49Z</time>
      </trkpt>
      <trkpt lat="44.49134" lon="5.4953">
        <ele>1298.8</ele>
        <time>2021-09-07T09:44:50Z</time>
      </trkpt>
      <trkpt lat="44.49134" lon="5.4953">
        <ele>1298.8</ele>
        <time>2021-09-07T09:44:51Z</time>
      </trkpt>
      <trkpt lat="44.49134" lon="5.4953">
        <ele>1298.8</ele>
        <time>2021-09-07T09:44:52Z</time>
      </trkpt>
      <trkpt lat="44.49134" lon="5.4953">
        <ele>1298.8</ele>
        <time>2021-09-07T09:44:53Z</time>
      </trkpt>
      <trkpt lat="44.49134" lon="5.4953">
        <ele>1298.8</ele>
        <time>2021-09-07T09:44:54Z</time>
      </trkpt>
      <trkpt lat="44.49134" lon="5.4953">
        <ele>1298.8</ele>
        <time>2021-09-07T09:44:55Z</time>
      </trkpt>
      <trkpt lat="44.49134" lon="5.4953">
        <ele>1298.8</ele>
        <time>2021-09-07T09:44:56Z</time>
      </trkpt>
      <trkpt lat="44.49134" lon="5.4953">
        <ele>1298.8</ele>
        <time>2021-09-07T09:44:57Z</time>
      </trkpt>
      <trkpt lat="44.49134" lon="5.4953">
        <ele>1298.8</ele>
        <time>2021-09-07T09:44:58Z</time>
      </trkpt>
      <trkpt lat="44.49134" lon="5.4953">
        <ele>1298.8</ele>
        <time>2021-09-07T09:44:59Z</time>
      </trkpt>
      <trkpt lat="44.49134" lon="5.4953">
        <ele>1298.8</ele>
        <time>2021-09-07T09:45:00Z</time>
      </trkpt>
      <trkpt lat="44.49134" lon="5.4953">
        <ele>1298.8</ele>
        <time>2021-09-07T09:45:01Z</time>
      </trkpt>
      <trkpt lat="44.49134" lon="5.4953">
        <ele>1298.8</ele>
        <time>2021-09-07T09:45:02Z</time>
      </trkpt>
      <trkpt lat="44.49134" lon="5.4953">
        <ele>1298.8</ele>
        <time>2021-09-07T09:45:03Z</time>
      </trkpt>
      <trkpt lat="44.49134" lon="5.4953">
        <ele>1298.8</ele>
        <time>2021-09-07T09:45:04Z</time>
      </trkpt>
      <trkpt lat="44.49134" lon="5.4953">
        <ele>1298.8</ele>
        <time>2021-09-07T09:45:05Z</time>
      </trkpt>
      <trkpt lat="44.49134" lon="5.4953">
        <ele>1298.8</ele>
        <time>2021-09-07T09:45:06Z</time>
      </trkpt>
      <trkpt lat="44.49134" lon="5.4953">
        <ele>1298.8</ele>
        <time>2021-09-07T09:45:07Z</time>
      </trkpt>
      <trkpt lat="44.49134" lon="5.49529">
        <ele>1298.9</ele>
        <time>2021-09-07T09:45:08Z</time>
      </trkpt>
      <trkpt lat="44.49134" lon="5.4953">
        <ele>1299</ele>
        <time>2021-09-07T09:45:09Z</time>
      </trkpt>
      <trkpt lat="44.49134" lon="5.4953">
        <ele>1299</ele>
        <time>2021-09-07T09:45:10Z</time>
      </trkpt>
      <trkpt lat="44.49134" lon="5.4953">
        <ele>1299.1</ele>
        <time>2021-09-07T09:45:11Z</time>
      </trkpt>
      <trkpt lat="44.49134" lon="5.49529">
        <ele>1299.1</ele>
        <time>2021-09-07T09:45:12Z</time>
      </trkpt>
      <trkpt lat="44.49134" lon="5.49529">
        <ele>1299.1</ele>
        <time>2021-09-07T09:45:13Z</time>
      </trkpt>
      <trkpt lat="44.49134" lon="5.49529">
        <ele>1299.1</ele>
        <time>2021-09-07T09:45:14Z</time>
      </trkpt>
      <trkpt lat="44.49134" lon="5.49529">
        <ele>1299.1</ele>
        <time>2021-09-07T09:45:15Z</time>
      </trkpt>
      <trkpt lat="44.49134" lon="5.49528">
        <ele>1299.2</ele>
        <time>2021-09-07T09:45:16Z</time>
      </trkpt>
      <trkpt lat="44.49134" lon="5.49527">
        <ele>1299.4</ele>
        <time>2021-09-07T09:45:17Z</time>
      </trkpt>
      <trkpt lat="44.49134" lon="5.49525">
        <ele>1299.6</ele>
        <time>2021-09-07T09:45:18Z</time>
      </trkpt>
      <trkpt lat="44.49134" lon="5.49524">
        <ele>1299.8</ele>
        <time>2021-09-07T09:45:19Z</time>
      </trkpt>
      <trkpt lat="44.49133" lon="5.49522">
        <ele>1300</ele>
        <time>2021-09-07T09:45:20Z</time>
      </trkpt>
      <trkpt lat="44.49133" lon="5.4952">
        <ele>1300.2</ele>
        <time>2021-09-07T09:45:21Z</time>
      </trkpt>
      <trkpt lat="44.49133" lon="5.4952">
        <ele>1300.2</ele>
        <time>2021-09-07T09:45:22Z</time>
      </trkpt>
      <trkpt lat="44.49132" lon="5.49519">
        <ele>1300.4</ele>
        <time>2021-09-07T09:45:23Z</time>
      </trkpt>
      <trkpt lat="44.49132" lon="5.49518">
        <ele>1300.6</ele>
        <time>2021-09-07T09:45:24Z</time>
      </trkpt>
      <trkpt lat="44.49132" lon="5.49517">
        <ele>1300.7</ele>
        <time>2021-09-07T09:45:25Z</time>
      </trkpt>
      <trkpt lat="44.49132" lon="5.49517">
        <ele>1300.7</ele>
        <time>2021-09-07T09:45:26Z</time>
      </trkpt>
      <trkpt lat="44.49132" lon="5.49516">
        <ele>1300.8</ele>
        <time>2021-09-07T09:45:27Z</time>
      </trkpt>
      <trkpt lat="44.49132" lon="5.49516">
        <ele>1300.8</ele>
        <time>2021-09-07T09:45:28Z</time>
      </trkpt>
      <trkpt lat="44.49132" lon="5.49516">
        <ele>1300.9</ele>
        <time>2021-09-07T09:45:29Z</time>
      </trkpt>
      <trkpt lat="44.49132" lon="5.49515">
        <ele>1300.9</ele>
        <time>2021-09-07T09:45:30Z</time>
      </trkpt>
      <trkpt lat="44.49133" lon="5.49515">
        <ele>1301.1</ele>
        <time>2021-09-07T09:45:31Z</time>
      </trkpt>
      <trkpt lat="44.49133" lon="5.49515">
        <ele>1301.1</ele>
        <time>2021-09-07T09:45:32Z</time>
      </trkpt>
      <trkpt lat="44.49133" lon="5.49515">
        <ele>1301.1</ele>
        <time>2021-09-07T09:45:33Z</time>
      </trkpt>
      <trkpt lat="44.49133" lon="5.49515">
        <ele>1301.1</ele>
        <time>2021-09-07T09:45:34Z</time>
      </trkpt>
      <trkpt lat="44.49133" lon="5.49515">
        <ele>1301.1</ele>
        <time>2021-09-07T09:45:35Z</time>
      </trkpt>
      <trkpt lat="44.49133" lon="5.49515">
        <ele>1301.1</ele>
        <time>2021-09-07T09:45:36Z</time>
      </trkpt>
      <trkpt lat="44.49133" lon="5.49515">
        <ele>1301.1</ele>
        <time>2021-09-07T09:45:37Z</time>
      </trkpt>
      <trkpt lat="44.49133" lon="5.49515">
        <ele>1301.1</ele>
        <time>2021-09-07T09:45:38Z</time>
      </trkpt>
      <trkpt lat="44.49133" lon="5.49515">
        <ele>1301.2</ele>
        <time>2021-09-07T09:45:39Z</time>
      </trkpt>
      <trkpt lat="44.49132" lon="5.49515">
        <ele>1301.3</ele>
        <time>2021-09-07T09:45:40Z</time>
      </trkpt>
      <trkpt lat="44.49132" lon="5.49515">
        <ele>1301.3</ele>
        <time>2021-09-07T09:45:41Z</time>
      </trkpt>
      <trkpt lat="44.49132" lon="5.49515">
        <ele>1301.3</ele>
        <time>2021-09-07T09:45:42Z</time>
      </trkpt>
      <trkpt lat="44.49132" lon="5.49515">
        <ele>1301.3</ele>
        <time>2021-09-07T09:45:43Z</time>
      </trkpt>
      <trkpt lat="44.49132" lon="5.49514">
        <ele>1301.4</ele>
        <time>2021-09-07T09:45:44Z</time>
      </trkpt>
      <trkpt lat="44.49132" lon="5.49514">
        <ele>1301.4</ele>
        <time>2021-09-07T09:45:45Z</time>
      </trkpt>
      <trkpt lat="44.49132" lon="5.49514">
        <ele>1301.4</ele>
        <time>2021-09-07T09:45:46Z</time>
      </trkpt>
      <trkpt lat="44.49132" lon="5.49514">
        <ele>1301.4</ele>
        <time>2021-09-07T09:45:47Z</time>
      </trkpt>
      <trkpt lat="44.49132" lon="5.49514">
        <ele>1301.4</ele>
        <time>2021-09-07T09:45:48Z</time>
      </trkpt>
      <trkpt lat="44.49132" lon="5.49514">
        <ele>1301.5</ele>
        <time>2021-09-07T09:45:49Z</time>
      </trkpt>
      <trkpt lat="44.49131" lon="5.49513">
        <ele>1301.6</ele>
        <time>2021-09-07T09:45:50Z</time>
      </trkpt>
      <trkpt lat="44.49131" lon="5.49512">
        <ele>1301.7</ele>
        <time>2021-09-07T09:45:51Z</time>
      </trkpt>
      <trkpt lat="44.49128" lon="5.4951">
        <ele>1302.3</ele>
        <time>2021-09-07T09:45:52Z</time>
      </trkpt>
      <trkpt lat="44.49128" lon="5.49509">
        <ele>1302.4</ele>
        <time>2021-09-07T09:45:53Z</time>
      </trkpt>
      <trkpt lat="44.49128" lon="5.49508">
        <ele>1302.5</ele>
        <time>2021-09-07T09:45:54Z</time>
      </trkpt>
      <trkpt lat="44.49127" lon="5.49507">
        <ele>1302.7</ele>
        <time>2021-09-07T09:45:55Z</time>
      </trkpt>
      <trkpt lat="44.49127" lon="5.49506">
        <ele>1302.8</ele>
        <time>2021-09-07T09:45:56Z</time>
      </trkpt>
      <trkpt lat="44.49127" lon="5.49506">
        <ele>1302.9</ele>
        <time>2021-09-07T09:45:57Z</time>
      </trkpt>
      <trkpt lat="44.49126" lon="5.49506">
        <ele>1303</ele>
        <time>2021-09-07T09:45:58Z</time>
      </trkpt>
      <trkpt lat="44.49126" lon="5.49505">
        <ele>1303.1</ele>
        <time>2021-09-07T09:45:59Z</time>
      </trkpt>
      <trkpt lat="44.49126" lon="5.49505">
        <ele>1303.1</ele>
        <time>2021-09-07T09:46:00Z</time>
      </trkpt>
      <trkpt lat="44.49126" lon="5.49505">
        <ele>1303.1</ele>
        <time>2021-09-07T09:46:01Z</time>
      </trkpt>
      <trkpt lat="44.49126" lon="5.49504">
        <ele>1303.2</ele>
        <time>2021-09-07T09:46:02Z</time>
      </trkpt>
      <trkpt lat="44.49125" lon="5.49504">
        <ele>1303.4</ele>
        <time>2021-09-07T09:46:03Z</time>
      </trkpt>
      <trkpt lat="44.49125" lon="5.49504">
        <ele>1303.4</ele>
        <time>2021-09-07T09:46:04Z</time>
      </trkpt>
      <trkpt lat="44.49125" lon="5.49504">
        <ele>1303.5</ele>
        <time>2021-09-07T09:46:05Z</time>
      </trkpt>
      <trkpt lat="44.49125" lon="5.49503">
        <ele>1303.6</ele>
        <time>2021-09-07T09:46:06Z</time>
      </trkpt>
      <trkpt lat="44.49126" lon="5.49501">
        <ele>1303.9</ele>
        <time>2021-09-07T09:46:07Z</time>
      </trkpt>
      <trkpt lat="44.49127" lon="5.495">
        <ele>1304.1</ele>
        <time>2021-09-07T09:46:08Z</time>
      </trkpt>
      <trkpt lat="44.49127" lon="5.49499">
        <ele>1304.2</ele>
        <time>2021-09-07T09:46:09Z</time>
      </trkpt>
      <trkpt lat="44.49127" lon="5.49498">
        <ele>1304.3</ele>
        <time>2021-09-07T09:46:10Z</time>
      </trkpt>
      <trkpt lat="44.49128" lon="5.49497">
        <ele>1304.5</ele>
        <time>2021-09-07T09:46:11Z</time>
      </trkpt>
      <trkpt lat="44.49129" lon="5.49497">
        <ele>1304.6</ele>
        <time>2021-09-07T09:46:12Z</time>
      </trkpt>
      <trkpt lat="44.49129" lon="5.49496">
        <ele>1304.7</ele>
        <time>2021-09-07T09:46:13Z</time>
      </trkpt>
      <trkpt lat="44.49129" lon="5.49495">
        <ele>1304.9</ele>
        <time>2021-09-07T09:46:14Z</time>
      </trkpt>
      <trkpt lat="44.49129" lon="5.49494">
        <ele>1305</ele>
        <time>2021-09-07T09:46:15Z</time>
      </trkpt>
      <trkpt lat="44.49129" lon="5.49494">
        <ele>1305</ele>
        <time>2021-09-07T09:46:16Z</time>
      </trkpt>
      <trkpt lat="44.49129" lon="5.49493">
        <ele>1305.1</ele>
        <time>2021-09-07T09:46:17Z</time>
      </trkpt>
      <trkpt lat="44.49129" lon="5.49493">
        <ele>1305.1</ele>
        <time>2021-09-07T09:46:18Z</time>
      </trkpt>
      <trkpt lat="44.4913" lon="5.49493">
        <ele>1305.2</ele>
        <time>2021-09-07T09:46:19Z</time>
      </trkpt>
      <trkpt lat="44.4913" lon="5.49492">
        <ele>1305.4</ele>
        <time>2021-09-07T09:46:20Z</time>
      </trkpt>
      <trkpt lat="44.4913" lon="5.49492">
        <ele>1305.4</ele>
        <time>2021-09-07T09:46:21Z</time>
      </trkpt>
      <trkpt lat="44.4913" lon="5.49492">
        <ele>1305.4</ele>
        <time>2021-09-07T09:46:22Z</time>
      </trkpt>
      <trkpt lat="44.4913" lon="5.49492">
        <ele>1305.4</ele>
        <time>2021-09-07T09:46:23Z</time>
      </trkpt>
      <trkpt lat="44.4913" lon="5.49491">
        <ele>1305.5</ele>
        <time>2021-09-07T09:46:24Z</time>
      </trkpt>
      <trkpt lat="44.4913" lon="5.49491">
        <ele>1305.5</ele>
        <time>2021-09-07T09:46:25Z</time>
      </trkpt>
      <trkpt lat="44.4913" lon="5.49491">
        <ele>1305.5</ele>
        <time>2021-09-07T09:46:26Z</time>
      </trkpt>
      <trkpt lat="44.4913" lon="5.49491">
        <ele>1305.5</ele>
        <time>2021-09-07T09:46:27Z</time>
      </trkpt>
      <trkpt lat="44.4913" lon="5.49491">
        <ele>1305.5</ele>
        <time>2021-09-07T09:46:28Z</time>
      </trkpt>
      <trkpt lat="44.4913" lon="5.49491">
        <ele>1305.5</ele>
        <time>2021-09-07T09:46:29Z</time>
      </trkpt>
      <trkpt lat="44.4913" lon="5.49491">
        <ele>1305.5</ele>
        <time>2021-09-07T09:46:30Z</time>
      </trkpt>
      <trkpt lat="44.4913" lon="5.49491">
        <ele>1305.5</ele>
        <time>2021-09-07T09:46:31Z</time>
      </trkpt>
      <trkpt lat="44.4913" lon="5.49491">
        <ele>1305.5</ele>
        <time>2021-09-07T09:46:32Z</time>
      </trkpt>
      <trkpt lat="44.4913" lon="5.49491">
        <ele>1305.5</ele>
        <time>2021-09-07T09:46:33Z</time>
      </trkpt>
      <trkpt lat="44.4913" lon="5.4949">
        <ele>1305.7</ele>
        <time>2021-09-07T09:46:34Z</time>
      </trkpt>
      <trkpt lat="44.4913" lon="5.4949">
        <ele>1305.7</ele>
        <time>2021-09-07T09:46:35Z</time>
      </trkpt>
      <trkpt lat="44.4913" lon="5.4949">
        <ele>1305.7</ele>
        <time>2021-09-07T09:46:36Z</time>
      </trkpt>
      <trkpt lat="44.4913" lon="5.4949">
        <ele>1305.7</ele>
        <time>2021-09-07T09:46:37Z</time>
      </trkpt>
      <trkpt lat="44.4913" lon="5.4949">
        <ele>1305.7</ele>
        <time>2021-09-07T09:46:38Z</time>
      </trkpt>
      <trkpt lat="44.4913" lon="5.4949">
        <ele>1305.7</ele>
        <time>2021-09-07T09:46:39Z</time>
      </trkpt>
      <trkpt lat="44.4913" lon="5.49489">
        <ele>1305.9</ele>
        <time>2021-09-07T09:46:40Z</time>
      </trkpt>
      <trkpt lat="44.4913" lon="5.49489">
        <ele>1305.9</ele>
        <time>2021-09-07T09:46:41Z</time>
      </trkpt>
      <trkpt lat="44.4913" lon="5.49488">
        <ele>1306</ele>
        <time>2021-09-07T09:46:42Z</time>
      </trkpt>
      <trkpt lat="44.4913" lon="5.49488">
        <ele>1306</ele>
        <time>2021-09-07T09:46:43Z</time>
      </trkpt>
      <trkpt lat="44.4913" lon="5.49487">
        <ele>1306.1</ele>
        <time>2021-09-07T09:46:44Z</time>
      </trkpt>
      <trkpt lat="44.49131" lon="5.49487">
        <ele>1306.2</ele>
        <time>2021-09-07T09:46:45Z</time>
      </trkpt>
      <trkpt lat="44.49131" lon="5.49486">
        <ele>1306.3</ele>
        <time>2021-09-07T09:46:46Z</time>
      </trkpt>
      <trkpt lat="44.49131" lon="5.49486">
        <ele>1306.4</ele>
        <time>2021-09-07T09:46:47Z</time>
      </trkpt>
      <trkpt lat="44.49131" lon="5.49485">
        <ele>1306.4</ele>
        <time>2021-09-07T09:46:48Z</time>
      </trkpt>
      <trkpt lat="44.49131" lon="5.49485">
        <ele>1306.5</ele>
        <time>2021-09-07T09:46:49Z</time>
      </trkpt>
      <trkpt lat="44.49131" lon="5.49484">
        <ele>1306.6</ele>
        <time>2021-09-07T09:46:50Z</time>
      </trkpt>
      <trkpt lat="44.49131" lon="5.49484">
        <ele>1306.6</ele>
        <time>2021-09-07T09:46:51Z</time>
      </trkpt>
      <trkpt lat="44.49131" lon="5.49483">
        <ele>1306.7</ele>
        <time>2021-09-07T09:46:52Z</time>
      </trkpt>
      <trkpt lat="44.49131" lon="5.49483">
        <ele>1306.7</ele>
        <time>2021-09-07T09:46:53Z</time>
      </trkpt>
      <trkpt lat="44.49131" lon="5.49483">
        <ele>1306.7</ele>
        <time>2021-09-07T09:46:54Z</time>
      </trkpt>
      <trkpt lat="44.49131" lon="5.49482">
        <ele>1306.8</ele>
        <time>2021-09-07T09:46:55Z</time>
      </trkpt>
      <trkpt lat="44.49131" lon="5.49482">
        <ele>1306.8</ele>
        <time>2021-09-07T09:46:56Z</time>
      </trkpt>
      <trkpt lat="44.49131" lon="5.49482">
        <ele>1306.9</ele>
        <time>2021-09-07T09:46:57Z</time>
      </trkpt>
      <trkpt lat="44.49131" lon="5.49482">
        <ele>1306.9</ele>
        <time>2021-09-07T09:46:58Z</time>
      </trkpt>
      <trkpt lat="44.49131" lon="5.49482">
        <ele>1306.9</ele>
        <time>2021-09-07T09:46:59Z</time>
      </trkpt>
      <trkpt lat="44.49131" lon="5.49482">
        <ele>1306.9</ele>
        <time>2021-09-07T09:47:00Z</time>
      </trkpt>
      <trkpt lat="44.49131" lon="5.4948">
        <ele>1307.1</ele>
        <time>2021-09-07T09:47:01Z</time>
      </trkpt>
      <trkpt lat="44.49131" lon="5.49479">
        <ele>1307.2</ele>
        <time>2021-09-07T09:47:02Z</time>
      </trkpt>
      <trkpt lat="44.4913" lon="5.49478">
        <ele>1307.4</ele>
        <time>2021-09-07T09:47:03Z</time>
      </trkpt>
      <trkpt lat="44.4913" lon="5.49477">
        <ele>1307.5</ele>
        <time>2021-09-07T09:47:04Z</time>
      </trkpt>
      <trkpt lat="44.4913" lon="5.49476">
        <ele>1307.6</ele>
        <time>2021-09-07T09:47:05Z</time>
      </trkpt>
      <trkpt lat="44.4913" lon="5.49475">
        <ele>1307.7</ele>
        <time>2021-09-07T09:47:06Z</time>
      </trkpt>
      <trkpt lat="44.4913" lon="5.49475">
        <ele>1307.8</ele>
        <time>2021-09-07T09:47:07Z</time>
      </trkpt>
      <trkpt lat="44.4913" lon="5.49474">
        <ele>1307.9</ele>
        <time>2021-09-07T09:47:08Z</time>
      </trkpt>
      <trkpt lat="44.4913" lon="5.49473">
        <ele>1308</ele>
        <time>2021-09-07T09:47:09Z</time>
      </trkpt>
      <trkpt lat="44.4913" lon="5.49473">
        <ele>1308</ele>
        <time>2021-09-07T09:47:10Z</time>
      </trkpt>
      <trkpt lat="44.4913" lon="5.49473">
        <ele>1308.1</ele>
        <time>2021-09-07T09:47:11Z</time>
      </trkpt>
      <trkpt lat="44.4913" lon="5.49472">
        <ele>1308.1</ele>
        <time>2021-09-07T09:47:12Z</time>
      </trkpt>
      <trkpt lat="44.4913" lon="5.49472">
        <ele>1308.1</ele>
        <time>2021-09-07T09:47:13Z</time>
      </trkpt>
      <trkpt lat="44.4913" lon="5.49472">
        <ele>1308.1</ele>
        <time>2021-09-07T09:47:14Z</time>
      </trkpt>
      <trkpt lat="44.4913" lon="5.49471">
        <ele>1308.2</ele>
        <time>2021-09-07T09:47:15Z</time>
      </trkpt>
      <trkpt lat="44.49129" lon="5.49471">
        <ele>1308.4</ele>
        <time>2021-09-07T09:47:16Z</time>
      </trkpt>
      <trkpt lat="44.49129" lon="5.49471">
        <ele>1308.4</ele>
        <time>2021-09-07T09:47:17Z</time>
      </trkpt>
      <trkpt lat="44.49129" lon="5.49471">
        <ele>1308.4</ele>
        <time>2021-09-07T09:47:18Z</time>
      </trkpt>
      <trkpt lat="44.49129" lon="5.4947">
        <ele>1308.5</ele>
        <time>2021-09-07T09:47:19Z</time>
      </trkpt>
      <trkpt lat="44.49129" lon="5.4947">
        <ele>1308.5</ele>
        <time>2021-09-07T09:47:20Z</time>
      </trkpt>
      <trkpt lat="44.49129" lon="5.4947">
        <ele>1308.5</ele>
        <time>2021-09-07T09:47:21Z</time>
      </trkpt>
      <trkpt lat="44.49129" lon="5.4947">
        <ele>1308.5</ele>
        <time>2021-09-07T09:47:22Z</time>
      </trkpt>
      <trkpt lat="44.49129" lon="5.4947">
        <ele>1308.5</ele>
        <time>2021-09-07T09:47:23Z</time>
      </trkpt>
      <trkpt lat="44.49129" lon="5.4947">
        <ele>1308.5</ele>
        <time>2021-09-07T09:47:24Z</time>
      </trkpt>
      <trkpt lat="44.49129" lon="5.4947">
        <ele>1308.5</ele>
        <time>2021-09-07T09:47:25Z</time>
      </trkpt>
      <trkpt lat="44.49129" lon="5.4947">
        <ele>1308.6</ele>
        <time>2021-09-07T09:47:26Z</time>
      </trkpt>
      <trkpt lat="44.49129" lon="5.4947">
        <ele>1308.6</ele>
        <time>2021-09-07T09:47:27Z</time>
      </trkpt>
      <trkpt lat="44.49129" lon="5.4947">
        <ele>1308.6</ele>
        <time>2021-09-07T09:47:28Z</time>
      </trkpt>
      <trkpt lat="44.49129" lon="5.4947">
        <ele>1308.6</ele>
        <time>2021-09-07T09:47:29Z</time>
      </trkpt>
      <trkpt lat="44.49129" lon="5.4947">
        <ele>1308.6</ele>
        <time>2021-09-07T09:47:30Z</time>
      </trkpt>
      <trkpt lat="44.49129" lon="5.4947">
        <ele>1308.6</ele>
        <time>2021-09-07T09:47:31Z</time>
      </trkpt>
      <trkpt lat="44.49129" lon="5.4947">
        <ele>1308.6</ele>
        <time>2021-09-07T09:47:32Z</time>
      </trkpt>
      <trkpt lat="44.49129" lon="5.4947">
        <ele>1308.6</ele>
        <time>2021-09-07T09:47:33Z</time>
      </trkpt>
      <trkpt lat="44.49129" lon="5.4947">
        <ele>1308.6</ele>
        <time>2021-09-07T09:47:34Z</time>
      </trkpt>
      <trkpt lat="44.49129" lon="5.4947">
        <ele>1308.6</ele>
        <time>2021-09-07T09:47:35Z</time>
      </trkpt>
      <trkpt lat="44.49129" lon="5.4947">
        <ele>1308.6</ele>
        <time>2021-09-07T09:47:36Z</time>
      </trkpt>
      <trkpt lat="44.49129" lon="5.4947">
        <ele>1308.6</ele>
        <time>2021-09-07T09:47:37Z</time>
      </trkpt>
      <trkpt lat="44.49129" lon="5.4947">
        <ele>1308.6</ele>
        <time>2021-09-07T09:47:38Z</time>
      </trkpt>
      <trkpt lat="44.49129" lon="5.4947">
        <ele>1308.6</ele>
        <time>2021-09-07T09:47:39Z</time>
      </trkpt>
      <trkpt lat="44.49129" lon="5.4947">
        <ele>1308.6</ele>
        <time>2021-09-07T09:47:40Z</time>
      </trkpt>
      <trkpt lat="44.49129" lon="5.4947">
        <ele>1308.6</ele>
        <time>2021-09-07T09:47:41Z</time>
      </trkpt>
      <trkpt lat="44.49129" lon="5.4947">
        <ele>1308.6</ele>
        <time>2021-09-07T09:47:42Z</time>
      </trkpt>
      <trkpt lat="44.49129" lon="5.4947">
        <ele>1308.6</ele>
        <time>2021-09-07T09:47:43Z</time>
      </trkpt>
      <trkpt lat="44.49129" lon="5.4947">
        <ele>1308.6</ele>
        <time>2021-09-07T09:47:44Z</time>
      </trkpt>
      <trkpt lat="44.49129" lon="5.4947">
        <ele>1308.6</ele>
        <time>2021-09-07T09:47:45Z</time>
      </trkpt>
      <trkpt lat="44.49129" lon="5.4947">
        <ele>1308.6</ele>
        <time>2021-09-07T09:47:46Z</time>
      </trkpt>
      <trkpt lat="44.49129" lon="5.4947">
        <ele>1308.6</ele>
        <time>2021-09-07T09:47:47Z</time>
      </trkpt>
      <trkpt lat="44.49129" lon="5.4947">
        <ele>1308.6</ele>
        <time>2021-09-07T09:47:48Z</time>
      </trkpt>
      <trkpt lat="44.49129" lon="5.4947">
        <ele>1308.6</ele>
        <time>2021-09-07T09:47:49Z</time>
      </trkpt>
      <trkpt lat="44.49129" lon="5.4947">
        <ele>1308.6</ele>
        <time>2021-09-07T09:47:50Z</time>
      </trkpt>
      <trkpt lat="44.49129" lon="5.4947">
        <ele>1308.6</ele>
        <time>2021-09-07T09:47:51Z</time>
      </trkpt>
      <trkpt lat="44.49129" lon="5.4947">
        <ele>1308.6</ele>
        <time>2021-09-07T09:47:52Z</time>
      </trkpt>
      <trkpt lat="44.49129" lon="5.4947">
        <ele>1308.6</ele>
        <time>2021-09-07T09:47:53Z</time>
      </trkpt>
      <trkpt lat="44.49129" lon="5.4947">
        <ele>1308.6</ele>
        <time>2021-09-07T09:47:54Z</time>
      </trkpt>
      <trkpt lat="44.49129" lon="5.4947">
        <ele>1308.6</ele>
        <time>2021-09-07T09:47:55Z</time>
      </trkpt>
      <trkpt lat="44.49129" lon="5.4947">
        <ele>1308.6</ele>
        <time>2021-09-07T09:47:56Z</time>
      </trkpt>
      <trkpt lat="44.49129" lon="5.4947">
        <ele>1308.6</ele>
        <time>2021-09-07T09:47:57Z</time>
      </trkpt>
      <trkpt lat="44.49129" lon="5.4947">
        <ele>1308.6</ele>
        <time>2021-09-07T09:47:58Z</time>
      </trkpt>
      <trkpt lat="44.49129" lon="5.4947">
        <ele>1308.6</ele>
        <time>2021-09-07T09:47:59Z</time>
      </trkpt>
      <trkpt lat="44.49129" lon="5.4947">
        <ele>1308.6</ele>
        <time>2021-09-07T09:48:00Z</time>
      </trkpt>
      <trkpt lat="44.49129" lon="5.4947">
        <ele>1308.6</ele>
        <time>2021-09-07T09:48:01Z</time>
      </trkpt>
      <trkpt lat="44.49129" lon="5.4947">
        <ele>1308.6</ele>
        <time>2021-09-07T09:48:02Z</time>
      </trkpt>
      <trkpt lat="44.49129" lon="5.4947">
        <ele>1308.6</ele>
        <time>2021-09-07T09:48:03Z</time>
      </trkpt>
      <trkpt lat="44.49129" lon="5.4947">
        <ele>1308.6</ele>
        <time>2021-09-07T09:48:04Z</time>
      </trkpt>
      <trkpt lat="44.49129" lon="5.4947">
        <ele>1308.6</ele>
        <time>2021-09-07T09:48:05Z</time>
      </trkpt>
      <trkpt lat="44.49129" lon="5.4947">
        <ele>1308.6</ele>
        <time>2021-09-07T09:48:06Z</time>
      </trkpt>
      <trkpt lat="44.49128" lon="5.4947">
        <ele>1308.8</ele>
        <time>2021-09-07T09:48:07Z</time>
      </trkpt>
      <trkpt lat="44.49128" lon="5.4947">
        <ele>1308.8</ele>
        <time>2021-09-07T09:48:08Z</time>
      </trkpt>
      <trkpt lat="44.49128" lon="5.49467">
        <ele>1309.1</ele>
        <time>2021-09-07T09:48:09Z</time>
      </trkpt>
      <trkpt lat="44.49128" lon="5.49466">
        <ele>1309.2</ele>
        <time>2021-09-07T09:48:10Z</time>
      </trkpt>
      <trkpt lat="44.49127" lon="5.49465">
        <ele>1309.4</ele>
        <time>2021-09-07T09:48:11Z</time>
      </trkpt>
      <trkpt lat="44.49127" lon="5.49463">
        <ele>1309.6</ele>
        <time>2021-09-07T09:48:12Z</time>
      </trkpt>
      <trkpt lat="44.49126" lon="5.49461">
        <ele>1309.9</ele>
        <time>2021-09-07T09:48:13Z</time>
      </trkpt>
      <trkpt lat="44.49126" lon="5.4946">
        <ele>1310</ele>
        <time>2021-09-07T09:48:14Z</time>
      </trkpt>
      <trkpt lat="44.49126" lon="5.49459">
        <ele>1310.1</ele>
        <time>2021-09-07T09:48:15Z</time>
      </trkpt>
      <trkpt lat="44.49126" lon="5.49458">
        <ele>1310.2</ele>
        <time>2021-09-07T09:48:16Z</time>
      </trkpt>
      <trkpt lat="44.49126" lon="5.49458">
        <ele>1310.3</ele>
        <time>2021-09-07T09:48:17Z</time>
      </trkpt>
      <trkpt lat="44.49125" lon="5.49457">
        <ele>1310.4</ele>
        <time>2021-09-07T09:48:18Z</time>
      </trkpt>
      <trkpt lat="44.49125" lon="5.49457">
        <ele>1310.5</ele>
        <time>2021-09-07T09:48:19Z</time>
      </trkpt>
      <trkpt lat="44.49125" lon="5.49456">
        <ele>1310.5</ele>
        <time>2021-09-07T09:48:20Z</time>
      </trkpt>
      <trkpt lat="44.49125" lon="5.49456">
        <ele>1310.5</ele>
        <time>2021-09-07T09:48:21Z</time>
      </trkpt>
      <trkpt lat="44.49125" lon="5.49456">
        <ele>1310.6</ele>
        <time>2021-09-07T09:48:22Z</time>
      </trkpt>
      <trkpt lat="44.49125" lon="5.49455">
        <ele>1310.6</ele>
        <time>2021-09-07T09:48:23Z</time>
      </trkpt>
      <trkpt lat="44.49125" lon="5.49455">
        <ele>1310.6</ele>
        <time>2021-09-07T09:48:24Z</time>
      </trkpt>
      <trkpt lat="44.49125" lon="5.49455">
        <ele>1310.6</ele>
        <time>2021-09-07T09:48:25Z</time>
      </trkpt>
      <trkpt lat="44.49125" lon="5.49455">
        <ele>1310.6</ele>
        <time>2021-09-07T09:48:26Z</time>
      </trkpt>
      <trkpt lat="44.49125" lon="5.49455">
        <ele>1310.6</ele>
        <time>2021-09-07T09:48:27Z</time>
      </trkpt>
      <trkpt lat="44.49125" lon="5.49455">
        <ele>1310.6</ele>
        <time>2021-09-07T09:48:28Z</time>
      </trkpt>
      <trkpt lat="44.49125" lon="5.49455">
        <ele>1310.6</ele>
        <time>2021-09-07T09:48:29Z</time>
      </trkpt>
      <trkpt lat="44.49125" lon="5.49455">
        <ele>1310.6</ele>
        <time>2021-09-07T09:48:30Z</time>
      </trkpt>
      <trkpt lat="44.49125" lon="5.49455">
        <ele>1310.6</ele>
        <time>2021-09-07T09:48:31Z</time>
      </trkpt>
      <trkpt lat="44.49125" lon="5.49455">
        <ele>1310.6</ele>
        <time>2021-09-07T09:48:32Z</time>
      </trkpt>
      <trkpt lat="44.49125" lon="5.49455">
        <ele>1310.6</ele>
        <time>2021-09-07T09:48:33Z</time>
      </trkpt>
      <trkpt lat="44.49125" lon="5.49455">
        <ele>1310.7</ele>
        <time>2021-09-07T09:48:34Z</time>
      </trkpt>
      <trkpt lat="44.49124" lon="5.49455">
        <ele>1310.8</ele>
        <time>2021-09-07T09:48:35Z</time>
      </trkpt>
      <trkpt lat="44.49124" lon="5.49455">
        <ele>1310.8</ele>
        <time>2021-09-07T09:48:36Z</time>
      </trkpt>
      <trkpt lat="44.49124" lon="5.49455">
        <ele>1310.8</ele>
        <time>2021-09-07T09:48:37Z</time>
      </trkpt>
      <trkpt lat="44.49124" lon="5.49455">
        <ele>1310.8</ele>
        <time>2021-09-07T09:48:38Z</time>
      </trkpt>
      <trkpt lat="44.49124" lon="5.49455">
        <ele>1310.8</ele>
        <time>2021-09-07T09:48:39Z</time>
      </trkpt>
      <trkpt lat="44.49124" lon="5.49455">
        <ele>1310.8</ele>
        <time>2021-09-07T09:48:40Z</time>
      </trkpt>
      <trkpt lat="44.49124" lon="5.49454">
        <ele>1310.9</ele>
        <time>2021-09-07T09:48:41Z</time>
      </trkpt>
      <trkpt lat="44.49124" lon="5.49454">
        <ele>1310.9</ele>
        <time>2021-09-07T09:48:42Z</time>
      </trkpt>
      <trkpt lat="44.49125" lon="5.49453">
        <ele>1311.1</ele>
        <time>2021-09-07T09:48:43Z</time>
      </trkpt>
      <trkpt lat="44.49125" lon="5.49451">
        <ele>1311.3</ele>
        <time>2021-09-07T09:48:44Z</time>
      </trkpt>
      <trkpt lat="44.49125" lon="5.49448">
        <ele>1311.6</ele>
        <time>2021-09-07T09:48:45Z</time>
      </trkpt>
      <trkpt lat="44.49126" lon="5.49447">
        <ele>1311.8</ele>
        <time>2021-09-07T09:48:46Z</time>
      </trkpt>
      <trkpt lat="44.49126" lon="5.49446">
        <ele>1312</ele>
        <time>2021-09-07T09:48:47Z</time>
      </trkpt>
      <trkpt lat="44.49126" lon="5.49444">
        <ele>1312.2</ele>
        <time>2021-09-07T09:48:48Z</time>
      </trkpt>
      <trkpt lat="44.49126" lon="5.49443">
        <ele>1312.3</ele>
        <time>2021-09-07T09:48:49Z</time>
      </trkpt>
      <trkpt lat="44.49126" lon="5.49442">
        <ele>1312.4</ele>
        <time>2021-09-07T09:48:50Z</time>
      </trkpt>
      <trkpt lat="44.49126" lon="5.49442">
        <ele>1312.4</ele>
        <time>2021-09-07T09:48:51Z</time>
      </trkpt>
      <trkpt lat="44.49126" lon="5.49441">
        <ele>1312.5</ele>
        <time>2021-09-07T09:48:52Z</time>
      </trkpt>
      <trkpt lat="44.49126" lon="5.49441">
        <ele>1312.5</ele>
        <time>2021-09-07T09:48:53Z</time>
      </trkpt>
      <trkpt lat="44.49126" lon="5.4944">
        <ele>1312.6</ele>
        <time>2021-09-07T09:48:54Z</time>
      </trkpt>
      <trkpt lat="44.49126" lon="5.4944">
        <ele>1312.6</ele>
        <time>2021-09-07T09:48:55Z</time>
      </trkpt>
      <trkpt lat="44.49126" lon="5.4944">
        <ele>1312.6</ele>
        <time>2021-09-07T09:48:56Z</time>
      </trkpt>
      <trkpt lat="44.49126" lon="5.4944">
        <ele>1312.7</ele>
        <time>2021-09-07T09:48:57Z</time>
      </trkpt>
      <trkpt lat="44.49126" lon="5.49439">
        <ele>1312.7</ele>
        <time>2021-09-07T09:48:58Z</time>
      </trkpt>
      <trkpt lat="44.49126" lon="5.49439">
        <ele>1312.7</ele>
        <time>2021-09-07T09:48:59Z</time>
      </trkpt>
      <trkpt lat="44.49126" lon="5.49439">
        <ele>1312.7</ele>
        <time>2021-09-07T09:49:00Z</time>
      </trkpt>
      <trkpt lat="44.49126" lon="5.49439">
        <ele>1312.8</ele>
        <time>2021-09-07T09:49:01Z</time>
      </trkpt>
      <trkpt lat="44.49126" lon="5.49438">
        <ele>1312.8</ele>
        <time>2021-09-07T09:49:02Z</time>
      </trkpt>
      <trkpt lat="44.49126" lon="5.49438">
        <ele>1312.8</ele>
        <time>2021-09-07T09:49:03Z</time>
      </trkpt>
      <trkpt lat="44.49126" lon="5.49438">
        <ele>1312.8</ele>
        <time>2021-09-07T09:49:04Z</time>
      </trkpt>
      <trkpt lat="44.49126" lon="5.49438">
        <ele>1312.8</ele>
        <time>2021-09-07T09:49:05Z</time>
      </trkpt>
      <trkpt lat="44.49126" lon="5.49438">
        <ele>1312.8</ele>
        <time>2021-09-07T09:49:06Z</time>
      </trkpt>
      <trkpt lat="44.49126" lon="5.49438">
        <ele>1312.8</ele>
        <time>2021-09-07T09:49:07Z</time>
      </trkpt>
      <trkpt lat="44.49126" lon="5.49438">
        <ele>1312.8</ele>
        <time>2021-09-07T09:49:08Z</time>
      </trkpt>
      <trkpt lat="44.49126" lon="5.49438">
        <ele>1312.8</ele>
        <time>2021-09-07T09:49:09Z</time>
      </trkpt>
      <trkpt lat="44.49126" lon="5.49438">
        <ele>1312.9</ele>
        <time>2021-09-07T09:49:10Z</time>
      </trkpt>
      <trkpt lat="44.49126" lon="5.49437">
        <ele>1312.9</ele>
        <time>2021-09-07T09:49:11Z</time>
      </trkpt>
      <trkpt lat="44.49126" lon="5.49437">
        <ele>1312.9</ele>
        <time>2021-09-07T09:49:12Z</time>
      </trkpt>
      <trkpt lat="44.49126" lon="5.49437">
        <ele>1312.9</ele>
        <time>2021-09-07T09:49:13Z</time>
      </trkpt>
      <trkpt lat="44.49126" lon="5.49437">
        <ele>1313</ele>
        <time>2021-09-07T09:49:14Z</time>
      </trkpt>
      <trkpt lat="44.49126" lon="5.49436">
        <ele>1313</ele>
        <time>2021-09-07T09:49:15Z</time>
      </trkpt>
      <trkpt lat="44.49125" lon="5.49435">
        <ele>1313.2</ele>
        <time>2021-09-07T09:49:16Z</time>
      </trkpt>
      <trkpt lat="44.49125" lon="5.49433">
        <ele>1313.5</ele>
        <time>2021-09-07T09:49:17Z</time>
      </trkpt>
      <trkpt lat="44.49125" lon="5.49431">
        <ele>1313.7</ele>
        <time>2021-09-07T09:49:18Z</time>
      </trkpt>
      <trkpt lat="44.49125" lon="5.49429">
        <ele>1313.9</ele>
        <time>2021-09-07T09:49:19Z</time>
      </trkpt>
      <trkpt lat="44.49125" lon="5.49426">
        <ele>1314.3</ele>
        <time>2021-09-07T09:49:20Z</time>
      </trkpt>
      <trkpt lat="44.49124" lon="5.49425">
        <ele>1314.4</ele>
        <time>2021-09-07T09:49:21Z</time>
      </trkpt>
      <trkpt lat="44.49124" lon="5.49424">
        <ele>1314.6</ele>
        <time>2021-09-07T09:49:22Z</time>
      </trkpt>
      <trkpt lat="44.49124" lon="5.49423">
        <ele>1314.7</ele>
        <time>2021-09-07T09:49:23Z</time>
      </trkpt>
      <trkpt lat="44.49124" lon="5.49422">
        <ele>1314.8</ele>
        <time>2021-09-07T09:49:24Z</time>
      </trkpt>
      <trkpt lat="44.49124" lon="5.49421">
        <ele>1315</ele>
        <time>2021-09-07T09:49:25Z</time>
      </trkpt>
      <trkpt lat="44.49124" lon="5.49419">
        <ele>1315.1</ele>
        <time>2021-09-07T09:49:26Z</time>
      </trkpt>
      <trkpt lat="44.49124" lon="5.49418">
        <ele>1315.2</ele>
        <time>2021-09-07T09:49:27Z</time>
      </trkpt>
      <trkpt lat="44.49124" lon="5.49418">
        <ele>1315.2</ele>
        <time>2021-09-07T09:49:28Z</time>
      </trkpt>
      <trkpt lat="44.49124" lon="5.49418">
        <ele>1315.3</ele>
        <time>2021-09-07T09:49:29Z</time>
      </trkpt>
      <trkpt lat="44.49124" lon="5.49417">
        <ele>1315.3</ele>
        <time>2021-09-07T09:49:30Z</time>
      </trkpt>
      <trkpt lat="44.49125" lon="5.49417">
        <ele>1315.4</ele>
        <time>2021-09-07T09:49:31Z</time>
      </trkpt>
      <trkpt lat="44.49125" lon="5.49417">
        <ele>1315.5</ele>
        <time>2021-09-07T09:49:32Z</time>
      </trkpt>
      <trkpt lat="44.49125" lon="5.49417">
        <ele>1315.5</ele>
        <time>2021-09-07T09:49:33Z</time>
      </trkpt>
      <trkpt lat="44.49125" lon="5.49417">
        <ele>1315.5</ele>
        <time>2021-09-07T09:49:34Z</time>
      </trkpt>
      <trkpt lat="44.49125" lon="5.49417">
        <ele>1315.5</ele>
        <time>2021-09-07T09:49:35Z</time>
      </trkpt>
      <trkpt lat="44.49125" lon="5.49417">
        <ele>1315.5</ele>
        <time>2021-09-07T09:49:36Z</time>
      </trkpt>
      <trkpt lat="44.49125" lon="5.49417">
        <ele>1315.6</ele>
        <time>2021-09-07T09:49:37Z</time>
      </trkpt>
      <trkpt lat="44.49125" lon="5.49416">
        <ele>1315.6</ele>
        <time>2021-09-07T09:49:38Z</time>
      </trkpt>
      <trkpt lat="44.49125" lon="5.49416">
        <ele>1315.6</ele>
        <time>2021-09-07T09:49:39Z</time>
      </trkpt>
      <trkpt lat="44.49125" lon="5.49416">
        <ele>1315.6</ele>
        <time>2021-09-07T09:49:40Z</time>
      </trkpt>
      <trkpt lat="44.49125" lon="5.49416">
        <ele>1315.6</ele>
        <time>2021-09-07T09:49:41Z</time>
      </trkpt>
      <trkpt lat="44.49125" lon="5.49416">
        <ele>1315.6</ele>
        <time>2021-09-07T09:49:42Z</time>
      </trkpt>
      <trkpt lat="44.49125" lon="5.49416">
        <ele>1315.6</ele>
        <time>2021-09-07T09:49:43Z</time>
      </trkpt>
      <trkpt lat="44.49125" lon="5.49416">
        <ele>1315.6</ele>
        <time>2021-09-07T09:49:44Z</time>
      </trkpt>
      <trkpt lat="44.49125" lon="5.49416">
        <ele>1315.6</ele>
        <time>2021-09-07T09:49:45Z</time>
      </trkpt>
      <trkpt lat="44.49125" lon="5.49416">
        <ele>1315.6</ele>
        <time>2021-09-07T09:49:46Z</time>
      </trkpt>
      <trkpt lat="44.49125" lon="5.49416">
        <ele>1315.6</ele>
        <time>2021-09-07T09:49:47Z</time>
      </trkpt>
      <trkpt lat="44.49125" lon="5.49416">
        <ele>1315.6</ele>
        <time>2021-09-07T09:49:48Z</time>
      </trkpt>
      <trkpt lat="44.49125" lon="5.49416">
        <ele>1315.6</ele>
        <time>2021-09-07T09:49:49Z</time>
      </trkpt>
      <trkpt lat="44.49125" lon="5.49415">
        <ele>1315.7</ele>
        <time>2021-09-07T09:49:50Z</time>
      </trkpt>
      <trkpt lat="44.49125" lon="5.49415">
        <ele>1315.7</ele>
        <time>2021-09-07T09:49:51Z</time>
      </trkpt>
      <trkpt lat="44.49125" lon="5.49415">
        <ele>1315.7</ele>
        <time>2021-09-07T09:49:52Z</time>
      </trkpt>
      <trkpt lat="44.49125" lon="5.49415">
        <ele>1315.7</ele>
        <time>2021-09-07T09:49:53Z</time>
      </trkpt>
      <trkpt lat="44.49125" lon="5.49415">
        <ele>1315.7</ele>
        <time>2021-09-07T09:49:54Z</time>
      </trkpt>
      <trkpt lat="44.49125" lon="5.49415">
        <ele>1315.7</ele>
        <time>2021-09-07T09:49:55Z</time>
      </trkpt>
      <trkpt lat="44.49125" lon="5.49415">
        <ele>1315.7</ele>
        <time>2021-09-07T09:49:56Z</time>
      </trkpt>
      <trkpt lat="44.49125" lon="5.49415">
        <ele>1315.7</ele>
        <time>2021-09-07T09:49:57Z</time>
      </trkpt>
      <trkpt lat="44.49124" lon="5.49415">
        <ele>1315.9</ele>
        <time>2021-09-07T09:49:58Z</time>
      </trkpt>
      <trkpt lat="44.49124" lon="5.49415">
        <ele>1315.9</ele>
        <time>2021-09-07T09:49:59Z</time>
      </trkpt>
      <trkpt lat="44.49124" lon="5.49415">
        <ele>1315.9</ele>
        <time>2021-09-07T09:50:00Z</time>
      </trkpt>
      <trkpt lat="44.49124" lon="5.49414">
        <ele>1316</ele>
        <time>2021-09-07T09:50:01Z</time>
      </trkpt>
      <trkpt lat="44.49124" lon="5.49411">
        <ele>1316.3</ele>
        <time>2021-09-07T09:50:02Z</time>
      </trkpt>
      <trkpt lat="44.49124" lon="5.4941">
        <ele>1316.5</ele>
        <time>2021-09-07T09:50:03Z</time>
      </trkpt>
      <trkpt lat="44.49124" lon="5.49408">
        <ele>1316.7</ele>
        <time>2021-09-07T09:50:04Z</time>
      </trkpt>
      <trkpt lat="44.49124" lon="5.49406">
        <ele>1316.9</ele>
        <time>2021-09-07T09:50:05Z</time>
      </trkpt>
      <trkpt lat="44.49124" lon="5.49405">
        <ele>1317</ele>
        <time>2021-09-07T09:50:06Z</time>
      </trkpt>
      <trkpt lat="44.49124" lon="5.49404">
        <ele>1317.1</ele>
        <time>2021-09-07T09:50:07Z</time>
      </trkpt>
      <trkpt lat="44.49124" lon="5.49404">
        <ele>1317.1</ele>
        <time>2021-09-07T09:50:08Z</time>
      </trkpt>
      <trkpt lat="44.49124" lon="5.49403">
        <ele>1317.2</ele>
        <time>2021-09-07T09:50:09Z</time>
      </trkpt>
      <trkpt lat="44.49124" lon="5.49402">
        <ele>1317.4</ele>
        <time>2021-09-07T09:50:10Z</time>
      </trkpt>
      <trkpt lat="44.49124" lon="5.49402">
        <ele>1317.4</ele>
        <time>2021-09-07T09:50:11Z</time>
      </trkpt>
      <trkpt lat="44.49124" lon="5.49402">
        <ele>1317.4</ele>
        <time>2021-09-07T09:50:12Z</time>
      </trkpt>
      <trkpt lat="44.49125" lon="5.49402">
        <ele>1317.4</ele>
        <time>2021-09-07T09:50:13Z</time>
      </trkpt>
      <trkpt lat="44.49125" lon="5.49401">
        <ele>1317.5</ele>
        <time>2021-09-07T09:50:14Z</time>
      </trkpt>
      <trkpt lat="44.49125" lon="5.49401">
        <ele>1317.5</ele>
        <time>2021-09-07T09:50:15Z</time>
      </trkpt>
      <trkpt lat="44.49125" lon="5.49401">
        <ele>1317.5</ele>
        <time>2021-09-07T09:50:16Z</time>
      </trkpt>
      <trkpt lat="44.49125" lon="5.49401">
        <ele>1317.5</ele>
        <time>2021-09-07T09:50:17Z</time>
      </trkpt>
      <trkpt lat="44.49125" lon="5.49401">
        <ele>1317.5</ele>
        <time>2021-09-07T09:50:18Z</time>
      </trkpt>
      <trkpt lat="44.49125" lon="5.49401">
        <ele>1317.6</ele>
        <time>2021-09-07T09:50:19Z</time>
      </trkpt>
      <trkpt lat="44.49125" lon="5.494">
        <ele>1317.7</ele>
        <time>2021-09-07T09:50:20Z</time>
      </trkpt>
      <trkpt lat="44.49125" lon="5.494">
        <ele>1317.7</ele>
        <time>2021-09-07T09:50:21Z</time>
      </trkpt>
      <trkpt lat="44.49125" lon="5.494">
        <ele>1317.7</ele>
        <time>2021-09-07T09:50:22Z</time>
      </trkpt>
      <trkpt lat="44.49125" lon="5.494">
        <ele>1317.7</ele>
        <time>2021-09-07T09:50:23Z</time>
      </trkpt>
      <trkpt lat="44.49126" lon="5.494">
        <ele>1317.8</ele>
        <time>2021-09-07T09:50:24Z</time>
      </trkpt>
      <trkpt lat="44.49126" lon="5.49399">
        <ele>1317.9</ele>
        <time>2021-09-07T09:50:25Z</time>
      </trkpt>
      <trkpt lat="44.49127" lon="5.49398">
        <ele>1318</ele>
        <time>2021-09-07T09:50:26Z</time>
      </trkpt>
      <trkpt lat="44.49128" lon="5.49397">
        <ele>1318.2</ele>
        <time>2021-09-07T09:50:27Z</time>
      </trkpt>
      <trkpt lat="44.49128" lon="5.49395">
        <ele>1318.4</ele>
        <time>2021-09-07T09:50:28Z</time>
      </trkpt>
      <trkpt lat="44.49128" lon="5.49394">
        <ele>1318.5</ele>
        <time>2021-09-07T09:50:29Z</time>
      </trkpt>
      <trkpt lat="44.49128" lon="5.49394">
        <ele>1318.5</ele>
        <time>2021-09-07T09:50:30Z</time>
      </trkpt>
      <trkpt lat="44.49129" lon="5.49394">
        <ele>1318.6</ele>
        <time>2021-09-07T09:50:31Z</time>
      </trkpt>
      <trkpt lat="44.49129" lon="5.49393">
        <ele>1318.7</ele>
        <time>2021-09-07T09:50:32Z</time>
      </trkpt>
      <trkpt lat="44.49129" lon="5.49393">
        <ele>1318.8</ele>
        <time>2021-09-07T09:50:33Z</time>
      </trkpt>
      <trkpt lat="44.49129" lon="5.49392">
        <ele>1318.8</ele>
        <time>2021-09-07T09:50:34Z</time>
      </trkpt>
      <trkpt lat="44.49129" lon="5.49392">
        <ele>1318.8</ele>
        <time>2021-09-07T09:50:35Z</time>
      </trkpt>
      <trkpt lat="44.49129" lon="5.49392">
        <ele>1318.8</ele>
        <time>2021-09-07T09:50:36Z</time>
      </trkpt>
      <trkpt lat="44.49129" lon="5.49391">
        <ele>1318.9</ele>
        <time>2021-09-07T09:50:37Z</time>
      </trkpt>
      <trkpt lat="44.49129" lon="5.49391">
        <ele>1318.9</ele>
        <time>2021-09-07T09:50:38Z</time>
      </trkpt>
      <trkpt lat="44.49129" lon="5.49391">
        <ele>1318.9</ele>
        <time>2021-09-07T09:50:39Z</time>
      </trkpt>
      <trkpt lat="44.49129" lon="5.49391">
        <ele>1318.9</ele>
        <time>2021-09-07T09:50:40Z</time>
      </trkpt>
      <trkpt lat="44.49129" lon="5.49391">
        <ele>1318.9</ele>
        <time>2021-09-07T09:50:41Z</time>
      </trkpt>
      <trkpt lat="44.4913" lon="5.49391">
        <ele>1319.1</ele>
        <time>2021-09-07T09:50:42Z</time>
      </trkpt>
      <trkpt lat="44.4913" lon="5.49391">
        <ele>1319.1</ele>
        <time>2021-09-07T09:50:43Z</time>
      </trkpt>
      <trkpt lat="44.4913" lon="5.49391">
        <ele>1319.1</ele>
        <time>2021-09-07T09:50:44Z</time>
      </trkpt>
      <trkpt lat="44.4913" lon="5.49391">
        <ele>1319.1</ele>
        <time>2021-09-07T09:50:45Z</time>
      </trkpt>
      <trkpt lat="44.4913" lon="5.49391">
        <ele>1319.1</ele>
        <time>2021-09-07T09:50:46Z</time>
      </trkpt>
      <trkpt lat="44.4913" lon="5.49391">
        <ele>1319.1</ele>
        <time>2021-09-07T09:50:47Z</time>
      </trkpt>
      <trkpt lat="44.4913" lon="5.49392">
        <ele>1319.2</ele>
        <time>2021-09-07T09:50:48Z</time>
      </trkpt>
      <trkpt lat="44.49131" lon="5.49392">
        <ele>1319.3</ele>
        <time>2021-09-07T09:50:49Z</time>
      </trkpt>
      <trkpt lat="44.49131" lon="5.49392">
        <ele>1319.4</ele>
        <time>2021-09-07T09:50:50Z</time>
      </trkpt>
      <trkpt lat="44.49131" lon="5.49392">
        <ele>1319.4</ele>
        <time>2021-09-07T09:50:51Z</time>
      </trkpt>
      <trkpt lat="44.49131" lon="5.49392">
        <ele>1319.4</ele>
        <time>2021-09-07T09:50:52Z</time>
      </trkpt>
      <trkpt lat="44.49131" lon="5.49392">
        <ele>1319.4</ele>
        <time>2021-09-07T09:50:53Z</time>
      </trkpt>
      <trkpt lat="44.49131" lon="5.49392">
        <ele>1319.4</ele>
        <time>2021-09-07T09:50:54Z</time>
      </trkpt>
      <trkpt lat="44.49131" lon="5.49392">
        <ele>1319.4</ele>
        <time>2021-09-07T09:50:55Z</time>
      </trkpt>
      <trkpt lat="44.49131" lon="5.49392">
        <ele>1319.4</ele>
        <time>2021-09-07T09:50:56Z</time>
      </trkpt>
      <trkpt lat="44.49131" lon="5.49392">
        <ele>1319.4</ele>
        <time>2021-09-07T09:50:57Z</time>
      </trkpt>
      <trkpt lat="44.49131" lon="5.49392">
        <ele>1319.4</ele>
        <time>2021-09-07T09:50:58Z</time>
      </trkpt>
      <trkpt lat="44.49131" lon="5.49392">
        <ele>1319.4</ele>
        <time>2021-09-07T09:50:59Z</time>
      </trkpt>
      <trkpt lat="44.4913" lon="5.49392">
        <ele>1319.5</ele>
        <time>2021-09-07T09:51:00Z</time>
      </trkpt>
      <trkpt lat="44.4913" lon="5.4939">
        <ele>1319.8</ele>
        <time>2021-09-07T09:51:01Z</time>
      </trkpt>
      <trkpt lat="44.4913" lon="5.49387">
        <ele>1320.1</ele>
        <time>2021-09-07T09:51:02Z</time>
      </trkpt>
      <trkpt lat="44.4913" lon="5.49386">
        <ele>1320.2</ele>
        <time>2021-09-07T09:51:03Z</time>
      </trkpt>
      <trkpt lat="44.4913" lon="5.49385">
        <ele>1320.3</ele>
        <time>2021-09-07T09:51:04Z</time>
      </trkpt>
      <trkpt lat="44.4913" lon="5.49384">
        <ele>1320.4</ele>
        <time>2021-09-07T09:51:05Z</time>
      </trkpt>
      <trkpt lat="44.4913" lon="5.49383">
        <ele>1320.5</ele>
        <time>2021-09-07T09:51:06Z</time>
      </trkpt>
      <trkpt lat="44.4913" lon="5.49382">
        <ele>1320.7</ele>
        <time>2021-09-07T09:51:07Z</time>
      </trkpt>
      <trkpt lat="44.4913" lon="5.4938">
        <ele>1320.9</ele>
        <time>2021-09-07T09:51:08Z</time>
      </trkpt>
      <trkpt lat="44.49129" lon="5.49379">
        <ele>1321.1</ele>
        <time>2021-09-07T09:51:09Z</time>
      </trkpt>
      <trkpt lat="44.49128" lon="5.49378">
        <ele>1321.3</ele>
        <time>2021-09-07T09:51:10Z</time>
      </trkpt>
      <trkpt lat="44.49127" lon="5.49376">
        <ele>1321.5</ele>
        <time>2021-09-07T09:51:11Z</time>
      </trkpt>
      <trkpt lat="44.49126" lon="5.49375">
        <ele>1321.7</ele>
        <time>2021-09-07T09:51:12Z</time>
      </trkpt>
      <trkpt lat="44.49126" lon="5.49374">
        <ele>1321.9</ele>
        <time>2021-09-07T09:51:13Z</time>
      </trkpt>
      <trkpt lat="44.49125" lon="5.49373">
        <ele>1322</ele>
        <time>2021-09-07T09:51:14Z</time>
      </trkpt>
      <trkpt lat="44.49124" lon="5.49372">
        <ele>1322.2</ele>
        <time>2021-09-07T09:51:15Z</time>
      </trkpt>
      <trkpt lat="44.49123" lon="5.49371">
        <ele>1322.4</ele>
        <time>2021-09-07T09:51:16Z</time>
      </trkpt>
      <trkpt lat="44.49123" lon="5.49371">
        <ele>1322.5</ele>
        <time>2021-09-07T09:51:17Z</time>
      </trkpt>
      <trkpt lat="44.49122" lon="5.4937">
        <ele>1322.6</ele>
        <time>2021-09-07T09:51:18Z</time>
      </trkpt>
      <trkpt lat="44.49122" lon="5.49369">
        <ele>1322.7</ele>
        <time>2021-09-07T09:51:19Z</time>
      </trkpt>
      <trkpt lat="44.49122" lon="5.49369">
        <ele>1322.7</ele>
        <time>2021-09-07T09:51:20Z</time>
      </trkpt>
      <trkpt lat="44.49121" lon="5.49369">
        <ele>1322.7</ele>
        <time>2021-09-07T09:51:21Z</time>
      </trkpt>
      <trkpt lat="44.49121" lon="5.49369">
        <ele>1322.7</ele>
        <time>2021-09-07T09:51:22Z</time>
      </trkpt>
      <trkpt lat="44.49121" lon="5.49369">
        <ele>1322.7</ele>
        <time>2021-09-07T09:51:23Z</time>
      </trkpt>
      <trkpt lat="44.49121" lon="5.49369">
        <ele>1322.7</ele>
        <time>2021-09-07T09:51:24Z</time>
      </trkpt>
      <trkpt lat="44.49121" lon="5.49368">
        <ele>1322.8</ele>
        <time>2021-09-07T09:51:25Z</time>
      </trkpt>
      <trkpt lat="44.49122" lon="5.49366">
        <ele>1322.8</ele>
        <time>2021-09-07T09:51:26Z</time>
      </trkpt>
      <trkpt lat="44.49122" lon="5.49364">
        <ele>1322.8</ele>
        <time>2021-09-07T09:51:27Z</time>
      </trkpt>
      <trkpt lat="44.49122" lon="5.49362">
        <ele>1322.9</ele>
        <time>2021-09-07T09:51:28Z</time>
      </trkpt>
      <trkpt lat="44.49123" lon="5.4936">
        <ele>1322.9</ele>
        <time>2021-09-07T09:51:29Z</time>
      </trkpt>
      <trkpt lat="44.49123" lon="5.49358">
        <ele>1323</ele>
        <time>2021-09-07T09:51:30Z</time>
      </trkpt>
      <trkpt lat="44.49123" lon="5.49358">
        <ele>1323</ele>
        <time>2021-09-07T09:51:31Z</time>
      </trkpt>
      <trkpt lat="44.49123" lon="5.49358">
        <ele>1323</ele>
        <time>2021-09-07T09:51:32Z</time>
      </trkpt>
      <trkpt lat="44.49123" lon="5.49357">
        <ele>1323</ele>
        <time>2021-09-07T09:51:33Z</time>
      </trkpt>
      <trkpt lat="44.49123" lon="5.49356">
        <ele>1323</ele>
        <time>2021-09-07T09:51:34Z</time>
      </trkpt>
      <trkpt lat="44.49123" lon="5.49356">
        <ele>1323</ele>
        <time>2021-09-07T09:51:35Z</time>
      </trkpt>
      <trkpt lat="44.49123" lon="5.49356">
        <ele>1323</ele>
        <time>2021-09-07T09:51:36Z</time>
      </trkpt>
      <trkpt lat="44.49123" lon="5.49356">
        <ele>1323</ele>
        <time>2021-09-07T09:51:37Z</time>
      </trkpt>
      <trkpt lat="44.49123" lon="5.49355">
        <ele>1323</ele>
        <time>2021-09-07T09:51:38Z</time>
      </trkpt>
      <trkpt lat="44.49124" lon="5.49354">
        <ele>1323.1</ele>
        <time>2021-09-07T09:51:39Z</time>
      </trkpt>
      <trkpt lat="44.49124" lon="5.49353">
        <ele>1323.1</ele>
        <time>2021-09-07T09:51:40Z</time>
      </trkpt>
      <trkpt lat="44.49125" lon="5.4935">
        <ele>1323.2</ele>
        <time>2021-09-07T09:51:41Z</time>
      </trkpt>
      <trkpt lat="44.49126" lon="5.49349">
        <ele>1323.2</ele>
        <time>2021-09-07T09:51:42Z</time>
      </trkpt>
      <trkpt lat="44.49126" lon="5.49348">
        <ele>1323.2</ele>
        <time>2021-09-07T09:51:43Z</time>
      </trkpt>
      <trkpt lat="44.49127" lon="5.49346">
        <ele>1323.3</ele>
        <time>2021-09-07T09:51:44Z</time>
      </trkpt>
      <trkpt lat="44.49127" lon="5.49346">
        <ele>1323.3</ele>
        <time>2021-09-07T09:51:45Z</time>
      </trkpt>
      <trkpt lat="44.49127" lon="5.49345">
        <ele>1323.3</ele>
        <time>2021-09-07T09:51:46Z</time>
      </trkpt>
      <trkpt lat="44.49128" lon="5.49345">
        <ele>1323.3</ele>
        <time>2021-09-07T09:51:47Z</time>
      </trkpt>
      <trkpt lat="44.49128" lon="5.49344">
        <ele>1323.3</ele>
        <time>2021-09-07T09:51:48Z</time>
      </trkpt>
      <trkpt lat="44.49128" lon="5.49344">
        <ele>1323.3</ele>
        <time>2021-09-07T09:51:49Z</time>
      </trkpt>
      <trkpt lat="44.49128" lon="5.49343">
        <ele>1323.3</ele>
        <time>2021-09-07T09:51:50Z</time>
      </trkpt>
      <trkpt lat="44.49129" lon="5.49343">
        <ele>1323.4</ele>
        <time>2021-09-07T09:51:51Z</time>
      </trkpt>
      <trkpt lat="44.49129" lon="5.49343">
        <ele>1323.4</ele>
        <time>2021-09-07T09:51:52Z</time>
      </trkpt>
      <trkpt lat="44.49129" lon="5.49342">
        <ele>1323.4</ele>
        <time>2021-09-07T09:51:53Z</time>
      </trkpt>
      <trkpt lat="44.49129" lon="5.49342">
        <ele>1323.4</ele>
        <time>2021-09-07T09:51:54Z</time>
      </trkpt>
      <trkpt lat="44.49129" lon="5.49342">
        <ele>1323.4</ele>
        <time>2021-09-07T09:51:55Z</time>
      </trkpt>
      <trkpt lat="44.49129" lon="5.49342">
        <ele>1323.4</ele>
        <time>2021-09-07T09:51:56Z</time>
      </trkpt>
      <trkpt lat="44.49129" lon="5.49341">
        <ele>1323.4</ele>
        <time>2021-09-07T09:51:57Z</time>
      </trkpt>
      <trkpt lat="44.49129" lon="5.4934">
        <ele>1323.4</ele>
        <time>2021-09-07T09:51:58Z</time>
      </trkpt>
      <trkpt lat="44.4913" lon="5.49338">
        <ele>1323.5</ele>
        <time>2021-09-07T09:51:59Z</time>
      </trkpt>
      <trkpt lat="44.4913" lon="5.49334">
        <ele>1323.6</ele>
        <time>2021-09-07T09:52:00Z</time>
      </trkpt>
      <trkpt lat="44.49131" lon="5.49332">
        <ele>1323.6</ele>
        <time>2021-09-07T09:52:01Z</time>
      </trkpt>
      <trkpt lat="44.49131" lon="5.49331">
        <ele>1323.6</ele>
        <time>2021-09-07T09:52:02Z</time>
      </trkpt>
      <trkpt lat="44.49131" lon="5.4933">
        <ele>1323.7</ele>
        <time>2021-09-07T09:52:03Z</time>
      </trkpt>
      <trkpt lat="44.49132" lon="5.49328">
        <ele>1323.7</ele>
        <time>2021-09-07T09:52:04Z</time>
      </trkpt>
      <trkpt lat="44.49132" lon="5.49327">
        <ele>1323.7</ele>
        <time>2021-09-07T09:52:05Z</time>
      </trkpt>
      <trkpt lat="44.49132" lon="5.49326">
        <ele>1323.7</ele>
        <time>2021-09-07T09:52:06Z</time>
      </trkpt>
      <trkpt lat="44.49132" lon="5.49325">
        <ele>1323.8</ele>
        <time>2021-09-07T09:52:07Z</time>
      </trkpt>
      <trkpt lat="44.49133" lon="5.49324">
        <ele>1323.8</ele>
        <time>2021-09-07T09:52:08Z</time>
      </trkpt>
      <trkpt lat="44.49133" lon="5.49324">
        <ele>1323.8</ele>
        <time>2021-09-07T09:52:09Z</time>
      </trkpt>
      <trkpt lat="44.49133" lon="5.49324">
        <ele>1323.8</ele>
        <time>2021-09-07T09:52:10Z</time>
      </trkpt>
      <trkpt lat="44.49133" lon="5.49324">
        <ele>1323.8</ele>
        <time>2021-09-07T09:52:11Z</time>
      </trkpt>
      <trkpt lat="44.49133" lon="5.49323">
        <ele>1323.8</ele>
        <time>2021-09-07T09:52:12Z</time>
      </trkpt>
      <trkpt lat="44.49133" lon="5.49322">
        <ele>1323.8</ele>
        <time>2021-09-07T09:52:13Z</time>
      </trkpt>
      <trkpt lat="44.49134" lon="5.4932">
        <ele>1323.9</ele>
        <time>2021-09-07T09:52:14Z</time>
      </trkpt>
      <trkpt lat="44.49134" lon="5.49317">
        <ele>1324</ele>
        <time>2021-09-07T09:52:15Z</time>
      </trkpt>
      <trkpt lat="44.49135" lon="5.49316">
        <ele>1324</ele>
        <time>2021-09-07T09:52:16Z</time>
      </trkpt>
      <trkpt lat="44.49135" lon="5.49315">
        <ele>1324</ele>
        <time>2021-09-07T09:52:17Z</time>
      </trkpt>
      <trkpt lat="44.49135" lon="5.49314">
        <ele>1324</ele>
        <time>2021-09-07T09:52:18Z</time>
      </trkpt>
      <trkpt lat="44.49136" lon="5.49312">
        <ele>1324.1</ele>
        <time>2021-09-07T09:52:19Z</time>
      </trkpt>
      <trkpt lat="44.49136" lon="5.49312">
        <ele>1324.1</ele>
        <time>2021-09-07T09:52:20Z</time>
      </trkpt>
      <trkpt lat="44.49136" lon="5.49311">
        <ele>1324.1</ele>
        <time>2021-09-07T09:52:21Z</time>
      </trkpt>
      <trkpt lat="44.49136" lon="5.4931">
        <ele>1324.1</ele>
        <time>2021-09-07T09:52:22Z</time>
      </trkpt>
      <trkpt lat="44.49136" lon="5.4931">
        <ele>1324.1</ele>
        <time>2021-09-07T09:52:23Z</time>
      </trkpt>
      <trkpt lat="44.49136" lon="5.4931">
        <ele>1324.1</ele>
        <time>2021-09-07T09:52:24Z</time>
      </trkpt>
      <trkpt lat="44.49136" lon="5.49309">
        <ele>1324.1</ele>
        <time>2021-09-07T09:52:25Z</time>
      </trkpt>
      <trkpt lat="44.49137" lon="5.49307">
        <ele>1324.2</ele>
        <time>2021-09-07T09:52:26Z</time>
      </trkpt>
      <trkpt lat="44.49138" lon="5.49305">
        <ele>1324.2</ele>
        <time>2021-09-07T09:52:27Z</time>
      </trkpt>
      <trkpt lat="44.49138" lon="5.49303">
        <ele>1324.3</ele>
        <time>2021-09-07T09:52:28Z</time>
      </trkpt>
      <trkpt lat="44.49139" lon="5.49302">
        <ele>1324.3</ele>
        <time>2021-09-07T09:52:29Z</time>
      </trkpt>
      <trkpt lat="44.49139" lon="5.493">
        <ele>1324.3</ele>
        <time>2021-09-07T09:52:30Z</time>
      </trkpt>
      <trkpt lat="44.4914" lon="5.49299">
        <ele>1324.4</ele>
        <time>2021-09-07T09:52:31Z</time>
      </trkpt>
      <trkpt lat="44.4914" lon="5.49297">
        <ele>1324.4</ele>
        <time>2021-09-07T09:52:32Z</time>
      </trkpt>
      <trkpt lat="44.49142" lon="5.49293">
        <ele>1324.5</ele>
        <time>2021-09-07T09:52:33Z</time>
      </trkpt>
      <trkpt lat="44.49144" lon="5.4929">
        <ele>1324.6</ele>
        <time>2021-09-07T09:52:34Z</time>
      </trkpt>
      <trkpt lat="44.49145" lon="5.49289">
        <ele>1324.6</ele>
        <time>2021-09-07T09:52:35Z</time>
      </trkpt>
      <trkpt lat="44.49145" lon="5.49287">
        <ele>1324.7</ele>
        <time>2021-09-07T09:52:36Z</time>
      </trkpt>
      <trkpt lat="44.49146" lon="5.49284">
        <ele>1324.7</ele>
        <time>2021-09-07T09:52:37Z</time>
      </trkpt>
      <trkpt lat="44.49147" lon="5.49283">
        <ele>1324.8</ele>
        <time>2021-09-07T09:52:38Z</time>
      </trkpt>
      <trkpt lat="44.49148" lon="5.49281">
        <ele>1324.8</ele>
        <time>2021-09-07T09:52:39Z</time>
      </trkpt>
      <trkpt lat="44.4915" lon="5.49278">
        <ele>1324.9</ele>
        <time>2021-09-07T09:52:40Z</time>
      </trkpt>
      <trkpt lat="44.49151" lon="5.49277">
        <ele>1324.9</ele>
        <time>2021-09-07T09:52:41Z</time>
      </trkpt>
      <trkpt lat="44.49151" lon="5.49275">
        <ele>1325</ele>
        <time>2021-09-07T09:52:42Z</time>
      </trkpt>
      <trkpt lat="44.49152" lon="5.49274">
        <ele>1325</ele>
        <time>2021-09-07T09:52:43Z</time>
      </trkpt>
      <trkpt lat="44.49152" lon="5.49273">
        <ele>1325</ele>
        <time>2021-09-07T09:52:44Z</time>
      </trkpt>
      <trkpt lat="44.49153" lon="5.49274">
        <ele>1325.1</ele>
        <time>2021-09-07T09:52:45Z</time>
      </trkpt>
      <trkpt lat="44.49154" lon="5.49274">
        <ele>1325.1</ele>
        <time>2021-09-07T09:52:46Z</time>
      </trkpt>
      <trkpt lat="44.49154" lon="5.49274">
        <ele>1325.1</ele>
        <time>2021-09-07T09:52:47Z</time>
      </trkpt>
      <trkpt lat="44.49154" lon="5.49274">
        <ele>1325.1</ele>
        <time>2021-09-07T09:52:48Z</time>
      </trkpt>
      <trkpt lat="44.49154" lon="5.49274">
        <ele>1325.1</ele>
        <time>2021-09-07T09:52:49Z</time>
      </trkpt>
      <trkpt lat="44.49154" lon="5.49274">
        <ele>1325.1</ele>
        <time>2021-09-07T09:52:50Z</time>
      </trkpt>
      <trkpt lat="44.49154" lon="5.49274">
        <ele>1325.1</ele>
        <time>2021-09-07T09:52:51Z</time>
      </trkpt>
      <trkpt lat="44.49154" lon="5.49274">
        <ele>1325.1</ele>
        <time>2021-09-07T09:52:52Z</time>
      </trkpt>
      <trkpt lat="44.49154" lon="5.49274">
        <ele>1325.1</ele>
        <time>2021-09-07T09:52:53Z</time>
      </trkpt>
      <trkpt lat="44.49154" lon="5.49274">
        <ele>1325.1</ele>
        <time>2021-09-07T09:52:54Z</time>
      </trkpt>
      <trkpt lat="44.49154" lon="5.49274">
        <ele>1325.1</ele>
        <time>2021-09-07T09:52:55Z</time>
      </trkpt>
      <trkpt lat="44.49154" lon="5.49273">
        <ele>1325.1</ele>
        <time>2021-09-07T09:52:56Z</time>
      </trkpt>
      <trkpt lat="44.49154" lon="5.49273">
        <ele>1325.1</ele>
        <time>2021-09-07T09:52:57Z</time>
      </trkpt>
      <trkpt lat="44.49154" lon="5.49273">
        <ele>1325.1</ele>
        <time>2021-09-07T09:52:58Z</time>
      </trkpt>
      <trkpt lat="44.49154" lon="5.49273">
        <ele>1325.1</ele>
        <time>2021-09-07T09:52:59Z</time>
      </trkpt>
      <trkpt lat="44.49154" lon="5.49273">
        <ele>1325.1</ele>
        <time>2021-09-07T09:53:00Z</time>
      </trkpt>
      <trkpt lat="44.49154" lon="5.49273">
        <ele>1325.1</ele>
        <time>2021-09-07T09:53:01Z</time>
      </trkpt>
      <trkpt lat="44.49153" lon="5.49272">
        <ele>1325.1</ele>
        <time>2021-09-07T09:53:02Z</time>
      </trkpt>
      <trkpt lat="44.49152" lon="5.49272">
        <ele>1325.2</ele>
        <time>2021-09-07T09:53:03Z</time>
      </trkpt>
      <trkpt lat="44.49151" lon="5.49271">
        <ele>1325.2</ele>
        <time>2021-09-07T09:53:04Z</time>
      </trkpt>
      <trkpt lat="44.49149" lon="5.49267">
        <ele>1325.3</ele>
        <time>2021-09-07T09:53:05Z</time>
      </trkpt>
      <trkpt lat="44.49149" lon="5.49266">
        <ele>1325.3</ele>
        <time>2021-09-07T09:53:06Z</time>
      </trkpt>
      <trkpt lat="44.49148" lon="5.49265">
        <ele>1325.4</ele>
        <time>2021-09-07T09:53:07Z</time>
      </trkpt>
      <trkpt lat="44.49147" lon="5.49263">
        <ele>1325.4</ele>
        <time>2021-09-07T09:53:08Z</time>
      </trkpt>
      <trkpt lat="44.49148" lon="5.49261">
        <ele>1325.5</ele>
        <time>2021-09-07T09:53:09Z</time>
      </trkpt>
      <trkpt lat="44.49147" lon="5.49257">
        <ele>1325.5</ele>
        <time>2021-09-07T09:53:10Z</time>
      </trkpt>
      <trkpt lat="44.49145" lon="5.49249">
        <ele>1325.7</ele>
        <time>2021-09-07T09:53:11Z</time>
      </trkpt>
      <trkpt lat="44.49144" lon="5.49245">
        <ele>1325.8</ele>
        <time>2021-09-07T09:53:12Z</time>
      </trkpt>
      <trkpt lat="44.49142" lon="5.49241">
        <ele>1325.9</ele>
        <time>2021-09-07T09:53:13Z</time>
      </trkpt>
      <trkpt lat="44.49138" lon="5.49228">
        <ele>1326.2</ele>
        <time>2021-09-07T09:53:14Z</time>
      </trkpt>
      <trkpt lat="44.49138" lon="5.4922">
        <ele>1326.4</ele>
        <time>2021-09-07T09:53:15Z</time>
      </trkpt>
      <trkpt lat="44.49138" lon="5.49211">
        <ele>1326.5</ele>
        <time>2021-09-07T09:53:16Z</time>
      </trkpt>
      <trkpt lat="44.49138" lon="5.49204">
        <ele>1326.7</ele>
        <time>2021-09-07T09:53:17Z</time>
      </trkpt>
      <trkpt lat="44.49138" lon="5.49196">
        <ele>1326.8</ele>
        <time>2021-09-07T09:53:18Z</time>
      </trkpt>
      <trkpt lat="44.49139" lon="5.49191">
        <ele>1326.9</ele>
        <time>2021-09-07T09:53:19Z</time>
      </trkpt>
      <trkpt lat="44.4914" lon="5.49185">
        <ele>1327.1</ele>
        <time>2021-09-07T09:53:20Z</time>
      </trkpt>
      <trkpt lat="44.4914" lon="5.49177">
        <ele>1327.2</ele>
        <time>2021-09-07T09:53:21Z</time>
      </trkpt>
      <trkpt lat="44.49141" lon="5.49174">
        <ele>1327.3</ele>
        <time>2021-09-07T09:53:22Z</time>
      </trkpt>
      <trkpt lat="44.49141" lon="5.49171">
        <ele>1327.4</ele>
        <time>2021-09-07T09:53:23Z</time>
      </trkpt>
      <trkpt lat="44.49142" lon="5.49163">
        <ele>1327.5</ele>
        <time>2021-09-07T09:53:24Z</time>
      </trkpt>
      <trkpt lat="44.49144" lon="5.49157">
        <ele>1327.7</ele>
        <time>2021-09-07T09:53:25Z</time>
      </trkpt>
      <trkpt lat="44.49145" lon="5.4915">
        <ele>1327.8</ele>
        <time>2021-09-07T09:53:26Z</time>
      </trkpt>
      <trkpt lat="44.49147" lon="5.49143">
        <ele>1327.9</ele>
        <time>2021-09-07T09:53:27Z</time>
      </trkpt>
      <trkpt lat="44.49148" lon="5.49136">
        <ele>1328.1</ele>
        <time>2021-09-07T09:53:28Z</time>
      </trkpt>
      <trkpt lat="44.49149" lon="5.49129">
        <ele>1328.2</ele>
        <time>2021-09-07T09:53:29Z</time>
      </trkpt>
      <trkpt lat="44.4915" lon="5.49123">
        <ele>1328.4</ele>
        <time>2021-09-07T09:53:30Z</time>
      </trkpt>
      <trkpt lat="44.49151" lon="5.49117">
        <ele>1328.5</ele>
        <time>2021-09-07T09:53:31Z</time>
      </trkpt>
      <trkpt lat="44.49153" lon="5.49111">
        <ele>1328.6</ele>
        <time>2021-09-07T09:53:32Z</time>
      </trkpt>
      <trkpt lat="44.49154" lon="5.49104">
        <ele>1328.8</ele>
        <time>2021-09-07T09:53:33Z</time>
      </trkpt>
      <trkpt lat="44.49155" lon="5.49098">
        <ele>1328.9</ele>
        <time>2021-09-07T09:53:34Z</time>
      </trkpt>
      <trkpt lat="44.49155" lon="5.49092">
        <ele>1329</ele>
        <time>2021-09-07T09:53:35Z</time>
      </trkpt>
      <trkpt lat="44.49154" lon="5.49086">
        <ele>1329.1</ele>
        <time>2021-09-07T09:53:36Z</time>
      </trkpt>
      <trkpt lat="44.49153" lon="5.4908">
        <ele>1329.3</ele>
        <time>2021-09-07T09:53:37Z</time>
      </trkpt>
      <trkpt lat="44.49152" lon="5.49074">
        <ele>1329.4</ele>
        <time>2021-09-07T09:53:38Z</time>
      </trkpt>
      <trkpt lat="44.49151" lon="5.49068">
        <ele>1329.5</ele>
        <time>2021-09-07T09:53:39Z</time>
      </trkpt>
      <trkpt lat="44.4915" lon="5.49061">
        <ele>1329.7</ele>
        <time>2021-09-07T09:53:40Z</time>
      </trkpt>
      <trkpt lat="44.49149" lon="5.49054">
        <ele>1329.8</ele>
        <time>2021-09-07T09:53:41Z</time>
      </trkpt>
      <trkpt lat="44.49147" lon="5.49047">
        <ele>1330</ele>
        <time>2021-09-07T09:53:42Z</time>
      </trkpt>
      <trkpt lat="44.49146" lon="5.49041">
        <ele>1330.1</ele>
        <time>2021-09-07T09:53:43Z</time>
      </trkpt>
      <trkpt lat="44.49144" lon="5.49035">
        <ele>1330.2</ele>
        <time>2021-09-07T09:53:44Z</time>
      </trkpt>
      <trkpt lat="44.49143" lon="5.49028">
        <ele>1330.4</ele>
        <time>2021-09-07T09:53:45Z</time>
      </trkpt>
      <trkpt lat="44.49141" lon="5.4902">
        <ele>1330.5</ele>
        <time>2021-09-07T09:53:46Z</time>
      </trkpt>
      <trkpt lat="44.49139" lon="5.49011">
        <ele>1330.7</ele>
        <time>2021-09-07T09:53:47Z</time>
      </trkpt>
      <trkpt lat="44.49138" lon="5.49003">
        <ele>1330.9</ele>
        <time>2021-09-07T09:53:48Z</time>
      </trkpt>
      <trkpt lat="44.49138" lon="5.48996">
        <ele>1331</ele>
        <time>2021-09-07T09:53:49Z</time>
      </trkpt>
      <trkpt lat="44.49137" lon="5.48989">
        <ele>1331.2</ele>
        <time>2021-09-07T09:53:50Z</time>
      </trkpt>
      <trkpt lat="44.49137" lon="5.48982">
        <ele>1331.3</ele>
        <time>2021-09-07T09:53:51Z</time>
      </trkpt>
      <trkpt lat="44.49137" lon="5.48975">
        <ele>1331.5</ele>
        <time>2021-09-07T09:53:52Z</time>
      </trkpt>
      <trkpt lat="44.49136" lon="5.48968">
        <ele>1331.6</ele>
        <time>2021-09-07T09:53:53Z</time>
      </trkpt>
      <trkpt lat="44.49137" lon="5.48963">
        <ele>1331.7</ele>
        <time>2021-09-07T09:53:54Z</time>
      </trkpt>
      <trkpt lat="44.49138" lon="5.48959">
        <ele>1331.8</ele>
        <time>2021-09-07T09:53:55Z</time>
      </trkpt>
      <trkpt lat="44.49139" lon="5.48955">
        <ele>1331.9</ele>
        <time>2021-09-07T09:53:56Z</time>
      </trkpt>
      <trkpt lat="44.4914" lon="5.48952">
        <ele>1332</ele>
        <time>2021-09-07T09:53:57Z</time>
      </trkpt>
      <trkpt lat="44.4914" lon="5.4895">
        <ele>1332</ele>
        <time>2021-09-07T09:53:58Z</time>
      </trkpt>
      <trkpt lat="44.49141" lon="5.48948">
        <ele>1332</ele>
        <time>2021-09-07T09:53:59Z</time>
      </trkpt>
      <trkpt lat="44.49141" lon="5.48945">
        <ele>1332.1</ele>
        <time>2021-09-07T09:54:00Z</time>
      </trkpt>
      <trkpt lat="44.4914" lon="5.48942">
        <ele>1332.2</ele>
        <time>2021-09-07T09:54:01Z</time>
      </trkpt>
      <trkpt lat="44.4914" lon="5.48943">
        <ele>1332.2</ele>
        <time>2021-09-07T09:54:02Z</time>
      </trkpt>
      <trkpt lat="44.4914" lon="5.48943">
        <ele>1332.2</ele>
        <time>2021-09-07T09:54:03Z</time>
      </trkpt>
      <trkpt lat="44.49139" lon="5.48941">
        <ele>1332.2</ele>
        <time>2021-09-07T09:54:04Z</time>
      </trkpt>
      <trkpt lat="44.49138" lon="5.4894">
        <ele>1332.3</ele>
        <time>2021-09-07T09:54:05Z</time>
      </trkpt>
      <trkpt lat="44.49138" lon="5.4894">
        <ele>1332.3</ele>
        <time>2021-09-07T09:54:06Z</time>
      </trkpt>
      <trkpt lat="44.49137" lon="5.48937">
        <ele>1332.3</ele>
        <time>2021-09-07T09:54:07Z</time>
      </trkpt>
      <trkpt lat="44.49136" lon="5.48935">
        <ele>1332.4</ele>
        <time>2021-09-07T09:54:08Z</time>
      </trkpt>
      <trkpt lat="44.49136" lon="5.48933">
        <ele>1332.4</ele>
        <time>2021-09-07T09:54:09Z</time>
      </trkpt>
      <trkpt lat="44.49136" lon="5.48931">
        <ele>1332.5</ele>
        <time>2021-09-07T09:54:10Z</time>
      </trkpt>
      <trkpt lat="44.49136" lon="5.48929">
        <ele>1332.5</ele>
        <time>2021-09-07T09:54:11Z</time>
      </trkpt>
      <trkpt lat="44.49136" lon="5.48926">
        <ele>1332.6</ele>
        <time>2021-09-07T09:54:12Z</time>
      </trkpt>
      <trkpt lat="44.49136" lon="5.48923">
        <ele>1332.6</ele>
        <time>2021-09-07T09:54:13Z</time>
      </trkpt>
      <trkpt lat="44.49136" lon="5.48922">
        <ele>1332.7</ele>
        <time>2021-09-07T09:54:14Z</time>
      </trkpt>
      <trkpt lat="44.49136" lon="5.4892">
        <ele>1332.7</ele>
        <time>2021-09-07T09:54:15Z</time>
      </trkpt>
      <trkpt lat="44.49135" lon="5.48918">
        <ele>1332.7</ele>
        <time>2021-09-07T09:54:16Z</time>
      </trkpt>
      <trkpt lat="44.49136" lon="5.48916">
        <ele>1332.8</ele>
        <time>2021-09-07T09:54:17Z</time>
      </trkpt>
      <trkpt lat="44.49136" lon="5.48915">
        <ele>1332.8</ele>
        <time>2021-09-07T09:54:18Z</time>
      </trkpt>
      <trkpt lat="44.49136" lon="5.48913">
        <ele>1332.9</ele>
        <time>2021-09-07T09:54:19Z</time>
      </trkpt>
      <trkpt lat="44.49137" lon="5.4891">
        <ele>1332.9</ele>
        <time>2021-09-07T09:54:20Z</time>
      </trkpt>
      <trkpt lat="44.49136" lon="5.48906">
        <ele>1333</ele>
        <time>2021-09-07T09:54:21Z</time>
      </trkpt>
      <trkpt lat="44.49135" lon="5.48904">
        <ele>1333.1</ele>
        <time>2021-09-07T09:54:22Z</time>
      </trkpt>
      <trkpt lat="44.49135" lon="5.48903">
        <ele>1333.1</ele>
        <time>2021-09-07T09:54:23Z</time>
      </trkpt>
      <trkpt lat="44.49134" lon="5.48901">
        <ele>1333.1</ele>
        <time>2021-09-07T09:54:24Z</time>
      </trkpt>
      <trkpt lat="44.49133" lon="5.48898">
        <ele>1333.2</ele>
        <time>2021-09-07T09:54:25Z</time>
      </trkpt>
      <trkpt lat="44.49132" lon="5.48896">
        <ele>1333.2</ele>
        <time>2021-09-07T09:54:26Z</time>
      </trkpt>
      <trkpt lat="44.49132" lon="5.48895">
        <ele>1333.3</ele>
        <time>2021-09-07T09:54:27Z</time>
      </trkpt>
      <trkpt lat="44.49132" lon="5.48894">
        <ele>1333.3</ele>
        <time>2021-09-07T09:54:28Z</time>
      </trkpt>
      <trkpt lat="44.49133" lon="5.48892">
        <ele>1333.3</ele>
        <time>2021-09-07T09:54:29Z</time>
      </trkpt>
      <trkpt lat="44.49133" lon="5.48889">
        <ele>1333.4</ele>
        <time>2021-09-07T09:54:30Z</time>
      </trkpt>
      <trkpt lat="44.49133" lon="5.48886">
        <ele>1333.5</ele>
        <time>2021-09-07T09:54:31Z</time>
      </trkpt>
      <trkpt lat="44.49133" lon="5.48883">
        <ele>1333.5</ele>
        <time>2021-09-07T09:54:32Z</time>
      </trkpt>
      <trkpt lat="44.49132" lon="5.48879">
        <ele>1333.6</ele>
        <time>2021-09-07T09:54:33Z</time>
      </trkpt>
      <trkpt lat="44.49132" lon="5.48874">
        <ele>1333.7</ele>
        <time>2021-09-07T09:54:34Z</time>
      </trkpt>
      <trkpt lat="44.49132" lon="5.48872">
        <ele>1333.7</ele>
        <time>2021-09-07T09:54:35Z</time>
      </trkpt>
      <trkpt lat="44.49132" lon="5.4887">
        <ele>1333.8</ele>
        <time>2021-09-07T09:54:36Z</time>
      </trkpt>
      <trkpt lat="44.49131" lon="5.48867">
        <ele>1333.9</ele>
        <time>2021-09-07T09:54:37Z</time>
      </trkpt>
      <trkpt lat="44.49131" lon="5.48862">
        <ele>1334</ele>
        <time>2021-09-07T09:54:38Z</time>
      </trkpt>
      <trkpt lat="44.49132" lon="5.4886">
        <ele>1334</ele>
        <time>2021-09-07T09:54:39Z</time>
      </trkpt>
      <trkpt lat="44.49133" lon="5.48857">
        <ele>1334.1</ele>
        <time>2021-09-07T09:54:40Z</time>
      </trkpt>
      <trkpt lat="44.49134" lon="5.48854">
        <ele>1334.1</ele>
        <time>2021-09-07T09:54:41Z</time>
      </trkpt>
      <trkpt lat="44.49135" lon="5.48851">
        <ele>1334.2</ele>
        <time>2021-09-07T09:54:42Z</time>
      </trkpt>
      <trkpt lat="44.49136" lon="5.48845">
        <ele>1334.3</ele>
        <time>2021-09-07T09:54:43Z</time>
      </trkpt>
      <trkpt lat="44.49137" lon="5.48843">
        <ele>1334.4</ele>
        <time>2021-09-07T09:54:44Z</time>
      </trkpt>
      <trkpt lat="44.49138" lon="5.48841">
        <ele>1334.4</ele>
        <time>2021-09-07T09:54:45Z</time>
      </trkpt>
      <trkpt lat="44.49138" lon="5.48839">
        <ele>1334.5</ele>
        <time>2021-09-07T09:54:46Z</time>
      </trkpt>
      <trkpt lat="44.49138" lon="5.48836">
        <ele>1334.5</ele>
        <time>2021-09-07T09:54:47Z</time>
      </trkpt>
      <trkpt lat="44.49138" lon="5.48835">
        <ele>1334.6</ele>
        <time>2021-09-07T09:54:48Z</time>
      </trkpt>
      <trkpt lat="44.49139" lon="5.4883">
        <ele>1334.7</ele>
        <time>2021-09-07T09:54:49Z</time>
      </trkpt>
      <trkpt lat="44.4914" lon="5.48827">
        <ele>1334.7</ele>
        <time>2021-09-07T09:54:50Z</time>
      </trkpt>
      <trkpt lat="44.49141" lon="5.48823">
        <ele>1334.8</ele>
        <time>2021-09-07T09:54:51Z</time>
      </trkpt>
      <trkpt lat="44.49141" lon="5.4882">
        <ele>1334.9</ele>
        <time>2021-09-07T09:54:52Z</time>
      </trkpt>
      <trkpt lat="44.49142" lon="5.48817">
        <ele>1334.9</ele>
        <time>2021-09-07T09:54:53Z</time>
      </trkpt>
      <trkpt lat="44.49142" lon="5.48815">
        <ele>1335</ele>
        <time>2021-09-07T09:54:54Z</time>
      </trkpt>
      <trkpt lat="44.49142" lon="5.48813">
        <ele>1335</ele>
        <time>2021-09-07T09:54:55Z</time>
      </trkpt>
      <trkpt lat="44.49141" lon="5.48811">
        <ele>1335.1</ele>
        <time>2021-09-07T09:54:56Z</time>
      </trkpt>
      <trkpt lat="44.4914" lon="5.48809">
        <ele>1335.1</ele>
        <time>2021-09-07T09:54:57Z</time>
      </trkpt>
      <trkpt lat="44.4914" lon="5.48809">
        <ele>1335.1</ele>
        <time>2021-09-07T09:54:58Z</time>
      </trkpt>
      <trkpt lat="44.49139" lon="5.48808">
        <ele>1335.2</ele>
        <time>2021-09-07T09:54:59Z</time>
      </trkpt>
      <trkpt lat="44.49139" lon="5.48808">
        <ele>1335.2</ele>
        <time>2021-09-07T09:55:00Z</time>
      </trkpt>
      <trkpt lat="44.49139" lon="5.48807">
        <ele>1335.2</ele>
        <time>2021-09-07T09:55:01Z</time>
      </trkpt>
      <trkpt lat="44.49138" lon="5.48807">
        <ele>1335.2</ele>
        <time>2021-09-07T09:55:02Z</time>
      </trkpt>
      <trkpt lat="44.49138" lon="5.48807">
        <ele>1335.2</ele>
        <time>2021-09-07T09:55:03Z</time>
      </trkpt>
      <trkpt lat="44.49138" lon="5.48807">
        <ele>1335.2</ele>
        <time>2021-09-07T09:55:04Z</time>
      </trkpt>
      <trkpt lat="44.49138" lon="5.48807">
        <ele>1335.2</ele>
        <time>2021-09-07T09:55:05Z</time>
      </trkpt>
      <trkpt lat="44.49137" lon="5.48807">
        <ele>1335.2</ele>
        <time>2021-09-07T09:55:06Z</time>
      </trkpt>
      <trkpt lat="44.49137" lon="5.48807">
        <ele>1335.2</ele>
        <time>2021-09-07T09:55:07Z</time>
      </trkpt>
      <trkpt lat="44.49137" lon="5.48807">
        <ele>1335.2</ele>
        <time>2021-09-07T09:55:08Z</time>
      </trkpt>
      <trkpt lat="44.49137" lon="5.48807">
        <ele>1335.2</ele>
        <time>2021-09-07T09:55:09Z</time>
      </trkpt>
      <trkpt lat="44.49137" lon="5.48807">
        <ele>1335.2</ele>
        <time>2021-09-07T09:55:10Z</time>
      </trkpt>
      <trkpt lat="44.49137" lon="5.48805">
        <ele>1335.3</ele>
        <time>2021-09-07T09:55:11Z</time>
      </trkpt>
      <trkpt lat="44.49137" lon="5.48804">
        <ele>1335.3</ele>
        <time>2021-09-07T09:55:12Z</time>
      </trkpt>
      <trkpt lat="44.49137" lon="5.48802">
        <ele>1335.3</ele>
        <time>2021-09-07T09:55:13Z</time>
      </trkpt>
      <trkpt lat="44.49137" lon="5.488">
        <ele>1335.4</ele>
        <time>2021-09-07T09:55:14Z</time>
      </trkpt>
      <trkpt lat="44.49137" lon="5.48798">
        <ele>1335.4</ele>
        <time>2021-09-07T09:55:15Z</time>
      </trkpt>
      <trkpt lat="44.49136" lon="5.48796">
        <ele>1335.5</ele>
        <time>2021-09-07T09:55:16Z</time>
      </trkpt>
      <trkpt lat="44.49137" lon="5.48794">
        <ele>1335.5</ele>
        <time>2021-09-07T09:55:17Z</time>
      </trkpt>
      <trkpt lat="44.49136" lon="5.48792">
        <ele>1335.6</ele>
        <time>2021-09-07T09:55:18Z</time>
      </trkpt>
      <trkpt lat="44.49135" lon="5.48787">
        <ele>1335.7</ele>
        <time>2021-09-07T09:55:19Z</time>
      </trkpt>
      <trkpt lat="44.49136" lon="5.48785">
        <ele>1335.7</ele>
        <time>2021-09-07T09:55:20Z</time>
      </trkpt>
      <trkpt lat="44.49136" lon="5.48782">
        <ele>1335.8</ele>
        <time>2021-09-07T09:55:21Z</time>
      </trkpt>
      <trkpt lat="44.49138" lon="5.48776">
        <ele>1335.9</ele>
        <time>2021-09-07T09:55:22Z</time>
      </trkpt>
      <trkpt lat="44.49138" lon="5.48773">
        <ele>1336</ele>
        <time>2021-09-07T09:55:23Z</time>
      </trkpt>
      <trkpt lat="44.49138" lon="5.48772">
        <ele>1336</ele>
        <time>2021-09-07T09:55:24Z</time>
      </trkpt>
      <trkpt lat="44.49138" lon="5.48771">
        <ele>1336</ele>
        <time>2021-09-07T09:55:25Z</time>
      </trkpt>
      <trkpt lat="44.49138" lon="5.4877">
        <ele>1336</ele>
        <time>2021-09-07T09:55:26Z</time>
      </trkpt>
      <trkpt lat="44.49137" lon="5.48769">
        <ele>1336.1</ele>
        <time>2021-09-07T09:55:27Z</time>
      </trkpt>
      <trkpt lat="44.49137" lon="5.48768">
        <ele>1336.1</ele>
        <time>2021-09-07T09:55:28Z</time>
      </trkpt>
      <trkpt lat="44.49137" lon="5.48767">
        <ele>1336.1</ele>
        <time>2021-09-07T09:55:29Z</time>
      </trkpt>
      <trkpt lat="44.49137" lon="5.48767">
        <ele>1336.1</ele>
        <time>2021-09-07T09:55:30Z</time>
      </trkpt>
      <trkpt lat="44.49137" lon="5.48766">
        <ele>1336.1</ele>
        <time>2021-09-07T09:55:31Z</time>
      </trkpt>
      <trkpt lat="44.49137" lon="5.48765">
        <ele>1336.1</ele>
        <time>2021-09-07T09:55:32Z</time>
      </trkpt>
      <trkpt lat="44.49137" lon="5.48764">
        <ele>1336.2</ele>
        <time>2021-09-07T09:55:33Z</time>
      </trkpt>
      <trkpt lat="44.49137" lon="5.48762">
        <ele>1336.2</ele>
        <time>2021-09-07T09:55:34Z</time>
      </trkpt>
      <trkpt lat="44.49136" lon="5.48761">
        <ele>1336.2</ele>
        <time>2021-09-07T09:55:35Z</time>
      </trkpt>
      <trkpt lat="44.49136" lon="5.48758">
        <ele>1336.3</ele>
        <time>2021-09-07T09:55:36Z</time>
      </trkpt>
      <trkpt lat="44.49136" lon="5.48757">
        <ele>1336.3</ele>
        <time>2021-09-07T09:55:37Z</time>
      </trkpt>
      <trkpt lat="44.49135" lon="5.48755">
        <ele>1336.4</ele>
        <time>2021-09-07T09:55:38Z</time>
      </trkpt>
      <trkpt lat="44.49135" lon="5.48752">
        <ele>1336.4</ele>
        <time>2021-09-07T09:55:39Z</time>
      </trkpt>
      <trkpt lat="44.49134" lon="5.48749">
        <ele>1336.5</ele>
        <time>2021-09-07T09:55:40Z</time>
      </trkpt>
      <trkpt lat="44.49134" lon="5.48748">
        <ele>1336.5</ele>
        <time>2021-09-07T09:55:41Z</time>
      </trkpt>
      <trkpt lat="44.49134" lon="5.48746">
        <ele>1336.6</ele>
        <time>2021-09-07T09:55:42Z</time>
      </trkpt>
      <trkpt lat="44.49133" lon="5.48745">
        <ele>1336.6</ele>
        <time>2021-09-07T09:55:43Z</time>
      </trkpt>
      <trkpt lat="44.49132" lon="5.48743">
        <ele>1336.6</ele>
        <time>2021-09-07T09:55:44Z</time>
      </trkpt>
      <trkpt lat="44.49132" lon="5.48742">
        <ele>1336.7</ele>
        <time>2021-09-07T09:55:45Z</time>
      </trkpt>
      <trkpt lat="44.49132" lon="5.4874">
        <ele>1336.7</ele>
        <time>2021-09-07T09:55:46Z</time>
      </trkpt>
      <trkpt lat="44.49131" lon="5.48738">
        <ele>1336.8</ele>
        <time>2021-09-07T09:55:47Z</time>
      </trkpt>
      <trkpt lat="44.49131" lon="5.48736">
        <ele>1336.8</ele>
        <time>2021-09-07T09:55:48Z</time>
      </trkpt>
      <trkpt lat="44.49129" lon="5.48734">
        <ele>1336.9</ele>
        <time>2021-09-07T09:55:49Z</time>
      </trkpt>
      <trkpt lat="44.49129" lon="5.48732">
        <ele>1336.9</ele>
        <time>2021-09-07T09:55:50Z</time>
      </trkpt>
      <trkpt lat="44.49129" lon="5.48731">
        <ele>1336.9</ele>
        <time>2021-09-07T09:55:51Z</time>
      </trkpt>
      <trkpt lat="44.49128" lon="5.4873">
        <ele>1337</ele>
        <time>2021-09-07T09:55:52Z</time>
      </trkpt>
      <trkpt lat="44.49128" lon="5.48727">
        <ele>1337</ele>
        <time>2021-09-07T09:55:53Z</time>
      </trkpt>
      <trkpt lat="44.49128" lon="5.48725">
        <ele>1337.1</ele>
        <time>2021-09-07T09:55:54Z</time>
      </trkpt>
      <trkpt lat="44.49128" lon="5.48724">
        <ele>1337.1</ele>
        <time>2021-09-07T09:55:55Z</time>
      </trkpt>
      <trkpt lat="44.49127" lon="5.48723">
        <ele>1337.1</ele>
        <time>2021-09-07T09:55:56Z</time>
      </trkpt>
      <trkpt lat="44.49128" lon="5.48721">
        <ele>1337.2</ele>
        <time>2021-09-07T09:55:57Z</time>
      </trkpt>
      <trkpt lat="44.49128" lon="5.48719">
        <ele>1337.2</ele>
        <time>2021-09-07T09:55:58Z</time>
      </trkpt>
      <trkpt lat="44.49129" lon="5.48717">
        <ele>1337.2</ele>
        <time>2021-09-07T09:55:59Z</time>
      </trkpt>
      <trkpt lat="44.4913" lon="5.48715">
        <ele>1337.3</ele>
        <time>2021-09-07T09:56:00Z</time>
      </trkpt>
      <trkpt lat="44.4913" lon="5.48715">
        <ele>1337.3</ele>
        <time>2021-09-07T09:56:01Z</time>
      </trkpt>
      <trkpt lat="44.4913" lon="5.48714">
        <ele>1337.3</ele>
        <time>2021-09-07T09:56:02Z</time>
      </trkpt>
      <trkpt lat="44.49132" lon="5.48713">
        <ele>1337.4</ele>
        <time>2021-09-07T09:56:03Z</time>
      </trkpt>
      <trkpt lat="44.49132" lon="5.48712">
        <ele>1337.4</ele>
        <time>2021-09-07T09:56:04Z</time>
      </trkpt>
      <trkpt lat="44.49133" lon="5.4871">
        <ele>1337.4</ele>
        <time>2021-09-07T09:56:05Z</time>
      </trkpt>
      <trkpt lat="44.49133" lon="5.48707">
        <ele>1337.5</ele>
        <time>2021-09-07T09:56:06Z</time>
      </trkpt>
      <trkpt lat="44.49133" lon="5.48706">
        <ele>1337.5</ele>
        <time>2021-09-07T09:56:07Z</time>
      </trkpt>
      <trkpt lat="44.49133" lon="5.48706">
        <ele>1337.5</ele>
        <time>2021-09-07T09:56:08Z</time>
      </trkpt>
      <trkpt lat="44.49133" lon="5.48705">
        <ele>1337.6</ele>
        <time>2021-09-07T09:56:09Z</time>
      </trkpt>
      <trkpt lat="44.49133" lon="5.48704">
        <ele>1337.6</ele>
        <time>2021-09-07T09:56:10Z</time>
      </trkpt>
      <trkpt lat="44.49132" lon="5.48703">
        <ele>1337.6</ele>
        <time>2021-09-07T09:56:11Z</time>
      </trkpt>
      <trkpt lat="44.49132" lon="5.48701">
        <ele>1337.6</ele>
        <time>2021-09-07T09:56:12Z</time>
      </trkpt>
      <trkpt lat="44.49132" lon="5.487">
        <ele>1337.7</ele>
        <time>2021-09-07T09:56:13Z</time>
      </trkpt>
      <trkpt lat="44.49132" lon="5.48698">
        <ele>1337.7</ele>
        <time>2021-09-07T09:56:14Z</time>
      </trkpt>
      <trkpt lat="44.49132" lon="5.48695">
        <ele>1337.8</ele>
        <time>2021-09-07T09:56:15Z</time>
      </trkpt>
      <trkpt lat="44.49132" lon="5.48692">
        <ele>1337.8</ele>
        <time>2021-09-07T09:56:16Z</time>
      </trkpt>
      <trkpt lat="44.49132" lon="5.48689">
        <ele>1337.9</ele>
        <time>2021-09-07T09:56:17Z</time>
      </trkpt>
      <trkpt lat="44.49131" lon="5.48687">
        <ele>1337.9</ele>
        <time>2021-09-07T09:56:18Z</time>
      </trkpt>
      <trkpt lat="44.49132" lon="5.48685">
        <ele>1338</ele>
        <time>2021-09-07T09:56:19Z</time>
      </trkpt>
      <trkpt lat="44.49132" lon="5.48684">
        <ele>1338</ele>
        <time>2021-09-07T09:56:20Z</time>
      </trkpt>
      <trkpt lat="44.49132" lon="5.48682">
        <ele>1338.1</ele>
        <time>2021-09-07T09:56:21Z</time>
      </trkpt>
      <trkpt lat="44.49133" lon="5.48681">
        <ele>1338.1</ele>
        <time>2021-09-07T09:56:22Z</time>
      </trkpt>
      <trkpt lat="44.49133" lon="5.4868">
        <ele>1338.1</ele>
        <time>2021-09-07T09:56:23Z</time>
      </trkpt>
      <trkpt lat="44.49133" lon="5.4868">
        <ele>1338.1</ele>
        <time>2021-09-07T09:56:24Z</time>
      </trkpt>
      <trkpt lat="44.49133" lon="5.4868">
        <ele>1338.1</ele>
        <time>2021-09-07T09:56:25Z</time>
      </trkpt>
      <trkpt lat="44.49133" lon="5.4868">
        <ele>1338.1</ele>
        <time>2021-09-07T09:56:26Z</time>
      </trkpt>
      <trkpt lat="44.49133" lon="5.4868">
        <ele>1338.1</ele>
        <time>2021-09-07T09:56:27Z</time>
      </trkpt>
      <trkpt lat="44.49133" lon="5.4868">
        <ele>1338.1</ele>
        <time>2021-09-07T09:56:28Z</time>
      </trkpt>
      <trkpt lat="44.49133" lon="5.4868">
        <ele>1338.1</ele>
        <time>2021-09-07T09:56:29Z</time>
      </trkpt>
      <trkpt lat="44.49133" lon="5.4868">
        <ele>1338.1</ele>
        <time>2021-09-07T09:56:30Z</time>
      </trkpt>
      <trkpt lat="44.49133" lon="5.4868">
        <ele>1338.1</ele>
        <time>2021-09-07T09:56:31Z</time>
      </trkpt>
      <trkpt lat="44.49133" lon="5.48679">
        <ele>1338.1</ele>
        <time>2021-09-07T09:56:32Z</time>
      </trkpt>
      <trkpt lat="44.49133" lon="5.4868">
        <ele>1338.1</ele>
        <time>2021-09-07T09:56:33Z</time>
      </trkpt>
      <trkpt lat="44.49133" lon="5.4868">
        <ele>1338.1</ele>
        <time>2021-09-07T09:56:34Z</time>
      </trkpt>
      <trkpt lat="44.49133" lon="5.48679">
        <ele>1338.2</ele>
        <time>2021-09-07T09:56:35Z</time>
      </trkpt>
      <trkpt lat="44.49133" lon="5.48679">
        <ele>1338.2</ele>
        <time>2021-09-07T09:56:36Z</time>
      </trkpt>
      <trkpt lat="44.49133" lon="5.48679">
        <ele>1338.2</ele>
        <time>2021-09-07T09:56:37Z</time>
      </trkpt>
      <trkpt lat="44.49134" lon="5.48679">
        <ele>1338.2</ele>
        <time>2021-09-07T09:56:38Z</time>
      </trkpt>
      <trkpt lat="44.49134" lon="5.48679">
        <ele>1338.2</ele>
        <time>2021-09-07T09:56:39Z</time>
      </trkpt>
      <trkpt lat="44.49133" lon="5.48678">
        <ele>1338.2</ele>
        <time>2021-09-07T09:56:40Z</time>
      </trkpt>
      <trkpt lat="44.49133" lon="5.48677">
        <ele>1338.3</ele>
        <time>2021-09-07T09:56:41Z</time>
      </trkpt>
      <trkpt lat="44.49132" lon="5.48673">
        <ele>1338.3</ele>
        <time>2021-09-07T09:56:42Z</time>
      </trkpt>
      <trkpt lat="44.49131" lon="5.4867">
        <ele>1338.4</ele>
        <time>2021-09-07T09:56:43Z</time>
      </trkpt>
      <trkpt lat="44.49131" lon="5.48668">
        <ele>1338.4</ele>
        <time>2021-09-07T09:56:44Z</time>
      </trkpt>
      <trkpt lat="44.49131" lon="5.48668">
        <ele>1338.5</ele>
        <time>2021-09-07T09:56:45Z</time>
      </trkpt>
      <trkpt lat="44.49131" lon="5.48667">
        <ele>1338.5</ele>
        <time>2021-09-07T09:56:46Z</time>
      </trkpt>
      <trkpt lat="44.49131" lon="5.48665">
        <ele>1338.5</ele>
        <time>2021-09-07T09:56:47Z</time>
      </trkpt>
      <trkpt lat="44.49131" lon="5.48664">
        <ele>1338.5</ele>
        <time>2021-09-07T09:56:48Z</time>
      </trkpt>
      <trkpt lat="44.49131" lon="5.48662">
        <ele>1338.6</ele>
        <time>2021-09-07T09:56:49Z</time>
      </trkpt>
      <trkpt lat="44.49131" lon="5.4866">
        <ele>1338.6</ele>
        <time>2021-09-07T09:56:50Z</time>
      </trkpt>
      <trkpt lat="44.49132" lon="5.48659">
        <ele>1338.6</ele>
        <time>2021-09-07T09:56:51Z</time>
      </trkpt>
      <trkpt lat="44.49132" lon="5.48658">
        <ele>1338.7</ele>
        <time>2021-09-07T09:56:52Z</time>
      </trkpt>
      <trkpt lat="44.49132" lon="5.48656">
        <ele>1338.7</ele>
        <time>2021-09-07T09:56:53Z</time>
      </trkpt>
      <trkpt lat="44.49132" lon="5.48652">
        <ele>1338.8</ele>
        <time>2021-09-07T09:56:54Z</time>
      </trkpt>
      <trkpt lat="44.49132" lon="5.48649">
        <ele>1338.8</ele>
        <time>2021-09-07T09:56:55Z</time>
      </trkpt>
      <trkpt lat="44.49132" lon="5.48645">
        <ele>1338.9</ele>
        <time>2021-09-07T09:56:56Z</time>
      </trkpt>
      <trkpt lat="44.49132" lon="5.48643">
        <ele>1339</ele>
        <time>2021-09-07T09:56:57Z</time>
      </trkpt>
      <trkpt lat="44.49132" lon="5.4864">
        <ele>1339</ele>
        <time>2021-09-07T09:56:58Z</time>
      </trkpt>
      <trkpt lat="44.49132" lon="5.48637">
        <ele>1339.1</ele>
        <time>2021-09-07T09:56:59Z</time>
      </trkpt>
      <trkpt lat="44.49133" lon="5.48636">
        <ele>1339.1</ele>
        <time>2021-09-07T09:57:00Z</time>
      </trkpt>
      <trkpt lat="44.49134" lon="5.48635">
        <ele>1339.2</ele>
        <time>2021-09-07T09:57:01Z</time>
      </trkpt>
      <trkpt lat="44.49134" lon="5.48634">
        <ele>1339.2</ele>
        <time>2021-09-07T09:57:02Z</time>
      </trkpt>
      <trkpt lat="44.49133" lon="5.48633">
        <ele>1339.2</ele>
        <time>2021-09-07T09:57:03Z</time>
      </trkpt>
      <trkpt lat="44.49133" lon="5.48633">
        <ele>1339.2</ele>
        <time>2021-09-07T09:57:04Z</time>
      </trkpt>
      <trkpt lat="44.49133" lon="5.48632">
        <ele>1339.2</ele>
        <time>2021-09-07T09:57:05Z</time>
      </trkpt>
      <trkpt lat="44.49133" lon="5.48632">
        <ele>1339.2</ele>
        <time>2021-09-07T09:57:06Z</time>
      </trkpt>
      <trkpt lat="44.49133" lon="5.48631">
        <ele>1339.3</ele>
        <time>2021-09-07T09:57:07Z</time>
      </trkpt>
      <trkpt lat="44.49133" lon="5.4863">
        <ele>1339.3</ele>
        <time>2021-09-07T09:57:08Z</time>
      </trkpt>
      <trkpt lat="44.49133" lon="5.48629">
        <ele>1339.3</ele>
        <time>2021-09-07T09:57:09Z</time>
      </trkpt>
      <trkpt lat="44.49134" lon="5.48628">
        <ele>1339.3</ele>
        <time>2021-09-07T09:57:10Z</time>
      </trkpt>
      <trkpt lat="44.49134" lon="5.48627">
        <ele>1339.3</ele>
        <time>2021-09-07T09:57:11Z</time>
      </trkpt>
      <trkpt lat="44.49135" lon="5.48627">
        <ele>1339.4</ele>
        <time>2021-09-07T09:57:12Z</time>
      </trkpt>
      <trkpt lat="44.49135" lon="5.48626">
        <ele>1339.4</ele>
        <time>2021-09-07T09:57:13Z</time>
      </trkpt>
      <trkpt lat="44.49135" lon="5.48625">
        <ele>1339.4</ele>
        <time>2021-09-07T09:57:14Z</time>
      </trkpt>
      <trkpt lat="44.49136" lon="5.48625">
        <ele>1339.4</ele>
        <time>2021-09-07T09:57:15Z</time>
      </trkpt>
      <trkpt lat="44.49136" lon="5.48624">
        <ele>1339.4</ele>
        <time>2021-09-07T09:57:16Z</time>
      </trkpt>
      <trkpt lat="44.49136" lon="5.48623">
        <ele>1339.5</ele>
        <time>2021-09-07T09:57:17Z</time>
      </trkpt>
      <trkpt lat="44.49135" lon="5.48623">
        <ele>1339.5</ele>
        <time>2021-09-07T09:57:18Z</time>
      </trkpt>
      <trkpt lat="44.49135" lon="5.48622">
        <ele>1339.5</ele>
        <time>2021-09-07T09:57:19Z</time>
      </trkpt>
      <trkpt lat="44.49135" lon="5.48622">
        <ele>1339.5</ele>
        <time>2021-09-07T09:57:20Z</time>
      </trkpt>
      <trkpt lat="44.49135" lon="5.48622">
        <ele>1339.5</ele>
        <time>2021-09-07T09:57:21Z</time>
      </trkpt>
      <trkpt lat="44.49134" lon="5.48622">
        <ele>1339.5</ele>
        <time>2021-09-07T09:57:22Z</time>
      </trkpt>
      <trkpt lat="44.49134" lon="5.48622">
        <ele>1339.5</ele>
        <time>2021-09-07T09:57:23Z</time>
      </trkpt>
      <trkpt lat="44.49134" lon="5.48621">
        <ele>1339.6</ele>
        <time>2021-09-07T09:57:24Z</time>
      </trkpt>
      <trkpt lat="44.49133" lon="5.48621">
        <ele>1339.6</ele>
        <time>2021-09-07T09:57:25Z</time>
      </trkpt>
      <trkpt lat="44.49133" lon="5.48621">
        <ele>1339.6</ele>
        <time>2021-09-07T09:57:26Z</time>
      </trkpt>
      <trkpt lat="44.49133" lon="5.48621">
        <ele>1339.6</ele>
        <time>2021-09-07T09:57:27Z</time>
      </trkpt>
      <trkpt lat="44.49133" lon="5.48621">
        <ele>1339.6</ele>
        <time>2021-09-07T09:57:28Z</time>
      </trkpt>
      <trkpt lat="44.49133" lon="5.48621">
        <ele>1339.6</ele>
        <time>2021-09-07T09:57:29Z</time>
      </trkpt>
      <trkpt lat="44.49133" lon="5.48621">
        <ele>1339.6</ele>
        <time>2021-09-07T09:57:30Z</time>
      </trkpt>
      <trkpt lat="44.49133" lon="5.48621">
        <ele>1339.6</ele>
        <time>2021-09-07T09:57:31Z</time>
      </trkpt>
      <trkpt lat="44.49132" lon="5.48621">
        <ele>1339.6</ele>
        <time>2021-09-07T09:57:32Z</time>
      </trkpt>
      <trkpt lat="44.49132" lon="5.48621">
        <ele>1339.6</ele>
        <time>2021-09-07T09:57:33Z</time>
      </trkpt>
      <trkpt lat="44.49132" lon="5.48621">
        <ele>1339.6</ele>
        <time>2021-09-07T09:57:34Z</time>
      </trkpt>
      <trkpt lat="44.49133" lon="5.48618">
        <ele>1339.7</ele>
        <time>2021-09-07T09:57:35Z</time>
      </trkpt>
      <trkpt lat="44.49133" lon="5.48617">
        <ele>1339.7</ele>
        <time>2021-09-07T09:57:36Z</time>
      </trkpt>
      <trkpt lat="44.49133" lon="5.48616">
        <ele>1339.7</ele>
        <time>2021-09-07T09:57:37Z</time>
      </trkpt>
      <trkpt lat="44.49134" lon="5.48615">
        <ele>1339.8</ele>
        <time>2021-09-07T09:57:38Z</time>
      </trkpt>
      <trkpt lat="44.49134" lon="5.48613">
        <ele>1339.8</ele>
        <time>2021-09-07T09:57:39Z</time>
      </trkpt>
      <trkpt lat="44.49135" lon="5.48612">
        <ele>1339.8</ele>
        <time>2021-09-07T09:57:40Z</time>
      </trkpt>
      <trkpt lat="44.49135" lon="5.4861">
        <ele>1339.9</ele>
        <time>2021-09-07T09:57:41Z</time>
      </trkpt>
      <trkpt lat="44.49135" lon="5.48608">
        <ele>1339.9</ele>
        <time>2021-09-07T09:57:42Z</time>
      </trkpt>
      <trkpt lat="44.49135" lon="5.48608">
        <ele>1339.9</ele>
        <time>2021-09-07T09:57:43Z</time>
      </trkpt>
      <trkpt lat="44.49135" lon="5.48607">
        <ele>1339.9</ele>
        <time>2021-09-07T09:57:44Z</time>
      </trkpt>
      <trkpt lat="44.49135" lon="5.48605">
        <ele>1340</ele>
        <time>2021-09-07T09:57:45Z</time>
      </trkpt>
      <trkpt lat="44.49135" lon="5.48604">
        <ele>1340</ele>
        <time>2021-09-07T09:57:46Z</time>
      </trkpt>
      <trkpt lat="44.49135" lon="5.48601">
        <ele>1340.1</ele>
        <time>2021-09-07T09:57:47Z</time>
      </trkpt>
      <trkpt lat="44.49135" lon="5.48596">
        <ele>1340.2</ele>
        <time>2021-09-07T09:57:48Z</time>
      </trkpt>
      <trkpt lat="44.49135" lon="5.48595">
        <ele>1340.2</ele>
        <time>2021-09-07T09:57:49Z</time>
      </trkpt>
      <trkpt lat="44.49135" lon="5.48593">
        <ele>1340.2</ele>
        <time>2021-09-07T09:57:50Z</time>
      </trkpt>
      <trkpt lat="44.49135" lon="5.48589">
        <ele>1340.3</ele>
        <time>2021-09-07T09:57:51Z</time>
      </trkpt>
      <trkpt lat="44.49134" lon="5.48586">
        <ele>1340.4</ele>
        <time>2021-09-07T09:57:52Z</time>
      </trkpt>
      <trkpt lat="44.49134" lon="5.48584">
        <ele>1340.4</ele>
        <time>2021-09-07T09:57:53Z</time>
      </trkpt>
      <trkpt lat="44.49134" lon="5.48582">
        <ele>1340.4</ele>
        <time>2021-09-07T09:57:54Z</time>
      </trkpt>
      <trkpt lat="44.49133" lon="5.4858">
        <ele>1340.5</ele>
        <time>2021-09-07T09:57:55Z</time>
      </trkpt>
      <trkpt lat="44.49133" lon="5.48576">
        <ele>1340.6</ele>
        <time>2021-09-07T09:57:56Z</time>
      </trkpt>
      <trkpt lat="44.49133" lon="5.48574">
        <ele>1340.6</ele>
        <time>2021-09-07T09:57:57Z</time>
      </trkpt>
      <trkpt lat="44.49133" lon="5.48572">
        <ele>1340.7</ele>
        <time>2021-09-07T09:57:58Z</time>
      </trkpt>
      <trkpt lat="44.49133" lon="5.48571">
        <ele>1340.7</ele>
        <time>2021-09-07T09:57:59Z</time>
      </trkpt>
      <trkpt lat="44.49133" lon="5.48569">
        <ele>1340.7</ele>
        <time>2021-09-07T09:58:00Z</time>
      </trkpt>
      <trkpt lat="44.49133" lon="5.48569">
        <ele>1340.7</ele>
        <time>2021-09-07T09:58:01Z</time>
      </trkpt>
      <trkpt lat="44.49132" lon="5.48569">
        <ele>1340.7</ele>
        <time>2021-09-07T09:58:02Z</time>
      </trkpt>
      <trkpt lat="44.49132" lon="5.48569">
        <ele>1340.7</ele>
        <time>2021-09-07T09:58:03Z</time>
      </trkpt>
      <trkpt lat="44.49132" lon="5.48569">
        <ele>1340.7</ele>
        <time>2021-09-07T09:58:04Z</time>
      </trkpt>
      <trkpt lat="44.49133" lon="5.48569">
        <ele>1340.8</ele>
        <time>2021-09-07T09:58:05Z</time>
      </trkpt>
      <trkpt lat="44.49133" lon="5.48566">
        <ele>1340.8</ele>
        <time>2021-09-07T09:58:06Z</time>
      </trkpt>
      <trkpt lat="44.49134" lon="5.48566">
        <ele>1340.9</ele>
        <time>2021-09-07T09:58:07Z</time>
      </trkpt>
      <trkpt lat="44.49134" lon="5.48565">
        <ele>1340.9</ele>
        <time>2021-09-07T09:58:08Z</time>
      </trkpt>
      <trkpt lat="44.49134" lon="5.48564">
        <ele>1340.9</ele>
        <time>2021-09-07T09:58:09Z</time>
      </trkpt>
      <trkpt lat="44.49135" lon="5.48562">
        <ele>1340.9</ele>
        <time>2021-09-07T09:58:10Z</time>
      </trkpt>
      <trkpt lat="44.49135" lon="5.48562">
        <ele>1341</ele>
        <time>2021-09-07T09:58:11Z</time>
      </trkpt>
      <trkpt lat="44.49135" lon="5.48561">
        <ele>1341</ele>
        <time>2021-09-07T09:58:12Z</time>
      </trkpt>
      <trkpt lat="44.49136" lon="5.48559">
        <ele>1341</ele>
        <time>2021-09-07T09:58:13Z</time>
      </trkpt>
      <trkpt lat="44.49136" lon="5.48559">
        <ele>1341</ele>
        <time>2021-09-07T09:58:14Z</time>
      </trkpt>
      <trkpt lat="44.49136" lon="5.48558">
        <ele>1341</ele>
        <time>2021-09-07T09:58:15Z</time>
      </trkpt>
      <trkpt lat="44.49136" lon="5.48557">
        <ele>1341.1</ele>
        <time>2021-09-07T09:58:16Z</time>
      </trkpt>
      <trkpt lat="44.49136" lon="5.48557">
        <ele>1341.1</ele>
        <time>2021-09-07T09:58:17Z</time>
      </trkpt>
      <trkpt lat="44.49136" lon="5.48557">
        <ele>1341.1</ele>
        <time>2021-09-07T09:58:18Z</time>
      </trkpt>
      <trkpt lat="44.49136" lon="5.48556">
        <ele>1341.1</ele>
        <time>2021-09-07T09:58:19Z</time>
      </trkpt>
      <trkpt lat="44.49136" lon="5.48556">
        <ele>1341.1</ele>
        <time>2021-09-07T09:58:20Z</time>
      </trkpt>
      <trkpt lat="44.49136" lon="5.48556">
        <ele>1341.1</ele>
        <time>2021-09-07T09:58:21Z</time>
      </trkpt>
      <trkpt lat="44.49136" lon="5.48556">
        <ele>1341.1</ele>
        <time>2021-09-07T09:58:22Z</time>
      </trkpt>
      <trkpt lat="44.49136" lon="5.48556">
        <ele>1341.1</ele>
        <time>2021-09-07T09:58:23Z</time>
      </trkpt>
      <trkpt lat="44.49136" lon="5.48555">
        <ele>1341.1</ele>
        <time>2021-09-07T09:58:24Z</time>
      </trkpt>
      <trkpt lat="44.49136" lon="5.48554">
        <ele>1341.1</ele>
        <time>2021-09-07T09:58:25Z</time>
      </trkpt>
      <trkpt lat="44.49136" lon="5.48552">
        <ele>1341.2</ele>
        <time>2021-09-07T09:58:26Z</time>
      </trkpt>
      <trkpt lat="44.49136" lon="5.48551">
        <ele>1341.2</ele>
        <time>2021-09-07T09:58:27Z</time>
      </trkpt>
      <trkpt lat="44.49135" lon="5.48549">
        <ele>1341.2</ele>
        <time>2021-09-07T09:58:28Z</time>
      </trkpt>
      <trkpt lat="44.49135" lon="5.48547">
        <ele>1341.3</ele>
        <time>2021-09-07T09:58:29Z</time>
      </trkpt>
      <trkpt lat="44.49135" lon="5.48547">
        <ele>1341.3</ele>
        <time>2021-09-07T09:58:30Z</time>
      </trkpt>
      <trkpt lat="44.49135" lon="5.48546">
        <ele>1341.3</ele>
        <time>2021-09-07T09:58:31Z</time>
      </trkpt>
      <trkpt lat="44.49135" lon="5.48545">
        <ele>1341.3</ele>
        <time>2021-09-07T09:58:32Z</time>
      </trkpt>
      <trkpt lat="44.49135" lon="5.48545">
        <ele>1341.3</ele>
        <time>2021-09-07T09:58:33Z</time>
      </trkpt>
      <trkpt lat="44.49134" lon="5.48544">
        <ele>1341.3</ele>
        <time>2021-09-07T09:58:34Z</time>
      </trkpt>
      <trkpt lat="44.49134" lon="5.48544">
        <ele>1341.3</ele>
        <time>2021-09-07T09:58:35Z</time>
      </trkpt>
      <trkpt lat="44.49134" lon="5.48543">
        <ele>1341.4</ele>
        <time>2021-09-07T09:58:36Z</time>
      </trkpt>
      <trkpt lat="44.49133" lon="5.48541">
        <ele>1341.4</ele>
        <time>2021-09-07T09:58:37Z</time>
      </trkpt>
      <trkpt lat="44.49133" lon="5.48539">
        <ele>1341.4</ele>
        <time>2021-09-07T09:58:38Z</time>
      </trkpt>
      <trkpt lat="44.49133" lon="5.48535">
        <ele>1341.5</ele>
        <time>2021-09-07T09:58:39Z</time>
      </trkpt>
      <trkpt lat="44.49133" lon="5.48534">
        <ele>1341.6</ele>
        <time>2021-09-07T09:58:40Z</time>
      </trkpt>
      <trkpt lat="44.49133" lon="5.48532">
        <ele>1341.6</ele>
        <time>2021-09-07T09:58:41Z</time>
      </trkpt>
      <trkpt lat="44.49133" lon="5.48527">
        <ele>1341.7</ele>
        <time>2021-09-07T09:58:42Z</time>
      </trkpt>
      <trkpt lat="44.49134" lon="5.48525">
        <ele>1341.7</ele>
        <time>2021-09-07T09:58:43Z</time>
      </trkpt>
      <trkpt lat="44.49134" lon="5.48522">
        <ele>1341.8</ele>
        <time>2021-09-07T09:58:44Z</time>
      </trkpt>
      <trkpt lat="44.49134" lon="5.48517">
        <ele>1341.9</ele>
        <time>2021-09-07T09:58:45Z</time>
      </trkpt>
      <trkpt lat="44.49134" lon="5.48516">
        <ele>1341.9</ele>
        <time>2021-09-07T09:58:46Z</time>
      </trkpt>
      <trkpt lat="44.49134" lon="5.48514">
        <ele>1342</ele>
        <time>2021-09-07T09:58:47Z</time>
      </trkpt>
      <trkpt lat="44.49134" lon="5.48513">
        <ele>1342</ele>
        <time>2021-09-07T09:58:48Z</time>
      </trkpt>
      <trkpt lat="44.49135" lon="5.48513">
        <ele>1342</ele>
        <time>2021-09-07T09:58:49Z</time>
      </trkpt>
      <trkpt lat="44.49135" lon="5.48512">
        <ele>1342</ele>
        <time>2021-09-07T09:58:50Z</time>
      </trkpt>
      <trkpt lat="44.49135" lon="5.48511">
        <ele>1342</ele>
        <time>2021-09-07T09:58:51Z</time>
      </trkpt>
      <trkpt lat="44.49135" lon="5.48511">
        <ele>1342</ele>
        <time>2021-09-07T09:58:52Z</time>
      </trkpt>
      <trkpt lat="44.49136" lon="5.48511">
        <ele>1342.1</ele>
        <time>2021-09-07T09:58:53Z</time>
      </trkpt>
      <trkpt lat="44.49136" lon="5.48511">
        <ele>1342.1</ele>
        <time>2021-09-07T09:58:54Z</time>
      </trkpt>
      <trkpt lat="44.49136" lon="5.48511">
        <ele>1342.1</ele>
        <time>2021-09-07T09:58:55Z</time>
      </trkpt>
      <trkpt lat="44.49136" lon="5.4851">
        <ele>1342.1</ele>
        <time>2021-09-07T09:58:56Z</time>
      </trkpt>
      <trkpt lat="44.49136" lon="5.4851">
        <ele>1342.1</ele>
        <time>2021-09-07T09:58:57Z</time>
      </trkpt>
      <trkpt lat="44.49137" lon="5.4851">
        <ele>1342.1</ele>
        <time>2021-09-07T09:58:58Z</time>
      </trkpt>
      <trkpt lat="44.49137" lon="5.48509">
        <ele>1342.1</ele>
        <time>2021-09-07T09:58:59Z</time>
      </trkpt>
      <trkpt lat="44.49138" lon="5.48507">
        <ele>1342.2</ele>
        <time>2021-09-07T09:59:00Z</time>
      </trkpt>
      <trkpt lat="44.49139" lon="5.48505">
        <ele>1342.2</ele>
        <time>2021-09-07T09:59:01Z</time>
      </trkpt>
      <trkpt lat="44.49139" lon="5.48504">
        <ele>1342.2</ele>
        <time>2021-09-07T09:59:02Z</time>
      </trkpt>
      <trkpt lat="44.49139" lon="5.48503">
        <ele>1342.3</ele>
        <time>2021-09-07T09:59:03Z</time>
      </trkpt>
      <trkpt lat="44.4914" lon="5.48502">
        <ele>1342.3</ele>
        <time>2021-09-07T09:59:04Z</time>
      </trkpt>
      <trkpt lat="44.4914" lon="5.485">
        <ele>1342.3</ele>
        <time>2021-09-07T09:59:05Z</time>
      </trkpt>
      <trkpt lat="44.4914" lon="5.48497">
        <ele>1342.4</ele>
        <time>2021-09-07T09:59:06Z</time>
      </trkpt>
      <trkpt lat="44.49141" lon="5.48494">
        <ele>1342.5</ele>
        <time>2021-09-07T09:59:07Z</time>
      </trkpt>
      <trkpt lat="44.49141" lon="5.48492">
        <ele>1342.5</ele>
        <time>2021-09-07T09:59:08Z</time>
      </trkpt>
      <trkpt lat="44.49141" lon="5.48489">
        <ele>1342.6</ele>
        <time>2021-09-07T09:59:09Z</time>
      </trkpt>
      <trkpt lat="44.49141" lon="5.48487">
        <ele>1342.6</ele>
        <time>2021-09-07T09:59:10Z</time>
      </trkpt>
      <trkpt lat="44.49141" lon="5.48485">
        <ele>1342.6</ele>
        <time>2021-09-07T09:59:11Z</time>
      </trkpt>
      <trkpt lat="44.49141" lon="5.48485">
        <ele>1342.7</ele>
        <time>2021-09-07T09:59:12Z</time>
      </trkpt>
      <trkpt lat="44.49141" lon="5.48484">
        <ele>1342.7</ele>
        <time>2021-09-07T09:59:13Z</time>
      </trkpt>
      <trkpt lat="44.49141" lon="5.48483">
        <ele>1342.7</ele>
        <time>2021-09-07T09:59:14Z</time>
      </trkpt>
      <trkpt lat="44.49141" lon="5.48483">
        <ele>1342.7</ele>
        <time>2021-09-07T09:59:15Z</time>
      </trkpt>
      <trkpt lat="44.49141" lon="5.48483">
        <ele>1342.7</ele>
        <time>2021-09-07T09:59:16Z</time>
      </trkpt>
      <trkpt lat="44.49141" lon="5.48483">
        <ele>1342.7</ele>
        <time>2021-09-07T09:59:17Z</time>
      </trkpt>
      <trkpt lat="44.4914" lon="5.48481">
        <ele>1342.7</ele>
        <time>2021-09-07T09:59:18Z</time>
      </trkpt>
      <trkpt lat="44.4914" lon="5.4848">
        <ele>1342.8</ele>
        <time>2021-09-07T09:59:19Z</time>
      </trkpt>
      <trkpt lat="44.4914" lon="5.48479">
        <ele>1342.8</ele>
        <time>2021-09-07T09:59:20Z</time>
      </trkpt>
      <trkpt lat="44.49139" lon="5.48477">
        <ele>1342.8</ele>
        <time>2021-09-07T09:59:21Z</time>
      </trkpt>
      <trkpt lat="44.49138" lon="5.48475">
        <ele>1342.9</ele>
        <time>2021-09-07T09:59:22Z</time>
      </trkpt>
      <trkpt lat="44.49138" lon="5.48474">
        <ele>1342.9</ele>
        <time>2021-09-07T09:59:23Z</time>
      </trkpt>
      <trkpt lat="44.49137" lon="5.48472">
        <ele>1342.9</ele>
        <time>2021-09-07T09:59:24Z</time>
      </trkpt>
      <trkpt lat="44.49137" lon="5.48471">
        <ele>1343</ele>
        <time>2021-09-07T09:59:25Z</time>
      </trkpt>
      <trkpt lat="44.49136" lon="5.48469">
        <ele>1343</ele>
        <time>2021-09-07T09:59:26Z</time>
      </trkpt>
      <trkpt lat="44.49136" lon="5.48468">
        <ele>1343</ele>
        <time>2021-09-07T09:59:27Z</time>
      </trkpt>
      <trkpt lat="44.49136" lon="5.48468">
        <ele>1343</ele>
        <time>2021-09-07T09:59:28Z</time>
      </trkpt>
      <trkpt lat="44.49136" lon="5.48468">
        <ele>1343</ele>
        <time>2021-09-07T09:59:29Z</time>
      </trkpt>
      <trkpt lat="44.49136" lon="5.48467">
        <ele>1343.1</ele>
        <time>2021-09-07T09:59:30Z</time>
      </trkpt>
      <trkpt lat="44.49136" lon="5.48467">
        <ele>1343.1</ele>
        <time>2021-09-07T09:59:31Z</time>
      </trkpt>
      <trkpt lat="44.49136" lon="5.48465">
        <ele>1343.1</ele>
        <time>2021-09-07T09:59:32Z</time>
      </trkpt>
      <trkpt lat="44.49136" lon="5.48461">
        <ele>1343.2</ele>
        <time>2021-09-07T09:59:33Z</time>
      </trkpt>
      <trkpt lat="44.49136" lon="5.4846">
        <ele>1343.2</ele>
        <time>2021-09-07T09:59:34Z</time>
      </trkpt>
      <trkpt lat="44.49136" lon="5.48458">
        <ele>1343.2</ele>
        <time>2021-09-07T09:59:35Z</time>
      </trkpt>
      <trkpt lat="44.49136" lon="5.48455">
        <ele>1343.3</ele>
        <time>2021-09-07T09:59:36Z</time>
      </trkpt>
      <trkpt lat="44.49136" lon="5.48454">
        <ele>1343.3</ele>
        <time>2021-09-07T09:59:37Z</time>
      </trkpt>
      <trkpt lat="44.49136" lon="5.48452">
        <ele>1343.4</ele>
        <time>2021-09-07T09:59:38Z</time>
      </trkpt>
      <trkpt lat="44.49135" lon="5.48449">
        <ele>1343.4</ele>
        <time>2021-09-07T09:59:39Z</time>
      </trkpt>
      <trkpt lat="44.49135" lon="5.48447">
        <ele>1343.5</ele>
        <time>2021-09-07T09:59:40Z</time>
      </trkpt>
      <trkpt lat="44.49135" lon="5.48445">
        <ele>1343.5</ele>
        <time>2021-09-07T09:59:41Z</time>
      </trkpt>
      <trkpt lat="44.49135" lon="5.48443">
        <ele>1343.5</ele>
        <time>2021-09-07T09:59:42Z</time>
      </trkpt>
      <trkpt lat="44.49135" lon="5.48439">
        <ele>1343.6</ele>
        <time>2021-09-07T09:59:43Z</time>
      </trkpt>
      <trkpt lat="44.49135" lon="5.48437">
        <ele>1343.7</ele>
        <time>2021-09-07T09:59:44Z</time>
      </trkpt>
      <trkpt lat="44.49135" lon="5.48435">
        <ele>1343.7</ele>
        <time>2021-09-07T09:59:45Z</time>
      </trkpt>
      <trkpt lat="44.49135" lon="5.48433">
        <ele>1343.8</ele>
        <time>2021-09-07T09:59:46Z</time>
      </trkpt>
      <trkpt lat="44.49135" lon="5.4843">
        <ele>1343.8</ele>
        <time>2021-09-07T09:59:47Z</time>
      </trkpt>
      <trkpt lat="44.49135" lon="5.48428">
        <ele>1343.9</ele>
        <time>2021-09-07T09:59:48Z</time>
      </trkpt>
      <trkpt lat="44.49135" lon="5.48427">
        <ele>1343.9</ele>
        <time>2021-09-07T09:59:49Z</time>
      </trkpt>
      <trkpt lat="44.49135" lon="5.48426">
        <ele>1343.9</ele>
        <time>2021-09-07T09:59:50Z</time>
      </trkpt>
      <trkpt lat="44.49136" lon="5.48423">
        <ele>1344</ele>
        <time>2021-09-07T09:59:51Z</time>
      </trkpt>
      <trkpt lat="44.49137" lon="5.48421">
        <ele>1344</ele>
        <time>2021-09-07T09:59:52Z</time>
      </trkpt>
      <trkpt lat="44.49137" lon="5.48421">
        <ele>1344</ele>
        <time>2021-09-07T09:59:53Z</time>
      </trkpt>
      <trkpt lat="44.49137" lon="5.4842">
        <ele>1344</ele>
        <time>2021-09-07T09:59:54Z</time>
      </trkpt>
      <trkpt lat="44.49137" lon="5.4842">
        <ele>1344</ele>
        <time>2021-09-07T09:59:55Z</time>
      </trkpt>
      <trkpt lat="44.49137" lon="5.4842">
        <ele>1344</ele>
        <time>2021-09-07T09:59:56Z</time>
      </trkpt>
      <trkpt lat="44.49137" lon="5.48419">
        <ele>1344.1</ele>
        <time>2021-09-07T09:59:57Z</time>
      </trkpt>
      <trkpt lat="44.49137" lon="5.48419">
        <ele>1344.1</ele>
        <time>2021-09-07T09:59:58Z</time>
      </trkpt>
      <trkpt lat="44.49137" lon="5.48418">
        <ele>1344.1</ele>
        <time>2021-09-07T09:59:59Z</time>
      </trkpt>
      <trkpt lat="44.49137" lon="5.48417">
        <ele>1344.1</ele>
        <time>2021-09-07T10:00:00Z</time>
      </trkpt>
      <trkpt lat="44.49137" lon="5.48416">
        <ele>1344.1</ele>
        <time>2021-09-07T10:00:01Z</time>
      </trkpt>
      <trkpt lat="44.49136" lon="5.48414">
        <ele>1344.2</ele>
        <time>2021-09-07T10:00:02Z</time>
      </trkpt>
      <trkpt lat="44.49136" lon="5.48413">
        <ele>1344.2</ele>
        <time>2021-09-07T10:00:03Z</time>
      </trkpt>
      <trkpt lat="44.49135" lon="5.48411">
        <ele>1344.2</ele>
        <time>2021-09-07T10:00:04Z</time>
      </trkpt>
      <trkpt lat="44.49134" lon="5.48409">
        <ele>1344.3</ele>
        <time>2021-09-07T10:00:05Z</time>
      </trkpt>
      <trkpt lat="44.49134" lon="5.48408">
        <ele>1344.3</ele>
        <time>2021-09-07T10:00:06Z</time>
      </trkpt>
      <trkpt lat="44.49133" lon="5.48407">
        <ele>1344.3</ele>
        <time>2021-09-07T10:00:07Z</time>
      </trkpt>
      <trkpt lat="44.49133" lon="5.48405">
        <ele>1344.4</ele>
        <time>2021-09-07T10:00:08Z</time>
      </trkpt>
      <trkpt lat="44.49132" lon="5.48402">
        <ele>1344.4</ele>
        <time>2021-09-07T10:00:09Z</time>
      </trkpt>
      <trkpt lat="44.49131" lon="5.48398">
        <ele>1344.5</ele>
        <time>2021-09-07T10:00:10Z</time>
      </trkpt>
      <trkpt lat="44.49131" lon="5.48397">
        <ele>1344.6</ele>
        <time>2021-09-07T10:00:11Z</time>
      </trkpt>
      <trkpt lat="44.4913" lon="5.48395">
        <ele>1344.6</ele>
        <time>2021-09-07T10:00:12Z</time>
      </trkpt>
      <trkpt lat="44.49129" lon="5.48392">
        <ele>1344.7</ele>
        <time>2021-09-07T10:00:13Z</time>
      </trkpt>
      <trkpt lat="44.49128" lon="5.4839">
        <ele>1344.7</ele>
        <time>2021-09-07T10:00:14Z</time>
      </trkpt>
      <trkpt lat="44.49128" lon="5.4839">
        <ele>1344.7</ele>
        <time>2021-09-07T10:00:15Z</time>
      </trkpt>
      <trkpt lat="44.49128" lon="5.48389">
        <ele>1344.7</ele>
        <time>2021-09-07T10:00:16Z</time>
      </trkpt>
      <trkpt lat="44.49128" lon="5.48388">
        <ele>1344.7</ele>
        <time>2021-09-07T10:00:17Z</time>
      </trkpt>
      <trkpt lat="44.49127" lon="5.48388">
        <ele>1344.8</ele>
        <time>2021-09-07T10:00:18Z</time>
      </trkpt>
      <trkpt lat="44.49127" lon="5.48387">
        <ele>1344.8</ele>
        <time>2021-09-07T10:00:19Z</time>
      </trkpt>
      <trkpt lat="44.49127" lon="5.48386">
        <ele>1344.8</ele>
        <time>2021-09-07T10:00:20Z</time>
      </trkpt>
      <trkpt lat="44.49127" lon="5.48386">
        <ele>1344.8</ele>
        <time>2021-09-07T10:00:21Z</time>
      </trkpt>
      <trkpt lat="44.49126" lon="5.48385">
        <ele>1344.8</ele>
        <time>2021-09-07T10:00:22Z</time>
      </trkpt>
      <trkpt lat="44.49126" lon="5.48385">
        <ele>1344.8</ele>
        <time>2021-09-07T10:00:23Z</time>
      </trkpt>
      <trkpt lat="44.49126" lon="5.48384">
        <ele>1344.8</ele>
        <time>2021-09-07T10:00:24Z</time>
      </trkpt>
      <trkpt lat="44.49126" lon="5.48383">
        <ele>1344.9</ele>
        <time>2021-09-07T10:00:25Z</time>
      </trkpt>
      <trkpt lat="44.49125" lon="5.48383">
        <ele>1344.9</ele>
        <time>2021-09-07T10:00:26Z</time>
      </trkpt>
      <trkpt lat="44.49125" lon="5.48382">
        <ele>1344.9</ele>
        <time>2021-09-07T10:00:27Z</time>
      </trkpt>
      <trkpt lat="44.49125" lon="5.48381">
        <ele>1344.9</ele>
        <time>2021-09-07T10:00:28Z</time>
      </trkpt>
      <trkpt lat="44.49125" lon="5.48381">
        <ele>1344.9</ele>
        <time>2021-09-07T10:00:29Z</time>
      </trkpt>
      <trkpt lat="44.49124" lon="5.4838">
        <ele>1344.9</ele>
        <time>2021-09-07T10:00:30Z</time>
      </trkpt>
      <trkpt lat="44.49124" lon="5.48379">
        <ele>1345</ele>
        <time>2021-09-07T10:00:31Z</time>
      </trkpt>
      <trkpt lat="44.49124" lon="5.48379">
        <ele>1345</ele>
        <time>2021-09-07T10:00:32Z</time>
      </trkpt>
      <trkpt lat="44.49124" lon="5.48378">
        <ele>1345</ele>
        <time>2021-09-07T10:00:33Z</time>
      </trkpt>
      <trkpt lat="44.49124" lon="5.48377">
        <ele>1345</ele>
        <time>2021-09-07T10:00:34Z</time>
      </trkpt>
      <trkpt lat="44.49123" lon="5.48377">
        <ele>1345</ele>
        <time>2021-09-07T10:00:35Z</time>
      </trkpt>
      <trkpt lat="44.49123" lon="5.48376">
        <ele>1345</ele>
        <time>2021-09-07T10:00:36Z</time>
      </trkpt>
      <trkpt lat="44.49123" lon="5.48371">
        <ele>1345.1</ele>
        <time>2021-09-07T10:00:37Z</time>
      </trkpt>
      <trkpt lat="44.49122" lon="5.48365">
        <ele>1345.3</ele>
        <time>2021-09-07T10:00:38Z</time>
      </trkpt>
      <trkpt lat="44.49121" lon="5.48351">
        <ele>1345.5</ele>
        <time>2021-09-07T10:00:39Z</time>
      </trkpt>
      <trkpt lat="44.4912" lon="5.48336">
        <ele>1345.8</ele>
        <time>2021-09-07T10:00:40Z</time>
      </trkpt>
      <trkpt lat="44.49122" lon="5.4833">
        <ele>1346</ele>
        <time>2021-09-07T10:00:41Z</time>
      </trkpt>
      <trkpt lat="44.49122" lon="5.48326">
        <ele>1346.1</ele>
        <time>2021-09-07T10:00:42Z</time>
      </trkpt>
      <trkpt lat="44.49122" lon="5.48321">
        <ele>1346.2</ele>
        <time>2021-09-07T10:00:43Z</time>
      </trkpt>
      <trkpt lat="44.4912" lon="5.48315">
        <ele>1346.3</ele>
        <time>2021-09-07T10:00:44Z</time>
      </trkpt>
      <trkpt lat="44.49118" lon="5.4831">
        <ele>1346.4</ele>
        <time>2021-09-07T10:00:45Z</time>
      </trkpt>
      <trkpt lat="44.49116" lon="5.48306">
        <ele>1346.5</ele>
        <time>2021-09-07T10:00:46Z</time>
      </trkpt>
      <trkpt lat="44.49113" lon="5.48304">
        <ele>1346.6</ele>
        <time>2021-09-07T10:00:47Z</time>
      </trkpt>
      <trkpt lat="44.49113" lon="5.48303">
        <ele>1346.6</ele>
        <time>2021-09-07T10:00:48Z</time>
      </trkpt>
      <trkpt lat="44.49112" lon="5.48302">
        <ele>1346.7</ele>
        <time>2021-09-07T10:00:49Z</time>
      </trkpt>
      <trkpt lat="44.49111" lon="5.48299">
        <ele>1346.7</ele>
        <time>2021-09-07T10:00:50Z</time>
      </trkpt>
      <trkpt lat="44.49112" lon="5.48293">
        <ele>1346.9</ele>
        <time>2021-09-07T10:00:51Z</time>
      </trkpt>
      <trkpt lat="44.49113" lon="5.48288">
        <ele>1347</ele>
        <time>2021-09-07T10:00:52Z</time>
      </trkpt>
      <trkpt lat="44.49113" lon="5.48285">
        <ele>1347</ele>
        <time>2021-09-07T10:00:53Z</time>
      </trkpt>
      <trkpt lat="44.49113" lon="5.48282">
        <ele>1347.1</ele>
        <time>2021-09-07T10:00:54Z</time>
      </trkpt>
      <trkpt lat="44.49114" lon="5.48276">
        <ele>1347.2</ele>
        <time>2021-09-07T10:00:55Z</time>
      </trkpt>
      <trkpt lat="44.49115" lon="5.48275">
        <ele>1347.2</ele>
        <time>2021-09-07T10:00:56Z</time>
      </trkpt>
      <trkpt lat="44.49115" lon="5.48273">
        <ele>1347.3</ele>
        <time>2021-09-07T10:00:57Z</time>
      </trkpt>
      <trkpt lat="44.49114" lon="5.4827">
        <ele>1347.3</ele>
        <time>2021-09-07T10:00:58Z</time>
      </trkpt>
      <trkpt lat="44.49114" lon="5.48267">
        <ele>1347.4</ele>
        <time>2021-09-07T10:00:59Z</time>
      </trkpt>
      <trkpt lat="44.49113" lon="5.48262">
        <ele>1347.5</ele>
        <time>2021-09-07T10:01:00Z</time>
      </trkpt>
      <trkpt lat="44.49113" lon="5.48259">
        <ele>1347.6</ele>
        <time>2021-09-07T10:01:01Z</time>
      </trkpt>
      <trkpt lat="44.49113" lon="5.48256">
        <ele>1347.6</ele>
        <time>2021-09-07T10:01:02Z</time>
      </trkpt>
      <trkpt lat="44.49112" lon="5.48252">
        <ele>1347.7</ele>
        <time>2021-09-07T10:01:03Z</time>
      </trkpt>
      <trkpt lat="44.49112" lon="5.48248">
        <ele>1347.8</ele>
        <time>2021-09-07T10:01:04Z</time>
      </trkpt>
      <trkpt lat="44.49112" lon="5.48247">
        <ele>1347.8</ele>
        <time>2021-09-07T10:01:05Z</time>
      </trkpt>
      <trkpt lat="44.49111" lon="5.48245">
        <ele>1347.9</ele>
        <time>2021-09-07T10:01:06Z</time>
      </trkpt>
      <trkpt lat="44.49111" lon="5.48243">
        <ele>1347.9</ele>
        <time>2021-09-07T10:01:07Z</time>
      </trkpt>
      <trkpt lat="44.4911" lon="5.4824">
        <ele>1348</ele>
        <time>2021-09-07T10:01:08Z</time>
      </trkpt>
      <trkpt lat="44.49111" lon="5.48237">
        <ele>1348</ele>
        <time>2021-09-07T10:01:09Z</time>
      </trkpt>
      <trkpt lat="44.49111" lon="5.48235">
        <ele>1348.1</ele>
        <time>2021-09-07T10:01:10Z</time>
      </trkpt>
      <trkpt lat="44.49112" lon="5.48231">
        <ele>1348.2</ele>
        <time>2021-09-07T10:01:11Z</time>
      </trkpt>
      <trkpt lat="44.49112" lon="5.48229">
        <ele>1348.2</ele>
        <time>2021-09-07T10:01:12Z</time>
      </trkpt>
      <trkpt lat="44.49112" lon="5.48226">
        <ele>1348.3</ele>
        <time>2021-09-07T10:01:13Z</time>
      </trkpt>
      <trkpt lat="44.49113" lon="5.48223">
        <ele>1348.3</ele>
        <time>2021-09-07T10:01:14Z</time>
      </trkpt>
      <trkpt lat="44.49114" lon="5.48216">
        <ele>1348.5</ele>
        <time>2021-09-07T10:01:15Z</time>
      </trkpt>
      <trkpt lat="44.49114" lon="5.48214">
        <ele>1348.5</ele>
        <time>2021-09-07T10:01:16Z</time>
      </trkpt>
      <trkpt lat="44.49113" lon="5.48212">
        <ele>1348.6</ele>
        <time>2021-09-07T10:01:17Z</time>
      </trkpt>
      <trkpt lat="44.49113" lon="5.48209">
        <ele>1348.6</ele>
        <time>2021-09-07T10:01:18Z</time>
      </trkpt>
      <trkpt lat="44.49112" lon="5.48205">
        <ele>1348.7</ele>
        <time>2021-09-07T10:01:19Z</time>
      </trkpt>
      <trkpt lat="44.49112" lon="5.48202">
        <ele>1348.8</ele>
        <time>2021-09-07T10:01:20Z</time>
      </trkpt>
      <trkpt lat="44.49111" lon="5.482">
        <ele>1348.8</ele>
        <time>2021-09-07T10:01:21Z</time>
      </trkpt>
      <trkpt lat="44.4911" lon="5.48197">
        <ele>1348.9</ele>
        <time>2021-09-07T10:01:22Z</time>
      </trkpt>
      <trkpt lat="44.49109" lon="5.48191">
        <ele>1349</ele>
        <time>2021-09-07T10:01:23Z</time>
      </trkpt>
      <trkpt lat="44.49108" lon="5.48188">
        <ele>1349.1</ele>
        <time>2021-09-07T10:01:24Z</time>
      </trkpt>
      <trkpt lat="44.49107" lon="5.48185">
        <ele>1349.1</ele>
        <time>2021-09-07T10:01:25Z</time>
      </trkpt>
      <trkpt lat="44.49107" lon="5.48185">
        <ele>1349.2</ele>
        <time>2021-09-07T10:01:26Z</time>
      </trkpt>
      <trkpt lat="44.49107" lon="5.48184">
        <ele>1349.2</ele>
        <time>2021-09-07T10:01:27Z</time>
      </trkpt>
      <trkpt lat="44.49106" lon="5.48182">
        <ele>1349.2</ele>
        <time>2021-09-07T10:01:28Z</time>
      </trkpt>
      <trkpt lat="44.49106" lon="5.4818">
        <ele>1349.3</ele>
        <time>2021-09-07T10:01:29Z</time>
      </trkpt>
      <trkpt lat="44.49106" lon="5.48177">
        <ele>1349.3</ele>
        <time>2021-09-07T10:01:30Z</time>
      </trkpt>
      <trkpt lat="44.49106" lon="5.48175">
        <ele>1349.4</ele>
        <time>2021-09-07T10:01:31Z</time>
      </trkpt>
      <trkpt lat="44.49106" lon="5.48175">
        <ele>1349.4</ele>
        <time>2021-09-07T10:01:32Z</time>
      </trkpt>
      <trkpt lat="44.49106" lon="5.48174">
        <ele>1349.4</ele>
        <time>2021-09-07T10:01:33Z</time>
      </trkpt>
      <trkpt lat="44.49105" lon="5.48174">
        <ele>1349.4</ele>
        <time>2021-09-07T10:01:34Z</time>
      </trkpt>
      <trkpt lat="44.49104" lon="5.48173">
        <ele>1349.4</ele>
        <time>2021-09-07T10:01:35Z</time>
      </trkpt>
      <trkpt lat="44.49104" lon="5.48171">
        <ele>1349.5</ele>
        <time>2021-09-07T10:01:36Z</time>
      </trkpt>
      <trkpt lat="44.49105" lon="5.48169">
        <ele>1349.5</ele>
        <time>2021-09-07T10:01:37Z</time>
      </trkpt>
      <trkpt lat="44.49105" lon="5.48168">
        <ele>1349.6</ele>
        <time>2021-09-07T10:01:38Z</time>
      </trkpt>
      <trkpt lat="44.49105" lon="5.48166">
        <ele>1349.6</ele>
        <time>2021-09-07T10:01:39Z</time>
      </trkpt>
      <trkpt lat="44.49106" lon="5.48163">
        <ele>1349.7</ele>
        <time>2021-09-07T10:01:40Z</time>
      </trkpt>
      <trkpt lat="44.49107" lon="5.48161">
        <ele>1349.7</ele>
        <time>2021-09-07T10:01:41Z</time>
      </trkpt>
      <trkpt lat="44.49108" lon="5.4816">
        <ele>1349.7</ele>
        <time>2021-09-07T10:01:42Z</time>
      </trkpt>
      <trkpt lat="44.49108" lon="5.48158">
        <ele>1349.8</ele>
        <time>2021-09-07T10:01:43Z</time>
      </trkpt>
      <trkpt lat="44.4911" lon="5.48155">
        <ele>1349.9</ele>
        <time>2021-09-07T10:01:44Z</time>
      </trkpt>
      <trkpt lat="44.49111" lon="5.48151">
        <ele>1349.9</ele>
        <time>2021-09-07T10:01:45Z</time>
      </trkpt>
      <trkpt lat="44.49111" lon="5.4815">
        <ele>1350</ele>
        <time>2021-09-07T10:01:46Z</time>
      </trkpt>
      <trkpt lat="44.49111" lon="5.4815">
        <ele>1350</ele>
        <time>2021-09-07T10:01:47Z</time>
      </trkpt>
      <trkpt lat="44.49111" lon="5.48149">
        <ele>1350</ele>
        <time>2021-09-07T10:01:48Z</time>
      </trkpt>
      <trkpt lat="44.49112" lon="5.48149">
        <ele>1350</ele>
        <time>2021-09-07T10:01:49Z</time>
      </trkpt>
      <trkpt lat="44.49112" lon="5.48148">
        <ele>1350</ele>
        <time>2021-09-07T10:01:50Z</time>
      </trkpt>
      <trkpt lat="44.49113" lon="5.48146">
        <ele>1350.1</ele>
        <time>2021-09-07T10:01:51Z</time>
      </trkpt>
      <trkpt lat="44.49114" lon="5.48146">
        <ele>1350.1</ele>
        <time>2021-09-07T10:01:52Z</time>
      </trkpt>
      <trkpt lat="44.49114" lon="5.48145">
        <ele>1350.1</ele>
        <time>2021-09-07T10:01:53Z</time>
      </trkpt>
      <trkpt lat="44.49115" lon="5.48144">
        <ele>1350.2</ele>
        <time>2021-09-07T10:01:54Z</time>
      </trkpt>
      <trkpt lat="44.49117" lon="5.48142">
        <ele>1350</ele>
        <time>2021-09-07T10:01:55Z</time>
      </trkpt>
      <trkpt lat="44.49117" lon="5.48141">
        <ele>1350</ele>
        <time>2021-09-07T10:01:56Z</time>
      </trkpt>
      <trkpt lat="44.49117" lon="5.4814">
        <ele>1349.9</ele>
        <time>2021-09-07T10:01:57Z</time>
      </trkpt>
      <trkpt lat="44.49118" lon="5.48139">
        <ele>1349.8</ele>
        <time>2021-09-07T10:01:58Z</time>
      </trkpt>
      <trkpt lat="44.49119" lon="5.48137">
        <ele>1349.7</ele>
        <time>2021-09-07T10:01:59Z</time>
      </trkpt>
      <trkpt lat="44.4912" lon="5.48136">
        <ele>1349.5</ele>
        <time>2021-09-07T10:02:00Z</time>
      </trkpt>
      <trkpt lat="44.49121" lon="5.48135">
        <ele>1349.4</ele>
        <time>2021-09-07T10:02:01Z</time>
      </trkpt>
      <trkpt lat="44.49122" lon="5.48134">
        <ele>1349.3</ele>
        <time>2021-09-07T10:02:02Z</time>
      </trkpt>
      <trkpt lat="44.49122" lon="5.48132">
        <ele>1349.2</ele>
        <time>2021-09-07T10:02:03Z</time>
      </trkpt>
      <trkpt lat="44.49123" lon="5.48131">
        <ele>1349.1</ele>
        <time>2021-09-07T10:02:04Z</time>
      </trkpt>
      <trkpt lat="44.49123" lon="5.4813">
        <ele>1349.1</ele>
        <time>2021-09-07T10:02:05Z</time>
      </trkpt>
      <trkpt lat="44.49124" lon="5.48127">
        <ele>1348.9</ele>
        <time>2021-09-07T10:02:06Z</time>
      </trkpt>
      <trkpt lat="44.49125" lon="5.48126">
        <ele>1348.8</ele>
        <time>2021-09-07T10:02:07Z</time>
      </trkpt>
      <trkpt lat="44.49125" lon="5.48125">
        <ele>1348.7</ele>
        <time>2021-09-07T10:02:08Z</time>
      </trkpt>
      <trkpt lat="44.49126" lon="5.48125">
        <ele>1348.7</ele>
        <time>2021-09-07T10:02:09Z</time>
      </trkpt>
      <trkpt lat="44.49126" lon="5.48124">
        <ele>1348.6</ele>
        <time>2021-09-07T10:02:10Z</time>
      </trkpt>
      <trkpt lat="44.49126" lon="5.48124">
        <ele>1348.6</ele>
        <time>2021-09-07T10:02:11Z</time>
      </trkpt>
      <trkpt lat="44.49127" lon="5.48123">
        <ele>1348.5</ele>
        <time>2021-09-07T10:02:12Z</time>
      </trkpt>
      <trkpt lat="44.49128" lon="5.48123">
        <ele>1348.4</ele>
        <time>2021-09-07T10:02:13Z</time>
      </trkpt>
      <trkpt lat="44.49128" lon="5.48122">
        <ele>1348.4</ele>
        <time>2021-09-07T10:02:14Z</time>
      </trkpt>
      <trkpt lat="44.49129" lon="5.48117">
        <ele>1348.1</ele>
        <time>2021-09-07T10:02:15Z</time>
      </trkpt>
      <trkpt lat="44.4913" lon="5.48116">
        <ele>1348</ele>
        <time>2021-09-07T10:02:16Z</time>
      </trkpt>
      <trkpt lat="44.4913" lon="5.48115">
        <ele>1347.9</ele>
        <time>2021-09-07T10:02:17Z</time>
      </trkpt>
      <trkpt lat="44.4913" lon="5.48112">
        <ele>1347.7</ele>
        <time>2021-09-07T10:02:18Z</time>
      </trkpt>
      <trkpt lat="44.4913" lon="5.48111">
        <ele>1347.7</ele>
        <time>2021-09-07T10:02:19Z</time>
      </trkpt>
      <trkpt lat="44.49131" lon="5.48109">
        <ele>1347.5</ele>
        <time>2021-09-07T10:02:20Z</time>
      </trkpt>
      <trkpt lat="44.49131" lon="5.48105">
        <ele>1347.2</ele>
        <time>2021-09-07T10:02:21Z</time>
      </trkpt>
      <trkpt lat="44.49131" lon="5.48104">
        <ele>1347.2</ele>
        <time>2021-09-07T10:02:22Z</time>
      </trkpt>
      <trkpt lat="44.49131" lon="5.48103">
        <ele>1347.1</ele>
        <time>2021-09-07T10:02:23Z</time>
      </trkpt>
      <trkpt lat="44.49131" lon="5.48101">
        <ele>1347</ele>
        <time>2021-09-07T10:02:24Z</time>
      </trkpt>
      <trkpt lat="44.49131" lon="5.48099">
        <ele>1346.9</ele>
        <time>2021-09-07T10:02:25Z</time>
      </trkpt>
      <trkpt lat="44.49131" lon="5.48096">
        <ele>1346.7</ele>
        <time>2021-09-07T10:02:26Z</time>
      </trkpt>
      <trkpt lat="44.49132" lon="5.48095">
        <ele>1346.6</ele>
        <time>2021-09-07T10:02:27Z</time>
      </trkpt>
      <trkpt lat="44.49132" lon="5.48095">
        <ele>1346.5</ele>
        <time>2021-09-07T10:02:28Z</time>
      </trkpt>
      <trkpt lat="44.49132" lon="5.48094">
        <ele>1346.5</ele>
        <time>2021-09-07T10:02:29Z</time>
      </trkpt>
      <trkpt lat="44.49132" lon="5.48094">
        <ele>1346.5</ele>
        <time>2021-09-07T10:02:30Z</time>
      </trkpt>
      <trkpt lat="44.49132" lon="5.48093">
        <ele>1346.4</ele>
        <time>2021-09-07T10:02:31Z</time>
      </trkpt>
      <trkpt lat="44.49132" lon="5.48093">
        <ele>1346.4</ele>
        <time>2021-09-07T10:02:32Z</time>
      </trkpt>
      <trkpt lat="44.49132" lon="5.48093">
        <ele>1346.4</ele>
        <time>2021-09-07T10:02:33Z</time>
      </trkpt>
      <trkpt lat="44.49132" lon="5.48093">
        <ele>1346.4</ele>
        <time>2021-09-07T10:02:34Z</time>
      </trkpt>
      <trkpt lat="44.49132" lon="5.48092">
        <ele>1346.4</ele>
        <time>2021-09-07T10:02:35Z</time>
      </trkpt>
      <trkpt lat="44.49132" lon="5.48092">
        <ele>1346.4</ele>
        <time>2021-09-07T10:02:36Z</time>
      </trkpt>
      <trkpt lat="44.49132" lon="5.48091">
        <ele>1346.3</ele>
        <time>2021-09-07T10:02:37Z</time>
      </trkpt>
      <trkpt lat="44.49132" lon="5.48089">
        <ele>1346.2</ele>
        <time>2021-09-07T10:02:38Z</time>
      </trkpt>
      <trkpt lat="44.49133" lon="5.48087">
        <ele>1346</ele>
        <time>2021-09-07T10:02:39Z</time>
      </trkpt>
      <trkpt lat="44.49133" lon="5.48084">
        <ele>1345.9</ele>
        <time>2021-09-07T10:02:40Z</time>
      </trkpt>
      <trkpt lat="44.49134" lon="5.48082">
        <ele>1345.7</ele>
        <time>2021-09-07T10:02:41Z</time>
      </trkpt>
      <trkpt lat="44.49134" lon="5.48082">
        <ele>1345.7</ele>
        <time>2021-09-07T10:02:42Z</time>
      </trkpt>
      <trkpt lat="44.49134" lon="5.48081">
        <ele>1345.7</ele>
        <time>2021-09-07T10:02:43Z</time>
      </trkpt>
      <trkpt lat="44.49134" lon="5.4808">
        <ele>1345.6</ele>
        <time>2021-09-07T10:02:44Z</time>
      </trkpt>
      <trkpt lat="44.49135" lon="5.4808">
        <ele>1345.5</ele>
        <time>2021-09-07T10:02:45Z</time>
      </trkpt>
      <trkpt lat="44.49135" lon="5.48079">
        <ele>1345.5</ele>
        <time>2021-09-07T10:02:46Z</time>
      </trkpt>
      <trkpt lat="44.49135" lon="5.48078">
        <ele>1345.4</ele>
        <time>2021-09-07T10:02:47Z</time>
      </trkpt>
      <trkpt lat="44.49135" lon="5.48078">
        <ele>1345.4</ele>
        <time>2021-09-07T10:02:48Z</time>
      </trkpt>
      <trkpt lat="44.49135" lon="5.48077">
        <ele>1345.4</ele>
        <time>2021-09-07T10:02:49Z</time>
      </trkpt>
      <trkpt lat="44.49135" lon="5.48075">
        <ele>1345.2</ele>
        <time>2021-09-07T10:02:50Z</time>
      </trkpt>
      <trkpt lat="44.49136" lon="5.48072">
        <ele>1345</ele>
        <time>2021-09-07T10:02:51Z</time>
      </trkpt>
      <trkpt lat="44.49136" lon="5.48069">
        <ele>1344.8</ele>
        <time>2021-09-07T10:02:52Z</time>
      </trkpt>
      <trkpt lat="44.49137" lon="5.48068">
        <ele>1344.8</ele>
        <time>2021-09-07T10:02:53Z</time>
      </trkpt>
      <trkpt lat="44.49137" lon="5.48067">
        <ele>1344.7</ele>
        <time>2021-09-07T10:02:54Z</time>
      </trkpt>
      <trkpt lat="44.49137" lon="5.48064">
        <ele>1344.5</ele>
        <time>2021-09-07T10:02:55Z</time>
      </trkpt>
      <trkpt lat="44.49138" lon="5.48061">
        <ele>1344.3</ele>
        <time>2021-09-07T10:02:56Z</time>
      </trkpt>
      <trkpt lat="44.49138" lon="5.48057">
        <ele>1344</ele>
        <time>2021-09-07T10:02:57Z</time>
      </trkpt>
      <trkpt lat="44.49138" lon="5.48055">
        <ele>1343.9</ele>
        <time>2021-09-07T10:02:58Z</time>
      </trkpt>
      <trkpt lat="44.4914" lon="5.48053">
        <ele>1343.7</ele>
        <time>2021-09-07T10:02:59Z</time>
      </trkpt>
      <trkpt lat="44.49141" lon="5.48051">
        <ele>1343.5</ele>
        <time>2021-09-07T10:03:00Z</time>
      </trkpt>
      <trkpt lat="44.49142" lon="5.48048">
        <ele>1343.3</ele>
        <time>2021-09-07T10:03:01Z</time>
      </trkpt>
      <trkpt lat="44.49143" lon="5.48045">
        <ele>1343.1</ele>
        <time>2021-09-07T10:03:02Z</time>
      </trkpt>
      <trkpt lat="44.49143" lon="5.48044">
        <ele>1343.1</ele>
        <time>2021-09-07T10:03:03Z</time>
      </trkpt>
      <trkpt lat="44.49144" lon="5.48044">
        <ele>1343</ele>
        <time>2021-09-07T10:03:04Z</time>
      </trkpt>
      <trkpt lat="44.49144" lon="5.48044">
        <ele>1343</ele>
        <time>2021-09-07T10:03:05Z</time>
      </trkpt>
      <trkpt lat="44.49144" lon="5.48044">
        <ele>1343</ele>
        <time>2021-09-07T10:03:06Z</time>
      </trkpt>
      <trkpt lat="44.49144" lon="5.48044">
        <ele>1343</ele>
        <time>2021-09-07T10:03:07Z</time>
      </trkpt>
      <trkpt lat="44.49144" lon="5.48044">
        <ele>1343</ele>
        <time>2021-09-07T10:03:08Z</time>
      </trkpt>
      <trkpt lat="44.49144" lon="5.48044">
        <ele>1343</ele>
        <time>2021-09-07T10:03:09Z</time>
      </trkpt>
      <trkpt lat="44.49144" lon="5.48043">
        <ele>1342.9</ele>
        <time>2021-09-07T10:03:10Z</time>
      </trkpt>
      <trkpt lat="44.49144" lon="5.48043">
        <ele>1342.9</ele>
        <time>2021-09-07T10:03:11Z</time>
      </trkpt>
      <trkpt lat="44.49144" lon="5.48043">
        <ele>1342.9</ele>
        <time>2021-09-07T10:03:12Z</time>
      </trkpt>
      <trkpt lat="44.49144" lon="5.48043">
        <ele>1342.9</ele>
        <time>2021-09-07T10:03:13Z</time>
      </trkpt>
      <trkpt lat="44.49145" lon="5.48043">
        <ele>1342.9</ele>
        <time>2021-09-07T10:03:14Z</time>
      </trkpt>
      <trkpt lat="44.49145" lon="5.48043">
        <ele>1342.8</ele>
        <time>2021-09-07T10:03:15Z</time>
      </trkpt>
      <trkpt lat="44.49144" lon="5.48042">
        <ele>1342.7</ele>
        <time>2021-09-07T10:03:16Z</time>
      </trkpt>
      <trkpt lat="44.49144" lon="5.48041">
        <ele>1342.7</ele>
        <time>2021-09-07T10:03:17Z</time>
      </trkpt>
      <trkpt lat="44.49144" lon="5.48039">
        <ele>1342.5</ele>
        <time>2021-09-07T10:03:18Z</time>
      </trkpt>
      <trkpt lat="44.49143" lon="5.48036">
        <ele>1342.3</ele>
        <time>2021-09-07T10:03:19Z</time>
      </trkpt>
      <trkpt lat="44.49143" lon="5.48034">
        <ele>1342.2</ele>
        <time>2021-09-07T10:03:20Z</time>
      </trkpt>
      <trkpt lat="44.49143" lon="5.48032">
        <ele>1342.1</ele>
        <time>2021-09-07T10:03:21Z</time>
      </trkpt>
      <trkpt lat="44.49143" lon="5.4803">
        <ele>1342</ele>
        <time>2021-09-07T10:03:22Z</time>
      </trkpt>
      <trkpt lat="44.49143" lon="5.4803">
        <ele>1341.9</ele>
        <time>2021-09-07T10:03:23Z</time>
      </trkpt>
      <trkpt lat="44.49143" lon="5.48029">
        <ele>1341.9</ele>
        <time>2021-09-07T10:03:24Z</time>
      </trkpt>
      <trkpt lat="44.49142" lon="5.48028">
        <ele>1341.8</ele>
        <time>2021-09-07T10:03:25Z</time>
      </trkpt>
      <trkpt lat="44.49142" lon="5.48027">
        <ele>1341.7</ele>
        <time>2021-09-07T10:03:26Z</time>
      </trkpt>
      <trkpt lat="44.49142" lon="5.48027">
        <ele>1341.7</ele>
        <time>2021-09-07T10:03:27Z</time>
      </trkpt>
      <trkpt lat="44.49142" lon="5.48026">
        <ele>1341.7</ele>
        <time>2021-09-07T10:03:28Z</time>
      </trkpt>
      <trkpt lat="44.49142" lon="5.48026">
        <ele>1341.7</ele>
        <time>2021-09-07T10:03:29Z</time>
      </trkpt>
      <trkpt lat="44.49142" lon="5.48026">
        <ele>1341.7</ele>
        <time>2021-09-07T10:03:30Z</time>
      </trkpt>
      <trkpt lat="44.49142" lon="5.48024">
        <ele>1341.5</ele>
        <time>2021-09-07T10:03:31Z</time>
      </trkpt>
      <trkpt lat="44.49142" lon="5.48021">
        <ele>1341.3</ele>
        <time>2021-09-07T10:03:32Z</time>
      </trkpt>
      <trkpt lat="44.49142" lon="5.48019">
        <ele>1341.2</ele>
        <time>2021-09-07T10:03:33Z</time>
      </trkpt>
      <trkpt lat="44.49143" lon="5.48015">
        <ele>1340.9</ele>
        <time>2021-09-07T10:03:34Z</time>
      </trkpt>
      <trkpt lat="44.49143" lon="5.48014">
        <ele>1340.9</ele>
        <time>2021-09-07T10:03:35Z</time>
      </trkpt>
      <trkpt lat="44.49143" lon="5.48013">
        <ele>1340.8</ele>
        <time>2021-09-07T10:03:36Z</time>
      </trkpt>
      <trkpt lat="44.49143" lon="5.48011">
        <ele>1340.7</ele>
        <time>2021-09-07T10:03:37Z</time>
      </trkpt>
      <trkpt lat="44.49143" lon="5.48009">
        <ele>1340.6</ele>
        <time>2021-09-07T10:03:38Z</time>
      </trkpt>
      <trkpt lat="44.49143" lon="5.48008">
        <ele>1340.5</ele>
        <time>2021-09-07T10:03:39Z</time>
      </trkpt>
      <trkpt lat="44.49143" lon="5.48006">
        <ele>1340.4</ele>
        <time>2021-09-07T10:03:40Z</time>
      </trkpt>
      <trkpt lat="44.49142" lon="5.48003">
        <ele>1340.2</ele>
        <time>2021-09-07T10:03:41Z</time>
      </trkpt>
      <trkpt lat="44.49143" lon="5.48">
        <ele>1340</ele>
        <time>2021-09-07T10:03:42Z</time>
      </trkpt>
      <trkpt lat="44.49143" lon="5.47999">
        <ele>1339.9</ele>
        <time>2021-09-07T10:03:43Z</time>
      </trkpt>
      <trkpt lat="44.49143" lon="5.47997">
        <ele>1339.8</ele>
        <time>2021-09-07T10:03:44Z</time>
      </trkpt>
      <trkpt lat="44.49143" lon="5.47995">
        <ele>1339.7</ele>
        <time>2021-09-07T10:03:45Z</time>
      </trkpt>
      <trkpt lat="44.49143" lon="5.47994">
        <ele>1339.6</ele>
        <time>2021-09-07T10:03:46Z</time>
      </trkpt>
      <trkpt lat="44.49142" lon="5.47994">
        <ele>1339.5</ele>
        <time>2021-09-07T10:03:47Z</time>
      </trkpt>
      <trkpt lat="44.49142" lon="5.47994">
        <ele>1339.5</ele>
        <time>2021-09-07T10:03:48Z</time>
      </trkpt>
      <trkpt lat="44.49142" lon="5.47993">
        <ele>1339.4</ele>
        <time>2021-09-07T10:03:49Z</time>
      </trkpt>
      <trkpt lat="44.49142" lon="5.47993">
        <ele>1339.4</ele>
        <time>2021-09-07T10:03:50Z</time>
      </trkpt>
      <trkpt lat="44.49142" lon="5.47993">
        <ele>1339.4</ele>
        <time>2021-09-07T10:03:51Z</time>
      </trkpt>
      <trkpt lat="44.49142" lon="5.47993">
        <ele>1339.4</ele>
        <time>2021-09-07T10:03:52Z</time>
      </trkpt>
      <trkpt lat="44.49142" lon="5.47992">
        <ele>1339.4</ele>
        <time>2021-09-07T10:03:53Z</time>
      </trkpt>
      <trkpt lat="44.49143" lon="5.4799">
        <ele>1339.2</ele>
        <time>2021-09-07T10:03:54Z</time>
      </trkpt>
      <trkpt lat="44.49143" lon="5.47986">
        <ele>1339</ele>
        <time>2021-09-07T10:03:55Z</time>
      </trkpt>
      <trkpt lat="44.49144" lon="5.47986">
        <ele>1338.9</ele>
        <time>2021-09-07T10:03:56Z</time>
      </trkpt>
      <trkpt lat="44.49144" lon="5.47985">
        <ele>1338.9</ele>
        <time>2021-09-07T10:03:57Z</time>
      </trkpt>
      <trkpt lat="44.49145" lon="5.47982">
        <ele>1338.7</ele>
        <time>2021-09-07T10:03:58Z</time>
      </trkpt>
      <trkpt lat="44.49146" lon="5.47979">
        <ele>1338.4</ele>
        <time>2021-09-07T10:03:59Z</time>
      </trkpt>
      <trkpt lat="44.49147" lon="5.47978">
        <ele>1338.4</ele>
        <time>2021-09-07T10:04:00Z</time>
      </trkpt>
      <trkpt lat="44.49147" lon="5.47977">
        <ele>1338.3</ele>
        <time>2021-09-07T10:04:01Z</time>
      </trkpt>
      <trkpt lat="44.49148" lon="5.47975">
        <ele>1338.1</ele>
        <time>2021-09-07T10:04:02Z</time>
      </trkpt>
      <trkpt lat="44.49149" lon="5.47974">
        <ele>1338</ele>
        <time>2021-09-07T10:04:03Z</time>
      </trkpt>
      <trkpt lat="44.49149" lon="5.47973">
        <ele>1338</ele>
        <time>2021-09-07T10:04:04Z</time>
      </trkpt>
      <trkpt lat="44.49149" lon="5.47973">
        <ele>1338</ele>
        <time>2021-09-07T10:04:05Z</time>
      </trkpt>
      <trkpt lat="44.49149" lon="5.47973">
        <ele>1338</ele>
        <time>2021-09-07T10:04:06Z</time>
      </trkpt>
      <trkpt lat="44.49149" lon="5.47972">
        <ele>1337.9</ele>
        <time>2021-09-07T10:04:07Z</time>
      </trkpt>
      <trkpt lat="44.49149" lon="5.47972">
        <ele>1337.9</ele>
        <time>2021-09-07T10:04:08Z</time>
      </trkpt>
      <trkpt lat="44.49149" lon="5.47972">
        <ele>1337.9</ele>
        <time>2021-09-07T10:04:09Z</time>
      </trkpt>
      <trkpt lat="44.49149" lon="5.47972">
        <ele>1337.9</ele>
        <time>2021-09-07T10:04:10Z</time>
      </trkpt>
      <trkpt lat="44.49149" lon="5.47972">
        <ele>1337.9</ele>
        <time>2021-09-07T10:04:11Z</time>
      </trkpt>
      <trkpt lat="44.49149" lon="5.47972">
        <ele>1337.9</ele>
        <time>2021-09-07T10:04:12Z</time>
      </trkpt>
      <trkpt lat="44.49149" lon="5.47972">
        <ele>1337.9</ele>
        <time>2021-09-07T10:04:13Z</time>
      </trkpt>
      <trkpt lat="44.49149" lon="5.47972">
        <ele>1337.9</ele>
        <time>2021-09-07T10:04:14Z</time>
      </trkpt>
      <trkpt lat="44.4915" lon="5.47972">
        <ele>1337.8</ele>
        <time>2021-09-07T10:04:15Z</time>
      </trkpt>
      <trkpt lat="44.4915" lon="5.47972">
        <ele>1337.8</ele>
        <time>2021-09-07T10:04:16Z</time>
      </trkpt>
      <trkpt lat="44.4915" lon="5.47972">
        <ele>1337.8</ele>
        <time>2021-09-07T10:04:17Z</time>
      </trkpt>
      <trkpt lat="44.4915" lon="5.47972">
        <ele>1337.8</ele>
        <time>2021-09-07T10:04:18Z</time>
      </trkpt>
      <trkpt lat="44.4915" lon="5.47972">
        <ele>1337.8</ele>
        <time>2021-09-07T10:04:19Z</time>
      </trkpt>
      <trkpt lat="44.4915" lon="5.47971">
        <ele>1337.8</ele>
        <time>2021-09-07T10:04:20Z</time>
      </trkpt>
      <trkpt lat="44.49151" lon="5.4797">
        <ele>1337.6</ele>
        <time>2021-09-07T10:04:21Z</time>
      </trkpt>
      <trkpt lat="44.49151" lon="5.47968">
        <ele>1337.5</ele>
        <time>2021-09-07T10:04:22Z</time>
      </trkpt>
      <trkpt lat="44.49152" lon="5.47967">
        <ele>1337.4</ele>
        <time>2021-09-07T10:04:23Z</time>
      </trkpt>
      <trkpt lat="44.49152" lon="5.47965">
        <ele>1337.3</ele>
        <time>2021-09-07T10:04:24Z</time>
      </trkpt>
      <trkpt lat="44.49152" lon="5.47964">
        <ele>1337.3</ele>
        <time>2021-09-07T10:04:25Z</time>
      </trkpt>
      <trkpt lat="44.49152" lon="5.47963">
        <ele>1337.2</ele>
        <time>2021-09-07T10:04:26Z</time>
      </trkpt>
      <trkpt lat="44.49152" lon="5.47962">
        <ele>1337.1</ele>
        <time>2021-09-07T10:04:27Z</time>
      </trkpt>
      <trkpt lat="44.49153" lon="5.47962">
        <ele>1337.1</ele>
        <time>2021-09-07T10:04:28Z</time>
      </trkpt>
      <trkpt lat="44.49153" lon="5.47961">
        <ele>1337</ele>
        <time>2021-09-07T10:04:29Z</time>
      </trkpt>
      <trkpt lat="44.49153" lon="5.47961">
        <ele>1337</ele>
        <time>2021-09-07T10:04:30Z</time>
      </trkpt>
      <trkpt lat="44.49153" lon="5.4796">
        <ele>1337</ele>
        <time>2021-09-07T10:04:31Z</time>
      </trkpt>
      <trkpt lat="44.49153" lon="5.4796">
        <ele>1337</ele>
        <time>2021-09-07T10:04:32Z</time>
      </trkpt>
      <trkpt lat="44.49153" lon="5.47959">
        <ele>1336.9</ele>
        <time>2021-09-07T10:04:33Z</time>
      </trkpt>
      <trkpt lat="44.49153" lon="5.47959">
        <ele>1336.9</ele>
        <time>2021-09-07T10:04:34Z</time>
      </trkpt>
      <trkpt lat="44.49154" lon="5.47959">
        <ele>1336.9</ele>
        <time>2021-09-07T10:04:35Z</time>
      </trkpt>
      <trkpt lat="44.49154" lon="5.47959">
        <ele>1336.8</ele>
        <time>2021-09-07T10:04:36Z</time>
      </trkpt>
      <trkpt lat="44.49154" lon="5.47959">
        <ele>1336.8</ele>
        <time>2021-09-07T10:04:37Z</time>
      </trkpt>
      <trkpt lat="44.49154" lon="5.47958">
        <ele>1336.8</ele>
        <time>2021-09-07T10:04:38Z</time>
      </trkpt>
      <trkpt lat="44.49154" lon="5.47958">
        <ele>1336.8</ele>
        <time>2021-09-07T10:04:39Z</time>
      </trkpt>
      <trkpt lat="44.49154" lon="5.47958">
        <ele>1336.8</ele>
        <time>2021-09-07T10:04:40Z</time>
      </trkpt>
      <trkpt lat="44.49154" lon="5.47958">
        <ele>1336.8</ele>
        <time>2021-09-07T10:04:41Z</time>
      </trkpt>
      <trkpt lat="44.49154" lon="5.47958">
        <ele>1336.8</ele>
        <time>2021-09-07T10:04:42Z</time>
      </trkpt>
      <trkpt lat="44.49154" lon="5.47958">
        <ele>1336.8</ele>
        <time>2021-09-07T10:04:43Z</time>
      </trkpt>
      <trkpt lat="44.49154" lon="5.47958">
        <ele>1336.8</ele>
        <time>2021-09-07T10:04:44Z</time>
      </trkpt>
      <trkpt lat="44.49154" lon="5.47958">
        <ele>1336.8</ele>
        <time>2021-09-07T10:04:45Z</time>
      </trkpt>
      <trkpt lat="44.49154" lon="5.47958">
        <ele>1336.8</ele>
        <time>2021-09-07T10:04:46Z</time>
      </trkpt>
      <trkpt lat="44.49154" lon="5.47958">
        <ele>1336.8</ele>
        <time>2021-09-07T10:04:47Z</time>
      </trkpt>
      <trkpt lat="44.49154" lon="5.47958">
        <ele>1336.8</ele>
        <time>2021-09-07T10:04:48Z</time>
      </trkpt>
      <trkpt lat="44.49154" lon="5.47958">
        <ele>1336.8</ele>
        <time>2021-09-07T10:04:49Z</time>
      </trkpt>
      <trkpt lat="44.49154" lon="5.47958">
        <ele>1336.8</ele>
        <time>2021-09-07T10:04:50Z</time>
      </trkpt>
      <trkpt lat="44.49154" lon="5.47958">
        <ele>1336.8</ele>
        <time>2021-09-07T10:04:51Z</time>
      </trkpt>
      <trkpt lat="44.49154" lon="5.47957">
        <ele>1336.7</ele>
        <time>2021-09-07T10:04:52Z</time>
      </trkpt>
      <trkpt lat="44.49154" lon="5.47957">
        <ele>1336.7</ele>
        <time>2021-09-07T10:04:53Z</time>
      </trkpt>
      <trkpt lat="44.49154" lon="5.47957">
        <ele>1336.7</ele>
        <time>2021-09-07T10:04:54Z</time>
      </trkpt>
      <trkpt lat="44.49154" lon="5.47957">
        <ele>1336.7</ele>
        <time>2021-09-07T10:04:55Z</time>
      </trkpt>
      <trkpt lat="44.49153" lon="5.47957">
        <ele>1336.6</ele>
        <time>2021-09-07T10:04:56Z</time>
      </trkpt>
      <trkpt lat="44.49153" lon="5.47957">
        <ele>1336.6</ele>
        <time>2021-09-07T10:04:57Z</time>
      </trkpt>
      <trkpt lat="44.49153" lon="5.47956">
        <ele>1336.5</ele>
        <time>2021-09-07T10:04:58Z</time>
      </trkpt>
      <trkpt lat="44.49153" lon="5.47956">
        <ele>1336.5</ele>
        <time>2021-09-07T10:04:59Z</time>
      </trkpt>
      <trkpt lat="44.49153" lon="5.47956">
        <ele>1336.5</ele>
        <time>2021-09-07T10:05:00Z</time>
      </trkpt>
      <trkpt lat="44.49153" lon="5.47956">
        <ele>1336.5</ele>
        <time>2021-09-07T10:05:01Z</time>
      </trkpt>
      <trkpt lat="44.49153" lon="5.47956">
        <ele>1336.5</ele>
        <time>2021-09-07T10:05:02Z</time>
      </trkpt>
      <trkpt lat="44.49153" lon="5.47957">
        <ele>1336.5</ele>
        <time>2021-09-07T10:05:03Z</time>
      </trkpt>
      <trkpt lat="44.49153" lon="5.47957">
        <ele>1336.5</ele>
        <time>2021-09-07T10:05:04Z</time>
      </trkpt>
      <trkpt lat="44.49153" lon="5.47957">
        <ele>1336.5</ele>
        <time>2021-09-07T10:05:05Z</time>
      </trkpt>
      <trkpt lat="44.49153" lon="5.47957">
        <ele>1336.5</ele>
        <time>2021-09-07T10:05:06Z</time>
      </trkpt>
      <trkpt lat="44.49153" lon="5.47957">
        <ele>1336.5</ele>
        <time>2021-09-07T10:05:07Z</time>
      </trkpt>
      <trkpt lat="44.49153" lon="5.47957">
        <ele>1336.5</ele>
        <time>2021-09-07T10:05:08Z</time>
      </trkpt>
      <trkpt lat="44.49153" lon="5.47957">
        <ele>1336.5</ele>
        <time>2021-09-07T10:05:09Z</time>
      </trkpt>
      <trkpt lat="44.49153" lon="5.47957">
        <ele>1336.5</ele>
        <time>2021-09-07T10:05:10Z</time>
      </trkpt>
      <trkpt lat="44.49153" lon="5.47957">
        <ele>1336.5</ele>
        <time>2021-09-07T10:05:11Z</time>
      </trkpt>
      <trkpt lat="44.49153" lon="5.47957">
        <ele>1336.5</ele>
        <time>2021-09-07T10:05:12Z</time>
      </trkpt>
      <trkpt lat="44.49153" lon="5.47957">
        <ele>1336.5</ele>
        <time>2021-09-07T10:05:13Z</time>
      </trkpt>
      <trkpt lat="44.49153" lon="5.47957">
        <ele>1336.5</ele>
        <time>2021-09-07T10:05:14Z</time>
      </trkpt>
      <trkpt lat="44.49153" lon="5.47957">
        <ele>1336.5</ele>
        <time>2021-09-07T10:05:15Z</time>
      </trkpt>
      <trkpt lat="44.49153" lon="5.47957">
        <ele>1336.5</ele>
        <time>2021-09-07T10:05:16Z</time>
      </trkpt>
      <trkpt lat="44.49153" lon="5.47957">
        <ele>1336.5</ele>
        <time>2021-09-07T10:05:17Z</time>
      </trkpt>
      <trkpt lat="44.49153" lon="5.47957">
        <ele>1336.5</ele>
        <time>2021-09-07T10:05:18Z</time>
      </trkpt>
      <trkpt lat="44.49153" lon="5.47957">
        <ele>1336.5</ele>
        <time>2021-09-07T10:05:19Z</time>
      </trkpt>
      <trkpt lat="44.49153" lon="5.47957">
        <ele>1336.5</ele>
        <time>2021-09-07T10:05:20Z</time>
      </trkpt>
      <trkpt lat="44.49153" lon="5.47957">
        <ele>1336.5</ele>
        <time>2021-09-07T10:05:21Z</time>
      </trkpt>
      <trkpt lat="44.49153" lon="5.47957">
        <ele>1336.5</ele>
        <time>2021-09-07T10:05:22Z</time>
      </trkpt>
      <trkpt lat="44.49153" lon="5.47956">
        <ele>1336.4</ele>
        <time>2021-09-07T10:05:23Z</time>
      </trkpt>
      <trkpt lat="44.49153" lon="5.47956">
        <ele>1336.4</ele>
        <time>2021-09-07T10:05:24Z</time>
      </trkpt>
      <trkpt lat="44.49153" lon="5.47956">
        <ele>1336.4</ele>
        <time>2021-09-07T10:05:25Z</time>
      </trkpt>
      <trkpt lat="44.49153" lon="5.47956">
        <ele>1336.4</ele>
        <time>2021-09-07T10:05:26Z</time>
      </trkpt>
      <trkpt lat="44.49153" lon="5.47957">
        <ele>1336.4</ele>
        <time>2021-09-07T10:05:27Z</time>
      </trkpt>
      <trkpt lat="44.49153" lon="5.47957">
        <ele>1336.4</ele>
        <time>2021-09-07T10:05:28Z</time>
      </trkpt>
      <trkpt lat="44.49153" lon="5.47957">
        <ele>1336.4</ele>
        <time>2021-09-07T10:05:29Z</time>
      </trkpt>
      <trkpt lat="44.49153" lon="5.47957">
        <ele>1336.4</ele>
        <time>2021-09-07T10:05:30Z</time>
      </trkpt>
      <trkpt lat="44.49153" lon="5.47957">
        <ele>1336.4</ele>
        <time>2021-09-07T10:05:31Z</time>
      </trkpt>
      <trkpt lat="44.49153" lon="5.47957">
        <ele>1336.4</ele>
        <time>2021-09-07T10:05:32Z</time>
      </trkpt>
      <trkpt lat="44.49153" lon="5.47957">
        <ele>1336.4</ele>
        <time>2021-09-07T10:05:33Z</time>
      </trkpt>
      <trkpt lat="44.49152" lon="5.47957">
        <ele>1336.3</ele>
        <time>2021-09-07T10:05:34Z</time>
      </trkpt>
      <trkpt lat="44.49152" lon="5.47958">
        <ele>1336.2</ele>
        <time>2021-09-07T10:05:35Z</time>
      </trkpt>
      <trkpt lat="44.49151" lon="5.47958">
        <ele>1336.2</ele>
        <time>2021-09-07T10:05:36Z</time>
      </trkpt>
      <trkpt lat="44.49151" lon="5.47958">
        <ele>1336.2</ele>
        <time>2021-09-07T10:05:37Z</time>
      </trkpt>
      <trkpt lat="44.49151" lon="5.47958">
        <ele>1336.2</ele>
        <time>2021-09-07T10:05:38Z</time>
      </trkpt>
      <trkpt lat="44.49151" lon="5.47958">
        <ele>1336.2</ele>
        <time>2021-09-07T10:05:39Z</time>
      </trkpt>
      <trkpt lat="44.49151" lon="5.47958">
        <ele>1336.2</ele>
        <time>2021-09-07T10:05:40Z</time>
      </trkpt>
      <trkpt lat="44.49151" lon="5.47958">
        <ele>1336.2</ele>
        <time>2021-09-07T10:05:41Z</time>
      </trkpt>
      <trkpt lat="44.49151" lon="5.47958">
        <ele>1336.2</ele>
        <time>2021-09-07T10:05:42Z</time>
      </trkpt>
      <trkpt lat="44.49151" lon="5.47958">
        <ele>1336.2</ele>
        <time>2021-09-07T10:05:43Z</time>
      </trkpt>
      <trkpt lat="44.49151" lon="5.47958">
        <ele>1336.2</ele>
        <time>2021-09-07T10:05:44Z</time>
      </trkpt>
      <trkpt lat="44.49151" lon="5.47958">
        <ele>1336.2</ele>
        <time>2021-09-07T10:05:45Z</time>
      </trkpt>
      <trkpt lat="44.49152" lon="5.47958">
        <ele>1336.1</ele>
        <time>2021-09-07T10:05:46Z</time>
      </trkpt>
      <trkpt lat="44.49152" lon="5.47958">
        <ele>1336.1</ele>
        <time>2021-09-07T10:05:47Z</time>
      </trkpt>
      <trkpt lat="44.49152" lon="5.47958">
        <ele>1336.1</ele>
        <time>2021-09-07T10:05:48Z</time>
      </trkpt>
      <trkpt lat="44.49152" lon="5.47958">
        <ele>1336.1</ele>
        <time>2021-09-07T10:05:49Z</time>
      </trkpt>
      <trkpt lat="44.49152" lon="5.47958">
        <ele>1336.1</ele>
        <time>2021-09-07T10:05:50Z</time>
      </trkpt>
      <trkpt lat="44.49152" lon="5.47958">
        <ele>1336.1</ele>
        <time>2021-09-07T10:05:51Z</time>
      </trkpt>
      <trkpt lat="44.49152" lon="5.47958">
        <ele>1336.1</ele>
        <time>2021-09-07T10:05:52Z</time>
      </trkpt>
      <trkpt lat="44.49152" lon="5.47958">
        <ele>1336.1</ele>
        <time>2021-09-07T10:05:53Z</time>
      </trkpt>
      <trkpt lat="44.49152" lon="5.47958">
        <ele>1336.1</ele>
        <time>2021-09-07T10:05:54Z</time>
      </trkpt>
      <trkpt lat="44.49152" lon="5.47958">
        <ele>1336.1</ele>
        <time>2021-09-07T10:05:55Z</time>
      </trkpt>
      <trkpt lat="44.49152" lon="5.47958">
        <ele>1336.1</ele>
        <time>2021-09-07T10:05:56Z</time>
      </trkpt>
      <trkpt lat="44.49152" lon="5.47958">
        <ele>1336.1</ele>
        <time>2021-09-07T10:05:57Z</time>
      </trkpt>
      <trkpt lat="44.49152" lon="5.47958">
        <ele>1336.1</ele>
        <time>2021-09-07T10:05:58Z</time>
      </trkpt>
      <trkpt lat="44.49152" lon="5.47958">
        <ele>1336.1</ele>
        <time>2021-09-07T10:05:59Z</time>
      </trkpt>
      <trkpt lat="44.49152" lon="5.47958">
        <ele>1336.1</ele>
        <time>2021-09-07T10:06:00Z</time>
      </trkpt>
      <trkpt lat="44.49152" lon="5.47958">
        <ele>1336.1</ele>
        <time>2021-09-07T10:06:01Z</time>
      </trkpt>
      <trkpt lat="44.49152" lon="5.47958">
        <ele>1336.1</ele>
        <time>2021-09-07T10:06:02Z</time>
      </trkpt>
      <trkpt lat="44.49152" lon="5.47958">
        <ele>1336.1</ele>
        <time>2021-09-07T10:06:03Z</time>
      </trkpt>
      <trkpt lat="44.49152" lon="5.47958">
        <ele>1336.1</ele>
        <time>2021-09-07T10:06:04Z</time>
      </trkpt>
      <trkpt lat="44.49152" lon="5.47958">
        <ele>1336.1</ele>
        <time>2021-09-07T10:06:05Z</time>
      </trkpt>
      <trkpt lat="44.49152" lon="5.47958">
        <ele>1336.1</ele>
        <time>2021-09-07T10:06:06Z</time>
      </trkpt>
      <trkpt lat="44.49152" lon="5.47958">
        <ele>1336.1</ele>
        <time>2021-09-07T10:06:07Z</time>
      </trkpt>
      <trkpt lat="44.49152" lon="5.47958">
        <ele>1336.1</ele>
        <time>2021-09-07T10:06:08Z</time>
      </trkpt>
      <trkpt lat="44.49152" lon="5.47958">
        <ele>1336.1</ele>
        <time>2021-09-07T10:06:09Z</time>
      </trkpt>
      <trkpt lat="44.49152" lon="5.47958">
        <ele>1336.1</ele>
        <time>2021-09-07T10:06:10Z</time>
      </trkpt>
      <trkpt lat="44.49152" lon="5.47958">
        <ele>1336.1</ele>
        <time>2021-09-07T10:06:11Z</time>
      </trkpt>
      <trkpt lat="44.49152" lon="5.47958">
        <ele>1336.1</ele>
        <time>2021-09-07T10:06:12Z</time>
      </trkpt>
      <trkpt lat="44.49152" lon="5.47958">
        <ele>1336.1</ele>
        <time>2021-09-07T10:06:13Z</time>
      </trkpt>
      <trkpt lat="44.49152" lon="5.47958">
        <ele>1336.1</ele>
        <time>2021-09-07T10:06:14Z</time>
      </trkpt>
      <trkpt lat="44.49152" lon="5.47958">
        <ele>1336.1</ele>
        <time>2021-09-07T10:06:15Z</time>
      </trkpt>
      <trkpt lat="44.49152" lon="5.47958">
        <ele>1336.1</ele>
        <time>2021-09-07T10:06:16Z</time>
      </trkpt>
      <trkpt lat="44.49152" lon="5.47958">
        <ele>1336.1</ele>
        <time>2021-09-07T10:06:17Z</time>
      </trkpt>
      <trkpt lat="44.49152" lon="5.47958">
        <ele>1336.1</ele>
        <time>2021-09-07T10:06:18Z</time>
      </trkpt>
      <trkpt lat="44.49152" lon="5.47958">
        <ele>1336.1</ele>
        <time>2021-09-07T10:06:19Z</time>
      </trkpt>
      <trkpt lat="44.49151" lon="5.4796">
        <ele>1335.9</ele>
        <time>2021-09-07T10:06:20Z</time>
      </trkpt>
      <trkpt lat="44.49149" lon="5.47961">
        <ele>1335.7</ele>
        <time>2021-09-07T10:06:21Z</time>
      </trkpt>
      <trkpt lat="44.49147" lon="5.47964">
        <ele>1335.5</ele>
        <time>2021-09-07T10:06:22Z</time>
      </trkpt>
      <trkpt lat="44.49146" lon="5.47965">
        <ele>1335.4</ele>
        <time>2021-09-07T10:06:23Z</time>
      </trkpt>
      <trkpt lat="44.49145" lon="5.47966">
        <ele>1335.3</ele>
        <time>2021-09-07T10:06:24Z</time>
      </trkpt>
      <trkpt lat="44.49144" lon="5.47965">
        <ele>1335.2</ele>
        <time>2021-09-07T10:06:25Z</time>
      </trkpt>
      <trkpt lat="44.49144" lon="5.47965">
        <ele>1335.2</ele>
        <time>2021-09-07T10:06:26Z</time>
      </trkpt>
      <trkpt lat="44.49144" lon="5.47965">
        <ele>1335.2</ele>
        <time>2021-09-07T10:06:27Z</time>
      </trkpt>
      <trkpt lat="44.49144" lon="5.47965">
        <ele>1335.1</ele>
        <time>2021-09-07T10:06:28Z</time>
      </trkpt>
      <trkpt lat="44.49144" lon="5.47965">
        <ele>1335.1</ele>
        <time>2021-09-07T10:06:29Z</time>
      </trkpt>
      <trkpt lat="44.49144" lon="5.47965">
        <ele>1335.1</ele>
        <time>2021-09-07T10:06:30Z</time>
      </trkpt>
      <trkpt lat="44.49144" lon="5.47965">
        <ele>1335.1</ele>
        <time>2021-09-07T10:06:31Z</time>
      </trkpt>
      <trkpt lat="44.49144" lon="5.47965">
        <ele>1335</ele>
        <time>2021-09-07T10:06:32Z</time>
      </trkpt>
      <trkpt lat="44.49144" lon="5.47965">
        <ele>1335</ele>
        <time>2021-09-07T10:06:33Z</time>
      </trkpt>
      <trkpt lat="44.49144" lon="5.47965">
        <ele>1335</ele>
        <time>2021-09-07T10:06:34Z</time>
      </trkpt>
      <trkpt lat="44.49144" lon="5.47965">
        <ele>1335</ele>
        <time>2021-09-07T10:06:35Z</time>
      </trkpt>
      <trkpt lat="44.49144" lon="5.47965">
        <ele>1334.9</ele>
        <time>2021-09-07T10:06:36Z</time>
      </trkpt>
      <trkpt lat="44.49144" lon="5.47965">
        <ele>1334.9</ele>
        <time>2021-09-07T10:06:37Z</time>
      </trkpt>
      <trkpt lat="44.49144" lon="5.47965">
        <ele>1334.9</ele>
        <time>2021-09-07T10:06:38Z</time>
      </trkpt>
      <trkpt lat="44.49144" lon="5.47965">
        <ele>1334.9</ele>
        <time>2021-09-07T10:06:39Z</time>
      </trkpt>
      <trkpt lat="44.49144" lon="5.47965">
        <ele>1334.8</ele>
        <time>2021-09-07T10:06:40Z</time>
      </trkpt>
      <trkpt lat="44.49144" lon="5.47965">
        <ele>1334.8</ele>
        <time>2021-09-07T10:06:41Z</time>
      </trkpt>
      <trkpt lat="44.49144" lon="5.47965">
        <ele>1334.8</ele>
        <time>2021-09-07T10:06:42Z</time>
      </trkpt>
      <trkpt lat="44.49144" lon="5.47965">
        <ele>1334.8</ele>
        <time>2021-09-07T10:06:43Z</time>
      </trkpt>
      <trkpt lat="44.49144" lon="5.47965">
        <ele>1334.7</ele>
        <time>2021-09-07T10:06:44Z</time>
      </trkpt>
      <trkpt lat="44.49144" lon="5.47965">
        <ele>1334.7</ele>
        <time>2021-09-07T10:06:45Z</time>
      </trkpt>
      <trkpt lat="44.49144" lon="5.47965">
        <ele>1334.7</ele>
        <time>2021-09-07T10:06:46Z</time>
      </trkpt>
      <trkpt lat="44.49144" lon="5.47965">
        <ele>1334.7</ele>
        <time>2021-09-07T10:06:47Z</time>
      </trkpt>
      <trkpt lat="44.49144" lon="5.47965">
        <ele>1334.6</ele>
        <time>2021-09-07T10:06:48Z</time>
      </trkpt>
      <trkpt lat="44.49144" lon="5.47965">
        <ele>1334.6</ele>
        <time>2021-09-07T10:06:49Z</time>
      </trkpt>
      <trkpt lat="44.49144" lon="5.47965">
        <ele>1334.6</ele>
        <time>2021-09-07T10:06:50Z</time>
      </trkpt>
      <trkpt lat="44.49144" lon="5.47965">
        <ele>1334.6</ele>
        <time>2021-09-07T10:06:51Z</time>
      </trkpt>
      <trkpt lat="44.49144" lon="5.47965">
        <ele>1334.6</ele>
        <time>2021-09-07T10:06:52Z</time>
      </trkpt>
      <trkpt lat="44.49144" lon="5.47965">
        <ele>1334.5</ele>
        <time>2021-09-07T10:06:53Z</time>
      </trkpt>
      <trkpt lat="44.49144" lon="5.47965">
        <ele>1334.5</ele>
        <time>2021-09-07T10:06:54Z</time>
      </trkpt>
      <trkpt lat="44.49144" lon="5.47965">
        <ele>1334.5</ele>
        <time>2021-09-07T10:06:55Z</time>
      </trkpt>
      <trkpt lat="44.49144" lon="5.47965">
        <ele>1334.5</ele>
        <time>2021-09-07T10:06:56Z</time>
      </trkpt>
      <trkpt lat="44.49144" lon="5.47965">
        <ele>1334.4</ele>
        <time>2021-09-07T10:06:57Z</time>
      </trkpt>
      <trkpt lat="44.49144" lon="5.47965">
        <ele>1334.4</ele>
        <time>2021-09-07T10:06:58Z</time>
      </trkpt>
      <trkpt lat="44.49144" lon="5.47965">
        <ele>1334.4</ele>
        <time>2021-09-07T10:06:59Z</time>
      </trkpt>
      <trkpt lat="44.49144" lon="5.47965">
        <ele>1334.4</ele>
        <time>2021-09-07T10:07:00Z</time>
      </trkpt>
      <trkpt lat="44.49144" lon="5.47965">
        <ele>1334.3</ele>
        <time>2021-09-07T10:07:01Z</time>
      </trkpt>
      <trkpt lat="44.49144" lon="5.47965">
        <ele>1334.3</ele>
        <time>2021-09-07T10:07:02Z</time>
      </trkpt>
      <trkpt lat="44.49144" lon="5.47965">
        <ele>1334.3</ele>
        <time>2021-09-07T10:07:03Z</time>
      </trkpt>
      <trkpt lat="44.49144" lon="5.47965">
        <ele>1334.3</ele>
        <time>2021-09-07T10:07:04Z</time>
      </trkpt>
      <trkpt lat="44.49144" lon="5.47965">
        <ele>1334.2</ele>
        <time>2021-09-07T10:07:05Z</time>
      </trkpt>
      <trkpt lat="44.49144" lon="5.47965">
        <ele>1334.2</ele>
        <time>2021-09-07T10:07:06Z</time>
      </trkpt>
      <trkpt lat="44.49144" lon="5.47965">
        <ele>1334.2</ele>
        <time>2021-09-07T10:07:07Z</time>
      </trkpt>
      <trkpt lat="44.49144" lon="5.47965">
        <ele>1334.2</ele>
        <time>2021-09-07T10:07:08Z</time>
      </trkpt>
      <trkpt lat="44.49144" lon="5.47965">
        <ele>1334.1</ele>
        <time>2021-09-07T10:07:09Z</time>
      </trkpt>
      <trkpt lat="44.49144" lon="5.47965">
        <ele>1334.1</ele>
        <time>2021-09-07T10:07:10Z</time>
      </trkpt>
      <trkpt lat="44.49144" lon="5.47965">
        <ele>1334.1</ele>
        <time>2021-09-07T10:07:11Z</time>
      </trkpt>
      <trkpt lat="44.49144" lon="5.47965">
        <ele>1334.1</ele>
        <time>2021-09-07T10:07:12Z</time>
      </trkpt>
      <trkpt lat="44.49144" lon="5.47965">
        <ele>1334</ele>
        <time>2021-09-07T10:07:13Z</time>
      </trkpt>
      <trkpt lat="44.49144" lon="5.47965">
        <ele>1334</ele>
        <time>2021-09-07T10:07:14Z</time>
      </trkpt>
      <trkpt lat="44.49144" lon="5.47965">
        <ele>1334</ele>
        <time>2021-09-07T10:07:15Z</time>
      </trkpt>
      <trkpt lat="44.49144" lon="5.47965">
        <ele>1334</ele>
        <time>2021-09-07T10:07:16Z</time>
      </trkpt>
      <trkpt lat="44.49144" lon="5.47965">
        <ele>1334</ele>
        <time>2021-09-07T10:07:17Z</time>
      </trkpt>
      <trkpt lat="44.49144" lon="5.47965">
        <ele>1333.9</ele>
        <time>2021-09-07T10:07:18Z</time>
      </trkpt>
      <trkpt lat="44.49144" lon="5.47965">
        <ele>1333.9</ele>
        <time>2021-09-07T10:07:19Z</time>
      </trkpt>
      <trkpt lat="44.49144" lon="5.47965">
        <ele>1333.9</ele>
        <time>2021-09-07T10:07:20Z</time>
      </trkpt>
      <trkpt lat="44.49144" lon="5.47965">
        <ele>1333.9</ele>
        <time>2021-09-07T10:07:21Z</time>
      </trkpt>
      <trkpt lat="44.49144" lon="5.47965">
        <ele>1333.8</ele>
        <time>2021-09-07T10:07:22Z</time>
      </trkpt>
      <trkpt lat="44.49144" lon="5.47965">
        <ele>1333.8</ele>
        <time>2021-09-07T10:07:23Z</time>
      </trkpt>
      <trkpt lat="44.49144" lon="5.47965">
        <ele>1333.8</ele>
        <time>2021-09-07T10:07:24Z</time>
      </trkpt>
      <trkpt lat="44.49144" lon="5.47965">
        <ele>1333.8</ele>
        <time>2021-09-07T10:07:25Z</time>
      </trkpt>
      <trkpt lat="44.49144" lon="5.47965">
        <ele>1333.7</ele>
        <time>2021-09-07T10:07:26Z</time>
      </trkpt>
      <trkpt lat="44.49144" lon="5.47965">
        <ele>1333.7</ele>
        <time>2021-09-07T10:07:27Z</time>
      </trkpt>
      <trkpt lat="44.49144" lon="5.47965">
        <ele>1333.7</ele>
        <time>2021-09-07T10:07:28Z</time>
      </trkpt>
      <trkpt lat="44.49144" lon="5.47965">
        <ele>1333.7</ele>
        <time>2021-09-07T10:07:29Z</time>
      </trkpt>
      <trkpt lat="44.49144" lon="5.47965">
        <ele>1333.6</ele>
        <time>2021-09-07T10:07:30Z</time>
      </trkpt>
      <trkpt lat="44.49144" lon="5.47965">
        <ele>1333.6</ele>
        <time>2021-09-07T10:07:31Z</time>
      </trkpt>
      <trkpt lat="44.49144" lon="5.47965">
        <ele>1333.6</ele>
        <time>2021-09-07T10:07:32Z</time>
      </trkpt>
      <trkpt lat="44.49144" lon="5.47965">
        <ele>1333.6</ele>
        <time>2021-09-07T10:07:33Z</time>
      </trkpt>
      <trkpt lat="44.49144" lon="5.47965">
        <ele>1333.5</ele>
        <time>2021-09-07T10:07:34Z</time>
      </trkpt>
      <trkpt lat="44.49143" lon="5.47965">
        <ele>1333.4</ele>
        <time>2021-09-07T10:07:35Z</time>
      </trkpt>
      <trkpt lat="44.49142" lon="5.47966">
        <ele>1333.4</ele>
        <time>2021-09-07T10:07:36Z</time>
      </trkpt>
      <trkpt lat="44.49141" lon="5.47966">
        <ele>1333.2</ele>
        <time>2021-09-07T10:07:37Z</time>
      </trkpt>
      <trkpt lat="44.4914" lon="5.47967">
        <ele>1333</ele>
        <time>2021-09-07T10:07:38Z</time>
      </trkpt>
      <trkpt lat="44.49139" lon="5.47968">
        <ele>1332.9</ele>
        <time>2021-09-07T10:07:39Z</time>
      </trkpt>
      <trkpt lat="44.49138" lon="5.47969">
        <ele>1332.8</ele>
        <time>2021-09-07T10:07:40Z</time>
      </trkpt>
      <trkpt lat="44.49137" lon="5.47969">
        <ele>1332.8</ele>
        <time>2021-09-07T10:07:41Z</time>
      </trkpt>
      <trkpt lat="44.49137" lon="5.4797">
        <ele>1332.6</ele>
        <time>2021-09-07T10:07:42Z</time>
      </trkpt>
      <trkpt lat="44.49137" lon="5.4797">
        <ele>1332.5</ele>
        <time>2021-09-07T10:07:43Z</time>
      </trkpt>
      <trkpt lat="44.49136" lon="5.4797">
        <ele>1332.5</ele>
        <time>2021-09-07T10:07:44Z</time>
      </trkpt>
      <trkpt lat="44.49136" lon="5.4797">
        <ele>1332.5</ele>
        <time>2021-09-07T10:07:45Z</time>
      </trkpt>
      <trkpt lat="44.49135" lon="5.4797">
        <ele>1332.3</ele>
        <time>2021-09-07T10:07:46Z</time>
      </trkpt>
      <trkpt lat="44.49135" lon="5.4797">
        <ele>1332.3</ele>
        <time>2021-09-07T10:07:47Z</time>
      </trkpt>
      <trkpt lat="44.49135" lon="5.47971">
        <ele>1332.3</ele>
        <time>2021-09-07T10:07:48Z</time>
      </trkpt>
      <trkpt lat="44.49134" lon="5.47971">
        <ele>1332.2</ele>
        <time>2021-09-07T10:07:49Z</time>
      </trkpt>
      <trkpt lat="44.49134" lon="5.47971">
        <ele>1332.1</ele>
        <time>2021-09-07T10:07:50Z</time>
      </trkpt>
      <trkpt lat="44.49134" lon="5.47971">
        <ele>1332.1</ele>
        <time>2021-09-07T10:07:51Z</time>
      </trkpt>
      <trkpt lat="44.49134" lon="5.47971">
        <ele>1332.1</ele>
        <time>2021-09-07T10:07:52Z</time>
      </trkpt>
      <trkpt lat="44.49134" lon="5.47971">
        <ele>1332.1</ele>
        <time>2021-09-07T10:07:53Z</time>
      </trkpt>
      <trkpt lat="44.49134" lon="5.47971">
        <ele>1332.1</ele>
        <time>2021-09-07T10:07:54Z</time>
      </trkpt>
      <trkpt lat="44.49134" lon="5.47971">
        <ele>1332</ele>
        <time>2021-09-07T10:07:55Z</time>
      </trkpt>
      <trkpt lat="44.49134" lon="5.47971">
        <ele>1332</ele>
        <time>2021-09-07T10:07:56Z</time>
      </trkpt>
      <trkpt lat="44.49134" lon="5.47971">
        <ele>1332</ele>
        <time>2021-09-07T10:07:57Z</time>
      </trkpt>
      <trkpt lat="44.49134" lon="5.47971">
        <ele>1332</ele>
        <time>2021-09-07T10:07:58Z</time>
      </trkpt>
      <trkpt lat="44.49134" lon="5.47971">
        <ele>1331.9</ele>
        <time>2021-09-07T10:07:59Z</time>
      </trkpt>
      <trkpt lat="44.49134" lon="5.47971">
        <ele>1331.9</ele>
        <time>2021-09-07T10:08:00Z</time>
      </trkpt>
      <trkpt lat="44.49134" lon="5.47971">
        <ele>1331.9</ele>
        <time>2021-09-07T10:08:01Z</time>
      </trkpt>
      <trkpt lat="44.49134" lon="5.47971">
        <ele>1331.9</ele>
        <time>2021-09-07T10:08:02Z</time>
      </trkpt>
      <trkpt lat="44.49134" lon="5.47971">
        <ele>1331.8</ele>
        <time>2021-09-07T10:08:03Z</time>
      </trkpt>
      <trkpt lat="44.49134" lon="5.47971">
        <ele>1331.8</ele>
        <time>2021-09-07T10:08:04Z</time>
      </trkpt>
      <trkpt lat="44.49134" lon="5.47971">
        <ele>1331.8</ele>
        <time>2021-09-07T10:08:05Z</time>
      </trkpt>
      <trkpt lat="44.49134" lon="5.47971">
        <ele>1331.8</ele>
        <time>2021-09-07T10:08:06Z</time>
      </trkpt>
      <trkpt lat="44.49134" lon="5.47971">
        <ele>1331.8</ele>
        <time>2021-09-07T10:08:07Z</time>
      </trkpt>
      <trkpt lat="44.49134" lon="5.47971">
        <ele>1331.8</ele>
        <time>2021-09-07T10:08:08Z</time>
      </trkpt>
      <trkpt lat="44.49134" lon="5.47971">
        <ele>1331.8</ele>
        <time>2021-09-07T10:08:09Z</time>
      </trkpt>
      <trkpt lat="44.49134" lon="5.47971">
        <ele>1331.8</ele>
        <time>2021-09-07T10:08:10Z</time>
      </trkpt>
      <trkpt lat="44.49134" lon="5.47971">
        <ele>1331.8</ele>
        <time>2021-09-07T10:08:11Z</time>
      </trkpt>
      <trkpt lat="44.49135" lon="5.47973">
        <ele>1331.6</ele>
        <time>2021-09-07T10:08:12Z</time>
      </trkpt>
      <trkpt lat="44.49136" lon="5.47974">
        <ele>1331.6</ele>
        <time>2021-09-07T10:08:13Z</time>
      </trkpt>
      <trkpt lat="44.49136" lon="5.47975">
        <ele>1331.5</ele>
        <time>2021-09-07T10:08:14Z</time>
      </trkpt>
      <trkpt lat="44.49136" lon="5.47976">
        <ele>1331.4</ele>
        <time>2021-09-07T10:08:15Z</time>
      </trkpt>
      <trkpt lat="44.49135" lon="5.47976">
        <ele>1331.4</ele>
        <time>2021-09-07T10:08:16Z</time>
      </trkpt>
      <trkpt lat="44.49133" lon="5.47977">
        <ele>1331.2</ele>
        <time>2021-09-07T10:08:17Z</time>
      </trkpt>
      <trkpt lat="44.49131" lon="5.47978">
        <ele>1331</ele>
        <time>2021-09-07T10:08:18Z</time>
      </trkpt>
      <trkpt lat="44.49131" lon="5.47978">
        <ele>1331</ele>
        <time>2021-09-07T10:08:19Z</time>
      </trkpt>
      <trkpt lat="44.49131" lon="5.47978">
        <ele>1331</ele>
        <time>2021-09-07T10:08:20Z</time>
      </trkpt>
      <trkpt lat="44.4913" lon="5.47978">
        <ele>1330.9</ele>
        <time>2021-09-07T10:08:21Z</time>
      </trkpt>
      <trkpt lat="44.4913" lon="5.47978">
        <ele>1330.9</ele>
        <time>2021-09-07T10:08:22Z</time>
      </trkpt>
      <trkpt lat="44.4913" lon="5.47978">
        <ele>1330.9</ele>
        <time>2021-09-07T10:08:23Z</time>
      </trkpt>
      <trkpt lat="44.4913" lon="5.47978">
        <ele>1330.9</ele>
        <time>2021-09-07T10:08:24Z</time>
      </trkpt>
      <trkpt lat="44.4913" lon="5.47978">
        <ele>1330.9</ele>
        <time>2021-09-07T10:08:25Z</time>
      </trkpt>
      <trkpt lat="44.4913" lon="5.47977">
        <ele>1330.9</ele>
        <time>2021-09-07T10:08:26Z</time>
      </trkpt>
      <trkpt lat="44.4913" lon="5.47977">
        <ele>1330.9</ele>
        <time>2021-09-07T10:08:27Z</time>
      </trkpt>
      <trkpt lat="44.4913" lon="5.47977">
        <ele>1330.9</ele>
        <time>2021-09-07T10:08:28Z</time>
      </trkpt>
      <trkpt lat="44.4913" lon="5.47977">
        <ele>1330.9</ele>
        <time>2021-09-07T10:08:29Z</time>
      </trkpt>
      <trkpt lat="44.4913" lon="5.47977">
        <ele>1330.8</ele>
        <time>2021-09-07T10:08:30Z</time>
      </trkpt>
      <trkpt lat="44.4913" lon="5.47976">
        <ele>1330.8</ele>
        <time>2021-09-07T10:08:31Z</time>
      </trkpt>
      <trkpt lat="44.49131" lon="5.47975">
        <ele>1330.7</ele>
        <time>2021-09-07T10:08:32Z</time>
      </trkpt>
      <trkpt lat="44.49132" lon="5.47974">
        <ele>1330.6</ele>
        <time>2021-09-07T10:08:33Z</time>
      </trkpt>
      <trkpt lat="44.49133" lon="5.47972">
        <ele>1330.4</ele>
        <time>2021-09-07T10:08:34Z</time>
      </trkpt>
      <trkpt lat="44.49135" lon="5.47971">
        <ele>1330.2</ele>
        <time>2021-09-07T10:08:35Z</time>
      </trkpt>
      <trkpt lat="44.49138" lon="5.47969">
        <ele>1329.9</ele>
        <time>2021-09-07T10:08:36Z</time>
      </trkpt>
      <trkpt lat="44.4914" lon="5.47966">
        <ele>1329.7</ele>
        <time>2021-09-07T10:08:37Z</time>
      </trkpt>
      <trkpt lat="44.49142" lon="5.47964">
        <ele>1329.5</ele>
        <time>2021-09-07T10:08:38Z</time>
      </trkpt>
      <trkpt lat="44.49144" lon="5.47961">
        <ele>1329.2</ele>
        <time>2021-09-07T10:08:39Z</time>
      </trkpt>
      <trkpt lat="44.49148" lon="5.47959">
        <ele>1328.8</ele>
        <time>2021-09-07T10:08:40Z</time>
      </trkpt>
      <trkpt lat="44.4915" lon="5.47957">
        <ele>1328.6</ele>
        <time>2021-09-07T10:08:41Z</time>
      </trkpt>
      <trkpt lat="44.49152" lon="5.47956">
        <ele>1328.4</ele>
        <time>2021-09-07T10:08:42Z</time>
      </trkpt>
      <trkpt lat="44.49155" lon="5.47954">
        <ele>1328.1</ele>
        <time>2021-09-07T10:08:43Z</time>
      </trkpt>
      <trkpt lat="44.49155" lon="5.47954">
        <ele>1328.1</ele>
        <time>2021-09-07T10:08:44Z</time>
      </trkpt>
      <trkpt lat="44.49155" lon="5.47954">
        <ele>1328.1</ele>
        <time>2021-09-07T10:08:45Z</time>
      </trkpt>
      <trkpt lat="44.49155" lon="5.47954">
        <ele>1328.1</ele>
        <time>2021-09-07T10:08:46Z</time>
      </trkpt>
      <trkpt lat="44.49156" lon="5.47953">
        <ele>1328</ele>
        <time>2021-09-07T10:08:47Z</time>
      </trkpt>
      <trkpt lat="44.49156" lon="5.47953">
        <ele>1328</ele>
        <time>2021-09-07T10:08:48Z</time>
      </trkpt>
      <trkpt lat="44.49156" lon="5.47953">
        <ele>1328</ele>
        <time>2021-09-07T10:08:49Z</time>
      </trkpt>
      <trkpt lat="44.49156" lon="5.47953">
        <ele>1328</ele>
        <time>2021-09-07T10:08:50Z</time>
      </trkpt>
      <trkpt lat="44.49156" lon="5.47953">
        <ele>1328</ele>
        <time>2021-09-07T10:08:51Z</time>
      </trkpt>
      <trkpt lat="44.49156" lon="5.47953">
        <ele>1328</ele>
        <time>2021-09-07T10:08:52Z</time>
      </trkpt>
      <trkpt lat="44.49156" lon="5.47953">
        <ele>1328</ele>
        <time>2021-09-07T10:08:53Z</time>
      </trkpt>
      <trkpt lat="44.49156" lon="5.47953">
        <ele>1328</ele>
        <time>2021-09-07T10:08:54Z</time>
      </trkpt>
      <trkpt lat="44.49156" lon="5.47953">
        <ele>1328</ele>
        <time>2021-09-07T10:08:55Z</time>
      </trkpt>
      <trkpt lat="44.49157" lon="5.47953">
        <ele>1327.9</ele>
        <time>2021-09-07T10:08:56Z</time>
      </trkpt>
      <trkpt lat="44.49159" lon="5.47953">
        <ele>1327.8</ele>
        <time>2021-09-07T10:08:57Z</time>
      </trkpt>
      <trkpt lat="44.49161" lon="5.47953">
        <ele>1327.6</ele>
        <time>2021-09-07T10:08:58Z</time>
      </trkpt>
      <trkpt lat="44.49162" lon="5.47952">
        <ele>1327.5</ele>
        <time>2021-09-07T10:08:59Z</time>
      </trkpt>
      <trkpt lat="44.49163" lon="5.47951">
        <ele>1327.4</ele>
        <time>2021-09-07T10:09:00Z</time>
      </trkpt>
      <trkpt lat="44.49165" lon="5.4795">
        <ele>1327.2</ele>
        <time>2021-09-07T10:09:01Z</time>
      </trkpt>
      <trkpt lat="44.49166" lon="5.4795">
        <ele>1327.1</ele>
        <time>2021-09-07T10:09:02Z</time>
      </trkpt>
      <trkpt lat="44.49166" lon="5.47949">
        <ele>1327.1</ele>
        <time>2021-09-07T10:09:03Z</time>
      </trkpt>
      <trkpt lat="44.49167" lon="5.47949">
        <ele>1327</ele>
        <time>2021-09-07T10:09:04Z</time>
      </trkpt>
      <trkpt lat="44.49168" lon="5.47948">
        <ele>1326.9</ele>
        <time>2021-09-07T10:09:05Z</time>
      </trkpt>
      <trkpt lat="44.4917" lon="5.47948">
        <ele>1326.7</ele>
        <time>2021-09-07T10:09:06Z</time>
      </trkpt>
      <trkpt lat="44.49171" lon="5.47948">
        <ele>1326.6</ele>
        <time>2021-09-07T10:09:07Z</time>
      </trkpt>
      <trkpt lat="44.49172" lon="5.47948">
        <ele>1326.5</ele>
        <time>2021-09-07T10:09:08Z</time>
      </trkpt>
      <trkpt lat="44.49173" lon="5.47949">
        <ele>1326.5</ele>
        <time>2021-09-07T10:09:09Z</time>
      </trkpt>
      <trkpt lat="44.49173" lon="5.47949">
        <ele>1326.4</ele>
        <time>2021-09-07T10:09:10Z</time>
      </trkpt>
      <trkpt lat="44.49173" lon="5.47949">
        <ele>1326.4</ele>
        <time>2021-09-07T10:09:11Z</time>
      </trkpt>
      <trkpt lat="44.49173" lon="5.47949">
        <ele>1326.4</ele>
        <time>2021-09-07T10:09:12Z</time>
      </trkpt>
      <trkpt lat="44.49173" lon="5.47949">
        <ele>1326.4</ele>
        <time>2021-09-07T10:09:13Z</time>
      </trkpt>
      <trkpt lat="44.49173" lon="5.47949">
        <ele>1326.4</ele>
        <time>2021-09-07T10:09:14Z</time>
      </trkpt>
      <trkpt lat="44.49173" lon="5.47949">
        <ele>1326.4</ele>
        <time>2021-09-07T10:09:15Z</time>
      </trkpt>
      <trkpt lat="44.49173" lon="5.47949">
        <ele>1326.4</ele>
        <time>2021-09-07T10:09:16Z</time>
      </trkpt>
      <trkpt lat="44.49174" lon="5.47949">
        <ele>1326.3</ele>
        <time>2021-09-07T10:09:17Z</time>
      </trkpt>
      <trkpt lat="44.49174" lon="5.47949">
        <ele>1326.3</ele>
        <time>2021-09-07T10:09:18Z</time>
      </trkpt>
      <trkpt lat="44.49174" lon="5.47949">
        <ele>1326.3</ele>
        <time>2021-09-07T10:09:19Z</time>
      </trkpt>
      <trkpt lat="44.49174" lon="5.47949">
        <ele>1326.3</ele>
        <time>2021-09-07T10:09:20Z</time>
      </trkpt>
      <trkpt lat="44.49174" lon="5.47949">
        <ele>1326.3</ele>
        <time>2021-09-07T10:09:21Z</time>
      </trkpt>
      <trkpt lat="44.49174" lon="5.47949">
        <ele>1326.3</ele>
        <time>2021-09-07T10:09:22Z</time>
      </trkpt>
      <trkpt lat="44.49174" lon="5.47949">
        <ele>1326.3</ele>
        <time>2021-09-07T10:09:23Z</time>
      </trkpt>
      <trkpt lat="44.49174" lon="5.47949">
        <ele>1326.3</ele>
        <time>2021-09-07T10:09:24Z</time>
      </trkpt>
      <trkpt lat="44.49174" lon="5.47949">
        <ele>1326.3</ele>
        <time>2021-09-07T10:09:25Z</time>
      </trkpt>
      <trkpt lat="44.49174" lon="5.47949">
        <ele>1326.3</ele>
        <time>2021-09-07T10:09:26Z</time>
      </trkpt>
      <trkpt lat="44.49174" lon="5.47949">
        <ele>1326.3</ele>
        <time>2021-09-07T10:09:27Z</time>
      </trkpt>
      <trkpt lat="44.49174" lon="5.47949">
        <ele>1326.3</ele>
        <time>2021-09-07T10:09:28Z</time>
      </trkpt>
      <trkpt lat="44.49174" lon="5.47949">
        <ele>1326.3</ele>
        <time>2021-09-07T10:09:29Z</time>
      </trkpt>
      <trkpt lat="44.49174" lon="5.47949">
        <ele>1326.3</ele>
        <time>2021-09-07T10:09:30Z</time>
      </trkpt>
      <trkpt lat="44.49174" lon="5.47949">
        <ele>1326.3</ele>
        <time>2021-09-07T10:09:31Z</time>
      </trkpt>
      <trkpt lat="44.49175" lon="5.47948">
        <ele>1326.3</ele>
        <time>2021-09-07T10:09:32Z</time>
      </trkpt>
      <trkpt lat="44.49175" lon="5.47947">
        <ele>1326.2</ele>
        <time>2021-09-07T10:09:33Z</time>
      </trkpt>
      <trkpt lat="44.49177" lon="5.47946">
        <ele>1326</ele>
        <time>2021-09-07T10:09:34Z</time>
      </trkpt>
      <trkpt lat="44.49178" lon="5.47945">
        <ele>1325.9</ele>
        <time>2021-09-07T10:09:35Z</time>
      </trkpt>
      <trkpt lat="44.49178" lon="5.47943">
        <ele>1325.8</ele>
        <time>2021-09-07T10:09:36Z</time>
      </trkpt>
      <trkpt lat="44.49179" lon="5.47941">
        <ele>1325.6</ele>
        <time>2021-09-07T10:09:37Z</time>
      </trkpt>
      <trkpt lat="44.4918" lon="5.4794">
        <ele>1325.5</ele>
        <time>2021-09-07T10:09:38Z</time>
      </trkpt>
      <trkpt lat="44.49181" lon="5.4794">
        <ele>1325.5</ele>
        <time>2021-09-07T10:09:39Z</time>
      </trkpt>
      <trkpt lat="44.49181" lon="5.47939">
        <ele>1325.4</ele>
        <time>2021-09-07T10:09:40Z</time>
      </trkpt>
      <trkpt lat="44.49181" lon="5.47938">
        <ele>1325.3</ele>
        <time>2021-09-07T10:09:41Z</time>
      </trkpt>
      <trkpt lat="44.49182" lon="5.47938">
        <ele>1325.3</ele>
        <time>2021-09-07T10:09:42Z</time>
      </trkpt>
      <trkpt lat="44.49182" lon="5.47938">
        <ele>1325.3</ele>
        <time>2021-09-07T10:09:43Z</time>
      </trkpt>
      <trkpt lat="44.49183" lon="5.47937">
        <ele>1325.1</ele>
        <time>2021-09-07T10:09:44Z</time>
      </trkpt>
      <trkpt lat="44.49183" lon="5.47937">
        <ele>1325.1</ele>
        <time>2021-09-07T10:09:45Z</time>
      </trkpt>
      <trkpt lat="44.49183" lon="5.47937">
        <ele>1325.1</ele>
        <time>2021-09-07T10:09:46Z</time>
      </trkpt>
      <trkpt lat="44.49183" lon="5.47937">
        <ele>1325.1</ele>
        <time>2021-09-07T10:09:47Z</time>
      </trkpt>
      <trkpt lat="44.49183" lon="5.47936">
        <ele>1325.1</ele>
        <time>2021-09-07T10:09:48Z</time>
      </trkpt>
      <trkpt lat="44.49183" lon="5.47936">
        <ele>1325.1</ele>
        <time>2021-09-07T10:09:49Z</time>
      </trkpt>
      <trkpt lat="44.49184" lon="5.47936">
        <ele>1325</ele>
        <time>2021-09-07T10:09:50Z</time>
      </trkpt>
      <trkpt lat="44.49184" lon="5.47936">
        <ele>1325</ele>
        <time>2021-09-07T10:09:51Z</time>
      </trkpt>
      <trkpt lat="44.49184" lon="5.47936">
        <ele>1325</ele>
        <time>2021-09-07T10:09:52Z</time>
      </trkpt>
      <trkpt lat="44.49184" lon="5.47936">
        <ele>1325</ele>
        <time>2021-09-07T10:09:53Z</time>
      </trkpt>
      <trkpt lat="44.49184" lon="5.47936">
        <ele>1325</ele>
        <time>2021-09-07T10:09:54Z</time>
      </trkpt>
      <trkpt lat="44.49184" lon="5.47936">
        <ele>1325</ele>
        <time>2021-09-07T10:09:55Z</time>
      </trkpt>
      <trkpt lat="44.49184" lon="5.47936">
        <ele>1325</ele>
        <time>2021-09-07T10:09:56Z</time>
      </trkpt>
      <trkpt lat="44.49184" lon="5.47936">
        <ele>1325</ele>
        <time>2021-09-07T10:09:57Z</time>
      </trkpt>
      <trkpt lat="44.49184" lon="5.47936">
        <ele>1325</ele>
        <time>2021-09-07T10:09:58Z</time>
      </trkpt>
      <trkpt lat="44.49184" lon="5.47935">
        <ele>1324.9</ele>
        <time>2021-09-07T10:09:59Z</time>
      </trkpt>
      <trkpt lat="44.49183" lon="5.47933">
        <ele>1324.8</ele>
        <time>2021-09-07T10:10:00Z</time>
      </trkpt>
      <trkpt lat="44.49183" lon="5.47932">
        <ele>1324.7</ele>
        <time>2021-09-07T10:10:01Z</time>
      </trkpt>
      <trkpt lat="44.49183" lon="5.4793">
        <ele>1324.6</ele>
        <time>2021-09-07T10:10:02Z</time>
      </trkpt>
      <trkpt lat="44.49183" lon="5.47927">
        <ele>1324.4</ele>
        <time>2021-09-07T10:10:03Z</time>
      </trkpt>
      <trkpt lat="44.49183" lon="5.47925">
        <ele>1324.3</ele>
        <time>2021-09-07T10:10:04Z</time>
      </trkpt>
      <trkpt lat="44.49182" lon="5.47923">
        <ele>1324.1</ele>
        <time>2021-09-07T10:10:05Z</time>
      </trkpt>
      <trkpt lat="44.49182" lon="5.47921">
        <ele>1324</ele>
        <time>2021-09-07T10:10:06Z</time>
      </trkpt>
      <trkpt lat="44.49182" lon="5.4792">
        <ele>1323.9</ele>
        <time>2021-09-07T10:10:07Z</time>
      </trkpt>
      <trkpt lat="44.49181" lon="5.47919">
        <ele>1323.8</ele>
        <time>2021-09-07T10:10:08Z</time>
      </trkpt>
      <trkpt lat="44.49179" lon="5.47918">
        <ele>1323.7</ele>
        <time>2021-09-07T10:10:09Z</time>
      </trkpt>
      <trkpt lat="44.49177" lon="5.47917">
        <ele>1323.5</ele>
        <time>2021-09-07T10:10:10Z</time>
      </trkpt>
      <trkpt lat="44.49175" lon="5.47916">
        <ele>1323.3</ele>
        <time>2021-09-07T10:10:11Z</time>
      </trkpt>
      <trkpt lat="44.49175" lon="5.47915">
        <ele>1323.2</ele>
        <time>2021-09-07T10:10:12Z</time>
      </trkpt>
      <trkpt lat="44.49175" lon="5.47914">
        <ele>1323.1</ele>
        <time>2021-09-07T10:10:13Z</time>
      </trkpt>
      <trkpt lat="44.49174" lon="5.47913">
        <ele>1323</ele>
        <time>2021-09-07T10:10:14Z</time>
      </trkpt>
      <trkpt lat="44.49173" lon="5.47911">
        <ele>1322.9</ele>
        <time>2021-09-07T10:10:15Z</time>
      </trkpt>
      <trkpt lat="44.49175" lon="5.47909">
        <ele>1322.7</ele>
        <time>2021-09-07T10:10:16Z</time>
      </trkpt>
      <trkpt lat="44.49177" lon="5.47908">
        <ele>1322.5</ele>
        <time>2021-09-07T10:10:17Z</time>
      </trkpt>
      <trkpt lat="44.49178" lon="5.47908">
        <ele>1322.3</ele>
        <time>2021-09-07T10:10:18Z</time>
      </trkpt>
      <trkpt lat="44.4918" lon="5.47907">
        <ele>1322.2</ele>
        <time>2021-09-07T10:10:19Z</time>
      </trkpt>
      <trkpt lat="44.49187" lon="5.47905">
        <ele>1321.6</ele>
        <time>2021-09-07T10:10:20Z</time>
      </trkpt>
      <trkpt lat="44.4919" lon="5.47905">
        <ele>1321.3</ele>
        <time>2021-09-07T10:10:21Z</time>
      </trkpt>
      <trkpt lat="44.49192" lon="5.47905">
        <ele>1321.1</ele>
        <time>2021-09-07T10:10:22Z</time>
      </trkpt>
      <trkpt lat="44.49193" lon="5.47905">
        <ele>1321</ele>
        <time>2021-09-07T10:10:23Z</time>
      </trkpt>
      <trkpt lat="44.49194" lon="5.47905">
        <ele>1320.9</ele>
        <time>2021-09-07T10:10:24Z</time>
      </trkpt>
      <trkpt lat="44.49195" lon="5.47905">
        <ele>1320.8</ele>
        <time>2021-09-07T10:10:25Z</time>
      </trkpt>
      <trkpt lat="44.49196" lon="5.47905">
        <ele>1320.8</ele>
        <time>2021-09-07T10:10:26Z</time>
      </trkpt>
      <trkpt lat="44.49197" lon="5.47905">
        <ele>1320.7</ele>
        <time>2021-09-07T10:10:27Z</time>
      </trkpt>
      <trkpt lat="44.49197" lon="5.47905">
        <ele>1320.7</ele>
        <time>2021-09-07T10:10:28Z</time>
      </trkpt>
      <trkpt lat="44.49197" lon="5.47905">
        <ele>1320.7</ele>
        <time>2021-09-07T10:10:29Z</time>
      </trkpt>
      <trkpt lat="44.49197" lon="5.47905">
        <ele>1320.7</ele>
        <time>2021-09-07T10:10:30Z</time>
      </trkpt>
      <trkpt lat="44.49198" lon="5.47904">
        <ele>1320.6</ele>
        <time>2021-09-07T10:10:31Z</time>
      </trkpt>
      <trkpt lat="44.49199" lon="5.47903">
        <ele>1320.5</ele>
        <time>2021-09-07T10:10:32Z</time>
      </trkpt>
      <trkpt lat="44.492" lon="5.47902">
        <ele>1320.3</ele>
        <time>2021-09-07T10:10:33Z</time>
      </trkpt>
      <trkpt lat="44.49201" lon="5.47901">
        <ele>1320.2</ele>
        <time>2021-09-07T10:10:34Z</time>
      </trkpt>
      <trkpt lat="44.49202" lon="5.479">
        <ele>1320.1</ele>
        <time>2021-09-07T10:10:35Z</time>
      </trkpt>
      <trkpt lat="44.49204" lon="5.47897">
        <ele>1319.9</ele>
        <time>2021-09-07T10:10:36Z</time>
      </trkpt>
      <trkpt lat="44.49205" lon="5.47896">
        <ele>1319.8</ele>
        <time>2021-09-07T10:10:37Z</time>
      </trkpt>
      <trkpt lat="44.49205" lon="5.47895">
        <ele>1319.7</ele>
        <time>2021-09-07T10:10:38Z</time>
      </trkpt>
      <trkpt lat="44.49206" lon="5.47893">
        <ele>1319.6</ele>
        <time>2021-09-07T10:10:39Z</time>
      </trkpt>
      <trkpt lat="44.49207" lon="5.47891">
        <ele>1319.4</ele>
        <time>2021-09-07T10:10:40Z</time>
      </trkpt>
      <trkpt lat="44.49208" lon="5.47889">
        <ele>1319.2</ele>
        <time>2021-09-07T10:10:41Z</time>
      </trkpt>
      <trkpt lat="44.4921" lon="5.47887">
        <ele>1319</ele>
        <time>2021-09-07T10:10:42Z</time>
      </trkpt>
      <trkpt lat="44.49211" lon="5.47886">
        <ele>1318.9</ele>
        <time>2021-09-07T10:10:43Z</time>
      </trkpt>
      <trkpt lat="44.49212" lon="5.47884">
        <ele>1318.8</ele>
        <time>2021-09-07T10:10:44Z</time>
      </trkpt>
      <trkpt lat="44.49213" lon="5.47883">
        <ele>1318.7</ele>
        <time>2021-09-07T10:10:45Z</time>
      </trkpt>
      <trkpt lat="44.49213" lon="5.47881">
        <ele>1318.6</ele>
        <time>2021-09-07T10:10:46Z</time>
      </trkpt>
      <trkpt lat="44.49214" lon="5.47879">
        <ele>1318.4</ele>
        <time>2021-09-07T10:10:47Z</time>
      </trkpt>
      <trkpt lat="44.49214" lon="5.47878">
        <ele>1318.3</ele>
        <time>2021-09-07T10:10:48Z</time>
      </trkpt>
      <trkpt lat="44.49215" lon="5.47876">
        <ele>1318.2</ele>
        <time>2021-09-07T10:10:49Z</time>
      </trkpt>
      <trkpt lat="44.49216" lon="5.47876">
        <ele>1318.1</ele>
        <time>2021-09-07T10:10:50Z</time>
      </trkpt>
      <trkpt lat="44.49217" lon="5.47875">
        <ele>1318</ele>
        <time>2021-09-07T10:10:51Z</time>
      </trkpt>
      <trkpt lat="44.49218" lon="5.47873">
        <ele>1317.8</ele>
        <time>2021-09-07T10:10:52Z</time>
      </trkpt>
      <trkpt lat="44.49218" lon="5.47871">
        <ele>1317.7</ele>
        <time>2021-09-07T10:10:53Z</time>
      </trkpt>
      <trkpt lat="44.49218" lon="5.47871">
        <ele>1317.7</ele>
        <time>2021-09-07T10:10:54Z</time>
      </trkpt>
      <trkpt lat="44.49218" lon="5.4787">
        <ele>1317.7</ele>
        <time>2021-09-07T10:10:55Z</time>
      </trkpt>
      <trkpt lat="44.49217" lon="5.47868">
        <ele>1317.5</ele>
        <time>2021-09-07T10:10:56Z</time>
      </trkpt>
      <trkpt lat="44.49216" lon="5.47868">
        <ele>1317.4</ele>
        <time>2021-09-07T10:10:57Z</time>
      </trkpt>
      <trkpt lat="44.49215" lon="5.47867">
        <ele>1317.3</ele>
        <time>2021-09-07T10:10:58Z</time>
      </trkpt>
      <trkpt lat="44.49215" lon="5.47867">
        <ele>1317.3</ele>
        <time>2021-09-07T10:10:59Z</time>
      </trkpt>
      <trkpt lat="44.49214" lon="5.47866">
        <ele>1317.2</ele>
        <time>2021-09-07T10:11:00Z</time>
      </trkpt>
      <trkpt lat="44.49213" lon="5.47866">
        <ele>1317.1</ele>
        <time>2021-09-07T10:11:01Z</time>
      </trkpt>
      <trkpt lat="44.49213" lon="5.47865">
        <ele>1317</ele>
        <time>2021-09-07T10:11:02Z</time>
      </trkpt>
      <trkpt lat="44.49212" lon="5.47864">
        <ele>1316.9</ele>
        <time>2021-09-07T10:11:03Z</time>
      </trkpt>
      <trkpt lat="44.49211" lon="5.47863">
        <ele>1316.8</ele>
        <time>2021-09-07T10:11:04Z</time>
      </trkpt>
      <trkpt lat="44.49211" lon="5.47861">
        <ele>1316.7</ele>
        <time>2021-09-07T10:11:05Z</time>
      </trkpt>
      <trkpt lat="44.4921" lon="5.4786">
        <ele>1316.6</ele>
        <time>2021-09-07T10:11:06Z</time>
      </trkpt>
      <trkpt lat="44.49209" lon="5.47859">
        <ele>1316.5</ele>
        <time>2021-09-07T10:11:07Z</time>
      </trkpt>
      <trkpt lat="44.49207" lon="5.47858">
        <ele>1316.3</ele>
        <time>2021-09-07T10:11:08Z</time>
      </trkpt>
      <trkpt lat="44.49205" lon="5.47858">
        <ele>1316.1</ele>
        <time>2021-09-07T10:11:09Z</time>
      </trkpt>
      <trkpt lat="44.49204" lon="5.47858">
        <ele>1316</ele>
        <time>2021-09-07T10:11:10Z</time>
      </trkpt>
      <trkpt lat="44.49203" lon="5.47858">
        <ele>1316</ele>
        <time>2021-09-07T10:11:11Z</time>
      </trkpt>
      <trkpt lat="44.49203" lon="5.47859">
        <ele>1315.9</ele>
        <time>2021-09-07T10:11:12Z</time>
      </trkpt>
      <trkpt lat="44.49203" lon="5.47859">
        <ele>1315.9</ele>
        <time>2021-09-07T10:11:13Z</time>
      </trkpt>
      <trkpt lat="44.49203" lon="5.4786">
        <ele>1315.9</ele>
        <time>2021-09-07T10:11:14Z</time>
      </trkpt>
      <trkpt lat="44.49203" lon="5.4786">
        <ele>1315.8</ele>
        <time>2021-09-07T10:11:15Z</time>
      </trkpt>
      <trkpt lat="44.49204" lon="5.47859">
        <ele>1315.7</ele>
        <time>2021-09-07T10:11:16Z</time>
      </trkpt>
      <trkpt lat="44.49204" lon="5.47857">
        <ele>1315.6</ele>
        <time>2021-09-07T10:11:17Z</time>
      </trkpt>
      <trkpt lat="44.49205" lon="5.47854">
        <ele>1315.4</ele>
        <time>2021-09-07T10:11:18Z</time>
      </trkpt>
      <trkpt lat="44.49213" lon="5.47841">
        <ele>1314.3</ele>
        <time>2021-09-07T10:11:19Z</time>
      </trkpt>
      <trkpt lat="44.49215" lon="5.47837">
        <ele>1314</ele>
        <time>2021-09-07T10:11:20Z</time>
      </trkpt>
      <trkpt lat="44.49216" lon="5.47832">
        <ele>1313.7</ele>
        <time>2021-09-07T10:11:21Z</time>
      </trkpt>
      <trkpt lat="44.49217" lon="5.4783">
        <ele>1313.5</ele>
        <time>2021-09-07T10:11:22Z</time>
      </trkpt>
      <trkpt lat="44.49217" lon="5.47828">
        <ele>1313.4</ele>
        <time>2021-09-07T10:11:23Z</time>
      </trkpt>
      <trkpt lat="44.49217" lon="5.47827">
        <ele>1313.4</ele>
        <time>2021-09-07T10:11:24Z</time>
      </trkpt>
      <trkpt lat="44.49216" lon="5.47826">
        <ele>1313.2</ele>
        <time>2021-09-07T10:11:25Z</time>
      </trkpt>
      <trkpt lat="44.49216" lon="5.47826">
        <ele>1313.2</ele>
        <time>2021-09-07T10:11:26Z</time>
      </trkpt>
      <trkpt lat="44.49215" lon="5.47825">
        <ele>1313.1</ele>
        <time>2021-09-07T10:11:27Z</time>
      </trkpt>
      <trkpt lat="44.49213" lon="5.47824">
        <ele>1312.9</ele>
        <time>2021-09-07T10:11:28Z</time>
      </trkpt>
      <trkpt lat="44.49209" lon="5.47822">
        <ele>1312.6</ele>
        <time>2021-09-07T10:11:29Z</time>
      </trkpt>
      <trkpt lat="44.49206" lon="5.47822">
        <ele>1312.3</ele>
        <time>2021-09-07T10:11:30Z</time>
      </trkpt>
      <trkpt lat="44.49203" lon="5.47821">
        <ele>1312</ele>
        <time>2021-09-07T10:11:31Z</time>
      </trkpt>
      <trkpt lat="44.4919" lon="5.47821">
        <ele>1310.9</ele>
        <time>2021-09-07T10:11:32Z</time>
      </trkpt>
      <trkpt lat="44.49184" lon="5.47821">
        <ele>1310.3</ele>
        <time>2021-09-07T10:11:33Z</time>
      </trkpt>
      <trkpt lat="44.49178" lon="5.4782">
        <ele>1309.8</ele>
        <time>2021-09-07T10:11:34Z</time>
      </trkpt>
      <trkpt lat="44.49171" lon="5.47818">
        <ele>1309.2</ele>
        <time>2021-09-07T10:11:35Z</time>
      </trkpt>
      <trkpt lat="44.49169" lon="5.47817">
        <ele>1309</ele>
        <time>2021-09-07T10:11:36Z</time>
      </trkpt>
      <trkpt lat="44.49169" lon="5.47816">
        <ele>1308.9</ele>
        <time>2021-09-07T10:11:37Z</time>
      </trkpt>
      <trkpt lat="44.49169" lon="5.47814">
        <ele>1308.8</ele>
        <time>2021-09-07T10:11:38Z</time>
      </trkpt>
      <trkpt lat="44.49169" lon="5.47813">
        <ele>1308.7</ele>
        <time>2021-09-07T10:11:39Z</time>
      </trkpt>
      <trkpt lat="44.4917" lon="5.47813">
        <ele>1308.7</ele>
        <time>2021-09-07T10:11:40Z</time>
      </trkpt>
      <trkpt lat="44.49171" lon="5.47813">
        <ele>1308.6</ele>
        <time>2021-09-07T10:11:41Z</time>
      </trkpt>
      <trkpt lat="44.49171" lon="5.47813">
        <ele>1308.6</ele>
        <time>2021-09-07T10:11:42Z</time>
      </trkpt>
      <trkpt lat="44.49172" lon="5.47813">
        <ele>1308.5</ele>
        <time>2021-09-07T10:11:43Z</time>
      </trkpt>
      <trkpt lat="44.49173" lon="5.47813">
        <ele>1308.4</ele>
        <time>2021-09-07T10:11:44Z</time>
      </trkpt>
      <trkpt lat="44.49173" lon="5.47813">
        <ele>1308.4</ele>
        <time>2021-09-07T10:11:45Z</time>
      </trkpt>
      <trkpt lat="44.49173" lon="5.47813">
        <ele>1308.4</ele>
        <time>2021-09-07T10:11:46Z</time>
      </trkpt>
      <trkpt lat="44.49174" lon="5.47813">
        <ele>1308.3</ele>
        <time>2021-09-07T10:11:47Z</time>
      </trkpt>
      <trkpt lat="44.49174" lon="5.47812">
        <ele>1308.2</ele>
        <time>2021-09-07T10:11:48Z</time>
      </trkpt>
      <trkpt lat="44.49175" lon="5.47812">
        <ele>1308.2</ele>
        <time>2021-09-07T10:11:49Z</time>
      </trkpt>
      <trkpt lat="44.49175" lon="5.47812">
        <ele>1308.1</ele>
        <time>2021-09-07T10:11:50Z</time>
      </trkpt>
      <trkpt lat="44.49177" lon="5.47811">
        <ele>1308</ele>
        <time>2021-09-07T10:11:51Z</time>
      </trkpt>
      <trkpt lat="44.49179" lon="5.4781">
        <ele>1307.8</ele>
        <time>2021-09-07T10:11:52Z</time>
      </trkpt>
      <trkpt lat="44.49182" lon="5.4781">
        <ele>1307.5</ele>
        <time>2021-09-07T10:11:53Z</time>
      </trkpt>
      <trkpt lat="44.49184" lon="5.4781">
        <ele>1307.3</ele>
        <time>2021-09-07T10:11:54Z</time>
      </trkpt>
      <trkpt lat="44.49187" lon="5.47809">
        <ele>1307.1</ele>
        <time>2021-09-07T10:11:55Z</time>
      </trkpt>
      <trkpt lat="44.49195" lon="5.47809">
        <ele>1306.3</ele>
        <time>2021-09-07T10:11:56Z</time>
      </trkpt>
      <trkpt lat="44.49199" lon="5.47808">
        <ele>1306</ele>
        <time>2021-09-07T10:11:57Z</time>
      </trkpt>
      <trkpt lat="44.49204" lon="5.47807">
        <ele>1305.5</ele>
        <time>2021-09-07T10:11:58Z</time>
      </trkpt>
      <trkpt lat="44.49207" lon="5.47807">
        <ele>1305.3</ele>
        <time>2021-09-07T10:11:59Z</time>
      </trkpt>
      <trkpt lat="44.49208" lon="5.47807">
        <ele>1305.2</ele>
        <time>2021-09-07T10:12:00Z</time>
      </trkpt>
      <trkpt lat="44.49208" lon="5.47807">
        <ele>1305.2</ele>
        <time>2021-09-07T10:12:01Z</time>
      </trkpt>
      <trkpt lat="44.4921" lon="5.47807">
        <ele>1305</ele>
        <time>2021-09-07T10:12:02Z</time>
      </trkpt>
      <trkpt lat="44.4921" lon="5.47808">
        <ele>1305</ele>
        <time>2021-09-07T10:12:03Z</time>
      </trkpt>
      <trkpt lat="44.49211" lon="5.47808">
        <ele>1304.9</ele>
        <time>2021-09-07T10:12:04Z</time>
      </trkpt>
      <trkpt lat="44.49211" lon="5.47808">
        <ele>1304.9</ele>
        <time>2021-09-07T10:12:05Z</time>
      </trkpt>
      <trkpt lat="44.49212" lon="5.47808">
        <ele>1304.8</ele>
        <time>2021-09-07T10:12:06Z</time>
      </trkpt>
      <trkpt lat="44.49215" lon="5.47809">
        <ele>1304.5</ele>
        <time>2021-09-07T10:12:07Z</time>
      </trkpt>
      <trkpt lat="44.49218" lon="5.47811">
        <ele>1304.2</ele>
        <time>2021-09-07T10:12:08Z</time>
      </trkpt>
      <trkpt lat="44.4922" lon="5.47811">
        <ele>1304</ele>
        <time>2021-09-07T10:12:09Z</time>
      </trkpt>
      <trkpt lat="44.49222" lon="5.47812">
        <ele>1303.8</ele>
        <time>2021-09-07T10:12:10Z</time>
      </trkpt>
      <trkpt lat="44.49223" lon="5.47813">
        <ele>1303.7</ele>
        <time>2021-09-07T10:12:11Z</time>
      </trkpt>
      <trkpt lat="44.49224" lon="5.47813">
        <ele>1303.6</ele>
        <time>2021-09-07T10:12:12Z</time>
      </trkpt>
      <trkpt lat="44.49225" lon="5.47813">
        <ele>1303.6</ele>
        <time>2021-09-07T10:12:13Z</time>
      </trkpt>
      <trkpt lat="44.49225" lon="5.47812">
        <ele>1303.5</ele>
        <time>2021-09-07T10:12:14Z</time>
      </trkpt>
      <trkpt lat="44.49226" lon="5.47811">
        <ele>1303.4</ele>
        <time>2021-09-07T10:12:15Z</time>
      </trkpt>
      <trkpt lat="44.49225" lon="5.4781">
        <ele>1303.3</ele>
        <time>2021-09-07T10:12:16Z</time>
      </trkpt>
      <trkpt lat="44.49225" lon="5.47809">
        <ele>1303.3</ele>
        <time>2021-09-07T10:12:17Z</time>
      </trkpt>
      <trkpt lat="44.49224" lon="5.47809">
        <ele>1303.2</ele>
        <time>2021-09-07T10:12:18Z</time>
      </trkpt>
      <trkpt lat="44.49224" lon="5.47808">
        <ele>1303.2</ele>
        <time>2021-09-07T10:12:19Z</time>
      </trkpt>
      <trkpt lat="44.49223" lon="5.47806">
        <ele>1303</ele>
        <time>2021-09-07T10:12:20Z</time>
      </trkpt>
      <trkpt lat="44.49223" lon="5.47806">
        <ele>1303</ele>
        <time>2021-09-07T10:12:21Z</time>
      </trkpt>
      <trkpt lat="44.49222" lon="5.47805">
        <ele>1302.9</ele>
        <time>2021-09-07T10:12:22Z</time>
      </trkpt>
      <trkpt lat="44.49221" lon="5.47803">
        <ele>1302.7</ele>
        <time>2021-09-07T10:12:23Z</time>
      </trkpt>
      <trkpt lat="44.49221" lon="5.47803">
        <ele>1302.7</ele>
        <time>2021-09-07T10:12:24Z</time>
      </trkpt>
      <trkpt lat="44.49221" lon="5.47802">
        <ele>1302.7</ele>
        <time>2021-09-07T10:12:25Z</time>
      </trkpt>
      <trkpt lat="44.49221" lon="5.47802">
        <ele>1302.7</ele>
        <time>2021-09-07T10:12:26Z</time>
      </trkpt>
      <trkpt lat="44.49221" lon="5.47802">
        <ele>1302.7</ele>
        <time>2021-09-07T10:12:27Z</time>
      </trkpt>
      <trkpt lat="44.49222" lon="5.47802">
        <ele>1302.6</ele>
        <time>2021-09-07T10:12:28Z</time>
      </trkpt>
      <trkpt lat="44.49223" lon="5.47802">
        <ele>1302.5</ele>
        <time>2021-09-07T10:12:29Z</time>
      </trkpt>
      <trkpt lat="44.49223" lon="5.47802">
        <ele>1302.5</ele>
        <time>2021-09-07T10:12:30Z</time>
      </trkpt>
      <trkpt lat="44.49224" lon="5.47802">
        <ele>1302.4</ele>
        <time>2021-09-07T10:12:31Z</time>
      </trkpt>
      <trkpt lat="44.49227" lon="5.47802">
        <ele>1302.1</ele>
        <time>2021-09-07T10:12:32Z</time>
      </trkpt>
      <trkpt lat="44.4923" lon="5.47801">
        <ele>1301.8</ele>
        <time>2021-09-07T10:12:33Z</time>
      </trkpt>
      <trkpt lat="44.49233" lon="5.47799">
        <ele>1301.6</ele>
        <time>2021-09-07T10:12:34Z</time>
      </trkpt>
      <trkpt lat="44.49236" lon="5.47798">
        <ele>1301.3</ele>
        <time>2021-09-07T10:12:35Z</time>
      </trkpt>
      <trkpt lat="44.49244" lon="5.47794">
        <ele>1300.6</ele>
        <time>2021-09-07T10:12:36Z</time>
      </trkpt>
      <trkpt lat="44.49249" lon="5.47791">
        <ele>1300.1</ele>
        <time>2021-09-07T10:12:37Z</time>
      </trkpt>
      <trkpt lat="44.49253" lon="5.4779">
        <ele>1299.7</ele>
        <time>2021-09-07T10:12:38Z</time>
      </trkpt>
      <trkpt lat="44.4926" lon="5.47787">
        <ele>1299.1</ele>
        <time>2021-09-07T10:12:39Z</time>
      </trkpt>
      <trkpt lat="44.49262" lon="5.47785">
        <ele>1298.9</ele>
        <time>2021-09-07T10:12:40Z</time>
      </trkpt>
      <trkpt lat="44.49263" lon="5.47783">
        <ele>1298.7</ele>
        <time>2021-09-07T10:12:41Z</time>
      </trkpt>
      <trkpt lat="44.49268" lon="5.47777">
        <ele>1298.1</ele>
        <time>2021-09-07T10:12:42Z</time>
      </trkpt>
      <trkpt lat="44.49275" lon="5.47765">
        <ele>1297.1</ele>
        <time>2021-09-07T10:12:43Z</time>
      </trkpt>
      <trkpt lat="44.49278" lon="5.4776">
        <ele>1296.7</ele>
        <time>2021-09-07T10:12:44Z</time>
      </trkpt>
      <trkpt lat="44.49281" lon="5.47754">
        <ele>1296.3</ele>
        <time>2021-09-07T10:12:45Z</time>
      </trkpt>
      <trkpt lat="44.49285" lon="5.47748">
        <ele>1295.7</ele>
        <time>2021-09-07T10:12:46Z</time>
      </trkpt>
      <trkpt lat="44.49289" lon="5.47737">
        <ele>1295</ele>
        <time>2021-09-07T10:12:47Z</time>
      </trkpt>
      <trkpt lat="44.49292" lon="5.47734">
        <ele>1294.6</ele>
        <time>2021-09-07T10:12:48Z</time>
      </trkpt>
      <trkpt lat="44.49295" lon="5.4773">
        <ele>1294.3</ele>
        <time>2021-09-07T10:12:49Z</time>
      </trkpt>
      <trkpt lat="44.49299" lon="5.47729">
        <ele>1293.9</ele>
        <time>2021-09-07T10:12:50Z</time>
      </trkpt>
      <trkpt lat="44.49303" lon="5.47728">
        <ele>1293.5</ele>
        <time>2021-09-07T10:12:51Z</time>
      </trkpt>
      <trkpt lat="44.49307" lon="5.47728">
        <ele>1293.2</ele>
        <time>2021-09-07T10:12:52Z</time>
      </trkpt>
      <trkpt lat="44.49313" lon="5.47729">
        <ele>1292.7</ele>
        <time>2021-09-07T10:12:53Z</time>
      </trkpt>
      <trkpt lat="44.49315" lon="5.4773">
        <ele>1292.5</ele>
        <time>2021-09-07T10:12:54Z</time>
      </trkpt>
      <trkpt lat="44.49317" lon="5.47731">
        <ele>1292.3</ele>
        <time>2021-09-07T10:12:55Z</time>
      </trkpt>
      <trkpt lat="44.49318" lon="5.47734">
        <ele>1292.1</ele>
        <time>2021-09-07T10:12:56Z</time>
      </trkpt>
      <trkpt lat="44.49321" lon="5.47739">
        <ele>1291.7</ele>
        <time>2021-09-07T10:12:57Z</time>
      </trkpt>
      <trkpt lat="44.49322" lon="5.47743">
        <ele>1291.4</ele>
        <time>2021-09-07T10:12:58Z</time>
      </trkpt>
      <trkpt lat="44.49323" lon="5.47744">
        <ele>1291.3</ele>
        <time>2021-09-07T10:12:59Z</time>
      </trkpt>
      <trkpt lat="44.49323" lon="5.47744">
        <ele>1291.3</ele>
        <time>2021-09-07T10:13:00Z</time>
      </trkpt>
      <trkpt lat="44.49323" lon="5.47744">
        <ele>1291.3</ele>
        <time>2021-09-07T10:13:01Z</time>
      </trkpt>
      <trkpt lat="44.49323" lon="5.47744">
        <ele>1291.3</ele>
        <time>2021-09-07T10:13:02Z</time>
      </trkpt>
      <trkpt lat="44.49324" lon="5.47745">
        <ele>1291.2</ele>
        <time>2021-09-07T10:13:03Z</time>
      </trkpt>
      <trkpt lat="44.49324" lon="5.47745">
        <ele>1291.2</ele>
        <time>2021-09-07T10:13:04Z</time>
      </trkpt>
      <trkpt lat="44.49324" lon="5.47744">
        <ele>1291.1</ele>
        <time>2021-09-07T10:13:05Z</time>
      </trkpt>
      <trkpt lat="44.49324" lon="5.47745">
        <ele>1291.1</ele>
        <time>2021-09-07T10:13:06Z</time>
      </trkpt>
      <trkpt lat="44.49324" lon="5.47745">
        <ele>1291.1</ele>
        <time>2021-09-07T10:13:07Z</time>
      </trkpt>
      <trkpt lat="44.49325" lon="5.47746">
        <ele>1290.9</ele>
        <time>2021-09-07T10:13:08Z</time>
      </trkpt>
      <trkpt lat="44.49325" lon="5.47746">
        <ele>1290.9</ele>
        <time>2021-09-07T10:13:09Z</time>
      </trkpt>
      <trkpt lat="44.49325" lon="5.47746">
        <ele>1290.9</ele>
        <time>2021-09-07T10:13:10Z</time>
      </trkpt>
      <trkpt lat="44.49325" lon="5.47746">
        <ele>1290.9</ele>
        <time>2021-09-07T10:13:11Z</time>
      </trkpt>
      <trkpt lat="44.49325" lon="5.47746">
        <ele>1290.9</ele>
        <time>2021-09-07T10:13:12Z</time>
      </trkpt>
      <trkpt lat="44.49325" lon="5.47745">
        <ele>1290.9</ele>
        <time>2021-09-07T10:13:13Z</time>
      </trkpt>
      <trkpt lat="44.49326" lon="5.47745">
        <ele>1290.8</ele>
        <time>2021-09-07T10:13:14Z</time>
      </trkpt>
      <trkpt lat="44.49326" lon="5.47744">
        <ele>1290.8</ele>
        <time>2021-09-07T10:13:15Z</time>
      </trkpt>
      <trkpt lat="44.49325" lon="5.47742">
        <ele>1290.6</ele>
        <time>2021-09-07T10:13:16Z</time>
      </trkpt>
      <trkpt lat="44.49325" lon="5.47739">
        <ele>1290.4</ele>
        <time>2021-09-07T10:13:17Z</time>
      </trkpt>
      <trkpt lat="44.49324" lon="5.47737">
        <ele>1290.3</ele>
        <time>2021-09-07T10:13:18Z</time>
      </trkpt>
      <trkpt lat="44.49323" lon="5.47735">
        <ele>1290.1</ele>
        <time>2021-09-07T10:13:19Z</time>
      </trkpt>
      <trkpt lat="44.49321" lon="5.47732">
        <ele>1289.9</ele>
        <time>2021-09-07T10:13:20Z</time>
      </trkpt>
      <trkpt lat="44.4932" lon="5.47731">
        <ele>1289.8</ele>
        <time>2021-09-07T10:13:21Z</time>
      </trkpt>
      <trkpt lat="44.49318" lon="5.4773">
        <ele>1289.6</ele>
        <time>2021-09-07T10:13:22Z</time>
      </trkpt>
      <trkpt lat="44.49317" lon="5.47729">
        <ele>1289.5</ele>
        <time>2021-09-07T10:13:23Z</time>
      </trkpt>
      <trkpt lat="44.49317" lon="5.47729">
        <ele>1289.5</ele>
        <time>2021-09-07T10:13:24Z</time>
      </trkpt>
      <trkpt lat="44.49316" lon="5.47729">
        <ele>1289.4</ele>
        <time>2021-09-07T10:13:25Z</time>
      </trkpt>
      <trkpt lat="44.49315" lon="5.47728">
        <ele>1289.3</ele>
        <time>2021-09-07T10:13:26Z</time>
      </trkpt>
      <trkpt lat="44.49315" lon="5.47727">
        <ele>1289.2</ele>
        <time>2021-09-07T10:13:27Z</time>
      </trkpt>
      <trkpt lat="44.49315" lon="5.47725">
        <ele>1289.1</ele>
        <time>2021-09-07T10:13:28Z</time>
      </trkpt>
      <trkpt lat="44.49315" lon="5.47725">
        <ele>1289</ele>
        <time>2021-09-07T10:13:29Z</time>
      </trkpt>
      <trkpt lat="44.49315" lon="5.47724">
        <ele>1289</ele>
        <time>2021-09-07T10:13:30Z</time>
      </trkpt>
      <trkpt lat="44.49315" lon="5.47721">
        <ele>1288.8</ele>
        <time>2021-09-07T10:13:31Z</time>
      </trkpt>
      <trkpt lat="44.49316" lon="5.4772">
        <ele>1288.7</ele>
        <time>2021-09-07T10:13:32Z</time>
      </trkpt>
      <trkpt lat="44.49317" lon="5.47718">
        <ele>1288.6</ele>
        <time>2021-09-07T10:13:33Z</time>
      </trkpt>
      <trkpt lat="44.49317" lon="5.47718">
        <ele>1288.5</ele>
        <time>2021-09-07T10:13:34Z</time>
      </trkpt>
      <trkpt lat="44.49317" lon="5.47717">
        <ele>1288.5</ele>
        <time>2021-09-07T10:13:35Z</time>
      </trkpt>
      <trkpt lat="44.49318" lon="5.47715">
        <ele>1288.4</ele>
        <time>2021-09-07T10:13:36Z</time>
      </trkpt>
      <trkpt lat="44.49318" lon="5.47714">
        <ele>1288.3</ele>
        <time>2021-09-07T10:13:37Z</time>
      </trkpt>
      <trkpt lat="44.49318" lon="5.47714">
        <ele>1288.3</ele>
        <time>2021-09-07T10:13:38Z</time>
      </trkpt>
      <trkpt lat="44.49318" lon="5.47714">
        <ele>1288.3</ele>
        <time>2021-09-07T10:13:39Z</time>
      </trkpt>
      <trkpt lat="44.49318" lon="5.47713">
        <ele>1288.2</ele>
        <time>2021-09-07T10:13:40Z</time>
      </trkpt>
      <trkpt lat="44.49318" lon="5.47713">
        <ele>1288.2</ele>
        <time>2021-09-07T10:13:41Z</time>
      </trkpt>
      <trkpt lat="44.49318" lon="5.47713">
        <ele>1288.2</ele>
        <time>2021-09-07T10:13:42Z</time>
      </trkpt>
      <trkpt lat="44.49318" lon="5.47713">
        <ele>1288.2</ele>
        <time>2021-09-07T10:13:43Z</time>
      </trkpt>
      <trkpt lat="44.49318" lon="5.47713">
        <ele>1288.2</ele>
        <time>2021-09-07T10:13:44Z</time>
      </trkpt>
      <trkpt lat="44.49318" lon="5.47713">
        <ele>1288.2</ele>
        <time>2021-09-07T10:13:45Z</time>
      </trkpt>
      <trkpt lat="44.49318" lon="5.47713">
        <ele>1288.2</ele>
        <time>2021-09-07T10:13:46Z</time>
      </trkpt>
      <trkpt lat="44.49317" lon="5.47712">
        <ele>1288.2</ele>
        <time>2021-09-07T10:13:47Z</time>
      </trkpt>
      <trkpt lat="44.49317" lon="5.47712">
        <ele>1288.2</ele>
        <time>2021-09-07T10:13:48Z</time>
      </trkpt>
      <trkpt lat="44.49317" lon="5.47712">
        <ele>1288.1</ele>
        <time>2021-09-07T10:13:49Z</time>
      </trkpt>
      <trkpt lat="44.49317" lon="5.47712">
        <ele>1288.1</ele>
        <time>2021-09-07T10:13:50Z</time>
      </trkpt>
      <trkpt lat="44.49317" lon="5.47712">
        <ele>1288.1</ele>
        <time>2021-09-07T10:13:51Z</time>
      </trkpt>
      <trkpt lat="44.49317" lon="5.47712">
        <ele>1288.1</ele>
        <time>2021-09-07T10:13:52Z</time>
      </trkpt>
      <trkpt lat="44.49317" lon="5.47712">
        <ele>1288.1</ele>
        <time>2021-09-07T10:13:53Z</time>
      </trkpt>
      <trkpt lat="44.49317" lon="5.47711">
        <ele>1288.1</ele>
        <time>2021-09-07T10:13:54Z</time>
      </trkpt>
      <trkpt lat="44.49317" lon="5.47711">
        <ele>1288.1</ele>
        <time>2021-09-07T10:13:55Z</time>
      </trkpt>
      <trkpt lat="44.49317" lon="5.47711">
        <ele>1288.1</ele>
        <time>2021-09-07T10:13:56Z</time>
      </trkpt>
      <trkpt lat="44.49317" lon="5.47711">
        <ele>1288</ele>
        <time>2021-09-07T10:13:57Z</time>
      </trkpt>
      <trkpt lat="44.49317" lon="5.47711">
        <ele>1288</ele>
        <time>2021-09-07T10:13:58Z</time>
      </trkpt>
      <trkpt lat="44.49317" lon="5.47711">
        <ele>1288</ele>
        <time>2021-09-07T10:13:59Z</time>
      </trkpt>
      <trkpt lat="44.49317" lon="5.47711">
        <ele>1288</ele>
        <time>2021-09-07T10:14:00Z</time>
      </trkpt>
      <trkpt lat="44.49317" lon="5.4771">
        <ele>1288</ele>
        <time>2021-09-07T10:14:01Z</time>
      </trkpt>
      <trkpt lat="44.49317" lon="5.4771">
        <ele>1288</ele>
        <time>2021-09-07T10:14:02Z</time>
      </trkpt>
      <trkpt lat="44.49317" lon="5.4771">
        <ele>1288</ele>
        <time>2021-09-07T10:14:03Z</time>
      </trkpt>
      <trkpt lat="44.49317" lon="5.4771">
        <ele>1288</ele>
        <time>2021-09-07T10:14:04Z</time>
      </trkpt>
      <trkpt lat="44.49316" lon="5.4771">
        <ele>1288</ele>
        <time>2021-09-07T10:14:05Z</time>
      </trkpt>
      <trkpt lat="44.49316" lon="5.4771">
        <ele>1287.9</ele>
        <time>2021-09-07T10:14:06Z</time>
      </trkpt>
      <trkpt lat="44.49316" lon="5.4771">
        <ele>1287.9</ele>
        <time>2021-09-07T10:14:07Z</time>
      </trkpt>
      <trkpt lat="44.49316" lon="5.47709">
        <ele>1287.9</ele>
        <time>2021-09-07T10:14:08Z</time>
      </trkpt>
      <trkpt lat="44.49316" lon="5.47709">
        <ele>1287.9</ele>
        <time>2021-09-07T10:14:09Z</time>
      </trkpt>
      <trkpt lat="44.49316" lon="5.47709">
        <ele>1287.9</ele>
        <time>2021-09-07T10:14:10Z</time>
      </trkpt>
      <trkpt lat="44.49316" lon="5.47709">
        <ele>1287.9</ele>
        <time>2021-09-07T10:14:11Z</time>
      </trkpt>
      <trkpt lat="44.49316" lon="5.47709">
        <ele>1287.9</ele>
        <time>2021-09-07T10:14:12Z</time>
      </trkpt>
      <trkpt lat="44.49316" lon="5.47709">
        <ele>1287.9</ele>
        <time>2021-09-07T10:14:13Z</time>
      </trkpt>
      <trkpt lat="44.49316" lon="5.47709">
        <ele>1287.8</ele>
        <time>2021-09-07T10:14:14Z</time>
      </trkpt>
      <trkpt lat="44.49316" lon="5.47708">
        <ele>1287.8</ele>
        <time>2021-09-07T10:14:15Z</time>
      </trkpt>
      <trkpt lat="44.49316" lon="5.47708">
        <ele>1287.8</ele>
        <time>2021-09-07T10:14:16Z</time>
      </trkpt>
      <trkpt lat="44.49316" lon="5.47708">
        <ele>1287.8</ele>
        <time>2021-09-07T10:14:17Z</time>
      </trkpt>
      <trkpt lat="44.49316" lon="5.47708">
        <ele>1287.8</ele>
        <time>2021-09-07T10:14:18Z</time>
      </trkpt>
      <trkpt lat="44.49316" lon="5.47708">
        <ele>1287.8</ele>
        <time>2021-09-07T10:14:19Z</time>
      </trkpt>
      <trkpt lat="44.49316" lon="5.47708">
        <ele>1287.8</ele>
        <time>2021-09-07T10:14:20Z</time>
      </trkpt>
      <trkpt lat="44.49316" lon="5.47708">
        <ele>1287.8</ele>
        <time>2021-09-07T10:14:21Z</time>
      </trkpt>
      <trkpt lat="44.49316" lon="5.47707">
        <ele>1287.8</ele>
        <time>2021-09-07T10:14:22Z</time>
      </trkpt>
      <trkpt lat="44.49315" lon="5.47707">
        <ele>1287.7</ele>
        <time>2021-09-07T10:14:23Z</time>
      </trkpt>
      <trkpt lat="44.49315" lon="5.47707">
        <ele>1287.7</ele>
        <time>2021-09-07T10:14:24Z</time>
      </trkpt>
      <trkpt lat="44.49315" lon="5.47707">
        <ele>1287.7</ele>
        <time>2021-09-07T10:14:25Z</time>
      </trkpt>
      <trkpt lat="44.49315" lon="5.47707">
        <ele>1287.7</ele>
        <time>2021-09-07T10:14:26Z</time>
      </trkpt>
      <trkpt lat="44.49315" lon="5.47707">
        <ele>1287.7</ele>
        <time>2021-09-07T10:14:27Z</time>
      </trkpt>
      <trkpt lat="44.49315" lon="5.47706">
        <ele>1287.7</ele>
        <time>2021-09-07T10:14:28Z</time>
      </trkpt>
      <trkpt lat="44.49315" lon="5.47706">
        <ele>1287.7</ele>
        <time>2021-09-07T10:14:29Z</time>
      </trkpt>
      <trkpt lat="44.49315" lon="5.47706">
        <ele>1287.7</ele>
        <time>2021-09-07T10:14:30Z</time>
      </trkpt>
      <trkpt lat="44.49315" lon="5.47706">
        <ele>1287.6</ele>
        <time>2021-09-07T10:14:31Z</time>
      </trkpt>
      <trkpt lat="44.4931" lon="5.47704">
        <ele>1287.2</ele>
        <time>2021-09-07T10:14:32Z</time>
      </trkpt>
      <trkpt lat="44.49308" lon="5.47703">
        <ele>1287</ele>
        <time>2021-09-07T10:14:33Z</time>
      </trkpt>
      <trkpt lat="44.49306" lon="5.47701">
        <ele>1286.8</ele>
        <time>2021-09-07T10:14:34Z</time>
      </trkpt>
      <trkpt lat="44.49305" lon="5.477">
        <ele>1286.7</ele>
        <time>2021-09-07T10:14:35Z</time>
      </trkpt>
      <trkpt lat="44.49305" lon="5.477">
        <ele>1286.6</ele>
        <time>2021-09-07T10:14:36Z</time>
      </trkpt>
      <trkpt lat="44.49305" lon="5.47699">
        <ele>1286.6</ele>
        <time>2021-09-07T10:14:37Z</time>
      </trkpt>
      <trkpt lat="44.49305" lon="5.47698">
        <ele>1286.5</ele>
        <time>2021-09-07T10:14:38Z</time>
      </trkpt>
      <trkpt lat="44.49305" lon="5.47698">
        <ele>1286.5</ele>
        <time>2021-09-07T10:14:39Z</time>
      </trkpt>
      <trkpt lat="44.49305" lon="5.47697">
        <ele>1286.5</ele>
        <time>2021-09-07T10:14:40Z</time>
      </trkpt>
      <trkpt lat="44.49305" lon="5.47697">
        <ele>1286.5</ele>
        <time>2021-09-07T10:14:41Z</time>
      </trkpt>
      <trkpt lat="44.49305" lon="5.47696">
        <ele>1286.4</ele>
        <time>2021-09-07T10:14:42Z</time>
      </trkpt>
      <trkpt lat="44.49305" lon="5.47696">
        <ele>1286.4</ele>
        <time>2021-09-07T10:14:43Z</time>
      </trkpt>
      <trkpt lat="44.49306" lon="5.47696">
        <ele>1286.4</ele>
        <time>2021-09-07T10:14:44Z</time>
      </trkpt>
      <trkpt lat="44.49306" lon="5.47695">
        <ele>1286.3</ele>
        <time>2021-09-07T10:14:45Z</time>
      </trkpt>
      <trkpt lat="44.49306" lon="5.47695">
        <ele>1286.3</ele>
        <time>2021-09-07T10:14:46Z</time>
      </trkpt>
      <trkpt lat="44.49307" lon="5.47695">
        <ele>1286.3</ele>
        <time>2021-09-07T10:14:47Z</time>
      </trkpt>
      <trkpt lat="44.49307" lon="5.47695">
        <ele>1286.2</ele>
        <time>2021-09-07T10:14:48Z</time>
      </trkpt>
      <trkpt lat="44.49308" lon="5.47694">
        <ele>1286.1</ele>
        <time>2021-09-07T10:14:49Z</time>
      </trkpt>
      <trkpt lat="44.49308" lon="5.47694">
        <ele>1286.1</ele>
        <time>2021-09-07T10:14:50Z</time>
      </trkpt>
      <trkpt lat="44.49309" lon="5.47694">
        <ele>1286.1</ele>
        <time>2021-09-07T10:14:51Z</time>
      </trkpt>
      <trkpt lat="44.49309" lon="5.47694">
        <ele>1286</ele>
        <time>2021-09-07T10:14:52Z</time>
      </trkpt>
      <trkpt lat="44.4931" lon="5.47694">
        <ele>1285.9</ele>
        <time>2021-09-07T10:14:53Z</time>
      </trkpt>
      <trkpt lat="44.49311" lon="5.47693">
        <ele>1285.8</ele>
        <time>2021-09-07T10:14:54Z</time>
      </trkpt>
      <trkpt lat="44.49311" lon="5.47693">
        <ele>1285.8</ele>
        <time>2021-09-07T10:14:55Z</time>
      </trkpt>
      <trkpt lat="44.49312" lon="5.47693">
        <ele>1285.7</ele>
        <time>2021-09-07T10:14:56Z</time>
      </trkpt>
      <trkpt lat="44.49313" lon="5.47693">
        <ele>1285.6</ele>
        <time>2021-09-07T10:14:57Z</time>
      </trkpt>
      <trkpt lat="44.49314" lon="5.47692">
        <ele>1285.5</ele>
        <time>2021-09-07T10:14:58Z</time>
      </trkpt>
      <trkpt lat="44.49315" lon="5.47691">
        <ele>1285.4</ele>
        <time>2021-09-07T10:14:59Z</time>
      </trkpt>
      <trkpt lat="44.49316" lon="5.4769">
        <ele>1285.3</ele>
        <time>2021-09-07T10:15:00Z</time>
      </trkpt>
      <trkpt lat="44.49317" lon="5.47689">
        <ele>1285.2</ele>
        <time>2021-09-07T10:15:01Z</time>
      </trkpt>
      <trkpt lat="44.49319" lon="5.47688">
        <ele>1285</ele>
        <time>2021-09-07T10:15:02Z</time>
      </trkpt>
      <trkpt lat="44.4932" lon="5.47687">
        <ele>1284.9</ele>
        <time>2021-09-07T10:15:03Z</time>
      </trkpt>
      <trkpt lat="44.49321" lon="5.47685">
        <ele>1284.8</ele>
        <time>2021-09-07T10:15:04Z</time>
      </trkpt>
      <trkpt lat="44.49322" lon="5.47684">
        <ele>1284.7</ele>
        <time>2021-09-07T10:15:05Z</time>
      </trkpt>
      <trkpt lat="44.49323" lon="5.47683">
        <ele>1284.5</ele>
        <time>2021-09-07T10:15:06Z</time>
      </trkpt>
      <trkpt lat="44.49324" lon="5.47682">
        <ele>1284.4</ele>
        <time>2021-09-07T10:15:07Z</time>
      </trkpt>
      <trkpt lat="44.49325" lon="5.4768">
        <ele>1284.3</ele>
        <time>2021-09-07T10:15:08Z</time>
      </trkpt>
      <trkpt lat="44.49326" lon="5.47679">
        <ele>1284.2</ele>
        <time>2021-09-07T10:15:09Z</time>
      </trkpt>
      <trkpt lat="44.49327" lon="5.47677">
        <ele>1284</ele>
        <time>2021-09-07T10:15:10Z</time>
      </trkpt>
      <trkpt lat="44.49328" lon="5.47674">
        <ele>1283.8</ele>
        <time>2021-09-07T10:15:11Z</time>
      </trkpt>
      <trkpt lat="44.49328" lon="5.47671">
        <ele>1283.6</ele>
        <time>2021-09-07T10:15:12Z</time>
      </trkpt>
      <trkpt lat="44.49328" lon="5.47668">
        <ele>1283.4</ele>
        <time>2021-09-07T10:15:13Z</time>
      </trkpt>
      <trkpt lat="44.49328" lon="5.47665">
        <ele>1283.2</ele>
        <time>2021-09-07T10:15:14Z</time>
      </trkpt>
      <trkpt lat="44.49327" lon="5.47661">
        <ele>1283</ele>
        <time>2021-09-07T10:15:15Z</time>
      </trkpt>
      <trkpt lat="44.49326" lon="5.47656">
        <ele>1282.7</ele>
        <time>2021-09-07T10:15:16Z</time>
      </trkpt>
      <trkpt lat="44.49326" lon="5.47654">
        <ele>1282.5</ele>
        <time>2021-09-07T10:15:17Z</time>
      </trkpt>
      <trkpt lat="44.49325" lon="5.47652">
        <ele>1282.4</ele>
        <time>2021-09-07T10:15:18Z</time>
      </trkpt>
      <trkpt lat="44.49323" lon="5.47647">
        <ele>1282</ele>
        <time>2021-09-07T10:15:19Z</time>
      </trkpt>
      <trkpt lat="44.49323" lon="5.47646">
        <ele>1281.9</ele>
        <time>2021-09-07T10:15:20Z</time>
      </trkpt>
      <trkpt lat="44.49322" lon="5.47644">
        <ele>1281.8</ele>
        <time>2021-09-07T10:15:21Z</time>
      </trkpt>
      <trkpt lat="44.4932" lon="5.47642">
        <ele>1281.6</ele>
        <time>2021-09-07T10:15:22Z</time>
      </trkpt>
      <trkpt lat="44.49319" lon="5.4764">
        <ele>1281.4</ele>
        <time>2021-09-07T10:15:23Z</time>
      </trkpt>
      <trkpt lat="44.49319" lon="5.47639">
        <ele>1281.4</ele>
        <time>2021-09-07T10:15:24Z</time>
      </trkpt>
      <trkpt lat="44.49318" lon="5.47638">
        <ele>1281.3</ele>
        <time>2021-09-07T10:15:25Z</time>
      </trkpt>
      <trkpt lat="44.49317" lon="5.47637">
        <ele>1281.2</ele>
        <time>2021-09-07T10:15:26Z</time>
      </trkpt>
      <trkpt lat="44.49319" lon="5.47634">
        <ele>1280.9</ele>
        <time>2021-09-07T10:15:27Z</time>
      </trkpt>
      <trkpt lat="44.49321" lon="5.4763">
        <ele>1280.6</ele>
        <time>2021-09-07T10:15:28Z</time>
      </trkpt>
      <trkpt lat="44.49323" lon="5.47628">
        <ele>1280.4</ele>
        <time>2021-09-07T10:15:29Z</time>
      </trkpt>
      <trkpt lat="44.49325" lon="5.47626">
        <ele>1280.2</ele>
        <time>2021-09-07T10:15:30Z</time>
      </trkpt>
      <trkpt lat="44.49338" lon="5.47616">
        <ele>1278.9</ele>
        <time>2021-09-07T10:15:31Z</time>
      </trkpt>
      <trkpt lat="44.49351" lon="5.47606">
        <ele>1277.6</ele>
        <time>2021-09-07T10:15:32Z</time>
      </trkpt>
      <trkpt lat="44.49362" lon="5.47597">
        <ele>1276.4</ele>
        <time>2021-09-07T10:15:33Z</time>
      </trkpt>
      <trkpt lat="44.49368" lon="5.47592">
        <ele>1275.8</ele>
        <time>2021-09-07T10:15:34Z</time>
      </trkpt>
      <trkpt lat="44.49371" lon="5.4759">
        <ele>1275.5</ele>
        <time>2021-09-07T10:15:35Z</time>
      </trkpt>
      <trkpt lat="44.4938" lon="5.47582">
        <ele>1274.6</ele>
        <time>2021-09-07T10:15:36Z</time>
      </trkpt>
      <trkpt lat="44.49388" lon="5.47573">
        <ele>1273.6</ele>
        <time>2021-09-07T10:15:37Z</time>
      </trkpt>
      <trkpt lat="44.49394" lon="5.47566">
        <ele>1273</ele>
        <time>2021-09-07T10:15:38Z</time>
      </trkpt>
      <trkpt lat="44.49403" lon="5.47558">
        <ele>1272</ele>
        <time>2021-09-07T10:15:39Z</time>
      </trkpt>
      <trkpt lat="44.49408" lon="5.47554">
        <ele>1271.5</ele>
        <time>2021-09-07T10:15:40Z</time>
      </trkpt>
      <trkpt lat="44.49413" lon="5.47549">
        <ele>1271</ele>
        <time>2021-09-07T10:15:41Z</time>
      </trkpt>
      <trkpt lat="44.49421" lon="5.47543">
        <ele>1270.2</ele>
        <time>2021-09-07T10:15:42Z</time>
      </trkpt>
      <trkpt lat="44.49428" lon="5.47538">
        <ele>1269.5</ele>
        <time>2021-09-07T10:15:43Z</time>
      </trkpt>
      <trkpt lat="44.49433" lon="5.47535">
        <ele>1269</ele>
        <time>2021-09-07T10:15:44Z</time>
      </trkpt>
      <trkpt lat="44.49437" lon="5.47532">
        <ele>1268.6</ele>
        <time>2021-09-07T10:15:45Z</time>
      </trkpt>
      <trkpt lat="44.49445" lon="5.47527">
        <ele>1267.8</ele>
        <time>2021-09-07T10:15:46Z</time>
      </trkpt>
      <trkpt lat="44.4945" lon="5.47526">
        <ele>1267.4</ele>
        <time>2021-09-07T10:15:47Z</time>
      </trkpt>
      <trkpt lat="44.49454" lon="5.47524">
        <ele>1267</ele>
        <time>2021-09-07T10:15:48Z</time>
      </trkpt>
      <trkpt lat="44.49458" lon="5.47525">
        <ele>1266.6</ele>
        <time>2021-09-07T10:15:49Z</time>
      </trkpt>
      <trkpt lat="44.4946" lon="5.47527">
        <ele>1266.4</ele>
        <time>2021-09-07T10:15:50Z</time>
      </trkpt>
      <trkpt lat="44.49462" lon="5.47528">
        <ele>1266.2</ele>
        <time>2021-09-07T10:15:51Z</time>
      </trkpt>
      <trkpt lat="44.49465" lon="5.47531">
        <ele>1265.9</ele>
        <time>2021-09-07T10:15:52Z</time>
      </trkpt>
      <trkpt lat="44.49468" lon="5.47535">
        <ele>1265.5</ele>
        <time>2021-09-07T10:15:53Z</time>
      </trkpt>
      <trkpt lat="44.49471" lon="5.47539">
        <ele>1265.2</ele>
        <time>2021-09-07T10:15:54Z</time>
      </trkpt>
      <trkpt lat="44.49472" lon="5.47542">
        <ele>1265</ele>
        <time>2021-09-07T10:15:55Z</time>
      </trkpt>
      <trkpt lat="44.49472" lon="5.47544">
        <ele>1264.8</ele>
        <time>2021-09-07T10:15:56Z</time>
      </trkpt>
      <trkpt lat="44.49473" lon="5.47548">
        <ele>1264.6</ele>
        <time>2021-09-07T10:15:57Z</time>
      </trkpt>
      <trkpt lat="44.49474" lon="5.47553">
        <ele>1264.2</ele>
        <time>2021-09-07T10:15:58Z</time>
      </trkpt>
      <trkpt lat="44.49475" lon="5.47557">
        <ele>1264</ele>
        <time>2021-09-07T10:15:59Z</time>
      </trkpt>
      <trkpt lat="44.49476" lon="5.47559">
        <ele>1263.8</ele>
        <time>2021-09-07T10:16:00Z</time>
      </trkpt>
      <trkpt lat="44.49476" lon="5.47561">
        <ele>1263.7</ele>
        <time>2021-09-07T10:16:01Z</time>
      </trkpt>
      <trkpt lat="44.49477" lon="5.47564">
        <ele>1263.5</ele>
        <time>2021-09-07T10:16:02Z</time>
      </trkpt>
      <trkpt lat="44.49477" lon="5.47566">
        <ele>1263.4</ele>
        <time>2021-09-07T10:16:03Z</time>
      </trkpt>
      <trkpt lat="44.4948" lon="5.47572">
        <ele>1262.9</ele>
        <time>2021-09-07T10:16:04Z</time>
      </trkpt>
      <trkpt lat="44.49482" lon="5.47578">
        <ele>1262.5</ele>
        <time>2021-09-07T10:16:05Z</time>
      </trkpt>
      <trkpt lat="44.49483" lon="5.47584">
        <ele>1262.1</ele>
        <time>2021-09-07T10:16:06Z</time>
      </trkpt>
      <trkpt lat="44.49486" lon="5.47589">
        <ele>1261.7</ele>
        <time>2021-09-07T10:16:07Z</time>
      </trkpt>
      <trkpt lat="44.49487" lon="5.47596">
        <ele>1261.2</ele>
        <time>2021-09-07T10:16:08Z</time>
      </trkpt>
      <trkpt lat="44.49488" lon="5.47603">
        <ele>1260.8</ele>
        <time>2021-09-07T10:16:09Z</time>
      </trkpt>
      <trkpt lat="44.49489" lon="5.47611">
        <ele>1260.3</ele>
        <time>2021-09-07T10:16:10Z</time>
      </trkpt>
      <trkpt lat="44.49488" lon="5.4762">
        <ele>1259.7</ele>
        <time>2021-09-07T10:16:11Z</time>
      </trkpt>
      <trkpt lat="44.49487" lon="5.47628">
        <ele>1259.2</ele>
        <time>2021-09-07T10:16:12Z</time>
      </trkpt>
      <trkpt lat="44.49486" lon="5.47636">
        <ele>1258.7</ele>
        <time>2021-09-07T10:16:13Z</time>
      </trkpt>
      <trkpt lat="44.49485" lon="5.47644">
        <ele>1258.2</ele>
        <time>2021-09-07T10:16:14Z</time>
      </trkpt>
      <trkpt lat="44.49486" lon="5.47651">
        <ele>1257.7</ele>
        <time>2021-09-07T10:16:15Z</time>
      </trkpt>
      <trkpt lat="44.49488" lon="5.47666">
        <ele>1256.7</ele>
        <time>2021-09-07T10:16:16Z</time>
      </trkpt>
      <trkpt lat="44.49489" lon="5.4767">
        <ele>1256.5</ele>
        <time>2021-09-07T10:16:17Z</time>
      </trkpt>
      <trkpt lat="44.4949" lon="5.47673">
        <ele>1256.3</ele>
        <time>2021-09-07T10:16:18Z</time>
      </trkpt>
      <trkpt lat="44.49491" lon="5.4768">
        <ele>1255.8</ele>
        <time>2021-09-07T10:16:19Z</time>
      </trkpt>
      <trkpt lat="44.49492" lon="5.47686">
        <ele>1255.4</ele>
        <time>2021-09-07T10:16:20Z</time>
      </trkpt>
      <trkpt lat="44.49492" lon="5.47692">
        <ele>1255</ele>
        <time>2021-09-07T10:16:21Z</time>
      </trkpt>
      <trkpt lat="44.49493" lon="5.47698">
        <ele>1254.7</ele>
        <time>2021-09-07T10:16:22Z</time>
      </trkpt>
      <trkpt lat="44.49493" lon="5.47703">
        <ele>1254.3</ele>
        <time>2021-09-07T10:16:23Z</time>
      </trkpt>
      <trkpt lat="44.49494" lon="5.47708">
        <ele>1254</ele>
        <time>2021-09-07T10:16:24Z</time>
      </trkpt>
      <trkpt lat="44.49494" lon="5.47709">
        <ele>1253.9</ele>
        <time>2021-09-07T10:16:25Z</time>
      </trkpt>
      <trkpt lat="44.49494" lon="5.47709">
        <ele>1253.9</ele>
        <time>2021-09-07T10:16:26Z</time>
      </trkpt>
      <trkpt lat="44.49494" lon="5.47709">
        <ele>1253.9</ele>
        <time>2021-09-07T10:16:27Z</time>
      </trkpt>
      <trkpt lat="44.49495" lon="5.47711">
        <ele>1253.8</ele>
        <time>2021-09-07T10:16:28Z</time>
      </trkpt>
      <trkpt lat="44.49497" lon="5.47714">
        <ele>1253.5</ele>
        <time>2021-09-07T10:16:29Z</time>
      </trkpt>
      <trkpt lat="44.495" lon="5.47723">
        <ele>1252.9</ele>
        <time>2021-09-07T10:16:30Z</time>
      </trkpt>
      <trkpt lat="44.49503" lon="5.47731">
        <ele>1252.3</ele>
        <time>2021-09-07T10:16:31Z</time>
      </trkpt>
      <trkpt lat="44.49503" lon="5.47733">
        <ele>1252.2</ele>
        <time>2021-09-07T10:16:32Z</time>
      </trkpt>
      <trkpt lat="44.49504" lon="5.47735">
        <ele>1252.1</ele>
        <time>2021-09-07T10:16:33Z</time>
      </trkpt>
      <trkpt lat="44.49503" lon="5.47737">
        <ele>1251.9</ele>
        <time>2021-09-07T10:16:34Z</time>
      </trkpt>
      <trkpt lat="44.49503" lon="5.47739">
        <ele>1251.8</ele>
        <time>2021-09-07T10:16:35Z</time>
      </trkpt>
      <trkpt lat="44.49503" lon="5.4774">
        <ele>1251.7</ele>
        <time>2021-09-07T10:16:36Z</time>
      </trkpt>
      <trkpt lat="44.49503" lon="5.47741">
        <ele>1251.6</ele>
        <time>2021-09-07T10:16:37Z</time>
      </trkpt>
      <trkpt lat="44.49503" lon="5.47743">
        <ele>1251.5</ele>
        <time>2021-09-07T10:16:38Z</time>
      </trkpt>
      <trkpt lat="44.49504" lon="5.47745">
        <ele>1251.4</ele>
        <time>2021-09-07T10:16:39Z</time>
      </trkpt>
      <trkpt lat="44.49504" lon="5.47746">
        <ele>1251.3</ele>
        <time>2021-09-07T10:16:40Z</time>
      </trkpt>
      <trkpt lat="44.49502" lon="5.4775">
        <ele>1251</ele>
        <time>2021-09-07T10:16:41Z</time>
      </trkpt>
      <trkpt lat="44.49502" lon="5.47752">
        <ele>1250.9</ele>
        <time>2021-09-07T10:16:42Z</time>
      </trkpt>
      <trkpt lat="44.49501" lon="5.47754">
        <ele>1250.7</ele>
        <time>2021-09-07T10:16:43Z</time>
      </trkpt>
      <trkpt lat="44.49501" lon="5.47756">
        <ele>1250.6</ele>
        <time>2021-09-07T10:16:44Z</time>
      </trkpt>
      <trkpt lat="44.495" lon="5.47757">
        <ele>1250.5</ele>
        <time>2021-09-07T10:16:45Z</time>
      </trkpt>
      <trkpt lat="44.49498" lon="5.4776">
        <ele>1250.3</ele>
        <time>2021-09-07T10:16:46Z</time>
      </trkpt>
      <trkpt lat="44.49495" lon="5.47764">
        <ele>1249.9</ele>
        <time>2021-09-07T10:16:47Z</time>
      </trkpt>
      <trkpt lat="44.49494" lon="5.47766">
        <ele>1249.7</ele>
        <time>2021-09-07T10:16:48Z</time>
      </trkpt>
      <trkpt lat="44.49491" lon="5.47771">
        <ele>1249.3</ele>
        <time>2021-09-07T10:16:49Z</time>
      </trkpt>
      <trkpt lat="44.49491" lon="5.47772">
        <ele>1249.3</ele>
        <time>2021-09-07T10:16:50Z</time>
      </trkpt>
      <trkpt lat="44.4949" lon="5.47773">
        <ele>1249.2</ele>
        <time>2021-09-07T10:16:51Z</time>
      </trkpt>
      <trkpt lat="44.49489" lon="5.47775">
        <ele>1249</ele>
        <time>2021-09-07T10:16:52Z</time>
      </trkpt>
      <trkpt lat="44.49489" lon="5.47777">
        <ele>1248.9</ele>
        <time>2021-09-07T10:16:53Z</time>
      </trkpt>
      <trkpt lat="44.49489" lon="5.47779">
        <ele>1248.8</ele>
        <time>2021-09-07T10:16:54Z</time>
      </trkpt>
      <trkpt lat="44.49488" lon="5.4778">
        <ele>1248.7</ele>
        <time>2021-09-07T10:16:55Z</time>
      </trkpt>
      <trkpt lat="44.49488" lon="5.47782">
        <ele>1248.6</ele>
        <time>2021-09-07T10:16:56Z</time>
      </trkpt>
      <trkpt lat="44.49488" lon="5.47783">
        <ele>1248.5</ele>
        <time>2021-09-07T10:16:57Z</time>
      </trkpt>
      <trkpt lat="44.49487" lon="5.47784">
        <ele>1248.4</ele>
        <time>2021-09-07T10:16:58Z</time>
      </trkpt>
      <trkpt lat="44.49487" lon="5.47786">
        <ele>1248.3</ele>
        <time>2021-09-07T10:16:59Z</time>
      </trkpt>
      <trkpt lat="44.49487" lon="5.47788">
        <ele>1248.2</ele>
        <time>2021-09-07T10:17:00Z</time>
      </trkpt>
      <trkpt lat="44.49487" lon="5.4779">
        <ele>1248.1</ele>
        <time>2021-09-07T10:17:01Z</time>
      </trkpt>
      <trkpt lat="44.49487" lon="5.47791">
        <ele>1248</ele>
        <time>2021-09-07T10:17:02Z</time>
      </trkpt>
      <trkpt lat="44.49487" lon="5.47794">
        <ele>1247.8</ele>
        <time>2021-09-07T10:17:03Z</time>
      </trkpt>
      <trkpt lat="44.49486" lon="5.47796">
        <ele>1247.6</ele>
        <time>2021-09-07T10:17:04Z</time>
      </trkpt>
      <trkpt lat="44.49484" lon="5.478">
        <ele>1247.3</ele>
        <time>2021-09-07T10:17:05Z</time>
      </trkpt>
      <trkpt lat="44.49482" lon="5.47804">
        <ele>1247</ele>
        <time>2021-09-07T10:17:06Z</time>
      </trkpt>
      <trkpt lat="44.49476" lon="5.47817">
        <ele>1246.1</ele>
        <time>2021-09-07T10:17:07Z</time>
      </trkpt>
      <trkpt lat="44.4947" lon="5.47829">
        <ele>1245.1</ele>
        <time>2021-09-07T10:17:08Z</time>
      </trkpt>
      <trkpt lat="44.49466" lon="5.47837">
        <ele>1244.5</ele>
        <time>2021-09-07T10:17:09Z</time>
      </trkpt>
      <trkpt lat="44.49465" lon="5.47839">
        <ele>1244.3</ele>
        <time>2021-09-07T10:17:10Z</time>
      </trkpt>
      <trkpt lat="44.49464" lon="5.47841">
        <ele>1244.2</ele>
        <time>2021-09-07T10:17:11Z</time>
      </trkpt>
      <trkpt lat="44.49463" lon="5.47845">
        <ele>1243.9</ele>
        <time>2021-09-07T10:17:12Z</time>
      </trkpt>
      <trkpt lat="44.49459" lon="5.47852">
        <ele>1243.3</ele>
        <time>2021-09-07T10:17:13Z</time>
      </trkpt>
      <trkpt lat="44.49457" lon="5.47857">
        <ele>1243</ele>
        <time>2021-09-07T10:17:14Z</time>
      </trkpt>
      <trkpt lat="44.49453" lon="5.47869">
        <ele>1242.1</ele>
        <time>2021-09-07T10:17:15Z</time>
      </trkpt>
      <trkpt lat="44.49448" lon="5.47881">
        <ele>1241.3</ele>
        <time>2021-09-07T10:17:16Z</time>
      </trkpt>
      <trkpt lat="44.49445" lon="5.47889">
        <ele>1240.7</ele>
        <time>2021-09-07T10:17:17Z</time>
      </trkpt>
      <trkpt lat="44.49444" lon="5.47893">
        <ele>1240.5</ele>
        <time>2021-09-07T10:17:18Z</time>
      </trkpt>
      <trkpt lat="44.49443" lon="5.47896">
        <ele>1240.4</ele>
        <time>2021-09-07T10:17:19Z</time>
      </trkpt>
      <trkpt lat="44.49442" lon="5.47898">
        <ele>1240.3</ele>
        <time>2021-09-07T10:17:20Z</time>
      </trkpt>
      <trkpt lat="44.49441" lon="5.47901">
        <ele>1240.2</ele>
        <time>2021-09-07T10:17:21Z</time>
      </trkpt>
      <trkpt lat="44.49441" lon="5.47903">
        <ele>1240.1</ele>
        <time>2021-09-07T10:17:22Z</time>
      </trkpt>
      <trkpt lat="44.49441" lon="5.47905">
        <ele>1240.1</ele>
        <time>2021-09-07T10:17:23Z</time>
      </trkpt>
      <trkpt lat="44.49441" lon="5.47909">
        <ele>1240</ele>
        <time>2021-09-07T10:17:24Z</time>
      </trkpt>
      <trkpt lat="44.49441" lon="5.47912">
        <ele>1239.9</ele>
        <time>2021-09-07T10:17:25Z</time>
      </trkpt>
      <trkpt lat="44.49441" lon="5.47915">
        <ele>1239.8</ele>
        <time>2021-09-07T10:17:26Z</time>
      </trkpt>
      <trkpt lat="44.49442" lon="5.47918">
        <ele>1239.7</ele>
        <time>2021-09-07T10:17:27Z</time>
      </trkpt>
      <trkpt lat="44.49442" lon="5.47921">
        <ele>1239.6</ele>
        <time>2021-09-07T10:17:28Z</time>
      </trkpt>
      <trkpt lat="44.49443" lon="5.47926">
        <ele>1239.4</ele>
        <time>2021-09-07T10:17:29Z</time>
      </trkpt>
      <trkpt lat="44.49444" lon="5.47933">
        <ele>1239.2</ele>
        <time>2021-09-07T10:17:30Z</time>
      </trkpt>
      <trkpt lat="44.49445" lon="5.47935">
        <ele>1239.2</ele>
        <time>2021-09-07T10:17:31Z</time>
      </trkpt>
      <trkpt lat="44.49445" lon="5.47937">
        <ele>1239.1</ele>
        <time>2021-09-07T10:17:32Z</time>
      </trkpt>
      <trkpt lat="44.49445" lon="5.47938">
        <ele>1239.1</ele>
        <time>2021-09-07T10:17:33Z</time>
      </trkpt>
      <trkpt lat="44.49445" lon="5.47942">
        <ele>1238.9</ele>
        <time>2021-09-07T10:17:34Z</time>
      </trkpt>
      <trkpt lat="44.49446" lon="5.47942">
        <ele>1238.9</ele>
        <time>2021-09-07T10:17:35Z</time>
      </trkpt>
      <trkpt lat="44.49446" lon="5.47945">
        <ele>1238.8</ele>
        <time>2021-09-07T10:17:36Z</time>
      </trkpt>
      <trkpt lat="44.49446" lon="5.47946">
        <ele>1238.8</ele>
        <time>2021-09-07T10:17:37Z</time>
      </trkpt>
      <trkpt lat="44.49447" lon="5.47948">
        <ele>1238.7</ele>
        <time>2021-09-07T10:17:38Z</time>
      </trkpt>
      <trkpt lat="44.49447" lon="5.47949">
        <ele>1238.7</ele>
        <time>2021-09-07T10:17:39Z</time>
      </trkpt>
      <trkpt lat="44.49447" lon="5.4795">
        <ele>1238.6</ele>
        <time>2021-09-07T10:17:40Z</time>
      </trkpt>
      <trkpt lat="44.49447" lon="5.47953">
        <ele>1238.6</ele>
        <time>2021-09-07T10:17:41Z</time>
      </trkpt>
      <trkpt lat="44.49447" lon="5.47955">
        <ele>1238.5</ele>
        <time>2021-09-07T10:17:42Z</time>
      </trkpt>
      <trkpt lat="44.49447" lon="5.47956">
        <ele>1238.5</ele>
        <time>2021-09-07T10:17:43Z</time>
      </trkpt>
      <trkpt lat="44.49447" lon="5.47957">
        <ele>1238.4</ele>
        <time>2021-09-07T10:17:44Z</time>
      </trkpt>
      <trkpt lat="44.49447" lon="5.47958">
        <ele>1238.4</ele>
        <time>2021-09-07T10:17:45Z</time>
      </trkpt>
      <trkpt lat="44.49447" lon="5.47959">
        <ele>1238.4</ele>
        <time>2021-09-07T10:17:46Z</time>
      </trkpt>
      <trkpt lat="44.49447" lon="5.4796">
        <ele>1238.3</ele>
        <time>2021-09-07T10:17:47Z</time>
      </trkpt>
      <trkpt lat="44.49447" lon="5.47961">
        <ele>1238.3</ele>
        <time>2021-09-07T10:17:48Z</time>
      </trkpt>
      <trkpt lat="44.49446" lon="5.47964">
        <ele>1238.2</ele>
        <time>2021-09-07T10:17:49Z</time>
      </trkpt>
      <trkpt lat="44.49446" lon="5.47966">
        <ele>1238.2</ele>
        <time>2021-09-07T10:17:50Z</time>
      </trkpt>
      <trkpt lat="44.49446" lon="5.47967">
        <ele>1238.1</ele>
        <time>2021-09-07T10:17:51Z</time>
      </trkpt>
      <trkpt lat="44.49446" lon="5.47968">
        <ele>1238.1</ele>
        <time>2021-09-07T10:17:52Z</time>
      </trkpt>
      <trkpt lat="44.49447" lon="5.47969">
        <ele>1238.1</ele>
        <time>2021-09-07T10:17:53Z</time>
      </trkpt>
      <trkpt lat="44.49447" lon="5.47969">
        <ele>1238.1</ele>
        <time>2021-09-07T10:17:54Z</time>
      </trkpt>
      <trkpt lat="44.49447" lon="5.4797">
        <ele>1238</ele>
        <time>2021-09-07T10:17:55Z</time>
      </trkpt>
      <trkpt lat="44.49447" lon="5.47971">
        <ele>1238</ele>
        <time>2021-09-07T10:17:56Z</time>
      </trkpt>
      <trkpt lat="44.49447" lon="5.47972">
        <ele>1238</ele>
        <time>2021-09-07T10:17:57Z</time>
      </trkpt>
      <trkpt lat="44.49447" lon="5.47973">
        <ele>1237.9</ele>
        <time>2021-09-07T10:17:58Z</time>
      </trkpt>
      <trkpt lat="44.49447" lon="5.47974">
        <ele>1237.9</ele>
        <time>2021-09-07T10:17:59Z</time>
      </trkpt>
      <trkpt lat="44.49449" lon="5.47981">
        <ele>1237.7</ele>
        <time>2021-09-07T10:18:00Z</time>
      </trkpt>
      <trkpt lat="44.4945" lon="5.47987">
        <ele>1237.5</ele>
        <time>2021-09-07T10:18:01Z</time>
      </trkpt>
      <trkpt lat="44.49451" lon="5.47994">
        <ele>1237.3</ele>
        <time>2021-09-07T10:18:02Z</time>
      </trkpt>
      <trkpt lat="44.49452" lon="5.48001">
        <ele>1237.1</ele>
        <time>2021-09-07T10:18:03Z</time>
      </trkpt>
      <trkpt lat="44.49453" lon="5.48008">
        <ele>1236.9</ele>
        <time>2021-09-07T10:18:04Z</time>
      </trkpt>
      <trkpt lat="44.49455" lon="5.48014">
        <ele>1236.7</ele>
        <time>2021-09-07T10:18:05Z</time>
      </trkpt>
      <trkpt lat="44.49456" lon="5.48021">
        <ele>1236.5</ele>
        <time>2021-09-07T10:18:06Z</time>
      </trkpt>
      <trkpt lat="44.49457" lon="5.48028">
        <ele>1236.3</ele>
        <time>2021-09-07T10:18:07Z</time>
      </trkpt>
      <trkpt lat="44.49458" lon="5.48035">
        <ele>1236</ele>
        <time>2021-09-07T10:18:08Z</time>
      </trkpt>
      <trkpt lat="44.4946" lon="5.48042">
        <ele>1235.8</ele>
        <time>2021-09-07T10:18:09Z</time>
      </trkpt>
      <trkpt lat="44.49461" lon="5.48048">
        <ele>1235.6</ele>
        <time>2021-09-07T10:18:10Z</time>
      </trkpt>
      <trkpt lat="44.49462" lon="5.48055">
        <ele>1235.4</ele>
        <time>2021-09-07T10:18:11Z</time>
      </trkpt>
      <trkpt lat="44.49468" lon="5.48078">
        <ele>1234.7</ele>
        <time>2021-09-07T10:18:12Z</time>
      </trkpt>
      <trkpt lat="44.49474" lon="5.48101">
        <ele>1233.9</ele>
        <time>2021-09-07T10:18:13Z</time>
      </trkpt>
      <trkpt lat="44.49478" lon="5.48139">
        <ele>1232.8</ele>
        <time>2021-09-07T10:18:14Z</time>
      </trkpt>
      <trkpt lat="44.49481" lon="5.48176">
        <ele>1231.7</ele>
        <time>2021-09-07T10:18:15Z</time>
      </trkpt>
      <trkpt lat="44.49478" lon="5.48196">
        <ele>1231.1</ele>
        <time>2021-09-07T10:18:16Z</time>
      </trkpt>
      <trkpt lat="44.49476" lon="5.48206">
        <ele>1230.8</ele>
        <time>2021-09-07T10:18:17Z</time>
      </trkpt>
      <trkpt lat="44.49477" lon="5.48206">
        <ele>1230.7</ele>
        <time>2021-09-07T10:18:18Z</time>
      </trkpt>
      <trkpt lat="44.49477" lon="5.48206">
        <ele>1230.7</ele>
        <time>2021-09-07T10:18:19Z</time>
      </trkpt>
      <trkpt lat="44.49478" lon="5.48207">
        <ele>1230.7</ele>
        <time>2021-09-07T10:18:20Z</time>
      </trkpt>
      <trkpt lat="44.4948" lon="5.4821">
        <ele>1230.6</ele>
        <time>2021-09-07T10:18:21Z</time>
      </trkpt>
      <trkpt lat="44.49481" lon="5.48213">
        <ele>1230.5</ele>
        <time>2021-09-07T10:18:22Z</time>
      </trkpt>
      <trkpt lat="44.49481" lon="5.48223">
        <ele>1230.2</ele>
        <time>2021-09-07T10:18:23Z</time>
      </trkpt>
      <trkpt lat="44.4948" lon="5.48229">
        <ele>1230</ele>
        <time>2021-09-07T10:18:24Z</time>
      </trkpt>
      <trkpt lat="44.49479" lon="5.48235">
        <ele>1229.8</ele>
        <time>2021-09-07T10:18:25Z</time>
      </trkpt>
      <trkpt lat="44.49479" lon="5.48241">
        <ele>1229.6</ele>
        <time>2021-09-07T10:18:26Z</time>
      </trkpt>
      <trkpt lat="44.49478" lon="5.48246">
        <ele>1229.5</ele>
        <time>2021-09-07T10:18:27Z</time>
      </trkpt>
      <trkpt lat="44.49478" lon="5.48251">
        <ele>1229.3</ele>
        <time>2021-09-07T10:18:28Z</time>
      </trkpt>
      <trkpt lat="44.49477" lon="5.48256">
        <ele>1229.2</ele>
        <time>2021-09-07T10:18:29Z</time>
      </trkpt>
      <trkpt lat="44.49476" lon="5.4826">
        <ele>1229</ele>
        <time>2021-09-07T10:18:30Z</time>
      </trkpt>
      <trkpt lat="44.49475" lon="5.4827">
        <ele>1228.7</ele>
        <time>2021-09-07T10:18:31Z</time>
      </trkpt>
      <trkpt lat="44.49473" lon="5.48279">
        <ele>1228.4</ele>
        <time>2021-09-07T10:18:32Z</time>
      </trkpt>
      <trkpt lat="44.49473" lon="5.48289">
        <ele>1228.2</ele>
        <time>2021-09-07T10:18:33Z</time>
      </trkpt>
      <trkpt lat="44.49473" lon="5.48298">
        <ele>1227.9</ele>
        <time>2021-09-07T10:18:34Z</time>
      </trkpt>
      <trkpt lat="44.49474" lon="5.48308">
        <ele>1227.6</ele>
        <time>2021-09-07T10:18:35Z</time>
      </trkpt>
      <trkpt lat="44.49475" lon="5.48322">
        <ele>1227.2</ele>
        <time>2021-09-07T10:18:36Z</time>
      </trkpt>
      <trkpt lat="44.49476" lon="5.48327">
        <ele>1227</ele>
        <time>2021-09-07T10:18:37Z</time>
      </trkpt>
      <trkpt lat="44.49477" lon="5.48331">
        <ele>1226.9</ele>
        <time>2021-09-07T10:18:38Z</time>
      </trkpt>
      <trkpt lat="44.4948" lon="5.48343">
        <ele>1226.5</ele>
        <time>2021-09-07T10:18:39Z</time>
      </trkpt>
      <trkpt lat="44.49481" lon="5.48348">
        <ele>1226.3</ele>
        <time>2021-09-07T10:18:40Z</time>
      </trkpt>
      <trkpt lat="44.49482" lon="5.48353">
        <ele>1226.2</ele>
        <time>2021-09-07T10:18:41Z</time>
      </trkpt>
      <trkpt lat="44.49483" lon="5.48359">
        <ele>1226</ele>
        <time>2021-09-07T10:18:42Z</time>
      </trkpt>
      <trkpt lat="44.49487" lon="5.4837">
        <ele>1225.6</ele>
        <time>2021-09-07T10:18:43Z</time>
      </trkpt>
      <trkpt lat="44.49488" lon="5.48378">
        <ele>1225.4</ele>
        <time>2021-09-07T10:18:44Z</time>
      </trkpt>
      <trkpt lat="44.49491" lon="5.48382">
        <ele>1225.2</ele>
        <time>2021-09-07T10:18:45Z</time>
      </trkpt>
      <trkpt lat="44.49493" lon="5.48386">
        <ele>1225.1</ele>
        <time>2021-09-07T10:18:46Z</time>
      </trkpt>
      <trkpt lat="44.49497" lon="5.48394">
        <ele>1224.8</ele>
        <time>2021-09-07T10:18:47Z</time>
      </trkpt>
      <trkpt lat="44.49499" lon="5.48399">
        <ele>1224.6</ele>
        <time>2021-09-07T10:18:48Z</time>
      </trkpt>
      <trkpt lat="44.49501" lon="5.48402">
        <ele>1224.5</ele>
        <time>2021-09-07T10:18:49Z</time>
      </trkpt>
      <trkpt lat="44.49503" lon="5.48404">
        <ele>1224.4</ele>
        <time>2021-09-07T10:18:50Z</time>
      </trkpt>
      <trkpt lat="44.49504" lon="5.48406">
        <ele>1224.3</ele>
        <time>2021-09-07T10:18:51Z</time>
      </trkpt>
      <trkpt lat="44.49507" lon="5.48411">
        <ele>1224.1</ele>
        <time>2021-09-07T10:18:52Z</time>
      </trkpt>
      <trkpt lat="44.49511" lon="5.48418">
        <ele>1223.8</ele>
        <time>2021-09-07T10:18:53Z</time>
      </trkpt>
      <trkpt lat="44.49516" lon="5.48424">
        <ele>1223.6</ele>
        <time>2021-09-07T10:18:54Z</time>
      </trkpt>
      <trkpt lat="44.49518" lon="5.48427">
        <ele>1223.5</ele>
        <time>2021-09-07T10:18:55Z</time>
      </trkpt>
      <trkpt lat="44.49519" lon="5.48429">
        <ele>1223.4</ele>
        <time>2021-09-07T10:18:56Z</time>
      </trkpt>
      <trkpt lat="44.49527" lon="5.4844">
        <ele>1222.9</ele>
        <time>2021-09-07T10:18:57Z</time>
      </trkpt>
      <trkpt lat="44.49533" lon="5.48449">
        <ele>1222.5</ele>
        <time>2021-09-07T10:18:58Z</time>
      </trkpt>
      <trkpt lat="44.49536" lon="5.48455">
        <ele>1222.3</ele>
        <time>2021-09-07T10:18:59Z</time>
      </trkpt>
      <trkpt lat="44.49538" lon="5.48461">
        <ele>1222.1</ele>
        <time>2021-09-07T10:19:00Z</time>
      </trkpt>
      <trkpt lat="44.49541" lon="5.48469">
        <ele>1221.8</ele>
        <time>2021-09-07T10:19:01Z</time>
      </trkpt>
      <trkpt lat="44.49543" lon="5.48476">
        <ele>1221.6</ele>
        <time>2021-09-07T10:19:02Z</time>
      </trkpt>
      <trkpt lat="44.49544" lon="5.48482">
        <ele>1221.4</ele>
        <time>2021-09-07T10:19:03Z</time>
      </trkpt>
      <trkpt lat="44.49546" lon="5.48493">
        <ele>1221.1</ele>
        <time>2021-09-07T10:19:04Z</time>
      </trkpt>
      <trkpt lat="44.49547" lon="5.48499">
        <ele>1220.9</ele>
        <time>2021-09-07T10:19:05Z</time>
      </trkpt>
      <trkpt lat="44.49547" lon="5.48504">
        <ele>1220.8</ele>
        <time>2021-09-07T10:19:06Z</time>
      </trkpt>
      <trkpt lat="44.49548" lon="5.48512">
        <ele>1220.5</ele>
        <time>2021-09-07T10:19:07Z</time>
      </trkpt>
      <trkpt lat="44.49548" lon="5.48525">
        <ele>1220.1</ele>
        <time>2021-09-07T10:19:08Z</time>
      </trkpt>
      <trkpt lat="44.49549" lon="5.48532">
        <ele>1219.9</ele>
        <time>2021-09-07T10:19:09Z</time>
      </trkpt>
      <trkpt lat="44.4955" lon="5.48537">
        <ele>1219.8</ele>
        <time>2021-09-07T10:19:10Z</time>
      </trkpt>
      <trkpt lat="44.4955" lon="5.48542">
        <ele>1219.6</ele>
        <time>2021-09-07T10:19:11Z</time>
      </trkpt>
      <trkpt lat="44.4955" lon="5.48552">
        <ele>1219.3</ele>
        <time>2021-09-07T10:19:12Z</time>
      </trkpt>
      <trkpt lat="44.4955" lon="5.48558">
        <ele>1219.1</ele>
        <time>2021-09-07T10:19:13Z</time>
      </trkpt>
      <trkpt lat="44.4955" lon="5.48567">
        <ele>1218.9</ele>
        <time>2021-09-07T10:19:14Z</time>
      </trkpt>
      <trkpt lat="44.4955" lon="5.48573">
        <ele>1218.7</ele>
        <time>2021-09-07T10:19:15Z</time>
      </trkpt>
      <trkpt lat="44.49549" lon="5.48578">
        <ele>1218.5</ele>
        <time>2021-09-07T10:19:16Z</time>
      </trkpt>
      <trkpt lat="44.49548" lon="5.48585">
        <ele>1218.3</ele>
        <time>2021-09-07T10:19:17Z</time>
      </trkpt>
      <trkpt lat="44.49543" lon="5.48593">
        <ele>1218</ele>
        <time>2021-09-07T10:19:18Z</time>
      </trkpt>
      <trkpt lat="44.49539" lon="5.48599">
        <ele>1217.8</ele>
        <time>2021-09-07T10:19:19Z</time>
      </trkpt>
      <trkpt lat="44.49535" lon="5.48605">
        <ele>1217.5</ele>
        <time>2021-09-07T10:19:20Z</time>
      </trkpt>
      <trkpt lat="44.49522" lon="5.48622">
        <ele>1216.8</ele>
        <time>2021-09-07T10:19:21Z</time>
      </trkpt>
      <trkpt lat="44.49512" lon="5.48635">
        <ele>1216.2</ele>
        <time>2021-09-07T10:19:22Z</time>
      </trkpt>
      <trkpt lat="44.49501" lon="5.48647">
        <ele>1215.6</ele>
        <time>2021-09-07T10:19:23Z</time>
      </trkpt>
      <trkpt lat="44.49499" lon="5.48651">
        <ele>1215.5</ele>
        <time>2021-09-07T10:19:24Z</time>
      </trkpt>
      <trkpt lat="44.49496" lon="5.48655">
        <ele>1215.3</ele>
        <time>2021-09-07T10:19:25Z</time>
      </trkpt>
      <trkpt lat="44.49486" lon="5.48669">
        <ele>1214.7</ele>
        <time>2021-09-07T10:19:26Z</time>
      </trkpt>
      <trkpt lat="44.49476" lon="5.48682">
        <ele>1214.1</ele>
        <time>2021-09-07T10:19:27Z</time>
      </trkpt>
      <trkpt lat="44.49462" lon="5.48705">
        <ele>1213.2</ele>
        <time>2021-09-07T10:19:28Z</time>
      </trkpt>
      <trkpt lat="44.49447" lon="5.48727">
        <ele>1212.3</ele>
        <time>2021-09-07T10:19:29Z</time>
      </trkpt>
      <trkpt lat="44.49441" lon="5.48737">
        <ele>1211.9</ele>
        <time>2021-09-07T10:19:30Z</time>
      </trkpt>
      <trkpt lat="44.49435" lon="5.48747">
        <ele>1211.5</ele>
        <time>2021-09-07T10:19:31Z</time>
      </trkpt>
      <trkpt lat="44.4943" lon="5.48757">
        <ele>1211.2</ele>
        <time>2021-09-07T10:19:32Z</time>
      </trkpt>
      <trkpt lat="44.4943" lon="5.48759">
        <ele>1211.1</ele>
        <time>2021-09-07T10:19:33Z</time>
      </trkpt>
      <trkpt lat="44.49429" lon="5.48761">
        <ele>1211</ele>
        <time>2021-09-07T10:19:34Z</time>
      </trkpt>
      <trkpt lat="44.49428" lon="5.48764">
        <ele>1210.9</ele>
        <time>2021-09-07T10:19:35Z</time>
      </trkpt>
      <trkpt lat="44.49426" lon="5.48767">
        <ele>1210.8</ele>
        <time>2021-09-07T10:19:36Z</time>
      </trkpt>
      <trkpt lat="44.49416" lon="5.48786">
        <ele>1210.1</ele>
        <time>2021-09-07T10:19:37Z</time>
      </trkpt>
      <trkpt lat="44.49406" lon="5.48805">
        <ele>1209.4</ele>
        <time>2021-09-07T10:19:38Z</time>
      </trkpt>
      <trkpt lat="44.49403" lon="5.48814">
        <ele>1209.1</ele>
        <time>2021-09-07T10:19:39Z</time>
      </trkpt>
      <trkpt lat="44.49399" lon="5.48822">
        <ele>1208.8</ele>
        <time>2021-09-07T10:19:40Z</time>
      </trkpt>
      <trkpt lat="44.49393" lon="5.48839">
        <ele>1208.3</ele>
        <time>2021-09-07T10:19:41Z</time>
      </trkpt>
      <trkpt lat="44.49393" lon="5.48843">
        <ele>1208.2</ele>
        <time>2021-09-07T10:19:42Z</time>
      </trkpt>
      <trkpt lat="44.49392" lon="5.48846">
        <ele>1208</ele>
        <time>2021-09-07T10:19:43Z</time>
      </trkpt>
      <trkpt lat="44.49391" lon="5.48854">
        <ele>1207.8</ele>
        <time>2021-09-07T10:19:44Z</time>
      </trkpt>
      <trkpt lat="44.49389" lon="5.48861">
        <ele>1207.6</ele>
        <time>2021-09-07T10:19:45Z</time>
      </trkpt>
      <trkpt lat="44.49387" lon="5.4887">
        <ele>1207.3</ele>
        <time>2021-09-07T10:19:46Z</time>
      </trkpt>
      <trkpt lat="44.49386" lon="5.48876">
        <ele>1207.1</ele>
        <time>2021-09-07T10:19:47Z</time>
      </trkpt>
      <trkpt lat="44.49384" lon="5.48882">
        <ele>1206.9</ele>
        <time>2021-09-07T10:19:48Z</time>
      </trkpt>
      <trkpt lat="44.49381" lon="5.48891">
        <ele>1206.6</ele>
        <time>2021-09-07T10:19:49Z</time>
      </trkpt>
      <trkpt lat="44.49379" lon="5.48896">
        <ele>1206.5</ele>
        <time>2021-09-07T10:19:50Z</time>
      </trkpt>
      <trkpt lat="44.49378" lon="5.48898">
        <ele>1206.4</ele>
        <time>2021-09-07T10:19:51Z</time>
      </trkpt>
      <trkpt lat="44.49377" lon="5.489">
        <ele>1206.3</ele>
        <time>2021-09-07T10:19:52Z</time>
      </trkpt>
      <trkpt lat="44.49378" lon="5.48905">
        <ele>1206.1</ele>
        <time>2021-09-07T10:19:53Z</time>
      </trkpt>
      <trkpt lat="44.4938" lon="5.48907">
        <ele>1206.1</ele>
        <time>2021-09-07T10:19:54Z</time>
      </trkpt>
      <trkpt lat="44.49381" lon="5.48908">
        <ele>1206</ele>
        <time>2021-09-07T10:19:55Z</time>
      </trkpt>
      <trkpt lat="44.49382" lon="5.4891">
        <ele>1205.9</ele>
        <time>2021-09-07T10:19:56Z</time>
      </trkpt>
      <trkpt lat="44.49383" lon="5.48911">
        <ele>1205.9</ele>
        <time>2021-09-07T10:19:57Z</time>
      </trkpt>
      <trkpt lat="44.49384" lon="5.48913">
        <ele>1205.8</ele>
        <time>2021-09-07T10:19:58Z</time>
      </trkpt>
      <trkpt lat="44.49385" lon="5.48914">
        <ele>1205.8</ele>
        <time>2021-09-07T10:19:59Z</time>
      </trkpt>
      <trkpt lat="44.49386" lon="5.48916">
        <ele>1205.7</ele>
        <time>2021-09-07T10:20:00Z</time>
      </trkpt>
      <trkpt lat="44.49387" lon="5.48917">
        <ele>1205.6</ele>
        <time>2021-09-07T10:20:01Z</time>
      </trkpt>
      <trkpt lat="44.49388" lon="5.48918">
        <ele>1205.6</ele>
        <time>2021-09-07T10:20:02Z</time>
      </trkpt>
      <trkpt lat="44.49389" lon="5.48918">
        <ele>1205.5</ele>
        <time>2021-09-07T10:20:03Z</time>
      </trkpt>
      <trkpt lat="44.49391" lon="5.48919">
        <ele>1205.5</ele>
        <time>2021-09-07T10:20:04Z</time>
      </trkpt>
      <trkpt lat="44.49395" lon="5.4892">
        <ele>1205.3</ele>
        <time>2021-09-07T10:20:05Z</time>
      </trkpt>
      <trkpt lat="44.49397" lon="5.4892">
        <ele>1205.2</ele>
        <time>2021-09-07T10:20:06Z</time>
      </trkpt>
      <trkpt lat="44.49401" lon="5.48922">
        <ele>1205</ele>
        <time>2021-09-07T10:20:07Z</time>
      </trkpt>
      <trkpt lat="44.49403" lon="5.48923">
        <ele>1204.9</ele>
        <time>2021-09-07T10:20:08Z</time>
      </trkpt>
      <trkpt lat="44.49405" lon="5.48924">
        <ele>1204.8</ele>
        <time>2021-09-07T10:20:09Z</time>
      </trkpt>
      <trkpt lat="44.49407" lon="5.48925">
        <ele>1204.8</ele>
        <time>2021-09-07T10:20:10Z</time>
      </trkpt>
      <trkpt lat="44.49409" lon="5.48926">
        <ele>1204.7</ele>
        <time>2021-09-07T10:20:11Z</time>
      </trkpt>
      <trkpt lat="44.49416" lon="5.48931">
        <ele>1204.3</ele>
        <time>2021-09-07T10:20:12Z</time>
      </trkpt>
      <trkpt lat="44.49423" lon="5.48935">
        <ele>1204</ele>
        <time>2021-09-07T10:20:13Z</time>
      </trkpt>
      <trkpt lat="44.49432" lon="5.48942">
        <ele>1203.6</ele>
        <time>2021-09-07T10:20:14Z</time>
      </trkpt>
      <trkpt lat="44.49437" lon="5.48948">
        <ele>1203.3</ele>
        <time>2021-09-07T10:20:15Z</time>
      </trkpt>
      <trkpt lat="44.4944" lon="5.48951">
        <ele>1203.2</ele>
        <time>2021-09-07T10:20:16Z</time>
      </trkpt>
      <trkpt lat="44.49442" lon="5.48954">
        <ele>1203</ele>
        <time>2021-09-07T10:20:17Z</time>
      </trkpt>
      <trkpt lat="44.49445" lon="5.48957">
        <ele>1202.9</ele>
        <time>2021-09-07T10:20:18Z</time>
      </trkpt>
      <trkpt lat="44.49445" lon="5.48958">
        <ele>1202.8</ele>
        <time>2021-09-07T10:20:19Z</time>
      </trkpt>
      <trkpt lat="44.49446" lon="5.48959">
        <ele>1202.8</ele>
        <time>2021-09-07T10:20:20Z</time>
      </trkpt>
      <trkpt lat="44.49446" lon="5.48959">
        <ele>1202.8</ele>
        <time>2021-09-07T10:20:21Z</time>
      </trkpt>
      <trkpt lat="44.49447" lon="5.4896">
        <ele>1202.7</ele>
        <time>2021-09-07T10:20:22Z</time>
      </trkpt>
      <trkpt lat="44.49449" lon="5.48962">
        <ele>1202.6</ele>
        <time>2021-09-07T10:20:23Z</time>
      </trkpt>
      <trkpt lat="44.49451" lon="5.48966">
        <ele>1202.5</ele>
        <time>2021-09-07T10:20:24Z</time>
      </trkpt>
      <trkpt lat="44.49452" lon="5.48967">
        <ele>1202.4</ele>
        <time>2021-09-07T10:20:25Z</time>
      </trkpt>
      <trkpt lat="44.49454" lon="5.48969">
        <ele>1202.4</ele>
        <time>2021-09-07T10:20:26Z</time>
      </trkpt>
      <trkpt lat="44.49455" lon="5.48971">
        <ele>1202.3</ele>
        <time>2021-09-07T10:20:27Z</time>
      </trkpt>
      <trkpt lat="44.49457" lon="5.48972">
        <ele>1202.2</ele>
        <time>2021-09-07T10:20:28Z</time>
      </trkpt>
      <trkpt lat="44.49458" lon="5.48974">
        <ele>1202.1</ele>
        <time>2021-09-07T10:20:29Z</time>
      </trkpt>
      <trkpt lat="44.49464" lon="5.48979">
        <ele>1201.8</ele>
        <time>2021-09-07T10:20:30Z</time>
      </trkpt>
      <trkpt lat="44.49469" lon="5.48983">
        <ele>1201.6</ele>
        <time>2021-09-07T10:20:31Z</time>
      </trkpt>
      <trkpt lat="44.49476" lon="5.48988">
        <ele>1201.3</ele>
        <time>2021-09-07T10:20:32Z</time>
      </trkpt>
      <trkpt lat="44.49482" lon="5.48992">
        <ele>1201</ele>
        <time>2021-09-07T10:20:33Z</time>
      </trkpt>
      <trkpt lat="44.49488" lon="5.48995">
        <ele>1200.7</ele>
        <time>2021-09-07T10:20:34Z</time>
      </trkpt>
      <trkpt lat="44.49495" lon="5.49">
        <ele>1199.9</ele>
        <time>2021-09-07T10:20:35Z</time>
      </trkpt>
      <trkpt lat="44.495" lon="5.49005">
        <ele>1199.7</ele>
        <time>2021-09-07T10:20:36Z</time>
      </trkpt>
      <trkpt lat="44.49504" lon="5.49009">
        <ele>1199.4</ele>
        <time>2021-09-07T10:20:37Z</time>
      </trkpt>
      <trkpt lat="44.49507" lon="5.49012">
        <ele>1199.3</ele>
        <time>2021-09-07T10:20:38Z</time>
      </trkpt>
      <trkpt lat="44.49509" lon="5.49015">
        <ele>1199.2</ele>
        <time>2021-09-07T10:20:39Z</time>
      </trkpt>
      <trkpt lat="44.4951" lon="5.49017">
        <ele>1199.1</ele>
        <time>2021-09-07T10:20:40Z</time>
      </trkpt>
      <trkpt lat="44.49511" lon="5.4902">
        <ele>1199</ele>
        <time>2021-09-07T10:20:41Z</time>
      </trkpt>
      <trkpt lat="44.49512" lon="5.49022">
        <ele>1198.9</ele>
        <time>2021-09-07T10:20:42Z</time>
      </trkpt>
      <trkpt lat="44.49512" lon="5.49023">
        <ele>1198.9</ele>
        <time>2021-09-07T10:20:43Z</time>
      </trkpt>
      <trkpt lat="44.49512" lon="5.49024">
        <ele>1198.9</ele>
        <time>2021-09-07T10:20:44Z</time>
      </trkpt>
      <trkpt lat="44.49513" lon="5.49025">
        <ele>1198.8</ele>
        <time>2021-09-07T10:20:45Z</time>
      </trkpt>
      <trkpt lat="44.49513" lon="5.49025">
        <ele>1198.8</ele>
        <time>2021-09-07T10:20:46Z</time>
      </trkpt>
      <trkpt lat="44.49513" lon="5.49025">
        <ele>1198.8</ele>
        <time>2021-09-07T10:20:47Z</time>
      </trkpt>
      <trkpt lat="44.49512" lon="5.49025">
        <ele>1198.8</ele>
        <time>2021-09-07T10:20:48Z</time>
      </trkpt>
      <trkpt lat="44.49512" lon="5.49025">
        <ele>1198.8</ele>
        <time>2021-09-07T10:20:49Z</time>
      </trkpt>
      <trkpt lat="44.49512" lon="5.49025">
        <ele>1198.8</ele>
        <time>2021-09-07T10:20:50Z</time>
      </trkpt>
      <trkpt lat="44.49512" lon="5.49024">
        <ele>1198.7</ele>
        <time>2021-09-07T10:20:51Z</time>
      </trkpt>
      <trkpt lat="44.49511" lon="5.49023">
        <ele>1198.7</ele>
        <time>2021-09-07T10:20:52Z</time>
      </trkpt>
      <trkpt lat="44.49511" lon="5.49023">
        <ele>1198.7</ele>
        <time>2021-09-07T10:20:53Z</time>
      </trkpt>
      <trkpt lat="44.4951" lon="5.49022">
        <ele>1198.6</ele>
        <time>2021-09-07T10:20:54Z</time>
      </trkpt>
      <trkpt lat="44.4951" lon="5.49021">
        <ele>1198.6</ele>
        <time>2021-09-07T10:20:55Z</time>
      </trkpt>
      <trkpt lat="44.49511" lon="5.49021">
        <ele>1198.6</ele>
        <time>2021-09-07T10:20:56Z</time>
      </trkpt>
      <trkpt lat="44.49511" lon="5.49021">
        <ele>1198.6</ele>
        <time>2021-09-07T10:20:57Z</time>
      </trkpt>
      <trkpt lat="44.49511" lon="5.49021">
        <ele>1198.5</ele>
        <time>2021-09-07T10:20:58Z</time>
      </trkpt>
      <trkpt lat="44.49511" lon="5.4902">
        <ele>1198.5</ele>
        <time>2021-09-07T10:20:59Z</time>
      </trkpt>
      <trkpt lat="44.49511" lon="5.4902">
        <ele>1198.5</ele>
        <time>2021-09-07T10:21:00Z</time>
      </trkpt>
      <trkpt lat="44.49511" lon="5.4902">
        <ele>1198.5</ele>
        <time>2021-09-07T10:21:01Z</time>
      </trkpt>
      <trkpt lat="44.49512" lon="5.49019">
        <ele>1198.5</ele>
        <time>2021-09-07T10:21:02Z</time>
      </trkpt>
      <trkpt lat="44.49512" lon="5.49019">
        <ele>1198.5</ele>
        <time>2021-09-07T10:21:03Z</time>
      </trkpt>
      <trkpt lat="44.49512" lon="5.49019">
        <ele>1198.5</ele>
        <time>2021-09-07T10:21:04Z</time>
      </trkpt>
      <trkpt lat="44.49513" lon="5.49018">
        <ele>1198.4</ele>
        <time>2021-09-07T10:21:05Z</time>
      </trkpt>
      <trkpt lat="44.49513" lon="5.49018">
        <ele>1198.4</ele>
        <time>2021-09-07T10:21:06Z</time>
      </trkpt>
      <trkpt lat="44.49513" lon="5.49017">
        <ele>1198.4</ele>
        <time>2021-09-07T10:21:07Z</time>
      </trkpt>
      <trkpt lat="44.49513" lon="5.49016">
        <ele>1198.4</ele>
        <time>2021-09-07T10:21:08Z</time>
      </trkpt>
      <trkpt lat="44.49513" lon="5.49016">
        <ele>1198.3</ele>
        <time>2021-09-07T10:21:09Z</time>
      </trkpt>
      <trkpt lat="44.49514" lon="5.49015">
        <ele>1198.3</ele>
        <time>2021-09-07T10:21:10Z</time>
      </trkpt>
      <trkpt lat="44.49514" lon="5.49015">
        <ele>1198.3</ele>
        <time>2021-09-07T10:21:11Z</time>
      </trkpt>
      <trkpt lat="44.49513" lon="5.49015">
        <ele>1198.3</ele>
        <time>2021-09-07T10:21:12Z</time>
      </trkpt>
      <trkpt lat="44.49514" lon="5.49014">
        <ele>1198.2</ele>
        <time>2021-09-07T10:21:13Z</time>
      </trkpt>
      <trkpt lat="44.49514" lon="5.49014">
        <ele>1198.2</ele>
        <time>2021-09-07T10:21:14Z</time>
      </trkpt>
      <trkpt lat="44.49514" lon="5.49014">
        <ele>1198.2</ele>
        <time>2021-09-07T10:21:15Z</time>
      </trkpt>
      <trkpt lat="44.49514" lon="5.49014">
        <ele>1198.2</ele>
        <time>2021-09-07T10:21:16Z</time>
      </trkpt>
      <trkpt lat="44.49514" lon="5.49013">
        <ele>1198.2</ele>
        <time>2021-09-07T10:21:17Z</time>
      </trkpt>
      <trkpt lat="44.49513" lon="5.49013">
        <ele>1198.1</ele>
        <time>2021-09-07T10:21:18Z</time>
      </trkpt>
      <trkpt lat="44.49513" lon="5.49012">
        <ele>1198.1</ele>
        <time>2021-09-07T10:21:19Z</time>
      </trkpt>
      <trkpt lat="44.49513" lon="5.49012">
        <ele>1198.1</ele>
        <time>2021-09-07T10:21:20Z</time>
      </trkpt>
      <trkpt lat="44.49513" lon="5.49011">
        <ele>1198.1</ele>
        <time>2021-09-07T10:21:21Z</time>
      </trkpt>
      <trkpt lat="44.49514" lon="5.49011">
        <ele>1198.1</ele>
        <time>2021-09-07T10:21:22Z</time>
      </trkpt>
      <trkpt lat="44.49514" lon="5.4901">
        <ele>1198</ele>
        <time>2021-09-07T10:21:23Z</time>
      </trkpt>
      <trkpt lat="44.49514" lon="5.49009">
        <ele>1198</ele>
        <time>2021-09-07T10:21:24Z</time>
      </trkpt>
      <trkpt lat="44.49514" lon="5.49009">
        <ele>1198</ele>
        <time>2021-09-07T10:21:25Z</time>
      </trkpt>
      <trkpt lat="44.49514" lon="5.49009">
        <ele>1198</ele>
        <time>2021-09-07T10:21:26Z</time>
      </trkpt>
      <trkpt lat="44.49514" lon="5.49009">
        <ele>1198</ele>
        <time>2021-09-07T10:21:27Z</time>
      </trkpt>
      <trkpt lat="44.49514" lon="5.4901">
        <ele>1198</ele>
        <time>2021-09-07T10:21:28Z</time>
      </trkpt>
      <trkpt lat="44.49514" lon="5.4901">
        <ele>1198</ele>
        <time>2021-09-07T10:21:29Z</time>
      </trkpt>
      <trkpt lat="44.49514" lon="5.4901">
        <ele>1198</ele>
        <time>2021-09-07T10:21:30Z</time>
      </trkpt>
      <trkpt lat="44.49515" lon="5.4901">
        <ele>1197.9</ele>
        <time>2021-09-07T10:21:31Z</time>
      </trkpt>
      <trkpt lat="44.49515" lon="5.4901">
        <ele>1197.9</ele>
        <time>2021-09-07T10:21:32Z</time>
      </trkpt>
      <trkpt lat="44.49515" lon="5.49011">
        <ele>1197.9</ele>
        <time>2021-09-07T10:21:33Z</time>
      </trkpt>
      <trkpt lat="44.49515" lon="5.49011">
        <ele>1197.9</ele>
        <time>2021-09-07T10:21:34Z</time>
      </trkpt>
      <trkpt lat="44.49514" lon="5.49012">
        <ele>1197.8</ele>
        <time>2021-09-07T10:21:35Z</time>
      </trkpt>
      <trkpt lat="44.49514" lon="5.49012">
        <ele>1197.8</ele>
        <time>2021-09-07T10:21:36Z</time>
      </trkpt>
      <trkpt lat="44.49514" lon="5.49012">
        <ele>1197.8</ele>
        <time>2021-09-07T10:21:37Z</time>
      </trkpt>
      <trkpt lat="44.49514" lon="5.49013">
        <ele>1197.8</ele>
        <time>2021-09-07T10:21:38Z</time>
      </trkpt>
      <trkpt lat="44.49514" lon="5.49013">
        <ele>1197.8</ele>
        <time>2021-09-07T10:21:39Z</time>
      </trkpt>
      <trkpt lat="44.49514" lon="5.49013">
        <ele>1197.8</ele>
        <time>2021-09-07T10:21:40Z</time>
      </trkpt>
      <trkpt lat="44.49513" lon="5.49013">
        <ele>1197.8</ele>
        <time>2021-09-07T10:21:41Z</time>
      </trkpt>
      <trkpt lat="44.49513" lon="5.49013">
        <ele>1197.7</ele>
        <time>2021-09-07T10:21:42Z</time>
      </trkpt>
      <trkpt lat="44.49512" lon="5.49013">
        <ele>1197.7</ele>
        <time>2021-09-07T10:21:43Z</time>
      </trkpt>
      <trkpt lat="44.49512" lon="5.49013">
        <ele>1197.7</ele>
        <time>2021-09-07T10:21:44Z</time>
      </trkpt>
      <trkpt lat="44.49511" lon="5.49013">
        <ele>1197.7</ele>
        <time>2021-09-07T10:21:45Z</time>
      </trkpt>
      <trkpt lat="44.49511" lon="5.49014">
        <ele>1197.7</ele>
        <time>2021-09-07T10:21:46Z</time>
      </trkpt>
      <trkpt lat="44.4951" lon="5.49014">
        <ele>1197.6</ele>
        <time>2021-09-07T10:21:47Z</time>
      </trkpt>
      <trkpt lat="44.4951" lon="5.49015">
        <ele>1197.6</ele>
        <time>2021-09-07T10:21:48Z</time>
      </trkpt>
      <trkpt lat="44.49509" lon="5.49015">
        <ele>1197.6</ele>
        <time>2021-09-07T10:21:49Z</time>
      </trkpt>
      <trkpt lat="44.49508" lon="5.49016">
        <ele>1197.5</ele>
        <time>2021-09-07T10:21:50Z</time>
      </trkpt>
      <trkpt lat="44.49509" lon="5.49016">
        <ele>1197.5</ele>
        <time>2021-09-07T10:21:51Z</time>
      </trkpt>
      <trkpt lat="44.49509" lon="5.49015">
        <ele>1197.5</ele>
        <time>2021-09-07T10:21:52Z</time>
      </trkpt>
      <trkpt lat="44.49509" lon="5.49015">
        <ele>1197.5</ele>
        <time>2021-09-07T10:21:53Z</time>
      </trkpt>
      <trkpt lat="44.49509" lon="5.49015">
        <ele>1197.5</ele>
        <time>2021-09-07T10:21:54Z</time>
      </trkpt>
      <trkpt lat="44.49509" lon="5.49016">
        <ele>1197.4</ele>
        <time>2021-09-07T10:21:55Z</time>
      </trkpt>
      <trkpt lat="44.4951" lon="5.49017">
        <ele>1197.4</ele>
        <time>2021-09-07T10:21:56Z</time>
      </trkpt>
      <trkpt lat="44.4951" lon="5.49017">
        <ele>1197.4</ele>
        <time>2021-09-07T10:21:57Z</time>
      </trkpt>
      <trkpt lat="44.49511" lon="5.49019">
        <ele>1197.3</ele>
        <time>2021-09-07T10:21:58Z</time>
      </trkpt>
      <trkpt lat="44.49512" lon="5.49019">
        <ele>1197.3</ele>
        <time>2021-09-07T10:21:59Z</time>
      </trkpt>
      <trkpt lat="44.49512" lon="5.49019">
        <ele>1197.3</ele>
        <time>2021-09-07T10:22:00Z</time>
      </trkpt>
      <trkpt lat="44.49514" lon="5.4902">
        <ele>1197.2</ele>
        <time>2021-09-07T10:22:01Z</time>
      </trkpt>
      <trkpt lat="44.49515" lon="5.4902">
        <ele>1197.1</ele>
        <time>2021-09-07T10:22:02Z</time>
      </trkpt>
      <trkpt lat="44.49515" lon="5.4902">
        <ele>1197.1</ele>
        <time>2021-09-07T10:22:03Z</time>
      </trkpt>
      <trkpt lat="44.49515" lon="5.4902">
        <ele>1197.1</ele>
        <time>2021-09-07T10:22:04Z</time>
      </trkpt>
      <trkpt lat="44.49516" lon="5.4902">
        <ele>1197.1</ele>
        <time>2021-09-07T10:22:05Z</time>
      </trkpt>
      <trkpt lat="44.49516" lon="5.4902">
        <ele>1197.1</ele>
        <time>2021-09-07T10:22:06Z</time>
      </trkpt>
      <trkpt lat="44.49517" lon="5.4902">
        <ele>1197</ele>
        <time>2021-09-07T10:22:07Z</time>
      </trkpt>
      <trkpt lat="44.49518" lon="5.49019">
        <ele>1197</ele>
        <time>2021-09-07T10:22:08Z</time>
      </trkpt>
      <trkpt lat="44.49518" lon="5.49018">
        <ele>1197</ele>
        <time>2021-09-07T10:22:09Z</time>
      </trkpt>
      <trkpt lat="44.49519" lon="5.49017">
        <ele>1196.9</ele>
        <time>2021-09-07T10:22:10Z</time>
      </trkpt>
      <trkpt lat="44.49519" lon="5.49016">
        <ele>1196.9</ele>
        <time>2021-09-07T10:22:11Z</time>
      </trkpt>
      <trkpt lat="44.4952" lon="5.49014">
        <ele>1196.8</ele>
        <time>2021-09-07T10:22:12Z</time>
      </trkpt>
      <trkpt lat="44.49521" lon="5.49011">
        <ele>1196.7</ele>
        <time>2021-09-07T10:22:13Z</time>
      </trkpt>
      <trkpt lat="44.49522" lon="5.4901">
        <ele>1196.7</ele>
        <time>2021-09-07T10:22:14Z</time>
      </trkpt>
      <trkpt lat="44.49522" lon="5.49008">
        <ele>1196.6</ele>
        <time>2021-09-07T10:22:15Z</time>
      </trkpt>
      <trkpt lat="44.49523" lon="5.49008">
        <ele>1196.6</ele>
        <time>2021-09-07T10:22:16Z</time>
      </trkpt>
      <trkpt lat="44.49524" lon="5.49007">
        <ele>1196.5</ele>
        <time>2021-09-07T10:22:17Z</time>
      </trkpt>
      <trkpt lat="44.49527" lon="5.49008">
        <ele>1195.5</ele>
        <time>2021-09-07T10:22:18Z</time>
      </trkpt>
      <trkpt lat="44.4953" lon="5.49009">
        <ele>1195.3</ele>
        <time>2021-09-07T10:22:19Z</time>
      </trkpt>
      <trkpt lat="44.49535" lon="5.49008">
        <ele>1195</ele>
        <time>2021-09-07T10:22:20Z</time>
      </trkpt>
      <trkpt lat="44.49543" lon="5.4901">
        <ele>1194.5</ele>
        <time>2021-09-07T10:22:21Z</time>
      </trkpt>
      <trkpt lat="44.49547" lon="5.49013">
        <ele>1194.3</ele>
        <time>2021-09-07T10:22:22Z</time>
      </trkpt>
      <trkpt lat="44.4955" lon="5.49015">
        <ele>1194.1</ele>
        <time>2021-09-07T10:22:23Z</time>
      </trkpt>
      <trkpt lat="44.49556" lon="5.49025">
        <ele>1193.5</ele>
        <time>2021-09-07T10:22:24Z</time>
      </trkpt>
      <trkpt lat="44.49559" lon="5.4903">
        <ele>1193.2</ele>
        <time>2021-09-07T10:22:25Z</time>
      </trkpt>
      <trkpt lat="44.49559" lon="5.49037">
        <ele>1192.9</ele>
        <time>2021-09-07T10:22:26Z</time>
      </trkpt>
      <trkpt lat="44.49558" lon="5.49045">
        <ele>1192.6</ele>
        <time>2021-09-07T10:22:27Z</time>
      </trkpt>
      <trkpt lat="44.49555" lon="5.49057">
        <ele>1192.1</ele>
        <time>2021-09-07T10:22:28Z</time>
      </trkpt>
      <trkpt lat="44.49552" lon="5.49068">
        <ele>1191.6</ele>
        <time>2021-09-07T10:22:29Z</time>
      </trkpt>
      <trkpt lat="44.49549" lon="5.49079">
        <ele>1191.1</ele>
        <time>2021-09-07T10:22:30Z</time>
      </trkpt>
      <trkpt lat="44.49545" lon="5.4909">
        <ele>1190.6</ele>
        <time>2021-09-07T10:22:31Z</time>
      </trkpt>
      <trkpt lat="44.49542" lon="5.49101">
        <ele>1190.1</ele>
        <time>2021-09-07T10:22:32Z</time>
      </trkpt>
      <trkpt lat="44.49539" lon="5.49112">
        <ele>1189.6</ele>
        <time>2021-09-07T10:22:33Z</time>
      </trkpt>
      <trkpt lat="44.49536" lon="5.49122">
        <ele>1189.1</ele>
        <time>2021-09-07T10:22:34Z</time>
      </trkpt>
      <trkpt lat="44.49532" lon="5.49132">
        <ele>1188.6</ele>
        <time>2021-09-07T10:22:35Z</time>
      </trkpt>
      <trkpt lat="44.49529" lon="5.49142">
        <ele>1188.2</ele>
        <time>2021-09-07T10:22:36Z</time>
      </trkpt>
      <trkpt lat="44.49527" lon="5.49151">
        <ele>1187.8</ele>
        <time>2021-09-07T10:22:37Z</time>
      </trkpt>
      <trkpt lat="44.49524" lon="5.4916">
        <ele>1187.4</ele>
        <time>2021-09-07T10:22:38Z</time>
      </trkpt>
      <trkpt lat="44.49523" lon="5.49165">
        <ele>1187.1</ele>
        <time>2021-09-07T10:22:39Z</time>
      </trkpt>
      <trkpt lat="44.49522" lon="5.4917">
        <ele>1186.9</ele>
        <time>2021-09-07T10:22:40Z</time>
      </trkpt>
      <trkpt lat="44.49521" lon="5.49175">
        <ele>1186.7</ele>
        <time>2021-09-07T10:22:41Z</time>
      </trkpt>
      <trkpt lat="44.49519" lon="5.49179">
        <ele>1186.5</ele>
        <time>2021-09-07T10:22:42Z</time>
      </trkpt>
      <trkpt lat="44.49517" lon="5.49183">
        <ele>1186.3</ele>
        <time>2021-09-07T10:22:43Z</time>
      </trkpt>
      <trkpt lat="44.49515" lon="5.49186">
        <ele>1186.1</ele>
        <time>2021-09-07T10:22:44Z</time>
      </trkpt>
      <trkpt lat="44.49513" lon="5.49188">
        <ele>1186</ele>
        <time>2021-09-07T10:22:45Z</time>
      </trkpt>
      <trkpt lat="44.49511" lon="5.49189">
        <ele>1185.9</ele>
        <time>2021-09-07T10:22:46Z</time>
      </trkpt>
      <trkpt lat="44.4951" lon="5.4919">
        <ele>1185.8</ele>
        <time>2021-09-07T10:22:47Z</time>
      </trkpt>
      <trkpt lat="44.49509" lon="5.49188">
        <ele>1185.7</ele>
        <time>2021-09-07T10:22:48Z</time>
      </trkpt>
      <trkpt lat="44.49507" lon="5.49185">
        <ele>1185.5</ele>
        <time>2021-09-07T10:22:49Z</time>
      </trkpt>
      <trkpt lat="44.49507" lon="5.49185">
        <ele>1185.5</ele>
        <time>2021-09-07T10:22:50Z</time>
      </trkpt>
      <trkpt lat="44.49506" lon="5.49185">
        <ele>1185.5</ele>
        <time>2021-09-07T10:22:51Z</time>
      </trkpt>
      <trkpt lat="44.49506" lon="5.49185">
        <ele>1185.5</ele>
        <time>2021-09-07T10:22:52Z</time>
      </trkpt>
      <trkpt lat="44.49506" lon="5.49185">
        <ele>1185.4</ele>
        <time>2021-09-07T10:22:53Z</time>
      </trkpt>
      <trkpt lat="44.49506" lon="5.49184">
        <ele>1185.4</ele>
        <time>2021-09-07T10:22:54Z</time>
      </trkpt>
      <trkpt lat="44.49506" lon="5.49184">
        <ele>1185.4</ele>
        <time>2021-09-07T10:22:55Z</time>
      </trkpt>
      <trkpt lat="44.49506" lon="5.49184">
        <ele>1185.4</ele>
        <time>2021-09-07T10:22:56Z</time>
      </trkpt>
      <trkpt lat="44.49506" lon="5.49185">
        <ele>1185.4</ele>
        <time>2021-09-07T10:22:57Z</time>
      </trkpt>
      <trkpt lat="44.49506" lon="5.49186">
        <ele>1185.3</ele>
        <time>2021-09-07T10:22:58Z</time>
      </trkpt>
      <trkpt lat="44.49506" lon="5.49187">
        <ele>1185.3</ele>
        <time>2021-09-07T10:22:59Z</time>
      </trkpt>
      <trkpt lat="44.49507" lon="5.49189">
        <ele>1185.2</ele>
        <time>2021-09-07T10:23:00Z</time>
      </trkpt>
      <trkpt lat="44.4951" lon="5.49199">
        <ele>1184.7</ele>
        <time>2021-09-07T10:23:01Z</time>
      </trkpt>
      <trkpt lat="44.49514" lon="5.49211">
        <ele>1184.2</ele>
        <time>2021-09-07T10:23:02Z</time>
      </trkpt>
      <trkpt lat="44.49517" lon="5.49222">
        <ele>1183.7</ele>
        <time>2021-09-07T10:23:03Z</time>
      </trkpt>
      <trkpt lat="44.49519" lon="5.49233">
        <ele>1183.2</ele>
        <time>2021-09-07T10:23:04Z</time>
      </trkpt>
      <trkpt lat="44.4952" lon="5.49244">
        <ele>1182.7</ele>
        <time>2021-09-07T10:23:05Z</time>
      </trkpt>
      <trkpt lat="44.4952" lon="5.49255">
        <ele>1182.3</ele>
        <time>2021-09-07T10:23:06Z</time>
      </trkpt>
      <trkpt lat="44.4952" lon="5.49266">
        <ele>1181.8</ele>
        <time>2021-09-07T10:23:07Z</time>
      </trkpt>
      <trkpt lat="44.4952" lon="5.49276">
        <ele>1181.4</ele>
        <time>2021-09-07T10:23:08Z</time>
      </trkpt>
      <trkpt lat="44.4952" lon="5.49286">
        <ele>1181</ele>
        <time>2021-09-07T10:23:09Z</time>
      </trkpt>
      <trkpt lat="44.49519" lon="5.49295">
        <ele>1180.6</ele>
        <time>2021-09-07T10:23:10Z</time>
      </trkpt>
      <trkpt lat="44.49517" lon="5.49305">
        <ele>1180.2</ele>
        <time>2021-09-07T10:23:11Z</time>
      </trkpt>
      <trkpt lat="44.49514" lon="5.49315">
        <ele>1180.1</ele>
        <time>2021-09-07T10:23:12Z</time>
      </trkpt>
      <trkpt lat="44.49513" lon="5.49322">
        <ele>1178.7</ele>
        <time>2021-09-07T10:23:13Z</time>
      </trkpt>
      <trkpt lat="44.49513" lon="5.49327">
        <ele>1178.1</ele>
        <time>2021-09-07T10:23:14Z</time>
      </trkpt>
      <trkpt lat="44.49513" lon="5.49332">
        <ele>1177.6</ele>
        <time>2021-09-07T10:23:15Z</time>
      </trkpt>
      <trkpt lat="44.49513" lon="5.49335">
        <ele>1177.1</ele>
        <time>2021-09-07T10:23:16Z</time>
      </trkpt>
      <trkpt lat="44.49515" lon="5.49335">
        <ele>1177</ele>
        <time>2021-09-07T10:23:17Z</time>
      </trkpt>
      <trkpt lat="44.49517" lon="5.49334">
        <ele>1176.8</ele>
        <time>2021-09-07T10:23:18Z</time>
      </trkpt>
      <trkpt lat="44.49519" lon="5.49333">
        <ele>1176.7</ele>
        <time>2021-09-07T10:23:19Z</time>
      </trkpt>
      <trkpt lat="44.49524" lon="5.49334">
        <ele>1176.3</ele>
        <time>2021-09-07T10:23:20Z</time>
      </trkpt>
      <trkpt lat="44.49527" lon="5.49328">
        <ele>1176</ele>
        <time>2021-09-07T10:23:21Z</time>
      </trkpt>
      <trkpt lat="44.4953" lon="5.49322">
        <ele>1175.6</ele>
        <time>2021-09-07T10:23:22Z</time>
      </trkpt>
      <trkpt lat="44.49535" lon="5.49315">
        <ele>1175.1</ele>
        <time>2021-09-07T10:23:23Z</time>
      </trkpt>
      <trkpt lat="44.4954" lon="5.4931">
        <ele>1174.7</ele>
        <time>2021-09-07T10:23:24Z</time>
      </trkpt>
      <trkpt lat="44.49546" lon="5.49306">
        <ele>1174.3</ele>
        <time>2021-09-07T10:23:25Z</time>
      </trkpt>
      <trkpt lat="44.49552" lon="5.49302">
        <ele>1173.8</ele>
        <time>2021-09-07T10:23:26Z</time>
      </trkpt>
      <trkpt lat="44.49558" lon="5.49298">
        <ele>1173.4</ele>
        <time>2021-09-07T10:23:27Z</time>
      </trkpt>
      <trkpt lat="44.49564" lon="5.49295">
        <ele>1172.9</ele>
        <time>2021-09-07T10:23:28Z</time>
      </trkpt>
      <trkpt lat="44.49569" lon="5.49291">
        <ele>1172.6</ele>
        <time>2021-09-07T10:23:29Z</time>
      </trkpt>
      <trkpt lat="44.49573" lon="5.49286">
        <ele>1172.2</ele>
        <time>2021-09-07T10:23:30Z</time>
      </trkpt>
      <trkpt lat="44.49579" lon="5.49281">
        <ele>1171.7</ele>
        <time>2021-09-07T10:23:31Z</time>
      </trkpt>
      <trkpt lat="44.49579" lon="5.49276">
        <ele>1171.5</ele>
        <time>2021-09-07T10:23:32Z</time>
      </trkpt>
      <trkpt lat="44.4958" lon="5.49272">
        <ele>1171.2</ele>
        <time>2021-09-07T10:23:33Z</time>
      </trkpt>
      <trkpt lat="44.4958" lon="5.49267">
        <ele>1171</ele>
        <time>2021-09-07T10:23:34Z</time>
      </trkpt>
      <trkpt lat="44.4958" lon="5.49258">
        <ele>1170.6</ele>
        <time>2021-09-07T10:23:35Z</time>
      </trkpt>
      <trkpt lat="44.49579" lon="5.49254">
        <ele>1170.4</ele>
        <time>2021-09-07T10:23:36Z</time>
      </trkpt>
      <trkpt lat="44.49578" lon="5.4925">
        <ele>1170.2</ele>
        <time>2021-09-07T10:23:37Z</time>
      </trkpt>
      <trkpt lat="44.49577" lon="5.49242">
        <ele>1169.8</ele>
        <time>2021-09-07T10:23:38Z</time>
      </trkpt>
      <trkpt lat="44.49575" lon="5.49233">
        <ele>1169.3</ele>
        <time>2021-09-07T10:23:39Z</time>
      </trkpt>
      <trkpt lat="44.49574" lon="5.49229">
        <ele>1169.1</ele>
        <time>2021-09-07T10:23:40Z</time>
      </trkpt>
      <trkpt lat="44.49573" lon="5.49224">
        <ele>1168.9</ele>
        <time>2021-09-07T10:23:41Z</time>
      </trkpt>
      <trkpt lat="44.49572" lon="5.49216">
        <ele>1168.5</ele>
        <time>2021-09-07T10:23:42Z</time>
      </trkpt>
      <trkpt lat="44.49574" lon="5.49209">
        <ele>1168.1</ele>
        <time>2021-09-07T10:23:43Z</time>
      </trkpt>
      <trkpt lat="44.49576" lon="5.49201">
        <ele>1167.7</ele>
        <time>2021-09-07T10:23:44Z</time>
      </trkpt>
      <trkpt lat="44.4958" lon="5.49195">
        <ele>1167.3</ele>
        <time>2021-09-07T10:23:45Z</time>
      </trkpt>
      <trkpt lat="44.49583" lon="5.49189">
        <ele>1166.9</ele>
        <time>2021-09-07T10:23:46Z</time>
      </trkpt>
      <trkpt lat="44.49588" lon="5.49183">
        <ele>1166.5</ele>
        <time>2021-09-07T10:23:47Z</time>
      </trkpt>
      <trkpt lat="44.49592" lon="5.49178">
        <ele>1166.1</ele>
        <time>2021-09-07T10:23:48Z</time>
      </trkpt>
      <trkpt lat="44.49596" lon="5.49173">
        <ele>1165.8</ele>
        <time>2021-09-07T10:23:49Z</time>
      </trkpt>
      <trkpt lat="44.496" lon="5.49169">
        <ele>1165.3</ele>
        <time>2021-09-07T10:23:50Z</time>
      </trkpt>
      <trkpt lat="44.49604" lon="5.49164">
        <ele>1164.8</ele>
        <time>2021-09-07T10:23:51Z</time>
      </trkpt>
      <trkpt lat="44.49608" lon="5.49159">
        <ele>1164.2</ele>
        <time>2021-09-07T10:23:52Z</time>
      </trkpt>
      <trkpt lat="44.49613" lon="5.49153">
        <ele>1163.5</ele>
        <time>2021-09-07T10:23:53Z</time>
      </trkpt>
      <trkpt lat="44.49617" lon="5.49147">
        <ele>1162.8</ele>
        <time>2021-09-07T10:23:54Z</time>
      </trkpt>
      <trkpt lat="44.49621" lon="5.49141">
        <ele>1162.2</ele>
        <time>2021-09-07T10:23:55Z</time>
      </trkpt>
      <trkpt lat="44.49625" lon="5.49135">
        <ele>1161.6</ele>
        <time>2021-09-07T10:23:56Z</time>
      </trkpt>
      <trkpt lat="44.49628" lon="5.49131">
        <ele>1161.1</ele>
        <time>2021-09-07T10:23:57Z</time>
      </trkpt>
      <trkpt lat="44.49631" lon="5.49127">
        <ele>1160.7</ele>
        <time>2021-09-07T10:23:58Z</time>
      </trkpt>
      <trkpt lat="44.49633" lon="5.49123">
        <ele>1160.3</ele>
        <time>2021-09-07T10:23:59Z</time>
      </trkpt>
      <trkpt lat="44.49636" lon="5.49119">
        <ele>1159.8</ele>
        <time>2021-09-07T10:24:00Z</time>
      </trkpt>
      <trkpt lat="44.49638" lon="5.49117">
        <ele>1159.6</ele>
        <time>2021-09-07T10:24:01Z</time>
      </trkpt>
      <trkpt lat="44.4964" lon="5.49114">
        <ele>1159.3</ele>
        <time>2021-09-07T10:24:02Z</time>
      </trkpt>
      <trkpt lat="44.49641" lon="5.49112">
        <ele>1159.1</ele>
        <time>2021-09-07T10:24:03Z</time>
      </trkpt>
      <trkpt lat="44.49641" lon="5.49112">
        <ele>1159.1</ele>
        <time>2021-09-07T10:24:04Z</time>
      </trkpt>
      <trkpt lat="44.49641" lon="5.49112">
        <ele>1159.1</ele>
        <time>2021-09-07T10:24:05Z</time>
      </trkpt>
      <trkpt lat="44.49641" lon="5.49112">
        <ele>1159.1</ele>
        <time>2021-09-07T10:24:06Z</time>
      </trkpt>
      <trkpt lat="44.49641" lon="5.49112">
        <ele>1159.1</ele>
        <time>2021-09-07T10:24:07Z</time>
      </trkpt>
      <trkpt lat="44.49641" lon="5.49112">
        <ele>1159.1</ele>
        <time>2021-09-07T10:24:08Z</time>
      </trkpt>
      <trkpt lat="44.49641" lon="5.49113">
        <ele>1159</ele>
        <time>2021-09-07T10:24:09Z</time>
      </trkpt>
      <trkpt lat="44.49641" lon="5.49113">
        <ele>1159</ele>
        <time>2021-09-07T10:24:10Z</time>
      </trkpt>
      <trkpt lat="44.49641" lon="5.49113">
        <ele>1159</ele>
        <time>2021-09-07T10:24:11Z</time>
      </trkpt>
      <trkpt lat="44.49641" lon="5.49113">
        <ele>1159</ele>
        <time>2021-09-07T10:24:12Z</time>
      </trkpt>
      <trkpt lat="44.4964" lon="5.49113">
        <ele>1159</ele>
        <time>2021-09-07T10:24:13Z</time>
      </trkpt>
      <trkpt lat="44.4964" lon="5.49113">
        <ele>1159</ele>
        <time>2021-09-07T10:24:14Z</time>
      </trkpt>
      <trkpt lat="44.4964" lon="5.49113">
        <ele>1159</ele>
        <time>2021-09-07T10:24:15Z</time>
      </trkpt>
      <trkpt lat="44.4964" lon="5.49113">
        <ele>1159</ele>
        <time>2021-09-07T10:24:16Z</time>
      </trkpt>
      <trkpt lat="44.4964" lon="5.49113">
        <ele>1159</ele>
        <time>2021-09-07T10:24:17Z</time>
      </trkpt>
      <trkpt lat="44.4964" lon="5.49113">
        <ele>1159</ele>
        <time>2021-09-07T10:24:18Z</time>
      </trkpt>
      <trkpt lat="44.4964" lon="5.49113">
        <ele>1159</ele>
        <time>2021-09-07T10:24:19Z</time>
      </trkpt>
      <trkpt lat="44.4964" lon="5.49113">
        <ele>1158.9</ele>
        <time>2021-09-07T10:24:20Z</time>
      </trkpt>
      <trkpt lat="44.4964" lon="5.49113">
        <ele>1158.9</ele>
        <time>2021-09-07T10:24:21Z</time>
      </trkpt>
      <trkpt lat="44.4964" lon="5.49113">
        <ele>1158.9</ele>
        <time>2021-09-07T10:24:22Z</time>
      </trkpt>
      <trkpt lat="44.4964" lon="5.49114">
        <ele>1158.9</ele>
        <time>2021-09-07T10:24:23Z</time>
      </trkpt>
      <trkpt lat="44.4964" lon="5.49114">
        <ele>1158.9</ele>
        <time>2021-09-07T10:24:24Z</time>
      </trkpt>
      <trkpt lat="44.4964" lon="5.49114">
        <ele>1158.9</ele>
        <time>2021-09-07T10:24:25Z</time>
      </trkpt>
      <trkpt lat="44.4964" lon="5.49114">
        <ele>1158.9</ele>
        <time>2021-09-07T10:24:26Z</time>
      </trkpt>
      <trkpt lat="44.4964" lon="5.49114">
        <ele>1158.9</ele>
        <time>2021-09-07T10:24:27Z</time>
      </trkpt>
      <trkpt lat="44.4964" lon="5.49114">
        <ele>1158.9</ele>
        <time>2021-09-07T10:24:28Z</time>
      </trkpt>
      <trkpt lat="44.4964" lon="5.49114">
        <ele>1158.9</ele>
        <time>2021-09-07T10:24:29Z</time>
      </trkpt>
      <trkpt lat="44.4964" lon="5.49114">
        <ele>1158.8</ele>
        <time>2021-09-07T10:24:30Z</time>
      </trkpt>
      <trkpt lat="44.4964" lon="5.49114">
        <ele>1158.8</ele>
        <time>2021-09-07T10:24:31Z</time>
      </trkpt>
      <trkpt lat="44.49639" lon="5.49114">
        <ele>1158.8</ele>
        <time>2021-09-07T10:24:32Z</time>
      </trkpt>
      <trkpt lat="44.49639" lon="5.49114">
        <ele>1158.8</ele>
        <time>2021-09-07T10:24:33Z</time>
      </trkpt>
      <trkpt lat="44.49639" lon="5.49114">
        <ele>1158.8</ele>
        <time>2021-09-07T10:24:34Z</time>
      </trkpt>
      <trkpt lat="44.49639" lon="5.49114">
        <ele>1158.8</ele>
        <time>2021-09-07T10:24:35Z</time>
      </trkpt>
      <trkpt lat="44.49639" lon="5.49114">
        <ele>1158.8</ele>
        <time>2021-09-07T10:24:36Z</time>
      </trkpt>
      <trkpt lat="44.49639" lon="5.49115">
        <ele>1158.8</ele>
        <time>2021-09-07T10:24:37Z</time>
      </trkpt>
      <trkpt lat="44.49639" lon="5.49115">
        <ele>1158.8</ele>
        <time>2021-09-07T10:24:38Z</time>
      </trkpt>
      <trkpt lat="44.49639" lon="5.49115">
        <ele>1158.8</ele>
        <time>2021-09-07T10:24:39Z</time>
      </trkpt>
      <trkpt lat="44.49639" lon="5.49115">
        <ele>1158.8</ele>
        <time>2021-09-07T10:24:40Z</time>
      </trkpt>
      <trkpt lat="44.49639" lon="5.49115">
        <ele>1158.7</ele>
        <time>2021-09-07T10:24:41Z</time>
      </trkpt>
      <trkpt lat="44.49639" lon="5.49115">
        <ele>1158.7</ele>
        <time>2021-09-07T10:24:42Z</time>
      </trkpt>
      <trkpt lat="44.49639" lon="5.49115">
        <ele>1158.7</ele>
        <time>2021-09-07T10:24:43Z</time>
      </trkpt>
      <trkpt lat="44.49639" lon="5.49115">
        <ele>1158.7</ele>
        <time>2021-09-07T10:24:44Z</time>
      </trkpt>
      <trkpt lat="44.49639" lon="5.49115">
        <ele>1158.7</ele>
        <time>2021-09-07T10:24:45Z</time>
      </trkpt>
      <trkpt lat="44.49639" lon="5.49115">
        <ele>1158.7</ele>
        <time>2021-09-07T10:24:46Z</time>
      </trkpt>
      <trkpt lat="44.49639" lon="5.49115">
        <ele>1158.7</ele>
        <time>2021-09-07T10:24:47Z</time>
      </trkpt>
      <trkpt lat="44.49639" lon="5.49115">
        <ele>1158.7</ele>
        <time>2021-09-07T10:24:48Z</time>
      </trkpt>
      <trkpt lat="44.49639" lon="5.49115">
        <ele>1158.7</ele>
        <time>2021-09-07T10:24:49Z</time>
      </trkpt>
      <trkpt lat="44.49639" lon="5.49115">
        <ele>1158.7</ele>
        <time>2021-09-07T10:24:50Z</time>
      </trkpt>
      <trkpt lat="44.49638" lon="5.49115">
        <ele>1158.7</ele>
        <time>2021-09-07T10:24:51Z</time>
      </trkpt>
      <trkpt lat="44.49638" lon="5.49116">
        <ele>1158.6</ele>
        <time>2021-09-07T10:24:52Z</time>
      </trkpt>
      <trkpt lat="44.49638" lon="5.49116">
        <ele>1158.6</ele>
        <time>2021-09-07T10:24:53Z</time>
      </trkpt>
      <trkpt lat="44.49638" lon="5.49116">
        <ele>1158.6</ele>
        <time>2021-09-07T10:24:54Z</time>
      </trkpt>
      <trkpt lat="44.49638" lon="5.49116">
        <ele>1158.6</ele>
        <time>2021-09-07T10:24:55Z</time>
      </trkpt>
      <trkpt lat="44.49638" lon="5.49116">
        <ele>1158.6</ele>
        <time>2021-09-07T10:24:56Z</time>
      </trkpt>
      <trkpt lat="44.49638" lon="5.49116">
        <ele>1158.6</ele>
        <time>2021-09-07T10:24:57Z</time>
      </trkpt>
      <trkpt lat="44.49638" lon="5.49116">
        <ele>1158.6</ele>
        <time>2021-09-07T10:24:58Z</time>
      </trkpt>
      <trkpt lat="44.49638" lon="5.49116">
        <ele>1158.6</ele>
        <time>2021-09-07T10:24:59Z</time>
      </trkpt>
      <trkpt lat="44.49634" lon="5.49118">
        <ele>1158.1</ele>
        <time>2021-09-07T10:25:00Z</time>
      </trkpt>
      <trkpt lat="44.49633" lon="5.49119">
        <ele>1158</ele>
        <time>2021-09-07T10:25:01Z</time>
      </trkpt>
      <trkpt lat="44.49632" lon="5.49119">
        <ele>1157.9</ele>
        <time>2021-09-07T10:25:02Z</time>
      </trkpt>
      <trkpt lat="44.49631" lon="5.49119">
        <ele>1157.8</ele>
        <time>2021-09-07T10:25:03Z</time>
      </trkpt>
      <trkpt lat="44.49631" lon="5.49119">
        <ele>1157.8</ele>
        <time>2021-09-07T10:25:04Z</time>
      </trkpt>
      <trkpt lat="44.49631" lon="5.49119">
        <ele>1157.8</ele>
        <time>2021-09-07T10:25:05Z</time>
      </trkpt>
      <trkpt lat="44.49631" lon="5.49119">
        <ele>1157.8</ele>
        <time>2021-09-07T10:25:06Z</time>
      </trkpt>
      <trkpt lat="44.49631" lon="5.49119">
        <ele>1157.8</ele>
        <time>2021-09-07T10:25:07Z</time>
      </trkpt>
      <trkpt lat="44.49631" lon="5.49119">
        <ele>1157.8</ele>
        <time>2021-09-07T10:25:08Z</time>
      </trkpt>
      <trkpt lat="44.49631" lon="5.49119">
        <ele>1157.8</ele>
        <time>2021-09-07T10:25:09Z</time>
      </trkpt>
      <trkpt lat="44.49631" lon="5.49119">
        <ele>1157.8</ele>
        <time>2021-09-07T10:25:10Z</time>
      </trkpt>
      <trkpt lat="44.49631" lon="5.49119">
        <ele>1157.8</ele>
        <time>2021-09-07T10:25:11Z</time>
      </trkpt>
      <trkpt lat="44.49631" lon="5.49119">
        <ele>1157.8</ele>
        <time>2021-09-07T10:25:12Z</time>
      </trkpt>
      <trkpt lat="44.49631" lon="5.49119">
        <ele>1157.8</ele>
        <time>2021-09-07T10:25:13Z</time>
      </trkpt>
      <trkpt lat="44.49631" lon="5.49119">
        <ele>1157.8</ele>
        <time>2021-09-07T10:25:14Z</time>
      </trkpt>
      <trkpt lat="44.49631" lon="5.49119">
        <ele>1157.8</ele>
        <time>2021-09-07T10:25:15Z</time>
      </trkpt>
      <trkpt lat="44.49631" lon="5.49119">
        <ele>1157.8</ele>
        <time>2021-09-07T10:25:16Z</time>
      </trkpt>
      <trkpt lat="44.49631" lon="5.49119">
        <ele>1157.8</ele>
        <time>2021-09-07T10:25:17Z</time>
      </trkpt>
      <trkpt lat="44.49631" lon="5.49119">
        <ele>1157.8</ele>
        <time>2021-09-07T10:25:18Z</time>
      </trkpt>
      <trkpt lat="44.49631" lon="5.49119">
        <ele>1157.8</ele>
        <time>2021-09-07T10:25:19Z</time>
      </trkpt>
      <trkpt lat="44.49631" lon="5.49119">
        <ele>1157.8</ele>
        <time>2021-09-07T10:25:20Z</time>
      </trkpt>
      <trkpt lat="44.49631" lon="5.49119">
        <ele>1157.8</ele>
        <time>2021-09-07T10:25:21Z</time>
      </trkpt>
      <trkpt lat="44.49631" lon="5.49119">
        <ele>1157.8</ele>
        <time>2021-09-07T10:25:22Z</time>
      </trkpt>
      <trkpt lat="44.49631" lon="5.49119">
        <ele>1157.8</ele>
        <time>2021-09-07T10:25:23Z</time>
      </trkpt>
      <trkpt lat="44.49631" lon="5.49118">
        <ele>1157.7</ele>
        <time>2021-09-07T10:25:24Z</time>
      </trkpt>
      <trkpt lat="44.4963" lon="5.49117">
        <ele>1157.6</ele>
        <time>2021-09-07T10:25:25Z</time>
      </trkpt>
      <trkpt lat="44.4963" lon="5.49116">
        <ele>1157.5</ele>
        <time>2021-09-07T10:25:26Z</time>
      </trkpt>
      <trkpt lat="44.49629" lon="5.49115">
        <ele>1157.4</ele>
        <time>2021-09-07T10:25:27Z</time>
      </trkpt>
      <trkpt lat="44.49629" lon="5.49114">
        <ele>1157.3</ele>
        <time>2021-09-07T10:25:28Z</time>
      </trkpt>
      <trkpt lat="44.4963" lon="5.4911">
        <ele>1157</ele>
        <time>2021-09-07T10:25:29Z</time>
      </trkpt>
      <trkpt lat="44.49632" lon="5.49105">
        <ele>1156.6</ele>
        <time>2021-09-07T10:25:30Z</time>
      </trkpt>
      <trkpt lat="44.49634" lon="5.49103">
        <ele>1156.3</ele>
        <time>2021-09-07T10:25:31Z</time>
      </trkpt>
      <trkpt lat="44.49635" lon="5.491">
        <ele>1156.1</ele>
        <time>2021-09-07T10:25:32Z</time>
      </trkpt>
      <trkpt lat="44.4964" lon="5.49094">
        <ele>1155.3</ele>
        <time>2021-09-07T10:25:33Z</time>
      </trkpt>
      <trkpt lat="44.49646" lon="5.4909">
        <ele>1154.6</ele>
        <time>2021-09-07T10:25:34Z</time>
      </trkpt>
      <trkpt lat="44.49652" lon="5.49085">
        <ele>1153.9</ele>
        <time>2021-09-07T10:25:35Z</time>
      </trkpt>
      <trkpt lat="44.49659" lon="5.49081">
        <ele>1153</ele>
        <time>2021-09-07T10:25:36Z</time>
      </trkpt>
      <trkpt lat="44.49666" lon="5.49077">
        <ele>1152.3</ele>
        <time>2021-09-07T10:25:37Z</time>
      </trkpt>
      <trkpt lat="44.49672" lon="5.49072">
        <ele>1151.5</ele>
        <time>2021-09-07T10:25:38Z</time>
      </trkpt>
      <trkpt lat="44.49679" lon="5.49067">
        <ele>1150.6</ele>
        <time>2021-09-07T10:25:39Z</time>
      </trkpt>
      <trkpt lat="44.49686" lon="5.49063">
        <ele>1149.8</ele>
        <time>2021-09-07T10:25:40Z</time>
      </trkpt>
      <trkpt lat="44.49693" lon="5.49059">
        <ele>1149</ele>
        <time>2021-09-07T10:25:41Z</time>
      </trkpt>
      <trkpt lat="44.49699" lon="5.49055">
        <ele>1148.3</ele>
        <time>2021-09-07T10:25:42Z</time>
      </trkpt>
      <trkpt lat="44.49704" lon="5.49051">
        <ele>1147.6</ele>
        <time>2021-09-07T10:25:43Z</time>
      </trkpt>
      <trkpt lat="44.4971" lon="5.49046">
        <ele>1146.9</ele>
        <time>2021-09-07T10:25:44Z</time>
      </trkpt>
      <trkpt lat="44.49715" lon="5.49042">
        <ele>1146.3</ele>
        <time>2021-09-07T10:25:45Z</time>
      </trkpt>
      <trkpt lat="44.4972" lon="5.49038">
        <ele>1145.6</ele>
        <time>2021-09-07T10:25:46Z</time>
      </trkpt>
      <trkpt lat="44.49725" lon="5.49033">
        <ele>1145</ele>
        <time>2021-09-07T10:25:47Z</time>
      </trkpt>
      <trkpt lat="44.49729" lon="5.49027">
        <ele>1144.3</ele>
        <time>2021-09-07T10:25:48Z</time>
      </trkpt>
      <trkpt lat="44.49734" lon="5.49021">
        <ele>1143.7</ele>
        <time>2021-09-07T10:25:49Z</time>
      </trkpt>
      <trkpt lat="44.49738" lon="5.49015">
        <ele>1143</ele>
        <time>2021-09-07T10:25:50Z</time>
      </trkpt>
      <trkpt lat="44.49743" lon="5.49008">
        <ele>1142.2</ele>
        <time>2021-09-07T10:25:51Z</time>
      </trkpt>
      <trkpt lat="44.49747" lon="5.49002">
        <ele>1141.6</ele>
        <time>2021-09-07T10:25:52Z</time>
      </trkpt>
      <trkpt lat="44.49751" lon="5.48996">
        <ele>1141</ele>
        <time>2021-09-07T10:25:53Z</time>
      </trkpt>
      <trkpt lat="44.49756" lon="5.4899">
        <ele>1140.2</ele>
        <time>2021-09-07T10:25:54Z</time>
      </trkpt>
      <trkpt lat="44.4976" lon="5.48984">
        <ele>1139.6</ele>
        <time>2021-09-07T10:25:55Z</time>
      </trkpt>
      <trkpt lat="44.49764" lon="5.48978">
        <ele>1139</ele>
        <time>2021-09-07T10:25:56Z</time>
      </trkpt>
      <trkpt lat="44.49766" lon="5.4897">
        <ele>1138.3</ele>
        <time>2021-09-07T10:25:57Z</time>
      </trkpt>
      <trkpt lat="44.49767" lon="5.48962">
        <ele>1137.7</ele>
        <time>2021-09-07T10:25:58Z</time>
      </trkpt>
      <trkpt lat="44.49768" lon="5.48953">
        <ele>1137</ele>
        <time>2021-09-07T10:25:59Z</time>
      </trkpt>
      <trkpt lat="44.49767" lon="5.48943">
        <ele>1136.2</ele>
        <time>2021-09-07T10:26:00Z</time>
      </trkpt>
      <trkpt lat="44.49767" lon="5.48933">
        <ele>1135.4</ele>
        <time>2021-09-07T10:26:01Z</time>
      </trkpt>
      <trkpt lat="44.49766" lon="5.48923">
        <ele>1134.7</ele>
        <time>2021-09-07T10:26:02Z</time>
      </trkpt>
      <trkpt lat="44.49767" lon="5.48915">
        <ele>1134</ele>
        <time>2021-09-07T10:26:03Z</time>
      </trkpt>
      <trkpt lat="44.49768" lon="5.48907">
        <ele>1133.4</ele>
        <time>2021-09-07T10:26:04Z</time>
      </trkpt>
      <trkpt lat="44.49769" lon="5.489">
        <ele>1132.8</ele>
        <time>2021-09-07T10:26:05Z</time>
      </trkpt>
      <trkpt lat="44.4977" lon="5.48892">
        <ele>1132.2</ele>
        <time>2021-09-07T10:26:06Z</time>
      </trkpt>
      <trkpt lat="44.49772" lon="5.48886">
        <ele>1131.7</ele>
        <time>2021-09-07T10:26:07Z</time>
      </trkpt>
      <trkpt lat="44.49773" lon="5.48879">
        <ele>1131.2</ele>
        <time>2021-09-07T10:26:08Z</time>
      </trkpt>
      <trkpt lat="44.49775" lon="5.48876">
        <ele>1130.8</ele>
        <time>2021-09-07T10:26:09Z</time>
      </trkpt>
      <trkpt lat="44.49777" lon="5.48873">
        <ele>1130.5</ele>
        <time>2021-09-07T10:26:10Z</time>
      </trkpt>
      <trkpt lat="44.49779" lon="5.48871">
        <ele>1130.3</ele>
        <time>2021-09-07T10:26:11Z</time>
      </trkpt>
      <trkpt lat="44.4978" lon="5.48869">
        <ele>1130.1</ele>
        <time>2021-09-07T10:26:12Z</time>
      </trkpt>
      <trkpt lat="44.49782" lon="5.48868">
        <ele>1129.8</ele>
        <time>2021-09-07T10:26:13Z</time>
      </trkpt>
      <trkpt lat="44.49784" lon="5.48869">
        <ele>1129.7</ele>
        <time>2021-09-07T10:26:14Z</time>
      </trkpt>
      <trkpt lat="44.49785" lon="5.48869">
        <ele>1129.5</ele>
        <time>2021-09-07T10:26:15Z</time>
      </trkpt>
      <trkpt lat="44.49785" lon="5.48869">
        <ele>1129.5</ele>
        <time>2021-09-07T10:26:16Z</time>
      </trkpt>
      <trkpt lat="44.49786" lon="5.48872">
        <ele>1129.3</ele>
        <time>2021-09-07T10:26:17Z</time>
      </trkpt>
      <trkpt lat="44.49787" lon="5.48875">
        <ele>1129</ele>
        <time>2021-09-07T10:26:18Z</time>
      </trkpt>
      <trkpt lat="44.49787" lon="5.48879">
        <ele>1128.7</ele>
        <time>2021-09-07T10:26:19Z</time>
      </trkpt>
      <trkpt lat="44.49787" lon="5.48882">
        <ele>1128.5</ele>
        <time>2021-09-07T10:26:20Z</time>
      </trkpt>
      <trkpt lat="44.49787" lon="5.48885">
        <ele>1128.2</ele>
        <time>2021-09-07T10:26:21Z</time>
      </trkpt>
      <trkpt lat="44.49789" lon="5.48893">
        <ele>1127.6</ele>
        <time>2021-09-07T10:26:22Z</time>
      </trkpt>
      <trkpt lat="44.4979" lon="5.48901">
        <ele>1126.9</ele>
        <time>2021-09-07T10:26:23Z</time>
      </trkpt>
      <trkpt lat="44.49791" lon="5.48907">
        <ele>1125.9</ele>
        <time>2021-09-07T10:26:24Z</time>
      </trkpt>
      <trkpt lat="44.49791" lon="5.48913">
        <ele>1124.8</ele>
        <time>2021-09-07T10:26:25Z</time>
      </trkpt>
      <trkpt lat="44.49793" lon="5.48919">
        <ele>1123.2</ele>
        <time>2021-09-07T10:26:26Z</time>
      </trkpt>
      <trkpt lat="44.49794" lon="5.48925">
        <ele>1122</ele>
        <time>2021-09-07T10:26:27Z</time>
      </trkpt>
      <trkpt lat="44.49795" lon="5.48931">
        <ele>1120.2</ele>
        <time>2021-09-07T10:26:28Z</time>
      </trkpt>
      <trkpt lat="44.49796" lon="5.48936">
        <ele>1118.9</ele>
        <time>2021-09-07T10:26:29Z</time>
      </trkpt>
      <trkpt lat="44.49798" lon="5.48943">
        <ele>1116.4</ele>
        <time>2021-09-07T10:26:30Z</time>
      </trkpt>
      <trkpt lat="44.498" lon="5.48948">
        <ele>1115.2</ele>
        <time>2021-09-07T10:26:31Z</time>
      </trkpt>
      <trkpt lat="44.49802" lon="5.48952">
        <ele>1112.7</ele>
        <time>2021-09-07T10:26:32Z</time>
      </trkpt>
      <trkpt lat="44.49804" lon="5.48954">
        <ele>1109.9</ele>
        <time>2021-09-07T10:26:33Z</time>
      </trkpt>
      <trkpt lat="44.49806" lon="5.48955">
        <ele>1108.3</ele>
        <time>2021-09-07T10:26:34Z</time>
      </trkpt>
      <trkpt lat="44.49808" lon="5.48955">
        <ele>1105.4</ele>
        <time>2021-09-07T10:26:35Z</time>
      </trkpt>
      <trkpt lat="44.4981" lon="5.48954">
        <ele>1102.5</ele>
        <time>2021-09-07T10:26:36Z</time>
      </trkpt>
      <trkpt lat="44.4981" lon="5.4895">
        <ele>1100.8</ele>
        <time>2021-09-07T10:26:37Z</time>
      </trkpt>
      <trkpt lat="44.4981" lon="5.48945">
        <ele>1099</ele>
        <time>2021-09-07T10:26:38Z</time>
      </trkpt>
      <trkpt lat="44.49809" lon="5.48939">
        <ele>1098.5</ele>
        <time>2021-09-07T10:26:39Z</time>
      </trkpt>
      <trkpt lat="44.49808" lon="5.48933">
        <ele>1098.7</ele>
        <time>2021-09-07T10:26:40Z</time>
      </trkpt>
      <trkpt lat="44.49808" lon="5.48927">
        <ele>1098.9</ele>
        <time>2021-09-07T10:26:41Z</time>
      </trkpt>
      <trkpt lat="44.49809" lon="5.48921">
        <ele>1099.1</ele>
        <time>2021-09-07T10:26:42Z</time>
      </trkpt>
      <trkpt lat="44.4981" lon="5.48914">
        <ele>1099.3</ele>
        <time>2021-09-07T10:26:43Z</time>
      </trkpt>
      <trkpt lat="44.49812" lon="5.48908">
        <ele>1099.5</ele>
        <time>2021-09-07T10:26:44Z</time>
      </trkpt>
      <trkpt lat="44.49815" lon="5.48903">
        <ele>1099.7</ele>
        <time>2021-09-07T10:26:45Z</time>
      </trkpt>
      <trkpt lat="44.49817" lon="5.48897">
        <ele>1099.8</ele>
        <time>2021-09-07T10:26:46Z</time>
      </trkpt>
      <trkpt lat="44.49819" lon="5.48894">
        <ele>1100</ele>
        <time>2021-09-07T10:26:47Z</time>
      </trkpt>
      <trkpt lat="44.49821" lon="5.4889">
        <ele>1100.1</ele>
        <time>2021-09-07T10:26:48Z</time>
      </trkpt>
      <trkpt lat="44.49823" lon="5.48886">
        <ele>1100.2</ele>
        <time>2021-09-07T10:26:49Z</time>
      </trkpt>
      <trkpt lat="44.49826" lon="5.48883">
        <ele>1100.4</ele>
        <time>2021-09-07T10:26:50Z</time>
      </trkpt>
      <trkpt lat="44.49828" lon="5.48879">
        <ele>1100.5</ele>
        <time>2021-09-07T10:26:51Z</time>
      </trkpt>
      <trkpt lat="44.4983" lon="5.48874">
        <ele>1100.7</ele>
        <time>2021-09-07T10:26:52Z</time>
      </trkpt>
      <trkpt lat="44.49832" lon="5.48869">
        <ele>1100.9</ele>
        <time>2021-09-07T10:26:53Z</time>
      </trkpt>
      <trkpt lat="44.49833" lon="5.48863">
        <ele>1101</ele>
        <time>2021-09-07T10:26:54Z</time>
      </trkpt>
      <trkpt lat="44.49834" lon="5.48855">
        <ele>1101.3</ele>
        <time>2021-09-07T10:26:55Z</time>
      </trkpt>
      <trkpt lat="44.49835" lon="5.48847">
        <ele>1102</ele>
        <time>2021-09-07T10:26:56Z</time>
      </trkpt>
      <trkpt lat="44.49836" lon="5.48842">
        <ele>1102.2</ele>
        <time>2021-09-07T10:26:57Z</time>
      </trkpt>
      <trkpt lat="44.49839" lon="5.48836">
        <ele>1102.3</ele>
        <time>2021-09-07T10:26:58Z</time>
      </trkpt>
      <trkpt lat="44.4984" lon="5.48836">
        <ele>1102.4</ele>
        <time>2021-09-07T10:26:59Z</time>
      </trkpt>
      <trkpt lat="44.49841" lon="5.48835">
        <ele>1102.4</ele>
        <time>2021-09-07T10:27:00Z</time>
      </trkpt>
      <trkpt lat="44.49843" lon="5.48834">
        <ele>1102.4</ele>
        <time>2021-09-07T10:27:01Z</time>
      </trkpt>
      <trkpt lat="44.49845" lon="5.48836">
        <ele>1102.2</ele>
        <time>2021-09-07T10:27:02Z</time>
      </trkpt>
      <trkpt lat="44.49847" lon="5.48843">
        <ele>1101.7</ele>
        <time>2021-09-07T10:27:03Z</time>
      </trkpt>
      <trkpt lat="44.49848" lon="5.48848">
        <ele>1101.4</ele>
        <time>2021-09-07T10:27:04Z</time>
      </trkpt>
      <trkpt lat="44.49849" lon="5.48855">
        <ele>1101.3</ele>
        <time>2021-09-07T10:27:05Z</time>
      </trkpt>
      <trkpt lat="44.49849" lon="5.48861">
        <ele>1101.1</ele>
        <time>2021-09-07T10:27:06Z</time>
      </trkpt>
      <trkpt lat="44.49849" lon="5.48866">
        <ele>1100.9</ele>
        <time>2021-09-07T10:27:07Z</time>
      </trkpt>
      <trkpt lat="44.49849" lon="5.48869">
        <ele>1100.7</ele>
        <time>2021-09-07T10:27:08Z</time>
      </trkpt>
      <trkpt lat="44.49849" lon="5.48872">
        <ele>1100.6</ele>
        <time>2021-09-07T10:27:09Z</time>
      </trkpt>
      <trkpt lat="44.49849" lon="5.48881">
        <ele>1100.3</ele>
        <time>2021-09-07T10:27:10Z</time>
      </trkpt>
      <trkpt lat="44.49848" lon="5.48888">
        <ele>1100</ele>
        <time>2021-09-07T10:27:11Z</time>
      </trkpt>
      <trkpt lat="44.49848" lon="5.48893">
        <ele>1099.8</ele>
        <time>2021-09-07T10:27:12Z</time>
      </trkpt>
      <trkpt lat="44.49848" lon="5.48898">
        <ele>1099.6</ele>
        <time>2021-09-07T10:27:13Z</time>
      </trkpt>
      <trkpt lat="44.49848" lon="5.48903">
        <ele>1099.4</ele>
        <time>2021-09-07T10:27:14Z</time>
      </trkpt>
      <trkpt lat="44.49848" lon="5.48908">
        <ele>1099.2</ele>
        <time>2021-09-07T10:27:15Z</time>
      </trkpt>
      <trkpt lat="44.49848" lon="5.48913">
        <ele>1099</ele>
        <time>2021-09-07T10:27:16Z</time>
      </trkpt>
      <trkpt lat="44.4985" lon="5.48921">
        <ele>1098.6</ele>
        <time>2021-09-07T10:27:17Z</time>
      </trkpt>
      <trkpt lat="44.49852" lon="5.48929">
        <ele>1098.3</ele>
        <time>2021-09-07T10:27:18Z</time>
      </trkpt>
      <trkpt lat="44.49855" lon="5.48937">
        <ele>1097.9</ele>
        <time>2021-09-07T10:27:19Z</time>
      </trkpt>
      <trkpt lat="44.49857" lon="5.48945">
        <ele>1097.6</ele>
        <time>2021-09-07T10:27:20Z</time>
      </trkpt>
      <trkpt lat="44.49859" lon="5.48952">
        <ele>1097.3</ele>
        <time>2021-09-07T10:27:21Z</time>
      </trkpt>
      <trkpt lat="44.49862" lon="5.4896">
        <ele>1097</ele>
        <time>2021-09-07T10:27:22Z</time>
      </trkpt>
      <trkpt lat="44.49864" lon="5.48967">
        <ele>1096.6</ele>
        <time>2021-09-07T10:27:23Z</time>
      </trkpt>
      <trkpt lat="44.49866" lon="5.48974">
        <ele>1096.3</ele>
        <time>2021-09-07T10:27:24Z</time>
      </trkpt>
      <trkpt lat="44.49869" lon="5.48983">
        <ele>1095.9</ele>
        <time>2021-09-07T10:27:25Z</time>
      </trkpt>
      <trkpt lat="44.49871" lon="5.48991">
        <ele>1095.6</ele>
        <time>2021-09-07T10:27:26Z</time>
      </trkpt>
      <trkpt lat="44.49873" lon="5.49">
        <ele>1095.2</ele>
        <time>2021-09-07T10:27:27Z</time>
      </trkpt>
      <trkpt lat="44.49874" lon="5.49008">
        <ele>1094.9</ele>
        <time>2021-09-07T10:27:28Z</time>
      </trkpt>
      <trkpt lat="44.49875" lon="5.49017">
        <ele>1094.5</ele>
        <time>2021-09-07T10:27:29Z</time>
      </trkpt>
      <trkpt lat="44.49876" lon="5.49026">
        <ele>1094.1</ele>
        <time>2021-09-07T10:27:30Z</time>
      </trkpt>
      <trkpt lat="44.49876" lon="5.49034">
        <ele>1093.8</ele>
        <time>2021-09-07T10:27:31Z</time>
      </trkpt>
      <trkpt lat="44.49877" lon="5.49042">
        <ele>1093.5</ele>
        <time>2021-09-07T10:27:32Z</time>
      </trkpt>
      <trkpt lat="44.49878" lon="5.49051">
        <ele>1093.1</ele>
        <time>2021-09-07T10:27:33Z</time>
      </trkpt>
      <trkpt lat="44.49878" lon="5.4906">
        <ele>1092.8</ele>
        <time>2021-09-07T10:27:34Z</time>
      </trkpt>
      <trkpt lat="44.49879" lon="5.4907">
        <ele>1092.4</ele>
        <time>2021-09-07T10:27:35Z</time>
      </trkpt>
      <trkpt lat="44.4988" lon="5.4908">
        <ele>1092</ele>
        <time>2021-09-07T10:27:36Z</time>
      </trkpt>
      <trkpt lat="44.49881" lon="5.49089">
        <ele>1091.6</ele>
        <time>2021-09-07T10:27:37Z</time>
      </trkpt>
      <trkpt lat="44.49882" lon="5.49098">
        <ele>1091.2</ele>
        <time>2021-09-07T10:27:38Z</time>
      </trkpt>
      <trkpt lat="44.49883" lon="5.49107">
        <ele>1090.9</ele>
        <time>2021-09-07T10:27:39Z</time>
      </trkpt>
      <trkpt lat="44.49883" lon="5.49116">
        <ele>1090.5</ele>
        <time>2021-09-07T10:27:40Z</time>
      </trkpt>
      <trkpt lat="44.49883" lon="5.49125">
        <ele>1090.1</ele>
        <time>2021-09-07T10:27:41Z</time>
      </trkpt>
      <trkpt lat="44.49883" lon="5.49134">
        <ele>1089.8</ele>
        <time>2021-09-07T10:27:42Z</time>
      </trkpt>
      <trkpt lat="44.49882" lon="5.49143">
        <ele>1089.4</ele>
        <time>2021-09-07T10:27:43Z</time>
      </trkpt>
      <trkpt lat="44.49881" lon="5.49152">
        <ele>1089</ele>
        <time>2021-09-07T10:27:44Z</time>
      </trkpt>
      <trkpt lat="44.49878" lon="5.4916">
        <ele>1088.7</ele>
        <time>2021-09-07T10:27:45Z</time>
      </trkpt>
      <trkpt lat="44.49875" lon="5.49167">
        <ele>1088.4</ele>
        <time>2021-09-07T10:27:46Z</time>
      </trkpt>
      <trkpt lat="44.49871" lon="5.49174">
        <ele>1088</ele>
        <time>2021-09-07T10:27:47Z</time>
      </trkpt>
      <trkpt lat="44.49867" lon="5.4918">
        <ele>1087.7</ele>
        <time>2021-09-07T10:27:48Z</time>
      </trkpt>
      <trkpt lat="44.49863" lon="5.49187">
        <ele>1087.3</ele>
        <time>2021-09-07T10:27:49Z</time>
      </trkpt>
      <trkpt lat="44.4986" lon="5.49192">
        <ele>1087</ele>
        <time>2021-09-07T10:27:50Z</time>
      </trkpt>
      <trkpt lat="44.49856" lon="5.49197">
        <ele>1086.7</ele>
        <time>2021-09-07T10:27:51Z</time>
      </trkpt>
      <trkpt lat="44.49853" lon="5.49201">
        <ele>1086.5</ele>
        <time>2021-09-07T10:27:52Z</time>
      </trkpt>
      <trkpt lat="44.49852" lon="5.49205">
        <ele>1086.3</ele>
        <time>2021-09-07T10:27:53Z</time>
      </trkpt>
      <trkpt lat="44.4985" lon="5.49209">
        <ele>1086.1</ele>
        <time>2021-09-07T10:27:54Z</time>
      </trkpt>
      <trkpt lat="44.4985" lon="5.49215">
        <ele>1085.9</ele>
        <time>2021-09-07T10:27:55Z</time>
      </trkpt>
      <trkpt lat="44.4985" lon="5.49221">
        <ele>1085.7</ele>
        <time>2021-09-07T10:27:56Z</time>
      </trkpt>
      <trkpt lat="44.49851" lon="5.49226">
        <ele>1085.5</ele>
        <time>2021-09-07T10:27:57Z</time>
      </trkpt>
      <trkpt lat="44.49852" lon="5.49231">
        <ele>1085.3</ele>
        <time>2021-09-07T10:27:58Z</time>
      </trkpt>
      <trkpt lat="44.49854" lon="5.49234">
        <ele>1081.6</ele>
        <time>2021-09-07T10:27:59Z</time>
      </trkpt>
      <trkpt lat="44.49856" lon="5.49237">
        <ele>1080.7</ele>
        <time>2021-09-07T10:28:00Z</time>
      </trkpt>
      <trkpt lat="44.49858" lon="5.49243">
        <ele>1079.4</ele>
        <time>2021-09-07T10:28:01Z</time>
      </trkpt>
      <trkpt lat="44.4986" lon="5.49245">
        <ele>1078.8</ele>
        <time>2021-09-07T10:28:02Z</time>
      </trkpt>
      <trkpt lat="44.49861" lon="5.49247">
        <ele>1078.2</ele>
        <time>2021-09-07T10:28:03Z</time>
      </trkpt>
      <trkpt lat="44.49864" lon="5.4925">
        <ele>1077.1</ele>
        <time>2021-09-07T10:28:04Z</time>
      </trkpt>
      <trkpt lat="44.49869" lon="5.49254">
        <ele>1075.5</ele>
        <time>2021-09-07T10:28:05Z</time>
      </trkpt>
      <trkpt lat="44.49873" lon="5.49258">
        <ele>1074.1</ele>
        <time>2021-09-07T10:28:06Z</time>
      </trkpt>
      <trkpt lat="44.49878" lon="5.49263">
        <ele>1072.4</ele>
        <time>2021-09-07T10:28:07Z</time>
      </trkpt>
      <trkpt lat="44.49883" lon="5.49267">
        <ele>1070.6</ele>
        <time>2021-09-07T10:28:08Z</time>
      </trkpt>
      <trkpt lat="44.49889" lon="5.49272">
        <ele>1068.6</ele>
        <time>2021-09-07T10:28:09Z</time>
      </trkpt>
      <trkpt lat="44.49894" lon="5.49275">
        <ele>1067.1</ele>
        <time>2021-09-07T10:28:10Z</time>
      </trkpt>
      <trkpt lat="44.49899" lon="5.49278">
        <ele>1065.5</ele>
        <time>2021-09-07T10:28:11Z</time>
      </trkpt>
      <trkpt lat="44.49905" lon="5.4928">
        <ele>1063.7</ele>
        <time>2021-09-07T10:28:12Z</time>
      </trkpt>
      <trkpt lat="44.49911" lon="5.49282">
        <ele>1062.1</ele>
        <time>2021-09-07T10:28:13Z</time>
      </trkpt>
      <trkpt lat="44.49916" lon="5.49284">
        <ele>1061</ele>
        <time>2021-09-07T10:28:14Z</time>
      </trkpt>
      <trkpt lat="44.49922" lon="5.49285">
        <ele>1060.1</ele>
        <time>2021-09-07T10:28:15Z</time>
      </trkpt>
      <trkpt lat="44.49928" lon="5.49285">
        <ele>1059.1</ele>
        <time>2021-09-07T10:28:16Z</time>
      </trkpt>
      <trkpt lat="44.49935" lon="5.49285">
        <ele>1058.1</ele>
        <time>2021-09-07T10:28:17Z</time>
      </trkpt>
      <trkpt lat="44.49941" lon="5.49284">
        <ele>1057</ele>
        <time>2021-09-07T10:28:18Z</time>
      </trkpt>
      <trkpt lat="44.49947" lon="5.49281">
        <ele>1056</ele>
        <time>2021-09-07T10:28:19Z</time>
      </trkpt>
      <trkpt lat="44.49953" lon="5.49277">
        <ele>1054.9</ele>
        <time>2021-09-07T10:28:20Z</time>
      </trkpt>
      <trkpt lat="44.49959" lon="5.49272">
        <ele>1054.5</ele>
        <time>2021-09-07T10:28:21Z</time>
      </trkpt>
      <trkpt lat="44.49964" lon="5.49267">
        <ele>1054.4</ele>
        <time>2021-09-07T10:28:22Z</time>
      </trkpt>
      <trkpt lat="44.49969" lon="5.49262">
        <ele>1054.3</ele>
        <time>2021-09-07T10:28:23Z</time>
      </trkpt>
      <trkpt lat="44.49974" lon="5.49258">
        <ele>1054.4</ele>
        <time>2021-09-07T10:28:24Z</time>
      </trkpt>
      <trkpt lat="44.49979" lon="5.49256">
        <ele>1054.5</ele>
        <time>2021-09-07T10:28:25Z</time>
      </trkpt>
      <trkpt lat="44.49983" lon="5.49253">
        <ele>1054.6</ele>
        <time>2021-09-07T10:28:26Z</time>
      </trkpt>
      <trkpt lat="44.49988" lon="5.49251">
        <ele>1054.8</ele>
        <time>2021-09-07T10:28:27Z</time>
      </trkpt>
      <trkpt lat="44.49991" lon="5.49249">
        <ele>1054.9</ele>
        <time>2021-09-07T10:28:28Z</time>
      </trkpt>
      <trkpt lat="44.49994" lon="5.49247">
        <ele>1055</ele>
        <time>2021-09-07T10:28:29Z</time>
      </trkpt>
      <trkpt lat="44.49998" lon="5.49244">
        <ele>1055.1</ele>
        <time>2021-09-07T10:28:30Z</time>
      </trkpt>
      <trkpt lat="44.50001" lon="5.49242">
        <ele>1055.2</ele>
        <time>2021-09-07T10:28:31Z</time>
      </trkpt>
      <trkpt lat="44.50003" lon="5.4924">
        <ele>1055.2</ele>
        <time>2021-09-07T10:28:32Z</time>
      </trkpt>
      <trkpt lat="44.50005" lon="5.49239">
        <ele>1055.3</ele>
        <time>2021-09-07T10:28:33Z</time>
      </trkpt>
      <trkpt lat="44.50006" lon="5.49238">
        <ele>1055.3</ele>
        <time>2021-09-07T10:28:34Z</time>
      </trkpt>
      <trkpt lat="44.50005" lon="5.49236">
        <ele>1055.4</ele>
        <time>2021-09-07T10:28:35Z</time>
      </trkpt>
      <trkpt lat="44.50006" lon="5.49237">
        <ele>1055.4</ele>
        <time>2021-09-07T10:28:36Z</time>
      </trkpt>
      <trkpt lat="44.50006" lon="5.49237">
        <ele>1055.4</ele>
        <time>2021-09-07T10:28:37Z</time>
      </trkpt>
      <trkpt lat="44.50006" lon="5.49238">
        <ele>1055.4</ele>
        <time>2021-09-07T10:28:38Z</time>
      </trkpt>
      <trkpt lat="44.50006" lon="5.49238">
        <ele>1055.4</ele>
        <time>2021-09-07T10:28:39Z</time>
      </trkpt>
      <trkpt lat="44.50006" lon="5.49238">
        <ele>1055.4</ele>
        <time>2021-09-07T10:28:40Z</time>
      </trkpt>
      <trkpt lat="44.50007" lon="5.49238">
        <ele>1055.4</ele>
        <time>2021-09-07T10:28:41Z</time>
      </trkpt>
      <trkpt lat="44.50007" lon="5.49238">
        <ele>1055.4</ele>
        <time>2021-09-07T10:28:42Z</time>
      </trkpt>
      <trkpt lat="44.50007" lon="5.49238">
        <ele>1055.4</ele>
        <time>2021-09-07T10:28:43Z</time>
      </trkpt>
      <trkpt lat="44.50007" lon="5.49239">
        <ele>1055.4</ele>
        <time>2021-09-07T10:28:44Z</time>
      </trkpt>
      <trkpt lat="44.50007" lon="5.49239">
        <ele>1055.5</ele>
        <time>2021-09-07T10:28:45Z</time>
      </trkpt>
      <trkpt lat="44.50007" lon="5.49239">
        <ele>1055.5</ele>
        <time>2021-09-07T10:28:46Z</time>
      </trkpt>
      <trkpt lat="44.50007" lon="5.49239">
        <ele>1055.5</ele>
        <time>2021-09-07T10:28:47Z</time>
      </trkpt>
      <trkpt lat="44.50007" lon="5.49239">
        <ele>1055.5</ele>
        <time>2021-09-07T10:28:48Z</time>
      </trkpt>
      <trkpt lat="44.50007" lon="5.49239">
        <ele>1055.5</ele>
        <time>2021-09-07T10:28:49Z</time>
      </trkpt>
      <trkpt lat="44.50007" lon="5.4924">
        <ele>1055.5</ele>
        <time>2021-09-07T10:28:50Z</time>
      </trkpt>
      <trkpt lat="44.50007" lon="5.4924">
        <ele>1055.5</ele>
        <time>2021-09-07T10:28:51Z</time>
      </trkpt>
      <trkpt lat="44.50007" lon="5.4924">
        <ele>1055.5</ele>
        <time>2021-09-07T10:28:52Z</time>
      </trkpt>
      <trkpt lat="44.50008" lon="5.4924">
        <ele>1055.5</ele>
        <time>2021-09-07T10:28:53Z</time>
      </trkpt>
      <trkpt lat="44.50008" lon="5.4924">
        <ele>1055.5</ele>
        <time>2021-09-07T10:28:54Z</time>
      </trkpt>
      <trkpt lat="44.50008" lon="5.4924">
        <ele>1055.5</ele>
        <time>2021-09-07T10:28:55Z</time>
      </trkpt>
      <trkpt lat="44.50008" lon="5.49241">
        <ele>1055.5</ele>
        <time>2021-09-07T10:28:56Z</time>
      </trkpt>
      <trkpt lat="44.50008" lon="5.49241">
        <ele>1055.5</ele>
        <time>2021-09-07T10:28:57Z</time>
      </trkpt>
      <trkpt lat="44.50008" lon="5.49241">
        <ele>1055.5</ele>
        <time>2021-09-07T10:28:58Z</time>
      </trkpt>
      <trkpt lat="44.50008" lon="5.49241">
        <ele>1055.5</ele>
        <time>2021-09-07T10:28:59Z</time>
      </trkpt>
      <trkpt lat="44.50008" lon="5.49241">
        <ele>1055.5</ele>
        <time>2021-09-07T10:29:00Z</time>
      </trkpt>
      <trkpt lat="44.50008" lon="5.49241">
        <ele>1055.5</ele>
        <time>2021-09-07T10:29:01Z</time>
      </trkpt>
      <trkpt lat="44.50008" lon="5.49242">
        <ele>1055.5</ele>
        <time>2021-09-07T10:29:02Z</time>
      </trkpt>
      <trkpt lat="44.50008" lon="5.49242">
        <ele>1055.5</ele>
        <time>2021-09-07T10:29:03Z</time>
      </trkpt>
      <trkpt lat="44.50008" lon="5.49242">
        <ele>1055.5</ele>
        <time>2021-09-07T10:29:04Z</time>
      </trkpt>
      <trkpt lat="44.50009" lon="5.49242">
        <ele>1055.5</ele>
        <time>2021-09-07T10:29:05Z</time>
      </trkpt>
      <trkpt lat="44.50009" lon="5.49242">
        <ele>1055.5</ele>
        <time>2021-09-07T10:29:06Z</time>
      </trkpt>
      <trkpt lat="44.50009" lon="5.49242">
        <ele>1055.5</ele>
        <time>2021-09-07T10:29:07Z</time>
      </trkpt>
      <trkpt lat="44.50009" lon="5.49243">
        <ele>1055.5</ele>
        <time>2021-09-07T10:29:08Z</time>
      </trkpt>
      <trkpt lat="44.50009" lon="5.49243">
        <ele>1055.6</ele>
        <time>2021-09-07T10:29:09Z</time>
      </trkpt>
      <trkpt lat="44.50009" lon="5.49243">
        <ele>1055.6</ele>
        <time>2021-09-07T10:29:10Z</time>
      </trkpt>
      <trkpt lat="44.50009" lon="5.49243">
        <ele>1055.6</ele>
        <time>2021-09-07T10:29:11Z</time>
      </trkpt>
      <trkpt lat="44.50009" lon="5.49243">
        <ele>1055.6</ele>
        <time>2021-09-07T10:29:12Z</time>
      </trkpt>
      <trkpt lat="44.50009" lon="5.49243">
        <ele>1055.6</ele>
        <time>2021-09-07T10:29:13Z</time>
      </trkpt>
      <trkpt lat="44.50009" lon="5.49244">
        <ele>1055.6</ele>
        <time>2021-09-07T10:29:14Z</time>
      </trkpt>
      <trkpt lat="44.50009" lon="5.49244">
        <ele>1055.6</ele>
        <time>2021-09-07T10:29:15Z</time>
      </trkpt>
      <trkpt lat="44.50009" lon="5.49244">
        <ele>1055.6</ele>
        <time>2021-09-07T10:29:16Z</time>
      </trkpt>
      <trkpt lat="44.5001" lon="5.49244">
        <ele>1055.6</ele>
        <time>2021-09-07T10:29:17Z</time>
      </trkpt>
      <trkpt lat="44.5001" lon="5.49244">
        <ele>1055.6</ele>
        <time>2021-09-07T10:29:18Z</time>
      </trkpt>
      <trkpt lat="44.5001" lon="5.49244">
        <ele>1055.6</ele>
        <time>2021-09-07T10:29:19Z</time>
      </trkpt>
      <trkpt lat="44.5001" lon="5.49245">
        <ele>1055.6</ele>
        <time>2021-09-07T10:29:20Z</time>
      </trkpt>
      <trkpt lat="44.5001" lon="5.49245">
        <ele>1055.6</ele>
        <time>2021-09-07T10:29:21Z</time>
      </trkpt>
      <trkpt lat="44.5001" lon="5.49245">
        <ele>1055.6</ele>
        <time>2021-09-07T10:29:22Z</time>
      </trkpt>
      <trkpt lat="44.5001" lon="5.49245">
        <ele>1055.6</ele>
        <time>2021-09-07T10:29:23Z</time>
      </trkpt>
      <trkpt lat="44.50025" lon="5.49246">
        <ele>1056</ele>
        <time>2021-09-07T10:29:24Z</time>
      </trkpt>
      <trkpt lat="44.50033" lon="5.49248">
        <ele>1056.2</ele>
        <time>2021-09-07T10:29:25Z</time>
      </trkpt>
      <trkpt lat="44.5004" lon="5.49249">
        <ele>1056.4</ele>
        <time>2021-09-07T10:29:26Z</time>
      </trkpt>
      <trkpt lat="44.50047" lon="5.49251">
        <ele>1056.6</ele>
        <time>2021-09-07T10:29:27Z</time>
      </trkpt>
      <trkpt lat="44.50053" lon="5.49255">
        <ele>1056.8</ele>
        <time>2021-09-07T10:29:28Z</time>
      </trkpt>
      <trkpt lat="44.50059" lon="5.49259">
        <ele>1057</ele>
        <time>2021-09-07T10:29:29Z</time>
      </trkpt>
      <trkpt lat="44.50066" lon="5.49264">
        <ele>1057.2</ele>
        <time>2021-09-07T10:29:30Z</time>
      </trkpt>
      <trkpt lat="44.50073" lon="5.49269">
        <ele>1057.4</ele>
        <time>2021-09-07T10:29:31Z</time>
      </trkpt>
      <trkpt lat="44.5008" lon="5.49273">
        <ele>1057.6</ele>
        <time>2021-09-07T10:29:32Z</time>
      </trkpt>
      <trkpt lat="44.50087" lon="5.49277">
        <ele>1057.8</ele>
        <time>2021-09-07T10:29:33Z</time>
      </trkpt>
      <trkpt lat="44.50095" lon="5.49281">
        <ele>1058.1</ele>
        <time>2021-09-07T10:29:34Z</time>
      </trkpt>
      <trkpt lat="44.50103" lon="5.49284">
        <ele>1058.3</ele>
        <time>2021-09-07T10:29:35Z</time>
      </trkpt>
      <trkpt lat="44.50111" lon="5.49286">
        <ele>1058.5</ele>
        <time>2021-09-07T10:29:36Z</time>
      </trkpt>
      <trkpt lat="44.50119" lon="5.49288">
        <ele>1058.7</ele>
        <time>2021-09-07T10:29:37Z</time>
      </trkpt>
      <trkpt lat="44.50128" lon="5.49289">
        <ele>1059</ele>
        <time>2021-09-07T10:29:38Z</time>
      </trkpt>
      <trkpt lat="44.50136" lon="5.49289">
        <ele>1059.2</ele>
        <time>2021-09-07T10:29:39Z</time>
      </trkpt>
      <trkpt lat="44.50144" lon="5.49288">
        <ele>1059.4</ele>
        <time>2021-09-07T10:29:40Z</time>
      </trkpt>
      <trkpt lat="44.50152" lon="5.49286">
        <ele>1059.7</ele>
        <time>2021-09-07T10:29:41Z</time>
      </trkpt>
      <trkpt lat="44.50159" lon="5.49283">
        <ele>1059.9</ele>
        <time>2021-09-07T10:29:42Z</time>
      </trkpt>
      <trkpt lat="44.50167" lon="5.49279">
        <ele>1059</ele>
        <time>2021-09-07T10:29:43Z</time>
      </trkpt>
      <trkpt lat="44.50174" lon="5.49275">
        <ele>1058.5</ele>
        <time>2021-09-07T10:29:44Z</time>
      </trkpt>
      <trkpt lat="44.50181" lon="5.49271">
        <ele>1057.9</ele>
        <time>2021-09-07T10:29:45Z</time>
      </trkpt>
      <trkpt lat="44.50188" lon="5.49268">
        <ele>1057.4</ele>
        <time>2021-09-07T10:29:46Z</time>
      </trkpt>
      <trkpt lat="44.50194" lon="5.49265">
        <ele>1056.9</ele>
        <time>2021-09-07T10:29:47Z</time>
      </trkpt>
      <trkpt lat="44.50201" lon="5.49264">
        <ele>1056.4</ele>
        <time>2021-09-07T10:29:48Z</time>
      </trkpt>
      <trkpt lat="44.50208" lon="5.49262">
        <ele>1055.8</ele>
        <time>2021-09-07T10:29:49Z</time>
      </trkpt>
      <trkpt lat="44.50215" lon="5.49259">
        <ele>1055.3</ele>
        <time>2021-09-07T10:29:50Z</time>
      </trkpt>
      <trkpt lat="44.50222" lon="5.49255">
        <ele>1054.8</ele>
        <time>2021-09-07T10:29:51Z</time>
      </trkpt>
      <trkpt lat="44.50228" lon="5.49251">
        <ele>1054.2</ele>
        <time>2021-09-07T10:29:52Z</time>
      </trkpt>
      <trkpt lat="44.50234" lon="5.49247">
        <ele>1053.7</ele>
        <time>2021-09-07T10:29:53Z</time>
      </trkpt>
      <trkpt lat="44.50241" lon="5.49243">
        <ele>1053.2</ele>
        <time>2021-09-07T10:29:54Z</time>
      </trkpt>
      <trkpt lat="44.50248" lon="5.4924">
        <ele>1052.6</ele>
        <time>2021-09-07T10:29:55Z</time>
      </trkpt>
      <trkpt lat="44.50254" lon="5.49236">
        <ele>1052.1</ele>
        <time>2021-09-07T10:29:56Z</time>
      </trkpt>
      <trkpt lat="44.50261" lon="5.49232">
        <ele>1051.6</ele>
        <time>2021-09-07T10:29:57Z</time>
      </trkpt>
      <trkpt lat="44.50268" lon="5.49229">
        <ele>1051</ele>
        <time>2021-09-07T10:29:58Z</time>
      </trkpt>
      <trkpt lat="44.50275" lon="5.49225">
        <ele>1050.4</ele>
        <time>2021-09-07T10:29:59Z</time>
      </trkpt>
      <trkpt lat="44.50282" lon="5.49222">
        <ele>1049.9</ele>
        <time>2021-09-07T10:30:00Z</time>
      </trkpt>
      <trkpt lat="44.5029" lon="5.4922">
        <ele>1049.3</ele>
        <time>2021-09-07T10:30:01Z</time>
      </trkpt>
      <trkpt lat="44.50297" lon="5.49217">
        <ele>1048.7</ele>
        <time>2021-09-07T10:30:02Z</time>
      </trkpt>
      <trkpt lat="44.50304" lon="5.49214">
        <ele>1048.2</ele>
        <time>2021-09-07T10:30:03Z</time>
      </trkpt>
      <trkpt lat="44.50311" lon="5.49211">
        <ele>1047.7</ele>
        <time>2021-09-07T10:30:04Z</time>
      </trkpt>
      <trkpt lat="44.50318" lon="5.49208">
        <ele>1047.1</ele>
        <time>2021-09-07T10:30:05Z</time>
      </trkpt>
      <trkpt lat="44.50324" lon="5.49204">
        <ele>1046.6</ele>
        <time>2021-09-07T10:30:06Z</time>
      </trkpt>
      <trkpt lat="44.50331" lon="5.49201">
        <ele>1046.1</ele>
        <time>2021-09-07T10:30:07Z</time>
      </trkpt>
      <trkpt lat="44.50336" lon="5.49197">
        <ele>1045.6</ele>
        <time>2021-09-07T10:30:08Z</time>
      </trkpt>
      <trkpt lat="44.50341" lon="5.49193">
        <ele>1045.2</ele>
        <time>2021-09-07T10:30:09Z</time>
      </trkpt>
      <trkpt lat="44.50346" lon="5.49188">
        <ele>1044.7</ele>
        <time>2021-09-07T10:30:10Z</time>
      </trkpt>
      <trkpt lat="44.50351" lon="5.49183">
        <ele>1044.3</ele>
        <time>2021-09-07T10:30:11Z</time>
      </trkpt>
      <trkpt lat="44.50355" lon="5.49178">
        <ele>1043.9</ele>
        <time>2021-09-07T10:30:12Z</time>
      </trkpt>
      <trkpt lat="44.5036" lon="5.49172">
        <ele>1043.4</ele>
        <time>2021-09-07T10:30:13Z</time>
      </trkpt>
      <trkpt lat="44.50364" lon="5.49166">
        <ele>1043</ele>
        <time>2021-09-07T10:30:14Z</time>
      </trkpt>
      <trkpt lat="44.50368" lon="5.4916">
        <ele>1042.5</ele>
        <time>2021-09-07T10:30:15Z</time>
      </trkpt>
      <trkpt lat="44.50372" lon="5.49154">
        <ele>1042.1</ele>
        <time>2021-09-07T10:30:16Z</time>
      </trkpt>
      <trkpt lat="44.50376" lon="5.49149">
        <ele>1041.7</ele>
        <time>2021-09-07T10:30:17Z</time>
      </trkpt>
      <trkpt lat="44.5038" lon="5.49144">
        <ele>1041.3</ele>
        <time>2021-09-07T10:30:18Z</time>
      </trkpt>
      <trkpt lat="44.50384" lon="5.49139">
        <ele>1040.9</ele>
        <time>2021-09-07T10:30:19Z</time>
      </trkpt>
      <trkpt lat="44.50386" lon="5.49136">
        <ele>1040.7</ele>
        <time>2021-09-07T10:30:20Z</time>
      </trkpt>
      <trkpt lat="44.50389" lon="5.49133">
        <ele>1040.4</ele>
        <time>2021-09-07T10:30:21Z</time>
      </trkpt>
      <trkpt lat="44.50391" lon="5.4913">
        <ele>1040.2</ele>
        <time>2021-09-07T10:30:22Z</time>
      </trkpt>
      <trkpt lat="44.50392" lon="5.49127">
        <ele>1040</ele>
        <time>2021-09-07T10:30:23Z</time>
      </trkpt>
      <trkpt lat="44.50392" lon="5.49123">
        <ele>1039.8</ele>
        <time>2021-09-07T10:30:24Z</time>
      </trkpt>
      <trkpt lat="44.50393" lon="5.49119">
        <ele>1039.6</ele>
        <time>2021-09-07T10:30:25Z</time>
      </trkpt>
      <trkpt lat="44.50393" lon="5.49115">
        <ele>1039.7</ele>
        <time>2021-09-07T10:30:26Z</time>
      </trkpt>
      <trkpt lat="44.50394" lon="5.49114">
        <ele>1039.8</ele>
        <time>2021-09-07T10:30:27Z</time>
      </trkpt>
      <trkpt lat="44.50394" lon="5.49113">
        <ele>1039.8</ele>
        <time>2021-09-07T10:30:28Z</time>
      </trkpt>
      <trkpt lat="44.50393" lon="5.49111">
        <ele>1039.9</ele>
        <time>2021-09-07T10:30:29Z</time>
      </trkpt>
      <trkpt lat="44.50393" lon="5.49111">
        <ele>1039.9</ele>
        <time>2021-09-07T10:30:30Z</time>
      </trkpt>
      <trkpt lat="44.50393" lon="5.4911">
        <ele>1039.9</ele>
        <time>2021-09-07T10:30:31Z</time>
      </trkpt>
      <trkpt lat="44.50393" lon="5.4911">
        <ele>1039.9</ele>
        <time>2021-09-07T10:30:32Z</time>
      </trkpt>
      <trkpt lat="44.50393" lon="5.4911">
        <ele>1039.9</ele>
        <time>2021-09-07T10:30:33Z</time>
      </trkpt>
      <trkpt lat="44.50393" lon="5.4911">
        <ele>1039.9</ele>
        <time>2021-09-07T10:30:34Z</time>
      </trkpt>
      <trkpt lat="44.50393" lon="5.4911">
        <ele>1039.9</ele>
        <time>2021-09-07T10:30:35Z</time>
      </trkpt>
      <trkpt lat="44.50393" lon="5.4911">
        <ele>1039.9</ele>
        <time>2021-09-07T10:30:36Z</time>
      </trkpt>
      <trkpt lat="44.50393" lon="5.4911">
        <ele>1039.9</ele>
        <time>2021-09-07T10:30:37Z</time>
      </trkpt>
      <trkpt lat="44.50393" lon="5.4911">
        <ele>1039.9</ele>
        <time>2021-09-07T10:30:38Z</time>
      </trkpt>
      <trkpt lat="44.50393" lon="5.4911">
        <ele>1039.9</ele>
        <time>2021-09-07T10:30:39Z</time>
      </trkpt>
      <trkpt lat="44.50393" lon="5.4911">
        <ele>1039.9</ele>
        <time>2021-09-07T10:30:40Z</time>
      </trkpt>
      <trkpt lat="44.50393" lon="5.4911">
        <ele>1039.9</ele>
        <time>2021-09-07T10:30:41Z</time>
      </trkpt>
      <trkpt lat="44.50393" lon="5.4911">
        <ele>1040</ele>
        <time>2021-09-07T10:30:42Z</time>
      </trkpt>
      <trkpt lat="44.50393" lon="5.49109">
        <ele>1040</ele>
        <time>2021-09-07T10:30:43Z</time>
      </trkpt>
      <trkpt lat="44.50393" lon="5.49109">
        <ele>1040</ele>
        <time>2021-09-07T10:30:44Z</time>
      </trkpt>
      <trkpt lat="44.50393" lon="5.49109">
        <ele>1040</ele>
        <time>2021-09-07T10:30:45Z</time>
      </trkpt>
      <trkpt lat="44.50393" lon="5.49109">
        <ele>1040</ele>
        <time>2021-09-07T10:30:46Z</time>
      </trkpt>
      <trkpt lat="44.50393" lon="5.49109">
        <ele>1040</ele>
        <time>2021-09-07T10:30:47Z</time>
      </trkpt>
      <trkpt lat="44.50394" lon="5.4911">
        <ele>1040</ele>
        <time>2021-09-07T10:30:48Z</time>
      </trkpt>
      <trkpt lat="44.50394" lon="5.4911">
        <ele>1040.1</ele>
        <time>2021-09-07T10:30:49Z</time>
      </trkpt>
      <trkpt lat="44.50393" lon="5.4911">
        <ele>1040.1</ele>
        <time>2021-09-07T10:30:50Z</time>
      </trkpt>
      <trkpt lat="44.50393" lon="5.4911">
        <ele>1040.1</ele>
        <time>2021-09-07T10:30:51Z</time>
      </trkpt>
      <trkpt lat="44.50393" lon="5.4911">
        <ele>1040.1</ele>
        <time>2021-09-07T10:30:52Z</time>
      </trkpt>
      <trkpt lat="44.50393" lon="5.4911">
        <ele>1040.1</ele>
        <time>2021-09-07T10:30:53Z</time>
      </trkpt>
      <trkpt lat="44.50393" lon="5.4911">
        <ele>1040.1</ele>
        <time>2021-09-07T10:30:54Z</time>
      </trkpt>
      <trkpt lat="44.50393" lon="5.4911">
        <ele>1040.1</ele>
        <time>2021-09-07T10:30:55Z</time>
      </trkpt>
      <trkpt lat="44.50393" lon="5.4911">
        <ele>1040.1</ele>
        <time>2021-09-07T10:30:56Z</time>
      </trkpt>
      <trkpt lat="44.50393" lon="5.4911">
        <ele>1040.1</ele>
        <time>2021-09-07T10:30:57Z</time>
      </trkpt>
      <trkpt lat="44.50393" lon="5.4911">
        <ele>1040.1</ele>
        <time>2021-09-07T10:30:58Z</time>
      </trkpt>
      <trkpt lat="44.50393" lon="5.4911">
        <ele>1040.1</ele>
        <time>2021-09-07T10:30:59Z</time>
      </trkpt>
      <trkpt lat="44.50393" lon="5.4911">
        <ele>1040.1</ele>
        <time>2021-09-07T10:31:00Z</time>
      </trkpt>
      <trkpt lat="44.50393" lon="5.4911">
        <ele>1040.1</ele>
        <time>2021-09-07T10:31:01Z</time>
      </trkpt>
      <trkpt lat="44.50393" lon="5.4911">
        <ele>1040.1</ele>
        <time>2021-09-07T10:31:02Z</time>
      </trkpt>
      <trkpt lat="44.50393" lon="5.4911">
        <ele>1040.1</ele>
        <time>2021-09-07T10:31:03Z</time>
      </trkpt>
      <trkpt lat="44.50393" lon="5.4911">
        <ele>1040.1</ele>
        <time>2021-09-07T10:31:04Z</time>
      </trkpt>
      <trkpt lat="44.50393" lon="5.4911">
        <ele>1040.1</ele>
        <time>2021-09-07T10:31:05Z</time>
      </trkpt>
      <trkpt lat="44.50393" lon="5.4911">
        <ele>1040.1</ele>
        <time>2021-09-07T10:31:06Z</time>
      </trkpt>
      <trkpt lat="44.50393" lon="5.4911">
        <ele>1040.1</ele>
        <time>2021-09-07T10:31:07Z</time>
      </trkpt>
      <trkpt lat="44.50393" lon="5.4911">
        <ele>1040.1</ele>
        <time>2021-09-07T10:31:08Z</time>
      </trkpt>
      <trkpt lat="44.50393" lon="5.4911">
        <ele>1040.1</ele>
        <time>2021-09-07T10:31:09Z</time>
      </trkpt>
      <trkpt lat="44.50393" lon="5.4911">
        <ele>1040.1</ele>
        <time>2021-09-07T10:31:10Z</time>
      </trkpt>
      <trkpt lat="44.50393" lon="5.4911">
        <ele>1040.1</ele>
        <time>2021-09-07T10:31:11Z</time>
      </trkpt>
      <trkpt lat="44.50393" lon="5.4911">
        <ele>1040.1</ele>
        <time>2021-09-07T10:31:12Z</time>
      </trkpt>
      <trkpt lat="44.50393" lon="5.4911">
        <ele>1040.1</ele>
        <time>2021-09-07T10:31:13Z</time>
      </trkpt>
      <trkpt lat="44.50393" lon="5.4911">
        <ele>1040.1</ele>
        <time>2021-09-07T10:31:14Z</time>
      </trkpt>
      <trkpt lat="44.50393" lon="5.4911">
        <ele>1040.1</ele>
        <time>2021-09-07T10:31:15Z</time>
      </trkpt>
      <trkpt lat="44.50393" lon="5.4911">
        <ele>1040.1</ele>
        <time>2021-09-07T10:31:16Z</time>
      </trkpt>
      <trkpt lat="44.50393" lon="5.4911">
        <ele>1040.1</ele>
        <time>2021-09-07T10:31:17Z</time>
      </trkpt>
      <trkpt lat="44.50393" lon="5.4911">
        <ele>1040.1</ele>
        <time>2021-09-07T10:31:18Z</time>
      </trkpt>
      <trkpt lat="44.50393" lon="5.4911">
        <ele>1040.1</ele>
        <time>2021-09-07T10:31:19Z</time>
      </trkpt>
      <trkpt lat="44.50393" lon="5.4911">
        <ele>1040.1</ele>
        <time>2021-09-07T10:31:20Z</time>
      </trkpt>
      <trkpt lat="44.50393" lon="5.4911">
        <ele>1040.1</ele>
        <time>2021-09-07T10:31:21Z</time>
      </trkpt>
      <trkpt lat="44.50393" lon="5.4911">
        <ele>1040.1</ele>
        <time>2021-09-07T10:31:22Z</time>
      </trkpt>
      <trkpt lat="44.50393" lon="5.4911">
        <ele>1040.1</ele>
        <time>2021-09-07T10:31:23Z</time>
      </trkpt>
      <trkpt lat="44.50393" lon="5.4911">
        <ele>1040.1</ele>
        <time>2021-09-07T10:31:24Z</time>
      </trkpt>
      <trkpt lat="44.50393" lon="5.4911">
        <ele>1040.1</ele>
        <time>2021-09-07T10:31:25Z</time>
      </trkpt>
      <trkpt lat="44.50393" lon="5.4911">
        <ele>1040.1</ele>
        <time>2021-09-07T10:31:26Z</time>
      </trkpt>
      <trkpt lat="44.50393" lon="5.4911">
        <ele>1040.1</ele>
        <time>2021-09-07T10:31:27Z</time>
      </trkpt>
      <trkpt lat="44.50393" lon="5.4911">
        <ele>1040.1</ele>
        <time>2021-09-07T10:31:28Z</time>
      </trkpt>
      <trkpt lat="44.50393" lon="5.4911">
        <ele>1040.1</ele>
        <time>2021-09-07T10:31:29Z</time>
      </trkpt>
      <trkpt lat="44.50393" lon="5.4911">
        <ele>1040.1</ele>
        <time>2021-09-07T10:31:30Z</time>
      </trkpt>
      <trkpt lat="44.50393" lon="5.4911">
        <ele>1040.1</ele>
        <time>2021-09-07T10:31:31Z</time>
      </trkpt>
      <trkpt lat="44.50393" lon="5.4911">
        <ele>1040.1</ele>
        <time>2021-09-07T10:31:32Z</time>
      </trkpt>
      <trkpt lat="44.50393" lon="5.4911">
        <ele>1040.1</ele>
        <time>2021-09-07T10:31:33Z</time>
      </trkpt>
      <trkpt lat="44.50393" lon="5.4911">
        <ele>1040.1</ele>
        <time>2021-09-07T10:31:34Z</time>
      </trkpt>
      <trkpt lat="44.50393" lon="5.4911">
        <ele>1040.1</ele>
        <time>2021-09-07T10:31:35Z</time>
      </trkpt>
      <trkpt lat="44.50393" lon="5.4911">
        <ele>1040.1</ele>
        <time>2021-09-07T10:31:36Z</time>
      </trkpt>
      <trkpt lat="44.50393" lon="5.4911">
        <ele>1040.1</ele>
        <time>2021-09-07T10:31:37Z</time>
      </trkpt>
      <trkpt lat="44.50393" lon="5.4911">
        <ele>1040.1</ele>
        <time>2021-09-07T10:31:38Z</time>
      </trkpt>
      <trkpt lat="44.50393" lon="5.4911">
        <ele>1040.1</ele>
        <time>2021-09-07T10:31:39Z</time>
      </trkpt>
      <trkpt lat="44.50393" lon="5.4911">
        <ele>1040.1</ele>
        <time>2021-09-07T10:31:40Z</time>
      </trkpt>
      <trkpt lat="44.50393" lon="5.4911">
        <ele>1040.1</ele>
        <time>2021-09-07T10:31:41Z</time>
      </trkpt>
      <trkpt lat="44.50393" lon="5.4911">
        <ele>1040.1</ele>
        <time>2021-09-07T10:31:42Z</time>
      </trkpt>
      <trkpt lat="44.50393" lon="5.4911">
        <ele>1040.1</ele>
        <time>2021-09-07T10:31:43Z</time>
      </trkpt>
      <trkpt lat="44.50393" lon="5.4911">
        <ele>1040.1</ele>
        <time>2021-09-07T10:31:44Z</time>
      </trkpt>
      <trkpt lat="44.50393" lon="5.4911">
        <ele>1040.1</ele>
        <time>2021-09-07T10:31:45Z</time>
      </trkpt>
      <trkpt lat="44.50393" lon="5.4911">
        <ele>1040.1</ele>
        <time>2021-09-07T10:31:46Z</time>
      </trkpt>
      <trkpt lat="44.50393" lon="5.4911">
        <ele>1040.1</ele>
        <time>2021-09-07T10:31:47Z</time>
      </trkpt>
      <trkpt lat="44.50394" lon="5.49111">
        <ele>1040.2</ele>
        <time>2021-09-07T10:31:48Z</time>
      </trkpt>
      <trkpt lat="44.50394" lon="5.49112">
        <ele>1040.2</ele>
        <time>2021-09-07T10:31:49Z</time>
      </trkpt>
      <trkpt lat="44.50394" lon="5.49114">
        <ele>1040.3</ele>
        <time>2021-09-07T10:31:50Z</time>
      </trkpt>
      <trkpt lat="44.50395" lon="5.49117">
        <ele>1040.5</ele>
        <time>2021-09-07T10:31:51Z</time>
      </trkpt>
      <trkpt lat="44.50396" lon="5.49118">
        <ele>1040.5</ele>
        <time>2021-09-07T10:31:52Z</time>
      </trkpt>
      <trkpt lat="44.50396" lon="5.49119">
        <ele>1040.6</ele>
        <time>2021-09-07T10:31:53Z</time>
      </trkpt>
      <trkpt lat="44.50397" lon="5.4912">
        <ele>1040.6</ele>
        <time>2021-09-07T10:31:54Z</time>
      </trkpt>
      <trkpt lat="44.50397" lon="5.49121">
        <ele>1040.7</ele>
        <time>2021-09-07T10:31:55Z</time>
      </trkpt>
      <trkpt lat="44.50398" lon="5.49122">
        <ele>1040.7</ele>
        <time>2021-09-07T10:31:56Z</time>
      </trkpt>
      <trkpt lat="44.50398" lon="5.49122">
        <ele>1040.8</ele>
        <time>2021-09-07T10:31:57Z</time>
      </trkpt>
      <trkpt lat="44.50399" lon="5.49123">
        <ele>1040.8</ele>
        <time>2021-09-07T10:31:58Z</time>
      </trkpt>
      <trkpt lat="44.50399" lon="5.49123">
        <ele>1040.8</ele>
        <time>2021-09-07T10:31:59Z</time>
      </trkpt>
      <trkpt lat="44.50401" lon="5.49125">
        <ele>1041</ele>
        <time>2021-09-07T10:32:00Z</time>
      </trkpt>
      <trkpt lat="44.50402" lon="5.49126">
        <ele>1041.1</ele>
        <time>2021-09-07T10:32:01Z</time>
      </trkpt>
      <trkpt lat="44.50403" lon="5.49127">
        <ele>1041.1</ele>
        <time>2021-09-07T10:32:02Z</time>
      </trkpt>
      <trkpt lat="44.50404" lon="5.49129">
        <ele>1041.2</ele>
        <time>2021-09-07T10:32:03Z</time>
      </trkpt>
      <trkpt lat="44.50405" lon="5.4913">
        <ele>1041.3</ele>
        <time>2021-09-07T10:32:04Z</time>
      </trkpt>
      <trkpt lat="44.50408" lon="5.49133">
        <ele>1041.5</ele>
        <time>2021-09-07T10:32:05Z</time>
      </trkpt>
      <trkpt lat="44.50412" lon="5.49136">
        <ele>1041.8</ele>
        <time>2021-09-07T10:32:06Z</time>
      </trkpt>
      <trkpt lat="44.50414" lon="5.49137">
        <ele>1041.9</ele>
        <time>2021-09-07T10:32:07Z</time>
      </trkpt>
      <trkpt lat="44.50416" lon="5.49139">
        <ele>1042.1</ele>
        <time>2021-09-07T10:32:08Z</time>
      </trkpt>
      <trkpt lat="44.50419" lon="5.49142">
        <ele>1042.3</ele>
        <time>2021-09-07T10:32:09Z</time>
      </trkpt>
      <trkpt lat="44.50422" lon="5.49144">
        <ele>1042.5</ele>
        <time>2021-09-07T10:32:10Z</time>
      </trkpt>
      <trkpt lat="44.50425" lon="5.49147">
        <ele>1042.7</ele>
        <time>2021-09-07T10:32:11Z</time>
      </trkpt>
      <trkpt lat="44.50427" lon="5.49149">
        <ele>1042.9</ele>
        <time>2021-09-07T10:32:12Z</time>
      </trkpt>
      <trkpt lat="44.50429" lon="5.49151">
        <ele>1043.1</ele>
        <time>2021-09-07T10:32:13Z</time>
      </trkpt>
      <trkpt lat="44.50431" lon="5.49153">
        <ele>1043.2</ele>
        <time>2021-09-07T10:32:14Z</time>
      </trkpt>
      <trkpt lat="44.50434" lon="5.49156">
        <ele>1043.4</ele>
        <time>2021-09-07T10:32:15Z</time>
      </trkpt>
      <trkpt lat="44.50436" lon="5.49158">
        <ele>1043.6</ele>
        <time>2021-09-07T10:32:16Z</time>
      </trkpt>
      <trkpt lat="44.50438" lon="5.49161">
        <ele>1043.8</ele>
        <time>2021-09-07T10:32:17Z</time>
      </trkpt>
      <trkpt lat="44.5044" lon="5.49163">
        <ele>1043.9</ele>
        <time>2021-09-07T10:32:18Z</time>
      </trkpt>
      <trkpt lat="44.50442" lon="5.49165">
        <ele>1044.1</ele>
        <time>2021-09-07T10:32:19Z</time>
      </trkpt>
      <trkpt lat="44.50444" lon="5.49167">
        <ele>1044.2</ele>
        <time>2021-09-07T10:32:20Z</time>
      </trkpt>
      <trkpt lat="44.50446" lon="5.49168">
        <ele>1044.3</ele>
        <time>2021-09-07T10:32:21Z</time>
      </trkpt>
      <trkpt lat="44.50448" lon="5.4917">
        <ele>1044.5</ele>
        <time>2021-09-07T10:32:22Z</time>
      </trkpt>
      <trkpt lat="44.5045" lon="5.49171">
        <ele>1044.6</ele>
        <time>2021-09-07T10:32:23Z</time>
      </trkpt>
      <trkpt lat="44.50452" lon="5.49172">
        <ele>1044.7</ele>
        <time>2021-09-07T10:32:24Z</time>
      </trkpt>
      <trkpt lat="44.50454" lon="5.49173">
        <ele>1044.8</ele>
        <time>2021-09-07T10:32:25Z</time>
      </trkpt>
      <trkpt lat="44.50455" lon="5.49174">
        <ele>1044.9</ele>
        <time>2021-09-07T10:32:26Z</time>
      </trkpt>
      <trkpt lat="44.50457" lon="5.49175">
        <ele>1045.1</ele>
        <time>2021-09-07T10:32:27Z</time>
      </trkpt>
      <trkpt lat="44.50459" lon="5.49176">
        <ele>1045.2</ele>
        <time>2021-09-07T10:32:28Z</time>
      </trkpt>
      <trkpt lat="44.5046" lon="5.49177">
        <ele>1045.3</ele>
        <time>2021-09-07T10:32:29Z</time>
      </trkpt>
      <trkpt lat="44.50462" lon="5.49178">
        <ele>1045.4</ele>
        <time>2021-09-07T10:32:30Z</time>
      </trkpt>
      <trkpt lat="44.50463" lon="5.49179">
        <ele>1045.5</ele>
        <time>2021-09-07T10:32:31Z</time>
      </trkpt>
      <trkpt lat="44.50464" lon="5.4918">
        <ele>1045.6</ele>
        <time>2021-09-07T10:32:32Z</time>
      </trkpt>
      <trkpt lat="44.50466" lon="5.49181">
        <ele>1045.7</ele>
        <time>2021-09-07T10:32:33Z</time>
      </trkpt>
      <trkpt lat="44.50467" lon="5.49182">
        <ele>1045.8</ele>
        <time>2021-09-07T10:32:34Z</time>
      </trkpt>
      <trkpt lat="44.50468" lon="5.49184">
        <ele>1045.9</ele>
        <time>2021-09-07T10:32:35Z</time>
      </trkpt>
      <trkpt lat="44.5047" lon="5.49185">
        <ele>1046</ele>
        <time>2021-09-07T10:32:36Z</time>
      </trkpt>
      <trkpt lat="44.50471" lon="5.49185">
        <ele>1046.1</ele>
        <time>2021-09-07T10:32:37Z</time>
      </trkpt>
      <trkpt lat="44.50472" lon="5.49186">
        <ele>1046.1</ele>
        <time>2021-09-07T10:32:38Z</time>
      </trkpt>
      <trkpt lat="44.50474" lon="5.49188">
        <ele>1046.3</ele>
        <time>2021-09-07T10:32:39Z</time>
      </trkpt>
      <trkpt lat="44.50475" lon="5.4919">
        <ele>1046.4</ele>
        <time>2021-09-07T10:32:40Z</time>
      </trkpt>
      <trkpt lat="44.50475" lon="5.49191">
        <ele>1046.4</ele>
        <time>2021-09-07T10:32:41Z</time>
      </trkpt>
      <trkpt lat="44.50476" lon="5.49193">
        <ele>1046.5</ele>
        <time>2021-09-07T10:32:42Z</time>
      </trkpt>
      <trkpt lat="44.50476" lon="5.49195">
        <ele>1046.6</ele>
        <time>2021-09-07T10:32:43Z</time>
      </trkpt>
      <trkpt lat="44.50476" lon="5.49196">
        <ele>1046.6</ele>
        <time>2021-09-07T10:32:44Z</time>
      </trkpt>
      <trkpt lat="44.50476" lon="5.49196">
        <ele>1046.7</ele>
        <time>2021-09-07T10:32:45Z</time>
      </trkpt>
      <trkpt lat="44.50476" lon="5.49197">
        <ele>1046.7</ele>
        <time>2021-09-07T10:32:46Z</time>
      </trkpt>
      <trkpt lat="44.50477" lon="5.492">
        <ele>1046.9</ele>
        <time>2021-09-07T10:32:47Z</time>
      </trkpt>
      <trkpt lat="44.50478" lon="5.49202">
        <ele>1047</ele>
        <time>2021-09-07T10:32:48Z</time>
      </trkpt>
      <trkpt lat="44.50479" lon="5.49202">
        <ele>1047</ele>
        <time>2021-09-07T10:32:49Z</time>
      </trkpt>
      <trkpt lat="44.50479" lon="5.49203">
        <ele>1047.1</ele>
        <time>2021-09-07T10:32:50Z</time>
      </trkpt>
      <trkpt lat="44.5048" lon="5.49204">
        <ele>1047.1</ele>
        <time>2021-09-07T10:32:51Z</time>
      </trkpt>
      <trkpt lat="44.5048" lon="5.49204">
        <ele>1047.1</ele>
        <time>2021-09-07T10:32:52Z</time>
      </trkpt>
      <trkpt lat="44.5048" lon="5.49207">
        <ele>1047.3</ele>
        <time>2021-09-07T10:32:53Z</time>
      </trkpt>
      <trkpt lat="44.50482" lon="5.4921">
        <ele>1047.4</ele>
        <time>2021-09-07T10:32:54Z</time>
      </trkpt>
      <trkpt lat="44.50482" lon="5.49213">
        <ele>1047.6</ele>
        <time>2021-09-07T10:32:55Z</time>
      </trkpt>
      <trkpt lat="44.50483" lon="5.49215">
        <ele>1047.7</ele>
        <time>2021-09-07T10:32:56Z</time>
      </trkpt>
      <trkpt lat="44.50483" lon="5.49217">
        <ele>1047.8</ele>
        <time>2021-09-07T10:32:57Z</time>
      </trkpt>
      <trkpt lat="44.50483" lon="5.4922">
        <ele>1047.9</ele>
        <time>2021-09-07T10:32:58Z</time>
      </trkpt>
      <trkpt lat="44.50482" lon="5.49224">
        <ele>1048.1</ele>
        <time>2021-09-07T10:32:59Z</time>
      </trkpt>
      <trkpt lat="44.50483" lon="5.49228">
        <ele>1048.2</ele>
        <time>2021-09-07T10:33:00Z</time>
      </trkpt>
      <trkpt lat="44.50483" lon="5.49231">
        <ele>1048.4</ele>
        <time>2021-09-07T10:33:01Z</time>
      </trkpt>
      <trkpt lat="44.50483" lon="5.49235">
        <ele>1048.5</ele>
        <time>2021-09-07T10:33:02Z</time>
      </trkpt>
      <trkpt lat="44.50483" lon="5.49238">
        <ele>1048.7</ele>
        <time>2021-09-07T10:33:03Z</time>
      </trkpt>
      <trkpt lat="44.50483" lon="5.49241">
        <ele>1048.8</ele>
        <time>2021-09-07T10:33:04Z</time>
      </trkpt>
      <trkpt lat="44.50483" lon="5.49244">
        <ele>1049</ele>
        <time>2021-09-07T10:33:05Z</time>
      </trkpt>
      <trkpt lat="44.50484" lon="5.49247">
        <ele>1049.1</ele>
        <time>2021-09-07T10:33:06Z</time>
      </trkpt>
      <trkpt lat="44.50484" lon="5.4925">
        <ele>1049.2</ele>
        <time>2021-09-07T10:33:07Z</time>
      </trkpt>
      <trkpt lat="44.50484" lon="5.49254">
        <ele>1049.4</ele>
        <time>2021-09-07T10:33:08Z</time>
      </trkpt>
      <trkpt lat="44.50484" lon="5.49257">
        <ele>1049.5</ele>
        <time>2021-09-07T10:33:09Z</time>
      </trkpt>
      <trkpt lat="44.50484" lon="5.49263">
        <ele>1049.8</ele>
        <time>2021-09-07T10:33:10Z</time>
      </trkpt>
      <trkpt lat="44.50485" lon="5.49266">
        <ele>1049.9</ele>
        <time>2021-09-07T10:33:11Z</time>
      </trkpt>
      <trkpt lat="44.50485" lon="5.4927">
        <ele>1050.1</ele>
        <time>2021-09-07T10:33:12Z</time>
      </trkpt>
      <trkpt lat="44.50485" lon="5.49273">
        <ele>1050.2</ele>
        <time>2021-09-07T10:33:13Z</time>
      </trkpt>
      <trkpt lat="44.50486" lon="5.49278">
        <ele>1050.5</ele>
        <time>2021-09-07T10:33:14Z</time>
      </trkpt>
      <trkpt lat="44.50486" lon="5.49281">
        <ele>1050.6</ele>
        <time>2021-09-07T10:33:15Z</time>
      </trkpt>
      <trkpt lat="44.50486" lon="5.49283">
        <ele>1050.7</ele>
        <time>2021-09-07T10:33:16Z</time>
      </trkpt>
      <trkpt lat="44.50487" lon="5.49287">
        <ele>1050.9</ele>
        <time>2021-09-07T10:33:17Z</time>
      </trkpt>
      <trkpt lat="44.50487" lon="5.49289">
        <ele>1050.9</ele>
        <time>2021-09-07T10:33:18Z</time>
      </trkpt>
      <trkpt lat="44.50487" lon="5.4929">
        <ele>1051</ele>
        <time>2021-09-07T10:33:19Z</time>
      </trkpt>
      <trkpt lat="44.50488" lon="5.4929">
        <ele>1051</ele>
        <time>2021-09-07T10:33:20Z</time>
      </trkpt>
      <trkpt lat="44.50488" lon="5.4929">
        <ele>1051.1</ele>
        <time>2021-09-07T10:33:21Z</time>
      </trkpt>
      <trkpt lat="44.50488" lon="5.4929">
        <ele>1051.1</ele>
        <time>2021-09-07T10:33:22Z</time>
      </trkpt>
      <trkpt lat="44.50488" lon="5.4929">
        <ele>1051.1</ele>
        <time>2021-09-07T10:33:23Z</time>
      </trkpt>
      <trkpt lat="44.50488" lon="5.49291">
        <ele>1051.1</ele>
        <time>2021-09-07T10:33:24Z</time>
      </trkpt>
      <trkpt lat="44.50488" lon="5.49291">
        <ele>1051.1</ele>
        <time>2021-09-07T10:33:25Z</time>
      </trkpt>
      <trkpt lat="44.50488" lon="5.49291">
        <ele>1051.1</ele>
        <time>2021-09-07T10:33:26Z</time>
      </trkpt>
      <trkpt lat="44.50488" lon="5.49291">
        <ele>1051.1</ele>
        <time>2021-09-07T10:33:27Z</time>
      </trkpt>
      <trkpt lat="44.50488" lon="5.49291">
        <ele>1051.1</ele>
        <time>2021-09-07T10:33:28Z</time>
      </trkpt>
      <trkpt lat="44.50488" lon="5.49291">
        <ele>1051.1</ele>
        <time>2021-09-07T10:33:29Z</time>
      </trkpt>
      <trkpt lat="44.50488" lon="5.49291">
        <ele>1051.1</ele>
        <time>2021-09-07T10:33:30Z</time>
      </trkpt>
      <trkpt lat="44.50488" lon="5.49291">
        <ele>1051.1</ele>
        <time>2021-09-07T10:33:31Z</time>
      </trkpt>
      <trkpt lat="44.50489" lon="5.49292">
        <ele>1051.2</ele>
        <time>2021-09-07T10:33:32Z</time>
      </trkpt>
      <trkpt lat="44.50489" lon="5.49293">
        <ele>1051.2</ele>
        <time>2021-09-07T10:33:33Z</time>
      </trkpt>
      <trkpt lat="44.5049" lon="5.49295">
        <ele>1051.3</ele>
        <time>2021-09-07T10:33:34Z</time>
      </trkpt>
      <trkpt lat="44.5049" lon="5.49297">
        <ele>1051.4</ele>
        <time>2021-09-07T10:33:35Z</time>
      </trkpt>
      <trkpt lat="44.50491" lon="5.49298">
        <ele>1051.5</ele>
        <time>2021-09-07T10:33:36Z</time>
      </trkpt>
      <trkpt lat="44.50491" lon="5.49299">
        <ele>1051.5</ele>
        <time>2021-09-07T10:33:37Z</time>
      </trkpt>
      <trkpt lat="44.50492" lon="5.493">
        <ele>1051.6</ele>
        <time>2021-09-07T10:33:38Z</time>
      </trkpt>
      <trkpt lat="44.50492" lon="5.49301">
        <ele>1051.6</ele>
        <time>2021-09-07T10:33:39Z</time>
      </trkpt>
      <trkpt lat="44.50492" lon="5.49302">
        <ele>1051.7</ele>
        <time>2021-09-07T10:33:40Z</time>
      </trkpt>
      <trkpt lat="44.50492" lon="5.49303">
        <ele>1051.7</ele>
        <time>2021-09-07T10:33:41Z</time>
      </trkpt>
      <trkpt lat="44.50492" lon="5.49304">
        <ele>1051.7</ele>
        <time>2021-09-07T10:33:42Z</time>
      </trkpt>
      <trkpt lat="44.50492" lon="5.49304">
        <ele>1051.8</ele>
        <time>2021-09-07T10:33:43Z</time>
      </trkpt>
      <trkpt lat="44.50492" lon="5.49305">
        <ele>1051.8</ele>
        <time>2021-09-07T10:33:44Z</time>
      </trkpt>
      <trkpt lat="44.50492" lon="5.49305">
        <ele>1051.8</ele>
        <time>2021-09-07T10:33:45Z</time>
      </trkpt>
      <trkpt lat="44.50492" lon="5.49305">
        <ele>1051.8</ele>
        <time>2021-09-07T10:33:46Z</time>
      </trkpt>
      <trkpt lat="44.50493" lon="5.49306">
        <ele>1051.9</ele>
        <time>2021-09-07T10:33:47Z</time>
      </trkpt>
      <trkpt lat="44.50493" lon="5.49306">
        <ele>1051.9</ele>
        <time>2021-09-07T10:33:48Z</time>
      </trkpt>
      <trkpt lat="44.50493" lon="5.49306">
        <ele>1051.9</ele>
        <time>2021-09-07T10:33:49Z</time>
      </trkpt>
      <trkpt lat="44.50493" lon="5.49306">
        <ele>1051.9</ele>
        <time>2021-09-07T10:33:50Z</time>
      </trkpt>
      <trkpt lat="44.50493" lon="5.49307">
        <ele>1051.9</ele>
        <time>2021-09-07T10:33:51Z</time>
      </trkpt>
      <trkpt lat="44.50493" lon="5.49307">
        <ele>1051.9</ele>
        <time>2021-09-07T10:33:52Z</time>
      </trkpt>
      <trkpt lat="44.50493" lon="5.49307">
        <ele>1051.9</ele>
        <time>2021-09-07T10:33:53Z</time>
      </trkpt>
      <trkpt lat="44.50493" lon="5.49307">
        <ele>1051.9</ele>
        <time>2021-09-07T10:33:54Z</time>
      </trkpt>
      <trkpt lat="44.50493" lon="5.49307">
        <ele>1051.9</ele>
        <time>2021-09-07T10:33:55Z</time>
      </trkpt>
      <trkpt lat="44.50493" lon="5.49307">
        <ele>1051.9</ele>
        <time>2021-09-07T10:33:56Z</time>
      </trkpt>
      <trkpt lat="44.50493" lon="5.49307">
        <ele>1051.9</ele>
        <time>2021-09-07T10:33:57Z</time>
      </trkpt>
      <trkpt lat="44.50493" lon="5.49307">
        <ele>1051.9</ele>
        <time>2021-09-07T10:33:58Z</time>
      </trkpt>
      <trkpt lat="44.50493" lon="5.49307">
        <ele>1051.9</ele>
        <time>2021-09-07T10:33:59Z</time>
      </trkpt>
      <trkpt lat="44.50494" lon="5.49309">
        <ele>1052</ele>
        <time>2021-09-07T10:34:00Z</time>
      </trkpt>
      <trkpt lat="44.50494" lon="5.4931">
        <ele>1052.1</ele>
        <time>2021-09-07T10:34:01Z</time>
      </trkpt>
      <trkpt lat="44.50495" lon="5.49311">
        <ele>1052.1</ele>
        <time>2021-09-07T10:34:02Z</time>
      </trkpt>
      <trkpt lat="44.50495" lon="5.49312">
        <ele>1052.2</ele>
        <time>2021-09-07T10:34:03Z</time>
      </trkpt>
      <trkpt lat="44.50495" lon="5.49314">
        <ele>1052.3</ele>
        <time>2021-09-07T10:34:04Z</time>
      </trkpt>
      <trkpt lat="44.50495" lon="5.49316">
        <ele>1052.3</ele>
        <time>2021-09-07T10:34:05Z</time>
      </trkpt>
      <trkpt lat="44.50495" lon="5.49317">
        <ele>1052.4</ele>
        <time>2021-09-07T10:34:06Z</time>
      </trkpt>
      <trkpt lat="44.50496" lon="5.49318">
        <ele>1052.5</ele>
        <time>2021-09-07T10:34:07Z</time>
      </trkpt>
      <trkpt lat="44.50496" lon="5.49319">
        <ele>1052.5</ele>
        <time>2021-09-07T10:34:08Z</time>
      </trkpt>
      <trkpt lat="44.50496" lon="5.4932">
        <ele>1052.6</ele>
        <time>2021-09-07T10:34:09Z</time>
      </trkpt>
      <trkpt lat="44.50496" lon="5.49321">
        <ele>1052.6</ele>
        <time>2021-09-07T10:34:10Z</time>
      </trkpt>
      <trkpt lat="44.50497" lon="5.49321">
        <ele>1052.7</ele>
        <time>2021-09-07T10:34:11Z</time>
      </trkpt>
      <trkpt lat="44.50497" lon="5.49322">
        <ele>1052.7</ele>
        <time>2021-09-07T10:34:12Z</time>
      </trkpt>
      <trkpt lat="44.50497" lon="5.49322">
        <ele>1052.7</ele>
        <time>2021-09-07T10:34:13Z</time>
      </trkpt>
      <trkpt lat="44.50497" lon="5.49322">
        <ele>1052.7</ele>
        <time>2021-09-07T10:34:14Z</time>
      </trkpt>
      <trkpt lat="44.50497" lon="5.49324">
        <ele>1052.8</ele>
        <time>2021-09-07T10:34:15Z</time>
      </trkpt>
      <trkpt lat="44.50497" lon="5.49325">
        <ele>1052.8</ele>
        <time>2021-09-07T10:34:16Z</time>
      </trkpt>
      <trkpt lat="44.50497" lon="5.49327">
        <ele>1052.9</ele>
        <time>2021-09-07T10:34:17Z</time>
      </trkpt>
      <trkpt lat="44.50498" lon="5.49329">
        <ele>1053</ele>
        <time>2021-09-07T10:34:18Z</time>
      </trkpt>
      <trkpt lat="44.50498" lon="5.49331">
        <ele>1053.1</ele>
        <time>2021-09-07T10:34:19Z</time>
      </trkpt>
      <trkpt lat="44.50498" lon="5.49332">
        <ele>1053.2</ele>
        <time>2021-09-07T10:34:20Z</time>
      </trkpt>
      <trkpt lat="44.50498" lon="5.49333">
        <ele>1053.2</ele>
        <time>2021-09-07T10:34:21Z</time>
      </trkpt>
      <trkpt lat="44.50498" lon="5.49334">
        <ele>1053.2</ele>
        <time>2021-09-07T10:34:22Z</time>
      </trkpt>
      <trkpt lat="44.50498" lon="5.49335">
        <ele>1053.3</ele>
        <time>2021-09-07T10:34:23Z</time>
      </trkpt>
      <trkpt lat="44.50498" lon="5.49336">
        <ele>1053.3</ele>
        <time>2021-09-07T10:34:24Z</time>
      </trkpt>
      <trkpt lat="44.50499" lon="5.49337">
        <ele>1053.4</ele>
        <time>2021-09-07T10:34:25Z</time>
      </trkpt>
      <trkpt lat="44.50499" lon="5.49337">
        <ele>1053.4</ele>
        <time>2021-09-07T10:34:26Z</time>
      </trkpt>
      <trkpt lat="44.50499" lon="5.49338">
        <ele>1053.4</ele>
        <time>2021-09-07T10:34:27Z</time>
      </trkpt>
      <trkpt lat="44.50499" lon="5.49339">
        <ele>1053.5</ele>
        <time>2021-09-07T10:34:28Z</time>
      </trkpt>
      <trkpt lat="44.50499" lon="5.49339">
        <ele>1053.5</ele>
        <time>2021-09-07T10:34:29Z</time>
      </trkpt>
      <trkpt lat="44.50499" lon="5.49341">
        <ele>1053.6</ele>
        <time>2021-09-07T10:34:30Z</time>
      </trkpt>
      <trkpt lat="44.50499" lon="5.49343">
        <ele>1053.7</ele>
        <time>2021-09-07T10:34:31Z</time>
      </trkpt>
      <trkpt lat="44.50499" lon="5.49345">
        <ele>1053.8</ele>
        <time>2021-09-07T10:34:32Z</time>
      </trkpt>
      <trkpt lat="44.505" lon="5.49347">
        <ele>1053.9</ele>
        <time>2021-09-07T10:34:33Z</time>
      </trkpt>
      <trkpt lat="44.505" lon="5.49348">
        <ele>1053.9</ele>
        <time>2021-09-07T10:34:34Z</time>
      </trkpt>
      <trkpt lat="44.505" lon="5.49349">
        <ele>1053.9</ele>
        <time>2021-09-07T10:34:35Z</time>
      </trkpt>
      <trkpt lat="44.505" lon="5.4935">
        <ele>1054</ele>
        <time>2021-09-07T10:34:36Z</time>
      </trkpt>
      <trkpt lat="44.505" lon="5.49351">
        <ele>1054</ele>
        <time>2021-09-07T10:34:37Z</time>
      </trkpt>
      <trkpt lat="44.505" lon="5.49352">
        <ele>1054.1</ele>
        <time>2021-09-07T10:34:38Z</time>
      </trkpt>
      <trkpt lat="44.505" lon="5.49353">
        <ele>1054.1</ele>
        <time>2021-09-07T10:34:39Z</time>
      </trkpt>
      <trkpt lat="44.50501" lon="5.49353">
        <ele>1054.1</ele>
        <time>2021-09-07T10:34:40Z</time>
      </trkpt>
      <trkpt lat="44.50501" lon="5.49353">
        <ele>1054.2</ele>
        <time>2021-09-07T10:34:41Z</time>
      </trkpt>
      <trkpt lat="44.50501" lon="5.49355">
        <ele>1054.3</ele>
        <time>2021-09-07T10:34:42Z</time>
      </trkpt>
      <trkpt lat="44.505" lon="5.49357">
        <ele>1054.4</ele>
        <time>2021-09-07T10:34:43Z</time>
      </trkpt>
      <trkpt lat="44.505" lon="5.4936">
        <ele>1054.5</ele>
        <time>2021-09-07T10:34:44Z</time>
      </trkpt>
      <trkpt lat="44.505" lon="5.49363">
        <ele>1054.6</ele>
        <time>2021-09-07T10:34:45Z</time>
      </trkpt>
      <trkpt lat="44.505" lon="5.49365">
        <ele>1054.7</ele>
        <time>2021-09-07T10:34:46Z</time>
      </trkpt>
      <trkpt lat="44.505" lon="5.49366">
        <ele>1054.8</ele>
        <time>2021-09-07T10:34:47Z</time>
      </trkpt>
      <trkpt lat="44.505" lon="5.49367">
        <ele>1054.8</ele>
        <time>2021-09-07T10:34:48Z</time>
      </trkpt>
      <trkpt lat="44.505" lon="5.49368">
        <ele>1054.8</ele>
        <time>2021-09-07T10:34:49Z</time>
      </trkpt>
      <trkpt lat="44.505" lon="5.49369">
        <ele>1054.9</ele>
        <time>2021-09-07T10:34:50Z</time>
      </trkpt>
      <trkpt lat="44.505" lon="5.4937">
        <ele>1054.9</ele>
        <time>2021-09-07T10:34:51Z</time>
      </trkpt>
      <trkpt lat="44.50501" lon="5.49371">
        <ele>1055</ele>
        <time>2021-09-07T10:34:52Z</time>
      </trkpt>
      <trkpt lat="44.50501" lon="5.49371">
        <ele>1055</ele>
        <time>2021-09-07T10:34:53Z</time>
      </trkpt>
      <trkpt lat="44.50502" lon="5.49374">
        <ele>1055.2</ele>
        <time>2021-09-07T10:34:54Z</time>
      </trkpt>
      <trkpt lat="44.50503" lon="5.49376">
        <ele>1055.2</ele>
        <time>2021-09-07T10:34:55Z</time>
      </trkpt>
      <trkpt lat="44.50503" lon="5.49377">
        <ele>1055.3</ele>
        <time>2021-09-07T10:34:56Z</time>
      </trkpt>
      <trkpt lat="44.50503" lon="5.4938">
        <ele>1055.4</ele>
        <time>2021-09-07T10:34:57Z</time>
      </trkpt>
      <trkpt lat="44.50503" lon="5.49381">
        <ele>1055.5</ele>
        <time>2021-09-07T10:34:58Z</time>
      </trkpt>
      <trkpt lat="44.50503" lon="5.49382">
        <ele>1055.5</ele>
        <time>2021-09-07T10:34:59Z</time>
      </trkpt>
      <trkpt lat="44.50504" lon="5.49384">
        <ele>1055.6</ele>
        <time>2021-09-07T10:35:00Z</time>
      </trkpt>
      <trkpt lat="44.50504" lon="5.49385">
        <ele>1055.6</ele>
        <time>2021-09-07T10:35:01Z</time>
      </trkpt>
      <trkpt lat="44.50504" lon="5.49385">
        <ele>1055.7</ele>
        <time>2021-09-07T10:35:02Z</time>
      </trkpt>
      <trkpt lat="44.50504" lon="5.49386">
        <ele>1055.7</ele>
        <time>2021-09-07T10:35:03Z</time>
      </trkpt>
      <trkpt lat="44.50504" lon="5.49387">
        <ele>1055.8</ele>
        <time>2021-09-07T10:35:04Z</time>
      </trkpt>
      <trkpt lat="44.50505" lon="5.49389">
        <ele>1055.9</ele>
        <time>2021-09-07T10:35:05Z</time>
      </trkpt>
      <trkpt lat="44.50506" lon="5.49391">
        <ele>1056</ele>
        <time>2021-09-07T10:35:06Z</time>
      </trkpt>
      <trkpt lat="44.50507" lon="5.49393">
        <ele>1056.1</ele>
        <time>2021-09-07T10:35:07Z</time>
      </trkpt>
      <trkpt lat="44.50509" lon="5.49396">
        <ele>1056.2</ele>
        <time>2021-09-07T10:35:08Z</time>
      </trkpt>
      <trkpt lat="44.5051" lon="5.49397">
        <ele>1056.3</ele>
        <time>2021-09-07T10:35:09Z</time>
      </trkpt>
      <trkpt lat="44.5051" lon="5.49398">
        <ele>1056.4</ele>
        <time>2021-09-07T10:35:10Z</time>
      </trkpt>
      <trkpt lat="44.5051" lon="5.49399">
        <ele>1056.4</ele>
        <time>2021-09-07T10:35:11Z</time>
      </trkpt>
      <trkpt lat="44.50511" lon="5.494">
        <ele>1056.5</ele>
        <time>2021-09-07T10:35:12Z</time>
      </trkpt>
      <trkpt lat="44.50511" lon="5.494">
        <ele>1056.5</ele>
        <time>2021-09-07T10:35:13Z</time>
      </trkpt>
      <trkpt lat="44.50511" lon="5.49401">
        <ele>1056.5</ele>
        <time>2021-09-07T10:35:14Z</time>
      </trkpt>
      <trkpt lat="44.50511" lon="5.49401">
        <ele>1056.5</ele>
        <time>2021-09-07T10:35:15Z</time>
      </trkpt>
      <trkpt lat="44.50511" lon="5.49401">
        <ele>1056.5</ele>
        <time>2021-09-07T10:35:16Z</time>
      </trkpt>
      <trkpt lat="44.50511" lon="5.49402">
        <ele>1056.6</ele>
        <time>2021-09-07T10:35:17Z</time>
      </trkpt>
      <trkpt lat="44.50511" lon="5.49402">
        <ele>1056.6</ele>
        <time>2021-09-07T10:35:18Z</time>
      </trkpt>
      <trkpt lat="44.50511" lon="5.49402">
        <ele>1056.6</ele>
        <time>2021-09-07T10:35:19Z</time>
      </trkpt>
      <trkpt lat="44.50511" lon="5.49402">
        <ele>1056.6</ele>
        <time>2021-09-07T10:35:20Z</time>
      </trkpt>
      <trkpt lat="44.50512" lon="5.49403">
        <ele>1056.6</ele>
        <time>2021-09-07T10:35:21Z</time>
      </trkpt>
      <trkpt lat="44.50512" lon="5.49403">
        <ele>1056.6</ele>
        <time>2021-09-07T10:35:22Z</time>
      </trkpt>
      <trkpt lat="44.50512" lon="5.49405">
        <ele>1056.7</ele>
        <time>2021-09-07T10:35:23Z</time>
      </trkpt>
      <trkpt lat="44.50512" lon="5.49407">
        <ele>1056.8</ele>
        <time>2021-09-07T10:35:24Z</time>
      </trkpt>
      <trkpt lat="44.50513" lon="5.49408">
        <ele>1056.9</ele>
        <time>2021-09-07T10:35:25Z</time>
      </trkpt>
      <trkpt lat="44.50513" lon="5.49409">
        <ele>1056.9</ele>
        <time>2021-09-07T10:35:26Z</time>
      </trkpt>
      <trkpt lat="44.50513" lon="5.4941">
        <ele>1057</ele>
        <time>2021-09-07T10:35:27Z</time>
      </trkpt>
      <trkpt lat="44.50513" lon="5.49411">
        <ele>1057</ele>
        <time>2021-09-07T10:35:28Z</time>
      </trkpt>
      <trkpt lat="44.50513" lon="5.49412">
        <ele>1057</ele>
        <time>2021-09-07T10:35:29Z</time>
      </trkpt>
      <trkpt lat="44.50514" lon="5.49415">
        <ele>1057.2</ele>
        <time>2021-09-07T10:35:30Z</time>
      </trkpt>
      <trkpt lat="44.50514" lon="5.49417">
        <ele>1057.3</ele>
        <time>2021-09-07T10:35:31Z</time>
      </trkpt>
      <trkpt lat="44.50515" lon="5.4942">
        <ele>1057.4</ele>
        <time>2021-09-07T10:35:32Z</time>
      </trkpt>
      <trkpt lat="44.50515" lon="5.49422">
        <ele>1057.5</ele>
        <time>2021-09-07T10:35:33Z</time>
      </trkpt>
      <trkpt lat="44.50515" lon="5.49424">
        <ele>1057.6</ele>
        <time>2021-09-07T10:35:34Z</time>
      </trkpt>
      <trkpt lat="44.50515" lon="5.49426">
        <ele>1057.7</ele>
        <time>2021-09-07T10:35:35Z</time>
      </trkpt>
      <trkpt lat="44.50514" lon="5.49427">
        <ele>1057.8</ele>
        <time>2021-09-07T10:35:36Z</time>
      </trkpt>
      <trkpt lat="44.50514" lon="5.4943">
        <ele>1057.9</ele>
        <time>2021-09-07T10:35:37Z</time>
      </trkpt>
      <trkpt lat="44.50513" lon="5.49434">
        <ele>1058.1</ele>
        <time>2021-09-07T10:35:38Z</time>
      </trkpt>
      <trkpt lat="44.50513" lon="5.49436">
        <ele>1058.2</ele>
        <time>2021-09-07T10:35:39Z</time>
      </trkpt>
      <trkpt lat="44.50512" lon="5.49438">
        <ele>1058.3</ele>
        <time>2021-09-07T10:35:40Z</time>
      </trkpt>
      <trkpt lat="44.50511" lon="5.49439">
        <ele>1058.3</ele>
        <time>2021-09-07T10:35:41Z</time>
      </trkpt>
      <trkpt lat="44.50511" lon="5.4944">
        <ele>1058.4</ele>
        <time>2021-09-07T10:35:42Z</time>
      </trkpt>
      <trkpt lat="44.5051" lon="5.49441">
        <ele>1058.4</ele>
        <time>2021-09-07T10:35:43Z</time>
      </trkpt>
      <trkpt lat="44.5051" lon="5.49442">
        <ele>1058.5</ele>
        <time>2021-09-07T10:35:44Z</time>
      </trkpt>
      <trkpt lat="44.5051" lon="5.49443">
        <ele>1058.5</ele>
        <time>2021-09-07T10:35:45Z</time>
      </trkpt>
      <trkpt lat="44.50509" lon="5.49443">
        <ele>1058.6</ele>
        <time>2021-09-07T10:35:46Z</time>
      </trkpt>
      <trkpt lat="44.50508" lon="5.49444">
        <ele>1058.6</ele>
        <time>2021-09-07T10:35:47Z</time>
      </trkpt>
      <trkpt lat="44.50507" lon="5.49446">
        <ele>1058.7</ele>
        <time>2021-09-07T10:35:48Z</time>
      </trkpt>
      <trkpt lat="44.50506" lon="5.49447">
        <ele>1058.8</ele>
        <time>2021-09-07T10:35:49Z</time>
      </trkpt>
      <trkpt lat="44.50505" lon="5.49449">
        <ele>1058.9</ele>
        <time>2021-09-07T10:35:50Z</time>
      </trkpt>
      <trkpt lat="44.50504" lon="5.49451">
        <ele>1059</ele>
        <time>2021-09-07T10:35:51Z</time>
      </trkpt>
      <trkpt lat="44.50504" lon="5.49452">
        <ele>1059.1</ele>
        <time>2021-09-07T10:35:52Z</time>
      </trkpt>
      <trkpt lat="44.50504" lon="5.49453">
        <ele>1059.1</ele>
        <time>2021-09-07T10:35:53Z</time>
      </trkpt>
      <trkpt lat="44.50503" lon="5.49454">
        <ele>1059.2</ele>
        <time>2021-09-07T10:35:54Z</time>
      </trkpt>
      <trkpt lat="44.50503" lon="5.49455">
        <ele>1059.2</ele>
        <time>2021-09-07T10:35:55Z</time>
      </trkpt>
      <trkpt lat="44.50502" lon="5.49455">
        <ele>1059.3</ele>
        <time>2021-09-07T10:35:56Z</time>
      </trkpt>
      <trkpt lat="44.50502" lon="5.49456">
        <ele>1059.3</ele>
        <time>2021-09-07T10:35:57Z</time>
      </trkpt>
      <trkpt lat="44.50502" lon="5.49456">
        <ele>1059.3</ele>
        <time>2021-09-07T10:35:58Z</time>
      </trkpt>
      <trkpt lat="44.50502" lon="5.49457">
        <ele>1059.3</ele>
        <time>2021-09-07T10:35:59Z</time>
      </trkpt>
      <trkpt lat="44.50502" lon="5.49457">
        <ele>1059.3</ele>
        <time>2021-09-07T10:36:00Z</time>
      </trkpt>
      <trkpt lat="44.50501" lon="5.49457">
        <ele>1059.4</ele>
        <time>2021-09-07T10:36:01Z</time>
      </trkpt>
      <trkpt lat="44.50501" lon="5.49457">
        <ele>1059.4</ele>
        <time>2021-09-07T10:36:02Z</time>
      </trkpt>
      <trkpt lat="44.50501" lon="5.49457">
        <ele>1059.4</ele>
        <time>2021-09-07T10:36:03Z</time>
      </trkpt>
      <trkpt lat="44.50501" lon="5.49458">
        <ele>1059.5</ele>
        <time>2021-09-07T10:36:04Z</time>
      </trkpt>
      <trkpt lat="44.50501" lon="5.49458">
        <ele>1059.5</ele>
        <time>2021-09-07T10:36:05Z</time>
      </trkpt>
      <trkpt lat="44.50501" lon="5.49458">
        <ele>1059.5</ele>
        <time>2021-09-07T10:36:06Z</time>
      </trkpt>
      <trkpt lat="44.50501" lon="5.49459">
        <ele>1059.5</ele>
        <time>2021-09-07T10:36:07Z</time>
      </trkpt>
      <trkpt lat="44.50501" lon="5.49461">
        <ele>1059.6</ele>
        <time>2021-09-07T10:36:08Z</time>
      </trkpt>
      <trkpt lat="44.505" lon="5.49462">
        <ele>1059.7</ele>
        <time>2021-09-07T10:36:09Z</time>
      </trkpt>
      <trkpt lat="44.505" lon="5.49465">
        <ele>1059.8</ele>
        <time>2021-09-07T10:36:10Z</time>
      </trkpt>
      <trkpt lat="44.505" lon="5.49467">
        <ele>1059.9</ele>
        <time>2021-09-07T10:36:11Z</time>
      </trkpt>
      <trkpt lat="44.505" lon="5.49468">
        <ele>1059.9</ele>
        <time>2021-09-07T10:36:12Z</time>
      </trkpt>
      <trkpt lat="44.505" lon="5.49469">
        <ele>1059.9</ele>
        <time>2021-09-07T10:36:13Z</time>
      </trkpt>
      <trkpt lat="44.505" lon="5.49469">
        <ele>1060</ele>
        <time>2021-09-07T10:36:14Z</time>
      </trkpt>
      <trkpt lat="44.50499" lon="5.4947">
        <ele>1060</ele>
        <time>2021-09-07T10:36:15Z</time>
      </trkpt>
      <trkpt lat="44.50499" lon="5.4947">
        <ele>1060</ele>
        <time>2021-09-07T10:36:16Z</time>
      </trkpt>
      <trkpt lat="44.50499" lon="5.49471">
        <ele>1060.1</ele>
        <time>2021-09-07T10:36:17Z</time>
      </trkpt>
      <trkpt lat="44.50499" lon="5.49471">
        <ele>1060.1</ele>
        <time>2021-09-07T10:36:18Z</time>
      </trkpt>
      <trkpt lat="44.50499" lon="5.49471">
        <ele>1060.1</ele>
        <time>2021-09-07T10:36:19Z</time>
      </trkpt>
      <trkpt lat="44.50499" lon="5.49472">
        <ele>1060.1</ele>
        <time>2021-09-07T10:36:20Z</time>
      </trkpt>
      <trkpt lat="44.50499" lon="5.49472">
        <ele>1060.1</ele>
        <time>2021-09-07T10:36:21Z</time>
      </trkpt>
      <trkpt lat="44.50499" lon="5.49472">
        <ele>1060.1</ele>
        <time>2021-09-07T10:36:22Z</time>
      </trkpt>
      <trkpt lat="44.50498" lon="5.49473">
        <ele>1060.2</ele>
        <time>2021-09-07T10:36:23Z</time>
      </trkpt>
      <trkpt lat="44.50497" lon="5.49476">
        <ele>1060.3</ele>
        <time>2021-09-07T10:36:24Z</time>
      </trkpt>
      <trkpt lat="44.50497" lon="5.49479">
        <ele>1060.5</ele>
        <time>2021-09-07T10:36:25Z</time>
      </trkpt>
      <trkpt lat="44.50496" lon="5.49482">
        <ele>1060.6</ele>
        <time>2021-09-07T10:36:26Z</time>
      </trkpt>
      <trkpt lat="44.50496" lon="5.49483">
        <ele>1060.7</ele>
        <time>2021-09-07T10:36:27Z</time>
      </trkpt>
      <trkpt lat="44.50495" lon="5.49484">
        <ele>1060.7</ele>
        <time>2021-09-07T10:36:28Z</time>
      </trkpt>
      <trkpt lat="44.50495" lon="5.49485">
        <ele>1060.8</ele>
        <time>2021-09-07T10:36:29Z</time>
      </trkpt>
      <trkpt lat="44.50495" lon="5.49486">
        <ele>1060.8</ele>
        <time>2021-09-07T10:36:30Z</time>
      </trkpt>
      <trkpt lat="44.50495" lon="5.49486">
        <ele>1060.8</ele>
        <time>2021-09-07T10:36:31Z</time>
      </trkpt>
      <trkpt lat="44.50495" lon="5.49486">
        <ele>1060.8</ele>
        <time>2021-09-07T10:36:32Z</time>
      </trkpt>
      <trkpt lat="44.50495" lon="5.49486">
        <ele>1060.8</ele>
        <time>2021-09-07T10:36:33Z</time>
      </trkpt>
      <trkpt lat="44.50495" lon="5.49487">
        <ele>1060.9</ele>
        <time>2021-09-07T10:36:34Z</time>
      </trkpt>
      <trkpt lat="44.50495" lon="5.49488">
        <ele>1060.9</ele>
        <time>2021-09-07T10:36:35Z</time>
      </trkpt>
      <trkpt lat="44.50495" lon="5.4949">
        <ele>1061</ele>
        <time>2021-09-07T10:36:36Z</time>
      </trkpt>
      <trkpt lat="44.50495" lon="5.49491">
        <ele>1061</ele>
        <time>2021-09-07T10:36:37Z</time>
      </trkpt>
      <trkpt lat="44.50495" lon="5.49494">
        <ele>1061.2</ele>
        <time>2021-09-07T10:36:38Z</time>
      </trkpt>
      <trkpt lat="44.50495" lon="5.49496">
        <ele>1061.3</ele>
        <time>2021-09-07T10:36:39Z</time>
      </trkpt>
      <trkpt lat="44.50495" lon="5.49498">
        <ele>1061.3</ele>
        <time>2021-09-07T10:36:40Z</time>
      </trkpt>
      <trkpt lat="44.50495" lon="5.49501">
        <ele>1061.5</ele>
        <time>2021-09-07T10:36:41Z</time>
      </trkpt>
      <trkpt lat="44.50495" lon="5.49502">
        <ele>1061.5</ele>
        <time>2021-09-07T10:36:42Z</time>
      </trkpt>
      <trkpt lat="44.50495" lon="5.49503">
        <ele>1061.6</ele>
        <time>2021-09-07T10:36:43Z</time>
      </trkpt>
      <trkpt lat="44.50496" lon="5.49505">
        <ele>1061.7</ele>
        <time>2021-09-07T10:36:44Z</time>
      </trkpt>
      <trkpt lat="44.50496" lon="5.49507">
        <ele>1061.7</ele>
        <time>2021-09-07T10:36:45Z</time>
      </trkpt>
      <trkpt lat="44.50496" lon="5.49508">
        <ele>1061.8</ele>
        <time>2021-09-07T10:36:46Z</time>
      </trkpt>
      <trkpt lat="44.50497" lon="5.4951">
        <ele>1061.9</ele>
        <time>2021-09-07T10:36:47Z</time>
      </trkpt>
      <trkpt lat="44.50497" lon="5.49511">
        <ele>1061.9</ele>
        <time>2021-09-07T10:36:48Z</time>
      </trkpt>
      <trkpt lat="44.50497" lon="5.49512">
        <ele>1062</ele>
        <time>2021-09-07T10:36:49Z</time>
      </trkpt>
      <trkpt lat="44.50498" lon="5.49514">
        <ele>1062.1</ele>
        <time>2021-09-07T10:36:50Z</time>
      </trkpt>
      <trkpt lat="44.50498" lon="5.49516">
        <ele>1062.2</ele>
        <time>2021-09-07T10:36:51Z</time>
      </trkpt>
      <trkpt lat="44.50498" lon="5.49518">
        <ele>1062.3</ele>
        <time>2021-09-07T10:36:52Z</time>
      </trkpt>
      <trkpt lat="44.50498" lon="5.4952">
        <ele>1062.3</ele>
        <time>2021-09-07T10:36:53Z</time>
      </trkpt>
      <trkpt lat="44.50498" lon="5.49521">
        <ele>1062.4</ele>
        <time>2021-09-07T10:36:54Z</time>
      </trkpt>
      <trkpt lat="44.50498" lon="5.49523">
        <ele>1062.5</ele>
        <time>2021-09-07T10:36:55Z</time>
      </trkpt>
      <trkpt lat="44.50497" lon="5.49526">
        <ele>1062.6</ele>
        <time>2021-09-07T10:36:56Z</time>
      </trkpt>
      <trkpt lat="44.50497" lon="5.49529">
        <ele>1062.8</ele>
        <time>2021-09-07T10:36:57Z</time>
      </trkpt>
      <trkpt lat="44.50496" lon="5.49532">
        <ele>1062.9</ele>
        <time>2021-09-07T10:36:58Z</time>
      </trkpt>
      <trkpt lat="44.50495" lon="5.49534">
        <ele>1063</ele>
        <time>2021-09-07T10:36:59Z</time>
      </trkpt>
      <trkpt lat="44.50495" lon="5.49536">
        <ele>1063.1</ele>
        <time>2021-09-07T10:37:00Z</time>
      </trkpt>
      <trkpt lat="44.50494" lon="5.49538">
        <ele>1063.2</ele>
        <time>2021-09-07T10:37:01Z</time>
      </trkpt>
      <trkpt lat="44.50494" lon="5.4954">
        <ele>1063.3</ele>
        <time>2021-09-07T10:37:02Z</time>
      </trkpt>
      <trkpt lat="44.50493" lon="5.49543">
        <ele>1063.4</ele>
        <time>2021-09-07T10:37:03Z</time>
      </trkpt>
      <trkpt lat="44.50493" lon="5.49546">
        <ele>1063.6</ele>
        <time>2021-09-07T10:37:04Z</time>
      </trkpt>
      <trkpt lat="44.50492" lon="5.49549">
        <ele>1063.7</ele>
        <time>2021-09-07T10:37:05Z</time>
      </trkpt>
      <trkpt lat="44.50492" lon="5.49551">
        <ele>1063.8</ele>
        <time>2021-09-07T10:37:06Z</time>
      </trkpt>
      <trkpt lat="44.50492" lon="5.49552">
        <ele>1063.8</ele>
        <time>2021-09-07T10:37:07Z</time>
      </trkpt>
      <trkpt lat="44.50492" lon="5.49555">
        <ele>1064</ele>
        <time>2021-09-07T10:37:08Z</time>
      </trkpt>
      <trkpt lat="44.50492" lon="5.49558">
        <ele>1064.1</ele>
        <time>2021-09-07T10:37:09Z</time>
      </trkpt>
      <trkpt lat="44.50492" lon="5.4956">
        <ele>1064.2</ele>
        <time>2021-09-07T10:37:10Z</time>
      </trkpt>
      <trkpt lat="44.50492" lon="5.49562">
        <ele>1064.3</ele>
        <time>2021-09-07T10:37:11Z</time>
      </trkpt>
      <trkpt lat="44.50492" lon="5.49564">
        <ele>1064.3</ele>
        <time>2021-09-07T10:37:12Z</time>
      </trkpt>
      <trkpt lat="44.50491" lon="5.49565">
        <ele>1064.4</ele>
        <time>2021-09-07T10:37:13Z</time>
      </trkpt>
      <trkpt lat="44.50491" lon="5.49568">
        <ele>1064.5</ele>
        <time>2021-09-07T10:37:14Z</time>
      </trkpt>
      <trkpt lat="44.50491" lon="5.4957">
        <ele>1064.6</ele>
        <time>2021-09-07T10:37:15Z</time>
      </trkpt>
      <trkpt lat="44.50491" lon="5.49572">
        <ele>1064.7</ele>
        <time>2021-09-07T10:37:16Z</time>
      </trkpt>
      <trkpt lat="44.5049" lon="5.49573">
        <ele>1064.8</ele>
        <time>2021-09-07T10:37:17Z</time>
      </trkpt>
      <trkpt lat="44.5049" lon="5.49575">
        <ele>1064.9</ele>
        <time>2021-09-07T10:37:18Z</time>
      </trkpt>
      <trkpt lat="44.5049" lon="5.49577">
        <ele>1064.9</ele>
        <time>2021-09-07T10:37:19Z</time>
      </trkpt>
      <trkpt lat="44.5049" lon="5.4958">
        <ele>1065.1</ele>
        <time>2021-09-07T10:37:20Z</time>
      </trkpt>
      <trkpt lat="44.5049" lon="5.49582">
        <ele>1065.2</ele>
        <time>2021-09-07T10:37:21Z</time>
      </trkpt>
      <trkpt lat="44.5049" lon="5.49584">
        <ele>1065.2</ele>
        <time>2021-09-07T10:37:22Z</time>
      </trkpt>
      <trkpt lat="44.5049" lon="5.49586">
        <ele>1065.3</ele>
        <time>2021-09-07T10:37:23Z</time>
      </trkpt>
      <trkpt lat="44.5049" lon="5.49587">
        <ele>1065.4</ele>
        <time>2021-09-07T10:37:24Z</time>
      </trkpt>
      <trkpt lat="44.5049" lon="5.49589">
        <ele>1065.5</ele>
        <time>2021-09-07T10:37:25Z</time>
      </trkpt>
      <trkpt lat="44.5049" lon="5.49592">
        <ele>1065.6</ele>
        <time>2021-09-07T10:37:26Z</time>
      </trkpt>
      <trkpt lat="44.50491" lon="5.49594">
        <ele>1065.7</ele>
        <time>2021-09-07T10:37:27Z</time>
      </trkpt>
      <trkpt lat="44.5049" lon="5.49596">
        <ele>1065.8</ele>
        <time>2021-09-07T10:37:28Z</time>
      </trkpt>
      <trkpt lat="44.50489" lon="5.49598">
        <ele>1065.9</ele>
        <time>2021-09-07T10:37:29Z</time>
      </trkpt>
      <trkpt lat="44.50488" lon="5.49599">
        <ele>1066</ele>
        <time>2021-09-07T10:37:30Z</time>
      </trkpt>
      <trkpt lat="44.50488" lon="5.496">
        <ele>1066</ele>
        <time>2021-09-07T10:37:31Z</time>
      </trkpt>
      <trkpt lat="44.50488" lon="5.49603">
        <ele>1066.2</ele>
        <time>2021-09-07T10:37:32Z</time>
      </trkpt>
      <trkpt lat="44.50489" lon="5.49605">
        <ele>1066.2</ele>
        <time>2021-09-07T10:37:33Z</time>
      </trkpt>
      <trkpt lat="44.50489" lon="5.49606">
        <ele>1066.3</ele>
        <time>2021-09-07T10:37:34Z</time>
      </trkpt>
      <trkpt lat="44.5049" lon="5.49607">
        <ele>1066.3</ele>
        <time>2021-09-07T10:37:35Z</time>
      </trkpt>
      <trkpt lat="44.5049" lon="5.49607">
        <ele>1066.4</ele>
        <time>2021-09-07T10:37:36Z</time>
      </trkpt>
      <trkpt lat="44.50491" lon="5.49608">
        <ele>1066.5</ele>
        <time>2021-09-07T10:37:37Z</time>
      </trkpt>
      <trkpt lat="44.50491" lon="5.49609">
        <ele>1066.5</ele>
        <time>2021-09-07T10:37:38Z</time>
      </trkpt>
      <trkpt lat="44.50491" lon="5.49609">
        <ele>1066.5</ele>
        <time>2021-09-07T10:37:39Z</time>
      </trkpt>
      <trkpt lat="44.50492" lon="5.4961">
        <ele>1066.6</ele>
        <time>2021-09-07T10:37:40Z</time>
      </trkpt>
      <trkpt lat="44.50493" lon="5.49611">
        <ele>1066.6</ele>
        <time>2021-09-07T10:37:41Z</time>
      </trkpt>
      <trkpt lat="44.50493" lon="5.49611">
        <ele>1066.7</ele>
        <time>2021-09-07T10:37:42Z</time>
      </trkpt>
      <trkpt lat="44.50494" lon="5.49612">
        <ele>1066.7</ele>
        <time>2021-09-07T10:37:43Z</time>
      </trkpt>
      <trkpt lat="44.50495" lon="5.49613">
        <ele>1066.8</ele>
        <time>2021-09-07T10:37:44Z</time>
      </trkpt>
      <trkpt lat="44.50496" lon="5.49614">
        <ele>1066.9</ele>
        <time>2021-09-07T10:37:45Z</time>
      </trkpt>
      <trkpt lat="44.50497" lon="5.49615">
        <ele>1067</ele>
        <time>2021-09-07T10:37:46Z</time>
      </trkpt>
      <trkpt lat="44.50498" lon="5.49618">
        <ele>1067.1</ele>
        <time>2021-09-07T10:37:47Z</time>
      </trkpt>
      <trkpt lat="44.50499" lon="5.49621">
        <ele>1067.2</ele>
        <time>2021-09-07T10:37:48Z</time>
      </trkpt>
      <trkpt lat="44.505" lon="5.49625">
        <ele>1067.4</ele>
        <time>2021-09-07T10:37:49Z</time>
      </trkpt>
      <trkpt lat="44.50501" lon="5.49626">
        <ele>1067.5</ele>
        <time>2021-09-07T10:37:50Z</time>
      </trkpt>
      <trkpt lat="44.50503" lon="5.49628">
        <ele>1067.6</ele>
        <time>2021-09-07T10:37:51Z</time>
      </trkpt>
      <trkpt lat="44.50504" lon="5.4963">
        <ele>1067.8</ele>
        <time>2021-09-07T10:37:52Z</time>
      </trkpt>
      <trkpt lat="44.50504" lon="5.49633">
        <ele>1067.9</ele>
        <time>2021-09-07T10:37:53Z</time>
      </trkpt>
      <trkpt lat="44.50505" lon="5.49635">
        <ele>1068</ele>
        <time>2021-09-07T10:37:54Z</time>
      </trkpt>
      <trkpt lat="44.50505" lon="5.49636">
        <ele>1068</ele>
        <time>2021-09-07T10:37:55Z</time>
      </trkpt>
      <trkpt lat="44.50505" lon="5.49638">
        <ele>1068.1</ele>
        <time>2021-09-07T10:37:56Z</time>
      </trkpt>
      <trkpt lat="44.50505" lon="5.4964">
        <ele>1068.2</ele>
        <time>2021-09-07T10:37:57Z</time>
      </trkpt>
      <trkpt lat="44.50505" lon="5.49642">
        <ele>1068.3</ele>
        <time>2021-09-07T10:37:58Z</time>
      </trkpt>
      <trkpt lat="44.50505" lon="5.49643">
        <ele>1068.3</ele>
        <time>2021-09-07T10:37:59Z</time>
      </trkpt>
      <trkpt lat="44.50505" lon="5.49645">
        <ele>1068.4</ele>
        <time>2021-09-07T10:38:00Z</time>
      </trkpt>
      <trkpt lat="44.50505" lon="5.49646">
        <ele>1068.5</ele>
        <time>2021-09-07T10:38:01Z</time>
      </trkpt>
      <trkpt lat="44.50506" lon="5.49648">
        <ele>1068.6</ele>
        <time>2021-09-07T10:38:02Z</time>
      </trkpt>
      <trkpt lat="44.50505" lon="5.4965">
        <ele>1068.7</ele>
        <time>2021-09-07T10:38:03Z</time>
      </trkpt>
      <trkpt lat="44.50505" lon="5.49652">
        <ele>1068.8</ele>
        <time>2021-09-07T10:38:04Z</time>
      </trkpt>
      <trkpt lat="44.50505" lon="5.49653">
        <ele>1068.8</ele>
        <time>2021-09-07T10:38:05Z</time>
      </trkpt>
      <trkpt lat="44.50504" lon="5.49654">
        <ele>1068.9</ele>
        <time>2021-09-07T10:38:06Z</time>
      </trkpt>
      <trkpt lat="44.50504" lon="5.49656">
        <ele>1069</ele>
        <time>2021-09-07T10:38:07Z</time>
      </trkpt>
      <trkpt lat="44.50503" lon="5.49658">
        <ele>1069.1</ele>
        <time>2021-09-07T10:38:08Z</time>
      </trkpt>
      <trkpt lat="44.50503" lon="5.49659">
        <ele>1069.1</ele>
        <time>2021-09-07T10:38:09Z</time>
      </trkpt>
      <trkpt lat="44.50503" lon="5.4966">
        <ele>1069.2</ele>
        <time>2021-09-07T10:38:10Z</time>
      </trkpt>
      <trkpt lat="44.50503" lon="5.49662">
        <ele>1069.2</ele>
        <time>2021-09-07T10:38:11Z</time>
      </trkpt>
      <trkpt lat="44.50502" lon="5.49663">
        <ele>1069.3</ele>
        <time>2021-09-07T10:38:12Z</time>
      </trkpt>
      <trkpt lat="44.50502" lon="5.49666">
        <ele>1069.4</ele>
        <time>2021-09-07T10:38:13Z</time>
      </trkpt>
      <trkpt lat="44.50502" lon="5.49667">
        <ele>1069.5</ele>
        <time>2021-09-07T10:38:14Z</time>
      </trkpt>
      <trkpt lat="44.50502" lon="5.49668">
        <ele>1069.5</ele>
        <time>2021-09-07T10:38:15Z</time>
      </trkpt>
      <trkpt lat="44.50502" lon="5.49671">
        <ele>1069.6</ele>
        <time>2021-09-07T10:38:16Z</time>
      </trkpt>
      <trkpt lat="44.50502" lon="5.49672">
        <ele>1069.7</ele>
        <time>2021-09-07T10:38:17Z</time>
      </trkpt>
      <trkpt lat="44.50502" lon="5.49674">
        <ele>1069.8</ele>
        <time>2021-09-07T10:38:18Z</time>
      </trkpt>
      <trkpt lat="44.50502" lon="5.49675">
        <ele>1069.8</ele>
        <time>2021-09-07T10:38:19Z</time>
      </trkpt>
      <trkpt lat="44.50502" lon="5.49677">
        <ele>1069.9</ele>
        <time>2021-09-07T10:38:20Z</time>
      </trkpt>
      <trkpt lat="44.50502" lon="5.49678">
        <ele>1070</ele>
        <time>2021-09-07T10:38:21Z</time>
      </trkpt>
      <trkpt lat="44.50502" lon="5.49679">
        <ele>1070</ele>
        <time>2021-09-07T10:38:22Z</time>
      </trkpt>
      <trkpt lat="44.50503" lon="5.4968">
        <ele>1070.1</ele>
        <time>2021-09-07T10:38:23Z</time>
      </trkpt>
      <trkpt lat="44.50503" lon="5.4968">
        <ele>1070.1</ele>
        <time>2021-09-07T10:38:24Z</time>
      </trkpt>
      <trkpt lat="44.50503" lon="5.4968">
        <ele>1070.1</ele>
        <time>2021-09-07T10:38:25Z</time>
      </trkpt>
      <trkpt lat="44.50503" lon="5.4968">
        <ele>1070.1</ele>
        <time>2021-09-07T10:38:26Z</time>
      </trkpt>
      <trkpt lat="44.50503" lon="5.49681">
        <ele>1070.1</ele>
        <time>2021-09-07T10:38:27Z</time>
      </trkpt>
      <trkpt lat="44.50503" lon="5.49681">
        <ele>1070.1</ele>
        <time>2021-09-07T10:38:28Z</time>
      </trkpt>
      <trkpt lat="44.50503" lon="5.49681">
        <ele>1070.1</ele>
        <time>2021-09-07T10:38:29Z</time>
      </trkpt>
      <trkpt lat="44.50503" lon="5.49681">
        <ele>1070.1</ele>
        <time>2021-09-07T10:38:30Z</time>
      </trkpt>
      <trkpt lat="44.50503" lon="5.49681">
        <ele>1070.1</ele>
        <time>2021-09-07T10:38:31Z</time>
      </trkpt>
      <trkpt lat="44.50503" lon="5.49681">
        <ele>1070.1</ele>
        <time>2021-09-07T10:38:32Z</time>
      </trkpt>
      <trkpt lat="44.50503" lon="5.49681">
        <ele>1070.1</ele>
        <time>2021-09-07T10:38:33Z</time>
      </trkpt>
      <trkpt lat="44.50503" lon="5.49681">
        <ele>1070.1</ele>
        <time>2021-09-07T10:38:34Z</time>
      </trkpt>
      <trkpt lat="44.50503" lon="5.49682">
        <ele>1070.2</ele>
        <time>2021-09-07T10:38:35Z</time>
      </trkpt>
      <trkpt lat="44.50503" lon="5.49682">
        <ele>1070.2</ele>
        <time>2021-09-07T10:38:36Z</time>
      </trkpt>
      <trkpt lat="44.50503" lon="5.49682">
        <ele>1070.2</ele>
        <time>2021-09-07T10:38:37Z</time>
      </trkpt>
      <trkpt lat="44.50503" lon="5.49682">
        <ele>1070.2</ele>
        <time>2021-09-07T10:38:38Z</time>
      </trkpt>
      <trkpt lat="44.50503" lon="5.49684">
        <ele>1070.2</ele>
        <time>2021-09-07T10:38:39Z</time>
      </trkpt>
      <trkpt lat="44.50503" lon="5.49685">
        <ele>1070.3</ele>
        <time>2021-09-07T10:38:40Z</time>
      </trkpt>
      <trkpt lat="44.50503" lon="5.49686">
        <ele>1070.3</ele>
        <time>2021-09-07T10:38:41Z</time>
      </trkpt>
      <trkpt lat="44.50503" lon="5.49687">
        <ele>1070.4</ele>
        <time>2021-09-07T10:38:42Z</time>
      </trkpt>
      <trkpt lat="44.50502" lon="5.49688">
        <ele>1070.4</ele>
        <time>2021-09-07T10:38:43Z</time>
      </trkpt>
      <trkpt lat="44.50502" lon="5.49689">
        <ele>1070.5</ele>
        <time>2021-09-07T10:38:44Z</time>
      </trkpt>
      <trkpt lat="44.50502" lon="5.4969">
        <ele>1070.5</ele>
        <time>2021-09-07T10:38:45Z</time>
      </trkpt>
      <trkpt lat="44.50502" lon="5.49691">
        <ele>1070.6</ele>
        <time>2021-09-07T10:38:46Z</time>
      </trkpt>
      <trkpt lat="44.50502" lon="5.49692">
        <ele>1070.6</ele>
        <time>2021-09-07T10:38:47Z</time>
      </trkpt>
      <trkpt lat="44.50502" lon="5.49693">
        <ele>1070.7</ele>
        <time>2021-09-07T10:38:48Z</time>
      </trkpt>
      <trkpt lat="44.50502" lon="5.49693">
        <ele>1070.7</ele>
        <time>2021-09-07T10:38:49Z</time>
      </trkpt>
      <trkpt lat="44.50503" lon="5.49694">
        <ele>1070.7</ele>
        <time>2021-09-07T10:38:50Z</time>
      </trkpt>
      <trkpt lat="44.50503" lon="5.49694">
        <ele>1070.7</ele>
        <time>2021-09-07T10:38:51Z</time>
      </trkpt>
      <trkpt lat="44.50503" lon="5.49694">
        <ele>1070.7</ele>
        <time>2021-09-07T10:38:52Z</time>
      </trkpt>
      <trkpt lat="44.50503" lon="5.49695">
        <ele>1070.8</ele>
        <time>2021-09-07T10:38:53Z</time>
      </trkpt>
      <trkpt lat="44.50503" lon="5.49695">
        <ele>1070.8</ele>
        <time>2021-09-07T10:38:54Z</time>
      </trkpt>
      <trkpt lat="44.50503" lon="5.49695">
        <ele>1070.8</ele>
        <time>2021-09-07T10:38:55Z</time>
      </trkpt>
      <trkpt lat="44.50503" lon="5.49695">
        <ele>1070.8</ele>
        <time>2021-09-07T10:38:56Z</time>
      </trkpt>
      <trkpt lat="44.50503" lon="5.49695">
        <ele>1070.8</ele>
        <time>2021-09-07T10:38:57Z</time>
      </trkpt>
      <trkpt lat="44.50503" lon="5.49696">
        <ele>1070.8</ele>
        <time>2021-09-07T10:38:58Z</time>
      </trkpt>
      <trkpt lat="44.50503" lon="5.49699">
        <ele>1071</ele>
        <time>2021-09-07T10:38:59Z</time>
      </trkpt>
      <trkpt lat="44.50503" lon="5.49701">
        <ele>1071</ele>
        <time>2021-09-07T10:39:00Z</time>
      </trkpt>
      <trkpt lat="44.50503" lon="5.49703">
        <ele>1071.1</ele>
        <time>2021-09-07T10:39:01Z</time>
      </trkpt>
      <trkpt lat="44.50502" lon="5.49704">
        <ele>1071.2</ele>
        <time>2021-09-07T10:39:02Z</time>
      </trkpt>
      <trkpt lat="44.50502" lon="5.49706">
        <ele>1071.3</ele>
        <time>2021-09-07T10:39:03Z</time>
      </trkpt>
      <trkpt lat="44.50502" lon="5.49707">
        <ele>1071.3</ele>
        <time>2021-09-07T10:39:04Z</time>
      </trkpt>
      <trkpt lat="44.50502" lon="5.49708">
        <ele>1071.4</ele>
        <time>2021-09-07T10:39:05Z</time>
      </trkpt>
      <trkpt lat="44.50502" lon="5.49709">
        <ele>1071.4</ele>
        <time>2021-09-07T10:39:06Z</time>
      </trkpt>
      <trkpt lat="44.50502" lon="5.49709">
        <ele>1071.4</ele>
        <time>2021-09-07T10:39:07Z</time>
      </trkpt>
      <trkpt lat="44.50502" lon="5.49709">
        <ele>1071.4</ele>
        <time>2021-09-07T10:39:08Z</time>
      </trkpt>
      <trkpt lat="44.50502" lon="5.4971">
        <ele>1071.4</ele>
        <time>2021-09-07T10:39:09Z</time>
      </trkpt>
      <trkpt lat="44.50502" lon="5.4971">
        <ele>1071.4</ele>
        <time>2021-09-07T10:39:10Z</time>
      </trkpt>
      <trkpt lat="44.50502" lon="5.4971">
        <ele>1071.4</ele>
        <time>2021-09-07T10:39:11Z</time>
      </trkpt>
      <trkpt lat="44.50502" lon="5.49712">
        <ele>1071.5</ele>
        <time>2021-09-07T10:39:12Z</time>
      </trkpt>
      <trkpt lat="44.50501" lon="5.49713">
        <ele>1071.6</ele>
        <time>2021-09-07T10:39:13Z</time>
      </trkpt>
      <trkpt lat="44.50501" lon="5.49715">
        <ele>1071.7</ele>
        <time>2021-09-07T10:39:14Z</time>
      </trkpt>
      <trkpt lat="44.50501" lon="5.49718">
        <ele>1071.8</ele>
        <time>2021-09-07T10:39:15Z</time>
      </trkpt>
      <trkpt lat="44.50501" lon="5.4972">
        <ele>1071.9</ele>
        <time>2021-09-07T10:39:16Z</time>
      </trkpt>
      <trkpt lat="44.50501" lon="5.49721">
        <ele>1071.9</ele>
        <time>2021-09-07T10:39:17Z</time>
      </trkpt>
      <trkpt lat="44.50501" lon="5.49722">
        <ele>1072</ele>
        <time>2021-09-07T10:39:18Z</time>
      </trkpt>
      <trkpt lat="44.50501" lon="5.49723">
        <ele>1072</ele>
        <time>2021-09-07T10:39:19Z</time>
      </trkpt>
      <trkpt lat="44.505" lon="5.49723">
        <ele>1072.1</ele>
        <time>2021-09-07T10:39:20Z</time>
      </trkpt>
      <trkpt lat="44.505" lon="5.49724">
        <ele>1072.1</ele>
        <time>2021-09-07T10:39:21Z</time>
      </trkpt>
      <trkpt lat="44.505" lon="5.49725">
        <ele>1072.2</ele>
        <time>2021-09-07T10:39:22Z</time>
      </trkpt>
      <trkpt lat="44.505" lon="5.49725">
        <ele>1072.2</ele>
        <time>2021-09-07T10:39:23Z</time>
      </trkpt>
      <trkpt lat="44.505" lon="5.49725">
        <ele>1072.2</ele>
        <time>2021-09-07T10:39:24Z</time>
      </trkpt>
      <trkpt lat="44.505" lon="5.49725">
        <ele>1072.2</ele>
        <time>2021-09-07T10:39:25Z</time>
      </trkpt>
      <trkpt lat="44.505" lon="5.49727">
        <ele>1072.2</ele>
        <time>2021-09-07T10:39:26Z</time>
      </trkpt>
      <trkpt lat="44.50499" lon="5.49728">
        <ele>1072.3</ele>
        <time>2021-09-07T10:39:27Z</time>
      </trkpt>
      <trkpt lat="44.50499" lon="5.49731">
        <ele>1072.4</ele>
        <time>2021-09-07T10:39:28Z</time>
      </trkpt>
      <trkpt lat="44.50499" lon="5.49734">
        <ele>1072.6</ele>
        <time>2021-09-07T10:39:29Z</time>
      </trkpt>
      <trkpt lat="44.50499" lon="5.49737">
        <ele>1072.7</ele>
        <time>2021-09-07T10:39:30Z</time>
      </trkpt>
      <trkpt lat="44.50499" lon="5.49738">
        <ele>1072.8</ele>
        <time>2021-09-07T10:39:31Z</time>
      </trkpt>
      <trkpt lat="44.50499" lon="5.49739">
        <ele>1072.8</ele>
        <time>2021-09-07T10:39:32Z</time>
      </trkpt>
      <trkpt lat="44.50499" lon="5.49739">
        <ele>1072.8</ele>
        <time>2021-09-07T10:39:33Z</time>
      </trkpt>
      <trkpt lat="44.505" lon="5.4974">
        <ele>1072.8</ele>
        <time>2021-09-07T10:39:34Z</time>
      </trkpt>
      <trkpt lat="44.505" lon="5.4974">
        <ele>1072.9</ele>
        <time>2021-09-07T10:39:35Z</time>
      </trkpt>
      <trkpt lat="44.505" lon="5.4974">
        <ele>1072.9</ele>
        <time>2021-09-07T10:39:36Z</time>
      </trkpt>
      <trkpt lat="44.505" lon="5.49741">
        <ele>1072.9</ele>
        <time>2021-09-07T10:39:37Z</time>
      </trkpt>
      <trkpt lat="44.505" lon="5.49741">
        <ele>1072.9</ele>
        <time>2021-09-07T10:39:38Z</time>
      </trkpt>
      <trkpt lat="44.505" lon="5.49742">
        <ele>1072.9</ele>
        <time>2021-09-07T10:39:39Z</time>
      </trkpt>
      <trkpt lat="44.505" lon="5.49742">
        <ele>1072.9</ele>
        <time>2021-09-07T10:39:40Z</time>
      </trkpt>
      <trkpt lat="44.505" lon="5.49742">
        <ele>1073</ele>
        <time>2021-09-07T10:39:41Z</time>
      </trkpt>
      <trkpt lat="44.50501" lon="5.49743">
        <ele>1073</ele>
        <time>2021-09-07T10:39:42Z</time>
      </trkpt>
      <trkpt lat="44.50501" lon="5.49743">
        <ele>1073</ele>
        <time>2021-09-07T10:39:43Z</time>
      </trkpt>
      <trkpt lat="44.50501" lon="5.49744">
        <ele>1073</ele>
        <time>2021-09-07T10:39:44Z</time>
      </trkpt>
      <trkpt lat="44.50501" lon="5.49744">
        <ele>1073</ele>
        <time>2021-09-07T10:39:45Z</time>
      </trkpt>
      <trkpt lat="44.50501" lon="5.49745">
        <ele>1073</ele>
        <time>2021-09-07T10:39:46Z</time>
      </trkpt>
      <trkpt lat="44.50501" lon="5.49745">
        <ele>1073</ele>
        <time>2021-09-07T10:39:47Z</time>
      </trkpt>
      <trkpt lat="44.50501" lon="5.49745">
        <ele>1073.1</ele>
        <time>2021-09-07T10:39:48Z</time>
      </trkpt>
      <trkpt lat="44.50501" lon="5.49746">
        <ele>1073.1</ele>
        <time>2021-09-07T10:39:49Z</time>
      </trkpt>
      <trkpt lat="44.50502" lon="5.49746">
        <ele>1073.1</ele>
        <time>2021-09-07T10:39:50Z</time>
      </trkpt>
      <trkpt lat="44.50502" lon="5.49747">
        <ele>1073.1</ele>
        <time>2021-09-07T10:39:51Z</time>
      </trkpt>
      <trkpt lat="44.50502" lon="5.49747">
        <ele>1073.1</ele>
        <time>2021-09-07T10:39:52Z</time>
      </trkpt>
      <trkpt lat="44.50502" lon="5.49747">
        <ele>1073.1</ele>
        <time>2021-09-07T10:39:53Z</time>
      </trkpt>
      <trkpt lat="44.50502" lon="5.49748">
        <ele>1073.2</ele>
        <time>2021-09-07T10:39:54Z</time>
      </trkpt>
      <trkpt lat="44.50502" lon="5.49748">
        <ele>1073.2</ele>
        <time>2021-09-07T10:39:55Z</time>
      </trkpt>
      <trkpt lat="44.50502" lon="5.49749">
        <ele>1073.2</ele>
        <time>2021-09-07T10:39:56Z</time>
      </trkpt>
      <trkpt lat="44.50502" lon="5.49749">
        <ele>1073.2</ele>
        <time>2021-09-07T10:39:57Z</time>
      </trkpt>
      <trkpt lat="44.50502" lon="5.49749">
        <ele>1073.2</ele>
        <time>2021-09-07T10:39:58Z</time>
      </trkpt>
      <trkpt lat="44.50503" lon="5.4975">
        <ele>1073.2</ele>
        <time>2021-09-07T10:39:59Z</time>
      </trkpt>
      <trkpt lat="44.50503" lon="5.4975">
        <ele>1073.2</ele>
        <time>2021-09-07T10:40:00Z</time>
      </trkpt>
      <trkpt lat="44.50503" lon="5.49751">
        <ele>1073.3</ele>
        <time>2021-09-07T10:40:01Z</time>
      </trkpt>
      <trkpt lat="44.50503" lon="5.49751">
        <ele>1073.3</ele>
        <time>2021-09-07T10:40:02Z</time>
      </trkpt>
      <trkpt lat="44.50503" lon="5.49751">
        <ele>1073.3</ele>
        <time>2021-09-07T10:40:03Z</time>
      </trkpt>
      <trkpt lat="44.50503" lon="5.49752">
        <ele>1073.3</ele>
        <time>2021-09-07T10:40:04Z</time>
      </trkpt>
      <trkpt lat="44.50503" lon="5.49752">
        <ele>1073.3</ele>
        <time>2021-09-07T10:40:05Z</time>
      </trkpt>
      <trkpt lat="44.50503" lon="5.49753">
        <ele>1073.3</ele>
        <time>2021-09-07T10:40:06Z</time>
      </trkpt>
      <trkpt lat="44.50504" lon="5.49753">
        <ele>1073.4</ele>
        <time>2021-09-07T10:40:07Z</time>
      </trkpt>
      <trkpt lat="44.50504" lon="5.49753">
        <ele>1073.4</ele>
        <time>2021-09-07T10:40:08Z</time>
      </trkpt>
      <trkpt lat="44.50504" lon="5.49754">
        <ele>1073.4</ele>
        <time>2021-09-07T10:40:09Z</time>
      </trkpt>
      <trkpt lat="44.50504" lon="5.49754">
        <ele>1073.4</ele>
        <time>2021-09-07T10:40:10Z</time>
      </trkpt>
      <trkpt lat="44.50504" lon="5.49755">
        <ele>1073.4</ele>
        <time>2021-09-07T10:40:11Z</time>
      </trkpt>
      <trkpt lat="44.50504" lon="5.49755">
        <ele>1073.4</ele>
        <time>2021-09-07T10:40:12Z</time>
      </trkpt>
      <trkpt lat="44.50504" lon="5.49755">
        <ele>1073.5</ele>
        <time>2021-09-07T10:40:13Z</time>
      </trkpt>
      <trkpt lat="44.50504" lon="5.49756">
        <ele>1073.5</ele>
        <time>2021-09-07T10:40:14Z</time>
      </trkpt>
      <trkpt lat="44.50505" lon="5.49756">
        <ele>1073.5</ele>
        <time>2021-09-07T10:40:15Z</time>
      </trkpt>
      <trkpt lat="44.50505" lon="5.49757">
        <ele>1073.5</ele>
        <time>2021-09-07T10:40:16Z</time>
      </trkpt>
      <trkpt lat="44.50505" lon="5.49757">
        <ele>1073.5</ele>
        <time>2021-09-07T10:40:17Z</time>
      </trkpt>
      <trkpt lat="44.50505" lon="5.49757">
        <ele>1073.5</ele>
        <time>2021-09-07T10:40:18Z</time>
      </trkpt>
      <trkpt lat="44.50505" lon="5.49758">
        <ele>1073.5</ele>
        <time>2021-09-07T10:40:19Z</time>
      </trkpt>
      <trkpt lat="44.50505" lon="5.49758">
        <ele>1073.6</ele>
        <time>2021-09-07T10:40:20Z</time>
      </trkpt>
      <trkpt lat="44.50505" lon="5.49759">
        <ele>1073.6</ele>
        <time>2021-09-07T10:40:21Z</time>
      </trkpt>
      <trkpt lat="44.50505" lon="5.49759">
        <ele>1073.6</ele>
        <time>2021-09-07T10:40:22Z</time>
      </trkpt>
      <trkpt lat="44.50506" lon="5.49759">
        <ele>1073.6</ele>
        <time>2021-09-07T10:40:23Z</time>
      </trkpt>
      <trkpt lat="44.50506" lon="5.4976">
        <ele>1073.6</ele>
        <time>2021-09-07T10:40:24Z</time>
      </trkpt>
      <trkpt lat="44.50506" lon="5.4976">
        <ele>1073.6</ele>
        <time>2021-09-07T10:40:25Z</time>
      </trkpt>
      <trkpt lat="44.50506" lon="5.49761">
        <ele>1073.7</ele>
        <time>2021-09-07T10:40:26Z</time>
      </trkpt>
      <trkpt lat="44.50506" lon="5.49761">
        <ele>1073.7</ele>
        <time>2021-09-07T10:40:27Z</time>
      </trkpt>
      <trkpt lat="44.50507" lon="5.49764">
        <ele>1073.8</ele>
        <time>2021-09-07T10:40:28Z</time>
      </trkpt>
      <trkpt lat="44.50507" lon="5.49766">
        <ele>1073.8</ele>
        <time>2021-09-07T10:40:29Z</time>
      </trkpt>
      <trkpt lat="44.50508" lon="5.49767">
        <ele>1073.9</ele>
        <time>2021-09-07T10:40:30Z</time>
      </trkpt>
      <trkpt lat="44.50508" lon="5.49767">
        <ele>1073.9</ele>
        <time>2021-09-07T10:40:31Z</time>
      </trkpt>
      <trkpt lat="44.50508" lon="5.49768">
        <ele>1073.9</ele>
        <time>2021-09-07T10:40:32Z</time>
      </trkpt>
      <trkpt lat="44.50508" lon="5.49768">
        <ele>1073.9</ele>
        <time>2021-09-07T10:40:33Z</time>
      </trkpt>
      <trkpt lat="44.50508" lon="5.49768">
        <ele>1073.9</ele>
        <time>2021-09-07T10:40:34Z</time>
      </trkpt>
      <trkpt lat="44.50508" lon="5.49768">
        <ele>1073.9</ele>
        <time>2021-09-07T10:40:35Z</time>
      </trkpt>
      <trkpt lat="44.50508" lon="5.49768">
        <ele>1073.9</ele>
        <time>2021-09-07T10:40:36Z</time>
      </trkpt>
      <trkpt lat="44.50508" lon="5.49768">
        <ele>1073.9</ele>
        <time>2021-09-07T10:40:37Z</time>
      </trkpt>
      <trkpt lat="44.50508" lon="5.49768">
        <ele>1073.9</ele>
        <time>2021-09-07T10:40:38Z</time>
      </trkpt>
      <trkpt lat="44.50508" lon="5.49768">
        <ele>1073.9</ele>
        <time>2021-09-07T10:40:39Z</time>
      </trkpt>
      <trkpt lat="44.50508" lon="5.49768">
        <ele>1073.9</ele>
        <time>2021-09-07T10:40:40Z</time>
      </trkpt>
      <trkpt lat="44.50508" lon="5.49768">
        <ele>1073.9</ele>
        <time>2021-09-07T10:40:41Z</time>
      </trkpt>
      <trkpt lat="44.50508" lon="5.49768">
        <ele>1073.9</ele>
        <time>2021-09-07T10:40:42Z</time>
      </trkpt>
      <trkpt lat="44.50508" lon="5.49768">
        <ele>1073.9</ele>
        <time>2021-09-07T10:40:43Z</time>
      </trkpt>
      <trkpt lat="44.50508" lon="5.49768">
        <ele>1073.9</ele>
        <time>2021-09-07T10:40:44Z</time>
      </trkpt>
      <trkpt lat="44.50508" lon="5.49768">
        <ele>1073.9</ele>
        <time>2021-09-07T10:40:45Z</time>
      </trkpt>
      <trkpt lat="44.50508" lon="5.49768">
        <ele>1073.9</ele>
        <time>2021-09-07T10:40:46Z</time>
      </trkpt>
      <trkpt lat="44.50508" lon="5.49768">
        <ele>1073.9</ele>
        <time>2021-09-07T10:40:47Z</time>
      </trkpt>
      <trkpt lat="44.50508" lon="5.49768">
        <ele>1073.9</ele>
        <time>2021-09-07T10:40:48Z</time>
      </trkpt>
      <trkpt lat="44.50508" lon="5.49768">
        <ele>1073.9</ele>
        <time>2021-09-07T10:40:49Z</time>
      </trkpt>
      <trkpt lat="44.50508" lon="5.49768">
        <ele>1073.9</ele>
        <time>2021-09-07T10:40:50Z</time>
      </trkpt>
      <trkpt lat="44.50508" lon="5.49768">
        <ele>1073.9</ele>
        <time>2021-09-07T10:40:51Z</time>
      </trkpt>
      <trkpt lat="44.50508" lon="5.49768">
        <ele>1073.9</ele>
        <time>2021-09-07T10:40:52Z</time>
      </trkpt>
      <trkpt lat="44.50508" lon="5.49768">
        <ele>1073.9</ele>
        <time>2021-09-07T10:40:53Z</time>
      </trkpt>
      <trkpt lat="44.50508" lon="5.49768">
        <ele>1073.9</ele>
        <time>2021-09-07T10:40:54Z</time>
      </trkpt>
      <trkpt lat="44.50508" lon="5.49768">
        <ele>1073.9</ele>
        <time>2021-09-07T10:40:55Z</time>
      </trkpt>
      <trkpt lat="44.50508" lon="5.49768">
        <ele>1073.9</ele>
        <time>2021-09-07T10:40:56Z</time>
      </trkpt>
      <trkpt lat="44.50508" lon="5.49768">
        <ele>1073.9</ele>
        <time>2021-09-07T10:40:57Z</time>
      </trkpt>
      <trkpt lat="44.50508" lon="5.49768">
        <ele>1073.9</ele>
        <time>2021-09-07T10:40:58Z</time>
      </trkpt>
      <trkpt lat="44.50508" lon="5.49768">
        <ele>1073.9</ele>
        <time>2021-09-07T10:40:59Z</time>
      </trkpt>
      <trkpt lat="44.50508" lon="5.49768">
        <ele>1073.9</ele>
        <time>2021-09-07T10:41:00Z</time>
      </trkpt>
      <trkpt lat="44.50508" lon="5.49768">
        <ele>1073.9</ele>
        <time>2021-09-07T10:41:01Z</time>
      </trkpt>
      <trkpt lat="44.50508" lon="5.49768">
        <ele>1073.9</ele>
        <time>2021-09-07T10:41:02Z</time>
      </trkpt>
      <trkpt lat="44.50508" lon="5.49768">
        <ele>1073.9</ele>
        <time>2021-09-07T10:41:03Z</time>
      </trkpt>
      <trkpt lat="44.50508" lon="5.49768">
        <ele>1073.9</ele>
        <time>2021-09-07T10:41:04Z</time>
      </trkpt>
      <trkpt lat="44.50508" lon="5.49768">
        <ele>1073.9</ele>
        <time>2021-09-07T10:41:05Z</time>
      </trkpt>
      <trkpt lat="44.50508" lon="5.49768">
        <ele>1073.9</ele>
        <time>2021-09-07T10:41:06Z</time>
      </trkpt>
      <trkpt lat="44.50508" lon="5.49768">
        <ele>1073.9</ele>
        <time>2021-09-07T10:41:07Z</time>
      </trkpt>
      <trkpt lat="44.50508" lon="5.49768">
        <ele>1073.9</ele>
        <time>2021-09-07T10:41:08Z</time>
      </trkpt>
      <trkpt lat="44.50508" lon="5.49768">
        <ele>1073.9</ele>
        <time>2021-09-07T10:41:09Z</time>
      </trkpt>
      <trkpt lat="44.50508" lon="5.49768">
        <ele>1073.9</ele>
        <time>2021-09-07T10:41:10Z</time>
      </trkpt>
      <trkpt lat="44.50508" lon="5.49768">
        <ele>1073.9</ele>
        <time>2021-09-07T10:41:11Z</time>
      </trkpt>
      <trkpt lat="44.50508" lon="5.49768">
        <ele>1073.9</ele>
        <time>2021-09-07T10:41:12Z</time>
      </trkpt>
      <trkpt lat="44.50508" lon="5.49768">
        <ele>1073.9</ele>
        <time>2021-09-07T10:41:13Z</time>
      </trkpt>
      <trkpt lat="44.50508" lon="5.49768">
        <ele>1073.9</ele>
        <time>2021-09-07T10:41:14Z</time>
      </trkpt>
      <trkpt lat="44.50508" lon="5.49768">
        <ele>1073.9</ele>
        <time>2021-09-07T10:41:15Z</time>
      </trkpt>
      <trkpt lat="44.50508" lon="5.49767">
        <ele>1074</ele>
        <time>2021-09-07T10:41:16Z</time>
      </trkpt>
      <trkpt lat="44.50508" lon="5.49767">
        <ele>1074</ele>
        <time>2021-09-07T10:41:17Z</time>
      </trkpt>
      <trkpt lat="44.50508" lon="5.49767">
        <ele>1074</ele>
        <time>2021-09-07T10:41:18Z</time>
      </trkpt>
      <trkpt lat="44.50508" lon="5.49767">
        <ele>1074</ele>
        <time>2021-09-07T10:41:19Z</time>
      </trkpt>
      <trkpt lat="44.50508" lon="5.49768">
        <ele>1074</ele>
        <time>2021-09-07T10:41:20Z</time>
      </trkpt>
      <trkpt lat="44.50507" lon="5.49768">
        <ele>1074</ele>
        <time>2021-09-07T10:41:21Z</time>
      </trkpt>
      <trkpt lat="44.50507" lon="5.4977">
        <ele>1074.1</ele>
        <time>2021-09-07T10:41:22Z</time>
      </trkpt>
      <trkpt lat="44.50505" lon="5.49773">
        <ele>1074.3</ele>
        <time>2021-09-07T10:41:23Z</time>
      </trkpt>
      <trkpt lat="44.50503" lon="5.49776">
        <ele>1074.4</ele>
        <time>2021-09-07T10:41:24Z</time>
      </trkpt>
      <trkpt lat="44.50502" lon="5.49778">
        <ele>1074.5</ele>
        <time>2021-09-07T10:41:25Z</time>
      </trkpt>
      <trkpt lat="44.50501" lon="5.4978">
        <ele>1074.6</ele>
        <time>2021-09-07T10:41:26Z</time>
      </trkpt>
      <trkpt lat="44.50501" lon="5.49781">
        <ele>1074.6</ele>
        <time>2021-09-07T10:41:27Z</time>
      </trkpt>
      <trkpt lat="44.505" lon="5.49783">
        <ele>1074.7</ele>
        <time>2021-09-07T10:41:28Z</time>
      </trkpt>
      <trkpt lat="44.50499" lon="5.49785">
        <ele>1074.8</ele>
        <time>2021-09-07T10:41:29Z</time>
      </trkpt>
      <trkpt lat="44.50497" lon="5.49789">
        <ele>1074.9</ele>
        <time>2021-09-07T10:41:30Z</time>
      </trkpt>
      <trkpt lat="44.50496" lon="5.49792">
        <ele>1075.1</ele>
        <time>2021-09-07T10:41:31Z</time>
      </trkpt>
      <trkpt lat="44.50496" lon="5.49794">
        <ele>1075.1</ele>
        <time>2021-09-07T10:41:32Z</time>
      </trkpt>
      <trkpt lat="44.50496" lon="5.49796">
        <ele>1075.2</ele>
        <time>2021-09-07T10:41:33Z</time>
      </trkpt>
      <trkpt lat="44.50495" lon="5.49798">
        <ele>1075.3</ele>
        <time>2021-09-07T10:41:34Z</time>
      </trkpt>
      <trkpt lat="44.50495" lon="5.49801">
        <ele>1075.4</ele>
        <time>2021-09-07T10:41:35Z</time>
      </trkpt>
      <trkpt lat="44.50495" lon="5.49803">
        <ele>1075.5</ele>
        <time>2021-09-07T10:41:36Z</time>
      </trkpt>
      <trkpt lat="44.50494" lon="5.49805">
        <ele>1075.5</ele>
        <time>2021-09-07T10:41:37Z</time>
      </trkpt>
      <trkpt lat="44.50494" lon="5.49806">
        <ele>1075.6</ele>
        <time>2021-09-07T10:41:38Z</time>
      </trkpt>
      <trkpt lat="44.50494" lon="5.49807">
        <ele>1075.6</ele>
        <time>2021-09-07T10:41:39Z</time>
      </trkpt>
      <trkpt lat="44.50494" lon="5.49807">
        <ele>1075.6</ele>
        <time>2021-09-07T10:41:40Z</time>
      </trkpt>
      <trkpt lat="44.50494" lon="5.49808">
        <ele>1075.6</ele>
        <time>2021-09-07T10:41:41Z</time>
      </trkpt>
      <trkpt lat="44.50494" lon="5.49808">
        <ele>1075.6</ele>
        <time>2021-09-07T10:41:42Z</time>
      </trkpt>
      <trkpt lat="44.50494" lon="5.49808">
        <ele>1075.6</ele>
        <time>2021-09-07T10:41:43Z</time>
      </trkpt>
      <trkpt lat="44.50494" lon="5.49809">
        <ele>1075.7</ele>
        <time>2021-09-07T10:41:44Z</time>
      </trkpt>
      <trkpt lat="44.50493" lon="5.49809">
        <ele>1075.7</ele>
        <time>2021-09-07T10:41:45Z</time>
      </trkpt>
      <trkpt lat="44.50493" lon="5.49809">
        <ele>1075.7</ele>
        <time>2021-09-07T10:41:46Z</time>
      </trkpt>
      <trkpt lat="44.50493" lon="5.49809">
        <ele>1075.7</ele>
        <time>2021-09-07T10:41:47Z</time>
      </trkpt>
      <trkpt lat="44.50493" lon="5.49809">
        <ele>1075.7</ele>
        <time>2021-09-07T10:41:48Z</time>
      </trkpt>
      <trkpt lat="44.50493" lon="5.49809">
        <ele>1075.7</ele>
        <time>2021-09-07T10:41:49Z</time>
      </trkpt>
      <trkpt lat="44.50493" lon="5.49809">
        <ele>1075.7</ele>
        <time>2021-09-07T10:41:50Z</time>
      </trkpt>
      <trkpt lat="44.50493" lon="5.49809">
        <ele>1075.7</ele>
        <time>2021-09-07T10:41:51Z</time>
      </trkpt>
      <trkpt lat="44.50494" lon="5.4981">
        <ele>1075.8</ele>
        <time>2021-09-07T10:41:52Z</time>
      </trkpt>
      <trkpt lat="44.50494" lon="5.49811">
        <ele>1075.8</ele>
        <time>2021-09-07T10:41:53Z</time>
      </trkpt>
      <trkpt lat="44.50494" lon="5.49813">
        <ele>1075.9</ele>
        <time>2021-09-07T10:41:54Z</time>
      </trkpt>
      <trkpt lat="44.50495" lon="5.49815">
        <ele>1075.9</ele>
        <time>2021-09-07T10:41:55Z</time>
      </trkpt>
      <trkpt lat="44.50496" lon="5.49818">
        <ele>1076.1</ele>
        <time>2021-09-07T10:41:56Z</time>
      </trkpt>
      <trkpt lat="44.50497" lon="5.49821">
        <ele>1076.2</ele>
        <time>2021-09-07T10:41:57Z</time>
      </trkpt>
      <trkpt lat="44.50498" lon="5.49822">
        <ele>1076.2</ele>
        <time>2021-09-07T10:41:58Z</time>
      </trkpt>
      <trkpt lat="44.50498" lon="5.49823">
        <ele>1076.3</ele>
        <time>2021-09-07T10:41:59Z</time>
      </trkpt>
      <trkpt lat="44.505" lon="5.49825">
        <ele>1076.4</ele>
        <time>2021-09-07T10:42:00Z</time>
      </trkpt>
      <trkpt lat="44.50501" lon="5.49828">
        <ele>1076.5</ele>
        <time>2021-09-07T10:42:01Z</time>
      </trkpt>
      <trkpt lat="44.50502" lon="5.49831">
        <ele>1076.6</ele>
        <time>2021-09-07T10:42:02Z</time>
      </trkpt>
      <trkpt lat="44.50503" lon="5.49834">
        <ele>1076.7</ele>
        <time>2021-09-07T10:42:03Z</time>
      </trkpt>
      <trkpt lat="44.50503" lon="5.49836">
        <ele>1076.8</ele>
        <time>2021-09-07T10:42:04Z</time>
      </trkpt>
      <trkpt lat="44.50503" lon="5.49837">
        <ele>1076.8</ele>
        <time>2021-09-07T10:42:05Z</time>
      </trkpt>
      <trkpt lat="44.50504" lon="5.49837">
        <ele>1076.9</ele>
        <time>2021-09-07T10:42:06Z</time>
      </trkpt>
      <trkpt lat="44.50504" lon="5.49837">
        <ele>1076.9</ele>
        <time>2021-09-07T10:42:07Z</time>
      </trkpt>
      <trkpt lat="44.50505" lon="5.49837">
        <ele>1076.9</ele>
        <time>2021-09-07T10:42:08Z</time>
      </trkpt>
      <trkpt lat="44.50505" lon="5.49837">
        <ele>1076.9</ele>
        <time>2021-09-07T10:42:09Z</time>
      </trkpt>
      <trkpt lat="44.50505" lon="5.49837">
        <ele>1076.9</ele>
        <time>2021-09-07T10:42:10Z</time>
      </trkpt>
      <trkpt lat="44.50505" lon="5.49837">
        <ele>1076.9</ele>
        <time>2021-09-07T10:42:11Z</time>
      </trkpt>
      <trkpt lat="44.50505" lon="5.49838">
        <ele>1077</ele>
        <time>2021-09-07T10:42:12Z</time>
      </trkpt>
      <trkpt lat="44.50505" lon="5.49839">
        <ele>1077</ele>
        <time>2021-09-07T10:42:13Z</time>
      </trkpt>
      <trkpt lat="44.50505" lon="5.49841">
        <ele>1077.1</ele>
        <time>2021-09-07T10:42:14Z</time>
      </trkpt>
      <trkpt lat="44.50506" lon="5.49843">
        <ele>1077.2</ele>
        <time>2021-09-07T10:42:15Z</time>
      </trkpt>
      <trkpt lat="44.50506" lon="5.49845">
        <ele>1077.2</ele>
        <time>2021-09-07T10:42:16Z</time>
      </trkpt>
      <trkpt lat="44.50506" lon="5.49848">
        <ele>1077.3</ele>
        <time>2021-09-07T10:42:17Z</time>
      </trkpt>
      <trkpt lat="44.50505" lon="5.49851">
        <ele>1077.4</ele>
        <time>2021-09-07T10:42:18Z</time>
      </trkpt>
      <trkpt lat="44.50504" lon="5.49854">
        <ele>1077.6</ele>
        <time>2021-09-07T10:42:19Z</time>
      </trkpt>
      <trkpt lat="44.50504" lon="5.49858">
        <ele>1077.7</ele>
        <time>2021-09-07T10:42:20Z</time>
      </trkpt>
      <trkpt lat="44.50504" lon="5.49863">
        <ele>1077.9</ele>
        <time>2021-09-07T10:42:21Z</time>
      </trkpt>
      <trkpt lat="44.50503" lon="5.49867">
        <ele>1078</ele>
        <time>2021-09-07T10:42:22Z</time>
      </trkpt>
      <trkpt lat="44.50503" lon="5.49872">
        <ele>1078.2</ele>
        <time>2021-09-07T10:42:23Z</time>
      </trkpt>
      <trkpt lat="44.50502" lon="5.49878">
        <ele>1078.4</ele>
        <time>2021-09-07T10:42:24Z</time>
      </trkpt>
      <trkpt lat="44.50501" lon="5.49883">
        <ele>1078.6</ele>
        <time>2021-09-07T10:42:25Z</time>
      </trkpt>
      <trkpt lat="44.50501" lon="5.49886">
        <ele>1078.7</ele>
        <time>2021-09-07T10:42:26Z</time>
      </trkpt>
      <trkpt lat="44.50501" lon="5.49889">
        <ele>1078.8</ele>
        <time>2021-09-07T10:42:27Z</time>
      </trkpt>
      <trkpt lat="44.505" lon="5.49891">
        <ele>1078.9</ele>
        <time>2021-09-07T10:42:28Z</time>
      </trkpt>
      <trkpt lat="44.50498" lon="5.49896">
        <ele>1079.1</ele>
        <time>2021-09-07T10:42:29Z</time>
      </trkpt>
      <trkpt lat="44.50498" lon="5.49898">
        <ele>1079.1</ele>
        <time>2021-09-07T10:42:30Z</time>
      </trkpt>
      <trkpt lat="44.50497" lon="5.49899">
        <ele>1079.2</ele>
        <time>2021-09-07T10:42:31Z</time>
      </trkpt>
      <trkpt lat="44.50495" lon="5.49902">
        <ele>1079.3</ele>
        <time>2021-09-07T10:42:32Z</time>
      </trkpt>
      <trkpt lat="44.50494" lon="5.49904">
        <ele>1079.4</ele>
        <time>2021-09-07T10:42:33Z</time>
      </trkpt>
      <trkpt lat="44.50493" lon="5.49906">
        <ele>1079.5</ele>
        <time>2021-09-07T10:42:34Z</time>
      </trkpt>
      <trkpt lat="44.50493" lon="5.49908">
        <ele>1079.6</ele>
        <time>2021-09-07T10:42:35Z</time>
      </trkpt>
      <trkpt lat="44.50493" lon="5.4991">
        <ele>1079.7</ele>
        <time>2021-09-07T10:42:36Z</time>
      </trkpt>
      <trkpt lat="44.50492" lon="5.49912">
        <ele>1079.7</ele>
        <time>2021-09-07T10:42:37Z</time>
      </trkpt>
      <trkpt lat="44.50492" lon="5.49915">
        <ele>1079.8</ele>
        <time>2021-09-07T10:42:38Z</time>
      </trkpt>
      <trkpt lat="44.50492" lon="5.49917">
        <ele>1079.9</ele>
        <time>2021-09-07T10:42:39Z</time>
      </trkpt>
      <trkpt lat="44.50492" lon="5.49919">
        <ele>1080</ele>
        <time>2021-09-07T10:42:40Z</time>
      </trkpt>
      <trkpt lat="44.50491" lon="5.49921">
        <ele>1080.1</ele>
        <time>2021-09-07T10:42:41Z</time>
      </trkpt>
      <trkpt lat="44.50491" lon="5.49923">
        <ele>1080.1</ele>
        <time>2021-09-07T10:42:42Z</time>
      </trkpt>
      <trkpt lat="44.50491" lon="5.49926">
        <ele>1080.2</ele>
        <time>2021-09-07T10:42:43Z</time>
      </trkpt>
      <trkpt lat="44.50491" lon="5.49928">
        <ele>1080.3</ele>
        <time>2021-09-07T10:42:44Z</time>
      </trkpt>
      <trkpt lat="44.50491" lon="5.49929">
        <ele>1080.4</ele>
        <time>2021-09-07T10:42:45Z</time>
      </trkpt>
      <trkpt lat="44.5049" lon="5.49932">
        <ele>1080.5</ele>
        <time>2021-09-07T10:42:46Z</time>
      </trkpt>
      <trkpt lat="44.5049" lon="5.49935">
        <ele>1080.6</ele>
        <time>2021-09-07T10:42:47Z</time>
      </trkpt>
      <trkpt lat="44.5049" lon="5.49938">
        <ele>1080.7</ele>
        <time>2021-09-07T10:42:48Z</time>
      </trkpt>
      <trkpt lat="44.5049" lon="5.4994">
        <ele>1080.8</ele>
        <time>2021-09-07T10:42:49Z</time>
      </trkpt>
      <trkpt lat="44.5049" lon="5.49942">
        <ele>1080.8</ele>
        <time>2021-09-07T10:42:50Z</time>
      </trkpt>
      <trkpt lat="44.50489" lon="5.49944">
        <ele>1080.9</ele>
        <time>2021-09-07T10:42:51Z</time>
      </trkpt>
      <trkpt lat="44.50488" lon="5.49946">
        <ele>1081</ele>
        <time>2021-09-07T10:42:52Z</time>
      </trkpt>
      <trkpt lat="44.50488" lon="5.49948">
        <ele>1081.1</ele>
        <time>2021-09-07T10:42:53Z</time>
      </trkpt>
      <trkpt lat="44.50488" lon="5.49949">
        <ele>1081.1</ele>
        <time>2021-09-07T10:42:54Z</time>
      </trkpt>
      <trkpt lat="44.50487" lon="5.4995">
        <ele>1081.1</ele>
        <time>2021-09-07T10:42:55Z</time>
      </trkpt>
      <trkpt lat="44.50487" lon="5.49952">
        <ele>1081.2</ele>
        <time>2021-09-07T10:42:56Z</time>
      </trkpt>
      <trkpt lat="44.50486" lon="5.49954">
        <ele>1081.3</ele>
        <time>2021-09-07T10:42:57Z</time>
      </trkpt>
      <trkpt lat="44.50485" lon="5.49956">
        <ele>1081.4</ele>
        <time>2021-09-07T10:42:58Z</time>
      </trkpt>
      <trkpt lat="44.50485" lon="5.49958">
        <ele>1081.5</ele>
        <time>2021-09-07T10:42:59Z</time>
      </trkpt>
      <trkpt lat="44.50485" lon="5.4996">
        <ele>1081.5</ele>
        <time>2021-09-07T10:43:00Z</time>
      </trkpt>
      <trkpt lat="44.50484" lon="5.49962">
        <ele>1081.6</ele>
        <time>2021-09-07T10:43:01Z</time>
      </trkpt>
      <trkpt lat="44.50484" lon="5.49964">
        <ele>1081.7</ele>
        <time>2021-09-07T10:43:02Z</time>
      </trkpt>
      <trkpt lat="44.50484" lon="5.49965">
        <ele>1081.7</ele>
        <time>2021-09-07T10:43:03Z</time>
      </trkpt>
      <trkpt lat="44.50484" lon="5.49968">
        <ele>1081.8</ele>
        <time>2021-09-07T10:43:04Z</time>
      </trkpt>
      <trkpt lat="44.50484" lon="5.4997">
        <ele>1081.9</ele>
        <time>2021-09-07T10:43:05Z</time>
      </trkpt>
      <trkpt lat="44.50485" lon="5.49972">
        <ele>1082</ele>
        <time>2021-09-07T10:43:06Z</time>
      </trkpt>
      <trkpt lat="44.50485" lon="5.49974">
        <ele>1082</ele>
        <time>2021-09-07T10:43:07Z</time>
      </trkpt>
      <trkpt lat="44.50485" lon="5.49977">
        <ele>1082.1</ele>
        <time>2021-09-07T10:43:08Z</time>
      </trkpt>
      <trkpt lat="44.50484" lon="5.49979">
        <ele>1082.2</ele>
        <time>2021-09-07T10:43:09Z</time>
      </trkpt>
      <trkpt lat="44.50484" lon="5.49982">
        <ele>1082.3</ele>
        <time>2021-09-07T10:43:10Z</time>
      </trkpt>
      <trkpt lat="44.50484" lon="5.49985">
        <ele>1082.4</ele>
        <time>2021-09-07T10:43:11Z</time>
      </trkpt>
      <trkpt lat="44.50484" lon="5.49987">
        <ele>1082.5</ele>
        <time>2021-09-07T10:43:12Z</time>
      </trkpt>
      <trkpt lat="44.50484" lon="5.49991">
        <ele>1082.6</ele>
        <time>2021-09-07T10:43:13Z</time>
      </trkpt>
      <trkpt lat="44.50484" lon="5.49994">
        <ele>1082.7</ele>
        <time>2021-09-07T10:43:14Z</time>
      </trkpt>
      <trkpt lat="44.50484" lon="5.49996">
        <ele>1082.8</ele>
        <time>2021-09-07T10:43:15Z</time>
      </trkpt>
      <trkpt lat="44.50484" lon="5.50002">
        <ele>1083</ele>
        <time>2021-09-07T10:43:16Z</time>
      </trkpt>
      <trkpt lat="44.50484" lon="5.50006">
        <ele>1083.2</ele>
        <time>2021-09-07T10:43:17Z</time>
      </trkpt>
      <trkpt lat="44.50483" lon="5.50009">
        <ele>1083.3</ele>
        <time>2021-09-07T10:43:18Z</time>
      </trkpt>
      <trkpt lat="44.50483" lon="5.50014">
        <ele>1083.5</ele>
        <time>2021-09-07T10:43:19Z</time>
      </trkpt>
      <trkpt lat="44.50483" lon="5.5002">
        <ele>1083.7</ele>
        <time>2021-09-07T10:43:20Z</time>
      </trkpt>
      <trkpt lat="44.50483" lon="5.50025">
        <ele>1083.8</ele>
        <time>2021-09-07T10:43:21Z</time>
      </trkpt>
      <trkpt lat="44.50483" lon="5.50029">
        <ele>1084</ele>
        <time>2021-09-07T10:43:22Z</time>
      </trkpt>
      <trkpt lat="44.50482" lon="5.50035">
        <ele>1084.2</ele>
        <time>2021-09-07T10:43:23Z</time>
      </trkpt>
      <trkpt lat="44.50482" lon="5.5004">
        <ele>1084.4</ele>
        <time>2021-09-07T10:43:24Z</time>
      </trkpt>
      <trkpt lat="44.50482" lon="5.50044">
        <ele>1084.5</ele>
        <time>2021-09-07T10:43:25Z</time>
      </trkpt>
      <trkpt lat="44.50482" lon="5.50052">
        <ele>1084.8</ele>
        <time>2021-09-07T10:43:26Z</time>
      </trkpt>
      <trkpt lat="44.50482" lon="5.50056">
        <ele>1084.9</ele>
        <time>2021-09-07T10:43:27Z</time>
      </trkpt>
      <trkpt lat="44.50482" lon="5.50059">
        <ele>1085</ele>
        <time>2021-09-07T10:43:28Z</time>
      </trkpt>
      <trkpt lat="44.50481" lon="5.50065">
        <ele>1085.3</ele>
        <time>2021-09-07T10:43:29Z</time>
      </trkpt>
      <trkpt lat="44.50481" lon="5.50069">
        <ele>1085.4</ele>
        <time>2021-09-07T10:43:30Z</time>
      </trkpt>
      <trkpt lat="44.50481" lon="5.50072">
        <ele>1085.5</ele>
        <time>2021-09-07T10:43:31Z</time>
      </trkpt>
      <trkpt lat="44.5048" lon="5.50077">
        <ele>1085.7</ele>
        <time>2021-09-07T10:43:32Z</time>
      </trkpt>
      <trkpt lat="44.5048" lon="5.5008">
        <ele>1085.8</ele>
        <time>2021-09-07T10:43:33Z</time>
      </trkpt>
      <trkpt lat="44.50479" lon="5.50083">
        <ele>1085.9</ele>
        <time>2021-09-07T10:43:34Z</time>
      </trkpt>
      <trkpt lat="44.50478" lon="5.50087">
        <ele>1086.1</ele>
        <time>2021-09-07T10:43:35Z</time>
      </trkpt>
      <trkpt lat="44.50478" lon="5.5009">
        <ele>1086.2</ele>
        <time>2021-09-07T10:43:36Z</time>
      </trkpt>
      <trkpt lat="44.50477" lon="5.50093">
        <ele>1086.3</ele>
        <time>2021-09-07T10:43:37Z</time>
      </trkpt>
      <trkpt lat="44.50476" lon="5.50095">
        <ele>1086.4</ele>
        <time>2021-09-07T10:43:38Z</time>
      </trkpt>
      <trkpt lat="44.50475" lon="5.50097">
        <ele>1086.4</ele>
        <time>2021-09-07T10:43:39Z</time>
      </trkpt>
      <trkpt lat="44.50474" lon="5.501">
        <ele>1086.6</ele>
        <time>2021-09-07T10:43:40Z</time>
      </trkpt>
      <trkpt lat="44.50473" lon="5.50104">
        <ele>1086.7</ele>
        <time>2021-09-07T10:43:41Z</time>
      </trkpt>
      <trkpt lat="44.50472" lon="5.50107">
        <ele>1086.8</ele>
        <time>2021-09-07T10:43:42Z</time>
      </trkpt>
      <trkpt lat="44.50471" lon="5.50109">
        <ele>1086.9</ele>
        <time>2021-09-07T10:43:43Z</time>
      </trkpt>
      <trkpt lat="44.50471" lon="5.50112">
        <ele>1087</ele>
        <time>2021-09-07T10:43:44Z</time>
      </trkpt>
      <trkpt lat="44.5047" lon="5.50114">
        <ele>1087.1</ele>
        <time>2021-09-07T10:43:45Z</time>
      </trkpt>
      <trkpt lat="44.5047" lon="5.50118">
        <ele>1087.2</ele>
        <time>2021-09-07T10:43:46Z</time>
      </trkpt>
      <trkpt lat="44.5047" lon="5.50121">
        <ele>1087.3</ele>
        <time>2021-09-07T10:43:47Z</time>
      </trkpt>
      <trkpt lat="44.5047" lon="5.50124">
        <ele>1087.4</ele>
        <time>2021-09-07T10:43:48Z</time>
      </trkpt>
      <trkpt lat="44.5047" lon="5.50126">
        <ele>1087.5</ele>
        <time>2021-09-07T10:43:49Z</time>
      </trkpt>
      <trkpt lat="44.50469" lon="5.50129">
        <ele>1087.6</ele>
        <time>2021-09-07T10:43:50Z</time>
      </trkpt>
      <trkpt lat="44.5047" lon="5.50132">
        <ele>1087.7</ele>
        <time>2021-09-07T10:43:51Z</time>
      </trkpt>
      <trkpt lat="44.5047" lon="5.50134">
        <ele>1087.8</ele>
        <time>2021-09-07T10:43:52Z</time>
      </trkpt>
      <trkpt lat="44.5047" lon="5.50138">
        <ele>1087.9</ele>
        <time>2021-09-07T10:43:53Z</time>
      </trkpt>
      <trkpt lat="44.50471" lon="5.50142">
        <ele>1088.1</ele>
        <time>2021-09-07T10:43:54Z</time>
      </trkpt>
      <trkpt lat="44.50472" lon="5.50145">
        <ele>1088.2</ele>
        <time>2021-09-07T10:43:55Z</time>
      </trkpt>
      <trkpt lat="44.50472" lon="5.50148">
        <ele>1088.3</ele>
        <time>2021-09-07T10:43:56Z</time>
      </trkpt>
      <trkpt lat="44.50474" lon="5.50152">
        <ele>1088.5</ele>
        <time>2021-09-07T10:43:57Z</time>
      </trkpt>
      <trkpt lat="44.50475" lon="5.50156">
        <ele>1088.6</ele>
        <time>2021-09-07T10:43:58Z</time>
      </trkpt>
      <trkpt lat="44.50477" lon="5.50161">
        <ele>1088.8</ele>
        <time>2021-09-07T10:43:59Z</time>
      </trkpt>
      <trkpt lat="44.50479" lon="5.50166">
        <ele>1089</ele>
        <time>2021-09-07T10:44:00Z</time>
      </trkpt>
      <trkpt lat="44.5048" lon="5.5017">
        <ele>1089.2</ele>
        <time>2021-09-07T10:44:01Z</time>
      </trkpt>
      <trkpt lat="44.50482" lon="5.50175">
        <ele>1089.4</ele>
        <time>2021-09-07T10:44:02Z</time>
      </trkpt>
      <trkpt lat="44.50483" lon="5.50179">
        <ele>1089.5</ele>
        <time>2021-09-07T10:44:03Z</time>
      </trkpt>
      <trkpt lat="44.50485" lon="5.50192">
        <ele>1090</ele>
        <time>2021-09-07T10:44:04Z</time>
      </trkpt>
      <trkpt lat="44.50487" lon="5.502">
        <ele>1090.3</ele>
        <time>2021-09-07T10:44:05Z</time>
      </trkpt>
      <trkpt lat="44.50489" lon="5.50208">
        <ele>1090.6</ele>
        <time>2021-09-07T10:44:06Z</time>
      </trkpt>
      <trkpt lat="44.50491" lon="5.50215">
        <ele>1090.9</ele>
        <time>2021-09-07T10:44:07Z</time>
      </trkpt>
      <trkpt lat="44.50493" lon="5.50222">
        <ele>1091.1</ele>
        <time>2021-09-07T10:44:08Z</time>
      </trkpt>
      <trkpt lat="44.50495" lon="5.50228">
        <ele>1091.3</ele>
        <time>2021-09-07T10:44:09Z</time>
      </trkpt>
      <trkpt lat="44.50497" lon="5.50234">
        <ele>1091.6</ele>
        <time>2021-09-07T10:44:10Z</time>
      </trkpt>
      <trkpt lat="44.50499" lon="5.5024">
        <ele>1091.8</ele>
        <time>2021-09-07T10:44:11Z</time>
      </trkpt>
      <trkpt lat="44.50499" lon="5.50244">
        <ele>1092</ele>
        <time>2021-09-07T10:44:12Z</time>
      </trkpt>
      <trkpt lat="44.50498" lon="5.50248">
        <ele>1092.1</ele>
        <time>2021-09-07T10:44:13Z</time>
      </trkpt>
      <trkpt lat="44.50499" lon="5.50252">
        <ele>1092.2</ele>
        <time>2021-09-07T10:44:14Z</time>
      </trkpt>
      <trkpt lat="44.505" lon="5.50256">
        <ele>1092.4</ele>
        <time>2021-09-07T10:44:15Z</time>
      </trkpt>
      <trkpt lat="44.50503" lon="5.50264">
        <ele>1092.7</ele>
        <time>2021-09-07T10:44:16Z</time>
      </trkpt>
      <trkpt lat="44.50504" lon="5.50272">
        <ele>1093</ele>
        <time>2021-09-07T10:44:17Z</time>
      </trkpt>
      <trkpt lat="44.50504" lon="5.50278">
        <ele>1093.2</ele>
        <time>2021-09-07T10:44:18Z</time>
      </trkpt>
      <trkpt lat="44.50504" lon="5.50284">
        <ele>1093.4</ele>
        <time>2021-09-07T10:44:19Z</time>
      </trkpt>
      <trkpt lat="44.50503" lon="5.50291">
        <ele>1093.7</ele>
        <time>2021-09-07T10:44:20Z</time>
      </trkpt>
      <trkpt lat="44.50502" lon="5.50295">
        <ele>1093.8</ele>
        <time>2021-09-07T10:44:21Z</time>
      </trkpt>
      <trkpt lat="44.50501" lon="5.50299">
        <ele>1094</ele>
        <time>2021-09-07T10:44:22Z</time>
      </trkpt>
      <trkpt lat="44.50499" lon="5.50309">
        <ele>1094.3</ele>
        <time>2021-09-07T10:44:23Z</time>
      </trkpt>
      <trkpt lat="44.50498" lon="5.50314">
        <ele>1094.5</ele>
        <time>2021-09-07T10:44:24Z</time>
      </trkpt>
      <trkpt lat="44.50497" lon="5.50319">
        <ele>1094.7</ele>
        <time>2021-09-07T10:44:25Z</time>
      </trkpt>
      <trkpt lat="44.50496" lon="5.50328">
        <ele>1095</ele>
        <time>2021-09-07T10:44:26Z</time>
      </trkpt>
      <trkpt lat="44.50496" lon="5.50333">
        <ele>1095.2</ele>
        <time>2021-09-07T10:44:27Z</time>
      </trkpt>
      <trkpt lat="44.50495" lon="5.50338">
        <ele>1095.4</ele>
        <time>2021-09-07T10:44:28Z</time>
      </trkpt>
      <trkpt lat="44.50496" lon="5.50344">
        <ele>1095.6</ele>
        <time>2021-09-07T10:44:29Z</time>
      </trkpt>
      <trkpt lat="44.50497" lon="5.5035">
        <ele>1095.8</ele>
        <time>2021-09-07T10:44:30Z</time>
      </trkpt>
      <trkpt lat="44.50498" lon="5.50353">
        <ele>1095.9</ele>
        <time>2021-09-07T10:44:31Z</time>
      </trkpt>
      <trkpt lat="44.50498" lon="5.50356">
        <ele>1096</ele>
        <time>2021-09-07T10:44:32Z</time>
      </trkpt>
      <trkpt lat="44.50499" lon="5.5036">
        <ele>1096.1</ele>
        <time>2021-09-07T10:44:33Z</time>
      </trkpt>
      <trkpt lat="44.50499" lon="5.50363">
        <ele>1096.3</ele>
        <time>2021-09-07T10:44:34Z</time>
      </trkpt>
      <trkpt lat="44.505" lon="5.5037">
        <ele>1096.5</ele>
        <time>2021-09-07T10:44:35Z</time>
      </trkpt>
      <trkpt lat="44.505" lon="5.50373">
        <ele>1096.6</ele>
        <time>2021-09-07T10:44:36Z</time>
      </trkpt>
      <trkpt lat="44.505" lon="5.50375">
        <ele>1096.7</ele>
        <time>2021-09-07T10:44:37Z</time>
      </trkpt>
      <trkpt lat="44.50501" lon="5.50379">
        <ele>1096.8</ele>
        <time>2021-09-07T10:44:38Z</time>
      </trkpt>
      <trkpt lat="44.50502" lon="5.50382">
        <ele>1096.9</ele>
        <time>2021-09-07T10:44:39Z</time>
      </trkpt>
      <trkpt lat="44.50502" lon="5.50385">
        <ele>1097.1</ele>
        <time>2021-09-07T10:44:40Z</time>
      </trkpt>
      <trkpt lat="44.50503" lon="5.50388">
        <ele>1097.2</ele>
        <time>2021-09-07T10:44:41Z</time>
      </trkpt>
      <trkpt lat="44.50503" lon="5.50393">
        <ele>1097.3</ele>
        <time>2021-09-07T10:44:42Z</time>
      </trkpt>
      <trkpt lat="44.50503" lon="5.50396">
        <ele>1097.4</ele>
        <time>2021-09-07T10:44:43Z</time>
      </trkpt>
      <trkpt lat="44.50503" lon="5.50398">
        <ele>1097.5</ele>
        <time>2021-09-07T10:44:44Z</time>
      </trkpt>
      <trkpt lat="44.50504" lon="5.50403">
        <ele>1097.7</ele>
        <time>2021-09-07T10:44:45Z</time>
      </trkpt>
      <trkpt lat="44.50504" lon="5.50407">
        <ele>1097.8</ele>
        <time>2021-09-07T10:44:46Z</time>
      </trkpt>
      <trkpt lat="44.50504" lon="5.5041">
        <ele>1097.9</ele>
        <time>2021-09-07T10:44:47Z</time>
      </trkpt>
      <trkpt lat="44.50504" lon="5.50412">
        <ele>1098</ele>
        <time>2021-09-07T10:44:48Z</time>
      </trkpt>
      <trkpt lat="44.50503" lon="5.50416">
        <ele>1098.2</ele>
        <time>2021-09-07T10:44:49Z</time>
      </trkpt>
      <trkpt lat="44.50502" lon="5.50421">
        <ele>1098.3</ele>
        <time>2021-09-07T10:44:50Z</time>
      </trkpt>
      <trkpt lat="44.50501" lon="5.50425">
        <ele>1098.5</ele>
        <time>2021-09-07T10:44:51Z</time>
      </trkpt>
      <trkpt lat="44.505" lon="5.50428">
        <ele>1098.6</ele>
        <time>2021-09-07T10:44:52Z</time>
      </trkpt>
      <trkpt lat="44.50499" lon="5.50432">
        <ele>1098.8</ele>
        <time>2021-09-07T10:44:53Z</time>
      </trkpt>
      <trkpt lat="44.50498" lon="5.50437">
        <ele>1098.9</ele>
        <time>2021-09-07T10:44:54Z</time>
      </trkpt>
      <trkpt lat="44.50497" lon="5.50441">
        <ele>1099.1</ele>
        <time>2021-09-07T10:44:55Z</time>
      </trkpt>
      <trkpt lat="44.50496" lon="5.50447">
        <ele>1099.3</ele>
        <time>2021-09-07T10:44:56Z</time>
      </trkpt>
      <trkpt lat="44.50495" lon="5.50453">
        <ele>1099.5</ele>
        <time>2021-09-07T10:44:57Z</time>
      </trkpt>
      <trkpt lat="44.50494" lon="5.50457">
        <ele>1099.7</ele>
        <time>2021-09-07T10:44:58Z</time>
      </trkpt>
      <trkpt lat="44.50493" lon="5.50461">
        <ele>1099.8</ele>
        <time>2021-09-07T10:44:59Z</time>
      </trkpt>
      <trkpt lat="44.50493" lon="5.50469">
        <ele>1100.1</ele>
        <time>2021-09-07T10:45:00Z</time>
      </trkpt>
      <trkpt lat="44.50493" lon="5.50472">
        <ele>1100.2</ele>
        <time>2021-09-07T10:45:01Z</time>
      </trkpt>
      <trkpt lat="44.50493" lon="5.50474">
        <ele>1100.3</ele>
        <time>2021-09-07T10:45:02Z</time>
      </trkpt>
      <trkpt lat="44.50494" lon="5.5048">
        <ele>1100.5</ele>
        <time>2021-09-07T10:45:03Z</time>
      </trkpt>
      <trkpt lat="44.50494" lon="5.50483">
        <ele>1100.6</ele>
        <time>2021-09-07T10:45:04Z</time>
      </trkpt>
      <trkpt lat="44.50494" lon="5.50485">
        <ele>1100.7</ele>
        <time>2021-09-07T10:45:05Z</time>
      </trkpt>
      <trkpt lat="44.50495" lon="5.50488">
        <ele>1100.8</ele>
        <time>2021-09-07T10:45:06Z</time>
      </trkpt>
      <trkpt lat="44.50495" lon="5.50491">
        <ele>1100.9</ele>
        <time>2021-09-07T10:45:07Z</time>
      </trkpt>
      <trkpt lat="44.50495" lon="5.50497">
        <ele>1101.1</ele>
        <time>2021-09-07T10:45:08Z</time>
      </trkpt>
      <trkpt lat="44.50495" lon="5.50499">
        <ele>1101.2</ele>
        <time>2021-09-07T10:45:09Z</time>
      </trkpt>
      <trkpt lat="44.50495" lon="5.50501">
        <ele>1101.2</ele>
        <time>2021-09-07T10:45:10Z</time>
      </trkpt>
      <trkpt lat="44.50495" lon="5.50504">
        <ele>1101.3</ele>
        <time>2021-09-07T10:45:11Z</time>
      </trkpt>
      <trkpt lat="44.50496" lon="5.50509">
        <ele>1101.5</ele>
        <time>2021-09-07T10:45:12Z</time>
      </trkpt>
      <trkpt lat="44.50496" lon="5.50512">
        <ele>1101.6</ele>
        <time>2021-09-07T10:45:13Z</time>
      </trkpt>
      <trkpt lat="44.50496" lon="5.50514">
        <ele>1101.7</ele>
        <time>2021-09-07T10:45:14Z</time>
      </trkpt>
      <trkpt lat="44.50496" lon="5.50519">
        <ele>1101.9</ele>
        <time>2021-09-07T10:45:15Z</time>
      </trkpt>
      <trkpt lat="44.50497" lon="5.50522">
        <ele>1102</ele>
        <time>2021-09-07T10:45:16Z</time>
      </trkpt>
      <trkpt lat="44.50497" lon="5.50524">
        <ele>1102.1</ele>
        <time>2021-09-07T10:45:17Z</time>
      </trkpt>
      <trkpt lat="44.50497" lon="5.50527">
        <ele>1102.1</ele>
        <time>2021-09-07T10:45:18Z</time>
      </trkpt>
      <trkpt lat="44.50497" lon="5.50529">
        <ele>1102.2</ele>
        <time>2021-09-07T10:45:19Z</time>
      </trkpt>
      <trkpt lat="44.50498" lon="5.50534">
        <ele>1102.4</ele>
        <time>2021-09-07T10:45:20Z</time>
      </trkpt>
      <trkpt lat="44.50499" lon="5.50536">
        <ele>1102.5</ele>
        <time>2021-09-07T10:45:21Z</time>
      </trkpt>
      <trkpt lat="44.50499" lon="5.50538">
        <ele>1102.6</ele>
        <time>2021-09-07T10:45:22Z</time>
      </trkpt>
      <trkpt lat="44.50499" lon="5.50541">
        <ele>1102.7</ele>
        <time>2021-09-07T10:45:23Z</time>
      </trkpt>
      <trkpt lat="44.505" lon="5.50544">
        <ele>1102.8</ele>
        <time>2021-09-07T10:45:24Z</time>
      </trkpt>
      <trkpt lat="44.505" lon="5.50546">
        <ele>1102.8</ele>
        <time>2021-09-07T10:45:25Z</time>
      </trkpt>
      <trkpt lat="44.50501" lon="5.50551">
        <ele>1103</ele>
        <time>2021-09-07T10:45:26Z</time>
      </trkpt>
      <trkpt lat="44.50502" lon="5.50553">
        <ele>1103.1</ele>
        <time>2021-09-07T10:45:27Z</time>
      </trkpt>
      <trkpt lat="44.50502" lon="5.50554">
        <ele>1103.1</ele>
        <time>2021-09-07T10:45:28Z</time>
      </trkpt>
      <trkpt lat="44.50503" lon="5.50558">
        <ele>1103.3</ele>
        <time>2021-09-07T10:45:29Z</time>
      </trkpt>
      <trkpt lat="44.50504" lon="5.50561">
        <ele>1103.4</ele>
        <time>2021-09-07T10:45:30Z</time>
      </trkpt>
      <trkpt lat="44.50504" lon="5.50563">
        <ele>1103.5</ele>
        <time>2021-09-07T10:45:31Z</time>
      </trkpt>
      <trkpt lat="44.50505" lon="5.50566">
        <ele>1103.6</ele>
        <time>2021-09-07T10:45:32Z</time>
      </trkpt>
      <trkpt lat="44.50506" lon="5.50568">
        <ele>1103.7</ele>
        <time>2021-09-07T10:45:33Z</time>
      </trkpt>
      <trkpt lat="44.50508" lon="5.50572">
        <ele>1103.8</ele>
        <time>2021-09-07T10:45:34Z</time>
      </trkpt>
      <trkpt lat="44.50509" lon="5.50575">
        <ele>1104</ele>
        <time>2021-09-07T10:45:35Z</time>
      </trkpt>
      <trkpt lat="44.5051" lon="5.50578">
        <ele>1104.1</ele>
        <time>2021-09-07T10:45:36Z</time>
      </trkpt>
      <trkpt lat="44.50511" lon="5.5058">
        <ele>1104.2</ele>
        <time>2021-09-07T10:45:37Z</time>
      </trkpt>
      <trkpt lat="44.50511" lon="5.50584">
        <ele>1104.3</ele>
        <time>2021-09-07T10:45:38Z</time>
      </trkpt>
      <trkpt lat="44.50512" lon="5.50587">
        <ele>1104.4</ele>
        <time>2021-09-07T10:45:39Z</time>
      </trkpt>
      <trkpt lat="44.50513" lon="5.50591">
        <ele>1104.6</ele>
        <time>2021-09-07T10:45:40Z</time>
      </trkpt>
      <trkpt lat="44.50514" lon="5.50595">
        <ele>1104.7</ele>
        <time>2021-09-07T10:45:41Z</time>
      </trkpt>
      <trkpt lat="44.50514" lon="5.50599">
        <ele>1104.9</ele>
        <time>2021-09-07T10:45:42Z</time>
      </trkpt>
      <trkpt lat="44.50515" lon="5.50603">
        <ele>1105</ele>
        <time>2021-09-07T10:45:43Z</time>
      </trkpt>
      <trkpt lat="44.50515" lon="5.50607">
        <ele>1105.1</ele>
        <time>2021-09-07T10:45:44Z</time>
      </trkpt>
      <trkpt lat="44.50515" lon="5.50611">
        <ele>1105.3</ele>
        <time>2021-09-07T10:45:45Z</time>
      </trkpt>
      <trkpt lat="44.50515" lon="5.50617">
        <ele>1105.5</ele>
        <time>2021-09-07T10:45:46Z</time>
      </trkpt>
      <trkpt lat="44.50514" lon="5.50622">
        <ele>1105.7</ele>
        <time>2021-09-07T10:45:47Z</time>
      </trkpt>
      <trkpt lat="44.50514" lon="5.50626">
        <ele>1105.8</ele>
        <time>2021-09-07T10:45:48Z</time>
      </trkpt>
      <trkpt lat="44.50514" lon="5.5063">
        <ele>1106</ele>
        <time>2021-09-07T10:45:49Z</time>
      </trkpt>
      <trkpt lat="44.50513" lon="5.50637">
        <ele>1106.2</ele>
        <time>2021-09-07T10:45:50Z</time>
      </trkpt>
      <trkpt lat="44.50513" lon="5.50642">
        <ele>1106.4</ele>
        <time>2021-09-07T10:45:51Z</time>
      </trkpt>
      <trkpt lat="44.50513" lon="5.50646">
        <ele>1106.5</ele>
        <time>2021-09-07T10:45:52Z</time>
      </trkpt>
      <trkpt lat="44.50512" lon="5.50653">
        <ele>1106.8</ele>
        <time>2021-09-07T10:45:53Z</time>
      </trkpt>
      <trkpt lat="44.50512" lon="5.50658">
        <ele>1106.9</ele>
        <time>2021-09-07T10:45:54Z</time>
      </trkpt>
      <trkpt lat="44.50511" lon="5.50666">
        <ele>1107.2</ele>
        <time>2021-09-07T10:45:55Z</time>
      </trkpt>
      <trkpt lat="44.50511" lon="5.5067">
        <ele>1107.4</ele>
        <time>2021-09-07T10:45:56Z</time>
      </trkpt>
      <trkpt lat="44.50511" lon="5.50674">
        <ele>1107.5</ele>
        <time>2021-09-07T10:45:57Z</time>
      </trkpt>
      <trkpt lat="44.50511" lon="5.50679">
        <ele>1107.7</ele>
        <time>2021-09-07T10:45:58Z</time>
      </trkpt>
      <trkpt lat="44.50511" lon="5.50684">
        <ele>1107.8</ele>
        <time>2021-09-07T10:45:59Z</time>
      </trkpt>
      <trkpt lat="44.5051" lon="5.50688">
        <ele>1108</ele>
        <time>2021-09-07T10:46:00Z</time>
      </trkpt>
      <trkpt lat="44.5051" lon="5.50694">
        <ele>1108.2</ele>
        <time>2021-09-07T10:46:01Z</time>
      </trkpt>
      <trkpt lat="44.50511" lon="5.50699">
        <ele>1108.4</ele>
        <time>2021-09-07T10:46:02Z</time>
      </trkpt>
      <trkpt lat="44.50511" lon="5.50703">
        <ele>1108.5</ele>
        <time>2021-09-07T10:46:03Z</time>
      </trkpt>
      <trkpt lat="44.50512" lon="5.50707">
        <ele>1108.7</ele>
        <time>2021-09-07T10:46:04Z</time>
      </trkpt>
      <trkpt lat="44.50513" lon="5.50711">
        <ele>1108.8</ele>
        <time>2021-09-07T10:46:05Z</time>
      </trkpt>
      <trkpt lat="44.50514" lon="5.50716">
        <ele>1109</ele>
        <time>2021-09-07T10:46:06Z</time>
      </trkpt>
      <trkpt lat="44.50514" lon="5.5072">
        <ele>1109.2</ele>
        <time>2021-09-07T10:46:07Z</time>
      </trkpt>
      <trkpt lat="44.50514" lon="5.50724">
        <ele>1109.3</ele>
        <time>2021-09-07T10:46:08Z</time>
      </trkpt>
      <trkpt lat="44.50514" lon="5.50728">
        <ele>1109.4</ele>
        <time>2021-09-07T10:46:09Z</time>
      </trkpt>
      <trkpt lat="44.50514" lon="5.50732">
        <ele>1109.6</ele>
        <time>2021-09-07T10:46:10Z</time>
      </trkpt>
      <trkpt lat="44.50513" lon="5.50737">
        <ele>1109.8</ele>
        <time>2021-09-07T10:46:11Z</time>
      </trkpt>
      <trkpt lat="44.50513" lon="5.50743">
        <ele>1110</ele>
        <time>2021-09-07T10:46:12Z</time>
      </trkpt>
      <trkpt lat="44.50513" lon="5.50746">
        <ele>1110.1</ele>
        <time>2021-09-07T10:46:13Z</time>
      </trkpt>
      <trkpt lat="44.50513" lon="5.50749">
        <ele>1110.2</ele>
        <time>2021-09-07T10:46:14Z</time>
      </trkpt>
      <trkpt lat="44.50513" lon="5.50753">
        <ele>1110.3</ele>
        <time>2021-09-07T10:46:15Z</time>
      </trkpt>
      <trkpt lat="44.50513" lon="5.50758">
        <ele>1110.5</ele>
        <time>2021-09-07T10:46:16Z</time>
      </trkpt>
      <trkpt lat="44.50512" lon="5.50762">
        <ele>1110.6</ele>
        <time>2021-09-07T10:46:17Z</time>
      </trkpt>
      <trkpt lat="44.50512" lon="5.50767">
        <ele>1110.8</ele>
        <time>2021-09-07T10:46:18Z</time>
      </trkpt>
      <trkpt lat="44.50511" lon="5.50772">
        <ele>1111</ele>
        <time>2021-09-07T10:46:19Z</time>
      </trkpt>
      <trkpt lat="44.50511" lon="5.50777">
        <ele>1111.2</ele>
        <time>2021-09-07T10:46:20Z</time>
      </trkpt>
      <trkpt lat="44.5051" lon="5.50781">
        <ele>1111.3</ele>
        <time>2021-09-07T10:46:21Z</time>
      </trkpt>
      <trkpt lat="44.50511" lon="5.50786">
        <ele>1111.5</ele>
        <time>2021-09-07T10:46:22Z</time>
      </trkpt>
      <trkpt lat="44.50511" lon="5.5079">
        <ele>1111.6</ele>
        <time>2021-09-07T10:46:23Z</time>
      </trkpt>
      <trkpt lat="44.50511" lon="5.50796">
        <ele>1111.8</ele>
        <time>2021-09-07T10:46:24Z</time>
      </trkpt>
      <trkpt lat="44.50511" lon="5.50802">
        <ele>1112.1</ele>
        <time>2021-09-07T10:46:25Z</time>
      </trkpt>
      <trkpt lat="44.50512" lon="5.50807">
        <ele>1112.2</ele>
        <time>2021-09-07T10:46:26Z</time>
      </trkpt>
      <trkpt lat="44.50512" lon="5.50811">
        <ele>1112.4</ele>
        <time>2021-09-07T10:46:27Z</time>
      </trkpt>
      <trkpt lat="44.50512" lon="5.50819">
        <ele>1112.7</ele>
        <time>2021-09-07T10:46:28Z</time>
      </trkpt>
      <trkpt lat="44.50512" lon="5.50825">
        <ele>1112.9</ele>
        <time>2021-09-07T10:46:29Z</time>
      </trkpt>
      <trkpt lat="44.50512" lon="5.50831">
        <ele>1113.1</ele>
        <time>2021-09-07T10:46:30Z</time>
      </trkpt>
      <trkpt lat="44.50512" lon="5.50836">
        <ele>1113.3</ele>
        <time>2021-09-07T10:46:31Z</time>
      </trkpt>
      <trkpt lat="44.50512" lon="5.50844">
        <ele>1113.5</ele>
        <time>2021-09-07T10:46:32Z</time>
      </trkpt>
      <trkpt lat="44.50513" lon="5.50848">
        <ele>1113.7</ele>
        <time>2021-09-07T10:46:33Z</time>
      </trkpt>
      <trkpt lat="44.50513" lon="5.50852">
        <ele>1113.8</ele>
        <time>2021-09-07T10:46:34Z</time>
      </trkpt>
      <trkpt lat="44.50514" lon="5.50857">
        <ele>1114</ele>
        <time>2021-09-07T10:46:35Z</time>
      </trkpt>
      <trkpt lat="44.50515" lon="5.50862">
        <ele>1114.2</ele>
        <time>2021-09-07T10:46:36Z</time>
      </trkpt>
      <trkpt lat="44.50515" lon="5.50867">
        <ele>1114.4</ele>
        <time>2021-09-07T10:46:37Z</time>
      </trkpt>
      <trkpt lat="44.50516" lon="5.50871">
        <ele>1114.5</ele>
        <time>2021-09-07T10:46:38Z</time>
      </trkpt>
      <trkpt lat="44.50517" lon="5.50875">
        <ele>1114.6</ele>
        <time>2021-09-07T10:46:39Z</time>
      </trkpt>
      <trkpt lat="44.50517" lon="5.50879">
        <ele>1114.8</ele>
        <time>2021-09-07T10:46:40Z</time>
      </trkpt>
      <trkpt lat="44.50518" lon="5.50883">
        <ele>1114.9</ele>
        <time>2021-09-07T10:46:41Z</time>
      </trkpt>
      <trkpt lat="44.50518" lon="5.50887">
        <ele>1115.1</ele>
        <time>2021-09-07T10:46:42Z</time>
      </trkpt>
      <trkpt lat="44.50518" lon="5.50891">
        <ele>1115.2</ele>
        <time>2021-09-07T10:46:43Z</time>
      </trkpt>
      <trkpt lat="44.50518" lon="5.50894">
        <ele>1115.3</ele>
        <time>2021-09-07T10:46:44Z</time>
      </trkpt>
      <trkpt lat="44.50517" lon="5.50897">
        <ele>1115.4</ele>
        <time>2021-09-07T10:46:45Z</time>
      </trkpt>
      <trkpt lat="44.50517" lon="5.509">
        <ele>1115.5</ele>
        <time>2021-09-07T10:46:46Z</time>
      </trkpt>
      <trkpt lat="44.50517" lon="5.50903">
        <ele>1115.6</ele>
        <time>2021-09-07T10:46:47Z</time>
      </trkpt>
      <trkpt lat="44.50517" lon="5.50906">
        <ele>1115.7</ele>
        <time>2021-09-07T10:46:48Z</time>
      </trkpt>
      <trkpt lat="44.50517" lon="5.50908">
        <ele>1115.8</ele>
        <time>2021-09-07T10:46:49Z</time>
      </trkpt>
      <trkpt lat="44.50517" lon="5.50911">
        <ele>1115.9</ele>
        <time>2021-09-07T10:46:50Z</time>
      </trkpt>
      <trkpt lat="44.50517" lon="5.50913">
        <ele>1116</ele>
        <time>2021-09-07T10:46:51Z</time>
      </trkpt>
      <trkpt lat="44.50517" lon="5.50916">
        <ele>1116.1</ele>
        <time>2021-09-07T10:46:52Z</time>
      </trkpt>
      <trkpt lat="44.50516" lon="5.50919">
        <ele>1116.2</ele>
        <time>2021-09-07T10:46:53Z</time>
      </trkpt>
      <trkpt lat="44.50517" lon="5.50922">
        <ele>1116.3</ele>
        <time>2021-09-07T10:46:54Z</time>
      </trkpt>
      <trkpt lat="44.50517" lon="5.50925">
        <ele>1116.4</ele>
        <time>2021-09-07T10:46:55Z</time>
      </trkpt>
      <trkpt lat="44.50517" lon="5.50927">
        <ele>1116.5</ele>
        <time>2021-09-07T10:46:56Z</time>
      </trkpt>
      <trkpt lat="44.50518" lon="5.50929">
        <ele>1116.6</ele>
        <time>2021-09-07T10:46:57Z</time>
      </trkpt>
      <trkpt lat="44.50519" lon="5.50931">
        <ele>1116.7</ele>
        <time>2021-09-07T10:46:58Z</time>
      </trkpt>
      <trkpt lat="44.50519" lon="5.50933">
        <ele>1116.7</ele>
        <time>2021-09-07T10:46:59Z</time>
      </trkpt>
      <trkpt lat="44.5052" lon="5.50935">
        <ele>1116.8</ele>
        <time>2021-09-07T10:47:00Z</time>
      </trkpt>
      <trkpt lat="44.5052" lon="5.50936">
        <ele>1116.9</ele>
        <time>2021-09-07T10:47:01Z</time>
      </trkpt>
      <trkpt lat="44.50521" lon="5.50938">
        <ele>1116.9</ele>
        <time>2021-09-07T10:47:02Z</time>
      </trkpt>
      <trkpt lat="44.50522" lon="5.5094">
        <ele>1117</ele>
        <time>2021-09-07T10:47:03Z</time>
      </trkpt>
      <trkpt lat="44.50522" lon="5.50941">
        <ele>1117.1</ele>
        <time>2021-09-07T10:47:04Z</time>
      </trkpt>
      <trkpt lat="44.50523" lon="5.50942">
        <ele>1117.1</ele>
        <time>2021-09-07T10:47:05Z</time>
      </trkpt>
      <trkpt lat="44.50524" lon="5.50943">
        <ele>1117.2</ele>
        <time>2021-09-07T10:47:06Z</time>
      </trkpt>
      <trkpt lat="44.50525" lon="5.50945">
        <ele>1117.3</ele>
        <time>2021-09-07T10:47:07Z</time>
      </trkpt>
      <trkpt lat="44.50527" lon="5.50946">
        <ele>1117.3</ele>
        <time>2021-09-07T10:47:08Z</time>
      </trkpt>
      <trkpt lat="44.50528" lon="5.50946">
        <ele>1117.4</ele>
        <time>2021-09-07T10:47:09Z</time>
      </trkpt>
      <trkpt lat="44.5053" lon="5.50947">
        <ele>1117.6</ele>
        <time>2021-09-07T10:47:10Z</time>
      </trkpt>
      <trkpt lat="44.50532" lon="5.50948">
        <ele>1117.7</ele>
        <time>2021-09-07T10:47:11Z</time>
      </trkpt>
      <trkpt lat="44.50533" lon="5.50948">
        <ele>1117.8</ele>
        <time>2021-09-07T10:47:12Z</time>
      </trkpt>
      <trkpt lat="44.50536" lon="5.50949">
        <ele>1117.9</ele>
        <time>2021-09-07T10:47:13Z</time>
      </trkpt>
      <trkpt lat="44.50537" lon="5.50949">
        <ele>1118</ele>
        <time>2021-09-07T10:47:14Z</time>
      </trkpt>
      <trkpt lat="44.50538" lon="5.50949">
        <ele>1118.1</ele>
        <time>2021-09-07T10:47:15Z</time>
      </trkpt>
      <trkpt lat="44.50541" lon="5.50948">
        <ele>1118.2</ele>
        <time>2021-09-07T10:47:16Z</time>
      </trkpt>
      <trkpt lat="44.50543" lon="5.50947">
        <ele>1118.3</ele>
        <time>2021-09-07T10:47:17Z</time>
      </trkpt>
      <trkpt lat="44.50545" lon="5.50947">
        <ele>1118.4</ele>
        <time>2021-09-07T10:47:18Z</time>
      </trkpt>
      <trkpt lat="44.50547" lon="5.50947">
        <ele>1118.5</ele>
        <time>2021-09-07T10:47:19Z</time>
      </trkpt>
      <trkpt lat="44.5055" lon="5.50947">
        <ele>1118.6</ele>
        <time>2021-09-07T10:47:20Z</time>
      </trkpt>
      <trkpt lat="44.50554" lon="5.5095">
        <ele>1118.7</ele>
        <time>2021-09-07T10:47:21Z</time>
      </trkpt>
      <trkpt lat="44.50557" lon="5.50952">
        <ele>1118.8</ele>
        <time>2021-09-07T10:47:22Z</time>
      </trkpt>
      <trkpt lat="44.5056" lon="5.50953">
        <ele>1118.8</ele>
        <time>2021-09-07T10:47:23Z</time>
      </trkpt>
      <trkpt lat="44.50564" lon="5.50955">
        <ele>1118.8</ele>
        <time>2021-09-07T10:47:24Z</time>
      </trkpt>
      <trkpt lat="44.50568" lon="5.50958">
        <ele>1118.9</ele>
        <time>2021-09-07T10:47:25Z</time>
      </trkpt>
      <trkpt lat="44.50571" lon="5.5096">
        <ele>1118.9</ele>
        <time>2021-09-07T10:47:26Z</time>
      </trkpt>
      <trkpt lat="44.50574" lon="5.50962">
        <ele>1118.9</ele>
        <time>2021-09-07T10:47:27Z</time>
      </trkpt>
      <trkpt lat="44.50577" lon="5.50964">
        <ele>1118.9</ele>
        <time>2021-09-07T10:47:28Z</time>
      </trkpt>
      <trkpt lat="44.5058" lon="5.50965">
        <ele>1118.9</ele>
        <time>2021-09-07T10:47:29Z</time>
      </trkpt>
      <trkpt lat="44.50582" lon="5.50966">
        <ele>1118.9</ele>
        <time>2021-09-07T10:47:30Z</time>
      </trkpt>
      <trkpt lat="44.50584" lon="5.50967">
        <ele>1119</ele>
        <time>2021-09-07T10:47:31Z</time>
      </trkpt>
      <trkpt lat="44.50585" lon="5.50968">
        <ele>1119</ele>
        <time>2021-09-07T10:47:32Z</time>
      </trkpt>
      <trkpt lat="44.50586" lon="5.50969">
        <ele>1119</ele>
        <time>2021-09-07T10:47:33Z</time>
      </trkpt>
      <trkpt lat="44.50587" lon="5.5097">
        <ele>1119</ele>
        <time>2021-09-07T10:47:34Z</time>
      </trkpt>
      <trkpt lat="44.50588" lon="5.5097">
        <ele>1119</ele>
        <time>2021-09-07T10:47:35Z</time>
      </trkpt>
      <trkpt lat="44.50588" lon="5.5097">
        <ele>1119</ele>
        <time>2021-09-07T10:47:36Z</time>
      </trkpt>
      <trkpt lat="44.50589" lon="5.5097">
        <ele>1119</ele>
        <time>2021-09-07T10:47:37Z</time>
      </trkpt>
      <trkpt lat="44.5059" lon="5.50969">
        <ele>1119</ele>
        <time>2021-09-07T10:47:38Z</time>
      </trkpt>
      <trkpt lat="44.50592" lon="5.50969">
        <ele>1119.1</ele>
        <time>2021-09-07T10:47:39Z</time>
      </trkpt>
      <trkpt lat="44.50594" lon="5.5097">
        <ele>1119.1</ele>
        <time>2021-09-07T10:47:40Z</time>
      </trkpt>
      <trkpt lat="44.50596" lon="5.5097">
        <ele>1119.1</ele>
        <time>2021-09-07T10:47:41Z</time>
      </trkpt>
      <trkpt lat="44.50598" lon="5.50971">
        <ele>1119.1</ele>
        <time>2021-09-07T10:47:42Z</time>
      </trkpt>
      <trkpt lat="44.50601" lon="5.50971">
        <ele>1119.1</ele>
        <time>2021-09-07T10:47:43Z</time>
      </trkpt>
      <trkpt lat="44.50603" lon="5.50972">
        <ele>1119.1</ele>
        <time>2021-09-07T10:47:44Z</time>
      </trkpt>
      <trkpt lat="44.50604" lon="5.50972">
        <ele>1119.2</ele>
        <time>2021-09-07T10:47:45Z</time>
      </trkpt>
      <trkpt lat="44.50606" lon="5.50974">
        <ele>1119.2</ele>
        <time>2021-09-07T10:47:46Z</time>
      </trkpt>
      <trkpt lat="44.50607" lon="5.50975">
        <ele>1119.2</ele>
        <time>2021-09-07T10:47:47Z</time>
      </trkpt>
      <trkpt lat="44.50607" lon="5.50975">
        <ele>1119.2</ele>
        <time>2021-09-07T10:47:48Z</time>
      </trkpt>
      <trkpt lat="44.50608" lon="5.50976">
        <ele>1119.2</ele>
        <time>2021-09-07T10:47:49Z</time>
      </trkpt>
      <trkpt lat="44.50609" lon="5.50977">
        <ele>1119.2</ele>
        <time>2021-09-07T10:47:50Z</time>
      </trkpt>
      <trkpt lat="44.50609" lon="5.50977">
        <ele>1119.2</ele>
        <time>2021-09-07T10:47:51Z</time>
      </trkpt>
      <trkpt lat="44.5061" lon="5.50978">
        <ele>1119.2</ele>
        <time>2021-09-07T10:47:52Z</time>
      </trkpt>
      <trkpt lat="44.50611" lon="5.50979">
        <ele>1119.2</ele>
        <time>2021-09-07T10:47:53Z</time>
      </trkpt>
      <trkpt lat="44.50613" lon="5.5098">
        <ele>1119.2</ele>
        <time>2021-09-07T10:47:54Z</time>
      </trkpt>
      <trkpt lat="44.50614" lon="5.5098">
        <ele>1119.2</ele>
        <time>2021-09-07T10:47:55Z</time>
      </trkpt>
      <trkpt lat="44.50615" lon="5.50981">
        <ele>1119.2</ele>
        <time>2021-09-07T10:47:56Z</time>
      </trkpt>
      <trkpt lat="44.50617" lon="5.50982">
        <ele>1119.2</ele>
        <time>2021-09-07T10:47:57Z</time>
      </trkpt>
      <trkpt lat="44.50619" lon="5.50982">
        <ele>1119.2</ele>
        <time>2021-09-07T10:47:58Z</time>
      </trkpt>
      <trkpt lat="44.50621" lon="5.50983">
        <ele>1119.2</ele>
        <time>2021-09-07T10:47:59Z</time>
      </trkpt>
      <trkpt lat="44.50623" lon="5.50984">
        <ele>1119.2</ele>
        <time>2021-09-07T10:48:00Z</time>
      </trkpt>
      <trkpt lat="44.50625" lon="5.50984">
        <ele>1119.2</ele>
        <time>2021-09-07T10:48:01Z</time>
      </trkpt>
      <trkpt lat="44.50628" lon="5.50985">
        <ele>1119.2</ele>
        <time>2021-09-07T10:48:02Z</time>
      </trkpt>
      <trkpt lat="44.5063" lon="5.50985">
        <ele>1119.1</ele>
        <time>2021-09-07T10:48:03Z</time>
      </trkpt>
      <trkpt lat="44.50634" lon="5.50986">
        <ele>1119.1</ele>
        <time>2021-09-07T10:48:04Z</time>
      </trkpt>
      <trkpt lat="44.50637" lon="5.50987">
        <ele>1119</ele>
        <time>2021-09-07T10:48:05Z</time>
      </trkpt>
      <trkpt lat="44.5064" lon="5.50987">
        <ele>1119</ele>
        <time>2021-09-07T10:48:06Z</time>
      </trkpt>
      <trkpt lat="44.50645" lon="5.50987">
        <ele>1118.8</ele>
        <time>2021-09-07T10:48:07Z</time>
      </trkpt>
      <trkpt lat="44.50647" lon="5.50987">
        <ele>1118.8</ele>
        <time>2021-09-07T10:48:08Z</time>
      </trkpt>
      <trkpt lat="44.50649" lon="5.50987">
        <ele>1118.8</ele>
        <time>2021-09-07T10:48:09Z</time>
      </trkpt>
      <trkpt lat="44.50652" lon="5.50987">
        <ele>1118.7</ele>
        <time>2021-09-07T10:48:10Z</time>
      </trkpt>
      <trkpt lat="44.50657" lon="5.50989">
        <ele>1118.6</ele>
        <time>2021-09-07T10:48:11Z</time>
      </trkpt>
      <trkpt lat="44.50659" lon="5.5099">
        <ele>1118.5</ele>
        <time>2021-09-07T10:48:12Z</time>
      </trkpt>
      <trkpt lat="44.5066" lon="5.5099">
        <ele>1118.5</ele>
        <time>2021-09-07T10:48:13Z</time>
      </trkpt>
      <trkpt lat="44.50664" lon="5.5099">
        <ele>1118.4</ele>
        <time>2021-09-07T10:48:14Z</time>
      </trkpt>
      <trkpt lat="44.50668" lon="5.50992">
        <ele>1118.3</ele>
        <time>2021-09-07T10:48:15Z</time>
      </trkpt>
      <trkpt lat="44.50672" lon="5.50995">
        <ele>1118.2</ele>
        <time>2021-09-07T10:48:16Z</time>
      </trkpt>
      <trkpt lat="44.50675" lon="5.50997">
        <ele>1118.1</ele>
        <time>2021-09-07T10:48:17Z</time>
      </trkpt>
      <trkpt lat="44.50678" lon="5.51002">
        <ele>1118</ele>
        <time>2021-09-07T10:48:18Z</time>
      </trkpt>
      <trkpt lat="44.50679" lon="5.51003">
        <ele>1118</ele>
        <time>2021-09-07T10:48:19Z</time>
      </trkpt>
      <trkpt lat="44.5068" lon="5.51004">
        <ele>1117.9</ele>
        <time>2021-09-07T10:48:20Z</time>
      </trkpt>
      <trkpt lat="44.50681" lon="5.51005">
        <ele>1117.9</ele>
        <time>2021-09-07T10:48:21Z</time>
      </trkpt>
      <trkpt lat="44.50681" lon="5.51005">
        <ele>1117.9</ele>
        <time>2021-09-07T10:48:22Z</time>
      </trkpt>
      <trkpt lat="44.50681" lon="5.51005">
        <ele>1117.9</ele>
        <time>2021-09-07T10:48:23Z</time>
      </trkpt>
      <trkpt lat="44.50681" lon="5.51005">
        <ele>1117.9</ele>
        <time>2021-09-07T10:48:24Z</time>
      </trkpt>
      <trkpt lat="44.50681" lon="5.51005">
        <ele>1117.9</ele>
        <time>2021-09-07T10:48:25Z</time>
      </trkpt>
      <trkpt lat="44.50681" lon="5.51005">
        <ele>1117.9</ele>
        <time>2021-09-07T10:48:26Z</time>
      </trkpt>
      <trkpt lat="44.50681" lon="5.51005">
        <ele>1117.9</ele>
        <time>2021-09-07T10:48:27Z</time>
      </trkpt>
      <trkpt lat="44.50681" lon="5.51005">
        <ele>1117.9</ele>
        <time>2021-09-07T10:48:28Z</time>
      </trkpt>
      <trkpt lat="44.50681" lon="5.51005">
        <ele>1117.9</ele>
        <time>2021-09-07T10:48:29Z</time>
      </trkpt>
      <trkpt lat="44.50681" lon="5.51005">
        <ele>1117.9</ele>
        <time>2021-09-07T10:48:30Z</time>
      </trkpt>
      <trkpt lat="44.50681" lon="5.51005">
        <ele>1117.9</ele>
        <time>2021-09-07T10:48:31Z</time>
      </trkpt>
      <trkpt lat="44.5068" lon="5.51005">
        <ele>1117.9</ele>
        <time>2021-09-07T10:48:32Z</time>
      </trkpt>
      <trkpt lat="44.5068" lon="5.51005">
        <ele>1117.9</ele>
        <time>2021-09-07T10:48:33Z</time>
      </trkpt>
      <trkpt lat="44.5068" lon="5.51005">
        <ele>1117.9</ele>
        <time>2021-09-07T10:48:34Z</time>
      </trkpt>
      <trkpt lat="44.5068" lon="5.51005">
        <ele>1117.9</ele>
        <time>2021-09-07T10:48:35Z</time>
      </trkpt>
      <trkpt lat="44.5068" lon="5.51005">
        <ele>1117.9</ele>
        <time>2021-09-07T10:48:36Z</time>
      </trkpt>
      <trkpt lat="44.5068" lon="5.51005">
        <ele>1117.9</ele>
        <time>2021-09-07T10:48:37Z</time>
      </trkpt>
      <trkpt lat="44.5068" lon="5.51005">
        <ele>1117.9</ele>
        <time>2021-09-07T10:48:38Z</time>
      </trkpt>
      <trkpt lat="44.5068" lon="5.51005">
        <ele>1117.9</ele>
        <time>2021-09-07T10:48:39Z</time>
      </trkpt>
      <trkpt lat="44.5068" lon="5.51005">
        <ele>1117.9</ele>
        <time>2021-09-07T10:48:40Z</time>
      </trkpt>
      <trkpt lat="44.5068" lon="5.51005">
        <ele>1117.9</ele>
        <time>2021-09-07T10:48:41Z</time>
      </trkpt>
      <trkpt lat="44.5068" lon="5.51005">
        <ele>1117.9</ele>
        <time>2021-09-07T10:48:42Z</time>
      </trkpt>
      <trkpt lat="44.5068" lon="5.51005">
        <ele>1117.9</ele>
        <time>2021-09-07T10:48:43Z</time>
      </trkpt>
      <trkpt lat="44.5068" lon="5.51005">
        <ele>1117.9</ele>
        <time>2021-09-07T10:48:44Z</time>
      </trkpt>
      <trkpt lat="44.5068" lon="5.51004">
        <ele>1117.9</ele>
        <time>2021-09-07T10:48:45Z</time>
      </trkpt>
      <trkpt lat="44.5068" lon="5.51004">
        <ele>1117.9</ele>
        <time>2021-09-07T10:48:46Z</time>
      </trkpt>
      <trkpt lat="44.5068" lon="5.51004">
        <ele>1117.9</ele>
        <time>2021-09-07T10:48:47Z</time>
      </trkpt>
      <trkpt lat="44.5068" lon="5.51004">
        <ele>1117.9</ele>
        <time>2021-09-07T10:48:48Z</time>
      </trkpt>
      <trkpt lat="44.5068" lon="5.51004">
        <ele>1117.9</ele>
        <time>2021-09-07T10:48:49Z</time>
      </trkpt>
      <trkpt lat="44.5068" lon="5.51004">
        <ele>1117.9</ele>
        <time>2021-09-07T10:48:50Z</time>
      </trkpt>
      <trkpt lat="44.5068" lon="5.51004">
        <ele>1117.9</ele>
        <time>2021-09-07T10:48:51Z</time>
      </trkpt>
      <trkpt lat="44.5068" lon="5.51004">
        <ele>1117.9</ele>
        <time>2021-09-07T10:48:52Z</time>
      </trkpt>
      <trkpt lat="44.5068" lon="5.51004">
        <ele>1117.9</ele>
        <time>2021-09-07T10:48:53Z</time>
      </trkpt>
      <trkpt lat="44.5068" lon="5.51004">
        <ele>1117.9</ele>
        <time>2021-09-07T10:48:54Z</time>
      </trkpt>
      <trkpt lat="44.5068" lon="5.51004">
        <ele>1117.9</ele>
        <time>2021-09-07T10:48:55Z</time>
      </trkpt>
      <trkpt lat="44.5068" lon="5.51004">
        <ele>1117.9</ele>
        <time>2021-09-07T10:48:56Z</time>
      </trkpt>
      <trkpt lat="44.5068" lon="5.51004">
        <ele>1117.9</ele>
        <time>2021-09-07T10:48:57Z</time>
      </trkpt>
      <trkpt lat="44.5068" lon="5.51004">
        <ele>1117.9</ele>
        <time>2021-09-07T10:48:58Z</time>
      </trkpt>
      <trkpt lat="44.5068" lon="5.51004">
        <ele>1117.9</ele>
        <time>2021-09-07T10:48:59Z</time>
      </trkpt>
      <trkpt lat="44.5068" lon="5.51004">
        <ele>1117.9</ele>
        <time>2021-09-07T10:49:00Z</time>
      </trkpt>
      <trkpt lat="44.5068" lon="5.51004">
        <ele>1117.9</ele>
        <time>2021-09-07T10:49:01Z</time>
      </trkpt>
      <trkpt lat="44.5068" lon="5.51004">
        <ele>1117.9</ele>
        <time>2021-09-07T10:49:02Z</time>
      </trkpt>
      <trkpt lat="44.5068" lon="5.51004">
        <ele>1117.9</ele>
        <time>2021-09-07T10:49:03Z</time>
      </trkpt>
      <trkpt lat="44.5068" lon="5.51004">
        <ele>1117.9</ele>
        <time>2021-09-07T10:49:04Z</time>
      </trkpt>
      <trkpt lat="44.5068" lon="5.51004">
        <ele>1117.9</ele>
        <time>2021-09-07T10:49:05Z</time>
      </trkpt>
      <trkpt lat="44.5068" lon="5.51004">
        <ele>1117.9</ele>
        <time>2021-09-07T10:49:06Z</time>
      </trkpt>
      <trkpt lat="44.5068" lon="5.51004">
        <ele>1117.9</ele>
        <time>2021-09-07T10:49:07Z</time>
      </trkpt>
      <trkpt lat="44.5068" lon="5.51004">
        <ele>1117.9</ele>
        <time>2021-09-07T10:49:08Z</time>
      </trkpt>
      <trkpt lat="44.5068" lon="5.51004">
        <ele>1117.9</ele>
        <time>2021-09-07T10:49:09Z</time>
      </trkpt>
      <trkpt lat="44.5068" lon="5.51004">
        <ele>1117.9</ele>
        <time>2021-09-07T10:49:10Z</time>
      </trkpt>
      <trkpt lat="44.5068" lon="5.51004">
        <ele>1117.9</ele>
        <time>2021-09-07T10:49:11Z</time>
      </trkpt>
      <trkpt lat="44.5068" lon="5.51004">
        <ele>1117.9</ele>
        <time>2021-09-07T10:49:12Z</time>
      </trkpt>
      <trkpt lat="44.5068" lon="5.51004">
        <ele>1117.9</ele>
        <time>2021-09-07T10:49:13Z</time>
      </trkpt>
      <trkpt lat="44.5068" lon="5.51004">
        <ele>1117.9</ele>
        <time>2021-09-07T10:49:14Z</time>
      </trkpt>
      <trkpt lat="44.5068" lon="5.51004">
        <ele>1117.9</ele>
        <time>2021-09-07T10:49:15Z</time>
      </trkpt>
      <trkpt lat="44.5068" lon="5.51004">
        <ele>1117.9</ele>
        <time>2021-09-07T10:49:16Z</time>
      </trkpt>
      <trkpt lat="44.5068" lon="5.51004">
        <ele>1117.9</ele>
        <time>2021-09-07T10:49:17Z</time>
      </trkpt>
      <trkpt lat="44.5068" lon="5.51004">
        <ele>1117.9</ele>
        <time>2021-09-07T10:49:18Z</time>
      </trkpt>
      <trkpt lat="44.5068" lon="5.51004">
        <ele>1117.9</ele>
        <time>2021-09-07T10:49:19Z</time>
      </trkpt>
      <trkpt lat="44.5068" lon="5.51004">
        <ele>1117.9</ele>
        <time>2021-09-07T10:49:20Z</time>
      </trkpt>
      <trkpt lat="44.5068" lon="5.51004">
        <ele>1117.9</ele>
        <time>2021-09-07T10:49:21Z</time>
      </trkpt>
      <trkpt lat="44.5068" lon="5.51004">
        <ele>1117.9</ele>
        <time>2021-09-07T10:49:22Z</time>
      </trkpt>
      <trkpt lat="44.5068" lon="5.51004">
        <ele>1117.9</ele>
        <time>2021-09-07T10:49:23Z</time>
      </trkpt>
      <trkpt lat="44.5068" lon="5.51004">
        <ele>1117.9</ele>
        <time>2021-09-07T10:49:24Z</time>
      </trkpt>
      <trkpt lat="44.5068" lon="5.51004">
        <ele>1117.9</ele>
        <time>2021-09-07T10:49:25Z</time>
      </trkpt>
      <trkpt lat="44.5068" lon="5.51004">
        <ele>1117.9</ele>
        <time>2021-09-07T10:49:26Z</time>
      </trkpt>
      <trkpt lat="44.5068" lon="5.51004">
        <ele>1117.9</ele>
        <time>2021-09-07T10:49:27Z</time>
      </trkpt>
      <trkpt lat="44.5068" lon="5.51004">
        <ele>1117.9</ele>
        <time>2021-09-07T10:49:28Z</time>
      </trkpt>
      <trkpt lat="44.5068" lon="5.51004">
        <ele>1117.9</ele>
        <time>2021-09-07T10:49:29Z</time>
      </trkpt>
      <trkpt lat="44.5068" lon="5.51004">
        <ele>1117.9</ele>
        <time>2021-09-07T10:49:30Z</time>
      </trkpt>
      <trkpt lat="44.5068" lon="5.51004">
        <ele>1117.9</ele>
        <time>2021-09-07T10:49:31Z</time>
      </trkpt>
      <trkpt lat="44.5068" lon="5.51004">
        <ele>1117.9</ele>
        <time>2021-09-07T10:49:32Z</time>
      </trkpt>
      <trkpt lat="44.5068" lon="5.51003">
        <ele>1117.9</ele>
        <time>2021-09-07T10:49:33Z</time>
      </trkpt>
      <trkpt lat="44.5068" lon="5.51003">
        <ele>1117.9</ele>
        <time>2021-09-07T10:49:34Z</time>
      </trkpt>
      <trkpt lat="44.5068" lon="5.51003">
        <ele>1117.9</ele>
        <time>2021-09-07T10:49:35Z</time>
      </trkpt>
      <trkpt lat="44.5068" lon="5.51003">
        <ele>1117.9</ele>
        <time>2021-09-07T10:49:36Z</time>
      </trkpt>
      <trkpt lat="44.5068" lon="5.51003">
        <ele>1117.9</ele>
        <time>2021-09-07T10:49:37Z</time>
      </trkpt>
      <trkpt lat="44.5068" lon="5.51004">
        <ele>1117.8</ele>
        <time>2021-09-07T10:49:38Z</time>
      </trkpt>
      <trkpt lat="44.5068" lon="5.51004">
        <ele>1117.8</ele>
        <time>2021-09-07T10:49:39Z</time>
      </trkpt>
      <trkpt lat="44.5068" lon="5.51004">
        <ele>1117.8</ele>
        <time>2021-09-07T10:49:40Z</time>
      </trkpt>
      <trkpt lat="44.5068" lon="5.51004">
        <ele>1117.8</ele>
        <time>2021-09-07T10:49:41Z</time>
      </trkpt>
      <trkpt lat="44.50681" lon="5.51005">
        <ele>1117.8</ele>
        <time>2021-09-07T10:49:42Z</time>
      </trkpt>
      <trkpt lat="44.50681" lon="5.51005">
        <ele>1117.8</ele>
        <time>2021-09-07T10:49:43Z</time>
      </trkpt>
      <trkpt lat="44.50681" lon="5.51007">
        <ele>1117.8</ele>
        <time>2021-09-07T10:49:44Z</time>
      </trkpt>
      <trkpt lat="44.50681" lon="5.51008">
        <ele>1117.8</ele>
        <time>2021-09-07T10:49:45Z</time>
      </trkpt>
      <trkpt lat="44.50681" lon="5.51009">
        <ele>1117.8</ele>
        <time>2021-09-07T10:49:46Z</time>
      </trkpt>
      <trkpt lat="44.50681" lon="5.5101">
        <ele>1117.7</ele>
        <time>2021-09-07T10:49:47Z</time>
      </trkpt>
      <trkpt lat="44.5068" lon="5.51011">
        <ele>1117.7</ele>
        <time>2021-09-07T10:49:48Z</time>
      </trkpt>
      <trkpt lat="44.50681" lon="5.51014">
        <ele>1117.7</ele>
        <time>2021-09-07T10:49:49Z</time>
      </trkpt>
      <trkpt lat="44.50679" lon="5.51018">
        <ele>1117.6</ele>
        <time>2021-09-07T10:49:50Z</time>
      </trkpt>
      <trkpt lat="44.50676" lon="5.51022">
        <ele>1117.5</ele>
        <time>2021-09-07T10:49:51Z</time>
      </trkpt>
      <trkpt lat="44.50675" lon="5.51027">
        <ele>1117.3</ele>
        <time>2021-09-07T10:49:52Z</time>
      </trkpt>
      <trkpt lat="44.50673" lon="5.51033">
        <ele>1117.2</ele>
        <time>2021-09-07T10:49:53Z</time>
      </trkpt>
      <trkpt lat="44.50671" lon="5.51038">
        <ele>1117.2</ele>
        <time>2021-09-07T10:49:54Z</time>
      </trkpt>
      <trkpt lat="44.50669" lon="5.51043">
        <ele>1117.1</ele>
        <time>2021-09-07T10:49:55Z</time>
      </trkpt>
      <trkpt lat="44.50667" lon="5.51047">
        <ele>1117</ele>
        <time>2021-09-07T10:49:56Z</time>
      </trkpt>
      <trkpt lat="44.50664" lon="5.51051">
        <ele>1116.9</ele>
        <time>2021-09-07T10:49:57Z</time>
      </trkpt>
      <trkpt lat="44.50663" lon="5.51055">
        <ele>1116.7</ele>
        <time>2021-09-07T10:49:58Z</time>
      </trkpt>
      <trkpt lat="44.50662" lon="5.51059">
        <ele>1116.6</ele>
        <time>2021-09-07T10:49:59Z</time>
      </trkpt>
      <trkpt lat="44.50662" lon="5.51063">
        <ele>1116.5</ele>
        <time>2021-09-07T10:50:00Z</time>
      </trkpt>
      <trkpt lat="44.50661" lon="5.51067">
        <ele>1116.4</ele>
        <time>2021-09-07T10:50:01Z</time>
      </trkpt>
      <trkpt lat="44.50659" lon="5.51072">
        <ele>1116.3</ele>
        <time>2021-09-07T10:50:02Z</time>
      </trkpt>
      <trkpt lat="44.50658" lon="5.51075">
        <ele>1116.2</ele>
        <time>2021-09-07T10:50:03Z</time>
      </trkpt>
      <trkpt lat="44.50656" lon="5.51081">
        <ele>1116</ele>
        <time>2021-09-07T10:50:04Z</time>
      </trkpt>
      <trkpt lat="44.50653" lon="5.51087">
        <ele>1115.8</ele>
        <time>2021-09-07T10:50:05Z</time>
      </trkpt>
      <trkpt lat="44.50651" lon="5.51091">
        <ele>1115.6</ele>
        <time>2021-09-07T10:50:06Z</time>
      </trkpt>
      <trkpt lat="44.50649" lon="5.51095">
        <ele>1115.4</ele>
        <time>2021-09-07T10:50:07Z</time>
      </trkpt>
      <trkpt lat="44.50647" lon="5.51101">
        <ele>1115.2</ele>
        <time>2021-09-07T10:50:08Z</time>
      </trkpt>
      <trkpt lat="44.50645" lon="5.51106">
        <ele>1115</ele>
        <time>2021-09-07T10:50:09Z</time>
      </trkpt>
      <trkpt lat="44.50643" lon="5.51111">
        <ele>1114.8</ele>
        <time>2021-09-07T10:50:10Z</time>
      </trkpt>
      <trkpt lat="44.50641" lon="5.51116">
        <ele>1114.6</ele>
        <time>2021-09-07T10:50:11Z</time>
      </trkpt>
      <trkpt lat="44.50639" lon="5.5112">
        <ele>1114.5</ele>
        <time>2021-09-07T10:50:12Z</time>
      </trkpt>
      <trkpt lat="44.50637" lon="5.51124">
        <ele>1114.3</ele>
        <time>2021-09-07T10:50:13Z</time>
      </trkpt>
      <trkpt lat="44.50635" lon="5.5113">
        <ele>1114.1</ele>
        <time>2021-09-07T10:50:14Z</time>
      </trkpt>
      <trkpt lat="44.50633" lon="5.51136">
        <ele>1113.9</ele>
        <time>2021-09-07T10:50:15Z</time>
      </trkpt>
      <trkpt lat="44.5063" lon="5.51142">
        <ele>1113.7</ele>
        <time>2021-09-07T10:50:16Z</time>
      </trkpt>
      <trkpt lat="44.50626" lon="5.51149">
        <ele>1113.4</ele>
        <time>2021-09-07T10:50:17Z</time>
      </trkpt>
      <trkpt lat="44.50623" lon="5.51156">
        <ele>1113.1</ele>
        <time>2021-09-07T10:50:18Z</time>
      </trkpt>
      <trkpt lat="44.50619" lon="5.51163">
        <ele>1112.8</ele>
        <time>2021-09-07T10:50:19Z</time>
      </trkpt>
      <trkpt lat="44.50615" lon="5.51171">
        <ele>1112.4</ele>
        <time>2021-09-07T10:50:20Z</time>
      </trkpt>
      <trkpt lat="44.50611" lon="5.51178">
        <ele>1112.1</ele>
        <time>2021-09-07T10:50:21Z</time>
      </trkpt>
      <trkpt lat="44.50606" lon="5.51184">
        <ele>1111.8</ele>
        <time>2021-09-07T10:50:22Z</time>
      </trkpt>
      <trkpt lat="44.506" lon="5.5119">
        <ele>1111.5</ele>
        <time>2021-09-07T10:50:23Z</time>
      </trkpt>
      <trkpt lat="44.50595" lon="5.51195">
        <ele>1111.2</ele>
        <time>2021-09-07T10:50:24Z</time>
      </trkpt>
      <trkpt lat="44.50589" lon="5.512">
        <ele>1110.9</ele>
        <time>2021-09-07T10:50:25Z</time>
      </trkpt>
      <trkpt lat="44.50583" lon="5.51204">
        <ele>1110.6</ele>
        <time>2021-09-07T10:50:26Z</time>
      </trkpt>
      <trkpt lat="44.50577" lon="5.51208">
        <ele>1110.3</ele>
        <time>2021-09-07T10:50:27Z</time>
      </trkpt>
      <trkpt lat="44.50571" lon="5.51212">
        <ele>1110</ele>
        <time>2021-09-07T10:50:28Z</time>
      </trkpt>
      <trkpt lat="44.50565" lon="5.51216">
        <ele>1109.6</ele>
        <time>2021-09-07T10:50:29Z</time>
      </trkpt>
      <trkpt lat="44.50559" lon="5.5122">
        <ele>1109.3</ele>
        <time>2021-09-07T10:50:30Z</time>
      </trkpt>
      <trkpt lat="44.50553" lon="5.51224">
        <ele>1109</ele>
        <time>2021-09-07T10:50:31Z</time>
      </trkpt>
      <trkpt lat="44.50547" lon="5.51229">
        <ele>1108.7</ele>
        <time>2021-09-07T10:50:32Z</time>
      </trkpt>
      <trkpt lat="44.50541" lon="5.51233">
        <ele>1108.5</ele>
        <time>2021-09-07T10:50:33Z</time>
      </trkpt>
      <trkpt lat="44.50534" lon="5.51238">
        <ele>1108.1</ele>
        <time>2021-09-07T10:50:34Z</time>
      </trkpt>
      <trkpt lat="44.50528" lon="5.51242">
        <ele>1107.9</ele>
        <time>2021-09-07T10:50:35Z</time>
      </trkpt>
      <trkpt lat="44.50523" lon="5.51248">
        <ele>1107.6</ele>
        <time>2021-09-07T10:50:36Z</time>
      </trkpt>
      <trkpt lat="44.50518" lon="5.51254">
        <ele>1107.4</ele>
        <time>2021-09-07T10:50:37Z</time>
      </trkpt>
      <trkpt lat="44.50514" lon="5.51261">
        <ele>1107.1</ele>
        <time>2021-09-07T10:50:38Z</time>
      </trkpt>
      <trkpt lat="44.50509" lon="5.51267">
        <ele>1106.8</ele>
        <time>2021-09-07T10:50:39Z</time>
      </trkpt>
      <trkpt lat="44.50505" lon="5.51274">
        <ele>1106.5</ele>
        <time>2021-09-07T10:50:40Z</time>
      </trkpt>
      <trkpt lat="44.50501" lon="5.5128">
        <ele>1106.2</ele>
        <time>2021-09-07T10:50:41Z</time>
      </trkpt>
      <trkpt lat="44.50497" lon="5.51289">
        <ele>1105.8</ele>
        <time>2021-09-07T10:50:42Z</time>
      </trkpt>
      <trkpt lat="44.50492" lon="5.51297">
        <ele>1105.5</ele>
        <time>2021-09-07T10:50:43Z</time>
      </trkpt>
      <trkpt lat="44.50488" lon="5.51306">
        <ele>1105.1</ele>
        <time>2021-09-07T10:50:44Z</time>
      </trkpt>
      <trkpt lat="44.50484" lon="5.51315">
        <ele>1104.8</ele>
        <time>2021-09-07T10:50:45Z</time>
      </trkpt>
      <trkpt lat="44.50479" lon="5.51323">
        <ele>1104.4</ele>
        <time>2021-09-07T10:50:46Z</time>
      </trkpt>
      <trkpt lat="44.50475" lon="5.51332">
        <ele>1104.1</ele>
        <time>2021-09-07T10:50:47Z</time>
      </trkpt>
      <trkpt lat="44.50472" lon="5.51341">
        <ele>1103.7</ele>
        <time>2021-09-07T10:50:48Z</time>
      </trkpt>
      <trkpt lat="44.50468" lon="5.51349">
        <ele>1103.4</ele>
        <time>2021-09-07T10:50:49Z</time>
      </trkpt>
      <trkpt lat="44.50466" lon="5.51359">
        <ele>1103.1</ele>
        <time>2021-09-07T10:50:50Z</time>
      </trkpt>
      <trkpt lat="44.50463" lon="5.51368">
        <ele>1102.7</ele>
        <time>2021-09-07T10:50:51Z</time>
      </trkpt>
      <trkpt lat="44.50462" lon="5.51378">
        <ele>1102.4</ele>
        <time>2021-09-07T10:50:52Z</time>
      </trkpt>
      <trkpt lat="44.50461" lon="5.51388">
        <ele>1102</ele>
        <time>2021-09-07T10:50:53Z</time>
      </trkpt>
      <trkpt lat="44.50461" lon="5.51399">
        <ele>1101.6</ele>
        <time>2021-09-07T10:50:54Z</time>
      </trkpt>
      <trkpt lat="44.50461" lon="5.51409">
        <ele>1101.2</ele>
        <time>2021-09-07T10:50:55Z</time>
      </trkpt>
      <trkpt lat="44.50461" lon="5.5142">
        <ele>1100.8</ele>
        <time>2021-09-07T10:50:56Z</time>
      </trkpt>
      <trkpt lat="44.50461" lon="5.51431">
        <ele>1100.4</ele>
        <time>2021-09-07T10:50:57Z</time>
      </trkpt>
      <trkpt lat="44.50461" lon="5.51442">
        <ele>1099.9</ele>
        <time>2021-09-07T10:50:58Z</time>
      </trkpt>
      <trkpt lat="44.50462" lon="5.51453">
        <ele>1099.6</ele>
        <time>2021-09-07T10:50:59Z</time>
      </trkpt>
      <trkpt lat="44.50463" lon="5.51463">
        <ele>1099.2</ele>
        <time>2021-09-07T10:51:00Z</time>
      </trkpt>
      <trkpt lat="44.50463" lon="5.51474">
        <ele>1098.9</ele>
        <time>2021-09-07T10:51:01Z</time>
      </trkpt>
      <trkpt lat="44.50462" lon="5.51484">
        <ele>1098.6</ele>
        <time>2021-09-07T10:51:02Z</time>
      </trkpt>
      <trkpt lat="44.50461" lon="5.51494">
        <ele>1098.4</ele>
        <time>2021-09-07T10:51:03Z</time>
      </trkpt>
      <trkpt lat="44.5046" lon="5.51504">
        <ele>1098.1</ele>
        <time>2021-09-07T10:51:04Z</time>
      </trkpt>
      <trkpt lat="44.50459" lon="5.51515">
        <ele>1097.8</ele>
        <time>2021-09-07T10:51:05Z</time>
      </trkpt>
      <trkpt lat="44.50457" lon="5.51526">
        <ele>1097.5</ele>
        <time>2021-09-07T10:51:06Z</time>
      </trkpt>
      <trkpt lat="44.50457" lon="5.51538">
        <ele>1097.1</ele>
        <time>2021-09-07T10:51:07Z</time>
      </trkpt>
      <trkpt lat="44.50456" lon="5.51549">
        <ele>1096.7</ele>
        <time>2021-09-07T10:51:08Z</time>
      </trkpt>
      <trkpt lat="44.50457" lon="5.51561">
        <ele>1096.4</ele>
        <time>2021-09-07T10:51:09Z</time>
      </trkpt>
      <trkpt lat="44.50457" lon="5.51572">
        <ele>1096</ele>
        <time>2021-09-07T10:51:10Z</time>
      </trkpt>
      <trkpt lat="44.50458" lon="5.51584">
        <ele>1095.6</ele>
        <time>2021-09-07T10:51:11Z</time>
      </trkpt>
      <trkpt lat="44.50459" lon="5.51595">
        <ele>1095.3</ele>
        <time>2021-09-07T10:51:12Z</time>
      </trkpt>
      <trkpt lat="44.50461" lon="5.51606">
        <ele>1095</ele>
        <time>2021-09-07T10:51:13Z</time>
      </trkpt>
      <trkpt lat="44.50462" lon="5.51617">
        <ele>1094.7</ele>
        <time>2021-09-07T10:51:14Z</time>
      </trkpt>
      <trkpt lat="44.50463" lon="5.51627">
        <ele>1094.3</ele>
        <time>2021-09-07T10:51:15Z</time>
      </trkpt>
      <trkpt lat="44.50465" lon="5.51638">
        <ele>1093.9</ele>
        <time>2021-09-07T10:51:16Z</time>
      </trkpt>
      <trkpt lat="44.50466" lon="5.51649">
        <ele>1093.5</ele>
        <time>2021-09-07T10:51:17Z</time>
      </trkpt>
      <trkpt lat="44.50468" lon="5.5166">
        <ele>1093.1</ele>
        <time>2021-09-07T10:51:18Z</time>
      </trkpt>
      <trkpt lat="44.50469" lon="5.5167">
        <ele>1092.7</ele>
        <time>2021-09-07T10:51:19Z</time>
      </trkpt>
      <trkpt lat="44.50469" lon="5.51681">
        <ele>1092.3</ele>
        <time>2021-09-07T10:51:20Z</time>
      </trkpt>
      <trkpt lat="44.50469" lon="5.51691">
        <ele>1092</ele>
        <time>2021-09-07T10:51:21Z</time>
      </trkpt>
      <trkpt lat="44.50469" lon="5.51701">
        <ele>1091.6</ele>
        <time>2021-09-07T10:51:22Z</time>
      </trkpt>
      <trkpt lat="44.50468" lon="5.51712">
        <ele>1091.2</ele>
        <time>2021-09-07T10:51:23Z</time>
      </trkpt>
      <trkpt lat="44.50466" lon="5.51722">
        <ele>1090.9</ele>
        <time>2021-09-07T10:51:24Z</time>
      </trkpt>
      <trkpt lat="44.50464" lon="5.5173">
        <ele>1090.6</ele>
        <time>2021-09-07T10:51:25Z</time>
      </trkpt>
      <trkpt lat="44.50461" lon="5.51739">
        <ele>1090.4</ele>
        <time>2021-09-07T10:51:26Z</time>
      </trkpt>
      <trkpt lat="44.50457" lon="5.51748">
        <ele>1090.1</ele>
        <time>2021-09-07T10:51:27Z</time>
      </trkpt>
      <trkpt lat="44.50452" lon="5.51756">
        <ele>1089.8</ele>
        <time>2021-09-07T10:51:28Z</time>
      </trkpt>
      <trkpt lat="44.50446" lon="5.51766">
        <ele>1089.4</ele>
        <time>2021-09-07T10:51:29Z</time>
      </trkpt>
      <trkpt lat="44.50441" lon="5.51776">
        <ele>1089</ele>
        <time>2021-09-07T10:51:30Z</time>
      </trkpt>
      <trkpt lat="44.50435" lon="5.51786">
        <ele>1088.7</ele>
        <time>2021-09-07T10:51:31Z</time>
      </trkpt>
      <trkpt lat="44.5043" lon="5.51796">
        <ele>1088.4</ele>
        <time>2021-09-07T10:51:32Z</time>
      </trkpt>
      <trkpt lat="44.50426" lon="5.51807">
        <ele>1088</ele>
        <time>2021-09-07T10:51:33Z</time>
      </trkpt>
      <trkpt lat="44.50423" lon="5.51817">
        <ele>1087.7</ele>
        <time>2021-09-07T10:51:34Z</time>
      </trkpt>
      <trkpt lat="44.5042" lon="5.51827">
        <ele>1087.4</ele>
        <time>2021-09-07T10:51:35Z</time>
      </trkpt>
      <trkpt lat="44.50417" lon="5.51837">
        <ele>1087.1</ele>
        <time>2021-09-07T10:51:36Z</time>
      </trkpt>
      <trkpt lat="44.50414" lon="5.51846">
        <ele>1086.8</ele>
        <time>2021-09-07T10:51:37Z</time>
      </trkpt>
      <trkpt lat="44.50413" lon="5.51856">
        <ele>1086.7</ele>
        <time>2021-09-07T10:51:38Z</time>
      </trkpt>
      <trkpt lat="44.50411" lon="5.51866">
        <ele>1086.4</ele>
        <time>2021-09-07T10:51:39Z</time>
      </trkpt>
      <trkpt lat="44.5041" lon="5.51876">
        <ele>1086.2</ele>
        <time>2021-09-07T10:51:40Z</time>
      </trkpt>
      <trkpt lat="44.5041" lon="5.51886">
        <ele>1085.8</ele>
        <time>2021-09-07T10:51:41Z</time>
      </trkpt>
      <trkpt lat="44.50408" lon="5.51894">
        <ele>1085.4</ele>
        <time>2021-09-07T10:51:42Z</time>
      </trkpt>
      <trkpt lat="44.50405" lon="5.51902">
        <ele>1084.9</ele>
        <time>2021-09-07T10:51:43Z</time>
      </trkpt>
      <trkpt lat="44.50403" lon="5.5191">
        <ele>1084.5</ele>
        <time>2021-09-07T10:51:44Z</time>
      </trkpt>
      <trkpt lat="44.504" lon="5.51917">
        <ele>1084</ele>
        <time>2021-09-07T10:51:45Z</time>
      </trkpt>
      <trkpt lat="44.50397" lon="5.51923">
        <ele>1083.6</ele>
        <time>2021-09-07T10:51:46Z</time>
      </trkpt>
      <trkpt lat="44.50393" lon="5.51928">
        <ele>1083.3</ele>
        <time>2021-09-07T10:51:47Z</time>
      </trkpt>
      <trkpt lat="44.50389" lon="5.5193">
        <ele>1083</ele>
        <time>2021-09-07T10:51:48Z</time>
      </trkpt>
      <trkpt lat="44.50385" lon="5.51932">
        <ele>1082.6</ele>
        <time>2021-09-07T10:51:49Z</time>
      </trkpt>
      <trkpt lat="44.50382" lon="5.51932">
        <ele>1082.4</ele>
        <time>2021-09-07T10:51:50Z</time>
      </trkpt>
      <trkpt lat="44.50377" lon="5.51931">
        <ele>1082</ele>
        <time>2021-09-07T10:51:51Z</time>
      </trkpt>
      <trkpt lat="44.50371" lon="5.51929">
        <ele>1081.5</ele>
        <time>2021-09-07T10:51:52Z</time>
      </trkpt>
      <trkpt lat="44.50364" lon="5.51924">
        <ele>1081</ele>
        <time>2021-09-07T10:51:53Z</time>
      </trkpt>
      <trkpt lat="44.50358" lon="5.51917">
        <ele>1080.5</ele>
        <time>2021-09-07T10:51:54Z</time>
      </trkpt>
      <trkpt lat="44.50351" lon="5.5191">
        <ele>1080.1</ele>
        <time>2021-09-07T10:51:55Z</time>
      </trkpt>
      <trkpt lat="44.50346" lon="5.51905">
        <ele>1080</ele>
        <time>2021-09-07T10:51:56Z</time>
      </trkpt>
      <trkpt lat="44.50341" lon="5.51899">
        <ele>1079.9</ele>
        <time>2021-09-07T10:51:57Z</time>
      </trkpt>
      <trkpt lat="44.50337" lon="5.51895">
        <ele>1080</ele>
        <time>2021-09-07T10:51:58Z</time>
      </trkpt>
      <trkpt lat="44.50334" lon="5.51891">
        <ele>1080</ele>
        <time>2021-09-07T10:51:59Z</time>
      </trkpt>
      <trkpt lat="44.5033" lon="5.51886">
        <ele>1080.2</ele>
        <time>2021-09-07T10:52:00Z</time>
      </trkpt>
      <trkpt lat="44.50327" lon="5.51882">
        <ele>1080.3</ele>
        <time>2021-09-07T10:52:01Z</time>
      </trkpt>
      <trkpt lat="44.50323" lon="5.51877">
        <ele>1080.6</ele>
        <time>2021-09-07T10:52:02Z</time>
      </trkpt>
      <trkpt lat="44.50316" lon="5.51869">
        <ele>1081.1</ele>
        <time>2021-09-07T10:52:03Z</time>
      </trkpt>
      <trkpt lat="44.50311" lon="5.51863">
        <ele>1081.6</ele>
        <time>2021-09-07T10:52:04Z</time>
      </trkpt>
      <trkpt lat="44.50309" lon="5.51861">
        <ele>1081.8</ele>
        <time>2021-09-07T10:52:05Z</time>
      </trkpt>
      <trkpt lat="44.50306" lon="5.51859">
        <ele>1082</ele>
        <time>2021-09-07T10:52:06Z</time>
      </trkpt>
      <trkpt lat="44.50303" lon="5.51856">
        <ele>1082.3</ele>
        <time>2021-09-07T10:52:07Z</time>
      </trkpt>
      <trkpt lat="44.50298" lon="5.51852">
        <ele>1082.7</ele>
        <time>2021-09-07T10:52:08Z</time>
      </trkpt>
      <trkpt lat="44.50295" lon="5.5185">
        <ele>1083</ele>
        <time>2021-09-07T10:52:09Z</time>
      </trkpt>
      <trkpt lat="44.50292" lon="5.51848">
        <ele>1083.2</ele>
        <time>2021-09-07T10:52:10Z</time>
      </trkpt>
      <trkpt lat="44.50285" lon="5.51842">
        <ele>1083.9</ele>
        <time>2021-09-07T10:52:11Z</time>
      </trkpt>
      <trkpt lat="44.50282" lon="5.51839">
        <ele>1084.2</ele>
        <time>2021-09-07T10:52:12Z</time>
      </trkpt>
      <trkpt lat="44.50279" lon="5.51837">
        <ele>1084.5</ele>
        <time>2021-09-07T10:52:13Z</time>
      </trkpt>
      <trkpt lat="44.50276" lon="5.51835">
        <ele>1084.8</ele>
        <time>2021-09-07T10:52:14Z</time>
      </trkpt>
      <trkpt lat="44.50274" lon="5.51834">
        <ele>1085</ele>
        <time>2021-09-07T10:52:15Z</time>
      </trkpt>
      <trkpt lat="44.50271" lon="5.51833">
        <ele>1085.3</ele>
        <time>2021-09-07T10:52:16Z</time>
      </trkpt>
      <trkpt lat="44.50268" lon="5.51832">
        <ele>1085.6</ele>
        <time>2021-09-07T10:52:17Z</time>
      </trkpt>
      <trkpt lat="44.50265" lon="5.51833">
        <ele>1085.9</ele>
        <time>2021-09-07T10:52:18Z</time>
      </trkpt>
      <trkpt lat="44.50261" lon="5.51833">
        <ele>1086.3</ele>
        <time>2021-09-07T10:52:19Z</time>
      </trkpt>
      <trkpt lat="44.50258" lon="5.51833">
        <ele>1086.6</ele>
        <time>2021-09-07T10:52:20Z</time>
      </trkpt>
      <trkpt lat="44.50254" lon="5.51833">
        <ele>1087</ele>
        <time>2021-09-07T10:52:21Z</time>
      </trkpt>
      <trkpt lat="44.50251" lon="5.51833">
        <ele>1087.3</ele>
        <time>2021-09-07T10:52:22Z</time>
      </trkpt>
      <trkpt lat="44.50249" lon="5.51833">
        <ele>1087.4</ele>
        <time>2021-09-07T10:52:23Z</time>
      </trkpt>
      <trkpt lat="44.50246" lon="5.51834">
        <ele>1087.7</ele>
        <time>2021-09-07T10:52:24Z</time>
      </trkpt>
      <trkpt lat="44.50244" lon="5.51833">
        <ele>1087.9</ele>
        <time>2021-09-07T10:52:25Z</time>
      </trkpt>
      <trkpt lat="44.50243" lon="5.51833">
        <ele>1088</ele>
        <time>2021-09-07T10:52:26Z</time>
      </trkpt>
      <trkpt lat="44.50241" lon="5.51832">
        <ele>1088.1</ele>
        <time>2021-09-07T10:52:27Z</time>
      </trkpt>
      <trkpt lat="44.50239" lon="5.51832">
        <ele>1088.3</ele>
        <time>2021-09-07T10:52:28Z</time>
      </trkpt>
      <trkpt lat="44.50237" lon="5.51831">
        <ele>1088.5</ele>
        <time>2021-09-07T10:52:29Z</time>
      </trkpt>
      <trkpt lat="44.50235" lon="5.51831">
        <ele>1088.6</ele>
        <time>2021-09-07T10:52:30Z</time>
      </trkpt>
      <trkpt lat="44.50233" lon="5.5183">
        <ele>1088.8</ele>
        <time>2021-09-07T10:52:31Z</time>
      </trkpt>
      <trkpt lat="44.50231" lon="5.51829">
        <ele>1089</ele>
        <time>2021-09-07T10:52:32Z</time>
      </trkpt>
      <trkpt lat="44.50228" lon="5.51827">
        <ele>1089.2</ele>
        <time>2021-09-07T10:52:33Z</time>
      </trkpt>
      <trkpt lat="44.50226" lon="5.51826">
        <ele>1089.3</ele>
        <time>2021-09-07T10:52:34Z</time>
      </trkpt>
      <trkpt lat="44.50224" lon="5.51825">
        <ele>1089.5</ele>
        <time>2021-09-07T10:52:35Z</time>
      </trkpt>
      <trkpt lat="44.50221" lon="5.51824">
        <ele>1089.6</ele>
        <time>2021-09-07T10:52:36Z</time>
      </trkpt>
      <trkpt lat="44.50219" lon="5.51822">
        <ele>1089.8</ele>
        <time>2021-09-07T10:52:37Z</time>
      </trkpt>
      <trkpt lat="44.50217" lon="5.51821">
        <ele>1089.9</ele>
        <time>2021-09-07T10:52:38Z</time>
      </trkpt>
      <trkpt lat="44.50214" lon="5.5182">
        <ele>1090.1</ele>
        <time>2021-09-07T10:52:39Z</time>
      </trkpt>
      <trkpt lat="44.50212" lon="5.51819">
        <ele>1090.2</ele>
        <time>2021-09-07T10:52:40Z</time>
      </trkpt>
      <trkpt lat="44.50211" lon="5.51819">
        <ele>1090.3</ele>
        <time>2021-09-07T10:52:41Z</time>
      </trkpt>
      <trkpt lat="44.50209" lon="5.51818">
        <ele>1090.4</ele>
        <time>2021-09-07T10:52:42Z</time>
      </trkpt>
      <trkpt lat="44.50207" lon="5.51817">
        <ele>1090.5</ele>
        <time>2021-09-07T10:52:43Z</time>
      </trkpt>
      <trkpt lat="44.50205" lon="5.51815">
        <ele>1090.7</ele>
        <time>2021-09-07T10:52:44Z</time>
      </trkpt>
      <trkpt lat="44.50203" lon="5.51814">
        <ele>1090.8</ele>
        <time>2021-09-07T10:52:45Z</time>
      </trkpt>
      <trkpt lat="44.50201" lon="5.51813">
        <ele>1091</ele>
        <time>2021-09-07T10:52:46Z</time>
      </trkpt>
      <trkpt lat="44.50199" lon="5.51812">
        <ele>1091.1</ele>
        <time>2021-09-07T10:52:47Z</time>
      </trkpt>
      <trkpt lat="44.50197" lon="5.51809">
        <ele>1091.3</ele>
        <time>2021-09-07T10:52:48Z</time>
      </trkpt>
      <trkpt lat="44.50194" lon="5.51806">
        <ele>1091.6</ele>
        <time>2021-09-07T10:52:49Z</time>
      </trkpt>
      <trkpt lat="44.50192" lon="5.51804">
        <ele>1091.7</ele>
        <time>2021-09-07T10:52:50Z</time>
      </trkpt>
      <trkpt lat="44.5019" lon="5.51802">
        <ele>1091.9</ele>
        <time>2021-09-07T10:52:51Z</time>
      </trkpt>
      <trkpt lat="44.50189" lon="5.51801">
        <ele>1092</ele>
        <time>2021-09-07T10:52:52Z</time>
      </trkpt>
      <trkpt lat="44.50188" lon="5.518">
        <ele>1092.1</ele>
        <time>2021-09-07T10:52:53Z</time>
      </trkpt>
      <trkpt lat="44.50186" lon="5.51798">
        <ele>1092.3</ele>
        <time>2021-09-07T10:52:54Z</time>
      </trkpt>
      <trkpt lat="44.50185" lon="5.51796">
        <ele>1092.4</ele>
        <time>2021-09-07T10:52:55Z</time>
      </trkpt>
      <trkpt lat="44.50182" lon="5.51793">
        <ele>1092.7</ele>
        <time>2021-09-07T10:52:56Z</time>
      </trkpt>
      <trkpt lat="44.50181" lon="5.51792">
        <ele>1092.8</ele>
        <time>2021-09-07T10:52:57Z</time>
      </trkpt>
      <trkpt lat="44.50179" lon="5.51791">
        <ele>1092.9</ele>
        <time>2021-09-07T10:52:58Z</time>
      </trkpt>
      <trkpt lat="44.50177" lon="5.5179">
        <ele>1093.1</ele>
        <time>2021-09-07T10:52:59Z</time>
      </trkpt>
      <trkpt lat="44.50174" lon="5.51788">
        <ele>1093.3</ele>
        <time>2021-09-07T10:53:00Z</time>
      </trkpt>
      <trkpt lat="44.50173" lon="5.51788">
        <ele>1093.4</ele>
        <time>2021-09-07T10:53:01Z</time>
      </trkpt>
      <trkpt lat="44.50172" lon="5.51787">
        <ele>1093.5</ele>
        <time>2021-09-07T10:53:02Z</time>
      </trkpt>
      <trkpt lat="44.50171" lon="5.51786">
        <ele>1093.7</ele>
        <time>2021-09-07T10:53:03Z</time>
      </trkpt>
      <trkpt lat="44.50169" lon="5.51784">
        <ele>1093.8</ele>
        <time>2021-09-07T10:53:04Z</time>
      </trkpt>
      <trkpt lat="44.50168" lon="5.51784">
        <ele>1093.9</ele>
        <time>2021-09-07T10:53:05Z</time>
      </trkpt>
      <trkpt lat="44.50166" lon="5.51783">
        <ele>1094.1</ele>
        <time>2021-09-07T10:53:06Z</time>
      </trkpt>
      <trkpt lat="44.50164" lon="5.51781">
        <ele>1094.3</ele>
        <time>2021-09-07T10:53:07Z</time>
      </trkpt>
      <trkpt lat="44.50163" lon="5.5178">
        <ele>1094.4</ele>
        <time>2021-09-07T10:53:08Z</time>
      </trkpt>
      <trkpt lat="44.50161" lon="5.51779">
        <ele>1094.6</ele>
        <time>2021-09-07T10:53:09Z</time>
      </trkpt>
      <trkpt lat="44.50159" lon="5.51778">
        <ele>1094.8</ele>
        <time>2021-09-07T10:53:10Z</time>
      </trkpt>
      <trkpt lat="44.50157" lon="5.51776">
        <ele>1095</ele>
        <time>2021-09-07T10:53:11Z</time>
      </trkpt>
      <trkpt lat="44.50155" lon="5.51775">
        <ele>1095.2</ele>
        <time>2021-09-07T10:53:12Z</time>
      </trkpt>
      <trkpt lat="44.50154" lon="5.51774">
        <ele>1095.3</ele>
        <time>2021-09-07T10:53:13Z</time>
      </trkpt>
      <trkpt lat="44.50152" lon="5.51773">
        <ele>1095.5</ele>
        <time>2021-09-07T10:53:14Z</time>
      </trkpt>
      <trkpt lat="44.50151" lon="5.51772">
        <ele>1095.6</ele>
        <time>2021-09-07T10:53:15Z</time>
      </trkpt>
      <trkpt lat="44.50148" lon="5.51769">
        <ele>1095.9</ele>
        <time>2021-09-07T10:53:16Z</time>
      </trkpt>
      <trkpt lat="44.50147" lon="5.51769">
        <ele>1096</ele>
        <time>2021-09-07T10:53:17Z</time>
      </trkpt>
      <trkpt lat="44.50146" lon="5.51768">
        <ele>1096.1</ele>
        <time>2021-09-07T10:53:18Z</time>
      </trkpt>
      <trkpt lat="44.50144" lon="5.51768">
        <ele>1096.3</ele>
        <time>2021-09-07T10:53:19Z</time>
      </trkpt>
      <trkpt lat="44.50141" lon="5.51767">
        <ele>1096.6</ele>
        <time>2021-09-07T10:53:20Z</time>
      </trkpt>
      <trkpt lat="44.5014" lon="5.51767">
        <ele>1096.7</ele>
        <time>2021-09-07T10:53:21Z</time>
      </trkpt>
      <trkpt lat="44.50139" lon="5.51766">
        <ele>1096.8</ele>
        <time>2021-09-07T10:53:22Z</time>
      </trkpt>
      <trkpt lat="44.50137" lon="5.51766">
        <ele>1097</ele>
        <time>2021-09-07T10:53:23Z</time>
      </trkpt>
      <trkpt lat="44.50136" lon="5.51766">
        <ele>1097.1</ele>
        <time>2021-09-07T10:53:24Z</time>
      </trkpt>
      <trkpt lat="44.50134" lon="5.51765">
        <ele>1097.3</ele>
        <time>2021-09-07T10:53:25Z</time>
      </trkpt>
      <trkpt lat="44.50132" lon="5.51766">
        <ele>1097.4</ele>
        <time>2021-09-07T10:53:26Z</time>
      </trkpt>
      <trkpt lat="44.5013" lon="5.51766">
        <ele>1097.6</ele>
        <time>2021-09-07T10:53:27Z</time>
      </trkpt>
      <trkpt lat="44.50128" lon="5.51767">
        <ele>1097.8</ele>
        <time>2021-09-07T10:53:28Z</time>
      </trkpt>
      <trkpt lat="44.50124" lon="5.51769">
        <ele>1098.2</ele>
        <time>2021-09-07T10:53:29Z</time>
      </trkpt>
      <trkpt lat="44.50123" lon="5.5177">
        <ele>1098.3</ele>
        <time>2021-09-07T10:53:30Z</time>
      </trkpt>
      <trkpt lat="44.50121" lon="5.5177">
        <ele>1098.4</ele>
        <time>2021-09-07T10:53:31Z</time>
      </trkpt>
      <trkpt lat="44.50119" lon="5.5177">
        <ele>1098.6</ele>
        <time>2021-09-07T10:53:32Z</time>
      </trkpt>
      <trkpt lat="44.50118" lon="5.51771">
        <ele>1098.7</ele>
        <time>2021-09-07T10:53:33Z</time>
      </trkpt>
      <trkpt lat="44.50117" lon="5.51772">
        <ele>1098.8</ele>
        <time>2021-09-07T10:53:34Z</time>
      </trkpt>
      <trkpt lat="44.50115" lon="5.51772">
        <ele>1099</ele>
        <time>2021-09-07T10:53:35Z</time>
      </trkpt>
      <trkpt lat="44.50114" lon="5.51773">
        <ele>1099.1</ele>
        <time>2021-09-07T10:53:36Z</time>
      </trkpt>
      <trkpt lat="44.50112" lon="5.51773">
        <ele>1099.3</ele>
        <time>2021-09-07T10:53:37Z</time>
      </trkpt>
      <trkpt lat="44.5011" lon="5.51774">
        <ele>1099.4</ele>
        <time>2021-09-07T10:53:38Z</time>
      </trkpt>
      <trkpt lat="44.50108" lon="5.51774">
        <ele>1099.6</ele>
        <time>2021-09-07T10:53:39Z</time>
      </trkpt>
      <trkpt lat="44.50107" lon="5.51774">
        <ele>1099.7</ele>
        <time>2021-09-07T10:53:40Z</time>
      </trkpt>
      <trkpt lat="44.50105" lon="5.51774">
        <ele>1099.9</ele>
        <time>2021-09-07T10:53:41Z</time>
      </trkpt>
      <trkpt lat="44.50103" lon="5.51775">
        <ele>1100.1</ele>
        <time>2021-09-07T10:53:42Z</time>
      </trkpt>
      <trkpt lat="44.50101" lon="5.51776">
        <ele>1100.3</ele>
        <time>2021-09-07T10:53:43Z</time>
      </trkpt>
      <trkpt lat="44.501" lon="5.51777">
        <ele>1100.4</ele>
        <time>2021-09-07T10:53:44Z</time>
      </trkpt>
      <trkpt lat="44.50098" lon="5.51778">
        <ele>1100.5</ele>
        <time>2021-09-07T10:53:45Z</time>
      </trkpt>
      <trkpt lat="44.50096" lon="5.51779">
        <ele>1100.7</ele>
        <time>2021-09-07T10:53:46Z</time>
      </trkpt>
      <trkpt lat="44.50095" lon="5.5178">
        <ele>1100.9</ele>
        <time>2021-09-07T10:53:47Z</time>
      </trkpt>
      <trkpt lat="44.50093" lon="5.5178">
        <ele>1101</ele>
        <time>2021-09-07T10:53:48Z</time>
      </trkpt>
      <trkpt lat="44.50091" lon="5.5178">
        <ele>1101.2</ele>
        <time>2021-09-07T10:53:49Z</time>
      </trkpt>
      <trkpt lat="44.5009" lon="5.51781">
        <ele>1101.3</ele>
        <time>2021-09-07T10:53:50Z</time>
      </trkpt>
      <trkpt lat="44.50088" lon="5.51781">
        <ele>1101.4</ele>
        <time>2021-09-07T10:53:51Z</time>
      </trkpt>
      <trkpt lat="44.50087" lon="5.51782">
        <ele>1101.6</ele>
        <time>2021-09-07T10:53:52Z</time>
      </trkpt>
      <trkpt lat="44.50085" lon="5.51783">
        <ele>1101.7</ele>
        <time>2021-09-07T10:53:53Z</time>
      </trkpt>
      <trkpt lat="44.50082" lon="5.51784">
        <ele>1101.9</ele>
        <time>2021-09-07T10:53:54Z</time>
      </trkpt>
      <trkpt lat="44.50081" lon="5.51784">
        <ele>1102</ele>
        <time>2021-09-07T10:53:55Z</time>
      </trkpt>
      <trkpt lat="44.50079" lon="5.51784">
        <ele>1102.2</ele>
        <time>2021-09-07T10:53:56Z</time>
      </trkpt>
      <trkpt lat="44.50078" lon="5.51785">
        <ele>1102.2</ele>
        <time>2021-09-07T10:53:57Z</time>
      </trkpt>
      <trkpt lat="44.50076" lon="5.51785">
        <ele>1102.4</ele>
        <time>2021-09-07T10:53:58Z</time>
      </trkpt>
      <trkpt lat="44.50074" lon="5.51786">
        <ele>1102.5</ele>
        <time>2021-09-07T10:53:59Z</time>
      </trkpt>
      <trkpt lat="44.50072" lon="5.51786">
        <ele>1102.7</ele>
        <time>2021-09-07T10:54:00Z</time>
      </trkpt>
      <trkpt lat="44.50069" lon="5.51785">
        <ele>1102.9</ele>
        <time>2021-09-07T10:54:01Z</time>
      </trkpt>
      <trkpt lat="44.50066" lon="5.51785">
        <ele>1103.1</ele>
        <time>2021-09-07T10:54:02Z</time>
      </trkpt>
      <trkpt lat="44.50065" lon="5.51786">
        <ele>1103.2</ele>
        <time>2021-09-07T10:54:03Z</time>
      </trkpt>
      <trkpt lat="44.50063" lon="5.51786">
        <ele>1103.3</ele>
        <time>2021-09-07T10:54:04Z</time>
      </trkpt>
      <trkpt lat="44.5006" lon="5.51786">
        <ele>1103.5</ele>
        <time>2021-09-07T10:54:05Z</time>
      </trkpt>
      <trkpt lat="44.50058" lon="5.51786">
        <ele>1103.7</ele>
        <time>2021-09-07T10:54:06Z</time>
      </trkpt>
      <trkpt lat="44.50056" lon="5.51786">
        <ele>1103.8</ele>
        <time>2021-09-07T10:54:07Z</time>
      </trkpt>
      <trkpt lat="44.50055" lon="5.51786">
        <ele>1103.9</ele>
        <time>2021-09-07T10:54:08Z</time>
      </trkpt>
      <trkpt lat="44.50053" lon="5.51786">
        <ele>1104</ele>
        <time>2021-09-07T10:54:09Z</time>
      </trkpt>
      <trkpt lat="44.5005" lon="5.51785">
        <ele>1104.2</ele>
        <time>2021-09-07T10:54:10Z</time>
      </trkpt>
      <trkpt lat="44.50049" lon="5.51785">
        <ele>1104.3</ele>
        <time>2021-09-07T10:54:11Z</time>
      </trkpt>
      <trkpt lat="44.50048" lon="5.51785">
        <ele>1104.3</ele>
        <time>2021-09-07T10:54:12Z</time>
      </trkpt>
      <trkpt lat="44.50046" lon="5.51785">
        <ele>1104.5</ele>
        <time>2021-09-07T10:54:13Z</time>
      </trkpt>
      <trkpt lat="44.50042" lon="5.51786">
        <ele>1104.7</ele>
        <time>2021-09-07T10:54:14Z</time>
      </trkpt>
      <trkpt lat="44.50041" lon="5.51787">
        <ele>1104.8</ele>
        <time>2021-09-07T10:54:15Z</time>
      </trkpt>
      <trkpt lat="44.5004" lon="5.51788">
        <ele>1104.9</ele>
        <time>2021-09-07T10:54:16Z</time>
      </trkpt>
      <trkpt lat="44.50036" lon="5.51788">
        <ele>1105.2</ele>
        <time>2021-09-07T10:54:17Z</time>
      </trkpt>
      <trkpt lat="44.50035" lon="5.51788">
        <ele>1105.3</ele>
        <time>2021-09-07T10:54:18Z</time>
      </trkpt>
      <trkpt lat="44.50034" lon="5.51788">
        <ele>1105.3</ele>
        <time>2021-09-07T10:54:19Z</time>
      </trkpt>
      <trkpt lat="44.50032" lon="5.51788">
        <ele>1105.5</ele>
        <time>2021-09-07T10:54:20Z</time>
      </trkpt>
      <trkpt lat="44.5003" lon="5.51788">
        <ele>1105.6</ele>
        <time>2021-09-07T10:54:21Z</time>
      </trkpt>
      <trkpt lat="44.50029" lon="5.51788">
        <ele>1105.7</ele>
        <time>2021-09-07T10:54:22Z</time>
      </trkpt>
      <trkpt lat="44.50027" lon="5.51788">
        <ele>1105.8</ele>
        <time>2021-09-07T10:54:23Z</time>
      </trkpt>
      <trkpt lat="44.50025" lon="5.51788">
        <ele>1105.9</ele>
        <time>2021-09-07T10:54:24Z</time>
      </trkpt>
      <trkpt lat="44.50023" lon="5.51788">
        <ele>1106.1</ele>
        <time>2021-09-07T10:54:25Z</time>
      </trkpt>
      <trkpt lat="44.50021" lon="5.51788">
        <ele>1106.2</ele>
        <time>2021-09-07T10:54:26Z</time>
      </trkpt>
      <trkpt lat="44.50018" lon="5.51787">
        <ele>1106.4</ele>
        <time>2021-09-07T10:54:27Z</time>
      </trkpt>
      <trkpt lat="44.50017" lon="5.51787">
        <ele>1106.5</ele>
        <time>2021-09-07T10:54:28Z</time>
      </trkpt>
      <trkpt lat="44.50015" lon="5.51786">
        <ele>1106.6</ele>
        <time>2021-09-07T10:54:29Z</time>
      </trkpt>
      <trkpt lat="44.50013" lon="5.51786">
        <ele>1106.8</ele>
        <time>2021-09-07T10:54:30Z</time>
      </trkpt>
      <trkpt lat="44.5001" lon="5.51785">
        <ele>1107</ele>
        <time>2021-09-07T10:54:31Z</time>
      </trkpt>
      <trkpt lat="44.50006" lon="5.51783">
        <ele>1107.3</ele>
        <time>2021-09-07T10:54:32Z</time>
      </trkpt>
      <trkpt lat="44.50005" lon="5.51783">
        <ele>1107.5</ele>
        <time>2021-09-07T10:54:33Z</time>
      </trkpt>
      <trkpt lat="44.50003" lon="5.51782">
        <ele>1107.6</ele>
        <time>2021-09-07T10:54:34Z</time>
      </trkpt>
      <trkpt lat="44.50001" lon="5.51781">
        <ele>1107.8</ele>
        <time>2021-09-07T10:54:35Z</time>
      </trkpt>
      <trkpt lat="44.49999" lon="5.5178">
        <ele>1107.9</ele>
        <time>2021-09-07T10:54:36Z</time>
      </trkpt>
      <trkpt lat="44.49997" lon="5.5178">
        <ele>1108.1</ele>
        <time>2021-09-07T10:54:37Z</time>
      </trkpt>
      <trkpt lat="44.49994" lon="5.51779">
        <ele>1108.4</ele>
        <time>2021-09-07T10:54:38Z</time>
      </trkpt>
      <trkpt lat="44.49992" lon="5.51779">
        <ele>1108.6</ele>
        <time>2021-09-07T10:54:39Z</time>
      </trkpt>
      <trkpt lat="44.49991" lon="5.51779">
        <ele>1108.7</ele>
        <time>2021-09-07T10:54:40Z</time>
      </trkpt>
      <trkpt lat="44.4999" lon="5.51779">
        <ele>1108.8</ele>
        <time>2021-09-07T10:54:41Z</time>
      </trkpt>
      <trkpt lat="44.49988" lon="5.51779">
        <ele>1109</ele>
        <time>2021-09-07T10:54:42Z</time>
      </trkpt>
      <trkpt lat="44.49986" lon="5.5178">
        <ele>1109.2</ele>
        <time>2021-09-07T10:54:43Z</time>
      </trkpt>
      <trkpt lat="44.49984" lon="5.5178">
        <ele>1109.4</ele>
        <time>2021-09-07T10:54:44Z</time>
      </trkpt>
      <trkpt lat="44.49982" lon="5.51779">
        <ele>1109.6</ele>
        <time>2021-09-07T10:54:45Z</time>
      </trkpt>
      <trkpt lat="44.49981" lon="5.51778">
        <ele>1109.7</ele>
        <time>2021-09-07T10:54:46Z</time>
      </trkpt>
      <trkpt lat="44.49979" lon="5.51777">
        <ele>1109.9</ele>
        <time>2021-09-07T10:54:47Z</time>
      </trkpt>
      <trkpt lat="44.49977" lon="5.51777">
        <ele>1110.1</ele>
        <time>2021-09-07T10:54:48Z</time>
      </trkpt>
      <trkpt lat="44.49975" lon="5.51776">
        <ele>1110.3</ele>
        <time>2021-09-07T10:54:49Z</time>
      </trkpt>
      <trkpt lat="44.49973" lon="5.51776">
        <ele>1110.6</ele>
        <time>2021-09-07T10:54:50Z</time>
      </trkpt>
      <trkpt lat="44.49971" lon="5.51776">
        <ele>1110.8</ele>
        <time>2021-09-07T10:54:51Z</time>
      </trkpt>
      <trkpt lat="44.49969" lon="5.51774">
        <ele>1111</ele>
        <time>2021-09-07T10:54:52Z</time>
      </trkpt>
      <trkpt lat="44.49967" lon="5.51774">
        <ele>1111.2</ele>
        <time>2021-09-07T10:54:53Z</time>
      </trkpt>
      <trkpt lat="44.49966" lon="5.51774">
        <ele>1111.4</ele>
        <time>2021-09-07T10:54:54Z</time>
      </trkpt>
      <trkpt lat="44.49965" lon="5.51775">
        <ele>1111.5</ele>
        <time>2021-09-07T10:54:55Z</time>
      </trkpt>
      <trkpt lat="44.49964" lon="5.51775">
        <ele>1111.6</ele>
        <time>2021-09-07T10:54:56Z</time>
      </trkpt>
      <trkpt lat="44.49964" lon="5.51775">
        <ele>1111.6</ele>
        <time>2021-09-07T10:54:57Z</time>
      </trkpt>
      <trkpt lat="44.49964" lon="5.51774">
        <ele>1111.7</ele>
        <time>2021-09-07T10:54:58Z</time>
      </trkpt>
      <trkpt lat="44.49964" lon="5.51774">
        <ele>1111.7</ele>
        <time>2021-09-07T10:54:59Z</time>
      </trkpt>
      <trkpt lat="44.49963" lon="5.51773">
        <ele>1111.8</ele>
        <time>2021-09-07T10:55:00Z</time>
      </trkpt>
      <trkpt lat="44.49963" lon="5.51773">
        <ele>1111.8</ele>
        <time>2021-09-07T10:55:01Z</time>
      </trkpt>
      <trkpt lat="44.49963" lon="5.51773">
        <ele>1111.8</ele>
        <time>2021-09-07T10:55:02Z</time>
      </trkpt>
      <trkpt lat="44.49963" lon="5.51774">
        <ele>1111.9</ele>
        <time>2021-09-07T10:55:03Z</time>
      </trkpt>
      <trkpt lat="44.49963" lon="5.51774">
        <ele>1111.9</ele>
        <time>2021-09-07T10:55:04Z</time>
      </trkpt>
      <trkpt lat="44.49963" lon="5.51774">
        <ele>1111.9</ele>
        <time>2021-09-07T10:55:05Z</time>
      </trkpt>
      <trkpt lat="44.49963" lon="5.51774">
        <ele>1111.9</ele>
        <time>2021-09-07T10:55:06Z</time>
      </trkpt>
      <trkpt lat="44.49963" lon="5.51774">
        <ele>1111.9</ele>
        <time>2021-09-07T10:55:07Z</time>
      </trkpt>
      <trkpt lat="44.49963" lon="5.51774">
        <ele>1111.9</ele>
        <time>2021-09-07T10:55:08Z</time>
      </trkpt>
      <trkpt lat="44.49963" lon="5.51774">
        <ele>1111.9</ele>
        <time>2021-09-07T10:55:09Z</time>
      </trkpt>
      <trkpt lat="44.49963" lon="5.51774">
        <ele>1111.9</ele>
        <time>2021-09-07T10:55:10Z</time>
      </trkpt>
      <trkpt lat="44.49963" lon="5.51774">
        <ele>1111.9</ele>
        <time>2021-09-07T10:55:11Z</time>
      </trkpt>
      <trkpt lat="44.49963" lon="5.51774">
        <ele>1111.9</ele>
        <time>2021-09-07T10:55:12Z</time>
      </trkpt>
      <trkpt lat="44.49963" lon="5.51774">
        <ele>1111.9</ele>
        <time>2021-09-07T10:55:13Z</time>
      </trkpt>
      <trkpt lat="44.49961" lon="5.51776">
        <ele>1112.2</ele>
        <time>2021-09-07T10:55:14Z</time>
      </trkpt>
      <trkpt lat="44.4996" lon="5.51777">
        <ele>1112.3</ele>
        <time>2021-09-07T10:55:15Z</time>
      </trkpt>
      <trkpt lat="44.49959" lon="5.51777">
        <ele>1112.4</ele>
        <time>2021-09-07T10:55:16Z</time>
      </trkpt>
      <trkpt lat="44.49958" lon="5.51778">
        <ele>1112.6</ele>
        <time>2021-09-07T10:55:17Z</time>
      </trkpt>
      <trkpt lat="44.49956" lon="5.5178">
        <ele>1112.9</ele>
        <time>2021-09-07T10:55:18Z</time>
      </trkpt>
      <trkpt lat="44.49956" lon="5.51781">
        <ele>1112.9</ele>
        <time>2021-09-07T10:55:19Z</time>
      </trkpt>
      <trkpt lat="44.49955" lon="5.51781">
        <ele>1113</ele>
        <time>2021-09-07T10:55:20Z</time>
      </trkpt>
      <trkpt lat="44.49954" lon="5.51782">
        <ele>1113.1</ele>
        <time>2021-09-07T10:55:21Z</time>
      </trkpt>
      <trkpt lat="44.49954" lon="5.51782">
        <ele>1113.1</ele>
        <time>2021-09-07T10:55:22Z</time>
      </trkpt>
      <trkpt lat="44.49954" lon="5.51783">
        <ele>1113.2</ele>
        <time>2021-09-07T10:55:23Z</time>
      </trkpt>
      <trkpt lat="44.49954" lon="5.51783">
        <ele>1113.3</ele>
        <time>2021-09-07T10:55:24Z</time>
      </trkpt>
      <trkpt lat="44.49953" lon="5.51783">
        <ele>1113.3</ele>
        <time>2021-09-07T10:55:25Z</time>
      </trkpt>
      <trkpt lat="44.49953" lon="5.51783">
        <ele>1113.3</ele>
        <time>2021-09-07T10:55:26Z</time>
      </trkpt>
      <trkpt lat="44.49953" lon="5.51783">
        <ele>1113.3</ele>
        <time>2021-09-07T10:55:27Z</time>
      </trkpt>
      <trkpt lat="44.49952" lon="5.51784">
        <ele>1113.5</ele>
        <time>2021-09-07T10:55:28Z</time>
      </trkpt>
      <trkpt lat="44.49952" lon="5.51785">
        <ele>1113.6</ele>
        <time>2021-09-07T10:55:29Z</time>
      </trkpt>
      <trkpt lat="44.49951" lon="5.51785">
        <ele>1113.7</ele>
        <time>2021-09-07T10:55:30Z</time>
      </trkpt>
      <trkpt lat="44.4995" lon="5.51786">
        <ele>1113.8</ele>
        <time>2021-09-07T10:55:31Z</time>
      </trkpt>
      <trkpt lat="44.49947" lon="5.51788">
        <ele>1114.2</ele>
        <time>2021-09-07T10:55:32Z</time>
      </trkpt>
      <trkpt lat="44.49946" lon="5.51789">
        <ele>1114.4</ele>
        <time>2021-09-07T10:55:33Z</time>
      </trkpt>
      <trkpt lat="44.49945" lon="5.51789">
        <ele>1114.5</ele>
        <time>2021-09-07T10:55:34Z</time>
      </trkpt>
      <trkpt lat="44.49945" lon="5.5179">
        <ele>1114.6</ele>
        <time>2021-09-07T10:55:35Z</time>
      </trkpt>
      <trkpt lat="44.49944" lon="5.5179">
        <ele>1114.7</ele>
        <time>2021-09-07T10:55:36Z</time>
      </trkpt>
      <trkpt lat="44.49944" lon="5.5179">
        <ele>1114.7</ele>
        <time>2021-09-07T10:55:37Z</time>
      </trkpt>
      <trkpt lat="44.49944" lon="5.5179">
        <ele>1114.7</ele>
        <time>2021-09-07T10:55:38Z</time>
      </trkpt>
      <trkpt lat="44.49943" lon="5.5179">
        <ele>1114.8</ele>
        <time>2021-09-07T10:55:39Z</time>
      </trkpt>
      <trkpt lat="44.49943" lon="5.5179">
        <ele>1114.8</ele>
        <time>2021-09-07T10:55:40Z</time>
      </trkpt>
      <trkpt lat="44.49943" lon="5.5179">
        <ele>1114.8</ele>
        <time>2021-09-07T10:55:41Z</time>
      </trkpt>
      <trkpt lat="44.49942" lon="5.51791">
        <ele>1114.9</ele>
        <time>2021-09-07T10:55:42Z</time>
      </trkpt>
      <trkpt lat="44.4994" lon="5.51793">
        <ele>1115.2</ele>
        <time>2021-09-07T10:55:43Z</time>
      </trkpt>
      <trkpt lat="44.49938" lon="5.51795">
        <ele>1115.6</ele>
        <time>2021-09-07T10:55:44Z</time>
      </trkpt>
      <trkpt lat="44.49937" lon="5.51796">
        <ele>1115.7</ele>
        <time>2021-09-07T10:55:45Z</time>
      </trkpt>
      <trkpt lat="44.49935" lon="5.51797">
        <ele>1116</ele>
        <time>2021-09-07T10:55:46Z</time>
      </trkpt>
      <trkpt lat="44.49933" lon="5.51797">
        <ele>1116.2</ele>
        <time>2021-09-07T10:55:47Z</time>
      </trkpt>
      <trkpt lat="44.49931" lon="5.51797">
        <ele>1116.5</ele>
        <time>2021-09-07T10:55:48Z</time>
      </trkpt>
      <trkpt lat="44.49929" lon="5.51798">
        <ele>1116.8</ele>
        <time>2021-09-07T10:55:49Z</time>
      </trkpt>
      <trkpt lat="44.49926" lon="5.51799">
        <ele>1117.2</ele>
        <time>2021-09-07T10:55:50Z</time>
      </trkpt>
      <trkpt lat="44.49925" lon="5.518">
        <ele>1117.3</ele>
        <time>2021-09-07T10:55:51Z</time>
      </trkpt>
      <trkpt lat="44.49924" lon="5.518">
        <ele>1117.4</ele>
        <time>2021-09-07T10:55:52Z</time>
      </trkpt>
      <trkpt lat="44.49921" lon="5.51801">
        <ele>1117.8</ele>
        <time>2021-09-07T10:55:53Z</time>
      </trkpt>
      <trkpt lat="44.49919" lon="5.51801">
        <ele>1118.1</ele>
        <time>2021-09-07T10:55:54Z</time>
      </trkpt>
      <trkpt lat="44.49917" lon="5.51801">
        <ele>1118.3</ele>
        <time>2021-09-07T10:55:55Z</time>
      </trkpt>
      <trkpt lat="44.49916" lon="5.51801">
        <ele>1118.4</ele>
        <time>2021-09-07T10:55:56Z</time>
      </trkpt>
      <trkpt lat="44.49914" lon="5.51801">
        <ele>1118.7</ele>
        <time>2021-09-07T10:55:57Z</time>
      </trkpt>
      <trkpt lat="44.49914" lon="5.51801">
        <ele>1118.8</ele>
        <time>2021-09-07T10:55:58Z</time>
      </trkpt>
      <trkpt lat="44.49913" lon="5.51801">
        <ele>1118.8</ele>
        <time>2021-09-07T10:55:59Z</time>
      </trkpt>
      <trkpt lat="44.49913" lon="5.51801">
        <ele>1118.8</ele>
        <time>2021-09-07T10:56:00Z</time>
      </trkpt>
      <trkpt lat="44.49912" lon="5.51801">
        <ele>1118.9</ele>
        <time>2021-09-07T10:56:01Z</time>
      </trkpt>
      <trkpt lat="44.49912" lon="5.51801">
        <ele>1118.9</ele>
        <time>2021-09-07T10:56:02Z</time>
      </trkpt>
      <trkpt lat="44.49912" lon="5.51801">
        <ele>1118.9</ele>
        <time>2021-09-07T10:56:03Z</time>
      </trkpt>
      <trkpt lat="44.49912" lon="5.51801">
        <ele>1118.9</ele>
        <time>2021-09-07T10:56:04Z</time>
      </trkpt>
      <trkpt lat="44.49911" lon="5.51801">
        <ele>1119.1</ele>
        <time>2021-09-07T10:56:05Z</time>
      </trkpt>
      <trkpt lat="44.49911" lon="5.51801">
        <ele>1119.1</ele>
        <time>2021-09-07T10:56:06Z</time>
      </trkpt>
      <trkpt lat="44.49911" lon="5.51801">
        <ele>1119.1</ele>
        <time>2021-09-07T10:56:07Z</time>
      </trkpt>
      <trkpt lat="44.49911" lon="5.51801">
        <ele>1119.1</ele>
        <time>2021-09-07T10:56:08Z</time>
      </trkpt>
      <trkpt lat="44.4991" lon="5.518">
        <ele>1119.2</ele>
        <time>2021-09-07T10:56:09Z</time>
      </trkpt>
      <trkpt lat="44.49908" lon="5.518">
        <ele>1119.4</ele>
        <time>2021-09-07T10:56:10Z</time>
      </trkpt>
      <trkpt lat="44.49907" lon="5.518">
        <ele>1119.6</ele>
        <time>2021-09-07T10:56:11Z</time>
      </trkpt>
      <trkpt lat="44.49905" lon="5.51799">
        <ele>1119.8</ele>
        <time>2021-09-07T10:56:12Z</time>
      </trkpt>
      <trkpt lat="44.49903" lon="5.51799">
        <ele>1120</ele>
        <time>2021-09-07T10:56:13Z</time>
      </trkpt>
      <trkpt lat="44.49902" lon="5.51799">
        <ele>1120.1</ele>
        <time>2021-09-07T10:56:14Z</time>
      </trkpt>
      <trkpt lat="44.499" lon="5.51799">
        <ele>1120.3</ele>
        <time>2021-09-07T10:56:15Z</time>
      </trkpt>
      <trkpt lat="44.49898" lon="5.51798">
        <ele>1120.6</ele>
        <time>2021-09-07T10:56:16Z</time>
      </trkpt>
      <trkpt lat="44.49896" lon="5.51797">
        <ele>1120.8</ele>
        <time>2021-09-07T10:56:17Z</time>
      </trkpt>
      <trkpt lat="44.49894" lon="5.51796">
        <ele>1121</ele>
        <time>2021-09-07T10:56:18Z</time>
      </trkpt>
      <trkpt lat="44.49892" lon="5.51795">
        <ele>1121.3</ele>
        <time>2021-09-07T10:56:19Z</time>
      </trkpt>
      <trkpt lat="44.49889" lon="5.51794">
        <ele>1121.6</ele>
        <time>2021-09-07T10:56:20Z</time>
      </trkpt>
      <trkpt lat="44.49888" lon="5.51793">
        <ele>1121.7</ele>
        <time>2021-09-07T10:56:21Z</time>
      </trkpt>
      <trkpt lat="44.49887" lon="5.51792">
        <ele>1121.8</ele>
        <time>2021-09-07T10:56:22Z</time>
      </trkpt>
      <trkpt lat="44.49885" lon="5.5179">
        <ele>1122.1</ele>
        <time>2021-09-07T10:56:23Z</time>
      </trkpt>
      <trkpt lat="44.49883" lon="5.51789">
        <ele>1122.2</ele>
        <time>2021-09-07T10:56:24Z</time>
      </trkpt>
      <trkpt lat="44.49881" lon="5.51787">
        <ele>1122.5</ele>
        <time>2021-09-07T10:56:25Z</time>
      </trkpt>
      <trkpt lat="44.49878" lon="5.51785">
        <ele>1122.7</ele>
        <time>2021-09-07T10:56:26Z</time>
      </trkpt>
      <trkpt lat="44.49877" lon="5.51783">
        <ele>1122.9</ele>
        <time>2021-09-07T10:56:27Z</time>
      </trkpt>
      <trkpt lat="44.49875" lon="5.51781">
        <ele>1123.1</ele>
        <time>2021-09-07T10:56:28Z</time>
      </trkpt>
      <trkpt lat="44.49874" lon="5.5178">
        <ele>1123.2</ele>
        <time>2021-09-07T10:56:29Z</time>
      </trkpt>
      <trkpt lat="44.49872" lon="5.51778">
        <ele>1123.4</ele>
        <time>2021-09-07T10:56:30Z</time>
      </trkpt>
      <trkpt lat="44.49871" lon="5.51776">
        <ele>1123.5</ele>
        <time>2021-09-07T10:56:31Z</time>
      </trkpt>
      <trkpt lat="44.49868" lon="5.51775">
        <ele>1123.8</ele>
        <time>2021-09-07T10:56:32Z</time>
      </trkpt>
      <trkpt lat="44.49867" lon="5.51774">
        <ele>1123.9</ele>
        <time>2021-09-07T10:56:33Z</time>
      </trkpt>
      <trkpt lat="44.49866" lon="5.51773">
        <ele>1124</ele>
        <time>2021-09-07T10:56:34Z</time>
      </trkpt>
      <trkpt lat="44.49865" lon="5.51773">
        <ele>1124</ele>
        <time>2021-09-07T10:56:35Z</time>
      </trkpt>
      <trkpt lat="44.49863" lon="5.51772">
        <ele>1124.2</ele>
        <time>2021-09-07T10:56:36Z</time>
      </trkpt>
      <trkpt lat="44.49862" lon="5.51772">
        <ele>1124.3</ele>
        <time>2021-09-07T10:56:37Z</time>
      </trkpt>
      <trkpt lat="44.49861" lon="5.51771">
        <ele>1124.4</ele>
        <time>2021-09-07T10:56:38Z</time>
      </trkpt>
      <trkpt lat="44.4986" lon="5.5177">
        <ele>1124.5</ele>
        <time>2021-09-07T10:56:39Z</time>
      </trkpt>
      <trkpt lat="44.49858" lon="5.51769">
        <ele>1124.7</ele>
        <time>2021-09-07T10:56:40Z</time>
      </trkpt>
      <trkpt lat="44.49856" lon="5.51769">
        <ele>1124.9</ele>
        <time>2021-09-07T10:56:41Z</time>
      </trkpt>
      <trkpt lat="44.49854" lon="5.51768">
        <ele>1125.1</ele>
        <time>2021-09-07T10:56:42Z</time>
      </trkpt>
      <trkpt lat="44.49853" lon="5.51767">
        <ele>1125.2</ele>
        <time>2021-09-07T10:56:43Z</time>
      </trkpt>
      <trkpt lat="44.49851" lon="5.51767">
        <ele>1125.4</ele>
        <time>2021-09-07T10:56:44Z</time>
      </trkpt>
      <trkpt lat="44.4985" lon="5.51767">
        <ele>1125.5</ele>
        <time>2021-09-07T10:56:45Z</time>
      </trkpt>
      <trkpt lat="44.49849" lon="5.51767">
        <ele>1125.6</ele>
        <time>2021-09-07T10:56:46Z</time>
      </trkpt>
      <trkpt lat="44.49848" lon="5.51766">
        <ele>1125.7</ele>
        <time>2021-09-07T10:56:47Z</time>
      </trkpt>
      <trkpt lat="44.49846" lon="5.51765">
        <ele>1125.9</ele>
        <time>2021-09-07T10:56:48Z</time>
      </trkpt>
      <trkpt lat="44.49845" lon="5.51764">
        <ele>1126.1</ele>
        <time>2021-09-07T10:56:49Z</time>
      </trkpt>
      <trkpt lat="44.49845" lon="5.51764">
        <ele>1126.1</ele>
        <time>2021-09-07T10:56:50Z</time>
      </trkpt>
      <trkpt lat="44.49845" lon="5.51764">
        <ele>1126.1</ele>
        <time>2021-09-07T10:56:51Z</time>
      </trkpt>
      <trkpt lat="44.49844" lon="5.51764">
        <ele>1126.2</ele>
        <time>2021-09-07T10:56:52Z</time>
      </trkpt>
      <trkpt lat="44.49843" lon="5.51763">
        <ele>1126.3</ele>
        <time>2021-09-07T10:56:53Z</time>
      </trkpt>
      <trkpt lat="44.49843" lon="5.51763">
        <ele>1126.4</ele>
        <time>2021-09-07T10:56:54Z</time>
      </trkpt>
      <trkpt lat="44.49842" lon="5.51763">
        <ele>1126.4</ele>
        <time>2021-09-07T10:56:55Z</time>
      </trkpt>
      <trkpt lat="44.49842" lon="5.51763">
        <ele>1126.4</ele>
        <time>2021-09-07T10:56:56Z</time>
      </trkpt>
      <trkpt lat="44.49841" lon="5.51763">
        <ele>1126.5</ele>
        <time>2021-09-07T10:56:57Z</time>
      </trkpt>
      <trkpt lat="44.49841" lon="5.51763">
        <ele>1126.5</ele>
        <time>2021-09-07T10:56:58Z</time>
      </trkpt>
      <trkpt lat="44.49841" lon="5.51763">
        <ele>1126.5</ele>
        <time>2021-09-07T10:56:59Z</time>
      </trkpt>
      <trkpt lat="44.49841" lon="5.51763">
        <ele>1126.5</ele>
        <time>2021-09-07T10:57:00Z</time>
      </trkpt>
      <trkpt lat="44.49841" lon="5.51763">
        <ele>1126.5</ele>
        <time>2021-09-07T10:57:01Z</time>
      </trkpt>
      <trkpt lat="44.49841" lon="5.51763">
        <ele>1126.5</ele>
        <time>2021-09-07T10:57:02Z</time>
      </trkpt>
      <trkpt lat="44.49841" lon="5.51763">
        <ele>1126.6</ele>
        <time>2021-09-07T10:57:03Z</time>
      </trkpt>
      <trkpt lat="44.4984" lon="5.51763">
        <ele>1126.6</ele>
        <time>2021-09-07T10:57:04Z</time>
      </trkpt>
      <trkpt lat="44.49838" lon="5.51761">
        <ele>1126.9</ele>
        <time>2021-09-07T10:57:05Z</time>
      </trkpt>
      <trkpt lat="44.49837" lon="5.5176">
        <ele>1127</ele>
        <time>2021-09-07T10:57:06Z</time>
      </trkpt>
      <trkpt lat="44.49835" lon="5.51759">
        <ele>1127.3</ele>
        <time>2021-09-07T10:57:07Z</time>
      </trkpt>
      <trkpt lat="44.49833" lon="5.51758">
        <ele>1127.5</ele>
        <time>2021-09-07T10:57:08Z</time>
      </trkpt>
      <trkpt lat="44.49832" lon="5.51757">
        <ele>1127.7</ele>
        <time>2021-09-07T10:57:09Z</time>
      </trkpt>
      <trkpt lat="44.49831" lon="5.51756">
        <ele>1127.8</ele>
        <time>2021-09-07T10:57:10Z</time>
      </trkpt>
      <trkpt lat="44.49831" lon="5.51756">
        <ele>1127.8</ele>
        <time>2021-09-07T10:57:11Z</time>
      </trkpt>
      <trkpt lat="44.49831" lon="5.51756">
        <ele>1127.8</ele>
        <time>2021-09-07T10:57:12Z</time>
      </trkpt>
      <trkpt lat="44.4983" lon="5.51755">
        <ele>1127.9</ele>
        <time>2021-09-07T10:57:13Z</time>
      </trkpt>
      <trkpt lat="44.4983" lon="5.51755">
        <ele>1127.9</ele>
        <time>2021-09-07T10:57:14Z</time>
      </trkpt>
      <trkpt lat="44.4983" lon="5.51755">
        <ele>1127.9</ele>
        <time>2021-09-07T10:57:15Z</time>
      </trkpt>
      <trkpt lat="44.4983" lon="5.51755">
        <ele>1127.9</ele>
        <time>2021-09-07T10:57:16Z</time>
      </trkpt>
      <trkpt lat="44.4983" lon="5.51755">
        <ele>1127.9</ele>
        <time>2021-09-07T10:57:17Z</time>
      </trkpt>
      <trkpt lat="44.4983" lon="5.51755">
        <ele>1127.9</ele>
        <time>2021-09-07T10:57:18Z</time>
      </trkpt>
      <trkpt lat="44.4983" lon="5.51755">
        <ele>1127.9</ele>
        <time>2021-09-07T10:57:19Z</time>
      </trkpt>
      <trkpt lat="44.49829" lon="5.51754">
        <ele>1128.1</ele>
        <time>2021-09-07T10:57:20Z</time>
      </trkpt>
      <trkpt lat="44.49826" lon="5.51754">
        <ele>1128.4</ele>
        <time>2021-09-07T10:57:21Z</time>
      </trkpt>
      <trkpt lat="44.49825" lon="5.51754">
        <ele>1128.5</ele>
        <time>2021-09-07T10:57:22Z</time>
      </trkpt>
      <trkpt lat="44.49824" lon="5.51754">
        <ele>1128.7</ele>
        <time>2021-09-07T10:57:23Z</time>
      </trkpt>
      <trkpt lat="44.49823" lon="5.51754">
        <ele>1128.8</ele>
        <time>2021-09-07T10:57:24Z</time>
      </trkpt>
      <trkpt lat="44.49822" lon="5.51754">
        <ele>1128.9</ele>
        <time>2021-09-07T10:57:25Z</time>
      </trkpt>
      <trkpt lat="44.49821" lon="5.51754">
        <ele>1129</ele>
        <time>2021-09-07T10:57:26Z</time>
      </trkpt>
      <trkpt lat="44.4982" lon="5.51754">
        <ele>1129.1</ele>
        <time>2021-09-07T10:57:27Z</time>
      </trkpt>
      <trkpt lat="44.4982" lon="5.51754">
        <ele>1129.1</ele>
        <time>2021-09-07T10:57:28Z</time>
      </trkpt>
      <trkpt lat="44.49819" lon="5.51754">
        <ele>1129.3</ele>
        <time>2021-09-07T10:57:29Z</time>
      </trkpt>
      <trkpt lat="44.49819" lon="5.51754">
        <ele>1129.3</ele>
        <time>2021-09-07T10:57:30Z</time>
      </trkpt>
      <trkpt lat="44.49819" lon="5.51754">
        <ele>1129.3</ele>
        <time>2021-09-07T10:57:31Z</time>
      </trkpt>
      <trkpt lat="44.49818" lon="5.51754">
        <ele>1129.4</ele>
        <time>2021-09-07T10:57:32Z</time>
      </trkpt>
      <trkpt lat="44.49817" lon="5.51754">
        <ele>1129.5</ele>
        <time>2021-09-07T10:57:33Z</time>
      </trkpt>
      <trkpt lat="44.49816" lon="5.51754">
        <ele>1129.6</ele>
        <time>2021-09-07T10:57:34Z</time>
      </trkpt>
      <trkpt lat="44.49814" lon="5.51753">
        <ele>1129.9</ele>
        <time>2021-09-07T10:57:35Z</time>
      </trkpt>
      <trkpt lat="44.49812" lon="5.51753">
        <ele>1130.1</ele>
        <time>2021-09-07T10:57:36Z</time>
      </trkpt>
      <trkpt lat="44.49809" lon="5.51753">
        <ele>1130.5</ele>
        <time>2021-09-07T10:57:37Z</time>
      </trkpt>
      <trkpt lat="44.49808" lon="5.51753">
        <ele>1130.6</ele>
        <time>2021-09-07T10:57:38Z</time>
      </trkpt>
      <trkpt lat="44.49807" lon="5.51753">
        <ele>1130.7</ele>
        <time>2021-09-07T10:57:39Z</time>
      </trkpt>
      <trkpt lat="44.49805" lon="5.51751">
        <ele>1131</ele>
        <time>2021-09-07T10:57:40Z</time>
      </trkpt>
      <trkpt lat="44.49803" lon="5.5175">
        <ele>1131.2</ele>
        <time>2021-09-07T10:57:41Z</time>
      </trkpt>
      <trkpt lat="44.49802" lon="5.5175">
        <ele>1131.4</ele>
        <time>2021-09-07T10:57:42Z</time>
      </trkpt>
      <trkpt lat="44.49801" lon="5.51749">
        <ele>1131.5</ele>
        <time>2021-09-07T10:57:43Z</time>
      </trkpt>
      <trkpt lat="44.49798" lon="5.51747">
        <ele>1131.9</ele>
        <time>2021-09-07T10:57:44Z</time>
      </trkpt>
      <trkpt lat="44.49796" lon="5.51746">
        <ele>1132.1</ele>
        <time>2021-09-07T10:57:45Z</time>
      </trkpt>
      <trkpt lat="44.49794" lon="5.51745">
        <ele>1132.4</ele>
        <time>2021-09-07T10:57:46Z</time>
      </trkpt>
      <trkpt lat="44.49793" lon="5.51744">
        <ele>1132.5</ele>
        <time>2021-09-07T10:57:47Z</time>
      </trkpt>
      <trkpt lat="44.49793" lon="5.51744">
        <ele>1132.6</ele>
        <time>2021-09-07T10:57:48Z</time>
      </trkpt>
      <trkpt lat="44.49792" lon="5.51743">
        <ele>1132.6</ele>
        <time>2021-09-07T10:57:49Z</time>
      </trkpt>
      <trkpt lat="44.49791" lon="5.51742">
        <ele>1132.8</ele>
        <time>2021-09-07T10:57:50Z</time>
      </trkpt>
      <trkpt lat="44.49791" lon="5.51741">
        <ele>1132.9</ele>
        <time>2021-09-07T10:57:51Z</time>
      </trkpt>
      <trkpt lat="44.49791" lon="5.51741">
        <ele>1132.9</ele>
        <time>2021-09-07T10:57:52Z</time>
      </trkpt>
      <trkpt lat="44.4979" lon="5.5174">
        <ele>1133</ele>
        <time>2021-09-07T10:57:53Z</time>
      </trkpt>
      <trkpt lat="44.49791" lon="5.5174">
        <ele>1133.1</ele>
        <time>2021-09-07T10:57:54Z</time>
      </trkpt>
      <trkpt lat="44.49791" lon="5.5174">
        <ele>1133.1</ele>
        <time>2021-09-07T10:57:55Z</time>
      </trkpt>
      <trkpt lat="44.49791" lon="5.5174">
        <ele>1133.1</ele>
        <time>2021-09-07T10:57:56Z</time>
      </trkpt>
      <trkpt lat="44.49791" lon="5.5174">
        <ele>1133.1</ele>
        <time>2021-09-07T10:57:57Z</time>
      </trkpt>
      <trkpt lat="44.49791" lon="5.5174">
        <ele>1133.1</ele>
        <time>2021-09-07T10:57:58Z</time>
      </trkpt>
      <trkpt lat="44.49791" lon="5.5174">
        <ele>1133.1</ele>
        <time>2021-09-07T10:57:59Z</time>
      </trkpt>
      <trkpt lat="44.49791" lon="5.5174">
        <ele>1133.1</ele>
        <time>2021-09-07T10:58:00Z</time>
      </trkpt>
      <trkpt lat="44.49791" lon="5.5174">
        <ele>1133.1</ele>
        <time>2021-09-07T10:58:01Z</time>
      </trkpt>
      <trkpt lat="44.4979" lon="5.5174">
        <ele>1133.2</ele>
        <time>2021-09-07T10:58:02Z</time>
      </trkpt>
      <trkpt lat="44.4979" lon="5.5174">
        <ele>1133.2</ele>
        <time>2021-09-07T10:58:03Z</time>
      </trkpt>
      <trkpt lat="44.4979" lon="5.5174">
        <ele>1133.2</ele>
        <time>2021-09-07T10:58:04Z</time>
      </trkpt>
      <trkpt lat="44.4979" lon="5.5174">
        <ele>1133.2</ele>
        <time>2021-09-07T10:58:05Z</time>
      </trkpt>
      <trkpt lat="44.49791" lon="5.5174">
        <ele>1133.3</ele>
        <time>2021-09-07T10:58:06Z</time>
      </trkpt>
      <trkpt lat="44.49791" lon="5.5174">
        <ele>1133.4</ele>
        <time>2021-09-07T10:58:07Z</time>
      </trkpt>
      <trkpt lat="44.49791" lon="5.51739">
        <ele>1133.4</ele>
        <time>2021-09-07T10:58:08Z</time>
      </trkpt>
      <trkpt lat="44.49791" lon="5.51739">
        <ele>1133.4</ele>
        <time>2021-09-07T10:58:09Z</time>
      </trkpt>
      <trkpt lat="44.49791" lon="5.51739">
        <ele>1133.4</ele>
        <time>2021-09-07T10:58:10Z</time>
      </trkpt>
      <trkpt lat="44.49791" lon="5.51739">
        <ele>1133.4</ele>
        <time>2021-09-07T10:58:11Z</time>
      </trkpt>
      <trkpt lat="44.49791" lon="5.51739">
        <ele>1133.4</ele>
        <time>2021-09-07T10:58:12Z</time>
      </trkpt>
      <trkpt lat="44.49791" lon="5.51739">
        <ele>1133.4</ele>
        <time>2021-09-07T10:58:13Z</time>
      </trkpt>
      <trkpt lat="44.49791" lon="5.51739">
        <ele>1133.4</ele>
        <time>2021-09-07T10:58:14Z</time>
      </trkpt>
      <trkpt lat="44.49791" lon="5.51739">
        <ele>1133.4</ele>
        <time>2021-09-07T10:58:15Z</time>
      </trkpt>
      <trkpt lat="44.49791" lon="5.5174">
        <ele>1133.4</ele>
        <time>2021-09-07T10:58:16Z</time>
      </trkpt>
      <trkpt lat="44.49791" lon="5.5174">
        <ele>1133.5</ele>
        <time>2021-09-07T10:58:17Z</time>
      </trkpt>
      <trkpt lat="44.49791" lon="5.5174">
        <ele>1133.5</ele>
        <time>2021-09-07T10:58:18Z</time>
      </trkpt>
      <trkpt lat="44.49791" lon="5.5174">
        <ele>1133.5</ele>
        <time>2021-09-07T10:58:19Z</time>
      </trkpt>
      <trkpt lat="44.49791" lon="5.5174">
        <ele>1133.5</ele>
        <time>2021-09-07T10:58:20Z</time>
      </trkpt>
      <trkpt lat="44.49791" lon="5.5174">
        <ele>1133.5</ele>
        <time>2021-09-07T10:58:21Z</time>
      </trkpt>
      <trkpt lat="44.49791" lon="5.5174">
        <ele>1133.5</ele>
        <time>2021-09-07T10:58:22Z</time>
      </trkpt>
      <trkpt lat="44.49791" lon="5.5174">
        <ele>1133.5</ele>
        <time>2021-09-07T10:58:23Z</time>
      </trkpt>
      <trkpt lat="44.4979" lon="5.51741">
        <ele>1133.6</ele>
        <time>2021-09-07T10:58:24Z</time>
      </trkpt>
      <trkpt lat="44.4979" lon="5.51741">
        <ele>1133.6</ele>
        <time>2021-09-07T10:58:25Z</time>
      </trkpt>
      <trkpt lat="44.4979" lon="5.51741">
        <ele>1133.6</ele>
        <time>2021-09-07T10:58:26Z</time>
      </trkpt>
      <trkpt lat="44.4979" lon="5.51741">
        <ele>1133.7</ele>
        <time>2021-09-07T10:58:27Z</time>
      </trkpt>
      <trkpt lat="44.4979" lon="5.5174">
        <ele>1133.7</ele>
        <time>2021-09-07T10:58:28Z</time>
      </trkpt>
      <trkpt lat="44.4979" lon="5.5174">
        <ele>1133.7</ele>
        <time>2021-09-07T10:58:29Z</time>
      </trkpt>
      <trkpt lat="44.4979" lon="5.5174">
        <ele>1133.7</ele>
        <time>2021-09-07T10:58:30Z</time>
      </trkpt>
      <trkpt lat="44.4979" lon="5.5174">
        <ele>1133.7</ele>
        <time>2021-09-07T10:58:31Z</time>
      </trkpt>
      <trkpt lat="44.49791" lon="5.5174">
        <ele>1133.8</ele>
        <time>2021-09-07T10:58:32Z</time>
      </trkpt>
      <trkpt lat="44.4979" lon="5.51739">
        <ele>1133.9</ele>
        <time>2021-09-07T10:58:33Z</time>
      </trkpt>
      <trkpt lat="44.49789" lon="5.51737">
        <ele>1134.1</ele>
        <time>2021-09-07T10:58:34Z</time>
      </trkpt>
      <trkpt lat="44.49789" lon="5.51736">
        <ele>1134.2</ele>
        <time>2021-09-07T10:58:35Z</time>
      </trkpt>
      <trkpt lat="44.49788" lon="5.51734">
        <ele>1134.4</ele>
        <time>2021-09-07T10:58:36Z</time>
      </trkpt>
      <trkpt lat="44.49787" lon="5.51732">
        <ele>1134.6</ele>
        <time>2021-09-07T10:58:37Z</time>
      </trkpt>
      <trkpt lat="44.49786" lon="5.51727">
        <ele>1135.4</ele>
        <time>2021-09-07T10:58:38Z</time>
      </trkpt>
      <trkpt lat="44.49785" lon="5.51722">
        <ele>1135.5</ele>
        <time>2021-09-07T10:58:39Z</time>
      </trkpt>
      <trkpt lat="44.49784" lon="5.51719">
        <ele>1135.5</ele>
        <time>2021-09-07T10:58:40Z</time>
      </trkpt>
      <trkpt lat="44.49784" lon="5.51716">
        <ele>1135.6</ele>
        <time>2021-09-07T10:58:41Z</time>
      </trkpt>
      <trkpt lat="44.49783" lon="5.51713">
        <ele>1135.6</ele>
        <time>2021-09-07T10:58:42Z</time>
      </trkpt>
      <trkpt lat="44.49782" lon="5.51707">
        <ele>1135.6</ele>
        <time>2021-09-07T10:58:43Z</time>
      </trkpt>
      <trkpt lat="44.49781" lon="5.51701">
        <ele>1135.5</ele>
        <time>2021-09-07T10:58:44Z</time>
      </trkpt>
      <trkpt lat="44.49779" lon="5.51689">
        <ele>1135.3</ele>
        <time>2021-09-07T10:58:45Z</time>
      </trkpt>
      <trkpt lat="44.49777" lon="5.51679">
        <ele>1135.3</ele>
        <time>2021-09-07T10:58:46Z</time>
      </trkpt>
      <trkpt lat="44.49777" lon="5.51675">
        <ele>1135.3</ele>
        <time>2021-09-07T10:58:47Z</time>
      </trkpt>
      <trkpt lat="44.49777" lon="5.5167">
        <ele>1135.3</ele>
        <time>2021-09-07T10:58:48Z</time>
      </trkpt>
      <trkpt lat="44.49778" lon="5.51659">
        <ele>1135.3</ele>
        <time>2021-09-07T10:58:49Z</time>
      </trkpt>
      <trkpt lat="44.49778" lon="5.51656">
        <ele>1135.3</ele>
        <time>2021-09-07T10:58:50Z</time>
      </trkpt>
      <trkpt lat="44.49778" lon="5.51652">
        <ele>1135.3</ele>
        <time>2021-09-07T10:58:51Z</time>
      </trkpt>
      <trkpt lat="44.49779" lon="5.51643">
        <ele>1135.5</ele>
        <time>2021-09-07T10:58:52Z</time>
      </trkpt>
      <trkpt lat="44.49779" lon="5.5164">
        <ele>1135.5</ele>
        <time>2021-09-07T10:58:53Z</time>
      </trkpt>
      <trkpt lat="44.49779" lon="5.51637">
        <ele>1135.6</ele>
        <time>2021-09-07T10:58:54Z</time>
      </trkpt>
      <trkpt lat="44.4978" lon="5.51632">
        <ele>1135.7</ele>
        <time>2021-09-07T10:58:55Z</time>
      </trkpt>
      <trkpt lat="44.4978" lon="5.51628">
        <ele>1135.8</ele>
        <time>2021-09-07T10:58:56Z</time>
      </trkpt>
      <trkpt lat="44.4978" lon="5.51625">
        <ele>1135.9</ele>
        <time>2021-09-07T10:58:57Z</time>
      </trkpt>
      <trkpt lat="44.4978" lon="5.51621">
        <ele>1136.1</ele>
        <time>2021-09-07T10:58:58Z</time>
      </trkpt>
      <trkpt lat="44.4978" lon="5.51617">
        <ele>1136.2</ele>
        <time>2021-09-07T10:58:59Z</time>
      </trkpt>
      <trkpt lat="44.49779" lon="5.51612">
        <ele>1136.5</ele>
        <time>2021-09-07T10:59:00Z</time>
      </trkpt>
      <trkpt lat="44.49779" lon="5.51609">
        <ele>1136.6</ele>
        <time>2021-09-07T10:59:01Z</time>
      </trkpt>
      <trkpt lat="44.49778" lon="5.51605">
        <ele>1136.8</ele>
        <time>2021-09-07T10:59:02Z</time>
      </trkpt>
      <trkpt lat="44.49778" lon="5.51601">
        <ele>1137</ele>
        <time>2021-09-07T10:59:03Z</time>
      </trkpt>
      <trkpt lat="44.49778" lon="5.51598">
        <ele>1137.2</ele>
        <time>2021-09-07T10:59:04Z</time>
      </trkpt>
      <trkpt lat="44.49778" lon="5.51594">
        <ele>1137.3</ele>
        <time>2021-09-07T10:59:05Z</time>
      </trkpt>
      <trkpt lat="44.49778" lon="5.5159">
        <ele>1137.5</ele>
        <time>2021-09-07T10:59:06Z</time>
      </trkpt>
      <trkpt lat="44.49778" lon="5.51586">
        <ele>1137.7</ele>
        <time>2021-09-07T10:59:07Z</time>
      </trkpt>
      <trkpt lat="44.49779" lon="5.51581">
        <ele>1137.9</ele>
        <time>2021-09-07T10:59:08Z</time>
      </trkpt>
      <trkpt lat="44.49779" lon="5.51579">
        <ele>1138</ele>
        <time>2021-09-07T10:59:09Z</time>
      </trkpt>
      <trkpt lat="44.49779" lon="5.51576">
        <ele>1138.1</ele>
        <time>2021-09-07T10:59:10Z</time>
      </trkpt>
      <trkpt lat="44.49779" lon="5.51573">
        <ele>1138.3</ele>
        <time>2021-09-07T10:59:11Z</time>
      </trkpt>
      <trkpt lat="44.49779" lon="5.5157">
        <ele>1138.4</ele>
        <time>2021-09-07T10:59:12Z</time>
      </trkpt>
      <trkpt lat="44.49779" lon="5.51567">
        <ele>1138.5</ele>
        <time>2021-09-07T10:59:13Z</time>
      </trkpt>
      <trkpt lat="44.49779" lon="5.51562">
        <ele>1138.7</ele>
        <time>2021-09-07T10:59:14Z</time>
      </trkpt>
      <trkpt lat="44.49779" lon="5.51561">
        <ele>1138.8</ele>
        <time>2021-09-07T10:59:15Z</time>
      </trkpt>
      <trkpt lat="44.49779" lon="5.51559">
        <ele>1138.9</ele>
        <time>2021-09-07T10:59:16Z</time>
      </trkpt>
      <trkpt lat="44.49779" lon="5.51556">
        <ele>1139</ele>
        <time>2021-09-07T10:59:17Z</time>
      </trkpt>
      <trkpt lat="44.49779" lon="5.51551">
        <ele>1139.2</ele>
        <time>2021-09-07T10:59:18Z</time>
      </trkpt>
      <trkpt lat="44.49779" lon="5.51547">
        <ele>1139.4</ele>
        <time>2021-09-07T10:59:19Z</time>
      </trkpt>
      <trkpt lat="44.49779" lon="5.51544">
        <ele>1139.5</ele>
        <time>2021-09-07T10:59:20Z</time>
      </trkpt>
      <trkpt lat="44.49779" lon="5.51543">
        <ele>1139.6</ele>
        <time>2021-09-07T10:59:21Z</time>
      </trkpt>
      <trkpt lat="44.49778" lon="5.51541">
        <ele>1139.6</ele>
        <time>2021-09-07T10:59:22Z</time>
      </trkpt>
      <trkpt lat="44.49778" lon="5.51539">
        <ele>1139.7</ele>
        <time>2021-09-07T10:59:23Z</time>
      </trkpt>
      <trkpt lat="44.49778" lon="5.51537">
        <ele>1139.8</ele>
        <time>2021-09-07T10:59:24Z</time>
      </trkpt>
      <trkpt lat="44.49777" lon="5.51536">
        <ele>1139.9</ele>
        <time>2021-09-07T10:59:25Z</time>
      </trkpt>
      <trkpt lat="44.49776" lon="5.51536">
        <ele>1140</ele>
        <time>2021-09-07T10:59:26Z</time>
      </trkpt>
      <trkpt lat="44.49776" lon="5.51535">
        <ele>1140</ele>
        <time>2021-09-07T10:59:27Z</time>
      </trkpt>
      <trkpt lat="44.49776" lon="5.51535">
        <ele>1140</ele>
        <time>2021-09-07T10:59:28Z</time>
      </trkpt>
      <trkpt lat="44.49776" lon="5.51535">
        <ele>1140</ele>
        <time>2021-09-07T10:59:29Z</time>
      </trkpt>
      <trkpt lat="44.49776" lon="5.51535">
        <ele>1140</ele>
        <time>2021-09-07T10:59:30Z</time>
      </trkpt>
      <trkpt lat="44.49776" lon="5.51535">
        <ele>1140</ele>
        <time>2021-09-07T10:59:31Z</time>
      </trkpt>
      <trkpt lat="44.49775" lon="5.51535">
        <ele>1140.1</ele>
        <time>2021-09-07T10:59:32Z</time>
      </trkpt>
      <trkpt lat="44.49775" lon="5.51535">
        <ele>1140.1</ele>
        <time>2021-09-07T10:59:33Z</time>
      </trkpt>
      <trkpt lat="44.49775" lon="5.51535">
        <ele>1140.1</ele>
        <time>2021-09-07T10:59:34Z</time>
      </trkpt>
      <trkpt lat="44.49775" lon="5.51535">
        <ele>1140.1</ele>
        <time>2021-09-07T10:59:35Z</time>
      </trkpt>
      <trkpt lat="44.49775" lon="5.51535">
        <ele>1140.1</ele>
        <time>2021-09-07T10:59:36Z</time>
      </trkpt>
      <trkpt lat="44.49774" lon="5.51534">
        <ele>1140.1</ele>
        <time>2021-09-07T10:59:37Z</time>
      </trkpt>
      <trkpt lat="44.49773" lon="5.51532">
        <ele>1140.3</ele>
        <time>2021-09-07T10:59:38Z</time>
      </trkpt>
      <trkpt lat="44.49772" lon="5.5153">
        <ele>1140.4</ele>
        <time>2021-09-07T10:59:39Z</time>
      </trkpt>
      <trkpt lat="44.49772" lon="5.51529">
        <ele>1140.4</ele>
        <time>2021-09-07T10:59:40Z</time>
      </trkpt>
      <trkpt lat="44.49771" lon="5.51528">
        <ele>1140.5</ele>
        <time>2021-09-07T10:59:41Z</time>
      </trkpt>
      <trkpt lat="44.4977" lon="5.51527">
        <ele>1140.5</ele>
        <time>2021-09-07T10:59:42Z</time>
      </trkpt>
      <trkpt lat="44.49769" lon="5.51526">
        <ele>1140.6</ele>
        <time>2021-09-07T10:59:43Z</time>
      </trkpt>
      <trkpt lat="44.49769" lon="5.51525">
        <ele>1140.6</ele>
        <time>2021-09-07T10:59:44Z</time>
      </trkpt>
      <trkpt lat="44.49769" lon="5.51525">
        <ele>1140.6</ele>
        <time>2021-09-07T10:59:45Z</time>
      </trkpt>
      <trkpt lat="44.49768" lon="5.51525">
        <ele>1140.7</ele>
        <time>2021-09-07T10:59:46Z</time>
      </trkpt>
      <trkpt lat="44.49768" lon="5.51524">
        <ele>1140.7</ele>
        <time>2021-09-07T10:59:47Z</time>
      </trkpt>
      <trkpt lat="44.49768" lon="5.51524">
        <ele>1140.7</ele>
        <time>2021-09-07T10:59:48Z</time>
      </trkpt>
      <trkpt lat="44.49768" lon="5.51524">
        <ele>1140.7</ele>
        <time>2021-09-07T10:59:49Z</time>
      </trkpt>
      <trkpt lat="44.49768" lon="5.51524">
        <ele>1140.7</ele>
        <time>2021-09-07T10:59:50Z</time>
      </trkpt>
      <trkpt lat="44.49768" lon="5.51524">
        <ele>1140.7</ele>
        <time>2021-09-07T10:59:51Z</time>
      </trkpt>
      <trkpt lat="44.49768" lon="5.51524">
        <ele>1140.7</ele>
        <time>2021-09-07T10:59:52Z</time>
      </trkpt>
      <trkpt lat="44.49767" lon="5.51524">
        <ele>1140.7</ele>
        <time>2021-09-07T10:59:53Z</time>
      </trkpt>
      <trkpt lat="44.49767" lon="5.51523">
        <ele>1140.8</ele>
        <time>2021-09-07T10:59:54Z</time>
      </trkpt>
      <trkpt lat="44.49767" lon="5.5152">
        <ele>1140.9</ele>
        <time>2021-09-07T10:59:55Z</time>
      </trkpt>
      <trkpt lat="44.49767" lon="5.51519">
        <ele>1140.9</ele>
        <time>2021-09-07T10:59:56Z</time>
      </trkpt>
      <trkpt lat="44.49766" lon="5.51518">
        <ele>1140.9</ele>
        <time>2021-09-07T10:59:57Z</time>
      </trkpt>
      <trkpt lat="44.49766" lon="5.51516">
        <ele>1141</ele>
        <time>2021-09-07T10:59:58Z</time>
      </trkpt>
      <trkpt lat="44.49765" lon="5.51513">
        <ele>1141.1</ele>
        <time>2021-09-07T10:59:59Z</time>
      </trkpt>
      <trkpt lat="44.49765" lon="5.51513">
        <ele>1141.1</ele>
        <time>2021-09-07T11:00:00Z</time>
      </trkpt>
      <trkpt lat="44.49764" lon="5.51512">
        <ele>1141.1</ele>
        <time>2021-09-07T11:00:01Z</time>
      </trkpt>
      <trkpt lat="44.49764" lon="5.51511">
        <ele>1141.2</ele>
        <time>2021-09-07T11:00:02Z</time>
      </trkpt>
      <trkpt lat="44.49764" lon="5.5151">
        <ele>1141.2</ele>
        <time>2021-09-07T11:00:03Z</time>
      </trkpt>
      <trkpt lat="44.49764" lon="5.51509">
        <ele>1141.2</ele>
        <time>2021-09-07T11:00:04Z</time>
      </trkpt>
      <trkpt lat="44.49763" lon="5.51509">
        <ele>1141.3</ele>
        <time>2021-09-07T11:00:05Z</time>
      </trkpt>
      <trkpt lat="44.49763" lon="5.51509">
        <ele>1141.3</ele>
        <time>2021-09-07T11:00:06Z</time>
      </trkpt>
      <trkpt lat="44.49763" lon="5.51509">
        <ele>1141.3</ele>
        <time>2021-09-07T11:00:07Z</time>
      </trkpt>
      <trkpt lat="44.49763" lon="5.51509">
        <ele>1141.3</ele>
        <time>2021-09-07T11:00:08Z</time>
      </trkpt>
      <trkpt lat="44.49762" lon="5.51506">
        <ele>1141.4</ele>
        <time>2021-09-07T11:00:09Z</time>
      </trkpt>
      <trkpt lat="44.49762" lon="5.51505">
        <ele>1141.5</ele>
        <time>2021-09-07T11:00:10Z</time>
      </trkpt>
      <trkpt lat="44.49761" lon="5.51504">
        <ele>1141.5</ele>
        <time>2021-09-07T11:00:11Z</time>
      </trkpt>
      <trkpt lat="44.49761" lon="5.51502">
        <ele>1141.6</ele>
        <time>2021-09-07T11:00:12Z</time>
      </trkpt>
      <trkpt lat="44.49759" lon="5.51499">
        <ele>1141.8</ele>
        <time>2021-09-07T11:00:13Z</time>
      </trkpt>
      <trkpt lat="44.49759" lon="5.51499">
        <ele>1141.8</ele>
        <time>2021-09-07T11:00:14Z</time>
      </trkpt>
      <trkpt lat="44.49759" lon="5.51498">
        <ele>1141.8</ele>
        <time>2021-09-07T11:00:15Z</time>
      </trkpt>
      <trkpt lat="44.49758" lon="5.51497">
        <ele>1141.9</ele>
        <time>2021-09-07T11:00:16Z</time>
      </trkpt>
      <trkpt lat="44.49757" lon="5.51497">
        <ele>1141.9</ele>
        <time>2021-09-07T11:00:17Z</time>
      </trkpt>
      <trkpt lat="44.49757" lon="5.51497">
        <ele>1142</ele>
        <time>2021-09-07T11:00:18Z</time>
      </trkpt>
      <trkpt lat="44.49757" lon="5.51496">
        <ele>1142</ele>
        <time>2021-09-07T11:00:19Z</time>
      </trkpt>
      <trkpt lat="44.49757" lon="5.51496">
        <ele>1142</ele>
        <time>2021-09-07T11:00:20Z</time>
      </trkpt>
      <trkpt lat="44.49757" lon="5.51496">
        <ele>1142</ele>
        <time>2021-09-07T11:00:21Z</time>
      </trkpt>
      <trkpt lat="44.49757" lon="5.51495">
        <ele>1142</ele>
        <time>2021-09-07T11:00:22Z</time>
      </trkpt>
      <trkpt lat="44.49757" lon="5.51495">
        <ele>1142.1</ele>
        <time>2021-09-07T11:00:23Z</time>
      </trkpt>
      <trkpt lat="44.49756" lon="5.51494">
        <ele>1142.1</ele>
        <time>2021-09-07T11:00:24Z</time>
      </trkpt>
      <trkpt lat="44.49754" lon="5.51492">
        <ele>1142.3</ele>
        <time>2021-09-07T11:00:25Z</time>
      </trkpt>
      <trkpt lat="44.49754" lon="5.51491">
        <ele>1142.3</ele>
        <time>2021-09-07T11:00:26Z</time>
      </trkpt>
      <trkpt lat="44.49753" lon="5.5149">
        <ele>1142.4</ele>
        <time>2021-09-07T11:00:27Z</time>
      </trkpt>
      <trkpt lat="44.49752" lon="5.51489">
        <ele>1142.5</ele>
        <time>2021-09-07T11:00:28Z</time>
      </trkpt>
      <trkpt lat="44.49751" lon="5.51488">
        <ele>1142.6</ele>
        <time>2021-09-07T11:00:29Z</time>
      </trkpt>
      <trkpt lat="44.49749" lon="5.51487">
        <ele>1142.8</ele>
        <time>2021-09-07T11:00:30Z</time>
      </trkpt>
      <trkpt lat="44.49749" lon="5.51487">
        <ele>1142.8</ele>
        <time>2021-09-07T11:00:31Z</time>
      </trkpt>
      <trkpt lat="44.49748" lon="5.51486">
        <ele>1142.8</ele>
        <time>2021-09-07T11:00:32Z</time>
      </trkpt>
      <trkpt lat="44.49748" lon="5.51486">
        <ele>1142.8</ele>
        <time>2021-09-07T11:00:33Z</time>
      </trkpt>
      <trkpt lat="44.49748" lon="5.51485">
        <ele>1142.9</ele>
        <time>2021-09-07T11:00:34Z</time>
      </trkpt>
      <trkpt lat="44.49748" lon="5.51485">
        <ele>1142.9</ele>
        <time>2021-09-07T11:00:35Z</time>
      </trkpt>
      <trkpt lat="44.49748" lon="5.51485">
        <ele>1142.9</ele>
        <time>2021-09-07T11:00:36Z</time>
      </trkpt>
      <trkpt lat="44.49748" lon="5.51485">
        <ele>1142.9</ele>
        <time>2021-09-07T11:00:37Z</time>
      </trkpt>
      <trkpt lat="44.49748" lon="5.51484">
        <ele>1143</ele>
        <time>2021-09-07T11:00:38Z</time>
      </trkpt>
      <trkpt lat="44.49748" lon="5.51484">
        <ele>1143</ele>
        <time>2021-09-07T11:00:39Z</time>
      </trkpt>
      <trkpt lat="44.49748" lon="5.51484">
        <ele>1143</ele>
        <time>2021-09-07T11:00:40Z</time>
      </trkpt>
      <trkpt lat="44.49748" lon="5.51484">
        <ele>1143</ele>
        <time>2021-09-07T11:00:41Z</time>
      </trkpt>
      <trkpt lat="44.49748" lon="5.51484">
        <ele>1143</ele>
        <time>2021-09-07T11:00:42Z</time>
      </trkpt>
      <trkpt lat="44.49748" lon="5.51484">
        <ele>1143</ele>
        <time>2021-09-07T11:00:43Z</time>
      </trkpt>
      <trkpt lat="44.49748" lon="5.51484">
        <ele>1143</ele>
        <time>2021-09-07T11:00:44Z</time>
      </trkpt>
      <trkpt lat="44.49748" lon="5.51484">
        <ele>1143</ele>
        <time>2021-09-07T11:00:45Z</time>
      </trkpt>
      <trkpt lat="44.49747" lon="5.51483">
        <ele>1143.1</ele>
        <time>2021-09-07T11:00:46Z</time>
      </trkpt>
      <trkpt lat="44.49746" lon="5.51482">
        <ele>1143.2</ele>
        <time>2021-09-07T11:00:47Z</time>
      </trkpt>
      <trkpt lat="44.49745" lon="5.51481">
        <ele>1143.3</ele>
        <time>2021-09-07T11:00:48Z</time>
      </trkpt>
      <trkpt lat="44.49744" lon="5.51481">
        <ele>1143.5</ele>
        <time>2021-09-07T11:00:49Z</time>
      </trkpt>
      <trkpt lat="44.49744" lon="5.51481">
        <ele>1143.5</ele>
        <time>2021-09-07T11:00:50Z</time>
      </trkpt>
      <trkpt lat="44.49743" lon="5.5148">
        <ele>1143.6</ele>
        <time>2021-09-07T11:00:51Z</time>
      </trkpt>
      <trkpt lat="44.49743" lon="5.5148">
        <ele>1143.7</ele>
        <time>2021-09-07T11:00:52Z</time>
      </trkpt>
      <trkpt lat="44.49742" lon="5.51479">
        <ele>1143.8</ele>
        <time>2021-09-07T11:00:53Z</time>
      </trkpt>
      <trkpt lat="44.49742" lon="5.51479">
        <ele>1143.8</ele>
        <time>2021-09-07T11:00:54Z</time>
      </trkpt>
      <trkpt lat="44.49742" lon="5.51478">
        <ele>1143.8</ele>
        <time>2021-09-07T11:00:55Z</time>
      </trkpt>
      <trkpt lat="44.49742" lon="5.51478">
        <ele>1143.9</ele>
        <time>2021-09-07T11:00:56Z</time>
      </trkpt>
      <trkpt lat="44.49741" lon="5.51477">
        <ele>1144</ele>
        <time>2021-09-07T11:00:57Z</time>
      </trkpt>
      <trkpt lat="44.49741" lon="5.51477">
        <ele>1144</ele>
        <time>2021-09-07T11:00:58Z</time>
      </trkpt>
      <trkpt lat="44.49741" lon="5.51477">
        <ele>1144.1</ele>
        <time>2021-09-07T11:00:59Z</time>
      </trkpt>
      <trkpt lat="44.49741" lon="5.51476">
        <ele>1144.1</ele>
        <time>2021-09-07T11:01:00Z</time>
      </trkpt>
      <trkpt lat="44.4974" lon="5.51476">
        <ele>1144.3</ele>
        <time>2021-09-07T11:01:01Z</time>
      </trkpt>
      <trkpt lat="44.4974" lon="5.51476">
        <ele>1144.3</ele>
        <time>2021-09-07T11:01:02Z</time>
      </trkpt>
      <trkpt lat="44.4974" lon="5.51476">
        <ele>1144.3</ele>
        <time>2021-09-07T11:01:03Z</time>
      </trkpt>
      <trkpt lat="44.4974" lon="5.51476">
        <ele>1144.3</ele>
        <time>2021-09-07T11:01:04Z</time>
      </trkpt>
      <trkpt lat="44.4974" lon="5.51475">
        <ele>1144.4</ele>
        <time>2021-09-07T11:01:05Z</time>
      </trkpt>
      <trkpt lat="44.4974" lon="5.51475">
        <ele>1144.4</ele>
        <time>2021-09-07T11:01:06Z</time>
      </trkpt>
      <trkpt lat="44.4974" lon="5.51475">
        <ele>1144.4</ele>
        <time>2021-09-07T11:01:07Z</time>
      </trkpt>
      <trkpt lat="44.4974" lon="5.51475">
        <ele>1144.4</ele>
        <time>2021-09-07T11:01:08Z</time>
      </trkpt>
      <trkpt lat="44.4974" lon="5.51475">
        <ele>1144.4</ele>
        <time>2021-09-07T11:01:09Z</time>
      </trkpt>
      <trkpt lat="44.4974" lon="5.51475">
        <ele>1144.4</ele>
        <time>2021-09-07T11:01:10Z</time>
      </trkpt>
      <trkpt lat="44.4974" lon="5.51475">
        <ele>1144.4</ele>
        <time>2021-09-07T11:01:11Z</time>
      </trkpt>
      <trkpt lat="44.4974" lon="5.51475">
        <ele>1144.4</ele>
        <time>2021-09-07T11:01:12Z</time>
      </trkpt>
      <trkpt lat="44.4974" lon="5.51475">
        <ele>1144.4</ele>
        <time>2021-09-07T11:01:13Z</time>
      </trkpt>
      <trkpt lat="44.4974" lon="5.51475">
        <ele>1144.4</ele>
        <time>2021-09-07T11:01:14Z</time>
      </trkpt>
      <trkpt lat="44.4974" lon="5.51475">
        <ele>1144.4</ele>
        <time>2021-09-07T11:01:15Z</time>
      </trkpt>
      <trkpt lat="44.4974" lon="5.51475">
        <ele>1144.4</ele>
        <time>2021-09-07T11:01:16Z</time>
      </trkpt>
      <trkpt lat="44.4974" lon="5.51475">
        <ele>1144.4</ele>
        <time>2021-09-07T11:01:17Z</time>
      </trkpt>
      <trkpt lat="44.4974" lon="5.51475">
        <ele>1144.4</ele>
        <time>2021-09-07T11:01:18Z</time>
      </trkpt>
      <trkpt lat="44.4974" lon="5.51475">
        <ele>1144.4</ele>
        <time>2021-09-07T11:01:19Z</time>
      </trkpt>
      <trkpt lat="44.4974" lon="5.51475">
        <ele>1144.4</ele>
        <time>2021-09-07T11:01:20Z</time>
      </trkpt>
      <trkpt lat="44.4974" lon="5.51475">
        <ele>1144.4</ele>
        <time>2021-09-07T11:01:21Z</time>
      </trkpt>
      <trkpt lat="44.4974" lon="5.51475">
        <ele>1144.4</ele>
        <time>2021-09-07T11:01:22Z</time>
      </trkpt>
      <trkpt lat="44.4974" lon="5.51475">
        <ele>1144.4</ele>
        <time>2021-09-07T11:01:23Z</time>
      </trkpt>
      <trkpt lat="44.4974" lon="5.51475">
        <ele>1144.4</ele>
        <time>2021-09-07T11:01:24Z</time>
      </trkpt>
      <trkpt lat="44.4974" lon="5.51475">
        <ele>1144.4</ele>
        <time>2021-09-07T11:01:25Z</time>
      </trkpt>
      <trkpt lat="44.4974" lon="5.51475">
        <ele>1144.4</ele>
        <time>2021-09-07T11:01:26Z</time>
      </trkpt>
      <trkpt lat="44.4974" lon="5.51475">
        <ele>1144.4</ele>
        <time>2021-09-07T11:01:27Z</time>
      </trkpt>
      <trkpt lat="44.4974" lon="5.51475">
        <ele>1144.4</ele>
        <time>2021-09-07T11:01:28Z</time>
      </trkpt>
      <trkpt lat="44.4974" lon="5.51475">
        <ele>1144.4</ele>
        <time>2021-09-07T11:01:29Z</time>
      </trkpt>
      <trkpt lat="44.4974" lon="5.51475">
        <ele>1144.4</ele>
        <time>2021-09-07T11:01:30Z</time>
      </trkpt>
      <trkpt lat="44.4974" lon="5.51475">
        <ele>1144.4</ele>
        <time>2021-09-07T11:01:31Z</time>
      </trkpt>
      <trkpt lat="44.4974" lon="5.51475">
        <ele>1144.4</ele>
        <time>2021-09-07T11:01:32Z</time>
      </trkpt>
      <trkpt lat="44.4974" lon="5.51475">
        <ele>1144.4</ele>
        <time>2021-09-07T11:01:33Z</time>
      </trkpt>
      <trkpt lat="44.4974" lon="5.51476">
        <ele>1144.4</ele>
        <time>2021-09-07T11:01:34Z</time>
      </trkpt>
      <trkpt lat="44.4974" lon="5.51476">
        <ele>1144.5</ele>
        <time>2021-09-07T11:01:35Z</time>
      </trkpt>
      <trkpt lat="44.4974" lon="5.51476">
        <ele>1144.5</ele>
        <time>2021-09-07T11:01:36Z</time>
      </trkpt>
      <trkpt lat="44.4974" lon="5.51476">
        <ele>1144.5</ele>
        <time>2021-09-07T11:01:37Z</time>
      </trkpt>
      <trkpt lat="44.4974" lon="5.51476">
        <ele>1144.5</ele>
        <time>2021-09-07T11:01:38Z</time>
      </trkpt>
      <trkpt lat="44.4974" lon="5.51476">
        <ele>1144.5</ele>
        <time>2021-09-07T11:01:39Z</time>
      </trkpt>
      <trkpt lat="44.49739" lon="5.51476">
        <ele>1144.6</ele>
        <time>2021-09-07T11:01:40Z</time>
      </trkpt>
      <trkpt lat="44.49739" lon="5.51476">
        <ele>1144.6</ele>
        <time>2021-09-07T11:01:41Z</time>
      </trkpt>
      <trkpt lat="44.49739" lon="5.51476">
        <ele>1144.6</ele>
        <time>2021-09-07T11:01:42Z</time>
      </trkpt>
      <trkpt lat="44.49739" lon="5.51476">
        <ele>1144.6</ele>
        <time>2021-09-07T11:01:43Z</time>
      </trkpt>
      <trkpt lat="44.49739" lon="5.51476">
        <ele>1144.6</ele>
        <time>2021-09-07T11:01:44Z</time>
      </trkpt>
      <trkpt lat="44.49739" lon="5.51476">
        <ele>1144.6</ele>
        <time>2021-09-07T11:01:45Z</time>
      </trkpt>
      <trkpt lat="44.49739" lon="5.51476">
        <ele>1144.6</ele>
        <time>2021-09-07T11:01:46Z</time>
      </trkpt>
      <trkpt lat="44.49739" lon="5.51476">
        <ele>1144.6</ele>
        <time>2021-09-07T11:01:47Z</time>
      </trkpt>
      <trkpt lat="44.49739" lon="5.51476">
        <ele>1144.6</ele>
        <time>2021-09-07T11:01:48Z</time>
      </trkpt>
      <trkpt lat="44.49739" lon="5.51476">
        <ele>1144.6</ele>
        <time>2021-09-07T11:01:49Z</time>
      </trkpt>
      <trkpt lat="44.49739" lon="5.51476">
        <ele>1144.6</ele>
        <time>2021-09-07T11:01:50Z</time>
      </trkpt>
      <trkpt lat="44.49739" lon="5.51476">
        <ele>1144.6</ele>
        <time>2021-09-07T11:01:51Z</time>
      </trkpt>
      <trkpt lat="44.49739" lon="5.51476">
        <ele>1144.6</ele>
        <time>2021-09-07T11:01:52Z</time>
      </trkpt>
      <trkpt lat="44.49739" lon="5.51476">
        <ele>1144.6</ele>
        <time>2021-09-07T11:01:53Z</time>
      </trkpt>
      <trkpt lat="44.49739" lon="5.51476">
        <ele>1144.6</ele>
        <time>2021-09-07T11:01:54Z</time>
      </trkpt>
      <trkpt lat="44.49739" lon="5.51476">
        <ele>1144.6</ele>
        <time>2021-09-07T11:01:55Z</time>
      </trkpt>
      <trkpt lat="44.49739" lon="5.51476">
        <ele>1144.6</ele>
        <time>2021-09-07T11:01:56Z</time>
      </trkpt>
      <trkpt lat="44.49739" lon="5.51476">
        <ele>1144.6</ele>
        <time>2021-09-07T11:01:57Z</time>
      </trkpt>
      <trkpt lat="44.49739" lon="5.51476">
        <ele>1144.6</ele>
        <time>2021-09-07T11:01:58Z</time>
      </trkpt>
      <trkpt lat="44.49739" lon="5.51476">
        <ele>1144.6</ele>
        <time>2021-09-07T11:01:59Z</time>
      </trkpt>
      <trkpt lat="44.49739" lon="5.51476">
        <ele>1144.6</ele>
        <time>2021-09-07T11:02:00Z</time>
      </trkpt>
      <trkpt lat="44.49739" lon="5.51476">
        <ele>1144.6</ele>
        <time>2021-09-07T11:02:01Z</time>
      </trkpt>
      <trkpt lat="44.49739" lon="5.51476">
        <ele>1144.6</ele>
        <time>2021-09-07T11:02:02Z</time>
      </trkpt>
      <trkpt lat="44.49739" lon="5.51476">
        <ele>1144.6</ele>
        <time>2021-09-07T11:02:03Z</time>
      </trkpt>
      <trkpt lat="44.49739" lon="5.51476">
        <ele>1144.6</ele>
        <time>2021-09-07T11:02:04Z</time>
      </trkpt>
      <trkpt lat="44.49739" lon="5.51476">
        <ele>1144.6</ele>
        <time>2021-09-07T11:02:05Z</time>
      </trkpt>
      <trkpt lat="44.49739" lon="5.51476">
        <ele>1144.6</ele>
        <time>2021-09-07T11:02:06Z</time>
      </trkpt>
      <trkpt lat="44.49739" lon="5.51476">
        <ele>1144.6</ele>
        <time>2021-09-07T11:02:07Z</time>
      </trkpt>
      <trkpt lat="44.49739" lon="5.51476">
        <ele>1144.6</ele>
        <time>2021-09-07T11:02:08Z</time>
      </trkpt>
      <trkpt lat="44.49739" lon="5.51476">
        <ele>1144.6</ele>
        <time>2021-09-07T11:02:09Z</time>
      </trkpt>
      <trkpt lat="44.49739" lon="5.51476">
        <ele>1144.6</ele>
        <time>2021-09-07T11:02:10Z</time>
      </trkpt>
      <trkpt lat="44.49739" lon="5.51476">
        <ele>1144.6</ele>
        <time>2021-09-07T11:02:11Z</time>
      </trkpt>
      <trkpt lat="44.49739" lon="5.51476">
        <ele>1144.6</ele>
        <time>2021-09-07T11:02:12Z</time>
      </trkpt>
      <trkpt lat="44.49739" lon="5.51476">
        <ele>1144.6</ele>
        <time>2021-09-07T11:02:13Z</time>
      </trkpt>
      <trkpt lat="44.49739" lon="5.51476">
        <ele>1144.6</ele>
        <time>2021-09-07T11:02:14Z</time>
      </trkpt>
      <trkpt lat="44.49739" lon="5.51476">
        <ele>1144.6</ele>
        <time>2021-09-07T11:02:15Z</time>
      </trkpt>
      <trkpt lat="44.4974" lon="5.51476">
        <ele>1144.8</ele>
        <time>2021-09-07T11:02:16Z</time>
      </trkpt>
      <trkpt lat="44.4974" lon="5.51476">
        <ele>1144.8</ele>
        <time>2021-09-07T11:02:17Z</time>
      </trkpt>
      <trkpt lat="44.4974" lon="5.51476">
        <ele>1144.8</ele>
        <time>2021-09-07T11:02:18Z</time>
      </trkpt>
      <trkpt lat="44.4974" lon="5.51476">
        <ele>1144.8</ele>
        <time>2021-09-07T11:02:19Z</time>
      </trkpt>
      <trkpt lat="44.4974" lon="5.51476">
        <ele>1144.8</ele>
        <time>2021-09-07T11:02:20Z</time>
      </trkpt>
      <trkpt lat="44.4974" lon="5.51476">
        <ele>1144.8</ele>
        <time>2021-09-07T11:02:21Z</time>
      </trkpt>
      <trkpt lat="44.4974" lon="5.51476">
        <ele>1144.8</ele>
        <time>2021-09-07T11:02:22Z</time>
      </trkpt>
      <trkpt lat="44.49739" lon="5.51475">
        <ele>1145</ele>
        <time>2021-09-07T11:02:23Z</time>
      </trkpt>
      <trkpt lat="44.49737" lon="5.51472">
        <ele>1145.6</ele>
        <time>2021-09-07T11:02:24Z</time>
      </trkpt>
      <trkpt lat="44.49737" lon="5.51471">
        <ele>1145.8</ele>
        <time>2021-09-07T11:02:25Z</time>
      </trkpt>
      <trkpt lat="44.49736" lon="5.5147">
        <ele>1145.9</ele>
        <time>2021-09-07T11:02:26Z</time>
      </trkpt>
      <trkpt lat="44.49735" lon="5.51469">
        <ele>1146.2</ele>
        <time>2021-09-07T11:02:27Z</time>
      </trkpt>
      <trkpt lat="44.49735" lon="5.51467">
        <ele>1146.5</ele>
        <time>2021-09-07T11:02:28Z</time>
      </trkpt>
      <trkpt lat="44.49734" lon="5.51466">
        <ele>1146.8</ele>
        <time>2021-09-07T11:02:29Z</time>
      </trkpt>
      <trkpt lat="44.49733" lon="5.51465">
        <ele>1147</ele>
        <time>2021-09-07T11:02:30Z</time>
      </trkpt>
      <trkpt lat="44.49733" lon="5.51465">
        <ele>1147</ele>
        <time>2021-09-07T11:02:31Z</time>
      </trkpt>
      <trkpt lat="44.49733" lon="5.51465">
        <ele>1147</ele>
        <time>2021-09-07T11:02:32Z</time>
      </trkpt>
      <trkpt lat="44.49733" lon="5.51465">
        <ele>1147</ele>
        <time>2021-09-07T11:02:33Z</time>
      </trkpt>
      <trkpt lat="44.49732" lon="5.51465">
        <ele>1147.3</ele>
        <time>2021-09-07T11:02:34Z</time>
      </trkpt>
      <trkpt lat="44.49732" lon="5.51464">
        <ele>1147.4</ele>
        <time>2021-09-07T11:02:35Z</time>
      </trkpt>
      <trkpt lat="44.49732" lon="5.51464">
        <ele>1147.4</ele>
        <time>2021-09-07T11:02:36Z</time>
      </trkpt>
      <trkpt lat="44.49732" lon="5.51464">
        <ele>1147.4</ele>
        <time>2021-09-07T11:02:37Z</time>
      </trkpt>
      <trkpt lat="44.49732" lon="5.51464">
        <ele>1147.4</ele>
        <time>2021-09-07T11:02:38Z</time>
      </trkpt>
      <trkpt lat="44.49732" lon="5.51463">
        <ele>1147.6</ele>
        <time>2021-09-07T11:02:39Z</time>
      </trkpt>
      <trkpt lat="44.49732" lon="5.51462">
        <ele>1147.7</ele>
        <time>2021-09-07T11:02:40Z</time>
      </trkpt>
      <trkpt lat="44.49733" lon="5.51461">
        <ele>1148</ele>
        <time>2021-09-07T11:02:41Z</time>
      </trkpt>
      <trkpt lat="44.49733" lon="5.51459">
        <ele>1148.2</ele>
        <time>2021-09-07T11:02:42Z</time>
      </trkpt>
      <trkpt lat="44.49733" lon="5.51458">
        <ele>1148.4</ele>
        <time>2021-09-07T11:02:43Z</time>
      </trkpt>
      <trkpt lat="44.49733" lon="5.51457">
        <ele>1148.6</ele>
        <time>2021-09-07T11:02:44Z</time>
      </trkpt>
      <trkpt lat="44.49733" lon="5.51456">
        <ele>1148.7</ele>
        <time>2021-09-07T11:02:45Z</time>
      </trkpt>
      <trkpt lat="44.49733" lon="5.51455">
        <ele>1148.9</ele>
        <time>2021-09-07T11:02:46Z</time>
      </trkpt>
      <trkpt lat="44.49733" lon="5.51454">
        <ele>1149</ele>
        <time>2021-09-07T11:02:47Z</time>
      </trkpt>
      <trkpt lat="44.49733" lon="5.51453">
        <ele>1149.2</ele>
        <time>2021-09-07T11:02:48Z</time>
      </trkpt>
      <trkpt lat="44.49733" lon="5.51453">
        <ele>1149.2</ele>
        <time>2021-09-07T11:02:49Z</time>
      </trkpt>
      <trkpt lat="44.49733" lon="5.51452">
        <ele>1149.4</ele>
        <time>2021-09-07T11:02:50Z</time>
      </trkpt>
      <trkpt lat="44.49733" lon="5.51452">
        <ele>1149.4</ele>
        <time>2021-09-07T11:02:51Z</time>
      </trkpt>
      <trkpt lat="44.49733" lon="5.51451">
        <ele>1149.5</ele>
        <time>2021-09-07T11:02:52Z</time>
      </trkpt>
      <trkpt lat="44.49733" lon="5.51451">
        <ele>1149.5</ele>
        <time>2021-09-07T11:02:53Z</time>
      </trkpt>
      <trkpt lat="44.49733" lon="5.51451">
        <ele>1149.5</ele>
        <time>2021-09-07T11:02:54Z</time>
      </trkpt>
      <trkpt lat="44.49733" lon="5.51451">
        <ele>1149.6</ele>
        <time>2021-09-07T11:02:55Z</time>
      </trkpt>
      <trkpt lat="44.49733" lon="5.5145">
        <ele>1149.7</ele>
        <time>2021-09-07T11:02:56Z</time>
      </trkpt>
      <trkpt lat="44.49733" lon="5.5145">
        <ele>1149.7</ele>
        <time>2021-09-07T11:02:57Z</time>
      </trkpt>
      <trkpt lat="44.49733" lon="5.5145">
        <ele>1149.7</ele>
        <time>2021-09-07T11:02:58Z</time>
      </trkpt>
      <trkpt lat="44.49733" lon="5.5145">
        <ele>1149.7</ele>
        <time>2021-09-07T11:02:59Z</time>
      </trkpt>
      <trkpt lat="44.49733" lon="5.5145">
        <ele>1149.7</ele>
        <time>2021-09-07T11:03:00Z</time>
      </trkpt>
      <trkpt lat="44.49733" lon="5.5145">
        <ele>1149.7</ele>
        <time>2021-09-07T11:03:01Z</time>
      </trkpt>
      <trkpt lat="44.49733" lon="5.51449">
        <ele>1149.8</ele>
        <time>2021-09-07T11:03:02Z</time>
      </trkpt>
      <trkpt lat="44.49734" lon="5.51446">
        <ele>1150.4</ele>
        <time>2021-09-07T11:03:03Z</time>
      </trkpt>
      <trkpt lat="44.49734" lon="5.51445">
        <ele>1150.6</ele>
        <time>2021-09-07T11:03:04Z</time>
      </trkpt>
      <trkpt lat="44.49734" lon="5.51443">
        <ele>1150.8</ele>
        <time>2021-09-07T11:03:05Z</time>
      </trkpt>
      <trkpt lat="44.49734" lon="5.51441">
        <ele>1151.2</ele>
        <time>2021-09-07T11:03:06Z</time>
      </trkpt>
      <trkpt lat="44.49735" lon="5.5144">
        <ele>1151.4</ele>
        <time>2021-09-07T11:03:07Z</time>
      </trkpt>
      <trkpt lat="44.49735" lon="5.51439">
        <ele>1151.6</ele>
        <time>2021-09-07T11:03:08Z</time>
      </trkpt>
      <trkpt lat="44.49735" lon="5.51437">
        <ele>1151.9</ele>
        <time>2021-09-07T11:03:09Z</time>
      </trkpt>
      <trkpt lat="44.49735" lon="5.51436">
        <ele>1152</ele>
        <time>2021-09-07T11:03:10Z</time>
      </trkpt>
      <trkpt lat="44.49735" lon="5.51436">
        <ele>1152</ele>
        <time>2021-09-07T11:03:11Z</time>
      </trkpt>
      <trkpt lat="44.49735" lon="5.51435">
        <ele>1152.2</ele>
        <time>2021-09-07T11:03:12Z</time>
      </trkpt>
      <trkpt lat="44.49735" lon="5.51435">
        <ele>1152.2</ele>
        <time>2021-09-07T11:03:13Z</time>
      </trkpt>
      <trkpt lat="44.49735" lon="5.51435">
        <ele>1152.2</ele>
        <time>2021-09-07T11:03:14Z</time>
      </trkpt>
      <trkpt lat="44.49735" lon="5.51435">
        <ele>1152.2</ele>
        <time>2021-09-07T11:03:15Z</time>
      </trkpt>
      <trkpt lat="44.49735" lon="5.51435">
        <ele>1152.2</ele>
        <time>2021-09-07T11:03:16Z</time>
      </trkpt>
      <trkpt lat="44.49736" lon="5.51435">
        <ele>1152.3</ele>
        <time>2021-09-07T11:03:17Z</time>
      </trkpt>
      <trkpt lat="44.49736" lon="5.51435">
        <ele>1152.4</ele>
        <time>2021-09-07T11:03:18Z</time>
      </trkpt>
      <trkpt lat="44.49736" lon="5.51434">
        <ele>1152.6</ele>
        <time>2021-09-07T11:03:19Z</time>
      </trkpt>
      <trkpt lat="44.49736" lon="5.51434">
        <ele>1152.6</ele>
        <time>2021-09-07T11:03:20Z</time>
      </trkpt>
      <trkpt lat="44.49736" lon="5.51434">
        <ele>1152.6</ele>
        <time>2021-09-07T11:03:21Z</time>
      </trkpt>
      <trkpt lat="44.49736" lon="5.51434">
        <ele>1152.6</ele>
        <time>2021-09-07T11:03:22Z</time>
      </trkpt>
      <trkpt lat="44.49736" lon="5.51434">
        <ele>1152.6</ele>
        <time>2021-09-07T11:03:23Z</time>
      </trkpt>
      <trkpt lat="44.49736" lon="5.51434">
        <ele>1152.6</ele>
        <time>2021-09-07T11:03:24Z</time>
      </trkpt>
      <trkpt lat="44.49736" lon="5.51434">
        <ele>1152.6</ele>
        <time>2021-09-07T11:03:25Z</time>
      </trkpt>
      <trkpt lat="44.49736" lon="5.51434">
        <ele>1152.6</ele>
        <time>2021-09-07T11:03:26Z</time>
      </trkpt>
      <trkpt lat="44.49736" lon="5.51434">
        <ele>1152.6</ele>
        <time>2021-09-07T11:03:27Z</time>
      </trkpt>
      <trkpt lat="44.49736" lon="5.51433">
        <ele>1152.8</ele>
        <time>2021-09-07T11:03:28Z</time>
      </trkpt>
      <trkpt lat="44.49735" lon="5.51432">
        <ele>1153</ele>
        <time>2021-09-07T11:03:29Z</time>
      </trkpt>
      <trkpt lat="44.49735" lon="5.51431">
        <ele>1153.2</ele>
        <time>2021-09-07T11:03:30Z</time>
      </trkpt>
      <trkpt lat="44.49735" lon="5.5143">
        <ele>1153.4</ele>
        <time>2021-09-07T11:03:31Z</time>
      </trkpt>
      <trkpt lat="44.49735" lon="5.51428">
        <ele>1153.6</ele>
        <time>2021-09-07T11:03:32Z</time>
      </trkpt>
      <trkpt lat="44.49735" lon="5.51426">
        <ele>1153.9</ele>
        <time>2021-09-07T11:03:33Z</time>
      </trkpt>
      <trkpt lat="44.49735" lon="5.51425">
        <ele>1154.1</ele>
        <time>2021-09-07T11:03:34Z</time>
      </trkpt>
      <trkpt lat="44.49734" lon="5.51424">
        <ele>1154.3</ele>
        <time>2021-09-07T11:03:35Z</time>
      </trkpt>
      <trkpt lat="44.49734" lon="5.51423">
        <ele>1154.4</ele>
        <time>2021-09-07T11:03:36Z</time>
      </trkpt>
      <trkpt lat="44.49734" lon="5.51422">
        <ele>1154.6</ele>
        <time>2021-09-07T11:03:37Z</time>
      </trkpt>
      <trkpt lat="44.49734" lon="5.51422">
        <ele>1154.7</ele>
        <time>2021-09-07T11:03:38Z</time>
      </trkpt>
      <trkpt lat="44.49733" lon="5.51421">
        <ele>1154.8</ele>
        <time>2021-09-07T11:03:39Z</time>
      </trkpt>
      <trkpt lat="44.49733" lon="5.5142">
        <ele>1155</ele>
        <time>2021-09-07T11:03:40Z</time>
      </trkpt>
      <trkpt lat="44.49733" lon="5.5142">
        <ele>1155</ele>
        <time>2021-09-07T11:03:41Z</time>
      </trkpt>
      <trkpt lat="44.49733" lon="5.5142">
        <ele>1155</ele>
        <time>2021-09-07T11:03:42Z</time>
      </trkpt>
      <trkpt lat="44.49733" lon="5.51419">
        <ele>1155.1</ele>
        <time>2021-09-07T11:03:43Z</time>
      </trkpt>
      <trkpt lat="44.49733" lon="5.51419">
        <ele>1155.1</ele>
        <time>2021-09-07T11:03:44Z</time>
      </trkpt>
      <trkpt lat="44.49733" lon="5.51419">
        <ele>1155.1</ele>
        <time>2021-09-07T11:03:45Z</time>
      </trkpt>
      <trkpt lat="44.49733" lon="5.51419">
        <ele>1155.1</ele>
        <time>2021-09-07T11:03:46Z</time>
      </trkpt>
      <trkpt lat="44.49733" lon="5.51418">
        <ele>1155.3</ele>
        <time>2021-09-07T11:03:47Z</time>
      </trkpt>
      <trkpt lat="44.49733" lon="5.51418">
        <ele>1155.4</ele>
        <time>2021-09-07T11:03:48Z</time>
      </trkpt>
      <trkpt lat="44.49732" lon="5.51418">
        <ele>1155.5</ele>
        <time>2021-09-07T11:03:49Z</time>
      </trkpt>
      <trkpt lat="44.49732" lon="5.51418">
        <ele>1155.5</ele>
        <time>2021-09-07T11:03:50Z</time>
      </trkpt>
      <trkpt lat="44.49732" lon="5.51417">
        <ele>1155.6</ele>
        <time>2021-09-07T11:03:51Z</time>
      </trkpt>
      <trkpt lat="44.49731" lon="5.51415">
        <ele>1155.9</ele>
        <time>2021-09-07T11:03:52Z</time>
      </trkpt>
      <trkpt lat="44.49731" lon="5.51414">
        <ele>1156.1</ele>
        <time>2021-09-07T11:03:53Z</time>
      </trkpt>
      <trkpt lat="44.49731" lon="5.51413">
        <ele>1156.2</ele>
        <time>2021-09-07T11:03:54Z</time>
      </trkpt>
      <trkpt lat="44.4973" lon="5.5141">
        <ele>1156.7</ele>
        <time>2021-09-07T11:03:55Z</time>
      </trkpt>
      <trkpt lat="44.49729" lon="5.51407">
        <ele>1157.1</ele>
        <time>2021-09-07T11:03:56Z</time>
      </trkpt>
      <trkpt lat="44.49729" lon="5.51405">
        <ele>1157.4</ele>
        <time>2021-09-07T11:03:57Z</time>
      </trkpt>
      <trkpt lat="44.49729" lon="5.51405">
        <ele>1157.5</ele>
        <time>2021-09-07T11:03:58Z</time>
      </trkpt>
      <trkpt lat="44.49729" lon="5.51404">
        <ele>1157.6</ele>
        <time>2021-09-07T11:03:59Z</time>
      </trkpt>
      <trkpt lat="44.49728" lon="5.51404">
        <ele>1157.8</ele>
        <time>2021-09-07T11:04:00Z</time>
      </trkpt>
      <trkpt lat="44.49728" lon="5.51403">
        <ele>1157.9</ele>
        <time>2021-09-07T11:04:01Z</time>
      </trkpt>
      <trkpt lat="44.49728" lon="5.51403">
        <ele>1158</ele>
        <time>2021-09-07T11:04:02Z</time>
      </trkpt>
      <trkpt lat="44.49728" lon="5.51402">
        <ele>1158</ele>
        <time>2021-09-07T11:04:03Z</time>
      </trkpt>
      <trkpt lat="44.49728" lon="5.51402">
        <ele>1158</ele>
        <time>2021-09-07T11:04:04Z</time>
      </trkpt>
      <trkpt lat="44.49728" lon="5.51402">
        <ele>1158</ele>
        <time>2021-09-07T11:04:05Z</time>
      </trkpt>
      <trkpt lat="44.49728" lon="5.51401">
        <ele>1158.2</ele>
        <time>2021-09-07T11:04:06Z</time>
      </trkpt>
      <trkpt lat="44.49728" lon="5.514">
        <ele>1158.4</ele>
        <time>2021-09-07T11:04:07Z</time>
      </trkpt>
      <trkpt lat="44.49728" lon="5.51398">
        <ele>1158.6</ele>
        <time>2021-09-07T11:04:08Z</time>
      </trkpt>
      <trkpt lat="44.49728" lon="5.51396">
        <ele>1158.9</ele>
        <time>2021-09-07T11:04:09Z</time>
      </trkpt>
      <trkpt lat="44.49729" lon="5.51395">
        <ele>1159.1</ele>
        <time>2021-09-07T11:04:10Z</time>
      </trkpt>
      <trkpt lat="44.49729" lon="5.51393">
        <ele>1159.3</ele>
        <time>2021-09-07T11:04:11Z</time>
      </trkpt>
      <trkpt lat="44.49729" lon="5.51392">
        <ele>1159.4</ele>
        <time>2021-09-07T11:04:12Z</time>
      </trkpt>
      <trkpt lat="44.4973" lon="5.51391">
        <ele>1159.7</ele>
        <time>2021-09-07T11:04:13Z</time>
      </trkpt>
      <trkpt lat="44.4973" lon="5.51391">
        <ele>1159.7</ele>
        <time>2021-09-07T11:04:14Z</time>
      </trkpt>
      <trkpt lat="44.4973" lon="5.5139">
        <ele>1159.8</ele>
        <time>2021-09-07T11:04:15Z</time>
      </trkpt>
      <trkpt lat="44.4973" lon="5.5139">
        <ele>1159.9</ele>
        <time>2021-09-07T11:04:16Z</time>
      </trkpt>
      <trkpt lat="44.4973" lon="5.51389">
        <ele>1159.9</ele>
        <time>2021-09-07T11:04:17Z</time>
      </trkpt>
      <trkpt lat="44.4973" lon="5.51388">
        <ele>1160.1</ele>
        <time>2021-09-07T11:04:18Z</time>
      </trkpt>
      <trkpt lat="44.4973" lon="5.51388">
        <ele>1160.1</ele>
        <time>2021-09-07T11:04:19Z</time>
      </trkpt>
      <trkpt lat="44.4973" lon="5.51388">
        <ele>1160.1</ele>
        <time>2021-09-07T11:04:20Z</time>
      </trkpt>
      <trkpt lat="44.4973" lon="5.51387">
        <ele>1160.2</ele>
        <time>2021-09-07T11:04:21Z</time>
      </trkpt>
      <trkpt lat="44.4973" lon="5.51387">
        <ele>1160.2</ele>
        <time>2021-09-07T11:04:22Z</time>
      </trkpt>
      <trkpt lat="44.4973" lon="5.51387">
        <ele>1160.2</ele>
        <time>2021-09-07T11:04:23Z</time>
      </trkpt>
      <trkpt lat="44.4973" lon="5.51387">
        <ele>1160.2</ele>
        <time>2021-09-07T11:04:24Z</time>
      </trkpt>
      <trkpt lat="44.4973" lon="5.51386">
        <ele>1160.3</ele>
        <time>2021-09-07T11:04:25Z</time>
      </trkpt>
      <trkpt lat="44.49731" lon="5.51386">
        <ele>1160.4</ele>
        <time>2021-09-07T11:04:26Z</time>
      </trkpt>
      <trkpt lat="44.49731" lon="5.51386">
        <ele>1160.5</ele>
        <time>2021-09-07T11:04:27Z</time>
      </trkpt>
      <trkpt lat="44.49731" lon="5.51386">
        <ele>1160.5</ele>
        <time>2021-09-07T11:04:28Z</time>
      </trkpt>
      <trkpt lat="44.49731" lon="5.51386">
        <ele>1160.5</ele>
        <time>2021-09-07T11:04:29Z</time>
      </trkpt>
      <trkpt lat="44.49731" lon="5.51386">
        <ele>1160.5</ele>
        <time>2021-09-07T11:04:30Z</time>
      </trkpt>
      <trkpt lat="44.49731" lon="5.51386">
        <ele>1160.6</ele>
        <time>2021-09-07T11:04:31Z</time>
      </trkpt>
      <trkpt lat="44.4973" lon="5.51386">
        <ele>1160.7</ele>
        <time>2021-09-07T11:04:32Z</time>
      </trkpt>
      <trkpt lat="44.4973" lon="5.51385">
        <ele>1160.8</ele>
        <time>2021-09-07T11:04:33Z</time>
      </trkpt>
      <trkpt lat="44.4973" lon="5.51385">
        <ele>1160.9</ele>
        <time>2021-09-07T11:04:34Z</time>
      </trkpt>
      <trkpt lat="44.4973" lon="5.51384">
        <ele>1161</ele>
        <time>2021-09-07T11:04:35Z</time>
      </trkpt>
      <trkpt lat="44.4973" lon="5.51381">
        <ele>1161.4</ele>
        <time>2021-09-07T11:04:36Z</time>
      </trkpt>
      <trkpt lat="44.4973" lon="5.51379">
        <ele>1161.6</ele>
        <time>2021-09-07T11:04:37Z</time>
      </trkpt>
      <trkpt lat="44.4973" lon="5.51379">
        <ele>1161.7</ele>
        <time>2021-09-07T11:04:38Z</time>
      </trkpt>
      <trkpt lat="44.4973" lon="5.51379">
        <ele>1161.7</ele>
        <time>2021-09-07T11:04:39Z</time>
      </trkpt>
      <trkpt lat="44.4973" lon="5.51378">
        <ele>1161.8</ele>
        <time>2021-09-07T11:04:40Z</time>
      </trkpt>
      <trkpt lat="44.4973" lon="5.51378">
        <ele>1161.8</ele>
        <time>2021-09-07T11:04:41Z</time>
      </trkpt>
      <trkpt lat="44.4973" lon="5.51378">
        <ele>1161.8</ele>
        <time>2021-09-07T11:04:42Z</time>
      </trkpt>
      <trkpt lat="44.4973" lon="5.51377">
        <ele>1161.9</ele>
        <time>2021-09-07T11:04:43Z</time>
      </trkpt>
      <trkpt lat="44.4973" lon="5.51377">
        <ele>1161.9</ele>
        <time>2021-09-07T11:04:44Z</time>
      </trkpt>
      <trkpt lat="44.4973" lon="5.51376">
        <ele>1162</ele>
        <time>2021-09-07T11:04:45Z</time>
      </trkpt>
      <trkpt lat="44.49731" lon="5.51376">
        <ele>1162</ele>
        <time>2021-09-07T11:04:46Z</time>
      </trkpt>
      <trkpt lat="44.49731" lon="5.51376">
        <ele>1162.1</ele>
        <time>2021-09-07T11:04:47Z</time>
      </trkpt>
      <trkpt lat="44.49731" lon="5.51375">
        <ele>1162.1</ele>
        <time>2021-09-07T11:04:48Z</time>
      </trkpt>
      <trkpt lat="44.49731" lon="5.51375">
        <ele>1162.2</ele>
        <time>2021-09-07T11:04:49Z</time>
      </trkpt>
      <trkpt lat="44.49731" lon="5.51375">
        <ele>1162.2</ele>
        <time>2021-09-07T11:04:50Z</time>
      </trkpt>
      <trkpt lat="44.49731" lon="5.51374">
        <ele>1162.3</ele>
        <time>2021-09-07T11:04:51Z</time>
      </trkpt>
      <trkpt lat="44.49731" lon="5.51374">
        <ele>1162.3</ele>
        <time>2021-09-07T11:04:52Z</time>
      </trkpt>
      <trkpt lat="44.49731" lon="5.51374">
        <ele>1162.4</ele>
        <time>2021-09-07T11:04:53Z</time>
      </trkpt>
      <trkpt lat="44.49731" lon="5.51373">
        <ele>1162.4</ele>
        <time>2021-09-07T11:04:54Z</time>
      </trkpt>
      <trkpt lat="44.49731" lon="5.51373">
        <ele>1162.5</ele>
        <time>2021-09-07T11:04:55Z</time>
      </trkpt>
      <trkpt lat="44.49731" lon="5.51373">
        <ele>1162.5</ele>
        <time>2021-09-07T11:04:56Z</time>
      </trkpt>
      <trkpt lat="44.49731" lon="5.51372">
        <ele>1162.6</ele>
        <time>2021-09-07T11:04:57Z</time>
      </trkpt>
      <trkpt lat="44.49731" lon="5.51372">
        <ele>1162.6</ele>
        <time>2021-09-07T11:04:58Z</time>
      </trkpt>
      <trkpt lat="44.49731" lon="5.51372">
        <ele>1162.7</ele>
        <time>2021-09-07T11:04:59Z</time>
      </trkpt>
      <trkpt lat="44.49731" lon="5.51371">
        <ele>1162.7</ele>
        <time>2021-09-07T11:05:00Z</time>
      </trkpt>
      <trkpt lat="44.49731" lon="5.51371">
        <ele>1162.8</ele>
        <time>2021-09-07T11:05:01Z</time>
      </trkpt>
      <trkpt lat="44.49731" lon="5.51371">
        <ele>1162.8</ele>
        <time>2021-09-07T11:05:02Z</time>
      </trkpt>
      <trkpt lat="44.49731" lon="5.5137">
        <ele>1162.9</ele>
        <time>2021-09-07T11:05:03Z</time>
      </trkpt>
      <trkpt lat="44.49731" lon="5.5137">
        <ele>1162.9</ele>
        <time>2021-09-07T11:05:04Z</time>
      </trkpt>
      <trkpt lat="44.49731" lon="5.5137">
        <ele>1163</ele>
        <time>2021-09-07T11:05:05Z</time>
      </trkpt>
      <trkpt lat="44.49731" lon="5.51369">
        <ele>1163</ele>
        <time>2021-09-07T11:05:06Z</time>
      </trkpt>
      <trkpt lat="44.49731" lon="5.51369">
        <ele>1163.1</ele>
        <time>2021-09-07T11:05:07Z</time>
      </trkpt>
      <trkpt lat="44.49732" lon="5.51369">
        <ele>1163.1</ele>
        <time>2021-09-07T11:05:08Z</time>
      </trkpt>
      <trkpt lat="44.49732" lon="5.51368">
        <ele>1163.2</ele>
        <time>2021-09-07T11:05:09Z</time>
      </trkpt>
      <trkpt lat="44.49732" lon="5.51368">
        <ele>1163.2</ele>
        <time>2021-09-07T11:05:10Z</time>
      </trkpt>
      <trkpt lat="44.49732" lon="5.51368">
        <ele>1163.3</ele>
        <time>2021-09-07T11:05:11Z</time>
      </trkpt>
      <trkpt lat="44.49732" lon="5.51367">
        <ele>1163.3</ele>
        <time>2021-09-07T11:05:12Z</time>
      </trkpt>
      <trkpt lat="44.49732" lon="5.51367">
        <ele>1163.4</ele>
        <time>2021-09-07T11:05:13Z</time>
      </trkpt>
      <trkpt lat="44.49732" lon="5.51367">
        <ele>1163.4</ele>
        <time>2021-09-07T11:05:14Z</time>
      </trkpt>
      <trkpt lat="44.49732" lon="5.51366">
        <ele>1163.5</ele>
        <time>2021-09-07T11:05:15Z</time>
      </trkpt>
      <trkpt lat="44.49732" lon="5.51366">
        <ele>1163.5</ele>
        <time>2021-09-07T11:05:16Z</time>
      </trkpt>
      <trkpt lat="44.49732" lon="5.51366">
        <ele>1163.6</ele>
        <time>2021-09-07T11:05:17Z</time>
      </trkpt>
      <trkpt lat="44.49732" lon="5.51365">
        <ele>1163.6</ele>
        <time>2021-09-07T11:05:18Z</time>
      </trkpt>
      <trkpt lat="44.49732" lon="5.51365">
        <ele>1163.7</ele>
        <time>2021-09-07T11:05:19Z</time>
      </trkpt>
      <trkpt lat="44.49732" lon="5.51365">
        <ele>1163.7</ele>
        <time>2021-09-07T11:05:20Z</time>
      </trkpt>
      <trkpt lat="44.49732" lon="5.51359">
        <ele>1164.5</ele>
        <time>2021-09-07T11:05:21Z</time>
      </trkpt>
      <trkpt lat="44.49732" lon="5.51357">
        <ele>1164.7</ele>
        <time>2021-09-07T11:05:22Z</time>
      </trkpt>
      <trkpt lat="44.49732" lon="5.51356">
        <ele>1164.9</ele>
        <time>2021-09-07T11:05:23Z</time>
      </trkpt>
      <trkpt lat="44.49732" lon="5.51355">
        <ele>1165</ele>
        <time>2021-09-07T11:05:24Z</time>
      </trkpt>
      <trkpt lat="44.49732" lon="5.51358">
        <ele>1165.4</ele>
        <time>2021-09-07T11:05:25Z</time>
      </trkpt>
      <trkpt lat="44.49733" lon="5.51358">
        <ele>1165.5</ele>
        <time>2021-09-07T11:05:26Z</time>
      </trkpt>
      <trkpt lat="44.49733" lon="5.51358">
        <ele>1165.6</ele>
        <time>2021-09-07T11:05:27Z</time>
      </trkpt>
      <trkpt lat="44.49733" lon="5.51357">
        <ele>1165.8</ele>
        <time>2021-09-07T11:05:28Z</time>
      </trkpt>
      <trkpt lat="44.49733" lon="5.51357">
        <ele>1165.9</ele>
        <time>2021-09-07T11:05:29Z</time>
      </trkpt>
      <trkpt lat="44.49732" lon="5.51356">
        <ele>1166</ele>
        <time>2021-09-07T11:05:30Z</time>
      </trkpt>
      <trkpt lat="44.49732" lon="5.51356">
        <ele>1166</ele>
        <time>2021-09-07T11:05:31Z</time>
      </trkpt>
      <trkpt lat="44.49732" lon="5.51355">
        <ele>1166.1</ele>
        <time>2021-09-07T11:05:32Z</time>
      </trkpt>
      <trkpt lat="44.49732" lon="5.51355">
        <ele>1166.1</ele>
        <time>2021-09-07T11:05:33Z</time>
      </trkpt>
      <trkpt lat="44.49732" lon="5.51355">
        <ele>1166.2</ele>
        <time>2021-09-07T11:05:34Z</time>
      </trkpt>
      <trkpt lat="44.49732" lon="5.51354">
        <ele>1166.3</ele>
        <time>2021-09-07T11:05:35Z</time>
      </trkpt>
      <trkpt lat="44.49732" lon="5.51354">
        <ele>1166.3</ele>
        <time>2021-09-07T11:05:36Z</time>
      </trkpt>
      <trkpt lat="44.49732" lon="5.51354">
        <ele>1166.3</ele>
        <time>2021-09-07T11:05:37Z</time>
      </trkpt>
      <trkpt lat="44.49732" lon="5.51353">
        <ele>1166.4</ele>
        <time>2021-09-07T11:05:38Z</time>
      </trkpt>
      <trkpt lat="44.49733" lon="5.51352">
        <ele>1166.6</ele>
        <time>2021-09-07T11:05:39Z</time>
      </trkpt>
      <trkpt lat="44.49733" lon="5.5135">
        <ele>1166.9</ele>
        <time>2021-09-07T11:05:40Z</time>
      </trkpt>
      <trkpt lat="44.49733" lon="5.51348">
        <ele>1167.1</ele>
        <time>2021-09-07T11:05:41Z</time>
      </trkpt>
      <trkpt lat="44.49733" lon="5.51347">
        <ele>1167.3</ele>
        <time>2021-09-07T11:05:42Z</time>
      </trkpt>
      <trkpt lat="44.49733" lon="5.51346">
        <ele>1167.4</ele>
        <time>2021-09-07T11:05:43Z</time>
      </trkpt>
      <trkpt lat="44.49734" lon="5.51345">
        <ele>1167.6</ele>
        <time>2021-09-07T11:05:44Z</time>
      </trkpt>
      <trkpt lat="44.49734" lon="5.51343">
        <ele>1167.9</ele>
        <time>2021-09-07T11:05:45Z</time>
      </trkpt>
      <trkpt lat="44.49734" lon="5.51342">
        <ele>1168</ele>
        <time>2021-09-07T11:05:46Z</time>
      </trkpt>
      <trkpt lat="44.49734" lon="5.51342">
        <ele>1168.1</ele>
        <time>2021-09-07T11:05:47Z</time>
      </trkpt>
      <trkpt lat="44.49734" lon="5.51341">
        <ele>1168.2</ele>
        <time>2021-09-07T11:05:48Z</time>
      </trkpt>
      <trkpt lat="44.49734" lon="5.51341">
        <ele>1168.2</ele>
        <time>2021-09-07T11:05:49Z</time>
      </trkpt>
      <trkpt lat="44.49734" lon="5.5134">
        <ele>1168.3</ele>
        <time>2021-09-07T11:05:50Z</time>
      </trkpt>
      <trkpt lat="44.49734" lon="5.5134">
        <ele>1168.3</ele>
        <time>2021-09-07T11:05:51Z</time>
      </trkpt>
      <trkpt lat="44.49734" lon="5.5134">
        <ele>1168.3</ele>
        <time>2021-09-07T11:05:52Z</time>
      </trkpt>
      <trkpt lat="44.49734" lon="5.51339">
        <ele>1168.4</ele>
        <time>2021-09-07T11:05:53Z</time>
      </trkpt>
      <trkpt lat="44.49734" lon="5.51339">
        <ele>1168.4</ele>
        <time>2021-09-07T11:05:54Z</time>
      </trkpt>
      <trkpt lat="44.49734" lon="5.51339">
        <ele>1168.4</ele>
        <time>2021-09-07T11:05:55Z</time>
      </trkpt>
      <trkpt lat="44.49734" lon="5.51336">
        <ele>1168.8</ele>
        <time>2021-09-07T11:05:56Z</time>
      </trkpt>
      <trkpt lat="44.49734" lon="5.51335">
        <ele>1169</ele>
        <time>2021-09-07T11:05:57Z</time>
      </trkpt>
      <trkpt lat="44.49734" lon="5.51333">
        <ele>1169.2</ele>
        <time>2021-09-07T11:05:58Z</time>
      </trkpt>
      <trkpt lat="44.49735" lon="5.5133">
        <ele>1169.6</ele>
        <time>2021-09-07T11:05:59Z</time>
      </trkpt>
      <trkpt lat="44.49735" lon="5.51329">
        <ele>1169.8</ele>
        <time>2021-09-07T11:06:00Z</time>
      </trkpt>
      <trkpt lat="44.49735" lon="5.51327">
        <ele>1170</ele>
        <time>2021-09-07T11:06:01Z</time>
      </trkpt>
      <trkpt lat="44.49735" lon="5.51326">
        <ele>1170.2</ele>
        <time>2021-09-07T11:06:02Z</time>
      </trkpt>
      <trkpt lat="44.49735" lon="5.51326">
        <ele>1170.2</ele>
        <time>2021-09-07T11:06:03Z</time>
      </trkpt>
      <trkpt lat="44.49736" lon="5.51325">
        <ele>1170.4</ele>
        <time>2021-09-07T11:06:04Z</time>
      </trkpt>
      <trkpt lat="44.49736" lon="5.51325">
        <ele>1170.5</ele>
        <time>2021-09-07T11:06:05Z</time>
      </trkpt>
      <trkpt lat="44.49736" lon="5.51324">
        <ele>1170.5</ele>
        <time>2021-09-07T11:06:06Z</time>
      </trkpt>
      <trkpt lat="44.49736" lon="5.51324">
        <ele>1170.5</ele>
        <time>2021-09-07T11:06:07Z</time>
      </trkpt>
      <trkpt lat="44.49736" lon="5.51324">
        <ele>1170.5</ele>
        <time>2021-09-07T11:06:08Z</time>
      </trkpt>
      <trkpt lat="44.49736" lon="5.51324">
        <ele>1170.5</ele>
        <time>2021-09-07T11:06:09Z</time>
      </trkpt>
      <trkpt lat="44.49736" lon="5.51324">
        <ele>1170.6</ele>
        <time>2021-09-07T11:06:10Z</time>
      </trkpt>
      <trkpt lat="44.49736" lon="5.51323">
        <ele>1170.6</ele>
        <time>2021-09-07T11:06:11Z</time>
      </trkpt>
      <trkpt lat="44.49736" lon="5.51323">
        <ele>1170.6</ele>
        <time>2021-09-07T11:06:12Z</time>
      </trkpt>
      <trkpt lat="44.49736" lon="5.51323">
        <ele>1170.6</ele>
        <time>2021-09-07T11:06:13Z</time>
      </trkpt>
      <trkpt lat="44.49736" lon="5.51323">
        <ele>1170.6</ele>
        <time>2021-09-07T11:06:14Z</time>
      </trkpt>
      <trkpt lat="44.49736" lon="5.51323">
        <ele>1170.6</ele>
        <time>2021-09-07T11:06:15Z</time>
      </trkpt>
      <trkpt lat="44.49736" lon="5.51323">
        <ele>1170.6</ele>
        <time>2021-09-07T11:06:16Z</time>
      </trkpt>
      <trkpt lat="44.49736" lon="5.51323">
        <ele>1170.6</ele>
        <time>2021-09-07T11:06:17Z</time>
      </trkpt>
      <trkpt lat="44.49736" lon="5.51323">
        <ele>1170.6</ele>
        <time>2021-09-07T11:06:18Z</time>
      </trkpt>
      <trkpt lat="44.49736" lon="5.51323">
        <ele>1170.6</ele>
        <time>2021-09-07T11:06:19Z</time>
      </trkpt>
      <trkpt lat="44.49736" lon="5.51323">
        <ele>1170.6</ele>
        <time>2021-09-07T11:06:20Z</time>
      </trkpt>
      <trkpt lat="44.49736" lon="5.51323">
        <ele>1170.6</ele>
        <time>2021-09-07T11:06:21Z</time>
      </trkpt>
      <trkpt lat="44.49736" lon="5.51323">
        <ele>1170.6</ele>
        <time>2021-09-07T11:06:22Z</time>
      </trkpt>
      <trkpt lat="44.49736" lon="5.51323">
        <ele>1170.6</ele>
        <time>2021-09-07T11:06:23Z</time>
      </trkpt>
      <trkpt lat="44.49736" lon="5.51323">
        <ele>1170.6</ele>
        <time>2021-09-07T11:06:24Z</time>
      </trkpt>
      <trkpt lat="44.49736" lon="5.51323">
        <ele>1170.6</ele>
        <time>2021-09-07T11:06:25Z</time>
      </trkpt>
      <trkpt lat="44.49736" lon="5.51323">
        <ele>1170.7</ele>
        <time>2021-09-07T11:06:26Z</time>
      </trkpt>
      <trkpt lat="44.49736" lon="5.51322">
        <ele>1170.8</ele>
        <time>2021-09-07T11:06:27Z</time>
      </trkpt>
      <trkpt lat="44.49736" lon="5.51321">
        <ele>1170.9</ele>
        <time>2021-09-07T11:06:28Z</time>
      </trkpt>
      <trkpt lat="44.49735" lon="5.51319">
        <ele>1171.3</ele>
        <time>2021-09-07T11:06:29Z</time>
      </trkpt>
      <trkpt lat="44.49735" lon="5.51318">
        <ele>1171.5</ele>
        <time>2021-09-07T11:06:30Z</time>
      </trkpt>
      <trkpt lat="44.49735" lon="5.51316">
        <ele>1171.7</ele>
        <time>2021-09-07T11:06:31Z</time>
      </trkpt>
      <trkpt lat="44.49735" lon="5.51314">
        <ele>1171.9</ele>
        <time>2021-09-07T11:06:32Z</time>
      </trkpt>
      <trkpt lat="44.49735" lon="5.51313">
        <ele>1172.1</ele>
        <time>2021-09-07T11:06:33Z</time>
      </trkpt>
      <trkpt lat="44.49734" lon="5.51312">
        <ele>1172.3</ele>
        <time>2021-09-07T11:06:34Z</time>
      </trkpt>
      <trkpt lat="44.49734" lon="5.5131">
        <ele>1172.6</ele>
        <time>2021-09-07T11:06:35Z</time>
      </trkpt>
      <trkpt lat="44.49734" lon="5.5131">
        <ele>1172.6</ele>
        <time>2021-09-07T11:06:36Z</time>
      </trkpt>
      <trkpt lat="44.49734" lon="5.5131">
        <ele>1172.6</ele>
        <time>2021-09-07T11:06:37Z</time>
      </trkpt>
      <trkpt lat="44.49734" lon="5.51309">
        <ele>1172.7</ele>
        <time>2021-09-07T11:06:38Z</time>
      </trkpt>
      <trkpt lat="44.49734" lon="5.51308">
        <ele>1172.8</ele>
        <time>2021-09-07T11:06:39Z</time>
      </trkpt>
      <trkpt lat="44.49734" lon="5.51308">
        <ele>1172.8</ele>
        <time>2021-09-07T11:06:40Z</time>
      </trkpt>
      <trkpt lat="44.49734" lon="5.51308">
        <ele>1172.8</ele>
        <time>2021-09-07T11:06:41Z</time>
      </trkpt>
      <trkpt lat="44.49734" lon="5.51307">
        <ele>1173</ele>
        <time>2021-09-07T11:06:42Z</time>
      </trkpt>
      <trkpt lat="44.49734" lon="5.51307">
        <ele>1173</ele>
        <time>2021-09-07T11:06:43Z</time>
      </trkpt>
      <trkpt lat="44.49734" lon="5.51307">
        <ele>1173</ele>
        <time>2021-09-07T11:06:44Z</time>
      </trkpt>
      <trkpt lat="44.49734" lon="5.51307">
        <ele>1173.1</ele>
        <time>2021-09-07T11:06:45Z</time>
      </trkpt>
      <trkpt lat="44.49734" lon="5.51306">
        <ele>1173.1</ele>
        <time>2021-09-07T11:06:46Z</time>
      </trkpt>
      <trkpt lat="44.49734" lon="5.51303">
        <ele>1173.5</ele>
        <time>2021-09-07T11:06:47Z</time>
      </trkpt>
      <trkpt lat="44.49735" lon="5.51299">
        <ele>1174.1</ele>
        <time>2021-09-07T11:06:48Z</time>
      </trkpt>
      <trkpt lat="44.49735" lon="5.51298">
        <ele>1174.3</ele>
        <time>2021-09-07T11:06:49Z</time>
      </trkpt>
      <trkpt lat="44.49735" lon="5.51296">
        <ele>1174.5</ele>
        <time>2021-09-07T11:06:50Z</time>
      </trkpt>
      <trkpt lat="44.49735" lon="5.51294">
        <ele>1174.8</ele>
        <time>2021-09-07T11:06:51Z</time>
      </trkpt>
      <trkpt lat="44.49736" lon="5.51293">
        <ele>1175.1</ele>
        <time>2021-09-07T11:06:52Z</time>
      </trkpt>
      <trkpt lat="44.49736" lon="5.51292">
        <ele>1175.2</ele>
        <time>2021-09-07T11:06:53Z</time>
      </trkpt>
      <trkpt lat="44.49736" lon="5.51292">
        <ele>1175.2</ele>
        <time>2021-09-07T11:06:54Z</time>
      </trkpt>
      <trkpt lat="44.49736" lon="5.51292">
        <ele>1175.2</ele>
        <time>2021-09-07T11:06:55Z</time>
      </trkpt>
      <trkpt lat="44.49736" lon="5.51292">
        <ele>1175.3</ele>
        <time>2021-09-07T11:06:56Z</time>
      </trkpt>
      <trkpt lat="44.49736" lon="5.51291">
        <ele>1175.3</ele>
        <time>2021-09-07T11:06:57Z</time>
      </trkpt>
      <trkpt lat="44.49736" lon="5.51291">
        <ele>1175.3</ele>
        <time>2021-09-07T11:06:58Z</time>
      </trkpt>
      <trkpt lat="44.49736" lon="5.51291">
        <ele>1175.3</ele>
        <time>2021-09-07T11:06:59Z</time>
      </trkpt>
      <trkpt lat="44.49736" lon="5.51291">
        <ele>1175.3</ele>
        <time>2021-09-07T11:07:00Z</time>
      </trkpt>
      <trkpt lat="44.49736" lon="5.51291">
        <ele>1175.4</ele>
        <time>2021-09-07T11:07:01Z</time>
      </trkpt>
      <trkpt lat="44.49736" lon="5.5129">
        <ele>1175.5</ele>
        <time>2021-09-07T11:07:02Z</time>
      </trkpt>
      <trkpt lat="44.49736" lon="5.51287">
        <ele>1175.9</ele>
        <time>2021-09-07T11:07:03Z</time>
      </trkpt>
      <trkpt lat="44.49736" lon="5.51286">
        <ele>1176.1</ele>
        <time>2021-09-07T11:07:04Z</time>
      </trkpt>
      <trkpt lat="44.49736" lon="5.51284">
        <ele>1176.3</ele>
        <time>2021-09-07T11:07:05Z</time>
      </trkpt>
      <trkpt lat="44.49737" lon="5.51282">
        <ele>1176.6</ele>
        <time>2021-09-07T11:07:06Z</time>
      </trkpt>
      <trkpt lat="44.49737" lon="5.5128">
        <ele>1176.8</ele>
        <time>2021-09-07T11:07:07Z</time>
      </trkpt>
      <trkpt lat="44.49737" lon="5.51279">
        <ele>1177</ele>
        <time>2021-09-07T11:07:08Z</time>
      </trkpt>
      <trkpt lat="44.49737" lon="5.51279">
        <ele>1177</ele>
        <time>2021-09-07T11:07:09Z</time>
      </trkpt>
      <trkpt lat="44.49737" lon="5.51278">
        <ele>1177.1</ele>
        <time>2021-09-07T11:07:10Z</time>
      </trkpt>
      <trkpt lat="44.49738" lon="5.51277">
        <ele>1177.3</ele>
        <time>2021-09-07T11:07:11Z</time>
      </trkpt>
      <trkpt lat="44.49738" lon="5.51277">
        <ele>1177.4</ele>
        <time>2021-09-07T11:07:12Z</time>
      </trkpt>
      <trkpt lat="44.49738" lon="5.51276">
        <ele>1177.5</ele>
        <time>2021-09-07T11:07:13Z</time>
      </trkpt>
      <trkpt lat="44.49738" lon="5.51276">
        <ele>1177.5</ele>
        <time>2021-09-07T11:07:14Z</time>
      </trkpt>
      <trkpt lat="44.49738" lon="5.51275">
        <ele>1177.6</ele>
        <time>2021-09-07T11:07:15Z</time>
      </trkpt>
      <trkpt lat="44.49738" lon="5.51275">
        <ele>1177.6</ele>
        <time>2021-09-07T11:07:16Z</time>
      </trkpt>
      <trkpt lat="44.49738" lon="5.51275">
        <ele>1177.6</ele>
        <time>2021-09-07T11:07:17Z</time>
      </trkpt>
      <trkpt lat="44.49738" lon="5.51275">
        <ele>1177.6</ele>
        <time>2021-09-07T11:07:18Z</time>
      </trkpt>
      <trkpt lat="44.49738" lon="5.51273">
        <ele>1177.9</ele>
        <time>2021-09-07T11:07:19Z</time>
      </trkpt>
      <trkpt lat="44.49738" lon="5.5127">
        <ele>1178.3</ele>
        <time>2021-09-07T11:07:20Z</time>
      </trkpt>
      <trkpt lat="44.49738" lon="5.51266">
        <ele>1178.8</ele>
        <time>2021-09-07T11:07:21Z</time>
      </trkpt>
      <trkpt lat="44.49738" lon="5.51266">
        <ele>1178.9</ele>
        <time>2021-09-07T11:07:22Z</time>
      </trkpt>
      <trkpt lat="44.49738" lon="5.51265">
        <ele>1179</ele>
        <time>2021-09-07T11:07:23Z</time>
      </trkpt>
      <trkpt lat="44.49738" lon="5.51263">
        <ele>1179.2</ele>
        <time>2021-09-07T11:07:24Z</time>
      </trkpt>
      <trkpt lat="44.49738" lon="5.51262">
        <ele>1179.4</ele>
        <time>2021-09-07T11:07:25Z</time>
      </trkpt>
      <trkpt lat="44.49738" lon="5.51261">
        <ele>1179.5</ele>
        <time>2021-09-07T11:07:26Z</time>
      </trkpt>
      <trkpt lat="44.49738" lon="5.51261">
        <ele>1179.6</ele>
        <time>2021-09-07T11:07:27Z</time>
      </trkpt>
      <trkpt lat="44.49738" lon="5.5126">
        <ele>1179.7</ele>
        <time>2021-09-07T11:07:28Z</time>
      </trkpt>
      <trkpt lat="44.49738" lon="5.51259">
        <ele>1179.8</ele>
        <time>2021-09-07T11:07:29Z</time>
      </trkpt>
      <trkpt lat="44.49738" lon="5.51259">
        <ele>1179.8</ele>
        <time>2021-09-07T11:07:30Z</time>
      </trkpt>
      <trkpt lat="44.49738" lon="5.51259">
        <ele>1179.8</ele>
        <time>2021-09-07T11:07:31Z</time>
      </trkpt>
      <trkpt lat="44.49738" lon="5.51259">
        <ele>1179.8</ele>
        <time>2021-09-07T11:07:32Z</time>
      </trkpt>
      <trkpt lat="44.49738" lon="5.51259">
        <ele>1179.8</ele>
        <time>2021-09-07T11:07:33Z</time>
      </trkpt>
      <trkpt lat="44.49738" lon="5.51257">
        <ele>1180.1</ele>
        <time>2021-09-07T11:07:34Z</time>
      </trkpt>
      <trkpt lat="44.49739" lon="5.51255">
        <ele>1180.4</ele>
        <time>2021-09-07T11:07:35Z</time>
      </trkpt>
      <trkpt lat="44.4974" lon="5.51253">
        <ele>1180.7</ele>
        <time>2021-09-07T11:07:36Z</time>
      </trkpt>
      <trkpt lat="44.4974" lon="5.51251">
        <ele>1181</ele>
        <time>2021-09-07T11:07:37Z</time>
      </trkpt>
      <trkpt lat="44.4974" lon="5.5125">
        <ele>1181.2</ele>
        <time>2021-09-07T11:07:38Z</time>
      </trkpt>
      <trkpt lat="44.4974" lon="5.51248">
        <ele>1181.4</ele>
        <time>2021-09-07T11:07:39Z</time>
      </trkpt>
      <trkpt lat="44.49741" lon="5.51247">
        <ele>1181.6</ele>
        <time>2021-09-07T11:07:40Z</time>
      </trkpt>
      <trkpt lat="44.49741" lon="5.51247">
        <ele>1181.6</ele>
        <time>2021-09-07T11:07:41Z</time>
      </trkpt>
      <trkpt lat="44.49741" lon="5.51246">
        <ele>1181.7</ele>
        <time>2021-09-07T11:07:42Z</time>
      </trkpt>
      <trkpt lat="44.49741" lon="5.51246">
        <ele>1181.7</ele>
        <time>2021-09-07T11:07:43Z</time>
      </trkpt>
      <trkpt lat="44.49741" lon="5.51246">
        <ele>1181.7</ele>
        <time>2021-09-07T11:07:44Z</time>
      </trkpt>
      <trkpt lat="44.49741" lon="5.51246">
        <ele>1181.8</ele>
        <time>2021-09-07T11:07:45Z</time>
      </trkpt>
      <trkpt lat="44.49741" lon="5.51245">
        <ele>1181.8</ele>
        <time>2021-09-07T11:07:46Z</time>
      </trkpt>
      <trkpt lat="44.49741" lon="5.51244">
        <ele>1181.9</ele>
        <time>2021-09-07T11:07:47Z</time>
      </trkpt>
      <trkpt lat="44.49741" lon="5.51244">
        <ele>1181.9</ele>
        <time>2021-09-07T11:07:48Z</time>
      </trkpt>
      <trkpt lat="44.49741" lon="5.51244">
        <ele>1182</ele>
        <time>2021-09-07T11:07:49Z</time>
      </trkpt>
      <trkpt lat="44.49741" lon="5.51243">
        <ele>1182.1</ele>
        <time>2021-09-07T11:07:50Z</time>
      </trkpt>
      <trkpt lat="44.49741" lon="5.51243">
        <ele>1182.1</ele>
        <time>2021-09-07T11:07:51Z</time>
      </trkpt>
      <trkpt lat="44.49741" lon="5.51243">
        <ele>1182</ele>
        <time>2021-09-07T11:07:52Z</time>
      </trkpt>
      <trkpt lat="44.49742" lon="5.5124">
        <ele>1182.4</ele>
        <time>2021-09-07T11:07:53Z</time>
      </trkpt>
      <trkpt lat="44.49743" lon="5.51237">
        <ele>1182.7</ele>
        <time>2021-09-07T11:07:54Z</time>
      </trkpt>
      <trkpt lat="44.49744" lon="5.51235">
        <ele>1183</ele>
        <time>2021-09-07T11:07:55Z</time>
      </trkpt>
      <trkpt lat="44.49744" lon="5.51233">
        <ele>1183.2</ele>
        <time>2021-09-07T11:07:56Z</time>
      </trkpt>
      <trkpt lat="44.49744" lon="5.51233">
        <ele>1183.3</ele>
        <time>2021-09-07T11:07:57Z</time>
      </trkpt>
      <trkpt lat="44.49744" lon="5.51232">
        <ele>1183.3</ele>
        <time>2021-09-07T11:07:58Z</time>
      </trkpt>
      <trkpt lat="44.49745" lon="5.5123">
        <ele>1183.6</ele>
        <time>2021-09-07T11:07:59Z</time>
      </trkpt>
      <trkpt lat="44.49745" lon="5.51228">
        <ele>1183.8</ele>
        <time>2021-09-07T11:08:00Z</time>
      </trkpt>
      <trkpt lat="44.49746" lon="5.51225">
        <ele>1184.2</ele>
        <time>2021-09-07T11:08:01Z</time>
      </trkpt>
      <trkpt lat="44.49746" lon="5.51222">
        <ele>1184.6</ele>
        <time>2021-09-07T11:08:02Z</time>
      </trkpt>
      <trkpt lat="44.49747" lon="5.51221">
        <ele>1184.7</ele>
        <time>2021-09-07T11:08:03Z</time>
      </trkpt>
      <trkpt lat="44.49747" lon="5.5122">
        <ele>1184.8</ele>
        <time>2021-09-07T11:08:04Z</time>
      </trkpt>
      <trkpt lat="44.49747" lon="5.51217">
        <ele>1185.1</ele>
        <time>2021-09-07T11:08:05Z</time>
      </trkpt>
      <trkpt lat="44.49747" lon="5.51214">
        <ele>1185.5</ele>
        <time>2021-09-07T11:08:06Z</time>
      </trkpt>
      <trkpt lat="44.49748" lon="5.5121">
        <ele>1186</ele>
        <time>2021-09-07T11:08:07Z</time>
      </trkpt>
      <trkpt lat="44.49748" lon="5.51207">
        <ele>1186.3</ele>
        <time>2021-09-07T11:08:08Z</time>
      </trkpt>
      <trkpt lat="44.49749" lon="5.51206">
        <ele>1186.5</ele>
        <time>2021-09-07T11:08:09Z</time>
      </trkpt>
      <trkpt lat="44.49749" lon="5.51204">
        <ele>1186.7</ele>
        <time>2021-09-07T11:08:10Z</time>
      </trkpt>
      <trkpt lat="44.49749" lon="5.51202">
        <ele>1186.9</ele>
        <time>2021-09-07T11:08:11Z</time>
      </trkpt>
      <trkpt lat="44.4975" lon="5.512">
        <ele>1187.2</ele>
        <time>2021-09-07T11:08:12Z</time>
      </trkpt>
      <trkpt lat="44.4975" lon="5.51197">
        <ele>1187.5</ele>
        <time>2021-09-07T11:08:13Z</time>
      </trkpt>
      <trkpt lat="44.4975" lon="5.51195">
        <ele>1187.7</ele>
        <time>2021-09-07T11:08:14Z</time>
      </trkpt>
      <trkpt lat="44.4975" lon="5.51193">
        <ele>1188</ele>
        <time>2021-09-07T11:08:15Z</time>
      </trkpt>
      <trkpt lat="44.49749" lon="5.51191">
        <ele>1188.2</ele>
        <time>2021-09-07T11:08:16Z</time>
      </trkpt>
      <trkpt lat="44.49749" lon="5.51191">
        <ele>1188.3</ele>
        <time>2021-09-07T11:08:17Z</time>
      </trkpt>
      <trkpt lat="44.49748" lon="5.5119">
        <ele>1188.4</ele>
        <time>2021-09-07T11:08:18Z</time>
      </trkpt>
      <trkpt lat="44.49748" lon="5.51191">
        <ele>1188.5</ele>
        <time>2021-09-07T11:08:19Z</time>
      </trkpt>
      <trkpt lat="44.49748" lon="5.51191">
        <ele>1188.5</ele>
        <time>2021-09-07T11:08:20Z</time>
      </trkpt>
      <trkpt lat="44.49748" lon="5.51191">
        <ele>1188.5</ele>
        <time>2021-09-07T11:08:21Z</time>
      </trkpt>
      <trkpt lat="44.49748" lon="5.51191">
        <ele>1188.5</ele>
        <time>2021-09-07T11:08:22Z</time>
      </trkpt>
      <trkpt lat="44.49748" lon="5.51191">
        <ele>1188.5</ele>
        <time>2021-09-07T11:08:23Z</time>
      </trkpt>
      <trkpt lat="44.49748" lon="5.51191">
        <ele>1188.5</ele>
        <time>2021-09-07T11:08:24Z</time>
      </trkpt>
      <trkpt lat="44.49748" lon="5.51191">
        <ele>1188.5</ele>
        <time>2021-09-07T11:08:25Z</time>
      </trkpt>
      <trkpt lat="44.49748" lon="5.51191">
        <ele>1188.5</ele>
        <time>2021-09-07T11:08:26Z</time>
      </trkpt>
      <trkpt lat="44.49748" lon="5.51191">
        <ele>1188.5</ele>
        <time>2021-09-07T11:08:27Z</time>
      </trkpt>
      <trkpt lat="44.49748" lon="5.51192">
        <ele>1188.4</ele>
        <time>2021-09-07T11:08:28Z</time>
      </trkpt>
      <trkpt lat="44.49748" lon="5.51192">
        <ele>1188.5</ele>
        <time>2021-09-07T11:08:29Z</time>
      </trkpt>
      <trkpt lat="44.49748" lon="5.51192">
        <ele>1188.5</ele>
        <time>2021-09-07T11:08:30Z</time>
      </trkpt>
      <trkpt lat="44.49748" lon="5.51192">
        <ele>1188.5</ele>
        <time>2021-09-07T11:08:31Z</time>
      </trkpt>
      <trkpt lat="44.49748" lon="5.51192">
        <ele>1188.5</ele>
        <time>2021-09-07T11:08:32Z</time>
      </trkpt>
      <trkpt lat="44.49748" lon="5.51192">
        <ele>1188.5</ele>
        <time>2021-09-07T11:08:33Z</time>
      </trkpt>
      <trkpt lat="44.49748" lon="5.51192">
        <ele>1188.5</ele>
        <time>2021-09-07T11:08:34Z</time>
      </trkpt>
      <trkpt lat="44.49748" lon="5.51192">
        <ele>1188.5</ele>
        <time>2021-09-07T11:08:35Z</time>
      </trkpt>
      <trkpt lat="44.49748" lon="5.51192">
        <ele>1188.5</ele>
        <time>2021-09-07T11:08:36Z</time>
      </trkpt>
      <trkpt lat="44.49748" lon="5.51192">
        <ele>1188.5</ele>
        <time>2021-09-07T11:08:37Z</time>
      </trkpt>
      <trkpt lat="44.49748" lon="5.51192">
        <ele>1188.5</ele>
        <time>2021-09-07T11:08:38Z</time>
      </trkpt>
      <trkpt lat="44.49747" lon="5.51192">
        <ele>1188.6</ele>
        <time>2021-09-07T11:08:39Z</time>
      </trkpt>
      <trkpt lat="44.49748" lon="5.51192">
        <ele>1188.7</ele>
        <time>2021-09-07T11:08:40Z</time>
      </trkpt>
      <trkpt lat="44.49748" lon="5.51192">
        <ele>1188.8</ele>
        <time>2021-09-07T11:08:41Z</time>
      </trkpt>
      <trkpt lat="44.49748" lon="5.51192">
        <ele>1188.8</ele>
        <time>2021-09-07T11:08:42Z</time>
      </trkpt>
      <trkpt lat="44.49748" lon="5.51191">
        <ele>1188.9</ele>
        <time>2021-09-07T11:08:43Z</time>
      </trkpt>
      <trkpt lat="44.49748" lon="5.51191">
        <ele>1188.9</ele>
        <time>2021-09-07T11:08:44Z</time>
      </trkpt>
      <trkpt lat="44.49748" lon="5.51191">
        <ele>1188.8</ele>
        <time>2021-09-07T11:08:45Z</time>
      </trkpt>
      <trkpt lat="44.49748" lon="5.51191">
        <ele>1188.8</ele>
        <time>2021-09-07T11:08:46Z</time>
      </trkpt>
      <trkpt lat="44.49748" lon="5.51191">
        <ele>1188.8</ele>
        <time>2021-09-07T11:08:47Z</time>
      </trkpt>
      <trkpt lat="44.49748" lon="5.51191">
        <ele>1188.8</ele>
        <time>2021-09-07T11:08:48Z</time>
      </trkpt>
      <trkpt lat="44.49748" lon="5.51191">
        <ele>1188.8</ele>
        <time>2021-09-07T11:08:49Z</time>
      </trkpt>
      <trkpt lat="44.49748" lon="5.51191">
        <ele>1188.8</ele>
        <time>2021-09-07T11:08:50Z</time>
      </trkpt>
      <trkpt lat="44.49748" lon="5.51191">
        <ele>1188.8</ele>
        <time>2021-09-07T11:08:51Z</time>
      </trkpt>
      <trkpt lat="44.49748" lon="5.51191">
        <ele>1188.8</ele>
        <time>2021-09-07T11:08:52Z</time>
      </trkpt>
      <trkpt lat="44.49748" lon="5.51191">
        <ele>1188.8</ele>
        <time>2021-09-07T11:08:53Z</time>
      </trkpt>
      <trkpt lat="44.49748" lon="5.51191">
        <ele>1188.8</ele>
        <time>2021-09-07T11:08:54Z</time>
      </trkpt>
      <trkpt lat="44.49748" lon="5.51191">
        <ele>1188.8</ele>
        <time>2021-09-07T11:08:55Z</time>
      </trkpt>
      <trkpt lat="44.49748" lon="5.51191">
        <ele>1188.8</ele>
        <time>2021-09-07T11:08:56Z</time>
      </trkpt>
      <trkpt lat="44.49748" lon="5.51191">
        <ele>1188.8</ele>
        <time>2021-09-07T11:08:57Z</time>
      </trkpt>
      <trkpt lat="44.49748" lon="5.51191">
        <ele>1188.8</ele>
        <time>2021-09-07T11:08:58Z</time>
      </trkpt>
      <trkpt lat="44.49748" lon="5.51191">
        <ele>1188.8</ele>
        <time>2021-09-07T11:08:59Z</time>
      </trkpt>
      <trkpt lat="44.49748" lon="5.51191">
        <ele>1188.8</ele>
        <time>2021-09-07T11:09:00Z</time>
      </trkpt>
      <trkpt lat="44.49748" lon="5.51191">
        <ele>1188.8</ele>
        <time>2021-09-07T11:09:01Z</time>
      </trkpt>
      <trkpt lat="44.49748" lon="5.51191">
        <ele>1188.7</ele>
        <time>2021-09-07T11:09:02Z</time>
      </trkpt>
      <trkpt lat="44.49748" lon="5.51191">
        <ele>1188.7</ele>
        <time>2021-09-07T11:09:03Z</time>
      </trkpt>
      <trkpt lat="44.49748" lon="5.51191">
        <ele>1188.7</ele>
        <time>2021-09-07T11:09:04Z</time>
      </trkpt>
      <trkpt lat="44.49747" lon="5.5119">
        <ele>1188.9</ele>
        <time>2021-09-07T11:09:05Z</time>
      </trkpt>
      <trkpt lat="44.49747" lon="5.51189">
        <ele>1189</ele>
        <time>2021-09-07T11:09:06Z</time>
      </trkpt>
      <trkpt lat="44.49746" lon="5.51188">
        <ele>1189.1</ele>
        <time>2021-09-07T11:09:07Z</time>
      </trkpt>
      <trkpt lat="44.49746" lon="5.51188">
        <ele>1189.2</ele>
        <time>2021-09-07T11:09:08Z</time>
      </trkpt>
      <trkpt lat="44.49745" lon="5.51187">
        <ele>1189.3</ele>
        <time>2021-09-07T11:09:09Z</time>
      </trkpt>
      <trkpt lat="44.49744" lon="5.51186">
        <ele>1189.5</ele>
        <time>2021-09-07T11:09:10Z</time>
      </trkpt>
      <trkpt lat="44.49743" lon="5.51184">
        <ele>1189.8</ele>
        <time>2021-09-07T11:09:11Z</time>
      </trkpt>
      <trkpt lat="44.49741" lon="5.51182">
        <ele>1190.1</ele>
        <time>2021-09-07T11:09:12Z</time>
      </trkpt>
      <trkpt lat="44.49737" lon="5.51179">
        <ele>1190.7</ele>
        <time>2021-09-07T11:09:13Z</time>
      </trkpt>
      <trkpt lat="44.49736" lon="5.51177">
        <ele>1191</ele>
        <time>2021-09-07T11:09:14Z</time>
      </trkpt>
      <trkpt lat="44.49735" lon="5.51176">
        <ele>1191.2</ele>
        <time>2021-09-07T11:09:15Z</time>
      </trkpt>
      <trkpt lat="44.49733" lon="5.51175">
        <ele>1191.5</ele>
        <time>2021-09-07T11:09:16Z</time>
      </trkpt>
      <trkpt lat="44.49732" lon="5.51175">
        <ele>1191.5</ele>
        <time>2021-09-07T11:09:17Z</time>
      </trkpt>
      <trkpt lat="44.49729" lon="5.51173">
        <ele>1192</ele>
        <time>2021-09-07T11:09:18Z</time>
      </trkpt>
      <trkpt lat="44.49728" lon="5.51173">
        <ele>1192.1</ele>
        <time>2021-09-07T11:09:19Z</time>
      </trkpt>
      <trkpt lat="44.49727" lon="5.51172">
        <ele>1192.3</ele>
        <time>2021-09-07T11:09:20Z</time>
      </trkpt>
      <trkpt lat="44.49726" lon="5.51171">
        <ele>1192.4</ele>
        <time>2021-09-07T11:09:21Z</time>
      </trkpt>
      <trkpt lat="44.49723" lon="5.5117">
        <ele>1192.8</ele>
        <time>2021-09-07T11:09:22Z</time>
      </trkpt>
      <trkpt lat="44.49722" lon="5.51169">
        <ele>1193</ele>
        <time>2021-09-07T11:09:23Z</time>
      </trkpt>
      <trkpt lat="44.49721" lon="5.51169">
        <ele>1193.1</ele>
        <time>2021-09-07T11:09:24Z</time>
      </trkpt>
      <trkpt lat="44.49719" lon="5.51168">
        <ele>1193.4</ele>
        <time>2021-09-07T11:09:25Z</time>
      </trkpt>
      <trkpt lat="44.49718" lon="5.51167">
        <ele>1193.5</ele>
        <time>2021-09-07T11:09:26Z</time>
      </trkpt>
      <trkpt lat="44.49718" lon="5.51167">
        <ele>1193.5</ele>
        <time>2021-09-07T11:09:27Z</time>
      </trkpt>
      <trkpt lat="44.49718" lon="5.51166">
        <ele>1193.6</ele>
        <time>2021-09-07T11:09:28Z</time>
      </trkpt>
      <trkpt lat="44.49718" lon="5.51166">
        <ele>1193.6</ele>
        <time>2021-09-07T11:09:29Z</time>
      </trkpt>
      <trkpt lat="44.49718" lon="5.51165">
        <ele>1193.7</ele>
        <time>2021-09-07T11:09:30Z</time>
      </trkpt>
      <trkpt lat="44.49719" lon="5.51165">
        <ele>1193.8</ele>
        <time>2021-09-07T11:09:31Z</time>
      </trkpt>
      <trkpt lat="44.49719" lon="5.51165">
        <ele>1193.8</ele>
        <time>2021-09-07T11:09:32Z</time>
      </trkpt>
      <trkpt lat="44.49719" lon="5.51164">
        <ele>1193.9</ele>
        <time>2021-09-07T11:09:33Z</time>
      </trkpt>
      <trkpt lat="44.4972" lon="5.51164">
        <ele>1193.9</ele>
        <time>2021-09-07T11:09:34Z</time>
      </trkpt>
      <trkpt lat="44.4972" lon="5.51164">
        <ele>1194</ele>
        <time>2021-09-07T11:09:35Z</time>
      </trkpt>
      <trkpt lat="44.4972" lon="5.51164">
        <ele>1194</ele>
        <time>2021-09-07T11:09:36Z</time>
      </trkpt>
      <trkpt lat="44.4972" lon="5.51163">
        <ele>1194</ele>
        <time>2021-09-07T11:09:37Z</time>
      </trkpt>
      <trkpt lat="44.4972" lon="5.51162">
        <ele>1194.1</ele>
        <time>2021-09-07T11:09:38Z</time>
      </trkpt>
      <trkpt lat="44.4972" lon="5.51161">
        <ele>1194.2</ele>
        <time>2021-09-07T11:09:39Z</time>
      </trkpt>
      <trkpt lat="44.4972" lon="5.51158">
        <ele>1194.4</ele>
        <time>2021-09-07T11:09:40Z</time>
      </trkpt>
      <trkpt lat="44.49719" lon="5.51157">
        <ele>1194.6</ele>
        <time>2021-09-07T11:09:41Z</time>
      </trkpt>
      <trkpt lat="44.49719" lon="5.51155">
        <ele>1194.7</ele>
        <time>2021-09-07T11:09:42Z</time>
      </trkpt>
      <trkpt lat="44.49719" lon="5.51153">
        <ele>1194.9</ele>
        <time>2021-09-07T11:09:43Z</time>
      </trkpt>
      <trkpt lat="44.49719" lon="5.5115">
        <ele>1195.1</ele>
        <time>2021-09-07T11:09:44Z</time>
      </trkpt>
      <trkpt lat="44.49718" lon="5.51147">
        <ele>1195.3</ele>
        <time>2021-09-07T11:09:45Z</time>
      </trkpt>
      <trkpt lat="44.49717" lon="5.51141">
        <ele>1195.7</ele>
        <time>2021-09-07T11:09:46Z</time>
      </trkpt>
      <trkpt lat="44.49717" lon="5.5114">
        <ele>1195.8</ele>
        <time>2021-09-07T11:09:47Z</time>
      </trkpt>
      <trkpt lat="44.49717" lon="5.51138">
        <ele>1195.9</ele>
        <time>2021-09-07T11:09:48Z</time>
      </trkpt>
      <trkpt lat="44.49716" lon="5.51135">
        <ele>1196.1</ele>
        <time>2021-09-07T11:09:49Z</time>
      </trkpt>
      <trkpt lat="44.49715" lon="5.51132">
        <ele>1196.3</ele>
        <time>2021-09-07T11:09:50Z</time>
      </trkpt>
      <trkpt lat="44.49714" lon="5.5113">
        <ele>1196.4</ele>
        <time>2021-09-07T11:09:51Z</time>
      </trkpt>
      <trkpt lat="44.49713" lon="5.51128">
        <ele>1196.6</ele>
        <time>2021-09-07T11:09:52Z</time>
      </trkpt>
      <trkpt lat="44.49712" lon="5.51126">
        <ele>1196.7</ele>
        <time>2021-09-07T11:09:53Z</time>
      </trkpt>
      <trkpt lat="44.4971" lon="5.51123">
        <ele>1197</ele>
        <time>2021-09-07T11:09:54Z</time>
      </trkpt>
      <trkpt lat="44.49708" lon="5.5112">
        <ele>1197.2</ele>
        <time>2021-09-07T11:09:55Z</time>
      </trkpt>
      <trkpt lat="44.49707" lon="5.51119">
        <ele>1197.4</ele>
        <time>2021-09-07T11:09:56Z</time>
      </trkpt>
      <trkpt lat="44.49705" lon="5.51117">
        <ele>1197.6</ele>
        <time>2021-09-07T11:09:57Z</time>
      </trkpt>
      <trkpt lat="44.49703" lon="5.51114">
        <ele>1197.9</ele>
        <time>2021-09-07T11:09:58Z</time>
      </trkpt>
      <trkpt lat="44.49702" lon="5.51112">
        <ele>1198.1</ele>
        <time>2021-09-07T11:09:59Z</time>
      </trkpt>
      <trkpt lat="44.49701" lon="5.5111">
        <ele>1198.3</ele>
        <time>2021-09-07T11:10:00Z</time>
      </trkpt>
      <trkpt lat="44.497" lon="5.51109">
        <ele>1198.4</ele>
        <time>2021-09-07T11:10:01Z</time>
      </trkpt>
      <trkpt lat="44.49699" lon="5.51107">
        <ele>1198.6</ele>
        <time>2021-09-07T11:10:02Z</time>
      </trkpt>
      <trkpt lat="44.49698" lon="5.51105">
        <ele>1198.7</ele>
        <time>2021-09-07T11:10:03Z</time>
      </trkpt>
      <trkpt lat="44.49697" lon="5.51103">
        <ele>1198.9</ele>
        <time>2021-09-07T11:10:04Z</time>
      </trkpt>
      <trkpt lat="44.49696" lon="5.51101">
        <ele>1199.1</ele>
        <time>2021-09-07T11:10:05Z</time>
      </trkpt>
      <trkpt lat="44.49696" lon="5.511">
        <ele>1199.2</ele>
        <time>2021-09-07T11:10:06Z</time>
      </trkpt>
      <trkpt lat="44.49695" lon="5.51098">
        <ele>1199.3</ele>
        <time>2021-09-07T11:10:07Z</time>
      </trkpt>
      <trkpt lat="44.49695" lon="5.51096">
        <ele>1199.5</ele>
        <time>2021-09-07T11:10:08Z</time>
      </trkpt>
      <trkpt lat="44.49694" lon="5.51094">
        <ele>1199.6</ele>
        <time>2021-09-07T11:10:09Z</time>
      </trkpt>
      <trkpt lat="44.49693" lon="5.51091">
        <ele>1199.8</ele>
        <time>2021-09-07T11:10:10Z</time>
      </trkpt>
      <trkpt lat="44.49692" lon="5.51089">
        <ele>1200</ele>
        <time>2021-09-07T11:10:11Z</time>
      </trkpt>
      <trkpt lat="44.49691" lon="5.51087">
        <ele>1200.1</ele>
        <time>2021-09-07T11:10:12Z</time>
      </trkpt>
      <trkpt lat="44.4969" lon="5.51086">
        <ele>1200.2</ele>
        <time>2021-09-07T11:10:13Z</time>
      </trkpt>
      <trkpt lat="44.49689" lon="5.51084">
        <ele>1200.3</ele>
        <time>2021-09-07T11:10:14Z</time>
      </trkpt>
      <trkpt lat="44.49688" lon="5.51082">
        <ele>1200.5</ele>
        <time>2021-09-07T11:10:15Z</time>
      </trkpt>
      <trkpt lat="44.49687" lon="5.5108">
        <ele>1200.6</ele>
        <time>2021-09-07T11:10:16Z</time>
      </trkpt>
      <trkpt lat="44.49687" lon="5.51077">
        <ele>1200.8</ele>
        <time>2021-09-07T11:10:17Z</time>
      </trkpt>
      <trkpt lat="44.49685" lon="5.51073">
        <ele>1201</ele>
        <time>2021-09-07T11:10:18Z</time>
      </trkpt>
      <trkpt lat="44.49685" lon="5.5107">
        <ele>1201.2</ele>
        <time>2021-09-07T11:10:19Z</time>
      </trkpt>
      <trkpt lat="44.49685" lon="5.51068">
        <ele>1201.3</ele>
        <time>2021-09-07T11:10:20Z</time>
      </trkpt>
      <trkpt lat="44.49685" lon="5.51066">
        <ele>1201.4</ele>
        <time>2021-09-07T11:10:21Z</time>
      </trkpt>
      <trkpt lat="44.49684" lon="5.51064">
        <ele>1201.5</ele>
        <time>2021-09-07T11:10:22Z</time>
      </trkpt>
      <trkpt lat="44.49684" lon="5.51062">
        <ele>1201.6</ele>
        <time>2021-09-07T11:10:23Z</time>
      </trkpt>
      <trkpt lat="44.49684" lon="5.51059">
        <ele>1201.7</ele>
        <time>2021-09-07T11:10:24Z</time>
      </trkpt>
      <trkpt lat="44.49684" lon="5.51056">
        <ele>1201.9</ele>
        <time>2021-09-07T11:10:25Z</time>
      </trkpt>
      <trkpt lat="44.49684" lon="5.51053">
        <ele>1202</ele>
        <time>2021-09-07T11:10:26Z</time>
      </trkpt>
      <trkpt lat="44.49684" lon="5.5105">
        <ele>1202.2</ele>
        <time>2021-09-07T11:10:27Z</time>
      </trkpt>
      <trkpt lat="44.49683" lon="5.51048">
        <ele>1202.3</ele>
        <time>2021-09-07T11:10:28Z</time>
      </trkpt>
      <trkpt lat="44.49683" lon="5.51046">
        <ele>1202.4</ele>
        <time>2021-09-07T11:10:29Z</time>
      </trkpt>
      <trkpt lat="44.49682" lon="5.51044">
        <ele>1202.5</ele>
        <time>2021-09-07T11:10:30Z</time>
      </trkpt>
      <trkpt lat="44.49681" lon="5.51042">
        <ele>1202.6</ele>
        <time>2021-09-07T11:10:31Z</time>
      </trkpt>
      <trkpt lat="44.4968" lon="5.5104">
        <ele>1202.7</ele>
        <time>2021-09-07T11:10:32Z</time>
      </trkpt>
      <trkpt lat="44.4968" lon="5.51038">
        <ele>1202.8</ele>
        <time>2021-09-07T11:10:33Z</time>
      </trkpt>
      <trkpt lat="44.4968" lon="5.51037">
        <ele>1202.9</ele>
        <time>2021-09-07T11:10:34Z</time>
      </trkpt>
      <trkpt lat="44.49679" lon="5.51035">
        <ele>1203</ele>
        <time>2021-09-07T11:10:35Z</time>
      </trkpt>
      <trkpt lat="44.49679" lon="5.51032">
        <ele>1203.2</ele>
        <time>2021-09-07T11:10:36Z</time>
      </trkpt>
      <trkpt lat="44.49679" lon="5.51028">
        <ele>1203.4</ele>
        <time>2021-09-07T11:10:37Z</time>
      </trkpt>
      <trkpt lat="44.49679" lon="5.51025">
        <ele>1203.6</ele>
        <time>2021-09-07T11:10:38Z</time>
      </trkpt>
      <trkpt lat="44.49679" lon="5.51024">
        <ele>1203.7</ele>
        <time>2021-09-07T11:10:39Z</time>
      </trkpt>
      <trkpt lat="44.49679" lon="5.51022">
        <ele>1203.8</ele>
        <time>2021-09-07T11:10:40Z</time>
      </trkpt>
      <trkpt lat="44.49679" lon="5.5102">
        <ele>1203.9</ele>
        <time>2021-09-07T11:10:41Z</time>
      </trkpt>
      <trkpt lat="44.49679" lon="5.51017">
        <ele>1204.2</ele>
        <time>2021-09-07T11:10:42Z</time>
      </trkpt>
      <trkpt lat="44.49679" lon="5.51015">
        <ele>1204.3</ele>
        <time>2021-09-07T11:10:43Z</time>
      </trkpt>
      <trkpt lat="44.4968" lon="5.51014">
        <ele>1204.5</ele>
        <time>2021-09-07T11:10:44Z</time>
      </trkpt>
      <trkpt lat="44.4968" lon="5.51012">
        <ele>1204.6</ele>
        <time>2021-09-07T11:10:45Z</time>
      </trkpt>
      <trkpt lat="44.49679" lon="5.51011">
        <ele>1204.7</ele>
        <time>2021-09-07T11:10:46Z</time>
      </trkpt>
      <trkpt lat="44.49679" lon="5.51011">
        <ele>1204.7</ele>
        <time>2021-09-07T11:10:47Z</time>
      </trkpt>
      <trkpt lat="44.49679" lon="5.51012">
        <ele>1204.8</ele>
        <time>2021-09-07T11:10:48Z</time>
      </trkpt>
      <trkpt lat="44.49679" lon="5.51012">
        <ele>1204.8</ele>
        <time>2021-09-07T11:10:49Z</time>
      </trkpt>
      <trkpt lat="44.4968" lon="5.51012">
        <ele>1204.9</ele>
        <time>2021-09-07T11:10:50Z</time>
      </trkpt>
      <trkpt lat="44.4968" lon="5.51012">
        <ele>1205</ele>
        <time>2021-09-07T11:10:51Z</time>
      </trkpt>
      <trkpt lat="44.4968" lon="5.51011">
        <ele>1205</ele>
        <time>2021-09-07T11:10:52Z</time>
      </trkpt>
      <trkpt lat="44.4968" lon="5.51011">
        <ele>1205</ele>
        <time>2021-09-07T11:10:53Z</time>
      </trkpt>
      <trkpt lat="44.4968" lon="5.51011">
        <ele>1205.1</ele>
        <time>2021-09-07T11:10:54Z</time>
      </trkpt>
      <trkpt lat="44.49679" lon="5.51011">
        <ele>1205.2</ele>
        <time>2021-09-07T11:10:55Z</time>
      </trkpt>
      <trkpt lat="44.49679" lon="5.51011">
        <ele>1205.2</ele>
        <time>2021-09-07T11:10:56Z</time>
      </trkpt>
      <trkpt lat="44.49679" lon="5.51011">
        <ele>1205.2</ele>
        <time>2021-09-07T11:10:57Z</time>
      </trkpt>
      <trkpt lat="44.49679" lon="5.51011">
        <ele>1205.2</ele>
        <time>2021-09-07T11:10:58Z</time>
      </trkpt>
      <trkpt lat="44.49679" lon="5.51011">
        <ele>1205.2</ele>
        <time>2021-09-07T11:10:59Z</time>
      </trkpt>
      <trkpt lat="44.49679" lon="5.51011">
        <ele>1205.2</ele>
        <time>2021-09-07T11:11:00Z</time>
      </trkpt>
      <trkpt lat="44.49679" lon="5.51011">
        <ele>1205.2</ele>
        <time>2021-09-07T11:11:01Z</time>
      </trkpt>
      <trkpt lat="44.49679" lon="5.51011">
        <ele>1205.2</ele>
        <time>2021-09-07T11:11:02Z</time>
      </trkpt>
      <trkpt lat="44.49679" lon="5.51011">
        <ele>1205.2</ele>
        <time>2021-09-07T11:11:03Z</time>
      </trkpt>
      <trkpt lat="44.49679" lon="5.51011">
        <ele>1205.2</ele>
        <time>2021-09-07T11:11:04Z</time>
      </trkpt>
      <trkpt lat="44.49679" lon="5.51011">
        <ele>1205.2</ele>
        <time>2021-09-07T11:11:05Z</time>
      </trkpt>
      <trkpt lat="44.49679" lon="5.51011">
        <ele>1205.2</ele>
        <time>2021-09-07T11:11:06Z</time>
      </trkpt>
      <trkpt lat="44.49679" lon="5.51011">
        <ele>1205.2</ele>
        <time>2021-09-07T11:11:07Z</time>
      </trkpt>
      <trkpt lat="44.49679" lon="5.51011">
        <ele>1205.2</ele>
        <time>2021-09-07T11:11:08Z</time>
      </trkpt>
      <trkpt lat="44.49679" lon="5.51011">
        <ele>1205.2</ele>
        <time>2021-09-07T11:11:09Z</time>
      </trkpt>
      <trkpt lat="44.49679" lon="5.51011">
        <ele>1205.2</ele>
        <time>2021-09-07T11:11:10Z</time>
      </trkpt>
      <trkpt lat="44.49679" lon="5.5101">
        <ele>1205.3</ele>
        <time>2021-09-07T11:11:11Z</time>
      </trkpt>
      <trkpt lat="44.49679" lon="5.51007">
        <ele>1205.5</ele>
        <time>2021-09-07T11:11:12Z</time>
      </trkpt>
      <trkpt lat="44.49679" lon="5.51006">
        <ele>1205.6</ele>
        <time>2021-09-07T11:11:13Z</time>
      </trkpt>
      <trkpt lat="44.49679" lon="5.51004">
        <ele>1205.8</ele>
        <time>2021-09-07T11:11:14Z</time>
      </trkpt>
      <trkpt lat="44.49678" lon="5.51003">
        <ele>1205.9</ele>
        <time>2021-09-07T11:11:15Z</time>
      </trkpt>
      <trkpt lat="44.49678" lon="5.51">
        <ele>1206.2</ele>
        <time>2021-09-07T11:11:16Z</time>
      </trkpt>
      <trkpt lat="44.49678" lon="5.51">
        <ele>1206.2</ele>
        <time>2021-09-07T11:11:17Z</time>
      </trkpt>
      <trkpt lat="44.49678" lon="5.50999">
        <ele>1206.3</ele>
        <time>2021-09-07T11:11:18Z</time>
      </trkpt>
      <trkpt lat="44.49678" lon="5.50998">
        <ele>1206.4</ele>
        <time>2021-09-07T11:11:19Z</time>
      </trkpt>
      <trkpt lat="44.49678" lon="5.50997">
        <ele>1206.5</ele>
        <time>2021-09-07T11:11:20Z</time>
      </trkpt>
      <trkpt lat="44.49678" lon="5.50997">
        <ele>1206.5</ele>
        <time>2021-09-07T11:11:21Z</time>
      </trkpt>
      <trkpt lat="44.49678" lon="5.50997">
        <ele>1206.5</ele>
        <time>2021-09-07T11:11:22Z</time>
      </trkpt>
      <trkpt lat="44.49678" lon="5.50996">
        <ele>1206.5</ele>
        <time>2021-09-07T11:11:23Z</time>
      </trkpt>
      <trkpt lat="44.49678" lon="5.50996">
        <ele>1206.5</ele>
        <time>2021-09-07T11:11:24Z</time>
      </trkpt>
      <trkpt lat="44.49678" lon="5.50996">
        <ele>1206.5</ele>
        <time>2021-09-07T11:11:25Z</time>
      </trkpt>
      <trkpt lat="44.49678" lon="5.50996">
        <ele>1206.5</ele>
        <time>2021-09-07T11:11:26Z</time>
      </trkpt>
      <trkpt lat="44.49678" lon="5.50996">
        <ele>1206.5</ele>
        <time>2021-09-07T11:11:27Z</time>
      </trkpt>
      <trkpt lat="44.49678" lon="5.50996">
        <ele>1206.5</ele>
        <time>2021-09-07T11:11:28Z</time>
      </trkpt>
      <trkpt lat="44.49678" lon="5.50996">
        <ele>1206.6</ele>
        <time>2021-09-07T11:11:29Z</time>
      </trkpt>
      <trkpt lat="44.49678" lon="5.50995">
        <ele>1206.6</ele>
        <time>2021-09-07T11:11:30Z</time>
      </trkpt>
      <trkpt lat="44.49678" lon="5.50995">
        <ele>1206.6</ele>
        <time>2021-09-07T11:11:31Z</time>
      </trkpt>
      <trkpt lat="44.49678" lon="5.50995">
        <ele>1206.6</ele>
        <time>2021-09-07T11:11:32Z</time>
      </trkpt>
      <trkpt lat="44.49678" lon="5.50995">
        <ele>1206.6</ele>
        <time>2021-09-07T11:11:33Z</time>
      </trkpt>
      <trkpt lat="44.49677" lon="5.50993">
        <ele>1206.8</ele>
        <time>2021-09-07T11:11:34Z</time>
      </trkpt>
      <trkpt lat="44.49677" lon="5.50992">
        <ele>1207</ele>
        <time>2021-09-07T11:11:35Z</time>
      </trkpt>
      <trkpt lat="44.49676" lon="5.50991">
        <ele>1207.1</ele>
        <time>2021-09-07T11:11:36Z</time>
      </trkpt>
      <trkpt lat="44.49675" lon="5.50988">
        <ele>1207.3</ele>
        <time>2021-09-07T11:11:37Z</time>
      </trkpt>
      <trkpt lat="44.49675" lon="5.50987">
        <ele>1207.4</ele>
        <time>2021-09-07T11:11:38Z</time>
      </trkpt>
      <trkpt lat="44.49675" lon="5.50987">
        <ele>1207.5</ele>
        <time>2021-09-07T11:11:39Z</time>
      </trkpt>
      <trkpt lat="44.49674" lon="5.50986">
        <ele>1207.6</ele>
        <time>2021-09-07T11:11:40Z</time>
      </trkpt>
      <trkpt lat="44.49674" lon="5.50985">
        <ele>1207.7</ele>
        <time>2021-09-07T11:11:41Z</time>
      </trkpt>
      <trkpt lat="44.49674" lon="5.50985">
        <ele>1207.7</ele>
        <time>2021-09-07T11:11:42Z</time>
      </trkpt>
      <trkpt lat="44.49673" lon="5.50983">
        <ele>1207.8</ele>
        <time>2021-09-07T11:11:43Z</time>
      </trkpt>
      <trkpt lat="44.49673" lon="5.50982">
        <ele>1207.9</ele>
        <time>2021-09-07T11:11:44Z</time>
      </trkpt>
      <trkpt lat="44.49673" lon="5.50981">
        <ele>1208</ele>
        <time>2021-09-07T11:11:45Z</time>
      </trkpt>
      <trkpt lat="44.49673" lon="5.5098">
        <ele>1208.1</ele>
        <time>2021-09-07T11:11:46Z</time>
      </trkpt>
      <trkpt lat="44.49672" lon="5.50978">
        <ele>1208.3</ele>
        <time>2021-09-07T11:11:47Z</time>
      </trkpt>
      <trkpt lat="44.49672" lon="5.50977">
        <ele>1208.4</ele>
        <time>2021-09-07T11:11:48Z</time>
      </trkpt>
      <trkpt lat="44.49671" lon="5.50975">
        <ele>1208.5</ele>
        <time>2021-09-07T11:11:49Z</time>
      </trkpt>
      <trkpt lat="44.4967" lon="5.50974">
        <ele>1208.6</ele>
        <time>2021-09-07T11:11:50Z</time>
      </trkpt>
      <trkpt lat="44.4967" lon="5.50973">
        <ele>1208.7</ele>
        <time>2021-09-07T11:11:51Z</time>
      </trkpt>
      <trkpt lat="44.49669" lon="5.50972">
        <ele>1208.8</ele>
        <time>2021-09-07T11:11:52Z</time>
      </trkpt>
      <trkpt lat="44.49668" lon="5.50971">
        <ele>1209</ele>
        <time>2021-09-07T11:11:53Z</time>
      </trkpt>
      <trkpt lat="44.49667" lon="5.50969">
        <ele>1209.1</ele>
        <time>2021-09-07T11:11:54Z</time>
      </trkpt>
      <trkpt lat="44.49666" lon="5.50967">
        <ele>1209.3</ele>
        <time>2021-09-07T11:11:55Z</time>
      </trkpt>
      <trkpt lat="44.49664" lon="5.50965">
        <ele>1209.6</ele>
        <time>2021-09-07T11:11:56Z</time>
      </trkpt>
      <trkpt lat="44.49661" lon="5.50961">
        <ele>1210</ele>
        <time>2021-09-07T11:11:57Z</time>
      </trkpt>
      <trkpt lat="44.4966" lon="5.50958">
        <ele>1210.3</ele>
        <time>2021-09-07T11:11:58Z</time>
      </trkpt>
      <trkpt lat="44.49658" lon="5.50955">
        <ele>1210.5</ele>
        <time>2021-09-07T11:11:59Z</time>
      </trkpt>
      <trkpt lat="44.49657" lon="5.50951">
        <ele>1210.8</ele>
        <time>2021-09-07T11:12:00Z</time>
      </trkpt>
      <trkpt lat="44.49655" lon="5.50948">
        <ele>1211.2</ele>
        <time>2021-09-07T11:12:01Z</time>
      </trkpt>
      <trkpt lat="44.49654" lon="5.50944">
        <ele>1211.5</ele>
        <time>2021-09-07T11:12:02Z</time>
      </trkpt>
      <trkpt lat="44.49654" lon="5.50941">
        <ele>1211.8</ele>
        <time>2021-09-07T11:12:03Z</time>
      </trkpt>
      <trkpt lat="44.49653" lon="5.50938">
        <ele>1212.1</ele>
        <time>2021-09-07T11:12:04Z</time>
      </trkpt>
      <trkpt lat="44.49653" lon="5.50934">
        <ele>1212.5</ele>
        <time>2021-09-07T11:12:05Z</time>
      </trkpt>
      <trkpt lat="44.49652" lon="5.50931">
        <ele>1212.8</ele>
        <time>2021-09-07T11:12:06Z</time>
      </trkpt>
      <trkpt lat="44.49651" lon="5.50928">
        <ele>1213.1</ele>
        <time>2021-09-07T11:12:07Z</time>
      </trkpt>
      <trkpt lat="44.4965" lon="5.50925">
        <ele>1213.4</ele>
        <time>2021-09-07T11:12:08Z</time>
      </trkpt>
      <trkpt lat="44.4965" lon="5.50924">
        <ele>1213.5</ele>
        <time>2021-09-07T11:12:09Z</time>
      </trkpt>
      <trkpt lat="44.4965" lon="5.50923">
        <ele>1213.6</ele>
        <time>2021-09-07T11:12:10Z</time>
      </trkpt>
      <trkpt lat="44.49649" lon="5.50921">
        <ele>1213.8</ele>
        <time>2021-09-07T11:12:11Z</time>
      </trkpt>
      <trkpt lat="44.49649" lon="5.50921">
        <ele>1213.8</ele>
        <time>2021-09-07T11:12:12Z</time>
      </trkpt>
      <trkpt lat="44.49649" lon="5.50921">
        <ele>1213.8</ele>
        <time>2021-09-07T11:12:13Z</time>
      </trkpt>
      <trkpt lat="44.49649" lon="5.5092">
        <ele>1213.9</ele>
        <time>2021-09-07T11:12:14Z</time>
      </trkpt>
      <trkpt lat="44.49648" lon="5.5092">
        <ele>1214</ele>
        <time>2021-09-07T11:12:15Z</time>
      </trkpt>
      <trkpt lat="44.49648" lon="5.5092">
        <ele>1214</ele>
        <time>2021-09-07T11:12:16Z</time>
      </trkpt>
      <trkpt lat="44.49648" lon="5.5092">
        <ele>1214</ele>
        <time>2021-09-07T11:12:17Z</time>
      </trkpt>
      <trkpt lat="44.49648" lon="5.5092">
        <ele>1214</ele>
        <time>2021-09-07T11:12:18Z</time>
      </trkpt>
      <trkpt lat="44.49648" lon="5.5092">
        <ele>1214</ele>
        <time>2021-09-07T11:12:19Z</time>
      </trkpt>
      <trkpt lat="44.49648" lon="5.5092">
        <ele>1214</ele>
        <time>2021-09-07T11:12:20Z</time>
      </trkpt>
      <trkpt lat="44.49648" lon="5.5092">
        <ele>1214</ele>
        <time>2021-09-07T11:12:21Z</time>
      </trkpt>
      <trkpt lat="44.49648" lon="5.5092">
        <ele>1214</ele>
        <time>2021-09-07T11:12:22Z</time>
      </trkpt>
      <trkpt lat="44.49648" lon="5.5092">
        <ele>1214.1</ele>
        <time>2021-09-07T11:12:23Z</time>
      </trkpt>
      <trkpt lat="44.49647" lon="5.5092">
        <ele>1214.2</ele>
        <time>2021-09-07T11:12:24Z</time>
      </trkpt>
      <trkpt lat="44.49647" lon="5.5092">
        <ele>1214.2</ele>
        <time>2021-09-07T11:12:25Z</time>
      </trkpt>
      <trkpt lat="44.49647" lon="5.5092">
        <ele>1214.2</ele>
        <time>2021-09-07T11:12:26Z</time>
      </trkpt>
      <trkpt lat="44.49647" lon="5.5092">
        <ele>1214.2</ele>
        <time>2021-09-07T11:12:27Z</time>
      </trkpt>
      <trkpt lat="44.49647" lon="5.5092">
        <ele>1214.2</ele>
        <time>2021-09-07T11:12:28Z</time>
      </trkpt>
      <trkpt lat="44.49647" lon="5.5092">
        <ele>1214.2</ele>
        <time>2021-09-07T11:12:29Z</time>
      </trkpt>
      <trkpt lat="44.49647" lon="5.50917">
        <ele>1214.4</ele>
        <time>2021-09-07T11:12:30Z</time>
      </trkpt>
      <trkpt lat="44.49646" lon="5.50914">
        <ele>1214.7</ele>
        <time>2021-09-07T11:12:31Z</time>
      </trkpt>
      <trkpt lat="44.49646" lon="5.50913">
        <ele>1214.8</ele>
        <time>2021-09-07T11:12:32Z</time>
      </trkpt>
      <trkpt lat="44.49646" lon="5.50912">
        <ele>1214.9</ele>
        <time>2021-09-07T11:12:33Z</time>
      </trkpt>
      <trkpt lat="44.49646" lon="5.5091">
        <ele>1215</ele>
        <time>2021-09-07T11:12:34Z</time>
      </trkpt>
      <trkpt lat="44.49645" lon="5.50908">
        <ele>1215.2</ele>
        <time>2021-09-07T11:12:35Z</time>
      </trkpt>
      <trkpt lat="44.49645" lon="5.50908">
        <ele>1215.3</ele>
        <time>2021-09-07T11:12:36Z</time>
      </trkpt>
      <trkpt lat="44.49645" lon="5.50907">
        <ele>1215.3</ele>
        <time>2021-09-07T11:12:37Z</time>
      </trkpt>
      <trkpt lat="44.49645" lon="5.50906">
        <ele>1215.4</ele>
        <time>2021-09-07T11:12:38Z</time>
      </trkpt>
      <trkpt lat="44.49644" lon="5.50905">
        <ele>1215.5</ele>
        <time>2021-09-07T11:12:39Z</time>
      </trkpt>
      <trkpt lat="44.49644" lon="5.50905">
        <ele>1215.6</ele>
        <time>2021-09-07T11:12:40Z</time>
      </trkpt>
      <trkpt lat="44.49643" lon="5.50904">
        <ele>1215.6</ele>
        <time>2021-09-07T11:12:41Z</time>
      </trkpt>
      <trkpt lat="44.49642" lon="5.50901">
        <ele>1215.9</ele>
        <time>2021-09-07T11:12:42Z</time>
      </trkpt>
      <trkpt lat="44.4964" lon="5.50897">
        <ele>1216.2</ele>
        <time>2021-09-07T11:12:43Z</time>
      </trkpt>
      <trkpt lat="44.4964" lon="5.50896">
        <ele>1216.3</ele>
        <time>2021-09-07T11:12:44Z</time>
      </trkpt>
      <trkpt lat="44.49639" lon="5.50895">
        <ele>1216.4</ele>
        <time>2021-09-07T11:12:45Z</time>
      </trkpt>
      <trkpt lat="44.49638" lon="5.50893">
        <ele>1216.6</ele>
        <time>2021-09-07T11:12:46Z</time>
      </trkpt>
      <trkpt lat="44.49638" lon="5.50892">
        <ele>1216.7</ele>
        <time>2021-09-07T11:12:47Z</time>
      </trkpt>
      <trkpt lat="44.49637" lon="5.50891">
        <ele>1216.8</ele>
        <time>2021-09-07T11:12:48Z</time>
      </trkpt>
      <trkpt lat="44.49636" lon="5.50888">
        <ele>1217.1</ele>
        <time>2021-09-07T11:12:49Z</time>
      </trkpt>
      <trkpt lat="44.49635" lon="5.50886">
        <ele>1217.4</ele>
        <time>2021-09-07T11:12:50Z</time>
      </trkpt>
      <trkpt lat="44.49633" lon="5.50883">
        <ele>1217.7</ele>
        <time>2021-09-07T11:12:51Z</time>
      </trkpt>
      <trkpt lat="44.49633" lon="5.50882">
        <ele>1217.8</ele>
        <time>2021-09-07T11:12:52Z</time>
      </trkpt>
      <trkpt lat="44.49632" lon="5.5088">
        <ele>1218</ele>
        <time>2021-09-07T11:12:53Z</time>
      </trkpt>
      <trkpt lat="44.49632" lon="5.50879">
        <ele>1218.1</ele>
        <time>2021-09-07T11:12:54Z</time>
      </trkpt>
      <trkpt lat="44.49631" lon="5.50878">
        <ele>1218.2</ele>
        <time>2021-09-07T11:12:55Z</time>
      </trkpt>
      <trkpt lat="44.4963" lon="5.50874">
        <ele>1218.6</ele>
        <time>2021-09-07T11:12:56Z</time>
      </trkpt>
      <trkpt lat="44.49629" lon="5.50873">
        <ele>1218.8</ele>
        <time>2021-09-07T11:12:57Z</time>
      </trkpt>
      <trkpt lat="44.49629" lon="5.50873">
        <ele>1218.8</ele>
        <time>2021-09-07T11:12:58Z</time>
      </trkpt>
      <trkpt lat="44.49629" lon="5.50872">
        <ele>1218.9</ele>
        <time>2021-09-07T11:12:59Z</time>
      </trkpt>
      <trkpt lat="44.49629" lon="5.5087">
        <ele>1219.1</ele>
        <time>2021-09-07T11:13:00Z</time>
      </trkpt>
      <trkpt lat="44.49629" lon="5.50869">
        <ele>1219.2</ele>
        <time>2021-09-07T11:13:01Z</time>
      </trkpt>
      <trkpt lat="44.49629" lon="5.50869">
        <ele>1219.2</ele>
        <time>2021-09-07T11:13:02Z</time>
      </trkpt>
      <trkpt lat="44.49628" lon="5.50869">
        <ele>1219.3</ele>
        <time>2021-09-07T11:13:03Z</time>
      </trkpt>
      <trkpt lat="44.49628" lon="5.50868">
        <ele>1219.4</ele>
        <time>2021-09-07T11:13:04Z</time>
      </trkpt>
      <trkpt lat="44.49628" lon="5.50868">
        <ele>1219.4</ele>
        <time>2021-09-07T11:13:05Z</time>
      </trkpt>
      <trkpt lat="44.49628" lon="5.50868">
        <ele>1219.4</ele>
        <time>2021-09-07T11:13:06Z</time>
      </trkpt>
      <trkpt lat="44.49628" lon="5.50868">
        <ele>1219.4</ele>
        <time>2021-09-07T11:13:07Z</time>
      </trkpt>
      <trkpt lat="44.49628" lon="5.50867">
        <ele>1219.5</ele>
        <time>2021-09-07T11:13:08Z</time>
      </trkpt>
      <trkpt lat="44.49627" lon="5.50866">
        <ele>1219.6</ele>
        <time>2021-09-07T11:13:09Z</time>
      </trkpt>
      <trkpt lat="44.49626" lon="5.50864">
        <ele>1219.9</ele>
        <time>2021-09-07T11:13:10Z</time>
      </trkpt>
      <trkpt lat="44.49626" lon="5.50863">
        <ele>1220</ele>
        <time>2021-09-07T11:13:11Z</time>
      </trkpt>
      <trkpt lat="44.49625" lon="5.50862">
        <ele>1220.1</ele>
        <time>2021-09-07T11:13:12Z</time>
      </trkpt>
      <trkpt lat="44.49624" lon="5.5086">
        <ele>1220.4</ele>
        <time>2021-09-07T11:13:13Z</time>
      </trkpt>
      <trkpt lat="44.49622" lon="5.50859">
        <ele>1220.7</ele>
        <time>2021-09-07T11:13:14Z</time>
      </trkpt>
      <trkpt lat="44.49622" lon="5.50858">
        <ele>1220.8</ele>
        <time>2021-09-07T11:13:15Z</time>
      </trkpt>
      <trkpt lat="44.49622" lon="5.50857">
        <ele>1220.9</ele>
        <time>2021-09-07T11:13:16Z</time>
      </trkpt>
      <trkpt lat="44.49622" lon="5.50857">
        <ele>1221</ele>
        <time>2021-09-07T11:13:17Z</time>
      </trkpt>
      <trkpt lat="44.49621" lon="5.50857">
        <ele>1221</ele>
        <time>2021-09-07T11:13:18Z</time>
      </trkpt>
      <trkpt lat="44.49621" lon="5.50856">
        <ele>1221.1</ele>
        <time>2021-09-07T11:13:19Z</time>
      </trkpt>
      <trkpt lat="44.49621" lon="5.50856">
        <ele>1221.1</ele>
        <time>2021-09-07T11:13:20Z</time>
      </trkpt>
      <trkpt lat="44.49621" lon="5.50855">
        <ele>1221.2</ele>
        <time>2021-09-07T11:13:21Z</time>
      </trkpt>
      <trkpt lat="44.49621" lon="5.50855">
        <ele>1221.2</ele>
        <time>2021-09-07T11:13:22Z</time>
      </trkpt>
      <trkpt lat="44.49621" lon="5.50855">
        <ele>1221.2</ele>
        <time>2021-09-07T11:13:23Z</time>
      </trkpt>
      <trkpt lat="44.49621" lon="5.50855">
        <ele>1221.2</ele>
        <time>2021-09-07T11:13:24Z</time>
      </trkpt>
      <trkpt lat="44.49621" lon="5.50855">
        <ele>1221.2</ele>
        <time>2021-09-07T11:13:25Z</time>
      </trkpt>
      <trkpt lat="44.49621" lon="5.50855">
        <ele>1221.2</ele>
        <time>2021-09-07T11:13:26Z</time>
      </trkpt>
      <trkpt lat="44.4962" lon="5.50853">
        <ele>1221.5</ele>
        <time>2021-09-07T11:13:27Z</time>
      </trkpt>
      <trkpt lat="44.4962" lon="5.50852">
        <ele>1221.6</ele>
        <time>2021-09-07T11:13:28Z</time>
      </trkpt>
      <trkpt lat="44.4962" lon="5.50851">
        <ele>1221.7</ele>
        <time>2021-09-07T11:13:29Z</time>
      </trkpt>
      <trkpt lat="44.49619" lon="5.5085">
        <ele>1221.9</ele>
        <time>2021-09-07T11:13:30Z</time>
      </trkpt>
      <trkpt lat="44.49618" lon="5.50848">
        <ele>1222.1</ele>
        <time>2021-09-07T11:13:31Z</time>
      </trkpt>
      <trkpt lat="44.49618" lon="5.50848">
        <ele>1222.2</ele>
        <time>2021-09-07T11:13:32Z</time>
      </trkpt>
      <trkpt lat="44.49618" lon="5.50847">
        <ele>1222.2</ele>
        <time>2021-09-07T11:13:33Z</time>
      </trkpt>
      <trkpt lat="44.49617" lon="5.50846">
        <ele>1222.4</ele>
        <time>2021-09-07T11:13:34Z</time>
      </trkpt>
      <trkpt lat="44.49617" lon="5.50846">
        <ele>1222.5</ele>
        <time>2021-09-07T11:13:35Z</time>
      </trkpt>
      <trkpt lat="44.49616" lon="5.50845">
        <ele>1222.5</ele>
        <time>2021-09-07T11:13:36Z</time>
      </trkpt>
      <trkpt lat="44.49616" lon="5.50844">
        <ele>1222.6</ele>
        <time>2021-09-07T11:13:37Z</time>
      </trkpt>
      <trkpt lat="44.49616" lon="5.50844">
        <ele>1222.6</ele>
        <time>2021-09-07T11:13:38Z</time>
      </trkpt>
      <trkpt lat="44.49616" lon="5.50844">
        <ele>1222.6</ele>
        <time>2021-09-07T11:13:39Z</time>
      </trkpt>
      <trkpt lat="44.49616" lon="5.50844">
        <ele>1222.6</ele>
        <time>2021-09-07T11:13:40Z</time>
      </trkpt>
      <trkpt lat="44.49616" lon="5.50843">
        <ele>1222.7</ele>
        <time>2021-09-07T11:13:41Z</time>
      </trkpt>
      <trkpt lat="44.49616" lon="5.50843">
        <ele>1222.7</ele>
        <time>2021-09-07T11:13:42Z</time>
      </trkpt>
      <trkpt lat="44.49616" lon="5.50843">
        <ele>1222.7</ele>
        <time>2021-09-07T11:13:43Z</time>
      </trkpt>
      <trkpt lat="44.49616" lon="5.50843">
        <ele>1222.7</ele>
        <time>2021-09-07T11:13:44Z</time>
      </trkpt>
      <trkpt lat="44.49616" lon="5.50843">
        <ele>1222.7</ele>
        <time>2021-09-07T11:13:45Z</time>
      </trkpt>
      <trkpt lat="44.49616" lon="5.50843">
        <ele>1222.7</ele>
        <time>2021-09-07T11:13:46Z</time>
      </trkpt>
      <trkpt lat="44.49616" lon="5.50843">
        <ele>1222.7</ele>
        <time>2021-09-07T11:13:47Z</time>
      </trkpt>
      <trkpt lat="44.49616" lon="5.50843">
        <ele>1222.7</ele>
        <time>2021-09-07T11:13:48Z</time>
      </trkpt>
      <trkpt lat="44.49616" lon="5.50843">
        <ele>1222.7</ele>
        <time>2021-09-07T11:13:49Z</time>
      </trkpt>
      <trkpt lat="44.49616" lon="5.50843">
        <ele>1222.7</ele>
        <time>2021-09-07T11:13:50Z</time>
      </trkpt>
      <trkpt lat="44.49616" lon="5.50843">
        <ele>1222.7</ele>
        <time>2021-09-07T11:13:51Z</time>
      </trkpt>
      <trkpt lat="44.49616" lon="5.50843">
        <ele>1222.7</ele>
        <time>2021-09-07T11:13:52Z</time>
      </trkpt>
      <trkpt lat="44.49616" lon="5.50843">
        <ele>1222.7</ele>
        <time>2021-09-07T11:13:53Z</time>
      </trkpt>
      <trkpt lat="44.49616" lon="5.50843">
        <ele>1222.7</ele>
        <time>2021-09-07T11:13:54Z</time>
      </trkpt>
      <trkpt lat="44.49616" lon="5.50843">
        <ele>1222.7</ele>
        <time>2021-09-07T11:13:55Z</time>
      </trkpt>
      <trkpt lat="44.49616" lon="5.50843">
        <ele>1222.7</ele>
        <time>2021-09-07T11:13:56Z</time>
      </trkpt>
      <trkpt lat="44.49616" lon="5.50843">
        <ele>1222.7</ele>
        <time>2021-09-07T11:13:57Z</time>
      </trkpt>
      <trkpt lat="44.49616" lon="5.50843">
        <ele>1222.7</ele>
        <time>2021-09-07T11:13:58Z</time>
      </trkpt>
      <trkpt lat="44.49616" lon="5.50843">
        <ele>1222.7</ele>
        <time>2021-09-07T11:13:59Z</time>
      </trkpt>
      <trkpt lat="44.49616" lon="5.50843">
        <ele>1222.7</ele>
        <time>2021-09-07T11:14:00Z</time>
      </trkpt>
      <trkpt lat="44.49616" lon="5.50843">
        <ele>1222.7</ele>
        <time>2021-09-07T11:14:01Z</time>
      </trkpt>
      <trkpt lat="44.49616" lon="5.50843">
        <ele>1222.7</ele>
        <time>2021-09-07T11:14:02Z</time>
      </trkpt>
      <trkpt lat="44.49616" lon="5.50843">
        <ele>1222.7</ele>
        <time>2021-09-07T11:14:03Z</time>
      </trkpt>
      <trkpt lat="44.49616" lon="5.50843">
        <ele>1222.7</ele>
        <time>2021-09-07T11:14:04Z</time>
      </trkpt>
      <trkpt lat="44.49616" lon="5.50843">
        <ele>1222.7</ele>
        <time>2021-09-07T11:14:05Z</time>
      </trkpt>
      <trkpt lat="44.49616" lon="5.50843">
        <ele>1222.7</ele>
        <time>2021-09-07T11:14:06Z</time>
      </trkpt>
      <trkpt lat="44.49616" lon="5.50843">
        <ele>1222.7</ele>
        <time>2021-09-07T11:14:07Z</time>
      </trkpt>
      <trkpt lat="44.49616" lon="5.50843">
        <ele>1222.7</ele>
        <time>2021-09-07T11:14:08Z</time>
      </trkpt>
      <trkpt lat="44.49616" lon="5.50843">
        <ele>1222.7</ele>
        <time>2021-09-07T11:14:09Z</time>
      </trkpt>
      <trkpt lat="44.49616" lon="5.50843">
        <ele>1222.7</ele>
        <time>2021-09-07T11:14:10Z</time>
      </trkpt>
      <trkpt lat="44.49616" lon="5.50843">
        <ele>1222.7</ele>
        <time>2021-09-07T11:14:11Z</time>
      </trkpt>
      <trkpt lat="44.49616" lon="5.50843">
        <ele>1222.7</ele>
        <time>2021-09-07T11:14:12Z</time>
      </trkpt>
      <trkpt lat="44.49616" lon="5.50843">
        <ele>1222.7</ele>
        <time>2021-09-07T11:14:13Z</time>
      </trkpt>
      <trkpt lat="44.49616" lon="5.50843">
        <ele>1222.7</ele>
        <time>2021-09-07T11:14:14Z</time>
      </trkpt>
      <trkpt lat="44.49616" lon="5.50843">
        <ele>1222.7</ele>
        <time>2021-09-07T11:14:15Z</time>
      </trkpt>
      <trkpt lat="44.49616" lon="5.50843">
        <ele>1222.7</ele>
        <time>2021-09-07T11:14:16Z</time>
      </trkpt>
      <trkpt lat="44.49616" lon="5.50843">
        <ele>1222.7</ele>
        <time>2021-09-07T11:14:17Z</time>
      </trkpt>
      <trkpt lat="44.49616" lon="5.50843">
        <ele>1222.8</ele>
        <time>2021-09-07T11:14:18Z</time>
      </trkpt>
      <trkpt lat="44.49616" lon="5.50842">
        <ele>1222.8</ele>
        <time>2021-09-07T11:14:19Z</time>
      </trkpt>
      <trkpt lat="44.49616" lon="5.50843">
        <ele>1222.9</ele>
        <time>2021-09-07T11:14:20Z</time>
      </trkpt>
      <trkpt lat="44.49616" lon="5.50843">
        <ele>1222.9</ele>
        <time>2021-09-07T11:14:21Z</time>
      </trkpt>
      <trkpt lat="44.49616" lon="5.50843">
        <ele>1222.9</ele>
        <time>2021-09-07T11:14:22Z</time>
      </trkpt>
      <trkpt lat="44.49616" lon="5.50843">
        <ele>1222.9</ele>
        <time>2021-09-07T11:14:23Z</time>
      </trkpt>
      <trkpt lat="44.49616" lon="5.50843">
        <ele>1222.9</ele>
        <time>2021-09-07T11:14:24Z</time>
      </trkpt>
      <trkpt lat="44.49616" lon="5.50843">
        <ele>1222.9</ele>
        <time>2021-09-07T11:14:25Z</time>
      </trkpt>
      <trkpt lat="44.49616" lon="5.50843">
        <ele>1222.9</ele>
        <time>2021-09-07T11:14:26Z</time>
      </trkpt>
      <trkpt lat="44.49616" lon="5.50843">
        <ele>1222.9</ele>
        <time>2021-09-07T11:14:27Z</time>
      </trkpt>
      <trkpt lat="44.49616" lon="5.50843">
        <ele>1222.9</ele>
        <time>2021-09-07T11:14:28Z</time>
      </trkpt>
      <trkpt lat="44.49615" lon="5.50843">
        <ele>1223</ele>
        <time>2021-09-07T11:14:29Z</time>
      </trkpt>
      <trkpt lat="44.49615" lon="5.50843">
        <ele>1223</ele>
        <time>2021-09-07T11:14:30Z</time>
      </trkpt>
      <trkpt lat="44.49615" lon="5.50843">
        <ele>1223.1</ele>
        <time>2021-09-07T11:14:31Z</time>
      </trkpt>
      <trkpt lat="44.49615" lon="5.50842">
        <ele>1223.1</ele>
        <time>2021-09-07T11:14:32Z</time>
      </trkpt>
      <trkpt lat="44.49614" lon="5.50842">
        <ele>1223.2</ele>
        <time>2021-09-07T11:14:33Z</time>
      </trkpt>
      <trkpt lat="44.49613" lon="5.50841">
        <ele>1223.4</ele>
        <time>2021-09-07T11:14:34Z</time>
      </trkpt>
      <trkpt lat="44.49611" lon="5.50841">
        <ele>1223.6</ele>
        <time>2021-09-07T11:14:35Z</time>
      </trkpt>
      <trkpt lat="44.4961" lon="5.50839">
        <ele>1223.8</ele>
        <time>2021-09-07T11:14:36Z</time>
      </trkpt>
      <trkpt lat="44.4961" lon="5.50839">
        <ele>1223.9</ele>
        <time>2021-09-07T11:14:37Z</time>
      </trkpt>
      <trkpt lat="44.49609" lon="5.50838">
        <ele>1224</ele>
        <time>2021-09-07T11:14:38Z</time>
      </trkpt>
      <trkpt lat="44.49608" lon="5.50837">
        <ele>1224.1</ele>
        <time>2021-09-07T11:14:39Z</time>
      </trkpt>
      <trkpt lat="44.49607" lon="5.50835">
        <ele>1224.3</ele>
        <time>2021-09-07T11:14:40Z</time>
      </trkpt>
      <trkpt lat="44.49607" lon="5.50834">
        <ele>1224.4</ele>
        <time>2021-09-07T11:14:41Z</time>
      </trkpt>
      <trkpt lat="44.49606" lon="5.50833">
        <ele>1224.5</ele>
        <time>2021-09-07T11:14:42Z</time>
      </trkpt>
      <trkpt lat="44.49605" lon="5.50832">
        <ele>1224.7</ele>
        <time>2021-09-07T11:14:43Z</time>
      </trkpt>
      <trkpt lat="44.49605" lon="5.50832">
        <ele>1224.7</ele>
        <time>2021-09-07T11:14:44Z</time>
      </trkpt>
      <trkpt lat="44.49604" lon="5.50831">
        <ele>1224.8</ele>
        <time>2021-09-07T11:14:45Z</time>
      </trkpt>
      <trkpt lat="44.49604" lon="5.50831">
        <ele>1224.8</ele>
        <time>2021-09-07T11:14:46Z</time>
      </trkpt>
      <trkpt lat="44.49604" lon="5.50831">
        <ele>1224.8</ele>
        <time>2021-09-07T11:14:47Z</time>
      </trkpt>
      <trkpt lat="44.49604" lon="5.50831">
        <ele>1224.8</ele>
        <time>2021-09-07T11:14:48Z</time>
      </trkpt>
      <trkpt lat="44.49603" lon="5.5083">
        <ele>1225</ele>
        <time>2021-09-07T11:14:49Z</time>
      </trkpt>
      <trkpt lat="44.49602" lon="5.50828">
        <ele>1225.2</ele>
        <time>2021-09-07T11:14:50Z</time>
      </trkpt>
      <trkpt lat="44.49601" lon="5.50827">
        <ele>1225.3</ele>
        <time>2021-09-07T11:14:51Z</time>
      </trkpt>
      <trkpt lat="44.49599" lon="5.50826">
        <ele>1225.5</ele>
        <time>2021-09-07T11:14:52Z</time>
      </trkpt>
      <trkpt lat="44.49596" lon="5.50824">
        <ele>1226</ele>
        <time>2021-09-07T11:14:53Z</time>
      </trkpt>
      <trkpt lat="44.49593" lon="5.50824">
        <ele>1226.3</ele>
        <time>2021-09-07T11:14:54Z</time>
      </trkpt>
      <trkpt lat="44.49592" lon="5.50824">
        <ele>1226.5</ele>
        <time>2021-09-07T11:14:55Z</time>
      </trkpt>
      <trkpt lat="44.4959" lon="5.50823">
        <ele>1226.7</ele>
        <time>2021-09-07T11:14:56Z</time>
      </trkpt>
      <trkpt lat="44.49589" lon="5.50822">
        <ele>1226.9</ele>
        <time>2021-09-07T11:14:57Z</time>
      </trkpt>
      <trkpt lat="44.49587" lon="5.50822">
        <ele>1227.1</ele>
        <time>2021-09-07T11:14:58Z</time>
      </trkpt>
      <trkpt lat="44.49585" lon="5.50821">
        <ele>1227.5</ele>
        <time>2021-09-07T11:14:59Z</time>
      </trkpt>
      <trkpt lat="44.49582" lon="5.5082">
        <ele>1227.8</ele>
        <time>2021-09-07T11:15:00Z</time>
      </trkpt>
      <trkpt lat="44.49577" lon="5.50819">
        <ele>1228.3</ele>
        <time>2021-09-07T11:15:01Z</time>
      </trkpt>
      <trkpt lat="44.49575" lon="5.50817">
        <ele>1228.6</ele>
        <time>2021-09-07T11:15:02Z</time>
      </trkpt>
      <trkpt lat="44.49573" lon="5.50817">
        <ele>1228.8</ele>
        <time>2021-09-07T11:15:03Z</time>
      </trkpt>
      <trkpt lat="44.49571" lon="5.50818">
        <ele>1229.1</ele>
        <time>2021-09-07T11:15:04Z</time>
      </trkpt>
      <trkpt lat="44.49568" lon="5.50818">
        <ele>1229.3</ele>
        <time>2021-09-07T11:15:05Z</time>
      </trkpt>
      <trkpt lat="44.49566" lon="5.50818">
        <ele>1229.5</ele>
        <time>2021-09-07T11:15:06Z</time>
      </trkpt>
      <trkpt lat="44.49565" lon="5.50818">
        <ele>1229.6</ele>
        <time>2021-09-07T11:15:07Z</time>
      </trkpt>
      <trkpt lat="44.49564" lon="5.50818">
        <ele>1229.7</ele>
        <time>2021-09-07T11:15:08Z</time>
      </trkpt>
      <trkpt lat="44.49564" lon="5.50818">
        <ele>1229.8</ele>
        <time>2021-09-07T11:15:09Z</time>
      </trkpt>
      <trkpt lat="44.49563" lon="5.50818">
        <ele>1229.8</ele>
        <time>2021-09-07T11:15:10Z</time>
      </trkpt>
      <trkpt lat="44.49563" lon="5.50818">
        <ele>1229.9</ele>
        <time>2021-09-07T11:15:11Z</time>
      </trkpt>
      <trkpt lat="44.49562" lon="5.50817">
        <ele>1230</ele>
        <time>2021-09-07T11:15:12Z</time>
      </trkpt>
      <trkpt lat="44.49562" lon="5.50817">
        <ele>1230</ele>
        <time>2021-09-07T11:15:13Z</time>
      </trkpt>
      <trkpt lat="44.49562" lon="5.50817">
        <ele>1230</ele>
        <time>2021-09-07T11:15:14Z</time>
      </trkpt>
      <trkpt lat="44.49562" lon="5.50816">
        <ele>1230</ele>
        <time>2021-09-07T11:15:15Z</time>
      </trkpt>
      <trkpt lat="44.49562" lon="5.50816">
        <ele>1230</ele>
        <time>2021-09-07T11:15:16Z</time>
      </trkpt>
      <trkpt lat="44.49562" lon="5.50816">
        <ele>1230.1</ele>
        <time>2021-09-07T11:15:17Z</time>
      </trkpt>
      <trkpt lat="44.49561" lon="5.50816">
        <ele>1230.1</ele>
        <time>2021-09-07T11:15:18Z</time>
      </trkpt>
      <trkpt lat="44.49561" lon="5.50817">
        <ele>1230.2</ele>
        <time>2021-09-07T11:15:19Z</time>
      </trkpt>
      <trkpt lat="44.4956" lon="5.50818">
        <ele>1230.3</ele>
        <time>2021-09-07T11:15:20Z</time>
      </trkpt>
      <trkpt lat="44.49559" lon="5.50819">
        <ele>1230.5</ele>
        <time>2021-09-07T11:15:21Z</time>
      </trkpt>
      <trkpt lat="44.49558" lon="5.5082">
        <ele>1230.6</ele>
        <time>2021-09-07T11:15:22Z</time>
      </trkpt>
      <trkpt lat="44.49556" lon="5.5082">
        <ele>1230.8</ele>
        <time>2021-09-07T11:15:23Z</time>
      </trkpt>
      <trkpt lat="44.49554" lon="5.50821">
        <ele>1231</ele>
        <time>2021-09-07T11:15:24Z</time>
      </trkpt>
      <trkpt lat="44.49552" lon="5.50821">
        <ele>1231.3</ele>
        <time>2021-09-07T11:15:25Z</time>
      </trkpt>
      <trkpt lat="44.49549" lon="5.50821">
        <ele>1231.6</ele>
        <time>2021-09-07T11:15:26Z</time>
      </trkpt>
      <trkpt lat="44.49549" lon="5.50822">
        <ele>1231.7</ele>
        <time>2021-09-07T11:15:27Z</time>
      </trkpt>
      <trkpt lat="44.49548" lon="5.50822">
        <ele>1231.8</ele>
        <time>2021-09-07T11:15:28Z</time>
      </trkpt>
      <trkpt lat="44.49547" lon="5.50822">
        <ele>1231.9</ele>
        <time>2021-09-07T11:15:29Z</time>
      </trkpt>
      <trkpt lat="44.49547" lon="5.50823">
        <ele>1231.9</ele>
        <time>2021-09-07T11:15:30Z</time>
      </trkpt>
      <trkpt lat="44.49546" lon="5.50823">
        <ele>1232</ele>
        <time>2021-09-07T11:15:31Z</time>
      </trkpt>
      <trkpt lat="44.49544" lon="5.50823">
        <ele>1232.3</ele>
        <time>2021-09-07T11:15:32Z</time>
      </trkpt>
      <trkpt lat="44.49543" lon="5.50824">
        <ele>1232.4</ele>
        <time>2021-09-07T11:15:33Z</time>
      </trkpt>
      <trkpt lat="44.49541" lon="5.50824">
        <ele>1232.6</ele>
        <time>2021-09-07T11:15:34Z</time>
      </trkpt>
      <trkpt lat="44.49539" lon="5.50825">
        <ele>1232.9</ele>
        <time>2021-09-07T11:15:35Z</time>
      </trkpt>
      <trkpt lat="44.49537" lon="5.50825">
        <ele>1233.1</ele>
        <time>2021-09-07T11:15:36Z</time>
      </trkpt>
      <trkpt lat="44.49535" lon="5.50825">
        <ele>1233.4</ele>
        <time>2021-09-07T11:15:37Z</time>
      </trkpt>
      <trkpt lat="44.49534" lon="5.50825">
        <ele>1233.5</ele>
        <time>2021-09-07T11:15:38Z</time>
      </trkpt>
      <trkpt lat="44.49533" lon="5.50825">
        <ele>1233.6</ele>
        <time>2021-09-07T11:15:39Z</time>
      </trkpt>
      <trkpt lat="44.49532" lon="5.50826">
        <ele>1233.7</ele>
        <time>2021-09-07T11:15:40Z</time>
      </trkpt>
      <trkpt lat="44.49531" lon="5.50826">
        <ele>1233.9</ele>
        <time>2021-09-07T11:15:41Z</time>
      </trkpt>
      <trkpt lat="44.49531" lon="5.50826">
        <ele>1233.9</ele>
        <time>2021-09-07T11:15:42Z</time>
      </trkpt>
      <trkpt lat="44.4953" lon="5.50826">
        <ele>1233.9</ele>
        <time>2021-09-07T11:15:43Z</time>
      </trkpt>
      <trkpt lat="44.4953" lon="5.50826">
        <ele>1234</ele>
        <time>2021-09-07T11:15:44Z</time>
      </trkpt>
      <trkpt lat="44.4953" lon="5.50826">
        <ele>1234</ele>
        <time>2021-09-07T11:15:45Z</time>
      </trkpt>
      <trkpt lat="44.49528" lon="5.50825">
        <ele>1234.2</ele>
        <time>2021-09-07T11:15:46Z</time>
      </trkpt>
      <trkpt lat="44.49528" lon="5.50825">
        <ele>1234.3</ele>
        <time>2021-09-07T11:15:47Z</time>
      </trkpt>
      <trkpt lat="44.49527" lon="5.50824">
        <ele>1234.4</ele>
        <time>2021-09-07T11:15:48Z</time>
      </trkpt>
      <trkpt lat="44.49526" lon="5.50823">
        <ele>1234.5</ele>
        <time>2021-09-07T11:15:49Z</time>
      </trkpt>
      <trkpt lat="44.49525" lon="5.50822">
        <ele>1234.6</ele>
        <time>2021-09-07T11:15:50Z</time>
      </trkpt>
      <trkpt lat="44.49524" lon="5.50821">
        <ele>1234.8</ele>
        <time>2021-09-07T11:15:51Z</time>
      </trkpt>
      <trkpt lat="44.49523" lon="5.50821">
        <ele>1234.9</ele>
        <time>2021-09-07T11:15:52Z</time>
      </trkpt>
      <trkpt lat="44.49522" lon="5.50821">
        <ele>1235</ele>
        <time>2021-09-07T11:15:53Z</time>
      </trkpt>
      <trkpt lat="44.49521" lon="5.50821">
        <ele>1235.1</ele>
        <time>2021-09-07T11:15:54Z</time>
      </trkpt>
      <trkpt lat="44.49519" lon="5.5082">
        <ele>1235.3</ele>
        <time>2021-09-07T11:15:55Z</time>
      </trkpt>
      <trkpt lat="44.49516" lon="5.50821">
        <ele>1235.6</ele>
        <time>2021-09-07T11:15:56Z</time>
      </trkpt>
      <trkpt lat="44.49513" lon="5.50822">
        <ele>1235.9</ele>
        <time>2021-09-07T11:15:57Z</time>
      </trkpt>
      <trkpt lat="44.49512" lon="5.50822">
        <ele>1236</ele>
        <time>2021-09-07T11:15:58Z</time>
      </trkpt>
      <trkpt lat="44.49511" lon="5.50823">
        <ele>1236.1</ele>
        <time>2021-09-07T11:15:59Z</time>
      </trkpt>
      <trkpt lat="44.49509" lon="5.50823">
        <ele>1236.3</ele>
        <time>2021-09-07T11:16:00Z</time>
      </trkpt>
      <trkpt lat="44.49507" lon="5.50822">
        <ele>1236.5</ele>
        <time>2021-09-07T11:16:01Z</time>
      </trkpt>
      <trkpt lat="44.49507" lon="5.5082">
        <ele>1236.6</ele>
        <time>2021-09-07T11:16:02Z</time>
      </trkpt>
      <trkpt lat="44.49506" lon="5.50818">
        <ele>1236.7</ele>
        <time>2021-09-07T11:16:03Z</time>
      </trkpt>
      <trkpt lat="44.49504" lon="5.50817">
        <ele>1236.8</ele>
        <time>2021-09-07T11:16:04Z</time>
      </trkpt>
      <trkpt lat="44.49503" lon="5.50817">
        <ele>1236.9</ele>
        <time>2021-09-07T11:16:05Z</time>
      </trkpt>
      <trkpt lat="44.49503" lon="5.50817">
        <ele>1236.9</ele>
        <time>2021-09-07T11:16:06Z</time>
      </trkpt>
      <trkpt lat="44.49503" lon="5.50817">
        <ele>1236.9</ele>
        <time>2021-09-07T11:16:07Z</time>
      </trkpt>
      <trkpt lat="44.49501" lon="5.50817">
        <ele>1237.1</ele>
        <time>2021-09-07T11:16:08Z</time>
      </trkpt>
      <trkpt lat="44.49498" lon="5.50816">
        <ele>1237.3</ele>
        <time>2021-09-07T11:16:09Z</time>
      </trkpt>
      <trkpt lat="44.49497" lon="5.50816">
        <ele>1237.3</ele>
        <time>2021-09-07T11:16:10Z</time>
      </trkpt>
      <trkpt lat="44.49496" lon="5.50815">
        <ele>1237.4</ele>
        <time>2021-09-07T11:16:11Z</time>
      </trkpt>
      <trkpt lat="44.49495" lon="5.50815">
        <ele>1237.5</ele>
        <time>2021-09-07T11:16:12Z</time>
      </trkpt>
      <trkpt lat="44.49493" lon="5.50815">
        <ele>1237.6</ele>
        <time>2021-09-07T11:16:13Z</time>
      </trkpt>
      <trkpt lat="44.49492" lon="5.50814">
        <ele>1237.7</ele>
        <time>2021-09-07T11:16:14Z</time>
      </trkpt>
      <trkpt lat="44.49491" lon="5.50813">
        <ele>1237.8</ele>
        <time>2021-09-07T11:16:15Z</time>
      </trkpt>
      <trkpt lat="44.4949" lon="5.50811">
        <ele>1237.9</ele>
        <time>2021-09-07T11:16:16Z</time>
      </trkpt>
      <trkpt lat="44.49489" lon="5.50808">
        <ele>1238.1</ele>
        <time>2021-09-07T11:16:17Z</time>
      </trkpt>
      <trkpt lat="44.49488" lon="5.50807">
        <ele>1238.2</ele>
        <time>2021-09-07T11:16:18Z</time>
      </trkpt>
      <trkpt lat="44.49487" lon="5.50805">
        <ele>1238.3</ele>
        <time>2021-09-07T11:16:19Z</time>
      </trkpt>
      <trkpt lat="44.49485" lon="5.50805">
        <ele>1238.4</ele>
        <time>2021-09-07T11:16:20Z</time>
      </trkpt>
      <trkpt lat="44.49483" lon="5.50804">
        <ele>1238.6</ele>
        <time>2021-09-07T11:16:21Z</time>
      </trkpt>
      <trkpt lat="44.49481" lon="5.50803">
        <ele>1238.7</ele>
        <time>2021-09-07T11:16:22Z</time>
      </trkpt>
      <trkpt lat="44.4948" lon="5.508">
        <ele>1238.9</ele>
        <time>2021-09-07T11:16:23Z</time>
      </trkpt>
      <trkpt lat="44.4948" lon="5.50799">
        <ele>1238.9</ele>
        <time>2021-09-07T11:16:24Z</time>
      </trkpt>
      <trkpt lat="44.4948" lon="5.50798">
        <ele>1239</ele>
        <time>2021-09-07T11:16:25Z</time>
      </trkpt>
      <trkpt lat="44.4948" lon="5.50797">
        <ele>1239</ele>
        <time>2021-09-07T11:16:26Z</time>
      </trkpt>
      <trkpt lat="44.4948" lon="5.50797">
        <ele>1239.1</ele>
        <time>2021-09-07T11:16:27Z</time>
      </trkpt>
      <trkpt lat="44.49479" lon="5.50796">
        <ele>1239.1</ele>
        <time>2021-09-07T11:16:28Z</time>
      </trkpt>
      <trkpt lat="44.49479" lon="5.50795">
        <ele>1239.2</ele>
        <time>2021-09-07T11:16:29Z</time>
      </trkpt>
      <trkpt lat="44.49479" lon="5.50794">
        <ele>1239.2</ele>
        <time>2021-09-07T11:16:30Z</time>
      </trkpt>
      <trkpt lat="44.49479" lon="5.50794">
        <ele>1239.3</ele>
        <time>2021-09-07T11:16:31Z</time>
      </trkpt>
      <trkpt lat="44.49478" lon="5.50793">
        <ele>1239.3</ele>
        <time>2021-09-07T11:16:32Z</time>
      </trkpt>
      <trkpt lat="44.49478" lon="5.50792">
        <ele>1239.4</ele>
        <time>2021-09-07T11:16:33Z</time>
      </trkpt>
      <trkpt lat="44.49478" lon="5.50792">
        <ele>1239.4</ele>
        <time>2021-09-07T11:16:34Z</time>
      </trkpt>
      <trkpt lat="44.49478" lon="5.50792">
        <ele>1239.4</ele>
        <time>2021-09-07T11:16:35Z</time>
      </trkpt>
      <trkpt lat="44.49478" lon="5.50792">
        <ele>1239.4</ele>
        <time>2021-09-07T11:16:36Z</time>
      </trkpt>
      <trkpt lat="44.49477" lon="5.50792">
        <ele>1239.5</ele>
        <time>2021-09-07T11:16:37Z</time>
      </trkpt>
      <trkpt lat="44.49477" lon="5.50792">
        <ele>1239.5</ele>
        <time>2021-09-07T11:16:38Z</time>
      </trkpt>
      <trkpt lat="44.49477" lon="5.50791">
        <ele>1239.5</ele>
        <time>2021-09-07T11:16:39Z</time>
      </trkpt>
      <trkpt lat="44.49477" lon="5.50791">
        <ele>1239.5</ele>
        <time>2021-09-07T11:16:40Z</time>
      </trkpt>
      <trkpt lat="44.49476" lon="5.5079">
        <ele>1239.6</ele>
        <time>2021-09-07T11:16:41Z</time>
      </trkpt>
      <trkpt lat="44.49475" lon="5.50789">
        <ele>1239.7</ele>
        <time>2021-09-07T11:16:42Z</time>
      </trkpt>
      <trkpt lat="44.49473" lon="5.50787">
        <ele>1239.9</ele>
        <time>2021-09-07T11:16:43Z</time>
      </trkpt>
      <trkpt lat="44.49473" lon="5.50787">
        <ele>1240</ele>
        <time>2021-09-07T11:16:44Z</time>
      </trkpt>
      <trkpt lat="44.49472" lon="5.50786">
        <ele>1240</ele>
        <time>2021-09-07T11:16:45Z</time>
      </trkpt>
      <trkpt lat="44.49471" lon="5.50785">
        <ele>1240.2</ele>
        <time>2021-09-07T11:16:46Z</time>
      </trkpt>
      <trkpt lat="44.49471" lon="5.50785">
        <ele>1240.2</ele>
        <time>2021-09-07T11:16:47Z</time>
      </trkpt>
      <trkpt lat="44.4947" lon="5.50784">
        <ele>1240.3</ele>
        <time>2021-09-07T11:16:48Z</time>
      </trkpt>
      <trkpt lat="44.49469" lon="5.50783">
        <ele>1240.4</ele>
        <time>2021-09-07T11:16:49Z</time>
      </trkpt>
      <trkpt lat="44.49469" lon="5.50782">
        <ele>1240.5</ele>
        <time>2021-09-07T11:16:50Z</time>
      </trkpt>
      <trkpt lat="44.49468" lon="5.5078">
        <ele>1240.7</ele>
        <time>2021-09-07T11:16:51Z</time>
      </trkpt>
      <trkpt lat="44.49468" lon="5.50779">
        <ele>1240.8</ele>
        <time>2021-09-07T11:16:52Z</time>
      </trkpt>
      <trkpt lat="44.49467" lon="5.50778">
        <ele>1240.9</ele>
        <time>2021-09-07T11:16:53Z</time>
      </trkpt>
      <trkpt lat="44.49466" lon="5.50777">
        <ele>1241</ele>
        <time>2021-09-07T11:16:54Z</time>
      </trkpt>
      <trkpt lat="44.49465" lon="5.50775">
        <ele>1241.2</ele>
        <time>2021-09-07T11:16:55Z</time>
      </trkpt>
      <trkpt lat="44.49464" lon="5.50774">
        <ele>1241.4</ele>
        <time>2021-09-07T11:16:56Z</time>
      </trkpt>
      <trkpt lat="44.49462" lon="5.50769">
        <ele>1242</ele>
        <time>2021-09-07T11:16:57Z</time>
      </trkpt>
      <trkpt lat="44.49461" lon="5.50768">
        <ele>1242.2</ele>
        <time>2021-09-07T11:16:58Z</time>
      </trkpt>
      <trkpt lat="44.4946" lon="5.50766">
        <ele>1242.5</ele>
        <time>2021-09-07T11:16:59Z</time>
      </trkpt>
      <trkpt lat="44.49457" lon="5.50763">
        <ele>1243.1</ele>
        <time>2021-09-07T11:17:00Z</time>
      </trkpt>
      <trkpt lat="44.49456" lon="5.50761">
        <ele>1243.4</ele>
        <time>2021-09-07T11:17:01Z</time>
      </trkpt>
      <trkpt lat="44.49454" lon="5.50758">
        <ele>1243.9</ele>
        <time>2021-09-07T11:17:02Z</time>
      </trkpt>
      <trkpt lat="44.49453" lon="5.50757">
        <ele>1244.2</ele>
        <time>2021-09-07T11:17:03Z</time>
      </trkpt>
      <trkpt lat="44.49451" lon="5.50755">
        <ele>1244.5</ele>
        <time>2021-09-07T11:17:04Z</time>
      </trkpt>
      <trkpt lat="44.4945" lon="5.50752">
        <ele>1244.9</ele>
        <time>2021-09-07T11:17:05Z</time>
      </trkpt>
      <trkpt lat="44.49449" lon="5.5075">
        <ele>1245.2</ele>
        <time>2021-09-07T11:17:06Z</time>
      </trkpt>
      <trkpt lat="44.49447" lon="5.50749">
        <ele>1245.5</ele>
        <time>2021-09-07T11:17:07Z</time>
      </trkpt>
      <trkpt lat="44.49447" lon="5.50748">
        <ele>1245.7</ele>
        <time>2021-09-07T11:17:08Z</time>
      </trkpt>
      <trkpt lat="44.49446" lon="5.50747">
        <ele>1245.8</ele>
        <time>2021-09-07T11:17:09Z</time>
      </trkpt>
      <trkpt lat="44.49445" lon="5.50746">
        <ele>1246</ele>
        <time>2021-09-07T11:17:10Z</time>
      </trkpt>
      <trkpt lat="44.49444" lon="5.50745">
        <ele>1246.2</ele>
        <time>2021-09-07T11:17:11Z</time>
      </trkpt>
      <trkpt lat="44.49444" lon="5.50745">
        <ele>1246.2</ele>
        <time>2021-09-07T11:17:12Z</time>
      </trkpt>
      <trkpt lat="44.49444" lon="5.50745">
        <ele>1246.3</ele>
        <time>2021-09-07T11:17:13Z</time>
      </trkpt>
      <trkpt lat="44.49443" lon="5.50744">
        <ele>1246.4</ele>
        <time>2021-09-07T11:17:14Z</time>
      </trkpt>
      <trkpt lat="44.49443" lon="5.50743">
        <ele>1246.5</ele>
        <time>2021-09-07T11:17:15Z</time>
      </trkpt>
      <trkpt lat="44.49443" lon="5.50742">
        <ele>1246.6</ele>
        <time>2021-09-07T11:17:16Z</time>
      </trkpt>
      <trkpt lat="44.49442" lon="5.50741">
        <ele>1246.8</ele>
        <time>2021-09-07T11:17:17Z</time>
      </trkpt>
      <trkpt lat="44.49441" lon="5.5074">
        <ele>1247</ele>
        <time>2021-09-07T11:17:18Z</time>
      </trkpt>
      <trkpt lat="44.4944" lon="5.50739">
        <ele>1247.2</ele>
        <time>2021-09-07T11:17:19Z</time>
      </trkpt>
      <trkpt lat="44.49438" lon="5.50737">
        <ele>1247.5</ele>
        <time>2021-09-07T11:17:20Z</time>
      </trkpt>
      <trkpt lat="44.49437" lon="5.50735">
        <ele>1247.8</ele>
        <time>2021-09-07T11:17:21Z</time>
      </trkpt>
      <trkpt lat="44.49436" lon="5.50734">
        <ele>1247.9</ele>
        <time>2021-09-07T11:17:22Z</time>
      </trkpt>
      <trkpt lat="44.49435" lon="5.50733">
        <ele>1248.1</ele>
        <time>2021-09-07T11:17:23Z</time>
      </trkpt>
      <trkpt lat="44.49434" lon="5.50732">
        <ele>1248.3</ele>
        <time>2021-09-07T11:17:24Z</time>
      </trkpt>
      <trkpt lat="44.49432" lon="5.5073">
        <ele>1248.6</ele>
        <time>2021-09-07T11:17:25Z</time>
      </trkpt>
      <trkpt lat="44.49432" lon="5.5073">
        <ele>1248.6</ele>
        <time>2021-09-07T11:17:26Z</time>
      </trkpt>
      <trkpt lat="44.49432" lon="5.50729">
        <ele>1248.7</ele>
        <time>2021-09-07T11:17:27Z</time>
      </trkpt>
      <trkpt lat="44.49431" lon="5.50729">
        <ele>1248.7</ele>
        <time>2021-09-07T11:17:28Z</time>
      </trkpt>
      <trkpt lat="44.49431" lon="5.50728">
        <ele>1248.8</ele>
        <time>2021-09-07T11:17:29Z</time>
      </trkpt>
      <trkpt lat="44.4943" lon="5.50727">
        <ele>1248.9</ele>
        <time>2021-09-07T11:17:30Z</time>
      </trkpt>
      <trkpt lat="44.4943" lon="5.50727">
        <ele>1248.9</ele>
        <time>2021-09-07T11:17:31Z</time>
      </trkpt>
      <trkpt lat="44.4943" lon="5.50727">
        <ele>1248.9</ele>
        <time>2021-09-07T11:17:32Z</time>
      </trkpt>
      <trkpt lat="44.4943" lon="5.50727">
        <ele>1248.9</ele>
        <time>2021-09-07T11:17:33Z</time>
      </trkpt>
      <trkpt lat="44.4943" lon="5.50726">
        <ele>1249</ele>
        <time>2021-09-07T11:17:34Z</time>
      </trkpt>
      <trkpt lat="44.49429" lon="5.50724">
        <ele>1249.1</ele>
        <time>2021-09-07T11:17:35Z</time>
      </trkpt>
      <trkpt lat="44.49429" lon="5.50723">
        <ele>1249.2</ele>
        <time>2021-09-07T11:17:36Z</time>
      </trkpt>
      <trkpt lat="44.49428" lon="5.50721">
        <ele>1249.3</ele>
        <time>2021-09-07T11:17:37Z</time>
      </trkpt>
      <trkpt lat="44.49427" lon="5.50719">
        <ele>1249.5</ele>
        <time>2021-09-07T11:17:38Z</time>
      </trkpt>
      <trkpt lat="44.49427" lon="5.50717">
        <ele>1249.6</ele>
        <time>2021-09-07T11:17:39Z</time>
      </trkpt>
      <trkpt lat="44.49425" lon="5.50714">
        <ele>1249.9</ele>
        <time>2021-09-07T11:17:40Z</time>
      </trkpt>
      <trkpt lat="44.49424" lon="5.50711">
        <ele>1250.1</ele>
        <time>2021-09-07T11:17:41Z</time>
      </trkpt>
      <trkpt lat="44.49424" lon="5.5071">
        <ele>1250.2</ele>
        <time>2021-09-07T11:17:42Z</time>
      </trkpt>
      <trkpt lat="44.49424" lon="5.50709">
        <ele>1250.2</ele>
        <time>2021-09-07T11:17:43Z</time>
      </trkpt>
      <trkpt lat="44.49423" lon="5.50706">
        <ele>1250.4</ele>
        <time>2021-09-07T11:17:44Z</time>
      </trkpt>
      <trkpt lat="44.49423" lon="5.50703">
        <ele>1250.6</ele>
        <time>2021-09-07T11:17:45Z</time>
      </trkpt>
      <trkpt lat="44.49423" lon="5.507">
        <ele>1250.8</ele>
        <time>2021-09-07T11:17:46Z</time>
      </trkpt>
      <trkpt lat="44.49422" lon="5.50696">
        <ele>1251.1</ele>
        <time>2021-09-07T11:17:47Z</time>
      </trkpt>
      <trkpt lat="44.49421" lon="5.50694">
        <ele>1251.2</ele>
        <time>2021-09-07T11:17:48Z</time>
      </trkpt>
      <trkpt lat="44.49421" lon="5.50694">
        <ele>1251.3</ele>
        <time>2021-09-07T11:17:49Z</time>
      </trkpt>
      <trkpt lat="44.49421" lon="5.50693">
        <ele>1251.3</ele>
        <time>2021-09-07T11:17:50Z</time>
      </trkpt>
      <trkpt lat="44.49421" lon="5.50693">
        <ele>1251.3</ele>
        <time>2021-09-07T11:17:51Z</time>
      </trkpt>
      <trkpt lat="44.49421" lon="5.50693">
        <ele>1251.3</ele>
        <time>2021-09-07T11:17:52Z</time>
      </trkpt>
      <trkpt lat="44.49421" lon="5.50692">
        <ele>1251.3</ele>
        <time>2021-09-07T11:17:53Z</time>
      </trkpt>
      <trkpt lat="44.49421" lon="5.50692">
        <ele>1251.3</ele>
        <time>2021-09-07T11:17:54Z</time>
      </trkpt>
      <trkpt lat="44.49421" lon="5.50692">
        <ele>1251.3</ele>
        <time>2021-09-07T11:17:55Z</time>
      </trkpt>
      <trkpt lat="44.49421" lon="5.50692">
        <ele>1251.3</ele>
        <time>2021-09-07T11:17:56Z</time>
      </trkpt>
      <trkpt lat="44.49421" lon="5.50692">
        <ele>1251.3</ele>
        <time>2021-09-07T11:17:57Z</time>
      </trkpt>
      <trkpt lat="44.49421" lon="5.50692">
        <ele>1251.3</ele>
        <time>2021-09-07T11:17:58Z</time>
      </trkpt>
      <trkpt lat="44.49421" lon="5.50692">
        <ele>1251.3</ele>
        <time>2021-09-07T11:17:59Z</time>
      </trkpt>
      <trkpt lat="44.49421" lon="5.50692">
        <ele>1251.3</ele>
        <time>2021-09-07T11:18:00Z</time>
      </trkpt>
      <trkpt lat="44.49421" lon="5.50692">
        <ele>1251.3</ele>
        <time>2021-09-07T11:18:01Z</time>
      </trkpt>
      <trkpt lat="44.49422" lon="5.50692">
        <ele>1251.4</ele>
        <time>2021-09-07T11:18:02Z</time>
      </trkpt>
      <trkpt lat="44.49422" lon="5.50692">
        <ele>1251.4</ele>
        <time>2021-09-07T11:18:03Z</time>
      </trkpt>
      <trkpt lat="44.49422" lon="5.50692">
        <ele>1251.4</ele>
        <time>2021-09-07T11:18:04Z</time>
      </trkpt>
      <trkpt lat="44.49422" lon="5.50692">
        <ele>1251.4</ele>
        <time>2021-09-07T11:18:05Z</time>
      </trkpt>
      <trkpt lat="44.49422" lon="5.50692">
        <ele>1251.4</ele>
        <time>2021-09-07T11:18:06Z</time>
      </trkpt>
      <trkpt lat="44.49422" lon="5.50692">
        <ele>1251.4</ele>
        <time>2021-09-07T11:18:07Z</time>
      </trkpt>
      <trkpt lat="44.49422" lon="5.50692">
        <ele>1251.4</ele>
        <time>2021-09-07T11:18:08Z</time>
      </trkpt>
      <trkpt lat="44.49422" lon="5.50692">
        <ele>1251.4</ele>
        <time>2021-09-07T11:18:09Z</time>
      </trkpt>
      <trkpt lat="44.49422" lon="5.50692">
        <ele>1251.4</ele>
        <time>2021-09-07T11:18:10Z</time>
      </trkpt>
      <trkpt lat="44.49422" lon="5.50692">
        <ele>1251.4</ele>
        <time>2021-09-07T11:18:11Z</time>
      </trkpt>
      <trkpt lat="44.49422" lon="5.50692">
        <ele>1251.4</ele>
        <time>2021-09-07T11:18:12Z</time>
      </trkpt>
      <trkpt lat="44.49422" lon="5.50692">
        <ele>1251.4</ele>
        <time>2021-09-07T11:18:13Z</time>
      </trkpt>
      <trkpt lat="44.49422" lon="5.50692">
        <ele>1251.4</ele>
        <time>2021-09-07T11:18:14Z</time>
      </trkpt>
      <trkpt lat="44.49422" lon="5.50692">
        <ele>1251.4</ele>
        <time>2021-09-07T11:18:15Z</time>
      </trkpt>
      <trkpt lat="44.49422" lon="5.50692">
        <ele>1251.4</ele>
        <time>2021-09-07T11:18:16Z</time>
      </trkpt>
      <trkpt lat="44.49422" lon="5.50692">
        <ele>1251.4</ele>
        <time>2021-09-07T11:18:17Z</time>
      </trkpt>
      <trkpt lat="44.49422" lon="5.50692">
        <ele>1251.4</ele>
        <time>2021-09-07T11:18:18Z</time>
      </trkpt>
      <trkpt lat="44.49422" lon="5.50692">
        <ele>1251.4</ele>
        <time>2021-09-07T11:18:19Z</time>
      </trkpt>
      <trkpt lat="44.49422" lon="5.50692">
        <ele>1251.4</ele>
        <time>2021-09-07T11:18:20Z</time>
      </trkpt>
      <trkpt lat="44.49422" lon="5.50692">
        <ele>1251.4</ele>
        <time>2021-09-07T11:18:21Z</time>
      </trkpt>
      <trkpt lat="44.49422" lon="5.50692">
        <ele>1251.4</ele>
        <time>2021-09-07T11:18:22Z</time>
      </trkpt>
      <trkpt lat="44.49422" lon="5.5069">
        <ele>1251.5</ele>
        <time>2021-09-07T11:18:23Z</time>
      </trkpt>
      <trkpt lat="44.49422" lon="5.50687">
        <ele>1251.7</ele>
        <time>2021-09-07T11:18:24Z</time>
      </trkpt>
      <trkpt lat="44.49422" lon="5.50686">
        <ele>1251.7</ele>
        <time>2021-09-07T11:18:25Z</time>
      </trkpt>
      <trkpt lat="44.49422" lon="5.50685">
        <ele>1251.8</ele>
        <time>2021-09-07T11:18:26Z</time>
      </trkpt>
      <trkpt lat="44.49422" lon="5.50683">
        <ele>1251.9</ele>
        <time>2021-09-07T11:18:27Z</time>
      </trkpt>
      <trkpt lat="44.49422" lon="5.5068">
        <ele>1252</ele>
        <time>2021-09-07T11:18:28Z</time>
      </trkpt>
      <trkpt lat="44.49422" lon="5.50679">
        <ele>1252.1</ele>
        <time>2021-09-07T11:18:29Z</time>
      </trkpt>
      <trkpt lat="44.49422" lon="5.50678">
        <ele>1252.1</ele>
        <time>2021-09-07T11:18:30Z</time>
      </trkpt>
      <trkpt lat="44.49422" lon="5.50676">
        <ele>1252.2</ele>
        <time>2021-09-07T11:18:31Z</time>
      </trkpt>
      <trkpt lat="44.49422" lon="5.50673">
        <ele>1252.4</ele>
        <time>2021-09-07T11:18:32Z</time>
      </trkpt>
      <trkpt lat="44.49422" lon="5.50672">
        <ele>1252.5</ele>
        <time>2021-09-07T11:18:33Z</time>
      </trkpt>
      <trkpt lat="44.49422" lon="5.50671">
        <ele>1252.5</ele>
        <time>2021-09-07T11:18:34Z</time>
      </trkpt>
      <trkpt lat="44.49422" lon="5.50669">
        <ele>1252.6</ele>
        <time>2021-09-07T11:18:35Z</time>
      </trkpt>
      <trkpt lat="44.49422" lon="5.50668">
        <ele>1252.7</ele>
        <time>2021-09-07T11:18:36Z</time>
      </trkpt>
      <trkpt lat="44.49422" lon="5.50667">
        <ele>1252.7</ele>
        <time>2021-09-07T11:18:37Z</time>
      </trkpt>
      <trkpt lat="44.49422" lon="5.50666">
        <ele>1252.8</ele>
        <time>2021-09-07T11:18:38Z</time>
      </trkpt>
      <trkpt lat="44.49422" lon="5.50665">
        <ele>1252.8</ele>
        <time>2021-09-07T11:18:39Z</time>
      </trkpt>
      <trkpt lat="44.49421" lon="5.50664">
        <ele>1252.9</ele>
        <time>2021-09-07T11:18:40Z</time>
      </trkpt>
      <trkpt lat="44.49421" lon="5.50664">
        <ele>1252.9</ele>
        <time>2021-09-07T11:18:41Z</time>
      </trkpt>
      <trkpt lat="44.49421" lon="5.50664">
        <ele>1252.9</ele>
        <time>2021-09-07T11:18:42Z</time>
      </trkpt>
      <trkpt lat="44.49421" lon="5.50663">
        <ele>1252.9</ele>
        <time>2021-09-07T11:18:43Z</time>
      </trkpt>
      <trkpt lat="44.49421" lon="5.50663">
        <ele>1252.9</ele>
        <time>2021-09-07T11:18:44Z</time>
      </trkpt>
      <trkpt lat="44.49421" lon="5.50662">
        <ele>1253</ele>
        <time>2021-09-07T11:18:45Z</time>
      </trkpt>
      <trkpt lat="44.49421" lon="5.50661">
        <ele>1253.1</ele>
        <time>2021-09-07T11:18:46Z</time>
      </trkpt>
      <trkpt lat="44.4942" lon="5.50659">
        <ele>1253.2</ele>
        <time>2021-09-07T11:18:47Z</time>
      </trkpt>
      <trkpt lat="44.4942" lon="5.50657">
        <ele>1253.3</ele>
        <time>2021-09-07T11:18:48Z</time>
      </trkpt>
      <trkpt lat="44.49419" lon="5.50654">
        <ele>1253.5</ele>
        <time>2021-09-07T11:18:49Z</time>
      </trkpt>
      <trkpt lat="44.49418" lon="5.50652">
        <ele>1253.6</ele>
        <time>2021-09-07T11:18:50Z</time>
      </trkpt>
      <trkpt lat="44.49418" lon="5.5065">
        <ele>1253.7</ele>
        <time>2021-09-07T11:18:51Z</time>
      </trkpt>
      <trkpt lat="44.49417" lon="5.50648">
        <ele>1253.8</ele>
        <time>2021-09-07T11:18:52Z</time>
      </trkpt>
      <trkpt lat="44.49417" lon="5.50644">
        <ele>1254.1</ele>
        <time>2021-09-07T11:18:53Z</time>
      </trkpt>
      <trkpt lat="44.49416" lon="5.5064">
        <ele>1254.3</ele>
        <time>2021-09-07T11:18:54Z</time>
      </trkpt>
      <trkpt lat="44.49416" lon="5.50639">
        <ele>1254.3</ele>
        <time>2021-09-07T11:18:55Z</time>
      </trkpt>
      <trkpt lat="44.49416" lon="5.50637">
        <ele>1254.4</ele>
        <time>2021-09-07T11:18:56Z</time>
      </trkpt>
      <trkpt lat="44.49415" lon="5.50634">
        <ele>1254.6</ele>
        <time>2021-09-07T11:18:57Z</time>
      </trkpt>
      <trkpt lat="44.49414" lon="5.50632">
        <ele>1254.7</ele>
        <time>2021-09-07T11:18:58Z</time>
      </trkpt>
      <trkpt lat="44.49413" lon="5.5063">
        <ele>1254.8</ele>
        <time>2021-09-07T11:18:59Z</time>
      </trkpt>
      <trkpt lat="44.49413" lon="5.50629">
        <ele>1254.8</ele>
        <time>2021-09-07T11:19:00Z</time>
      </trkpt>
      <trkpt lat="44.49412" lon="5.50627">
        <ele>1254.9</ele>
        <time>2021-09-07T11:19:01Z</time>
      </trkpt>
      <trkpt lat="44.49412" lon="5.50625">
        <ele>1254.9</ele>
        <time>2021-09-07T11:19:02Z</time>
      </trkpt>
      <trkpt lat="44.49412" lon="5.50624">
        <ele>1255</ele>
        <time>2021-09-07T11:19:03Z</time>
      </trkpt>
      <trkpt lat="44.49411" lon="5.50622">
        <ele>1255</ele>
        <time>2021-09-07T11:19:04Z</time>
      </trkpt>
      <trkpt lat="44.49411" lon="5.50622">
        <ele>1255</ele>
        <time>2021-09-07T11:19:05Z</time>
      </trkpt>
      <trkpt lat="44.49411" lon="5.50621">
        <ele>1255.1</ele>
        <time>2021-09-07T11:19:06Z</time>
      </trkpt>
      <trkpt lat="44.49411" lon="5.50621">
        <ele>1255.1</ele>
        <time>2021-09-07T11:19:07Z</time>
      </trkpt>
      <trkpt lat="44.49411" lon="5.50621">
        <ele>1255.1</ele>
        <time>2021-09-07T11:19:08Z</time>
      </trkpt>
      <trkpt lat="44.49411" lon="5.50621">
        <ele>1255.1</ele>
        <time>2021-09-07T11:19:09Z</time>
      </trkpt>
      <trkpt lat="44.49411" lon="5.50621">
        <ele>1255.1</ele>
        <time>2021-09-07T11:19:10Z</time>
      </trkpt>
      <trkpt lat="44.49411" lon="5.50621">
        <ele>1255.1</ele>
        <time>2021-09-07T11:19:11Z</time>
      </trkpt>
      <trkpt lat="44.49411" lon="5.5062">
        <ele>1255.1</ele>
        <time>2021-09-07T11:19:12Z</time>
      </trkpt>
      <trkpt lat="44.49411" lon="5.5062">
        <ele>1255.1</ele>
        <time>2021-09-07T11:19:13Z</time>
      </trkpt>
      <trkpt lat="44.49411" lon="5.5062">
        <ele>1255.1</ele>
        <time>2021-09-07T11:19:14Z</time>
      </trkpt>
      <trkpt lat="44.49411" lon="5.5062">
        <ele>1255.1</ele>
        <time>2021-09-07T11:19:15Z</time>
      </trkpt>
      <trkpt lat="44.49411" lon="5.50619">
        <ele>1255.1</ele>
        <time>2021-09-07T11:19:16Z</time>
      </trkpt>
      <trkpt lat="44.4941" lon="5.50618">
        <ele>1255.1</ele>
        <time>2021-09-07T11:19:17Z</time>
      </trkpt>
      <trkpt lat="44.49408" lon="5.50614">
        <ele>1255.2</ele>
        <time>2021-09-07T11:19:18Z</time>
      </trkpt>
      <trkpt lat="44.49408" lon="5.50613">
        <ele>1255.3</ele>
        <time>2021-09-07T11:19:19Z</time>
      </trkpt>
      <trkpt lat="44.49407" lon="5.50611">
        <ele>1255.3</ele>
        <time>2021-09-07T11:19:20Z</time>
      </trkpt>
      <trkpt lat="44.49406" lon="5.50606">
        <ele>1255.3</ele>
        <time>2021-09-07T11:19:21Z</time>
      </trkpt>
      <trkpt lat="44.49404" lon="5.50602">
        <ele>1255.3</ele>
        <time>2021-09-07T11:19:22Z</time>
      </trkpt>
      <trkpt lat="44.49403" lon="5.506">
        <ele>1255.4</ele>
        <time>2021-09-07T11:19:23Z</time>
      </trkpt>
      <trkpt lat="44.49401" lon="5.50598">
        <ele>1255.4</ele>
        <time>2021-09-07T11:19:24Z</time>
      </trkpt>
      <trkpt lat="44.49398" lon="5.50594">
        <ele>1255.3</ele>
        <time>2021-09-07T11:19:25Z</time>
      </trkpt>
      <trkpt lat="44.49396" lon="5.50592">
        <ele>1255.3</ele>
        <time>2021-09-07T11:19:26Z</time>
      </trkpt>
      <trkpt lat="44.49392" lon="5.50588">
        <ele>1255.3</ele>
        <time>2021-09-07T11:19:27Z</time>
      </trkpt>
      <trkpt lat="44.4939" lon="5.50587">
        <ele>1255.3</ele>
        <time>2021-09-07T11:19:28Z</time>
      </trkpt>
      <trkpt lat="44.49388" lon="5.50586">
        <ele>1255.3</ele>
        <time>2021-09-07T11:19:29Z</time>
      </trkpt>
      <trkpt lat="44.49386" lon="5.50584">
        <ele>1255.3</ele>
        <time>2021-09-07T11:19:30Z</time>
      </trkpt>
      <trkpt lat="44.49383" lon="5.50583">
        <ele>1255.4</ele>
        <time>2021-09-07T11:19:31Z</time>
      </trkpt>
      <trkpt lat="44.49381" lon="5.50582">
        <ele>1255.4</ele>
        <time>2021-09-07T11:19:32Z</time>
      </trkpt>
      <trkpt lat="44.49379" lon="5.50581">
        <ele>1255.4</ele>
        <time>2021-09-07T11:19:33Z</time>
      </trkpt>
      <trkpt lat="44.49377" lon="5.5058">
        <ele>1255.5</ele>
        <time>2021-09-07T11:19:34Z</time>
      </trkpt>
      <trkpt lat="44.49374" lon="5.50579">
        <ele>1255.6</ele>
        <time>2021-09-07T11:19:35Z</time>
      </trkpt>
      <trkpt lat="44.49371" lon="5.50577">
        <ele>1255.7</ele>
        <time>2021-09-07T11:19:36Z</time>
      </trkpt>
      <trkpt lat="44.49369" lon="5.50577">
        <ele>1255.8</ele>
        <time>2021-09-07T11:19:37Z</time>
      </trkpt>
      <trkpt lat="44.49367" lon="5.50576">
        <ele>1255.8</ele>
        <time>2021-09-07T11:19:38Z</time>
      </trkpt>
      <trkpt lat="44.49364" lon="5.50574">
        <ele>1256</ele>
        <time>2021-09-07T11:19:39Z</time>
      </trkpt>
      <trkpt lat="44.49364" lon="5.50573">
        <ele>1256</ele>
        <time>2021-09-07T11:19:40Z</time>
      </trkpt>
      <trkpt lat="44.49363" lon="5.50572">
        <ele>1256</ele>
        <time>2021-09-07T11:19:41Z</time>
      </trkpt>
      <trkpt lat="44.49361" lon="5.5057">
        <ele>1256.1</ele>
        <time>2021-09-07T11:19:42Z</time>
      </trkpt>
      <trkpt lat="44.4936" lon="5.50569">
        <ele>1256.2</ele>
        <time>2021-09-07T11:19:43Z</time>
      </trkpt>
      <trkpt lat="44.49358" lon="5.50568">
        <ele>1256.2</ele>
        <time>2021-09-07T11:19:44Z</time>
      </trkpt>
      <trkpt lat="44.49357" lon="5.50565">
        <ele>1256.2</ele>
        <time>2021-09-07T11:19:45Z</time>
      </trkpt>
      <trkpt lat="44.49355" lon="5.50564">
        <ele>1256.3</ele>
        <time>2021-09-07T11:19:46Z</time>
      </trkpt>
      <trkpt lat="44.49354" lon="5.50562">
        <ele>1256.3</ele>
        <time>2021-09-07T11:19:47Z</time>
      </trkpt>
      <trkpt lat="44.49353" lon="5.5056">
        <ele>1256.3</ele>
        <time>2021-09-07T11:19:48Z</time>
      </trkpt>
      <trkpt lat="44.49352" lon="5.50559">
        <ele>1256.3</ele>
        <time>2021-09-07T11:19:49Z</time>
      </trkpt>
      <trkpt lat="44.49351" lon="5.50558">
        <ele>1256.3</ele>
        <time>2021-09-07T11:19:50Z</time>
      </trkpt>
      <trkpt lat="44.49349" lon="5.50557">
        <ele>1256.3</ele>
        <time>2021-09-07T11:19:51Z</time>
      </trkpt>
      <trkpt lat="44.49347" lon="5.50555">
        <ele>1256.3</ele>
        <time>2021-09-07T11:19:52Z</time>
      </trkpt>
      <trkpt lat="44.49346" lon="5.50555">
        <ele>1256.3</ele>
        <time>2021-09-07T11:19:53Z</time>
      </trkpt>
      <trkpt lat="44.49345" lon="5.50554">
        <ele>1256.3</ele>
        <time>2021-09-07T11:19:54Z</time>
      </trkpt>
      <trkpt lat="44.49342" lon="5.50553">
        <ele>1256.2</ele>
        <time>2021-09-07T11:19:55Z</time>
      </trkpt>
      <trkpt lat="44.49341" lon="5.50553">
        <ele>1256.1</ele>
        <time>2021-09-07T11:19:56Z</time>
      </trkpt>
      <trkpt lat="44.49339" lon="5.50552">
        <ele>1256.1</ele>
        <time>2021-09-07T11:19:57Z</time>
      </trkpt>
      <trkpt lat="44.49336" lon="5.50552">
        <ele>1256</ele>
        <time>2021-09-07T11:19:58Z</time>
      </trkpt>
      <trkpt lat="44.49333" lon="5.50552">
        <ele>1255.9</ele>
        <time>2021-09-07T11:19:59Z</time>
      </trkpt>
      <trkpt lat="44.49332" lon="5.50553">
        <ele>1255.8</ele>
        <time>2021-09-07T11:20:00Z</time>
      </trkpt>
      <trkpt lat="44.49331" lon="5.50553">
        <ele>1255.8</ele>
        <time>2021-09-07T11:20:01Z</time>
      </trkpt>
      <trkpt lat="44.49328" lon="5.50553">
        <ele>1255.7</ele>
        <time>2021-09-07T11:20:02Z</time>
      </trkpt>
      <trkpt lat="44.49326" lon="5.50554">
        <ele>1255.6</ele>
        <time>2021-09-07T11:20:03Z</time>
      </trkpt>
      <trkpt lat="44.49324" lon="5.50554">
        <ele>1255.5</ele>
        <time>2021-09-07T11:20:04Z</time>
      </trkpt>
      <trkpt lat="44.49321" lon="5.50555">
        <ele>1255.3</ele>
        <time>2021-09-07T11:20:05Z</time>
      </trkpt>
      <trkpt lat="44.49318" lon="5.50556">
        <ele>1255.1</ele>
        <time>2021-09-07T11:20:06Z</time>
      </trkpt>
      <trkpt lat="44.49314" lon="5.50558">
        <ele>1254.9</ele>
        <time>2021-09-07T11:20:07Z</time>
      </trkpt>
      <trkpt lat="44.49312" lon="5.5056">
        <ele>1254.7</ele>
        <time>2021-09-07T11:20:08Z</time>
      </trkpt>
      <trkpt lat="44.4931" lon="5.50561">
        <ele>1254.6</ele>
        <time>2021-09-07T11:20:09Z</time>
      </trkpt>
      <trkpt lat="44.49306" lon="5.50566">
        <ele>1254.2</ele>
        <time>2021-09-07T11:20:10Z</time>
      </trkpt>
      <trkpt lat="44.49302" lon="5.5057">
        <ele>1253.9</ele>
        <time>2021-09-07T11:20:11Z</time>
      </trkpt>
      <trkpt lat="44.493" lon="5.50572">
        <ele>1253.7</ele>
        <time>2021-09-07T11:20:12Z</time>
      </trkpt>
      <trkpt lat="44.49297" lon="5.50573">
        <ele>1253.6</ele>
        <time>2021-09-07T11:20:13Z</time>
      </trkpt>
      <trkpt lat="44.49294" lon="5.50576">
        <ele>1253.3</ele>
        <time>2021-09-07T11:20:14Z</time>
      </trkpt>
      <trkpt lat="44.49293" lon="5.50579">
        <ele>1253.2</ele>
        <time>2021-09-07T11:20:15Z</time>
      </trkpt>
      <trkpt lat="44.49291" lon="5.50581">
        <ele>1253.1</ele>
        <time>2021-09-07T11:20:16Z</time>
      </trkpt>
      <trkpt lat="44.49288" lon="5.50584">
        <ele>1252.8</ele>
        <time>2021-09-07T11:20:17Z</time>
      </trkpt>
      <trkpt lat="44.49285" lon="5.50587">
        <ele>1252.6</ele>
        <time>2021-09-07T11:20:18Z</time>
      </trkpt>
      <trkpt lat="44.49283" lon="5.50589">
        <ele>1252.5</ele>
        <time>2021-09-07T11:20:19Z</time>
      </trkpt>
      <trkpt lat="44.4928" lon="5.50591">
        <ele>1252.4</ele>
        <time>2021-09-07T11:20:20Z</time>
      </trkpt>
      <trkpt lat="44.49277" lon="5.50593">
        <ele>1252.3</ele>
        <time>2021-09-07T11:20:21Z</time>
      </trkpt>
      <trkpt lat="44.49274" lon="5.50594">
        <ele>1252.2</ele>
        <time>2021-09-07T11:20:22Z</time>
      </trkpt>
      <trkpt lat="44.49271" lon="5.50595">
        <ele>1252.1</ele>
        <time>2021-09-07T11:20:23Z</time>
      </trkpt>
      <trkpt lat="44.49267" lon="5.50595">
        <ele>1251.9</ele>
        <time>2021-09-07T11:20:24Z</time>
      </trkpt>
      <trkpt lat="44.49266" lon="5.50595">
        <ele>1251.9</ele>
        <time>2021-09-07T11:20:25Z</time>
      </trkpt>
      <trkpt lat="44.49264" lon="5.50595">
        <ele>1251.9</ele>
        <time>2021-09-07T11:20:26Z</time>
      </trkpt>
      <trkpt lat="44.49262" lon="5.50595">
        <ele>1251.8</ele>
        <time>2021-09-07T11:20:27Z</time>
      </trkpt>
      <trkpt lat="44.4926" lon="5.50594">
        <ele>1251.8</ele>
        <time>2021-09-07T11:20:28Z</time>
      </trkpt>
      <trkpt lat="44.49257" lon="5.50593">
        <ele>1251.7</ele>
        <time>2021-09-07T11:20:29Z</time>
      </trkpt>
      <trkpt lat="44.49255" lon="5.50592">
        <ele>1251.7</ele>
        <time>2021-09-07T11:20:30Z</time>
      </trkpt>
      <trkpt lat="44.49254" lon="5.50591">
        <ele>1251.7</ele>
        <time>2021-09-07T11:20:31Z</time>
      </trkpt>
      <trkpt lat="44.49252" lon="5.5059">
        <ele>1251.7</ele>
        <time>2021-09-07T11:20:32Z</time>
      </trkpt>
      <trkpt lat="44.49251" lon="5.50589">
        <ele>1251.7</ele>
        <time>2021-09-07T11:20:33Z</time>
      </trkpt>
      <trkpt lat="44.4925" lon="5.50588">
        <ele>1251.7</ele>
        <time>2021-09-07T11:20:34Z</time>
      </trkpt>
      <trkpt lat="44.49249" lon="5.50587">
        <ele>1251.8</ele>
        <time>2021-09-07T11:20:35Z</time>
      </trkpt>
      <trkpt lat="44.49248" lon="5.50586">
        <ele>1251.8</ele>
        <time>2021-09-07T11:20:36Z</time>
      </trkpt>
      <trkpt lat="44.49249" lon="5.50586">
        <ele>1251.8</ele>
        <time>2021-09-07T11:20:37Z</time>
      </trkpt>
      <trkpt lat="44.4925" lon="5.50586">
        <ele>1251.8</ele>
        <time>2021-09-07T11:20:38Z</time>
      </trkpt>
      <trkpt lat="44.49251" lon="5.50587">
        <ele>1251.9</ele>
        <time>2021-09-07T11:20:39Z</time>
      </trkpt>
      <trkpt lat="44.49251" lon="5.50586">
        <ele>1251.9</ele>
        <time>2021-09-07T11:20:40Z</time>
      </trkpt>
      <trkpt lat="44.49251" lon="5.50586">
        <ele>1251.9</ele>
        <time>2021-09-07T11:20:41Z</time>
      </trkpt>
      <trkpt lat="44.49251" lon="5.50586">
        <ele>1251.9</ele>
        <time>2021-09-07T11:20:42Z</time>
      </trkpt>
      <trkpt lat="44.49251" lon="5.50585">
        <ele>1251.9</ele>
        <time>2021-09-07T11:20:43Z</time>
      </trkpt>
      <trkpt lat="44.49251" lon="5.50585">
        <ele>1251.9</ele>
        <time>2021-09-07T11:20:44Z</time>
      </trkpt>
      <trkpt lat="44.49251" lon="5.50585">
        <ele>1251.9</ele>
        <time>2021-09-07T11:20:45Z</time>
      </trkpt>
      <trkpt lat="44.49251" lon="5.50585">
        <ele>1251.9</ele>
        <time>2021-09-07T11:20:46Z</time>
      </trkpt>
      <trkpt lat="44.49252" lon="5.50585">
        <ele>1251.9</ele>
        <time>2021-09-07T11:20:47Z</time>
      </trkpt>
      <trkpt lat="44.49252" lon="5.50585">
        <ele>1251.9</ele>
        <time>2021-09-07T11:20:48Z</time>
      </trkpt>
      <trkpt lat="44.49252" lon="5.50584">
        <ele>1251.9</ele>
        <time>2021-09-07T11:20:49Z</time>
      </trkpt>
      <trkpt lat="44.49251" lon="5.50583">
        <ele>1252</ele>
        <time>2021-09-07T11:20:50Z</time>
      </trkpt>
      <trkpt lat="44.4925" lon="5.50581">
        <ele>1252.1</ele>
        <time>2021-09-07T11:20:51Z</time>
      </trkpt>
      <trkpt lat="44.4925" lon="5.50581">
        <ele>1252.1</ele>
        <time>2021-09-07T11:20:52Z</time>
      </trkpt>
      <trkpt lat="44.49249" lon="5.5058">
        <ele>1252.1</ele>
        <time>2021-09-07T11:20:53Z</time>
      </trkpt>
      <trkpt lat="44.49249" lon="5.50579">
        <ele>1252.2</ele>
        <time>2021-09-07T11:20:54Z</time>
      </trkpt>
      <trkpt lat="44.49248" lon="5.50578">
        <ele>1252.2</ele>
        <time>2021-09-07T11:20:55Z</time>
      </trkpt>
      <trkpt lat="44.49247" lon="5.50576">
        <ele>1252.3</ele>
        <time>2021-09-07T11:20:56Z</time>
      </trkpt>
      <trkpt lat="44.49246" lon="5.50575">
        <ele>1252.4</ele>
        <time>2021-09-07T11:20:57Z</time>
      </trkpt>
      <trkpt lat="44.49245" lon="5.50572">
        <ele>1252.5</ele>
        <time>2021-09-07T11:20:58Z</time>
      </trkpt>
      <trkpt lat="44.49244" lon="5.50571">
        <ele>1252.6</ele>
        <time>2021-09-07T11:20:59Z</time>
      </trkpt>
      <trkpt lat="44.49243" lon="5.50569">
        <ele>1252.8</ele>
        <time>2021-09-07T11:21:00Z</time>
      </trkpt>
      <trkpt lat="44.49241" lon="5.50566">
        <ele>1253</ele>
        <time>2021-09-07T11:21:01Z</time>
      </trkpt>
      <trkpt lat="44.4924" lon="5.50562">
        <ele>1253.3</ele>
        <time>2021-09-07T11:21:02Z</time>
      </trkpt>
      <trkpt lat="44.49239" lon="5.5056">
        <ele>1253.5</ele>
        <time>2021-09-07T11:21:03Z</time>
      </trkpt>
      <trkpt lat="44.49238" lon="5.50558">
        <ele>1253.7</ele>
        <time>2021-09-07T11:21:04Z</time>
      </trkpt>
      <trkpt lat="44.49237" lon="5.50555">
        <ele>1253.9</ele>
        <time>2021-09-07T11:21:05Z</time>
      </trkpt>
      <trkpt lat="44.49236" lon="5.50553">
        <ele>1254</ele>
        <time>2021-09-07T11:21:06Z</time>
      </trkpt>
      <trkpt lat="44.49235" lon="5.5055">
        <ele>1254.3</ele>
        <time>2021-09-07T11:21:07Z</time>
      </trkpt>
      <trkpt lat="44.49234" lon="5.50547">
        <ele>1254.5</ele>
        <time>2021-09-07T11:21:08Z</time>
      </trkpt>
      <trkpt lat="44.49233" lon="5.50545">
        <ele>1254.7</ele>
        <time>2021-09-07T11:21:09Z</time>
      </trkpt>
      <trkpt lat="44.49232" lon="5.50542">
        <ele>1254.9</ele>
        <time>2021-09-07T11:21:10Z</time>
      </trkpt>
      <trkpt lat="44.49231" lon="5.50539">
        <ele>1255.1</ele>
        <time>2021-09-07T11:21:11Z</time>
      </trkpt>
      <trkpt lat="44.4923" lon="5.50536">
        <ele>1255.3</ele>
        <time>2021-09-07T11:21:12Z</time>
      </trkpt>
      <trkpt lat="44.49228" lon="5.50533">
        <ele>1255.5</ele>
        <time>2021-09-07T11:21:13Z</time>
      </trkpt>
      <trkpt lat="44.49226" lon="5.50532">
        <ele>1255.7</ele>
        <time>2021-09-07T11:21:14Z</time>
      </trkpt>
      <trkpt lat="44.49224" lon="5.5053">
        <ele>1255.8</ele>
        <time>2021-09-07T11:21:15Z</time>
      </trkpt>
      <trkpt lat="44.49222" lon="5.50529">
        <ele>1255.9</ele>
        <time>2021-09-07T11:21:16Z</time>
      </trkpt>
      <trkpt lat="44.4922" lon="5.50528">
        <ele>1256</ele>
        <time>2021-09-07T11:21:17Z</time>
      </trkpt>
      <trkpt lat="44.49219" lon="5.50527">
        <ele>1256.1</ele>
        <time>2021-09-07T11:21:18Z</time>
      </trkpt>
      <trkpt lat="44.49218" lon="5.50526">
        <ele>1256.1</ele>
        <time>2021-09-07T11:21:19Z</time>
      </trkpt>
      <trkpt lat="44.49217" lon="5.50525">
        <ele>1256.2</ele>
        <time>2021-09-07T11:21:20Z</time>
      </trkpt>
      <trkpt lat="44.49215" lon="5.50523">
        <ele>1256.3</ele>
        <time>2021-09-07T11:21:21Z</time>
      </trkpt>
      <trkpt lat="44.49213" lon="5.50522">
        <ele>1256.3</ele>
        <time>2021-09-07T11:21:22Z</time>
      </trkpt>
      <trkpt lat="44.49212" lon="5.5052">
        <ele>1256.3</ele>
        <time>2021-09-07T11:21:23Z</time>
      </trkpt>
      <trkpt lat="44.49212" lon="5.50519">
        <ele>1256.2</ele>
        <time>2021-09-07T11:21:24Z</time>
      </trkpt>
      <trkpt lat="44.49211" lon="5.50518">
        <ele>1256.2</ele>
        <time>2021-09-07T11:21:25Z</time>
      </trkpt>
      <trkpt lat="44.49209" lon="5.50516">
        <ele>1256.2</ele>
        <time>2021-09-07T11:21:26Z</time>
      </trkpt>
      <trkpt lat="44.49209" lon="5.50516">
        <ele>1256.2</ele>
        <time>2021-09-07T11:21:27Z</time>
      </trkpt>
      <trkpt lat="44.49209" lon="5.50515">
        <ele>1256.1</ele>
        <time>2021-09-07T11:21:28Z</time>
      </trkpt>
      <trkpt lat="44.49208" lon="5.50515">
        <ele>1256.1</ele>
        <time>2021-09-07T11:21:29Z</time>
      </trkpt>
      <trkpt lat="44.49207" lon="5.50514">
        <ele>1256.1</ele>
        <time>2021-09-07T11:21:30Z</time>
      </trkpt>
      <trkpt lat="44.49206" lon="5.50512">
        <ele>1256</ele>
        <time>2021-09-07T11:21:31Z</time>
      </trkpt>
      <trkpt lat="44.49204" lon="5.5051">
        <ele>1255.9</ele>
        <time>2021-09-07T11:21:32Z</time>
      </trkpt>
      <trkpt lat="44.49204" lon="5.50509">
        <ele>1255.8</ele>
        <time>2021-09-07T11:21:33Z</time>
      </trkpt>
      <trkpt lat="44.49203" lon="5.50509">
        <ele>1255.8</ele>
        <time>2021-09-07T11:21:34Z</time>
      </trkpt>
      <trkpt lat="44.49203" lon="5.50509">
        <ele>1255.8</ele>
        <time>2021-09-07T11:21:35Z</time>
      </trkpt>
      <trkpt lat="44.49203" lon="5.50509">
        <ele>1255.8</ele>
        <time>2021-09-07T11:21:36Z</time>
      </trkpt>
      <trkpt lat="44.49203" lon="5.50508">
        <ele>1255.7</ele>
        <time>2021-09-07T11:21:37Z</time>
      </trkpt>
      <trkpt lat="44.49203" lon="5.50508">
        <ele>1255.7</ele>
        <time>2021-09-07T11:21:38Z</time>
      </trkpt>
      <trkpt lat="44.49203" lon="5.50507">
        <ele>1255.7</ele>
        <time>2021-09-07T11:21:39Z</time>
      </trkpt>
      <trkpt lat="44.49202" lon="5.50506">
        <ele>1255.6</ele>
        <time>2021-09-07T11:21:40Z</time>
      </trkpt>
      <trkpt lat="44.49202" lon="5.50506">
        <ele>1255.6</ele>
        <time>2021-09-07T11:21:41Z</time>
      </trkpt>
      <trkpt lat="44.49201" lon="5.50506">
        <ele>1255.5</ele>
        <time>2021-09-07T11:21:42Z</time>
      </trkpt>
      <trkpt lat="44.49201" lon="5.50506">
        <ele>1255.5</ele>
        <time>2021-09-07T11:21:43Z</time>
      </trkpt>
      <trkpt lat="44.49201" lon="5.50506">
        <ele>1255.5</ele>
        <time>2021-09-07T11:21:44Z</time>
      </trkpt>
      <trkpt lat="44.49201" lon="5.50506">
        <ele>1255.5</ele>
        <time>2021-09-07T11:21:45Z</time>
      </trkpt>
      <trkpt lat="44.492" lon="5.50505">
        <ele>1255.4</ele>
        <time>2021-09-07T11:21:46Z</time>
      </trkpt>
      <trkpt lat="44.492" lon="5.50505">
        <ele>1255.4</ele>
        <time>2021-09-07T11:21:47Z</time>
      </trkpt>
      <trkpt lat="44.492" lon="5.50505">
        <ele>1255.4</ele>
        <time>2021-09-07T11:21:48Z</time>
      </trkpt>
      <trkpt lat="44.492" lon="5.50505">
        <ele>1255.4</ele>
        <time>2021-09-07T11:21:49Z</time>
      </trkpt>
      <trkpt lat="44.49199" lon="5.50505">
        <ele>1255.4</ele>
        <time>2021-09-07T11:21:50Z</time>
      </trkpt>
      <trkpt lat="44.49199" lon="5.50505">
        <ele>1255.4</ele>
        <time>2021-09-07T11:21:51Z</time>
      </trkpt>
      <trkpt lat="44.49199" lon="5.50505">
        <ele>1255.4</ele>
        <time>2021-09-07T11:21:52Z</time>
      </trkpt>
      <trkpt lat="44.49198" lon="5.50505">
        <ele>1255.3</ele>
        <time>2021-09-07T11:21:53Z</time>
      </trkpt>
      <trkpt lat="44.49198" lon="5.50505">
        <ele>1255.3</ele>
        <time>2021-09-07T11:21:54Z</time>
      </trkpt>
      <trkpt lat="44.49198" lon="5.50505">
        <ele>1255.3</ele>
        <time>2021-09-07T11:21:55Z</time>
      </trkpt>
      <trkpt lat="44.49198" lon="5.50505">
        <ele>1255.3</ele>
        <time>2021-09-07T11:21:56Z</time>
      </trkpt>
      <trkpt lat="44.49198" lon="5.50505">
        <ele>1255.3</ele>
        <time>2021-09-07T11:21:57Z</time>
      </trkpt>
      <trkpt lat="44.49198" lon="5.50505">
        <ele>1255.3</ele>
        <time>2021-09-07T11:21:58Z</time>
      </trkpt>
      <trkpt lat="44.49198" lon="5.50505">
        <ele>1255.3</ele>
        <time>2021-09-07T11:21:59Z</time>
      </trkpt>
      <trkpt lat="44.49198" lon="5.50505">
        <ele>1255.3</ele>
        <time>2021-09-07T11:22:00Z</time>
      </trkpt>
      <trkpt lat="44.49198" lon="5.50505">
        <ele>1255.3</ele>
        <time>2021-09-07T11:22:01Z</time>
      </trkpt>
      <trkpt lat="44.49198" lon="5.50505">
        <ele>1255.3</ele>
        <time>2021-09-07T11:22:02Z</time>
      </trkpt>
      <trkpt lat="44.49198" lon="5.50505">
        <ele>1255.3</ele>
        <time>2021-09-07T11:22:03Z</time>
      </trkpt>
      <trkpt lat="44.49198" lon="5.50505">
        <ele>1255.3</ele>
        <time>2021-09-07T11:22:04Z</time>
      </trkpt>
      <trkpt lat="44.49198" lon="5.50505">
        <ele>1255.3</ele>
        <time>2021-09-07T11:22:05Z</time>
      </trkpt>
      <trkpt lat="44.49198" lon="5.50505">
        <ele>1255.3</ele>
        <time>2021-09-07T11:22:06Z</time>
      </trkpt>
      <trkpt lat="44.49198" lon="5.50505">
        <ele>1255.3</ele>
        <time>2021-09-07T11:22:07Z</time>
      </trkpt>
      <trkpt lat="44.49198" lon="5.50505">
        <ele>1255.3</ele>
        <time>2021-09-07T11:22:08Z</time>
      </trkpt>
      <trkpt lat="44.49198" lon="5.50505">
        <ele>1255.3</ele>
        <time>2021-09-07T11:22:09Z</time>
      </trkpt>
      <trkpt lat="44.49198" lon="5.50505">
        <ele>1255.3</ele>
        <time>2021-09-07T11:22:10Z</time>
      </trkpt>
      <trkpt lat="44.49198" lon="5.50505">
        <ele>1255.3</ele>
        <time>2021-09-07T11:22:11Z</time>
      </trkpt>
      <trkpt lat="44.49198" lon="5.50505">
        <ele>1255.3</ele>
        <time>2021-09-07T11:22:12Z</time>
      </trkpt>
      <trkpt lat="44.49197" lon="5.50505">
        <ele>1255.2</ele>
        <time>2021-09-07T11:22:13Z</time>
      </trkpt>
      <trkpt lat="44.49196" lon="5.50506">
        <ele>1255.1</ele>
        <time>2021-09-07T11:22:14Z</time>
      </trkpt>
      <trkpt lat="44.49195" lon="5.50507">
        <ele>1255</ele>
        <time>2021-09-07T11:22:15Z</time>
      </trkpt>
      <trkpt lat="44.49193" lon="5.50507">
        <ele>1254.8</ele>
        <time>2021-09-07T11:22:16Z</time>
      </trkpt>
      <trkpt lat="44.4919" lon="5.50507">
        <ele>1254.6</ele>
        <time>2021-09-07T11:22:17Z</time>
      </trkpt>
      <trkpt lat="44.49188" lon="5.50508">
        <ele>1254.4</ele>
        <time>2021-09-07T11:22:18Z</time>
      </trkpt>
      <trkpt lat="44.49186" lon="5.50508">
        <ele>1254.3</ele>
        <time>2021-09-07T11:22:19Z</time>
      </trkpt>
      <trkpt lat="44.49177" lon="5.50507">
        <ele>1253.6</ele>
        <time>2021-09-07T11:22:20Z</time>
      </trkpt>
      <trkpt lat="44.49171" lon="5.50505">
        <ele>1253.1</ele>
        <time>2021-09-07T11:22:21Z</time>
      </trkpt>
      <trkpt lat="44.49164" lon="5.50503">
        <ele>1252.4</ele>
        <time>2021-09-07T11:22:22Z</time>
      </trkpt>
      <trkpt lat="44.49158" lon="5.50507">
        <ele>1251.7</ele>
        <time>2021-09-07T11:22:23Z</time>
      </trkpt>
      <trkpt lat="44.49156" lon="5.50504">
        <ele>1251.3</ele>
        <time>2021-09-07T11:22:24Z</time>
      </trkpt>
      <trkpt lat="44.49153" lon="5.50501">
        <ele>1250.9</ele>
        <time>2021-09-07T11:22:25Z</time>
      </trkpt>
      <trkpt lat="44.49149" lon="5.50496">
        <ele>1250.1</ele>
        <time>2021-09-07T11:22:26Z</time>
      </trkpt>
      <trkpt lat="44.49143" lon="5.50492">
        <ele>1249</ele>
        <time>2021-09-07T11:22:27Z</time>
      </trkpt>
      <trkpt lat="44.4914" lon="5.50491">
        <ele>1248.6</ele>
        <time>2021-09-07T11:22:28Z</time>
      </trkpt>
      <trkpt lat="44.49137" lon="5.5049">
        <ele>1248.1</ele>
        <time>2021-09-07T11:22:29Z</time>
      </trkpt>
      <trkpt lat="44.49131" lon="5.5049">
        <ele>1247.1</ele>
        <time>2021-09-07T11:22:30Z</time>
      </trkpt>
      <trkpt lat="44.49126" lon="5.50492">
        <ele>1246.1</ele>
        <time>2021-09-07T11:22:31Z</time>
      </trkpt>
      <trkpt lat="44.49119" lon="5.50494">
        <ele>1244.7</ele>
        <time>2021-09-07T11:22:32Z</time>
      </trkpt>
      <trkpt lat="44.49116" lon="5.50495">
        <ele>1244.1</ele>
        <time>2021-09-07T11:22:33Z</time>
      </trkpt>
      <trkpt lat="44.49113" lon="5.50496">
        <ele>1243.4</ele>
        <time>2021-09-07T11:22:34Z</time>
      </trkpt>
      <trkpt lat="44.49106" lon="5.50499">
        <ele>1241.6</ele>
        <time>2021-09-07T11:22:35Z</time>
      </trkpt>
      <trkpt lat="44.49102" lon="5.505">
        <ele>1240.6</ele>
        <time>2021-09-07T11:22:36Z</time>
      </trkpt>
      <trkpt lat="44.49098" lon="5.50498">
        <ele>1239.4</ele>
        <time>2021-09-07T11:22:37Z</time>
      </trkpt>
      <trkpt lat="44.49095" lon="5.50498">
        <ele>1238.6</ele>
        <time>2021-09-07T11:22:38Z</time>
      </trkpt>
      <trkpt lat="44.49092" lon="5.50498">
        <ele>1237.8</ele>
        <time>2021-09-07T11:22:39Z</time>
      </trkpt>
      <trkpt lat="44.49088" lon="5.505">
        <ele>1236.8</ele>
        <time>2021-09-07T11:22:40Z</time>
      </trkpt>
      <trkpt lat="44.49085" lon="5.50501">
        <ele>1236</ele>
        <time>2021-09-07T11:22:41Z</time>
      </trkpt>
      <trkpt lat="44.49082" lon="5.505">
        <ele>1235.3</ele>
        <time>2021-09-07T11:22:42Z</time>
      </trkpt>
      <trkpt lat="44.4908" lon="5.50498">
        <ele>1234.8</ele>
        <time>2021-09-07T11:22:43Z</time>
      </trkpt>
      <trkpt lat="44.49077" lon="5.50491">
        <ele>1233.7</ele>
        <time>2021-09-07T11:22:44Z</time>
      </trkpt>
      <trkpt lat="44.49075" lon="5.50484">
        <ele>1232.7</ele>
        <time>2021-09-07T11:22:45Z</time>
      </trkpt>
      <trkpt lat="44.49072" lon="5.50476">
        <ele>1231.7</ele>
        <time>2021-09-07T11:22:46Z</time>
      </trkpt>
      <trkpt lat="44.4907" lon="5.50469">
        <ele>1230.8</ele>
        <time>2021-09-07T11:22:47Z</time>
      </trkpt>
      <trkpt lat="44.49068" lon="5.50463">
        <ele>1230</ele>
        <time>2021-09-07T11:22:48Z</time>
      </trkpt>
      <trkpt lat="44.49066" lon="5.50456">
        <ele>1228.9</ele>
        <time>2021-09-07T11:22:49Z</time>
      </trkpt>
      <trkpt lat="44.49063" lon="5.50448">
        <ele>1227.9</ele>
        <time>2021-09-07T11:22:50Z</time>
      </trkpt>
      <trkpt lat="44.49062" lon="5.50443">
        <ele>1227.1</ele>
        <time>2021-09-07T11:22:51Z</time>
      </trkpt>
      <trkpt lat="44.4906" lon="5.50438">
        <ele>1226.4</ele>
        <time>2021-09-07T11:22:52Z</time>
      </trkpt>
      <trkpt lat="44.49057" lon="5.50436">
        <ele>1225.7</ele>
        <time>2021-09-07T11:22:53Z</time>
      </trkpt>
      <trkpt lat="44.49056" lon="5.5043">
        <ele>1224.8</ele>
        <time>2021-09-07T11:22:54Z</time>
      </trkpt>
      <trkpt lat="44.49053" lon="5.50424">
        <ele>1223.6</ele>
        <time>2021-09-07T11:22:55Z</time>
      </trkpt>
      <trkpt lat="44.49051" lon="5.50419">
        <ele>1222.5</ele>
        <time>2021-09-07T11:22:56Z</time>
      </trkpt>
      <trkpt lat="44.4905" lon="5.50416">
        <ele>1221.8</ele>
        <time>2021-09-07T11:22:57Z</time>
      </trkpt>
      <trkpt lat="44.49048" lon="5.50412">
        <ele>1221.1</ele>
        <time>2021-09-07T11:22:58Z</time>
      </trkpt>
      <trkpt lat="44.49045" lon="5.50404">
        <ele>1219.5</ele>
        <time>2021-09-07T11:22:59Z</time>
      </trkpt>
      <trkpt lat="44.49043" lon="5.50398">
        <ele>1218.3</ele>
        <time>2021-09-07T11:23:00Z</time>
      </trkpt>
      <trkpt lat="44.49041" lon="5.50396">
        <ele>1217.7</ele>
        <time>2021-09-07T11:23:01Z</time>
      </trkpt>
      <trkpt lat="44.49039" lon="5.50391">
        <ele>1216.7</ele>
        <time>2021-09-07T11:23:02Z</time>
      </trkpt>
      <trkpt lat="44.49037" lon="5.50383">
        <ele>1215.2</ele>
        <time>2021-09-07T11:23:03Z</time>
      </trkpt>
      <trkpt lat="44.49036" lon="5.50377">
        <ele>1214</ele>
        <time>2021-09-07T11:23:04Z</time>
      </trkpt>
      <trkpt lat="44.49034" lon="5.50371">
        <ele>1212.9</ele>
        <time>2021-09-07T11:23:05Z</time>
      </trkpt>
      <trkpt lat="44.49032" lon="5.50364">
        <ele>1211.7</ele>
        <time>2021-09-07T11:23:06Z</time>
      </trkpt>
      <trkpt lat="44.49031" lon="5.50357">
        <ele>1210.4</ele>
        <time>2021-09-07T11:23:07Z</time>
      </trkpt>
      <trkpt lat="44.49029" lon="5.5035">
        <ele>1209.3</ele>
        <time>2021-09-07T11:23:08Z</time>
      </trkpt>
      <trkpt lat="44.49028" lon="5.50343">
        <ele>1208</ele>
        <time>2021-09-07T11:23:09Z</time>
      </trkpt>
      <trkpt lat="44.49026" lon="5.50335">
        <ele>1206.9</ele>
        <time>2021-09-07T11:23:10Z</time>
      </trkpt>
      <trkpt lat="44.49025" lon="5.50328">
        <ele>1205.9</ele>
        <time>2021-09-07T11:23:11Z</time>
      </trkpt>
      <trkpt lat="44.49024" lon="5.5032">
        <ele>1204.9</ele>
        <time>2021-09-07T11:23:12Z</time>
      </trkpt>
      <trkpt lat="44.49024" lon="5.50314">
        <ele>1204.2</ele>
        <time>2021-09-07T11:23:13Z</time>
      </trkpt>
      <trkpt lat="44.49024" lon="5.50307">
        <ele>1203.4</ele>
        <time>2021-09-07T11:23:14Z</time>
      </trkpt>
      <trkpt lat="44.49024" lon="5.50301">
        <ele>1202.7</ele>
        <time>2021-09-07T11:23:15Z</time>
      </trkpt>
      <trkpt lat="44.49024" lon="5.50295">
        <ele>1201.9</ele>
        <time>2021-09-07T11:23:16Z</time>
      </trkpt>
      <trkpt lat="44.49023" lon="5.50287">
        <ele>1200.9</ele>
        <time>2021-09-07T11:23:17Z</time>
      </trkpt>
      <trkpt lat="44.49023" lon="5.5028">
        <ele>1200</ele>
        <time>2021-09-07T11:23:18Z</time>
      </trkpt>
      <trkpt lat="44.49022" lon="5.50272">
        <ele>1198.9</ele>
        <time>2021-09-07T11:23:19Z</time>
      </trkpt>
      <trkpt lat="44.49021" lon="5.50264">
        <ele>1197.7</ele>
        <time>2021-09-07T11:23:20Z</time>
      </trkpt>
      <trkpt lat="44.4902" lon="5.50258">
        <ele>1196.7</ele>
        <time>2021-09-07T11:23:21Z</time>
      </trkpt>
      <trkpt lat="44.49019" lon="5.50251">
        <ele>1195.5</ele>
        <time>2021-09-07T11:23:22Z</time>
      </trkpt>
      <trkpt lat="44.49018" lon="5.50248">
        <ele>1192.8</ele>
        <time>2021-09-07T11:23:23Z</time>
      </trkpt>
      <trkpt lat="44.49016" lon="5.50245">
        <ele>1192.2</ele>
        <time>2021-09-07T11:23:24Z</time>
      </trkpt>
      <trkpt lat="44.49014" lon="5.50243">
        <ele>1191.7</ele>
        <time>2021-09-07T11:23:25Z</time>
      </trkpt>
      <trkpt lat="44.49012" lon="5.50241">
        <ele>1191.3</ele>
        <time>2021-09-07T11:23:26Z</time>
      </trkpt>
      <trkpt lat="44.49011" lon="5.5024">
        <ele>1191.1</ele>
        <time>2021-09-07T11:23:27Z</time>
      </trkpt>
      <trkpt lat="44.4901" lon="5.50241">
        <ele>1191</ele>
        <time>2021-09-07T11:23:28Z</time>
      </trkpt>
      <trkpt lat="44.49008" lon="5.50242">
        <ele>1190.7</ele>
        <time>2021-09-07T11:23:29Z</time>
      </trkpt>
      <trkpt lat="44.49007" lon="5.50247">
        <ele>1190.3</ele>
        <time>2021-09-07T11:23:30Z</time>
      </trkpt>
      <trkpt lat="44.49006" lon="5.5025">
        <ele>1190</ele>
        <time>2021-09-07T11:23:31Z</time>
      </trkpt>
      <trkpt lat="44.49005" lon="5.50253">
        <ele>1189.7</ele>
        <time>2021-09-07T11:23:32Z</time>
      </trkpt>
      <trkpt lat="44.49004" lon="5.50257">
        <ele>1189.4</ele>
        <time>2021-09-07T11:23:33Z</time>
      </trkpt>
      <trkpt lat="44.49002" lon="5.5026">
        <ele>1189</ele>
        <time>2021-09-07T11:23:34Z</time>
      </trkpt>
      <trkpt lat="44.49" lon="5.50266">
        <ele>1188.4</ele>
        <time>2021-09-07T11:23:35Z</time>
      </trkpt>
      <trkpt lat="44.48998" lon="5.50272">
        <ele>1187.8</ele>
        <time>2021-09-07T11:23:36Z</time>
      </trkpt>
      <trkpt lat="44.48996" lon="5.50277">
        <ele>1187.2</ele>
        <time>2021-09-07T11:23:37Z</time>
      </trkpt>
      <trkpt lat="44.48994" lon="5.50282">
        <ele>1186.7</ele>
        <time>2021-09-07T11:23:38Z</time>
      </trkpt>
      <trkpt lat="44.4899" lon="5.50289">
        <ele>1185.8</ele>
        <time>2021-09-07T11:23:39Z</time>
      </trkpt>
      <trkpt lat="44.48988" lon="5.50292">
        <ele>1185.4</ele>
        <time>2021-09-07T11:23:40Z</time>
      </trkpt>
      <trkpt lat="44.48986" lon="5.50294">
        <ele>1185.1</ele>
        <time>2021-09-07T11:23:41Z</time>
      </trkpt>
      <trkpt lat="44.48981" lon="5.50304">
        <ele>1184.1</ele>
        <time>2021-09-07T11:23:42Z</time>
      </trkpt>
      <trkpt lat="44.48979" lon="5.50312">
        <ele>1183.6</ele>
        <time>2021-09-07T11:23:43Z</time>
      </trkpt>
      <trkpt lat="44.48976" lon="5.50319">
        <ele>1183.1</ele>
        <time>2021-09-07T11:23:44Z</time>
      </trkpt>
      <trkpt lat="44.48974" lon="5.50325">
        <ele>1182.8</ele>
        <time>2021-09-07T11:23:45Z</time>
      </trkpt>
      <trkpt lat="44.48971" lon="5.50331">
        <ele>1182.4</ele>
        <time>2021-09-07T11:23:46Z</time>
      </trkpt>
      <trkpt lat="44.48968" lon="5.50337">
        <ele>1181.9</ele>
        <time>2021-09-07T11:23:47Z</time>
      </trkpt>
      <trkpt lat="44.48965" lon="5.50343">
        <ele>1181.5</ele>
        <time>2021-09-07T11:23:48Z</time>
      </trkpt>
      <trkpt lat="44.48963" lon="5.50349">
        <ele>1181.1</ele>
        <time>2021-09-07T11:23:49Z</time>
      </trkpt>
      <trkpt lat="44.48961" lon="5.50355">
        <ele>1180.6</ele>
        <time>2021-09-07T11:23:50Z</time>
      </trkpt>
      <trkpt lat="44.48959" lon="5.50361">
        <ele>1180.1</ele>
        <time>2021-09-07T11:23:51Z</time>
      </trkpt>
      <trkpt lat="44.48956" lon="5.50367">
        <ele>1179.5</ele>
        <time>2021-09-07T11:23:52Z</time>
      </trkpt>
      <trkpt lat="44.48954" lon="5.50373">
        <ele>1178.8</ele>
        <time>2021-09-07T11:23:53Z</time>
      </trkpt>
      <trkpt lat="44.48951" lon="5.50378">
        <ele>1178.2</ele>
        <time>2021-09-07T11:23:54Z</time>
      </trkpt>
      <trkpt lat="44.48949" lon="5.50383">
        <ele>1177.7</ele>
        <time>2021-09-07T11:23:55Z</time>
      </trkpt>
      <trkpt lat="44.48947" lon="5.50387">
        <ele>1177.3</ele>
        <time>2021-09-07T11:23:56Z</time>
      </trkpt>
      <trkpt lat="44.48945" lon="5.50391">
        <ele>1176.8</ele>
        <time>2021-09-07T11:23:57Z</time>
      </trkpt>
      <trkpt lat="44.48942" lon="5.50395">
        <ele>1176.4</ele>
        <time>2021-09-07T11:23:58Z</time>
      </trkpt>
      <trkpt lat="44.4894" lon="5.50406">
        <ele>1175.2</ele>
        <time>2021-09-07T11:23:59Z</time>
      </trkpt>
      <trkpt lat="44.4894" lon="5.50409">
        <ele>1175</ele>
        <time>2021-09-07T11:24:00Z</time>
      </trkpt>
      <trkpt lat="44.48939" lon="5.50411">
        <ele>1174.7</ele>
        <time>2021-09-07T11:24:01Z</time>
      </trkpt>
      <trkpt lat="44.48937" lon="5.50416">
        <ele>1174.1</ele>
        <time>2021-09-07T11:24:02Z</time>
      </trkpt>
      <trkpt lat="44.48936" lon="5.5042">
        <ele>1173.6</ele>
        <time>2021-09-07T11:24:03Z</time>
      </trkpt>
      <trkpt lat="44.48935" lon="5.50424">
        <ele>1173.2</ele>
        <time>2021-09-07T11:24:04Z</time>
      </trkpt>
      <trkpt lat="44.48932" lon="5.50429">
        <ele>1172.5</ele>
        <time>2021-09-07T11:24:05Z</time>
      </trkpt>
      <trkpt lat="44.48931" lon="5.50432">
        <ele>1172.2</ele>
        <time>2021-09-07T11:24:06Z</time>
      </trkpt>
      <trkpt lat="44.4893" lon="5.50435">
        <ele>1171.9</ele>
        <time>2021-09-07T11:24:07Z</time>
      </trkpt>
      <trkpt lat="44.48928" lon="5.50441">
        <ele>1171.2</ele>
        <time>2021-09-07T11:24:08Z</time>
      </trkpt>
      <trkpt lat="44.48925" lon="5.50447">
        <ele>1170.5</ele>
        <time>2021-09-07T11:24:09Z</time>
      </trkpt>
      <trkpt lat="44.48924" lon="5.50451">
        <ele>1170.1</ele>
        <time>2021-09-07T11:24:10Z</time>
      </trkpt>
      <trkpt lat="44.48923" lon="5.50454">
        <ele>1169.7</ele>
        <time>2021-09-07T11:24:11Z</time>
      </trkpt>
      <trkpt lat="44.48918" lon="5.50461">
        <ele>1168.7</ele>
        <time>2021-09-07T11:24:12Z</time>
      </trkpt>
      <trkpt lat="44.48915" lon="5.50468">
        <ele>1167.8</ele>
        <time>2021-09-07T11:24:13Z</time>
      </trkpt>
      <trkpt lat="44.48912" lon="5.50474">
        <ele>1167.1</ele>
        <time>2021-09-07T11:24:14Z</time>
      </trkpt>
      <trkpt lat="44.4891" lon="5.50481">
        <ele>1166.3</ele>
        <time>2021-09-07T11:24:15Z</time>
      </trkpt>
      <trkpt lat="44.48908" lon="5.50488">
        <ele>1165.4</ele>
        <time>2021-09-07T11:24:16Z</time>
      </trkpt>
      <trkpt lat="44.48905" lon="5.50495">
        <ele>1164.4</ele>
        <time>2021-09-07T11:24:17Z</time>
      </trkpt>
      <trkpt lat="44.48902" lon="5.50501">
        <ele>1163.4</ele>
        <time>2021-09-07T11:24:18Z</time>
      </trkpt>
      <trkpt lat="44.48898" lon="5.50506">
        <ele>1162.5</ele>
        <time>2021-09-07T11:24:19Z</time>
      </trkpt>
      <trkpt lat="44.48893" lon="5.50508">
        <ele>1161.5</ele>
        <time>2021-09-07T11:24:20Z</time>
      </trkpt>
      <trkpt lat="44.4889" lon="5.50512">
        <ele>1160.8</ele>
        <time>2021-09-07T11:24:21Z</time>
      </trkpt>
      <trkpt lat="44.48887" lon="5.50515">
        <ele>1160.1</ele>
        <time>2021-09-07T11:24:22Z</time>
      </trkpt>
      <trkpt lat="44.48883" lon="5.50519">
        <ele>1159.2</ele>
        <time>2021-09-07T11:24:23Z</time>
      </trkpt>
      <trkpt lat="44.48878" lon="5.50521">
        <ele>1158.3</ele>
        <time>2021-09-07T11:24:24Z</time>
      </trkpt>
      <trkpt lat="44.48873" lon="5.50526">
        <ele>1157.1</ele>
        <time>2021-09-07T11:24:25Z</time>
      </trkpt>
      <trkpt lat="44.48867" lon="5.50531">
        <ele>1155.9</ele>
        <time>2021-09-07T11:24:26Z</time>
      </trkpt>
      <trkpt lat="44.48862" lon="5.50536">
        <ele>1154.7</ele>
        <time>2021-09-07T11:24:27Z</time>
      </trkpt>
      <trkpt lat="44.48857" lon="5.50541">
        <ele>1153.5</ele>
        <time>2021-09-07T11:24:28Z</time>
      </trkpt>
      <trkpt lat="44.48853" lon="5.50545">
        <ele>1152.6</ele>
        <time>2021-09-07T11:24:29Z</time>
      </trkpt>
      <trkpt lat="44.48849" lon="5.5055">
        <ele>1151.7</ele>
        <time>2021-09-07T11:24:30Z</time>
      </trkpt>
      <trkpt lat="44.48846" lon="5.50555">
        <ele>1150.9</ele>
        <time>2021-09-07T11:24:31Z</time>
      </trkpt>
      <trkpt lat="44.48842" lon="5.5056">
        <ele>1150</ele>
        <time>2021-09-07T11:24:32Z</time>
      </trkpt>
      <trkpt lat="44.48839" lon="5.50564">
        <ele>1149.3</ele>
        <time>2021-09-07T11:24:33Z</time>
      </trkpt>
      <trkpt lat="44.48837" lon="5.50567">
        <ele>1148.7</ele>
        <time>2021-09-07T11:24:34Z</time>
      </trkpt>
      <trkpt lat="44.48834" lon="5.5057">
        <ele>1148.1</ele>
        <time>2021-09-07T11:24:35Z</time>
      </trkpt>
      <trkpt lat="44.48833" lon="5.50575">
        <ele>1147.4</ele>
        <time>2021-09-07T11:24:36Z</time>
      </trkpt>
      <trkpt lat="44.48831" lon="5.50581">
        <ele>1146.6</ele>
        <time>2021-09-07T11:24:37Z</time>
      </trkpt>
      <trkpt lat="44.48829" lon="5.50585">
        <ele>1146</ele>
        <time>2021-09-07T11:24:38Z</time>
      </trkpt>
      <trkpt lat="44.48828" lon="5.50588">
        <ele>1145.6</ele>
        <time>2021-09-07T11:24:39Z</time>
      </trkpt>
      <trkpt lat="44.48826" lon="5.5059">
        <ele>1145.2</ele>
        <time>2021-09-07T11:24:40Z</time>
      </trkpt>
      <trkpt lat="44.48824" lon="5.50594">
        <ele>1144.6</ele>
        <time>2021-09-07T11:24:41Z</time>
      </trkpt>
      <trkpt lat="44.48823" lon="5.50598">
        <ele>1144</ele>
        <time>2021-09-07T11:24:42Z</time>
      </trkpt>
      <trkpt lat="44.48824" lon="5.506">
        <ele>1143.8</ele>
        <time>2021-09-07T11:24:43Z</time>
      </trkpt>
      <trkpt lat="44.48824" lon="5.50602">
        <ele>1145.8</ele>
        <time>2021-09-07T11:24:44Z</time>
      </trkpt>
      <trkpt lat="44.48824" lon="5.50601">
        <ele>1143.7</ele>
        <time>2021-09-07T11:24:45Z</time>
      </trkpt>
      <trkpt lat="44.48823" lon="5.506">
        <ele>1143.6</ele>
        <time>2021-09-07T11:24:46Z</time>
      </trkpt>
      <trkpt lat="44.48824" lon="5.50599">
        <ele>1144.8</ele>
        <time>2021-09-07T11:24:47Z</time>
      </trkpt>
      <trkpt lat="44.48824" lon="5.50599">
        <ele>1144.7</ele>
        <time>2021-09-07T11:24:48Z</time>
      </trkpt>
      <trkpt lat="44.48824" lon="5.50599">
        <ele>1144.7</ele>
        <time>2021-09-07T11:24:49Z</time>
      </trkpt>
      <trkpt lat="44.48824" lon="5.50599">
        <ele>1144.6</ele>
        <time>2021-09-07T11:24:50Z</time>
      </trkpt>
      <trkpt lat="44.48824" lon="5.50599">
        <ele>1144.6</ele>
        <time>2021-09-07T11:24:51Z</time>
      </trkpt>
      <trkpt lat="44.48824" lon="5.50599">
        <ele>1144.5</ele>
        <time>2021-09-07T11:24:52Z</time>
      </trkpt>
      <trkpt lat="44.48824" lon="5.50599">
        <ele>1144.5</ele>
        <time>2021-09-07T11:24:53Z</time>
      </trkpt>
      <trkpt lat="44.48824" lon="5.50599">
        <ele>1144.4</ele>
        <time>2021-09-07T11:24:54Z</time>
      </trkpt>
      <trkpt lat="44.48824" lon="5.50599">
        <ele>1144.4</ele>
        <time>2021-09-07T11:24:55Z</time>
      </trkpt>
      <trkpt lat="44.48824" lon="5.50599">
        <ele>1144.3</ele>
        <time>2021-09-07T11:24:56Z</time>
      </trkpt>
      <trkpt lat="44.48824" lon="5.50599">
        <ele>1144.3</ele>
        <time>2021-09-07T11:24:57Z</time>
      </trkpt>
      <trkpt lat="44.48824" lon="5.50599">
        <ele>1144.2</ele>
        <time>2021-09-07T11:24:58Z</time>
      </trkpt>
      <trkpt lat="44.48824" lon="5.50599">
        <ele>1144.2</ele>
        <time>2021-09-07T11:24:59Z</time>
      </trkpt>
      <trkpt lat="44.48824" lon="5.50599">
        <ele>1144.1</ele>
        <time>2021-09-07T11:25:00Z</time>
      </trkpt>
      <trkpt lat="44.48824" lon="5.50599">
        <ele>1144.1</ele>
        <time>2021-09-07T11:25:01Z</time>
      </trkpt>
      <trkpt lat="44.48824" lon="5.50599">
        <ele>1144</ele>
        <time>2021-09-07T11:25:02Z</time>
      </trkpt>
      <trkpt lat="44.48824" lon="5.50599">
        <ele>1144</ele>
        <time>2021-09-07T11:25:03Z</time>
      </trkpt>
      <trkpt lat="44.48824" lon="5.50599">
        <ele>1143.9</ele>
        <time>2021-09-07T11:25:04Z</time>
      </trkpt>
      <trkpt lat="44.48825" lon="5.50599">
        <ele>1143.9</ele>
        <time>2021-09-07T11:25:05Z</time>
      </trkpt>
      <trkpt lat="44.48826" lon="5.50599">
        <ele>1143.8</ele>
        <time>2021-09-07T11:25:06Z</time>
      </trkpt>
      <trkpt lat="44.48826" lon="5.50598">
        <ele>1143.8</ele>
        <time>2021-09-07T11:25:07Z</time>
      </trkpt>
      <trkpt lat="44.48828" lon="5.50597">
        <ele>1145.9</ele>
        <time>2021-09-07T11:25:08Z</time>
      </trkpt>
      <trkpt lat="44.48832" lon="5.50595">
        <ele>1147.2</ele>
        <time>2021-09-07T11:25:09Z</time>
      </trkpt>
      <trkpt lat="44.48836" lon="5.50593">
        <ele>1149.3</ele>
        <time>2021-09-07T11:25:10Z</time>
      </trkpt>
      <trkpt lat="44.48839" lon="5.50591">
        <ele>1151.3</ele>
        <time>2021-09-07T11:25:11Z</time>
      </trkpt>
      <trkpt lat="44.48841" lon="5.50589">
        <ele>1152.2</ele>
        <time>2021-09-07T11:25:12Z</time>
      </trkpt>
      <trkpt lat="44.48843" lon="5.50588">
        <ele>1153.9</ele>
        <time>2021-09-07T11:25:13Z</time>
      </trkpt>
      <trkpt lat="44.48845" lon="5.50586">
        <ele>1152.9</ele>
        <time>2021-09-07T11:25:14Z</time>
      </trkpt>
      <trkpt lat="44.48847" lon="5.50586">
        <ele>1154.5</ele>
        <time>2021-09-07T11:25:15Z</time>
      </trkpt>
      <trkpt lat="44.48847" lon="5.50586">
        <ele>1154.5</ele>
        <time>2021-09-07T11:25:16Z</time>
      </trkpt>
      <trkpt lat="44.48847" lon="5.50587">
        <ele>1154.4</ele>
        <time>2021-09-07T11:25:17Z</time>
      </trkpt>
      <trkpt lat="44.48847" lon="5.50587">
        <ele>1155.3</ele>
        <time>2021-09-07T11:25:18Z</time>
      </trkpt>
      <trkpt lat="44.48848" lon="5.50587">
        <ele>1155.2</ele>
        <time>2021-09-07T11:25:19Z</time>
      </trkpt>
      <trkpt lat="44.48848" lon="5.50587">
        <ele>1155.2</ele>
        <time>2021-09-07T11:25:20Z</time>
      </trkpt>
      <trkpt lat="44.48848" lon="5.50588">
        <ele>1155.1</ele>
        <time>2021-09-07T11:25:21Z</time>
      </trkpt>
      <trkpt lat="44.48848" lon="5.50588">
        <ele>1155.1</ele>
        <time>2021-09-07T11:25:22Z</time>
      </trkpt>
      <trkpt lat="44.48849" lon="5.50588">
        <ele>1156.6</ele>
        <time>2021-09-07T11:25:23Z</time>
      </trkpt>
      <trkpt lat="44.48849" lon="5.50589">
        <ele>1156.6</ele>
        <time>2021-09-07T11:25:24Z</time>
      </trkpt>
      <trkpt lat="44.48849" lon="5.50589">
        <ele>1156.5</ele>
        <time>2021-09-07T11:25:25Z</time>
      </trkpt>
      <trkpt lat="44.48849" lon="5.50589">
        <ele>1156.5</ele>
        <time>2021-09-07T11:25:26Z</time>
      </trkpt>
      <trkpt lat="44.4885" lon="5.5059">
        <ele>1156.4</ele>
        <time>2021-09-07T11:25:27Z</time>
      </trkpt>
      <trkpt lat="44.4885" lon="5.5059">
        <ele>1156.4</ele>
        <time>2021-09-07T11:25:28Z</time>
      </trkpt>
      <trkpt lat="44.4885" lon="5.5059">
        <ele>1156.3</ele>
        <time>2021-09-07T11:25:29Z</time>
      </trkpt>
      <trkpt lat="44.4885" lon="5.50591">
        <ele>1156.3</ele>
        <time>2021-09-07T11:25:30Z</time>
      </trkpt>
      <trkpt lat="44.48851" lon="5.50591">
        <ele>1156.2</ele>
        <time>2021-09-07T11:25:31Z</time>
      </trkpt>
      <trkpt lat="44.48851" lon="5.50591">
        <ele>1157.1</ele>
        <time>2021-09-07T11:25:32Z</time>
      </trkpt>
      <trkpt lat="44.48851" lon="5.50592">
        <ele>1157</ele>
        <time>2021-09-07T11:25:33Z</time>
      </trkpt>
      <trkpt lat="44.48851" lon="5.50592">
        <ele>1157</ele>
        <time>2021-09-07T11:25:34Z</time>
      </trkpt>
      <trkpt lat="44.48852" lon="5.50592">
        <ele>1156.9</ele>
        <time>2021-09-07T11:25:35Z</time>
      </trkpt>
      <trkpt lat="44.48852" lon="5.50593">
        <ele>1158.5</ele>
        <time>2021-09-07T11:25:36Z</time>
      </trkpt>
      <trkpt lat="44.48852" lon="5.50593">
        <ele>1158.4</ele>
        <time>2021-09-07T11:25:37Z</time>
      </trkpt>
      <trkpt lat="44.48852" lon="5.50593">
        <ele>1158.4</ele>
        <time>2021-09-07T11:25:38Z</time>
      </trkpt>
      <trkpt lat="44.48852" lon="5.50594">
        <ele>1158.3</ele>
        <time>2021-09-07T11:25:39Z</time>
      </trkpt>
      <trkpt lat="44.48853" lon="5.50594">
        <ele>1158.3</ele>
        <time>2021-09-07T11:25:40Z</time>
      </trkpt>
      <trkpt lat="44.48853" lon="5.50594">
        <ele>1158.2</ele>
        <time>2021-09-07T11:25:41Z</time>
      </trkpt>
      <trkpt lat="44.48853" lon="5.50594">
        <ele>1158.2</ele>
        <time>2021-09-07T11:25:42Z</time>
      </trkpt>
      <trkpt lat="44.48853" lon="5.50595">
        <ele>1158.1</ele>
        <time>2021-09-07T11:25:43Z</time>
      </trkpt>
      <trkpt lat="44.48854" lon="5.50595">
        <ele>1158.1</ele>
        <time>2021-09-07T11:25:44Z</time>
      </trkpt>
      <trkpt lat="44.48854" lon="5.50595">
        <ele>1158.9</ele>
        <time>2021-09-07T11:25:45Z</time>
      </trkpt>
      <trkpt lat="44.48854" lon="5.50596">
        <ele>1158.9</ele>
        <time>2021-09-07T11:25:46Z</time>
      </trkpt>
      <trkpt lat="44.48854" lon="5.50596">
        <ele>1158.8</ele>
        <time>2021-09-07T11:25:47Z</time>
      </trkpt>
      <trkpt lat="44.48855" lon="5.50596">
        <ele>1158.8</ele>
        <time>2021-09-07T11:25:48Z</time>
      </trkpt>
      <trkpt lat="44.48855" lon="5.50597">
        <ele>1160.4</ele>
        <time>2021-09-07T11:25:49Z</time>
      </trkpt>
      <trkpt lat="44.48855" lon="5.50597">
        <ele>1160.3</ele>
        <time>2021-09-07T11:25:50Z</time>
      </trkpt>
      <trkpt lat="44.48853" lon="5.50603">
        <ele>1159.5</ele>
        <time>2021-09-07T11:25:51Z</time>
      </trkpt>
      <trkpt lat="44.48851" lon="5.50608">
        <ele>1158.6</ele>
        <time>2021-09-07T11:25:52Z</time>
      </trkpt>
      <trkpt lat="44.48848" lon="5.50617">
        <ele>1159.2</ele>
        <time>2021-09-07T11:25:53Z</time>
      </trkpt>
      <trkpt lat="44.48844" lon="5.50629">
        <ele>1159</ele>
        <time>2021-09-07T11:25:54Z</time>
      </trkpt>
      <trkpt lat="44.48843" lon="5.50634">
        <ele>1159.6</ele>
        <time>2021-09-07T11:25:55Z</time>
      </trkpt>
      <trkpt lat="44.48842" lon="5.50638">
        <ele>1158.5</ele>
        <time>2021-09-07T11:25:56Z</time>
      </trkpt>
      <trkpt lat="44.4884" lon="5.50646">
        <ele>1159.6</ele>
        <time>2021-09-07T11:25:57Z</time>
      </trkpt>
      <trkpt lat="44.48838" lon="5.50654">
        <ele>1158.5</ele>
        <time>2021-09-07T11:25:58Z</time>
      </trkpt>
      <trkpt lat="44.48838" lon="5.50658">
        <ele>1158.9</ele>
        <time>2021-09-07T11:25:59Z</time>
      </trkpt>
      <trkpt lat="44.48837" lon="5.50661">
        <ele>1159.2</ele>
        <time>2021-09-07T11:26:00Z</time>
      </trkpt>
      <trkpt lat="44.48836" lon="5.50666">
        <ele>1157.3</ele>
        <time>2021-09-07T11:26:01Z</time>
      </trkpt>
      <trkpt lat="44.48835" lon="5.5067">
        <ele>1157.6</ele>
        <time>2021-09-07T11:26:02Z</time>
      </trkpt>
      <trkpt lat="44.48834" lon="5.50674">
        <ele>1157.9</ele>
        <time>2021-09-07T11:26:03Z</time>
      </trkpt>
      <trkpt lat="44.48832" lon="5.50679">
        <ele>1155.8</ele>
        <time>2021-09-07T11:26:04Z</time>
      </trkpt>
      <trkpt lat="44.48831" lon="5.50683">
        <ele>1156.1</ele>
        <time>2021-09-07T11:26:05Z</time>
      </trkpt>
      <trkpt lat="44.48829" lon="5.50687">
        <ele>1153.9</ele>
        <time>2021-09-07T11:26:06Z</time>
      </trkpt>
      <trkpt lat="44.48827" lon="5.50692">
        <ele>1151.7</ele>
        <time>2021-09-07T11:26:07Z</time>
      </trkpt>
      <trkpt lat="44.48824" lon="5.50699">
        <ele>1152.2</ele>
        <time>2021-09-07T11:26:08Z</time>
      </trkpt>
      <trkpt lat="44.48822" lon="5.50704">
        <ele>1150.2</ele>
        <time>2021-09-07T11:26:09Z</time>
      </trkpt>
      <trkpt lat="44.48819" lon="5.50708">
        <ele>1148.2</ele>
        <time>2021-09-07T11:26:10Z</time>
      </trkpt>
      <trkpt lat="44.48817" lon="5.50712">
        <ele>1146.2</ele>
        <time>2021-09-07T11:26:11Z</time>
      </trkpt>
      <trkpt lat="44.48815" lon="5.50716">
        <ele>1146.4</ele>
        <time>2021-09-07T11:26:12Z</time>
      </trkpt>
      <trkpt lat="44.48815" lon="5.50722">
        <ele>1146.7</ele>
        <time>2021-09-07T11:26:13Z</time>
      </trkpt>
      <trkpt lat="44.48813" lon="5.50725">
        <ele>1144.6</ele>
        <time>2021-09-07T11:26:14Z</time>
      </trkpt>
      <trkpt lat="44.4881" lon="5.50728">
        <ele>1142</ele>
        <time>2021-09-07T11:26:15Z</time>
      </trkpt>
      <trkpt lat="44.48803" lon="5.50734">
        <ele>1137</ele>
        <time>2021-09-07T11:26:16Z</time>
      </trkpt>
      <trkpt lat="44.48799" lon="5.50739">
        <ele>1132</ele>
        <time>2021-09-07T11:26:17Z</time>
      </trkpt>
      <trkpt lat="44.48795" lon="5.50743">
        <ele>1129.9</ele>
        <time>2021-09-07T11:26:18Z</time>
      </trkpt>
      <trkpt lat="44.48791" lon="5.50747">
        <ele>1127.9</ele>
        <time>2021-09-07T11:26:19Z</time>
      </trkpt>
      <trkpt lat="44.48784" lon="5.50753">
        <ele>1120.9</ele>
        <time>2021-09-07T11:26:20Z</time>
      </trkpt>
      <trkpt lat="44.48781" lon="5.50756">
        <ele>1118.7</ele>
        <time>2021-09-07T11:26:21Z</time>
      </trkpt>
      <trkpt lat="44.48778" lon="5.50758">
        <ele>1116.2</ele>
        <time>2021-09-07T11:26:22Z</time>
      </trkpt>
      <trkpt lat="44.4877" lon="5.50764">
        <ele>1112.5</ele>
        <time>2021-09-07T11:26:23Z</time>
      </trkpt>
      <trkpt lat="44.48766" lon="5.50768">
        <ele>1109</ele>
        <time>2021-09-07T11:26:24Z</time>
      </trkpt>
      <trkpt lat="44.48761" lon="5.50772">
        <ele>1107.5</ele>
        <time>2021-09-07T11:26:25Z</time>
      </trkpt>
      <trkpt lat="44.48755" lon="5.50777">
        <ele>1104.2</ele>
        <time>2021-09-07T11:26:26Z</time>
      </trkpt>
      <trkpt lat="44.48749" lon="5.50785">
        <ele>1101.5</ele>
        <time>2021-09-07T11:26:27Z</time>
      </trkpt>
      <trkpt lat="44.48746" lon="5.50791">
        <ele>1100.3</ele>
        <time>2021-09-07T11:26:28Z</time>
      </trkpt>
      <trkpt lat="44.48742" lon="5.50797">
        <ele>1099.8</ele>
        <time>2021-09-07T11:26:29Z</time>
      </trkpt>
      <trkpt lat="44.48737" lon="5.50803">
        <ele>1097.5</ele>
        <time>2021-09-07T11:26:30Z</time>
      </trkpt>
      <trkpt lat="44.48735" lon="5.50809">
        <ele>1096.8</ele>
        <time>2021-09-07T11:26:31Z</time>
      </trkpt>
      <trkpt lat="44.48733" lon="5.50812">
        <ele>1097.4</ele>
        <time>2021-09-07T11:26:32Z</time>
      </trkpt>
      <trkpt lat="44.4873" lon="5.50816">
        <ele>1096.8</ele>
        <time>2021-09-07T11:26:33Z</time>
      </trkpt>
      <trkpt lat="44.48727" lon="5.50821">
        <ele>1096.1</ele>
        <time>2021-09-07T11:26:34Z</time>
      </trkpt>
      <trkpt lat="44.48723" lon="5.50825">
        <ele>1095.4</ele>
        <time>2021-09-07T11:26:35Z</time>
      </trkpt>
      <trkpt lat="44.48725" lon="5.5083">
        <ele>1096</ele>
        <time>2021-09-07T11:26:36Z</time>
      </trkpt>
      <trkpt lat="44.48722" lon="5.50833">
        <ele>1095.1</ele>
        <time>2021-09-07T11:26:37Z</time>
      </trkpt>
      <trkpt lat="44.48719" lon="5.50835">
        <ele>1093.7</ele>
        <time>2021-09-07T11:26:38Z</time>
      </trkpt>
      <trkpt lat="44.48713" lon="5.5084">
        <ele>1092.5</ele>
        <time>2021-09-07T11:26:39Z</time>
      </trkpt>
      <trkpt lat="44.48706" lon="5.50845">
        <ele>1091.2</ele>
        <time>2021-09-07T11:26:40Z</time>
      </trkpt>
      <trkpt lat="44.487" lon="5.5085">
        <ele>1089.6</ele>
        <time>2021-09-07T11:26:41Z</time>
      </trkpt>
      <trkpt lat="44.48698" lon="5.50852">
        <ele>1088.2</ele>
        <time>2021-09-07T11:26:42Z</time>
      </trkpt>
      <trkpt lat="44.48695" lon="5.50854">
        <ele>1087.6</ele>
        <time>2021-09-07T11:26:43Z</time>
      </trkpt>
      <trkpt lat="44.48687" lon="5.50861">
        <ele>1085.8</ele>
        <time>2021-09-07T11:26:44Z</time>
      </trkpt>
      <trkpt lat="44.48685" lon="5.50864">
        <ele>1085.5</ele>
        <time>2021-09-07T11:26:45Z</time>
      </trkpt>
      <trkpt lat="44.48682" lon="5.50867">
        <ele>1085.1</ele>
        <time>2021-09-07T11:26:46Z</time>
      </trkpt>
      <trkpt lat="44.48677" lon="5.50871">
        <ele>1083.4</ele>
        <time>2021-09-07T11:26:47Z</time>
      </trkpt>
      <trkpt lat="44.48671" lon="5.50875">
        <ele>1082.7</ele>
        <time>2021-09-07T11:26:48Z</time>
      </trkpt>
      <trkpt lat="44.48666" lon="5.50877">
        <ele>1079.6</ele>
        <time>2021-09-07T11:26:49Z</time>
      </trkpt>
      <trkpt lat="44.4866" lon="5.50879">
        <ele>1077.3</ele>
        <time>2021-09-07T11:26:50Z</time>
      </trkpt>
      <trkpt lat="44.48653" lon="5.50882">
        <ele>1074.3</ele>
        <time>2021-09-07T11:26:51Z</time>
      </trkpt>
      <trkpt lat="44.48646" lon="5.50884">
        <ele>1070.3</ele>
        <time>2021-09-07T11:26:52Z</time>
      </trkpt>
      <trkpt lat="44.4864" lon="5.50888">
        <ele>1067.6</ele>
        <time>2021-09-07T11:26:53Z</time>
      </trkpt>
      <trkpt lat="44.48634" lon="5.50892">
        <ele>1064.8</ele>
        <time>2021-09-07T11:26:54Z</time>
      </trkpt>
      <trkpt lat="44.48629" lon="5.50896">
        <ele>1063.1</ele>
        <time>2021-09-07T11:26:55Z</time>
      </trkpt>
      <trkpt lat="44.48623" lon="5.50899">
        <ele>1060.6</ele>
        <time>2021-09-07T11:26:56Z</time>
      </trkpt>
      <trkpt lat="44.48618" lon="5.50902">
        <ele>1058.1</ele>
        <time>2021-09-07T11:26:57Z</time>
      </trkpt>
      <trkpt lat="44.48613" lon="5.50904">
        <ele>1056.2</ele>
        <time>2021-09-07T11:26:58Z</time>
      </trkpt>
      <trkpt lat="44.48608" lon="5.50906">
        <ele>1053.1</ele>
        <time>2021-09-07T11:26:59Z</time>
      </trkpt>
      <trkpt lat="44.48603" lon="5.50908">
        <ele>1049.6</ele>
        <time>2021-09-07T11:27:00Z</time>
      </trkpt>
      <trkpt lat="44.48599" lon="5.50909">
        <ele>1048.7</ele>
        <time>2021-09-07T11:27:01Z</time>
      </trkpt>
      <trkpt lat="44.48595" lon="5.5091">
        <ele>1047.2</ele>
        <time>2021-09-07T11:27:02Z</time>
      </trkpt>
      <trkpt lat="44.4859" lon="5.50912">
        <ele>1044</ele>
        <time>2021-09-07T11:27:03Z</time>
      </trkpt>
      <trkpt lat="44.48587" lon="5.50913">
        <ele>1042.8</ele>
        <time>2021-09-07T11:27:04Z</time>
      </trkpt>
      <trkpt lat="44.48584" lon="5.50915">
        <ele>1041</ele>
        <time>2021-09-07T11:27:05Z</time>
      </trkpt>
      <trkpt lat="44.48582" lon="5.50918">
        <ele>1039.7</ele>
        <time>2021-09-07T11:27:06Z</time>
      </trkpt>
      <trkpt lat="44.48579" lon="5.5092">
        <ele>1038</ele>
        <time>2021-09-07T11:27:07Z</time>
      </trkpt>
      <trkpt lat="44.48578" lon="5.50921">
        <ele>1037.9</ele>
        <time>2021-09-07T11:27:08Z</time>
      </trkpt>
      <trkpt lat="44.48577" lon="5.50922">
        <ele>1038.4</ele>
        <time>2021-09-07T11:27:09Z</time>
      </trkpt>
      <trkpt lat="44.48576" lon="5.50918">
        <ele>1037.8</ele>
        <time>2021-09-07T11:27:10Z</time>
      </trkpt>
      <trkpt lat="44.48575" lon="5.50918">
        <ele>1036.2</ele>
        <time>2021-09-07T11:27:11Z</time>
      </trkpt>
      <trkpt lat="44.48575" lon="5.50918">
        <ele>1036.1</ele>
        <time>2021-09-07T11:27:12Z</time>
      </trkpt>
      <trkpt lat="44.48575" lon="5.50918">
        <ele>1036.1</ele>
        <time>2021-09-07T11:27:13Z</time>
      </trkpt>
      <trkpt lat="44.48575" lon="5.50917">
        <ele>1035.5</ele>
        <time>2021-09-07T11:27:14Z</time>
      </trkpt>
      <trkpt lat="44.48575" lon="5.50917">
        <ele>1035.5</ele>
        <time>2021-09-07T11:27:15Z</time>
      </trkpt>
      <trkpt lat="44.48574" lon="5.50917">
        <ele>1035.4</ele>
        <time>2021-09-07T11:27:16Z</time>
      </trkpt>
      <trkpt lat="44.48574" lon="5.50917">
        <ele>1035.4</ele>
        <time>2021-09-07T11:27:17Z</time>
      </trkpt>
      <trkpt lat="44.48574" lon="5.50917">
        <ele>1035.3</ele>
        <time>2021-09-07T11:27:18Z</time>
      </trkpt>
      <trkpt lat="44.48574" lon="5.50917">
        <ele>1035.3</ele>
        <time>2021-09-07T11:27:19Z</time>
      </trkpt>
      <trkpt lat="44.48574" lon="5.50917">
        <ele>1035.2</ele>
        <time>2021-09-07T11:27:20Z</time>
      </trkpt>
      <trkpt lat="44.48574" lon="5.50917">
        <ele>1035.2</ele>
        <time>2021-09-07T11:27:21Z</time>
      </trkpt>
      <trkpt lat="44.48574" lon="5.50917">
        <ele>1035.1</ele>
        <time>2021-09-07T11:27:22Z</time>
      </trkpt>
      <trkpt lat="44.48574" lon="5.50917">
        <ele>1035.1</ele>
        <time>2021-09-07T11:27:23Z</time>
      </trkpt>
      <trkpt lat="44.48574" lon="5.50917">
        <ele>1035</ele>
        <time>2021-09-07T11:27:24Z</time>
      </trkpt>
      <trkpt lat="44.48574" lon="5.50917">
        <ele>1035</ele>
        <time>2021-09-07T11:27:25Z</time>
      </trkpt>
      <trkpt lat="44.48574" lon="5.50917">
        <ele>1034.9</ele>
        <time>2021-09-07T11:27:26Z</time>
      </trkpt>
      <trkpt lat="44.48574" lon="5.50917">
        <ele>1034.9</ele>
        <time>2021-09-07T11:27:27Z</time>
      </trkpt>
      <trkpt lat="44.48574" lon="5.50917">
        <ele>1034.8</ele>
        <time>2021-09-07T11:27:28Z</time>
      </trkpt>
      <trkpt lat="44.48574" lon="5.50917">
        <ele>1034.8</ele>
        <time>2021-09-07T11:27:29Z</time>
      </trkpt>
      <trkpt lat="44.48574" lon="5.50917">
        <ele>1034.7</ele>
        <time>2021-09-07T11:27:30Z</time>
      </trkpt>
      <trkpt lat="44.48574" lon="5.50917">
        <ele>1034.7</ele>
        <time>2021-09-07T11:27:31Z</time>
      </trkpt>
      <trkpt lat="44.48574" lon="5.50917">
        <ele>1034.6</ele>
        <time>2021-09-07T11:27:32Z</time>
      </trkpt>
      <trkpt lat="44.48574" lon="5.50917">
        <ele>1034.6</ele>
        <time>2021-09-07T11:27:33Z</time>
      </trkpt>
      <trkpt lat="44.48574" lon="5.50917">
        <ele>1034.5</ele>
        <time>2021-09-07T11:27:34Z</time>
      </trkpt>
      <trkpt lat="44.48574" lon="5.50917">
        <ele>1034.5</ele>
        <time>2021-09-07T11:27:35Z</time>
      </trkpt>
      <trkpt lat="44.48574" lon="5.50917">
        <ele>1034.4</ele>
        <time>2021-09-07T11:27:36Z</time>
      </trkpt>
      <trkpt lat="44.48574" lon="5.50917">
        <ele>1034.4</ele>
        <time>2021-09-07T11:27:37Z</time>
      </trkpt>
      <trkpt lat="44.48574" lon="5.50917">
        <ele>1034.3</ele>
        <time>2021-09-07T11:27:38Z</time>
      </trkpt>
      <trkpt lat="44.48574" lon="5.50917">
        <ele>1034.3</ele>
        <time>2021-09-07T11:27:39Z</time>
      </trkpt>
      <trkpt lat="44.48574" lon="5.50917">
        <ele>1034.2</ele>
        <time>2021-09-07T11:27:40Z</time>
      </trkpt>
      <trkpt lat="44.48573" lon="5.50917">
        <ele>1034.2</ele>
        <time>2021-09-07T11:27:41Z</time>
      </trkpt>
      <trkpt lat="44.48574" lon="5.50917">
        <ele>1034.1</ele>
        <time>2021-09-07T11:27:42Z</time>
      </trkpt>
      <trkpt lat="44.48574" lon="5.50917">
        <ele>1034.1</ele>
        <time>2021-09-07T11:27:43Z</time>
      </trkpt>
      <trkpt lat="44.48574" lon="5.50917">
        <ele>1034</ele>
        <time>2021-09-07T11:27:44Z</time>
      </trkpt>
      <trkpt lat="44.48574" lon="5.50917">
        <ele>1034</ele>
        <time>2021-09-07T11:27:45Z</time>
      </trkpt>
      <trkpt lat="44.48574" lon="5.50917">
        <ele>1033.9</ele>
        <time>2021-09-07T11:27:46Z</time>
      </trkpt>
      <trkpt lat="44.48574" lon="5.50917">
        <ele>1033.9</ele>
        <time>2021-09-07T11:27:47Z</time>
      </trkpt>
      <trkpt lat="44.48574" lon="5.50917">
        <ele>1033.8</ele>
        <time>2021-09-07T11:27:48Z</time>
      </trkpt>
      <trkpt lat="44.48574" lon="5.50917">
        <ele>1033.7</ele>
        <time>2021-09-07T11:27:49Z</time>
      </trkpt>
      <trkpt lat="44.48574" lon="5.50917">
        <ele>1033.7</ele>
        <time>2021-09-07T11:27:50Z</time>
      </trkpt>
      <trkpt lat="44.48574" lon="5.50917">
        <ele>1033.6</ele>
        <time>2021-09-07T11:27:51Z</time>
      </trkpt>
      <trkpt lat="44.48574" lon="5.50917">
        <ele>1033.6</ele>
        <time>2021-09-07T11:27:52Z</time>
      </trkpt>
      <trkpt lat="44.48574" lon="5.50917">
        <ele>1033.5</ele>
        <time>2021-09-07T11:27:53Z</time>
      </trkpt>
      <trkpt lat="44.48574" lon="5.50917">
        <ele>1033.5</ele>
        <time>2021-09-07T11:27:54Z</time>
      </trkpt>
      <trkpt lat="44.48574" lon="5.50917">
        <ele>1033.4</ele>
        <time>2021-09-07T11:27:55Z</time>
      </trkpt>
      <trkpt lat="44.48574" lon="5.50917">
        <ele>1033.4</ele>
        <time>2021-09-07T11:27:56Z</time>
      </trkpt>
      <trkpt lat="44.48574" lon="5.50916">
        <ele>1033.3</ele>
        <time>2021-09-07T11:27:57Z</time>
      </trkpt>
      <trkpt lat="44.48573" lon="5.50916">
        <ele>1033.3</ele>
        <time>2021-09-07T11:27:58Z</time>
      </trkpt>
      <trkpt lat="44.48573" lon="5.50916">
        <ele>1031.7</ele>
        <time>2021-09-07T11:27:59Z</time>
      </trkpt>
      <trkpt lat="44.48572" lon="5.50916">
        <ele>1031.7</ele>
        <time>2021-09-07T11:28:00Z</time>
      </trkpt>
      <trkpt lat="44.48571" lon="5.50916">
        <ele>1031.6</ele>
        <time>2021-09-07T11:28:01Z</time>
      </trkpt>
      <trkpt lat="44.48569" lon="5.50916">
        <ele>1030.1</ele>
        <time>2021-09-07T11:28:02Z</time>
      </trkpt>
      <trkpt lat="44.48567" lon="5.50918">
        <ele>1030.5</ele>
        <time>2021-09-07T11:28:03Z</time>
      </trkpt>
      <trkpt lat="44.48562" lon="5.50922">
        <ele>1027.5</ele>
        <time>2021-09-07T11:28:04Z</time>
      </trkpt>
      <trkpt lat="44.4856" lon="5.50925">
        <ele>1025.6</ele>
        <time>2021-09-07T11:28:05Z</time>
      </trkpt>
      <trkpt lat="44.48558" lon="5.50928">
        <ele>1025.9</ele>
        <time>2021-09-07T11:28:06Z</time>
      </trkpt>
      <trkpt lat="44.48554" lon="5.50932">
        <ele>1022.6</ele>
        <time>2021-09-07T11:28:07Z</time>
      </trkpt>
      <trkpt lat="44.48551" lon="5.50936">
        <ele>1021.2</ele>
        <time>2021-09-07T11:28:08Z</time>
      </trkpt>
      <trkpt lat="44.48547" lon="5.5094">
        <ele>1019.8</ele>
        <time>2021-09-07T11:28:09Z</time>
      </trkpt>
      <trkpt lat="44.48545" lon="5.50943">
        <ele>1018.6</ele>
        <time>2021-09-07T11:28:10Z</time>
      </trkpt>
      <trkpt lat="44.48543" lon="5.50943">
        <ele>1018.5</ele>
        <time>2021-09-07T11:28:11Z</time>
      </trkpt>
      <trkpt lat="44.48541" lon="5.50943">
        <ele>1016.9</ele>
        <time>2021-09-07T11:28:12Z</time>
      </trkpt>
      <trkpt lat="44.4854" lon="5.50944">
        <ele>1016.9</ele>
        <time>2021-09-07T11:28:13Z</time>
      </trkpt>
      <trkpt lat="44.48539" lon="5.50943">
        <ele>1015.3</ele>
        <time>2021-09-07T11:28:14Z</time>
      </trkpt>
      <trkpt lat="44.48539" lon="5.50943">
        <ele>1014.8</ele>
        <time>2021-09-07T11:28:15Z</time>
      </trkpt>
      <trkpt lat="44.48538" lon="5.50942">
        <ele>1014.7</ele>
        <time>2021-09-07T11:28:16Z</time>
      </trkpt>
      <trkpt lat="44.48537" lon="5.5094">
        <ele>1014.7</ele>
        <time>2021-09-07T11:28:17Z</time>
      </trkpt>
      <trkpt lat="44.48537" lon="5.50939">
        <ele>1014.6</ele>
        <time>2021-09-07T11:28:18Z</time>
      </trkpt>
      <trkpt lat="44.48536" lon="5.50938">
        <ele>1012.7</ele>
        <time>2021-09-07T11:28:19Z</time>
      </trkpt>
      <trkpt lat="44.48535" lon="5.50932">
        <ele>1012.3</ele>
        <time>2021-09-07T11:28:20Z</time>
      </trkpt>
      <trkpt lat="44.48534" lon="5.50929">
        <ele>1011.9</ele>
        <time>2021-09-07T11:28:21Z</time>
      </trkpt>
      <trkpt lat="44.48533" lon="5.50926">
        <ele>1010.3</ele>
        <time>2021-09-07T11:28:22Z</time>
      </trkpt>
      <trkpt lat="44.48533" lon="5.50919">
        <ele>1009.5</ele>
        <time>2021-09-07T11:28:23Z</time>
      </trkpt>
      <trkpt lat="44.48534" lon="5.50916">
        <ele>1010.7</ele>
        <time>2021-09-07T11:28:24Z</time>
      </trkpt>
      <trkpt lat="44.48534" lon="5.50913">
        <ele>1010.7</ele>
        <time>2021-09-07T11:28:25Z</time>
      </trkpt>
      <trkpt lat="44.48537" lon="5.50904">
        <ele>1010.7</ele>
        <time>2021-09-07T11:28:26Z</time>
      </trkpt>
      <trkpt lat="44.48538" lon="5.50899">
        <ele>1010.8</ele>
        <time>2021-09-07T11:28:27Z</time>
      </trkpt>
      <trkpt lat="44.48539" lon="5.50893">
        <ele>1010.8</ele>
        <time>2021-09-07T11:28:28Z</time>
      </trkpt>
      <trkpt lat="44.4854" lon="5.50887">
        <ele>1010.8</ele>
        <time>2021-09-07T11:28:29Z</time>
      </trkpt>
      <trkpt lat="44.48542" lon="5.50881">
        <ele>1010.9</ele>
        <time>2021-09-07T11:28:30Z</time>
      </trkpt>
      <trkpt lat="44.48544" lon="5.50874">
        <ele>1010.9</ele>
        <time>2021-09-07T11:28:31Z</time>
      </trkpt>
      <trkpt lat="44.48545" lon="5.50871">
        <ele>1010.9</ele>
        <time>2021-09-07T11:28:32Z</time>
      </trkpt>
      <trkpt lat="44.48547" lon="5.50866">
        <ele>1011</ele>
        <time>2021-09-07T11:28:33Z</time>
      </trkpt>
      <trkpt lat="44.4855" lon="5.50861">
        <ele>1011.1</ele>
        <time>2021-09-07T11:28:34Z</time>
      </trkpt>
      <trkpt lat="44.48552" lon="5.50859">
        <ele>1011.2</ele>
        <time>2021-09-07T11:28:35Z</time>
      </trkpt>
      <trkpt lat="44.48554" lon="5.50857">
        <ele>1011.2</ele>
        <time>2021-09-07T11:28:36Z</time>
      </trkpt>
      <trkpt lat="44.48557" lon="5.50854">
        <ele>1011.3</ele>
        <time>2021-09-07T11:28:37Z</time>
      </trkpt>
      <trkpt lat="44.48563" lon="5.50853">
        <ele>1011.3</ele>
        <time>2021-09-07T11:28:38Z</time>
      </trkpt>
      <trkpt lat="44.48567" lon="5.50851">
        <ele>1011.3</ele>
        <time>2021-09-07T11:28:39Z</time>
      </trkpt>
      <trkpt lat="44.48571" lon="5.50849">
        <ele>1011.3</ele>
        <time>2021-09-07T11:28:40Z</time>
      </trkpt>
      <trkpt lat="44.48574" lon="5.50846">
        <ele>1011.3</ele>
        <time>2021-09-07T11:28:41Z</time>
      </trkpt>
      <trkpt lat="44.48576" lon="5.50845">
        <ele>1011.3</ele>
        <time>2021-09-07T11:28:42Z</time>
      </trkpt>
      <trkpt lat="44.48577" lon="5.50843">
        <ele>1011.3</ele>
        <time>2021-09-07T11:28:43Z</time>
      </trkpt>
      <trkpt lat="44.4858" lon="5.50839">
        <ele>1011.3</ele>
        <time>2021-09-07T11:28:44Z</time>
      </trkpt>
      <trkpt lat="44.48583" lon="5.50833">
        <ele>1011.4</ele>
        <time>2021-09-07T11:28:45Z</time>
      </trkpt>
      <trkpt lat="44.48584" lon="5.50831">
        <ele>1011.4</ele>
        <time>2021-09-07T11:28:46Z</time>
      </trkpt>
      <trkpt lat="44.48584" lon="5.50828">
        <ele>1011.4</ele>
        <time>2021-09-07T11:28:47Z</time>
      </trkpt>
      <trkpt lat="44.48586" lon="5.50821">
        <ele>1011.4</ele>
        <time>2021-09-07T11:28:48Z</time>
      </trkpt>
      <trkpt lat="44.48586" lon="5.50819">
        <ele>1011.4</ele>
        <time>2021-09-07T11:28:49Z</time>
      </trkpt>
      <trkpt lat="44.48586" lon="5.50816">
        <ele>1011.4</ele>
        <time>2021-09-07T11:28:50Z</time>
      </trkpt>
      <trkpt lat="44.48587" lon="5.50811">
        <ele>1011.4</ele>
        <time>2021-09-07T11:28:51Z</time>
      </trkpt>
      <trkpt lat="44.48588" lon="5.50805">
        <ele>1011.4</ele>
        <time>2021-09-07T11:28:52Z</time>
      </trkpt>
      <trkpt lat="44.48588" lon="5.50802">
        <ele>1011.5</ele>
        <time>2021-09-07T11:28:53Z</time>
      </trkpt>
      <trkpt lat="44.48588" lon="5.50798">
        <ele>1011.5</ele>
        <time>2021-09-07T11:28:54Z</time>
      </trkpt>
      <trkpt lat="44.48588" lon="5.50791">
        <ele>1011.5</ele>
        <time>2021-09-07T11:28:55Z</time>
      </trkpt>
      <trkpt lat="44.48588" lon="5.50787">
        <ele>1011.5</ele>
        <time>2021-09-07T11:28:56Z</time>
      </trkpt>
      <trkpt lat="44.48588" lon="5.50783">
        <ele>1011.6</ele>
        <time>2021-09-07T11:28:57Z</time>
      </trkpt>
      <trkpt lat="44.48589" lon="5.50778">
        <ele>1011.6</ele>
        <time>2021-09-07T11:28:58Z</time>
      </trkpt>
      <trkpt lat="44.4859" lon="5.50774">
        <ele>1011.6</ele>
        <time>2021-09-07T11:28:59Z</time>
      </trkpt>
      <trkpt lat="44.4859" lon="5.5077">
        <ele>1011.5</ele>
        <time>2021-09-07T11:29:00Z</time>
      </trkpt>
      <trkpt lat="44.4859" lon="5.50766">
        <ele>1011.5</ele>
        <time>2021-09-07T11:29:01Z</time>
      </trkpt>
      <trkpt lat="44.48589" lon="5.50762">
        <ele>1011.5</ele>
        <time>2021-09-07T11:29:02Z</time>
      </trkpt>
      <trkpt lat="44.4859" lon="5.50754">
        <ele>1011.5</ele>
        <time>2021-09-07T11:29:03Z</time>
      </trkpt>
      <trkpt lat="44.4859" lon="5.50751">
        <ele>1011.5</ele>
        <time>2021-09-07T11:29:04Z</time>
      </trkpt>
      <trkpt lat="44.4859" lon="5.50747">
        <ele>1011.6</ele>
        <time>2021-09-07T11:29:05Z</time>
      </trkpt>
      <trkpt lat="44.4859" lon="5.50742">
        <ele>1011.6</ele>
        <time>2021-09-07T11:29:06Z</time>
      </trkpt>
      <trkpt lat="44.48589" lon="5.50736">
        <ele>1011.6</ele>
        <time>2021-09-07T11:29:07Z</time>
      </trkpt>
      <trkpt lat="44.48588" lon="5.50732">
        <ele>1011.7</ele>
        <time>2021-09-07T11:29:08Z</time>
      </trkpt>
      <trkpt lat="44.48587" lon="5.50724">
        <ele>1011.7</ele>
        <time>2021-09-07T11:29:09Z</time>
      </trkpt>
      <trkpt lat="44.48587" lon="5.50719">
        <ele>1011.7</ele>
        <time>2021-09-07T11:29:10Z</time>
      </trkpt>
      <trkpt lat="44.48587" lon="5.50714">
        <ele>1011.7</ele>
        <time>2021-09-07T11:29:11Z</time>
      </trkpt>
      <trkpt lat="44.48586" lon="5.50706">
        <ele>1011.8</ele>
        <time>2021-09-07T11:29:12Z</time>
      </trkpt>
      <trkpt lat="44.48587" lon="5.50696">
        <ele>1011.8</ele>
        <time>2021-09-07T11:29:13Z</time>
      </trkpt>
      <trkpt lat="44.48587" lon="5.50692">
        <ele>1011.9</ele>
        <time>2021-09-07T11:29:14Z</time>
      </trkpt>
      <trkpt lat="44.48586" lon="5.50687">
        <ele>1011.9</ele>
        <time>2021-09-07T11:29:15Z</time>
      </trkpt>
      <trkpt lat="44.48586" lon="5.50679">
        <ele>1011.9</ele>
        <time>2021-09-07T11:29:16Z</time>
      </trkpt>
      <trkpt lat="44.48587" lon="5.50676">
        <ele>1012</ele>
        <time>2021-09-07T11:29:17Z</time>
      </trkpt>
      <trkpt lat="44.48587" lon="5.50672">
        <ele>1012</ele>
        <time>2021-09-07T11:29:18Z</time>
      </trkpt>
      <trkpt lat="44.48589" lon="5.50665">
        <ele>1011.9</ele>
        <time>2021-09-07T11:29:19Z</time>
      </trkpt>
      <trkpt lat="44.4859" lon="5.50661">
        <ele>1011.9</ele>
        <time>2021-09-07T11:29:20Z</time>
      </trkpt>
      <trkpt lat="44.48591" lon="5.50657">
        <ele>1011.8</ele>
        <time>2021-09-07T11:29:21Z</time>
      </trkpt>
      <trkpt lat="44.48592" lon="5.50653">
        <ele>1011.7</ele>
        <time>2021-09-07T11:29:22Z</time>
      </trkpt>
      <trkpt lat="44.48593" lon="5.50649">
        <ele>1011.6</ele>
        <time>2021-09-07T11:29:23Z</time>
      </trkpt>
      <trkpt lat="44.48594" lon="5.50643">
        <ele>1011.5</ele>
        <time>2021-09-07T11:29:24Z</time>
      </trkpt>
      <trkpt lat="44.48596" lon="5.50638">
        <ele>1011.4</ele>
        <time>2021-09-07T11:29:25Z</time>
      </trkpt>
      <trkpt lat="44.48597" lon="5.50634">
        <ele>1011.3</ele>
        <time>2021-09-07T11:29:26Z</time>
      </trkpt>
      <trkpt lat="44.48598" lon="5.5063">
        <ele>1011.2</ele>
        <time>2021-09-07T11:29:27Z</time>
      </trkpt>
      <trkpt lat="44.48599" lon="5.50625">
        <ele>1011.1</ele>
        <time>2021-09-07T11:29:28Z</time>
      </trkpt>
      <trkpt lat="44.486" lon="5.5062">
        <ele>1011</ele>
        <time>2021-09-07T11:29:29Z</time>
      </trkpt>
      <trkpt lat="44.48601" lon="5.50616">
        <ele>1010.8</ele>
        <time>2021-09-07T11:29:30Z</time>
      </trkpt>
      <trkpt lat="44.48602" lon="5.50611">
        <ele>1010.7</ele>
        <time>2021-09-07T11:29:31Z</time>
      </trkpt>
      <trkpt lat="44.48603" lon="5.50605">
        <ele>1010.5</ele>
        <time>2021-09-07T11:29:32Z</time>
      </trkpt>
      <trkpt lat="44.48605" lon="5.50598">
        <ele>1010.3</ele>
        <time>2021-09-07T11:29:33Z</time>
      </trkpt>
      <trkpt lat="44.48606" lon="5.50593">
        <ele>1010.2</ele>
        <time>2021-09-07T11:29:34Z</time>
      </trkpt>
      <trkpt lat="44.48606" lon="5.50588">
        <ele>1010</ele>
        <time>2021-09-07T11:29:35Z</time>
      </trkpt>
      <trkpt lat="44.48605" lon="5.5058">
        <ele>1009.7</ele>
        <time>2021-09-07T11:29:36Z</time>
      </trkpt>
      <trkpt lat="44.48604" lon="5.50571">
        <ele>1009.3</ele>
        <time>2021-09-07T11:29:37Z</time>
      </trkpt>
      <trkpt lat="44.48603" lon="5.50562">
        <ele>1008.8</ele>
        <time>2021-09-07T11:29:38Z</time>
      </trkpt>
      <trkpt lat="44.48603" lon="5.50553">
        <ele>1008.5</ele>
        <time>2021-09-07T11:29:39Z</time>
      </trkpt>
      <trkpt lat="44.48602" lon="5.50544">
        <ele>1008.1</ele>
        <time>2021-09-07T11:29:40Z</time>
      </trkpt>
      <trkpt lat="44.48603" lon="5.50536">
        <ele>1007.8</ele>
        <time>2021-09-07T11:29:41Z</time>
      </trkpt>
      <trkpt lat="44.48604" lon="5.5053">
        <ele>1007.5</ele>
        <time>2021-09-07T11:29:42Z</time>
      </trkpt>
      <trkpt lat="44.48604" lon="5.50524">
        <ele>1007.2</ele>
        <time>2021-09-07T11:29:43Z</time>
      </trkpt>
      <trkpt lat="44.48606" lon="5.50515">
        <ele>1006.7</ele>
        <time>2021-09-07T11:29:44Z</time>
      </trkpt>
      <trkpt lat="44.48608" lon="5.50507">
        <ele>1006.2</ele>
        <time>2021-09-07T11:29:45Z</time>
      </trkpt>
      <trkpt lat="44.48609" lon="5.50498">
        <ele>1005.7</ele>
        <time>2021-09-07T11:29:46Z</time>
      </trkpt>
      <trkpt lat="44.4861" lon="5.50489">
        <ele>1005.2</ele>
        <time>2021-09-07T11:29:47Z</time>
      </trkpt>
      <trkpt lat="44.48611" lon="5.50479">
        <ele>1004.7</ele>
        <time>2021-09-07T11:29:48Z</time>
      </trkpt>
      <trkpt lat="44.48612" lon="5.50469">
        <ele>1004</ele>
        <time>2021-09-07T11:29:49Z</time>
      </trkpt>
      <trkpt lat="44.48612" lon="5.50459">
        <ele>1003.4</ele>
        <time>2021-09-07T11:29:50Z</time>
      </trkpt>
      <trkpt lat="44.48613" lon="5.5045">
        <ele>1002.8</ele>
        <time>2021-09-07T11:29:51Z</time>
      </trkpt>
      <trkpt lat="44.48614" lon="5.5044">
        <ele>1002.2</ele>
        <time>2021-09-07T11:29:52Z</time>
      </trkpt>
      <trkpt lat="44.48615" lon="5.50431">
        <ele>1001.6</ele>
        <time>2021-09-07T11:29:53Z</time>
      </trkpt>
      <trkpt lat="44.48615" lon="5.50421">
        <ele>1001.1</ele>
        <time>2021-09-07T11:29:54Z</time>
      </trkpt>
      <trkpt lat="44.48614" lon="5.50411">
        <ele>1000.5</ele>
        <time>2021-09-07T11:29:55Z</time>
      </trkpt>
      <trkpt lat="44.48613" lon="5.504">
        <ele>1000</ele>
        <time>2021-09-07T11:29:56Z</time>
      </trkpt>
      <trkpt lat="44.48613" lon="5.5039">
        <ele>999.4</ele>
        <time>2021-09-07T11:29:57Z</time>
      </trkpt>
      <trkpt lat="44.48613" lon="5.5038">
        <ele>998.8</ele>
        <time>2021-09-07T11:29:58Z</time>
      </trkpt>
      <trkpt lat="44.48614" lon="5.50372">
        <ele>998.3</ele>
        <time>2021-09-07T11:29:59Z</time>
      </trkpt>
      <trkpt lat="44.48614" lon="5.50365">
        <ele>997.8</ele>
        <time>2021-09-07T11:30:00Z</time>
      </trkpt>
      <trkpt lat="44.48615" lon="5.5036">
        <ele>997.4</ele>
        <time>2021-09-07T11:30:01Z</time>
      </trkpt>
      <trkpt lat="44.48615" lon="5.50354">
        <ele>997</ele>
        <time>2021-09-07T11:30:02Z</time>
      </trkpt>
      <trkpt lat="44.48615" lon="5.50352">
        <ele>996.8</ele>
        <time>2021-09-07T11:30:03Z</time>
      </trkpt>
      <trkpt lat="44.48614" lon="5.50349">
        <ele>996.7</ele>
        <time>2021-09-07T11:30:04Z</time>
      </trkpt>
      <trkpt lat="44.48613" lon="5.50346">
        <ele>996.4</ele>
        <time>2021-09-07T11:30:05Z</time>
      </trkpt>
      <trkpt lat="44.48613" lon="5.50344">
        <ele>996.3</ele>
        <time>2021-09-07T11:30:06Z</time>
      </trkpt>
      <trkpt lat="44.48613" lon="5.50343">
        <ele>996.2</ele>
        <time>2021-09-07T11:30:07Z</time>
      </trkpt>
      <trkpt lat="44.48613" lon="5.50341">
        <ele>996.1</ele>
        <time>2021-09-07T11:30:08Z</time>
      </trkpt>
      <trkpt lat="44.48613" lon="5.5034">
        <ele>996</ele>
        <time>2021-09-07T11:30:09Z</time>
      </trkpt>
      <trkpt lat="44.48612" lon="5.50338">
        <ele>995.9</ele>
        <time>2021-09-07T11:30:10Z</time>
      </trkpt>
      <trkpt lat="44.48612" lon="5.50337">
        <ele>995.8</ele>
        <time>2021-09-07T11:30:11Z</time>
      </trkpt>
      <trkpt lat="44.48612" lon="5.50335">
        <ele>995.7</ele>
        <time>2021-09-07T11:30:12Z</time>
      </trkpt>
      <trkpt lat="44.48612" lon="5.50334">
        <ele>995.6</ele>
        <time>2021-09-07T11:30:13Z</time>
      </trkpt>
      <trkpt lat="44.48612" lon="5.50332">
        <ele>995.6</ele>
        <time>2021-09-07T11:30:14Z</time>
      </trkpt>
      <trkpt lat="44.48612" lon="5.50331">
        <ele>995.5</ele>
        <time>2021-09-07T11:30:15Z</time>
      </trkpt>
      <trkpt lat="44.48611" lon="5.50329">
        <ele>995.4</ele>
        <time>2021-09-07T11:30:16Z</time>
      </trkpt>
      <trkpt lat="44.48611" lon="5.50328">
        <ele>995.3</ele>
        <time>2021-09-07T11:30:17Z</time>
      </trkpt>
      <trkpt lat="44.48611" lon="5.50326">
        <ele>995.2</ele>
        <time>2021-09-07T11:30:18Z</time>
      </trkpt>
      <trkpt lat="44.4861" lon="5.5031">
        <ele>994.5</ele>
        <time>2021-09-07T11:30:19Z</time>
      </trkpt>
      <trkpt lat="44.48609" lon="5.50297">
        <ele>994</ele>
        <time>2021-09-07T11:30:20Z</time>
      </trkpt>
      <trkpt lat="44.48608" lon="5.50285">
        <ele>993.5</ele>
        <time>2021-09-07T11:30:21Z</time>
      </trkpt>
      <trkpt lat="44.48607" lon="5.50272">
        <ele>993.2</ele>
        <time>2021-09-07T11:30:22Z</time>
      </trkpt>
      <trkpt lat="44.48606" lon="5.5026">
        <ele>993.1</ele>
        <time>2021-09-07T11:30:23Z</time>
      </trkpt>
      <trkpt lat="44.48605" lon="5.50248">
        <ele>993.1</ele>
        <time>2021-09-07T11:30:24Z</time>
      </trkpt>
      <trkpt lat="44.48605" lon="5.50237">
        <ele>993.1</ele>
        <time>2021-09-07T11:30:25Z</time>
      </trkpt>
      <trkpt lat="44.48605" lon="5.50226">
        <ele>993.1</ele>
        <time>2021-09-07T11:30:26Z</time>
      </trkpt>
      <trkpt lat="44.48604" lon="5.50217">
        <ele>993.2</ele>
        <time>2021-09-07T11:30:27Z</time>
      </trkpt>
      <trkpt lat="44.48603" lon="5.50208">
        <ele>993.3</ele>
        <time>2021-09-07T11:30:28Z</time>
      </trkpt>
      <trkpt lat="44.48602" lon="5.50202">
        <ele>993.5</ele>
        <time>2021-09-07T11:30:29Z</time>
      </trkpt>
      <trkpt lat="44.48601" lon="5.50196">
        <ele>993.7</ele>
        <time>2021-09-07T11:30:30Z</time>
      </trkpt>
      <trkpt lat="44.486" lon="5.5019">
        <ele>993.8</ele>
        <time>2021-09-07T11:30:31Z</time>
      </trkpt>
      <trkpt lat="44.486" lon="5.50187">
        <ele>993.9</ele>
        <time>2021-09-07T11:30:32Z</time>
      </trkpt>
      <trkpt lat="44.486" lon="5.50186">
        <ele>993.9</ele>
        <time>2021-09-07T11:30:33Z</time>
      </trkpt>
      <trkpt lat="44.48599" lon="5.50184">
        <ele>993.9</ele>
        <time>2021-09-07T11:30:34Z</time>
      </trkpt>
      <trkpt lat="44.48599" lon="5.50183">
        <ele>994</ele>
        <time>2021-09-07T11:30:35Z</time>
      </trkpt>
      <trkpt lat="44.48599" lon="5.50183">
        <ele>994</ele>
        <time>2021-09-07T11:30:36Z</time>
      </trkpt>
      <trkpt lat="44.48599" lon="5.50182">
        <ele>994</ele>
        <time>2021-09-07T11:30:37Z</time>
      </trkpt>
      <trkpt lat="44.48599" lon="5.50182">
        <ele>994</ele>
        <time>2021-09-07T11:30:38Z</time>
      </trkpt>
      <trkpt lat="44.48599" lon="5.50182">
        <ele>994</ele>
        <time>2021-09-07T11:30:39Z</time>
      </trkpt>
      <trkpt lat="44.48599" lon="5.50181">
        <ele>994</ele>
        <time>2021-09-07T11:30:40Z</time>
      </trkpt>
      <trkpt lat="44.48599" lon="5.50181">
        <ele>994</ele>
        <time>2021-09-07T11:30:41Z</time>
      </trkpt>
      <trkpt lat="44.48599" lon="5.50181">
        <ele>994</ele>
        <time>2021-09-07T11:30:42Z</time>
      </trkpt>
      <trkpt lat="44.48599" lon="5.50181">
        <ele>994</ele>
        <time>2021-09-07T11:30:43Z</time>
      </trkpt>
      <trkpt lat="44.48599" lon="5.50181">
        <ele>994</ele>
        <time>2021-09-07T11:30:44Z</time>
      </trkpt>
      <trkpt lat="44.48599" lon="5.50181">
        <ele>994</ele>
        <time>2021-09-07T11:30:45Z</time>
      </trkpt>
      <trkpt lat="44.48599" lon="5.50181">
        <ele>994</ele>
        <time>2021-09-07T11:30:46Z</time>
      </trkpt>
      <trkpt lat="44.48599" lon="5.50181">
        <ele>994</ele>
        <time>2021-09-07T11:30:47Z</time>
      </trkpt>
      <trkpt lat="44.48599" lon="5.50181">
        <ele>994</ele>
        <time>2021-09-07T11:30:48Z</time>
      </trkpt>
      <trkpt lat="44.48599" lon="5.50181">
        <ele>994</ele>
        <time>2021-09-07T11:30:49Z</time>
      </trkpt>
      <trkpt lat="44.48599" lon="5.50181">
        <ele>994</ele>
        <time>2021-09-07T11:30:50Z</time>
      </trkpt>
      <trkpt lat="44.48599" lon="5.50181">
        <ele>994</ele>
        <time>2021-09-07T11:30:51Z</time>
      </trkpt>
      <trkpt lat="44.48599" lon="5.50181">
        <ele>994</ele>
        <time>2021-09-07T11:30:52Z</time>
      </trkpt>
      <trkpt lat="44.48599" lon="5.50181">
        <ele>994</ele>
        <time>2021-09-07T11:30:53Z</time>
      </trkpt>
      <trkpt lat="44.48599" lon="5.5018">
        <ele>994</ele>
        <time>2021-09-07T11:30:54Z</time>
      </trkpt>
      <trkpt lat="44.48599" lon="5.5018">
        <ele>994</ele>
        <time>2021-09-07T11:30:55Z</time>
      </trkpt>
      <trkpt lat="44.48598" lon="5.5018">
        <ele>994.1</ele>
        <time>2021-09-07T11:30:56Z</time>
      </trkpt>
      <trkpt lat="44.48597" lon="5.5018">
        <ele>994.1</ele>
        <time>2021-09-07T11:30:57Z</time>
      </trkpt>
      <trkpt lat="44.48597" lon="5.5018">
        <ele>994.1</ele>
        <time>2021-09-07T11:30:58Z</time>
      </trkpt>
      <trkpt lat="44.48597" lon="5.5018">
        <ele>994.1</ele>
        <time>2021-09-07T11:30:59Z</time>
      </trkpt>
      <trkpt lat="44.48597" lon="5.5018">
        <ele>994.1</ele>
        <time>2021-09-07T11:31:00Z</time>
      </trkpt>
      <trkpt lat="44.48596" lon="5.5018">
        <ele>994.1</ele>
        <time>2021-09-07T11:31:01Z</time>
      </trkpt>
      <trkpt lat="44.48596" lon="5.5018">
        <ele>994.1</ele>
        <time>2021-09-07T11:31:02Z</time>
      </trkpt>
      <trkpt lat="44.48596" lon="5.5018">
        <ele>994.1</ele>
        <time>2021-09-07T11:31:03Z</time>
      </trkpt>
      <trkpt lat="44.48596" lon="5.5018">
        <ele>994.1</ele>
        <time>2021-09-07T11:31:04Z</time>
      </trkpt>
      <trkpt lat="44.48596" lon="5.5018">
        <ele>994.1</ele>
        <time>2021-09-07T11:31:05Z</time>
      </trkpt>
      <trkpt lat="44.48596" lon="5.5018">
        <ele>994.1</ele>
        <time>2021-09-07T11:31:06Z</time>
      </trkpt>
      <trkpt lat="44.48596" lon="5.5018">
        <ele>994.1</ele>
        <time>2021-09-07T11:31:07Z</time>
      </trkpt>
      <trkpt lat="44.48596" lon="5.5018">
        <ele>994.1</ele>
        <time>2021-09-07T11:31:08Z</time>
      </trkpt>
      <trkpt lat="44.48596" lon="5.5018">
        <ele>994.1</ele>
        <time>2021-09-07T11:31:09Z</time>
      </trkpt>
      <trkpt lat="44.48596" lon="5.5018">
        <ele>994.1</ele>
        <time>2021-09-07T11:31:10Z</time>
      </trkpt>
      <trkpt lat="44.48596" lon="5.5018">
        <ele>994.1</ele>
        <time>2021-09-07T11:31:11Z</time>
      </trkpt>
      <trkpt lat="44.48595" lon="5.5018">
        <ele>994.1</ele>
        <time>2021-09-07T11:31:12Z</time>
      </trkpt>
      <trkpt lat="44.48595" lon="5.5018">
        <ele>994.1</ele>
        <time>2021-09-07T11:31:13Z</time>
      </trkpt>
      <trkpt lat="44.48595" lon="5.5018">
        <ele>994.1</ele>
        <time>2021-09-07T11:31:14Z</time>
      </trkpt>
      <trkpt lat="44.48595" lon="5.5018">
        <ele>994.1</ele>
        <time>2021-09-07T11:31:15Z</time>
      </trkpt>
      <trkpt lat="44.48595" lon="5.5018">
        <ele>994.1</ele>
        <time>2021-09-07T11:31:16Z</time>
      </trkpt>
      <trkpt lat="44.48595" lon="5.5018">
        <ele>994.1</ele>
        <time>2021-09-07T11:31:17Z</time>
      </trkpt>
      <trkpt lat="44.48595" lon="5.5018">
        <ele>994.1</ele>
        <time>2021-09-07T11:31:18Z</time>
      </trkpt>
      <trkpt lat="44.48595" lon="5.50181">
        <ele>994.2</ele>
        <time>2021-09-07T11:31:19Z</time>
      </trkpt>
      <trkpt lat="44.48594" lon="5.50181">
        <ele>994.2</ele>
        <time>2021-09-07T11:31:20Z</time>
      </trkpt>
      <trkpt lat="44.48593" lon="5.50182">
        <ele>994.2</ele>
        <time>2021-09-07T11:31:21Z</time>
      </trkpt>
      <trkpt lat="44.4859" lon="5.50183">
        <ele>994.3</ele>
        <time>2021-09-07T11:31:22Z</time>
      </trkpt>
      <trkpt lat="44.48589" lon="5.50183">
        <ele>994.3</ele>
        <time>2021-09-07T11:31:23Z</time>
      </trkpt>
      <trkpt lat="44.48588" lon="5.50184">
        <ele>994.3</ele>
        <time>2021-09-07T11:31:24Z</time>
      </trkpt>
      <trkpt lat="44.48587" lon="5.50185">
        <ele>994.3</ele>
        <time>2021-09-07T11:31:25Z</time>
      </trkpt>
      <trkpt lat="44.48585" lon="5.50187">
        <ele>994.4</ele>
        <time>2021-09-07T11:31:26Z</time>
      </trkpt>
      <trkpt lat="44.48583" lon="5.50187">
        <ele>994.4</ele>
        <time>2021-09-07T11:31:27Z</time>
      </trkpt>
      <trkpt lat="44.48581" lon="5.50187">
        <ele>994.5</ele>
        <time>2021-09-07T11:31:28Z</time>
      </trkpt>
      <trkpt lat="44.48578" lon="5.50186">
        <ele>994.6</ele>
        <time>2021-09-07T11:31:29Z</time>
      </trkpt>
      <trkpt lat="44.48578" lon="5.50186">
        <ele>994.6</ele>
        <time>2021-09-07T11:31:30Z</time>
      </trkpt>
      <trkpt lat="44.48577" lon="5.50185">
        <ele>994.6</ele>
        <time>2021-09-07T11:31:31Z</time>
      </trkpt>
      <trkpt lat="44.48574" lon="5.50181">
        <ele>994.8</ele>
        <time>2021-09-07T11:31:32Z</time>
      </trkpt>
      <trkpt lat="44.48573" lon="5.50179">
        <ele>994.8</ele>
        <time>2021-09-07T11:31:33Z</time>
      </trkpt>
      <trkpt lat="44.48571" lon="5.50177">
        <ele>994.9</ele>
        <time>2021-09-07T11:31:34Z</time>
      </trkpt>
      <trkpt lat="44.48572" lon="5.50177">
        <ele>994.9</ele>
        <time>2021-09-07T11:31:35Z</time>
      </trkpt>
      <trkpt lat="44.48572" lon="5.50176">
        <ele>995</ele>
        <time>2021-09-07T11:31:36Z</time>
      </trkpt>
      <trkpt lat="44.48572" lon="5.50175">
        <ele>995</ele>
        <time>2021-09-07T11:31:37Z</time>
      </trkpt>
      <trkpt lat="44.48572" lon="5.50175">
        <ele>995</ele>
        <time>2021-09-07T11:31:38Z</time>
      </trkpt>
      <trkpt lat="44.48572" lon="5.50175">
        <ele>995</ele>
        <time>2021-09-07T11:31:39Z</time>
      </trkpt>
      <trkpt lat="44.48572" lon="5.50174">
        <ele>995</ele>
        <time>2021-09-07T11:31:40Z</time>
      </trkpt>
      <trkpt lat="44.48573" lon="5.50174">
        <ele>995</ele>
        <time>2021-09-07T11:31:41Z</time>
      </trkpt>
      <trkpt lat="44.48573" lon="5.50174">
        <ele>995.1</ele>
        <time>2021-09-07T11:31:42Z</time>
      </trkpt>
      <trkpt lat="44.48573" lon="5.50174">
        <ele>995.1</ele>
        <time>2021-09-07T11:31:43Z</time>
      </trkpt>
      <trkpt lat="44.48573" lon="5.50174">
        <ele>995.1</ele>
        <time>2021-09-07T11:31:44Z</time>
      </trkpt>
      <trkpt lat="44.48573" lon="5.50174">
        <ele>995.1</ele>
        <time>2021-09-07T11:31:45Z</time>
      </trkpt>
      <trkpt lat="44.48573" lon="5.50174">
        <ele>995.1</ele>
        <time>2021-09-07T11:31:46Z</time>
      </trkpt>
      <trkpt lat="44.48573" lon="5.50174">
        <ele>995.1</ele>
        <time>2021-09-07T11:31:47Z</time>
      </trkpt>
      <trkpt lat="44.48573" lon="5.50173">
        <ele>995.1</ele>
        <time>2021-09-07T11:31:48Z</time>
      </trkpt>
      <trkpt lat="44.48572" lon="5.50171">
        <ele>995.2</ele>
        <time>2021-09-07T11:31:49Z</time>
      </trkpt>
      <trkpt lat="44.48571" lon="5.50169">
        <ele>995.2</ele>
        <time>2021-09-07T11:31:50Z</time>
      </trkpt>
      <trkpt lat="44.4857" lon="5.50166">
        <ele>995.3</ele>
        <time>2021-09-07T11:31:51Z</time>
      </trkpt>
      <trkpt lat="44.48568" lon="5.50163">
        <ele>995.4</ele>
        <time>2021-09-07T11:31:52Z</time>
      </trkpt>
      <trkpt lat="44.48566" lon="5.50161">
        <ele>995.5</ele>
        <time>2021-09-07T11:31:53Z</time>
      </trkpt>
      <trkpt lat="44.48564" lon="5.50159">
        <ele>995.7</ele>
        <time>2021-09-07T11:31:54Z</time>
      </trkpt>
      <trkpt lat="44.48563" lon="5.50157">
        <ele>995.8</ele>
        <time>2021-09-07T11:31:55Z</time>
      </trkpt>
      <trkpt lat="44.48561" lon="5.50154">
        <ele>995.9</ele>
        <time>2021-09-07T11:31:56Z</time>
      </trkpt>
      <trkpt lat="44.48559" lon="5.5015">
        <ele>996.1</ele>
        <time>2021-09-07T11:31:57Z</time>
      </trkpt>
      <trkpt lat="44.48557" lon="5.50146">
        <ele>996.3</ele>
        <time>2021-09-07T11:31:58Z</time>
      </trkpt>
      <trkpt lat="44.48555" lon="5.50142">
        <ele>996.5</ele>
        <time>2021-09-07T11:31:59Z</time>
      </trkpt>
      <trkpt lat="44.48553" lon="5.50137">
        <ele>996.7</ele>
        <time>2021-09-07T11:32:00Z</time>
      </trkpt>
      <trkpt lat="44.48551" lon="5.50132">
        <ele>997</ele>
        <time>2021-09-07T11:32:01Z</time>
      </trkpt>
      <trkpt lat="44.4855" lon="5.50128">
        <ele>997.2</ele>
        <time>2021-09-07T11:32:02Z</time>
      </trkpt>
      <trkpt lat="44.48549" lon="5.50123">
        <ele>997.4</ele>
        <time>2021-09-07T11:32:03Z</time>
      </trkpt>
      <trkpt lat="44.48549" lon="5.50119">
        <ele>997.5</ele>
        <time>2021-09-07T11:32:04Z</time>
      </trkpt>
      <trkpt lat="44.48548" lon="5.50115">
        <ele>997.7</ele>
        <time>2021-09-07T11:32:05Z</time>
      </trkpt>
      <trkpt lat="44.48547" lon="5.50108">
        <ele>997.9</ele>
        <time>2021-09-07T11:32:06Z</time>
      </trkpt>
      <trkpt lat="44.48547" lon="5.50101">
        <ele>998.2</ele>
        <time>2021-09-07T11:32:07Z</time>
      </trkpt>
      <trkpt lat="44.48547" lon="5.50098">
        <ele>998.3</ele>
        <time>2021-09-07T11:32:08Z</time>
      </trkpt>
      <trkpt lat="44.48547" lon="5.50094">
        <ele>998</ele>
        <time>2021-09-07T11:32:09Z</time>
      </trkpt>
      <trkpt lat="44.48546" lon="5.50088">
        <ele>997.4</ele>
        <time>2021-09-07T11:32:10Z</time>
      </trkpt>
      <trkpt lat="44.48546" lon="5.50086">
        <ele>997.3</ele>
        <time>2021-09-07T11:32:11Z</time>
      </trkpt>
      <trkpt lat="44.48546" lon="5.50083">
        <ele>997.1</ele>
        <time>2021-09-07T11:32:12Z</time>
      </trkpt>
      <trkpt lat="44.48546" lon="5.50079">
        <ele>997</ele>
        <time>2021-09-07T11:32:13Z</time>
      </trkpt>
      <trkpt lat="44.48546" lon="5.50076">
        <ele>996.9</ele>
        <time>2021-09-07T11:32:14Z</time>
      </trkpt>
      <trkpt lat="44.48546" lon="5.50073">
        <ele>996.8</ele>
        <time>2021-09-07T11:32:15Z</time>
      </trkpt>
      <trkpt lat="44.48545" lon="5.5007">
        <ele>996.8</ele>
        <time>2021-09-07T11:32:16Z</time>
      </trkpt>
      <trkpt lat="44.48544" lon="5.50067">
        <ele>996.7</ele>
        <time>2021-09-07T11:32:17Z</time>
      </trkpt>
      <trkpt lat="44.48544" lon="5.50064">
        <ele>996.7</ele>
        <time>2021-09-07T11:32:18Z</time>
      </trkpt>
      <trkpt lat="44.48544" lon="5.5006">
        <ele>996.7</ele>
        <time>2021-09-07T11:32:19Z</time>
      </trkpt>
      <trkpt lat="44.48543" lon="5.50057">
        <ele>996.7</ele>
        <time>2021-09-07T11:32:20Z</time>
      </trkpt>
      <trkpt lat="44.48543" lon="5.50054">
        <ele>996.6</ele>
        <time>2021-09-07T11:32:21Z</time>
      </trkpt>
      <trkpt lat="44.48542" lon="5.5005">
        <ele>996.6</ele>
        <time>2021-09-07T11:32:22Z</time>
      </trkpt>
      <trkpt lat="44.48542" lon="5.50047">
        <ele>996.5</ele>
        <time>2021-09-07T11:32:23Z</time>
      </trkpt>
      <trkpt lat="44.48541" lon="5.50043">
        <ele>996.5</ele>
        <time>2021-09-07T11:32:24Z</time>
      </trkpt>
      <trkpt lat="44.4854" lon="5.50038">
        <ele>996.4</ele>
        <time>2021-09-07T11:32:25Z</time>
      </trkpt>
      <trkpt lat="44.48539" lon="5.50035">
        <ele>996.4</ele>
        <time>2021-09-07T11:32:26Z</time>
      </trkpt>
      <trkpt lat="44.48538" lon="5.5003">
        <ele>996.3</ele>
        <time>2021-09-07T11:32:27Z</time>
      </trkpt>
      <trkpt lat="44.48538" lon="5.50027">
        <ele>996.3</ele>
        <time>2021-09-07T11:32:28Z</time>
      </trkpt>
      <trkpt lat="44.48537" lon="5.50024">
        <ele>996.2</ele>
        <time>2021-09-07T11:32:29Z</time>
      </trkpt>
      <trkpt lat="44.48537" lon="5.50021">
        <ele>996.1</ele>
        <time>2021-09-07T11:32:30Z</time>
      </trkpt>
      <trkpt lat="44.48536" lon="5.50018">
        <ele>996.1</ele>
        <time>2021-09-07T11:32:31Z</time>
      </trkpt>
      <trkpt lat="44.48536" lon="5.50014">
        <ele>996</ele>
        <time>2021-09-07T11:32:32Z</time>
      </trkpt>
      <trkpt lat="44.48535" lon="5.50011">
        <ele>995.9</ele>
        <time>2021-09-07T11:32:33Z</time>
      </trkpt>
      <trkpt lat="44.48535" lon="5.5001">
        <ele>995.8</ele>
        <time>2021-09-07T11:32:34Z</time>
      </trkpt>
      <trkpt lat="44.48534" lon="5.50008">
        <ele>995.8</ele>
        <time>2021-09-07T11:32:35Z</time>
      </trkpt>
      <trkpt lat="44.48534" lon="5.50004">
        <ele>995.7</ele>
        <time>2021-09-07T11:32:36Z</time>
      </trkpt>
      <trkpt lat="44.48533" lon="5.50002">
        <ele>995.7</ele>
        <time>2021-09-07T11:32:37Z</time>
      </trkpt>
      <trkpt lat="44.48532" lon="5.49999">
        <ele>995.6</ele>
        <time>2021-09-07T11:32:38Z</time>
      </trkpt>
      <trkpt lat="44.48531" lon="5.49997">
        <ele>995.6</ele>
        <time>2021-09-07T11:32:39Z</time>
      </trkpt>
      <trkpt lat="44.48529" lon="5.49994">
        <ele>995.5</ele>
        <time>2021-09-07T11:32:40Z</time>
      </trkpt>
      <trkpt lat="44.48528" lon="5.4999">
        <ele>995.5</ele>
        <time>2021-09-07T11:32:41Z</time>
      </trkpt>
      <trkpt lat="44.48527" lon="5.49985">
        <ele>995.4</ele>
        <time>2021-09-07T11:32:42Z</time>
      </trkpt>
      <trkpt lat="44.48526" lon="5.49982">
        <ele>995.3</ele>
        <time>2021-09-07T11:32:43Z</time>
      </trkpt>
      <trkpt lat="44.48525" lon="5.49979">
        <ele>995.3</ele>
        <time>2021-09-07T11:32:44Z</time>
      </trkpt>
      <trkpt lat="44.48525" lon="5.49975">
        <ele>995.2</ele>
        <time>2021-09-07T11:32:45Z</time>
      </trkpt>
      <trkpt lat="44.48524" lon="5.49971">
        <ele>995.1</ele>
        <time>2021-09-07T11:32:46Z</time>
      </trkpt>
      <trkpt lat="44.48524" lon="5.49967">
        <ele>995</ele>
        <time>2021-09-07T11:32:47Z</time>
      </trkpt>
      <trkpt lat="44.48525" lon="5.49963">
        <ele>995</ele>
        <time>2021-09-07T11:32:48Z</time>
      </trkpt>
      <trkpt lat="44.48526" lon="5.49961">
        <ele>995</ele>
        <time>2021-09-07T11:32:49Z</time>
      </trkpt>
      <trkpt lat="44.48527" lon="5.4996">
        <ele>995</ele>
        <time>2021-09-07T11:32:50Z</time>
      </trkpt>
      <trkpt lat="44.48527" lon="5.49958">
        <ele>995</ele>
        <time>2021-09-07T11:32:51Z</time>
      </trkpt>
      <trkpt lat="44.48528" lon="5.49957">
        <ele>995.1</ele>
        <time>2021-09-07T11:32:52Z</time>
      </trkpt>
      <trkpt lat="44.48528" lon="5.49958">
        <ele>995.1</ele>
        <time>2021-09-07T11:32:53Z</time>
      </trkpt>
      <trkpt lat="44.48529" lon="5.49958">
        <ele>995.1</ele>
        <time>2021-09-07T11:32:54Z</time>
      </trkpt>
      <trkpt lat="44.48529" lon="5.49958">
        <ele>995.1</ele>
        <time>2021-09-07T11:32:55Z</time>
      </trkpt>
      <trkpt lat="44.48529" lon="5.49958">
        <ele>995.1</ele>
        <time>2021-09-07T11:32:56Z</time>
      </trkpt>
      <trkpt lat="44.48529" lon="5.49958">
        <ele>995.1</ele>
        <time>2021-09-07T11:32:57Z</time>
      </trkpt>
      <trkpt lat="44.48529" lon="5.49958">
        <ele>995.1</ele>
        <time>2021-09-07T11:32:58Z</time>
      </trkpt>
      <trkpt lat="44.48529" lon="5.49958">
        <ele>995.1</ele>
        <time>2021-09-07T11:32:59Z</time>
      </trkpt>
      <trkpt lat="44.48529" lon="5.49958">
        <ele>995.1</ele>
        <time>2021-09-07T11:33:00Z</time>
      </trkpt>
      <trkpt lat="44.48528" lon="5.49958">
        <ele>995.1</ele>
        <time>2021-09-07T11:33:01Z</time>
      </trkpt>
      <trkpt lat="44.48528" lon="5.49958">
        <ele>995.1</ele>
        <time>2021-09-07T11:33:02Z</time>
      </trkpt>
      <trkpt lat="44.48528" lon="5.49958">
        <ele>995.1</ele>
        <time>2021-09-07T11:33:03Z</time>
      </trkpt>
      <trkpt lat="44.48528" lon="5.49958">
        <ele>995.1</ele>
        <time>2021-09-07T11:33:04Z</time>
      </trkpt>
      <trkpt lat="44.48529" lon="5.49958">
        <ele>995.1</ele>
        <time>2021-09-07T11:33:05Z</time>
      </trkpt>
      <trkpt lat="44.48529" lon="5.49959">
        <ele>995.2</ele>
        <time>2021-09-07T11:33:06Z</time>
      </trkpt>
      <trkpt lat="44.4853" lon="5.49961">
        <ele>995.2</ele>
        <time>2021-09-07T11:33:07Z</time>
      </trkpt>
      <trkpt lat="44.4853" lon="5.49962">
        <ele>995.2</ele>
        <time>2021-09-07T11:33:08Z</time>
      </trkpt>
      <trkpt lat="44.48531" lon="5.49966">
        <ele>995.3</ele>
        <time>2021-09-07T11:33:09Z</time>
      </trkpt>
      <trkpt lat="44.48531" lon="5.4997">
        <ele>995.3</ele>
        <time>2021-09-07T11:33:10Z</time>
      </trkpt>
      <trkpt lat="44.48532" lon="5.49976">
        <ele>995.4</ele>
        <time>2021-09-07T11:33:11Z</time>
      </trkpt>
      <trkpt lat="44.48533" lon="5.49982">
        <ele>995.5</ele>
        <time>2021-09-07T11:33:12Z</time>
      </trkpt>
      <trkpt lat="44.48535" lon="5.4999">
        <ele>995.6</ele>
        <time>2021-09-07T11:33:13Z</time>
      </trkpt>
      <trkpt lat="44.48536" lon="5.49994">
        <ele>995.7</ele>
        <time>2021-09-07T11:33:14Z</time>
      </trkpt>
      <trkpt lat="44.48537" lon="5.49997">
        <ele>995.8</ele>
        <time>2021-09-07T11:33:15Z</time>
      </trkpt>
      <trkpt lat="44.48538" lon="5.50002">
        <ele>995.8</ele>
        <time>2021-09-07T11:33:16Z</time>
      </trkpt>
      <trkpt lat="44.48538" lon="5.50006">
        <ele>995.9</ele>
        <time>2021-09-07T11:33:17Z</time>
      </trkpt>
      <trkpt lat="44.48539" lon="5.50014">
        <ele>996.1</ele>
        <time>2021-09-07T11:33:18Z</time>
      </trkpt>
      <trkpt lat="44.4854" lon="5.50018">
        <ele>996.2</ele>
        <time>2021-09-07T11:33:19Z</time>
      </trkpt>
      <trkpt lat="44.48542" lon="5.50022">
        <ele>996.3</ele>
        <time>2021-09-07T11:33:20Z</time>
      </trkpt>
      <trkpt lat="44.48543" lon="5.50026">
        <ele>996.3</ele>
        <time>2021-09-07T11:33:21Z</time>
      </trkpt>
      <trkpt lat="44.48545" lon="5.5003">
        <ele>996.4</ele>
        <time>2021-09-07T11:33:22Z</time>
      </trkpt>
      <trkpt lat="44.48546" lon="5.50033">
        <ele>996.4</ele>
        <time>2021-09-07T11:33:23Z</time>
      </trkpt>
      <trkpt lat="44.48548" lon="5.50036">
        <ele>996.5</ele>
        <time>2021-09-07T11:33:24Z</time>
      </trkpt>
      <trkpt lat="44.48549" lon="5.50038">
        <ele>996.5</ele>
        <time>2021-09-07T11:33:25Z</time>
      </trkpt>
      <trkpt lat="44.4855" lon="5.50039">
        <ele>996.5</ele>
        <time>2021-09-07T11:33:26Z</time>
      </trkpt>
      <trkpt lat="44.48551" lon="5.5004">
        <ele>996.5</ele>
        <time>2021-09-07T11:33:27Z</time>
      </trkpt>
      <trkpt lat="44.48552" lon="5.5004">
        <ele>996.6</ele>
        <time>2021-09-07T11:33:28Z</time>
      </trkpt>
      <trkpt lat="44.48553" lon="5.50041">
        <ele>996.6</ele>
        <time>2021-09-07T11:33:29Z</time>
      </trkpt>
      <trkpt lat="44.48554" lon="5.50042">
        <ele>996.6</ele>
        <time>2021-09-07T11:33:30Z</time>
      </trkpt>
      <trkpt lat="44.48554" lon="5.50043">
        <ele>996.6</ele>
        <time>2021-09-07T11:33:31Z</time>
      </trkpt>
      <trkpt lat="44.48554" lon="5.50045">
        <ele>996.6</ele>
        <time>2021-09-07T11:33:32Z</time>
      </trkpt>
      <trkpt lat="44.48555" lon="5.50047">
        <ele>996.6</ele>
        <time>2021-09-07T11:33:33Z</time>
      </trkpt>
      <trkpt lat="44.48555" lon="5.50049">
        <ele>996.7</ele>
        <time>2021-09-07T11:33:34Z</time>
      </trkpt>
      <trkpt lat="44.48555" lon="5.5005">
        <ele>996.7</ele>
        <time>2021-09-07T11:33:35Z</time>
      </trkpt>
      <trkpt lat="44.48555" lon="5.50053">
        <ele>996.7</ele>
        <time>2021-09-07T11:33:36Z</time>
      </trkpt>
      <trkpt lat="44.48554" lon="5.50056">
        <ele>996.7</ele>
        <time>2021-09-07T11:33:37Z</time>
      </trkpt>
      <trkpt lat="44.48553" lon="5.5006">
        <ele>996.7</ele>
        <time>2021-09-07T11:33:38Z</time>
      </trkpt>
      <trkpt lat="44.48552" lon="5.50064">
        <ele>996.8</ele>
        <time>2021-09-07T11:33:39Z</time>
      </trkpt>
      <trkpt lat="44.48552" lon="5.50067">
        <ele>996.8</ele>
        <time>2021-09-07T11:33:40Z</time>
      </trkpt>
      <trkpt lat="44.48551" lon="5.50069">
        <ele>996.8</ele>
        <time>2021-09-07T11:33:41Z</time>
      </trkpt>
      <trkpt lat="44.48551" lon="5.50073">
        <ele>996.9</ele>
        <time>2021-09-07T11:33:42Z</time>
      </trkpt>
      <trkpt lat="44.48551" lon="5.50076">
        <ele>997</ele>
        <time>2021-09-07T11:33:43Z</time>
      </trkpt>
      <trkpt lat="44.48551" lon="5.5008">
        <ele>997.2</ele>
        <time>2021-09-07T11:33:44Z</time>
      </trkpt>
      <trkpt lat="44.48552" lon="5.50083">
        <ele>997.4</ele>
        <time>2021-09-07T11:33:45Z</time>
      </trkpt>
      <trkpt lat="44.48553" lon="5.50088">
        <ele>997.8</ele>
        <time>2021-09-07T11:33:46Z</time>
      </trkpt>
      <trkpt lat="44.48553" lon="5.5009">
        <ele>997.9</ele>
        <time>2021-09-07T11:33:47Z</time>
      </trkpt>
      <trkpt lat="44.48553" lon="5.50091">
        <ele>998</ele>
        <time>2021-09-07T11:33:48Z</time>
      </trkpt>
      <trkpt lat="44.48553" lon="5.50093">
        <ele>998.2</ele>
        <time>2021-09-07T11:33:49Z</time>
      </trkpt>
      <trkpt lat="44.48553" lon="5.50094">
        <ele>998.3</ele>
        <time>2021-09-07T11:33:50Z</time>
      </trkpt>
      <trkpt lat="44.48554" lon="5.50096">
        <ele>998.5</ele>
        <time>2021-09-07T11:33:51Z</time>
      </trkpt>
      <trkpt lat="44.48556" lon="5.50097">
        <ele>998.5</ele>
        <time>2021-09-07T11:33:52Z</time>
      </trkpt>
      <trkpt lat="44.48556" lon="5.50096">
        <ele>998.6</ele>
        <time>2021-09-07T11:33:53Z</time>
      </trkpt>
      <trkpt lat="44.48557" lon="5.50095">
        <ele>998.7</ele>
        <time>2021-09-07T11:33:54Z</time>
      </trkpt>
      <trkpt lat="44.48558" lon="5.50094">
        <ele>998.8</ele>
        <time>2021-09-07T11:33:55Z</time>
      </trkpt>
      <trkpt lat="44.48558" lon="5.50093">
        <ele>998.9</ele>
        <time>2021-09-07T11:33:56Z</time>
      </trkpt>
      <trkpt lat="44.48559" lon="5.50092">
        <ele>998.9</ele>
        <time>2021-09-07T11:33:57Z</time>
      </trkpt>
      <trkpt lat="44.48559" lon="5.50092">
        <ele>999</ele>
        <time>2021-09-07T11:33:58Z</time>
      </trkpt>
      <trkpt lat="44.4856" lon="5.50091">
        <ele>999.1</ele>
        <time>2021-09-07T11:33:59Z</time>
      </trkpt>
      <trkpt lat="44.48561" lon="5.5009">
        <ele>999.2</ele>
        <time>2021-09-07T11:34:00Z</time>
      </trkpt>
      <trkpt lat="44.48561" lon="5.50089">
        <ele>999.3</ele>
        <time>2021-09-07T11:34:01Z</time>
      </trkpt>
      <trkpt lat="44.48562" lon="5.50088">
        <ele>999.4</ele>
        <time>2021-09-07T11:34:02Z</time>
      </trkpt>
      <trkpt lat="44.48563" lon="5.50087">
        <ele>999.4</ele>
        <time>2021-09-07T11:34:03Z</time>
      </trkpt>
      <trkpt lat="44.48563" lon="5.50086">
        <ele>999.5</ele>
        <time>2021-09-07T11:34:04Z</time>
      </trkpt>
      <trkpt lat="44.48564" lon="5.50085">
        <ele>999.6</ele>
        <time>2021-09-07T11:34:05Z</time>
      </trkpt>
      <trkpt lat="44.48565" lon="5.50084">
        <ele>999.7</ele>
        <time>2021-09-07T11:34:06Z</time>
      </trkpt>
      <trkpt lat="44.48568" lon="5.50077">
        <ele>1000.3</ele>
        <time>2021-09-07T11:34:07Z</time>
      </trkpt>
      <trkpt lat="44.4857" lon="5.50073">
        <ele>1000.7</ele>
        <time>2021-09-07T11:34:08Z</time>
      </trkpt>
      <trkpt lat="44.48571" lon="5.50071">
        <ele>1000.9</ele>
        <time>2021-09-07T11:34:09Z</time>
      </trkpt>
      <trkpt lat="44.48572" lon="5.50068">
        <ele>1001.1</ele>
        <time>2021-09-07T11:34:10Z</time>
      </trkpt>
      <trkpt lat="44.48573" lon="5.50066">
        <ele>1001.3</ele>
        <time>2021-09-07T11:34:11Z</time>
      </trkpt>
      <trkpt lat="44.48573" lon="5.50064">
        <ele>1001.5</ele>
        <time>2021-09-07T11:34:12Z</time>
      </trkpt>
      <trkpt lat="44.48572" lon="5.50062">
        <ele>1001.6</ele>
        <time>2021-09-07T11:34:13Z</time>
      </trkpt>
      <trkpt lat="44.48571" lon="5.50059">
        <ele>1001.9</ele>
        <time>2021-09-07T11:34:14Z</time>
      </trkpt>
      <trkpt lat="44.4857" lon="5.50058">
        <ele>1002.1</ele>
        <time>2021-09-07T11:34:15Z</time>
      </trkpt>
      <trkpt lat="44.48568" lon="5.50056">
        <ele>1002.3</ele>
        <time>2021-09-07T11:34:16Z</time>
      </trkpt>
      <trkpt lat="44.48567" lon="5.50056">
        <ele>1002.4</ele>
        <time>2021-09-07T11:34:17Z</time>
      </trkpt>
      <trkpt lat="44.48567" lon="5.50055">
        <ele>1002.4</ele>
        <time>2021-09-07T11:34:18Z</time>
      </trkpt>
      <trkpt lat="44.48567" lon="5.50055">
        <ele>1002.3</ele>
        <time>2021-09-07T11:34:19Z</time>
      </trkpt>
      <trkpt lat="44.48566" lon="5.50055">
        <ele>1002.3</ele>
        <time>2021-09-07T11:34:20Z</time>
      </trkpt>
      <trkpt lat="44.48565" lon="5.50055">
        <ele>1002.2</ele>
        <time>2021-09-07T11:34:21Z</time>
      </trkpt>
      <trkpt lat="44.48563" lon="5.50057">
        <ele>1001.9</ele>
        <time>2021-09-07T11:34:22Z</time>
      </trkpt>
      <trkpt lat="44.48561" lon="5.50059">
        <ele>1001.6</ele>
        <time>2021-09-07T11:34:23Z</time>
      </trkpt>
      <trkpt lat="44.4856" lon="5.50062">
        <ele>1001.3</ele>
        <time>2021-09-07T11:34:24Z</time>
      </trkpt>
      <trkpt lat="44.48559" lon="5.50064">
        <ele>1001.1</ele>
        <time>2021-09-07T11:34:25Z</time>
      </trkpt>
      <trkpt lat="44.48558" lon="5.50066">
        <ele>1000.8</ele>
        <time>2021-09-07T11:34:26Z</time>
      </trkpt>
      <trkpt lat="44.48551" lon="5.50078">
        <ele>999.5</ele>
        <time>2021-09-07T11:34:27Z</time>
      </trkpt>
      <trkpt lat="44.48549" lon="5.50083">
        <ele>999</ele>
        <time>2021-09-07T11:34:28Z</time>
      </trkpt>
      <trkpt lat="44.48549" lon="5.50087">
        <ele>998.8</ele>
        <time>2021-09-07T11:34:29Z</time>
      </trkpt>
      <trkpt lat="44.48549" lon="5.5009">
        <ele>998.5</ele>
        <time>2021-09-07T11:34:30Z</time>
      </trkpt>
      <trkpt lat="44.48549" lon="5.50097">
        <ele>998.3</ele>
        <time>2021-09-07T11:34:31Z</time>
      </trkpt>
      <trkpt lat="44.48549" lon="5.50105">
        <ele>998.1</ele>
        <time>2021-09-07T11:34:32Z</time>
      </trkpt>
      <trkpt lat="44.48551" lon="5.50113">
        <ele>997.8</ele>
        <time>2021-09-07T11:34:33Z</time>
      </trkpt>
      <trkpt lat="44.48553" lon="5.5012">
        <ele>997.5</ele>
        <time>2021-09-07T11:34:34Z</time>
      </trkpt>
      <trkpt lat="44.48555" lon="5.50125">
        <ele>997.3</ele>
        <time>2021-09-07T11:34:35Z</time>
      </trkpt>
      <trkpt lat="44.48557" lon="5.50129">
        <ele>997.1</ele>
        <time>2021-09-07T11:34:36Z</time>
      </trkpt>
      <trkpt lat="44.48559" lon="5.50137">
        <ele>996.8</ele>
        <time>2021-09-07T11:34:37Z</time>
      </trkpt>
      <trkpt lat="44.48561" lon="5.50143">
        <ele>996.5</ele>
        <time>2021-09-07T11:34:38Z</time>
      </trkpt>
      <trkpt lat="44.48563" lon="5.50148">
        <ele>996.3</ele>
        <time>2021-09-07T11:34:39Z</time>
      </trkpt>
      <trkpt lat="44.48565" lon="5.50156">
        <ele>996</ele>
        <time>2021-09-07T11:34:40Z</time>
      </trkpt>
      <trkpt lat="44.48566" lon="5.50163">
        <ele>994.2</ele>
        <time>2021-09-07T11:34:41Z</time>
      </trkpt>
      <trkpt lat="44.48568" lon="5.50168">
        <ele>994.3</ele>
        <time>2021-09-07T11:34:42Z</time>
      </trkpt>
      <trkpt lat="44.4857" lon="5.50173">
        <ele>994.2</ele>
        <time>2021-09-07T11:34:43Z</time>
      </trkpt>
      <trkpt lat="44.48573" lon="5.50181">
        <ele>993.4</ele>
        <time>2021-09-07T11:34:44Z</time>
      </trkpt>
      <trkpt lat="44.48576" lon="5.50187">
        <ele>993.4</ele>
        <time>2021-09-07T11:34:45Z</time>
      </trkpt>
      <trkpt lat="44.48577" lon="5.50194">
        <ele>991.9</ele>
        <time>2021-09-07T11:34:46Z</time>
      </trkpt>
      <trkpt lat="44.48578" lon="5.50199">
        <ele>991.2</ele>
        <time>2021-09-07T11:34:47Z</time>
      </trkpt>
      <trkpt lat="44.48579" lon="5.50203">
        <ele>990.5</ele>
        <time>2021-09-07T11:34:48Z</time>
      </trkpt>
      <trkpt lat="44.48581" lon="5.50211">
        <ele>990.6</ele>
        <time>2021-09-07T11:34:49Z</time>
      </trkpt>
      <trkpt lat="44.48582" lon="5.50217">
        <ele>990.1</ele>
        <time>2021-09-07T11:34:50Z</time>
      </trkpt>
      <trkpt lat="44.48582" lon="5.50222">
        <ele>989.3</ele>
        <time>2021-09-07T11:34:51Z</time>
      </trkpt>
      <trkpt lat="44.48584" lon="5.5023">
        <ele>990.1</ele>
        <time>2021-09-07T11:34:52Z</time>
      </trkpt>
      <trkpt lat="44.48584" lon="5.50238">
        <ele>989.4</ele>
        <time>2021-09-07T11:34:53Z</time>
      </trkpt>
      <trkpt lat="44.48584" lon="5.50242">
        <ele>989</ele>
        <time>2021-09-07T11:34:54Z</time>
      </trkpt>
      <trkpt lat="44.48584" lon="5.50245">
        <ele>988.7</ele>
        <time>2021-09-07T11:34:55Z</time>
      </trkpt>
      <trkpt lat="44.48582" lon="5.5025">
        <ele>987.2</ele>
        <time>2021-09-07T11:34:56Z</time>
      </trkpt>
      <trkpt lat="44.48579" lon="5.50253">
        <ele>985.8</ele>
        <time>2021-09-07T11:34:57Z</time>
      </trkpt>
      <trkpt lat="44.48577" lon="5.50255">
        <ele>985.7</ele>
        <time>2021-09-07T11:34:58Z</time>
      </trkpt>
      <trkpt lat="44.48575" lon="5.50256">
        <ele>984.5</ele>
        <time>2021-09-07T11:34:59Z</time>
      </trkpt>
      <trkpt lat="44.48572" lon="5.5026">
        <ele>983.3</ele>
        <time>2021-09-07T11:35:00Z</time>
      </trkpt>
      <trkpt lat="44.48568" lon="5.50264">
        <ele>982.1</ele>
        <time>2021-09-07T11:35:01Z</time>
      </trkpt>
      <trkpt lat="44.48566" lon="5.50267">
        <ele>980.8</ele>
        <time>2021-09-07T11:35:02Z</time>
      </trkpt>
      <trkpt lat="44.48564" lon="5.5027">
        <ele>980.7</ele>
        <time>2021-09-07T11:35:03Z</time>
      </trkpt>
      <trkpt lat="44.48562" lon="5.50273">
        <ele>979.4</ele>
        <time>2021-09-07T11:35:04Z</time>
      </trkpt>
      <trkpt lat="44.48559" lon="5.50277">
        <ele>978</ele>
        <time>2021-09-07T11:35:05Z</time>
      </trkpt>
      <trkpt lat="44.48555" lon="5.50281">
        <ele>976.7</ele>
        <time>2021-09-07T11:35:06Z</time>
      </trkpt>
      <trkpt lat="44.48553" lon="5.50284">
        <ele>975.4</ele>
        <time>2021-09-07T11:35:07Z</time>
      </trkpt>
      <trkpt lat="44.4855" lon="5.50287">
        <ele>974.1</ele>
        <time>2021-09-07T11:35:08Z</time>
      </trkpt>
      <trkpt lat="44.48547" lon="5.50292">
        <ele>972.9</ele>
        <time>2021-09-07T11:35:09Z</time>
      </trkpt>
      <trkpt lat="44.48543" lon="5.50298">
        <ele>971.8</ele>
        <time>2021-09-07T11:35:10Z</time>
      </trkpt>
      <trkpt lat="44.48541" lon="5.50301">
        <ele>970.7</ele>
        <time>2021-09-07T11:35:11Z</time>
      </trkpt>
      <trkpt lat="44.48539" lon="5.50304">
        <ele>969.6</ele>
        <time>2021-09-07T11:35:12Z</time>
      </trkpt>
      <trkpt lat="44.48534" lon="5.50316">
        <ele>968.9</ele>
        <time>2021-09-07T11:35:13Z</time>
      </trkpt>
      <trkpt lat="44.4853" lon="5.50321">
        <ele>967</ele>
        <time>2021-09-07T11:35:14Z</time>
      </trkpt>
      <trkpt lat="44.48526" lon="5.50325">
        <ele>965.9</ele>
        <time>2021-09-07T11:35:15Z</time>
      </trkpt>
      <trkpt lat="44.48524" lon="5.50328">
        <ele>964.3</ele>
        <time>2021-09-07T11:35:16Z</time>
      </trkpt>
      <trkpt lat="44.48521" lon="5.5033">
        <ele>964.6</ele>
        <time>2021-09-07T11:35:17Z</time>
      </trkpt>
      <trkpt lat="44.48519" lon="5.50333">
        <ele>963.1</ele>
        <time>2021-09-07T11:35:18Z</time>
      </trkpt>
      <trkpt lat="44.48517" lon="5.50336">
        <ele>962.1</ele>
        <time>2021-09-07T11:35:19Z</time>
      </trkpt>
      <trkpt lat="44.48515" lon="5.50342">
        <ele>962.4</ele>
        <time>2021-09-07T11:35:20Z</time>
      </trkpt>
      <trkpt lat="44.48514" lon="5.50345">
        <ele>961.5</ele>
        <time>2021-09-07T11:35:21Z</time>
      </trkpt>
      <trkpt lat="44.48513" lon="5.50347">
        <ele>961.8</ele>
        <time>2021-09-07T11:35:22Z</time>
      </trkpt>
      <trkpt lat="44.48512" lon="5.50352">
        <ele>962.2</ele>
        <time>2021-09-07T11:35:23Z</time>
      </trkpt>
      <trkpt lat="44.48511" lon="5.50357">
        <ele>961.3</ele>
        <time>2021-09-07T11:35:24Z</time>
      </trkpt>
      <trkpt lat="44.48511" lon="5.50362">
        <ele>961.7</ele>
        <time>2021-09-07T11:35:25Z</time>
      </trkpt>
      <trkpt lat="44.48511" lon="5.50365">
        <ele>962.1</ele>
        <time>2021-09-07T11:35:26Z</time>
      </trkpt>
      <trkpt lat="44.4851" lon="5.50368">
        <ele>962.6</ele>
        <time>2021-09-07T11:35:27Z</time>
      </trkpt>
      <trkpt lat="44.48509" lon="5.50374">
        <ele>963</ele>
        <time>2021-09-07T11:35:28Z</time>
      </trkpt>
      <trkpt lat="44.48508" lon="5.5038">
        <ele>962.1</ele>
        <time>2021-09-07T11:35:29Z</time>
      </trkpt>
      <trkpt lat="44.48506" lon="5.50385">
        <ele>963</ele>
        <time>2021-09-07T11:35:30Z</time>
      </trkpt>
      <trkpt lat="44.48505" lon="5.50389">
        <ele>961.4</ele>
        <time>2021-09-07T11:35:31Z</time>
      </trkpt>
      <trkpt lat="44.48504" lon="5.50392">
        <ele>961.7</ele>
        <time>2021-09-07T11:35:32Z</time>
      </trkpt>
      <trkpt lat="44.48503" lon="5.50395">
        <ele>962</ele>
        <time>2021-09-07T11:35:33Z</time>
      </trkpt>
      <trkpt lat="44.48501" lon="5.504">
        <ele>960.7</ele>
        <time>2021-09-07T11:35:34Z</time>
      </trkpt>
      <trkpt lat="44.48499" lon="5.50403">
        <ele>959.2</ele>
        <time>2021-09-07T11:35:35Z</time>
      </trkpt>
      <trkpt lat="44.48497" lon="5.50407">
        <ele>959.4</ele>
        <time>2021-09-07T11:35:36Z</time>
      </trkpt>
      <trkpt lat="44.48497" lon="5.50409">
        <ele>959.3</ele>
        <time>2021-09-07T11:35:37Z</time>
      </trkpt>
      <trkpt lat="44.48496" lon="5.5041">
        <ele>957.5</ele>
        <time>2021-09-07T11:35:38Z</time>
      </trkpt>
      <trkpt lat="44.48496" lon="5.50412">
        <ele>957.6</ele>
        <time>2021-09-07T11:35:39Z</time>
      </trkpt>
      <trkpt lat="44.48496" lon="5.50414">
        <ele>957.5</ele>
        <time>2021-09-07T11:35:40Z</time>
      </trkpt>
      <trkpt lat="44.48496" lon="5.50415">
        <ele>957.3</ele>
        <time>2021-09-07T11:35:41Z</time>
      </trkpt>
      <trkpt lat="44.48496" lon="5.50417">
        <ele>957.7</ele>
        <time>2021-09-07T11:35:42Z</time>
      </trkpt>
      <trkpt lat="44.48495" lon="5.50418">
        <ele>957.5</ele>
        <time>2021-09-07T11:35:43Z</time>
      </trkpt>
      <trkpt lat="44.48495" lon="5.50421">
        <ele>957.7</ele>
        <time>2021-09-07T11:35:44Z</time>
      </trkpt>
      <trkpt lat="44.48494" lon="5.50424">
        <ele>957.8</ele>
        <time>2021-09-07T11:35:45Z</time>
      </trkpt>
      <trkpt lat="44.48493" lon="5.50429">
        <ele>956.4</ele>
        <time>2021-09-07T11:35:46Z</time>
      </trkpt>
      <trkpt lat="44.48491" lon="5.50432">
        <ele>956.2</ele>
        <time>2021-09-07T11:35:47Z</time>
      </trkpt>
      <trkpt lat="44.48489" lon="5.50434">
        <ele>955</ele>
        <time>2021-09-07T11:35:48Z</time>
      </trkpt>
      <trkpt lat="44.48488" lon="5.50436">
        <ele>954.8</ele>
        <time>2021-09-07T11:35:49Z</time>
      </trkpt>
      <trkpt lat="44.48487" lon="5.50439">
        <ele>953.6</ele>
        <time>2021-09-07T11:35:50Z</time>
      </trkpt>
      <trkpt lat="44.48485" lon="5.50442">
        <ele>953.7</ele>
        <time>2021-09-07T11:35:51Z</time>
      </trkpt>
      <trkpt lat="44.48483" lon="5.50445">
        <ele>952.2</ele>
        <time>2021-09-07T11:35:52Z</time>
      </trkpt>
      <trkpt lat="44.48482" lon="5.50446">
        <ele>952.4</ele>
        <time>2021-09-07T11:35:53Z</time>
      </trkpt>
      <trkpt lat="44.4848" lon="5.50447">
        <ele>950.8</ele>
        <time>2021-09-07T11:35:54Z</time>
      </trkpt>
      <trkpt lat="44.4848" lon="5.50447">
        <ele>950.6</ele>
        <time>2021-09-07T11:35:55Z</time>
      </trkpt>
      <trkpt lat="44.48479" lon="5.50446">
        <ele>950.5</ele>
        <time>2021-09-07T11:35:56Z</time>
      </trkpt>
      <trkpt lat="44.48479" lon="5.50443">
        <ele>950</ele>
        <time>2021-09-07T11:35:57Z</time>
      </trkpt>
      <trkpt lat="44.48479" lon="5.50439">
        <ele>949.5</ele>
        <time>2021-09-07T11:35:58Z</time>
      </trkpt>
      <trkpt lat="44.48478" lon="5.50435">
        <ele>947.6</ele>
        <time>2021-09-07T11:35:59Z</time>
      </trkpt>
      <trkpt lat="44.48479" lon="5.50425">
        <ele>948.4</ele>
        <time>2021-09-07T11:36:00Z</time>
      </trkpt>
      <trkpt lat="44.48479" lon="5.50417">
        <ele>947.6</ele>
        <time>2021-09-07T11:36:01Z</time>
      </trkpt>
      <trkpt lat="44.48479" lon="5.50409">
        <ele>946.6</ele>
        <time>2021-09-07T11:36:02Z</time>
      </trkpt>
      <trkpt lat="44.48479" lon="5.50401">
        <ele>945.9</ele>
        <time>2021-09-07T11:36:03Z</time>
      </trkpt>
      <trkpt lat="44.48478" lon="5.50392">
        <ele>943.7</ele>
        <time>2021-09-07T11:36:04Z</time>
      </trkpt>
      <trkpt lat="44.48476" lon="5.50384">
        <ele>942.9</ele>
        <time>2021-09-07T11:36:05Z</time>
      </trkpt>
      <trkpt lat="44.48474" lon="5.50377">
        <ele>941</ele>
        <time>2021-09-07T11:36:06Z</time>
      </trkpt>
      <trkpt lat="44.48472" lon="5.5037">
        <ele>938.8</ele>
        <time>2021-09-07T11:36:07Z</time>
      </trkpt>
      <trkpt lat="44.48469" lon="5.50363">
        <ele>938.1</ele>
        <time>2021-09-07T11:36:08Z</time>
      </trkpt>
      <trkpt lat="44.48467" lon="5.50357">
        <ele>936.4</ele>
        <time>2021-09-07T11:36:09Z</time>
      </trkpt>
      <trkpt lat="44.48465" lon="5.50351">
        <ele>934.9</ele>
        <time>2021-09-07T11:36:10Z</time>
      </trkpt>
      <trkpt lat="44.48465" lon="5.50347">
        <ele>934.5</ele>
        <time>2021-09-07T11:36:11Z</time>
      </trkpt>
      <trkpt lat="44.48464" lon="5.5034">
        <ele>933.8</ele>
        <time>2021-09-07T11:36:12Z</time>
      </trkpt>
      <trkpt lat="44.48465" lon="5.50333">
        <ele>933</ele>
        <time>2021-09-07T11:36:13Z</time>
      </trkpt>
      <trkpt lat="44.48466" lon="5.50325">
        <ele>933.5</ele>
        <time>2021-09-07T11:36:14Z</time>
      </trkpt>
      <trkpt lat="44.48466" lon="5.50318">
        <ele>932.7</ele>
        <time>2021-09-07T11:36:15Z</time>
      </trkpt>
      <trkpt lat="44.48466" lon="5.5031">
        <ele>932</ele>
        <time>2021-09-07T11:36:16Z</time>
      </trkpt>
      <trkpt lat="44.48465" lon="5.50302">
        <ele>930.4</ele>
        <time>2021-09-07T11:36:17Z</time>
      </trkpt>
      <trkpt lat="44.48463" lon="5.50294">
        <ele>929.9</ele>
        <time>2021-09-07T11:36:18Z</time>
      </trkpt>
      <trkpt lat="44.4846" lon="5.50286">
        <ele>928.6</ele>
        <time>2021-09-07T11:36:19Z</time>
      </trkpt>
      <trkpt lat="44.48457" lon="5.50278">
        <ele>927.6</ele>
        <time>2021-09-07T11:36:20Z</time>
      </trkpt>
      <trkpt lat="44.48455" lon="5.50271">
        <ele>926.9</ele>
        <time>2021-09-07T11:36:21Z</time>
      </trkpt>
      <trkpt lat="44.48453" lon="5.50264">
        <ele>926.4</ele>
        <time>2021-09-07T11:36:22Z</time>
      </trkpt>
      <trkpt lat="44.48453" lon="5.50257">
        <ele>926.6</ele>
        <time>2021-09-07T11:36:23Z</time>
      </trkpt>
      <trkpt lat="44.48452" lon="5.5025">
        <ele>926.4</ele>
        <time>2021-09-07T11:36:24Z</time>
      </trkpt>
      <trkpt lat="44.48451" lon="5.50246">
        <ele>926.3</ele>
        <time>2021-09-07T11:36:25Z</time>
      </trkpt>
      <trkpt lat="44.4845" lon="5.50241">
        <ele>926.2</ele>
        <time>2021-09-07T11:36:26Z</time>
      </trkpt>
      <trkpt lat="44.48448" lon="5.50236">
        <ele>926</ele>
        <time>2021-09-07T11:36:27Z</time>
      </trkpt>
      <trkpt lat="44.48445" lon="5.50232">
        <ele>925.8</ele>
        <time>2021-09-07T11:36:28Z</time>
      </trkpt>
      <trkpt lat="44.48442" lon="5.50228">
        <ele>925.7</ele>
        <time>2021-09-07T11:36:29Z</time>
      </trkpt>
      <trkpt lat="44.48441" lon="5.50225">
        <ele>925.6</ele>
        <time>2021-09-07T11:36:30Z</time>
      </trkpt>
      <trkpt lat="44.48439" lon="5.50221">
        <ele>925.4</ele>
        <time>2021-09-07T11:36:31Z</time>
      </trkpt>
      <trkpt lat="44.48438" lon="5.5022">
        <ele>925.4</ele>
        <time>2021-09-07T11:36:32Z</time>
      </trkpt>
      <trkpt lat="44.48436" lon="5.50226">
        <ele>925.2</ele>
        <time>2021-09-07T11:36:33Z</time>
      </trkpt>
      <trkpt lat="44.48436" lon="5.50231">
        <ele>925.1</ele>
        <time>2021-09-07T11:36:34Z</time>
      </trkpt>
      <trkpt lat="44.48436" lon="5.50235">
        <ele>925</ele>
        <time>2021-09-07T11:36:35Z</time>
      </trkpt>
      <trkpt lat="44.48436" lon="5.50252">
        <ele>924.6</ele>
        <time>2021-09-07T11:36:36Z</time>
      </trkpt>
      <trkpt lat="44.48435" lon="5.50269">
        <ele>924.3</ele>
        <time>2021-09-07T11:36:37Z</time>
      </trkpt>
      <trkpt lat="44.48434" lon="5.5028">
        <ele>924.2</ele>
        <time>2021-09-07T11:36:38Z</time>
      </trkpt>
      <trkpt lat="44.48432" lon="5.50291">
        <ele>924</ele>
        <time>2021-09-07T11:36:39Z</time>
      </trkpt>
      <trkpt lat="44.4843" lon="5.50301">
        <ele>923.9</ele>
        <time>2021-09-07T11:36:40Z</time>
      </trkpt>
      <trkpt lat="44.48428" lon="5.5031">
        <ele>923.8</ele>
        <time>2021-09-07T11:36:41Z</time>
      </trkpt>
      <trkpt lat="44.48426" lon="5.5032">
        <ele>923</ele>
        <time>2021-09-07T11:36:42Z</time>
      </trkpt>
      <trkpt lat="44.48424" lon="5.5033">
        <ele>922.4</ele>
        <time>2021-09-07T11:36:43Z</time>
      </trkpt>
      <trkpt lat="44.48423" lon="5.50339">
        <ele>922</ele>
        <time>2021-09-07T11:36:44Z</time>
      </trkpt>
      <trkpt lat="44.48422" lon="5.50348">
        <ele>921.6</ele>
        <time>2021-09-07T11:36:45Z</time>
      </trkpt>
      <trkpt lat="44.4842" lon="5.50357">
        <ele>921.2</ele>
        <time>2021-09-07T11:36:46Z</time>
      </trkpt>
      <trkpt lat="44.48417" lon="5.50366">
        <ele>920.8</ele>
        <time>2021-09-07T11:36:47Z</time>
      </trkpt>
      <trkpt lat="44.48415" lon="5.50375">
        <ele>920.4</ele>
        <time>2021-09-07T11:36:48Z</time>
      </trkpt>
      <trkpt lat="44.48411" lon="5.50384">
        <ele>919.9</ele>
        <time>2021-09-07T11:36:49Z</time>
      </trkpt>
      <trkpt lat="44.48407" lon="5.50392">
        <ele>919.5</ele>
        <time>2021-09-07T11:36:50Z</time>
      </trkpt>
      <trkpt lat="44.48402" lon="5.504">
        <ele>919.3</ele>
        <time>2021-09-07T11:36:51Z</time>
      </trkpt>
      <trkpt lat="44.48397" lon="5.50407">
        <ele>919.3</ele>
        <time>2021-09-07T11:36:52Z</time>
      </trkpt>
      <trkpt lat="44.48393" lon="5.50415">
        <ele>919.2</ele>
        <time>2021-09-07T11:36:53Z</time>
      </trkpt>
      <trkpt lat="44.48388" lon="5.50424">
        <ele>919.2</ele>
        <time>2021-09-07T11:36:54Z</time>
      </trkpt>
      <trkpt lat="44.48384" lon="5.50433">
        <ele>919.1</ele>
        <time>2021-09-07T11:36:55Z</time>
      </trkpt>
      <trkpt lat="44.48379" lon="5.50441">
        <ele>918.9</ele>
        <time>2021-09-07T11:36:56Z</time>
      </trkpt>
      <trkpt lat="44.48374" lon="5.50449">
        <ele>918.7</ele>
        <time>2021-09-07T11:36:57Z</time>
      </trkpt>
      <trkpt lat="44.48369" lon="5.50457">
        <ele>918.4</ele>
        <time>2021-09-07T11:36:58Z</time>
      </trkpt>
      <trkpt lat="44.48365" lon="5.50466">
        <ele>918</ele>
        <time>2021-09-07T11:36:59Z</time>
      </trkpt>
      <trkpt lat="44.4836" lon="5.50474">
        <ele>917.7</ele>
        <time>2021-09-07T11:37:00Z</time>
      </trkpt>
      <trkpt lat="44.48356" lon="5.50483">
        <ele>917.4</ele>
        <time>2021-09-07T11:37:01Z</time>
      </trkpt>
      <trkpt lat="44.48353" lon="5.50492">
        <ele>917.2</ele>
        <time>2021-09-07T11:37:02Z</time>
      </trkpt>
      <trkpt lat="44.48349" lon="5.505">
        <ele>916.9</ele>
        <time>2021-09-07T11:37:03Z</time>
      </trkpt>
      <trkpt lat="44.48348" lon="5.50509">
        <ele>916.7</ele>
        <time>2021-09-07T11:37:04Z</time>
      </trkpt>
      <trkpt lat="44.48346" lon="5.50518">
        <ele>916.5</ele>
        <time>2021-09-07T11:37:05Z</time>
      </trkpt>
      <trkpt lat="44.48346" lon="5.50528">
        <ele>916.3</ele>
        <time>2021-09-07T11:37:06Z</time>
      </trkpt>
      <trkpt lat="44.48346" lon="5.50536">
        <ele>916</ele>
        <time>2021-09-07T11:37:07Z</time>
      </trkpt>
      <trkpt lat="44.48347" lon="5.50544">
        <ele>915.7</ele>
        <time>2021-09-07T11:37:08Z</time>
      </trkpt>
      <trkpt lat="44.48347" lon="5.50552">
        <ele>915.4</ele>
        <time>2021-09-07T11:37:09Z</time>
      </trkpt>
      <trkpt lat="44.48349" lon="5.50559">
        <ele>915.1</ele>
        <time>2021-09-07T11:37:10Z</time>
      </trkpt>
      <trkpt lat="44.4835" lon="5.50565">
        <ele>914.9</ele>
        <time>2021-09-07T11:37:11Z</time>
      </trkpt>
      <trkpt lat="44.48351" lon="5.50571">
        <ele>914.7</ele>
        <time>2021-09-07T11:37:12Z</time>
      </trkpt>
      <trkpt lat="44.48352" lon="5.50579">
        <ele>914.5</ele>
        <time>2021-09-07T11:37:13Z</time>
      </trkpt>
      <trkpt lat="44.48354" lon="5.50588">
        <ele>914.3</ele>
        <time>2021-09-07T11:37:14Z</time>
      </trkpt>
      <trkpt lat="44.48355" lon="5.50596">
        <ele>914.1</ele>
        <time>2021-09-07T11:37:15Z</time>
      </trkpt>
      <trkpt lat="44.48355" lon="5.50603">
        <ele>913.9</ele>
        <time>2021-09-07T11:37:16Z</time>
      </trkpt>
      <trkpt lat="44.48355" lon="5.50612">
        <ele>913.7</ele>
        <time>2021-09-07T11:37:17Z</time>
      </trkpt>
      <trkpt lat="44.48354" lon="5.5062">
        <ele>913.6</ele>
        <time>2021-09-07T11:37:18Z</time>
      </trkpt>
      <trkpt lat="44.48353" lon="5.50629">
        <ele>913.4</ele>
        <time>2021-09-07T11:37:19Z</time>
      </trkpt>
      <trkpt lat="44.48352" lon="5.50638">
        <ele>913.3</ele>
        <time>2021-09-07T11:37:20Z</time>
      </trkpt>
      <trkpt lat="44.48351" lon="5.50657">
        <ele>912.7</ele>
        <time>2021-09-07T11:37:21Z</time>
      </trkpt>
      <trkpt lat="44.48351" lon="5.50666">
        <ele>912.5</ele>
        <time>2021-09-07T11:37:22Z</time>
      </trkpt>
      <trkpt lat="44.48351" lon="5.50671">
        <ele>912.4</ele>
        <time>2021-09-07T11:37:23Z</time>
      </trkpt>
      <trkpt lat="44.48351" lon="5.50675">
        <ele>912.4</ele>
        <time>2021-09-07T11:37:24Z</time>
      </trkpt>
      <trkpt lat="44.48351" lon="5.50684">
        <ele>912.3</ele>
        <time>2021-09-07T11:37:25Z</time>
      </trkpt>
      <trkpt lat="44.48351" lon="5.50692">
        <ele>912.2</ele>
        <time>2021-09-07T11:37:26Z</time>
      </trkpt>
      <trkpt lat="44.4835" lon="5.50701">
        <ele>912.2</ele>
        <time>2021-09-07T11:37:27Z</time>
      </trkpt>
      <trkpt lat="44.48349" lon="5.50709">
        <ele>912.1</ele>
        <time>2021-09-07T11:37:28Z</time>
      </trkpt>
      <trkpt lat="44.48347" lon="5.50717">
        <ele>912.1</ele>
        <time>2021-09-07T11:37:29Z</time>
      </trkpt>
      <trkpt lat="44.48345" lon="5.50724">
        <ele>912.1</ele>
        <time>2021-09-07T11:37:30Z</time>
      </trkpt>
      <trkpt lat="44.48343" lon="5.50729">
        <ele>912.2</ele>
        <time>2021-09-07T11:37:31Z</time>
      </trkpt>
      <trkpt lat="44.48341" lon="5.50734">
        <ele>912.3</ele>
        <time>2021-09-07T11:37:32Z</time>
      </trkpt>
      <trkpt lat="44.48339" lon="5.50737">
        <ele>912.4</ele>
        <time>2021-09-07T11:37:33Z</time>
      </trkpt>
      <trkpt lat="44.48337" lon="5.50739">
        <ele>912.5</ele>
        <time>2021-09-07T11:37:34Z</time>
      </trkpt>
      <trkpt lat="44.48335" lon="5.50742">
        <ele>912.6</ele>
        <time>2021-09-07T11:37:35Z</time>
      </trkpt>
      <trkpt lat="44.48333" lon="5.50744">
        <ele>912.7</ele>
        <time>2021-09-07T11:37:36Z</time>
      </trkpt>
      <trkpt lat="44.48335" lon="5.50749">
        <ele>912.9</ele>
        <time>2021-09-07T11:37:37Z</time>
      </trkpt>
      <trkpt lat="44.48331" lon="5.50752">
        <ele>913.1</ele>
        <time>2021-09-07T11:37:38Z</time>
      </trkpt>
      <trkpt lat="44.48328" lon="5.50756">
        <ele>913.3</ele>
        <time>2021-09-07T11:37:39Z</time>
      </trkpt>
      <trkpt lat="44.48325" lon="5.5076">
        <ele>913.5</ele>
        <time>2021-09-07T11:37:40Z</time>
      </trkpt>
      <trkpt lat="44.48322" lon="5.50763">
        <ele>913.7</ele>
        <time>2021-09-07T11:37:41Z</time>
      </trkpt>
      <trkpt lat="44.48321" lon="5.50766">
        <ele>913.9</ele>
        <time>2021-09-07T11:37:42Z</time>
      </trkpt>
      <trkpt lat="44.48319" lon="5.50769">
        <ele>914</ele>
        <time>2021-09-07T11:37:43Z</time>
      </trkpt>
      <trkpt lat="44.48317" lon="5.50773">
        <ele>914.2</ele>
        <time>2021-09-07T11:37:44Z</time>
      </trkpt>
      <trkpt lat="44.48314" lon="5.5078">
        <ele>914.6</ele>
        <time>2021-09-07T11:37:45Z</time>
      </trkpt>
      <trkpt lat="44.48314" lon="5.50783">
        <ele>914.7</ele>
        <time>2021-09-07T11:37:46Z</time>
      </trkpt>
      <trkpt lat="44.48313" lon="5.50786">
        <ele>914.8</ele>
        <time>2021-09-07T11:37:47Z</time>
      </trkpt>
      <trkpt lat="44.48312" lon="5.50791">
        <ele>915</ele>
        <time>2021-09-07T11:37:48Z</time>
      </trkpt>
      <trkpt lat="44.48312" lon="5.50799">
        <ele>915.3</ele>
        <time>2021-09-07T11:37:49Z</time>
      </trkpt>
      <trkpt lat="44.48312" lon="5.50803">
        <ele>915.5</ele>
        <time>2021-09-07T11:37:50Z</time>
      </trkpt>
      <trkpt lat="44.48312" lon="5.50807">
        <ele>915.6</ele>
        <time>2021-09-07T11:37:51Z</time>
      </trkpt>
      <trkpt lat="44.48311" lon="5.50811">
        <ele>915.8</ele>
        <time>2021-09-07T11:37:52Z</time>
      </trkpt>
      <trkpt lat="44.48311" lon="5.50814">
        <ele>915.9</ele>
        <time>2021-09-07T11:37:53Z</time>
      </trkpt>
      <trkpt lat="44.48311" lon="5.50817">
        <ele>916</ele>
        <time>2021-09-07T11:37:54Z</time>
      </trkpt>
      <trkpt lat="44.48311" lon="5.5082">
        <ele>916.2</ele>
        <time>2021-09-07T11:37:55Z</time>
      </trkpt>
      <trkpt lat="44.48311" lon="5.50822">
        <ele>916.3</ele>
        <time>2021-09-07T11:37:56Z</time>
      </trkpt>
      <trkpt lat="44.4831" lon="5.50823">
        <ele>916.3</ele>
        <time>2021-09-07T11:37:57Z</time>
      </trkpt>
      <trkpt lat="44.4831" lon="5.50826">
        <ele>916.5</ele>
        <time>2021-09-07T11:37:58Z</time>
      </trkpt>
      <trkpt lat="44.4831" lon="5.50828">
        <ele>916.6</ele>
        <time>2021-09-07T11:37:59Z</time>
      </trkpt>
      <trkpt lat="44.4831" lon="5.5083">
        <ele>916.7</ele>
        <time>2021-09-07T11:38:00Z</time>
      </trkpt>
      <trkpt lat="44.48309" lon="5.50831">
        <ele>916.8</ele>
        <time>2021-09-07T11:38:01Z</time>
      </trkpt>
      <trkpt lat="44.48308" lon="5.5083">
        <ele>916.9</ele>
        <time>2021-09-07T11:38:02Z</time>
      </trkpt>
      <trkpt lat="44.48308" lon="5.5083">
        <ele>916.9</ele>
        <time>2021-09-07T11:38:03Z</time>
      </trkpt>
      <trkpt lat="44.48308" lon="5.5083">
        <ele>916.9</ele>
        <time>2021-09-07T11:38:04Z</time>
      </trkpt>
      <trkpt lat="44.48308" lon="5.5083">
        <ele>916.9</ele>
        <time>2021-09-07T11:38:05Z</time>
      </trkpt>
      <trkpt lat="44.48308" lon="5.5083">
        <ele>916.9</ele>
        <time>2021-09-07T11:38:06Z</time>
      </trkpt>
      <trkpt lat="44.48308" lon="5.5083">
        <ele>916.9</ele>
        <time>2021-09-07T11:38:07Z</time>
      </trkpt>
      <trkpt lat="44.48308" lon="5.5083">
        <ele>916.9</ele>
        <time>2021-09-07T11:38:08Z</time>
      </trkpt>
      <trkpt lat="44.48308" lon="5.5083">
        <ele>916.9</ele>
        <time>2021-09-07T11:38:09Z</time>
      </trkpt>
      <trkpt lat="44.48308" lon="5.5083">
        <ele>916.9</ele>
        <time>2021-09-07T11:38:10Z</time>
      </trkpt>
      <trkpt lat="44.48308" lon="5.5083">
        <ele>916.9</ele>
        <time>2021-09-07T11:38:11Z</time>
      </trkpt>
      <trkpt lat="44.48308" lon="5.5083">
        <ele>916.9</ele>
        <time>2021-09-07T11:38:12Z</time>
      </trkpt>
      <trkpt lat="44.48308" lon="5.5083">
        <ele>916.9</ele>
        <time>2021-09-07T11:38:13Z</time>
      </trkpt>
      <trkpt lat="44.48308" lon="5.50831">
        <ele>916.9</ele>
        <time>2021-09-07T11:38:14Z</time>
      </trkpt>
      <trkpt lat="44.48308" lon="5.50831">
        <ele>916.9</ele>
        <time>2021-09-07T11:38:15Z</time>
      </trkpt>
      <trkpt lat="44.48307" lon="5.50833">
        <ele>917.1</ele>
        <time>2021-09-07T11:38:16Z</time>
      </trkpt>
      <trkpt lat="44.48306" lon="5.50834">
        <ele>917.2</ele>
        <time>2021-09-07T11:38:17Z</time>
      </trkpt>
      <trkpt lat="44.48305" lon="5.50837">
        <ele>917.3</ele>
        <time>2021-09-07T11:38:18Z</time>
      </trkpt>
      <trkpt lat="44.48304" lon="5.50839">
        <ele>917.5</ele>
        <time>2021-09-07T11:38:19Z</time>
      </trkpt>
      <trkpt lat="44.48303" lon="5.50841">
        <ele>917.6</ele>
        <time>2021-09-07T11:38:20Z</time>
      </trkpt>
      <trkpt lat="44.48302" lon="5.50843">
        <ele>917.8</ele>
        <time>2021-09-07T11:38:21Z</time>
      </trkpt>
      <trkpt lat="44.48301" lon="5.50845">
        <ele>917.9</ele>
        <time>2021-09-07T11:38:22Z</time>
      </trkpt>
      <trkpt lat="44.483" lon="5.50848">
        <ele>918.1</ele>
        <time>2021-09-07T11:38:23Z</time>
      </trkpt>
      <trkpt lat="44.48298" lon="5.50852">
        <ele>918.4</ele>
        <time>2021-09-07T11:38:24Z</time>
      </trkpt>
      <trkpt lat="44.48298" lon="5.50855">
        <ele>918.6</ele>
        <time>2021-09-07T11:38:25Z</time>
      </trkpt>
      <trkpt lat="44.48298" lon="5.50856">
        <ele>918.7</ele>
        <time>2021-09-07T11:38:26Z</time>
      </trkpt>
      <trkpt lat="44.48298" lon="5.50857">
        <ele>918.8</ele>
        <time>2021-09-07T11:38:27Z</time>
      </trkpt>
      <trkpt lat="44.48297" lon="5.50858">
        <ele>918.8</ele>
        <time>2021-09-07T11:38:28Z</time>
      </trkpt>
      <trkpt lat="44.48297" lon="5.50859">
        <ele>918.9</ele>
        <time>2021-09-07T11:38:29Z</time>
      </trkpt>
      <trkpt lat="44.48296" lon="5.5086">
        <ele>919</ele>
        <time>2021-09-07T11:38:30Z</time>
      </trkpt>
      <trkpt lat="44.48296" lon="5.5086">
        <ele>919</ele>
        <time>2021-09-07T11:38:31Z</time>
      </trkpt>
      <trkpt lat="44.48296" lon="5.50861">
        <ele>919.1</ele>
        <time>2021-09-07T11:38:32Z</time>
      </trkpt>
      <trkpt lat="44.48296" lon="5.50861">
        <ele>919.1</ele>
        <time>2021-09-07T11:38:33Z</time>
      </trkpt>
      <trkpt lat="44.48296" lon="5.50861">
        <ele>919.1</ele>
        <time>2021-09-07T11:38:34Z</time>
      </trkpt>
      <trkpt lat="44.48296" lon="5.50861">
        <ele>919.1</ele>
        <time>2021-09-07T11:38:35Z</time>
      </trkpt>
      <trkpt lat="44.48296" lon="5.50862">
        <ele>919.2</ele>
        <time>2021-09-07T11:38:36Z</time>
      </trkpt>
      <trkpt lat="44.48296" lon="5.50862">
        <ele>919.2</ele>
        <time>2021-09-07T11:38:37Z</time>
      </trkpt>
      <trkpt lat="44.48296" lon="5.50862">
        <ele>919.2</ele>
        <time>2021-09-07T11:38:38Z</time>
      </trkpt>
      <trkpt lat="44.48296" lon="5.50862">
        <ele>919.2</ele>
        <time>2021-09-07T11:38:39Z</time>
      </trkpt>
      <trkpt lat="44.48296" lon="5.50862">
        <ele>919.2</ele>
        <time>2021-09-07T11:38:40Z</time>
      </trkpt>
      <trkpt lat="44.48296" lon="5.50862">
        <ele>919.2</ele>
        <time>2021-09-07T11:38:41Z</time>
      </trkpt>
      <trkpt lat="44.48296" lon="5.50862">
        <ele>919.2</ele>
        <time>2021-09-07T11:38:42Z</time>
      </trkpt>
      <trkpt lat="44.48296" lon="5.50862">
        <ele>919.2</ele>
        <time>2021-09-07T11:38:43Z</time>
      </trkpt>
      <trkpt lat="44.48296" lon="5.50863">
        <ele>919.2</ele>
        <time>2021-09-07T11:38:44Z</time>
      </trkpt>
      <trkpt lat="44.48295" lon="5.50863">
        <ele>919.3</ele>
        <time>2021-09-07T11:38:45Z</time>
      </trkpt>
      <trkpt lat="44.48294" lon="5.50865">
        <ele>919.5</ele>
        <time>2021-09-07T11:38:46Z</time>
      </trkpt>
      <trkpt lat="44.48294" lon="5.50866">
        <ele>919.6</ele>
        <time>2021-09-07T11:38:47Z</time>
      </trkpt>
      <trkpt lat="44.48294" lon="5.50867">
        <ele>919.7</ele>
        <time>2021-09-07T11:38:48Z</time>
      </trkpt>
      <trkpt lat="44.48293" lon="5.5087">
        <ele>919.9</ele>
        <time>2021-09-07T11:38:49Z</time>
      </trkpt>
      <trkpt lat="44.48292" lon="5.50871">
        <ele>920.1</ele>
        <time>2021-09-07T11:38:50Z</time>
      </trkpt>
      <trkpt lat="44.48292" lon="5.50872">
        <ele>920.2</ele>
        <time>2021-09-07T11:38:51Z</time>
      </trkpt>
      <trkpt lat="44.48292" lon="5.50873">
        <ele>920.3</ele>
        <time>2021-09-07T11:38:52Z</time>
      </trkpt>
      <trkpt lat="44.48291" lon="5.50873">
        <ele>920.3</ele>
        <time>2021-09-07T11:38:53Z</time>
      </trkpt>
      <trkpt lat="44.48291" lon="5.50874">
        <ele>920.4</ele>
        <time>2021-09-07T11:38:54Z</time>
      </trkpt>
      <trkpt lat="44.4829" lon="5.50874">
        <ele>920.6</ele>
        <time>2021-09-07T11:38:55Z</time>
      </trkpt>
      <trkpt lat="44.4829" lon="5.50875">
        <ele>920.6</ele>
        <time>2021-09-07T11:38:56Z</time>
      </trkpt>
      <trkpt lat="44.4829" lon="5.50875">
        <ele>920.6</ele>
        <time>2021-09-07T11:38:57Z</time>
      </trkpt>
      <trkpt lat="44.4829" lon="5.50875">
        <ele>920.6</ele>
        <time>2021-09-07T11:38:58Z</time>
      </trkpt>
      <trkpt lat="44.4829" lon="5.50875">
        <ele>920.6</ele>
        <time>2021-09-07T11:38:59Z</time>
      </trkpt>
      <trkpt lat="44.4829" lon="5.50876">
        <ele>920.7</ele>
        <time>2021-09-07T11:39:00Z</time>
      </trkpt>
      <trkpt lat="44.4829" lon="5.50876">
        <ele>920.7</ele>
        <time>2021-09-07T11:39:01Z</time>
      </trkpt>
      <trkpt lat="44.4829" lon="5.50877">
        <ele>920.8</ele>
        <time>2021-09-07T11:39:02Z</time>
      </trkpt>
      <trkpt lat="44.48289" lon="5.50877">
        <ele>920.9</ele>
        <time>2021-09-07T11:39:03Z</time>
      </trkpt>
      <trkpt lat="44.48287" lon="5.5088">
        <ele>921.2</ele>
        <time>2021-09-07T11:39:04Z</time>
      </trkpt>
      <trkpt lat="44.48286" lon="5.50884">
        <ele>921.6</ele>
        <time>2021-09-07T11:39:05Z</time>
      </trkpt>
      <trkpt lat="44.48286" lon="5.50886">
        <ele>921.7</ele>
        <time>2021-09-07T11:39:06Z</time>
      </trkpt>
      <trkpt lat="44.48285" lon="5.50887">
        <ele>921.9</ele>
        <time>2021-09-07T11:39:07Z</time>
      </trkpt>
      <trkpt lat="44.48285" lon="5.50889">
        <ele>922.1</ele>
        <time>2021-09-07T11:39:08Z</time>
      </trkpt>
      <trkpt lat="44.48284" lon="5.50891">
        <ele>922.2</ele>
        <time>2021-09-07T11:39:09Z</time>
      </trkpt>
      <trkpt lat="44.48283" lon="5.50893">
        <ele>922.4</ele>
        <time>2021-09-07T11:39:10Z</time>
      </trkpt>
      <trkpt lat="44.48283" lon="5.50894">
        <ele>922.5</ele>
        <time>2021-09-07T11:39:11Z</time>
      </trkpt>
      <trkpt lat="44.48282" lon="5.50896">
        <ele>922.6</ele>
        <time>2021-09-07T11:39:12Z</time>
      </trkpt>
      <trkpt lat="44.48281" lon="5.50898">
        <ele>922.8</ele>
        <time>2021-09-07T11:39:13Z</time>
      </trkpt>
      <trkpt lat="44.48281" lon="5.509">
        <ele>922.9</ele>
        <time>2021-09-07T11:39:14Z</time>
      </trkpt>
      <trkpt lat="44.4828" lon="5.50901">
        <ele>923</ele>
        <time>2021-09-07T11:39:15Z</time>
      </trkpt>
      <trkpt lat="44.48279" lon="5.50903">
        <ele>923.2</ele>
        <time>2021-09-07T11:39:16Z</time>
      </trkpt>
      <trkpt lat="44.48279" lon="5.50905">
        <ele>923.3</ele>
        <time>2021-09-07T11:39:17Z</time>
      </trkpt>
      <trkpt lat="44.48278" lon="5.50907">
        <ele>923.4</ele>
        <time>2021-09-07T11:39:18Z</time>
      </trkpt>
      <trkpt lat="44.48278" lon="5.50909">
        <ele>923.5</ele>
        <time>2021-09-07T11:39:19Z</time>
      </trkpt>
      <trkpt lat="44.48274" lon="5.50921">
        <ele>924</ele>
        <time>2021-09-07T11:39:20Z</time>
      </trkpt>
      <trkpt lat="44.48275" lon="5.50925">
        <ele>924.1</ele>
        <time>2021-09-07T11:39:21Z</time>
      </trkpt>
      <trkpt lat="44.48273" lon="5.5094">
        <ele>924</ele>
        <time>2021-09-07T11:39:22Z</time>
      </trkpt>
      <trkpt lat="44.48272" lon="5.50945">
        <ele>923.9</ele>
        <time>2021-09-07T11:39:23Z</time>
      </trkpt>
      <trkpt lat="44.4827" lon="5.50949">
        <ele>923.8</ele>
        <time>2021-09-07T11:39:24Z</time>
      </trkpt>
      <trkpt lat="44.48268" lon="5.50959">
        <ele>923.5</ele>
        <time>2021-09-07T11:39:25Z</time>
      </trkpt>
      <trkpt lat="44.48268" lon="5.50968">
        <ele>923.2</ele>
        <time>2021-09-07T11:39:26Z</time>
      </trkpt>
      <trkpt lat="44.48268" lon="5.50971">
        <ele>923.1</ele>
        <time>2021-09-07T11:39:27Z</time>
      </trkpt>
      <trkpt lat="44.48267" lon="5.50973">
        <ele>923</ele>
        <time>2021-09-07T11:39:28Z</time>
      </trkpt>
      <trkpt lat="44.48267" lon="5.50978">
        <ele>922.9</ele>
        <time>2021-09-07T11:39:29Z</time>
      </trkpt>
      <trkpt lat="44.48267" lon="5.50983">
        <ele>922.7</ele>
        <time>2021-09-07T11:39:30Z</time>
      </trkpt>
      <trkpt lat="44.48267" lon="5.50992">
        <ele>922.4</ele>
        <time>2021-09-07T11:39:31Z</time>
      </trkpt>
      <trkpt lat="44.48269" lon="5.50998">
        <ele>922.1</ele>
        <time>2021-09-07T11:39:32Z</time>
      </trkpt>
      <trkpt lat="44.4827" lon="5.51002">
        <ele>922</ele>
        <time>2021-09-07T11:39:33Z</time>
      </trkpt>
      <trkpt lat="44.4827" lon="5.51005">
        <ele>921.8</ele>
        <time>2021-09-07T11:39:34Z</time>
      </trkpt>
      <trkpt lat="44.48272" lon="5.51015">
        <ele>921.3</ele>
        <time>2021-09-07T11:39:35Z</time>
      </trkpt>
      <trkpt lat="44.48275" lon="5.51024">
        <ele>920.8</ele>
        <time>2021-09-07T11:39:36Z</time>
      </trkpt>
      <trkpt lat="44.48277" lon="5.51032">
        <ele>920.3</ele>
        <time>2021-09-07T11:39:37Z</time>
      </trkpt>
      <trkpt lat="44.4828" lon="5.51039">
        <ele>919.8</ele>
        <time>2021-09-07T11:39:38Z</time>
      </trkpt>
      <trkpt lat="44.48281" lon="5.51049">
        <ele>919.2</ele>
        <time>2021-09-07T11:39:39Z</time>
      </trkpt>
      <trkpt lat="44.48282" lon="5.51058">
        <ele>918.7</ele>
        <time>2021-09-07T11:39:40Z</time>
      </trkpt>
      <trkpt lat="44.48282" lon="5.51066">
        <ele>918.2</ele>
        <time>2021-09-07T11:39:41Z</time>
      </trkpt>
      <trkpt lat="44.48282" lon="5.51074">
        <ele>917.8</ele>
        <time>2021-09-07T11:39:42Z</time>
      </trkpt>
      <trkpt lat="44.48282" lon="5.51082">
        <ele>917.4</ele>
        <time>2021-09-07T11:39:43Z</time>
      </trkpt>
      <trkpt lat="44.48282" lon="5.5109">
        <ele>917</ele>
        <time>2021-09-07T11:39:44Z</time>
      </trkpt>
      <trkpt lat="44.48282" lon="5.51099">
        <ele>916.6</ele>
        <time>2021-09-07T11:39:45Z</time>
      </trkpt>
      <trkpt lat="44.48282" lon="5.51119">
        <ele>915.6</ele>
        <time>2021-09-07T11:39:46Z</time>
      </trkpt>
      <trkpt lat="44.48282" lon="5.51124">
        <ele>915.4</ele>
        <time>2021-09-07T11:39:47Z</time>
      </trkpt>
      <trkpt lat="44.48282" lon="5.51128">
        <ele>915.1</ele>
        <time>2021-09-07T11:39:48Z</time>
      </trkpt>
      <trkpt lat="44.48281" lon="5.51138">
        <ele>914.4</ele>
        <time>2021-09-07T11:39:49Z</time>
      </trkpt>
      <trkpt lat="44.4828" lon="5.51148">
        <ele>913.7</ele>
        <time>2021-09-07T11:39:50Z</time>
      </trkpt>
      <trkpt lat="44.48276" lon="5.51165">
        <ele>912.3</ele>
        <time>2021-09-07T11:39:51Z</time>
      </trkpt>
      <trkpt lat="44.48275" lon="5.51169">
        <ele>912</ele>
        <time>2021-09-07T11:39:52Z</time>
      </trkpt>
      <trkpt lat="44.48274" lon="5.51172">
        <ele>911.8</ele>
        <time>2021-09-07T11:39:53Z</time>
      </trkpt>
      <trkpt lat="44.48273" lon="5.51178">
        <ele>911.3</ele>
        <time>2021-09-07T11:39:54Z</time>
      </trkpt>
      <trkpt lat="44.48273" lon="5.51182">
        <ele>911</ele>
        <time>2021-09-07T11:39:55Z</time>
      </trkpt>
      <trkpt lat="44.48272" lon="5.51186">
        <ele>910.6</ele>
        <time>2021-09-07T11:39:56Z</time>
      </trkpt>
      <trkpt lat="44.4827" lon="5.51191">
        <ele>910.1</ele>
        <time>2021-09-07T11:39:57Z</time>
      </trkpt>
      <trkpt lat="44.48267" lon="5.51196">
        <ele>909.5</ele>
        <time>2021-09-07T11:39:58Z</time>
      </trkpt>
      <trkpt lat="44.48263" lon="5.51199">
        <ele>908.9</ele>
        <time>2021-09-07T11:39:59Z</time>
      </trkpt>
      <trkpt lat="44.48258" lon="5.51202">
        <ele>908.2</ele>
        <time>2021-09-07T11:40:00Z</time>
      </trkpt>
      <trkpt lat="44.48256" lon="5.51199">
        <ele>907.7</ele>
        <time>2021-09-07T11:40:01Z</time>
      </trkpt>
      <trkpt lat="44.48252" lon="5.51203">
        <ele>907</ele>
        <time>2021-09-07T11:40:02Z</time>
      </trkpt>
      <trkpt lat="44.48247" lon="5.51207">
        <ele>906.3</ele>
        <time>2021-09-07T11:40:03Z</time>
      </trkpt>
      <trkpt lat="44.48244" lon="5.51209">
        <ele>905.8</ele>
        <time>2021-09-07T11:40:04Z</time>
      </trkpt>
      <trkpt lat="44.48241" lon="5.51211">
        <ele>905.4</ele>
        <time>2021-09-07T11:40:05Z</time>
      </trkpt>
      <trkpt lat="44.48238" lon="5.51214">
        <ele>905</ele>
        <time>2021-09-07T11:40:06Z</time>
      </trkpt>
      <trkpt lat="44.48231" lon="5.5122">
        <ele>904.1</ele>
        <time>2021-09-07T11:40:07Z</time>
      </trkpt>
      <trkpt lat="44.48227" lon="5.51222">
        <ele>903.7</ele>
        <time>2021-09-07T11:40:08Z</time>
      </trkpt>
      <trkpt lat="44.48225" lon="5.51225">
        <ele>903.4</ele>
        <time>2021-09-07T11:40:09Z</time>
      </trkpt>
      <trkpt lat="44.48223" lon="5.51227">
        <ele>903.1</ele>
        <time>2021-09-07T11:40:10Z</time>
      </trkpt>
      <trkpt lat="44.48221" lon="5.5123">
        <ele>902.8</ele>
        <time>2021-09-07T11:40:11Z</time>
      </trkpt>
      <trkpt lat="44.48218" lon="5.51232">
        <ele>902.5</ele>
        <time>2021-09-07T11:40:12Z</time>
      </trkpt>
      <trkpt lat="44.48214" lon="5.51232">
        <ele>902.1</ele>
        <time>2021-09-07T11:40:13Z</time>
      </trkpt>
      <trkpt lat="44.4821" lon="5.51232">
        <ele>901.7</ele>
        <time>2021-09-07T11:40:14Z</time>
      </trkpt>
      <trkpt lat="44.48208" lon="5.51233">
        <ele>901.5</ele>
        <time>2021-09-07T11:40:15Z</time>
      </trkpt>
      <trkpt lat="44.48206" lon="5.51233">
        <ele>901.3</ele>
        <time>2021-09-07T11:40:16Z</time>
      </trkpt>
      <trkpt lat="44.48203" lon="5.51236">
        <ele>900.9</ele>
        <time>2021-09-07T11:40:17Z</time>
      </trkpt>
      <trkpt lat="44.48199" lon="5.51239">
        <ele>900.5</ele>
        <time>2021-09-07T11:40:18Z</time>
      </trkpt>
      <trkpt lat="44.48199" lon="5.5124">
        <ele>900.4</ele>
        <time>2021-09-07T11:40:19Z</time>
      </trkpt>
      <trkpt lat="44.48198" lon="5.51241">
        <ele>900.3</ele>
        <time>2021-09-07T11:40:20Z</time>
      </trkpt>
      <trkpt lat="44.48198" lon="5.51241">
        <ele>900.3</ele>
        <time>2021-09-07T11:40:21Z</time>
      </trkpt>
      <trkpt lat="44.48197" lon="5.51241">
        <ele>900.2</ele>
        <time>2021-09-07T11:40:22Z</time>
      </trkpt>
      <trkpt lat="44.48197" lon="5.51241">
        <ele>900.2</ele>
        <time>2021-09-07T11:40:23Z</time>
      </trkpt>
      <trkpt lat="44.48195" lon="5.51242">
        <ele>900</ele>
        <time>2021-09-07T11:40:24Z</time>
      </trkpt>
      <trkpt lat="44.48193" lon="5.51242">
        <ele>899.8</ele>
        <time>2021-09-07T11:40:25Z</time>
      </trkpt>
      <trkpt lat="44.48189" lon="5.51242">
        <ele>899.3</ele>
        <time>2021-09-07T11:40:26Z</time>
      </trkpt>
      <trkpt lat="44.48186" lon="5.51242">
        <ele>899</ele>
        <time>2021-09-07T11:40:27Z</time>
      </trkpt>
      <trkpt lat="44.48185" lon="5.51243">
        <ele>898.9</ele>
        <time>2021-09-07T11:40:28Z</time>
      </trkpt>
      <trkpt lat="44.48183" lon="5.51243">
        <ele>898.7</ele>
        <time>2021-09-07T11:40:29Z</time>
      </trkpt>
      <trkpt lat="44.48183" lon="5.51243">
        <ele>898.7</ele>
        <time>2021-09-07T11:40:30Z</time>
      </trkpt>
      <trkpt lat="44.48182" lon="5.51243">
        <ele>898.8</ele>
        <time>2021-09-07T11:40:31Z</time>
      </trkpt>
      <trkpt lat="44.48182" lon="5.51243">
        <ele>898.8</ele>
        <time>2021-09-07T11:40:32Z</time>
      </trkpt>
      <trkpt lat="44.48182" lon="5.51244">
        <ele>898.8</ele>
        <time>2021-09-07T11:40:33Z</time>
      </trkpt>
      <trkpt lat="44.48182" lon="5.51245">
        <ele>898.9</ele>
        <time>2021-09-07T11:40:34Z</time>
      </trkpt>
      <trkpt lat="44.48183" lon="5.51245">
        <ele>899</ele>
        <time>2021-09-07T11:40:35Z</time>
      </trkpt>
      <trkpt lat="44.48185" lon="5.51244">
        <ele>899.2</ele>
        <time>2021-09-07T11:40:36Z</time>
      </trkpt>
      <trkpt lat="44.48187" lon="5.51242">
        <ele>899.4</ele>
        <time>2021-09-07T11:40:37Z</time>
      </trkpt>
      <trkpt lat="44.4819" lon="5.51238">
        <ele>899.9</ele>
        <time>2021-09-07T11:40:38Z</time>
      </trkpt>
      <trkpt lat="44.48193" lon="5.51235">
        <ele>900.2</ele>
        <time>2021-09-07T11:40:39Z</time>
      </trkpt>
      <trkpt lat="44.48196" lon="5.51231">
        <ele>900.6</ele>
        <time>2021-09-07T11:40:40Z</time>
      </trkpt>
      <trkpt lat="44.48198" lon="5.51228">
        <ele>900.9</ele>
        <time>2021-09-07T11:40:41Z</time>
      </trkpt>
      <trkpt lat="44.48201" lon="5.51224">
        <ele>901.3</ele>
        <time>2021-09-07T11:40:42Z</time>
      </trkpt>
      <trkpt lat="44.48203" lon="5.51219">
        <ele>901.7</ele>
        <time>2021-09-07T11:40:43Z</time>
      </trkpt>
      <trkpt lat="44.48205" lon="5.51213">
        <ele>902.1</ele>
        <time>2021-09-07T11:40:44Z</time>
      </trkpt>
      <trkpt lat="44.48208" lon="5.51206">
        <ele>902.7</ele>
        <time>2021-09-07T11:40:45Z</time>
      </trkpt>
      <trkpt lat="44.48211" lon="5.51198">
        <ele>903.2</ele>
        <time>2021-09-07T11:40:46Z</time>
      </trkpt>
      <trkpt lat="44.48215" lon="5.5119">
        <ele>903.9</ele>
        <time>2021-09-07T11:40:47Z</time>
      </trkpt>
      <trkpt lat="44.48218" lon="5.51181">
        <ele>904.6</ele>
        <time>2021-09-07T11:40:48Z</time>
      </trkpt>
      <trkpt lat="44.48222" lon="5.51174">
        <ele>905.3</ele>
        <time>2021-09-07T11:40:49Z</time>
      </trkpt>
      <trkpt lat="44.48226" lon="5.51168">
        <ele>905.9</ele>
        <time>2021-09-07T11:40:50Z</time>
      </trkpt>
      <trkpt lat="44.48229" lon="5.51163">
        <ele>906.5</ele>
        <time>2021-09-07T11:40:51Z</time>
      </trkpt>
      <trkpt lat="44.48232" lon="5.51158">
        <ele>906.6</ele>
        <time>2021-09-07T11:40:52Z</time>
      </trkpt>
      <trkpt lat="44.48233" lon="5.51154">
        <ele>905.6</ele>
        <time>2021-09-07T11:40:53Z</time>
      </trkpt>
      <trkpt lat="44.48233" lon="5.5115">
        <ele>904.6</ele>
        <time>2021-09-07T11:40:54Z</time>
      </trkpt>
      <trkpt lat="44.48232" lon="5.51147">
        <ele>903.5</ele>
        <time>2021-09-07T11:40:55Z</time>
      </trkpt>
      <trkpt lat="44.48229" lon="5.51145">
        <ele>901.6</ele>
        <time>2021-09-07T11:40:56Z</time>
      </trkpt>
      <trkpt lat="44.48227" lon="5.51144">
        <ele>900.5</ele>
        <time>2021-09-07T11:40:57Z</time>
      </trkpt>
      <trkpt lat="44.48223" lon="5.51145">
        <ele>897.1</ele>
        <time>2021-09-07T11:40:58Z</time>
      </trkpt>
      <trkpt lat="44.48218" lon="5.51145">
        <ele>895.4</ele>
        <time>2021-09-07T11:40:59Z</time>
      </trkpt>
      <trkpt lat="44.48214" lon="5.51146">
        <ele>891.8</ele>
        <time>2021-09-07T11:41:00Z</time>
      </trkpt>
      <trkpt lat="44.48209" lon="5.51147">
        <ele>889.8</ele>
        <time>2021-09-07T11:41:01Z</time>
      </trkpt>
      <trkpt lat="44.48204" lon="5.5115">
        <ele>887.1</ele>
        <time>2021-09-07T11:41:02Z</time>
      </trkpt>
      <trkpt lat="44.48198" lon="5.51152">
        <ele>883.9</ele>
        <time>2021-09-07T11:41:03Z</time>
      </trkpt>
      <trkpt lat="44.48192" lon="5.51156">
        <ele>880.9</ele>
        <time>2021-09-07T11:41:04Z</time>
      </trkpt>
      <trkpt lat="44.48186" lon="5.51159">
        <ele>878</ele>
        <time>2021-09-07T11:41:05Z</time>
      </trkpt>
      <trkpt lat="44.48178" lon="5.51163">
        <ele>877</ele>
        <time>2021-09-07T11:41:06Z</time>
      </trkpt>
      <trkpt lat="44.48169" lon="5.51169">
        <ele>875.9</ele>
        <time>2021-09-07T11:41:07Z</time>
      </trkpt>
      <trkpt lat="44.48161" lon="5.51174">
        <ele>874.9</ele>
        <time>2021-09-07T11:41:08Z</time>
      </trkpt>
      <trkpt lat="44.48152" lon="5.51179">
        <ele>874.1</ele>
        <time>2021-09-07T11:41:09Z</time>
      </trkpt>
      <trkpt lat="44.48144" lon="5.51183">
        <ele>873.4</ele>
        <time>2021-09-07T11:41:10Z</time>
      </trkpt>
      <trkpt lat="44.48136" lon="5.51186">
        <ele>872.9</ele>
        <time>2021-09-07T11:41:11Z</time>
      </trkpt>
      <trkpt lat="44.4813" lon="5.51188">
        <ele>872.5</ele>
        <time>2021-09-07T11:41:12Z</time>
      </trkpt>
      <trkpt lat="44.48125" lon="5.51191">
        <ele>872.2</ele>
        <time>2021-09-07T11:41:13Z</time>
      </trkpt>
      <trkpt lat="44.4812" lon="5.51194">
        <ele>872</ele>
        <time>2021-09-07T11:41:14Z</time>
      </trkpt>
      <trkpt lat="44.48116" lon="5.51199">
        <ele>871.8</ele>
        <time>2021-09-07T11:41:15Z</time>
      </trkpt>
      <trkpt lat="44.48112" lon="5.51203">
        <ele>871.6</ele>
        <time>2021-09-07T11:41:16Z</time>
      </trkpt>
      <trkpt lat="44.48109" lon="5.51209">
        <ele>871.3</ele>
        <time>2021-09-07T11:41:17Z</time>
      </trkpt>
      <trkpt lat="44.48107" lon="5.51215">
        <ele>871.1</ele>
        <time>2021-09-07T11:41:18Z</time>
      </trkpt>
      <trkpt lat="44.48105" lon="5.51221">
        <ele>870.8</ele>
        <time>2021-09-07T11:41:19Z</time>
      </trkpt>
      <trkpt lat="44.48102" lon="5.51227">
        <ele>870.4</ele>
        <time>2021-09-07T11:41:20Z</time>
      </trkpt>
      <trkpt lat="44.48098" lon="5.51241">
        <ele>869.4</ele>
        <time>2021-09-07T11:41:21Z</time>
      </trkpt>
      <trkpt lat="44.48096" lon="5.51245">
        <ele>869</ele>
        <time>2021-09-07T11:41:22Z</time>
      </trkpt>
      <trkpt lat="44.48094" lon="5.51248">
        <ele>868.6</ele>
        <time>2021-09-07T11:41:23Z</time>
      </trkpt>
      <trkpt lat="44.48092" lon="5.51252">
        <ele>868.1</ele>
        <time>2021-09-07T11:41:24Z</time>
      </trkpt>
      <trkpt lat="44.48088" lon="5.51257">
        <ele>867.2</ele>
        <time>2021-09-07T11:41:25Z</time>
      </trkpt>
      <trkpt lat="44.48084" lon="5.51262">
        <ele>866.4</ele>
        <time>2021-09-07T11:41:26Z</time>
      </trkpt>
      <trkpt lat="44.48076" lon="5.51272">
        <ele>865.1</ele>
        <time>2021-09-07T11:41:27Z</time>
      </trkpt>
      <trkpt lat="44.48074" lon="5.51276">
        <ele>864.8</ele>
        <time>2021-09-07T11:41:28Z</time>
      </trkpt>
      <trkpt lat="44.48072" lon="5.51279">
        <ele>864.5</ele>
        <time>2021-09-07T11:41:29Z</time>
      </trkpt>
      <trkpt lat="44.48068" lon="5.51286">
        <ele>863.9</ele>
        <time>2021-09-07T11:41:30Z</time>
      </trkpt>
      <trkpt lat="44.48065" lon="5.51295">
        <ele>863.3</ele>
        <time>2021-09-07T11:41:31Z</time>
      </trkpt>
      <trkpt lat="44.48062" lon="5.51304">
        <ele>862.6</ele>
        <time>2021-09-07T11:41:32Z</time>
      </trkpt>
      <trkpt lat="44.48059" lon="5.51315">
        <ele>861.9</ele>
        <time>2021-09-07T11:41:33Z</time>
      </trkpt>
      <trkpt lat="44.48056" lon="5.51325">
        <ele>861.2</ele>
        <time>2021-09-07T11:41:34Z</time>
      </trkpt>
      <trkpt lat="44.48053" lon="5.51335">
        <ele>860.6</ele>
        <time>2021-09-07T11:41:35Z</time>
      </trkpt>
      <trkpt lat="44.4805" lon="5.51344">
        <ele>860.1</ele>
        <time>2021-09-07T11:41:36Z</time>
      </trkpt>
      <trkpt lat="44.48046" lon="5.51352">
        <ele>859.6</ele>
        <time>2021-09-07T11:41:37Z</time>
      </trkpt>
      <trkpt lat="44.48042" lon="5.5136">
        <ele>859.1</ele>
        <time>2021-09-07T11:41:38Z</time>
      </trkpt>
      <trkpt lat="44.48038" lon="5.51369">
        <ele>858.6</ele>
        <time>2021-09-07T11:41:39Z</time>
      </trkpt>
      <trkpt lat="44.48033" lon="5.51378">
        <ele>858</ele>
        <time>2021-09-07T11:41:40Z</time>
      </trkpt>
      <trkpt lat="44.48029" lon="5.51387">
        <ele>857.5</ele>
        <time>2021-09-07T11:41:41Z</time>
      </trkpt>
      <trkpt lat="44.48024" lon="5.51397">
        <ele>856.8</ele>
        <time>2021-09-07T11:41:42Z</time>
      </trkpt>
      <trkpt lat="44.48019" lon="5.51406">
        <ele>856.1</ele>
        <time>2021-09-07T11:41:43Z</time>
      </trkpt>
      <trkpt lat="44.48014" lon="5.51416">
        <ele>855.4</ele>
        <time>2021-09-07T11:41:44Z</time>
      </trkpt>
      <trkpt lat="44.48005" lon="5.51434">
        <ele>853.8</ele>
        <time>2021-09-07T11:41:45Z</time>
      </trkpt>
      <trkpt lat="44.48003" lon="5.5144">
        <ele>853.2</ele>
        <time>2021-09-07T11:41:46Z</time>
      </trkpt>
      <trkpt lat="44.48" lon="5.51447">
        <ele>852.6</ele>
        <time>2021-09-07T11:41:47Z</time>
      </trkpt>
      <trkpt lat="44.47998" lon="5.51453">
        <ele>852.1</ele>
        <time>2021-09-07T11:41:48Z</time>
      </trkpt>
      <trkpt lat="44.47994" lon="5.51463">
        <ele>851.3</ele>
        <time>2021-09-07T11:41:49Z</time>
      </trkpt>
      <trkpt lat="44.47991" lon="5.51473">
        <ele>850.6</ele>
        <time>2021-09-07T11:41:50Z</time>
      </trkpt>
      <trkpt lat="44.47989" lon="5.51482">
        <ele>849.9</ele>
        <time>2021-09-07T11:41:51Z</time>
      </trkpt>
      <trkpt lat="44.47986" lon="5.51491">
        <ele>849.2</ele>
        <time>2021-09-07T11:41:52Z</time>
      </trkpt>
      <trkpt lat="44.47984" lon="5.51498">
        <ele>848.7</ele>
        <time>2021-09-07T11:41:53Z</time>
      </trkpt>
      <trkpt lat="44.47981" lon="5.51504">
        <ele>848.3</ele>
        <time>2021-09-07T11:41:54Z</time>
      </trkpt>
      <trkpt lat="44.47978" lon="5.5151">
        <ele>848</ele>
        <time>2021-09-07T11:41:55Z</time>
      </trkpt>
      <trkpt lat="44.47973" lon="5.51515">
        <ele>847.7</ele>
        <time>2021-09-07T11:41:56Z</time>
      </trkpt>
      <trkpt lat="44.47968" lon="5.5152">
        <ele>847.3</ele>
        <time>2021-09-07T11:41:57Z</time>
      </trkpt>
      <trkpt lat="44.47962" lon="5.51526">
        <ele>843.4</ele>
        <time>2021-09-07T11:41:58Z</time>
      </trkpt>
      <trkpt lat="44.47955" lon="5.51531">
        <ele>840.2</ele>
        <time>2021-09-07T11:41:59Z</time>
      </trkpt>
      <trkpt lat="44.47948" lon="5.51538">
        <ele>835.9</ele>
        <time>2021-09-07T11:42:00Z</time>
      </trkpt>
      <trkpt lat="44.4794" lon="5.51544">
        <ele>833</ele>
        <time>2021-09-07T11:42:01Z</time>
      </trkpt>
      <trkpt lat="44.47934" lon="5.51551">
        <ele>830.2</ele>
        <time>2021-09-07T11:42:02Z</time>
      </trkpt>
      <trkpt lat="44.47929" lon="5.51558">
        <ele>827.8</ele>
        <time>2021-09-07T11:42:03Z</time>
      </trkpt>
      <trkpt lat="44.47923" lon="5.51564">
        <ele>825.4</ele>
        <time>2021-09-07T11:42:04Z</time>
      </trkpt>
      <trkpt lat="44.47918" lon="5.51571">
        <ele>823.8</ele>
        <time>2021-09-07T11:42:05Z</time>
      </trkpt>
      <trkpt lat="44.47914" lon="5.51578">
        <ele>821.8</ele>
        <time>2021-09-07T11:42:06Z</time>
      </trkpt>
      <trkpt lat="44.47909" lon="5.51585">
        <ele>820.5</ele>
        <time>2021-09-07T11:42:07Z</time>
      </trkpt>
      <trkpt lat="44.47903" lon="5.51592">
        <ele>821</ele>
        <time>2021-09-07T11:42:08Z</time>
      </trkpt>
      <trkpt lat="44.47893" lon="5.51606">
        <ele>822.3</ele>
        <time>2021-09-07T11:42:09Z</time>
      </trkpt>
      <trkpt lat="44.4789" lon="5.51611">
        <ele>822.9</ele>
        <time>2021-09-07T11:42:10Z</time>
      </trkpt>
      <trkpt lat="44.47886" lon="5.51615">
        <ele>823.5</ele>
        <time>2021-09-07T11:42:11Z</time>
      </trkpt>
      <trkpt lat="44.47883" lon="5.5162">
        <ele>824.1</ele>
        <time>2021-09-07T11:42:12Z</time>
      </trkpt>
      <trkpt lat="44.47878" lon="5.51626">
        <ele>824.8</ele>
        <time>2021-09-07T11:42:13Z</time>
      </trkpt>
      <trkpt lat="44.47873" lon="5.51632">
        <ele>825.5</ele>
        <time>2021-09-07T11:42:14Z</time>
      </trkpt>
      <trkpt lat="44.47868" lon="5.51636">
        <ele>826</ele>
        <time>2021-09-07T11:42:15Z</time>
      </trkpt>
      <trkpt lat="44.47863" lon="5.5164">
        <ele>826.6</ele>
        <time>2021-09-07T11:42:16Z</time>
      </trkpt>
      <trkpt lat="44.4786" lon="5.51641">
        <ele>826.9</ele>
        <time>2021-09-07T11:42:17Z</time>
      </trkpt>
      <trkpt lat="44.47857" lon="5.51642">
        <ele>827.2</ele>
        <time>2021-09-07T11:42:18Z</time>
      </trkpt>
      <trkpt lat="44.47856" lon="5.51641">
        <ele>827.2</ele>
        <time>2021-09-07T11:42:19Z</time>
      </trkpt>
      <trkpt lat="44.47855" lon="5.5164">
        <ele>827</ele>
        <time>2021-09-07T11:42:20Z</time>
      </trkpt>
      <trkpt lat="44.47856" lon="5.51635">
        <ele>826.6</ele>
        <time>2021-09-07T11:42:21Z</time>
      </trkpt>
      <trkpt lat="44.47857" lon="5.51633">
        <ele>826.4</ele>
        <time>2021-09-07T11:42:22Z</time>
      </trkpt>
      <trkpt lat="44.47858" lon="5.5163">
        <ele>826.2</ele>
        <time>2021-09-07T11:42:23Z</time>
      </trkpt>
      <trkpt lat="44.47859" lon="5.51626">
        <ele>825.8</ele>
        <time>2021-09-07T11:42:24Z</time>
      </trkpt>
      <trkpt lat="44.47861" lon="5.51622">
        <ele>825.4</ele>
        <time>2021-09-07T11:42:25Z</time>
      </trkpt>
      <trkpt lat="44.47863" lon="5.51618">
        <ele>825</ele>
        <time>2021-09-07T11:42:26Z</time>
      </trkpt>
      <trkpt lat="44.47868" lon="5.51607">
        <ele>823.8</ele>
        <time>2021-09-07T11:42:27Z</time>
      </trkpt>
      <trkpt lat="44.47869" lon="5.51604">
        <ele>823.4</ele>
        <time>2021-09-07T11:42:28Z</time>
      </trkpt>
      <trkpt lat="44.4787" lon="5.516">
        <ele>823</ele>
        <time>2021-09-07T11:42:29Z</time>
      </trkpt>
      <trkpt lat="44.47873" lon="5.51592">
        <ele>822.1</ele>
        <time>2021-09-07T11:42:30Z</time>
      </trkpt>
      <trkpt lat="44.47876" lon="5.51586">
        <ele>821.5</ele>
        <time>2021-09-07T11:42:31Z</time>
      </trkpt>
      <trkpt lat="44.47879" lon="5.5158">
        <ele>821</ele>
        <time>2021-09-07T11:42:32Z</time>
      </trkpt>
      <trkpt lat="44.47881" lon="5.51576">
        <ele>820.7</ele>
        <time>2021-09-07T11:42:33Z</time>
      </trkpt>
      <trkpt lat="44.47883" lon="5.51572">
        <ele>820.5</ele>
        <time>2021-09-07T11:42:34Z</time>
      </trkpt>
      <trkpt lat="44.47885" lon="5.51568">
        <ele>820.2</ele>
        <time>2021-09-07T11:42:35Z</time>
      </trkpt>
      <trkpt lat="44.47887" lon="5.51563">
        <ele>819.9</ele>
        <time>2021-09-07T11:42:36Z</time>
      </trkpt>
      <trkpt lat="44.47889" lon="5.51557">
        <ele>819.5</ele>
        <time>2021-09-07T11:42:37Z</time>
      </trkpt>
      <trkpt lat="44.4789" lon="5.51551">
        <ele>819</ele>
        <time>2021-09-07T11:42:38Z</time>
      </trkpt>
      <trkpt lat="44.47892" lon="5.51545">
        <ele>818.5</ele>
        <time>2021-09-07T11:42:39Z</time>
      </trkpt>
      <trkpt lat="44.47893" lon="5.51538">
        <ele>818</ele>
        <time>2021-09-07T11:42:40Z</time>
      </trkpt>
      <trkpt lat="44.47893" lon="5.51531">
        <ele>817.5</ele>
        <time>2021-09-07T11:42:41Z</time>
      </trkpt>
      <trkpt lat="44.47892" lon="5.51523">
        <ele>816.8</ele>
        <time>2021-09-07T11:42:42Z</time>
      </trkpt>
      <trkpt lat="44.47891" lon="5.51507">
        <ele>815.8</ele>
        <time>2021-09-07T11:42:43Z</time>
      </trkpt>
      <trkpt lat="44.47891" lon="5.51499">
        <ele>815.3</ele>
        <time>2021-09-07T11:42:44Z</time>
      </trkpt>
      <trkpt lat="44.4789" lon="5.5149">
        <ele>814.8</ele>
        <time>2021-09-07T11:42:45Z</time>
      </trkpt>
      <trkpt lat="44.4789" lon="5.51485">
        <ele>814.5</ele>
        <time>2021-09-07T11:42:46Z</time>
      </trkpt>
      <trkpt lat="44.4789" lon="5.5148">
        <ele>814.2</ele>
        <time>2021-09-07T11:42:47Z</time>
      </trkpt>
      <trkpt lat="44.4789" lon="5.51461">
        <ele>813.2</ele>
        <time>2021-09-07T11:42:48Z</time>
      </trkpt>
      <trkpt lat="44.4789" lon="5.51457">
        <ele>812.9</ele>
        <time>2021-09-07T11:42:49Z</time>
      </trkpt>
      <trkpt lat="44.4789" lon="5.51452">
        <ele>812.7</ele>
        <time>2021-09-07T11:42:50Z</time>
      </trkpt>
      <trkpt lat="44.47891" lon="5.51435">
        <ele>811.5</ele>
        <time>2021-09-07T11:42:51Z</time>
      </trkpt>
      <trkpt lat="44.47892" lon="5.51432">
        <ele>811.3</ele>
        <time>2021-09-07T11:42:52Z</time>
      </trkpt>
      <trkpt lat="44.47892" lon="5.51428">
        <ele>811.1</ele>
        <time>2021-09-07T11:42:53Z</time>
      </trkpt>
      <trkpt lat="44.47892" lon="5.5142">
        <ele>810.7</ele>
        <time>2021-09-07T11:42:54Z</time>
      </trkpt>
      <trkpt lat="44.47892" lon="5.5141">
        <ele>810.1</ele>
        <time>2021-09-07T11:42:55Z</time>
      </trkpt>
      <trkpt lat="44.47892" lon="5.514">
        <ele>809.5</ele>
        <time>2021-09-07T11:42:56Z</time>
      </trkpt>
      <trkpt lat="44.47892" lon="5.51388">
        <ele>808.6</ele>
        <time>2021-09-07T11:42:57Z</time>
      </trkpt>
      <trkpt lat="44.47892" lon="5.51376">
        <ele>807.6</ele>
        <time>2021-09-07T11:42:58Z</time>
      </trkpt>
      <trkpt lat="44.47892" lon="5.51364">
        <ele>806.6</ele>
        <time>2021-09-07T11:42:59Z</time>
      </trkpt>
      <trkpt lat="44.47892" lon="5.51351">
        <ele>805.7</ele>
        <time>2021-09-07T11:43:00Z</time>
      </trkpt>
      <trkpt lat="44.47892" lon="5.51341">
        <ele>804.9</ele>
        <time>2021-09-07T11:43:01Z</time>
      </trkpt>
      <trkpt lat="44.47891" lon="5.51331">
        <ele>804.1</ele>
        <time>2021-09-07T11:43:02Z</time>
      </trkpt>
      <trkpt lat="44.4789" lon="5.51325">
        <ele>803.6</ele>
        <time>2021-09-07T11:43:03Z</time>
      </trkpt>
      <trkpt lat="44.47889" lon="5.51318">
        <ele>803.1</ele>
        <time>2021-09-07T11:43:04Z</time>
      </trkpt>
      <trkpt lat="44.47888" lon="5.51312">
        <ele>802.7</ele>
        <time>2021-09-07T11:43:05Z</time>
      </trkpt>
      <trkpt lat="44.47887" lon="5.51309">
        <ele>802.4</ele>
        <time>2021-09-07T11:43:06Z</time>
      </trkpt>
      <trkpt lat="44.47887" lon="5.51306">
        <ele>802.2</ele>
        <time>2021-09-07T11:43:07Z</time>
      </trkpt>
      <trkpt lat="44.47887" lon="5.51302">
        <ele>802</ele>
        <time>2021-09-07T11:43:08Z</time>
      </trkpt>
      <trkpt lat="44.47885" lon="5.51291">
        <ele>801.3</ele>
        <time>2021-09-07T11:43:09Z</time>
      </trkpt>
      <trkpt lat="44.47885" lon="5.51283">
        <ele>800.8</ele>
        <time>2021-09-07T11:43:10Z</time>
      </trkpt>
      <trkpt lat="44.47885" lon="5.5128">
        <ele>800.6</ele>
        <time>2021-09-07T11:43:11Z</time>
      </trkpt>
      <trkpt lat="44.47884" lon="5.51276">
        <ele>800.4</ele>
        <time>2021-09-07T11:43:12Z</time>
      </trkpt>
      <trkpt lat="44.47882" lon="5.51268">
        <ele>799.8</ele>
        <time>2021-09-07T11:43:13Z</time>
      </trkpt>
      <trkpt lat="44.4788" lon="5.51259">
        <ele>799.1</ele>
        <time>2021-09-07T11:43:14Z</time>
      </trkpt>
      <trkpt lat="44.47876" lon="5.5125">
        <ele>798.2</ele>
        <time>2021-09-07T11:43:15Z</time>
      </trkpt>
      <trkpt lat="44.47871" lon="5.51241">
        <ele>797.4</ele>
        <time>2021-09-07T11:43:16Z</time>
      </trkpt>
      <trkpt lat="44.4786" lon="5.51225">
        <ele>795.7</ele>
        <time>2021-09-07T11:43:17Z</time>
      </trkpt>
      <trkpt lat="44.47854" lon="5.51217">
        <ele>794.8</ele>
        <time>2021-09-07T11:43:18Z</time>
      </trkpt>
      <trkpt lat="44.47848" lon="5.51209">
        <ele>794.1</ele>
        <time>2021-09-07T11:43:19Z</time>
      </trkpt>
      <trkpt lat="44.47844" lon="5.51203">
        <ele>793.7</ele>
        <time>2021-09-07T11:43:20Z</time>
      </trkpt>
      <trkpt lat="44.4784" lon="5.51197">
        <ele>793.3</ele>
        <time>2021-09-07T11:43:21Z</time>
      </trkpt>
      <trkpt lat="44.47837" lon="5.51191">
        <ele>793</ele>
        <time>2021-09-07T11:43:22Z</time>
      </trkpt>
      <trkpt lat="44.47833" lon="5.51184">
        <ele>792.7</ele>
        <time>2021-09-07T11:43:23Z</time>
      </trkpt>
      <trkpt lat="44.4783" lon="5.51179">
        <ele>792.4</ele>
        <time>2021-09-07T11:43:24Z</time>
      </trkpt>
      <trkpt lat="44.47827" lon="5.51174">
        <ele>792.1</ele>
        <time>2021-09-07T11:43:25Z</time>
      </trkpt>
      <trkpt lat="44.47825" lon="5.5117">
        <ele>791.9</ele>
        <time>2021-09-07T11:43:26Z</time>
      </trkpt>
      <trkpt lat="44.47822" lon="5.51165">
        <ele>791.6</ele>
        <time>2021-09-07T11:43:27Z</time>
      </trkpt>
      <trkpt lat="44.47819" lon="5.51158">
        <ele>791.3</ele>
        <time>2021-09-07T11:43:28Z</time>
      </trkpt>
      <trkpt lat="44.47816" lon="5.51152">
        <ele>790.9</ele>
        <time>2021-09-07T11:43:29Z</time>
      </trkpt>
      <trkpt lat="44.47814" lon="5.51147">
        <ele>790.6</ele>
        <time>2021-09-07T11:43:30Z</time>
      </trkpt>
      <trkpt lat="44.47812" lon="5.51142">
        <ele>790.2</ele>
        <time>2021-09-07T11:43:31Z</time>
      </trkpt>
      <trkpt lat="44.4781" lon="5.51136">
        <ele>789.8</ele>
        <time>2021-09-07T11:43:32Z</time>
      </trkpt>
      <trkpt lat="44.47808" lon="5.51131">
        <ele>789.3</ele>
        <time>2021-09-07T11:43:33Z</time>
      </trkpt>
      <trkpt lat="44.47806" lon="5.51125">
        <ele>788.9</ele>
        <time>2021-09-07T11:43:34Z</time>
      </trkpt>
      <trkpt lat="44.47804" lon="5.5112">
        <ele>788.4</ele>
        <time>2021-09-07T11:43:35Z</time>
      </trkpt>
      <trkpt lat="44.47802" lon="5.51114">
        <ele>788</ele>
        <time>2021-09-07T11:43:36Z</time>
      </trkpt>
      <trkpt lat="44.478" lon="5.51107">
        <ele>787.4</ele>
        <time>2021-09-07T11:43:37Z</time>
      </trkpt>
      <trkpt lat="44.47797" lon="5.51099">
        <ele>786.8</ele>
        <time>2021-09-07T11:43:38Z</time>
      </trkpt>
      <trkpt lat="44.47793" lon="5.51092">
        <ele>786.2</ele>
        <time>2021-09-07T11:43:39Z</time>
      </trkpt>
      <trkpt lat="44.4779" lon="5.51085">
        <ele>785.7</ele>
        <time>2021-09-07T11:43:40Z</time>
      </trkpt>
      <trkpt lat="44.47786" lon="5.51077">
        <ele>785.1</ele>
        <time>2021-09-07T11:43:41Z</time>
      </trkpt>
      <trkpt lat="44.47782" lon="5.5107">
        <ele>784.6</ele>
        <time>2021-09-07T11:43:42Z</time>
      </trkpt>
      <trkpt lat="44.47781" lon="5.51066">
        <ele>784.4</ele>
        <time>2021-09-07T11:43:43Z</time>
      </trkpt>
      <trkpt lat="44.47779" lon="5.51061">
        <ele>784.2</ele>
        <time>2021-09-07T11:43:44Z</time>
      </trkpt>
      <trkpt lat="44.47773" lon="5.5105">
        <ele>783.6</ele>
        <time>2021-09-07T11:43:45Z</time>
      </trkpt>
      <trkpt lat="44.47767" lon="5.51038">
        <ele>782.9</ele>
        <time>2021-09-07T11:43:46Z</time>
      </trkpt>
      <trkpt lat="44.47763" lon="5.51035">
        <ele>782.6</ele>
        <time>2021-09-07T11:43:47Z</time>
      </trkpt>
      <trkpt lat="44.47759" lon="5.51032">
        <ele>782.2</ele>
        <time>2021-09-07T11:43:48Z</time>
      </trkpt>
      <trkpt lat="44.47755" lon="5.51029">
        <ele>781.8</ele>
        <time>2021-09-07T11:43:49Z</time>
      </trkpt>
      <trkpt lat="44.47749" lon="5.51024">
        <ele>781.1</ele>
        <time>2021-09-07T11:43:50Z</time>
      </trkpt>
      <trkpt lat="44.4774" lon="5.51016">
        <ele>780</ele>
        <time>2021-09-07T11:43:51Z</time>
      </trkpt>
      <trkpt lat="44.4773" lon="5.51007">
        <ele>779</ele>
        <time>2021-09-07T11:43:52Z</time>
      </trkpt>
      <trkpt lat="44.47726" lon="5.51002">
        <ele>778.5</ele>
        <time>2021-09-07T11:43:53Z</time>
      </trkpt>
      <trkpt lat="44.47719" lon="5.50992">
        <ele>777.6</ele>
        <time>2021-09-07T11:43:54Z</time>
      </trkpt>
      <trkpt lat="44.47712" lon="5.50981">
        <ele>776.7</ele>
        <time>2021-09-07T11:43:55Z</time>
      </trkpt>
      <trkpt lat="44.47705" lon="5.50971">
        <ele>775.8</ele>
        <time>2021-09-07T11:43:56Z</time>
      </trkpt>
      <trkpt lat="44.47698" lon="5.50959">
        <ele>775</ele>
        <time>2021-09-07T11:43:57Z</time>
      </trkpt>
      <trkpt lat="44.4769" lon="5.50946">
        <ele>774.2</ele>
        <time>2021-09-07T11:43:58Z</time>
      </trkpt>
      <trkpt lat="44.47682" lon="5.50933">
        <ele>772.5</ele>
        <time>2021-09-07T11:43:59Z</time>
      </trkpt>
      <trkpt lat="44.47674" lon="5.50921">
        <ele>771.5</ele>
        <time>2021-09-07T11:44:00Z</time>
      </trkpt>
      <trkpt lat="44.47666" lon="5.50909">
        <ele>770.6</ele>
        <time>2021-09-07T11:44:01Z</time>
      </trkpt>
      <trkpt lat="44.47658" lon="5.50897">
        <ele>769.5</ele>
        <time>2021-09-07T11:44:02Z</time>
      </trkpt>
      <trkpt lat="44.47651" lon="5.50884">
        <ele>768.5</ele>
        <time>2021-09-07T11:44:03Z</time>
      </trkpt>
      <trkpt lat="44.47645" lon="5.50871">
        <ele>767.3</ele>
        <time>2021-09-07T11:44:04Z</time>
      </trkpt>
      <trkpt lat="44.47639" lon="5.50858">
        <ele>766.2</ele>
        <time>2021-09-07T11:44:05Z</time>
      </trkpt>
      <trkpt lat="44.47633" lon="5.50845">
        <ele>765.2</ele>
        <time>2021-09-07T11:44:06Z</time>
      </trkpt>
      <trkpt lat="44.47627" lon="5.50831">
        <ele>764.3</ele>
        <time>2021-09-07T11:44:07Z</time>
      </trkpt>
      <trkpt lat="44.47622" lon="5.50819">
        <ele>763.6</ele>
        <time>2021-09-07T11:44:08Z</time>
      </trkpt>
      <trkpt lat="44.47617" lon="5.50807">
        <ele>762.9</ele>
        <time>2021-09-07T11:44:09Z</time>
      </trkpt>
      <trkpt lat="44.47611" lon="5.50794">
        <ele>762.1</ele>
        <time>2021-09-07T11:44:10Z</time>
      </trkpt>
      <trkpt lat="44.47607" lon="5.50782">
        <ele>761.5</ele>
        <time>2021-09-07T11:44:11Z</time>
      </trkpt>
      <trkpt lat="44.47603" lon="5.50769">
        <ele>760.8</ele>
        <time>2021-09-07T11:44:12Z</time>
      </trkpt>
      <trkpt lat="44.47598" lon="5.50758">
        <ele>760.2</ele>
        <time>2021-09-07T11:44:13Z</time>
      </trkpt>
      <trkpt lat="44.47592" lon="5.50746">
        <ele>759.5</ele>
        <time>2021-09-07T11:44:14Z</time>
      </trkpt>
      <trkpt lat="44.47585" lon="5.50735">
        <ele>758.6</ele>
        <time>2021-09-07T11:44:15Z</time>
      </trkpt>
      <trkpt lat="44.47578" lon="5.50725">
        <ele>757.8</ele>
        <time>2021-09-07T11:44:16Z</time>
      </trkpt>
      <trkpt lat="44.47571" lon="5.50715">
        <ele>757.2</ele>
        <time>2021-09-07T11:44:17Z</time>
      </trkpt>
      <trkpt lat="44.47564" lon="5.50705">
        <ele>756.7</ele>
        <time>2021-09-07T11:44:18Z</time>
      </trkpt>
      <trkpt lat="44.47558" lon="5.50695">
        <ele>756.1</ele>
        <time>2021-09-07T11:44:19Z</time>
      </trkpt>
      <trkpt lat="44.47551" lon="5.50687">
        <ele>755.5</ele>
        <time>2021-09-07T11:44:20Z</time>
      </trkpt>
      <trkpt lat="44.47544" lon="5.50679">
        <ele>754.9</ele>
        <time>2021-09-07T11:44:21Z</time>
      </trkpt>
      <trkpt lat="44.47536" lon="5.50671">
        <ele>754.3</ele>
        <time>2021-09-07T11:44:22Z</time>
      </trkpt>
      <trkpt lat="44.47529" lon="5.50664">
        <ele>753.7</ele>
        <time>2021-09-07T11:44:23Z</time>
      </trkpt>
      <trkpt lat="44.47521" lon="5.50658">
        <ele>753.1</ele>
        <time>2021-09-07T11:44:24Z</time>
      </trkpt>
      <trkpt lat="44.47513" lon="5.50653">
        <ele>752.4</ele>
        <time>2021-09-07T11:44:25Z</time>
      </trkpt>
      <trkpt lat="44.47505" lon="5.50648">
        <ele>751.7</ele>
        <time>2021-09-07T11:44:26Z</time>
      </trkpt>
      <trkpt lat="44.47497" lon="5.50645">
        <ele>750.9</ele>
        <time>2021-09-07T11:44:27Z</time>
      </trkpt>
      <trkpt lat="44.47488" lon="5.50641">
        <ele>750.2</ele>
        <time>2021-09-07T11:44:28Z</time>
      </trkpt>
      <trkpt lat="44.47479" lon="5.50638">
        <ele>749.5</ele>
        <time>2021-09-07T11:44:29Z</time>
      </trkpt>
      <trkpt lat="44.4747" lon="5.50634">
        <ele>748.9</ele>
        <time>2021-09-07T11:44:30Z</time>
      </trkpt>
      <trkpt lat="44.47462" lon="5.50632">
        <ele>748.3</ele>
        <time>2021-09-07T11:44:31Z</time>
      </trkpt>
      <trkpt lat="44.47453" lon="5.50631">
        <ele>747.8</ele>
        <time>2021-09-07T11:44:32Z</time>
      </trkpt>
      <trkpt lat="44.47444" lon="5.50629">
        <ele>747.2</ele>
        <time>2021-09-07T11:44:33Z</time>
      </trkpt>
      <trkpt lat="44.47435" lon="5.50626">
        <ele>746.6</ele>
        <time>2021-09-07T11:44:34Z</time>
      </trkpt>
      <trkpt lat="44.47426" lon="5.50623">
        <ele>746.1</ele>
        <time>2021-09-07T11:44:35Z</time>
      </trkpt>
      <trkpt lat="44.47417" lon="5.50621">
        <ele>745.4</ele>
        <time>2021-09-07T11:44:36Z</time>
      </trkpt>
      <trkpt lat="44.47408" lon="5.5062">
        <ele>744.5</ele>
        <time>2021-09-07T11:44:37Z</time>
      </trkpt>
      <trkpt lat="44.47399" lon="5.50619">
        <ele>743.5</ele>
        <time>2021-09-07T11:44:38Z</time>
      </trkpt>
      <trkpt lat="44.47384" lon="5.5062">
        <ele>741.9</ele>
        <time>2021-09-07T11:44:39Z</time>
      </trkpt>
      <trkpt lat="44.47369" lon="5.5062">
        <ele>740.4</ele>
        <time>2021-09-07T11:44:40Z</time>
      </trkpt>
      <trkpt lat="44.47364" lon="5.50621">
        <ele>740</ele>
        <time>2021-09-07T11:44:41Z</time>
      </trkpt>
      <trkpt lat="44.47359" lon="5.50622">
        <ele>739.6</ele>
        <time>2021-09-07T11:44:42Z</time>
      </trkpt>
      <trkpt lat="44.4735" lon="5.50624">
        <ele>738.8</ele>
        <time>2021-09-07T11:44:43Z</time>
      </trkpt>
      <trkpt lat="44.4734" lon="5.50627">
        <ele>737.8</ele>
        <time>2021-09-07T11:44:44Z</time>
      </trkpt>
      <trkpt lat="44.47332" lon="5.5063">
        <ele>736.9</ele>
        <time>2021-09-07T11:44:45Z</time>
      </trkpt>
      <trkpt lat="44.47323" lon="5.50633">
        <ele>736</ele>
        <time>2021-09-07T11:44:46Z</time>
      </trkpt>
      <trkpt lat="44.47314" lon="5.50637">
        <ele>735.1</ele>
        <time>2021-09-07T11:44:47Z</time>
      </trkpt>
      <trkpt lat="44.47304" lon="5.50642">
        <ele>734.1</ele>
        <time>2021-09-07T11:44:48Z</time>
      </trkpt>
      <trkpt lat="44.47295" lon="5.50646">
        <ele>733.3</ele>
        <time>2021-09-07T11:44:49Z</time>
      </trkpt>
      <trkpt lat="44.47286" lon="5.5065">
        <ele>732.6</ele>
        <time>2021-09-07T11:44:50Z</time>
      </trkpt>
      <trkpt lat="44.47278" lon="5.50652">
        <ele>731.9</ele>
        <time>2021-09-07T11:44:51Z</time>
      </trkpt>
      <trkpt lat="44.47269" lon="5.50654">
        <ele>731.2</ele>
        <time>2021-09-07T11:44:52Z</time>
      </trkpt>
      <trkpt lat="44.47253" lon="5.50655">
        <ele>730.3</ele>
        <time>2021-09-07T11:44:53Z</time>
      </trkpt>
      <trkpt lat="44.47249" lon="5.50655">
        <ele>730.1</ele>
        <time>2021-09-07T11:44:54Z</time>
      </trkpt>
      <trkpt lat="44.47245" lon="5.50655">
        <ele>730</ele>
        <time>2021-09-07T11:44:55Z</time>
      </trkpt>
      <trkpt lat="44.47238" lon="5.50654">
        <ele>729.8</ele>
        <time>2021-09-07T11:44:56Z</time>
      </trkpt>
      <trkpt lat="44.47226" lon="5.50649">
        <ele>729.6</ele>
        <time>2021-09-07T11:44:57Z</time>
      </trkpt>
      <trkpt lat="44.47224" lon="5.50649">
        <ele>729.5</ele>
        <time>2021-09-07T11:44:58Z</time>
      </trkpt>
      <trkpt lat="44.47222" lon="5.50648">
        <ele>729.5</ele>
        <time>2021-09-07T11:44:59Z</time>
      </trkpt>
      <trkpt lat="44.47216" lon="5.50649">
        <ele>729.3</ele>
        <time>2021-09-07T11:45:00Z</time>
      </trkpt>
      <trkpt lat="44.47212" lon="5.50652">
        <ele>729.2</ele>
        <time>2021-09-07T11:45:01Z</time>
      </trkpt>
      <trkpt lat="44.47209" lon="5.50655">
        <ele>729.1</ele>
        <time>2021-09-07T11:45:02Z</time>
      </trkpt>
      <trkpt lat="44.47206" lon="5.50657">
        <ele>729</ele>
        <time>2021-09-07T11:45:03Z</time>
      </trkpt>
      <trkpt lat="44.47203" lon="5.50659">
        <ele>728.9</ele>
        <time>2021-09-07T11:45:04Z</time>
      </trkpt>
      <trkpt lat="44.472" lon="5.5066">
        <ele>728.8</ele>
        <time>2021-09-07T11:45:05Z</time>
      </trkpt>
      <trkpt lat="44.47197" lon="5.50662">
        <ele>728.7</ele>
        <time>2021-09-07T11:45:06Z</time>
      </trkpt>
      <trkpt lat="44.47194" lon="5.50664">
        <ele>728.5</ele>
        <time>2021-09-07T11:45:07Z</time>
      </trkpt>
      <trkpt lat="44.47188" lon="5.50669">
        <ele>728</ele>
        <time>2021-09-07T11:45:08Z</time>
      </trkpt>
      <trkpt lat="44.47178" lon="5.5068">
        <ele>726.9</ele>
        <time>2021-09-07T11:45:09Z</time>
      </trkpt>
      <trkpt lat="44.47172" lon="5.50686">
        <ele>726.1</ele>
        <time>2021-09-07T11:45:10Z</time>
      </trkpt>
      <trkpt lat="44.47167" lon="5.50691">
        <ele>725.5</ele>
        <time>2021-09-07T11:45:11Z</time>
      </trkpt>
      <trkpt lat="44.47164" lon="5.50694">
        <ele>725.2</ele>
        <time>2021-09-07T11:45:12Z</time>
      </trkpt>
      <trkpt lat="44.47161" lon="5.50696">
        <ele>725</ele>
        <time>2021-09-07T11:45:13Z</time>
      </trkpt>
      <trkpt lat="44.47155" lon="5.50702">
        <ele>724.4</ele>
        <time>2021-09-07T11:45:14Z</time>
      </trkpt>
      <trkpt lat="44.47148" lon="5.50714">
        <ele>723.8</ele>
        <time>2021-09-07T11:45:15Z</time>
      </trkpt>
      <trkpt lat="44.4714" lon="5.50726">
        <ele>723.2</ele>
        <time>2021-09-07T11:45:16Z</time>
      </trkpt>
      <trkpt lat="44.47132" lon="5.50741">
        <ele>722.6</ele>
        <time>2021-09-07T11:45:17Z</time>
      </trkpt>
      <trkpt lat="44.47123" lon="5.50756">
        <ele>721.5</ele>
        <time>2021-09-07T11:45:18Z</time>
      </trkpt>
      <trkpt lat="44.47116" lon="5.50771">
        <ele>720.4</ele>
        <time>2021-09-07T11:45:19Z</time>
      </trkpt>
      <trkpt lat="44.47109" lon="5.50785">
        <ele>719.2</ele>
        <time>2021-09-07T11:45:20Z</time>
      </trkpt>
      <trkpt lat="44.47102" lon="5.50799">
        <ele>718.1</ele>
        <time>2021-09-07T11:45:21Z</time>
      </trkpt>
      <trkpt lat="44.47094" lon="5.50813">
        <ele>717</ele>
        <time>2021-09-07T11:45:22Z</time>
      </trkpt>
      <trkpt lat="44.47087" lon="5.50825">
        <ele>715.9</ele>
        <time>2021-09-07T11:45:23Z</time>
      </trkpt>
      <trkpt lat="44.47079" lon="5.50837">
        <ele>714.9</ele>
        <time>2021-09-07T11:45:24Z</time>
      </trkpt>
      <trkpt lat="44.47071" lon="5.50849">
        <ele>714</ele>
        <time>2021-09-07T11:45:25Z</time>
      </trkpt>
      <trkpt lat="44.47064" lon="5.50859">
        <ele>713.4</ele>
        <time>2021-09-07T11:45:26Z</time>
      </trkpt>
      <trkpt lat="44.47057" lon="5.50869">
        <ele>712.9</ele>
        <time>2021-09-07T11:45:27Z</time>
      </trkpt>
      <trkpt lat="44.47042" lon="5.50883">
        <ele>711.9</ele>
        <time>2021-09-07T11:45:28Z</time>
      </trkpt>
      <trkpt lat="44.47034" lon="5.50888">
        <ele>711.2</ele>
        <time>2021-09-07T11:45:29Z</time>
      </trkpt>
      <trkpt lat="44.47027" lon="5.50892">
        <ele>710.5</ele>
        <time>2021-09-07T11:45:30Z</time>
      </trkpt>
      <trkpt lat="44.4702" lon="5.50896">
        <ele>709.8</ele>
        <time>2021-09-07T11:45:31Z</time>
      </trkpt>
      <trkpt lat="44.47013" lon="5.509">
        <ele>709</ele>
        <time>2021-09-07T11:45:32Z</time>
      </trkpt>
      <trkpt lat="44.47006" lon="5.50904">
        <ele>708.3</ele>
        <time>2021-09-07T11:45:33Z</time>
      </trkpt>
      <trkpt lat="44.46999" lon="5.50907">
        <ele>707.7</ele>
        <time>2021-09-07T11:45:34Z</time>
      </trkpt>
      <trkpt lat="44.46992" lon="5.5091">
        <ele>707.1</ele>
        <time>2021-09-07T11:45:35Z</time>
      </trkpt>
      <trkpt lat="44.46985" lon="5.50912">
        <ele>706.6</ele>
        <time>2021-09-07T11:45:36Z</time>
      </trkpt>
      <trkpt lat="44.46978" lon="5.50913">
        <ele>706.2</ele>
        <time>2021-09-07T11:45:37Z</time>
      </trkpt>
      <trkpt lat="44.46972" lon="5.50913">
        <ele>705.9</ele>
        <time>2021-09-07T11:45:38Z</time>
      </trkpt>
      <trkpt lat="44.46965" lon="5.50913">
        <ele>705.6</ele>
        <time>2021-09-07T11:45:39Z</time>
      </trkpt>
      <trkpt lat="44.46962" lon="5.50912">
        <ele>705.5</ele>
        <time>2021-09-07T11:45:40Z</time>
      </trkpt>
      <trkpt lat="44.46959" lon="5.50911">
        <ele>705.3</ele>
        <time>2021-09-07T11:45:41Z</time>
      </trkpt>
      <trkpt lat="44.46953" lon="5.5091">
        <ele>705.1</ele>
        <time>2021-09-07T11:45:42Z</time>
      </trkpt>
      <trkpt lat="44.46946" lon="5.5091">
        <ele>704.8</ele>
        <time>2021-09-07T11:45:43Z</time>
      </trkpt>
      <trkpt lat="44.46939" lon="5.50909">
        <ele>704.4</ele>
        <time>2021-09-07T11:45:44Z</time>
      </trkpt>
      <trkpt lat="44.46934" lon="5.50909">
        <ele>704</ele>
        <time>2021-09-07T11:45:45Z</time>
      </trkpt>
      <trkpt lat="44.46928" lon="5.50909">
        <ele>703.6</ele>
        <time>2021-09-07T11:45:46Z</time>
      </trkpt>
      <trkpt lat="44.46923" lon="5.50908">
        <ele>703.2</ele>
        <time>2021-09-07T11:45:47Z</time>
      </trkpt>
      <trkpt lat="44.46919" lon="5.50908">
        <ele>702.8</ele>
        <time>2021-09-07T11:45:48Z</time>
      </trkpt>
      <trkpt lat="44.46916" lon="5.5091">
        <ele>702.4</ele>
        <time>2021-09-07T11:45:49Z</time>
      </trkpt>
      <trkpt lat="44.46913" lon="5.50911">
        <ele>702.3</ele>
        <time>2021-09-07T11:45:50Z</time>
      </trkpt>
      <trkpt lat="44.46911" lon="5.50913">
        <ele>702.3</ele>
        <time>2021-09-07T11:45:51Z</time>
      </trkpt>
      <trkpt lat="44.46909" lon="5.50915">
        <ele>702.3</ele>
        <time>2021-09-07T11:45:52Z</time>
      </trkpt>
      <trkpt lat="44.46906" lon="5.50917">
        <ele>702.2</ele>
        <time>2021-09-07T11:45:53Z</time>
      </trkpt>
      <trkpt lat="44.46903" lon="5.5092">
        <ele>702.2</ele>
        <time>2021-09-07T11:45:54Z</time>
      </trkpt>
      <trkpt lat="44.469" lon="5.50923">
        <ele>702.1</ele>
        <time>2021-09-07T11:45:55Z</time>
      </trkpt>
      <trkpt lat="44.46897" lon="5.50927">
        <ele>702.1</ele>
        <time>2021-09-07T11:45:56Z</time>
      </trkpt>
      <trkpt lat="44.46895" lon="5.50925">
        <ele>702.1</ele>
        <time>2021-09-07T11:45:57Z</time>
      </trkpt>
      <trkpt lat="44.46894" lon="5.50922">
        <ele>702</ele>
        <time>2021-09-07T11:45:58Z</time>
      </trkpt>
      <trkpt lat="44.46892" lon="5.50926">
        <ele>702</ele>
        <time>2021-09-07T11:45:59Z</time>
      </trkpt>
      <trkpt lat="44.4689" lon="5.50929">
        <ele>702</ele>
        <time>2021-09-07T11:46:00Z</time>
      </trkpt>
      <trkpt lat="44.46884" lon="5.50943">
        <ele>701.8</ele>
        <time>2021-09-07T11:46:01Z</time>
      </trkpt>
      <trkpt lat="44.46883" lon="5.50947">
        <ele>701.8</ele>
        <time>2021-09-07T11:46:02Z</time>
      </trkpt>
      <trkpt lat="44.46881" lon="5.5095">
        <ele>701.8</ele>
        <time>2021-09-07T11:46:03Z</time>
      </trkpt>
      <trkpt lat="44.46879" lon="5.50957">
        <ele>701.7</ele>
        <time>2021-09-07T11:46:04Z</time>
      </trkpt>
      <trkpt lat="44.46876" lon="5.50963">
        <ele>701.6</ele>
        <time>2021-09-07T11:46:05Z</time>
      </trkpt>
      <trkpt lat="44.46873" lon="5.50968">
        <ele>701.5</ele>
        <time>2021-09-07T11:46:06Z</time>
      </trkpt>
      <trkpt lat="44.4687" lon="5.50974">
        <ele>701.4</ele>
        <time>2021-09-07T11:46:07Z</time>
      </trkpt>
      <trkpt lat="44.46866" lon="5.50983">
        <ele>701.3</ele>
        <time>2021-09-07T11:46:08Z</time>
      </trkpt>
      <trkpt lat="44.46863" lon="5.50991">
        <ele>701.2</ele>
        <time>2021-09-07T11:46:09Z</time>
      </trkpt>
      <trkpt lat="44.46861" lon="5.50996">
        <ele>701.1</ele>
        <time>2021-09-07T11:46:10Z</time>
      </trkpt>
      <trkpt lat="44.46859" lon="5.51">
        <ele>701</ele>
        <time>2021-09-07T11:46:11Z</time>
      </trkpt>
      <trkpt lat="44.46856" lon="5.51007">
        <ele>700.9</ele>
        <time>2021-09-07T11:46:12Z</time>
      </trkpt>
      <trkpt lat="44.46853" lon="5.51012">
        <ele>700.9</ele>
        <time>2021-09-07T11:46:13Z</time>
      </trkpt>
      <trkpt lat="44.46849" lon="5.51016">
        <ele>700.8</ele>
        <time>2021-09-07T11:46:14Z</time>
      </trkpt>
      <trkpt lat="44.46841" lon="5.51025">
        <ele>700.6</ele>
        <time>2021-09-07T11:46:15Z</time>
      </trkpt>
      <trkpt lat="44.46837" lon="5.5103">
        <ele>700.5</ele>
        <time>2021-09-07T11:46:16Z</time>
      </trkpt>
      <trkpt lat="44.46835" lon="5.51033">
        <ele>700.5</ele>
        <time>2021-09-07T11:46:17Z</time>
      </trkpt>
      <trkpt lat="44.46832" lon="5.51035">
        <ele>700.4</ele>
        <time>2021-09-07T11:46:18Z</time>
      </trkpt>
      <trkpt lat="44.46828" lon="5.5104">
        <ele>700.3</ele>
        <time>2021-09-07T11:46:19Z</time>
      </trkpt>
      <trkpt lat="44.46824" lon="5.51045">
        <ele>700.2</ele>
        <time>2021-09-07T11:46:20Z</time>
      </trkpt>
      <trkpt lat="44.46821" lon="5.51051">
        <ele>700.1</ele>
        <time>2021-09-07T11:46:21Z</time>
      </trkpt>
      <trkpt lat="44.46817" lon="5.51057">
        <ele>700.1</ele>
        <time>2021-09-07T11:46:22Z</time>
      </trkpt>
      <trkpt lat="44.46814" lon="5.51064">
        <ele>700</ele>
        <time>2021-09-07T11:46:23Z</time>
      </trkpt>
      <trkpt lat="44.46811" lon="5.5107">
        <ele>700</ele>
        <time>2021-09-07T11:46:24Z</time>
      </trkpt>
      <trkpt lat="44.4681" lon="5.51078">
        <ele>700</ele>
        <time>2021-09-07T11:46:25Z</time>
      </trkpt>
      <trkpt lat="44.46809" lon="5.51085">
        <ele>700</ele>
        <time>2021-09-07T11:46:26Z</time>
      </trkpt>
      <trkpt lat="44.46808" lon="5.511">
        <ele>700.1</ele>
        <time>2021-09-07T11:46:27Z</time>
      </trkpt>
      <trkpt lat="44.46807" lon="5.51108">
        <ele>700.2</ele>
        <time>2021-09-07T11:46:28Z</time>
      </trkpt>
      <trkpt lat="44.46806" lon="5.51116">
        <ele>700.3</ele>
        <time>2021-09-07T11:46:29Z</time>
      </trkpt>
      <trkpt lat="44.46806" lon="5.5112">
        <ele>700.4</ele>
        <time>2021-09-07T11:46:30Z</time>
      </trkpt>
      <trkpt lat="44.46805" lon="5.51123">
        <ele>700.5</ele>
        <time>2021-09-07T11:46:31Z</time>
      </trkpt>
      <trkpt lat="44.46803" lon="5.51138">
        <ele>700.8</ele>
        <time>2021-09-07T11:46:32Z</time>
      </trkpt>
      <trkpt lat="44.46802" lon="5.51141">
        <ele>700.9</ele>
        <time>2021-09-07T11:46:33Z</time>
      </trkpt>
      <trkpt lat="44.46801" lon="5.51144">
        <ele>700.9</ele>
        <time>2021-09-07T11:46:34Z</time>
      </trkpt>
      <trkpt lat="44.468" lon="5.51148">
        <ele>701</ele>
        <time>2021-09-07T11:46:35Z</time>
      </trkpt>
      <trkpt lat="44.46799" lon="5.51154">
        <ele>701.2</ele>
        <time>2021-09-07T11:46:36Z</time>
      </trkpt>
      <trkpt lat="44.46798" lon="5.51159">
        <ele>701.3</ele>
        <time>2021-09-07T11:46:37Z</time>
      </trkpt>
      <trkpt lat="44.46797" lon="5.51164">
        <ele>701.4</ele>
        <time>2021-09-07T11:46:38Z</time>
      </trkpt>
      <trkpt lat="44.46793" lon="5.51175">
        <ele>701.5</ele>
        <time>2021-09-07T11:46:39Z</time>
      </trkpt>
      <trkpt lat="44.46792" lon="5.51178">
        <ele>701.5</ele>
        <time>2021-09-07T11:46:40Z</time>
      </trkpt>
      <trkpt lat="44.4679" lon="5.5118">
        <ele>701.6</ele>
        <time>2021-09-07T11:46:41Z</time>
      </trkpt>
      <trkpt lat="44.4679" lon="5.51184">
        <ele>701.6</ele>
        <time>2021-09-07T11:46:42Z</time>
      </trkpt>
      <trkpt lat="44.46789" lon="5.51187">
        <ele>701.6</ele>
        <time>2021-09-07T11:46:43Z</time>
      </trkpt>
      <trkpt lat="44.46787" lon="5.5119">
        <ele>701.5</ele>
        <time>2021-09-07T11:46:44Z</time>
      </trkpt>
      <trkpt lat="44.46787" lon="5.51194">
        <ele>701.5</ele>
        <time>2021-09-07T11:46:45Z</time>
      </trkpt>
      <trkpt lat="44.46786" lon="5.51197">
        <ele>701.5</ele>
        <time>2021-09-07T11:46:46Z</time>
      </trkpt>
      <trkpt lat="44.46786" lon="5.512">
        <ele>701.4</ele>
        <time>2021-09-07T11:46:47Z</time>
      </trkpt>
      <trkpt lat="44.46786" lon="5.51204">
        <ele>701.4</ele>
        <time>2021-09-07T11:46:48Z</time>
      </trkpt>
      <trkpt lat="44.46787" lon="5.51206">
        <ele>701.4</ele>
        <time>2021-09-07T11:46:49Z</time>
      </trkpt>
      <trkpt lat="44.46788" lon="5.51208">
        <ele>701.4</ele>
        <time>2021-09-07T11:46:50Z</time>
      </trkpt>
      <trkpt lat="44.46789" lon="5.5121">
        <ele>701.4</ele>
        <time>2021-09-07T11:46:51Z</time>
      </trkpt>
      <trkpt lat="44.46791" lon="5.51212">
        <ele>701.3</ele>
        <time>2021-09-07T11:46:52Z</time>
      </trkpt>
      <trkpt lat="44.46792" lon="5.51214">
        <ele>701.3</ele>
        <time>2021-09-07T11:46:53Z</time>
      </trkpt>
      <trkpt lat="44.46793" lon="5.51215">
        <ele>701.3</ele>
        <time>2021-09-07T11:46:54Z</time>
      </trkpt>
      <trkpt lat="44.46795" lon="5.51217">
        <ele>701.3</ele>
        <time>2021-09-07T11:46:55Z</time>
      </trkpt>
      <trkpt lat="44.46796" lon="5.51218">
        <ele>701.2</ele>
        <time>2021-09-07T11:46:56Z</time>
      </trkpt>
      <trkpt lat="44.46796" lon="5.51219">
        <ele>701.2</ele>
        <time>2021-09-07T11:46:57Z</time>
      </trkpt>
      <trkpt lat="44.46797" lon="5.5122">
        <ele>701.2</ele>
        <time>2021-09-07T11:46:58Z</time>
      </trkpt>
      <trkpt lat="44.46798" lon="5.5122">
        <ele>701.2</ele>
        <time>2021-09-07T11:46:59Z</time>
      </trkpt>
      <trkpt lat="44.46799" lon="5.51221">
        <ele>701.2</ele>
        <time>2021-09-07T11:47:00Z</time>
      </trkpt>
      <trkpt lat="44.468" lon="5.5122">
        <ele>701.2</ele>
        <time>2021-09-07T11:47:01Z</time>
      </trkpt>
      <trkpt lat="44.468" lon="5.51219">
        <ele>701.2</ele>
        <time>2021-09-07T11:47:02Z</time>
      </trkpt>
      <trkpt lat="44.46801" lon="5.51218">
        <ele>701.2</ele>
        <time>2021-09-07T11:47:03Z</time>
      </trkpt>
      <trkpt lat="44.46802" lon="5.51218">
        <ele>701.2</ele>
        <time>2021-09-07T11:47:04Z</time>
      </trkpt>
      <trkpt lat="44.46802" lon="5.51218">
        <ele>701.2</ele>
        <time>2021-09-07T11:47:05Z</time>
      </trkpt>
      <trkpt lat="44.46802" lon="5.51218">
        <ele>701.2</ele>
        <time>2021-09-07T11:47:06Z</time>
      </trkpt>
      <trkpt lat="44.46802" lon="5.51218">
        <ele>701.2</ele>
        <time>2021-09-07T11:47:07Z</time>
      </trkpt>
      <trkpt lat="44.46802" lon="5.51217">
        <ele>701.2</ele>
        <time>2021-09-07T11:47:08Z</time>
      </trkpt>
      <trkpt lat="44.46803" lon="5.51217">
        <ele>701.2</ele>
        <time>2021-09-07T11:47:09Z</time>
      </trkpt>
      <trkpt lat="44.46803" lon="5.51217">
        <ele>701.2</ele>
        <time>2021-09-07T11:47:10Z</time>
      </trkpt>
      <trkpt lat="44.46803" lon="5.51217">
        <ele>701.2</ele>
        <time>2021-09-07T11:47:11Z</time>
      </trkpt>
      <trkpt lat="44.46803" lon="5.51217">
        <ele>701.2</ele>
        <time>2021-09-07T11:47:12Z</time>
      </trkpt>
      <trkpt lat="44.46803" lon="5.51217">
        <ele>701.2</ele>
        <time>2021-09-07T11:47:13Z</time>
      </trkpt>
      <trkpt lat="44.46803" lon="5.51217">
        <ele>701.2</ele>
        <time>2021-09-07T11:47:14Z</time>
      </trkpt>
      <trkpt lat="44.46803" lon="5.51217">
        <ele>701.2</ele>
        <time>2021-09-07T11:47:15Z</time>
      </trkpt>
      <trkpt lat="44.46803" lon="5.51217">
        <ele>701.2</ele>
        <time>2021-09-07T11:47:16Z</time>
      </trkpt>
      <trkpt lat="44.46803" lon="5.51217">
        <ele>701.2</ele>
        <time>2021-09-07T11:47:17Z</time>
      </trkpt>
      <trkpt lat="44.46803" lon="5.51217">
        <ele>701.2</ele>
        <time>2021-09-07T11:47:18Z</time>
      </trkpt>
      <trkpt lat="44.46803" lon="5.51217">
        <ele>701.2</ele>
        <time>2021-09-07T11:47:19Z</time>
      </trkpt>
      <trkpt lat="44.46802" lon="5.51217">
        <ele>701.2</ele>
        <time>2021-09-07T11:47:20Z</time>
      </trkpt>
      <trkpt lat="44.46802" lon="5.51217">
        <ele>701.2</ele>
        <time>2021-09-07T11:47:21Z</time>
      </trkpt>
      <trkpt lat="44.46802" lon="5.51217">
        <ele>701.2</ele>
        <time>2021-09-07T11:47:22Z</time>
      </trkpt>
      <trkpt lat="44.46802" lon="5.51217">
        <ele>701.2</ele>
        <time>2021-09-07T11:47:23Z</time>
      </trkpt>
      <trkpt lat="44.46802" lon="5.51217">
        <ele>701.2</ele>
        <time>2021-09-07T11:47:24Z</time>
      </trkpt>
      <trkpt lat="44.46802" lon="5.51217">
        <ele>701.2</ele>
        <time>2021-09-07T11:47:25Z</time>
      </trkpt>
      <trkpt lat="44.46803" lon="5.51217">
        <ele>701.1</ele>
        <time>2021-09-07T11:47:26Z</time>
      </trkpt>
      <trkpt lat="44.46803" lon="5.51216">
        <ele>701.1</ele>
        <time>2021-09-07T11:47:27Z</time>
      </trkpt>
      <trkpt lat="44.46804" lon="5.51216">
        <ele>701.1</ele>
        <time>2021-09-07T11:47:28Z</time>
      </trkpt>
      <trkpt lat="44.46805" lon="5.51215">
        <ele>701.1</ele>
        <time>2021-09-07T11:47:29Z</time>
      </trkpt>
      <trkpt lat="44.46806" lon="5.51214">
        <ele>701.1</ele>
        <time>2021-09-07T11:47:30Z</time>
      </trkpt>
      <trkpt lat="44.46806" lon="5.51214">
        <ele>701.1</ele>
        <time>2021-09-07T11:47:31Z</time>
      </trkpt>
      <trkpt lat="44.46806" lon="5.51214">
        <ele>701.1</ele>
        <time>2021-09-07T11:47:32Z</time>
      </trkpt>
      <trkpt lat="44.46807" lon="5.51213">
        <ele>701.1</ele>
        <time>2021-09-07T11:47:33Z</time>
      </trkpt>
      <trkpt lat="44.46807" lon="5.51213">
        <ele>701.1</ele>
        <time>2021-09-07T11:47:34Z</time>
      </trkpt>
      <trkpt lat="44.46808" lon="5.51212">
        <ele>701.1</ele>
        <time>2021-09-07T11:47:35Z</time>
      </trkpt>
      <trkpt lat="44.46808" lon="5.51212">
        <ele>701.1</ele>
        <time>2021-09-07T11:47:36Z</time>
      </trkpt>
      <trkpt lat="44.46809" lon="5.51212">
        <ele>701.1</ele>
        <time>2021-09-07T11:47:37Z</time>
      </trkpt>
      <trkpt lat="44.46809" lon="5.51212">
        <ele>701.1</ele>
        <time>2021-09-07T11:47:38Z</time>
      </trkpt>
      <trkpt lat="44.4681" lon="5.51211">
        <ele>701.1</ele>
        <time>2021-09-07T11:47:39Z</time>
      </trkpt>
      <trkpt lat="44.4681" lon="5.51211">
        <ele>701.1</ele>
        <time>2021-09-07T11:47:40Z</time>
      </trkpt>
      <trkpt lat="44.4681" lon="5.51211">
        <ele>701.1</ele>
        <time>2021-09-07T11:47:41Z</time>
      </trkpt>
      <trkpt lat="44.4681" lon="5.51211">
        <ele>701.1</ele>
        <time>2021-09-07T11:47:42Z</time>
      </trkpt>
      <trkpt lat="44.4681" lon="5.51211">
        <ele>701.1</ele>
        <time>2021-09-07T11:47:43Z</time>
      </trkpt>
      <trkpt lat="44.4681" lon="5.51211">
        <ele>701.1</ele>
        <time>2021-09-07T11:47:44Z</time>
      </trkpt>
      <trkpt lat="44.46811" lon="5.51211">
        <ele>701.1</ele>
        <time>2021-09-07T11:47:45Z</time>
      </trkpt>
      <trkpt lat="44.46811" lon="5.51211">
        <ele>701.1</ele>
        <time>2021-09-07T11:47:46Z</time>
      </trkpt>
      <trkpt lat="44.46811" lon="5.51211">
        <ele>701.1</ele>
        <time>2021-09-07T11:47:47Z</time>
      </trkpt>
      <trkpt lat="44.46811" lon="5.51211">
        <ele>701.1</ele>
        <time>2021-09-07T11:47:48Z</time>
      </trkpt>
      <trkpt lat="44.46811" lon="5.51211">
        <ele>701.1</ele>
        <time>2021-09-07T11:47:49Z</time>
      </trkpt>
      <trkpt lat="44.46811" lon="5.51211">
        <ele>701.1</ele>
        <time>2021-09-07T11:47:50Z</time>
      </trkpt>
      <trkpt lat="44.46811" lon="5.51211">
        <ele>701.1</ele>
        <time>2021-09-07T11:47:51Z</time>
      </trkpt>
      <trkpt lat="44.46811" lon="5.51211">
        <ele>701.1</ele>
        <time>2021-09-07T11:47:52Z</time>
      </trkpt>
      <trkpt lat="44.46811" lon="5.51211">
        <ele>701.1</ele>
        <time>2021-09-07T11:47:53Z</time>
      </trkpt>
      <trkpt lat="44.46811" lon="5.51211">
        <ele>701.1</ele>
        <time>2021-09-07T11:47:54Z</time>
      </trkpt>
      <trkpt lat="44.46811" lon="5.51211">
        <ele>701.1</ele>
        <time>2021-09-07T11:47:55Z</time>
      </trkpt>
      <trkpt lat="44.46811" lon="5.51211">
        <ele>701.1</ele>
        <time>2021-09-07T11:47:56Z</time>
      </trkpt>
      <trkpt lat="44.46812" lon="5.51211">
        <ele>701.1</ele>
        <time>2021-09-07T11:47:57Z</time>
      </trkpt>
      <trkpt lat="44.46812" lon="5.51211">
        <ele>701.1</ele>
        <time>2021-09-07T11:47:58Z</time>
      </trkpt>
      <trkpt lat="44.46812" lon="5.5121">
        <ele>701.1</ele>
        <time>2021-09-07T11:47:59Z</time>
      </trkpt>
      <trkpt lat="44.46812" lon="5.5121">
        <ele>701.1</ele>
        <time>2021-09-07T11:48:00Z</time>
      </trkpt>
      <trkpt lat="44.46812" lon="5.5121">
        <ele>701.1</ele>
        <time>2021-09-07T11:48:01Z</time>
      </trkpt>
      <trkpt lat="44.46812" lon="5.5121">
        <ele>701.1</ele>
        <time>2021-09-07T11:48:02Z</time>
      </trkpt>
      <trkpt lat="44.46812" lon="5.5121">
        <ele>701.1</ele>
        <time>2021-09-07T11:48:03Z</time>
      </trkpt>
      <trkpt lat="44.46812" lon="5.5121">
        <ele>701.1</ele>
        <time>2021-09-07T11:48:04Z</time>
      </trkpt>
      <trkpt lat="44.46812" lon="5.5121">
        <ele>701.1</ele>
        <time>2021-09-07T11:48:05Z</time>
      </trkpt>
      <trkpt lat="44.46812" lon="5.5121">
        <ele>701.1</ele>
        <time>2021-09-07T11:48:06Z</time>
      </trkpt>
      <trkpt lat="44.46812" lon="5.5121">
        <ele>701.1</ele>
        <time>2021-09-07T11:48:07Z</time>
      </trkpt>
      <trkpt lat="44.46812" lon="5.5121">
        <ele>701.1</ele>
        <time>2021-09-07T11:48:08Z</time>
      </trkpt>
      <trkpt lat="44.46812" lon="5.51209">
        <ele>701</ele>
        <time>2021-09-07T11:48:09Z</time>
      </trkpt>
      <trkpt lat="44.46812" lon="5.51209">
        <ele>701</ele>
        <time>2021-09-07T11:48:10Z</time>
      </trkpt>
      <trkpt lat="44.46812" lon="5.51209">
        <ele>701</ele>
        <time>2021-09-07T11:48:11Z</time>
      </trkpt>
      <trkpt lat="44.46812" lon="5.51209">
        <ele>701</ele>
        <time>2021-09-07T11:48:12Z</time>
      </trkpt>
      <trkpt lat="44.46812" lon="5.51209">
        <ele>701</ele>
        <time>2021-09-07T11:48:13Z</time>
      </trkpt>
      <trkpt lat="44.46812" lon="5.51209">
        <ele>701</ele>
        <time>2021-09-07T11:48:14Z</time>
      </trkpt>
      <trkpt lat="44.46812" lon="5.51209">
        <ele>701</ele>
        <time>2021-09-07T11:48:15Z</time>
      </trkpt>
      <trkpt lat="44.46812" lon="5.51209">
        <ele>701</ele>
        <time>2021-09-07T11:48:16Z</time>
      </trkpt>
      <trkpt lat="44.46812" lon="5.51209">
        <ele>701</ele>
        <time>2021-09-07T11:48:17Z</time>
      </trkpt>
      <trkpt lat="44.46812" lon="5.51209">
        <ele>701</ele>
        <time>2021-09-07T11:48:18Z</time>
      </trkpt>
      <trkpt lat="44.46812" lon="5.51209">
        <ele>701</ele>
        <time>2021-09-07T11:48:19Z</time>
      </trkpt>
      <trkpt lat="44.46812" lon="5.51209">
        <ele>701</ele>
        <time>2021-09-07T11:48:20Z</time>
      </trkpt>
      <trkpt lat="44.46812" lon="5.51209">
        <ele>701</ele>
        <time>2021-09-07T11:48:21Z</time>
      </trkpt>
      <trkpt lat="44.46812" lon="5.51209">
        <ele>701</ele>
        <time>2021-09-07T11:48:22Z</time>
      </trkpt>
      <trkpt lat="44.46812" lon="5.51209">
        <ele>701</ele>
        <time>2021-09-07T11:48:23Z</time>
      </trkpt>
      <trkpt lat="44.46812" lon="5.51209">
        <ele>701</ele>
        <time>2021-09-07T11:48:24Z</time>
      </trkpt>
      <trkpt lat="44.46812" lon="5.51209">
        <ele>701</ele>
        <time>2021-09-07T11:48:25Z</time>
      </trkpt>
      <trkpt lat="44.46812" lon="5.51209">
        <ele>701</ele>
        <time>2021-09-07T11:48:26Z</time>
      </trkpt>
      <trkpt lat="44.46812" lon="5.51209">
        <ele>701</ele>
        <time>2021-09-07T11:48:27Z</time>
      </trkpt>
      <trkpt lat="44.46812" lon="5.51209">
        <ele>701</ele>
        <time>2021-09-07T11:48:28Z</time>
      </trkpt>
      <trkpt lat="44.46812" lon="5.51209">
        <ele>701</ele>
        <time>2021-09-07T11:48:29Z</time>
      </trkpt>
      <trkpt lat="44.46812" lon="5.51209">
        <ele>701</ele>
        <time>2021-09-07T11:48:30Z</time>
      </trkpt>
      <trkpt lat="44.46812" lon="5.51209">
        <ele>701</ele>
        <time>2021-09-07T11:48:31Z</time>
      </trkpt>
      <trkpt lat="44.46812" lon="5.51209">
        <ele>701</ele>
        <time>2021-09-07T11:48:32Z</time>
      </trkpt>
      <trkpt lat="44.46812" lon="5.5121">
        <ele>701</ele>
        <time>2021-09-07T11:48:33Z</time>
      </trkpt>
      <trkpt lat="44.46812" lon="5.5121">
        <ele>701</ele>
        <time>2021-09-07T11:48:34Z</time>
      </trkpt>
      <trkpt lat="44.46812" lon="5.5121">
        <ele>701</ele>
        <time>2021-09-07T11:48:35Z</time>
      </trkpt>
      <trkpt lat="44.46812" lon="5.5121">
        <ele>701</ele>
        <time>2021-09-07T11:48:36Z</time>
      </trkpt>
      <trkpt lat="44.46812" lon="5.5121">
        <ele>701</ele>
        <time>2021-09-07T11:48:37Z</time>
      </trkpt>
      <trkpt lat="44.46811" lon="5.5121">
        <ele>701</ele>
        <time>2021-09-07T11:48:38Z</time>
      </trkpt>
      <trkpt lat="44.46811" lon="5.5121">
        <ele>701</ele>
        <time>2021-09-07T11:48:39Z</time>
      </trkpt>
      <trkpt lat="44.46811" lon="5.5121">
        <ele>701</ele>
        <time>2021-09-07T11:48:40Z</time>
      </trkpt>
      <trkpt lat="44.46811" lon="5.5121">
        <ele>701</ele>
        <time>2021-09-07T11:48:41Z</time>
      </trkpt>
      <trkpt lat="44.46811" lon="5.5121">
        <ele>701</ele>
        <time>2021-09-07T11:48:42Z</time>
      </trkpt>
      <trkpt lat="44.46811" lon="5.5121">
        <ele>701</ele>
        <time>2021-09-07T11:48:43Z</time>
      </trkpt>
      <trkpt lat="44.46811" lon="5.5121">
        <ele>701</ele>
        <time>2021-09-07T11:48:44Z</time>
      </trkpt>
      <trkpt lat="44.46812" lon="5.5121">
        <ele>701</ele>
        <time>2021-09-07T11:48:45Z</time>
      </trkpt>
      <trkpt lat="44.46812" lon="5.5121">
        <ele>701</ele>
        <time>2021-09-07T11:48:46Z</time>
      </trkpt>
      <trkpt lat="44.46812" lon="5.5121">
        <ele>701</ele>
        <time>2021-09-07T11:48:47Z</time>
      </trkpt>
      <trkpt lat="44.46812" lon="5.5121">
        <ele>701</ele>
        <time>2021-09-07T11:48:48Z</time>
      </trkpt>
      <trkpt lat="44.4681" lon="5.51209">
        <ele>701</ele>
        <time>2021-09-07T11:48:49Z</time>
      </trkpt>
      <trkpt lat="44.4681" lon="5.51209">
        <ele>701</ele>
        <time>2021-09-07T11:48:50Z</time>
      </trkpt>
      <trkpt lat="44.46809" lon="5.51209">
        <ele>701</ele>
        <time>2021-09-07T11:48:51Z</time>
      </trkpt>
      <trkpt lat="44.46809" lon="5.51209">
        <ele>701</ele>
        <time>2021-09-07T11:48:52Z</time>
      </trkpt>
      <trkpt lat="44.46809" lon="5.51208">
        <ele>701</ele>
        <time>2021-09-07T11:48:53Z</time>
      </trkpt>
      <trkpt lat="44.46808" lon="5.51208">
        <ele>701</ele>
        <time>2021-09-07T11:48:54Z</time>
      </trkpt>
      <trkpt lat="44.46808" lon="5.51208">
        <ele>701</ele>
        <time>2021-09-07T11:48:55Z</time>
      </trkpt>
      <trkpt lat="44.46808" lon="5.51208">
        <ele>701</ele>
        <time>2021-09-07T11:48:56Z</time>
      </trkpt>
      <trkpt lat="44.46807" lon="5.51208">
        <ele>701</ele>
        <time>2021-09-07T11:48:57Z</time>
      </trkpt>
      <trkpt lat="44.46806" lon="5.5121">
        <ele>701</ele>
        <time>2021-09-07T11:48:58Z</time>
      </trkpt>
      <trkpt lat="44.46804" lon="5.51212">
        <ele>701</ele>
        <time>2021-09-07T11:48:59Z</time>
      </trkpt>
      <trkpt lat="44.46797" lon="5.51217">
        <ele>701</ele>
        <time>2021-09-07T11:49:00Z</time>
      </trkpt>
      <trkpt lat="44.46794" lon="5.51221">
        <ele>701</ele>
        <time>2021-09-07T11:49:01Z</time>
      </trkpt>
      <trkpt lat="44.46791" lon="5.51224">
        <ele>701</ele>
        <time>2021-09-07T11:49:02Z</time>
      </trkpt>
      <trkpt lat="44.46785" lon="5.51233">
        <ele>701</ele>
        <time>2021-09-07T11:49:03Z</time>
      </trkpt>
      <trkpt lat="44.46782" lon="5.51238">
        <ele>701</ele>
        <time>2021-09-07T11:49:04Z</time>
      </trkpt>
      <trkpt lat="44.4678" lon="5.51242">
        <ele>701</ele>
        <time>2021-09-07T11:49:05Z</time>
      </trkpt>
      <trkpt lat="44.46779" lon="5.51247">
        <ele>701.1</ele>
        <time>2021-09-07T11:49:06Z</time>
      </trkpt>
      <trkpt lat="44.46777" lon="5.51251">
        <ele>701.1</ele>
        <time>2021-09-07T11:49:07Z</time>
      </trkpt>
      <trkpt lat="44.46775" lon="5.51256">
        <ele>701.2</ele>
        <time>2021-09-07T11:49:08Z</time>
      </trkpt>
      <trkpt lat="44.46773" lon="5.5126">
        <ele>701.2</ele>
        <time>2021-09-07T11:49:09Z</time>
      </trkpt>
      <trkpt lat="44.46772" lon="5.51264">
        <ele>701.3</ele>
        <time>2021-09-07T11:49:10Z</time>
      </trkpt>
      <trkpt lat="44.46771" lon="5.51267">
        <ele>701.3</ele>
        <time>2021-09-07T11:49:11Z</time>
      </trkpt>
      <trkpt lat="44.4677" lon="5.51272">
        <ele>701.3</ele>
        <time>2021-09-07T11:49:12Z</time>
      </trkpt>
      <trkpt lat="44.46767" lon="5.51279">
        <ele>701.4</ele>
        <time>2021-09-07T11:49:13Z</time>
      </trkpt>
      <trkpt lat="44.46765" lon="5.51285">
        <ele>701.5</ele>
        <time>2021-09-07T11:49:14Z</time>
      </trkpt>
      <trkpt lat="44.46764" lon="5.51289">
        <ele>701.5</ele>
        <time>2021-09-07T11:49:15Z</time>
      </trkpt>
      <trkpt lat="44.46763" lon="5.51292">
        <ele>701.5</ele>
        <time>2021-09-07T11:49:16Z</time>
      </trkpt>
      <trkpt lat="44.46762" lon="5.51297">
        <ele>701.6</ele>
        <time>2021-09-07T11:49:17Z</time>
      </trkpt>
      <trkpt lat="44.46761" lon="5.51303">
        <ele>701.6</ele>
        <time>2021-09-07T11:49:18Z</time>
      </trkpt>
      <trkpt lat="44.46759" lon="5.5131">
        <ele>701.7</ele>
        <time>2021-09-07T11:49:19Z</time>
      </trkpt>
      <trkpt lat="44.46759" lon="5.51315">
        <ele>701.7</ele>
        <time>2021-09-07T11:49:20Z</time>
      </trkpt>
      <trkpt lat="44.46759" lon="5.51321">
        <ele>701.8</ele>
        <time>2021-09-07T11:49:21Z</time>
      </trkpt>
      <trkpt lat="44.46759" lon="5.51324">
        <ele>701.9</ele>
        <time>2021-09-07T11:49:22Z</time>
      </trkpt>
      <trkpt lat="44.46758" lon="5.51327">
        <ele>701.9</ele>
        <time>2021-09-07T11:49:23Z</time>
      </trkpt>
      <trkpt lat="44.46758" lon="5.51332">
        <ele>702</ele>
        <time>2021-09-07T11:49:24Z</time>
      </trkpt>
      <trkpt lat="44.46758" lon="5.51337">
        <ele>702.1</ele>
        <time>2021-09-07T11:49:25Z</time>
      </trkpt>
      <trkpt lat="44.46758" lon="5.51342">
        <ele>702.2</ele>
        <time>2021-09-07T11:49:26Z</time>
      </trkpt>
      <trkpt lat="44.46759" lon="5.51353">
        <ele>702.4</ele>
        <time>2021-09-07T11:49:27Z</time>
      </trkpt>
      <trkpt lat="44.4676" lon="5.51358">
        <ele>702.5</ele>
        <time>2021-09-07T11:49:28Z</time>
      </trkpt>
      <trkpt lat="44.4676" lon="5.51363">
        <ele>702.7</ele>
        <time>2021-09-07T11:49:29Z</time>
      </trkpt>
      <trkpt lat="44.4676" lon="5.51369">
        <ele>702.8</ele>
        <time>2021-09-07T11:49:30Z</time>
      </trkpt>
      <trkpt lat="44.46761" lon="5.51372">
        <ele>702.9</ele>
        <time>2021-09-07T11:49:31Z</time>
      </trkpt>
      <trkpt lat="44.46761" lon="5.51374">
        <ele>703</ele>
        <time>2021-09-07T11:49:32Z</time>
      </trkpt>
      <trkpt lat="44.46762" lon="5.5138">
        <ele>703.2</ele>
        <time>2021-09-07T11:49:33Z</time>
      </trkpt>
      <trkpt lat="44.46763" lon="5.51384">
        <ele>703.3</ele>
        <time>2021-09-07T11:49:34Z</time>
      </trkpt>
      <trkpt lat="44.46763" lon="5.51389">
        <ele>703.5</ele>
        <time>2021-09-07T11:49:35Z</time>
      </trkpt>
      <trkpt lat="44.46763" lon="5.51394">
        <ele>703.7</ele>
        <time>2021-09-07T11:49:36Z</time>
      </trkpt>
      <trkpt lat="44.46764" lon="5.51396">
        <ele>703.7</ele>
        <time>2021-09-07T11:49:37Z</time>
      </trkpt>
      <trkpt lat="44.46764" lon="5.51397">
        <ele>703.8</ele>
        <time>2021-09-07T11:49:38Z</time>
      </trkpt>
      <trkpt lat="44.46764" lon="5.51401">
        <ele>703.9</ele>
        <time>2021-09-07T11:49:39Z</time>
      </trkpt>
      <trkpt lat="44.46764" lon="5.51404">
        <ele>704</ele>
        <time>2021-09-07T11:49:40Z</time>
      </trkpt>
      <trkpt lat="44.46764" lon="5.51407">
        <ele>704.2</ele>
        <time>2021-09-07T11:49:41Z</time>
      </trkpt>
      <trkpt lat="44.46764" lon="5.5141">
        <ele>704.3</ele>
        <time>2021-09-07T11:49:42Z</time>
      </trkpt>
      <trkpt lat="44.46764" lon="5.51412">
        <ele>704.4</ele>
        <time>2021-09-07T11:49:43Z</time>
      </trkpt>
      <trkpt lat="44.46765" lon="5.51414">
        <ele>704.4</ele>
        <time>2021-09-07T11:49:44Z</time>
      </trkpt>
      <trkpt lat="44.46766" lon="5.51415">
        <ele>704.5</ele>
        <time>2021-09-07T11:49:45Z</time>
      </trkpt>
      <trkpt lat="44.46768" lon="5.51415">
        <ele>704.6</ele>
        <time>2021-09-07T11:49:46Z</time>
      </trkpt>
      <trkpt lat="44.46769" lon="5.51415">
        <ele>704.6</ele>
        <time>2021-09-07T11:49:47Z</time>
      </trkpt>
      <trkpt lat="44.46769" lon="5.51415">
        <ele>704.7</ele>
        <time>2021-09-07T11:49:48Z</time>
      </trkpt>
      <trkpt lat="44.4677" lon="5.51417">
        <ele>704.8</ele>
        <time>2021-09-07T11:49:49Z</time>
      </trkpt>
      <trkpt lat="44.46771" lon="5.51418">
        <ele>704.8</ele>
        <time>2021-09-07T11:49:50Z</time>
      </trkpt>
      <trkpt lat="44.46771" lon="5.51419">
        <ele>704.9</ele>
        <time>2021-09-07T11:49:51Z</time>
      </trkpt>
      <trkpt lat="44.46771" lon="5.5142">
        <ele>704.9</ele>
        <time>2021-09-07T11:49:52Z</time>
      </trkpt>
      <trkpt lat="44.46771" lon="5.5142">
        <ele>704.9</ele>
        <time>2021-09-07T11:49:53Z</time>
      </trkpt>
      <trkpt lat="44.46772" lon="5.5142">
        <ele>704.9</ele>
        <time>2021-09-07T11:49:54Z</time>
      </trkpt>
      <trkpt lat="44.46771" lon="5.5142">
        <ele>705</ele>
        <time>2021-09-07T11:49:55Z</time>
      </trkpt>
      <trkpt lat="44.4677" lon="5.51419">
        <ele>705.1</ele>
        <time>2021-09-07T11:49:56Z</time>
      </trkpt>
      <trkpt lat="44.46769" lon="5.51421">
        <ele>705.1</ele>
        <time>2021-09-07T11:49:57Z</time>
      </trkpt>
      <trkpt lat="44.46768" lon="5.51422">
        <ele>705.2</ele>
        <time>2021-09-07T11:49:58Z</time>
      </trkpt>
      <trkpt lat="44.46766" lon="5.51424">
        <ele>705.3</ele>
        <time>2021-09-07T11:49:59Z</time>
      </trkpt>
      <trkpt lat="44.46766" lon="5.51425">
        <ele>705.4</ele>
        <time>2021-09-07T11:50:00Z</time>
      </trkpt>
      <trkpt lat="44.46765" lon="5.51426">
        <ele>705.4</ele>
        <time>2021-09-07T11:50:01Z</time>
      </trkpt>
      <trkpt lat="44.46763" lon="5.5143">
        <ele>705.6</ele>
        <time>2021-09-07T11:50:02Z</time>
      </trkpt>
      <trkpt lat="44.46762" lon="5.51432">
        <ele>705.7</ele>
        <time>2021-09-07T11:50:03Z</time>
      </trkpt>
      <trkpt lat="44.46761" lon="5.51434">
        <ele>705.8</ele>
        <time>2021-09-07T11:50:04Z</time>
      </trkpt>
      <trkpt lat="44.4676" lon="5.51437">
        <ele>705.9</ele>
        <time>2021-09-07T11:50:05Z</time>
      </trkpt>
      <trkpt lat="44.46759" lon="5.51439">
        <ele>706</ele>
        <time>2021-09-07T11:50:06Z</time>
      </trkpt>
      <trkpt lat="44.46758" lon="5.51442">
        <ele>706.1</ele>
        <time>2021-09-07T11:50:07Z</time>
      </trkpt>
      <trkpt lat="44.46756" lon="5.51444">
        <ele>706.2</ele>
        <time>2021-09-07T11:50:08Z</time>
      </trkpt>
      <trkpt lat="44.46755" lon="5.51447">
        <ele>706.3</ele>
        <time>2021-09-07T11:50:09Z</time>
      </trkpt>
      <trkpt lat="44.46754" lon="5.51449">
        <ele>706.4</ele>
        <time>2021-09-07T11:50:10Z</time>
      </trkpt>
      <trkpt lat="44.46754" lon="5.51452">
        <ele>706.5</ele>
        <time>2021-09-07T11:50:11Z</time>
      </trkpt>
      <trkpt lat="44.46753" lon="5.51454">
        <ele>706.6</ele>
        <time>2021-09-07T11:50:12Z</time>
      </trkpt>
      <trkpt lat="44.46752" lon="5.51456">
        <ele>706.7</ele>
        <time>2021-09-07T11:50:13Z</time>
      </trkpt>
      <trkpt lat="44.46751" lon="5.51458">
        <ele>706.8</ele>
        <time>2021-09-07T11:50:14Z</time>
      </trkpt>
      <trkpt lat="44.4675" lon="5.51461">
        <ele>706.9</ele>
        <time>2021-09-07T11:50:15Z</time>
      </trkpt>
      <trkpt lat="44.4675" lon="5.51463">
        <ele>706.9</ele>
        <time>2021-09-07T11:50:16Z</time>
      </trkpt>
      <trkpt lat="44.46749" lon="5.51464">
        <ele>707</ele>
        <time>2021-09-07T11:50:17Z</time>
      </trkpt>
      <trkpt lat="44.46749" lon="5.51466">
        <ele>707</ele>
        <time>2021-09-07T11:50:18Z</time>
      </trkpt>
      <trkpt lat="44.4675" lon="5.51469">
        <ele>707.1</ele>
        <time>2021-09-07T11:50:19Z</time>
      </trkpt>
      <trkpt lat="44.4675" lon="5.51471">
        <ele>707.2</ele>
        <time>2021-09-07T11:50:20Z</time>
      </trkpt>
      <trkpt lat="44.46751" lon="5.51474">
        <ele>707.3</ele>
        <time>2021-09-07T11:50:21Z</time>
      </trkpt>
      <trkpt lat="44.46751" lon="5.51476">
        <ele>707.3</ele>
        <time>2021-09-07T11:50:22Z</time>
      </trkpt>
      <trkpt lat="44.46752" lon="5.51478">
        <ele>707.5</ele>
        <time>2021-09-07T11:50:23Z</time>
      </trkpt>
      <trkpt lat="44.46753" lon="5.51479">
        <ele>707.4</ele>
        <time>2021-09-07T11:50:24Z</time>
      </trkpt>
      <trkpt lat="44.46754" lon="5.51481">
        <ele>707.4</ele>
        <time>2021-09-07T11:50:25Z</time>
      </trkpt>
      <trkpt lat="44.46755" lon="5.51482">
        <ele>707.4</ele>
        <time>2021-09-07T11:50:26Z</time>
      </trkpt>
      <trkpt lat="44.46757" lon="5.51482">
        <ele>707.4</ele>
        <time>2021-09-07T11:50:27Z</time>
      </trkpt>
      <trkpt lat="44.46759" lon="5.51481">
        <ele>707.3</ele>
        <time>2021-09-07T11:50:28Z</time>
      </trkpt>
      <trkpt lat="44.46761" lon="5.51481">
        <ele>707.3</ele>
        <time>2021-09-07T11:50:29Z</time>
      </trkpt>
      <trkpt lat="44.46762" lon="5.51479">
        <ele>707.3</ele>
        <time>2021-09-07T11:50:30Z</time>
      </trkpt>
      <trkpt lat="44.46762" lon="5.51479">
        <ele>707.3</ele>
        <time>2021-09-07T11:50:31Z</time>
      </trkpt>
      <trkpt lat="44.46761" lon="5.51479">
        <ele>707.3</ele>
        <time>2021-09-07T11:50:32Z</time>
      </trkpt>
      <trkpt lat="44.46761" lon="5.51479">
        <ele>707.3</ele>
        <time>2021-09-07T11:50:33Z</time>
      </trkpt>
      <trkpt lat="44.46762" lon="5.51479">
        <ele>707.2</ele>
        <time>2021-09-07T11:50:34Z</time>
      </trkpt>
      <trkpt lat="44.46762" lon="5.51479">
        <ele>707.2</ele>
        <time>2021-09-07T11:50:35Z</time>
      </trkpt>
      <trkpt lat="44.46762" lon="5.51479">
        <ele>707.2</ele>
        <time>2021-09-07T11:50:36Z</time>
      </trkpt>
      <trkpt lat="44.46762" lon="5.51479">
        <ele>707.2</ele>
        <time>2021-09-07T11:50:37Z</time>
      </trkpt>
      <trkpt lat="44.46762" lon="5.51479">
        <ele>707.2</ele>
        <time>2021-09-07T11:50:38Z</time>
      </trkpt>
      <trkpt lat="44.46762" lon="5.51479">
        <ele>707.2</ele>
        <time>2021-09-07T11:50:39Z</time>
      </trkpt>
      <trkpt lat="44.46762" lon="5.51479">
        <ele>707.2</ele>
        <time>2021-09-07T11:50:40Z</time>
      </trkpt>
      <trkpt lat="44.46762" lon="5.51479">
        <ele>707.2</ele>
        <time>2021-09-07T11:50:41Z</time>
      </trkpt>
      <trkpt lat="44.46762" lon="5.51479">
        <ele>707.2</ele>
        <time>2021-09-07T11:50:42Z</time>
      </trkpt>
      <trkpt lat="44.46762" lon="5.51479">
        <ele>707.2</ele>
        <time>2021-09-07T11:50:43Z</time>
      </trkpt>
      <trkpt lat="44.46762" lon="5.51479">
        <ele>707.2</ele>
        <time>2021-09-07T11:50:44Z</time>
      </trkpt>
      <trkpt lat="44.46762" lon="5.51479">
        <ele>707.2</ele>
        <time>2021-09-07T11:50:45Z</time>
      </trkpt>
      <trkpt lat="44.46762" lon="5.51479">
        <ele>707.2</ele>
        <time>2021-09-07T11:50:46Z</time>
      </trkpt>
      <trkpt lat="44.46762" lon="5.51479">
        <ele>707.2</ele>
        <time>2021-09-07T11:50:47Z</time>
      </trkpt>
      <trkpt lat="44.46762" lon="5.51479">
        <ele>707.2</ele>
        <time>2021-09-07T11:50:48Z</time>
      </trkpt>
      <trkpt lat="44.46762" lon="5.51479">
        <ele>707.2</ele>
        <time>2021-09-07T11:50:49Z</time>
      </trkpt>
      <trkpt lat="44.46762" lon="5.51479">
        <ele>707.2</ele>
        <time>2021-09-07T11:50:50Z</time>
      </trkpt>
      <trkpt lat="44.46762" lon="5.51479">
        <ele>707.2</ele>
        <time>2021-09-07T11:50:51Z</time>
      </trkpt>
      <trkpt lat="44.46762" lon="5.51479">
        <ele>707.2</ele>
        <time>2021-09-07T11:50:52Z</time>
      </trkpt>
      <trkpt lat="44.46762" lon="5.51479">
        <ele>707.2</ele>
        <time>2021-09-07T11:50:53Z</time>
      </trkpt>
      <trkpt lat="44.46762" lon="5.51479">
        <ele>707.2</ele>
        <time>2021-09-07T11:50:54Z</time>
      </trkpt>
      <trkpt lat="44.46762" lon="5.51479">
        <ele>707.2</ele>
        <time>2021-09-07T11:50:55Z</time>
      </trkpt>
      <trkpt lat="44.46762" lon="5.51478">
        <ele>707.2</ele>
        <time>2021-09-07T11:50:56Z</time>
      </trkpt>
      <trkpt lat="44.46762" lon="5.51478">
        <ele>707.2</ele>
        <time>2021-09-07T11:50:57Z</time>
      </trkpt>
      <trkpt lat="44.46762" lon="5.51478">
        <ele>707.2</ele>
        <time>2021-09-07T11:50:58Z</time>
      </trkpt>
      <trkpt lat="44.46762" lon="5.51478">
        <ele>707.2</ele>
        <time>2021-09-07T11:50:59Z</time>
      </trkpt>
      <trkpt lat="44.46762" lon="5.51478">
        <ele>707.2</ele>
        <time>2021-09-07T11:51:00Z</time>
      </trkpt>
      <trkpt lat="44.46762" lon="5.51479">
        <ele>707.2</ele>
        <time>2021-09-07T11:51:01Z</time>
      </trkpt>
      <trkpt lat="44.46762" lon="5.51479">
        <ele>707.2</ele>
        <time>2021-09-07T11:51:02Z</time>
      </trkpt>
      <trkpt lat="44.46762" lon="5.51479">
        <ele>707.2</ele>
        <time>2021-09-07T11:51:03Z</time>
      </trkpt>
      <trkpt lat="44.46762" lon="5.51479">
        <ele>707.2</ele>
        <time>2021-09-07T11:51:04Z</time>
      </trkpt>
      <trkpt lat="44.46762" lon="5.51479">
        <ele>707.2</ele>
        <time>2021-09-07T11:51:05Z</time>
      </trkpt>
      <trkpt lat="44.46762" lon="5.51479">
        <ele>707.2</ele>
        <time>2021-09-07T11:51:06Z</time>
      </trkpt>
      <trkpt lat="44.46762" lon="5.51479">
        <ele>707.2</ele>
        <time>2021-09-07T11:51:07Z</time>
      </trkpt>
      <trkpt lat="44.46762" lon="5.51479">
        <ele>707.2</ele>
        <time>2021-09-07T11:51:08Z</time>
      </trkpt>
      <trkpt lat="44.46762" lon="5.51479">
        <ele>707.2</ele>
        <time>2021-09-07T11:51:09Z</time>
      </trkpt>
      <trkpt lat="44.46762" lon="5.51479">
        <ele>707.2</ele>
        <time>2021-09-07T11:51:10Z</time>
      </trkpt>
      <trkpt lat="44.46762" lon="5.51479">
        <ele>707.2</ele>
        <time>2021-09-07T11:51:11Z</time>
      </trkpt>
      <trkpt lat="44.46762" lon="5.51479">
        <ele>707.2</ele>
        <time>2021-09-07T11:51:12Z</time>
      </trkpt>
      <trkpt lat="44.46762" lon="5.51479">
        <ele>707.2</ele>
        <time>2021-09-07T11:51:13Z</time>
      </trkpt>
      <trkpt lat="44.46762" lon="5.51479">
        <ele>707.2</ele>
        <time>2021-09-07T11:51:14Z</time>
      </trkpt>
      <trkpt lat="44.46762" lon="5.51479">
        <ele>707.2</ele>
        <time>2021-09-07T11:51:15Z</time>
      </trkpt>
      <trkpt lat="44.46762" lon="5.51479">
        <ele>707.2</ele>
        <time>2021-09-07T11:51:16Z</time>
      </trkpt>
      <trkpt lat="44.46762" lon="5.5148">
        <ele>707.2</ele>
        <time>2021-09-07T11:51:17Z</time>
      </trkpt>
      <trkpt lat="44.46763" lon="5.51481">
        <ele>707.2</ele>
        <time>2021-09-07T11:51:18Z</time>
      </trkpt>
      <trkpt lat="44.46763" lon="5.51481">
        <ele>707.2</ele>
        <time>2021-09-07T11:51:19Z</time>
      </trkpt>
      <trkpt lat="44.46763" lon="5.51482">
        <ele>707.2</ele>
        <time>2021-09-07T11:51:20Z</time>
      </trkpt>
      <trkpt lat="44.46763" lon="5.51482">
        <ele>707.2</ele>
        <time>2021-09-07T11:51:21Z</time>
      </trkpt>
      <trkpt lat="44.46764" lon="5.51483">
        <ele>707.2</ele>
        <time>2021-09-07T11:51:22Z</time>
      </trkpt>
      <trkpt lat="44.46764" lon="5.51484">
        <ele>707.1</ele>
        <time>2021-09-07T11:51:23Z</time>
      </trkpt>
      <trkpt lat="44.46764" lon="5.51484">
        <ele>707.1</ele>
        <time>2021-09-07T11:51:24Z</time>
      </trkpt>
      <trkpt lat="44.46764" lon="5.51484">
        <ele>707.1</ele>
        <time>2021-09-07T11:51:25Z</time>
      </trkpt>
      <trkpt lat="44.46764" lon="5.51485">
        <ele>707.1</ele>
        <time>2021-09-07T11:51:26Z</time>
      </trkpt>
      <trkpt lat="44.46764" lon="5.51485">
        <ele>707.1</ele>
        <time>2021-09-07T11:51:27Z</time>
      </trkpt>
      <trkpt lat="44.46764" lon="5.51485">
        <ele>707.1</ele>
        <time>2021-09-07T11:51:28Z</time>
      </trkpt>
      <trkpt lat="44.46764" lon="5.51485">
        <ele>707.1</ele>
        <time>2021-09-07T11:51:29Z</time>
      </trkpt>
      <trkpt lat="44.46764" lon="5.51486">
        <ele>707.1</ele>
        <time>2021-09-07T11:51:30Z</time>
      </trkpt>
      <trkpt lat="44.46764" lon="5.51486">
        <ele>707.1</ele>
        <time>2021-09-07T11:51:31Z</time>
      </trkpt>
      <trkpt lat="44.46764" lon="5.51486">
        <ele>707.1</ele>
        <time>2021-09-07T11:51:32Z</time>
      </trkpt>
      <trkpt lat="44.46764" lon="5.51486">
        <ele>707.1</ele>
        <time>2021-09-07T11:51:33Z</time>
      </trkpt>
      <trkpt lat="44.46764" lon="5.51486">
        <ele>707.1</ele>
        <time>2021-09-07T11:51:34Z</time>
      </trkpt>
      <trkpt lat="44.46764" lon="5.51486">
        <ele>707.1</ele>
        <time>2021-09-07T11:51:35Z</time>
      </trkpt>
      <trkpt lat="44.46764" lon="5.51486">
        <ele>707.1</ele>
        <time>2021-09-07T11:51:36Z</time>
      </trkpt>
      <trkpt lat="44.46764" lon="5.51486">
        <ele>707.1</ele>
        <time>2021-09-07T11:51:37Z</time>
      </trkpt>
      <trkpt lat="44.46764" lon="5.51486">
        <ele>707.1</ele>
        <time>2021-09-07T11:51:38Z</time>
      </trkpt>
      <trkpt lat="44.46764" lon="5.51486">
        <ele>707.1</ele>
        <time>2021-09-07T11:51:39Z</time>
      </trkpt>
      <trkpt lat="44.46764" lon="5.51486">
        <ele>707.1</ele>
        <time>2021-09-07T11:51:40Z</time>
      </trkpt>
      <trkpt lat="44.46764" lon="5.51486">
        <ele>707.1</ele>
        <time>2021-09-07T11:51:41Z</time>
      </trkpt>
      <trkpt lat="44.46764" lon="5.51486">
        <ele>707.1</ele>
        <time>2021-09-07T11:51:42Z</time>
      </trkpt>
      <trkpt lat="44.46764" lon="5.51486">
        <ele>707.1</ele>
        <time>2021-09-07T11:51:43Z</time>
      </trkpt>
      <trkpt lat="44.46764" lon="5.51486">
        <ele>707.1</ele>
        <time>2021-09-07T11:51:44Z</time>
      </trkpt>
      <trkpt lat="44.46764" lon="5.51486">
        <ele>707.1</ele>
        <time>2021-09-07T11:51:45Z</time>
      </trkpt>
      <trkpt lat="44.46764" lon="5.51486">
        <ele>707.1</ele>
        <time>2021-09-07T11:51:46Z</time>
      </trkpt>
      <trkpt lat="44.46764" lon="5.51486">
        <ele>707.1</ele>
        <time>2021-09-07T11:51:47Z</time>
      </trkpt>
      <trkpt lat="44.46764" lon="5.51486">
        <ele>707.1</ele>
        <time>2021-09-07T11:51:48Z</time>
      </trkpt>
      <trkpt lat="44.46764" lon="5.51486">
        <ele>707.1</ele>
        <time>2021-09-07T11:51:49Z</time>
      </trkpt>
      <trkpt lat="44.46764" lon="5.51486">
        <ele>707.1</ele>
        <time>2021-09-07T11:51:50Z</time>
      </trkpt>
      <trkpt lat="44.46764" lon="5.51486">
        <ele>707.1</ele>
        <time>2021-09-07T11:51:51Z</time>
      </trkpt>
      <trkpt lat="44.46764" lon="5.51486">
        <ele>707.1</ele>
        <time>2021-09-07T11:51:52Z</time>
      </trkpt>
      <trkpt lat="44.46764" lon="5.51486">
        <ele>707.1</ele>
        <time>2021-09-07T11:51:53Z</time>
      </trkpt>
      <trkpt lat="44.46764" lon="5.51485">
        <ele>707.1</ele>
        <time>2021-09-07T11:51:54Z</time>
      </trkpt>
      <trkpt lat="44.46764" lon="5.51484">
        <ele>707.1</ele>
        <time>2021-09-07T11:51:55Z</time>
      </trkpt>
      <trkpt lat="44.46764" lon="5.51484">
        <ele>707.1</ele>
        <time>2021-09-07T11:51:56Z</time>
      </trkpt>
      <trkpt lat="44.46764" lon="5.51483">
        <ele>707.1</ele>
        <time>2021-09-07T11:51:57Z</time>
      </trkpt>
      <trkpt lat="44.46765" lon="5.51482">
        <ele>707.1</ele>
        <time>2021-09-07T11:51:58Z</time>
      </trkpt>
      <trkpt lat="44.46765" lon="5.51481">
        <ele>707.1</ele>
        <time>2021-09-07T11:51:59Z</time>
      </trkpt>
      <trkpt lat="44.46765" lon="5.5148">
        <ele>707.1</ele>
        <time>2021-09-07T11:52:00Z</time>
      </trkpt>
      <trkpt lat="44.46766" lon="5.5148">
        <ele>707</ele>
        <time>2021-09-07T11:52:01Z</time>
      </trkpt>
      <trkpt lat="44.46766" lon="5.5148">
        <ele>707</ele>
        <time>2021-09-07T11:52:02Z</time>
      </trkpt>
      <trkpt lat="44.46766" lon="5.5148">
        <ele>707</ele>
        <time>2021-09-07T11:52:03Z</time>
      </trkpt>
      <trkpt lat="44.46766" lon="5.51479">
        <ele>707</ele>
        <time>2021-09-07T11:52:04Z</time>
      </trkpt>
      <trkpt lat="44.46766" lon="5.51479">
        <ele>707</ele>
        <time>2021-09-07T11:52:05Z</time>
      </trkpt>
      <trkpt lat="44.46766" lon="5.51479">
        <ele>707</ele>
        <time>2021-09-07T11:52:06Z</time>
      </trkpt>
      <trkpt lat="44.46766" lon="5.51479">
        <ele>707</ele>
        <time>2021-09-07T11:52:07Z</time>
      </trkpt>
      <trkpt lat="44.46767" lon="5.51479">
        <ele>707</ele>
        <time>2021-09-07T11:52:08Z</time>
      </trkpt>
      <trkpt lat="44.46768" lon="5.51479">
        <ele>707</ele>
        <time>2021-09-07T11:52:09Z</time>
      </trkpt>
      <trkpt lat="44.46768" lon="5.51479">
        <ele>707</ele>
        <time>2021-09-07T11:52:10Z</time>
      </trkpt>
      <trkpt lat="44.46768" lon="5.51478">
        <ele>707</ele>
        <time>2021-09-07T11:52:11Z</time>
      </trkpt>
      <trkpt lat="44.4677" lon="5.51478">
        <ele>707</ele>
        <time>2021-09-07T11:52:12Z</time>
      </trkpt>
      <trkpt lat="44.46771" lon="5.51478">
        <ele>706.9</ele>
        <time>2021-09-07T11:52:13Z</time>
      </trkpt>
      <trkpt lat="44.46772" lon="5.51478">
        <ele>706.9</ele>
        <time>2021-09-07T11:52:14Z</time>
      </trkpt>
      <trkpt lat="44.46772" lon="5.51478">
        <ele>706.9</ele>
        <time>2021-09-07T11:52:15Z</time>
      </trkpt>
      <trkpt lat="44.46772" lon="5.51478">
        <ele>706.9</ele>
        <time>2021-09-07T11:52:16Z</time>
      </trkpt>
      <trkpt lat="44.46772" lon="5.51478">
        <ele>706.9</ele>
        <time>2021-09-07T11:52:17Z</time>
      </trkpt>
      <trkpt lat="44.46773" lon="5.51478">
        <ele>706.9</ele>
        <time>2021-09-07T11:52:18Z</time>
      </trkpt>
      <trkpt lat="44.46774" lon="5.51478">
        <ele>706.9</ele>
        <time>2021-09-07T11:52:19Z</time>
      </trkpt>
      <trkpt lat="44.46774" lon="5.51478">
        <ele>706.9</ele>
        <time>2021-09-07T11:52:20Z</time>
      </trkpt>
      <trkpt lat="44.46776" lon="5.51478">
        <ele>706.9</ele>
        <time>2021-09-07T11:52:21Z</time>
      </trkpt>
      <trkpt lat="44.46777" lon="5.51477">
        <ele>706.8</ele>
        <time>2021-09-07T11:52:22Z</time>
      </trkpt>
      <trkpt lat="44.46778" lon="5.51476">
        <ele>706.8</ele>
        <time>2021-09-07T11:52:23Z</time>
      </trkpt>
      <trkpt lat="44.46779" lon="5.51475">
        <ele>706.8</ele>
        <time>2021-09-07T11:52:24Z</time>
      </trkpt>
      <trkpt lat="44.46782" lon="5.51474">
        <ele>706.8</ele>
        <time>2021-09-07T11:52:25Z</time>
      </trkpt>
      <trkpt lat="44.46784" lon="5.51472">
        <ele>706.7</ele>
        <time>2021-09-07T11:52:26Z</time>
      </trkpt>
      <trkpt lat="44.46787" lon="5.51471">
        <ele>706.7</ele>
        <time>2021-09-07T11:52:27Z</time>
      </trkpt>
      <trkpt lat="44.4679" lon="5.51469">
        <ele>706.6</ele>
        <time>2021-09-07T11:52:28Z</time>
      </trkpt>
      <trkpt lat="44.46793" lon="5.51467">
        <ele>707.1</ele>
        <time>2021-09-07T11:52:29Z</time>
      </trkpt>
      <trkpt lat="44.46795" lon="5.51466">
        <ele>707.5</ele>
        <time>2021-09-07T11:52:30Z</time>
      </trkpt>
      <trkpt lat="44.46797" lon="5.51465">
        <ele>708</ele>
        <time>2021-09-07T11:52:31Z</time>
      </trkpt>
      <trkpt lat="44.468" lon="5.51459">
        <ele>708.4</ele>
        <time>2021-09-07T11:52:32Z</time>
      </trkpt>
      <trkpt lat="44.468" lon="5.51458">
        <ele>707.9</ele>
        <time>2021-09-07T11:52:33Z</time>
      </trkpt>
      <trkpt lat="44.46799" lon="5.51457">
        <ele>707.8</ele>
        <time>2021-09-07T11:52:34Z</time>
      </trkpt>
      <trkpt lat="44.46796" lon="5.51456">
        <ele>707.3</ele>
        <time>2021-09-07T11:52:35Z</time>
      </trkpt>
      <trkpt lat="44.46791" lon="5.51456">
        <ele>706.8</ele>
        <time>2021-09-07T11:52:36Z</time>
      </trkpt>
      <trkpt lat="44.46787" lon="5.51455">
        <ele>705.7</ele>
        <time>2021-09-07T11:52:37Z</time>
      </trkpt>
      <trkpt lat="44.46782" lon="5.51454">
        <ele>705.2</ele>
        <time>2021-09-07T11:52:38Z</time>
      </trkpt>
      <trkpt lat="44.46778" lon="5.51453">
        <ele>704</ele>
        <time>2021-09-07T11:52:39Z</time>
      </trkpt>
      <trkpt lat="44.46773" lon="5.51451">
        <ele>703.5</ele>
        <time>2021-09-07T11:52:40Z</time>
      </trkpt>
      <trkpt lat="44.46769" lon="5.51449">
        <ele>702.5</ele>
        <time>2021-09-07T11:52:41Z</time>
      </trkpt>
      <trkpt lat="44.46764" lon="5.51445">
        <ele>702.1</ele>
        <time>2021-09-07T11:52:42Z</time>
      </trkpt>
      <trkpt lat="44.46759" lon="5.51441">
        <ele>701.4</ele>
        <time>2021-09-07T11:52:43Z</time>
      </trkpt>
      <trkpt lat="44.46756" lon="5.51438">
        <ele>701</ele>
        <time>2021-09-07T11:52:44Z</time>
      </trkpt>
      <trkpt lat="44.46753" lon="5.51435">
        <ele>700.6</ele>
        <time>2021-09-07T11:52:45Z</time>
      </trkpt>
      <trkpt lat="44.46752" lon="5.51434">
        <ele>700.6</ele>
        <time>2021-09-07T11:52:46Z</time>
      </trkpt>
      <trkpt lat="44.46751" lon="5.51432">
        <ele>700.5</ele>
        <time>2021-09-07T11:52:47Z</time>
      </trkpt>
      <trkpt lat="44.46751" lon="5.51432">
        <ele>700.5</ele>
        <time>2021-09-07T11:52:48Z</time>
      </trkpt>
      <trkpt lat="44.46752" lon="5.51432">
        <ele>700.5</ele>
        <time>2021-09-07T11:52:49Z</time>
      </trkpt>
      <trkpt lat="44.46752" lon="5.51432">
        <ele>700.5</ele>
        <time>2021-09-07T11:52:50Z</time>
      </trkpt>
      <trkpt lat="44.46752" lon="5.51432">
        <ele>700.5</ele>
        <time>2021-09-07T11:52:51Z</time>
      </trkpt>
      <trkpt lat="44.46752" lon="5.51432">
        <ele>700.5</ele>
        <time>2021-09-07T11:52:52Z</time>
      </trkpt>
      <trkpt lat="44.46752" lon="5.51432">
        <ele>700.5</ele>
        <time>2021-09-07T11:52:53Z</time>
      </trkpt>
      <trkpt lat="44.46752" lon="5.51432">
        <ele>700.5</ele>
        <time>2021-09-07T11:52:54Z</time>
      </trkpt>
      <trkpt lat="44.46752" lon="5.51432">
        <ele>700.5</ele>
        <time>2021-09-07T11:52:55Z</time>
      </trkpt>
      <trkpt lat="44.46752" lon="5.51432">
        <ele>700.5</ele>
        <time>2021-09-07T11:52:56Z</time>
      </trkpt>
      <trkpt lat="44.46752" lon="5.51432">
        <ele>700.5</ele>
        <time>2021-09-07T11:52:57Z</time>
      </trkpt>
      <trkpt lat="44.46752" lon="5.51432">
        <ele>700.5</ele>
        <time>2021-09-07T11:52:58Z</time>
      </trkpt>
      <trkpt lat="44.46752" lon="5.51432">
        <ele>700.5</ele>
        <time>2021-09-07T11:52:59Z</time>
      </trkpt>
      <trkpt lat="44.46752" lon="5.51432">
        <ele>700.5</ele>
        <time>2021-09-07T11:53:00Z</time>
      </trkpt>
      <trkpt lat="44.46752" lon="5.51432">
        <ele>700.5</ele>
        <time>2021-09-07T11:53:01Z</time>
      </trkpt>
      <trkpt lat="44.46752" lon="5.51432">
        <ele>700.5</ele>
        <time>2021-09-07T11:53:02Z</time>
      </trkpt>
      <trkpt lat="44.46752" lon="5.51432">
        <ele>700.5</ele>
        <time>2021-09-07T11:53:03Z</time>
      </trkpt>
      <trkpt lat="44.46752" lon="5.51432">
        <ele>700.5</ele>
        <time>2021-09-07T11:53:04Z</time>
      </trkpt>
      <trkpt lat="44.46752" lon="5.51432">
        <ele>700.5</ele>
        <time>2021-09-07T11:53:05Z</time>
      </trkpt>
      <trkpt lat="44.46752" lon="5.51432">
        <ele>700.5</ele>
        <time>2021-09-07T11:53:06Z</time>
      </trkpt>
      <trkpt lat="44.46752" lon="5.51432">
        <ele>700.5</ele>
        <time>2021-09-07T11:53:07Z</time>
      </trkpt>
      <trkpt lat="44.46752" lon="5.51432">
        <ele>700.5</ele>
        <time>2021-09-07T11:53:08Z</time>
      </trkpt>
      <trkpt lat="44.46752" lon="5.51432">
        <ele>700.5</ele>
        <time>2021-09-07T11:53:09Z</time>
      </trkpt>
      <trkpt lat="44.46752" lon="5.51432">
        <ele>700.5</ele>
        <time>2021-09-07T11:53:10Z</time>
      </trkpt>
      <trkpt lat="44.46752" lon="5.51432">
        <ele>700.5</ele>
        <time>2021-09-07T11:53:11Z</time>
      </trkpt>
      <trkpt lat="44.46752" lon="5.51432">
        <ele>700.5</ele>
        <time>2021-09-07T11:53:12Z</time>
      </trkpt>
      <trkpt lat="44.46752" lon="5.51432">
        <ele>700.5</ele>
        <time>2021-09-07T11:53:13Z</time>
      </trkpt>
      <trkpt lat="44.46752" lon="5.51432">
        <ele>700.5</ele>
        <time>2021-09-07T11:53:14Z</time>
      </trkpt>
      <trkpt lat="44.46752" lon="5.51432">
        <ele>700.5</ele>
        <time>2021-09-07T11:53:15Z</time>
      </trkpt>
      <trkpt lat="44.46752" lon="5.51432">
        <ele>700.5</ele>
        <time>2021-09-07T11:53:16Z</time>
      </trkpt>
      <trkpt lat="44.46752" lon="5.51432">
        <ele>700.5</ele>
        <time>2021-09-07T11:53:17Z</time>
      </trkpt>
      <trkpt lat="44.46752" lon="5.51432">
        <ele>700.5</ele>
        <time>2021-09-07T11:53:18Z</time>
      </trkpt>
      <trkpt lat="44.46752" lon="5.51432">
        <ele>700.5</ele>
        <time>2021-09-07T11:53:19Z</time>
      </trkpt>
      <trkpt lat="44.46752" lon="5.51432">
        <ele>700.5</ele>
        <time>2021-09-07T11:53:20Z</time>
      </trkpt>
      <trkpt lat="44.46752" lon="5.51432">
        <ele>700.5</ele>
        <time>2021-09-07T11:53:21Z</time>
      </trkpt>
      <trkpt lat="44.46751" lon="5.51434">
        <ele>700.3</ele>
        <time>2021-09-07T11:53:22Z</time>
      </trkpt>
      <trkpt lat="44.46749" lon="5.51435">
        <ele>700.3</ele>
        <time>2021-09-07T11:53:23Z</time>
      </trkpt>
      <trkpt lat="44.46748" lon="5.51437">
        <ele>700.4</ele>
        <time>2021-09-07T11:53:24Z</time>
      </trkpt>
      <trkpt lat="44.46746" lon="5.5144">
        <ele>700.1</ele>
        <time>2021-09-07T11:53:25Z</time>
      </trkpt>
      <trkpt lat="44.46743" lon="5.51443">
        <ele>699.9</ele>
        <time>2021-09-07T11:53:26Z</time>
      </trkpt>
      <trkpt lat="44.46742" lon="5.51445">
        <ele>699.9</ele>
        <time>2021-09-07T11:53:27Z</time>
      </trkpt>
      <trkpt lat="44.46741" lon="5.51446">
        <ele>699.8</ele>
        <time>2021-09-07T11:53:28Z</time>
      </trkpt>
      <trkpt lat="44.46741" lon="5.51448">
        <ele>699.8</ele>
        <time>2021-09-07T11:53:29Z</time>
      </trkpt>
      <trkpt lat="44.46741" lon="5.51448">
        <ele>699.8</ele>
        <time>2021-09-07T11:53:30Z</time>
      </trkpt>
      <trkpt lat="44.46741" lon="5.51448">
        <ele>699.8</ele>
        <time>2021-09-07T11:53:31Z</time>
      </trkpt>
      <trkpt lat="44.46741" lon="5.51448">
        <ele>699.8</ele>
        <time>2021-09-07T11:53:32Z</time>
      </trkpt>
      <trkpt lat="44.46741" lon="5.51448">
        <ele>699.8</ele>
        <time>2021-09-07T11:53:33Z</time>
      </trkpt>
      <trkpt lat="44.46741" lon="5.51448">
        <ele>699.8</ele>
        <time>2021-09-07T11:53:34Z</time>
      </trkpt>
      <trkpt lat="44.46741" lon="5.51448">
        <ele>699.8</ele>
        <time>2021-09-07T11:53:35Z</time>
      </trkpt>
      <trkpt lat="44.46741" lon="5.51448">
        <ele>699.8</ele>
        <time>2021-09-07T11:53:36Z</time>
      </trkpt>
      <trkpt lat="44.46741" lon="5.51448">
        <ele>699.8</ele>
        <time>2021-09-07T11:53:37Z</time>
      </trkpt>
      <trkpt lat="44.46741" lon="5.51448">
        <ele>699.8</ele>
        <time>2021-09-07T11:53:38Z</time>
      </trkpt>
      <trkpt lat="44.46741" lon="5.51448">
        <ele>699.8</ele>
        <time>2021-09-07T11:53:39Z</time>
      </trkpt>
      <trkpt lat="44.46741" lon="5.51448">
        <ele>699.8</ele>
        <time>2021-09-07T11:53:40Z</time>
      </trkpt>
      <trkpt lat="44.46741" lon="5.51448">
        <ele>699.8</ele>
        <time>2021-09-07T11:53:41Z</time>
      </trkpt>
      <trkpt lat="44.46741" lon="5.51448">
        <ele>699.8</ele>
        <time>2021-09-07T11:53:42Z</time>
      </trkpt>
      <trkpt lat="44.46744" lon="5.5145">
        <ele>700.2</ele>
        <time>2021-09-07T11:53:43Z</time>
      </trkpt>
      <trkpt lat="44.46747" lon="5.51451">
        <ele>700.4</ele>
        <time>2021-09-07T11:53:44Z</time>
      </trkpt>
      <trkpt lat="44.4675" lon="5.51452">
        <ele>700.7</ele>
        <time>2021-09-07T11:53:45Z</time>
      </trkpt>
      <trkpt lat="44.46751" lon="5.51452">
        <ele>700.7</ele>
        <time>2021-09-07T11:53:46Z</time>
      </trkpt>
      <trkpt lat="44.46751" lon="5.51452">
        <ele>701</ele>
        <time>2021-09-07T11:53:47Z</time>
      </trkpt>
      <trkpt lat="44.46752" lon="5.51452">
        <ele>701</ele>
        <time>2021-09-07T11:53:48Z</time>
      </trkpt>
      <trkpt lat="44.46752" lon="5.51452">
        <ele>701</ele>
        <time>2021-09-07T11:53:49Z</time>
      </trkpt>
      <trkpt lat="44.46752" lon="5.51452">
        <ele>701</ele>
        <time>2021-09-07T11:53:50Z</time>
      </trkpt>
      <trkpt lat="44.46752" lon="5.51452">
        <ele>701</ele>
        <time>2021-09-07T11:53:51Z</time>
      </trkpt>
      <trkpt lat="44.46752" lon="5.51452">
        <ele>701</ele>
        <time>2021-09-07T11:53:52Z</time>
      </trkpt>
      <trkpt lat="44.46752" lon="5.51452">
        <ele>701</ele>
        <time>2021-09-07T11:53:53Z</time>
      </trkpt>
      <trkpt lat="44.46752" lon="5.51452">
        <ele>701</ele>
        <time>2021-09-07T11:53:54Z</time>
      </trkpt>
      <trkpt lat="44.46752" lon="5.51452">
        <ele>701</ele>
        <time>2021-09-07T11:53:55Z</time>
      </trkpt>
      <trkpt lat="44.46754" lon="5.5145">
        <ele>701.3</ele>
        <time>2021-09-07T11:53:56Z</time>
      </trkpt>
      <trkpt lat="44.46756" lon="5.51448">
        <ele>701.2</ele>
        <time>2021-09-07T11:53:57Z</time>
      </trkpt>
      <trkpt lat="44.46758" lon="5.51445">
        <ele>701.4</ele>
        <time>2021-09-07T11:53:58Z</time>
      </trkpt>
      <trkpt lat="44.46758" lon="5.51445">
        <ele>701.4</ele>
        <time>2021-09-07T11:53:59Z</time>
      </trkpt>
      <trkpt lat="44.46759" lon="5.51445">
        <ele>701.4</ele>
        <time>2021-09-07T11:54:00Z</time>
      </trkpt>
      <trkpt lat="44.46759" lon="5.51445">
        <ele>701.4</ele>
        <time>2021-09-07T11:54:01Z</time>
      </trkpt>
      <trkpt lat="44.4676" lon="5.51445">
        <ele>701.4</ele>
        <time>2021-09-07T11:54:02Z</time>
      </trkpt>
      <trkpt lat="44.4676" lon="5.51445">
        <ele>701.4</ele>
        <time>2021-09-07T11:54:03Z</time>
      </trkpt>
      <trkpt lat="44.46761" lon="5.51445">
        <ele>701.7</ele>
        <time>2021-09-07T11:54:04Z</time>
      </trkpt>
      <trkpt lat="44.46761" lon="5.51445">
        <ele>701.7</ele>
        <time>2021-09-07T11:54:05Z</time>
      </trkpt>
      <trkpt lat="44.46761" lon="5.51445">
        <ele>701.7</ele>
        <time>2021-09-07T11:54:06Z</time>
      </trkpt>
      <trkpt lat="44.46762" lon="5.51445">
        <ele>701.7</ele>
        <time>2021-09-07T11:54:07Z</time>
      </trkpt>
      <trkpt lat="44.46762" lon="5.51445">
        <ele>701.7</ele>
        <time>2021-09-07T11:54:08Z</time>
      </trkpt>
      <trkpt lat="44.46763" lon="5.51445">
        <ele>701.7</ele>
        <time>2021-09-07T11:54:09Z</time>
      </trkpt>
      <trkpt lat="44.46763" lon="5.51445">
        <ele>701.7</ele>
        <time>2021-09-07T11:54:10Z</time>
      </trkpt>
      <trkpt lat="44.46763" lon="5.51445">
        <ele>702.1</ele>
        <time>2021-09-07T11:54:11Z</time>
      </trkpt>
      <trkpt lat="44.46764" lon="5.51445">
        <ele>702.1</ele>
        <time>2021-09-07T11:54:12Z</time>
      </trkpt>
      <trkpt lat="44.46764" lon="5.51445">
        <ele>702.1</ele>
        <time>2021-09-07T11:54:13Z</time>
      </trkpt>
      <trkpt lat="44.46765" lon="5.51445">
        <ele>702.1</ele>
        <time>2021-09-07T11:54:14Z</time>
      </trkpt>
      <trkpt lat="44.46765" lon="5.51445">
        <ele>702.1</ele>
        <time>2021-09-07T11:54:15Z</time>
      </trkpt>
      <trkpt lat="44.46768" lon="5.51445">
        <ele>702.4</ele>
        <time>2021-09-07T11:54:16Z</time>
      </trkpt>
      <trkpt lat="44.4677" lon="5.51445">
        <ele>702.9</ele>
        <time>2021-09-07T11:54:17Z</time>
      </trkpt>
      <trkpt lat="44.4677" lon="5.51445">
        <ele>702.9</ele>
        <time>2021-09-07T11:54:18Z</time>
      </trkpt>
      <trkpt lat="44.4677" lon="5.51445">
        <ele>702.9</ele>
        <time>2021-09-07T11:54:19Z</time>
      </trkpt>
      <trkpt lat="44.46771" lon="5.51445">
        <ele>702.9</ele>
        <time>2021-09-07T11:54:20Z</time>
      </trkpt>
      <trkpt lat="44.46771" lon="5.51445">
        <ele>702.9</ele>
        <time>2021-09-07T11:54:21Z</time>
      </trkpt>
      <trkpt lat="44.46772" lon="5.51445">
        <ele>702.9</ele>
        <time>2021-09-07T11:54:22Z</time>
      </trkpt>
      <trkpt lat="44.46772" lon="5.51445">
        <ele>702.9</ele>
        <time>2021-09-07T11:54:23Z</time>
      </trkpt>
      <trkpt lat="44.46773" lon="5.51445">
        <ele>703.3</ele>
        <time>2021-09-07T11:54:24Z</time>
      </trkpt>
      <trkpt lat="44.46773" lon="5.51444">
        <ele>703.3</ele>
        <time>2021-09-07T11:54:25Z</time>
      </trkpt>
      <trkpt lat="44.46774" lon="5.51444">
        <ele>703.3</ele>
        <time>2021-09-07T11:54:26Z</time>
      </trkpt>
      <trkpt lat="44.46774" lon="5.51444">
        <ele>703.3</ele>
        <time>2021-09-07T11:54:27Z</time>
      </trkpt>
      <trkpt lat="44.46775" lon="5.51444">
        <ele>703.3</ele>
        <time>2021-09-07T11:54:28Z</time>
      </trkpt>
      <trkpt lat="44.46775" lon="5.51444">
        <ele>703.3</ele>
        <time>2021-09-07T11:54:29Z</time>
      </trkpt>
      <trkpt lat="44.46775" lon="5.51444">
        <ele>703.3</ele>
        <time>2021-09-07T11:54:30Z</time>
      </trkpt>
      <trkpt lat="44.46776" lon="5.51444">
        <ele>703.8</ele>
        <time>2021-09-07T11:54:31Z</time>
      </trkpt>
      <trkpt lat="44.46776" lon="5.51444">
        <ele>703.8</ele>
        <time>2021-09-07T11:54:32Z</time>
      </trkpt>
      <trkpt lat="44.46777" lon="5.51444">
        <ele>703.8</ele>
        <time>2021-09-07T11:54:33Z</time>
      </trkpt>
      <trkpt lat="44.46777" lon="5.51444">
        <ele>703.8</ele>
        <time>2021-09-07T11:54:34Z</time>
      </trkpt>
      <trkpt lat="44.46778" lon="5.51444">
        <ele>703.8</ele>
        <time>2021-09-07T11:54:35Z</time>
      </trkpt>
      <trkpt lat="44.46778" lon="5.51444">
        <ele>703.8</ele>
        <time>2021-09-07T11:54:36Z</time>
      </trkpt>
      <trkpt lat="44.46779" lon="5.51444">
        <ele>704.3</ele>
        <time>2021-09-07T11:54:37Z</time>
      </trkpt>
      <trkpt lat="44.46779" lon="5.51444">
        <ele>704.3</ele>
        <time>2021-09-07T11:54:38Z</time>
      </trkpt>
      <trkpt lat="44.46784" lon="5.51443">
        <ele>704.9</ele>
        <time>2021-09-07T11:54:39Z</time>
      </trkpt>
      <trkpt lat="44.46787" lon="5.51443">
        <ele>705.4</ele>
        <time>2021-09-07T11:54:40Z</time>
      </trkpt>
      <trkpt lat="44.46788" lon="5.51442">
        <ele>705.9</ele>
        <time>2021-09-07T11:54:41Z</time>
      </trkpt>
      <trkpt lat="44.46788" lon="5.51442">
        <ele>705.9</ele>
        <time>2021-09-07T11:54:42Z</time>
      </trkpt>
      <trkpt lat="44.46789" lon="5.51442">
        <ele>705.9</ele>
        <time>2021-09-07T11:54:43Z</time>
      </trkpt>
      <trkpt lat="44.46789" lon="5.51442">
        <ele>705.9</ele>
        <time>2021-09-07T11:54:44Z</time>
      </trkpt>
      <trkpt lat="44.46789" lon="5.51442">
        <ele>705.9</ele>
        <time>2021-09-07T11:54:45Z</time>
      </trkpt>
      <trkpt lat="44.46789" lon="5.51442">
        <ele>705.9</ele>
        <time>2021-09-07T11:54:46Z</time>
      </trkpt>
      <trkpt lat="44.46789" lon="5.51441">
        <ele>705.9</ele>
        <time>2021-09-07T11:54:47Z</time>
      </trkpt>
      <trkpt lat="44.4679" lon="5.5144">
        <ele>705.9</ele>
        <time>2021-09-07T11:54:48Z</time>
      </trkpt>
      <trkpt lat="44.4679" lon="5.51439">
        <ele>705.9</ele>
        <time>2021-09-07T11:54:49Z</time>
      </trkpt>
      <trkpt lat="44.46791" lon="5.51435">
        <ele>706.4</ele>
        <time>2021-09-07T11:54:50Z</time>
      </trkpt>
      <trkpt lat="44.46792" lon="5.51432">
        <ele>706.3</ele>
        <time>2021-09-07T11:54:51Z</time>
      </trkpt>
      <trkpt lat="44.46792" lon="5.51428">
        <ele>706.3</ele>
        <time>2021-09-07T11:54:52Z</time>
      </trkpt>
      <trkpt lat="44.46791" lon="5.51428">
        <ele>706.3</ele>
        <time>2021-09-07T11:54:53Z</time>
      </trkpt>
      <trkpt lat="44.4679" lon="5.51428">
        <ele>705.8</ele>
        <time>2021-09-07T11:54:54Z</time>
      </trkpt>
      <trkpt lat="44.4679" lon="5.51428">
        <ele>705.8</ele>
        <time>2021-09-07T11:54:55Z</time>
      </trkpt>
      <trkpt lat="44.46789" lon="5.51427">
        <ele>705.8</ele>
        <time>2021-09-07T11:54:56Z</time>
      </trkpt>
      <trkpt lat="44.46789" lon="5.51426">
        <ele>705.8</ele>
        <time>2021-09-07T11:54:57Z</time>
      </trkpt>
      <trkpt lat="44.46789" lon="5.51426">
        <ele>705.8</ele>
        <time>2021-09-07T11:54:58Z</time>
      </trkpt>
      <trkpt lat="44.46788" lon="5.51424">
        <ele>705.8</ele>
        <time>2021-09-07T11:54:59Z</time>
      </trkpt>
      <trkpt lat="44.4679" lon="5.51424">
        <ele>705.8</ele>
        <time>2021-09-07T11:55:00Z</time>
      </trkpt>
      <trkpt lat="44.46793" lon="5.51425">
        <ele>706.3</ele>
        <time>2021-09-07T11:55:01Z</time>
      </trkpt>
      <trkpt lat="44.46795" lon="5.51426">
        <ele>706.9</ele>
        <time>2021-09-07T11:55:02Z</time>
      </trkpt>
      <trkpt lat="44.46796" lon="5.51427">
        <ele>706.9</ele>
        <time>2021-09-07T11:55:03Z</time>
      </trkpt>
      <trkpt lat="44.46797" lon="5.51428">
        <ele>707.4</ele>
        <time>2021-09-07T11:55:04Z</time>
      </trkpt>
      <trkpt lat="44.46798" lon="5.51428">
        <ele>707.4</ele>
        <time>2021-09-07T11:55:05Z</time>
      </trkpt>
      <trkpt lat="44.46798" lon="5.51429">
        <ele>707.4</ele>
        <time>2021-09-07T11:55:06Z</time>
      </trkpt>
      <trkpt lat="44.46798" lon="5.51429">
        <ele>707.4</ele>
        <time>2021-09-07T11:55:07Z</time>
      </trkpt>
      <trkpt lat="44.46798" lon="5.51429">
        <ele>707.4</ele>
        <time>2021-09-07T11:55:08Z</time>
      </trkpt>
      <trkpt lat="44.46798" lon="5.51429">
        <ele>707.4</ele>
        <time>2021-09-07T11:55:09Z</time>
      </trkpt>
      <trkpt lat="44.46798" lon="5.51429">
        <ele>707.4</ele>
        <time>2021-09-07T11:55:10Z</time>
      </trkpt>
      <trkpt lat="44.46798" lon="5.51429">
        <ele>707.4</ele>
        <time>2021-09-07T11:55:11Z</time>
      </trkpt>
      <trkpt lat="44.46798" lon="5.51429">
        <ele>707.4</ele>
        <time>2021-09-07T11:55:12Z</time>
      </trkpt>
      <trkpt lat="44.46798" lon="5.51429">
        <ele>707.4</ele>
        <time>2021-09-07T11:55:13Z</time>
      </trkpt>
      <trkpt lat="44.46798" lon="5.51429">
        <ele>707.4</ele>
        <time>2021-09-07T11:55:14Z</time>
      </trkpt>
      <trkpt lat="44.46798" lon="5.51429">
        <ele>707.4</ele>
        <time>2021-09-07T11:55:15Z</time>
      </trkpt>
      <trkpt lat="44.46798" lon="5.51429">
        <ele>707.4</ele>
        <time>2021-09-07T11:55:16Z</time>
      </trkpt>
      <trkpt lat="44.46798" lon="5.51429">
        <ele>707.4</ele>
        <time>2021-09-07T11:55:17Z</time>
      </trkpt>
      <trkpt lat="44.46798" lon="5.51429">
        <ele>707.4</ele>
        <time>2021-09-07T11:55:18Z</time>
      </trkpt>
      <trkpt lat="44.46798" lon="5.51429">
        <ele>707.4</ele>
        <time>2021-09-07T11:55:19Z</time>
      </trkpt>
      <trkpt lat="44.46798" lon="5.51429">
        <ele>707.4</ele>
        <time>2021-09-07T11:55:20Z</time>
      </trkpt>
      <trkpt lat="44.46798" lon="5.51429">
        <ele>707.4</ele>
        <time>2021-09-07T11:55:21Z</time>
      </trkpt>
      <trkpt lat="44.46798" lon="5.51429">
        <ele>707.4</ele>
        <time>2021-09-07T11:55:22Z</time>
      </trkpt>
      <trkpt lat="44.46798" lon="5.51429">
        <ele>707.4</ele>
        <time>2021-09-07T11:55:23Z</time>
      </trkpt>
      <trkpt lat="44.46798" lon="5.51429">
        <ele>707.4</ele>
        <time>2021-09-07T11:55:24Z</time>
      </trkpt>
      <trkpt lat="44.46798" lon="5.51429">
        <ele>707.4</ele>
        <time>2021-09-07T11:55:25Z</time>
      </trkpt>
      <trkpt lat="44.46798" lon="5.51429">
        <ele>707.4</ele>
        <time>2021-09-07T11:55:26Z</time>
      </trkpt>
      <trkpt lat="44.46798" lon="5.51429">
        <ele>707.4</ele>
        <time>2021-09-07T11:55:27Z</time>
      </trkpt>
      <trkpt lat="44.46798" lon="5.51429">
        <ele>707.4</ele>
        <time>2021-09-07T11:55:28Z</time>
      </trkpt>
      <trkpt lat="44.46798" lon="5.51429">
        <ele>707.4</ele>
        <time>2021-09-07T11:55:29Z</time>
      </trkpt>
      <trkpt lat="44.46798" lon="5.51429">
        <ele>707.4</ele>
        <time>2021-09-07T11:55:30Z</time>
      </trkpt>
      <trkpt lat="44.46798" lon="5.51429">
        <ele>707.4</ele>
        <time>2021-09-07T11:55:31Z</time>
      </trkpt>
      <trkpt lat="44.46798" lon="5.51429">
        <ele>707.4</ele>
        <time>2021-09-07T11:55:32Z</time>
      </trkpt>
      <trkpt lat="44.46798" lon="5.51429">
        <ele>707.4</ele>
        <time>2021-09-07T11:55:33Z</time>
      </trkpt>
      <trkpt lat="44.468" lon="5.51433">
        <ele>708.1</ele>
        <time>2021-09-07T11:55:34Z</time>
      </trkpt>
      <trkpt lat="44.46802" lon="5.51437">
        <ele>708.1</ele>
        <time>2021-09-07T11:55:35Z</time>
      </trkpt>
      <trkpt lat="44.46803" lon="5.51439">
        <ele>708.1</ele>
        <time>2021-09-07T11:55:36Z</time>
      </trkpt>
      <trkpt lat="44.46803" lon="5.51441">
        <ele>708.8</ele>
        <time>2021-09-07T11:55:37Z</time>
      </trkpt>
      <trkpt lat="44.46804" lon="5.51443">
        <ele>708.8</ele>
        <time>2021-09-07T11:55:38Z</time>
      </trkpt>
      <trkpt lat="44.46805" lon="5.51445">
        <ele>708.8</ele>
        <time>2021-09-07T11:55:39Z</time>
      </trkpt>
      <trkpt lat="44.46805" lon="5.51447">
        <ele>708.8</ele>
        <time>2021-09-07T11:55:40Z</time>
      </trkpt>
      <trkpt lat="44.46805" lon="5.51449">
        <ele>708.8</ele>
        <time>2021-09-07T11:55:41Z</time>
      </trkpt>
      <trkpt lat="44.46805" lon="5.51449">
        <ele>708.8</ele>
        <time>2021-09-07T11:55:42Z</time>
      </trkpt>
      <trkpt lat="44.46805" lon="5.51449">
        <ele>708.8</ele>
        <time>2021-09-07T11:55:43Z</time>
      </trkpt>
      <trkpt lat="44.46805" lon="5.5145">
        <ele>708.9</ele>
        <time>2021-09-07T11:55:44Z</time>
      </trkpt>
      <trkpt lat="44.46805" lon="5.5145">
        <ele>708.9</ele>
        <time>2021-09-07T11:55:45Z</time>
      </trkpt>
      <trkpt lat="44.46805" lon="5.5145">
        <ele>708.9</ele>
        <time>2021-09-07T11:55:46Z</time>
      </trkpt>
      <trkpt lat="44.46805" lon="5.5145">
        <ele>708.9</ele>
        <time>2021-09-07T11:55:47Z</time>
      </trkpt>
      <trkpt lat="44.46805" lon="5.5145">
        <ele>708.9</ele>
        <time>2021-09-07T11:55:48Z</time>
      </trkpt>
      <trkpt lat="44.46805" lon="5.5145">
        <ele>708.9</ele>
        <time>2021-09-07T11:55:49Z</time>
      </trkpt>
      <trkpt lat="44.46805" lon="5.5145">
        <ele>708.9</ele>
        <time>2021-09-07T11:55:50Z</time>
      </trkpt>
      <trkpt lat="44.46805" lon="5.5145">
        <ele>708.9</ele>
        <time>2021-09-07T11:55:51Z</time>
      </trkpt>
      <trkpt lat="44.46805" lon="5.5145">
        <ele>708.9</ele>
        <time>2021-09-07T11:55:52Z</time>
      </trkpt>
      <trkpt lat="44.46805" lon="5.5145">
        <ele>708.9</ele>
        <time>2021-09-07T11:55:53Z</time>
      </trkpt>
      <trkpt lat="44.46805" lon="5.5145">
        <ele>708.9</ele>
        <time>2021-09-07T11:55:54Z</time>
      </trkpt>
      <trkpt lat="44.46807" lon="5.51452">
        <ele>709.5</ele>
        <time>2021-09-07T11:55:55Z</time>
      </trkpt>
      <trkpt lat="44.46809" lon="5.51454">
        <ele>709.6</ele>
        <time>2021-09-07T11:55:56Z</time>
      </trkpt>
      <trkpt lat="44.46811" lon="5.51455">
        <ele>710.2</ele>
        <time>2021-09-07T11:55:57Z</time>
      </trkpt>
      <trkpt lat="44.46812" lon="5.51456">
        <ele>710.9</ele>
        <time>2021-09-07T11:55:58Z</time>
      </trkpt>
      <trkpt lat="44.46812" lon="5.51457">
        <ele>710.9</ele>
        <time>2021-09-07T11:55:59Z</time>
      </trkpt>
      <trkpt lat="44.46813" lon="5.51457">
        <ele>710.9</ele>
        <time>2021-09-07T11:56:00Z</time>
      </trkpt>
      <trkpt lat="44.46813" lon="5.51458">
        <ele>710.9</ele>
        <time>2021-09-07T11:56:01Z</time>
      </trkpt>
      <trkpt lat="44.46813" lon="5.51458">
        <ele>710.9</ele>
        <time>2021-09-07T11:56:02Z</time>
      </trkpt>
      <trkpt lat="44.46813" lon="5.51459">
        <ele>710.9</ele>
        <time>2021-09-07T11:56:03Z</time>
      </trkpt>
      <trkpt lat="44.46814" lon="5.51459">
        <ele>710.9</ele>
        <time>2021-09-07T11:56:04Z</time>
      </trkpt>
      <trkpt lat="44.46814" lon="5.5146">
        <ele>710.9</ele>
        <time>2021-09-07T11:56:05Z</time>
      </trkpt>
      <trkpt lat="44.46814" lon="5.5146">
        <ele>710.9</ele>
        <time>2021-09-07T11:56:06Z</time>
      </trkpt>
      <trkpt lat="44.46814" lon="5.51461">
        <ele>710.9</ele>
        <time>2021-09-07T11:56:07Z</time>
      </trkpt>
      <trkpt lat="44.46814" lon="5.51461">
        <ele>710.9</ele>
        <time>2021-09-07T11:56:08Z</time>
      </trkpt>
      <trkpt lat="44.46815" lon="5.51462">
        <ele>710.9</ele>
        <time>2021-09-07T11:56:09Z</time>
      </trkpt>
      <trkpt lat="44.46815" lon="5.51462">
        <ele>711</ele>
        <time>2021-09-07T11:56:10Z</time>
      </trkpt>
      <trkpt lat="44.46815" lon="5.51463">
        <ele>711</ele>
        <time>2021-09-07T11:56:11Z</time>
      </trkpt>
      <trkpt lat="44.46815" lon="5.51463">
        <ele>711.6</ele>
        <time>2021-09-07T11:56:12Z</time>
      </trkpt>
      <trkpt lat="44.46816" lon="5.51464">
        <ele>711.6</ele>
        <time>2021-09-07T11:56:13Z</time>
      </trkpt>
      <trkpt lat="44.46816" lon="5.51465">
        <ele>711.6</ele>
        <time>2021-09-07T11:56:14Z</time>
      </trkpt>
      <trkpt lat="44.46816" lon="5.51465">
        <ele>711.6</ele>
        <time>2021-09-07T11:56:15Z</time>
      </trkpt>
      <trkpt lat="44.46817" lon="5.51466">
        <ele>711.6</ele>
        <time>2021-09-07T11:56:16Z</time>
      </trkpt>
      <trkpt lat="44.46817" lon="5.51467">
        <ele>711.6</ele>
        <time>2021-09-07T11:56:17Z</time>
      </trkpt>
      <trkpt lat="44.46817" lon="5.51468">
        <ele>711.6</ele>
        <time>2021-09-07T11:56:18Z</time>
      </trkpt>
      <trkpt lat="44.46817" lon="5.51469">
        <ele>711.6</ele>
        <time>2021-09-07T11:56:19Z</time>
      </trkpt>
      <trkpt lat="44.46817" lon="5.51469">
        <ele>711.6</ele>
        <time>2021-09-07T11:56:20Z</time>
      </trkpt>
      <trkpt lat="44.46817" lon="5.5147">
        <ele>711.6</ele>
        <time>2021-09-07T11:56:21Z</time>
      </trkpt>
      <trkpt lat="44.46817" lon="5.5147">
        <ele>711.6</ele>
        <time>2021-09-07T11:56:22Z</time>
      </trkpt>
      <trkpt lat="44.46817" lon="5.5147">
        <ele>711.6</ele>
        <time>2021-09-07T11:56:23Z</time>
      </trkpt>
      <trkpt lat="44.46817" lon="5.5147">
        <ele>711.6</ele>
        <time>2021-09-07T11:56:24Z</time>
      </trkpt>
      <trkpt lat="44.46817" lon="5.5147">
        <ele>711.6</ele>
        <time>2021-09-07T11:56:25Z</time>
      </trkpt>
      <trkpt lat="44.46817" lon="5.5147">
        <ele>711.6</ele>
        <time>2021-09-07T11:56:26Z</time>
      </trkpt>
      <trkpt lat="44.46817" lon="5.5147">
        <ele>711.6</ele>
        <time>2021-09-07T11:56:27Z</time>
      </trkpt>
      <trkpt lat="44.46817" lon="5.5147">
        <ele>711.6</ele>
        <time>2021-09-07T11:56:28Z</time>
      </trkpt>
      <trkpt lat="44.46817" lon="5.5147">
        <ele>711.6</ele>
        <time>2021-09-07T11:56:29Z</time>
      </trkpt>
      <trkpt lat="44.46817" lon="5.5147">
        <ele>711.6</ele>
        <time>2021-09-07T11:56:30Z</time>
      </trkpt>
      <trkpt lat="44.46817" lon="5.5147">
        <ele>711.6</ele>
        <time>2021-09-07T11:56:31Z</time>
      </trkpt>
      <trkpt lat="44.46817" lon="5.5147">
        <ele>711.6</ele>
        <time>2021-09-07T11:56:32Z</time>
      </trkpt>
      <trkpt lat="44.46817" lon="5.5147">
        <ele>711.6</ele>
        <time>2021-09-07T11:56:33Z</time>
      </trkpt>
      <trkpt lat="44.46817" lon="5.5147">
        <ele>711.6</ele>
        <time>2021-09-07T11:56:34Z</time>
      </trkpt>
      <trkpt lat="44.46817" lon="5.5147">
        <ele>711.6</ele>
        <time>2021-09-07T11:56:35Z</time>
      </trkpt>
      <trkpt lat="44.46817" lon="5.5147">
        <ele>711.6</ele>
        <time>2021-09-07T11:56:36Z</time>
      </trkpt>
      <trkpt lat="44.46817" lon="5.5147">
        <ele>711.6</ele>
        <time>2021-09-07T11:56:37Z</time>
      </trkpt>
      <trkpt lat="44.46817" lon="5.5147">
        <ele>711.6</ele>
        <time>2021-09-07T11:56:38Z</time>
      </trkpt>
      <trkpt lat="44.46817" lon="5.5147">
        <ele>711.6</ele>
        <time>2021-09-07T11:56:39Z</time>
      </trkpt>
      <trkpt lat="44.46817" lon="5.5147">
        <ele>711.6</ele>
        <time>2021-09-07T11:56:40Z</time>
      </trkpt>
      <trkpt lat="44.46817" lon="5.5147">
        <ele>711.6</ele>
        <time>2021-09-07T11:56:41Z</time>
      </trkpt>
      <trkpt lat="44.46817" lon="5.5147">
        <ele>711.6</ele>
        <time>2021-09-07T11:56:42Z</time>
      </trkpt>
      <trkpt lat="44.46817" lon="5.5147">
        <ele>711.6</ele>
        <time>2021-09-07T11:56:43Z</time>
      </trkpt>
      <trkpt lat="44.46817" lon="5.5147">
        <ele>711.6</ele>
        <time>2021-09-07T11:56:44Z</time>
      </trkpt>
      <trkpt lat="44.46817" lon="5.5147">
        <ele>711.6</ele>
        <time>2021-09-07T11:56:45Z</time>
      </trkpt>
      <trkpt lat="44.46817" lon="5.5147">
        <ele>711.6</ele>
        <time>2021-09-07T11:56:46Z</time>
      </trkpt>
      <trkpt lat="44.46817" lon="5.5147">
        <ele>711.6</ele>
        <time>2021-09-07T11:56:47Z</time>
      </trkpt>
      <trkpt lat="44.46817" lon="5.5147">
        <ele>711.6</ele>
        <time>2021-09-07T11:56:48Z</time>
      </trkpt>
      <trkpt lat="44.46817" lon="5.5147">
        <ele>711.6</ele>
        <time>2021-09-07T11:56:49Z</time>
      </trkpt>
      <trkpt lat="44.46817" lon="5.5147">
        <ele>711.6</ele>
        <time>2021-09-07T11:56:50Z</time>
      </trkpt>
      <trkpt lat="44.46817" lon="5.5147">
        <ele>711.6</ele>
        <time>2021-09-07T11:56:51Z</time>
      </trkpt>
      <trkpt lat="44.46817" lon="5.5147">
        <ele>711.6</ele>
        <time>2021-09-07T11:56:52Z</time>
      </trkpt>
      <trkpt lat="44.46817" lon="5.5147">
        <ele>711.6</ele>
        <time>2021-09-07T11:56:53Z</time>
      </trkpt>
      <trkpt lat="44.46817" lon="5.5147">
        <ele>711.6</ele>
        <time>2021-09-07T11:56:54Z</time>
      </trkpt>
      <trkpt lat="44.46817" lon="5.5147">
        <ele>711.6</ele>
        <time>2021-09-07T11:56:55Z</time>
      </trkpt>
      <trkpt lat="44.46817" lon="5.5147">
        <ele>711.6</ele>
        <time>2021-09-07T11:56:56Z</time>
      </trkpt>
      <trkpt lat="44.46817" lon="5.5147">
        <ele>711.6</ele>
        <time>2021-09-07T11:56:57Z</time>
      </trkpt>
      <trkpt lat="44.46817" lon="5.5147">
        <ele>711.6</ele>
        <time>2021-09-07T11:56:58Z</time>
      </trkpt>
      <trkpt lat="44.46817" lon="5.5147">
        <ele>711.6</ele>
        <time>2021-09-07T11:56:59Z</time>
      </trkpt>
      <trkpt lat="44.46817" lon="5.5147">
        <ele>711.6</ele>
        <time>2021-09-07T11:57:00Z</time>
      </trkpt>
      <trkpt lat="44.46817" lon="5.5147">
        <ele>711.6</ele>
        <time>2021-09-07T11:57:01Z</time>
      </trkpt>
      <trkpt lat="44.46815" lon="5.51471">
        <ele>711</ele>
        <time>2021-09-07T11:57:02Z</time>
      </trkpt>
      <trkpt lat="44.46813" lon="5.51471">
        <ele>711.1</ele>
        <time>2021-09-07T11:57:03Z</time>
      </trkpt>
      <trkpt lat="44.46809" lon="5.51473">
        <ele>709.9</ele>
        <time>2021-09-07T11:57:04Z</time>
      </trkpt>
      <trkpt lat="44.46808" lon="5.51473">
        <ele>709.9</ele>
        <time>2021-09-07T11:57:05Z</time>
      </trkpt>
      <trkpt lat="44.46808" lon="5.51473">
        <ele>709.9</ele>
        <time>2021-09-07T11:57:06Z</time>
      </trkpt>
      <trkpt lat="44.46808" lon="5.51473">
        <ele>709.9</ele>
        <time>2021-09-07T11:57:07Z</time>
      </trkpt>
      <trkpt lat="44.46808" lon="5.51473">
        <ele>709.9</ele>
        <time>2021-09-07T11:57:08Z</time>
      </trkpt>
      <trkpt lat="44.46808" lon="5.51473">
        <ele>709.9</ele>
        <time>2021-09-07T11:57:09Z</time>
      </trkpt>
      <trkpt lat="44.46808" lon="5.51473">
        <ele>709.9</ele>
        <time>2021-09-07T11:57:10Z</time>
      </trkpt>
      <trkpt lat="44.46808" lon="5.51473">
        <ele>709.9</ele>
        <time>2021-09-07T11:57:11Z</time>
      </trkpt>
      <trkpt lat="44.46808" lon="5.51473">
        <ele>709.9</ele>
        <time>2021-09-07T11:57:12Z</time>
      </trkpt>
      <trkpt lat="44.46808" lon="5.51473">
        <ele>709.9</ele>
        <time>2021-09-07T11:57:13Z</time>
      </trkpt>
      <trkpt lat="44.46809" lon="5.51473">
        <ele>709.9</ele>
        <time>2021-09-07T11:57:14Z</time>
      </trkpt>
      <trkpt lat="44.46809" lon="5.51473">
        <ele>709.9</ele>
        <time>2021-09-07T11:57:15Z</time>
      </trkpt>
      <trkpt lat="44.46809" lon="5.51473">
        <ele>709.9</ele>
        <time>2021-09-07T11:57:16Z</time>
      </trkpt>
      <trkpt lat="44.46809" lon="5.51473">
        <ele>709.9</ele>
        <time>2021-09-07T11:57:17Z</time>
      </trkpt>
      <trkpt lat="44.46809" lon="5.51474">
        <ele>709.9</ele>
        <time>2021-09-07T11:57:18Z</time>
      </trkpt>
      <trkpt lat="44.46809" lon="5.51474">
        <ele>709.9</ele>
        <time>2021-09-07T11:57:19Z</time>
      </trkpt>
      <trkpt lat="44.46809" lon="5.51474">
        <ele>709.9</ele>
        <time>2021-09-07T11:57:20Z</time>
      </trkpt>
      <trkpt lat="44.46809" lon="5.51474">
        <ele>709.9</ele>
        <time>2021-09-07T11:57:21Z</time>
      </trkpt>
      <trkpt lat="44.46809" lon="5.51474">
        <ele>709.9</ele>
        <time>2021-09-07T11:57:22Z</time>
      </trkpt>
      <trkpt lat="44.46809" lon="5.51474">
        <ele>709.9</ele>
        <time>2021-09-07T11:57:23Z</time>
      </trkpt>
      <trkpt lat="44.46809" lon="5.51474">
        <ele>709.9</ele>
        <time>2021-09-07T11:57:24Z</time>
      </trkpt>
      <trkpt lat="44.46809" lon="5.51474">
        <ele>709.9</ele>
        <time>2021-09-07T11:57:25Z</time>
      </trkpt>
      <trkpt lat="44.46809" lon="5.51474">
        <ele>709.9</ele>
        <time>2021-09-07T11:57:26Z</time>
      </trkpt>
      <trkpt lat="44.46809" lon="5.51474">
        <ele>709.9</ele>
        <time>2021-09-07T11:57:27Z</time>
      </trkpt>
      <trkpt lat="44.46809" lon="5.51474">
        <ele>709.9</ele>
        <time>2021-09-07T11:57:28Z</time>
      </trkpt>
      <trkpt lat="44.46809" lon="5.51474">
        <ele>709.9</ele>
        <time>2021-09-07T11:57:29Z</time>
      </trkpt>
      <trkpt lat="44.46809" lon="5.51474">
        <ele>710.5</ele>
        <time>2021-09-07T11:57:30Z</time>
      </trkpt>
      <trkpt lat="44.46809" lon="5.51474">
        <ele>710.5</ele>
        <time>2021-09-07T11:57:31Z</time>
      </trkpt>
      <trkpt lat="44.46809" lon="5.51474">
        <ele>710.5</ele>
        <time>2021-09-07T11:57:32Z</time>
      </trkpt>
      <trkpt lat="44.46809" lon="5.51474">
        <ele>710.5</ele>
        <time>2021-09-07T11:57:33Z</time>
      </trkpt>
      <trkpt lat="44.46809" lon="5.51474">
        <ele>710.5</ele>
        <time>2021-09-07T11:57:34Z</time>
      </trkpt>
      <trkpt lat="44.46809" lon="5.51474">
        <ele>710.5</ele>
        <time>2021-09-07T11:57:35Z</time>
      </trkpt>
      <trkpt lat="44.4681" lon="5.51474">
        <ele>710.5</ele>
        <time>2021-09-07T11:57:36Z</time>
      </trkpt>
      <trkpt lat="44.4681" lon="5.51474">
        <ele>710.5</ele>
        <time>2021-09-07T11:57:37Z</time>
      </trkpt>
      <trkpt lat="44.4681" lon="5.51474">
        <ele>710.5</ele>
        <time>2021-09-07T11:57:38Z</time>
      </trkpt>
      <trkpt lat="44.4681" lon="5.51474">
        <ele>710.5</ele>
        <time>2021-09-07T11:57:39Z</time>
      </trkpt>
      <trkpt lat="44.4681" lon="5.51474">
        <ele>710.5</ele>
        <time>2021-09-07T11:57:40Z</time>
      </trkpt>
      <trkpt lat="44.4681" lon="5.51474">
        <ele>710.5</ele>
        <time>2021-09-07T11:57:41Z</time>
      </trkpt>
      <trkpt lat="44.4681" lon="5.51474">
        <ele>710.5</ele>
        <time>2021-09-07T11:57:42Z</time>
      </trkpt>
      <trkpt lat="44.4681" lon="5.51474">
        <ele>710.5</ele>
        <time>2021-09-07T11:57:43Z</time>
      </trkpt>
      <trkpt lat="44.4681" lon="5.51474">
        <ele>710.5</ele>
        <time>2021-09-07T11:57:44Z</time>
      </trkpt>
      <trkpt lat="44.4681" lon="5.51474">
        <ele>710.5</ele>
        <time>2021-09-07T11:57:45Z</time>
      </trkpt>
      <trkpt lat="44.4681" lon="5.51474">
        <ele>710.5</ele>
        <time>2021-09-07T11:57:46Z</time>
      </trkpt>
      <trkpt lat="44.4681" lon="5.51475">
        <ele>710.5</ele>
        <time>2021-09-07T11:57:47Z</time>
      </trkpt>
      <trkpt lat="44.4681" lon="5.51475">
        <ele>710.5</ele>
        <time>2021-09-07T11:57:48Z</time>
      </trkpt>
      <trkpt lat="44.4681" lon="5.51475">
        <ele>710.5</ele>
        <time>2021-09-07T11:57:49Z</time>
      </trkpt>
      <trkpt lat="44.4681" lon="5.51475">
        <ele>710.5</ele>
        <time>2021-09-07T11:57:50Z</time>
      </trkpt>
      <trkpt lat="44.4681" lon="5.51475">
        <ele>710.5</ele>
        <time>2021-09-07T11:57:51Z</time>
      </trkpt>
      <trkpt lat="44.4681" lon="5.51475">
        <ele>710.5</ele>
        <time>2021-09-07T11:57:52Z</time>
      </trkpt>
      <trkpt lat="44.4681" lon="5.51475">
        <ele>710.5</ele>
        <time>2021-09-07T11:57:53Z</time>
      </trkpt>
      <trkpt lat="44.4681" lon="5.51475">
        <ele>710.5</ele>
        <time>2021-09-07T11:57:54Z</time>
      </trkpt>
      <trkpt lat="44.4681" lon="5.51475">
        <ele>710.5</ele>
        <time>2021-09-07T11:57:55Z</time>
      </trkpt>
      <trkpt lat="44.4681" lon="5.51475">
        <ele>710.5</ele>
        <time>2021-09-07T11:57:56Z</time>
      </trkpt>
      <trkpt lat="44.4681" lon="5.51475">
        <ele>710.5</ele>
        <time>2021-09-07T11:57:57Z</time>
      </trkpt>
      <trkpt lat="44.46811" lon="5.51475">
        <ele>710.5</ele>
        <time>2021-09-07T11:57:58Z</time>
      </trkpt>
      <trkpt lat="44.46811" lon="5.51475">
        <ele>710.5</ele>
        <time>2021-09-07T11:57:59Z</time>
      </trkpt>
      <trkpt lat="44.46811" lon="5.51475">
        <ele>710.5</ele>
        <time>2021-09-07T11:58:00Z</time>
      </trkpt>
      <trkpt lat="44.46811" lon="5.51475">
        <ele>710.5</ele>
        <time>2021-09-07T11:58:01Z</time>
      </trkpt>
      <trkpt lat="44.46811" lon="5.51475">
        <ele>710.5</ele>
        <time>2021-09-07T11:58:02Z</time>
      </trkpt>
      <trkpt lat="44.46811" lon="5.51475">
        <ele>710.5</ele>
        <time>2021-09-07T11:58:03Z</time>
      </trkpt>
      <trkpt lat="44.46811" lon="5.51475">
        <ele>710.6</ele>
        <time>2021-09-07T11:58:04Z</time>
      </trkpt>
      <trkpt lat="44.46811" lon="5.51475">
        <ele>710.6</ele>
        <time>2021-09-07T11:58:05Z</time>
      </trkpt>
      <trkpt lat="44.46811" lon="5.51475">
        <ele>710.6</ele>
        <time>2021-09-07T11:58:06Z</time>
      </trkpt>
      <trkpt lat="44.46811" lon="5.51475">
        <ele>710.6</ele>
        <time>2021-09-07T11:58:07Z</time>
      </trkpt>
      <trkpt lat="44.46811" lon="5.51475">
        <ele>710.6</ele>
        <time>2021-09-07T11:58:08Z</time>
      </trkpt>
      <trkpt lat="44.46811" lon="5.51475">
        <ele>710.6</ele>
        <time>2021-09-07T11:58:09Z</time>
      </trkpt>
      <trkpt lat="44.46811" lon="5.51475">
        <ele>710.6</ele>
        <time>2021-09-07T11:58:10Z</time>
      </trkpt>
      <trkpt lat="44.46811" lon="5.51475">
        <ele>710.6</ele>
        <time>2021-09-07T11:58:11Z</time>
      </trkpt>
      <trkpt lat="44.46811" lon="5.51475">
        <ele>710.6</ele>
        <time>2021-09-07T11:58:12Z</time>
      </trkpt>
      <trkpt lat="44.46811" lon="5.51475">
        <ele>710.6</ele>
        <time>2021-09-07T11:58:13Z</time>
      </trkpt>
      <trkpt lat="44.46811" lon="5.51475">
        <ele>710.6</ele>
        <time>2021-09-07T11:58:14Z</time>
      </trkpt>
      <trkpt lat="44.46811" lon="5.51475">
        <ele>710.6</ele>
        <time>2021-09-07T11:58:15Z</time>
      </trkpt>
      <trkpt lat="44.46811" lon="5.51476">
        <ele>710.6</ele>
        <time>2021-09-07T11:58:16Z</time>
      </trkpt>
      <trkpt lat="44.46811" lon="5.51476">
        <ele>710.6</ele>
        <time>2021-09-07T11:58:17Z</time>
      </trkpt>
      <trkpt lat="44.46811" lon="5.51476">
        <ele>710.6</ele>
        <time>2021-09-07T11:58:18Z</time>
      </trkpt>
      <trkpt lat="44.46811" lon="5.51476">
        <ele>710.6</ele>
        <time>2021-09-07T11:58:19Z</time>
      </trkpt>
      <trkpt lat="44.46812" lon="5.51476">
        <ele>710.6</ele>
        <time>2021-09-07T11:58:20Z</time>
      </trkpt>
      <trkpt lat="44.46812" lon="5.51476">
        <ele>710.6</ele>
        <time>2021-09-07T11:58:21Z</time>
      </trkpt>
      <trkpt lat="44.46812" lon="5.51476">
        <ele>710.6</ele>
        <time>2021-09-07T11:58:22Z</time>
      </trkpt>
      <trkpt lat="44.46812" lon="5.51476">
        <ele>710.6</ele>
        <time>2021-09-07T11:58:23Z</time>
      </trkpt>
      <trkpt lat="44.46812" lon="5.51476">
        <ele>710.6</ele>
        <time>2021-09-07T11:58:24Z</time>
      </trkpt>
      <trkpt lat="44.46812" lon="5.51476">
        <ele>710.6</ele>
        <time>2021-09-07T11:58:25Z</time>
      </trkpt>
      <trkpt lat="44.46812" lon="5.51476">
        <ele>710.6</ele>
        <time>2021-09-07T11:58:26Z</time>
      </trkpt>
      <trkpt lat="44.46812" lon="5.51476">
        <ele>710.6</ele>
        <time>2021-09-07T11:58:27Z</time>
      </trkpt>
      <trkpt lat="44.46812" lon="5.51476">
        <ele>710.6</ele>
        <time>2021-09-07T11:58:28Z</time>
      </trkpt>
      <trkpt lat="44.46812" lon="5.51476">
        <ele>710.6</ele>
        <time>2021-09-07T11:58:29Z</time>
      </trkpt>
      <trkpt lat="44.46812" lon="5.51476">
        <ele>710.6</ele>
        <time>2021-09-07T11:58:30Z</time>
      </trkpt>
      <trkpt lat="44.46812" lon="5.51476">
        <ele>710.6</ele>
        <time>2021-09-07T11:58:31Z</time>
      </trkpt>
      <trkpt lat="44.46814" lon="5.51477">
        <ele>711.2</ele>
        <time>2021-09-07T11:58:32Z</time>
      </trkpt>
      <trkpt lat="44.46816" lon="5.51477">
        <ele>711.8</ele>
        <time>2021-09-07T11:58:33Z</time>
      </trkpt>
      <trkpt lat="44.46817" lon="5.51477">
        <ele>711.8</ele>
        <time>2021-09-07T11:58:34Z</time>
      </trkpt>
      <trkpt lat="44.46817" lon="5.51477">
        <ele>711.8</ele>
        <time>2021-09-07T11:58:35Z</time>
      </trkpt>
      <trkpt lat="44.46817" lon="5.51477">
        <ele>711.8</ele>
        <time>2021-09-07T11:58:36Z</time>
      </trkpt>
      <trkpt lat="44.46817" lon="5.51477">
        <ele>711.8</ele>
        <time>2021-09-07T11:58:37Z</time>
      </trkpt>
      <trkpt lat="44.46817" lon="5.51477">
        <ele>711.8</ele>
        <time>2021-09-07T11:58:38Z</time>
      </trkpt>
      <trkpt lat="44.46817" lon="5.51477">
        <ele>711.8</ele>
        <time>2021-09-07T11:58:39Z</time>
      </trkpt>
      <trkpt lat="44.46817" lon="5.51477">
        <ele>711.8</ele>
        <time>2021-09-07T11:58:40Z</time>
      </trkpt>
      <trkpt lat="44.46817" lon="5.51477">
        <ele>711.8</ele>
        <time>2021-09-07T11:58:41Z</time>
      </trkpt>
      <trkpt lat="44.46817" lon="5.51477">
        <ele>711.8</ele>
        <time>2021-09-07T11:58:42Z</time>
      </trkpt>
      <trkpt lat="44.46817" lon="5.51477">
        <ele>711.8</ele>
        <time>2021-09-07T11:58:43Z</time>
      </trkpt>
      <trkpt lat="44.46817" lon="5.51477">
        <ele>711.8</ele>
        <time>2021-09-07T11:58:44Z</time>
      </trkpt>
      <trkpt lat="44.46817" lon="5.51477">
        <ele>711.8</ele>
        <time>2021-09-07T11:58:45Z</time>
      </trkpt>
      <trkpt lat="44.46817" lon="5.51477">
        <ele>711.8</ele>
        <time>2021-09-07T11:58:46Z</time>
      </trkpt>
      <trkpt lat="44.46817" lon="5.51477">
        <ele>711.8</ele>
        <time>2021-09-07T11:58:47Z</time>
      </trkpt>
      <trkpt lat="44.46817" lon="5.51477">
        <ele>711.8</ele>
        <time>2021-09-07T11:58:48Z</time>
      </trkpt>
      <trkpt lat="44.46817" lon="5.51477">
        <ele>711.8</ele>
        <time>2021-09-07T11:58:49Z</time>
      </trkpt>
      <trkpt lat="44.46817" lon="5.51477">
        <ele>711.8</ele>
        <time>2021-09-07T11:58:50Z</time>
      </trkpt>
      <trkpt lat="44.46817" lon="5.51477">
        <ele>711.8</ele>
        <time>2021-09-07T11:58:51Z</time>
      </trkpt>
      <trkpt lat="44.46817" lon="5.51476">
        <ele>711.8</ele>
        <time>2021-09-07T11:58:52Z</time>
      </trkpt>
      <trkpt lat="44.46817" lon="5.51476">
        <ele>711.8</ele>
        <time>2021-09-07T11:58:53Z</time>
      </trkpt>
      <trkpt lat="44.46817" lon="5.51476">
        <ele>711.8</ele>
        <time>2021-09-07T11:58:54Z</time>
      </trkpt>
      <trkpt lat="44.46817" lon="5.51476">
        <ele>711.8</ele>
        <time>2021-09-07T11:58:55Z</time>
      </trkpt>
      <trkpt lat="44.46817" lon="5.51476">
        <ele>711.8</ele>
        <time>2021-09-07T11:58:56Z</time>
      </trkpt>
      <trkpt lat="44.46817" lon="5.51476">
        <ele>711.8</ele>
        <time>2021-09-07T11:58:57Z</time>
      </trkpt>
      <trkpt lat="44.46817" lon="5.51476">
        <ele>711.8</ele>
        <time>2021-09-07T11:58:58Z</time>
      </trkpt>
      <trkpt lat="44.46817" lon="5.51476">
        <ele>711.8</ele>
        <time>2021-09-07T11:58:59Z</time>
      </trkpt>
      <trkpt lat="44.46817" lon="5.51476">
        <ele>711.8</ele>
        <time>2021-09-07T11:59:00Z</time>
      </trkpt>
      <trkpt lat="44.46817" lon="5.51476">
        <ele>711.8</ele>
        <time>2021-09-07T11:59:01Z</time>
      </trkpt>
      <trkpt lat="44.46817" lon="5.51476">
        <ele>711.8</ele>
        <time>2021-09-07T11:59:02Z</time>
      </trkpt>
      <trkpt lat="44.46817" lon="5.51476">
        <ele>711.8</ele>
        <time>2021-09-07T11:59:03Z</time>
      </trkpt>
      <trkpt lat="44.46817" lon="5.51476">
        <ele>711.8</ele>
        <time>2021-09-07T11:59:04Z</time>
      </trkpt>
      <trkpt lat="44.46817" lon="5.51476">
        <ele>711.8</ele>
        <time>2021-09-07T11:59:05Z</time>
      </trkpt>
      <trkpt lat="44.46817" lon="5.51476">
        <ele>711.8</ele>
        <time>2021-09-07T11:59:06Z</time>
      </trkpt>
      <trkpt lat="44.46817" lon="5.51476">
        <ele>711.8</ele>
        <time>2021-09-07T11:59:07Z</time>
      </trkpt>
      <trkpt lat="44.46817" lon="5.51476">
        <ele>711.8</ele>
        <time>2021-09-07T11:59:08Z</time>
      </trkpt>
      <trkpt lat="44.46817" lon="5.51476">
        <ele>711.8</ele>
        <time>2021-09-07T11:59:09Z</time>
      </trkpt>
      <trkpt lat="44.46817" lon="5.51475">
        <ele>711.8</ele>
        <time>2021-09-07T11:59:10Z</time>
      </trkpt>
      <trkpt lat="44.46817" lon="5.51475">
        <ele>711.8</ele>
        <time>2021-09-07T11:59:11Z</time>
      </trkpt>
      <trkpt lat="44.46817" lon="5.51475">
        <ele>711.8</ele>
        <time>2021-09-07T11:59:12Z</time>
      </trkpt>
      <trkpt lat="44.46817" lon="5.51475">
        <ele>711.8</ele>
        <time>2021-09-07T11:59:13Z</time>
      </trkpt>
      <trkpt lat="44.46817" lon="5.51475">
        <ele>711.8</ele>
        <time>2021-09-07T11:59:14Z</time>
      </trkpt>
      <trkpt lat="44.46817" lon="5.51475">
        <ele>711.8</ele>
        <time>2021-09-07T11:59:15Z</time>
      </trkpt>
      <trkpt lat="44.46817" lon="5.51475">
        <ele>711.8</ele>
        <time>2021-09-07T11:59:16Z</time>
      </trkpt>
      <trkpt lat="44.46817" lon="5.51475">
        <ele>711.7</ele>
        <time>2021-09-07T11:59:17Z</time>
      </trkpt>
      <trkpt lat="44.46817" lon="5.51475">
        <ele>711.7</ele>
        <time>2021-09-07T11:59:18Z</time>
      </trkpt>
      <trkpt lat="44.46817" lon="5.51475">
        <ele>711.7</ele>
        <time>2021-09-07T11:59:19Z</time>
      </trkpt>
      <trkpt lat="44.46817" lon="5.51475">
        <ele>711.7</ele>
        <time>2021-09-07T11:59:20Z</time>
      </trkpt>
      <trkpt lat="44.46817" lon="5.51475">
        <ele>711.7</ele>
        <time>2021-09-07T11:59:21Z</time>
      </trkpt>
      <trkpt lat="44.46817" lon="5.51475">
        <ele>711.7</ele>
        <time>2021-09-07T11:59:22Z</time>
      </trkpt>
      <trkpt lat="44.46817" lon="5.51475">
        <ele>711.7</ele>
        <time>2021-09-07T11:59:23Z</time>
      </trkpt>
      <trkpt lat="44.46817" lon="5.51475">
        <ele>711.7</ele>
        <time>2021-09-07T11:59:24Z</time>
      </trkpt>
      <trkpt lat="44.46817" lon="5.51475">
        <ele>711.7</ele>
        <time>2021-09-07T11:59:25Z</time>
      </trkpt>
      <trkpt lat="44.46817" lon="5.51475">
        <ele>711.7</ele>
        <time>2021-09-07T11:59:26Z</time>
      </trkpt>
      <trkpt lat="44.46817" lon="5.51475">
        <ele>711.7</ele>
        <time>2021-09-07T11:59:27Z</time>
      </trkpt>
      <trkpt lat="44.46817" lon="5.51474">
        <ele>711.7</ele>
        <time>2021-09-07T11:59:28Z</time>
      </trkpt>
      <trkpt lat="44.46817" lon="5.51474">
        <ele>711.7</ele>
        <time>2021-09-07T11:59:29Z</time>
      </trkpt>
      <trkpt lat="44.46817" lon="5.51474">
        <ele>711.7</ele>
        <time>2021-09-07T11:59:30Z</time>
      </trkpt>
      <trkpt lat="44.46817" lon="5.51474">
        <ele>711.7</ele>
        <time>2021-09-07T11:59:31Z</time>
      </trkpt>
      <trkpt lat="44.46817" lon="5.51474">
        <ele>711.7</ele>
        <time>2021-09-07T11:59:32Z</time>
      </trkpt>
      <trkpt lat="44.46817" lon="5.51474">
        <ele>711.7</ele>
        <time>2021-09-07T11:59:33Z</time>
      </trkpt>
      <trkpt lat="44.46817" lon="5.51474">
        <ele>711.7</ele>
        <time>2021-09-07T11:59:34Z</time>
      </trkpt>
      <trkpt lat="44.46817" lon="5.51474">
        <ele>711.7</ele>
        <time>2021-09-07T11:59:35Z</time>
      </trkpt>
      <trkpt lat="44.46817" lon="5.51474">
        <ele>711.7</ele>
        <time>2021-09-07T11:59:36Z</time>
      </trkpt>
      <trkpt lat="44.46817" lon="5.51474">
        <ele>711.7</ele>
        <time>2021-09-07T11:59:37Z</time>
      </trkpt>
      <trkpt lat="44.46817" lon="5.51474">
        <ele>711.7</ele>
        <time>2021-09-07T11:59:38Z</time>
      </trkpt>
      <trkpt lat="44.46817" lon="5.51474">
        <ele>711.7</ele>
        <time>2021-09-07T11:59:39Z</time>
      </trkpt>
      <trkpt lat="44.46817" lon="5.51474">
        <ele>711.7</ele>
        <time>2021-09-07T11:59:40Z</time>
      </trkpt>
      <trkpt lat="44.46817" lon="5.51474">
        <ele>711.7</ele>
        <time>2021-09-07T11:59:41Z</time>
      </trkpt>
      <trkpt lat="44.46817" lon="5.51474">
        <ele>711.7</ele>
        <time>2021-09-07T11:59:42Z</time>
      </trkpt>
      <trkpt lat="44.46817" lon="5.51474">
        <ele>711.7</ele>
        <time>2021-09-07T11:59:43Z</time>
      </trkpt>
      <trkpt lat="44.46817" lon="5.51474">
        <ele>711.7</ele>
        <time>2021-09-07T11:59:44Z</time>
      </trkpt>
      <trkpt lat="44.46817" lon="5.51474">
        <ele>711.7</ele>
        <time>2021-09-07T11:59:45Z</time>
      </trkpt>
      <trkpt lat="44.46817" lon="5.51473">
        <ele>711.7</ele>
        <time>2021-09-07T11:59:46Z</time>
      </trkpt>
      <trkpt lat="44.46817" lon="5.51473">
        <ele>711.7</ele>
        <time>2021-09-07T11:59:47Z</time>
      </trkpt>
      <trkpt lat="44.46817" lon="5.51473">
        <ele>711.7</ele>
        <time>2021-09-07T11:59:48Z</time>
      </trkpt>
      <trkpt lat="44.46817" lon="5.51473">
        <ele>711.7</ele>
        <time>2021-09-07T11:59:49Z</time>
      </trkpt>
      <trkpt lat="44.46817" lon="5.51473">
        <ele>711.7</ele>
        <time>2021-09-07T11:59:50Z</time>
      </trkpt>
      <trkpt lat="44.46817" lon="5.51473">
        <ele>711.7</ele>
        <time>2021-09-07T11:59:51Z</time>
      </trkpt>
      <trkpt lat="44.46817" lon="5.51473">
        <ele>711.7</ele>
        <time>2021-09-07T11:59:52Z</time>
      </trkpt>
      <trkpt lat="44.46817" lon="5.51473">
        <ele>711.7</ele>
        <time>2021-09-07T11:59:53Z</time>
      </trkpt>
      <trkpt lat="44.46817" lon="5.51473">
        <ele>711.7</ele>
        <time>2021-09-07T11:59:54Z</time>
      </trkpt>
      <trkpt lat="44.46817" lon="5.51473">
        <ele>711.7</ele>
        <time>2021-09-07T11:59:55Z</time>
      </trkpt>
      <trkpt lat="44.46817" lon="5.51473">
        <ele>711.7</ele>
        <time>2021-09-07T11:59:56Z</time>
      </trkpt>
      <trkpt lat="44.46817" lon="5.51473">
        <ele>711.7</ele>
        <time>2021-09-07T11:59:57Z</time>
      </trkpt>
      <trkpt lat="44.46817" lon="5.51473">
        <ele>711.7</ele>
        <time>2021-09-07T11:59:58Z</time>
      </trkpt>
      <trkpt lat="44.46817" lon="5.51473">
        <ele>711.7</ele>
        <time>2021-09-07T11:59:59Z</time>
      </trkpt>
      <trkpt lat="44.46817" lon="5.51473">
        <ele>711.7</ele>
        <time>2021-09-07T12:00:00Z</time>
      </trkpt>
      <trkpt lat="44.46817" lon="5.51473">
        <ele>711.7</ele>
        <time>2021-09-07T12:00:01Z</time>
      </trkpt>
      <trkpt lat="44.46817" lon="5.51473">
        <ele>711.7</ele>
        <time>2021-09-07T12:00:02Z</time>
      </trkpt>
      <trkpt lat="44.46817" lon="5.51473">
        <ele>711.7</ele>
        <time>2021-09-07T12:00:03Z</time>
      </trkpt>
      <trkpt lat="44.46817" lon="5.51472">
        <ele>711.7</ele>
        <time>2021-09-07T12:00:04Z</time>
      </trkpt>
      <trkpt lat="44.46817" lon="5.51472">
        <ele>711.7</ele>
        <time>2021-09-07T12:00:05Z</time>
      </trkpt>
      <trkpt lat="44.46817" lon="5.51472">
        <ele>711.7</ele>
        <time>2021-09-07T12:00:06Z</time>
      </trkpt>
      <trkpt lat="44.46817" lon="5.51472">
        <ele>711.7</ele>
        <time>2021-09-07T12:00:07Z</time>
      </trkpt>
      <trkpt lat="44.46817" lon="5.51472">
        <ele>711.7</ele>
        <time>2021-09-07T12:00:08Z</time>
      </trkpt>
      <trkpt lat="44.46817" lon="5.51472">
        <ele>711.7</ele>
        <time>2021-09-07T12:00:09Z</time>
      </trkpt>
      <trkpt lat="44.46817" lon="5.51472">
        <ele>711.7</ele>
        <time>2021-09-07T12:00:10Z</time>
      </trkpt>
      <trkpt lat="44.46817" lon="5.51472">
        <ele>711.7</ele>
        <time>2021-09-07T12:00:11Z</time>
      </trkpt>
      <trkpt lat="44.46817" lon="5.51472">
        <ele>711.7</ele>
        <time>2021-09-07T12:00:12Z</time>
      </trkpt>
      <trkpt lat="44.46817" lon="5.51472">
        <ele>711.7</ele>
        <time>2021-09-07T12:00:13Z</time>
      </trkpt>
      <trkpt lat="44.46817" lon="5.51472">
        <ele>711.7</ele>
        <time>2021-09-07T12:00:14Z</time>
      </trkpt>
      <trkpt lat="44.46817" lon="5.51472">
        <ele>711.7</ele>
        <time>2021-09-07T12:00:15Z</time>
      </trkpt>
      <trkpt lat="44.46817" lon="5.51472">
        <ele>711.7</ele>
        <time>2021-09-07T12:00:16Z</time>
      </trkpt>
      <trkpt lat="44.46817" lon="5.51472">
        <ele>711.7</ele>
        <time>2021-09-07T12:00:17Z</time>
      </trkpt>
      <trkpt lat="44.46817" lon="5.51472">
        <ele>711.7</ele>
        <time>2021-09-07T12:00:18Z</time>
      </trkpt>
      <trkpt lat="44.46817" lon="5.51472">
        <ele>711.7</ele>
        <time>2021-09-07T12:00:19Z</time>
      </trkpt>
      <trkpt lat="44.46817" lon="5.51472">
        <ele>711.7</ele>
        <time>2021-09-07T12:00:20Z</time>
      </trkpt>
      <trkpt lat="44.46817" lon="5.51472">
        <ele>711.7</ele>
        <time>2021-09-07T12:00:21Z</time>
      </trkpt>
      <trkpt lat="44.46817" lon="5.51471">
        <ele>711.7</ele>
        <time>2021-09-07T12:00:22Z</time>
      </trkpt>
      <trkpt lat="44.46817" lon="5.51471">
        <ele>711.7</ele>
        <time>2021-09-07T12:00:23Z</time>
      </trkpt>
      <trkpt lat="44.46817" lon="5.51471">
        <ele>711.7</ele>
        <time>2021-09-07T12:00:24Z</time>
      </trkpt>
      <trkpt lat="44.46817" lon="5.51471">
        <ele>711.7</ele>
        <time>2021-09-07T12:00:25Z</time>
      </trkpt>
      <trkpt lat="44.46817" lon="5.51471">
        <ele>711.7</ele>
        <time>2021-09-07T12:00:26Z</time>
      </trkpt>
      <trkpt lat="44.46817" lon="5.51471">
        <ele>711.7</ele>
        <time>2021-09-07T12:00:27Z</time>
      </trkpt>
      <trkpt lat="44.46817" lon="5.51471">
        <ele>711.7</ele>
        <time>2021-09-07T12:00:28Z</time>
      </trkpt>
      <trkpt lat="44.46817" lon="5.51471">
        <ele>711.7</ele>
        <time>2021-09-07T12:00:29Z</time>
      </trkpt>
      <trkpt lat="44.46817" lon="5.51471">
        <ele>711.7</ele>
        <time>2021-09-07T12:00:30Z</time>
      </trkpt>
      <trkpt lat="44.46817" lon="5.51471">
        <ele>711.7</ele>
        <time>2021-09-07T12:00:31Z</time>
      </trkpt>
      <trkpt lat="44.46817" lon="5.51471">
        <ele>711.7</ele>
        <time>2021-09-07T12:00:32Z</time>
      </trkpt>
      <trkpt lat="44.46817" lon="5.51471">
        <ele>711.7</ele>
        <time>2021-09-07T12:00:33Z</time>
      </trkpt>
      <trkpt lat="44.46817" lon="5.51471">
        <ele>711.6</ele>
        <time>2021-09-07T12:00:34Z</time>
      </trkpt>
      <trkpt lat="44.46817" lon="5.51471">
        <ele>711.6</ele>
        <time>2021-09-07T12:00:35Z</time>
      </trkpt>
      <trkpt lat="44.46817" lon="5.51471">
        <ele>711.6</ele>
        <time>2021-09-07T12:00:36Z</time>
      </trkpt>
      <trkpt lat="44.46817" lon="5.51471">
        <ele>711.6</ele>
        <time>2021-09-07T12:00:37Z</time>
      </trkpt>
      <trkpt lat="44.46817" lon="5.51471">
        <ele>711.6</ele>
        <time>2021-09-07T12:00:38Z</time>
      </trkpt>
      <trkpt lat="44.46817" lon="5.51471">
        <ele>711.6</ele>
        <time>2021-09-07T12:00:39Z</time>
      </trkpt>
      <trkpt lat="44.46817" lon="5.5147">
        <ele>711.6</ele>
        <time>2021-09-07T12:00:40Z</time>
      </trkpt>
      <trkpt lat="44.46817" lon="5.5147">
        <ele>711.6</ele>
        <time>2021-09-07T12:00:41Z</time>
      </trkpt>
      <trkpt lat="44.46817" lon="5.5147">
        <ele>711.6</ele>
        <time>2021-09-07T12:00:42Z</time>
      </trkpt>
      <trkpt lat="44.46817" lon="5.5147">
        <ele>711.6</ele>
        <time>2021-09-07T12:00:43Z</time>
      </trkpt>
      <trkpt lat="44.46817" lon="5.5147">
        <ele>711.6</ele>
        <time>2021-09-07T12:00:44Z</time>
      </trkpt>
      <trkpt lat="44.46817" lon="5.5147">
        <ele>711.6</ele>
        <time>2021-09-07T12:00:45Z</time>
      </trkpt>
      <trkpt lat="44.46817" lon="5.5147">
        <ele>711.6</ele>
        <time>2021-09-07T12:00:46Z</time>
      </trkpt>
      <trkpt lat="44.46817" lon="5.5147">
        <ele>711.6</ele>
        <time>2021-09-07T12:00:47Z</time>
      </trkpt>
      <trkpt lat="44.46817" lon="5.5147">
        <ele>711.6</ele>
        <time>2021-09-07T12:00:48Z</time>
      </trkpt>
      <trkpt lat="44.46817" lon="5.5147">
        <ele>711.6</ele>
        <time>2021-09-07T12:00:49Z</time>
      </trkpt>
      <trkpt lat="44.46817" lon="5.5147">
        <ele>711.6</ele>
        <time>2021-09-07T12:00:50Z</time>
      </trkpt>
      <trkpt lat="44.46817" lon="5.5147">
        <ele>711.6</ele>
        <time>2021-09-07T12:00:51Z</time>
      </trkpt>
      <trkpt lat="44.46817" lon="5.5147">
        <ele>711.6</ele>
        <time>2021-09-07T12:00:52Z</time>
      </trkpt>
      <trkpt lat="44.46817" lon="5.5147">
        <ele>711.6</ele>
        <time>2021-09-07T12:00:53Z</time>
      </trkpt>
      <trkpt lat="44.46817" lon="5.5147">
        <ele>711.6</ele>
        <time>2021-09-07T12:00:54Z</time>
      </trkpt>
      <trkpt lat="44.46817" lon="5.5147">
        <ele>711.6</ele>
        <time>2021-09-07T12:00:55Z</time>
      </trkpt>
      <trkpt lat="44.46817" lon="5.5147">
        <ele>711.6</ele>
        <time>2021-09-07T12:00:56Z</time>
      </trkpt>
      <trkpt lat="44.46817" lon="5.5147">
        <ele>711.6</ele>
        <time>2021-09-07T12:00:57Z</time>
      </trkpt>
      <trkpt lat="44.46817" lon="5.51469">
        <ele>711.6</ele>
        <time>2021-09-07T12:00:58Z</time>
      </trkpt>
      <trkpt lat="44.46817" lon="5.51469">
        <ele>711.6</ele>
        <time>2021-09-07T12:00:59Z</time>
      </trkpt>
      <trkpt lat="44.46817" lon="5.51469">
        <ele>711.6</ele>
        <time>2021-09-07T12:01:00Z</time>
      </trkpt>
      <trkpt lat="44.46817" lon="5.51469">
        <ele>711.6</ele>
        <time>2021-09-07T12:01:01Z</time>
      </trkpt>
      <trkpt lat="44.46817" lon="5.51469">
        <ele>711.6</ele>
        <time>2021-09-07T12:01:02Z</time>
      </trkpt>
      <trkpt lat="44.46817" lon="5.51469">
        <ele>711.6</ele>
        <time>2021-09-07T12:01:03Z</time>
      </trkpt>
      <trkpt lat="44.46817" lon="5.51469">
        <ele>711.6</ele>
        <time>2021-09-07T12:01:04Z</time>
      </trkpt>
      <trkpt lat="44.46817" lon="5.51469">
        <ele>711.6</ele>
        <time>2021-09-07T12:01:05Z</time>
      </trkpt>
      <trkpt lat="44.46817" lon="5.51469">
        <ele>711.6</ele>
        <time>2021-09-07T12:01:06Z</time>
      </trkpt>
      <trkpt lat="44.46817" lon="5.51469">
        <ele>711.6</ele>
        <time>2021-09-07T12:01:07Z</time>
      </trkpt>
      <trkpt lat="44.46817" lon="5.51469">
        <ele>711.6</ele>
        <time>2021-09-07T12:01:08Z</time>
      </trkpt>
      <trkpt lat="44.46817" lon="5.51469">
        <ele>711.6</ele>
        <time>2021-09-07T12:01:09Z</time>
      </trkpt>
      <trkpt lat="44.46817" lon="5.51469">
        <ele>711.6</ele>
        <time>2021-09-07T12:01:10Z</time>
      </trkpt>
      <trkpt lat="44.46817" lon="5.51469">
        <ele>711.6</ele>
        <time>2021-09-07T12:01:11Z</time>
      </trkpt>
      <trkpt lat="44.46817" lon="5.51469">
        <ele>711.6</ele>
        <time>2021-09-07T12:01:12Z</time>
      </trkpt>
      <trkpt lat="44.46817" lon="5.51469">
        <ele>711.6</ele>
        <time>2021-09-07T12:01:13Z</time>
      </trkpt>
      <trkpt lat="44.46817" lon="5.51469">
        <ele>711.6</ele>
        <time>2021-09-07T12:01:14Z</time>
      </trkpt>
      <trkpt lat="44.46817" lon="5.51468">
        <ele>711.6</ele>
        <time>2021-09-07T12:01:15Z</time>
      </trkpt>
      <trkpt lat="44.46817" lon="5.51468">
        <ele>711.6</ele>
        <time>2021-09-07T12:01:16Z</time>
      </trkpt>
      <trkpt lat="44.46817" lon="5.51468">
        <ele>711.6</ele>
        <time>2021-09-07T12:01:17Z</time>
      </trkpt>
      <trkpt lat="44.46817" lon="5.51468">
        <ele>711.6</ele>
        <time>2021-09-07T12:01:18Z</time>
      </trkpt>
      <trkpt lat="44.46817" lon="5.51468">
        <ele>711.6</ele>
        <time>2021-09-07T12:01:19Z</time>
      </trkpt>
      <trkpt lat="44.46817" lon="5.51468">
        <ele>711.6</ele>
        <time>2021-09-07T12:01:20Z</time>
      </trkpt>
      <trkpt lat="44.46817" lon="5.51468">
        <ele>711.6</ele>
        <time>2021-09-07T12:01:21Z</time>
      </trkpt>
      <trkpt lat="44.46817" lon="5.51468">
        <ele>711.6</ele>
        <time>2021-09-07T12:01:22Z</time>
      </trkpt>
      <trkpt lat="44.46817" lon="5.51468">
        <ele>711.6</ele>
        <time>2021-09-07T12:01:23Z</time>
      </trkpt>
      <trkpt lat="44.46817" lon="5.51466">
        <ele>711.6</ele>
        <time>2021-09-07T12:01:24Z</time>
      </trkpt>
      <trkpt lat="44.46817" lon="5.51463">
        <ele>711.6</ele>
        <time>2021-09-07T12:01:25Z</time>
      </trkpt>
      <trkpt lat="44.46817" lon="5.51462">
        <ele>711.5</ele>
        <time>2021-09-07T12:01:26Z</time>
      </trkpt>
      <trkpt lat="44.46817" lon="5.51461">
        <ele>711.5</ele>
        <time>2021-09-07T12:01:27Z</time>
      </trkpt>
      <trkpt lat="44.46817" lon="5.51459">
        <ele>711.5</ele>
        <time>2021-09-07T12:01:28Z</time>
      </trkpt>
      <trkpt lat="44.46817" lon="5.51459">
        <ele>711.5</ele>
        <time>2021-09-07T12:01:29Z</time>
      </trkpt>
      <trkpt lat="44.46817" lon="5.51459">
        <ele>711.5</ele>
        <time>2021-09-07T12:01:30Z</time>
      </trkpt>
      <trkpt lat="44.46817" lon="5.51459">
        <ele>711.5</ele>
        <time>2021-09-07T12:01:31Z</time>
      </trkpt>
      <trkpt lat="44.46817" lon="5.51458">
        <ele>711.5</ele>
        <time>2021-09-07T12:01:32Z</time>
      </trkpt>
      <trkpt lat="44.46817" lon="5.51458">
        <ele>711.5</ele>
        <time>2021-09-07T12:01:33Z</time>
      </trkpt>
      <trkpt lat="44.46817" lon="5.51458">
        <ele>711.5</ele>
        <time>2021-09-07T12:01:34Z</time>
      </trkpt>
      <trkpt lat="44.46817" lon="5.51458">
        <ele>711.5</ele>
        <time>2021-09-07T12:01:35Z</time>
      </trkpt>
      <trkpt lat="44.46817" lon="5.51458">
        <ele>711.5</ele>
        <time>2021-09-07T12:01:36Z</time>
      </trkpt>
      <trkpt lat="44.46817" lon="5.51458">
        <ele>711.5</ele>
        <time>2021-09-07T12:01:37Z</time>
      </trkpt>
      <trkpt lat="44.46817" lon="5.51458">
        <ele>711.5</ele>
        <time>2021-09-07T12:01:38Z</time>
      </trkpt>
      <trkpt lat="44.46817" lon="5.51458">
        <ele>711.5</ele>
        <time>2021-09-07T12:01:39Z</time>
      </trkpt>
      <trkpt lat="44.46817" lon="5.51458">
        <ele>711.5</ele>
        <time>2021-09-07T12:01:40Z</time>
      </trkpt>
      <trkpt lat="44.46817" lon="5.51458">
        <ele>711.5</ele>
        <time>2021-09-07T12:01:41Z</time>
      </trkpt>
      <trkpt lat="44.46817" lon="5.51458">
        <ele>711.5</ele>
        <time>2021-09-07T12:01:42Z</time>
      </trkpt>
      <trkpt lat="44.46817" lon="5.51458">
        <ele>711.5</ele>
        <time>2021-09-07T12:01:43Z</time>
      </trkpt>
      <trkpt lat="44.46817" lon="5.51458">
        <ele>711.5</ele>
        <time>2021-09-07T12:01:44Z</time>
      </trkpt>
      <trkpt lat="44.46817" lon="5.51458">
        <ele>711.5</ele>
        <time>2021-09-07T12:01:45Z</time>
      </trkpt>
      <trkpt lat="44.46817" lon="5.51458">
        <ele>711.5</ele>
        <time>2021-09-07T12:01:46Z</time>
      </trkpt>
      <trkpt lat="44.46817" lon="5.51458">
        <ele>711.5</ele>
        <time>2021-09-07T12:01:47Z</time>
      </trkpt>
      <trkpt lat="44.46817" lon="5.51458">
        <ele>711.5</ele>
        <time>2021-09-07T12:01:48Z</time>
      </trkpt>
      <trkpt lat="44.46817" lon="5.51458">
        <ele>711.5</ele>
        <time>2021-09-07T12:01:49Z</time>
      </trkpt>
      <trkpt lat="44.46817" lon="5.51458">
        <ele>711.5</ele>
        <time>2021-09-07T12:01:50Z</time>
      </trkpt>
      <trkpt lat="44.46817" lon="5.51458">
        <ele>711.5</ele>
        <time>2021-09-07T12:01:51Z</time>
      </trkpt>
      <trkpt lat="44.46817" lon="5.51458">
        <ele>711.5</ele>
        <time>2021-09-07T12:01:52Z</time>
      </trkpt>
      <trkpt lat="44.46817" lon="5.51458">
        <ele>711.5</ele>
        <time>2021-09-07T12:01:53Z</time>
      </trkpt>
      <trkpt lat="44.46817" lon="5.51458">
        <ele>711.5</ele>
        <time>2021-09-07T12:01:54Z</time>
      </trkpt>
      <trkpt lat="44.46817" lon="5.51458">
        <ele>711.5</ele>
        <time>2021-09-07T12:01:55Z</time>
      </trkpt>
      <trkpt lat="44.46817" lon="5.51458">
        <ele>711.5</ele>
        <time>2021-09-07T12:01:56Z</time>
      </trkpt>
      <trkpt lat="44.46817" lon="5.51458">
        <ele>711.5</ele>
        <time>2021-09-07T12:01:57Z</time>
      </trkpt>
      <trkpt lat="44.46817" lon="5.51458">
        <ele>711.5</ele>
        <time>2021-09-07T12:01:58Z</time>
      </trkpt>
      <trkpt lat="44.46817" lon="5.51458">
        <ele>711.5</ele>
        <time>2021-09-07T12:01:59Z</time>
      </trkpt>
      <trkpt lat="44.46817" lon="5.51458">
        <ele>711.5</ele>
        <time>2021-09-07T12:02:00Z</time>
      </trkpt>
      <trkpt lat="44.46817" lon="5.51458">
        <ele>711.5</ele>
        <time>2021-09-07T12:02:01Z</time>
      </trkpt>
      <trkpt lat="44.46817" lon="5.51458">
        <ele>711.5</ele>
        <time>2021-09-07T12:02:02Z</time>
      </trkpt>
      <trkpt lat="44.46817" lon="5.51458">
        <ele>711.5</ele>
        <time>2021-09-07T12:02:03Z</time>
      </trkpt>
      <trkpt lat="44.46817" lon="5.51458">
        <ele>711.5</ele>
        <time>2021-09-07T12:02:04Z</time>
      </trkpt>
      <trkpt lat="44.46817" lon="5.51458">
        <ele>711.5</ele>
        <time>2021-09-07T12:02:05Z</time>
      </trkpt>
      <trkpt lat="44.46817" lon="5.51458">
        <ele>711.5</ele>
        <time>2021-09-07T12:02:06Z</time>
      </trkpt>
      <trkpt lat="44.46817" lon="5.51458">
        <ele>711.5</ele>
        <time>2021-09-07T12:02:07Z</time>
      </trkpt>
      <trkpt lat="44.46817" lon="5.51458">
        <ele>711.5</ele>
        <time>2021-09-07T12:02:08Z</time>
      </trkpt>
      <trkpt lat="44.46817" lon="5.51458">
        <ele>711.5</ele>
        <time>2021-09-07T12:02:09Z</time>
      </trkpt>
      <trkpt lat="44.46817" lon="5.51458">
        <ele>711.5</ele>
        <time>2021-09-07T12:02:10Z</time>
      </trkpt>
      <trkpt lat="44.46817" lon="5.51458">
        <ele>711.5</ele>
        <time>2021-09-07T12:02:11Z</time>
      </trkpt>
      <trkpt lat="44.46817" lon="5.51458">
        <ele>711.5</ele>
        <time>2021-09-07T12:02:12Z</time>
      </trkpt>
      <trkpt lat="44.46817" lon="5.51458">
        <ele>711.5</ele>
        <time>2021-09-07T12:02:13Z</time>
      </trkpt>
      <trkpt lat="44.46817" lon="5.51458">
        <ele>711.5</ele>
        <time>2021-09-07T12:02:14Z</time>
      </trkpt>
      <trkpt lat="44.46817" lon="5.51458">
        <ele>711.5</ele>
        <time>2021-09-07T12:02:15Z</time>
      </trkpt>
      <trkpt lat="44.46817" lon="5.51458">
        <ele>711.5</ele>
        <time>2021-09-07T12:02:16Z</time>
      </trkpt>
      <trkpt lat="44.46817" lon="5.51458">
        <ele>711.5</ele>
        <time>2021-09-07T12:02:17Z</time>
      </trkpt>
      <trkpt lat="44.46817" lon="5.51458">
        <ele>711.5</ele>
        <time>2021-09-07T12:02:18Z</time>
      </trkpt>
      <trkpt lat="44.46817" lon="5.51458">
        <ele>711.5</ele>
        <time>2021-09-07T12:02:19Z</time>
      </trkpt>
      <trkpt lat="44.46817" lon="5.51458">
        <ele>711.5</ele>
        <time>2021-09-07T12:02:20Z</time>
      </trkpt>
      <trkpt lat="44.46817" lon="5.51458">
        <ele>711.5</ele>
        <time>2021-09-07T12:02:21Z</time>
      </trkpt>
      <trkpt lat="44.46817" lon="5.51458">
        <ele>711.5</ele>
        <time>2021-09-07T12:02:22Z</time>
      </trkpt>
      <trkpt lat="44.46817" lon="5.51458">
        <ele>711.5</ele>
        <time>2021-09-07T12:02:23Z</time>
      </trkpt>
      <trkpt lat="44.46817" lon="5.51458">
        <ele>711.5</ele>
        <time>2021-09-07T12:02:24Z</time>
      </trkpt>
      <trkpt lat="44.46817" lon="5.51458">
        <ele>711.5</ele>
        <time>2021-09-07T12:02:25Z</time>
      </trkpt>
      <trkpt lat="44.46817" lon="5.51458">
        <ele>711.5</ele>
        <time>2021-09-07T12:02:26Z</time>
      </trkpt>
      <trkpt lat="44.46817" lon="5.51458">
        <ele>711.5</ele>
        <time>2021-09-07T12:02:27Z</time>
      </trkpt>
      <trkpt lat="44.46817" lon="5.51458">
        <ele>711.5</ele>
        <time>2021-09-07T12:02:28Z</time>
      </trkpt>
      <trkpt lat="44.46817" lon="5.51458">
        <ele>711.5</ele>
        <time>2021-09-07T12:02:29Z</time>
      </trkpt>
      <trkpt lat="44.46817" lon="5.51458">
        <ele>711.5</ele>
        <time>2021-09-07T12:02:30Z</time>
      </trkpt>
      <trkpt lat="44.46817" lon="5.51458">
        <ele>711.5</ele>
        <time>2021-09-07T12:02:31Z</time>
      </trkpt>
      <trkpt lat="44.46817" lon="5.51458">
        <ele>711.5</ele>
        <time>2021-09-07T12:02:32Z</time>
      </trkpt>
      <trkpt lat="44.46817" lon="5.51458">
        <ele>711.5</ele>
        <time>2021-09-07T12:02:33Z</time>
      </trkpt>
      <trkpt lat="44.46817" lon="5.51458">
        <ele>711.5</ele>
        <time>2021-09-07T12:02:34Z</time>
      </trkpt>
      <trkpt lat="44.46817" lon="5.51458">
        <ele>711.5</ele>
        <time>2021-09-07T12:02:35Z</time>
      </trkpt>
      <trkpt lat="44.46817" lon="5.51458">
        <ele>711.5</ele>
        <time>2021-09-07T12:02:36Z</time>
      </trkpt>
      <trkpt lat="44.46817" lon="5.51458">
        <ele>711.5</ele>
        <time>2021-09-07T12:02:37Z</time>
      </trkpt>
      <trkpt lat="44.46817" lon="5.51458">
        <ele>711.5</ele>
        <time>2021-09-07T12:02:38Z</time>
      </trkpt>
      <trkpt lat="44.46817" lon="5.51458">
        <ele>711.5</ele>
        <time>2021-09-07T12:02:39Z</time>
      </trkpt>
      <trkpt lat="44.46817" lon="5.51458">
        <ele>711.5</ele>
        <time>2021-09-07T12:02:40Z</time>
      </trkpt>
      <trkpt lat="44.46817" lon="5.51458">
        <ele>711.5</ele>
        <time>2021-09-07T12:02:41Z</time>
      </trkpt>
      <trkpt lat="44.46817" lon="5.51458">
        <ele>711.5</ele>
        <time>2021-09-07T12:02:42Z</time>
      </trkpt>
      <trkpt lat="44.46817" lon="5.51458">
        <ele>711.5</ele>
        <time>2021-09-07T12:02:43Z</time>
      </trkpt>
      <trkpt lat="44.46817" lon="5.51458">
        <ele>711.5</ele>
        <time>2021-09-07T12:02:44Z</time>
      </trkpt>
      <trkpt lat="44.46817" lon="5.51458">
        <ele>711.5</ele>
        <time>2021-09-07T12:02:45Z</time>
      </trkpt>
      <trkpt lat="44.46817" lon="5.51458">
        <ele>711.5</ele>
        <time>2021-09-07T12:02:46Z</time>
      </trkpt>
      <trkpt lat="44.46817" lon="5.51458">
        <ele>711.5</ele>
        <time>2021-09-07T12:02:47Z</time>
      </trkpt>
      <trkpt lat="44.46817" lon="5.51458">
        <ele>711.5</ele>
        <time>2021-09-07T12:02:48Z</time>
      </trkpt>
      <trkpt lat="44.46817" lon="5.51458">
        <ele>711.5</ele>
        <time>2021-09-07T12:02:49Z</time>
      </trkpt>
      <trkpt lat="44.46817" lon="5.51458">
        <ele>711.5</ele>
        <time>2021-09-07T12:02:50Z</time>
      </trkpt>
      <trkpt lat="44.46817" lon="5.51458">
        <ele>711.5</ele>
        <time>2021-09-07T12:02:51Z</time>
      </trkpt>
      <trkpt lat="44.46817" lon="5.51458">
        <ele>711.5</ele>
        <time>2021-09-07T12:02:52Z</time>
      </trkpt>
      <trkpt lat="44.46817" lon="5.51458">
        <ele>711.5</ele>
        <time>2021-09-07T12:02:53Z</time>
      </trkpt>
      <trkpt lat="44.46817" lon="5.51458">
        <ele>711.5</ele>
        <time>2021-09-07T12:02:54Z</time>
      </trkpt>
      <trkpt lat="44.46815" lon="5.51457">
        <ele>710.9</ele>
        <time>2021-09-07T12:02:55Z</time>
      </trkpt>
      <trkpt lat="44.46813" lon="5.51456">
        <ele>710.9</ele>
        <time>2021-09-07T12:02:56Z</time>
      </trkpt>
      <trkpt lat="44.46811" lon="5.51455">
        <ele>710.2</ele>
        <time>2021-09-07T12:02:57Z</time>
      </trkpt>
      <trkpt lat="44.46809" lon="5.51454">
        <ele>709.6</ele>
        <time>2021-09-07T12:02:58Z</time>
      </trkpt>
      <trkpt lat="44.46809" lon="5.51454">
        <ele>709.6</ele>
        <time>2021-09-07T12:02:59Z</time>
      </trkpt>
      <trkpt lat="44.46809" lon="5.51454">
        <ele>709.6</ele>
        <time>2021-09-07T12:03:00Z</time>
      </trkpt>
      <trkpt lat="44.46809" lon="5.51454">
        <ele>709.6</ele>
        <time>2021-09-07T12:03:01Z</time>
      </trkpt>
      <trkpt lat="44.46809" lon="5.51454">
        <ele>709.6</ele>
        <time>2021-09-07T12:03:02Z</time>
      </trkpt>
      <trkpt lat="44.46809" lon="5.51454">
        <ele>709.6</ele>
        <time>2021-09-07T12:03:03Z</time>
      </trkpt>
      <trkpt lat="44.46809" lon="5.51454">
        <ele>709.6</ele>
        <time>2021-09-07T12:03:04Z</time>
      </trkpt>
      <trkpt lat="44.46809" lon="5.51454">
        <ele>709.6</ele>
        <time>2021-09-07T12:03:05Z</time>
      </trkpt>
      <trkpt lat="44.46809" lon="5.51454">
        <ele>709.6</ele>
        <time>2021-09-07T12:03:06Z</time>
      </trkpt>
      <trkpt lat="44.46809" lon="5.51454">
        <ele>709.6</ele>
        <time>2021-09-07T12:03:07Z</time>
      </trkpt>
      <trkpt lat="44.46809" lon="5.51454">
        <ele>709.6</ele>
        <time>2021-09-07T12:03:08Z</time>
      </trkpt>
      <trkpt lat="44.46809" lon="5.51454">
        <ele>709.6</ele>
        <time>2021-09-07T12:03:09Z</time>
      </trkpt>
      <trkpt lat="44.46809" lon="5.51454">
        <ele>709.6</ele>
        <time>2021-09-07T12:03:10Z</time>
      </trkpt>
      <trkpt lat="44.46809" lon="5.51454">
        <ele>709.6</ele>
        <time>2021-09-07T12:03:11Z</time>
      </trkpt>
      <trkpt lat="44.46809" lon="5.51454">
        <ele>709.6</ele>
        <time>2021-09-07T12:03:12Z</time>
      </trkpt>
      <trkpt lat="44.46809" lon="5.51454">
        <ele>709.6</ele>
        <time>2021-09-07T12:03:13Z</time>
      </trkpt>
      <trkpt lat="44.46809" lon="5.51454">
        <ele>709.6</ele>
        <time>2021-09-07T12:03:14Z</time>
      </trkpt>
      <trkpt lat="44.46809" lon="5.51454">
        <ele>709.6</ele>
        <time>2021-09-07T12:03:15Z</time>
      </trkpt>
      <trkpt lat="44.46809" lon="5.51454">
        <ele>709.6</ele>
        <time>2021-09-07T12:03:16Z</time>
      </trkpt>
      <trkpt lat="44.46809" lon="5.51454">
        <ele>709.6</ele>
        <time>2021-09-07T12:03:17Z</time>
      </trkpt>
      <trkpt lat="44.46809" lon="5.51454">
        <ele>709.6</ele>
        <time>2021-09-07T12:03:18Z</time>
      </trkpt>
      <trkpt lat="44.46809" lon="5.51454">
        <ele>709.6</ele>
        <time>2021-09-07T12:03:19Z</time>
      </trkpt>
      <trkpt lat="44.46809" lon="5.51454">
        <ele>709.6</ele>
        <time>2021-09-07T12:03:20Z</time>
      </trkpt>
      <trkpt lat="44.46809" lon="5.51454">
        <ele>709.6</ele>
        <time>2021-09-07T12:03:21Z</time>
      </trkpt>
      <trkpt lat="44.46809" lon="5.51454">
        <ele>709.6</ele>
        <time>2021-09-07T12:03:22Z</time>
      </trkpt>
      <trkpt lat="44.46809" lon="5.51454">
        <ele>709.6</ele>
        <time>2021-09-07T12:03:23Z</time>
      </trkpt>
      <trkpt lat="44.46809" lon="5.51454">
        <ele>709.6</ele>
        <time>2021-09-07T12:03:24Z</time>
      </trkpt>
      <trkpt lat="44.46809" lon="5.51454">
        <ele>709.6</ele>
        <time>2021-09-07T12:03:25Z</time>
      </trkpt>
      <trkpt lat="44.46809" lon="5.51454">
        <ele>709.6</ele>
        <time>2021-09-07T12:03:26Z</time>
      </trkpt>
      <trkpt lat="44.46809" lon="5.51454">
        <ele>709.6</ele>
        <time>2021-09-07T12:03:27Z</time>
      </trkpt>
      <trkpt lat="44.46809" lon="5.51454">
        <ele>709.6</ele>
        <time>2021-09-07T12:03:28Z</time>
      </trkpt>
      <trkpt lat="44.46809" lon="5.51454">
        <ele>709.6</ele>
        <time>2021-09-07T12:03:29Z</time>
      </trkpt>
      <trkpt lat="44.46809" lon="5.51454">
        <ele>709.6</ele>
        <time>2021-09-07T12:03:30Z</time>
      </trkpt>
      <trkpt lat="44.46809" lon="5.51454">
        <ele>709.6</ele>
        <time>2021-09-07T12:03:31Z</time>
      </trkpt>
      <trkpt lat="44.46809" lon="5.51454">
        <ele>709.6</ele>
        <time>2021-09-07T12:03:32Z</time>
      </trkpt>
      <trkpt lat="44.46809" lon="5.51454">
        <ele>709.6</ele>
        <time>2021-09-07T12:03:33Z</time>
      </trkpt>
      <trkpt lat="44.46809" lon="5.51454">
        <ele>709.6</ele>
        <time>2021-09-07T12:03:34Z</time>
      </trkpt>
      <trkpt lat="44.46809" lon="5.51454">
        <ele>709.6</ele>
        <time>2021-09-07T12:03:35Z</time>
      </trkpt>
      <trkpt lat="44.46809" lon="5.51454">
        <ele>709.6</ele>
        <time>2021-09-07T12:03:36Z</time>
      </trkpt>
      <trkpt lat="44.46809" lon="5.51454">
        <ele>709.6</ele>
        <time>2021-09-07T12:03:37Z</time>
      </trkpt>
      <trkpt lat="44.46809" lon="5.51454">
        <ele>709.6</ele>
        <time>2021-09-07T12:03:38Z</time>
      </trkpt>
      <trkpt lat="44.46809" lon="5.51454">
        <ele>709.6</ele>
        <time>2021-09-07T12:03:39Z</time>
      </trkpt>
      <trkpt lat="44.46809" lon="5.51454">
        <ele>709.6</ele>
        <time>2021-09-07T12:03:40Z</time>
      </trkpt>
      <trkpt lat="44.46809" lon="5.51454">
        <ele>709.6</ele>
        <time>2021-09-07T12:03:41Z</time>
      </trkpt>
      <trkpt lat="44.46809" lon="5.51454">
        <ele>709.6</ele>
        <time>2021-09-07T12:03:42Z</time>
      </trkpt>
      <trkpt lat="44.46809" lon="5.51454">
        <ele>709.6</ele>
        <time>2021-09-07T12:03:43Z</time>
      </trkpt>
      <trkpt lat="44.46809" lon="5.51454">
        <ele>709.6</ele>
        <time>2021-09-07T12:03:44Z</time>
      </trkpt>
      <trkpt lat="44.46809" lon="5.51454">
        <ele>709.6</ele>
        <time>2021-09-07T12:03:45Z</time>
      </trkpt>
      <trkpt lat="44.46809" lon="5.51454">
        <ele>709.6</ele>
        <time>2021-09-07T12:03:46Z</time>
      </trkpt>
      <trkpt lat="44.46809" lon="5.51454">
        <ele>709.6</ele>
        <time>2021-09-07T12:03:47Z</time>
      </trkpt>
      <trkpt lat="44.46809" lon="5.51454">
        <ele>709.6</ele>
        <time>2021-09-07T12:03:48Z</time>
      </trkpt>
      <trkpt lat="44.46809" lon="5.51454">
        <ele>709.6</ele>
        <time>2021-09-07T12:03:49Z</time>
      </trkpt>
      <trkpt lat="44.46809" lon="5.51454">
        <ele>709.6</ele>
        <time>2021-09-07T12:03:50Z</time>
      </trkpt>
      <trkpt lat="44.46809" lon="5.51454">
        <ele>709.6</ele>
        <time>2021-09-07T12:03:51Z</time>
      </trkpt>
      <trkpt lat="44.46809" lon="5.51454">
        <ele>709.6</ele>
        <time>2021-09-07T12:03:52Z</time>
      </trkpt>
      <trkpt lat="44.46809" lon="5.51454">
        <ele>709.6</ele>
        <time>2021-09-07T12:03:53Z</time>
      </trkpt>
      <trkpt lat="44.46809" lon="5.51454">
        <ele>709.6</ele>
        <time>2021-09-07T12:03:54Z</time>
      </trkpt>
      <trkpt lat="44.46809" lon="5.51454">
        <ele>709.5</ele>
        <time>2021-09-07T12:03:55Z</time>
      </trkpt>
      <trkpt lat="44.46809" lon="5.51454">
        <ele>709.5</ele>
        <time>2021-09-07T12:03:56Z</time>
      </trkpt>
      <trkpt lat="44.46809" lon="5.51454">
        <ele>709.5</ele>
        <time>2021-09-07T12:03:57Z</time>
      </trkpt>
      <trkpt lat="44.46809" lon="5.51454">
        <ele>709.5</ele>
        <time>2021-09-07T12:03:58Z</time>
      </trkpt>
      <trkpt lat="44.46809" lon="5.51454">
        <ele>709.5</ele>
        <time>2021-09-07T12:03:59Z</time>
      </trkpt>
      <trkpt lat="44.46809" lon="5.51454">
        <ele>709.5</ele>
        <time>2021-09-07T12:04:00Z</time>
      </trkpt>
      <trkpt lat="44.46809" lon="5.51454">
        <ele>709.5</ele>
        <time>2021-09-07T12:04:01Z</time>
      </trkpt>
      <trkpt lat="44.46809" lon="5.51454">
        <ele>709.5</ele>
        <time>2021-09-07T12:04:02Z</time>
      </trkpt>
      <trkpt lat="44.46809" lon="5.51454">
        <ele>709.5</ele>
        <time>2021-09-07T12:04:03Z</time>
      </trkpt>
      <trkpt lat="44.46809" lon="5.51454">
        <ele>709.5</ele>
        <time>2021-09-07T12:04:04Z</time>
      </trkpt>
      <trkpt lat="44.46809" lon="5.51454">
        <ele>709.5</ele>
        <time>2021-09-07T12:04:05Z</time>
      </trkpt>
      <trkpt lat="44.46809" lon="5.51454">
        <ele>709.5</ele>
        <time>2021-09-07T12:04:06Z</time>
      </trkpt>
      <trkpt lat="44.46809" lon="5.51453">
        <ele>709.5</ele>
        <time>2021-09-07T12:04:07Z</time>
      </trkpt>
      <trkpt lat="44.46809" lon="5.51453">
        <ele>709.5</ele>
        <time>2021-09-07T12:04:08Z</time>
      </trkpt>
      <trkpt lat="44.46809" lon="5.51453">
        <ele>709.5</ele>
        <time>2021-09-07T12:04:09Z</time>
      </trkpt>
      <trkpt lat="44.46809" lon="5.51453">
        <ele>709.5</ele>
        <time>2021-09-07T12:04:10Z</time>
      </trkpt>
      <trkpt lat="44.46809" lon="5.51453">
        <ele>709.5</ele>
        <time>2021-09-07T12:04:11Z</time>
      </trkpt>
      <trkpt lat="44.46809" lon="5.51453">
        <ele>709.5</ele>
        <time>2021-09-07T12:04:12Z</time>
      </trkpt>
      <trkpt lat="44.46809" lon="5.51453">
        <ele>709.5</ele>
        <time>2021-09-07T12:04:13Z</time>
      </trkpt>
      <trkpt lat="44.46809" lon="5.51453">
        <ele>709.5</ele>
        <time>2021-09-07T12:04:14Z</time>
      </trkpt>
      <trkpt lat="44.46809" lon="5.51453">
        <ele>709.5</ele>
        <time>2021-09-07T12:04:15Z</time>
      </trkpt>
      <trkpt lat="44.46809" lon="5.51453">
        <ele>709.5</ele>
        <time>2021-09-07T12:04:16Z</time>
      </trkpt>
      <trkpt lat="44.46809" lon="5.51453">
        <ele>709.5</ele>
        <time>2021-09-07T12:04:17Z</time>
      </trkpt>
      <trkpt lat="44.46809" lon="5.51453">
        <ele>709.5</ele>
        <time>2021-09-07T12:04:18Z</time>
      </trkpt>
      <trkpt lat="44.46809" lon="5.51453">
        <ele>709.5</ele>
        <time>2021-09-07T12:04:19Z</time>
      </trkpt>
      <trkpt lat="44.46809" lon="5.51453">
        <ele>709.5</ele>
        <time>2021-09-07T12:04:20Z</time>
      </trkpt>
      <trkpt lat="44.46809" lon="5.51453">
        <ele>709.5</ele>
        <time>2021-09-07T12:04:21Z</time>
      </trkpt>
      <trkpt lat="44.46809" lon="5.51453">
        <ele>709.5</ele>
        <time>2021-09-07T12:04:22Z</time>
      </trkpt>
      <trkpt lat="44.46809" lon="5.51453">
        <ele>709.5</ele>
        <time>2021-09-07T12:04:23Z</time>
      </trkpt>
      <trkpt lat="44.46809" lon="5.51453">
        <ele>709.5</ele>
        <time>2021-09-07T12:04:24Z</time>
      </trkpt>
      <trkpt lat="44.46809" lon="5.51453">
        <ele>709.5</ele>
        <time>2021-09-07T12:04:25Z</time>
      </trkpt>
      <trkpt lat="44.46809" lon="5.51453">
        <ele>709.5</ele>
        <time>2021-09-07T12:04:26Z</time>
      </trkpt>
      <trkpt lat="44.46809" lon="5.51453">
        <ele>709.5</ele>
        <time>2021-09-07T12:04:27Z</time>
      </trkpt>
      <trkpt lat="44.46809" lon="5.51453">
        <ele>709.5</ele>
        <time>2021-09-07T12:04:28Z</time>
      </trkpt>
      <trkpt lat="44.46809" lon="5.51453">
        <ele>709.5</ele>
        <time>2021-09-07T12:04:29Z</time>
      </trkpt>
      <trkpt lat="44.46809" lon="5.51453">
        <ele>709.5</ele>
        <time>2021-09-07T12:04:30Z</time>
      </trkpt>
      <trkpt lat="44.46809" lon="5.51453">
        <ele>709.5</ele>
        <time>2021-09-07T12:04:31Z</time>
      </trkpt>
      <trkpt lat="44.46809" lon="5.51453">
        <ele>709.5</ele>
        <time>2021-09-07T12:04:32Z</time>
      </trkpt>
      <trkpt lat="44.46809" lon="5.51453">
        <ele>709.5</ele>
        <time>2021-09-07T12:04:33Z</time>
      </trkpt>
      <trkpt lat="44.46809" lon="5.51453">
        <ele>709.5</ele>
        <time>2021-09-07T12:04:34Z</time>
      </trkpt>
      <trkpt lat="44.46809" lon="5.51453">
        <ele>709.5</ele>
        <time>2021-09-07T12:04:35Z</time>
      </trkpt>
      <trkpt lat="44.46809" lon="5.51453">
        <ele>709.5</ele>
        <time>2021-09-07T12:04:36Z</time>
      </trkpt>
      <trkpt lat="44.46809" lon="5.51453">
        <ele>709.5</ele>
        <time>2021-09-07T12:04:37Z</time>
      </trkpt>
      <trkpt lat="44.46809" lon="5.51453">
        <ele>709.5</ele>
        <time>2021-09-07T12:04:38Z</time>
      </trkpt>
      <trkpt lat="44.46809" lon="5.51453">
        <ele>709.5</ele>
        <time>2021-09-07T12:04:39Z</time>
      </trkpt>
      <trkpt lat="44.46809" lon="5.51453">
        <ele>709.5</ele>
        <time>2021-09-07T12:04:40Z</time>
      </trkpt>
      <trkpt lat="44.46809" lon="5.51453">
        <ele>709.5</ele>
        <time>2021-09-07T12:04:41Z</time>
      </trkpt>
      <trkpt lat="44.46809" lon="5.51453">
        <ele>709.5</ele>
        <time>2021-09-07T12:04:42Z</time>
      </trkpt>
      <trkpt lat="44.46809" lon="5.51453">
        <ele>709.5</ele>
        <time>2021-09-07T12:04:43Z</time>
      </trkpt>
      <trkpt lat="44.46809" lon="5.51453">
        <ele>709.5</ele>
        <time>2021-09-07T12:04:44Z</time>
      </trkpt>
      <trkpt lat="44.46809" lon="5.51453">
        <ele>709.5</ele>
        <time>2021-09-07T12:04:45Z</time>
      </trkpt>
      <trkpt lat="44.46809" lon="5.51453">
        <ele>709.5</ele>
        <time>2021-09-07T12:04:46Z</time>
      </trkpt>
      <trkpt lat="44.46809" lon="5.51453">
        <ele>709.5</ele>
        <time>2021-09-07T12:04:47Z</time>
      </trkpt>
      <trkpt lat="44.46809" lon="5.51453">
        <ele>709.5</ele>
        <time>2021-09-07T12:04:48Z</time>
      </trkpt>
      <trkpt lat="44.46809" lon="5.51453">
        <ele>709.5</ele>
        <time>2021-09-07T12:04:49Z</time>
      </trkpt>
      <trkpt lat="44.46809" lon="5.51453">
        <ele>709.5</ele>
        <time>2021-09-07T12:04:50Z</time>
      </trkpt>
      <trkpt lat="44.46809" lon="5.51453">
        <ele>709.5</ele>
        <time>2021-09-07T12:04:51Z</time>
      </trkpt>
      <trkpt lat="44.46809" lon="5.51453">
        <ele>709.5</ele>
        <time>2021-09-07T12:04:52Z</time>
      </trkpt>
      <trkpt lat="44.46809" lon="5.51453">
        <ele>709.5</ele>
        <time>2021-09-07T12:04:53Z</time>
      </trkpt>
      <trkpt lat="44.46809" lon="5.51453">
        <ele>709.5</ele>
        <time>2021-09-07T12:04:54Z</time>
      </trkpt>
      <trkpt lat="44.46809" lon="5.51453">
        <ele>709.5</ele>
        <time>2021-09-07T12:04:55Z</time>
      </trkpt>
      <trkpt lat="44.46809" lon="5.51453">
        <ele>709.5</ele>
        <time>2021-09-07T12:04:56Z</time>
      </trkpt>
      <trkpt lat="44.46809" lon="5.51453">
        <ele>709.5</ele>
        <time>2021-09-07T12:04:57Z</time>
      </trkpt>
      <trkpt lat="44.46809" lon="5.51453">
        <ele>709.5</ele>
        <time>2021-09-07T12:04:58Z</time>
      </trkpt>
      <trkpt lat="44.46809" lon="5.51453">
        <ele>709.5</ele>
        <time>2021-09-07T12:04:59Z</time>
      </trkpt>
      <trkpt lat="44.46809" lon="5.51453">
        <ele>709.5</ele>
        <time>2021-09-07T12:05:00Z</time>
      </trkpt>
      <trkpt lat="44.46809" lon="5.51453">
        <ele>709.5</ele>
        <time>2021-09-07T12:05:01Z</time>
      </trkpt>
      <trkpt lat="44.46809" lon="5.51453">
        <ele>709.5</ele>
        <time>2021-09-07T12:05:02Z</time>
      </trkpt>
      <trkpt lat="44.46809" lon="5.51453">
        <ele>709.5</ele>
        <time>2021-09-07T12:05:03Z</time>
      </trkpt>
      <trkpt lat="44.46809" lon="5.51453">
        <ele>709.5</ele>
        <time>2021-09-07T12:05:04Z</time>
      </trkpt>
      <trkpt lat="44.46809" lon="5.51453">
        <ele>709.5</ele>
        <time>2021-09-07T12:05:05Z</time>
      </trkpt>
      <trkpt lat="44.46809" lon="5.51453">
        <ele>709.5</ele>
        <time>2021-09-07T12:05:06Z</time>
      </trkpt>
      <trkpt lat="44.46809" lon="5.51453">
        <ele>709.5</ele>
        <time>2021-09-07T12:05:07Z</time>
      </trkpt>
      <trkpt lat="44.46809" lon="5.51453">
        <ele>709.5</ele>
        <time>2021-09-07T12:05:08Z</time>
      </trkpt>
      <trkpt lat="44.46809" lon="5.51453">
        <ele>709.5</ele>
        <time>2021-09-07T12:05:09Z</time>
      </trkpt>
      <trkpt lat="44.46809" lon="5.51453">
        <ele>709.5</ele>
        <time>2021-09-07T12:05:10Z</time>
      </trkpt>
      <trkpt lat="44.46809" lon="5.51453">
        <ele>709.5</ele>
        <time>2021-09-07T12:05:11Z</time>
      </trkpt>
      <trkpt lat="44.46809" lon="5.51453">
        <ele>709.5</ele>
        <time>2021-09-07T12:05:12Z</time>
      </trkpt>
      <trkpt lat="44.46809" lon="5.51453">
        <ele>709.5</ele>
        <time>2021-09-07T12:05:13Z</time>
      </trkpt>
      <trkpt lat="44.46809" lon="5.51453">
        <ele>709.5</ele>
        <time>2021-09-07T12:05:14Z</time>
      </trkpt>
      <trkpt lat="44.46809" lon="5.51453">
        <ele>709.5</ele>
        <time>2021-09-07T12:05:15Z</time>
      </trkpt>
      <trkpt lat="44.46809" lon="5.51453">
        <ele>709.5</ele>
        <time>2021-09-07T12:05:16Z</time>
      </trkpt>
      <trkpt lat="44.46809" lon="5.51453">
        <ele>709.5</ele>
        <time>2021-09-07T12:05:17Z</time>
      </trkpt>
      <trkpt lat="44.46809" lon="5.51453">
        <ele>709.5</ele>
        <time>2021-09-07T12:05:18Z</time>
      </trkpt>
      <trkpt lat="44.46809" lon="5.51453">
        <ele>709.5</ele>
        <time>2021-09-07T12:05:19Z</time>
      </trkpt>
      <trkpt lat="44.46809" lon="5.51453">
        <ele>709.5</ele>
        <time>2021-09-07T12:05:20Z</time>
      </trkpt>
      <trkpt lat="44.46809" lon="5.51453">
        <ele>709.5</ele>
        <time>2021-09-07T12:05:21Z</time>
      </trkpt>
      <trkpt lat="44.46809" lon="5.51453">
        <ele>709.5</ele>
        <time>2021-09-07T12:05:22Z</time>
      </trkpt>
      <trkpt lat="44.46809" lon="5.51453">
        <ele>709.5</ele>
        <time>2021-09-07T12:05:23Z</time>
      </trkpt>
      <trkpt lat="44.46809" lon="5.51453">
        <ele>709.5</ele>
        <time>2021-09-07T12:05:24Z</time>
      </trkpt>
      <trkpt lat="44.46809" lon="5.51453">
        <ele>709.5</ele>
        <time>2021-09-07T12:05:25Z</time>
      </trkpt>
      <trkpt lat="44.46809" lon="5.51453">
        <ele>709.5</ele>
        <time>2021-09-07T12:05:26Z</time>
      </trkpt>
      <trkpt lat="44.46809" lon="5.51453">
        <ele>709.5</ele>
        <time>2021-09-07T12:05:27Z</time>
      </trkpt>
      <trkpt lat="44.46809" lon="5.51453">
        <ele>709.5</ele>
        <time>2021-09-07T12:05:28Z</time>
      </trkpt>
      <trkpt lat="44.46809" lon="5.51453">
        <ele>709.5</ele>
        <time>2021-09-07T12:05:29Z</time>
      </trkpt>
      <trkpt lat="44.46809" lon="5.51453">
        <ele>709.5</ele>
        <time>2021-09-07T12:05:30Z</time>
      </trkpt>
      <trkpt lat="44.46809" lon="5.51453">
        <ele>709.5</ele>
        <time>2021-09-07T12:05:31Z</time>
      </trkpt>
      <trkpt lat="44.46809" lon="5.51453">
        <ele>709.5</ele>
        <time>2021-09-07T12:05:32Z</time>
      </trkpt>
      <trkpt lat="44.46809" lon="5.51453">
        <ele>709.5</ele>
        <time>2021-09-07T12:05:33Z</time>
      </trkpt>
      <trkpt lat="44.46809" lon="5.51453">
        <ele>709.5</ele>
        <time>2021-09-07T12:05:34Z</time>
      </trkpt>
      <trkpt lat="44.46809" lon="5.51453">
        <ele>709.5</ele>
        <time>2021-09-07T12:05:35Z</time>
      </trkpt>
      <trkpt lat="44.46809" lon="5.51453">
        <ele>709.5</ele>
        <time>2021-09-07T12:05:36Z</time>
      </trkpt>
      <trkpt lat="44.46809" lon="5.51453">
        <ele>709.5</ele>
        <time>2021-09-07T12:05:37Z</time>
      </trkpt>
      <trkpt lat="44.46809" lon="5.51453">
        <ele>709.5</ele>
        <time>2021-09-07T12:05:38Z</time>
      </trkpt>
      <trkpt lat="44.46809" lon="5.51453">
        <ele>709.5</ele>
        <time>2021-09-07T12:05:39Z</time>
      </trkpt>
      <trkpt lat="44.46809" lon="5.51453">
        <ele>709.5</ele>
        <time>2021-09-07T12:05:40Z</time>
      </trkpt>
      <trkpt lat="44.46809" lon="5.51453">
        <ele>709.5</ele>
        <time>2021-09-07T12:05:41Z</time>
      </trkpt>
      <trkpt lat="44.46809" lon="5.51453">
        <ele>709.5</ele>
        <time>2021-09-07T12:05:42Z</time>
      </trkpt>
      <trkpt lat="44.46809" lon="5.51453">
        <ele>709.5</ele>
        <time>2021-09-07T12:05:43Z</time>
      </trkpt>
      <trkpt lat="44.46809" lon="5.51453">
        <ele>709.5</ele>
        <time>2021-09-07T12:05:44Z</time>
      </trkpt>
      <trkpt lat="44.46809" lon="5.51453">
        <ele>709.5</ele>
        <time>2021-09-07T12:05:45Z</time>
      </trkpt>
      <trkpt lat="44.46809" lon="5.51453">
        <ele>709.5</ele>
        <time>2021-09-07T12:05:46Z</time>
      </trkpt>
      <trkpt lat="44.46809" lon="5.51453">
        <ele>709.5</ele>
        <time>2021-09-07T12:05:47Z</time>
      </trkpt>
      <trkpt lat="44.46809" lon="5.51453">
        <ele>709.5</ele>
        <time>2021-09-07T12:05:48Z</time>
      </trkpt>
      <trkpt lat="44.46809" lon="5.51453">
        <ele>709.5</ele>
        <time>2021-09-07T12:05:49Z</time>
      </trkpt>
      <trkpt lat="44.46809" lon="5.51453">
        <ele>709.5</ele>
        <time>2021-09-07T12:05:50Z</time>
      </trkpt>
      <trkpt lat="44.46809" lon="5.51453">
        <ele>709.5</ele>
        <time>2021-09-07T12:05:51Z</time>
      </trkpt>
      <trkpt lat="44.46809" lon="5.51453">
        <ele>709.5</ele>
        <time>2021-09-07T12:05:52Z</time>
      </trkpt>
      <trkpt lat="44.46809" lon="5.51453">
        <ele>709.5</ele>
        <time>2021-09-07T12:05:53Z</time>
      </trkpt>
      <trkpt lat="44.46809" lon="5.51453">
        <ele>709.5</ele>
        <time>2021-09-07T12:05:54Z</time>
      </trkpt>
      <trkpt lat="44.46809" lon="5.51453">
        <ele>709.5</ele>
        <time>2021-09-07T12:05:55Z</time>
      </trkpt>
      <trkpt lat="44.46809" lon="5.51453">
        <ele>709.5</ele>
        <time>2021-09-07T12:05:56Z</time>
      </trkpt>
      <trkpt lat="44.46809" lon="5.51453">
        <ele>709.5</ele>
        <time>2021-09-07T12:05:57Z</time>
      </trkpt>
      <trkpt lat="44.46809" lon="5.51453">
        <ele>709.5</ele>
        <time>2021-09-07T12:05:58Z</time>
      </trkpt>
      <trkpt lat="44.46809" lon="5.51453">
        <ele>709.5</ele>
        <time>2021-09-07T12:05:59Z</time>
      </trkpt>
      <trkpt lat="44.46809" lon="5.51453">
        <ele>709.5</ele>
        <time>2021-09-07T12:06:00Z</time>
      </trkpt>
      <trkpt lat="44.46809" lon="5.51453">
        <ele>709.5</ele>
        <time>2021-09-07T12:06:01Z</time>
      </trkpt>
      <trkpt lat="44.46809" lon="5.51453">
        <ele>709.5</ele>
        <time>2021-09-07T12:06:02Z</time>
      </trkpt>
      <trkpt lat="44.46809" lon="5.51453">
        <ele>709.5</ele>
        <time>2021-09-07T12:06:03Z</time>
      </trkpt>
      <trkpt lat="44.46809" lon="5.51453">
        <ele>709.5</ele>
        <time>2021-09-07T12:06:04Z</time>
      </trkpt>
      <trkpt lat="44.46809" lon="5.51453">
        <ele>709.5</ele>
        <time>2021-09-07T12:06:05Z</time>
      </trkpt>
      <trkpt lat="44.46809" lon="5.51453">
        <ele>709.5</ele>
        <time>2021-09-07T12:06:06Z</time>
      </trkpt>
      <trkpt lat="44.46809" lon="5.51453">
        <ele>709.5</ele>
        <time>2021-09-07T12:06:07Z</time>
      </trkpt>
      <trkpt lat="44.46809" lon="5.51453">
        <ele>709.5</ele>
        <time>2021-09-07T12:06:08Z</time>
      </trkpt>
      <trkpt lat="44.46809" lon="5.51453">
        <ele>709.5</ele>
        <time>2021-09-07T12:06:09Z</time>
      </trkpt>
      <trkpt lat="44.46809" lon="5.51453">
        <ele>709.5</ele>
        <time>2021-09-07T12:06:10Z</time>
      </trkpt>
      <trkpt lat="44.46809" lon="5.51453">
        <ele>709.5</ele>
        <time>2021-09-07T12:06:11Z</time>
      </trkpt>
      <trkpt lat="44.46809" lon="5.51452">
        <ele>709.5</ele>
        <time>2021-09-07T12:06:12Z</time>
      </trkpt>
      <trkpt lat="44.46809" lon="5.51452">
        <ele>709.5</ele>
        <time>2021-09-07T12:06:13Z</time>
      </trkpt>
      <trkpt lat="44.46809" lon="5.51452">
        <ele>709.5</ele>
        <time>2021-09-07T12:06:14Z</time>
      </trkpt>
      <trkpt lat="44.46809" lon="5.51452">
        <ele>709.5</ele>
        <time>2021-09-07T12:06:15Z</time>
      </trkpt>
      <trkpt lat="44.46809" lon="5.51452">
        <ele>709.5</ele>
        <time>2021-09-07T12:06:16Z</time>
      </trkpt>
      <trkpt lat="44.46809" lon="5.51452">
        <ele>709.5</ele>
        <time>2021-09-07T12:06:17Z</time>
      </trkpt>
      <trkpt lat="44.46809" lon="5.51452">
        <ele>709.5</ele>
        <time>2021-09-07T12:06:18Z</time>
      </trkpt>
      <trkpt lat="44.46809" lon="5.51452">
        <ele>709.5</ele>
        <time>2021-09-07T12:06:19Z</time>
      </trkpt>
      <trkpt lat="44.46809" lon="5.51452">
        <ele>709.5</ele>
        <time>2021-09-07T12:06:20Z</time>
      </trkpt>
      <trkpt lat="44.46809" lon="5.51452">
        <ele>709.5</ele>
        <time>2021-09-07T12:06:21Z</time>
      </trkpt>
      <trkpt lat="44.46809" lon="5.51452">
        <ele>709.5</ele>
        <time>2021-09-07T12:06:22Z</time>
      </trkpt>
      <trkpt lat="44.46809" lon="5.51452">
        <ele>709.5</ele>
        <time>2021-09-07T12:06:23Z</time>
      </trkpt>
      <trkpt lat="44.46809" lon="5.51452">
        <ele>709.5</ele>
        <time>2021-09-07T12:06:24Z</time>
      </trkpt>
      <trkpt lat="44.46809" lon="5.51452">
        <ele>709.5</ele>
        <time>2021-09-07T12:06:25Z</time>
      </trkpt>
      <trkpt lat="44.46809" lon="5.51452">
        <ele>709.5</ele>
        <time>2021-09-07T12:06:26Z</time>
      </trkpt>
      <trkpt lat="44.46809" lon="5.51452">
        <ele>709.5</ele>
        <time>2021-09-07T12:06:27Z</time>
      </trkpt>
      <trkpt lat="44.46809" lon="5.51452">
        <ele>709.5</ele>
        <time>2021-09-07T12:06:28Z</time>
      </trkpt>
      <trkpt lat="44.46809" lon="5.51452">
        <ele>709.5</ele>
        <time>2021-09-07T12:06:29Z</time>
      </trkpt>
      <trkpt lat="44.46809" lon="5.51452">
        <ele>709.5</ele>
        <time>2021-09-07T12:06:30Z</time>
      </trkpt>
      <trkpt lat="44.46809" lon="5.51452">
        <ele>709.5</ele>
        <time>2021-09-07T12:06:31Z</time>
      </trkpt>
      <trkpt lat="44.46809" lon="5.51452">
        <ele>709.5</ele>
        <time>2021-09-07T12:06:32Z</time>
      </trkpt>
      <trkpt lat="44.46809" lon="5.51452">
        <ele>709.5</ele>
        <time>2021-09-07T12:06:33Z</time>
      </trkpt>
      <trkpt lat="44.46809" lon="5.51452">
        <ele>709.5</ele>
        <time>2021-09-07T12:06:34Z</time>
      </trkpt>
      <trkpt lat="44.46809" lon="5.51452">
        <ele>709.5</ele>
        <time>2021-09-07T12:06:35Z</time>
      </trkpt>
      <trkpt lat="44.46809" lon="5.51452">
        <ele>709.5</ele>
        <time>2021-09-07T12:06:36Z</time>
      </trkpt>
      <trkpt lat="44.46809" lon="5.51452">
        <ele>709.5</ele>
        <time>2021-09-07T12:06:37Z</time>
      </trkpt>
      <trkpt lat="44.46809" lon="5.51452">
        <ele>709.5</ele>
        <time>2021-09-07T12:06:38Z</time>
      </trkpt>
      <trkpt lat="44.46809" lon="5.51452">
        <ele>709.5</ele>
        <time>2021-09-07T12:06:39Z</time>
      </trkpt>
      <trkpt lat="44.46809" lon="5.51452">
        <ele>709.5</ele>
        <time>2021-09-07T12:06:40Z</time>
      </trkpt>
      <trkpt lat="44.46809" lon="5.51452">
        <ele>709.5</ele>
        <time>2021-09-07T12:06:41Z</time>
      </trkpt>
      <trkpt lat="44.46809" lon="5.51452">
        <ele>709.5</ele>
        <time>2021-09-07T12:06:42Z</time>
      </trkpt>
      <trkpt lat="44.46809" lon="5.51452">
        <ele>709.5</ele>
        <time>2021-09-07T12:06:43Z</time>
      </trkpt>
      <trkpt lat="44.46809" lon="5.51452">
        <ele>709.5</ele>
        <time>2021-09-07T12:06:44Z</time>
      </trkpt>
      <trkpt lat="44.46809" lon="5.51452">
        <ele>709.5</ele>
        <time>2021-09-07T12:06:45Z</time>
      </trkpt>
      <trkpt lat="44.46809" lon="5.51452">
        <ele>709.5</ele>
        <time>2021-09-07T12:06:46Z</time>
      </trkpt>
      <trkpt lat="44.46809" lon="5.51452">
        <ele>709.5</ele>
        <time>2021-09-07T12:06:47Z</time>
      </trkpt>
      <trkpt lat="44.46809" lon="5.51452">
        <ele>709.5</ele>
        <time>2021-09-07T12:06:48Z</time>
      </trkpt>
      <trkpt lat="44.46809" lon="5.51452">
        <ele>709.5</ele>
        <time>2021-09-07T12:06:49Z</time>
      </trkpt>
      <trkpt lat="44.46809" lon="5.51452">
        <ele>709.5</ele>
        <time>2021-09-07T12:06:50Z</time>
      </trkpt>
      <trkpt lat="44.46809" lon="5.51452">
        <ele>709.5</ele>
        <time>2021-09-07T12:06:51Z</time>
      </trkpt>
      <trkpt lat="44.46809" lon="5.51452">
        <ele>709.5</ele>
        <time>2021-09-07T12:06:52Z</time>
      </trkpt>
      <trkpt lat="44.46809" lon="5.51452">
        <ele>709.5</ele>
        <time>2021-09-07T12:06:53Z</time>
      </trkpt>
      <trkpt lat="44.46809" lon="5.51452">
        <ele>709.5</ele>
        <time>2021-09-07T12:06:54Z</time>
      </trkpt>
      <trkpt lat="44.46809" lon="5.51452">
        <ele>709.5</ele>
        <time>2021-09-07T12:06:55Z</time>
      </trkpt>
      <trkpt lat="44.46809" lon="5.51452">
        <ele>709.5</ele>
        <time>2021-09-07T12:06:56Z</time>
      </trkpt>
      <trkpt lat="44.46809" lon="5.51452">
        <ele>709.5</ele>
        <time>2021-09-07T12:06:57Z</time>
      </trkpt>
      <trkpt lat="44.46809" lon="5.51452">
        <ele>709.5</ele>
        <time>2021-09-07T12:06:58Z</time>
      </trkpt>
      <trkpt lat="44.46809" lon="5.51452">
        <ele>709.5</ele>
        <time>2021-09-07T12:06:59Z</time>
      </trkpt>
      <trkpt lat="44.46809" lon="5.51452">
        <ele>709.5</ele>
        <time>2021-09-07T12:07:00Z</time>
      </trkpt>
      <trkpt lat="44.46809" lon="5.51452">
        <ele>709.5</ele>
        <time>2021-09-07T12:07:01Z</time>
      </trkpt>
      <trkpt lat="44.46809" lon="5.51452">
        <ele>709.5</ele>
        <time>2021-09-07T12:07:02Z</time>
      </trkpt>
      <trkpt lat="44.46809" lon="5.51452">
        <ele>709.5</ele>
        <time>2021-09-07T12:07:03Z</time>
      </trkpt>
      <trkpt lat="44.46809" lon="5.51452">
        <ele>709.5</ele>
        <time>2021-09-07T12:07:04Z</time>
      </trkpt>
      <trkpt lat="44.46809" lon="5.51452">
        <ele>709.5</ele>
        <time>2021-09-07T12:07:05Z</time>
      </trkpt>
      <trkpt lat="44.46809" lon="5.51452">
        <ele>709.5</ele>
        <time>2021-09-07T12:07:06Z</time>
      </trkpt>
      <trkpt lat="44.46809" lon="5.51452">
        <ele>709.5</ele>
        <time>2021-09-07T12:07:07Z</time>
      </trkpt>
      <trkpt lat="44.46809" lon="5.51452">
        <ele>709.5</ele>
        <time>2021-09-07T12:07:08Z</time>
      </trkpt>
      <trkpt lat="44.46809" lon="5.51452">
        <ele>709.5</ele>
        <time>2021-09-07T12:07:09Z</time>
      </trkpt>
      <trkpt lat="44.46809" lon="5.51452">
        <ele>709.5</ele>
        <time>2021-09-07T12:07:10Z</time>
      </trkpt>
      <trkpt lat="44.46809" lon="5.51452">
        <ele>709.5</ele>
        <time>2021-09-07T12:07:11Z</time>
      </trkpt>
      <trkpt lat="44.46809" lon="5.51452">
        <ele>709.5</ele>
        <time>2021-09-07T12:07:12Z</time>
      </trkpt>
      <trkpt lat="44.46809" lon="5.51452">
        <ele>709.5</ele>
        <time>2021-09-07T12:07:13Z</time>
      </trkpt>
      <trkpt lat="44.46809" lon="5.51452">
        <ele>709.5</ele>
        <time>2021-09-07T12:07:14Z</time>
      </trkpt>
      <trkpt lat="44.46809" lon="5.51452">
        <ele>709.5</ele>
        <time>2021-09-07T12:07:15Z</time>
      </trkpt>
      <trkpt lat="44.46809" lon="5.51452">
        <ele>709.5</ele>
        <time>2021-09-07T12:07:16Z</time>
      </trkpt>
      <trkpt lat="44.46809" lon="5.51452">
        <ele>709.5</ele>
        <time>2021-09-07T12:07:17Z</time>
      </trkpt>
      <trkpt lat="44.46809" lon="5.51452">
        <ele>709.5</ele>
        <time>2021-09-07T12:07:18Z</time>
      </trkpt>
      <trkpt lat="44.46809" lon="5.51452">
        <ele>709.5</ele>
        <time>2021-09-07T12:07:19Z</time>
      </trkpt>
      <trkpt lat="44.46809" lon="5.51452">
        <ele>709.5</ele>
        <time>2021-09-07T12:07:20Z</time>
      </trkpt>
      <trkpt lat="44.46809" lon="5.51452">
        <ele>709.5</ele>
        <time>2021-09-07T12:07:21Z</time>
      </trkpt>
      <trkpt lat="44.46809" lon="5.51452">
        <ele>709.5</ele>
        <time>2021-09-07T12:07:22Z</time>
      </trkpt>
      <trkpt lat="44.46809" lon="5.51452">
        <ele>709.5</ele>
        <time>2021-09-07T12:07:23Z</time>
      </trkpt>
      <trkpt lat="44.46809" lon="5.51452">
        <ele>709.5</ele>
        <time>2021-09-07T12:07:24Z</time>
      </trkpt>
      <trkpt lat="44.46809" lon="5.51452">
        <ele>709.5</ele>
        <time>2021-09-07T12:07:25Z</time>
      </trkpt>
      <trkpt lat="44.46809" lon="5.51452">
        <ele>709.5</ele>
        <time>2021-09-07T12:07:26Z</time>
      </trkpt>
      <trkpt lat="44.46809" lon="5.51452">
        <ele>709.5</ele>
        <time>2021-09-07T12:07:27Z</time>
      </trkpt>
      <trkpt lat="44.46809" lon="5.51452">
        <ele>710.2</ele>
        <time>2021-09-07T12:07:28Z</time>
      </trkpt>
      <trkpt lat="44.46809" lon="5.51452">
        <ele>710.2</ele>
        <time>2021-09-07T12:07:29Z</time>
      </trkpt>
      <trkpt lat="44.46809" lon="5.51452">
        <ele>710.2</ele>
        <time>2021-09-07T12:07:30Z</time>
      </trkpt>
      <trkpt lat="44.46809" lon="5.51452">
        <ele>710.2</ele>
        <time>2021-09-07T12:07:31Z</time>
      </trkpt>
      <trkpt lat="44.46809" lon="5.51452">
        <ele>710.2</ele>
        <time>2021-09-07T12:07:32Z</time>
      </trkpt>
      <trkpt lat="44.46809" lon="5.51452">
        <ele>710.2</ele>
        <time>2021-09-07T12:07:33Z</time>
      </trkpt>
      <trkpt lat="44.46809" lon="5.51452">
        <ele>710.2</ele>
        <time>2021-09-07T12:07:34Z</time>
      </trkpt>
      <trkpt lat="44.46809" lon="5.51452">
        <ele>710.2</ele>
        <time>2021-09-07T12:07:35Z</time>
      </trkpt>
      <trkpt lat="44.46809" lon="5.51452">
        <ele>710.2</ele>
        <time>2021-09-07T12:07:36Z</time>
      </trkpt>
      <trkpt lat="44.46809" lon="5.51452">
        <ele>710.2</ele>
        <time>2021-09-07T12:07:37Z</time>
      </trkpt>
      <trkpt lat="44.46809" lon="5.51452">
        <ele>710.2</ele>
        <time>2021-09-07T12:07:38Z</time>
      </trkpt>
      <trkpt lat="44.46809" lon="5.51452">
        <ele>710.2</ele>
        <time>2021-09-07T12:07:39Z</time>
      </trkpt>
      <trkpt lat="44.46809" lon="5.51452">
        <ele>710.2</ele>
        <time>2021-09-07T12:07:40Z</time>
      </trkpt>
      <trkpt lat="44.46809" lon="5.51452">
        <ele>710.2</ele>
        <time>2021-09-07T12:07:41Z</time>
      </trkpt>
      <trkpt lat="44.46809" lon="5.51452">
        <ele>710.2</ele>
        <time>2021-09-07T12:07:42Z</time>
      </trkpt>
      <trkpt lat="44.46809" lon="5.51452">
        <ele>710.2</ele>
        <time>2021-09-07T12:07:43Z</time>
      </trkpt>
      <trkpt lat="44.46809" lon="5.51452">
        <ele>710.2</ele>
        <time>2021-09-07T12:07:44Z</time>
      </trkpt>
      <trkpt lat="44.46809" lon="5.51452">
        <ele>710.2</ele>
        <time>2021-09-07T12:07:45Z</time>
      </trkpt>
      <trkpt lat="44.46809" lon="5.51452">
        <ele>710.2</ele>
        <time>2021-09-07T12:07:46Z</time>
      </trkpt>
      <trkpt lat="44.46809" lon="5.51452">
        <ele>710.2</ele>
        <time>2021-09-07T12:07:47Z</time>
      </trkpt>
      <trkpt lat="44.46809" lon="5.51452">
        <ele>710.2</ele>
        <time>2021-09-07T12:07:48Z</time>
      </trkpt>
      <trkpt lat="44.46809" lon="5.51452">
        <ele>710.2</ele>
        <time>2021-09-07T12:07:49Z</time>
      </trkpt>
      <trkpt lat="44.46809" lon="5.51452">
        <ele>710.2</ele>
        <time>2021-09-07T12:07:50Z</time>
      </trkpt>
      <trkpt lat="44.46809" lon="5.51452">
        <ele>710.2</ele>
        <time>2021-09-07T12:07:51Z</time>
      </trkpt>
      <trkpt lat="44.46809" lon="5.51452">
        <ele>710.2</ele>
        <time>2021-09-07T12:07:52Z</time>
      </trkpt>
      <trkpt lat="44.46809" lon="5.51452">
        <ele>710.2</ele>
        <time>2021-09-07T12:07:53Z</time>
      </trkpt>
      <trkpt lat="44.46809" lon="5.51452">
        <ele>710.2</ele>
        <time>2021-09-07T12:07:54Z</time>
      </trkpt>
      <trkpt lat="44.46809" lon="5.51452">
        <ele>710.2</ele>
        <time>2021-09-07T12:07:55Z</time>
      </trkpt>
      <trkpt lat="44.46809" lon="5.51452">
        <ele>710.2</ele>
        <time>2021-09-07T12:07:56Z</time>
      </trkpt>
      <trkpt lat="44.46809" lon="5.51452">
        <ele>710.2</ele>
        <time>2021-09-07T12:07:57Z</time>
      </trkpt>
      <trkpt lat="44.46809" lon="5.51452">
        <ele>710.2</ele>
        <time>2021-09-07T12:07:58Z</time>
      </trkpt>
      <trkpt lat="44.46809" lon="5.51452">
        <ele>710.2</ele>
        <time>2021-09-07T12:07:59Z</time>
      </trkpt>
      <trkpt lat="44.46809" lon="5.51452">
        <ele>710.2</ele>
        <time>2021-09-07T12:08:00Z</time>
      </trkpt>
      <trkpt lat="44.46809" lon="5.51452">
        <ele>710.2</ele>
        <time>2021-09-07T12:08:01Z</time>
      </trkpt>
      <trkpt lat="44.46809" lon="5.51452">
        <ele>710.2</ele>
        <time>2021-09-07T12:08:02Z</time>
      </trkpt>
      <trkpt lat="44.46809" lon="5.51452">
        <ele>710.2</ele>
        <time>2021-09-07T12:08:03Z</time>
      </trkpt>
      <trkpt lat="44.46809" lon="5.51452">
        <ele>710.2</ele>
        <time>2021-09-07T12:08:04Z</time>
      </trkpt>
      <trkpt lat="44.46809" lon="5.51452">
        <ele>710.2</ele>
        <time>2021-09-07T12:08:05Z</time>
      </trkpt>
      <trkpt lat="44.46809" lon="5.51452">
        <ele>710.2</ele>
        <time>2021-09-07T12:08:06Z</time>
      </trkpt>
      <trkpt lat="44.46809" lon="5.51452">
        <ele>710.2</ele>
        <time>2021-09-07T12:08:07Z</time>
      </trkpt>
      <trkpt lat="44.46809" lon="5.51452">
        <ele>710.2</ele>
        <time>2021-09-07T12:08:08Z</time>
      </trkpt>
      <trkpt lat="44.46809" lon="5.51452">
        <ele>710.2</ele>
        <time>2021-09-07T12:08:09Z</time>
      </trkpt>
      <trkpt lat="44.46809" lon="5.51452">
        <ele>710.2</ele>
        <time>2021-09-07T12:08:10Z</time>
      </trkpt>
      <trkpt lat="44.46809" lon="5.51452">
        <ele>710.2</ele>
        <time>2021-09-07T12:08:11Z</time>
      </trkpt>
      <trkpt lat="44.46809" lon="5.51452">
        <ele>710.2</ele>
        <time>2021-09-07T12:08:12Z</time>
      </trkpt>
      <trkpt lat="44.46809" lon="5.51452">
        <ele>710.2</ele>
        <time>2021-09-07T12:08:13Z</time>
      </trkpt>
      <trkpt lat="44.46809" lon="5.51452">
        <ele>710.2</ele>
        <time>2021-09-07T12:08:14Z</time>
      </trkpt>
      <trkpt lat="44.46809" lon="5.51452">
        <ele>710.2</ele>
        <time>2021-09-07T12:08:15Z</time>
      </trkpt>
      <trkpt lat="44.46809" lon="5.51451">
        <ele>710.2</ele>
        <time>2021-09-07T12:08:16Z</time>
      </trkpt>
      <trkpt lat="44.46809" lon="5.51451">
        <ele>710.2</ele>
        <time>2021-09-07T12:08:17Z</time>
      </trkpt>
      <trkpt lat="44.46809" lon="5.51451">
        <ele>710.2</ele>
        <time>2021-09-07T12:08:18Z</time>
      </trkpt>
      <trkpt lat="44.46809" lon="5.51451">
        <ele>710.2</ele>
        <time>2021-09-07T12:08:19Z</time>
      </trkpt>
      <trkpt lat="44.46809" lon="5.51451">
        <ele>710.2</ele>
        <time>2021-09-07T12:08:20Z</time>
      </trkpt>
      <trkpt lat="44.46809" lon="5.51451">
        <ele>710.2</ele>
        <time>2021-09-07T12:08:21Z</time>
      </trkpt>
      <trkpt lat="44.46809" lon="5.51451">
        <ele>710.2</ele>
        <time>2021-09-07T12:08:22Z</time>
      </trkpt>
      <trkpt lat="44.46809" lon="5.51451">
        <ele>710.2</ele>
        <time>2021-09-07T12:08:23Z</time>
      </trkpt>
      <trkpt lat="44.46809" lon="5.51451">
        <ele>710.2</ele>
        <time>2021-09-07T12:08:24Z</time>
      </trkpt>
      <trkpt lat="44.46809" lon="5.51451">
        <ele>710.2</ele>
        <time>2021-09-07T12:08:25Z</time>
      </trkpt>
      <trkpt lat="44.46809" lon="5.51451">
        <ele>710.2</ele>
        <time>2021-09-07T12:08:26Z</time>
      </trkpt>
      <trkpt lat="44.46809" lon="5.51451">
        <ele>710.2</ele>
        <time>2021-09-07T12:08:27Z</time>
      </trkpt>
      <trkpt lat="44.46809" lon="5.51451">
        <ele>710.2</ele>
        <time>2021-09-07T12:08:28Z</time>
      </trkpt>
      <trkpt lat="44.46809" lon="5.51451">
        <ele>710.2</ele>
        <time>2021-09-07T12:08:29Z</time>
      </trkpt>
      <trkpt lat="44.46809" lon="5.51451">
        <ele>710.2</ele>
        <time>2021-09-07T12:08:30Z</time>
      </trkpt>
      <trkpt lat="44.46809" lon="5.51451">
        <ele>710.2</ele>
        <time>2021-09-07T12:08:31Z</time>
      </trkpt>
      <trkpt lat="44.46809" lon="5.51451">
        <ele>710.2</ele>
        <time>2021-09-07T12:08:32Z</time>
      </trkpt>
      <trkpt lat="44.46809" lon="5.51451">
        <ele>710.2</ele>
        <time>2021-09-07T12:08:33Z</time>
      </trkpt>
      <trkpt lat="44.46809" lon="5.51451">
        <ele>710.2</ele>
        <time>2021-09-07T12:08:34Z</time>
      </trkpt>
      <trkpt lat="44.46809" lon="5.51451">
        <ele>710.2</ele>
        <time>2021-09-07T12:08:35Z</time>
      </trkpt>
      <trkpt lat="44.46809" lon="5.51451">
        <ele>710.2</ele>
        <time>2021-09-07T12:08:36Z</time>
      </trkpt>
      <trkpt lat="44.46809" lon="5.51451">
        <ele>710.2</ele>
        <time>2021-09-07T12:08:37Z</time>
      </trkpt>
      <trkpt lat="44.46809" lon="5.51451">
        <ele>710.2</ele>
        <time>2021-09-07T12:08:38Z</time>
      </trkpt>
      <trkpt lat="44.46809" lon="5.51451">
        <ele>710.2</ele>
        <time>2021-09-07T12:08:39Z</time>
      </trkpt>
      <trkpt lat="44.46809" lon="5.51451">
        <ele>710.2</ele>
        <time>2021-09-07T12:08:40Z</time>
      </trkpt>
      <trkpt lat="44.46809" lon="5.51451">
        <ele>710.2</ele>
        <time>2021-09-07T12:08:41Z</time>
      </trkpt>
      <trkpt lat="44.46809" lon="5.51451">
        <ele>710.2</ele>
        <time>2021-09-07T12:08:42Z</time>
      </trkpt>
      <trkpt lat="44.46809" lon="5.51451">
        <ele>710.2</ele>
        <time>2021-09-07T12:08:43Z</time>
      </trkpt>
      <trkpt lat="44.46809" lon="5.51451">
        <ele>710.2</ele>
        <time>2021-09-07T12:08:44Z</time>
      </trkpt>
      <trkpt lat="44.46809" lon="5.51451">
        <ele>710.2</ele>
        <time>2021-09-07T12:08:45Z</time>
      </trkpt>
      <trkpt lat="44.46809" lon="5.51451">
        <ele>710.2</ele>
        <time>2021-09-07T12:08:46Z</time>
      </trkpt>
      <trkpt lat="44.46809" lon="5.51451">
        <ele>710.2</ele>
        <time>2021-09-07T12:08:47Z</time>
      </trkpt>
      <trkpt lat="44.46809" lon="5.51451">
        <ele>710.2</ele>
        <time>2021-09-07T12:08:48Z</time>
      </trkpt>
      <trkpt lat="44.46809" lon="5.51451">
        <ele>710.2</ele>
        <time>2021-09-07T12:08:49Z</time>
      </trkpt>
      <trkpt lat="44.46809" lon="5.51451">
        <ele>710.2</ele>
        <time>2021-09-07T12:08:50Z</time>
      </trkpt>
      <trkpt lat="44.46809" lon="5.51451">
        <ele>710.2</ele>
        <time>2021-09-07T12:08:51Z</time>
      </trkpt>
      <trkpt lat="44.46809" lon="5.51451">
        <ele>710.2</ele>
        <time>2021-09-07T12:08:52Z</time>
      </trkpt>
      <trkpt lat="44.46809" lon="5.51451">
        <ele>710.2</ele>
        <time>2021-09-07T12:08:53Z</time>
      </trkpt>
      <trkpt lat="44.46809" lon="5.51451">
        <ele>710.2</ele>
        <time>2021-09-07T12:08:54Z</time>
      </trkpt>
      <trkpt lat="44.46809" lon="5.51451">
        <ele>710.2</ele>
        <time>2021-09-07T12:08:55Z</time>
      </trkpt>
      <trkpt lat="44.46809" lon="5.51451">
        <ele>710.2</ele>
        <time>2021-09-07T12:08:56Z</time>
      </trkpt>
      <trkpt lat="44.46809" lon="5.51451">
        <ele>710.2</ele>
        <time>2021-09-07T12:08:57Z</time>
      </trkpt>
      <trkpt lat="44.46809" lon="5.51451">
        <ele>710.2</ele>
        <time>2021-09-07T12:08:58Z</time>
      </trkpt>
      <trkpt lat="44.46809" lon="5.51451">
        <ele>710.2</ele>
        <time>2021-09-07T12:08:59Z</time>
      </trkpt>
      <trkpt lat="44.46809" lon="5.51451">
        <ele>710.2</ele>
        <time>2021-09-07T12:09:00Z</time>
      </trkpt>
      <trkpt lat="44.46809" lon="5.51451">
        <ele>710.2</ele>
        <time>2021-09-07T12:09:01Z</time>
      </trkpt>
      <trkpt lat="44.46809" lon="5.51451">
        <ele>710.2</ele>
        <time>2021-09-07T12:09:02Z</time>
      </trkpt>
      <trkpt lat="44.46809" lon="5.51451">
        <ele>710.2</ele>
        <time>2021-09-07T12:09:03Z</time>
      </trkpt>
      <trkpt lat="44.46809" lon="5.51451">
        <ele>710.2</ele>
        <time>2021-09-07T12:09:04Z</time>
      </trkpt>
      <trkpt lat="44.46809" lon="5.51451">
        <ele>710.2</ele>
        <time>2021-09-07T12:09:05Z</time>
      </trkpt>
      <trkpt lat="44.46809" lon="5.51451">
        <ele>710.2</ele>
        <time>2021-09-07T12:09:06Z</time>
      </trkpt>
      <trkpt lat="44.46809" lon="5.51451">
        <ele>710.2</ele>
        <time>2021-09-07T12:09:07Z</time>
      </trkpt>
      <trkpt lat="44.46809" lon="5.51451">
        <ele>710.2</ele>
        <time>2021-09-07T12:09:08Z</time>
      </trkpt>
      <trkpt lat="44.46809" lon="5.51451">
        <ele>710.1</ele>
        <time>2021-09-07T12:09:09Z</time>
      </trkpt>
      <trkpt lat="44.46809" lon="5.51451">
        <ele>710.1</ele>
        <time>2021-09-07T12:09:10Z</time>
      </trkpt>
      <trkpt lat="44.46809" lon="5.51451">
        <ele>710</ele>
        <time>2021-09-07T12:09:11Z</time>
      </trkpt>
      <trkpt lat="44.46809" lon="5.51451">
        <ele>710</ele>
        <time>2021-09-07T12:09:12Z</time>
      </trkpt>
      <trkpt lat="44.46809" lon="5.51451">
        <ele>709.9</ele>
        <time>2021-09-07T12:09:13Z</time>
      </trkpt>
      <trkpt lat="44.46809" lon="5.51451">
        <ele>709.9</ele>
        <time>2021-09-07T12:09:14Z</time>
      </trkpt>
      <trkpt lat="44.46809" lon="5.51451">
        <ele>709.9</ele>
        <time>2021-09-07T12:09:15Z</time>
      </trkpt>
      <trkpt lat="44.46809" lon="5.51451">
        <ele>709.8</ele>
        <time>2021-09-07T12:09:16Z</time>
      </trkpt>
      <trkpt lat="44.46809" lon="5.51451">
        <ele>709.8</ele>
        <time>2021-09-07T12:09:17Z</time>
      </trkpt>
      <trkpt lat="44.46809" lon="5.51451">
        <ele>709.7</ele>
        <time>2021-09-07T12:09:18Z</time>
      </trkpt>
      <trkpt lat="44.46809" lon="5.51451">
        <ele>709.7</ele>
        <time>2021-09-07T12:09:19Z</time>
      </trkpt>
      <trkpt lat="44.46809" lon="5.51451">
        <ele>709.7</ele>
        <time>2021-09-07T12:09:20Z</time>
      </trkpt>
      <trkpt lat="44.46809" lon="5.51451">
        <ele>709.6</ele>
        <time>2021-09-07T12:09:21Z</time>
      </trkpt>
      <trkpt lat="44.46809" lon="5.51451">
        <ele>709.6</ele>
        <time>2021-09-07T12:09:22Z</time>
      </trkpt>
      <trkpt lat="44.46809" lon="5.51451">
        <ele>709.5</ele>
        <time>2021-09-07T12:09:23Z</time>
      </trkpt>
      <trkpt lat="44.46809" lon="5.51451">
        <ele>709.5</ele>
        <time>2021-09-07T12:09:24Z</time>
      </trkpt>
      <trkpt lat="44.46809" lon="5.51451">
        <ele>709.4</ele>
        <time>2021-09-07T12:09:25Z</time>
      </trkpt>
      <trkpt lat="44.46809" lon="5.51451">
        <ele>709.4</ele>
        <time>2021-09-07T12:09:26Z</time>
      </trkpt>
      <trkpt lat="44.46809" lon="5.51451">
        <ele>709.4</ele>
        <time>2021-09-07T12:09:27Z</time>
      </trkpt>
      <trkpt lat="44.46809" lon="5.51451">
        <ele>709.3</ele>
        <time>2021-09-07T12:09:28Z</time>
      </trkpt>
      <trkpt lat="44.46809" lon="5.51451">
        <ele>709.3</ele>
        <time>2021-09-07T12:09:29Z</time>
      </trkpt>
      <trkpt lat="44.46809" lon="5.51451">
        <ele>709.2</ele>
        <time>2021-09-07T12:09:30Z</time>
      </trkpt>
      <trkpt lat="44.46809" lon="5.51451">
        <ele>709.2</ele>
        <time>2021-09-07T12:09:31Z</time>
      </trkpt>
      <trkpt lat="44.46809" lon="5.51451">
        <ele>709.2</ele>
        <time>2021-09-07T12:09:32Z</time>
      </trkpt>
      <trkpt lat="44.4681" lon="5.51451">
        <ele>709.1</ele>
        <time>2021-09-07T12:09:33Z</time>
      </trkpt>
      <trkpt lat="44.4681" lon="5.51451">
        <ele>709.1</ele>
        <time>2021-09-07T12:09:34Z</time>
      </trkpt>
      <trkpt lat="44.4681" lon="5.51451">
        <ele>709</ele>
        <time>2021-09-07T12:09:35Z</time>
      </trkpt>
      <trkpt lat="44.4681" lon="5.51451">
        <ele>709</ele>
        <time>2021-09-07T12:09:36Z</time>
      </trkpt>
      <trkpt lat="44.4681" lon="5.51451">
        <ele>708.9</ele>
        <time>2021-09-07T12:09:37Z</time>
      </trkpt>
      <trkpt lat="44.4681" lon="5.51451">
        <ele>708.9</ele>
        <time>2021-09-07T12:09:38Z</time>
      </trkpt>
      <trkpt lat="44.4681" lon="5.51451">
        <ele>708.9</ele>
        <time>2021-09-07T12:09:39Z</time>
      </trkpt>
      <trkpt lat="44.4681" lon="5.51451">
        <ele>708.8</ele>
        <time>2021-09-07T12:09:40Z</time>
      </trkpt>
      <trkpt lat="44.4681" lon="5.51451">
        <ele>708.8</ele>
        <time>2021-09-07T12:09:41Z</time>
      </trkpt>
      <trkpt lat="44.4681" lon="5.51451">
        <ele>708.7</ele>
        <time>2021-09-07T12:09:42Z</time>
      </trkpt>
      <trkpt lat="44.4681" lon="5.51451">
        <ele>708.7</ele>
        <time>2021-09-07T12:09:43Z</time>
      </trkpt>
      <trkpt lat="44.4681" lon="5.51451">
        <ele>708.6</ele>
        <time>2021-09-07T12:09:44Z</time>
      </trkpt>
      <trkpt lat="44.4681" lon="5.51451">
        <ele>708.6</ele>
        <time>2021-09-07T12:09:45Z</time>
      </trkpt>
      <trkpt lat="44.4681" lon="5.51451">
        <ele>708.6</ele>
        <time>2021-09-07T12:09:46Z</time>
      </trkpt>
      <trkpt lat="44.4681" lon="5.51451">
        <ele>708.5</ele>
        <time>2021-09-07T12:09:47Z</time>
      </trkpt>
      <trkpt lat="44.4681" lon="5.51451">
        <ele>708.5</ele>
        <time>2021-09-07T12:09:48Z</time>
      </trkpt>
      <trkpt lat="44.4681" lon="5.51451">
        <ele>708.4</ele>
        <time>2021-09-07T12:09:49Z</time>
      </trkpt>
      <trkpt lat="44.4681" lon="5.51451">
        <ele>708.4</ele>
        <time>2021-09-07T12:09:50Z</time>
      </trkpt>
      <trkpt lat="44.4681" lon="5.51451">
        <ele>708.4</ele>
        <time>2021-09-07T12:09:51Z</time>
      </trkpt>
      <trkpt lat="44.4681" lon="5.51451">
        <ele>708.3</ele>
        <time>2021-09-07T12:09:52Z</time>
      </trkpt>
      <trkpt lat="44.4681" lon="5.51451">
        <ele>708.3</ele>
        <time>2021-09-07T12:09:53Z</time>
      </trkpt>
      <trkpt lat="44.4681" lon="5.51451">
        <ele>708.2</ele>
        <time>2021-09-07T12:09:54Z</time>
      </trkpt>
      <trkpt lat="44.4681" lon="5.51451">
        <ele>708.2</ele>
        <time>2021-09-07T12:09:55Z</time>
      </trkpt>
      <trkpt lat="44.4681" lon="5.51451">
        <ele>708.1</ele>
        <time>2021-09-07T12:09:56Z</time>
      </trkpt>
      <trkpt lat="44.4681" lon="5.51451">
        <ele>708.1</ele>
        <time>2021-09-07T12:09:57Z</time>
      </trkpt>
      <trkpt lat="44.4681" lon="5.51451">
        <ele>708.1</ele>
        <time>2021-09-07T12:09:58Z</time>
      </trkpt>
      <trkpt lat="44.4681" lon="5.51451">
        <ele>708</ele>
        <time>2021-09-07T12:09:59Z</time>
      </trkpt>
      <trkpt lat="44.4681" lon="5.51451">
        <ele>708</ele>
        <time>2021-09-07T12:10:00Z</time>
      </trkpt>
      <trkpt lat="44.4681" lon="5.51451">
        <ele>707.9</ele>
        <time>2021-09-07T12:10:01Z</time>
      </trkpt>
      <trkpt lat="44.4681" lon="5.51451">
        <ele>707.9</ele>
        <time>2021-09-07T12:10:02Z</time>
      </trkpt>
      <trkpt lat="44.4681" lon="5.51451">
        <ele>707.8</ele>
        <time>2021-09-07T12:10:03Z</time>
      </trkpt>
      <trkpt lat="44.4681" lon="5.51451">
        <ele>707.8</ele>
        <time>2021-09-07T12:10:04Z</time>
      </trkpt>
      <trkpt lat="44.4681" lon="5.51451">
        <ele>707.8</ele>
        <time>2021-09-07T12:10:05Z</time>
      </trkpt>
      <trkpt lat="44.4681" lon="5.51451">
        <ele>707.7</ele>
        <time>2021-09-07T12:10:06Z</time>
      </trkpt>
      <trkpt lat="44.4681" lon="5.51451">
        <ele>707.7</ele>
        <time>2021-09-07T12:10:07Z</time>
      </trkpt>
      <trkpt lat="44.4681" lon="5.51451">
        <ele>707.6</ele>
        <time>2021-09-07T12:10:08Z</time>
      </trkpt>
      <trkpt lat="44.4681" lon="5.51451">
        <ele>707.6</ele>
        <time>2021-09-07T12:10:09Z</time>
      </trkpt>
      <trkpt lat="44.4681" lon="5.51451">
        <ele>707.6</ele>
        <time>2021-09-07T12:10:10Z</time>
      </trkpt>
      <trkpt lat="44.4681" lon="5.51451">
        <ele>707.5</ele>
        <time>2021-09-07T12:10:11Z</time>
      </trkpt>
      <trkpt lat="44.4681" lon="5.51451">
        <ele>707.5</ele>
        <time>2021-09-07T12:10:12Z</time>
      </trkpt>
      <trkpt lat="44.4681" lon="5.51451">
        <ele>707.4</ele>
        <time>2021-09-07T12:10:13Z</time>
      </trkpt>
      <trkpt lat="44.4681" lon="5.51451">
        <ele>707.4</ele>
        <time>2021-09-07T12:10:14Z</time>
      </trkpt>
      <trkpt lat="44.4681" lon="5.51451">
        <ele>707.3</ele>
        <time>2021-09-07T12:10:15Z</time>
      </trkpt>
      <trkpt lat="44.4681" lon="5.51451">
        <ele>707.3</ele>
        <time>2021-09-07T12:10:16Z</time>
      </trkpt>
      <trkpt lat="44.4681" lon="5.51451">
        <ele>707.3</ele>
        <time>2021-09-07T12:10:17Z</time>
      </trkpt>
      <trkpt lat="44.4681" lon="5.51451">
        <ele>707.2</ele>
        <time>2021-09-07T12:10:18Z</time>
      </trkpt>
      <trkpt lat="44.4681" lon="5.51451">
        <ele>707.2</ele>
        <time>2021-09-07T12:10:19Z</time>
      </trkpt>
      <trkpt lat="44.4681" lon="5.51451">
        <ele>707.1</ele>
        <time>2021-09-07T12:10:20Z</time>
      </trkpt>
      <trkpt lat="44.4681" lon="5.5145">
        <ele>707.1</ele>
        <time>2021-09-07T12:10:21Z</time>
      </trkpt>
      <trkpt lat="44.4681" lon="5.5145">
        <ele>707.1</ele>
        <time>2021-09-07T12:10:22Z</time>
      </trkpt>
      <trkpt lat="44.4681" lon="5.5145">
        <ele>707</ele>
        <time>2021-09-07T12:10:23Z</time>
      </trkpt>
      <trkpt lat="44.4681" lon="5.5145">
        <ele>707</ele>
        <time>2021-09-07T12:10:24Z</time>
      </trkpt>
      <trkpt lat="44.4681" lon="5.5145">
        <ele>706.9</ele>
        <time>2021-09-07T12:10:25Z</time>
      </trkpt>
      <trkpt lat="44.4681" lon="5.5145">
        <ele>706.9</ele>
        <time>2021-09-07T12:10:26Z</time>
      </trkpt>
      <trkpt lat="44.4681" lon="5.5145">
        <ele>706.8</ele>
        <time>2021-09-07T12:10:27Z</time>
      </trkpt>
      <trkpt lat="44.4681" lon="5.5145">
        <ele>706.8</ele>
        <time>2021-09-07T12:10:28Z</time>
      </trkpt>
      <trkpt lat="44.4681" lon="5.5145">
        <ele>706.8</ele>
        <time>2021-09-07T12:10:29Z</time>
      </trkpt>
      <trkpt lat="44.4681" lon="5.5145">
        <ele>706.7</ele>
        <time>2021-09-07T12:10:30Z</time>
      </trkpt>
      <trkpt lat="44.4681" lon="5.5145">
        <ele>706.7</ele>
        <time>2021-09-07T12:10:31Z</time>
      </trkpt>
      <trkpt lat="44.4681" lon="5.5145">
        <ele>706.6</ele>
        <time>2021-09-07T12:10:32Z</time>
      </trkpt>
      <trkpt lat="44.4681" lon="5.5145">
        <ele>706.6</ele>
        <time>2021-09-07T12:10:33Z</time>
      </trkpt>
      <trkpt lat="44.4681" lon="5.5145">
        <ele>706.5</ele>
        <time>2021-09-07T12:10:34Z</time>
      </trkpt>
      <trkpt lat="44.4681" lon="5.5145">
        <ele>706.5</ele>
        <time>2021-09-07T12:10:35Z</time>
      </trkpt>
      <trkpt lat="44.4681" lon="5.5145">
        <ele>706.5</ele>
        <time>2021-09-07T12:10:36Z</time>
      </trkpt>
      <trkpt lat="44.4681" lon="5.5145">
        <ele>706.4</ele>
        <time>2021-09-07T12:10:37Z</time>
      </trkpt>
      <trkpt lat="44.4681" lon="5.5145">
        <ele>706.4</ele>
        <time>2021-09-07T12:10:38Z</time>
      </trkpt>
      <trkpt lat="44.4681" lon="5.5145">
        <ele>706.3</ele>
        <time>2021-09-07T12:10:39Z</time>
      </trkpt>
      <trkpt lat="44.4681" lon="5.5145">
        <ele>706.3</ele>
        <time>2021-09-07T12:10:40Z</time>
      </trkpt>
      <trkpt lat="44.4681" lon="5.5145">
        <ele>706.3</ele>
        <time>2021-09-07T12:10:41Z</time>
      </trkpt>
      <trkpt lat="44.4681" lon="5.5145">
        <ele>706.2</ele>
        <time>2021-09-07T12:10:42Z</time>
      </trkpt>
      <trkpt lat="44.4681" lon="5.5145">
        <ele>706.2</ele>
        <time>2021-09-07T12:10:43Z</time>
      </trkpt>
      <trkpt lat="44.4681" lon="5.5145">
        <ele>706.1</ele>
        <time>2021-09-07T12:10:44Z</time>
      </trkpt>
      <trkpt lat="44.4681" lon="5.5145">
        <ele>706.1</ele>
        <time>2021-09-07T12:10:45Z</time>
      </trkpt>
      <trkpt lat="44.4681" lon="5.5145">
        <ele>706</ele>
        <time>2021-09-07T12:10:46Z</time>
      </trkpt>
      <trkpt lat="44.4681" lon="5.5145">
        <ele>706</ele>
        <time>2021-09-07T12:10:47Z</time>
      </trkpt>
      <trkpt lat="44.4681" lon="5.5145">
        <ele>706</ele>
        <time>2021-09-07T12:10:48Z</time>
      </trkpt>
      <trkpt lat="44.4681" lon="5.5145">
        <ele>706</ele>
        <time>2021-09-07T12:10:49Z</time>
      </trkpt>
      <trkpt lat="44.4681" lon="5.5145">
        <ele>706</ele>
        <time>2021-09-07T12:10:50Z</time>
      </trkpt>
      <trkpt lat="44.4681" lon="5.5145">
        <ele>706</ele>
        <time>2021-09-07T12:10:51Z</time>
      </trkpt>
      <trkpt lat="44.4681" lon="5.5145">
        <ele>706</ele>
        <time>2021-09-07T12:10:52Z</time>
      </trkpt>
      <trkpt lat="44.4681" lon="5.5145">
        <ele>706</ele>
        <time>2021-09-07T12:10:53Z</time>
      </trkpt>
      <trkpt lat="44.4681" lon="5.5145">
        <ele>706</ele>
        <time>2021-09-07T12:10:54Z</time>
      </trkpt>
      <trkpt lat="44.4681" lon="5.5145">
        <ele>706</ele>
        <time>2021-09-07T12:10:55Z</time>
      </trkpt>
      <trkpt lat="44.4681" lon="5.5145">
        <ele>706</ele>
        <time>2021-09-07T12:10:56Z</time>
      </trkpt>
      <trkpt lat="44.4681" lon="5.5145">
        <ele>706</ele>
        <time>2021-09-07T12:10:57Z</time>
      </trkpt>
      <trkpt lat="44.4681" lon="5.5145">
        <ele>706</ele>
        <time>2021-09-07T12:10:58Z</time>
      </trkpt>
      <trkpt lat="44.4681" lon="5.5145">
        <ele>706</ele>
        <time>2021-09-07T12:10:59Z</time>
      </trkpt>
      <trkpt lat="44.4681" lon="5.5145">
        <ele>706</ele>
        <time>2021-09-07T12:11:00Z</time>
      </trkpt>
      <trkpt lat="44.4681" lon="5.5145">
        <ele>706</ele>
        <time>2021-09-07T12:11:01Z</time>
      </trkpt>
      <trkpt lat="44.4681" lon="5.5145">
        <ele>706</ele>
        <time>2021-09-07T12:11:02Z</time>
      </trkpt>
      <trkpt lat="44.4681" lon="5.5145">
        <ele>706</ele>
        <time>2021-09-07T12:11:03Z</time>
      </trkpt>
      <trkpt lat="44.4681" lon="5.5145">
        <ele>706</ele>
        <time>2021-09-07T12:11:04Z</time>
      </trkpt>
      <trkpt lat="44.4681" lon="5.5145">
        <ele>706</ele>
        <time>2021-09-07T12:11:05Z</time>
      </trkpt>
      <trkpt lat="44.4681" lon="5.5145">
        <ele>706</ele>
        <time>2021-09-07T12:11:06Z</time>
      </trkpt>
      <trkpt lat="44.4681" lon="5.5145">
        <ele>706</ele>
        <time>2021-09-07T12:11:07Z</time>
      </trkpt>
      <trkpt lat="44.4681" lon="5.5145">
        <ele>706</ele>
        <time>2021-09-07T12:11:08Z</time>
      </trkpt>
      <trkpt lat="44.4681" lon="5.5145">
        <ele>706</ele>
        <time>2021-09-07T12:11:09Z</time>
      </trkpt>
      <trkpt lat="44.4681" lon="5.5145">
        <ele>706</ele>
        <time>2021-09-07T12:11:10Z</time>
      </trkpt>
      <trkpt lat="44.4681" lon="5.5145">
        <ele>706</ele>
        <time>2021-09-07T12:11:11Z</time>
      </trkpt>
      <trkpt lat="44.4681" lon="5.5145">
        <ele>706</ele>
        <time>2021-09-07T12:11:12Z</time>
      </trkpt>
      <trkpt lat="44.4681" lon="5.5145">
        <ele>706</ele>
        <time>2021-09-07T12:11:13Z</time>
      </trkpt>
      <trkpt lat="44.4681" lon="5.5145">
        <ele>706</ele>
        <time>2021-09-07T12:11:14Z</time>
      </trkpt>
      <trkpt lat="44.4681" lon="5.5145">
        <ele>706</ele>
        <time>2021-09-07T12:11:15Z</time>
      </trkpt>
      <trkpt lat="44.4681" lon="5.5145">
        <ele>706</ele>
        <time>2021-09-07T12:11:16Z</time>
      </trkpt>
      <trkpt lat="44.4681" lon="5.5145">
        <ele>706</ele>
        <time>2021-09-07T12:11:17Z</time>
      </trkpt>
      <trkpt lat="44.4681" lon="5.5145">
        <ele>706</ele>
        <time>2021-09-07T12:11:18Z</time>
      </trkpt>
      <trkpt lat="44.4681" lon="5.5145">
        <ele>706</ele>
        <time>2021-09-07T12:11:19Z</time>
      </trkpt>
      <trkpt lat="44.4681" lon="5.5145">
        <ele>706</ele>
        <time>2021-09-07T12:11:20Z</time>
      </trkpt>
      <trkpt lat="44.4681" lon="5.5145">
        <ele>706</ele>
        <time>2021-09-07T12:11:21Z</time>
      </trkpt>
      <trkpt lat="44.4681" lon="5.5145">
        <ele>706</ele>
        <time>2021-09-07T12:11:22Z</time>
      </trkpt>
      <trkpt lat="44.4681" lon="5.5145">
        <ele>706</ele>
        <time>2021-09-07T12:11:23Z</time>
      </trkpt>
      <trkpt lat="44.4681" lon="5.5145">
        <ele>706</ele>
        <time>2021-09-07T12:11:24Z</time>
      </trkpt>
      <trkpt lat="44.4681" lon="5.5145">
        <ele>706</ele>
        <time>2021-09-07T12:11:25Z</time>
      </trkpt>
      <trkpt lat="44.4681" lon="5.5145">
        <ele>706</ele>
        <time>2021-09-07T12:11:26Z</time>
      </trkpt>
      <trkpt lat="44.4681" lon="5.5145">
        <ele>706</ele>
        <time>2021-09-07T12:11:27Z</time>
      </trkpt>
      <trkpt lat="44.4681" lon="5.5145">
        <ele>706</ele>
        <time>2021-09-07T12:11:28Z</time>
      </trkpt>
      <trkpt lat="44.4681" lon="5.5145">
        <ele>706</ele>
        <time>2021-09-07T12:11:29Z</time>
      </trkpt>
      <trkpt lat="44.4681" lon="5.5145">
        <ele>706</ele>
        <time>2021-09-07T12:11:30Z</time>
      </trkpt>
      <trkpt lat="44.4681" lon="5.5145">
        <ele>706</ele>
        <time>2021-09-07T12:11:31Z</time>
      </trkpt>
      <trkpt lat="44.4681" lon="5.5145">
        <ele>706</ele>
        <time>2021-09-07T12:11:32Z</time>
      </trkpt>
      <trkpt lat="44.4681" lon="5.5145">
        <ele>706</ele>
        <time>2021-09-07T12:11:33Z</time>
      </trkpt>
      <trkpt lat="44.4681" lon="5.5145">
        <ele>706</ele>
        <time>2021-09-07T12:11:34Z</time>
      </trkpt>
      <trkpt lat="44.4681" lon="5.5145">
        <ele>706</ele>
        <time>2021-09-07T12:11:35Z</time>
      </trkpt>
      <trkpt lat="44.4681" lon="5.5145">
        <ele>706</ele>
        <time>2021-09-07T12:11:36Z</time>
      </trkpt>
      <trkpt lat="44.4681" lon="5.5145">
        <ele>706</ele>
        <time>2021-09-07T12:11:37Z</time>
      </trkpt>
      <trkpt lat="44.4681" lon="5.5145">
        <ele>706</ele>
        <time>2021-09-07T12:11:38Z</time>
      </trkpt>
      <trkpt lat="44.4681" lon="5.5145">
        <ele>706</ele>
        <time>2021-09-07T12:11:39Z</time>
      </trkpt>
      <trkpt lat="44.4681" lon="5.5145">
        <ele>706</ele>
        <time>2021-09-07T12:11:40Z</time>
      </trkpt>
      <trkpt lat="44.4681" lon="5.5145">
        <ele>706</ele>
        <time>2021-09-07T12:11:41Z</time>
      </trkpt>
      <trkpt lat="44.4681" lon="5.5145">
        <ele>706</ele>
        <time>2021-09-07T12:11:42Z</time>
      </trkpt>
      <trkpt lat="44.4681" lon="5.5145">
        <ele>706</ele>
        <time>2021-09-07T12:11:43Z</time>
      </trkpt>
      <trkpt lat="44.4681" lon="5.5145">
        <ele>706</ele>
        <time>2021-09-07T12:11:44Z</time>
      </trkpt>
      <trkpt lat="44.4681" lon="5.5145">
        <ele>706</ele>
        <time>2021-09-07T12:11:45Z</time>
      </trkpt>
      <trkpt lat="44.4681" lon="5.5145">
        <ele>706</ele>
        <time>2021-09-07T12:11:46Z</time>
      </trkpt>
      <trkpt lat="44.4681" lon="5.5145">
        <ele>706</ele>
        <time>2021-09-07T12:11:47Z</time>
      </trkpt>
      <trkpt lat="44.4681" lon="5.5145">
        <ele>706</ele>
        <time>2021-09-07T12:11:48Z</time>
      </trkpt>
      <trkpt lat="44.4681" lon="5.5145">
        <ele>706</ele>
        <time>2021-09-07T12:11:49Z</time>
      </trkpt>
      <trkpt lat="44.4681" lon="5.5145">
        <ele>706</ele>
        <time>2021-09-07T12:11:50Z</time>
      </trkpt>
      <trkpt lat="44.4681" lon="5.5145">
        <ele>706</ele>
        <time>2021-09-07T12:11:51Z</time>
      </trkpt>
      <trkpt lat="44.4681" lon="5.5145">
        <ele>706</ele>
        <time>2021-09-07T12:11:52Z</time>
      </trkpt>
      <trkpt lat="44.4681" lon="5.5145">
        <ele>706</ele>
        <time>2021-09-07T12:11:53Z</time>
      </trkpt>
      <trkpt lat="44.4681" lon="5.5145">
        <ele>706</ele>
        <time>2021-09-07T12:11:54Z</time>
      </trkpt>
      <trkpt lat="44.4681" lon="5.5145">
        <ele>706</ele>
        <time>2021-09-07T12:11:55Z</time>
      </trkpt>
      <trkpt lat="44.4681" lon="5.5145">
        <ele>706</ele>
        <time>2021-09-07T12:11:56Z</time>
      </trkpt>
      <trkpt lat="44.4681" lon="5.5145">
        <ele>706</ele>
        <time>2021-09-07T12:11:57Z</time>
      </trkpt>
      <trkpt lat="44.4681" lon="5.5145">
        <ele>706</ele>
        <time>2021-09-07T12:11:58Z</time>
      </trkpt>
      <trkpt lat="44.4681" lon="5.5145">
        <ele>706</ele>
        <time>2021-09-07T12:11:59Z</time>
      </trkpt>
      <trkpt lat="44.4681" lon="5.5145">
        <ele>706</ele>
        <time>2021-09-07T12:12:00Z</time>
      </trkpt>
      <trkpt lat="44.4681" lon="5.5145">
        <ele>706</ele>
        <time>2021-09-07T12:12:01Z</time>
      </trkpt>
      <trkpt lat="44.4681" lon="5.5145">
        <ele>706</ele>
        <time>2021-09-07T12:12:02Z</time>
      </trkpt>
      <trkpt lat="44.4681" lon="5.5145">
        <ele>706</ele>
        <time>2021-09-07T12:12:03Z</time>
      </trkpt>
      <trkpt lat="44.4681" lon="5.5145">
        <ele>706</ele>
        <time>2021-09-07T12:12:04Z</time>
      </trkpt>
      <trkpt lat="44.4681" lon="5.5145">
        <ele>706</ele>
        <time>2021-09-07T12:12:05Z</time>
      </trkpt>
      <trkpt lat="44.4681" lon="5.5145">
        <ele>706</ele>
        <time>2021-09-07T12:12:06Z</time>
      </trkpt>
      <trkpt lat="44.4681" lon="5.5145">
        <ele>706</ele>
        <time>2021-09-07T12:12:07Z</time>
      </trkpt>
      <trkpt lat="44.4681" lon="5.5145">
        <ele>706</ele>
        <time>2021-09-07T12:12:08Z</time>
      </trkpt>
      <trkpt lat="44.4681" lon="5.5145">
        <ele>706</ele>
        <time>2021-09-07T12:12:09Z</time>
      </trkpt>
      <trkpt lat="44.4681" lon="5.5145">
        <ele>706</ele>
        <time>2021-09-07T12:12:10Z</time>
      </trkpt>
      <trkpt lat="44.4681" lon="5.5145">
        <ele>706</ele>
        <time>2021-09-07T12:12:11Z</time>
      </trkpt>
      <trkpt lat="44.4681" lon="5.5145">
        <ele>706</ele>
        <time>2021-09-07T12:12:12Z</time>
      </trkpt>
      <trkpt lat="44.4681" lon="5.5145">
        <ele>706</ele>
        <time>2021-09-07T12:12:13Z</time>
      </trkpt>
      <trkpt lat="44.4681" lon="5.5145">
        <ele>706</ele>
        <time>2021-09-07T12:12:14Z</time>
      </trkpt>
      <trkpt lat="44.4681" lon="5.5145">
        <ele>706</ele>
        <time>2021-09-07T12:12:15Z</time>
      </trkpt>
      <trkpt lat="44.4681" lon="5.5145">
        <ele>706</ele>
        <time>2021-09-07T12:12:16Z</time>
      </trkpt>
      <trkpt lat="44.4681" lon="5.5145">
        <ele>706</ele>
        <time>2021-09-07T12:12:17Z</time>
      </trkpt>
      <trkpt lat="44.4681" lon="5.5145">
        <ele>706</ele>
        <time>2021-09-07T12:12:18Z</time>
      </trkpt>
      <trkpt lat="44.4681" lon="5.5145">
        <ele>706</ele>
        <time>2021-09-07T12:12:19Z</time>
      </trkpt>
      <trkpt lat="44.4681" lon="5.5145">
        <ele>706</ele>
        <time>2021-09-07T12:12:20Z</time>
      </trkpt>
      <trkpt lat="44.4681" lon="5.5145">
        <ele>706</ele>
        <time>2021-09-07T12:12:21Z</time>
      </trkpt>
      <trkpt lat="44.4681" lon="5.5145">
        <ele>706</ele>
        <time>2021-09-07T12:12:22Z</time>
      </trkpt>
      <trkpt lat="44.4681" lon="5.5145">
        <ele>706</ele>
        <time>2021-09-07T12:12:23Z</time>
      </trkpt>
      <trkpt lat="44.4681" lon="5.5145">
        <ele>706</ele>
        <time>2021-09-07T12:12:24Z</time>
      </trkpt>
      <trkpt lat="44.4681" lon="5.51449">
        <ele>706</ele>
        <time>2021-09-07T12:12:25Z</time>
      </trkpt>
      <trkpt lat="44.4681" lon="5.51449">
        <ele>706</ele>
        <time>2021-09-07T12:12:26Z</time>
      </trkpt>
      <trkpt lat="44.4681" lon="5.51449">
        <ele>706</ele>
        <time>2021-09-07T12:12:27Z</time>
      </trkpt>
      <trkpt lat="44.4681" lon="5.51449">
        <ele>706</ele>
        <time>2021-09-07T12:12:28Z</time>
      </trkpt>
      <trkpt lat="44.4681" lon="5.51449">
        <ele>706</ele>
        <time>2021-09-07T12:12:29Z</time>
      </trkpt>
      <trkpt lat="44.4681" lon="5.51449">
        <ele>706</ele>
        <time>2021-09-07T12:12:30Z</time>
      </trkpt>
      <trkpt lat="44.4681" lon="5.51449">
        <ele>706</ele>
        <time>2021-09-07T12:12:31Z</time>
      </trkpt>
      <trkpt lat="44.4681" lon="5.51449">
        <ele>706</ele>
        <time>2021-09-07T12:12:32Z</time>
      </trkpt>
      <trkpt lat="44.4681" lon="5.51449">
        <ele>706</ele>
        <time>2021-09-07T12:12:33Z</time>
      </trkpt>
      <trkpt lat="44.4681" lon="5.51449">
        <ele>706</ele>
        <time>2021-09-07T12:12:34Z</time>
      </trkpt>
      <trkpt lat="44.4681" lon="5.51449">
        <ele>706</ele>
        <time>2021-09-07T12:12:35Z</time>
      </trkpt>
      <trkpt lat="44.4681" lon="5.51449">
        <ele>706</ele>
        <time>2021-09-07T12:12:36Z</time>
      </trkpt>
      <trkpt lat="44.4681" lon="5.51449">
        <ele>706</ele>
        <time>2021-09-07T12:12:37Z</time>
      </trkpt>
      <trkpt lat="44.4681" lon="5.51449">
        <ele>706</ele>
        <time>2021-09-07T12:12:38Z</time>
      </trkpt>
      <trkpt lat="44.4681" lon="5.51449">
        <ele>706</ele>
        <time>2021-09-07T12:12:39Z</time>
      </trkpt>
      <trkpt lat="44.4681" lon="5.51449">
        <ele>706</ele>
        <time>2021-09-07T12:12:40Z</time>
      </trkpt>
      <trkpt lat="44.4681" lon="5.51449">
        <ele>706</ele>
        <time>2021-09-07T12:12:41Z</time>
      </trkpt>
      <trkpt lat="44.4681" lon="5.51449">
        <ele>706</ele>
        <time>2021-09-07T12:12:42Z</time>
      </trkpt>
      <trkpt lat="44.4681" lon="5.51449">
        <ele>706</ele>
        <time>2021-09-07T12:12:43Z</time>
      </trkpt>
      <trkpt lat="44.4681" lon="5.51449">
        <ele>706</ele>
        <time>2021-09-07T12:12:44Z</time>
      </trkpt>
      <trkpt lat="44.4681" lon="5.51449">
        <ele>706</ele>
        <time>2021-09-07T12:12:45Z</time>
      </trkpt>
      <trkpt lat="44.4681" lon="5.51449">
        <ele>706</ele>
        <time>2021-09-07T12:12:46Z</time>
      </trkpt>
      <trkpt lat="44.4681" lon="5.51449">
        <ele>706</ele>
        <time>2021-09-07T12:12:47Z</time>
      </trkpt>
      <trkpt lat="44.4681" lon="5.51449">
        <ele>706</ele>
        <time>2021-09-07T12:12:48Z</time>
      </trkpt>
      <trkpt lat="44.4681" lon="5.51449">
        <ele>706</ele>
        <time>2021-09-07T12:12:49Z</time>
      </trkpt>
      <trkpt lat="44.4681" lon="5.51449">
        <ele>706</ele>
        <time>2021-09-07T12:12:50Z</time>
      </trkpt>
      <trkpt lat="44.4681" lon="5.51449">
        <ele>706</ele>
        <time>2021-09-07T12:12:51Z</time>
      </trkpt>
      <trkpt lat="44.4681" lon="5.51449">
        <ele>706</ele>
        <time>2021-09-07T12:12:52Z</time>
      </trkpt>
      <trkpt lat="44.4681" lon="5.51449">
        <ele>706</ele>
        <time>2021-09-07T12:12:53Z</time>
      </trkpt>
      <trkpt lat="44.4681" lon="5.51449">
        <ele>706</ele>
        <time>2021-09-07T12:12:54Z</time>
      </trkpt>
      <trkpt lat="44.4681" lon="5.51449">
        <ele>706</ele>
        <time>2021-09-07T12:12:55Z</time>
      </trkpt>
      <trkpt lat="44.4681" lon="5.51449">
        <ele>706</ele>
        <time>2021-09-07T12:12:56Z</time>
      </trkpt>
      <trkpt lat="44.4681" lon="5.51449">
        <ele>706</ele>
        <time>2021-09-07T12:12:57Z</time>
      </trkpt>
      <trkpt lat="44.4681" lon="5.51449">
        <ele>706</ele>
        <time>2021-09-07T12:12:58Z</time>
      </trkpt>
      <trkpt lat="44.4681" lon="5.51449">
        <ele>706</ele>
        <time>2021-09-07T12:12:59Z</time>
      </trkpt>
      <trkpt lat="44.4681" lon="5.51449">
        <ele>706</ele>
        <time>2021-09-07T12:13:00Z</time>
      </trkpt>
      <trkpt lat="44.4681" lon="5.51449">
        <ele>706</ele>
        <time>2021-09-07T12:13:01Z</time>
      </trkpt>
      <trkpt lat="44.4681" lon="5.51449">
        <ele>706</ele>
        <time>2021-09-07T12:13:02Z</time>
      </trkpt>
      <trkpt lat="44.4681" lon="5.51449">
        <ele>706</ele>
        <time>2021-09-07T12:13:03Z</time>
      </trkpt>
      <trkpt lat="44.4681" lon="5.51449">
        <ele>706</ele>
        <time>2021-09-07T12:13:04Z</time>
      </trkpt>
      <trkpt lat="44.4681" lon="5.51449">
        <ele>706</ele>
        <time>2021-09-07T12:13:05Z</time>
      </trkpt>
      <trkpt lat="44.4681" lon="5.51449">
        <ele>706</ele>
        <time>2021-09-07T12:13:06Z</time>
      </trkpt>
      <trkpt lat="44.4681" lon="5.51449">
        <ele>706</ele>
        <time>2021-09-07T12:13:07Z</time>
      </trkpt>
      <trkpt lat="44.4681" lon="5.51449">
        <ele>706</ele>
        <time>2021-09-07T12:13:08Z</time>
      </trkpt>
      <trkpt lat="44.4681" lon="5.51449">
        <ele>706</ele>
        <time>2021-09-07T12:13:09Z</time>
      </trkpt>
      <trkpt lat="44.4681" lon="5.51449">
        <ele>706</ele>
        <time>2021-09-07T12:13:10Z</time>
      </trkpt>
      <trkpt lat="44.4681" lon="5.51449">
        <ele>706</ele>
        <time>2021-09-07T12:13:11Z</time>
      </trkpt>
      <trkpt lat="44.4681" lon="5.51449">
        <ele>706</ele>
        <time>2021-09-07T12:13:12Z</time>
      </trkpt>
      <trkpt lat="44.4681" lon="5.51449">
        <ele>706</ele>
        <time>2021-09-07T12:13:13Z</time>
      </trkpt>
      <trkpt lat="44.4681" lon="5.51449">
        <ele>706</ele>
        <time>2021-09-07T12:13:14Z</time>
      </trkpt>
      <trkpt lat="44.4681" lon="5.51449">
        <ele>706</ele>
        <time>2021-09-07T12:13:15Z</time>
      </trkpt>
      <trkpt lat="44.4681" lon="5.51449">
        <ele>706</ele>
        <time>2021-09-07T12:13:16Z</time>
      </trkpt>
      <trkpt lat="44.4681" lon="5.51449">
        <ele>706</ele>
        <time>2021-09-07T12:13:17Z</time>
      </trkpt>
      <trkpt lat="44.4681" lon="5.51449">
        <ele>706</ele>
        <time>2021-09-07T12:13:18Z</time>
      </trkpt>
      <trkpt lat="44.4681" lon="5.51449">
        <ele>706</ele>
        <time>2021-09-07T12:13:19Z</time>
      </trkpt>
      <trkpt lat="44.4681" lon="5.51449">
        <ele>706</ele>
        <time>2021-09-07T12:13:20Z</time>
      </trkpt>
      <trkpt lat="44.4681" lon="5.51449">
        <ele>706</ele>
        <time>2021-09-07T12:13:21Z</time>
      </trkpt>
      <trkpt lat="44.46811" lon="5.51447">
        <ele>706</ele>
        <time>2021-09-07T12:13:22Z</time>
      </trkpt>
      <trkpt lat="44.46812" lon="5.51445">
        <ele>706.1</ele>
        <time>2021-09-07T12:13:23Z</time>
      </trkpt>
      <trkpt lat="44.46813" lon="5.51445">
        <ele>706.1</ele>
        <time>2021-09-07T12:13:24Z</time>
      </trkpt>
      <trkpt lat="44.46813" lon="5.51444">
        <ele>706.1</ele>
        <time>2021-09-07T12:13:25Z</time>
      </trkpt>
      <trkpt lat="44.46813" lon="5.51444">
        <ele>706.1</ele>
        <time>2021-09-07T12:13:26Z</time>
      </trkpt>
      <trkpt lat="44.46813" lon="5.51444">
        <ele>706.1</ele>
        <time>2021-09-07T12:13:27Z</time>
      </trkpt>
      <trkpt lat="44.46813" lon="5.51444">
        <ele>706.1</ele>
        <time>2021-09-07T12:13:28Z</time>
      </trkpt>
      <trkpt lat="44.46813" lon="5.51444">
        <ele>706.1</ele>
        <time>2021-09-07T12:13:29Z</time>
      </trkpt>
      <trkpt lat="44.46813" lon="5.51444">
        <ele>706.1</ele>
        <time>2021-09-07T12:13:30Z</time>
      </trkpt>
      <trkpt lat="44.46813" lon="5.51444">
        <ele>706.1</ele>
        <time>2021-09-07T12:13:31Z</time>
      </trkpt>
      <trkpt lat="44.46813" lon="5.51444">
        <ele>706.1</ele>
        <time>2021-09-07T12:13:32Z</time>
      </trkpt>
      <trkpt lat="44.46813" lon="5.51444">
        <ele>706.1</ele>
        <time>2021-09-07T12:13:33Z</time>
      </trkpt>
      <trkpt lat="44.46813" lon="5.51444">
        <ele>706.1</ele>
        <time>2021-09-07T12:13:34Z</time>
      </trkpt>
      <trkpt lat="44.46813" lon="5.51444">
        <ele>706.1</ele>
        <time>2021-09-07T12:13:35Z</time>
      </trkpt>
      <trkpt lat="44.46813" lon="5.51444">
        <ele>706.1</ele>
        <time>2021-09-07T12:13:36Z</time>
      </trkpt>
      <trkpt lat="44.46813" lon="5.51444">
        <ele>706.1</ele>
        <time>2021-09-07T12:13:37Z</time>
      </trkpt>
      <trkpt lat="44.46813" lon="5.51444">
        <ele>706.1</ele>
        <time>2021-09-07T12:13:38Z</time>
      </trkpt>
      <trkpt lat="44.46813" lon="5.51444">
        <ele>706.1</ele>
        <time>2021-09-07T12:13:39Z</time>
      </trkpt>
      <trkpt lat="44.46813" lon="5.51444">
        <ele>706.1</ele>
        <time>2021-09-07T12:13:40Z</time>
      </trkpt>
      <trkpt lat="44.46813" lon="5.51444">
        <ele>706.1</ele>
        <time>2021-09-07T12:13:41Z</time>
      </trkpt>
      <trkpt lat="44.46813" lon="5.51444">
        <ele>706.1</ele>
        <time>2021-09-07T12:13:42Z</time>
      </trkpt>
      <trkpt lat="44.46813" lon="5.51444">
        <ele>706.1</ele>
        <time>2021-09-07T12:13:43Z</time>
      </trkpt>
      <trkpt lat="44.46813" lon="5.51444">
        <ele>706.1</ele>
        <time>2021-09-07T12:13:44Z</time>
      </trkpt>
      <trkpt lat="44.46813" lon="5.51444">
        <ele>706.1</ele>
        <time>2021-09-07T12:13:45Z</time>
      </trkpt>
      <trkpt lat="44.46813" lon="5.51444">
        <ele>706.1</ele>
        <time>2021-09-07T12:13:46Z</time>
      </trkpt>
      <trkpt lat="44.46813" lon="5.51444">
        <ele>706.1</ele>
        <time>2021-09-07T12:13:47Z</time>
      </trkpt>
      <trkpt lat="44.46813" lon="5.51444">
        <ele>706.1</ele>
        <time>2021-09-07T12:13:48Z</time>
      </trkpt>
      <trkpt lat="44.46813" lon="5.51444">
        <ele>706.1</ele>
        <time>2021-09-07T12:13:49Z</time>
      </trkpt>
      <trkpt lat="44.46813" lon="5.51444">
        <ele>706.1</ele>
        <time>2021-09-07T12:13:50Z</time>
      </trkpt>
      <trkpt lat="44.46813" lon="5.51444">
        <ele>706.1</ele>
        <time>2021-09-07T12:13:51Z</time>
      </trkpt>
      <trkpt lat="44.46813" lon="5.51444">
        <ele>706.1</ele>
        <time>2021-09-07T12:13:52Z</time>
      </trkpt>
      <trkpt lat="44.46813" lon="5.51444">
        <ele>706.1</ele>
        <time>2021-09-07T12:13:53Z</time>
      </trkpt>
      <trkpt lat="44.46813" lon="5.51444">
        <ele>706.1</ele>
        <time>2021-09-07T12:13:54Z</time>
      </trkpt>
      <trkpt lat="44.46813" lon="5.51444">
        <ele>706.1</ele>
        <time>2021-09-07T12:13:55Z</time>
      </trkpt>
      <trkpt lat="44.46813" lon="5.51444">
        <ele>706.1</ele>
        <time>2021-09-07T12:13:56Z</time>
      </trkpt>
      <trkpt lat="44.46813" lon="5.51444">
        <ele>706.1</ele>
        <time>2021-09-07T12:13:57Z</time>
      </trkpt>
      <trkpt lat="44.46813" lon="5.51444">
        <ele>706.1</ele>
        <time>2021-09-07T12:13:58Z</time>
      </trkpt>
      <trkpt lat="44.46813" lon="5.51444">
        <ele>706.1</ele>
        <time>2021-09-07T12:13:59Z</time>
      </trkpt>
      <trkpt lat="44.46813" lon="5.51444">
        <ele>706.1</ele>
        <time>2021-09-07T12:14:00Z</time>
      </trkpt>
      <trkpt lat="44.46813" lon="5.51444">
        <ele>706.1</ele>
        <time>2021-09-07T12:14:01Z</time>
      </trkpt>
      <trkpt lat="44.46813" lon="5.51444">
        <ele>706.1</ele>
        <time>2021-09-07T12:14:02Z</time>
      </trkpt>
      <trkpt lat="44.46813" lon="5.51444">
        <ele>706.1</ele>
        <time>2021-09-07T12:14:03Z</time>
      </trkpt>
      <trkpt lat="44.46813" lon="5.51444">
        <ele>706.1</ele>
        <time>2021-09-07T12:14:04Z</time>
      </trkpt>
      <trkpt lat="44.46813" lon="5.51444">
        <ele>706.1</ele>
        <time>2021-09-07T12:14:05Z</time>
      </trkpt>
      <trkpt lat="44.46813" lon="5.51444">
        <ele>706.1</ele>
        <time>2021-09-07T12:14:06Z</time>
      </trkpt>
      <trkpt lat="44.46813" lon="5.51444">
        <ele>706.1</ele>
        <time>2021-09-07T12:14:07Z</time>
      </trkpt>
      <trkpt lat="44.46813" lon="5.51444">
        <ele>706.1</ele>
        <time>2021-09-07T12:14:08Z</time>
      </trkpt>
      <trkpt lat="44.46813" lon="5.51444">
        <ele>706.1</ele>
        <time>2021-09-07T12:14:09Z</time>
      </trkpt>
      <trkpt lat="44.46813" lon="5.51444">
        <ele>706.1</ele>
        <time>2021-09-07T12:14:10Z</time>
      </trkpt>
      <trkpt lat="44.46813" lon="5.51444">
        <ele>706.1</ele>
        <time>2021-09-07T12:14:11Z</time>
      </trkpt>
      <trkpt lat="44.46813" lon="5.51444">
        <ele>706.1</ele>
        <time>2021-09-07T12:14:12Z</time>
      </trkpt>
      <trkpt lat="44.46813" lon="5.51444">
        <ele>706.1</ele>
        <time>2021-09-07T12:14:13Z</time>
      </trkpt>
      <trkpt lat="44.46813" lon="5.51444">
        <ele>706.1</ele>
        <time>2021-09-07T12:14:14Z</time>
      </trkpt>
      <trkpt lat="44.46813" lon="5.51444">
        <ele>706.1</ele>
        <time>2021-09-07T12:14:15Z</time>
      </trkpt>
      <trkpt lat="44.46813" lon="5.51444">
        <ele>706.1</ele>
        <time>2021-09-07T12:14:16Z</time>
      </trkpt>
      <trkpt lat="44.46813" lon="5.51444">
        <ele>706.1</ele>
        <time>2021-09-07T12:14:17Z</time>
      </trkpt>
      <trkpt lat="44.46813" lon="5.51444">
        <ele>706.1</ele>
        <time>2021-09-07T12:14:18Z</time>
      </trkpt>
      <trkpt lat="44.46813" lon="5.51444">
        <ele>706.1</ele>
        <time>2021-09-07T12:14:19Z</time>
      </trkpt>
      <trkpt lat="44.46813" lon="5.51444">
        <ele>706.1</ele>
        <time>2021-09-07T12:14:20Z</time>
      </trkpt>
      <trkpt lat="44.46813" lon="5.51444">
        <ele>706.1</ele>
        <time>2021-09-07T12:14:21Z</time>
      </trkpt>
      <trkpt lat="44.46813" lon="5.51444">
        <ele>706.1</ele>
        <time>2021-09-07T12:14:22Z</time>
      </trkpt>
      <trkpt lat="44.46813" lon="5.51444">
        <ele>706.1</ele>
        <time>2021-09-07T12:14:23Z</time>
      </trkpt>
      <trkpt lat="44.46813" lon="5.51444">
        <ele>706.1</ele>
        <time>2021-09-07T12:14:24Z</time>
      </trkpt>
      <trkpt lat="44.46813" lon="5.51444">
        <ele>706.1</ele>
        <time>2021-09-07T12:14:25Z</time>
      </trkpt>
      <trkpt lat="44.46813" lon="5.51444">
        <ele>706.1</ele>
        <time>2021-09-07T12:14:26Z</time>
      </trkpt>
      <trkpt lat="44.46813" lon="5.51444">
        <ele>706.1</ele>
        <time>2021-09-07T12:14:27Z</time>
      </trkpt>
      <trkpt lat="44.46813" lon="5.51444">
        <ele>706.1</ele>
        <time>2021-09-07T12:14:28Z</time>
      </trkpt>
      <trkpt lat="44.46813" lon="5.51444">
        <ele>706.1</ele>
        <time>2021-09-07T12:14:29Z</time>
      </trkpt>
      <trkpt lat="44.46813" lon="5.51444">
        <ele>706.1</ele>
        <time>2021-09-07T12:14:30Z</time>
      </trkpt>
      <trkpt lat="44.46813" lon="5.51444">
        <ele>706.1</ele>
        <time>2021-09-07T12:14:31Z</time>
      </trkpt>
      <trkpt lat="44.46813" lon="5.51444">
        <ele>706.1</ele>
        <time>2021-09-07T12:14:32Z</time>
      </trkpt>
      <trkpt lat="44.46813" lon="5.51444">
        <ele>706.1</ele>
        <time>2021-09-07T12:14:33Z</time>
      </trkpt>
      <trkpt lat="44.46813" lon="5.51444">
        <ele>706.1</ele>
        <time>2021-09-07T12:14:34Z</time>
      </trkpt>
      <trkpt lat="44.46813" lon="5.51444">
        <ele>706.1</ele>
        <time>2021-09-07T12:14:35Z</time>
      </trkpt>
      <trkpt lat="44.46813" lon="5.51444">
        <ele>706.1</ele>
        <time>2021-09-07T12:14:36Z</time>
      </trkpt>
      <trkpt lat="44.46813" lon="5.51444">
        <ele>706.1</ele>
        <time>2021-09-07T12:14:37Z</time>
      </trkpt>
      <trkpt lat="44.46813" lon="5.51444">
        <ele>706.1</ele>
        <time>2021-09-07T12:14:38Z</time>
      </trkpt>
      <trkpt lat="44.46813" lon="5.51444">
        <ele>706.1</ele>
        <time>2021-09-07T12:14:39Z</time>
      </trkpt>
      <trkpt lat="44.46813" lon="5.51444">
        <ele>706.1</ele>
        <time>2021-09-07T12:14:40Z</time>
      </trkpt>
      <trkpt lat="44.46813" lon="5.51444">
        <ele>706.1</ele>
        <time>2021-09-07T12:14:41Z</time>
      </trkpt>
      <trkpt lat="44.46813" lon="5.51444">
        <ele>706.1</ele>
        <time>2021-09-07T12:14:42Z</time>
      </trkpt>
      <trkpt lat="44.46813" lon="5.51444">
        <ele>706.1</ele>
        <time>2021-09-07T12:14:43Z</time>
      </trkpt>
      <trkpt lat="44.46813" lon="5.51444">
        <ele>706.1</ele>
        <time>2021-09-07T12:14:44Z</time>
      </trkpt>
      <trkpt lat="44.46813" lon="5.51444">
        <ele>706.1</ele>
        <time>2021-09-07T12:14:45Z</time>
      </trkpt>
      <trkpt lat="44.46813" lon="5.51444">
        <ele>706.1</ele>
        <time>2021-09-07T12:14:46Z</time>
      </trkpt>
      <trkpt lat="44.46813" lon="5.51444">
        <ele>706.1</ele>
        <time>2021-09-07T12:14:47Z</time>
      </trkpt>
      <trkpt lat="44.46813" lon="5.51444">
        <ele>706.1</ele>
        <time>2021-09-07T12:14:48Z</time>
      </trkpt>
      <trkpt lat="44.46813" lon="5.51444">
        <ele>706.1</ele>
        <time>2021-09-07T12:14:49Z</time>
      </trkpt>
      <trkpt lat="44.46813" lon="5.51444">
        <ele>706.1</ele>
        <time>2021-09-07T12:14:50Z</time>
      </trkpt>
      <trkpt lat="44.46813" lon="5.51444">
        <ele>706.1</ele>
        <time>2021-09-07T12:14:51Z</time>
      </trkpt>
      <trkpt lat="44.46813" lon="5.51444">
        <ele>706.1</ele>
        <time>2021-09-07T12:14:52Z</time>
      </trkpt>
      <trkpt lat="44.46813" lon="5.51444">
        <ele>706.1</ele>
        <time>2021-09-07T12:14:53Z</time>
      </trkpt>
      <trkpt lat="44.46813" lon="5.51444">
        <ele>706.1</ele>
        <time>2021-09-07T12:14:54Z</time>
      </trkpt>
      <trkpt lat="44.46813" lon="5.51444">
        <ele>706.1</ele>
        <time>2021-09-07T12:14:55Z</time>
      </trkpt>
      <trkpt lat="44.46813" lon="5.51444">
        <ele>706.1</ele>
        <time>2021-09-07T12:14:56Z</time>
      </trkpt>
      <trkpt lat="44.46813" lon="5.51444">
        <ele>706.1</ele>
        <time>2021-09-07T12:14:57Z</time>
      </trkpt>
      <trkpt lat="44.46813" lon="5.51444">
        <ele>706.1</ele>
        <time>2021-09-07T12:14:58Z</time>
      </trkpt>
      <trkpt lat="44.46813" lon="5.51444">
        <ele>706.1</ele>
        <time>2021-09-07T12:14:59Z</time>
      </trkpt>
      <trkpt lat="44.46813" lon="5.51444">
        <ele>706.1</ele>
        <time>2021-09-07T12:15:00Z</time>
      </trkpt>
      <trkpt lat="44.46813" lon="5.51444">
        <ele>706.1</ele>
        <time>2021-09-07T12:15:01Z</time>
      </trkpt>
      <trkpt lat="44.46813" lon="5.51444">
        <ele>706.1</ele>
        <time>2021-09-07T12:15:02Z</time>
      </trkpt>
      <trkpt lat="44.46813" lon="5.51444">
        <ele>706.1</ele>
        <time>2021-09-07T12:15:03Z</time>
      </trkpt>
      <trkpt lat="44.46813" lon="5.51444">
        <ele>706.1</ele>
        <time>2021-09-07T12:15:04Z</time>
      </trkpt>
      <trkpt lat="44.46813" lon="5.51444">
        <ele>706.1</ele>
        <time>2021-09-07T12:15:05Z</time>
      </trkpt>
      <trkpt lat="44.46813" lon="5.51444">
        <ele>706.1</ele>
        <time>2021-09-07T12:15:06Z</time>
      </trkpt>
      <trkpt lat="44.46813" lon="5.51444">
        <ele>706.1</ele>
        <time>2021-09-07T12:15:07Z</time>
      </trkpt>
      <trkpt lat="44.46813" lon="5.51444">
        <ele>706.1</ele>
        <time>2021-09-07T12:15:08Z</time>
      </trkpt>
      <trkpt lat="44.46813" lon="5.51444">
        <ele>706.1</ele>
        <time>2021-09-07T12:15:09Z</time>
      </trkpt>
      <trkpt lat="44.46813" lon="5.51444">
        <ele>706.1</ele>
        <time>2021-09-07T12:15:10Z</time>
      </trkpt>
      <trkpt lat="44.46813" lon="5.51444">
        <ele>706.1</ele>
        <time>2021-09-07T12:15:11Z</time>
      </trkpt>
      <trkpt lat="44.46813" lon="5.51444">
        <ele>706.1</ele>
        <time>2021-09-07T12:15:12Z</time>
      </trkpt>
      <trkpt lat="44.46813" lon="5.51444">
        <ele>706.1</ele>
        <time>2021-09-07T12:15:13Z</time>
      </trkpt>
      <trkpt lat="44.46813" lon="5.51444">
        <ele>706.1</ele>
        <time>2021-09-07T12:15:14Z</time>
      </trkpt>
      <trkpt lat="44.46813" lon="5.51444">
        <ele>706.1</ele>
        <time>2021-09-07T12:15:15Z</time>
      </trkpt>
      <trkpt lat="44.46813" lon="5.51444">
        <ele>706.1</ele>
        <time>2021-09-07T12:15:16Z</time>
      </trkpt>
      <trkpt lat="44.46813" lon="5.51444">
        <ele>706.1</ele>
        <time>2021-09-07T12:15:17Z</time>
      </trkpt>
      <trkpt lat="44.46813" lon="5.51444">
        <ele>706.1</ele>
        <time>2021-09-07T12:15:18Z</time>
      </trkpt>
      <trkpt lat="44.46813" lon="5.51444">
        <ele>706.1</ele>
        <time>2021-09-07T12:15:19Z</time>
      </trkpt>
      <trkpt lat="44.46813" lon="5.51444">
        <ele>706.1</ele>
        <time>2021-09-07T12:15:20Z</time>
      </trkpt>
      <trkpt lat="44.46813" lon="5.51444">
        <ele>706.1</ele>
        <time>2021-09-07T12:15:21Z</time>
      </trkpt>
      <trkpt lat="44.46813" lon="5.51444">
        <ele>706.1</ele>
        <time>2021-09-07T12:15:22Z</time>
      </trkpt>
      <trkpt lat="44.46813" lon="5.51444">
        <ele>706.1</ele>
        <time>2021-09-07T12:15:23Z</time>
      </trkpt>
      <trkpt lat="44.46813" lon="5.51444">
        <ele>706.1</ele>
        <time>2021-09-07T12:15:24Z</time>
      </trkpt>
      <trkpt lat="44.46813" lon="5.51444">
        <ele>706.1</ele>
        <time>2021-09-07T12:15:25Z</time>
      </trkpt>
      <trkpt lat="44.46813" lon="5.51444">
        <ele>706.1</ele>
        <time>2021-09-07T12:15:26Z</time>
      </trkpt>
      <trkpt lat="44.46813" lon="5.51444">
        <ele>706.1</ele>
        <time>2021-09-07T12:15:27Z</time>
      </trkpt>
      <trkpt lat="44.46813" lon="5.51444">
        <ele>706.1</ele>
        <time>2021-09-07T12:15:28Z</time>
      </trkpt>
      <trkpt lat="44.46813" lon="5.51444">
        <ele>706.1</ele>
        <time>2021-09-07T12:15:29Z</time>
      </trkpt>
      <trkpt lat="44.46813" lon="5.51444">
        <ele>706.1</ele>
        <time>2021-09-07T12:15:30Z</time>
      </trkpt>
      <trkpt lat="44.46813" lon="5.51444">
        <ele>706.1</ele>
        <time>2021-09-07T12:15:31Z</time>
      </trkpt>
      <trkpt lat="44.46813" lon="5.51444">
        <ele>706.1</ele>
        <time>2021-09-07T12:15:32Z</time>
      </trkpt>
      <trkpt lat="44.46813" lon="5.51444">
        <ele>706.1</ele>
        <time>2021-09-07T12:15:33Z</time>
      </trkpt>
      <trkpt lat="44.46813" lon="5.51444">
        <ele>706.1</ele>
        <time>2021-09-07T12:15:34Z</time>
      </trkpt>
      <trkpt lat="44.46813" lon="5.51444">
        <ele>706.1</ele>
        <time>2021-09-07T12:15:35Z</time>
      </trkpt>
      <trkpt lat="44.46813" lon="5.51444">
        <ele>706.1</ele>
        <time>2021-09-07T12:15:36Z</time>
      </trkpt>
      <trkpt lat="44.46813" lon="5.51444">
        <ele>706.1</ele>
        <time>2021-09-07T12:15:37Z</time>
      </trkpt>
      <trkpt lat="44.46813" lon="5.51444">
        <ele>706.1</ele>
        <time>2021-09-07T12:15:38Z</time>
      </trkpt>
      <trkpt lat="44.46813" lon="5.51444">
        <ele>706.1</ele>
        <time>2021-09-07T12:15:39Z</time>
      </trkpt>
      <trkpt lat="44.46813" lon="5.51444">
        <ele>706.1</ele>
        <time>2021-09-07T12:15:40Z</time>
      </trkpt>
      <trkpt lat="44.46813" lon="5.51444">
        <ele>706.1</ele>
        <time>2021-09-07T12:15:41Z</time>
      </trkpt>
      <trkpt lat="44.46813" lon="5.51444">
        <ele>706.1</ele>
        <time>2021-09-07T12:15:42Z</time>
      </trkpt>
      <trkpt lat="44.46813" lon="5.51444">
        <ele>706.1</ele>
        <time>2021-09-07T12:15:43Z</time>
      </trkpt>
      <trkpt lat="44.46813" lon="5.51444">
        <ele>706.1</ele>
        <time>2021-09-07T12:15:44Z</time>
      </trkpt>
      <trkpt lat="44.46813" lon="5.51444">
        <ele>706.1</ele>
        <time>2021-09-07T12:15:45Z</time>
      </trkpt>
      <trkpt lat="44.46813" lon="5.51444">
        <ele>706.1</ele>
        <time>2021-09-07T12:15:46Z</time>
      </trkpt>
      <trkpt lat="44.46813" lon="5.51444">
        <ele>706.1</ele>
        <time>2021-09-07T12:15:47Z</time>
      </trkpt>
      <trkpt lat="44.46813" lon="5.51444">
        <ele>706.1</ele>
        <time>2021-09-07T12:15:48Z</time>
      </trkpt>
      <trkpt lat="44.46813" lon="5.51444">
        <ele>706.1</ele>
        <time>2021-09-07T12:15:49Z</time>
      </trkpt>
      <trkpt lat="44.46813" lon="5.51444">
        <ele>706.1</ele>
        <time>2021-09-07T12:15:50Z</time>
      </trkpt>
      <trkpt lat="44.46813" lon="5.51444">
        <ele>706.1</ele>
        <time>2021-09-07T12:15:51Z</time>
      </trkpt>
      <trkpt lat="44.46813" lon="5.51444">
        <ele>706.1</ele>
        <time>2021-09-07T12:15:52Z</time>
      </trkpt>
      <trkpt lat="44.46813" lon="5.51444">
        <ele>706.1</ele>
        <time>2021-09-07T12:15:53Z</time>
      </trkpt>
      <trkpt lat="44.46813" lon="5.51444">
        <ele>706.1</ele>
        <time>2021-09-07T12:15:54Z</time>
      </trkpt>
      <trkpt lat="44.46813" lon="5.51444">
        <ele>706.1</ele>
        <time>2021-09-07T12:15:55Z</time>
      </trkpt>
      <trkpt lat="44.46813" lon="5.51444">
        <ele>706.1</ele>
        <time>2021-09-07T12:15:56Z</time>
      </trkpt>
      <trkpt lat="44.46813" lon="5.51444">
        <ele>706.1</ele>
        <time>2021-09-07T12:15:57Z</time>
      </trkpt>
      <trkpt lat="44.46813" lon="5.51444">
        <ele>706.1</ele>
        <time>2021-09-07T12:15:58Z</time>
      </trkpt>
      <trkpt lat="44.46813" lon="5.51444">
        <ele>706.1</ele>
        <time>2021-09-07T12:15:59Z</time>
      </trkpt>
      <trkpt lat="44.46815" lon="5.51444">
        <ele>706.1</ele>
        <time>2021-09-07T12:16:00Z</time>
      </trkpt>
      <trkpt lat="44.46816" lon="5.51445">
        <ele>706.1</ele>
        <time>2021-09-07T12:16:01Z</time>
      </trkpt>
      <trkpt lat="44.46818" lon="5.51445">
        <ele>706.1</ele>
        <time>2021-09-07T12:16:02Z</time>
      </trkpt>
      <trkpt lat="44.46821" lon="5.51446">
        <ele>706.1</ele>
        <time>2021-09-07T12:16:03Z</time>
      </trkpt>
      <trkpt lat="44.46822" lon="5.51446">
        <ele>706.1</ele>
        <time>2021-09-07T12:16:04Z</time>
      </trkpt>
      <trkpt lat="44.46822" lon="5.51446">
        <ele>706.1</ele>
        <time>2021-09-07T12:16:05Z</time>
      </trkpt>
      <trkpt lat="44.46822" lon="5.51446">
        <ele>706.1</ele>
        <time>2021-09-07T12:16:06Z</time>
      </trkpt>
      <trkpt lat="44.46823" lon="5.51446">
        <ele>706.1</ele>
        <time>2021-09-07T12:16:07Z</time>
      </trkpt>
      <trkpt lat="44.46823" lon="5.51446">
        <ele>706.1</ele>
        <time>2021-09-07T12:16:08Z</time>
      </trkpt>
      <trkpt lat="44.46823" lon="5.51446">
        <ele>706.1</ele>
        <time>2021-09-07T12:16:09Z</time>
      </trkpt>
      <trkpt lat="44.46823" lon="5.51446">
        <ele>706.1</ele>
        <time>2021-09-07T12:16:10Z</time>
      </trkpt>
      <trkpt lat="44.46823" lon="5.51446">
        <ele>706.1</ele>
        <time>2021-09-07T12:16:11Z</time>
      </trkpt>
      <trkpt lat="44.46823" lon="5.51446">
        <ele>706.1</ele>
        <time>2021-09-07T12:16:12Z</time>
      </trkpt>
      <trkpt lat="44.46823" lon="5.51446">
        <ele>706.1</ele>
        <time>2021-09-07T12:16:13Z</time>
      </trkpt>
      <trkpt lat="44.46823" lon="5.51446">
        <ele>706.1</ele>
        <time>2021-09-07T12:16:14Z</time>
      </trkpt>
      <trkpt lat="44.46823" lon="5.51446">
        <ele>706.1</ele>
        <time>2021-09-07T12:16:15Z</time>
      </trkpt>
      <trkpt lat="44.46823" lon="5.51446">
        <ele>706.1</ele>
        <time>2021-09-07T12:16:16Z</time>
      </trkpt>
      <trkpt lat="44.46823" lon="5.51446">
        <ele>706.1</ele>
        <time>2021-09-07T12:16:17Z</time>
      </trkpt>
      <trkpt lat="44.46823" lon="5.51446">
        <ele>706.1</ele>
        <time>2021-09-07T12:16:18Z</time>
      </trkpt>
      <trkpt lat="44.46823" lon="5.51446">
        <ele>706.1</ele>
        <time>2021-09-07T12:16:19Z</time>
      </trkpt>
      <trkpt lat="44.46823" lon="5.51446">
        <ele>706.1</ele>
        <time>2021-09-07T12:16:20Z</time>
      </trkpt>
      <trkpt lat="44.46823" lon="5.51446">
        <ele>706.1</ele>
        <time>2021-09-07T12:16:21Z</time>
      </trkpt>
      <trkpt lat="44.46823" lon="5.51446">
        <ele>706.1</ele>
        <time>2021-09-07T12:16:22Z</time>
      </trkpt>
      <trkpt lat="44.46823" lon="5.51446">
        <ele>706.1</ele>
        <time>2021-09-07T12:16:23Z</time>
      </trkpt>
      <trkpt lat="44.46823" lon="5.51446">
        <ele>706.1</ele>
        <time>2021-09-07T12:16:24Z</time>
      </trkpt>
      <trkpt lat="44.46823" lon="5.51446">
        <ele>706.1</ele>
        <time>2021-09-07T12:16:25Z</time>
      </trkpt>
      <trkpt lat="44.46823" lon="5.51446">
        <ele>706.1</ele>
        <time>2021-09-07T12:16:26Z</time>
      </trkpt>
      <trkpt lat="44.46823" lon="5.51446">
        <ele>706.1</ele>
        <time>2021-09-07T12:16:27Z</time>
      </trkpt>
      <trkpt lat="44.46823" lon="5.51446">
        <ele>706.1</ele>
        <time>2021-09-07T12:16:28Z</time>
      </trkpt>
      <trkpt lat="44.46823" lon="5.51446">
        <ele>706.1</ele>
        <time>2021-09-07T12:16:29Z</time>
      </trkpt>
      <trkpt lat="44.46823" lon="5.51446">
        <ele>706.1</ele>
        <time>2021-09-07T12:16:30Z</time>
      </trkpt>
      <trkpt lat="44.46823" lon="5.51446">
        <ele>706.1</ele>
        <time>2021-09-07T12:16:31Z</time>
      </trkpt>
      <trkpt lat="44.46823" lon="5.51446">
        <ele>706.1</ele>
        <time>2021-09-07T12:16:32Z</time>
      </trkpt>
      <trkpt lat="44.46823" lon="5.51446">
        <ele>706.1</ele>
        <time>2021-09-07T12:16:33Z</time>
      </trkpt>
      <trkpt lat="44.46823" lon="5.51446">
        <ele>706.1</ele>
        <time>2021-09-07T12:16:34Z</time>
      </trkpt>
      <trkpt lat="44.46823" lon="5.51446">
        <ele>706.1</ele>
        <time>2021-09-07T12:16:35Z</time>
      </trkpt>
      <trkpt lat="44.46823" lon="5.51446">
        <ele>706.1</ele>
        <time>2021-09-07T12:16:36Z</time>
      </trkpt>
      <trkpt lat="44.46823" lon="5.51446">
        <ele>706.1</ele>
        <time>2021-09-07T12:16:37Z</time>
      </trkpt>
      <trkpt lat="44.46823" lon="5.51446">
        <ele>706.1</ele>
        <time>2021-09-07T12:16:38Z</time>
      </trkpt>
      <trkpt lat="44.46823" lon="5.51446">
        <ele>706.1</ele>
        <time>2021-09-07T12:16:39Z</time>
      </trkpt>
      <trkpt lat="44.46823" lon="5.51446">
        <ele>706.1</ele>
        <time>2021-09-07T12:16:40Z</time>
      </trkpt>
      <trkpt lat="44.46823" lon="5.51446">
        <ele>706.1</ele>
        <time>2021-09-07T12:16:41Z</time>
      </trkpt>
      <trkpt lat="44.46823" lon="5.51446">
        <ele>706.1</ele>
        <time>2021-09-07T12:16:42Z</time>
      </trkpt>
      <trkpt lat="44.46823" lon="5.51446">
        <ele>706.1</ele>
        <time>2021-09-07T12:16:43Z</time>
      </trkpt>
      <trkpt lat="44.46823" lon="5.51446">
        <ele>706.1</ele>
        <time>2021-09-07T12:16:44Z</time>
      </trkpt>
      <trkpt lat="44.46823" lon="5.51446">
        <ele>706.1</ele>
        <time>2021-09-07T12:16:45Z</time>
      </trkpt>
      <trkpt lat="44.46823" lon="5.51446">
        <ele>706.1</ele>
        <time>2021-09-07T12:16:46Z</time>
      </trkpt>
      <trkpt lat="44.46823" lon="5.51446">
        <ele>706.1</ele>
        <time>2021-09-07T12:16:47Z</time>
      </trkpt>
      <trkpt lat="44.46824" lon="5.51448">
        <ele>706.1</ele>
        <time>2021-09-07T12:16:48Z</time>
      </trkpt>
      <trkpt lat="44.46826" lon="5.51451">
        <ele>706.1</ele>
        <time>2021-09-07T12:16:49Z</time>
      </trkpt>
      <trkpt lat="44.46827" lon="5.51453">
        <ele>706.1</ele>
        <time>2021-09-07T12:16:50Z</time>
      </trkpt>
      <trkpt lat="44.46828" lon="5.51455">
        <ele>706.2</ele>
        <time>2021-09-07T12:16:51Z</time>
      </trkpt>
      <trkpt lat="44.46828" lon="5.51455">
        <ele>706.2</ele>
        <time>2021-09-07T12:16:52Z</time>
      </trkpt>
      <trkpt lat="44.46828" lon="5.51455">
        <ele>706.2</ele>
        <time>2021-09-07T12:16:53Z</time>
      </trkpt>
      <trkpt lat="44.46828" lon="5.51455">
        <ele>706.2</ele>
        <time>2021-09-07T12:16:54Z</time>
      </trkpt>
      <trkpt lat="44.46828" lon="5.51455">
        <ele>706.2</ele>
        <time>2021-09-07T12:16:55Z</time>
      </trkpt>
      <trkpt lat="44.46828" lon="5.51455">
        <ele>706.2</ele>
        <time>2021-09-07T12:16:56Z</time>
      </trkpt>
      <trkpt lat="44.46828" lon="5.51455">
        <ele>706.2</ele>
        <time>2021-09-07T12:16:57Z</time>
      </trkpt>
      <trkpt lat="44.46828" lon="5.51455">
        <ele>706.2</ele>
        <time>2021-09-07T12:16:58Z</time>
      </trkpt>
      <trkpt lat="44.46828" lon="5.51455">
        <ele>706.2</ele>
        <time>2021-09-07T12:16:59Z</time>
      </trkpt>
      <trkpt lat="44.46828" lon="5.51455">
        <ele>706.2</ele>
        <time>2021-09-07T12:17:00Z</time>
      </trkpt>
      <trkpt lat="44.46828" lon="5.51455">
        <ele>706.2</ele>
        <time>2021-09-07T12:17:01Z</time>
      </trkpt>
      <trkpt lat="44.46828" lon="5.51455">
        <ele>706.2</ele>
        <time>2021-09-07T12:17:02Z</time>
      </trkpt>
      <trkpt lat="44.46828" lon="5.51455">
        <ele>706.2</ele>
        <time>2021-09-07T12:17:03Z</time>
      </trkpt>
      <trkpt lat="44.46827" lon="5.51456">
        <ele>706.2</ele>
        <time>2021-09-07T12:17:04Z</time>
      </trkpt>
      <trkpt lat="44.46827" lon="5.51456">
        <ele>706.2</ele>
        <time>2021-09-07T12:17:05Z</time>
      </trkpt>
      <trkpt lat="44.46827" lon="5.51456">
        <ele>706.2</ele>
        <time>2021-09-07T12:17:06Z</time>
      </trkpt>
      <trkpt lat="44.46827" lon="5.51456">
        <ele>706.2</ele>
        <time>2021-09-07T12:17:07Z</time>
      </trkpt>
      <trkpt lat="44.46827" lon="5.51456">
        <ele>706.2</ele>
        <time>2021-09-07T12:17:08Z</time>
      </trkpt>
      <trkpt lat="44.46827" lon="5.51456">
        <ele>706.2</ele>
        <time>2021-09-07T12:17:09Z</time>
      </trkpt>
      <trkpt lat="44.46827" lon="5.51456">
        <ele>706.2</ele>
        <time>2021-09-07T12:17:10Z</time>
      </trkpt>
      <trkpt lat="44.46827" lon="5.51456">
        <ele>706.2</ele>
        <time>2021-09-07T12:17:11Z</time>
      </trkpt>
      <trkpt lat="44.46827" lon="5.51456">
        <ele>706.2</ele>
        <time>2021-09-07T12:17:12Z</time>
      </trkpt>
      <trkpt lat="44.46827" lon="5.51456">
        <ele>706.2</ele>
        <time>2021-09-07T12:17:13Z</time>
      </trkpt>
      <trkpt lat="44.46827" lon="5.51456">
        <ele>706.2</ele>
        <time>2021-09-07T12:17:14Z</time>
      </trkpt>
      <trkpt lat="44.46827" lon="5.51456">
        <ele>706.2</ele>
        <time>2021-09-07T12:17:15Z</time>
      </trkpt>
      <trkpt lat="44.46827" lon="5.51456">
        <ele>706.2</ele>
        <time>2021-09-07T12:17:16Z</time>
      </trkpt>
      <trkpt lat="44.46827" lon="5.51456">
        <ele>706.2</ele>
        <time>2021-09-07T12:17:17Z</time>
      </trkpt>
      <trkpt lat="44.46827" lon="5.51456">
        <ele>706.2</ele>
        <time>2021-09-07T12:17:18Z</time>
      </trkpt>
      <trkpt lat="44.46827" lon="5.51456">
        <ele>706.2</ele>
        <time>2021-09-07T12:17:19Z</time>
      </trkpt>
      <trkpt lat="44.46827" lon="5.51456">
        <ele>706.2</ele>
        <time>2021-09-07T12:17:20Z</time>
      </trkpt>
      <trkpt lat="44.46827" lon="5.51456">
        <ele>706.2</ele>
        <time>2021-09-07T12:17:21Z</time>
      </trkpt>
      <trkpt lat="44.46827" lon="5.51456">
        <ele>706.2</ele>
        <time>2021-09-07T12:17:22Z</time>
      </trkpt>
      <trkpt lat="44.46827" lon="5.51456">
        <ele>706.2</ele>
        <time>2021-09-07T12:17:23Z</time>
      </trkpt>
      <trkpt lat="44.46827" lon="5.51456">
        <ele>706.2</ele>
        <time>2021-09-07T12:17:24Z</time>
      </trkpt>
      <trkpt lat="44.46827" lon="5.51456">
        <ele>706.2</ele>
        <time>2021-09-07T12:17:25Z</time>
      </trkpt>
      <trkpt lat="44.46826" lon="5.51456">
        <ele>706.2</ele>
        <time>2021-09-07T12:17:26Z</time>
      </trkpt>
      <trkpt lat="44.46826" lon="5.51456">
        <ele>706.2</ele>
        <time>2021-09-07T12:17:27Z</time>
      </trkpt>
      <trkpt lat="44.46826" lon="5.51456">
        <ele>706.2</ele>
        <time>2021-09-07T12:17:28Z</time>
      </trkpt>
      <trkpt lat="44.46826" lon="5.51456">
        <ele>706.2</ele>
        <time>2021-09-07T12:17:29Z</time>
      </trkpt>
      <trkpt lat="44.46826" lon="5.51456">
        <ele>706.2</ele>
        <time>2021-09-07T12:17:30Z</time>
      </trkpt>
      <trkpt lat="44.46826" lon="5.51456">
        <ele>706.2</ele>
        <time>2021-09-07T12:17:31Z</time>
      </trkpt>
      <trkpt lat="44.46826" lon="5.51456">
        <ele>706.2</ele>
        <time>2021-09-07T12:17:32Z</time>
      </trkpt>
      <trkpt lat="44.46826" lon="5.51456">
        <ele>706.2</ele>
        <time>2021-09-07T12:17:33Z</time>
      </trkpt>
      <trkpt lat="44.46826" lon="5.51456">
        <ele>706.2</ele>
        <time>2021-09-07T12:17:34Z</time>
      </trkpt>
      <trkpt lat="44.46826" lon="5.51456">
        <ele>706.2</ele>
        <time>2021-09-07T12:17:35Z</time>
      </trkpt>
      <trkpt lat="44.46826" lon="5.51456">
        <ele>706.2</ele>
        <time>2021-09-07T12:17:36Z</time>
      </trkpt>
      <trkpt lat="44.46826" lon="5.51456">
        <ele>706.2</ele>
        <time>2021-09-07T12:17:37Z</time>
      </trkpt>
      <trkpt lat="44.46826" lon="5.51456">
        <ele>706.2</ele>
        <time>2021-09-07T12:17:38Z</time>
      </trkpt>
      <trkpt lat="44.46826" lon="5.51456">
        <ele>706.2</ele>
        <time>2021-09-07T12:17:39Z</time>
      </trkpt>
      <trkpt lat="44.46826" lon="5.51456">
        <ele>706.2</ele>
        <time>2021-09-07T12:17:40Z</time>
      </trkpt>
      <trkpt lat="44.46826" lon="5.51456">
        <ele>706.2</ele>
        <time>2021-09-07T12:17:41Z</time>
      </trkpt>
      <trkpt lat="44.46826" lon="5.51456">
        <ele>706.2</ele>
        <time>2021-09-07T12:17:42Z</time>
      </trkpt>
      <trkpt lat="44.46826" lon="5.51456">
        <ele>706.2</ele>
        <time>2021-09-07T12:17:43Z</time>
      </trkpt>
      <trkpt lat="44.46826" lon="5.51456">
        <ele>706.2</ele>
        <time>2021-09-07T12:17:44Z</time>
      </trkpt>
      <trkpt lat="44.46826" lon="5.51456">
        <ele>706.2</ele>
        <time>2021-09-07T12:17:45Z</time>
      </trkpt>
      <trkpt lat="44.46826" lon="5.51456">
        <ele>706.2</ele>
        <time>2021-09-07T12:17:46Z</time>
      </trkpt>
      <trkpt lat="44.46826" lon="5.51456">
        <ele>706.2</ele>
        <time>2021-09-07T12:17:47Z</time>
      </trkpt>
      <trkpt lat="44.46825" lon="5.51456">
        <ele>706.2</ele>
        <time>2021-09-07T12:17:48Z</time>
      </trkpt>
      <trkpt lat="44.46825" lon="5.51456">
        <ele>706.2</ele>
        <time>2021-09-07T12:17:49Z</time>
      </trkpt>
      <trkpt lat="44.46825" lon="5.51456">
        <ele>706.2</ele>
        <time>2021-09-07T12:17:50Z</time>
      </trkpt>
      <trkpt lat="44.46825" lon="5.51456">
        <ele>706.2</ele>
        <time>2021-09-07T12:17:51Z</time>
      </trkpt>
      <trkpt lat="44.46825" lon="5.51456">
        <ele>706.2</ele>
        <time>2021-09-07T12:17:52Z</time>
      </trkpt>
      <trkpt lat="44.46825" lon="5.51456">
        <ele>706.2</ele>
        <time>2021-09-07T12:17:53Z</time>
      </trkpt>
      <trkpt lat="44.46825" lon="5.51456">
        <ele>706.2</ele>
        <time>2021-09-07T12:17:54Z</time>
      </trkpt>
      <trkpt lat="44.46825" lon="5.51456">
        <ele>706.2</ele>
        <time>2021-09-07T12:17:55Z</time>
      </trkpt>
      <trkpt lat="44.46825" lon="5.51456">
        <ele>706.2</ele>
        <time>2021-09-07T12:17:56Z</time>
      </trkpt>
      <trkpt lat="44.46825" lon="5.51456">
        <ele>706.2</ele>
        <time>2021-09-07T12:17:57Z</time>
      </trkpt>
      <trkpt lat="44.46825" lon="5.51456">
        <ele>706.2</ele>
        <time>2021-09-07T12:17:58Z</time>
      </trkpt>
      <trkpt lat="44.46825" lon="5.51456">
        <ele>706.2</ele>
        <time>2021-09-07T12:17:59Z</time>
      </trkpt>
      <trkpt lat="44.46825" lon="5.51456">
        <ele>706.2</ele>
        <time>2021-09-07T12:18:00Z</time>
      </trkpt>
      <trkpt lat="44.46825" lon="5.51456">
        <ele>706.2</ele>
        <time>2021-09-07T12:18:01Z</time>
      </trkpt>
      <trkpt lat="44.46825" lon="5.51456">
        <ele>706.2</ele>
        <time>2021-09-07T12:18:02Z</time>
      </trkpt>
      <trkpt lat="44.46825" lon="5.51456">
        <ele>706.2</ele>
        <time>2021-09-07T12:18:03Z</time>
      </trkpt>
      <trkpt lat="44.46825" lon="5.51456">
        <ele>706.2</ele>
        <time>2021-09-07T12:18:04Z</time>
      </trkpt>
      <trkpt lat="44.46825" lon="5.51456">
        <ele>706.2</ele>
        <time>2021-09-07T12:18:05Z</time>
      </trkpt>
      <trkpt lat="44.46825" lon="5.51456">
        <ele>706.2</ele>
        <time>2021-09-07T12:18:06Z</time>
      </trkpt>
      <trkpt lat="44.46825" lon="5.51456">
        <ele>706.2</ele>
        <time>2021-09-07T12:18:07Z</time>
      </trkpt>
      <trkpt lat="44.46825" lon="5.51456">
        <ele>706.2</ele>
        <time>2021-09-07T12:18:08Z</time>
      </trkpt>
      <trkpt lat="44.46825" lon="5.51456">
        <ele>706.2</ele>
        <time>2021-09-07T12:18:09Z</time>
      </trkpt>
      <trkpt lat="44.46824" lon="5.51456">
        <ele>706.2</ele>
        <time>2021-09-07T12:18:10Z</time>
      </trkpt>
      <trkpt lat="44.46824" lon="5.51456">
        <ele>706.2</ele>
        <time>2021-09-07T12:18:11Z</time>
      </trkpt>
      <trkpt lat="44.46824" lon="5.51456">
        <ele>706.2</ele>
        <time>2021-09-07T12:18:12Z</time>
      </trkpt>
      <trkpt lat="44.46824" lon="5.51456">
        <ele>706.2</ele>
        <time>2021-09-07T12:18:13Z</time>
      </trkpt>
      <trkpt lat="44.46824" lon="5.51456">
        <ele>706.2</ele>
        <time>2021-09-07T12:18:14Z</time>
      </trkpt>
      <trkpt lat="44.46824" lon="5.51456">
        <ele>706.2</ele>
        <time>2021-09-07T12:18:15Z</time>
      </trkpt>
      <trkpt lat="44.46824" lon="5.51456">
        <ele>706.2</ele>
        <time>2021-09-07T12:18:16Z</time>
      </trkpt>
      <trkpt lat="44.46824" lon="5.51456">
        <ele>706.2</ele>
        <time>2021-09-07T12:18:17Z</time>
      </trkpt>
      <trkpt lat="44.46824" lon="5.51456">
        <ele>706.2</ele>
        <time>2021-09-07T12:18:18Z</time>
      </trkpt>
      <trkpt lat="44.46824" lon="5.51456">
        <ele>706.2</ele>
        <time>2021-09-07T12:18:19Z</time>
      </trkpt>
      <trkpt lat="44.46824" lon="5.51456">
        <ele>706.2</ele>
        <time>2021-09-07T12:18:20Z</time>
      </trkpt>
      <trkpt lat="44.46824" lon="5.51456">
        <ele>706.2</ele>
        <time>2021-09-07T12:18:21Z</time>
      </trkpt>
      <trkpt lat="44.46824" lon="5.51456">
        <ele>706.2</ele>
        <time>2021-09-07T12:18:22Z</time>
      </trkpt>
      <trkpt lat="44.46824" lon="5.51456">
        <ele>706.2</ele>
        <time>2021-09-07T12:18:23Z</time>
      </trkpt>
      <trkpt lat="44.46824" lon="5.51456">
        <ele>706.2</ele>
        <time>2021-09-07T12:18:24Z</time>
      </trkpt>
      <trkpt lat="44.46824" lon="5.51456">
        <ele>706.2</ele>
        <time>2021-09-07T12:18:25Z</time>
      </trkpt>
      <trkpt lat="44.46824" lon="5.51456">
        <ele>706.2</ele>
        <time>2021-09-07T12:18:26Z</time>
      </trkpt>
      <trkpt lat="44.46824" lon="5.51456">
        <ele>706.2</ele>
        <time>2021-09-07T12:18:27Z</time>
      </trkpt>
      <trkpt lat="44.46824" lon="5.51456">
        <ele>706.2</ele>
        <time>2021-09-07T12:18:28Z</time>
      </trkpt>
      <trkpt lat="44.46824" lon="5.51456">
        <ele>706.2</ele>
        <time>2021-09-07T12:18:29Z</time>
      </trkpt>
      <trkpt lat="44.46824" lon="5.51457">
        <ele>706.2</ele>
        <time>2021-09-07T12:18:30Z</time>
      </trkpt>
      <trkpt lat="44.46824" lon="5.51457">
        <ele>706.2</ele>
        <time>2021-09-07T12:18:31Z</time>
      </trkpt>
      <trkpt lat="44.46823" lon="5.51457">
        <ele>706.2</ele>
        <time>2021-09-07T12:18:32Z</time>
      </trkpt>
      <trkpt lat="44.46823" lon="5.51457">
        <ele>706.2</ele>
        <time>2021-09-07T12:18:33Z</time>
      </trkpt>
      <trkpt lat="44.46823" lon="5.51457">
        <ele>706.2</ele>
        <time>2021-09-07T12:18:34Z</time>
      </trkpt>
      <trkpt lat="44.46823" lon="5.51457">
        <ele>706.2</ele>
        <time>2021-09-07T12:18:35Z</time>
      </trkpt>
      <trkpt lat="44.46823" lon="5.51457">
        <ele>706.2</ele>
        <time>2021-09-07T12:18:36Z</time>
      </trkpt>
      <trkpt lat="44.46823" lon="5.51457">
        <ele>706.2</ele>
        <time>2021-09-07T12:18:37Z</time>
      </trkpt>
      <trkpt lat="44.46823" lon="5.51457">
        <ele>706.2</ele>
        <time>2021-09-07T12:18:38Z</time>
      </trkpt>
      <trkpt lat="44.46823" lon="5.51457">
        <ele>706.2</ele>
        <time>2021-09-07T12:18:39Z</time>
      </trkpt>
      <trkpt lat="44.46823" lon="5.51457">
        <ele>706.2</ele>
        <time>2021-09-07T12:18:40Z</time>
      </trkpt>
      <trkpt lat="44.46823" lon="5.51457">
        <ele>706.2</ele>
        <time>2021-09-07T12:18:41Z</time>
      </trkpt>
      <trkpt lat="44.46823" lon="5.51457">
        <ele>706.2</ele>
        <time>2021-09-07T12:18:42Z</time>
      </trkpt>
      <trkpt lat="44.46823" lon="5.51457">
        <ele>706.2</ele>
        <time>2021-09-07T12:18:43Z</time>
      </trkpt>
      <trkpt lat="44.46823" lon="5.51457">
        <ele>706.2</ele>
        <time>2021-09-07T12:18:44Z</time>
      </trkpt>
      <trkpt lat="44.46823" lon="5.51457">
        <ele>706.2</ele>
        <time>2021-09-07T12:18:45Z</time>
      </trkpt>
      <trkpt lat="44.46823" lon="5.51457">
        <ele>706.2</ele>
        <time>2021-09-07T12:18:46Z</time>
      </trkpt>
      <trkpt lat="44.46823" lon="5.51457">
        <ele>706.2</ele>
        <time>2021-09-07T12:18:47Z</time>
      </trkpt>
      <trkpt lat="44.46823" lon="5.51457">
        <ele>706.2</ele>
        <time>2021-09-07T12:18:48Z</time>
      </trkpt>
      <trkpt lat="44.46823" lon="5.51457">
        <ele>706.2</ele>
        <time>2021-09-07T12:18:49Z</time>
      </trkpt>
      <trkpt lat="44.46823" lon="5.51457">
        <ele>706.2</ele>
        <time>2021-09-07T12:18:50Z</time>
      </trkpt>
      <trkpt lat="44.46823" lon="5.51457">
        <ele>706.2</ele>
        <time>2021-09-07T12:18:51Z</time>
      </trkpt>
      <trkpt lat="44.46823" lon="5.51457">
        <ele>706.2</ele>
        <time>2021-09-07T12:18:52Z</time>
      </trkpt>
      <trkpt lat="44.46823" lon="5.51457">
        <ele>706.2</ele>
        <time>2021-09-07T12:18:53Z</time>
      </trkpt>
      <trkpt lat="44.46823" lon="5.51457">
        <ele>706.2</ele>
        <time>2021-09-07T12:18:54Z</time>
      </trkpt>
      <trkpt lat="44.46822" lon="5.51457">
        <ele>706.2</ele>
        <time>2021-09-07T12:18:55Z</time>
      </trkpt>
      <trkpt lat="44.46822" lon="5.51457">
        <ele>706.2</ele>
        <time>2021-09-07T12:18:56Z</time>
      </trkpt>
      <trkpt lat="44.46822" lon="5.51457">
        <ele>706.2</ele>
        <time>2021-09-07T12:18:57Z</time>
      </trkpt>
      <trkpt lat="44.46822" lon="5.51457">
        <ele>706.2</ele>
        <time>2021-09-07T12:18:58Z</time>
      </trkpt>
      <trkpt lat="44.46822" lon="5.51457">
        <ele>706.2</ele>
        <time>2021-09-07T12:18:59Z</time>
      </trkpt>
      <trkpt lat="44.46822" lon="5.51457">
        <ele>706.2</ele>
        <time>2021-09-07T12:19:00Z</time>
      </trkpt>
      <trkpt lat="44.46822" lon="5.51457">
        <ele>706.2</ele>
        <time>2021-09-07T12:19:01Z</time>
      </trkpt>
      <trkpt lat="44.46822" lon="5.51457">
        <ele>706.2</ele>
        <time>2021-09-07T12:19:02Z</time>
      </trkpt>
      <trkpt lat="44.46822" lon="5.51457">
        <ele>706.2</ele>
        <time>2021-09-07T12:19:03Z</time>
      </trkpt>
      <trkpt lat="44.46822" lon="5.51457">
        <ele>706.2</ele>
        <time>2021-09-07T12:19:04Z</time>
      </trkpt>
      <trkpt lat="44.46822" lon="5.51457">
        <ele>706.2</ele>
        <time>2021-09-07T12:19:05Z</time>
      </trkpt>
      <trkpt lat="44.46822" lon="5.51457">
        <ele>706.2</ele>
        <time>2021-09-07T12:19:06Z</time>
      </trkpt>
      <trkpt lat="44.46822" lon="5.51457">
        <ele>706.2</ele>
        <time>2021-09-07T12:19:07Z</time>
      </trkpt>
      <trkpt lat="44.46822" lon="5.51457">
        <ele>706.2</ele>
        <time>2021-09-07T12:19:08Z</time>
      </trkpt>
      <trkpt lat="44.46822" lon="5.51457">
        <ele>706.2</ele>
        <time>2021-09-07T12:19:09Z</time>
      </trkpt>
      <trkpt lat="44.46822" lon="5.51457">
        <ele>706.2</ele>
        <time>2021-09-07T12:19:10Z</time>
      </trkpt>
      <trkpt lat="44.46822" lon="5.51457">
        <ele>706.2</ele>
        <time>2021-09-07T12:19:11Z</time>
      </trkpt>
      <trkpt lat="44.46822" lon="5.51457">
        <ele>706.2</ele>
        <time>2021-09-07T12:19:12Z</time>
      </trkpt>
      <trkpt lat="44.46822" lon="5.51457">
        <ele>706.2</ele>
        <time>2021-09-07T12:19:13Z</time>
      </trkpt>
      <trkpt lat="44.46822" lon="5.51457">
        <ele>706.2</ele>
        <time>2021-09-07T12:19:14Z</time>
      </trkpt>
      <trkpt lat="44.46822" lon="5.51457">
        <ele>706.2</ele>
        <time>2021-09-07T12:19:15Z</time>
      </trkpt>
      <trkpt lat="44.46822" lon="5.51457">
        <ele>706.2</ele>
        <time>2021-09-07T12:19:16Z</time>
      </trkpt>
      <trkpt lat="44.46821" lon="5.51457">
        <ele>706.2</ele>
        <time>2021-09-07T12:19:17Z</time>
      </trkpt>
      <trkpt lat="44.46821" lon="5.51457">
        <ele>706.2</ele>
        <time>2021-09-07T12:19:18Z</time>
      </trkpt>
      <trkpt lat="44.46821" lon="5.51457">
        <ele>706.2</ele>
        <time>2021-09-07T12:19:19Z</time>
      </trkpt>
      <trkpt lat="44.46821" lon="5.51457">
        <ele>706.2</ele>
        <time>2021-09-07T12:19:20Z</time>
      </trkpt>
      <trkpt lat="44.46821" lon="5.51457">
        <ele>706.2</ele>
        <time>2021-09-07T12:19:21Z</time>
      </trkpt>
      <trkpt lat="44.46821" lon="5.51457">
        <ele>706.2</ele>
        <time>2021-09-07T12:19:22Z</time>
      </trkpt>
      <trkpt lat="44.46821" lon="5.51457">
        <ele>706.2</ele>
        <time>2021-09-07T12:19:23Z</time>
      </trkpt>
      <trkpt lat="44.46821" lon="5.51457">
        <ele>706.2</ele>
        <time>2021-09-07T12:19:24Z</time>
      </trkpt>
      <trkpt lat="44.46821" lon="5.51457">
        <ele>706.2</ele>
        <time>2021-09-07T12:19:25Z</time>
      </trkpt>
      <trkpt lat="44.46821" lon="5.51457">
        <ele>706.2</ele>
        <time>2021-09-07T12:19:26Z</time>
      </trkpt>
      <trkpt lat="44.46821" lon="5.51457">
        <ele>706.2</ele>
        <time>2021-09-07T12:19:27Z</time>
      </trkpt>
      <trkpt lat="44.46821" lon="5.51457">
        <ele>706.2</ele>
        <time>2021-09-07T12:19:28Z</time>
      </trkpt>
      <trkpt lat="44.46821" lon="5.51457">
        <ele>706.2</ele>
        <time>2021-09-07T12:19:29Z</time>
      </trkpt>
      <trkpt lat="44.46821" lon="5.51457">
        <ele>706.2</ele>
        <time>2021-09-07T12:19:30Z</time>
      </trkpt>
      <trkpt lat="44.46821" lon="5.51457">
        <ele>706.2</ele>
        <time>2021-09-07T12:19:31Z</time>
      </trkpt>
      <trkpt lat="44.46821" lon="5.51457">
        <ele>706.2</ele>
        <time>2021-09-07T12:19:32Z</time>
      </trkpt>
      <trkpt lat="44.46821" lon="5.51457">
        <ele>706.2</ele>
        <time>2021-09-07T12:19:33Z</time>
      </trkpt>
      <trkpt lat="44.46821" lon="5.51457">
        <ele>706.2</ele>
        <time>2021-09-07T12:19:34Z</time>
      </trkpt>
      <trkpt lat="44.46821" lon="5.51457">
        <ele>706.2</ele>
        <time>2021-09-07T12:19:35Z</time>
      </trkpt>
      <trkpt lat="44.46821" lon="5.51457">
        <ele>706.2</ele>
        <time>2021-09-07T12:19:36Z</time>
      </trkpt>
      <trkpt lat="44.46821" lon="5.51457">
        <ele>706.2</ele>
        <time>2021-09-07T12:19:37Z</time>
      </trkpt>
      <trkpt lat="44.46821" lon="5.51457">
        <ele>706.2</ele>
        <time>2021-09-07T12:19:38Z</time>
      </trkpt>
      <trkpt lat="44.4682" lon="5.51457">
        <ele>706.2</ele>
        <time>2021-09-07T12:19:39Z</time>
      </trkpt>
      <trkpt lat="44.4682" lon="5.51457">
        <ele>706.2</ele>
        <time>2021-09-07T12:19:40Z</time>
      </trkpt>
      <trkpt lat="44.4682" lon="5.51457">
        <ele>706.2</ele>
        <time>2021-09-07T12:19:41Z</time>
      </trkpt>
      <trkpt lat="44.4682" lon="5.51457">
        <ele>706.2</ele>
        <time>2021-09-07T12:19:42Z</time>
      </trkpt>
      <trkpt lat="44.4682" lon="5.51457">
        <ele>706.2</ele>
        <time>2021-09-07T12:19:43Z</time>
      </trkpt>
      <trkpt lat="44.4682" lon="5.51457">
        <ele>706.2</ele>
        <time>2021-09-07T12:19:44Z</time>
      </trkpt>
      <trkpt lat="44.4682" lon="5.51457">
        <ele>706.2</ele>
        <time>2021-09-07T12:19:45Z</time>
      </trkpt>
      <trkpt lat="44.4682" lon="5.51457">
        <ele>706.2</ele>
        <time>2021-09-07T12:19:46Z</time>
      </trkpt>
      <trkpt lat="44.4682" lon="5.51457">
        <ele>706.2</ele>
        <time>2021-09-07T12:19:47Z</time>
      </trkpt>
      <trkpt lat="44.4682" lon="5.51457">
        <ele>706.2</ele>
        <time>2021-09-07T12:19:48Z</time>
      </trkpt>
      <trkpt lat="44.4682" lon="5.51457">
        <ele>706.2</ele>
        <time>2021-09-07T12:19:49Z</time>
      </trkpt>
      <trkpt lat="44.4682" lon="5.51457">
        <ele>706.2</ele>
        <time>2021-09-07T12:19:50Z</time>
      </trkpt>
      <trkpt lat="44.4682" lon="5.51457">
        <ele>706.2</ele>
        <time>2021-09-07T12:19:51Z</time>
      </trkpt>
      <trkpt lat="44.4682" lon="5.51457">
        <ele>706.2</ele>
        <time>2021-09-07T12:19:52Z</time>
      </trkpt>
      <trkpt lat="44.4682" lon="5.51457">
        <ele>706.2</ele>
        <time>2021-09-07T12:19:53Z</time>
      </trkpt>
      <trkpt lat="44.4682" lon="5.51457">
        <ele>706.2</ele>
        <time>2021-09-07T12:19:54Z</time>
      </trkpt>
      <trkpt lat="44.4682" lon="5.51457">
        <ele>706.2</ele>
        <time>2021-09-07T12:19:55Z</time>
      </trkpt>
      <trkpt lat="44.4682" lon="5.51458">
        <ele>706.2</ele>
        <time>2021-09-07T12:19:56Z</time>
      </trkpt>
      <trkpt lat="44.4682" lon="5.51458">
        <ele>706.2</ele>
        <time>2021-09-07T12:19:57Z</time>
      </trkpt>
      <trkpt lat="44.4682" lon="5.51458">
        <ele>706.2</ele>
        <time>2021-09-07T12:19:58Z</time>
      </trkpt>
      <trkpt lat="44.4682" lon="5.51458">
        <ele>706.2</ele>
        <time>2021-09-07T12:19:59Z</time>
      </trkpt>
      <trkpt lat="44.4682" lon="5.51458">
        <ele>706.2</ele>
        <time>2021-09-07T12:20:00Z</time>
      </trkpt>
      <trkpt lat="44.46819" lon="5.51458">
        <ele>706.2</ele>
        <time>2021-09-07T12:20:01Z</time>
      </trkpt>
      <trkpt lat="44.46819" lon="5.51458">
        <ele>706.2</ele>
        <time>2021-09-07T12:20:02Z</time>
      </trkpt>
      <trkpt lat="44.46819" lon="5.51458">
        <ele>706.2</ele>
        <time>2021-09-07T12:20:03Z</time>
      </trkpt>
      <trkpt lat="44.46819" lon="5.51458">
        <ele>706.2</ele>
        <time>2021-09-07T12:20:04Z</time>
      </trkpt>
      <trkpt lat="44.46819" lon="5.51458">
        <ele>706.2</ele>
        <time>2021-09-07T12:20:05Z</time>
      </trkpt>
      <trkpt lat="44.46819" lon="5.51458">
        <ele>706.2</ele>
        <time>2021-09-07T12:20:06Z</time>
      </trkpt>
      <trkpt lat="44.46819" lon="5.51458">
        <ele>706.2</ele>
        <time>2021-09-07T12:20:07Z</time>
      </trkpt>
      <trkpt lat="44.46819" lon="5.51458">
        <ele>706.2</ele>
        <time>2021-09-07T12:20:08Z</time>
      </trkpt>
      <trkpt lat="44.46819" lon="5.51458">
        <ele>706.2</ele>
        <time>2021-09-07T12:20:09Z</time>
      </trkpt>
      <trkpt lat="44.46819" lon="5.51458">
        <ele>706.2</ele>
        <time>2021-09-07T12:20:10Z</time>
      </trkpt>
      <trkpt lat="44.46819" lon="5.51458">
        <ele>706.2</ele>
        <time>2021-09-07T12:20:11Z</time>
      </trkpt>
      <trkpt lat="44.46819" lon="5.51458">
        <ele>706.2</ele>
        <time>2021-09-07T12:20:12Z</time>
      </trkpt>
      <trkpt lat="44.46819" lon="5.51458">
        <ele>706.2</ele>
        <time>2021-09-07T12:20:13Z</time>
      </trkpt>
      <trkpt lat="44.46819" lon="5.51458">
        <ele>706.2</ele>
        <time>2021-09-07T12:20:14Z</time>
      </trkpt>
      <trkpt lat="44.46819" lon="5.51458">
        <ele>706.2</ele>
        <time>2021-09-07T12:20:15Z</time>
      </trkpt>
      <trkpt lat="44.46819" lon="5.51458">
        <ele>706.2</ele>
        <time>2021-09-07T12:20:16Z</time>
      </trkpt>
      <trkpt lat="44.46819" lon="5.51458">
        <ele>706.2</ele>
        <time>2021-09-07T12:20:17Z</time>
      </trkpt>
      <trkpt lat="44.46819" lon="5.51458">
        <ele>706.2</ele>
        <time>2021-09-07T12:20:18Z</time>
      </trkpt>
      <trkpt lat="44.46819" lon="5.51458">
        <ele>706.2</ele>
        <time>2021-09-07T12:20:19Z</time>
      </trkpt>
      <trkpt lat="44.46819" lon="5.51458">
        <ele>706.2</ele>
        <time>2021-09-07T12:20:20Z</time>
      </trkpt>
      <trkpt lat="44.46819" lon="5.51458">
        <ele>706.2</ele>
        <time>2021-09-07T12:20:21Z</time>
      </trkpt>
      <trkpt lat="44.46819" lon="5.51458">
        <ele>706.2</ele>
        <time>2021-09-07T12:20:22Z</time>
      </trkpt>
      <trkpt lat="44.46818" lon="5.51458">
        <ele>706.2</ele>
        <time>2021-09-07T12:20:23Z</time>
      </trkpt>
      <trkpt lat="44.46818" lon="5.51458">
        <ele>706.2</ele>
        <time>2021-09-07T12:20:24Z</time>
      </trkpt>
      <trkpt lat="44.46818" lon="5.51458">
        <ele>706.2</ele>
        <time>2021-09-07T12:20:25Z</time>
      </trkpt>
      <trkpt lat="44.46818" lon="5.51458">
        <ele>706.2</ele>
        <time>2021-09-07T12:20:26Z</time>
      </trkpt>
      <trkpt lat="44.46818" lon="5.51458">
        <ele>706.2</ele>
        <time>2021-09-07T12:20:27Z</time>
      </trkpt>
      <trkpt lat="44.46818" lon="5.51458">
        <ele>706.2</ele>
        <time>2021-09-07T12:20:28Z</time>
      </trkpt>
      <trkpt lat="44.46818" lon="5.51458">
        <ele>706.2</ele>
        <time>2021-09-07T12:20:29Z</time>
      </trkpt>
      <trkpt lat="44.46818" lon="5.51458">
        <ele>706.2</ele>
        <time>2021-09-07T12:20:30Z</time>
      </trkpt>
      <trkpt lat="44.46818" lon="5.51458">
        <ele>706.2</ele>
        <time>2021-09-07T12:20:31Z</time>
      </trkpt>
      <trkpt lat="44.46818" lon="5.51458">
        <ele>706.2</ele>
        <time>2021-09-07T12:20:32Z</time>
      </trkpt>
      <trkpt lat="44.46818" lon="5.51458">
        <ele>706.2</ele>
        <time>2021-09-07T12:20:33Z</time>
      </trkpt>
      <trkpt lat="44.46818" lon="5.51458">
        <ele>706.2</ele>
        <time>2021-09-07T12:20:34Z</time>
      </trkpt>
      <trkpt lat="44.46818" lon="5.51458">
        <ele>706.2</ele>
        <time>2021-09-07T12:20:35Z</time>
      </trkpt>
      <trkpt lat="44.46818" lon="5.51458">
        <ele>706.2</ele>
        <time>2021-09-07T12:20:36Z</time>
      </trkpt>
      <trkpt lat="44.46818" lon="5.51458">
        <ele>706.2</ele>
        <time>2021-09-07T12:20:37Z</time>
      </trkpt>
      <trkpt lat="44.46818" lon="5.51458">
        <ele>706.2</ele>
        <time>2021-09-07T12:20:38Z</time>
      </trkpt>
      <trkpt lat="44.46818" lon="5.51458">
        <ele>706.2</ele>
        <time>2021-09-07T12:20:39Z</time>
      </trkpt>
      <trkpt lat="44.46818" lon="5.51458">
        <ele>706.2</ele>
        <time>2021-09-07T12:20:40Z</time>
      </trkpt>
      <trkpt lat="44.46818" lon="5.51458">
        <ele>706.2</ele>
        <time>2021-09-07T12:20:41Z</time>
      </trkpt>
      <trkpt lat="44.46818" lon="5.51458">
        <ele>706.2</ele>
        <time>2021-09-07T12:20:42Z</time>
      </trkpt>
      <trkpt lat="44.46818" lon="5.51458">
        <ele>706.2</ele>
        <time>2021-09-07T12:20:43Z</time>
      </trkpt>
      <trkpt lat="44.46818" lon="5.51458">
        <ele>706.2</ele>
        <time>2021-09-07T12:20:44Z</time>
      </trkpt>
      <trkpt lat="44.46817" lon="5.51458">
        <ele>706.2</ele>
        <time>2021-09-07T12:20:45Z</time>
      </trkpt>
      <trkpt lat="44.46817" lon="5.51458">
        <ele>706.2</ele>
        <time>2021-09-07T12:20:46Z</time>
      </trkpt>
      <trkpt lat="44.46817" lon="5.51458">
        <ele>706.2</ele>
        <time>2021-09-07T12:20:47Z</time>
      </trkpt>
      <trkpt lat="44.46817" lon="5.51458">
        <ele>706.2</ele>
        <time>2021-09-07T12:20:48Z</time>
      </trkpt>
      <trkpt lat="44.46817" lon="5.51458">
        <ele>706.2</ele>
        <time>2021-09-07T12:20:49Z</time>
      </trkpt>
      <trkpt lat="44.46817" lon="5.51458">
        <ele>706.2</ele>
        <time>2021-09-07T12:20:50Z</time>
      </trkpt>
      <trkpt lat="44.46817" lon="5.51458">
        <ele>706.2</ele>
        <time>2021-09-07T12:20:51Z</time>
      </trkpt>
      <trkpt lat="44.46817" lon="5.51458">
        <ele>706.2</ele>
        <time>2021-09-07T12:20:52Z</time>
      </trkpt>
      <trkpt lat="44.46817" lon="5.51458">
        <ele>706.2</ele>
        <time>2021-09-07T12:20:53Z</time>
      </trkpt>
      <trkpt lat="44.46817" lon="5.51458">
        <ele>706.2</ele>
        <time>2021-09-07T12:20:54Z</time>
      </trkpt>
      <trkpt lat="44.46817" lon="5.51458">
        <ele>706.2</ele>
        <time>2021-09-07T12:20:55Z</time>
      </trkpt>
      <trkpt lat="44.46817" lon="5.51458">
        <ele>706.2</ele>
        <time>2021-09-07T12:20:56Z</time>
      </trkpt>
      <trkpt lat="44.46817" lon="5.51458">
        <ele>706.2</ele>
        <time>2021-09-07T12:20:57Z</time>
      </trkpt>
      <trkpt lat="44.46817" lon="5.51458">
        <ele>706.2</ele>
        <time>2021-09-07T12:20:58Z</time>
      </trkpt>
      <trkpt lat="44.46817" lon="5.51458">
        <ele>706.2</ele>
        <time>2021-09-07T12:20:59Z</time>
      </trkpt>
      <trkpt lat="44.46817" lon="5.51458">
        <ele>706.2</ele>
        <time>2021-09-07T12:21:00Z</time>
      </trkpt>
      <trkpt lat="44.46817" lon="5.51458">
        <ele>706.2</ele>
        <time>2021-09-07T12:21:01Z</time>
      </trkpt>
      <trkpt lat="44.46817" lon="5.51458">
        <ele>706.2</ele>
        <time>2021-09-07T12:21:02Z</time>
      </trkpt>
      <trkpt lat="44.46817" lon="5.51458">
        <ele>706.2</ele>
        <time>2021-09-07T12:21:03Z</time>
      </trkpt>
      <trkpt lat="44.46817" lon="5.51458">
        <ele>706.2</ele>
        <time>2021-09-07T12:21:04Z</time>
      </trkpt>
      <trkpt lat="44.46817" lon="5.51458">
        <ele>706.2</ele>
        <time>2021-09-07T12:21:05Z</time>
      </trkpt>
      <trkpt lat="44.46817" lon="5.51458">
        <ele>706.2</ele>
        <time>2021-09-07T12:21:06Z</time>
      </trkpt>
      <trkpt lat="44.46817" lon="5.51458">
        <ele>706.2</ele>
        <time>2021-09-07T12:21:07Z</time>
      </trkpt>
      <trkpt lat="44.46816" lon="5.51458">
        <ele>706.2</ele>
        <time>2021-09-07T12:21:08Z</time>
      </trkpt>
      <trkpt lat="44.46816" lon="5.51458">
        <ele>706.2</ele>
        <time>2021-09-07T12:21:09Z</time>
      </trkpt>
      <trkpt lat="44.46816" lon="5.51458">
        <ele>706.2</ele>
        <time>2021-09-07T12:21:10Z</time>
      </trkpt>
      <trkpt lat="44.46816" lon="5.51458">
        <ele>706.2</ele>
        <time>2021-09-07T12:21:11Z</time>
      </trkpt>
      <trkpt lat="44.46816" lon="5.51458">
        <ele>706.2</ele>
        <time>2021-09-07T12:21:12Z</time>
      </trkpt>
      <trkpt lat="44.46816" lon="5.51458">
        <ele>706.2</ele>
        <time>2021-09-07T12:21:13Z</time>
      </trkpt>
      <trkpt lat="44.46816" lon="5.51458">
        <ele>706.2</ele>
        <time>2021-09-07T12:21:14Z</time>
      </trkpt>
      <trkpt lat="44.46816" lon="5.51458">
        <ele>706.2</ele>
        <time>2021-09-07T12:21:15Z</time>
      </trkpt>
      <trkpt lat="44.46816" lon="5.51458">
        <ele>706.2</ele>
        <time>2021-09-07T12:21:16Z</time>
      </trkpt>
      <trkpt lat="44.46816" lon="5.51458">
        <ele>706.2</ele>
        <time>2021-09-07T12:21:17Z</time>
      </trkpt>
      <trkpt lat="44.46804" lon="5.51461">
        <ele>706.3</ele>
        <time>2021-09-07T12:21:18Z</time>
      </trkpt>
      <trkpt lat="44.46792" lon="5.51463">
        <ele>706.3</ele>
        <time>2021-09-07T12:21:19Z</time>
      </trkpt>
      <trkpt lat="44.4678" lon="5.51466">
        <ele>706.4</ele>
        <time>2021-09-07T12:21:20Z</time>
      </trkpt>
      <trkpt lat="44.46768" lon="5.51468">
        <ele>706.5</ele>
        <time>2021-09-07T12:21:21Z</time>
      </trkpt>
      <trkpt lat="44.46769" lon="5.51469">
        <ele>706.5</ele>
        <time>2021-09-07T12:21:22Z</time>
      </trkpt>
      <trkpt lat="44.46769" lon="5.51469">
        <ele>706.5</ele>
        <time>2021-09-07T12:21:23Z</time>
      </trkpt>
      <trkpt lat="44.46769" lon="5.51469">
        <ele>706.5</ele>
        <time>2021-09-07T12:21:24Z</time>
      </trkpt>
      <trkpt lat="44.46769" lon="5.5147">
        <ele>706.5</ele>
        <time>2021-09-07T12:21:25Z</time>
      </trkpt>
      <trkpt lat="44.46769" lon="5.5147">
        <ele>706.5</ele>
        <time>2021-09-07T12:21:26Z</time>
      </trkpt>
      <trkpt lat="44.46769" lon="5.5147">
        <ele>706.5</ele>
        <time>2021-09-07T12:21:27Z</time>
      </trkpt>
      <trkpt lat="44.46769" lon="5.5147">
        <ele>706.5</ele>
        <time>2021-09-07T12:21:28Z</time>
      </trkpt>
      <trkpt lat="44.46769" lon="5.5147">
        <ele>706.5</ele>
        <time>2021-09-07T12:21:29Z</time>
      </trkpt>
      <trkpt lat="44.46769" lon="5.5147">
        <ele>706.5</ele>
        <time>2021-09-07T12:21:30Z</time>
      </trkpt>
      <trkpt lat="44.46769" lon="5.5147">
        <ele>706.5</ele>
        <time>2021-09-07T12:21:31Z</time>
      </trkpt>
      <trkpt lat="44.46769" lon="5.5147">
        <ele>706.5</ele>
        <time>2021-09-07T12:21:32Z</time>
      </trkpt>
      <trkpt lat="44.46769" lon="5.5147">
        <ele>706.5</ele>
        <time>2021-09-07T12:21:33Z</time>
      </trkpt>
      <trkpt lat="44.4677" lon="5.51472">
        <ele>706.5</ele>
        <time>2021-09-07T12:21:34Z</time>
      </trkpt>
      <trkpt lat="44.4677" lon="5.51474">
        <ele>706.5</ele>
        <time>2021-09-07T12:21:35Z</time>
      </trkpt>
      <trkpt lat="44.46771" lon="5.51477">
        <ele>706.5</ele>
        <time>2021-09-07T12:21:36Z</time>
      </trkpt>
      <trkpt lat="44.46771" lon="5.5148">
        <ele>706.5</ele>
        <time>2021-09-07T12:21:37Z</time>
      </trkpt>
      <trkpt lat="44.46772" lon="5.51483">
        <ele>706.5</ele>
        <time>2021-09-07T12:21:38Z</time>
      </trkpt>
      <trkpt lat="44.46772" lon="5.51484">
        <ele>706.5</ele>
        <time>2021-09-07T12:21:39Z</time>
      </trkpt>
      <trkpt lat="44.46773" lon="5.51485">
        <ele>706.5</ele>
        <time>2021-09-07T12:21:40Z</time>
      </trkpt>
      <trkpt lat="44.46773" lon="5.51486">
        <ele>706.5</ele>
        <time>2021-09-07T12:21:41Z</time>
      </trkpt>
      <trkpt lat="44.46773" lon="5.51486">
        <ele>706.5</ele>
        <time>2021-09-07T12:21:42Z</time>
      </trkpt>
      <trkpt lat="44.46773" lon="5.51486">
        <ele>706.5</ele>
        <time>2021-09-07T12:21:43Z</time>
      </trkpt>
      <trkpt lat="44.46773" lon="5.51486">
        <ele>706.5</ele>
        <time>2021-09-07T12:21:44Z</time>
      </trkpt>
      <trkpt lat="44.46773" lon="5.51486">
        <ele>706.5</ele>
        <time>2021-09-07T12:21:45Z</time>
      </trkpt>
      <trkpt lat="44.46773" lon="5.51486">
        <ele>706.5</ele>
        <time>2021-09-07T12:21:46Z</time>
      </trkpt>
      <trkpt lat="44.46773" lon="5.51486">
        <ele>706.5</ele>
        <time>2021-09-07T12:21:47Z</time>
      </trkpt>
      <trkpt lat="44.46773" lon="5.51489">
        <ele>706.5</ele>
        <time>2021-09-07T12:21:48Z</time>
      </trkpt>
      <trkpt lat="44.46772" lon="5.51491">
        <ele>706.5</ele>
        <time>2021-09-07T12:21:49Z</time>
      </trkpt>
      <trkpt lat="44.46772" lon="5.51495">
        <ele>706.6</ele>
        <time>2021-09-07T12:21:50Z</time>
      </trkpt>
      <trkpt lat="44.46772" lon="5.51498">
        <ele>706.6</ele>
        <time>2021-09-07T12:21:51Z</time>
      </trkpt>
      <trkpt lat="44.46771" lon="5.515">
        <ele>706.6</ele>
        <time>2021-09-07T12:21:52Z</time>
      </trkpt>
      <trkpt lat="44.46771" lon="5.515">
        <ele>706.6</ele>
        <time>2021-09-07T12:21:53Z</time>
      </trkpt>
      <trkpt lat="44.46771" lon="5.51501">
        <ele>706.6</ele>
        <time>2021-09-07T12:21:54Z</time>
      </trkpt>
      <trkpt lat="44.46771" lon="5.51501">
        <ele>706.6</ele>
        <time>2021-09-07T12:21:55Z</time>
      </trkpt>
      <trkpt lat="44.46771" lon="5.51501">
        <ele>706.6</ele>
        <time>2021-09-07T12:21:56Z</time>
      </trkpt>
      <trkpt lat="44.46771" lon="5.51501">
        <ele>706.6</ele>
        <time>2021-09-07T12:21:57Z</time>
      </trkpt>
      <trkpt lat="44.46771" lon="5.51502">
        <ele>706.6</ele>
        <time>2021-09-07T12:21:58Z</time>
      </trkpt>
      <trkpt lat="44.46771" lon="5.51502">
        <ele>706.6</ele>
        <time>2021-09-07T12:21:59Z</time>
      </trkpt>
      <trkpt lat="44.46771" lon="5.51502">
        <ele>706.6</ele>
        <time>2021-09-07T12:22:00Z</time>
      </trkpt>
      <trkpt lat="44.46771" lon="5.51502">
        <ele>706.6</ele>
        <time>2021-09-07T12:22:01Z</time>
      </trkpt>
      <trkpt lat="44.46771" lon="5.51502">
        <ele>706.6</ele>
        <time>2021-09-07T12:22:02Z</time>
      </trkpt>
      <trkpt lat="44.46772" lon="5.51503">
        <ele>706.6</ele>
        <time>2021-09-07T12:22:03Z</time>
      </trkpt>
      <trkpt lat="44.46772" lon="5.51503">
        <ele>706.6</ele>
        <time>2021-09-07T12:22:04Z</time>
      </trkpt>
      <trkpt lat="44.46772" lon="5.51503">
        <ele>706.6</ele>
        <time>2021-09-07T12:22:05Z</time>
      </trkpt>
      <trkpt lat="44.46772" lon="5.51503">
        <ele>706.6</ele>
        <time>2021-09-07T12:22:06Z</time>
      </trkpt>
      <trkpt lat="44.46772" lon="5.51503">
        <ele>706.6</ele>
        <time>2021-09-07T12:22:07Z</time>
      </trkpt>
      <trkpt lat="44.46772" lon="5.51504">
        <ele>706.6</ele>
        <time>2021-09-07T12:22:08Z</time>
      </trkpt>
      <trkpt lat="44.46772" lon="5.51504">
        <ele>706.6</ele>
        <time>2021-09-07T12:22:09Z</time>
      </trkpt>
      <trkpt lat="44.46772" lon="5.51504">
        <ele>706.6</ele>
        <time>2021-09-07T12:22:10Z</time>
      </trkpt>
      <trkpt lat="44.46772" lon="5.51504">
        <ele>706.6</ele>
        <time>2021-09-07T12:22:11Z</time>
      </trkpt>
      <trkpt lat="44.46772" lon="5.51504">
        <ele>706.6</ele>
        <time>2021-09-07T12:22:12Z</time>
      </trkpt>
      <trkpt lat="44.46772" lon="5.51505">
        <ele>706.6</ele>
        <time>2021-09-07T12:22:13Z</time>
      </trkpt>
      <trkpt lat="44.46772" lon="5.51505">
        <ele>706.6</ele>
        <time>2021-09-07T12:22:14Z</time>
      </trkpt>
      <trkpt lat="44.46772" lon="5.51505">
        <ele>706.6</ele>
        <time>2021-09-07T12:22:15Z</time>
      </trkpt>
      <trkpt lat="44.46772" lon="5.51505">
        <ele>706.6</ele>
        <time>2021-09-07T12:22:16Z</time>
      </trkpt>
      <trkpt lat="44.46772" lon="5.51506">
        <ele>706.6</ele>
        <time>2021-09-07T12:22:17Z</time>
      </trkpt>
      <trkpt lat="44.46772" lon="5.51506">
        <ele>706.6</ele>
        <time>2021-09-07T12:22:18Z</time>
      </trkpt>
      <trkpt lat="44.46772" lon="5.51506">
        <ele>706.6</ele>
        <time>2021-09-07T12:22:19Z</time>
      </trkpt>
      <trkpt lat="44.46772" lon="5.51506">
        <ele>706.6</ele>
        <time>2021-09-07T12:22:20Z</time>
      </trkpt>
      <trkpt lat="44.46772" lon="5.51506">
        <ele>706.6</ele>
        <time>2021-09-07T12:22:21Z</time>
      </trkpt>
      <trkpt lat="44.46772" lon="5.51507">
        <ele>706.6</ele>
        <time>2021-09-07T12:22:22Z</time>
      </trkpt>
      <trkpt lat="44.46772" lon="5.51507">
        <ele>706.6</ele>
        <time>2021-09-07T12:22:23Z</time>
      </trkpt>
      <trkpt lat="44.46772" lon="5.51507">
        <ele>706.6</ele>
        <time>2021-09-07T12:22:24Z</time>
      </trkpt>
      <trkpt lat="44.46772" lon="5.51507">
        <ele>706.6</ele>
        <time>2021-09-07T12:22:25Z</time>
      </trkpt>
      <trkpt lat="44.46772" lon="5.51507">
        <ele>706.6</ele>
        <time>2021-09-07T12:22:26Z</time>
      </trkpt>
      <trkpt lat="44.46772" lon="5.51508">
        <ele>706.6</ele>
        <time>2021-09-07T12:22:27Z</time>
      </trkpt>
      <trkpt lat="44.46773" lon="5.51508">
        <ele>706.6</ele>
        <time>2021-09-07T12:22:28Z</time>
      </trkpt>
      <trkpt lat="44.46773" lon="5.51508">
        <ele>706.6</ele>
        <time>2021-09-07T12:22:29Z</time>
      </trkpt>
      <trkpt lat="44.46774" lon="5.51513">
        <ele>706.6</ele>
        <time>2021-09-07T12:22:30Z</time>
      </trkpt>
      <trkpt lat="44.46774" lon="5.51514">
        <ele>706.6</ele>
        <time>2021-09-07T12:22:31Z</time>
      </trkpt>
      <trkpt lat="44.46775" lon="5.51515">
        <ele>706.6</ele>
        <time>2021-09-07T12:22:32Z</time>
      </trkpt>
      <trkpt lat="44.46776" lon="5.51515">
        <ele>706.6</ele>
        <time>2021-09-07T12:22:33Z</time>
      </trkpt>
      <trkpt lat="44.46776" lon="5.51515">
        <ele>706.6</ele>
        <time>2021-09-07T12:22:34Z</time>
      </trkpt>
      <trkpt lat="44.46776" lon="5.51515">
        <ele>706.6</ele>
        <time>2021-09-07T12:22:35Z</time>
      </trkpt>
      <trkpt lat="44.46776" lon="5.51515">
        <ele>706.6</ele>
        <time>2021-09-07T12:22:36Z</time>
      </trkpt>
      <trkpt lat="44.46776" lon="5.51515">
        <ele>706.6</ele>
        <time>2021-09-07T12:22:37Z</time>
      </trkpt>
      <trkpt lat="44.46776" lon="5.51515">
        <ele>706.6</ele>
        <time>2021-09-07T12:22:38Z</time>
      </trkpt>
      <trkpt lat="44.46776" lon="5.51515">
        <ele>706.6</ele>
        <time>2021-09-07T12:22:39Z</time>
      </trkpt>
      <trkpt lat="44.46776" lon="5.51515">
        <ele>706.6</ele>
        <time>2021-09-07T12:22:40Z</time>
      </trkpt>
      <trkpt lat="44.46776" lon="5.51515">
        <ele>706.6</ele>
        <time>2021-09-07T12:22:41Z</time>
      </trkpt>
      <trkpt lat="44.46776" lon="5.51515">
        <ele>706.6</ele>
        <time>2021-09-07T12:22:42Z</time>
      </trkpt>
      <trkpt lat="44.46776" lon="5.51515">
        <ele>706.6</ele>
        <time>2021-09-07T12:22:43Z</time>
      </trkpt>
      <trkpt lat="44.46776" lon="5.51515">
        <ele>706.6</ele>
        <time>2021-09-07T12:22:44Z</time>
      </trkpt>
      <trkpt lat="44.46776" lon="5.51515">
        <ele>706.6</ele>
        <time>2021-09-07T12:22:45Z</time>
      </trkpt>
      <trkpt lat="44.46776" lon="5.51515">
        <ele>706.6</ele>
        <time>2021-09-07T12:22:46Z</time>
      </trkpt>
      <trkpt lat="44.46776" lon="5.51515">
        <ele>706.6</ele>
        <time>2021-09-07T12:22:47Z</time>
      </trkpt>
      <trkpt lat="44.46776" lon="5.51515">
        <ele>706.6</ele>
        <time>2021-09-07T12:22:48Z</time>
      </trkpt>
      <trkpt lat="44.46776" lon="5.51515">
        <ele>706.6</ele>
        <time>2021-09-07T12:22:49Z</time>
      </trkpt>
      <trkpt lat="44.46776" lon="5.51515">
        <ele>706.6</ele>
        <time>2021-09-07T12:22:50Z</time>
      </trkpt>
      <trkpt lat="44.46776" lon="5.51515">
        <ele>706.6</ele>
        <time>2021-09-07T12:22:51Z</time>
      </trkpt>
      <trkpt lat="44.46776" lon="5.51515">
        <ele>706.6</ele>
        <time>2021-09-07T12:22:52Z</time>
      </trkpt>
      <trkpt lat="44.46776" lon="5.51515">
        <ele>706.6</ele>
        <time>2021-09-07T12:22:53Z</time>
      </trkpt>
      <trkpt lat="44.46776" lon="5.51515">
        <ele>706.6</ele>
        <time>2021-09-07T12:22:54Z</time>
      </trkpt>
      <trkpt lat="44.46776" lon="5.51515">
        <ele>706.6</ele>
        <time>2021-09-07T12:22:55Z</time>
      </trkpt>
      <trkpt lat="44.46776" lon="5.51515">
        <ele>706.6</ele>
        <time>2021-09-07T12:22:56Z</time>
      </trkpt>
      <trkpt lat="44.46776" lon="5.51515">
        <ele>706.6</ele>
        <time>2021-09-07T12:22:57Z</time>
      </trkpt>
      <trkpt lat="44.46776" lon="5.51515">
        <ele>706.6</ele>
        <time>2021-09-07T12:22:58Z</time>
      </trkpt>
      <trkpt lat="44.46776" lon="5.51515">
        <ele>706.6</ele>
        <time>2021-09-07T12:22:59Z</time>
      </trkpt>
      <trkpt lat="44.46776" lon="5.51515">
        <ele>706.6</ele>
        <time>2021-09-07T12:23:00Z</time>
      </trkpt>
      <trkpt lat="44.46776" lon="5.51515">
        <ele>706.6</ele>
        <time>2021-09-07T12:23:01Z</time>
      </trkpt>
      <trkpt lat="44.46776" lon="5.51515">
        <ele>706.6</ele>
        <time>2021-09-07T12:23:02Z</time>
      </trkpt>
      <trkpt lat="44.46776" lon="5.51515">
        <ele>706.6</ele>
        <time>2021-09-07T12:23:03Z</time>
      </trkpt>
      <trkpt lat="44.46776" lon="5.51515">
        <ele>706.6</ele>
        <time>2021-09-07T12:23:04Z</time>
      </trkpt>
      <trkpt lat="44.46776" lon="5.51515">
        <ele>706.6</ele>
        <time>2021-09-07T12:23:05Z</time>
      </trkpt>
      <trkpt lat="44.46776" lon="5.51515">
        <ele>706.6</ele>
        <time>2021-09-07T12:23:06Z</time>
      </trkpt>
      <trkpt lat="44.46776" lon="5.51515">
        <ele>706.6</ele>
        <time>2021-09-07T12:23:07Z</time>
      </trkpt>
      <trkpt lat="44.46776" lon="5.51515">
        <ele>706.6</ele>
        <time>2021-09-07T12:23:08Z</time>
      </trkpt>
      <trkpt lat="44.46777" lon="5.51513">
        <ele>706.7</ele>
        <time>2021-09-07T12:23:09Z</time>
      </trkpt>
      <trkpt lat="44.46777" lon="5.5151">
        <ele>706.7</ele>
        <time>2021-09-07T12:23:10Z</time>
      </trkpt>
      <trkpt lat="44.46778" lon="5.51507">
        <ele>706.7</ele>
        <time>2021-09-07T12:23:11Z</time>
      </trkpt>
      <trkpt lat="44.46778" lon="5.51503">
        <ele>706.7</ele>
        <time>2021-09-07T12:23:12Z</time>
      </trkpt>
      <trkpt lat="44.46778" lon="5.51503">
        <ele>706.7</ele>
        <time>2021-09-07T12:23:13Z</time>
      </trkpt>
      <trkpt lat="44.46778" lon="5.51502">
        <ele>706.7</ele>
        <time>2021-09-07T12:23:14Z</time>
      </trkpt>
      <trkpt lat="44.46778" lon="5.51501">
        <ele>706.7</ele>
        <time>2021-09-07T12:23:15Z</time>
      </trkpt>
      <trkpt lat="44.46778" lon="5.515">
        <ele>706.7</ele>
        <time>2021-09-07T12:23:16Z</time>
      </trkpt>
      <trkpt lat="44.46778" lon="5.515">
        <ele>706.7</ele>
        <time>2021-09-07T12:23:17Z</time>
      </trkpt>
      <trkpt lat="44.46778" lon="5.515">
        <ele>706.7</ele>
        <time>2021-09-07T12:23:18Z</time>
      </trkpt>
      <trkpt lat="44.46778" lon="5.515">
        <ele>706.7</ele>
        <time>2021-09-07T12:23:19Z</time>
      </trkpt>
      <trkpt lat="44.46778" lon="5.515">
        <ele>706.7</ele>
        <time>2021-09-07T12:23:20Z</time>
      </trkpt>
      <trkpt lat="44.46778" lon="5.51499">
        <ele>706.7</ele>
        <time>2021-09-07T12:23:21Z</time>
      </trkpt>
      <trkpt lat="44.46778" lon="5.51499">
        <ele>706.7</ele>
        <time>2021-09-07T12:23:22Z</time>
      </trkpt>
      <trkpt lat="44.46778" lon="5.51499">
        <ele>706.7</ele>
        <time>2021-09-07T12:23:23Z</time>
      </trkpt>
      <trkpt lat="44.46778" lon="5.51499">
        <ele>706.7</ele>
        <time>2021-09-07T12:23:24Z</time>
      </trkpt>
      <trkpt lat="44.46778" lon="5.51499">
        <ele>706.7</ele>
        <time>2021-09-07T12:23:25Z</time>
      </trkpt>
      <trkpt lat="44.46778" lon="5.51499">
        <ele>706.7</ele>
        <time>2021-09-07T12:23:26Z</time>
      </trkpt>
      <trkpt lat="44.46778" lon="5.51499">
        <ele>706.7</ele>
        <time>2021-09-07T12:23:27Z</time>
      </trkpt>
      <trkpt lat="44.46778" lon="5.51499">
        <ele>706.7</ele>
        <time>2021-09-07T12:23:28Z</time>
      </trkpt>
      <trkpt lat="44.46778" lon="5.51499">
        <ele>706.7</ele>
        <time>2021-09-07T12:23:29Z</time>
      </trkpt>
      <trkpt lat="44.46778" lon="5.51499">
        <ele>706.7</ele>
        <time>2021-09-07T12:23:30Z</time>
      </trkpt>
      <trkpt lat="44.46778" lon="5.51499">
        <ele>706.7</ele>
        <time>2021-09-07T12:23:31Z</time>
      </trkpt>
      <trkpt lat="44.46778" lon="5.51499">
        <ele>706.7</ele>
        <time>2021-09-07T12:23:32Z</time>
      </trkpt>
      <trkpt lat="44.46778" lon="5.51499">
        <ele>706.7</ele>
        <time>2021-09-07T12:23:33Z</time>
      </trkpt>
      <trkpt lat="44.46778" lon="5.51499">
        <ele>706.7</ele>
        <time>2021-09-07T12:23:34Z</time>
      </trkpt>
      <trkpt lat="44.46778" lon="5.51499">
        <ele>706.7</ele>
        <time>2021-09-07T12:23:35Z</time>
      </trkpt>
      <trkpt lat="44.46778" lon="5.51499">
        <ele>706.7</ele>
        <time>2021-09-07T12:23:36Z</time>
      </trkpt>
      <trkpt lat="44.46778" lon="5.51499">
        <ele>706.7</ele>
        <time>2021-09-07T12:23:37Z</time>
      </trkpt>
      <trkpt lat="44.46778" lon="5.51499">
        <ele>706.7</ele>
        <time>2021-09-07T12:23:38Z</time>
      </trkpt>
      <trkpt lat="44.46778" lon="5.51499">
        <ele>706.7</ele>
        <time>2021-09-07T12:23:39Z</time>
      </trkpt>
      <trkpt lat="44.46778" lon="5.51499">
        <ele>706.7</ele>
        <time>2021-09-07T12:23:40Z</time>
      </trkpt>
      <trkpt lat="44.46778" lon="5.51499">
        <ele>706.7</ele>
        <time>2021-09-07T12:23:41Z</time>
      </trkpt>
      <trkpt lat="44.46778" lon="5.51499">
        <ele>706.7</ele>
        <time>2021-09-07T12:23:42Z</time>
      </trkpt>
      <trkpt lat="44.46778" lon="5.51499">
        <ele>706.7</ele>
        <time>2021-09-07T12:23:43Z</time>
      </trkpt>
      <trkpt lat="44.46778" lon="5.51499">
        <ele>706.7</ele>
        <time>2021-09-07T12:23:44Z</time>
      </trkpt>
      <trkpt lat="44.46778" lon="5.51499">
        <ele>706.7</ele>
        <time>2021-09-07T12:23:45Z</time>
      </trkpt>
      <trkpt lat="44.46778" lon="5.51499">
        <ele>706.7</ele>
        <time>2021-09-07T12:23:46Z</time>
      </trkpt>
      <trkpt lat="44.46778" lon="5.51499">
        <ele>706.7</ele>
        <time>2021-09-07T12:23:47Z</time>
      </trkpt>
      <trkpt lat="44.46778" lon="5.51499">
        <ele>706.7</ele>
        <time>2021-09-07T12:23:48Z</time>
      </trkpt>
      <trkpt lat="44.46779" lon="5.51498">
        <ele>706.7</ele>
        <time>2021-09-07T12:23:49Z</time>
      </trkpt>
      <trkpt lat="44.4678" lon="5.51498">
        <ele>706.7</ele>
        <time>2021-09-07T12:23:50Z</time>
      </trkpt>
      <trkpt lat="44.46781" lon="5.51497">
        <ele>706.7</ele>
        <time>2021-09-07T12:23:51Z</time>
      </trkpt>
      <trkpt lat="44.46782" lon="5.51496">
        <ele>706.7</ele>
        <time>2021-09-07T12:23:52Z</time>
      </trkpt>
      <trkpt lat="44.46783" lon="5.51495">
        <ele>706.7</ele>
        <time>2021-09-07T12:23:53Z</time>
      </trkpt>
      <trkpt lat="44.46784" lon="5.51494">
        <ele>706.7</ele>
        <time>2021-09-07T12:23:54Z</time>
      </trkpt>
      <trkpt lat="44.46785" lon="5.51494">
        <ele>706.7</ele>
        <time>2021-09-07T12:23:55Z</time>
      </trkpt>
      <trkpt lat="44.46785" lon="5.51493">
        <ele>706.7</ele>
        <time>2021-09-07T12:23:56Z</time>
      </trkpt>
      <trkpt lat="44.46786" lon="5.51492">
        <ele>706.7</ele>
        <time>2021-09-07T12:23:57Z</time>
      </trkpt>
      <trkpt lat="44.46786" lon="5.51491">
        <ele>706.8</ele>
        <time>2021-09-07T12:23:58Z</time>
      </trkpt>
      <trkpt lat="44.46787" lon="5.5149">
        <ele>706.8</ele>
        <time>2021-09-07T12:23:59Z</time>
      </trkpt>
      <trkpt lat="44.46787" lon="5.5149">
        <ele>706.8</ele>
        <time>2021-09-07T12:24:00Z</time>
      </trkpt>
      <trkpt lat="44.46787" lon="5.51489">
        <ele>706.8</ele>
        <time>2021-09-07T12:24:01Z</time>
      </trkpt>
      <trkpt lat="44.46786" lon="5.51487">
        <ele>706.8</ele>
        <time>2021-09-07T12:24:02Z</time>
      </trkpt>
      <trkpt lat="44.46786" lon="5.51486">
        <ele>706.8</ele>
        <time>2021-09-07T12:24:03Z</time>
      </trkpt>
      <trkpt lat="44.46786" lon="5.51484">
        <ele>706.8</ele>
        <time>2021-09-07T12:24:04Z</time>
      </trkpt>
      <trkpt lat="44.46786" lon="5.51483">
        <ele>706.8</ele>
        <time>2021-09-07T12:24:05Z</time>
      </trkpt>
      <trkpt lat="44.46785" lon="5.51482">
        <ele>706.8</ele>
        <time>2021-09-07T12:24:06Z</time>
      </trkpt>
      <trkpt lat="44.46785" lon="5.51481">
        <ele>706.8</ele>
        <time>2021-09-07T12:24:07Z</time>
      </trkpt>
      <trkpt lat="44.46784" lon="5.5148">
        <ele>706.8</ele>
        <time>2021-09-07T12:24:08Z</time>
      </trkpt>
      <trkpt lat="44.46784" lon="5.5148">
        <ele>706.8</ele>
        <time>2021-09-07T12:24:09Z</time>
      </trkpt>
      <trkpt lat="44.46783" lon="5.51479">
        <ele>706.8</ele>
        <time>2021-09-07T12:24:10Z</time>
      </trkpt>
      <trkpt lat="44.46783" lon="5.51478">
        <ele>706.8</ele>
        <time>2021-09-07T12:24:11Z</time>
      </trkpt>
      <trkpt lat="44.46783" lon="5.51478">
        <ele>706.8</ele>
        <time>2021-09-07T12:24:12Z</time>
      </trkpt>
      <trkpt lat="44.46783" lon="5.51478">
        <ele>706.8</ele>
        <time>2021-09-07T12:24:13Z</time>
      </trkpt>
      <trkpt lat="44.46783" lon="5.51477">
        <ele>706.8</ele>
        <time>2021-09-07T12:24:14Z</time>
      </trkpt>
      <trkpt lat="44.46783" lon="5.51477">
        <ele>706.8</ele>
        <time>2021-09-07T12:24:15Z</time>
      </trkpt>
      <trkpt lat="44.46783" lon="5.51477">
        <ele>706.8</ele>
        <time>2021-09-07T12:24:16Z</time>
      </trkpt>
      <trkpt lat="44.46783" lon="5.51477">
        <ele>706.8</ele>
        <time>2021-09-07T12:24:17Z</time>
      </trkpt>
      <trkpt lat="44.46783" lon="5.51477">
        <ele>706.8</ele>
        <time>2021-09-07T12:24:18Z</time>
      </trkpt>
      <trkpt lat="44.46783" lon="5.51477">
        <ele>706.8</ele>
        <time>2021-09-07T12:24:19Z</time>
      </trkpt>
      <trkpt lat="44.46783" lon="5.51477">
        <ele>706.8</ele>
        <time>2021-09-07T12:24:20Z</time>
      </trkpt>
      <trkpt lat="44.46783" lon="5.51478">
        <ele>706.8</ele>
        <time>2021-09-07T12:24:21Z</time>
      </trkpt>
      <trkpt lat="44.46783" lon="5.51478">
        <ele>706.8</ele>
        <time>2021-09-07T12:24:22Z</time>
      </trkpt>
      <trkpt lat="44.46783" lon="5.51478">
        <ele>706.8</ele>
        <time>2021-09-07T12:24:23Z</time>
      </trkpt>
      <trkpt lat="44.46782" lon="5.51478">
        <ele>706.8</ele>
        <time>2021-09-07T12:24:24Z</time>
      </trkpt>
      <trkpt lat="44.46782" lon="5.51478">
        <ele>706.8</ele>
        <time>2021-09-07T12:24:25Z</time>
      </trkpt>
      <trkpt lat="44.46782" lon="5.51478">
        <ele>706.8</ele>
        <time>2021-09-07T12:24:26Z</time>
      </trkpt>
      <trkpt lat="44.46782" lon="5.51478">
        <ele>706.8</ele>
        <time>2021-09-07T12:24:27Z</time>
      </trkpt>
      <trkpt lat="44.46782" lon="5.51478">
        <ele>706.8</ele>
        <time>2021-09-07T12:24:28Z</time>
      </trkpt>
      <trkpt lat="44.46782" lon="5.51478">
        <ele>706.8</ele>
        <time>2021-09-07T12:24:29Z</time>
      </trkpt>
      <trkpt lat="44.46782" lon="5.51477">
        <ele>706.8</ele>
        <time>2021-09-07T12:24:30Z</time>
      </trkpt>
      <trkpt lat="44.46782" lon="5.51477">
        <ele>706.8</ele>
        <time>2021-09-07T12:24:31Z</time>
      </trkpt>
      <trkpt lat="44.46782" lon="5.51477">
        <ele>706.8</ele>
        <time>2021-09-07T12:24:32Z</time>
      </trkpt>
      <trkpt lat="44.46781" lon="5.51477">
        <ele>706.8</ele>
        <time>2021-09-07T12:24:33Z</time>
      </trkpt>
      <trkpt lat="44.4678" lon="5.51477">
        <ele>706.8</ele>
        <time>2021-09-07T12:24:34Z</time>
      </trkpt>
      <trkpt lat="44.46779" lon="5.51477">
        <ele>706.8</ele>
        <time>2021-09-07T12:24:35Z</time>
      </trkpt>
      <trkpt lat="44.46777" lon="5.51478">
        <ele>706.8</ele>
        <time>2021-09-07T12:24:36Z</time>
      </trkpt>
      <trkpt lat="44.46776" lon="5.51478">
        <ele>706.9</ele>
        <time>2021-09-07T12:24:37Z</time>
      </trkpt>
      <trkpt lat="44.46776" lon="5.51479">
        <ele>706.9</ele>
        <time>2021-09-07T12:24:38Z</time>
      </trkpt>
      <trkpt lat="44.46776" lon="5.51479">
        <ele>706.9</ele>
        <time>2021-09-07T12:24:39Z</time>
      </trkpt>
      <trkpt lat="44.46776" lon="5.51479">
        <ele>706.9</ele>
        <time>2021-09-07T12:24:40Z</time>
      </trkpt>
      <trkpt lat="44.46775" lon="5.51479">
        <ele>706.9</ele>
        <time>2021-09-07T12:24:41Z</time>
      </trkpt>
      <trkpt lat="44.46775" lon="5.5148">
        <ele>706.9</ele>
        <time>2021-09-07T12:24:42Z</time>
      </trkpt>
      <trkpt lat="44.46775" lon="5.5148">
        <ele>706.9</ele>
        <time>2021-09-07T12:24:43Z</time>
      </trkpt>
      <trkpt lat="44.46775" lon="5.5148">
        <ele>706.9</ele>
        <time>2021-09-07T12:24:44Z</time>
      </trkpt>
      <trkpt lat="44.46775" lon="5.51481">
        <ele>706.9</ele>
        <time>2021-09-07T12:24:45Z</time>
      </trkpt>
      <trkpt lat="44.46775" lon="5.51481">
        <ele>706.9</ele>
        <time>2021-09-07T12:24:46Z</time>
      </trkpt>
      <trkpt lat="44.46775" lon="5.51481">
        <ele>706.9</ele>
        <time>2021-09-07T12:24:47Z</time>
      </trkpt>
      <trkpt lat="44.46775" lon="5.51481">
        <ele>706.9</ele>
        <time>2021-09-07T12:24:48Z</time>
      </trkpt>
      <trkpt lat="44.46775" lon="5.51482">
        <ele>706.9</ele>
        <time>2021-09-07T12:24:49Z</time>
      </trkpt>
      <trkpt lat="44.46774" lon="5.51482">
        <ele>706.9</ele>
        <time>2021-09-07T12:24:50Z</time>
      </trkpt>
      <trkpt lat="44.46774" lon="5.51482">
        <ele>706.9</ele>
        <time>2021-09-07T12:24:51Z</time>
      </trkpt>
      <trkpt lat="44.46774" lon="5.51482">
        <ele>706.9</ele>
        <time>2021-09-07T12:24:52Z</time>
      </trkpt>
      <trkpt lat="44.46774" lon="5.51483">
        <ele>706.9</ele>
        <time>2021-09-07T12:24:53Z</time>
      </trkpt>
      <trkpt lat="44.46774" lon="5.51483">
        <ele>706.9</ele>
        <time>2021-09-07T12:24:54Z</time>
      </trkpt>
      <trkpt lat="44.46775" lon="5.51484">
        <ele>706.9</ele>
        <time>2021-09-07T12:24:55Z</time>
      </trkpt>
      <trkpt lat="44.46776" lon="5.51485">
        <ele>706.9</ele>
        <time>2021-09-07T12:24:56Z</time>
      </trkpt>
      <trkpt lat="44.46774" lon="5.51483">
        <ele>706.9</ele>
        <time>2021-09-07T12:24:57Z</time>
      </trkpt>
      <trkpt lat="44.46774" lon="5.51484">
        <ele>706.9</ele>
        <time>2021-09-07T12:24:58Z</time>
      </trkpt>
      <trkpt lat="44.46775" lon="5.51485">
        <ele>706.9</ele>
        <time>2021-09-07T12:24:59Z</time>
      </trkpt>
      <trkpt lat="44.46776" lon="5.51486">
        <ele>706.9</ele>
        <time>2021-09-07T12:25:00Z</time>
      </trkpt>
      <trkpt lat="44.46776" lon="5.51487">
        <ele>706.9</ele>
        <time>2021-09-07T12:25:01Z</time>
      </trkpt>
      <trkpt lat="44.46776" lon="5.51487">
        <ele>706.9</ele>
        <time>2021-09-07T12:25:02Z</time>
      </trkpt>
      <trkpt lat="44.46777" lon="5.51488">
        <ele>706.9</ele>
        <time>2021-09-07T12:25:03Z</time>
      </trkpt>
      <trkpt lat="44.46777" lon="5.51488">
        <ele>706.9</ele>
        <time>2021-09-07T12:25:04Z</time>
      </trkpt>
      <trkpt lat="44.46777" lon="5.51488">
        <ele>706.9</ele>
        <time>2021-09-07T12:25:05Z</time>
      </trkpt>
      <trkpt lat="44.46777" lon="5.51488">
        <ele>706.9</ele>
        <time>2021-09-07T12:25:06Z</time>
      </trkpt>
      <trkpt lat="44.46777" lon="5.51488">
        <ele>706.9</ele>
        <time>2021-09-07T12:25:07Z</time>
      </trkpt>
      <trkpt lat="44.46777" lon="5.51488">
        <ele>706.9</ele>
        <time>2021-09-07T12:25:08Z</time>
      </trkpt>
      <trkpt lat="44.46777" lon="5.51488">
        <ele>706.9</ele>
        <time>2021-09-07T12:25:09Z</time>
      </trkpt>
      <trkpt lat="44.46777" lon="5.51488">
        <ele>706.9</ele>
        <time>2021-09-07T12:25:10Z</time>
      </trkpt>
      <trkpt lat="44.46777" lon="5.51488">
        <ele>706.9</ele>
        <time>2021-09-07T12:25:11Z</time>
      </trkpt>
      <trkpt lat="44.46777" lon="5.51488">
        <ele>706.9</ele>
        <time>2021-09-07T12:25:12Z</time>
      </trkpt>
      <trkpt lat="44.46777" lon="5.51488">
        <ele>706.9</ele>
        <time>2021-09-07T12:25:13Z</time>
      </trkpt>
      <trkpt lat="44.46777" lon="5.51488">
        <ele>706.9</ele>
        <time>2021-09-07T12:25:14Z</time>
      </trkpt>
      <trkpt lat="44.46777" lon="5.51488">
        <ele>706.9</ele>
        <time>2021-09-07T12:25:15Z</time>
      </trkpt>
      <trkpt lat="44.46777" lon="5.51488">
        <ele>706.9</ele>
        <time>2021-09-07T12:25:16Z</time>
      </trkpt>
      <trkpt lat="44.46777" lon="5.51488">
        <ele>706.9</ele>
        <time>2021-09-07T12:25:17Z</time>
      </trkpt>
      <trkpt lat="44.46777" lon="5.51488">
        <ele>706.9</ele>
        <time>2021-09-07T12:25:18Z</time>
      </trkpt>
      <trkpt lat="44.46777" lon="5.51488">
        <ele>706.9</ele>
        <time>2021-09-07T12:25:19Z</time>
      </trkpt>
      <trkpt lat="44.46778" lon="5.51488">
        <ele>706.9</ele>
        <time>2021-09-07T12:25:20Z</time>
      </trkpt>
      <trkpt lat="44.46778" lon="5.51488">
        <ele>706.9</ele>
        <time>2021-09-07T12:25:21Z</time>
      </trkpt>
      <trkpt lat="44.46778" lon="5.51488">
        <ele>706.9</ele>
        <time>2021-09-07T12:25:22Z</time>
      </trkpt>
      <trkpt lat="44.46778" lon="5.51488">
        <ele>706.9</ele>
        <time>2021-09-07T12:25:23Z</time>
      </trkpt>
      <trkpt lat="44.46778" lon="5.51488">
        <ele>706.9</ele>
        <time>2021-09-07T12:25:24Z</time>
      </trkpt>
      <trkpt lat="44.46778" lon="5.51488">
        <ele>706.9</ele>
        <time>2021-09-07T12:25:25Z</time>
      </trkpt>
      <trkpt lat="44.46778" lon="5.51488">
        <ele>706.9</ele>
        <time>2021-09-07T12:25:26Z</time>
      </trkpt>
      <trkpt lat="44.46778" lon="5.51488">
        <ele>706.9</ele>
        <time>2021-09-07T12:25:27Z</time>
      </trkpt>
      <trkpt lat="44.46778" lon="5.51488">
        <ele>706.9</ele>
        <time>2021-09-07T12:25:28Z</time>
      </trkpt>
      <trkpt lat="44.46778" lon="5.51489">
        <ele>706.9</ele>
        <time>2021-09-07T12:25:29Z</time>
      </trkpt>
      <trkpt lat="44.46778" lon="5.51489">
        <ele>706.9</ele>
        <time>2021-09-07T12:25:30Z</time>
      </trkpt>
      <trkpt lat="44.46778" lon="5.51489">
        <ele>706.9</ele>
        <time>2021-09-07T12:25:31Z</time>
      </trkpt>
      <trkpt lat="44.46778" lon="5.51489">
        <ele>706.9</ele>
        <time>2021-09-07T12:25:32Z</time>
      </trkpt>
      <trkpt lat="44.46778" lon="5.51488">
        <ele>706.9</ele>
        <time>2021-09-07T12:25:33Z</time>
      </trkpt>
      <trkpt lat="44.46778" lon="5.51488">
        <ele>706.9</ele>
        <time>2021-09-07T12:25:34Z</time>
      </trkpt>
      <trkpt lat="44.46778" lon="5.51488">
        <ele>706.9</ele>
        <time>2021-09-07T12:25:35Z</time>
      </trkpt>
      <trkpt lat="44.46778" lon="5.51488">
        <ele>706.9</ele>
        <time>2021-09-07T12:25:36Z</time>
      </trkpt>
      <trkpt lat="44.46778" lon="5.51488">
        <ele>706.9</ele>
        <time>2021-09-07T12:25:37Z</time>
      </trkpt>
      <trkpt lat="44.46778" lon="5.51488">
        <ele>706.9</ele>
        <time>2021-09-07T12:25:38Z</time>
      </trkpt>
      <trkpt lat="44.46778" lon="5.51488">
        <ele>706.9</ele>
        <time>2021-09-07T12:25:39Z</time>
      </trkpt>
      <trkpt lat="44.46777" lon="5.51487">
        <ele>706.9</ele>
        <time>2021-09-07T12:25:40Z</time>
      </trkpt>
      <trkpt lat="44.46778" lon="5.51486">
        <ele>706.9</ele>
        <time>2021-09-07T12:25:41Z</time>
      </trkpt>
      <trkpt lat="44.46778" lon="5.51484">
        <ele>706.9</ele>
        <time>2021-09-07T12:25:42Z</time>
      </trkpt>
      <trkpt lat="44.46778" lon="5.51483">
        <ele>707</ele>
        <time>2021-09-07T12:25:43Z</time>
      </trkpt>
      <trkpt lat="44.46778" lon="5.51482">
        <ele>707</ele>
        <time>2021-09-07T12:25:44Z</time>
      </trkpt>
      <trkpt lat="44.46778" lon="5.51481">
        <ele>707</ele>
        <time>2021-09-07T12:25:45Z</time>
      </trkpt>
      <trkpt lat="44.46778" lon="5.51479">
        <ele>707</ele>
        <time>2021-09-07T12:25:46Z</time>
      </trkpt>
      <trkpt lat="44.46778" lon="5.51479">
        <ele>707</ele>
        <time>2021-09-07T12:25:47Z</time>
      </trkpt>
      <trkpt lat="44.46777" lon="5.51478">
        <ele>707</ele>
        <time>2021-09-07T12:25:48Z</time>
      </trkpt>
      <trkpt lat="44.46777" lon="5.51477">
        <ele>707</ele>
        <time>2021-09-07T12:25:49Z</time>
      </trkpt>
      <trkpt lat="44.46777" lon="5.51475">
        <ele>707</ele>
        <time>2021-09-07T12:25:50Z</time>
      </trkpt>
      <trkpt lat="44.46778" lon="5.51474">
        <ele>707</ele>
        <time>2021-09-07T12:25:51Z</time>
      </trkpt>
      <trkpt lat="44.46778" lon="5.51474">
        <ele>707</ele>
        <time>2021-09-07T12:25:52Z</time>
      </trkpt>
      <trkpt lat="44.46778" lon="5.51473">
        <ele>707</ele>
        <time>2021-09-07T12:25:53Z</time>
      </trkpt>
      <trkpt lat="44.46778" lon="5.51473">
        <ele>707</ele>
        <time>2021-09-07T12:25:54Z</time>
      </trkpt>
      <trkpt lat="44.46778" lon="5.51473">
        <ele>707</ele>
        <time>2021-09-07T12:25:55Z</time>
      </trkpt>
      <trkpt lat="44.46779" lon="5.51473">
        <ele>707</ele>
        <time>2021-09-07T12:25:56Z</time>
      </trkpt>
      <trkpt lat="44.46779" lon="5.51473">
        <ele>707</ele>
        <time>2021-09-07T12:25:57Z</time>
      </trkpt>
      <trkpt lat="44.46779" lon="5.51472">
        <ele>707</ele>
        <time>2021-09-07T12:25:58Z</time>
      </trkpt>
      <trkpt lat="44.46779" lon="5.51472">
        <ele>707</ele>
        <time>2021-09-07T12:25:59Z</time>
      </trkpt>
      <trkpt lat="44.46779" lon="5.51472">
        <ele>707</ele>
        <time>2021-09-07T12:26:00Z</time>
      </trkpt>
      <trkpt lat="44.46779" lon="5.51472">
        <ele>707</ele>
        <time>2021-09-07T12:26:01Z</time>
      </trkpt>
      <trkpt lat="44.46779" lon="5.51471">
        <ele>707</ele>
        <time>2021-09-07T12:26:02Z</time>
      </trkpt>
      <trkpt lat="44.46779" lon="5.51472">
        <ele>707</ele>
        <time>2021-09-07T12:26:03Z</time>
      </trkpt>
      <trkpt lat="44.46778" lon="5.51472">
        <ele>707</ele>
        <time>2021-09-07T12:26:04Z</time>
      </trkpt>
      <trkpt lat="44.46778" lon="5.51472">
        <ele>707</ele>
        <time>2021-09-07T12:26:05Z</time>
      </trkpt>
      <trkpt lat="44.46777" lon="5.51471">
        <ele>707</ele>
        <time>2021-09-07T12:26:06Z</time>
      </trkpt>
      <trkpt lat="44.46776" lon="5.51471">
        <ele>707</ele>
        <time>2021-09-07T12:26:07Z</time>
      </trkpt>
      <trkpt lat="44.46775" lon="5.51473">
        <ele>707</ele>
        <time>2021-09-07T12:26:08Z</time>
      </trkpt>
      <trkpt lat="44.46773" lon="5.51474">
        <ele>707</ele>
        <time>2021-09-07T12:26:09Z</time>
      </trkpt>
      <trkpt lat="44.46765" lon="5.51482">
        <ele>707.5</ele>
        <time>2021-09-07T12:26:10Z</time>
      </trkpt>
      <trkpt lat="44.4676" lon="5.51489">
        <ele>707.5</ele>
        <time>2021-09-07T12:26:11Z</time>
      </trkpt>
      <trkpt lat="44.46757" lon="5.51495">
        <ele>707.5</ele>
        <time>2021-09-07T12:26:12Z</time>
      </trkpt>
      <trkpt lat="44.46756" lon="5.51499">
        <ele>707.5</ele>
        <time>2021-09-07T12:26:13Z</time>
      </trkpt>
      <trkpt lat="44.46755" lon="5.51502">
        <ele>707.5</ele>
        <time>2021-09-07T12:26:14Z</time>
      </trkpt>
      <trkpt lat="44.46754" lon="5.51513">
        <ele>707.4</ele>
        <time>2021-09-07T12:26:15Z</time>
      </trkpt>
      <trkpt lat="44.46754" lon="5.51516">
        <ele>707.4</ele>
        <time>2021-09-07T12:26:16Z</time>
      </trkpt>
      <trkpt lat="44.46754" lon="5.51519">
        <ele>707.4</ele>
        <time>2021-09-07T12:26:17Z</time>
      </trkpt>
      <trkpt lat="44.46754" lon="5.51525">
        <ele>707.4</ele>
        <time>2021-09-07T12:26:18Z</time>
      </trkpt>
      <trkpt lat="44.46754" lon="5.51536">
        <ele>707.3</ele>
        <time>2021-09-07T12:26:19Z</time>
      </trkpt>
      <trkpt lat="44.46754" lon="5.51542">
        <ele>707.3</ele>
        <time>2021-09-07T12:26:20Z</time>
      </trkpt>
      <trkpt lat="44.46754" lon="5.51546">
        <ele>707.3</ele>
        <time>2021-09-07T12:26:21Z</time>
      </trkpt>
      <trkpt lat="44.46753" lon="5.51549">
        <ele>707.2</ele>
        <time>2021-09-07T12:26:22Z</time>
      </trkpt>
      <trkpt lat="44.46751" lon="5.51554">
        <ele>707.2</ele>
        <time>2021-09-07T12:26:23Z</time>
      </trkpt>
      <trkpt lat="44.4675" lon="5.51559">
        <ele>707.2</ele>
        <time>2021-09-07T12:26:24Z</time>
      </trkpt>
      <trkpt lat="44.46749" lon="5.51565">
        <ele>707.1</ele>
        <time>2021-09-07T12:26:25Z</time>
      </trkpt>
      <trkpt lat="44.46747" lon="5.5157">
        <ele>707.1</ele>
        <time>2021-09-07T12:26:26Z</time>
      </trkpt>
      <trkpt lat="44.46745" lon="5.51575">
        <ele>707.1</ele>
        <time>2021-09-07T12:26:27Z</time>
      </trkpt>
      <trkpt lat="44.46742" lon="5.51582">
        <ele>707.1</ele>
        <time>2021-09-07T12:26:28Z</time>
      </trkpt>
      <trkpt lat="44.46739" lon="5.51587">
        <ele>707.2</ele>
        <time>2021-09-07T12:26:29Z</time>
      </trkpt>
      <trkpt lat="44.46736" lon="5.51593">
        <ele>707.2</ele>
        <time>2021-09-07T12:26:30Z</time>
      </trkpt>
      <trkpt lat="44.46735" lon="5.51595">
        <ele>707.3</ele>
        <time>2021-09-07T12:26:31Z</time>
      </trkpt>
      <trkpt lat="44.46734" lon="5.51597">
        <ele>707.3</ele>
        <time>2021-09-07T12:26:32Z</time>
      </trkpt>
      <trkpt lat="44.4673" lon="5.51604">
        <ele>707.4</ele>
        <time>2021-09-07T12:26:33Z</time>
      </trkpt>
      <trkpt lat="44.46729" lon="5.51607">
        <ele>707.4</ele>
        <time>2021-09-07T12:26:34Z</time>
      </trkpt>
      <trkpt lat="44.46727" lon="5.5161">
        <ele>707.5</ele>
        <time>2021-09-07T12:26:35Z</time>
      </trkpt>
      <trkpt lat="44.46725" lon="5.51615">
        <ele>707.6</ele>
        <time>2021-09-07T12:26:36Z</time>
      </trkpt>
      <trkpt lat="44.46722" lon="5.51622">
        <ele>707.7</ele>
        <time>2021-09-07T12:26:37Z</time>
      </trkpt>
      <trkpt lat="44.4672" lon="5.51627">
        <ele>707.7</ele>
        <time>2021-09-07T12:26:38Z</time>
      </trkpt>
      <trkpt lat="44.46717" lon="5.51633">
        <ele>707.8</ele>
        <time>2021-09-07T12:26:39Z</time>
      </trkpt>
      <trkpt lat="44.46716" lon="5.51636">
        <ele>707.8</ele>
        <time>2021-09-07T12:26:40Z</time>
      </trkpt>
      <trkpt lat="44.46715" lon="5.51639">
        <ele>707.9</ele>
        <time>2021-09-07T12:26:41Z</time>
      </trkpt>
      <trkpt lat="44.46713" lon="5.51645">
        <ele>707.9</ele>
        <time>2021-09-07T12:26:42Z</time>
      </trkpt>
      <trkpt lat="44.46711" lon="5.51652">
        <ele>708</ele>
        <time>2021-09-07T12:26:43Z</time>
      </trkpt>
      <trkpt lat="44.4671" lon="5.51655">
        <ele>708</ele>
        <time>2021-09-07T12:26:44Z</time>
      </trkpt>
      <trkpt lat="44.46708" lon="5.51658">
        <ele>708.1</ele>
        <time>2021-09-07T12:26:45Z</time>
      </trkpt>
      <trkpt lat="44.46706" lon="5.51662">
        <ele>708.1</ele>
        <time>2021-09-07T12:26:46Z</time>
      </trkpt>
      <trkpt lat="44.46703" lon="5.51668">
        <ele>708.2</ele>
        <time>2021-09-07T12:26:47Z</time>
      </trkpt>
      <trkpt lat="44.46702" lon="5.51671">
        <ele>708.3</ele>
        <time>2021-09-07T12:26:48Z</time>
      </trkpt>
      <trkpt lat="44.467" lon="5.51673">
        <ele>708.3</ele>
        <time>2021-09-07T12:26:49Z</time>
      </trkpt>
      <trkpt lat="44.46698" lon="5.51678">
        <ele>708.4</ele>
        <time>2021-09-07T12:26:50Z</time>
      </trkpt>
      <trkpt lat="44.46693" lon="5.51687">
        <ele>708.5</ele>
        <time>2021-09-07T12:26:51Z</time>
      </trkpt>
      <trkpt lat="44.46692" lon="5.5169">
        <ele>708.6</ele>
        <time>2021-09-07T12:26:52Z</time>
      </trkpt>
      <trkpt lat="44.4669" lon="5.51692">
        <ele>708.6</ele>
        <time>2021-09-07T12:26:53Z</time>
      </trkpt>
      <trkpt lat="44.46689" lon="5.51695">
        <ele>708.6</ele>
        <time>2021-09-07T12:26:54Z</time>
      </trkpt>
      <trkpt lat="44.46686" lon="5.51699">
        <ele>708.7</ele>
        <time>2021-09-07T12:26:55Z</time>
      </trkpt>
      <trkpt lat="44.46682" lon="5.51706">
        <ele>708.8</ele>
        <time>2021-09-07T12:26:56Z</time>
      </trkpt>
      <trkpt lat="44.46681" lon="5.51709">
        <ele>708.8</ele>
        <time>2021-09-07T12:26:57Z</time>
      </trkpt>
      <trkpt lat="44.4668" lon="5.51711">
        <ele>708.8</ele>
        <time>2021-09-07T12:26:58Z</time>
      </trkpt>
      <trkpt lat="44.46678" lon="5.51714">
        <ele>708.8</ele>
        <time>2021-09-07T12:26:59Z</time>
      </trkpt>
      <trkpt lat="44.46675" lon="5.51717">
        <ele>708.7</ele>
        <time>2021-09-07T12:27:00Z</time>
      </trkpt>
      <trkpt lat="44.46673" lon="5.5172">
        <ele>708.7</ele>
        <time>2021-09-07T12:27:01Z</time>
      </trkpt>
      <trkpt lat="44.46671" lon="5.51723">
        <ele>708.7</ele>
        <time>2021-09-07T12:27:02Z</time>
      </trkpt>
      <trkpt lat="44.46668" lon="5.51728">
        <ele>708.6</ele>
        <time>2021-09-07T12:27:03Z</time>
      </trkpt>
      <trkpt lat="44.46667" lon="5.51731">
        <ele>708.5</ele>
        <time>2021-09-07T12:27:04Z</time>
      </trkpt>
      <trkpt lat="44.46665" lon="5.51733">
        <ele>708.5</ele>
        <time>2021-09-07T12:27:05Z</time>
      </trkpt>
      <trkpt lat="44.46662" lon="5.51739">
        <ele>708.4</ele>
        <time>2021-09-07T12:27:06Z</time>
      </trkpt>
      <trkpt lat="44.4666" lon="5.51742">
        <ele>708.3</ele>
        <time>2021-09-07T12:27:07Z</time>
      </trkpt>
      <trkpt lat="44.46658" lon="5.51745">
        <ele>708.2</ele>
        <time>2021-09-07T12:27:08Z</time>
      </trkpt>
      <trkpt lat="44.46652" lon="5.51752">
        <ele>708.1</ele>
        <time>2021-09-07T12:27:09Z</time>
      </trkpt>
      <trkpt lat="44.4665" lon="5.51754">
        <ele>708</ele>
        <time>2021-09-07T12:27:10Z</time>
      </trkpt>
      <trkpt lat="44.46648" lon="5.51756">
        <ele>708</ele>
        <time>2021-09-07T12:27:11Z</time>
      </trkpt>
      <trkpt lat="44.46645" lon="5.5176">
        <ele>707.9</ele>
        <time>2021-09-07T12:27:12Z</time>
      </trkpt>
      <trkpt lat="44.4664" lon="5.51765">
        <ele>707.9</ele>
        <time>2021-09-07T12:27:13Z</time>
      </trkpt>
      <trkpt lat="44.46636" lon="5.51769">
        <ele>707.8</ele>
        <time>2021-09-07T12:27:14Z</time>
      </trkpt>
      <trkpt lat="44.46633" lon="5.51772">
        <ele>707.8</ele>
        <time>2021-09-07T12:27:15Z</time>
      </trkpt>
      <trkpt lat="44.46629" lon="5.51776">
        <ele>707.8</ele>
        <time>2021-09-07T12:27:16Z</time>
      </trkpt>
      <trkpt lat="44.46626" lon="5.51779">
        <ele>707.8</ele>
        <time>2021-09-07T12:27:17Z</time>
      </trkpt>
      <trkpt lat="44.46622" lon="5.51782">
        <ele>707.8</ele>
        <time>2021-09-07T12:27:18Z</time>
      </trkpt>
      <trkpt lat="44.46618" lon="5.51785">
        <ele>707.8</ele>
        <time>2021-09-07T12:27:19Z</time>
      </trkpt>
      <trkpt lat="44.46614" lon="5.51788">
        <ele>707.8</ele>
        <time>2021-09-07T12:27:20Z</time>
      </trkpt>
      <trkpt lat="44.46606" lon="5.51795">
        <ele>707.8</ele>
        <time>2021-09-07T12:27:21Z</time>
      </trkpt>
      <trkpt lat="44.46604" lon="5.51797">
        <ele>707.8</ele>
        <time>2021-09-07T12:27:22Z</time>
      </trkpt>
      <trkpt lat="44.46602" lon="5.51799">
        <ele>707.8</ele>
        <time>2021-09-07T12:27:23Z</time>
      </trkpt>
      <trkpt lat="44.46598" lon="5.51803">
        <ele>707.8</ele>
        <time>2021-09-07T12:27:24Z</time>
      </trkpt>
      <trkpt lat="44.46594" lon="5.51807">
        <ele>707.8</ele>
        <time>2021-09-07T12:27:25Z</time>
      </trkpt>
      <trkpt lat="44.4659" lon="5.5181">
        <ele>707.9</ele>
        <time>2021-09-07T12:27:26Z</time>
      </trkpt>
      <trkpt lat="44.46587" lon="5.51814">
        <ele>707.9</ele>
        <time>2021-09-07T12:27:27Z</time>
      </trkpt>
      <trkpt lat="44.46583" lon="5.51818">
        <ele>708</ele>
        <time>2021-09-07T12:27:28Z</time>
      </trkpt>
      <trkpt lat="44.46581" lon="5.51817">
        <ele>708</ele>
        <time>2021-09-07T12:27:29Z</time>
      </trkpt>
      <trkpt lat="44.46578" lon="5.51818">
        <ele>708.1</ele>
        <time>2021-09-07T12:27:30Z</time>
      </trkpt>
      <trkpt lat="44.46574" lon="5.51824">
        <ele>708.1</ele>
        <time>2021-09-07T12:27:31Z</time>
      </trkpt>
      <trkpt lat="44.4657" lon="5.5183">
        <ele>708.2</ele>
        <time>2021-09-07T12:27:32Z</time>
      </trkpt>
      <trkpt lat="44.46565" lon="5.51838">
        <ele>708.4</ele>
        <time>2021-09-07T12:27:33Z</time>
      </trkpt>
      <trkpt lat="44.46564" lon="5.51841">
        <ele>708.4</ele>
        <time>2021-09-07T12:27:34Z</time>
      </trkpt>
      <trkpt lat="44.46562" lon="5.51843">
        <ele>708.5</ele>
        <time>2021-09-07T12:27:35Z</time>
      </trkpt>
      <trkpt lat="44.46559" lon="5.51847">
        <ele>708.5</ele>
        <time>2021-09-07T12:27:36Z</time>
      </trkpt>
      <trkpt lat="44.46555" lon="5.51852">
        <ele>708.7</ele>
        <time>2021-09-07T12:27:37Z</time>
      </trkpt>
      <trkpt lat="44.46552" lon="5.51857">
        <ele>708.8</ele>
        <time>2021-09-07T12:27:38Z</time>
      </trkpt>
      <trkpt lat="44.46547" lon="5.51862">
        <ele>709</ele>
        <time>2021-09-07T12:27:39Z</time>
      </trkpt>
      <trkpt lat="44.46544" lon="5.51866">
        <ele>709.1</ele>
        <time>2021-09-07T12:27:40Z</time>
      </trkpt>
      <trkpt lat="44.46542" lon="5.5187">
        <ele>709.3</ele>
        <time>2021-09-07T12:27:41Z</time>
      </trkpt>
      <trkpt lat="44.46539" lon="5.51873">
        <ele>709.4</ele>
        <time>2021-09-07T12:27:42Z</time>
      </trkpt>
      <trkpt lat="44.46536" lon="5.51877">
        <ele>709.6</ele>
        <time>2021-09-07T12:27:43Z</time>
      </trkpt>
      <trkpt lat="44.46533" lon="5.5188">
        <ele>709.7</ele>
        <time>2021-09-07T12:27:44Z</time>
      </trkpt>
      <trkpt lat="44.4653" lon="5.51884">
        <ele>709.9</ele>
        <time>2021-09-07T12:27:45Z</time>
      </trkpt>
      <trkpt lat="44.46529" lon="5.51886">
        <ele>710</ele>
        <time>2021-09-07T12:27:46Z</time>
      </trkpt>
      <trkpt lat="44.46527" lon="5.51888">
        <ele>710.1</ele>
        <time>2021-09-07T12:27:47Z</time>
      </trkpt>
      <trkpt lat="44.46523" lon="5.51895">
        <ele>710.5</ele>
        <time>2021-09-07T12:27:48Z</time>
      </trkpt>
      <trkpt lat="44.46522" lon="5.51898">
        <ele>710.6</ele>
        <time>2021-09-07T12:27:49Z</time>
      </trkpt>
      <trkpt lat="44.4652" lon="5.519">
        <ele>710.7</ele>
        <time>2021-09-07T12:27:50Z</time>
      </trkpt>
      <trkpt lat="44.46516" lon="5.51905">
        <ele>711</ele>
        <time>2021-09-07T12:27:51Z</time>
      </trkpt>
      <trkpt lat="44.46514" lon="5.51909">
        <ele>711.2</ele>
        <time>2021-09-07T12:27:52Z</time>
      </trkpt>
      <trkpt lat="44.46511" lon="5.51914">
        <ele>711.4</ele>
        <time>2021-09-07T12:27:53Z</time>
      </trkpt>
      <trkpt lat="44.4651" lon="5.51917">
        <ele>711.6</ele>
        <time>2021-09-07T12:27:54Z</time>
      </trkpt>
      <trkpt lat="44.46508" lon="5.51919">
        <ele>711.7</ele>
        <time>2021-09-07T12:27:55Z</time>
      </trkpt>
      <trkpt lat="44.46507" lon="5.51922">
        <ele>711.8</ele>
        <time>2021-09-07T12:27:56Z</time>
      </trkpt>
      <trkpt lat="44.46505" lon="5.51924">
        <ele>712</ele>
        <time>2021-09-07T12:27:57Z</time>
      </trkpt>
      <trkpt lat="44.46503" lon="5.51927">
        <ele>712.1</ele>
        <time>2021-09-07T12:27:58Z</time>
      </trkpt>
      <trkpt lat="44.46501" lon="5.5193">
        <ele>712.3</ele>
        <time>2021-09-07T12:27:59Z</time>
      </trkpt>
      <trkpt lat="44.46499" lon="5.51933">
        <ele>712.5</ele>
        <time>2021-09-07T12:28:00Z</time>
      </trkpt>
      <trkpt lat="44.46497" lon="5.51937">
        <ele>712.7</ele>
        <time>2021-09-07T12:28:01Z</time>
      </trkpt>
      <trkpt lat="44.46496" lon="5.51939">
        <ele>712.8</ele>
        <time>2021-09-07T12:28:02Z</time>
      </trkpt>
      <trkpt lat="44.46494" lon="5.51941">
        <ele>712.9</ele>
        <time>2021-09-07T12:28:03Z</time>
      </trkpt>
      <trkpt lat="44.46493" lon="5.51944">
        <ele>713.1</ele>
        <time>2021-09-07T12:28:04Z</time>
      </trkpt>
      <trkpt lat="44.46491" lon="5.51946">
        <ele>713.2</ele>
        <time>2021-09-07T12:28:05Z</time>
      </trkpt>
      <trkpt lat="44.4649" lon="5.51949">
        <ele>713.4</ele>
        <time>2021-09-07T12:28:06Z</time>
      </trkpt>
      <trkpt lat="44.46488" lon="5.51953">
        <ele>713.6</ele>
        <time>2021-09-07T12:28:07Z</time>
      </trkpt>
      <trkpt lat="44.46487" lon="5.51956">
        <ele>713.8</ele>
        <time>2021-09-07T12:28:08Z</time>
      </trkpt>
      <trkpt lat="44.46485" lon="5.51958">
        <ele>713.9</ele>
        <time>2021-09-07T12:28:09Z</time>
      </trkpt>
      <trkpt lat="44.46482" lon="5.51963">
        <ele>714.2</ele>
        <time>2021-09-07T12:28:10Z</time>
      </trkpt>
      <trkpt lat="44.46481" lon="5.51966">
        <ele>714.4</ele>
        <time>2021-09-07T12:28:11Z</time>
      </trkpt>
      <trkpt lat="44.46479" lon="5.51969">
        <ele>714.6</ele>
        <time>2021-09-07T12:28:12Z</time>
      </trkpt>
      <trkpt lat="44.46478" lon="5.51971">
        <ele>714.7</ele>
        <time>2021-09-07T12:28:13Z</time>
      </trkpt>
      <trkpt lat="44.46477" lon="5.51973">
        <ele>714.8</ele>
        <time>2021-09-07T12:28:14Z</time>
      </trkpt>
      <trkpt lat="44.46475" lon="5.51977">
        <ele>715.1</ele>
        <time>2021-09-07T12:28:15Z</time>
      </trkpt>
      <trkpt lat="44.46473" lon="5.5198">
        <ele>715.3</ele>
        <time>2021-09-07T12:28:16Z</time>
      </trkpt>
      <trkpt lat="44.46472" lon="5.51982">
        <ele>715.4</ele>
        <time>2021-09-07T12:28:17Z</time>
      </trkpt>
      <trkpt lat="44.46471" lon="5.51983">
        <ele>715.5</ele>
        <time>2021-09-07T12:28:18Z</time>
      </trkpt>
      <trkpt lat="44.4647" lon="5.51987">
        <ele>715.7</ele>
        <time>2021-09-07T12:28:19Z</time>
      </trkpt>
      <trkpt lat="44.46469" lon="5.51989">
        <ele>715.8</ele>
        <time>2021-09-07T12:28:20Z</time>
      </trkpt>
      <trkpt lat="44.46468" lon="5.51991">
        <ele>716</ele>
        <time>2021-09-07T12:28:21Z</time>
      </trkpt>
      <trkpt lat="44.46465" lon="5.51996">
        <ele>716.3</ele>
        <time>2021-09-07T12:28:22Z</time>
      </trkpt>
      <trkpt lat="44.46464" lon="5.51998">
        <ele>716.4</ele>
        <time>2021-09-07T12:28:23Z</time>
      </trkpt>
      <trkpt lat="44.46463" lon="5.52">
        <ele>716.5</ele>
        <time>2021-09-07T12:28:24Z</time>
      </trkpt>
      <trkpt lat="44.46461" lon="5.52004">
        <ele>716.8</ele>
        <time>2021-09-07T12:28:25Z</time>
      </trkpt>
      <trkpt lat="44.4646" lon="5.52006">
        <ele>716.9</ele>
        <time>2021-09-07T12:28:26Z</time>
      </trkpt>
      <trkpt lat="44.46458" lon="5.52008">
        <ele>717.1</ele>
        <time>2021-09-07T12:28:27Z</time>
      </trkpt>
      <trkpt lat="44.46456" lon="5.52012">
        <ele>717.2</ele>
        <time>2021-09-07T12:28:28Z</time>
      </trkpt>
      <trkpt lat="44.46455" lon="5.52015">
        <ele>717.3</ele>
        <time>2021-09-07T12:28:29Z</time>
      </trkpt>
      <trkpt lat="44.46453" lon="5.52019">
        <ele>717.3</ele>
        <time>2021-09-07T12:28:30Z</time>
      </trkpt>
      <trkpt lat="44.46452" lon="5.52022">
        <ele>717.4</ele>
        <time>2021-09-07T12:28:31Z</time>
      </trkpt>
      <trkpt lat="44.46452" lon="5.52024">
        <ele>717.5</ele>
        <time>2021-09-07T12:28:32Z</time>
      </trkpt>
      <trkpt lat="44.46451" lon="5.52025">
        <ele>717.5</ele>
        <time>2021-09-07T12:28:33Z</time>
      </trkpt>
      <trkpt lat="44.4645" lon="5.52029">
        <ele>717.6</ele>
        <time>2021-09-07T12:28:34Z</time>
      </trkpt>
      <trkpt lat="44.4645" lon="5.52031">
        <ele>717.7</ele>
        <time>2021-09-07T12:28:35Z</time>
      </trkpt>
      <trkpt lat="44.46449" lon="5.52033">
        <ele>717.8</ele>
        <time>2021-09-07T12:28:36Z</time>
      </trkpt>
      <trkpt lat="44.46449" lon="5.52036">
        <ele>717.9</ele>
        <time>2021-09-07T12:28:37Z</time>
      </trkpt>
      <trkpt lat="44.46448" lon="5.52038">
        <ele>718</ele>
        <time>2021-09-07T12:28:38Z</time>
      </trkpt>
      <trkpt lat="44.46447" lon="5.52042">
        <ele>718.1</ele>
        <time>2021-09-07T12:28:39Z</time>
      </trkpt>
      <trkpt lat="44.46446" lon="5.52046">
        <ele>718.2</ele>
        <time>2021-09-07T12:28:40Z</time>
      </trkpt>
      <trkpt lat="44.46446" lon="5.5205">
        <ele>718.4</ele>
        <time>2021-09-07T12:28:41Z</time>
      </trkpt>
      <trkpt lat="44.46446" lon="5.52052">
        <ele>718.4</ele>
        <time>2021-09-07T12:28:42Z</time>
      </trkpt>
      <trkpt lat="44.46445" lon="5.52053">
        <ele>718.5</ele>
        <time>2021-09-07T12:28:43Z</time>
      </trkpt>
      <trkpt lat="44.46444" lon="5.52057">
        <ele>718.6</ele>
        <time>2021-09-07T12:28:44Z</time>
      </trkpt>
      <trkpt lat="44.46443" lon="5.52062">
        <ele>718.7</ele>
        <time>2021-09-07T12:28:45Z</time>
      </trkpt>
      <trkpt lat="44.46443" lon="5.52064">
        <ele>718.8</ele>
        <time>2021-09-07T12:28:46Z</time>
      </trkpt>
      <trkpt lat="44.46442" lon="5.52065">
        <ele>718.8</ele>
        <time>2021-09-07T12:28:47Z</time>
      </trkpt>
      <trkpt lat="44.46441" lon="5.52068">
        <ele>718.9</ele>
        <time>2021-09-07T12:28:48Z</time>
      </trkpt>
      <trkpt lat="44.4644" lon="5.52071">
        <ele>719</ele>
        <time>2021-09-07T12:28:49Z</time>
      </trkpt>
      <trkpt lat="44.46439" lon="5.52073">
        <ele>719</ele>
        <time>2021-09-07T12:28:50Z</time>
      </trkpt>
      <trkpt lat="44.46438" lon="5.52078">
        <ele>719.1</ele>
        <time>2021-09-07T12:28:51Z</time>
      </trkpt>
      <trkpt lat="44.46438" lon="5.5208">
        <ele>719.2</ele>
        <time>2021-09-07T12:28:52Z</time>
      </trkpt>
      <trkpt lat="44.46437" lon="5.52081">
        <ele>719.2</ele>
        <time>2021-09-07T12:28:53Z</time>
      </trkpt>
      <trkpt lat="44.46435" lon="5.52085">
        <ele>719.3</ele>
        <time>2021-09-07T12:28:54Z</time>
      </trkpt>
      <trkpt lat="44.46435" lon="5.52087">
        <ele>719.3</ele>
        <time>2021-09-07T12:28:55Z</time>
      </trkpt>
      <trkpt lat="44.46435" lon="5.52089">
        <ele>719.3</ele>
        <time>2021-09-07T12:28:56Z</time>
      </trkpt>
      <trkpt lat="44.46434" lon="5.52093">
        <ele>719.4</ele>
        <time>2021-09-07T12:28:57Z</time>
      </trkpt>
      <trkpt lat="44.46433" lon="5.52096">
        <ele>719.4</ele>
        <time>2021-09-07T12:28:58Z</time>
      </trkpt>
      <trkpt lat="44.46432" lon="5.52098">
        <ele>719.4</ele>
        <time>2021-09-07T12:28:59Z</time>
      </trkpt>
      <trkpt lat="44.46431" lon="5.52102">
        <ele>719.4</ele>
        <time>2021-09-07T12:29:00Z</time>
      </trkpt>
      <trkpt lat="44.46431" lon="5.52105">
        <ele>719.5</ele>
        <time>2021-09-07T12:29:01Z</time>
      </trkpt>
      <trkpt lat="44.4643" lon="5.52108">
        <ele>719.5</ele>
        <time>2021-09-07T12:29:02Z</time>
      </trkpt>
      <trkpt lat="44.46429" lon="5.52112">
        <ele>719.5</ele>
        <time>2021-09-07T12:29:03Z</time>
      </trkpt>
      <trkpt lat="44.46428" lon="5.52115">
        <ele>719.5</ele>
        <time>2021-09-07T12:29:04Z</time>
      </trkpt>
      <trkpt lat="44.46427" lon="5.52118">
        <ele>719.5</ele>
        <time>2021-09-07T12:29:05Z</time>
      </trkpt>
      <trkpt lat="44.46426" lon="5.52122">
        <ele>719.5</ele>
        <time>2021-09-07T12:29:06Z</time>
      </trkpt>
      <trkpt lat="44.46424" lon="5.52129">
        <ele>719.5</ele>
        <time>2021-09-07T12:29:07Z</time>
      </trkpt>
      <trkpt lat="44.46423" lon="5.52134">
        <ele>719.5</ele>
        <time>2021-09-07T12:29:08Z</time>
      </trkpt>
      <trkpt lat="44.46423" lon="5.52137">
        <ele>719.5</ele>
        <time>2021-09-07T12:29:09Z</time>
      </trkpt>
      <trkpt lat="44.46422" lon="5.52139">
        <ele>719.5</ele>
        <time>2021-09-07T12:29:10Z</time>
      </trkpt>
      <trkpt lat="44.4642" lon="5.52143">
        <ele>719.5</ele>
        <time>2021-09-07T12:29:11Z</time>
      </trkpt>
      <trkpt lat="44.46419" lon="5.52147">
        <ele>719.5</ele>
        <time>2021-09-07T12:29:12Z</time>
      </trkpt>
      <trkpt lat="44.46417" lon="5.52151">
        <ele>719.5</ele>
        <time>2021-09-07T12:29:13Z</time>
      </trkpt>
      <trkpt lat="44.46415" lon="5.52155">
        <ele>719.5</ele>
        <time>2021-09-07T12:29:14Z</time>
      </trkpt>
      <trkpt lat="44.46413" lon="5.52159">
        <ele>719.4</ele>
        <time>2021-09-07T12:29:15Z</time>
      </trkpt>
      <trkpt lat="44.46411" lon="5.52162">
        <ele>719.4</ele>
        <time>2021-09-07T12:29:16Z</time>
      </trkpt>
      <trkpt lat="44.46406" lon="5.5217">
        <ele>719.3</ele>
        <time>2021-09-07T12:29:17Z</time>
      </trkpt>
      <trkpt lat="44.46404" lon="5.52174">
        <ele>719.2</ele>
        <time>2021-09-07T12:29:18Z</time>
      </trkpt>
      <trkpt lat="44.464" lon="5.52178">
        <ele>719.1</ele>
        <time>2021-09-07T12:29:19Z</time>
      </trkpt>
      <trkpt lat="44.46397" lon="5.52182">
        <ele>719.1</ele>
        <time>2021-09-07T12:29:20Z</time>
      </trkpt>
      <trkpt lat="44.46396" lon="5.52184">
        <ele>719</ele>
        <time>2021-09-07T12:29:21Z</time>
      </trkpt>
      <trkpt lat="44.46394" lon="5.52186">
        <ele>719</ele>
        <time>2021-09-07T12:29:22Z</time>
      </trkpt>
      <trkpt lat="44.46391" lon="5.5219">
        <ele>718.9</ele>
        <time>2021-09-07T12:29:23Z</time>
      </trkpt>
      <trkpt lat="44.46385" lon="5.52198">
        <ele>718.8</ele>
        <time>2021-09-07T12:29:24Z</time>
      </trkpt>
      <trkpt lat="44.46383" lon="5.52201">
        <ele>718.8</ele>
        <time>2021-09-07T12:29:25Z</time>
      </trkpt>
      <trkpt lat="44.46381" lon="5.52203">
        <ele>718.7</ele>
        <time>2021-09-07T12:29:26Z</time>
      </trkpt>
      <trkpt lat="44.46373" lon="5.5221">
        <ele>718.6</ele>
        <time>2021-09-07T12:29:27Z</time>
      </trkpt>
      <trkpt lat="44.46369" lon="5.52214">
        <ele>718.6</ele>
        <time>2021-09-07T12:29:28Z</time>
      </trkpt>
      <trkpt lat="44.46367" lon="5.52216">
        <ele>718.6</ele>
        <time>2021-09-07T12:29:29Z</time>
      </trkpt>
      <trkpt lat="44.46364" lon="5.52218">
        <ele>718.6</ele>
        <time>2021-09-07T12:29:30Z</time>
      </trkpt>
      <trkpt lat="44.4636" lon="5.5222">
        <ele>718.6</ele>
        <time>2021-09-07T12:29:31Z</time>
      </trkpt>
      <trkpt lat="44.46356" lon="5.52222">
        <ele>718.6</ele>
        <time>2021-09-07T12:29:32Z</time>
      </trkpt>
      <trkpt lat="44.46351" lon="5.52224">
        <ele>718.6</ele>
        <time>2021-09-07T12:29:33Z</time>
      </trkpt>
      <trkpt lat="44.46346" lon="5.52225">
        <ele>718.6</ele>
        <time>2021-09-07T12:29:34Z</time>
      </trkpt>
      <trkpt lat="44.46342" lon="5.52226">
        <ele>718.6</ele>
        <time>2021-09-07T12:29:35Z</time>
      </trkpt>
      <trkpt lat="44.46337" lon="5.52227">
        <ele>718.5</ele>
        <time>2021-09-07T12:29:36Z</time>
      </trkpt>
      <trkpt lat="44.46333" lon="5.52229">
        <ele>718.5</ele>
        <time>2021-09-07T12:29:37Z</time>
      </trkpt>
      <trkpt lat="44.46328" lon="5.5223">
        <ele>718.5</ele>
        <time>2021-09-07T12:29:38Z</time>
      </trkpt>
      <trkpt lat="44.46325" lon="5.52232">
        <ele>718.6</ele>
        <time>2021-09-07T12:29:39Z</time>
      </trkpt>
      <trkpt lat="44.46321" lon="5.52233">
        <ele>718.6</ele>
        <time>2021-09-07T12:29:40Z</time>
      </trkpt>
      <trkpt lat="44.46317" lon="5.52236">
        <ele>718.6</ele>
        <time>2021-09-07T12:29:41Z</time>
      </trkpt>
      <trkpt lat="44.46313" lon="5.52238">
        <ele>718.6</ele>
        <time>2021-09-07T12:29:42Z</time>
      </trkpt>
      <trkpt lat="44.46308" lon="5.52241">
        <ele>718.7</ele>
        <time>2021-09-07T12:29:43Z</time>
      </trkpt>
      <trkpt lat="44.46304" lon="5.52245">
        <ele>718.7</ele>
        <time>2021-09-07T12:29:44Z</time>
      </trkpt>
      <trkpt lat="44.463" lon="5.52249">
        <ele>718.8</ele>
        <time>2021-09-07T12:29:45Z</time>
      </trkpt>
      <trkpt lat="44.46292" lon="5.52256">
        <ele>718.9</ele>
        <time>2021-09-07T12:29:46Z</time>
      </trkpt>
      <trkpt lat="44.46291" lon="5.52258">
        <ele>718.9</ele>
        <time>2021-09-07T12:29:47Z</time>
      </trkpt>
      <trkpt lat="44.46289" lon="5.5226">
        <ele>718.9</ele>
        <time>2021-09-07T12:29:48Z</time>
      </trkpt>
      <trkpt lat="44.46285" lon="5.52265">
        <ele>719</ele>
        <time>2021-09-07T12:29:49Z</time>
      </trkpt>
      <trkpt lat="44.46281" lon="5.52269">
        <ele>719.1</ele>
        <time>2021-09-07T12:29:50Z</time>
      </trkpt>
      <trkpt lat="44.46277" lon="5.52271">
        <ele>719.1</ele>
        <time>2021-09-07T12:29:51Z</time>
      </trkpt>
      <trkpt lat="44.46273" lon="5.52275">
        <ele>719.2</ele>
        <time>2021-09-07T12:29:52Z</time>
      </trkpt>
      <trkpt lat="44.46269" lon="5.52278">
        <ele>719.3</ele>
        <time>2021-09-07T12:29:53Z</time>
      </trkpt>
      <trkpt lat="44.46265" lon="5.52282">
        <ele>719.3</ele>
        <time>2021-09-07T12:29:54Z</time>
      </trkpt>
      <trkpt lat="44.46261" lon="5.52286">
        <ele>719.4</ele>
        <time>2021-09-07T12:29:55Z</time>
      </trkpt>
      <trkpt lat="44.46257" lon="5.5229">
        <ele>719.5</ele>
        <time>2021-09-07T12:29:56Z</time>
      </trkpt>
      <trkpt lat="44.46254" lon="5.52295">
        <ele>719.7</ele>
        <time>2021-09-07T12:29:57Z</time>
      </trkpt>
      <trkpt lat="44.46252" lon="5.52298">
        <ele>719.7</ele>
        <time>2021-09-07T12:29:58Z</time>
      </trkpt>
      <trkpt lat="44.46249" lon="5.523">
        <ele>719.8</ele>
        <time>2021-09-07T12:29:59Z</time>
      </trkpt>
      <trkpt lat="44.46245" lon="5.52303">
        <ele>720</ele>
        <time>2021-09-07T12:30:00Z</time>
      </trkpt>
      <trkpt lat="44.46239" lon="5.52307">
        <ele>720.2</ele>
        <time>2021-09-07T12:30:01Z</time>
      </trkpt>
      <trkpt lat="44.46235" lon="5.52312">
        <ele>720.3</ele>
        <time>2021-09-07T12:30:02Z</time>
      </trkpt>
      <trkpt lat="44.46234" lon="5.52314">
        <ele>720.4</ele>
        <time>2021-09-07T12:30:03Z</time>
      </trkpt>
      <trkpt lat="44.46232" lon="5.52316">
        <ele>720.5</ele>
        <time>2021-09-07T12:30:04Z</time>
      </trkpt>
      <trkpt lat="44.46228" lon="5.52319">
        <ele>720.7</ele>
        <time>2021-09-07T12:30:05Z</time>
      </trkpt>
      <trkpt lat="44.46225" lon="5.52323">
        <ele>720.8</ele>
        <time>2021-09-07T12:30:06Z</time>
      </trkpt>
      <trkpt lat="44.46222" lon="5.52327">
        <ele>721</ele>
        <time>2021-09-07T12:30:07Z</time>
      </trkpt>
      <trkpt lat="44.46217" lon="5.52334">
        <ele>721.3</ele>
        <time>2021-09-07T12:30:08Z</time>
      </trkpt>
      <trkpt lat="44.46216" lon="5.52336">
        <ele>721.4</ele>
        <time>2021-09-07T12:30:09Z</time>
      </trkpt>
      <trkpt lat="44.46214" lon="5.52337">
        <ele>721.4</ele>
        <time>2021-09-07T12:30:10Z</time>
      </trkpt>
      <trkpt lat="44.46211" lon="5.5234">
        <ele>721.6</ele>
        <time>2021-09-07T12:30:11Z</time>
      </trkpt>
      <trkpt lat="44.46207" lon="5.52344">
        <ele>721.8</ele>
        <time>2021-09-07T12:30:12Z</time>
      </trkpt>
      <trkpt lat="44.46206" lon="5.52346">
        <ele>721.8</ele>
        <time>2021-09-07T12:30:13Z</time>
      </trkpt>
      <trkpt lat="44.46204" lon="5.52347">
        <ele>721.9</ele>
        <time>2021-09-07T12:30:14Z</time>
      </trkpt>
      <trkpt lat="44.46201" lon="5.52351">
        <ele>722.1</ele>
        <time>2021-09-07T12:30:15Z</time>
      </trkpt>
      <trkpt lat="44.46199" lon="5.52353">
        <ele>722.2</ele>
        <time>2021-09-07T12:30:16Z</time>
      </trkpt>
      <trkpt lat="44.46196" lon="5.52355">
        <ele>722.3</ele>
        <time>2021-09-07T12:30:17Z</time>
      </trkpt>
      <trkpt lat="44.46194" lon="5.52357">
        <ele>722.4</ele>
        <time>2021-09-07T12:30:18Z</time>
      </trkpt>
      <trkpt lat="44.46191" lon="5.52359">
        <ele>722.5</ele>
        <time>2021-09-07T12:30:19Z</time>
      </trkpt>
      <trkpt lat="44.46188" lon="5.5236">
        <ele>722.6</ele>
        <time>2021-09-07T12:30:20Z</time>
      </trkpt>
      <trkpt lat="44.46186" lon="5.52362">
        <ele>722.7</ele>
        <time>2021-09-07T12:30:21Z</time>
      </trkpt>
      <trkpt lat="44.46183" lon="5.52364">
        <ele>722.9</ele>
        <time>2021-09-07T12:30:22Z</time>
      </trkpt>
      <trkpt lat="44.46181" lon="5.52366">
        <ele>723</ele>
        <time>2021-09-07T12:30:23Z</time>
      </trkpt>
      <trkpt lat="44.46178" lon="5.52367">
        <ele>723.1</ele>
        <time>2021-09-07T12:30:24Z</time>
      </trkpt>
      <trkpt lat="44.46176" lon="5.52369">
        <ele>723.1</ele>
        <time>2021-09-07T12:30:25Z</time>
      </trkpt>
      <trkpt lat="44.46173" lon="5.52371">
        <ele>723.3</ele>
        <time>2021-09-07T12:30:26Z</time>
      </trkpt>
      <trkpt lat="44.46171" lon="5.52373">
        <ele>723.4</ele>
        <time>2021-09-07T12:30:27Z</time>
      </trkpt>
      <trkpt lat="44.46169" lon="5.52375">
        <ele>723.4</ele>
        <time>2021-09-07T12:30:28Z</time>
      </trkpt>
      <trkpt lat="44.46167" lon="5.52377">
        <ele>723.5</ele>
        <time>2021-09-07T12:30:29Z</time>
      </trkpt>
      <trkpt lat="44.46163" lon="5.52381">
        <ele>723.7</ele>
        <time>2021-09-07T12:30:30Z</time>
      </trkpt>
      <trkpt lat="44.46161" lon="5.52384">
        <ele>723.8</ele>
        <time>2021-09-07T12:30:31Z</time>
      </trkpt>
      <trkpt lat="44.46159" lon="5.52386">
        <ele>723.9</ele>
        <time>2021-09-07T12:30:32Z</time>
      </trkpt>
      <trkpt lat="44.46157" lon="5.52389">
        <ele>724.1</ele>
        <time>2021-09-07T12:30:33Z</time>
      </trkpt>
      <trkpt lat="44.46155" lon="5.52392">
        <ele>724.2</ele>
        <time>2021-09-07T12:30:34Z</time>
      </trkpt>
      <trkpt lat="44.46153" lon="5.52394">
        <ele>724.3</ele>
        <time>2021-09-07T12:30:35Z</time>
      </trkpt>
      <trkpt lat="44.46151" lon="5.52396">
        <ele>724.4</ele>
        <time>2021-09-07T12:30:36Z</time>
      </trkpt>
      <trkpt lat="44.46149" lon="5.52398">
        <ele>724.5</ele>
        <time>2021-09-07T12:30:37Z</time>
      </trkpt>
      <trkpt lat="44.46147" lon="5.524">
        <ele>724.6</ele>
        <time>2021-09-07T12:30:38Z</time>
      </trkpt>
      <trkpt lat="44.46145" lon="5.52403">
        <ele>724.7</ele>
        <time>2021-09-07T12:30:39Z</time>
      </trkpt>
      <trkpt lat="44.46143" lon="5.52405">
        <ele>724.8</ele>
        <time>2021-09-07T12:30:40Z</time>
      </trkpt>
      <trkpt lat="44.46142" lon="5.52407">
        <ele>724.8</ele>
        <time>2021-09-07T12:30:41Z</time>
      </trkpt>
      <trkpt lat="44.46141" lon="5.52409">
        <ele>724.9</ele>
        <time>2021-09-07T12:30:42Z</time>
      </trkpt>
      <trkpt lat="44.46138" lon="5.52413">
        <ele>725.1</ele>
        <time>2021-09-07T12:30:43Z</time>
      </trkpt>
      <trkpt lat="44.46136" lon="5.52415">
        <ele>725.2</ele>
        <time>2021-09-07T12:30:44Z</time>
      </trkpt>
      <trkpt lat="44.46135" lon="5.52416">
        <ele>725.2</ele>
        <time>2021-09-07T12:30:45Z</time>
      </trkpt>
      <trkpt lat="44.46133" lon="5.52417">
        <ele>725.3</ele>
        <time>2021-09-07T12:30:46Z</time>
      </trkpt>
      <trkpt lat="44.46131" lon="5.52419">
        <ele>725.4</ele>
        <time>2021-09-07T12:30:47Z</time>
      </trkpt>
      <trkpt lat="44.46128" lon="5.52424">
        <ele>725.6</ele>
        <time>2021-09-07T12:30:48Z</time>
      </trkpt>
      <trkpt lat="44.46127" lon="5.52425">
        <ele>725.7</ele>
        <time>2021-09-07T12:30:49Z</time>
      </trkpt>
      <trkpt lat="44.46125" lon="5.52426">
        <ele>725.8</ele>
        <time>2021-09-07T12:30:50Z</time>
      </trkpt>
      <trkpt lat="44.46122" lon="5.52429">
        <ele>726</ele>
        <time>2021-09-07T12:30:51Z</time>
      </trkpt>
      <trkpt lat="44.46119" lon="5.52432">
        <ele>726.1</ele>
        <time>2021-09-07T12:30:52Z</time>
      </trkpt>
      <trkpt lat="44.46117" lon="5.52434">
        <ele>726.3</ele>
        <time>2021-09-07T12:30:53Z</time>
      </trkpt>
      <trkpt lat="44.46115" lon="5.52436">
        <ele>726.4</ele>
        <time>2021-09-07T12:30:54Z</time>
      </trkpt>
      <trkpt lat="44.46113" lon="5.52438">
        <ele>726.5</ele>
        <time>2021-09-07T12:30:55Z</time>
      </trkpt>
      <trkpt lat="44.4611" lon="5.5244">
        <ele>726.6</ele>
        <time>2021-09-07T12:30:56Z</time>
      </trkpt>
      <trkpt lat="44.46108" lon="5.52442">
        <ele>726.8</ele>
        <time>2021-09-07T12:30:57Z</time>
      </trkpt>
      <trkpt lat="44.46106" lon="5.52445">
        <ele>726.9</ele>
        <time>2021-09-07T12:30:58Z</time>
      </trkpt>
      <trkpt lat="44.46103" lon="5.52447">
        <ele>727</ele>
        <time>2021-09-07T12:30:59Z</time>
      </trkpt>
      <trkpt lat="44.46101" lon="5.5245">
        <ele>727.1</ele>
        <time>2021-09-07T12:31:00Z</time>
      </trkpt>
      <trkpt lat="44.46099" lon="5.52452">
        <ele>727.2</ele>
        <time>2021-09-07T12:31:01Z</time>
      </trkpt>
      <trkpt lat="44.46098" lon="5.52454">
        <ele>727.3</ele>
        <time>2021-09-07T12:31:02Z</time>
      </trkpt>
      <trkpt lat="44.46096" lon="5.52455">
        <ele>727.4</ele>
        <time>2021-09-07T12:31:03Z</time>
      </trkpt>
      <trkpt lat="44.46094" lon="5.52458">
        <ele>727.5</ele>
        <time>2021-09-07T12:31:04Z</time>
      </trkpt>
      <trkpt lat="44.46092" lon="5.5246">
        <ele>727.6</ele>
        <time>2021-09-07T12:31:05Z</time>
      </trkpt>
      <trkpt lat="44.4609" lon="5.52463">
        <ele>727.7</ele>
        <time>2021-09-07T12:31:06Z</time>
      </trkpt>
      <trkpt lat="44.46088" lon="5.52466">
        <ele>727.8</ele>
        <time>2021-09-07T12:31:07Z</time>
      </trkpt>
      <trkpt lat="44.46085" lon="5.52468">
        <ele>727.9</ele>
        <time>2021-09-07T12:31:08Z</time>
      </trkpt>
      <trkpt lat="44.46082" lon="5.52471">
        <ele>728</ele>
        <time>2021-09-07T12:31:09Z</time>
      </trkpt>
      <trkpt lat="44.4608" lon="5.52473">
        <ele>728</ele>
        <time>2021-09-07T12:31:10Z</time>
      </trkpt>
      <trkpt lat="44.46078" lon="5.52476">
        <ele>728.1</ele>
        <time>2021-09-07T12:31:11Z</time>
      </trkpt>
      <trkpt lat="44.46076" lon="5.52479">
        <ele>728.2</ele>
        <time>2021-09-07T12:31:12Z</time>
      </trkpt>
      <trkpt lat="44.46073" lon="5.52483">
        <ele>728.3</ele>
        <time>2021-09-07T12:31:13Z</time>
      </trkpt>
      <trkpt lat="44.46072" lon="5.52484">
        <ele>728.3</ele>
        <time>2021-09-07T12:31:14Z</time>
      </trkpt>
      <trkpt lat="44.46071" lon="5.52485">
        <ele>728.3</ele>
        <time>2021-09-07T12:31:15Z</time>
      </trkpt>
      <trkpt lat="44.46068" lon="5.52489">
        <ele>728.4</ele>
        <time>2021-09-07T12:31:16Z</time>
      </trkpt>
      <trkpt lat="44.46066" lon="5.52492">
        <ele>728.5</ele>
        <time>2021-09-07T12:31:17Z</time>
      </trkpt>
      <trkpt lat="44.46065" lon="5.52495">
        <ele>728.6</ele>
        <time>2021-09-07T12:31:18Z</time>
      </trkpt>
      <trkpt lat="44.46063" lon="5.52498">
        <ele>728.7</ele>
        <time>2021-09-07T12:31:19Z</time>
      </trkpt>
      <trkpt lat="44.46061" lon="5.525">
        <ele>728.7</ele>
        <time>2021-09-07T12:31:20Z</time>
      </trkpt>
      <trkpt lat="44.46059" lon="5.52504">
        <ele>728.8</ele>
        <time>2021-09-07T12:31:21Z</time>
      </trkpt>
      <trkpt lat="44.46057" lon="5.52508">
        <ele>729</ele>
        <time>2021-09-07T12:31:22Z</time>
      </trkpt>
      <trkpt lat="44.46055" lon="5.52512">
        <ele>729.1</ele>
        <time>2021-09-07T12:31:23Z</time>
      </trkpt>
      <trkpt lat="44.46055" lon="5.52515">
        <ele>729.1</ele>
        <time>2021-09-07T12:31:24Z</time>
      </trkpt>
      <trkpt lat="44.46054" lon="5.52517">
        <ele>729.2</ele>
        <time>2021-09-07T12:31:25Z</time>
      </trkpt>
      <trkpt lat="44.46051" lon="5.52523">
        <ele>729.3</ele>
        <time>2021-09-07T12:31:26Z</time>
      </trkpt>
      <trkpt lat="44.46051" lon="5.52526">
        <ele>729.4</ele>
        <time>2021-09-07T12:31:27Z</time>
      </trkpt>
      <trkpt lat="44.4605" lon="5.52528">
        <ele>729.4</ele>
        <time>2021-09-07T12:31:28Z</time>
      </trkpt>
      <trkpt lat="44.46048" lon="5.52534">
        <ele>729.6</ele>
        <time>2021-09-07T12:31:29Z</time>
      </trkpt>
      <trkpt lat="44.46047" lon="5.52538">
        <ele>729.7</ele>
        <time>2021-09-07T12:31:30Z</time>
      </trkpt>
      <trkpt lat="44.46046" lon="5.52542">
        <ele>729.8</ele>
        <time>2021-09-07T12:31:31Z</time>
      </trkpt>
      <trkpt lat="44.46044" lon="5.52546">
        <ele>729.9</ele>
        <time>2021-09-07T12:31:32Z</time>
      </trkpt>
      <trkpt lat="44.46043" lon="5.5255">
        <ele>730</ele>
        <time>2021-09-07T12:31:33Z</time>
      </trkpt>
      <trkpt lat="44.46042" lon="5.52554">
        <ele>730.1</ele>
        <time>2021-09-07T12:31:34Z</time>
      </trkpt>
      <trkpt lat="44.46041" lon="5.52558">
        <ele>730.2</ele>
        <time>2021-09-07T12:31:35Z</time>
      </trkpt>
      <trkpt lat="44.4604" lon="5.52561">
        <ele>730.3</ele>
        <time>2021-09-07T12:31:36Z</time>
      </trkpt>
      <trkpt lat="44.46039" lon="5.52564">
        <ele>730.3</ele>
        <time>2021-09-07T12:31:37Z</time>
      </trkpt>
      <trkpt lat="44.46038" lon="5.52567">
        <ele>730.3</ele>
        <time>2021-09-07T12:31:38Z</time>
      </trkpt>
      <trkpt lat="44.46036" lon="5.52572">
        <ele>730.4</ele>
        <time>2021-09-07T12:31:39Z</time>
      </trkpt>
      <trkpt lat="44.46035" lon="5.52576">
        <ele>730.4</ele>
        <time>2021-09-07T12:31:40Z</time>
      </trkpt>
      <trkpt lat="44.46035" lon="5.52579">
        <ele>730.4</ele>
        <time>2021-09-07T12:31:41Z</time>
      </trkpt>
      <trkpt lat="44.46034" lon="5.52581">
        <ele>730.5</ele>
        <time>2021-09-07T12:31:42Z</time>
      </trkpt>
      <trkpt lat="44.46031" lon="5.5259">
        <ele>730.5</ele>
        <time>2021-09-07T12:31:43Z</time>
      </trkpt>
      <trkpt lat="44.4603" lon="5.52592">
        <ele>730.5</ele>
        <time>2021-09-07T12:31:44Z</time>
      </trkpt>
      <trkpt lat="44.46029" lon="5.52594">
        <ele>730.6</ele>
        <time>2021-09-07T12:31:45Z</time>
      </trkpt>
      <trkpt lat="44.46027" lon="5.52598">
        <ele>730.6</ele>
        <time>2021-09-07T12:31:46Z</time>
      </trkpt>
      <trkpt lat="44.46024" lon="5.52604">
        <ele>730.6</ele>
        <time>2021-09-07T12:31:47Z</time>
      </trkpt>
      <trkpt lat="44.46022" lon="5.5261">
        <ele>730.7</ele>
        <time>2021-09-07T12:31:48Z</time>
      </trkpt>
      <trkpt lat="44.46021" lon="5.52612">
        <ele>730.7</ele>
        <time>2021-09-07T12:31:49Z</time>
      </trkpt>
      <trkpt lat="44.46019" lon="5.52618">
        <ele>730.7</ele>
        <time>2021-09-07T12:31:50Z</time>
      </trkpt>
      <trkpt lat="44.46017" lon="5.52622">
        <ele>730.8</ele>
        <time>2021-09-07T12:31:51Z</time>
      </trkpt>
      <trkpt lat="44.46014" lon="5.52627">
        <ele>730.8</ele>
        <time>2021-09-07T12:31:52Z</time>
      </trkpt>
      <trkpt lat="44.46013" lon="5.52629">
        <ele>730.8</ele>
        <time>2021-09-07T12:31:53Z</time>
      </trkpt>
      <trkpt lat="44.46012" lon="5.52631">
        <ele>730.8</ele>
        <time>2021-09-07T12:31:54Z</time>
      </trkpt>
      <trkpt lat="44.46008" lon="5.52639">
        <ele>730.8</ele>
        <time>2021-09-07T12:31:55Z</time>
      </trkpt>
      <trkpt lat="44.46007" lon="5.52642">
        <ele>730.8</ele>
        <time>2021-09-07T12:31:56Z</time>
      </trkpt>
      <trkpt lat="44.46005" lon="5.52645">
        <ele>730.8</ele>
        <time>2021-09-07T12:31:57Z</time>
      </trkpt>
      <trkpt lat="44.46002" lon="5.52649">
        <ele>730.8</ele>
        <time>2021-09-07T12:31:58Z</time>
      </trkpt>
      <trkpt lat="44.45999" lon="5.52654">
        <ele>730.9</ele>
        <time>2021-09-07T12:31:59Z</time>
      </trkpt>
      <trkpt lat="44.45997" lon="5.52658">
        <ele>730.9</ele>
        <time>2021-09-07T12:32:00Z</time>
      </trkpt>
      <trkpt lat="44.45993" lon="5.52665">
        <ele>730.9</ele>
        <time>2021-09-07T12:32:01Z</time>
      </trkpt>
      <trkpt lat="44.4599" lon="5.5267">
        <ele>730.9</ele>
        <time>2021-09-07T12:32:02Z</time>
      </trkpt>
      <trkpt lat="44.45988" lon="5.52673">
        <ele>730.9</ele>
        <time>2021-09-07T12:32:03Z</time>
      </trkpt>
      <trkpt lat="44.45986" lon="5.52675">
        <ele>731</ele>
        <time>2021-09-07T12:32:04Z</time>
      </trkpt>
      <trkpt lat="44.45982" lon="5.52681">
        <ele>731</ele>
        <time>2021-09-07T12:32:05Z</time>
      </trkpt>
      <trkpt lat="44.45978" lon="5.52685">
        <ele>731</ele>
        <time>2021-09-07T12:32:06Z</time>
      </trkpt>
      <trkpt lat="44.45977" lon="5.52687">
        <ele>731.1</ele>
        <time>2021-09-07T12:32:07Z</time>
      </trkpt>
      <trkpt lat="44.45975" lon="5.52689">
        <ele>731.1</ele>
        <time>2021-09-07T12:32:08Z</time>
      </trkpt>
      <trkpt lat="44.45969" lon="5.52695">
        <ele>731.2</ele>
        <time>2021-09-07T12:32:09Z</time>
      </trkpt>
      <trkpt lat="44.45968" lon="5.52698">
        <ele>731.2</ele>
        <time>2021-09-07T12:32:10Z</time>
      </trkpt>
      <trkpt lat="44.45966" lon="5.527">
        <ele>731.2</ele>
        <time>2021-09-07T12:32:11Z</time>
      </trkpt>
      <trkpt lat="44.45961" lon="5.52706">
        <ele>731.3</ele>
        <time>2021-09-07T12:32:12Z</time>
      </trkpt>
      <trkpt lat="44.45958" lon="5.5271">
        <ele>731.4</ele>
        <time>2021-09-07T12:32:13Z</time>
      </trkpt>
      <trkpt lat="44.45955" lon="5.52714">
        <ele>731.4</ele>
        <time>2021-09-07T12:32:14Z</time>
      </trkpt>
      <trkpt lat="44.45952" lon="5.52717">
        <ele>731.5</ele>
        <time>2021-09-07T12:32:15Z</time>
      </trkpt>
      <trkpt lat="44.4595" lon="5.52719">
        <ele>731.5</ele>
        <time>2021-09-07T12:32:16Z</time>
      </trkpt>
      <trkpt lat="44.45948" lon="5.52721">
        <ele>731.5</ele>
        <time>2021-09-07T12:32:17Z</time>
      </trkpt>
      <trkpt lat="44.45946" lon="5.52724">
        <ele>731.6</ele>
        <time>2021-09-07T12:32:18Z</time>
      </trkpt>
      <trkpt lat="44.45943" lon="5.52727">
        <ele>731.6</ele>
        <time>2021-09-07T12:32:19Z</time>
      </trkpt>
      <trkpt lat="44.4594" lon="5.5273">
        <ele>731.7</ele>
        <time>2021-09-07T12:32:20Z</time>
      </trkpt>
      <trkpt lat="44.45936" lon="5.52735">
        <ele>731.7</ele>
        <time>2021-09-07T12:32:21Z</time>
      </trkpt>
      <trkpt lat="44.45932" lon="5.52739">
        <ele>731.7</ele>
        <time>2021-09-07T12:32:22Z</time>
      </trkpt>
      <trkpt lat="44.4593" lon="5.52742">
        <ele>731.7</ele>
        <time>2021-09-07T12:32:23Z</time>
      </trkpt>
      <trkpt lat="44.45928" lon="5.52744">
        <ele>731.7</ele>
        <time>2021-09-07T12:32:24Z</time>
      </trkpt>
      <trkpt lat="44.45924" lon="5.52747">
        <ele>731.7</ele>
        <time>2021-09-07T12:32:25Z</time>
      </trkpt>
      <trkpt lat="44.45922" lon="5.5275">
        <ele>731.7</ele>
        <time>2021-09-07T12:32:26Z</time>
      </trkpt>
      <trkpt lat="44.4592" lon="5.52752">
        <ele>731.7</ele>
        <time>2021-09-07T12:32:27Z</time>
      </trkpt>
      <trkpt lat="44.45917" lon="5.52756">
        <ele>731.7</ele>
        <time>2021-09-07T12:32:28Z</time>
      </trkpt>
      <trkpt lat="44.45914" lon="5.52759">
        <ele>731.7</ele>
        <time>2021-09-07T12:32:29Z</time>
      </trkpt>
      <trkpt lat="44.45911" lon="5.52762">
        <ele>731.6</ele>
        <time>2021-09-07T12:32:30Z</time>
      </trkpt>
      <trkpt lat="44.45909" lon="5.52765">
        <ele>731.6</ele>
        <time>2021-09-07T12:32:31Z</time>
      </trkpt>
      <trkpt lat="44.45907" lon="5.52768">
        <ele>731.6</ele>
        <time>2021-09-07T12:32:32Z</time>
      </trkpt>
      <trkpt lat="44.45903" lon="5.52772">
        <ele>731.5</ele>
        <time>2021-09-07T12:32:33Z</time>
      </trkpt>
      <trkpt lat="44.459" lon="5.52776">
        <ele>731.5</ele>
        <time>2021-09-07T12:32:34Z</time>
      </trkpt>
      <trkpt lat="44.45897" lon="5.52779">
        <ele>731.4</ele>
        <time>2021-09-07T12:32:35Z</time>
      </trkpt>
      <trkpt lat="44.45894" lon="5.52783">
        <ele>731.4</ele>
        <time>2021-09-07T12:32:36Z</time>
      </trkpt>
      <trkpt lat="44.4589" lon="5.52788">
        <ele>731.3</ele>
        <time>2021-09-07T12:32:37Z</time>
      </trkpt>
      <trkpt lat="44.45886" lon="5.52793">
        <ele>731.3</ele>
        <time>2021-09-07T12:32:38Z</time>
      </trkpt>
      <trkpt lat="44.45883" lon="5.52797">
        <ele>731.2</ele>
        <time>2021-09-07T12:32:39Z</time>
      </trkpt>
      <trkpt lat="44.45879" lon="5.52801">
        <ele>731.2</ele>
        <time>2021-09-07T12:32:40Z</time>
      </trkpt>
      <trkpt lat="44.45876" lon="5.52805">
        <ele>731.2</ele>
        <time>2021-09-07T12:32:41Z</time>
      </trkpt>
      <trkpt lat="44.45873" lon="5.52807">
        <ele>731.2</ele>
        <time>2021-09-07T12:32:42Z</time>
      </trkpt>
      <trkpt lat="44.4587" lon="5.52812">
        <ele>731.2</ele>
        <time>2021-09-07T12:32:43Z</time>
      </trkpt>
      <trkpt lat="44.45866" lon="5.52817">
        <ele>731.3</ele>
        <time>2021-09-07T12:32:44Z</time>
      </trkpt>
      <trkpt lat="44.4586" lon="5.52821">
        <ele>731.3</ele>
        <time>2021-09-07T12:32:45Z</time>
      </trkpt>
      <trkpt lat="44.45858" lon="5.52822">
        <ele>731.3</ele>
        <time>2021-09-07T12:32:46Z</time>
      </trkpt>
      <trkpt lat="44.45856" lon="5.52823">
        <ele>731.4</ele>
        <time>2021-09-07T12:32:47Z</time>
      </trkpt>
      <trkpt lat="44.45852" lon="5.5283">
        <ele>731.4</ele>
        <time>2021-09-07T12:32:48Z</time>
      </trkpt>
      <trkpt lat="44.45849" lon="5.52833">
        <ele>731.5</ele>
        <time>2021-09-07T12:32:49Z</time>
      </trkpt>
      <trkpt lat="44.45846" lon="5.52836">
        <ele>731.6</ele>
        <time>2021-09-07T12:32:50Z</time>
      </trkpt>
      <trkpt lat="44.45842" lon="5.52842">
        <ele>731.7</ele>
        <time>2021-09-07T12:32:51Z</time>
      </trkpt>
      <trkpt lat="44.45837" lon="5.52848">
        <ele>731.9</ele>
        <time>2021-09-07T12:32:52Z</time>
      </trkpt>
      <trkpt lat="44.45833" lon="5.52853">
        <ele>732</ele>
        <time>2021-09-07T12:32:53Z</time>
      </trkpt>
      <trkpt lat="44.45832" lon="5.52855">
        <ele>732.1</ele>
        <time>2021-09-07T12:32:54Z</time>
      </trkpt>
      <trkpt lat="44.4583" lon="5.52857">
        <ele>732.2</ele>
        <time>2021-09-07T12:32:55Z</time>
      </trkpt>
      <trkpt lat="44.45827" lon="5.5286">
        <ele>732.3</ele>
        <time>2021-09-07T12:32:56Z</time>
      </trkpt>
      <trkpt lat="44.45823" lon="5.52864">
        <ele>732.4</ele>
        <time>2021-09-07T12:32:57Z</time>
      </trkpt>
      <trkpt lat="44.4582" lon="5.52868">
        <ele>732.5</ele>
        <time>2021-09-07T12:32:58Z</time>
      </trkpt>
      <trkpt lat="44.45815" lon="5.52873">
        <ele>732.7</ele>
        <time>2021-09-07T12:32:59Z</time>
      </trkpt>
      <trkpt lat="44.45814" lon="5.52875">
        <ele>732.7</ele>
        <time>2021-09-07T12:33:00Z</time>
      </trkpt>
      <trkpt lat="44.45812" lon="5.52877">
        <ele>732.8</ele>
        <time>2021-09-07T12:33:01Z</time>
      </trkpt>
      <trkpt lat="44.4581" lon="5.5288">
        <ele>732.9</ele>
        <time>2021-09-07T12:33:02Z</time>
      </trkpt>
      <trkpt lat="44.45806" lon="5.52884">
        <ele>733</ele>
        <time>2021-09-07T12:33:03Z</time>
      </trkpt>
      <trkpt lat="44.45804" lon="5.52887">
        <ele>733.2</ele>
        <time>2021-09-07T12:33:04Z</time>
      </trkpt>
      <trkpt lat="44.45802" lon="5.52889">
        <ele>733.3</ele>
        <time>2021-09-07T12:33:05Z</time>
      </trkpt>
      <trkpt lat="44.458" lon="5.52892">
        <ele>733.4</ele>
        <time>2021-09-07T12:33:06Z</time>
      </trkpt>
      <trkpt lat="44.45798" lon="5.52895">
        <ele>733.5</ele>
        <time>2021-09-07T12:33:07Z</time>
      </trkpt>
      <trkpt lat="44.45794" lon="5.529">
        <ele>733.7</ele>
        <time>2021-09-07T12:33:08Z</time>
      </trkpt>
      <trkpt lat="44.45793" lon="5.52902">
        <ele>733.7</ele>
        <time>2021-09-07T12:33:09Z</time>
      </trkpt>
      <trkpt lat="44.45792" lon="5.52904">
        <ele>733.8</ele>
        <time>2021-09-07T12:33:10Z</time>
      </trkpt>
      <trkpt lat="44.45789" lon="5.52908">
        <ele>734</ele>
        <time>2021-09-07T12:33:11Z</time>
      </trkpt>
      <trkpt lat="44.45785" lon="5.52912">
        <ele>734.1</ele>
        <time>2021-09-07T12:33:12Z</time>
      </trkpt>
      <trkpt lat="44.45783" lon="5.52915">
        <ele>734.2</ele>
        <time>2021-09-07T12:33:13Z</time>
      </trkpt>
      <trkpt lat="44.4578" lon="5.52919">
        <ele>734.4</ele>
        <time>2021-09-07T12:33:14Z</time>
      </trkpt>
      <trkpt lat="44.45778" lon="5.52922">
        <ele>734.5</ele>
        <time>2021-09-07T12:33:15Z</time>
      </trkpt>
      <trkpt lat="44.45776" lon="5.52924">
        <ele>734.6</ele>
        <time>2021-09-07T12:33:16Z</time>
      </trkpt>
      <trkpt lat="44.45772" lon="5.52929">
        <ele>734.8</ele>
        <time>2021-09-07T12:33:17Z</time>
      </trkpt>
      <trkpt lat="44.45771" lon="5.52931">
        <ele>734.9</ele>
        <time>2021-09-07T12:33:18Z</time>
      </trkpt>
      <trkpt lat="44.45769" lon="5.52932">
        <ele>734.9</ele>
        <time>2021-09-07T12:33:19Z</time>
      </trkpt>
      <trkpt lat="44.45766" lon="5.52935">
        <ele>735.1</ele>
        <time>2021-09-07T12:33:20Z</time>
      </trkpt>
      <trkpt lat="44.45762" lon="5.52939">
        <ele>735.3</ele>
        <time>2021-09-07T12:33:21Z</time>
      </trkpt>
      <trkpt lat="44.45759" lon="5.52943">
        <ele>735.5</ele>
        <time>2021-09-07T12:33:22Z</time>
      </trkpt>
      <trkpt lat="44.45756" lon="5.52946">
        <ele>735.6</ele>
        <time>2021-09-07T12:33:23Z</time>
      </trkpt>
      <trkpt lat="44.45754" lon="5.52948">
        <ele>735.7</ele>
        <time>2021-09-07T12:33:24Z</time>
      </trkpt>
      <trkpt lat="44.45752" lon="5.5295">
        <ele>735.8</ele>
        <time>2021-09-07T12:33:25Z</time>
      </trkpt>
      <trkpt lat="44.4575" lon="5.52952">
        <ele>736</ele>
        <time>2021-09-07T12:33:26Z</time>
      </trkpt>
      <trkpt lat="44.45748" lon="5.52955">
        <ele>736.1</ele>
        <time>2021-09-07T12:33:27Z</time>
      </trkpt>
      <trkpt lat="44.45745" lon="5.52957">
        <ele>736.2</ele>
        <time>2021-09-07T12:33:28Z</time>
      </trkpt>
      <trkpt lat="44.45744" lon="5.52958">
        <ele>736.3</ele>
        <time>2021-09-07T12:33:29Z</time>
      </trkpt>
      <trkpt lat="44.45743" lon="5.52959">
        <ele>736.3</ele>
        <time>2021-09-07T12:33:30Z</time>
      </trkpt>
      <trkpt lat="44.4574" lon="5.52963">
        <ele>736.5</ele>
        <time>2021-09-07T12:33:31Z</time>
      </trkpt>
      <trkpt lat="44.45737" lon="5.52966">
        <ele>736.7</ele>
        <time>2021-09-07T12:33:32Z</time>
      </trkpt>
      <trkpt lat="44.45735" lon="5.52969">
        <ele>736.8</ele>
        <time>2021-09-07T12:33:33Z</time>
      </trkpt>
      <trkpt lat="44.45734" lon="5.52971">
        <ele>736.9</ele>
        <time>2021-09-07T12:33:34Z</time>
      </trkpt>
      <trkpt lat="44.45732" lon="5.52972">
        <ele>737</ele>
        <time>2021-09-07T12:33:35Z</time>
      </trkpt>
      <trkpt lat="44.4573" lon="5.52974">
        <ele>737.1</ele>
        <time>2021-09-07T12:33:36Z</time>
      </trkpt>
      <trkpt lat="44.45728" lon="5.52978">
        <ele>737.3</ele>
        <time>2021-09-07T12:33:37Z</time>
      </trkpt>
      <trkpt lat="44.45725" lon="5.52982">
        <ele>737.5</ele>
        <time>2021-09-07T12:33:38Z</time>
      </trkpt>
      <trkpt lat="44.45724" lon="5.52984">
        <ele>737.5</ele>
        <time>2021-09-07T12:33:39Z</time>
      </trkpt>
      <trkpt lat="44.45723" lon="5.52986">
        <ele>737.6</ele>
        <time>2021-09-07T12:33:40Z</time>
      </trkpt>
      <trkpt lat="44.4572" lon="5.52989">
        <ele>737.8</ele>
        <time>2021-09-07T12:33:41Z</time>
      </trkpt>
      <trkpt lat="44.45719" lon="5.52991">
        <ele>737.9</ele>
        <time>2021-09-07T12:33:42Z</time>
      </trkpt>
      <trkpt lat="44.45718" lon="5.52993">
        <ele>737.9</ele>
        <time>2021-09-07T12:33:43Z</time>
      </trkpt>
      <trkpt lat="44.45715" lon="5.52997">
        <ele>738.1</ele>
        <time>2021-09-07T12:33:44Z</time>
      </trkpt>
      <trkpt lat="44.45713" lon="5.53">
        <ele>738.2</ele>
        <time>2021-09-07T12:33:45Z</time>
      </trkpt>
      <trkpt lat="44.45711" lon="5.53002">
        <ele>738.3</ele>
        <time>2021-09-07T12:33:46Z</time>
      </trkpt>
      <trkpt lat="44.4571" lon="5.53004">
        <ele>738.3</ele>
        <time>2021-09-07T12:33:47Z</time>
      </trkpt>
      <trkpt lat="44.45708" lon="5.53005">
        <ele>738.4</ele>
        <time>2021-09-07T12:33:48Z</time>
      </trkpt>
      <trkpt lat="44.45704" lon="5.5301">
        <ele>738.5</ele>
        <time>2021-09-07T12:33:49Z</time>
      </trkpt>
      <trkpt lat="44.45703" lon="5.53012">
        <ele>738.6</ele>
        <time>2021-09-07T12:33:50Z</time>
      </trkpt>
      <trkpt lat="44.45702" lon="5.53013">
        <ele>738.6</ele>
        <time>2021-09-07T12:33:51Z</time>
      </trkpt>
      <trkpt lat="44.457" lon="5.53015">
        <ele>738.6</ele>
        <time>2021-09-07T12:33:52Z</time>
      </trkpt>
      <trkpt lat="44.45698" lon="5.53018">
        <ele>738.7</ele>
        <time>2021-09-07T12:33:53Z</time>
      </trkpt>
      <trkpt lat="44.45695" lon="5.5302">
        <ele>738.7</ele>
        <time>2021-09-07T12:33:54Z</time>
      </trkpt>
      <trkpt lat="44.45693" lon="5.53022">
        <ele>738.7</ele>
        <time>2021-09-07T12:33:55Z</time>
      </trkpt>
      <trkpt lat="44.4569" lon="5.53024">
        <ele>738.7</ele>
        <time>2021-09-07T12:33:56Z</time>
      </trkpt>
      <trkpt lat="44.45687" lon="5.53027">
        <ele>738.8</ele>
        <time>2021-09-07T12:33:57Z</time>
      </trkpt>
      <trkpt lat="44.45684" lon="5.53029">
        <ele>738.8</ele>
        <time>2021-09-07T12:33:58Z</time>
      </trkpt>
      <trkpt lat="44.45681" lon="5.53032">
        <ele>738.8</ele>
        <time>2021-09-07T12:33:59Z</time>
      </trkpt>
      <trkpt lat="44.4568" lon="5.53034">
        <ele>738.7</ele>
        <time>2021-09-07T12:34:00Z</time>
      </trkpt>
      <trkpt lat="44.45679" lon="5.53035">
        <ele>738.7</ele>
        <time>2021-09-07T12:34:01Z</time>
      </trkpt>
      <trkpt lat="44.45677" lon="5.53038">
        <ele>738.7</ele>
        <time>2021-09-07T12:34:02Z</time>
      </trkpt>
      <trkpt lat="44.45675" lon="5.5304">
        <ele>738.7</ele>
        <time>2021-09-07T12:34:03Z</time>
      </trkpt>
      <trkpt lat="44.45672" lon="5.53042">
        <ele>738.7</ele>
        <time>2021-09-07T12:34:04Z</time>
      </trkpt>
      <trkpt lat="44.45667" lon="5.53048">
        <ele>738.7</ele>
        <time>2021-09-07T12:34:05Z</time>
      </trkpt>
      <trkpt lat="44.45665" lon="5.53051">
        <ele>738.7</ele>
        <time>2021-09-07T12:34:06Z</time>
      </trkpt>
      <trkpt lat="44.45663" lon="5.53053">
        <ele>738.7</ele>
        <time>2021-09-07T12:34:07Z</time>
      </trkpt>
      <trkpt lat="44.45659" lon="5.53058">
        <ele>738.7</ele>
        <time>2021-09-07T12:34:08Z</time>
      </trkpt>
      <trkpt lat="44.45657" lon="5.5306">
        <ele>738.7</ele>
        <time>2021-09-07T12:34:09Z</time>
      </trkpt>
      <trkpt lat="44.45655" lon="5.53062">
        <ele>738.8</ele>
        <time>2021-09-07T12:34:10Z</time>
      </trkpt>
      <trkpt lat="44.45652" lon="5.53066">
        <ele>738.8</ele>
        <time>2021-09-07T12:34:11Z</time>
      </trkpt>
      <trkpt lat="44.4565" lon="5.53069">
        <ele>738.8</ele>
        <time>2021-09-07T12:34:12Z</time>
      </trkpt>
      <trkpt lat="44.45647" lon="5.53072">
        <ele>738.8</ele>
        <time>2021-09-07T12:34:13Z</time>
      </trkpt>
      <trkpt lat="44.45644" lon="5.53076">
        <ele>738.8</ele>
        <time>2021-09-07T12:34:14Z</time>
      </trkpt>
      <trkpt lat="44.4564" lon="5.53081">
        <ele>738.9</ele>
        <time>2021-09-07T12:34:15Z</time>
      </trkpt>
      <trkpt lat="44.45638" lon="5.53084">
        <ele>738.9</ele>
        <time>2021-09-07T12:34:16Z</time>
      </trkpt>
      <trkpt lat="44.45637" lon="5.53086">
        <ele>738.9</ele>
        <time>2021-09-07T12:34:17Z</time>
      </trkpt>
      <trkpt lat="44.45635" lon="5.53088">
        <ele>738.9</ele>
        <time>2021-09-07T12:34:18Z</time>
      </trkpt>
      <trkpt lat="44.45632" lon="5.53091">
        <ele>739</ele>
        <time>2021-09-07T12:34:19Z</time>
      </trkpt>
      <trkpt lat="44.45629" lon="5.53095">
        <ele>739.1</ele>
        <time>2021-09-07T12:34:20Z</time>
      </trkpt>
      <trkpt lat="44.45625" lon="5.53099">
        <ele>739.1</ele>
        <time>2021-09-07T12:34:21Z</time>
      </trkpt>
      <trkpt lat="44.45622" lon="5.53103">
        <ele>739.2</ele>
        <time>2021-09-07T12:34:22Z</time>
      </trkpt>
      <trkpt lat="44.45618" lon="5.53108">
        <ele>739.4</ele>
        <time>2021-09-07T12:34:23Z</time>
      </trkpt>
      <trkpt lat="44.45615" lon="5.53112">
        <ele>739.5</ele>
        <time>2021-09-07T12:34:24Z</time>
      </trkpt>
      <trkpt lat="44.45612" lon="5.53115">
        <ele>739.5</ele>
        <time>2021-09-07T12:34:25Z</time>
      </trkpt>
      <trkpt lat="44.45609" lon="5.5312">
        <ele>739.7</ele>
        <time>2021-09-07T12:34:26Z</time>
      </trkpt>
      <trkpt lat="44.45607" lon="5.53122">
        <ele>739.7</ele>
        <time>2021-09-07T12:34:27Z</time>
      </trkpt>
      <trkpt lat="44.45605" lon="5.53124">
        <ele>739.8</ele>
        <time>2021-09-07T12:34:28Z</time>
      </trkpt>
      <trkpt lat="44.45602" lon="5.53128">
        <ele>739.9</ele>
        <time>2021-09-07T12:34:29Z</time>
      </trkpt>
      <trkpt lat="44.45597" lon="5.53135">
        <ele>740.1</ele>
        <time>2021-09-07T12:34:30Z</time>
      </trkpt>
      <trkpt lat="44.45596" lon="5.53137">
        <ele>740.2</ele>
        <time>2021-09-07T12:34:31Z</time>
      </trkpt>
      <trkpt lat="44.45594" lon="5.53138">
        <ele>740.2</ele>
        <time>2021-09-07T12:34:32Z</time>
      </trkpt>
      <trkpt lat="44.45589" lon="5.53143">
        <ele>740.4</ele>
        <time>2021-09-07T12:34:33Z</time>
      </trkpt>
      <trkpt lat="44.45587" lon="5.53145">
        <ele>740.5</ele>
        <time>2021-09-07T12:34:34Z</time>
      </trkpt>
      <trkpt lat="44.45585" lon="5.53146">
        <ele>740.6</ele>
        <time>2021-09-07T12:34:35Z</time>
      </trkpt>
      <trkpt lat="44.45583" lon="5.5315">
        <ele>740.7</ele>
        <time>2021-09-07T12:34:36Z</time>
      </trkpt>
      <trkpt lat="44.4558" lon="5.53153">
        <ele>740.8</ele>
        <time>2021-09-07T12:34:37Z</time>
      </trkpt>
      <trkpt lat="44.45577" lon="5.53155">
        <ele>740.9</ele>
        <time>2021-09-07T12:34:38Z</time>
      </trkpt>
      <trkpt lat="44.45574" lon="5.53159">
        <ele>741.1</ele>
        <time>2021-09-07T12:34:39Z</time>
      </trkpt>
      <trkpt lat="44.45571" lon="5.53163">
        <ele>741.2</ele>
        <time>2021-09-07T12:34:40Z</time>
      </trkpt>
      <trkpt lat="44.4557" lon="5.53165">
        <ele>741.3</ele>
        <time>2021-09-07T12:34:41Z</time>
      </trkpt>
      <trkpt lat="44.45569" lon="5.53166">
        <ele>741.3</ele>
        <time>2021-09-07T12:34:42Z</time>
      </trkpt>
      <trkpt lat="44.45565" lon="5.53169">
        <ele>741.5</ele>
        <time>2021-09-07T12:34:43Z</time>
      </trkpt>
      <trkpt lat="44.45563" lon="5.53172">
        <ele>741.6</ele>
        <time>2021-09-07T12:34:44Z</time>
      </trkpt>
      <trkpt lat="44.45562" lon="5.53174">
        <ele>741.6</ele>
        <time>2021-09-07T12:34:45Z</time>
      </trkpt>
      <trkpt lat="44.4556" lon="5.53176">
        <ele>741.7</ele>
        <time>2021-09-07T12:34:46Z</time>
      </trkpt>
      <trkpt lat="44.45558" lon="5.53178">
        <ele>741.8</ele>
        <time>2021-09-07T12:34:47Z</time>
      </trkpt>
      <trkpt lat="44.45554" lon="5.53183">
        <ele>742</ele>
        <time>2021-09-07T12:34:48Z</time>
      </trkpt>
      <trkpt lat="44.45553" lon="5.53184">
        <ele>742.1</ele>
        <time>2021-09-07T12:34:49Z</time>
      </trkpt>
      <trkpt lat="44.45552" lon="5.53185">
        <ele>742.1</ele>
        <time>2021-09-07T12:34:50Z</time>
      </trkpt>
      <trkpt lat="44.4555" lon="5.53188">
        <ele>742.2</ele>
        <time>2021-09-07T12:34:51Z</time>
      </trkpt>
      <trkpt lat="44.45548" lon="5.5319">
        <ele>742.3</ele>
        <time>2021-09-07T12:34:52Z</time>
      </trkpt>
      <trkpt lat="44.45545" lon="5.53193">
        <ele>742.5</ele>
        <time>2021-09-07T12:34:53Z</time>
      </trkpt>
      <trkpt lat="44.45543" lon="5.53195">
        <ele>742.6</ele>
        <time>2021-09-07T12:34:54Z</time>
      </trkpt>
      <trkpt lat="44.45541" lon="5.53197">
        <ele>742.7</ele>
        <time>2021-09-07T12:34:55Z</time>
      </trkpt>
      <trkpt lat="44.45539" lon="5.53198">
        <ele>742.8</ele>
        <time>2021-09-07T12:34:56Z</time>
      </trkpt>
      <trkpt lat="44.45537" lon="5.532">
        <ele>742.9</ele>
        <time>2021-09-07T12:34:57Z</time>
      </trkpt>
      <trkpt lat="44.45534" lon="5.53202">
        <ele>743</ele>
        <time>2021-09-07T12:34:58Z</time>
      </trkpt>
      <trkpt lat="44.45532" lon="5.53205">
        <ele>743.1</ele>
        <time>2021-09-07T12:34:59Z</time>
      </trkpt>
      <trkpt lat="44.4553" lon="5.53207">
        <ele>743.2</ele>
        <time>2021-09-07T12:35:00Z</time>
      </trkpt>
      <trkpt lat="44.45528" lon="5.53209">
        <ele>743.3</ele>
        <time>2021-09-07T12:35:01Z</time>
      </trkpt>
      <trkpt lat="44.45526" lon="5.53211">
        <ele>743.4</ele>
        <time>2021-09-07T12:35:02Z</time>
      </trkpt>
      <trkpt lat="44.45524" lon="5.53214">
        <ele>743.5</ele>
        <time>2021-09-07T12:35:03Z</time>
      </trkpt>
      <trkpt lat="44.45522" lon="5.53216">
        <ele>743.6</ele>
        <time>2021-09-07T12:35:04Z</time>
      </trkpt>
      <trkpt lat="44.4552" lon="5.53219">
        <ele>743.7</ele>
        <time>2021-09-07T12:35:05Z</time>
      </trkpt>
      <trkpt lat="44.45518" lon="5.53221">
        <ele>743.8</ele>
        <time>2021-09-07T12:35:06Z</time>
      </trkpt>
      <trkpt lat="44.45515" lon="5.53224">
        <ele>743.9</ele>
        <time>2021-09-07T12:35:07Z</time>
      </trkpt>
      <trkpt lat="44.45514" lon="5.53226">
        <ele>744</ele>
        <time>2021-09-07T12:35:08Z</time>
      </trkpt>
      <trkpt lat="44.45512" lon="5.53227">
        <ele>744.1</ele>
        <time>2021-09-07T12:35:09Z</time>
      </trkpt>
      <trkpt lat="44.4551" lon="5.53229">
        <ele>744.2</ele>
        <time>2021-09-07T12:35:10Z</time>
      </trkpt>
      <trkpt lat="44.45508" lon="5.5323">
        <ele>744.2</ele>
        <time>2021-09-07T12:35:11Z</time>
      </trkpt>
      <trkpt lat="44.45506" lon="5.53232">
        <ele>744.3</ele>
        <time>2021-09-07T12:35:12Z</time>
      </trkpt>
      <trkpt lat="44.45505" lon="5.53234">
        <ele>744.4</ele>
        <time>2021-09-07T12:35:13Z</time>
      </trkpt>
      <trkpt lat="44.45503" lon="5.53236">
        <ele>744.4</ele>
        <time>2021-09-07T12:35:14Z</time>
      </trkpt>
      <trkpt lat="44.455" lon="5.5324">
        <ele>744.6</ele>
        <time>2021-09-07T12:35:15Z</time>
      </trkpt>
      <trkpt lat="44.45499" lon="5.53243">
        <ele>744.6</ele>
        <time>2021-09-07T12:35:16Z</time>
      </trkpt>
      <trkpt lat="44.45497" lon="5.53245">
        <ele>744.7</ele>
        <time>2021-09-07T12:35:17Z</time>
      </trkpt>
      <trkpt lat="44.45495" lon="5.53248">
        <ele>744.8</ele>
        <time>2021-09-07T12:35:18Z</time>
      </trkpt>
      <trkpt lat="44.45493" lon="5.5325">
        <ele>744.9</ele>
        <time>2021-09-07T12:35:19Z</time>
      </trkpt>
      <trkpt lat="44.45491" lon="5.53252">
        <ele>744.9</ele>
        <time>2021-09-07T12:35:20Z</time>
      </trkpt>
      <trkpt lat="44.4549" lon="5.53253">
        <ele>745</ele>
        <time>2021-09-07T12:35:21Z</time>
      </trkpt>
      <trkpt lat="44.45489" lon="5.53254">
        <ele>745</ele>
        <time>2021-09-07T12:35:22Z</time>
      </trkpt>
      <trkpt lat="44.45486" lon="5.53257">
        <ele>745.1</ele>
        <time>2021-09-07T12:35:23Z</time>
      </trkpt>
      <trkpt lat="44.45486" lon="5.53258">
        <ele>745.1</ele>
        <time>2021-09-07T12:35:24Z</time>
      </trkpt>
      <trkpt lat="44.45485" lon="5.53258">
        <ele>745.1</ele>
        <time>2021-09-07T12:35:25Z</time>
      </trkpt>
      <trkpt lat="44.45483" lon="5.5326">
        <ele>745.2</ele>
        <time>2021-09-07T12:35:26Z</time>
      </trkpt>
      <trkpt lat="44.4548" lon="5.53263">
        <ele>745.3</ele>
        <time>2021-09-07T12:35:27Z</time>
      </trkpt>
      <trkpt lat="44.45479" lon="5.53264">
        <ele>745.3</ele>
        <time>2021-09-07T12:35:28Z</time>
      </trkpt>
      <trkpt lat="44.45478" lon="5.53265">
        <ele>745.3</ele>
        <time>2021-09-07T12:35:29Z</time>
      </trkpt>
      <trkpt lat="44.45476" lon="5.53268">
        <ele>745.4</ele>
        <time>2021-09-07T12:35:30Z</time>
      </trkpt>
      <trkpt lat="44.45472" lon="5.53272">
        <ele>745.5</ele>
        <time>2021-09-07T12:35:31Z</time>
      </trkpt>
      <trkpt lat="44.45471" lon="5.53274">
        <ele>745.5</ele>
        <time>2021-09-07T12:35:32Z</time>
      </trkpt>
      <trkpt lat="44.45469" lon="5.53275">
        <ele>745.6</ele>
        <time>2021-09-07T12:35:33Z</time>
      </trkpt>
      <trkpt lat="44.45466" lon="5.53278">
        <ele>745.6</ele>
        <time>2021-09-07T12:35:34Z</time>
      </trkpt>
      <trkpt lat="44.45463" lon="5.53281">
        <ele>745.7</ele>
        <time>2021-09-07T12:35:35Z</time>
      </trkpt>
      <trkpt lat="44.45461" lon="5.53284">
        <ele>745.8</ele>
        <time>2021-09-07T12:35:36Z</time>
      </trkpt>
      <trkpt lat="44.45459" lon="5.53286">
        <ele>745.8</ele>
        <time>2021-09-07T12:35:37Z</time>
      </trkpt>
      <trkpt lat="44.45457" lon="5.53287">
        <ele>745.8</ele>
        <time>2021-09-07T12:35:38Z</time>
      </trkpt>
      <trkpt lat="44.45453" lon="5.53291">
        <ele>745.9</ele>
        <time>2021-09-07T12:35:39Z</time>
      </trkpt>
      <trkpt lat="44.4545" lon="5.53294">
        <ele>746</ele>
        <time>2021-09-07T12:35:40Z</time>
      </trkpt>
      <trkpt lat="44.45449" lon="5.53296">
        <ele>746</ele>
        <time>2021-09-07T12:35:41Z</time>
      </trkpt>
      <trkpt lat="44.45447" lon="5.53297">
        <ele>746</ele>
        <time>2021-09-07T12:35:42Z</time>
      </trkpt>
      <trkpt lat="44.45444" lon="5.53299">
        <ele>746.1</ele>
        <time>2021-09-07T12:35:43Z</time>
      </trkpt>
      <trkpt lat="44.45442" lon="5.53302">
        <ele>746.1</ele>
        <time>2021-09-07T12:35:44Z</time>
      </trkpt>
      <trkpt lat="44.45438" lon="5.53306">
        <ele>746.2</ele>
        <time>2021-09-07T12:35:45Z</time>
      </trkpt>
      <trkpt lat="44.45436" lon="5.53308">
        <ele>746.2</ele>
        <time>2021-09-07T12:35:46Z</time>
      </trkpt>
      <trkpt lat="44.45434" lon="5.5331">
        <ele>746.3</ele>
        <time>2021-09-07T12:35:47Z</time>
      </trkpt>
      <trkpt lat="44.45432" lon="5.53312">
        <ele>746.3</ele>
        <time>2021-09-07T12:35:48Z</time>
      </trkpt>
      <trkpt lat="44.45428" lon="5.53316">
        <ele>746.4</ele>
        <time>2021-09-07T12:35:49Z</time>
      </trkpt>
      <trkpt lat="44.45424" lon="5.53319">
        <ele>746.5</ele>
        <time>2021-09-07T12:35:50Z</time>
      </trkpt>
      <trkpt lat="44.45421" lon="5.53322">
        <ele>746.6</ele>
        <time>2021-09-07T12:35:51Z</time>
      </trkpt>
      <trkpt lat="44.45419" lon="5.53324">
        <ele>746.6</ele>
        <time>2021-09-07T12:35:52Z</time>
      </trkpt>
      <trkpt lat="44.45417" lon="5.53326">
        <ele>746.7</ele>
        <time>2021-09-07T12:35:53Z</time>
      </trkpt>
      <trkpt lat="44.45415" lon="5.53328">
        <ele>746.7</ele>
        <time>2021-09-07T12:35:54Z</time>
      </trkpt>
      <trkpt lat="44.45412" lon="5.53331">
        <ele>746.7</ele>
        <time>2021-09-07T12:35:55Z</time>
      </trkpt>
      <trkpt lat="44.45409" lon="5.53333">
        <ele>746.8</ele>
        <time>2021-09-07T12:35:56Z</time>
      </trkpt>
      <trkpt lat="44.45407" lon="5.53336">
        <ele>746.8</ele>
        <time>2021-09-07T12:35:57Z</time>
      </trkpt>
      <trkpt lat="44.45405" lon="5.53338">
        <ele>746.9</ele>
        <time>2021-09-07T12:35:58Z</time>
      </trkpt>
      <trkpt lat="44.45404" lon="5.5334">
        <ele>746.9</ele>
        <time>2021-09-07T12:35:59Z</time>
      </trkpt>
      <trkpt lat="44.45402" lon="5.53341">
        <ele>746.9</ele>
        <time>2021-09-07T12:36:00Z</time>
      </trkpt>
      <trkpt lat="44.45398" lon="5.53345">
        <ele>747</ele>
        <time>2021-09-07T12:36:01Z</time>
      </trkpt>
      <trkpt lat="44.45397" lon="5.53346">
        <ele>747</ele>
        <time>2021-09-07T12:36:02Z</time>
      </trkpt>
      <trkpt lat="44.45395" lon="5.53347">
        <ele>747</ele>
        <time>2021-09-07T12:36:03Z</time>
      </trkpt>
      <trkpt lat="44.45393" lon="5.53349">
        <ele>747.1</ele>
        <time>2021-09-07T12:36:04Z</time>
      </trkpt>
      <trkpt lat="44.4539" lon="5.53352">
        <ele>747.1</ele>
        <time>2021-09-07T12:36:05Z</time>
      </trkpt>
      <trkpt lat="44.45387" lon="5.53354">
        <ele>747.2</ele>
        <time>2021-09-07T12:36:06Z</time>
      </trkpt>
      <trkpt lat="44.45383" lon="5.53359">
        <ele>747.3</ele>
        <time>2021-09-07T12:36:07Z</time>
      </trkpt>
      <trkpt lat="44.45382" lon="5.53361">
        <ele>747.3</ele>
        <time>2021-09-07T12:36:08Z</time>
      </trkpt>
      <trkpt lat="44.4538" lon="5.53362">
        <ele>747.3</ele>
        <time>2021-09-07T12:36:09Z</time>
      </trkpt>
      <trkpt lat="44.45377" lon="5.53366">
        <ele>747.4</ele>
        <time>2021-09-07T12:36:10Z</time>
      </trkpt>
      <trkpt lat="44.45374" lon="5.53369">
        <ele>747.4</ele>
        <time>2021-09-07T12:36:11Z</time>
      </trkpt>
      <trkpt lat="44.45371" lon="5.53371">
        <ele>747.4</ele>
        <time>2021-09-07T12:36:12Z</time>
      </trkpt>
      <trkpt lat="44.45369" lon="5.53372">
        <ele>747.5</ele>
        <time>2021-09-07T12:36:13Z</time>
      </trkpt>
      <trkpt lat="44.45367" lon="5.53373">
        <ele>747.5</ele>
        <time>2021-09-07T12:36:14Z</time>
      </trkpt>
      <trkpt lat="44.45364" lon="5.53377">
        <ele>747.5</ele>
        <time>2021-09-07T12:36:15Z</time>
      </trkpt>
      <trkpt lat="44.45361" lon="5.53379">
        <ele>747.6</ele>
        <time>2021-09-07T12:36:16Z</time>
      </trkpt>
      <trkpt lat="44.4536" lon="5.5338">
        <ele>747.6</ele>
        <time>2021-09-07T12:36:17Z</time>
      </trkpt>
      <trkpt lat="44.45358" lon="5.53381">
        <ele>747.6</ele>
        <time>2021-09-07T12:36:18Z</time>
      </trkpt>
      <trkpt lat="44.45354" lon="5.53385">
        <ele>747.7</ele>
        <time>2021-09-07T12:36:19Z</time>
      </trkpt>
      <trkpt lat="44.45352" lon="5.53387">
        <ele>747.7</ele>
        <time>2021-09-07T12:36:20Z</time>
      </trkpt>
      <trkpt lat="44.45349" lon="5.53389">
        <ele>747.8</ele>
        <time>2021-09-07T12:36:21Z</time>
      </trkpt>
      <trkpt lat="44.45348" lon="5.53391">
        <ele>747.8</ele>
        <time>2021-09-07T12:36:22Z</time>
      </trkpt>
      <trkpt lat="44.45346" lon="5.53393">
        <ele>747.8</ele>
        <time>2021-09-07T12:36:23Z</time>
      </trkpt>
      <trkpt lat="44.45342" lon="5.53396">
        <ele>747.9</ele>
        <time>2021-09-07T12:36:24Z</time>
      </trkpt>
      <trkpt lat="44.4534" lon="5.53399">
        <ele>748</ele>
        <time>2021-09-07T12:36:25Z</time>
      </trkpt>
      <trkpt lat="44.45337" lon="5.53403">
        <ele>748.1</ele>
        <time>2021-09-07T12:36:26Z</time>
      </trkpt>
      <trkpt lat="44.45334" lon="5.53406">
        <ele>748.1</ele>
        <time>2021-09-07T12:36:27Z</time>
      </trkpt>
      <trkpt lat="44.45333" lon="5.53408">
        <ele>748.2</ele>
        <time>2021-09-07T12:36:28Z</time>
      </trkpt>
      <trkpt lat="44.45331" lon="5.53409">
        <ele>748.2</ele>
        <time>2021-09-07T12:36:29Z</time>
      </trkpt>
      <trkpt lat="44.45326" lon="5.53415">
        <ele>748.4</ele>
        <time>2021-09-07T12:36:30Z</time>
      </trkpt>
      <trkpt lat="44.45325" lon="5.53417">
        <ele>748.4</ele>
        <time>2021-09-07T12:36:31Z</time>
      </trkpt>
      <trkpt lat="44.45323" lon="5.53419">
        <ele>748.5</ele>
        <time>2021-09-07T12:36:32Z</time>
      </trkpt>
      <trkpt lat="44.45319" lon="5.53422">
        <ele>748.6</ele>
        <time>2021-09-07T12:36:33Z</time>
      </trkpt>
      <trkpt lat="44.45315" lon="5.53426">
        <ele>748.7</ele>
        <time>2021-09-07T12:36:34Z</time>
      </trkpt>
      <trkpt lat="44.45312" lon="5.53429">
        <ele>748.8</ele>
        <time>2021-09-07T12:36:35Z</time>
      </trkpt>
      <trkpt lat="44.4531" lon="5.53431">
        <ele>748.9</ele>
        <time>2021-09-07T12:36:36Z</time>
      </trkpt>
      <trkpt lat="44.45307" lon="5.53433">
        <ele>749</ele>
        <time>2021-09-07T12:36:37Z</time>
      </trkpt>
      <trkpt lat="44.45304" lon="5.53436">
        <ele>749.1</ele>
        <time>2021-09-07T12:36:38Z</time>
      </trkpt>
      <trkpt lat="44.45303" lon="5.53438">
        <ele>749.1</ele>
        <time>2021-09-07T12:36:39Z</time>
      </trkpt>
      <trkpt lat="44.45302" lon="5.53439">
        <ele>749.2</ele>
        <time>2021-09-07T12:36:40Z</time>
      </trkpt>
      <trkpt lat="44.45299" lon="5.53443">
        <ele>749.3</ele>
        <time>2021-09-07T12:36:41Z</time>
      </trkpt>
      <trkpt lat="44.45296" lon="5.53446">
        <ele>749.3</ele>
        <time>2021-09-07T12:36:42Z</time>
      </trkpt>
      <trkpt lat="44.45293" lon="5.5345">
        <ele>749.4</ele>
        <time>2021-09-07T12:36:43Z</time>
      </trkpt>
      <trkpt lat="44.45292" lon="5.53452">
        <ele>749.5</ele>
        <time>2021-09-07T12:36:44Z</time>
      </trkpt>
      <trkpt lat="44.4529" lon="5.53454">
        <ele>749.5</ele>
        <time>2021-09-07T12:36:45Z</time>
      </trkpt>
      <trkpt lat="44.45286" lon="5.53459">
        <ele>749.7</ele>
        <time>2021-09-07T12:36:46Z</time>
      </trkpt>
      <trkpt lat="44.45285" lon="5.53461">
        <ele>749.7</ele>
        <time>2021-09-07T12:36:47Z</time>
      </trkpt>
      <trkpt lat="44.45283" lon="5.53462">
        <ele>749.8</ele>
        <time>2021-09-07T12:36:48Z</time>
      </trkpt>
      <trkpt lat="44.4528" lon="5.53465">
        <ele>749.8</ele>
        <time>2021-09-07T12:36:49Z</time>
      </trkpt>
      <trkpt lat="44.45277" lon="5.53468">
        <ele>749.9</ele>
        <time>2021-09-07T12:36:50Z</time>
      </trkpt>
      <trkpt lat="44.45273" lon="5.53472">
        <ele>750</ele>
        <time>2021-09-07T12:36:51Z</time>
      </trkpt>
      <trkpt lat="44.4527" lon="5.53475">
        <ele>750.1</ele>
        <time>2021-09-07T12:36:52Z</time>
      </trkpt>
      <trkpt lat="44.45267" lon="5.53479">
        <ele>750.2</ele>
        <time>2021-09-07T12:36:53Z</time>
      </trkpt>
      <trkpt lat="44.45265" lon="5.53481">
        <ele>750.2</ele>
        <time>2021-09-07T12:36:54Z</time>
      </trkpt>
      <trkpt lat="44.45263" lon="5.53482">
        <ele>750.2</ele>
        <time>2021-09-07T12:36:55Z</time>
      </trkpt>
      <trkpt lat="44.4526" lon="5.53485">
        <ele>750.3</ele>
        <time>2021-09-07T12:36:56Z</time>
      </trkpt>
      <trkpt lat="44.45255" lon="5.5349">
        <ele>750.4</ele>
        <time>2021-09-07T12:36:57Z</time>
      </trkpt>
      <trkpt lat="44.45253" lon="5.53492">
        <ele>750.5</ele>
        <time>2021-09-07T12:36:58Z</time>
      </trkpt>
      <trkpt lat="44.45251" lon="5.53494">
        <ele>750.5</ele>
        <time>2021-09-07T12:36:59Z</time>
      </trkpt>
      <trkpt lat="44.45248" lon="5.53497">
        <ele>750.6</ele>
        <time>2021-09-07T12:37:00Z</time>
      </trkpt>
      <trkpt lat="44.45244" lon="5.53502">
        <ele>750.7</ele>
        <time>2021-09-07T12:37:01Z</time>
      </trkpt>
      <trkpt lat="44.45242" lon="5.53505">
        <ele>750.7</ele>
        <time>2021-09-07T12:37:02Z</time>
      </trkpt>
      <trkpt lat="44.45239" lon="5.53507">
        <ele>750.8</ele>
        <time>2021-09-07T12:37:03Z</time>
      </trkpt>
      <trkpt lat="44.45234" lon="5.53512">
        <ele>750.9</ele>
        <time>2021-09-07T12:37:04Z</time>
      </trkpt>
      <trkpt lat="44.45233" lon="5.53514">
        <ele>751</ele>
        <time>2021-09-07T12:37:05Z</time>
      </trkpt>
      <trkpt lat="44.45231" lon="5.53516">
        <ele>751</ele>
        <time>2021-09-07T12:37:06Z</time>
      </trkpt>
      <trkpt lat="44.45227" lon="5.5352">
        <ele>751.1</ele>
        <time>2021-09-07T12:37:07Z</time>
      </trkpt>
      <trkpt lat="44.45223" lon="5.53523">
        <ele>751.2</ele>
        <time>2021-09-07T12:37:08Z</time>
      </trkpt>
      <trkpt lat="44.45222" lon="5.53525">
        <ele>751.3</ele>
        <time>2021-09-07T12:37:09Z</time>
      </trkpt>
      <trkpt lat="44.4522" lon="5.53526">
        <ele>751.3</ele>
        <time>2021-09-07T12:37:10Z</time>
      </trkpt>
      <trkpt lat="44.45218" lon="5.53529">
        <ele>751.4</ele>
        <time>2021-09-07T12:37:11Z</time>
      </trkpt>
      <trkpt lat="44.45215" lon="5.53532">
        <ele>751.5</ele>
        <time>2021-09-07T12:37:12Z</time>
      </trkpt>
      <trkpt lat="44.45212" lon="5.53537">
        <ele>751.6</ele>
        <time>2021-09-07T12:37:13Z</time>
      </trkpt>
      <trkpt lat="44.45208" lon="5.53542">
        <ele>751.7</ele>
        <time>2021-09-07T12:37:14Z</time>
      </trkpt>
      <trkpt lat="44.45207" lon="5.53544">
        <ele>751.8</ele>
        <time>2021-09-07T12:37:15Z</time>
      </trkpt>
      <trkpt lat="44.45206" lon="5.53545">
        <ele>751.8</ele>
        <time>2021-09-07T12:37:16Z</time>
      </trkpt>
      <trkpt lat="44.45204" lon="5.53548">
        <ele>751.9</ele>
        <time>2021-09-07T12:37:17Z</time>
      </trkpt>
      <trkpt lat="44.45202" lon="5.5355">
        <ele>752</ele>
        <time>2021-09-07T12:37:18Z</time>
      </trkpt>
      <trkpt lat="44.45198" lon="5.53555">
        <ele>752.1</ele>
        <time>2021-09-07T12:37:19Z</time>
      </trkpt>
      <trkpt lat="44.45195" lon="5.5356">
        <ele>752.3</ele>
        <time>2021-09-07T12:37:20Z</time>
      </trkpt>
      <trkpt lat="44.45194" lon="5.53562">
        <ele>752.3</ele>
        <time>2021-09-07T12:37:21Z</time>
      </trkpt>
      <trkpt lat="44.45192" lon="5.53563">
        <ele>752.4</ele>
        <time>2021-09-07T12:37:22Z</time>
      </trkpt>
      <trkpt lat="44.4519" lon="5.53567">
        <ele>752.5</ele>
        <time>2021-09-07T12:37:23Z</time>
      </trkpt>
      <trkpt lat="44.45188" lon="5.5357">
        <ele>752.6</ele>
        <time>2021-09-07T12:37:24Z</time>
      </trkpt>
      <trkpt lat="44.45185" lon="5.53574">
        <ele>752.8</ele>
        <time>2021-09-07T12:37:25Z</time>
      </trkpt>
      <trkpt lat="44.45183" lon="5.53578">
        <ele>752.9</ele>
        <time>2021-09-07T12:37:26Z</time>
      </trkpt>
      <trkpt lat="44.4518" lon="5.53581">
        <ele>753.1</ele>
        <time>2021-09-07T12:37:27Z</time>
      </trkpt>
      <trkpt lat="44.45178" lon="5.53586">
        <ele>753.2</ele>
        <time>2021-09-07T12:37:28Z</time>
      </trkpt>
      <trkpt lat="44.45176" lon="5.53588">
        <ele>753.3</ele>
        <time>2021-09-07T12:37:29Z</time>
      </trkpt>
      <trkpt lat="44.45175" lon="5.5359">
        <ele>753.4</ele>
        <time>2021-09-07T12:37:30Z</time>
      </trkpt>
      <trkpt lat="44.45174" lon="5.53592">
        <ele>753.5</ele>
        <time>2021-09-07T12:37:31Z</time>
      </trkpt>
      <trkpt lat="44.45172" lon="5.53595">
        <ele>753.6</ele>
        <time>2021-09-07T12:37:32Z</time>
      </trkpt>
      <trkpt lat="44.4517" lon="5.53599">
        <ele>753.7</ele>
        <time>2021-09-07T12:37:33Z</time>
      </trkpt>
      <trkpt lat="44.45169" lon="5.53602">
        <ele>753.8</ele>
        <time>2021-09-07T12:37:34Z</time>
      </trkpt>
      <trkpt lat="44.45168" lon="5.53604">
        <ele>753.9</ele>
        <time>2021-09-07T12:37:35Z</time>
      </trkpt>
      <trkpt lat="44.45167" lon="5.53606">
        <ele>754</ele>
        <time>2021-09-07T12:37:36Z</time>
      </trkpt>
      <trkpt lat="44.45166" lon="5.53609">
        <ele>754.1</ele>
        <time>2021-09-07T12:37:37Z</time>
      </trkpt>
      <trkpt lat="44.45164" lon="5.53611">
        <ele>754.2</ele>
        <time>2021-09-07T12:37:38Z</time>
      </trkpt>
      <trkpt lat="44.45162" lon="5.53614">
        <ele>754.3</ele>
        <time>2021-09-07T12:37:39Z</time>
      </trkpt>
      <trkpt lat="44.45161" lon="5.53617">
        <ele>754.4</ele>
        <time>2021-09-07T12:37:40Z</time>
      </trkpt>
      <trkpt lat="44.45159" lon="5.53621">
        <ele>754.5</ele>
        <time>2021-09-07T12:37:41Z</time>
      </trkpt>
      <trkpt lat="44.45158" lon="5.53623">
        <ele>754.6</ele>
        <time>2021-09-07T12:37:42Z</time>
      </trkpt>
      <trkpt lat="44.45157" lon="5.53624">
        <ele>754.6</ele>
        <time>2021-09-07T12:37:43Z</time>
      </trkpt>
      <trkpt lat="44.45156" lon="5.53629">
        <ele>754.8</ele>
        <time>2021-09-07T12:37:44Z</time>
      </trkpt>
      <trkpt lat="44.45155" lon="5.53632">
        <ele>754.8</ele>
        <time>2021-09-07T12:37:45Z</time>
      </trkpt>
      <trkpt lat="44.45154" lon="5.53634">
        <ele>754.9</ele>
        <time>2021-09-07T12:37:46Z</time>
      </trkpt>
      <trkpt lat="44.45152" lon="5.53638">
        <ele>755</ele>
        <time>2021-09-07T12:37:47Z</time>
      </trkpt>
      <trkpt lat="44.45151" lon="5.53642">
        <ele>755.1</ele>
        <time>2021-09-07T12:37:48Z</time>
      </trkpt>
      <trkpt lat="44.45149" lon="5.53646">
        <ele>755.2</ele>
        <time>2021-09-07T12:37:49Z</time>
      </trkpt>
      <trkpt lat="44.45148" lon="5.53648">
        <ele>755.3</ele>
        <time>2021-09-07T12:37:50Z</time>
      </trkpt>
      <trkpt lat="44.45147" lon="5.5365">
        <ele>755.3</ele>
        <time>2021-09-07T12:37:51Z</time>
      </trkpt>
      <trkpt lat="44.45146" lon="5.53654">
        <ele>755.4</ele>
        <time>2021-09-07T12:37:52Z</time>
      </trkpt>
      <trkpt lat="44.45145" lon="5.53657">
        <ele>755.5</ele>
        <time>2021-09-07T12:37:53Z</time>
      </trkpt>
      <trkpt lat="44.45144" lon="5.5366">
        <ele>755.6</ele>
        <time>2021-09-07T12:37:54Z</time>
      </trkpt>
      <trkpt lat="44.45143" lon="5.53663">
        <ele>755.7</ele>
        <time>2021-09-07T12:37:55Z</time>
      </trkpt>
      <trkpt lat="44.45142" lon="5.53667">
        <ele>755.8</ele>
        <time>2021-09-07T12:37:56Z</time>
      </trkpt>
      <trkpt lat="44.45141" lon="5.5367">
        <ele>755.9</ele>
        <time>2021-09-07T12:37:57Z</time>
      </trkpt>
      <trkpt lat="44.45139" lon="5.53673">
        <ele>756</ele>
        <time>2021-09-07T12:37:58Z</time>
      </trkpt>
      <trkpt lat="44.45138" lon="5.53677">
        <ele>756.2</ele>
        <time>2021-09-07T12:37:59Z</time>
      </trkpt>
      <trkpt lat="44.45136" lon="5.53684">
        <ele>756.4</ele>
        <time>2021-09-07T12:38:00Z</time>
      </trkpt>
      <trkpt lat="44.45135" lon="5.53686">
        <ele>756.4</ele>
        <time>2021-09-07T12:38:01Z</time>
      </trkpt>
      <trkpt lat="44.45134" lon="5.53688">
        <ele>756.5</ele>
        <time>2021-09-07T12:38:02Z</time>
      </trkpt>
      <trkpt lat="44.45133" lon="5.53692">
        <ele>756.6</ele>
        <time>2021-09-07T12:38:03Z</time>
      </trkpt>
      <trkpt lat="44.45131" lon="5.53697">
        <ele>756.8</ele>
        <time>2021-09-07T12:38:04Z</time>
      </trkpt>
      <trkpt lat="44.4513" lon="5.53699">
        <ele>756.9</ele>
        <time>2021-09-07T12:38:05Z</time>
      </trkpt>
      <trkpt lat="44.45129" lon="5.53701">
        <ele>756.9</ele>
        <time>2021-09-07T12:38:06Z</time>
      </trkpt>
      <trkpt lat="44.45128" lon="5.53704">
        <ele>757</ele>
        <time>2021-09-07T12:38:07Z</time>
      </trkpt>
      <trkpt lat="44.45127" lon="5.53707">
        <ele>757.1</ele>
        <time>2021-09-07T12:38:08Z</time>
      </trkpt>
      <trkpt lat="44.45127" lon="5.5371">
        <ele>757.2</ele>
        <time>2021-09-07T12:38:09Z</time>
      </trkpt>
      <trkpt lat="44.45126" lon="5.53713">
        <ele>757.3</ele>
        <time>2021-09-07T12:38:10Z</time>
      </trkpt>
      <trkpt lat="44.45126" lon="5.53717">
        <ele>757.4</ele>
        <time>2021-09-07T12:38:11Z</time>
      </trkpt>
      <trkpt lat="44.45126" lon="5.53721">
        <ele>757.5</ele>
        <time>2021-09-07T12:38:12Z</time>
      </trkpt>
      <trkpt lat="44.45126" lon="5.53724">
        <ele>757.6</ele>
        <time>2021-09-07T12:38:13Z</time>
      </trkpt>
      <trkpt lat="44.45125" lon="5.53727">
        <ele>757.7</ele>
        <time>2021-09-07T12:38:14Z</time>
      </trkpt>
      <trkpt lat="44.45125" lon="5.5373">
        <ele>757.8</ele>
        <time>2021-09-07T12:38:15Z</time>
      </trkpt>
      <trkpt lat="44.45125" lon="5.53733">
        <ele>757.8</ele>
        <time>2021-09-07T12:38:16Z</time>
      </trkpt>
      <trkpt lat="44.45125" lon="5.53736">
        <ele>757.9</ele>
        <time>2021-09-07T12:38:17Z</time>
      </trkpt>
      <trkpt lat="44.45125" lon="5.53738">
        <ele>758</ele>
        <time>2021-09-07T12:38:18Z</time>
      </trkpt>
      <trkpt lat="44.45125" lon="5.53744">
        <ele>758.2</ele>
        <time>2021-09-07T12:38:19Z</time>
      </trkpt>
      <trkpt lat="44.45125" lon="5.53747">
        <ele>758.2</ele>
        <time>2021-09-07T12:38:20Z</time>
      </trkpt>
      <trkpt lat="44.45125" lon="5.53749">
        <ele>758.3</ele>
        <time>2021-09-07T12:38:21Z</time>
      </trkpt>
      <trkpt lat="44.45125" lon="5.53753">
        <ele>758.4</ele>
        <time>2021-09-07T12:38:22Z</time>
      </trkpt>
      <trkpt lat="44.45125" lon="5.53757">
        <ele>758.5</ele>
        <time>2021-09-07T12:38:23Z</time>
      </trkpt>
      <trkpt lat="44.45125" lon="5.53761">
        <ele>758.6</ele>
        <time>2021-09-07T12:38:24Z</time>
      </trkpt>
      <trkpt lat="44.45126" lon="5.53766">
        <ele>758.7</ele>
        <time>2021-09-07T12:38:25Z</time>
      </trkpt>
      <trkpt lat="44.45125" lon="5.53769">
        <ele>758.8</ele>
        <time>2021-09-07T12:38:26Z</time>
      </trkpt>
      <trkpt lat="44.45125" lon="5.53772">
        <ele>758.9</ele>
        <time>2021-09-07T12:38:27Z</time>
      </trkpt>
      <trkpt lat="44.45125" lon="5.53774">
        <ele>758.9</ele>
        <time>2021-09-07T12:38:28Z</time>
      </trkpt>
      <trkpt lat="44.45125" lon="5.53778">
        <ele>759</ele>
        <time>2021-09-07T12:38:29Z</time>
      </trkpt>
      <trkpt lat="44.45125" lon="5.53781">
        <ele>759.1</ele>
        <time>2021-09-07T12:38:30Z</time>
      </trkpt>
      <trkpt lat="44.45124" lon="5.53786">
        <ele>759.3</ele>
        <time>2021-09-07T12:38:31Z</time>
      </trkpt>
      <trkpt lat="44.45124" lon="5.53789">
        <ele>759.3</ele>
        <time>2021-09-07T12:38:32Z</time>
      </trkpt>
      <trkpt lat="44.45123" lon="5.53791">
        <ele>759.4</ele>
        <time>2021-09-07T12:38:33Z</time>
      </trkpt>
      <trkpt lat="44.45123" lon="5.53794">
        <ele>759.5</ele>
        <time>2021-09-07T12:38:34Z</time>
      </trkpt>
      <trkpt lat="44.45123" lon="5.53797">
        <ele>759.6</ele>
        <time>2021-09-07T12:38:35Z</time>
      </trkpt>
      <trkpt lat="44.45122" lon="5.53799">
        <ele>759.7</ele>
        <time>2021-09-07T12:38:36Z</time>
      </trkpt>
      <trkpt lat="44.45122" lon="5.53804">
        <ele>759.8</ele>
        <time>2021-09-07T12:38:37Z</time>
      </trkpt>
      <trkpt lat="44.45122" lon="5.53807">
        <ele>759.9</ele>
        <time>2021-09-07T12:38:38Z</time>
      </trkpt>
      <trkpt lat="44.45122" lon="5.53809">
        <ele>760</ele>
        <time>2021-09-07T12:38:39Z</time>
      </trkpt>
      <trkpt lat="44.45121" lon="5.53811">
        <ele>760</ele>
        <time>2021-09-07T12:38:40Z</time>
      </trkpt>
      <trkpt lat="44.45119" lon="5.53815">
        <ele>760.2</ele>
        <time>2021-09-07T12:38:41Z</time>
      </trkpt>
      <trkpt lat="44.45119" lon="5.53818">
        <ele>760.3</ele>
        <time>2021-09-07T12:38:42Z</time>
      </trkpt>
      <trkpt lat="44.45119" lon="5.5382">
        <ele>760.4</ele>
        <time>2021-09-07T12:38:43Z</time>
      </trkpt>
      <trkpt lat="44.45119" lon="5.53823">
        <ele>760.5</ele>
        <time>2021-09-07T12:38:44Z</time>
      </trkpt>
      <trkpt lat="44.45119" lon="5.53826">
        <ele>760.6</ele>
        <time>2021-09-07T12:38:45Z</time>
      </trkpt>
      <trkpt lat="44.45119" lon="5.53828">
        <ele>760.6</ele>
        <time>2021-09-07T12:38:46Z</time>
      </trkpt>
      <trkpt lat="44.45118" lon="5.53829">
        <ele>760.7</ele>
        <time>2021-09-07T12:38:47Z</time>
      </trkpt>
      <trkpt lat="44.45118" lon="5.53833">
        <ele>760.8</ele>
        <time>2021-09-07T12:38:48Z</time>
      </trkpt>
      <trkpt lat="44.45118" lon="5.53835">
        <ele>760.9</ele>
        <time>2021-09-07T12:38:49Z</time>
      </trkpt>
      <trkpt lat="44.45118" lon="5.53838">
        <ele>761</ele>
        <time>2021-09-07T12:38:50Z</time>
      </trkpt>
      <trkpt lat="44.45118" lon="5.5384">
        <ele>761</ele>
        <time>2021-09-07T12:38:51Z</time>
      </trkpt>
      <trkpt lat="44.45118" lon="5.53841">
        <ele>761.1</ele>
        <time>2021-09-07T12:38:52Z</time>
      </trkpt>
      <trkpt lat="44.45118" lon="5.53844">
        <ele>761.2</ele>
        <time>2021-09-07T12:38:53Z</time>
      </trkpt>
      <trkpt lat="44.45118" lon="5.53846">
        <ele>761.3</ele>
        <time>2021-09-07T12:38:54Z</time>
      </trkpt>
      <trkpt lat="44.45117" lon="5.53849">
        <ele>761.4</ele>
        <time>2021-09-07T12:38:55Z</time>
      </trkpt>
      <trkpt lat="44.45117" lon="5.53852">
        <ele>761.5</ele>
        <time>2021-09-07T12:38:56Z</time>
      </trkpt>
      <trkpt lat="44.45117" lon="5.53854">
        <ele>761.6</ele>
        <time>2021-09-07T12:38:57Z</time>
      </trkpt>
      <trkpt lat="44.45116" lon="5.53856">
        <ele>761.7</ele>
        <time>2021-09-07T12:38:58Z</time>
      </trkpt>
      <trkpt lat="44.45116" lon="5.53859">
        <ele>761.8</ele>
        <time>2021-09-07T12:38:59Z</time>
      </trkpt>
      <trkpt lat="44.45115" lon="5.53861">
        <ele>761.9</ele>
        <time>2021-09-07T12:39:00Z</time>
      </trkpt>
      <trkpt lat="44.45115" lon="5.53863">
        <ele>761.9</ele>
        <time>2021-09-07T12:39:01Z</time>
      </trkpt>
      <trkpt lat="44.45114" lon="5.53865">
        <ele>762</ele>
        <time>2021-09-07T12:39:02Z</time>
      </trkpt>
      <trkpt lat="44.45112" lon="5.53868">
        <ele>762.2</ele>
        <time>2021-09-07T12:39:03Z</time>
      </trkpt>
      <trkpt lat="44.45111" lon="5.53873">
        <ele>762.4</ele>
        <time>2021-09-07T12:39:04Z</time>
      </trkpt>
      <trkpt lat="44.4511" lon="5.53876">
        <ele>762.5</ele>
        <time>2021-09-07T12:39:05Z</time>
      </trkpt>
      <trkpt lat="44.45109" lon="5.53878">
        <ele>762.6</ele>
        <time>2021-09-07T12:39:06Z</time>
      </trkpt>
      <trkpt lat="44.45109" lon="5.53879">
        <ele>762.6</ele>
        <time>2021-09-07T12:39:07Z</time>
      </trkpt>
      <trkpt lat="44.45108" lon="5.5388">
        <ele>762.7</ele>
        <time>2021-09-07T12:39:08Z</time>
      </trkpt>
      <trkpt lat="44.45107" lon="5.53883">
        <ele>762.8</ele>
        <time>2021-09-07T12:39:09Z</time>
      </trkpt>
      <trkpt lat="44.45106" lon="5.53885">
        <ele>762.9</ele>
        <time>2021-09-07T12:39:10Z</time>
      </trkpt>
      <trkpt lat="44.45105" lon="5.53887">
        <ele>763</ele>
        <time>2021-09-07T12:39:11Z</time>
      </trkpt>
      <trkpt lat="44.45104" lon="5.53889">
        <ele>763.1</ele>
        <time>2021-09-07T12:39:12Z</time>
      </trkpt>
      <trkpt lat="44.45103" lon="5.53892">
        <ele>763.2</ele>
        <time>2021-09-07T12:39:13Z</time>
      </trkpt>
      <trkpt lat="44.45102" lon="5.53896">
        <ele>763.4</ele>
        <time>2021-09-07T12:39:14Z</time>
      </trkpt>
      <trkpt lat="44.45102" lon="5.53898">
        <ele>763.5</ele>
        <time>2021-09-07T12:39:15Z</time>
      </trkpt>
      <trkpt lat="44.45101" lon="5.53899">
        <ele>763.6</ele>
        <time>2021-09-07T12:39:16Z</time>
      </trkpt>
      <trkpt lat="44.45101" lon="5.53901">
        <ele>763.6</ele>
        <time>2021-09-07T12:39:17Z</time>
      </trkpt>
      <trkpt lat="44.451" lon="5.53904">
        <ele>763.8</ele>
        <time>2021-09-07T12:39:18Z</time>
      </trkpt>
      <trkpt lat="44.451" lon="5.53908">
        <ele>763.9</ele>
        <time>2021-09-07T12:39:19Z</time>
      </trkpt>
      <trkpt lat="44.451" lon="5.5391">
        <ele>764</ele>
        <time>2021-09-07T12:39:20Z</time>
      </trkpt>
      <trkpt lat="44.45099" lon="5.53911">
        <ele>764.1</ele>
        <time>2021-09-07T12:39:21Z</time>
      </trkpt>
      <trkpt lat="44.45099" lon="5.53914">
        <ele>764.2</ele>
        <time>2021-09-07T12:39:22Z</time>
      </trkpt>
      <trkpt lat="44.45099" lon="5.53919">
        <ele>764.4</ele>
        <time>2021-09-07T12:39:23Z</time>
      </trkpt>
      <trkpt lat="44.45099" lon="5.53921">
        <ele>764.5</ele>
        <time>2021-09-07T12:39:24Z</time>
      </trkpt>
      <trkpt lat="44.45099" lon="5.53922">
        <ele>764.5</ele>
        <time>2021-09-07T12:39:25Z</time>
      </trkpt>
      <trkpt lat="44.45099" lon="5.53925">
        <ele>764.7</ele>
        <time>2021-09-07T12:39:26Z</time>
      </trkpt>
      <trkpt lat="44.45099" lon="5.53927">
        <ele>764.7</ele>
        <time>2021-09-07T12:39:27Z</time>
      </trkpt>
      <trkpt lat="44.45099" lon="5.53928">
        <ele>764.8</ele>
        <time>2021-09-07T12:39:28Z</time>
      </trkpt>
      <trkpt lat="44.45099" lon="5.53931">
        <ele>764.9</ele>
        <time>2021-09-07T12:39:29Z</time>
      </trkpt>
      <trkpt lat="44.45099" lon="5.53933">
        <ele>765</ele>
        <time>2021-09-07T12:39:30Z</time>
      </trkpt>
      <trkpt lat="44.45099" lon="5.53934">
        <ele>765.1</ele>
        <time>2021-09-07T12:39:31Z</time>
      </trkpt>
      <trkpt lat="44.45099" lon="5.53935">
        <ele>765.1</ele>
        <time>2021-09-07T12:39:32Z</time>
      </trkpt>
      <trkpt lat="44.45099" lon="5.53939">
        <ele>765.3</ele>
        <time>2021-09-07T12:39:33Z</time>
      </trkpt>
      <trkpt lat="44.45099" lon="5.53941">
        <ele>765.4</ele>
        <time>2021-09-07T12:39:34Z</time>
      </trkpt>
      <trkpt lat="44.45099" lon="5.53942">
        <ele>765.4</ele>
        <time>2021-09-07T12:39:35Z</time>
      </trkpt>
      <trkpt lat="44.45098" lon="5.53944">
        <ele>765.6</ele>
        <time>2021-09-07T12:39:36Z</time>
      </trkpt>
      <trkpt lat="44.45098" lon="5.53948">
        <ele>765.7</ele>
        <time>2021-09-07T12:39:37Z</time>
      </trkpt>
      <trkpt lat="44.45098" lon="5.53949">
        <ele>765.8</ele>
        <time>2021-09-07T12:39:38Z</time>
      </trkpt>
      <trkpt lat="44.45098" lon="5.5395">
        <ele>765.8</ele>
        <time>2021-09-07T12:39:39Z</time>
      </trkpt>
      <trkpt lat="44.45098" lon="5.53952">
        <ele>765.9</ele>
        <time>2021-09-07T12:39:40Z</time>
      </trkpt>
      <trkpt lat="44.45097" lon="5.53954">
        <ele>766</ele>
        <time>2021-09-07T12:39:41Z</time>
      </trkpt>
      <trkpt lat="44.45096" lon="5.53956">
        <ele>766.2</ele>
        <time>2021-09-07T12:39:42Z</time>
      </trkpt>
      <trkpt lat="44.45096" lon="5.53959">
        <ele>766.3</ele>
        <time>2021-09-07T12:39:43Z</time>
      </trkpt>
      <trkpt lat="44.45095" lon="5.53961">
        <ele>766.4</ele>
        <time>2021-09-07T12:39:44Z</time>
      </trkpt>
      <trkpt lat="44.45095" lon="5.53963">
        <ele>766.5</ele>
        <time>2021-09-07T12:39:45Z</time>
      </trkpt>
      <trkpt lat="44.45094" lon="5.53964">
        <ele>766.6</ele>
        <time>2021-09-07T12:39:46Z</time>
      </trkpt>
      <trkpt lat="44.45093" lon="5.53968">
        <ele>766.8</ele>
        <time>2021-09-07T12:39:47Z</time>
      </trkpt>
      <trkpt lat="44.45093" lon="5.53969">
        <ele>766.8</ele>
        <time>2021-09-07T12:39:48Z</time>
      </trkpt>
      <trkpt lat="44.45093" lon="5.5397">
        <ele>766.9</ele>
        <time>2021-09-07T12:39:49Z</time>
      </trkpt>
      <trkpt lat="44.45093" lon="5.53972">
        <ele>767</ele>
        <time>2021-09-07T12:39:50Z</time>
      </trkpt>
      <trkpt lat="44.45093" lon="5.53974">
        <ele>767.1</ele>
        <time>2021-09-07T12:39:51Z</time>
      </trkpt>
      <trkpt lat="44.45093" lon="5.53976">
        <ele>767.2</ele>
        <time>2021-09-07T12:39:52Z</time>
      </trkpt>
      <trkpt lat="44.45092" lon="5.53978">
        <ele>767.3</ele>
        <time>2021-09-07T12:39:53Z</time>
      </trkpt>
      <trkpt lat="44.45092" lon="5.5398">
        <ele>767.4</ele>
        <time>2021-09-07T12:39:54Z</time>
      </trkpt>
      <trkpt lat="44.45092" lon="5.53982">
        <ele>767.5</ele>
        <time>2021-09-07T12:39:55Z</time>
      </trkpt>
      <trkpt lat="44.45091" lon="5.53984">
        <ele>767.6</ele>
        <time>2021-09-07T12:39:56Z</time>
      </trkpt>
      <trkpt lat="44.45091" lon="5.53986">
        <ele>767.7</ele>
        <time>2021-09-07T12:39:57Z</time>
      </trkpt>
      <trkpt lat="44.4509" lon="5.53988">
        <ele>767.8</ele>
        <time>2021-09-07T12:39:58Z</time>
      </trkpt>
      <trkpt lat="44.4509" lon="5.5399">
        <ele>767.9</ele>
        <time>2021-09-07T12:39:59Z</time>
      </trkpt>
      <trkpt lat="44.4509" lon="5.53992">
        <ele>768</ele>
        <time>2021-09-07T12:40:00Z</time>
      </trkpt>
      <trkpt lat="44.4509" lon="5.53995">
        <ele>768.1</ele>
        <time>2021-09-07T12:40:01Z</time>
      </trkpt>
      <trkpt lat="44.4509" lon="5.53997">
        <ele>768.2</ele>
        <time>2021-09-07T12:40:02Z</time>
      </trkpt>
      <trkpt lat="44.45089" lon="5.53998">
        <ele>768.3</ele>
        <time>2021-09-07T12:40:03Z</time>
      </trkpt>
      <trkpt lat="44.45089" lon="5.54">
        <ele>768.4</ele>
        <time>2021-09-07T12:40:04Z</time>
      </trkpt>
      <trkpt lat="44.45089" lon="5.54002">
        <ele>768.5</ele>
        <time>2021-09-07T12:40:05Z</time>
      </trkpt>
      <trkpt lat="44.4509" lon="5.54003">
        <ele>768.5</ele>
        <time>2021-09-07T12:40:06Z</time>
      </trkpt>
      <trkpt lat="44.4509" lon="5.54005">
        <ele>768.6</ele>
        <time>2021-09-07T12:40:07Z</time>
      </trkpt>
      <trkpt lat="44.4509" lon="5.54006">
        <ele>768.7</ele>
        <time>2021-09-07T12:40:08Z</time>
      </trkpt>
      <trkpt lat="44.4509" lon="5.54009">
        <ele>768.8</ele>
        <time>2021-09-07T12:40:09Z</time>
      </trkpt>
      <trkpt lat="44.4509" lon="5.54011">
        <ele>768.9</ele>
        <time>2021-09-07T12:40:10Z</time>
      </trkpt>
      <trkpt lat="44.4509" lon="5.54012">
        <ele>769</ele>
        <time>2021-09-07T12:40:11Z</time>
      </trkpt>
      <trkpt lat="44.4509" lon="5.54014">
        <ele>769.1</ele>
        <time>2021-09-07T12:40:12Z</time>
      </trkpt>
      <trkpt lat="44.4509" lon="5.54017">
        <ele>769.2</ele>
        <time>2021-09-07T12:40:13Z</time>
      </trkpt>
      <trkpt lat="44.4509" lon="5.54019">
        <ele>769.3</ele>
        <time>2021-09-07T12:40:14Z</time>
      </trkpt>
      <trkpt lat="44.4509" lon="5.54019">
        <ele>769.3</ele>
        <time>2021-09-07T12:40:15Z</time>
      </trkpt>
      <trkpt lat="44.4509" lon="5.54019">
        <ele>769.3</ele>
        <time>2021-09-07T12:40:16Z</time>
      </trkpt>
      <trkpt lat="44.4509" lon="5.54019">
        <ele>769.3</ele>
        <time>2021-09-07T12:40:17Z</time>
      </trkpt>
      <trkpt lat="44.4509" lon="5.54019">
        <ele>769.3</ele>
        <time>2021-09-07T12:40:18Z</time>
      </trkpt>
      <trkpt lat="44.4509" lon="5.54019">
        <ele>769.4</ele>
        <time>2021-09-07T12:40:19Z</time>
      </trkpt>
      <trkpt lat="44.4509" lon="5.54019">
        <ele>769.4</ele>
        <time>2021-09-07T12:40:20Z</time>
      </trkpt>
      <trkpt lat="44.45091" lon="5.54019">
        <ele>769.4</ele>
        <time>2021-09-07T12:40:21Z</time>
      </trkpt>
      <trkpt lat="44.45091" lon="5.54019">
        <ele>769.4</ele>
        <time>2021-09-07T12:40:22Z</time>
      </trkpt>
      <trkpt lat="44.45091" lon="5.54019">
        <ele>769.4</ele>
        <time>2021-09-07T12:40:23Z</time>
      </trkpt>
      <trkpt lat="44.45091" lon="5.54019">
        <ele>769.4</ele>
        <time>2021-09-07T12:40:24Z</time>
      </trkpt>
      <trkpt lat="44.45091" lon="5.54019">
        <ele>769.4</ele>
        <time>2021-09-07T12:40:25Z</time>
      </trkpt>
      <trkpt lat="44.45091" lon="5.54019">
        <ele>769.4</ele>
        <time>2021-09-07T12:40:26Z</time>
      </trkpt>
      <trkpt lat="44.45091" lon="5.54018">
        <ele>769.4</ele>
        <time>2021-09-07T12:40:27Z</time>
      </trkpt>
      <trkpt lat="44.45091" lon="5.54018">
        <ele>769.4</ele>
        <time>2021-09-07T12:40:28Z</time>
      </trkpt>
      <trkpt lat="44.45091" lon="5.54018">
        <ele>769.4</ele>
        <time>2021-09-07T12:40:29Z</time>
      </trkpt>
      <trkpt lat="44.45091" lon="5.54018">
        <ele>769.4</ele>
        <time>2021-09-07T12:40:30Z</time>
      </trkpt>
      <trkpt lat="44.45091" lon="5.54018">
        <ele>769.4</ele>
        <time>2021-09-07T12:40:31Z</time>
      </trkpt>
      <trkpt lat="44.45091" lon="5.54018">
        <ele>769.4</ele>
        <time>2021-09-07T12:40:32Z</time>
      </trkpt>
      <trkpt lat="44.45091" lon="5.54018">
        <ele>769.4</ele>
        <time>2021-09-07T12:40:33Z</time>
      </trkpt>
      <trkpt lat="44.45091" lon="5.54018">
        <ele>769.4</ele>
        <time>2021-09-07T12:40:34Z</time>
      </trkpt>
      <trkpt lat="44.45091" lon="5.54018">
        <ele>769.4</ele>
        <time>2021-09-07T12:40:35Z</time>
      </trkpt>
      <trkpt lat="44.45091" lon="5.54018">
        <ele>769.4</ele>
        <time>2021-09-07T12:40:36Z</time>
      </trkpt>
      <trkpt lat="44.45092" lon="5.54018">
        <ele>769.4</ele>
        <time>2021-09-07T12:40:37Z</time>
      </trkpt>
      <trkpt lat="44.45092" lon="5.54018">
        <ele>769.5</ele>
        <time>2021-09-07T12:40:38Z</time>
      </trkpt>
      <trkpt lat="44.45092" lon="5.54018">
        <ele>769.5</ele>
        <time>2021-09-07T12:40:39Z</time>
      </trkpt>
      <trkpt lat="44.45092" lon="5.54018">
        <ele>769.5</ele>
        <time>2021-09-07T12:40:40Z</time>
      </trkpt>
      <trkpt lat="44.45092" lon="5.54018">
        <ele>769.5</ele>
        <time>2021-09-07T12:40:41Z</time>
      </trkpt>
      <trkpt lat="44.45092" lon="5.54018">
        <ele>769.5</ele>
        <time>2021-09-07T12:40:42Z</time>
      </trkpt>
      <trkpt lat="44.45092" lon="5.54018">
        <ele>769.5</ele>
        <time>2021-09-07T12:40:43Z</time>
      </trkpt>
      <trkpt lat="44.45092" lon="5.54018">
        <ele>769.5</ele>
        <time>2021-09-07T12:40:44Z</time>
      </trkpt>
      <trkpt lat="44.45092" lon="5.54018">
        <ele>769.5</ele>
        <time>2021-09-07T12:40:45Z</time>
      </trkpt>
      <trkpt lat="44.45092" lon="5.54018">
        <ele>769.5</ele>
        <time>2021-09-07T12:40:46Z</time>
      </trkpt>
      <trkpt lat="44.45092" lon="5.54018">
        <ele>769.5</ele>
        <time>2021-09-07T12:40:47Z</time>
      </trkpt>
      <trkpt lat="44.45092" lon="5.54018">
        <ele>769.5</ele>
        <time>2021-09-07T12:40:48Z</time>
      </trkpt>
      <trkpt lat="44.45092" lon="5.54018">
        <ele>769.5</ele>
        <time>2021-09-07T12:40:49Z</time>
      </trkpt>
      <trkpt lat="44.45092" lon="5.54018">
        <ele>769.5</ele>
        <time>2021-09-07T12:40:50Z</time>
      </trkpt>
      <trkpt lat="44.45092" lon="5.54017">
        <ele>769.5</ele>
        <time>2021-09-07T12:40:51Z</time>
      </trkpt>
      <trkpt lat="44.45092" lon="5.54017">
        <ele>769.5</ele>
        <time>2021-09-07T12:40:52Z</time>
      </trkpt>
      <trkpt lat="44.45093" lon="5.54017">
        <ele>769.5</ele>
        <time>2021-09-07T12:40:53Z</time>
      </trkpt>
      <trkpt lat="44.45093" lon="5.54017">
        <ele>769.5</ele>
        <time>2021-09-07T12:40:54Z</time>
      </trkpt>
      <trkpt lat="44.45093" lon="5.54017">
        <ele>769.5</ele>
        <time>2021-09-07T12:40:55Z</time>
      </trkpt>
      <trkpt lat="44.45093" lon="5.54017">
        <ele>769.6</ele>
        <time>2021-09-07T12:40:56Z</time>
      </trkpt>
      <trkpt lat="44.45093" lon="5.54017">
        <ele>769.6</ele>
        <time>2021-09-07T12:40:57Z</time>
      </trkpt>
      <trkpt lat="44.45093" lon="5.54017">
        <ele>769.6</ele>
        <time>2021-09-07T12:40:58Z</time>
      </trkpt>
      <trkpt lat="44.45093" lon="5.54017">
        <ele>769.6</ele>
        <time>2021-09-07T12:40:59Z</time>
      </trkpt>
      <trkpt lat="44.45093" lon="5.54017">
        <ele>769.6</ele>
        <time>2021-09-07T12:41:00Z</time>
      </trkpt>
      <trkpt lat="44.45093" lon="5.54017">
        <ele>769.6</ele>
        <time>2021-09-07T12:41:01Z</time>
      </trkpt>
      <trkpt lat="44.45095" lon="5.54014">
        <ele>769.8</ele>
        <time>2021-09-07T12:41:02Z</time>
      </trkpt>
      <trkpt lat="44.45096" lon="5.5401">
        <ele>770</ele>
        <time>2021-09-07T12:41:03Z</time>
      </trkpt>
      <trkpt lat="44.45097" lon="5.54009">
        <ele>770.1</ele>
        <time>2021-09-07T12:41:04Z</time>
      </trkpt>
      <trkpt lat="44.45098" lon="5.54008">
        <ele>770.2</ele>
        <time>2021-09-07T12:41:05Z</time>
      </trkpt>
      <trkpt lat="44.45102" lon="5.54008">
        <ele>770.4</ele>
        <time>2021-09-07T12:41:06Z</time>
      </trkpt>
      <trkpt lat="44.45106" lon="5.54007">
        <ele>770.7</ele>
        <time>2021-09-07T12:41:07Z</time>
      </trkpt>
      <trkpt lat="44.45108" lon="5.54006">
        <ele>770.8</ele>
        <time>2021-09-07T12:41:08Z</time>
      </trkpt>
      <trkpt lat="44.45104" lon="5.5401">
        <ele>771.2</ele>
        <time>2021-09-07T12:41:09Z</time>
      </trkpt>
      <trkpt lat="44.451" lon="5.54013">
        <ele>771.5</ele>
        <time>2021-09-07T12:41:10Z</time>
      </trkpt>
      <trkpt lat="44.45099" lon="5.54013">
        <ele>771.6</ele>
        <time>2021-09-07T12:41:11Z</time>
      </trkpt>
      <trkpt lat="44.45101" lon="5.54011">
        <ele>771.7</ele>
        <time>2021-09-07T12:41:12Z</time>
      </trkpt>
      <trkpt lat="44.45103" lon="5.5401">
        <ele>771.9</ele>
        <time>2021-09-07T12:41:13Z</time>
      </trkpt>
      <trkpt lat="44.45104" lon="5.5401">
        <ele>771.9</ele>
        <time>2021-09-07T12:41:14Z</time>
      </trkpt>
      <trkpt lat="44.45105" lon="5.5401">
        <ele>772</ele>
        <time>2021-09-07T12:41:15Z</time>
      </trkpt>
      <trkpt lat="44.45106" lon="5.54009">
        <ele>772.1</ele>
        <time>2021-09-07T12:41:16Z</time>
      </trkpt>
      <trkpt lat="44.45107" lon="5.54008">
        <ele>772.2</ele>
        <time>2021-09-07T12:41:17Z</time>
      </trkpt>
      <trkpt lat="44.45107" lon="5.54007">
        <ele>772.2</ele>
        <time>2021-09-07T12:41:18Z</time>
      </trkpt>
      <trkpt lat="44.45108" lon="5.54006">
        <ele>772.3</ele>
        <time>2021-09-07T12:41:19Z</time>
      </trkpt>
      <trkpt lat="44.45108" lon="5.54005">
        <ele>772.3</ele>
        <time>2021-09-07T12:41:20Z</time>
      </trkpt>
      <trkpt lat="44.45109" lon="5.54005">
        <ele>772.4</ele>
        <time>2021-09-07T12:41:21Z</time>
      </trkpt>
      <trkpt lat="44.45111" lon="5.54006">
        <ele>772.5</ele>
        <time>2021-09-07T12:41:22Z</time>
      </trkpt>
      <trkpt lat="44.45112" lon="5.54007">
        <ele>772.6</ele>
        <time>2021-09-07T12:41:23Z</time>
      </trkpt>
      <trkpt lat="44.45113" lon="5.54007">
        <ele>772.7</ele>
        <time>2021-09-07T12:41:24Z</time>
      </trkpt>
      <trkpt lat="44.45115" lon="5.54007">
        <ele>772.8</ele>
        <time>2021-09-07T12:41:25Z</time>
      </trkpt>
      <trkpt lat="44.45116" lon="5.54009">
        <ele>772.9</ele>
        <time>2021-09-07T12:41:26Z</time>
      </trkpt>
      <trkpt lat="44.45117" lon="5.5401">
        <ele>773</ele>
        <time>2021-09-07T12:41:27Z</time>
      </trkpt>
      <trkpt lat="44.45117" lon="5.54012">
        <ele>773.1</ele>
        <time>2021-09-07T12:41:28Z</time>
      </trkpt>
      <trkpt lat="44.45117" lon="5.54014">
        <ele>773.2</ele>
        <time>2021-09-07T12:41:29Z</time>
      </trkpt>
      <trkpt lat="44.45119" lon="5.54015">
        <ele>773.3</ele>
        <time>2021-09-07T12:41:30Z</time>
      </trkpt>
      <trkpt lat="44.4512" lon="5.54016">
        <ele>773.4</ele>
        <time>2021-09-07T12:41:31Z</time>
      </trkpt>
      <trkpt lat="44.45122" lon="5.54016">
        <ele>773.5</ele>
        <time>2021-09-07T12:41:32Z</time>
      </trkpt>
      <trkpt lat="44.45122" lon="5.5402">
        <ele>773.7</ele>
        <time>2021-09-07T12:41:33Z</time>
      </trkpt>
      <trkpt lat="44.4512" lon="5.5403">
        <ele>774.2</ele>
        <time>2021-09-07T12:41:34Z</time>
      </trkpt>
      <trkpt lat="44.45118" lon="5.54039">
        <ele>774.6</ele>
        <time>2021-09-07T12:41:35Z</time>
      </trkpt>
      <trkpt lat="44.45117" lon="5.54042">
        <ele>774.8</ele>
        <time>2021-09-07T12:41:36Z</time>
      </trkpt>
      <trkpt lat="44.45116" lon="5.54045">
        <ele>775</ele>
        <time>2021-09-07T12:41:37Z</time>
      </trkpt>
      <trkpt lat="44.45115" lon="5.54047">
        <ele>775.1</ele>
        <time>2021-09-07T12:41:38Z</time>
      </trkpt>
      <trkpt lat="44.45115" lon="5.54048">
        <ele>775.2</ele>
        <time>2021-09-07T12:41:39Z</time>
      </trkpt>
      <trkpt lat="44.45115" lon="5.54051">
        <ele>775.3</ele>
        <time>2021-09-07T12:41:40Z</time>
      </trkpt>
      <trkpt lat="44.45114" lon="5.54053">
        <ele>775.5</ele>
        <time>2021-09-07T12:41:41Z</time>
      </trkpt>
      <trkpt lat="44.45113" lon="5.54056">
        <ele>775.6</ele>
        <time>2021-09-07T12:41:42Z</time>
      </trkpt>
      <trkpt lat="44.45112" lon="5.54059">
        <ele>775.8</ele>
        <time>2021-09-07T12:41:43Z</time>
      </trkpt>
      <trkpt lat="44.45111" lon="5.54061">
        <ele>775.9</ele>
        <time>2021-09-07T12:41:44Z</time>
      </trkpt>
      <trkpt lat="44.45109" lon="5.54065">
        <ele>776.2</ele>
        <time>2021-09-07T12:41:45Z</time>
      </trkpt>
      <trkpt lat="44.45109" lon="5.54066">
        <ele>776.2</ele>
        <time>2021-09-07T12:41:46Z</time>
      </trkpt>
      <trkpt lat="44.45108" lon="5.54067">
        <ele>776.3</ele>
        <time>2021-09-07T12:41:47Z</time>
      </trkpt>
      <trkpt lat="44.45108" lon="5.54068">
        <ele>776.3</ele>
        <time>2021-09-07T12:41:48Z</time>
      </trkpt>
      <trkpt lat="44.45107" lon="5.54068">
        <ele>776.4</ele>
        <time>2021-09-07T12:41:49Z</time>
      </trkpt>
      <trkpt lat="44.45107" lon="5.54071">
        <ele>776.5</ele>
        <time>2021-09-07T12:41:50Z</time>
      </trkpt>
      <trkpt lat="44.45106" lon="5.54073">
        <ele>776.6</ele>
        <time>2021-09-07T12:41:51Z</time>
      </trkpt>
      <trkpt lat="44.45105" lon="5.54075">
        <ele>776.7</ele>
        <time>2021-09-07T12:41:52Z</time>
      </trkpt>
      <trkpt lat="44.45104" lon="5.54078">
        <ele>776.9</ele>
        <time>2021-09-07T12:41:53Z</time>
      </trkpt>
      <trkpt lat="44.45103" lon="5.5408">
        <ele>777</ele>
        <time>2021-09-07T12:41:54Z</time>
      </trkpt>
      <trkpt lat="44.45102" lon="5.54082">
        <ele>777.1</ele>
        <time>2021-09-07T12:41:55Z</time>
      </trkpt>
      <trkpt lat="44.45102" lon="5.54082">
        <ele>777.1</ele>
        <time>2021-09-07T12:41:56Z</time>
      </trkpt>
      <trkpt lat="44.45101" lon="5.54082">
        <ele>777.1</ele>
        <time>2021-09-07T12:41:57Z</time>
      </trkpt>
      <trkpt lat="44.45101" lon="5.54083">
        <ele>777.2</ele>
        <time>2021-09-07T12:41:58Z</time>
      </trkpt>
      <trkpt lat="44.451" lon="5.54083">
        <ele>777.2</ele>
        <time>2021-09-07T12:41:59Z</time>
      </trkpt>
      <trkpt lat="44.451" lon="5.54083">
        <ele>777.2</ele>
        <time>2021-09-07T12:42:00Z</time>
      </trkpt>
      <trkpt lat="44.45099" lon="5.54085">
        <ele>777.3</ele>
        <time>2021-09-07T12:42:01Z</time>
      </trkpt>
      <trkpt lat="44.45098" lon="5.54086">
        <ele>777.4</ele>
        <time>2021-09-07T12:42:02Z</time>
      </trkpt>
      <trkpt lat="44.45097" lon="5.54087">
        <ele>777.4</ele>
        <time>2021-09-07T12:42:03Z</time>
      </trkpt>
      <trkpt lat="44.45097" lon="5.54088">
        <ele>777.4</ele>
        <time>2021-09-07T12:42:04Z</time>
      </trkpt>
      <trkpt lat="44.45097" lon="5.54088">
        <ele>777.4</ele>
        <time>2021-09-07T12:42:05Z</time>
      </trkpt>
      <trkpt lat="44.45097" lon="5.54089">
        <ele>777.5</ele>
        <time>2021-09-07T12:42:06Z</time>
      </trkpt>
      <trkpt lat="44.45096" lon="5.54089">
        <ele>777.5</ele>
        <time>2021-09-07T12:42:07Z</time>
      </trkpt>
      <trkpt lat="44.45096" lon="5.5409">
        <ele>777.5</ele>
        <time>2021-09-07T12:42:08Z</time>
      </trkpt>
      <trkpt lat="44.45096" lon="5.5409">
        <ele>777.5</ele>
        <time>2021-09-07T12:42:09Z</time>
      </trkpt>
      <trkpt lat="44.45096" lon="5.5409">
        <ele>777.5</ele>
        <time>2021-09-07T12:42:10Z</time>
      </trkpt>
      <trkpt lat="44.45096" lon="5.5409">
        <ele>777.5</ele>
        <time>2021-09-07T12:42:11Z</time>
      </trkpt>
      <trkpt lat="44.45096" lon="5.54091">
        <ele>777.6</ele>
        <time>2021-09-07T12:42:12Z</time>
      </trkpt>
      <trkpt lat="44.45096" lon="5.54091">
        <ele>777.6</ele>
        <time>2021-09-07T12:42:13Z</time>
      </trkpt>
      <trkpt lat="44.45096" lon="5.54091">
        <ele>777.6</ele>
        <time>2021-09-07T12:42:14Z</time>
      </trkpt>
      <trkpt lat="44.45096" lon="5.54091">
        <ele>777.6</ele>
        <time>2021-09-07T12:42:15Z</time>
      </trkpt>
      <trkpt lat="44.45095" lon="5.54091">
        <ele>777.6</ele>
        <time>2021-09-07T12:42:16Z</time>
      </trkpt>
      <trkpt lat="44.45095" lon="5.54091">
        <ele>777.6</ele>
        <time>2021-09-07T12:42:17Z</time>
      </trkpt>
      <trkpt lat="44.45095" lon="5.54091">
        <ele>777.6</ele>
        <time>2021-09-07T12:42:18Z</time>
      </trkpt>
      <trkpt lat="44.45095" lon="5.54091">
        <ele>777.6</ele>
        <time>2021-09-07T12:42:19Z</time>
      </trkpt>
      <trkpt lat="44.45095" lon="5.54091">
        <ele>777.6</ele>
        <time>2021-09-07T12:42:20Z</time>
      </trkpt>
      <trkpt lat="44.45095" lon="5.54091">
        <ele>777.6</ele>
        <time>2021-09-07T12:42:21Z</time>
      </trkpt>
      <trkpt lat="44.45095" lon="5.54091">
        <ele>777.6</ele>
        <time>2021-09-07T12:42:22Z</time>
      </trkpt>
      <trkpt lat="44.45094" lon="5.54091">
        <ele>777.7</ele>
        <time>2021-09-07T12:42:23Z</time>
      </trkpt>
      <trkpt lat="44.45093" lon="5.5409">
        <ele>777.7</ele>
        <time>2021-09-07T12:42:24Z</time>
      </trkpt>
      <trkpt lat="44.45093" lon="5.5409">
        <ele>777.8</ele>
        <time>2021-09-07T12:42:25Z</time>
      </trkpt>
      <trkpt lat="44.45092" lon="5.54089">
        <ele>777.8</ele>
        <time>2021-09-07T12:42:26Z</time>
      </trkpt>
      <trkpt lat="44.45091" lon="5.54088">
        <ele>777.9</ele>
        <time>2021-09-07T12:42:27Z</time>
      </trkpt>
      <trkpt lat="44.45091" lon="5.54088">
        <ele>777.9</ele>
        <time>2021-09-07T12:42:28Z</time>
      </trkpt>
      <trkpt lat="44.4509" lon="5.54088">
        <ele>777.9</ele>
        <time>2021-09-07T12:42:29Z</time>
      </trkpt>
      <trkpt lat="44.45089" lon="5.5409">
        <ele>778</ele>
        <time>2021-09-07T12:42:30Z</time>
      </trkpt>
      <trkpt lat="44.45089" lon="5.54093">
        <ele>778.1</ele>
        <time>2021-09-07T12:42:31Z</time>
      </trkpt>
      <trkpt lat="44.45088" lon="5.54095">
        <ele>778.2</ele>
        <time>2021-09-07T12:42:32Z</time>
      </trkpt>
      <trkpt lat="44.45088" lon="5.54097">
        <ele>778.2</ele>
        <time>2021-09-07T12:42:33Z</time>
      </trkpt>
      <trkpt lat="44.45088" lon="5.54098">
        <ele>778.3</ele>
        <time>2021-09-07T12:42:34Z</time>
      </trkpt>
      <trkpt lat="44.45088" lon="5.54098">
        <ele>778.3</ele>
        <time>2021-09-07T12:42:35Z</time>
      </trkpt>
      <trkpt lat="44.45087" lon="5.54102">
        <ele>778.4</ele>
        <time>2021-09-07T12:42:36Z</time>
      </trkpt>
      <trkpt lat="44.45085" lon="5.54112">
        <ele>778.7</ele>
        <time>2021-09-07T12:42:37Z</time>
      </trkpt>
      <trkpt lat="44.45084" lon="5.54116">
        <ele>778.8</ele>
        <time>2021-09-07T12:42:38Z</time>
      </trkpt>
      <trkpt lat="44.45083" lon="5.54119">
        <ele>778.9</ele>
        <time>2021-09-07T12:42:39Z</time>
      </trkpt>
      <trkpt lat="44.45081" lon="5.54128">
        <ele>779.2</ele>
        <time>2021-09-07T12:42:40Z</time>
      </trkpt>
      <trkpt lat="44.45079" lon="5.54135">
        <ele>779.4</ele>
        <time>2021-09-07T12:42:41Z</time>
      </trkpt>
      <trkpt lat="44.45078" lon="5.54138">
        <ele>779.5</ele>
        <time>2021-09-07T12:42:42Z</time>
      </trkpt>
      <trkpt lat="44.45077" lon="5.5414">
        <ele>779.6</ele>
        <time>2021-09-07T12:42:43Z</time>
      </trkpt>
      <trkpt lat="44.45076" lon="5.54143">
        <ele>779.7</ele>
        <time>2021-09-07T12:42:44Z</time>
      </trkpt>
      <trkpt lat="44.45075" lon="5.54147">
        <ele>779.8</ele>
        <time>2021-09-07T12:42:45Z</time>
      </trkpt>
      <trkpt lat="44.45073" lon="5.54152">
        <ele>780</ele>
        <time>2021-09-07T12:42:46Z</time>
      </trkpt>
      <trkpt lat="44.45071" lon="5.54157">
        <ele>780.1</ele>
        <time>2021-09-07T12:42:47Z</time>
      </trkpt>
      <trkpt lat="44.4507" lon="5.5416">
        <ele>780.2</ele>
        <time>2021-09-07T12:42:48Z</time>
      </trkpt>
      <trkpt lat="44.4507" lon="5.54163">
        <ele>780.3</ele>
        <time>2021-09-07T12:42:49Z</time>
      </trkpt>
      <trkpt lat="44.45069" lon="5.54165">
        <ele>780.3</ele>
        <time>2021-09-07T12:42:50Z</time>
      </trkpt>
      <trkpt lat="44.45069" lon="5.54167">
        <ele>780.4</ele>
        <time>2021-09-07T12:42:51Z</time>
      </trkpt>
      <trkpt lat="44.45068" lon="5.54169">
        <ele>780.4</ele>
        <time>2021-09-07T12:42:52Z</time>
      </trkpt>
      <trkpt lat="44.45067" lon="5.54175">
        <ele>780.6</ele>
        <time>2021-09-07T12:42:53Z</time>
      </trkpt>
      <trkpt lat="44.45067" lon="5.54177">
        <ele>780.6</ele>
        <time>2021-09-07T12:42:54Z</time>
      </trkpt>
      <trkpt lat="44.45066" lon="5.54179">
        <ele>780.7</ele>
        <time>2021-09-07T12:42:55Z</time>
      </trkpt>
      <trkpt lat="44.45066" lon="5.54183">
        <ele>780.8</ele>
        <time>2021-09-07T12:42:56Z</time>
      </trkpt>
      <trkpt lat="44.45066" lon="5.54184">
        <ele>780.8</ele>
        <time>2021-09-07T12:42:57Z</time>
      </trkpt>
      <trkpt lat="44.45065" lon="5.54185">
        <ele>780.8</ele>
        <time>2021-09-07T12:42:58Z</time>
      </trkpt>
      <trkpt lat="44.45065" lon="5.54189">
        <ele>780.9</ele>
        <time>2021-09-07T12:42:59Z</time>
      </trkpt>
      <trkpt lat="44.45064" lon="5.54191">
        <ele>781</ele>
        <time>2021-09-07T12:43:00Z</time>
      </trkpt>
      <trkpt lat="44.45063" lon="5.54193">
        <ele>781</ele>
        <time>2021-09-07T12:43:01Z</time>
      </trkpt>
      <trkpt lat="44.45062" lon="5.54196">
        <ele>781.1</ele>
        <time>2021-09-07T12:43:02Z</time>
      </trkpt>
      <trkpt lat="44.45061" lon="5.542">
        <ele>781.1</ele>
        <time>2021-09-07T12:43:03Z</time>
      </trkpt>
      <trkpt lat="44.4506" lon="5.54203">
        <ele>781.2</ele>
        <time>2021-09-07T12:43:04Z</time>
      </trkpt>
      <trkpt lat="44.45059" lon="5.54206">
        <ele>781.2</ele>
        <time>2021-09-07T12:43:05Z</time>
      </trkpt>
      <trkpt lat="44.45058" lon="5.54209">
        <ele>781.3</ele>
        <time>2021-09-07T12:43:06Z</time>
      </trkpt>
      <trkpt lat="44.45057" lon="5.54215">
        <ele>781.4</ele>
        <time>2021-09-07T12:43:07Z</time>
      </trkpt>
      <trkpt lat="44.45056" lon="5.54219">
        <ele>781.4</ele>
        <time>2021-09-07T12:43:08Z</time>
      </trkpt>
      <trkpt lat="44.45055" lon="5.54221">
        <ele>781.4</ele>
        <time>2021-09-07T12:43:09Z</time>
      </trkpt>
      <trkpt lat="44.45054" lon="5.54223">
        <ele>781.4</ele>
        <time>2021-09-07T12:43:10Z</time>
      </trkpt>
      <trkpt lat="44.45053" lon="5.54227">
        <ele>781.5</ele>
        <time>2021-09-07T12:43:11Z</time>
      </trkpt>
      <trkpt lat="44.45051" lon="5.54231">
        <ele>781.5</ele>
        <time>2021-09-07T12:43:12Z</time>
      </trkpt>
      <trkpt lat="44.4505" lon="5.54235">
        <ele>781.5</ele>
        <time>2021-09-07T12:43:13Z</time>
      </trkpt>
      <trkpt lat="44.45048" lon="5.54239">
        <ele>781.6</ele>
        <time>2021-09-07T12:43:14Z</time>
      </trkpt>
      <trkpt lat="44.45046" lon="5.54242">
        <ele>781.6</ele>
        <time>2021-09-07T12:43:15Z</time>
      </trkpt>
      <trkpt lat="44.45043" lon="5.54245">
        <ele>781.6</ele>
        <time>2021-09-07T12:43:16Z</time>
      </trkpt>
      <trkpt lat="44.4504" lon="5.54249">
        <ele>781.6</ele>
        <time>2021-09-07T12:43:17Z</time>
      </trkpt>
      <trkpt lat="44.45039" lon="5.54254">
        <ele>781.6</ele>
        <time>2021-09-07T12:43:18Z</time>
      </trkpt>
      <trkpt lat="44.45037" lon="5.54259">
        <ele>781.6</ele>
        <time>2021-09-07T12:43:19Z</time>
      </trkpt>
      <trkpt lat="44.45035" lon="5.54263">
        <ele>781.6</ele>
        <time>2021-09-07T12:43:20Z</time>
      </trkpt>
      <trkpt lat="44.45034" lon="5.54268">
        <ele>781.6</ele>
        <time>2021-09-07T12:43:21Z</time>
      </trkpt>
      <trkpt lat="44.45032" lon="5.54273">
        <ele>781.6</ele>
        <time>2021-09-07T12:43:22Z</time>
      </trkpt>
      <trkpt lat="44.45029" lon="5.54279">
        <ele>781.6</ele>
        <time>2021-09-07T12:43:23Z</time>
      </trkpt>
      <trkpt lat="44.45028" lon="5.54282">
        <ele>781.6</ele>
        <time>2021-09-07T12:43:24Z</time>
      </trkpt>
      <trkpt lat="44.45027" lon="5.54285">
        <ele>781.5</ele>
        <time>2021-09-07T12:43:25Z</time>
      </trkpt>
      <trkpt lat="44.45026" lon="5.54287">
        <ele>781.5</ele>
        <time>2021-09-07T12:43:26Z</time>
      </trkpt>
      <trkpt lat="44.45025" lon="5.54291">
        <ele>781.5</ele>
        <time>2021-09-07T12:43:27Z</time>
      </trkpt>
      <trkpt lat="44.45024" lon="5.54296">
        <ele>781.5</ele>
        <time>2021-09-07T12:43:28Z</time>
      </trkpt>
      <trkpt lat="44.45022" lon="5.543">
        <ele>781.5</ele>
        <time>2021-09-07T12:43:29Z</time>
      </trkpt>
      <trkpt lat="44.4502" lon="5.54305">
        <ele>781.5</ele>
        <time>2021-09-07T12:43:30Z</time>
      </trkpt>
      <trkpt lat="44.45018" lon="5.54312">
        <ele>781.4</ele>
        <time>2021-09-07T12:43:31Z</time>
      </trkpt>
      <trkpt lat="44.45015" lon="5.54317">
        <ele>781.4</ele>
        <time>2021-09-07T12:43:32Z</time>
      </trkpt>
      <trkpt lat="44.45014" lon="5.5432">
        <ele>781.4</ele>
        <time>2021-09-07T12:43:33Z</time>
      </trkpt>
      <trkpt lat="44.45012" lon="5.54323">
        <ele>781.4</ele>
        <time>2021-09-07T12:43:34Z</time>
      </trkpt>
      <trkpt lat="44.45011" lon="5.54328">
        <ele>781.4</ele>
        <time>2021-09-07T12:43:35Z</time>
      </trkpt>
      <trkpt lat="44.45009" lon="5.54333">
        <ele>781.4</ele>
        <time>2021-09-07T12:43:36Z</time>
      </trkpt>
      <trkpt lat="44.45005" lon="5.54341">
        <ele>781.3</ele>
        <time>2021-09-07T12:43:37Z</time>
      </trkpt>
      <trkpt lat="44.45004" lon="5.54345">
        <ele>781.3</ele>
        <time>2021-09-07T12:43:38Z</time>
      </trkpt>
      <trkpt lat="44.45003" lon="5.54348">
        <ele>781.2</ele>
        <time>2021-09-07T12:43:39Z</time>
      </trkpt>
      <trkpt lat="44.45001" lon="5.54353">
        <ele>781.2</ele>
        <time>2021-09-07T12:43:40Z</time>
      </trkpt>
      <trkpt lat="44.44998" lon="5.54358">
        <ele>781.2</ele>
        <time>2021-09-07T12:43:41Z</time>
      </trkpt>
      <trkpt lat="44.44994" lon="5.54369">
        <ele>781.1</ele>
        <time>2021-09-07T12:43:42Z</time>
      </trkpt>
      <trkpt lat="44.44993" lon="5.54373">
        <ele>781.1</ele>
        <time>2021-09-07T12:43:43Z</time>
      </trkpt>
      <trkpt lat="44.44992" lon="5.54376">
        <ele>781</ele>
        <time>2021-09-07T12:43:44Z</time>
      </trkpt>
      <trkpt lat="44.44988" lon="5.54384">
        <ele>781</ele>
        <time>2021-09-07T12:43:45Z</time>
      </trkpt>
      <trkpt lat="44.44986" lon="5.54388">
        <ele>781</ele>
        <time>2021-09-07T12:43:46Z</time>
      </trkpt>
      <trkpt lat="44.44984" lon="5.54392">
        <ele>781</ele>
        <time>2021-09-07T12:43:47Z</time>
      </trkpt>
      <trkpt lat="44.44982" lon="5.54397">
        <ele>781</ele>
        <time>2021-09-07T12:43:48Z</time>
      </trkpt>
      <trkpt lat="44.4498" lon="5.54402">
        <ele>781</ele>
        <time>2021-09-07T12:43:49Z</time>
      </trkpt>
      <trkpt lat="44.44976" lon="5.54411">
        <ele>781</ele>
        <time>2021-09-07T12:43:50Z</time>
      </trkpt>
      <trkpt lat="44.44975" lon="5.54414">
        <ele>781</ele>
        <time>2021-09-07T12:43:51Z</time>
      </trkpt>
      <trkpt lat="44.44974" lon="5.54417">
        <ele>781</ele>
        <time>2021-09-07T12:43:52Z</time>
      </trkpt>
      <trkpt lat="44.44972" lon="5.54422">
        <ele>781.1</ele>
        <time>2021-09-07T12:43:53Z</time>
      </trkpt>
      <trkpt lat="44.4497" lon="5.5443">
        <ele>781.1</ele>
        <time>2021-09-07T12:43:54Z</time>
      </trkpt>
      <trkpt lat="44.44969" lon="5.54434">
        <ele>781.1</ele>
        <time>2021-09-07T12:43:55Z</time>
      </trkpt>
      <trkpt lat="44.44968" lon="5.54437">
        <ele>781.2</ele>
        <time>2021-09-07T12:43:56Z</time>
      </trkpt>
      <trkpt lat="44.44966" lon="5.54441">
        <ele>781.2</ele>
        <time>2021-09-07T12:43:57Z</time>
      </trkpt>
      <trkpt lat="44.44963" lon="5.54448">
        <ele>781.3</ele>
        <time>2021-09-07T12:43:58Z</time>
      </trkpt>
      <trkpt lat="44.44959" lon="5.54455">
        <ele>781.4</ele>
        <time>2021-09-07T12:43:59Z</time>
      </trkpt>
      <trkpt lat="44.44957" lon="5.54459">
        <ele>781.5</ele>
        <time>2021-09-07T12:44:00Z</time>
      </trkpt>
      <trkpt lat="44.44955" lon="5.54463">
        <ele>781.6</ele>
        <time>2021-09-07T12:44:01Z</time>
      </trkpt>
      <trkpt lat="44.44954" lon="5.54466">
        <ele>781.6</ele>
        <time>2021-09-07T12:44:02Z</time>
      </trkpt>
      <trkpt lat="44.44953" lon="5.54468">
        <ele>781.7</ele>
        <time>2021-09-07T12:44:03Z</time>
      </trkpt>
      <trkpt lat="44.44951" lon="5.54472">
        <ele>781.8</ele>
        <time>2021-09-07T12:44:04Z</time>
      </trkpt>
      <trkpt lat="44.44948" lon="5.54476">
        <ele>781.9</ele>
        <time>2021-09-07T12:44:05Z</time>
      </trkpt>
      <trkpt lat="44.44945" lon="5.54482">
        <ele>782.1</ele>
        <time>2021-09-07T12:44:06Z</time>
      </trkpt>
      <trkpt lat="44.44944" lon="5.54485">
        <ele>782.1</ele>
        <time>2021-09-07T12:44:07Z</time>
      </trkpt>
      <trkpt lat="44.44943" lon="5.54487">
        <ele>782.2</ele>
        <time>2021-09-07T12:44:08Z</time>
      </trkpt>
      <trkpt lat="44.4494" lon="5.54493">
        <ele>782.3</ele>
        <time>2021-09-07T12:44:09Z</time>
      </trkpt>
      <trkpt lat="44.44938" lon="5.54496">
        <ele>782.4</ele>
        <time>2021-09-07T12:44:10Z</time>
      </trkpt>
      <trkpt lat="44.44936" lon="5.54499">
        <ele>782.5</ele>
        <time>2021-09-07T12:44:11Z</time>
      </trkpt>
      <trkpt lat="44.44934" lon="5.54503">
        <ele>782.6</ele>
        <time>2021-09-07T12:44:12Z</time>
      </trkpt>
      <trkpt lat="44.44932" lon="5.54507">
        <ele>782.7</ele>
        <time>2021-09-07T12:44:13Z</time>
      </trkpt>
      <trkpt lat="44.44929" lon="5.54515">
        <ele>782.8</ele>
        <time>2021-09-07T12:44:14Z</time>
      </trkpt>
      <trkpt lat="44.44928" lon="5.54519">
        <ele>782.9</ele>
        <time>2021-09-07T12:44:15Z</time>
      </trkpt>
      <trkpt lat="44.44926" lon="5.54522">
        <ele>783</ele>
        <time>2021-09-07T12:44:16Z</time>
      </trkpt>
      <trkpt lat="44.44924" lon="5.54526">
        <ele>783.1</ele>
        <time>2021-09-07T12:44:17Z</time>
      </trkpt>
      <trkpt lat="44.44922" lon="5.5453">
        <ele>783.2</ele>
        <time>2021-09-07T12:44:18Z</time>
      </trkpt>
      <trkpt lat="44.44921" lon="5.54533">
        <ele>783.3</ele>
        <time>2021-09-07T12:44:19Z</time>
      </trkpt>
      <trkpt lat="44.44919" lon="5.54536">
        <ele>783.4</ele>
        <time>2021-09-07T12:44:20Z</time>
      </trkpt>
      <trkpt lat="44.44917" lon="5.54541">
        <ele>783.6</ele>
        <time>2021-09-07T12:44:21Z</time>
      </trkpt>
      <trkpt lat="44.44916" lon="5.54545">
        <ele>783.7</ele>
        <time>2021-09-07T12:44:22Z</time>
      </trkpt>
      <trkpt lat="44.44915" lon="5.54549">
        <ele>783.8</ele>
        <time>2021-09-07T12:44:23Z</time>
      </trkpt>
      <trkpt lat="44.44914" lon="5.54554">
        <ele>783.9</ele>
        <time>2021-09-07T12:44:24Z</time>
      </trkpt>
      <trkpt lat="44.44913" lon="5.54558">
        <ele>784.1</ele>
        <time>2021-09-07T12:44:25Z</time>
      </trkpt>
      <trkpt lat="44.44912" lon="5.54567">
        <ele>784.3</ele>
        <time>2021-09-07T12:44:26Z</time>
      </trkpt>
      <trkpt lat="44.44911" lon="5.54572">
        <ele>784.4</ele>
        <time>2021-09-07T12:44:27Z</time>
      </trkpt>
      <trkpt lat="44.4491" lon="5.54576">
        <ele>784.5</ele>
        <time>2021-09-07T12:44:28Z</time>
      </trkpt>
      <trkpt lat="44.4491" lon="5.54581">
        <ele>784.7</ele>
        <time>2021-09-07T12:44:29Z</time>
      </trkpt>
      <trkpt lat="44.44909" lon="5.54585">
        <ele>784.8</ele>
        <time>2021-09-07T12:44:30Z</time>
      </trkpt>
      <trkpt lat="44.44909" lon="5.5459">
        <ele>784.9</ele>
        <time>2021-09-07T12:44:31Z</time>
      </trkpt>
      <trkpt lat="44.44909" lon="5.54594">
        <ele>785</ele>
        <time>2021-09-07T12:44:32Z</time>
      </trkpt>
      <trkpt lat="44.44908" lon="5.54598">
        <ele>785.2</ele>
        <time>2021-09-07T12:44:33Z</time>
      </trkpt>
      <trkpt lat="44.44907" lon="5.54601">
        <ele>785.3</ele>
        <time>2021-09-07T12:44:34Z</time>
      </trkpt>
      <trkpt lat="44.44907" lon="5.54604">
        <ele>785.4</ele>
        <time>2021-09-07T12:44:35Z</time>
      </trkpt>
      <trkpt lat="44.44907" lon="5.54606">
        <ele>785.5</ele>
        <time>2021-09-07T12:44:36Z</time>
      </trkpt>
      <trkpt lat="44.44906" lon="5.54609">
        <ele>785.6</ele>
        <time>2021-09-07T12:44:37Z</time>
      </trkpt>
      <trkpt lat="44.44905" lon="5.54613">
        <ele>785.8</ele>
        <time>2021-09-07T12:44:38Z</time>
      </trkpt>
      <trkpt lat="44.44904" lon="5.54617">
        <ele>785.9</ele>
        <time>2021-09-07T12:44:39Z</time>
      </trkpt>
      <trkpt lat="44.44904" lon="5.5462">
        <ele>786</ele>
        <time>2021-09-07T12:44:40Z</time>
      </trkpt>
      <trkpt lat="44.44903" lon="5.54622">
        <ele>786.2</ele>
        <time>2021-09-07T12:44:41Z</time>
      </trkpt>
      <trkpt lat="44.44902" lon="5.54625">
        <ele>786.3</ele>
        <time>2021-09-07T12:44:42Z</time>
      </trkpt>
      <trkpt lat="44.44901" lon="5.54628">
        <ele>786.5</ele>
        <time>2021-09-07T12:44:43Z</time>
      </trkpt>
      <trkpt lat="44.449" lon="5.54632">
        <ele>786.7</ele>
        <time>2021-09-07T12:44:44Z</time>
      </trkpt>
      <trkpt lat="44.44899" lon="5.54635">
        <ele>786.8</ele>
        <time>2021-09-07T12:44:45Z</time>
      </trkpt>
      <trkpt lat="44.44898" lon="5.54637">
        <ele>786.9</ele>
        <time>2021-09-07T12:44:46Z</time>
      </trkpt>
      <trkpt lat="44.44896" lon="5.5464">
        <ele>787.1</ele>
        <time>2021-09-07T12:44:47Z</time>
      </trkpt>
      <trkpt lat="44.44895" lon="5.54642">
        <ele>787.3</ele>
        <time>2021-09-07T12:44:48Z</time>
      </trkpt>
      <trkpt lat="44.44894" lon="5.54644">
        <ele>787.4</ele>
        <time>2021-09-07T12:44:49Z</time>
      </trkpt>
      <trkpt lat="44.44892" lon="5.54649">
        <ele>787.7</ele>
        <time>2021-09-07T12:44:50Z</time>
      </trkpt>
      <trkpt lat="44.44891" lon="5.54652">
        <ele>787.8</ele>
        <time>2021-09-07T12:44:51Z</time>
      </trkpt>
      <trkpt lat="44.4489" lon="5.54655">
        <ele>788</ele>
        <time>2021-09-07T12:44:52Z</time>
      </trkpt>
      <trkpt lat="44.44889" lon="5.54657">
        <ele>788.1</ele>
        <time>2021-09-07T12:44:53Z</time>
      </trkpt>
      <trkpt lat="44.44889" lon="5.54659">
        <ele>788.2</ele>
        <time>2021-09-07T12:44:54Z</time>
      </trkpt>
      <trkpt lat="44.44888" lon="5.5466">
        <ele>788.3</ele>
        <time>2021-09-07T12:44:55Z</time>
      </trkpt>
      <trkpt lat="44.44887" lon="5.54662">
        <ele>788.4</ele>
        <time>2021-09-07T12:44:56Z</time>
      </trkpt>
      <trkpt lat="44.44885" lon="5.54666">
        <ele>788.6</ele>
        <time>2021-09-07T12:44:57Z</time>
      </trkpt>
      <trkpt lat="44.44885" lon="5.54668">
        <ele>788.7</ele>
        <time>2021-09-07T12:44:58Z</time>
      </trkpt>
      <trkpt lat="44.44884" lon="5.5467">
        <ele>788.9</ele>
        <time>2021-09-07T12:44:59Z</time>
      </trkpt>
      <trkpt lat="44.44883" lon="5.54673">
        <ele>789</ele>
        <time>2021-09-07T12:45:00Z</time>
      </trkpt>
      <trkpt lat="44.44882" lon="5.54677">
        <ele>789.2</ele>
        <time>2021-09-07T12:45:01Z</time>
      </trkpt>
      <trkpt lat="44.44882" lon="5.5468">
        <ele>789.4</ele>
        <time>2021-09-07T12:45:02Z</time>
      </trkpt>
      <trkpt lat="44.44881" lon="5.54682">
        <ele>789.5</ele>
        <time>2021-09-07T12:45:03Z</time>
      </trkpt>
      <trkpt lat="44.44881" lon="5.54684">
        <ele>789.6</ele>
        <time>2021-09-07T12:45:04Z</time>
      </trkpt>
      <trkpt lat="44.4488" lon="5.54686">
        <ele>789.7</ele>
        <time>2021-09-07T12:45:05Z</time>
      </trkpt>
      <trkpt lat="44.44879" lon="5.54689">
        <ele>789.9</ele>
        <time>2021-09-07T12:45:06Z</time>
      </trkpt>
      <trkpt lat="44.44879" lon="5.54692">
        <ele>790</ele>
        <time>2021-09-07T12:45:07Z</time>
      </trkpt>
      <trkpt lat="44.44878" lon="5.54695">
        <ele>790.2</ele>
        <time>2021-09-07T12:45:08Z</time>
      </trkpt>
      <trkpt lat="44.44877" lon="5.54697">
        <ele>790.3</ele>
        <time>2021-09-07T12:45:09Z</time>
      </trkpt>
      <trkpt lat="44.44876" lon="5.54699">
        <ele>790.4</ele>
        <time>2021-09-07T12:45:10Z</time>
      </trkpt>
      <trkpt lat="44.44875" lon="5.54702">
        <ele>790.6</ele>
        <time>2021-09-07T12:45:11Z</time>
      </trkpt>
      <trkpt lat="44.44875" lon="5.54704">
        <ele>790.7</ele>
        <time>2021-09-07T12:45:12Z</time>
      </trkpt>
      <trkpt lat="44.44875" lon="5.54705">
        <ele>790.7</ele>
        <time>2021-09-07T12:45:13Z</time>
      </trkpt>
      <trkpt lat="44.44874" lon="5.54708">
        <ele>790.9</ele>
        <time>2021-09-07T12:45:14Z</time>
      </trkpt>
      <trkpt lat="44.44872" lon="5.54712">
        <ele>791.1</ele>
        <time>2021-09-07T12:45:15Z</time>
      </trkpt>
      <trkpt lat="44.44872" lon="5.54714">
        <ele>791.2</ele>
        <time>2021-09-07T12:45:16Z</time>
      </trkpt>
      <trkpt lat="44.44871" lon="5.54716">
        <ele>791.3</ele>
        <time>2021-09-07T12:45:17Z</time>
      </trkpt>
      <trkpt lat="44.44869" lon="5.54721">
        <ele>791.6</ele>
        <time>2021-09-07T12:45:18Z</time>
      </trkpt>
      <trkpt lat="44.44868" lon="5.54724">
        <ele>791.8</ele>
        <time>2021-09-07T12:45:19Z</time>
      </trkpt>
      <trkpt lat="44.44867" lon="5.54727">
        <ele>792</ele>
        <time>2021-09-07T12:45:20Z</time>
      </trkpt>
      <trkpt lat="44.44866" lon="5.5473">
        <ele>792.1</ele>
        <time>2021-09-07T12:45:21Z</time>
      </trkpt>
      <trkpt lat="44.44865" lon="5.54732">
        <ele>792.3</ele>
        <time>2021-09-07T12:45:22Z</time>
      </trkpt>
      <trkpt lat="44.44864" lon="5.54735">
        <ele>792.4</ele>
        <time>2021-09-07T12:45:23Z</time>
      </trkpt>
      <trkpt lat="44.44864" lon="5.54737">
        <ele>792.5</ele>
        <time>2021-09-07T12:45:24Z</time>
      </trkpt>
      <trkpt lat="44.44864" lon="5.54738">
        <ele>792.6</ele>
        <time>2021-09-07T12:45:25Z</time>
      </trkpt>
      <trkpt lat="44.44863" lon="5.54741">
        <ele>792.8</ele>
        <time>2021-09-07T12:45:26Z</time>
      </trkpt>
      <trkpt lat="44.44862" lon="5.54744">
        <ele>793</ele>
        <time>2021-09-07T12:45:27Z</time>
      </trkpt>
      <trkpt lat="44.44862" lon="5.54746">
        <ele>793.1</ele>
        <time>2021-09-07T12:45:28Z</time>
      </trkpt>
      <trkpt lat="44.44861" lon="5.54748">
        <ele>793.2</ele>
        <time>2021-09-07T12:45:29Z</time>
      </trkpt>
      <trkpt lat="44.4486" lon="5.5475">
        <ele>793.3</ele>
        <time>2021-09-07T12:45:30Z</time>
      </trkpt>
      <trkpt lat="44.4486" lon="5.54752">
        <ele>793.4</ele>
        <time>2021-09-07T12:45:31Z</time>
      </trkpt>
      <trkpt lat="44.44859" lon="5.54754">
        <ele>793.5</ele>
        <time>2021-09-07T12:45:32Z</time>
      </trkpt>
      <trkpt lat="44.44857" lon="5.54757">
        <ele>793.8</ele>
        <time>2021-09-07T12:45:33Z</time>
      </trkpt>
      <trkpt lat="44.44857" lon="5.54759">
        <ele>793.8</ele>
        <time>2021-09-07T12:45:34Z</time>
      </trkpt>
      <trkpt lat="44.44856" lon="5.5476">
        <ele>793.9</ele>
        <time>2021-09-07T12:45:35Z</time>
      </trkpt>
      <trkpt lat="44.44856" lon="5.54762">
        <ele>794</ele>
        <time>2021-09-07T12:45:36Z</time>
      </trkpt>
      <trkpt lat="44.44855" lon="5.54763">
        <ele>794.1</ele>
        <time>2021-09-07T12:45:37Z</time>
      </trkpt>
      <trkpt lat="44.44853" lon="5.54765">
        <ele>794.3</ele>
        <time>2021-09-07T12:45:38Z</time>
      </trkpt>
      <trkpt lat="44.44852" lon="5.54766">
        <ele>794.4</ele>
        <time>2021-09-07T12:45:39Z</time>
      </trkpt>
      <trkpt lat="44.44851" lon="5.54767">
        <ele>794.5</ele>
        <time>2021-09-07T12:45:40Z</time>
      </trkpt>
      <trkpt lat="44.4485" lon="5.54768">
        <ele>794.6</ele>
        <time>2021-09-07T12:45:41Z</time>
      </trkpt>
      <trkpt lat="44.44848" lon="5.5477">
        <ele>794.7</ele>
        <time>2021-09-07T12:45:42Z</time>
      </trkpt>
      <trkpt lat="44.44847" lon="5.54771">
        <ele>794.8</ele>
        <time>2021-09-07T12:45:43Z</time>
      </trkpt>
      <trkpt lat="44.44846" lon="5.54771">
        <ele>794.9</ele>
        <time>2021-09-07T12:45:44Z</time>
      </trkpt>
      <trkpt lat="44.44845" lon="5.54773">
        <ele>795</ele>
        <time>2021-09-07T12:45:45Z</time>
      </trkpt>
      <trkpt lat="44.44843" lon="5.54774">
        <ele>795.2</ele>
        <time>2021-09-07T12:45:46Z</time>
      </trkpt>
      <trkpt lat="44.44843" lon="5.54775">
        <ele>795.2</ele>
        <time>2021-09-07T12:45:47Z</time>
      </trkpt>
      <trkpt lat="44.44842" lon="5.54775">
        <ele>795.3</ele>
        <time>2021-09-07T12:45:48Z</time>
      </trkpt>
      <trkpt lat="44.44839" lon="5.54777">
        <ele>795.5</ele>
        <time>2021-09-07T12:45:49Z</time>
      </trkpt>
      <trkpt lat="44.44838" lon="5.54778">
        <ele>795.6</ele>
        <time>2021-09-07T12:45:50Z</time>
      </trkpt>
      <trkpt lat="44.44837" lon="5.54778">
        <ele>795.7</ele>
        <time>2021-09-07T12:45:51Z</time>
      </trkpt>
      <trkpt lat="44.44836" lon="5.54779">
        <ele>795.8</ele>
        <time>2021-09-07T12:45:52Z</time>
      </trkpt>
      <trkpt lat="44.44835" lon="5.54779">
        <ele>795.8</ele>
        <time>2021-09-07T12:45:53Z</time>
      </trkpt>
      <trkpt lat="44.44834" lon="5.54779">
        <ele>795.9</ele>
        <time>2021-09-07T12:45:54Z</time>
      </trkpt>
      <trkpt lat="44.44832" lon="5.5478">
        <ele>796.1</ele>
        <time>2021-09-07T12:45:55Z</time>
      </trkpt>
      <trkpt lat="44.4483" lon="5.5478">
        <ele>796.2</ele>
        <time>2021-09-07T12:45:56Z</time>
      </trkpt>
      <trkpt lat="44.44828" lon="5.5478">
        <ele>796.3</ele>
        <time>2021-09-07T12:45:57Z</time>
      </trkpt>
      <trkpt lat="44.44827" lon="5.54781">
        <ele>796.4</ele>
        <time>2021-09-07T12:45:58Z</time>
      </trkpt>
      <trkpt lat="44.44825" lon="5.54781">
        <ele>796.6</ele>
        <time>2021-09-07T12:45:59Z</time>
      </trkpt>
      <trkpt lat="44.44823" lon="5.54781">
        <ele>796.7</ele>
        <time>2021-09-07T12:46:00Z</time>
      </trkpt>
      <trkpt lat="44.44822" lon="5.54782">
        <ele>796.8</ele>
        <time>2021-09-07T12:46:01Z</time>
      </trkpt>
      <trkpt lat="44.4482" lon="5.54782">
        <ele>796.9</ele>
        <time>2021-09-07T12:46:02Z</time>
      </trkpt>
      <trkpt lat="44.44817" lon="5.54783">
        <ele>797.1</ele>
        <time>2021-09-07T12:46:03Z</time>
      </trkpt>
      <trkpt lat="44.44816" lon="5.54783">
        <ele>797.2</ele>
        <time>2021-09-07T12:46:04Z</time>
      </trkpt>
      <trkpt lat="44.44815" lon="5.54783">
        <ele>797.3</ele>
        <time>2021-09-07T12:46:05Z</time>
      </trkpt>
      <trkpt lat="44.44814" lon="5.54785">
        <ele>797.4</ele>
        <time>2021-09-07T12:46:06Z</time>
      </trkpt>
      <trkpt lat="44.44812" lon="5.54786">
        <ele>797.5</ele>
        <time>2021-09-07T12:46:07Z</time>
      </trkpt>
      <trkpt lat="44.44811" lon="5.54788">
        <ele>797.6</ele>
        <time>2021-09-07T12:46:08Z</time>
      </trkpt>
      <trkpt lat="44.44809" lon="5.54789">
        <ele>797.8</ele>
        <time>2021-09-07T12:46:09Z</time>
      </trkpt>
      <trkpt lat="44.44808" lon="5.5479">
        <ele>797.9</ele>
        <time>2021-09-07T12:46:10Z</time>
      </trkpt>
      <trkpt lat="44.44806" lon="5.54791">
        <ele>798</ele>
        <time>2021-09-07T12:46:11Z</time>
      </trkpt>
      <trkpt lat="44.44804" lon="5.54792">
        <ele>798.1</ele>
        <time>2021-09-07T12:46:12Z</time>
      </trkpt>
      <trkpt lat="44.44801" lon="5.54794">
        <ele>798.3</ele>
        <time>2021-09-07T12:46:13Z</time>
      </trkpt>
      <trkpt lat="44.448" lon="5.54795">
        <ele>798.4</ele>
        <time>2021-09-07T12:46:14Z</time>
      </trkpt>
      <trkpt lat="44.44799" lon="5.54796">
        <ele>798.4</ele>
        <time>2021-09-07T12:46:15Z</time>
      </trkpt>
      <trkpt lat="44.44797" lon="5.54799">
        <ele>798.6</ele>
        <time>2021-09-07T12:46:16Z</time>
      </trkpt>
      <trkpt lat="44.44795" lon="5.548">
        <ele>798.7</ele>
        <time>2021-09-07T12:46:17Z</time>
      </trkpt>
      <trkpt lat="44.44794" lon="5.54802">
        <ele>798.8</ele>
        <time>2021-09-07T12:46:18Z</time>
      </trkpt>
      <trkpt lat="44.44792" lon="5.54803">
        <ele>798.9</ele>
        <time>2021-09-07T12:46:19Z</time>
      </trkpt>
      <trkpt lat="44.4479" lon="5.54805">
        <ele>799</ele>
        <time>2021-09-07T12:46:20Z</time>
      </trkpt>
      <trkpt lat="44.44789" lon="5.54808">
        <ele>799.1</ele>
        <time>2021-09-07T12:46:21Z</time>
      </trkpt>
      <trkpt lat="44.44788" lon="5.54811">
        <ele>799.3</ele>
        <time>2021-09-07T12:46:22Z</time>
      </trkpt>
      <trkpt lat="44.44786" lon="5.54815">
        <ele>799.4</ele>
        <time>2021-09-07T12:46:23Z</time>
      </trkpt>
      <trkpt lat="44.44785" lon="5.54817">
        <ele>799.5</ele>
        <time>2021-09-07T12:46:24Z</time>
      </trkpt>
      <trkpt lat="44.44784" lon="5.54818">
        <ele>799.6</ele>
        <time>2021-09-07T12:46:25Z</time>
      </trkpt>
      <trkpt lat="44.44783" lon="5.54821">
        <ele>799.7</ele>
        <time>2021-09-07T12:46:26Z</time>
      </trkpt>
      <trkpt lat="44.44781" lon="5.54824">
        <ele>799.9</ele>
        <time>2021-09-07T12:46:27Z</time>
      </trkpt>
      <trkpt lat="44.4478" lon="5.54827">
        <ele>800</ele>
        <time>2021-09-07T12:46:28Z</time>
      </trkpt>
      <trkpt lat="44.44779" lon="5.54829">
        <ele>800.1</ele>
        <time>2021-09-07T12:46:29Z</time>
      </trkpt>
      <trkpt lat="44.44778" lon="5.54831">
        <ele>800.2</ele>
        <time>2021-09-07T12:46:30Z</time>
      </trkpt>
      <trkpt lat="44.44775" lon="5.54837">
        <ele>800.4</ele>
        <time>2021-09-07T12:46:31Z</time>
      </trkpt>
      <trkpt lat="44.44774" lon="5.54838">
        <ele>800.5</ele>
        <time>2021-09-07T12:46:32Z</time>
      </trkpt>
      <trkpt lat="44.44773" lon="5.54839">
        <ele>800.5</ele>
        <time>2021-09-07T12:46:33Z</time>
      </trkpt>
      <trkpt lat="44.44771" lon="5.54843">
        <ele>800.7</ele>
        <time>2021-09-07T12:46:34Z</time>
      </trkpt>
      <trkpt lat="44.4477" lon="5.54845">
        <ele>800.8</ele>
        <time>2021-09-07T12:46:35Z</time>
      </trkpt>
      <trkpt lat="44.44769" lon="5.54846">
        <ele>800.9</ele>
        <time>2021-09-07T12:46:36Z</time>
      </trkpt>
      <trkpt lat="44.44767" lon="5.54849">
        <ele>801</ele>
        <time>2021-09-07T12:46:37Z</time>
      </trkpt>
      <trkpt lat="44.44766" lon="5.5485">
        <ele>801.1</ele>
        <time>2021-09-07T12:46:38Z</time>
      </trkpt>
      <trkpt lat="44.44765" lon="5.54851">
        <ele>801.1</ele>
        <time>2021-09-07T12:46:39Z</time>
      </trkpt>
      <trkpt lat="44.44764" lon="5.54853">
        <ele>801.2</ele>
        <time>2021-09-07T12:46:40Z</time>
      </trkpt>
      <trkpt lat="44.44763" lon="5.54855">
        <ele>801.3</ele>
        <time>2021-09-07T12:46:41Z</time>
      </trkpt>
      <trkpt lat="44.44761" lon="5.54857">
        <ele>801.5</ele>
        <time>2021-09-07T12:46:42Z</time>
      </trkpt>
      <trkpt lat="44.4476" lon="5.5486">
        <ele>801.6</ele>
        <time>2021-09-07T12:46:43Z</time>
      </trkpt>
      <trkpt lat="44.44759" lon="5.54862">
        <ele>801.7</ele>
        <time>2021-09-07T12:46:44Z</time>
      </trkpt>
      <trkpt lat="44.44757" lon="5.54866">
        <ele>801.9</ele>
        <time>2021-09-07T12:46:45Z</time>
      </trkpt>
      <trkpt lat="44.44757" lon="5.54868">
        <ele>801.9</ele>
        <time>2021-09-07T12:46:46Z</time>
      </trkpt>
      <trkpt lat="44.44756" lon="5.54869">
        <ele>802</ele>
        <time>2021-09-07T12:46:47Z</time>
      </trkpt>
      <trkpt lat="44.44755" lon="5.54871">
        <ele>802.1</ele>
        <time>2021-09-07T12:46:48Z</time>
      </trkpt>
      <trkpt lat="44.44753" lon="5.54874">
        <ele>802.3</ele>
        <time>2021-09-07T12:46:49Z</time>
      </trkpt>
      <trkpt lat="44.44753" lon="5.54876">
        <ele>802.3</ele>
        <time>2021-09-07T12:46:50Z</time>
      </trkpt>
      <trkpt lat="44.44752" lon="5.54877">
        <ele>802.4</ele>
        <time>2021-09-07T12:46:51Z</time>
      </trkpt>
      <trkpt lat="44.4475" lon="5.5488">
        <ele>802.6</ele>
        <time>2021-09-07T12:46:52Z</time>
      </trkpt>
      <trkpt lat="44.44749" lon="5.54883">
        <ele>802.7</ele>
        <time>2021-09-07T12:46:53Z</time>
      </trkpt>
      <trkpt lat="44.44748" lon="5.54885">
        <ele>802.8</ele>
        <time>2021-09-07T12:46:54Z</time>
      </trkpt>
      <trkpt lat="44.44747" lon="5.54887">
        <ele>802.9</ele>
        <time>2021-09-07T12:46:55Z</time>
      </trkpt>
      <trkpt lat="44.44746" lon="5.54889">
        <ele>803</ele>
        <time>2021-09-07T12:46:56Z</time>
      </trkpt>
      <trkpt lat="44.44745" lon="5.5489">
        <ele>803.1</ele>
        <time>2021-09-07T12:46:57Z</time>
      </trkpt>
      <trkpt lat="44.44744" lon="5.54891">
        <ele>803.1</ele>
        <time>2021-09-07T12:46:58Z</time>
      </trkpt>
      <trkpt lat="44.44744" lon="5.54893">
        <ele>803.2</ele>
        <time>2021-09-07T12:46:59Z</time>
      </trkpt>
      <trkpt lat="44.44743" lon="5.54894">
        <ele>803.3</ele>
        <time>2021-09-07T12:47:00Z</time>
      </trkpt>
      <trkpt lat="44.44741" lon="5.54897">
        <ele>803.5</ele>
        <time>2021-09-07T12:47:01Z</time>
      </trkpt>
      <trkpt lat="44.44741" lon="5.54899">
        <ele>803.6</ele>
        <time>2021-09-07T12:47:02Z</time>
      </trkpt>
      <trkpt lat="44.4474" lon="5.549">
        <ele>803.6</ele>
        <time>2021-09-07T12:47:03Z</time>
      </trkpt>
      <trkpt lat="44.44739" lon="5.54903">
        <ele>803.8</ele>
        <time>2021-09-07T12:47:04Z</time>
      </trkpt>
      <trkpt lat="44.44738" lon="5.54906">
        <ele>803.9</ele>
        <time>2021-09-07T12:47:05Z</time>
      </trkpt>
      <trkpt lat="44.44738" lon="5.54908">
        <ele>804</ele>
        <time>2021-09-07T12:47:06Z</time>
      </trkpt>
      <trkpt lat="44.44737" lon="5.54909">
        <ele>804.1</ele>
        <time>2021-09-07T12:47:07Z</time>
      </trkpt>
      <trkpt lat="44.44736" lon="5.54911">
        <ele>804.2</ele>
        <time>2021-09-07T12:47:08Z</time>
      </trkpt>
      <trkpt lat="44.44736" lon="5.54914">
        <ele>804.3</ele>
        <time>2021-09-07T12:47:09Z</time>
      </trkpt>
      <trkpt lat="44.44736" lon="5.54916">
        <ele>804.4</ele>
        <time>2021-09-07T12:47:10Z</time>
      </trkpt>
      <trkpt lat="44.44735" lon="5.54918">
        <ele>804.5</ele>
        <time>2021-09-07T12:47:11Z</time>
      </trkpt>
      <trkpt lat="44.44732" lon="5.54923">
        <ele>804.8</ele>
        <time>2021-09-07T12:47:12Z</time>
      </trkpt>
      <trkpt lat="44.44731" lon="5.54927">
        <ele>805</ele>
        <time>2021-09-07T12:47:13Z</time>
      </trkpt>
      <trkpt lat="44.44731" lon="5.54929">
        <ele>805</ele>
        <time>2021-09-07T12:47:14Z</time>
      </trkpt>
      <trkpt lat="44.4473" lon="5.5493">
        <ele>805.1</ele>
        <time>2021-09-07T12:47:15Z</time>
      </trkpt>
      <trkpt lat="44.44729" lon="5.54933">
        <ele>805.2</ele>
        <time>2021-09-07T12:47:16Z</time>
      </trkpt>
      <trkpt lat="44.44728" lon="5.54935">
        <ele>805.3</ele>
        <time>2021-09-07T12:47:17Z</time>
      </trkpt>
      <trkpt lat="44.44726" lon="5.54939">
        <ele>805.4</ele>
        <time>2021-09-07T12:47:18Z</time>
      </trkpt>
      <trkpt lat="44.44726" lon="5.54941">
        <ele>805.5</ele>
        <time>2021-09-07T12:47:19Z</time>
      </trkpt>
      <trkpt lat="44.44725" lon="5.54942">
        <ele>805.5</ele>
        <time>2021-09-07T12:47:20Z</time>
      </trkpt>
      <trkpt lat="44.44724" lon="5.54945">
        <ele>805.6</ele>
        <time>2021-09-07T12:47:21Z</time>
      </trkpt>
      <trkpt lat="44.44723" lon="5.5495">
        <ele>805.8</ele>
        <time>2021-09-07T12:47:22Z</time>
      </trkpt>
      <trkpt lat="44.44723" lon="5.54953">
        <ele>805.8</ele>
        <time>2021-09-07T12:47:23Z</time>
      </trkpt>
      <trkpt lat="44.44723" lon="5.54955">
        <ele>805.9</ele>
        <time>2021-09-07T12:47:24Z</time>
      </trkpt>
      <trkpt lat="44.44722" lon="5.54956">
        <ele>805.9</ele>
        <time>2021-09-07T12:47:25Z</time>
      </trkpt>
      <trkpt lat="44.44721" lon="5.54958">
        <ele>806</ele>
        <time>2021-09-07T12:47:26Z</time>
      </trkpt>
      <trkpt lat="44.44719" lon="5.5496">
        <ele>806.1</ele>
        <time>2021-09-07T12:47:27Z</time>
      </trkpt>
      <trkpt lat="44.44718" lon="5.54961">
        <ele>806.1</ele>
        <time>2021-09-07T12:47:28Z</time>
      </trkpt>
      <trkpt lat="44.44716" lon="5.54962">
        <ele>806.2</ele>
        <time>2021-09-07T12:47:29Z</time>
      </trkpt>
      <trkpt lat="44.44715" lon="5.54964">
        <ele>806.2</ele>
        <time>2021-09-07T12:47:30Z</time>
      </trkpt>
      <trkpt lat="44.44713" lon="5.54966">
        <ele>806.3</ele>
        <time>2021-09-07T12:47:31Z</time>
      </trkpt>
      <trkpt lat="44.44712" lon="5.54967">
        <ele>806.4</ele>
        <time>2021-09-07T12:47:32Z</time>
      </trkpt>
      <trkpt lat="44.44711" lon="5.54968">
        <ele>806.4</ele>
        <time>2021-09-07T12:47:33Z</time>
      </trkpt>
      <trkpt lat="44.44709" lon="5.54971">
        <ele>806.5</ele>
        <time>2021-09-07T12:47:34Z</time>
      </trkpt>
      <trkpt lat="44.44708" lon="5.54972">
        <ele>806.6</ele>
        <time>2021-09-07T12:47:35Z</time>
      </trkpt>
      <trkpt lat="44.44707" lon="5.54972">
        <ele>806.6</ele>
        <time>2021-09-07T12:47:36Z</time>
      </trkpt>
      <trkpt lat="44.44706" lon="5.54974">
        <ele>806.7</ele>
        <time>2021-09-07T12:47:37Z</time>
      </trkpt>
      <trkpt lat="44.44705" lon="5.54975">
        <ele>806.7</ele>
        <time>2021-09-07T12:47:38Z</time>
      </trkpt>
      <trkpt lat="44.44704" lon="5.54977">
        <ele>806.8</ele>
        <time>2021-09-07T12:47:39Z</time>
      </trkpt>
      <trkpt lat="44.44702" lon="5.54981">
        <ele>807</ele>
        <time>2021-09-07T12:47:40Z</time>
      </trkpt>
      <trkpt lat="44.44701" lon="5.54982">
        <ele>807.1</ele>
        <time>2021-09-07T12:47:41Z</time>
      </trkpt>
      <trkpt lat="44.447" lon="5.54983">
        <ele>807.1</ele>
        <time>2021-09-07T12:47:42Z</time>
      </trkpt>
      <trkpt lat="44.44699" lon="5.54985">
        <ele>807.2</ele>
        <time>2021-09-07T12:47:43Z</time>
      </trkpt>
      <trkpt lat="44.44697" lon="5.54987">
        <ele>807.3</ele>
        <time>2021-09-07T12:47:44Z</time>
      </trkpt>
      <trkpt lat="44.44696" lon="5.54989">
        <ele>807.4</ele>
        <time>2021-09-07T12:47:45Z</time>
      </trkpt>
      <trkpt lat="44.44695" lon="5.54991">
        <ele>807.6</ele>
        <time>2021-09-07T12:47:46Z</time>
      </trkpt>
      <trkpt lat="44.44693" lon="5.54992">
        <ele>807.7</ele>
        <time>2021-09-07T12:47:47Z</time>
      </trkpt>
      <trkpt lat="44.44691" lon="5.54994">
        <ele>807.8</ele>
        <time>2021-09-07T12:47:48Z</time>
      </trkpt>
      <trkpt lat="44.4469" lon="5.54995">
        <ele>807.9</ele>
        <time>2021-09-07T12:47:49Z</time>
      </trkpt>
      <trkpt lat="44.44689" lon="5.54996">
        <ele>808</ele>
        <time>2021-09-07T12:47:50Z</time>
      </trkpt>
      <trkpt lat="44.44688" lon="5.54997">
        <ele>808.1</ele>
        <time>2021-09-07T12:47:51Z</time>
      </trkpt>
      <trkpt lat="44.44687" lon="5.54999">
        <ele>808.2</ele>
        <time>2021-09-07T12:47:52Z</time>
      </trkpt>
      <trkpt lat="44.44686" lon="5.55001">
        <ele>808.3</ele>
        <time>2021-09-07T12:47:53Z</time>
      </trkpt>
      <trkpt lat="44.44685" lon="5.55002">
        <ele>808.4</ele>
        <time>2021-09-07T12:47:54Z</time>
      </trkpt>
      <trkpt lat="44.44685" lon="5.55003">
        <ele>808.5</ele>
        <time>2021-09-07T12:47:55Z</time>
      </trkpt>
      <trkpt lat="44.44684" lon="5.55004">
        <ele>808.6</ele>
        <time>2021-09-07T12:47:56Z</time>
      </trkpt>
      <trkpt lat="44.44684" lon="5.55005">
        <ele>808.6</ele>
        <time>2021-09-07T12:47:57Z</time>
      </trkpt>
      <trkpt lat="44.44683" lon="5.55006">
        <ele>808.7</ele>
        <time>2021-09-07T12:47:58Z</time>
      </trkpt>
      <trkpt lat="44.44683" lon="5.55006">
        <ele>808.7</ele>
        <time>2021-09-07T12:47:59Z</time>
      </trkpt>
      <trkpt lat="44.44683" lon="5.55007">
        <ele>808.7</ele>
        <time>2021-09-07T12:48:00Z</time>
      </trkpt>
      <trkpt lat="44.44682" lon="5.55007">
        <ele>808.8</ele>
        <time>2021-09-07T12:48:01Z</time>
      </trkpt>
      <trkpt lat="44.44682" lon="5.55007">
        <ele>808.8</ele>
        <time>2021-09-07T12:48:02Z</time>
      </trkpt>
      <trkpt lat="44.44682" lon="5.55007">
        <ele>808.8</ele>
        <time>2021-09-07T12:48:03Z</time>
      </trkpt>
      <trkpt lat="44.44682" lon="5.55007">
        <ele>808.8</ele>
        <time>2021-09-07T12:48:04Z</time>
      </trkpt>
      <trkpt lat="44.44682" lon="5.55007">
        <ele>808.8</ele>
        <time>2021-09-07T12:48:05Z</time>
      </trkpt>
      <trkpt lat="44.44682" lon="5.55007">
        <ele>808.8</ele>
        <time>2021-09-07T12:48:06Z</time>
      </trkpt>
      <trkpt lat="44.44682" lon="5.55008">
        <ele>808.8</ele>
        <time>2021-09-07T12:48:07Z</time>
      </trkpt>
      <trkpt lat="44.44682" lon="5.55008">
        <ele>808.8</ele>
        <time>2021-09-07T12:48:08Z</time>
      </trkpt>
      <trkpt lat="44.44682" lon="5.55008">
        <ele>808.8</ele>
        <time>2021-09-07T12:48:09Z</time>
      </trkpt>
      <trkpt lat="44.44682" lon="5.55008">
        <ele>808.8</ele>
        <time>2021-09-07T12:48:10Z</time>
      </trkpt>
      <trkpt lat="44.44681" lon="5.55009">
        <ele>808.9</ele>
        <time>2021-09-07T12:48:11Z</time>
      </trkpt>
      <trkpt lat="44.44681" lon="5.55009">
        <ele>808.9</ele>
        <time>2021-09-07T12:48:12Z</time>
      </trkpt>
      <trkpt lat="44.44679" lon="5.5501">
        <ele>809.1</ele>
        <time>2021-09-07T12:48:13Z</time>
      </trkpt>
      <trkpt lat="44.44678" lon="5.55012">
        <ele>809.2</ele>
        <time>2021-09-07T12:48:14Z</time>
      </trkpt>
      <trkpt lat="44.44678" lon="5.55013">
        <ele>809.2</ele>
        <time>2021-09-07T12:48:15Z</time>
      </trkpt>
      <trkpt lat="44.44677" lon="5.55014">
        <ele>809.3</ele>
        <time>2021-09-07T12:48:16Z</time>
      </trkpt>
      <trkpt lat="44.44676" lon="5.55016">
        <ele>809.4</ele>
        <time>2021-09-07T12:48:17Z</time>
      </trkpt>
      <trkpt lat="44.44674" lon="5.55017">
        <ele>809.6</ele>
        <time>2021-09-07T12:48:18Z</time>
      </trkpt>
      <trkpt lat="44.44673" lon="5.55019">
        <ele>809.7</ele>
        <time>2021-09-07T12:48:19Z</time>
      </trkpt>
      <trkpt lat="44.44671" lon="5.55022">
        <ele>809.9</ele>
        <time>2021-09-07T12:48:20Z</time>
      </trkpt>
      <trkpt lat="44.4467" lon="5.55024">
        <ele>810.1</ele>
        <time>2021-09-07T12:48:21Z</time>
      </trkpt>
      <trkpt lat="44.44668" lon="5.55025">
        <ele>810.2</ele>
        <time>2021-09-07T12:48:22Z</time>
      </trkpt>
      <trkpt lat="44.44662" lon="5.55032">
        <ele>810.8</ele>
        <time>2021-09-07T12:48:23Z</time>
      </trkpt>
      <trkpt lat="44.44661" lon="5.55034">
        <ele>811</ele>
        <time>2021-09-07T12:48:24Z</time>
      </trkpt>
      <trkpt lat="44.44659" lon="5.55036">
        <ele>811.1</ele>
        <time>2021-09-07T12:48:25Z</time>
      </trkpt>
      <trkpt lat="44.44655" lon="5.5504">
        <ele>811.4</ele>
        <time>2021-09-07T12:48:26Z</time>
      </trkpt>
      <trkpt lat="44.44651" lon="5.55045">
        <ele>811.7</ele>
        <time>2021-09-07T12:48:27Z</time>
      </trkpt>
      <trkpt lat="44.44648" lon="5.55049">
        <ele>811.9</ele>
        <time>2021-09-07T12:48:28Z</time>
      </trkpt>
      <trkpt lat="44.44646" lon="5.55052">
        <ele>812</ele>
        <time>2021-09-07T12:48:29Z</time>
      </trkpt>
      <trkpt lat="44.44643" lon="5.55054">
        <ele>812.1</ele>
        <time>2021-09-07T12:48:30Z</time>
      </trkpt>
      <trkpt lat="44.44641" lon="5.55057">
        <ele>812.2</ele>
        <time>2021-09-07T12:48:31Z</time>
      </trkpt>
      <trkpt lat="44.44639" lon="5.55059">
        <ele>812.3</ele>
        <time>2021-09-07T12:48:32Z</time>
      </trkpt>
      <trkpt lat="44.44635" lon="5.55065">
        <ele>812.5</ele>
        <time>2021-09-07T12:48:33Z</time>
      </trkpt>
      <trkpt lat="44.44633" lon="5.55067">
        <ele>812.6</ele>
        <time>2021-09-07T12:48:34Z</time>
      </trkpt>
      <trkpt lat="44.44631" lon="5.55069">
        <ele>812.7</ele>
        <time>2021-09-07T12:48:35Z</time>
      </trkpt>
      <trkpt lat="44.44626" lon="5.55075">
        <ele>812.9</ele>
        <time>2021-09-07T12:48:36Z</time>
      </trkpt>
      <trkpt lat="44.44625" lon="5.55076">
        <ele>813</ele>
        <time>2021-09-07T12:48:37Z</time>
      </trkpt>
      <trkpt lat="44.44623" lon="5.55077">
        <ele>813.1</ele>
        <time>2021-09-07T12:48:38Z</time>
      </trkpt>
      <trkpt lat="44.4462" lon="5.5508">
        <ele>813.2</ele>
        <time>2021-09-07T12:48:39Z</time>
      </trkpt>
      <trkpt lat="44.44619" lon="5.55082">
        <ele>813.3</ele>
        <time>2021-09-07T12:48:40Z</time>
      </trkpt>
      <trkpt lat="44.44618" lon="5.55083">
        <ele>813.3</ele>
        <time>2021-09-07T12:48:41Z</time>
      </trkpt>
      <trkpt lat="44.44616" lon="5.55085">
        <ele>813.4</ele>
        <time>2021-09-07T12:48:42Z</time>
      </trkpt>
      <trkpt lat="44.44615" lon="5.55086">
        <ele>813.5</ele>
        <time>2021-09-07T12:48:43Z</time>
      </trkpt>
      <trkpt lat="44.44613" lon="5.55088">
        <ele>813.6</ele>
        <time>2021-09-07T12:48:44Z</time>
      </trkpt>
      <trkpt lat="44.44612" lon="5.55089">
        <ele>813.7</ele>
        <time>2021-09-07T12:48:45Z</time>
      </trkpt>
      <trkpt lat="44.44611" lon="5.55089">
        <ele>813.7</ele>
        <time>2021-09-07T12:48:46Z</time>
      </trkpt>
      <trkpt lat="44.4461" lon="5.5509">
        <ele>813.8</ele>
        <time>2021-09-07T12:48:47Z</time>
      </trkpt>
      <trkpt lat="44.44608" lon="5.55091">
        <ele>813.9</ele>
        <time>2021-09-07T12:48:48Z</time>
      </trkpt>
      <trkpt lat="44.44605" lon="5.55094">
        <ele>814.1</ele>
        <time>2021-09-07T12:48:49Z</time>
      </trkpt>
      <trkpt lat="44.44604" lon="5.55095">
        <ele>814.2</ele>
        <time>2021-09-07T12:48:50Z</time>
      </trkpt>
      <trkpt lat="44.44603" lon="5.55095">
        <ele>814.2</ele>
        <time>2021-09-07T12:48:51Z</time>
      </trkpt>
      <trkpt lat="44.44601" lon="5.55096">
        <ele>814.3</ele>
        <time>2021-09-07T12:48:52Z</time>
      </trkpt>
      <trkpt lat="44.446" lon="5.55097">
        <ele>814.4</ele>
        <time>2021-09-07T12:48:53Z</time>
      </trkpt>
      <trkpt lat="44.44598" lon="5.55097">
        <ele>814.5</ele>
        <time>2021-09-07T12:48:54Z</time>
      </trkpt>
      <trkpt lat="44.44596" lon="5.55098">
        <ele>814.7</ele>
        <time>2021-09-07T12:48:55Z</time>
      </trkpt>
      <trkpt lat="44.44594" lon="5.55099">
        <ele>814.8</ele>
        <time>2021-09-07T12:48:56Z</time>
      </trkpt>
      <trkpt lat="44.44593" lon="5.551">
        <ele>814.9</ele>
        <time>2021-09-07T12:48:57Z</time>
      </trkpt>
      <trkpt lat="44.44591" lon="5.551">
        <ele>815</ele>
        <time>2021-09-07T12:48:58Z</time>
      </trkpt>
      <trkpt lat="44.4459" lon="5.55101">
        <ele>815.1</ele>
        <time>2021-09-07T12:48:59Z</time>
      </trkpt>
      <trkpt lat="44.44588" lon="5.55102">
        <ele>815.2</ele>
        <time>2021-09-07T12:49:00Z</time>
      </trkpt>
      <trkpt lat="44.44587" lon="5.55103">
        <ele>815.3</ele>
        <time>2021-09-07T12:49:01Z</time>
      </trkpt>
      <trkpt lat="44.44586" lon="5.55104">
        <ele>815.4</ele>
        <time>2021-09-07T12:49:02Z</time>
      </trkpt>
      <trkpt lat="44.44584" lon="5.55105">
        <ele>815.6</ele>
        <time>2021-09-07T12:49:03Z</time>
      </trkpt>
      <trkpt lat="44.44582" lon="5.55106">
        <ele>815.7</ele>
        <time>2021-09-07T12:49:04Z</time>
      </trkpt>
      <trkpt lat="44.4458" lon="5.55107">
        <ele>815.9</ele>
        <time>2021-09-07T12:49:05Z</time>
      </trkpt>
      <trkpt lat="44.4458" lon="5.55108">
        <ele>815.9</ele>
        <time>2021-09-07T12:49:06Z</time>
      </trkpt>
      <trkpt lat="44.44579" lon="5.55108">
        <ele>815.9</ele>
        <time>2021-09-07T12:49:07Z</time>
      </trkpt>
      <trkpt lat="44.44578" lon="5.5511">
        <ele>816.1</ele>
        <time>2021-09-07T12:49:08Z</time>
      </trkpt>
      <trkpt lat="44.44576" lon="5.55112">
        <ele>816.2</ele>
        <time>2021-09-07T12:49:09Z</time>
      </trkpt>
      <trkpt lat="44.44575" lon="5.55113">
        <ele>816.3</ele>
        <time>2021-09-07T12:49:10Z</time>
      </trkpt>
      <trkpt lat="44.44574" lon="5.55114">
        <ele>816.4</ele>
        <time>2021-09-07T12:49:11Z</time>
      </trkpt>
      <trkpt lat="44.44572" lon="5.55116">
        <ele>816.6</ele>
        <time>2021-09-07T12:49:12Z</time>
      </trkpt>
      <trkpt lat="44.4457" lon="5.55119">
        <ele>816.8</ele>
        <time>2021-09-07T12:49:13Z</time>
      </trkpt>
      <trkpt lat="44.44568" lon="5.55121">
        <ele>817</ele>
        <time>2021-09-07T12:49:14Z</time>
      </trkpt>
      <trkpt lat="44.44566" lon="5.55123">
        <ele>817.2</ele>
        <time>2021-09-07T12:49:15Z</time>
      </trkpt>
      <trkpt lat="44.44564" lon="5.55124">
        <ele>817.3</ele>
        <time>2021-09-07T12:49:16Z</time>
      </trkpt>
      <trkpt lat="44.44562" lon="5.55125">
        <ele>817.4</ele>
        <time>2021-09-07T12:49:17Z</time>
      </trkpt>
      <trkpt lat="44.44559" lon="5.55127">
        <ele>817.7</ele>
        <time>2021-09-07T12:49:18Z</time>
      </trkpt>
      <trkpt lat="44.44556" lon="5.55129">
        <ele>817.9</ele>
        <time>2021-09-07T12:49:19Z</time>
      </trkpt>
      <trkpt lat="44.44555" lon="5.5513">
        <ele>818</ele>
        <time>2021-09-07T12:49:20Z</time>
      </trkpt>
      <trkpt lat="44.44554" lon="5.55131">
        <ele>818.1</ele>
        <time>2021-09-07T12:49:21Z</time>
      </trkpt>
      <trkpt lat="44.44552" lon="5.55132">
        <ele>818.2</ele>
        <time>2021-09-07T12:49:22Z</time>
      </trkpt>
      <trkpt lat="44.4455" lon="5.55133">
        <ele>818.3</ele>
        <time>2021-09-07T12:49:23Z</time>
      </trkpt>
      <trkpt lat="44.44549" lon="5.55134">
        <ele>818.4</ele>
        <time>2021-09-07T12:49:24Z</time>
      </trkpt>
      <trkpt lat="44.44547" lon="5.55135">
        <ele>818.6</ele>
        <time>2021-09-07T12:49:25Z</time>
      </trkpt>
      <trkpt lat="44.44545" lon="5.55136">
        <ele>818.7</ele>
        <time>2021-09-07T12:49:26Z</time>
      </trkpt>
      <trkpt lat="44.44543" lon="5.55137">
        <ele>818.9</ele>
        <time>2021-09-07T12:49:27Z</time>
      </trkpt>
      <trkpt lat="44.44541" lon="5.55138">
        <ele>819</ele>
        <time>2021-09-07T12:49:28Z</time>
      </trkpt>
      <trkpt lat="44.44539" lon="5.55139">
        <ele>819.2</ele>
        <time>2021-09-07T12:49:29Z</time>
      </trkpt>
      <trkpt lat="44.44535" lon="5.5514">
        <ele>819.5</ele>
        <time>2021-09-07T12:49:30Z</time>
      </trkpt>
      <trkpt lat="44.44534" lon="5.55141">
        <ele>819.6</ele>
        <time>2021-09-07T12:49:31Z</time>
      </trkpt>
      <trkpt lat="44.44532" lon="5.55141">
        <ele>819.7</ele>
        <time>2021-09-07T12:49:32Z</time>
      </trkpt>
      <trkpt lat="44.44531" lon="5.55142">
        <ele>819.8</ele>
        <time>2021-09-07T12:49:33Z</time>
      </trkpt>
      <trkpt lat="44.44529" lon="5.55142">
        <ele>819.9</ele>
        <time>2021-09-07T12:49:34Z</time>
      </trkpt>
      <trkpt lat="44.44525" lon="5.55143">
        <ele>820.2</ele>
        <time>2021-09-07T12:49:35Z</time>
      </trkpt>
      <trkpt lat="44.44524" lon="5.55144">
        <ele>820.3</ele>
        <time>2021-09-07T12:49:36Z</time>
      </trkpt>
      <trkpt lat="44.44522" lon="5.55145">
        <ele>820.4</ele>
        <time>2021-09-07T12:49:37Z</time>
      </trkpt>
      <trkpt lat="44.44519" lon="5.55148">
        <ele>820.6</ele>
        <time>2021-09-07T12:49:38Z</time>
      </trkpt>
      <trkpt lat="44.44518" lon="5.55149">
        <ele>820.7</ele>
        <time>2021-09-07T12:49:39Z</time>
      </trkpt>
      <trkpt lat="44.44517" lon="5.5515">
        <ele>820.8</ele>
        <time>2021-09-07T12:49:40Z</time>
      </trkpt>
      <trkpt lat="44.44516" lon="5.55151">
        <ele>820.9</ele>
        <time>2021-09-07T12:49:41Z</time>
      </trkpt>
      <trkpt lat="44.44516" lon="5.55153">
        <ele>820.9</ele>
        <time>2021-09-07T12:49:42Z</time>
      </trkpt>
      <trkpt lat="44.44515" lon="5.55154">
        <ele>821</ele>
        <time>2021-09-07T12:49:43Z</time>
      </trkpt>
      <trkpt lat="44.44514" lon="5.55158">
        <ele>821.2</ele>
        <time>2021-09-07T12:49:44Z</time>
      </trkpt>
      <trkpt lat="44.44514" lon="5.5516">
        <ele>821.3</ele>
        <time>2021-09-07T12:49:45Z</time>
      </trkpt>
      <trkpt lat="44.44514" lon="5.55161">
        <ele>821.3</ele>
        <time>2021-09-07T12:49:46Z</time>
      </trkpt>
      <trkpt lat="44.44514" lon="5.55164">
        <ele>821.4</ele>
        <time>2021-09-07T12:49:47Z</time>
      </trkpt>
      <trkpt lat="44.44514" lon="5.55166">
        <ele>821.5</ele>
        <time>2021-09-07T12:49:48Z</time>
      </trkpt>
      <trkpt lat="44.44513" lon="5.55169">
        <ele>821.7</ele>
        <time>2021-09-07T12:49:49Z</time>
      </trkpt>
      <trkpt lat="44.44513" lon="5.55173">
        <ele>821.8</ele>
        <time>2021-09-07T12:49:50Z</time>
      </trkpt>
      <trkpt lat="44.44513" lon="5.55176">
        <ele>821.9</ele>
        <time>2021-09-07T12:49:51Z</time>
      </trkpt>
      <trkpt lat="44.44512" lon="5.55178">
        <ele>822</ele>
        <time>2021-09-07T12:49:52Z</time>
      </trkpt>
      <trkpt lat="44.4451" lon="5.55181">
        <ele>822.2</ele>
        <time>2021-09-07T12:49:53Z</time>
      </trkpt>
      <trkpt lat="44.44509" lon="5.55184">
        <ele>822.3</ele>
        <time>2021-09-07T12:49:54Z</time>
      </trkpt>
      <trkpt lat="44.44506" lon="5.55189">
        <ele>823</ele>
        <time>2021-09-07T12:49:55Z</time>
      </trkpt>
      <trkpt lat="44.44505" lon="5.55191">
        <ele>823.1</ele>
        <time>2021-09-07T12:49:56Z</time>
      </trkpt>
      <trkpt lat="44.44504" lon="5.55193">
        <ele>823.1</ele>
        <time>2021-09-07T12:49:57Z</time>
      </trkpt>
      <trkpt lat="44.44503" lon="5.55196">
        <ele>823.1</ele>
        <time>2021-09-07T12:49:58Z</time>
      </trkpt>
      <trkpt lat="44.44501" lon="5.55201">
        <ele>823.1</ele>
        <time>2021-09-07T12:49:59Z</time>
      </trkpt>
      <trkpt lat="44.445" lon="5.55202">
        <ele>823.2</ele>
        <time>2021-09-07T12:50:00Z</time>
      </trkpt>
      <trkpt lat="44.44499" lon="5.55203">
        <ele>823.2</ele>
        <time>2021-09-07T12:50:01Z</time>
      </trkpt>
      <trkpt lat="44.44497" lon="5.55207">
        <ele>823.3</ele>
        <time>2021-09-07T12:50:02Z</time>
      </trkpt>
      <trkpt lat="44.44496" lon="5.55209">
        <ele>823.4</ele>
        <time>2021-09-07T12:50:03Z</time>
      </trkpt>
      <trkpt lat="44.44495" lon="5.55211">
        <ele>823.4</ele>
        <time>2021-09-07T12:50:04Z</time>
      </trkpt>
      <trkpt lat="44.44494" lon="5.55213">
        <ele>823.5</ele>
        <time>2021-09-07T12:50:05Z</time>
      </trkpt>
      <trkpt lat="44.44493" lon="5.55215">
        <ele>823.5</ele>
        <time>2021-09-07T12:50:06Z</time>
      </trkpt>
      <trkpt lat="44.44492" lon="5.5522">
        <ele>823.6</ele>
        <time>2021-09-07T12:50:07Z</time>
      </trkpt>
      <trkpt lat="44.44491" lon="5.55223">
        <ele>823.7</ele>
        <time>2021-09-07T12:50:08Z</time>
      </trkpt>
      <trkpt lat="44.4449" lon="5.55225">
        <ele>823.7</ele>
        <time>2021-09-07T12:50:09Z</time>
      </trkpt>
      <trkpt lat="44.44489" lon="5.55228">
        <ele>823.8</ele>
        <time>2021-09-07T12:50:10Z</time>
      </trkpt>
      <trkpt lat="44.44487" lon="5.55231">
        <ele>823.8</ele>
        <time>2021-09-07T12:50:11Z</time>
      </trkpt>
      <trkpt lat="44.44484" lon="5.55237">
        <ele>823.9</ele>
        <time>2021-09-07T12:50:12Z</time>
      </trkpt>
      <trkpt lat="44.44483" lon="5.55239">
        <ele>824</ele>
        <time>2021-09-07T12:50:13Z</time>
      </trkpt>
      <trkpt lat="44.44482" lon="5.55241">
        <ele>824</ele>
        <time>2021-09-07T12:50:14Z</time>
      </trkpt>
      <trkpt lat="44.4448" lon="5.55246">
        <ele>824.1</ele>
        <time>2021-09-07T12:50:15Z</time>
      </trkpt>
      <trkpt lat="44.4448" lon="5.55249">
        <ele>824.2</ele>
        <time>2021-09-07T12:50:16Z</time>
      </trkpt>
      <trkpt lat="44.44479" lon="5.55251">
        <ele>824.2</ele>
        <time>2021-09-07T12:50:17Z</time>
      </trkpt>
      <trkpt lat="44.44478" lon="5.55254">
        <ele>824.3</ele>
        <time>2021-09-07T12:50:18Z</time>
      </trkpt>
      <trkpt lat="44.44475" lon="5.5526">
        <ele>824.4</ele>
        <time>2021-09-07T12:50:19Z</time>
      </trkpt>
      <trkpt lat="44.44474" lon="5.55262">
        <ele>824.4</ele>
        <time>2021-09-07T12:50:20Z</time>
      </trkpt>
      <trkpt lat="44.44473" lon="5.55264">
        <ele>824.5</ele>
        <time>2021-09-07T12:50:21Z</time>
      </trkpt>
      <trkpt lat="44.44473" lon="5.55268">
        <ele>824.5</ele>
        <time>2021-09-07T12:50:22Z</time>
      </trkpt>
      <trkpt lat="44.44471" lon="5.55272">
        <ele>824.6</ele>
        <time>2021-09-07T12:50:23Z</time>
      </trkpt>
      <trkpt lat="44.4447" lon="5.55275">
        <ele>824.6</ele>
        <time>2021-09-07T12:50:24Z</time>
      </trkpt>
      <trkpt lat="44.44469" lon="5.55278">
        <ele>824.7</ele>
        <time>2021-09-07T12:50:25Z</time>
      </trkpt>
      <trkpt lat="44.44468" lon="5.55281">
        <ele>824.7</ele>
        <time>2021-09-07T12:50:26Z</time>
      </trkpt>
      <trkpt lat="44.44467" lon="5.55284">
        <ele>824.8</ele>
        <time>2021-09-07T12:50:27Z</time>
      </trkpt>
      <trkpt lat="44.44466" lon="5.55287">
        <ele>824.8</ele>
        <time>2021-09-07T12:50:28Z</time>
      </trkpt>
      <trkpt lat="44.44465" lon="5.5529">
        <ele>824.9</ele>
        <time>2021-09-07T12:50:29Z</time>
      </trkpt>
      <trkpt lat="44.44464" lon="5.55293">
        <ele>824.9</ele>
        <time>2021-09-07T12:50:30Z</time>
      </trkpt>
      <trkpt lat="44.44462" lon="5.55299">
        <ele>825</ele>
        <time>2021-09-07T12:50:31Z</time>
      </trkpt>
      <trkpt lat="44.44461" lon="5.55302">
        <ele>825.1</ele>
        <time>2021-09-07T12:50:32Z</time>
      </trkpt>
      <trkpt lat="44.4446" lon="5.55305">
        <ele>825.1</ele>
        <time>2021-09-07T12:50:33Z</time>
      </trkpt>
      <trkpt lat="44.44459" lon="5.55308">
        <ele>825.2</ele>
        <time>2021-09-07T12:50:34Z</time>
      </trkpt>
      <trkpt lat="44.44457" lon="5.55311">
        <ele>825.2</ele>
        <time>2021-09-07T12:50:35Z</time>
      </trkpt>
      <trkpt lat="44.44456" lon="5.55313">
        <ele>825.3</ele>
        <time>2021-09-07T12:50:36Z</time>
      </trkpt>
      <trkpt lat="44.44454" lon="5.55314">
        <ele>825.3</ele>
        <time>2021-09-07T12:50:37Z</time>
      </trkpt>
      <trkpt lat="44.44452" lon="5.55317">
        <ele>825.4</ele>
        <time>2021-09-07T12:50:38Z</time>
      </trkpt>
      <trkpt lat="44.44451" lon="5.5532">
        <ele>825.4</ele>
        <time>2021-09-07T12:50:39Z</time>
      </trkpt>
      <trkpt lat="44.44449" lon="5.55323">
        <ele>825.5</ele>
        <time>2021-09-07T12:50:40Z</time>
      </trkpt>
      <trkpt lat="44.44447" lon="5.55326">
        <ele>825.6</ele>
        <time>2021-09-07T12:50:41Z</time>
      </trkpt>
      <trkpt lat="44.44445" lon="5.55328">
        <ele>825.6</ele>
        <time>2021-09-07T12:50:42Z</time>
      </trkpt>
      <trkpt lat="44.44443" lon="5.55331">
        <ele>825.7</ele>
        <time>2021-09-07T12:50:43Z</time>
      </trkpt>
      <trkpt lat="44.44441" lon="5.55334">
        <ele>825.7</ele>
        <time>2021-09-07T12:50:44Z</time>
      </trkpt>
      <trkpt lat="44.44439" lon="5.55337">
        <ele>825.8</ele>
        <time>2021-09-07T12:50:45Z</time>
      </trkpt>
      <trkpt lat="44.44437" lon="5.5534">
        <ele>825.9</ele>
        <time>2021-09-07T12:50:46Z</time>
      </trkpt>
      <trkpt lat="44.44435" lon="5.55343">
        <ele>825.9</ele>
        <time>2021-09-07T12:50:47Z</time>
      </trkpt>
      <trkpt lat="44.44433" lon="5.55346">
        <ele>826</ele>
        <time>2021-09-07T12:50:48Z</time>
      </trkpt>
      <trkpt lat="44.4443" lon="5.55351">
        <ele>826</ele>
        <time>2021-09-07T12:50:49Z</time>
      </trkpt>
      <trkpt lat="44.44429" lon="5.55353">
        <ele>826</ele>
        <time>2021-09-07T12:50:50Z</time>
      </trkpt>
      <trkpt lat="44.44427" lon="5.55354">
        <ele>826.1</ele>
        <time>2021-09-07T12:50:51Z</time>
      </trkpt>
      <trkpt lat="44.44423" lon="5.5536">
        <ele>826.2</ele>
        <time>2021-09-07T12:50:52Z</time>
      </trkpt>
      <trkpt lat="44.44422" lon="5.55362">
        <ele>826.2</ele>
        <time>2021-09-07T12:50:53Z</time>
      </trkpt>
      <trkpt lat="44.4442" lon="5.55364">
        <ele>826.2</ele>
        <time>2021-09-07T12:50:54Z</time>
      </trkpt>
      <trkpt lat="44.44415" lon="5.55369">
        <ele>826.3</ele>
        <time>2021-09-07T12:50:55Z</time>
      </trkpt>
      <trkpt lat="44.44413" lon="5.55372">
        <ele>826.3</ele>
        <time>2021-09-07T12:50:56Z</time>
      </trkpt>
      <trkpt lat="44.44411" lon="5.55374">
        <ele>826.4</ele>
        <time>2021-09-07T12:50:57Z</time>
      </trkpt>
      <trkpt lat="44.44407" lon="5.5538">
        <ele>826.5</ele>
        <time>2021-09-07T12:50:58Z</time>
      </trkpt>
      <trkpt lat="44.44406" lon="5.55383">
        <ele>826.5</ele>
        <time>2021-09-07T12:50:59Z</time>
      </trkpt>
      <trkpt lat="44.44404" lon="5.55385">
        <ele>826.5</ele>
        <time>2021-09-07T12:51:00Z</time>
      </trkpt>
      <trkpt lat="44.44402" lon="5.55388">
        <ele>826.6</ele>
        <time>2021-09-07T12:51:01Z</time>
      </trkpt>
      <trkpt lat="44.444" lon="5.55391">
        <ele>826.6</ele>
        <time>2021-09-07T12:51:02Z</time>
      </trkpt>
      <trkpt lat="44.44397" lon="5.55396">
        <ele>826.7</ele>
        <time>2021-09-07T12:51:03Z</time>
      </trkpt>
      <trkpt lat="44.44395" lon="5.55398">
        <ele>826.8</ele>
        <time>2021-09-07T12:51:04Z</time>
      </trkpt>
      <trkpt lat="44.44394" lon="5.554">
        <ele>826.8</ele>
        <time>2021-09-07T12:51:05Z</time>
      </trkpt>
      <trkpt lat="44.44392" lon="5.55402">
        <ele>826.9</ele>
        <time>2021-09-07T12:51:06Z</time>
      </trkpt>
      <trkpt lat="44.44392" lon="5.55408">
        <ele>827.1</ele>
        <time>2021-09-07T12:51:07Z</time>
      </trkpt>
      <trkpt lat="44.44392" lon="5.5541">
        <ele>827.2</ele>
        <time>2021-09-07T12:51:08Z</time>
      </trkpt>
      <trkpt lat="44.44391" lon="5.55411">
        <ele>827.3</ele>
        <time>2021-09-07T12:51:09Z</time>
      </trkpt>
      <trkpt lat="44.44392" lon="5.55414">
        <ele>827.4</ele>
        <time>2021-09-07T12:51:10Z</time>
      </trkpt>
      <trkpt lat="44.44392" lon="5.55416">
        <ele>827.5</ele>
        <time>2021-09-07T12:51:11Z</time>
      </trkpt>
      <trkpt lat="44.44392" lon="5.5542">
        <ele>827.6</ele>
        <time>2021-09-07T12:51:12Z</time>
      </trkpt>
      <trkpt lat="44.44392" lon="5.55423">
        <ele>827.8</ele>
        <time>2021-09-07T12:51:13Z</time>
      </trkpt>
      <trkpt lat="44.44392" lon="5.55427">
        <ele>827.9</ele>
        <time>2021-09-07T12:51:14Z</time>
      </trkpt>
      <trkpt lat="44.44392" lon="5.5543">
        <ele>828.1</ele>
        <time>2021-09-07T12:51:15Z</time>
      </trkpt>
      <trkpt lat="44.44393" lon="5.55435">
        <ele>828.3</ele>
        <time>2021-09-07T12:51:16Z</time>
      </trkpt>
      <trkpt lat="44.44393" lon="5.55437">
        <ele>828.4</ele>
        <time>2021-09-07T12:51:17Z</time>
      </trkpt>
      <trkpt lat="44.44393" lon="5.55438">
        <ele>828.4</ele>
        <time>2021-09-07T12:51:18Z</time>
      </trkpt>
      <trkpt lat="44.44393" lon="5.5544">
        <ele>828.5</ele>
        <time>2021-09-07T12:51:19Z</time>
      </trkpt>
      <trkpt lat="44.44393" lon="5.55443">
        <ele>828.6</ele>
        <time>2021-09-07T12:51:20Z</time>
      </trkpt>
      <trkpt lat="44.44393" lon="5.55445">
        <ele>828.7</ele>
        <time>2021-09-07T12:51:21Z</time>
      </trkpt>
      <trkpt lat="44.44393" lon="5.55447">
        <ele>828.8</ele>
        <time>2021-09-07T12:51:22Z</time>
      </trkpt>
      <trkpt lat="44.44393" lon="5.55449">
        <ele>828.9</ele>
        <time>2021-09-07T12:51:23Z</time>
      </trkpt>
      <trkpt lat="44.44392" lon="5.55452">
        <ele>829</ele>
        <time>2021-09-07T12:51:24Z</time>
      </trkpt>
      <trkpt lat="44.44391" lon="5.55455">
        <ele>829.1</ele>
        <time>2021-09-07T12:51:25Z</time>
      </trkpt>
      <trkpt lat="44.44391" lon="5.55458">
        <ele>829.2</ele>
        <time>2021-09-07T12:51:26Z</time>
      </trkpt>
      <trkpt lat="44.4439" lon="5.55461">
        <ele>829.3</ele>
        <time>2021-09-07T12:51:27Z</time>
      </trkpt>
      <trkpt lat="44.44389" lon="5.55464">
        <ele>829.5</ele>
        <time>2021-09-07T12:51:28Z</time>
      </trkpt>
      <trkpt lat="44.44387" lon="5.55467">
        <ele>829.6</ele>
        <time>2021-09-07T12:51:29Z</time>
      </trkpt>
      <trkpt lat="44.44386" lon="5.55471">
        <ele>829.7</ele>
        <time>2021-09-07T12:51:30Z</time>
      </trkpt>
      <trkpt lat="44.44385" lon="5.55475">
        <ele>829.9</ele>
        <time>2021-09-07T12:51:31Z</time>
      </trkpt>
      <trkpt lat="44.44384" lon="5.55479">
        <ele>830</ele>
        <time>2021-09-07T12:51:32Z</time>
      </trkpt>
      <trkpt lat="44.44383" lon="5.55484">
        <ele>830.2</ele>
        <time>2021-09-07T12:51:33Z</time>
      </trkpt>
      <trkpt lat="44.44382" lon="5.55488">
        <ele>830.4</ele>
        <time>2021-09-07T12:51:34Z</time>
      </trkpt>
      <trkpt lat="44.44382" lon="5.55492">
        <ele>830.6</ele>
        <time>2021-09-07T12:51:35Z</time>
      </trkpt>
      <trkpt lat="44.4438" lon="5.55496">
        <ele>830.8</ele>
        <time>2021-09-07T12:51:36Z</time>
      </trkpt>
      <trkpt lat="44.4438" lon="5.55501">
        <ele>831</ele>
        <time>2021-09-07T12:51:37Z</time>
      </trkpt>
      <trkpt lat="44.4438" lon="5.55506">
        <ele>831.2</ele>
        <time>2021-09-07T12:51:38Z</time>
      </trkpt>
      <trkpt lat="44.44379" lon="5.5551">
        <ele>831.4</ele>
        <time>2021-09-07T12:51:39Z</time>
      </trkpt>
      <trkpt lat="44.44379" lon="5.55515">
        <ele>831.7</ele>
        <time>2021-09-07T12:51:40Z</time>
      </trkpt>
      <trkpt lat="44.44379" lon="5.55522">
        <ele>832</ele>
        <time>2021-09-07T12:51:41Z</time>
      </trkpt>
      <trkpt lat="44.4438" lon="5.55525">
        <ele>832.1</ele>
        <time>2021-09-07T12:51:42Z</time>
      </trkpt>
      <trkpt lat="44.44381" lon="5.55527">
        <ele>832.2</ele>
        <time>2021-09-07T12:51:43Z</time>
      </trkpt>
      <trkpt lat="44.44383" lon="5.55529">
        <ele>832.3</ele>
        <time>2021-09-07T12:51:44Z</time>
      </trkpt>
      <trkpt lat="44.44384" lon="5.55532">
        <ele>832.5</ele>
        <time>2021-09-07T12:51:45Z</time>
      </trkpt>
      <trkpt lat="44.44387" lon="5.55537">
        <ele>832.7</ele>
        <time>2021-09-07T12:51:46Z</time>
      </trkpt>
      <trkpt lat="44.44389" lon="5.55539">
        <ele>832.8</ele>
        <time>2021-09-07T12:51:47Z</time>
      </trkpt>
      <trkpt lat="44.4439" lon="5.55541">
        <ele>832.9</ele>
        <time>2021-09-07T12:51:48Z</time>
      </trkpt>
      <trkpt lat="44.44392" lon="5.55545">
        <ele>833.1</ele>
        <time>2021-09-07T12:51:49Z</time>
      </trkpt>
      <trkpt lat="44.44394" lon="5.55549">
        <ele>833.3</ele>
        <time>2021-09-07T12:51:50Z</time>
      </trkpt>
      <trkpt lat="44.44395" lon="5.55553">
        <ele>833.5</ele>
        <time>2021-09-07T12:51:51Z</time>
      </trkpt>
      <trkpt lat="44.44398" lon="5.55557">
        <ele>833.7</ele>
        <time>2021-09-07T12:51:52Z</time>
      </trkpt>
      <trkpt lat="44.444" lon="5.55562">
        <ele>833.9</ele>
        <time>2021-09-07T12:51:53Z</time>
      </trkpt>
      <trkpt lat="44.44401" lon="5.55566">
        <ele>834.1</ele>
        <time>2021-09-07T12:51:54Z</time>
      </trkpt>
      <trkpt lat="44.44402" lon="5.55569">
        <ele>834.2</ele>
        <time>2021-09-07T12:51:55Z</time>
      </trkpt>
      <trkpt lat="44.44403" lon="5.55577">
        <ele>834.6</ele>
        <time>2021-09-07T12:51:56Z</time>
      </trkpt>
      <trkpt lat="44.44403" lon="5.5558">
        <ele>834.8</ele>
        <time>2021-09-07T12:51:57Z</time>
      </trkpt>
      <trkpt lat="44.44402" lon="5.55583">
        <ele>834.9</ele>
        <time>2021-09-07T12:51:58Z</time>
      </trkpt>
      <trkpt lat="44.44401" lon="5.55588">
        <ele>835.2</ele>
        <time>2021-09-07T12:51:59Z</time>
      </trkpt>
      <trkpt lat="44.44401" lon="5.55592">
        <ele>835.4</ele>
        <time>2021-09-07T12:52:00Z</time>
      </trkpt>
      <trkpt lat="44.444" lon="5.556">
        <ele>835.8</ele>
        <time>2021-09-07T12:52:01Z</time>
      </trkpt>
      <trkpt lat="44.444" lon="5.55604">
        <ele>836</ele>
        <time>2021-09-07T12:52:02Z</time>
      </trkpt>
      <trkpt lat="44.44399" lon="5.55607">
        <ele>836.2</ele>
        <time>2021-09-07T12:52:03Z</time>
      </trkpt>
      <trkpt lat="44.44398" lon="5.55611">
        <ele>836.4</ele>
        <time>2021-09-07T12:52:04Z</time>
      </trkpt>
      <trkpt lat="44.44397" lon="5.55614">
        <ele>836.6</ele>
        <time>2021-09-07T12:52:05Z</time>
      </trkpt>
      <trkpt lat="44.44396" lon="5.55619">
        <ele>837</ele>
        <time>2021-09-07T12:52:06Z</time>
      </trkpt>
      <trkpt lat="44.44396" lon="5.55623">
        <ele>837.1</ele>
        <time>2021-09-07T12:52:07Z</time>
      </trkpt>
      <trkpt lat="44.44396" lon="5.55627">
        <ele>837.1</ele>
        <time>2021-09-07T12:52:08Z</time>
      </trkpt>
      <trkpt lat="44.44395" lon="5.55631">
        <ele>837.1</ele>
        <time>2021-09-07T12:52:09Z</time>
      </trkpt>
      <trkpt lat="44.44395" lon="5.55635">
        <ele>837.1</ele>
        <time>2021-09-07T12:52:10Z</time>
      </trkpt>
      <trkpt lat="44.44395" lon="5.55639">
        <ele>837.2</ele>
        <time>2021-09-07T12:52:11Z</time>
      </trkpt>
      <trkpt lat="44.44394" lon="5.55642">
        <ele>837.2</ele>
        <time>2021-09-07T12:52:12Z</time>
      </trkpt>
      <trkpt lat="44.44394" lon="5.55646">
        <ele>837.3</ele>
        <time>2021-09-07T12:52:13Z</time>
      </trkpt>
      <trkpt lat="44.44393" lon="5.5565">
        <ele>837.4</ele>
        <time>2021-09-07T12:52:14Z</time>
      </trkpt>
      <trkpt lat="44.44393" lon="5.55654">
        <ele>837.5</ele>
        <time>2021-09-07T12:52:15Z</time>
      </trkpt>
      <trkpt lat="44.44392" lon="5.55657">
        <ele>837.6</ele>
        <time>2021-09-07T12:52:16Z</time>
      </trkpt>
      <trkpt lat="44.44391" lon="5.55663">
        <ele>837.7</ele>
        <time>2021-09-07T12:52:17Z</time>
      </trkpt>
      <trkpt lat="44.4439" lon="5.55666">
        <ele>837.8</ele>
        <time>2021-09-07T12:52:18Z</time>
      </trkpt>
      <trkpt lat="44.44389" lon="5.55668">
        <ele>837.9</ele>
        <time>2021-09-07T12:52:19Z</time>
      </trkpt>
      <trkpt lat="44.44388" lon="5.55671">
        <ele>838</ele>
        <time>2021-09-07T12:52:20Z</time>
      </trkpt>
      <trkpt lat="44.44385" lon="5.55676">
        <ele>838.2</ele>
        <time>2021-09-07T12:52:21Z</time>
      </trkpt>
      <trkpt lat="44.44385" lon="5.55678">
        <ele>838.2</ele>
        <time>2021-09-07T12:52:22Z</time>
      </trkpt>
      <trkpt lat="44.44384" lon="5.5568">
        <ele>838.3</ele>
        <time>2021-09-07T12:52:23Z</time>
      </trkpt>
      <trkpt lat="44.44382" lon="5.55684">
        <ele>838.4</ele>
        <time>2021-09-07T12:52:24Z</time>
      </trkpt>
      <trkpt lat="44.44381" lon="5.55688">
        <ele>838.5</ele>
        <time>2021-09-07T12:52:25Z</time>
      </trkpt>
      <trkpt lat="44.4438" lon="5.55691">
        <ele>838.6</ele>
        <time>2021-09-07T12:52:26Z</time>
      </trkpt>
      <trkpt lat="44.44379" lon="5.55694">
        <ele>838.7</ele>
        <time>2021-09-07T12:52:27Z</time>
      </trkpt>
      <trkpt lat="44.44377" lon="5.55698">
        <ele>838.8</ele>
        <time>2021-09-07T12:52:28Z</time>
      </trkpt>
      <trkpt lat="44.44376" lon="5.55702">
        <ele>838.9</ele>
        <time>2021-09-07T12:52:29Z</time>
      </trkpt>
      <trkpt lat="44.44375" lon="5.55704">
        <ele>839</ele>
        <time>2021-09-07T12:52:30Z</time>
      </trkpt>
      <trkpt lat="44.44374" lon="5.55706">
        <ele>839.1</ele>
        <time>2021-09-07T12:52:31Z</time>
      </trkpt>
      <trkpt lat="44.44373" lon="5.5571">
        <ele>839.2</ele>
        <time>2021-09-07T12:52:32Z</time>
      </trkpt>
      <trkpt lat="44.44372" lon="5.55713">
        <ele>839.3</ele>
        <time>2021-09-07T12:52:33Z</time>
      </trkpt>
      <trkpt lat="44.4437" lon="5.55718">
        <ele>839.5</ele>
        <time>2021-09-07T12:52:34Z</time>
      </trkpt>
      <trkpt lat="44.4437" lon="5.55721">
        <ele>839.6</ele>
        <time>2021-09-07T12:52:35Z</time>
      </trkpt>
      <trkpt lat="44.44369" lon="5.55724">
        <ele>839.7</ele>
        <time>2021-09-07T12:52:36Z</time>
      </trkpt>
      <trkpt lat="44.44367" lon="5.55729">
        <ele>839.9</ele>
        <time>2021-09-07T12:52:37Z</time>
      </trkpt>
      <trkpt lat="44.44367" lon="5.55731">
        <ele>840</ele>
        <time>2021-09-07T12:52:38Z</time>
      </trkpt>
      <trkpt lat="44.44366" lon="5.55733">
        <ele>840.1</ele>
        <time>2021-09-07T12:52:39Z</time>
      </trkpt>
      <trkpt lat="44.44364" lon="5.55737">
        <ele>840.3</ele>
        <time>2021-09-07T12:52:40Z</time>
      </trkpt>
      <trkpt lat="44.44363" lon="5.5574">
        <ele>840.4</ele>
        <time>2021-09-07T12:52:41Z</time>
      </trkpt>
      <trkpt lat="44.44362" lon="5.55743">
        <ele>840.5</ele>
        <time>2021-09-07T12:52:42Z</time>
      </trkpt>
      <trkpt lat="44.4436" lon="5.55748">
        <ele>840.7</ele>
        <time>2021-09-07T12:52:43Z</time>
      </trkpt>
      <trkpt lat="44.4436" lon="5.5575">
        <ele>840.8</ele>
        <time>2021-09-07T12:52:44Z</time>
      </trkpt>
      <trkpt lat="44.44359" lon="5.55752">
        <ele>840.8</ele>
        <time>2021-09-07T12:52:45Z</time>
      </trkpt>
      <trkpt lat="44.44358" lon="5.55757">
        <ele>841</ele>
        <time>2021-09-07T12:52:46Z</time>
      </trkpt>
      <trkpt lat="44.44358" lon="5.5576">
        <ele>841.1</ele>
        <time>2021-09-07T12:52:47Z</time>
      </trkpt>
      <trkpt lat="44.44357" lon="5.55762">
        <ele>841.2</ele>
        <time>2021-09-07T12:52:48Z</time>
      </trkpt>
      <trkpt lat="44.44356" lon="5.55767">
        <ele>841.3</ele>
        <time>2021-09-07T12:52:49Z</time>
      </trkpt>
      <trkpt lat="44.44356" lon="5.5577">
        <ele>841.4</ele>
        <time>2021-09-07T12:52:50Z</time>
      </trkpt>
      <trkpt lat="44.44356" lon="5.55773">
        <ele>841.5</ele>
        <time>2021-09-07T12:52:51Z</time>
      </trkpt>
      <trkpt lat="44.44356" lon="5.55778">
        <ele>841.7</ele>
        <time>2021-09-07T12:52:52Z</time>
      </trkpt>
      <trkpt lat="44.44357" lon="5.55781">
        <ele>841.8</ele>
        <time>2021-09-07T12:52:53Z</time>
      </trkpt>
      <trkpt lat="44.44357" lon="5.55784">
        <ele>841.9</ele>
        <time>2021-09-07T12:52:54Z</time>
      </trkpt>
      <trkpt lat="44.44357" lon="5.55788">
        <ele>842</ele>
        <time>2021-09-07T12:52:55Z</time>
      </trkpt>
      <trkpt lat="44.44357" lon="5.55795">
        <ele>842.3</ele>
        <time>2021-09-07T12:52:56Z</time>
      </trkpt>
      <trkpt lat="44.44358" lon="5.55799">
        <ele>842.4</ele>
        <time>2021-09-07T12:52:57Z</time>
      </trkpt>
      <trkpt lat="44.44358" lon="5.55802">
        <ele>842.5</ele>
        <time>2021-09-07T12:52:58Z</time>
      </trkpt>
      <trkpt lat="44.44359" lon="5.55804">
        <ele>842.6</ele>
        <time>2021-09-07T12:52:59Z</time>
      </trkpt>
      <trkpt lat="44.44359" lon="5.55806">
        <ele>842.6</ele>
        <time>2021-09-07T12:53:00Z</time>
      </trkpt>
      <trkpt lat="44.4436" lon="5.55811">
        <ele>842.8</ele>
        <time>2021-09-07T12:53:01Z</time>
      </trkpt>
      <trkpt lat="44.44361" lon="5.55814">
        <ele>842.9</ele>
        <time>2021-09-07T12:53:02Z</time>
      </trkpt>
      <trkpt lat="44.44361" lon="5.55817">
        <ele>843</ele>
        <time>2021-09-07T12:53:03Z</time>
      </trkpt>
      <trkpt lat="44.44362" lon="5.5582">
        <ele>843.2</ele>
        <time>2021-09-07T12:53:04Z</time>
      </trkpt>
      <trkpt lat="44.44362" lon="5.55823">
        <ele>843.3</ele>
        <time>2021-09-07T12:53:05Z</time>
      </trkpt>
      <trkpt lat="44.44363" lon="5.55826">
        <ele>843.4</ele>
        <time>2021-09-07T12:53:06Z</time>
      </trkpt>
      <trkpt lat="44.44363" lon="5.55829">
        <ele>843.5</ele>
        <time>2021-09-07T12:53:07Z</time>
      </trkpt>
      <trkpt lat="44.44363" lon="5.55833">
        <ele>843.6</ele>
        <time>2021-09-07T12:53:08Z</time>
      </trkpt>
      <trkpt lat="44.44362" lon="5.55837">
        <ele>843.8</ele>
        <time>2021-09-07T12:53:09Z</time>
      </trkpt>
      <trkpt lat="44.44362" lon="5.55843">
        <ele>844</ele>
        <time>2021-09-07T12:53:10Z</time>
      </trkpt>
      <trkpt lat="44.44362" lon="5.55846">
        <ele>844.1</ele>
        <time>2021-09-07T12:53:11Z</time>
      </trkpt>
      <trkpt lat="44.44362" lon="5.55848">
        <ele>844.2</ele>
        <time>2021-09-07T12:53:12Z</time>
      </trkpt>
      <trkpt lat="44.44362" lon="5.55851">
        <ele>844.3</ele>
        <time>2021-09-07T12:53:13Z</time>
      </trkpt>
      <trkpt lat="44.44362" lon="5.55855">
        <ele>844.4</ele>
        <time>2021-09-07T12:53:14Z</time>
      </trkpt>
      <trkpt lat="44.44361" lon="5.55858">
        <ele>844.5</ele>
        <time>2021-09-07T12:53:15Z</time>
      </trkpt>
      <trkpt lat="44.4436" lon="5.55861">
        <ele>844.6</ele>
        <time>2021-09-07T12:53:16Z</time>
      </trkpt>
      <trkpt lat="44.44359" lon="5.55863">
        <ele>844.7</ele>
        <time>2021-09-07T12:53:17Z</time>
      </trkpt>
      <trkpt lat="44.44358" lon="5.55864">
        <ele>844.9</ele>
        <time>2021-09-07T12:53:18Z</time>
      </trkpt>
      <trkpt lat="44.44357" lon="5.55866">
        <ele>845</ele>
        <time>2021-09-07T12:53:19Z</time>
      </trkpt>
      <trkpt lat="44.44356" lon="5.55867">
        <ele>845.1</ele>
        <time>2021-09-07T12:53:20Z</time>
      </trkpt>
      <trkpt lat="44.44354" lon="5.55869">
        <ele>845.3</ele>
        <time>2021-09-07T12:53:21Z</time>
      </trkpt>
      <trkpt lat="44.44353" lon="5.55871">
        <ele>845.4</ele>
        <time>2021-09-07T12:53:22Z</time>
      </trkpt>
      <trkpt lat="44.44352" lon="5.55872">
        <ele>845.5</ele>
        <time>2021-09-07T12:53:23Z</time>
      </trkpt>
      <trkpt lat="44.44351" lon="5.55873">
        <ele>845.6</ele>
        <time>2021-09-07T12:53:24Z</time>
      </trkpt>
      <trkpt lat="44.4435" lon="5.55874">
        <ele>845.7</ele>
        <time>2021-09-07T12:53:25Z</time>
      </trkpt>
      <trkpt lat="44.44349" lon="5.55875">
        <ele>845.7</ele>
        <time>2021-09-07T12:53:26Z</time>
      </trkpt>
      <trkpt lat="44.44347" lon="5.55877">
        <ele>845.9</ele>
        <time>2021-09-07T12:53:27Z</time>
      </trkpt>
      <trkpt lat="44.44346" lon="5.55878">
        <ele>846</ele>
        <time>2021-09-07T12:53:28Z</time>
      </trkpt>
      <trkpt lat="44.44344" lon="5.55878">
        <ele>846.1</ele>
        <time>2021-09-07T12:53:29Z</time>
      </trkpt>
      <trkpt lat="44.44343" lon="5.55879">
        <ele>846.2</ele>
        <time>2021-09-07T12:53:30Z</time>
      </trkpt>
      <trkpt lat="44.44341" lon="5.55879">
        <ele>846.3</ele>
        <time>2021-09-07T12:53:31Z</time>
      </trkpt>
      <trkpt lat="44.44339" lon="5.55878">
        <ele>846.5</ele>
        <time>2021-09-07T12:53:32Z</time>
      </trkpt>
      <trkpt lat="44.44338" lon="5.55877">
        <ele>846.7</ele>
        <time>2021-09-07T12:53:33Z</time>
      </trkpt>
      <trkpt lat="44.44336" lon="5.55875">
        <ele>846.7</ele>
        <time>2021-09-07T12:53:34Z</time>
      </trkpt>
      <trkpt lat="44.44335" lon="5.55874">
        <ele>846.8</ele>
        <time>2021-09-07T12:53:35Z</time>
      </trkpt>
      <trkpt lat="44.44334" lon="5.55872">
        <ele>846.8</ele>
        <time>2021-09-07T12:53:36Z</time>
      </trkpt>
      <trkpt lat="44.44332" lon="5.55869">
        <ele>846.9</ele>
        <time>2021-09-07T12:53:37Z</time>
      </trkpt>
      <trkpt lat="44.44331" lon="5.55865">
        <ele>846.9</ele>
        <time>2021-09-07T12:53:38Z</time>
      </trkpt>
      <trkpt lat="44.4433" lon="5.55862">
        <ele>847</ele>
        <time>2021-09-07T12:53:39Z</time>
      </trkpt>
      <trkpt lat="44.4433" lon="5.5586">
        <ele>847</ele>
        <time>2021-09-07T12:53:40Z</time>
      </trkpt>
      <trkpt lat="44.44329" lon="5.55858">
        <ele>847</ele>
        <time>2021-09-07T12:53:41Z</time>
      </trkpt>
      <trkpt lat="44.44329" lon="5.55853">
        <ele>847.1</ele>
        <time>2021-09-07T12:53:42Z</time>
      </trkpt>
      <trkpt lat="44.44329" lon="5.5585">
        <ele>847.1</ele>
        <time>2021-09-07T12:53:43Z</time>
      </trkpt>
      <trkpt lat="44.44328" lon="5.55847">
        <ele>847.2</ele>
        <time>2021-09-07T12:53:44Z</time>
      </trkpt>
      <trkpt lat="44.44329" lon="5.55841">
        <ele>847.3</ele>
        <time>2021-09-07T12:53:45Z</time>
      </trkpt>
      <trkpt lat="44.44329" lon="5.5584">
        <ele>847.3</ele>
        <time>2021-09-07T12:53:46Z</time>
      </trkpt>
      <trkpt lat="44.44329" lon="5.55838">
        <ele>847.3</ele>
        <time>2021-09-07T12:53:47Z</time>
      </trkpt>
      <trkpt lat="44.4433" lon="5.55835">
        <ele>847.4</ele>
        <time>2021-09-07T12:53:48Z</time>
      </trkpt>
      <trkpt lat="44.4433" lon="5.5583">
        <ele>847.5</ele>
        <time>2021-09-07T12:53:49Z</time>
      </trkpt>
      <trkpt lat="44.44331" lon="5.55826">
        <ele>847.6</ele>
        <time>2021-09-07T12:53:50Z</time>
      </trkpt>
      <trkpt lat="44.44331" lon="5.55824">
        <ele>847.7</ele>
        <time>2021-09-07T12:53:51Z</time>
      </trkpt>
      <trkpt lat="44.44331" lon="5.55822">
        <ele>847.7</ele>
        <time>2021-09-07T12:53:52Z</time>
      </trkpt>
      <trkpt lat="44.44331" lon="5.55819">
        <ele>847.8</ele>
        <time>2021-09-07T12:53:53Z</time>
      </trkpt>
      <trkpt lat="44.44331" lon="5.55815">
        <ele>847.9</ele>
        <time>2021-09-07T12:53:54Z</time>
      </trkpt>
      <trkpt lat="44.44332" lon="5.55812">
        <ele>847.9</ele>
        <time>2021-09-07T12:53:55Z</time>
      </trkpt>
      <trkpt lat="44.44332" lon="5.55809">
        <ele>848</ele>
        <time>2021-09-07T12:53:56Z</time>
      </trkpt>
      <trkpt lat="44.44333" lon="5.55803">
        <ele>848.2</ele>
        <time>2021-09-07T12:53:57Z</time>
      </trkpt>
      <trkpt lat="44.44333" lon="5.55802">
        <ele>848.2</ele>
        <time>2021-09-07T12:53:58Z</time>
      </trkpt>
      <trkpt lat="44.44333" lon="5.558">
        <ele>848.3</ele>
        <time>2021-09-07T12:53:59Z</time>
      </trkpt>
      <trkpt lat="44.44334" lon="5.55794">
        <ele>848.4</ele>
        <time>2021-09-07T12:54:00Z</time>
      </trkpt>
      <trkpt lat="44.44334" lon="5.55793">
        <ele>848.5</ele>
        <time>2021-09-07T12:54:01Z</time>
      </trkpt>
      <trkpt lat="44.44333" lon="5.55791">
        <ele>848.5</ele>
        <time>2021-09-07T12:54:02Z</time>
      </trkpt>
      <trkpt lat="44.44333" lon="5.55788">
        <ele>848.6</ele>
        <time>2021-09-07T12:54:03Z</time>
      </trkpt>
      <trkpt lat="44.44333" lon="5.55783">
        <ele>848.7</ele>
        <time>2021-09-07T12:54:04Z</time>
      </trkpt>
      <trkpt lat="44.44333" lon="5.55781">
        <ele>848.8</ele>
        <time>2021-09-07T12:54:05Z</time>
      </trkpt>
      <trkpt lat="44.44332" lon="5.55779">
        <ele>848.8</ele>
        <time>2021-09-07T12:54:06Z</time>
      </trkpt>
      <trkpt lat="44.44331" lon="5.55776">
        <ele>848.9</ele>
        <time>2021-09-07T12:54:07Z</time>
      </trkpt>
      <trkpt lat="44.4433" lon="5.55773">
        <ele>849</ele>
        <time>2021-09-07T12:54:08Z</time>
      </trkpt>
      <trkpt lat="44.44328" lon="5.5577">
        <ele>849.2</ele>
        <time>2021-09-07T12:54:09Z</time>
      </trkpt>
      <trkpt lat="44.44327" lon="5.55766">
        <ele>849.3</ele>
        <time>2021-09-07T12:54:10Z</time>
      </trkpt>
      <trkpt lat="44.44327" lon="5.55765">
        <ele>849.4</ele>
        <time>2021-09-07T12:54:11Z</time>
      </trkpt>
      <trkpt lat="44.44326" lon="5.55763">
        <ele>849.5</ele>
        <time>2021-09-07T12:54:12Z</time>
      </trkpt>
      <trkpt lat="44.44325" lon="5.5576">
        <ele>849.6</ele>
        <time>2021-09-07T12:54:13Z</time>
      </trkpt>
      <trkpt lat="44.44325" lon="5.55759">
        <ele>849.7</ele>
        <time>2021-09-07T12:54:14Z</time>
      </trkpt>
      <trkpt lat="44.44324" lon="5.55757">
        <ele>849.7</ele>
        <time>2021-09-07T12:54:15Z</time>
      </trkpt>
      <trkpt lat="44.44322" lon="5.55755">
        <ele>849.8</ele>
        <time>2021-09-07T12:54:16Z</time>
      </trkpt>
      <trkpt lat="44.44321" lon="5.55753">
        <ele>849.9</ele>
        <time>2021-09-07T12:54:17Z</time>
      </trkpt>
      <trkpt lat="44.4432" lon="5.5575">
        <ele>850.1</ele>
        <time>2021-09-07T12:54:18Z</time>
      </trkpt>
      <trkpt lat="44.4432" lon="5.55749">
        <ele>850.1</ele>
        <time>2021-09-07T12:54:19Z</time>
      </trkpt>
      <trkpt lat="44.44319" lon="5.55747">
        <ele>850.2</ele>
        <time>2021-09-07T12:54:20Z</time>
      </trkpt>
      <trkpt lat="44.44318" lon="5.55744">
        <ele>850.3</ele>
        <time>2021-09-07T12:54:21Z</time>
      </trkpt>
      <trkpt lat="44.44318" lon="5.55743">
        <ele>850.4</ele>
        <time>2021-09-07T12:54:22Z</time>
      </trkpt>
      <trkpt lat="44.44317" lon="5.55741">
        <ele>850.4</ele>
        <time>2021-09-07T12:54:23Z</time>
      </trkpt>
      <trkpt lat="44.44316" lon="5.55738">
        <ele>850.5</ele>
        <time>2021-09-07T12:54:24Z</time>
      </trkpt>
      <trkpt lat="44.44315" lon="5.55736">
        <ele>850.6</ele>
        <time>2021-09-07T12:54:25Z</time>
      </trkpt>
      <trkpt lat="44.44314" lon="5.55734">
        <ele>850.7</ele>
        <time>2021-09-07T12:54:26Z</time>
      </trkpt>
      <trkpt lat="44.44313" lon="5.55732">
        <ele>850.8</ele>
        <time>2021-09-07T12:54:27Z</time>
      </trkpt>
      <trkpt lat="44.4431" lon="5.55729">
        <ele>851</ele>
        <time>2021-09-07T12:54:28Z</time>
      </trkpt>
      <trkpt lat="44.4431" lon="5.55728">
        <ele>851</ele>
        <time>2021-09-07T12:54:29Z</time>
      </trkpt>
      <trkpt lat="44.44309" lon="5.55727">
        <ele>851</ele>
        <time>2021-09-07T12:54:30Z</time>
      </trkpt>
      <trkpt lat="44.44307" lon="5.55725">
        <ele>851.1</ele>
        <time>2021-09-07T12:54:31Z</time>
      </trkpt>
      <trkpt lat="44.44306" lon="5.55724">
        <ele>851.2</ele>
        <time>2021-09-07T12:54:32Z</time>
      </trkpt>
      <trkpt lat="44.44305" lon="5.55723">
        <ele>851.2</ele>
        <time>2021-09-07T12:54:33Z</time>
      </trkpt>
      <trkpt lat="44.44303" lon="5.55722">
        <ele>851.3</ele>
        <time>2021-09-07T12:54:34Z</time>
      </trkpt>
      <trkpt lat="44.44302" lon="5.55722">
        <ele>851.3</ele>
        <time>2021-09-07T12:54:35Z</time>
      </trkpt>
      <trkpt lat="44.44301" lon="5.55721">
        <ele>851.4</ele>
        <time>2021-09-07T12:54:36Z</time>
      </trkpt>
      <trkpt lat="44.443" lon="5.5572">
        <ele>851.4</ele>
        <time>2021-09-07T12:54:37Z</time>
      </trkpt>
      <trkpt lat="44.44299" lon="5.55719">
        <ele>851.5</ele>
        <time>2021-09-07T12:54:38Z</time>
      </trkpt>
      <trkpt lat="44.44298" lon="5.55718">
        <ele>851.5</ele>
        <time>2021-09-07T12:54:39Z</time>
      </trkpt>
      <trkpt lat="44.44297" lon="5.55717">
        <ele>851.5</ele>
        <time>2021-09-07T12:54:40Z</time>
      </trkpt>
      <trkpt lat="44.44296" lon="5.55716">
        <ele>851.6</ele>
        <time>2021-09-07T12:54:41Z</time>
      </trkpt>
      <trkpt lat="44.44294" lon="5.55715">
        <ele>851.6</ele>
        <time>2021-09-07T12:54:42Z</time>
      </trkpt>
      <trkpt lat="44.44293" lon="5.55715">
        <ele>851.7</ele>
        <time>2021-09-07T12:54:43Z</time>
      </trkpt>
      <trkpt lat="44.44292" lon="5.55715">
        <ele>851.7</ele>
        <time>2021-09-07T12:54:44Z</time>
      </trkpt>
      <trkpt lat="44.44291" lon="5.55715">
        <ele>851.7</ele>
        <time>2021-09-07T12:54:45Z</time>
      </trkpt>
      <trkpt lat="44.4429" lon="5.55715">
        <ele>851.8</ele>
        <time>2021-09-07T12:54:46Z</time>
      </trkpt>
      <trkpt lat="44.44289" lon="5.55715">
        <ele>851.8</ele>
        <time>2021-09-07T12:54:47Z</time>
      </trkpt>
      <trkpt lat="44.44288" lon="5.55715">
        <ele>851.8</ele>
        <time>2021-09-07T12:54:48Z</time>
      </trkpt>
      <trkpt lat="44.44286" lon="5.55715">
        <ele>851.9</ele>
        <time>2021-09-07T12:54:49Z</time>
      </trkpt>
      <trkpt lat="44.44285" lon="5.55715">
        <ele>851.9</ele>
        <time>2021-09-07T12:54:50Z</time>
      </trkpt>
      <trkpt lat="44.44284" lon="5.55715">
        <ele>851.9</ele>
        <time>2021-09-07T12:54:51Z</time>
      </trkpt>
      <trkpt lat="44.44282" lon="5.55715">
        <ele>852</ele>
        <time>2021-09-07T12:54:52Z</time>
      </trkpt>
      <trkpt lat="44.44281" lon="5.55716">
        <ele>852</ele>
        <time>2021-09-07T12:54:53Z</time>
      </trkpt>
      <trkpt lat="44.44279" lon="5.55716">
        <ele>852.1</ele>
        <time>2021-09-07T12:54:54Z</time>
      </trkpt>
      <trkpt lat="44.44277" lon="5.55716">
        <ele>852.1</ele>
        <time>2021-09-07T12:54:55Z</time>
      </trkpt>
      <trkpt lat="44.44275" lon="5.55717">
        <ele>852.2</ele>
        <time>2021-09-07T12:54:56Z</time>
      </trkpt>
      <trkpt lat="44.44272" lon="5.55718">
        <ele>852.3</ele>
        <time>2021-09-07T12:54:57Z</time>
      </trkpt>
      <trkpt lat="44.4427" lon="5.55719">
        <ele>852.3</ele>
        <time>2021-09-07T12:54:58Z</time>
      </trkpt>
      <trkpt lat="44.44269" lon="5.5572">
        <ele>852.4</ele>
        <time>2021-09-07T12:54:59Z</time>
      </trkpt>
      <trkpt lat="44.44268" lon="5.5572">
        <ele>852.4</ele>
        <time>2021-09-07T12:55:00Z</time>
      </trkpt>
      <trkpt lat="44.44268" lon="5.5572">
        <ele>852.4</ele>
        <time>2021-09-07T12:55:01Z</time>
      </trkpt>
      <trkpt lat="44.44268" lon="5.5572">
        <ele>852.4</ele>
        <time>2021-09-07T12:55:02Z</time>
      </trkpt>
      <trkpt lat="44.44268" lon="5.5572">
        <ele>852.4</ele>
        <time>2021-09-07T12:55:03Z</time>
      </trkpt>
      <trkpt lat="44.44267" lon="5.5572">
        <ele>852.5</ele>
        <time>2021-09-07T12:55:04Z</time>
      </trkpt>
      <trkpt lat="44.44267" lon="5.5572">
        <ele>852.5</ele>
        <time>2021-09-07T12:55:05Z</time>
      </trkpt>
      <trkpt lat="44.44266" lon="5.5572">
        <ele>852.5</ele>
        <time>2021-09-07T12:55:06Z</time>
      </trkpt>
      <trkpt lat="44.44266" lon="5.55721">
        <ele>852.5</ele>
        <time>2021-09-07T12:55:07Z</time>
      </trkpt>
      <trkpt lat="44.44265" lon="5.55721">
        <ele>852.5</ele>
        <time>2021-09-07T12:55:08Z</time>
      </trkpt>
      <trkpt lat="44.44263" lon="5.55721">
        <ele>852.6</ele>
        <time>2021-09-07T12:55:09Z</time>
      </trkpt>
      <trkpt lat="44.44262" lon="5.55721">
        <ele>852.7</ele>
        <time>2021-09-07T12:55:10Z</time>
      </trkpt>
      <trkpt lat="44.44261" lon="5.55721">
        <ele>852.7</ele>
        <time>2021-09-07T12:55:11Z</time>
      </trkpt>
      <trkpt lat="44.4426" lon="5.55722">
        <ele>852.8</ele>
        <time>2021-09-07T12:55:12Z</time>
      </trkpt>
      <trkpt lat="44.44258" lon="5.55723">
        <ele>852.9</ele>
        <time>2021-09-07T12:55:13Z</time>
      </trkpt>
      <trkpt lat="44.44257" lon="5.55724">
        <ele>853</ele>
        <time>2021-09-07T12:55:14Z</time>
      </trkpt>
      <trkpt lat="44.44255" lon="5.55725">
        <ele>853.1</ele>
        <time>2021-09-07T12:55:15Z</time>
      </trkpt>
      <trkpt lat="44.44251" lon="5.55727">
        <ele>853.3</ele>
        <time>2021-09-07T12:55:16Z</time>
      </trkpt>
      <trkpt lat="44.44249" lon="5.5573">
        <ele>853.4</ele>
        <time>2021-09-07T12:55:17Z</time>
      </trkpt>
      <trkpt lat="44.44248" lon="5.55732">
        <ele>853.5</ele>
        <time>2021-09-07T12:55:18Z</time>
      </trkpt>
      <trkpt lat="44.44246" lon="5.55733">
        <ele>853.6</ele>
        <time>2021-09-07T12:55:19Z</time>
      </trkpt>
      <trkpt lat="44.44244" lon="5.55736">
        <ele>853.8</ele>
        <time>2021-09-07T12:55:20Z</time>
      </trkpt>
      <trkpt lat="44.44242" lon="5.55738">
        <ele>853.9</ele>
        <time>2021-09-07T12:55:21Z</time>
      </trkpt>
      <trkpt lat="44.44239" lon="5.55742">
        <ele>854.1</ele>
        <time>2021-09-07T12:55:22Z</time>
      </trkpt>
      <trkpt lat="44.44238" lon="5.55744">
        <ele>854.1</ele>
        <time>2021-09-07T12:55:23Z</time>
      </trkpt>
      <trkpt lat="44.44236" lon="5.55745">
        <ele>854.2</ele>
        <time>2021-09-07T12:55:24Z</time>
      </trkpt>
      <trkpt lat="44.44234" lon="5.55746">
        <ele>854.3</ele>
        <time>2021-09-07T12:55:25Z</time>
      </trkpt>
      <trkpt lat="44.44233" lon="5.55747">
        <ele>854.4</ele>
        <time>2021-09-07T12:55:26Z</time>
      </trkpt>
      <trkpt lat="44.44232" lon="5.55748">
        <ele>854.4</ele>
        <time>2021-09-07T12:55:27Z</time>
      </trkpt>
      <trkpt lat="44.44231" lon="5.55749">
        <ele>854.5</ele>
        <time>2021-09-07T12:55:28Z</time>
      </trkpt>
      <trkpt lat="44.44228" lon="5.5575">
        <ele>854.6</ele>
        <time>2021-09-07T12:55:29Z</time>
      </trkpt>
      <trkpt lat="44.44226" lon="5.55752">
        <ele>854.7</ele>
        <time>2021-09-07T12:55:30Z</time>
      </trkpt>
      <trkpt lat="44.44225" lon="5.55753">
        <ele>854.7</ele>
        <time>2021-09-07T12:55:31Z</time>
      </trkpt>
      <trkpt lat="44.44224" lon="5.55753">
        <ele>854.8</ele>
        <time>2021-09-07T12:55:32Z</time>
      </trkpt>
      <trkpt lat="44.44222" lon="5.55754">
        <ele>854.8</ele>
        <time>2021-09-07T12:55:33Z</time>
      </trkpt>
      <trkpt lat="44.4422" lon="5.55755">
        <ele>854.9</ele>
        <time>2021-09-07T12:55:34Z</time>
      </trkpt>
      <trkpt lat="44.44219" lon="5.55756">
        <ele>854.9</ele>
        <time>2021-09-07T12:55:35Z</time>
      </trkpt>
      <trkpt lat="44.44218" lon="5.55756">
        <ele>855</ele>
        <time>2021-09-07T12:55:36Z</time>
      </trkpt>
      <trkpt lat="44.44214" lon="5.55758">
        <ele>855.1</ele>
        <time>2021-09-07T12:55:37Z</time>
      </trkpt>
      <trkpt lat="44.44213" lon="5.55759">
        <ele>855.1</ele>
        <time>2021-09-07T12:55:38Z</time>
      </trkpt>
      <trkpt lat="44.44211" lon="5.55759">
        <ele>855.2</ele>
        <time>2021-09-07T12:55:39Z</time>
      </trkpt>
      <trkpt lat="44.4421" lon="5.5576">
        <ele>855.2</ele>
        <time>2021-09-07T12:55:40Z</time>
      </trkpt>
      <trkpt lat="44.4421" lon="5.55761">
        <ele>855.2</ele>
        <time>2021-09-07T12:55:41Z</time>
      </trkpt>
      <trkpt lat="44.44209" lon="5.55761">
        <ele>855.3</ele>
        <time>2021-09-07T12:55:42Z</time>
      </trkpt>
      <trkpt lat="44.44208" lon="5.55761">
        <ele>855.3</ele>
        <time>2021-09-07T12:55:43Z</time>
      </trkpt>
      <trkpt lat="44.44206" lon="5.55762">
        <ele>855.4</ele>
        <time>2021-09-07T12:55:44Z</time>
      </trkpt>
      <trkpt lat="44.44205" lon="5.55762">
        <ele>855.4</ele>
        <time>2021-09-07T12:55:45Z</time>
      </trkpt>
      <trkpt lat="44.44204" lon="5.55762">
        <ele>855.4</ele>
        <time>2021-09-07T12:55:46Z</time>
      </trkpt>
      <trkpt lat="44.44203" lon="5.55762">
        <ele>855.5</ele>
        <time>2021-09-07T12:55:47Z</time>
      </trkpt>
      <trkpt lat="44.44201" lon="5.55763">
        <ele>855.5</ele>
        <time>2021-09-07T12:55:48Z</time>
      </trkpt>
      <trkpt lat="44.442" lon="5.55763">
        <ele>855.6</ele>
        <time>2021-09-07T12:55:49Z</time>
      </trkpt>
      <trkpt lat="44.44198" lon="5.55763">
        <ele>855.6</ele>
        <time>2021-09-07T12:55:50Z</time>
      </trkpt>
      <trkpt lat="44.44197" lon="5.55763">
        <ele>855.7</ele>
        <time>2021-09-07T12:55:51Z</time>
      </trkpt>
      <trkpt lat="44.44195" lon="5.55763">
        <ele>855.7</ele>
        <time>2021-09-07T12:55:52Z</time>
      </trkpt>
      <trkpt lat="44.44193" lon="5.55763">
        <ele>855.8</ele>
        <time>2021-09-07T12:55:53Z</time>
      </trkpt>
      <trkpt lat="44.44188" lon="5.55764">
        <ele>856</ele>
        <time>2021-09-07T12:55:54Z</time>
      </trkpt>
      <trkpt lat="44.44186" lon="5.55765">
        <ele>856.1</ele>
        <time>2021-09-07T12:55:55Z</time>
      </trkpt>
      <trkpt lat="44.44184" lon="5.55765">
        <ele>856.2</ele>
        <time>2021-09-07T12:55:56Z</time>
      </trkpt>
      <trkpt lat="44.44183" lon="5.55766">
        <ele>856.2</ele>
        <time>2021-09-07T12:55:57Z</time>
      </trkpt>
      <trkpt lat="44.44181" lon="5.55766">
        <ele>856.3</ele>
        <time>2021-09-07T12:55:58Z</time>
      </trkpt>
      <trkpt lat="44.44178" lon="5.55766">
        <ele>856.4</ele>
        <time>2021-09-07T12:55:59Z</time>
      </trkpt>
      <trkpt lat="44.44176" lon="5.55767">
        <ele>856.5</ele>
        <time>2021-09-07T12:56:00Z</time>
      </trkpt>
      <trkpt lat="44.44173" lon="5.55768">
        <ele>856.6</ele>
        <time>2021-09-07T12:56:01Z</time>
      </trkpt>
      <trkpt lat="44.44171" lon="5.55768">
        <ele>856.7</ele>
        <time>2021-09-07T12:56:02Z</time>
      </trkpt>
      <trkpt lat="44.44169" lon="5.55769">
        <ele>856.8</ele>
        <time>2021-09-07T12:56:03Z</time>
      </trkpt>
      <trkpt lat="44.44168" lon="5.5577">
        <ele>856.9</ele>
        <time>2021-09-07T12:56:04Z</time>
      </trkpt>
      <trkpt lat="44.44167" lon="5.5577">
        <ele>856.9</ele>
        <time>2021-09-07T12:56:05Z</time>
      </trkpt>
      <trkpt lat="44.44165" lon="5.55772">
        <ele>857</ele>
        <time>2021-09-07T12:56:06Z</time>
      </trkpt>
      <trkpt lat="44.44164" lon="5.55773">
        <ele>857.1</ele>
        <time>2021-09-07T12:56:07Z</time>
      </trkpt>
      <trkpt lat="44.44162" lon="5.55774">
        <ele>857.2</ele>
        <time>2021-09-07T12:56:08Z</time>
      </trkpt>
      <trkpt lat="44.44159" lon="5.55777">
        <ele>857.3</ele>
        <time>2021-09-07T12:56:09Z</time>
      </trkpt>
      <trkpt lat="44.44158" lon="5.55779">
        <ele>857.4</ele>
        <time>2021-09-07T12:56:10Z</time>
      </trkpt>
      <trkpt lat="44.44157" lon="5.5578">
        <ele>857.5</ele>
        <time>2021-09-07T12:56:11Z</time>
      </trkpt>
      <trkpt lat="44.44155" lon="5.55781">
        <ele>857.6</ele>
        <time>2021-09-07T12:56:12Z</time>
      </trkpt>
      <trkpt lat="44.44153" lon="5.55784">
        <ele>857.7</ele>
        <time>2021-09-07T12:56:13Z</time>
      </trkpt>
      <trkpt lat="44.44152" lon="5.55785">
        <ele>857.7</ele>
        <time>2021-09-07T12:56:14Z</time>
      </trkpt>
      <trkpt lat="44.44151" lon="5.55786">
        <ele>857.8</ele>
        <time>2021-09-07T12:56:15Z</time>
      </trkpt>
      <trkpt lat="44.44149" lon="5.55788">
        <ele>857.9</ele>
        <time>2021-09-07T12:56:16Z</time>
      </trkpt>
      <trkpt lat="44.44147" lon="5.5579">
        <ele>858</ele>
        <time>2021-09-07T12:56:17Z</time>
      </trkpt>
      <trkpt lat="44.44146" lon="5.55792">
        <ele>858.1</ele>
        <time>2021-09-07T12:56:18Z</time>
      </trkpt>
      <trkpt lat="44.44145" lon="5.55793">
        <ele>858.1</ele>
        <time>2021-09-07T12:56:19Z</time>
      </trkpt>
      <trkpt lat="44.44144" lon="5.55794">
        <ele>858.2</ele>
        <time>2021-09-07T12:56:20Z</time>
      </trkpt>
      <trkpt lat="44.44143" lon="5.55795">
        <ele>858.2</ele>
        <time>2021-09-07T12:56:21Z</time>
      </trkpt>
      <trkpt lat="44.44142" lon="5.55796">
        <ele>858.3</ele>
        <time>2021-09-07T12:56:22Z</time>
      </trkpt>
      <trkpt lat="44.44141" lon="5.55797">
        <ele>858.3</ele>
        <time>2021-09-07T12:56:23Z</time>
      </trkpt>
      <trkpt lat="44.44138" lon="5.55799">
        <ele>858.4</ele>
        <time>2021-09-07T12:56:24Z</time>
      </trkpt>
      <trkpt lat="44.44138" lon="5.55799">
        <ele>858.5</ele>
        <time>2021-09-07T12:56:25Z</time>
      </trkpt>
      <trkpt lat="44.44137" lon="5.55799">
        <ele>858.5</ele>
        <time>2021-09-07T12:56:26Z</time>
      </trkpt>
      <trkpt lat="44.44135" lon="5.55801">
        <ele>858.6</ele>
        <time>2021-09-07T12:56:27Z</time>
      </trkpt>
      <trkpt lat="44.44134" lon="5.55801">
        <ele>858.6</ele>
        <time>2021-09-07T12:56:28Z</time>
      </trkpt>
      <trkpt lat="44.44133" lon="5.55802">
        <ele>858.7</ele>
        <time>2021-09-07T12:56:29Z</time>
      </trkpt>
      <trkpt lat="44.44132" lon="5.55803">
        <ele>858.7</ele>
        <time>2021-09-07T12:56:30Z</time>
      </trkpt>
      <trkpt lat="44.44131" lon="5.55804">
        <ele>858.8</ele>
        <time>2021-09-07T12:56:31Z</time>
      </trkpt>
      <trkpt lat="44.4413" lon="5.55805">
        <ele>858.9</ele>
        <time>2021-09-07T12:56:32Z</time>
      </trkpt>
      <trkpt lat="44.44126" lon="5.55808">
        <ele>859.1</ele>
        <time>2021-09-07T12:56:33Z</time>
      </trkpt>
      <trkpt lat="44.44126" lon="5.55809">
        <ele>859.1</ele>
        <time>2021-09-07T12:56:34Z</time>
      </trkpt>
      <trkpt lat="44.44125" lon="5.55809">
        <ele>859.1</ele>
        <time>2021-09-07T12:56:35Z</time>
      </trkpt>
      <trkpt lat="44.44124" lon="5.5581">
        <ele>859.2</ele>
        <time>2021-09-07T12:56:36Z</time>
      </trkpt>
      <trkpt lat="44.44122" lon="5.5581">
        <ele>859.3</ele>
        <time>2021-09-07T12:56:37Z</time>
      </trkpt>
      <trkpt lat="44.4412" lon="5.55811">
        <ele>859.4</ele>
        <time>2021-09-07T12:56:38Z</time>
      </trkpt>
      <trkpt lat="44.44118" lon="5.55812">
        <ele>859.6</ele>
        <time>2021-09-07T12:56:39Z</time>
      </trkpt>
      <trkpt lat="44.44117" lon="5.55813">
        <ele>859.6</ele>
        <time>2021-09-07T12:56:40Z</time>
      </trkpt>
      <trkpt lat="44.44116" lon="5.55813">
        <ele>859.7</ele>
        <time>2021-09-07T12:56:41Z</time>
      </trkpt>
      <trkpt lat="44.44115" lon="5.55814">
        <ele>859.8</ele>
        <time>2021-09-07T12:56:42Z</time>
      </trkpt>
      <trkpt lat="44.44113" lon="5.55815">
        <ele>859.9</ele>
        <time>2021-09-07T12:56:43Z</time>
      </trkpt>
      <trkpt lat="44.44109" lon="5.55817">
        <ele>860.1</ele>
        <time>2021-09-07T12:56:44Z</time>
      </trkpt>
      <trkpt lat="44.44107" lon="5.55818">
        <ele>860.3</ele>
        <time>2021-09-07T12:56:45Z</time>
      </trkpt>
      <trkpt lat="44.44106" lon="5.55818">
        <ele>860.4</ele>
        <time>2021-09-07T12:56:46Z</time>
      </trkpt>
      <trkpt lat="44.44104" lon="5.55818">
        <ele>860.4</ele>
        <time>2021-09-07T12:56:47Z</time>
      </trkpt>
      <trkpt lat="44.44102" lon="5.55817">
        <ele>860.6</ele>
        <time>2021-09-07T12:56:48Z</time>
      </trkpt>
      <trkpt lat="44.441" lon="5.55817">
        <ele>860.7</ele>
        <time>2021-09-07T12:56:49Z</time>
      </trkpt>
      <trkpt lat="44.44097" lon="5.55816">
        <ele>860.8</ele>
        <time>2021-09-07T12:56:50Z</time>
      </trkpt>
      <trkpt lat="44.44095" lon="5.55815">
        <ele>860.9</ele>
        <time>2021-09-07T12:56:51Z</time>
      </trkpt>
      <trkpt lat="44.44094" lon="5.55814">
        <ele>860.9</ele>
        <time>2021-09-07T12:56:52Z</time>
      </trkpt>
      <trkpt lat="44.44092" lon="5.55813">
        <ele>861</ele>
        <time>2021-09-07T12:56:53Z</time>
      </trkpt>
      <trkpt lat="44.44089" lon="5.55812">
        <ele>861</ele>
        <time>2021-09-07T12:56:54Z</time>
      </trkpt>
      <trkpt lat="44.44087" lon="5.55811">
        <ele>861</ele>
        <time>2021-09-07T12:56:55Z</time>
      </trkpt>
      <trkpt lat="44.44085" lon="5.5581">
        <ele>861</ele>
        <time>2021-09-07T12:56:56Z</time>
      </trkpt>
      <trkpt lat="44.44083" lon="5.55809">
        <ele>861</ele>
        <time>2021-09-07T12:56:57Z</time>
      </trkpt>
      <trkpt lat="44.44081" lon="5.55807">
        <ele>861.1</ele>
        <time>2021-09-07T12:56:58Z</time>
      </trkpt>
      <trkpt lat="44.44078" lon="5.55805">
        <ele>861.1</ele>
        <time>2021-09-07T12:56:59Z</time>
      </trkpt>
      <trkpt lat="44.44077" lon="5.55804">
        <ele>861.1</ele>
        <time>2021-09-07T12:57:00Z</time>
      </trkpt>
      <trkpt lat="44.44076" lon="5.55802">
        <ele>861.1</ele>
        <time>2021-09-07T12:57:01Z</time>
      </trkpt>
      <trkpt lat="44.44074" lon="5.558">
        <ele>861.2</ele>
        <time>2021-09-07T12:57:02Z</time>
      </trkpt>
      <trkpt lat="44.44072" lon="5.55797">
        <ele>861.2</ele>
        <time>2021-09-07T12:57:03Z</time>
      </trkpt>
      <trkpt lat="44.44071" lon="5.55796">
        <ele>861.2</ele>
        <time>2021-09-07T12:57:04Z</time>
      </trkpt>
      <trkpt lat="44.4407" lon="5.55794">
        <ele>861.3</ele>
        <time>2021-09-07T12:57:05Z</time>
      </trkpt>
      <trkpt lat="44.44069" lon="5.55792">
        <ele>861.3</ele>
        <time>2021-09-07T12:57:06Z</time>
      </trkpt>
      <trkpt lat="44.44066" lon="5.5579">
        <ele>861.3</ele>
        <time>2021-09-07T12:57:07Z</time>
      </trkpt>
      <trkpt lat="44.44065" lon="5.55788">
        <ele>861.3</ele>
        <time>2021-09-07T12:57:08Z</time>
      </trkpt>
      <trkpt lat="44.44063" lon="5.55785">
        <ele>861.3</ele>
        <time>2021-09-07T12:57:09Z</time>
      </trkpt>
      <trkpt lat="44.44062" lon="5.55782">
        <ele>861.4</ele>
        <time>2021-09-07T12:57:10Z</time>
      </trkpt>
      <trkpt lat="44.44061" lon="5.55778">
        <ele>861.4</ele>
        <time>2021-09-07T12:57:11Z</time>
      </trkpt>
      <trkpt lat="44.4406" lon="5.55777">
        <ele>861.4</ele>
        <time>2021-09-07T12:57:12Z</time>
      </trkpt>
      <trkpt lat="44.44059" lon="5.55776">
        <ele>861.4</ele>
        <time>2021-09-07T12:57:13Z</time>
      </trkpt>
      <trkpt lat="44.44058" lon="5.55774">
        <ele>861.4</ele>
        <time>2021-09-07T12:57:14Z</time>
      </trkpt>
      <trkpt lat="44.44057" lon="5.55771">
        <ele>861.5</ele>
        <time>2021-09-07T12:57:15Z</time>
      </trkpt>
      <trkpt lat="44.44057" lon="5.5577">
        <ele>861.5</ele>
        <time>2021-09-07T12:57:16Z</time>
      </trkpt>
      <trkpt lat="44.44056" lon="5.55768">
        <ele>861.5</ele>
        <time>2021-09-07T12:57:17Z</time>
      </trkpt>
      <trkpt lat="44.44057" lon="5.55763">
        <ele>861.6</ele>
        <time>2021-09-07T12:57:18Z</time>
      </trkpt>
      <trkpt lat="44.44057" lon="5.55761">
        <ele>861.6</ele>
        <time>2021-09-07T12:57:19Z</time>
      </trkpt>
      <trkpt lat="44.44057" lon="5.55759">
        <ele>861.7</ele>
        <time>2021-09-07T12:57:20Z</time>
      </trkpt>
      <trkpt lat="44.44056" lon="5.55756">
        <ele>861.8</ele>
        <time>2021-09-07T12:57:21Z</time>
      </trkpt>
      <trkpt lat="44.44055" lon="5.55753">
        <ele>861.8</ele>
        <time>2021-09-07T12:57:22Z</time>
      </trkpt>
      <trkpt lat="44.44055" lon="5.55751">
        <ele>861.9</ele>
        <time>2021-09-07T12:57:23Z</time>
      </trkpt>
      <trkpt lat="44.44055" lon="5.55749">
        <ele>862</ele>
        <time>2021-09-07T12:57:24Z</time>
      </trkpt>
      <trkpt lat="44.44054" lon="5.55747">
        <ele>862</ele>
        <time>2021-09-07T12:57:25Z</time>
      </trkpt>
      <trkpt lat="44.44053" lon="5.55745">
        <ele>862.1</ele>
        <time>2021-09-07T12:57:26Z</time>
      </trkpt>
      <trkpt lat="44.44052" lon="5.55744">
        <ele>862.2</ele>
        <time>2021-09-07T12:57:27Z</time>
      </trkpt>
      <trkpt lat="44.4405" lon="5.55743">
        <ele>862.3</ele>
        <time>2021-09-07T12:57:28Z</time>
      </trkpt>
      <trkpt lat="44.44048" lon="5.55743">
        <ele>862.4</ele>
        <time>2021-09-07T12:57:29Z</time>
      </trkpt>
      <trkpt lat="44.44046" lon="5.55744">
        <ele>862.5</ele>
        <time>2021-09-07T12:57:30Z</time>
      </trkpt>
      <trkpt lat="44.44045" lon="5.55745">
        <ele>862.6</ele>
        <time>2021-09-07T12:57:31Z</time>
      </trkpt>
      <trkpt lat="44.44043" lon="5.55746">
        <ele>862.7</ele>
        <time>2021-09-07T12:57:32Z</time>
      </trkpt>
      <trkpt lat="44.4404" lon="5.55747">
        <ele>862.9</ele>
        <time>2021-09-07T12:57:33Z</time>
      </trkpt>
      <trkpt lat="44.44037" lon="5.5575">
        <ele>863.2</ele>
        <time>2021-09-07T12:57:34Z</time>
      </trkpt>
      <trkpt lat="44.44036" lon="5.55751">
        <ele>863.3</ele>
        <time>2021-09-07T12:57:35Z</time>
      </trkpt>
      <trkpt lat="44.44035" lon="5.55751">
        <ele>863.3</ele>
        <time>2021-09-07T12:57:36Z</time>
      </trkpt>
      <trkpt lat="44.44032" lon="5.55751">
        <ele>863.6</ele>
        <time>2021-09-07T12:57:37Z</time>
      </trkpt>
      <trkpt lat="44.44031" lon="5.55752">
        <ele>863.6</ele>
        <time>2021-09-07T12:57:38Z</time>
      </trkpt>
      <trkpt lat="44.4403" lon="5.55752">
        <ele>863.7</ele>
        <time>2021-09-07T12:57:39Z</time>
      </trkpt>
      <trkpt lat="44.44029" lon="5.55753">
        <ele>863.8</ele>
        <time>2021-09-07T12:57:40Z</time>
      </trkpt>
      <trkpt lat="44.44027" lon="5.55754">
        <ele>863.9</ele>
        <time>2021-09-07T12:57:41Z</time>
      </trkpt>
      <trkpt lat="44.44025" lon="5.55755">
        <ele>864.1</ele>
        <time>2021-09-07T12:57:42Z</time>
      </trkpt>
      <trkpt lat="44.44023" lon="5.55757">
        <ele>864.3</ele>
        <time>2021-09-07T12:57:43Z</time>
      </trkpt>
      <trkpt lat="44.44022" lon="5.55758">
        <ele>864.4</ele>
        <time>2021-09-07T12:57:44Z</time>
      </trkpt>
      <trkpt lat="44.44021" lon="5.55758">
        <ele>864.4</ele>
        <time>2021-09-07T12:57:45Z</time>
      </trkpt>
      <trkpt lat="44.4402" lon="5.55759">
        <ele>864.5</ele>
        <time>2021-09-07T12:57:46Z</time>
      </trkpt>
      <trkpt lat="44.44018" lon="5.5576">
        <ele>864.7</ele>
        <time>2021-09-07T12:57:47Z</time>
      </trkpt>
      <trkpt lat="44.44016" lon="5.55761">
        <ele>864.8</ele>
        <time>2021-09-07T12:57:48Z</time>
      </trkpt>
      <trkpt lat="44.44016" lon="5.55761">
        <ele>864.9</ele>
        <time>2021-09-07T12:57:49Z</time>
      </trkpt>
      <trkpt lat="44.44015" lon="5.55761">
        <ele>864.9</ele>
        <time>2021-09-07T12:57:50Z</time>
      </trkpt>
      <trkpt lat="44.44014" lon="5.55761">
        <ele>865</ele>
        <time>2021-09-07T12:57:51Z</time>
      </trkpt>
      <trkpt lat="44.44012" lon="5.55761">
        <ele>865.1</ele>
        <time>2021-09-07T12:57:52Z</time>
      </trkpt>
      <trkpt lat="44.4401" lon="5.55761">
        <ele>865.3</ele>
        <time>2021-09-07T12:57:53Z</time>
      </trkpt>
      <trkpt lat="44.4401" lon="5.55761">
        <ele>865.3</ele>
        <time>2021-09-07T12:57:54Z</time>
      </trkpt>
      <trkpt lat="44.44009" lon="5.55761">
        <ele>865.3</ele>
        <time>2021-09-07T12:57:55Z</time>
      </trkpt>
      <trkpt lat="44.44007" lon="5.55761">
        <ele>865.5</ele>
        <time>2021-09-07T12:57:56Z</time>
      </trkpt>
      <trkpt lat="44.44006" lon="5.55761">
        <ele>865.5</ele>
        <time>2021-09-07T12:57:57Z</time>
      </trkpt>
      <trkpt lat="44.44005" lon="5.55761">
        <ele>865.6</ele>
        <time>2021-09-07T12:57:58Z</time>
      </trkpt>
      <trkpt lat="44.44004" lon="5.55761">
        <ele>865.7</ele>
        <time>2021-09-07T12:57:59Z</time>
      </trkpt>
      <trkpt lat="44.44003" lon="5.55761">
        <ele>865.8</ele>
        <time>2021-09-07T12:58:00Z</time>
      </trkpt>
      <trkpt lat="44.44002" lon="5.55761">
        <ele>865.8</ele>
        <time>2021-09-07T12:58:01Z</time>
      </trkpt>
      <trkpt lat="44.44001" lon="5.55761">
        <ele>865.9</ele>
        <time>2021-09-07T12:58:02Z</time>
      </trkpt>
      <trkpt lat="44.43999" lon="5.55761">
        <ele>866.1</ele>
        <time>2021-09-07T12:58:03Z</time>
      </trkpt>
      <trkpt lat="44.43997" lon="5.55761">
        <ele>866.2</ele>
        <time>2021-09-07T12:58:04Z</time>
      </trkpt>
      <trkpt lat="44.43996" lon="5.55761">
        <ele>866.3</ele>
        <time>2021-09-07T12:58:05Z</time>
      </trkpt>
      <trkpt lat="44.43995" lon="5.55761">
        <ele>866.3</ele>
        <time>2021-09-07T12:58:06Z</time>
      </trkpt>
      <trkpt lat="44.43994" lon="5.55761">
        <ele>866.4</ele>
        <time>2021-09-07T12:58:07Z</time>
      </trkpt>
      <trkpt lat="44.43992" lon="5.55762">
        <ele>866.6</ele>
        <time>2021-09-07T12:58:08Z</time>
      </trkpt>
      <trkpt lat="44.43991" lon="5.55762">
        <ele>866.6</ele>
        <time>2021-09-07T12:58:09Z</time>
      </trkpt>
      <trkpt lat="44.4399" lon="5.55762">
        <ele>866.7</ele>
        <time>2021-09-07T12:58:10Z</time>
      </trkpt>
      <trkpt lat="44.43988" lon="5.55762">
        <ele>866.9</ele>
        <time>2021-09-07T12:58:11Z</time>
      </trkpt>
      <trkpt lat="44.43986" lon="5.55762">
        <ele>867</ele>
        <time>2021-09-07T12:58:12Z</time>
      </trkpt>
      <trkpt lat="44.43985" lon="5.55763">
        <ele>867.1</ele>
        <time>2021-09-07T12:58:13Z</time>
      </trkpt>
      <trkpt lat="44.43983" lon="5.55763">
        <ele>867.2</ele>
        <time>2021-09-07T12:58:14Z</time>
      </trkpt>
      <trkpt lat="44.43982" lon="5.55764">
        <ele>867.3</ele>
        <time>2021-09-07T12:58:15Z</time>
      </trkpt>
      <trkpt lat="44.43981" lon="5.55765">
        <ele>867.4</ele>
        <time>2021-09-07T12:58:16Z</time>
      </trkpt>
      <trkpt lat="44.43979" lon="5.55765">
        <ele>867.5</ele>
        <time>2021-09-07T12:58:17Z</time>
      </trkpt>
      <trkpt lat="44.43977" lon="5.55766">
        <ele>867.7</ele>
        <time>2021-09-07T12:58:18Z</time>
      </trkpt>
      <trkpt lat="44.43976" lon="5.55766">
        <ele>867.8</ele>
        <time>2021-09-07T12:58:19Z</time>
      </trkpt>
      <trkpt lat="44.43975" lon="5.55766">
        <ele>867.8</ele>
        <time>2021-09-07T12:58:20Z</time>
      </trkpt>
      <trkpt lat="44.43973" lon="5.55766">
        <ele>868</ele>
        <time>2021-09-07T12:58:21Z</time>
      </trkpt>
      <trkpt lat="44.43972" lon="5.55767">
        <ele>868.1</ele>
        <time>2021-09-07T12:58:22Z</time>
      </trkpt>
      <trkpt lat="44.43971" lon="5.55767">
        <ele>868.1</ele>
        <time>2021-09-07T12:58:23Z</time>
      </trkpt>
      <trkpt lat="44.4397" lon="5.55768">
        <ele>868.3</ele>
        <time>2021-09-07T12:58:24Z</time>
      </trkpt>
      <trkpt lat="44.43968" lon="5.55768">
        <ele>868.4</ele>
        <time>2021-09-07T12:58:25Z</time>
      </trkpt>
      <trkpt lat="44.43966" lon="5.55769">
        <ele>868.5</ele>
        <time>2021-09-07T12:58:26Z</time>
      </trkpt>
      <trkpt lat="44.43966" lon="5.5577">
        <ele>868.6</ele>
        <time>2021-09-07T12:58:27Z</time>
      </trkpt>
      <trkpt lat="44.43965" lon="5.5577">
        <ele>868.6</ele>
        <time>2021-09-07T12:58:28Z</time>
      </trkpt>
      <trkpt lat="44.43962" lon="5.55772">
        <ele>868.8</ele>
        <time>2021-09-07T12:58:29Z</time>
      </trkpt>
      <trkpt lat="44.43961" lon="5.55772">
        <ele>868.9</ele>
        <time>2021-09-07T12:58:30Z</time>
      </trkpt>
      <trkpt lat="44.4396" lon="5.55773">
        <ele>869</ele>
        <time>2021-09-07T12:58:31Z</time>
      </trkpt>
      <trkpt lat="44.43959" lon="5.55773">
        <ele>869.1</ele>
        <time>2021-09-07T12:58:32Z</time>
      </trkpt>
      <trkpt lat="44.43957" lon="5.55775">
        <ele>869.2</ele>
        <time>2021-09-07T12:58:33Z</time>
      </trkpt>
      <trkpt lat="44.43956" lon="5.55776">
        <ele>869.3</ele>
        <time>2021-09-07T12:58:34Z</time>
      </trkpt>
      <trkpt lat="44.43955" lon="5.55777">
        <ele>869.4</ele>
        <time>2021-09-07T12:58:35Z</time>
      </trkpt>
      <trkpt lat="44.43954" lon="5.55778">
        <ele>869.5</ele>
        <time>2021-09-07T12:58:36Z</time>
      </trkpt>
      <trkpt lat="44.43953" lon="5.55779">
        <ele>869.6</ele>
        <time>2021-09-07T12:58:37Z</time>
      </trkpt>
      <trkpt lat="44.4395" lon="5.55781">
        <ele>869.8</ele>
        <time>2021-09-07T12:58:38Z</time>
      </trkpt>
      <trkpt lat="44.4395" lon="5.55782">
        <ele>869.9</ele>
        <time>2021-09-07T12:58:39Z</time>
      </trkpt>
      <trkpt lat="44.43949" lon="5.55782">
        <ele>869.9</ele>
        <time>2021-09-07T12:58:40Z</time>
      </trkpt>
      <trkpt lat="44.43947" lon="5.55783">
        <ele>870.1</ele>
        <time>2021-09-07T12:58:41Z</time>
      </trkpt>
      <trkpt lat="44.43946" lon="5.55784">
        <ele>870.1</ele>
        <time>2021-09-07T12:58:42Z</time>
      </trkpt>
      <trkpt lat="44.43945" lon="5.55784">
        <ele>870.2</ele>
        <time>2021-09-07T12:58:43Z</time>
      </trkpt>
      <trkpt lat="44.43944" lon="5.55784">
        <ele>870.3</ele>
        <time>2021-09-07T12:58:44Z</time>
      </trkpt>
      <trkpt lat="44.43942" lon="5.55786">
        <ele>870.5</ele>
        <time>2021-09-07T12:58:45Z</time>
      </trkpt>
      <trkpt lat="44.43941" lon="5.55787">
        <ele>870.5</ele>
        <time>2021-09-07T12:58:46Z</time>
      </trkpt>
      <trkpt lat="44.4394" lon="5.55787">
        <ele>870.6</ele>
        <time>2021-09-07T12:58:47Z</time>
      </trkpt>
      <trkpt lat="44.43939" lon="5.55788">
        <ele>870.7</ele>
        <time>2021-09-07T12:58:48Z</time>
      </trkpt>
      <trkpt lat="44.43937" lon="5.55789">
        <ele>870.8</ele>
        <time>2021-09-07T12:58:49Z</time>
      </trkpt>
      <trkpt lat="44.43936" lon="5.5579">
        <ele>870.9</ele>
        <time>2021-09-07T12:58:50Z</time>
      </trkpt>
      <trkpt lat="44.43935" lon="5.5579">
        <ele>871</ele>
        <time>2021-09-07T12:58:51Z</time>
      </trkpt>
      <trkpt lat="44.43933" lon="5.55791">
        <ele>871.2</ele>
        <time>2021-09-07T12:58:52Z</time>
      </trkpt>
      <trkpt lat="44.43932" lon="5.55793">
        <ele>871.3</ele>
        <time>2021-09-07T12:58:53Z</time>
      </trkpt>
      <trkpt lat="44.43932" lon="5.55794">
        <ele>871.3</ele>
        <time>2021-09-07T12:58:54Z</time>
      </trkpt>
      <trkpt lat="44.43931" lon="5.55794">
        <ele>871.4</ele>
        <time>2021-09-07T12:58:55Z</time>
      </trkpt>
      <trkpt lat="44.4393" lon="5.55796">
        <ele>871.5</ele>
        <time>2021-09-07T12:58:56Z</time>
      </trkpt>
      <trkpt lat="44.43928" lon="5.55797">
        <ele>871.6</ele>
        <time>2021-09-07T12:58:57Z</time>
      </trkpt>
      <trkpt lat="44.43927" lon="5.55797">
        <ele>871.7</ele>
        <time>2021-09-07T12:58:58Z</time>
      </trkpt>
      <trkpt lat="44.43925" lon="5.55796">
        <ele>871.8</ele>
        <time>2021-09-07T12:58:59Z</time>
      </trkpt>
      <trkpt lat="44.43924" lon="5.55796">
        <ele>871.9</ele>
        <time>2021-09-07T12:59:00Z</time>
      </trkpt>
      <trkpt lat="44.43923" lon="5.55796">
        <ele>872</ele>
        <time>2021-09-07T12:59:01Z</time>
      </trkpt>
      <trkpt lat="44.43922" lon="5.55795">
        <ele>872.1</ele>
        <time>2021-09-07T12:59:02Z</time>
      </trkpt>
      <trkpt lat="44.43923" lon="5.55795">
        <ele>872.1</ele>
        <time>2021-09-07T12:59:03Z</time>
      </trkpt>
      <trkpt lat="44.43924" lon="5.55794">
        <ele>872.2</ele>
        <time>2021-09-07T12:59:04Z</time>
      </trkpt>
      <trkpt lat="44.43924" lon="5.55794">
        <ele>872.2</ele>
        <time>2021-09-07T12:59:05Z</time>
      </trkpt>
      <trkpt lat="44.43923" lon="5.55793">
        <ele>872.3</ele>
        <time>2021-09-07T12:59:06Z</time>
      </trkpt>
      <trkpt lat="44.43923" lon="5.55793">
        <ele>872.3</ele>
        <time>2021-09-07T12:59:07Z</time>
      </trkpt>
      <trkpt lat="44.43923" lon="5.55793">
        <ele>872.3</ele>
        <time>2021-09-07T12:59:08Z</time>
      </trkpt>
      <trkpt lat="44.43923" lon="5.55793">
        <ele>872.3</ele>
        <time>2021-09-07T12:59:09Z</time>
      </trkpt>
      <trkpt lat="44.43923" lon="5.55793">
        <ele>872.3</ele>
        <time>2021-09-07T12:59:10Z</time>
      </trkpt>
      <trkpt lat="44.43923" lon="5.55793">
        <ele>872.3</ele>
        <time>2021-09-07T12:59:11Z</time>
      </trkpt>
      <trkpt lat="44.43923" lon="5.55793">
        <ele>872.3</ele>
        <time>2021-09-07T12:59:12Z</time>
      </trkpt>
      <trkpt lat="44.43923" lon="5.55794">
        <ele>872.3</ele>
        <time>2021-09-07T12:59:13Z</time>
      </trkpt>
      <trkpt lat="44.43923" lon="5.55794">
        <ele>872.3</ele>
        <time>2021-09-07T12:59:14Z</time>
      </trkpt>
      <trkpt lat="44.43923" lon="5.55794">
        <ele>872.3</ele>
        <time>2021-09-07T12:59:15Z</time>
      </trkpt>
      <trkpt lat="44.43923" lon="5.55794">
        <ele>872.3</ele>
        <time>2021-09-07T12:59:16Z</time>
      </trkpt>
      <trkpt lat="44.43923" lon="5.55794">
        <ele>872.3</ele>
        <time>2021-09-07T12:59:17Z</time>
      </trkpt>
      <trkpt lat="44.43923" lon="5.55794">
        <ele>872.3</ele>
        <time>2021-09-07T12:59:18Z</time>
      </trkpt>
      <trkpt lat="44.43923" lon="5.55794">
        <ele>872.3</ele>
        <time>2021-09-07T12:59:19Z</time>
      </trkpt>
      <trkpt lat="44.43923" lon="5.55794">
        <ele>872.3</ele>
        <time>2021-09-07T12:59:20Z</time>
      </trkpt>
      <trkpt lat="44.43923" lon="5.55794">
        <ele>872.3</ele>
        <time>2021-09-07T12:59:21Z</time>
      </trkpt>
      <trkpt lat="44.43923" lon="5.55794">
        <ele>872.3</ele>
        <time>2021-09-07T12:59:22Z</time>
      </trkpt>
      <trkpt lat="44.43923" lon="5.55794">
        <ele>872.3</ele>
        <time>2021-09-07T12:59:23Z</time>
      </trkpt>
      <trkpt lat="44.43923" lon="5.55794">
        <ele>872.3</ele>
        <time>2021-09-07T12:59:24Z</time>
      </trkpt>
      <trkpt lat="44.43923" lon="5.55794">
        <ele>872.3</ele>
        <time>2021-09-07T12:59:25Z</time>
      </trkpt>
      <trkpt lat="44.43923" lon="5.55794">
        <ele>872.3</ele>
        <time>2021-09-07T12:59:26Z</time>
      </trkpt>
      <trkpt lat="44.43923" lon="5.55794">
        <ele>872.3</ele>
        <time>2021-09-07T12:59:27Z</time>
      </trkpt>
      <trkpt lat="44.43923" lon="5.55794">
        <ele>872.3</ele>
        <time>2021-09-07T12:59:28Z</time>
      </trkpt>
      <trkpt lat="44.43923" lon="5.55794">
        <ele>872.3</ele>
        <time>2021-09-07T12:59:29Z</time>
      </trkpt>
      <trkpt lat="44.43923" lon="5.55794">
        <ele>872.3</ele>
        <time>2021-09-07T12:59:30Z</time>
      </trkpt>
      <trkpt lat="44.43923" lon="5.55794">
        <ele>872.3</ele>
        <time>2021-09-07T12:59:31Z</time>
      </trkpt>
      <trkpt lat="44.43923" lon="5.55794">
        <ele>872.3</ele>
        <time>2021-09-07T12:59:32Z</time>
      </trkpt>
      <trkpt lat="44.43923" lon="5.55794">
        <ele>872.3</ele>
        <time>2021-09-07T12:59:33Z</time>
      </trkpt>
      <trkpt lat="44.43923" lon="5.55794">
        <ele>872.3</ele>
        <time>2021-09-07T12:59:34Z</time>
      </trkpt>
      <trkpt lat="44.43923" lon="5.55794">
        <ele>872.3</ele>
        <time>2021-09-07T12:59:35Z</time>
      </trkpt>
      <trkpt lat="44.43923" lon="5.55794">
        <ele>872.4</ele>
        <time>2021-09-07T12:59:36Z</time>
      </trkpt>
      <trkpt lat="44.43923" lon="5.55793">
        <ele>872.4</ele>
        <time>2021-09-07T12:59:37Z</time>
      </trkpt>
      <trkpt lat="44.43923" lon="5.55793">
        <ele>872.4</ele>
        <time>2021-09-07T12:59:38Z</time>
      </trkpt>
      <trkpt lat="44.43923" lon="5.55793">
        <ele>872.4</ele>
        <time>2021-09-07T12:59:39Z</time>
      </trkpt>
      <trkpt lat="44.43923" lon="5.55793">
        <ele>872.4</ele>
        <time>2021-09-07T12:59:40Z</time>
      </trkpt>
      <trkpt lat="44.43923" lon="5.55793">
        <ele>872.4</ele>
        <time>2021-09-07T12:59:41Z</time>
      </trkpt>
      <trkpt lat="44.43923" lon="5.55793">
        <ele>872.4</ele>
        <time>2021-09-07T12:59:42Z</time>
      </trkpt>
      <trkpt lat="44.43923" lon="5.55793">
        <ele>872.4</ele>
        <time>2021-09-07T12:59:43Z</time>
      </trkpt>
      <trkpt lat="44.43923" lon="5.55793">
        <ele>872.4</ele>
        <time>2021-09-07T12:59:44Z</time>
      </trkpt>
      <trkpt lat="44.43923" lon="5.55793">
        <ele>872.4</ele>
        <time>2021-09-07T12:59:45Z</time>
      </trkpt>
      <trkpt lat="44.43923" lon="5.55793">
        <ele>872.4</ele>
        <time>2021-09-07T12:59:46Z</time>
      </trkpt>
      <trkpt lat="44.43923" lon="5.55793">
        <ele>872.4</ele>
        <time>2021-09-07T12:59:47Z</time>
      </trkpt>
      <trkpt lat="44.43923" lon="5.55793">
        <ele>872.4</ele>
        <time>2021-09-07T12:59:48Z</time>
      </trkpt>
      <trkpt lat="44.43923" lon="5.55793">
        <ele>872.4</ele>
        <time>2021-09-07T12:59:49Z</time>
      </trkpt>
      <trkpt lat="44.43923" lon="5.55793">
        <ele>872.4</ele>
        <time>2021-09-07T12:59:50Z</time>
      </trkpt>
      <trkpt lat="44.43922" lon="5.55792">
        <ele>872.5</ele>
        <time>2021-09-07T12:59:51Z</time>
      </trkpt>
      <trkpt lat="44.43922" lon="5.55791">
        <ele>872.5</ele>
        <time>2021-09-07T12:59:52Z</time>
      </trkpt>
      <trkpt lat="44.43921" lon="5.5579">
        <ele>872.6</ele>
        <time>2021-09-07T12:59:53Z</time>
      </trkpt>
      <trkpt lat="44.43921" lon="5.55789">
        <ele>872.6</ele>
        <time>2021-09-07T12:59:54Z</time>
      </trkpt>
      <trkpt lat="44.4392" lon="5.55788">
        <ele>872.7</ele>
        <time>2021-09-07T12:59:55Z</time>
      </trkpt>
      <trkpt lat="44.43919" lon="5.55787">
        <ele>872.8</ele>
        <time>2021-09-07T12:59:56Z</time>
      </trkpt>
      <trkpt lat="44.43918" lon="5.55787">
        <ele>872.9</ele>
        <time>2021-09-07T12:59:57Z</time>
      </trkpt>
      <trkpt lat="44.43917" lon="5.55786">
        <ele>873</ele>
        <time>2021-09-07T12:59:58Z</time>
      </trkpt>
      <trkpt lat="44.43917" lon="5.55786">
        <ele>873</ele>
        <time>2021-09-07T12:59:59Z</time>
      </trkpt>
      <trkpt lat="44.43916" lon="5.55785">
        <ele>873.1</ele>
        <time>2021-09-07T13:00:00Z</time>
      </trkpt>
      <trkpt lat="44.43916" lon="5.55785">
        <ele>873.1</ele>
        <time>2021-09-07T13:00:01Z</time>
      </trkpt>
      <trkpt lat="44.43916" lon="5.55785">
        <ele>873.1</ele>
        <time>2021-09-07T13:00:02Z</time>
      </trkpt>
      <trkpt lat="44.43916" lon="5.55784">
        <ele>873.1</ele>
        <time>2021-09-07T13:00:03Z</time>
      </trkpt>
      <trkpt lat="44.43916" lon="5.55784">
        <ele>873.1</ele>
        <time>2021-09-07T13:00:04Z</time>
      </trkpt>
      <trkpt lat="44.43916" lon="5.55784">
        <ele>873.1</ele>
        <time>2021-09-07T13:00:05Z</time>
      </trkpt>
      <trkpt lat="44.43916" lon="5.55784">
        <ele>873.1</ele>
        <time>2021-09-07T13:00:06Z</time>
      </trkpt>
      <trkpt lat="44.43915" lon="5.55784">
        <ele>873.2</ele>
        <time>2021-09-07T13:00:07Z</time>
      </trkpt>
      <trkpt lat="44.43915" lon="5.55784">
        <ele>873.2</ele>
        <time>2021-09-07T13:00:08Z</time>
      </trkpt>
      <trkpt lat="44.43915" lon="5.55784">
        <ele>873.2</ele>
        <time>2021-09-07T13:00:09Z</time>
      </trkpt>
      <trkpt lat="44.43915" lon="5.55783">
        <ele>873.2</ele>
        <time>2021-09-07T13:00:10Z</time>
      </trkpt>
      <trkpt lat="44.43915" lon="5.55783">
        <ele>873.2</ele>
        <time>2021-09-07T13:00:11Z</time>
      </trkpt>
      <trkpt lat="44.43915" lon="5.55783">
        <ele>873.2</ele>
        <time>2021-09-07T13:00:12Z</time>
      </trkpt>
      <trkpt lat="44.43915" lon="5.55783">
        <ele>873.2</ele>
        <time>2021-09-07T13:00:13Z</time>
      </trkpt>
      <trkpt lat="44.43915" lon="5.55783">
        <ele>873.2</ele>
        <time>2021-09-07T13:00:14Z</time>
      </trkpt>
      <trkpt lat="44.43915" lon="5.55783">
        <ele>873.2</ele>
        <time>2021-09-07T13:00:15Z</time>
      </trkpt>
      <trkpt lat="44.43915" lon="5.55783">
        <ele>873.2</ele>
        <time>2021-09-07T13:00:16Z</time>
      </trkpt>
      <trkpt lat="44.43915" lon="5.55783">
        <ele>873.2</ele>
        <time>2021-09-07T13:00:17Z</time>
      </trkpt>
      <trkpt lat="44.43915" lon="5.55783">
        <ele>873.2</ele>
        <time>2021-09-07T13:00:18Z</time>
      </trkpt>
      <trkpt lat="44.43915" lon="5.55783">
        <ele>873.2</ele>
        <time>2021-09-07T13:00:19Z</time>
      </trkpt>
      <trkpt lat="44.43915" lon="5.55783">
        <ele>873.2</ele>
        <time>2021-09-07T13:00:20Z</time>
      </trkpt>
      <trkpt lat="44.43915" lon="5.55783">
        <ele>873.2</ele>
        <time>2021-09-07T13:00:21Z</time>
      </trkpt>
      <trkpt lat="44.43915" lon="5.55783">
        <ele>873.2</ele>
        <time>2021-09-07T13:00:22Z</time>
      </trkpt>
      <trkpt lat="44.43915" lon="5.55783">
        <ele>873.2</ele>
        <time>2021-09-07T13:00:23Z</time>
      </trkpt>
      <trkpt lat="44.43915" lon="5.55783">
        <ele>873.2</ele>
        <time>2021-09-07T13:00:24Z</time>
      </trkpt>
      <trkpt lat="44.43915" lon="5.55783">
        <ele>873.2</ele>
        <time>2021-09-07T13:00:25Z</time>
      </trkpt>
      <trkpt lat="44.43915" lon="5.55783">
        <ele>873.2</ele>
        <time>2021-09-07T13:00:26Z</time>
      </trkpt>
      <trkpt lat="44.43915" lon="5.55783">
        <ele>873.2</ele>
        <time>2021-09-07T13:00:27Z</time>
      </trkpt>
      <trkpt lat="44.43915" lon="5.55783">
        <ele>873.2</ele>
        <time>2021-09-07T13:00:28Z</time>
      </trkpt>
      <trkpt lat="44.43915" lon="5.55783">
        <ele>873.2</ele>
        <time>2021-09-07T13:00:29Z</time>
      </trkpt>
      <trkpt lat="44.43915" lon="5.55783">
        <ele>873.2</ele>
        <time>2021-09-07T13:00:30Z</time>
      </trkpt>
      <trkpt lat="44.43915" lon="5.55783">
        <ele>873.2</ele>
        <time>2021-09-07T13:00:31Z</time>
      </trkpt>
      <trkpt lat="44.43915" lon="5.55783">
        <ele>873.2</ele>
        <time>2021-09-07T13:00:32Z</time>
      </trkpt>
      <trkpt lat="44.43915" lon="5.55783">
        <ele>873.2</ele>
        <time>2021-09-07T13:00:33Z</time>
      </trkpt>
      <trkpt lat="44.43915" lon="5.55783">
        <ele>873.2</ele>
        <time>2021-09-07T13:00:34Z</time>
      </trkpt>
      <trkpt lat="44.43915" lon="5.55783">
        <ele>873.2</ele>
        <time>2021-09-07T13:00:35Z</time>
      </trkpt>
      <trkpt lat="44.43915" lon="5.55783">
        <ele>873.2</ele>
        <time>2021-09-07T13:00:36Z</time>
      </trkpt>
      <trkpt lat="44.43915" lon="5.55783">
        <ele>873.2</ele>
        <time>2021-09-07T13:00:37Z</time>
      </trkpt>
      <trkpt lat="44.43915" lon="5.55783">
        <ele>873.2</ele>
        <time>2021-09-07T13:00:38Z</time>
      </trkpt>
      <trkpt lat="44.43915" lon="5.55783">
        <ele>873.2</ele>
        <time>2021-09-07T13:00:39Z</time>
      </trkpt>
      <trkpt lat="44.43915" lon="5.55783">
        <ele>873.2</ele>
        <time>2021-09-07T13:00:40Z</time>
      </trkpt>
      <trkpt lat="44.43915" lon="5.55783">
        <ele>873.2</ele>
        <time>2021-09-07T13:00:41Z</time>
      </trkpt>
      <trkpt lat="44.43915" lon="5.55783">
        <ele>873.2</ele>
        <time>2021-09-07T13:00:42Z</time>
      </trkpt>
      <trkpt lat="44.43915" lon="5.55783">
        <ele>873.2</ele>
        <time>2021-09-07T13:00:43Z</time>
      </trkpt>
      <trkpt lat="44.43915" lon="5.55783">
        <ele>873.2</ele>
        <time>2021-09-07T13:00:44Z</time>
      </trkpt>
      <trkpt lat="44.43915" lon="5.55784">
        <ele>873.2</ele>
        <time>2021-09-07T13:00:45Z</time>
      </trkpt>
      <trkpt lat="44.43915" lon="5.55784">
        <ele>873.3</ele>
        <time>2021-09-07T13:00:46Z</time>
      </trkpt>
      <trkpt lat="44.43915" lon="5.55784">
        <ele>873.3</ele>
        <time>2021-09-07T13:00:47Z</time>
      </trkpt>
      <trkpt lat="44.43915" lon="5.55784">
        <ele>873.3</ele>
        <time>2021-09-07T13:00:48Z</time>
      </trkpt>
      <trkpt lat="44.43915" lon="5.55784">
        <ele>873.3</ele>
        <time>2021-09-07T13:00:49Z</time>
      </trkpt>
      <trkpt lat="44.43915" lon="5.55784">
        <ele>873.3</ele>
        <time>2021-09-07T13:00:50Z</time>
      </trkpt>
      <trkpt lat="44.43915" lon="5.55784">
        <ele>873.3</ele>
        <time>2021-09-07T13:00:51Z</time>
      </trkpt>
      <trkpt lat="44.43915" lon="5.55783">
        <ele>873.3</ele>
        <time>2021-09-07T13:00:52Z</time>
      </trkpt>
      <trkpt lat="44.43915" lon="5.55783">
        <ele>873.3</ele>
        <time>2021-09-07T13:00:53Z</time>
      </trkpt>
      <trkpt lat="44.43915" lon="5.55783">
        <ele>873.3</ele>
        <time>2021-09-07T13:00:54Z</time>
      </trkpt>
      <trkpt lat="44.43915" lon="5.55783">
        <ele>873.3</ele>
        <time>2021-09-07T13:00:55Z</time>
      </trkpt>
      <trkpt lat="44.43915" lon="5.55783">
        <ele>873.3</ele>
        <time>2021-09-07T13:00:56Z</time>
      </trkpt>
      <trkpt lat="44.43915" lon="5.55783">
        <ele>873.3</ele>
        <time>2021-09-07T13:00:57Z</time>
      </trkpt>
      <trkpt lat="44.43915" lon="5.55783">
        <ele>873.3</ele>
        <time>2021-09-07T13:00:58Z</time>
      </trkpt>
      <trkpt lat="44.43915" lon="5.55783">
        <ele>873.3</ele>
        <time>2021-09-07T13:00:59Z</time>
      </trkpt>
      <trkpt lat="44.43915" lon="5.55783">
        <ele>873.3</ele>
        <time>2021-09-07T13:01:00Z</time>
      </trkpt>
      <trkpt lat="44.43915" lon="5.55783">
        <ele>873.3</ele>
        <time>2021-09-07T13:01:01Z</time>
      </trkpt>
      <trkpt lat="44.43915" lon="5.55783">
        <ele>873.3</ele>
        <time>2021-09-07T13:01:02Z</time>
      </trkpt>
      <trkpt lat="44.43917" lon="5.55779">
        <ele>873.6</ele>
        <time>2021-09-07T13:01:03Z</time>
      </trkpt>
      <trkpt lat="44.43918" lon="5.55774">
        <ele>873.8</ele>
        <time>2021-09-07T13:01:04Z</time>
      </trkpt>
      <trkpt lat="44.43918" lon="5.55771">
        <ele>874</ele>
        <time>2021-09-07T13:01:05Z</time>
      </trkpt>
      <trkpt lat="44.43919" lon="5.5577">
        <ele>874.1</ele>
        <time>2021-09-07T13:01:06Z</time>
      </trkpt>
      <trkpt lat="44.4392" lon="5.55768">
        <ele>874.2</ele>
        <time>2021-09-07T13:01:07Z</time>
      </trkpt>
      <trkpt lat="44.4392" lon="5.55766">
        <ele>874.3</ele>
        <time>2021-09-07T13:01:08Z</time>
      </trkpt>
      <trkpt lat="44.43921" lon="5.55765">
        <ele>874.3</ele>
        <time>2021-09-07T13:01:09Z</time>
      </trkpt>
      <trkpt lat="44.43921" lon="5.55764">
        <ele>874.4</ele>
        <time>2021-09-07T13:01:10Z</time>
      </trkpt>
      <trkpt lat="44.43921" lon="5.55764">
        <ele>874.4</ele>
        <time>2021-09-07T13:01:11Z</time>
      </trkpt>
      <trkpt lat="44.43921" lon="5.55764">
        <ele>874.4</ele>
        <time>2021-09-07T13:01:12Z</time>
      </trkpt>
      <trkpt lat="44.43921" lon="5.55763">
        <ele>874.4</ele>
        <time>2021-09-07T13:01:13Z</time>
      </trkpt>
      <trkpt lat="44.43921" lon="5.55763">
        <ele>874.4</ele>
        <time>2021-09-07T13:01:14Z</time>
      </trkpt>
      <trkpt lat="44.43921" lon="5.55763">
        <ele>874.4</ele>
        <time>2021-09-07T13:01:15Z</time>
      </trkpt>
      <trkpt lat="44.43921" lon="5.55763">
        <ele>874.4</ele>
        <time>2021-09-07T13:01:16Z</time>
      </trkpt>
      <trkpt lat="44.43921" lon="5.55763">
        <ele>874.4</ele>
        <time>2021-09-07T13:01:17Z</time>
      </trkpt>
      <trkpt lat="44.43922" lon="5.55763">
        <ele>874.5</ele>
        <time>2021-09-07T13:01:18Z</time>
      </trkpt>
      <trkpt lat="44.43923" lon="5.55762">
        <ele>874.6</ele>
        <time>2021-09-07T13:01:19Z</time>
      </trkpt>
      <trkpt lat="44.43926" lon="5.5576">
        <ele>874.8</ele>
        <time>2021-09-07T13:01:20Z</time>
      </trkpt>
      <trkpt lat="44.43928" lon="5.55759">
        <ele>874.9</ele>
        <time>2021-09-07T13:01:21Z</time>
      </trkpt>
      <trkpt lat="44.43929" lon="5.55758">
        <ele>875</ele>
        <time>2021-09-07T13:01:22Z</time>
      </trkpt>
      <trkpt lat="44.43929" lon="5.55758">
        <ele>875</ele>
        <time>2021-09-07T13:01:23Z</time>
      </trkpt>
      <trkpt lat="44.43929" lon="5.55759">
        <ele>875.1</ele>
        <time>2021-09-07T13:01:24Z</time>
      </trkpt>
      <trkpt lat="44.43928" lon="5.55759">
        <ele>875.2</ele>
        <time>2021-09-07T13:01:25Z</time>
      </trkpt>
      <trkpt lat="44.43928" lon="5.55759">
        <ele>875.2</ele>
        <time>2021-09-07T13:01:26Z</time>
      </trkpt>
      <trkpt lat="44.43928" lon="5.55759">
        <ele>875.2</ele>
        <time>2021-09-07T13:01:27Z</time>
      </trkpt>
      <trkpt lat="44.43928" lon="5.55759">
        <ele>875.2</ele>
        <time>2021-09-07T13:01:28Z</time>
      </trkpt>
      <trkpt lat="44.43928" lon="5.55759">
        <ele>875.2</ele>
        <time>2021-09-07T13:01:29Z</time>
      </trkpt>
      <trkpt lat="44.43929" lon="5.55758">
        <ele>875.2</ele>
        <time>2021-09-07T13:01:30Z</time>
      </trkpt>
      <trkpt lat="44.43929" lon="5.55758">
        <ele>875.2</ele>
        <time>2021-09-07T13:01:31Z</time>
      </trkpt>
      <trkpt lat="44.43929" lon="5.55758">
        <ele>875.2</ele>
        <time>2021-09-07T13:01:32Z</time>
      </trkpt>
      <trkpt lat="44.43929" lon="5.55758">
        <ele>875.2</ele>
        <time>2021-09-07T13:01:33Z</time>
      </trkpt>
      <trkpt lat="44.43929" lon="5.55758">
        <ele>875.2</ele>
        <time>2021-09-07T13:01:34Z</time>
      </trkpt>
      <trkpt lat="44.43929" lon="5.55758">
        <ele>875.2</ele>
        <time>2021-09-07T13:01:35Z</time>
      </trkpt>
      <trkpt lat="44.43929" lon="5.55758">
        <ele>875.2</ele>
        <time>2021-09-07T13:01:36Z</time>
      </trkpt>
      <trkpt lat="44.43929" lon="5.55758">
        <ele>875.2</ele>
        <time>2021-09-07T13:01:37Z</time>
      </trkpt>
      <trkpt lat="44.43929" lon="5.55758">
        <ele>875.2</ele>
        <time>2021-09-07T13:01:38Z</time>
      </trkpt>
      <trkpt lat="44.43929" lon="5.55758">
        <ele>875.2</ele>
        <time>2021-09-07T13:01:39Z</time>
      </trkpt>
      <trkpt lat="44.43929" lon="5.55758">
        <ele>875.2</ele>
        <time>2021-09-07T13:01:40Z</time>
      </trkpt>
      <trkpt lat="44.43929" lon="5.55759">
        <ele>875.3</ele>
        <time>2021-09-07T13:01:41Z</time>
      </trkpt>
      <trkpt lat="44.43929" lon="5.5576">
        <ele>875.3</ele>
        <time>2021-09-07T13:01:42Z</time>
      </trkpt>
      <trkpt lat="44.43929" lon="5.55761">
        <ele>875.4</ele>
        <time>2021-09-07T13:01:43Z</time>
      </trkpt>
      <trkpt lat="44.43929" lon="5.55762">
        <ele>875.4</ele>
        <time>2021-09-07T13:01:44Z</time>
      </trkpt>
      <trkpt lat="44.43929" lon="5.55764">
        <ele>875.5</ele>
        <time>2021-09-07T13:01:45Z</time>
      </trkpt>
      <trkpt lat="44.43928" lon="5.5577">
        <ele>875.8</ele>
        <time>2021-09-07T13:01:46Z</time>
      </trkpt>
      <trkpt lat="44.43927" lon="5.55775">
        <ele>876</ele>
        <time>2021-09-07T13:01:47Z</time>
      </trkpt>
      <trkpt lat="44.43923" lon="5.55786">
        <ele>876.6</ele>
        <time>2021-09-07T13:01:48Z</time>
      </trkpt>
      <trkpt lat="44.43922" lon="5.55789">
        <ele>876.8</ele>
        <time>2021-09-07T13:01:49Z</time>
      </trkpt>
      <trkpt lat="44.4392" lon="5.55792">
        <ele>876.9</ele>
        <time>2021-09-07T13:01:50Z</time>
      </trkpt>
      <trkpt lat="44.43916" lon="5.558">
        <ele>877.2</ele>
        <time>2021-09-07T13:01:51Z</time>
      </trkpt>
      <trkpt lat="44.43915" lon="5.55803">
        <ele>877.2</ele>
        <time>2021-09-07T13:01:52Z</time>
      </trkpt>
      <trkpt lat="44.43914" lon="5.55806">
        <ele>877.2</ele>
        <time>2021-09-07T13:01:53Z</time>
      </trkpt>
      <trkpt lat="44.43912" lon="5.5581">
        <ele>877.4</ele>
        <time>2021-09-07T13:01:54Z</time>
      </trkpt>
      <trkpt lat="44.4391" lon="5.55813">
        <ele>877.6</ele>
        <time>2021-09-07T13:01:55Z</time>
      </trkpt>
      <trkpt lat="44.43908" lon="5.55815">
        <ele>877.8</ele>
        <time>2021-09-07T13:01:56Z</time>
      </trkpt>
      <trkpt lat="44.43905" lon="5.5582">
        <ele>878.2</ele>
        <time>2021-09-07T13:01:57Z</time>
      </trkpt>
      <trkpt lat="44.43905" lon="5.55821">
        <ele>878.3</ele>
        <time>2021-09-07T13:01:58Z</time>
      </trkpt>
      <trkpt lat="44.43904" lon="5.55822">
        <ele>878.4</ele>
        <time>2021-09-07T13:01:59Z</time>
      </trkpt>
      <trkpt lat="44.43903" lon="5.55825">
        <ele>878.5</ele>
        <time>2021-09-07T13:02:00Z</time>
      </trkpt>
      <trkpt lat="44.43902" lon="5.55827">
        <ele>878.7</ele>
        <time>2021-09-07T13:02:01Z</time>
      </trkpt>
      <trkpt lat="44.439" lon="5.55828">
        <ele>878.9</ele>
        <time>2021-09-07T13:02:02Z</time>
      </trkpt>
      <trkpt lat="44.43898" lon="5.5583">
        <ele>879.1</ele>
        <time>2021-09-07T13:02:03Z</time>
      </trkpt>
      <trkpt lat="44.43898" lon="5.55831">
        <ele>879.1</ele>
        <time>2021-09-07T13:02:04Z</time>
      </trkpt>
      <trkpt lat="44.43898" lon="5.55831">
        <ele>879.2</ele>
        <time>2021-09-07T13:02:05Z</time>
      </trkpt>
      <trkpt lat="44.43896" lon="5.55833">
        <ele>879.4</ele>
        <time>2021-09-07T13:02:06Z</time>
      </trkpt>
      <trkpt lat="44.43895" lon="5.55834">
        <ele>879.5</ele>
        <time>2021-09-07T13:02:07Z</time>
      </trkpt>
      <trkpt lat="44.43894" lon="5.55835">
        <ele>879.6</ele>
        <time>2021-09-07T13:02:08Z</time>
      </trkpt>
      <trkpt lat="44.43893" lon="5.55836">
        <ele>879.7</ele>
        <time>2021-09-07T13:02:09Z</time>
      </trkpt>
      <trkpt lat="44.43891" lon="5.55837">
        <ele>879.9</ele>
        <time>2021-09-07T13:02:10Z</time>
      </trkpt>
      <trkpt lat="44.43888" lon="5.5584">
        <ele>880.2</ele>
        <time>2021-09-07T13:02:11Z</time>
      </trkpt>
      <trkpt lat="44.43887" lon="5.55841">
        <ele>880.3</ele>
        <time>2021-09-07T13:02:12Z</time>
      </trkpt>
      <trkpt lat="44.43886" lon="5.55842">
        <ele>880.4</ele>
        <time>2021-09-07T13:02:13Z</time>
      </trkpt>
      <trkpt lat="44.43885" lon="5.55843">
        <ele>880.5</ele>
        <time>2021-09-07T13:02:14Z</time>
      </trkpt>
      <trkpt lat="44.43885" lon="5.55844">
        <ele>880.6</ele>
        <time>2021-09-07T13:02:15Z</time>
      </trkpt>
      <trkpt lat="44.43884" lon="5.55845">
        <ele>880.7</ele>
        <time>2021-09-07T13:02:16Z</time>
      </trkpt>
      <trkpt lat="44.43882" lon="5.55847">
        <ele>880.9</ele>
        <time>2021-09-07T13:02:17Z</time>
      </trkpt>
      <trkpt lat="44.43881" lon="5.55849">
        <ele>881.1</ele>
        <time>2021-09-07T13:02:18Z</time>
      </trkpt>
      <trkpt lat="44.4388" lon="5.5585">
        <ele>881.2</ele>
        <time>2021-09-07T13:02:19Z</time>
      </trkpt>
      <trkpt lat="44.43878" lon="5.55852">
        <ele>881.5</ele>
        <time>2021-09-07T13:02:20Z</time>
      </trkpt>
      <trkpt lat="44.43878" lon="5.55853">
        <ele>881.5</ele>
        <time>2021-09-07T13:02:21Z</time>
      </trkpt>
      <trkpt lat="44.43877" lon="5.55854">
        <ele>881.6</ele>
        <time>2021-09-07T13:02:22Z</time>
      </trkpt>
      <trkpt lat="44.43876" lon="5.55856">
        <ele>881.8</ele>
        <time>2021-09-07T13:02:23Z</time>
      </trkpt>
      <trkpt lat="44.43874" lon="5.55858">
        <ele>882</ele>
        <time>2021-09-07T13:02:24Z</time>
      </trkpt>
      <trkpt lat="44.43874" lon="5.55859">
        <ele>882.1</ele>
        <time>2021-09-07T13:02:25Z</time>
      </trkpt>
      <trkpt lat="44.43873" lon="5.5586">
        <ele>882.2</ele>
        <time>2021-09-07T13:02:26Z</time>
      </trkpt>
      <trkpt lat="44.43871" lon="5.55861">
        <ele>882.4</ele>
        <time>2021-09-07T13:02:27Z</time>
      </trkpt>
      <trkpt lat="44.4387" lon="5.55863">
        <ele>882.6</ele>
        <time>2021-09-07T13:02:28Z</time>
      </trkpt>
      <trkpt lat="44.43869" lon="5.55864">
        <ele>882.7</ele>
        <time>2021-09-07T13:02:29Z</time>
      </trkpt>
      <trkpt lat="44.43868" lon="5.55864">
        <ele>882.8</ele>
        <time>2021-09-07T13:02:30Z</time>
      </trkpt>
      <trkpt lat="44.43867" lon="5.55865">
        <ele>882.9</ele>
        <time>2021-09-07T13:02:31Z</time>
      </trkpt>
      <trkpt lat="44.43866" lon="5.55866">
        <ele>883.1</ele>
        <time>2021-09-07T13:02:32Z</time>
      </trkpt>
      <trkpt lat="44.43864" lon="5.55867">
        <ele>883.3</ele>
        <time>2021-09-07T13:02:33Z</time>
      </trkpt>
      <trkpt lat="44.43864" lon="5.55868">
        <ele>883.4</ele>
        <time>2021-09-07T13:02:34Z</time>
      </trkpt>
      <trkpt lat="44.43863" lon="5.55868">
        <ele>883.4</ele>
        <time>2021-09-07T13:02:35Z</time>
      </trkpt>
      <trkpt lat="44.43861" lon="5.55868">
        <ele>883.6</ele>
        <time>2021-09-07T13:02:36Z</time>
      </trkpt>
      <trkpt lat="44.4386" lon="5.55869">
        <ele>883.8</ele>
        <time>2021-09-07T13:02:37Z</time>
      </trkpt>
      <trkpt lat="44.43859" lon="5.5587">
        <ele>883.9</ele>
        <time>2021-09-07T13:02:38Z</time>
      </trkpt>
      <trkpt lat="44.43857" lon="5.55871">
        <ele>884.1</ele>
        <time>2021-09-07T13:02:39Z</time>
      </trkpt>
      <trkpt lat="44.43856" lon="5.55871">
        <ele>884.3</ele>
        <time>2021-09-07T13:02:40Z</time>
      </trkpt>
      <trkpt lat="44.43854" lon="5.55871">
        <ele>884.5</ele>
        <time>2021-09-07T13:02:41Z</time>
      </trkpt>
      <trkpt lat="44.43852" lon="5.55871">
        <ele>884.7</ele>
        <time>2021-09-07T13:02:42Z</time>
      </trkpt>
      <trkpt lat="44.43851" lon="5.55871">
        <ele>884.8</ele>
        <time>2021-09-07T13:02:43Z</time>
      </trkpt>
      <trkpt lat="44.4385" lon="5.5587">
        <ele>884.9</ele>
        <time>2021-09-07T13:02:44Z</time>
      </trkpt>
      <trkpt lat="44.43849" lon="5.55869">
        <ele>885</ele>
        <time>2021-09-07T13:02:45Z</time>
      </trkpt>
      <trkpt lat="44.43848" lon="5.55867">
        <ele>885.1</ele>
        <time>2021-09-07T13:02:46Z</time>
      </trkpt>
      <trkpt lat="44.43847" lon="5.55866">
        <ele>885.2</ele>
        <time>2021-09-07T13:02:47Z</time>
      </trkpt>
      <trkpt lat="44.43846" lon="5.55861">
        <ele>885.5</ele>
        <time>2021-09-07T13:02:48Z</time>
      </trkpt>
      <trkpt lat="44.43846" lon="5.5586">
        <ele>885.6</ele>
        <time>2021-09-07T13:02:49Z</time>
      </trkpt>
      <trkpt lat="44.43845" lon="5.55858">
        <ele>885.7</ele>
        <time>2021-09-07T13:02:50Z</time>
      </trkpt>
      <trkpt lat="44.43845" lon="5.55857">
        <ele>885.8</ele>
        <time>2021-09-07T13:02:51Z</time>
      </trkpt>
      <trkpt lat="44.43844" lon="5.55856">
        <ele>885.9</ele>
        <time>2021-09-07T13:02:52Z</time>
      </trkpt>
      <trkpt lat="44.43844" lon="5.55855">
        <ele>886</ele>
        <time>2021-09-07T13:02:53Z</time>
      </trkpt>
      <trkpt lat="44.43845" lon="5.55855">
        <ele>886</ele>
        <time>2021-09-07T13:02:54Z</time>
      </trkpt>
      <trkpt lat="44.43845" lon="5.55854">
        <ele>886.1</ele>
        <time>2021-09-07T13:02:55Z</time>
      </trkpt>
      <trkpt lat="44.43846" lon="5.55852">
        <ele>886.2</ele>
        <time>2021-09-07T13:02:56Z</time>
      </trkpt>
      <trkpt lat="44.43847" lon="5.55852">
        <ele>886.3</ele>
        <time>2021-09-07T13:02:57Z</time>
      </trkpt>
      <trkpt lat="44.43847" lon="5.55852">
        <ele>886.3</ele>
        <time>2021-09-07T13:02:58Z</time>
      </trkpt>
      <trkpt lat="44.43848" lon="5.5585">
        <ele>886.4</ele>
        <time>2021-09-07T13:02:59Z</time>
      </trkpt>
      <trkpt lat="44.4385" lon="5.55849">
        <ele>886.6</ele>
        <time>2021-09-07T13:03:00Z</time>
      </trkpt>
      <trkpt lat="44.43853" lon="5.5585">
        <ele>886.9</ele>
        <time>2021-09-07T13:03:01Z</time>
      </trkpt>
      <trkpt lat="44.43855" lon="5.5585">
        <ele>887</ele>
        <time>2021-09-07T13:03:02Z</time>
      </trkpt>
      <trkpt lat="44.43857" lon="5.5585">
        <ele>887.2</ele>
        <time>2021-09-07T13:03:03Z</time>
      </trkpt>
      <trkpt lat="44.4386" lon="5.55849">
        <ele>887.4</ele>
        <time>2021-09-07T13:03:04Z</time>
      </trkpt>
      <trkpt lat="44.43862" lon="5.55849">
        <ele>887.5</ele>
        <time>2021-09-07T13:03:05Z</time>
      </trkpt>
      <trkpt lat="44.43863" lon="5.55848">
        <ele>887.6</ele>
        <time>2021-09-07T13:03:06Z</time>
      </trkpt>
      <trkpt lat="44.43865" lon="5.55847">
        <ele>887.8</ele>
        <time>2021-09-07T13:03:07Z</time>
      </trkpt>
      <trkpt lat="44.43867" lon="5.55845">
        <ele>887.9</ele>
        <time>2021-09-07T13:03:08Z</time>
      </trkpt>
      <trkpt lat="44.4387" lon="5.55842">
        <ele>888.2</ele>
        <time>2021-09-07T13:03:09Z</time>
      </trkpt>
      <trkpt lat="44.43872" lon="5.55841">
        <ele>888.3</ele>
        <time>2021-09-07T13:03:10Z</time>
      </trkpt>
      <trkpt lat="44.43874" lon="5.55839">
        <ele>888.4</ele>
        <time>2021-09-07T13:03:11Z</time>
      </trkpt>
      <trkpt lat="44.43875" lon="5.55837">
        <ele>888.5</ele>
        <time>2021-09-07T13:03:12Z</time>
      </trkpt>
      <trkpt lat="44.43876" lon="5.55837">
        <ele>888.6</ele>
        <time>2021-09-07T13:03:13Z</time>
      </trkpt>
      <trkpt lat="44.43877" lon="5.55836">
        <ele>888.7</ele>
        <time>2021-09-07T13:03:14Z</time>
      </trkpt>
      <trkpt lat="44.43878" lon="5.55833">
        <ele>888.8</ele>
        <time>2021-09-07T13:03:15Z</time>
      </trkpt>
      <trkpt lat="44.43879" lon="5.55832">
        <ele>888.8</ele>
        <time>2021-09-07T13:03:16Z</time>
      </trkpt>
      <trkpt lat="44.4388" lon="5.55831">
        <ele>888.9</ele>
        <time>2021-09-07T13:03:17Z</time>
      </trkpt>
      <trkpt lat="44.43882" lon="5.55829">
        <ele>889</ele>
        <time>2021-09-07T13:03:18Z</time>
      </trkpt>
      <trkpt lat="44.43883" lon="5.55828">
        <ele>889.1</ele>
        <time>2021-09-07T13:03:19Z</time>
      </trkpt>
      <trkpt lat="44.43883" lon="5.55826">
        <ele>889.2</ele>
        <time>2021-09-07T13:03:20Z</time>
      </trkpt>
      <trkpt lat="44.43884" lon="5.55824">
        <ele>889.3</ele>
        <time>2021-09-07T13:03:21Z</time>
      </trkpt>
      <trkpt lat="44.43885" lon="5.55822">
        <ele>889.3</ele>
        <time>2021-09-07T13:03:22Z</time>
      </trkpt>
      <trkpt lat="44.43885" lon="5.5582">
        <ele>889.4</ele>
        <time>2021-09-07T13:03:23Z</time>
      </trkpt>
      <trkpt lat="44.43886" lon="5.55817">
        <ele>889.5</ele>
        <time>2021-09-07T13:03:24Z</time>
      </trkpt>
      <trkpt lat="44.43887" lon="5.55816">
        <ele>889.6</ele>
        <time>2021-09-07T13:03:25Z</time>
      </trkpt>
      <trkpt lat="44.43887" lon="5.55815">
        <ele>889.6</ele>
        <time>2021-09-07T13:03:26Z</time>
      </trkpt>
      <trkpt lat="44.43887" lon="5.55812">
        <ele>889.7</ele>
        <time>2021-09-07T13:03:27Z</time>
      </trkpt>
      <trkpt lat="44.43887" lon="5.55811">
        <ele>889.8</ele>
        <time>2021-09-07T13:03:28Z</time>
      </trkpt>
      <trkpt lat="44.43887" lon="5.5581">
        <ele>889.8</ele>
        <time>2021-09-07T13:03:29Z</time>
      </trkpt>
      <trkpt lat="44.43888" lon="5.55808">
        <ele>889.9</ele>
        <time>2021-09-07T13:03:30Z</time>
      </trkpt>
      <trkpt lat="44.43888" lon="5.55807">
        <ele>890</ele>
        <time>2021-09-07T13:03:31Z</time>
      </trkpt>
      <trkpt lat="44.43889" lon="5.55804">
        <ele>890.1</ele>
        <time>2021-09-07T13:03:32Z</time>
      </trkpt>
      <trkpt lat="44.43889" lon="5.55803">
        <ele>890.1</ele>
        <time>2021-09-07T13:03:33Z</time>
      </trkpt>
      <trkpt lat="44.43889" lon="5.55802">
        <ele>890.2</ele>
        <time>2021-09-07T13:03:34Z</time>
      </trkpt>
      <trkpt lat="44.4389" lon="5.558">
        <ele>890.3</ele>
        <time>2021-09-07T13:03:35Z</time>
      </trkpt>
      <trkpt lat="44.43891" lon="5.55799">
        <ele>890.3</ele>
        <time>2021-09-07T13:03:36Z</time>
      </trkpt>
      <trkpt lat="44.43891" lon="5.55797">
        <ele>890.4</ele>
        <time>2021-09-07T13:03:37Z</time>
      </trkpt>
      <trkpt lat="44.43893" lon="5.55794">
        <ele>890.6</ele>
        <time>2021-09-07T13:03:38Z</time>
      </trkpt>
      <trkpt lat="44.43894" lon="5.55793">
        <ele>890.6</ele>
        <time>2021-09-07T13:03:39Z</time>
      </trkpt>
      <trkpt lat="44.43894" lon="5.55792">
        <ele>890.7</ele>
        <time>2021-09-07T13:03:40Z</time>
      </trkpt>
      <trkpt lat="44.43895" lon="5.5579">
        <ele>890.8</ele>
        <time>2021-09-07T13:03:41Z</time>
      </trkpt>
      <trkpt lat="44.43897" lon="5.55787">
        <ele>890.9</ele>
        <time>2021-09-07T13:03:42Z</time>
      </trkpt>
      <trkpt lat="44.43898" lon="5.55787">
        <ele>891</ele>
        <time>2021-09-07T13:03:43Z</time>
      </trkpt>
      <trkpt lat="44.43899" lon="5.55786">
        <ele>891</ele>
        <time>2021-09-07T13:03:44Z</time>
      </trkpt>
      <trkpt lat="44.439" lon="5.55785">
        <ele>891.1</ele>
        <time>2021-09-07T13:03:45Z</time>
      </trkpt>
      <trkpt lat="44.43901" lon="5.55783">
        <ele>891.2</ele>
        <time>2021-09-07T13:03:46Z</time>
      </trkpt>
      <trkpt lat="44.43903" lon="5.5578">
        <ele>891.4</ele>
        <time>2021-09-07T13:03:47Z</time>
      </trkpt>
      <trkpt lat="44.43904" lon="5.55779">
        <ele>891.5</ele>
        <time>2021-09-07T13:03:48Z</time>
      </trkpt>
      <trkpt lat="44.43904" lon="5.55778">
        <ele>891.5</ele>
        <time>2021-09-07T13:03:49Z</time>
      </trkpt>
      <trkpt lat="44.43905" lon="5.55776">
        <ele>891.6</ele>
        <time>2021-09-07T13:03:50Z</time>
      </trkpt>
      <trkpt lat="44.43906" lon="5.55775">
        <ele>891.7</ele>
        <time>2021-09-07T13:03:51Z</time>
      </trkpt>
      <trkpt lat="44.43906" lon="5.55773">
        <ele>891.8</ele>
        <time>2021-09-07T13:03:52Z</time>
      </trkpt>
      <trkpt lat="44.43907" lon="5.5577">
        <ele>891.9</ele>
        <time>2021-09-07T13:03:53Z</time>
      </trkpt>
      <trkpt lat="44.43907" lon="5.55769">
        <ele>892</ele>
        <time>2021-09-07T13:03:54Z</time>
      </trkpt>
      <trkpt lat="44.43907" lon="5.55768">
        <ele>892</ele>
        <time>2021-09-07T13:03:55Z</time>
      </trkpt>
      <trkpt lat="44.43908" lon="5.55767">
        <ele>892.1</ele>
        <time>2021-09-07T13:03:56Z</time>
      </trkpt>
      <trkpt lat="44.43909" lon="5.55766">
        <ele>892.2</ele>
        <time>2021-09-07T13:03:57Z</time>
      </trkpt>
      <trkpt lat="44.43909" lon="5.55765">
        <ele>892.2</ele>
        <time>2021-09-07T13:03:58Z</time>
      </trkpt>
      <trkpt lat="44.43908" lon="5.55764">
        <ele>892.3</ele>
        <time>2021-09-07T13:03:59Z</time>
      </trkpt>
      <trkpt lat="44.43908" lon="5.55763">
        <ele>892.4</ele>
        <time>2021-09-07T13:04:00Z</time>
      </trkpt>
      <trkpt lat="44.43908" lon="5.55761">
        <ele>892.5</ele>
        <time>2021-09-07T13:04:01Z</time>
      </trkpt>
      <trkpt lat="44.43908" lon="5.55759">
        <ele>892.6</ele>
        <time>2021-09-07T13:04:02Z</time>
      </trkpt>
      <trkpt lat="44.43908" lon="5.55755">
        <ele>892.8</ele>
        <time>2021-09-07T13:04:03Z</time>
      </trkpt>
      <trkpt lat="44.43909" lon="5.55754">
        <ele>892.9</ele>
        <time>2021-09-07T13:04:04Z</time>
      </trkpt>
      <trkpt lat="44.43909" lon="5.55752">
        <ele>892.9</ele>
        <time>2021-09-07T13:04:05Z</time>
      </trkpt>
      <trkpt lat="44.4391" lon="5.55751">
        <ele>893</ele>
        <time>2021-09-07T13:04:06Z</time>
      </trkpt>
      <trkpt lat="44.43911" lon="5.55747">
        <ele>893.2</ele>
        <time>2021-09-07T13:04:07Z</time>
      </trkpt>
      <trkpt lat="44.43911" lon="5.55746">
        <ele>893.3</ele>
        <time>2021-09-07T13:04:08Z</time>
      </trkpt>
      <trkpt lat="44.43911" lon="5.55745">
        <ele>893.3</ele>
        <time>2021-09-07T13:04:09Z</time>
      </trkpt>
      <trkpt lat="44.43912" lon="5.55743">
        <ele>893.5</ele>
        <time>2021-09-07T13:04:10Z</time>
      </trkpt>
      <trkpt lat="44.43912" lon="5.55741">
        <ele>893.6</ele>
        <time>2021-09-07T13:04:11Z</time>
      </trkpt>
      <trkpt lat="44.43913" lon="5.55738">
        <ele>893.7</ele>
        <time>2021-09-07T13:04:12Z</time>
      </trkpt>
      <trkpt lat="44.43914" lon="5.55736">
        <ele>893.9</ele>
        <time>2021-09-07T13:04:13Z</time>
      </trkpt>
      <trkpt lat="44.43914" lon="5.55733">
        <ele>894</ele>
        <time>2021-09-07T13:04:14Z</time>
      </trkpt>
      <trkpt lat="44.43913" lon="5.55729">
        <ele>894.2</ele>
        <time>2021-09-07T13:04:15Z</time>
      </trkpt>
      <trkpt lat="44.43913" lon="5.55728">
        <ele>894.3</ele>
        <time>2021-09-07T13:04:16Z</time>
      </trkpt>
      <trkpt lat="44.43913" lon="5.55726">
        <ele>894.4</ele>
        <time>2021-09-07T13:04:17Z</time>
      </trkpt>
      <trkpt lat="44.43912" lon="5.55723">
        <ele>894.5</ele>
        <time>2021-09-07T13:04:18Z</time>
      </trkpt>
      <trkpt lat="44.4391" lon="5.55722">
        <ele>894.7</ele>
        <time>2021-09-07T13:04:19Z</time>
      </trkpt>
      <trkpt lat="44.43909" lon="5.55722">
        <ele>894.8</ele>
        <time>2021-09-07T13:04:20Z</time>
      </trkpt>
      <trkpt lat="44.43907" lon="5.55721">
        <ele>894.9</ele>
        <time>2021-09-07T13:04:21Z</time>
      </trkpt>
      <trkpt lat="44.43904" lon="5.55722">
        <ele>895.1</ele>
        <time>2021-09-07T13:04:22Z</time>
      </trkpt>
      <trkpt lat="44.43903" lon="5.55723">
        <ele>895.2</ele>
        <time>2021-09-07T13:04:23Z</time>
      </trkpt>
      <trkpt lat="44.43902" lon="5.55723">
        <ele>895.2</ele>
        <time>2021-09-07T13:04:24Z</time>
      </trkpt>
      <trkpt lat="44.43899" lon="5.55726">
        <ele>895.5</ele>
        <time>2021-09-07T13:04:25Z</time>
      </trkpt>
      <trkpt lat="44.43899" lon="5.55727">
        <ele>895.5</ele>
        <time>2021-09-07T13:04:26Z</time>
      </trkpt>
      <trkpt lat="44.43898" lon="5.55728">
        <ele>895.6</ele>
        <time>2021-09-07T13:04:27Z</time>
      </trkpt>
      <trkpt lat="44.43897" lon="5.55729">
        <ele>895.7</ele>
        <time>2021-09-07T13:04:28Z</time>
      </trkpt>
      <trkpt lat="44.43896" lon="5.55731">
        <ele>895.8</ele>
        <time>2021-09-07T13:04:29Z</time>
      </trkpt>
      <trkpt lat="44.43894" lon="5.55733">
        <ele>895.9</ele>
        <time>2021-09-07T13:04:30Z</time>
      </trkpt>
      <trkpt lat="44.43893" lon="5.55737">
        <ele>896.1</ele>
        <time>2021-09-07T13:04:31Z</time>
      </trkpt>
      <trkpt lat="44.43893" lon="5.55738">
        <ele>896.1</ele>
        <time>2021-09-07T13:04:32Z</time>
      </trkpt>
      <trkpt lat="44.43892" lon="5.55739">
        <ele>896.2</ele>
        <time>2021-09-07T13:04:33Z</time>
      </trkpt>
      <trkpt lat="44.4389" lon="5.55741">
        <ele>896.3</ele>
        <time>2021-09-07T13:04:34Z</time>
      </trkpt>
      <trkpt lat="44.43889" lon="5.55743">
        <ele>896.4</ele>
        <time>2021-09-07T13:04:35Z</time>
      </trkpt>
      <trkpt lat="44.43889" lon="5.55746">
        <ele>896.6</ele>
        <time>2021-09-07T13:04:36Z</time>
      </trkpt>
      <trkpt lat="44.43888" lon="5.55749">
        <ele>896.7</ele>
        <time>2021-09-07T13:04:37Z</time>
      </trkpt>
      <trkpt lat="44.43888" lon="5.5575">
        <ele>896.7</ele>
        <time>2021-09-07T13:04:38Z</time>
      </trkpt>
      <trkpt lat="44.43887" lon="5.55751">
        <ele>896.8</ele>
        <time>2021-09-07T13:04:39Z</time>
      </trkpt>
      <trkpt lat="44.43887" lon="5.55753">
        <ele>896.9</ele>
        <time>2021-09-07T13:04:40Z</time>
      </trkpt>
      <trkpt lat="44.43886" lon="5.55755">
        <ele>897</ele>
        <time>2021-09-07T13:04:41Z</time>
      </trkpt>
      <trkpt lat="44.43885" lon="5.55756">
        <ele>897.1</ele>
        <time>2021-09-07T13:04:42Z</time>
      </trkpt>
      <trkpt lat="44.43884" lon="5.55758">
        <ele>897.2</ele>
        <time>2021-09-07T13:04:43Z</time>
      </trkpt>
      <trkpt lat="44.43883" lon="5.5576">
        <ele>897.3</ele>
        <time>2021-09-07T13:04:44Z</time>
      </trkpt>
      <trkpt lat="44.43882" lon="5.55762">
        <ele>897.4</ele>
        <time>2021-09-07T13:04:45Z</time>
      </trkpt>
      <trkpt lat="44.43881" lon="5.55764">
        <ele>897.5</ele>
        <time>2021-09-07T13:04:46Z</time>
      </trkpt>
      <trkpt lat="44.4388" lon="5.55765">
        <ele>897.6</ele>
        <time>2021-09-07T13:04:47Z</time>
      </trkpt>
      <trkpt lat="44.43879" lon="5.55766">
        <ele>897.7</ele>
        <time>2021-09-07T13:04:48Z</time>
      </trkpt>
      <trkpt lat="44.43877" lon="5.55768">
        <ele>897.8</ele>
        <time>2021-09-07T13:04:49Z</time>
      </trkpt>
      <trkpt lat="44.43876" lon="5.55769">
        <ele>897.9</ele>
        <time>2021-09-07T13:04:50Z</time>
      </trkpt>
      <trkpt lat="44.43875" lon="5.5577">
        <ele>898</ele>
        <time>2021-09-07T13:04:51Z</time>
      </trkpt>
      <trkpt lat="44.43874" lon="5.55773">
        <ele>898.1</ele>
        <time>2021-09-07T13:04:52Z</time>
      </trkpt>
      <trkpt lat="44.43874" lon="5.55774">
        <ele>898.2</ele>
        <time>2021-09-07T13:04:53Z</time>
      </trkpt>
      <trkpt lat="44.43873" lon="5.55775">
        <ele>898.2</ele>
        <time>2021-09-07T13:04:54Z</time>
      </trkpt>
      <trkpt lat="44.43872" lon="5.55777">
        <ele>898.3</ele>
        <time>2021-09-07T13:04:55Z</time>
      </trkpt>
      <trkpt lat="44.43871" lon="5.55778">
        <ele>898.4</ele>
        <time>2021-09-07T13:04:56Z</time>
      </trkpt>
      <trkpt lat="44.43869" lon="5.55782">
        <ele>898.7</ele>
        <time>2021-09-07T13:04:57Z</time>
      </trkpt>
      <trkpt lat="44.43869" lon="5.55783">
        <ele>898.7</ele>
        <time>2021-09-07T13:04:58Z</time>
      </trkpt>
      <trkpt lat="44.43868" lon="5.55783">
        <ele>898.7</ele>
        <time>2021-09-07T13:04:59Z</time>
      </trkpt>
      <trkpt lat="44.43867" lon="5.55785">
        <ele>898.9</ele>
        <time>2021-09-07T13:05:00Z</time>
      </trkpt>
      <trkpt lat="44.43867" lon="5.55786">
        <ele>898.9</ele>
        <time>2021-09-07T13:05:01Z</time>
      </trkpt>
      <trkpt lat="44.43866" lon="5.55787">
        <ele>899</ele>
        <time>2021-09-07T13:05:02Z</time>
      </trkpt>
      <trkpt lat="44.43865" lon="5.55789">
        <ele>899.1</ele>
        <time>2021-09-07T13:05:03Z</time>
      </trkpt>
      <trkpt lat="44.43864" lon="5.5579">
        <ele>899.2</ele>
        <time>2021-09-07T13:05:04Z</time>
      </trkpt>
      <trkpt lat="44.43864" lon="5.55792">
        <ele>899.3</ele>
        <time>2021-09-07T13:05:05Z</time>
      </trkpt>
      <trkpt lat="44.43863" lon="5.55794">
        <ele>899.4</ele>
        <time>2021-09-07T13:05:06Z</time>
      </trkpt>
      <trkpt lat="44.43863" lon="5.55796">
        <ele>899.5</ele>
        <time>2021-09-07T13:05:07Z</time>
      </trkpt>
      <trkpt lat="44.43862" lon="5.55798">
        <ele>899.6</ele>
        <time>2021-09-07T13:05:08Z</time>
      </trkpt>
      <trkpt lat="44.43862" lon="5.558">
        <ele>899.7</ele>
        <time>2021-09-07T13:05:09Z</time>
      </trkpt>
      <trkpt lat="44.43861" lon="5.55802">
        <ele>899.8</ele>
        <time>2021-09-07T13:05:10Z</time>
      </trkpt>
      <trkpt lat="44.43859" lon="5.55806">
        <ele>900.1</ele>
        <time>2021-09-07T13:05:11Z</time>
      </trkpt>
      <trkpt lat="44.43859" lon="5.55808">
        <ele>900.1</ele>
        <time>2021-09-07T13:05:12Z</time>
      </trkpt>
      <trkpt lat="44.43858" lon="5.55809">
        <ele>900.2</ele>
        <time>2021-09-07T13:05:13Z</time>
      </trkpt>
      <trkpt lat="44.43857" lon="5.5581">
        <ele>900.3</ele>
        <time>2021-09-07T13:05:14Z</time>
      </trkpt>
      <trkpt lat="44.43856" lon="5.55812">
        <ele>900.4</ele>
        <time>2021-09-07T13:05:15Z</time>
      </trkpt>
      <trkpt lat="44.43855" lon="5.55813">
        <ele>900.5</ele>
        <time>2021-09-07T13:05:16Z</time>
      </trkpt>
      <trkpt lat="44.43853" lon="5.55815">
        <ele>900.7</ele>
        <time>2021-09-07T13:05:17Z</time>
      </trkpt>
      <trkpt lat="44.43852" lon="5.55816">
        <ele>900.8</ele>
        <time>2021-09-07T13:05:18Z</time>
      </trkpt>
      <trkpt lat="44.43851" lon="5.55817">
        <ele>900.9</ele>
        <time>2021-09-07T13:05:19Z</time>
      </trkpt>
      <trkpt lat="44.43851" lon="5.55818">
        <ele>901</ele>
        <time>2021-09-07T13:05:20Z</time>
      </trkpt>
      <trkpt lat="44.4385" lon="5.5582">
        <ele>901.1</ele>
        <time>2021-09-07T13:05:21Z</time>
      </trkpt>
      <trkpt lat="44.43849" lon="5.55821">
        <ele>901.2</ele>
        <time>2021-09-07T13:05:22Z</time>
      </trkpt>
      <trkpt lat="44.43847" lon="5.55822">
        <ele>901.3</ele>
        <time>2021-09-07T13:05:23Z</time>
      </trkpt>
      <trkpt lat="44.43845" lon="5.55823">
        <ele>901.5</ele>
        <time>2021-09-07T13:05:24Z</time>
      </trkpt>
      <trkpt lat="44.43843" lon="5.55823">
        <ele>901.6</ele>
        <time>2021-09-07T13:05:25Z</time>
      </trkpt>
      <trkpt lat="44.4384" lon="5.55823">
        <ele>901.9</ele>
        <time>2021-09-07T13:05:26Z</time>
      </trkpt>
      <trkpt lat="44.43839" lon="5.55823">
        <ele>902</ele>
        <time>2021-09-07T13:05:27Z</time>
      </trkpt>
      <trkpt lat="44.43838" lon="5.55822">
        <ele>902</ele>
        <time>2021-09-07T13:05:28Z</time>
      </trkpt>
      <trkpt lat="44.43836" lon="5.55821">
        <ele>902.2</ele>
        <time>2021-09-07T13:05:29Z</time>
      </trkpt>
      <trkpt lat="44.43834" lon="5.5582">
        <ele>902.4</ele>
        <time>2021-09-07T13:05:30Z</time>
      </trkpt>
      <trkpt lat="44.43831" lon="5.55817">
        <ele>902.7</ele>
        <time>2021-09-07T13:05:31Z</time>
      </trkpt>
      <trkpt lat="44.4383" lon="5.55816">
        <ele>902.8</ele>
        <time>2021-09-07T13:05:32Z</time>
      </trkpt>
      <trkpt lat="44.43829" lon="5.55815">
        <ele>902.9</ele>
        <time>2021-09-07T13:05:33Z</time>
      </trkpt>
      <trkpt lat="44.43828" lon="5.55813">
        <ele>903</ele>
        <time>2021-09-07T13:05:34Z</time>
      </trkpt>
      <trkpt lat="44.43827" lon="5.55812">
        <ele>903.1</ele>
        <time>2021-09-07T13:05:35Z</time>
      </trkpt>
      <trkpt lat="44.43826" lon="5.5581">
        <ele>903.3</ele>
        <time>2021-09-07T13:05:36Z</time>
      </trkpt>
      <trkpt lat="44.43824" lon="5.55808">
        <ele>903.5</ele>
        <time>2021-09-07T13:05:37Z</time>
      </trkpt>
      <trkpt lat="44.43824" lon="5.55807">
        <ele>903.6</ele>
        <time>2021-09-07T13:05:38Z</time>
      </trkpt>
      <trkpt lat="44.43823" lon="5.55805">
        <ele>903.7</ele>
        <time>2021-09-07T13:05:39Z</time>
      </trkpt>
      <trkpt lat="44.43822" lon="5.55804">
        <ele>903.8</ele>
        <time>2021-09-07T13:05:40Z</time>
      </trkpt>
      <trkpt lat="44.43821" lon="5.55802">
        <ele>903.9</ele>
        <time>2021-09-07T13:05:41Z</time>
      </trkpt>
      <trkpt lat="44.4382" lon="5.558">
        <ele>904.1</ele>
        <time>2021-09-07T13:05:42Z</time>
      </trkpt>
      <trkpt lat="44.43819" lon="5.55799">
        <ele>904.2</ele>
        <time>2021-09-07T13:05:43Z</time>
      </trkpt>
      <trkpt lat="44.43817" lon="5.55799">
        <ele>904.3</ele>
        <time>2021-09-07T13:05:44Z</time>
      </trkpt>
      <trkpt lat="44.43815" lon="5.55798">
        <ele>904.5</ele>
        <time>2021-09-07T13:05:45Z</time>
      </trkpt>
      <trkpt lat="44.43814" lon="5.55798">
        <ele>904.6</ele>
        <time>2021-09-07T13:05:46Z</time>
      </trkpt>
      <trkpt lat="44.43813" lon="5.55798">
        <ele>904.7</ele>
        <time>2021-09-07T13:05:47Z</time>
      </trkpt>
      <trkpt lat="44.43811" lon="5.55797">
        <ele>904.8</ele>
        <time>2021-09-07T13:05:48Z</time>
      </trkpt>
      <trkpt lat="44.4381" lon="5.55797">
        <ele>904.9</ele>
        <time>2021-09-07T13:05:49Z</time>
      </trkpt>
      <trkpt lat="44.43809" lon="5.55797">
        <ele>905</ele>
        <time>2021-09-07T13:05:50Z</time>
      </trkpt>
      <trkpt lat="44.43807" lon="5.55795">
        <ele>905.2</ele>
        <time>2021-09-07T13:05:51Z</time>
      </trkpt>
      <trkpt lat="44.43806" lon="5.55795">
        <ele>905.3</ele>
        <time>2021-09-07T13:05:52Z</time>
      </trkpt>
      <trkpt lat="44.43805" lon="5.55795">
        <ele>905.4</ele>
        <time>2021-09-07T13:05:53Z</time>
      </trkpt>
      <trkpt lat="44.43804" lon="5.55794">
        <ele>905.5</ele>
        <time>2021-09-07T13:05:54Z</time>
      </trkpt>
      <trkpt lat="44.43803" lon="5.55793">
        <ele>905.6</ele>
        <time>2021-09-07T13:05:55Z</time>
      </trkpt>
      <trkpt lat="44.43802" lon="5.55792">
        <ele>905.7</ele>
        <time>2021-09-07T13:05:56Z</time>
      </trkpt>
      <trkpt lat="44.43801" lon="5.55792">
        <ele>905.8</ele>
        <time>2021-09-07T13:05:57Z</time>
      </trkpt>
      <trkpt lat="44.438" lon="5.55791">
        <ele>905.9</ele>
        <time>2021-09-07T13:05:58Z</time>
      </trkpt>
      <trkpt lat="44.43798" lon="5.55789">
        <ele>906.1</ele>
        <time>2021-09-07T13:05:59Z</time>
      </trkpt>
      <trkpt lat="44.43797" lon="5.55789">
        <ele>906.1</ele>
        <time>2021-09-07T13:06:00Z</time>
      </trkpt>
      <trkpt lat="44.43796" lon="5.55788">
        <ele>906.2</ele>
        <time>2021-09-07T13:06:01Z</time>
      </trkpt>
      <trkpt lat="44.43795" lon="5.55789">
        <ele>906.4</ele>
        <time>2021-09-07T13:06:02Z</time>
      </trkpt>
      <trkpt lat="44.43793" lon="5.55789">
        <ele>906.5</ele>
        <time>2021-09-07T13:06:03Z</time>
      </trkpt>
      <trkpt lat="44.43792" lon="5.55789">
        <ele>906.6</ele>
        <time>2021-09-07T13:06:04Z</time>
      </trkpt>
      <trkpt lat="44.43791" lon="5.55789">
        <ele>906.7</ele>
        <time>2021-09-07T13:06:05Z</time>
      </trkpt>
      <trkpt lat="44.43789" lon="5.55789">
        <ele>906.8</ele>
        <time>2021-09-07T13:06:06Z</time>
      </trkpt>
      <trkpt lat="44.43787" lon="5.55789">
        <ele>907</ele>
        <time>2021-09-07T13:06:07Z</time>
      </trkpt>
      <trkpt lat="44.43786" lon="5.55789">
        <ele>907.1</ele>
        <time>2021-09-07T13:06:08Z</time>
      </trkpt>
      <trkpt lat="44.43784" lon="5.55789">
        <ele>907.2</ele>
        <time>2021-09-07T13:06:09Z</time>
      </trkpt>
      <trkpt lat="44.43783" lon="5.55789">
        <ele>907.3</ele>
        <time>2021-09-07T13:06:10Z</time>
      </trkpt>
      <trkpt lat="44.43782" lon="5.55789">
        <ele>907.4</ele>
        <time>2021-09-07T13:06:11Z</time>
      </trkpt>
      <trkpt lat="44.43781" lon="5.55789">
        <ele>907.4</ele>
        <time>2021-09-07T13:06:12Z</time>
      </trkpt>
      <trkpt lat="44.43779" lon="5.5579">
        <ele>907.6</ele>
        <time>2021-09-07T13:06:13Z</time>
      </trkpt>
      <trkpt lat="44.43779" lon="5.5579">
        <ele>907.6</ele>
        <time>2021-09-07T13:06:14Z</time>
      </trkpt>
      <trkpt lat="44.43778" lon="5.5579">
        <ele>907.7</ele>
        <time>2021-09-07T13:06:15Z</time>
      </trkpt>
      <trkpt lat="44.43778" lon="5.55789">
        <ele>907.8</ele>
        <time>2021-09-07T13:06:16Z</time>
      </trkpt>
      <trkpt lat="44.43777" lon="5.55788">
        <ele>907.8</ele>
        <time>2021-09-07T13:06:17Z</time>
      </trkpt>
      <trkpt lat="44.43776" lon="5.55789">
        <ele>907.9</ele>
        <time>2021-09-07T13:06:18Z</time>
      </trkpt>
      <trkpt lat="44.43776" lon="5.5579">
        <ele>908</ele>
        <time>2021-09-07T13:06:19Z</time>
      </trkpt>
      <trkpt lat="44.43775" lon="5.5579">
        <ele>908</ele>
        <time>2021-09-07T13:06:20Z</time>
      </trkpt>
      <trkpt lat="44.43774" lon="5.55789">
        <ele>908.2</ele>
        <time>2021-09-07T13:06:21Z</time>
      </trkpt>
      <trkpt lat="44.43772" lon="5.55787">
        <ele>908.3</ele>
        <time>2021-09-07T13:06:22Z</time>
      </trkpt>
      <trkpt lat="44.4377" lon="5.55786">
        <ele>908.5</ele>
        <time>2021-09-07T13:06:23Z</time>
      </trkpt>
      <trkpt lat="44.43768" lon="5.55785">
        <ele>908.7</ele>
        <time>2021-09-07T13:06:24Z</time>
      </trkpt>
      <trkpt lat="44.43768" lon="5.55785">
        <ele>908.7</ele>
        <time>2021-09-07T13:06:25Z</time>
      </trkpt>
      <trkpt lat="44.43767" lon="5.55784">
        <ele>908.8</ele>
        <time>2021-09-07T13:06:26Z</time>
      </trkpt>
      <trkpt lat="44.43767" lon="5.55784">
        <ele>908.8</ele>
        <time>2021-09-07T13:06:27Z</time>
      </trkpt>
      <trkpt lat="44.43767" lon="5.55783">
        <ele>908.8</ele>
        <time>2021-09-07T13:06:28Z</time>
      </trkpt>
      <trkpt lat="44.43767" lon="5.55783">
        <ele>908.8</ele>
        <time>2021-09-07T13:06:29Z</time>
      </trkpt>
      <trkpt lat="44.43767" lon="5.55782">
        <ele>908.9</ele>
        <time>2021-09-07T13:06:30Z</time>
      </trkpt>
      <trkpt lat="44.43767" lon="5.55782">
        <ele>908.9</ele>
        <time>2021-09-07T13:06:31Z</time>
      </trkpt>
      <trkpt lat="44.43767" lon="5.55782">
        <ele>908.9</ele>
        <time>2021-09-07T13:06:32Z</time>
      </trkpt>
      <trkpt lat="44.43767" lon="5.55783">
        <ele>908.9</ele>
        <time>2021-09-07T13:06:33Z</time>
      </trkpt>
      <trkpt lat="44.43766" lon="5.55783">
        <ele>909</ele>
        <time>2021-09-07T13:06:34Z</time>
      </trkpt>
      <trkpt lat="44.43766" lon="5.55783">
        <ele>909</ele>
        <time>2021-09-07T13:06:35Z</time>
      </trkpt>
      <trkpt lat="44.43766" lon="5.55783">
        <ele>909</ele>
        <time>2021-09-07T13:06:36Z</time>
      </trkpt>
      <trkpt lat="44.43766" lon="5.55783">
        <ele>909</ele>
        <time>2021-09-07T13:06:37Z</time>
      </trkpt>
      <trkpt lat="44.43766" lon="5.55783">
        <ele>909</ele>
        <time>2021-09-07T13:06:38Z</time>
      </trkpt>
      <trkpt lat="44.43766" lon="5.55783">
        <ele>909</ele>
        <time>2021-09-07T13:06:39Z</time>
      </trkpt>
      <trkpt lat="44.43766" lon="5.55783">
        <ele>909</ele>
        <time>2021-09-07T13:06:40Z</time>
      </trkpt>
      <trkpt lat="44.43766" lon="5.55783">
        <ele>909</ele>
        <time>2021-09-07T13:06:41Z</time>
      </trkpt>
      <trkpt lat="44.43766" lon="5.55783">
        <ele>909</ele>
        <time>2021-09-07T13:06:42Z</time>
      </trkpt>
      <trkpt lat="44.43766" lon="5.55783">
        <ele>909</ele>
        <time>2021-09-07T13:06:43Z</time>
      </trkpt>
      <trkpt lat="44.43766" lon="5.55783">
        <ele>909</ele>
        <time>2021-09-07T13:06:44Z</time>
      </trkpt>
      <trkpt lat="44.43766" lon="5.55783">
        <ele>909</ele>
        <time>2021-09-07T13:06:45Z</time>
      </trkpt>
      <trkpt lat="44.43766" lon="5.55783">
        <ele>909</ele>
        <time>2021-09-07T13:06:46Z</time>
      </trkpt>
      <trkpt lat="44.43766" lon="5.55783">
        <ele>909</ele>
        <time>2021-09-07T13:06:47Z</time>
      </trkpt>
      <trkpt lat="44.43766" lon="5.55783">
        <ele>909</ele>
        <time>2021-09-07T13:06:48Z</time>
      </trkpt>
      <trkpt lat="44.43766" lon="5.55783">
        <ele>909</ele>
        <time>2021-09-07T13:06:49Z</time>
      </trkpt>
      <trkpt lat="44.43766" lon="5.55783">
        <ele>909</ele>
        <time>2021-09-07T13:06:50Z</time>
      </trkpt>
      <trkpt lat="44.43766" lon="5.55783">
        <ele>909</ele>
        <time>2021-09-07T13:06:51Z</time>
      </trkpt>
      <trkpt lat="44.43766" lon="5.55782">
        <ele>909.1</ele>
        <time>2021-09-07T13:06:52Z</time>
      </trkpt>
      <trkpt lat="44.43766" lon="5.5578">
        <ele>909.1</ele>
        <time>2021-09-07T13:06:53Z</time>
      </trkpt>
      <trkpt lat="44.43766" lon="5.55776">
        <ele>909.4</ele>
        <time>2021-09-07T13:06:54Z</time>
      </trkpt>
      <trkpt lat="44.43769" lon="5.55765">
        <ele>910</ele>
        <time>2021-09-07T13:06:55Z</time>
      </trkpt>
      <trkpt lat="44.4377" lon="5.5576">
        <ele>910.3</ele>
        <time>2021-09-07T13:06:56Z</time>
      </trkpt>
      <trkpt lat="44.43771" lon="5.55759">
        <ele>910.4</ele>
        <time>2021-09-07T13:06:57Z</time>
      </trkpt>
      <trkpt lat="44.43771" lon="5.55757">
        <ele>910.5</ele>
        <time>2021-09-07T13:06:58Z</time>
      </trkpt>
      <trkpt lat="44.43772" lon="5.55756">
        <ele>910.6</ele>
        <time>2021-09-07T13:06:59Z</time>
      </trkpt>
      <trkpt lat="44.43772" lon="5.55755">
        <ele>910.7</ele>
        <time>2021-09-07T13:07:00Z</time>
      </trkpt>
      <trkpt lat="44.43772" lon="5.55755">
        <ele>910.7</ele>
        <time>2021-09-07T13:07:01Z</time>
      </trkpt>
      <trkpt lat="44.43773" lon="5.55753">
        <ele>910.8</ele>
        <time>2021-09-07T13:07:02Z</time>
      </trkpt>
      <trkpt lat="44.43774" lon="5.55753">
        <ele>910.9</ele>
        <time>2021-09-07T13:07:03Z</time>
      </trkpt>
      <trkpt lat="44.43775" lon="5.55752">
        <ele>911</ele>
        <time>2021-09-07T13:07:04Z</time>
      </trkpt>
      <trkpt lat="44.43776" lon="5.55753">
        <ele>911.1</ele>
        <time>2021-09-07T13:07:05Z</time>
      </trkpt>
      <trkpt lat="44.43777" lon="5.55753">
        <ele>911.1</ele>
        <time>2021-09-07T13:07:06Z</time>
      </trkpt>
      <trkpt lat="44.43777" lon="5.55755">
        <ele>911.2</ele>
        <time>2021-09-07T13:07:07Z</time>
      </trkpt>
      <trkpt lat="44.43777" lon="5.55756">
        <ele>911.3</ele>
        <time>2021-09-07T13:07:08Z</time>
      </trkpt>
      <trkpt lat="44.43777" lon="5.55757">
        <ele>911.4</ele>
        <time>2021-09-07T13:07:09Z</time>
      </trkpt>
      <trkpt lat="44.43777" lon="5.55757">
        <ele>911.4</ele>
        <time>2021-09-07T13:07:10Z</time>
      </trkpt>
      <trkpt lat="44.43777" lon="5.55757">
        <ele>911.4</ele>
        <time>2021-09-07T13:07:11Z</time>
      </trkpt>
      <trkpt lat="44.43777" lon="5.55757">
        <ele>911.4</ele>
        <time>2021-09-07T13:07:12Z</time>
      </trkpt>
      <trkpt lat="44.43777" lon="5.55757">
        <ele>911.4</ele>
        <time>2021-09-07T13:07:13Z</time>
      </trkpt>
      <trkpt lat="44.43777" lon="5.55757">
        <ele>911.4</ele>
        <time>2021-09-07T13:07:14Z</time>
      </trkpt>
      <trkpt lat="44.43777" lon="5.55757">
        <ele>911.4</ele>
        <time>2021-09-07T13:07:15Z</time>
      </trkpt>
      <trkpt lat="44.43777" lon="5.55757">
        <ele>911.4</ele>
        <time>2021-09-07T13:07:16Z</time>
      </trkpt>
      <trkpt lat="44.43776" lon="5.55755">
        <ele>911.5</ele>
        <time>2021-09-07T13:07:17Z</time>
      </trkpt>
      <trkpt lat="44.43777" lon="5.55755">
        <ele>911.6</ele>
        <time>2021-09-07T13:07:18Z</time>
      </trkpt>
      <trkpt lat="44.43777" lon="5.55755">
        <ele>911.6</ele>
        <time>2021-09-07T13:07:19Z</time>
      </trkpt>
      <trkpt lat="44.43777" lon="5.55756">
        <ele>911.6</ele>
        <time>2021-09-07T13:07:20Z</time>
      </trkpt>
      <trkpt lat="44.43777" lon="5.55756">
        <ele>911.7</ele>
        <time>2021-09-07T13:07:21Z</time>
      </trkpt>
      <trkpt lat="44.43777" lon="5.55757">
        <ele>911.7</ele>
        <time>2021-09-07T13:07:22Z</time>
      </trkpt>
      <trkpt lat="44.43776" lon="5.55757">
        <ele>911.8</ele>
        <time>2021-09-07T13:07:23Z</time>
      </trkpt>
      <trkpt lat="44.43776" lon="5.55759">
        <ele>911.9</ele>
        <time>2021-09-07T13:07:24Z</time>
      </trkpt>
      <trkpt lat="44.43776" lon="5.55759">
        <ele>911.9</ele>
        <time>2021-09-07T13:07:25Z</time>
      </trkpt>
      <trkpt lat="44.43776" lon="5.5576">
        <ele>911.9</ele>
        <time>2021-09-07T13:07:26Z</time>
      </trkpt>
      <trkpt lat="44.43776" lon="5.55761">
        <ele>912</ele>
        <time>2021-09-07T13:07:27Z</time>
      </trkpt>
      <trkpt lat="44.43775" lon="5.55761">
        <ele>912</ele>
        <time>2021-09-07T13:07:28Z</time>
      </trkpt>
      <trkpt lat="44.43775" lon="5.55762">
        <ele>912.1</ele>
        <time>2021-09-07T13:07:29Z</time>
      </trkpt>
      <trkpt lat="44.43775" lon="5.55762">
        <ele>912.1</ele>
        <time>2021-09-07T13:07:30Z</time>
      </trkpt>
      <trkpt lat="44.43775" lon="5.55762">
        <ele>912.1</ele>
        <time>2021-09-07T13:07:31Z</time>
      </trkpt>
      <trkpt lat="44.43775" lon="5.55762">
        <ele>912.1</ele>
        <time>2021-09-07T13:07:32Z</time>
      </trkpt>
      <trkpt lat="44.43775" lon="5.55762">
        <ele>912.1</ele>
        <time>2021-09-07T13:07:33Z</time>
      </trkpt>
      <trkpt lat="44.43774" lon="5.55762">
        <ele>912.2</ele>
        <time>2021-09-07T13:07:34Z</time>
      </trkpt>
      <trkpt lat="44.43774" lon="5.55762">
        <ele>912.2</ele>
        <time>2021-09-07T13:07:35Z</time>
      </trkpt>
      <trkpt lat="44.43774" lon="5.55763">
        <ele>912.2</ele>
        <time>2021-09-07T13:07:36Z</time>
      </trkpt>
      <trkpt lat="44.43774" lon="5.55763">
        <ele>912.3</ele>
        <time>2021-09-07T13:07:37Z</time>
      </trkpt>
      <trkpt lat="44.43774" lon="5.55764">
        <ele>912.3</ele>
        <time>2021-09-07T13:07:38Z</time>
      </trkpt>
      <trkpt lat="44.43774" lon="5.55765">
        <ele>912.4</ele>
        <time>2021-09-07T13:07:39Z</time>
      </trkpt>
      <trkpt lat="44.43773" lon="5.55766">
        <ele>912.5</ele>
        <time>2021-09-07T13:07:40Z</time>
      </trkpt>
      <trkpt lat="44.43773" lon="5.55767">
        <ele>912.5</ele>
        <time>2021-09-07T13:07:41Z</time>
      </trkpt>
      <trkpt lat="44.43774" lon="5.55768">
        <ele>912.6</ele>
        <time>2021-09-07T13:07:42Z</time>
      </trkpt>
      <trkpt lat="44.43774" lon="5.55768">
        <ele>912.6</ele>
        <time>2021-09-07T13:07:43Z</time>
      </trkpt>
      <trkpt lat="44.43774" lon="5.55768">
        <ele>912.6</ele>
        <time>2021-09-07T13:07:44Z</time>
      </trkpt>
      <trkpt lat="44.43774" lon="5.55768">
        <ele>912.6</ele>
        <time>2021-09-07T13:07:45Z</time>
      </trkpt>
      <trkpt lat="44.43774" lon="5.55769">
        <ele>912.7</ele>
        <time>2021-09-07T13:07:46Z</time>
      </trkpt>
      <trkpt lat="44.43774" lon="5.55769">
        <ele>912.7</ele>
        <time>2021-09-07T13:07:47Z</time>
      </trkpt>
      <trkpt lat="44.43773" lon="5.55772">
        <ele>912.9</ele>
        <time>2021-09-07T13:07:48Z</time>
      </trkpt>
      <trkpt lat="44.43772" lon="5.55774">
        <ele>913</ele>
        <time>2021-09-07T13:07:49Z</time>
      </trkpt>
      <trkpt lat="44.43771" lon="5.55779">
        <ele>913.3</ele>
        <time>2021-09-07T13:07:50Z</time>
      </trkpt>
      <trkpt lat="44.4377" lon="5.55782">
        <ele>913.5</ele>
        <time>2021-09-07T13:07:51Z</time>
      </trkpt>
      <trkpt lat="44.43769" lon="5.55784">
        <ele>913.7</ele>
        <time>2021-09-07T13:07:52Z</time>
      </trkpt>
      <trkpt lat="44.43768" lon="5.55787">
        <ele>913.9</ele>
        <time>2021-09-07T13:07:53Z</time>
      </trkpt>
      <trkpt lat="44.43767" lon="5.5579">
        <ele>914.1</ele>
        <time>2021-09-07T13:07:54Z</time>
      </trkpt>
      <trkpt lat="44.43764" lon="5.55801">
        <ele>914.8</ele>
        <time>2021-09-07T13:07:55Z</time>
      </trkpt>
      <trkpt lat="44.43762" lon="5.55803">
        <ele>915</ele>
        <time>2021-09-07T13:07:56Z</time>
      </trkpt>
      <trkpt lat="44.43759" lon="5.55808">
        <ele>915.4</ele>
        <time>2021-09-07T13:07:57Z</time>
      </trkpt>
      <trkpt lat="44.43759" lon="5.5581">
        <ele>915.5</ele>
        <time>2021-09-07T13:07:58Z</time>
      </trkpt>
      <trkpt lat="44.43758" lon="5.55811">
        <ele>915.6</ele>
        <time>2021-09-07T13:07:59Z</time>
      </trkpt>
      <trkpt lat="44.43758" lon="5.55813">
        <ele>915.7</ele>
        <time>2021-09-07T13:08:00Z</time>
      </trkpt>
      <trkpt lat="44.43757" lon="5.55815">
        <ele>915.9</ele>
        <time>2021-09-07T13:08:01Z</time>
      </trkpt>
      <trkpt lat="44.43755" lon="5.55817">
        <ele>916.1</ele>
        <time>2021-09-07T13:08:02Z</time>
      </trkpt>
      <trkpt lat="44.43753" lon="5.55819">
        <ele>916.3</ele>
        <time>2021-09-07T13:08:03Z</time>
      </trkpt>
      <trkpt lat="44.4375" lon="5.55822">
        <ele>916.6</ele>
        <time>2021-09-07T13:08:04Z</time>
      </trkpt>
      <trkpt lat="44.43748" lon="5.55825">
        <ele>916.9</ele>
        <time>2021-09-07T13:08:05Z</time>
      </trkpt>
      <trkpt lat="44.43745" lon="5.55829">
        <ele>917.3</ele>
        <time>2021-09-07T13:08:06Z</time>
      </trkpt>
      <trkpt lat="44.43744" lon="5.55831">
        <ele>917.4</ele>
        <time>2021-09-07T13:08:07Z</time>
      </trkpt>
      <trkpt lat="44.43743" lon="5.55833">
        <ele>917.6</ele>
        <time>2021-09-07T13:08:08Z</time>
      </trkpt>
      <trkpt lat="44.43742" lon="5.55837">
        <ele>917.8</ele>
        <time>2021-09-07T13:08:09Z</time>
      </trkpt>
      <trkpt lat="44.4374" lon="5.5584">
        <ele>918.1</ele>
        <time>2021-09-07T13:08:10Z</time>
      </trkpt>
      <trkpt lat="44.43738" lon="5.55842">
        <ele>918.3</ele>
        <time>2021-09-07T13:08:11Z</time>
      </trkpt>
      <trkpt lat="44.43737" lon="5.55845">
        <ele>918.5</ele>
        <time>2021-09-07T13:08:12Z</time>
      </trkpt>
      <trkpt lat="44.43735" lon="5.55847">
        <ele>918.8</ele>
        <time>2021-09-07T13:08:13Z</time>
      </trkpt>
      <trkpt lat="44.43735" lon="5.55848">
        <ele>918.8</ele>
        <time>2021-09-07T13:08:14Z</time>
      </trkpt>
      <trkpt lat="44.43734" lon="5.55849">
        <ele>918.9</ele>
        <time>2021-09-07T13:08:15Z</time>
      </trkpt>
      <trkpt lat="44.43731" lon="5.55853">
        <ele>919.3</ele>
        <time>2021-09-07T13:08:16Z</time>
      </trkpt>
      <trkpt lat="44.43731" lon="5.55855">
        <ele>919.4</ele>
        <time>2021-09-07T13:08:17Z</time>
      </trkpt>
      <trkpt lat="44.4373" lon="5.55856">
        <ele>919.5</ele>
        <time>2021-09-07T13:08:18Z</time>
      </trkpt>
      <trkpt lat="44.43729" lon="5.55857">
        <ele>919.6</ele>
        <time>2021-09-07T13:08:19Z</time>
      </trkpt>
      <trkpt lat="44.43728" lon="5.55858">
        <ele>919.7</ele>
        <time>2021-09-07T13:08:20Z</time>
      </trkpt>
      <trkpt lat="44.43727" lon="5.55858">
        <ele>919.8</ele>
        <time>2021-09-07T13:08:21Z</time>
      </trkpt>
      <trkpt lat="44.43724" lon="5.55858">
        <ele>920</ele>
        <time>2021-09-07T13:08:22Z</time>
      </trkpt>
      <trkpt lat="44.43722" lon="5.55859">
        <ele>920.2</ele>
        <time>2021-09-07T13:08:23Z</time>
      </trkpt>
      <trkpt lat="44.43721" lon="5.5586">
        <ele>920.3</ele>
        <time>2021-09-07T13:08:24Z</time>
      </trkpt>
      <trkpt lat="44.4372" lon="5.55861">
        <ele>920.4</ele>
        <time>2021-09-07T13:08:25Z</time>
      </trkpt>
      <trkpt lat="44.43719" lon="5.55862">
        <ele>920.5</ele>
        <time>2021-09-07T13:08:26Z</time>
      </trkpt>
      <trkpt lat="44.43718" lon="5.55862">
        <ele>920.6</ele>
        <time>2021-09-07T13:08:27Z</time>
      </trkpt>
      <trkpt lat="44.43717" lon="5.55863">
        <ele>920.7</ele>
        <time>2021-09-07T13:08:28Z</time>
      </trkpt>
      <trkpt lat="44.43715" lon="5.55864">
        <ele>920.8</ele>
        <time>2021-09-07T13:08:29Z</time>
      </trkpt>
      <trkpt lat="44.43714" lon="5.55865">
        <ele>920.9</ele>
        <time>2021-09-07T13:08:30Z</time>
      </trkpt>
      <trkpt lat="44.43714" lon="5.55867">
        <ele>921</ele>
        <time>2021-09-07T13:08:31Z</time>
      </trkpt>
      <trkpt lat="44.43713" lon="5.55868">
        <ele>921.1</ele>
        <time>2021-09-07T13:08:32Z</time>
      </trkpt>
      <trkpt lat="44.43713" lon="5.55869">
        <ele>921.2</ele>
        <time>2021-09-07T13:08:33Z</time>
      </trkpt>
      <trkpt lat="44.43713" lon="5.5587">
        <ele>921.3</ele>
        <time>2021-09-07T13:08:34Z</time>
      </trkpt>
      <trkpt lat="44.43712" lon="5.5587">
        <ele>921.3</ele>
        <time>2021-09-07T13:08:35Z</time>
      </trkpt>
      <trkpt lat="44.4371" lon="5.55873">
        <ele>921.6</ele>
        <time>2021-09-07T13:08:36Z</time>
      </trkpt>
      <trkpt lat="44.43709" lon="5.55874">
        <ele>921.6</ele>
        <time>2021-09-07T13:08:37Z</time>
      </trkpt>
      <trkpt lat="44.43708" lon="5.55874">
        <ele>921.7</ele>
        <time>2021-09-07T13:08:38Z</time>
      </trkpt>
      <trkpt lat="44.43707" lon="5.55875">
        <ele>921.8</ele>
        <time>2021-09-07T13:08:39Z</time>
      </trkpt>
      <trkpt lat="44.43704" lon="5.55875">
        <ele>922.1</ele>
        <time>2021-09-07T13:08:40Z</time>
      </trkpt>
      <trkpt lat="44.43703" lon="5.55876">
        <ele>922.2</ele>
        <time>2021-09-07T13:08:41Z</time>
      </trkpt>
      <trkpt lat="44.43702" lon="5.55876">
        <ele>922.2</ele>
        <time>2021-09-07T13:08:42Z</time>
      </trkpt>
      <trkpt lat="44.43701" lon="5.55876">
        <ele>922.3</ele>
        <time>2021-09-07T13:08:43Z</time>
      </trkpt>
      <trkpt lat="44.43699" lon="5.55877">
        <ele>922.5</ele>
        <time>2021-09-07T13:08:44Z</time>
      </trkpt>
      <trkpt lat="44.43698" lon="5.55878">
        <ele>922.6</ele>
        <time>2021-09-07T13:08:45Z</time>
      </trkpt>
      <trkpt lat="44.43697" lon="5.55878">
        <ele>922.7</ele>
        <time>2021-09-07T13:08:46Z</time>
      </trkpt>
      <trkpt lat="44.43695" lon="5.55878">
        <ele>922.8</ele>
        <time>2021-09-07T13:08:47Z</time>
      </trkpt>
      <trkpt lat="44.43695" lon="5.55878">
        <ele>922.9</ele>
        <time>2021-09-07T13:08:48Z</time>
      </trkpt>
      <trkpt lat="44.43694" lon="5.55877">
        <ele>922.9</ele>
        <time>2021-09-07T13:08:49Z</time>
      </trkpt>
      <trkpt lat="44.43692" lon="5.55876">
        <ele>923.1</ele>
        <time>2021-09-07T13:08:50Z</time>
      </trkpt>
      <trkpt lat="44.43691" lon="5.55875">
        <ele>923.2</ele>
        <time>2021-09-07T13:08:51Z</time>
      </trkpt>
      <trkpt lat="44.4369" lon="5.55874">
        <ele>923.3</ele>
        <time>2021-09-07T13:08:52Z</time>
      </trkpt>
      <trkpt lat="44.43688" lon="5.55869">
        <ele>923.6</ele>
        <time>2021-09-07T13:08:53Z</time>
      </trkpt>
      <trkpt lat="44.43687" lon="5.55868">
        <ele>923.7</ele>
        <time>2021-09-07T13:08:54Z</time>
      </trkpt>
      <trkpt lat="44.43686" lon="5.55867">
        <ele>923.8</ele>
        <time>2021-09-07T13:08:55Z</time>
      </trkpt>
      <trkpt lat="44.43686" lon="5.55866">
        <ele>923.9</ele>
        <time>2021-09-07T13:08:56Z</time>
      </trkpt>
      <trkpt lat="44.43685" lon="5.55865">
        <ele>924</ele>
        <time>2021-09-07T13:08:57Z</time>
      </trkpt>
      <trkpt lat="44.43684" lon="5.55864">
        <ele>924.1</ele>
        <time>2021-09-07T13:08:58Z</time>
      </trkpt>
      <trkpt lat="44.43684" lon="5.55863">
        <ele>924.1</ele>
        <time>2021-09-07T13:08:59Z</time>
      </trkpt>
      <trkpt lat="44.43684" lon="5.55862">
        <ele>924.2</ele>
        <time>2021-09-07T13:09:00Z</time>
      </trkpt>
      <trkpt lat="44.43684" lon="5.55862">
        <ele>924.2</ele>
        <time>2021-09-07T13:09:01Z</time>
      </trkpt>
      <trkpt lat="44.43684" lon="5.55861">
        <ele>924.2</ele>
        <time>2021-09-07T13:09:02Z</time>
      </trkpt>
      <trkpt lat="44.43684" lon="5.55861">
        <ele>924.2</ele>
        <time>2021-09-07T13:09:03Z</time>
      </trkpt>
      <trkpt lat="44.43683" lon="5.55858">
        <ele>924.4</ele>
        <time>2021-09-07T13:09:04Z</time>
      </trkpt>
      <trkpt lat="44.43683" lon="5.55857">
        <ele>924.5</ele>
        <time>2021-09-07T13:09:05Z</time>
      </trkpt>
      <trkpt lat="44.43682" lon="5.55855">
        <ele>924.6</ele>
        <time>2021-09-07T13:09:06Z</time>
      </trkpt>
      <trkpt lat="44.43682" lon="5.55851">
        <ele>924.8</ele>
        <time>2021-09-07T13:09:07Z</time>
      </trkpt>
      <trkpt lat="44.43682" lon="5.5585">
        <ele>924.9</ele>
        <time>2021-09-07T13:09:08Z</time>
      </trkpt>
      <trkpt lat="44.43681" lon="5.55849">
        <ele>925</ele>
        <time>2021-09-07T13:09:09Z</time>
      </trkpt>
      <trkpt lat="44.43681" lon="5.55848">
        <ele>925.1</ele>
        <time>2021-09-07T13:09:10Z</time>
      </trkpt>
      <trkpt lat="44.4368" lon="5.55846">
        <ele>925.2</ele>
        <time>2021-09-07T13:09:11Z</time>
      </trkpt>
      <trkpt lat="44.43679" lon="5.55844">
        <ele>925.3</ele>
        <time>2021-09-07T13:09:12Z</time>
      </trkpt>
      <trkpt lat="44.43679" lon="5.55843">
        <ele>925.4</ele>
        <time>2021-09-07T13:09:13Z</time>
      </trkpt>
      <trkpt lat="44.43678" lon="5.55841">
        <ele>925.5</ele>
        <time>2021-09-07T13:09:14Z</time>
      </trkpt>
      <trkpt lat="44.43677" lon="5.55839">
        <ele>925.6</ele>
        <time>2021-09-07T13:09:15Z</time>
      </trkpt>
      <trkpt lat="44.43676" lon="5.55838">
        <ele>925.8</ele>
        <time>2021-09-07T13:09:16Z</time>
      </trkpt>
      <trkpt lat="44.43675" lon="5.55836">
        <ele>925.9</ele>
        <time>2021-09-07T13:09:17Z</time>
      </trkpt>
      <trkpt lat="44.43675" lon="5.55835">
        <ele>926</ele>
        <time>2021-09-07T13:09:18Z</time>
      </trkpt>
      <trkpt lat="44.43674" lon="5.55834">
        <ele>926</ele>
        <time>2021-09-07T13:09:19Z</time>
      </trkpt>
      <trkpt lat="44.43673" lon="5.55832">
        <ele>926.2</ele>
        <time>2021-09-07T13:09:20Z</time>
      </trkpt>
      <trkpt lat="44.43672" lon="5.55831">
        <ele>926.3</ele>
        <time>2021-09-07T13:09:21Z</time>
      </trkpt>
      <trkpt lat="44.43672" lon="5.5583">
        <ele>926.4</ele>
        <time>2021-09-07T13:09:22Z</time>
      </trkpt>
      <trkpt lat="44.43671" lon="5.55828">
        <ele>926.5</ele>
        <time>2021-09-07T13:09:23Z</time>
      </trkpt>
      <trkpt lat="44.4367" lon="5.55826">
        <ele>926.6</ele>
        <time>2021-09-07T13:09:24Z</time>
      </trkpt>
      <trkpt lat="44.4367" lon="5.55825">
        <ele>926.7</ele>
        <time>2021-09-07T13:09:25Z</time>
      </trkpt>
      <trkpt lat="44.43669" lon="5.55824">
        <ele>926.8</ele>
        <time>2021-09-07T13:09:26Z</time>
      </trkpt>
      <trkpt lat="44.43669" lon="5.55822">
        <ele>926.9</ele>
        <time>2021-09-07T13:09:27Z</time>
      </trkpt>
      <trkpt lat="44.43669" lon="5.5582">
        <ele>927</ele>
        <time>2021-09-07T13:09:28Z</time>
      </trkpt>
      <trkpt lat="44.43668" lon="5.55818">
        <ele>927.1</ele>
        <time>2021-09-07T13:09:29Z</time>
      </trkpt>
      <trkpt lat="44.43667" lon="5.55816">
        <ele>927.3</ele>
        <time>2021-09-07T13:09:30Z</time>
      </trkpt>
      <trkpt lat="44.43667" lon="5.55815">
        <ele>927.4</ele>
        <time>2021-09-07T13:09:31Z</time>
      </trkpt>
      <trkpt lat="44.43666" lon="5.55814">
        <ele>927.4</ele>
        <time>2021-09-07T13:09:32Z</time>
      </trkpt>
      <trkpt lat="44.43665" lon="5.55812">
        <ele>927.6</ele>
        <time>2021-09-07T13:09:33Z</time>
      </trkpt>
      <trkpt lat="44.43664" lon="5.55811">
        <ele>927.7</ele>
        <time>2021-09-07T13:09:34Z</time>
      </trkpt>
      <trkpt lat="44.43663" lon="5.55809">
        <ele>927.8</ele>
        <time>2021-09-07T13:09:35Z</time>
      </trkpt>
      <trkpt lat="44.43663" lon="5.55808">
        <ele>927.9</ele>
        <time>2021-09-07T13:09:36Z</time>
      </trkpt>
      <trkpt lat="44.43662" lon="5.55807">
        <ele>928</ele>
        <time>2021-09-07T13:09:37Z</time>
      </trkpt>
      <trkpt lat="44.43661" lon="5.55804">
        <ele>928.2</ele>
        <time>2021-09-07T13:09:38Z</time>
      </trkpt>
      <trkpt lat="44.43661" lon="5.55803">
        <ele>928.3</ele>
        <time>2021-09-07T13:09:39Z</time>
      </trkpt>
      <trkpt lat="44.43661" lon="5.55801">
        <ele>928.3</ele>
        <time>2021-09-07T13:09:40Z</time>
      </trkpt>
      <trkpt lat="44.4366" lon="5.55799">
        <ele>928.5</ele>
        <time>2021-09-07T13:09:41Z</time>
      </trkpt>
      <trkpt lat="44.4366" lon="5.55797">
        <ele>928.6</ele>
        <time>2021-09-07T13:09:42Z</time>
      </trkpt>
      <trkpt lat="44.4366" lon="5.55796">
        <ele>928.7</ele>
        <time>2021-09-07T13:09:43Z</time>
      </trkpt>
      <trkpt lat="44.4366" lon="5.55794">
        <ele>928.8</ele>
        <time>2021-09-07T13:09:44Z</time>
      </trkpt>
      <trkpt lat="44.43659" lon="5.55791">
        <ele>929</ele>
        <time>2021-09-07T13:09:45Z</time>
      </trkpt>
      <trkpt lat="44.43659" lon="5.5579">
        <ele>929.1</ele>
        <time>2021-09-07T13:09:46Z</time>
      </trkpt>
      <trkpt lat="44.43658" lon="5.55789">
        <ele>929.1</ele>
        <time>2021-09-07T13:09:47Z</time>
      </trkpt>
      <trkpt lat="44.43658" lon="5.55787">
        <ele>929.3</ele>
        <time>2021-09-07T13:09:48Z</time>
      </trkpt>
      <trkpt lat="44.43657" lon="5.55786">
        <ele>929.4</ele>
        <time>2021-09-07T13:09:49Z</time>
      </trkpt>
      <trkpt lat="44.43655" lon="5.55784">
        <ele>929.6</ele>
        <time>2021-09-07T13:09:50Z</time>
      </trkpt>
      <trkpt lat="44.43654" lon="5.55783">
        <ele>929.7</ele>
        <time>2021-09-07T13:09:51Z</time>
      </trkpt>
      <trkpt lat="44.43653" lon="5.55782">
        <ele>929.8</ele>
        <time>2021-09-07T13:09:52Z</time>
      </trkpt>
      <trkpt lat="44.43651" lon="5.5578">
        <ele>930</ele>
        <time>2021-09-07T13:09:53Z</time>
      </trkpt>
      <trkpt lat="44.43649" lon="5.55778">
        <ele>930.2</ele>
        <time>2021-09-07T13:09:54Z</time>
      </trkpt>
      <trkpt lat="44.43648" lon="5.55777">
        <ele>930.3</ele>
        <time>2021-09-07T13:09:55Z</time>
      </trkpt>
      <trkpt lat="44.43647" lon="5.55776">
        <ele>930.4</ele>
        <time>2021-09-07T13:09:56Z</time>
      </trkpt>
      <trkpt lat="44.43646" lon="5.55775">
        <ele>930.5</ele>
        <time>2021-09-07T13:09:57Z</time>
      </trkpt>
      <trkpt lat="44.43645" lon="5.55773">
        <ele>930.6</ele>
        <time>2021-09-07T13:09:58Z</time>
      </trkpt>
      <trkpt lat="44.43644" lon="5.55769">
        <ele>930.8</ele>
        <time>2021-09-07T13:09:59Z</time>
      </trkpt>
      <trkpt lat="44.43644" lon="5.55768">
        <ele>930.9</ele>
        <time>2021-09-07T13:10:00Z</time>
      </trkpt>
      <trkpt lat="44.43643" lon="5.55766">
        <ele>931</ele>
        <time>2021-09-07T13:10:01Z</time>
      </trkpt>
      <trkpt lat="44.43643" lon="5.55763">
        <ele>931.2</ele>
        <time>2021-09-07T13:10:02Z</time>
      </trkpt>
      <trkpt lat="44.43642" lon="5.55761">
        <ele>931.3</ele>
        <time>2021-09-07T13:10:03Z</time>
      </trkpt>
      <trkpt lat="44.43641" lon="5.55757">
        <ele>931.6</ele>
        <time>2021-09-07T13:10:04Z</time>
      </trkpt>
      <trkpt lat="44.43641" lon="5.55756">
        <ele>931.6</ele>
        <time>2021-09-07T13:10:05Z</time>
      </trkpt>
      <trkpt lat="44.43641" lon="5.55754">
        <ele>931.7</ele>
        <time>2021-09-07T13:10:06Z</time>
      </trkpt>
      <trkpt lat="44.4364" lon="5.55751">
        <ele>931.9</ele>
        <time>2021-09-07T13:10:07Z</time>
      </trkpt>
      <trkpt lat="44.4364" lon="5.5575">
        <ele>932</ele>
        <time>2021-09-07T13:10:08Z</time>
      </trkpt>
      <trkpt lat="44.4364" lon="5.55748">
        <ele>932.1</ele>
        <time>2021-09-07T13:10:09Z</time>
      </trkpt>
      <trkpt lat="44.43639" lon="5.55745">
        <ele>932.3</ele>
        <time>2021-09-07T13:10:10Z</time>
      </trkpt>
      <trkpt lat="44.43639" lon="5.55744">
        <ele>932.3</ele>
        <time>2021-09-07T13:10:11Z</time>
      </trkpt>
      <trkpt lat="44.43638" lon="5.55743">
        <ele>932.4</ele>
        <time>2021-09-07T13:10:12Z</time>
      </trkpt>
      <trkpt lat="44.43637" lon="5.55741">
        <ele>932.5</ele>
        <time>2021-09-07T13:10:13Z</time>
      </trkpt>
      <trkpt lat="44.43636" lon="5.55741">
        <ele>932.6</ele>
        <time>2021-09-07T13:10:14Z</time>
      </trkpt>
      <trkpt lat="44.43635" lon="5.55741">
        <ele>932.7</ele>
        <time>2021-09-07T13:10:15Z</time>
      </trkpt>
      <trkpt lat="44.43633" lon="5.5574">
        <ele>932.8</ele>
        <time>2021-09-07T13:10:16Z</time>
      </trkpt>
      <trkpt lat="44.4363" lon="5.55739">
        <ele>933.1</ele>
        <time>2021-09-07T13:10:17Z</time>
      </trkpt>
      <trkpt lat="44.43629" lon="5.55739">
        <ele>933.1</ele>
        <time>2021-09-07T13:10:18Z</time>
      </trkpt>
      <trkpt lat="44.43628" lon="5.55739">
        <ele>933.2</ele>
        <time>2021-09-07T13:10:19Z</time>
      </trkpt>
      <trkpt lat="44.43627" lon="5.5574">
        <ele>933.3</ele>
        <time>2021-09-07T13:10:20Z</time>
      </trkpt>
      <trkpt lat="44.43627" lon="5.5574">
        <ele>933.3</ele>
        <time>2021-09-07T13:10:21Z</time>
      </trkpt>
      <trkpt lat="44.43626" lon="5.5574">
        <ele>933.4</ele>
        <time>2021-09-07T13:10:22Z</time>
      </trkpt>
      <trkpt lat="44.43625" lon="5.5574">
        <ele>933.4</ele>
        <time>2021-09-07T13:10:23Z</time>
      </trkpt>
      <trkpt lat="44.43625" lon="5.5574">
        <ele>933.4</ele>
        <time>2021-09-07T13:10:24Z</time>
      </trkpt>
      <trkpt lat="44.43625" lon="5.5574">
        <ele>933.4</ele>
        <time>2021-09-07T13:10:25Z</time>
      </trkpt>
      <trkpt lat="44.43625" lon="5.55741">
        <ele>933.5</ele>
        <time>2021-09-07T13:10:26Z</time>
      </trkpt>
      <trkpt lat="44.43625" lon="5.55741">
        <ele>933.5</ele>
        <time>2021-09-07T13:10:27Z</time>
      </trkpt>
      <trkpt lat="44.43624" lon="5.55741">
        <ele>933.6</ele>
        <time>2021-09-07T13:10:28Z</time>
      </trkpt>
      <trkpt lat="44.43623" lon="5.55742">
        <ele>933.6</ele>
        <time>2021-09-07T13:10:29Z</time>
      </trkpt>
      <trkpt lat="44.43619" lon="5.55745">
        <ele>934</ele>
        <time>2021-09-07T13:10:30Z</time>
      </trkpt>
      <trkpt lat="44.43618" lon="5.55746">
        <ele>934</ele>
        <time>2021-09-07T13:10:31Z</time>
      </trkpt>
      <trkpt lat="44.43617" lon="5.55747">
        <ele>934.1</ele>
        <time>2021-09-07T13:10:32Z</time>
      </trkpt>
      <trkpt lat="44.43613" lon="5.5575">
        <ele>934.4</ele>
        <time>2021-09-07T13:10:33Z</time>
      </trkpt>
      <trkpt lat="44.43611" lon="5.55752">
        <ele>934.6</ele>
        <time>2021-09-07T13:10:34Z</time>
      </trkpt>
      <trkpt lat="44.43609" lon="5.55754">
        <ele>934.7</ele>
        <time>2021-09-07T13:10:35Z</time>
      </trkpt>
      <trkpt lat="44.43605" lon="5.55759">
        <ele>935</ele>
        <time>2021-09-07T13:10:36Z</time>
      </trkpt>
      <trkpt lat="44.43604" lon="5.55761">
        <ele>935.1</ele>
        <time>2021-09-07T13:10:37Z</time>
      </trkpt>
      <trkpt lat="44.43602" lon="5.55762">
        <ele>935.2</ele>
        <time>2021-09-07T13:10:38Z</time>
      </trkpt>
      <trkpt lat="44.436" lon="5.55764">
        <ele>935.4</ele>
        <time>2021-09-07T13:10:39Z</time>
      </trkpt>
      <trkpt lat="44.43597" lon="5.55768">
        <ele>935.7</ele>
        <time>2021-09-07T13:10:40Z</time>
      </trkpt>
      <trkpt lat="44.43597" lon="5.55769">
        <ele>935.8</ele>
        <time>2021-09-07T13:10:41Z</time>
      </trkpt>
      <trkpt lat="44.43596" lon="5.5577">
        <ele>935.8</ele>
        <time>2021-09-07T13:10:42Z</time>
      </trkpt>
      <trkpt lat="44.43594" lon="5.55773">
        <ele>936</ele>
        <time>2021-09-07T13:10:43Z</time>
      </trkpt>
      <trkpt lat="44.43593" lon="5.55774">
        <ele>936.1</ele>
        <time>2021-09-07T13:10:44Z</time>
      </trkpt>
      <trkpt lat="44.43592" lon="5.55775">
        <ele>936.2</ele>
        <time>2021-09-07T13:10:45Z</time>
      </trkpt>
      <trkpt lat="44.4359" lon="5.55778">
        <ele>936.4</ele>
        <time>2021-09-07T13:10:46Z</time>
      </trkpt>
      <trkpt lat="44.4359" lon="5.55779">
        <ele>936.4</ele>
        <time>2021-09-07T13:10:47Z</time>
      </trkpt>
      <trkpt lat="44.43589" lon="5.5578">
        <ele>936.5</ele>
        <time>2021-09-07T13:10:48Z</time>
      </trkpt>
      <trkpt lat="44.43588" lon="5.55782">
        <ele>936.6</ele>
        <time>2021-09-07T13:10:49Z</time>
      </trkpt>
      <trkpt lat="44.43587" lon="5.55784">
        <ele>936.7</ele>
        <time>2021-09-07T13:10:50Z</time>
      </trkpt>
      <trkpt lat="44.43586" lon="5.55786">
        <ele>936.8</ele>
        <time>2021-09-07T13:10:51Z</time>
      </trkpt>
      <trkpt lat="44.43586" lon="5.55787">
        <ele>936.8</ele>
        <time>2021-09-07T13:10:52Z</time>
      </trkpt>
      <trkpt lat="44.43585" lon="5.55788">
        <ele>936.9</ele>
        <time>2021-09-07T13:10:53Z</time>
      </trkpt>
      <trkpt lat="44.43584" lon="5.55791">
        <ele>937.1</ele>
        <time>2021-09-07T13:10:54Z</time>
      </trkpt>
      <trkpt lat="44.43584" lon="5.55792">
        <ele>937.1</ele>
        <time>2021-09-07T13:10:55Z</time>
      </trkpt>
      <trkpt lat="44.43584" lon="5.55792">
        <ele>937.1</ele>
        <time>2021-09-07T13:10:56Z</time>
      </trkpt>
      <trkpt lat="44.43583" lon="5.55795">
        <ele>937.3</ele>
        <time>2021-09-07T13:10:57Z</time>
      </trkpt>
      <trkpt lat="44.43583" lon="5.55796">
        <ele>937.4</ele>
        <time>2021-09-07T13:10:58Z</time>
      </trkpt>
      <trkpt lat="44.43583" lon="5.55797">
        <ele>937.4</ele>
        <time>2021-09-07T13:10:59Z</time>
      </trkpt>
      <trkpt lat="44.43582" lon="5.558">
        <ele>937.6</ele>
        <time>2021-09-07T13:11:00Z</time>
      </trkpt>
      <trkpt lat="44.43582" lon="5.55801">
        <ele>937.6</ele>
        <time>2021-09-07T13:11:01Z</time>
      </trkpt>
      <trkpt lat="44.43581" lon="5.55801">
        <ele>937.7</ele>
        <time>2021-09-07T13:11:02Z</time>
      </trkpt>
      <trkpt lat="44.43581" lon="5.55803">
        <ele>937.8</ele>
        <time>2021-09-07T13:11:03Z</time>
      </trkpt>
      <trkpt lat="44.4358" lon="5.55804">
        <ele>937.8</ele>
        <time>2021-09-07T13:11:04Z</time>
      </trkpt>
      <trkpt lat="44.43578" lon="5.55808">
        <ele>938</ele>
        <time>2021-09-07T13:11:05Z</time>
      </trkpt>
      <trkpt lat="44.43578" lon="5.55809">
        <ele>938.1</ele>
        <time>2021-09-07T13:11:06Z</time>
      </trkpt>
      <trkpt lat="44.43577" lon="5.55809">
        <ele>938.1</ele>
        <time>2021-09-07T13:11:07Z</time>
      </trkpt>
      <trkpt lat="44.43576" lon="5.5581">
        <ele>938.2</ele>
        <time>2021-09-07T13:11:08Z</time>
      </trkpt>
      <trkpt lat="44.43575" lon="5.55812">
        <ele>938.4</ele>
        <time>2021-09-07T13:11:09Z</time>
      </trkpt>
      <trkpt lat="44.43575" lon="5.55812">
        <ele>938.4</ele>
        <time>2021-09-07T13:11:10Z</time>
      </trkpt>
      <trkpt lat="44.43575" lon="5.55813">
        <ele>938.4</ele>
        <time>2021-09-07T13:11:11Z</time>
      </trkpt>
      <trkpt lat="44.43574" lon="5.55813">
        <ele>938.5</ele>
        <time>2021-09-07T13:11:12Z</time>
      </trkpt>
      <trkpt lat="44.43573" lon="5.55816">
        <ele>938.6</ele>
        <time>2021-09-07T13:11:13Z</time>
      </trkpt>
      <trkpt lat="44.43573" lon="5.55817">
        <ele>938.7</ele>
        <time>2021-09-07T13:11:14Z</time>
      </trkpt>
      <trkpt lat="44.43572" lon="5.55818">
        <ele>938.8</ele>
        <time>2021-09-07T13:11:15Z</time>
      </trkpt>
      <trkpt lat="44.4357" lon="5.5582">
        <ele>939</ele>
        <time>2021-09-07T13:11:16Z</time>
      </trkpt>
      <trkpt lat="44.43569" lon="5.55822">
        <ele>939.1</ele>
        <time>2021-09-07T13:11:17Z</time>
      </trkpt>
      <trkpt lat="44.43569" lon="5.55823">
        <ele>939.2</ele>
        <time>2021-09-07T13:11:18Z</time>
      </trkpt>
      <trkpt lat="44.43568" lon="5.55824">
        <ele>939.1</ele>
        <time>2021-09-07T13:11:19Z</time>
      </trkpt>
      <trkpt lat="44.43567" lon="5.55826">
        <ele>939.3</ele>
        <time>2021-09-07T13:11:20Z</time>
      </trkpt>
      <trkpt lat="44.43567" lon="5.55827">
        <ele>939.4</ele>
        <time>2021-09-07T13:11:21Z</time>
      </trkpt>
      <trkpt lat="44.43566" lon="5.55828">
        <ele>939.4</ele>
        <time>2021-09-07T13:11:22Z</time>
      </trkpt>
      <trkpt lat="44.43565" lon="5.5583">
        <ele>939.6</ele>
        <time>2021-09-07T13:11:23Z</time>
      </trkpt>
      <trkpt lat="44.43564" lon="5.55832">
        <ele>939.7</ele>
        <time>2021-09-07T13:11:24Z</time>
      </trkpt>
      <trkpt lat="44.43564" lon="5.55833">
        <ele>939.8</ele>
        <time>2021-09-07T13:11:25Z</time>
      </trkpt>
      <trkpt lat="44.43563" lon="5.55835">
        <ele>939.9</ele>
        <time>2021-09-07T13:11:26Z</time>
      </trkpt>
      <trkpt lat="44.43562" lon="5.55837">
        <ele>940</ele>
        <time>2021-09-07T13:11:27Z</time>
      </trkpt>
      <trkpt lat="44.43562" lon="5.55839">
        <ele>940.1</ele>
        <time>2021-09-07T13:11:28Z</time>
      </trkpt>
      <trkpt lat="44.43561" lon="5.5584">
        <ele>940.2</ele>
        <time>2021-09-07T13:11:29Z</time>
      </trkpt>
      <trkpt lat="44.4356" lon="5.55842">
        <ele>940.3</ele>
        <time>2021-09-07T13:11:30Z</time>
      </trkpt>
      <trkpt lat="44.43559" lon="5.55845">
        <ele>940.5</ele>
        <time>2021-09-07T13:11:31Z</time>
      </trkpt>
      <trkpt lat="44.43559" lon="5.55847">
        <ele>940.6</ele>
        <time>2021-09-07T13:11:32Z</time>
      </trkpt>
      <trkpt lat="44.43559" lon="5.55847">
        <ele>940.5</ele>
        <time>2021-09-07T13:11:33Z</time>
      </trkpt>
      <trkpt lat="44.43559" lon="5.55847">
        <ele>940.5</ele>
        <time>2021-09-07T13:11:34Z</time>
      </trkpt>
      <trkpt lat="44.43558" lon="5.55848">
        <ele>940.6</ele>
        <time>2021-09-07T13:11:35Z</time>
      </trkpt>
      <trkpt lat="44.43557" lon="5.55851">
        <ele>940.8</ele>
        <time>2021-09-07T13:11:36Z</time>
      </trkpt>
      <trkpt lat="44.43557" lon="5.55852">
        <ele>940.9</ele>
        <time>2021-09-07T13:11:37Z</time>
      </trkpt>
      <trkpt lat="44.43557" lon="5.55852">
        <ele>940.9</ele>
        <time>2021-09-07T13:11:38Z</time>
      </trkpt>
      <trkpt lat="44.43557" lon="5.55853">
        <ele>940.9</ele>
        <time>2021-09-07T13:11:39Z</time>
      </trkpt>
      <trkpt lat="44.43557" lon="5.55853">
        <ele>940.9</ele>
        <time>2021-09-07T13:11:40Z</time>
      </trkpt>
      <trkpt lat="44.43556" lon="5.55853">
        <ele>941</ele>
        <time>2021-09-07T13:11:41Z</time>
      </trkpt>
      <trkpt lat="44.43556" lon="5.55855">
        <ele>941.1</ele>
        <time>2021-09-07T13:11:42Z</time>
      </trkpt>
      <trkpt lat="44.43556" lon="5.55856">
        <ele>941.2</ele>
        <time>2021-09-07T13:11:43Z</time>
      </trkpt>
      <trkpt lat="44.43556" lon="5.55856">
        <ele>941.1</ele>
        <time>2021-09-07T13:11:44Z</time>
      </trkpt>
      <trkpt lat="44.43555" lon="5.55858">
        <ele>941.2</ele>
        <time>2021-09-07T13:11:45Z</time>
      </trkpt>
      <trkpt lat="44.43555" lon="5.55858">
        <ele>941.2</ele>
        <time>2021-09-07T13:11:46Z</time>
      </trkpt>
      <trkpt lat="44.43555" lon="5.55859">
        <ele>941.3</ele>
        <time>2021-09-07T13:11:47Z</time>
      </trkpt>
      <trkpt lat="44.43555" lon="5.55859">
        <ele>941.3</ele>
        <time>2021-09-07T13:11:48Z</time>
      </trkpt>
      <trkpt lat="44.43555" lon="5.5586">
        <ele>941.3</ele>
        <time>2021-09-07T13:11:49Z</time>
      </trkpt>
      <trkpt lat="44.43554" lon="5.5586">
        <ele>941.4</ele>
        <time>2021-09-07T13:11:50Z</time>
      </trkpt>
      <trkpt lat="44.43554" lon="5.55861">
        <ele>941.4</ele>
        <time>2021-09-07T13:11:51Z</time>
      </trkpt>
      <trkpt lat="44.43554" lon="5.55862">
        <ele>941.5</ele>
        <time>2021-09-07T13:11:52Z</time>
      </trkpt>
      <trkpt lat="44.43554" lon="5.55862">
        <ele>941.5</ele>
        <time>2021-09-07T13:11:53Z</time>
      </trkpt>
      <trkpt lat="44.43554" lon="5.55864">
        <ele>941.6</ele>
        <time>2021-09-07T13:11:54Z</time>
      </trkpt>
      <trkpt lat="44.43553" lon="5.55868">
        <ele>941.8</ele>
        <time>2021-09-07T13:11:55Z</time>
      </trkpt>
      <trkpt lat="44.43552" lon="5.5587">
        <ele>942</ele>
        <time>2021-09-07T13:11:56Z</time>
      </trkpt>
      <trkpt lat="44.43551" lon="5.55873">
        <ele>942.1</ele>
        <time>2021-09-07T13:11:57Z</time>
      </trkpt>
      <trkpt lat="44.43549" lon="5.55875">
        <ele>942.3</ele>
        <time>2021-09-07T13:11:58Z</time>
      </trkpt>
      <trkpt lat="44.43548" lon="5.55877">
        <ele>942.4</ele>
        <time>2021-09-07T13:11:59Z</time>
      </trkpt>
      <trkpt lat="44.43547" lon="5.5588">
        <ele>942.5</ele>
        <time>2021-09-07T13:12:00Z</time>
      </trkpt>
      <trkpt lat="44.43547" lon="5.55882">
        <ele>942.6</ele>
        <time>2021-09-07T13:12:01Z</time>
      </trkpt>
      <trkpt lat="44.43546" lon="5.55883">
        <ele>942.7</ele>
        <time>2021-09-07T13:12:02Z</time>
      </trkpt>
      <trkpt lat="44.43544" lon="5.55885">
        <ele>942.9</ele>
        <time>2021-09-07T13:12:03Z</time>
      </trkpt>
      <trkpt lat="44.43543" lon="5.55888">
        <ele>943.1</ele>
        <time>2021-09-07T13:12:04Z</time>
      </trkpt>
      <trkpt lat="44.43542" lon="5.55892">
        <ele>943.3</ele>
        <time>2021-09-07T13:12:05Z</time>
      </trkpt>
      <trkpt lat="44.4354" lon="5.55895">
        <ele>943.5</ele>
        <time>2021-09-07T13:12:06Z</time>
      </trkpt>
      <trkpt lat="44.43534" lon="5.55902">
        <ele>944</ele>
        <time>2021-09-07T13:12:07Z</time>
      </trkpt>
      <trkpt lat="44.43533" lon="5.55905">
        <ele>944.2</ele>
        <time>2021-09-07T13:12:08Z</time>
      </trkpt>
      <trkpt lat="44.43531" lon="5.55907">
        <ele>944.3</ele>
        <time>2021-09-07T13:12:09Z</time>
      </trkpt>
      <trkpt lat="44.4353" lon="5.55909">
        <ele>944.4</ele>
        <time>2021-09-07T13:12:10Z</time>
      </trkpt>
      <trkpt lat="44.43528" lon="5.5591">
        <ele>944.5</ele>
        <time>2021-09-07T13:12:11Z</time>
      </trkpt>
      <trkpt lat="44.43527" lon="5.55911">
        <ele>944.6</ele>
        <time>2021-09-07T13:12:12Z</time>
      </trkpt>
      <trkpt lat="44.43526" lon="5.55913">
        <ele>944.7</ele>
        <time>2021-09-07T13:12:13Z</time>
      </trkpt>
      <trkpt lat="44.43525" lon="5.55914">
        <ele>944.8</ele>
        <time>2021-09-07T13:12:14Z</time>
      </trkpt>
      <trkpt lat="44.43523" lon="5.55915">
        <ele>944.9</ele>
        <time>2021-09-07T13:12:15Z</time>
      </trkpt>
      <trkpt lat="44.43522" lon="5.55916">
        <ele>945</ele>
        <time>2021-09-07T13:12:16Z</time>
      </trkpt>
      <trkpt lat="44.4352" lon="5.55917">
        <ele>945.1</ele>
        <time>2021-09-07T13:12:17Z</time>
      </trkpt>
      <trkpt lat="44.43519" lon="5.55918">
        <ele>945.2</ele>
        <time>2021-09-07T13:12:18Z</time>
      </trkpt>
      <trkpt lat="44.43518" lon="5.55919">
        <ele>945.3</ele>
        <time>2021-09-07T13:12:19Z</time>
      </trkpt>
      <trkpt lat="44.43517" lon="5.5592">
        <ele>945.4</ele>
        <time>2021-09-07T13:12:20Z</time>
      </trkpt>
      <trkpt lat="44.43516" lon="5.55921">
        <ele>945.5</ele>
        <time>2021-09-07T13:12:21Z</time>
      </trkpt>
      <trkpt lat="44.43515" lon="5.55922">
        <ele>945.6</ele>
        <time>2021-09-07T13:12:22Z</time>
      </trkpt>
      <trkpt lat="44.43513" lon="5.55923">
        <ele>945.7</ele>
        <time>2021-09-07T13:12:23Z</time>
      </trkpt>
      <trkpt lat="44.43512" lon="5.55923">
        <ele>945.7</ele>
        <time>2021-09-07T13:12:24Z</time>
      </trkpt>
      <trkpt lat="44.43511" lon="5.55924">
        <ele>945.8</ele>
        <time>2021-09-07T13:12:25Z</time>
      </trkpt>
      <trkpt lat="44.4351" lon="5.55925">
        <ele>945.9</ele>
        <time>2021-09-07T13:12:26Z</time>
      </trkpt>
      <trkpt lat="44.43509" lon="5.55925">
        <ele>945.9</ele>
        <time>2021-09-07T13:12:27Z</time>
      </trkpt>
      <trkpt lat="44.43508" lon="5.55926">
        <ele>946.1</ele>
        <time>2021-09-07T13:12:28Z</time>
      </trkpt>
      <trkpt lat="44.43506" lon="5.55927">
        <ele>946.2</ele>
        <time>2021-09-07T13:12:29Z</time>
      </trkpt>
      <trkpt lat="44.43505" lon="5.55928">
        <ele>946.2</ele>
        <time>2021-09-07T13:12:30Z</time>
      </trkpt>
      <trkpt lat="44.43503" lon="5.5593">
        <ele>946.4</ele>
        <time>2021-09-07T13:12:31Z</time>
      </trkpt>
      <trkpt lat="44.43502" lon="5.55931">
        <ele>946.5</ele>
        <time>2021-09-07T13:12:32Z</time>
      </trkpt>
      <trkpt lat="44.43502" lon="5.55932">
        <ele>946.5</ele>
        <time>2021-09-07T13:12:33Z</time>
      </trkpt>
      <trkpt lat="44.43501" lon="5.55933">
        <ele>946.6</ele>
        <time>2021-09-07T13:12:34Z</time>
      </trkpt>
      <trkpt lat="44.43501" lon="5.55935">
        <ele>946.7</ele>
        <time>2021-09-07T13:12:35Z</time>
      </trkpt>
      <trkpt lat="44.435" lon="5.55937">
        <ele>946.8</ele>
        <time>2021-09-07T13:12:36Z</time>
      </trkpt>
      <trkpt lat="44.43499" lon="5.55941">
        <ele>947</ele>
        <time>2021-09-07T13:12:37Z</time>
      </trkpt>
      <trkpt lat="44.43499" lon="5.55942">
        <ele>947</ele>
        <time>2021-09-07T13:12:38Z</time>
      </trkpt>
      <trkpt lat="44.43498" lon="5.55943">
        <ele>947.1</ele>
        <time>2021-09-07T13:12:39Z</time>
      </trkpt>
      <trkpt lat="44.43498" lon="5.55945">
        <ele>947.2</ele>
        <time>2021-09-07T13:12:40Z</time>
      </trkpt>
      <trkpt lat="44.43497" lon="5.55946">
        <ele>947.2</ele>
        <time>2021-09-07T13:12:41Z</time>
      </trkpt>
      <trkpt lat="44.43497" lon="5.55948">
        <ele>947.3</ele>
        <time>2021-09-07T13:12:42Z</time>
      </trkpt>
      <trkpt lat="44.43495" lon="5.55951">
        <ele>947.5</ele>
        <time>2021-09-07T13:12:43Z</time>
      </trkpt>
      <trkpt lat="44.43495" lon="5.55953">
        <ele>947.6</ele>
        <time>2021-09-07T13:12:44Z</time>
      </trkpt>
      <trkpt lat="44.43494" lon="5.55954">
        <ele>947.7</ele>
        <time>2021-09-07T13:12:45Z</time>
      </trkpt>
      <trkpt lat="44.43494" lon="5.55957">
        <ele>947.8</ele>
        <time>2021-09-07T13:12:46Z</time>
      </trkpt>
      <trkpt lat="44.43493" lon="5.5596">
        <ele>947.9</ele>
        <time>2021-09-07T13:12:47Z</time>
      </trkpt>
      <trkpt lat="44.43492" lon="5.55962">
        <ele>948</ele>
        <time>2021-09-07T13:12:48Z</time>
      </trkpt>
      <trkpt lat="44.43491" lon="5.55965">
        <ele>948.2</ele>
        <time>2021-09-07T13:12:49Z</time>
      </trkpt>
      <trkpt lat="44.43491" lon="5.55966">
        <ele>948.2</ele>
        <time>2021-09-07T13:12:50Z</time>
      </trkpt>
      <trkpt lat="44.4349" lon="5.55967">
        <ele>948.3</ele>
        <time>2021-09-07T13:12:51Z</time>
      </trkpt>
      <trkpt lat="44.4349" lon="5.55969">
        <ele>948.4</ele>
        <time>2021-09-07T13:12:52Z</time>
      </trkpt>
      <trkpt lat="44.4349" lon="5.55972">
        <ele>948.5</ele>
        <time>2021-09-07T13:12:53Z</time>
      </trkpt>
      <trkpt lat="44.4349" lon="5.55973">
        <ele>948.6</ele>
        <time>2021-09-07T13:12:54Z</time>
      </trkpt>
      <trkpt lat="44.4349" lon="5.55974">
        <ele>948.6</ele>
        <time>2021-09-07T13:12:55Z</time>
      </trkpt>
      <trkpt lat="44.4349" lon="5.55976">
        <ele>948.7</ele>
        <time>2021-09-07T13:12:56Z</time>
      </trkpt>
      <trkpt lat="44.4349" lon="5.55978">
        <ele>948.8</ele>
        <time>2021-09-07T13:12:57Z</time>
      </trkpt>
      <trkpt lat="44.4349" lon="5.55979">
        <ele>948.9</ele>
        <time>2021-09-07T13:12:58Z</time>
      </trkpt>
      <trkpt lat="44.43491" lon="5.55981">
        <ele>949</ele>
        <time>2021-09-07T13:12:59Z</time>
      </trkpt>
      <trkpt lat="44.43491" lon="5.55982">
        <ele>949</ele>
        <time>2021-09-07T13:13:00Z</time>
      </trkpt>
      <trkpt lat="44.43491" lon="5.55983">
        <ele>949.1</ele>
        <time>2021-09-07T13:13:01Z</time>
      </trkpt>
      <trkpt lat="44.43492" lon="5.55985">
        <ele>949.2</ele>
        <time>2021-09-07T13:13:02Z</time>
      </trkpt>
      <trkpt lat="44.43492" lon="5.55987">
        <ele>949.3</ele>
        <time>2021-09-07T13:13:03Z</time>
      </trkpt>
      <trkpt lat="44.43494" lon="5.55987">
        <ele>949.5</ele>
        <time>2021-09-07T13:13:04Z</time>
      </trkpt>
      <trkpt lat="44.43495" lon="5.55988">
        <ele>949.5</ele>
        <time>2021-09-07T13:13:05Z</time>
      </trkpt>
      <trkpt lat="44.43495" lon="5.55989">
        <ele>949.6</ele>
        <time>2021-09-07T13:13:06Z</time>
      </trkpt>
      <trkpt lat="44.43497" lon="5.55993">
        <ele>949.9</ele>
        <time>2021-09-07T13:13:07Z</time>
      </trkpt>
      <trkpt lat="44.43498" lon="5.55995">
        <ele>950</ele>
        <time>2021-09-07T13:13:08Z</time>
      </trkpt>
      <trkpt lat="44.43498" lon="5.55996">
        <ele>950.1</ele>
        <time>2021-09-07T13:13:09Z</time>
      </trkpt>
      <trkpt lat="44.43499" lon="5.55997">
        <ele>950.2</ele>
        <time>2021-09-07T13:13:10Z</time>
      </trkpt>
      <trkpt lat="44.43499" lon="5.55998">
        <ele>950.2</ele>
        <time>2021-09-07T13:13:11Z</time>
      </trkpt>
      <trkpt lat="44.43499" lon="5.55999">
        <ele>950.3</ele>
        <time>2021-09-07T13:13:12Z</time>
      </trkpt>
      <trkpt lat="44.435" lon="5.56001">
        <ele>950.4</ele>
        <time>2021-09-07T13:13:13Z</time>
      </trkpt>
      <trkpt lat="44.435" lon="5.56003">
        <ele>950.6</ele>
        <time>2021-09-07T13:13:14Z</time>
      </trkpt>
      <trkpt lat="44.43501" lon="5.56006">
        <ele>950.8</ele>
        <time>2021-09-07T13:13:15Z</time>
      </trkpt>
      <trkpt lat="44.43502" lon="5.56007">
        <ele>950.9</ele>
        <time>2021-09-07T13:13:16Z</time>
      </trkpt>
      <trkpt lat="44.43502" lon="5.56008">
        <ele>950.9</ele>
        <time>2021-09-07T13:13:17Z</time>
      </trkpt>
      <trkpt lat="44.43502" lon="5.56009">
        <ele>951</ele>
        <time>2021-09-07T13:13:18Z</time>
      </trkpt>
      <trkpt lat="44.43502" lon="5.5601">
        <ele>951.1</ele>
        <time>2021-09-07T13:13:19Z</time>
      </trkpt>
      <trkpt lat="44.43502" lon="5.56013">
        <ele>951.3</ele>
        <time>2021-09-07T13:13:20Z</time>
      </trkpt>
      <trkpt lat="44.43502" lon="5.56015">
        <ele>951.4</ele>
        <time>2021-09-07T13:13:21Z</time>
      </trkpt>
      <trkpt lat="44.43502" lon="5.56017">
        <ele>951.5</ele>
        <time>2021-09-07T13:13:22Z</time>
      </trkpt>
      <trkpt lat="44.43502" lon="5.56018">
        <ele>951.6</ele>
        <time>2021-09-07T13:13:23Z</time>
      </trkpt>
      <trkpt lat="44.43501" lon="5.5602">
        <ele>951.8</ele>
        <time>2021-09-07T13:13:24Z</time>
      </trkpt>
      <trkpt lat="44.43501" lon="5.56023">
        <ele>952</ele>
        <time>2021-09-07T13:13:25Z</time>
      </trkpt>
      <trkpt lat="44.43501" lon="5.56025">
        <ele>952.1</ele>
        <time>2021-09-07T13:13:26Z</time>
      </trkpt>
      <trkpt lat="44.43501" lon="5.56026">
        <ele>952.2</ele>
        <time>2021-09-07T13:13:27Z</time>
      </trkpt>
      <trkpt lat="44.43501" lon="5.56028">
        <ele>952.3</ele>
        <time>2021-09-07T13:13:28Z</time>
      </trkpt>
      <trkpt lat="44.43501" lon="5.5603">
        <ele>952.4</ele>
        <time>2021-09-07T13:13:29Z</time>
      </trkpt>
      <trkpt lat="44.43501" lon="5.56032">
        <ele>952.6</ele>
        <time>2021-09-07T13:13:30Z</time>
      </trkpt>
      <trkpt lat="44.43502" lon="5.56036">
        <ele>952.8</ele>
        <time>2021-09-07T13:13:31Z</time>
      </trkpt>
      <trkpt lat="44.43503" lon="5.56038">
        <ele>953</ele>
        <time>2021-09-07T13:13:32Z</time>
      </trkpt>
      <trkpt lat="44.43503" lon="5.5604">
        <ele>953.1</ele>
        <time>2021-09-07T13:13:33Z</time>
      </trkpt>
      <trkpt lat="44.43504" lon="5.56042">
        <ele>953.2</ele>
        <time>2021-09-07T13:13:34Z</time>
      </trkpt>
      <trkpt lat="44.43504" lon="5.56043">
        <ele>953.3</ele>
        <time>2021-09-07T13:13:35Z</time>
      </trkpt>
      <trkpt lat="44.43505" lon="5.56045">
        <ele>953.4</ele>
        <time>2021-09-07T13:13:36Z</time>
      </trkpt>
      <trkpt lat="44.43507" lon="5.56047">
        <ele>953.6</ele>
        <time>2021-09-07T13:13:37Z</time>
      </trkpt>
      <trkpt lat="44.43508" lon="5.56049">
        <ele>953.8</ele>
        <time>2021-09-07T13:13:38Z</time>
      </trkpt>
      <trkpt lat="44.43509" lon="5.56051">
        <ele>953.9</ele>
        <time>2021-09-07T13:13:39Z</time>
      </trkpt>
      <trkpt lat="44.4351" lon="5.56052">
        <ele>954</ele>
        <time>2021-09-07T13:13:40Z</time>
      </trkpt>
      <trkpt lat="44.43512" lon="5.56055">
        <ele>954.2</ele>
        <time>2021-09-07T13:13:41Z</time>
      </trkpt>
      <trkpt lat="44.43513" lon="5.56056">
        <ele>954.3</ele>
        <time>2021-09-07T13:13:42Z</time>
      </trkpt>
      <trkpt lat="44.43514" lon="5.56056">
        <ele>954.4</ele>
        <time>2021-09-07T13:13:43Z</time>
      </trkpt>
      <trkpt lat="44.43515" lon="5.56058">
        <ele>954.5</ele>
        <time>2021-09-07T13:13:44Z</time>
      </trkpt>
      <trkpt lat="44.43517" lon="5.56059">
        <ele>954.7</ele>
        <time>2021-09-07T13:13:45Z</time>
      </trkpt>
      <trkpt lat="44.43518" lon="5.56059">
        <ele>954.8</ele>
        <time>2021-09-07T13:13:46Z</time>
      </trkpt>
      <trkpt lat="44.43519" lon="5.56062">
        <ele>955</ele>
        <time>2021-09-07T13:13:47Z</time>
      </trkpt>
      <trkpt lat="44.4352" lon="5.56064">
        <ele>955.1</ele>
        <time>2021-09-07T13:13:48Z</time>
      </trkpt>
      <trkpt lat="44.4352" lon="5.56065">
        <ele>955.1</ele>
        <time>2021-09-07T13:13:49Z</time>
      </trkpt>
      <trkpt lat="44.4352" lon="5.56068">
        <ele>955.3</ele>
        <time>2021-09-07T13:13:50Z</time>
      </trkpt>
      <trkpt lat="44.43521" lon="5.56069">
        <ele>955.4</ele>
        <time>2021-09-07T13:13:51Z</time>
      </trkpt>
      <trkpt lat="44.43521" lon="5.5607">
        <ele>955.4</ele>
        <time>2021-09-07T13:13:52Z</time>
      </trkpt>
      <trkpt lat="44.43521" lon="5.56072">
        <ele>955.5</ele>
        <time>2021-09-07T13:13:53Z</time>
      </trkpt>
      <trkpt lat="44.43522" lon="5.56075">
        <ele>955.7</ele>
        <time>2021-09-07T13:13:54Z</time>
      </trkpt>
      <trkpt lat="44.43522" lon="5.56077">
        <ele>955.8</ele>
        <time>2021-09-07T13:13:55Z</time>
      </trkpt>
      <trkpt lat="44.43522" lon="5.56078">
        <ele>955.9</ele>
        <time>2021-09-07T13:13:56Z</time>
      </trkpt>
      <trkpt lat="44.43522" lon="5.5608">
        <ele>956</ele>
        <time>2021-09-07T13:13:57Z</time>
      </trkpt>
      <trkpt lat="44.43523" lon="5.56082">
        <ele>956.1</ele>
        <time>2021-09-07T13:13:58Z</time>
      </trkpt>
      <trkpt lat="44.43523" lon="5.56084">
        <ele>956.2</ele>
        <time>2021-09-07T13:13:59Z</time>
      </trkpt>
      <trkpt lat="44.43524" lon="5.56086">
        <ele>956.3</ele>
        <time>2021-09-07T13:14:00Z</time>
      </trkpt>
      <trkpt lat="44.43526" lon="5.56089">
        <ele>956.5</ele>
        <time>2021-09-07T13:14:01Z</time>
      </trkpt>
      <trkpt lat="44.43527" lon="5.5609">
        <ele>956.5</ele>
        <time>2021-09-07T13:14:02Z</time>
      </trkpt>
      <trkpt lat="44.43527" lon="5.56091">
        <ele>956.6</ele>
        <time>2021-09-07T13:14:03Z</time>
      </trkpt>
      <trkpt lat="44.43528" lon="5.56092">
        <ele>956.6</ele>
        <time>2021-09-07T13:14:04Z</time>
      </trkpt>
      <trkpt lat="44.43528" lon="5.56092">
        <ele>956.6</ele>
        <time>2021-09-07T13:14:05Z</time>
      </trkpt>
      <trkpt lat="44.43528" lon="5.56092">
        <ele>956.6</ele>
        <time>2021-09-07T13:14:06Z</time>
      </trkpt>
      <trkpt lat="44.43529" lon="5.56093">
        <ele>956.7</ele>
        <time>2021-09-07T13:14:07Z</time>
      </trkpt>
      <trkpt lat="44.43529" lon="5.56093">
        <ele>956.7</ele>
        <time>2021-09-07T13:14:08Z</time>
      </trkpt>
      <trkpt lat="44.4353" lon="5.56094">
        <ele>956.8</ele>
        <time>2021-09-07T13:14:09Z</time>
      </trkpt>
      <trkpt lat="44.43531" lon="5.56095">
        <ele>956.9</ele>
        <time>2021-09-07T13:14:10Z</time>
      </trkpt>
      <trkpt lat="44.43533" lon="5.56099">
        <ele>957</ele>
        <time>2021-09-07T13:14:11Z</time>
      </trkpt>
      <trkpt lat="44.43533" lon="5.56101">
        <ele>957.1</ele>
        <time>2021-09-07T13:14:12Z</time>
      </trkpt>
      <trkpt lat="44.43533" lon="5.56102">
        <ele>957.1</ele>
        <time>2021-09-07T13:14:13Z</time>
      </trkpt>
      <trkpt lat="44.43532" lon="5.56104">
        <ele>957.2</ele>
        <time>2021-09-07T13:14:14Z</time>
      </trkpt>
      <trkpt lat="44.43532" lon="5.56107">
        <ele>957.3</ele>
        <time>2021-09-07T13:14:15Z</time>
      </trkpt>
      <trkpt lat="44.43532" lon="5.56109">
        <ele>957.4</ele>
        <time>2021-09-07T13:14:16Z</time>
      </trkpt>
      <trkpt lat="44.43531" lon="5.56114">
        <ele>957.5</ele>
        <time>2021-09-07T13:14:17Z</time>
      </trkpt>
      <trkpt lat="44.43532" lon="5.56116">
        <ele>957.6</ele>
        <time>2021-09-07T13:14:18Z</time>
      </trkpt>
      <trkpt lat="44.43532" lon="5.56117">
        <ele>957.6</ele>
        <time>2021-09-07T13:14:19Z</time>
      </trkpt>
      <trkpt lat="44.43532" lon="5.56119">
        <ele>957.7</ele>
        <time>2021-09-07T13:14:20Z</time>
      </trkpt>
      <trkpt lat="44.43532" lon="5.56123">
        <ele>957.8</ele>
        <time>2021-09-07T13:14:21Z</time>
      </trkpt>
      <trkpt lat="44.43531" lon="5.56127">
        <ele>957.9</ele>
        <time>2021-09-07T13:14:22Z</time>
      </trkpt>
      <trkpt lat="44.43531" lon="5.56128">
        <ele>957.9</ele>
        <time>2021-09-07T13:14:23Z</time>
      </trkpt>
      <trkpt lat="44.43531" lon="5.56129">
        <ele>957.9</ele>
        <time>2021-09-07T13:14:24Z</time>
      </trkpt>
      <trkpt lat="44.43531" lon="5.56131">
        <ele>958.4</ele>
        <time>2021-09-07T13:14:25Z</time>
      </trkpt>
      <trkpt lat="44.4353" lon="5.56133">
        <ele>958.5</ele>
        <time>2021-09-07T13:14:26Z</time>
      </trkpt>
      <trkpt lat="44.4353" lon="5.56133">
        <ele>958.5</ele>
        <time>2021-09-07T13:14:27Z</time>
      </trkpt>
      <trkpt lat="44.43529" lon="5.56133">
        <ele>958.5</ele>
        <time>2021-09-07T13:14:28Z</time>
      </trkpt>
      <trkpt lat="44.43529" lon="5.56134">
        <ele>958.5</ele>
        <time>2021-09-07T13:14:29Z</time>
      </trkpt>
      <trkpt lat="44.43529" lon="5.56134">
        <ele>958.6</ele>
        <time>2021-09-07T13:14:30Z</time>
      </trkpt>
      <trkpt lat="44.43528" lon="5.56134">
        <ele>958.6</ele>
        <time>2021-09-07T13:14:31Z</time>
      </trkpt>
      <trkpt lat="44.43528" lon="5.56135">
        <ele>958.6</ele>
        <time>2021-09-07T13:14:32Z</time>
      </trkpt>
      <trkpt lat="44.43528" lon="5.56135">
        <ele>958.6</ele>
        <time>2021-09-07T13:14:33Z</time>
      </trkpt>
      <trkpt lat="44.43528" lon="5.56135">
        <ele>958.6</ele>
        <time>2021-09-07T13:14:34Z</time>
      </trkpt>
      <trkpt lat="44.43528" lon="5.56135">
        <ele>958.6</ele>
        <time>2021-09-07T13:14:35Z</time>
      </trkpt>
      <trkpt lat="44.43527" lon="5.56135">
        <ele>958.6</ele>
        <time>2021-09-07T13:14:36Z</time>
      </trkpt>
      <trkpt lat="44.43527" lon="5.56135">
        <ele>958.6</ele>
        <time>2021-09-07T13:14:37Z</time>
      </trkpt>
      <trkpt lat="44.43526" lon="5.56135">
        <ele>958.7</ele>
        <time>2021-09-07T13:14:38Z</time>
      </trkpt>
      <trkpt lat="44.43525" lon="5.56134">
        <ele>958.7</ele>
        <time>2021-09-07T13:14:39Z</time>
      </trkpt>
      <trkpt lat="44.43524" lon="5.56133">
        <ele>958.8</ele>
        <time>2021-09-07T13:14:40Z</time>
      </trkpt>
      <trkpt lat="44.43523" lon="5.56133">
        <ele>958.8</ele>
        <time>2021-09-07T13:14:41Z</time>
      </trkpt>
      <trkpt lat="44.43522" lon="5.56132">
        <ele>958.9</ele>
        <time>2021-09-07T13:14:42Z</time>
      </trkpt>
      <trkpt lat="44.43521" lon="5.5613">
        <ele>959</ele>
        <time>2021-09-07T13:14:43Z</time>
      </trkpt>
      <trkpt lat="44.43519" lon="5.56128">
        <ele>959.1</ele>
        <time>2021-09-07T13:14:44Z</time>
      </trkpt>
      <trkpt lat="44.43517" lon="5.56126">
        <ele>959.3</ele>
        <time>2021-09-07T13:14:45Z</time>
      </trkpt>
      <trkpt lat="44.43516" lon="5.56125">
        <ele>959.4</ele>
        <time>2021-09-07T13:14:46Z</time>
      </trkpt>
      <trkpt lat="44.43515" lon="5.56124">
        <ele>959.4</ele>
        <time>2021-09-07T13:14:47Z</time>
      </trkpt>
      <trkpt lat="44.43513" lon="5.56122">
        <ele>959.6</ele>
        <time>2021-09-07T13:14:48Z</time>
      </trkpt>
      <trkpt lat="44.43512" lon="5.56119">
        <ele>959.8</ele>
        <time>2021-09-07T13:14:49Z</time>
      </trkpt>
      <trkpt lat="44.43511" lon="5.56118">
        <ele>959.9</ele>
        <time>2021-09-07T13:14:50Z</time>
      </trkpt>
      <trkpt lat="44.4351" lon="5.56117">
        <ele>960</ele>
        <time>2021-09-07T13:14:51Z</time>
      </trkpt>
      <trkpt lat="44.43509" lon="5.56116">
        <ele>960.2</ele>
        <time>2021-09-07T13:14:52Z</time>
      </trkpt>
      <trkpt lat="44.43508" lon="5.56115">
        <ele>960.3</ele>
        <time>2021-09-07T13:14:53Z</time>
      </trkpt>
      <trkpt lat="44.43507" lon="5.56114">
        <ele>960.4</ele>
        <time>2021-09-07T13:14:54Z</time>
      </trkpt>
      <trkpt lat="44.43507" lon="5.56114">
        <ele>960.4</ele>
        <time>2021-09-07T13:14:55Z</time>
      </trkpt>
      <trkpt lat="44.43507" lon="5.56114">
        <ele>960.4</ele>
        <time>2021-09-07T13:14:56Z</time>
      </trkpt>
      <trkpt lat="44.43507" lon="5.56114">
        <ele>960.4</ele>
        <time>2021-09-07T13:14:57Z</time>
      </trkpt>
      <trkpt lat="44.43507" lon="5.56114">
        <ele>960.4</ele>
        <time>2021-09-07T13:14:58Z</time>
      </trkpt>
      <trkpt lat="44.43506" lon="5.56114">
        <ele>960.5</ele>
        <time>2021-09-07T13:14:59Z</time>
      </trkpt>
      <trkpt lat="44.43506" lon="5.56114">
        <ele>960.5</ele>
        <time>2021-09-07T13:15:00Z</time>
      </trkpt>
      <trkpt lat="44.43506" lon="5.56113">
        <ele>960.5</ele>
        <time>2021-09-07T13:15:01Z</time>
      </trkpt>
      <trkpt lat="44.43506" lon="5.56113">
        <ele>960.6</ele>
        <time>2021-09-07T13:15:02Z</time>
      </trkpt>
      <trkpt lat="44.43506" lon="5.56113">
        <ele>960.6</ele>
        <time>2021-09-07T13:15:03Z</time>
      </trkpt>
      <trkpt lat="44.43506" lon="5.56113">
        <ele>960.6</ele>
        <time>2021-09-07T13:15:04Z</time>
      </trkpt>
      <trkpt lat="44.43506" lon="5.56113">
        <ele>960.6</ele>
        <time>2021-09-07T13:15:05Z</time>
      </trkpt>
      <trkpt lat="44.43506" lon="5.56113">
        <ele>960.6</ele>
        <time>2021-09-07T13:15:06Z</time>
      </trkpt>
      <trkpt lat="44.43506" lon="5.56113">
        <ele>960.6</ele>
        <time>2021-09-07T13:15:07Z</time>
      </trkpt>
      <trkpt lat="44.43506" lon="5.56113">
        <ele>960.6</ele>
        <time>2021-09-07T13:15:08Z</time>
      </trkpt>
      <trkpt lat="44.43507" lon="5.56113">
        <ele>960.6</ele>
        <time>2021-09-07T13:15:09Z</time>
      </trkpt>
      <trkpt lat="44.43507" lon="5.56113">
        <ele>960.7</ele>
        <time>2021-09-07T13:15:10Z</time>
      </trkpt>
      <trkpt lat="44.43507" lon="5.56113">
        <ele>960.7</ele>
        <time>2021-09-07T13:15:11Z</time>
      </trkpt>
      <trkpt lat="44.43507" lon="5.56113">
        <ele>960.7</ele>
        <time>2021-09-07T13:15:12Z</time>
      </trkpt>
      <trkpt lat="44.43507" lon="5.56113">
        <ele>960.7</ele>
        <time>2021-09-07T13:15:13Z</time>
      </trkpt>
      <trkpt lat="44.43507" lon="5.56112">
        <ele>960.7</ele>
        <time>2021-09-07T13:15:14Z</time>
      </trkpt>
      <trkpt lat="44.43507" lon="5.56113">
        <ele>960.8</ele>
        <time>2021-09-07T13:15:15Z</time>
      </trkpt>
      <trkpt lat="44.43506" lon="5.56113">
        <ele>960.9</ele>
        <time>2021-09-07T13:15:16Z</time>
      </trkpt>
      <trkpt lat="44.43506" lon="5.56113">
        <ele>960.9</ele>
        <time>2021-09-07T13:15:17Z</time>
      </trkpt>
      <trkpt lat="44.43506" lon="5.56113">
        <ele>960.9</ele>
        <time>2021-09-07T13:15:18Z</time>
      </trkpt>
      <trkpt lat="44.43506" lon="5.56113">
        <ele>960.9</ele>
        <time>2021-09-07T13:15:19Z</time>
      </trkpt>
      <trkpt lat="44.43506" lon="5.56113">
        <ele>960.9</ele>
        <time>2021-09-07T13:15:20Z</time>
      </trkpt>
      <trkpt lat="44.43508" lon="5.56112">
        <ele>961.1</ele>
        <time>2021-09-07T13:15:21Z</time>
      </trkpt>
      <trkpt lat="44.4351" lon="5.56111">
        <ele>961.3</ele>
        <time>2021-09-07T13:15:22Z</time>
      </trkpt>
      <trkpt lat="44.43511" lon="5.56111">
        <ele>961.4</ele>
        <time>2021-09-07T13:15:23Z</time>
      </trkpt>
      <trkpt lat="44.43511" lon="5.5611">
        <ele>961.5</ele>
        <time>2021-09-07T13:15:24Z</time>
      </trkpt>
      <trkpt lat="44.43511" lon="5.5611">
        <ele>961.5</ele>
        <time>2021-09-07T13:15:25Z</time>
      </trkpt>
      <trkpt lat="44.43511" lon="5.5611">
        <ele>961.5</ele>
        <time>2021-09-07T13:15:26Z</time>
      </trkpt>
      <trkpt lat="44.43511" lon="5.5611">
        <ele>961.5</ele>
        <time>2021-09-07T13:15:27Z</time>
      </trkpt>
      <trkpt lat="44.43511" lon="5.5611">
        <ele>961.5</ele>
        <time>2021-09-07T13:15:28Z</time>
      </trkpt>
      <trkpt lat="44.43511" lon="5.5611">
        <ele>961.5</ele>
        <time>2021-09-07T13:15:29Z</time>
      </trkpt>
      <trkpt lat="44.43511" lon="5.5611">
        <ele>961.5</ele>
        <time>2021-09-07T13:15:30Z</time>
      </trkpt>
      <trkpt lat="44.43511" lon="5.5611">
        <ele>961.5</ele>
        <time>2021-09-07T13:15:31Z</time>
      </trkpt>
      <trkpt lat="44.43511" lon="5.5611">
        <ele>961.5</ele>
        <time>2021-09-07T13:15:32Z</time>
      </trkpt>
      <trkpt lat="44.43511" lon="5.5611">
        <ele>961.5</ele>
        <time>2021-09-07T13:15:33Z</time>
      </trkpt>
      <trkpt lat="44.43511" lon="5.5611">
        <ele>961.5</ele>
        <time>2021-09-07T13:15:34Z</time>
      </trkpt>
      <trkpt lat="44.43511" lon="5.5611">
        <ele>961.5</ele>
        <time>2021-09-07T13:15:35Z</time>
      </trkpt>
      <trkpt lat="44.43511" lon="5.5611">
        <ele>961.5</ele>
        <time>2021-09-07T13:15:36Z</time>
      </trkpt>
      <trkpt lat="44.43511" lon="5.5611">
        <ele>961.5</ele>
        <time>2021-09-07T13:15:37Z</time>
      </trkpt>
      <trkpt lat="44.43511" lon="5.5611">
        <ele>961.5</ele>
        <time>2021-09-07T13:15:38Z</time>
      </trkpt>
      <trkpt lat="44.43511" lon="5.5611">
        <ele>961.5</ele>
        <time>2021-09-07T13:15:39Z</time>
      </trkpt>
      <trkpt lat="44.43511" lon="5.5611">
        <ele>961.5</ele>
        <time>2021-09-07T13:15:40Z</time>
      </trkpt>
      <trkpt lat="44.43511" lon="5.5611">
        <ele>961.5</ele>
        <time>2021-09-07T13:15:41Z</time>
      </trkpt>
      <trkpt lat="44.43511" lon="5.5611">
        <ele>961.5</ele>
        <time>2021-09-07T13:15:42Z</time>
      </trkpt>
      <trkpt lat="44.43511" lon="5.5611">
        <ele>961.5</ele>
        <time>2021-09-07T13:15:43Z</time>
      </trkpt>
      <trkpt lat="44.43511" lon="5.5611">
        <ele>961.5</ele>
        <time>2021-09-07T13:15:44Z</time>
      </trkpt>
      <trkpt lat="44.43511" lon="5.5611">
        <ele>961.5</ele>
        <time>2021-09-07T13:15:45Z</time>
      </trkpt>
      <trkpt lat="44.43511" lon="5.5611">
        <ele>961.5</ele>
        <time>2021-09-07T13:15:46Z</time>
      </trkpt>
      <trkpt lat="44.43511" lon="5.5611">
        <ele>961.5</ele>
        <time>2021-09-07T13:15:47Z</time>
      </trkpt>
      <trkpt lat="44.43511" lon="5.5611">
        <ele>961.5</ele>
        <time>2021-09-07T13:15:48Z</time>
      </trkpt>
      <trkpt lat="44.43511" lon="5.5611">
        <ele>961.5</ele>
        <time>2021-09-07T13:15:49Z</time>
      </trkpt>
      <trkpt lat="44.43511" lon="5.5611">
        <ele>961.5</ele>
        <time>2021-09-07T13:15:50Z</time>
      </trkpt>
      <trkpt lat="44.43511" lon="5.5611">
        <ele>961.5</ele>
        <time>2021-09-07T13:15:51Z</time>
      </trkpt>
      <trkpt lat="44.43511" lon="5.5611">
        <ele>961.5</ele>
        <time>2021-09-07T13:15:52Z</time>
      </trkpt>
      <trkpt lat="44.43511" lon="5.5611">
        <ele>961.5</ele>
        <time>2021-09-07T13:15:53Z</time>
      </trkpt>
      <trkpt lat="44.43511" lon="5.56111">
        <ele>961.5</ele>
        <time>2021-09-07T13:15:54Z</time>
      </trkpt>
      <trkpt lat="44.43511" lon="5.56111">
        <ele>961.6</ele>
        <time>2021-09-07T13:15:55Z</time>
      </trkpt>
      <trkpt lat="44.43512" lon="5.56111">
        <ele>961.7</ele>
        <time>2021-09-07T13:15:56Z</time>
      </trkpt>
      <trkpt lat="44.43512" lon="5.56111">
        <ele>961.7</ele>
        <time>2021-09-07T13:15:57Z</time>
      </trkpt>
      <trkpt lat="44.43512" lon="5.5611">
        <ele>961.7</ele>
        <time>2021-09-07T13:15:58Z</time>
      </trkpt>
      <trkpt lat="44.43511" lon="5.5611">
        <ele>961.8</ele>
        <time>2021-09-07T13:15:59Z</time>
      </trkpt>
      <trkpt lat="44.4351" lon="5.5611">
        <ele>961.9</ele>
        <time>2021-09-07T13:16:00Z</time>
      </trkpt>
      <trkpt lat="44.43509" lon="5.5611">
        <ele>962</ele>
        <time>2021-09-07T13:16:01Z</time>
      </trkpt>
      <trkpt lat="44.43505" lon="5.56109">
        <ele>962.5</ele>
        <time>2021-09-07T13:16:02Z</time>
      </trkpt>
      <trkpt lat="44.43503" lon="5.56109">
        <ele>962.7</ele>
        <time>2021-09-07T13:16:03Z</time>
      </trkpt>
      <trkpt lat="44.43502" lon="5.56108">
        <ele>962.8</ele>
        <time>2021-09-07T13:16:04Z</time>
      </trkpt>
      <trkpt lat="44.43501" lon="5.56108">
        <ele>962.9</ele>
        <time>2021-09-07T13:16:05Z</time>
      </trkpt>
      <trkpt lat="44.435" lon="5.56108">
        <ele>963</ele>
        <time>2021-09-07T13:16:06Z</time>
      </trkpt>
      <trkpt lat="44.43498" lon="5.56107">
        <ele>963.2</ele>
        <time>2021-09-07T13:16:07Z</time>
      </trkpt>
      <trkpt lat="44.43495" lon="5.56106">
        <ele>963.5</ele>
        <time>2021-09-07T13:16:08Z</time>
      </trkpt>
      <trkpt lat="44.43494" lon="5.56106">
        <ele>963.6</ele>
        <time>2021-09-07T13:16:09Z</time>
      </trkpt>
      <trkpt lat="44.43493" lon="5.56105">
        <ele>963.7</ele>
        <time>2021-09-07T13:16:10Z</time>
      </trkpt>
      <trkpt lat="44.43492" lon="5.56105">
        <ele>963.8</ele>
        <time>2021-09-07T13:16:11Z</time>
      </trkpt>
      <trkpt lat="44.4349" lon="5.56105">
        <ele>964</ele>
        <time>2021-09-07T13:16:12Z</time>
      </trkpt>
      <trkpt lat="44.43489" lon="5.56105">
        <ele>964.1</ele>
        <time>2021-09-07T13:16:13Z</time>
      </trkpt>
      <trkpt lat="44.43488" lon="5.56104">
        <ele>964.2</ele>
        <time>2021-09-07T13:16:14Z</time>
      </trkpt>
      <trkpt lat="44.43486" lon="5.56103">
        <ele>964.4</ele>
        <time>2021-09-07T13:16:15Z</time>
      </trkpt>
      <trkpt lat="44.43486" lon="5.56103">
        <ele>964.5</ele>
        <time>2021-09-07T13:16:16Z</time>
      </trkpt>
      <trkpt lat="44.43485" lon="5.56102">
        <ele>964.5</ele>
        <time>2021-09-07T13:16:17Z</time>
      </trkpt>
      <trkpt lat="44.43484" lon="5.56101">
        <ele>964.6</ele>
        <time>2021-09-07T13:16:18Z</time>
      </trkpt>
      <trkpt lat="44.43482" lon="5.56099">
        <ele>964.9</ele>
        <time>2021-09-07T13:16:19Z</time>
      </trkpt>
      <trkpt lat="44.4348" lon="5.56097">
        <ele>965.1</ele>
        <time>2021-09-07T13:16:20Z</time>
      </trkpt>
      <trkpt lat="44.43478" lon="5.56095">
        <ele>965.3</ele>
        <time>2021-09-07T13:16:21Z</time>
      </trkpt>
      <trkpt lat="44.43478" lon="5.56094">
        <ele>965.4</ele>
        <time>2021-09-07T13:16:22Z</time>
      </trkpt>
      <trkpt lat="44.43477" lon="5.56093">
        <ele>965.5</ele>
        <time>2021-09-07T13:16:23Z</time>
      </trkpt>
      <trkpt lat="44.43477" lon="5.56092">
        <ele>965.6</ele>
        <time>2021-09-07T13:16:24Z</time>
      </trkpt>
      <trkpt lat="44.43476" lon="5.56091">
        <ele>965.6</ele>
        <time>2021-09-07T13:16:25Z</time>
      </trkpt>
      <trkpt lat="44.43475" lon="5.5609">
        <ele>965.8</ele>
        <time>2021-09-07T13:16:26Z</time>
      </trkpt>
      <trkpt lat="44.43473" lon="5.56089">
        <ele>965.9</ele>
        <time>2021-09-07T13:16:27Z</time>
      </trkpt>
      <trkpt lat="44.43473" lon="5.56088">
        <ele>966</ele>
        <time>2021-09-07T13:16:28Z</time>
      </trkpt>
      <trkpt lat="44.43472" lon="5.56087">
        <ele>966.1</ele>
        <time>2021-09-07T13:16:29Z</time>
      </trkpt>
      <trkpt lat="44.43472" lon="5.56087">
        <ele>966.1</ele>
        <time>2021-09-07T13:16:30Z</time>
      </trkpt>
      <trkpt lat="44.43472" lon="5.56087">
        <ele>966.1</ele>
        <time>2021-09-07T13:16:31Z</time>
      </trkpt>
      <trkpt lat="44.43472" lon="5.56086">
        <ele>966.2</ele>
        <time>2021-09-07T13:16:32Z</time>
      </trkpt>
      <trkpt lat="44.43471" lon="5.56085">
        <ele>966.3</ele>
        <time>2021-09-07T13:16:33Z</time>
      </trkpt>
      <trkpt lat="44.4347" lon="5.56084">
        <ele>966.4</ele>
        <time>2021-09-07T13:16:34Z</time>
      </trkpt>
      <trkpt lat="44.43469" lon="5.56083">
        <ele>966.5</ele>
        <time>2021-09-07T13:16:35Z</time>
      </trkpt>
      <trkpt lat="44.43468" lon="5.56082">
        <ele>966.6</ele>
        <time>2021-09-07T13:16:36Z</time>
      </trkpt>
      <trkpt lat="44.43468" lon="5.56082">
        <ele>966.7</ele>
        <time>2021-09-07T13:16:37Z</time>
      </trkpt>
      <trkpt lat="44.43467" lon="5.56081">
        <ele>966.7</ele>
        <time>2021-09-07T13:16:38Z</time>
      </trkpt>
      <trkpt lat="44.43467" lon="5.56081">
        <ele>966.7</ele>
        <time>2021-09-07T13:16:39Z</time>
      </trkpt>
      <trkpt lat="44.43466" lon="5.5608">
        <ele>966.8</ele>
        <time>2021-09-07T13:16:40Z</time>
      </trkpt>
      <trkpt lat="44.43465" lon="5.5608">
        <ele>966.9</ele>
        <time>2021-09-07T13:16:41Z</time>
      </trkpt>
      <trkpt lat="44.43465" lon="5.56078">
        <ele>967.1</ele>
        <time>2021-09-07T13:16:42Z</time>
      </trkpt>
      <trkpt lat="44.43464" lon="5.56077">
        <ele>967.2</ele>
        <time>2021-09-07T13:16:43Z</time>
      </trkpt>
      <trkpt lat="44.43463" lon="5.56076">
        <ele>967.3</ele>
        <time>2021-09-07T13:16:44Z</time>
      </trkpt>
      <trkpt lat="44.43462" lon="5.56075">
        <ele>967.4</ele>
        <time>2021-09-07T13:16:45Z</time>
      </trkpt>
      <trkpt lat="44.43461" lon="5.56074">
        <ele>967.5</ele>
        <time>2021-09-07T13:16:46Z</time>
      </trkpt>
      <trkpt lat="44.4346" lon="5.56072">
        <ele>967.7</ele>
        <time>2021-09-07T13:16:47Z</time>
      </trkpt>
      <trkpt lat="44.43458" lon="5.5607">
        <ele>967.9</ele>
        <time>2021-09-07T13:16:48Z</time>
      </trkpt>
      <trkpt lat="44.43456" lon="5.56068">
        <ele>968.1</ele>
        <time>2021-09-07T13:16:49Z</time>
      </trkpt>
      <trkpt lat="44.43455" lon="5.56065">
        <ele>968.3</ele>
        <time>2021-09-07T13:16:50Z</time>
      </trkpt>
      <trkpt lat="44.43454" lon="5.56064">
        <ele>968.5</ele>
        <time>2021-09-07T13:16:51Z</time>
      </trkpt>
      <trkpt lat="44.43453" lon="5.56062">
        <ele>968.6</ele>
        <time>2021-09-07T13:16:52Z</time>
      </trkpt>
      <trkpt lat="44.43452" lon="5.56061">
        <ele>968.7</ele>
        <time>2021-09-07T13:16:53Z</time>
      </trkpt>
      <trkpt lat="44.43451" lon="5.56059">
        <ele>968.8</ele>
        <time>2021-09-07T13:16:54Z</time>
      </trkpt>
      <trkpt lat="44.4345" lon="5.56056">
        <ele>969</ele>
        <time>2021-09-07T13:16:55Z</time>
      </trkpt>
      <trkpt lat="44.43448" lon="5.56054">
        <ele>969.2</ele>
        <time>2021-09-07T13:16:56Z</time>
      </trkpt>
      <trkpt lat="44.43448" lon="5.56054">
        <ele>969.3</ele>
        <time>2021-09-07T13:16:57Z</time>
      </trkpt>
      <trkpt lat="44.43447" lon="5.56053">
        <ele>969.3</ele>
        <time>2021-09-07T13:16:58Z</time>
      </trkpt>
      <trkpt lat="44.43446" lon="5.56052">
        <ele>969.4</ele>
        <time>2021-09-07T13:16:59Z</time>
      </trkpt>
      <trkpt lat="44.43445" lon="5.56052">
        <ele>969.5</ele>
        <time>2021-09-07T13:17:00Z</time>
      </trkpt>
      <trkpt lat="44.43444" lon="5.56051">
        <ele>969.6</ele>
        <time>2021-09-07T13:17:01Z</time>
      </trkpt>
      <trkpt lat="44.43442" lon="5.5605">
        <ele>969.8</ele>
        <time>2021-09-07T13:17:02Z</time>
      </trkpt>
      <trkpt lat="44.43442" lon="5.5605">
        <ele>969.8</ele>
        <time>2021-09-07T13:17:03Z</time>
      </trkpt>
      <trkpt lat="44.43441" lon="5.56049">
        <ele>969.9</ele>
        <time>2021-09-07T13:17:04Z</time>
      </trkpt>
      <trkpt lat="44.43439" lon="5.56048">
        <ele>970.1</ele>
        <time>2021-09-07T13:17:05Z</time>
      </trkpt>
      <trkpt lat="44.43438" lon="5.56048">
        <ele>970.1</ele>
        <time>2021-09-07T13:17:06Z</time>
      </trkpt>
      <trkpt lat="44.43438" lon="5.56048">
        <ele>970.2</ele>
        <time>2021-09-07T13:17:07Z</time>
      </trkpt>
      <trkpt lat="44.43437" lon="5.56047">
        <ele>970.2</ele>
        <time>2021-09-07T13:17:08Z</time>
      </trkpt>
      <trkpt lat="44.43436" lon="5.56046">
        <ele>970.3</ele>
        <time>2021-09-07T13:17:09Z</time>
      </trkpt>
      <trkpt lat="44.43435" lon="5.56046">
        <ele>970.4</ele>
        <time>2021-09-07T13:17:10Z</time>
      </trkpt>
      <trkpt lat="44.43434" lon="5.56045">
        <ele>970.5</ele>
        <time>2021-09-07T13:17:11Z</time>
      </trkpt>
      <trkpt lat="44.43434" lon="5.56045">
        <ele>970.5</ele>
        <time>2021-09-07T13:17:12Z</time>
      </trkpt>
      <trkpt lat="44.43434" lon="5.56045">
        <ele>970.5</ele>
        <time>2021-09-07T13:17:13Z</time>
      </trkpt>
      <trkpt lat="44.43434" lon="5.56045">
        <ele>970.5</ele>
        <time>2021-09-07T13:17:14Z</time>
      </trkpt>
      <trkpt lat="44.43434" lon="5.56045">
        <ele>970.5</ele>
        <time>2021-09-07T13:17:15Z</time>
      </trkpt>
      <trkpt lat="44.43434" lon="5.56045">
        <ele>970.5</ele>
        <time>2021-09-07T13:17:16Z</time>
      </trkpt>
      <trkpt lat="44.43433" lon="5.56044">
        <ele>970.6</ele>
        <time>2021-09-07T13:17:17Z</time>
      </trkpt>
      <trkpt lat="44.43433" lon="5.56044">
        <ele>970.6</ele>
        <time>2021-09-07T13:17:18Z</time>
      </trkpt>
      <trkpt lat="44.43433" lon="5.56044">
        <ele>970.6</ele>
        <time>2021-09-07T13:17:19Z</time>
      </trkpt>
      <trkpt lat="44.43431" lon="5.56042">
        <ele>970.8</ele>
        <time>2021-09-07T13:17:20Z</time>
      </trkpt>
      <trkpt lat="44.4343" lon="5.56041">
        <ele>970.9</ele>
        <time>2021-09-07T13:17:21Z</time>
      </trkpt>
      <trkpt lat="44.43428" lon="5.5604">
        <ele>971.1</ele>
        <time>2021-09-07T13:17:22Z</time>
      </trkpt>
      <trkpt lat="44.43428" lon="5.5604">
        <ele>971.1</ele>
        <time>2021-09-07T13:17:23Z</time>
      </trkpt>
      <trkpt lat="44.43427" lon="5.56039">
        <ele>971.1</ele>
        <time>2021-09-07T13:17:24Z</time>
      </trkpt>
      <trkpt lat="44.43426" lon="5.56038">
        <ele>971.2</ele>
        <time>2021-09-07T13:17:25Z</time>
      </trkpt>
      <trkpt lat="44.43425" lon="5.56036">
        <ele>971.4</ele>
        <time>2021-09-07T13:17:26Z</time>
      </trkpt>
      <trkpt lat="44.43424" lon="5.56034">
        <ele>971.5</ele>
        <time>2021-09-07T13:17:27Z</time>
      </trkpt>
      <trkpt lat="44.43422" lon="5.56032">
        <ele>971.7</ele>
        <time>2021-09-07T13:17:28Z</time>
      </trkpt>
      <trkpt lat="44.43421" lon="5.5603">
        <ele>971.9</ele>
        <time>2021-09-07T13:17:29Z</time>
      </trkpt>
      <trkpt lat="44.4342" lon="5.56029">
        <ele>972</ele>
        <time>2021-09-07T13:17:30Z</time>
      </trkpt>
      <trkpt lat="44.43419" lon="5.56027">
        <ele>972.1</ele>
        <time>2021-09-07T13:17:31Z</time>
      </trkpt>
      <trkpt lat="44.43419" lon="5.56025">
        <ele>972.2</ele>
        <time>2021-09-07T13:17:32Z</time>
      </trkpt>
      <trkpt lat="44.43419" lon="5.56024">
        <ele>972.3</ele>
        <time>2021-09-07T13:17:33Z</time>
      </trkpt>
      <trkpt lat="44.43418" lon="5.56022">
        <ele>972.4</ele>
        <time>2021-09-07T13:17:34Z</time>
      </trkpt>
      <trkpt lat="44.43418" lon="5.5602">
        <ele>972.6</ele>
        <time>2021-09-07T13:17:35Z</time>
      </trkpt>
      <trkpt lat="44.43418" lon="5.56019">
        <ele>972.6</ele>
        <time>2021-09-07T13:17:36Z</time>
      </trkpt>
      <trkpt lat="44.43418" lon="5.56019">
        <ele>972.7</ele>
        <time>2021-09-07T13:17:37Z</time>
      </trkpt>
      <trkpt lat="44.43418" lon="5.56018">
        <ele>972.7</ele>
        <time>2021-09-07T13:17:38Z</time>
      </trkpt>
      <trkpt lat="44.43418" lon="5.56018">
        <ele>972.7</ele>
        <time>2021-09-07T13:17:39Z</time>
      </trkpt>
      <trkpt lat="44.43418" lon="5.56017">
        <ele>972.7</ele>
        <time>2021-09-07T13:17:40Z</time>
      </trkpt>
      <trkpt lat="44.43418" lon="5.56016">
        <ele>972.8</ele>
        <time>2021-09-07T13:17:41Z</time>
      </trkpt>
      <trkpt lat="44.43418" lon="5.56016">
        <ele>972.8</ele>
        <time>2021-09-07T13:17:42Z</time>
      </trkpt>
      <trkpt lat="44.43418" lon="5.56016">
        <ele>972.8</ele>
        <time>2021-09-07T13:17:43Z</time>
      </trkpt>
      <trkpt lat="44.43418" lon="5.56015">
        <ele>972.9</ele>
        <time>2021-09-07T13:17:44Z</time>
      </trkpt>
      <trkpt lat="44.43417" lon="5.56012">
        <ele>973.1</ele>
        <time>2021-09-07T13:17:45Z</time>
      </trkpt>
      <trkpt lat="44.43417" lon="5.56011">
        <ele>973.2</ele>
        <time>2021-09-07T13:17:46Z</time>
      </trkpt>
      <trkpt lat="44.43416" lon="5.56009">
        <ele>973.3</ele>
        <time>2021-09-07T13:17:47Z</time>
      </trkpt>
      <trkpt lat="44.43416" lon="5.56007">
        <ele>973.4</ele>
        <time>2021-09-07T13:17:48Z</time>
      </trkpt>
      <trkpt lat="44.43416" lon="5.56006">
        <ele>973.5</ele>
        <time>2021-09-07T13:17:49Z</time>
      </trkpt>
      <trkpt lat="44.43416" lon="5.56004">
        <ele>973.6</ele>
        <time>2021-09-07T13:17:50Z</time>
      </trkpt>
      <trkpt lat="44.43415" lon="5.56002">
        <ele>973.8</ele>
        <time>2021-09-07T13:17:51Z</time>
      </trkpt>
      <trkpt lat="44.43415" lon="5.56001">
        <ele>973.9</ele>
        <time>2021-09-07T13:17:52Z</time>
      </trkpt>
      <trkpt lat="44.43414" lon="5.55999">
        <ele>974</ele>
        <time>2021-09-07T13:17:53Z</time>
      </trkpt>
      <trkpt lat="44.43412" lon="5.55997">
        <ele>974.2</ele>
        <time>2021-09-07T13:17:54Z</time>
      </trkpt>
      <trkpt lat="44.43411" lon="5.55996">
        <ele>974.4</ele>
        <time>2021-09-07T13:17:55Z</time>
      </trkpt>
      <trkpt lat="44.43409" lon="5.55994">
        <ele>974.6</ele>
        <time>2021-09-07T13:17:56Z</time>
      </trkpt>
      <trkpt lat="44.43407" lon="5.55994">
        <ele>974.7</ele>
        <time>2021-09-07T13:17:57Z</time>
      </trkpt>
      <trkpt lat="44.43406" lon="5.55994">
        <ele>974.8</ele>
        <time>2021-09-07T13:17:58Z</time>
      </trkpt>
      <trkpt lat="44.43405" lon="5.55994">
        <ele>974.9</ele>
        <time>2021-09-07T13:17:59Z</time>
      </trkpt>
      <trkpt lat="44.43404" lon="5.55994">
        <ele>975</ele>
        <time>2021-09-07T13:18:00Z</time>
      </trkpt>
      <trkpt lat="44.43404" lon="5.55995">
        <ele>975.1</ele>
        <time>2021-09-07T13:18:01Z</time>
      </trkpt>
      <trkpt lat="44.43403" lon="5.55995">
        <ele>975.2</ele>
        <time>2021-09-07T13:18:02Z</time>
      </trkpt>
      <trkpt lat="44.43403" lon="5.55996">
        <ele>975.2</ele>
        <time>2021-09-07T13:18:03Z</time>
      </trkpt>
      <trkpt lat="44.43403" lon="5.55996">
        <ele>975.2</ele>
        <time>2021-09-07T13:18:04Z</time>
      </trkpt>
      <trkpt lat="44.43403" lon="5.55996">
        <ele>975.2</ele>
        <time>2021-09-07T13:18:05Z</time>
      </trkpt>
      <trkpt lat="44.43402" lon="5.55996">
        <ele>975.3</ele>
        <time>2021-09-07T13:18:06Z</time>
      </trkpt>
      <trkpt lat="44.43401" lon="5.55997">
        <ele>975.4</ele>
        <time>2021-09-07T13:18:07Z</time>
      </trkpt>
      <trkpt lat="44.43399" lon="5.55998">
        <ele>975.6</ele>
        <time>2021-09-07T13:18:08Z</time>
      </trkpt>
      <trkpt lat="44.43398" lon="5.55998">
        <ele>975.7</ele>
        <time>2021-09-07T13:18:09Z</time>
      </trkpt>
      <trkpt lat="44.43397" lon="5.55998">
        <ele>975.8</ele>
        <time>2021-09-07T13:18:10Z</time>
      </trkpt>
      <trkpt lat="44.43396" lon="5.55998">
        <ele>975.9</ele>
        <time>2021-09-07T13:18:11Z</time>
      </trkpt>
      <trkpt lat="44.43393" lon="5.55998">
        <ele>976.1</ele>
        <time>2021-09-07T13:18:12Z</time>
      </trkpt>
      <trkpt lat="44.4339" lon="5.55997">
        <ele>976.4</ele>
        <time>2021-09-07T13:18:13Z</time>
      </trkpt>
      <trkpt lat="44.43389" lon="5.55997">
        <ele>976.5</ele>
        <time>2021-09-07T13:18:14Z</time>
      </trkpt>
      <trkpt lat="44.43388" lon="5.55997">
        <ele>976.6</ele>
        <time>2021-09-07T13:18:15Z</time>
      </trkpt>
      <trkpt lat="44.43384" lon="5.55997">
        <ele>976.9</ele>
        <time>2021-09-07T13:18:16Z</time>
      </trkpt>
      <trkpt lat="44.43382" lon="5.55996">
        <ele>977</ele>
        <time>2021-09-07T13:18:17Z</time>
      </trkpt>
      <trkpt lat="44.4338" lon="5.55995">
        <ele>977.2</ele>
        <time>2021-09-07T13:18:18Z</time>
      </trkpt>
      <trkpt lat="44.4338" lon="5.55995">
        <ele>977.2</ele>
        <time>2021-09-07T13:18:19Z</time>
      </trkpt>
      <trkpt lat="44.43379" lon="5.55994">
        <ele>977.3</ele>
        <time>2021-09-07T13:18:20Z</time>
      </trkpt>
      <trkpt lat="44.4338" lon="5.55992">
        <ele>977.4</ele>
        <time>2021-09-07T13:18:21Z</time>
      </trkpt>
      <trkpt lat="44.4338" lon="5.55992">
        <ele>977.4</ele>
        <time>2021-09-07T13:18:22Z</time>
      </trkpt>
      <trkpt lat="44.4338" lon="5.55992">
        <ele>977.4</ele>
        <time>2021-09-07T13:18:23Z</time>
      </trkpt>
      <trkpt lat="44.4338" lon="5.55991">
        <ele>977.5</ele>
        <time>2021-09-07T13:18:24Z</time>
      </trkpt>
      <trkpt lat="44.43381" lon="5.55991">
        <ele>977.5</ele>
        <time>2021-09-07T13:18:25Z</time>
      </trkpt>
      <trkpt lat="44.43381" lon="5.55991">
        <ele>977.5</ele>
        <time>2021-09-07T13:18:26Z</time>
      </trkpt>
      <trkpt lat="44.43381" lon="5.55991">
        <ele>977.6</ele>
        <time>2021-09-07T13:18:27Z</time>
      </trkpt>
      <trkpt lat="44.43381" lon="5.5599">
        <ele>977.6</ele>
        <time>2021-09-07T13:18:28Z</time>
      </trkpt>
      <trkpt lat="44.43381" lon="5.5599">
        <ele>977.6</ele>
        <time>2021-09-07T13:18:29Z</time>
      </trkpt>
      <trkpt lat="44.43381" lon="5.5599">
        <ele>977.6</ele>
        <time>2021-09-07T13:18:30Z</time>
      </trkpt>
      <trkpt lat="44.43381" lon="5.5599">
        <ele>977.6</ele>
        <time>2021-09-07T13:18:31Z</time>
      </trkpt>
      <trkpt lat="44.43381" lon="5.5599">
        <ele>977.6</ele>
        <time>2021-09-07T13:18:32Z</time>
      </trkpt>
      <trkpt lat="44.43381" lon="5.5599">
        <ele>977.6</ele>
        <time>2021-09-07T13:18:33Z</time>
      </trkpt>
      <trkpt lat="44.43381" lon="5.5599">
        <ele>977.6</ele>
        <time>2021-09-07T13:18:34Z</time>
      </trkpt>
      <trkpt lat="44.43381" lon="5.5599">
        <ele>977.6</ele>
        <time>2021-09-07T13:18:35Z</time>
      </trkpt>
      <trkpt lat="44.43381" lon="5.5599">
        <ele>977.6</ele>
        <time>2021-09-07T13:18:36Z</time>
      </trkpt>
      <trkpt lat="44.43381" lon="5.5599">
        <ele>977.6</ele>
        <time>2021-09-07T13:18:37Z</time>
      </trkpt>
      <trkpt lat="44.43381" lon="5.5599">
        <ele>977.6</ele>
        <time>2021-09-07T13:18:38Z</time>
      </trkpt>
      <trkpt lat="44.43381" lon="5.5599">
        <ele>977.6</ele>
        <time>2021-09-07T13:18:39Z</time>
      </trkpt>
      <trkpt lat="44.43381" lon="5.5599">
        <ele>977.6</ele>
        <time>2021-09-07T13:18:40Z</time>
      </trkpt>
      <trkpt lat="44.43381" lon="5.5599">
        <ele>977.6</ele>
        <time>2021-09-07T13:18:41Z</time>
      </trkpt>
      <trkpt lat="44.4338" lon="5.55989">
        <ele>977.7</ele>
        <time>2021-09-07T13:18:42Z</time>
      </trkpt>
      <trkpt lat="44.4338" lon="5.55989">
        <ele>977.7</ele>
        <time>2021-09-07T13:18:43Z</time>
      </trkpt>
      <trkpt lat="44.4338" lon="5.55989">
        <ele>977.7</ele>
        <time>2021-09-07T13:18:44Z</time>
      </trkpt>
      <trkpt lat="44.43379" lon="5.55989">
        <ele>977.8</ele>
        <time>2021-09-07T13:18:45Z</time>
      </trkpt>
      <trkpt lat="44.43375" lon="5.5599">
        <ele>978.1</ele>
        <time>2021-09-07T13:18:46Z</time>
      </trkpt>
      <trkpt lat="44.43372" lon="5.55991">
        <ele>978.3</ele>
        <time>2021-09-07T13:18:47Z</time>
      </trkpt>
      <trkpt lat="44.43371" lon="5.55992">
        <ele>978.4</ele>
        <time>2021-09-07T13:18:48Z</time>
      </trkpt>
      <trkpt lat="44.43369" lon="5.55992">
        <ele>978.5</ele>
        <time>2021-09-07T13:18:49Z</time>
      </trkpt>
      <trkpt lat="44.43368" lon="5.55992">
        <ele>978.6</ele>
        <time>2021-09-07T13:18:50Z</time>
      </trkpt>
      <trkpt lat="44.43368" lon="5.55992">
        <ele>978.6</ele>
        <time>2021-09-07T13:18:51Z</time>
      </trkpt>
      <trkpt lat="44.43368" lon="5.55993">
        <ele>978.7</ele>
        <time>2021-09-07T13:18:52Z</time>
      </trkpt>
      <trkpt lat="44.43368" lon="5.55993">
        <ele>978.7</ele>
        <time>2021-09-07T13:18:53Z</time>
      </trkpt>
      <trkpt lat="44.43368" lon="5.55993">
        <ele>978.7</ele>
        <time>2021-09-07T13:18:54Z</time>
      </trkpt>
      <trkpt lat="44.43368" lon="5.55993">
        <ele>978.7</ele>
        <time>2021-09-07T13:18:55Z</time>
      </trkpt>
      <trkpt lat="44.43368" lon="5.55993">
        <ele>978.7</ele>
        <time>2021-09-07T13:18:56Z</time>
      </trkpt>
      <trkpt lat="44.43368" lon="5.55993">
        <ele>978.7</ele>
        <time>2021-09-07T13:18:57Z</time>
      </trkpt>
      <trkpt lat="44.43368" lon="5.55993">
        <ele>978.7</ele>
        <time>2021-09-07T13:18:58Z</time>
      </trkpt>
      <trkpt lat="44.43368" lon="5.55993">
        <ele>978.7</ele>
        <time>2021-09-07T13:18:59Z</time>
      </trkpt>
      <trkpt lat="44.43368" lon="5.55993">
        <ele>978.7</ele>
        <time>2021-09-07T13:19:00Z</time>
      </trkpt>
      <trkpt lat="44.43368" lon="5.55993">
        <ele>978.7</ele>
        <time>2021-09-07T13:19:01Z</time>
      </trkpt>
      <trkpt lat="44.43368" lon="5.55993">
        <ele>978.7</ele>
        <time>2021-09-07T13:19:02Z</time>
      </trkpt>
      <trkpt lat="44.43368" lon="5.55992">
        <ele>978.7</ele>
        <time>2021-09-07T13:19:03Z</time>
      </trkpt>
      <trkpt lat="44.43368" lon="5.55992">
        <ele>978.7</ele>
        <time>2021-09-07T13:19:04Z</time>
      </trkpt>
      <trkpt lat="44.43368" lon="5.55992">
        <ele>978.7</ele>
        <time>2021-09-07T13:19:05Z</time>
      </trkpt>
      <trkpt lat="44.43368" lon="5.55992">
        <ele>978.7</ele>
        <time>2021-09-07T13:19:06Z</time>
      </trkpt>
      <trkpt lat="44.43368" lon="5.55993">
        <ele>978.8</ele>
        <time>2021-09-07T13:19:07Z</time>
      </trkpt>
      <trkpt lat="44.43367" lon="5.55993">
        <ele>978.8</ele>
        <time>2021-09-07T13:19:08Z</time>
      </trkpt>
      <trkpt lat="44.43367" lon="5.55993">
        <ele>978.8</ele>
        <time>2021-09-07T13:19:09Z</time>
      </trkpt>
      <trkpt lat="44.43367" lon="5.55993">
        <ele>978.8</ele>
        <time>2021-09-07T13:19:10Z</time>
      </trkpt>
      <trkpt lat="44.43367" lon="5.55993">
        <ele>978.8</ele>
        <time>2021-09-07T13:19:11Z</time>
      </trkpt>
      <trkpt lat="44.43367" lon="5.55993">
        <ele>978.8</ele>
        <time>2021-09-07T13:19:12Z</time>
      </trkpt>
      <trkpt lat="44.43367" lon="5.55993">
        <ele>978.8</ele>
        <time>2021-09-07T13:19:13Z</time>
      </trkpt>
      <trkpt lat="44.43367" lon="5.55993">
        <ele>978.8</ele>
        <time>2021-09-07T13:19:14Z</time>
      </trkpt>
      <trkpt lat="44.43367" lon="5.55993">
        <ele>978.8</ele>
        <time>2021-09-07T13:19:15Z</time>
      </trkpt>
      <trkpt lat="44.43367" lon="5.55994">
        <ele>978.8</ele>
        <time>2021-09-07T13:19:16Z</time>
      </trkpt>
      <trkpt lat="44.43367" lon="5.55994">
        <ele>978.9</ele>
        <time>2021-09-07T13:19:17Z</time>
      </trkpt>
      <trkpt lat="44.43367" lon="5.55994">
        <ele>978.9</ele>
        <time>2021-09-07T13:19:18Z</time>
      </trkpt>
      <trkpt lat="44.43367" lon="5.55994">
        <ele>978.9</ele>
        <time>2021-09-07T13:19:19Z</time>
      </trkpt>
      <trkpt lat="44.43367" lon="5.55993">
        <ele>978.9</ele>
        <time>2021-09-07T13:19:20Z</time>
      </trkpt>
      <trkpt lat="44.43367" lon="5.55993">
        <ele>978.9</ele>
        <time>2021-09-07T13:19:21Z</time>
      </trkpt>
      <trkpt lat="44.43367" lon="5.55993">
        <ele>978.9</ele>
        <time>2021-09-07T13:19:22Z</time>
      </trkpt>
      <trkpt lat="44.43369" lon="5.55992">
        <ele>979.1</ele>
        <time>2021-09-07T13:19:23Z</time>
      </trkpt>
      <trkpt lat="44.4337" lon="5.55992">
        <ele>979.1</ele>
        <time>2021-09-07T13:19:24Z</time>
      </trkpt>
      <trkpt lat="44.43371" lon="5.55991">
        <ele>979.2</ele>
        <time>2021-09-07T13:19:25Z</time>
      </trkpt>
      <trkpt lat="44.43371" lon="5.5599">
        <ele>979.3</ele>
        <time>2021-09-07T13:19:26Z</time>
      </trkpt>
      <trkpt lat="44.43371" lon="5.55988">
        <ele>979.4</ele>
        <time>2021-09-07T13:19:27Z</time>
      </trkpt>
      <trkpt lat="44.43372" lon="5.55986">
        <ele>979.5</ele>
        <time>2021-09-07T13:19:28Z</time>
      </trkpt>
      <trkpt lat="44.43372" lon="5.55985">
        <ele>979.6</ele>
        <time>2021-09-07T13:19:29Z</time>
      </trkpt>
      <trkpt lat="44.43372" lon="5.55983">
        <ele>979.7</ele>
        <time>2021-09-07T13:19:30Z</time>
      </trkpt>
      <trkpt lat="44.43372" lon="5.55981">
        <ele>979.8</ele>
        <time>2021-09-07T13:19:31Z</time>
      </trkpt>
      <trkpt lat="44.43373" lon="5.55976">
        <ele>980.2</ele>
        <time>2021-09-07T13:19:32Z</time>
      </trkpt>
      <trkpt lat="44.43374" lon="5.55972">
        <ele>980.4</ele>
        <time>2021-09-07T13:19:33Z</time>
      </trkpt>
      <trkpt lat="44.43375" lon="5.55964">
        <ele>980.9</ele>
        <time>2021-09-07T13:19:34Z</time>
      </trkpt>
      <trkpt lat="44.43376" lon="5.55959">
        <ele>981.2</ele>
        <time>2021-09-07T13:19:35Z</time>
      </trkpt>
      <trkpt lat="44.43376" lon="5.55955">
        <ele>981.5</ele>
        <time>2021-09-07T13:19:36Z</time>
      </trkpt>
      <trkpt lat="44.43375" lon="5.5595">
        <ele>981.8</ele>
        <time>2021-09-07T13:19:37Z</time>
      </trkpt>
      <trkpt lat="44.43375" lon="5.55946">
        <ele>982</ele>
        <time>2021-09-07T13:19:38Z</time>
      </trkpt>
      <trkpt lat="44.43375" lon="5.55942">
        <ele>982.3</ele>
        <time>2021-09-07T13:19:39Z</time>
      </trkpt>
      <trkpt lat="44.43375" lon="5.5594">
        <ele>982.5</ele>
        <time>2021-09-07T13:19:40Z</time>
      </trkpt>
      <trkpt lat="44.43375" lon="5.55937">
        <ele>982.6</ele>
        <time>2021-09-07T13:19:41Z</time>
      </trkpt>
      <trkpt lat="44.43374" lon="5.55934">
        <ele>982.8</ele>
        <time>2021-09-07T13:19:42Z</time>
      </trkpt>
      <trkpt lat="44.43374" lon="5.55932">
        <ele>982.9</ele>
        <time>2021-09-07T13:19:43Z</time>
      </trkpt>
      <trkpt lat="44.43373" lon="5.5593">
        <ele>983</ele>
        <time>2021-09-07T13:19:44Z</time>
      </trkpt>
      <trkpt lat="44.43372" lon="5.55927">
        <ele>983.2</ele>
        <time>2021-09-07T13:19:45Z</time>
      </trkpt>
      <trkpt lat="44.43372" lon="5.55926">
        <ele>983.3</ele>
        <time>2021-09-07T13:19:46Z</time>
      </trkpt>
      <trkpt lat="44.43371" lon="5.55924">
        <ele>983.4</ele>
        <time>2021-09-07T13:19:47Z</time>
      </trkpt>
      <trkpt lat="44.43371" lon="5.55921">
        <ele>983.6</ele>
        <time>2021-09-07T13:19:48Z</time>
      </trkpt>
      <trkpt lat="44.43371" lon="5.5592">
        <ele>983.7</ele>
        <time>2021-09-07T13:19:49Z</time>
      </trkpt>
      <trkpt lat="44.4337" lon="5.55918">
        <ele>983.8</ele>
        <time>2021-09-07T13:19:50Z</time>
      </trkpt>
      <trkpt lat="44.43369" lon="5.55916">
        <ele>984</ele>
        <time>2021-09-07T13:19:51Z</time>
      </trkpt>
      <trkpt lat="44.43368" lon="5.55913">
        <ele>984.1</ele>
        <time>2021-09-07T13:19:52Z</time>
      </trkpt>
      <trkpt lat="44.43367" lon="5.5591">
        <ele>984.3</ele>
        <time>2021-09-07T13:19:53Z</time>
      </trkpt>
      <trkpt lat="44.43367" lon="5.55909">
        <ele>984.4</ele>
        <time>2021-09-07T13:19:54Z</time>
      </trkpt>
      <trkpt lat="44.43366" lon="5.55907">
        <ele>984.5</ele>
        <time>2021-09-07T13:19:55Z</time>
      </trkpt>
      <trkpt lat="44.43366" lon="5.55906">
        <ele>984.5</ele>
        <time>2021-09-07T13:19:56Z</time>
      </trkpt>
      <trkpt lat="44.43365" lon="5.55905">
        <ele>984.6</ele>
        <time>2021-09-07T13:19:57Z</time>
      </trkpt>
      <trkpt lat="44.43365" lon="5.55904">
        <ele>984.7</ele>
        <time>2021-09-07T13:19:58Z</time>
      </trkpt>
      <trkpt lat="44.43365" lon="5.55903">
        <ele>984.7</ele>
        <time>2021-09-07T13:19:59Z</time>
      </trkpt>
      <trkpt lat="44.43365" lon="5.55902">
        <ele>984.8</ele>
        <time>2021-09-07T13:20:00Z</time>
      </trkpt>
      <trkpt lat="44.43365" lon="5.559">
        <ele>984.9</ele>
        <time>2021-09-07T13:20:01Z</time>
      </trkpt>
      <trkpt lat="44.43365" lon="5.55898">
        <ele>985</ele>
        <time>2021-09-07T13:20:02Z</time>
      </trkpt>
      <trkpt lat="44.43365" lon="5.55894">
        <ele>985.2</ele>
        <time>2021-09-07T13:20:03Z</time>
      </trkpt>
      <trkpt lat="44.43366" lon="5.55893">
        <ele>985.3</ele>
        <time>2021-09-07T13:20:04Z</time>
      </trkpt>
      <trkpt lat="44.43366" lon="5.55891">
        <ele>985.3</ele>
        <time>2021-09-07T13:20:05Z</time>
      </trkpt>
      <trkpt lat="44.43367" lon="5.55888">
        <ele>985.5</ele>
        <time>2021-09-07T13:20:06Z</time>
      </trkpt>
      <trkpt lat="44.43367" lon="5.55887">
        <ele>985.6</ele>
        <time>2021-09-07T13:20:07Z</time>
      </trkpt>
      <trkpt lat="44.43367" lon="5.55886">
        <ele>985.6</ele>
        <time>2021-09-07T13:20:08Z</time>
      </trkpt>
      <trkpt lat="44.43368" lon="5.55883">
        <ele>985.8</ele>
        <time>2021-09-07T13:20:09Z</time>
      </trkpt>
      <trkpt lat="44.43369" lon="5.55882">
        <ele>985.9</ele>
        <time>2021-09-07T13:20:10Z</time>
      </trkpt>
      <trkpt lat="44.43369" lon="5.5588">
        <ele>985.9</ele>
        <time>2021-09-07T13:20:11Z</time>
      </trkpt>
      <trkpt lat="44.4337" lon="5.55879">
        <ele>986</ele>
        <time>2021-09-07T13:20:12Z</time>
      </trkpt>
      <trkpt lat="44.4337" lon="5.55877">
        <ele>986.1</ele>
        <time>2021-09-07T13:20:13Z</time>
      </trkpt>
      <trkpt lat="44.43371" lon="5.55876">
        <ele>986.2</ele>
        <time>2021-09-07T13:20:14Z</time>
      </trkpt>
      <trkpt lat="44.43371" lon="5.55874">
        <ele>986.3</ele>
        <time>2021-09-07T13:20:15Z</time>
      </trkpt>
      <trkpt lat="44.43372" lon="5.55873">
        <ele>986.4</ele>
        <time>2021-09-07T13:20:16Z</time>
      </trkpt>
      <trkpt lat="44.43372" lon="5.55872">
        <ele>986.4</ele>
        <time>2021-09-07T13:20:17Z</time>
      </trkpt>
      <trkpt lat="44.43373" lon="5.55871">
        <ele>986.5</ele>
        <time>2021-09-07T13:20:18Z</time>
      </trkpt>
      <trkpt lat="44.43373" lon="5.55869">
        <ele>986.6</ele>
        <time>2021-09-07T13:20:19Z</time>
      </trkpt>
      <trkpt lat="44.43374" lon="5.55867">
        <ele>986.8</ele>
        <time>2021-09-07T13:20:20Z</time>
      </trkpt>
      <trkpt lat="44.43375" lon="5.55866">
        <ele>986.9</ele>
        <time>2021-09-07T13:20:21Z</time>
      </trkpt>
      <trkpt lat="44.43375" lon="5.55864">
        <ele>986.9</ele>
        <time>2021-09-07T13:20:22Z</time>
      </trkpt>
      <trkpt lat="44.43375" lon="5.5586">
        <ele>987.2</ele>
        <time>2021-09-07T13:20:23Z</time>
      </trkpt>
      <trkpt lat="44.43375" lon="5.55859">
        <ele>987.2</ele>
        <time>2021-09-07T13:20:24Z</time>
      </trkpt>
      <trkpt lat="44.43375" lon="5.55858">
        <ele>987.3</ele>
        <time>2021-09-07T13:20:25Z</time>
      </trkpt>
      <trkpt lat="44.43375" lon="5.55857">
        <ele>987.4</ele>
        <time>2021-09-07T13:20:26Z</time>
      </trkpt>
      <trkpt lat="44.43375" lon="5.55856">
        <ele>987.4</ele>
        <time>2021-09-07T13:20:27Z</time>
      </trkpt>
      <trkpt lat="44.43375" lon="5.55855">
        <ele>987.5</ele>
        <time>2021-09-07T13:20:28Z</time>
      </trkpt>
      <trkpt lat="44.43375" lon="5.55854">
        <ele>987.5</ele>
        <time>2021-09-07T13:20:29Z</time>
      </trkpt>
      <trkpt lat="44.43374" lon="5.55853">
        <ele>987.6</ele>
        <time>2021-09-07T13:20:30Z</time>
      </trkpt>
      <trkpt lat="44.43374" lon="5.55853">
        <ele>987.6</ele>
        <time>2021-09-07T13:20:31Z</time>
      </trkpt>
      <trkpt lat="44.43374" lon="5.55853">
        <ele>987.6</ele>
        <time>2021-09-07T13:20:32Z</time>
      </trkpt>
      <trkpt lat="44.43374" lon="5.55853">
        <ele>987.6</ele>
        <time>2021-09-07T13:20:33Z</time>
      </trkpt>
      <trkpt lat="44.43374" lon="5.55853">
        <ele>987.6</ele>
        <time>2021-09-07T13:20:34Z</time>
      </trkpt>
      <trkpt lat="44.43373" lon="5.55853">
        <ele>987.7</ele>
        <time>2021-09-07T13:20:35Z</time>
      </trkpt>
      <trkpt lat="44.43373" lon="5.55852">
        <ele>987.7</ele>
        <time>2021-09-07T13:20:36Z</time>
      </trkpt>
      <trkpt lat="44.43373" lon="5.55852">
        <ele>987.7</ele>
        <time>2021-09-07T13:20:37Z</time>
      </trkpt>
      <trkpt lat="44.43373" lon="5.55852">
        <ele>987.7</ele>
        <time>2021-09-07T13:20:38Z</time>
      </trkpt>
      <trkpt lat="44.43373" lon="5.5585">
        <ele>987.9</ele>
        <time>2021-09-07T13:20:39Z</time>
      </trkpt>
      <trkpt lat="44.43373" lon="5.55849">
        <ele>987.9</ele>
        <time>2021-09-07T13:20:40Z</time>
      </trkpt>
      <trkpt lat="44.43373" lon="5.55848">
        <ele>988</ele>
        <time>2021-09-07T13:20:41Z</time>
      </trkpt>
      <trkpt lat="44.43373" lon="5.55845">
        <ele>988.2</ele>
        <time>2021-09-07T13:20:42Z</time>
      </trkpt>
      <trkpt lat="44.43374" lon="5.55844">
        <ele>988.2</ele>
        <time>2021-09-07T13:20:43Z</time>
      </trkpt>
      <trkpt lat="44.43374" lon="5.55843">
        <ele>988.3</ele>
        <time>2021-09-07T13:20:44Z</time>
      </trkpt>
      <trkpt lat="44.43374" lon="5.5584">
        <ele>988.5</ele>
        <time>2021-09-07T13:20:45Z</time>
      </trkpt>
      <trkpt lat="44.43374" lon="5.55837">
        <ele>988.6</ele>
        <time>2021-09-07T13:20:46Z</time>
      </trkpt>
      <trkpt lat="44.43374" lon="5.55834">
        <ele>988.8</ele>
        <time>2021-09-07T13:20:47Z</time>
      </trkpt>
      <trkpt lat="44.43374" lon="5.55829">
        <ele>989.1</ele>
        <time>2021-09-07T13:20:48Z</time>
      </trkpt>
      <trkpt lat="44.43374" lon="5.55827">
        <ele>989.2</ele>
        <time>2021-09-07T13:20:49Z</time>
      </trkpt>
      <trkpt lat="44.43374" lon="5.55825">
        <ele>989.3</ele>
        <time>2021-09-07T13:20:50Z</time>
      </trkpt>
      <trkpt lat="44.43374" lon="5.55824">
        <ele>989.4</ele>
        <time>2021-09-07T13:20:51Z</time>
      </trkpt>
      <trkpt lat="44.43374" lon="5.55823">
        <ele>989.4</ele>
        <time>2021-09-07T13:20:52Z</time>
      </trkpt>
      <trkpt lat="44.43373" lon="5.55822">
        <ele>989.5</ele>
        <time>2021-09-07T13:20:53Z</time>
      </trkpt>
      <trkpt lat="44.43373" lon="5.55821">
        <ele>989.6</ele>
        <time>2021-09-07T13:20:54Z</time>
      </trkpt>
      <trkpt lat="44.43372" lon="5.5582">
        <ele>989.7</ele>
        <time>2021-09-07T13:20:55Z</time>
      </trkpt>
      <trkpt lat="44.43372" lon="5.55819">
        <ele>989.7</ele>
        <time>2021-09-07T13:20:56Z</time>
      </trkpt>
      <trkpt lat="44.43371" lon="5.55818">
        <ele>989.8</ele>
        <time>2021-09-07T13:20:57Z</time>
      </trkpt>
      <trkpt lat="44.4337" lon="5.55816">
        <ele>989.9</ele>
        <time>2021-09-07T13:20:58Z</time>
      </trkpt>
      <trkpt lat="44.43371" lon="5.55814">
        <ele>990.1</ele>
        <time>2021-09-07T13:20:59Z</time>
      </trkpt>
      <trkpt lat="44.43371" lon="5.55811">
        <ele>990.2</ele>
        <time>2021-09-07T13:21:00Z</time>
      </trkpt>
      <trkpt lat="44.4337" lon="5.55808">
        <ele>990.4</ele>
        <time>2021-09-07T13:21:01Z</time>
      </trkpt>
      <trkpt lat="44.4337" lon="5.55806">
        <ele>990.5</ele>
        <time>2021-09-07T13:21:02Z</time>
      </trkpt>
      <trkpt lat="44.4337" lon="5.55803">
        <ele>990.7</ele>
        <time>2021-09-07T13:21:03Z</time>
      </trkpt>
      <trkpt lat="44.43369" lon="5.55799">
        <ele>990.9</ele>
        <time>2021-09-07T13:21:04Z</time>
      </trkpt>
      <trkpt lat="44.43369" lon="5.55797">
        <ele>991</ele>
        <time>2021-09-07T13:21:05Z</time>
      </trkpt>
      <trkpt lat="44.43368" lon="5.55795">
        <ele>991.1</ele>
        <time>2021-09-07T13:21:06Z</time>
      </trkpt>
      <trkpt lat="44.43368" lon="5.55794">
        <ele>991.2</ele>
        <time>2021-09-07T13:21:07Z</time>
      </trkpt>
      <trkpt lat="44.43368" lon="5.55792">
        <ele>991.3</ele>
        <time>2021-09-07T13:21:08Z</time>
      </trkpt>
      <trkpt lat="44.43367" lon="5.55791">
        <ele>991.4</ele>
        <time>2021-09-07T13:21:09Z</time>
      </trkpt>
      <trkpt lat="44.43365" lon="5.55789">
        <ele>991.5</ele>
        <time>2021-09-07T13:21:10Z</time>
      </trkpt>
      <trkpt lat="44.43364" lon="5.55788">
        <ele>991.6</ele>
        <time>2021-09-07T13:21:11Z</time>
      </trkpt>
      <trkpt lat="44.43361" lon="5.55787">
        <ele>991.8</ele>
        <time>2021-09-07T13:21:12Z</time>
      </trkpt>
      <trkpt lat="44.43361" lon="5.55787">
        <ele>991.8</ele>
        <time>2021-09-07T13:21:13Z</time>
      </trkpt>
      <trkpt lat="44.43361" lon="5.55787">
        <ele>991.8</ele>
        <time>2021-09-07T13:21:14Z</time>
      </trkpt>
      <trkpt lat="44.43361" lon="5.55788">
        <ele>991.8</ele>
        <time>2021-09-07T13:21:15Z</time>
      </trkpt>
      <trkpt lat="44.4336" lon="5.55788">
        <ele>991.9</ele>
        <time>2021-09-07T13:21:16Z</time>
      </trkpt>
      <trkpt lat="44.4336" lon="5.55788">
        <ele>991.9</ele>
        <time>2021-09-07T13:21:17Z</time>
      </trkpt>
      <trkpt lat="44.4336" lon="5.55788">
        <ele>991.9</ele>
        <time>2021-09-07T13:21:18Z</time>
      </trkpt>
      <trkpt lat="44.43359" lon="5.55788">
        <ele>991.9</ele>
        <time>2021-09-07T13:21:19Z</time>
      </trkpt>
      <trkpt lat="44.43359" lon="5.55788">
        <ele>991.9</ele>
        <time>2021-09-07T13:21:20Z</time>
      </trkpt>
      <trkpt lat="44.43359" lon="5.55789">
        <ele>992</ele>
        <time>2021-09-07T13:21:21Z</time>
      </trkpt>
      <trkpt lat="44.43358" lon="5.55789">
        <ele>992</ele>
        <time>2021-09-07T13:21:22Z</time>
      </trkpt>
      <trkpt lat="44.43357" lon="5.5579">
        <ele>992.1</ele>
        <time>2021-09-07T13:21:23Z</time>
      </trkpt>
      <trkpt lat="44.43357" lon="5.55791">
        <ele>992.1</ele>
        <time>2021-09-07T13:21:24Z</time>
      </trkpt>
      <trkpt lat="44.43356" lon="5.55791">
        <ele>992.2</ele>
        <time>2021-09-07T13:21:25Z</time>
      </trkpt>
      <trkpt lat="44.43356" lon="5.55791">
        <ele>992.2</ele>
        <time>2021-09-07T13:21:26Z</time>
      </trkpt>
      <trkpt lat="44.43355" lon="5.55792">
        <ele>992.3</ele>
        <time>2021-09-07T13:21:27Z</time>
      </trkpt>
      <trkpt lat="44.43355" lon="5.55793">
        <ele>992.3</ele>
        <time>2021-09-07T13:21:28Z</time>
      </trkpt>
      <trkpt lat="44.43354" lon="5.55795">
        <ele>992.4</ele>
        <time>2021-09-07T13:21:29Z</time>
      </trkpt>
      <trkpt lat="44.43353" lon="5.55796">
        <ele>992.5</ele>
        <time>2021-09-07T13:21:30Z</time>
      </trkpt>
      <trkpt lat="44.43353" lon="5.55797">
        <ele>992.5</ele>
        <time>2021-09-07T13:21:31Z</time>
      </trkpt>
      <trkpt lat="44.43352" lon="5.55799">
        <ele>992.6</ele>
        <time>2021-09-07T13:21:32Z</time>
      </trkpt>
      <trkpt lat="44.43352" lon="5.558">
        <ele>992.7</ele>
        <time>2021-09-07T13:21:33Z</time>
      </trkpt>
      <trkpt lat="44.43351" lon="5.55802">
        <ele>992.8</ele>
        <time>2021-09-07T13:21:34Z</time>
      </trkpt>
      <trkpt lat="44.43351" lon="5.55803">
        <ele>992.8</ele>
        <time>2021-09-07T13:21:35Z</time>
      </trkpt>
      <trkpt lat="44.43351" lon="5.55803">
        <ele>992.8</ele>
        <time>2021-09-07T13:21:36Z</time>
      </trkpt>
      <trkpt lat="44.43351" lon="5.55804">
        <ele>992.9</ele>
        <time>2021-09-07T13:21:37Z</time>
      </trkpt>
      <trkpt lat="44.43351" lon="5.55805">
        <ele>992.9</ele>
        <time>2021-09-07T13:21:38Z</time>
      </trkpt>
      <trkpt lat="44.43351" lon="5.55805">
        <ele>992.9</ele>
        <time>2021-09-07T13:21:39Z</time>
      </trkpt>
      <trkpt lat="44.43351" lon="5.55805">
        <ele>992.9</ele>
        <time>2021-09-07T13:21:40Z</time>
      </trkpt>
      <trkpt lat="44.43351" lon="5.55805">
        <ele>992.9</ele>
        <time>2021-09-07T13:21:41Z</time>
      </trkpt>
      <trkpt lat="44.43351" lon="5.55805">
        <ele>992.9</ele>
        <time>2021-09-07T13:21:42Z</time>
      </trkpt>
      <trkpt lat="44.43351" lon="5.55806">
        <ele>993</ele>
        <time>2021-09-07T13:21:43Z</time>
      </trkpt>
      <trkpt lat="44.43351" lon="5.55807">
        <ele>993</ele>
        <time>2021-09-07T13:21:44Z</time>
      </trkpt>
      <trkpt lat="44.43351" lon="5.55807">
        <ele>993</ele>
        <time>2021-09-07T13:21:45Z</time>
      </trkpt>
      <trkpt lat="44.4335" lon="5.55809">
        <ele>993.1</ele>
        <time>2021-09-07T13:21:46Z</time>
      </trkpt>
      <trkpt lat="44.4335" lon="5.5581">
        <ele>993.2</ele>
        <time>2021-09-07T13:21:47Z</time>
      </trkpt>
      <trkpt lat="44.4335" lon="5.55811">
        <ele>993.2</ele>
        <time>2021-09-07T13:21:48Z</time>
      </trkpt>
      <trkpt lat="44.4335" lon="5.55812">
        <ele>993.3</ele>
        <time>2021-09-07T13:21:49Z</time>
      </trkpt>
      <trkpt lat="44.4335" lon="5.55813">
        <ele>993.3</ele>
        <time>2021-09-07T13:21:50Z</time>
      </trkpt>
      <trkpt lat="44.4335" lon="5.55814">
        <ele>993.4</ele>
        <time>2021-09-07T13:21:51Z</time>
      </trkpt>
      <trkpt lat="44.43349" lon="5.55815">
        <ele>993.4</ele>
        <time>2021-09-07T13:21:52Z</time>
      </trkpt>
      <trkpt lat="44.43349" lon="5.55816">
        <ele>993.5</ele>
        <time>2021-09-07T13:21:53Z</time>
      </trkpt>
      <trkpt lat="44.43349" lon="5.55817">
        <ele>993.5</ele>
        <time>2021-09-07T13:21:54Z</time>
      </trkpt>
      <trkpt lat="44.43349" lon="5.55818">
        <ele>993.5</ele>
        <time>2021-09-07T13:21:55Z</time>
      </trkpt>
      <trkpt lat="44.43349" lon="5.55818">
        <ele>993.6</ele>
        <time>2021-09-07T13:21:56Z</time>
      </trkpt>
      <trkpt lat="44.43349" lon="5.55818">
        <ele>993.6</ele>
        <time>2021-09-07T13:21:57Z</time>
      </trkpt>
      <trkpt lat="44.43349" lon="5.55819">
        <ele>993.6</ele>
        <time>2021-09-07T13:21:58Z</time>
      </trkpt>
      <trkpt lat="44.43349" lon="5.55819">
        <ele>993.6</ele>
        <time>2021-09-07T13:21:59Z</time>
      </trkpt>
      <trkpt lat="44.43349" lon="5.55819">
        <ele>993.6</ele>
        <time>2021-09-07T13:22:00Z</time>
      </trkpt>
      <trkpt lat="44.43349" lon="5.55819">
        <ele>993.6</ele>
        <time>2021-09-07T13:22:01Z</time>
      </trkpt>
      <trkpt lat="44.43349" lon="5.5582">
        <ele>993.7</ele>
        <time>2021-09-07T13:22:02Z</time>
      </trkpt>
      <trkpt lat="44.43349" lon="5.55821">
        <ele>993.7</ele>
        <time>2021-09-07T13:22:03Z</time>
      </trkpt>
      <trkpt lat="44.43349" lon="5.55822">
        <ele>993.7</ele>
        <time>2021-09-07T13:22:04Z</time>
      </trkpt>
      <trkpt lat="44.43349" lon="5.55825">
        <ele>993.9</ele>
        <time>2021-09-07T13:22:05Z</time>
      </trkpt>
      <trkpt lat="44.43349" lon="5.55827">
        <ele>994</ele>
        <time>2021-09-07T13:22:06Z</time>
      </trkpt>
      <trkpt lat="44.43349" lon="5.55829">
        <ele>994.1</ele>
        <time>2021-09-07T13:22:07Z</time>
      </trkpt>
      <trkpt lat="44.43349" lon="5.55833">
        <ele>994.3</ele>
        <time>2021-09-07T13:22:08Z</time>
      </trkpt>
      <trkpt lat="44.43349" lon="5.55835">
        <ele>994.4</ele>
        <time>2021-09-07T13:22:09Z</time>
      </trkpt>
      <trkpt lat="44.43349" lon="5.55837">
        <ele>994.5</ele>
        <time>2021-09-07T13:22:10Z</time>
      </trkpt>
      <trkpt lat="44.43349" lon="5.55838">
        <ele>994.5</ele>
        <time>2021-09-07T13:22:11Z</time>
      </trkpt>
      <trkpt lat="44.43349" lon="5.55838">
        <ele>994.5</ele>
        <time>2021-09-07T13:22:12Z</time>
      </trkpt>
      <trkpt lat="44.43349" lon="5.5584">
        <ele>994.6</ele>
        <time>2021-09-07T13:22:13Z</time>
      </trkpt>
      <trkpt lat="44.43349" lon="5.55843">
        <ele>994.8</ele>
        <time>2021-09-07T13:22:14Z</time>
      </trkpt>
      <trkpt lat="44.43349" lon="5.55845">
        <ele>994.9</ele>
        <time>2021-09-07T13:22:15Z</time>
      </trkpt>
      <trkpt lat="44.43348" lon="5.55847">
        <ele>995</ele>
        <time>2021-09-07T13:22:16Z</time>
      </trkpt>
      <trkpt lat="44.43348" lon="5.55848">
        <ele>995.1</ele>
        <time>2021-09-07T13:22:17Z</time>
      </trkpt>
      <trkpt lat="44.43348" lon="5.55848">
        <ele>995.1</ele>
        <time>2021-09-07T13:22:18Z</time>
      </trkpt>
      <trkpt lat="44.43348" lon="5.55851">
        <ele>995.3</ele>
        <time>2021-09-07T13:22:19Z</time>
      </trkpt>
      <trkpt lat="44.43347" lon="5.55853">
        <ele>995.4</ele>
        <time>2021-09-07T13:22:20Z</time>
      </trkpt>
      <trkpt lat="44.43346" lon="5.55855">
        <ele>995.6</ele>
        <time>2021-09-07T13:22:21Z</time>
      </trkpt>
      <trkpt lat="44.43346" lon="5.55856">
        <ele>995.6</ele>
        <time>2021-09-07T13:22:22Z</time>
      </trkpt>
      <trkpt lat="44.43346" lon="5.55856">
        <ele>995.6</ele>
        <time>2021-09-07T13:22:23Z</time>
      </trkpt>
      <trkpt lat="44.43345" lon="5.55856">
        <ele>995.7</ele>
        <time>2021-09-07T13:22:24Z</time>
      </trkpt>
      <trkpt lat="44.43345" lon="5.55857">
        <ele>995.8</ele>
        <time>2021-09-07T13:22:25Z</time>
      </trkpt>
      <trkpt lat="44.43344" lon="5.55859">
        <ele>995.9</ele>
        <time>2021-09-07T13:22:26Z</time>
      </trkpt>
      <trkpt lat="44.43343" lon="5.5586">
        <ele>996</ele>
        <time>2021-09-07T13:22:27Z</time>
      </trkpt>
      <trkpt lat="44.43342" lon="5.55862">
        <ele>996.1</ele>
        <time>2021-09-07T13:22:28Z</time>
      </trkpt>
      <trkpt lat="44.43342" lon="5.55864">
        <ele>996.2</ele>
        <time>2021-09-07T13:22:29Z</time>
      </trkpt>
      <trkpt lat="44.43341" lon="5.55866">
        <ele>996.4</ele>
        <time>2021-09-07T13:22:30Z</time>
      </trkpt>
      <trkpt lat="44.43341" lon="5.55867">
        <ele>996.4</ele>
        <time>2021-09-07T13:22:31Z</time>
      </trkpt>
      <trkpt lat="44.4334" lon="5.55867">
        <ele>996.5</ele>
        <time>2021-09-07T13:22:32Z</time>
      </trkpt>
      <trkpt lat="44.43339" lon="5.55869">
        <ele>996.6</ele>
        <time>2021-09-07T13:22:33Z</time>
      </trkpt>
      <trkpt lat="44.43338" lon="5.55872">
        <ele>996.8</ele>
        <time>2021-09-07T13:22:34Z</time>
      </trkpt>
      <trkpt lat="44.43337" lon="5.55874">
        <ele>996.9</ele>
        <time>2021-09-07T13:22:35Z</time>
      </trkpt>
      <trkpt lat="44.43336" lon="5.55875">
        <ele>997</ele>
        <time>2021-09-07T13:22:36Z</time>
      </trkpt>
      <trkpt lat="44.43335" lon="5.55877">
        <ele>997.1</ele>
        <time>2021-09-07T13:22:37Z</time>
      </trkpt>
      <trkpt lat="44.43334" lon="5.55878">
        <ele>997.2</ele>
        <time>2021-09-07T13:22:38Z</time>
      </trkpt>
      <trkpt lat="44.43333" lon="5.5588">
        <ele>997.3</ele>
        <time>2021-09-07T13:22:39Z</time>
      </trkpt>
      <trkpt lat="44.43332" lon="5.55882">
        <ele>997.5</ele>
        <time>2021-09-07T13:22:40Z</time>
      </trkpt>
      <trkpt lat="44.43331" lon="5.55883">
        <ele>997.6</ele>
        <time>2021-09-07T13:22:41Z</time>
      </trkpt>
      <trkpt lat="44.4333" lon="5.55884">
        <ele>997.7</ele>
        <time>2021-09-07T13:22:42Z</time>
      </trkpt>
      <trkpt lat="44.43329" lon="5.55885">
        <ele>997.7</ele>
        <time>2021-09-07T13:22:43Z</time>
      </trkpt>
      <trkpt lat="44.43328" lon="5.55887">
        <ele>997.9</ele>
        <time>2021-09-07T13:22:44Z</time>
      </trkpt>
      <trkpt lat="44.43327" lon="5.5589">
        <ele>998</ele>
        <time>2021-09-07T13:22:45Z</time>
      </trkpt>
      <trkpt lat="44.43326" lon="5.55892">
        <ele>998.2</ele>
        <time>2021-09-07T13:22:46Z</time>
      </trkpt>
      <trkpt lat="44.43326" lon="5.55893">
        <ele>998.2</ele>
        <time>2021-09-07T13:22:47Z</time>
      </trkpt>
      <trkpt lat="44.43325" lon="5.55894">
        <ele>998.3</ele>
        <time>2021-09-07T13:22:48Z</time>
      </trkpt>
      <trkpt lat="44.43324" lon="5.55896">
        <ele>998.4</ele>
        <time>2021-09-07T13:22:49Z</time>
      </trkpt>
      <trkpt lat="44.43323" lon="5.55898">
        <ele>998.6</ele>
        <time>2021-09-07T13:22:50Z</time>
      </trkpt>
      <trkpt lat="44.43322" lon="5.55899">
        <ele>998.7</ele>
        <time>2021-09-07T13:22:51Z</time>
      </trkpt>
      <trkpt lat="44.43321" lon="5.55902">
        <ele>998.9</ele>
        <time>2021-09-07T13:22:52Z</time>
      </trkpt>
      <trkpt lat="44.4332" lon="5.55904">
        <ele>999</ele>
        <time>2021-09-07T13:22:53Z</time>
      </trkpt>
      <trkpt lat="44.4332" lon="5.55905">
        <ele>999.1</ele>
        <time>2021-09-07T13:22:54Z</time>
      </trkpt>
      <trkpt lat="44.43319" lon="5.55906">
        <ele>999.2</ele>
        <time>2021-09-07T13:22:55Z</time>
      </trkpt>
      <trkpt lat="44.43319" lon="5.55908">
        <ele>999.3</ele>
        <time>2021-09-07T13:22:56Z</time>
      </trkpt>
      <trkpt lat="44.43318" lon="5.55909">
        <ele>999.4</ele>
        <time>2021-09-07T13:22:57Z</time>
      </trkpt>
      <trkpt lat="44.43318" lon="5.55911">
        <ele>999.5</ele>
        <time>2021-09-07T13:22:58Z</time>
      </trkpt>
      <trkpt lat="44.43317" lon="5.55914">
        <ele>999.7</ele>
        <time>2021-09-07T13:22:59Z</time>
      </trkpt>
      <trkpt lat="44.43317" lon="5.55916">
        <ele>999.8</ele>
        <time>2021-09-07T13:23:00Z</time>
      </trkpt>
      <trkpt lat="44.43317" lon="5.55918">
        <ele>999.9</ele>
        <time>2021-09-07T13:23:01Z</time>
      </trkpt>
      <trkpt lat="44.43317" lon="5.55919">
        <ele>1000</ele>
        <time>2021-09-07T13:23:02Z</time>
      </trkpt>
      <trkpt lat="44.43317" lon="5.55921">
        <ele>1000.1</ele>
        <time>2021-09-07T13:23:03Z</time>
      </trkpt>
      <trkpt lat="44.43318" lon="5.55922">
        <ele>1000.2</ele>
        <time>2021-09-07T13:23:04Z</time>
      </trkpt>
      <trkpt lat="44.43319" lon="5.55922">
        <ele>1000.3</ele>
        <time>2021-09-07T13:23:05Z</time>
      </trkpt>
      <trkpt lat="44.43319" lon="5.55921">
        <ele>1000.4</ele>
        <time>2021-09-07T13:23:06Z</time>
      </trkpt>
      <trkpt lat="44.4332" lon="5.55921">
        <ele>1000.4</ele>
        <time>2021-09-07T13:23:07Z</time>
      </trkpt>
      <trkpt lat="44.4332" lon="5.55921">
        <ele>1000.5</ele>
        <time>2021-09-07T13:23:08Z</time>
      </trkpt>
      <trkpt lat="44.4332" lon="5.55921">
        <ele>1000.5</ele>
        <time>2021-09-07T13:23:09Z</time>
      </trkpt>
      <trkpt lat="44.43321" lon="5.55921">
        <ele>1000.5</ele>
        <time>2021-09-07T13:23:10Z</time>
      </trkpt>
      <trkpt lat="44.43321" lon="5.55921">
        <ele>1000.5</ele>
        <time>2021-09-07T13:23:11Z</time>
      </trkpt>
      <trkpt lat="44.43321" lon="5.55921">
        <ele>1000.5</ele>
        <time>2021-09-07T13:23:12Z</time>
      </trkpt>
      <trkpt lat="44.43321" lon="5.55921">
        <ele>1000.5</ele>
        <time>2021-09-07T13:23:13Z</time>
      </trkpt>
      <trkpt lat="44.43321" lon="5.55922">
        <ele>1000.6</ele>
        <time>2021-09-07T13:23:14Z</time>
      </trkpt>
      <trkpt lat="44.43322" lon="5.55922">
        <ele>1000.7</ele>
        <time>2021-09-07T13:23:15Z</time>
      </trkpt>
      <trkpt lat="44.43322" lon="5.55923">
        <ele>1000.7</ele>
        <time>2021-09-07T13:23:16Z</time>
      </trkpt>
      <trkpt lat="44.43322" lon="5.55924">
        <ele>1000.8</ele>
        <time>2021-09-07T13:23:17Z</time>
      </trkpt>
      <trkpt lat="44.43323" lon="5.55926">
        <ele>1000.9</ele>
        <time>2021-09-07T13:23:18Z</time>
      </trkpt>
      <trkpt lat="44.43323" lon="5.55927">
        <ele>1001</ele>
        <time>2021-09-07T13:23:19Z</time>
      </trkpt>
      <trkpt lat="44.43323" lon="5.55928">
        <ele>1001</ele>
        <time>2021-09-07T13:23:20Z</time>
      </trkpt>
      <trkpt lat="44.43323" lon="5.5593">
        <ele>1001.1</ele>
        <time>2021-09-07T13:23:21Z</time>
      </trkpt>
      <trkpt lat="44.43322" lon="5.55932">
        <ele>1001.2</ele>
        <time>2021-09-07T13:23:22Z</time>
      </trkpt>
      <trkpt lat="44.43322" lon="5.55934">
        <ele>1001.3</ele>
        <time>2021-09-07T13:23:23Z</time>
      </trkpt>
      <trkpt lat="44.43322" lon="5.55936">
        <ele>1001.4</ele>
        <time>2021-09-07T13:23:24Z</time>
      </trkpt>
      <trkpt lat="44.43322" lon="5.55938">
        <ele>1001.5</ele>
        <time>2021-09-07T13:23:25Z</time>
      </trkpt>
      <trkpt lat="44.43322" lon="5.55939">
        <ele>1001.6</ele>
        <time>2021-09-07T13:23:26Z</time>
      </trkpt>
      <trkpt lat="44.4332" lon="5.55945">
        <ele>1001.9</ele>
        <time>2021-09-07T13:23:27Z</time>
      </trkpt>
      <trkpt lat="44.43319" lon="5.55948">
        <ele>1002.1</ele>
        <time>2021-09-07T13:23:28Z</time>
      </trkpt>
      <trkpt lat="44.43318" lon="5.5595">
        <ele>1002.2</ele>
        <time>2021-09-07T13:23:29Z</time>
      </trkpt>
      <trkpt lat="44.43317" lon="5.55952">
        <ele>1002.3</ele>
        <time>2021-09-07T13:23:30Z</time>
      </trkpt>
      <trkpt lat="44.43315" lon="5.55958">
        <ele>1002.6</ele>
        <time>2021-09-07T13:23:31Z</time>
      </trkpt>
      <trkpt lat="44.43315" lon="5.5596">
        <ele>1002.7</ele>
        <time>2021-09-07T13:23:32Z</time>
      </trkpt>
      <trkpt lat="44.43314" lon="5.55962">
        <ele>1002.8</ele>
        <time>2021-09-07T13:23:33Z</time>
      </trkpt>
      <trkpt lat="44.43312" lon="5.55966">
        <ele>1003.1</ele>
        <time>2021-09-07T13:23:34Z</time>
      </trkpt>
      <trkpt lat="44.43312" lon="5.55968">
        <ele>1003.2</ele>
        <time>2021-09-07T13:23:35Z</time>
      </trkpt>
      <trkpt lat="44.43312" lon="5.5597">
        <ele>1003.3</ele>
        <time>2021-09-07T13:23:36Z</time>
      </trkpt>
      <trkpt lat="44.43311" lon="5.55971">
        <ele>1003.4</ele>
        <time>2021-09-07T13:23:37Z</time>
      </trkpt>
      <trkpt lat="44.43312" lon="5.55972">
        <ele>1003.4</ele>
        <time>2021-09-07T13:23:38Z</time>
      </trkpt>
      <trkpt lat="44.43312" lon="5.55973">
        <ele>1003.5</ele>
        <time>2021-09-07T13:23:39Z</time>
      </trkpt>
      <trkpt lat="44.43312" lon="5.55976">
        <ele>1003.7</ele>
        <time>2021-09-07T13:23:40Z</time>
      </trkpt>
      <trkpt lat="44.43313" lon="5.55978">
        <ele>1003.8</ele>
        <time>2021-09-07T13:23:41Z</time>
      </trkpt>
      <trkpt lat="44.43313" lon="5.55979">
        <ele>1003.8</ele>
        <time>2021-09-07T13:23:42Z</time>
      </trkpt>
      <trkpt lat="44.43314" lon="5.5598">
        <ele>1003.9</ele>
        <time>2021-09-07T13:23:43Z</time>
      </trkpt>
      <trkpt lat="44.43314" lon="5.55981">
        <ele>1004</ele>
        <time>2021-09-07T13:23:44Z</time>
      </trkpt>
      <trkpt lat="44.43314" lon="5.55982">
        <ele>1004</ele>
        <time>2021-09-07T13:23:45Z</time>
      </trkpt>
      <trkpt lat="44.43314" lon="5.55983">
        <ele>1004.1</ele>
        <time>2021-09-07T13:23:46Z</time>
      </trkpt>
      <trkpt lat="44.43314" lon="5.55983">
        <ele>1004.1</ele>
        <time>2021-09-07T13:23:47Z</time>
      </trkpt>
      <trkpt lat="44.43315" lon="5.55984">
        <ele>1004.2</ele>
        <time>2021-09-07T13:23:48Z</time>
      </trkpt>
      <trkpt lat="44.43315" lon="5.55986">
        <ele>1004.3</ele>
        <time>2021-09-07T13:23:49Z</time>
      </trkpt>
      <trkpt lat="44.43316" lon="5.55987">
        <ele>1004.4</ele>
        <time>2021-09-07T13:23:50Z</time>
      </trkpt>
      <trkpt lat="44.43316" lon="5.55988">
        <ele>1004.4</ele>
        <time>2021-09-07T13:23:51Z</time>
      </trkpt>
      <trkpt lat="44.43316" lon="5.55989">
        <ele>1004.5</ele>
        <time>2021-09-07T13:23:52Z</time>
      </trkpt>
      <trkpt lat="44.43317" lon="5.55993">
        <ele>1004.7</ele>
        <time>2021-09-07T13:23:53Z</time>
      </trkpt>
      <trkpt lat="44.43318" lon="5.55996">
        <ele>1004.8</ele>
        <time>2021-09-07T13:23:54Z</time>
      </trkpt>
      <trkpt lat="44.43318" lon="5.55998">
        <ele>1005</ele>
        <time>2021-09-07T13:23:55Z</time>
      </trkpt>
      <trkpt lat="44.43319" lon="5.56">
        <ele>1005.1</ele>
        <time>2021-09-07T13:23:56Z</time>
      </trkpt>
      <trkpt lat="44.43319" lon="5.56002">
        <ele>1005.2</ele>
        <time>2021-09-07T13:23:57Z</time>
      </trkpt>
      <trkpt lat="44.43319" lon="5.56006">
        <ele>1005.4</ele>
        <time>2021-09-07T13:23:58Z</time>
      </trkpt>
      <trkpt lat="44.4332" lon="5.56008">
        <ele>1005.5</ele>
        <time>2021-09-07T13:23:59Z</time>
      </trkpt>
      <trkpt lat="44.4332" lon="5.5601">
        <ele>1005.6</ele>
        <time>2021-09-07T13:24:00Z</time>
      </trkpt>
      <trkpt lat="44.43321" lon="5.56014">
        <ele>1005.8</ele>
        <time>2021-09-07T13:24:01Z</time>
      </trkpt>
      <trkpt lat="44.43321" lon="5.56018">
        <ele>1005.9</ele>
        <time>2021-09-07T13:24:02Z</time>
      </trkpt>
      <trkpt lat="44.43322" lon="5.56019">
        <ele>1006</ele>
        <time>2021-09-07T13:24:03Z</time>
      </trkpt>
      <trkpt lat="44.43322" lon="5.56022">
        <ele>1006.2</ele>
        <time>2021-09-07T13:24:04Z</time>
      </trkpt>
      <trkpt lat="44.43322" lon="5.56024">
        <ele>1006.3</ele>
        <time>2021-09-07T13:24:05Z</time>
      </trkpt>
      <trkpt lat="44.43322" lon="5.56025">
        <ele>1006.3</ele>
        <time>2021-09-07T13:24:06Z</time>
      </trkpt>
      <trkpt lat="44.43322" lon="5.56027">
        <ele>1006.4</ele>
        <time>2021-09-07T13:24:07Z</time>
      </trkpt>
      <trkpt lat="44.43321" lon="5.56029">
        <ele>1006.5</ele>
        <time>2021-09-07T13:24:08Z</time>
      </trkpt>
      <trkpt lat="44.43321" lon="5.56031">
        <ele>1006.6</ele>
        <time>2021-09-07T13:24:09Z</time>
      </trkpt>
      <trkpt lat="44.4332" lon="5.56033">
        <ele>1006.8</ele>
        <time>2021-09-07T13:24:10Z</time>
      </trkpt>
      <trkpt lat="44.4332" lon="5.56034">
        <ele>1006.8</ele>
        <time>2021-09-07T13:24:11Z</time>
      </trkpt>
      <trkpt lat="44.43319" lon="5.56037">
        <ele>1007</ele>
        <time>2021-09-07T13:24:12Z</time>
      </trkpt>
      <trkpt lat="44.43318" lon="5.5604">
        <ele>1007.2</ele>
        <time>2021-09-07T13:24:13Z</time>
      </trkpt>
      <trkpt lat="44.43318" lon="5.56041">
        <ele>1007.2</ele>
        <time>2021-09-07T13:24:14Z</time>
      </trkpt>
      <trkpt lat="44.43318" lon="5.56041">
        <ele>1007.2</ele>
        <time>2021-09-07T13:24:15Z</time>
      </trkpt>
      <trkpt lat="44.43318" lon="5.56041">
        <ele>1007.2</ele>
        <time>2021-09-07T13:24:16Z</time>
      </trkpt>
      <trkpt lat="44.43318" lon="5.56042">
        <ele>1007.3</ele>
        <time>2021-09-07T13:24:17Z</time>
      </trkpt>
      <trkpt lat="44.43318" lon="5.56042">
        <ele>1007.3</ele>
        <time>2021-09-07T13:24:18Z</time>
      </trkpt>
      <trkpt lat="44.43318" lon="5.56044">
        <ele>1007.4</ele>
        <time>2021-09-07T13:24:19Z</time>
      </trkpt>
      <trkpt lat="44.43317" lon="5.56045">
        <ele>1007.5</ele>
        <time>2021-09-07T13:24:20Z</time>
      </trkpt>
      <trkpt lat="44.43315" lon="5.56047">
        <ele>1007.7</ele>
        <time>2021-09-07T13:24:21Z</time>
      </trkpt>
      <trkpt lat="44.43315" lon="5.56049">
        <ele>1007.8</ele>
        <time>2021-09-07T13:24:22Z</time>
      </trkpt>
      <trkpt lat="44.43314" lon="5.5605">
        <ele>1007.9</ele>
        <time>2021-09-07T13:24:23Z</time>
      </trkpt>
      <trkpt lat="44.43313" lon="5.56052">
        <ele>1008</ele>
        <time>2021-09-07T13:24:24Z</time>
      </trkpt>
      <trkpt lat="44.43312" lon="5.56054">
        <ele>1008.2</ele>
        <time>2021-09-07T13:24:25Z</time>
      </trkpt>
      <trkpt lat="44.4331" lon="5.56055">
        <ele>1008.3</ele>
        <time>2021-09-07T13:24:26Z</time>
      </trkpt>
      <trkpt lat="44.43309" lon="5.56056">
        <ele>1008.4</ele>
        <time>2021-09-07T13:24:27Z</time>
      </trkpt>
      <trkpt lat="44.43308" lon="5.56057">
        <ele>1008.5</ele>
        <time>2021-09-07T13:24:28Z</time>
      </trkpt>
      <trkpt lat="44.43307" lon="5.56058">
        <ele>1008.6</ele>
        <time>2021-09-07T13:24:29Z</time>
      </trkpt>
      <trkpt lat="44.43306" lon="5.56059">
        <ele>1008.7</ele>
        <time>2021-09-07T13:24:30Z</time>
      </trkpt>
      <trkpt lat="44.43304" lon="5.5606">
        <ele>1008.8</ele>
        <time>2021-09-07T13:24:31Z</time>
      </trkpt>
      <trkpt lat="44.43303" lon="5.56062">
        <ele>1009</ele>
        <time>2021-09-07T13:24:32Z</time>
      </trkpt>
      <trkpt lat="44.43302" lon="5.56064">
        <ele>1009.1</ele>
        <time>2021-09-07T13:24:33Z</time>
      </trkpt>
      <trkpt lat="44.43301" lon="5.56065">
        <ele>1009.2</ele>
        <time>2021-09-07T13:24:34Z</time>
      </trkpt>
      <trkpt lat="44.433" lon="5.56067">
        <ele>1009.3</ele>
        <time>2021-09-07T13:24:35Z</time>
      </trkpt>
      <trkpt lat="44.43299" lon="5.56069">
        <ele>1009.4</ele>
        <time>2021-09-07T13:24:36Z</time>
      </trkpt>
      <trkpt lat="44.43299" lon="5.56071">
        <ele>1009.6</ele>
        <time>2021-09-07T13:24:37Z</time>
      </trkpt>
      <trkpt lat="44.43298" lon="5.56073">
        <ele>1009.7</ele>
        <time>2021-09-07T13:24:38Z</time>
      </trkpt>
      <trkpt lat="44.43298" lon="5.56075">
        <ele>1009.8</ele>
        <time>2021-09-07T13:24:39Z</time>
      </trkpt>
      <trkpt lat="44.43297" lon="5.56077">
        <ele>1009.9</ele>
        <time>2021-09-07T13:24:40Z</time>
      </trkpt>
      <trkpt lat="44.43296" lon="5.56078">
        <ele>1010</ele>
        <time>2021-09-07T13:24:41Z</time>
      </trkpt>
      <trkpt lat="44.43295" lon="5.56081">
        <ele>1010.2</ele>
        <time>2021-09-07T13:24:42Z</time>
      </trkpt>
      <trkpt lat="44.43295" lon="5.56082">
        <ele>1010.2</ele>
        <time>2021-09-07T13:24:43Z</time>
      </trkpt>
      <trkpt lat="44.43295" lon="5.56082">
        <ele>1010.2</ele>
        <time>2021-09-07T13:24:44Z</time>
      </trkpt>
      <trkpt lat="44.43295" lon="5.56084">
        <ele>1010.3</ele>
        <time>2021-09-07T13:24:45Z</time>
      </trkpt>
      <trkpt lat="44.43295" lon="5.56087">
        <ele>1010.4</ele>
        <time>2021-09-07T13:24:46Z</time>
      </trkpt>
      <trkpt lat="44.43295" lon="5.56089">
        <ele>1010.6</ele>
        <time>2021-09-07T13:24:47Z</time>
      </trkpt>
      <trkpt lat="44.43296" lon="5.56091">
        <ele>1010.7</ele>
        <time>2021-09-07T13:24:48Z</time>
      </trkpt>
      <trkpt lat="44.43297" lon="5.56092">
        <ele>1010.8</ele>
        <time>2021-09-07T13:24:49Z</time>
      </trkpt>
      <trkpt lat="44.43298" lon="5.56093">
        <ele>1010.9</ele>
        <time>2021-09-07T13:24:50Z</time>
      </trkpt>
      <trkpt lat="44.433" lon="5.56095">
        <ele>1011.1</ele>
        <time>2021-09-07T13:24:51Z</time>
      </trkpt>
      <trkpt lat="44.43301" lon="5.56096">
        <ele>1011.1</ele>
        <time>2021-09-07T13:24:52Z</time>
      </trkpt>
      <trkpt lat="44.43302" lon="5.56097">
        <ele>1011.2</ele>
        <time>2021-09-07T13:24:53Z</time>
      </trkpt>
      <trkpt lat="44.43302" lon="5.56098">
        <ele>1011.3</ele>
        <time>2021-09-07T13:24:54Z</time>
      </trkpt>
      <trkpt lat="44.43302" lon="5.561">
        <ele>1011.3</ele>
        <time>2021-09-07T13:24:55Z</time>
      </trkpt>
      <trkpt lat="44.43302" lon="5.56101">
        <ele>1011.4</ele>
        <time>2021-09-07T13:24:56Z</time>
      </trkpt>
      <trkpt lat="44.43302" lon="5.56101">
        <ele>1011.4</ele>
        <time>2021-09-07T13:24:57Z</time>
      </trkpt>
      <trkpt lat="44.43303" lon="5.56104">
        <ele>1011.5</ele>
        <time>2021-09-07T13:24:58Z</time>
      </trkpt>
      <trkpt lat="44.43304" lon="5.56106">
        <ele>1011.6</ele>
        <time>2021-09-07T13:24:59Z</time>
      </trkpt>
      <trkpt lat="44.43304" lon="5.56108">
        <ele>1011.7</ele>
        <time>2021-09-07T13:25:00Z</time>
      </trkpt>
      <trkpt lat="44.43304" lon="5.5611">
        <ele>1011.8</ele>
        <time>2021-09-07T13:25:01Z</time>
      </trkpt>
      <trkpt lat="44.43305" lon="5.56112">
        <ele>1011.9</ele>
        <time>2021-09-07T13:25:02Z</time>
      </trkpt>
      <trkpt lat="44.43305" lon="5.56114">
        <ele>1012</ele>
        <time>2021-09-07T13:25:03Z</time>
      </trkpt>
      <trkpt lat="44.43305" lon="5.56116">
        <ele>1012.1</ele>
        <time>2021-09-07T13:25:04Z</time>
      </trkpt>
      <trkpt lat="44.43305" lon="5.56119">
        <ele>1012.2</ele>
        <time>2021-09-07T13:25:05Z</time>
      </trkpt>
      <trkpt lat="44.43305" lon="5.56121">
        <ele>1012.3</ele>
        <time>2021-09-07T13:25:06Z</time>
      </trkpt>
      <trkpt lat="44.43306" lon="5.56125">
        <ele>1012.5</ele>
        <time>2021-09-07T13:25:07Z</time>
      </trkpt>
      <trkpt lat="44.43306" lon="5.56127">
        <ele>1012.6</ele>
        <time>2021-09-07T13:25:08Z</time>
      </trkpt>
      <trkpt lat="44.43306" lon="5.56129">
        <ele>1012.7</ele>
        <time>2021-09-07T13:25:09Z</time>
      </trkpt>
      <trkpt lat="44.43307" lon="5.56131">
        <ele>1012.8</ele>
        <time>2021-09-07T13:25:10Z</time>
      </trkpt>
      <trkpt lat="44.43308" lon="5.56134">
        <ele>1012.9</ele>
        <time>2021-09-07T13:25:11Z</time>
      </trkpt>
      <trkpt lat="44.43308" lon="5.56135">
        <ele>1013</ele>
        <time>2021-09-07T13:25:12Z</time>
      </trkpt>
      <trkpt lat="44.43308" lon="5.56136">
        <ele>1013</ele>
        <time>2021-09-07T13:25:13Z</time>
      </trkpt>
      <trkpt lat="44.4331" lon="5.56139">
        <ele>1013.2</ele>
        <time>2021-09-07T13:25:14Z</time>
      </trkpt>
      <trkpt lat="44.43311" lon="5.56141">
        <ele>1013.3</ele>
        <time>2021-09-07T13:25:15Z</time>
      </trkpt>
      <trkpt lat="44.43312" lon="5.56142">
        <ele>1013.4</ele>
        <time>2021-09-07T13:25:16Z</time>
      </trkpt>
      <trkpt lat="44.43314" lon="5.56144">
        <ele>1013.6</ele>
        <time>2021-09-07T13:25:17Z</time>
      </trkpt>
      <trkpt lat="44.43316" lon="5.56146">
        <ele>1013.8</ele>
        <time>2021-09-07T13:25:18Z</time>
      </trkpt>
      <trkpt lat="44.43317" lon="5.56148">
        <ele>1013.9</ele>
        <time>2021-09-07T13:25:19Z</time>
      </trkpt>
      <trkpt lat="44.43318" lon="5.5615">
        <ele>1014</ele>
        <time>2021-09-07T13:25:20Z</time>
      </trkpt>
      <trkpt lat="44.43319" lon="5.56153">
        <ele>1014.2</ele>
        <time>2021-09-07T13:25:21Z</time>
      </trkpt>
      <trkpt lat="44.43319" lon="5.56156">
        <ele>1014.3</ele>
        <time>2021-09-07T13:25:22Z</time>
      </trkpt>
      <trkpt lat="44.43319" lon="5.56158">
        <ele>1014.4</ele>
        <time>2021-09-07T13:25:23Z</time>
      </trkpt>
      <trkpt lat="44.43319" lon="5.56159">
        <ele>1014.5</ele>
        <time>2021-09-07T13:25:24Z</time>
      </trkpt>
      <trkpt lat="44.4332" lon="5.56161">
        <ele>1014.6</ele>
        <time>2021-09-07T13:25:25Z</time>
      </trkpt>
      <trkpt lat="44.4332" lon="5.56163">
        <ele>1014.7</ele>
        <time>2021-09-07T13:25:26Z</time>
      </trkpt>
      <trkpt lat="44.4332" lon="5.56164">
        <ele>1014.7</ele>
        <time>2021-09-07T13:25:27Z</time>
      </trkpt>
      <trkpt lat="44.43321" lon="5.56167">
        <ele>1014.9</ele>
        <time>2021-09-07T13:25:28Z</time>
      </trkpt>
      <trkpt lat="44.4332" lon="5.56168">
        <ele>1015</ele>
        <time>2021-09-07T13:25:29Z</time>
      </trkpt>
      <trkpt lat="44.4332" lon="5.56168">
        <ele>1015</ele>
        <time>2021-09-07T13:25:30Z</time>
      </trkpt>
      <trkpt lat="44.4332" lon="5.56168">
        <ele>1015</ele>
        <time>2021-09-07T13:25:31Z</time>
      </trkpt>
      <trkpt lat="44.4332" lon="5.56171">
        <ele>1015.1</ele>
        <time>2021-09-07T13:25:32Z</time>
      </trkpt>
      <trkpt lat="44.43319" lon="5.56176">
        <ele>1015.4</ele>
        <time>2021-09-07T13:25:33Z</time>
      </trkpt>
      <trkpt lat="44.43319" lon="5.56177">
        <ele>1015.4</ele>
        <time>2021-09-07T13:25:34Z</time>
      </trkpt>
      <trkpt lat="44.43318" lon="5.56177">
        <ele>1015.4</ele>
        <time>2021-09-07T13:25:35Z</time>
      </trkpt>
      <trkpt lat="44.43318" lon="5.56179">
        <ele>1015.5</ele>
        <time>2021-09-07T13:25:36Z</time>
      </trkpt>
      <trkpt lat="44.43317" lon="5.56181">
        <ele>1015.6</ele>
        <time>2021-09-07T13:25:37Z</time>
      </trkpt>
      <trkpt lat="44.43317" lon="5.56183">
        <ele>1015.7</ele>
        <time>2021-09-07T13:25:38Z</time>
      </trkpt>
      <trkpt lat="44.43316" lon="5.56184">
        <ele>1015.8</ele>
        <time>2021-09-07T13:25:39Z</time>
      </trkpt>
      <trkpt lat="44.43316" lon="5.56188">
        <ele>1015.9</ele>
        <time>2021-09-07T13:25:40Z</time>
      </trkpt>
      <trkpt lat="44.43316" lon="5.56189">
        <ele>1015.9</ele>
        <time>2021-09-07T13:25:41Z</time>
      </trkpt>
      <trkpt lat="44.43316" lon="5.56189">
        <ele>1016</ele>
        <time>2021-09-07T13:25:42Z</time>
      </trkpt>
      <trkpt lat="44.43316" lon="5.5619">
        <ele>1016</ele>
        <time>2021-09-07T13:25:43Z</time>
      </trkpt>
      <trkpt lat="44.43316" lon="5.56191">
        <ele>1016</ele>
        <time>2021-09-07T13:25:44Z</time>
      </trkpt>
      <trkpt lat="44.43316" lon="5.56192">
        <ele>1016.1</ele>
        <time>2021-09-07T13:25:45Z</time>
      </trkpt>
      <trkpt lat="44.43317" lon="5.56196">
        <ele>1016.2</ele>
        <time>2021-09-07T13:25:46Z</time>
      </trkpt>
      <trkpt lat="44.43318" lon="5.56197">
        <ele>1016.3</ele>
        <time>2021-09-07T13:25:47Z</time>
      </trkpt>
      <trkpt lat="44.43318" lon="5.56198">
        <ele>1016.3</ele>
        <time>2021-09-07T13:25:48Z</time>
      </trkpt>
      <trkpt lat="44.43318" lon="5.56199">
        <ele>1016.4</ele>
        <time>2021-09-07T13:25:49Z</time>
      </trkpt>
      <trkpt lat="44.43318" lon="5.56199">
        <ele>1016.4</ele>
        <time>2021-09-07T13:25:50Z</time>
      </trkpt>
      <trkpt lat="44.43318" lon="5.562">
        <ele>1016.4</ele>
        <time>2021-09-07T13:25:51Z</time>
      </trkpt>
      <trkpt lat="44.43319" lon="5.56203">
        <ele>1016.5</ele>
        <time>2021-09-07T13:25:52Z</time>
      </trkpt>
      <trkpt lat="44.4332" lon="5.56205">
        <ele>1016.6</ele>
        <time>2021-09-07T13:25:53Z</time>
      </trkpt>
      <trkpt lat="44.43321" lon="5.56206">
        <ele>1016.7</ele>
        <time>2021-09-07T13:25:54Z</time>
      </trkpt>
      <trkpt lat="44.43322" lon="5.56209">
        <ele>1016.8</ele>
        <time>2021-09-07T13:25:55Z</time>
      </trkpt>
      <trkpt lat="44.43323" lon="5.56211">
        <ele>1016.9</ele>
        <time>2021-09-07T13:25:56Z</time>
      </trkpt>
      <trkpt lat="44.43324" lon="5.56212">
        <ele>1017</ele>
        <time>2021-09-07T13:25:57Z</time>
      </trkpt>
      <trkpt lat="44.43326" lon="5.56215">
        <ele>1017.1</ele>
        <time>2021-09-07T13:25:58Z</time>
      </trkpt>
      <trkpt lat="44.43327" lon="5.56217">
        <ele>1017.2</ele>
        <time>2021-09-07T13:25:59Z</time>
      </trkpt>
      <trkpt lat="44.43327" lon="5.56219">
        <ele>1017.3</ele>
        <time>2021-09-07T13:26:00Z</time>
      </trkpt>
      <trkpt lat="44.43328" lon="5.56222">
        <ele>1017.4</ele>
        <time>2021-09-07T13:26:01Z</time>
      </trkpt>
      <trkpt lat="44.43328" lon="5.56225">
        <ele>1017.5</ele>
        <time>2021-09-07T13:26:02Z</time>
      </trkpt>
      <trkpt lat="44.43328" lon="5.56228">
        <ele>1017.7</ele>
        <time>2021-09-07T13:26:03Z</time>
      </trkpt>
      <trkpt lat="44.43327" lon="5.56231">
        <ele>1017.8</ele>
        <time>2021-09-07T13:26:04Z</time>
      </trkpt>
      <trkpt lat="44.43327" lon="5.56235">
        <ele>1018</ele>
        <time>2021-09-07T13:26:05Z</time>
      </trkpt>
      <trkpt lat="44.43327" lon="5.56237">
        <ele>1018.1</ele>
        <time>2021-09-07T13:26:06Z</time>
      </trkpt>
      <trkpt lat="44.43326" lon="5.56239">
        <ele>1018.2</ele>
        <time>2021-09-07T13:26:07Z</time>
      </trkpt>
      <trkpt lat="44.43326" lon="5.5624">
        <ele>1018.3</ele>
        <time>2021-09-07T13:26:08Z</time>
      </trkpt>
      <trkpt lat="44.43326" lon="5.56243">
        <ele>1018.4</ele>
        <time>2021-09-07T13:26:09Z</time>
      </trkpt>
      <trkpt lat="44.43326" lon="5.56244">
        <ele>1018.5</ele>
        <time>2021-09-07T13:26:10Z</time>
      </trkpt>
      <trkpt lat="44.43326" lon="5.56245">
        <ele>1018.5</ele>
        <time>2021-09-07T13:26:11Z</time>
      </trkpt>
      <trkpt lat="44.43326" lon="5.56246">
        <ele>1018.6</ele>
        <time>2021-09-07T13:26:12Z</time>
      </trkpt>
      <trkpt lat="44.43326" lon="5.56248">
        <ele>1018.7</ele>
        <time>2021-09-07T13:26:13Z</time>
      </trkpt>
      <trkpt lat="44.43325" lon="5.5625">
        <ele>1018.8</ele>
        <time>2021-09-07T13:26:14Z</time>
      </trkpt>
      <trkpt lat="44.43325" lon="5.56252">
        <ele>1018.9</ele>
        <time>2021-09-07T13:26:15Z</time>
      </trkpt>
      <trkpt lat="44.43324" lon="5.56254">
        <ele>1019.1</ele>
        <time>2021-09-07T13:26:16Z</time>
      </trkpt>
      <trkpt lat="44.43323" lon="5.56255">
        <ele>1019.2</ele>
        <time>2021-09-07T13:26:17Z</time>
      </trkpt>
      <trkpt lat="44.43322" lon="5.56257">
        <ele>1019.3</ele>
        <time>2021-09-07T13:26:18Z</time>
      </trkpt>
      <trkpt lat="44.43321" lon="5.56259">
        <ele>1019.5</ele>
        <time>2021-09-07T13:26:19Z</time>
      </trkpt>
      <trkpt lat="44.43321" lon="5.5626">
        <ele>1019.5</ele>
        <time>2021-09-07T13:26:20Z</time>
      </trkpt>
      <trkpt lat="44.43321" lon="5.56261">
        <ele>1019.6</ele>
        <time>2021-09-07T13:26:21Z</time>
      </trkpt>
      <trkpt lat="44.43319" lon="5.56264">
        <ele>1019.8</ele>
        <time>2021-09-07T13:26:22Z</time>
      </trkpt>
      <trkpt lat="44.43319" lon="5.56265">
        <ele>1019.9</ele>
        <time>2021-09-07T13:26:23Z</time>
      </trkpt>
      <trkpt lat="44.43318" lon="5.56265">
        <ele>1020</ele>
        <time>2021-09-07T13:26:24Z</time>
      </trkpt>
      <trkpt lat="44.43316" lon="5.56267">
        <ele>1020.2</ele>
        <time>2021-09-07T13:26:25Z</time>
      </trkpt>
      <trkpt lat="44.43316" lon="5.56268">
        <ele>1020.3</ele>
        <time>2021-09-07T13:26:26Z</time>
      </trkpt>
      <trkpt lat="44.43315" lon="5.5627">
        <ele>1020.4</ele>
        <time>2021-09-07T13:26:27Z</time>
      </trkpt>
      <trkpt lat="44.43315" lon="5.56272">
        <ele>1020.5</ele>
        <time>2021-09-07T13:26:28Z</time>
      </trkpt>
      <trkpt lat="44.43314" lon="5.56273">
        <ele>1020.7</ele>
        <time>2021-09-07T13:26:29Z</time>
      </trkpt>
      <trkpt lat="44.43313" lon="5.56275">
        <ele>1020.8</ele>
        <time>2021-09-07T13:26:30Z</time>
      </trkpt>
      <trkpt lat="44.43311" lon="5.56278">
        <ele>1021.1</ele>
        <time>2021-09-07T13:26:31Z</time>
      </trkpt>
      <trkpt lat="44.43311" lon="5.56279">
        <ele>1021.2</ele>
        <time>2021-09-07T13:26:32Z</time>
      </trkpt>
      <trkpt lat="44.4331" lon="5.5628">
        <ele>1021.3</ele>
        <time>2021-09-07T13:26:33Z</time>
      </trkpt>
      <trkpt lat="44.43309" lon="5.56281">
        <ele>1021.4</ele>
        <time>2021-09-07T13:26:34Z</time>
      </trkpt>
      <trkpt lat="44.43308" lon="5.56283">
        <ele>1021.6</ele>
        <time>2021-09-07T13:26:35Z</time>
      </trkpt>
      <trkpt lat="44.43307" lon="5.56285">
        <ele>1021.7</ele>
        <time>2021-09-07T13:26:36Z</time>
      </trkpt>
      <trkpt lat="44.43306" lon="5.56286">
        <ele>1021.8</ele>
        <time>2021-09-07T13:26:37Z</time>
      </trkpt>
      <trkpt lat="44.43305" lon="5.56286">
        <ele>1021.9</ele>
        <time>2021-09-07T13:26:38Z</time>
      </trkpt>
      <trkpt lat="44.43304" lon="5.56286">
        <ele>1022</ele>
        <time>2021-09-07T13:26:39Z</time>
      </trkpt>
      <trkpt lat="44.43304" lon="5.56286">
        <ele>1022.1</ele>
        <time>2021-09-07T13:26:40Z</time>
      </trkpt>
      <trkpt lat="44.43303" lon="5.56285">
        <ele>1022.1</ele>
        <time>2021-09-07T13:26:41Z</time>
      </trkpt>
      <trkpt lat="44.43303" lon="5.56285">
        <ele>1022.1</ele>
        <time>2021-09-07T13:26:42Z</time>
      </trkpt>
      <trkpt lat="44.43302" lon="5.56285">
        <ele>1022.2</ele>
        <time>2021-09-07T13:26:43Z</time>
      </trkpt>
      <trkpt lat="44.43301" lon="5.56286">
        <ele>1022.3</ele>
        <time>2021-09-07T13:26:44Z</time>
      </trkpt>
      <trkpt lat="44.433" lon="5.56288">
        <ele>1022.4</ele>
        <time>2021-09-07T13:26:45Z</time>
      </trkpt>
      <trkpt lat="44.43298" lon="5.5629">
        <ele>1022.6</ele>
        <time>2021-09-07T13:26:46Z</time>
      </trkpt>
      <trkpt lat="44.43297" lon="5.56291">
        <ele>1022.7</ele>
        <time>2021-09-07T13:26:47Z</time>
      </trkpt>
      <trkpt lat="44.43297" lon="5.56291">
        <ele>1022.8</ele>
        <time>2021-09-07T13:26:48Z</time>
      </trkpt>
      <trkpt lat="44.43296" lon="5.56292">
        <ele>1022.8</ele>
        <time>2021-09-07T13:26:49Z</time>
      </trkpt>
      <trkpt lat="44.43295" lon="5.56293">
        <ele>1022.9</ele>
        <time>2021-09-07T13:26:50Z</time>
      </trkpt>
      <trkpt lat="44.43294" lon="5.56294">
        <ele>1023</ele>
        <time>2021-09-07T13:26:51Z</time>
      </trkpt>
      <trkpt lat="44.43294" lon="5.56295">
        <ele>1023.1</ele>
        <time>2021-09-07T13:26:52Z</time>
      </trkpt>
      <trkpt lat="44.43293" lon="5.56296">
        <ele>1023.1</ele>
        <time>2021-09-07T13:26:53Z</time>
      </trkpt>
      <trkpt lat="44.43293" lon="5.56296">
        <ele>1023.2</ele>
        <time>2021-09-07T13:26:54Z</time>
      </trkpt>
      <trkpt lat="44.43292" lon="5.56296">
        <ele>1023.2</ele>
        <time>2021-09-07T13:26:55Z</time>
      </trkpt>
      <trkpt lat="44.43292" lon="5.56296">
        <ele>1023.2</ele>
        <time>2021-09-07T13:26:56Z</time>
      </trkpt>
      <trkpt lat="44.43293" lon="5.56296">
        <ele>1023.2</ele>
        <time>2021-09-07T13:26:57Z</time>
      </trkpt>
      <trkpt lat="44.43293" lon="5.56296">
        <ele>1023.3</ele>
        <time>2021-09-07T13:26:58Z</time>
      </trkpt>
      <trkpt lat="44.43293" lon="5.56297">
        <ele>1023.3</ele>
        <time>2021-09-07T13:26:59Z</time>
      </trkpt>
      <trkpt lat="44.43293" lon="5.56297">
        <ele>1023.3</ele>
        <time>2021-09-07T13:27:00Z</time>
      </trkpt>
      <trkpt lat="44.43293" lon="5.56297">
        <ele>1023.3</ele>
        <time>2021-09-07T13:27:01Z</time>
      </trkpt>
      <trkpt lat="44.43293" lon="5.56297">
        <ele>1023.3</ele>
        <time>2021-09-07T13:27:02Z</time>
      </trkpt>
      <trkpt lat="44.43293" lon="5.56297">
        <ele>1023.3</ele>
        <time>2021-09-07T13:27:03Z</time>
      </trkpt>
      <trkpt lat="44.43293" lon="5.56297">
        <ele>1023.3</ele>
        <time>2021-09-07T13:27:04Z</time>
      </trkpt>
      <trkpt lat="44.43293" lon="5.56297">
        <ele>1023.3</ele>
        <time>2021-09-07T13:27:05Z</time>
      </trkpt>
      <trkpt lat="44.43293" lon="5.56297">
        <ele>1023.3</ele>
        <time>2021-09-07T13:27:06Z</time>
      </trkpt>
      <trkpt lat="44.43293" lon="5.56297">
        <ele>1023.3</ele>
        <time>2021-09-07T13:27:07Z</time>
      </trkpt>
      <trkpt lat="44.43293" lon="5.56297">
        <ele>1023.3</ele>
        <time>2021-09-07T13:27:08Z</time>
      </trkpt>
      <trkpt lat="44.43293" lon="5.56297">
        <ele>1023.4</ele>
        <time>2021-09-07T13:27:09Z</time>
      </trkpt>
      <trkpt lat="44.43292" lon="5.56297">
        <ele>1023.4</ele>
        <time>2021-09-07T13:27:10Z</time>
      </trkpt>
      <trkpt lat="44.43292" lon="5.56297">
        <ele>1023.4</ele>
        <time>2021-09-07T13:27:11Z</time>
      </trkpt>
      <trkpt lat="44.43292" lon="5.56297">
        <ele>1023.4</ele>
        <time>2021-09-07T13:27:12Z</time>
      </trkpt>
      <trkpt lat="44.43293" lon="5.56297">
        <ele>1023.4</ele>
        <time>2021-09-07T13:27:13Z</time>
      </trkpt>
      <trkpt lat="44.43293" lon="5.56297">
        <ele>1023.5</ele>
        <time>2021-09-07T13:27:14Z</time>
      </trkpt>
      <trkpt lat="44.43293" lon="5.56297">
        <ele>1023.5</ele>
        <time>2021-09-07T13:27:15Z</time>
      </trkpt>
      <trkpt lat="44.43293" lon="5.56297">
        <ele>1023.5</ele>
        <time>2021-09-07T13:27:16Z</time>
      </trkpt>
      <trkpt lat="44.43293" lon="5.56297">
        <ele>1023.5</ele>
        <time>2021-09-07T13:27:17Z</time>
      </trkpt>
      <trkpt lat="44.43293" lon="5.56297">
        <ele>1023.5</ele>
        <time>2021-09-07T13:27:18Z</time>
      </trkpt>
      <trkpt lat="44.43293" lon="5.56296">
        <ele>1023.5</ele>
        <time>2021-09-07T13:27:19Z</time>
      </trkpt>
      <trkpt lat="44.43292" lon="5.56296">
        <ele>1023.6</ele>
        <time>2021-09-07T13:27:20Z</time>
      </trkpt>
      <trkpt lat="44.43292" lon="5.56296">
        <ele>1023.6</ele>
        <time>2021-09-07T13:27:21Z</time>
      </trkpt>
      <trkpt lat="44.43292" lon="5.56296">
        <ele>1023.6</ele>
        <time>2021-09-07T13:27:22Z</time>
      </trkpt>
      <trkpt lat="44.43293" lon="5.56296">
        <ele>1023.7</ele>
        <time>2021-09-07T13:27:23Z</time>
      </trkpt>
      <trkpt lat="44.43293" lon="5.56296">
        <ele>1023.7</ele>
        <time>2021-09-07T13:27:24Z</time>
      </trkpt>
      <trkpt lat="44.43293" lon="5.56296">
        <ele>1023.7</ele>
        <time>2021-09-07T13:27:25Z</time>
      </trkpt>
      <trkpt lat="44.43293" lon="5.56297">
        <ele>1023.7</ele>
        <time>2021-09-07T13:27:26Z</time>
      </trkpt>
      <trkpt lat="44.43293" lon="5.56297">
        <ele>1023.7</ele>
        <time>2021-09-07T13:27:27Z</time>
      </trkpt>
      <trkpt lat="44.43293" lon="5.56297">
        <ele>1023.7</ele>
        <time>2021-09-07T13:27:28Z</time>
      </trkpt>
      <trkpt lat="44.43293" lon="5.56297">
        <ele>1023.7</ele>
        <time>2021-09-07T13:27:29Z</time>
      </trkpt>
      <trkpt lat="44.43293" lon="5.56297">
        <ele>1023.7</ele>
        <time>2021-09-07T13:27:30Z</time>
      </trkpt>
      <trkpt lat="44.43293" lon="5.56297">
        <ele>1023.7</ele>
        <time>2021-09-07T13:27:31Z</time>
      </trkpt>
      <trkpt lat="44.43293" lon="5.56297">
        <ele>1023.7</ele>
        <time>2021-09-07T13:27:32Z</time>
      </trkpt>
      <trkpt lat="44.43293" lon="5.56297">
        <ele>1023.7</ele>
        <time>2021-09-07T13:27:33Z</time>
      </trkpt>
      <trkpt lat="44.43293" lon="5.56298">
        <ele>1023.8</ele>
        <time>2021-09-07T13:27:34Z</time>
      </trkpt>
      <trkpt lat="44.43293" lon="5.56301">
        <ele>1023.9</ele>
        <time>2021-09-07T13:27:35Z</time>
      </trkpt>
      <trkpt lat="44.43293" lon="5.56302">
        <ele>1024</ele>
        <time>2021-09-07T13:27:36Z</time>
      </trkpt>
      <trkpt lat="44.43293" lon="5.56303">
        <ele>1024</ele>
        <time>2021-09-07T13:27:37Z</time>
      </trkpt>
      <trkpt lat="44.43294" lon="5.56307">
        <ele>1024.2</ele>
        <time>2021-09-07T13:27:38Z</time>
      </trkpt>
      <trkpt lat="44.43295" lon="5.56312">
        <ele>1024.5</ele>
        <time>2021-09-07T13:27:39Z</time>
      </trkpt>
      <trkpt lat="44.43296" lon="5.56315">
        <ele>1024.6</ele>
        <time>2021-09-07T13:27:40Z</time>
      </trkpt>
      <trkpt lat="44.43297" lon="5.56316">
        <ele>1024.7</ele>
        <time>2021-09-07T13:27:41Z</time>
      </trkpt>
      <trkpt lat="44.43297" lon="5.56317">
        <ele>1024.8</ele>
        <time>2021-09-07T13:27:42Z</time>
      </trkpt>
      <trkpt lat="44.43297" lon="5.56319">
        <ele>1024.9</ele>
        <time>2021-09-07T13:27:43Z</time>
      </trkpt>
      <trkpt lat="44.43298" lon="5.5632">
        <ele>1024.9</ele>
        <time>2021-09-07T13:27:44Z</time>
      </trkpt>
      <trkpt lat="44.43298" lon="5.5632">
        <ele>1025</ele>
        <time>2021-09-07T13:27:45Z</time>
      </trkpt>
      <trkpt lat="44.43298" lon="5.56321">
        <ele>1025</ele>
        <time>2021-09-07T13:27:46Z</time>
      </trkpt>
      <trkpt lat="44.43298" lon="5.56321">
        <ele>1025</ele>
        <time>2021-09-07T13:27:47Z</time>
      </trkpt>
      <trkpt lat="44.43299" lon="5.56322">
        <ele>1025.1</ele>
        <time>2021-09-07T13:27:48Z</time>
      </trkpt>
      <trkpt lat="44.43299" lon="5.56322">
        <ele>1025.1</ele>
        <time>2021-09-07T13:27:49Z</time>
      </trkpt>
      <trkpt lat="44.43299" lon="5.56322">
        <ele>1025.1</ele>
        <time>2021-09-07T13:27:50Z</time>
      </trkpt>
      <trkpt lat="44.43299" lon="5.56322">
        <ele>1025.1</ele>
        <time>2021-09-07T13:27:51Z</time>
      </trkpt>
      <trkpt lat="44.43299" lon="5.56323">
        <ele>1025.2</ele>
        <time>2021-09-07T13:27:52Z</time>
      </trkpt>
      <trkpt lat="44.43299" lon="5.56323">
        <ele>1025.2</ele>
        <time>2021-09-07T13:27:53Z</time>
      </trkpt>
      <trkpt lat="44.43299" lon="5.56323">
        <ele>1025.2</ele>
        <time>2021-09-07T13:27:54Z</time>
      </trkpt>
      <trkpt lat="44.43299" lon="5.56323">
        <ele>1025.2</ele>
        <time>2021-09-07T13:27:55Z</time>
      </trkpt>
      <trkpt lat="44.43299" lon="5.56326">
        <ele>1025.4</ele>
        <time>2021-09-07T13:27:56Z</time>
      </trkpt>
      <trkpt lat="44.433" lon="5.56329">
        <ele>1025.6</ele>
        <time>2021-09-07T13:27:57Z</time>
      </trkpt>
      <trkpt lat="44.433" lon="5.5633">
        <ele>1025.6</ele>
        <time>2021-09-07T13:27:58Z</time>
      </trkpt>
      <trkpt lat="44.433" lon="5.56331">
        <ele>1025.7</ele>
        <time>2021-09-07T13:27:59Z</time>
      </trkpt>
      <trkpt lat="44.43299" lon="5.56334">
        <ele>1025.9</ele>
        <time>2021-09-07T13:28:00Z</time>
      </trkpt>
      <trkpt lat="44.43299" lon="5.56336">
        <ele>1026</ele>
        <time>2021-09-07T13:28:01Z</time>
      </trkpt>
      <trkpt lat="44.43299" lon="5.56337">
        <ele>1026</ele>
        <time>2021-09-07T13:28:02Z</time>
      </trkpt>
      <trkpt lat="44.43299" lon="5.56338">
        <ele>1026.1</ele>
        <time>2021-09-07T13:28:03Z</time>
      </trkpt>
      <trkpt lat="44.43299" lon="5.56338">
        <ele>1026.1</ele>
        <time>2021-09-07T13:28:04Z</time>
      </trkpt>
      <trkpt lat="44.43299" lon="5.56338">
        <ele>1026.1</ele>
        <time>2021-09-07T13:28:05Z</time>
      </trkpt>
      <trkpt lat="44.43299" lon="5.5634">
        <ele>1026.2</ele>
        <time>2021-09-07T13:28:06Z</time>
      </trkpt>
      <trkpt lat="44.43298" lon="5.56344">
        <ele>1026.5</ele>
        <time>2021-09-07T13:28:07Z</time>
      </trkpt>
      <trkpt lat="44.43297" lon="5.56347">
        <ele>1026.7</ele>
        <time>2021-09-07T13:28:08Z</time>
      </trkpt>
      <trkpt lat="44.43297" lon="5.56348">
        <ele>1026.8</ele>
        <time>2021-09-07T13:28:09Z</time>
      </trkpt>
      <trkpt lat="44.43296" lon="5.56349">
        <ele>1026.8</ele>
        <time>2021-09-07T13:28:10Z</time>
      </trkpt>
      <trkpt lat="44.43295" lon="5.56351">
        <ele>1027</ele>
        <time>2021-09-07T13:28:11Z</time>
      </trkpt>
      <trkpt lat="44.43295" lon="5.56354">
        <ele>1027.2</ele>
        <time>2021-09-07T13:28:12Z</time>
      </trkpt>
      <trkpt lat="44.43296" lon="5.56357">
        <ele>1027.4</ele>
        <time>2021-09-07T13:28:13Z</time>
      </trkpt>
      <trkpt lat="44.43296" lon="5.56359">
        <ele>1027.5</ele>
        <time>2021-09-07T13:28:14Z</time>
      </trkpt>
      <trkpt lat="44.43296" lon="5.5636">
        <ele>1027.6</ele>
        <time>2021-09-07T13:28:15Z</time>
      </trkpt>
      <trkpt lat="44.43297" lon="5.56363">
        <ele>1027.7</ele>
        <time>2021-09-07T13:28:16Z</time>
      </trkpt>
      <trkpt lat="44.43298" lon="5.56367">
        <ele>1028</ele>
        <time>2021-09-07T13:28:17Z</time>
      </trkpt>
      <trkpt lat="44.43299" lon="5.56369">
        <ele>1028.1</ele>
        <time>2021-09-07T13:28:18Z</time>
      </trkpt>
      <trkpt lat="44.433" lon="5.5637">
        <ele>1028.2</ele>
        <time>2021-09-07T13:28:19Z</time>
      </trkpt>
      <trkpt lat="44.43301" lon="5.56371">
        <ele>1028.3</ele>
        <time>2021-09-07T13:28:20Z</time>
      </trkpt>
      <trkpt lat="44.43302" lon="5.56372">
        <ele>1028.4</ele>
        <time>2021-09-07T13:28:21Z</time>
      </trkpt>
      <trkpt lat="44.43304" lon="5.56373">
        <ele>1028.5</ele>
        <time>2021-09-07T13:28:22Z</time>
      </trkpt>
      <trkpt lat="44.43305" lon="5.56373">
        <ele>1028.6</ele>
        <time>2021-09-07T13:28:23Z</time>
      </trkpt>
      <trkpt lat="44.43306" lon="5.56374">
        <ele>1028.6</ele>
        <time>2021-09-07T13:28:24Z</time>
      </trkpt>
      <trkpt lat="44.43307" lon="5.56374">
        <ele>1028.7</ele>
        <time>2021-09-07T13:28:25Z</time>
      </trkpt>
      <trkpt lat="44.43307" lon="5.56374">
        <ele>1028.7</ele>
        <time>2021-09-07T13:28:26Z</time>
      </trkpt>
      <trkpt lat="44.43308" lon="5.56374">
        <ele>1028.8</ele>
        <time>2021-09-07T13:28:27Z</time>
      </trkpt>
      <trkpt lat="44.43308" lon="5.56374">
        <ele>1028.8</ele>
        <time>2021-09-07T13:28:28Z</time>
      </trkpt>
      <trkpt lat="44.43309" lon="5.56374">
        <ele>1028.8</ele>
        <time>2021-09-07T13:28:29Z</time>
      </trkpt>
      <trkpt lat="44.43309" lon="5.56374">
        <ele>1028.8</ele>
        <time>2021-09-07T13:28:30Z</time>
      </trkpt>
      <trkpt lat="44.43309" lon="5.56374">
        <ele>1028.8</ele>
        <time>2021-09-07T13:28:31Z</time>
      </trkpt>
      <trkpt lat="44.4331" lon="5.56374">
        <ele>1028.9</ele>
        <time>2021-09-07T13:28:32Z</time>
      </trkpt>
      <trkpt lat="44.4331" lon="5.56374">
        <ele>1028.9</ele>
        <time>2021-09-07T13:28:33Z</time>
      </trkpt>
      <trkpt lat="44.4331" lon="5.56374">
        <ele>1028.9</ele>
        <time>2021-09-07T13:28:34Z</time>
      </trkpt>
      <trkpt lat="44.4331" lon="5.56374">
        <ele>1028.9</ele>
        <time>2021-09-07T13:28:35Z</time>
      </trkpt>
      <trkpt lat="44.43311" lon="5.56374">
        <ele>1029</ele>
        <time>2021-09-07T13:28:36Z</time>
      </trkpt>
      <trkpt lat="44.43311" lon="5.56374">
        <ele>1029</ele>
        <time>2021-09-07T13:28:37Z</time>
      </trkpt>
      <trkpt lat="44.43311" lon="5.56374">
        <ele>1029</ele>
        <time>2021-09-07T13:28:38Z</time>
      </trkpt>
      <trkpt lat="44.43311" lon="5.56374">
        <ele>1029</ele>
        <time>2021-09-07T13:28:39Z</time>
      </trkpt>
      <trkpt lat="44.43311" lon="5.56374">
        <ele>1029</ele>
        <time>2021-09-07T13:28:40Z</time>
      </trkpt>
      <trkpt lat="44.43312" lon="5.56375">
        <ele>1029</ele>
        <time>2021-09-07T13:28:41Z</time>
      </trkpt>
      <trkpt lat="44.43312" lon="5.56375">
        <ele>1029</ele>
        <time>2021-09-07T13:28:42Z</time>
      </trkpt>
      <trkpt lat="44.43312" lon="5.56377">
        <ele>1029.1</ele>
        <time>2021-09-07T13:28:43Z</time>
      </trkpt>
      <trkpt lat="44.43312" lon="5.5638">
        <ele>1029.3</ele>
        <time>2021-09-07T13:28:44Z</time>
      </trkpt>
      <trkpt lat="44.43313" lon="5.56381">
        <ele>1029.3</ele>
        <time>2021-09-07T13:28:45Z</time>
      </trkpt>
      <trkpt lat="44.43313" lon="5.56382">
        <ele>1029.4</ele>
        <time>2021-09-07T13:28:46Z</time>
      </trkpt>
      <trkpt lat="44.43313" lon="5.56384">
        <ele>1029.5</ele>
        <time>2021-09-07T13:28:47Z</time>
      </trkpt>
      <trkpt lat="44.43313" lon="5.56386">
        <ele>1029.6</ele>
        <time>2021-09-07T13:28:48Z</time>
      </trkpt>
      <trkpt lat="44.43313" lon="5.56388">
        <ele>1029.6</ele>
        <time>2021-09-07T13:28:49Z</time>
      </trkpt>
      <trkpt lat="44.43313" lon="5.56389">
        <ele>1029.7</ele>
        <time>2021-09-07T13:28:50Z</time>
      </trkpt>
      <trkpt lat="44.43313" lon="5.56391">
        <ele>1029.8</ele>
        <time>2021-09-07T13:28:51Z</time>
      </trkpt>
      <trkpt lat="44.43314" lon="5.56392">
        <ele>1029.9</ele>
        <time>2021-09-07T13:28:52Z</time>
      </trkpt>
      <trkpt lat="44.43314" lon="5.56393">
        <ele>1029.9</ele>
        <time>2021-09-07T13:28:53Z</time>
      </trkpt>
      <trkpt lat="44.43315" lon="5.56395">
        <ele>1030</ele>
        <time>2021-09-07T13:28:54Z</time>
      </trkpt>
      <trkpt lat="44.43316" lon="5.56397">
        <ele>1030.2</ele>
        <time>2021-09-07T13:28:55Z</time>
      </trkpt>
      <trkpt lat="44.43316" lon="5.56399">
        <ele>1030.3</ele>
        <time>2021-09-07T13:28:56Z</time>
      </trkpt>
      <trkpt lat="44.43318" lon="5.56401">
        <ele>1030.4</ele>
        <time>2021-09-07T13:28:57Z</time>
      </trkpt>
      <trkpt lat="44.43319" lon="5.56402">
        <ele>1030.5</ele>
        <time>2021-09-07T13:28:58Z</time>
      </trkpt>
      <trkpt lat="44.43319" lon="5.56403">
        <ele>1030.5</ele>
        <time>2021-09-07T13:28:59Z</time>
      </trkpt>
      <trkpt lat="44.43319" lon="5.56404">
        <ele>1030.6</ele>
        <time>2021-09-07T13:29:00Z</time>
      </trkpt>
      <trkpt lat="44.4332" lon="5.56406">
        <ele>1030.7</ele>
        <time>2021-09-07T13:29:01Z</time>
      </trkpt>
      <trkpt lat="44.43321" lon="5.56407">
        <ele>1030.8</ele>
        <time>2021-09-07T13:29:02Z</time>
      </trkpt>
      <trkpt lat="44.43321" lon="5.56408">
        <ele>1030.8</ele>
        <time>2021-09-07T13:29:03Z</time>
      </trkpt>
      <trkpt lat="44.43321" lon="5.56409">
        <ele>1030.9</ele>
        <time>2021-09-07T13:29:04Z</time>
      </trkpt>
      <trkpt lat="44.43322" lon="5.56411">
        <ele>1031</ele>
        <time>2021-09-07T13:29:05Z</time>
      </trkpt>
      <trkpt lat="44.43323" lon="5.56413">
        <ele>1031.1</ele>
        <time>2021-09-07T13:29:06Z</time>
      </trkpt>
      <trkpt lat="44.43324" lon="5.56416">
        <ele>1031.2</ele>
        <time>2021-09-07T13:29:07Z</time>
      </trkpt>
      <trkpt lat="44.43325" lon="5.56418">
        <ele>1031.3</ele>
        <time>2021-09-07T13:29:08Z</time>
      </trkpt>
      <trkpt lat="44.43326" lon="5.5642">
        <ele>1031.4</ele>
        <time>2021-09-07T13:29:09Z</time>
      </trkpt>
      <trkpt lat="44.43326" lon="5.56421">
        <ele>1031.5</ele>
        <time>2021-09-07T13:29:10Z</time>
      </trkpt>
      <trkpt lat="44.43327" lon="5.56423">
        <ele>1031.6</ele>
        <time>2021-09-07T13:29:11Z</time>
      </trkpt>
      <trkpt lat="44.43328" lon="5.56425">
        <ele>1031.7</ele>
        <time>2021-09-07T13:29:12Z</time>
      </trkpt>
      <trkpt lat="44.43328" lon="5.56426">
        <ele>1031.7</ele>
        <time>2021-09-07T13:29:13Z</time>
      </trkpt>
      <trkpt lat="44.43329" lon="5.56427">
        <ele>1031.8</ele>
        <time>2021-09-07T13:29:14Z</time>
      </trkpt>
      <trkpt lat="44.4333" lon="5.5643">
        <ele>1032</ele>
        <time>2021-09-07T13:29:15Z</time>
      </trkpt>
      <trkpt lat="44.43331" lon="5.56434">
        <ele>1032.2</ele>
        <time>2021-09-07T13:29:16Z</time>
      </trkpt>
      <trkpt lat="44.43332" lon="5.56436">
        <ele>1032.3</ele>
        <time>2021-09-07T13:29:17Z</time>
      </trkpt>
      <trkpt lat="44.43333" lon="5.56437">
        <ele>1032.3</ele>
        <time>2021-09-07T13:29:18Z</time>
      </trkpt>
      <trkpt lat="44.43333" lon="5.56437">
        <ele>1032.4</ele>
        <time>2021-09-07T13:29:19Z</time>
      </trkpt>
      <trkpt lat="44.43333" lon="5.56439">
        <ele>1032.5</ele>
        <time>2021-09-07T13:29:20Z</time>
      </trkpt>
      <trkpt lat="44.43333" lon="5.56439">
        <ele>1032.5</ele>
        <time>2021-09-07T13:29:21Z</time>
      </trkpt>
      <trkpt lat="44.43334" lon="5.5644">
        <ele>1032.6</ele>
        <time>2021-09-07T13:29:22Z</time>
      </trkpt>
      <trkpt lat="44.43335" lon="5.56441">
        <ele>1032.7</ele>
        <time>2021-09-07T13:29:23Z</time>
      </trkpt>
      <trkpt lat="44.43336" lon="5.56442">
        <ele>1032.7</ele>
        <time>2021-09-07T13:29:24Z</time>
      </trkpt>
      <trkpt lat="44.43336" lon="5.56443">
        <ele>1032.8</ele>
        <time>2021-09-07T13:29:25Z</time>
      </trkpt>
      <trkpt lat="44.43336" lon="5.56445">
        <ele>1032.9</ele>
        <time>2021-09-07T13:29:26Z</time>
      </trkpt>
      <trkpt lat="44.43336" lon="5.56448">
        <ele>1033</ele>
        <time>2021-09-07T13:29:27Z</time>
      </trkpt>
      <trkpt lat="44.43336" lon="5.56451">
        <ele>1033.2</ele>
        <time>2021-09-07T13:29:28Z</time>
      </trkpt>
      <trkpt lat="44.43336" lon="5.56452">
        <ele>1033.3</ele>
        <time>2021-09-07T13:29:29Z</time>
      </trkpt>
      <trkpt lat="44.43336" lon="5.56453">
        <ele>1033.3</ele>
        <time>2021-09-07T13:29:30Z</time>
      </trkpt>
      <trkpt lat="44.43335" lon="5.56454">
        <ele>1033.4</ele>
        <time>2021-09-07T13:29:31Z</time>
      </trkpt>
      <trkpt lat="44.43334" lon="5.56455">
        <ele>1033.5</ele>
        <time>2021-09-07T13:29:32Z</time>
      </trkpt>
      <trkpt lat="44.43333" lon="5.56456">
        <ele>1033.6</ele>
        <time>2021-09-07T13:29:33Z</time>
      </trkpt>
      <trkpt lat="44.43333" lon="5.56457">
        <ele>1033.6</ele>
        <time>2021-09-07T13:29:34Z</time>
      </trkpt>
      <trkpt lat="44.43332" lon="5.56457">
        <ele>1033.7</ele>
        <time>2021-09-07T13:29:35Z</time>
      </trkpt>
      <trkpt lat="44.43331" lon="5.56457">
        <ele>1033.8</ele>
        <time>2021-09-07T13:29:36Z</time>
      </trkpt>
      <trkpt lat="44.43331" lon="5.56457">
        <ele>1033.8</ele>
        <time>2021-09-07T13:29:37Z</time>
      </trkpt>
      <trkpt lat="44.43331" lon="5.56457">
        <ele>1033.8</ele>
        <time>2021-09-07T13:29:38Z</time>
      </trkpt>
      <trkpt lat="44.43331" lon="5.56457">
        <ele>1033.8</ele>
        <time>2021-09-07T13:29:39Z</time>
      </trkpt>
      <trkpt lat="44.4333" lon="5.56457">
        <ele>1033.9</ele>
        <time>2021-09-07T13:29:40Z</time>
      </trkpt>
      <trkpt lat="44.4333" lon="5.56457">
        <ele>1033.9</ele>
        <time>2021-09-07T13:29:41Z</time>
      </trkpt>
      <trkpt lat="44.4333" lon="5.56457">
        <ele>1033.9</ele>
        <time>2021-09-07T13:29:42Z</time>
      </trkpt>
      <trkpt lat="44.4333" lon="5.56457">
        <ele>1033.9</ele>
        <time>2021-09-07T13:29:43Z</time>
      </trkpt>
      <trkpt lat="44.43329" lon="5.56459">
        <ele>1034</ele>
        <time>2021-09-07T13:29:44Z</time>
      </trkpt>
      <trkpt lat="44.43329" lon="5.5646">
        <ele>1034</ele>
        <time>2021-09-07T13:29:45Z</time>
      </trkpt>
      <trkpt lat="44.43328" lon="5.56462">
        <ele>1034.2</ele>
        <time>2021-09-07T13:29:46Z</time>
      </trkpt>
      <trkpt lat="44.43328" lon="5.56464">
        <ele>1034.3</ele>
        <time>2021-09-07T13:29:47Z</time>
      </trkpt>
      <trkpt lat="44.43328" lon="5.56465">
        <ele>1034.3</ele>
        <time>2021-09-07T13:29:48Z</time>
      </trkpt>
      <trkpt lat="44.43328" lon="5.56466">
        <ele>1034.4</ele>
        <time>2021-09-07T13:29:49Z</time>
      </trkpt>
      <trkpt lat="44.43328" lon="5.56468">
        <ele>1034.6</ele>
        <time>2021-09-07T13:29:50Z</time>
      </trkpt>
      <trkpt lat="44.4333" lon="5.56472">
        <ele>1035.1</ele>
        <time>2021-09-07T13:29:51Z</time>
      </trkpt>
      <trkpt lat="44.43331" lon="5.56476">
        <ele>1035.5</ele>
        <time>2021-09-07T13:29:52Z</time>
      </trkpt>
      <trkpt lat="44.43332" lon="5.56478">
        <ele>1035.7</ele>
        <time>2021-09-07T13:29:53Z</time>
      </trkpt>
      <trkpt lat="44.43333" lon="5.5648">
        <ele>1035.9</ele>
        <time>2021-09-07T13:29:54Z</time>
      </trkpt>
      <trkpt lat="44.43334" lon="5.56483">
        <ele>1036.3</ele>
        <time>2021-09-07T13:29:55Z</time>
      </trkpt>
      <trkpt lat="44.43336" lon="5.56484">
        <ele>1036.5</ele>
        <time>2021-09-07T13:29:56Z</time>
      </trkpt>
      <trkpt lat="44.43337" lon="5.56484">
        <ele>1036.7</ele>
        <time>2021-09-07T13:29:57Z</time>
      </trkpt>
      <trkpt lat="44.43341" lon="5.56485">
        <ele>1037.3</ele>
        <time>2021-09-07T13:29:58Z</time>
      </trkpt>
      <trkpt lat="44.43344" lon="5.56486">
        <ele>1037.7</ele>
        <time>2021-09-07T13:29:59Z</time>
      </trkpt>
      <trkpt lat="44.43345" lon="5.56487">
        <ele>1037.8</ele>
        <time>2021-09-07T13:30:00Z</time>
      </trkpt>
      <trkpt lat="44.43346" lon="5.56487">
        <ele>1038</ele>
        <time>2021-09-07T13:30:01Z</time>
      </trkpt>
      <trkpt lat="44.43347" lon="5.56488">
        <ele>1038.1</ele>
        <time>2021-09-07T13:30:02Z</time>
      </trkpt>
      <trkpt lat="44.43348" lon="5.56489">
        <ele>1038.3</ele>
        <time>2021-09-07T13:30:03Z</time>
      </trkpt>
      <trkpt lat="44.43349" lon="5.5649">
        <ele>1038.5</ele>
        <time>2021-09-07T13:30:04Z</time>
      </trkpt>
      <trkpt lat="44.4335" lon="5.56492">
        <ele>1038.7</ele>
        <time>2021-09-07T13:30:05Z</time>
      </trkpt>
      <trkpt lat="44.43351" lon="5.56493">
        <ele>1038.9</ele>
        <time>2021-09-07T13:30:06Z</time>
      </trkpt>
      <trkpt lat="44.43351" lon="5.56495">
        <ele>1039</ele>
        <time>2021-09-07T13:30:07Z</time>
      </trkpt>
      <trkpt lat="44.4335" lon="5.56496">
        <ele>1039.2</ele>
        <time>2021-09-07T13:30:08Z</time>
      </trkpt>
      <trkpt lat="44.43349" lon="5.56496">
        <ele>1039.3</ele>
        <time>2021-09-07T13:30:09Z</time>
      </trkpt>
      <trkpt lat="44.43349" lon="5.56496">
        <ele>1039.4</ele>
        <time>2021-09-07T13:30:10Z</time>
      </trkpt>
      <trkpt lat="44.4335" lon="5.56497">
        <ele>1039.4</ele>
        <time>2021-09-07T13:30:11Z</time>
      </trkpt>
      <trkpt lat="44.4335" lon="5.56497">
        <ele>1039.5</ele>
        <time>2021-09-07T13:30:12Z</time>
      </trkpt>
      <trkpt lat="44.43351" lon="5.56499">
        <ele>1039.7</ele>
        <time>2021-09-07T13:30:13Z</time>
      </trkpt>
      <trkpt lat="44.43353" lon="5.56501">
        <ele>1040.1</ele>
        <time>2021-09-07T13:30:14Z</time>
      </trkpt>
      <trkpt lat="44.43354" lon="5.56503">
        <ele>1040.3</ele>
        <time>2021-09-07T13:30:15Z</time>
      </trkpt>
      <trkpt lat="44.43355" lon="5.56506">
        <ele>1040.6</ele>
        <time>2021-09-07T13:30:16Z</time>
      </trkpt>
      <trkpt lat="44.43356" lon="5.56509">
        <ele>1041</ele>
        <time>2021-09-07T13:30:17Z</time>
      </trkpt>
      <trkpt lat="44.43356" lon="5.5651">
        <ele>1041.1</ele>
        <time>2021-09-07T13:30:18Z</time>
      </trkpt>
      <trkpt lat="44.43356" lon="5.56511">
        <ele>1041.2</ele>
        <time>2021-09-07T13:30:19Z</time>
      </trkpt>
      <trkpt lat="44.43356" lon="5.56514">
        <ele>1041.4</ele>
        <time>2021-09-07T13:30:20Z</time>
      </trkpt>
      <trkpt lat="44.43356" lon="5.56515">
        <ele>1041.5</ele>
        <time>2021-09-07T13:30:21Z</time>
      </trkpt>
      <trkpt lat="44.43357" lon="5.56516">
        <ele>1041.7</ele>
        <time>2021-09-07T13:30:22Z</time>
      </trkpt>
      <trkpt lat="44.43357" lon="5.56517">
        <ele>1041.8</ele>
        <time>2021-09-07T13:30:23Z</time>
      </trkpt>
      <trkpt lat="44.43357" lon="5.56517">
        <ele>1041.8</ele>
        <time>2021-09-07T13:30:24Z</time>
      </trkpt>
      <trkpt lat="44.43357" lon="5.56517">
        <ele>1041.8</ele>
        <time>2021-09-07T13:30:25Z</time>
      </trkpt>
      <trkpt lat="44.43357" lon="5.56517">
        <ele>1041.8</ele>
        <time>2021-09-07T13:30:26Z</time>
      </trkpt>
      <trkpt lat="44.43357" lon="5.56518">
        <ele>1041.9</ele>
        <time>2021-09-07T13:30:27Z</time>
      </trkpt>
      <trkpt lat="44.43357" lon="5.56518">
        <ele>1041.9</ele>
        <time>2021-09-07T13:30:28Z</time>
      </trkpt>
      <trkpt lat="44.43357" lon="5.56518">
        <ele>1041.9</ele>
        <time>2021-09-07T13:30:29Z</time>
      </trkpt>
      <trkpt lat="44.43357" lon="5.56518">
        <ele>1041.9</ele>
        <time>2021-09-07T13:30:30Z</time>
      </trkpt>
      <trkpt lat="44.43357" lon="5.56518">
        <ele>1041.9</ele>
        <time>2021-09-07T13:30:31Z</time>
      </trkpt>
      <trkpt lat="44.43357" lon="5.56518">
        <ele>1041.9</ele>
        <time>2021-09-07T13:30:32Z</time>
      </trkpt>
      <trkpt lat="44.43357" lon="5.56518">
        <ele>1041.9</ele>
        <time>2021-09-07T13:30:33Z</time>
      </trkpt>
      <trkpt lat="44.43357" lon="5.56518">
        <ele>1041.9</ele>
        <time>2021-09-07T13:30:34Z</time>
      </trkpt>
      <trkpt lat="44.43357" lon="5.56519">
        <ele>1042</ele>
        <time>2021-09-07T13:30:35Z</time>
      </trkpt>
      <trkpt lat="44.43357" lon="5.5652">
        <ele>1042.1</ele>
        <time>2021-09-07T13:30:36Z</time>
      </trkpt>
      <trkpt lat="44.43357" lon="5.56522">
        <ele>1042.3</ele>
        <time>2021-09-07T13:30:37Z</time>
      </trkpt>
      <trkpt lat="44.43357" lon="5.56526">
        <ele>1042.7</ele>
        <time>2021-09-07T13:30:38Z</time>
      </trkpt>
      <trkpt lat="44.43357" lon="5.56527">
        <ele>1042.8</ele>
        <time>2021-09-07T13:30:39Z</time>
      </trkpt>
      <trkpt lat="44.43356" lon="5.56528">
        <ele>1042.9</ele>
        <time>2021-09-07T13:30:40Z</time>
      </trkpt>
      <trkpt lat="44.43356" lon="5.5653">
        <ele>1043.1</ele>
        <time>2021-09-07T13:30:41Z</time>
      </trkpt>
      <trkpt lat="44.43356" lon="5.56531">
        <ele>1043.2</ele>
        <time>2021-09-07T13:30:42Z</time>
      </trkpt>
      <trkpt lat="44.43356" lon="5.56531">
        <ele>1043.2</ele>
        <time>2021-09-07T13:30:43Z</time>
      </trkpt>
      <trkpt lat="44.43356" lon="5.56532">
        <ele>1043.3</ele>
        <time>2021-09-07T13:30:44Z</time>
      </trkpt>
      <trkpt lat="44.43356" lon="5.56532">
        <ele>1043.3</ele>
        <time>2021-09-07T13:30:45Z</time>
      </trkpt>
      <trkpt lat="44.43356" lon="5.56532">
        <ele>1043.3</ele>
        <time>2021-09-07T13:30:46Z</time>
      </trkpt>
      <trkpt lat="44.43356" lon="5.56533">
        <ele>1043.3</ele>
        <time>2021-09-07T13:30:47Z</time>
      </trkpt>
      <trkpt lat="44.43356" lon="5.56533">
        <ele>1043.3</ele>
        <time>2021-09-07T13:30:48Z</time>
      </trkpt>
      <trkpt lat="44.43356" lon="5.56534">
        <ele>1043.4</ele>
        <time>2021-09-07T13:30:49Z</time>
      </trkpt>
      <trkpt lat="44.43355" lon="5.56539">
        <ele>1043.9</ele>
        <time>2021-09-07T13:30:50Z</time>
      </trkpt>
      <trkpt lat="44.43355" lon="5.5654">
        <ele>1043.9</ele>
        <time>2021-09-07T13:30:51Z</time>
      </trkpt>
      <trkpt lat="44.43355" lon="5.5654">
        <ele>1044</ele>
        <time>2021-09-07T13:30:52Z</time>
      </trkpt>
      <trkpt lat="44.43355" lon="5.56542">
        <ele>1044.2</ele>
        <time>2021-09-07T13:30:53Z</time>
      </trkpt>
      <trkpt lat="44.43355" lon="5.56544">
        <ele>1044.3</ele>
        <time>2021-09-07T13:30:54Z</time>
      </trkpt>
      <trkpt lat="44.43355" lon="5.56545">
        <ele>1044.4</ele>
        <time>2021-09-07T13:30:55Z</time>
      </trkpt>
      <trkpt lat="44.43355" lon="5.56546">
        <ele>1044.5</ele>
        <time>2021-09-07T13:30:56Z</time>
      </trkpt>
      <trkpt lat="44.43355" lon="5.56549">
        <ele>1044.8</ele>
        <time>2021-09-07T13:30:57Z</time>
      </trkpt>
      <trkpt lat="44.43355" lon="5.56552">
        <ele>1045</ele>
        <time>2021-09-07T13:30:58Z</time>
      </trkpt>
      <trkpt lat="44.43355" lon="5.56554">
        <ele>1045.2</ele>
        <time>2021-09-07T13:30:59Z</time>
      </trkpt>
      <trkpt lat="44.43355" lon="5.56555">
        <ele>1045.3</ele>
        <time>2021-09-07T13:31:00Z</time>
      </trkpt>
      <trkpt lat="44.43355" lon="5.56558">
        <ele>1045.6</ele>
        <time>2021-09-07T13:31:01Z</time>
      </trkpt>
      <trkpt lat="44.43355" lon="5.56559">
        <ele>1045.6</ele>
        <time>2021-09-07T13:31:02Z</time>
      </trkpt>
      <trkpt lat="44.43355" lon="5.56559">
        <ele>1045.7</ele>
        <time>2021-09-07T13:31:03Z</time>
      </trkpt>
      <trkpt lat="44.43356" lon="5.56562">
        <ele>1046</ele>
        <time>2021-09-07T13:31:04Z</time>
      </trkpt>
      <trkpt lat="44.43356" lon="5.56563">
        <ele>1046</ele>
        <time>2021-09-07T13:31:05Z</time>
      </trkpt>
      <trkpt lat="44.43356" lon="5.56563">
        <ele>1046.1</ele>
        <time>2021-09-07T13:31:06Z</time>
      </trkpt>
      <trkpt lat="44.43356" lon="5.56565">
        <ele>1046.2</ele>
        <time>2021-09-07T13:31:07Z</time>
      </trkpt>
      <trkpt lat="44.43357" lon="5.56566">
        <ele>1046.4</ele>
        <time>2021-09-07T13:31:08Z</time>
      </trkpt>
      <trkpt lat="44.43357" lon="5.56567">
        <ele>1046.5</ele>
        <time>2021-09-07T13:31:09Z</time>
      </trkpt>
      <trkpt lat="44.43357" lon="5.56567">
        <ele>1046.5</ele>
        <time>2021-09-07T13:31:10Z</time>
      </trkpt>
      <trkpt lat="44.43357" lon="5.56567">
        <ele>1046.5</ele>
        <time>2021-09-07T13:31:11Z</time>
      </trkpt>
      <trkpt lat="44.43357" lon="5.56567">
        <ele>1046.5</ele>
        <time>2021-09-07T13:31:12Z</time>
      </trkpt>
      <trkpt lat="44.43357" lon="5.56568">
        <ele>1046.6</ele>
        <time>2021-09-07T13:31:13Z</time>
      </trkpt>
      <trkpt lat="44.43357" lon="5.56569">
        <ele>1046.7</ele>
        <time>2021-09-07T13:31:14Z</time>
      </trkpt>
      <trkpt lat="44.43358" lon="5.56571">
        <ele>1046.9</ele>
        <time>2021-09-07T13:31:15Z</time>
      </trkpt>
      <trkpt lat="44.43358" lon="5.56574">
        <ele>1047.2</ele>
        <time>2021-09-07T13:31:16Z</time>
      </trkpt>
      <trkpt lat="44.43358" lon="5.56576">
        <ele>1047.4</ele>
        <time>2021-09-07T13:31:17Z</time>
      </trkpt>
      <trkpt lat="44.43357" lon="5.56577">
        <ele>1047.5</ele>
        <time>2021-09-07T13:31:18Z</time>
      </trkpt>
      <trkpt lat="44.43357" lon="5.56579">
        <ele>1047.7</ele>
        <time>2021-09-07T13:31:19Z</time>
      </trkpt>
      <trkpt lat="44.43357" lon="5.56581">
        <ele>1047.9</ele>
        <time>2021-09-07T13:31:20Z</time>
      </trkpt>
      <trkpt lat="44.43357" lon="5.56582">
        <ele>1048</ele>
        <time>2021-09-07T13:31:21Z</time>
      </trkpt>
      <trkpt lat="44.43357" lon="5.56584">
        <ele>1048.2</ele>
        <time>2021-09-07T13:31:22Z</time>
      </trkpt>
      <trkpt lat="44.43357" lon="5.56584">
        <ele>1048.2</ele>
        <time>2021-09-07T13:31:23Z</time>
      </trkpt>
      <trkpt lat="44.43357" lon="5.56585">
        <ele>1048.2</ele>
        <time>2021-09-07T13:31:24Z</time>
      </trkpt>
      <trkpt lat="44.43357" lon="5.56585">
        <ele>1048.3</ele>
        <time>2021-09-07T13:31:25Z</time>
      </trkpt>
      <trkpt lat="44.43357" lon="5.56585">
        <ele>1048.3</ele>
        <time>2021-09-07T13:31:26Z</time>
      </trkpt>
      <trkpt lat="44.43357" lon="5.56586">
        <ele>1048.4</ele>
        <time>2021-09-07T13:31:27Z</time>
      </trkpt>
      <trkpt lat="44.43357" lon="5.56586">
        <ele>1048.4</ele>
        <time>2021-09-07T13:31:28Z</time>
      </trkpt>
      <trkpt lat="44.43357" lon="5.56587">
        <ele>1048.4</ele>
        <time>2021-09-07T13:31:29Z</time>
      </trkpt>
      <trkpt lat="44.43358" lon="5.5659">
        <ele>1048.7</ele>
        <time>2021-09-07T13:31:30Z</time>
      </trkpt>
      <trkpt lat="44.43359" lon="5.56592">
        <ele>1049</ele>
        <time>2021-09-07T13:31:31Z</time>
      </trkpt>
      <trkpt lat="44.43359" lon="5.56594">
        <ele>1049.2</ele>
        <time>2021-09-07T13:31:32Z</time>
      </trkpt>
      <trkpt lat="44.4336" lon="5.56596">
        <ele>1049.4</ele>
        <time>2021-09-07T13:31:33Z</time>
      </trkpt>
      <trkpt lat="44.4336" lon="5.56598">
        <ele>1049.5</ele>
        <time>2021-09-07T13:31:34Z</time>
      </trkpt>
      <trkpt lat="44.43361" lon="5.56602">
        <ele>1049.9</ele>
        <time>2021-09-07T13:31:35Z</time>
      </trkpt>
      <trkpt lat="44.43362" lon="5.56604">
        <ele>1050.2</ele>
        <time>2021-09-07T13:31:36Z</time>
      </trkpt>
      <trkpt lat="44.43362" lon="5.56606">
        <ele>1050.3</ele>
        <time>2021-09-07T13:31:37Z</time>
      </trkpt>
      <trkpt lat="44.43362" lon="5.56607">
        <ele>1050.4</ele>
        <time>2021-09-07T13:31:38Z</time>
      </trkpt>
      <trkpt lat="44.43363" lon="5.56609">
        <ele>1050.7</ele>
        <time>2021-09-07T13:31:39Z</time>
      </trkpt>
      <trkpt lat="44.43363" lon="5.56612">
        <ele>1050.9</ele>
        <time>2021-09-07T13:31:40Z</time>
      </trkpt>
      <trkpt lat="44.43363" lon="5.56613">
        <ele>1051</ele>
        <time>2021-09-07T13:31:41Z</time>
      </trkpt>
      <trkpt lat="44.43364" lon="5.56615">
        <ele>1051.2</ele>
        <time>2021-09-07T13:31:42Z</time>
      </trkpt>
      <trkpt lat="44.43364" lon="5.56616">
        <ele>1051.3</ele>
        <time>2021-09-07T13:31:43Z</time>
      </trkpt>
      <trkpt lat="44.43364" lon="5.56617">
        <ele>1051.4</ele>
        <time>2021-09-07T13:31:44Z</time>
      </trkpt>
      <trkpt lat="44.43365" lon="5.56619">
        <ele>1051.6</ele>
        <time>2021-09-07T13:31:45Z</time>
      </trkpt>
      <trkpt lat="44.43365" lon="5.5662">
        <ele>1051.8</ele>
        <time>2021-09-07T13:31:46Z</time>
      </trkpt>
      <trkpt lat="44.43366" lon="5.56622">
        <ele>1051.9</ele>
        <time>2021-09-07T13:31:47Z</time>
      </trkpt>
      <trkpt lat="44.43366" lon="5.56623">
        <ele>1052.1</ele>
        <time>2021-09-07T13:31:48Z</time>
      </trkpt>
      <trkpt lat="44.43367" lon="5.56626">
        <ele>1052.4</ele>
        <time>2021-09-07T13:31:49Z</time>
      </trkpt>
      <trkpt lat="44.43367" lon="5.56626">
        <ele>1052.4</ele>
        <time>2021-09-07T13:31:50Z</time>
      </trkpt>
      <trkpt lat="44.43367" lon="5.56626">
        <ele>1052.4</ele>
        <time>2021-09-07T13:31:51Z</time>
      </trkpt>
      <trkpt lat="44.43368" lon="5.56627">
        <ele>1052.5</ele>
        <time>2021-09-07T13:31:52Z</time>
      </trkpt>
      <trkpt lat="44.43368" lon="5.56627">
        <ele>1052.6</ele>
        <time>2021-09-07T13:31:53Z</time>
      </trkpt>
      <trkpt lat="44.43369" lon="5.56628">
        <ele>1052.8</ele>
        <time>2021-09-07T13:31:54Z</time>
      </trkpt>
      <trkpt lat="44.4337" lon="5.56628">
        <ele>1053</ele>
        <time>2021-09-07T13:31:55Z</time>
      </trkpt>
      <trkpt lat="44.43371" lon="5.56629">
        <ele>1053.2</ele>
        <time>2021-09-07T13:31:56Z</time>
      </trkpt>
      <trkpt lat="44.43372" lon="5.5663">
        <ele>1053.3</ele>
        <time>2021-09-07T13:31:57Z</time>
      </trkpt>
      <trkpt lat="44.43372" lon="5.56631">
        <ele>1053.5</ele>
        <time>2021-09-07T13:31:58Z</time>
      </trkpt>
      <trkpt lat="44.43373" lon="5.56633">
        <ele>1053.8</ele>
        <time>2021-09-07T13:31:59Z</time>
      </trkpt>
      <trkpt lat="44.43374" lon="5.56635">
        <ele>1054</ele>
        <time>2021-09-07T13:32:00Z</time>
      </trkpt>
      <trkpt lat="44.43375" lon="5.56637">
        <ele>1054.3</ele>
        <time>2021-09-07T13:32:01Z</time>
      </trkpt>
      <trkpt lat="44.43376" lon="5.56639">
        <ele>1054.6</ele>
        <time>2021-09-07T13:32:02Z</time>
      </trkpt>
      <trkpt lat="44.43376" lon="5.5664">
        <ele>1054.7</ele>
        <time>2021-09-07T13:32:03Z</time>
      </trkpt>
      <trkpt lat="44.43378" lon="5.56643">
        <ele>1055.2</ele>
        <time>2021-09-07T13:32:04Z</time>
      </trkpt>
      <trkpt lat="44.43379" lon="5.56646">
        <ele>1055.5</ele>
        <time>2021-09-07T13:32:05Z</time>
      </trkpt>
      <trkpt lat="44.4338" lon="5.56647">
        <ele>1055.7</ele>
        <time>2021-09-07T13:32:06Z</time>
      </trkpt>
      <trkpt lat="44.4338" lon="5.56648">
        <ele>1055.8</ele>
        <time>2021-09-07T13:32:07Z</time>
      </trkpt>
      <trkpt lat="44.4338" lon="5.56649">
        <ele>1055.9</ele>
        <time>2021-09-07T13:32:08Z</time>
      </trkpt>
      <trkpt lat="44.43381" lon="5.5665">
        <ele>1056.1</ele>
        <time>2021-09-07T13:32:09Z</time>
      </trkpt>
      <trkpt lat="44.43381" lon="5.56651">
        <ele>1056.3</ele>
        <time>2021-09-07T13:32:10Z</time>
      </trkpt>
      <trkpt lat="44.43381" lon="5.56651">
        <ele>1056.3</ele>
        <time>2021-09-07T13:32:11Z</time>
      </trkpt>
      <trkpt lat="44.43381" lon="5.56651">
        <ele>1056.3</ele>
        <time>2021-09-07T13:32:12Z</time>
      </trkpt>
      <trkpt lat="44.43381" lon="5.56653">
        <ele>1056.5</ele>
        <time>2021-09-07T13:32:13Z</time>
      </trkpt>
      <trkpt lat="44.43381" lon="5.56655">
        <ele>1056.8</ele>
        <time>2021-09-07T13:32:14Z</time>
      </trkpt>
      <trkpt lat="44.43381" lon="5.56657">
        <ele>1057</ele>
        <time>2021-09-07T13:32:15Z</time>
      </trkpt>
      <trkpt lat="44.43381" lon="5.56658">
        <ele>1057.1</ele>
        <time>2021-09-07T13:32:16Z</time>
      </trkpt>
      <trkpt lat="44.43381" lon="5.56659">
        <ele>1057.3</ele>
        <time>2021-09-07T13:32:17Z</time>
      </trkpt>
      <trkpt lat="44.43381" lon="5.56661">
        <ele>1057.5</ele>
        <time>2021-09-07T13:32:18Z</time>
      </trkpt>
      <trkpt lat="44.43381" lon="5.56662">
        <ele>1057.7</ele>
        <time>2021-09-07T13:32:19Z</time>
      </trkpt>
      <trkpt lat="44.4338" lon="5.56663">
        <ele>1057.9</ele>
        <time>2021-09-07T13:32:20Z</time>
      </trkpt>
      <trkpt lat="44.4338" lon="5.56665">
        <ele>1058.2</ele>
        <time>2021-09-07T13:32:21Z</time>
      </trkpt>
      <trkpt lat="44.4338" lon="5.56665">
        <ele>1058.2</ele>
        <time>2021-09-07T13:32:22Z</time>
      </trkpt>
      <trkpt lat="44.4338" lon="5.56666">
        <ele>1058.2</ele>
        <time>2021-09-07T13:32:23Z</time>
      </trkpt>
      <trkpt lat="44.4338" lon="5.56666">
        <ele>1058.3</ele>
        <time>2021-09-07T13:32:24Z</time>
      </trkpt>
      <trkpt lat="44.4338" lon="5.56666">
        <ele>1058.3</ele>
        <time>2021-09-07T13:32:25Z</time>
      </trkpt>
      <trkpt lat="44.4338" lon="5.56666">
        <ele>1058.3</ele>
        <time>2021-09-07T13:32:26Z</time>
      </trkpt>
      <trkpt lat="44.43379" lon="5.56667">
        <ele>1058.5</ele>
        <time>2021-09-07T13:32:27Z</time>
      </trkpt>
      <trkpt lat="44.43379" lon="5.56667">
        <ele>1058.5</ele>
        <time>2021-09-07T13:32:28Z</time>
      </trkpt>
      <trkpt lat="44.43379" lon="5.56667">
        <ele>1058.5</ele>
        <time>2021-09-07T13:32:29Z</time>
      </trkpt>
      <trkpt lat="44.43379" lon="5.56667">
        <ele>1058.5</ele>
        <time>2021-09-07T13:32:30Z</time>
      </trkpt>
      <trkpt lat="44.43379" lon="5.56667">
        <ele>1058.5</ele>
        <time>2021-09-07T13:32:31Z</time>
      </trkpt>
      <trkpt lat="44.43379" lon="5.56667">
        <ele>1058.5</ele>
        <time>2021-09-07T13:32:32Z</time>
      </trkpt>
      <trkpt lat="44.43379" lon="5.56668">
        <ele>1058.7</ele>
        <time>2021-09-07T13:32:33Z</time>
      </trkpt>
      <trkpt lat="44.43379" lon="5.56669">
        <ele>1058.8</ele>
        <time>2021-09-07T13:32:34Z</time>
      </trkpt>
      <trkpt lat="44.43378" lon="5.5667">
        <ele>1059</ele>
        <time>2021-09-07T13:32:35Z</time>
      </trkpt>
      <trkpt lat="44.43378" lon="5.56673">
        <ele>1059.4</ele>
        <time>2021-09-07T13:32:36Z</time>
      </trkpt>
      <trkpt lat="44.43378" lon="5.56675">
        <ele>1059.6</ele>
        <time>2021-09-07T13:32:37Z</time>
      </trkpt>
      <trkpt lat="44.43377" lon="5.56676">
        <ele>1059.9</ele>
        <time>2021-09-07T13:32:38Z</time>
      </trkpt>
      <trkpt lat="44.43376" lon="5.56678">
        <ele>1060.2</ele>
        <time>2021-09-07T13:32:39Z</time>
      </trkpt>
      <trkpt lat="44.43376" lon="5.56679">
        <ele>1060.3</ele>
        <time>2021-09-07T13:32:40Z</time>
      </trkpt>
      <trkpt lat="44.43376" lon="5.5668">
        <ele>1060.5</ele>
        <time>2021-09-07T13:32:41Z</time>
      </trkpt>
      <trkpt lat="44.43375" lon="5.56681">
        <ele>1060.7</ele>
        <time>2021-09-07T13:32:42Z</time>
      </trkpt>
      <trkpt lat="44.43374" lon="5.56682">
        <ele>1060.9</ele>
        <time>2021-09-07T13:32:43Z</time>
      </trkpt>
      <trkpt lat="44.43373" lon="5.56684">
        <ele>1061.1</ele>
        <time>2021-09-07T13:32:44Z</time>
      </trkpt>
      <trkpt lat="44.43372" lon="5.56685">
        <ele>1061.4</ele>
        <time>2021-09-07T13:32:45Z</time>
      </trkpt>
      <trkpt lat="44.43371" lon="5.56686">
        <ele>1061.6</ele>
        <time>2021-09-07T13:32:46Z</time>
      </trkpt>
      <trkpt lat="44.43371" lon="5.56687">
        <ele>1061.7</ele>
        <time>2021-09-07T13:32:47Z</time>
      </trkpt>
      <trkpt lat="44.4337" lon="5.56687">
        <ele>1061.8</ele>
        <time>2021-09-07T13:32:48Z</time>
      </trkpt>
      <trkpt lat="44.43369" lon="5.56688">
        <ele>1062</ele>
        <time>2021-09-07T13:32:49Z</time>
      </trkpt>
      <trkpt lat="44.43369" lon="5.56688">
        <ele>1062.1</ele>
        <time>2021-09-07T13:32:50Z</time>
      </trkpt>
      <trkpt lat="44.43368" lon="5.56688">
        <ele>1062.2</ele>
        <time>2021-09-07T13:32:51Z</time>
      </trkpt>
      <trkpt lat="44.43367" lon="5.56688">
        <ele>1062.4</ele>
        <time>2021-09-07T13:32:52Z</time>
      </trkpt>
      <trkpt lat="44.43367" lon="5.56689">
        <ele>1062.4</ele>
        <time>2021-09-07T13:32:53Z</time>
      </trkpt>
      <trkpt lat="44.43367" lon="5.56689">
        <ele>1062.5</ele>
        <time>2021-09-07T13:32:54Z</time>
      </trkpt>
      <trkpt lat="44.43367" lon="5.56689">
        <ele>1062.5</ele>
        <time>2021-09-07T13:32:55Z</time>
      </trkpt>
      <trkpt lat="44.43367" lon="5.56689">
        <ele>1062.5</ele>
        <time>2021-09-07T13:32:56Z</time>
      </trkpt>
      <trkpt lat="44.43367" lon="5.56689">
        <ele>1062.5</ele>
        <time>2021-09-07T13:32:57Z</time>
      </trkpt>
      <trkpt lat="44.43366" lon="5.5669">
        <ele>1062.7</ele>
        <time>2021-09-07T13:32:58Z</time>
      </trkpt>
      <trkpt lat="44.43366" lon="5.56691">
        <ele>1062.8</ele>
        <time>2021-09-07T13:32:59Z</time>
      </trkpt>
      <trkpt lat="44.43366" lon="5.56692">
        <ele>1062.9</ele>
        <time>2021-09-07T13:33:00Z</time>
      </trkpt>
      <trkpt lat="44.43365" lon="5.56694">
        <ele>1063.2</ele>
        <time>2021-09-07T13:33:01Z</time>
      </trkpt>
      <trkpt lat="44.43364" lon="5.56696">
        <ele>1063.5</ele>
        <time>2021-09-07T13:33:02Z</time>
      </trkpt>
      <trkpt lat="44.43363" lon="5.56698">
        <ele>1063.7</ele>
        <time>2021-09-07T13:33:03Z</time>
      </trkpt>
      <trkpt lat="44.43362" lon="5.567">
        <ele>1064</ele>
        <time>2021-09-07T13:33:04Z</time>
      </trkpt>
      <trkpt lat="44.43362" lon="5.56701">
        <ele>1064.1</ele>
        <time>2021-09-07T13:33:05Z</time>
      </trkpt>
      <trkpt lat="44.43362" lon="5.56702">
        <ele>1064.2</ele>
        <time>2021-09-07T13:33:06Z</time>
      </trkpt>
      <trkpt lat="44.43362" lon="5.56703">
        <ele>1064.3</ele>
        <time>2021-09-07T13:33:07Z</time>
      </trkpt>
      <trkpt lat="44.43361" lon="5.56703">
        <ele>1064.4</ele>
        <time>2021-09-07T13:33:08Z</time>
      </trkpt>
      <trkpt lat="44.43361" lon="5.56704">
        <ele>1064.5</ele>
        <time>2021-09-07T13:33:09Z</time>
      </trkpt>
      <trkpt lat="44.43361" lon="5.56704">
        <ele>1064.5</ele>
        <time>2021-09-07T13:33:10Z</time>
      </trkpt>
      <trkpt lat="44.43361" lon="5.56704">
        <ele>1064.5</ele>
        <time>2021-09-07T13:33:11Z</time>
      </trkpt>
      <trkpt lat="44.4336" lon="5.56706">
        <ele>1064.7</ele>
        <time>2021-09-07T13:33:12Z</time>
      </trkpt>
      <trkpt lat="44.43359" lon="5.56709">
        <ele>1065.1</ele>
        <time>2021-09-07T13:33:13Z</time>
      </trkpt>
      <trkpt lat="44.43357" lon="5.56713">
        <ele>1065.6</ele>
        <time>2021-09-07T13:33:14Z</time>
      </trkpt>
      <trkpt lat="44.43357" lon="5.56715">
        <ele>1065.8</ele>
        <time>2021-09-07T13:33:15Z</time>
      </trkpt>
      <trkpt lat="44.43356" lon="5.56717">
        <ele>1066</ele>
        <time>2021-09-07T13:33:16Z</time>
      </trkpt>
      <trkpt lat="44.43356" lon="5.56718">
        <ele>1066.1</ele>
        <time>2021-09-07T13:33:17Z</time>
      </trkpt>
      <trkpt lat="44.43356" lon="5.56719">
        <ele>1066.2</ele>
        <time>2021-09-07T13:33:18Z</time>
      </trkpt>
      <trkpt lat="44.43356" lon="5.56719">
        <ele>1066.2</ele>
        <time>2021-09-07T13:33:19Z</time>
      </trkpt>
      <trkpt lat="44.43356" lon="5.56719">
        <ele>1066.2</ele>
        <time>2021-09-07T13:33:20Z</time>
      </trkpt>
      <trkpt lat="44.43355" lon="5.5672">
        <ele>1066.4</ele>
        <time>2021-09-07T13:33:21Z</time>
      </trkpt>
      <trkpt lat="44.43355" lon="5.5672">
        <ele>1066.4</ele>
        <time>2021-09-07T13:33:22Z</time>
      </trkpt>
      <trkpt lat="44.43355" lon="5.5672">
        <ele>1066.4</ele>
        <time>2021-09-07T13:33:23Z</time>
      </trkpt>
      <trkpt lat="44.43355" lon="5.5672">
        <ele>1066.4</ele>
        <time>2021-09-07T13:33:24Z</time>
      </trkpt>
      <trkpt lat="44.43355" lon="5.56721">
        <ele>1066.5</ele>
        <time>2021-09-07T13:33:25Z</time>
      </trkpt>
      <trkpt lat="44.43355" lon="5.56721">
        <ele>1066.5</ele>
        <time>2021-09-07T13:33:26Z</time>
      </trkpt>
      <trkpt lat="44.43353" lon="5.56725">
        <ele>1067.1</ele>
        <time>2021-09-07T13:33:27Z</time>
      </trkpt>
      <trkpt lat="44.43353" lon="5.56727">
        <ele>1067.2</ele>
        <time>2021-09-07T13:33:28Z</time>
      </trkpt>
      <trkpt lat="44.43353" lon="5.56728">
        <ele>1067.4</ele>
        <time>2021-09-07T13:33:29Z</time>
      </trkpt>
      <trkpt lat="44.43352" lon="5.56731">
        <ele>1067.8</ele>
        <time>2021-09-07T13:33:30Z</time>
      </trkpt>
      <trkpt lat="44.43352" lon="5.56732">
        <ele>1067.9</ele>
        <time>2021-09-07T13:33:31Z</time>
      </trkpt>
      <trkpt lat="44.43351" lon="5.56734">
        <ele>1068.2</ele>
        <time>2021-09-07T13:33:32Z</time>
      </trkpt>
      <trkpt lat="44.43351" lon="5.56735">
        <ele>1068.3</ele>
        <time>2021-09-07T13:33:33Z</time>
      </trkpt>
      <trkpt lat="44.43351" lon="5.56735">
        <ele>1068.3</ele>
        <time>2021-09-07T13:33:34Z</time>
      </trkpt>
      <trkpt lat="44.43351" lon="5.56736">
        <ele>1068.5</ele>
        <time>2021-09-07T13:33:35Z</time>
      </trkpt>
      <trkpt lat="44.4335" lon="5.56736">
        <ele>1068.6</ele>
        <time>2021-09-07T13:33:36Z</time>
      </trkpt>
      <trkpt lat="44.4335" lon="5.56736">
        <ele>1068.6</ele>
        <time>2021-09-07T13:33:37Z</time>
      </trkpt>
      <trkpt lat="44.4335" lon="5.56737">
        <ele>1068.8</ele>
        <time>2021-09-07T13:33:38Z</time>
      </trkpt>
      <trkpt lat="44.4335" lon="5.56737">
        <ele>1068.8</ele>
        <time>2021-09-07T13:33:39Z</time>
      </trkpt>
      <trkpt lat="44.4335" lon="5.56737">
        <ele>1068.8</ele>
        <time>2021-09-07T13:33:40Z</time>
      </trkpt>
      <trkpt lat="44.4335" lon="5.5674">
        <ele>1069.1</ele>
        <time>2021-09-07T13:33:41Z</time>
      </trkpt>
      <trkpt lat="44.43351" lon="5.56741">
        <ele>1069.3</ele>
        <time>2021-09-07T13:33:42Z</time>
      </trkpt>
      <trkpt lat="44.43351" lon="5.56742">
        <ele>1069.4</ele>
        <time>2021-09-07T13:33:43Z</time>
      </trkpt>
      <trkpt lat="44.43351" lon="5.56745">
        <ele>1069.8</ele>
        <time>2021-09-07T13:33:44Z</time>
      </trkpt>
      <trkpt lat="44.43351" lon="5.56748">
        <ele>1070.2</ele>
        <time>2021-09-07T13:33:45Z</time>
      </trkpt>
      <trkpt lat="44.43352" lon="5.5675">
        <ele>1070.5</ele>
        <time>2021-09-07T13:33:46Z</time>
      </trkpt>
      <trkpt lat="44.43352" lon="5.56751">
        <ele>1070.6</ele>
        <time>2021-09-07T13:33:47Z</time>
      </trkpt>
      <trkpt lat="44.43352" lon="5.56751">
        <ele>1070.6</ele>
        <time>2021-09-07T13:33:48Z</time>
      </trkpt>
      <trkpt lat="44.43352" lon="5.56751">
        <ele>1070.6</ele>
        <time>2021-09-07T13:33:49Z</time>
      </trkpt>
      <trkpt lat="44.43352" lon="5.56752">
        <ele>1070.7</ele>
        <time>2021-09-07T13:33:50Z</time>
      </trkpt>
      <trkpt lat="44.43352" lon="5.56753">
        <ele>1070.9</ele>
        <time>2021-09-07T13:33:51Z</time>
      </trkpt>
      <trkpt lat="44.43352" lon="5.56753">
        <ele>1070.9</ele>
        <time>2021-09-07T13:33:52Z</time>
      </trkpt>
      <trkpt lat="44.43352" lon="5.56753">
        <ele>1070.9</ele>
        <time>2021-09-07T13:33:53Z</time>
      </trkpt>
      <trkpt lat="44.43352" lon="5.56753">
        <ele>1070.9</ele>
        <time>2021-09-07T13:33:54Z</time>
      </trkpt>
      <trkpt lat="44.43352" lon="5.56755">
        <ele>1071.1</ele>
        <time>2021-09-07T13:33:55Z</time>
      </trkpt>
      <trkpt lat="44.43352" lon="5.56759">
        <ele>1071.7</ele>
        <time>2021-09-07T13:33:56Z</time>
      </trkpt>
      <trkpt lat="44.43352" lon="5.56761">
        <ele>1071.9</ele>
        <time>2021-09-07T13:33:57Z</time>
      </trkpt>
      <trkpt lat="44.43351" lon="5.56762">
        <ele>1072.1</ele>
        <time>2021-09-07T13:33:58Z</time>
      </trkpt>
      <trkpt lat="44.43351" lon="5.56764">
        <ele>1072.3</ele>
        <time>2021-09-07T13:33:59Z</time>
      </trkpt>
      <trkpt lat="44.43351" lon="5.56766">
        <ele>1072.6</ele>
        <time>2021-09-07T13:34:00Z</time>
      </trkpt>
      <trkpt lat="44.43351" lon="5.56768">
        <ele>1072.9</ele>
        <time>2021-09-07T13:34:01Z</time>
      </trkpt>
      <trkpt lat="44.43351" lon="5.56769">
        <ele>1072.9</ele>
        <time>2021-09-07T13:34:02Z</time>
      </trkpt>
      <trkpt lat="44.43351" lon="5.56769">
        <ele>1073</ele>
        <time>2021-09-07T13:34:03Z</time>
      </trkpt>
      <trkpt lat="44.43351" lon="5.56769">
        <ele>1073</ele>
        <time>2021-09-07T13:34:04Z</time>
      </trkpt>
      <trkpt lat="44.43351" lon="5.5677">
        <ele>1073.1</ele>
        <time>2021-09-07T13:34:05Z</time>
      </trkpt>
      <trkpt lat="44.43351" lon="5.5677">
        <ele>1073.1</ele>
        <time>2021-09-07T13:34:06Z</time>
      </trkpt>
      <trkpt lat="44.43351" lon="5.56771">
        <ele>1073.2</ele>
        <time>2021-09-07T13:34:07Z</time>
      </trkpt>
      <trkpt lat="44.4335" lon="5.56771">
        <ele>1073.3</ele>
        <time>2021-09-07T13:34:08Z</time>
      </trkpt>
      <trkpt lat="44.4335" lon="5.56773">
        <ele>1073.5</ele>
        <time>2021-09-07T13:34:09Z</time>
      </trkpt>
      <trkpt lat="44.4335" lon="5.56774">
        <ele>1073.7</ele>
        <time>2021-09-07T13:34:10Z</time>
      </trkpt>
      <trkpt lat="44.4335" lon="5.56776">
        <ele>1074</ele>
        <time>2021-09-07T13:34:11Z</time>
      </trkpt>
      <trkpt lat="44.4335" lon="5.56777">
        <ele>1074.1</ele>
        <time>2021-09-07T13:34:12Z</time>
      </trkpt>
      <trkpt lat="44.43349" lon="5.56778">
        <ele>1074.4</ele>
        <time>2021-09-07T13:34:13Z</time>
      </trkpt>
      <trkpt lat="44.43349" lon="5.56779">
        <ele>1074.5</ele>
        <time>2021-09-07T13:34:14Z</time>
      </trkpt>
      <trkpt lat="44.43349" lon="5.5678">
        <ele>1074.6</ele>
        <time>2021-09-07T13:34:15Z</time>
      </trkpt>
      <trkpt lat="44.43348" lon="5.5678">
        <ele>1074.7</ele>
        <time>2021-09-07T13:34:16Z</time>
      </trkpt>
      <trkpt lat="44.43348" lon="5.56781">
        <ele>1074.8</ele>
        <time>2021-09-07T13:34:17Z</time>
      </trkpt>
      <trkpt lat="44.43348" lon="5.56782">
        <ele>1075</ele>
        <time>2021-09-07T13:34:18Z</time>
      </trkpt>
      <trkpt lat="44.43348" lon="5.56782">
        <ele>1075</ele>
        <time>2021-09-07T13:34:19Z</time>
      </trkpt>
      <trkpt lat="44.43348" lon="5.56782">
        <ele>1075</ele>
        <time>2021-09-07T13:34:20Z</time>
      </trkpt>
      <trkpt lat="44.43348" lon="5.56783">
        <ele>1075.1</ele>
        <time>2021-09-07T13:34:21Z</time>
      </trkpt>
      <trkpt lat="44.43348" lon="5.56784">
        <ele>1075.2</ele>
        <time>2021-09-07T13:34:22Z</time>
      </trkpt>
      <trkpt lat="44.43348" lon="5.56784">
        <ele>1075.2</ele>
        <time>2021-09-07T13:34:23Z</time>
      </trkpt>
      <trkpt lat="44.43348" lon="5.56784">
        <ele>1075.2</ele>
        <time>2021-09-07T13:34:24Z</time>
      </trkpt>
      <trkpt lat="44.43348" lon="5.56784">
        <ele>1075.2</ele>
        <time>2021-09-07T13:34:25Z</time>
      </trkpt>
      <trkpt lat="44.43348" lon="5.56785">
        <ele>1075.3</ele>
        <time>2021-09-07T13:34:26Z</time>
      </trkpt>
      <trkpt lat="44.43348" lon="5.56785">
        <ele>1075.3</ele>
        <time>2021-09-07T13:34:27Z</time>
      </trkpt>
      <trkpt lat="44.43348" lon="5.56785">
        <ele>1075.3</ele>
        <time>2021-09-07T13:34:28Z</time>
      </trkpt>
      <trkpt lat="44.43348" lon="5.56785">
        <ele>1075.3</ele>
        <time>2021-09-07T13:34:29Z</time>
      </trkpt>
      <trkpt lat="44.43348" lon="5.56786">
        <ele>1075.5</ele>
        <time>2021-09-07T13:34:30Z</time>
      </trkpt>
      <trkpt lat="44.43348" lon="5.56786">
        <ele>1075.5</ele>
        <time>2021-09-07T13:34:31Z</time>
      </trkpt>
      <trkpt lat="44.43348" lon="5.56786">
        <ele>1075.5</ele>
        <time>2021-09-07T13:34:32Z</time>
      </trkpt>
      <trkpt lat="44.43348" lon="5.56786">
        <ele>1075.5</ele>
        <time>2021-09-07T13:34:33Z</time>
      </trkpt>
      <trkpt lat="44.43348" lon="5.56786">
        <ele>1075.5</ele>
        <time>2021-09-07T13:34:34Z</time>
      </trkpt>
      <trkpt lat="44.43348" lon="5.56786">
        <ele>1075.5</ele>
        <time>2021-09-07T13:34:35Z</time>
      </trkpt>
      <trkpt lat="44.43348" lon="5.56786">
        <ele>1075.5</ele>
        <time>2021-09-07T13:34:36Z</time>
      </trkpt>
      <trkpt lat="44.43348" lon="5.56786">
        <ele>1075.5</ele>
        <time>2021-09-07T13:34:37Z</time>
      </trkpt>
      <trkpt lat="44.43348" lon="5.56786">
        <ele>1075.5</ele>
        <time>2021-09-07T13:34:38Z</time>
      </trkpt>
      <trkpt lat="44.43348" lon="5.56786">
        <ele>1075.5</ele>
        <time>2021-09-07T13:34:39Z</time>
      </trkpt>
      <trkpt lat="44.43348" lon="5.56786">
        <ele>1075.5</ele>
        <time>2021-09-07T13:34:40Z</time>
      </trkpt>
      <trkpt lat="44.43348" lon="5.56786">
        <ele>1075.5</ele>
        <time>2021-09-07T13:34:41Z</time>
      </trkpt>
      <trkpt lat="44.43348" lon="5.56786">
        <ele>1075.5</ele>
        <time>2021-09-07T13:34:42Z</time>
      </trkpt>
      <trkpt lat="44.43348" lon="5.56786">
        <ele>1075.5</ele>
        <time>2021-09-07T13:34:43Z</time>
      </trkpt>
      <trkpt lat="44.43348" lon="5.56786">
        <ele>1075.5</ele>
        <time>2021-09-07T13:34:44Z</time>
      </trkpt>
      <trkpt lat="44.43348" lon="5.56787">
        <ele>1075.6</ele>
        <time>2021-09-07T13:34:45Z</time>
      </trkpt>
      <trkpt lat="44.43348" lon="5.56788">
        <ele>1075.7</ele>
        <time>2021-09-07T13:34:46Z</time>
      </trkpt>
      <trkpt lat="44.43348" lon="5.56791">
        <ele>1076.1</ele>
        <time>2021-09-07T13:34:47Z</time>
      </trkpt>
      <trkpt lat="44.43347" lon="5.56793">
        <ele>1076.4</ele>
        <time>2021-09-07T13:34:48Z</time>
      </trkpt>
      <trkpt lat="44.43347" lon="5.56795">
        <ele>1076.7</ele>
        <time>2021-09-07T13:34:49Z</time>
      </trkpt>
      <trkpt lat="44.43347" lon="5.56796">
        <ele>1076.8</ele>
        <time>2021-09-07T13:34:50Z</time>
      </trkpt>
      <trkpt lat="44.43346" lon="5.56797">
        <ele>1077</ele>
        <time>2021-09-07T13:34:51Z</time>
      </trkpt>
      <trkpt lat="44.43346" lon="5.56799">
        <ele>1077.2</ele>
        <time>2021-09-07T13:34:52Z</time>
      </trkpt>
      <trkpt lat="44.43346" lon="5.568">
        <ele>1077.3</ele>
        <time>2021-09-07T13:34:53Z</time>
      </trkpt>
      <trkpt lat="44.43346" lon="5.568">
        <ele>1077.3</ele>
        <time>2021-09-07T13:34:54Z</time>
      </trkpt>
      <trkpt lat="44.43346" lon="5.56801">
        <ele>1077.4</ele>
        <time>2021-09-07T13:34:55Z</time>
      </trkpt>
      <trkpt lat="44.43346" lon="5.56801">
        <ele>1077.4</ele>
        <time>2021-09-07T13:34:56Z</time>
      </trkpt>
      <trkpt lat="44.43346" lon="5.56801">
        <ele>1077.4</ele>
        <time>2021-09-07T13:34:57Z</time>
      </trkpt>
      <trkpt lat="44.43346" lon="5.56801">
        <ele>1077.4</ele>
        <time>2021-09-07T13:34:58Z</time>
      </trkpt>
      <trkpt lat="44.43346" lon="5.56801">
        <ele>1077.4</ele>
        <time>2021-09-07T13:34:59Z</time>
      </trkpt>
      <trkpt lat="44.43346" lon="5.56803">
        <ele>1077.7</ele>
        <time>2021-09-07T13:35:00Z</time>
      </trkpt>
      <trkpt lat="44.43345" lon="5.56807">
        <ele>1078.2</ele>
        <time>2021-09-07T13:35:01Z</time>
      </trkpt>
      <trkpt lat="44.43345" lon="5.5681">
        <ele>1078.5</ele>
        <time>2021-09-07T13:35:02Z</time>
      </trkpt>
      <trkpt lat="44.43345" lon="5.56812">
        <ele>1078.7</ele>
        <time>2021-09-07T13:35:03Z</time>
      </trkpt>
      <trkpt lat="44.43345" lon="5.56813">
        <ele>1078.9</ele>
        <time>2021-09-07T13:35:04Z</time>
      </trkpt>
      <trkpt lat="44.43345" lon="5.56815">
        <ele>1079</ele>
        <time>2021-09-07T13:35:05Z</time>
      </trkpt>
      <trkpt lat="44.43345" lon="5.56816">
        <ele>1079.2</ele>
        <time>2021-09-07T13:35:06Z</time>
      </trkpt>
      <trkpt lat="44.43345" lon="5.56817">
        <ele>1079.3</ele>
        <time>2021-09-07T13:35:07Z</time>
      </trkpt>
      <trkpt lat="44.43345" lon="5.56818">
        <ele>1079.4</ele>
        <time>2021-09-07T13:35:08Z</time>
      </trkpt>
      <trkpt lat="44.43345" lon="5.56819">
        <ele>1079.5</ele>
        <time>2021-09-07T13:35:09Z</time>
      </trkpt>
      <trkpt lat="44.43345" lon="5.5682">
        <ele>1079.7</ele>
        <time>2021-09-07T13:35:10Z</time>
      </trkpt>
      <trkpt lat="44.43343" lon="5.56825">
        <ele>1080.4</ele>
        <time>2021-09-07T13:35:11Z</time>
      </trkpt>
      <trkpt lat="44.43341" lon="5.56828">
        <ele>1080.6</ele>
        <time>2021-09-07T13:35:12Z</time>
      </trkpt>
      <trkpt lat="44.43341" lon="5.5683">
        <ele>1080.7</ele>
        <time>2021-09-07T13:35:13Z</time>
      </trkpt>
      <trkpt lat="44.4334" lon="5.56831">
        <ele>1080.8</ele>
        <time>2021-09-07T13:35:14Z</time>
      </trkpt>
      <trkpt lat="44.43339" lon="5.56833">
        <ele>1081</ele>
        <time>2021-09-07T13:35:15Z</time>
      </trkpt>
      <trkpt lat="44.43337" lon="5.56837">
        <ele>1081.3</ele>
        <time>2021-09-07T13:35:16Z</time>
      </trkpt>
      <trkpt lat="44.43335" lon="5.5684">
        <ele>1081.6</ele>
        <time>2021-09-07T13:35:17Z</time>
      </trkpt>
      <trkpt lat="44.43335" lon="5.56841">
        <ele>1081.6</ele>
        <time>2021-09-07T13:35:18Z</time>
      </trkpt>
      <trkpt lat="44.43335" lon="5.56842">
        <ele>1081.7</ele>
        <time>2021-09-07T13:35:19Z</time>
      </trkpt>
      <trkpt lat="44.43335" lon="5.56843">
        <ele>1081.8</ele>
        <time>2021-09-07T13:35:20Z</time>
      </trkpt>
      <trkpt lat="44.43334" lon="5.56843">
        <ele>1081.8</ele>
        <time>2021-09-07T13:35:21Z</time>
      </trkpt>
      <trkpt lat="44.43334" lon="5.56844">
        <ele>1081.9</ele>
        <time>2021-09-07T13:35:22Z</time>
      </trkpt>
      <trkpt lat="44.43334" lon="5.56844">
        <ele>1081.9</ele>
        <time>2021-09-07T13:35:23Z</time>
      </trkpt>
      <trkpt lat="44.43334" lon="5.56844">
        <ele>1081.9</ele>
        <time>2021-09-07T13:35:24Z</time>
      </trkpt>
      <trkpt lat="44.43334" lon="5.56844">
        <ele>1081.9</ele>
        <time>2021-09-07T13:35:25Z</time>
      </trkpt>
      <trkpt lat="44.43334" lon="5.56844">
        <ele>1081.9</ele>
        <time>2021-09-07T13:35:26Z</time>
      </trkpt>
      <trkpt lat="44.43334" lon="5.56845">
        <ele>1081.9</ele>
        <time>2021-09-07T13:35:27Z</time>
      </trkpt>
      <trkpt lat="44.43334" lon="5.56845">
        <ele>1082</ele>
        <time>2021-09-07T13:35:28Z</time>
      </trkpt>
      <trkpt lat="44.43333" lon="5.56847">
        <ele>1082.1</ele>
        <time>2021-09-07T13:35:29Z</time>
      </trkpt>
      <trkpt lat="44.43332" lon="5.56849">
        <ele>1082.3</ele>
        <time>2021-09-07T13:35:30Z</time>
      </trkpt>
      <trkpt lat="44.43332" lon="5.56851">
        <ele>1082.4</ele>
        <time>2021-09-07T13:35:31Z</time>
      </trkpt>
      <trkpt lat="44.43332" lon="5.56852">
        <ele>1082.5</ele>
        <time>2021-09-07T13:35:32Z</time>
      </trkpt>
      <trkpt lat="44.43331" lon="5.56853">
        <ele>1082.6</ele>
        <time>2021-09-07T13:35:33Z</time>
      </trkpt>
      <trkpt lat="44.43331" lon="5.56854">
        <ele>1082.7</ele>
        <time>2021-09-07T13:35:34Z</time>
      </trkpt>
      <trkpt lat="44.4333" lon="5.56856">
        <ele>1082.8</ele>
        <time>2021-09-07T13:35:35Z</time>
      </trkpt>
      <trkpt lat="44.4333" lon="5.56857">
        <ele>1082.9</ele>
        <time>2021-09-07T13:35:36Z</time>
      </trkpt>
      <trkpt lat="44.4333" lon="5.56858">
        <ele>1083</ele>
        <time>2021-09-07T13:35:37Z</time>
      </trkpt>
      <trkpt lat="44.43329" lon="5.56858">
        <ele>1083.1</ele>
        <time>2021-09-07T13:35:38Z</time>
      </trkpt>
      <trkpt lat="44.43329" lon="5.56859">
        <ele>1083.1</ele>
        <time>2021-09-07T13:35:39Z</time>
      </trkpt>
      <trkpt lat="44.43329" lon="5.56859">
        <ele>1083.1</ele>
        <time>2021-09-07T13:35:40Z</time>
      </trkpt>
      <trkpt lat="44.43329" lon="5.56859">
        <ele>1083.1</ele>
        <time>2021-09-07T13:35:41Z</time>
      </trkpt>
      <trkpt lat="44.43328" lon="5.56861">
        <ele>1083.3</ele>
        <time>2021-09-07T13:35:42Z</time>
      </trkpt>
      <trkpt lat="44.43327" lon="5.56862">
        <ele>1083.4</ele>
        <time>2021-09-07T13:35:43Z</time>
      </trkpt>
      <trkpt lat="44.43326" lon="5.56863">
        <ele>1083.5</ele>
        <time>2021-09-07T13:35:44Z</time>
      </trkpt>
      <trkpt lat="44.43325" lon="5.56864">
        <ele>1083.6</ele>
        <time>2021-09-07T13:35:45Z</time>
      </trkpt>
      <trkpt lat="44.43323" lon="5.56866">
        <ele>1083.8</ele>
        <time>2021-09-07T13:35:46Z</time>
      </trkpt>
      <trkpt lat="44.43323" lon="5.56867">
        <ele>1083.9</ele>
        <time>2021-09-07T13:35:47Z</time>
      </trkpt>
      <trkpt lat="44.43322" lon="5.56867">
        <ele>1083.9</ele>
        <time>2021-09-07T13:35:48Z</time>
      </trkpt>
      <trkpt lat="44.43322" lon="5.56868">
        <ele>1084</ele>
        <time>2021-09-07T13:35:49Z</time>
      </trkpt>
      <trkpt lat="44.43321" lon="5.56869">
        <ele>1084.1</ele>
        <time>2021-09-07T13:35:50Z</time>
      </trkpt>
      <trkpt lat="44.43321" lon="5.56869">
        <ele>1084.1</ele>
        <time>2021-09-07T13:35:51Z</time>
      </trkpt>
      <trkpt lat="44.43321" lon="5.56869">
        <ele>1084.1</ele>
        <time>2021-09-07T13:35:52Z</time>
      </trkpt>
      <trkpt lat="44.43321" lon="5.5687">
        <ele>1084.1</ele>
        <time>2021-09-07T13:35:53Z</time>
      </trkpt>
      <trkpt lat="44.43321" lon="5.5687">
        <ele>1084.1</ele>
        <time>2021-09-07T13:35:54Z</time>
      </trkpt>
      <trkpt lat="44.4332" lon="5.5687">
        <ele>1084.2</ele>
        <time>2021-09-07T13:35:55Z</time>
      </trkpt>
      <trkpt lat="44.4332" lon="5.5687">
        <ele>1084.2</ele>
        <time>2021-09-07T13:35:56Z</time>
      </trkpt>
      <trkpt lat="44.4332" lon="5.5687">
        <ele>1084.2</ele>
        <time>2021-09-07T13:35:57Z</time>
      </trkpt>
      <trkpt lat="44.4332" lon="5.5687">
        <ele>1084.2</ele>
        <time>2021-09-07T13:35:58Z</time>
      </trkpt>
      <trkpt lat="44.4332" lon="5.56871">
        <ele>1084.2</ele>
        <time>2021-09-07T13:35:59Z</time>
      </trkpt>
      <trkpt lat="44.4332" lon="5.56871">
        <ele>1084.3</ele>
        <time>2021-09-07T13:36:00Z</time>
      </trkpt>
      <trkpt lat="44.4332" lon="5.56871">
        <ele>1084.3</ele>
        <time>2021-09-07T13:36:01Z</time>
      </trkpt>
      <trkpt lat="44.4332" lon="5.56871">
        <ele>1084.3</ele>
        <time>2021-09-07T13:36:02Z</time>
      </trkpt>
      <trkpt lat="44.4332" lon="5.56871">
        <ele>1084.3</ele>
        <time>2021-09-07T13:36:03Z</time>
      </trkpt>
      <trkpt lat="44.4332" lon="5.56871">
        <ele>1084.3</ele>
        <time>2021-09-07T13:36:04Z</time>
      </trkpt>
      <trkpt lat="44.4332" lon="5.56871">
        <ele>1084.3</ele>
        <time>2021-09-07T13:36:05Z</time>
      </trkpt>
      <trkpt lat="44.4332" lon="5.56872">
        <ele>1084.3</ele>
        <time>2021-09-07T13:36:06Z</time>
      </trkpt>
      <trkpt lat="44.4332" lon="5.56872">
        <ele>1084.3</ele>
        <time>2021-09-07T13:36:07Z</time>
      </trkpt>
      <trkpt lat="44.4332" lon="5.56872">
        <ele>1084.3</ele>
        <time>2021-09-07T13:36:08Z</time>
      </trkpt>
      <trkpt lat="44.4332" lon="5.56872">
        <ele>1084.3</ele>
        <time>2021-09-07T13:36:09Z</time>
      </trkpt>
      <trkpt lat="44.4332" lon="5.56872">
        <ele>1084.3</ele>
        <time>2021-09-07T13:36:10Z</time>
      </trkpt>
      <trkpt lat="44.4332" lon="5.56872">
        <ele>1084.3</ele>
        <time>2021-09-07T13:36:11Z</time>
      </trkpt>
      <trkpt lat="44.4332" lon="5.56872">
        <ele>1084.3</ele>
        <time>2021-09-07T13:36:12Z</time>
      </trkpt>
      <trkpt lat="44.4332" lon="5.56872">
        <ele>1084.3</ele>
        <time>2021-09-07T13:36:13Z</time>
      </trkpt>
      <trkpt lat="44.4332" lon="5.56872">
        <ele>1084.3</ele>
        <time>2021-09-07T13:36:14Z</time>
      </trkpt>
      <trkpt lat="44.4332" lon="5.56872">
        <ele>1084.3</ele>
        <time>2021-09-07T13:36:15Z</time>
      </trkpt>
      <trkpt lat="44.4332" lon="5.56872">
        <ele>1084.3</ele>
        <time>2021-09-07T13:36:16Z</time>
      </trkpt>
      <trkpt lat="44.4332" lon="5.56872">
        <ele>1084.3</ele>
        <time>2021-09-07T13:36:17Z</time>
      </trkpt>
      <trkpt lat="44.4332" lon="5.56872">
        <ele>1084.3</ele>
        <time>2021-09-07T13:36:18Z</time>
      </trkpt>
      <trkpt lat="44.4332" lon="5.56872">
        <ele>1084.3</ele>
        <time>2021-09-07T13:36:19Z</time>
      </trkpt>
      <trkpt lat="44.4332" lon="5.56872">
        <ele>1084.3</ele>
        <time>2021-09-07T13:36:20Z</time>
      </trkpt>
      <trkpt lat="44.4332" lon="5.56872">
        <ele>1084.3</ele>
        <time>2021-09-07T13:36:21Z</time>
      </trkpt>
      <trkpt lat="44.4332" lon="5.56873">
        <ele>1084.4</ele>
        <time>2021-09-07T13:36:22Z</time>
      </trkpt>
      <trkpt lat="44.4332" lon="5.56875">
        <ele>1084.5</ele>
        <time>2021-09-07T13:36:23Z</time>
      </trkpt>
      <trkpt lat="44.4332" lon="5.56877">
        <ele>1084.6</ele>
        <time>2021-09-07T13:36:24Z</time>
      </trkpt>
      <trkpt lat="44.4332" lon="5.56879">
        <ele>1084.6</ele>
        <time>2021-09-07T13:36:25Z</time>
      </trkpt>
      <trkpt lat="44.43319" lon="5.5688">
        <ele>1084.7</ele>
        <time>2021-09-07T13:36:26Z</time>
      </trkpt>
      <trkpt lat="44.43319" lon="5.56882">
        <ele>1084.8</ele>
        <time>2021-09-07T13:36:27Z</time>
      </trkpt>
      <trkpt lat="44.43319" lon="5.56884">
        <ele>1084.9</ele>
        <time>2021-09-07T13:36:28Z</time>
      </trkpt>
      <trkpt lat="44.4332" lon="5.56885">
        <ele>1084.9</ele>
        <time>2021-09-07T13:36:29Z</time>
      </trkpt>
      <trkpt lat="44.4332" lon="5.56885">
        <ele>1085</ele>
        <time>2021-09-07T13:36:30Z</time>
      </trkpt>
      <trkpt lat="44.4332" lon="5.56886">
        <ele>1085</ele>
        <time>2021-09-07T13:36:31Z</time>
      </trkpt>
      <trkpt lat="44.4332" lon="5.56886">
        <ele>1085</ele>
        <time>2021-09-07T13:36:32Z</time>
      </trkpt>
      <trkpt lat="44.4332" lon="5.56887">
        <ele>1085.1</ele>
        <time>2021-09-07T13:36:33Z</time>
      </trkpt>
      <trkpt lat="44.4332" lon="5.56887">
        <ele>1085.1</ele>
        <time>2021-09-07T13:36:34Z</time>
      </trkpt>
      <trkpt lat="44.4332" lon="5.56887">
        <ele>1085.1</ele>
        <time>2021-09-07T13:36:35Z</time>
      </trkpt>
      <trkpt lat="44.4332" lon="5.56888">
        <ele>1085.1</ele>
        <time>2021-09-07T13:36:36Z</time>
      </trkpt>
      <trkpt lat="44.43319" lon="5.56889">
        <ele>1085.2</ele>
        <time>2021-09-07T13:36:37Z</time>
      </trkpt>
      <trkpt lat="44.43318" lon="5.56892">
        <ele>1085.3</ele>
        <time>2021-09-07T13:36:38Z</time>
      </trkpt>
      <trkpt lat="44.43317" lon="5.56895">
        <ele>1085.5</ele>
        <time>2021-09-07T13:36:39Z</time>
      </trkpt>
      <trkpt lat="44.43316" lon="5.56897">
        <ele>1085.6</ele>
        <time>2021-09-07T13:36:40Z</time>
      </trkpt>
      <trkpt lat="44.43316" lon="5.56898">
        <ele>1085.6</ele>
        <time>2021-09-07T13:36:41Z</time>
      </trkpt>
      <trkpt lat="44.43316" lon="5.56899">
        <ele>1085.7</ele>
        <time>2021-09-07T13:36:42Z</time>
      </trkpt>
      <trkpt lat="44.43316" lon="5.569">
        <ele>1085.7</ele>
        <time>2021-09-07T13:36:43Z</time>
      </trkpt>
      <trkpt lat="44.43315" lon="5.56901">
        <ele>1085.8</ele>
        <time>2021-09-07T13:36:44Z</time>
      </trkpt>
      <trkpt lat="44.43315" lon="5.56902">
        <ele>1085.8</ele>
        <time>2021-09-07T13:36:45Z</time>
      </trkpt>
      <trkpt lat="44.43315" lon="5.56903">
        <ele>1085.9</ele>
        <time>2021-09-07T13:36:46Z</time>
      </trkpt>
      <trkpt lat="44.43315" lon="5.56903">
        <ele>1085.9</ele>
        <time>2021-09-07T13:36:47Z</time>
      </trkpt>
      <trkpt lat="44.43315" lon="5.56903">
        <ele>1085.9</ele>
        <time>2021-09-07T13:36:48Z</time>
      </trkpt>
      <trkpt lat="44.43315" lon="5.56907">
        <ele>1086.1</ele>
        <time>2021-09-07T13:36:49Z</time>
      </trkpt>
      <trkpt lat="44.43315" lon="5.56911">
        <ele>1086.2</ele>
        <time>2021-09-07T13:36:50Z</time>
      </trkpt>
      <trkpt lat="44.43315" lon="5.56913">
        <ele>1086.3</ele>
        <time>2021-09-07T13:36:51Z</time>
      </trkpt>
      <trkpt lat="44.43315" lon="5.56914">
        <ele>1086.4</ele>
        <time>2021-09-07T13:36:52Z</time>
      </trkpt>
      <trkpt lat="44.43314" lon="5.56916">
        <ele>1086.5</ele>
        <time>2021-09-07T13:36:53Z</time>
      </trkpt>
      <trkpt lat="44.43314" lon="5.56917">
        <ele>1086.5</ele>
        <time>2021-09-07T13:36:54Z</time>
      </trkpt>
      <trkpt lat="44.43314" lon="5.56918">
        <ele>1086.6</ele>
        <time>2021-09-07T13:36:55Z</time>
      </trkpt>
      <trkpt lat="44.43314" lon="5.56919">
        <ele>1086.6</ele>
        <time>2021-09-07T13:36:56Z</time>
      </trkpt>
      <trkpt lat="44.43314" lon="5.5692">
        <ele>1086.7</ele>
        <time>2021-09-07T13:36:57Z</time>
      </trkpt>
      <trkpt lat="44.43314" lon="5.56921">
        <ele>1086.7</ele>
        <time>2021-09-07T13:36:58Z</time>
      </trkpt>
      <trkpt lat="44.43314" lon="5.56921">
        <ele>1086.7</ele>
        <time>2021-09-07T13:36:59Z</time>
      </trkpt>
      <trkpt lat="44.43314" lon="5.56922">
        <ele>1086.7</ele>
        <time>2021-09-07T13:37:00Z</time>
      </trkpt>
      <trkpt lat="44.43314" lon="5.56922">
        <ele>1086.8</ele>
        <time>2021-09-07T13:37:01Z</time>
      </trkpt>
      <trkpt lat="44.43313" lon="5.56924">
        <ele>1086.9</ele>
        <time>2021-09-07T13:37:02Z</time>
      </trkpt>
      <trkpt lat="44.43312" lon="5.56926">
        <ele>1087</ele>
        <time>2021-09-07T13:37:03Z</time>
      </trkpt>
      <trkpt lat="44.43311" lon="5.5693">
        <ele>1087.2</ele>
        <time>2021-09-07T13:37:04Z</time>
      </trkpt>
      <trkpt lat="44.43311" lon="5.56931">
        <ele>1087.2</ele>
        <time>2021-09-07T13:37:05Z</time>
      </trkpt>
      <trkpt lat="44.43311" lon="5.56932">
        <ele>1087.3</ele>
        <time>2021-09-07T13:37:06Z</time>
      </trkpt>
      <trkpt lat="44.4331" lon="5.56934">
        <ele>1087.4</ele>
        <time>2021-09-07T13:37:07Z</time>
      </trkpt>
      <trkpt lat="44.4331" lon="5.56935">
        <ele>1087.5</ele>
        <time>2021-09-07T13:37:08Z</time>
      </trkpt>
      <trkpt lat="44.4331" lon="5.56936">
        <ele>1087.5</ele>
        <time>2021-09-07T13:37:09Z</time>
      </trkpt>
      <trkpt lat="44.43309" lon="5.56936">
        <ele>1087.5</ele>
        <time>2021-09-07T13:37:10Z</time>
      </trkpt>
      <trkpt lat="44.43309" lon="5.56938">
        <ele>1087.6</ele>
        <time>2021-09-07T13:37:11Z</time>
      </trkpt>
      <trkpt lat="44.43308" lon="5.56941">
        <ele>1087.8</ele>
        <time>2021-09-07T13:37:12Z</time>
      </trkpt>
      <trkpt lat="44.43308" lon="5.56944">
        <ele>1088</ele>
        <time>2021-09-07T13:37:13Z</time>
      </trkpt>
      <trkpt lat="44.43308" lon="5.56946">
        <ele>1088.1</ele>
        <time>2021-09-07T13:37:14Z</time>
      </trkpt>
      <trkpt lat="44.43307" lon="5.56947">
        <ele>1088.2</ele>
        <time>2021-09-07T13:37:15Z</time>
      </trkpt>
      <trkpt lat="44.43307" lon="5.5695">
        <ele>1088.4</ele>
        <time>2021-09-07T13:37:16Z</time>
      </trkpt>
      <trkpt lat="44.43307" lon="5.56952">
        <ele>1088.5</ele>
        <time>2021-09-07T13:37:17Z</time>
      </trkpt>
      <trkpt lat="44.43306" lon="5.56953">
        <ele>1088.6</ele>
        <time>2021-09-07T13:37:18Z</time>
      </trkpt>
      <trkpt lat="44.43306" lon="5.56955">
        <ele>1088.7</ele>
        <time>2021-09-07T13:37:19Z</time>
      </trkpt>
      <trkpt lat="44.43306" lon="5.56956">
        <ele>1088.8</ele>
        <time>2021-09-07T13:37:20Z</time>
      </trkpt>
      <trkpt lat="44.43305" lon="5.56956">
        <ele>1088.8</ele>
        <time>2021-09-07T13:37:21Z</time>
      </trkpt>
      <trkpt lat="44.43305" lon="5.56956">
        <ele>1088.8</ele>
        <time>2021-09-07T13:37:22Z</time>
      </trkpt>
      <trkpt lat="44.43305" lon="5.56956">
        <ele>1088.8</ele>
        <time>2021-09-07T13:37:23Z</time>
      </trkpt>
      <trkpt lat="44.43305" lon="5.56957">
        <ele>1088.9</ele>
        <time>2021-09-07T13:37:24Z</time>
      </trkpt>
      <trkpt lat="44.43305" lon="5.56957">
        <ele>1088.9</ele>
        <time>2021-09-07T13:37:25Z</time>
      </trkpt>
      <trkpt lat="44.43305" lon="5.56957">
        <ele>1088.9</ele>
        <time>2021-09-07T13:37:26Z</time>
      </trkpt>
      <trkpt lat="44.43305" lon="5.56958">
        <ele>1088.9</ele>
        <time>2021-09-07T13:37:27Z</time>
      </trkpt>
      <trkpt lat="44.43305" lon="5.56958">
        <ele>1088.9</ele>
        <time>2021-09-07T13:37:28Z</time>
      </trkpt>
      <trkpt lat="44.43305" lon="5.56958">
        <ele>1088.9</ele>
        <time>2021-09-07T13:37:29Z</time>
      </trkpt>
      <trkpt lat="44.43305" lon="5.56958">
        <ele>1088.9</ele>
        <time>2021-09-07T13:37:30Z</time>
      </trkpt>
      <trkpt lat="44.43305" lon="5.56958">
        <ele>1088.9</ele>
        <time>2021-09-07T13:37:31Z</time>
      </trkpt>
      <trkpt lat="44.43305" lon="5.56958">
        <ele>1088.9</ele>
        <time>2021-09-07T13:37:32Z</time>
      </trkpt>
      <trkpt lat="44.43305" lon="5.56958">
        <ele>1088.9</ele>
        <time>2021-09-07T13:37:33Z</time>
      </trkpt>
      <trkpt lat="44.43305" lon="5.56958">
        <ele>1088.9</ele>
        <time>2021-09-07T13:37:34Z</time>
      </trkpt>
      <trkpt lat="44.43305" lon="5.56958">
        <ele>1088.9</ele>
        <time>2021-09-07T13:37:35Z</time>
      </trkpt>
      <trkpt lat="44.43305" lon="5.56958">
        <ele>1088.9</ele>
        <time>2021-09-07T13:37:36Z</time>
      </trkpt>
      <trkpt lat="44.43305" lon="5.56958">
        <ele>1088.9</ele>
        <time>2021-09-07T13:37:37Z</time>
      </trkpt>
      <trkpt lat="44.43305" lon="5.56958">
        <ele>1088.9</ele>
        <time>2021-09-07T13:37:38Z</time>
      </trkpt>
      <trkpt lat="44.43305" lon="5.56958">
        <ele>1088.9</ele>
        <time>2021-09-07T13:37:39Z</time>
      </trkpt>
      <trkpt lat="44.43305" lon="5.56958">
        <ele>1088.9</ele>
        <time>2021-09-07T13:37:40Z</time>
      </trkpt>
      <trkpt lat="44.43305" lon="5.56958">
        <ele>1088.9</ele>
        <time>2021-09-07T13:37:41Z</time>
      </trkpt>
      <trkpt lat="44.43305" lon="5.56958">
        <ele>1088.9</ele>
        <time>2021-09-07T13:37:42Z</time>
      </trkpt>
      <trkpt lat="44.43305" lon="5.56958">
        <ele>1088.9</ele>
        <time>2021-09-07T13:37:43Z</time>
      </trkpt>
      <trkpt lat="44.43305" lon="5.56958">
        <ele>1088.9</ele>
        <time>2021-09-07T13:37:44Z</time>
      </trkpt>
      <trkpt lat="44.43305" lon="5.56959">
        <ele>1089</ele>
        <time>2021-09-07T13:37:45Z</time>
      </trkpt>
      <trkpt lat="44.43305" lon="5.56959">
        <ele>1089</ele>
        <time>2021-09-07T13:37:46Z</time>
      </trkpt>
      <trkpt lat="44.43305" lon="5.56958">
        <ele>1089.1</ele>
        <time>2021-09-07T13:37:47Z</time>
      </trkpt>
      <trkpt lat="44.43305" lon="5.56958">
        <ele>1089.1</ele>
        <time>2021-09-07T13:37:48Z</time>
      </trkpt>
      <trkpt lat="44.43304" lon="5.56959">
        <ele>1089.2</ele>
        <time>2021-09-07T13:37:49Z</time>
      </trkpt>
      <trkpt lat="44.43304" lon="5.56959">
        <ele>1089.2</ele>
        <time>2021-09-07T13:37:50Z</time>
      </trkpt>
      <trkpt lat="44.43303" lon="5.5696">
        <ele>1089.3</ele>
        <time>2021-09-07T13:37:51Z</time>
      </trkpt>
      <trkpt lat="44.43302" lon="5.5696">
        <ele>1089.4</ele>
        <time>2021-09-07T13:37:52Z</time>
      </trkpt>
      <trkpt lat="44.433" lon="5.56961">
        <ele>1089.5</ele>
        <time>2021-09-07T13:37:53Z</time>
      </trkpt>
      <trkpt lat="44.43299" lon="5.56961">
        <ele>1089.6</ele>
        <time>2021-09-07T13:37:54Z</time>
      </trkpt>
      <trkpt lat="44.43298" lon="5.56961">
        <ele>1091.4</ele>
        <time>2021-09-07T13:37:55Z</time>
      </trkpt>
      <trkpt lat="44.43298" lon="5.56961">
        <ele>1091.4</ele>
        <time>2021-09-07T13:37:56Z</time>
      </trkpt>
      <trkpt lat="44.43297" lon="5.56961">
        <ele>1091.4</ele>
        <time>2021-09-07T13:37:57Z</time>
      </trkpt>
      <trkpt lat="44.43296" lon="5.56961">
        <ele>1091.4</ele>
        <time>2021-09-07T13:37:58Z</time>
      </trkpt>
      <trkpt lat="44.43296" lon="5.56961">
        <ele>1091.4</ele>
        <time>2021-09-07T13:37:59Z</time>
      </trkpt>
      <trkpt lat="44.43296" lon="5.56961">
        <ele>1091.4</ele>
        <time>2021-09-07T13:38:00Z</time>
      </trkpt>
      <trkpt lat="44.43295" lon="5.56961">
        <ele>1093.1</ele>
        <time>2021-09-07T13:38:01Z</time>
      </trkpt>
      <trkpt lat="44.43295" lon="5.56961">
        <ele>1093.1</ele>
        <time>2021-09-07T13:38:02Z</time>
      </trkpt>
      <trkpt lat="44.43295" lon="5.56961">
        <ele>1093.1</ele>
        <time>2021-09-07T13:38:03Z</time>
      </trkpt>
      <trkpt lat="44.43295" lon="5.56961">
        <ele>1093.1</ele>
        <time>2021-09-07T13:38:04Z</time>
      </trkpt>
      <trkpt lat="44.43294" lon="5.56961">
        <ele>1093.1</ele>
        <time>2021-09-07T13:38:05Z</time>
      </trkpt>
      <trkpt lat="44.43295" lon="5.56961">
        <ele>1093.1</ele>
        <time>2021-09-07T13:38:06Z</time>
      </trkpt>
      <trkpt lat="44.43295" lon="5.56961">
        <ele>1093.1</ele>
        <time>2021-09-07T13:38:07Z</time>
      </trkpt>
      <trkpt lat="44.43295" lon="5.56961">
        <ele>1093.1</ele>
        <time>2021-09-07T13:38:08Z</time>
      </trkpt>
      <trkpt lat="44.43295" lon="5.56962">
        <ele>1093.2</ele>
        <time>2021-09-07T13:38:09Z</time>
      </trkpt>
      <trkpt lat="44.43294" lon="5.56964">
        <ele>1093</ele>
        <time>2021-09-07T13:38:10Z</time>
      </trkpt>
      <trkpt lat="44.43294" lon="5.56966">
        <ele>1093.1</ele>
        <time>2021-09-07T13:38:11Z</time>
      </trkpt>
      <trkpt lat="44.43294" lon="5.56967">
        <ele>1093.1</ele>
        <time>2021-09-07T13:38:12Z</time>
      </trkpt>
      <trkpt lat="44.43294" lon="5.5697">
        <ele>1093</ele>
        <time>2021-09-07T13:38:13Z</time>
      </trkpt>
      <trkpt lat="44.43295" lon="5.56973">
        <ele>1092.9</ele>
        <time>2021-09-07T13:38:14Z</time>
      </trkpt>
      <trkpt lat="44.43295" lon="5.56974">
        <ele>1092.9</ele>
        <time>2021-09-07T13:38:15Z</time>
      </trkpt>
      <trkpt lat="44.43295" lon="5.56974">
        <ele>1092.9</ele>
        <time>2021-09-07T13:38:16Z</time>
      </trkpt>
      <trkpt lat="44.43295" lon="5.56976">
        <ele>1092.9</ele>
        <time>2021-09-07T13:38:17Z</time>
      </trkpt>
      <trkpt lat="44.43295" lon="5.56977">
        <ele>1092.9</ele>
        <time>2021-09-07T13:38:18Z</time>
      </trkpt>
      <trkpt lat="44.43295" lon="5.56977">
        <ele>1092.9</ele>
        <time>2021-09-07T13:38:19Z</time>
      </trkpt>
      <trkpt lat="44.43295" lon="5.56977">
        <ele>1092.9</ele>
        <time>2021-09-07T13:38:20Z</time>
      </trkpt>
      <trkpt lat="44.43295" lon="5.56978">
        <ele>1092.9</ele>
        <time>2021-09-07T13:38:21Z</time>
      </trkpt>
      <trkpt lat="44.43295" lon="5.56978">
        <ele>1092.9</ele>
        <time>2021-09-07T13:38:22Z</time>
      </trkpt>
      <trkpt lat="44.43295" lon="5.56978">
        <ele>1092.9</ele>
        <time>2021-09-07T13:38:23Z</time>
      </trkpt>
      <trkpt lat="44.43295" lon="5.56981">
        <ele>1092.9</ele>
        <time>2021-09-07T13:38:24Z</time>
      </trkpt>
      <trkpt lat="44.43296" lon="5.56984">
        <ele>1091.3</ele>
        <time>2021-09-07T13:38:25Z</time>
      </trkpt>
      <trkpt lat="44.43296" lon="5.56985">
        <ele>1091.3</ele>
        <time>2021-09-07T13:38:26Z</time>
      </trkpt>
      <trkpt lat="44.43295" lon="5.56986">
        <ele>1092.9</ele>
        <time>2021-09-07T13:38:27Z</time>
      </trkpt>
      <trkpt lat="44.43295" lon="5.56989">
        <ele>1093</ele>
        <time>2021-09-07T13:38:28Z</time>
      </trkpt>
      <trkpt lat="44.43295" lon="5.5699">
        <ele>1093</ele>
        <time>2021-09-07T13:38:29Z</time>
      </trkpt>
      <trkpt lat="44.43295" lon="5.56991">
        <ele>1093</ele>
        <time>2021-09-07T13:38:30Z</time>
      </trkpt>
      <trkpt lat="44.43295" lon="5.56992">
        <ele>1093.1</ele>
        <time>2021-09-07T13:38:31Z</time>
      </trkpt>
      <trkpt lat="44.43296" lon="5.56993">
        <ele>1091.5</ele>
        <time>2021-09-07T13:38:32Z</time>
      </trkpt>
      <trkpt lat="44.43296" lon="5.56993">
        <ele>1091.5</ele>
        <time>2021-09-07T13:38:33Z</time>
      </trkpt>
      <trkpt lat="44.43296" lon="5.56993">
        <ele>1091.5</ele>
        <time>2021-09-07T13:38:34Z</time>
      </trkpt>
      <trkpt lat="44.43296" lon="5.56994">
        <ele>1091.7</ele>
        <time>2021-09-07T13:38:35Z</time>
      </trkpt>
      <trkpt lat="44.43296" lon="5.56994">
        <ele>1091.7</ele>
        <time>2021-09-07T13:38:36Z</time>
      </trkpt>
      <trkpt lat="44.43296" lon="5.56994">
        <ele>1091.7</ele>
        <time>2021-09-07T13:38:37Z</time>
      </trkpt>
      <trkpt lat="44.43296" lon="5.56995">
        <ele>1091.7</ele>
        <time>2021-09-07T13:38:38Z</time>
      </trkpt>
      <trkpt lat="44.43298" lon="5.57">
        <ele>1091.9</ele>
        <time>2021-09-07T13:38:39Z</time>
      </trkpt>
      <trkpt lat="44.43298" lon="5.57003">
        <ele>1092.1</ele>
        <time>2021-09-07T13:38:40Z</time>
      </trkpt>
      <trkpt lat="44.43299" lon="5.57004">
        <ele>1090.4</ele>
        <time>2021-09-07T13:38:41Z</time>
      </trkpt>
      <trkpt lat="44.43299" lon="5.57005">
        <ele>1090.4</ele>
        <time>2021-09-07T13:38:42Z</time>
      </trkpt>
      <trkpt lat="44.43299" lon="5.57007">
        <ele>1090.8</ele>
        <time>2021-09-07T13:38:43Z</time>
      </trkpt>
      <trkpt lat="44.433" lon="5.57008">
        <ele>1090.9</ele>
        <time>2021-09-07T13:38:44Z</time>
      </trkpt>
      <trkpt lat="44.433" lon="5.57008">
        <ele>1090.9</ele>
        <time>2021-09-07T13:38:45Z</time>
      </trkpt>
      <trkpt lat="44.433" lon="5.57009">
        <ele>1090.9</ele>
        <time>2021-09-07T13:38:46Z</time>
      </trkpt>
      <trkpt lat="44.433" lon="5.5701">
        <ele>1090.9</ele>
        <time>2021-09-07T13:38:47Z</time>
      </trkpt>
      <trkpt lat="44.433" lon="5.5701">
        <ele>1090.9</ele>
        <time>2021-09-07T13:38:48Z</time>
      </trkpt>
      <trkpt lat="44.433" lon="5.5701">
        <ele>1090.9</ele>
        <time>2021-09-07T13:38:49Z</time>
      </trkpt>
      <trkpt lat="44.43301" lon="5.57013">
        <ele>1091.2</ele>
        <time>2021-09-07T13:38:50Z</time>
      </trkpt>
      <trkpt lat="44.43301" lon="5.57015">
        <ele>1091.2</ele>
        <time>2021-09-07T13:38:51Z</time>
      </trkpt>
      <trkpt lat="44.43301" lon="5.57017">
        <ele>1091.6</ele>
        <time>2021-09-07T13:38:52Z</time>
      </trkpt>
      <trkpt lat="44.43302" lon="5.57019">
        <ele>1089.8</ele>
        <time>2021-09-07T13:38:53Z</time>
      </trkpt>
      <trkpt lat="44.43302" lon="5.57021">
        <ele>1090.2</ele>
        <time>2021-09-07T13:38:54Z</time>
      </trkpt>
      <trkpt lat="44.43302" lon="5.57023">
        <ele>1090.2</ele>
        <time>2021-09-07T13:38:55Z</time>
      </trkpt>
      <trkpt lat="44.43302" lon="5.57024">
        <ele>1090.3</ele>
        <time>2021-09-07T13:38:56Z</time>
      </trkpt>
      <trkpt lat="44.43302" lon="5.57024">
        <ele>1090.3</ele>
        <time>2021-09-07T13:38:57Z</time>
      </trkpt>
      <trkpt lat="44.43302" lon="5.57025">
        <ele>1090.7</ele>
        <time>2021-09-07T13:38:58Z</time>
      </trkpt>
      <trkpt lat="44.43302" lon="5.57026">
        <ele>1090.7</ele>
        <time>2021-09-07T13:38:59Z</time>
      </trkpt>
      <trkpt lat="44.43302" lon="5.57026">
        <ele>1090.7</ele>
        <time>2021-09-07T13:39:00Z</time>
      </trkpt>
      <trkpt lat="44.43302" lon="5.57026">
        <ele>1090.7</ele>
        <time>2021-09-07T13:39:01Z</time>
      </trkpt>
      <trkpt lat="44.43302" lon="5.57026">
        <ele>1090.8</ele>
        <time>2021-09-07T13:39:02Z</time>
      </trkpt>
      <trkpt lat="44.43302" lon="5.57028">
        <ele>1090.8</ele>
        <time>2021-09-07T13:39:03Z</time>
      </trkpt>
      <trkpt lat="44.43302" lon="5.57029">
        <ele>1091.2</ele>
        <time>2021-09-07T13:39:04Z</time>
      </trkpt>
      <trkpt lat="44.43301" lon="5.5703">
        <ele>1093</ele>
        <time>2021-09-07T13:39:05Z</time>
      </trkpt>
      <trkpt lat="44.43299" lon="5.57034">
        <ele>1093.5</ele>
        <time>2021-09-07T13:39:06Z</time>
      </trkpt>
      <trkpt lat="44.43298" lon="5.57036">
        <ele>1095.1</ele>
        <time>2021-09-07T13:39:07Z</time>
      </trkpt>
      <trkpt lat="44.43297" lon="5.57037">
        <ele>1095.6</ele>
        <time>2021-09-07T13:39:08Z</time>
      </trkpt>
      <trkpt lat="44.43296" lon="5.57038">
        <ele>1095.6</ele>
        <time>2021-09-07T13:39:09Z</time>
      </trkpt>
      <trkpt lat="44.43296" lon="5.57039">
        <ele>1095.6</ele>
        <time>2021-09-07T13:39:10Z</time>
      </trkpt>
      <trkpt lat="44.43294" lon="5.57041">
        <ele>1097.1</ele>
        <time>2021-09-07T13:39:11Z</time>
      </trkpt>
      <trkpt lat="44.43293" lon="5.57041">
        <ele>1097.1</ele>
        <time>2021-09-07T13:39:12Z</time>
      </trkpt>
      <trkpt lat="44.43292" lon="5.57042">
        <ele>1099</ele>
        <time>2021-09-07T13:39:13Z</time>
      </trkpt>
      <trkpt lat="44.43292" lon="5.57042">
        <ele>1099</ele>
        <time>2021-09-07T13:39:14Z</time>
      </trkpt>
      <trkpt lat="44.43292" lon="5.57042">
        <ele>1099</ele>
        <time>2021-09-07T13:39:15Z</time>
      </trkpt>
      <trkpt lat="44.4329" lon="5.57045">
        <ele>1099</ele>
        <time>2021-09-07T13:39:16Z</time>
      </trkpt>
      <trkpt lat="44.43289" lon="5.57047">
        <ele>1101</ele>
        <time>2021-09-07T13:39:17Z</time>
      </trkpt>
      <trkpt lat="44.43289" lon="5.57048">
        <ele>1101</ele>
        <time>2021-09-07T13:39:18Z</time>
      </trkpt>
      <trkpt lat="44.43288" lon="5.57049">
        <ele>1101</ele>
        <time>2021-09-07T13:39:19Z</time>
      </trkpt>
      <trkpt lat="44.43287" lon="5.5705">
        <ele>1101.7</ele>
        <time>2021-09-07T13:39:20Z</time>
      </trkpt>
      <trkpt lat="44.43286" lon="5.57051">
        <ele>1103.1</ele>
        <time>2021-09-07T13:39:21Z</time>
      </trkpt>
      <trkpt lat="44.43285" lon="5.57052">
        <ele>1103.2</ele>
        <time>2021-09-07T13:39:22Z</time>
      </trkpt>
      <trkpt lat="44.43284" lon="5.57052">
        <ele>1103.2</ele>
        <time>2021-09-07T13:39:23Z</time>
      </trkpt>
      <trkpt lat="44.43284" lon="5.57053">
        <ele>1103.2</ele>
        <time>2021-09-07T13:39:24Z</time>
      </trkpt>
      <trkpt lat="44.43283" lon="5.57053">
        <ele>1103.2</ele>
        <time>2021-09-07T13:39:25Z</time>
      </trkpt>
      <trkpt lat="44.43283" lon="5.57054">
        <ele>1103.2</ele>
        <time>2021-09-07T13:39:26Z</time>
      </trkpt>
      <trkpt lat="44.43282" lon="5.57054">
        <ele>1104.7</ele>
        <time>2021-09-07T13:39:27Z</time>
      </trkpt>
      <trkpt lat="44.43282" lon="5.57053">
        <ele>1104.7</ele>
        <time>2021-09-07T13:39:28Z</time>
      </trkpt>
      <trkpt lat="44.43282" lon="5.57052">
        <ele>1104.7</ele>
        <time>2021-09-07T13:39:29Z</time>
      </trkpt>
      <trkpt lat="44.43282" lon="5.57052">
        <ele>1104.8</ele>
        <time>2021-09-07T13:39:30Z</time>
      </trkpt>
      <trkpt lat="44.43281" lon="5.57052">
        <ele>1104.8</ele>
        <time>2021-09-07T13:39:31Z</time>
      </trkpt>
      <trkpt lat="44.43281" lon="5.57051">
        <ele>1104.8</ele>
        <time>2021-09-07T13:39:32Z</time>
      </trkpt>
      <trkpt lat="44.43281" lon="5.57051">
        <ele>1104.8</ele>
        <time>2021-09-07T13:39:33Z</time>
      </trkpt>
      <trkpt lat="44.43281" lon="5.57051">
        <ele>1104.8</ele>
        <time>2021-09-07T13:39:34Z</time>
      </trkpt>
      <trkpt lat="44.4328" lon="5.5705">
        <ele>1104.8</ele>
        <time>2021-09-07T13:39:35Z</time>
      </trkpt>
      <trkpt lat="44.4328" lon="5.5705">
        <ele>1104.8</ele>
        <time>2021-09-07T13:39:36Z</time>
      </trkpt>
      <trkpt lat="44.4328" lon="5.5705">
        <ele>1104.8</ele>
        <time>2021-09-07T13:39:37Z</time>
      </trkpt>
      <trkpt lat="44.4328" lon="5.5705">
        <ele>1104.8</ele>
        <time>2021-09-07T13:39:38Z</time>
      </trkpt>
      <trkpt lat="44.4328" lon="5.5705">
        <ele>1104.9</ele>
        <time>2021-09-07T13:39:39Z</time>
      </trkpt>
      <trkpt lat="44.4328" lon="5.5705">
        <ele>1104.9</ele>
        <time>2021-09-07T13:39:40Z</time>
      </trkpt>
      <trkpt lat="44.4328" lon="5.5705">
        <ele>1104.9</ele>
        <time>2021-09-07T13:39:41Z</time>
      </trkpt>
      <trkpt lat="44.4328" lon="5.5705">
        <ele>1104.9</ele>
        <time>2021-09-07T13:39:42Z</time>
      </trkpt>
      <trkpt lat="44.4328" lon="5.5705">
        <ele>1104.9</ele>
        <time>2021-09-07T13:39:43Z</time>
      </trkpt>
      <trkpt lat="44.4328" lon="5.5705">
        <ele>1104.9</ele>
        <time>2021-09-07T13:39:44Z</time>
      </trkpt>
      <trkpt lat="44.4328" lon="5.57049">
        <ele>1104.4</ele>
        <time>2021-09-07T13:39:45Z</time>
      </trkpt>
      <trkpt lat="44.4328" lon="5.57048">
        <ele>1105.9</ele>
        <time>2021-09-07T13:39:46Z</time>
      </trkpt>
      <trkpt lat="44.43279" lon="5.57047">
        <ele>1105.9</ele>
        <time>2021-09-07T13:39:47Z</time>
      </trkpt>
      <trkpt lat="44.43279" lon="5.57044">
        <ele>1105.4</ele>
        <time>2021-09-07T13:39:48Z</time>
      </trkpt>
      <trkpt lat="44.43278" lon="5.57041">
        <ele>1105</ele>
        <time>2021-09-07T13:39:49Z</time>
      </trkpt>
      <trkpt lat="44.43278" lon="5.57041">
        <ele>1105</ele>
        <time>2021-09-07T13:39:50Z</time>
      </trkpt>
      <trkpt lat="44.43278" lon="5.5704">
        <ele>1105</ele>
        <time>2021-09-07T13:39:51Z</time>
      </trkpt>
      <trkpt lat="44.43278" lon="5.57038">
        <ele>1105.1</ele>
        <time>2021-09-07T13:39:52Z</time>
      </trkpt>
      <trkpt lat="44.43278" lon="5.57038">
        <ele>1105.1</ele>
        <time>2021-09-07T13:39:53Z</time>
      </trkpt>
      <trkpt lat="44.43278" lon="5.57037">
        <ele>1105.1</ele>
        <time>2021-09-07T13:39:54Z</time>
      </trkpt>
      <trkpt lat="44.43277" lon="5.57036">
        <ele>1104.7</ele>
        <time>2021-09-07T13:39:55Z</time>
      </trkpt>
      <trkpt lat="44.43277" lon="5.57036">
        <ele>1104.7</ele>
        <time>2021-09-07T13:39:56Z</time>
      </trkpt>
      <trkpt lat="44.43276" lon="5.57033">
        <ele>1106.2</ele>
        <time>2021-09-07T13:39:57Z</time>
      </trkpt>
      <trkpt lat="44.43276" lon="5.57032">
        <ele>1105.9</ele>
        <time>2021-09-07T13:39:58Z</time>
      </trkpt>
      <trkpt lat="44.43276" lon="5.57031">
        <ele>1105.9</ele>
        <time>2021-09-07T13:39:59Z</time>
      </trkpt>
      <trkpt lat="44.43276" lon="5.57027">
        <ele>1105.5</ele>
        <time>2021-09-07T13:40:00Z</time>
      </trkpt>
      <trkpt lat="44.43276" lon="5.57026">
        <ele>1105.6</ele>
        <time>2021-09-07T13:40:01Z</time>
      </trkpt>
      <trkpt lat="44.43275" lon="5.57025">
        <ele>1105.6</ele>
        <time>2021-09-07T13:40:02Z</time>
      </trkpt>
      <trkpt lat="44.43275" lon="5.57024">
        <ele>1105.2</ele>
        <time>2021-09-07T13:40:03Z</time>
      </trkpt>
      <trkpt lat="44.43275" lon="5.57023">
        <ele>1105.3</ele>
        <time>2021-09-07T13:40:04Z</time>
      </trkpt>
      <trkpt lat="44.43275" lon="5.57022">
        <ele>1105.3</ele>
        <time>2021-09-07T13:40:05Z</time>
      </trkpt>
      <trkpt lat="44.43275" lon="5.57022">
        <ele>1105.3</ele>
        <time>2021-09-07T13:40:06Z</time>
      </trkpt>
      <trkpt lat="44.43275" lon="5.57021">
        <ele>1105.3</ele>
        <time>2021-09-07T13:40:07Z</time>
      </trkpt>
      <trkpt lat="44.43275" lon="5.57021">
        <ele>1105.3</ele>
        <time>2021-09-07T13:40:08Z</time>
      </trkpt>
      <trkpt lat="44.43275" lon="5.57021">
        <ele>1105.3</ele>
        <time>2021-09-07T13:40:09Z</time>
      </trkpt>
      <trkpt lat="44.43275" lon="5.5702">
        <ele>1105.3</ele>
        <time>2021-09-07T13:40:10Z</time>
      </trkpt>
      <trkpt lat="44.43275" lon="5.5702">
        <ele>1105.3</ele>
        <time>2021-09-07T13:40:11Z</time>
      </trkpt>
      <trkpt lat="44.43275" lon="5.5702">
        <ele>1105.3</ele>
        <time>2021-09-07T13:40:12Z</time>
      </trkpt>
      <trkpt lat="44.43275" lon="5.5702">
        <ele>1105.3</ele>
        <time>2021-09-07T13:40:13Z</time>
      </trkpt>
      <trkpt lat="44.43274" lon="5.5702">
        <ele>1105.4</ele>
        <time>2021-09-07T13:40:14Z</time>
      </trkpt>
      <trkpt lat="44.43274" lon="5.5702">
        <ele>1105.4</ele>
        <time>2021-09-07T13:40:15Z</time>
      </trkpt>
      <trkpt lat="44.43274" lon="5.57019">
        <ele>1105.1</ele>
        <time>2021-09-07T13:40:16Z</time>
      </trkpt>
      <trkpt lat="44.43274" lon="5.57018">
        <ele>1105.1</ele>
        <time>2021-09-07T13:40:17Z</time>
      </trkpt>
      <trkpt lat="44.43273" lon="5.57015">
        <ele>1106.3</ele>
        <time>2021-09-07T13:40:18Z</time>
      </trkpt>
      <trkpt lat="44.43273" lon="5.57013">
        <ele>1106.3</ele>
        <time>2021-09-07T13:40:19Z</time>
      </trkpt>
      <trkpt lat="44.43273" lon="5.57012">
        <ele>1106.4</ele>
        <time>2021-09-07T13:40:20Z</time>
      </trkpt>
      <trkpt lat="44.43272" lon="5.57011">
        <ele>1106.2</ele>
        <time>2021-09-07T13:40:21Z</time>
      </trkpt>
      <trkpt lat="44.43272" lon="5.5701">
        <ele>1106.2</ele>
        <time>2021-09-07T13:40:22Z</time>
      </trkpt>
      <trkpt lat="44.43272" lon="5.57009">
        <ele>1106.2</ele>
        <time>2021-09-07T13:40:23Z</time>
      </trkpt>
      <trkpt lat="44.43271" lon="5.57008">
        <ele>1106.2</ele>
        <time>2021-09-07T13:40:24Z</time>
      </trkpt>
      <trkpt lat="44.43271" lon="5.57008">
        <ele>1106.2</ele>
        <time>2021-09-07T13:40:25Z</time>
      </trkpt>
      <trkpt lat="44.43271" lon="5.57008">
        <ele>1106.2</ele>
        <time>2021-09-07T13:40:26Z</time>
      </trkpt>
      <trkpt lat="44.43271" lon="5.57007">
        <ele>1106.2</ele>
        <time>2021-09-07T13:40:27Z</time>
      </trkpt>
      <trkpt lat="44.43271" lon="5.57006">
        <ele>1106</ele>
        <time>2021-09-07T13:40:28Z</time>
      </trkpt>
      <trkpt lat="44.4327" lon="5.57004">
        <ele>1107.4</ele>
        <time>2021-09-07T13:40:29Z</time>
      </trkpt>
      <trkpt lat="44.4327" lon="5.57003">
        <ele>1107.4</ele>
        <time>2021-09-07T13:40:30Z</time>
      </trkpt>
      <trkpt lat="44.43269" lon="5.57002">
        <ele>1107.4</ele>
        <time>2021-09-07T13:40:31Z</time>
      </trkpt>
      <trkpt lat="44.43268" lon="5.57">
        <ele>1107.4</ele>
        <time>2021-09-07T13:40:32Z</time>
      </trkpt>
      <trkpt lat="44.43267" lon="5.56998">
        <ele>1108.8</ele>
        <time>2021-09-07T13:40:33Z</time>
      </trkpt>
      <trkpt lat="44.43267" lon="5.56996">
        <ele>1108.8</ele>
        <time>2021-09-07T13:40:34Z</time>
      </trkpt>
      <trkpt lat="44.43267" lon="5.56995">
        <ele>1108.8</ele>
        <time>2021-09-07T13:40:35Z</time>
      </trkpt>
      <trkpt lat="44.43267" lon="5.56993">
        <ele>1108.8</ele>
        <time>2021-09-07T13:40:36Z</time>
      </trkpt>
      <trkpt lat="44.43267" lon="5.56993">
        <ele>1108.8</ele>
        <time>2021-09-07T13:40:37Z</time>
      </trkpt>
      <trkpt lat="44.43266" lon="5.56992">
        <ele>1108.8</ele>
        <time>2021-09-07T13:40:38Z</time>
      </trkpt>
      <trkpt lat="44.43266" lon="5.56992">
        <ele>1108.8</ele>
        <time>2021-09-07T13:40:39Z</time>
      </trkpt>
      <trkpt lat="44.43266" lon="5.56991">
        <ele>1108.9</ele>
        <time>2021-09-07T13:40:40Z</time>
      </trkpt>
      <trkpt lat="44.43266" lon="5.56991">
        <ele>1108.9</ele>
        <time>2021-09-07T13:40:41Z</time>
      </trkpt>
      <trkpt lat="44.43266" lon="5.5699">
        <ele>1108.9</ele>
        <time>2021-09-07T13:40:42Z</time>
      </trkpt>
      <trkpt lat="44.43265" lon="5.56989">
        <ele>1108.9</ele>
        <time>2021-09-07T13:40:43Z</time>
      </trkpt>
      <trkpt lat="44.43263" lon="5.56988">
        <ele>1110.4</ele>
        <time>2021-09-07T13:40:44Z</time>
      </trkpt>
      <trkpt lat="44.43261" lon="5.56986">
        <ele>1111.8</ele>
        <time>2021-09-07T13:40:45Z</time>
      </trkpt>
      <trkpt lat="44.4326" lon="5.56985">
        <ele>1112</ele>
        <time>2021-09-07T13:40:46Z</time>
      </trkpt>
      <trkpt lat="44.4326" lon="5.56985">
        <ele>1112</ele>
        <time>2021-09-07T13:40:47Z</time>
      </trkpt>
      <trkpt lat="44.43259" lon="5.56984">
        <ele>1112</ele>
        <time>2021-09-07T13:40:48Z</time>
      </trkpt>
      <trkpt lat="44.43259" lon="5.56983">
        <ele>1112</ele>
        <time>2021-09-07T13:40:49Z</time>
      </trkpt>
      <trkpt lat="44.43258" lon="5.56981">
        <ele>1113.7</ele>
        <time>2021-09-07T13:40:50Z</time>
      </trkpt>
      <trkpt lat="44.43258" lon="5.56981">
        <ele>1113.8</ele>
        <time>2021-09-07T13:40:51Z</time>
      </trkpt>
      <trkpt lat="44.43258" lon="5.56981">
        <ele>1113.8</ele>
        <time>2021-09-07T13:40:52Z</time>
      </trkpt>
      <trkpt lat="44.43258" lon="5.5698">
        <ele>1113.8</ele>
        <time>2021-09-07T13:40:53Z</time>
      </trkpt>
      <trkpt lat="44.43258" lon="5.5698">
        <ele>1113.8</ele>
        <time>2021-09-07T13:40:54Z</time>
      </trkpt>
      <trkpt lat="44.43258" lon="5.5698">
        <ele>1113.8</ele>
        <time>2021-09-07T13:40:55Z</time>
      </trkpt>
      <trkpt lat="44.43258" lon="5.5698">
        <ele>1113.8</ele>
        <time>2021-09-07T13:40:56Z</time>
      </trkpt>
      <trkpt lat="44.43258" lon="5.5698">
        <ele>1113.8</ele>
        <time>2021-09-07T13:40:57Z</time>
      </trkpt>
      <trkpt lat="44.43258" lon="5.5698">
        <ele>1113.8</ele>
        <time>2021-09-07T13:40:58Z</time>
      </trkpt>
      <trkpt lat="44.43258" lon="5.5698">
        <ele>1113.8</ele>
        <time>2021-09-07T13:40:59Z</time>
      </trkpt>
      <trkpt lat="44.43258" lon="5.5698">
        <ele>1113.8</ele>
        <time>2021-09-07T13:41:00Z</time>
      </trkpt>
      <trkpt lat="44.43258" lon="5.5698">
        <ele>1113.9</ele>
        <time>2021-09-07T13:41:01Z</time>
      </trkpt>
      <trkpt lat="44.43258" lon="5.5698">
        <ele>1113.9</ele>
        <time>2021-09-07T13:41:02Z</time>
      </trkpt>
      <trkpt lat="44.43258" lon="5.5698">
        <ele>1113.9</ele>
        <time>2021-09-07T13:41:03Z</time>
      </trkpt>
      <trkpt lat="44.43258" lon="5.5698">
        <ele>1113.9</ele>
        <time>2021-09-07T13:41:04Z</time>
      </trkpt>
      <trkpt lat="44.43258" lon="5.5698">
        <ele>1113.9</ele>
        <time>2021-09-07T13:41:05Z</time>
      </trkpt>
      <trkpt lat="44.43258" lon="5.5698">
        <ele>1113.9</ele>
        <time>2021-09-07T13:41:06Z</time>
      </trkpt>
      <trkpt lat="44.43258" lon="5.5698">
        <ele>1113.9</ele>
        <time>2021-09-07T13:41:07Z</time>
      </trkpt>
      <trkpt lat="44.43258" lon="5.5698">
        <ele>1113.9</ele>
        <time>2021-09-07T13:41:08Z</time>
      </trkpt>
      <trkpt lat="44.43258" lon="5.56979">
        <ele>1113.9</ele>
        <time>2021-09-07T13:41:09Z</time>
      </trkpt>
      <trkpt lat="44.43258" lon="5.56982">
        <ele>1113.7</ele>
        <time>2021-09-07T13:41:10Z</time>
      </trkpt>
      <trkpt lat="44.43258" lon="5.56984">
        <ele>1113.7</ele>
        <time>2021-09-07T13:41:11Z</time>
      </trkpt>
      <trkpt lat="44.43258" lon="5.56985">
        <ele>1113.7</ele>
        <time>2021-09-07T13:41:12Z</time>
      </trkpt>
      <trkpt lat="44.43258" lon="5.56987">
        <ele>1113.6</ele>
        <time>2021-09-07T13:41:13Z</time>
      </trkpt>
      <trkpt lat="44.43258" lon="5.56989">
        <ele>1113.6</ele>
        <time>2021-09-07T13:41:14Z</time>
      </trkpt>
      <trkpt lat="44.43259" lon="5.56991">
        <ele>1112</ele>
        <time>2021-09-07T13:41:15Z</time>
      </trkpt>
      <trkpt lat="44.43259" lon="5.56992">
        <ele>1112</ele>
        <time>2021-09-07T13:41:16Z</time>
      </trkpt>
      <trkpt lat="44.43259" lon="5.56993">
        <ele>1112</ele>
        <time>2021-09-07T13:41:17Z</time>
      </trkpt>
      <trkpt lat="44.43259" lon="5.56993">
        <ele>1112.1</ele>
        <time>2021-09-07T13:41:18Z</time>
      </trkpt>
      <trkpt lat="44.43259" lon="5.56994">
        <ele>1112</ele>
        <time>2021-09-07T13:41:19Z</time>
      </trkpt>
      <trkpt lat="44.43259" lon="5.56994">
        <ele>1112</ele>
        <time>2021-09-07T13:41:20Z</time>
      </trkpt>
      <trkpt lat="44.4326" lon="5.56995">
        <ele>1112</ele>
        <time>2021-09-07T13:41:21Z</time>
      </trkpt>
      <trkpt lat="44.4326" lon="5.56996">
        <ele>1112</ele>
        <time>2021-09-07T13:41:22Z</time>
      </trkpt>
      <trkpt lat="44.4326" lon="5.56999">
        <ele>1112</ele>
        <time>2021-09-07T13:41:23Z</time>
      </trkpt>
      <trkpt lat="44.4326" lon="5.57004">
        <ele>1112.1</ele>
        <time>2021-09-07T13:41:24Z</time>
      </trkpt>
      <trkpt lat="44.4326" lon="5.57006">
        <ele>1112.1</ele>
        <time>2021-09-07T13:41:25Z</time>
      </trkpt>
      <trkpt lat="44.4326" lon="5.57007">
        <ele>1112.2</ele>
        <time>2021-09-07T13:41:26Z</time>
      </trkpt>
      <trkpt lat="44.4326" lon="5.57009">
        <ele>1112.2</ele>
        <time>2021-09-07T13:41:27Z</time>
      </trkpt>
      <trkpt lat="44.4326" lon="5.57011">
        <ele>1112.2</ele>
        <time>2021-09-07T13:41:28Z</time>
      </trkpt>
      <trkpt lat="44.4326" lon="5.57012">
        <ele>1112.3</ele>
        <time>2021-09-07T13:41:29Z</time>
      </trkpt>
      <trkpt lat="44.4326" lon="5.57012">
        <ele>1112.3</ele>
        <time>2021-09-07T13:41:30Z</time>
      </trkpt>
      <trkpt lat="44.4326" lon="5.57013">
        <ele>1112.3</ele>
        <time>2021-09-07T13:41:31Z</time>
      </trkpt>
      <trkpt lat="44.4326" lon="5.57013">
        <ele>1112.3</ele>
        <time>2021-09-07T13:41:32Z</time>
      </trkpt>
      <trkpt lat="44.4326" lon="5.57013">
        <ele>1112.3</ele>
        <time>2021-09-07T13:41:33Z</time>
      </trkpt>
      <trkpt lat="44.43261" lon="5.57014">
        <ele>1112.4</ele>
        <time>2021-09-07T13:41:34Z</time>
      </trkpt>
      <trkpt lat="44.43261" lon="5.57014">
        <ele>1112.4</ele>
        <time>2021-09-07T13:41:35Z</time>
      </trkpt>
      <trkpt lat="44.43261" lon="5.57014">
        <ele>1112.4</ele>
        <time>2021-09-07T13:41:36Z</time>
      </trkpt>
      <trkpt lat="44.43261" lon="5.57015">
        <ele>1112.4</ele>
        <time>2021-09-07T13:41:37Z</time>
      </trkpt>
      <trkpt lat="44.43261" lon="5.57015">
        <ele>1112.4</ele>
        <time>2021-09-07T13:41:38Z</time>
      </trkpt>
      <trkpt lat="44.4326" lon="5.57015">
        <ele>1112.4</ele>
        <time>2021-09-07T13:41:39Z</time>
      </trkpt>
      <trkpt lat="44.4326" lon="5.57015">
        <ele>1112.4</ele>
        <time>2021-09-07T13:41:40Z</time>
      </trkpt>
      <trkpt lat="44.4326" lon="5.57015">
        <ele>1112.4</ele>
        <time>2021-09-07T13:41:41Z</time>
      </trkpt>
      <trkpt lat="44.4326" lon="5.57015">
        <ele>1112.4</ele>
        <time>2021-09-07T13:41:42Z</time>
      </trkpt>
      <trkpt lat="44.4326" lon="5.57016">
        <ele>1112.6</ele>
        <time>2021-09-07T13:41:43Z</time>
      </trkpt>
      <trkpt lat="44.4326" lon="5.57016">
        <ele>1112.6</ele>
        <time>2021-09-07T13:41:44Z</time>
      </trkpt>
      <trkpt lat="44.4326" lon="5.57016">
        <ele>1112.6</ele>
        <time>2021-09-07T13:41:45Z</time>
      </trkpt>
      <trkpt lat="44.4326" lon="5.57016">
        <ele>1112.6</ele>
        <time>2021-09-07T13:41:46Z</time>
      </trkpt>
      <trkpt lat="44.4326" lon="5.57016">
        <ele>1112.6</ele>
        <time>2021-09-07T13:41:47Z</time>
      </trkpt>
      <trkpt lat="44.4326" lon="5.57016">
        <ele>1112.7</ele>
        <time>2021-09-07T13:41:48Z</time>
      </trkpt>
      <trkpt lat="44.4326" lon="5.57016">
        <ele>1112.7</ele>
        <time>2021-09-07T13:41:49Z</time>
      </trkpt>
      <trkpt lat="44.4326" lon="5.57016">
        <ele>1112.7</ele>
        <time>2021-09-07T13:41:50Z</time>
      </trkpt>
      <trkpt lat="44.4326" lon="5.57016">
        <ele>1112.7</ele>
        <time>2021-09-07T13:41:51Z</time>
      </trkpt>
      <trkpt lat="44.4326" lon="5.57016">
        <ele>1112.7</ele>
        <time>2021-09-07T13:41:52Z</time>
      </trkpt>
      <trkpt lat="44.43261" lon="5.57016">
        <ele>1112.7</ele>
        <time>2021-09-07T13:41:53Z</time>
      </trkpt>
      <trkpt lat="44.4326" lon="5.57016">
        <ele>1112.7</ele>
        <time>2021-09-07T13:41:54Z</time>
      </trkpt>
      <trkpt lat="44.4326" lon="5.57016">
        <ele>1112.7</ele>
        <time>2021-09-07T13:41:55Z</time>
      </trkpt>
      <trkpt lat="44.4326" lon="5.57016">
        <ele>1112.7</ele>
        <time>2021-09-07T13:41:56Z</time>
      </trkpt>
      <trkpt lat="44.4326" lon="5.57016">
        <ele>1112.7</ele>
        <time>2021-09-07T13:41:57Z</time>
      </trkpt>
      <trkpt lat="44.4326" lon="5.57018">
        <ele>1112.8</ele>
        <time>2021-09-07T13:41:58Z</time>
      </trkpt>
      <trkpt lat="44.4326" lon="5.5702">
        <ele>1112.8</ele>
        <time>2021-09-07T13:41:59Z</time>
      </trkpt>
      <trkpt lat="44.43259" lon="5.57021">
        <ele>1113</ele>
        <time>2021-09-07T13:42:00Z</time>
      </trkpt>
      <trkpt lat="44.43258" lon="5.57024">
        <ele>1114.2</ele>
        <time>2021-09-07T13:42:01Z</time>
      </trkpt>
      <trkpt lat="44.43256" lon="5.57028">
        <ele>1114.4</ele>
        <time>2021-09-07T13:42:02Z</time>
      </trkpt>
      <trkpt lat="44.43256" lon="5.5703">
        <ele>1114.6</ele>
        <time>2021-09-07T13:42:03Z</time>
      </trkpt>
      <trkpt lat="44.43255" lon="5.57031">
        <ele>1115.8</ele>
        <time>2021-09-07T13:42:04Z</time>
      </trkpt>
      <trkpt lat="44.43254" lon="5.57033">
        <ele>1116</ele>
        <time>2021-09-07T13:42:05Z</time>
      </trkpt>
      <trkpt lat="44.43254" lon="5.57034">
        <ele>1116</ele>
        <time>2021-09-07T13:42:06Z</time>
      </trkpt>
      <trkpt lat="44.43254" lon="5.57035">
        <ele>1116</ele>
        <time>2021-09-07T13:42:07Z</time>
      </trkpt>
      <trkpt lat="44.43254" lon="5.57035">
        <ele>1116</ele>
        <time>2021-09-07T13:42:08Z</time>
      </trkpt>
      <trkpt lat="44.43253" lon="5.57036">
        <ele>1116</ele>
        <time>2021-09-07T13:42:09Z</time>
      </trkpt>
      <trkpt lat="44.43253" lon="5.57036">
        <ele>1116</ele>
        <time>2021-09-07T13:42:10Z</time>
      </trkpt>
      <trkpt lat="44.43253" lon="5.57037">
        <ele>1116.2</ele>
        <time>2021-09-07T13:42:11Z</time>
      </trkpt>
      <trkpt lat="44.43253" lon="5.57037">
        <ele>1116.2</ele>
        <time>2021-09-07T13:42:12Z</time>
      </trkpt>
      <trkpt lat="44.43253" lon="5.57037">
        <ele>1116.2</ele>
        <time>2021-09-07T13:42:13Z</time>
      </trkpt>
      <trkpt lat="44.43253" lon="5.57037">
        <ele>1116.2</ele>
        <time>2021-09-07T13:42:14Z</time>
      </trkpt>
      <trkpt lat="44.43253" lon="5.57037">
        <ele>1116.3</ele>
        <time>2021-09-07T13:42:15Z</time>
      </trkpt>
      <trkpt lat="44.43253" lon="5.57037">
        <ele>1116.3</ele>
        <time>2021-09-07T13:42:16Z</time>
      </trkpt>
      <trkpt lat="44.43253" lon="5.57037">
        <ele>1116.3</ele>
        <time>2021-09-07T13:42:17Z</time>
      </trkpt>
      <trkpt lat="44.43253" lon="5.57037">
        <ele>1116.3</ele>
        <time>2021-09-07T13:42:18Z</time>
      </trkpt>
      <trkpt lat="44.43253" lon="5.57037">
        <ele>1116.3</ele>
        <time>2021-09-07T13:42:19Z</time>
      </trkpt>
      <trkpt lat="44.43253" lon="5.57037">
        <ele>1116.3</ele>
        <time>2021-09-07T13:42:20Z</time>
      </trkpt>
      <trkpt lat="44.43253" lon="5.57037">
        <ele>1116.3</ele>
        <time>2021-09-07T13:42:21Z</time>
      </trkpt>
      <trkpt lat="44.43253" lon="5.57037">
        <ele>1116.3</ele>
        <time>2021-09-07T13:42:22Z</time>
      </trkpt>
      <trkpt lat="44.43252" lon="5.57039">
        <ele>1117.4</ele>
        <time>2021-09-07T13:42:23Z</time>
      </trkpt>
      <trkpt lat="44.43252" lon="5.5704">
        <ele>1117.4</ele>
        <time>2021-09-07T13:42:24Z</time>
      </trkpt>
      <trkpt lat="44.43251" lon="5.5704">
        <ele>1117.4</ele>
        <time>2021-09-07T13:42:25Z</time>
      </trkpt>
      <trkpt lat="44.43251" lon="5.57041">
        <ele>1117.4</ele>
        <time>2021-09-07T13:42:26Z</time>
      </trkpt>
      <trkpt lat="44.43249" lon="5.57043">
        <ele>1118.5</ele>
        <time>2021-09-07T13:42:27Z</time>
      </trkpt>
      <trkpt lat="44.43248" lon="5.57044">
        <ele>1118.5</ele>
        <time>2021-09-07T13:42:28Z</time>
      </trkpt>
      <trkpt lat="44.43248" lon="5.57045">
        <ele>1118.5</ele>
        <time>2021-09-07T13:42:29Z</time>
      </trkpt>
      <trkpt lat="44.43247" lon="5.57045">
        <ele>1118.5</ele>
        <time>2021-09-07T13:42:30Z</time>
      </trkpt>
      <trkpt lat="44.43247" lon="5.57045">
        <ele>1118.5</ele>
        <time>2021-09-07T13:42:31Z</time>
      </trkpt>
      <trkpt lat="44.43246" lon="5.57046">
        <ele>1119.5</ele>
        <time>2021-09-07T13:42:32Z</time>
      </trkpt>
      <trkpt lat="44.43246" lon="5.57046">
        <ele>1119.5</ele>
        <time>2021-09-07T13:42:33Z</time>
      </trkpt>
      <trkpt lat="44.43246" lon="5.57046">
        <ele>1119.5</ele>
        <time>2021-09-07T13:42:34Z</time>
      </trkpt>
      <trkpt lat="44.43246" lon="5.57047">
        <ele>1119.5</ele>
        <time>2021-09-07T13:42:35Z</time>
      </trkpt>
      <trkpt lat="44.43246" lon="5.57047">
        <ele>1119.5</ele>
        <time>2021-09-07T13:42:36Z</time>
      </trkpt>
      <trkpt lat="44.43246" lon="5.57046">
        <ele>1119.5</ele>
        <time>2021-09-07T13:42:37Z</time>
      </trkpt>
      <trkpt lat="44.43246" lon="5.57045">
        <ele>1119.6</ele>
        <time>2021-09-07T13:42:38Z</time>
      </trkpt>
      <trkpt lat="44.43246" lon="5.57044">
        <ele>1119.6</ele>
        <time>2021-09-07T13:42:39Z</time>
      </trkpt>
      <trkpt lat="44.43246" lon="5.57042">
        <ele>1119.7</ele>
        <time>2021-09-07T13:42:40Z</time>
      </trkpt>
      <trkpt lat="44.43246" lon="5.57039">
        <ele>1119.8</ele>
        <time>2021-09-07T13:42:41Z</time>
      </trkpt>
      <trkpt lat="44.43246" lon="5.57037">
        <ele>1119.8</ele>
        <time>2021-09-07T13:42:42Z</time>
      </trkpt>
      <trkpt lat="44.43246" lon="5.57036">
        <ele>1119.8</ele>
        <time>2021-09-07T13:42:43Z</time>
      </trkpt>
      <trkpt lat="44.43246" lon="5.57035">
        <ele>1119.9</ele>
        <time>2021-09-07T13:42:44Z</time>
      </trkpt>
      <trkpt lat="44.43246" lon="5.57034">
        <ele>1119.9</ele>
        <time>2021-09-07T13:42:45Z</time>
      </trkpt>
      <trkpt lat="44.43246" lon="5.57033">
        <ele>1119.9</ele>
        <time>2021-09-07T13:42:46Z</time>
      </trkpt>
      <trkpt lat="44.43246" lon="5.57032">
        <ele>1120</ele>
        <time>2021-09-07T13:42:47Z</time>
      </trkpt>
      <trkpt lat="44.43246" lon="5.57031">
        <ele>1120</ele>
        <time>2021-09-07T13:42:48Z</time>
      </trkpt>
      <trkpt lat="44.43245" lon="5.5703">
        <ele>1120</ele>
        <time>2021-09-07T13:42:49Z</time>
      </trkpt>
      <trkpt lat="44.43245" lon="5.57028">
        <ele>1120.1</ele>
        <time>2021-09-07T13:42:50Z</time>
      </trkpt>
      <trkpt lat="44.43244" lon="5.57025">
        <ele>1120.2</ele>
        <time>2021-09-07T13:42:51Z</time>
      </trkpt>
      <trkpt lat="44.43244" lon="5.57024">
        <ele>1120.3</ele>
        <time>2021-09-07T13:42:52Z</time>
      </trkpt>
      <trkpt lat="44.43243" lon="5.57022">
        <ele>1120.3</ele>
        <time>2021-09-07T13:42:53Z</time>
      </trkpt>
      <trkpt lat="44.43243" lon="5.57021">
        <ele>1120.3</ele>
        <time>2021-09-07T13:42:54Z</time>
      </trkpt>
      <trkpt lat="44.43242" lon="5.5702">
        <ele>1120.4</ele>
        <time>2021-09-07T13:42:55Z</time>
      </trkpt>
      <trkpt lat="44.43242" lon="5.5702">
        <ele>1120.4</ele>
        <time>2021-09-07T13:42:56Z</time>
      </trkpt>
      <trkpt lat="44.43242" lon="5.57019">
        <ele>1120.4</ele>
        <time>2021-09-07T13:42:57Z</time>
      </trkpt>
      <trkpt lat="44.43242" lon="5.57018">
        <ele>1120.2</ele>
        <time>2021-09-07T13:42:58Z</time>
      </trkpt>
      <trkpt lat="44.43242" lon="5.57018">
        <ele>1120.2</ele>
        <time>2021-09-07T13:42:59Z</time>
      </trkpt>
      <trkpt lat="44.43242" lon="5.57018">
        <ele>1120.2</ele>
        <time>2021-09-07T13:43:00Z</time>
      </trkpt>
      <trkpt lat="44.43242" lon="5.57018">
        <ele>1120.2</ele>
        <time>2021-09-07T13:43:01Z</time>
      </trkpt>
      <trkpt lat="44.43242" lon="5.57017">
        <ele>1120.2</ele>
        <time>2021-09-07T13:43:02Z</time>
      </trkpt>
      <trkpt lat="44.43242" lon="5.57017">
        <ele>1120.2</ele>
        <time>2021-09-07T13:43:03Z</time>
      </trkpt>
      <trkpt lat="44.43241" lon="5.57017">
        <ele>1120.1</ele>
        <time>2021-09-07T13:43:04Z</time>
      </trkpt>
      <trkpt lat="44.43241" lon="5.57017">
        <ele>1120.1</ele>
        <time>2021-09-07T13:43:05Z</time>
      </trkpt>
      <trkpt lat="44.43241" lon="5.57016">
        <ele>1120.1</ele>
        <time>2021-09-07T13:43:06Z</time>
      </trkpt>
      <trkpt lat="44.43241" lon="5.57014">
        <ele>1119.9</ele>
        <time>2021-09-07T13:43:07Z</time>
      </trkpt>
      <trkpt lat="44.43241" lon="5.5701">
        <ele>1119.7</ele>
        <time>2021-09-07T13:43:08Z</time>
      </trkpt>
      <trkpt lat="44.43241" lon="5.57009">
        <ele>1119.7</ele>
        <time>2021-09-07T13:43:09Z</time>
      </trkpt>
      <trkpt lat="44.4324" lon="5.57008">
        <ele>1119.6</ele>
        <time>2021-09-07T13:43:10Z</time>
      </trkpt>
      <trkpt lat="44.4324" lon="5.57004">
        <ele>1119.4</ele>
        <time>2021-09-07T13:43:11Z</time>
      </trkpt>
      <trkpt lat="44.4324" lon="5.57003">
        <ele>1119.4</ele>
        <time>2021-09-07T13:43:12Z</time>
      </trkpt>
      <trkpt lat="44.43239" lon="5.57002">
        <ele>1119.3</ele>
        <time>2021-09-07T13:43:13Z</time>
      </trkpt>
      <trkpt lat="44.43239" lon="5.57">
        <ele>1119.3</ele>
        <time>2021-09-07T13:43:14Z</time>
      </trkpt>
      <trkpt lat="44.43239" lon="5.56998">
        <ele>1119.2</ele>
        <time>2021-09-07T13:43:15Z</time>
      </trkpt>
      <trkpt lat="44.43238" lon="5.56997">
        <ele>1119.1</ele>
        <time>2021-09-07T13:43:16Z</time>
      </trkpt>
      <trkpt lat="44.43238" lon="5.56995">
        <ele>1119</ele>
        <time>2021-09-07T13:43:17Z</time>
      </trkpt>
      <trkpt lat="44.43238" lon="5.56994">
        <ele>1119</ele>
        <time>2021-09-07T13:43:18Z</time>
      </trkpt>
      <trkpt lat="44.43238" lon="5.56994">
        <ele>1119</ele>
        <time>2021-09-07T13:43:19Z</time>
      </trkpt>
      <trkpt lat="44.43237" lon="5.56993">
        <ele>1118.9</ele>
        <time>2021-09-07T13:43:20Z</time>
      </trkpt>
      <trkpt lat="44.43237" lon="5.56993">
        <ele>1118.9</ele>
        <time>2021-09-07T13:43:21Z</time>
      </trkpt>
      <trkpt lat="44.43237" lon="5.56993">
        <ele>1118.9</ele>
        <time>2021-09-07T13:43:22Z</time>
      </trkpt>
      <trkpt lat="44.43237" lon="5.56993">
        <ele>1118.9</ele>
        <time>2021-09-07T13:43:23Z</time>
      </trkpt>
      <trkpt lat="44.43237" lon="5.56992">
        <ele>1118.9</ele>
        <time>2021-09-07T13:43:24Z</time>
      </trkpt>
      <trkpt lat="44.43237" lon="5.56992">
        <ele>1118.9</ele>
        <time>2021-09-07T13:43:25Z</time>
      </trkpt>
      <trkpt lat="44.43237" lon="5.56989">
        <ele>1118.8</ele>
        <time>2021-09-07T13:43:26Z</time>
      </trkpt>
      <trkpt lat="44.43237" lon="5.56988">
        <ele>1118.7</ele>
        <time>2021-09-07T13:43:27Z</time>
      </trkpt>
      <trkpt lat="44.43236" lon="5.56986">
        <ele>1118.6</ele>
        <time>2021-09-07T13:43:28Z</time>
      </trkpt>
      <trkpt lat="44.43236" lon="5.56983">
        <ele>1118.5</ele>
        <time>2021-09-07T13:43:29Z</time>
      </trkpt>
      <trkpt lat="44.43236" lon="5.56982">
        <ele>1118.4</ele>
        <time>2021-09-07T13:43:30Z</time>
      </trkpt>
      <trkpt lat="44.43235" lon="5.56981">
        <ele>1118.4</ele>
        <time>2021-09-07T13:43:31Z</time>
      </trkpt>
      <trkpt lat="44.43235" lon="5.56981">
        <ele>1118.4</ele>
        <time>2021-09-07T13:43:32Z</time>
      </trkpt>
      <trkpt lat="44.43234" lon="5.56981">
        <ele>1118.5</ele>
        <time>2021-09-07T13:43:33Z</time>
      </trkpt>
      <trkpt lat="44.43234" lon="5.56981">
        <ele>1118.5</ele>
        <time>2021-09-07T13:43:34Z</time>
      </trkpt>
      <trkpt lat="44.43233" lon="5.56981">
        <ele>1118.5</ele>
        <time>2021-09-07T13:43:35Z</time>
      </trkpt>
      <trkpt lat="44.43232" lon="5.56981">
        <ele>1118.6</ele>
        <time>2021-09-07T13:43:36Z</time>
      </trkpt>
      <trkpt lat="44.43231" lon="5.5698">
        <ele>1118.6</ele>
        <time>2021-09-07T13:43:37Z</time>
      </trkpt>
      <trkpt lat="44.43231" lon="5.56981">
        <ele>1118.6</ele>
        <time>2021-09-07T13:43:38Z</time>
      </trkpt>
      <trkpt lat="44.4323" lon="5.56981">
        <ele>1118.7</ele>
        <time>2021-09-07T13:43:39Z</time>
      </trkpt>
      <trkpt lat="44.43229" lon="5.56981">
        <ele>1118.7</ele>
        <time>2021-09-07T13:43:40Z</time>
      </trkpt>
      <trkpt lat="44.43229" lon="5.56981">
        <ele>1118.7</ele>
        <time>2021-09-07T13:43:41Z</time>
      </trkpt>
      <trkpt lat="44.43229" lon="5.56981">
        <ele>1118.7</ele>
        <time>2021-09-07T13:43:42Z</time>
      </trkpt>
      <trkpt lat="44.43228" lon="5.56981">
        <ele>1118.8</ele>
        <time>2021-09-07T13:43:43Z</time>
      </trkpt>
      <trkpt lat="44.43228" lon="5.56981">
        <ele>1118.8</ele>
        <time>2021-09-07T13:43:44Z</time>
      </trkpt>
      <trkpt lat="44.43228" lon="5.56981">
        <ele>1118.8</ele>
        <time>2021-09-07T13:43:45Z</time>
      </trkpt>
      <trkpt lat="44.43228" lon="5.56981">
        <ele>1118.8</ele>
        <time>2021-09-07T13:43:46Z</time>
      </trkpt>
      <trkpt lat="44.43228" lon="5.5698">
        <ele>1118.8</ele>
        <time>2021-09-07T13:43:47Z</time>
      </trkpt>
      <trkpt lat="44.43228" lon="5.5698">
        <ele>1118.8</ele>
        <time>2021-09-07T13:43:48Z</time>
      </trkpt>
      <trkpt lat="44.43228" lon="5.5698">
        <ele>1118.8</ele>
        <time>2021-09-07T13:43:49Z</time>
      </trkpt>
      <trkpt lat="44.43228" lon="5.5698">
        <ele>1118.8</ele>
        <time>2021-09-07T13:43:50Z</time>
      </trkpt>
      <trkpt lat="44.43228" lon="5.5698">
        <ele>1118.8</ele>
        <time>2021-09-07T13:43:51Z</time>
      </trkpt>
      <trkpt lat="44.43227" lon="5.56981">
        <ele>1118.8</ele>
        <time>2021-09-07T13:43:52Z</time>
      </trkpt>
      <trkpt lat="44.43227" lon="5.56982">
        <ele>1118.9</ele>
        <time>2021-09-07T13:43:53Z</time>
      </trkpt>
      <trkpt lat="44.43227" lon="5.56983">
        <ele>1118.9</ele>
        <time>2021-09-07T13:43:54Z</time>
      </trkpt>
      <trkpt lat="44.43227" lon="5.56985">
        <ele>1119</ele>
        <time>2021-09-07T13:43:55Z</time>
      </trkpt>
      <trkpt lat="44.43227" lon="5.56987">
        <ele>1119</ele>
        <time>2021-09-07T13:43:56Z</time>
      </trkpt>
      <trkpt lat="44.43227" lon="5.5699">
        <ele>1119.1</ele>
        <time>2021-09-07T13:43:57Z</time>
      </trkpt>
      <trkpt lat="44.43227" lon="5.56991">
        <ele>1119.2</ele>
        <time>2021-09-07T13:43:58Z</time>
      </trkpt>
      <trkpt lat="44.43227" lon="5.56992">
        <ele>1119.2</ele>
        <time>2021-09-07T13:43:59Z</time>
      </trkpt>
      <trkpt lat="44.43227" lon="5.56993">
        <ele>1119.2</ele>
        <time>2021-09-07T13:44:00Z</time>
      </trkpt>
      <trkpt lat="44.43227" lon="5.56994">
        <ele>1119.3</ele>
        <time>2021-09-07T13:44:01Z</time>
      </trkpt>
      <trkpt lat="44.43227" lon="5.56995">
        <ele>1119.3</ele>
        <time>2021-09-07T13:44:02Z</time>
      </trkpt>
      <trkpt lat="44.43227" lon="5.56995">
        <ele>1119.3</ele>
        <time>2021-09-07T13:44:03Z</time>
      </trkpt>
      <trkpt lat="44.43227" lon="5.56995">
        <ele>1119.3</ele>
        <time>2021-09-07T13:44:04Z</time>
      </trkpt>
      <trkpt lat="44.43227" lon="5.56998">
        <ele>1119.4</ele>
        <time>2021-09-07T13:44:05Z</time>
      </trkpt>
      <trkpt lat="44.43227" lon="5.57001">
        <ele>1119.5</ele>
        <time>2021-09-07T13:44:06Z</time>
      </trkpt>
      <trkpt lat="44.43227" lon="5.57003">
        <ele>1119.6</ele>
        <time>2021-09-07T13:44:07Z</time>
      </trkpt>
      <trkpt lat="44.43227" lon="5.57004">
        <ele>1119.6</ele>
        <time>2021-09-07T13:44:08Z</time>
      </trkpt>
      <trkpt lat="44.43227" lon="5.57007">
        <ele>1119.7</ele>
        <time>2021-09-07T13:44:09Z</time>
      </trkpt>
      <trkpt lat="44.43227" lon="5.5701">
        <ele>1119.8</ele>
        <time>2021-09-07T13:44:10Z</time>
      </trkpt>
      <trkpt lat="44.43227" lon="5.57012">
        <ele>1119.9</ele>
        <time>2021-09-07T13:44:11Z</time>
      </trkpt>
      <trkpt lat="44.43227" lon="5.57013">
        <ele>1120</ele>
        <time>2021-09-07T13:44:12Z</time>
      </trkpt>
      <trkpt lat="44.43227" lon="5.57014">
        <ele>1120</ele>
        <time>2021-09-07T13:44:13Z</time>
      </trkpt>
      <trkpt lat="44.43228" lon="5.57015">
        <ele>1120.1</ele>
        <time>2021-09-07T13:44:14Z</time>
      </trkpt>
      <trkpt lat="44.43228" lon="5.57017">
        <ele>1120.2</ele>
        <time>2021-09-07T13:44:15Z</time>
      </trkpt>
      <trkpt lat="44.43228" lon="5.57018">
        <ele>1120.2</ele>
        <time>2021-09-07T13:44:16Z</time>
      </trkpt>
      <trkpt lat="44.43229" lon="5.5702">
        <ele>1120.3</ele>
        <time>2021-09-07T13:44:17Z</time>
      </trkpt>
      <trkpt lat="44.43229" lon="5.5702">
        <ele>1120.3</ele>
        <time>2021-09-07T13:44:18Z</time>
      </trkpt>
      <trkpt lat="44.43229" lon="5.5702">
        <ele>1120.3</ele>
        <time>2021-09-07T13:44:19Z</time>
      </trkpt>
      <trkpt lat="44.43229" lon="5.5702">
        <ele>1120.3</ele>
        <time>2021-09-07T13:44:20Z</time>
      </trkpt>
      <trkpt lat="44.4323" lon="5.57021">
        <ele>1120.4</ele>
        <time>2021-09-07T13:44:21Z</time>
      </trkpt>
      <trkpt lat="44.4323" lon="5.57021">
        <ele>1120.4</ele>
        <time>2021-09-07T13:44:22Z</time>
      </trkpt>
      <trkpt lat="44.43231" lon="5.57021">
        <ele>1120.5</ele>
        <time>2021-09-07T13:44:23Z</time>
      </trkpt>
      <trkpt lat="44.43231" lon="5.57021">
        <ele>1120.5</ele>
        <time>2021-09-07T13:44:24Z</time>
      </trkpt>
      <trkpt lat="44.43231" lon="5.57021">
        <ele>1120.5</ele>
        <time>2021-09-07T13:44:25Z</time>
      </trkpt>
      <trkpt lat="44.43231" lon="5.57021">
        <ele>1120.5</ele>
        <time>2021-09-07T13:44:26Z</time>
      </trkpt>
      <trkpt lat="44.43231" lon="5.57022">
        <ele>1120.5</ele>
        <time>2021-09-07T13:44:27Z</time>
      </trkpt>
      <trkpt lat="44.43231" lon="5.57022">
        <ele>1120.5</ele>
        <time>2021-09-07T13:44:28Z</time>
      </trkpt>
      <trkpt lat="44.43231" lon="5.57022">
        <ele>1120.5</ele>
        <time>2021-09-07T13:44:29Z</time>
      </trkpt>
      <trkpt lat="44.43231" lon="5.57023">
        <ele>1120.6</ele>
        <time>2021-09-07T13:44:30Z</time>
      </trkpt>
      <trkpt lat="44.43231" lon="5.57024">
        <ele>1120.6</ele>
        <time>2021-09-07T13:44:31Z</time>
      </trkpt>
      <trkpt lat="44.43231" lon="5.57024">
        <ele>1120.6</ele>
        <time>2021-09-07T13:44:32Z</time>
      </trkpt>
      <trkpt lat="44.43231" lon="5.57025">
        <ele>1120.7</ele>
        <time>2021-09-07T13:44:33Z</time>
      </trkpt>
      <trkpt lat="44.4323" lon="5.57025">
        <ele>1120.7</ele>
        <time>2021-09-07T13:44:34Z</time>
      </trkpt>
      <trkpt lat="44.43229" lon="5.57026">
        <ele>1120.8</ele>
        <time>2021-09-07T13:44:35Z</time>
      </trkpt>
      <trkpt lat="44.43228" lon="5.57027">
        <ele>1120.9</ele>
        <time>2021-09-07T13:44:36Z</time>
      </trkpt>
      <trkpt lat="44.43227" lon="5.57028">
        <ele>1121.1</ele>
        <time>2021-09-07T13:44:37Z</time>
      </trkpt>
      <trkpt lat="44.43226" lon="5.57029">
        <ele>1121.1</ele>
        <time>2021-09-07T13:44:38Z</time>
      </trkpt>
      <trkpt lat="44.43224" lon="5.5703">
        <ele>1121.2</ele>
        <time>2021-09-07T13:44:39Z</time>
      </trkpt>
      <trkpt lat="44.43222" lon="5.5703">
        <ele>1121.3</ele>
        <time>2021-09-07T13:44:40Z</time>
      </trkpt>
      <trkpt lat="44.4322" lon="5.57029">
        <ele>1121.4</ele>
        <time>2021-09-07T13:44:41Z</time>
      </trkpt>
      <trkpt lat="44.43218" lon="5.57029">
        <ele>1121.4</ele>
        <time>2021-09-07T13:44:42Z</time>
      </trkpt>
      <trkpt lat="44.43217" lon="5.57029">
        <ele>1121.5</ele>
        <time>2021-09-07T13:44:43Z</time>
      </trkpt>
      <trkpt lat="44.43215" lon="5.57028">
        <ele>1121.6</ele>
        <time>2021-09-07T13:44:44Z</time>
      </trkpt>
      <trkpt lat="44.43214" lon="5.57028">
        <ele>1121.6</ele>
        <time>2021-09-07T13:44:45Z</time>
      </trkpt>
      <trkpt lat="44.43212" lon="5.57028">
        <ele>1121.7</ele>
        <time>2021-09-07T13:44:46Z</time>
      </trkpt>
      <trkpt lat="44.4321" lon="5.57028">
        <ele>1121.7</ele>
        <time>2021-09-07T13:44:47Z</time>
      </trkpt>
      <trkpt lat="44.43207" lon="5.57028">
        <ele>1121.8</ele>
        <time>2021-09-07T13:44:48Z</time>
      </trkpt>
      <trkpt lat="44.43206" lon="5.57029">
        <ele>1121.8</ele>
        <time>2021-09-07T13:44:49Z</time>
      </trkpt>
      <trkpt lat="44.43204" lon="5.57029">
        <ele>1121.8</ele>
        <time>2021-09-07T13:44:50Z</time>
      </trkpt>
      <trkpt lat="44.43203" lon="5.57031">
        <ele>1121.9</ele>
        <time>2021-09-07T13:44:51Z</time>
      </trkpt>
      <trkpt lat="44.43201" lon="5.57032">
        <ele>1121.9</ele>
        <time>2021-09-07T13:44:52Z</time>
      </trkpt>
      <trkpt lat="44.432" lon="5.57034">
        <ele>1121.9</ele>
        <time>2021-09-07T13:44:53Z</time>
      </trkpt>
      <trkpt lat="44.43199" lon="5.57036">
        <ele>1121.9</ele>
        <time>2021-09-07T13:44:54Z</time>
      </trkpt>
      <trkpt lat="44.43197" lon="5.57037">
        <ele>1121.9</ele>
        <time>2021-09-07T13:44:55Z</time>
      </trkpt>
      <trkpt lat="44.43194" lon="5.57039">
        <ele>1121.8</ele>
        <time>2021-09-07T13:44:56Z</time>
      </trkpt>
      <trkpt lat="44.43193" lon="5.57041">
        <ele>1121.8</ele>
        <time>2021-09-07T13:44:57Z</time>
      </trkpt>
      <trkpt lat="44.43193" lon="5.57043">
        <ele>1121.8</ele>
        <time>2021-09-07T13:44:58Z</time>
      </trkpt>
      <trkpt lat="44.43192" lon="5.57045">
        <ele>1121.7</ele>
        <time>2021-09-07T13:44:59Z</time>
      </trkpt>
      <trkpt lat="44.43191" lon="5.57046">
        <ele>1121.7</ele>
        <time>2021-09-07T13:45:00Z</time>
      </trkpt>
      <trkpt lat="44.43192" lon="5.57049">
        <ele>1121.7</ele>
        <time>2021-09-07T13:45:01Z</time>
      </trkpt>
      <trkpt lat="44.43191" lon="5.5705">
        <ele>1121.6</ele>
        <time>2021-09-07T13:45:02Z</time>
      </trkpt>
      <trkpt lat="44.4319" lon="5.5705">
        <ele>1121.6</ele>
        <time>2021-09-07T13:45:03Z</time>
      </trkpt>
      <trkpt lat="44.43189" lon="5.57051">
        <ele>1121.6</ele>
        <time>2021-09-07T13:45:04Z</time>
      </trkpt>
      <trkpt lat="44.43189" lon="5.57052">
        <ele>1121.5</ele>
        <time>2021-09-07T13:45:05Z</time>
      </trkpt>
      <trkpt lat="44.43188" lon="5.57053">
        <ele>1121.5</ele>
        <time>2021-09-07T13:45:06Z</time>
      </trkpt>
      <trkpt lat="44.43187" lon="5.57052">
        <ele>1121.5</ele>
        <time>2021-09-07T13:45:07Z</time>
      </trkpt>
      <trkpt lat="44.43186" lon="5.57051">
        <ele>1121.4</ele>
        <time>2021-09-07T13:45:08Z</time>
      </trkpt>
      <trkpt lat="44.43186" lon="5.57051">
        <ele>1121.4</ele>
        <time>2021-09-07T13:45:09Z</time>
      </trkpt>
      <trkpt lat="44.43186" lon="5.57051">
        <ele>1121.4</ele>
        <time>2021-09-07T13:45:10Z</time>
      </trkpt>
      <trkpt lat="44.43185" lon="5.57051">
        <ele>1121.4</ele>
        <time>2021-09-07T13:45:11Z</time>
      </trkpt>
      <trkpt lat="44.43184" lon="5.57051">
        <ele>1121.1</ele>
        <time>2021-09-07T13:45:12Z</time>
      </trkpt>
      <trkpt lat="44.43183" lon="5.5705">
        <ele>1121</ele>
        <time>2021-09-07T13:45:13Z</time>
      </trkpt>
      <trkpt lat="44.43181" lon="5.57049">
        <ele>1120.9</ele>
        <time>2021-09-07T13:45:14Z</time>
      </trkpt>
      <trkpt lat="44.43178" lon="5.57047">
        <ele>1120.7</ele>
        <time>2021-09-07T13:45:15Z</time>
      </trkpt>
      <trkpt lat="44.43172" lon="5.57045">
        <ele>1120.2</ele>
        <time>2021-09-07T13:45:16Z</time>
      </trkpt>
      <trkpt lat="44.43169" lon="5.57044">
        <ele>1120</ele>
        <time>2021-09-07T13:45:17Z</time>
      </trkpt>
      <trkpt lat="44.43165" lon="5.57042">
        <ele>1119.7</ele>
        <time>2021-09-07T13:45:18Z</time>
      </trkpt>
      <trkpt lat="44.43158" lon="5.57039">
        <ele>1119</ele>
        <time>2021-09-07T13:45:19Z</time>
      </trkpt>
      <trkpt lat="44.43152" lon="5.57037">
        <ele>1118.4</ele>
        <time>2021-09-07T13:45:20Z</time>
      </trkpt>
      <trkpt lat="44.43148" lon="5.57035">
        <ele>1117.8</ele>
        <time>2021-09-07T13:45:21Z</time>
      </trkpt>
      <trkpt lat="44.43143" lon="5.57033">
        <ele>1117.2</ele>
        <time>2021-09-07T13:45:22Z</time>
      </trkpt>
      <trkpt lat="44.4314" lon="5.57031">
        <ele>1116.8</ele>
        <time>2021-09-07T13:45:23Z</time>
      </trkpt>
      <trkpt lat="44.43133" lon="5.57029">
        <ele>1115.9</ele>
        <time>2021-09-07T13:45:24Z</time>
      </trkpt>
      <trkpt lat="44.43127" lon="5.57028">
        <ele>1115.1</ele>
        <time>2021-09-07T13:45:25Z</time>
      </trkpt>
      <trkpt lat="44.4312" lon="5.57026">
        <ele>1114.3</ele>
        <time>2021-09-07T13:45:26Z</time>
      </trkpt>
      <trkpt lat="44.43114" lon="5.57026">
        <ele>1113.6</ele>
        <time>2021-09-07T13:45:27Z</time>
      </trkpt>
      <trkpt lat="44.43108" lon="5.57026">
        <ele>1112.9</ele>
        <time>2021-09-07T13:45:28Z</time>
      </trkpt>
      <trkpt lat="44.43102" lon="5.57025">
        <ele>1112.3</ele>
        <time>2021-09-07T13:45:29Z</time>
      </trkpt>
      <trkpt lat="44.43095" lon="5.57023">
        <ele>1111.5</ele>
        <time>2021-09-07T13:45:30Z</time>
      </trkpt>
      <trkpt lat="44.43094" lon="5.57021">
        <ele>1111.3</ele>
        <time>2021-09-07T13:45:31Z</time>
      </trkpt>
      <trkpt lat="44.43093" lon="5.57019">
        <ele>1111</ele>
        <time>2021-09-07T13:45:32Z</time>
      </trkpt>
      <trkpt lat="44.43088" lon="5.57018">
        <ele>1110.4</ele>
        <time>2021-09-07T13:45:33Z</time>
      </trkpt>
      <trkpt lat="44.43084" lon="5.57016">
        <ele>1109.8</ele>
        <time>2021-09-07T13:45:34Z</time>
      </trkpt>
      <trkpt lat="44.43081" lon="5.57015">
        <ele>1109.4</ele>
        <time>2021-09-07T13:45:35Z</time>
      </trkpt>
      <trkpt lat="44.43079" lon="5.57015">
        <ele>1109.1</ele>
        <time>2021-09-07T13:45:36Z</time>
      </trkpt>
      <trkpt lat="44.43077" lon="5.57014">
        <ele>1108.7</ele>
        <time>2021-09-07T13:45:37Z</time>
      </trkpt>
      <trkpt lat="44.43076" lon="5.57014">
        <ele>1108.6</ele>
        <time>2021-09-07T13:45:38Z</time>
      </trkpt>
      <trkpt lat="44.43076" lon="5.57015">
        <ele>1108.5</ele>
        <time>2021-09-07T13:45:39Z</time>
      </trkpt>
      <trkpt lat="44.43076" lon="5.57015">
        <ele>1108.5</ele>
        <time>2021-09-07T13:45:40Z</time>
      </trkpt>
      <trkpt lat="44.43076" lon="5.57015">
        <ele>1108.5</ele>
        <time>2021-09-07T13:45:41Z</time>
      </trkpt>
      <trkpt lat="44.43076" lon="5.57015">
        <ele>1108.5</ele>
        <time>2021-09-07T13:45:42Z</time>
      </trkpt>
      <trkpt lat="44.43076" lon="5.57015">
        <ele>1108.5</ele>
        <time>2021-09-07T13:45:43Z</time>
      </trkpt>
      <trkpt lat="44.43076" lon="5.57015">
        <ele>1108.5</ele>
        <time>2021-09-07T13:45:44Z</time>
      </trkpt>
      <trkpt lat="44.43076" lon="5.57015">
        <ele>1108.5</ele>
        <time>2021-09-07T13:45:45Z</time>
      </trkpt>
      <trkpt lat="44.43076" lon="5.57015">
        <ele>1108.5</ele>
        <time>2021-09-07T13:45:46Z</time>
      </trkpt>
      <trkpt lat="44.43076" lon="5.57015">
        <ele>1108.5</ele>
        <time>2021-09-07T13:45:47Z</time>
      </trkpt>
      <trkpt lat="44.43076" lon="5.57015">
        <ele>1108.5</ele>
        <time>2021-09-07T13:45:48Z</time>
      </trkpt>
      <trkpt lat="44.43076" lon="5.57015">
        <ele>1108.5</ele>
        <time>2021-09-07T13:45:49Z</time>
      </trkpt>
      <trkpt lat="44.43076" lon="5.57015">
        <ele>1108.5</ele>
        <time>2021-09-07T13:45:50Z</time>
      </trkpt>
      <trkpt lat="44.43076" lon="5.57015">
        <ele>1108.5</ele>
        <time>2021-09-07T13:45:51Z</time>
      </trkpt>
      <trkpt lat="44.43076" lon="5.57015">
        <ele>1108.5</ele>
        <time>2021-09-07T13:45:52Z</time>
      </trkpt>
      <trkpt lat="44.43076" lon="5.57015">
        <ele>1108.5</ele>
        <time>2021-09-07T13:45:53Z</time>
      </trkpt>
      <trkpt lat="44.43076" lon="5.57016">
        <ele>1108.4</ele>
        <time>2021-09-07T13:45:54Z</time>
      </trkpt>
      <trkpt lat="44.43076" lon="5.57016">
        <ele>1108.3</ele>
        <time>2021-09-07T13:45:55Z</time>
      </trkpt>
      <trkpt lat="44.43076" lon="5.57016">
        <ele>1108.3</ele>
        <time>2021-09-07T13:45:56Z</time>
      </trkpt>
      <trkpt lat="44.43076" lon="5.57016">
        <ele>1108.3</ele>
        <time>2021-09-07T13:45:57Z</time>
      </trkpt>
      <trkpt lat="44.43077" lon="5.57016">
        <ele>1108.2</ele>
        <time>2021-09-07T13:45:58Z</time>
      </trkpt>
      <trkpt lat="44.43077" lon="5.57015">
        <ele>1108.1</ele>
        <time>2021-09-07T13:45:59Z</time>
      </trkpt>
      <trkpt lat="44.43077" lon="5.57015">
        <ele>1108.1</ele>
        <time>2021-09-07T13:46:00Z</time>
      </trkpt>
      <trkpt lat="44.43077" lon="5.57015">
        <ele>1108.1</ele>
        <time>2021-09-07T13:46:01Z</time>
      </trkpt>
      <trkpt lat="44.43077" lon="5.57015">
        <ele>1108.1</ele>
        <time>2021-09-07T13:46:02Z</time>
      </trkpt>
      <trkpt lat="44.43077" lon="5.57015">
        <ele>1108.1</ele>
        <time>2021-09-07T13:46:03Z</time>
      </trkpt>
      <trkpt lat="44.43077" lon="5.57015">
        <ele>1108.1</ele>
        <time>2021-09-07T13:46:04Z</time>
      </trkpt>
      <trkpt lat="44.43077" lon="5.57015">
        <ele>1108.1</ele>
        <time>2021-09-07T13:46:05Z</time>
      </trkpt>
      <trkpt lat="44.43077" lon="5.57015">
        <ele>1108.1</ele>
        <time>2021-09-07T13:46:06Z</time>
      </trkpt>
      <trkpt lat="44.43077" lon="5.57015">
        <ele>1108.1</ele>
        <time>2021-09-07T13:46:07Z</time>
      </trkpt>
      <trkpt lat="44.43077" lon="5.57015">
        <ele>1108.1</ele>
        <time>2021-09-07T13:46:08Z</time>
      </trkpt>
      <trkpt lat="44.43077" lon="5.57015">
        <ele>1108.1</ele>
        <time>2021-09-07T13:46:09Z</time>
      </trkpt>
      <trkpt lat="44.43077" lon="5.57015">
        <ele>1108.1</ele>
        <time>2021-09-07T13:46:10Z</time>
      </trkpt>
      <trkpt lat="44.43077" lon="5.57015">
        <ele>1108.1</ele>
        <time>2021-09-07T13:46:11Z</time>
      </trkpt>
      <trkpt lat="44.43076" lon="5.57015">
        <ele>1108</ele>
        <time>2021-09-07T13:46:12Z</time>
      </trkpt>
      <trkpt lat="44.43076" lon="5.57015">
        <ele>1108</ele>
        <time>2021-09-07T13:46:13Z</time>
      </trkpt>
      <trkpt lat="44.43076" lon="5.57015">
        <ele>1108</ele>
        <time>2021-09-07T13:46:14Z</time>
      </trkpt>
      <trkpt lat="44.43077" lon="5.57015">
        <ele>1107.8</ele>
        <time>2021-09-07T13:46:15Z</time>
      </trkpt>
      <trkpt lat="44.43077" lon="5.57015">
        <ele>1107.8</ele>
        <time>2021-09-07T13:46:16Z</time>
      </trkpt>
      <trkpt lat="44.43077" lon="5.57015">
        <ele>1107.8</ele>
        <time>2021-09-07T13:46:17Z</time>
      </trkpt>
      <trkpt lat="44.43077" lon="5.57015">
        <ele>1107.8</ele>
        <time>2021-09-07T13:46:18Z</time>
      </trkpt>
      <trkpt lat="44.43077" lon="5.57015">
        <ele>1107.8</ele>
        <time>2021-09-07T13:46:19Z</time>
      </trkpt>
      <trkpt lat="44.43077" lon="5.57015">
        <ele>1107.8</ele>
        <time>2021-09-07T13:46:20Z</time>
      </trkpt>
      <trkpt lat="44.43077" lon="5.57015">
        <ele>1107.8</ele>
        <time>2021-09-07T13:46:21Z</time>
      </trkpt>
      <trkpt lat="44.43077" lon="5.57015">
        <ele>1107.8</ele>
        <time>2021-09-07T13:46:22Z</time>
      </trkpt>
      <trkpt lat="44.43077" lon="5.57015">
        <ele>1107.8</ele>
        <time>2021-09-07T13:46:23Z</time>
      </trkpt>
      <trkpt lat="44.43076" lon="5.57015">
        <ele>1107.7</ele>
        <time>2021-09-07T13:46:24Z</time>
      </trkpt>
      <trkpt lat="44.43076" lon="5.57015">
        <ele>1107.7</ele>
        <time>2021-09-07T13:46:25Z</time>
      </trkpt>
      <trkpt lat="44.43076" lon="5.57015">
        <ele>1107.7</ele>
        <time>2021-09-07T13:46:26Z</time>
      </trkpt>
      <trkpt lat="44.43076" lon="5.57015">
        <ele>1107.7</ele>
        <time>2021-09-07T13:46:27Z</time>
      </trkpt>
      <trkpt lat="44.43076" lon="5.57015">
        <ele>1107.7</ele>
        <time>2021-09-07T13:46:28Z</time>
      </trkpt>
      <trkpt lat="44.43076" lon="5.57015">
        <ele>1107.7</ele>
        <time>2021-09-07T13:46:29Z</time>
      </trkpt>
      <trkpt lat="44.43076" lon="5.57015">
        <ele>1107.7</ele>
        <time>2021-09-07T13:46:30Z</time>
      </trkpt>
      <trkpt lat="44.43076" lon="5.57015">
        <ele>1107.7</ele>
        <time>2021-09-07T13:46:31Z</time>
      </trkpt>
      <trkpt lat="44.43076" lon="5.57015">
        <ele>1107.7</ele>
        <time>2021-09-07T13:46:32Z</time>
      </trkpt>
      <trkpt lat="44.43076" lon="5.57015">
        <ele>1107.7</ele>
        <time>2021-09-07T13:46:33Z</time>
      </trkpt>
      <trkpt lat="44.43076" lon="5.57016">
        <ele>1107.6</ele>
        <time>2021-09-07T13:46:34Z</time>
      </trkpt>
      <trkpt lat="44.43075" lon="5.57016">
        <ele>1107.4</ele>
        <time>2021-09-07T13:46:35Z</time>
      </trkpt>
      <trkpt lat="44.43074" lon="5.57015">
        <ele>1107.3</ele>
        <time>2021-09-07T13:46:36Z</time>
      </trkpt>
      <trkpt lat="44.43073" lon="5.57015">
        <ele>1107.1</ele>
        <time>2021-09-07T13:46:37Z</time>
      </trkpt>
      <trkpt lat="44.43071" lon="5.57013">
        <ele>1106.8</ele>
        <time>2021-09-07T13:46:38Z</time>
      </trkpt>
      <trkpt lat="44.43069" lon="5.57013">
        <ele>1106.6</ele>
        <time>2021-09-07T13:46:39Z</time>
      </trkpt>
      <trkpt lat="44.43067" lon="5.57012">
        <ele>1106.3</ele>
        <time>2021-09-07T13:46:40Z</time>
      </trkpt>
      <trkpt lat="44.43057" lon="5.57005">
        <ele>1105.1</ele>
        <time>2021-09-07T13:46:41Z</time>
      </trkpt>
      <trkpt lat="44.43047" lon="5.56997">
        <ele>1104</ele>
        <time>2021-09-07T13:46:42Z</time>
      </trkpt>
      <trkpt lat="44.43041" lon="5.56992">
        <ele>1103.3</ele>
        <time>2021-09-07T13:46:43Z</time>
      </trkpt>
      <trkpt lat="44.43034" lon="5.56987">
        <ele>1102.6</ele>
        <time>2021-09-07T13:46:44Z</time>
      </trkpt>
      <trkpt lat="44.43029" lon="5.56983">
        <ele>1102</ele>
        <time>2021-09-07T13:46:45Z</time>
      </trkpt>
      <trkpt lat="44.43023" lon="5.56979">
        <ele>1101.4</ele>
        <time>2021-09-07T13:46:46Z</time>
      </trkpt>
      <trkpt lat="44.43018" lon="5.56975">
        <ele>1101</ele>
        <time>2021-09-07T13:46:47Z</time>
      </trkpt>
      <trkpt lat="44.43013" lon="5.56971">
        <ele>1100.6</ele>
        <time>2021-09-07T13:46:48Z</time>
      </trkpt>
      <trkpt lat="44.43008" lon="5.56969">
        <ele>1100.2</ele>
        <time>2021-09-07T13:46:49Z</time>
      </trkpt>
      <trkpt lat="44.43002" lon="5.56966">
        <ele>1099.8</ele>
        <time>2021-09-07T13:46:50Z</time>
      </trkpt>
      <trkpt lat="44.42997" lon="5.56964">
        <ele>1099.4</ele>
        <time>2021-09-07T13:46:51Z</time>
      </trkpt>
      <trkpt lat="44.42992" lon="5.56962">
        <ele>1098.9</ele>
        <time>2021-09-07T13:46:52Z</time>
      </trkpt>
      <trkpt lat="44.42989" lon="5.5696">
        <ele>1098.6</ele>
        <time>2021-09-07T13:46:53Z</time>
      </trkpt>
      <trkpt lat="44.42986" lon="5.56958">
        <ele>1098.4</ele>
        <time>2021-09-07T13:46:54Z</time>
      </trkpt>
      <trkpt lat="44.42982" lon="5.56957">
        <ele>1098</ele>
        <time>2021-09-07T13:46:55Z</time>
      </trkpt>
      <trkpt lat="44.42978" lon="5.56955">
        <ele>1097.7</ele>
        <time>2021-09-07T13:46:56Z</time>
      </trkpt>
      <trkpt lat="44.42974" lon="5.56953">
        <ele>1097.3</ele>
        <time>2021-09-07T13:46:57Z</time>
      </trkpt>
      <trkpt lat="44.42971" lon="5.56949">
        <ele>1096.9</ele>
        <time>2021-09-07T13:46:58Z</time>
      </trkpt>
      <trkpt lat="44.42968" lon="5.56944">
        <ele>1096.5</ele>
        <time>2021-09-07T13:46:59Z</time>
      </trkpt>
      <trkpt lat="44.42964" lon="5.56941">
        <ele>1096</ele>
        <time>2021-09-07T13:47:00Z</time>
      </trkpt>
      <trkpt lat="44.42959" lon="5.56942">
        <ele>1095.6</ele>
        <time>2021-09-07T13:47:01Z</time>
      </trkpt>
      <trkpt lat="44.42954" lon="5.5694">
        <ele>1095.1</ele>
        <time>2021-09-07T13:47:02Z</time>
      </trkpt>
      <trkpt lat="44.42949" lon="5.56937">
        <ele>1094.7</ele>
        <time>2021-09-07T13:47:03Z</time>
      </trkpt>
      <trkpt lat="44.42944" lon="5.56933">
        <ele>1094.3</ele>
        <time>2021-09-07T13:47:04Z</time>
      </trkpt>
      <trkpt lat="44.4294" lon="5.56929">
        <ele>1093.9</ele>
        <time>2021-09-07T13:47:05Z</time>
      </trkpt>
      <trkpt lat="44.42935" lon="5.56925">
        <ele>1093.5</ele>
        <time>2021-09-07T13:47:06Z</time>
      </trkpt>
      <trkpt lat="44.42931" lon="5.56921">
        <ele>1093</ele>
        <time>2021-09-07T13:47:07Z</time>
      </trkpt>
      <trkpt lat="44.42927" lon="5.56916">
        <ele>1092.5</ele>
        <time>2021-09-07T13:47:08Z</time>
      </trkpt>
      <trkpt lat="44.42922" lon="5.56911">
        <ele>1091.8</ele>
        <time>2021-09-07T13:47:09Z</time>
      </trkpt>
      <trkpt lat="44.42917" lon="5.56906">
        <ele>1091.2</ele>
        <time>2021-09-07T13:47:10Z</time>
      </trkpt>
      <trkpt lat="44.42912" lon="5.56901">
        <ele>1090.6</ele>
        <time>2021-09-07T13:47:11Z</time>
      </trkpt>
      <trkpt lat="44.42907" lon="5.56896">
        <ele>1090</ele>
        <time>2021-09-07T13:47:12Z</time>
      </trkpt>
      <trkpt lat="44.42903" lon="5.56892">
        <ele>1089.4</ele>
        <time>2021-09-07T13:47:13Z</time>
      </trkpt>
      <trkpt lat="44.42898" lon="5.56887">
        <ele>1088.8</ele>
        <time>2021-09-07T13:47:14Z</time>
      </trkpt>
      <trkpt lat="44.42894" lon="5.56884">
        <ele>1088.2</ele>
        <time>2021-09-07T13:47:15Z</time>
      </trkpt>
      <trkpt lat="44.42889" lon="5.56881">
        <ele>1087.5</ele>
        <time>2021-09-07T13:47:16Z</time>
      </trkpt>
      <trkpt lat="44.42885" lon="5.56879">
        <ele>1086.9</ele>
        <time>2021-09-07T13:47:17Z</time>
      </trkpt>
      <trkpt lat="44.42881" lon="5.56876">
        <ele>1086.3</ele>
        <time>2021-09-07T13:47:18Z</time>
      </trkpt>
      <trkpt lat="44.42877" lon="5.56874">
        <ele>1085.8</ele>
        <time>2021-09-07T13:47:19Z</time>
      </trkpt>
      <trkpt lat="44.42873" lon="5.56871">
        <ele>1085.4</ele>
        <time>2021-09-07T13:47:20Z</time>
      </trkpt>
      <trkpt lat="44.4287" lon="5.5687">
        <ele>1085.1</ele>
        <time>2021-09-07T13:47:21Z</time>
      </trkpt>
      <trkpt lat="44.42867" lon="5.56869">
        <ele>1084.9</ele>
        <time>2021-09-07T13:47:22Z</time>
      </trkpt>
      <trkpt lat="44.42861" lon="5.56869">
        <ele>1084.4</ele>
        <time>2021-09-07T13:47:23Z</time>
      </trkpt>
      <trkpt lat="44.42858" lon="5.56868">
        <ele>1084.2</ele>
        <time>2021-09-07T13:47:24Z</time>
      </trkpt>
      <trkpt lat="44.42856" lon="5.56867">
        <ele>1084</ele>
        <time>2021-09-07T13:47:25Z</time>
      </trkpt>
      <trkpt lat="44.42854" lon="5.56866">
        <ele>1083.9</ele>
        <time>2021-09-07T13:47:26Z</time>
      </trkpt>
      <trkpt lat="44.4285" lon="5.56863">
        <ele>1083.4</ele>
        <time>2021-09-07T13:47:27Z</time>
      </trkpt>
      <trkpt lat="44.42846" lon="5.56861">
        <ele>1083</ele>
        <time>2021-09-07T13:47:28Z</time>
      </trkpt>
      <trkpt lat="44.42844" lon="5.5686">
        <ele>1082.7</ele>
        <time>2021-09-07T13:47:29Z</time>
      </trkpt>
      <trkpt lat="44.42841" lon="5.56859">
        <ele>1082.3</ele>
        <time>2021-09-07T13:47:30Z</time>
      </trkpt>
      <trkpt lat="44.42838" lon="5.56857">
        <ele>1081.7</ele>
        <time>2021-09-07T13:47:31Z</time>
      </trkpt>
      <trkpt lat="44.42834" lon="5.56855">
        <ele>1081.1</ele>
        <time>2021-09-07T13:47:32Z</time>
      </trkpt>
      <trkpt lat="44.4283" lon="5.56854">
        <ele>1080.3</ele>
        <time>2021-09-07T13:47:33Z</time>
      </trkpt>
      <trkpt lat="44.42826" lon="5.56853">
        <ele>1079.5</ele>
        <time>2021-09-07T13:47:34Z</time>
      </trkpt>
      <trkpt lat="44.42825" lon="5.56853">
        <ele>1079.2</ele>
        <time>2021-09-07T13:47:35Z</time>
      </trkpt>
      <trkpt lat="44.42823" lon="5.56852">
        <ele>1078.8</ele>
        <time>2021-09-07T13:47:36Z</time>
      </trkpt>
      <trkpt lat="44.42819" lon="5.56851">
        <ele>1078</ele>
        <time>2021-09-07T13:47:37Z</time>
      </trkpt>
      <trkpt lat="44.42815" lon="5.56851">
        <ele>1077.2</ele>
        <time>2021-09-07T13:47:38Z</time>
      </trkpt>
      <trkpt lat="44.42809" lon="5.56852">
        <ele>1076.1</ele>
        <time>2021-09-07T13:47:39Z</time>
      </trkpt>
      <trkpt lat="44.42803" lon="5.56852">
        <ele>1075.2</ele>
        <time>2021-09-07T13:47:40Z</time>
      </trkpt>
      <trkpt lat="44.42801" lon="5.56853">
        <ele>1074.8</ele>
        <time>2021-09-07T13:47:41Z</time>
      </trkpt>
      <trkpt lat="44.42798" lon="5.56853">
        <ele>1074.5</ele>
        <time>2021-09-07T13:47:42Z</time>
      </trkpt>
      <trkpt lat="44.4279" lon="5.56855">
        <ele>1073.3</ele>
        <time>2021-09-07T13:47:43Z</time>
      </trkpt>
      <trkpt lat="44.42788" lon="5.56856">
        <ele>1073</ele>
        <time>2021-09-07T13:47:44Z</time>
      </trkpt>
      <trkpt lat="44.42786" lon="5.56856">
        <ele>1072.7</ele>
        <time>2021-09-07T13:47:45Z</time>
      </trkpt>
      <trkpt lat="44.42782" lon="5.56856">
        <ele>1072</ele>
        <time>2021-09-07T13:47:46Z</time>
      </trkpt>
      <trkpt lat="44.42778" lon="5.56855">
        <ele>1071.2</ele>
        <time>2021-09-07T13:47:47Z</time>
      </trkpt>
      <trkpt lat="44.42776" lon="5.56855">
        <ele>1070.8</ele>
        <time>2021-09-07T13:47:48Z</time>
      </trkpt>
      <trkpt lat="44.42773" lon="5.56854">
        <ele>1070.3</ele>
        <time>2021-09-07T13:47:49Z</time>
      </trkpt>
      <trkpt lat="44.42769" lon="5.56853">
        <ele>1069.5</ele>
        <time>2021-09-07T13:47:50Z</time>
      </trkpt>
      <trkpt lat="44.42767" lon="5.56852">
        <ele>1069</ele>
        <time>2021-09-07T13:47:51Z</time>
      </trkpt>
      <trkpt lat="44.42764" lon="5.56851">
        <ele>1068.5</ele>
        <time>2021-09-07T13:47:52Z</time>
      </trkpt>
      <trkpt lat="44.42761" lon="5.56849">
        <ele>1067.9</ele>
        <time>2021-09-07T13:47:53Z</time>
      </trkpt>
      <trkpt lat="44.42758" lon="5.56846">
        <ele>1067.2</ele>
        <time>2021-09-07T13:47:54Z</time>
      </trkpt>
      <trkpt lat="44.42756" lon="5.56844">
        <ele>1066.7</ele>
        <time>2021-09-07T13:47:55Z</time>
      </trkpt>
      <trkpt lat="44.42753" lon="5.56842">
        <ele>1066.3</ele>
        <time>2021-09-07T13:47:56Z</time>
      </trkpt>
      <trkpt lat="44.42749" lon="5.56839">
        <ele>1065.6</ele>
        <time>2021-09-07T13:47:57Z</time>
      </trkpt>
      <trkpt lat="44.42747" lon="5.56836">
        <ele>1065.1</ele>
        <time>2021-09-07T13:47:58Z</time>
      </trkpt>
      <trkpt lat="44.42745" lon="5.56834">
        <ele>1064.7</ele>
        <time>2021-09-07T13:47:59Z</time>
      </trkpt>
      <trkpt lat="44.42743" lon="5.56832">
        <ele>1064.3</ele>
        <time>2021-09-07T13:48:00Z</time>
      </trkpt>
      <trkpt lat="44.4274" lon="5.56829">
        <ele>1063.7</ele>
        <time>2021-09-07T13:48:01Z</time>
      </trkpt>
      <trkpt lat="44.42739" lon="5.56827">
        <ele>1063.4</ele>
        <time>2021-09-07T13:48:02Z</time>
      </trkpt>
      <trkpt lat="44.42737" lon="5.56825">
        <ele>1063</ele>
        <time>2021-09-07T13:48:03Z</time>
      </trkpt>
      <trkpt lat="44.42733" lon="5.56819">
        <ele>1062.1</ele>
        <time>2021-09-07T13:48:04Z</time>
      </trkpt>
      <trkpt lat="44.42729" lon="5.56813">
        <ele>1061</ele>
        <time>2021-09-07T13:48:05Z</time>
      </trkpt>
      <trkpt lat="44.42724" lon="5.56807">
        <ele>1060.1</ele>
        <time>2021-09-07T13:48:06Z</time>
      </trkpt>
      <trkpt lat="44.42721" lon="5.56799">
        <ele>1059.1</ele>
        <time>2021-09-07T13:48:07Z</time>
      </trkpt>
      <trkpt lat="44.42717" lon="5.56792">
        <ele>1058.2</ele>
        <time>2021-09-07T13:48:08Z</time>
      </trkpt>
      <trkpt lat="44.42714" lon="5.56785">
        <ele>1057.2</ele>
        <time>2021-09-07T13:48:09Z</time>
      </trkpt>
      <trkpt lat="44.42711" lon="5.56777">
        <ele>1056.2</ele>
        <time>2021-09-07T13:48:10Z</time>
      </trkpt>
      <trkpt lat="44.42708" lon="5.5677">
        <ele>1055.2</ele>
        <time>2021-09-07T13:48:11Z</time>
      </trkpt>
      <trkpt lat="44.42705" lon="5.56763">
        <ele>1054.3</ele>
        <time>2021-09-07T13:48:12Z</time>
      </trkpt>
      <trkpt lat="44.42702" lon="5.56757">
        <ele>1053.6</ele>
        <time>2021-09-07T13:48:13Z</time>
      </trkpt>
      <trkpt lat="44.42699" lon="5.56751">
        <ele>1053</ele>
        <time>2021-09-07T13:48:14Z</time>
      </trkpt>
      <trkpt lat="44.42697" lon="5.56745">
        <ele>1052.3</ele>
        <time>2021-09-07T13:48:15Z</time>
      </trkpt>
      <trkpt lat="44.42694" lon="5.56738">
        <ele>1051.7</ele>
        <time>2021-09-07T13:48:16Z</time>
      </trkpt>
      <trkpt lat="44.42693" lon="5.56733">
        <ele>1051.2</ele>
        <time>2021-09-07T13:48:17Z</time>
      </trkpt>
      <trkpt lat="44.42691" lon="5.56728">
        <ele>1050.7</ele>
        <time>2021-09-07T13:48:18Z</time>
      </trkpt>
      <trkpt lat="44.42689" lon="5.56723">
        <ele>1050.2</ele>
        <time>2021-09-07T13:48:19Z</time>
      </trkpt>
      <trkpt lat="44.42687" lon="5.56717">
        <ele>1049.6</ele>
        <time>2021-09-07T13:48:20Z</time>
      </trkpt>
      <trkpt lat="44.42685" lon="5.56712">
        <ele>1049.1</ele>
        <time>2021-09-07T13:48:21Z</time>
      </trkpt>
      <trkpt lat="44.42682" lon="5.56707">
        <ele>1048.5</ele>
        <time>2021-09-07T13:48:22Z</time>
      </trkpt>
      <trkpt lat="44.4268" lon="5.56703">
        <ele>1048</ele>
        <time>2021-09-07T13:48:23Z</time>
      </trkpt>
      <trkpt lat="44.42672" lon="5.56702">
        <ele>1046.6</ele>
        <time>2021-09-07T13:48:24Z</time>
      </trkpt>
      <trkpt lat="44.42671" lon="5.56699">
        <ele>1046</ele>
        <time>2021-09-07T13:48:25Z</time>
      </trkpt>
      <trkpt lat="44.4267" lon="5.56695">
        <ele>1045.4</ele>
        <time>2021-09-07T13:48:26Z</time>
      </trkpt>
      <trkpt lat="44.42667" lon="5.56689">
        <ele>1044.3</ele>
        <time>2021-09-07T13:48:27Z</time>
      </trkpt>
      <trkpt lat="44.42665" lon="5.56684">
        <ele>1043.4</ele>
        <time>2021-09-07T13:48:28Z</time>
      </trkpt>
      <trkpt lat="44.42664" lon="5.56682">
        <ele>1042.9</ele>
        <time>2021-09-07T13:48:29Z</time>
      </trkpt>
      <trkpt lat="44.42663" lon="5.56679">
        <ele>1042.5</ele>
        <time>2021-09-07T13:48:30Z</time>
      </trkpt>
      <trkpt lat="44.42661" lon="5.56676">
        <ele>1041.8</ele>
        <time>2021-09-07T13:48:31Z</time>
      </trkpt>
      <trkpt lat="44.42659" lon="5.56672">
        <ele>1041</ele>
        <time>2021-09-07T13:48:32Z</time>
      </trkpt>
      <trkpt lat="44.42658" lon="5.5667">
        <ele>1040.5</ele>
        <time>2021-09-07T13:48:33Z</time>
      </trkpt>
      <trkpt lat="44.42656" lon="5.56668">
        <ele>1040.1</ele>
        <time>2021-09-07T13:48:34Z</time>
      </trkpt>
      <trkpt lat="44.42654" lon="5.56665">
        <ele>1039.4</ele>
        <time>2021-09-07T13:48:35Z</time>
      </trkpt>
      <trkpt lat="44.42652" lon="5.56661">
        <ele>1038.7</ele>
        <time>2021-09-07T13:48:36Z</time>
      </trkpt>
      <trkpt lat="44.42651" lon="5.56659">
        <ele>1038.2</ele>
        <time>2021-09-07T13:48:37Z</time>
      </trkpt>
      <trkpt lat="44.42649" lon="5.56656">
        <ele>1037.7</ele>
        <time>2021-09-07T13:48:38Z</time>
      </trkpt>
      <trkpt lat="44.42645" lon="5.56649">
        <ele>1036.2</ele>
        <time>2021-09-07T13:48:39Z</time>
      </trkpt>
      <trkpt lat="44.42644" lon="5.56646">
        <ele>1035.7</ele>
        <time>2021-09-07T13:48:40Z</time>
      </trkpt>
      <trkpt lat="44.42643" lon="5.56643">
        <ele>1035.1</ele>
        <time>2021-09-07T13:48:41Z</time>
      </trkpt>
      <trkpt lat="44.42642" lon="5.56638">
        <ele>1034.1</ele>
        <time>2021-09-07T13:48:42Z</time>
      </trkpt>
      <trkpt lat="44.4264" lon="5.56632">
        <ele>1032.9</ele>
        <time>2021-09-07T13:48:43Z</time>
      </trkpt>
      <trkpt lat="44.42638" lon="5.56626">
        <ele>1031.7</ele>
        <time>2021-09-07T13:48:44Z</time>
      </trkpt>
      <trkpt lat="44.42638" lon="5.56624">
        <ele>1031.2</ele>
        <time>2021-09-07T13:48:45Z</time>
      </trkpt>
      <trkpt lat="44.42637" lon="5.56622">
        <ele>1030.8</ele>
        <time>2021-09-07T13:48:46Z</time>
      </trkpt>
      <trkpt lat="44.42636" lon="5.56618">
        <ele>1030</ele>
        <time>2021-09-07T13:48:47Z</time>
      </trkpt>
      <trkpt lat="44.42636" lon="5.56613">
        <ele>1029</ele>
        <time>2021-09-07T13:48:48Z</time>
      </trkpt>
      <trkpt lat="44.42636" lon="5.56609">
        <ele>1028.3</ele>
        <time>2021-09-07T13:48:49Z</time>
      </trkpt>
      <trkpt lat="44.42635" lon="5.56604">
        <ele>1027.4</ele>
        <time>2021-09-07T13:48:50Z</time>
      </trkpt>
      <trkpt lat="44.42635" lon="5.56602">
        <ele>1027</ele>
        <time>2021-09-07T13:48:51Z</time>
      </trkpt>
      <trkpt lat="44.42634" lon="5.56599">
        <ele>1026.6</ele>
        <time>2021-09-07T13:48:52Z</time>
      </trkpt>
      <trkpt lat="44.42632" lon="5.56593">
        <ele>1025.6</ele>
        <time>2021-09-07T13:48:53Z</time>
      </trkpt>
      <trkpt lat="44.42631" lon="5.56586">
        <ele>1024.6</ele>
        <time>2021-09-07T13:48:54Z</time>
      </trkpt>
      <trkpt lat="44.4263" lon="5.56582">
        <ele>1024.1</ele>
        <time>2021-09-07T13:48:55Z</time>
      </trkpt>
      <trkpt lat="44.42629" lon="5.56578">
        <ele>1023.4</ele>
        <time>2021-09-07T13:48:56Z</time>
      </trkpt>
      <trkpt lat="44.42629" lon="5.56574">
        <ele>1022.8</ele>
        <time>2021-09-07T13:48:57Z</time>
      </trkpt>
      <trkpt lat="44.42629" lon="5.56571">
        <ele>1022.3</ele>
        <time>2021-09-07T13:48:58Z</time>
      </trkpt>
      <trkpt lat="44.4263" lon="5.56567">
        <ele>1021.5</ele>
        <time>2021-09-07T13:48:59Z</time>
      </trkpt>
      <trkpt lat="44.4263" lon="5.56562">
        <ele>1020.4</ele>
        <time>2021-09-07T13:49:00Z</time>
      </trkpt>
      <trkpt lat="44.4263" lon="5.56559">
        <ele>1019.8</ele>
        <time>2021-09-07T13:49:01Z</time>
      </trkpt>
      <trkpt lat="44.42629" lon="5.56556">
        <ele>1019.1</ele>
        <time>2021-09-07T13:49:02Z</time>
      </trkpt>
      <trkpt lat="44.42628" lon="5.56554">
        <ele>1018.4</ele>
        <time>2021-09-07T13:49:03Z</time>
      </trkpt>
      <trkpt lat="44.42626" lon="5.56551">
        <ele>1017.7</ele>
        <time>2021-09-07T13:49:04Z</time>
      </trkpt>
      <trkpt lat="44.42622" lon="5.56548">
        <ele>1016.4</ele>
        <time>2021-09-07T13:49:05Z</time>
      </trkpt>
      <trkpt lat="44.42618" lon="5.56548">
        <ele>1015.4</ele>
        <time>2021-09-07T13:49:06Z</time>
      </trkpt>
      <trkpt lat="44.42615" lon="5.56549">
        <ele>1014.6</ele>
        <time>2021-09-07T13:49:07Z</time>
      </trkpt>
      <trkpt lat="44.42611" lon="5.5655">
        <ele>1013.9</ele>
        <time>2021-09-07T13:49:08Z</time>
      </trkpt>
      <trkpt lat="44.42608" lon="5.56551">
        <ele>1013.4</ele>
        <time>2021-09-07T13:49:09Z</time>
      </trkpt>
      <trkpt lat="44.42605" lon="5.56551">
        <ele>1012.8</ele>
        <time>2021-09-07T13:49:10Z</time>
      </trkpt>
      <trkpt lat="44.42599" lon="5.56551">
        <ele>1011.8</ele>
        <time>2021-09-07T13:49:11Z</time>
      </trkpt>
      <trkpt lat="44.42593" lon="5.56549">
        <ele>1010.7</ele>
        <time>2021-09-07T13:49:12Z</time>
      </trkpt>
      <trkpt lat="44.42589" lon="5.56545">
        <ele>1009.8</ele>
        <time>2021-09-07T13:49:13Z</time>
      </trkpt>
      <trkpt lat="44.42584" lon="5.56541">
        <ele>1008.8</ele>
        <time>2021-09-07T13:49:14Z</time>
      </trkpt>
      <trkpt lat="44.4258" lon="5.56537">
        <ele>1007.9</ele>
        <time>2021-09-07T13:49:15Z</time>
      </trkpt>
      <trkpt lat="44.42576" lon="5.56533">
        <ele>1007</ele>
        <time>2021-09-07T13:49:16Z</time>
      </trkpt>
      <trkpt lat="44.42575" lon="5.5653">
        <ele>1006.5</ele>
        <time>2021-09-07T13:49:17Z</time>
      </trkpt>
      <trkpt lat="44.42573" lon="5.56526">
        <ele>1005.9</ele>
        <time>2021-09-07T13:49:18Z</time>
      </trkpt>
      <trkpt lat="44.42571" lon="5.56524">
        <ele>1005.4</ele>
        <time>2021-09-07T13:49:19Z</time>
      </trkpt>
      <trkpt lat="44.42568" lon="5.56521">
        <ele>1004.8</ele>
        <time>2021-09-07T13:49:20Z</time>
      </trkpt>
      <trkpt lat="44.42565" lon="5.56517">
        <ele>1004.1</ele>
        <time>2021-09-07T13:49:21Z</time>
      </trkpt>
      <trkpt lat="44.42562" lon="5.56514">
        <ele>1003.5</ele>
        <time>2021-09-07T13:49:22Z</time>
      </trkpt>
      <trkpt lat="44.42559" lon="5.56511">
        <ele>1002.9</ele>
        <time>2021-09-07T13:49:23Z</time>
      </trkpt>
      <trkpt lat="44.42556" lon="5.56509">
        <ele>1002.3</ele>
        <time>2021-09-07T13:49:24Z</time>
      </trkpt>
      <trkpt lat="44.42556" lon="5.56509">
        <ele>1002.3</ele>
        <time>2021-09-07T13:49:25Z</time>
      </trkpt>
      <trkpt lat="44.42555" lon="5.56509">
        <ele>1002.2</ele>
        <time>2021-09-07T13:49:26Z</time>
      </trkpt>
      <trkpt lat="44.42556" lon="5.5651">
        <ele>1002</ele>
        <time>2021-09-07T13:49:27Z</time>
      </trkpt>
      <trkpt lat="44.42557" lon="5.5651">
        <ele>1001.8</ele>
        <time>2021-09-07T13:49:28Z</time>
      </trkpt>
      <trkpt lat="44.42558" lon="5.5651">
        <ele>1001.6</ele>
        <time>2021-09-07T13:49:29Z</time>
      </trkpt>
      <trkpt lat="44.42558" lon="5.5651">
        <ele>1001.6</ele>
        <time>2021-09-07T13:49:30Z</time>
      </trkpt>
      <trkpt lat="44.42559" lon="5.5651">
        <ele>1001.5</ele>
        <time>2021-09-07T13:49:31Z</time>
      </trkpt>
      <trkpt lat="44.42559" lon="5.56509">
        <ele>1001.4</ele>
        <time>2021-09-07T13:49:32Z</time>
      </trkpt>
      <trkpt lat="44.42559" lon="5.56509">
        <ele>1001.4</ele>
        <time>2021-09-07T13:49:33Z</time>
      </trkpt>
      <trkpt lat="44.42559" lon="5.56509">
        <ele>1001.4</ele>
        <time>2021-09-07T13:49:34Z</time>
      </trkpt>
      <trkpt lat="44.42559" lon="5.56509">
        <ele>1001.4</ele>
        <time>2021-09-07T13:49:35Z</time>
      </trkpt>
      <trkpt lat="44.42559" lon="5.56509">
        <ele>1001.4</ele>
        <time>2021-09-07T13:49:36Z</time>
      </trkpt>
      <trkpt lat="44.42559" lon="5.56509">
        <ele>1001.4</ele>
        <time>2021-09-07T13:49:37Z</time>
      </trkpt>
      <trkpt lat="44.42559" lon="5.56509">
        <ele>1001.4</ele>
        <time>2021-09-07T13:49:38Z</time>
      </trkpt>
      <trkpt lat="44.42559" lon="5.56509">
        <ele>1001.4</ele>
        <time>2021-09-07T13:49:39Z</time>
      </trkpt>
      <trkpt lat="44.42559" lon="5.56509">
        <ele>1001.4</ele>
        <time>2021-09-07T13:49:40Z</time>
      </trkpt>
      <trkpt lat="44.42559" lon="5.56509">
        <ele>1001.4</ele>
        <time>2021-09-07T13:49:41Z</time>
      </trkpt>
      <trkpt lat="44.42559" lon="5.56509">
        <ele>1001.4</ele>
        <time>2021-09-07T13:49:42Z</time>
      </trkpt>
      <trkpt lat="44.42559" lon="5.56509">
        <ele>1001.3</ele>
        <time>2021-09-07T13:49:43Z</time>
      </trkpt>
      <trkpt lat="44.42558" lon="5.56509">
        <ele>1001.2</ele>
        <time>2021-09-07T13:49:44Z</time>
      </trkpt>
      <trkpt lat="44.42558" lon="5.56509">
        <ele>1001.2</ele>
        <time>2021-09-07T13:49:45Z</time>
      </trkpt>
      <trkpt lat="44.42556" lon="5.56511">
        <ele>1000.8</ele>
        <time>2021-09-07T13:49:46Z</time>
      </trkpt>
      <trkpt lat="44.42553" lon="5.56512">
        <ele>1000.2</ele>
        <time>2021-09-07T13:49:47Z</time>
      </trkpt>
      <trkpt lat="44.42551" lon="5.56513">
        <ele>999.8</ele>
        <time>2021-09-07T13:49:48Z</time>
      </trkpt>
      <trkpt lat="44.42549" lon="5.56513">
        <ele>999.4</ele>
        <time>2021-09-07T13:49:49Z</time>
      </trkpt>
      <trkpt lat="44.42547" lon="5.56516">
        <ele>998.8</ele>
        <time>2021-09-07T13:49:50Z</time>
      </trkpt>
      <trkpt lat="44.42544" lon="5.56519">
        <ele>998.2</ele>
        <time>2021-09-07T13:49:51Z</time>
      </trkpt>
      <trkpt lat="44.42537" lon="5.56526">
        <ele>996.9</ele>
        <time>2021-09-07T13:49:52Z</time>
      </trkpt>
      <trkpt lat="44.42534" lon="5.56529">
        <ele>996.3</ele>
        <time>2021-09-07T13:49:53Z</time>
      </trkpt>
      <trkpt lat="44.42531" lon="5.56532">
        <ele>995.8</ele>
        <time>2021-09-07T13:49:54Z</time>
      </trkpt>
      <trkpt lat="44.42528" lon="5.56536">
        <ele>995.2</ele>
        <time>2021-09-07T13:49:55Z</time>
      </trkpt>
      <trkpt lat="44.42525" lon="5.5654">
        <ele>994.5</ele>
        <time>2021-09-07T13:49:56Z</time>
      </trkpt>
      <trkpt lat="44.4252" lon="5.56547">
        <ele>993.3</ele>
        <time>2021-09-07T13:49:57Z</time>
      </trkpt>
      <trkpt lat="44.42518" lon="5.56552">
        <ele>992.4</ele>
        <time>2021-09-07T13:49:58Z</time>
      </trkpt>
      <trkpt lat="44.42515" lon="5.56557">
        <ele>991.3</ele>
        <time>2021-09-07T13:49:59Z</time>
      </trkpt>
      <trkpt lat="44.42513" lon="5.56558">
        <ele>990.8</ele>
        <time>2021-09-07T13:50:00Z</time>
      </trkpt>
      <trkpt lat="44.42511" lon="5.56559">
        <ele>990.2</ele>
        <time>2021-09-07T13:50:01Z</time>
      </trkpt>
      <trkpt lat="44.42508" lon="5.56558">
        <ele>989.4</ele>
        <time>2021-09-07T13:50:02Z</time>
      </trkpt>
      <trkpt lat="44.42505" lon="5.56554">
        <ele>988.3</ele>
        <time>2021-09-07T13:50:03Z</time>
      </trkpt>
      <trkpt lat="44.42501" lon="5.56548">
        <ele>986.9</ele>
        <time>2021-09-07T13:50:04Z</time>
      </trkpt>
      <trkpt lat="44.42499" lon="5.56546">
        <ele>986.4</ele>
        <time>2021-09-07T13:50:05Z</time>
      </trkpt>
      <trkpt lat="44.42497" lon="5.56543">
        <ele>985.8</ele>
        <time>2021-09-07T13:50:06Z</time>
      </trkpt>
      <trkpt lat="44.42493" lon="5.56537">
        <ele>984.7</ele>
        <time>2021-09-07T13:50:07Z</time>
      </trkpt>
      <trkpt lat="44.4249" lon="5.56533">
        <ele>983.9</ele>
        <time>2021-09-07T13:50:08Z</time>
      </trkpt>
      <trkpt lat="44.42488" lon="5.56528">
        <ele>983.1</ele>
        <time>2021-09-07T13:50:09Z</time>
      </trkpt>
      <trkpt lat="44.42487" lon="5.56527">
        <ele>982.7</ele>
        <time>2021-09-07T13:50:10Z</time>
      </trkpt>
      <trkpt lat="44.42485" lon="5.56525">
        <ele>982.4</ele>
        <time>2021-09-07T13:50:11Z</time>
      </trkpt>
      <trkpt lat="44.42483" lon="5.56522">
        <ele>981.8</ele>
        <time>2021-09-07T13:50:12Z</time>
      </trkpt>
      <trkpt lat="44.4248" lon="5.56519">
        <ele>981.1</ele>
        <time>2021-09-07T13:50:13Z</time>
      </trkpt>
      <trkpt lat="44.42477" lon="5.56517">
        <ele>980.5</ele>
        <time>2021-09-07T13:50:14Z</time>
      </trkpt>
      <trkpt lat="44.42474" lon="5.56514">
        <ele>979.9</ele>
        <time>2021-09-07T13:50:15Z</time>
      </trkpt>
      <trkpt lat="44.4247" lon="5.56512">
        <ele>979.1</ele>
        <time>2021-09-07T13:50:16Z</time>
      </trkpt>
      <trkpt lat="44.42464" lon="5.56507">
        <ele>977.9</ele>
        <time>2021-09-07T13:50:17Z</time>
      </trkpt>
      <trkpt lat="44.42462" lon="5.56506">
        <ele>977.4</ele>
        <time>2021-09-07T13:50:18Z</time>
      </trkpt>
      <trkpt lat="44.42459" lon="5.56504">
        <ele>976.9</ele>
        <time>2021-09-07T13:50:19Z</time>
      </trkpt>
      <trkpt lat="44.42455" lon="5.56502">
        <ele>976</ele>
        <time>2021-09-07T13:50:20Z</time>
      </trkpt>
      <trkpt lat="44.42453" lon="5.56498">
        <ele>975.3</ele>
        <time>2021-09-07T13:50:21Z</time>
      </trkpt>
      <trkpt lat="44.42449" lon="5.56492">
        <ele>974</ele>
        <time>2021-09-07T13:50:22Z</time>
      </trkpt>
      <trkpt lat="44.42449" lon="5.5649">
        <ele>973.6</ele>
        <time>2021-09-07T13:50:23Z</time>
      </trkpt>
      <trkpt lat="44.42448" lon="5.56487">
        <ele>973.3</ele>
        <time>2021-09-07T13:50:24Z</time>
      </trkpt>
      <trkpt lat="44.42448" lon="5.56482">
        <ele>972.6</ele>
        <time>2021-09-07T13:50:25Z</time>
      </trkpt>
      <trkpt lat="44.42448" lon="5.56476">
        <ele>971.8</ele>
        <time>2021-09-07T13:50:26Z</time>
      </trkpt>
      <trkpt lat="44.42451" lon="5.56468">
        <ele>970.7</ele>
        <time>2021-09-07T13:50:27Z</time>
      </trkpt>
      <trkpt lat="44.42453" lon="5.56462">
        <ele>969.9</ele>
        <time>2021-09-07T13:50:28Z</time>
      </trkpt>
      <trkpt lat="44.42456" lon="5.56457">
        <ele>969.3</ele>
        <time>2021-09-07T13:50:29Z</time>
      </trkpt>
      <trkpt lat="44.42458" lon="5.56452">
        <ele>968.7</ele>
        <time>2021-09-07T13:50:30Z</time>
      </trkpt>
      <trkpt lat="44.4246" lon="5.56445">
        <ele>968.1</ele>
        <time>2021-09-07T13:50:31Z</time>
      </trkpt>
      <trkpt lat="44.42462" lon="5.56438">
        <ele>967.6</ele>
        <time>2021-09-07T13:50:32Z</time>
      </trkpt>
      <trkpt lat="44.42464" lon="5.5643">
        <ele>967.2</ele>
        <time>2021-09-07T13:50:33Z</time>
      </trkpt>
      <trkpt lat="44.42466" lon="5.56421">
        <ele>966.7</ele>
        <time>2021-09-07T13:50:34Z</time>
      </trkpt>
      <trkpt lat="44.42467" lon="5.56412">
        <ele>966.3</ele>
        <time>2021-09-07T13:50:35Z</time>
      </trkpt>
      <trkpt lat="44.42467" lon="5.56402">
        <ele>965.8</ele>
        <time>2021-09-07T13:50:36Z</time>
      </trkpt>
      <trkpt lat="44.42467" lon="5.56394">
        <ele>965.4</ele>
        <time>2021-09-07T13:50:37Z</time>
      </trkpt>
      <trkpt lat="44.42466" lon="5.56385">
        <ele>964.9</ele>
        <time>2021-09-07T13:50:38Z</time>
      </trkpt>
      <trkpt lat="44.42465" lon="5.56377">
        <ele>964.5</ele>
        <time>2021-09-07T13:50:39Z</time>
      </trkpt>
      <trkpt lat="44.42463" lon="5.56369">
        <ele>964.1</ele>
        <time>2021-09-07T13:50:40Z</time>
      </trkpt>
      <trkpt lat="44.42461" lon="5.5636">
        <ele>963.7</ele>
        <time>2021-09-07T13:50:41Z</time>
      </trkpt>
      <trkpt lat="44.42458" lon="5.56352">
        <ele>963.3</ele>
        <time>2021-09-07T13:50:42Z</time>
      </trkpt>
      <trkpt lat="44.42454" lon="5.56345">
        <ele>962.9</ele>
        <time>2021-09-07T13:50:43Z</time>
      </trkpt>
      <trkpt lat="44.4245" lon="5.56337">
        <ele>962.4</ele>
        <time>2021-09-07T13:50:44Z</time>
      </trkpt>
      <trkpt lat="44.42443" lon="5.56331">
        <ele>961.8</ele>
        <time>2021-09-07T13:50:45Z</time>
      </trkpt>
      <trkpt lat="44.42436" lon="5.56325">
        <ele>961</ele>
        <time>2021-09-07T13:50:46Z</time>
      </trkpt>
      <trkpt lat="44.42429" lon="5.5632">
        <ele>960.2</ele>
        <time>2021-09-07T13:50:47Z</time>
      </trkpt>
      <trkpt lat="44.42422" lon="5.56315">
        <ele>959.4</ele>
        <time>2021-09-07T13:50:48Z</time>
      </trkpt>
      <trkpt lat="44.42417" lon="5.56311">
        <ele>958.8</ele>
        <time>2021-09-07T13:50:49Z</time>
      </trkpt>
      <trkpt lat="44.42412" lon="5.56308">
        <ele>958.3</ele>
        <time>2021-09-07T13:50:50Z</time>
      </trkpt>
      <trkpt lat="44.4241" lon="5.56306">
        <ele>958</ele>
        <time>2021-09-07T13:50:51Z</time>
      </trkpt>
      <trkpt lat="44.42407" lon="5.56304">
        <ele>957.8</ele>
        <time>2021-09-07T13:50:52Z</time>
      </trkpt>
      <trkpt lat="44.42404" lon="5.56302">
        <ele>957.5</ele>
        <time>2021-09-07T13:50:53Z</time>
      </trkpt>
      <trkpt lat="44.42401" lon="5.563">
        <ele>957.2</ele>
        <time>2021-09-07T13:50:54Z</time>
      </trkpt>
      <trkpt lat="44.42398" lon="5.56298">
        <ele>956.9</ele>
        <time>2021-09-07T13:50:55Z</time>
      </trkpt>
      <trkpt lat="44.42395" lon="5.56295">
        <ele>956.7</ele>
        <time>2021-09-07T13:50:56Z</time>
      </trkpt>
      <trkpt lat="44.42391" lon="5.56292">
        <ele>956.3</ele>
        <time>2021-09-07T13:50:57Z</time>
      </trkpt>
      <trkpt lat="44.42386" lon="5.56289">
        <ele>956</ele>
        <time>2021-09-07T13:50:58Z</time>
      </trkpt>
      <trkpt lat="44.42382" lon="5.56288">
        <ele>955.7</ele>
        <time>2021-09-07T13:50:59Z</time>
      </trkpt>
      <trkpt lat="44.42379" lon="5.56285">
        <ele>955.4</ele>
        <time>2021-09-07T13:51:00Z</time>
      </trkpt>
      <trkpt lat="44.42374" lon="5.56282">
        <ele>954.9</ele>
        <time>2021-09-07T13:51:01Z</time>
      </trkpt>
      <trkpt lat="44.42372" lon="5.5628">
        <ele>954.7</ele>
        <time>2021-09-07T13:51:02Z</time>
      </trkpt>
      <trkpt lat="44.4237" lon="5.56278">
        <ele>954.5</ele>
        <time>2021-09-07T13:51:03Z</time>
      </trkpt>
      <trkpt lat="44.42366" lon="5.56276">
        <ele>954</ele>
        <time>2021-09-07T13:51:04Z</time>
      </trkpt>
      <trkpt lat="44.42363" lon="5.56274">
        <ele>953.6</ele>
        <time>2021-09-07T13:51:05Z</time>
      </trkpt>
      <trkpt lat="44.42361" lon="5.56271">
        <ele>953.3</ele>
        <time>2021-09-07T13:51:06Z</time>
      </trkpt>
      <trkpt lat="44.42361" lon="5.56271">
        <ele>953.3</ele>
        <time>2021-09-07T13:51:07Z</time>
      </trkpt>
      <trkpt lat="44.4236" lon="5.5627">
        <ele>953.2</ele>
        <time>2021-09-07T13:51:08Z</time>
      </trkpt>
      <trkpt lat="44.4236" lon="5.56271">
        <ele>953.2</ele>
        <time>2021-09-07T13:51:09Z</time>
      </trkpt>
      <trkpt lat="44.4236" lon="5.56271">
        <ele>953.1</ele>
        <time>2021-09-07T13:51:10Z</time>
      </trkpt>
      <trkpt lat="44.42361" lon="5.5627">
        <ele>953</ele>
        <time>2021-09-07T13:51:11Z</time>
      </trkpt>
      <trkpt lat="44.42361" lon="5.5627">
        <ele>953</ele>
        <time>2021-09-07T13:51:12Z</time>
      </trkpt>
      <trkpt lat="44.42361" lon="5.56271">
        <ele>952.9</ele>
        <time>2021-09-07T13:51:13Z</time>
      </trkpt>
      <trkpt lat="44.42361" lon="5.56271">
        <ele>952.9</ele>
        <time>2021-09-07T13:51:14Z</time>
      </trkpt>
      <trkpt lat="44.42361" lon="5.56271">
        <ele>952.9</ele>
        <time>2021-09-07T13:51:15Z</time>
      </trkpt>
      <trkpt lat="44.42361" lon="5.56271">
        <ele>952.9</ele>
        <time>2021-09-07T13:51:16Z</time>
      </trkpt>
      <trkpt lat="44.42361" lon="5.56271">
        <ele>952.9</ele>
        <time>2021-09-07T13:51:17Z</time>
      </trkpt>
      <trkpt lat="44.42361" lon="5.56271">
        <ele>952.9</ele>
        <time>2021-09-07T13:51:18Z</time>
      </trkpt>
      <trkpt lat="44.42361" lon="5.56271">
        <ele>952.9</ele>
        <time>2021-09-07T13:51:19Z</time>
      </trkpt>
      <trkpt lat="44.42361" lon="5.56271">
        <ele>952.9</ele>
        <time>2021-09-07T13:51:20Z</time>
      </trkpt>
      <trkpt lat="44.42361" lon="5.56271">
        <ele>952.9</ele>
        <time>2021-09-07T13:51:21Z</time>
      </trkpt>
      <trkpt lat="44.42361" lon="5.56271">
        <ele>952.9</ele>
        <time>2021-09-07T13:51:22Z</time>
      </trkpt>
      <trkpt lat="44.42361" lon="5.56271">
        <ele>952.9</ele>
        <time>2021-09-07T13:51:23Z</time>
      </trkpt>
      <trkpt lat="44.42361" lon="5.56271">
        <ele>952.9</ele>
        <time>2021-09-07T13:51:24Z</time>
      </trkpt>
      <trkpt lat="44.42361" lon="5.56272">
        <ele>952.9</ele>
        <time>2021-09-07T13:51:25Z</time>
      </trkpt>
      <trkpt lat="44.42361" lon="5.56272">
        <ele>952.9</ele>
        <time>2021-09-07T13:51:26Z</time>
      </trkpt>
      <trkpt lat="44.42361" lon="5.56272">
        <ele>952.9</ele>
        <time>2021-09-07T13:51:27Z</time>
      </trkpt>
      <trkpt lat="44.42361" lon="5.56272">
        <ele>952.9</ele>
        <time>2021-09-07T13:51:28Z</time>
      </trkpt>
      <trkpt lat="44.42361" lon="5.56272">
        <ele>952.9</ele>
        <time>2021-09-07T13:51:29Z</time>
      </trkpt>
      <trkpt lat="44.42361" lon="5.56272">
        <ele>952.9</ele>
        <time>2021-09-07T13:51:30Z</time>
      </trkpt>
      <trkpt lat="44.42361" lon="5.56272">
        <ele>952.9</ele>
        <time>2021-09-07T13:51:31Z</time>
      </trkpt>
      <trkpt lat="44.42361" lon="5.56272">
        <ele>952.9</ele>
        <time>2021-09-07T13:51:32Z</time>
      </trkpt>
      <trkpt lat="44.42361" lon="5.56272">
        <ele>952.9</ele>
        <time>2021-09-07T13:51:33Z</time>
      </trkpt>
      <trkpt lat="44.42361" lon="5.56273">
        <ele>952.8</ele>
        <time>2021-09-07T13:51:34Z</time>
      </trkpt>
      <trkpt lat="44.42361" lon="5.56273">
        <ele>952.8</ele>
        <time>2021-09-07T13:51:35Z</time>
      </trkpt>
      <trkpt lat="44.42362" lon="5.56277">
        <ele>952.6</ele>
        <time>2021-09-07T13:51:36Z</time>
      </trkpt>
      <trkpt lat="44.42362" lon="5.5628">
        <ele>952.4</ele>
        <time>2021-09-07T13:51:37Z</time>
      </trkpt>
      <trkpt lat="44.42362" lon="5.56283">
        <ele>952.2</ele>
        <time>2021-09-07T13:51:38Z</time>
      </trkpt>
      <trkpt lat="44.42363" lon="5.56285">
        <ele>952.1</ele>
        <time>2021-09-07T13:51:39Z</time>
      </trkpt>
      <trkpt lat="44.42363" lon="5.56285">
        <ele>952.1</ele>
        <time>2021-09-07T13:51:40Z</time>
      </trkpt>
      <trkpt lat="44.42363" lon="5.56286">
        <ele>952</ele>
        <time>2021-09-07T13:51:41Z</time>
      </trkpt>
      <trkpt lat="44.42363" lon="5.56287">
        <ele>952</ele>
        <time>2021-09-07T13:51:42Z</time>
      </trkpt>
      <trkpt lat="44.42363" lon="5.56287">
        <ele>952</ele>
        <time>2021-09-07T13:51:43Z</time>
      </trkpt>
      <trkpt lat="44.42363" lon="5.56288">
        <ele>952</ele>
        <time>2021-09-07T13:51:44Z</time>
      </trkpt>
      <trkpt lat="44.42363" lon="5.56289">
        <ele>951.9</ele>
        <time>2021-09-07T13:51:45Z</time>
      </trkpt>
      <trkpt lat="44.42363" lon="5.5629">
        <ele>951.9</ele>
        <time>2021-09-07T13:51:46Z</time>
      </trkpt>
      <trkpt lat="44.42363" lon="5.5629">
        <ele>951.9</ele>
        <time>2021-09-07T13:51:47Z</time>
      </trkpt>
      <trkpt lat="44.42363" lon="5.56291">
        <ele>951.8</ele>
        <time>2021-09-07T13:51:48Z</time>
      </trkpt>
      <trkpt lat="44.42363" lon="5.56292">
        <ele>951.8</ele>
        <time>2021-09-07T13:51:49Z</time>
      </trkpt>
      <trkpt lat="44.42362" lon="5.56292">
        <ele>951.8</ele>
        <time>2021-09-07T13:51:50Z</time>
      </trkpt>
      <trkpt lat="44.42362" lon="5.56293">
        <ele>951.7</ele>
        <time>2021-09-07T13:51:51Z</time>
      </trkpt>
      <trkpt lat="44.42362" lon="5.56294">
        <ele>951.7</ele>
        <time>2021-09-07T13:51:52Z</time>
      </trkpt>
      <trkpt lat="44.42362" lon="5.56294">
        <ele>951.7</ele>
        <time>2021-09-07T13:51:53Z</time>
      </trkpt>
      <trkpt lat="44.42362" lon="5.56295">
        <ele>951.7</ele>
        <time>2021-09-07T13:51:54Z</time>
      </trkpt>
      <trkpt lat="44.42362" lon="5.56296">
        <ele>951.6</ele>
        <time>2021-09-07T13:51:55Z</time>
      </trkpt>
      <trkpt lat="44.42362" lon="5.56296">
        <ele>951.6</ele>
        <time>2021-09-07T13:51:56Z</time>
      </trkpt>
      <trkpt lat="44.42362" lon="5.56297">
        <ele>951.6</ele>
        <time>2021-09-07T13:51:57Z</time>
      </trkpt>
      <trkpt lat="44.42362" lon="5.56298">
        <ele>951.6</ele>
        <time>2021-09-07T13:51:58Z</time>
      </trkpt>
      <trkpt lat="44.42362" lon="5.56298">
        <ele>951.5</ele>
        <time>2021-09-07T13:51:59Z</time>
      </trkpt>
      <trkpt lat="44.42362" lon="5.56299">
        <ele>951.5</ele>
        <time>2021-09-07T13:52:00Z</time>
      </trkpt>
      <trkpt lat="44.42362" lon="5.563">
        <ele>951.5</ele>
        <time>2021-09-07T13:52:01Z</time>
      </trkpt>
      <trkpt lat="44.42362" lon="5.56301">
        <ele>951.5</ele>
        <time>2021-09-07T13:52:02Z</time>
      </trkpt>
      <trkpt lat="44.42362" lon="5.56301">
        <ele>951.4</ele>
        <time>2021-09-07T13:52:03Z</time>
      </trkpt>
      <trkpt lat="44.42362" lon="5.56302">
        <ele>951.4</ele>
        <time>2021-09-07T13:52:04Z</time>
      </trkpt>
      <trkpt lat="44.42362" lon="5.56303">
        <ele>951.4</ele>
        <time>2021-09-07T13:52:05Z</time>
      </trkpt>
      <trkpt lat="44.42362" lon="5.56303">
        <ele>951.4</ele>
        <time>2021-09-07T13:52:06Z</time>
      </trkpt>
      <trkpt lat="44.42362" lon="5.56304">
        <ele>951.3</ele>
        <time>2021-09-07T13:52:07Z</time>
      </trkpt>
      <trkpt lat="44.42362" lon="5.56305">
        <ele>951.3</ele>
        <time>2021-09-07T13:52:08Z</time>
      </trkpt>
      <trkpt lat="44.42362" lon="5.56305">
        <ele>951.3</ele>
        <time>2021-09-07T13:52:09Z</time>
      </trkpt>
      <trkpt lat="44.42362" lon="5.56306">
        <ele>951.3</ele>
        <time>2021-09-07T13:52:10Z</time>
      </trkpt>
      <trkpt lat="44.42358" lon="5.56319">
        <ele>951</ele>
        <time>2021-09-07T13:52:11Z</time>
      </trkpt>
      <trkpt lat="44.42357" lon="5.56327">
        <ele>950.9</ele>
        <time>2021-09-07T13:52:12Z</time>
      </trkpt>
      <trkpt lat="44.42356" lon="5.56334">
        <ele>950.8</ele>
        <time>2021-09-07T13:52:13Z</time>
      </trkpt>
      <trkpt lat="44.42354" lon="5.56349">
        <ele>950.9</ele>
        <time>2021-09-07T13:52:14Z</time>
      </trkpt>
      <trkpt lat="44.42354" lon="5.56357">
        <ele>950.9</ele>
        <time>2021-09-07T13:52:15Z</time>
      </trkpt>
      <trkpt lat="44.42353" lon="5.56364">
        <ele>951</ele>
        <time>2021-09-07T13:52:16Z</time>
      </trkpt>
      <trkpt lat="44.42352" lon="5.56372">
        <ele>951.1</ele>
        <time>2021-09-07T13:52:17Z</time>
      </trkpt>
      <trkpt lat="44.42351" lon="5.56379">
        <ele>951.2</ele>
        <time>2021-09-07T13:52:18Z</time>
      </trkpt>
      <trkpt lat="44.42351" lon="5.56386">
        <ele>951.3</ele>
        <time>2021-09-07T13:52:19Z</time>
      </trkpt>
      <trkpt lat="44.4235" lon="5.56393">
        <ele>951.4</ele>
        <time>2021-09-07T13:52:20Z</time>
      </trkpt>
      <trkpt lat="44.42351" lon="5.56396">
        <ele>951.5</ele>
        <time>2021-09-07T13:52:21Z</time>
      </trkpt>
      <trkpt lat="44.42351" lon="5.56403">
        <ele>951.6</ele>
        <time>2021-09-07T13:52:22Z</time>
      </trkpt>
      <trkpt lat="44.42351" lon="5.56407">
        <ele>951.6</ele>
        <time>2021-09-07T13:52:23Z</time>
      </trkpt>
      <trkpt lat="44.4235" lon="5.56411">
        <ele>951.7</ele>
        <time>2021-09-07T13:52:24Z</time>
      </trkpt>
      <trkpt lat="44.42348" lon="5.5642">
        <ele>951.8</ele>
        <time>2021-09-07T13:52:25Z</time>
      </trkpt>
      <trkpt lat="44.42347" lon="5.5643">
        <ele>952.1</ele>
        <time>2021-09-07T13:52:26Z</time>
      </trkpt>
      <trkpt lat="44.42347" lon="5.56434">
        <ele>952.1</ele>
        <time>2021-09-07T13:52:27Z</time>
      </trkpt>
      <trkpt lat="44.42346" lon="5.56437">
        <ele>952.2</ele>
        <time>2021-09-07T13:52:28Z</time>
      </trkpt>
      <trkpt lat="44.42345" lon="5.56444">
        <ele>952.4</ele>
        <time>2021-09-07T13:52:29Z</time>
      </trkpt>
      <trkpt lat="44.42344" lon="5.5645">
        <ele>952.5</ele>
        <time>2021-09-07T13:52:30Z</time>
      </trkpt>
      <trkpt lat="44.42343" lon="5.56457">
        <ele>952.7</ele>
        <time>2021-09-07T13:52:31Z</time>
      </trkpt>
      <trkpt lat="44.42342" lon="5.56463">
        <ele>952.8</ele>
        <time>2021-09-07T13:52:32Z</time>
      </trkpt>
      <trkpt lat="44.42341" lon="5.56471">
        <ele>953.1</ele>
        <time>2021-09-07T13:52:33Z</time>
      </trkpt>
      <trkpt lat="44.4234" lon="5.56478">
        <ele>953.2</ele>
        <time>2021-09-07T13:52:34Z</time>
      </trkpt>
      <trkpt lat="44.42339" lon="5.56485">
        <ele>953.4</ele>
        <time>2021-09-07T13:52:35Z</time>
      </trkpt>
      <trkpt lat="44.42338" lon="5.56488">
        <ele>953.3</ele>
        <time>2021-09-07T13:52:36Z</time>
      </trkpt>
      <trkpt lat="44.42337" lon="5.56491">
        <ele>953.3</ele>
        <time>2021-09-07T13:52:37Z</time>
      </trkpt>
      <trkpt lat="44.42335" lon="5.56496">
        <ele>953.1</ele>
        <time>2021-09-07T13:52:38Z</time>
      </trkpt>
      <trkpt lat="44.42333" lon="5.56502">
        <ele>952.9</ele>
        <time>2021-09-07T13:52:39Z</time>
      </trkpt>
      <trkpt lat="44.42332" lon="5.56505">
        <ele>952.7</ele>
        <time>2021-09-07T13:52:40Z</time>
      </trkpt>
      <trkpt lat="44.4233" lon="5.56508">
        <ele>952.6</ele>
        <time>2021-09-07T13:52:41Z</time>
      </trkpt>
      <trkpt lat="44.42328" lon="5.56512">
        <ele>952.3</ele>
        <time>2021-09-07T13:52:42Z</time>
      </trkpt>
      <trkpt lat="44.42325" lon="5.56516">
        <ele>952</ele>
        <time>2021-09-07T13:52:43Z</time>
      </trkpt>
      <trkpt lat="44.4232" lon="5.56522">
        <ele>951.5</ele>
        <time>2021-09-07T13:52:44Z</time>
      </trkpt>
      <trkpt lat="44.42316" lon="5.56527">
        <ele>951.1</ele>
        <time>2021-09-07T13:52:45Z</time>
      </trkpt>
      <trkpt lat="44.42312" lon="5.56532">
        <ele>950.7</ele>
        <time>2021-09-07T13:52:46Z</time>
      </trkpt>
      <trkpt lat="44.42308" lon="5.56537">
        <ele>950.1</ele>
        <time>2021-09-07T13:52:47Z</time>
      </trkpt>
      <trkpt lat="44.42303" lon="5.56542">
        <ele>949.5</ele>
        <time>2021-09-07T13:52:48Z</time>
      </trkpt>
      <trkpt lat="44.42297" lon="5.56546">
        <ele>948.6</ele>
        <time>2021-09-07T13:52:49Z</time>
      </trkpt>
      <trkpt lat="44.4229" lon="5.5655">
        <ele>947.7</ele>
        <time>2021-09-07T13:52:50Z</time>
      </trkpt>
      <trkpt lat="44.42282" lon="5.56553">
        <ele>946.5</ele>
        <time>2021-09-07T13:52:51Z</time>
      </trkpt>
      <trkpt lat="44.42273" lon="5.56556">
        <ele>945.2</ele>
        <time>2021-09-07T13:52:52Z</time>
      </trkpt>
      <trkpt lat="44.42263" lon="5.56558">
        <ele>943.8</ele>
        <time>2021-09-07T13:52:53Z</time>
      </trkpt>
      <trkpt lat="44.42253" lon="5.56561">
        <ele>942.5</ele>
        <time>2021-09-07T13:52:54Z</time>
      </trkpt>
      <trkpt lat="44.42243" lon="5.56564">
        <ele>941.2</ele>
        <time>2021-09-07T13:52:55Z</time>
      </trkpt>
      <trkpt lat="44.42232" lon="5.56566">
        <ele>939.7</ele>
        <time>2021-09-07T13:52:56Z</time>
      </trkpt>
      <trkpt lat="44.42221" lon="5.56568">
        <ele>937.9</ele>
        <time>2021-09-07T13:52:57Z</time>
      </trkpt>
      <trkpt lat="44.4221" lon="5.56568">
        <ele>936.1</ele>
        <time>2021-09-07T13:52:58Z</time>
      </trkpt>
      <trkpt lat="44.42198" lon="5.56568">
        <ele>934.5</ele>
        <time>2021-09-07T13:52:59Z</time>
      </trkpt>
      <trkpt lat="44.42187" lon="5.56568">
        <ele>933</ele>
        <time>2021-09-07T13:53:00Z</time>
      </trkpt>
      <trkpt lat="44.42177" lon="5.56568">
        <ele>931.5</ele>
        <time>2021-09-07T13:53:01Z</time>
      </trkpt>
      <trkpt lat="44.42167" lon="5.56567">
        <ele>930</ele>
        <time>2021-09-07T13:53:02Z</time>
      </trkpt>
      <trkpt lat="44.42158" lon="5.56568">
        <ele>928.6</ele>
        <time>2021-09-07T13:53:03Z</time>
      </trkpt>
      <trkpt lat="44.42148" lon="5.56568">
        <ele>927.3</ele>
        <time>2021-09-07T13:53:04Z</time>
      </trkpt>
      <trkpt lat="44.42139" lon="5.56569">
        <ele>926.1</ele>
        <time>2021-09-07T13:53:05Z</time>
      </trkpt>
      <trkpt lat="44.42131" lon="5.56572">
        <ele>925.1</ele>
        <time>2021-09-07T13:53:06Z</time>
      </trkpt>
      <trkpt lat="44.42124" lon="5.56575">
        <ele>924.3</ele>
        <time>2021-09-07T13:53:07Z</time>
      </trkpt>
      <trkpt lat="44.42116" lon="5.56577">
        <ele>923.7</ele>
        <time>2021-09-07T13:53:08Z</time>
      </trkpt>
      <trkpt lat="44.4211" lon="5.5658">
        <ele>923.3</ele>
        <time>2021-09-07T13:53:09Z</time>
      </trkpt>
      <trkpt lat="44.42103" lon="5.56583">
        <ele>922.9</ele>
        <time>2021-09-07T13:53:10Z</time>
      </trkpt>
      <trkpt lat="44.42098" lon="5.56584">
        <ele>922.6</ele>
        <time>2021-09-07T13:53:11Z</time>
      </trkpt>
      <trkpt lat="44.42093" lon="5.56585">
        <ele>922.3</ele>
        <time>2021-09-07T13:53:12Z</time>
      </trkpt>
      <trkpt lat="44.42089" lon="5.56584">
        <ele>922.1</ele>
        <time>2021-09-07T13:53:13Z</time>
      </trkpt>
      <trkpt lat="44.42085" lon="5.56583">
        <ele>921.5</ele>
        <time>2021-09-07T13:53:14Z</time>
      </trkpt>
      <trkpt lat="44.42082" lon="5.5658">
        <ele>920.9</ele>
        <time>2021-09-07T13:53:15Z</time>
      </trkpt>
      <trkpt lat="44.42078" lon="5.56576">
        <ele>920.3</ele>
        <time>2021-09-07T13:53:16Z</time>
      </trkpt>
      <trkpt lat="44.42075" lon="5.56572">
        <ele>919.7</ele>
        <time>2021-09-07T13:53:17Z</time>
      </trkpt>
      <trkpt lat="44.42073" lon="5.56567">
        <ele>919.1</ele>
        <time>2021-09-07T13:53:18Z</time>
      </trkpt>
      <trkpt lat="44.42072" lon="5.56561">
        <ele>918.4</ele>
        <time>2021-09-07T13:53:19Z</time>
      </trkpt>
      <trkpt lat="44.4207" lon="5.56554">
        <ele>917.8</ele>
        <time>2021-09-07T13:53:20Z</time>
      </trkpt>
      <trkpt lat="44.42068" lon="5.56551">
        <ele>917.5</ele>
        <time>2021-09-07T13:53:21Z</time>
      </trkpt>
      <trkpt lat="44.42068" lon="5.56545">
        <ele>917.1</ele>
        <time>2021-09-07T13:53:22Z</time>
      </trkpt>
      <trkpt lat="44.42068" lon="5.56538">
        <ele>916.7</ele>
        <time>2021-09-07T13:53:23Z</time>
      </trkpt>
      <trkpt lat="44.42068" lon="5.56529">
        <ele>916.2</ele>
        <time>2021-09-07T13:53:24Z</time>
      </trkpt>
      <trkpt lat="44.42068" lon="5.5652">
        <ele>915.8</ele>
        <time>2021-09-07T13:53:25Z</time>
      </trkpt>
      <trkpt lat="44.42068" lon="5.5651">
        <ele>915.3</ele>
        <time>2021-09-07T13:53:26Z</time>
      </trkpt>
      <trkpt lat="44.42068" lon="5.56501">
        <ele>914.9</ele>
        <time>2021-09-07T13:53:27Z</time>
      </trkpt>
      <trkpt lat="44.42067" lon="5.56492">
        <ele>914.4</ele>
        <time>2021-09-07T13:53:28Z</time>
      </trkpt>
      <trkpt lat="44.42067" lon="5.56484">
        <ele>914</ele>
        <time>2021-09-07T13:53:29Z</time>
      </trkpt>
      <trkpt lat="44.42067" lon="5.56475">
        <ele>913.5</ele>
        <time>2021-09-07T13:53:30Z</time>
      </trkpt>
      <trkpt lat="44.42068" lon="5.56468">
        <ele>913</ele>
        <time>2021-09-07T13:53:31Z</time>
      </trkpt>
      <trkpt lat="44.42068" lon="5.5646">
        <ele>912.6</ele>
        <time>2021-09-07T13:53:32Z</time>
      </trkpt>
      <trkpt lat="44.4207" lon="5.5645">
        <ele>911.8</ele>
        <time>2021-09-07T13:53:33Z</time>
      </trkpt>
      <trkpt lat="44.42071" lon="5.56446">
        <ele>911.5</ele>
        <time>2021-09-07T13:53:34Z</time>
      </trkpt>
      <trkpt lat="44.42072" lon="5.56441">
        <ele>911.2</ele>
        <time>2021-09-07T13:53:35Z</time>
      </trkpt>
      <trkpt lat="44.42072" lon="5.56436">
        <ele>910.9</ele>
        <time>2021-09-07T13:53:36Z</time>
      </trkpt>
      <trkpt lat="44.42072" lon="5.56432">
        <ele>910.6</ele>
        <time>2021-09-07T13:53:37Z</time>
      </trkpt>
      <trkpt lat="44.42072" lon="5.56427">
        <ele>910.3</ele>
        <time>2021-09-07T13:53:38Z</time>
      </trkpt>
      <trkpt lat="44.42072" lon="5.56419">
        <ele>909.8</ele>
        <time>2021-09-07T13:53:39Z</time>
      </trkpt>
      <trkpt lat="44.42072" lon="5.56413">
        <ele>909.4</ele>
        <time>2021-09-07T13:53:40Z</time>
      </trkpt>
      <trkpt lat="44.42073" lon="5.56409">
        <ele>909.2</ele>
        <time>2021-09-07T13:53:41Z</time>
      </trkpt>
      <trkpt lat="44.42073" lon="5.56405">
        <ele>909</ele>
        <time>2021-09-07T13:53:42Z</time>
      </trkpt>
      <trkpt lat="44.42075" lon="5.56397">
        <ele>908.6</ele>
        <time>2021-09-07T13:53:43Z</time>
      </trkpt>
      <trkpt lat="44.42077" lon="5.56388">
        <ele>908.1</ele>
        <time>2021-09-07T13:53:44Z</time>
      </trkpt>
      <trkpt lat="44.42079" lon="5.5638">
        <ele>907.8</ele>
        <time>2021-09-07T13:53:45Z</time>
      </trkpt>
      <trkpt lat="44.42081" lon="5.56372">
        <ele>907.5</ele>
        <time>2021-09-07T13:53:46Z</time>
      </trkpt>
      <trkpt lat="44.42083" lon="5.56364">
        <ele>907.3</ele>
        <time>2021-09-07T13:53:47Z</time>
      </trkpt>
      <trkpt lat="44.42085" lon="5.56355">
        <ele>907.2</ele>
        <time>2021-09-07T13:53:48Z</time>
      </trkpt>
      <trkpt lat="44.42086" lon="5.56346">
        <ele>907.1</ele>
        <time>2021-09-07T13:53:49Z</time>
      </trkpt>
      <trkpt lat="44.42086" lon="5.56336">
        <ele>907</ele>
        <time>2021-09-07T13:53:50Z</time>
      </trkpt>
      <trkpt lat="44.42087" lon="5.56327">
        <ele>907</ele>
        <time>2021-09-07T13:53:51Z</time>
      </trkpt>
      <trkpt lat="44.42088" lon="5.56318">
        <ele>907</ele>
        <time>2021-09-07T13:53:52Z</time>
      </trkpt>
      <trkpt lat="44.42088" lon="5.56309">
        <ele>907.1</ele>
        <time>2021-09-07T13:53:53Z</time>
      </trkpt>
      <trkpt lat="44.42089" lon="5.56299">
        <ele>907.2</ele>
        <time>2021-09-07T13:53:54Z</time>
      </trkpt>
      <trkpt lat="44.4209" lon="5.56289">
        <ele>907.3</ele>
        <time>2021-09-07T13:53:55Z</time>
      </trkpt>
      <trkpt lat="44.42092" lon="5.5628">
        <ele>907.3</ele>
        <time>2021-09-07T13:53:56Z</time>
      </trkpt>
      <trkpt lat="44.42092" lon="5.56271">
        <ele>907.4</ele>
        <time>2021-09-07T13:53:57Z</time>
      </trkpt>
      <trkpt lat="44.42092" lon="5.56262">
        <ele>907.6</ele>
        <time>2021-09-07T13:53:58Z</time>
      </trkpt>
      <trkpt lat="44.42091" lon="5.56256">
        <ele>907.8</ele>
        <time>2021-09-07T13:53:59Z</time>
      </trkpt>
      <trkpt lat="44.42089" lon="5.5625">
        <ele>908</ele>
        <time>2021-09-07T13:54:00Z</time>
      </trkpt>
      <trkpt lat="44.42087" lon="5.56245">
        <ele>908.3</ele>
        <time>2021-09-07T13:54:01Z</time>
      </trkpt>
      <trkpt lat="44.42084" lon="5.5624">
        <ele>908.5</ele>
        <time>2021-09-07T13:54:02Z</time>
      </trkpt>
      <trkpt lat="44.42082" lon="5.56236">
        <ele>908.8</ele>
        <time>2021-09-07T13:54:03Z</time>
      </trkpt>
      <trkpt lat="44.42079" lon="5.56232">
        <ele>909</ele>
        <time>2021-09-07T13:54:04Z</time>
      </trkpt>
      <trkpt lat="44.42073" lon="5.56227">
        <ele>909.4</ele>
        <time>2021-09-07T13:54:05Z</time>
      </trkpt>
      <trkpt lat="44.42072" lon="5.56227">
        <ele>909.5</ele>
        <time>2021-09-07T13:54:06Z</time>
      </trkpt>
      <trkpt lat="44.4207" lon="5.56226">
        <ele>909.6</ele>
        <time>2021-09-07T13:54:07Z</time>
      </trkpt>
      <trkpt lat="44.42068" lon="5.56222">
        <ele>909.9</ele>
        <time>2021-09-07T13:54:08Z</time>
      </trkpt>
      <trkpt lat="44.42064" lon="5.56216">
        <ele>910.3</ele>
        <time>2021-09-07T13:54:09Z</time>
      </trkpt>
      <trkpt lat="44.42062" lon="5.56214">
        <ele>910.5</ele>
        <time>2021-09-07T13:54:10Z</time>
      </trkpt>
      <trkpt lat="44.42059" lon="5.56211">
        <ele>910.8</ele>
        <time>2021-09-07T13:54:11Z</time>
      </trkpt>
      <trkpt lat="44.42056" lon="5.56208">
        <ele>911.1</ele>
        <time>2021-09-07T13:54:12Z</time>
      </trkpt>
      <trkpt lat="44.42054" lon="5.56206">
        <ele>911.3</ele>
        <time>2021-09-07T13:54:13Z</time>
      </trkpt>
      <trkpt lat="44.42051" lon="5.56204">
        <ele>911.6</ele>
        <time>2021-09-07T13:54:14Z</time>
      </trkpt>
      <trkpt lat="44.42048" lon="5.56202">
        <ele>911.8</ele>
        <time>2021-09-07T13:54:15Z</time>
      </trkpt>
      <trkpt lat="44.42046" lon="5.562">
        <ele>912.1</ele>
        <time>2021-09-07T13:54:16Z</time>
      </trkpt>
      <trkpt lat="44.42043" lon="5.56198">
        <ele>912.3</ele>
        <time>2021-09-07T13:54:17Z</time>
      </trkpt>
      <trkpt lat="44.4204" lon="5.56197">
        <ele>912.5</ele>
        <time>2021-09-07T13:54:18Z</time>
      </trkpt>
      <trkpt lat="44.42038" lon="5.56196">
        <ele>912.7</ele>
        <time>2021-09-07T13:54:19Z</time>
      </trkpt>
      <trkpt lat="44.42036" lon="5.56194">
        <ele>912.9</ele>
        <time>2021-09-07T13:54:20Z</time>
      </trkpt>
      <trkpt lat="44.42033" lon="5.56191">
        <ele>913.1</ele>
        <time>2021-09-07T13:54:21Z</time>
      </trkpt>
      <trkpt lat="44.4203" lon="5.56189">
        <ele>913.4</ele>
        <time>2021-09-07T13:54:22Z</time>
      </trkpt>
      <trkpt lat="44.42028" lon="5.56188">
        <ele>913.5</ele>
        <time>2021-09-07T13:54:23Z</time>
      </trkpt>
      <trkpt lat="44.42026" lon="5.56187">
        <ele>913.7</ele>
        <time>2021-09-07T13:54:24Z</time>
      </trkpt>
      <trkpt lat="44.42025" lon="5.56187">
        <ele>913.8</ele>
        <time>2021-09-07T13:54:25Z</time>
      </trkpt>
      <trkpt lat="44.42023" lon="5.56187">
        <ele>913.9</ele>
        <time>2021-09-07T13:54:26Z</time>
      </trkpt>
      <trkpt lat="44.42021" lon="5.56186">
        <ele>914.1</ele>
        <time>2021-09-07T13:54:27Z</time>
      </trkpt>
      <trkpt lat="44.4202" lon="5.56186">
        <ele>914.2</ele>
        <time>2021-09-07T13:54:28Z</time>
      </trkpt>
      <trkpt lat="44.42018" lon="5.56186">
        <ele>914.3</ele>
        <time>2021-09-07T13:54:29Z</time>
      </trkpt>
      <trkpt lat="44.42015" lon="5.56186">
        <ele>914.6</ele>
        <time>2021-09-07T13:54:30Z</time>
      </trkpt>
      <trkpt lat="44.42014" lon="5.56186">
        <ele>914.7</ele>
        <time>2021-09-07T13:54:31Z</time>
      </trkpt>
      <trkpt lat="44.42012" lon="5.56186">
        <ele>914.9</ele>
        <time>2021-09-07T13:54:32Z</time>
      </trkpt>
      <trkpt lat="44.42008" lon="5.56186">
        <ele>915.2</ele>
        <time>2021-09-07T13:54:33Z</time>
      </trkpt>
      <trkpt lat="44.42007" lon="5.56186">
        <ele>915.3</ele>
        <time>2021-09-07T13:54:34Z</time>
      </trkpt>
      <trkpt lat="44.42006" lon="5.56186">
        <ele>915.4</ele>
        <time>2021-09-07T13:54:35Z</time>
      </trkpt>
      <trkpt lat="44.42004" lon="5.56185">
        <ele>915.6</ele>
        <time>2021-09-07T13:54:36Z</time>
      </trkpt>
      <trkpt lat="44.42002" lon="5.56184">
        <ele>915.8</ele>
        <time>2021-09-07T13:54:37Z</time>
      </trkpt>
      <trkpt lat="44.42" lon="5.56184">
        <ele>916</ele>
        <time>2021-09-07T13:54:38Z</time>
      </trkpt>
      <trkpt lat="44.41997" lon="5.56182">
        <ele>916.3</ele>
        <time>2021-09-07T13:54:39Z</time>
      </trkpt>
      <trkpt lat="44.41995" lon="5.56182">
        <ele>916.5</ele>
        <time>2021-09-07T13:54:40Z</time>
      </trkpt>
      <trkpt lat="44.41993" lon="5.56182">
        <ele>916.7</ele>
        <time>2021-09-07T13:54:41Z</time>
      </trkpt>
      <trkpt lat="44.41991" lon="5.56182">
        <ele>916.9</ele>
        <time>2021-09-07T13:54:42Z</time>
      </trkpt>
      <trkpt lat="44.41989" lon="5.56181">
        <ele>917</ele>
        <time>2021-09-07T13:54:43Z</time>
      </trkpt>
      <trkpt lat="44.41988" lon="5.56181">
        <ele>917.2</ele>
        <time>2021-09-07T13:54:44Z</time>
      </trkpt>
      <trkpt lat="44.41986" lon="5.56182">
        <ele>917.3</ele>
        <time>2021-09-07T13:54:45Z</time>
      </trkpt>
      <trkpt lat="44.41985" lon="5.56182">
        <ele>917.4</ele>
        <time>2021-09-07T13:54:46Z</time>
      </trkpt>
      <trkpt lat="44.41984" lon="5.56182">
        <ele>917.5</ele>
        <time>2021-09-07T13:54:47Z</time>
      </trkpt>
      <trkpt lat="44.41981" lon="5.56182">
        <ele>917.8</ele>
        <time>2021-09-07T13:54:48Z</time>
      </trkpt>
      <trkpt lat="44.41981" lon="5.56182">
        <ele>917.9</ele>
        <time>2021-09-07T13:54:49Z</time>
      </trkpt>
      <trkpt lat="44.4198" lon="5.56181">
        <ele>917.9</ele>
        <time>2021-09-07T13:54:50Z</time>
      </trkpt>
      <trkpt lat="44.41978" lon="5.56181">
        <ele>918.1</ele>
        <time>2021-09-07T13:54:51Z</time>
      </trkpt>
      <trkpt lat="44.41976" lon="5.5618">
        <ele>918.3</ele>
        <time>2021-09-07T13:54:52Z</time>
      </trkpt>
      <trkpt lat="44.41975" lon="5.5618">
        <ele>918.4</ele>
        <time>2021-09-07T13:54:53Z</time>
      </trkpt>
      <trkpt lat="44.41973" lon="5.56179">
        <ele>918.6</ele>
        <time>2021-09-07T13:54:54Z</time>
      </trkpt>
      <trkpt lat="44.41971" lon="5.56177">
        <ele>918.7</ele>
        <time>2021-09-07T13:54:55Z</time>
      </trkpt>
      <trkpt lat="44.4197" lon="5.56176">
        <ele>918.8</ele>
        <time>2021-09-07T13:54:56Z</time>
      </trkpt>
      <trkpt lat="44.41968" lon="5.56173">
        <ele>919</ele>
        <time>2021-09-07T13:54:57Z</time>
      </trkpt>
      <trkpt lat="44.41965" lon="5.56169">
        <ele>919.2</ele>
        <time>2021-09-07T13:54:58Z</time>
      </trkpt>
      <trkpt lat="44.41964" lon="5.56167">
        <ele>919.3</ele>
        <time>2021-09-07T13:54:59Z</time>
      </trkpt>
      <trkpt lat="44.41962" lon="5.56165">
        <ele>919.4</ele>
        <time>2021-09-07T13:55:00Z</time>
      </trkpt>
      <trkpt lat="44.41961" lon="5.56163">
        <ele>919.5</ele>
        <time>2021-09-07T13:55:01Z</time>
      </trkpt>
      <trkpt lat="44.4196" lon="5.56161">
        <ele>919.6</ele>
        <time>2021-09-07T13:55:02Z</time>
      </trkpt>
      <trkpt lat="44.41957" lon="5.56157">
        <ele>919.7</ele>
        <time>2021-09-07T13:55:03Z</time>
      </trkpt>
      <trkpt lat="44.41956" lon="5.56155">
        <ele>919.8</ele>
        <time>2021-09-07T13:55:04Z</time>
      </trkpt>
      <trkpt lat="44.41954" lon="5.56153">
        <ele>919.9</ele>
        <time>2021-09-07T13:55:05Z</time>
      </trkpt>
      <trkpt lat="44.41952" lon="5.56151">
        <ele>920</ele>
        <time>2021-09-07T13:55:06Z</time>
      </trkpt>
      <trkpt lat="44.41949" lon="5.56147">
        <ele>920.2</ele>
        <time>2021-09-07T13:55:07Z</time>
      </trkpt>
      <trkpt lat="44.41946" lon="5.56144">
        <ele>920.3</ele>
        <time>2021-09-07T13:55:08Z</time>
      </trkpt>
      <trkpt lat="44.41945" lon="5.56142">
        <ele>920.4</ele>
        <time>2021-09-07T13:55:09Z</time>
      </trkpt>
      <trkpt lat="44.41943" lon="5.5614">
        <ele>920.5</ele>
        <time>2021-09-07T13:55:10Z</time>
      </trkpt>
      <trkpt lat="44.41942" lon="5.56139">
        <ele>920.5</ele>
        <time>2021-09-07T13:55:11Z</time>
      </trkpt>
      <trkpt lat="44.41941" lon="5.56137">
        <ele>920.6</ele>
        <time>2021-09-07T13:55:12Z</time>
      </trkpt>
      <trkpt lat="44.41939" lon="5.56135">
        <ele>920.7</ele>
        <time>2021-09-07T13:55:13Z</time>
      </trkpt>
      <trkpt lat="44.41938" lon="5.56133">
        <ele>920.8</ele>
        <time>2021-09-07T13:55:14Z</time>
      </trkpt>
      <trkpt lat="44.41936" lon="5.56131">
        <ele>920.9</ele>
        <time>2021-09-07T13:55:15Z</time>
      </trkpt>
      <trkpt lat="44.41934" lon="5.56129">
        <ele>921.1</ele>
        <time>2021-09-07T13:55:16Z</time>
      </trkpt>
      <trkpt lat="44.41933" lon="5.56126">
        <ele>921.2</ele>
        <time>2021-09-07T13:55:17Z</time>
      </trkpt>
      <trkpt lat="44.4193" lon="5.56121">
        <ele>921.5</ele>
        <time>2021-09-07T13:55:18Z</time>
      </trkpt>
      <trkpt lat="44.41928" lon="5.56117">
        <ele>921.6</ele>
        <time>2021-09-07T13:55:19Z</time>
      </trkpt>
      <trkpt lat="44.41927" lon="5.56114">
        <ele>921.8</ele>
        <time>2021-09-07T13:55:20Z</time>
      </trkpt>
      <trkpt lat="44.41925" lon="5.56111">
        <ele>921.9</ele>
        <time>2021-09-07T13:55:21Z</time>
      </trkpt>
      <trkpt lat="44.4192" lon="5.56101">
        <ele>921.4</ele>
        <time>2021-09-07T13:55:22Z</time>
      </trkpt>
      <trkpt lat="44.41917" lon="5.56093">
        <ele>921.2</ele>
        <time>2021-09-07T13:55:23Z</time>
      </trkpt>
      <trkpt lat="44.41914" lon="5.56085">
        <ele>920.9</ele>
        <time>2021-09-07T13:55:24Z</time>
      </trkpt>
      <trkpt lat="44.41913" lon="5.56077">
        <ele>920.6</ele>
        <time>2021-09-07T13:55:25Z</time>
      </trkpt>
      <trkpt lat="44.41911" lon="5.56068">
        <ele>920.2</ele>
        <time>2021-09-07T13:55:26Z</time>
      </trkpt>
      <trkpt lat="44.4191" lon="5.56059">
        <ele>919.8</ele>
        <time>2021-09-07T13:55:27Z</time>
      </trkpt>
      <trkpt lat="44.41908" lon="5.56049">
        <ele>919.4</ele>
        <time>2021-09-07T13:55:28Z</time>
      </trkpt>
      <trkpt lat="44.41905" lon="5.56039">
        <ele>918.8</ele>
        <time>2021-09-07T13:55:29Z</time>
      </trkpt>
      <trkpt lat="44.41902" lon="5.56027">
        <ele>918</ele>
        <time>2021-09-07T13:55:30Z</time>
      </trkpt>
      <trkpt lat="44.41899" lon="5.56016">
        <ele>917</ele>
        <time>2021-09-07T13:55:31Z</time>
      </trkpt>
      <trkpt lat="44.41895" lon="5.56004">
        <ele>916.1</ele>
        <time>2021-09-07T13:55:32Z</time>
      </trkpt>
      <trkpt lat="44.4189" lon="5.55992">
        <ele>915</ele>
        <time>2021-09-07T13:55:33Z</time>
      </trkpt>
      <trkpt lat="44.41886" lon="5.55979">
        <ele>913.8</ele>
        <time>2021-09-07T13:55:34Z</time>
      </trkpt>
      <trkpt lat="44.41881" lon="5.55965">
        <ele>912.2</ele>
        <time>2021-09-07T13:55:35Z</time>
      </trkpt>
      <trkpt lat="44.41876" lon="5.55951">
        <ele>911.3</ele>
        <time>2021-09-07T13:55:36Z</time>
      </trkpt>
      <trkpt lat="44.4187" lon="5.55937">
        <ele>910.5</ele>
        <time>2021-09-07T13:55:37Z</time>
      </trkpt>
      <trkpt lat="44.41864" lon="5.55923">
        <ele>909.8</ele>
        <time>2021-09-07T13:55:38Z</time>
      </trkpt>
      <trkpt lat="44.41857" lon="5.55911">
        <ele>909</ele>
        <time>2021-09-07T13:55:39Z</time>
      </trkpt>
      <trkpt lat="44.4185" lon="5.55898">
        <ele>908.4</ele>
        <time>2021-09-07T13:55:40Z</time>
      </trkpt>
      <trkpt lat="44.41843" lon="5.55887">
        <ele>907.8</ele>
        <time>2021-09-07T13:55:41Z</time>
      </trkpt>
      <trkpt lat="44.41837" lon="5.55878">
        <ele>907.4</ele>
        <time>2021-09-07T13:55:42Z</time>
      </trkpt>
      <trkpt lat="44.4183" lon="5.55869">
        <ele>906.8</ele>
        <time>2021-09-07T13:55:43Z</time>
      </trkpt>
      <trkpt lat="44.41823" lon="5.55862">
        <ele>906.1</ele>
        <time>2021-09-07T13:55:44Z</time>
      </trkpt>
      <trkpt lat="44.41816" lon="5.5586">
        <ele>905.3</ele>
        <time>2021-09-07T13:55:45Z</time>
      </trkpt>
      <trkpt lat="44.41808" lon="5.55858">
        <ele>904.4</ele>
        <time>2021-09-07T13:55:46Z</time>
      </trkpt>
      <trkpt lat="44.41799" lon="5.55861">
        <ele>903.1</ele>
        <time>2021-09-07T13:55:47Z</time>
      </trkpt>
      <trkpt lat="44.41789" lon="5.55863">
        <ele>901.9</ele>
        <time>2021-09-07T13:55:48Z</time>
      </trkpt>
      <trkpt lat="44.41779" lon="5.55867">
        <ele>900.8</ele>
        <time>2021-09-07T13:55:49Z</time>
      </trkpt>
      <trkpt lat="44.41769" lon="5.55871">
        <ele>900</ele>
        <time>2021-09-07T13:55:50Z</time>
      </trkpt>
      <trkpt lat="44.4176" lon="5.55877">
        <ele>899.4</ele>
        <time>2021-09-07T13:55:51Z</time>
      </trkpt>
      <trkpt lat="44.4175" lon="5.55882">
        <ele>898.9</ele>
        <time>2021-09-07T13:55:52Z</time>
      </trkpt>
      <trkpt lat="44.4174" lon="5.55887">
        <ele>898.6</ele>
        <time>2021-09-07T13:55:53Z</time>
      </trkpt>
      <trkpt lat="44.41732" lon="5.55895">
        <ele>898.4</ele>
        <time>2021-09-07T13:55:54Z</time>
      </trkpt>
      <trkpt lat="44.41723" lon="5.55902">
        <ele>898.1</ele>
        <time>2021-09-07T13:55:55Z</time>
      </trkpt>
      <trkpt lat="44.41715" lon="5.55909">
        <ele>897.8</ele>
        <time>2021-09-07T13:55:56Z</time>
      </trkpt>
      <trkpt lat="44.41708" lon="5.55918">
        <ele>897.4</ele>
        <time>2021-09-07T13:55:57Z</time>
      </trkpt>
      <trkpt lat="44.41701" lon="5.55927">
        <ele>897</ele>
        <time>2021-09-07T13:55:58Z</time>
      </trkpt>
      <trkpt lat="44.41694" lon="5.55936">
        <ele>896.6</ele>
        <time>2021-09-07T13:55:59Z</time>
      </trkpt>
      <trkpt lat="44.41687" lon="5.55945">
        <ele>896.3</ele>
        <time>2021-09-07T13:56:00Z</time>
      </trkpt>
      <trkpt lat="44.41681" lon="5.55954">
        <ele>895.9</ele>
        <time>2021-09-07T13:56:01Z</time>
      </trkpt>
      <trkpt lat="44.41674" lon="5.55962">
        <ele>895.6</ele>
        <time>2021-09-07T13:56:02Z</time>
      </trkpt>
      <trkpt lat="44.41668" lon="5.5597">
        <ele>895.3</ele>
        <time>2021-09-07T13:56:03Z</time>
      </trkpt>
      <trkpt lat="44.41661" lon="5.55978">
        <ele>895.1</ele>
        <time>2021-09-07T13:56:04Z</time>
      </trkpt>
      <trkpt lat="44.41655" lon="5.55985">
        <ele>894.8</ele>
        <time>2021-09-07T13:56:05Z</time>
      </trkpt>
      <trkpt lat="44.41648" lon="5.55991">
        <ele>894.5</ele>
        <time>2021-09-07T13:56:06Z</time>
      </trkpt>
      <trkpt lat="44.41641" lon="5.55997">
        <ele>894.3</ele>
        <time>2021-09-07T13:56:07Z</time>
      </trkpt>
      <trkpt lat="44.41634" lon="5.56002">
        <ele>894</ele>
        <time>2021-09-07T13:56:08Z</time>
      </trkpt>
      <trkpt lat="44.41626" lon="5.56006">
        <ele>893.6</ele>
        <time>2021-09-07T13:56:09Z</time>
      </trkpt>
      <trkpt lat="44.41618" lon="5.5601">
        <ele>893.3</ele>
        <time>2021-09-07T13:56:10Z</time>
      </trkpt>
      <trkpt lat="44.4161" lon="5.56013">
        <ele>893</ele>
        <time>2021-09-07T13:56:11Z</time>
      </trkpt>
      <trkpt lat="44.41601" lon="5.56015">
        <ele>892.7</ele>
        <time>2021-09-07T13:56:12Z</time>
      </trkpt>
      <trkpt lat="44.41593" lon="5.56018">
        <ele>892.4</ele>
        <time>2021-09-07T13:56:13Z</time>
      </trkpt>
      <trkpt lat="44.41584" lon="5.5602">
        <ele>892.1</ele>
        <time>2021-09-07T13:56:14Z</time>
      </trkpt>
      <trkpt lat="44.41576" lon="5.56023">
        <ele>891.8</ele>
        <time>2021-09-07T13:56:15Z</time>
      </trkpt>
      <trkpt lat="44.41567" lon="5.56026">
        <ele>891.5</ele>
        <time>2021-09-07T13:56:16Z</time>
      </trkpt>
      <trkpt lat="44.41558" lon="5.56029">
        <ele>891.2</ele>
        <time>2021-09-07T13:56:17Z</time>
      </trkpt>
      <trkpt lat="44.41549" lon="5.56033">
        <ele>890.8</ele>
        <time>2021-09-07T13:56:18Z</time>
      </trkpt>
      <trkpt lat="44.4154" lon="5.56037">
        <ele>890.4</ele>
        <time>2021-09-07T13:56:19Z</time>
      </trkpt>
      <trkpt lat="44.4153" lon="5.56039">
        <ele>889.9</ele>
        <time>2021-09-07T13:56:20Z</time>
      </trkpt>
      <trkpt lat="44.41521" lon="5.56041">
        <ele>889.4</ele>
        <time>2021-09-07T13:56:21Z</time>
      </trkpt>
      <trkpt lat="44.41511" lon="5.56042">
        <ele>888.8</ele>
        <time>2021-09-07T13:56:22Z</time>
      </trkpt>
      <trkpt lat="44.41501" lon="5.56044">
        <ele>888.1</ele>
        <time>2021-09-07T13:56:23Z</time>
      </trkpt>
      <trkpt lat="44.41492" lon="5.56048">
        <ele>887.4</ele>
        <time>2021-09-07T13:56:24Z</time>
      </trkpt>
      <trkpt lat="44.41483" lon="5.56054">
        <ele>886.6</ele>
        <time>2021-09-07T13:56:25Z</time>
      </trkpt>
      <trkpt lat="44.41473" lon="5.5606">
        <ele>885.7</ele>
        <time>2021-09-07T13:56:26Z</time>
      </trkpt>
      <trkpt lat="44.41463" lon="5.56066">
        <ele>884.8</ele>
        <time>2021-09-07T13:56:27Z</time>
      </trkpt>
      <trkpt lat="44.41453" lon="5.56071">
        <ele>883.9</ele>
        <time>2021-09-07T13:56:28Z</time>
      </trkpt>
      <trkpt lat="44.41443" lon="5.56075">
        <ele>883.1</ele>
        <time>2021-09-07T13:56:29Z</time>
      </trkpt>
      <trkpt lat="44.41432" lon="5.56078">
        <ele>882.3</ele>
        <time>2021-09-07T13:56:30Z</time>
      </trkpt>
      <trkpt lat="44.41422" lon="5.56078">
        <ele>881.7</ele>
        <time>2021-09-07T13:56:31Z</time>
      </trkpt>
      <trkpt lat="44.41411" lon="5.56076">
        <ele>881</ele>
        <time>2021-09-07T13:56:32Z</time>
      </trkpt>
      <trkpt lat="44.41401" lon="5.56071">
        <ele>880.3</ele>
        <time>2021-09-07T13:56:33Z</time>
      </trkpt>
      <trkpt lat="44.41392" lon="5.56062">
        <ele>879.6</ele>
        <time>2021-09-07T13:56:34Z</time>
      </trkpt>
      <trkpt lat="44.41383" lon="5.56052">
        <ele>878.7</ele>
        <time>2021-09-07T13:56:35Z</time>
      </trkpt>
      <trkpt lat="44.41376" lon="5.56038">
        <ele>877.6</ele>
        <time>2021-09-07T13:56:36Z</time>
      </trkpt>
      <trkpt lat="44.41369" lon="5.56024">
        <ele>876.4</ele>
        <time>2021-09-07T13:56:37Z</time>
      </trkpt>
      <trkpt lat="44.41362" lon="5.5601">
        <ele>875.3</ele>
        <time>2021-09-07T13:56:38Z</time>
      </trkpt>
      <trkpt lat="44.41357" lon="5.55997">
        <ele>874.8</ele>
        <time>2021-09-07T13:56:39Z</time>
      </trkpt>
      <trkpt lat="44.41352" lon="5.55983">
        <ele>874.4</ele>
        <time>2021-09-07T13:56:40Z</time>
      </trkpt>
      <trkpt lat="44.41349" lon="5.55971">
        <ele>874</ele>
        <time>2021-09-07T13:56:41Z</time>
      </trkpt>
      <trkpt lat="44.41348" lon="5.55959">
        <ele>873.5</ele>
        <time>2021-09-07T13:56:42Z</time>
      </trkpt>
      <trkpt lat="44.4135" lon="5.55948">
        <ele>872.9</ele>
        <time>2021-09-07T13:56:43Z</time>
      </trkpt>
      <trkpt lat="44.41352" lon="5.55937">
        <ele>872.3</ele>
        <time>2021-09-07T13:56:44Z</time>
      </trkpt>
      <trkpt lat="44.41358" lon="5.55927">
        <ele>871.6</ele>
        <time>2021-09-07T13:56:45Z</time>
      </trkpt>
      <trkpt lat="44.41371" lon="5.55919">
        <ele>870.4</ele>
        <time>2021-09-07T13:56:46Z</time>
      </trkpt>
      <trkpt lat="44.41383" lon="5.55911">
        <ele>869.2</ele>
        <time>2021-09-07T13:56:47Z</time>
      </trkpt>
      <trkpt lat="44.41395" lon="5.55905">
        <ele>868.1</ele>
        <time>2021-09-07T13:56:48Z</time>
      </trkpt>
      <trkpt lat="44.41407" lon="5.55899">
        <ele>867.2</ele>
        <time>2021-09-07T13:56:49Z</time>
      </trkpt>
      <trkpt lat="44.41418" lon="5.55893">
        <ele>866.4</ele>
        <time>2021-09-07T13:56:50Z</time>
      </trkpt>
      <trkpt lat="44.4143" lon="5.55885">
        <ele>865.7</ele>
        <time>2021-09-07T13:56:51Z</time>
      </trkpt>
      <trkpt lat="44.41441" lon="5.55877">
        <ele>865</ele>
        <time>2021-09-07T13:56:52Z</time>
      </trkpt>
      <trkpt lat="44.41452" lon="5.55868">
        <ele>864.2</ele>
        <time>2021-09-07T13:56:53Z</time>
      </trkpt>
      <trkpt lat="44.41463" lon="5.55859">
        <ele>863.4</ele>
        <time>2021-09-07T13:56:54Z</time>
      </trkpt>
      <trkpt lat="44.41472" lon="5.55848">
        <ele>862.7</ele>
        <time>2021-09-07T13:56:55Z</time>
      </trkpt>
      <trkpt lat="44.41481" lon="5.55837">
        <ele>862</ele>
        <time>2021-09-07T13:56:56Z</time>
      </trkpt>
      <trkpt lat="44.4149" lon="5.55826">
        <ele>861.1</ele>
        <time>2021-09-07T13:56:57Z</time>
      </trkpt>
      <trkpt lat="44.41499" lon="5.55816">
        <ele>860.4</ele>
        <time>2021-09-07T13:56:58Z</time>
      </trkpt>
      <trkpt lat="44.41508" lon="5.55805">
        <ele>859.7</ele>
        <time>2021-09-07T13:56:59Z</time>
      </trkpt>
      <trkpt lat="44.41517" lon="5.55796">
        <ele>859.1</ele>
        <time>2021-09-07T13:57:00Z</time>
      </trkpt>
      <trkpt lat="44.41526" lon="5.55787">
        <ele>858.5</ele>
        <time>2021-09-07T13:57:01Z</time>
      </trkpt>
      <trkpt lat="44.41534" lon="5.55778">
        <ele>857.2</ele>
        <time>2021-09-07T13:57:02Z</time>
      </trkpt>
      <trkpt lat="44.41541" lon="5.55768">
        <ele>856.4</ele>
        <time>2021-09-07T13:57:03Z</time>
      </trkpt>
      <trkpt lat="44.41547" lon="5.55758">
        <ele>855.7</ele>
        <time>2021-09-07T13:57:04Z</time>
      </trkpt>
      <trkpt lat="44.4155" lon="5.55746">
        <ele>855.2</ele>
        <time>2021-09-07T13:57:05Z</time>
      </trkpt>
      <trkpt lat="44.41552" lon="5.55734">
        <ele>854.7</ele>
        <time>2021-09-07T13:57:06Z</time>
      </trkpt>
      <trkpt lat="44.41552" lon="5.55722">
        <ele>854.2</ele>
        <time>2021-09-07T13:57:07Z</time>
      </trkpt>
      <trkpt lat="44.41552" lon="5.5571">
        <ele>853.7</ele>
        <time>2021-09-07T13:57:08Z</time>
      </trkpt>
      <trkpt lat="44.41551" lon="5.55699">
        <ele>853.5</ele>
        <time>2021-09-07T13:57:09Z</time>
      </trkpt>
      <trkpt lat="44.4155" lon="5.55688">
        <ele>853.4</ele>
        <time>2021-09-07T13:57:10Z</time>
      </trkpt>
      <trkpt lat="44.41549" lon="5.55676">
        <ele>853.3</ele>
        <time>2021-09-07T13:57:11Z</time>
      </trkpt>
      <trkpt lat="44.41549" lon="5.55665">
        <ele>853.3</ele>
        <time>2021-09-07T13:57:12Z</time>
      </trkpt>
      <trkpt lat="44.41551" lon="5.55656">
        <ele>853.4</ele>
        <time>2021-09-07T13:57:13Z</time>
      </trkpt>
      <trkpt lat="44.41552" lon="5.55647">
        <ele>853.4</ele>
        <time>2021-09-07T13:57:14Z</time>
      </trkpt>
      <trkpt lat="44.41555" lon="5.55639">
        <ele>853.4</ele>
        <time>2021-09-07T13:57:15Z</time>
      </trkpt>
      <trkpt lat="44.41557" lon="5.55631">
        <ele>853.5</ele>
        <time>2021-09-07T13:57:16Z</time>
      </trkpt>
      <trkpt lat="44.41561" lon="5.55626">
        <ele>853.5</ele>
        <time>2021-09-07T13:57:17Z</time>
      </trkpt>
      <trkpt lat="44.41564" lon="5.5562">
        <ele>853.5</ele>
        <time>2021-09-07T13:57:18Z</time>
      </trkpt>
      <trkpt lat="44.41568" lon="5.55616">
        <ele>853.5</ele>
        <time>2021-09-07T13:57:19Z</time>
      </trkpt>
      <trkpt lat="44.41572" lon="5.55612">
        <ele>853.5</ele>
        <time>2021-09-07T13:57:20Z</time>
      </trkpt>
      <trkpt lat="44.41575" lon="5.55609">
        <ele>853.5</ele>
        <time>2021-09-07T13:57:21Z</time>
      </trkpt>
      <trkpt lat="44.41578" lon="5.55606">
        <ele>853.6</ele>
        <time>2021-09-07T13:57:22Z</time>
      </trkpt>
      <trkpt lat="44.4158" lon="5.55603">
        <ele>853.6</ele>
        <time>2021-09-07T13:57:23Z</time>
      </trkpt>
      <trkpt lat="44.41582" lon="5.55599">
        <ele>853.6</ele>
        <time>2021-09-07T13:57:24Z</time>
      </trkpt>
      <trkpt lat="44.41584" lon="5.55595">
        <ele>853.7</ele>
        <time>2021-09-07T13:57:25Z</time>
      </trkpt>
      <trkpt lat="44.41586" lon="5.5559">
        <ele>853.7</ele>
        <time>2021-09-07T13:57:26Z</time>
      </trkpt>
      <trkpt lat="44.41586" lon="5.55585">
        <ele>853.7</ele>
        <time>2021-09-07T13:57:27Z</time>
      </trkpt>
      <trkpt lat="44.41586" lon="5.55579">
        <ele>853.7</ele>
        <time>2021-09-07T13:57:28Z</time>
      </trkpt>
      <trkpt lat="44.41585" lon="5.55575">
        <ele>853.6</ele>
        <time>2021-09-07T13:57:29Z</time>
      </trkpt>
      <trkpt lat="44.41583" lon="5.55573">
        <ele>853.6</ele>
        <time>2021-09-07T13:57:30Z</time>
      </trkpt>
      <trkpt lat="44.4158" lon="5.55572">
        <ele>853.6</ele>
        <time>2021-09-07T13:57:31Z</time>
      </trkpt>
      <trkpt lat="44.41577" lon="5.55571">
        <ele>853.6</ele>
        <time>2021-09-07T13:57:32Z</time>
      </trkpt>
      <trkpt lat="44.41573" lon="5.55572">
        <ele>853.5</ele>
        <time>2021-09-07T13:57:33Z</time>
      </trkpt>
      <trkpt lat="44.41569" lon="5.55572">
        <ele>853.5</ele>
        <time>2021-09-07T13:57:34Z</time>
      </trkpt>
      <trkpt lat="44.41564" lon="5.55572">
        <ele>853.4</ele>
        <time>2021-09-07T13:57:35Z</time>
      </trkpt>
      <trkpt lat="44.4156" lon="5.55573">
        <ele>853.4</ele>
        <time>2021-09-07T13:57:36Z</time>
      </trkpt>
      <trkpt lat="44.41556" lon="5.55573">
        <ele>853.4</ele>
        <time>2021-09-07T13:57:37Z</time>
      </trkpt>
      <trkpt lat="44.41552" lon="5.55573">
        <ele>853.4</ele>
        <time>2021-09-07T13:57:38Z</time>
      </trkpt>
      <trkpt lat="44.41548" lon="5.55571">
        <ele>853.4</ele>
        <time>2021-09-07T13:57:39Z</time>
      </trkpt>
      <trkpt lat="44.41544" lon="5.55569">
        <ele>853.4</ele>
        <time>2021-09-07T13:57:40Z</time>
      </trkpt>
      <trkpt lat="44.4154" lon="5.55566">
        <ele>853.5</ele>
        <time>2021-09-07T13:57:41Z</time>
      </trkpt>
      <trkpt lat="44.41537" lon="5.55564">
        <ele>853.5</ele>
        <time>2021-09-07T13:57:42Z</time>
      </trkpt>
      <trkpt lat="44.41533" lon="5.55561">
        <ele>853.5</ele>
        <time>2021-09-07T13:57:43Z</time>
      </trkpt>
      <trkpt lat="44.4153" lon="5.55558">
        <ele>853.5</ele>
        <time>2021-09-07T13:57:44Z</time>
      </trkpt>
      <trkpt lat="44.41527" lon="5.55556">
        <ele>853.6</ele>
        <time>2021-09-07T13:57:45Z</time>
      </trkpt>
      <trkpt lat="44.41524" lon="5.55553">
        <ele>853.6</ele>
        <time>2021-09-07T13:57:46Z</time>
      </trkpt>
      <trkpt lat="44.41522" lon="5.55551">
        <ele>853.6</ele>
        <time>2021-09-07T13:57:47Z</time>
      </trkpt>
      <trkpt lat="44.4152" lon="5.55548">
        <ele>853.7</ele>
        <time>2021-09-07T13:57:48Z</time>
      </trkpt>
      <trkpt lat="44.41519" lon="5.55544">
        <ele>853.7</ele>
        <time>2021-09-07T13:57:49Z</time>
      </trkpt>
      <trkpt lat="44.41517" lon="5.55541">
        <ele>853.8</ele>
        <time>2021-09-07T13:57:50Z</time>
      </trkpt>
      <trkpt lat="44.41515" lon="5.55538">
        <ele>853.9</ele>
        <time>2021-09-07T13:57:51Z</time>
      </trkpt>
      <trkpt lat="44.41514" lon="5.55536">
        <ele>854</ele>
        <time>2021-09-07T13:57:52Z</time>
      </trkpt>
      <trkpt lat="44.41512" lon="5.55533">
        <ele>854.1</ele>
        <time>2021-09-07T13:57:53Z</time>
      </trkpt>
      <trkpt lat="44.41511" lon="5.55531">
        <ele>854.2</ele>
        <time>2021-09-07T13:57:54Z</time>
      </trkpt>
      <trkpt lat="44.41509" lon="5.55528">
        <ele>854.3</ele>
        <time>2021-09-07T13:57:55Z</time>
      </trkpt>
      <trkpt lat="44.41508" lon="5.55526">
        <ele>854.4</ele>
        <time>2021-09-07T13:57:56Z</time>
      </trkpt>
      <trkpt lat="44.41506" lon="5.55523">
        <ele>854.5</ele>
        <time>2021-09-07T13:57:57Z</time>
      </trkpt>
      <trkpt lat="44.41503" lon="5.55518">
        <ele>854.8</ele>
        <time>2021-09-07T13:57:58Z</time>
      </trkpt>
      <trkpt lat="44.41501" lon="5.55516">
        <ele>855</ele>
        <time>2021-09-07T13:57:59Z</time>
      </trkpt>
      <trkpt lat="44.415" lon="5.55515">
        <ele>855</ele>
        <time>2021-09-07T13:58:00Z</time>
      </trkpt>
      <trkpt lat="44.41499" lon="5.55514">
        <ele>855.1</ele>
        <time>2021-09-07T13:58:01Z</time>
      </trkpt>
      <trkpt lat="44.41498" lon="5.55511">
        <ele>855.3</ele>
        <time>2021-09-07T13:58:02Z</time>
      </trkpt>
      <trkpt lat="44.41496" lon="5.5551">
        <ele>855.5</ele>
        <time>2021-09-07T13:58:03Z</time>
      </trkpt>
      <trkpt lat="44.41494" lon="5.55507">
        <ele>855.7</ele>
        <time>2021-09-07T13:58:04Z</time>
      </trkpt>
      <trkpt lat="44.41493" lon="5.55505">
        <ele>855.8</ele>
        <time>2021-09-07T13:58:05Z</time>
      </trkpt>
      <trkpt lat="44.41491" lon="5.55503">
        <ele>856</ele>
        <time>2021-09-07T13:58:06Z</time>
      </trkpt>
      <trkpt lat="44.4149" lon="5.555">
        <ele>856.2</ele>
        <time>2021-09-07T13:58:07Z</time>
      </trkpt>
      <trkpt lat="44.41489" lon="5.55499">
        <ele>856.3</ele>
        <time>2021-09-07T13:58:08Z</time>
      </trkpt>
      <trkpt lat="44.41488" lon="5.55497">
        <ele>856.4</ele>
        <time>2021-09-07T13:58:09Z</time>
      </trkpt>
      <trkpt lat="44.41486" lon="5.55496">
        <ele>856.6</ele>
        <time>2021-09-07T13:58:10Z</time>
      </trkpt>
      <trkpt lat="44.41484" lon="5.55496">
        <ele>856.8</ele>
        <time>2021-09-07T13:58:11Z</time>
      </trkpt>
      <trkpt lat="44.41483" lon="5.55496">
        <ele>856.9</ele>
        <time>2021-09-07T13:58:12Z</time>
      </trkpt>
      <trkpt lat="44.41481" lon="5.55495">
        <ele>857</ele>
        <time>2021-09-07T13:58:13Z</time>
      </trkpt>
      <trkpt lat="44.4148" lon="5.55495">
        <ele>857.1</ele>
        <time>2021-09-07T13:58:14Z</time>
      </trkpt>
      <trkpt lat="44.41478" lon="5.55495">
        <ele>857.2</ele>
        <time>2021-09-07T13:58:15Z</time>
      </trkpt>
      <trkpt lat="44.41477" lon="5.55495">
        <ele>857.3</ele>
        <time>2021-09-07T13:58:16Z</time>
      </trkpt>
      <trkpt lat="44.41475" lon="5.55495">
        <ele>857.4</ele>
        <time>2021-09-07T13:58:17Z</time>
      </trkpt>
      <trkpt lat="44.41473" lon="5.55494">
        <ele>857.5</ele>
        <time>2021-09-07T13:58:18Z</time>
      </trkpt>
      <trkpt lat="44.41472" lon="5.55495">
        <ele>857.6</ele>
        <time>2021-09-07T13:58:19Z</time>
      </trkpt>
      <trkpt lat="44.4147" lon="5.55495">
        <ele>857.6</ele>
        <time>2021-09-07T13:58:20Z</time>
      </trkpt>
      <trkpt lat="44.41468" lon="5.55494">
        <ele>857.7</ele>
        <time>2021-09-07T13:58:21Z</time>
      </trkpt>
      <trkpt lat="44.41467" lon="5.55494">
        <ele>857.8</ele>
        <time>2021-09-07T13:58:22Z</time>
      </trkpt>
      <trkpt lat="44.41465" lon="5.55493">
        <ele>857.9</ele>
        <time>2021-09-07T13:58:23Z</time>
      </trkpt>
      <trkpt lat="44.41464" lon="5.55492">
        <ele>858</ele>
        <time>2021-09-07T13:58:24Z</time>
      </trkpt>
      <trkpt lat="44.41462" lon="5.55491">
        <ele>858.1</ele>
        <time>2021-09-07T13:58:25Z</time>
      </trkpt>
      <trkpt lat="44.4146" lon="5.5549">
        <ele>858.2</ele>
        <time>2021-09-07T13:58:26Z</time>
      </trkpt>
      <trkpt lat="44.41459" lon="5.55489">
        <ele>858.2</ele>
        <time>2021-09-07T13:58:27Z</time>
      </trkpt>
      <trkpt lat="44.41457" lon="5.55487">
        <ele>858.4</ele>
        <time>2021-09-07T13:58:28Z</time>
      </trkpt>
      <trkpt lat="44.41456" lon="5.55486">
        <ele>858.4</ele>
        <time>2021-09-07T13:58:29Z</time>
      </trkpt>
      <trkpt lat="44.41454" lon="5.55485">
        <ele>858.5</ele>
        <time>2021-09-07T13:58:30Z</time>
      </trkpt>
      <trkpt lat="44.41452" lon="5.55484">
        <ele>858.6</ele>
        <time>2021-09-07T13:58:31Z</time>
      </trkpt>
      <trkpt lat="44.41451" lon="5.55483">
        <ele>858.7</ele>
        <time>2021-09-07T13:58:32Z</time>
      </trkpt>
      <trkpt lat="44.4145" lon="5.55482">
        <ele>858.7</ele>
        <time>2021-09-07T13:58:33Z</time>
      </trkpt>
      <trkpt lat="44.41449" lon="5.5548">
        <ele>858.8</ele>
        <time>2021-09-07T13:58:34Z</time>
      </trkpt>
      <trkpt lat="44.41448" lon="5.55478">
        <ele>858.9</ele>
        <time>2021-09-07T13:58:35Z</time>
      </trkpt>
      <trkpt lat="44.41446" lon="5.55475">
        <ele>859</ele>
        <time>2021-09-07T13:58:36Z</time>
      </trkpt>
      <trkpt lat="44.41446" lon="5.55474">
        <ele>859</ele>
        <time>2021-09-07T13:58:37Z</time>
      </trkpt>
      <trkpt lat="44.41445" lon="5.55472">
        <ele>859.1</ele>
        <time>2021-09-07T13:58:38Z</time>
      </trkpt>
      <trkpt lat="44.41444" lon="5.5547">
        <ele>859.2</ele>
        <time>2021-09-07T13:58:39Z</time>
      </trkpt>
      <trkpt lat="44.41443" lon="5.55469">
        <ele>859.2</ele>
        <time>2021-09-07T13:58:40Z</time>
      </trkpt>
      <trkpt lat="44.41442" lon="5.55468">
        <ele>859.2</ele>
        <time>2021-09-07T13:58:41Z</time>
      </trkpt>
      <trkpt lat="44.41441" lon="5.55467">
        <ele>859.3</ele>
        <time>2021-09-07T13:58:42Z</time>
      </trkpt>
      <trkpt lat="44.41439" lon="5.55465">
        <ele>859.4</ele>
        <time>2021-09-07T13:58:43Z</time>
      </trkpt>
      <trkpt lat="44.41438" lon="5.55465">
        <ele>859.4</ele>
        <time>2021-09-07T13:58:44Z</time>
      </trkpt>
      <trkpt lat="44.41437" lon="5.55464">
        <ele>859.4</ele>
        <time>2021-09-07T13:58:45Z</time>
      </trkpt>
      <trkpt lat="44.41436" lon="5.55463">
        <ele>859.5</ele>
        <time>2021-09-07T13:58:46Z</time>
      </trkpt>
      <trkpt lat="44.41434" lon="5.55462">
        <ele>859.5</ele>
        <time>2021-09-07T13:58:47Z</time>
      </trkpt>
      <trkpt lat="44.41432" lon="5.55461">
        <ele>859.6</ele>
        <time>2021-09-07T13:58:48Z</time>
      </trkpt>
      <trkpt lat="44.41431" lon="5.55461">
        <ele>859.6</ele>
        <time>2021-09-07T13:58:49Z</time>
      </trkpt>
      <trkpt lat="44.4143" lon="5.5546">
        <ele>859.7</ele>
        <time>2021-09-07T13:58:50Z</time>
      </trkpt>
      <trkpt lat="44.41428" lon="5.5546">
        <ele>859.7</ele>
        <time>2021-09-07T13:58:51Z</time>
      </trkpt>
      <trkpt lat="44.41427" lon="5.55459">
        <ele>859.8</ele>
        <time>2021-09-07T13:58:52Z</time>
      </trkpt>
      <trkpt lat="44.41426" lon="5.55458">
        <ele>859.8</ele>
        <time>2021-09-07T13:58:53Z</time>
      </trkpt>
      <trkpt lat="44.41424" lon="5.55456">
        <ele>859.9</ele>
        <time>2021-09-07T13:58:54Z</time>
      </trkpt>
      <trkpt lat="44.41423" lon="5.55454">
        <ele>860</ele>
        <time>2021-09-07T13:58:55Z</time>
      </trkpt>
      <trkpt lat="44.41423" lon="5.55453">
        <ele>860</ele>
        <time>2021-09-07T13:58:56Z</time>
      </trkpt>
      <trkpt lat="44.41422" lon="5.55452">
        <ele>860</ele>
        <time>2021-09-07T13:58:57Z</time>
      </trkpt>
      <trkpt lat="44.41421" lon="5.5545">
        <ele>860.1</ele>
        <time>2021-09-07T13:58:58Z</time>
      </trkpt>
      <trkpt lat="44.4142" lon="5.55449">
        <ele>860.1</ele>
        <time>2021-09-07T13:58:59Z</time>
      </trkpt>
      <trkpt lat="44.41418" lon="5.55447">
        <ele>860.2</ele>
        <time>2021-09-07T13:59:00Z</time>
      </trkpt>
      <trkpt lat="44.41417" lon="5.55447">
        <ele>860.3</ele>
        <time>2021-09-07T13:59:01Z</time>
      </trkpt>
      <trkpt lat="44.41416" lon="5.55446">
        <ele>860.3</ele>
        <time>2021-09-07T13:59:02Z</time>
      </trkpt>
      <trkpt lat="44.41413" lon="5.55444">
        <ele>860.4</ele>
        <time>2021-09-07T13:59:03Z</time>
      </trkpt>
      <trkpt lat="44.41411" lon="5.55444">
        <ele>860.5</ele>
        <time>2021-09-07T13:59:04Z</time>
      </trkpt>
      <trkpt lat="44.41409" lon="5.55443">
        <ele>860.5</ele>
        <time>2021-09-07T13:59:05Z</time>
      </trkpt>
      <trkpt lat="44.41406" lon="5.55441">
        <ele>860.6</ele>
        <time>2021-09-07T13:59:06Z</time>
      </trkpt>
      <trkpt lat="44.41404" lon="5.5544">
        <ele>860.7</ele>
        <time>2021-09-07T13:59:07Z</time>
      </trkpt>
      <trkpt lat="44.41402" lon="5.55439">
        <ele>860.8</ele>
        <time>2021-09-07T13:59:08Z</time>
      </trkpt>
      <trkpt lat="44.414" lon="5.55439">
        <ele>860.8</ele>
        <time>2021-09-07T13:59:09Z</time>
      </trkpt>
      <trkpt lat="44.41398" lon="5.55439">
        <ele>860.8</ele>
        <time>2021-09-07T13:59:10Z</time>
      </trkpt>
      <trkpt lat="44.41396" lon="5.55438">
        <ele>860.7</ele>
        <time>2021-09-07T13:59:11Z</time>
      </trkpt>
      <trkpt lat="44.41394" lon="5.55437">
        <ele>860.7</ele>
        <time>2021-09-07T13:59:12Z</time>
      </trkpt>
      <trkpt lat="44.41391" lon="5.55437">
        <ele>860.6</ele>
        <time>2021-09-07T13:59:13Z</time>
      </trkpt>
      <trkpt lat="44.4139" lon="5.55438">
        <ele>860.6</ele>
        <time>2021-09-07T13:59:14Z</time>
      </trkpt>
      <trkpt lat="44.41388" lon="5.55438">
        <ele>860.6</ele>
        <time>2021-09-07T13:59:15Z</time>
      </trkpt>
      <trkpt lat="44.41385" lon="5.55439">
        <ele>860.3</ele>
        <time>2021-09-07T13:59:16Z</time>
      </trkpt>
      <trkpt lat="44.41383" lon="5.5544">
        <ele>860.3</ele>
        <time>2021-09-07T13:59:17Z</time>
      </trkpt>
      <trkpt lat="44.41381" lon="5.5544">
        <ele>860.2</ele>
        <time>2021-09-07T13:59:18Z</time>
      </trkpt>
      <trkpt lat="44.41379" lon="5.5544">
        <ele>860.1</ele>
        <time>2021-09-07T13:59:19Z</time>
      </trkpt>
      <trkpt lat="44.41377" lon="5.5544">
        <ele>860.1</ele>
        <time>2021-09-07T13:59:20Z</time>
      </trkpt>
      <trkpt lat="44.41374" lon="5.55441">
        <ele>860</ele>
        <time>2021-09-07T13:59:21Z</time>
      </trkpt>
      <trkpt lat="44.41371" lon="5.55442">
        <ele>859.9</ele>
        <time>2021-09-07T13:59:22Z</time>
      </trkpt>
      <trkpt lat="44.41369" lon="5.55443">
        <ele>859.8</ele>
        <time>2021-09-07T13:59:23Z</time>
      </trkpt>
      <trkpt lat="44.41368" lon="5.55444">
        <ele>859.7</ele>
        <time>2021-09-07T13:59:24Z</time>
      </trkpt>
      <trkpt lat="44.41366" lon="5.55444">
        <ele>859.7</ele>
        <time>2021-09-07T13:59:25Z</time>
      </trkpt>
      <trkpt lat="44.41365" lon="5.55443">
        <ele>859.6</ele>
        <time>2021-09-07T13:59:26Z</time>
      </trkpt>
      <trkpt lat="44.41365" lon="5.55443">
        <ele>859.6</ele>
        <time>2021-09-07T13:59:27Z</time>
      </trkpt>
      <trkpt lat="44.41365" lon="5.55443">
        <ele>859.6</ele>
        <time>2021-09-07T13:59:28Z</time>
      </trkpt>
      <trkpt lat="44.41365" lon="5.55443">
        <ele>859.6</ele>
        <time>2021-09-07T13:59:29Z</time>
      </trkpt>
      <trkpt lat="44.41364" lon="5.55443">
        <ele>859.6</ele>
        <time>2021-09-07T13:59:30Z</time>
      </trkpt>
      <trkpt lat="44.41364" lon="5.55443">
        <ele>859.6</ele>
        <time>2021-09-07T13:59:31Z</time>
      </trkpt>
      <trkpt lat="44.41364" lon="5.55443">
        <ele>859.6</ele>
        <time>2021-09-07T13:59:32Z</time>
      </trkpt>
      <trkpt lat="44.41364" lon="5.55443">
        <ele>859.6</ele>
        <time>2021-09-07T13:59:33Z</time>
      </trkpt>
      <trkpt lat="44.41364" lon="5.55443">
        <ele>859.6</ele>
        <time>2021-09-07T13:59:34Z</time>
      </trkpt>
      <trkpt lat="44.41364" lon="5.55443">
        <ele>859.6</ele>
        <time>2021-09-07T13:59:35Z</time>
      </trkpt>
      <trkpt lat="44.41364" lon="5.55443">
        <ele>859.6</ele>
        <time>2021-09-07T13:59:36Z</time>
      </trkpt>
      <trkpt lat="44.41364" lon="5.55443">
        <ele>859.5</ele>
        <time>2021-09-07T13:59:37Z</time>
      </trkpt>
      <trkpt lat="44.41364" lon="5.55442">
        <ele>859.5</ele>
        <time>2021-09-07T13:59:38Z</time>
      </trkpt>
      <trkpt lat="44.41364" lon="5.55442">
        <ele>859.5</ele>
        <time>2021-09-07T13:59:39Z</time>
      </trkpt>
      <trkpt lat="44.41364" lon="5.55443">
        <ele>859.5</ele>
        <time>2021-09-07T13:59:40Z</time>
      </trkpt>
      <trkpt lat="44.41364" lon="5.55443">
        <ele>859.5</ele>
        <time>2021-09-07T13:59:41Z</time>
      </trkpt>
      <trkpt lat="44.41364" lon="5.55443">
        <ele>859.5</ele>
        <time>2021-09-07T13:59:42Z</time>
      </trkpt>
      <trkpt lat="44.41365" lon="5.55444">
        <ele>859.5</ele>
        <time>2021-09-07T13:59:43Z</time>
      </trkpt>
      <trkpt lat="44.41365" lon="5.55444">
        <ele>859.5</ele>
        <time>2021-09-07T13:59:44Z</time>
      </trkpt>
      <trkpt lat="44.41365" lon="5.55444">
        <ele>859.5</ele>
        <time>2021-09-07T13:59:45Z</time>
      </trkpt>
      <trkpt lat="44.41365" lon="5.55444">
        <ele>859.5</ele>
        <time>2021-09-07T13:59:46Z</time>
      </trkpt>
      <trkpt lat="44.41365" lon="5.55444">
        <ele>859.5</ele>
        <time>2021-09-07T13:59:47Z</time>
      </trkpt>
      <trkpt lat="44.41365" lon="5.55444">
        <ele>859.5</ele>
        <time>2021-09-07T13:59:48Z</time>
      </trkpt>
      <trkpt lat="44.41365" lon="5.55444">
        <ele>859.5</ele>
        <time>2021-09-07T13:59:49Z</time>
      </trkpt>
      <trkpt lat="44.41365" lon="5.55444">
        <ele>859.5</ele>
        <time>2021-09-07T13:59:50Z</time>
      </trkpt>
      <trkpt lat="44.41365" lon="5.55444">
        <ele>859.5</ele>
        <time>2021-09-07T13:59:51Z</time>
      </trkpt>
      <trkpt lat="44.41365" lon="5.55444">
        <ele>859.5</ele>
        <time>2021-09-07T13:59:52Z</time>
      </trkpt>
      <trkpt lat="44.41365" lon="5.55444">
        <ele>859.5</ele>
        <time>2021-09-07T13:59:53Z</time>
      </trkpt>
      <trkpt lat="44.41365" lon="5.55444">
        <ele>859.5</ele>
        <time>2021-09-07T13:59:54Z</time>
      </trkpt>
      <trkpt lat="44.41365" lon="5.55444">
        <ele>859.5</ele>
        <time>2021-09-07T13:59:55Z</time>
      </trkpt>
      <trkpt lat="44.41365" lon="5.55444">
        <ele>859.5</ele>
        <time>2021-09-07T13:59:56Z</time>
      </trkpt>
      <trkpt lat="44.41365" lon="5.55444">
        <ele>859.5</ele>
        <time>2021-09-07T13:59:57Z</time>
      </trkpt>
      <trkpt lat="44.41365" lon="5.55444">
        <ele>859.5</ele>
        <time>2021-09-07T13:59:58Z</time>
      </trkpt>
      <trkpt lat="44.41365" lon="5.55444">
        <ele>859.5</ele>
        <time>2021-09-07T13:59:59Z</time>
      </trkpt>
      <trkpt lat="44.41365" lon="5.55444">
        <ele>859.5</ele>
        <time>2021-09-07T14:00:00Z</time>
      </trkpt>
      <trkpt lat="44.41365" lon="5.55444">
        <ele>859.5</ele>
        <time>2021-09-07T14:00:01Z</time>
      </trkpt>
      <trkpt lat="44.41365" lon="5.55444">
        <ele>859.5</ele>
        <time>2021-09-07T14:00:02Z</time>
      </trkpt>
      <trkpt lat="44.41365" lon="5.55444">
        <ele>859.5</ele>
        <time>2021-09-07T14:00:03Z</time>
      </trkpt>
      <trkpt lat="44.41365" lon="5.55444">
        <ele>859.5</ele>
        <time>2021-09-07T14:00:04Z</time>
      </trkpt>
      <trkpt lat="44.41365" lon="5.55444">
        <ele>859.5</ele>
        <time>2021-09-07T14:00:05Z</time>
      </trkpt>
      <trkpt lat="44.41365" lon="5.55444">
        <ele>859.5</ele>
        <time>2021-09-07T14:00:06Z</time>
      </trkpt>
      <trkpt lat="44.41365" lon="5.55444">
        <ele>859.5</ele>
        <time>2021-09-07T14:00:07Z</time>
      </trkpt>
      <trkpt lat="44.41365" lon="5.55444">
        <ele>859.5</ele>
        <time>2021-09-07T14:00:08Z</time>
      </trkpt>
      <trkpt lat="44.41365" lon="5.55444">
        <ele>859.5</ele>
        <time>2021-09-07T14:00:09Z</time>
      </trkpt>
      <trkpt lat="44.41365" lon="5.55444">
        <ele>859.5</ele>
        <time>2021-09-07T14:00:10Z</time>
      </trkpt>
      <trkpt lat="44.41365" lon="5.55444">
        <ele>859.5</ele>
        <time>2021-09-07T14:00:11Z</time>
      </trkpt>
      <trkpt lat="44.41365" lon="5.55444">
        <ele>859.5</ele>
        <time>2021-09-07T14:00:12Z</time>
      </trkpt>
      <trkpt lat="44.41365" lon="5.55444">
        <ele>859.5</ele>
        <time>2021-09-07T14:00:13Z</time>
      </trkpt>
      <trkpt lat="44.41365" lon="5.55444">
        <ele>859.5</ele>
        <time>2021-09-07T14:00:14Z</time>
      </trkpt>
      <trkpt lat="44.41365" lon="5.55444">
        <ele>859.5</ele>
        <time>2021-09-07T14:00:15Z</time>
      </trkpt>
      <trkpt lat="44.41365" lon="5.55444">
        <ele>859.5</ele>
        <time>2021-09-07T14:00:16Z</time>
      </trkpt>
      <trkpt lat="44.41365" lon="5.55444">
        <ele>859.5</ele>
        <time>2021-09-07T14:00:17Z</time>
      </trkpt>
      <trkpt lat="44.41365" lon="5.55444">
        <ele>859.5</ele>
        <time>2021-09-07T14:00:18Z</time>
      </trkpt>
      <trkpt lat="44.41365" lon="5.55444">
        <ele>859.5</ele>
        <time>2021-09-07T14:00:19Z</time>
      </trkpt>
      <trkpt lat="44.41365" lon="5.55444">
        <ele>859.5</ele>
        <time>2021-09-07T14:00:20Z</time>
      </trkpt>
      <trkpt lat="44.41365" lon="5.55444">
        <ele>859.5</ele>
        <time>2021-09-07T14:00:21Z</time>
      </trkpt>
      <trkpt lat="44.41365" lon="5.55444">
        <ele>859.5</ele>
        <time>2021-09-07T14:00:22Z</time>
      </trkpt>
      <trkpt lat="44.41365" lon="5.55444">
        <ele>859.5</ele>
        <time>2021-09-07T14:00:23Z</time>
      </trkpt>
      <trkpt lat="44.41365" lon="5.55444">
        <ele>859.5</ele>
        <time>2021-09-07T14:00:24Z</time>
      </trkpt>
      <trkpt lat="44.41365" lon="5.55444">
        <ele>859.5</ele>
        <time>2021-09-07T14:00:25Z</time>
      </trkpt>
      <trkpt lat="44.41365" lon="5.55444">
        <ele>859.5</ele>
        <time>2021-09-07T14:00:26Z</time>
      </trkpt>
      <trkpt lat="44.41365" lon="5.55444">
        <ele>859.5</ele>
        <time>2021-09-07T14:00:27Z</time>
      </trkpt>
      <trkpt lat="44.41365" lon="5.55444">
        <ele>859.5</ele>
        <time>2021-09-07T14:00:28Z</time>
      </trkpt>
      <trkpt lat="44.41365" lon="5.55444">
        <ele>859.5</ele>
        <time>2021-09-07T14:00:29Z</time>
      </trkpt>
      <trkpt lat="44.41365" lon="5.55444">
        <ele>859.5</ele>
        <time>2021-09-07T14:00:30Z</time>
      </trkpt>
      <trkpt lat="44.41365" lon="5.55444">
        <ele>859.5</ele>
        <time>2021-09-07T14:00:31Z</time>
      </trkpt>
      <trkpt lat="44.41365" lon="5.55444">
        <ele>859.5</ele>
        <time>2021-09-07T14:00:32Z</time>
      </trkpt>
      <trkpt lat="44.41364" lon="5.55444">
        <ele>859.4</ele>
        <time>2021-09-07T14:00:33Z</time>
      </trkpt>
      <trkpt lat="44.41364" lon="5.55443">
        <ele>859.4</ele>
        <time>2021-09-07T14:00:34Z</time>
      </trkpt>
      <trkpt lat="44.41363" lon="5.55443">
        <ele>859.3</ele>
        <time>2021-09-07T14:00:35Z</time>
      </trkpt>
      <trkpt lat="44.41363" lon="5.55443">
        <ele>859.3</ele>
        <time>2021-09-07T14:00:36Z</time>
      </trkpt>
      <trkpt lat="44.41362" lon="5.55443">
        <ele>859.3</ele>
        <time>2021-09-07T14:00:37Z</time>
      </trkpt>
      <trkpt lat="44.41359" lon="5.55443">
        <ele>859.1</ele>
        <time>2021-09-07T14:00:38Z</time>
      </trkpt>
      <trkpt lat="44.41357" lon="5.55443">
        <ele>858.8</ele>
        <time>2021-09-07T14:00:39Z</time>
      </trkpt>
      <trkpt lat="44.41355" lon="5.55443">
        <ele>858.6</ele>
        <time>2021-09-07T14:00:40Z</time>
      </trkpt>
      <trkpt lat="44.41351" lon="5.55443">
        <ele>858</ele>
        <time>2021-09-07T14:00:41Z</time>
      </trkpt>
      <trkpt lat="44.41349" lon="5.55444">
        <ele>857.7</ele>
        <time>2021-09-07T14:00:42Z</time>
      </trkpt>
      <trkpt lat="44.41346" lon="5.55445">
        <ele>857.4</ele>
        <time>2021-09-07T14:00:43Z</time>
      </trkpt>
      <trkpt lat="44.41341" lon="5.55447">
        <ele>856.6</ele>
        <time>2021-09-07T14:00:44Z</time>
      </trkpt>
      <trkpt lat="44.41336" lon="5.5545">
        <ele>855.9</ele>
        <time>2021-09-07T14:00:45Z</time>
      </trkpt>
      <trkpt lat="44.4133" lon="5.55454">
        <ele>855.2</ele>
        <time>2021-09-07T14:00:46Z</time>
      </trkpt>
      <trkpt lat="44.41323" lon="5.5546">
        <ele>854.4</ele>
        <time>2021-09-07T14:00:47Z</time>
      </trkpt>
      <trkpt lat="44.4132" lon="5.55463">
        <ele>854</ele>
        <time>2021-09-07T14:00:48Z</time>
      </trkpt>
      <trkpt lat="44.41316" lon="5.55466">
        <ele>853.6</ele>
        <time>2021-09-07T14:00:49Z</time>
      </trkpt>
      <trkpt lat="44.41309" lon="5.55471">
        <ele>852.8</ele>
        <time>2021-09-07T14:00:50Z</time>
      </trkpt>
      <trkpt lat="44.41307" lon="5.55474">
        <ele>852.4</ele>
        <time>2021-09-07T14:00:51Z</time>
      </trkpt>
      <trkpt lat="44.41304" lon="5.55476">
        <ele>852.1</ele>
        <time>2021-09-07T14:00:52Z</time>
      </trkpt>
      <trkpt lat="44.41298" lon="5.55481">
        <ele>851.4</ele>
        <time>2021-09-07T14:00:53Z</time>
      </trkpt>
      <trkpt lat="44.41296" lon="5.55483">
        <ele>850.9</ele>
        <time>2021-09-07T14:00:54Z</time>
      </trkpt>
      <trkpt lat="44.41294" lon="5.55485">
        <ele>850.5</ele>
        <time>2021-09-07T14:00:55Z</time>
      </trkpt>
      <trkpt lat="44.4129" lon="5.55489">
        <ele>849.6</ele>
        <time>2021-09-07T14:00:56Z</time>
      </trkpt>
      <trkpt lat="44.41286" lon="5.55494">
        <ele>848.7</ele>
        <time>2021-09-07T14:00:57Z</time>
      </trkpt>
      <trkpt lat="44.41285" lon="5.55497">
        <ele>848.3</ele>
        <time>2021-09-07T14:00:58Z</time>
      </trkpt>
      <trkpt lat="44.41284" lon="5.555">
        <ele>847.9</ele>
        <time>2021-09-07T14:00:59Z</time>
      </trkpt>
      <trkpt lat="44.41281" lon="5.55508">
        <ele>846.9</ele>
        <time>2021-09-07T14:01:00Z</time>
      </trkpt>
      <trkpt lat="44.4128" lon="5.55511">
        <ele>846.5</ele>
        <time>2021-09-07T14:01:01Z</time>
      </trkpt>
      <trkpt lat="44.41279" lon="5.55513">
        <ele>846.2</ele>
        <time>2021-09-07T14:01:02Z</time>
      </trkpt>
      <trkpt lat="44.41276" lon="5.55519">
        <ele>845.4</ele>
        <time>2021-09-07T14:01:03Z</time>
      </trkpt>
      <trkpt lat="44.41274" lon="5.55522">
        <ele>844.9</ele>
        <time>2021-09-07T14:01:04Z</time>
      </trkpt>
      <trkpt lat="44.41272" lon="5.55525">
        <ele>844.4</ele>
        <time>2021-09-07T14:01:05Z</time>
      </trkpt>
      <trkpt lat="44.41271" lon="5.55527">
        <ele>844</ele>
        <time>2021-09-07T14:01:06Z</time>
      </trkpt>
      <trkpt lat="44.41269" lon="5.55529">
        <ele>843.6</ele>
        <time>2021-09-07T14:01:07Z</time>
      </trkpt>
      <trkpt lat="44.41267" lon="5.55534">
        <ele>842.9</ele>
        <time>2021-09-07T14:01:08Z</time>
      </trkpt>
      <trkpt lat="44.41266" lon="5.55539">
        <ele>842.2</ele>
        <time>2021-09-07T14:01:09Z</time>
      </trkpt>
      <trkpt lat="44.41264" lon="5.55543">
        <ele>841.6</ele>
        <time>2021-09-07T14:01:10Z</time>
      </trkpt>
      <trkpt lat="44.41264" lon="5.55547">
        <ele>841.1</ele>
        <time>2021-09-07T14:01:11Z</time>
      </trkpt>
      <trkpt lat="44.41263" lon="5.55551">
        <ele>840.6</ele>
        <time>2021-09-07T14:01:12Z</time>
      </trkpt>
      <trkpt lat="44.41262" lon="5.55556">
        <ele>840</ele>
        <time>2021-09-07T14:01:13Z</time>
      </trkpt>
      <trkpt lat="44.41262" lon="5.55563">
        <ele>839.2</ele>
        <time>2021-09-07T14:01:14Z</time>
      </trkpt>
      <trkpt lat="44.41262" lon="5.55567">
        <ele>838.7</ele>
        <time>2021-09-07T14:01:15Z</time>
      </trkpt>
      <trkpt lat="44.41262" lon="5.55571">
        <ele>838.1</ele>
        <time>2021-09-07T14:01:16Z</time>
      </trkpt>
      <trkpt lat="44.41262" lon="5.55576">
        <ele>837.4</ele>
        <time>2021-09-07T14:01:17Z</time>
      </trkpt>
      <trkpt lat="44.41262" lon="5.5558">
        <ele>836.9</ele>
        <time>2021-09-07T14:01:18Z</time>
      </trkpt>
      <trkpt lat="44.41261" lon="5.55584">
        <ele>836.2</ele>
        <time>2021-09-07T14:01:19Z</time>
      </trkpt>
      <trkpt lat="44.41261" lon="5.55586">
        <ele>836</ele>
        <time>2021-09-07T14:01:20Z</time>
      </trkpt>
      <trkpt lat="44.41261" lon="5.55587">
        <ele>835.7</ele>
        <time>2021-09-07T14:01:21Z</time>
      </trkpt>
      <trkpt lat="44.41261" lon="5.55588">
        <ele>835.6</ele>
        <time>2021-09-07T14:01:22Z</time>
      </trkpt>
      <trkpt lat="44.41262" lon="5.55588">
        <ele>835.3</ele>
        <time>2021-09-07T14:01:23Z</time>
      </trkpt>
      <trkpt lat="44.41262" lon="5.55587">
        <ele>835.1</ele>
        <time>2021-09-07T14:01:24Z</time>
      </trkpt>
      <trkpt lat="44.41262" lon="5.55587">
        <ele>835.1</ele>
        <time>2021-09-07T14:01:25Z</time>
      </trkpt>
      <trkpt lat="44.41262" lon="5.55586">
        <ele>835</ele>
        <time>2021-09-07T14:01:26Z</time>
      </trkpt>
      <trkpt lat="44.41262" lon="5.55586">
        <ele>835</ele>
        <time>2021-09-07T14:01:27Z</time>
      </trkpt>
      <trkpt lat="44.41262" lon="5.55586">
        <ele>835</ele>
        <time>2021-09-07T14:01:28Z</time>
      </trkpt>
      <trkpt lat="44.41263" lon="5.55586">
        <ele>834.7</ele>
        <time>2021-09-07T14:01:29Z</time>
      </trkpt>
      <trkpt lat="44.41263" lon="5.55586">
        <ele>834.7</ele>
        <time>2021-09-07T14:01:30Z</time>
      </trkpt>
      <trkpt lat="44.41263" lon="5.55586">
        <ele>834.7</ele>
        <time>2021-09-07T14:01:31Z</time>
      </trkpt>
      <trkpt lat="44.41263" lon="5.55586">
        <ele>834.7</ele>
        <time>2021-09-07T14:01:32Z</time>
      </trkpt>
      <trkpt lat="44.41263" lon="5.55586">
        <ele>834.7</ele>
        <time>2021-09-07T14:01:33Z</time>
      </trkpt>
      <trkpt lat="44.41263" lon="5.55586">
        <ele>834.6</ele>
        <time>2021-09-07T14:01:34Z</time>
      </trkpt>
      <trkpt lat="44.41262" lon="5.55586">
        <ele>834.5</ele>
        <time>2021-09-07T14:01:35Z</time>
      </trkpt>
      <trkpt lat="44.41262" lon="5.55586">
        <ele>834.5</ele>
        <time>2021-09-07T14:01:36Z</time>
      </trkpt>
      <trkpt lat="44.41262" lon="5.55586">
        <ele>834.5</ele>
        <time>2021-09-07T14:01:37Z</time>
      </trkpt>
      <trkpt lat="44.41262" lon="5.55586">
        <ele>834.5</ele>
        <time>2021-09-07T14:01:38Z</time>
      </trkpt>
      <trkpt lat="44.41262" lon="5.55586">
        <ele>834.5</ele>
        <time>2021-09-07T14:01:39Z</time>
      </trkpt>
      <trkpt lat="44.41262" lon="5.55586">
        <ele>834.5</ele>
        <time>2021-09-07T14:01:40Z</time>
      </trkpt>
      <trkpt lat="44.41262" lon="5.55586">
        <ele>834.5</ele>
        <time>2021-09-07T14:01:41Z</time>
      </trkpt>
      <trkpt lat="44.41262" lon="5.55586">
        <ele>834.5</ele>
        <time>2021-09-07T14:01:42Z</time>
      </trkpt>
      <trkpt lat="44.41262" lon="5.55586">
        <ele>834.5</ele>
        <time>2021-09-07T14:01:43Z</time>
      </trkpt>
      <trkpt lat="44.41262" lon="5.55586">
        <ele>834.5</ele>
        <time>2021-09-07T14:01:44Z</time>
      </trkpt>
      <trkpt lat="44.41262" lon="5.55586">
        <ele>834.5</ele>
        <time>2021-09-07T14:01:45Z</time>
      </trkpt>
      <trkpt lat="44.41262" lon="5.55586">
        <ele>834.5</ele>
        <time>2021-09-07T14:01:46Z</time>
      </trkpt>
      <trkpt lat="44.41262" lon="5.55586">
        <ele>834.5</ele>
        <time>2021-09-07T14:01:47Z</time>
      </trkpt>
      <trkpt lat="44.41262" lon="5.55586">
        <ele>834.5</ele>
        <time>2021-09-07T14:01:48Z</time>
      </trkpt>
      <trkpt lat="44.41262" lon="5.55586">
        <ele>834.5</ele>
        <time>2021-09-07T14:01:49Z</time>
      </trkpt>
      <trkpt lat="44.41262" lon="5.55586">
        <ele>834.5</ele>
        <time>2021-09-07T14:01:50Z</time>
      </trkpt>
      <trkpt lat="44.41262" lon="5.55586">
        <ele>834.5</ele>
        <time>2021-09-07T14:01:51Z</time>
      </trkpt>
      <trkpt lat="44.41262" lon="5.55586">
        <ele>834.5</ele>
        <time>2021-09-07T14:01:52Z</time>
      </trkpt>
      <trkpt lat="44.41262" lon="5.55586">
        <ele>834.5</ele>
        <time>2021-09-07T14:01:53Z</time>
      </trkpt>
      <trkpt lat="44.41263" lon="5.55587">
        <ele>834.2</ele>
        <time>2021-09-07T14:01:54Z</time>
      </trkpt>
      <trkpt lat="44.41264" lon="5.55587">
        <ele>833.9</ele>
        <time>2021-09-07T14:01:55Z</time>
      </trkpt>
      <trkpt lat="44.41265" lon="5.55588">
        <ele>833.6</ele>
        <time>2021-09-07T14:01:56Z</time>
      </trkpt>
      <trkpt lat="44.41266" lon="5.55589">
        <ele>833.3</ele>
        <time>2021-09-07T14:01:57Z</time>
      </trkpt>
      <trkpt lat="44.41267" lon="5.55589">
        <ele>833.1</ele>
        <time>2021-09-07T14:01:58Z</time>
      </trkpt>
      <trkpt lat="44.41268" lon="5.55591">
        <ele>832.6</ele>
        <time>2021-09-07T14:01:59Z</time>
      </trkpt>
      <trkpt lat="44.4127" lon="5.55593">
        <ele>831.9</ele>
        <time>2021-09-07T14:02:00Z</time>
      </trkpt>
      <trkpt lat="44.4127" lon="5.55595">
        <ele>831.5</ele>
        <time>2021-09-07T14:02:01Z</time>
      </trkpt>
      <trkpt lat="44.4127" lon="5.55597">
        <ele>831.1</ele>
        <time>2021-09-07T14:02:02Z</time>
      </trkpt>
      <trkpt lat="44.4127" lon="5.556">
        <ele>830.5</ele>
        <time>2021-09-07T14:02:03Z</time>
      </trkpt>
      <trkpt lat="44.41268" lon="5.55602">
        <ele>829.8</ele>
        <time>2021-09-07T14:02:04Z</time>
      </trkpt>
      <trkpt lat="44.41267" lon="5.55603">
        <ele>829.3</ele>
        <time>2021-09-07T14:02:05Z</time>
      </trkpt>
      <trkpt lat="44.41265" lon="5.55603">
        <ele>828.9</ele>
        <time>2021-09-07T14:02:06Z</time>
      </trkpt>
      <trkpt lat="44.41262" lon="5.55603">
        <ele>828.1</ele>
        <time>2021-09-07T14:02:07Z</time>
      </trkpt>
      <trkpt lat="44.41259" lon="5.55602">
        <ele>827.3</ele>
        <time>2021-09-07T14:02:08Z</time>
      </trkpt>
      <trkpt lat="44.41258" lon="5.55602">
        <ele>827</ele>
        <time>2021-09-07T14:02:09Z</time>
      </trkpt>
      <trkpt lat="44.41257" lon="5.55601">
        <ele>826.8</ele>
        <time>2021-09-07T14:02:10Z</time>
      </trkpt>
      <trkpt lat="44.41255" lon="5.556">
        <ele>826.2</ele>
        <time>2021-09-07T14:02:11Z</time>
      </trkpt>
      <trkpt lat="44.41254" lon="5.556">
        <ele>826</ele>
        <time>2021-09-07T14:02:12Z</time>
      </trkpt>
      <trkpt lat="44.41254" lon="5.556">
        <ele>825.8</ele>
        <time>2021-09-07T14:02:13Z</time>
      </trkpt>
      <trkpt lat="44.41253" lon="5.556">
        <ele>825.7</ele>
        <time>2021-09-07T14:02:14Z</time>
      </trkpt>
      <trkpt lat="44.41253" lon="5.55601">
        <ele>825.6</ele>
        <time>2021-09-07T14:02:15Z</time>
      </trkpt>
      <trkpt lat="44.41253" lon="5.55601">
        <ele>825.5</ele>
        <time>2021-09-07T14:02:16Z</time>
      </trkpt>
      <trkpt lat="44.41253" lon="5.55601">
        <ele>825.5</ele>
        <time>2021-09-07T14:02:17Z</time>
      </trkpt>
      <trkpt lat="44.41253" lon="5.55601">
        <ele>825.4</ele>
        <time>2021-09-07T14:02:18Z</time>
      </trkpt>
      <trkpt lat="44.41252" lon="5.55601">
        <ele>825.3</ele>
        <time>2021-09-07T14:02:19Z</time>
      </trkpt>
      <trkpt lat="44.41252" lon="5.55601">
        <ele>825.3</ele>
        <time>2021-09-07T14:02:20Z</time>
      </trkpt>
      <trkpt lat="44.41252" lon="5.55601">
        <ele>825.3</ele>
        <time>2021-09-07T14:02:21Z</time>
      </trkpt>
      <trkpt lat="44.41252" lon="5.55601">
        <ele>825.3</ele>
        <time>2021-09-07T14:02:22Z</time>
      </trkpt>
      <trkpt lat="44.41252" lon="5.55601">
        <ele>825.3</ele>
        <time>2021-09-07T14:02:23Z</time>
      </trkpt>
      <trkpt lat="44.41252" lon="5.55601">
        <ele>825.3</ele>
        <time>2021-09-07T14:02:24Z</time>
      </trkpt>
      <trkpt lat="44.41252" lon="5.55601">
        <ele>825.3</ele>
        <time>2021-09-07T14:02:25Z</time>
      </trkpt>
      <trkpt lat="44.41252" lon="5.55601">
        <ele>825.3</ele>
        <time>2021-09-07T14:02:26Z</time>
      </trkpt>
      <trkpt lat="44.41252" lon="5.55601">
        <ele>825.3</ele>
        <time>2021-09-07T14:02:27Z</time>
      </trkpt>
      <trkpt lat="44.41252" lon="5.55601">
        <ele>825.3</ele>
        <time>2021-09-07T14:02:28Z</time>
      </trkpt>
      <trkpt lat="44.41252" lon="5.55601">
        <ele>825.3</ele>
        <time>2021-09-07T14:02:29Z</time>
      </trkpt>
      <trkpt lat="44.41252" lon="5.55602">
        <ele>825.2</ele>
        <time>2021-09-07T14:02:30Z</time>
      </trkpt>
      <trkpt lat="44.41252" lon="5.55602">
        <ele>825.1</ele>
        <time>2021-09-07T14:02:31Z</time>
      </trkpt>
      <trkpt lat="44.41252" lon="5.55602">
        <ele>825.1</ele>
        <time>2021-09-07T14:02:32Z</time>
      </trkpt>
      <trkpt lat="44.41252" lon="5.55602">
        <ele>825.1</ele>
        <time>2021-09-07T14:02:33Z</time>
      </trkpt>
      <trkpt lat="44.41252" lon="5.55602">
        <ele>825.1</ele>
        <time>2021-09-07T14:02:34Z</time>
      </trkpt>
      <trkpt lat="44.41252" lon="5.55602">
        <ele>825.1</ele>
        <time>2021-09-07T14:02:35Z</time>
      </trkpt>
      <trkpt lat="44.41252" lon="5.55602">
        <ele>825.1</ele>
        <time>2021-09-07T14:02:36Z</time>
      </trkpt>
      <trkpt lat="44.41252" lon="5.55602">
        <ele>825.1</ele>
        <time>2021-09-07T14:02:37Z</time>
      </trkpt>
      <trkpt lat="44.41252" lon="5.55602">
        <ele>825.1</ele>
        <time>2021-09-07T14:02:38Z</time>
      </trkpt>
      <trkpt lat="44.41252" lon="5.55602">
        <ele>825.1</ele>
        <time>2021-09-07T14:02:39Z</time>
      </trkpt>
      <trkpt lat="44.41252" lon="5.55602">
        <ele>825.1</ele>
        <time>2021-09-07T14:02:40Z</time>
      </trkpt>
      <trkpt lat="44.41252" lon="5.55602">
        <ele>825.1</ele>
        <time>2021-09-07T14:02:41Z</time>
      </trkpt>
      <trkpt lat="44.41252" lon="5.55602">
        <ele>825.1</ele>
        <time>2021-09-07T14:02:42Z</time>
      </trkpt>
      <trkpt lat="44.41252" lon="5.55602">
        <ele>825.1</ele>
        <time>2021-09-07T14:02:43Z</time>
      </trkpt>
      <trkpt lat="44.41252" lon="5.55602">
        <ele>825.1</ele>
        <time>2021-09-07T14:02:44Z</time>
      </trkpt>
      <trkpt lat="44.41252" lon="5.55602">
        <ele>825</ele>
        <time>2021-09-07T14:02:45Z</time>
      </trkpt>
      <trkpt lat="44.41251" lon="5.55602">
        <ele>824.9</ele>
        <time>2021-09-07T14:02:46Z</time>
      </trkpt>
      <trkpt lat="44.4125" lon="5.556">
        <ele>824.4</ele>
        <time>2021-09-07T14:02:47Z</time>
      </trkpt>
      <trkpt lat="44.41249" lon="5.55599">
        <ele>824</ele>
        <time>2021-09-07T14:02:48Z</time>
      </trkpt>
      <trkpt lat="44.41247" lon="5.55598">
        <ele>823.6</ele>
        <time>2021-09-07T14:02:49Z</time>
      </trkpt>
      <trkpt lat="44.41246" lon="5.55597">
        <ele>823.3</ele>
        <time>2021-09-07T14:02:50Z</time>
      </trkpt>
      <trkpt lat="44.41244" lon="5.55594">
        <ele>822.5</ele>
        <time>2021-09-07T14:02:51Z</time>
      </trkpt>
      <trkpt lat="44.41242" lon="5.5559">
        <ele>821.6</ele>
        <time>2021-09-07T14:02:52Z</time>
      </trkpt>
      <trkpt lat="44.41237" lon="5.55586">
        <ele>820.2</ele>
        <time>2021-09-07T14:02:53Z</time>
      </trkpt>
      <trkpt lat="44.41234" lon="5.55584">
        <ele>819.5</ele>
        <time>2021-09-07T14:02:54Z</time>
      </trkpt>
      <trkpt lat="44.41233" lon="5.55584">
        <ele>819.3</ele>
        <time>2021-09-07T14:02:55Z</time>
      </trkpt>
      <trkpt lat="44.41232" lon="5.55585">
        <ele>819</ele>
        <time>2021-09-07T14:02:56Z</time>
      </trkpt>
      <trkpt lat="44.41232" lon="5.55586">
        <ele>818.8</ele>
        <time>2021-09-07T14:02:57Z</time>
      </trkpt>
      <trkpt lat="44.41231" lon="5.55587">
        <ele>818.6</ele>
        <time>2021-09-07T14:02:58Z</time>
      </trkpt>
      <trkpt lat="44.41231" lon="5.55587">
        <ele>818.6</ele>
        <time>2021-09-07T14:02:59Z</time>
      </trkpt>
      <trkpt lat="44.4123" lon="5.55587">
        <ele>818.3</ele>
        <time>2021-09-07T14:03:00Z</time>
      </trkpt>
      <trkpt lat="44.41228" lon="5.55586">
        <ele>813.5</ele>
        <time>2021-09-07T14:03:01Z</time>
      </trkpt>
      <trkpt lat="44.41227" lon="5.55586">
        <ele>813.5</ele>
        <time>2021-09-07T14:03:02Z</time>
      </trkpt>
      <trkpt lat="44.41227" lon="5.55586">
        <ele>813.5</ele>
        <time>2021-09-07T14:03:03Z</time>
      </trkpt>
      <trkpt lat="44.41227" lon="5.55586">
        <ele>813.5</ele>
        <time>2021-09-07T14:03:04Z</time>
      </trkpt>
      <trkpt lat="44.41227" lon="5.55586">
        <ele>813.5</ele>
        <time>2021-09-07T14:03:05Z</time>
      </trkpt>
      <trkpt lat="44.41227" lon="5.55586">
        <ele>813.5</ele>
        <time>2021-09-07T14:03:06Z</time>
      </trkpt>
      <trkpt lat="44.41227" lon="5.55586">
        <ele>813.5</ele>
        <time>2021-09-07T14:03:07Z</time>
      </trkpt>
      <trkpt lat="44.41227" lon="5.55585">
        <ele>813.5</ele>
        <time>2021-09-07T14:03:08Z</time>
      </trkpt>
      <trkpt lat="44.41228" lon="5.55585">
        <ele>813.5</ele>
        <time>2021-09-07T14:03:09Z</time>
      </trkpt>
      <trkpt lat="44.41228" lon="5.55585">
        <ele>813.5</ele>
        <time>2021-09-07T14:03:10Z</time>
      </trkpt>
      <trkpt lat="44.41227" lon="5.55586">
        <ele>813.5</ele>
        <time>2021-09-07T14:03:11Z</time>
      </trkpt>
      <trkpt lat="44.41227" lon="5.55586">
        <ele>813.5</ele>
        <time>2021-09-07T14:03:12Z</time>
      </trkpt>
      <trkpt lat="44.41227" lon="5.55586">
        <ele>813.5</ele>
        <time>2021-09-07T14:03:13Z</time>
      </trkpt>
      <trkpt lat="44.41227" lon="5.55586">
        <ele>813.5</ele>
        <time>2021-09-07T14:03:14Z</time>
      </trkpt>
      <trkpt lat="44.41227" lon="5.55586">
        <ele>813.5</ele>
        <time>2021-09-07T14:03:15Z</time>
      </trkpt>
      <trkpt lat="44.41227" lon="5.55586">
        <ele>813.5</ele>
        <time>2021-09-07T14:03:16Z</time>
      </trkpt>
      <trkpt lat="44.41227" lon="5.55586">
        <ele>813.5</ele>
        <time>2021-09-07T14:03:17Z</time>
      </trkpt>
      <trkpt lat="44.41227" lon="5.55586">
        <ele>813.5</ele>
        <time>2021-09-07T14:03:18Z</time>
      </trkpt>
      <trkpt lat="44.41227" lon="5.55586">
        <ele>813.5</ele>
        <time>2021-09-07T14:03:19Z</time>
      </trkpt>
      <trkpt lat="44.41227" lon="5.55586">
        <ele>813.5</ele>
        <time>2021-09-07T14:03:20Z</time>
      </trkpt>
      <trkpt lat="44.41227" lon="5.55586">
        <ele>813.5</ele>
        <time>2021-09-07T14:03:21Z</time>
      </trkpt>
      <trkpt lat="44.41227" lon="5.55586">
        <ele>813.5</ele>
        <time>2021-09-07T14:03:22Z</time>
      </trkpt>
      <trkpt lat="44.41227" lon="5.55586">
        <ele>813.5</ele>
        <time>2021-09-07T14:03:23Z</time>
      </trkpt>
      <trkpt lat="44.41227" lon="5.55586">
        <ele>813.5</ele>
        <time>2021-09-07T14:03:24Z</time>
      </trkpt>
      <trkpt lat="44.41227" lon="5.55586">
        <ele>813.5</ele>
        <time>2021-09-07T14:03:25Z</time>
      </trkpt>
      <trkpt lat="44.41228" lon="5.55586">
        <ele>813.5</ele>
        <time>2021-09-07T14:03:26Z</time>
      </trkpt>
      <trkpt lat="44.41229" lon="5.55585">
        <ele>813.5</ele>
        <time>2021-09-07T14:03:27Z</time>
      </trkpt>
      <trkpt lat="44.4123" lon="5.55585">
        <ele>813.5</ele>
        <time>2021-09-07T14:03:28Z</time>
      </trkpt>
      <trkpt lat="44.4123" lon="5.55585">
        <ele>813.5</ele>
        <time>2021-09-07T14:03:29Z</time>
      </trkpt>
      <trkpt lat="44.41231" lon="5.55585">
        <ele>813.5</ele>
        <time>2021-09-07T14:03:30Z</time>
      </trkpt>
      <trkpt lat="44.41232" lon="5.55586">
        <ele>813.5</ele>
        <time>2021-09-07T14:03:31Z</time>
      </trkpt>
      <trkpt lat="44.41234" lon="5.55587">
        <ele>813.5</ele>
        <time>2021-09-07T14:03:32Z</time>
      </trkpt>
      <trkpt lat="44.41236" lon="5.55589">
        <ele>813.5</ele>
        <time>2021-09-07T14:03:33Z</time>
      </trkpt>
      <trkpt lat="44.41237" lon="5.55591">
        <ele>813.5</ele>
        <time>2021-09-07T14:03:34Z</time>
      </trkpt>
      <trkpt lat="44.41237" lon="5.55592">
        <ele>813.5</ele>
        <time>2021-09-07T14:03:35Z</time>
      </trkpt>
      <trkpt lat="44.41237" lon="5.55592">
        <ele>813.5</ele>
        <time>2021-09-07T14:03:36Z</time>
      </trkpt>
      <trkpt lat="44.41237" lon="5.55592">
        <ele>813.5</ele>
        <time>2021-09-07T14:03:37Z</time>
      </trkpt>
      <trkpt lat="44.41237" lon="5.55592">
        <ele>813.5</ele>
        <time>2021-09-07T14:03:38Z</time>
      </trkpt>
      <trkpt lat="44.41237" lon="5.55592">
        <ele>813.5</ele>
        <time>2021-09-07T14:03:39Z</time>
      </trkpt>
      <trkpt lat="44.41237" lon="5.55592">
        <ele>813.5</ele>
        <time>2021-09-07T14:03:40Z</time>
      </trkpt>
      <trkpt lat="44.41237" lon="5.55592">
        <ele>813.5</ele>
        <time>2021-09-07T14:03:41Z</time>
      </trkpt>
      <trkpt lat="44.41237" lon="5.55591">
        <ele>813.5</ele>
        <time>2021-09-07T14:03:42Z</time>
      </trkpt>
      <trkpt lat="44.41236" lon="5.5559">
        <ele>813.5</ele>
        <time>2021-09-07T14:03:43Z</time>
      </trkpt>
      <trkpt lat="44.41236" lon="5.55589">
        <ele>813.5</ele>
        <time>2021-09-07T14:03:44Z</time>
      </trkpt>
      <trkpt lat="44.41236" lon="5.55588">
        <ele>813.5</ele>
        <time>2021-09-07T14:03:45Z</time>
      </trkpt>
      <trkpt lat="44.41235" lon="5.55587">
        <ele>813.5</ele>
        <time>2021-09-07T14:03:46Z</time>
      </trkpt>
      <trkpt lat="44.41234" lon="5.55584">
        <ele>813.5</ele>
        <time>2021-09-07T14:03:47Z</time>
      </trkpt>
      <trkpt lat="44.41233" lon="5.5558">
        <ele>813.5</ele>
        <time>2021-09-07T14:03:48Z</time>
      </trkpt>
      <trkpt lat="44.41231" lon="5.55578">
        <ele>813.5</ele>
        <time>2021-09-07T14:03:49Z</time>
      </trkpt>
      <trkpt lat="44.41231" lon="5.55577">
        <ele>813.7</ele>
        <time>2021-09-07T14:03:50Z</time>
      </trkpt>
      <trkpt lat="44.4123" lon="5.55576">
        <ele>813.7</ele>
        <time>2021-09-07T14:03:51Z</time>
      </trkpt>
      <trkpt lat="44.4123" lon="5.55575">
        <ele>813.7</ele>
        <time>2021-09-07T14:03:52Z</time>
      </trkpt>
      <trkpt lat="44.4123" lon="5.55575">
        <ele>813.7</ele>
        <time>2021-09-07T14:03:53Z</time>
      </trkpt>
      <trkpt lat="44.4123" lon="5.55575">
        <ele>813.7</ele>
        <time>2021-09-07T14:03:54Z</time>
      </trkpt>
      <trkpt lat="44.4123" lon="5.55575">
        <ele>813.7</ele>
        <time>2021-09-07T14:03:55Z</time>
      </trkpt>
      <trkpt lat="44.4123" lon="5.55574">
        <ele>813.7</ele>
        <time>2021-09-07T14:03:56Z</time>
      </trkpt>
      <trkpt lat="44.4123" lon="5.55574">
        <ele>813.7</ele>
        <time>2021-09-07T14:03:57Z</time>
      </trkpt>
      <trkpt lat="44.4123" lon="5.55574">
        <ele>813.7</ele>
        <time>2021-09-07T14:03:58Z</time>
      </trkpt>
      <trkpt lat="44.4123" lon="5.55573">
        <ele>813.7</ele>
        <time>2021-09-07T14:03:59Z</time>
      </trkpt>
      <trkpt lat="44.4123" lon="5.55573">
        <ele>813.7</ele>
        <time>2021-09-07T14:04:00Z</time>
      </trkpt>
      <trkpt lat="44.4123" lon="5.55573">
        <ele>813.7</ele>
        <time>2021-09-07T14:04:01Z</time>
      </trkpt>
      <trkpt lat="44.41229" lon="5.55573">
        <ele>813.7</ele>
        <time>2021-09-07T14:04:02Z</time>
      </trkpt>
      <trkpt lat="44.41229" lon="5.55573">
        <ele>813.7</ele>
        <time>2021-09-07T14:04:03Z</time>
      </trkpt>
      <trkpt lat="44.41229" lon="5.55573">
        <ele>813.7</ele>
        <time>2021-09-07T14:04:04Z</time>
      </trkpt>
      <trkpt lat="44.41229" lon="5.55573">
        <ele>813.7</ele>
        <time>2021-09-07T14:04:05Z</time>
      </trkpt>
      <trkpt lat="44.41229" lon="5.55573">
        <ele>813.7</ele>
        <time>2021-09-07T14:04:06Z</time>
      </trkpt>
      <trkpt lat="44.41229" lon="5.55573">
        <ele>813.7</ele>
        <time>2021-09-07T14:04:07Z</time>
      </trkpt>
      <trkpt lat="44.41229" lon="5.55573">
        <ele>813.7</ele>
        <time>2021-09-07T14:04:08Z</time>
      </trkpt>
      <trkpt lat="44.41229" lon="5.55573">
        <ele>813.7</ele>
        <time>2021-09-07T14:04:09Z</time>
      </trkpt>
      <trkpt lat="44.41229" lon="5.55573">
        <ele>813.7</ele>
        <time>2021-09-07T14:04:10Z</time>
      </trkpt>
      <trkpt lat="44.41229" lon="5.55572">
        <ele>813.7</ele>
        <time>2021-09-07T14:04:11Z</time>
      </trkpt>
      <trkpt lat="44.41229" lon="5.55572">
        <ele>813.7</ele>
        <time>2021-09-07T14:04:12Z</time>
      </trkpt>
      <trkpt lat="44.41229" lon="5.55572">
        <ele>813.7</ele>
        <time>2021-09-07T14:04:13Z</time>
      </trkpt>
      <trkpt lat="44.41229" lon="5.55572">
        <ele>813.7</ele>
        <time>2021-09-07T14:04:14Z</time>
      </trkpt>
      <trkpt lat="44.41229" lon="5.55572">
        <ele>813.7</ele>
        <time>2021-09-07T14:04:15Z</time>
      </trkpt>
      <trkpt lat="44.41229" lon="5.55572">
        <ele>813.7</ele>
        <time>2021-09-07T14:04:16Z</time>
      </trkpt>
      <trkpt lat="44.41229" lon="5.55572">
        <ele>813.7</ele>
        <time>2021-09-07T14:04:17Z</time>
      </trkpt>
      <trkpt lat="44.41229" lon="5.55572">
        <ele>813.7</ele>
        <time>2021-09-07T14:04:18Z</time>
      </trkpt>
      <trkpt lat="44.41229" lon="5.55573">
        <ele>813.7</ele>
        <time>2021-09-07T14:04:19Z</time>
      </trkpt>
      <trkpt lat="44.41229" lon="5.55573">
        <ele>813.7</ele>
        <time>2021-09-07T14:04:20Z</time>
      </trkpt>
      <trkpt lat="44.41228" lon="5.55573">
        <ele>813.7</ele>
        <time>2021-09-07T14:04:21Z</time>
      </trkpt>
      <trkpt lat="44.41228" lon="5.55573">
        <ele>813.7</ele>
        <time>2021-09-07T14:04:22Z</time>
      </trkpt>
      <trkpt lat="44.41228" lon="5.55574">
        <ele>813.7</ele>
        <time>2021-09-07T14:04:23Z</time>
      </trkpt>
      <trkpt lat="44.41228" lon="5.55574">
        <ele>813.7</ele>
        <time>2021-09-07T14:04:24Z</time>
      </trkpt>
      <trkpt lat="44.41228" lon="5.55575">
        <ele>813.7</ele>
        <time>2021-09-07T14:04:25Z</time>
      </trkpt>
      <trkpt lat="44.41229" lon="5.55578">
        <ele>813.7</ele>
        <time>2021-09-07T14:04:26Z</time>
      </trkpt>
      <trkpt lat="44.41229" lon="5.55579">
        <ele>813.7</ele>
        <time>2021-09-07T14:04:27Z</time>
      </trkpt>
      <trkpt lat="44.41229" lon="5.5558">
        <ele>813.7</ele>
        <time>2021-09-07T14:04:28Z</time>
      </trkpt>
      <trkpt lat="44.41229" lon="5.55583">
        <ele>813.7</ele>
        <time>2021-09-07T14:04:29Z</time>
      </trkpt>
      <trkpt lat="44.4123" lon="5.55587">
        <ele>813.7</ele>
        <time>2021-09-07T14:04:30Z</time>
      </trkpt>
      <trkpt lat="44.41232" lon="5.55593">
        <ele>813.7</ele>
        <time>2021-09-07T14:04:31Z</time>
      </trkpt>
      <trkpt lat="44.41233" lon="5.55599">
        <ele>813.7</ele>
        <time>2021-09-07T14:04:32Z</time>
      </trkpt>
      <trkpt lat="44.41235" lon="5.55607">
        <ele>813.6</ele>
        <time>2021-09-07T14:04:33Z</time>
      </trkpt>
      <trkpt lat="44.41236" lon="5.55614">
        <ele>813.6</ele>
        <time>2021-09-07T14:04:34Z</time>
      </trkpt>
      <trkpt lat="44.4124" lon="5.55622">
        <ele>813.6</ele>
        <time>2021-09-07T14:04:35Z</time>
      </trkpt>
      <trkpt lat="44.41243" lon="5.55629">
        <ele>813.5</ele>
        <time>2021-09-07T14:04:36Z</time>
      </trkpt>
      <trkpt lat="44.41245" lon="5.55638">
        <ele>813.5</ele>
        <time>2021-09-07T14:04:37Z</time>
      </trkpt>
      <trkpt lat="44.41247" lon="5.55646">
        <ele>813.5</ele>
        <time>2021-09-07T14:04:38Z</time>
      </trkpt>
      <trkpt lat="44.41249" lon="5.55653">
        <ele>813.5</ele>
        <time>2021-09-07T14:04:39Z</time>
      </trkpt>
      <trkpt lat="44.41252" lon="5.5566">
        <ele>813.5</ele>
        <time>2021-09-07T14:04:40Z</time>
      </trkpt>
      <trkpt lat="44.41254" lon="5.55667">
        <ele>813.6</ele>
        <time>2021-09-07T14:04:41Z</time>
      </trkpt>
      <trkpt lat="44.41256" lon="5.55675">
        <ele>813.7</ele>
        <time>2021-09-07T14:04:42Z</time>
      </trkpt>
      <trkpt lat="44.41258" lon="5.55683">
        <ele>813.8</ele>
        <time>2021-09-07T14:04:43Z</time>
      </trkpt>
      <trkpt lat="44.41259" lon="5.5569">
        <ele>813.9</ele>
        <time>2021-09-07T14:04:44Z</time>
      </trkpt>
      <trkpt lat="44.4126" lon="5.55697">
        <ele>814.1</ele>
        <time>2021-09-07T14:04:45Z</time>
      </trkpt>
      <trkpt lat="44.41261" lon="5.55704">
        <ele>814.2</ele>
        <time>2021-09-07T14:04:46Z</time>
      </trkpt>
      <trkpt lat="44.41262" lon="5.5571">
        <ele>814.4</ele>
        <time>2021-09-07T14:04:47Z</time>
      </trkpt>
      <trkpt lat="44.41262" lon="5.55716">
        <ele>814.6</ele>
        <time>2021-09-07T14:04:48Z</time>
      </trkpt>
      <trkpt lat="44.41263" lon="5.55723">
        <ele>814.8</ele>
        <time>2021-09-07T14:04:49Z</time>
      </trkpt>
      <trkpt lat="44.41264" lon="5.55726">
        <ele>814.9</ele>
        <time>2021-09-07T14:04:50Z</time>
      </trkpt>
      <trkpt lat="44.41264" lon="5.55729">
        <ele>815</ele>
        <time>2021-09-07T14:04:51Z</time>
      </trkpt>
      <trkpt lat="44.41264" lon="5.55734">
        <ele>815.3</ele>
        <time>2021-09-07T14:04:52Z</time>
      </trkpt>
      <trkpt lat="44.41264" lon="5.55739">
        <ele>815.6</ele>
        <time>2021-09-07T14:04:53Z</time>
      </trkpt>
      <trkpt lat="44.41262" lon="5.55742">
        <ele>815.6</ele>
        <time>2021-09-07T14:04:54Z</time>
      </trkpt>
      <trkpt lat="44.41259" lon="5.55744">
        <ele>815.6</ele>
        <time>2021-09-07T14:04:55Z</time>
      </trkpt>
      <trkpt lat="44.41253" lon="5.55745">
        <ele>815.7</ele>
        <time>2021-09-07T14:04:56Z</time>
      </trkpt>
      <trkpt lat="44.4125" lon="5.55743">
        <ele>815.7</ele>
        <time>2021-09-07T14:04:57Z</time>
      </trkpt>
      <trkpt lat="44.41248" lon="5.55741">
        <ele>815.8</ele>
        <time>2021-09-07T14:04:58Z</time>
      </trkpt>
      <trkpt lat="44.41246" lon="5.55739">
        <ele>815.8</ele>
        <time>2021-09-07T14:04:59Z</time>
      </trkpt>
      <trkpt lat="44.41245" lon="5.55734">
        <ele>815.7</ele>
        <time>2021-09-07T14:05:00Z</time>
      </trkpt>
      <trkpt lat="44.41246" lon="5.55727">
        <ele>815.3</ele>
        <time>2021-09-07T14:05:01Z</time>
      </trkpt>
      <trkpt lat="44.41247" lon="5.5572">
        <ele>814.9</ele>
        <time>2021-09-07T14:05:02Z</time>
      </trkpt>
      <trkpt lat="44.41247" lon="5.55712">
        <ele>814.4</ele>
        <time>2021-09-07T14:05:03Z</time>
      </trkpt>
      <trkpt lat="44.41247" lon="5.55703">
        <ele>813.8</ele>
        <time>2021-09-07T14:05:04Z</time>
      </trkpt>
      <trkpt lat="44.41246" lon="5.55697">
        <ele>813.3</ele>
        <time>2021-09-07T14:05:05Z</time>
      </trkpt>
      <trkpt lat="44.41244" lon="5.55692">
        <ele>812.9</ele>
        <time>2021-09-07T14:05:06Z</time>
      </trkpt>
      <trkpt lat="44.41242" lon="5.55688">
        <ele>812.5</ele>
        <time>2021-09-07T14:05:07Z</time>
      </trkpt>
      <trkpt lat="44.41239" lon="5.55683">
        <ele>812</ele>
        <time>2021-09-07T14:05:08Z</time>
      </trkpt>
      <trkpt lat="44.41231" lon="5.55684">
        <ele>811.1</ele>
        <time>2021-09-07T14:05:09Z</time>
      </trkpt>
      <trkpt lat="44.41223" lon="5.55684">
        <ele>810.2</ele>
        <time>2021-09-07T14:05:10Z</time>
      </trkpt>
      <trkpt lat="44.41215" lon="5.55687">
        <ele>809.2</ele>
        <time>2021-09-07T14:05:11Z</time>
      </trkpt>
      <trkpt lat="44.41207" lon="5.55691">
        <ele>808.4</ele>
        <time>2021-09-07T14:05:12Z</time>
      </trkpt>
      <trkpt lat="44.41199" lon="5.55696">
        <ele>807.7</ele>
        <time>2021-09-07T14:05:13Z</time>
      </trkpt>
      <trkpt lat="44.4119" lon="5.557">
        <ele>807</ele>
        <time>2021-09-07T14:05:14Z</time>
      </trkpt>
      <trkpt lat="44.41182" lon="5.55705">
        <ele>806.4</ele>
        <time>2021-09-07T14:05:15Z</time>
      </trkpt>
      <trkpt lat="44.41174" lon="5.5571">
        <ele>805.8</ele>
        <time>2021-09-07T14:05:16Z</time>
      </trkpt>
      <trkpt lat="44.41165" lon="5.55714">
        <ele>805.1</ele>
        <time>2021-09-07T14:05:17Z</time>
      </trkpt>
      <trkpt lat="44.41157" lon="5.5572">
        <ele>804.4</ele>
        <time>2021-09-07T14:05:18Z</time>
      </trkpt>
      <trkpt lat="44.4115" lon="5.55726">
        <ele>803.8</ele>
        <time>2021-09-07T14:05:19Z</time>
      </trkpt>
      <trkpt lat="44.41142" lon="5.55732">
        <ele>803.2</ele>
        <time>2021-09-07T14:05:20Z</time>
      </trkpt>
      <trkpt lat="44.41135" lon="5.5574">
        <ele>802.5</ele>
        <time>2021-09-07T14:05:21Z</time>
      </trkpt>
      <trkpt lat="44.41128" lon="5.55748">
        <ele>801.7</ele>
        <time>2021-09-07T14:05:22Z</time>
      </trkpt>
      <trkpt lat="44.41123" lon="5.55758">
        <ele>801</ele>
        <time>2021-09-07T14:05:23Z</time>
      </trkpt>
      <trkpt lat="44.41117" lon="5.55767">
        <ele>800.3</ele>
        <time>2021-09-07T14:05:24Z</time>
      </trkpt>
      <trkpt lat="44.41113" lon="5.55778">
        <ele>799.7</ele>
        <time>2021-09-07T14:05:25Z</time>
      </trkpt>
      <trkpt lat="44.41109" lon="5.55788">
        <ele>799</ele>
        <time>2021-09-07T14:05:26Z</time>
      </trkpt>
      <trkpt lat="44.41107" lon="5.558">
        <ele>798.4</ele>
        <time>2021-09-07T14:05:27Z</time>
      </trkpt>
      <trkpt lat="44.41104" lon="5.55811">
        <ele>797.8</ele>
        <time>2021-09-07T14:05:28Z</time>
      </trkpt>
      <trkpt lat="44.41101" lon="5.55822">
        <ele>797.2</ele>
        <time>2021-09-07T14:05:29Z</time>
      </trkpt>
      <trkpt lat="44.41099" lon="5.55833">
        <ele>796.7</ele>
        <time>2021-09-07T14:05:30Z</time>
      </trkpt>
      <trkpt lat="44.41096" lon="5.55844">
        <ele>796.3</ele>
        <time>2021-09-07T14:05:31Z</time>
      </trkpt>
      <trkpt lat="44.41092" lon="5.55853">
        <ele>796.1</ele>
        <time>2021-09-07T14:05:32Z</time>
      </trkpt>
      <trkpt lat="44.41087" lon="5.5586">
        <ele>796</ele>
        <time>2021-09-07T14:05:33Z</time>
      </trkpt>
      <trkpt lat="44.41082" lon="5.55866">
        <ele>795.9</ele>
        <time>2021-09-07T14:05:34Z</time>
      </trkpt>
      <trkpt lat="44.41076" lon="5.5587">
        <ele>795.8</ele>
        <time>2021-09-07T14:05:35Z</time>
      </trkpt>
      <trkpt lat="44.4107" lon="5.55872">
        <ele>795.8</ele>
        <time>2021-09-07T14:05:36Z</time>
      </trkpt>
      <trkpt lat="44.41065" lon="5.55874">
        <ele>795.8</ele>
        <time>2021-09-07T14:05:37Z</time>
      </trkpt>
      <trkpt lat="44.41059" lon="5.55875">
        <ele>795.9</ele>
        <time>2021-09-07T14:05:38Z</time>
      </trkpt>
      <trkpt lat="44.41054" lon="5.55876">
        <ele>796.1</ele>
        <time>2021-09-07T14:05:39Z</time>
      </trkpt>
      <trkpt lat="44.4105" lon="5.55876">
        <ele>796.3</ele>
        <time>2021-09-07T14:05:40Z</time>
      </trkpt>
      <trkpt lat="44.41045" lon="5.55875">
        <ele>796.6</ele>
        <time>2021-09-07T14:05:41Z</time>
      </trkpt>
      <trkpt lat="44.41043" lon="5.55874">
        <ele>796.7</ele>
        <time>2021-09-07T14:05:42Z</time>
      </trkpt>
      <trkpt lat="44.4104" lon="5.55872">
        <ele>796.9</ele>
        <time>2021-09-07T14:05:43Z</time>
      </trkpt>
      <trkpt lat="44.41038" lon="5.5587">
        <ele>797.1</ele>
        <time>2021-09-07T14:05:44Z</time>
      </trkpt>
      <trkpt lat="44.41036" lon="5.55867">
        <ele>797.2</ele>
        <time>2021-09-07T14:05:45Z</time>
      </trkpt>
      <trkpt lat="44.41035" lon="5.55865">
        <ele>797.4</ele>
        <time>2021-09-07T14:05:46Z</time>
      </trkpt>
      <trkpt lat="44.41033" lon="5.55862">
        <ele>797.6</ele>
        <time>2021-09-07T14:05:47Z</time>
      </trkpt>
      <trkpt lat="44.41033" lon="5.5586">
        <ele>797.7</ele>
        <time>2021-09-07T14:05:48Z</time>
      </trkpt>
      <trkpt lat="44.41033" lon="5.55858">
        <ele>797.8</ele>
        <time>2021-09-07T14:05:49Z</time>
      </trkpt>
      <trkpt lat="44.41032" lon="5.55856">
        <ele>797.9</ele>
        <time>2021-09-07T14:05:50Z</time>
      </trkpt>
      <trkpt lat="44.41031" lon="5.55855">
        <ele>798</ele>
        <time>2021-09-07T14:05:51Z</time>
      </trkpt>
      <trkpt lat="44.4103" lon="5.55854">
        <ele>798.1</ele>
        <time>2021-09-07T14:05:52Z</time>
      </trkpt>
      <trkpt lat="44.41029" lon="5.55852">
        <ele>798.3</ele>
        <time>2021-09-07T14:05:53Z</time>
      </trkpt>
      <trkpt lat="44.41027" lon="5.5585">
        <ele>798.5</ele>
        <time>2021-09-07T14:05:54Z</time>
      </trkpt>
      <trkpt lat="44.41027" lon="5.55849">
        <ele>798.5</ele>
        <time>2021-09-07T14:05:55Z</time>
      </trkpt>
      <trkpt lat="44.41026" lon="5.55848">
        <ele>798.6</ele>
        <time>2021-09-07T14:05:56Z</time>
      </trkpt>
      <trkpt lat="44.41024" lon="5.55846">
        <ele>798.8</ele>
        <time>2021-09-07T14:05:57Z</time>
      </trkpt>
      <trkpt lat="44.41023" lon="5.55843">
        <ele>799</ele>
        <time>2021-09-07T14:05:58Z</time>
      </trkpt>
      <trkpt lat="44.41022" lon="5.55842">
        <ele>799.1</ele>
        <time>2021-09-07T14:05:59Z</time>
      </trkpt>
      <trkpt lat="44.41021" lon="5.5584">
        <ele>799.2</ele>
        <time>2021-09-07T14:06:00Z</time>
      </trkpt>
      <trkpt lat="44.41019" lon="5.55839">
        <ele>799.4</ele>
        <time>2021-09-07T14:06:01Z</time>
      </trkpt>
      <trkpt lat="44.41018" lon="5.55837">
        <ele>799.5</ele>
        <time>2021-09-07T14:06:02Z</time>
      </trkpt>
      <trkpt lat="44.41017" lon="5.55837">
        <ele>799.6</ele>
        <time>2021-09-07T14:06:03Z</time>
      </trkpt>
      <trkpt lat="44.41016" lon="5.55836">
        <ele>799.7</ele>
        <time>2021-09-07T14:06:04Z</time>
      </trkpt>
      <trkpt lat="44.41015" lon="5.55835">
        <ele>799.8</ele>
        <time>2021-09-07T14:06:05Z</time>
      </trkpt>
      <trkpt lat="44.41014" lon="5.55833">
        <ele>800</ele>
        <time>2021-09-07T14:06:06Z</time>
      </trkpt>
      <trkpt lat="44.41013" lon="5.55832">
        <ele>800.1</ele>
        <time>2021-09-07T14:06:07Z</time>
      </trkpt>
      <trkpt lat="44.41012" lon="5.55829">
        <ele>800.3</ele>
        <time>2021-09-07T14:06:08Z</time>
      </trkpt>
      <trkpt lat="44.41012" lon="5.55828">
        <ele>800.4</ele>
        <time>2021-09-07T14:06:09Z</time>
      </trkpt>
      <trkpt lat="44.41011" lon="5.55826">
        <ele>800.5</ele>
        <time>2021-09-07T14:06:10Z</time>
      </trkpt>
      <trkpt lat="44.41009" lon="5.55824">
        <ele>800.7</ele>
        <time>2021-09-07T14:06:11Z</time>
      </trkpt>
      <trkpt lat="44.41008" lon="5.55822">
        <ele>800.8</ele>
        <time>2021-09-07T14:06:12Z</time>
      </trkpt>
      <trkpt lat="44.41008" lon="5.55821">
        <ele>800.9</ele>
        <time>2021-09-07T14:06:13Z</time>
      </trkpt>
      <trkpt lat="44.41007" lon="5.55819">
        <ele>801</ele>
        <time>2021-09-07T14:06:14Z</time>
      </trkpt>
      <trkpt lat="44.41006" lon="5.55817">
        <ele>801.2</ele>
        <time>2021-09-07T14:06:15Z</time>
      </trkpt>
      <trkpt lat="44.41004" lon="5.55814">
        <ele>801.4</ele>
        <time>2021-09-07T14:06:16Z</time>
      </trkpt>
      <trkpt lat="44.41004" lon="5.55813">
        <ele>801.5</ele>
        <time>2021-09-07T14:06:17Z</time>
      </trkpt>
      <trkpt lat="44.41003" lon="5.55812">
        <ele>801.5</ele>
        <time>2021-09-07T14:06:18Z</time>
      </trkpt>
      <trkpt lat="44.41003" lon="5.55811">
        <ele>801.6</ele>
        <time>2021-09-07T14:06:19Z</time>
      </trkpt>
      <trkpt lat="44.41002" lon="5.5581">
        <ele>801.7</ele>
        <time>2021-09-07T14:06:20Z</time>
      </trkpt>
      <trkpt lat="44.41002" lon="5.5581">
        <ele>801.7</ele>
        <time>2021-09-07T14:06:21Z</time>
      </trkpt>
      <trkpt lat="44.41002" lon="5.55809">
        <ele>801.7</ele>
        <time>2021-09-07T14:06:22Z</time>
      </trkpt>
      <trkpt lat="44.41001" lon="5.55808">
        <ele>801.8</ele>
        <time>2021-09-07T14:06:23Z</time>
      </trkpt>
      <trkpt lat="44.40999" lon="5.55806">
        <ele>802</ele>
        <time>2021-09-07T14:06:24Z</time>
      </trkpt>
      <trkpt lat="44.40998" lon="5.55804">
        <ele>802.2</ele>
        <time>2021-09-07T14:06:25Z</time>
      </trkpt>
      <trkpt lat="44.40997" lon="5.55804">
        <ele>802.3</ele>
        <time>2021-09-07T14:06:26Z</time>
      </trkpt>
      <trkpt lat="44.40996" lon="5.55803">
        <ele>802.3</ele>
        <time>2021-09-07T14:06:27Z</time>
      </trkpt>
      <trkpt lat="44.40995" lon="5.55804">
        <ele>802.4</ele>
        <time>2021-09-07T14:06:28Z</time>
      </trkpt>
      <trkpt lat="44.40994" lon="5.55804">
        <ele>802.5</ele>
        <time>2021-09-07T14:06:29Z</time>
      </trkpt>
      <trkpt lat="44.40993" lon="5.55803">
        <ele>802.6</ele>
        <time>2021-09-07T14:06:30Z</time>
      </trkpt>
      <trkpt lat="44.40991" lon="5.55802">
        <ele>802.8</ele>
        <time>2021-09-07T14:06:31Z</time>
      </trkpt>
      <trkpt lat="44.4099" lon="5.55802">
        <ele>802.9</ele>
        <time>2021-09-07T14:06:32Z</time>
      </trkpt>
      <trkpt lat="44.40989" lon="5.558">
        <ele>803</ele>
        <time>2021-09-07T14:06:33Z</time>
      </trkpt>
      <trkpt lat="44.40989" lon="5.558">
        <ele>803.1</ele>
        <time>2021-09-07T14:06:34Z</time>
      </trkpt>
      <trkpt lat="44.40989" lon="5.55799">
        <ele>803.1</ele>
        <time>2021-09-07T14:06:35Z</time>
      </trkpt>
      <trkpt lat="44.40988" lon="5.55799">
        <ele>803.2</ele>
        <time>2021-09-07T14:06:36Z</time>
      </trkpt>
      <trkpt lat="44.40987" lon="5.55797">
        <ele>803.3</ele>
        <time>2021-09-07T14:06:37Z</time>
      </trkpt>
      <trkpt lat="44.40986" lon="5.55795">
        <ele>803.5</ele>
        <time>2021-09-07T14:06:38Z</time>
      </trkpt>
      <trkpt lat="44.40985" lon="5.55793">
        <ele>803.6</ele>
        <time>2021-09-07T14:06:39Z</time>
      </trkpt>
      <trkpt lat="44.40984" lon="5.55791">
        <ele>803.7</ele>
        <time>2021-09-07T14:06:40Z</time>
      </trkpt>
      <trkpt lat="44.40984" lon="5.5579">
        <ele>803.8</ele>
        <time>2021-09-07T14:06:41Z</time>
      </trkpt>
      <trkpt lat="44.40983" lon="5.55788">
        <ele>803.9</ele>
        <time>2021-09-07T14:06:42Z</time>
      </trkpt>
      <trkpt lat="44.40982" lon="5.55786">
        <ele>804.1</ele>
        <time>2021-09-07T14:06:43Z</time>
      </trkpt>
      <trkpt lat="44.40982" lon="5.55783">
        <ele>805.1</ele>
        <time>2021-09-07T14:06:44Z</time>
      </trkpt>
      <trkpt lat="44.40982" lon="5.55781">
        <ele>805.1</ele>
        <time>2021-09-07T14:06:45Z</time>
      </trkpt>
      <trkpt lat="44.40981" lon="5.55779">
        <ele>805.1</ele>
        <time>2021-09-07T14:06:46Z</time>
      </trkpt>
      <trkpt lat="44.40981" lon="5.55777">
        <ele>805.1</ele>
        <time>2021-09-07T14:06:47Z</time>
      </trkpt>
      <trkpt lat="44.40981" lon="5.55776">
        <ele>805.1</ele>
        <time>2021-09-07T14:06:48Z</time>
      </trkpt>
      <trkpt lat="44.40981" lon="5.55775">
        <ele>805.1</ele>
        <time>2021-09-07T14:06:49Z</time>
      </trkpt>
      <trkpt lat="44.40981" lon="5.55774">
        <ele>805.1</ele>
        <time>2021-09-07T14:06:50Z</time>
      </trkpt>
      <trkpt lat="44.4098" lon="5.55775">
        <ele>805.1</ele>
        <time>2021-09-07T14:06:51Z</time>
      </trkpt>
      <trkpt lat="44.40979" lon="5.55775">
        <ele>805.1</ele>
        <time>2021-09-07T14:06:52Z</time>
      </trkpt>
      <trkpt lat="44.40978" lon="5.55775">
        <ele>805.1</ele>
        <time>2021-09-07T14:06:53Z</time>
      </trkpt>
      <trkpt lat="44.40978" lon="5.55775">
        <ele>805.1</ele>
        <time>2021-09-07T14:06:54Z</time>
      </trkpt>
      <trkpt lat="44.40978" lon="5.55775">
        <ele>805.1</ele>
        <time>2021-09-07T14:06:55Z</time>
      </trkpt>
      <trkpt lat="44.40979" lon="5.55774">
        <ele>805.1</ele>
        <time>2021-09-07T14:06:56Z</time>
      </trkpt>
      <trkpt lat="44.40979" lon="5.55774">
        <ele>805.1</ele>
        <time>2021-09-07T14:06:57Z</time>
      </trkpt>
      <trkpt lat="44.40979" lon="5.55774">
        <ele>805.1</ele>
        <time>2021-09-07T14:06:58Z</time>
      </trkpt>
      <trkpt lat="44.4098" lon="5.55775">
        <ele>805.1</ele>
        <time>2021-09-07T14:06:59Z</time>
      </trkpt>
      <trkpt lat="44.40981" lon="5.55777">
        <ele>805.1</ele>
        <time>2021-09-07T14:07:00Z</time>
      </trkpt>
      <trkpt lat="44.40982" lon="5.55779">
        <ele>805.1</ele>
        <time>2021-09-07T14:07:01Z</time>
      </trkpt>
      <trkpt lat="44.40983" lon="5.55781">
        <ele>805.1</ele>
        <time>2021-09-07T14:07:02Z</time>
      </trkpt>
      <trkpt lat="44.40984" lon="5.55782">
        <ele>805.1</ele>
        <time>2021-09-07T14:07:03Z</time>
      </trkpt>
      <trkpt lat="44.40986" lon="5.55784">
        <ele>805.1</ele>
        <time>2021-09-07T14:07:04Z</time>
      </trkpt>
      <trkpt lat="44.40988" lon="5.55786">
        <ele>805.1</ele>
        <time>2021-09-07T14:07:05Z</time>
      </trkpt>
      <trkpt lat="44.40989" lon="5.55787">
        <ele>805.1</ele>
        <time>2021-09-07T14:07:06Z</time>
      </trkpt>
      <trkpt lat="44.4099" lon="5.55788">
        <ele>805.1</ele>
        <time>2021-09-07T14:07:07Z</time>
      </trkpt>
      <trkpt lat="44.40991" lon="5.5579">
        <ele>805.1</ele>
        <time>2021-09-07T14:07:08Z</time>
      </trkpt>
      <trkpt lat="44.40993" lon="5.55791">
        <ele>807.8</ele>
        <time>2021-09-07T14:07:09Z</time>
      </trkpt>
      <trkpt lat="44.40994" lon="5.55793">
        <ele>807.9</ele>
        <time>2021-09-07T14:07:10Z</time>
      </trkpt>
      <trkpt lat="44.40994" lon="5.55794">
        <ele>808</ele>
        <time>2021-09-07T14:07:11Z</time>
      </trkpt>
      <trkpt lat="44.40994" lon="5.55794">
        <ele>808</ele>
        <time>2021-09-07T14:07:12Z</time>
      </trkpt>
      <trkpt lat="44.40994" lon="5.55794">
        <ele>808</ele>
        <time>2021-09-07T14:07:13Z</time>
      </trkpt>
      <trkpt lat="44.40995" lon="5.55794">
        <ele>808.1</ele>
        <time>2021-09-07T14:07:14Z</time>
      </trkpt>
      <trkpt lat="44.40995" lon="5.55794">
        <ele>808.1</ele>
        <time>2021-09-07T14:07:15Z</time>
      </trkpt>
      <trkpt lat="44.40995" lon="5.55794">
        <ele>808.1</ele>
        <time>2021-09-07T14:07:16Z</time>
      </trkpt>
      <trkpt lat="44.40995" lon="5.55795">
        <ele>808.2</ele>
        <time>2021-09-07T14:07:17Z</time>
      </trkpt>
      <trkpt lat="44.40995" lon="5.55795">
        <ele>808.2</ele>
        <time>2021-09-07T14:07:18Z</time>
      </trkpt>
      <trkpt lat="44.40995" lon="5.55795">
        <ele>808.2</ele>
        <time>2021-09-07T14:07:19Z</time>
      </trkpt>
      <trkpt lat="44.40996" lon="5.55796">
        <ele>808.2</ele>
        <time>2021-09-07T14:07:20Z</time>
      </trkpt>
      <trkpt lat="44.40996" lon="5.55797">
        <ele>808.3</ele>
        <time>2021-09-07T14:07:21Z</time>
      </trkpt>
      <trkpt lat="44.40996" lon="5.55798">
        <ele>808.3</ele>
        <time>2021-09-07T14:07:22Z</time>
      </trkpt>
      <trkpt lat="44.40996" lon="5.558">
        <ele>808.4</ele>
        <time>2021-09-07T14:07:23Z</time>
      </trkpt>
      <trkpt lat="44.40997" lon="5.55801">
        <ele>808.5</ele>
        <time>2021-09-07T14:07:24Z</time>
      </trkpt>
      <trkpt lat="44.40998" lon="5.55802">
        <ele>808.5</ele>
        <time>2021-09-07T14:07:25Z</time>
      </trkpt>
      <trkpt lat="44.40998" lon="5.55803">
        <ele>808.6</ele>
        <time>2021-09-07T14:07:26Z</time>
      </trkpt>
      <trkpt lat="44.40999" lon="5.55806">
        <ele>808.7</ele>
        <time>2021-09-07T14:07:27Z</time>
      </trkpt>
      <trkpt lat="44.40999" lon="5.55809">
        <ele>808.9</ele>
        <time>2021-09-07T14:07:28Z</time>
      </trkpt>
      <trkpt lat="44.41" lon="5.55814">
        <ele>809.1</ele>
        <time>2021-09-07T14:07:29Z</time>
      </trkpt>
      <trkpt lat="44.41" lon="5.55816">
        <ele>809.2</ele>
        <time>2021-09-07T14:07:30Z</time>
      </trkpt>
      <trkpt lat="44.41" lon="5.55817">
        <ele>809.2</ele>
        <time>2021-09-07T14:07:31Z</time>
      </trkpt>
      <trkpt lat="44.41" lon="5.55818">
        <ele>809.3</ele>
        <time>2021-09-07T14:07:32Z</time>
      </trkpt>
      <trkpt lat="44.41" lon="5.5582">
        <ele>809.4</ele>
        <time>2021-09-07T14:07:33Z</time>
      </trkpt>
      <trkpt lat="44.41001" lon="5.55822">
        <ele>809.5</ele>
        <time>2021-09-07T14:07:34Z</time>
      </trkpt>
      <trkpt lat="44.41001" lon="5.55824">
        <ele>809.6</ele>
        <time>2021-09-07T14:07:35Z</time>
      </trkpt>
      <trkpt lat="44.41001" lon="5.55826">
        <ele>809.7</ele>
        <time>2021-09-07T14:07:36Z</time>
      </trkpt>
      <trkpt lat="44.41001" lon="5.5583">
        <ele>809.9</ele>
        <time>2021-09-07T14:07:37Z</time>
      </trkpt>
      <trkpt lat="44.41001" lon="5.55832">
        <ele>810</ele>
        <time>2021-09-07T14:07:38Z</time>
      </trkpt>
      <trkpt lat="44.41" lon="5.55834">
        <ele>810.1</ele>
        <time>2021-09-07T14:07:39Z</time>
      </trkpt>
      <trkpt lat="44.41" lon="5.55837">
        <ele>810.3</ele>
        <time>2021-09-07T14:07:40Z</time>
      </trkpt>
      <trkpt lat="44.41" lon="5.5584">
        <ele>810.5</ele>
        <time>2021-09-07T14:07:41Z</time>
      </trkpt>
      <trkpt lat="44.41" lon="5.55841">
        <ele>810.6</ele>
        <time>2021-09-07T14:07:42Z</time>
      </trkpt>
      <trkpt lat="44.41" lon="5.55842">
        <ele>810.7</ele>
        <time>2021-09-07T14:07:43Z</time>
      </trkpt>
      <trkpt lat="44.40999" lon="5.55843">
        <ele>810.7</ele>
        <time>2021-09-07T14:07:44Z</time>
      </trkpt>
      <trkpt lat="44.40999" lon="5.55844">
        <ele>810.8</ele>
        <time>2021-09-07T14:07:45Z</time>
      </trkpt>
      <trkpt lat="44.40999" lon="5.55846">
        <ele>811</ele>
        <time>2021-09-07T14:07:46Z</time>
      </trkpt>
      <trkpt lat="44.40998" lon="5.55848">
        <ele>811.1</ele>
        <time>2021-09-07T14:07:47Z</time>
      </trkpt>
      <trkpt lat="44.40998" lon="5.5585">
        <ele>811.2</ele>
        <time>2021-09-07T14:07:48Z</time>
      </trkpt>
      <trkpt lat="44.40997" lon="5.5585">
        <ele>811.3</ele>
        <time>2021-09-07T14:07:49Z</time>
      </trkpt>
      <trkpt lat="44.40997" lon="5.55852">
        <ele>811.5</ele>
        <time>2021-09-07T14:07:50Z</time>
      </trkpt>
      <trkpt lat="44.40997" lon="5.55854">
        <ele>811.6</ele>
        <time>2021-09-07T14:07:51Z</time>
      </trkpt>
      <trkpt lat="44.40997" lon="5.55855">
        <ele>811.7</ele>
        <time>2021-09-07T14:07:52Z</time>
      </trkpt>
      <trkpt lat="44.40997" lon="5.55855">
        <ele>811.7</ele>
        <time>2021-09-07T14:07:53Z</time>
      </trkpt>
      <trkpt lat="44.40997" lon="5.55856">
        <ele>811.8</ele>
        <time>2021-09-07T14:07:54Z</time>
      </trkpt>
      <trkpt lat="44.40997" lon="5.55857">
        <ele>811.8</ele>
        <time>2021-09-07T14:07:55Z</time>
      </trkpt>
      <trkpt lat="44.40997" lon="5.55857">
        <ele>811.8</ele>
        <time>2021-09-07T14:07:56Z</time>
      </trkpt>
      <trkpt lat="44.40997" lon="5.55859">
        <ele>812</ele>
        <time>2021-09-07T14:07:57Z</time>
      </trkpt>
      <trkpt lat="44.40998" lon="5.5586">
        <ele>812.1</ele>
        <time>2021-09-07T14:07:58Z</time>
      </trkpt>
      <trkpt lat="44.40998" lon="5.55861">
        <ele>812.1</ele>
        <time>2021-09-07T14:07:59Z</time>
      </trkpt>
      <trkpt lat="44.40998" lon="5.55863">
        <ele>812.3</ele>
        <time>2021-09-07T14:08:00Z</time>
      </trkpt>
      <trkpt lat="44.40999" lon="5.55865">
        <ele>812.4</ele>
        <time>2021-09-07T14:08:01Z</time>
      </trkpt>
      <trkpt lat="44.40999" lon="5.55866">
        <ele>812.5</ele>
        <time>2021-09-07T14:08:02Z</time>
      </trkpt>
      <trkpt lat="44.40999" lon="5.55868">
        <ele>812.7</ele>
        <time>2021-09-07T14:08:03Z</time>
      </trkpt>
      <trkpt lat="44.41" lon="5.5587">
        <ele>812.8</ele>
        <time>2021-09-07T14:08:04Z</time>
      </trkpt>
      <trkpt lat="44.41" lon="5.55871">
        <ele>812.9</ele>
        <time>2021-09-07T14:08:05Z</time>
      </trkpt>
      <trkpt lat="44.41" lon="5.55872">
        <ele>813</ele>
        <time>2021-09-07T14:08:06Z</time>
      </trkpt>
      <trkpt lat="44.41001" lon="5.55877">
        <ele>813.3</ele>
        <time>2021-09-07T14:08:07Z</time>
      </trkpt>
      <trkpt lat="44.41002" lon="5.5588">
        <ele>813.5</ele>
        <time>2021-09-07T14:08:08Z</time>
      </trkpt>
      <trkpt lat="44.41003" lon="5.55882">
        <ele>813.7</ele>
        <time>2021-09-07T14:08:09Z</time>
      </trkpt>
      <trkpt lat="44.41003" lon="5.55884">
        <ele>813.8</ele>
        <time>2021-09-07T14:08:10Z</time>
      </trkpt>
      <trkpt lat="44.41004" lon="5.55887">
        <ele>814</ele>
        <time>2021-09-07T14:08:11Z</time>
      </trkpt>
      <trkpt lat="44.41004" lon="5.55888">
        <ele>814.1</ele>
        <time>2021-09-07T14:08:12Z</time>
      </trkpt>
      <trkpt lat="44.41004" lon="5.55889">
        <ele>814.2</ele>
        <time>2021-09-07T14:08:13Z</time>
      </trkpt>
      <trkpt lat="44.41005" lon="5.55891">
        <ele>814.3</ele>
        <time>2021-09-07T14:08:14Z</time>
      </trkpt>
      <trkpt lat="44.41005" lon="5.55894">
        <ele>814.5</ele>
        <time>2021-09-07T14:08:15Z</time>
      </trkpt>
      <trkpt lat="44.41006" lon="5.55896">
        <ele>814.6</ele>
        <time>2021-09-07T14:08:16Z</time>
      </trkpt>
      <trkpt lat="44.41006" lon="5.55897">
        <ele>814.7</ele>
        <time>2021-09-07T14:08:17Z</time>
      </trkpt>
      <trkpt lat="44.41006" lon="5.55899">
        <ele>814.8</ele>
        <time>2021-09-07T14:08:18Z</time>
      </trkpt>
      <trkpt lat="44.41007" lon="5.55901">
        <ele>814.9</ele>
        <time>2021-09-07T14:08:19Z</time>
      </trkpt>
      <trkpt lat="44.41007" lon="5.55903">
        <ele>815</ele>
        <time>2021-09-07T14:08:20Z</time>
      </trkpt>
      <trkpt lat="44.41008" lon="5.55904">
        <ele>815.1</ele>
        <time>2021-09-07T14:08:21Z</time>
      </trkpt>
      <trkpt lat="44.41008" lon="5.55905">
        <ele>815.2</ele>
        <time>2021-09-07T14:08:22Z</time>
      </trkpt>
      <trkpt lat="44.41009" lon="5.55908">
        <ele>815.3</ele>
        <time>2021-09-07T14:08:23Z</time>
      </trkpt>
      <trkpt lat="44.41009" lon="5.5591">
        <ele>815.4</ele>
        <time>2021-09-07T14:08:24Z</time>
      </trkpt>
      <trkpt lat="44.41009" lon="5.55911">
        <ele>815.5</ele>
        <time>2021-09-07T14:08:25Z</time>
      </trkpt>
      <trkpt lat="44.41009" lon="5.55914">
        <ele>815.6</ele>
        <time>2021-09-07T14:08:26Z</time>
      </trkpt>
      <trkpt lat="44.4101" lon="5.55915">
        <ele>815.7</ele>
        <time>2021-09-07T14:08:27Z</time>
      </trkpt>
      <trkpt lat="44.4101" lon="5.55916">
        <ele>815.8</ele>
        <time>2021-09-07T14:08:28Z</time>
      </trkpt>
      <trkpt lat="44.4101" lon="5.55919">
        <ele>815.9</ele>
        <time>2021-09-07T14:08:29Z</time>
      </trkpt>
      <trkpt lat="44.4101" lon="5.5592">
        <ele>816</ele>
        <time>2021-09-07T14:08:30Z</time>
      </trkpt>
      <trkpt lat="44.41009" lon="5.5592">
        <ele>816</ele>
        <time>2021-09-07T14:08:31Z</time>
      </trkpt>
      <trkpt lat="44.41009" lon="5.5592">
        <ele>816</ele>
        <time>2021-09-07T14:08:32Z</time>
      </trkpt>
      <trkpt lat="44.41009" lon="5.5592">
        <ele>816</ele>
        <time>2021-09-07T14:08:33Z</time>
      </trkpt>
      <trkpt lat="44.41009" lon="5.55921">
        <ele>816</ele>
        <time>2021-09-07T14:08:34Z</time>
      </trkpt>
      <trkpt lat="44.41009" lon="5.55921">
        <ele>816</ele>
        <time>2021-09-07T14:08:35Z</time>
      </trkpt>
      <trkpt lat="44.41009" lon="5.55921">
        <ele>816</ele>
        <time>2021-09-07T14:08:36Z</time>
      </trkpt>
      <trkpt lat="44.41009" lon="5.55921">
        <ele>816</ele>
        <time>2021-09-07T14:08:37Z</time>
      </trkpt>
      <trkpt lat="44.41009" lon="5.55922">
        <ele>816.1</ele>
        <time>2021-09-07T14:08:38Z</time>
      </trkpt>
      <trkpt lat="44.41009" lon="5.55922">
        <ele>816.1</ele>
        <time>2021-09-07T14:08:39Z</time>
      </trkpt>
      <trkpt lat="44.41009" lon="5.55922">
        <ele>816.1</ele>
        <time>2021-09-07T14:08:40Z</time>
      </trkpt>
      <trkpt lat="44.41009" lon="5.55922">
        <ele>816.1</ele>
        <time>2021-09-07T14:08:41Z</time>
      </trkpt>
      <trkpt lat="44.41009" lon="5.55924">
        <ele>816.2</ele>
        <time>2021-09-07T14:08:42Z</time>
      </trkpt>
      <trkpt lat="44.41009" lon="5.55926">
        <ele>816.3</ele>
        <time>2021-09-07T14:08:43Z</time>
      </trkpt>
      <trkpt lat="44.41008" lon="5.55927">
        <ele>816.3</ele>
        <time>2021-09-07T14:08:44Z</time>
      </trkpt>
      <trkpt lat="44.41008" lon="5.55929">
        <ele>816.4</ele>
        <time>2021-09-07T14:08:45Z</time>
      </trkpt>
      <trkpt lat="44.41006" lon="5.55932">
        <ele>816.6</ele>
        <time>2021-09-07T14:08:46Z</time>
      </trkpt>
      <trkpt lat="44.41006" lon="5.55935">
        <ele>816.8</ele>
        <time>2021-09-07T14:08:47Z</time>
      </trkpt>
      <trkpt lat="44.41005" lon="5.55937">
        <ele>816.9</ele>
        <time>2021-09-07T14:08:48Z</time>
      </trkpt>
      <trkpt lat="44.41004" lon="5.55939">
        <ele>817</ele>
        <time>2021-09-07T14:08:49Z</time>
      </trkpt>
      <trkpt lat="44.41" lon="5.55943">
        <ele>817.4</ele>
        <time>2021-09-07T14:08:50Z</time>
      </trkpt>
      <trkpt lat="44.40997" lon="5.55947">
        <ele>817.7</ele>
        <time>2021-09-07T14:08:51Z</time>
      </trkpt>
      <trkpt lat="44.40996" lon="5.55948">
        <ele>817.8</ele>
        <time>2021-09-07T14:08:52Z</time>
      </trkpt>
      <trkpt lat="44.40994" lon="5.55949">
        <ele>817.9</ele>
        <time>2021-09-07T14:08:53Z</time>
      </trkpt>
      <trkpt lat="44.40992" lon="5.55952">
        <ele>818.1</ele>
        <time>2021-09-07T14:08:54Z</time>
      </trkpt>
      <trkpt lat="44.4099" lon="5.55956">
        <ele>818.4</ele>
        <time>2021-09-07T14:08:55Z</time>
      </trkpt>
      <trkpt lat="44.40989" lon="5.55959">
        <ele>818.6</ele>
        <time>2021-09-07T14:08:56Z</time>
      </trkpt>
      <trkpt lat="44.40989" lon="5.5596">
        <ele>818.7</ele>
        <time>2021-09-07T14:08:57Z</time>
      </trkpt>
      <trkpt lat="44.40988" lon="5.55961">
        <ele>818.7</ele>
        <time>2021-09-07T14:08:58Z</time>
      </trkpt>
      <trkpt lat="44.40987" lon="5.55963">
        <ele>818.9</ele>
        <time>2021-09-07T14:08:59Z</time>
      </trkpt>
      <trkpt lat="44.40985" lon="5.55966">
        <ele>819.1</ele>
        <time>2021-09-07T14:09:00Z</time>
      </trkpt>
      <trkpt lat="44.40985" lon="5.55967">
        <ele>819.2</ele>
        <time>2021-09-07T14:09:01Z</time>
      </trkpt>
      <trkpt lat="44.40984" lon="5.55968">
        <ele>819.2</ele>
        <time>2021-09-07T14:09:02Z</time>
      </trkpt>
      <trkpt lat="44.40983" lon="5.55969">
        <ele>819.3</ele>
        <time>2021-09-07T14:09:03Z</time>
      </trkpt>
      <trkpt lat="44.40982" lon="5.5597">
        <ele>819.4</ele>
        <time>2021-09-07T14:09:04Z</time>
      </trkpt>
      <trkpt lat="44.40983" lon="5.5597">
        <ele>819.5</ele>
        <time>2021-09-07T14:09:05Z</time>
      </trkpt>
      <trkpt lat="44.40983" lon="5.5597">
        <ele>819.5</ele>
        <time>2021-09-07T14:09:06Z</time>
      </trkpt>
      <trkpt lat="44.40982" lon="5.5597">
        <ele>819.6</ele>
        <time>2021-09-07T14:09:07Z</time>
      </trkpt>
      <trkpt lat="44.40982" lon="5.5597">
        <ele>819.6</ele>
        <time>2021-09-07T14:09:08Z</time>
      </trkpt>
      <trkpt lat="44.40982" lon="5.5597">
        <ele>819.6</ele>
        <time>2021-09-07T14:09:09Z</time>
      </trkpt>
      <trkpt lat="44.40982" lon="5.5597">
        <ele>819.6</ele>
        <time>2021-09-07T14:09:10Z</time>
      </trkpt>
      <trkpt lat="44.40982" lon="5.5597">
        <ele>819.6</ele>
        <time>2021-09-07T14:09:11Z</time>
      </trkpt>
      <trkpt lat="44.40982" lon="5.5597">
        <ele>819.6</ele>
        <time>2021-09-07T14:09:12Z</time>
      </trkpt>
      <trkpt lat="44.40982" lon="5.5597">
        <ele>819.6</ele>
        <time>2021-09-07T14:09:13Z</time>
      </trkpt>
      <trkpt lat="44.40982" lon="5.5597">
        <ele>819.6</ele>
        <time>2021-09-07T14:09:14Z</time>
      </trkpt>
      <trkpt lat="44.40981" lon="5.5597">
        <ele>819.7</ele>
        <time>2021-09-07T14:09:15Z</time>
      </trkpt>
      <trkpt lat="44.40981" lon="5.5597">
        <ele>819.7</ele>
        <time>2021-09-07T14:09:16Z</time>
      </trkpt>
      <trkpt lat="44.40981" lon="5.5597">
        <ele>819.7</ele>
        <time>2021-09-07T14:09:17Z</time>
      </trkpt>
      <trkpt lat="44.40979" lon="5.55971">
        <ele>819.8</ele>
        <time>2021-09-07T14:09:18Z</time>
      </trkpt>
      <trkpt lat="44.40978" lon="5.55972">
        <ele>819.9</ele>
        <time>2021-09-07T14:09:19Z</time>
      </trkpt>
      <trkpt lat="44.40977" lon="5.55973">
        <ele>820</ele>
        <time>2021-09-07T14:09:20Z</time>
      </trkpt>
      <trkpt lat="44.40976" lon="5.55974">
        <ele>820.1</ele>
        <time>2021-09-07T14:09:21Z</time>
      </trkpt>
      <trkpt lat="44.40974" lon="5.55975">
        <ele>820.3</ele>
        <time>2021-09-07T14:09:22Z</time>
      </trkpt>
      <trkpt lat="44.40972" lon="5.55976">
        <ele>820.4</ele>
        <time>2021-09-07T14:09:23Z</time>
      </trkpt>
      <trkpt lat="44.40971" lon="5.55977">
        <ele>820.5</ele>
        <time>2021-09-07T14:09:24Z</time>
      </trkpt>
      <trkpt lat="44.40969" lon="5.55978">
        <ele>820.7</ele>
        <time>2021-09-07T14:09:25Z</time>
      </trkpt>
      <trkpt lat="44.40967" lon="5.5598">
        <ele>820.9</ele>
        <time>2021-09-07T14:09:26Z</time>
      </trkpt>
      <trkpt lat="44.40965" lon="5.55981">
        <ele>821.1</ele>
        <time>2021-09-07T14:09:27Z</time>
      </trkpt>
      <trkpt lat="44.40962" lon="5.55984">
        <ele>821.5</ele>
        <time>2021-09-07T14:09:28Z</time>
      </trkpt>
      <trkpt lat="44.4096" lon="5.55987">
        <ele>821.8</ele>
        <time>2021-09-07T14:09:29Z</time>
      </trkpt>
      <trkpt lat="44.40959" lon="5.55989">
        <ele>822</ele>
        <time>2021-09-07T14:09:30Z</time>
      </trkpt>
      <trkpt lat="44.40957" lon="5.55991">
        <ele>822.2</ele>
        <time>2021-09-07T14:09:31Z</time>
      </trkpt>
      <trkpt lat="44.40953" lon="5.55993">
        <ele>822.6</ele>
        <time>2021-09-07T14:09:32Z</time>
      </trkpt>
      <trkpt lat="44.40952" lon="5.55994">
        <ele>822.7</ele>
        <time>2021-09-07T14:09:33Z</time>
      </trkpt>
      <trkpt lat="44.40951" lon="5.55994">
        <ele>822.9</ele>
        <time>2021-09-07T14:09:34Z</time>
      </trkpt>
      <trkpt lat="44.40949" lon="5.55994">
        <ele>823</ele>
        <time>2021-09-07T14:09:35Z</time>
      </trkpt>
      <trkpt lat="44.40947" lon="5.55994">
        <ele>823.2</ele>
        <time>2021-09-07T14:09:36Z</time>
      </trkpt>
      <trkpt lat="44.40945" lon="5.55994">
        <ele>823.4</ele>
        <time>2021-09-07T14:09:37Z</time>
      </trkpt>
      <trkpt lat="44.40943" lon="5.55994">
        <ele>823.5</ele>
        <time>2021-09-07T14:09:38Z</time>
      </trkpt>
      <trkpt lat="44.40941" lon="5.55994">
        <ele>823.7</ele>
        <time>2021-09-07T14:09:39Z</time>
      </trkpt>
      <trkpt lat="44.4094" lon="5.55994">
        <ele>823.8</ele>
        <time>2021-09-07T14:09:40Z</time>
      </trkpt>
      <trkpt lat="44.40939" lon="5.55994">
        <ele>824</ele>
        <time>2021-09-07T14:09:41Z</time>
      </trkpt>
      <trkpt lat="44.40937" lon="5.55993">
        <ele>824.1</ele>
        <time>2021-09-07T14:09:42Z</time>
      </trkpt>
      <trkpt lat="44.40935" lon="5.55992">
        <ele>824.3</ele>
        <time>2021-09-07T14:09:43Z</time>
      </trkpt>
      <trkpt lat="44.40934" lon="5.55992">
        <ele>824.4</ele>
        <time>2021-09-07T14:09:44Z</time>
      </trkpt>
      <trkpt lat="44.40933" lon="5.55992">
        <ele>824.5</ele>
        <time>2021-09-07T14:09:45Z</time>
      </trkpt>
      <trkpt lat="44.40932" lon="5.55991">
        <ele>824.6</ele>
        <time>2021-09-07T14:09:46Z</time>
      </trkpt>
      <trkpt lat="44.40931" lon="5.55991">
        <ele>824.7</ele>
        <time>2021-09-07T14:09:47Z</time>
      </trkpt>
      <trkpt lat="44.4093" lon="5.5599">
        <ele>824.8</ele>
        <time>2021-09-07T14:09:48Z</time>
      </trkpt>
      <trkpt lat="44.40929" lon="5.5599">
        <ele>824.9</ele>
        <time>2021-09-07T14:09:49Z</time>
      </trkpt>
      <trkpt lat="44.40928" lon="5.55989">
        <ele>825</ele>
        <time>2021-09-07T14:09:50Z</time>
      </trkpt>
      <trkpt lat="44.40927" lon="5.55988">
        <ele>825.1</ele>
        <time>2021-09-07T14:09:51Z</time>
      </trkpt>
      <trkpt lat="44.40926" lon="5.55988">
        <ele>825.2</ele>
        <time>2021-09-07T14:09:52Z</time>
      </trkpt>
      <trkpt lat="44.40925" lon="5.55987">
        <ele>825.3</ele>
        <time>2021-09-07T14:09:53Z</time>
      </trkpt>
      <trkpt lat="44.40924" lon="5.55986">
        <ele>825.4</ele>
        <time>2021-09-07T14:09:54Z</time>
      </trkpt>
      <trkpt lat="44.40923" lon="5.55986">
        <ele>825.4</ele>
        <time>2021-09-07T14:09:55Z</time>
      </trkpt>
      <trkpt lat="44.40922" lon="5.55986">
        <ele>825.5</ele>
        <time>2021-09-07T14:09:56Z</time>
      </trkpt>
      <trkpt lat="44.40921" lon="5.55985">
        <ele>825.6</ele>
        <time>2021-09-07T14:09:57Z</time>
      </trkpt>
      <trkpt lat="44.4092" lon="5.55984">
        <ele>825.7</ele>
        <time>2021-09-07T14:09:58Z</time>
      </trkpt>
      <trkpt lat="44.40919" lon="5.55983">
        <ele>825.8</ele>
        <time>2021-09-07T14:09:59Z</time>
      </trkpt>
      <trkpt lat="44.40917" lon="5.55981">
        <ele>826</ele>
        <time>2021-09-07T14:10:00Z</time>
      </trkpt>
      <trkpt lat="44.40917" lon="5.55981">
        <ele>826.1</ele>
        <time>2021-09-07T14:10:01Z</time>
      </trkpt>
      <trkpt lat="44.40916" lon="5.5598">
        <ele>826.1</ele>
        <time>2021-09-07T14:10:02Z</time>
      </trkpt>
      <trkpt lat="44.40915" lon="5.55978">
        <ele>826.3</ele>
        <time>2021-09-07T14:10:03Z</time>
      </trkpt>
      <trkpt lat="44.40915" lon="5.55976">
        <ele>826.4</ele>
        <time>2021-09-07T14:10:04Z</time>
      </trkpt>
      <trkpt lat="44.40914" lon="5.55973">
        <ele>826.6</ele>
        <time>2021-09-07T14:10:05Z</time>
      </trkpt>
      <trkpt lat="44.40913" lon="5.5597">
        <ele>826.8</ele>
        <time>2021-09-07T14:10:06Z</time>
      </trkpt>
      <trkpt lat="44.40913" lon="5.55969">
        <ele>826.9</ele>
        <time>2021-09-07T14:10:07Z</time>
      </trkpt>
      <trkpt lat="44.40912" lon="5.55967">
        <ele>827</ele>
        <time>2021-09-07T14:10:08Z</time>
      </trkpt>
      <trkpt lat="44.40913" lon="5.55967">
        <ele>827</ele>
        <time>2021-09-07T14:10:09Z</time>
      </trkpt>
      <trkpt lat="44.40913" lon="5.55967">
        <ele>827.1</ele>
        <time>2021-09-07T14:10:10Z</time>
      </trkpt>
      <trkpt lat="44.40913" lon="5.55967">
        <ele>827.1</ele>
        <time>2021-09-07T14:10:11Z</time>
      </trkpt>
      <trkpt lat="44.40913" lon="5.55967">
        <ele>827.1</ele>
        <time>2021-09-07T14:10:12Z</time>
      </trkpt>
      <trkpt lat="44.40913" lon="5.55967">
        <ele>827.1</ele>
        <time>2021-09-07T14:10:13Z</time>
      </trkpt>
      <trkpt lat="44.40913" lon="5.55967">
        <ele>827.1</ele>
        <time>2021-09-07T14:10:14Z</time>
      </trkpt>
      <trkpt lat="44.40913" lon="5.55967">
        <ele>827.1</ele>
        <time>2021-09-07T14:10:15Z</time>
      </trkpt>
      <trkpt lat="44.40913" lon="5.55966">
        <ele>827.1</ele>
        <time>2021-09-07T14:10:16Z</time>
      </trkpt>
      <trkpt lat="44.40913" lon="5.55966">
        <ele>827.1</ele>
        <time>2021-09-07T14:10:17Z</time>
      </trkpt>
      <trkpt lat="44.40913" lon="5.55966">
        <ele>827.1</ele>
        <time>2021-09-07T14:10:18Z</time>
      </trkpt>
      <trkpt lat="44.40914" lon="5.55966">
        <ele>827.2</ele>
        <time>2021-09-07T14:10:19Z</time>
      </trkpt>
      <trkpt lat="44.40914" lon="5.55966">
        <ele>827.2</ele>
        <time>2021-09-07T14:10:20Z</time>
      </trkpt>
      <trkpt lat="44.40914" lon="5.55966">
        <ele>827.2</ele>
        <time>2021-09-07T14:10:21Z</time>
      </trkpt>
      <trkpt lat="44.40913" lon="5.55966">
        <ele>827.3</ele>
        <time>2021-09-07T14:10:22Z</time>
      </trkpt>
      <trkpt lat="44.40913" lon="5.55966">
        <ele>827.3</ele>
        <time>2021-09-07T14:10:23Z</time>
      </trkpt>
      <trkpt lat="44.40913" lon="5.55966">
        <ele>827.3</ele>
        <time>2021-09-07T14:10:24Z</time>
      </trkpt>
      <trkpt lat="44.40913" lon="5.55966">
        <ele>827.3</ele>
        <time>2021-09-07T14:10:25Z</time>
      </trkpt>
      <trkpt lat="44.40913" lon="5.55966">
        <ele>827.3</ele>
        <time>2021-09-07T14:10:26Z</time>
      </trkpt>
      <trkpt lat="44.40913" lon="5.55966">
        <ele>827.3</ele>
        <time>2021-09-07T14:10:27Z</time>
      </trkpt>
      <trkpt lat="44.40913" lon="5.55966">
        <ele>827.3</ele>
        <time>2021-09-07T14:10:28Z</time>
      </trkpt>
      <trkpt lat="44.40913" lon="5.55966">
        <ele>827.3</ele>
        <time>2021-09-07T14:10:29Z</time>
      </trkpt>
      <trkpt lat="44.40914" lon="5.55966">
        <ele>827.3</ele>
        <time>2021-09-07T14:10:30Z</time>
      </trkpt>
      <trkpt lat="44.40914" lon="5.55966">
        <ele>827.4</ele>
        <time>2021-09-07T14:10:31Z</time>
      </trkpt>
      <trkpt lat="44.40914" lon="5.55966">
        <ele>827.4</ele>
        <time>2021-09-07T14:10:32Z</time>
      </trkpt>
      <trkpt lat="44.40914" lon="5.55966">
        <ele>827.4</ele>
        <time>2021-09-07T14:10:33Z</time>
      </trkpt>
      <trkpt lat="44.40914" lon="5.55966">
        <ele>827.4</ele>
        <time>2021-09-07T14:10:34Z</time>
      </trkpt>
      <trkpt lat="44.40914" lon="5.55966">
        <ele>827.4</ele>
        <time>2021-09-07T14:10:35Z</time>
      </trkpt>
      <trkpt lat="44.40914" lon="5.55966">
        <ele>827.4</ele>
        <time>2021-09-07T14:10:36Z</time>
      </trkpt>
      <trkpt lat="44.40914" lon="5.55965">
        <ele>827.4</ele>
        <time>2021-09-07T14:10:37Z</time>
      </trkpt>
      <trkpt lat="44.40914" lon="5.55965">
        <ele>827.4</ele>
        <time>2021-09-07T14:10:38Z</time>
      </trkpt>
      <trkpt lat="44.40914" lon="5.55965">
        <ele>827.4</ele>
        <time>2021-09-07T14:10:39Z</time>
      </trkpt>
      <trkpt lat="44.40914" lon="5.55965">
        <ele>827.4</ele>
        <time>2021-09-07T14:10:40Z</time>
      </trkpt>
      <trkpt lat="44.40914" lon="5.55965">
        <ele>827.4</ele>
        <time>2021-09-07T14:10:41Z</time>
      </trkpt>
      <trkpt lat="44.40914" lon="5.55966">
        <ele>827.5</ele>
        <time>2021-09-07T14:10:42Z</time>
      </trkpt>
      <trkpt lat="44.40913" lon="5.55966">
        <ele>827.6</ele>
        <time>2021-09-07T14:10:43Z</time>
      </trkpt>
      <trkpt lat="44.40913" lon="5.55966">
        <ele>827.6</ele>
        <time>2021-09-07T14:10:44Z</time>
      </trkpt>
      <trkpt lat="44.40913" lon="5.55966">
        <ele>827.6</ele>
        <time>2021-09-07T14:10:45Z</time>
      </trkpt>
      <trkpt lat="44.40914" lon="5.55966">
        <ele>827.7</ele>
        <time>2021-09-07T14:10:46Z</time>
      </trkpt>
      <trkpt lat="44.40914" lon="5.55966">
        <ele>827.7</ele>
        <time>2021-09-07T14:10:47Z</time>
      </trkpt>
      <trkpt lat="44.40914" lon="5.55966">
        <ele>827.7</ele>
        <time>2021-09-07T14:10:48Z</time>
      </trkpt>
      <trkpt lat="44.40914" lon="5.55966">
        <ele>827.7</ele>
        <time>2021-09-07T14:10:49Z</time>
      </trkpt>
      <trkpt lat="44.40914" lon="5.55966">
        <ele>827.7</ele>
        <time>2021-09-07T14:10:50Z</time>
      </trkpt>
      <trkpt lat="44.40913" lon="5.55969">
        <ele>827.9</ele>
        <time>2021-09-07T14:10:51Z</time>
      </trkpt>
      <trkpt lat="44.40912" lon="5.55971">
        <ele>828</ele>
        <time>2021-09-07T14:10:52Z</time>
      </trkpt>
      <trkpt lat="44.40911" lon="5.55973">
        <ele>828.2</ele>
        <time>2021-09-07T14:10:53Z</time>
      </trkpt>
      <trkpt lat="44.40911" lon="5.55974">
        <ele>828.2</ele>
        <time>2021-09-07T14:10:54Z</time>
      </trkpt>
      <trkpt lat="44.40911" lon="5.55975">
        <ele>828.3</ele>
        <time>2021-09-07T14:10:55Z</time>
      </trkpt>
      <trkpt lat="44.4091" lon="5.55977">
        <ele>828.5</ele>
        <time>2021-09-07T14:10:56Z</time>
      </trkpt>
      <trkpt lat="44.4091" lon="5.55977">
        <ele>828.5</ele>
        <time>2021-09-07T14:10:57Z</time>
      </trkpt>
      <trkpt lat="44.4091" lon="5.55977">
        <ele>828.5</ele>
        <time>2021-09-07T14:10:58Z</time>
      </trkpt>
      <trkpt lat="44.4091" lon="5.55975">
        <ele>828.6</ele>
        <time>2021-09-07T14:10:59Z</time>
      </trkpt>
      <trkpt lat="44.4091" lon="5.55974">
        <ele>828.6</ele>
        <time>2021-09-07T14:11:00Z</time>
      </trkpt>
      <trkpt lat="44.4091" lon="5.55973">
        <ele>828.7</ele>
        <time>2021-09-07T14:11:01Z</time>
      </trkpt>
      <trkpt lat="44.4091" lon="5.55972">
        <ele>828.8</ele>
        <time>2021-09-07T14:11:02Z</time>
      </trkpt>
      <trkpt lat="44.4091" lon="5.55971">
        <ele>828.8</ele>
        <time>2021-09-07T14:11:03Z</time>
      </trkpt>
      <trkpt lat="44.40911" lon="5.55969">
        <ele>829</ele>
        <time>2021-09-07T14:11:04Z</time>
      </trkpt>
      <trkpt lat="44.40912" lon="5.55968">
        <ele>829.1</ele>
        <time>2021-09-07T14:11:05Z</time>
      </trkpt>
      <trkpt lat="44.40912" lon="5.55967">
        <ele>829.1</ele>
        <time>2021-09-07T14:11:06Z</time>
      </trkpt>
      <trkpt lat="44.40913" lon="5.55965">
        <ele>829.3</ele>
        <time>2021-09-07T14:11:07Z</time>
      </trkpt>
      <trkpt lat="44.40914" lon="5.55963">
        <ele>829.4</ele>
        <time>2021-09-07T14:11:08Z</time>
      </trkpt>
      <trkpt lat="44.40914" lon="5.5596">
        <ele>829.6</ele>
        <time>2021-09-07T14:11:09Z</time>
      </trkpt>
      <trkpt lat="44.40915" lon="5.55956">
        <ele>829.9</ele>
        <time>2021-09-07T14:11:10Z</time>
      </trkpt>
      <trkpt lat="44.40915" lon="5.55953">
        <ele>830</ele>
        <time>2021-09-07T14:11:11Z</time>
      </trkpt>
      <trkpt lat="44.40915" lon="5.55952">
        <ele>830.1</ele>
        <time>2021-09-07T14:11:12Z</time>
      </trkpt>
      <trkpt lat="44.40915" lon="5.55951">
        <ele>830.1</ele>
        <time>2021-09-07T14:11:13Z</time>
      </trkpt>
      <trkpt lat="44.40915" lon="5.5595">
        <ele>830.2</ele>
        <time>2021-09-07T14:11:14Z</time>
      </trkpt>
      <trkpt lat="44.40914" lon="5.55948">
        <ele>830.3</ele>
        <time>2021-09-07T14:11:15Z</time>
      </trkpt>
      <trkpt lat="44.40914" lon="5.55947">
        <ele>830.4</ele>
        <time>2021-09-07T14:11:16Z</time>
      </trkpt>
      <trkpt lat="44.40914" lon="5.55946">
        <ele>830.4</ele>
        <time>2021-09-07T14:11:17Z</time>
      </trkpt>
      <trkpt lat="44.40914" lon="5.55946">
        <ele>830.5</ele>
        <time>2021-09-07T14:11:18Z</time>
      </trkpt>
      <trkpt lat="44.40913" lon="5.55945">
        <ele>830.5</ele>
        <time>2021-09-07T14:11:19Z</time>
      </trkpt>
      <trkpt lat="44.40913" lon="5.55944">
        <ele>830.6</ele>
        <time>2021-09-07T14:11:20Z</time>
      </trkpt>
      <trkpt lat="44.40914" lon="5.55941">
        <ele>830.7</ele>
        <time>2021-09-07T14:11:21Z</time>
      </trkpt>
      <trkpt lat="44.40914" lon="5.55938">
        <ele>830.9</ele>
        <time>2021-09-07T14:11:22Z</time>
      </trkpt>
      <trkpt lat="44.40914" lon="5.55936">
        <ele>831</ele>
        <time>2021-09-07T14:11:23Z</time>
      </trkpt>
      <trkpt lat="44.40914" lon="5.55935">
        <ele>831.1</ele>
        <time>2021-09-07T14:11:24Z</time>
      </trkpt>
      <trkpt lat="44.40914" lon="5.55933">
        <ele>831.2</ele>
        <time>2021-09-07T14:11:25Z</time>
      </trkpt>
      <trkpt lat="44.40915" lon="5.55931">
        <ele>831.3</ele>
        <time>2021-09-07T14:11:26Z</time>
      </trkpt>
      <trkpt lat="44.40915" lon="5.55926">
        <ele>831.6</ele>
        <time>2021-09-07T14:11:27Z</time>
      </trkpt>
      <trkpt lat="44.40915" lon="5.55924">
        <ele>831.7</ele>
        <time>2021-09-07T14:11:28Z</time>
      </trkpt>
      <trkpt lat="44.40915" lon="5.55921">
        <ele>831.8</ele>
        <time>2021-09-07T14:11:29Z</time>
      </trkpt>
      <trkpt lat="44.40915" lon="5.5592">
        <ele>831.9</ele>
        <time>2021-09-07T14:11:30Z</time>
      </trkpt>
      <trkpt lat="44.40915" lon="5.55919">
        <ele>831.9</ele>
        <time>2021-09-07T14:11:31Z</time>
      </trkpt>
      <trkpt lat="44.40915" lon="5.55918">
        <ele>832</ele>
        <time>2021-09-07T14:11:32Z</time>
      </trkpt>
      <trkpt lat="44.40915" lon="5.55917">
        <ele>832</ele>
        <time>2021-09-07T14:11:33Z</time>
      </trkpt>
      <trkpt lat="44.40915" lon="5.55917">
        <ele>832</ele>
        <time>2021-09-07T14:11:34Z</time>
      </trkpt>
      <trkpt lat="44.40915" lon="5.55916">
        <ele>832.1</ele>
        <time>2021-09-07T14:11:35Z</time>
      </trkpt>
      <trkpt lat="44.40915" lon="5.55916">
        <ele>832.1</ele>
        <time>2021-09-07T14:11:36Z</time>
      </trkpt>
      <trkpt lat="44.40915" lon="5.55916">
        <ele>832.1</ele>
        <time>2021-09-07T14:11:37Z</time>
      </trkpt>
      <trkpt lat="44.40915" lon="5.55915">
        <ele>832.1</ele>
        <time>2021-09-07T14:11:38Z</time>
      </trkpt>
      <trkpt lat="44.40915" lon="5.55916">
        <ele>832.2</ele>
        <time>2021-09-07T14:11:39Z</time>
      </trkpt>
      <trkpt lat="44.40914" lon="5.55916">
        <ele>832.3</ele>
        <time>2021-09-07T14:11:40Z</time>
      </trkpt>
      <trkpt lat="44.40914" lon="5.55915">
        <ele>832.3</ele>
        <time>2021-09-07T14:11:41Z</time>
      </trkpt>
      <trkpt lat="44.40915" lon="5.55914">
        <ele>832.4</ele>
        <time>2021-09-07T14:11:42Z</time>
      </trkpt>
      <trkpt lat="44.40915" lon="5.55912">
        <ele>832.5</ele>
        <time>2021-09-07T14:11:43Z</time>
      </trkpt>
      <trkpt lat="44.40915" lon="5.55909">
        <ele>832.6</ele>
        <time>2021-09-07T14:11:44Z</time>
      </trkpt>
      <trkpt lat="44.40914" lon="5.55907">
        <ele>832.8</ele>
        <time>2021-09-07T14:11:45Z</time>
      </trkpt>
      <trkpt lat="44.40914" lon="5.55905">
        <ele>832.8</ele>
        <time>2021-09-07T14:11:46Z</time>
      </trkpt>
      <trkpt lat="44.40914" lon="5.55904">
        <ele>832.9</ele>
        <time>2021-09-07T14:11:47Z</time>
      </trkpt>
      <trkpt lat="44.40914" lon="5.55904">
        <ele>832.9</ele>
        <time>2021-09-07T14:11:48Z</time>
      </trkpt>
      <trkpt lat="44.40914" lon="5.55903">
        <ele>832.9</ele>
        <time>2021-09-07T14:11:49Z</time>
      </trkpt>
      <trkpt lat="44.40914" lon="5.55902">
        <ele>833</ele>
        <time>2021-09-07T14:11:50Z</time>
      </trkpt>
      <trkpt lat="44.40914" lon="5.55902">
        <ele>833</ele>
        <time>2021-09-07T14:11:51Z</time>
      </trkpt>
      <trkpt lat="44.40914" lon="5.55901">
        <ele>833</ele>
        <time>2021-09-07T14:11:52Z</time>
      </trkpt>
      <trkpt lat="44.40914" lon="5.55901">
        <ele>833</ele>
        <time>2021-09-07T14:11:53Z</time>
      </trkpt>
      <trkpt lat="44.40914" lon="5.55901">
        <ele>833</ele>
        <time>2021-09-07T14:11:54Z</time>
      </trkpt>
      <trkpt lat="44.40914" lon="5.55901">
        <ele>833</ele>
        <time>2021-09-07T14:11:55Z</time>
      </trkpt>
      <trkpt lat="44.40912" lon="5.55898">
        <ele>833.2</ele>
        <time>2021-09-07T14:11:56Z</time>
      </trkpt>
      <trkpt lat="44.40911" lon="5.55895">
        <ele>833.3</ele>
        <time>2021-09-07T14:11:57Z</time>
      </trkpt>
      <trkpt lat="44.4091" lon="5.55894">
        <ele>833.4</ele>
        <time>2021-09-07T14:11:58Z</time>
      </trkpt>
      <trkpt lat="44.40909" lon="5.55893">
        <ele>833.5</ele>
        <time>2021-09-07T14:11:59Z</time>
      </trkpt>
      <trkpt lat="44.40908" lon="5.55891">
        <ele>833.6</ele>
        <time>2021-09-07T14:12:00Z</time>
      </trkpt>
      <trkpt lat="44.40907" lon="5.55889">
        <ele>833.7</ele>
        <time>2021-09-07T14:12:01Z</time>
      </trkpt>
      <trkpt lat="44.40907" lon="5.55887">
        <ele>833.8</ele>
        <time>2021-09-07T14:12:02Z</time>
      </trkpt>
      <trkpt lat="44.40906" lon="5.55883">
        <ele>833.9</ele>
        <time>2021-09-07T14:12:03Z</time>
      </trkpt>
      <trkpt lat="44.40906" lon="5.55882">
        <ele>834</ele>
        <time>2021-09-07T14:12:04Z</time>
      </trkpt>
      <trkpt lat="44.40906" lon="5.5588">
        <ele>834</ele>
        <time>2021-09-07T14:12:05Z</time>
      </trkpt>
      <trkpt lat="44.40905" lon="5.55876">
        <ele>834.2</ele>
        <time>2021-09-07T14:12:06Z</time>
      </trkpt>
      <trkpt lat="44.40905" lon="5.55872">
        <ele>834.4</ele>
        <time>2021-09-07T14:12:07Z</time>
      </trkpt>
      <trkpt lat="44.40903" lon="5.55868">
        <ele>834.6</ele>
        <time>2021-09-07T14:12:08Z</time>
      </trkpt>
      <trkpt lat="44.40902" lon="5.55865">
        <ele>834.7</ele>
        <time>2021-09-07T14:12:09Z</time>
      </trkpt>
      <trkpt lat="44.40902" lon="5.55862">
        <ele>834.9</ele>
        <time>2021-09-07T14:12:10Z</time>
      </trkpt>
      <trkpt lat="44.40902" lon="5.55861">
        <ele>834.9</ele>
        <time>2021-09-07T14:12:11Z</time>
      </trkpt>
      <trkpt lat="44.40901" lon="5.5586">
        <ele>835</ele>
        <time>2021-09-07T14:12:12Z</time>
      </trkpt>
      <trkpt lat="44.409" lon="5.55857">
        <ele>835.1</ele>
        <time>2021-09-07T14:12:13Z</time>
      </trkpt>
      <trkpt lat="44.40899" lon="5.55854">
        <ele>835.3</ele>
        <time>2021-09-07T14:12:14Z</time>
      </trkpt>
      <trkpt lat="44.40898" lon="5.55852">
        <ele>835.4</ele>
        <time>2021-09-07T14:12:15Z</time>
      </trkpt>
      <trkpt lat="44.40898" lon="5.55851">
        <ele>835.4</ele>
        <time>2021-09-07T14:12:16Z</time>
      </trkpt>
      <trkpt lat="44.40897" lon="5.55849">
        <ele>835.5</ele>
        <time>2021-09-07T14:12:17Z</time>
      </trkpt>
      <trkpt lat="44.40897" lon="5.55848">
        <ele>835.5</ele>
        <time>2021-09-07T14:12:18Z</time>
      </trkpt>
      <trkpt lat="44.40897" lon="5.55847">
        <ele>835.6</ele>
        <time>2021-09-07T14:12:19Z</time>
      </trkpt>
      <trkpt lat="44.40896" lon="5.55846">
        <ele>835.6</ele>
        <time>2021-09-07T14:12:20Z</time>
      </trkpt>
      <trkpt lat="44.40896" lon="5.55846">
        <ele>835.6</ele>
        <time>2021-09-07T14:12:21Z</time>
      </trkpt>
      <trkpt lat="44.40896" lon="5.55846">
        <ele>835.6</ele>
        <time>2021-09-07T14:12:22Z</time>
      </trkpt>
      <trkpt lat="44.40896" lon="5.55845">
        <ele>835.7</ele>
        <time>2021-09-07T14:12:23Z</time>
      </trkpt>
      <trkpt lat="44.40896" lon="5.55845">
        <ele>835.7</ele>
        <time>2021-09-07T14:12:24Z</time>
      </trkpt>
      <trkpt lat="44.40896" lon="5.55845">
        <ele>835.7</ele>
        <time>2021-09-07T14:12:25Z</time>
      </trkpt>
      <trkpt lat="44.40896" lon="5.55845">
        <ele>835.7</ele>
        <time>2021-09-07T14:12:26Z</time>
      </trkpt>
      <trkpt lat="44.40895" lon="5.55845">
        <ele>835.7</ele>
        <time>2021-09-07T14:12:27Z</time>
      </trkpt>
      <trkpt lat="44.40895" lon="5.55845">
        <ele>835.7</ele>
        <time>2021-09-07T14:12:28Z</time>
      </trkpt>
      <trkpt lat="44.40895" lon="5.55844">
        <ele>835.7</ele>
        <time>2021-09-07T14:12:29Z</time>
      </trkpt>
      <trkpt lat="44.40893" lon="5.55841">
        <ele>835.9</ele>
        <time>2021-09-07T14:12:30Z</time>
      </trkpt>
      <trkpt lat="44.40893" lon="5.5584">
        <ele>836</ele>
        <time>2021-09-07T14:12:31Z</time>
      </trkpt>
      <trkpt lat="44.40892" lon="5.55839">
        <ele>836</ele>
        <time>2021-09-07T14:12:32Z</time>
      </trkpt>
      <trkpt lat="44.40891" lon="5.55837">
        <ele>836.1</ele>
        <time>2021-09-07T14:12:33Z</time>
      </trkpt>
      <trkpt lat="44.4089" lon="5.55835">
        <ele>836.2</ele>
        <time>2021-09-07T14:12:34Z</time>
      </trkpt>
      <trkpt lat="44.4089" lon="5.55834">
        <ele>836.2</ele>
        <time>2021-09-07T14:12:35Z</time>
      </trkpt>
      <trkpt lat="44.4089" lon="5.55834">
        <ele>836.3</ele>
        <time>2021-09-07T14:12:36Z</time>
      </trkpt>
      <trkpt lat="44.40889" lon="5.55833">
        <ele>836.3</ele>
        <time>2021-09-07T14:12:37Z</time>
      </trkpt>
      <trkpt lat="44.40889" lon="5.55832">
        <ele>836.3</ele>
        <time>2021-09-07T14:12:38Z</time>
      </trkpt>
      <trkpt lat="44.40889" lon="5.55831">
        <ele>836.4</ele>
        <time>2021-09-07T14:12:39Z</time>
      </trkpt>
      <trkpt lat="44.40888" lon="5.5583">
        <ele>836.4</ele>
        <time>2021-09-07T14:12:40Z</time>
      </trkpt>
      <trkpt lat="44.40888" lon="5.55827">
        <ele>836.5</ele>
        <time>2021-09-07T14:12:41Z</time>
      </trkpt>
      <trkpt lat="44.40887" lon="5.55822">
        <ele>836.7</ele>
        <time>2021-09-07T14:12:42Z</time>
      </trkpt>
      <trkpt lat="44.40887" lon="5.55819">
        <ele>836.8</ele>
        <time>2021-09-07T14:12:43Z</time>
      </trkpt>
      <trkpt lat="44.40887" lon="5.55818">
        <ele>836.9</ele>
        <time>2021-09-07T14:12:44Z</time>
      </trkpt>
      <trkpt lat="44.40886" lon="5.55816">
        <ele>837</ele>
        <time>2021-09-07T14:12:45Z</time>
      </trkpt>
      <trkpt lat="44.40885" lon="5.55812">
        <ele>837.2</ele>
        <time>2021-09-07T14:12:46Z</time>
      </trkpt>
      <trkpt lat="44.40884" lon="5.55808">
        <ele>837.4</ele>
        <time>2021-09-07T14:12:47Z</time>
      </trkpt>
      <trkpt lat="44.40883" lon="5.55804">
        <ele>837.6</ele>
        <time>2021-09-07T14:12:48Z</time>
      </trkpt>
      <trkpt lat="44.40881" lon="5.55801">
        <ele>837.7</ele>
        <time>2021-09-07T14:12:49Z</time>
      </trkpt>
      <trkpt lat="44.4088" lon="5.55799">
        <ele>837.9</ele>
        <time>2021-09-07T14:12:50Z</time>
      </trkpt>
      <trkpt lat="44.40879" lon="5.55797">
        <ele>838</ele>
        <time>2021-09-07T14:12:51Z</time>
      </trkpt>
      <trkpt lat="44.40879" lon="5.55797">
        <ele>838</ele>
        <time>2021-09-07T14:12:52Z</time>
      </trkpt>
      <trkpt lat="44.40878" lon="5.55796">
        <ele>838</ele>
        <time>2021-09-07T14:12:53Z</time>
      </trkpt>
      <trkpt lat="44.40877" lon="5.55795">
        <ele>838.1</ele>
        <time>2021-09-07T14:12:54Z</time>
      </trkpt>
      <trkpt lat="44.40876" lon="5.55794">
        <ele>838.2</ele>
        <time>2021-09-07T14:12:55Z</time>
      </trkpt>
      <trkpt lat="44.40875" lon="5.55792">
        <ele>838.2</ele>
        <time>2021-09-07T14:12:56Z</time>
      </trkpt>
      <trkpt lat="44.40874" lon="5.5579">
        <ele>838.3</ele>
        <time>2021-09-07T14:12:57Z</time>
      </trkpt>
      <trkpt lat="44.40872" lon="5.55786">
        <ele>838.5</ele>
        <time>2021-09-07T14:12:58Z</time>
      </trkpt>
      <trkpt lat="44.4087" lon="5.55784">
        <ele>838.7</ele>
        <time>2021-09-07T14:12:59Z</time>
      </trkpt>
      <trkpt lat="44.40869" lon="5.55782">
        <ele>838.8</ele>
        <time>2021-09-07T14:13:00Z</time>
      </trkpt>
      <trkpt lat="44.40868" lon="5.55781">
        <ele>838.9</ele>
        <time>2021-09-07T14:13:01Z</time>
      </trkpt>
      <trkpt lat="44.40866" lon="5.5578">
        <ele>839</ele>
        <time>2021-09-07T14:13:02Z</time>
      </trkpt>
      <trkpt lat="44.40866" lon="5.55779">
        <ele>839</ele>
        <time>2021-09-07T14:13:03Z</time>
      </trkpt>
      <trkpt lat="44.40865" lon="5.55778">
        <ele>839.1</ele>
        <time>2021-09-07T14:13:04Z</time>
      </trkpt>
      <trkpt lat="44.40864" lon="5.55777">
        <ele>839.2</ele>
        <time>2021-09-07T14:13:05Z</time>
      </trkpt>
      <trkpt lat="44.40864" lon="5.55776">
        <ele>839.2</ele>
        <time>2021-09-07T14:13:06Z</time>
      </trkpt>
      <trkpt lat="44.40864" lon="5.55776">
        <ele>839.2</ele>
        <time>2021-09-07T14:13:07Z</time>
      </trkpt>
      <trkpt lat="44.40864" lon="5.55776">
        <ele>839.2</ele>
        <time>2021-09-07T14:13:08Z</time>
      </trkpt>
      <trkpt lat="44.40863" lon="5.55776">
        <ele>839.3</ele>
        <time>2021-09-07T14:13:09Z</time>
      </trkpt>
      <trkpt lat="44.40863" lon="5.55776">
        <ele>839.3</ele>
        <time>2021-09-07T14:13:10Z</time>
      </trkpt>
      <trkpt lat="44.40863" lon="5.55776">
        <ele>839.3</ele>
        <time>2021-09-07T14:13:11Z</time>
      </trkpt>
      <trkpt lat="44.40863" lon="5.55776">
        <ele>839.3</ele>
        <time>2021-09-07T14:13:12Z</time>
      </trkpt>
      <trkpt lat="44.40863" lon="5.55776">
        <ele>839.3</ele>
        <time>2021-09-07T14:13:13Z</time>
      </trkpt>
      <trkpt lat="44.40863" lon="5.55776">
        <ele>839.3</ele>
        <time>2021-09-07T14:13:14Z</time>
      </trkpt>
      <trkpt lat="44.40863" lon="5.55776">
        <ele>839.3</ele>
        <time>2021-09-07T14:13:15Z</time>
      </trkpt>
      <trkpt lat="44.40863" lon="5.55776">
        <ele>839.3</ele>
        <time>2021-09-07T14:13:16Z</time>
      </trkpt>
      <trkpt lat="44.40863" lon="5.55776">
        <ele>839.3</ele>
        <time>2021-09-07T14:13:17Z</time>
      </trkpt>
      <trkpt lat="44.40861" lon="5.55774">
        <ele>839.4</ele>
        <time>2021-09-07T14:13:18Z</time>
      </trkpt>
      <trkpt lat="44.40859" lon="5.55773">
        <ele>839.6</ele>
        <time>2021-09-07T14:13:19Z</time>
      </trkpt>
      <trkpt lat="44.40857" lon="5.55772">
        <ele>839.7</ele>
        <time>2021-09-07T14:13:20Z</time>
      </trkpt>
      <trkpt lat="44.40856" lon="5.55772">
        <ele>839.8</ele>
        <time>2021-09-07T14:13:21Z</time>
      </trkpt>
      <trkpt lat="44.40855" lon="5.55772">
        <ele>839.8</ele>
        <time>2021-09-07T14:13:22Z</time>
      </trkpt>
      <trkpt lat="44.40854" lon="5.55771">
        <ele>839.9</ele>
        <time>2021-09-07T14:13:23Z</time>
      </trkpt>
      <trkpt lat="44.40853" lon="5.55771">
        <ele>840</ele>
        <time>2021-09-07T14:13:24Z</time>
      </trkpt>
      <trkpt lat="44.40853" lon="5.5577">
        <ele>840</ele>
        <time>2021-09-07T14:13:25Z</time>
      </trkpt>
      <trkpt lat="44.40853" lon="5.5577">
        <ele>840</ele>
        <time>2021-09-07T14:13:26Z</time>
      </trkpt>
      <trkpt lat="44.40853" lon="5.5577">
        <ele>840</ele>
        <time>2021-09-07T14:13:27Z</time>
      </trkpt>
      <trkpt lat="44.40853" lon="5.5577">
        <ele>840</ele>
        <time>2021-09-07T14:13:28Z</time>
      </trkpt>
      <trkpt lat="44.40852" lon="5.5577">
        <ele>840.1</ele>
        <time>2021-09-07T14:13:29Z</time>
      </trkpt>
      <trkpt lat="44.40852" lon="5.5577">
        <ele>840.1</ele>
        <time>2021-09-07T14:13:30Z</time>
      </trkpt>
      <trkpt lat="44.40851" lon="5.55769">
        <ele>840.2</ele>
        <time>2021-09-07T14:13:31Z</time>
      </trkpt>
      <trkpt lat="44.4085" lon="5.55768">
        <ele>840.2</ele>
        <time>2021-09-07T14:13:32Z</time>
      </trkpt>
      <trkpt lat="44.40848" lon="5.55767">
        <ele>840.4</ele>
        <time>2021-09-07T14:13:33Z</time>
      </trkpt>
      <trkpt lat="44.40847" lon="5.55766">
        <ele>840.4</ele>
        <time>2021-09-07T14:13:34Z</time>
      </trkpt>
      <trkpt lat="44.40846" lon="5.55765">
        <ele>840.5</ele>
        <time>2021-09-07T14:13:35Z</time>
      </trkpt>
      <trkpt lat="44.40845" lon="5.55764">
        <ele>840.6</ele>
        <time>2021-09-07T14:13:36Z</time>
      </trkpt>
      <trkpt lat="44.40844" lon="5.55763">
        <ele>840.7</ele>
        <time>2021-09-07T14:13:37Z</time>
      </trkpt>
      <trkpt lat="44.40843" lon="5.55762">
        <ele>840.7</ele>
        <time>2021-09-07T14:13:38Z</time>
      </trkpt>
      <trkpt lat="44.40843" lon="5.55762">
        <ele>840.7</ele>
        <time>2021-09-07T14:13:39Z</time>
      </trkpt>
      <trkpt lat="44.40843" lon="5.55762">
        <ele>840.7</ele>
        <time>2021-09-07T14:13:40Z</time>
      </trkpt>
      <trkpt lat="44.40842" lon="5.55761">
        <ele>840.9</ele>
        <time>2021-09-07T14:13:41Z</time>
      </trkpt>
      <trkpt lat="44.4084" lon="5.55759">
        <ele>841</ele>
        <time>2021-09-07T14:13:42Z</time>
      </trkpt>
      <trkpt lat="44.40837" lon="5.55756">
        <ele>841.2</ele>
        <time>2021-09-07T14:13:43Z</time>
      </trkpt>
      <trkpt lat="44.40836" lon="5.55755">
        <ele>841.3</ele>
        <time>2021-09-07T14:13:44Z</time>
      </trkpt>
      <trkpt lat="44.40835" lon="5.55754">
        <ele>841.4</ele>
        <time>2021-09-07T14:13:45Z</time>
      </trkpt>
      <trkpt lat="44.40834" lon="5.55753">
        <ele>841.5</ele>
        <time>2021-09-07T14:13:46Z</time>
      </trkpt>
      <trkpt lat="44.40833" lon="5.55751">
        <ele>841.6</ele>
        <time>2021-09-07T14:13:47Z</time>
      </trkpt>
      <trkpt lat="44.40831" lon="5.5575">
        <ele>841.7</ele>
        <time>2021-09-07T14:13:48Z</time>
      </trkpt>
      <trkpt lat="44.4083" lon="5.5575">
        <ele>841.8</ele>
        <time>2021-09-07T14:13:49Z</time>
      </trkpt>
      <trkpt lat="44.40829" lon="5.55749">
        <ele>841.9</ele>
        <time>2021-09-07T14:13:50Z</time>
      </trkpt>
      <trkpt lat="44.40828" lon="5.55748">
        <ele>842</ele>
        <time>2021-09-07T14:13:51Z</time>
      </trkpt>
      <trkpt lat="44.40827" lon="5.55749">
        <ele>842.1</ele>
        <time>2021-09-07T14:13:52Z</time>
      </trkpt>
      <trkpt lat="44.40827" lon="5.55749">
        <ele>842.1</ele>
        <time>2021-09-07T14:13:53Z</time>
      </trkpt>
      <trkpt lat="44.40827" lon="5.55749">
        <ele>842.1</ele>
        <time>2021-09-07T14:13:54Z</time>
      </trkpt>
      <trkpt lat="44.40826" lon="5.55749">
        <ele>842.1</ele>
        <time>2021-09-07T14:13:55Z</time>
      </trkpt>
      <trkpt lat="44.40826" lon="5.55748">
        <ele>842.2</ele>
        <time>2021-09-07T14:13:56Z</time>
      </trkpt>
      <trkpt lat="44.40826" lon="5.55749">
        <ele>842.2</ele>
        <time>2021-09-07T14:13:57Z</time>
      </trkpt>
      <trkpt lat="44.40825" lon="5.55748">
        <ele>842.4</ele>
        <time>2021-09-07T14:13:58Z</time>
      </trkpt>
      <trkpt lat="44.40823" lon="5.55747">
        <ele>842.5</ele>
        <time>2021-09-07T14:13:59Z</time>
      </trkpt>
      <trkpt lat="44.40821" lon="5.55746">
        <ele>842.7</ele>
        <time>2021-09-07T14:14:00Z</time>
      </trkpt>
      <trkpt lat="44.40819" lon="5.55745">
        <ele>842.8</ele>
        <time>2021-09-07T14:14:01Z</time>
      </trkpt>
      <trkpt lat="44.40817" lon="5.55743">
        <ele>843</ele>
        <time>2021-09-07T14:14:02Z</time>
      </trkpt>
      <trkpt lat="44.40816" lon="5.55741">
        <ele>843.1</ele>
        <time>2021-09-07T14:14:03Z</time>
      </trkpt>
      <trkpt lat="44.40816" lon="5.5574">
        <ele>843.2</ele>
        <time>2021-09-07T14:14:04Z</time>
      </trkpt>
      <trkpt lat="44.40815" lon="5.55739">
        <ele>843.2</ele>
        <time>2021-09-07T14:14:05Z</time>
      </trkpt>
      <trkpt lat="44.40813" lon="5.55737">
        <ele>843.4</ele>
        <time>2021-09-07T14:14:06Z</time>
      </trkpt>
      <trkpt lat="44.40813" lon="5.55736">
        <ele>843.5</ele>
        <time>2021-09-07T14:14:07Z</time>
      </trkpt>
      <trkpt lat="44.40812" lon="5.55734">
        <ele>843.6</ele>
        <time>2021-09-07T14:14:08Z</time>
      </trkpt>
      <trkpt lat="44.4081" lon="5.55731">
        <ele>843.8</ele>
        <time>2021-09-07T14:14:09Z</time>
      </trkpt>
      <trkpt lat="44.40809" lon="5.55729">
        <ele>843.9</ele>
        <time>2021-09-07T14:14:10Z</time>
      </trkpt>
      <trkpt lat="44.40808" lon="5.55727">
        <ele>844.1</ele>
        <time>2021-09-07T14:14:11Z</time>
      </trkpt>
      <trkpt lat="44.40806" lon="5.55725">
        <ele>844.2</ele>
        <time>2021-09-07T14:14:12Z</time>
      </trkpt>
      <trkpt lat="44.40805" lon="5.55723">
        <ele>844.4</ele>
        <time>2021-09-07T14:14:13Z</time>
      </trkpt>
      <trkpt lat="44.40804" lon="5.55722">
        <ele>844.5</ele>
        <time>2021-09-07T14:14:14Z</time>
      </trkpt>
      <trkpt lat="44.40802" lon="5.5572">
        <ele>844.6</ele>
        <time>2021-09-07T14:14:15Z</time>
      </trkpt>
      <trkpt lat="44.40802" lon="5.5572">
        <ele>844.6</ele>
        <time>2021-09-07T14:14:16Z</time>
      </trkpt>
      <trkpt lat="44.40802" lon="5.5572">
        <ele>844.6</ele>
        <time>2021-09-07T14:14:17Z</time>
      </trkpt>
      <trkpt lat="44.40801" lon="5.55719">
        <ele>844.7</ele>
        <time>2021-09-07T14:14:18Z</time>
      </trkpt>
      <trkpt lat="44.408" lon="5.55717">
        <ele>844.9</ele>
        <time>2021-09-07T14:14:19Z</time>
      </trkpt>
      <trkpt lat="44.40799" lon="5.55716">
        <ele>845</ele>
        <time>2021-09-07T14:14:20Z</time>
      </trkpt>
      <trkpt lat="44.40798" lon="5.55714">
        <ele>845.1</ele>
        <time>2021-09-07T14:14:21Z</time>
      </trkpt>
      <trkpt lat="44.40796" lon="5.55712">
        <ele>845.3</ele>
        <time>2021-09-07T14:14:22Z</time>
      </trkpt>
      <trkpt lat="44.40795" lon="5.5571">
        <ele>845.4</ele>
        <time>2021-09-07T14:14:23Z</time>
      </trkpt>
      <trkpt lat="44.40795" lon="5.5571">
        <ele>845.5</ele>
        <time>2021-09-07T14:14:24Z</time>
      </trkpt>
      <trkpt lat="44.40794" lon="5.55709">
        <ele>845.6</ele>
        <time>2021-09-07T14:14:25Z</time>
      </trkpt>
      <trkpt lat="44.40793" lon="5.55707">
        <ele>845.7</ele>
        <time>2021-09-07T14:14:26Z</time>
      </trkpt>
      <trkpt lat="44.40793" lon="5.55706">
        <ele>845.8</ele>
        <time>2021-09-07T14:14:27Z</time>
      </trkpt>
      <trkpt lat="44.40793" lon="5.55705">
        <ele>845.8</ele>
        <time>2021-09-07T14:14:28Z</time>
      </trkpt>
      <trkpt lat="44.40793" lon="5.55704">
        <ele>845.9</ele>
        <time>2021-09-07T14:14:29Z</time>
      </trkpt>
      <trkpt lat="44.40793" lon="5.55704">
        <ele>845.9</ele>
        <time>2021-09-07T14:14:30Z</time>
      </trkpt>
      <trkpt lat="44.40793" lon="5.55703">
        <ele>845.9</ele>
        <time>2021-09-07T14:14:31Z</time>
      </trkpt>
      <trkpt lat="44.40793" lon="5.55703">
        <ele>845.9</ele>
        <time>2021-09-07T14:14:32Z</time>
      </trkpt>
      <trkpt lat="44.40793" lon="5.55703">
        <ele>845.9</ele>
        <time>2021-09-07T14:14:33Z</time>
      </trkpt>
      <trkpt lat="44.40792" lon="5.55703">
        <ele>846</ele>
        <time>2021-09-07T14:14:34Z</time>
      </trkpt>
      <trkpt lat="44.40792" lon="5.55703">
        <ele>846</ele>
        <time>2021-09-07T14:14:35Z</time>
      </trkpt>
      <trkpt lat="44.40792" lon="5.55703">
        <ele>846</ele>
        <time>2021-09-07T14:14:36Z</time>
      </trkpt>
      <trkpt lat="44.40792" lon="5.55703">
        <ele>846</ele>
        <time>2021-09-07T14:14:37Z</time>
      </trkpt>
      <trkpt lat="44.40792" lon="5.55703">
        <ele>846</ele>
        <time>2021-09-07T14:14:38Z</time>
      </trkpt>
      <trkpt lat="44.40793" lon="5.55704">
        <ele>846.1</ele>
        <time>2021-09-07T14:14:39Z</time>
      </trkpt>
      <trkpt lat="44.40793" lon="5.55704">
        <ele>846.1</ele>
        <time>2021-09-07T14:14:40Z</time>
      </trkpt>
      <trkpt lat="44.40792" lon="5.55704">
        <ele>846.2</ele>
        <time>2021-09-07T14:14:41Z</time>
      </trkpt>
      <trkpt lat="44.40791" lon="5.55703">
        <ele>846.3</ele>
        <time>2021-09-07T14:14:42Z</time>
      </trkpt>
      <trkpt lat="44.40789" lon="5.55703">
        <ele>846.5</ele>
        <time>2021-09-07T14:14:43Z</time>
      </trkpt>
      <trkpt lat="44.40787" lon="5.55703">
        <ele>846.7</ele>
        <time>2021-09-07T14:14:44Z</time>
      </trkpt>
      <trkpt lat="44.40786" lon="5.55703">
        <ele>846.7</ele>
        <time>2021-09-07T14:14:45Z</time>
      </trkpt>
      <trkpt lat="44.40785" lon="5.55702">
        <ele>846.8</ele>
        <time>2021-09-07T14:14:46Z</time>
      </trkpt>
      <trkpt lat="44.40784" lon="5.55702">
        <ele>846.9</ele>
        <time>2021-09-07T14:14:47Z</time>
      </trkpt>
      <trkpt lat="44.40783" lon="5.55702">
        <ele>847</ele>
        <time>2021-09-07T14:14:48Z</time>
      </trkpt>
      <trkpt lat="44.40782" lon="5.55702">
        <ele>847.1</ele>
        <time>2021-09-07T14:14:49Z</time>
      </trkpt>
      <trkpt lat="44.40782" lon="5.55702">
        <ele>847.1</ele>
        <time>2021-09-07T14:14:50Z</time>
      </trkpt>
      <trkpt lat="44.40781" lon="5.55702">
        <ele>847.2</ele>
        <time>2021-09-07T14:14:51Z</time>
      </trkpt>
      <trkpt lat="44.40781" lon="5.55702">
        <ele>847.2</ele>
        <time>2021-09-07T14:14:52Z</time>
      </trkpt>
      <trkpt lat="44.40781" lon="5.55702">
        <ele>847.2</ele>
        <time>2021-09-07T14:14:53Z</time>
      </trkpt>
      <trkpt lat="44.4078" lon="5.55702">
        <ele>847.2</ele>
        <time>2021-09-07T14:14:54Z</time>
      </trkpt>
      <trkpt lat="44.40779" lon="5.55702">
        <ele>847.3</ele>
        <time>2021-09-07T14:14:55Z</time>
      </trkpt>
      <trkpt lat="44.40779" lon="5.55702">
        <ele>847.3</ele>
        <time>2021-09-07T14:14:56Z</time>
      </trkpt>
      <trkpt lat="44.40779" lon="5.55702">
        <ele>847.3</ele>
        <time>2021-09-07T14:14:57Z</time>
      </trkpt>
      <trkpt lat="44.40778" lon="5.55702">
        <ele>847.4</ele>
        <time>2021-09-07T14:14:58Z</time>
      </trkpt>
      <trkpt lat="44.40778" lon="5.55702">
        <ele>847.4</ele>
        <time>2021-09-07T14:14:59Z</time>
      </trkpt>
      <trkpt lat="44.40778" lon="5.55702">
        <ele>847.4</ele>
        <time>2021-09-07T14:15:00Z</time>
      </trkpt>
      <trkpt lat="44.40778" lon="5.55703">
        <ele>847.4</ele>
        <time>2021-09-07T14:15:01Z</time>
      </trkpt>
      <trkpt lat="44.40777" lon="5.55703">
        <ele>847.5</ele>
        <time>2021-09-07T14:15:02Z</time>
      </trkpt>
      <trkpt lat="44.40777" lon="5.55703">
        <ele>847.5</ele>
        <time>2021-09-07T14:15:03Z</time>
      </trkpt>
      <trkpt lat="44.40777" lon="5.55703">
        <ele>847.5</ele>
        <time>2021-09-07T14:15:04Z</time>
      </trkpt>
      <trkpt lat="44.40777" lon="5.55703">
        <ele>847.5</ele>
        <time>2021-09-07T14:15:05Z</time>
      </trkpt>
      <trkpt lat="44.40777" lon="5.55703">
        <ele>847.5</ele>
        <time>2021-09-07T14:15:06Z</time>
      </trkpt>
      <trkpt lat="44.40777" lon="5.55703">
        <ele>847.5</ele>
        <time>2021-09-07T14:15:07Z</time>
      </trkpt>
      <trkpt lat="44.40777" lon="5.55703">
        <ele>847.5</ele>
        <time>2021-09-07T14:15:08Z</time>
      </trkpt>
      <trkpt lat="44.40777" lon="5.55703">
        <ele>847.5</ele>
        <time>2021-09-07T14:15:09Z</time>
      </trkpt>
      <trkpt lat="44.40777" lon="5.55703">
        <ele>847.5</ele>
        <time>2021-09-07T14:15:10Z</time>
      </trkpt>
      <trkpt lat="44.40777" lon="5.55703">
        <ele>847.5</ele>
        <time>2021-09-07T14:15:11Z</time>
      </trkpt>
      <trkpt lat="44.40777" lon="5.55703">
        <ele>847.5</ele>
        <time>2021-09-07T14:15:12Z</time>
      </trkpt>
      <trkpt lat="44.40777" lon="5.55703">
        <ele>847.5</ele>
        <time>2021-09-07T14:15:13Z</time>
      </trkpt>
      <trkpt lat="44.40777" lon="5.55703">
        <ele>847.5</ele>
        <time>2021-09-07T14:15:14Z</time>
      </trkpt>
      <trkpt lat="44.40777" lon="5.55702">
        <ele>847.5</ele>
        <time>2021-09-07T14:15:15Z</time>
      </trkpt>
      <trkpt lat="44.40776" lon="5.55702">
        <ele>847.6</ele>
        <time>2021-09-07T14:15:16Z</time>
      </trkpt>
      <trkpt lat="44.40776" lon="5.55702">
        <ele>847.6</ele>
        <time>2021-09-07T14:15:17Z</time>
      </trkpt>
      <trkpt lat="44.40776" lon="5.55702">
        <ele>847.6</ele>
        <time>2021-09-07T14:15:18Z</time>
      </trkpt>
      <trkpt lat="44.40777" lon="5.55702">
        <ele>847.7</ele>
        <time>2021-09-07T14:15:19Z</time>
      </trkpt>
      <trkpt lat="44.40777" lon="5.55702">
        <ele>847.7</ele>
        <time>2021-09-07T14:15:20Z</time>
      </trkpt>
      <trkpt lat="44.40777" lon="5.55702">
        <ele>847.7</ele>
        <time>2021-09-07T14:15:21Z</time>
      </trkpt>
      <trkpt lat="44.40777" lon="5.55702">
        <ele>847.7</ele>
        <time>2021-09-07T14:15:22Z</time>
      </trkpt>
      <trkpt lat="44.40777" lon="5.55702">
        <ele>847.7</ele>
        <time>2021-09-07T14:15:23Z</time>
      </trkpt>
      <trkpt lat="44.40777" lon="5.55702">
        <ele>847.7</ele>
        <time>2021-09-07T14:15:24Z</time>
      </trkpt>
      <trkpt lat="44.40777" lon="5.55702">
        <ele>847.7</ele>
        <time>2021-09-07T14:15:25Z</time>
      </trkpt>
      <trkpt lat="44.40777" lon="5.55702">
        <ele>847.7</ele>
        <time>2021-09-07T14:15:26Z</time>
      </trkpt>
      <trkpt lat="44.40777" lon="5.55702">
        <ele>847.7</ele>
        <time>2021-09-07T14:15:27Z</time>
      </trkpt>
      <trkpt lat="44.40777" lon="5.55703">
        <ele>847.8</ele>
        <time>2021-09-07T14:15:28Z</time>
      </trkpt>
      <trkpt lat="44.40777" lon="5.55703">
        <ele>847.8</ele>
        <time>2021-09-07T14:15:29Z</time>
      </trkpt>
      <trkpt lat="44.40777" lon="5.55703">
        <ele>847.8</ele>
        <time>2021-09-07T14:15:30Z</time>
      </trkpt>
      <trkpt lat="44.40777" lon="5.55703">
        <ele>847.8</ele>
        <time>2021-09-07T14:15:31Z</time>
      </trkpt>
      <trkpt lat="44.40776" lon="5.55703">
        <ele>847.8</ele>
        <time>2021-09-07T14:15:32Z</time>
      </trkpt>
      <trkpt lat="44.40776" lon="5.55703">
        <ele>847.8</ele>
        <time>2021-09-07T14:15:33Z</time>
      </trkpt>
      <trkpt lat="44.40776" lon="5.55703">
        <ele>847.8</ele>
        <time>2021-09-07T14:15:34Z</time>
      </trkpt>
      <trkpt lat="44.40776" lon="5.55703">
        <ele>847.8</ele>
        <time>2021-09-07T14:15:35Z</time>
      </trkpt>
      <trkpt lat="44.40776" lon="5.55703">
        <ele>847.8</ele>
        <time>2021-09-07T14:15:36Z</time>
      </trkpt>
      <trkpt lat="44.40776" lon="5.55704">
        <ele>847.9</ele>
        <time>2021-09-07T14:15:37Z</time>
      </trkpt>
      <trkpt lat="44.40775" lon="5.55704">
        <ele>847.9</ele>
        <time>2021-09-07T14:15:38Z</time>
      </trkpt>
      <trkpt lat="44.40774" lon="5.55706">
        <ele>848.1</ele>
        <time>2021-09-07T14:15:39Z</time>
      </trkpt>
      <trkpt lat="44.40774" lon="5.55707">
        <ele>848.1</ele>
        <time>2021-09-07T14:15:40Z</time>
      </trkpt>
      <trkpt lat="44.40773" lon="5.55707">
        <ele>848.2</ele>
        <time>2021-09-07T14:15:41Z</time>
      </trkpt>
      <trkpt lat="44.40772" lon="5.55708">
        <ele>848.3</ele>
        <time>2021-09-07T14:15:42Z</time>
      </trkpt>
      <trkpt lat="44.40771" lon="5.55709">
        <ele>848.4</ele>
        <time>2021-09-07T14:15:43Z</time>
      </trkpt>
      <trkpt lat="44.4077" lon="5.5571">
        <ele>848.5</ele>
        <time>2021-09-07T14:15:44Z</time>
      </trkpt>
      <trkpt lat="44.40769" lon="5.5571">
        <ele>848.6</ele>
        <time>2021-09-07T14:15:45Z</time>
      </trkpt>
      <trkpt lat="44.40769" lon="5.55711">
        <ele>848.7</ele>
        <time>2021-09-07T14:15:46Z</time>
      </trkpt>
      <trkpt lat="44.40768" lon="5.55711">
        <ele>848.7</ele>
        <time>2021-09-07T14:15:47Z</time>
      </trkpt>
      <trkpt lat="44.40768" lon="5.55711">
        <ele>848.7</ele>
        <time>2021-09-07T14:15:48Z</time>
      </trkpt>
      <trkpt lat="44.40768" lon="5.55711">
        <ele>848.7</ele>
        <time>2021-09-07T14:15:49Z</time>
      </trkpt>
      <trkpt lat="44.40768" lon="5.55711">
        <ele>848.8</ele>
        <time>2021-09-07T14:15:50Z</time>
      </trkpt>
      <trkpt lat="44.40767" lon="5.55711">
        <ele>848.8</ele>
        <time>2021-09-07T14:15:51Z</time>
      </trkpt>
      <trkpt lat="44.40767" lon="5.55711">
        <ele>848.8</ele>
        <time>2021-09-07T14:15:52Z</time>
      </trkpt>
      <trkpt lat="44.40765" lon="5.55714">
        <ele>849.1</ele>
        <time>2021-09-07T14:15:53Z</time>
      </trkpt>
      <trkpt lat="44.40764" lon="5.55716">
        <ele>849.3</ele>
        <time>2021-09-07T14:15:54Z</time>
      </trkpt>
      <trkpt lat="44.40764" lon="5.55717">
        <ele>849.4</ele>
        <time>2021-09-07T14:15:55Z</time>
      </trkpt>
      <trkpt lat="44.40763" lon="5.55717">
        <ele>849.4</ele>
        <time>2021-09-07T14:15:56Z</time>
      </trkpt>
      <trkpt lat="44.40762" lon="5.55718">
        <ele>849.6</ele>
        <time>2021-09-07T14:15:57Z</time>
      </trkpt>
      <trkpt lat="44.40761" lon="5.55719">
        <ele>849.7</ele>
        <time>2021-09-07T14:15:58Z</time>
      </trkpt>
      <trkpt lat="44.40761" lon="5.5572">
        <ele>849.8</ele>
        <time>2021-09-07T14:15:59Z</time>
      </trkpt>
      <trkpt lat="44.4076" lon="5.5572">
        <ele>849.8</ele>
        <time>2021-09-07T14:16:00Z</time>
      </trkpt>
      <trkpt lat="44.40759" lon="5.55721">
        <ele>850</ele>
        <time>2021-09-07T14:16:01Z</time>
      </trkpt>
      <trkpt lat="44.40759" lon="5.55722">
        <ele>850.1</ele>
        <time>2021-09-07T14:16:02Z</time>
      </trkpt>
      <trkpt lat="44.40759" lon="5.55722">
        <ele>850.1</ele>
        <time>2021-09-07T14:16:03Z</time>
      </trkpt>
      <trkpt lat="44.40759" lon="5.55722">
        <ele>850.1</ele>
        <time>2021-09-07T14:16:04Z</time>
      </trkpt>
      <trkpt lat="44.40759" lon="5.55722">
        <ele>850.1</ele>
        <time>2021-09-07T14:16:05Z</time>
      </trkpt>
      <trkpt lat="44.40759" lon="5.55722">
        <ele>850.1</ele>
        <time>2021-09-07T14:16:06Z</time>
      </trkpt>
      <trkpt lat="44.40759" lon="5.55722">
        <ele>850.1</ele>
        <time>2021-09-07T14:16:07Z</time>
      </trkpt>
      <trkpt lat="44.40759" lon="5.55722">
        <ele>850.1</ele>
        <time>2021-09-07T14:16:08Z</time>
      </trkpt>
      <trkpt lat="44.40759" lon="5.55722">
        <ele>850.1</ele>
        <time>2021-09-07T14:16:09Z</time>
      </trkpt>
      <trkpt lat="44.40759" lon="5.55722">
        <ele>850.1</ele>
        <time>2021-09-07T14:16:10Z</time>
      </trkpt>
      <trkpt lat="44.40759" lon="5.55722">
        <ele>850.1</ele>
        <time>2021-09-07T14:16:11Z</time>
      </trkpt>
      <trkpt lat="44.40759" lon="5.55722">
        <ele>850.1</ele>
        <time>2021-09-07T14:16:12Z</time>
      </trkpt>
      <trkpt lat="44.40759" lon="5.55722">
        <ele>850.1</ele>
        <time>2021-09-07T14:16:13Z</time>
      </trkpt>
      <trkpt lat="44.40759" lon="5.55722">
        <ele>850.1</ele>
        <time>2021-09-07T14:16:14Z</time>
      </trkpt>
      <trkpt lat="44.40759" lon="5.55722">
        <ele>850.1</ele>
        <time>2021-09-07T14:16:15Z</time>
      </trkpt>
      <trkpt lat="44.40759" lon="5.55722">
        <ele>850.1</ele>
        <time>2021-09-07T14:16:16Z</time>
      </trkpt>
      <trkpt lat="44.40759" lon="5.55723">
        <ele>850.1</ele>
        <time>2021-09-07T14:16:17Z</time>
      </trkpt>
      <trkpt lat="44.40758" lon="5.55723">
        <ele>850.2</ele>
        <time>2021-09-07T14:16:18Z</time>
      </trkpt>
      <trkpt lat="44.40758" lon="5.55723">
        <ele>850.2</ele>
        <time>2021-09-07T14:16:19Z</time>
      </trkpt>
      <trkpt lat="44.40758" lon="5.55723">
        <ele>850.2</ele>
        <time>2021-09-07T14:16:20Z</time>
      </trkpt>
      <trkpt lat="44.40758" lon="5.55723">
        <ele>850.2</ele>
        <time>2021-09-07T14:16:21Z</time>
      </trkpt>
      <trkpt lat="44.40758" lon="5.55723">
        <ele>850.2</ele>
        <time>2021-09-07T14:16:22Z</time>
      </trkpt>
      <trkpt lat="44.40758" lon="5.55723">
        <ele>850.2</ele>
        <time>2021-09-07T14:16:23Z</time>
      </trkpt>
      <trkpt lat="44.40758" lon="5.55723">
        <ele>850.2</ele>
        <time>2021-09-07T14:16:24Z</time>
      </trkpt>
      <trkpt lat="44.40758" lon="5.55723">
        <ele>850.2</ele>
        <time>2021-09-07T14:16:25Z</time>
      </trkpt>
      <trkpt lat="44.40758" lon="5.55723">
        <ele>850.2</ele>
        <time>2021-09-07T14:16:26Z</time>
      </trkpt>
      <trkpt lat="44.40758" lon="5.55723">
        <ele>850.2</ele>
        <time>2021-09-07T14:16:27Z</time>
      </trkpt>
      <trkpt lat="44.40757" lon="5.55725">
        <ele>850.4</ele>
        <time>2021-09-07T14:16:28Z</time>
      </trkpt>
      <trkpt lat="44.40756" lon="5.55726">
        <ele>850.5</ele>
        <time>2021-09-07T14:16:29Z</time>
      </trkpt>
      <trkpt lat="44.40755" lon="5.55727">
        <ele>850.7</ele>
        <time>2021-09-07T14:16:30Z</time>
      </trkpt>
      <trkpt lat="44.40754" lon="5.55728">
        <ele>850.8</ele>
        <time>2021-09-07T14:16:31Z</time>
      </trkpt>
      <trkpt lat="44.40752" lon="5.5573">
        <ele>851.1</ele>
        <time>2021-09-07T14:16:32Z</time>
      </trkpt>
      <trkpt lat="44.40751" lon="5.55731">
        <ele>851.2</ele>
        <time>2021-09-07T14:16:33Z</time>
      </trkpt>
      <trkpt lat="44.40751" lon="5.55732">
        <ele>851.3</ele>
        <time>2021-09-07T14:16:34Z</time>
      </trkpt>
      <trkpt lat="44.4075" lon="5.55732">
        <ele>851.4</ele>
        <time>2021-09-07T14:16:35Z</time>
      </trkpt>
      <trkpt lat="44.40748" lon="5.55734">
        <ele>851.6</ele>
        <time>2021-09-07T14:16:36Z</time>
      </trkpt>
      <trkpt lat="44.40747" lon="5.55735">
        <ele>851.7</ele>
        <time>2021-09-07T14:16:37Z</time>
      </trkpt>
      <trkpt lat="44.40745" lon="5.55736">
        <ele>852</ele>
        <time>2021-09-07T14:16:38Z</time>
      </trkpt>
      <trkpt lat="44.40745" lon="5.55737">
        <ele>852</ele>
        <time>2021-09-07T14:16:39Z</time>
      </trkpt>
      <trkpt lat="44.40744" lon="5.55737">
        <ele>852.7</ele>
        <time>2021-09-07T14:16:40Z</time>
      </trkpt>
      <trkpt lat="44.40743" lon="5.55738">
        <ele>852.7</ele>
        <time>2021-09-07T14:16:41Z</time>
      </trkpt>
      <trkpt lat="44.40742" lon="5.55739">
        <ele>852.7</ele>
        <time>2021-09-07T14:16:42Z</time>
      </trkpt>
      <trkpt lat="44.40741" lon="5.5574">
        <ele>853</ele>
        <time>2021-09-07T14:16:43Z</time>
      </trkpt>
      <trkpt lat="44.4074" lon="5.55741">
        <ele>853.7</ele>
        <time>2021-09-07T14:16:44Z</time>
      </trkpt>
      <trkpt lat="44.40739" lon="5.55742">
        <ele>853.7</ele>
        <time>2021-09-07T14:16:45Z</time>
      </trkpt>
      <trkpt lat="44.40739" lon="5.55742">
        <ele>854</ele>
        <time>2021-09-07T14:16:46Z</time>
      </trkpt>
      <trkpt lat="44.40738" lon="5.55742">
        <ele>854</ele>
        <time>2021-09-07T14:16:47Z</time>
      </trkpt>
      <trkpt lat="44.40736" lon="5.55743">
        <ele>854</ele>
        <time>2021-09-07T14:16:48Z</time>
      </trkpt>
      <trkpt lat="44.40736" lon="5.55743">
        <ele>854</ele>
        <time>2021-09-07T14:16:49Z</time>
      </trkpt>
      <trkpt lat="44.40736" lon="5.55744">
        <ele>854.3</ele>
        <time>2021-09-07T14:16:50Z</time>
      </trkpt>
      <trkpt lat="44.40735" lon="5.55744">
        <ele>854.3</ele>
        <time>2021-09-07T14:16:51Z</time>
      </trkpt>
      <trkpt lat="44.40735" lon="5.55744">
        <ele>854.3</ele>
        <time>2021-09-07T14:16:52Z</time>
      </trkpt>
      <trkpt lat="44.40735" lon="5.55744">
        <ele>854.3</ele>
        <time>2021-09-07T14:16:53Z</time>
      </trkpt>
      <trkpt lat="44.40735" lon="5.55744">
        <ele>854.3</ele>
        <time>2021-09-07T14:16:54Z</time>
      </trkpt>
      <trkpt lat="44.40734" lon="5.55744">
        <ele>854.3</ele>
        <time>2021-09-07T14:16:55Z</time>
      </trkpt>
      <trkpt lat="44.40733" lon="5.55744">
        <ele>854.3</ele>
        <time>2021-09-07T14:16:56Z</time>
      </trkpt>
      <trkpt lat="44.40732" lon="5.55745">
        <ele>854.6</ele>
        <time>2021-09-07T14:16:57Z</time>
      </trkpt>
      <trkpt lat="44.40731" lon="5.55745">
        <ele>854.6</ele>
        <time>2021-09-07T14:16:58Z</time>
      </trkpt>
      <trkpt lat="44.40729" lon="5.55746">
        <ele>855.7</ele>
        <time>2021-09-07T14:16:59Z</time>
      </trkpt>
      <trkpt lat="44.40727" lon="5.55746">
        <ele>855.7</ele>
        <time>2021-09-07T14:17:00Z</time>
      </trkpt>
      <trkpt lat="44.40726" lon="5.55747">
        <ele>856</ele>
        <time>2021-09-07T14:17:01Z</time>
      </trkpt>
      <trkpt lat="44.40726" lon="5.55747">
        <ele>856</ele>
        <time>2021-09-07T14:17:02Z</time>
      </trkpt>
      <trkpt lat="44.40725" lon="5.55747">
        <ele>856</ele>
        <time>2021-09-07T14:17:03Z</time>
      </trkpt>
      <trkpt lat="44.40725" lon="5.55747">
        <ele>856</ele>
        <time>2021-09-07T14:17:04Z</time>
      </trkpt>
      <trkpt lat="44.40724" lon="5.55748">
        <ele>856</ele>
        <time>2021-09-07T14:17:05Z</time>
      </trkpt>
      <trkpt lat="44.40722" lon="5.55749">
        <ele>856.3</ele>
        <time>2021-09-07T14:17:06Z</time>
      </trkpt>
      <trkpt lat="44.40722" lon="5.5575">
        <ele>857.1</ele>
        <time>2021-09-07T14:17:07Z</time>
      </trkpt>
      <trkpt lat="44.40721" lon="5.55751">
        <ele>857.1</ele>
        <time>2021-09-07T14:17:08Z</time>
      </trkpt>
      <trkpt lat="44.4072" lon="5.55753">
        <ele>857.3</ele>
        <time>2021-09-07T14:17:09Z</time>
      </trkpt>
      <trkpt lat="44.40719" lon="5.55754">
        <ele>858.1</ele>
        <time>2021-09-07T14:17:10Z</time>
      </trkpt>
      <trkpt lat="44.40719" lon="5.55755">
        <ele>858.1</ele>
        <time>2021-09-07T14:17:11Z</time>
      </trkpt>
      <trkpt lat="44.40718" lon="5.55755">
        <ele>858.1</ele>
        <time>2021-09-07T14:17:12Z</time>
      </trkpt>
      <trkpt lat="44.40718" lon="5.55756">
        <ele>858.1</ele>
        <time>2021-09-07T14:17:13Z</time>
      </trkpt>
      <trkpt lat="44.40717" lon="5.55756">
        <ele>858.3</ele>
        <time>2021-09-07T14:17:14Z</time>
      </trkpt>
      <trkpt lat="44.40717" lon="5.55757">
        <ele>858.4</ele>
        <time>2021-09-07T14:17:15Z</time>
      </trkpt>
      <trkpt lat="44.40717" lon="5.55757">
        <ele>858.4</ele>
        <time>2021-09-07T14:17:16Z</time>
      </trkpt>
      <trkpt lat="44.40717" lon="5.55757">
        <ele>858.4</ele>
        <time>2021-09-07T14:17:17Z</time>
      </trkpt>
      <trkpt lat="44.40717" lon="5.55758">
        <ele>859.1</ele>
        <time>2021-09-07T14:17:18Z</time>
      </trkpt>
      <trkpt lat="44.40717" lon="5.55758">
        <ele>859.1</ele>
        <time>2021-09-07T14:17:19Z</time>
      </trkpt>
      <trkpt lat="44.40717" lon="5.55758">
        <ele>859.1</ele>
        <time>2021-09-07T14:17:20Z</time>
      </trkpt>
      <trkpt lat="44.40717" lon="5.55758">
        <ele>859.1</ele>
        <time>2021-09-07T14:17:21Z</time>
      </trkpt>
      <trkpt lat="44.40717" lon="5.55758">
        <ele>859.1</ele>
        <time>2021-09-07T14:17:22Z</time>
      </trkpt>
      <trkpt lat="44.40717" lon="5.55758">
        <ele>859.1</ele>
        <time>2021-09-07T14:17:23Z</time>
      </trkpt>
      <trkpt lat="44.40717" lon="5.55761">
        <ele>859.2</ele>
        <time>2021-09-07T14:17:24Z</time>
      </trkpt>
      <trkpt lat="44.40717" lon="5.55763">
        <ele>859.9</ele>
        <time>2021-09-07T14:17:25Z</time>
      </trkpt>
      <trkpt lat="44.40716" lon="5.55765">
        <ele>859.9</ele>
        <time>2021-09-07T14:17:26Z</time>
      </trkpt>
      <trkpt lat="44.40716" lon="5.55766">
        <ele>859.9</ele>
        <time>2021-09-07T14:17:27Z</time>
      </trkpt>
      <trkpt lat="44.40715" lon="5.55767">
        <ele>860.6</ele>
        <time>2021-09-07T14:17:28Z</time>
      </trkpt>
      <trkpt lat="44.40715" lon="5.55768">
        <ele>860.6</ele>
        <time>2021-09-07T14:17:29Z</time>
      </trkpt>
      <trkpt lat="44.40714" lon="5.5577">
        <ele>860.8</ele>
        <time>2021-09-07T14:17:30Z</time>
      </trkpt>
      <trkpt lat="44.40714" lon="5.55771">
        <ele>860.8</ele>
        <time>2021-09-07T14:17:31Z</time>
      </trkpt>
      <trkpt lat="44.40714" lon="5.55771">
        <ele>861.5</ele>
        <time>2021-09-07T14:17:32Z</time>
      </trkpt>
      <trkpt lat="44.40714" lon="5.55772">
        <ele>861.5</ele>
        <time>2021-09-07T14:17:33Z</time>
      </trkpt>
      <trkpt lat="44.40714" lon="5.55773">
        <ele>861.5</ele>
        <time>2021-09-07T14:17:34Z</time>
      </trkpt>
      <trkpt lat="44.40714" lon="5.55774">
        <ele>861.5</ele>
        <time>2021-09-07T14:17:35Z</time>
      </trkpt>
      <trkpt lat="44.40714" lon="5.55774">
        <ele>861.5</ele>
        <time>2021-09-07T14:17:36Z</time>
      </trkpt>
      <trkpt lat="44.40714" lon="5.55774">
        <ele>861.5</ele>
        <time>2021-09-07T14:17:37Z</time>
      </trkpt>
      <trkpt lat="44.40714" lon="5.55774">
        <ele>861.5</ele>
        <time>2021-09-07T14:17:38Z</time>
      </trkpt>
      <trkpt lat="44.40715" lon="5.55775">
        <ele>861.4</ele>
        <time>2021-09-07T14:17:39Z</time>
      </trkpt>
      <trkpt lat="44.40715" lon="5.55775">
        <ele>861.4</ele>
        <time>2021-09-07T14:17:40Z</time>
      </trkpt>
      <trkpt lat="44.40715" lon="5.55776">
        <ele>862</ele>
        <time>2021-09-07T14:17:41Z</time>
      </trkpt>
      <trkpt lat="44.40714" lon="5.55776">
        <ele>862.2</ele>
        <time>2021-09-07T14:17:42Z</time>
      </trkpt>
      <trkpt lat="44.40713" lon="5.55778">
        <ele>862.2</ele>
        <time>2021-09-07T14:17:43Z</time>
      </trkpt>
      <trkpt lat="44.40713" lon="5.5578">
        <ele>862.8</ele>
        <time>2021-09-07T14:17:44Z</time>
      </trkpt>
      <trkpt lat="44.40712" lon="5.55781">
        <ele>862.8</ele>
        <time>2021-09-07T14:17:45Z</time>
      </trkpt>
      <trkpt lat="44.40711" lon="5.55783">
        <ele>863</ele>
        <time>2021-09-07T14:17:46Z</time>
      </trkpt>
      <trkpt lat="44.4071" lon="5.55784">
        <ele>863.6</ele>
        <time>2021-09-07T14:17:47Z</time>
      </trkpt>
      <trkpt lat="44.40709" lon="5.55785">
        <ele>863.6</ele>
        <time>2021-09-07T14:17:48Z</time>
      </trkpt>
      <trkpt lat="44.40709" lon="5.55785">
        <ele>863.6</ele>
        <time>2021-09-07T14:17:49Z</time>
      </trkpt>
      <trkpt lat="44.40709" lon="5.55785">
        <ele>863.6</ele>
        <time>2021-09-07T14:17:50Z</time>
      </trkpt>
      <trkpt lat="44.40708" lon="5.55786">
        <ele>863.7</ele>
        <time>2021-09-07T14:17:51Z</time>
      </trkpt>
      <trkpt lat="44.40706" lon="5.55786">
        <ele>863.7</ele>
        <time>2021-09-07T14:17:52Z</time>
      </trkpt>
      <trkpt lat="44.40704" lon="5.55786">
        <ele>863.8</ele>
        <time>2021-09-07T14:17:53Z</time>
      </trkpt>
      <trkpt lat="44.40702" lon="5.55786">
        <ele>863.9</ele>
        <time>2021-09-07T14:17:54Z</time>
      </trkpt>
      <trkpt lat="44.407" lon="5.55785">
        <ele>863.9</ele>
        <time>2021-09-07T14:17:55Z</time>
      </trkpt>
      <trkpt lat="44.40699" lon="5.55785">
        <ele>864</ele>
        <time>2021-09-07T14:17:56Z</time>
      </trkpt>
      <trkpt lat="44.40698" lon="5.55784">
        <ele>864</ele>
        <time>2021-09-07T14:17:57Z</time>
      </trkpt>
      <trkpt lat="44.40697" lon="5.55784">
        <ele>864</ele>
        <time>2021-09-07T14:17:58Z</time>
      </trkpt>
      <trkpt lat="44.40696" lon="5.55784">
        <ele>864.2</ele>
        <time>2021-09-07T14:17:59Z</time>
      </trkpt>
      <trkpt lat="44.40696" lon="5.55784">
        <ele>864.2</ele>
        <time>2021-09-07T14:18:00Z</time>
      </trkpt>
      <trkpt lat="44.40695" lon="5.55784">
        <ele>864.2</ele>
        <time>2021-09-07T14:18:01Z</time>
      </trkpt>
      <trkpt lat="44.40695" lon="5.55784">
        <ele>864.2</ele>
        <time>2021-09-07T14:18:02Z</time>
      </trkpt>
      <trkpt lat="44.40695" lon="5.55784">
        <ele>864.2</ele>
        <time>2021-09-07T14:18:03Z</time>
      </trkpt>
      <trkpt lat="44.40692" lon="5.55783">
        <ele>863.7</ele>
        <time>2021-09-07T14:18:04Z</time>
      </trkpt>
      <trkpt lat="44.40691" lon="5.55783">
        <ele>863.7</ele>
        <time>2021-09-07T14:18:05Z</time>
      </trkpt>
      <trkpt lat="44.4069" lon="5.55782">
        <ele>863.7</ele>
        <time>2021-09-07T14:18:06Z</time>
      </trkpt>
      <trkpt lat="44.40687" lon="5.55781">
        <ele>863.8</ele>
        <time>2021-09-07T14:18:07Z</time>
      </trkpt>
      <trkpt lat="44.40686" lon="5.55781">
        <ele>863.8</ele>
        <time>2021-09-07T14:18:08Z</time>
      </trkpt>
      <trkpt lat="44.40685" lon="5.5578">
        <ele>863.8</ele>
        <time>2021-09-07T14:18:09Z</time>
      </trkpt>
      <trkpt lat="44.40685" lon="5.5578">
        <ele>863.8</ele>
        <time>2021-09-07T14:18:10Z</time>
      </trkpt>
      <trkpt lat="44.40684" lon="5.5578">
        <ele>863.8</ele>
        <time>2021-09-07T14:18:11Z</time>
      </trkpt>
      <trkpt lat="44.40684" lon="5.5578">
        <ele>863.8</ele>
        <time>2021-09-07T14:18:12Z</time>
      </trkpt>
      <trkpt lat="44.40684" lon="5.5578">
        <ele>863.8</ele>
        <time>2021-09-07T14:18:13Z</time>
      </trkpt>
      <trkpt lat="44.40683" lon="5.5578">
        <ele>863.9</ele>
        <time>2021-09-07T14:18:14Z</time>
      </trkpt>
      <trkpt lat="44.40683" lon="5.5578">
        <ele>863.9</ele>
        <time>2021-09-07T14:18:15Z</time>
      </trkpt>
      <trkpt lat="44.40682" lon="5.5578">
        <ele>863.9</ele>
        <time>2021-09-07T14:18:16Z</time>
      </trkpt>
      <trkpt lat="44.40681" lon="5.5578">
        <ele>863.9</ele>
        <time>2021-09-07T14:18:17Z</time>
      </trkpt>
      <trkpt lat="44.4068" lon="5.55779">
        <ele>863.3</ele>
        <time>2021-09-07T14:18:18Z</time>
      </trkpt>
      <trkpt lat="44.40677" lon="5.55779">
        <ele>863.2</ele>
        <time>2021-09-07T14:18:19Z</time>
      </trkpt>
      <trkpt lat="44.40676" lon="5.55779">
        <ele>863.3</ele>
        <time>2021-09-07T14:18:20Z</time>
      </trkpt>
      <trkpt lat="44.40675" lon="5.55779">
        <ele>863.3</ele>
        <time>2021-09-07T14:18:21Z</time>
      </trkpt>
      <trkpt lat="44.40673" lon="5.55779">
        <ele>863.3</ele>
        <time>2021-09-07T14:18:22Z</time>
      </trkpt>
      <trkpt lat="44.40673" lon="5.55779">
        <ele>863.3</ele>
        <time>2021-09-07T14:18:23Z</time>
      </trkpt>
      <trkpt lat="44.40672" lon="5.55779">
        <ele>863.3</ele>
        <time>2021-09-07T14:18:24Z</time>
      </trkpt>
      <trkpt lat="44.40671" lon="5.55779">
        <ele>863.3</ele>
        <time>2021-09-07T14:18:25Z</time>
      </trkpt>
      <trkpt lat="44.40671" lon="5.55779">
        <ele>863.3</ele>
        <time>2021-09-07T14:18:26Z</time>
      </trkpt>
      <trkpt lat="44.4067" lon="5.55779">
        <ele>863.3</ele>
        <time>2021-09-07T14:18:27Z</time>
      </trkpt>
      <trkpt lat="44.4067" lon="5.55779">
        <ele>863.3</ele>
        <time>2021-09-07T14:18:28Z</time>
      </trkpt>
      <trkpt lat="44.4067" lon="5.55778">
        <ele>863.3</ele>
        <time>2021-09-07T14:18:29Z</time>
      </trkpt>
      <trkpt lat="44.4067" lon="5.55778">
        <ele>863.3</ele>
        <time>2021-09-07T14:18:30Z</time>
      </trkpt>
      <trkpt lat="44.40669" lon="5.55778">
        <ele>863.3</ele>
        <time>2021-09-07T14:18:31Z</time>
      </trkpt>
      <trkpt lat="44.40668" lon="5.55778">
        <ele>863.4</ele>
        <time>2021-09-07T14:18:32Z</time>
      </trkpt>
      <trkpt lat="44.40664" lon="5.55777">
        <ele>863.4</ele>
        <time>2021-09-07T14:18:33Z</time>
      </trkpt>
      <trkpt lat="44.40664" lon="5.55777">
        <ele>863.4</ele>
        <time>2021-09-07T14:18:34Z</time>
      </trkpt>
      <trkpt lat="44.40663" lon="5.55777">
        <ele>863.4</ele>
        <time>2021-09-07T14:18:35Z</time>
      </trkpt>
      <trkpt lat="44.40662" lon="5.55776">
        <ele>863.5</ele>
        <time>2021-09-07T14:18:36Z</time>
      </trkpt>
      <trkpt lat="44.40661" lon="5.55776">
        <ele>863.5</ele>
        <time>2021-09-07T14:18:37Z</time>
      </trkpt>
      <trkpt lat="44.4066" lon="5.55776">
        <ele>863.5</ele>
        <time>2021-09-07T14:18:38Z</time>
      </trkpt>
      <trkpt lat="44.40659" lon="5.55776">
        <ele>863.5</ele>
        <time>2021-09-07T14:18:39Z</time>
      </trkpt>
      <trkpt lat="44.40659" lon="5.55776">
        <ele>863.5</ele>
        <time>2021-09-07T14:18:40Z</time>
      </trkpt>
      <trkpt lat="44.40659" lon="5.55776">
        <ele>863.5</ele>
        <time>2021-09-07T14:18:41Z</time>
      </trkpt>
      <trkpt lat="44.40659" lon="5.55776">
        <ele>863.5</ele>
        <time>2021-09-07T14:18:42Z</time>
      </trkpt>
      <trkpt lat="44.40658" lon="5.55776">
        <ele>863.5</ele>
        <time>2021-09-07T14:18:43Z</time>
      </trkpt>
      <trkpt lat="44.40658" lon="5.55776">
        <ele>863.5</ele>
        <time>2021-09-07T14:18:44Z</time>
      </trkpt>
      <trkpt lat="44.40658" lon="5.55776">
        <ele>863.5</ele>
        <time>2021-09-07T14:18:45Z</time>
      </trkpt>
      <trkpt lat="44.40657" lon="5.55776">
        <ele>863.5</ele>
        <time>2021-09-07T14:18:46Z</time>
      </trkpt>
      <trkpt lat="44.40657" lon="5.55776">
        <ele>863.5</ele>
        <time>2021-09-07T14:18:47Z</time>
      </trkpt>
      <trkpt lat="44.40657" lon="5.55776">
        <ele>863.5</ele>
        <time>2021-09-07T14:18:48Z</time>
      </trkpt>
      <trkpt lat="44.40655" lon="5.55776">
        <ele>863.6</ele>
        <time>2021-09-07T14:18:49Z</time>
      </trkpt>
      <trkpt lat="44.40653" lon="5.55775">
        <ele>862.9</ele>
        <time>2021-09-07T14:18:50Z</time>
      </trkpt>
      <trkpt lat="44.40652" lon="5.55775">
        <ele>862.9</ele>
        <time>2021-09-07T14:18:51Z</time>
      </trkpt>
      <trkpt lat="44.40651" lon="5.55775">
        <ele>863</ele>
        <time>2021-09-07T14:18:52Z</time>
      </trkpt>
      <trkpt lat="44.4065" lon="5.55775">
        <ele>863</ele>
        <time>2021-09-07T14:18:53Z</time>
      </trkpt>
      <trkpt lat="44.4065" lon="5.55775">
        <ele>863</ele>
        <time>2021-09-07T14:18:54Z</time>
      </trkpt>
      <trkpt lat="44.40649" lon="5.55774">
        <ele>863</ele>
        <time>2021-09-07T14:18:55Z</time>
      </trkpt>
      <trkpt lat="44.40648" lon="5.55774">
        <ele>863</ele>
        <time>2021-09-07T14:18:56Z</time>
      </trkpt>
      <trkpt lat="44.40648" lon="5.55774">
        <ele>863</ele>
        <time>2021-09-07T14:18:57Z</time>
      </trkpt>
      <trkpt lat="44.40647" lon="5.55774">
        <ele>863</ele>
        <time>2021-09-07T14:18:58Z</time>
      </trkpt>
      <trkpt lat="44.40646" lon="5.55774">
        <ele>863.1</ele>
        <time>2021-09-07T14:18:59Z</time>
      </trkpt>
      <trkpt lat="44.40645" lon="5.55773">
        <ele>863.1</ele>
        <time>2021-09-07T14:19:00Z</time>
      </trkpt>
      <trkpt lat="44.40644" lon="5.55771">
        <ele>863.2</ele>
        <time>2021-09-07T14:19:01Z</time>
      </trkpt>
      <trkpt lat="44.40641" lon="5.55768">
        <ele>862.6</ele>
        <time>2021-09-07T14:19:02Z</time>
      </trkpt>
      <trkpt lat="44.4064" lon="5.55767">
        <ele>862.8</ele>
        <time>2021-09-07T14:19:03Z</time>
      </trkpt>
      <trkpt lat="44.40639" lon="5.55767">
        <ele>862.2</ele>
        <time>2021-09-07T14:19:04Z</time>
      </trkpt>
      <trkpt lat="44.40638" lon="5.55766">
        <ele>862.2</ele>
        <time>2021-09-07T14:19:05Z</time>
      </trkpt>
      <trkpt lat="44.40638" lon="5.55766">
        <ele>862.2</ele>
        <time>2021-09-07T14:19:06Z</time>
      </trkpt>
      <trkpt lat="44.40637" lon="5.55765">
        <ele>862.4</ele>
        <time>2021-09-07T14:19:07Z</time>
      </trkpt>
      <trkpt lat="44.40637" lon="5.55765">
        <ele>862.4</ele>
        <time>2021-09-07T14:19:08Z</time>
      </trkpt>
      <trkpt lat="44.40636" lon="5.55764">
        <ele>862.4</ele>
        <time>2021-09-07T14:19:09Z</time>
      </trkpt>
      <trkpt lat="44.40635" lon="5.55763">
        <ele>862.4</ele>
        <time>2021-09-07T14:19:10Z</time>
      </trkpt>
      <trkpt lat="44.40635" lon="5.55763">
        <ele>862.4</ele>
        <time>2021-09-07T14:19:11Z</time>
      </trkpt>
      <trkpt lat="44.40635" lon="5.55763">
        <ele>862.4</ele>
        <time>2021-09-07T14:19:12Z</time>
      </trkpt>
      <trkpt lat="44.40635" lon="5.55763">
        <ele>862.4</ele>
        <time>2021-09-07T14:19:13Z</time>
      </trkpt>
      <trkpt lat="44.40632" lon="5.55762">
        <ele>862</ele>
        <time>2021-09-07T14:19:14Z</time>
      </trkpt>
      <trkpt lat="44.4063" lon="5.55761">
        <ele>862.2</ele>
        <time>2021-09-07T14:19:15Z</time>
      </trkpt>
      <trkpt lat="44.40629" lon="5.5576">
        <ele>862.4</ele>
        <time>2021-09-07T14:19:16Z</time>
      </trkpt>
      <trkpt lat="44.40627" lon="5.55759">
        <ele>862.4</ele>
        <time>2021-09-07T14:19:17Z</time>
      </trkpt>
      <trkpt lat="44.40625" lon="5.55758">
        <ele>862.6</ele>
        <time>2021-09-07T14:19:18Z</time>
      </trkpt>
      <trkpt lat="44.40622" lon="5.55756">
        <ele>862.2</ele>
        <time>2021-09-07T14:19:19Z</time>
      </trkpt>
      <trkpt lat="44.40621" lon="5.55756">
        <ele>862.2</ele>
        <time>2021-09-07T14:19:20Z</time>
      </trkpt>
      <trkpt lat="44.4062" lon="5.55755">
        <ele>862.2</ele>
        <time>2021-09-07T14:19:21Z</time>
      </trkpt>
      <trkpt lat="44.40616" lon="5.55752">
        <ele>862.1</ele>
        <time>2021-09-07T14:19:22Z</time>
      </trkpt>
      <trkpt lat="44.40613" lon="5.5575">
        <ele>862.4</ele>
        <time>2021-09-07T14:19:23Z</time>
      </trkpt>
      <trkpt lat="44.40612" lon="5.55749">
        <ele>861.8</ele>
        <time>2021-09-07T14:19:24Z</time>
      </trkpt>
      <trkpt lat="44.40611" lon="5.55748">
        <ele>861.9</ele>
        <time>2021-09-07T14:19:25Z</time>
      </trkpt>
      <trkpt lat="44.4061" lon="5.55746">
        <ele>862.1</ele>
        <time>2021-09-07T14:19:26Z</time>
      </trkpt>
      <trkpt lat="44.40608" lon="5.55744">
        <ele>861.6</ele>
        <time>2021-09-07T14:19:27Z</time>
      </trkpt>
      <trkpt lat="44.40606" lon="5.55743">
        <ele>861.9</ele>
        <time>2021-09-07T14:19:28Z</time>
      </trkpt>
      <trkpt lat="44.40604" lon="5.55742">
        <ele>862.2</ele>
        <time>2021-09-07T14:19:29Z</time>
      </trkpt>
      <trkpt lat="44.40603" lon="5.55742">
        <ele>862.2</ele>
        <time>2021-09-07T14:19:30Z</time>
      </trkpt>
      <trkpt lat="44.40603" lon="5.55742">
        <ele>862.2</ele>
        <time>2021-09-07T14:19:31Z</time>
      </trkpt>
      <trkpt lat="44.40602" lon="5.55742">
        <ele>862.3</ele>
        <time>2021-09-07T14:19:32Z</time>
      </trkpt>
      <trkpt lat="44.406" lon="5.55741">
        <ele>862.6</ele>
        <time>2021-09-07T14:19:33Z</time>
      </trkpt>
      <trkpt lat="44.40598" lon="5.55741">
        <ele>862.6</ele>
        <time>2021-09-07T14:19:34Z</time>
      </trkpt>
      <trkpt lat="44.40597" lon="5.55741">
        <ele>862.9</ele>
        <time>2021-09-07T14:19:35Z</time>
      </trkpt>
      <trkpt lat="44.40597" lon="5.55741">
        <ele>862.9</ele>
        <time>2021-09-07T14:19:36Z</time>
      </trkpt>
      <trkpt lat="44.40597" lon="5.55741">
        <ele>862.9</ele>
        <time>2021-09-07T14:19:37Z</time>
      </trkpt>
      <trkpt lat="44.40596" lon="5.55741">
        <ele>862.9</ele>
        <time>2021-09-07T14:19:38Z</time>
      </trkpt>
      <trkpt lat="44.40596" lon="5.55741">
        <ele>862.9</ele>
        <time>2021-09-07T14:19:39Z</time>
      </trkpt>
      <trkpt lat="44.40596" lon="5.5574">
        <ele>862.4</ele>
        <time>2021-09-07T14:19:40Z</time>
      </trkpt>
      <trkpt lat="44.40595" lon="5.5574">
        <ele>862.4</ele>
        <time>2021-09-07T14:19:41Z</time>
      </trkpt>
      <trkpt lat="44.40595" lon="5.5574">
        <ele>862.4</ele>
        <time>2021-09-07T14:19:42Z</time>
      </trkpt>
      <trkpt lat="44.40595" lon="5.5574">
        <ele>862.4</ele>
        <time>2021-09-07T14:19:43Z</time>
      </trkpt>
      <trkpt lat="44.40595" lon="5.5574">
        <ele>862.4</ele>
        <time>2021-09-07T14:19:44Z</time>
      </trkpt>
      <trkpt lat="44.40595" lon="5.5574">
        <ele>862.4</ele>
        <time>2021-09-07T14:19:45Z</time>
      </trkpt>
      <trkpt lat="44.40595" lon="5.5574">
        <ele>862.5</ele>
        <time>2021-09-07T14:19:46Z</time>
      </trkpt>
      <trkpt lat="44.40595" lon="5.5574">
        <ele>862.5</ele>
        <time>2021-09-07T14:19:47Z</time>
      </trkpt>
      <trkpt lat="44.40595" lon="5.5574">
        <ele>862.5</ele>
        <time>2021-09-07T14:19:48Z</time>
      </trkpt>
      <trkpt lat="44.40595" lon="5.5574">
        <ele>862.5</ele>
        <time>2021-09-07T14:19:49Z</time>
      </trkpt>
      <trkpt lat="44.40595" lon="5.5574">
        <ele>862.5</ele>
        <time>2021-09-07T14:19:50Z</time>
      </trkpt>
      <trkpt lat="44.40595" lon="5.5574">
        <ele>862.8</ele>
        <time>2021-09-07T14:19:51Z</time>
      </trkpt>
      <trkpt lat="44.40594" lon="5.5574">
        <ele>862.8</ele>
        <time>2021-09-07T14:19:52Z</time>
      </trkpt>
      <trkpt lat="44.40593" lon="5.55739">
        <ele>862.8</ele>
        <time>2021-09-07T14:19:53Z</time>
      </trkpt>
      <trkpt lat="44.40592" lon="5.55738">
        <ele>862.8</ele>
        <time>2021-09-07T14:19:54Z</time>
      </trkpt>
      <trkpt lat="44.40591" lon="5.55737">
        <ele>863.1</ele>
        <time>2021-09-07T14:19:55Z</time>
      </trkpt>
      <trkpt lat="44.40589" lon="5.55737">
        <ele>863.1</ele>
        <time>2021-09-07T14:19:56Z</time>
      </trkpt>
      <trkpt lat="44.40588" lon="5.55737">
        <ele>863.4</ele>
        <time>2021-09-07T14:19:57Z</time>
      </trkpt>
      <trkpt lat="44.40586" lon="5.55737">
        <ele>863.5</ele>
        <time>2021-09-07T14:19:58Z</time>
      </trkpt>
      <trkpt lat="44.40583" lon="5.55737">
        <ele>863.8</ele>
        <time>2021-09-07T14:19:59Z</time>
      </trkpt>
      <trkpt lat="44.4058" lon="5.55737">
        <ele>864.1</ele>
        <time>2021-09-07T14:20:00Z</time>
      </trkpt>
      <trkpt lat="44.40578" lon="5.55739">
        <ele>864.4</ele>
        <time>2021-09-07T14:20:01Z</time>
      </trkpt>
      <trkpt lat="44.40576" lon="5.5574">
        <ele>864.7</ele>
        <time>2021-09-07T14:20:02Z</time>
      </trkpt>
      <trkpt lat="44.40574" lon="5.55741">
        <ele>865.1</ele>
        <time>2021-09-07T14:20:03Z</time>
      </trkpt>
      <trkpt lat="44.40572" lon="5.55742">
        <ele>865.4</ele>
        <time>2021-09-07T14:20:04Z</time>
      </trkpt>
      <trkpt lat="44.4057" lon="5.55742">
        <ele>865.6</ele>
        <time>2021-09-07T14:20:05Z</time>
      </trkpt>
      <trkpt lat="44.40569" lon="5.55742">
        <ele>865.6</ele>
        <time>2021-09-07T14:20:06Z</time>
      </trkpt>
      <trkpt lat="44.40569" lon="5.55742">
        <ele>865.6</ele>
        <time>2021-09-07T14:20:07Z</time>
      </trkpt>
      <trkpt lat="44.40569" lon="5.55742">
        <ele>865.6</ele>
        <time>2021-09-07T14:20:08Z</time>
      </trkpt>
      <trkpt lat="44.40569" lon="5.55742">
        <ele>865.6</ele>
        <time>2021-09-07T14:20:09Z</time>
      </trkpt>
      <trkpt lat="44.40569" lon="5.55742">
        <ele>865.6</ele>
        <time>2021-09-07T14:20:10Z</time>
      </trkpt>
      <trkpt lat="44.40569" lon="5.55742">
        <ele>865.6</ele>
        <time>2021-09-07T14:20:11Z</time>
      </trkpt>
      <trkpt lat="44.40569" lon="5.55742">
        <ele>865.6</ele>
        <time>2021-09-07T14:20:12Z</time>
      </trkpt>
      <trkpt lat="44.40569" lon="5.55742">
        <ele>865.6</ele>
        <time>2021-09-07T14:20:13Z</time>
      </trkpt>
      <trkpt lat="44.40568" lon="5.55742">
        <ele>865.6</ele>
        <time>2021-09-07T14:20:14Z</time>
      </trkpt>
      <trkpt lat="44.40568" lon="5.55742">
        <ele>865.6</ele>
        <time>2021-09-07T14:20:15Z</time>
      </trkpt>
      <trkpt lat="44.40567" lon="5.55742">
        <ele>865.8</ele>
        <time>2021-09-07T14:20:16Z</time>
      </trkpt>
      <trkpt lat="44.40565" lon="5.55742">
        <ele>865.9</ele>
        <time>2021-09-07T14:20:17Z</time>
      </trkpt>
      <trkpt lat="44.40565" lon="5.55742">
        <ele>865.9</ele>
        <time>2021-09-07T14:20:18Z</time>
      </trkpt>
      <trkpt lat="44.40565" lon="5.55742">
        <ele>865.9</ele>
        <time>2021-09-07T14:20:19Z</time>
      </trkpt>
      <trkpt lat="44.40564" lon="5.55742">
        <ele>866</ele>
        <time>2021-09-07T14:20:20Z</time>
      </trkpt>
      <trkpt lat="44.40564" lon="5.55742">
        <ele>866</ele>
        <time>2021-09-07T14:20:21Z</time>
      </trkpt>
      <trkpt lat="44.40564" lon="5.55742">
        <ele>866.1</ele>
        <time>2021-09-07T14:20:22Z</time>
      </trkpt>
      <trkpt lat="44.40563" lon="5.55742">
        <ele>866.1</ele>
        <time>2021-09-07T14:20:23Z</time>
      </trkpt>
      <trkpt lat="44.40563" lon="5.55742">
        <ele>866.1</ele>
        <time>2021-09-07T14:20:24Z</time>
      </trkpt>
      <trkpt lat="44.40563" lon="5.55742">
        <ele>866.1</ele>
        <time>2021-09-07T14:20:25Z</time>
      </trkpt>
      <trkpt lat="44.40562" lon="5.55742">
        <ele>866.1</ele>
        <time>2021-09-07T14:20:26Z</time>
      </trkpt>
      <trkpt lat="44.40562" lon="5.55743">
        <ele>866.1</ele>
        <time>2021-09-07T14:20:27Z</time>
      </trkpt>
      <trkpt lat="44.40563" lon="5.55744">
        <ele>866.1</ele>
        <time>2021-09-07T14:20:28Z</time>
      </trkpt>
      <trkpt lat="44.40563" lon="5.55745">
        <ele>866.1</ele>
        <time>2021-09-07T14:20:29Z</time>
      </trkpt>
      <trkpt lat="44.40563" lon="5.55746">
        <ele>866.5</ele>
        <time>2021-09-07T14:20:30Z</time>
      </trkpt>
      <trkpt lat="44.40563" lon="5.55747">
        <ele>866.5</ele>
        <time>2021-09-07T14:20:31Z</time>
      </trkpt>
      <trkpt lat="44.40563" lon="5.55749">
        <ele>866.5</ele>
        <time>2021-09-07T14:20:32Z</time>
      </trkpt>
      <trkpt lat="44.40563" lon="5.5575">
        <ele>866.9</ele>
        <time>2021-09-07T14:20:33Z</time>
      </trkpt>
      <trkpt lat="44.40563" lon="5.55751">
        <ele>866.9</ele>
        <time>2021-09-07T14:20:34Z</time>
      </trkpt>
      <trkpt lat="44.40563" lon="5.55753">
        <ele>866.9</ele>
        <time>2021-09-07T14:20:35Z</time>
      </trkpt>
      <trkpt lat="44.40563" lon="5.55754">
        <ele>867.3</ele>
        <time>2021-09-07T14:20:36Z</time>
      </trkpt>
      <trkpt lat="44.40564" lon="5.55756">
        <ele>867.3</ele>
        <time>2021-09-07T14:20:37Z</time>
      </trkpt>
      <trkpt lat="44.40564" lon="5.55757">
        <ele>867.3</ele>
        <time>2021-09-07T14:20:38Z</time>
      </trkpt>
      <trkpt lat="44.40565" lon="5.55759">
        <ele>867.6</ele>
        <time>2021-09-07T14:20:39Z</time>
      </trkpt>
      <trkpt lat="44.40566" lon="5.55761">
        <ele>867.6</ele>
        <time>2021-09-07T14:20:40Z</time>
      </trkpt>
      <trkpt lat="44.40567" lon="5.55763">
        <ele>868</ele>
        <time>2021-09-07T14:20:41Z</time>
      </trkpt>
      <trkpt lat="44.40568" lon="5.55765">
        <ele>867.9</ele>
        <time>2021-09-07T14:20:42Z</time>
      </trkpt>
      <trkpt lat="44.40569" lon="5.55768">
        <ele>868.3</ele>
        <time>2021-09-07T14:20:43Z</time>
      </trkpt>
      <trkpt lat="44.40569" lon="5.5577">
        <ele>868.3</ele>
        <time>2021-09-07T14:20:44Z</time>
      </trkpt>
      <trkpt lat="44.4057" lon="5.55774">
        <ele>868.8</ele>
        <time>2021-09-07T14:20:45Z</time>
      </trkpt>
      <trkpt lat="44.4057" lon="5.55777">
        <ele>869.2</ele>
        <time>2021-09-07T14:20:46Z</time>
      </trkpt>
      <trkpt lat="44.40571" lon="5.55779">
        <ele>869</ele>
        <time>2021-09-07T14:20:47Z</time>
      </trkpt>
      <trkpt lat="44.40571" lon="5.55781">
        <ele>869.5</ele>
        <time>2021-09-07T14:20:48Z</time>
      </trkpt>
      <trkpt lat="44.40572" lon="5.55783">
        <ele>869.5</ele>
        <time>2021-09-07T14:20:49Z</time>
      </trkpt>
      <trkpt lat="44.40572" lon="5.55784">
        <ele>869.9</ele>
        <time>2021-09-07T14:20:50Z</time>
      </trkpt>
      <trkpt lat="44.40573" lon="5.55785">
        <ele>869.9</ele>
        <time>2021-09-07T14:20:51Z</time>
      </trkpt>
      <trkpt lat="44.40574" lon="5.55786">
        <ele>869.8</ele>
        <time>2021-09-07T14:20:52Z</time>
      </trkpt>
      <trkpt lat="44.40575" lon="5.55786">
        <ele>869.8</ele>
        <time>2021-09-07T14:20:53Z</time>
      </trkpt>
      <trkpt lat="44.40576" lon="5.55787">
        <ele>869.8</ele>
        <time>2021-09-07T14:20:54Z</time>
      </trkpt>
      <trkpt lat="44.40577" lon="5.55788">
        <ele>869.6</ele>
        <time>2021-09-07T14:20:55Z</time>
      </trkpt>
      <trkpt lat="44.40577" lon="5.55788">
        <ele>869.6</ele>
        <time>2021-09-07T14:20:56Z</time>
      </trkpt>
      <trkpt lat="44.40577" lon="5.55788">
        <ele>869.6</ele>
        <time>2021-09-07T14:20:57Z</time>
      </trkpt>
      <trkpt lat="44.40577" lon="5.55788">
        <ele>869.6</ele>
        <time>2021-09-07T14:20:58Z</time>
      </trkpt>
      <trkpt lat="44.40577" lon="5.55788">
        <ele>869.6</ele>
        <time>2021-09-07T14:20:59Z</time>
      </trkpt>
      <trkpt lat="44.40577" lon="5.55788">
        <ele>869.6</ele>
        <time>2021-09-07T14:21:00Z</time>
      </trkpt>
      <trkpt lat="44.40577" lon="5.55788">
        <ele>869.6</ele>
        <time>2021-09-07T14:21:01Z</time>
      </trkpt>
      <trkpt lat="44.40577" lon="5.55788">
        <ele>869.6</ele>
        <time>2021-09-07T14:21:02Z</time>
      </trkpt>
      <trkpt lat="44.40577" lon="5.55789">
        <ele>870</ele>
        <time>2021-09-07T14:21:03Z</time>
      </trkpt>
      <trkpt lat="44.40578" lon="5.5579">
        <ele>870.1</ele>
        <time>2021-09-07T14:21:04Z</time>
      </trkpt>
      <trkpt lat="44.40579" lon="5.55792">
        <ele>870.1</ele>
        <time>2021-09-07T14:21:05Z</time>
      </trkpt>
      <trkpt lat="44.40579" lon="5.55794">
        <ele>870.5</ele>
        <time>2021-09-07T14:21:06Z</time>
      </trkpt>
      <trkpt lat="44.40579" lon="5.55795">
        <ele>870.5</ele>
        <time>2021-09-07T14:21:07Z</time>
      </trkpt>
      <trkpt lat="44.40579" lon="5.55795">
        <ele>870.5</ele>
        <time>2021-09-07T14:21:08Z</time>
      </trkpt>
      <trkpt lat="44.40579" lon="5.55797">
        <ele>871</ele>
        <time>2021-09-07T14:21:09Z</time>
      </trkpt>
      <trkpt lat="44.40579" lon="5.55798">
        <ele>871</ele>
        <time>2021-09-07T14:21:10Z</time>
      </trkpt>
      <trkpt lat="44.40579" lon="5.55799">
        <ele>871</ele>
        <time>2021-09-07T14:21:11Z</time>
      </trkpt>
      <trkpt lat="44.40579" lon="5.55799">
        <ele>871</ele>
        <time>2021-09-07T14:21:12Z</time>
      </trkpt>
      <trkpt lat="44.4058" lon="5.55802">
        <ele>871.3</ele>
        <time>2021-09-07T14:21:13Z</time>
      </trkpt>
      <trkpt lat="44.40579" lon="5.55803">
        <ele>871.5</ele>
        <time>2021-09-07T14:21:14Z</time>
      </trkpt>
      <trkpt lat="44.40579" lon="5.55804">
        <ele>871.5</ele>
        <time>2021-09-07T14:21:15Z</time>
      </trkpt>
      <trkpt lat="44.40579" lon="5.55805">
        <ele>871.5</ele>
        <time>2021-09-07T14:21:16Z</time>
      </trkpt>
      <trkpt lat="44.40579" lon="5.55807">
        <ele>871.9</ele>
        <time>2021-09-07T14:21:17Z</time>
      </trkpt>
      <trkpt lat="44.40579" lon="5.55809">
        <ele>872</ele>
        <time>2021-09-07T14:21:18Z</time>
      </trkpt>
      <trkpt lat="44.40579" lon="5.5581">
        <ele>872.4</ele>
        <time>2021-09-07T14:21:19Z</time>
      </trkpt>
      <trkpt lat="44.40579" lon="5.55812">
        <ele>872.4</ele>
        <time>2021-09-07T14:21:20Z</time>
      </trkpt>
      <trkpt lat="44.40579" lon="5.55814">
        <ele>872.9</ele>
        <time>2021-09-07T14:21:21Z</time>
      </trkpt>
      <trkpt lat="44.40579" lon="5.55815">
        <ele>872.9</ele>
        <time>2021-09-07T14:21:22Z</time>
      </trkpt>
      <trkpt lat="44.40579" lon="5.55816">
        <ele>872.9</ele>
        <time>2021-09-07T14:21:23Z</time>
      </trkpt>
      <trkpt lat="44.40579" lon="5.55817">
        <ele>872.9</ele>
        <time>2021-09-07T14:21:24Z</time>
      </trkpt>
      <trkpt lat="44.40579" lon="5.55819">
        <ele>873.3</ele>
        <time>2021-09-07T14:21:25Z</time>
      </trkpt>
      <trkpt lat="44.40579" lon="5.55819">
        <ele>873.3</ele>
        <time>2021-09-07T14:21:26Z</time>
      </trkpt>
      <trkpt lat="44.40579" lon="5.5582">
        <ele>873.3</ele>
        <time>2021-09-07T14:21:27Z</time>
      </trkpt>
      <trkpt lat="44.40579" lon="5.5582">
        <ele>873.3</ele>
        <time>2021-09-07T14:21:28Z</time>
      </trkpt>
      <trkpt lat="44.40579" lon="5.55821">
        <ele>873.3</ele>
        <time>2021-09-07T14:21:29Z</time>
      </trkpt>
      <trkpt lat="44.40579" lon="5.55823">
        <ele>873.7</ele>
        <time>2021-09-07T14:21:30Z</time>
      </trkpt>
      <trkpt lat="44.40579" lon="5.55824">
        <ele>873.7</ele>
        <time>2021-09-07T14:21:31Z</time>
      </trkpt>
      <trkpt lat="44.40579" lon="5.55825">
        <ele>873.8</ele>
        <time>2021-09-07T14:21:32Z</time>
      </trkpt>
      <trkpt lat="44.40579" lon="5.55826">
        <ele>873.8</ele>
        <time>2021-09-07T14:21:33Z</time>
      </trkpt>
      <trkpt lat="44.40579" lon="5.55827">
        <ele>874.2</ele>
        <time>2021-09-07T14:21:34Z</time>
      </trkpt>
      <trkpt lat="44.40579" lon="5.55828">
        <ele>874.2</ele>
        <time>2021-09-07T14:21:35Z</time>
      </trkpt>
      <trkpt lat="44.40579" lon="5.55832">
        <ele>874.6</ele>
        <time>2021-09-07T14:21:36Z</time>
      </trkpt>
      <trkpt lat="44.4058" lon="5.55834">
        <ele>874.6</ele>
        <time>2021-09-07T14:21:37Z</time>
      </trkpt>
      <trkpt lat="44.4058" lon="5.55835">
        <ele>874.5</ele>
        <time>2021-09-07T14:21:38Z</time>
      </trkpt>
      <trkpt lat="44.4058" lon="5.55836">
        <ele>874.9</ele>
        <time>2021-09-07T14:21:39Z</time>
      </trkpt>
      <trkpt lat="44.4058" lon="5.55837">
        <ele>874.9</ele>
        <time>2021-09-07T14:21:40Z</time>
      </trkpt>
      <trkpt lat="44.4058" lon="5.55841">
        <ele>875.4</ele>
        <time>2021-09-07T14:21:41Z</time>
      </trkpt>
      <trkpt lat="44.4058" lon="5.55842">
        <ele>875.4</ele>
        <time>2021-09-07T14:21:42Z</time>
      </trkpt>
      <trkpt lat="44.4058" lon="5.55843">
        <ele>875.4</ele>
        <time>2021-09-07T14:21:43Z</time>
      </trkpt>
      <trkpt lat="44.4058" lon="5.55844">
        <ele>875.9</ele>
        <time>2021-09-07T14:21:44Z</time>
      </trkpt>
      <trkpt lat="44.4058" lon="5.55846">
        <ele>875.9</ele>
        <time>2021-09-07T14:21:45Z</time>
      </trkpt>
      <trkpt lat="44.4058" lon="5.55846">
        <ele>875.9</ele>
        <time>2021-09-07T14:21:46Z</time>
      </trkpt>
      <trkpt lat="44.40579" lon="5.55847">
        <ele>876</ele>
        <time>2021-09-07T14:21:47Z</time>
      </trkpt>
      <trkpt lat="44.40579" lon="5.55848">
        <ele>876</ele>
        <time>2021-09-07T14:21:48Z</time>
      </trkpt>
      <trkpt lat="44.40579" lon="5.55848">
        <ele>876</ele>
        <time>2021-09-07T14:21:49Z</time>
      </trkpt>
      <trkpt lat="44.40579" lon="5.55848">
        <ele>876</ele>
        <time>2021-09-07T14:21:50Z</time>
      </trkpt>
      <trkpt lat="44.40579" lon="5.55848">
        <ele>876.1</ele>
        <time>2021-09-07T14:21:51Z</time>
      </trkpt>
      <trkpt lat="44.40579" lon="5.55848">
        <ele>876.1</ele>
        <time>2021-09-07T14:21:52Z</time>
      </trkpt>
      <trkpt lat="44.40578" lon="5.55848">
        <ele>876.1</ele>
        <time>2021-09-07T14:21:53Z</time>
      </trkpt>
      <trkpt lat="44.40578" lon="5.55848">
        <ele>876.1</ele>
        <time>2021-09-07T14:21:54Z</time>
      </trkpt>
      <trkpt lat="44.40578" lon="5.55848">
        <ele>876.1</ele>
        <time>2021-09-07T14:21:55Z</time>
      </trkpt>
      <trkpt lat="44.40578" lon="5.55848">
        <ele>876.1</ele>
        <time>2021-09-07T14:21:56Z</time>
      </trkpt>
      <trkpt lat="44.40578" lon="5.55848">
        <ele>876.1</ele>
        <time>2021-09-07T14:21:57Z</time>
      </trkpt>
      <trkpt lat="44.40578" lon="5.55848">
        <ele>876.1</ele>
        <time>2021-09-07T14:21:58Z</time>
      </trkpt>
      <trkpt lat="44.40578" lon="5.55848">
        <ele>876.1</ele>
        <time>2021-09-07T14:21:59Z</time>
      </trkpt>
      <trkpt lat="44.40578" lon="5.55848">
        <ele>876.1</ele>
        <time>2021-09-07T14:22:00Z</time>
      </trkpt>
      <trkpt lat="44.40578" lon="5.55848">
        <ele>876.1</ele>
        <time>2021-09-07T14:22:01Z</time>
      </trkpt>
      <trkpt lat="44.40578" lon="5.55848">
        <ele>876.1</ele>
        <time>2021-09-07T14:22:02Z</time>
      </trkpt>
      <trkpt lat="44.40578" lon="5.55848">
        <ele>876.1</ele>
        <time>2021-09-07T14:22:03Z</time>
      </trkpt>
      <trkpt lat="44.40578" lon="5.55848">
        <ele>876.1</ele>
        <time>2021-09-07T14:22:04Z</time>
      </trkpt>
      <trkpt lat="44.40578" lon="5.55848">
        <ele>876.1</ele>
        <time>2021-09-07T14:22:05Z</time>
      </trkpt>
      <trkpt lat="44.40578" lon="5.55848">
        <ele>876.1</ele>
        <time>2021-09-07T14:22:06Z</time>
      </trkpt>
      <trkpt lat="44.40578" lon="5.55848">
        <ele>876.1</ele>
        <time>2021-09-07T14:22:07Z</time>
      </trkpt>
      <trkpt lat="44.40578" lon="5.55849">
        <ele>876.7</ele>
        <time>2021-09-07T14:22:08Z</time>
      </trkpt>
      <trkpt lat="44.40578" lon="5.55849">
        <ele>876.7</ele>
        <time>2021-09-07T14:22:09Z</time>
      </trkpt>
      <trkpt lat="44.40578" lon="5.55849">
        <ele>876.7</ele>
        <time>2021-09-07T14:22:10Z</time>
      </trkpt>
      <trkpt lat="44.40578" lon="5.55849">
        <ele>876.7</ele>
        <time>2021-09-07T14:22:11Z</time>
      </trkpt>
      <trkpt lat="44.40578" lon="5.55849">
        <ele>876.7</ele>
        <time>2021-09-07T14:22:12Z</time>
      </trkpt>
      <trkpt lat="44.40579" lon="5.5585">
        <ele>876.7</ele>
        <time>2021-09-07T14:22:13Z</time>
      </trkpt>
      <trkpt lat="44.40579" lon="5.5585">
        <ele>876.7</ele>
        <time>2021-09-07T14:22:14Z</time>
      </trkpt>
      <trkpt lat="44.40579" lon="5.55852">
        <ele>876.7</ele>
        <time>2021-09-07T14:22:15Z</time>
      </trkpt>
      <trkpt lat="44.40579" lon="5.55856">
        <ele>877.2</ele>
        <time>2021-09-07T14:22:16Z</time>
      </trkpt>
      <trkpt lat="44.4058" lon="5.55857">
        <ele>877.8</ele>
        <time>2021-09-07T14:22:17Z</time>
      </trkpt>
      <trkpt lat="44.4058" lon="5.55858">
        <ele>877.7</ele>
        <time>2021-09-07T14:22:18Z</time>
      </trkpt>
      <trkpt lat="44.4058" lon="5.5586">
        <ele>877.7</ele>
        <time>2021-09-07T14:22:19Z</time>
      </trkpt>
      <trkpt lat="44.4058" lon="5.55861">
        <ele>878.3</ele>
        <time>2021-09-07T14:22:20Z</time>
      </trkpt>
      <trkpt lat="44.4058" lon="5.55862">
        <ele>878.3</ele>
        <time>2021-09-07T14:22:21Z</time>
      </trkpt>
      <trkpt lat="44.4058" lon="5.55863">
        <ele>878.3</ele>
        <time>2021-09-07T14:22:22Z</time>
      </trkpt>
      <trkpt lat="44.4058" lon="5.55863">
        <ele>878.3</ele>
        <time>2021-09-07T14:22:23Z</time>
      </trkpt>
      <trkpt lat="44.4058" lon="5.55863">
        <ele>878.3</ele>
        <time>2021-09-07T14:22:24Z</time>
      </trkpt>
      <trkpt lat="44.4058" lon="5.55864">
        <ele>878.3</ele>
        <time>2021-09-07T14:22:25Z</time>
      </trkpt>
      <trkpt lat="44.4058" lon="5.55864">
        <ele>878.3</ele>
        <time>2021-09-07T14:22:26Z</time>
      </trkpt>
      <trkpt lat="44.4058" lon="5.55864">
        <ele>878.3</ele>
        <time>2021-09-07T14:22:27Z</time>
      </trkpt>
      <trkpt lat="44.4058" lon="5.55865">
        <ele>878.3</ele>
        <time>2021-09-07T14:22:28Z</time>
      </trkpt>
      <trkpt lat="44.4058" lon="5.55865">
        <ele>878.3</ele>
        <time>2021-09-07T14:22:29Z</time>
      </trkpt>
      <trkpt lat="44.4058" lon="5.55865">
        <ele>878.3</ele>
        <time>2021-09-07T14:22:30Z</time>
      </trkpt>
      <trkpt lat="44.4058" lon="5.55865">
        <ele>878.3</ele>
        <time>2021-09-07T14:22:31Z</time>
      </trkpt>
      <trkpt lat="44.4058" lon="5.55865">
        <ele>878.3</ele>
        <time>2021-09-07T14:22:32Z</time>
      </trkpt>
      <trkpt lat="44.4058" lon="5.55866">
        <ele>878.9</ele>
        <time>2021-09-07T14:22:33Z</time>
      </trkpt>
      <trkpt lat="44.4058" lon="5.55866">
        <ele>878.9</ele>
        <time>2021-09-07T14:22:34Z</time>
      </trkpt>
      <trkpt lat="44.4058" lon="5.55868">
        <ele>878.9</ele>
        <time>2021-09-07T14:22:35Z</time>
      </trkpt>
      <trkpt lat="44.4058" lon="5.55869">
        <ele>878.9</ele>
        <time>2021-09-07T14:22:36Z</time>
      </trkpt>
      <trkpt lat="44.40579" lon="5.55872">
        <ele>879.4</ele>
        <time>2021-09-07T14:22:37Z</time>
      </trkpt>
      <trkpt lat="44.40579" lon="5.55873">
        <ele>879.4</ele>
        <time>2021-09-07T14:22:38Z</time>
      </trkpt>
      <trkpt lat="44.40579" lon="5.55874">
        <ele>879.9</ele>
        <time>2021-09-07T14:22:39Z</time>
      </trkpt>
      <trkpt lat="44.40579" lon="5.55875">
        <ele>879.9</ele>
        <time>2021-09-07T14:22:40Z</time>
      </trkpt>
      <trkpt lat="44.40578" lon="5.55876">
        <ele>879.9</ele>
        <time>2021-09-07T14:22:41Z</time>
      </trkpt>
      <trkpt lat="44.40578" lon="5.55877">
        <ele>879.9</ele>
        <time>2021-09-07T14:22:42Z</time>
      </trkpt>
      <trkpt lat="44.40578" lon="5.55877">
        <ele>879.9</ele>
        <time>2021-09-07T14:22:43Z</time>
      </trkpt>
      <trkpt lat="44.40578" lon="5.55878">
        <ele>879.9</ele>
        <time>2021-09-07T14:22:44Z</time>
      </trkpt>
      <trkpt lat="44.40578" lon="5.55878">
        <ele>879.9</ele>
        <time>2021-09-07T14:22:45Z</time>
      </trkpt>
      <trkpt lat="44.40578" lon="5.55878">
        <ele>880</ele>
        <time>2021-09-07T14:22:46Z</time>
      </trkpt>
      <trkpt lat="44.40578" lon="5.55878">
        <ele>880</ele>
        <time>2021-09-07T14:22:47Z</time>
      </trkpt>
      <trkpt lat="44.40578" lon="5.55879">
        <ele>880.4</ele>
        <time>2021-09-07T14:22:48Z</time>
      </trkpt>
      <trkpt lat="44.40578" lon="5.55881">
        <ele>880.4</ele>
        <time>2021-09-07T14:22:49Z</time>
      </trkpt>
      <trkpt lat="44.40577" lon="5.55882">
        <ele>880.4</ele>
        <time>2021-09-07T14:22:50Z</time>
      </trkpt>
      <trkpt lat="44.40577" lon="5.55885">
        <ele>880.9</ele>
        <time>2021-09-07T14:22:51Z</time>
      </trkpt>
      <trkpt lat="44.40576" lon="5.55887">
        <ele>881.4</ele>
        <time>2021-09-07T14:22:52Z</time>
      </trkpt>
      <trkpt lat="44.40576" lon="5.55889">
        <ele>881.4</ele>
        <time>2021-09-07T14:22:53Z</time>
      </trkpt>
      <trkpt lat="44.40576" lon="5.5589">
        <ele>881.4</ele>
        <time>2021-09-07T14:22:54Z</time>
      </trkpt>
      <trkpt lat="44.40576" lon="5.5589">
        <ele>881.4</ele>
        <time>2021-09-07T14:22:55Z</time>
      </trkpt>
      <trkpt lat="44.40576" lon="5.55891">
        <ele>881.4</ele>
        <time>2021-09-07T14:22:56Z</time>
      </trkpt>
      <trkpt lat="44.40576" lon="5.55892">
        <ele>881.9</ele>
        <time>2021-09-07T14:22:57Z</time>
      </trkpt>
      <trkpt lat="44.40575" lon="5.55893">
        <ele>882</ele>
        <time>2021-09-07T14:22:58Z</time>
      </trkpt>
      <trkpt lat="44.40575" lon="5.55893">
        <ele>882</ele>
        <time>2021-09-07T14:22:59Z</time>
      </trkpt>
      <trkpt lat="44.40575" lon="5.55893">
        <ele>882</ele>
        <time>2021-09-07T14:23:00Z</time>
      </trkpt>
      <trkpt lat="44.40575" lon="5.55894">
        <ele>882</ele>
        <time>2021-09-07T14:23:01Z</time>
      </trkpt>
      <trkpt lat="44.40575" lon="5.55894">
        <ele>882</ele>
        <time>2021-09-07T14:23:02Z</time>
      </trkpt>
      <trkpt lat="44.40575" lon="5.55894">
        <ele>882</ele>
        <time>2021-09-07T14:23:03Z</time>
      </trkpt>
      <trkpt lat="44.40575" lon="5.55894">
        <ele>882</ele>
        <time>2021-09-07T14:23:04Z</time>
      </trkpt>
      <trkpt lat="44.40575" lon="5.55894">
        <ele>882</ele>
        <time>2021-09-07T14:23:05Z</time>
      </trkpt>
      <trkpt lat="44.40575" lon="5.55894">
        <ele>882</ele>
        <time>2021-09-07T14:23:06Z</time>
      </trkpt>
      <trkpt lat="44.40574" lon="5.55894">
        <ele>882</ele>
        <time>2021-09-07T14:23:07Z</time>
      </trkpt>
      <trkpt lat="44.40574" lon="5.55895">
        <ele>882</ele>
        <time>2021-09-07T14:23:08Z</time>
      </trkpt>
      <trkpt lat="44.40574" lon="5.55895">
        <ele>882</ele>
        <time>2021-09-07T14:23:09Z</time>
      </trkpt>
      <trkpt lat="44.40574" lon="5.55895">
        <ele>882</ele>
        <time>2021-09-07T14:23:10Z</time>
      </trkpt>
      <trkpt lat="44.40574" lon="5.55895">
        <ele>882</ele>
        <time>2021-09-07T14:23:11Z</time>
      </trkpt>
      <trkpt lat="44.40574" lon="5.55895">
        <ele>882</ele>
        <time>2021-09-07T14:23:12Z</time>
      </trkpt>
      <trkpt lat="44.40575" lon="5.55896">
        <ele>882.5</ele>
        <time>2021-09-07T14:23:13Z</time>
      </trkpt>
      <trkpt lat="44.40575" lon="5.55896">
        <ele>882.5</ele>
        <time>2021-09-07T14:23:14Z</time>
      </trkpt>
      <trkpt lat="44.40576" lon="5.55898">
        <ele>882.5</ele>
        <time>2021-09-07T14:23:15Z</time>
      </trkpt>
      <trkpt lat="44.40576" lon="5.55899">
        <ele>882.5</ele>
        <time>2021-09-07T14:23:16Z</time>
      </trkpt>
      <trkpt lat="44.40577" lon="5.559">
        <ele>883.1</ele>
        <time>2021-09-07T14:23:17Z</time>
      </trkpt>
      <trkpt lat="44.40577" lon="5.55902">
        <ele>883.1</ele>
        <time>2021-09-07T14:23:18Z</time>
      </trkpt>
      <trkpt lat="44.40577" lon="5.55903">
        <ele>883.1</ele>
        <time>2021-09-07T14:23:19Z</time>
      </trkpt>
      <trkpt lat="44.40577" lon="5.55903">
        <ele>883.1</ele>
        <time>2021-09-07T14:23:20Z</time>
      </trkpt>
      <trkpt lat="44.40578" lon="5.55904">
        <ele>883.5</ele>
        <time>2021-09-07T14:23:21Z</time>
      </trkpt>
      <trkpt lat="44.40578" lon="5.55905">
        <ele>883.5</ele>
        <time>2021-09-07T14:23:22Z</time>
      </trkpt>
      <trkpt lat="44.40578" lon="5.55906">
        <ele>883.6</ele>
        <time>2021-09-07T14:23:23Z</time>
      </trkpt>
      <trkpt lat="44.40578" lon="5.55906">
        <ele>883.6</ele>
        <time>2021-09-07T14:23:24Z</time>
      </trkpt>
      <trkpt lat="44.40578" lon="5.55906">
        <ele>883.6</ele>
        <time>2021-09-07T14:23:25Z</time>
      </trkpt>
      <trkpt lat="44.40578" lon="5.55906">
        <ele>883.6</ele>
        <time>2021-09-07T14:23:26Z</time>
      </trkpt>
      <trkpt lat="44.40578" lon="5.55907">
        <ele>883.6</ele>
        <time>2021-09-07T14:23:27Z</time>
      </trkpt>
      <trkpt lat="44.40578" lon="5.55907">
        <ele>883.6</ele>
        <time>2021-09-07T14:23:28Z</time>
      </trkpt>
      <trkpt lat="44.40578" lon="5.55907">
        <ele>883.6</ele>
        <time>2021-09-07T14:23:29Z</time>
      </trkpt>
      <trkpt lat="44.40578" lon="5.55908">
        <ele>883.6</ele>
        <time>2021-09-07T14:23:30Z</time>
      </trkpt>
      <trkpt lat="44.40578" lon="5.55908">
        <ele>883.6</ele>
        <time>2021-09-07T14:23:31Z</time>
      </trkpt>
      <trkpt lat="44.40578" lon="5.55908">
        <ele>883.6</ele>
        <time>2021-09-07T14:23:32Z</time>
      </trkpt>
      <trkpt lat="44.40579" lon="5.55908">
        <ele>883.6</ele>
        <time>2021-09-07T14:23:33Z</time>
      </trkpt>
      <trkpt lat="44.40579" lon="5.55908">
        <ele>883.6</ele>
        <time>2021-09-07T14:23:34Z</time>
      </trkpt>
      <trkpt lat="44.40579" lon="5.55909">
        <ele>884.3</ele>
        <time>2021-09-07T14:23:35Z</time>
      </trkpt>
      <trkpt lat="44.40579" lon="5.55909">
        <ele>884.3</ele>
        <time>2021-09-07T14:23:36Z</time>
      </trkpt>
      <trkpt lat="44.40579" lon="5.55909">
        <ele>884.3</ele>
        <time>2021-09-07T14:23:37Z</time>
      </trkpt>
      <trkpt lat="44.40579" lon="5.55909">
        <ele>884.3</ele>
        <time>2021-09-07T14:23:38Z</time>
      </trkpt>
      <trkpt lat="44.40579" lon="5.55909">
        <ele>884.4</ele>
        <time>2021-09-07T14:23:39Z</time>
      </trkpt>
      <trkpt lat="44.40578" lon="5.5591">
        <ele>884.4</ele>
        <time>2021-09-07T14:23:40Z</time>
      </trkpt>
      <trkpt lat="44.40578" lon="5.55912">
        <ele>884.4</ele>
        <time>2021-09-07T14:23:41Z</time>
      </trkpt>
      <trkpt lat="44.40578" lon="5.55914">
        <ele>884.8</ele>
        <time>2021-09-07T14:23:42Z</time>
      </trkpt>
      <trkpt lat="44.40577" lon="5.55916">
        <ele>884.8</ele>
        <time>2021-09-07T14:23:43Z</time>
      </trkpt>
      <trkpt lat="44.40577" lon="5.55918">
        <ele>885.3</ele>
        <time>2021-09-07T14:23:44Z</time>
      </trkpt>
      <trkpt lat="44.40577" lon="5.5592">
        <ele>885.3</ele>
        <time>2021-09-07T14:23:45Z</time>
      </trkpt>
      <trkpt lat="44.40576" lon="5.55921">
        <ele>885.3</ele>
        <time>2021-09-07T14:23:46Z</time>
      </trkpt>
      <trkpt lat="44.40576" lon="5.55922">
        <ele>885.7</ele>
        <time>2021-09-07T14:23:47Z</time>
      </trkpt>
      <trkpt lat="44.40576" lon="5.55923">
        <ele>885.7</ele>
        <time>2021-09-07T14:23:48Z</time>
      </trkpt>
      <trkpt lat="44.40576" lon="5.55923">
        <ele>885.7</ele>
        <time>2021-09-07T14:23:49Z</time>
      </trkpt>
      <trkpt lat="44.40576" lon="5.55923">
        <ele>885.7</ele>
        <time>2021-09-07T14:23:50Z</time>
      </trkpt>
      <trkpt lat="44.40576" lon="5.55923">
        <ele>885.7</ele>
        <time>2021-09-07T14:23:51Z</time>
      </trkpt>
      <trkpt lat="44.40575" lon="5.55923">
        <ele>885.7</ele>
        <time>2021-09-07T14:23:52Z</time>
      </trkpt>
      <trkpt lat="44.40575" lon="5.55923">
        <ele>885.7</ele>
        <time>2021-09-07T14:23:53Z</time>
      </trkpt>
      <trkpt lat="44.40576" lon="5.55924">
        <ele>885.7</ele>
        <time>2021-09-07T14:23:54Z</time>
      </trkpt>
      <trkpt lat="44.40576" lon="5.55925">
        <ele>885.8</ele>
        <time>2021-09-07T14:23:55Z</time>
      </trkpt>
      <trkpt lat="44.40576" lon="5.55926">
        <ele>886.2</ele>
        <time>2021-09-07T14:23:56Z</time>
      </trkpt>
      <trkpt lat="44.40576" lon="5.55929">
        <ele>886.2</ele>
        <time>2021-09-07T14:23:57Z</time>
      </trkpt>
      <trkpt lat="44.40576" lon="5.55931">
        <ele>886.7</ele>
        <time>2021-09-07T14:23:58Z</time>
      </trkpt>
      <trkpt lat="44.40576" lon="5.55933">
        <ele>886.7</ele>
        <time>2021-09-07T14:23:59Z</time>
      </trkpt>
      <trkpt lat="44.40576" lon="5.55934">
        <ele>887.2</ele>
        <time>2021-09-07T14:24:00Z</time>
      </trkpt>
      <trkpt lat="44.40576" lon="5.55936">
        <ele>887.2</ele>
        <time>2021-09-07T14:24:01Z</time>
      </trkpt>
      <trkpt lat="44.40576" lon="5.55937">
        <ele>887.2</ele>
        <time>2021-09-07T14:24:02Z</time>
      </trkpt>
      <trkpt lat="44.40576" lon="5.55937">
        <ele>887.2</ele>
        <time>2021-09-07T14:24:03Z</time>
      </trkpt>
      <trkpt lat="44.40576" lon="5.55937">
        <ele>887.2</ele>
        <time>2021-09-07T14:24:04Z</time>
      </trkpt>
      <trkpt lat="44.40576" lon="5.55937">
        <ele>887.2</ele>
        <time>2021-09-07T14:24:05Z</time>
      </trkpt>
      <trkpt lat="44.40576" lon="5.55938">
        <ele>887.2</ele>
        <time>2021-09-07T14:24:06Z</time>
      </trkpt>
      <trkpt lat="44.40576" lon="5.55939">
        <ele>887.7</ele>
        <time>2021-09-07T14:24:07Z</time>
      </trkpt>
      <trkpt lat="44.40576" lon="5.55941">
        <ele>887.7</ele>
        <time>2021-09-07T14:24:08Z</time>
      </trkpt>
      <trkpt lat="44.40575" lon="5.55944">
        <ele>888.2</ele>
        <time>2021-09-07T14:24:09Z</time>
      </trkpt>
      <trkpt lat="44.40575" lon="5.55946">
        <ele>888.2</ele>
        <time>2021-09-07T14:24:10Z</time>
      </trkpt>
      <trkpt lat="44.40574" lon="5.55947">
        <ele>888.7</ele>
        <time>2021-09-07T14:24:11Z</time>
      </trkpt>
      <trkpt lat="44.40574" lon="5.5595">
        <ele>888.7</ele>
        <time>2021-09-07T14:24:12Z</time>
      </trkpt>
      <trkpt lat="44.40574" lon="5.55951">
        <ele>888.7</ele>
        <time>2021-09-07T14:24:13Z</time>
      </trkpt>
      <trkpt lat="44.40573" lon="5.55952">
        <ele>889.2</ele>
        <time>2021-09-07T14:24:14Z</time>
      </trkpt>
      <trkpt lat="44.40573" lon="5.55952">
        <ele>889.2</ele>
        <time>2021-09-07T14:24:15Z</time>
      </trkpt>
      <trkpt lat="44.40573" lon="5.55952">
        <ele>889.2</ele>
        <time>2021-09-07T14:24:16Z</time>
      </trkpt>
      <trkpt lat="44.40573" lon="5.55953">
        <ele>889.2</ele>
        <time>2021-09-07T14:24:17Z</time>
      </trkpt>
      <trkpt lat="44.40573" lon="5.55953">
        <ele>889.2</ele>
        <time>2021-09-07T14:24:18Z</time>
      </trkpt>
      <trkpt lat="44.40572" lon="5.55953">
        <ele>889.2</ele>
        <time>2021-09-07T14:24:19Z</time>
      </trkpt>
      <trkpt lat="44.40572" lon="5.55953">
        <ele>889.2</ele>
        <time>2021-09-07T14:24:20Z</time>
      </trkpt>
      <trkpt lat="44.40572" lon="5.55954">
        <ele>889.2</ele>
        <time>2021-09-07T14:24:21Z</time>
      </trkpt>
      <trkpt lat="44.40572" lon="5.55954">
        <ele>889.2</ele>
        <time>2021-09-07T14:24:22Z</time>
      </trkpt>
      <trkpt lat="44.40572" lon="5.55954">
        <ele>889.2</ele>
        <time>2021-09-07T14:24:23Z</time>
      </trkpt>
      <trkpt lat="44.40572" lon="5.55954">
        <ele>889.2</ele>
        <time>2021-09-07T14:24:24Z</time>
      </trkpt>
      <trkpt lat="44.40572" lon="5.55954">
        <ele>889.2</ele>
        <time>2021-09-07T14:24:25Z</time>
      </trkpt>
      <trkpt lat="44.40572" lon="5.55954">
        <ele>889.3</ele>
        <time>2021-09-07T14:24:26Z</time>
      </trkpt>
      <trkpt lat="44.40572" lon="5.55954">
        <ele>889.3</ele>
        <time>2021-09-07T14:24:27Z</time>
      </trkpt>
      <trkpt lat="44.40572" lon="5.55954">
        <ele>889.3</ele>
        <time>2021-09-07T14:24:28Z</time>
      </trkpt>
      <trkpt lat="44.40572" lon="5.55954">
        <ele>889.3</ele>
        <time>2021-09-07T14:24:29Z</time>
      </trkpt>
      <trkpt lat="44.40572" lon="5.55954">
        <ele>889.3</ele>
        <time>2021-09-07T14:24:30Z</time>
      </trkpt>
      <trkpt lat="44.40572" lon="5.55954">
        <ele>889.3</ele>
        <time>2021-09-07T14:24:31Z</time>
      </trkpt>
      <trkpt lat="44.40572" lon="5.55955">
        <ele>889.3</ele>
        <time>2021-09-07T14:24:32Z</time>
      </trkpt>
      <trkpt lat="44.40573" lon="5.55955">
        <ele>889.3</ele>
        <time>2021-09-07T14:24:33Z</time>
      </trkpt>
      <trkpt lat="44.40573" lon="5.55955">
        <ele>889.3</ele>
        <time>2021-09-07T14:24:34Z</time>
      </trkpt>
      <trkpt lat="44.40572" lon="5.55956">
        <ele>889.7</ele>
        <time>2021-09-07T14:24:35Z</time>
      </trkpt>
      <trkpt lat="44.40572" lon="5.55957">
        <ele>889.7</ele>
        <time>2021-09-07T14:24:36Z</time>
      </trkpt>
      <trkpt lat="44.40572" lon="5.55957">
        <ele>889.7</ele>
        <time>2021-09-07T14:24:37Z</time>
      </trkpt>
      <trkpt lat="44.40571" lon="5.5596">
        <ele>890.1</ele>
        <time>2021-09-07T14:24:38Z</time>
      </trkpt>
      <trkpt lat="44.40571" lon="5.55962">
        <ele>890.1</ele>
        <time>2021-09-07T14:24:39Z</time>
      </trkpt>
      <trkpt lat="44.4057" lon="5.55964">
        <ele>890.6</ele>
        <time>2021-09-07T14:24:40Z</time>
      </trkpt>
      <trkpt lat="44.4057" lon="5.55965">
        <ele>890.6</ele>
        <time>2021-09-07T14:24:41Z</time>
      </trkpt>
      <trkpt lat="44.4057" lon="5.55966">
        <ele>890.6</ele>
        <time>2021-09-07T14:24:42Z</time>
      </trkpt>
      <trkpt lat="44.4057" lon="5.55966">
        <ele>890.6</ele>
        <time>2021-09-07T14:24:43Z</time>
      </trkpt>
      <trkpt lat="44.4057" lon="5.55967">
        <ele>890.6</ele>
        <time>2021-09-07T14:24:44Z</time>
      </trkpt>
      <trkpt lat="44.4057" lon="5.55968">
        <ele>890.6</ele>
        <time>2021-09-07T14:24:45Z</time>
      </trkpt>
      <trkpt lat="44.40569" lon="5.55968">
        <ele>890.6</ele>
        <time>2021-09-07T14:24:46Z</time>
      </trkpt>
      <trkpt lat="44.40569" lon="5.55968">
        <ele>890.6</ele>
        <time>2021-09-07T14:24:47Z</time>
      </trkpt>
      <trkpt lat="44.40569" lon="5.55968">
        <ele>890.6</ele>
        <time>2021-09-07T14:24:48Z</time>
      </trkpt>
      <trkpt lat="44.40569" lon="5.55969">
        <ele>891</ele>
        <time>2021-09-07T14:24:49Z</time>
      </trkpt>
      <trkpt lat="44.40569" lon="5.55969">
        <ele>891</ele>
        <time>2021-09-07T14:24:50Z</time>
      </trkpt>
      <trkpt lat="44.40569" lon="5.55969">
        <ele>891</ele>
        <time>2021-09-07T14:24:51Z</time>
      </trkpt>
      <trkpt lat="44.40568" lon="5.5597">
        <ele>891</ele>
        <time>2021-09-07T14:24:52Z</time>
      </trkpt>
      <trkpt lat="44.40567" lon="5.55971">
        <ele>891.1</ele>
        <time>2021-09-07T14:24:53Z</time>
      </trkpt>
      <trkpt lat="44.40565" lon="5.55971">
        <ele>891.1</ele>
        <time>2021-09-07T14:24:54Z</time>
      </trkpt>
      <trkpt lat="44.40564" lon="5.55972">
        <ele>891.2</ele>
        <time>2021-09-07T14:24:55Z</time>
      </trkpt>
      <trkpt lat="44.40563" lon="5.55973">
        <ele>891.6</ele>
        <time>2021-09-07T14:24:56Z</time>
      </trkpt>
      <trkpt lat="44.40563" lon="5.55974">
        <ele>891.6</ele>
        <time>2021-09-07T14:24:57Z</time>
      </trkpt>
      <trkpt lat="44.40562" lon="5.55974">
        <ele>891.6</ele>
        <time>2021-09-07T14:24:58Z</time>
      </trkpt>
      <trkpt lat="44.40562" lon="5.55975">
        <ele>891.6</ele>
        <time>2021-09-07T14:24:59Z</time>
      </trkpt>
      <trkpt lat="44.40561" lon="5.55975">
        <ele>891.7</ele>
        <time>2021-09-07T14:25:00Z</time>
      </trkpt>
      <trkpt lat="44.40561" lon="5.55976">
        <ele>891.7</ele>
        <time>2021-09-07T14:25:01Z</time>
      </trkpt>
      <trkpt lat="44.40561" lon="5.55976">
        <ele>891.7</ele>
        <time>2021-09-07T14:25:02Z</time>
      </trkpt>
      <trkpt lat="44.40561" lon="5.55977">
        <ele>891.7</ele>
        <time>2021-09-07T14:25:03Z</time>
      </trkpt>
      <trkpt lat="44.4056" lon="5.55977">
        <ele>892.2</ele>
        <time>2021-09-07T14:25:04Z</time>
      </trkpt>
      <trkpt lat="44.4056" lon="5.55977">
        <ele>892.2</ele>
        <time>2021-09-07T14:25:05Z</time>
      </trkpt>
      <trkpt lat="44.4056" lon="5.55977">
        <ele>892.2</ele>
        <time>2021-09-07T14:25:06Z</time>
      </trkpt>
      <trkpt lat="44.4056" lon="5.55977">
        <ele>892.2</ele>
        <time>2021-09-07T14:25:07Z</time>
      </trkpt>
      <trkpt lat="44.4056" lon="5.55977">
        <ele>892.2</ele>
        <time>2021-09-07T14:25:08Z</time>
      </trkpt>
      <trkpt lat="44.4056" lon="5.55977">
        <ele>892.2</ele>
        <time>2021-09-07T14:25:09Z</time>
      </trkpt>
      <trkpt lat="44.4056" lon="5.55977">
        <ele>892.2</ele>
        <time>2021-09-07T14:25:10Z</time>
      </trkpt>
      <trkpt lat="44.4056" lon="5.55977">
        <ele>892.2</ele>
        <time>2021-09-07T14:25:11Z</time>
      </trkpt>
      <trkpt lat="44.4056" lon="5.55977">
        <ele>892.2</ele>
        <time>2021-09-07T14:25:12Z</time>
      </trkpt>
      <trkpt lat="44.4056" lon="5.55977">
        <ele>892.2</ele>
        <time>2021-09-07T14:25:13Z</time>
      </trkpt>
      <trkpt lat="44.4056" lon="5.55978">
        <ele>892.2</ele>
        <time>2021-09-07T14:25:14Z</time>
      </trkpt>
      <trkpt lat="44.4056" lon="5.55978">
        <ele>892.2</ele>
        <time>2021-09-07T14:25:15Z</time>
      </trkpt>
      <trkpt lat="44.4056" lon="5.55978">
        <ele>892.2</ele>
        <time>2021-09-07T14:25:16Z</time>
      </trkpt>
      <trkpt lat="44.4056" lon="5.55978">
        <ele>892.2</ele>
        <time>2021-09-07T14:25:17Z</time>
      </trkpt>
      <trkpt lat="44.4056" lon="5.55978">
        <ele>892.2</ele>
        <time>2021-09-07T14:25:18Z</time>
      </trkpt>
      <trkpt lat="44.4056" lon="5.55978">
        <ele>892.2</ele>
        <time>2021-09-07T14:25:19Z</time>
      </trkpt>
      <trkpt lat="44.4056" lon="5.55978">
        <ele>892.2</ele>
        <time>2021-09-07T14:25:20Z</time>
      </trkpt>
      <trkpt lat="44.4056" lon="5.55978">
        <ele>892.2</ele>
        <time>2021-09-07T14:25:21Z</time>
      </trkpt>
      <trkpt lat="44.4056" lon="5.55978">
        <ele>892.2</ele>
        <time>2021-09-07T14:25:22Z</time>
      </trkpt>
      <trkpt lat="44.4056" lon="5.55978">
        <ele>892.3</ele>
        <time>2021-09-07T14:25:23Z</time>
      </trkpt>
      <trkpt lat="44.4056" lon="5.55978">
        <ele>892.3</ele>
        <time>2021-09-07T14:25:24Z</time>
      </trkpt>
      <trkpt lat="44.4056" lon="5.55978">
        <ele>892.3</ele>
        <time>2021-09-07T14:25:25Z</time>
      </trkpt>
      <trkpt lat="44.4056" lon="5.55979">
        <ele>892.3</ele>
        <time>2021-09-07T14:25:26Z</time>
      </trkpt>
      <trkpt lat="44.4056" lon="5.55979">
        <ele>892.3</ele>
        <time>2021-09-07T14:25:27Z</time>
      </trkpt>
      <trkpt lat="44.4056" lon="5.55979">
        <ele>892.3</ele>
        <time>2021-09-07T14:25:28Z</time>
      </trkpt>
      <trkpt lat="44.4056" lon="5.55979">
        <ele>892.3</ele>
        <time>2021-09-07T14:25:29Z</time>
      </trkpt>
      <trkpt lat="44.4056" lon="5.55979">
        <ele>892.3</ele>
        <time>2021-09-07T14:25:30Z</time>
      </trkpt>
      <trkpt lat="44.4056" lon="5.55979">
        <ele>892.3</ele>
        <time>2021-09-07T14:25:31Z</time>
      </trkpt>
      <trkpt lat="44.4056" lon="5.55978">
        <ele>892.3</ele>
        <time>2021-09-07T14:25:32Z</time>
      </trkpt>
      <trkpt lat="44.4056" lon="5.55978">
        <ele>892.3</ele>
        <time>2021-09-07T14:25:33Z</time>
      </trkpt>
      <trkpt lat="44.4056" lon="5.55978">
        <ele>892.3</ele>
        <time>2021-09-07T14:25:34Z</time>
      </trkpt>
      <trkpt lat="44.4056" lon="5.55977">
        <ele>892.3</ele>
        <time>2021-09-07T14:25:35Z</time>
      </trkpt>
      <trkpt lat="44.4056" lon="5.55977">
        <ele>892.3</ele>
        <time>2021-09-07T14:25:36Z</time>
      </trkpt>
      <trkpt lat="44.4056" lon="5.55977">
        <ele>892.3</ele>
        <time>2021-09-07T14:25:37Z</time>
      </trkpt>
      <trkpt lat="44.4056" lon="5.55977">
        <ele>892.3</ele>
        <time>2021-09-07T14:25:38Z</time>
      </trkpt>
      <trkpt lat="44.4056" lon="5.55977">
        <ele>892.3</ele>
        <time>2021-09-07T14:25:39Z</time>
      </trkpt>
      <trkpt lat="44.4056" lon="5.55978">
        <ele>892.3</ele>
        <time>2021-09-07T14:25:40Z</time>
      </trkpt>
      <trkpt lat="44.4056" lon="5.55978">
        <ele>892.3</ele>
        <time>2021-09-07T14:25:41Z</time>
      </trkpt>
      <trkpt lat="44.4056" lon="5.55978">
        <ele>892.3</ele>
        <time>2021-09-07T14:25:42Z</time>
      </trkpt>
      <trkpt lat="44.4056" lon="5.55978">
        <ele>892.4</ele>
        <time>2021-09-07T14:25:43Z</time>
      </trkpt>
      <trkpt lat="44.4056" lon="5.55978">
        <ele>892.4</ele>
        <time>2021-09-07T14:25:44Z</time>
      </trkpt>
      <trkpt lat="44.4056" lon="5.55978">
        <ele>892.4</ele>
        <time>2021-09-07T14:25:45Z</time>
      </trkpt>
      <trkpt lat="44.4056" lon="5.55978">
        <ele>892.4</ele>
        <time>2021-09-07T14:25:46Z</time>
      </trkpt>
      <trkpt lat="44.4056" lon="5.55978">
        <ele>892.4</ele>
        <time>2021-09-07T14:25:47Z</time>
      </trkpt>
      <trkpt lat="44.4056" lon="5.55978">
        <ele>892.4</ele>
        <time>2021-09-07T14:25:48Z</time>
      </trkpt>
      <trkpt lat="44.4056" lon="5.55978">
        <ele>892.4</ele>
        <time>2021-09-07T14:25:49Z</time>
      </trkpt>
      <trkpt lat="44.4056" lon="5.55979">
        <ele>892.4</ele>
        <time>2021-09-07T14:25:50Z</time>
      </trkpt>
      <trkpt lat="44.4056" lon="5.55979">
        <ele>892.4</ele>
        <time>2021-09-07T14:25:51Z</time>
      </trkpt>
      <trkpt lat="44.4056" lon="5.55979">
        <ele>892.4</ele>
        <time>2021-09-07T14:25:52Z</time>
      </trkpt>
      <trkpt lat="44.4056" lon="5.55979">
        <ele>892.4</ele>
        <time>2021-09-07T14:25:53Z</time>
      </trkpt>
      <trkpt lat="44.4056" lon="5.55979">
        <ele>892.4</ele>
        <time>2021-09-07T14:25:54Z</time>
      </trkpt>
      <trkpt lat="44.4056" lon="5.55979">
        <ele>892.4</ele>
        <time>2021-09-07T14:25:55Z</time>
      </trkpt>
      <trkpt lat="44.4056" lon="5.55979">
        <ele>892.4</ele>
        <time>2021-09-07T14:25:56Z</time>
      </trkpt>
      <trkpt lat="44.4056" lon="5.55979">
        <ele>892.4</ele>
        <time>2021-09-07T14:25:57Z</time>
      </trkpt>
      <trkpt lat="44.4056" lon="5.55979">
        <ele>892.4</ele>
        <time>2021-09-07T14:25:58Z</time>
      </trkpt>
      <trkpt lat="44.4056" lon="5.55979">
        <ele>892.4</ele>
        <time>2021-09-07T14:25:59Z</time>
      </trkpt>
      <trkpt lat="44.4056" lon="5.55979">
        <ele>892.4</ele>
        <time>2021-09-07T14:26:00Z</time>
      </trkpt>
      <trkpt lat="44.4056" lon="5.55979">
        <ele>892.4</ele>
        <time>2021-09-07T14:26:01Z</time>
      </trkpt>
      <trkpt lat="44.4056" lon="5.55979">
        <ele>892.5</ele>
        <time>2021-09-07T14:26:02Z</time>
      </trkpt>
      <trkpt lat="44.4056" lon="5.55979">
        <ele>892.5</ele>
        <time>2021-09-07T14:26:03Z</time>
      </trkpt>
      <trkpt lat="44.4056" lon="5.55979">
        <ele>892.5</ele>
        <time>2021-09-07T14:26:04Z</time>
      </trkpt>
      <trkpt lat="44.4056" lon="5.55979">
        <ele>892.5</ele>
        <time>2021-09-07T14:26:05Z</time>
      </trkpt>
      <trkpt lat="44.4056" lon="5.55979">
        <ele>892.5</ele>
        <time>2021-09-07T14:26:06Z</time>
      </trkpt>
      <trkpt lat="44.4056" lon="5.55979">
        <ele>892.5</ele>
        <time>2021-09-07T14:26:07Z</time>
      </trkpt>
      <trkpt lat="44.4056" lon="5.55979">
        <ele>892.5</ele>
        <time>2021-09-07T14:26:08Z</time>
      </trkpt>
      <trkpt lat="44.4056" lon="5.55979">
        <ele>892.5</ele>
        <time>2021-09-07T14:26:09Z</time>
      </trkpt>
      <trkpt lat="44.4056" lon="5.55979">
        <ele>892.5</ele>
        <time>2021-09-07T14:26:10Z</time>
      </trkpt>
      <trkpt lat="44.4056" lon="5.55979">
        <ele>892.5</ele>
        <time>2021-09-07T14:26:11Z</time>
      </trkpt>
      <trkpt lat="44.4056" lon="5.55979">
        <ele>892.5</ele>
        <time>2021-09-07T14:26:12Z</time>
      </trkpt>
      <trkpt lat="44.4056" lon="5.55979">
        <ele>892.5</ele>
        <time>2021-09-07T14:26:13Z</time>
      </trkpt>
      <trkpt lat="44.4056" lon="5.55979">
        <ele>892.5</ele>
        <time>2021-09-07T14:26:14Z</time>
      </trkpt>
      <trkpt lat="44.4056" lon="5.55979">
        <ele>892.5</ele>
        <time>2021-09-07T14:26:15Z</time>
      </trkpt>
      <trkpt lat="44.4056" lon="5.55979">
        <ele>892.5</ele>
        <time>2021-09-07T14:26:16Z</time>
      </trkpt>
      <trkpt lat="44.4056" lon="5.55978">
        <ele>892.5</ele>
        <time>2021-09-07T14:26:17Z</time>
      </trkpt>
      <trkpt lat="44.4056" lon="5.55978">
        <ele>892.5</ele>
        <time>2021-09-07T14:26:18Z</time>
      </trkpt>
      <trkpt lat="44.4056" lon="5.55979">
        <ele>892.5</ele>
        <time>2021-09-07T14:26:19Z</time>
      </trkpt>
      <trkpt lat="44.4056" lon="5.55979">
        <ele>892.5</ele>
        <time>2021-09-07T14:26:20Z</time>
      </trkpt>
      <trkpt lat="44.4056" lon="5.55979">
        <ele>892.6</ele>
        <time>2021-09-07T14:26:21Z</time>
      </trkpt>
      <trkpt lat="44.4056" lon="5.55979">
        <ele>892.6</ele>
        <time>2021-09-07T14:26:22Z</time>
      </trkpt>
      <trkpt lat="44.4056" lon="5.55979">
        <ele>892.6</ele>
        <time>2021-09-07T14:26:23Z</time>
      </trkpt>
      <trkpt lat="44.4056" lon="5.55979">
        <ele>892.6</ele>
        <time>2021-09-07T14:26:24Z</time>
      </trkpt>
      <trkpt lat="44.40559" lon="5.5598">
        <ele>892.6</ele>
        <time>2021-09-07T14:26:25Z</time>
      </trkpt>
      <trkpt lat="44.40557" lon="5.55981">
        <ele>892.8</ele>
        <time>2021-09-07T14:26:26Z</time>
      </trkpt>
      <trkpt lat="44.40555" lon="5.55982">
        <ele>893</ele>
        <time>2021-09-07T14:26:27Z</time>
      </trkpt>
      <trkpt lat="44.40554" lon="5.55983">
        <ele>893.1</ele>
        <time>2021-09-07T14:26:28Z</time>
      </trkpt>
      <trkpt lat="44.40553" lon="5.55983">
        <ele>893.2</ele>
        <time>2021-09-07T14:26:29Z</time>
      </trkpt>
      <trkpt lat="44.40553" lon="5.55984">
        <ele>893.3</ele>
        <time>2021-09-07T14:26:30Z</time>
      </trkpt>
      <trkpt lat="44.40552" lon="5.55984">
        <ele>893.4</ele>
        <time>2021-09-07T14:26:31Z</time>
      </trkpt>
      <trkpt lat="44.40552" lon="5.55985">
        <ele>893.4</ele>
        <time>2021-09-07T14:26:32Z</time>
      </trkpt>
      <trkpt lat="44.40552" lon="5.55985">
        <ele>893.5</ele>
        <time>2021-09-07T14:26:33Z</time>
      </trkpt>
      <trkpt lat="44.40551" lon="5.55985">
        <ele>893.6</ele>
        <time>2021-09-07T14:26:34Z</time>
      </trkpt>
      <trkpt lat="44.40551" lon="5.55985">
        <ele>893.6</ele>
        <time>2021-09-07T14:26:35Z</time>
      </trkpt>
      <trkpt lat="44.40551" lon="5.55986">
        <ele>893.6</ele>
        <time>2021-09-07T14:26:36Z</time>
      </trkpt>
      <trkpt lat="44.40551" lon="5.55986">
        <ele>893.7</ele>
        <time>2021-09-07T14:26:37Z</time>
      </trkpt>
      <trkpt lat="44.4055" lon="5.55986">
        <ele>893.8</ele>
        <time>2021-09-07T14:26:38Z</time>
      </trkpt>
      <trkpt lat="44.4055" lon="5.55986">
        <ele>893.8</ele>
        <time>2021-09-07T14:26:39Z</time>
      </trkpt>
      <trkpt lat="44.4055" lon="5.55986">
        <ele>893.8</ele>
        <time>2021-09-07T14:26:40Z</time>
      </trkpt>
      <trkpt lat="44.4055" lon="5.55986">
        <ele>893.8</ele>
        <time>2021-09-07T14:26:41Z</time>
      </trkpt>
      <trkpt lat="44.4055" lon="5.55986">
        <ele>893.8</ele>
        <time>2021-09-07T14:26:42Z</time>
      </trkpt>
      <trkpt lat="44.4055" lon="5.55986">
        <ele>893.8</ele>
        <time>2021-09-07T14:26:43Z</time>
      </trkpt>
      <trkpt lat="44.4055" lon="5.55986">
        <ele>893.8</ele>
        <time>2021-09-07T14:26:44Z</time>
      </trkpt>
      <trkpt lat="44.4055" lon="5.55986">
        <ele>893.8</ele>
        <time>2021-09-07T14:26:45Z</time>
      </trkpt>
      <trkpt lat="44.4055" lon="5.55986">
        <ele>893.8</ele>
        <time>2021-09-07T14:26:46Z</time>
      </trkpt>
      <trkpt lat="44.4055" lon="5.55986">
        <ele>893.8</ele>
        <time>2021-09-07T14:26:47Z</time>
      </trkpt>
      <trkpt lat="44.4055" lon="5.55986">
        <ele>893.8</ele>
        <time>2021-09-07T14:26:48Z</time>
      </trkpt>
      <trkpt lat="44.4055" lon="5.55986">
        <ele>893.8</ele>
        <time>2021-09-07T14:26:49Z</time>
      </trkpt>
      <trkpt lat="44.4055" lon="5.55986">
        <ele>893.8</ele>
        <time>2021-09-07T14:26:50Z</time>
      </trkpt>
      <trkpt lat="44.4055" lon="5.55986">
        <ele>893.8</ele>
        <time>2021-09-07T14:26:51Z</time>
      </trkpt>
      <trkpt lat="44.4055" lon="5.55986">
        <ele>893.8</ele>
        <time>2021-09-07T14:26:52Z</time>
      </trkpt>
      <trkpt lat="44.4055" lon="5.55986">
        <ele>893.8</ele>
        <time>2021-09-07T14:26:53Z</time>
      </trkpt>
      <trkpt lat="44.4055" lon="5.55986">
        <ele>893.8</ele>
        <time>2021-09-07T14:26:54Z</time>
      </trkpt>
      <trkpt lat="44.4055" lon="5.55986">
        <ele>893.8</ele>
        <time>2021-09-07T14:26:55Z</time>
      </trkpt>
      <trkpt lat="44.4055" lon="5.55986">
        <ele>893.8</ele>
        <time>2021-09-07T14:26:56Z</time>
      </trkpt>
      <trkpt lat="44.4055" lon="5.55986">
        <ele>893.8</ele>
        <time>2021-09-07T14:26:57Z</time>
      </trkpt>
      <trkpt lat="44.4055" lon="5.55986">
        <ele>893.8</ele>
        <time>2021-09-07T14:26:58Z</time>
      </trkpt>
      <trkpt lat="44.4055" lon="5.55986">
        <ele>893.8</ele>
        <time>2021-09-07T14:26:59Z</time>
      </trkpt>
      <trkpt lat="44.4055" lon="5.55986">
        <ele>893.8</ele>
        <time>2021-09-07T14:27:00Z</time>
      </trkpt>
      <trkpt lat="44.4055" lon="5.55986">
        <ele>893.8</ele>
        <time>2021-09-07T14:27:01Z</time>
      </trkpt>
      <trkpt lat="44.4055" lon="5.55986">
        <ele>893.8</ele>
        <time>2021-09-07T14:27:02Z</time>
      </trkpt>
      <trkpt lat="44.4055" lon="5.55986">
        <ele>893.8</ele>
        <time>2021-09-07T14:27:03Z</time>
      </trkpt>
      <trkpt lat="44.4055" lon="5.55986">
        <ele>893.8</ele>
        <time>2021-09-07T14:27:04Z</time>
      </trkpt>
      <trkpt lat="44.4055" lon="5.55986">
        <ele>893.8</ele>
        <time>2021-09-07T14:27:05Z</time>
      </trkpt>
      <trkpt lat="44.40549" lon="5.55986">
        <ele>893.9</ele>
        <time>2021-09-07T14:27:06Z</time>
      </trkpt>
      <trkpt lat="44.40549" lon="5.55986">
        <ele>893.9</ele>
        <time>2021-09-07T14:27:07Z</time>
      </trkpt>
      <trkpt lat="44.40549" lon="5.55986">
        <ele>893.9</ele>
        <time>2021-09-07T14:27:08Z</time>
      </trkpt>
      <trkpt lat="44.40549" lon="5.55986">
        <ele>893.9</ele>
        <time>2021-09-07T14:27:09Z</time>
      </trkpt>
      <trkpt lat="44.40549" lon="5.55986">
        <ele>893.9</ele>
        <time>2021-09-07T14:27:10Z</time>
      </trkpt>
      <trkpt lat="44.40549" lon="5.55986">
        <ele>893.9</ele>
        <time>2021-09-07T14:27:11Z</time>
      </trkpt>
      <trkpt lat="44.40549" lon="5.55987">
        <ele>894</ele>
        <time>2021-09-07T14:27:12Z</time>
      </trkpt>
      <trkpt lat="44.40549" lon="5.55987">
        <ele>894</ele>
        <time>2021-09-07T14:27:13Z</time>
      </trkpt>
      <trkpt lat="44.40549" lon="5.55987">
        <ele>894</ele>
        <time>2021-09-07T14:27:14Z</time>
      </trkpt>
      <trkpt lat="44.40549" lon="5.55987">
        <ele>894</ele>
        <time>2021-09-07T14:27:15Z</time>
      </trkpt>
      <trkpt lat="44.40549" lon="5.55987">
        <ele>894</ele>
        <time>2021-09-07T14:27:16Z</time>
      </trkpt>
      <trkpt lat="44.40548" lon="5.55987">
        <ele>894.1</ele>
        <time>2021-09-07T14:27:17Z</time>
      </trkpt>
      <trkpt lat="44.40546" lon="5.55988">
        <ele>894.3</ele>
        <time>2021-09-07T14:27:18Z</time>
      </trkpt>
      <trkpt lat="44.40546" lon="5.55989">
        <ele>894.4</ele>
        <time>2021-09-07T14:27:19Z</time>
      </trkpt>
      <trkpt lat="44.40545" lon="5.55989">
        <ele>894.4</ele>
        <time>2021-09-07T14:27:20Z</time>
      </trkpt>
      <trkpt lat="44.40542" lon="5.5599">
        <ele>894.8</ele>
        <time>2021-09-07T14:27:21Z</time>
      </trkpt>
      <trkpt lat="44.40541" lon="5.5599">
        <ele>894.9</ele>
        <time>2021-09-07T14:27:22Z</time>
      </trkpt>
      <trkpt lat="44.40539" lon="5.5599">
        <ele>895.1</ele>
        <time>2021-09-07T14:27:23Z</time>
      </trkpt>
      <trkpt lat="44.40538" lon="5.5599">
        <ele>895.2</ele>
        <time>2021-09-07T14:27:24Z</time>
      </trkpt>
      <trkpt lat="44.40537" lon="5.5599">
        <ele>895.3</ele>
        <time>2021-09-07T14:27:25Z</time>
      </trkpt>
      <trkpt lat="44.40536" lon="5.55989">
        <ele>895.5</ele>
        <time>2021-09-07T14:27:26Z</time>
      </trkpt>
      <trkpt lat="44.40535" lon="5.55989">
        <ele>895.6</ele>
        <time>2021-09-07T14:27:27Z</time>
      </trkpt>
      <trkpt lat="44.40535" lon="5.55989">
        <ele>895.6</ele>
        <time>2021-09-07T14:27:28Z</time>
      </trkpt>
      <trkpt lat="44.40534" lon="5.55989">
        <ele>895.7</ele>
        <time>2021-09-07T14:27:29Z</time>
      </trkpt>
      <trkpt lat="44.40533" lon="5.55988">
        <ele>895.8</ele>
        <time>2021-09-07T14:27:30Z</time>
      </trkpt>
      <trkpt lat="44.40533" lon="5.55988">
        <ele>895.9</ele>
        <time>2021-09-07T14:27:31Z</time>
      </trkpt>
      <trkpt lat="44.40532" lon="5.55988">
        <ele>895.9</ele>
        <time>2021-09-07T14:27:32Z</time>
      </trkpt>
      <trkpt lat="44.40531" lon="5.55988">
        <ele>896</ele>
        <time>2021-09-07T14:27:33Z</time>
      </trkpt>
      <trkpt lat="44.4053" lon="5.55988">
        <ele>896.1</ele>
        <time>2021-09-07T14:27:34Z</time>
      </trkpt>
      <trkpt lat="44.4053" lon="5.55988">
        <ele>896.2</ele>
        <time>2021-09-07T14:27:35Z</time>
      </trkpt>
      <trkpt lat="44.4053" lon="5.55987">
        <ele>896.2</ele>
        <time>2021-09-07T14:27:36Z</time>
      </trkpt>
      <trkpt lat="44.4053" lon="5.55987">
        <ele>896.2</ele>
        <time>2021-09-07T14:27:37Z</time>
      </trkpt>
      <trkpt lat="44.40529" lon="5.55987">
        <ele>896.3</ele>
        <time>2021-09-07T14:27:38Z</time>
      </trkpt>
      <trkpt lat="44.40529" lon="5.55987">
        <ele>896.3</ele>
        <time>2021-09-07T14:27:39Z</time>
      </trkpt>
      <trkpt lat="44.40527" lon="5.55988">
        <ele>896.5</ele>
        <time>2021-09-07T14:27:40Z</time>
      </trkpt>
      <trkpt lat="44.40526" lon="5.55989">
        <ele>896.6</ele>
        <time>2021-09-07T14:27:41Z</time>
      </trkpt>
      <trkpt lat="44.40525" lon="5.55989">
        <ele>896.7</ele>
        <time>2021-09-07T14:27:42Z</time>
      </trkpt>
      <trkpt lat="44.40524" lon="5.5599">
        <ele>896.8</ele>
        <time>2021-09-07T14:27:43Z</time>
      </trkpt>
      <trkpt lat="44.40522" lon="5.55991">
        <ele>897</ele>
        <time>2021-09-07T14:27:44Z</time>
      </trkpt>
      <trkpt lat="44.40521" lon="5.55991">
        <ele>897.1</ele>
        <time>2021-09-07T14:27:45Z</time>
      </trkpt>
      <trkpt lat="44.40521" lon="5.55992">
        <ele>897.2</ele>
        <time>2021-09-07T14:27:46Z</time>
      </trkpt>
      <trkpt lat="44.40521" lon="5.55992">
        <ele>897.2</ele>
        <time>2021-09-07T14:27:47Z</time>
      </trkpt>
      <trkpt lat="44.4052" lon="5.55992">
        <ele>897.3</ele>
        <time>2021-09-07T14:27:48Z</time>
      </trkpt>
      <trkpt lat="44.40519" lon="5.55993">
        <ele>897.4</ele>
        <time>2021-09-07T14:27:49Z</time>
      </trkpt>
      <trkpt lat="44.40519" lon="5.55993">
        <ele>897.4</ele>
        <time>2021-09-07T14:27:50Z</time>
      </trkpt>
      <trkpt lat="44.40519" lon="5.55993">
        <ele>897.4</ele>
        <time>2021-09-07T14:27:51Z</time>
      </trkpt>
      <trkpt lat="44.40518" lon="5.55993">
        <ele>897.5</ele>
        <time>2021-09-07T14:27:52Z</time>
      </trkpt>
      <trkpt lat="44.40518" lon="5.55994">
        <ele>897.6</ele>
        <time>2021-09-07T14:27:53Z</time>
      </trkpt>
      <trkpt lat="44.40517" lon="5.55994">
        <ele>897.6</ele>
        <time>2021-09-07T14:27:54Z</time>
      </trkpt>
      <trkpt lat="44.40516" lon="5.55995">
        <ele>897.7</ele>
        <time>2021-09-07T14:27:55Z</time>
      </trkpt>
      <trkpt lat="44.40515" lon="5.55995">
        <ele>897.8</ele>
        <time>2021-09-07T14:27:56Z</time>
      </trkpt>
      <trkpt lat="44.40514" lon="5.55996">
        <ele>898</ele>
        <time>2021-09-07T14:27:57Z</time>
      </trkpt>
      <trkpt lat="44.40513" lon="5.55996">
        <ele>898.1</ele>
        <time>2021-09-07T14:27:58Z</time>
      </trkpt>
      <trkpt lat="44.40512" lon="5.55997">
        <ele>898.2</ele>
        <time>2021-09-07T14:27:59Z</time>
      </trkpt>
      <trkpt lat="44.40512" lon="5.55998">
        <ele>898.3</ele>
        <time>2021-09-07T14:28:00Z</time>
      </trkpt>
      <trkpt lat="44.40511" lon="5.55998">
        <ele>898.3</ele>
        <time>2021-09-07T14:28:01Z</time>
      </trkpt>
      <trkpt lat="44.40511" lon="5.55998">
        <ele>898.4</ele>
        <time>2021-09-07T14:28:02Z</time>
      </trkpt>
      <trkpt lat="44.4051" lon="5.55998">
        <ele>898.4</ele>
        <time>2021-09-07T14:28:03Z</time>
      </trkpt>
      <trkpt lat="44.4051" lon="5.55998">
        <ele>898.4</ele>
        <time>2021-09-07T14:28:04Z</time>
      </trkpt>
      <trkpt lat="44.4051" lon="5.55998">
        <ele>898.4</ele>
        <time>2021-09-07T14:28:05Z</time>
      </trkpt>
      <trkpt lat="44.40509" lon="5.55998">
        <ele>898.5</ele>
        <time>2021-09-07T14:28:06Z</time>
      </trkpt>
      <trkpt lat="44.40509" lon="5.55998">
        <ele>898.5</ele>
        <time>2021-09-07T14:28:07Z</time>
      </trkpt>
      <trkpt lat="44.40509" lon="5.55998">
        <ele>898.5</ele>
        <time>2021-09-07T14:28:08Z</time>
      </trkpt>
      <trkpt lat="44.40509" lon="5.55998">
        <ele>898.5</ele>
        <time>2021-09-07T14:28:09Z</time>
      </trkpt>
      <trkpt lat="44.40508" lon="5.55998">
        <ele>898.6</ele>
        <time>2021-09-07T14:28:10Z</time>
      </trkpt>
      <trkpt lat="44.40508" lon="5.55998">
        <ele>898.6</ele>
        <time>2021-09-07T14:28:11Z</time>
      </trkpt>
      <trkpt lat="44.40508" lon="5.55998">
        <ele>898.6</ele>
        <time>2021-09-07T14:28:12Z</time>
      </trkpt>
      <trkpt lat="44.40508" lon="5.55998">
        <ele>898.6</ele>
        <time>2021-09-07T14:28:13Z</time>
      </trkpt>
      <trkpt lat="44.40508" lon="5.55998">
        <ele>898.6</ele>
        <time>2021-09-07T14:28:14Z</time>
      </trkpt>
      <trkpt lat="44.40508" lon="5.55998">
        <ele>898.6</ele>
        <time>2021-09-07T14:28:15Z</time>
      </trkpt>
      <trkpt lat="44.40508" lon="5.55998">
        <ele>898.6</ele>
        <time>2021-09-07T14:28:16Z</time>
      </trkpt>
      <trkpt lat="44.40508" lon="5.55998">
        <ele>898.6</ele>
        <time>2021-09-07T14:28:17Z</time>
      </trkpt>
      <trkpt lat="44.40508" lon="5.55999">
        <ele>898.7</ele>
        <time>2021-09-07T14:28:18Z</time>
      </trkpt>
      <trkpt lat="44.40507" lon="5.55999">
        <ele>898.8</ele>
        <time>2021-09-07T14:28:19Z</time>
      </trkpt>
      <trkpt lat="44.40506" lon="5.56">
        <ele>898.9</ele>
        <time>2021-09-07T14:28:20Z</time>
      </trkpt>
      <trkpt lat="44.40505" lon="5.56">
        <ele>899</ele>
        <time>2021-09-07T14:28:21Z</time>
      </trkpt>
      <trkpt lat="44.40504" lon="5.56">
        <ele>899.1</ele>
        <time>2021-09-07T14:28:22Z</time>
      </trkpt>
      <trkpt lat="44.40503" lon="5.56001">
        <ele>899.2</ele>
        <time>2021-09-07T14:28:23Z</time>
      </trkpt>
      <trkpt lat="44.40502" lon="5.56001">
        <ele>899.3</ele>
        <time>2021-09-07T14:28:24Z</time>
      </trkpt>
      <trkpt lat="44.40501" lon="5.56001">
        <ele>899.4</ele>
        <time>2021-09-07T14:28:25Z</time>
      </trkpt>
      <trkpt lat="44.405" lon="5.56002">
        <ele>899.6</ele>
        <time>2021-09-07T14:28:26Z</time>
      </trkpt>
      <trkpt lat="44.40499" lon="5.56003">
        <ele>899.7</ele>
        <time>2021-09-07T14:28:27Z</time>
      </trkpt>
      <trkpt lat="44.40498" lon="5.56004">
        <ele>899.9</ele>
        <time>2021-09-07T14:28:28Z</time>
      </trkpt>
      <trkpt lat="44.40496" lon="5.56005">
        <ele>900.1</ele>
        <time>2021-09-07T14:28:29Z</time>
      </trkpt>
      <trkpt lat="44.40494" lon="5.56006">
        <ele>900.3</ele>
        <time>2021-09-07T14:28:30Z</time>
      </trkpt>
      <trkpt lat="44.40493" lon="5.56007">
        <ele>900.4</ele>
        <time>2021-09-07T14:28:31Z</time>
      </trkpt>
      <trkpt lat="44.40492" lon="5.56008">
        <ele>900.6</ele>
        <time>2021-09-07T14:28:32Z</time>
      </trkpt>
      <trkpt lat="44.4049" lon="5.56009">
        <ele>900.8</ele>
        <time>2021-09-07T14:28:33Z</time>
      </trkpt>
      <trkpt lat="44.40489" lon="5.5601">
        <ele>900.9</ele>
        <time>2021-09-07T14:28:34Z</time>
      </trkpt>
      <trkpt lat="44.40489" lon="5.56011">
        <ele>901</ele>
        <time>2021-09-07T14:28:35Z</time>
      </trkpt>
      <trkpt lat="44.40488" lon="5.56012">
        <ele>901.1</ele>
        <time>2021-09-07T14:28:36Z</time>
      </trkpt>
      <trkpt lat="44.40487" lon="5.56012">
        <ele>901.2</ele>
        <time>2021-09-07T14:28:37Z</time>
      </trkpt>
      <trkpt lat="44.40486" lon="5.56013">
        <ele>901.3</ele>
        <time>2021-09-07T14:28:38Z</time>
      </trkpt>
      <trkpt lat="44.40485" lon="5.56014">
        <ele>901.4</ele>
        <time>2021-09-07T14:28:39Z</time>
      </trkpt>
      <trkpt lat="44.40485" lon="5.56014">
        <ele>901.4</ele>
        <time>2021-09-07T14:28:40Z</time>
      </trkpt>
      <trkpt lat="44.40485" lon="5.56015">
        <ele>901.5</ele>
        <time>2021-09-07T14:28:41Z</time>
      </trkpt>
      <trkpt lat="44.40485" lon="5.56015">
        <ele>901.5</ele>
        <time>2021-09-07T14:28:42Z</time>
      </trkpt>
      <trkpt lat="44.40485" lon="5.56015">
        <ele>901.5</ele>
        <time>2021-09-07T14:28:43Z</time>
      </trkpt>
      <trkpt lat="44.40485" lon="5.56017">
        <ele>901.6</ele>
        <time>2021-09-07T14:28:44Z</time>
      </trkpt>
      <trkpt lat="44.40484" lon="5.56018">
        <ele>901.8</ele>
        <time>2021-09-07T14:28:45Z</time>
      </trkpt>
      <trkpt lat="44.40483" lon="5.56019">
        <ele>901.9</ele>
        <time>2021-09-07T14:28:46Z</time>
      </trkpt>
      <trkpt lat="44.40483" lon="5.5602">
        <ele>902</ele>
        <time>2021-09-07T14:28:47Z</time>
      </trkpt>
      <trkpt lat="44.40482" lon="5.56022">
        <ele>902.1</ele>
        <time>2021-09-07T14:28:48Z</time>
      </trkpt>
      <trkpt lat="44.40482" lon="5.56023">
        <ele>902.2</ele>
        <time>2021-09-07T14:28:49Z</time>
      </trkpt>
      <trkpt lat="44.40481" lon="5.56025">
        <ele>902.4</ele>
        <time>2021-09-07T14:28:50Z</time>
      </trkpt>
      <trkpt lat="44.40481" lon="5.56026">
        <ele>902.5</ele>
        <time>2021-09-07T14:28:51Z</time>
      </trkpt>
      <trkpt lat="44.40481" lon="5.56027">
        <ele>902.6</ele>
        <time>2021-09-07T14:28:52Z</time>
      </trkpt>
      <trkpt lat="44.40481" lon="5.56028">
        <ele>902.6</ele>
        <time>2021-09-07T14:28:53Z</time>
      </trkpt>
      <trkpt lat="44.40481" lon="5.56028">
        <ele>902.6</ele>
        <time>2021-09-07T14:28:54Z</time>
      </trkpt>
      <trkpt lat="44.40481" lon="5.56029">
        <ele>902.7</ele>
        <time>2021-09-07T14:28:55Z</time>
      </trkpt>
      <trkpt lat="44.40481" lon="5.56029">
        <ele>902.7</ele>
        <time>2021-09-07T14:28:56Z</time>
      </trkpt>
      <trkpt lat="44.40481" lon="5.56029">
        <ele>902.7</ele>
        <time>2021-09-07T14:28:57Z</time>
      </trkpt>
      <trkpt lat="44.40481" lon="5.56029">
        <ele>902.7</ele>
        <time>2021-09-07T14:28:58Z</time>
      </trkpt>
      <trkpt lat="44.40481" lon="5.56029">
        <ele>902.7</ele>
        <time>2021-09-07T14:28:59Z</time>
      </trkpt>
      <trkpt lat="44.40481" lon="5.56029">
        <ele>902.7</ele>
        <time>2021-09-07T14:29:00Z</time>
      </trkpt>
      <trkpt lat="44.40481" lon="5.56029">
        <ele>902.7</ele>
        <time>2021-09-07T14:29:01Z</time>
      </trkpt>
      <trkpt lat="44.40481" lon="5.56029">
        <ele>902.7</ele>
        <time>2021-09-07T14:29:02Z</time>
      </trkpt>
      <trkpt lat="44.40481" lon="5.56029">
        <ele>902.7</ele>
        <time>2021-09-07T14:29:03Z</time>
      </trkpt>
      <trkpt lat="44.40481" lon="5.56029">
        <ele>902.7</ele>
        <time>2021-09-07T14:29:04Z</time>
      </trkpt>
      <trkpt lat="44.40481" lon="5.56029">
        <ele>902.7</ele>
        <time>2021-09-07T14:29:05Z</time>
      </trkpt>
      <trkpt lat="44.40481" lon="5.56029">
        <ele>902.7</ele>
        <time>2021-09-07T14:29:06Z</time>
      </trkpt>
      <trkpt lat="44.40481" lon="5.5603">
        <ele>902.8</ele>
        <time>2021-09-07T14:29:07Z</time>
      </trkpt>
      <trkpt lat="44.4048" lon="5.56031">
        <ele>902.9</ele>
        <time>2021-09-07T14:29:08Z</time>
      </trkpt>
      <trkpt lat="44.40479" lon="5.56032">
        <ele>903</ele>
        <time>2021-09-07T14:29:09Z</time>
      </trkpt>
      <trkpt lat="44.40479" lon="5.56033">
        <ele>903.1</ele>
        <time>2021-09-07T14:29:10Z</time>
      </trkpt>
      <trkpt lat="44.40478" lon="5.56034">
        <ele>903.2</ele>
        <time>2021-09-07T14:29:11Z</time>
      </trkpt>
      <trkpt lat="44.40476" lon="5.56037">
        <ele>903.5</ele>
        <time>2021-09-07T14:29:12Z</time>
      </trkpt>
      <trkpt lat="44.40476" lon="5.56038">
        <ele>903.6</ele>
        <time>2021-09-07T14:29:13Z</time>
      </trkpt>
      <trkpt lat="44.40475" lon="5.56039">
        <ele>903.7</ele>
        <time>2021-09-07T14:29:14Z</time>
      </trkpt>
      <trkpt lat="44.40474" lon="5.56041">
        <ele>903.9</ele>
        <time>2021-09-07T14:29:15Z</time>
      </trkpt>
      <trkpt lat="44.40473" lon="5.56042">
        <ele>904</ele>
        <time>2021-09-07T14:29:16Z</time>
      </trkpt>
      <trkpt lat="44.40473" lon="5.56043">
        <ele>904.1</ele>
        <time>2021-09-07T14:29:17Z</time>
      </trkpt>
      <trkpt lat="44.40473" lon="5.56043">
        <ele>904.1</ele>
        <time>2021-09-07T14:29:18Z</time>
      </trkpt>
      <trkpt lat="44.40473" lon="5.56044">
        <ele>904.2</ele>
        <time>2021-09-07T14:29:19Z</time>
      </trkpt>
      <trkpt lat="44.40473" lon="5.56045">
        <ele>904.3</ele>
        <time>2021-09-07T14:29:20Z</time>
      </trkpt>
      <trkpt lat="44.40472" lon="5.56046">
        <ele>904.4</ele>
        <time>2021-09-07T14:29:21Z</time>
      </trkpt>
      <trkpt lat="44.40472" lon="5.56047">
        <ele>904.4</ele>
        <time>2021-09-07T14:29:22Z</time>
      </trkpt>
      <trkpt lat="44.40472" lon="5.56047">
        <ele>904.5</ele>
        <time>2021-09-07T14:29:23Z</time>
      </trkpt>
      <trkpt lat="44.40471" lon="5.5605">
        <ele>904.7</ele>
        <time>2021-09-07T14:29:24Z</time>
      </trkpt>
      <trkpt lat="44.4047" lon="5.56053">
        <ele>905</ele>
        <time>2021-09-07T14:29:25Z</time>
      </trkpt>
      <trkpt lat="44.40469" lon="5.56055">
        <ele>905.2</ele>
        <time>2021-09-07T14:29:26Z</time>
      </trkpt>
      <trkpt lat="44.40468" lon="5.56057">
        <ele>905.5</ele>
        <time>2021-09-07T14:29:27Z</time>
      </trkpt>
      <trkpt lat="44.40468" lon="5.56058">
        <ele>905.6</ele>
        <time>2021-09-07T14:29:28Z</time>
      </trkpt>
      <trkpt lat="44.40467" lon="5.56059">
        <ele>905.7</ele>
        <time>2021-09-07T14:29:29Z</time>
      </trkpt>
      <trkpt lat="44.40467" lon="5.5606">
        <ele>905.8</ele>
        <time>2021-09-07T14:29:30Z</time>
      </trkpt>
      <trkpt lat="44.40466" lon="5.56062">
        <ele>906</ele>
        <time>2021-09-07T14:29:31Z</time>
      </trkpt>
      <trkpt lat="44.40465" lon="5.56065">
        <ele>906.3</ele>
        <time>2021-09-07T14:29:32Z</time>
      </trkpt>
      <trkpt lat="44.40465" lon="5.56066">
        <ele>906.4</ele>
        <time>2021-09-07T14:29:33Z</time>
      </trkpt>
      <trkpt lat="44.40464" lon="5.56067">
        <ele>906.5</ele>
        <time>2021-09-07T14:29:34Z</time>
      </trkpt>
      <trkpt lat="44.40463" lon="5.5607">
        <ele>906.8</ele>
        <time>2021-09-07T14:29:35Z</time>
      </trkpt>
      <trkpt lat="44.40462" lon="5.56073">
        <ele>907.1</ele>
        <time>2021-09-07T14:29:36Z</time>
      </trkpt>
      <trkpt lat="44.40462" lon="5.56075">
        <ele>907.3</ele>
        <time>2021-09-07T14:29:37Z</time>
      </trkpt>
      <trkpt lat="44.40461" lon="5.56077">
        <ele>907.5</ele>
        <time>2021-09-07T14:29:38Z</time>
      </trkpt>
      <trkpt lat="44.40461" lon="5.56078">
        <ele>907.6</ele>
        <time>2021-09-07T14:29:39Z</time>
      </trkpt>
      <trkpt lat="44.4046" lon="5.56078">
        <ele>907.6</ele>
        <time>2021-09-07T14:29:40Z</time>
      </trkpt>
      <trkpt lat="44.40459" lon="5.5608">
        <ele>907.8</ele>
        <time>2021-09-07T14:29:41Z</time>
      </trkpt>
      <trkpt lat="44.40458" lon="5.56082">
        <ele>908</ele>
        <time>2021-09-07T14:29:42Z</time>
      </trkpt>
      <trkpt lat="44.40457" lon="5.56083">
        <ele>908.2</ele>
        <time>2021-09-07T14:29:43Z</time>
      </trkpt>
      <trkpt lat="44.40457" lon="5.56084">
        <ele>908.3</ele>
        <time>2021-09-07T14:29:44Z</time>
      </trkpt>
      <trkpt lat="44.40456" lon="5.56087">
        <ele>908.6</ele>
        <time>2021-09-07T14:29:45Z</time>
      </trkpt>
      <trkpt lat="44.40456" lon="5.56088">
        <ele>908.6</ele>
        <time>2021-09-07T14:29:46Z</time>
      </trkpt>
      <trkpt lat="44.40456" lon="5.56088">
        <ele>908.7</ele>
        <time>2021-09-07T14:29:47Z</time>
      </trkpt>
      <trkpt lat="44.40456" lon="5.56089">
        <ele>908.8</ele>
        <time>2021-09-07T14:29:48Z</time>
      </trkpt>
      <trkpt lat="44.40456" lon="5.56089">
        <ele>908.8</ele>
        <time>2021-09-07T14:29:49Z</time>
      </trkpt>
      <trkpt lat="44.40456" lon="5.5609">
        <ele>908.9</ele>
        <time>2021-09-07T14:29:50Z</time>
      </trkpt>
      <trkpt lat="44.40456" lon="5.5609">
        <ele>908.9</ele>
        <time>2021-09-07T14:29:51Z</time>
      </trkpt>
      <trkpt lat="44.40456" lon="5.5609">
        <ele>908.9</ele>
        <time>2021-09-07T14:29:52Z</time>
      </trkpt>
      <trkpt lat="44.40456" lon="5.5609">
        <ele>908.9</ele>
        <time>2021-09-07T14:29:53Z</time>
      </trkpt>
      <trkpt lat="44.40456" lon="5.5609">
        <ele>908.9</ele>
        <time>2021-09-07T14:29:54Z</time>
      </trkpt>
      <trkpt lat="44.40456" lon="5.5609">
        <ele>908.9</ele>
        <time>2021-09-07T14:29:55Z</time>
      </trkpt>
      <trkpt lat="44.40456" lon="5.5609">
        <ele>908.9</ele>
        <time>2021-09-07T14:29:56Z</time>
      </trkpt>
      <trkpt lat="44.40456" lon="5.5609">
        <ele>908.9</ele>
        <time>2021-09-07T14:29:57Z</time>
      </trkpt>
      <trkpt lat="44.40456" lon="5.5609">
        <ele>908.9</ele>
        <time>2021-09-07T14:29:58Z</time>
      </trkpt>
      <trkpt lat="44.40456" lon="5.56091">
        <ele>909</ele>
        <time>2021-09-07T14:29:59Z</time>
      </trkpt>
      <trkpt lat="44.40455" lon="5.56093">
        <ele>909.2</ele>
        <time>2021-09-07T14:30:00Z</time>
      </trkpt>
      <trkpt lat="44.40454" lon="5.56094">
        <ele>909.3</ele>
        <time>2021-09-07T14:30:01Z</time>
      </trkpt>
      <trkpt lat="44.40453" lon="5.56095">
        <ele>909.5</ele>
        <time>2021-09-07T14:30:02Z</time>
      </trkpt>
      <trkpt lat="44.40452" lon="5.56096">
        <ele>909.6</ele>
        <time>2021-09-07T14:30:03Z</time>
      </trkpt>
      <trkpt lat="44.4045" lon="5.56098">
        <ele>909.9</ele>
        <time>2021-09-07T14:30:04Z</time>
      </trkpt>
      <trkpt lat="44.40449" lon="5.561">
        <ele>910.1</ele>
        <time>2021-09-07T14:30:05Z</time>
      </trkpt>
      <trkpt lat="44.40448" lon="5.56101">
        <ele>910.3</ele>
        <time>2021-09-07T14:30:06Z</time>
      </trkpt>
      <trkpt lat="44.40446" lon="5.56104">
        <ele>910.6</ele>
        <time>2021-09-07T14:30:07Z</time>
      </trkpt>
      <trkpt lat="44.40445" lon="5.56106">
        <ele>910.9</ele>
        <time>2021-09-07T14:30:08Z</time>
      </trkpt>
      <trkpt lat="44.40443" lon="5.56108">
        <ele>911.1</ele>
        <time>2021-09-07T14:30:09Z</time>
      </trkpt>
      <trkpt lat="44.40442" lon="5.56109">
        <ele>911.2</ele>
        <time>2021-09-07T14:30:10Z</time>
      </trkpt>
      <trkpt lat="44.40441" lon="5.5611">
        <ele>911.4</ele>
        <time>2021-09-07T14:30:11Z</time>
      </trkpt>
      <trkpt lat="44.40439" lon="5.56111">
        <ele>911.6</ele>
        <time>2021-09-07T14:30:12Z</time>
      </trkpt>
      <trkpt lat="44.40438" lon="5.56112">
        <ele>911.7</ele>
        <time>2021-09-07T14:30:13Z</time>
      </trkpt>
      <trkpt lat="44.40436" lon="5.56114">
        <ele>912</ele>
        <time>2021-09-07T14:30:14Z</time>
      </trkpt>
      <trkpt lat="44.40434" lon="5.56116">
        <ele>912.2</ele>
        <time>2021-09-07T14:30:15Z</time>
      </trkpt>
      <trkpt lat="44.40433" lon="5.56117">
        <ele>912.3</ele>
        <time>2021-09-07T14:30:16Z</time>
      </trkpt>
      <trkpt lat="44.40432" lon="5.56117">
        <ele>912.4</ele>
        <time>2021-09-07T14:30:17Z</time>
      </trkpt>
      <trkpt lat="44.4043" lon="5.56118">
        <ele>912.6</ele>
        <time>2021-09-07T14:30:18Z</time>
      </trkpt>
      <trkpt lat="44.40429" lon="5.56119">
        <ele>912.7</ele>
        <time>2021-09-07T14:30:19Z</time>
      </trkpt>
      <trkpt lat="44.40428" lon="5.56119">
        <ele>912.8</ele>
        <time>2021-09-07T14:30:20Z</time>
      </trkpt>
      <trkpt lat="44.40426" lon="5.56119">
        <ele>913</ele>
        <time>2021-09-07T14:30:21Z</time>
      </trkpt>
      <trkpt lat="44.40425" lon="5.56119">
        <ele>913.1</ele>
        <time>2021-09-07T14:30:22Z</time>
      </trkpt>
      <trkpt lat="44.40424" lon="5.56119">
        <ele>913.2</ele>
        <time>2021-09-07T14:30:23Z</time>
      </trkpt>
      <trkpt lat="44.40422" lon="5.5612">
        <ele>913.4</ele>
        <time>2021-09-07T14:30:24Z</time>
      </trkpt>
      <trkpt lat="44.4042" lon="5.5612">
        <ele>913.6</ele>
        <time>2021-09-07T14:30:25Z</time>
      </trkpt>
      <trkpt lat="44.40419" lon="5.5612">
        <ele>913.7</ele>
        <time>2021-09-07T14:30:26Z</time>
      </trkpt>
      <trkpt lat="44.40418" lon="5.5612">
        <ele>913.8</ele>
        <time>2021-09-07T14:30:27Z</time>
      </trkpt>
      <trkpt lat="44.40416" lon="5.56121">
        <ele>914.1</ele>
        <time>2021-09-07T14:30:28Z</time>
      </trkpt>
      <trkpt lat="44.40414" lon="5.56121">
        <ele>914.3</ele>
        <time>2021-09-07T14:30:29Z</time>
      </trkpt>
      <trkpt lat="44.40414" lon="5.56122">
        <ele>914.4</ele>
        <time>2021-09-07T14:30:30Z</time>
      </trkpt>
      <trkpt lat="44.40413" lon="5.56122">
        <ele>914.4</ele>
        <time>2021-09-07T14:30:31Z</time>
      </trkpt>
      <trkpt lat="44.40412" lon="5.56123">
        <ele>914.6</ele>
        <time>2021-09-07T14:30:32Z</time>
      </trkpt>
      <trkpt lat="44.40412" lon="5.56124">
        <ele>914.6</ele>
        <time>2021-09-07T14:30:33Z</time>
      </trkpt>
      <trkpt lat="44.40411" lon="5.56124">
        <ele>914.7</ele>
        <time>2021-09-07T14:30:34Z</time>
      </trkpt>
      <trkpt lat="44.40409" lon="5.56124">
        <ele>914.9</ele>
        <time>2021-09-07T14:30:35Z</time>
      </trkpt>
      <trkpt lat="44.40408" lon="5.56125">
        <ele>915.1</ele>
        <time>2021-09-07T14:30:36Z</time>
      </trkpt>
      <trkpt lat="44.40407" lon="5.56126">
        <ele>915.2</ele>
        <time>2021-09-07T14:30:37Z</time>
      </trkpt>
      <trkpt lat="44.40406" lon="5.56127">
        <ele>915.3</ele>
        <time>2021-09-07T14:30:38Z</time>
      </trkpt>
      <trkpt lat="44.40406" lon="5.56127">
        <ele>915.3</ele>
        <time>2021-09-07T14:30:39Z</time>
      </trkpt>
      <trkpt lat="44.40406" lon="5.56127">
        <ele>915.3</ele>
        <time>2021-09-07T14:30:40Z</time>
      </trkpt>
      <trkpt lat="44.40406" lon="5.56127">
        <ele>915.3</ele>
        <time>2021-09-07T14:30:41Z</time>
      </trkpt>
      <trkpt lat="44.40405" lon="5.56127">
        <ele>915.4</ele>
        <time>2021-09-07T14:30:42Z</time>
      </trkpt>
      <trkpt lat="44.40405" lon="5.56127">
        <ele>915.4</ele>
        <time>2021-09-07T14:30:43Z</time>
      </trkpt>
      <trkpt lat="44.40405" lon="5.56127">
        <ele>915.4</ele>
        <time>2021-09-07T14:30:44Z</time>
      </trkpt>
      <trkpt lat="44.40405" lon="5.56127">
        <ele>915.4</ele>
        <time>2021-09-07T14:30:45Z</time>
      </trkpt>
      <trkpt lat="44.40405" lon="5.56127">
        <ele>915.4</ele>
        <time>2021-09-07T14:30:46Z</time>
      </trkpt>
      <trkpt lat="44.40405" lon="5.56127">
        <ele>915.4</ele>
        <time>2021-09-07T14:30:47Z</time>
      </trkpt>
      <trkpt lat="44.40405" lon="5.56127">
        <ele>915.4</ele>
        <time>2021-09-07T14:30:48Z</time>
      </trkpt>
      <trkpt lat="44.40405" lon="5.56127">
        <ele>915.4</ele>
        <time>2021-09-07T14:30:49Z</time>
      </trkpt>
      <trkpt lat="44.40405" lon="5.56127">
        <ele>915.4</ele>
        <time>2021-09-07T14:30:50Z</time>
      </trkpt>
      <trkpt lat="44.40405" lon="5.56127">
        <ele>915.4</ele>
        <time>2021-09-07T14:30:51Z</time>
      </trkpt>
      <trkpt lat="44.40405" lon="5.56127">
        <ele>915.4</ele>
        <time>2021-09-07T14:30:52Z</time>
      </trkpt>
      <trkpt lat="44.40405" lon="5.56127">
        <ele>915.4</ele>
        <time>2021-09-07T14:30:53Z</time>
      </trkpt>
      <trkpt lat="44.40405" lon="5.56127">
        <ele>915.4</ele>
        <time>2021-09-07T14:30:54Z</time>
      </trkpt>
      <trkpt lat="44.40405" lon="5.56127">
        <ele>915.4</ele>
        <time>2021-09-07T14:30:55Z</time>
      </trkpt>
      <trkpt lat="44.40405" lon="5.56127">
        <ele>915.4</ele>
        <time>2021-09-07T14:30:56Z</time>
      </trkpt>
      <trkpt lat="44.40405" lon="5.56127">
        <ele>915.4</ele>
        <time>2021-09-07T14:30:57Z</time>
      </trkpt>
      <trkpt lat="44.40405" lon="5.56127">
        <ele>915.4</ele>
        <time>2021-09-07T14:30:58Z</time>
      </trkpt>
      <trkpt lat="44.40405" lon="5.56127">
        <ele>915.4</ele>
        <time>2021-09-07T14:30:59Z</time>
      </trkpt>
      <trkpt lat="44.40405" lon="5.56127">
        <ele>915.4</ele>
        <time>2021-09-07T14:31:00Z</time>
      </trkpt>
      <trkpt lat="44.40405" lon="5.56127">
        <ele>915.4</ele>
        <time>2021-09-07T14:31:01Z</time>
      </trkpt>
      <trkpt lat="44.40405" lon="5.56127">
        <ele>915.4</ele>
        <time>2021-09-07T14:31:02Z</time>
      </trkpt>
      <trkpt lat="44.40405" lon="5.56127">
        <ele>915.4</ele>
        <time>2021-09-07T14:31:03Z</time>
      </trkpt>
      <trkpt lat="44.40405" lon="5.56127">
        <ele>915.4</ele>
        <time>2021-09-07T14:31:04Z</time>
      </trkpt>
      <trkpt lat="44.40405" lon="5.56127">
        <ele>915.4</ele>
        <time>2021-09-07T14:31:05Z</time>
      </trkpt>
      <trkpt lat="44.40405" lon="5.56127">
        <ele>915.4</ele>
        <time>2021-09-07T14:31:06Z</time>
      </trkpt>
      <trkpt lat="44.40405" lon="5.56128">
        <ele>915.5</ele>
        <time>2021-09-07T14:31:07Z</time>
      </trkpt>
      <trkpt lat="44.40404" lon="5.56128">
        <ele>915.6</ele>
        <time>2021-09-07T14:31:08Z</time>
      </trkpt>
      <trkpt lat="44.40402" lon="5.56129">
        <ele>915.8</ele>
        <time>2021-09-07T14:31:09Z</time>
      </trkpt>
      <trkpt lat="44.40401" lon="5.5613">
        <ele>915.9</ele>
        <time>2021-09-07T14:31:10Z</time>
      </trkpt>
      <trkpt lat="44.404" lon="5.56131">
        <ele>916.1</ele>
        <time>2021-09-07T14:31:11Z</time>
      </trkpt>
      <trkpt lat="44.40399" lon="5.56132">
        <ele>916.2</ele>
        <time>2021-09-07T14:31:12Z</time>
      </trkpt>
      <trkpt lat="44.40397" lon="5.56133">
        <ele>916.4</ele>
        <time>2021-09-07T14:31:13Z</time>
      </trkpt>
      <trkpt lat="44.40396" lon="5.56134">
        <ele>916.5</ele>
        <time>2021-09-07T14:31:14Z</time>
      </trkpt>
      <trkpt lat="44.40395" lon="5.56135">
        <ele>916.7</ele>
        <time>2021-09-07T14:31:15Z</time>
      </trkpt>
      <trkpt lat="44.40393" lon="5.56136">
        <ele>916.8</ele>
        <time>2021-09-07T14:31:16Z</time>
      </trkpt>
      <trkpt lat="44.40391" lon="5.56139">
        <ele>917.1</ele>
        <time>2021-09-07T14:31:17Z</time>
      </trkpt>
      <trkpt lat="44.40388" lon="5.56142">
        <ele>917.4</ele>
        <time>2021-09-07T14:31:18Z</time>
      </trkpt>
      <trkpt lat="44.40384" lon="5.56149">
        <ele>917.9</ele>
        <time>2021-09-07T14:31:19Z</time>
      </trkpt>
      <trkpt lat="44.4038" lon="5.56154">
        <ele>918.3</ele>
        <time>2021-09-07T14:31:20Z</time>
      </trkpt>
      <trkpt lat="44.40374" lon="5.56163">
        <ele>919</ele>
        <time>2021-09-07T14:31:21Z</time>
      </trkpt>
      <trkpt lat="44.40372" lon="5.56166">
        <ele>919.1</ele>
        <time>2021-09-07T14:31:22Z</time>
      </trkpt>
      <trkpt lat="44.4037" lon="5.56168">
        <ele>919.3</ele>
        <time>2021-09-07T14:31:23Z</time>
      </trkpt>
      <trkpt lat="44.40364" lon="5.56174">
        <ele>919.6</ele>
        <time>2021-09-07T14:31:24Z</time>
      </trkpt>
      <trkpt lat="44.40363" lon="5.56176">
        <ele>919.7</ele>
        <time>2021-09-07T14:31:25Z</time>
      </trkpt>
      <trkpt lat="44.40361" lon="5.56178">
        <ele>919.8</ele>
        <time>2021-09-07T14:31:26Z</time>
      </trkpt>
      <trkpt lat="44.40356" lon="5.56183">
        <ele>920.1</ele>
        <time>2021-09-07T14:31:27Z</time>
      </trkpt>
      <trkpt lat="44.40355" lon="5.56184">
        <ele>920.1</ele>
        <time>2021-09-07T14:31:28Z</time>
      </trkpt>
      <trkpt lat="44.40353" lon="5.56185">
        <ele>920.2</ele>
        <time>2021-09-07T14:31:29Z</time>
      </trkpt>
      <trkpt lat="44.40349" lon="5.56188">
        <ele>920.3</ele>
        <time>2021-09-07T14:31:30Z</time>
      </trkpt>
      <trkpt lat="44.40347" lon="5.56189">
        <ele>920.3</ele>
        <time>2021-09-07T14:31:31Z</time>
      </trkpt>
      <trkpt lat="44.40345" lon="5.5619">
        <ele>920.4</ele>
        <time>2021-09-07T14:31:32Z</time>
      </trkpt>
      <trkpt lat="44.40342" lon="5.56195">
        <ele>920.5</ele>
        <time>2021-09-07T14:31:33Z</time>
      </trkpt>
      <trkpt lat="44.4034" lon="5.56196">
        <ele>920.6</ele>
        <time>2021-09-07T14:31:34Z</time>
      </trkpt>
      <trkpt lat="44.40339" lon="5.56197">
        <ele>920.6</ele>
        <time>2021-09-07T14:31:35Z</time>
      </trkpt>
      <trkpt lat="44.40338" lon="5.56198">
        <ele>920.7</ele>
        <time>2021-09-07T14:31:36Z</time>
      </trkpt>
      <trkpt lat="44.40335" lon="5.562">
        <ele>920.8</ele>
        <time>2021-09-07T14:31:37Z</time>
      </trkpt>
      <trkpt lat="44.40334" lon="5.56201">
        <ele>920.8</ele>
        <time>2021-09-07T14:31:38Z</time>
      </trkpt>
      <trkpt lat="44.40332" lon="5.56202">
        <ele>920.9</ele>
        <time>2021-09-07T14:31:39Z</time>
      </trkpt>
      <trkpt lat="44.4033" lon="5.56203">
        <ele>920.9</ele>
        <time>2021-09-07T14:31:40Z</time>
      </trkpt>
      <trkpt lat="44.40328" lon="5.56204">
        <ele>921</ele>
        <time>2021-09-07T14:31:41Z</time>
      </trkpt>
      <trkpt lat="44.40326" lon="5.56206">
        <ele>921.1</ele>
        <time>2021-09-07T14:31:42Z</time>
      </trkpt>
      <trkpt lat="44.40324" lon="5.56208">
        <ele>921.2</ele>
        <time>2021-09-07T14:31:43Z</time>
      </trkpt>
      <trkpt lat="44.40322" lon="5.5621">
        <ele>921.3</ele>
        <time>2021-09-07T14:31:44Z</time>
      </trkpt>
      <trkpt lat="44.40321" lon="5.56211">
        <ele>921.3</ele>
        <time>2021-09-07T14:31:45Z</time>
      </trkpt>
      <trkpt lat="44.40319" lon="5.56212">
        <ele>921.4</ele>
        <time>2021-09-07T14:31:46Z</time>
      </trkpt>
      <trkpt lat="44.40316" lon="5.56214">
        <ele>921.6</ele>
        <time>2021-09-07T14:31:47Z</time>
      </trkpt>
      <trkpt lat="44.40315" lon="5.56215">
        <ele>921.7</ele>
        <time>2021-09-07T14:31:48Z</time>
      </trkpt>
      <trkpt lat="44.40313" lon="5.56215">
        <ele>921.8</ele>
        <time>2021-09-07T14:31:49Z</time>
      </trkpt>
      <trkpt lat="44.40312" lon="5.56217">
        <ele>921.9</ele>
        <time>2021-09-07T14:31:50Z</time>
      </trkpt>
      <trkpt lat="44.40311" lon="5.56218">
        <ele>922</ele>
        <time>2021-09-07T14:31:51Z</time>
      </trkpt>
      <trkpt lat="44.40309" lon="5.56219">
        <ele>922.2</ele>
        <time>2021-09-07T14:31:52Z</time>
      </trkpt>
      <trkpt lat="44.40307" lon="5.5622">
        <ele>922.3</ele>
        <time>2021-09-07T14:31:53Z</time>
      </trkpt>
      <trkpt lat="44.40305" lon="5.56221">
        <ele>922.5</ele>
        <time>2021-09-07T14:31:54Z</time>
      </trkpt>
      <trkpt lat="44.40303" lon="5.56222">
        <ele>922.6</ele>
        <time>2021-09-07T14:31:55Z</time>
      </trkpt>
      <trkpt lat="44.40301" lon="5.56223">
        <ele>922.8</ele>
        <time>2021-09-07T14:31:56Z</time>
      </trkpt>
      <trkpt lat="44.40299" lon="5.56224">
        <ele>923</ele>
        <time>2021-09-07T14:31:57Z</time>
      </trkpt>
      <trkpt lat="44.40297" lon="5.56225">
        <ele>923.2</ele>
        <time>2021-09-07T14:31:58Z</time>
      </trkpt>
      <trkpt lat="44.40295" lon="5.56226">
        <ele>923.3</ele>
        <time>2021-09-07T14:31:59Z</time>
      </trkpt>
      <trkpt lat="44.40293" lon="5.56227">
        <ele>923.5</ele>
        <time>2021-09-07T14:32:00Z</time>
      </trkpt>
      <trkpt lat="44.40289" lon="5.56229">
        <ele>923.8</ele>
        <time>2021-09-07T14:32:01Z</time>
      </trkpt>
      <trkpt lat="44.40287" lon="5.5623">
        <ele>924</ele>
        <time>2021-09-07T14:32:02Z</time>
      </trkpt>
      <trkpt lat="44.40286" lon="5.5623">
        <ele>924.1</ele>
        <time>2021-09-07T14:32:03Z</time>
      </trkpt>
      <trkpt lat="44.40284" lon="5.5623">
        <ele>924.2</ele>
        <time>2021-09-07T14:32:04Z</time>
      </trkpt>
      <trkpt lat="44.40282" lon="5.56231">
        <ele>924.4</ele>
        <time>2021-09-07T14:32:05Z</time>
      </trkpt>
      <trkpt lat="44.4028" lon="5.56231">
        <ele>924.6</ele>
        <time>2021-09-07T14:32:06Z</time>
      </trkpt>
      <trkpt lat="44.40278" lon="5.56231">
        <ele>924.8</ele>
        <time>2021-09-07T14:32:07Z</time>
      </trkpt>
      <trkpt lat="44.40275" lon="5.56231">
        <ele>925</ele>
        <time>2021-09-07T14:32:08Z</time>
      </trkpt>
      <trkpt lat="44.40274" lon="5.56231">
        <ele>925.1</ele>
        <time>2021-09-07T14:32:09Z</time>
      </trkpt>
      <trkpt lat="44.40272" lon="5.5623">
        <ele>925.3</ele>
        <time>2021-09-07T14:32:10Z</time>
      </trkpt>
      <trkpt lat="44.4027" lon="5.56231">
        <ele>925.4</ele>
        <time>2021-09-07T14:32:11Z</time>
      </trkpt>
      <trkpt lat="44.40268" lon="5.56231">
        <ele>925.6</ele>
        <time>2021-09-07T14:32:12Z</time>
      </trkpt>
      <trkpt lat="44.40265" lon="5.56231">
        <ele>925.8</ele>
        <time>2021-09-07T14:32:13Z</time>
      </trkpt>
      <trkpt lat="44.40264" lon="5.56231">
        <ele>925.9</ele>
        <time>2021-09-07T14:32:14Z</time>
      </trkpt>
      <trkpt lat="44.40262" lon="5.56231">
        <ele>926.1</ele>
        <time>2021-09-07T14:32:15Z</time>
      </trkpt>
      <trkpt lat="44.4026" lon="5.56231">
        <ele>926.2</ele>
        <time>2021-09-07T14:32:16Z</time>
      </trkpt>
      <trkpt lat="44.40259" lon="5.56231">
        <ele>926.3</ele>
        <time>2021-09-07T14:32:17Z</time>
      </trkpt>
      <trkpt lat="44.40258" lon="5.56231">
        <ele>926.4</ele>
        <time>2021-09-07T14:32:18Z</time>
      </trkpt>
      <trkpt lat="44.40255" lon="5.56232">
        <ele>926.6</ele>
        <time>2021-09-07T14:32:19Z</time>
      </trkpt>
      <trkpt lat="44.40253" lon="5.56232">
        <ele>926.8</ele>
        <time>2021-09-07T14:32:20Z</time>
      </trkpt>
      <trkpt lat="44.40252" lon="5.56232">
        <ele>926.8</ele>
        <time>2021-09-07T14:32:21Z</time>
      </trkpt>
      <trkpt lat="44.40251" lon="5.56231">
        <ele>926.9</ele>
        <time>2021-09-07T14:32:22Z</time>
      </trkpt>
      <trkpt lat="44.40249" lon="5.56231">
        <ele>927.1</ele>
        <time>2021-09-07T14:32:23Z</time>
      </trkpt>
      <trkpt lat="44.40248" lon="5.56231">
        <ele>927.1</ele>
        <time>2021-09-07T14:32:24Z</time>
      </trkpt>
      <trkpt lat="44.40245" lon="5.56231">
        <ele>927.4</ele>
        <time>2021-09-07T14:32:25Z</time>
      </trkpt>
      <trkpt lat="44.40244" lon="5.56231">
        <ele>927.5</ele>
        <time>2021-09-07T14:32:26Z</time>
      </trkpt>
      <trkpt lat="44.40242" lon="5.56231">
        <ele>927.6</ele>
        <time>2021-09-07T14:32:27Z</time>
      </trkpt>
      <trkpt lat="44.40239" lon="5.5623">
        <ele>927.9</ele>
        <time>2021-09-07T14:32:28Z</time>
      </trkpt>
      <trkpt lat="44.40238" lon="5.5623">
        <ele>927.9</ele>
        <time>2021-09-07T14:32:29Z</time>
      </trkpt>
      <trkpt lat="44.40237" lon="5.5623">
        <ele>928</ele>
        <time>2021-09-07T14:32:30Z</time>
      </trkpt>
      <trkpt lat="44.40235" lon="5.5623">
        <ele>928.2</ele>
        <time>2021-09-07T14:32:31Z</time>
      </trkpt>
      <trkpt lat="44.40234" lon="5.5623">
        <ele>928.3</ele>
        <time>2021-09-07T14:32:32Z</time>
      </trkpt>
      <trkpt lat="44.40233" lon="5.56229">
        <ele>928.4</ele>
        <time>2021-09-07T14:32:33Z</time>
      </trkpt>
      <trkpt lat="44.40232" lon="5.56229">
        <ele>928.5</ele>
        <time>2021-09-07T14:32:34Z</time>
      </trkpt>
      <trkpt lat="44.4023" lon="5.56229">
        <ele>928.6</ele>
        <time>2021-09-07T14:32:35Z</time>
      </trkpt>
      <trkpt lat="44.40229" lon="5.56229">
        <ele>928.7</ele>
        <time>2021-09-07T14:32:36Z</time>
      </trkpt>
      <trkpt lat="44.40227" lon="5.56229">
        <ele>928.9</ele>
        <time>2021-09-07T14:32:37Z</time>
      </trkpt>
      <trkpt lat="44.40225" lon="5.56229">
        <ele>929</ele>
        <time>2021-09-07T14:32:38Z</time>
      </trkpt>
      <trkpt lat="44.40224" lon="5.56229">
        <ele>929.2</ele>
        <time>2021-09-07T14:32:39Z</time>
      </trkpt>
      <trkpt lat="44.40222" lon="5.56229">
        <ele>929.4</ele>
        <time>2021-09-07T14:32:40Z</time>
      </trkpt>
      <trkpt lat="44.40221" lon="5.56229">
        <ele>929.5</ele>
        <time>2021-09-07T14:32:41Z</time>
      </trkpt>
      <trkpt lat="44.4022" lon="5.5623">
        <ele>929.6</ele>
        <time>2021-09-07T14:32:42Z</time>
      </trkpt>
      <trkpt lat="44.40217" lon="5.56231">
        <ele>930</ele>
        <time>2021-09-07T14:32:43Z</time>
      </trkpt>
      <trkpt lat="44.40216" lon="5.56232">
        <ele>930.1</ele>
        <time>2021-09-07T14:32:44Z</time>
      </trkpt>
      <trkpt lat="44.40215" lon="5.56232">
        <ele>930.2</ele>
        <time>2021-09-07T14:32:45Z</time>
      </trkpt>
      <trkpt lat="44.40213" lon="5.56234">
        <ele>930.5</ele>
        <time>2021-09-07T14:32:46Z</time>
      </trkpt>
      <trkpt lat="44.40212" lon="5.56236">
        <ele>930.7</ele>
        <time>2021-09-07T14:32:47Z</time>
      </trkpt>
      <trkpt lat="44.40211" lon="5.56238">
        <ele>930.8</ele>
        <time>2021-09-07T14:32:48Z</time>
      </trkpt>
      <trkpt lat="44.40208" lon="5.5624">
        <ele>931.2</ele>
        <time>2021-09-07T14:32:49Z</time>
      </trkpt>
      <trkpt lat="44.40207" lon="5.56241">
        <ele>931.3</ele>
        <time>2021-09-07T14:32:50Z</time>
      </trkpt>
      <trkpt lat="44.40206" lon="5.56242">
        <ele>931.4</ele>
        <time>2021-09-07T14:32:51Z</time>
      </trkpt>
      <trkpt lat="44.40204" lon="5.56244">
        <ele>931.6</ele>
        <time>2021-09-07T14:32:52Z</time>
      </trkpt>
      <trkpt lat="44.40203" lon="5.56246">
        <ele>931.7</ele>
        <time>2021-09-07T14:32:53Z</time>
      </trkpt>
      <trkpt lat="44.40201" lon="5.56247">
        <ele>931.8</ele>
        <time>2021-09-07T14:32:54Z</time>
      </trkpt>
      <trkpt lat="44.40199" lon="5.56249">
        <ele>932</ele>
        <time>2021-09-07T14:32:55Z</time>
      </trkpt>
      <trkpt lat="44.40198" lon="5.56251">
        <ele>932.1</ele>
        <time>2021-09-07T14:32:56Z</time>
      </trkpt>
      <trkpt lat="44.40197" lon="5.56252">
        <ele>932.2</ele>
        <time>2021-09-07T14:32:57Z</time>
      </trkpt>
      <trkpt lat="44.40196" lon="5.56254">
        <ele>932.3</ele>
        <time>2021-09-07T14:32:58Z</time>
      </trkpt>
      <trkpt lat="44.40196" lon="5.56255">
        <ele>932.3</ele>
        <time>2021-09-07T14:32:59Z</time>
      </trkpt>
      <trkpt lat="44.40195" lon="5.56256">
        <ele>932.4</ele>
        <time>2021-09-07T14:33:00Z</time>
      </trkpt>
      <trkpt lat="44.40194" lon="5.56258">
        <ele>932.5</ele>
        <time>2021-09-07T14:33:01Z</time>
      </trkpt>
      <trkpt lat="44.40194" lon="5.56259">
        <ele>932.5</ele>
        <time>2021-09-07T14:33:02Z</time>
      </trkpt>
      <trkpt lat="44.40193" lon="5.5626">
        <ele>932.6</ele>
        <time>2021-09-07T14:33:03Z</time>
      </trkpt>
      <trkpt lat="44.40192" lon="5.56262">
        <ele>932.7</ele>
        <time>2021-09-07T14:33:04Z</time>
      </trkpt>
      <trkpt lat="44.40191" lon="5.56263">
        <ele>932.7</ele>
        <time>2021-09-07T14:33:05Z</time>
      </trkpt>
      <trkpt lat="44.4019" lon="5.56264">
        <ele>932.9</ele>
        <time>2021-09-07T14:33:06Z</time>
      </trkpt>
      <trkpt lat="44.40188" lon="5.56266">
        <ele>933</ele>
        <time>2021-09-07T14:33:07Z</time>
      </trkpt>
      <trkpt lat="44.40187" lon="5.56267">
        <ele>933.1</ele>
        <time>2021-09-07T14:33:08Z</time>
      </trkpt>
      <trkpt lat="44.40187" lon="5.56268">
        <ele>933.1</ele>
        <time>2021-09-07T14:33:09Z</time>
      </trkpt>
      <trkpt lat="44.40186" lon="5.56269">
        <ele>933.2</ele>
        <time>2021-09-07T14:33:10Z</time>
      </trkpt>
      <trkpt lat="44.40185" lon="5.5627">
        <ele>933.2</ele>
        <time>2021-09-07T14:33:11Z</time>
      </trkpt>
      <trkpt lat="44.40185" lon="5.56271">
        <ele>933.3</ele>
        <time>2021-09-07T14:33:12Z</time>
      </trkpt>
      <trkpt lat="44.40184" lon="5.56273">
        <ele>933.4</ele>
        <time>2021-09-07T14:33:13Z</time>
      </trkpt>
      <trkpt lat="44.40182" lon="5.56275">
        <ele>933.5</ele>
        <time>2021-09-07T14:33:14Z</time>
      </trkpt>
      <trkpt lat="44.40181" lon="5.56276">
        <ele>933.5</ele>
        <time>2021-09-07T14:33:15Z</time>
      </trkpt>
      <trkpt lat="44.4018" lon="5.56277">
        <ele>933.6</ele>
        <time>2021-09-07T14:33:16Z</time>
      </trkpt>
      <trkpt lat="44.40179" lon="5.56278">
        <ele>933.7</ele>
        <time>2021-09-07T14:33:17Z</time>
      </trkpt>
      <trkpt lat="44.40178" lon="5.56279">
        <ele>933.8</ele>
        <time>2021-09-07T14:33:18Z</time>
      </trkpt>
      <trkpt lat="44.40177" lon="5.5628">
        <ele>933.8</ele>
        <time>2021-09-07T14:33:19Z</time>
      </trkpt>
      <trkpt lat="44.40176" lon="5.5628">
        <ele>933.9</ele>
        <time>2021-09-07T14:33:20Z</time>
      </trkpt>
      <trkpt lat="44.40175" lon="5.56281">
        <ele>934</ele>
        <time>2021-09-07T14:33:21Z</time>
      </trkpt>
      <trkpt lat="44.40173" lon="5.56282">
        <ele>934.1</ele>
        <time>2021-09-07T14:33:22Z</time>
      </trkpt>
      <trkpt lat="44.40172" lon="5.56283">
        <ele>934.2</ele>
        <time>2021-09-07T14:33:23Z</time>
      </trkpt>
      <trkpt lat="44.4017" lon="5.56283">
        <ele>934.3</ele>
        <time>2021-09-07T14:33:24Z</time>
      </trkpt>
      <trkpt lat="44.40168" lon="5.56284">
        <ele>934.5</ele>
        <time>2021-09-07T14:33:25Z</time>
      </trkpt>
      <trkpt lat="44.40167" lon="5.56284">
        <ele>934.5</ele>
        <time>2021-09-07T14:33:26Z</time>
      </trkpt>
      <trkpt lat="44.40166" lon="5.56284">
        <ele>934.6</ele>
        <time>2021-09-07T14:33:27Z</time>
      </trkpt>
      <trkpt lat="44.40164" lon="5.56284">
        <ele>934.7</ele>
        <time>2021-09-07T14:33:28Z</time>
      </trkpt>
      <trkpt lat="44.40162" lon="5.56284">
        <ele>934.9</ele>
        <time>2021-09-07T14:33:29Z</time>
      </trkpt>
      <trkpt lat="44.4016" lon="5.56284">
        <ele>935</ele>
        <time>2021-09-07T14:33:30Z</time>
      </trkpt>
      <trkpt lat="44.40159" lon="5.56283">
        <ele>935.1</ele>
        <time>2021-09-07T14:33:31Z</time>
      </trkpt>
      <trkpt lat="44.40157" lon="5.56282">
        <ele>935.2</ele>
        <time>2021-09-07T14:33:32Z</time>
      </trkpt>
      <trkpt lat="44.40155" lon="5.5628">
        <ele>935.4</ele>
        <time>2021-09-07T14:33:33Z</time>
      </trkpt>
      <trkpt lat="44.40153" lon="5.5628">
        <ele>935.5</ele>
        <time>2021-09-07T14:33:34Z</time>
      </trkpt>
      <trkpt lat="44.40152" lon="5.56279">
        <ele>935.6</ele>
        <time>2021-09-07T14:33:35Z</time>
      </trkpt>
      <trkpt lat="44.4015" lon="5.56278">
        <ele>935.7</ele>
        <time>2021-09-07T14:33:36Z</time>
      </trkpt>
      <trkpt lat="44.40149" lon="5.56277">
        <ele>935.8</ele>
        <time>2021-09-07T14:33:37Z</time>
      </trkpt>
      <trkpt lat="44.40147" lon="5.56276">
        <ele>935.9</ele>
        <time>2021-09-07T14:33:38Z</time>
      </trkpt>
      <trkpt lat="44.40145" lon="5.56275">
        <ele>936</ele>
        <time>2021-09-07T14:33:39Z</time>
      </trkpt>
      <trkpt lat="44.40143" lon="5.56274">
        <ele>936.2</ele>
        <time>2021-09-07T14:33:40Z</time>
      </trkpt>
      <trkpt lat="44.40141" lon="5.56273">
        <ele>936.3</ele>
        <time>2021-09-07T14:33:41Z</time>
      </trkpt>
      <trkpt lat="44.4014" lon="5.56272">
        <ele>936.4</ele>
        <time>2021-09-07T14:33:42Z</time>
      </trkpt>
      <trkpt lat="44.40139" lon="5.56272">
        <ele>936.5</ele>
        <time>2021-09-07T14:33:43Z</time>
      </trkpt>
      <trkpt lat="44.40137" lon="5.56271">
        <ele>936.7</ele>
        <time>2021-09-07T14:33:44Z</time>
      </trkpt>
      <trkpt lat="44.40135" lon="5.56271">
        <ele>936.8</ele>
        <time>2021-09-07T14:33:45Z</time>
      </trkpt>
      <trkpt lat="44.40133" lon="5.5627">
        <ele>937</ele>
        <time>2021-09-07T14:33:46Z</time>
      </trkpt>
      <trkpt lat="44.40132" lon="5.56269">
        <ele>937.1</ele>
        <time>2021-09-07T14:33:47Z</time>
      </trkpt>
      <trkpt lat="44.40131" lon="5.56269">
        <ele>937.2</ele>
        <time>2021-09-07T14:33:48Z</time>
      </trkpt>
      <trkpt lat="44.40129" lon="5.56268">
        <ele>937.4</ele>
        <time>2021-09-07T14:33:49Z</time>
      </trkpt>
      <trkpt lat="44.40127" lon="5.56268">
        <ele>937.5</ele>
        <time>2021-09-07T14:33:50Z</time>
      </trkpt>
      <trkpt lat="44.40126" lon="5.56268">
        <ele>937.6</ele>
        <time>2021-09-07T14:33:51Z</time>
      </trkpt>
      <trkpt lat="44.40123" lon="5.56268">
        <ele>937.8</ele>
        <time>2021-09-07T14:33:52Z</time>
      </trkpt>
      <trkpt lat="44.40121" lon="5.56268">
        <ele>938</ele>
        <time>2021-09-07T14:33:53Z</time>
      </trkpt>
      <trkpt lat="44.4012" lon="5.56269">
        <ele>938.1</ele>
        <time>2021-09-07T14:33:54Z</time>
      </trkpt>
      <trkpt lat="44.40119" lon="5.56269">
        <ele>938.2</ele>
        <time>2021-09-07T14:33:55Z</time>
      </trkpt>
      <trkpt lat="44.40116" lon="5.56268">
        <ele>938.4</ele>
        <time>2021-09-07T14:33:56Z</time>
      </trkpt>
      <trkpt lat="44.40116" lon="5.56268">
        <ele>938.4</ele>
        <time>2021-09-07T14:33:57Z</time>
      </trkpt>
      <trkpt lat="44.40115" lon="5.56267">
        <ele>938.5</ele>
        <time>2021-09-07T14:33:58Z</time>
      </trkpt>
      <trkpt lat="44.40113" lon="5.56267">
        <ele>938.6</ele>
        <time>2021-09-07T14:33:59Z</time>
      </trkpt>
      <trkpt lat="44.40112" lon="5.56267">
        <ele>938.7</ele>
        <time>2021-09-07T14:34:00Z</time>
      </trkpt>
      <trkpt lat="44.4011" lon="5.56267">
        <ele>938.8</ele>
        <time>2021-09-07T14:34:01Z</time>
      </trkpt>
      <trkpt lat="44.40109" lon="5.56267">
        <ele>938.9</ele>
        <time>2021-09-07T14:34:02Z</time>
      </trkpt>
      <trkpt lat="44.40108" lon="5.56267">
        <ele>938.9</ele>
        <time>2021-09-07T14:34:03Z</time>
      </trkpt>
      <trkpt lat="44.40106" lon="5.56268">
        <ele>939.1</ele>
        <time>2021-09-07T14:34:04Z</time>
      </trkpt>
      <trkpt lat="44.40105" lon="5.56268">
        <ele>939.1</ele>
        <time>2021-09-07T14:34:05Z</time>
      </trkpt>
      <trkpt lat="44.40105" lon="5.56268">
        <ele>939.2</ele>
        <time>2021-09-07T14:34:06Z</time>
      </trkpt>
      <trkpt lat="44.40104" lon="5.56268">
        <ele>939.2</ele>
        <time>2021-09-07T14:34:07Z</time>
      </trkpt>
      <trkpt lat="44.40102" lon="5.56268">
        <ele>939.3</ele>
        <time>2021-09-07T14:34:08Z</time>
      </trkpt>
      <trkpt lat="44.40101" lon="5.56268">
        <ele>939.4</ele>
        <time>2021-09-07T14:34:09Z</time>
      </trkpt>
      <trkpt lat="44.401" lon="5.56269">
        <ele>939.5</ele>
        <time>2021-09-07T14:34:10Z</time>
      </trkpt>
      <trkpt lat="44.40098" lon="5.56269">
        <ele>939.6</ele>
        <time>2021-09-07T14:34:11Z</time>
      </trkpt>
      <trkpt lat="44.40096" lon="5.56269">
        <ele>939.7</ele>
        <time>2021-09-07T14:34:12Z</time>
      </trkpt>
      <trkpt lat="44.40095" lon="5.56269">
        <ele>939.8</ele>
        <time>2021-09-07T14:34:13Z</time>
      </trkpt>
      <trkpt lat="44.40094" lon="5.56268">
        <ele>939.9</ele>
        <time>2021-09-07T14:34:14Z</time>
      </trkpt>
      <trkpt lat="44.40092" lon="5.56269">
        <ele>940</ele>
        <time>2021-09-07T14:34:15Z</time>
      </trkpt>
      <trkpt lat="44.4009" lon="5.5627">
        <ele>940.1</ele>
        <time>2021-09-07T14:34:16Z</time>
      </trkpt>
      <trkpt lat="44.40088" lon="5.5627">
        <ele>940.2</ele>
        <time>2021-09-07T14:34:17Z</time>
      </trkpt>
      <trkpt lat="44.40085" lon="5.5627">
        <ele>940.4</ele>
        <time>2021-09-07T14:34:18Z</time>
      </trkpt>
      <trkpt lat="44.40084" lon="5.5627">
        <ele>940.5</ele>
        <time>2021-09-07T14:34:19Z</time>
      </trkpt>
      <trkpt lat="44.40082" lon="5.5627">
        <ele>940.6</ele>
        <time>2021-09-07T14:34:20Z</time>
      </trkpt>
      <trkpt lat="44.4008" lon="5.5627">
        <ele>940.7</ele>
        <time>2021-09-07T14:34:21Z</time>
      </trkpt>
      <trkpt lat="44.40077" lon="5.5627">
        <ele>940.9</ele>
        <time>2021-09-07T14:34:22Z</time>
      </trkpt>
      <trkpt lat="44.40074" lon="5.5627">
        <ele>941</ele>
        <time>2021-09-07T14:34:23Z</time>
      </trkpt>
      <trkpt lat="44.40073" lon="5.5627">
        <ele>941</ele>
        <time>2021-09-07T14:34:24Z</time>
      </trkpt>
      <trkpt lat="44.40072" lon="5.56269">
        <ele>941.1</ele>
        <time>2021-09-07T14:34:25Z</time>
      </trkpt>
      <trkpt lat="44.40071" lon="5.56268">
        <ele>941.1</ele>
        <time>2021-09-07T14:34:26Z</time>
      </trkpt>
      <trkpt lat="44.4007" lon="5.56266">
        <ele>941.2</ele>
        <time>2021-09-07T14:34:27Z</time>
      </trkpt>
      <trkpt lat="44.40069" lon="5.56264">
        <ele>941.3</ele>
        <time>2021-09-07T14:34:28Z</time>
      </trkpt>
      <trkpt lat="44.40068" lon="5.56263">
        <ele>941.3</ele>
        <time>2021-09-07T14:34:29Z</time>
      </trkpt>
      <trkpt lat="44.40066" lon="5.56261">
        <ele>941.4</ele>
        <time>2021-09-07T14:34:30Z</time>
      </trkpt>
      <trkpt lat="44.40065" lon="5.56258">
        <ele>941.5</ele>
        <time>2021-09-07T14:34:31Z</time>
      </trkpt>
      <trkpt lat="44.40064" lon="5.56256">
        <ele>941.6</ele>
        <time>2021-09-07T14:34:32Z</time>
      </trkpt>
      <trkpt lat="44.40063" lon="5.56254">
        <ele>941.7</ele>
        <time>2021-09-07T14:34:33Z</time>
      </trkpt>
      <trkpt lat="44.40061" lon="5.56251">
        <ele>941.8</ele>
        <time>2021-09-07T14:34:34Z</time>
      </trkpt>
      <trkpt lat="44.4006" lon="5.5625">
        <ele>941.9</ele>
        <time>2021-09-07T14:34:35Z</time>
      </trkpt>
      <trkpt lat="44.40058" lon="5.56248">
        <ele>942</ele>
        <time>2021-09-07T14:34:36Z</time>
      </trkpt>
      <trkpt lat="44.40057" lon="5.56245">
        <ele>942.1</ele>
        <time>2021-09-07T14:34:37Z</time>
      </trkpt>
      <trkpt lat="44.40056" lon="5.56243">
        <ele>942.2</ele>
        <time>2021-09-07T14:34:38Z</time>
      </trkpt>
      <trkpt lat="44.40055" lon="5.56241">
        <ele>942.3</ele>
        <time>2021-09-07T14:34:39Z</time>
      </trkpt>
      <trkpt lat="44.40053" lon="5.56238">
        <ele>942.4</ele>
        <time>2021-09-07T14:34:40Z</time>
      </trkpt>
      <trkpt lat="44.40053" lon="5.56237">
        <ele>942.5</ele>
        <time>2021-09-07T14:34:41Z</time>
      </trkpt>
      <trkpt lat="44.40052" lon="5.56235">
        <ele>942.5</ele>
        <time>2021-09-07T14:34:42Z</time>
      </trkpt>
      <trkpt lat="44.40051" lon="5.56231">
        <ele>942.6</ele>
        <time>2021-09-07T14:34:43Z</time>
      </trkpt>
      <trkpt lat="44.4005" lon="5.5623">
        <ele>942.7</ele>
        <time>2021-09-07T14:34:44Z</time>
      </trkpt>
      <trkpt lat="44.40049" lon="5.56228">
        <ele>942.8</ele>
        <time>2021-09-07T14:34:45Z</time>
      </trkpt>
      <trkpt lat="44.40047" lon="5.56225">
        <ele>943</ele>
        <time>2021-09-07T14:34:46Z</time>
      </trkpt>
      <trkpt lat="44.40047" lon="5.56224">
        <ele>943</ele>
        <time>2021-09-07T14:34:47Z</time>
      </trkpt>
      <trkpt lat="44.40046" lon="5.56222">
        <ele>943.1</ele>
        <time>2021-09-07T14:34:48Z</time>
      </trkpt>
      <trkpt lat="44.40045" lon="5.56219">
        <ele>943.1</ele>
        <time>2021-09-07T14:34:49Z</time>
      </trkpt>
      <trkpt lat="44.40044" lon="5.56218">
        <ele>943.2</ele>
        <time>2021-09-07T14:34:50Z</time>
      </trkpt>
      <trkpt lat="44.40044" lon="5.56218">
        <ele>943.2</ele>
        <time>2021-09-07T14:34:51Z</time>
      </trkpt>
      <trkpt lat="44.40044" lon="5.56217">
        <ele>943.2</ele>
        <time>2021-09-07T14:34:52Z</time>
      </trkpt>
      <trkpt lat="44.40043" lon="5.56217">
        <ele>943.3</ele>
        <time>2021-09-07T14:34:53Z</time>
      </trkpt>
      <trkpt lat="44.40042" lon="5.56216">
        <ele>943.3</ele>
        <time>2021-09-07T14:34:54Z</time>
      </trkpt>
      <trkpt lat="44.40041" lon="5.56215">
        <ele>943.4</ele>
        <time>2021-09-07T14:34:55Z</time>
      </trkpt>
      <trkpt lat="44.40039" lon="5.56214">
        <ele>943.4</ele>
        <time>2021-09-07T14:34:56Z</time>
      </trkpt>
      <trkpt lat="44.40038" lon="5.56213">
        <ele>943.5</ele>
        <time>2021-09-07T14:34:57Z</time>
      </trkpt>
      <trkpt lat="44.40037" lon="5.56213">
        <ele>943.5</ele>
        <time>2021-09-07T14:34:58Z</time>
      </trkpt>
      <trkpt lat="44.40036" lon="5.56213">
        <ele>943.6</ele>
        <time>2021-09-07T14:34:59Z</time>
      </trkpt>
      <trkpt lat="44.40035" lon="5.56213">
        <ele>943.6</ele>
        <time>2021-09-07T14:35:00Z</time>
      </trkpt>
      <trkpt lat="44.40034" lon="5.56214">
        <ele>943.7</ele>
        <time>2021-09-07T14:35:01Z</time>
      </trkpt>
      <trkpt lat="44.40032" lon="5.56214">
        <ele>943.8</ele>
        <time>2021-09-07T14:35:02Z</time>
      </trkpt>
      <trkpt lat="44.40031" lon="5.56214">
        <ele>943.8</ele>
        <time>2021-09-07T14:35:03Z</time>
      </trkpt>
      <trkpt lat="44.40028" lon="5.56214">
        <ele>944</ele>
        <time>2021-09-07T14:35:04Z</time>
      </trkpt>
      <trkpt lat="44.40027" lon="5.56214">
        <ele>944.1</ele>
        <time>2021-09-07T14:35:05Z</time>
      </trkpt>
      <trkpt lat="44.40026" lon="5.56214">
        <ele>944.1</ele>
        <time>2021-09-07T14:35:06Z</time>
      </trkpt>
      <trkpt lat="44.40023" lon="5.56214">
        <ele>944.3</ele>
        <time>2021-09-07T14:35:07Z</time>
      </trkpt>
      <trkpt lat="44.40022" lon="5.56214">
        <ele>944.3</ele>
        <time>2021-09-07T14:35:08Z</time>
      </trkpt>
      <trkpt lat="44.40021" lon="5.56214">
        <ele>944.4</ele>
        <time>2021-09-07T14:35:09Z</time>
      </trkpt>
      <trkpt lat="44.40019" lon="5.56213">
        <ele>944.5</ele>
        <time>2021-09-07T14:35:10Z</time>
      </trkpt>
      <trkpt lat="44.40018" lon="5.56212">
        <ele>944.6</ele>
        <time>2021-09-07T14:35:11Z</time>
      </trkpt>
      <trkpt lat="44.40016" lon="5.56212">
        <ele>944.7</ele>
        <time>2021-09-07T14:35:12Z</time>
      </trkpt>
      <trkpt lat="44.40015" lon="5.56212">
        <ele>944.7</ele>
        <time>2021-09-07T14:35:13Z</time>
      </trkpt>
      <trkpt lat="44.40013" lon="5.56212">
        <ele>944.8</ele>
        <time>2021-09-07T14:35:14Z</time>
      </trkpt>
      <trkpt lat="44.40011" lon="5.56212">
        <ele>944.9</ele>
        <time>2021-09-07T14:35:15Z</time>
      </trkpt>
      <trkpt lat="44.4001" lon="5.56212">
        <ele>945</ele>
        <time>2021-09-07T14:35:16Z</time>
      </trkpt>
      <trkpt lat="44.40009" lon="5.56211">
        <ele>945</ele>
        <time>2021-09-07T14:35:17Z</time>
      </trkpt>
      <trkpt lat="44.40008" lon="5.56211">
        <ele>945.1</ele>
        <time>2021-09-07T14:35:18Z</time>
      </trkpt>
      <trkpt lat="44.40006" lon="5.5621">
        <ele>945.2</ele>
        <time>2021-09-07T14:35:19Z</time>
      </trkpt>
      <trkpt lat="44.40004" lon="5.5621">
        <ele>945.3</ele>
        <time>2021-09-07T14:35:20Z</time>
      </trkpt>
      <trkpt lat="44.40003" lon="5.5621">
        <ele>945.3</ele>
        <time>2021-09-07T14:35:21Z</time>
      </trkpt>
      <trkpt lat="44.40002" lon="5.56209">
        <ele>945.4</ele>
        <time>2021-09-07T14:35:22Z</time>
      </trkpt>
      <trkpt lat="44.40001" lon="5.56208">
        <ele>945.4</ele>
        <time>2021-09-07T14:35:23Z</time>
      </trkpt>
      <trkpt lat="44.4" lon="5.56208">
        <ele>945.5</ele>
        <time>2021-09-07T14:35:24Z</time>
      </trkpt>
      <trkpt lat="44.39999" lon="5.56207">
        <ele>945.5</ele>
        <time>2021-09-07T14:35:25Z</time>
      </trkpt>
      <trkpt lat="44.39997" lon="5.56205">
        <ele>945.6</ele>
        <time>2021-09-07T14:35:26Z</time>
      </trkpt>
      <trkpt lat="44.39996" lon="5.56205">
        <ele>945.7</ele>
        <time>2021-09-07T14:35:27Z</time>
      </trkpt>
      <trkpt lat="44.39995" lon="5.56204">
        <ele>945.7</ele>
        <time>2021-09-07T14:35:28Z</time>
      </trkpt>
      <trkpt lat="44.39994" lon="5.56203">
        <ele>945.7</ele>
        <time>2021-09-07T14:35:29Z</time>
      </trkpt>
      <trkpt lat="44.39993" lon="5.56202">
        <ele>945.8</ele>
        <time>2021-09-07T14:35:30Z</time>
      </trkpt>
      <trkpt lat="44.39991" lon="5.56201">
        <ele>945.9</ele>
        <time>2021-09-07T14:35:31Z</time>
      </trkpt>
      <trkpt lat="44.39989" lon="5.56201">
        <ele>945.9</ele>
        <time>2021-09-07T14:35:32Z</time>
      </trkpt>
      <trkpt lat="44.39988" lon="5.56201">
        <ele>946</ele>
        <time>2021-09-07T14:35:33Z</time>
      </trkpt>
      <trkpt lat="44.39987" lon="5.562">
        <ele>946</ele>
        <time>2021-09-07T14:35:34Z</time>
      </trkpt>
      <trkpt lat="44.39986" lon="5.562">
        <ele>946</ele>
        <time>2021-09-07T14:35:35Z</time>
      </trkpt>
      <trkpt lat="44.39984" lon="5.56199">
        <ele>946.1</ele>
        <time>2021-09-07T14:35:36Z</time>
      </trkpt>
      <trkpt lat="44.39982" lon="5.562">
        <ele>946.2</ele>
        <time>2021-09-07T14:35:37Z</time>
      </trkpt>
      <trkpt lat="44.39982" lon="5.56201">
        <ele>946.2</ele>
        <time>2021-09-07T14:35:38Z</time>
      </trkpt>
      <trkpt lat="44.39981" lon="5.56202">
        <ele>946.2</ele>
        <time>2021-09-07T14:35:39Z</time>
      </trkpt>
      <trkpt lat="44.39981" lon="5.56202">
        <ele>946.2</ele>
        <time>2021-09-07T14:35:40Z</time>
      </trkpt>
      <trkpt lat="44.39981" lon="5.56203">
        <ele>946.2</ele>
        <time>2021-09-07T14:35:41Z</time>
      </trkpt>
      <trkpt lat="44.3998" lon="5.56205">
        <ele>946.3</ele>
        <time>2021-09-07T14:35:42Z</time>
      </trkpt>
      <trkpt lat="44.39979" lon="5.56207">
        <ele>946.4</ele>
        <time>2021-09-07T14:35:43Z</time>
      </trkpt>
      <trkpt lat="44.39978" lon="5.56209">
        <ele>946.4</ele>
        <time>2021-09-07T14:35:44Z</time>
      </trkpt>
      <trkpt lat="44.39978" lon="5.56211">
        <ele>948.7</ele>
        <time>2021-09-07T14:35:45Z</time>
      </trkpt>
      <trkpt lat="44.39977" lon="5.56213">
        <ele>948.8</ele>
        <time>2021-09-07T14:35:46Z</time>
      </trkpt>
      <trkpt lat="44.39976" lon="5.56215">
        <ele>948.9</ele>
        <time>2021-09-07T14:35:47Z</time>
      </trkpt>
      <trkpt lat="44.39975" lon="5.56217">
        <ele>949</ele>
        <time>2021-09-07T14:35:48Z</time>
      </trkpt>
      <trkpt lat="44.39975" lon="5.56218">
        <ele>949.1</ele>
        <time>2021-09-07T14:35:49Z</time>
      </trkpt>
      <trkpt lat="44.39975" lon="5.56219">
        <ele>949.1</ele>
        <time>2021-09-07T14:35:50Z</time>
      </trkpt>
      <trkpt lat="44.39975" lon="5.56221">
        <ele>949.2</ele>
        <time>2021-09-07T14:35:51Z</time>
      </trkpt>
      <trkpt lat="44.39974" lon="5.56222">
        <ele>949.3</ele>
        <time>2021-09-07T14:35:52Z</time>
      </trkpt>
      <trkpt lat="44.39973" lon="5.56223">
        <ele>949.4</ele>
        <time>2021-09-07T14:35:53Z</time>
      </trkpt>
      <trkpt lat="44.39973" lon="5.56223">
        <ele>949.4</ele>
        <time>2021-09-07T14:35:54Z</time>
      </trkpt>
      <trkpt lat="44.39974" lon="5.56224">
        <ele>949.4</ele>
        <time>2021-09-07T14:35:55Z</time>
      </trkpt>
      <trkpt lat="44.39974" lon="5.56224">
        <ele>949.5</ele>
        <time>2021-09-07T14:35:56Z</time>
      </trkpt>
      <trkpt lat="44.39975" lon="5.56224">
        <ele>949.5</ele>
        <time>2021-09-07T14:35:57Z</time>
      </trkpt>
      <trkpt lat="44.39975" lon="5.56224">
        <ele>949.5</ele>
        <time>2021-09-07T14:35:58Z</time>
      </trkpt>
      <trkpt lat="44.39975" lon="5.56224">
        <ele>949.5</ele>
        <time>2021-09-07T14:35:59Z</time>
      </trkpt>
      <trkpt lat="44.39976" lon="5.56224">
        <ele>949.6</ele>
        <time>2021-09-07T14:36:00Z</time>
      </trkpt>
      <trkpt lat="44.39976" lon="5.56224">
        <ele>949.6</ele>
        <time>2021-09-07T14:36:01Z</time>
      </trkpt>
      <trkpt lat="44.39976" lon="5.56224">
        <ele>949.6</ele>
        <time>2021-09-07T14:36:02Z</time>
      </trkpt>
      <trkpt lat="44.39976" lon="5.56224">
        <ele>949.6</ele>
        <time>2021-09-07T14:36:03Z</time>
      </trkpt>
      <trkpt lat="44.39976" lon="5.56224">
        <ele>949.6</ele>
        <time>2021-09-07T14:36:04Z</time>
      </trkpt>
      <trkpt lat="44.39976" lon="5.56224">
        <ele>949.6</ele>
        <time>2021-09-07T14:36:05Z</time>
      </trkpt>
      <trkpt lat="44.39976" lon="5.56224">
        <ele>949.6</ele>
        <time>2021-09-07T14:36:06Z</time>
      </trkpt>
      <trkpt lat="44.39976" lon="5.56224">
        <ele>949.6</ele>
        <time>2021-09-07T14:36:07Z</time>
      </trkpt>
      <trkpt lat="44.39976" lon="5.56224">
        <ele>949.6</ele>
        <time>2021-09-07T14:36:08Z</time>
      </trkpt>
      <trkpt lat="44.39976" lon="5.56224">
        <ele>949.6</ele>
        <time>2021-09-07T14:36:09Z</time>
      </trkpt>
      <trkpt lat="44.39976" lon="5.56224">
        <ele>949.6</ele>
        <time>2021-09-07T14:36:10Z</time>
      </trkpt>
      <trkpt lat="44.39976" lon="5.56223">
        <ele>949.6</ele>
        <time>2021-09-07T14:36:11Z</time>
      </trkpt>
      <trkpt lat="44.39976" lon="5.56223">
        <ele>949.6</ele>
        <time>2021-09-07T14:36:12Z</time>
      </trkpt>
      <trkpt lat="44.39976" lon="5.56223">
        <ele>949.6</ele>
        <time>2021-09-07T14:36:13Z</time>
      </trkpt>
      <trkpt lat="44.39976" lon="5.56223">
        <ele>949.6</ele>
        <time>2021-09-07T14:36:14Z</time>
      </trkpt>
      <trkpt lat="44.39976" lon="5.56223">
        <ele>949.6</ele>
        <time>2021-09-07T14:36:15Z</time>
      </trkpt>
      <trkpt lat="44.39976" lon="5.56223">
        <ele>949.6</ele>
        <time>2021-09-07T14:36:16Z</time>
      </trkpt>
      <trkpt lat="44.39976" lon="5.56223">
        <ele>949.6</ele>
        <time>2021-09-07T14:36:17Z</time>
      </trkpt>
      <trkpt lat="44.39976" lon="5.56223">
        <ele>949.6</ele>
        <time>2021-09-07T14:36:18Z</time>
      </trkpt>
      <trkpt lat="44.39976" lon="5.56223">
        <ele>949.6</ele>
        <time>2021-09-07T14:36:19Z</time>
      </trkpt>
      <trkpt lat="44.39976" lon="5.56223">
        <ele>949.6</ele>
        <time>2021-09-07T14:36:20Z</time>
      </trkpt>
      <trkpt lat="44.39976" lon="5.56223">
        <ele>949.6</ele>
        <time>2021-09-07T14:36:21Z</time>
      </trkpt>
      <trkpt lat="44.39976" lon="5.56223">
        <ele>949.6</ele>
        <time>2021-09-07T14:36:22Z</time>
      </trkpt>
      <trkpt lat="44.39976" lon="5.56223">
        <ele>949.6</ele>
        <time>2021-09-07T14:36:23Z</time>
      </trkpt>
      <trkpt lat="44.39976" lon="5.56223">
        <ele>949.6</ele>
        <time>2021-09-07T14:36:24Z</time>
      </trkpt>
      <trkpt lat="44.39976" lon="5.56223">
        <ele>949.6</ele>
        <time>2021-09-07T14:36:25Z</time>
      </trkpt>
      <trkpt lat="44.39976" lon="5.56223">
        <ele>949.6</ele>
        <time>2021-09-07T14:36:26Z</time>
      </trkpt>
      <trkpt lat="44.39976" lon="5.56223">
        <ele>949.6</ele>
        <time>2021-09-07T14:36:27Z</time>
      </trkpt>
      <trkpt lat="44.39976" lon="5.56223">
        <ele>949.6</ele>
        <time>2021-09-07T14:36:28Z</time>
      </trkpt>
      <trkpt lat="44.39976" lon="5.56223">
        <ele>949.6</ele>
        <time>2021-09-07T14:36:29Z</time>
      </trkpt>
      <trkpt lat="44.39976" lon="5.56223">
        <ele>949.6</ele>
        <time>2021-09-07T14:36:30Z</time>
      </trkpt>
      <trkpt lat="44.39976" lon="5.56223">
        <ele>949.6</ele>
        <time>2021-09-07T14:36:31Z</time>
      </trkpt>
      <trkpt lat="44.39976" lon="5.56223">
        <ele>949.6</ele>
        <time>2021-09-07T14:36:32Z</time>
      </trkpt>
      <trkpt lat="44.39976" lon="5.56223">
        <ele>949.6</ele>
        <time>2021-09-07T14:36:33Z</time>
      </trkpt>
      <trkpt lat="44.39976" lon="5.56223">
        <ele>949.6</ele>
        <time>2021-09-07T14:36:34Z</time>
      </trkpt>
      <trkpt lat="44.39976" lon="5.56223">
        <ele>949.6</ele>
        <time>2021-09-07T14:36:35Z</time>
      </trkpt>
      <trkpt lat="44.39976" lon="5.56223">
        <ele>949.6</ele>
        <time>2021-09-07T14:36:36Z</time>
      </trkpt>
      <trkpt lat="44.39976" lon="5.56223">
        <ele>949.6</ele>
        <time>2021-09-07T14:36:37Z</time>
      </trkpt>
      <trkpt lat="44.39976" lon="5.56224">
        <ele>949.7</ele>
        <time>2021-09-07T14:36:38Z</time>
      </trkpt>
      <trkpt lat="44.39977" lon="5.56224">
        <ele>949.7</ele>
        <time>2021-09-07T14:36:39Z</time>
      </trkpt>
      <trkpt lat="44.39977" lon="5.56224">
        <ele>949.7</ele>
        <time>2021-09-07T14:36:40Z</time>
      </trkpt>
      <trkpt lat="44.39978" lon="5.56225">
        <ele>949.8</ele>
        <time>2021-09-07T14:36:41Z</time>
      </trkpt>
      <trkpt lat="44.39978" lon="5.56226">
        <ele>949.9</ele>
        <time>2021-09-07T14:36:42Z</time>
      </trkpt>
      <trkpt lat="44.39979" lon="5.56227">
        <ele>949.9</ele>
        <time>2021-09-07T14:36:43Z</time>
      </trkpt>
      <trkpt lat="44.3998" lon="5.56228">
        <ele>950</ele>
        <time>2021-09-07T14:36:44Z</time>
      </trkpt>
      <trkpt lat="44.39981" lon="5.56229">
        <ele>950.1</ele>
        <time>2021-09-07T14:36:45Z</time>
      </trkpt>
      <trkpt lat="44.39982" lon="5.5623">
        <ele>950.1</ele>
        <time>2021-09-07T14:36:46Z</time>
      </trkpt>
      <trkpt lat="44.39982" lon="5.5623">
        <ele>950.2</ele>
        <time>2021-09-07T14:36:47Z</time>
      </trkpt>
      <trkpt lat="44.39983" lon="5.56234">
        <ele>950.4</ele>
        <time>2021-09-07T14:36:48Z</time>
      </trkpt>
      <trkpt lat="44.39984" lon="5.56235">
        <ele>950.4</ele>
        <time>2021-09-07T14:36:49Z</time>
      </trkpt>
      <trkpt lat="44.39985" lon="5.56236">
        <ele>950.5</ele>
        <time>2021-09-07T14:36:50Z</time>
      </trkpt>
      <trkpt lat="44.39988" lon="5.56238">
        <ele>950.7</ele>
        <time>2021-09-07T14:36:51Z</time>
      </trkpt>
      <trkpt lat="44.39991" lon="5.5624">
        <ele>950.9</ele>
        <time>2021-09-07T14:36:52Z</time>
      </trkpt>
      <trkpt lat="44.39993" lon="5.56244">
        <ele>951.1</ele>
        <time>2021-09-07T14:36:53Z</time>
      </trkpt>
      <trkpt lat="44.39993" lon="5.56246">
        <ele>951.2</ele>
        <time>2021-09-07T14:36:54Z</time>
      </trkpt>
      <trkpt lat="44.39993" lon="5.56248">
        <ele>951.3</ele>
        <time>2021-09-07T14:36:55Z</time>
      </trkpt>
      <trkpt lat="44.39993" lon="5.56252">
        <ele>951.5</ele>
        <time>2021-09-07T14:36:56Z</time>
      </trkpt>
      <trkpt lat="44.39993" lon="5.56254">
        <ele>951.5</ele>
        <time>2021-09-07T14:36:57Z</time>
      </trkpt>
      <trkpt lat="44.39993" lon="5.56256">
        <ele>951.6</ele>
        <time>2021-09-07T14:36:58Z</time>
      </trkpt>
      <trkpt lat="44.39994" lon="5.56261">
        <ele>951.9</ele>
        <time>2021-09-07T14:36:59Z</time>
      </trkpt>
      <trkpt lat="44.39994" lon="5.56263">
        <ele>952</ele>
        <time>2021-09-07T14:37:00Z</time>
      </trkpt>
      <trkpt lat="44.39994" lon="5.56265">
        <ele>952.1</ele>
        <time>2021-09-07T14:37:01Z</time>
      </trkpt>
      <trkpt lat="44.39994" lon="5.56267">
        <ele>952.2</ele>
        <time>2021-09-07T14:37:02Z</time>
      </trkpt>
      <trkpt lat="44.39995" lon="5.5627">
        <ele>952.3</ele>
        <time>2021-09-07T14:37:03Z</time>
      </trkpt>
      <trkpt lat="44.39996" lon="5.56273">
        <ele>952.5</ele>
        <time>2021-09-07T14:37:04Z</time>
      </trkpt>
      <trkpt lat="44.39997" lon="5.56275">
        <ele>952.6</ele>
        <time>2021-09-07T14:37:05Z</time>
      </trkpt>
      <trkpt lat="44.39997" lon="5.56276">
        <ele>952.6</ele>
        <time>2021-09-07T14:37:06Z</time>
      </trkpt>
      <trkpt lat="44.39998" lon="5.56278">
        <ele>952.7</ele>
        <time>2021-09-07T14:37:07Z</time>
      </trkpt>
      <trkpt lat="44.39998" lon="5.56279">
        <ele>952.8</ele>
        <time>2021-09-07T14:37:08Z</time>
      </trkpt>
      <trkpt lat="44.39999" lon="5.56282">
        <ele>952.9</ele>
        <time>2021-09-07T14:37:09Z</time>
      </trkpt>
      <trkpt lat="44.4" lon="5.56284">
        <ele>953</ele>
        <time>2021-09-07T14:37:10Z</time>
      </trkpt>
      <trkpt lat="44.4" lon="5.56285">
        <ele>953.1</ele>
        <time>2021-09-07T14:37:11Z</time>
      </trkpt>
      <trkpt lat="44.4" lon="5.56287">
        <ele>953.2</ele>
        <time>2021-09-07T14:37:12Z</time>
      </trkpt>
      <trkpt lat="44.40001" lon="5.5629">
        <ele>953.3</ele>
        <time>2021-09-07T14:37:13Z</time>
      </trkpt>
      <trkpt lat="44.40002" lon="5.56292">
        <ele>953.4</ele>
        <time>2021-09-07T14:37:14Z</time>
      </trkpt>
      <trkpt lat="44.40003" lon="5.56293">
        <ele>953.5</ele>
        <time>2021-09-07T14:37:15Z</time>
      </trkpt>
      <trkpt lat="44.40005" lon="5.56295">
        <ele>953.6</ele>
        <time>2021-09-07T14:37:16Z</time>
      </trkpt>
      <trkpt lat="44.40006" lon="5.56296">
        <ele>953.7</ele>
        <time>2021-09-07T14:37:17Z</time>
      </trkpt>
      <trkpt lat="44.40009" lon="5.56298">
        <ele>953.9</ele>
        <time>2021-09-07T14:37:18Z</time>
      </trkpt>
      <trkpt lat="44.4001" lon="5.56299">
        <ele>953.9</ele>
        <time>2021-09-07T14:37:19Z</time>
      </trkpt>
      <trkpt lat="44.40011" lon="5.563">
        <ele>954</ele>
        <time>2021-09-07T14:37:20Z</time>
      </trkpt>
      <trkpt lat="44.40012" lon="5.56301">
        <ele>954.1</ele>
        <time>2021-09-07T14:37:21Z</time>
      </trkpt>
      <trkpt lat="44.40013" lon="5.56302">
        <ele>954.1</ele>
        <time>2021-09-07T14:37:22Z</time>
      </trkpt>
      <trkpt lat="44.40014" lon="5.56303">
        <ele>954.2</ele>
        <time>2021-09-07T14:37:23Z</time>
      </trkpt>
      <trkpt lat="44.40016" lon="5.56304">
        <ele>954.3</ele>
        <time>2021-09-07T14:37:24Z</time>
      </trkpt>
      <trkpt lat="44.40018" lon="5.56306">
        <ele>954.4</ele>
        <time>2021-09-07T14:37:25Z</time>
      </trkpt>
      <trkpt lat="44.40019" lon="5.56307">
        <ele>954.4</ele>
        <time>2021-09-07T14:37:26Z</time>
      </trkpt>
      <trkpt lat="44.4002" lon="5.56308">
        <ele>954.5</ele>
        <time>2021-09-07T14:37:27Z</time>
      </trkpt>
      <trkpt lat="44.40022" lon="5.5631">
        <ele>954.6</ele>
        <time>2021-09-07T14:37:28Z</time>
      </trkpt>
      <trkpt lat="44.40023" lon="5.56311">
        <ele>954.7</ele>
        <time>2021-09-07T14:37:29Z</time>
      </trkpt>
      <trkpt lat="44.40025" lon="5.56313">
        <ele>954.8</ele>
        <time>2021-09-07T14:37:30Z</time>
      </trkpt>
      <trkpt lat="44.40027" lon="5.56316">
        <ele>954.9</ele>
        <time>2021-09-07T14:37:31Z</time>
      </trkpt>
      <trkpt lat="44.40028" lon="5.56318">
        <ele>954.9</ele>
        <time>2021-09-07T14:37:32Z</time>
      </trkpt>
      <trkpt lat="44.40029" lon="5.56319">
        <ele>955</ele>
        <time>2021-09-07T14:37:33Z</time>
      </trkpt>
      <trkpt lat="44.40031" lon="5.56321">
        <ele>955.1</ele>
        <time>2021-09-07T14:37:34Z</time>
      </trkpt>
      <trkpt lat="44.40033" lon="5.56322">
        <ele>955.1</ele>
        <time>2021-09-07T14:37:35Z</time>
      </trkpt>
      <trkpt lat="44.40034" lon="5.56325">
        <ele>955.2</ele>
        <time>2021-09-07T14:37:36Z</time>
      </trkpt>
      <trkpt lat="44.40035" lon="5.56327">
        <ele>955.3</ele>
        <time>2021-09-07T14:37:37Z</time>
      </trkpt>
      <trkpt lat="44.40037" lon="5.56332">
        <ele>955.4</ele>
        <time>2021-09-07T14:37:38Z</time>
      </trkpt>
      <trkpt lat="44.40038" lon="5.56334">
        <ele>955.4</ele>
        <time>2021-09-07T14:37:39Z</time>
      </trkpt>
      <trkpt lat="44.40038" lon="5.56336">
        <ele>955.5</ele>
        <time>2021-09-07T14:37:40Z</time>
      </trkpt>
      <trkpt lat="44.40039" lon="5.56338">
        <ele>955.5</ele>
        <time>2021-09-07T14:37:41Z</time>
      </trkpt>
      <trkpt lat="44.4004" lon="5.56342">
        <ele>955.6</ele>
        <time>2021-09-07T14:37:42Z</time>
      </trkpt>
      <trkpt lat="44.40041" lon="5.56345">
        <ele>955.6</ele>
        <time>2021-09-07T14:37:43Z</time>
      </trkpt>
      <trkpt lat="44.40041" lon="5.56347">
        <ele>955.7</ele>
        <time>2021-09-07T14:37:44Z</time>
      </trkpt>
      <trkpt lat="44.40042" lon="5.5635">
        <ele>955.7</ele>
        <time>2021-09-07T14:37:45Z</time>
      </trkpt>
      <trkpt lat="44.40042" lon="5.56352">
        <ele>955.8</ele>
        <time>2021-09-07T14:37:46Z</time>
      </trkpt>
      <trkpt lat="44.40043" lon="5.56355">
        <ele>955.8</ele>
        <time>2021-09-07T14:37:47Z</time>
      </trkpt>
      <trkpt lat="44.40044" lon="5.56359">
        <ele>955.9</ele>
        <time>2021-09-07T14:37:48Z</time>
      </trkpt>
      <trkpt lat="44.40046" lon="5.56365">
        <ele>956</ele>
        <time>2021-09-07T14:37:49Z</time>
      </trkpt>
      <trkpt lat="44.40047" lon="5.56368">
        <ele>956.1</ele>
        <time>2021-09-07T14:37:50Z</time>
      </trkpt>
      <trkpt lat="44.40047" lon="5.5637">
        <ele>956.2</ele>
        <time>2021-09-07T14:37:51Z</time>
      </trkpt>
      <trkpt lat="44.40048" lon="5.56375">
        <ele>956.3</ele>
        <time>2021-09-07T14:37:52Z</time>
      </trkpt>
      <trkpt lat="44.40049" lon="5.56378">
        <ele>956.4</ele>
        <time>2021-09-07T14:37:53Z</time>
      </trkpt>
      <trkpt lat="44.40049" lon="5.56381">
        <ele>956.4</ele>
        <time>2021-09-07T14:37:54Z</time>
      </trkpt>
      <trkpt lat="44.4005" lon="5.56387">
        <ele>956.6</ele>
        <time>2021-09-07T14:37:55Z</time>
      </trkpt>
      <trkpt lat="44.40051" lon="5.56391">
        <ele>956.7</ele>
        <time>2021-09-07T14:37:56Z</time>
      </trkpt>
      <trkpt lat="44.40051" lon="5.56394">
        <ele>956.7</ele>
        <time>2021-09-07T14:37:57Z</time>
      </trkpt>
      <trkpt lat="44.40051" lon="5.56398">
        <ele>956.8</ele>
        <time>2021-09-07T14:37:58Z</time>
      </trkpt>
      <trkpt lat="44.40051" lon="5.56402">
        <ele>956.9</ele>
        <time>2021-09-07T14:37:59Z</time>
      </trkpt>
      <trkpt lat="44.40051" lon="5.56407">
        <ele>957</ele>
        <time>2021-09-07T14:38:00Z</time>
      </trkpt>
      <trkpt lat="44.40052" lon="5.56412">
        <ele>957.1</ele>
        <time>2021-09-07T14:38:01Z</time>
      </trkpt>
      <trkpt lat="44.40052" lon="5.56416">
        <ele>957.2</ele>
        <time>2021-09-07T14:38:02Z</time>
      </trkpt>
      <trkpt lat="44.40052" lon="5.56421">
        <ele>957.3</ele>
        <time>2021-09-07T14:38:03Z</time>
      </trkpt>
      <trkpt lat="44.40052" lon="5.56426">
        <ele>957.3</ele>
        <time>2021-09-07T14:38:04Z</time>
      </trkpt>
      <trkpt lat="44.40052" lon="5.5643">
        <ele>957.4</ele>
        <time>2021-09-07T14:38:05Z</time>
      </trkpt>
      <trkpt lat="44.40052" lon="5.56435">
        <ele>957.5</ele>
        <time>2021-09-07T14:38:06Z</time>
      </trkpt>
      <trkpt lat="44.40051" lon="5.56442">
        <ele>957.7</ele>
        <time>2021-09-07T14:38:07Z</time>
      </trkpt>
      <trkpt lat="44.40051" lon="5.56446">
        <ele>957.7</ele>
        <time>2021-09-07T14:38:08Z</time>
      </trkpt>
      <trkpt lat="44.40051" lon="5.56449">
        <ele>957.8</ele>
        <time>2021-09-07T14:38:09Z</time>
      </trkpt>
      <trkpt lat="44.4005" lon="5.56453">
        <ele>957.9</ele>
        <time>2021-09-07T14:38:10Z</time>
      </trkpt>
      <trkpt lat="44.40049" lon="5.56458">
        <ele>958</ele>
        <time>2021-09-07T14:38:11Z</time>
      </trkpt>
      <trkpt lat="44.40048" lon="5.56463">
        <ele>958.1</ele>
        <time>2021-09-07T14:38:12Z</time>
      </trkpt>
      <trkpt lat="44.40047" lon="5.56467">
        <ele>958.1</ele>
        <time>2021-09-07T14:38:13Z</time>
      </trkpt>
      <trkpt lat="44.40046" lon="5.56471">
        <ele>958.2</ele>
        <time>2021-09-07T14:38:14Z</time>
      </trkpt>
      <trkpt lat="44.40045" lon="5.56476">
        <ele>958.3</ele>
        <time>2021-09-07T14:38:15Z</time>
      </trkpt>
      <trkpt lat="44.40043" lon="5.56483">
        <ele>958.4</ele>
        <time>2021-09-07T14:38:16Z</time>
      </trkpt>
      <trkpt lat="44.40043" lon="5.56486">
        <ele>958.4</ele>
        <time>2021-09-07T14:38:17Z</time>
      </trkpt>
      <trkpt lat="44.40042" lon="5.56489">
        <ele>958.5</ele>
        <time>2021-09-07T14:38:18Z</time>
      </trkpt>
      <trkpt lat="44.40042" lon="5.56494">
        <ele>958.5</ele>
        <time>2021-09-07T14:38:19Z</time>
      </trkpt>
      <trkpt lat="44.40041" lon="5.56498">
        <ele>958.6</ele>
        <time>2021-09-07T14:38:20Z</time>
      </trkpt>
      <trkpt lat="44.4004" lon="5.56503">
        <ele>958.7</ele>
        <time>2021-09-07T14:38:21Z</time>
      </trkpt>
      <trkpt lat="44.4004" lon="5.56508">
        <ele>958.8</ele>
        <time>2021-09-07T14:38:22Z</time>
      </trkpt>
      <trkpt lat="44.40039" lon="5.56513">
        <ele>958.8</ele>
        <time>2021-09-07T14:38:23Z</time>
      </trkpt>
      <trkpt lat="44.40039" lon="5.56518">
        <ele>958.9</ele>
        <time>2021-09-07T14:38:24Z</time>
      </trkpt>
      <trkpt lat="44.40039" lon="5.56522">
        <ele>958.9</ele>
        <time>2021-09-07T14:38:25Z</time>
      </trkpt>
      <trkpt lat="44.40039" lon="5.56528">
        <ele>959</ele>
        <time>2021-09-07T14:38:26Z</time>
      </trkpt>
      <trkpt lat="44.40039" lon="5.56532">
        <ele>959</ele>
        <time>2021-09-07T14:38:27Z</time>
      </trkpt>
      <trkpt lat="44.40039" lon="5.56536">
        <ele>959</ele>
        <time>2021-09-07T14:38:28Z</time>
      </trkpt>
      <trkpt lat="44.40039" lon="5.56541">
        <ele>959.1</ele>
        <time>2021-09-07T14:38:29Z</time>
      </trkpt>
      <trkpt lat="44.40039" lon="5.56546">
        <ele>959.2</ele>
        <time>2021-09-07T14:38:30Z</time>
      </trkpt>
      <trkpt lat="44.4004" lon="5.5655">
        <ele>959.2</ele>
        <time>2021-09-07T14:38:31Z</time>
      </trkpt>
      <trkpt lat="44.40039" lon="5.56555">
        <ele>959.3</ele>
        <time>2021-09-07T14:38:32Z</time>
      </trkpt>
      <trkpt lat="44.4004" lon="5.56562">
        <ele>959.4</ele>
        <time>2021-09-07T14:38:33Z</time>
      </trkpt>
      <trkpt lat="44.4004" lon="5.56565">
        <ele>959.4</ele>
        <time>2021-09-07T14:38:34Z</time>
      </trkpt>
      <trkpt lat="44.4004" lon="5.56567">
        <ele>959.5</ele>
        <time>2021-09-07T14:38:35Z</time>
      </trkpt>
      <trkpt lat="44.40041" lon="5.56571">
        <ele>959.5</ele>
        <time>2021-09-07T14:38:36Z</time>
      </trkpt>
      <trkpt lat="44.40041" lon="5.56574">
        <ele>959.6</ele>
        <time>2021-09-07T14:38:37Z</time>
      </trkpt>
      <trkpt lat="44.40041" lon="5.56578">
        <ele>959.6</ele>
        <time>2021-09-07T14:38:38Z</time>
      </trkpt>
      <trkpt lat="44.40041" lon="5.56581">
        <ele>959.7</ele>
        <time>2021-09-07T14:38:39Z</time>
      </trkpt>
      <trkpt lat="44.40042" lon="5.56584">
        <ele>959.8</ele>
        <time>2021-09-07T14:38:40Z</time>
      </trkpt>
      <trkpt lat="44.40042" lon="5.56587">
        <ele>959.9</ele>
        <time>2021-09-07T14:38:41Z</time>
      </trkpt>
      <trkpt lat="44.40042" lon="5.5659">
        <ele>959.9</ele>
        <time>2021-09-07T14:38:42Z</time>
      </trkpt>
      <trkpt lat="44.40043" lon="5.56593">
        <ele>960</ele>
        <time>2021-09-07T14:38:43Z</time>
      </trkpt>
      <trkpt lat="44.40043" lon="5.56595">
        <ele>960.1</ele>
        <time>2021-09-07T14:38:44Z</time>
      </trkpt>
      <trkpt lat="44.40044" lon="5.56598">
        <ele>960.1</ele>
        <time>2021-09-07T14:38:45Z</time>
      </trkpt>
      <trkpt lat="44.40044" lon="5.56601">
        <ele>960.2</ele>
        <time>2021-09-07T14:38:46Z</time>
      </trkpt>
      <trkpt lat="44.40044" lon="5.56603">
        <ele>960.3</ele>
        <time>2021-09-07T14:38:47Z</time>
      </trkpt>
      <trkpt lat="44.40044" lon="5.56606">
        <ele>960.4</ele>
        <time>2021-09-07T14:38:48Z</time>
      </trkpt>
      <trkpt lat="44.40045" lon="5.56608">
        <ele>960.4</ele>
        <time>2021-09-07T14:38:49Z</time>
      </trkpt>
      <trkpt lat="44.40045" lon="5.5661">
        <ele>960.5</ele>
        <time>2021-09-07T14:38:50Z</time>
      </trkpt>
      <trkpt lat="44.40045" lon="5.56613">
        <ele>960.6</ele>
        <time>2021-09-07T14:38:51Z</time>
      </trkpt>
      <trkpt lat="44.40045" lon="5.56615">
        <ele>960.7</ele>
        <time>2021-09-07T14:38:52Z</time>
      </trkpt>
      <trkpt lat="44.40045" lon="5.56617">
        <ele>960.7</ele>
        <time>2021-09-07T14:38:53Z</time>
      </trkpt>
      <trkpt lat="44.40045" lon="5.56619">
        <ele>960.8</ele>
        <time>2021-09-07T14:38:54Z</time>
      </trkpt>
      <trkpt lat="44.40045" lon="5.56621">
        <ele>960.9</ele>
        <time>2021-09-07T14:38:55Z</time>
      </trkpt>
      <trkpt lat="44.40045" lon="5.56623">
        <ele>960.9</ele>
        <time>2021-09-07T14:38:56Z</time>
      </trkpt>
      <trkpt lat="44.40046" lon="5.56626">
        <ele>961</ele>
        <time>2021-09-07T14:38:57Z</time>
      </trkpt>
      <trkpt lat="44.40046" lon="5.56628">
        <ele>961.1</ele>
        <time>2021-09-07T14:38:58Z</time>
      </trkpt>
      <trkpt lat="44.40047" lon="5.56631">
        <ele>961.2</ele>
        <time>2021-09-07T14:38:59Z</time>
      </trkpt>
      <trkpt lat="44.40047" lon="5.56634">
        <ele>961.3</ele>
        <time>2021-09-07T14:39:00Z</time>
      </trkpt>
      <trkpt lat="44.40048" lon="5.56636">
        <ele>961.4</ele>
        <time>2021-09-07T14:39:01Z</time>
      </trkpt>
      <trkpt lat="44.40048" lon="5.56638">
        <ele>961.4</ele>
        <time>2021-09-07T14:39:02Z</time>
      </trkpt>
      <trkpt lat="44.40048" lon="5.56639">
        <ele>961.5</ele>
        <time>2021-09-07T14:39:03Z</time>
      </trkpt>
      <trkpt lat="44.40049" lon="5.56641">
        <ele>961.6</ele>
        <time>2021-09-07T14:39:04Z</time>
      </trkpt>
      <trkpt lat="44.40049" lon="5.56643">
        <ele>961.6</ele>
        <time>2021-09-07T14:39:05Z</time>
      </trkpt>
      <trkpt lat="44.4005" lon="5.56647">
        <ele>961.8</ele>
        <time>2021-09-07T14:39:06Z</time>
      </trkpt>
      <trkpt lat="44.40051" lon="5.56649">
        <ele>961.9</ele>
        <time>2021-09-07T14:39:07Z</time>
      </trkpt>
      <trkpt lat="44.40051" lon="5.56651">
        <ele>962</ele>
        <time>2021-09-07T14:39:08Z</time>
      </trkpt>
      <trkpt lat="44.40051" lon="5.56653">
        <ele>962.1</ele>
        <time>2021-09-07T14:39:09Z</time>
      </trkpt>
      <trkpt lat="44.40051" lon="5.56655">
        <ele>962.1</ele>
        <time>2021-09-07T14:39:10Z</time>
      </trkpt>
      <trkpt lat="44.40051" lon="5.56657">
        <ele>962.2</ele>
        <time>2021-09-07T14:39:11Z</time>
      </trkpt>
      <trkpt lat="44.40051" lon="5.56659">
        <ele>962.3</ele>
        <time>2021-09-07T14:39:12Z</time>
      </trkpt>
      <trkpt lat="44.40051" lon="5.5666">
        <ele>962.4</ele>
        <time>2021-09-07T14:39:13Z</time>
      </trkpt>
      <trkpt lat="44.40052" lon="5.5666">
        <ele>962.4</ele>
        <time>2021-09-07T14:39:14Z</time>
      </trkpt>
      <trkpt lat="44.40052" lon="5.5666">
        <ele>962.5</ele>
        <time>2021-09-07T14:39:15Z</time>
      </trkpt>
      <trkpt lat="44.40052" lon="5.56661">
        <ele>962.5</ele>
        <time>2021-09-07T14:39:16Z</time>
      </trkpt>
      <trkpt lat="44.40052" lon="5.56661">
        <ele>962.5</ele>
        <time>2021-09-07T14:39:17Z</time>
      </trkpt>
      <trkpt lat="44.40053" lon="5.56662">
        <ele>962.5</ele>
        <time>2021-09-07T14:39:18Z</time>
      </trkpt>
      <trkpt lat="44.40053" lon="5.56662">
        <ele>962.6</ele>
        <time>2021-09-07T14:39:19Z</time>
      </trkpt>
      <trkpt lat="44.40053" lon="5.56662">
        <ele>962.6</ele>
        <time>2021-09-07T14:39:20Z</time>
      </trkpt>
      <trkpt lat="44.40053" lon="5.56662">
        <ele>962.6</ele>
        <time>2021-09-07T14:39:21Z</time>
      </trkpt>
      <trkpt lat="44.40053" lon="5.56662">
        <ele>962.6</ele>
        <time>2021-09-07T14:39:22Z</time>
      </trkpt>
      <trkpt lat="44.40053" lon="5.56662">
        <ele>962.6</ele>
        <time>2021-09-07T14:39:23Z</time>
      </trkpt>
      <trkpt lat="44.40053" lon="5.56662">
        <ele>962.6</ele>
        <time>2021-09-07T14:39:24Z</time>
      </trkpt>
      <trkpt lat="44.40053" lon="5.56662">
        <ele>962.6</ele>
        <time>2021-09-07T14:39:25Z</time>
      </trkpt>
      <trkpt lat="44.40053" lon="5.56663">
        <ele>962.6</ele>
        <time>2021-09-07T14:39:26Z</time>
      </trkpt>
      <trkpt lat="44.40053" lon="5.56663">
        <ele>962.6</ele>
        <time>2021-09-07T14:39:27Z</time>
      </trkpt>
      <trkpt lat="44.40053" lon="5.56663">
        <ele>962.6</ele>
        <time>2021-09-07T14:39:28Z</time>
      </trkpt>
      <trkpt lat="44.40053" lon="5.56663">
        <ele>962.6</ele>
        <time>2021-09-07T14:39:29Z</time>
      </trkpt>
      <trkpt lat="44.40053" lon="5.56663">
        <ele>962.6</ele>
        <time>2021-09-07T14:39:30Z</time>
      </trkpt>
      <trkpt lat="44.40053" lon="5.56663">
        <ele>962.6</ele>
        <time>2021-09-07T14:39:31Z</time>
      </trkpt>
      <trkpt lat="44.40053" lon="5.56663">
        <ele>962.6</ele>
        <time>2021-09-07T14:39:32Z</time>
      </trkpt>
      <trkpt lat="44.40053" lon="5.56664">
        <ele>962.7</ele>
        <time>2021-09-07T14:39:33Z</time>
      </trkpt>
      <trkpt lat="44.40053" lon="5.56665">
        <ele>962.7</ele>
        <time>2021-09-07T14:39:34Z</time>
      </trkpt>
      <trkpt lat="44.40053" lon="5.56666">
        <ele>962.8</ele>
        <time>2021-09-07T14:39:35Z</time>
      </trkpt>
      <trkpt lat="44.40053" lon="5.56669">
        <ele>962.9</ele>
        <time>2021-09-07T14:39:36Z</time>
      </trkpt>
      <trkpt lat="44.40052" lon="5.56672">
        <ele>963.1</ele>
        <time>2021-09-07T14:39:37Z</time>
      </trkpt>
      <trkpt lat="44.40051" lon="5.56675">
        <ele>963.3</ele>
        <time>2021-09-07T14:39:38Z</time>
      </trkpt>
      <trkpt lat="44.40051" lon="5.56676">
        <ele>963.3</ele>
        <time>2021-09-07T14:39:39Z</time>
      </trkpt>
      <trkpt lat="44.40051" lon="5.56677">
        <ele>963.4</ele>
        <time>2021-09-07T14:39:40Z</time>
      </trkpt>
      <trkpt lat="44.4005" lon="5.56679">
        <ele>963.5</ele>
        <time>2021-09-07T14:39:41Z</time>
      </trkpt>
      <trkpt lat="44.40049" lon="5.56682">
        <ele>963.7</ele>
        <time>2021-09-07T14:39:42Z</time>
      </trkpt>
      <trkpt lat="44.40049" lon="5.56684">
        <ele>963.8</ele>
        <time>2021-09-07T14:39:43Z</time>
      </trkpt>
      <trkpt lat="44.40048" lon="5.56685">
        <ele>963.9</ele>
        <time>2021-09-07T14:39:44Z</time>
      </trkpt>
      <trkpt lat="44.40047" lon="5.56687">
        <ele>964</ele>
        <time>2021-09-07T14:39:45Z</time>
      </trkpt>
      <trkpt lat="44.40047" lon="5.56688">
        <ele>964</ele>
        <time>2021-09-07T14:39:46Z</time>
      </trkpt>
      <trkpt lat="44.40047" lon="5.56688">
        <ele>964</ele>
        <time>2021-09-07T14:39:47Z</time>
      </trkpt>
      <trkpt lat="44.40046" lon="5.56691">
        <ele>964.2</ele>
        <time>2021-09-07T14:39:48Z</time>
      </trkpt>
      <trkpt lat="44.40046" lon="5.56693">
        <ele>964.3</ele>
        <time>2021-09-07T14:39:49Z</time>
      </trkpt>
      <trkpt lat="44.40046" lon="5.56694">
        <ele>964.4</ele>
        <time>2021-09-07T14:39:50Z</time>
      </trkpt>
      <trkpt lat="44.40046" lon="5.56695">
        <ele>964.4</ele>
        <time>2021-09-07T14:39:51Z</time>
      </trkpt>
      <trkpt lat="44.40046" lon="5.56696">
        <ele>964.5</ele>
        <time>2021-09-07T14:39:52Z</time>
      </trkpt>
      <trkpt lat="44.40046" lon="5.56697">
        <ele>964.5</ele>
        <time>2021-09-07T14:39:53Z</time>
      </trkpt>
      <trkpt lat="44.40046" lon="5.56697">
        <ele>964.5</ele>
        <time>2021-09-07T14:39:54Z</time>
      </trkpt>
      <trkpt lat="44.40046" lon="5.56698">
        <ele>964.6</ele>
        <time>2021-09-07T14:39:55Z</time>
      </trkpt>
      <trkpt lat="44.40046" lon="5.56698">
        <ele>964.6</ele>
        <time>2021-09-07T14:39:56Z</time>
      </trkpt>
      <trkpt lat="44.40046" lon="5.56698">
        <ele>964.6</ele>
        <time>2021-09-07T14:39:57Z</time>
      </trkpt>
      <trkpt lat="44.40046" lon="5.56699">
        <ele>964.7</ele>
        <time>2021-09-07T14:39:58Z</time>
      </trkpt>
      <trkpt lat="44.40047" lon="5.56702">
        <ele>964.9</ele>
        <time>2021-09-07T14:39:59Z</time>
      </trkpt>
      <trkpt lat="44.40047" lon="5.56704">
        <ele>965</ele>
        <time>2021-09-07T14:40:00Z</time>
      </trkpt>
      <trkpt lat="44.40047" lon="5.56707">
        <ele>965.1</ele>
        <time>2021-09-07T14:40:01Z</time>
      </trkpt>
      <trkpt lat="44.40047" lon="5.56708">
        <ele>965.2</ele>
        <time>2021-09-07T14:40:02Z</time>
      </trkpt>
      <trkpt lat="44.40046" lon="5.56709">
        <ele>965.3</ele>
        <time>2021-09-07T14:40:03Z</time>
      </trkpt>
      <trkpt lat="44.40046" lon="5.5671">
        <ele>965.3</ele>
        <time>2021-09-07T14:40:04Z</time>
      </trkpt>
      <trkpt lat="44.40046" lon="5.56711">
        <ele>965.4</ele>
        <time>2021-09-07T14:40:05Z</time>
      </trkpt>
      <trkpt lat="44.40046" lon="5.56713">
        <ele>965.5</ele>
        <time>2021-09-07T14:40:06Z</time>
      </trkpt>
      <trkpt lat="44.40046" lon="5.56717">
        <ele>965.8</ele>
        <time>2021-09-07T14:40:07Z</time>
      </trkpt>
      <trkpt lat="44.40045" lon="5.5672">
        <ele>966</ele>
        <time>2021-09-07T14:40:08Z</time>
      </trkpt>
      <trkpt lat="44.40045" lon="5.56724">
        <ele>966.3</ele>
        <time>2021-09-07T14:40:09Z</time>
      </trkpt>
      <trkpt lat="44.40045" lon="5.56726">
        <ele>966.4</ele>
        <time>2021-09-07T14:40:10Z</time>
      </trkpt>
      <trkpt lat="44.40045" lon="5.56727">
        <ele>966.4</ele>
        <time>2021-09-07T14:40:11Z</time>
      </trkpt>
      <trkpt lat="44.40045" lon="5.56727">
        <ele>966.5</ele>
        <time>2021-09-07T14:40:12Z</time>
      </trkpt>
      <trkpt lat="44.40045" lon="5.5673">
        <ele>966.6</ele>
        <time>2021-09-07T14:40:13Z</time>
      </trkpt>
      <trkpt lat="44.40044" lon="5.56732">
        <ele>966.8</ele>
        <time>2021-09-07T14:40:14Z</time>
      </trkpt>
      <trkpt lat="44.40044" lon="5.56735">
        <ele>967</ele>
        <time>2021-09-07T14:40:15Z</time>
      </trkpt>
      <trkpt lat="44.40044" lon="5.56737">
        <ele>967.1</ele>
        <time>2021-09-07T14:40:16Z</time>
      </trkpt>
      <trkpt lat="44.40044" lon="5.56739">
        <ele>967.2</ele>
        <time>2021-09-07T14:40:17Z</time>
      </trkpt>
      <trkpt lat="44.40044" lon="5.5674">
        <ele>967.3</ele>
        <time>2021-09-07T14:40:18Z</time>
      </trkpt>
      <trkpt lat="44.40044" lon="5.5674">
        <ele>967.3</ele>
        <time>2021-09-07T14:40:19Z</time>
      </trkpt>
      <trkpt lat="44.40044" lon="5.56741">
        <ele>967.4</ele>
        <time>2021-09-07T14:40:20Z</time>
      </trkpt>
      <trkpt lat="44.40044" lon="5.56742">
        <ele>967.4</ele>
        <time>2021-09-07T14:40:21Z</time>
      </trkpt>
      <trkpt lat="44.40044" lon="5.56742">
        <ele>967.4</ele>
        <time>2021-09-07T14:40:22Z</time>
      </trkpt>
      <trkpt lat="44.40044" lon="5.56742">
        <ele>967.4</ele>
        <time>2021-09-07T14:40:23Z</time>
      </trkpt>
      <trkpt lat="44.40044" lon="5.56742">
        <ele>967.4</ele>
        <time>2021-09-07T14:40:24Z</time>
      </trkpt>
      <trkpt lat="44.40044" lon="5.56742">
        <ele>967.4</ele>
        <time>2021-09-07T14:40:25Z</time>
      </trkpt>
      <trkpt lat="44.40044" lon="5.56742">
        <ele>967.4</ele>
        <time>2021-09-07T14:40:26Z</time>
      </trkpt>
      <trkpt lat="44.40044" lon="5.56743">
        <ele>967.5</ele>
        <time>2021-09-07T14:40:27Z</time>
      </trkpt>
      <trkpt lat="44.40044" lon="5.56743">
        <ele>967.5</ele>
        <time>2021-09-07T14:40:28Z</time>
      </trkpt>
      <trkpt lat="44.40044" lon="5.56744">
        <ele>967.6</ele>
        <time>2021-09-07T14:40:29Z</time>
      </trkpt>
      <trkpt lat="44.40044" lon="5.56746">
        <ele>967.7</ele>
        <time>2021-09-07T14:40:30Z</time>
      </trkpt>
      <trkpt lat="44.40043" lon="5.56752">
        <ele>968.1</ele>
        <time>2021-09-07T14:40:31Z</time>
      </trkpt>
      <trkpt lat="44.40043" lon="5.56754">
        <ele>968.2</ele>
        <time>2021-09-07T14:40:32Z</time>
      </trkpt>
      <trkpt lat="44.40042" lon="5.56756">
        <ele>968.3</ele>
        <time>2021-09-07T14:40:33Z</time>
      </trkpt>
      <trkpt lat="44.40041" lon="5.56759">
        <ele>968.5</ele>
        <time>2021-09-07T14:40:34Z</time>
      </trkpt>
      <trkpt lat="44.40041" lon="5.5676">
        <ele>968.6</ele>
        <time>2021-09-07T14:40:35Z</time>
      </trkpt>
      <trkpt lat="44.40041" lon="5.56762">
        <ele>968.7</ele>
        <time>2021-09-07T14:40:36Z</time>
      </trkpt>
      <trkpt lat="44.40041" lon="5.56763">
        <ele>968.7</ele>
        <time>2021-09-07T14:40:37Z</time>
      </trkpt>
      <trkpt lat="44.40041" lon="5.56763">
        <ele>968.8</ele>
        <time>2021-09-07T14:40:38Z</time>
      </trkpt>
      <trkpt lat="44.4004" lon="5.56764">
        <ele>968.9</ele>
        <time>2021-09-07T14:40:39Z</time>
      </trkpt>
      <trkpt lat="44.4004" lon="5.56765">
        <ele>968.9</ele>
        <time>2021-09-07T14:40:40Z</time>
      </trkpt>
      <trkpt lat="44.4004" lon="5.56765">
        <ele>968.9</ele>
        <time>2021-09-07T14:40:41Z</time>
      </trkpt>
      <trkpt lat="44.4004" lon="5.56765">
        <ele>968.9</ele>
        <time>2021-09-07T14:40:42Z</time>
      </trkpt>
      <trkpt lat="44.4004" lon="5.56766">
        <ele>969</ele>
        <time>2021-09-07T14:40:43Z</time>
      </trkpt>
      <trkpt lat="44.4004" lon="5.56767">
        <ele>969.1</ele>
        <time>2021-09-07T14:40:44Z</time>
      </trkpt>
      <trkpt lat="44.40039" lon="5.5677">
        <ele>969.3</ele>
        <time>2021-09-07T14:40:45Z</time>
      </trkpt>
      <trkpt lat="44.40039" lon="5.56772">
        <ele>969.4</ele>
        <time>2021-09-07T14:40:46Z</time>
      </trkpt>
      <trkpt lat="44.40038" lon="5.56773">
        <ele>969.5</ele>
        <time>2021-09-07T14:40:47Z</time>
      </trkpt>
      <trkpt lat="44.40037" lon="5.56775">
        <ele>969.6</ele>
        <time>2021-09-07T14:40:48Z</time>
      </trkpt>
      <trkpt lat="44.40036" lon="5.56778">
        <ele>969.8</ele>
        <time>2021-09-07T14:40:49Z</time>
      </trkpt>
      <trkpt lat="44.40035" lon="5.56779">
        <ele>969.9</ele>
        <time>2021-09-07T14:40:50Z</time>
      </trkpt>
      <trkpt lat="44.40035" lon="5.5678">
        <ele>970</ele>
        <time>2021-09-07T14:40:51Z</time>
      </trkpt>
      <trkpt lat="44.40035" lon="5.56781">
        <ele>970</ele>
        <time>2021-09-07T14:40:52Z</time>
      </trkpt>
      <trkpt lat="44.40035" lon="5.56781">
        <ele>970.1</ele>
        <time>2021-09-07T14:40:53Z</time>
      </trkpt>
      <trkpt lat="44.40035" lon="5.56782">
        <ele>970.1</ele>
        <time>2021-09-07T14:40:54Z</time>
      </trkpt>
      <trkpt lat="44.40034" lon="5.56784">
        <ele>970.3</ele>
        <time>2021-09-07T14:40:55Z</time>
      </trkpt>
      <trkpt lat="44.40034" lon="5.56785">
        <ele>970.3</ele>
        <time>2021-09-07T14:40:56Z</time>
      </trkpt>
      <trkpt lat="44.40034" lon="5.56786">
        <ele>970.4</ele>
        <time>2021-09-07T14:40:57Z</time>
      </trkpt>
      <trkpt lat="44.40033" lon="5.56789">
        <ele>970.6</ele>
        <time>2021-09-07T14:40:58Z</time>
      </trkpt>
      <trkpt lat="44.40032" lon="5.56791">
        <ele>970.8</ele>
        <time>2021-09-07T14:40:59Z</time>
      </trkpt>
      <trkpt lat="44.40032" lon="5.56794">
        <ele>971</ele>
        <time>2021-09-07T14:41:00Z</time>
      </trkpt>
      <trkpt lat="44.40032" lon="5.56795">
        <ele>971.1</ele>
        <time>2021-09-07T14:41:01Z</time>
      </trkpt>
      <trkpt lat="44.40031" lon="5.56796">
        <ele>971.1</ele>
        <time>2021-09-07T14:41:02Z</time>
      </trkpt>
      <trkpt lat="44.40031" lon="5.56798">
        <ele>971.2</ele>
        <time>2021-09-07T14:41:03Z</time>
      </trkpt>
      <trkpt lat="44.4003" lon="5.56799">
        <ele>971.4</ele>
        <time>2021-09-07T14:41:04Z</time>
      </trkpt>
      <trkpt lat="44.4003" lon="5.568">
        <ele>971.4</ele>
        <time>2021-09-07T14:41:05Z</time>
      </trkpt>
      <trkpt lat="44.4003" lon="5.56801">
        <ele>971.5</ele>
        <time>2021-09-07T14:41:06Z</time>
      </trkpt>
      <trkpt lat="44.4003" lon="5.56802">
        <ele>971.6</ele>
        <time>2021-09-07T14:41:07Z</time>
      </trkpt>
      <trkpt lat="44.40031" lon="5.56802">
        <ele>971.7</ele>
        <time>2021-09-07T14:41:08Z</time>
      </trkpt>
      <trkpt lat="44.40031" lon="5.56803">
        <ele>971.7</ele>
        <time>2021-09-07T14:41:09Z</time>
      </trkpt>
      <trkpt lat="44.40031" lon="5.56804">
        <ele>971.8</ele>
        <time>2021-09-07T14:41:10Z</time>
      </trkpt>
      <trkpt lat="44.40031" lon="5.56805">
        <ele>971.9</ele>
        <time>2021-09-07T14:41:11Z</time>
      </trkpt>
      <trkpt lat="44.4003" lon="5.56805">
        <ele>971.9</ele>
        <time>2021-09-07T14:41:12Z</time>
      </trkpt>
      <trkpt lat="44.4003" lon="5.56805">
        <ele>971.9</ele>
        <time>2021-09-07T14:41:13Z</time>
      </trkpt>
      <trkpt lat="44.4003" lon="5.56805">
        <ele>971.9</ele>
        <time>2021-09-07T14:41:14Z</time>
      </trkpt>
      <trkpt lat="44.4003" lon="5.56806">
        <ele>972</ele>
        <time>2021-09-07T14:41:15Z</time>
      </trkpt>
      <trkpt lat="44.4003" lon="5.56806">
        <ele>972</ele>
        <time>2021-09-07T14:41:16Z</time>
      </trkpt>
      <trkpt lat="44.4003" lon="5.56806">
        <ele>972</ele>
        <time>2021-09-07T14:41:17Z</time>
      </trkpt>
      <trkpt lat="44.4003" lon="5.56806">
        <ele>972</ele>
        <time>2021-09-07T14:41:18Z</time>
      </trkpt>
      <trkpt lat="44.4003" lon="5.56806">
        <ele>972</ele>
        <time>2021-09-07T14:41:19Z</time>
      </trkpt>
      <trkpt lat="44.4003" lon="5.56806">
        <ele>972</ele>
        <time>2021-09-07T14:41:20Z</time>
      </trkpt>
      <trkpt lat="44.4003" lon="5.56807">
        <ele>972</ele>
        <time>2021-09-07T14:41:21Z</time>
      </trkpt>
      <trkpt lat="44.4003" lon="5.56807">
        <ele>972.1</ele>
        <time>2021-09-07T14:41:22Z</time>
      </trkpt>
      <trkpt lat="44.4003" lon="5.56807">
        <ele>972.1</ele>
        <time>2021-09-07T14:41:23Z</time>
      </trkpt>
      <trkpt lat="44.4003" lon="5.56807">
        <ele>972.1</ele>
        <time>2021-09-07T14:41:24Z</time>
      </trkpt>
      <trkpt lat="44.4003" lon="5.56807">
        <ele>972.1</ele>
        <time>2021-09-07T14:41:25Z</time>
      </trkpt>
      <trkpt lat="44.4003" lon="5.56807">
        <ele>972.1</ele>
        <time>2021-09-07T14:41:26Z</time>
      </trkpt>
      <trkpt lat="44.4003" lon="5.56807">
        <ele>972.1</ele>
        <time>2021-09-07T14:41:27Z</time>
      </trkpt>
      <trkpt lat="44.4003" lon="5.56807">
        <ele>972.1</ele>
        <time>2021-09-07T14:41:28Z</time>
      </trkpt>
      <trkpt lat="44.4003" lon="5.56807">
        <ele>972.1</ele>
        <time>2021-09-07T14:41:29Z</time>
      </trkpt>
      <trkpt lat="44.4003" lon="5.56807">
        <ele>972.1</ele>
        <time>2021-09-07T14:41:30Z</time>
      </trkpt>
      <trkpt lat="44.4003" lon="5.56807">
        <ele>972.1</ele>
        <time>2021-09-07T14:41:31Z</time>
      </trkpt>
      <trkpt lat="44.4003" lon="5.56807">
        <ele>972.1</ele>
        <time>2021-09-07T14:41:32Z</time>
      </trkpt>
      <trkpt lat="44.4003" lon="5.56807">
        <ele>972.1</ele>
        <time>2021-09-07T14:41:33Z</time>
      </trkpt>
      <trkpt lat="44.4003" lon="5.56807">
        <ele>972.1</ele>
        <time>2021-09-07T14:41:34Z</time>
      </trkpt>
      <trkpt lat="44.4003" lon="5.56807">
        <ele>972.1</ele>
        <time>2021-09-07T14:41:35Z</time>
      </trkpt>
      <trkpt lat="44.4003" lon="5.56807">
        <ele>972.1</ele>
        <time>2021-09-07T14:41:36Z</time>
      </trkpt>
      <trkpt lat="44.4003" lon="5.56807">
        <ele>972.1</ele>
        <time>2021-09-07T14:41:37Z</time>
      </trkpt>
      <trkpt lat="44.4003" lon="5.56807">
        <ele>972.1</ele>
        <time>2021-09-07T14:41:38Z</time>
      </trkpt>
      <trkpt lat="44.4003" lon="5.56807">
        <ele>972.1</ele>
        <time>2021-09-07T14:41:39Z</time>
      </trkpt>
      <trkpt lat="44.40032" lon="5.56807">
        <ele>972.2</ele>
        <time>2021-09-07T14:41:40Z</time>
      </trkpt>
      <trkpt lat="44.40034" lon="5.56807">
        <ele>972.4</ele>
        <time>2021-09-07T14:41:41Z</time>
      </trkpt>
      <trkpt lat="44.40036" lon="5.56808">
        <ele>972.6</ele>
        <time>2021-09-07T14:41:42Z</time>
      </trkpt>
      <trkpt lat="44.40038" lon="5.56808">
        <ele>972.8</ele>
        <time>2021-09-07T14:41:43Z</time>
      </trkpt>
      <trkpt lat="44.4004" lon="5.56808">
        <ele>973</ele>
        <time>2021-09-07T14:41:44Z</time>
      </trkpt>
      <trkpt lat="44.40041" lon="5.56808">
        <ele>973.1</ele>
        <time>2021-09-07T14:41:45Z</time>
      </trkpt>
      <trkpt lat="44.40042" lon="5.56808">
        <ele>973.2</ele>
        <time>2021-09-07T14:41:46Z</time>
      </trkpt>
      <trkpt lat="44.40042" lon="5.56808">
        <ele>973.2</ele>
        <time>2021-09-07T14:41:47Z</time>
      </trkpt>
      <trkpt lat="44.40042" lon="5.56808">
        <ele>973.2</ele>
        <time>2021-09-07T14:41:48Z</time>
      </trkpt>
      <trkpt lat="44.40042" lon="5.56808">
        <ele>973.2</ele>
        <time>2021-09-07T14:41:49Z</time>
      </trkpt>
      <trkpt lat="44.40042" lon="5.56808">
        <ele>973.2</ele>
        <time>2021-09-07T14:41:50Z</time>
      </trkpt>
      <trkpt lat="44.40042" lon="5.56808">
        <ele>973.2</ele>
        <time>2021-09-07T14:41:51Z</time>
      </trkpt>
      <trkpt lat="44.40042" lon="5.56808">
        <ele>973.2</ele>
        <time>2021-09-07T14:41:52Z</time>
      </trkpt>
      <trkpt lat="44.40042" lon="5.56808">
        <ele>973.2</ele>
        <time>2021-09-07T14:41:53Z</time>
      </trkpt>
      <trkpt lat="44.40042" lon="5.56808">
        <ele>973.2</ele>
        <time>2021-09-07T14:41:54Z</time>
      </trkpt>
      <trkpt lat="44.40042" lon="5.56808">
        <ele>973.2</ele>
        <time>2021-09-07T14:41:55Z</time>
      </trkpt>
      <trkpt lat="44.40042" lon="5.56808">
        <ele>973.2</ele>
        <time>2021-09-07T14:41:56Z</time>
      </trkpt>
      <trkpt lat="44.40042" lon="5.56808">
        <ele>973.2</ele>
        <time>2021-09-07T14:41:57Z</time>
      </trkpt>
      <trkpt lat="44.40042" lon="5.56808">
        <ele>973.2</ele>
        <time>2021-09-07T14:41:58Z</time>
      </trkpt>
      <trkpt lat="44.40042" lon="5.56808">
        <ele>973.2</ele>
        <time>2021-09-07T14:41:59Z</time>
      </trkpt>
      <trkpt lat="44.40042" lon="5.56808">
        <ele>973.2</ele>
        <time>2021-09-07T14:42:00Z</time>
      </trkpt>
      <trkpt lat="44.40042" lon="5.56808">
        <ele>973.2</ele>
        <time>2021-09-07T14:42:01Z</time>
      </trkpt>
      <trkpt lat="44.40042" lon="5.56808">
        <ele>973.2</ele>
        <time>2021-09-07T14:42:02Z</time>
      </trkpt>
      <trkpt lat="44.40042" lon="5.56808">
        <ele>973.2</ele>
        <time>2021-09-07T14:42:03Z</time>
      </trkpt>
      <trkpt lat="44.40042" lon="5.56808">
        <ele>973.2</ele>
        <time>2021-09-07T14:42:04Z</time>
      </trkpt>
      <trkpt lat="44.40042" lon="5.56808">
        <ele>973.2</ele>
        <time>2021-09-07T14:42:05Z</time>
      </trkpt>
      <trkpt lat="44.40042" lon="5.56808">
        <ele>973.2</ele>
        <time>2021-09-07T14:42:06Z</time>
      </trkpt>
      <trkpt lat="44.40042" lon="5.56808">
        <ele>973.2</ele>
        <time>2021-09-07T14:42:07Z</time>
      </trkpt>
      <trkpt lat="44.40042" lon="5.56808">
        <ele>973.2</ele>
        <time>2021-09-07T14:42:08Z</time>
      </trkpt>
      <trkpt lat="44.40042" lon="5.56808">
        <ele>973.2</ele>
        <time>2021-09-07T14:42:09Z</time>
      </trkpt>
      <trkpt lat="44.40042" lon="5.56808">
        <ele>973.2</ele>
        <time>2021-09-07T14:42:10Z</time>
      </trkpt>
      <trkpt lat="44.40042" lon="5.56808">
        <ele>973.2</ele>
        <time>2021-09-07T14:42:11Z</time>
      </trkpt>
      <trkpt lat="44.40042" lon="5.56808">
        <ele>973.2</ele>
        <time>2021-09-07T14:42:12Z</time>
      </trkpt>
      <trkpt lat="44.40042" lon="5.56808">
        <ele>973.2</ele>
        <time>2021-09-07T14:42:13Z</time>
      </trkpt>
      <trkpt lat="44.40042" lon="5.56808">
        <ele>973.2</ele>
        <time>2021-09-07T14:42:14Z</time>
      </trkpt>
      <trkpt lat="44.40042" lon="5.56808">
        <ele>973.2</ele>
        <time>2021-09-07T14:42:15Z</time>
      </trkpt>
      <trkpt lat="44.40042" lon="5.56808">
        <ele>973.2</ele>
        <time>2021-09-07T14:42:16Z</time>
      </trkpt>
      <trkpt lat="44.40042" lon="5.56808">
        <ele>973.2</ele>
        <time>2021-09-07T14:42:17Z</time>
      </trkpt>
      <trkpt lat="44.40042" lon="5.56808">
        <ele>973.2</ele>
        <time>2021-09-07T14:42:18Z</time>
      </trkpt>
      <trkpt lat="44.40042" lon="5.5681">
        <ele>973.3</ele>
        <time>2021-09-07T14:42:19Z</time>
      </trkpt>
      <trkpt lat="44.40042" lon="5.56811">
        <ele>973.4</ele>
        <time>2021-09-07T14:42:20Z</time>
      </trkpt>
      <trkpt lat="44.40041" lon="5.56815">
        <ele>973.7</ele>
        <time>2021-09-07T14:42:21Z</time>
      </trkpt>
      <trkpt lat="44.40041" lon="5.56816">
        <ele>973.8</ele>
        <time>2021-09-07T14:42:22Z</time>
      </trkpt>
      <trkpt lat="44.4004" lon="5.56817">
        <ele>973.9</ele>
        <time>2021-09-07T14:42:23Z</time>
      </trkpt>
      <trkpt lat="44.40039" lon="5.56819">
        <ele>974</ele>
        <time>2021-09-07T14:42:24Z</time>
      </trkpt>
      <trkpt lat="44.40038" lon="5.56821">
        <ele>974.1</ele>
        <time>2021-09-07T14:42:25Z</time>
      </trkpt>
      <trkpt lat="44.40038" lon="5.56822">
        <ele>974.2</ele>
        <time>2021-09-07T14:42:26Z</time>
      </trkpt>
      <trkpt lat="44.40038" lon="5.56824">
        <ele>974.3</ele>
        <time>2021-09-07T14:42:27Z</time>
      </trkpt>
      <trkpt lat="44.40037" lon="5.56825">
        <ele>974.4</ele>
        <time>2021-09-07T14:42:28Z</time>
      </trkpt>
      <trkpt lat="44.40036" lon="5.56828">
        <ele>974.6</ele>
        <time>2021-09-07T14:42:29Z</time>
      </trkpt>
      <trkpt lat="44.40034" lon="5.56831">
        <ele>974.9</ele>
        <time>2021-09-07T14:42:30Z</time>
      </trkpt>
      <trkpt lat="44.40033" lon="5.56833">
        <ele>975</ele>
        <time>2021-09-07T14:42:31Z</time>
      </trkpt>
      <trkpt lat="44.40032" lon="5.56835">
        <ele>975.2</ele>
        <time>2021-09-07T14:42:32Z</time>
      </trkpt>
      <trkpt lat="44.40032" lon="5.56836">
        <ele>975.2</ele>
        <time>2021-09-07T14:42:33Z</time>
      </trkpt>
      <trkpt lat="44.40031" lon="5.56837">
        <ele>975.3</ele>
        <time>2021-09-07T14:42:34Z</time>
      </trkpt>
      <trkpt lat="44.40028" lon="5.5684">
        <ele>975.6</ele>
        <time>2021-09-07T14:42:35Z</time>
      </trkpt>
      <trkpt lat="44.40028" lon="5.56841">
        <ele>975.6</ele>
        <time>2021-09-07T14:42:36Z</time>
      </trkpt>
      <trkpt lat="44.40028" lon="5.56841">
        <ele>975.7</ele>
        <time>2021-09-07T14:42:37Z</time>
      </trkpt>
      <trkpt lat="44.40026" lon="5.56843">
        <ele>975.9</ele>
        <time>2021-09-07T14:42:38Z</time>
      </trkpt>
      <trkpt lat="44.40025" lon="5.56845">
        <ele>976</ele>
        <time>2021-09-07T14:42:39Z</time>
      </trkpt>
      <trkpt lat="44.40025" lon="5.56847">
        <ele>976.2</ele>
        <time>2021-09-07T14:42:40Z</time>
      </trkpt>
      <trkpt lat="44.40024" lon="5.56849">
        <ele>976.3</ele>
        <time>2021-09-07T14:42:41Z</time>
      </trkpt>
      <trkpt lat="44.40024" lon="5.5685">
        <ele>976.4</ele>
        <time>2021-09-07T14:42:42Z</time>
      </trkpt>
      <trkpt lat="44.40023" lon="5.56851">
        <ele>976.5</ele>
        <time>2021-09-07T14:42:43Z</time>
      </trkpt>
      <trkpt lat="44.40022" lon="5.56853">
        <ele>976.6</ele>
        <time>2021-09-07T14:42:44Z</time>
      </trkpt>
      <trkpt lat="44.40021" lon="5.56855">
        <ele>976.8</ele>
        <time>2021-09-07T14:42:45Z</time>
      </trkpt>
      <trkpt lat="44.40021" lon="5.56856">
        <ele>976.8</ele>
        <time>2021-09-07T14:42:46Z</time>
      </trkpt>
      <trkpt lat="44.40021" lon="5.56857">
        <ele>976.9</ele>
        <time>2021-09-07T14:42:47Z</time>
      </trkpt>
      <trkpt lat="44.4002" lon="5.5686">
        <ele>977.1</ele>
        <time>2021-09-07T14:42:48Z</time>
      </trkpt>
      <trkpt lat="44.4002" lon="5.56863">
        <ele>977.3</ele>
        <time>2021-09-07T14:42:49Z</time>
      </trkpt>
      <trkpt lat="44.4002" lon="5.56864">
        <ele>977.4</ele>
        <time>2021-09-07T14:42:50Z</time>
      </trkpt>
      <trkpt lat="44.4002" lon="5.56867">
        <ele>977.6</ele>
        <time>2021-09-07T14:42:51Z</time>
      </trkpt>
      <trkpt lat="44.4002" lon="5.56869">
        <ele>977.7</ele>
        <time>2021-09-07T14:42:52Z</time>
      </trkpt>
      <trkpt lat="44.4002" lon="5.5687">
        <ele>977.7</ele>
        <time>2021-09-07T14:42:53Z</time>
      </trkpt>
      <trkpt lat="44.4002" lon="5.56871">
        <ele>977.8</ele>
        <time>2021-09-07T14:42:54Z</time>
      </trkpt>
      <trkpt lat="44.40019" lon="5.56874">
        <ele>978</ele>
        <time>2021-09-07T14:42:55Z</time>
      </trkpt>
      <trkpt lat="44.40018" lon="5.56875">
        <ele>978.1</ele>
        <time>2021-09-07T14:42:56Z</time>
      </trkpt>
      <trkpt lat="44.40018" lon="5.56877">
        <ele>978.2</ele>
        <time>2021-09-07T14:42:57Z</time>
      </trkpt>
      <trkpt lat="44.40017" lon="5.56879">
        <ele>978.4</ele>
        <time>2021-09-07T14:42:58Z</time>
      </trkpt>
      <trkpt lat="44.40017" lon="5.56879">
        <ele>978.4</ele>
        <time>2021-09-07T14:42:59Z</time>
      </trkpt>
      <trkpt lat="44.40017" lon="5.56879">
        <ele>978.4</ele>
        <time>2021-09-07T14:43:00Z</time>
      </trkpt>
      <trkpt lat="44.40016" lon="5.56882">
        <ele>978.6</ele>
        <time>2021-09-07T14:43:01Z</time>
      </trkpt>
      <trkpt lat="44.40015" lon="5.56883">
        <ele>978.7</ele>
        <time>2021-09-07T14:43:02Z</time>
      </trkpt>
      <trkpt lat="44.40014" lon="5.56885">
        <ele>978.8</ele>
        <time>2021-09-07T14:43:03Z</time>
      </trkpt>
      <trkpt lat="44.40013" lon="5.56888">
        <ele>979</ele>
        <time>2021-09-07T14:43:04Z</time>
      </trkpt>
      <trkpt lat="44.40012" lon="5.5689">
        <ele>979.2</ele>
        <time>2021-09-07T14:43:05Z</time>
      </trkpt>
      <trkpt lat="44.40011" lon="5.56891">
        <ele>979.3</ele>
        <time>2021-09-07T14:43:06Z</time>
      </trkpt>
      <trkpt lat="44.40011" lon="5.56892">
        <ele>979.3</ele>
        <time>2021-09-07T14:43:07Z</time>
      </trkpt>
      <trkpt lat="44.4001" lon="5.56892">
        <ele>979.4</ele>
        <time>2021-09-07T14:43:08Z</time>
      </trkpt>
      <trkpt lat="44.4001" lon="5.56893">
        <ele>979.4</ele>
        <time>2021-09-07T14:43:09Z</time>
      </trkpt>
      <trkpt lat="44.4001" lon="5.56894">
        <ele>979.5</ele>
        <time>2021-09-07T14:43:10Z</time>
      </trkpt>
      <trkpt lat="44.40009" lon="5.56896">
        <ele>979.7</ele>
        <time>2021-09-07T14:43:11Z</time>
      </trkpt>
      <trkpt lat="44.40009" lon="5.56897">
        <ele>979.7</ele>
        <time>2021-09-07T14:43:12Z</time>
      </trkpt>
      <trkpt lat="44.40009" lon="5.56898">
        <ele>979.7</ele>
        <time>2021-09-07T14:43:13Z</time>
      </trkpt>
      <trkpt lat="44.40009" lon="5.56898">
        <ele>979.8</ele>
        <time>2021-09-07T14:43:14Z</time>
      </trkpt>
      <trkpt lat="44.4001" lon="5.56899">
        <ele>979.8</ele>
        <time>2021-09-07T14:43:15Z</time>
      </trkpt>
      <trkpt lat="44.4001" lon="5.56899">
        <ele>979.9</ele>
        <time>2021-09-07T14:43:16Z</time>
      </trkpt>
      <trkpt lat="44.4001" lon="5.56899">
        <ele>979.9</ele>
        <time>2021-09-07T14:43:17Z</time>
      </trkpt>
      <trkpt lat="44.4001" lon="5.569">
        <ele>979.9</ele>
        <time>2021-09-07T14:43:18Z</time>
      </trkpt>
      <trkpt lat="44.4001" lon="5.569">
        <ele>979.9</ele>
        <time>2021-09-07T14:43:19Z</time>
      </trkpt>
      <trkpt lat="44.4001" lon="5.569">
        <ele>979.9</ele>
        <time>2021-09-07T14:43:20Z</time>
      </trkpt>
      <trkpt lat="44.4001" lon="5.569">
        <ele>979.9</ele>
        <time>2021-09-07T14:43:21Z</time>
      </trkpt>
      <trkpt lat="44.4001" lon="5.569">
        <ele>979.9</ele>
        <time>2021-09-07T14:43:22Z</time>
      </trkpt>
      <trkpt lat="44.4001" lon="5.569">
        <ele>979.9</ele>
        <time>2021-09-07T14:43:23Z</time>
      </trkpt>
      <trkpt lat="44.4001" lon="5.569">
        <ele>979.9</ele>
        <time>2021-09-07T14:43:24Z</time>
      </trkpt>
      <trkpt lat="44.4001" lon="5.569">
        <ele>979.9</ele>
        <time>2021-09-07T14:43:25Z</time>
      </trkpt>
      <trkpt lat="44.4001" lon="5.56902">
        <ele>980.1</ele>
        <time>2021-09-07T14:43:26Z</time>
      </trkpt>
      <trkpt lat="44.4001" lon="5.56904">
        <ele>980.2</ele>
        <time>2021-09-07T14:43:27Z</time>
      </trkpt>
      <trkpt lat="44.40009" lon="5.56906">
        <ele>980.3</ele>
        <time>2021-09-07T14:43:28Z</time>
      </trkpt>
      <trkpt lat="44.40009" lon="5.56907">
        <ele>980.4</ele>
        <time>2021-09-07T14:43:29Z</time>
      </trkpt>
      <trkpt lat="44.40009" lon="5.56908">
        <ele>980.5</ele>
        <time>2021-09-07T14:43:30Z</time>
      </trkpt>
      <trkpt lat="44.40008" lon="5.5691">
        <ele>980.6</ele>
        <time>2021-09-07T14:43:31Z</time>
      </trkpt>
      <trkpt lat="44.40007" lon="5.56911">
        <ele>980.7</ele>
        <time>2021-09-07T14:43:32Z</time>
      </trkpt>
      <trkpt lat="44.40006" lon="5.56915">
        <ele>981</ele>
        <time>2021-09-07T14:43:33Z</time>
      </trkpt>
      <trkpt lat="44.40006" lon="5.56916">
        <ele>981</ele>
        <time>2021-09-07T14:43:34Z</time>
      </trkpt>
      <trkpt lat="44.40006" lon="5.56918">
        <ele>981.2</ele>
        <time>2021-09-07T14:43:35Z</time>
      </trkpt>
      <trkpt lat="44.40005" lon="5.56921">
        <ele>981.4</ele>
        <time>2021-09-07T14:43:36Z</time>
      </trkpt>
      <trkpt lat="44.40005" lon="5.56923">
        <ele>981.5</ele>
        <time>2021-09-07T14:43:37Z</time>
      </trkpt>
      <trkpt lat="44.40005" lon="5.56924">
        <ele>981.6</ele>
        <time>2021-09-07T14:43:38Z</time>
      </trkpt>
      <trkpt lat="44.40005" lon="5.56926">
        <ele>981.7</ele>
        <time>2021-09-07T14:43:39Z</time>
      </trkpt>
      <trkpt lat="44.40005" lon="5.56928">
        <ele>981.8</ele>
        <time>2021-09-07T14:43:40Z</time>
      </trkpt>
      <trkpt lat="44.40005" lon="5.56932">
        <ele>982.1</ele>
        <time>2021-09-07T14:43:41Z</time>
      </trkpt>
      <trkpt lat="44.40007" lon="5.56936">
        <ele>982.4</ele>
        <time>2021-09-07T14:43:42Z</time>
      </trkpt>
      <trkpt lat="44.40007" lon="5.56939">
        <ele>982.6</ele>
        <time>2021-09-07T14:43:43Z</time>
      </trkpt>
      <trkpt lat="44.40008" lon="5.56942">
        <ele>982.8</ele>
        <time>2021-09-07T14:43:44Z</time>
      </trkpt>
      <trkpt lat="44.40009" lon="5.56945">
        <ele>983</ele>
        <time>2021-09-07T14:43:45Z</time>
      </trkpt>
      <trkpt lat="44.40009" lon="5.56947">
        <ele>983.1</ele>
        <time>2021-09-07T14:43:46Z</time>
      </trkpt>
      <trkpt lat="44.4001" lon="5.56949">
        <ele>983.2</ele>
        <time>2021-09-07T14:43:47Z</time>
      </trkpt>
      <trkpt lat="44.4001" lon="5.5695">
        <ele>983.3</ele>
        <time>2021-09-07T14:43:48Z</time>
      </trkpt>
      <trkpt lat="44.40012" lon="5.56954">
        <ele>983.6</ele>
        <time>2021-09-07T14:43:49Z</time>
      </trkpt>
      <trkpt lat="44.40013" lon="5.56957">
        <ele>983.9</ele>
        <time>2021-09-07T14:43:50Z</time>
      </trkpt>
      <trkpt lat="44.40014" lon="5.56959">
        <ele>984</ele>
        <time>2021-09-07T14:43:51Z</time>
      </trkpt>
      <trkpt lat="44.40014" lon="5.56961">
        <ele>984.1</ele>
        <time>2021-09-07T14:43:52Z</time>
      </trkpt>
      <trkpt lat="44.40014" lon="5.56965">
        <ele>984.4</ele>
        <time>2021-09-07T14:43:53Z</time>
      </trkpt>
      <trkpt lat="44.40015" lon="5.56967">
        <ele>984.5</ele>
        <time>2021-09-07T14:43:54Z</time>
      </trkpt>
      <trkpt lat="44.40015" lon="5.56968">
        <ele>984.6</ele>
        <time>2021-09-07T14:43:55Z</time>
      </trkpt>
      <trkpt lat="44.40016" lon="5.56971">
        <ele>984.8</ele>
        <time>2021-09-07T14:43:56Z</time>
      </trkpt>
      <trkpt lat="44.40016" lon="5.56973">
        <ele>984.9</ele>
        <time>2021-09-07T14:43:57Z</time>
      </trkpt>
      <trkpt lat="44.40015" lon="5.56974">
        <ele>985</ele>
        <time>2021-09-07T14:43:58Z</time>
      </trkpt>
      <trkpt lat="44.40015" lon="5.56976">
        <ele>985.1</ele>
        <time>2021-09-07T14:43:59Z</time>
      </trkpt>
      <trkpt lat="44.40015" lon="5.56978">
        <ele>985.2</ele>
        <time>2021-09-07T14:44:00Z</time>
      </trkpt>
      <trkpt lat="44.40015" lon="5.5698">
        <ele>985.3</ele>
        <time>2021-09-07T14:44:01Z</time>
      </trkpt>
      <trkpt lat="44.40015" lon="5.56983">
        <ele>985.5</ele>
        <time>2021-09-07T14:44:02Z</time>
      </trkpt>
      <trkpt lat="44.40015" lon="5.56984">
        <ele>985.6</ele>
        <time>2021-09-07T14:44:03Z</time>
      </trkpt>
      <trkpt lat="44.40015" lon="5.56986">
        <ele>985.7</ele>
        <time>2021-09-07T14:44:04Z</time>
      </trkpt>
      <trkpt lat="44.40015" lon="5.56987">
        <ele>985.8</ele>
        <time>2021-09-07T14:44:05Z</time>
      </trkpt>
      <trkpt lat="44.40014" lon="5.56988">
        <ele>985.8</ele>
        <time>2021-09-07T14:44:06Z</time>
      </trkpt>
      <trkpt lat="44.40014" lon="5.5699">
        <ele>985.9</ele>
        <time>2021-09-07T14:44:07Z</time>
      </trkpt>
      <trkpt lat="44.40013" lon="5.56992">
        <ele>986.1</ele>
        <time>2021-09-07T14:44:08Z</time>
      </trkpt>
      <trkpt lat="44.40013" lon="5.56993">
        <ele>986.1</ele>
        <time>2021-09-07T14:44:09Z</time>
      </trkpt>
      <trkpt lat="44.40013" lon="5.56994">
        <ele>986.2</ele>
        <time>2021-09-07T14:44:10Z</time>
      </trkpt>
      <trkpt lat="44.40012" lon="5.56995">
        <ele>986.3</ele>
        <time>2021-09-07T14:44:11Z</time>
      </trkpt>
      <trkpt lat="44.40012" lon="5.56995">
        <ele>986.3</ele>
        <time>2021-09-07T14:44:12Z</time>
      </trkpt>
      <trkpt lat="44.40011" lon="5.56997">
        <ele>986.4</ele>
        <time>2021-09-07T14:44:13Z</time>
      </trkpt>
      <trkpt lat="44.4001" lon="5.56999">
        <ele>986.6</ele>
        <time>2021-09-07T14:44:14Z</time>
      </trkpt>
      <trkpt lat="44.40009" lon="5.57001">
        <ele>986.7</ele>
        <time>2021-09-07T14:44:15Z</time>
      </trkpt>
      <trkpt lat="44.40008" lon="5.57002">
        <ele>986.8</ele>
        <time>2021-09-07T14:44:16Z</time>
      </trkpt>
      <trkpt lat="44.40008" lon="5.57004">
        <ele>986.9</ele>
        <time>2021-09-07T14:44:17Z</time>
      </trkpt>
      <trkpt lat="44.40008" lon="5.57005">
        <ele>987</ele>
        <time>2021-09-07T14:44:18Z</time>
      </trkpt>
      <trkpt lat="44.40007" lon="5.57006">
        <ele>987.1</ele>
        <time>2021-09-07T14:44:19Z</time>
      </trkpt>
      <trkpt lat="44.40007" lon="5.57009">
        <ele>987.3</ele>
        <time>2021-09-07T14:44:20Z</time>
      </trkpt>
      <trkpt lat="44.40006" lon="5.5701">
        <ele>987.4</ele>
        <time>2021-09-07T14:44:21Z</time>
      </trkpt>
      <trkpt lat="44.40006" lon="5.57012">
        <ele>987.5</ele>
        <time>2021-09-07T14:44:22Z</time>
      </trkpt>
      <trkpt lat="44.40005" lon="5.57013">
        <ele>987.6</ele>
        <time>2021-09-07T14:44:23Z</time>
      </trkpt>
      <trkpt lat="44.40004" lon="5.57016">
        <ele>987.8</ele>
        <time>2021-09-07T14:44:24Z</time>
      </trkpt>
      <trkpt lat="44.40004" lon="5.57018">
        <ele>987.9</ele>
        <time>2021-09-07T14:44:25Z</time>
      </trkpt>
      <trkpt lat="44.40004" lon="5.57019">
        <ele>988</ele>
        <time>2021-09-07T14:44:26Z</time>
      </trkpt>
      <trkpt lat="44.40003" lon="5.57021">
        <ele>988.1</ele>
        <time>2021-09-07T14:44:27Z</time>
      </trkpt>
      <trkpt lat="44.40002" lon="5.57022">
        <ele>988.2</ele>
        <time>2021-09-07T14:44:28Z</time>
      </trkpt>
      <trkpt lat="44.40001" lon="5.57023">
        <ele>988.3</ele>
        <time>2021-09-07T14:44:29Z</time>
      </trkpt>
      <trkpt lat="44.4" lon="5.57026">
        <ele>988.6</ele>
        <time>2021-09-07T14:44:30Z</time>
      </trkpt>
      <trkpt lat="44.39999" lon="5.57029">
        <ele>988.7</ele>
        <time>2021-09-07T14:44:31Z</time>
      </trkpt>
      <trkpt lat="44.39998" lon="5.57031">
        <ele>988.9</ele>
        <time>2021-09-07T14:44:32Z</time>
      </trkpt>
      <trkpt lat="44.39997" lon="5.57033">
        <ele>989</ele>
        <time>2021-09-07T14:44:33Z</time>
      </trkpt>
      <trkpt lat="44.39996" lon="5.57034">
        <ele>989.2</ele>
        <time>2021-09-07T14:44:34Z</time>
      </trkpt>
      <trkpt lat="44.39996" lon="5.57036">
        <ele>989.3</ele>
        <time>2021-09-07T14:44:35Z</time>
      </trkpt>
      <trkpt lat="44.39995" lon="5.57037">
        <ele>989.4</ele>
        <time>2021-09-07T14:44:36Z</time>
      </trkpt>
      <trkpt lat="44.39994" lon="5.57039">
        <ele>989.6</ele>
        <time>2021-09-07T14:44:37Z</time>
      </trkpt>
      <trkpt lat="44.39993" lon="5.57041">
        <ele>989.7</ele>
        <time>2021-09-07T14:44:38Z</time>
      </trkpt>
      <trkpt lat="44.39992" lon="5.57044">
        <ele>989.9</ele>
        <time>2021-09-07T14:44:39Z</time>
      </trkpt>
      <trkpt lat="44.39991" lon="5.57046">
        <ele>990.1</ele>
        <time>2021-09-07T14:44:40Z</time>
      </trkpt>
      <trkpt lat="44.39991" lon="5.57047">
        <ele>990.2</ele>
        <time>2021-09-07T14:44:41Z</time>
      </trkpt>
      <trkpt lat="44.3999" lon="5.57048">
        <ele>990.3</ele>
        <time>2021-09-07T14:44:42Z</time>
      </trkpt>
      <trkpt lat="44.39989" lon="5.5705">
        <ele>990.5</ele>
        <time>2021-09-07T14:44:43Z</time>
      </trkpt>
      <trkpt lat="44.39987" lon="5.57053">
        <ele>990.8</ele>
        <time>2021-09-07T14:44:44Z</time>
      </trkpt>
      <trkpt lat="44.39987" lon="5.57054">
        <ele>990.8</ele>
        <time>2021-09-07T14:44:45Z</time>
      </trkpt>
      <trkpt lat="44.39986" lon="5.57055">
        <ele>990.9</ele>
        <time>2021-09-07T14:44:46Z</time>
      </trkpt>
      <trkpt lat="44.39986" lon="5.57058">
        <ele>991.1</ele>
        <time>2021-09-07T14:44:47Z</time>
      </trkpt>
      <trkpt lat="44.39985" lon="5.5706">
        <ele>991.5</ele>
        <time>2021-09-07T14:44:48Z</time>
      </trkpt>
      <trkpt lat="44.39985" lon="5.57061">
        <ele>991.6</ele>
        <time>2021-09-07T14:44:49Z</time>
      </trkpt>
      <trkpt lat="44.39985" lon="5.57061">
        <ele>991.6</ele>
        <time>2021-09-07T14:44:50Z</time>
      </trkpt>
      <trkpt lat="44.39984" lon="5.57061">
        <ele>991.6</ele>
        <time>2021-09-07T14:44:51Z</time>
      </trkpt>
      <trkpt lat="44.39984" lon="5.57063">
        <ele>991.7</ele>
        <time>2021-09-07T14:44:52Z</time>
      </trkpt>
      <trkpt lat="44.39984" lon="5.57064">
        <ele>991.7</ele>
        <time>2021-09-07T14:44:53Z</time>
      </trkpt>
      <trkpt lat="44.39984" lon="5.57067">
        <ele>991.8</ele>
        <time>2021-09-07T14:44:54Z</time>
      </trkpt>
      <trkpt lat="44.39984" lon="5.57069">
        <ele>991.9</ele>
        <time>2021-09-07T14:44:55Z</time>
      </trkpt>
      <trkpt lat="44.39985" lon="5.57071">
        <ele>992</ele>
        <time>2021-09-07T14:44:56Z</time>
      </trkpt>
      <trkpt lat="44.39986" lon="5.57073">
        <ele>992</ele>
        <time>2021-09-07T14:44:57Z</time>
      </trkpt>
      <trkpt lat="44.39986" lon="5.57075">
        <ele>992</ele>
        <time>2021-09-07T14:44:58Z</time>
      </trkpt>
      <trkpt lat="44.39987" lon="5.57077">
        <ele>992</ele>
        <time>2021-09-07T14:44:59Z</time>
      </trkpt>
      <trkpt lat="44.39987" lon="5.5708">
        <ele>992.1</ele>
        <time>2021-09-07T14:45:00Z</time>
      </trkpt>
      <trkpt lat="44.39988" lon="5.57084">
        <ele>992</ele>
        <time>2021-09-07T14:45:01Z</time>
      </trkpt>
      <trkpt lat="44.39989" lon="5.57088">
        <ele>992</ele>
        <time>2021-09-07T14:45:02Z</time>
      </trkpt>
      <trkpt lat="44.3999" lon="5.57092">
        <ele>991.9</ele>
        <time>2021-09-07T14:45:03Z</time>
      </trkpt>
      <trkpt lat="44.39991" lon="5.57095">
        <ele>991.8</ele>
        <time>2021-09-07T14:45:04Z</time>
      </trkpt>
      <trkpt lat="44.39992" lon="5.57101">
        <ele>991.6</ele>
        <time>2021-09-07T14:45:05Z</time>
      </trkpt>
      <trkpt lat="44.39993" lon="5.57105">
        <ele>991.5</ele>
        <time>2021-09-07T14:45:06Z</time>
      </trkpt>
      <trkpt lat="44.39994" lon="5.57111">
        <ele>991.4</ele>
        <time>2021-09-07T14:45:07Z</time>
      </trkpt>
      <trkpt lat="44.39994" lon="5.57116">
        <ele>991.3</ele>
        <time>2021-09-07T14:45:08Z</time>
      </trkpt>
      <trkpt lat="44.39993" lon="5.57127">
        <ele>991</ele>
        <time>2021-09-07T14:45:09Z</time>
      </trkpt>
      <trkpt lat="44.39992" lon="5.57134">
        <ele>990.9</ele>
        <time>2021-09-07T14:45:10Z</time>
      </trkpt>
      <trkpt lat="44.39991" lon="5.57138">
        <ele>990.8</ele>
        <time>2021-09-07T14:45:11Z</time>
      </trkpt>
      <trkpt lat="44.3999" lon="5.57142">
        <ele>990.7</ele>
        <time>2021-09-07T14:45:12Z</time>
      </trkpt>
      <trkpt lat="44.39989" lon="5.57148">
        <ele>990.6</ele>
        <time>2021-09-07T14:45:13Z</time>
      </trkpt>
      <trkpt lat="44.39988" lon="5.57154">
        <ele>990.5</ele>
        <time>2021-09-07T14:45:14Z</time>
      </trkpt>
      <trkpt lat="44.39986" lon="5.57164">
        <ele>990.4</ele>
        <time>2021-09-07T14:45:15Z</time>
      </trkpt>
      <trkpt lat="44.39984" lon="5.5717">
        <ele>990.3</ele>
        <time>2021-09-07T14:45:16Z</time>
      </trkpt>
      <trkpt lat="44.39982" lon="5.57176">
        <ele>990.3</ele>
        <time>2021-09-07T14:45:17Z</time>
      </trkpt>
      <trkpt lat="44.39981" lon="5.57183">
        <ele>990.2</ele>
        <time>2021-09-07T14:45:18Z</time>
      </trkpt>
      <trkpt lat="44.3998" lon="5.5719">
        <ele>990.1</ele>
        <time>2021-09-07T14:45:19Z</time>
      </trkpt>
      <trkpt lat="44.39978" lon="5.57196">
        <ele>990</ele>
        <time>2021-09-07T14:45:20Z</time>
      </trkpt>
      <trkpt lat="44.39976" lon="5.57203">
        <ele>989.9</ele>
        <time>2021-09-07T14:45:21Z</time>
      </trkpt>
      <trkpt lat="44.39974" lon="5.57211">
        <ele>989.8</ele>
        <time>2021-09-07T14:45:22Z</time>
      </trkpt>
      <trkpt lat="44.39972" lon="5.57218">
        <ele>989.7</ele>
        <time>2021-09-07T14:45:23Z</time>
      </trkpt>
      <trkpt lat="44.39969" lon="5.57225">
        <ele>989.6</ele>
        <time>2021-09-07T14:45:24Z</time>
      </trkpt>
      <trkpt lat="44.39967" lon="5.57232">
        <ele>989.5</ele>
        <time>2021-09-07T14:45:25Z</time>
      </trkpt>
      <trkpt lat="44.39964" lon="5.57239">
        <ele>989.4</ele>
        <time>2021-09-07T14:45:26Z</time>
      </trkpt>
      <trkpt lat="44.39961" lon="5.57246">
        <ele>989.3</ele>
        <time>2021-09-07T14:45:27Z</time>
      </trkpt>
      <trkpt lat="44.39958" lon="5.57252">
        <ele>989.2</ele>
        <time>2021-09-07T14:45:28Z</time>
      </trkpt>
      <trkpt lat="44.39956" lon="5.57258">
        <ele>989.1</ele>
        <time>2021-09-07T14:45:29Z</time>
      </trkpt>
      <trkpt lat="44.39954" lon="5.57264">
        <ele>989.1</ele>
        <time>2021-09-07T14:45:30Z</time>
      </trkpt>
      <trkpt lat="44.39952" lon="5.57271">
        <ele>989.1</ele>
        <time>2021-09-07T14:45:31Z</time>
      </trkpt>
      <trkpt lat="44.3995" lon="5.57278">
        <ele>989.1</ele>
        <time>2021-09-07T14:45:32Z</time>
      </trkpt>
      <trkpt lat="44.39949" lon="5.57286">
        <ele>989.1</ele>
        <time>2021-09-07T14:45:33Z</time>
      </trkpt>
      <trkpt lat="44.39947" lon="5.57293">
        <ele>989.1</ele>
        <time>2021-09-07T14:45:34Z</time>
      </trkpt>
      <trkpt lat="44.39946" lon="5.57299">
        <ele>989.1</ele>
        <time>2021-09-07T14:45:35Z</time>
      </trkpt>
      <trkpt lat="44.39944" lon="5.57305">
        <ele>989.4</ele>
        <time>2021-09-07T14:45:36Z</time>
      </trkpt>
      <trkpt lat="44.39943" lon="5.5731">
        <ele>989.5</ele>
        <time>2021-09-07T14:45:37Z</time>
      </trkpt>
      <trkpt lat="44.39942" lon="5.57313">
        <ele>989.6</ele>
        <time>2021-09-07T14:45:38Z</time>
      </trkpt>
      <trkpt lat="44.3994" lon="5.57317">
        <ele>989.9</ele>
        <time>2021-09-07T14:45:39Z</time>
      </trkpt>
      <trkpt lat="44.39939" lon="5.5732">
        <ele>989.9</ele>
        <time>2021-09-07T14:45:40Z</time>
      </trkpt>
      <trkpt lat="44.39937" lon="5.57323">
        <ele>990</ele>
        <time>2021-09-07T14:45:41Z</time>
      </trkpt>
      <trkpt lat="44.39936" lon="5.57327">
        <ele>990.2</ele>
        <time>2021-09-07T14:45:42Z</time>
      </trkpt>
      <trkpt lat="44.39935" lon="5.57331">
        <ele>990.5</ele>
        <time>2021-09-07T14:45:43Z</time>
      </trkpt>
      <trkpt lat="44.3994" lon="5.57341">
        <ele>990.7</ele>
        <time>2021-09-07T14:45:44Z</time>
      </trkpt>
      <trkpt lat="44.39941" lon="5.57344">
        <ele>990.8</ele>
        <time>2021-09-07T14:45:45Z</time>
      </trkpt>
      <trkpt lat="44.39942" lon="5.57346">
        <ele>990.8</ele>
        <time>2021-09-07T14:45:46Z</time>
      </trkpt>
      <trkpt lat="44.39944" lon="5.57349">
        <ele>990.9</ele>
        <time>2021-09-07T14:45:47Z</time>
      </trkpt>
      <trkpt lat="44.39947" lon="5.57351">
        <ele>991.1</ele>
        <time>2021-09-07T14:45:48Z</time>
      </trkpt>
      <trkpt lat="44.3995" lon="5.57351">
        <ele>991.2</ele>
        <time>2021-09-07T14:45:49Z</time>
      </trkpt>
      <trkpt lat="44.39952" lon="5.5735">
        <ele>991.2</ele>
        <time>2021-09-07T14:45:50Z</time>
      </trkpt>
      <trkpt lat="44.39954" lon="5.57349">
        <ele>991.3</ele>
        <time>2021-09-07T14:45:51Z</time>
      </trkpt>
      <trkpt lat="44.39957" lon="5.57347">
        <ele>991.5</ele>
        <time>2021-09-07T14:45:52Z</time>
      </trkpt>
      <trkpt lat="44.3996" lon="5.57346">
        <ele>991.6</ele>
        <time>2021-09-07T14:45:53Z</time>
      </trkpt>
      <trkpt lat="44.39962" lon="5.57345">
        <ele>991.7</ele>
        <time>2021-09-07T14:45:54Z</time>
      </trkpt>
      <trkpt lat="44.39965" lon="5.57344">
        <ele>991.8</ele>
        <time>2021-09-07T14:45:55Z</time>
      </trkpt>
      <trkpt lat="44.39967" lon="5.57344">
        <ele>991.8</ele>
        <time>2021-09-07T14:45:56Z</time>
      </trkpt>
      <trkpt lat="44.39969" lon="5.57343">
        <ele>991.9</ele>
        <time>2021-09-07T14:45:57Z</time>
      </trkpt>
      <trkpt lat="44.39971" lon="5.57342">
        <ele>992</ele>
        <time>2021-09-07T14:45:58Z</time>
      </trkpt>
      <trkpt lat="44.39973" lon="5.57341">
        <ele>992.1</ele>
        <time>2021-09-07T14:45:59Z</time>
      </trkpt>
      <trkpt lat="44.39977" lon="5.5734">
        <ele>992.2</ele>
        <time>2021-09-07T14:46:00Z</time>
      </trkpt>
      <trkpt lat="44.39978" lon="5.57339">
        <ele>992.3</ele>
        <time>2021-09-07T14:46:01Z</time>
      </trkpt>
      <trkpt lat="44.39979" lon="5.57338">
        <ele>992.3</ele>
        <time>2021-09-07T14:46:02Z</time>
      </trkpt>
      <trkpt lat="44.39981" lon="5.57336">
        <ele>992.4</ele>
        <time>2021-09-07T14:46:03Z</time>
      </trkpt>
      <trkpt lat="44.39982" lon="5.57335">
        <ele>992.5</ele>
        <time>2021-09-07T14:46:04Z</time>
      </trkpt>
      <trkpt lat="44.39983" lon="5.57334">
        <ele>992.5</ele>
        <time>2021-09-07T14:46:05Z</time>
      </trkpt>
      <trkpt lat="44.39985" lon="5.57332">
        <ele>992.6</ele>
        <time>2021-09-07T14:46:06Z</time>
      </trkpt>
      <trkpt lat="44.39988" lon="5.5733">
        <ele>992.8</ele>
        <time>2021-09-07T14:46:07Z</time>
      </trkpt>
      <trkpt lat="44.3999" lon="5.5733">
        <ele>992.8</ele>
        <time>2021-09-07T14:46:08Z</time>
      </trkpt>
      <trkpt lat="44.39991" lon="5.57329">
        <ele>992.9</ele>
        <time>2021-09-07T14:46:09Z</time>
      </trkpt>
      <trkpt lat="44.39993" lon="5.57329">
        <ele>993</ele>
        <time>2021-09-07T14:46:10Z</time>
      </trkpt>
      <trkpt lat="44.39995" lon="5.5733">
        <ele>993</ele>
        <time>2021-09-07T14:46:11Z</time>
      </trkpt>
      <trkpt lat="44.39997" lon="5.57331">
        <ele>993.1</ele>
        <time>2021-09-07T14:46:12Z</time>
      </trkpt>
      <trkpt lat="44.39998" lon="5.57331">
        <ele>993.1</ele>
        <time>2021-09-07T14:46:13Z</time>
      </trkpt>
      <trkpt lat="44.4" lon="5.57332">
        <ele>993.2</ele>
        <time>2021-09-07T14:46:14Z</time>
      </trkpt>
      <trkpt lat="44.40002" lon="5.57332">
        <ele>993.2</ele>
        <time>2021-09-07T14:46:15Z</time>
      </trkpt>
      <trkpt lat="44.40004" lon="5.57333">
        <ele>993.3</ele>
        <time>2021-09-07T14:46:16Z</time>
      </trkpt>
      <trkpt lat="44.40006" lon="5.57334">
        <ele>993.3</ele>
        <time>2021-09-07T14:46:17Z</time>
      </trkpt>
      <trkpt lat="44.40009" lon="5.57335">
        <ele>993.4</ele>
        <time>2021-09-07T14:46:18Z</time>
      </trkpt>
      <trkpt lat="44.40011" lon="5.57337">
        <ele>993.5</ele>
        <time>2021-09-07T14:46:19Z</time>
      </trkpt>
      <trkpt lat="44.40012" lon="5.57338">
        <ele>993.5</ele>
        <time>2021-09-07T14:46:20Z</time>
      </trkpt>
      <trkpt lat="44.40014" lon="5.5734">
        <ele>993.5</ele>
        <time>2021-09-07T14:46:21Z</time>
      </trkpt>
      <trkpt lat="44.40016" lon="5.57342">
        <ele>993.6</ele>
        <time>2021-09-07T14:46:22Z</time>
      </trkpt>
      <trkpt lat="44.40017" lon="5.57343">
        <ele>993.6</ele>
        <time>2021-09-07T14:46:23Z</time>
      </trkpt>
      <trkpt lat="44.40018" lon="5.57344">
        <ele>993.6</ele>
        <time>2021-09-07T14:46:24Z</time>
      </trkpt>
      <trkpt lat="44.40019" lon="5.57345">
        <ele>993.7</ele>
        <time>2021-09-07T14:46:25Z</time>
      </trkpt>
      <trkpt lat="44.40021" lon="5.57346">
        <ele>993.7</ele>
        <time>2021-09-07T14:46:26Z</time>
      </trkpt>
      <trkpt lat="44.40022" lon="5.57348">
        <ele>993.7</ele>
        <time>2021-09-07T14:46:27Z</time>
      </trkpt>
      <trkpt lat="44.40023" lon="5.5735">
        <ele>993.8</ele>
        <time>2021-09-07T14:46:28Z</time>
      </trkpt>
      <trkpt lat="44.40024" lon="5.57351">
        <ele>993.8</ele>
        <time>2021-09-07T14:46:29Z</time>
      </trkpt>
      <trkpt lat="44.40025" lon="5.57353">
        <ele>993.8</ele>
        <time>2021-09-07T14:46:30Z</time>
      </trkpt>
      <trkpt lat="44.40027" lon="5.57356">
        <ele>993.9</ele>
        <time>2021-09-07T14:46:31Z</time>
      </trkpt>
      <trkpt lat="44.40028" lon="5.57358">
        <ele>993.9</ele>
        <time>2021-09-07T14:46:32Z</time>
      </trkpt>
      <trkpt lat="44.4003" lon="5.57361">
        <ele>993.9</ele>
        <time>2021-09-07T14:46:33Z</time>
      </trkpt>
      <trkpt lat="44.40031" lon="5.57365">
        <ele>994</ele>
        <time>2021-09-07T14:46:34Z</time>
      </trkpt>
      <trkpt lat="44.40033" lon="5.57369">
        <ele>994</ele>
        <time>2021-09-07T14:46:35Z</time>
      </trkpt>
      <trkpt lat="44.40035" lon="5.57373">
        <ele>994.1</ele>
        <time>2021-09-07T14:46:36Z</time>
      </trkpt>
      <trkpt lat="44.40037" lon="5.57377">
        <ele>994.1</ele>
        <time>2021-09-07T14:46:37Z</time>
      </trkpt>
      <trkpt lat="44.40038" lon="5.5738">
        <ele>994.1</ele>
        <time>2021-09-07T14:46:38Z</time>
      </trkpt>
      <trkpt lat="44.40039" lon="5.57382">
        <ele>994.1</ele>
        <time>2021-09-07T14:46:39Z</time>
      </trkpt>
      <trkpt lat="44.40041" lon="5.57388">
        <ele>994.2</ele>
        <time>2021-09-07T14:46:40Z</time>
      </trkpt>
      <trkpt lat="44.40042" lon="5.57392">
        <ele>994.2</ele>
        <time>2021-09-07T14:46:41Z</time>
      </trkpt>
      <trkpt lat="44.40042" lon="5.57396">
        <ele>994.3</ele>
        <time>2021-09-07T14:46:42Z</time>
      </trkpt>
      <trkpt lat="44.40042" lon="5.57398">
        <ele>994.3</ele>
        <time>2021-09-07T14:46:43Z</time>
      </trkpt>
      <trkpt lat="44.40042" lon="5.574">
        <ele>994.3</ele>
        <time>2021-09-07T14:46:44Z</time>
      </trkpt>
      <trkpt lat="44.40042" lon="5.57404">
        <ele>994.4</ele>
        <time>2021-09-07T14:46:45Z</time>
      </trkpt>
      <trkpt lat="44.40042" lon="5.57408">
        <ele>994.4</ele>
        <time>2021-09-07T14:46:46Z</time>
      </trkpt>
      <trkpt lat="44.40042" lon="5.57412">
        <ele>994.5</ele>
        <time>2021-09-07T14:46:47Z</time>
      </trkpt>
      <trkpt lat="44.40042" lon="5.57417">
        <ele>994.5</ele>
        <time>2021-09-07T14:46:48Z</time>
      </trkpt>
      <trkpt lat="44.40042" lon="5.5742">
        <ele>994.5</ele>
        <time>2021-09-07T14:46:49Z</time>
      </trkpt>
      <trkpt lat="44.40042" lon="5.57422">
        <ele>994.6</ele>
        <time>2021-09-07T14:46:50Z</time>
      </trkpt>
      <trkpt lat="44.40043" lon="5.57426">
        <ele>994.6</ele>
        <time>2021-09-07T14:46:51Z</time>
      </trkpt>
      <trkpt lat="44.40043" lon="5.57429">
        <ele>994.7</ele>
        <time>2021-09-07T14:46:52Z</time>
      </trkpt>
      <trkpt lat="44.40043" lon="5.57432">
        <ele>994.7</ele>
        <time>2021-09-07T14:46:53Z</time>
      </trkpt>
      <trkpt lat="44.40043" lon="5.57437">
        <ele>994.8</ele>
        <time>2021-09-07T14:46:54Z</time>
      </trkpt>
      <trkpt lat="44.40044" lon="5.57439">
        <ele>994.8</ele>
        <time>2021-09-07T14:46:55Z</time>
      </trkpt>
      <trkpt lat="44.40044" lon="5.57441">
        <ele>994.8</ele>
        <time>2021-09-07T14:46:56Z</time>
      </trkpt>
      <trkpt lat="44.40044" lon="5.57444">
        <ele>994.9</ele>
        <time>2021-09-07T14:46:57Z</time>
      </trkpt>
      <trkpt lat="44.40044" lon="5.57447">
        <ele>994.9</ele>
        <time>2021-09-07T14:46:58Z</time>
      </trkpt>
      <trkpt lat="44.40045" lon="5.5745">
        <ele>995</ele>
        <time>2021-09-07T14:46:59Z</time>
      </trkpt>
      <trkpt lat="44.40046" lon="5.57452">
        <ele>995</ele>
        <time>2021-09-07T14:47:00Z</time>
      </trkpt>
      <trkpt lat="44.40046" lon="5.57454">
        <ele>995</ele>
        <time>2021-09-07T14:47:01Z</time>
      </trkpt>
      <trkpt lat="44.40047" lon="5.57457">
        <ele>995.1</ele>
        <time>2021-09-07T14:47:02Z</time>
      </trkpt>
      <trkpt lat="44.40048" lon="5.57459">
        <ele>995.1</ele>
        <time>2021-09-07T14:47:03Z</time>
      </trkpt>
      <trkpt lat="44.40049" lon="5.57461">
        <ele>995.1</ele>
        <time>2021-09-07T14:47:04Z</time>
      </trkpt>
      <trkpt lat="44.4005" lon="5.57463">
        <ele>995.2</ele>
        <time>2021-09-07T14:47:05Z</time>
      </trkpt>
      <trkpt lat="44.4005" lon="5.57465">
        <ele>995.2</ele>
        <time>2021-09-07T14:47:06Z</time>
      </trkpt>
      <trkpt lat="44.40051" lon="5.57467">
        <ele>995.3</ele>
        <time>2021-09-07T14:47:07Z</time>
      </trkpt>
      <trkpt lat="44.40051" lon="5.5747">
        <ele>995.4</ele>
        <time>2021-09-07T14:47:08Z</time>
      </trkpt>
      <trkpt lat="44.40051" lon="5.57473">
        <ele>995.4</ele>
        <time>2021-09-07T14:47:09Z</time>
      </trkpt>
      <trkpt lat="44.40051" lon="5.57475">
        <ele>995.5</ele>
        <time>2021-09-07T14:47:10Z</time>
      </trkpt>
      <trkpt lat="44.40051" lon="5.57476">
        <ele>995.5</ele>
        <time>2021-09-07T14:47:11Z</time>
      </trkpt>
      <trkpt lat="44.40051" lon="5.57481">
        <ele>995.7</ele>
        <time>2021-09-07T14:47:12Z</time>
      </trkpt>
      <trkpt lat="44.40051" lon="5.57484">
        <ele>995.8</ele>
        <time>2021-09-07T14:47:13Z</time>
      </trkpt>
      <trkpt lat="44.40051" lon="5.57487">
        <ele>995.9</ele>
        <time>2021-09-07T14:47:14Z</time>
      </trkpt>
      <trkpt lat="44.4005" lon="5.5749">
        <ele>996</ele>
        <time>2021-09-07T14:47:15Z</time>
      </trkpt>
      <trkpt lat="44.4005" lon="5.57492">
        <ele>996.1</ele>
        <time>2021-09-07T14:47:16Z</time>
      </trkpt>
      <trkpt lat="44.4005" lon="5.57495">
        <ele>996.2</ele>
        <time>2021-09-07T14:47:17Z</time>
      </trkpt>
      <trkpt lat="44.4005" lon="5.57497">
        <ele>996.3</ele>
        <time>2021-09-07T14:47:18Z</time>
      </trkpt>
      <trkpt lat="44.4005" lon="5.57499">
        <ele>996.4</ele>
        <time>2021-09-07T14:47:19Z</time>
      </trkpt>
      <trkpt lat="44.4005" lon="5.57502">
        <ele>996.5</ele>
        <time>2021-09-07T14:47:20Z</time>
      </trkpt>
      <trkpt lat="44.4005" lon="5.57504">
        <ele>996.6</ele>
        <time>2021-09-07T14:47:21Z</time>
      </trkpt>
      <trkpt lat="44.4005" lon="5.57508">
        <ele>996.8</ele>
        <time>2021-09-07T14:47:22Z</time>
      </trkpt>
      <trkpt lat="44.4005" lon="5.57511">
        <ele>996.9</ele>
        <time>2021-09-07T14:47:23Z</time>
      </trkpt>
      <trkpt lat="44.4005" lon="5.57513">
        <ele>997</ele>
        <time>2021-09-07T14:47:24Z</time>
      </trkpt>
      <trkpt lat="44.4005" lon="5.57516">
        <ele>997.2</ele>
        <time>2021-09-07T14:47:25Z</time>
      </trkpt>
      <trkpt lat="44.4005" lon="5.57518">
        <ele>997.2</ele>
        <time>2021-09-07T14:47:26Z</time>
      </trkpt>
      <trkpt lat="44.4005" lon="5.57522">
        <ele>997.4</ele>
        <time>2021-09-07T14:47:27Z</time>
      </trkpt>
      <trkpt lat="44.4005" lon="5.57524">
        <ele>997.5</ele>
        <time>2021-09-07T14:47:28Z</time>
      </trkpt>
      <trkpt lat="44.40049" lon="5.57528">
        <ele>997.7</ele>
        <time>2021-09-07T14:47:29Z</time>
      </trkpt>
      <trkpt lat="44.40048" lon="5.57531">
        <ele>997.9</ele>
        <time>2021-09-07T14:47:30Z</time>
      </trkpt>
      <trkpt lat="44.40047" lon="5.57534">
        <ele>998.1</ele>
        <time>2021-09-07T14:47:31Z</time>
      </trkpt>
      <trkpt lat="44.40047" lon="5.57537">
        <ele>998.2</ele>
        <time>2021-09-07T14:47:32Z</time>
      </trkpt>
      <trkpt lat="44.40046" lon="5.57539">
        <ele>998.3</ele>
        <time>2021-09-07T14:47:33Z</time>
      </trkpt>
      <trkpt lat="44.40045" lon="5.57542">
        <ele>998.5</ele>
        <time>2021-09-07T14:47:34Z</time>
      </trkpt>
      <trkpt lat="44.40044" lon="5.57545">
        <ele>998.7</ele>
        <time>2021-09-07T14:47:35Z</time>
      </trkpt>
      <trkpt lat="44.40043" lon="5.57548">
        <ele>998.8</ele>
        <time>2021-09-07T14:47:36Z</time>
      </trkpt>
      <trkpt lat="44.40042" lon="5.57551">
        <ele>999</ele>
        <time>2021-09-07T14:47:37Z</time>
      </trkpt>
      <trkpt lat="44.40041" lon="5.57554">
        <ele>999.2</ele>
        <time>2021-09-07T14:47:38Z</time>
      </trkpt>
      <trkpt lat="44.40039" lon="5.57557">
        <ele>999.4</ele>
        <time>2021-09-07T14:47:39Z</time>
      </trkpt>
      <trkpt lat="44.40038" lon="5.57559">
        <ele>999.5</ele>
        <time>2021-09-07T14:47:40Z</time>
      </trkpt>
      <trkpt lat="44.40037" lon="5.57562">
        <ele>999.7</ele>
        <time>2021-09-07T14:47:41Z</time>
      </trkpt>
      <trkpt lat="44.40036" lon="5.57564">
        <ele>999.8</ele>
        <time>2021-09-07T14:47:42Z</time>
      </trkpt>
      <trkpt lat="44.40035" lon="5.57567">
        <ele>1000</ele>
        <time>2021-09-07T14:47:43Z</time>
      </trkpt>
      <trkpt lat="44.40034" lon="5.5757">
        <ele>1000.1</ele>
        <time>2021-09-07T14:47:44Z</time>
      </trkpt>
      <trkpt lat="44.40034" lon="5.57573">
        <ele>1000.2</ele>
        <time>2021-09-07T14:47:45Z</time>
      </trkpt>
      <trkpt lat="44.40034" lon="5.57575">
        <ele>1000.3</ele>
        <time>2021-09-07T14:47:46Z</time>
      </trkpt>
      <trkpt lat="44.40034" lon="5.57579">
        <ele>1000.5</ele>
        <time>2021-09-07T14:47:47Z</time>
      </trkpt>
      <trkpt lat="44.40035" lon="5.57582">
        <ele>1000.6</ele>
        <time>2021-09-07T14:47:48Z</time>
      </trkpt>
      <trkpt lat="44.40036" lon="5.57583">
        <ele>1000.7</ele>
        <time>2021-09-07T14:47:49Z</time>
      </trkpt>
      <trkpt lat="44.40037" lon="5.57584">
        <ele>1000.8</ele>
        <time>2021-09-07T14:47:50Z</time>
      </trkpt>
      <trkpt lat="44.4004" lon="5.57587">
        <ele>1001</ele>
        <time>2021-09-07T14:47:51Z</time>
      </trkpt>
      <trkpt lat="44.40041" lon="5.57589">
        <ele>1001.1</ele>
        <time>2021-09-07T14:47:52Z</time>
      </trkpt>
      <trkpt lat="44.40042" lon="5.5759">
        <ele>1001.2</ele>
        <time>2021-09-07T14:47:53Z</time>
      </trkpt>
      <trkpt lat="44.40044" lon="5.57592">
        <ele>1001.3</ele>
        <time>2021-09-07T14:47:54Z</time>
      </trkpt>
      <trkpt lat="44.40046" lon="5.57594">
        <ele>1001.8</ele>
        <time>2021-09-07T14:47:55Z</time>
      </trkpt>
      <trkpt lat="44.40048" lon="5.57596">
        <ele>1001.8</ele>
        <time>2021-09-07T14:47:56Z</time>
      </trkpt>
      <trkpt lat="44.40049" lon="5.57598">
        <ele>1001.9</ele>
        <time>2021-09-07T14:47:57Z</time>
      </trkpt>
      <trkpt lat="44.40051" lon="5.57602">
        <ele>1002</ele>
        <time>2021-09-07T14:47:58Z</time>
      </trkpt>
      <trkpt lat="44.40052" lon="5.57605">
        <ele>1002.1</ele>
        <time>2021-09-07T14:47:59Z</time>
      </trkpt>
      <trkpt lat="44.40053" lon="5.57607">
        <ele>1002.2</ele>
        <time>2021-09-07T14:48:00Z</time>
      </trkpt>
      <trkpt lat="44.40054" lon="5.57608">
        <ele>1002.3</ele>
        <time>2021-09-07T14:48:01Z</time>
      </trkpt>
      <trkpt lat="44.40054" lon="5.57611">
        <ele>1002.4</ele>
        <time>2021-09-07T14:48:02Z</time>
      </trkpt>
      <trkpt lat="44.40056" lon="5.57615">
        <ele>1002.5</ele>
        <time>2021-09-07T14:48:03Z</time>
      </trkpt>
      <trkpt lat="44.40057" lon="5.57617">
        <ele>1002.6</ele>
        <time>2021-09-07T14:48:04Z</time>
      </trkpt>
      <trkpt lat="44.40058" lon="5.57619">
        <ele>1002.7</ele>
        <time>2021-09-07T14:48:05Z</time>
      </trkpt>
      <trkpt lat="44.40059" lon="5.57622">
        <ele>1002.8</ele>
        <time>2021-09-07T14:48:06Z</time>
      </trkpt>
      <trkpt lat="44.4006" lon="5.57624">
        <ele>1002.9</ele>
        <time>2021-09-07T14:48:07Z</time>
      </trkpt>
      <trkpt lat="44.40061" lon="5.57627">
        <ele>1003.1</ele>
        <time>2021-09-07T14:48:08Z</time>
      </trkpt>
      <trkpt lat="44.40061" lon="5.5763">
        <ele>1003.2</ele>
        <time>2021-09-07T14:48:09Z</time>
      </trkpt>
      <trkpt lat="44.40061" lon="5.57635">
        <ele>1003.4</ele>
        <time>2021-09-07T14:48:10Z</time>
      </trkpt>
      <trkpt lat="44.40061" lon="5.57638">
        <ele>1003.5</ele>
        <time>2021-09-07T14:48:11Z</time>
      </trkpt>
      <trkpt lat="44.40061" lon="5.57641">
        <ele>1003.6</ele>
        <time>2021-09-07T14:48:12Z</time>
      </trkpt>
      <trkpt lat="44.40061" lon="5.57643">
        <ele>1003.7</ele>
        <time>2021-09-07T14:48:13Z</time>
      </trkpt>
      <trkpt lat="44.40061" lon="5.57645">
        <ele>1003.8</ele>
        <time>2021-09-07T14:48:14Z</time>
      </trkpt>
      <trkpt lat="44.4006" lon="5.57648">
        <ele>1003.9</ele>
        <time>2021-09-07T14:48:15Z</time>
      </trkpt>
      <trkpt lat="44.40061" lon="5.5765">
        <ele>1004</ele>
        <time>2021-09-07T14:48:16Z</time>
      </trkpt>
      <trkpt lat="44.40061" lon="5.57652">
        <ele>1004.1</ele>
        <time>2021-09-07T14:48:17Z</time>
      </trkpt>
      <trkpt lat="44.40061" lon="5.57654">
        <ele>1004.2</ele>
        <time>2021-09-07T14:48:18Z</time>
      </trkpt>
      <trkpt lat="44.40061" lon="5.57657">
        <ele>1004.3</ele>
        <time>2021-09-07T14:48:19Z</time>
      </trkpt>
      <trkpt lat="44.40061" lon="5.57659">
        <ele>1004.4</ele>
        <time>2021-09-07T14:48:20Z</time>
      </trkpt>
      <trkpt lat="44.40061" lon="5.57661">
        <ele>1004.5</ele>
        <time>2021-09-07T14:48:21Z</time>
      </trkpt>
      <trkpt lat="44.4006" lon="5.57664">
        <ele>1004.6</ele>
        <time>2021-09-07T14:48:22Z</time>
      </trkpt>
      <trkpt lat="44.40059" lon="5.57666">
        <ele>1004.8</ele>
        <time>2021-09-07T14:48:23Z</time>
      </trkpt>
      <trkpt lat="44.40058" lon="5.57669">
        <ele>1004.9</ele>
        <time>2021-09-07T14:48:24Z</time>
      </trkpt>
      <trkpt lat="44.40057" lon="5.57674">
        <ele>1005.2</ele>
        <time>2021-09-07T14:48:25Z</time>
      </trkpt>
      <trkpt lat="44.40056" lon="5.57676">
        <ele>1005.3</ele>
        <time>2021-09-07T14:48:26Z</time>
      </trkpt>
      <trkpt lat="44.40055" lon="5.57677">
        <ele>1005.4</ele>
        <time>2021-09-07T14:48:27Z</time>
      </trkpt>
      <trkpt lat="44.40054" lon="5.5768">
        <ele>1005.5</ele>
        <time>2021-09-07T14:48:28Z</time>
      </trkpt>
      <trkpt lat="44.40052" lon="5.57684">
        <ele>1005.7</ele>
        <time>2021-09-07T14:48:29Z</time>
      </trkpt>
      <trkpt lat="44.40051" lon="5.57686">
        <ele>1005.9</ele>
        <time>2021-09-07T14:48:30Z</time>
      </trkpt>
      <trkpt lat="44.4005" lon="5.57688">
        <ele>1006</ele>
        <time>2021-09-07T14:48:31Z</time>
      </trkpt>
      <trkpt lat="44.40049" lon="5.57691">
        <ele>1006.1</ele>
        <time>2021-09-07T14:48:32Z</time>
      </trkpt>
      <trkpt lat="44.40047" lon="5.57697">
        <ele>1006.4</ele>
        <time>2021-09-07T14:48:33Z</time>
      </trkpt>
      <trkpt lat="44.40046" lon="5.577">
        <ele>1006.6</ele>
        <time>2021-09-07T14:48:34Z</time>
      </trkpt>
      <trkpt lat="44.40046" lon="5.57702">
        <ele>1006.6</ele>
        <time>2021-09-07T14:48:35Z</time>
      </trkpt>
      <trkpt lat="44.40045" lon="5.57703">
        <ele>1006.7</ele>
        <time>2021-09-07T14:48:36Z</time>
      </trkpt>
      <trkpt lat="44.40043" lon="5.57705">
        <ele>1006.8</ele>
        <time>2021-09-07T14:48:37Z</time>
      </trkpt>
      <trkpt lat="44.40043" lon="5.57708">
        <ele>1007</ele>
        <time>2021-09-07T14:48:38Z</time>
      </trkpt>
      <trkpt lat="44.40042" lon="5.57711">
        <ele>1007.1</ele>
        <time>2021-09-07T14:48:39Z</time>
      </trkpt>
      <trkpt lat="44.40041" lon="5.57714">
        <ele>1007.2</ele>
        <time>2021-09-07T14:48:40Z</time>
      </trkpt>
      <trkpt lat="44.4004" lon="5.57716">
        <ele>1007.3</ele>
        <time>2021-09-07T14:48:41Z</time>
      </trkpt>
      <trkpt lat="44.4004" lon="5.5772">
        <ele>1007.5</ele>
        <time>2021-09-07T14:48:42Z</time>
      </trkpt>
      <trkpt lat="44.40039" lon="5.57723">
        <ele>1007.6</ele>
        <time>2021-09-07T14:48:43Z</time>
      </trkpt>
      <trkpt lat="44.40039" lon="5.57726">
        <ele>1007.7</ele>
        <time>2021-09-07T14:48:44Z</time>
      </trkpt>
      <trkpt lat="44.40039" lon="5.57728">
        <ele>1007.8</ele>
        <time>2021-09-07T14:48:45Z</time>
      </trkpt>
      <trkpt lat="44.40039" lon="5.57732">
        <ele>1007.9</ele>
        <time>2021-09-07T14:48:46Z</time>
      </trkpt>
      <trkpt lat="44.40038" lon="5.57735">
        <ele>1008.1</ele>
        <time>2021-09-07T14:48:47Z</time>
      </trkpt>
      <trkpt lat="44.40038" lon="5.57737">
        <ele>1008.2</ele>
        <time>2021-09-07T14:48:48Z</time>
      </trkpt>
      <trkpt lat="44.40038" lon="5.57739">
        <ele>1008.2</ele>
        <time>2021-09-07T14:48:49Z</time>
      </trkpt>
      <trkpt lat="44.40038" lon="5.57741">
        <ele>1008.3</ele>
        <time>2021-09-07T14:48:50Z</time>
      </trkpt>
      <trkpt lat="44.40038" lon="5.57742">
        <ele>1008.4</ele>
        <time>2021-09-07T14:48:51Z</time>
      </trkpt>
      <trkpt lat="44.40038" lon="5.57745">
        <ele>1008.5</ele>
        <time>2021-09-07T14:48:52Z</time>
      </trkpt>
      <trkpt lat="44.40038" lon="5.57747">
        <ele>1008.6</ele>
        <time>2021-09-07T14:48:53Z</time>
      </trkpt>
      <trkpt lat="44.40038" lon="5.57749">
        <ele>1008.7</ele>
        <time>2021-09-07T14:48:54Z</time>
      </trkpt>
      <trkpt lat="44.40039" lon="5.57751">
        <ele>1008.8</ele>
        <time>2021-09-07T14:48:55Z</time>
      </trkpt>
      <trkpt lat="44.40039" lon="5.57751">
        <ele>1008.8</ele>
        <time>2021-09-07T14:48:56Z</time>
      </trkpt>
      <trkpt lat="44.40039" lon="5.57751">
        <ele>1008.8</ele>
        <time>2021-09-07T14:48:57Z</time>
      </trkpt>
      <trkpt lat="44.40039" lon="5.57752">
        <ele>1008.8</ele>
        <time>2021-09-07T14:48:58Z</time>
      </trkpt>
      <trkpt lat="44.40039" lon="5.57752">
        <ele>1008.8</ele>
        <time>2021-09-07T14:48:59Z</time>
      </trkpt>
      <trkpt lat="44.4004" lon="5.57752">
        <ele>1008.9</ele>
        <time>2021-09-07T14:49:00Z</time>
      </trkpt>
      <trkpt lat="44.4004" lon="5.57752">
        <ele>1008.9</ele>
        <time>2021-09-07T14:49:01Z</time>
      </trkpt>
      <trkpt lat="44.4004" lon="5.57752">
        <ele>1008.9</ele>
        <time>2021-09-07T14:49:02Z</time>
      </trkpt>
      <trkpt lat="44.4004" lon="5.57752">
        <ele>1008.9</ele>
        <time>2021-09-07T14:49:03Z</time>
      </trkpt>
      <trkpt lat="44.4004" lon="5.57753">
        <ele>1008.9</ele>
        <time>2021-09-07T14:49:04Z</time>
      </trkpt>
      <trkpt lat="44.4004" lon="5.57753">
        <ele>1008.9</ele>
        <time>2021-09-07T14:49:05Z</time>
      </trkpt>
      <trkpt lat="44.4004" lon="5.57753">
        <ele>1008.9</ele>
        <time>2021-09-07T14:49:06Z</time>
      </trkpt>
      <trkpt lat="44.4004" lon="5.57753">
        <ele>1008.9</ele>
        <time>2021-09-07T14:49:07Z</time>
      </trkpt>
      <trkpt lat="44.4004" lon="5.57753">
        <ele>1008.9</ele>
        <time>2021-09-07T14:49:08Z</time>
      </trkpt>
      <trkpt lat="44.4004" lon="5.57753">
        <ele>1008.9</ele>
        <time>2021-09-07T14:49:09Z</time>
      </trkpt>
      <trkpt lat="44.4004" lon="5.57753">
        <ele>1008.9</ele>
        <time>2021-09-07T14:49:10Z</time>
      </trkpt>
      <trkpt lat="44.4004" lon="5.57753">
        <ele>1008.9</ele>
        <time>2021-09-07T14:49:11Z</time>
      </trkpt>
      <trkpt lat="44.4004" lon="5.57753">
        <ele>1008.9</ele>
        <time>2021-09-07T14:49:12Z</time>
      </trkpt>
      <trkpt lat="44.40041" lon="5.57753">
        <ele>1009</ele>
        <time>2021-09-07T14:49:13Z</time>
      </trkpt>
      <trkpt lat="44.40041" lon="5.57753">
        <ele>1009</ele>
        <time>2021-09-07T14:49:14Z</time>
      </trkpt>
      <trkpt lat="44.40041" lon="5.57753">
        <ele>1009</ele>
        <time>2021-09-07T14:49:15Z</time>
      </trkpt>
      <trkpt lat="44.40041" lon="5.57753">
        <ele>1009</ele>
        <time>2021-09-07T14:49:16Z</time>
      </trkpt>
      <trkpt lat="44.40041" lon="5.57753">
        <ele>1009</ele>
        <time>2021-09-07T14:49:17Z</time>
      </trkpt>
      <trkpt lat="44.40041" lon="5.57753">
        <ele>1009</ele>
        <time>2021-09-07T14:49:18Z</time>
      </trkpt>
      <trkpt lat="44.40041" lon="5.57753">
        <ele>1009</ele>
        <time>2021-09-07T14:49:19Z</time>
      </trkpt>
      <trkpt lat="44.40041" lon="5.57753">
        <ele>1009</ele>
        <time>2021-09-07T14:49:20Z</time>
      </trkpt>
      <trkpt lat="44.4004" lon="5.57753">
        <ele>1009</ele>
        <time>2021-09-07T14:49:21Z</time>
      </trkpt>
      <trkpt lat="44.4004" lon="5.57753">
        <ele>1009</ele>
        <time>2021-09-07T14:49:22Z</time>
      </trkpt>
      <trkpt lat="44.4004" lon="5.57753">
        <ele>1009</ele>
        <time>2021-09-07T14:49:23Z</time>
      </trkpt>
      <trkpt lat="44.40041" lon="5.57753">
        <ele>1009.1</ele>
        <time>2021-09-07T14:49:24Z</time>
      </trkpt>
      <trkpt lat="44.40041" lon="5.57753">
        <ele>1009.1</ele>
        <time>2021-09-07T14:49:25Z</time>
      </trkpt>
      <trkpt lat="44.40041" lon="5.57753">
        <ele>1009.1</ele>
        <time>2021-09-07T14:49:26Z</time>
      </trkpt>
      <trkpt lat="44.40041" lon="5.57753">
        <ele>1009.1</ele>
        <time>2021-09-07T14:49:27Z</time>
      </trkpt>
      <trkpt lat="44.40041" lon="5.57753">
        <ele>1009.1</ele>
        <time>2021-09-07T14:49:28Z</time>
      </trkpt>
      <trkpt lat="44.40041" lon="5.57753">
        <ele>1009.1</ele>
        <time>2021-09-07T14:49:29Z</time>
      </trkpt>
      <trkpt lat="44.40041" lon="5.57753">
        <ele>1009.1</ele>
        <time>2021-09-07T14:49:30Z</time>
      </trkpt>
      <trkpt lat="44.40042" lon="5.57754">
        <ele>1009.2</ele>
        <time>2021-09-07T14:49:31Z</time>
      </trkpt>
      <trkpt lat="44.40043" lon="5.57755">
        <ele>1009.3</ele>
        <time>2021-09-07T14:49:32Z</time>
      </trkpt>
      <trkpt lat="44.40045" lon="5.57757">
        <ele>1009.4</ele>
        <time>2021-09-07T14:49:33Z</time>
      </trkpt>
      <trkpt lat="44.40046" lon="5.57759">
        <ele>1009.5</ele>
        <time>2021-09-07T14:49:34Z</time>
      </trkpt>
      <trkpt lat="44.40047" lon="5.57761">
        <ele>1009.6</ele>
        <time>2021-09-07T14:49:35Z</time>
      </trkpt>
      <trkpt lat="44.40047" lon="5.57762">
        <ele>1009.7</ele>
        <time>2021-09-07T14:49:36Z</time>
      </trkpt>
      <trkpt lat="44.40047" lon="5.57765">
        <ele>1009.8</ele>
        <time>2021-09-07T14:49:37Z</time>
      </trkpt>
      <trkpt lat="44.40047" lon="5.57766">
        <ele>1009.8</ele>
        <time>2021-09-07T14:49:38Z</time>
      </trkpt>
      <trkpt lat="44.40047" lon="5.57766">
        <ele>1009.9</ele>
        <time>2021-09-07T14:49:39Z</time>
      </trkpt>
      <trkpt lat="44.40048" lon="5.57768">
        <ele>1010</ele>
        <time>2021-09-07T14:49:40Z</time>
      </trkpt>
      <trkpt lat="44.40049" lon="5.57771">
        <ele>1010.1</ele>
        <time>2021-09-07T14:49:41Z</time>
      </trkpt>
      <trkpt lat="44.40049" lon="5.57773">
        <ele>1010.2</ele>
        <time>2021-09-07T14:49:42Z</time>
      </trkpt>
      <trkpt lat="44.40049" lon="5.57777">
        <ele>1010.4</ele>
        <time>2021-09-07T14:49:43Z</time>
      </trkpt>
      <trkpt lat="44.40049" lon="5.57779">
        <ele>1010.5</ele>
        <time>2021-09-07T14:49:44Z</time>
      </trkpt>
      <trkpt lat="44.40049" lon="5.57781">
        <ele>1010.6</ele>
        <time>2021-09-07T14:49:45Z</time>
      </trkpt>
      <trkpt lat="44.40049" lon="5.57782">
        <ele>1010.6</ele>
        <time>2021-09-07T14:49:46Z</time>
      </trkpt>
      <trkpt lat="44.40049" lon="5.57785">
        <ele>1010.7</ele>
        <time>2021-09-07T14:49:47Z</time>
      </trkpt>
      <trkpt lat="44.40049" lon="5.57787">
        <ele>1010.8</ele>
        <time>2021-09-07T14:49:48Z</time>
      </trkpt>
      <trkpt lat="44.40048" lon="5.57789">
        <ele>1010.9</ele>
        <time>2021-09-07T14:49:49Z</time>
      </trkpt>
      <trkpt lat="44.40048" lon="5.5779">
        <ele>1011</ele>
        <time>2021-09-07T14:49:50Z</time>
      </trkpt>
      <trkpt lat="44.40047" lon="5.5779">
        <ele>1011</ele>
        <time>2021-09-07T14:49:51Z</time>
      </trkpt>
      <trkpt lat="44.40047" lon="5.57793">
        <ele>1011.1</ele>
        <time>2021-09-07T14:49:52Z</time>
      </trkpt>
      <trkpt lat="44.40046" lon="5.57794">
        <ele>1011.2</ele>
        <time>2021-09-07T14:49:53Z</time>
      </trkpt>
      <trkpt lat="44.40046" lon="5.57794">
        <ele>1011.2</ele>
        <time>2021-09-07T14:49:54Z</time>
      </trkpt>
      <trkpt lat="44.40046" lon="5.57794">
        <ele>1011.2</ele>
        <time>2021-09-07T14:49:55Z</time>
      </trkpt>
      <trkpt lat="44.40046" lon="5.57795">
        <ele>1011.2</ele>
        <time>2021-09-07T14:49:56Z</time>
      </trkpt>
      <trkpt lat="44.40046" lon="5.57795">
        <ele>1011.2</ele>
        <time>2021-09-07T14:49:57Z</time>
      </trkpt>
      <trkpt lat="44.40046" lon="5.57798">
        <ele>1011.3</ele>
        <time>2021-09-07T14:49:58Z</time>
      </trkpt>
      <trkpt lat="44.40045" lon="5.57801">
        <ele>1011.4</ele>
        <time>2021-09-07T14:49:59Z</time>
      </trkpt>
      <trkpt lat="44.40045" lon="5.57803">
        <ele>1011.5</ele>
        <time>2021-09-07T14:50:00Z</time>
      </trkpt>
      <trkpt lat="44.40045" lon="5.57805">
        <ele>1011.6</ele>
        <time>2021-09-07T14:50:01Z</time>
      </trkpt>
      <trkpt lat="44.40045" lon="5.57807">
        <ele>1011.7</ele>
        <time>2021-09-07T14:50:02Z</time>
      </trkpt>
      <trkpt lat="44.40045" lon="5.57809">
        <ele>1011.7</ele>
        <time>2021-09-07T14:50:03Z</time>
      </trkpt>
      <trkpt lat="44.40046" lon="5.5781">
        <ele>1011.8</ele>
        <time>2021-09-07T14:50:04Z</time>
      </trkpt>
      <trkpt lat="44.40046" lon="5.57811">
        <ele>1011.8</ele>
        <time>2021-09-07T14:50:05Z</time>
      </trkpt>
      <trkpt lat="44.40046" lon="5.57813">
        <ele>1011.9</ele>
        <time>2021-09-07T14:50:06Z</time>
      </trkpt>
      <trkpt lat="44.40046" lon="5.57814">
        <ele>1011.9</ele>
        <time>2021-09-07T14:50:07Z</time>
      </trkpt>
      <trkpt lat="44.40046" lon="5.57815">
        <ele>1012</ele>
        <time>2021-09-07T14:50:08Z</time>
      </trkpt>
      <trkpt lat="44.40046" lon="5.57818">
        <ele>1012.1</ele>
        <time>2021-09-07T14:50:09Z</time>
      </trkpt>
      <trkpt lat="44.40046" lon="5.57819">
        <ele>1012.1</ele>
        <time>2021-09-07T14:50:10Z</time>
      </trkpt>
      <trkpt lat="44.40046" lon="5.57821">
        <ele>1012.2</ele>
        <time>2021-09-07T14:50:11Z</time>
      </trkpt>
      <trkpt lat="44.40046" lon="5.57822">
        <ele>1012.3</ele>
        <time>2021-09-07T14:50:12Z</time>
      </trkpt>
      <trkpt lat="44.40046" lon="5.57823">
        <ele>1012.3</ele>
        <time>2021-09-07T14:50:13Z</time>
      </trkpt>
      <trkpt lat="44.40046" lon="5.57824">
        <ele>1012.3</ele>
        <time>2021-09-07T14:50:14Z</time>
      </trkpt>
      <trkpt lat="44.40046" lon="5.57825">
        <ele>1012.4</ele>
        <time>2021-09-07T14:50:15Z</time>
      </trkpt>
      <trkpt lat="44.40046" lon="5.57825">
        <ele>1012.4</ele>
        <time>2021-09-07T14:50:16Z</time>
      </trkpt>
      <trkpt lat="44.40046" lon="5.57826">
        <ele>1012.4</ele>
        <time>2021-09-07T14:50:17Z</time>
      </trkpt>
      <trkpt lat="44.40046" lon="5.57826">
        <ele>1012.4</ele>
        <time>2021-09-07T14:50:18Z</time>
      </trkpt>
      <trkpt lat="44.40046" lon="5.57826">
        <ele>1012.4</ele>
        <time>2021-09-07T14:50:19Z</time>
      </trkpt>
      <trkpt lat="44.40046" lon="5.57826">
        <ele>1012.4</ele>
        <time>2021-09-07T14:50:20Z</time>
      </trkpt>
      <trkpt lat="44.40046" lon="5.57826">
        <ele>1012.4</ele>
        <time>2021-09-07T14:50:21Z</time>
      </trkpt>
      <trkpt lat="44.40046" lon="5.57826">
        <ele>1012.4</ele>
        <time>2021-09-07T14:50:22Z</time>
      </trkpt>
      <trkpt lat="44.40046" lon="5.57826">
        <ele>1012.4</ele>
        <time>2021-09-07T14:50:23Z</time>
      </trkpt>
      <trkpt lat="44.40046" lon="5.57826">
        <ele>1012.4</ele>
        <time>2021-09-07T14:50:24Z</time>
      </trkpt>
      <trkpt lat="44.40046" lon="5.57826">
        <ele>1012.4</ele>
        <time>2021-09-07T14:50:25Z</time>
      </trkpt>
      <trkpt lat="44.40046" lon="5.57826">
        <ele>1012.4</ele>
        <time>2021-09-07T14:50:26Z</time>
      </trkpt>
      <trkpt lat="44.40046" lon="5.57826">
        <ele>1012.4</ele>
        <time>2021-09-07T14:50:27Z</time>
      </trkpt>
      <trkpt lat="44.40046" lon="5.57826">
        <ele>1012.4</ele>
        <time>2021-09-07T14:50:28Z</time>
      </trkpt>
      <trkpt lat="44.40046" lon="5.57827">
        <ele>1012.4</ele>
        <time>2021-09-07T14:50:29Z</time>
      </trkpt>
      <trkpt lat="44.40046" lon="5.57827">
        <ele>1012.5</ele>
        <time>2021-09-07T14:50:30Z</time>
      </trkpt>
      <trkpt lat="44.40044" lon="5.57829">
        <ele>1012.6</ele>
        <time>2021-09-07T14:50:31Z</time>
      </trkpt>
      <trkpt lat="44.40044" lon="5.57831">
        <ele>1012.7</ele>
        <time>2021-09-07T14:50:32Z</time>
      </trkpt>
      <trkpt lat="44.40044" lon="5.57834">
        <ele>1012.8</ele>
        <time>2021-09-07T14:50:33Z</time>
      </trkpt>
      <trkpt lat="44.40043" lon="5.57836">
        <ele>1012.9</ele>
        <time>2021-09-07T14:50:34Z</time>
      </trkpt>
      <trkpt lat="44.40042" lon="5.57841">
        <ele>1013.1</ele>
        <time>2021-09-07T14:50:35Z</time>
      </trkpt>
      <trkpt lat="44.40041" lon="5.57844">
        <ele>1013.2</ele>
        <time>2021-09-07T14:50:36Z</time>
      </trkpt>
      <trkpt lat="44.4004" lon="5.57846">
        <ele>1013.3</ele>
        <time>2021-09-07T14:50:37Z</time>
      </trkpt>
      <trkpt lat="44.40038" lon="5.57851">
        <ele>1013.5</ele>
        <time>2021-09-07T14:50:38Z</time>
      </trkpt>
      <trkpt lat="44.40036" lon="5.57855">
        <ele>1013.7</ele>
        <time>2021-09-07T14:50:39Z</time>
      </trkpt>
      <trkpt lat="44.40035" lon="5.57858">
        <ele>1013.8</ele>
        <time>2021-09-07T14:50:40Z</time>
      </trkpt>
      <trkpt lat="44.40034" lon="5.5786">
        <ele>1014</ele>
        <time>2021-09-07T14:50:41Z</time>
      </trkpt>
      <trkpt lat="44.40032" lon="5.57865">
        <ele>1014.2</ele>
        <time>2021-09-07T14:50:42Z</time>
      </trkpt>
      <trkpt lat="44.40031" lon="5.57868">
        <ele>1014.3</ele>
        <time>2021-09-07T14:50:43Z</time>
      </trkpt>
      <trkpt lat="44.4003" lon="5.57871">
        <ele>1014.4</ele>
        <time>2021-09-07T14:50:44Z</time>
      </trkpt>
      <trkpt lat="44.40029" lon="5.57873">
        <ele>1014.6</ele>
        <time>2021-09-07T14:50:45Z</time>
      </trkpt>
      <trkpt lat="44.40028" lon="5.57876">
        <ele>1014.7</ele>
        <time>2021-09-07T14:50:46Z</time>
      </trkpt>
      <trkpt lat="44.40027" lon="5.57878">
        <ele>1014.8</ele>
        <time>2021-09-07T14:50:47Z</time>
      </trkpt>
      <trkpt lat="44.40025" lon="5.57884">
        <ele>1015.2</ele>
        <time>2021-09-07T14:50:48Z</time>
      </trkpt>
      <trkpt lat="44.40024" lon="5.57886">
        <ele>1015.3</ele>
        <time>2021-09-07T14:50:49Z</time>
      </trkpt>
      <trkpt lat="44.40023" lon="5.57888">
        <ele>1015.4</ele>
        <time>2021-09-07T14:50:50Z</time>
      </trkpt>
      <trkpt lat="44.40022" lon="5.57891">
        <ele>1015.6</ele>
        <time>2021-09-07T14:50:51Z</time>
      </trkpt>
      <trkpt lat="44.40022" lon="5.57893">
        <ele>1015.6</ele>
        <time>2021-09-07T14:50:52Z</time>
      </trkpt>
      <trkpt lat="44.40021" lon="5.57894">
        <ele>1015.7</ele>
        <time>2021-09-07T14:50:53Z</time>
      </trkpt>
      <trkpt lat="44.4002" lon="5.57897">
        <ele>1015.9</ele>
        <time>2021-09-07T14:50:54Z</time>
      </trkpt>
      <trkpt lat="44.40019" lon="5.579">
        <ele>1016</ele>
        <time>2021-09-07T14:50:55Z</time>
      </trkpt>
      <trkpt lat="44.40018" lon="5.57903">
        <ele>1016.1</ele>
        <time>2021-09-07T14:50:56Z</time>
      </trkpt>
      <trkpt lat="44.40017" lon="5.57905">
        <ele>1016.3</ele>
        <time>2021-09-07T14:50:57Z</time>
      </trkpt>
      <trkpt lat="44.40015" lon="5.5791">
        <ele>1016.5</ele>
        <time>2021-09-07T14:50:58Z</time>
      </trkpt>
      <trkpt lat="44.40014" lon="5.57913">
        <ele>1016.6</ele>
        <time>2021-09-07T14:50:59Z</time>
      </trkpt>
      <trkpt lat="44.40013" lon="5.57916">
        <ele>1016.8</ele>
        <time>2021-09-07T14:51:00Z</time>
      </trkpt>
      <trkpt lat="44.40013" lon="5.57919">
        <ele>1016.9</ele>
        <time>2021-09-07T14:51:01Z</time>
      </trkpt>
      <trkpt lat="44.40013" lon="5.57921">
        <ele>1017</ele>
        <time>2021-09-07T14:51:02Z</time>
      </trkpt>
      <trkpt lat="44.40013" lon="5.57923">
        <ele>1017</ele>
        <time>2021-09-07T14:51:03Z</time>
      </trkpt>
      <trkpt lat="44.40012" lon="5.57924">
        <ele>1017.1</ele>
        <time>2021-09-07T14:51:04Z</time>
      </trkpt>
      <trkpt lat="44.40012" lon="5.57928">
        <ele>1017.3</ele>
        <time>2021-09-07T14:51:05Z</time>
      </trkpt>
      <trkpt lat="44.40012" lon="5.5793">
        <ele>1017.4</ele>
        <time>2021-09-07T14:51:06Z</time>
      </trkpt>
      <trkpt lat="44.40011" lon="5.57932">
        <ele>1017.5</ele>
        <time>2021-09-07T14:51:07Z</time>
      </trkpt>
      <trkpt lat="44.40011" lon="5.57935">
        <ele>1017.6</ele>
        <time>2021-09-07T14:51:08Z</time>
      </trkpt>
      <trkpt lat="44.4001" lon="5.57939">
        <ele>1017.9</ele>
        <time>2021-09-07T14:51:09Z</time>
      </trkpt>
      <trkpt lat="44.4001" lon="5.57941">
        <ele>1018</ele>
        <time>2021-09-07T14:51:10Z</time>
      </trkpt>
      <trkpt lat="44.40009" lon="5.57943">
        <ele>1018.1</ele>
        <time>2021-09-07T14:51:11Z</time>
      </trkpt>
      <trkpt lat="44.40009" lon="5.57945">
        <ele>1018.2</ele>
        <time>2021-09-07T14:51:12Z</time>
      </trkpt>
      <trkpt lat="44.4001" lon="5.57948">
        <ele>1018.3</ele>
        <time>2021-09-07T14:51:13Z</time>
      </trkpt>
      <trkpt lat="44.4001" lon="5.5795">
        <ele>1018.4</ele>
        <time>2021-09-07T14:51:14Z</time>
      </trkpt>
      <trkpt lat="44.40011" lon="5.57952">
        <ele>1018.5</ele>
        <time>2021-09-07T14:51:15Z</time>
      </trkpt>
      <trkpt lat="44.40011" lon="5.57953">
        <ele>1018.6</ele>
        <time>2021-09-07T14:51:16Z</time>
      </trkpt>
      <trkpt lat="44.40012" lon="5.57955">
        <ele>1018.7</ele>
        <time>2021-09-07T14:51:17Z</time>
      </trkpt>
      <trkpt lat="44.40013" lon="5.57957">
        <ele>1018.8</ele>
        <time>2021-09-07T14:51:18Z</time>
      </trkpt>
      <trkpt lat="44.40014" lon="5.5796">
        <ele>1019</ele>
        <time>2021-09-07T14:51:19Z</time>
      </trkpt>
      <trkpt lat="44.40015" lon="5.57963">
        <ele>1019.1</ele>
        <time>2021-09-07T14:51:20Z</time>
      </trkpt>
      <trkpt lat="44.40016" lon="5.57966">
        <ele>1019.3</ele>
        <time>2021-09-07T14:51:21Z</time>
      </trkpt>
      <trkpt lat="44.40016" lon="5.57968">
        <ele>1019.4</ele>
        <time>2021-09-07T14:51:22Z</time>
      </trkpt>
      <trkpt lat="44.40017" lon="5.57971">
        <ele>1019.5</ele>
        <time>2021-09-07T14:51:23Z</time>
      </trkpt>
      <trkpt lat="44.40017" lon="5.57973">
        <ele>1019.6</ele>
        <time>2021-09-07T14:51:24Z</time>
      </trkpt>
      <trkpt lat="44.40017" lon="5.57976">
        <ele>1019.7</ele>
        <time>2021-09-07T14:51:25Z</time>
      </trkpt>
      <trkpt lat="44.40018" lon="5.57978">
        <ele>1019.8</ele>
        <time>2021-09-07T14:51:26Z</time>
      </trkpt>
      <trkpt lat="44.40018" lon="5.5798">
        <ele>1019.9</ele>
        <time>2021-09-07T14:51:27Z</time>
      </trkpt>
      <trkpt lat="44.40019" lon="5.57985">
        <ele>1020.1</ele>
        <time>2021-09-07T14:51:28Z</time>
      </trkpt>
      <trkpt lat="44.4002" lon="5.57987">
        <ele>1020.2</ele>
        <time>2021-09-07T14:51:29Z</time>
      </trkpt>
      <trkpt lat="44.4002" lon="5.57989">
        <ele>1020.3</ele>
        <time>2021-09-07T14:51:30Z</time>
      </trkpt>
      <trkpt lat="44.4002" lon="5.57992">
        <ele>1020.4</ele>
        <time>2021-09-07T14:51:31Z</time>
      </trkpt>
      <trkpt lat="44.40021" lon="5.57995">
        <ele>1020.5</ele>
        <time>2021-09-07T14:51:32Z</time>
      </trkpt>
      <trkpt lat="44.40021" lon="5.57997">
        <ele>1020.6</ele>
        <time>2021-09-07T14:51:33Z</time>
      </trkpt>
      <trkpt lat="44.40022" lon="5.58">
        <ele>1020.7</ele>
        <time>2021-09-07T14:51:34Z</time>
      </trkpt>
      <trkpt lat="44.40023" lon="5.58002">
        <ele>1020.8</ele>
        <time>2021-09-07T14:51:35Z</time>
      </trkpt>
      <trkpt lat="44.40023" lon="5.58004">
        <ele>1020.9</ele>
        <time>2021-09-07T14:51:36Z</time>
      </trkpt>
      <trkpt lat="44.40024" lon="5.58006">
        <ele>1021</ele>
        <time>2021-09-07T14:51:37Z</time>
      </trkpt>
      <trkpt lat="44.40025" lon="5.58008">
        <ele>1021.1</ele>
        <time>2021-09-07T14:51:38Z</time>
      </trkpt>
      <trkpt lat="44.40026" lon="5.58012">
        <ele>1021.3</ele>
        <time>2021-09-07T14:51:39Z</time>
      </trkpt>
      <trkpt lat="44.40027" lon="5.58014">
        <ele>1021.3</ele>
        <time>2021-09-07T14:51:40Z</time>
      </trkpt>
      <trkpt lat="44.40027" lon="5.58015">
        <ele>1021.4</ele>
        <time>2021-09-07T14:51:41Z</time>
      </trkpt>
      <trkpt lat="44.40027" lon="5.58018">
        <ele>1021.5</ele>
        <time>2021-09-07T14:51:42Z</time>
      </trkpt>
      <trkpt lat="44.40027" lon="5.58021">
        <ele>1021.7</ele>
        <time>2021-09-07T14:51:43Z</time>
      </trkpt>
      <trkpt lat="44.40028" lon="5.58024">
        <ele>1021.8</ele>
        <time>2021-09-07T14:51:44Z</time>
      </trkpt>
      <trkpt lat="44.40028" lon="5.58026">
        <ele>1021.9</ele>
        <time>2021-09-07T14:51:45Z</time>
      </trkpt>
      <trkpt lat="44.40029" lon="5.5803">
        <ele>1022.1</ele>
        <time>2021-09-07T14:51:46Z</time>
      </trkpt>
      <trkpt lat="44.40029" lon="5.58032">
        <ele>1022.1</ele>
        <time>2021-09-07T14:51:47Z</time>
      </trkpt>
      <trkpt lat="44.40029" lon="5.58033">
        <ele>1022.2</ele>
        <time>2021-09-07T14:51:48Z</time>
      </trkpt>
      <trkpt lat="44.40029" lon="5.58036">
        <ele>1022.3</ele>
        <time>2021-09-07T14:51:49Z</time>
      </trkpt>
      <trkpt lat="44.40029" lon="5.58038">
        <ele>1022.4</ele>
        <time>2021-09-07T14:51:50Z</time>
      </trkpt>
      <trkpt lat="44.40029" lon="5.5804">
        <ele>1022.5</ele>
        <time>2021-09-07T14:51:51Z</time>
      </trkpt>
      <trkpt lat="44.40029" lon="5.58043">
        <ele>1022.6</ele>
        <time>2021-09-07T14:51:52Z</time>
      </trkpt>
      <trkpt lat="44.40029" lon="5.58045">
        <ele>1022.7</ele>
        <time>2021-09-07T14:51:53Z</time>
      </trkpt>
      <trkpt lat="44.40028" lon="5.58047">
        <ele>1022.8</ele>
        <time>2021-09-07T14:51:54Z</time>
      </trkpt>
      <trkpt lat="44.40028" lon="5.58051">
        <ele>1022.9</ele>
        <time>2021-09-07T14:51:55Z</time>
      </trkpt>
      <trkpt lat="44.40027" lon="5.58054">
        <ele>1023</ele>
        <time>2021-09-07T14:51:56Z</time>
      </trkpt>
      <trkpt lat="44.40027" lon="5.58056">
        <ele>1023.1</ele>
        <time>2021-09-07T14:51:57Z</time>
      </trkpt>
      <trkpt lat="44.40026" lon="5.58057">
        <ele>1023.2</ele>
        <time>2021-09-07T14:51:58Z</time>
      </trkpt>
      <trkpt lat="44.40024" lon="5.58062">
        <ele>1023.4</ele>
        <time>2021-09-07T14:51:59Z</time>
      </trkpt>
      <trkpt lat="44.40024" lon="5.58064">
        <ele>1023.5</ele>
        <time>2021-09-07T14:52:00Z</time>
      </trkpt>
      <trkpt lat="44.40023" lon="5.58065">
        <ele>1023.6</ele>
        <time>2021-09-07T14:52:01Z</time>
      </trkpt>
      <trkpt lat="44.40021" lon="5.58067">
        <ele>1023.7</ele>
        <time>2021-09-07T14:52:02Z</time>
      </trkpt>
      <trkpt lat="44.40019" lon="5.58071">
        <ele>1023.9</ele>
        <time>2021-09-07T14:52:03Z</time>
      </trkpt>
      <trkpt lat="44.40018" lon="5.58073">
        <ele>1024</ele>
        <time>2021-09-07T14:52:04Z</time>
      </trkpt>
      <trkpt lat="44.40017" lon="5.58075">
        <ele>1024.1</ele>
        <time>2021-09-07T14:52:05Z</time>
      </trkpt>
      <trkpt lat="44.40016" lon="5.58077">
        <ele>1024.2</ele>
        <time>2021-09-07T14:52:06Z</time>
      </trkpt>
      <trkpt lat="44.40014" lon="5.58082">
        <ele>1024.5</ele>
        <time>2021-09-07T14:52:07Z</time>
      </trkpt>
      <trkpt lat="44.40013" lon="5.58084">
        <ele>1024.5</ele>
        <time>2021-09-07T14:52:08Z</time>
      </trkpt>
      <trkpt lat="44.40012" lon="5.58085">
        <ele>1024.6</ele>
        <time>2021-09-07T14:52:09Z</time>
      </trkpt>
      <trkpt lat="44.40012" lon="5.58089">
        <ele>1024.8</ele>
        <time>2021-09-07T14:52:10Z</time>
      </trkpt>
      <trkpt lat="44.40011" lon="5.58092">
        <ele>1024.9</ele>
        <time>2021-09-07T14:52:11Z</time>
      </trkpt>
      <trkpt lat="44.40012" lon="5.58094">
        <ele>1025</ele>
        <time>2021-09-07T14:52:12Z</time>
      </trkpt>
      <trkpt lat="44.40012" lon="5.58096">
        <ele>1025</ele>
        <time>2021-09-07T14:52:13Z</time>
      </trkpt>
      <trkpt lat="44.40013" lon="5.58098">
        <ele>1025.1</ele>
        <time>2021-09-07T14:52:14Z</time>
      </trkpt>
      <trkpt lat="44.40014" lon="5.581">
        <ele>1025.2</ele>
        <time>2021-09-07T14:52:15Z</time>
      </trkpt>
      <trkpt lat="44.40016" lon="5.58104">
        <ele>1025.4</ele>
        <time>2021-09-07T14:52:16Z</time>
      </trkpt>
      <trkpt lat="44.40017" lon="5.58105">
        <ele>1025.4</ele>
        <time>2021-09-07T14:52:17Z</time>
      </trkpt>
      <trkpt lat="44.40018" lon="5.58106">
        <ele>1025.5</ele>
        <time>2021-09-07T14:52:18Z</time>
      </trkpt>
      <trkpt lat="44.40019" lon="5.58107">
        <ele>1025.6</ele>
        <time>2021-09-07T14:52:19Z</time>
      </trkpt>
      <trkpt lat="44.4002" lon="5.58108">
        <ele>1025.6</ele>
        <time>2021-09-07T14:52:20Z</time>
      </trkpt>
      <trkpt lat="44.40023" lon="5.58111">
        <ele>1025.8</ele>
        <time>2021-09-07T14:52:21Z</time>
      </trkpt>
      <trkpt lat="44.40024" lon="5.58112">
        <ele>1025.8</ele>
        <time>2021-09-07T14:52:22Z</time>
      </trkpt>
      <trkpt lat="44.40024" lon="5.58113">
        <ele>1025.9</ele>
        <time>2021-09-07T14:52:23Z</time>
      </trkpt>
      <trkpt lat="44.40025" lon="5.58116">
        <ele>1026</ele>
        <time>2021-09-07T14:52:24Z</time>
      </trkpt>
      <trkpt lat="44.40025" lon="5.58119">
        <ele>1026.1</ele>
        <time>2021-09-07T14:52:25Z</time>
      </trkpt>
      <trkpt lat="44.40026" lon="5.58121">
        <ele>1026.1</ele>
        <time>2021-09-07T14:52:26Z</time>
      </trkpt>
      <trkpt lat="44.40027" lon="5.58123">
        <ele>1026.2</ele>
        <time>2021-09-07T14:52:27Z</time>
      </trkpt>
      <trkpt lat="44.40028" lon="5.58125">
        <ele>1026.3</ele>
        <time>2021-09-07T14:52:28Z</time>
      </trkpt>
      <trkpt lat="44.40028" lon="5.58127">
        <ele>1026.3</ele>
        <time>2021-09-07T14:52:29Z</time>
      </trkpt>
      <trkpt lat="44.40029" lon="5.5813">
        <ele>1026.4</ele>
        <time>2021-09-07T14:52:30Z</time>
      </trkpt>
      <trkpt lat="44.4003" lon="5.58133">
        <ele>1026.4</ele>
        <time>2021-09-07T14:52:31Z</time>
      </trkpt>
      <trkpt lat="44.40031" lon="5.58139">
        <ele>1026.5</ele>
        <time>2021-09-07T14:52:32Z</time>
      </trkpt>
      <trkpt lat="44.40032" lon="5.5814">
        <ele>1026.5</ele>
        <time>2021-09-07T14:52:33Z</time>
      </trkpt>
      <trkpt lat="44.40032" lon="5.58141">
        <ele>1026.6</ele>
        <time>2021-09-07T14:52:34Z</time>
      </trkpt>
      <trkpt lat="44.40032" lon="5.58144">
        <ele>1026.6</ele>
        <time>2021-09-07T14:52:35Z</time>
      </trkpt>
      <trkpt lat="44.40034" lon="5.58147">
        <ele>1026.7</ele>
        <time>2021-09-07T14:52:36Z</time>
      </trkpt>
      <trkpt lat="44.40035" lon="5.58149">
        <ele>1026.7</ele>
        <time>2021-09-07T14:52:37Z</time>
      </trkpt>
      <trkpt lat="44.40035" lon="5.58151">
        <ele>1026.7</ele>
        <time>2021-09-07T14:52:38Z</time>
      </trkpt>
      <trkpt lat="44.40036" lon="5.58154">
        <ele>1026.8</ele>
        <time>2021-09-07T14:52:39Z</time>
      </trkpt>
      <trkpt lat="44.40037" lon="5.58157">
        <ele>1026.8</ele>
        <time>2021-09-07T14:52:40Z</time>
      </trkpt>
      <trkpt lat="44.40037" lon="5.58159">
        <ele>1026.9</ele>
        <time>2021-09-07T14:52:41Z</time>
      </trkpt>
      <trkpt lat="44.40038" lon="5.58162">
        <ele>1027</ele>
        <time>2021-09-07T14:52:42Z</time>
      </trkpt>
      <trkpt lat="44.40039" lon="5.58164">
        <ele>1027</ele>
        <time>2021-09-07T14:52:43Z</time>
      </trkpt>
      <trkpt lat="44.40041" lon="5.5817">
        <ele>1027.2</ele>
        <time>2021-09-07T14:52:44Z</time>
      </trkpt>
      <trkpt lat="44.40042" lon="5.58172">
        <ele>1027.3</ele>
        <time>2021-09-07T14:52:45Z</time>
      </trkpt>
      <trkpt lat="44.40043" lon="5.58174">
        <ele>1027.4</ele>
        <time>2021-09-07T14:52:46Z</time>
      </trkpt>
      <trkpt lat="44.40044" lon="5.58177">
        <ele>1027.5</ele>
        <time>2021-09-07T14:52:47Z</time>
      </trkpt>
      <trkpt lat="44.40045" lon="5.5818">
        <ele>1027.6</ele>
        <time>2021-09-07T14:52:48Z</time>
      </trkpt>
      <trkpt lat="44.40046" lon="5.58183">
        <ele>1027.7</ele>
        <time>2021-09-07T14:52:49Z</time>
      </trkpt>
      <trkpt lat="44.40047" lon="5.58186">
        <ele>1027.8</ele>
        <time>2021-09-07T14:52:50Z</time>
      </trkpt>
      <trkpt lat="44.40048" lon="5.58189">
        <ele>1027.9</ele>
        <time>2021-09-07T14:52:51Z</time>
      </trkpt>
      <trkpt lat="44.40049" lon="5.58192">
        <ele>1028</ele>
        <time>2021-09-07T14:52:52Z</time>
      </trkpt>
      <trkpt lat="44.40049" lon="5.58194">
        <ele>1028.1</ele>
        <time>2021-09-07T14:52:53Z</time>
      </trkpt>
      <trkpt lat="44.4005" lon="5.58198">
        <ele>1028.3</ele>
        <time>2021-09-07T14:52:54Z</time>
      </trkpt>
      <trkpt lat="44.4005" lon="5.58199">
        <ele>1028.3</ele>
        <time>2021-09-07T14:52:55Z</time>
      </trkpt>
      <trkpt lat="44.4005" lon="5.582">
        <ele>1028.3</ele>
        <time>2021-09-07T14:52:56Z</time>
      </trkpt>
      <trkpt lat="44.4005" lon="5.58203">
        <ele>1028.4</ele>
        <time>2021-09-07T14:52:57Z</time>
      </trkpt>
      <trkpt lat="44.4005" lon="5.58204">
        <ele>1028.5</ele>
        <time>2021-09-07T14:52:58Z</time>
      </trkpt>
      <trkpt lat="44.4005" lon="5.58204">
        <ele>1028.5</ele>
        <time>2021-09-07T14:52:59Z</time>
      </trkpt>
      <trkpt lat="44.4005" lon="5.58206">
        <ele>1028.5</ele>
        <time>2021-09-07T14:53:00Z</time>
      </trkpt>
      <trkpt lat="44.4005" lon="5.58208">
        <ele>1028.6</ele>
        <time>2021-09-07T14:53:01Z</time>
      </trkpt>
      <trkpt lat="44.4005" lon="5.58211">
        <ele>1028.7</ele>
        <time>2021-09-07T14:53:02Z</time>
      </trkpt>
      <trkpt lat="44.4005" lon="5.58212">
        <ele>1028.8</ele>
        <time>2021-09-07T14:53:03Z</time>
      </trkpt>
      <trkpt lat="44.4005" lon="5.58214">
        <ele>1028.8</ele>
        <time>2021-09-07T14:53:04Z</time>
      </trkpt>
      <trkpt lat="44.4005" lon="5.58215">
        <ele>1028.9</ele>
        <time>2021-09-07T14:53:05Z</time>
      </trkpt>
      <trkpt lat="44.40049" lon="5.58217">
        <ele>1029</ele>
        <time>2021-09-07T14:53:06Z</time>
      </trkpt>
      <trkpt lat="44.40049" lon="5.58219">
        <ele>1029</ele>
        <time>2021-09-07T14:53:07Z</time>
      </trkpt>
      <trkpt lat="44.40048" lon="5.58221">
        <ele>1029.1</ele>
        <time>2021-09-07T14:53:08Z</time>
      </trkpt>
      <trkpt lat="44.40047" lon="5.58223">
        <ele>1029.2</ele>
        <time>2021-09-07T14:53:09Z</time>
      </trkpt>
      <trkpt lat="44.40047" lon="5.58225">
        <ele>1029.3</ele>
        <time>2021-09-07T14:53:10Z</time>
      </trkpt>
      <trkpt lat="44.40046" lon="5.58227">
        <ele>1029.4</ele>
        <time>2021-09-07T14:53:11Z</time>
      </trkpt>
      <trkpt lat="44.40046" lon="5.5823">
        <ele>1029.5</ele>
        <time>2021-09-07T14:53:12Z</time>
      </trkpt>
      <trkpt lat="44.40045" lon="5.58232">
        <ele>1029.5</ele>
        <time>2021-09-07T14:53:13Z</time>
      </trkpt>
      <trkpt lat="44.40044" lon="5.58235">
        <ele>1029.7</ele>
        <time>2021-09-07T14:53:14Z</time>
      </trkpt>
      <trkpt lat="44.40044" lon="5.58238">
        <ele>1029.7</ele>
        <time>2021-09-07T14:53:15Z</time>
      </trkpt>
      <trkpt lat="44.40043" lon="5.5824">
        <ele>1029.8</ele>
        <time>2021-09-07T14:53:16Z</time>
      </trkpt>
      <trkpt lat="44.40043" lon="5.58243">
        <ele>1029.9</ele>
        <time>2021-09-07T14:53:17Z</time>
      </trkpt>
      <trkpt lat="44.40042" lon="5.58246">
        <ele>1030</ele>
        <time>2021-09-07T14:53:18Z</time>
      </trkpt>
      <trkpt lat="44.40041" lon="5.58249">
        <ele>1030.1</ele>
        <time>2021-09-07T14:53:19Z</time>
      </trkpt>
      <trkpt lat="44.4004" lon="5.58252">
        <ele>1030.3</ele>
        <time>2021-09-07T14:53:20Z</time>
      </trkpt>
      <trkpt lat="44.4004" lon="5.58255">
        <ele>1030.4</ele>
        <time>2021-09-07T14:53:21Z</time>
      </trkpt>
      <trkpt lat="44.40039" lon="5.58258">
        <ele>1030.5</ele>
        <time>2021-09-07T14:53:22Z</time>
      </trkpt>
      <trkpt lat="44.40038" lon="5.5826">
        <ele>1030.5</ele>
        <time>2021-09-07T14:53:23Z</time>
      </trkpt>
      <trkpt lat="44.40037" lon="5.58262">
        <ele>1030.6</ele>
        <time>2021-09-07T14:53:24Z</time>
      </trkpt>
      <trkpt lat="44.40035" lon="5.58264">
        <ele>1030.8</ele>
        <time>2021-09-07T14:53:25Z</time>
      </trkpt>
      <trkpt lat="44.40034" lon="5.58266">
        <ele>1030.8</ele>
        <time>2021-09-07T14:53:26Z</time>
      </trkpt>
      <trkpt lat="44.40032" lon="5.58269">
        <ele>1031</ele>
        <time>2021-09-07T14:53:27Z</time>
      </trkpt>
      <trkpt lat="44.40031" lon="5.58272">
        <ele>1031.1</ele>
        <time>2021-09-07T14:53:28Z</time>
      </trkpt>
      <trkpt lat="44.4003" lon="5.58274">
        <ele>1031.2</ele>
        <time>2021-09-07T14:53:29Z</time>
      </trkpt>
      <trkpt lat="44.40029" lon="5.58275">
        <ele>1031.3</ele>
        <time>2021-09-07T14:53:30Z</time>
      </trkpt>
      <trkpt lat="44.40028" lon="5.58278">
        <ele>1031.4</ele>
        <time>2021-09-07T14:53:31Z</time>
      </trkpt>
      <trkpt lat="44.40026" lon="5.5828">
        <ele>1031.5</ele>
        <time>2021-09-07T14:53:32Z</time>
      </trkpt>
      <trkpt lat="44.40025" lon="5.58283">
        <ele>1031.6</ele>
        <time>2021-09-07T14:53:33Z</time>
      </trkpt>
      <trkpt lat="44.40024" lon="5.58286">
        <ele>1031.7</ele>
        <time>2021-09-07T14:53:34Z</time>
      </trkpt>
      <trkpt lat="44.40023" lon="5.58289">
        <ele>1031.8</ele>
        <time>2021-09-07T14:53:35Z</time>
      </trkpt>
      <trkpt lat="44.40022" lon="5.58292">
        <ele>1031.9</ele>
        <time>2021-09-07T14:53:36Z</time>
      </trkpt>
      <trkpt lat="44.40021" lon="5.58295">
        <ele>1032</ele>
        <time>2021-09-07T14:53:37Z</time>
      </trkpt>
      <trkpt lat="44.4002" lon="5.58298">
        <ele>1032.1</ele>
        <time>2021-09-07T14:53:38Z</time>
      </trkpt>
      <trkpt lat="44.40019" lon="5.58301">
        <ele>1032.2</ele>
        <time>2021-09-07T14:53:39Z</time>
      </trkpt>
      <trkpt lat="44.40017" lon="5.58304">
        <ele>1032.3</ele>
        <time>2021-09-07T14:53:40Z</time>
      </trkpt>
      <trkpt lat="44.40016" lon="5.58306">
        <ele>1032.3</ele>
        <time>2021-09-07T14:53:41Z</time>
      </trkpt>
      <trkpt lat="44.40014" lon="5.58308">
        <ele>1032.4</ele>
        <time>2021-09-07T14:53:42Z</time>
      </trkpt>
      <trkpt lat="44.40012" lon="5.5831">
        <ele>1032.5</ele>
        <time>2021-09-07T14:53:43Z</time>
      </trkpt>
      <trkpt lat="44.4001" lon="5.58312">
        <ele>1032.6</ele>
        <time>2021-09-07T14:53:44Z</time>
      </trkpt>
      <trkpt lat="44.40009" lon="5.58315">
        <ele>1032.7</ele>
        <time>2021-09-07T14:53:45Z</time>
      </trkpt>
      <trkpt lat="44.40007" lon="5.58317">
        <ele>1032.8</ele>
        <time>2021-09-07T14:53:46Z</time>
      </trkpt>
      <trkpt lat="44.40005" lon="5.5832">
        <ele>1032.9</ele>
        <time>2021-09-07T14:53:47Z</time>
      </trkpt>
      <trkpt lat="44.40004" lon="5.58322">
        <ele>1033</ele>
        <time>2021-09-07T14:53:48Z</time>
      </trkpt>
      <trkpt lat="44.40003" lon="5.58324">
        <ele>1033.1</ele>
        <time>2021-09-07T14:53:49Z</time>
      </trkpt>
      <trkpt lat="44.40002" lon="5.58326">
        <ele>1033.2</ele>
        <time>2021-09-07T14:53:50Z</time>
      </trkpt>
      <trkpt lat="44.40001" lon="5.58328">
        <ele>1033.3</ele>
        <time>2021-09-07T14:53:51Z</time>
      </trkpt>
      <trkpt lat="44.4" lon="5.5833">
        <ele>1033.4</ele>
        <time>2021-09-07T14:53:52Z</time>
      </trkpt>
      <trkpt lat="44.39998" lon="5.58332">
        <ele>1033.5</ele>
        <time>2021-09-07T14:53:53Z</time>
      </trkpt>
      <trkpt lat="44.39997" lon="5.58334">
        <ele>1033.6</ele>
        <time>2021-09-07T14:53:54Z</time>
      </trkpt>
      <trkpt lat="44.39996" lon="5.58336">
        <ele>1033.7</ele>
        <time>2021-09-07T14:53:55Z</time>
      </trkpt>
      <trkpt lat="44.39995" lon="5.58337">
        <ele>1033.8</ele>
        <time>2021-09-07T14:53:56Z</time>
      </trkpt>
      <trkpt lat="44.39994" lon="5.58339">
        <ele>1033.9</ele>
        <time>2021-09-07T14:53:57Z</time>
      </trkpt>
      <trkpt lat="44.39992" lon="5.5834">
        <ele>1034.1</ele>
        <time>2021-09-07T14:53:58Z</time>
      </trkpt>
      <trkpt lat="44.39988" lon="5.58346">
        <ele>1034.4</ele>
        <time>2021-09-07T14:53:59Z</time>
      </trkpt>
      <trkpt lat="44.39987" lon="5.58348">
        <ele>1034.5</ele>
        <time>2021-09-07T14:54:00Z</time>
      </trkpt>
      <trkpt lat="44.39986" lon="5.5835">
        <ele>1034.6</ele>
        <time>2021-09-07T14:54:01Z</time>
      </trkpt>
      <trkpt lat="44.39985" lon="5.58353">
        <ele>1034.8</ele>
        <time>2021-09-07T14:54:02Z</time>
      </trkpt>
      <trkpt lat="44.39984" lon="5.58356">
        <ele>1034.9</ele>
        <time>2021-09-07T14:54:03Z</time>
      </trkpt>
      <trkpt lat="44.39984" lon="5.58358">
        <ele>1035</ele>
        <time>2021-09-07T14:54:04Z</time>
      </trkpt>
      <trkpt lat="44.39984" lon="5.5836">
        <ele>1035</ele>
        <time>2021-09-07T14:54:05Z</time>
      </trkpt>
      <trkpt lat="44.39983" lon="5.58361">
        <ele>1035.1</ele>
        <time>2021-09-07T14:54:06Z</time>
      </trkpt>
      <trkpt lat="44.39983" lon="5.58363">
        <ele>1035.2</ele>
        <time>2021-09-07T14:54:07Z</time>
      </trkpt>
      <trkpt lat="44.39983" lon="5.58366">
        <ele>1035.3</ele>
        <time>2021-09-07T14:54:08Z</time>
      </trkpt>
      <trkpt lat="44.39983" lon="5.58368">
        <ele>1035.4</ele>
        <time>2021-09-07T14:54:09Z</time>
      </trkpt>
      <trkpt lat="44.39983" lon="5.58371">
        <ele>1035.4</ele>
        <time>2021-09-07T14:54:10Z</time>
      </trkpt>
      <trkpt lat="44.39983" lon="5.58373">
        <ele>1035.5</ele>
        <time>2021-09-07T14:54:11Z</time>
      </trkpt>
      <trkpt lat="44.39983" lon="5.58376">
        <ele>1035.7</ele>
        <time>2021-09-07T14:54:12Z</time>
      </trkpt>
      <trkpt lat="44.39982" lon="5.58379">
        <ele>1035.8</ele>
        <time>2021-09-07T14:54:13Z</time>
      </trkpt>
      <trkpt lat="44.39982" lon="5.58382">
        <ele>1035.9</ele>
        <time>2021-09-07T14:54:14Z</time>
      </trkpt>
      <trkpt lat="44.39982" lon="5.58385">
        <ele>1036</ele>
        <time>2021-09-07T14:54:15Z</time>
      </trkpt>
      <trkpt lat="44.39982" lon="5.58388">
        <ele>1037.1</ele>
        <time>2021-09-07T14:54:16Z</time>
      </trkpt>
      <trkpt lat="44.39983" lon="5.58392">
        <ele>1037.2</ele>
        <time>2021-09-07T14:54:17Z</time>
      </trkpt>
      <trkpt lat="44.39983" lon="5.58395">
        <ele>1037.3</ele>
        <time>2021-09-07T14:54:18Z</time>
      </trkpt>
      <trkpt lat="44.39984" lon="5.58402">
        <ele>1037.6</ele>
        <time>2021-09-07T14:54:19Z</time>
      </trkpt>
      <trkpt lat="44.39985" lon="5.58405">
        <ele>1037.7</ele>
        <time>2021-09-07T14:54:20Z</time>
      </trkpt>
      <trkpt lat="44.39986" lon="5.58407">
        <ele>1037.9</ele>
        <time>2021-09-07T14:54:21Z</time>
      </trkpt>
      <trkpt lat="44.39987" lon="5.5841">
        <ele>1038</ele>
        <time>2021-09-07T14:54:22Z</time>
      </trkpt>
      <trkpt lat="44.39988" lon="5.58414">
        <ele>1038.2</ele>
        <time>2021-09-07T14:54:23Z</time>
      </trkpt>
      <trkpt lat="44.39989" lon="5.58417">
        <ele>1038.4</ele>
        <time>2021-09-07T14:54:24Z</time>
      </trkpt>
      <trkpt lat="44.39991" lon="5.58421">
        <ele>1038.6</ele>
        <time>2021-09-07T14:54:25Z</time>
      </trkpt>
      <trkpt lat="44.39993" lon="5.58424">
        <ele>1038.8</ele>
        <time>2021-09-07T14:54:26Z</time>
      </trkpt>
      <trkpt lat="44.39994" lon="5.58426">
        <ele>1038.9</ele>
        <time>2021-09-07T14:54:27Z</time>
      </trkpt>
      <trkpt lat="44.39995" lon="5.58428">
        <ele>1039</ele>
        <time>2021-09-07T14:54:28Z</time>
      </trkpt>
      <trkpt lat="44.39996" lon="5.58432">
        <ele>1039.2</ele>
        <time>2021-09-07T14:54:29Z</time>
      </trkpt>
      <trkpt lat="44.39997" lon="5.58435">
        <ele>1039.3</ele>
        <time>2021-09-07T14:54:30Z</time>
      </trkpt>
      <trkpt lat="44.39998" lon="5.58438">
        <ele>1039.5</ele>
        <time>2021-09-07T14:54:31Z</time>
      </trkpt>
      <trkpt lat="44.39999" lon="5.58441">
        <ele>1039.6</ele>
        <time>2021-09-07T14:54:32Z</time>
      </trkpt>
      <trkpt lat="44.4" lon="5.58445">
        <ele>1039.7</ele>
        <time>2021-09-07T14:54:33Z</time>
      </trkpt>
      <trkpt lat="44.40001" lon="5.58448">
        <ele>1039.8</ele>
        <time>2021-09-07T14:54:34Z</time>
      </trkpt>
      <trkpt lat="44.40002" lon="5.58451">
        <ele>1039.9</ele>
        <time>2021-09-07T14:54:35Z</time>
      </trkpt>
      <trkpt lat="44.40002" lon="5.58453">
        <ele>1040</ele>
        <time>2021-09-07T14:54:36Z</time>
      </trkpt>
      <trkpt lat="44.40004" lon="5.5846">
        <ele>1040.1</ele>
        <time>2021-09-07T14:54:37Z</time>
      </trkpt>
      <trkpt lat="44.40005" lon="5.58462">
        <ele>1040.2</ele>
        <time>2021-09-07T14:54:38Z</time>
      </trkpt>
      <trkpt lat="44.40005" lon="5.58464">
        <ele>1040.2</ele>
        <time>2021-09-07T14:54:39Z</time>
      </trkpt>
      <trkpt lat="44.40007" lon="5.5847">
        <ele>1040.3</ele>
        <time>2021-09-07T14:54:40Z</time>
      </trkpt>
      <trkpt lat="44.40008" lon="5.58474">
        <ele>1040.4</ele>
        <time>2021-09-07T14:54:41Z</time>
      </trkpt>
      <trkpt lat="44.40009" lon="5.58478">
        <ele>1040.4</ele>
        <time>2021-09-07T14:54:42Z</time>
      </trkpt>
      <trkpt lat="44.4001" lon="5.58481">
        <ele>1040.5</ele>
        <time>2021-09-07T14:54:43Z</time>
      </trkpt>
      <trkpt lat="44.4001" lon="5.58484">
        <ele>1040.5</ele>
        <time>2021-09-07T14:54:44Z</time>
      </trkpt>
      <trkpt lat="44.40012" lon="5.58489">
        <ele>1040.6</ele>
        <time>2021-09-07T14:54:45Z</time>
      </trkpt>
      <trkpt lat="44.40014" lon="5.58492">
        <ele>1040.7</ele>
        <time>2021-09-07T14:54:46Z</time>
      </trkpt>
      <trkpt lat="44.40015" lon="5.58495">
        <ele>1040.7</ele>
        <time>2021-09-07T14:54:47Z</time>
      </trkpt>
      <trkpt lat="44.40017" lon="5.58501">
        <ele>1040.8</ele>
        <time>2021-09-07T14:54:48Z</time>
      </trkpt>
      <trkpt lat="44.40019" lon="5.58504">
        <ele>1040.9</ele>
        <time>2021-09-07T14:54:49Z</time>
      </trkpt>
      <trkpt lat="44.4002" lon="5.58507">
        <ele>1040.9</ele>
        <time>2021-09-07T14:54:50Z</time>
      </trkpt>
      <trkpt lat="44.40022" lon="5.58511">
        <ele>1040.9</ele>
        <time>2021-09-07T14:54:51Z</time>
      </trkpt>
      <trkpt lat="44.40024" lon="5.58516">
        <ele>1041</ele>
        <time>2021-09-07T14:54:52Z</time>
      </trkpt>
      <trkpt lat="44.40026" lon="5.58519">
        <ele>1041</ele>
        <time>2021-09-07T14:54:53Z</time>
      </trkpt>
      <trkpt lat="44.40027" lon="5.58522">
        <ele>1041.1</ele>
        <time>2021-09-07T14:54:54Z</time>
      </trkpt>
      <trkpt lat="44.40029" lon="5.58528">
        <ele>1041.2</ele>
        <time>2021-09-07T14:54:55Z</time>
      </trkpt>
      <trkpt lat="44.40031" lon="5.58531">
        <ele>1041.3</ele>
        <time>2021-09-07T14:54:56Z</time>
      </trkpt>
      <trkpt lat="44.40032" lon="5.58534">
        <ele>1041.3</ele>
        <time>2021-09-07T14:54:57Z</time>
      </trkpt>
      <trkpt lat="44.40033" lon="5.58538">
        <ele>1041.4</ele>
        <time>2021-09-07T14:54:58Z</time>
      </trkpt>
      <trkpt lat="44.40035" lon="5.58541">
        <ele>1041.5</ele>
        <time>2021-09-07T14:54:59Z</time>
      </trkpt>
      <trkpt lat="44.40036" lon="5.58545">
        <ele>1041.6</ele>
        <time>2021-09-07T14:55:00Z</time>
      </trkpt>
      <trkpt lat="44.40037" lon="5.58548">
        <ele>1041.7</ele>
        <time>2021-09-07T14:55:01Z</time>
      </trkpt>
      <trkpt lat="44.40038" lon="5.58551">
        <ele>1041.8</ele>
        <time>2021-09-07T14:55:02Z</time>
      </trkpt>
      <trkpt lat="44.40039" lon="5.58553">
        <ele>1041.9</ele>
        <time>2021-09-07T14:55:03Z</time>
      </trkpt>
      <trkpt lat="44.4004" lon="5.58555">
        <ele>1041.9</ele>
        <time>2021-09-07T14:55:04Z</time>
      </trkpt>
      <trkpt lat="44.40042" lon="5.58559">
        <ele>1042</ele>
        <time>2021-09-07T14:55:05Z</time>
      </trkpt>
      <trkpt lat="44.40043" lon="5.58562">
        <ele>1042.1</ele>
        <time>2021-09-07T14:55:06Z</time>
      </trkpt>
      <trkpt lat="44.40044" lon="5.58564">
        <ele>1042.2</ele>
        <time>2021-09-07T14:55:07Z</time>
      </trkpt>
      <trkpt lat="44.40046" lon="5.58567">
        <ele>1042.3</ele>
        <time>2021-09-07T14:55:08Z</time>
      </trkpt>
      <trkpt lat="44.40047" lon="5.5857">
        <ele>1042.4</ele>
        <time>2021-09-07T14:55:09Z</time>
      </trkpt>
      <trkpt lat="44.40048" lon="5.58573">
        <ele>1042.5</ele>
        <time>2021-09-07T14:55:10Z</time>
      </trkpt>
      <trkpt lat="44.40049" lon="5.58575">
        <ele>1042.6</ele>
        <time>2021-09-07T14:55:11Z</time>
      </trkpt>
      <trkpt lat="44.40051" lon="5.58578">
        <ele>1042.8</ele>
        <time>2021-09-07T14:55:12Z</time>
      </trkpt>
      <trkpt lat="44.40052" lon="5.58581">
        <ele>1042.9</ele>
        <time>2021-09-07T14:55:13Z</time>
      </trkpt>
      <trkpt lat="44.40052" lon="5.58584">
        <ele>1043</ele>
        <time>2021-09-07T14:55:14Z</time>
      </trkpt>
      <trkpt lat="44.40053" lon="5.58588">
        <ele>1043.2</ele>
        <time>2021-09-07T14:55:15Z</time>
      </trkpt>
      <trkpt lat="44.40054" lon="5.58591">
        <ele>1043.3</ele>
        <time>2021-09-07T14:55:16Z</time>
      </trkpt>
      <trkpt lat="44.40055" lon="5.58595">
        <ele>1043.5</ele>
        <time>2021-09-07T14:55:17Z</time>
      </trkpt>
      <trkpt lat="44.40056" lon="5.58601">
        <ele>1043.8</ele>
        <time>2021-09-07T14:55:18Z</time>
      </trkpt>
      <trkpt lat="44.40056" lon="5.58603">
        <ele>1043.9</ele>
        <time>2021-09-07T14:55:19Z</time>
      </trkpt>
      <trkpt lat="44.40056" lon="5.58604">
        <ele>1044</ele>
        <time>2021-09-07T14:55:20Z</time>
      </trkpt>
      <trkpt lat="44.40056" lon="5.58608">
        <ele>1044.2</ele>
        <time>2021-09-07T14:55:21Z</time>
      </trkpt>
      <trkpt lat="44.40057" lon="5.5861">
        <ele>1044.3</ele>
        <time>2021-09-07T14:55:22Z</time>
      </trkpt>
      <trkpt lat="44.40057" lon="5.58612">
        <ele>1044.4</ele>
        <time>2021-09-07T14:55:23Z</time>
      </trkpt>
      <trkpt lat="44.40057" lon="5.58615">
        <ele>1044.5</ele>
        <time>2021-09-07T14:55:24Z</time>
      </trkpt>
      <trkpt lat="44.40057" lon="5.58617">
        <ele>1044.6</ele>
        <time>2021-09-07T14:55:25Z</time>
      </trkpt>
      <trkpt lat="44.40058" lon="5.5862">
        <ele>1044.8</ele>
        <time>2021-09-07T14:55:26Z</time>
      </trkpt>
      <trkpt lat="44.40058" lon="5.58622">
        <ele>1044.9</ele>
        <time>2021-09-07T14:55:27Z</time>
      </trkpt>
      <trkpt lat="44.40058" lon="5.58625">
        <ele>1045</ele>
        <time>2021-09-07T14:55:28Z</time>
      </trkpt>
      <trkpt lat="44.40058" lon="5.58628">
        <ele>1045.1</ele>
        <time>2021-09-07T14:55:29Z</time>
      </trkpt>
      <trkpt lat="44.40058" lon="5.5863">
        <ele>1045.2</ele>
        <time>2021-09-07T14:55:30Z</time>
      </trkpt>
      <trkpt lat="44.40058" lon="5.58635">
        <ele>1045.4</ele>
        <time>2021-09-07T14:55:31Z</time>
      </trkpt>
      <trkpt lat="44.40058" lon="5.58637">
        <ele>1045.5</ele>
        <time>2021-09-07T14:55:32Z</time>
      </trkpt>
      <trkpt lat="44.40058" lon="5.58638">
        <ele>1045.6</ele>
        <time>2021-09-07T14:55:33Z</time>
      </trkpt>
      <trkpt lat="44.40058" lon="5.58641">
        <ele>1045.7</ele>
        <time>2021-09-07T14:55:34Z</time>
      </trkpt>
      <trkpt lat="44.40058" lon="5.58643">
        <ele>1045.8</ele>
        <time>2021-09-07T14:55:35Z</time>
      </trkpt>
      <trkpt lat="44.40057" lon="5.58645">
        <ele>1045.8</ele>
        <time>2021-09-07T14:55:36Z</time>
      </trkpt>
      <trkpt lat="44.40056" lon="5.58647">
        <ele>1045.9</ele>
        <time>2021-09-07T14:55:37Z</time>
      </trkpt>
      <trkpt lat="44.40056" lon="5.58649">
        <ele>1046</ele>
        <time>2021-09-07T14:55:38Z</time>
      </trkpt>
      <trkpt lat="44.40055" lon="5.58651">
        <ele>1046.1</ele>
        <time>2021-09-07T14:55:39Z</time>
      </trkpt>
      <trkpt lat="44.40054" lon="5.58654">
        <ele>1046.2</ele>
        <time>2021-09-07T14:55:40Z</time>
      </trkpt>
      <trkpt lat="44.40053" lon="5.58657">
        <ele>1046.3</ele>
        <time>2021-09-07T14:55:41Z</time>
      </trkpt>
      <trkpt lat="44.40052" lon="5.5866">
        <ele>1046.3</ele>
        <time>2021-09-07T14:55:42Z</time>
      </trkpt>
      <trkpt lat="44.40052" lon="5.58663">
        <ele>1046.4</ele>
        <time>2021-09-07T14:55:43Z</time>
      </trkpt>
      <trkpt lat="44.40051" lon="5.58666">
        <ele>1046.5</ele>
        <time>2021-09-07T14:55:44Z</time>
      </trkpt>
      <trkpt lat="44.4005" lon="5.58672">
        <ele>1046.6</ele>
        <time>2021-09-07T14:55:45Z</time>
      </trkpt>
      <trkpt lat="44.4005" lon="5.58674">
        <ele>1046.6</ele>
        <time>2021-09-07T14:55:46Z</time>
      </trkpt>
      <trkpt lat="44.40049" lon="5.58676">
        <ele>1046.7</ele>
        <time>2021-09-07T14:55:47Z</time>
      </trkpt>
      <trkpt lat="44.40049" lon="5.58679">
        <ele>1046.7</ele>
        <time>2021-09-07T14:55:48Z</time>
      </trkpt>
      <trkpt lat="44.40048" lon="5.58682">
        <ele>1046.7</ele>
        <time>2021-09-07T14:55:49Z</time>
      </trkpt>
      <trkpt lat="44.40047" lon="5.58685">
        <ele>1046.8</ele>
        <time>2021-09-07T14:55:50Z</time>
      </trkpt>
      <trkpt lat="44.40045" lon="5.58688">
        <ele>1046.8</ele>
        <time>2021-09-07T14:55:51Z</time>
      </trkpt>
      <trkpt lat="44.40045" lon="5.5869">
        <ele>1046.8</ele>
        <time>2021-09-07T14:55:52Z</time>
      </trkpt>
      <trkpt lat="44.40044" lon="5.58692">
        <ele>1046.8</ele>
        <time>2021-09-07T14:55:53Z</time>
      </trkpt>
      <trkpt lat="44.40042" lon="5.58696">
        <ele>1046.9</ele>
        <time>2021-09-07T14:55:54Z</time>
      </trkpt>
      <trkpt lat="44.40041" lon="5.587">
        <ele>1046.9</ele>
        <time>2021-09-07T14:55:55Z</time>
      </trkpt>
      <trkpt lat="44.4004" lon="5.58704">
        <ele>1047</ele>
        <time>2021-09-07T14:55:56Z</time>
      </trkpt>
      <trkpt lat="44.40039" lon="5.58707">
        <ele>1047</ele>
        <time>2021-09-07T14:55:57Z</time>
      </trkpt>
      <trkpt lat="44.40039" lon="5.58711">
        <ele>1047</ele>
        <time>2021-09-07T14:55:58Z</time>
      </trkpt>
      <trkpt lat="44.40038" lon="5.58716">
        <ele>1047.1</ele>
        <time>2021-09-07T14:55:59Z</time>
      </trkpt>
      <trkpt lat="44.40038" lon="5.5872">
        <ele>1047.1</ele>
        <time>2021-09-07T14:56:00Z</time>
      </trkpt>
      <trkpt lat="44.40038" lon="5.58723">
        <ele>1047.2</ele>
        <time>2021-09-07T14:56:01Z</time>
      </trkpt>
      <trkpt lat="44.40038" lon="5.58727">
        <ele>1047.2</ele>
        <time>2021-09-07T14:56:02Z</time>
      </trkpt>
      <trkpt lat="44.40037" lon="5.5873">
        <ele>1047.2</ele>
        <time>2021-09-07T14:56:03Z</time>
      </trkpt>
      <trkpt lat="44.40037" lon="5.58734">
        <ele>1047.2</ele>
        <time>2021-09-07T14:56:04Z</time>
      </trkpt>
      <trkpt lat="44.40036" lon="5.58738">
        <ele>1047.2</ele>
        <time>2021-09-07T14:56:05Z</time>
      </trkpt>
      <trkpt lat="44.40036" lon="5.58745">
        <ele>1047.1</ele>
        <time>2021-09-07T14:56:06Z</time>
      </trkpt>
      <trkpt lat="44.40036" lon="5.58749">
        <ele>1047.1</ele>
        <time>2021-09-07T14:56:07Z</time>
      </trkpt>
      <trkpt lat="44.40035" lon="5.58753">
        <ele>1047</ele>
        <time>2021-09-07T14:56:08Z</time>
      </trkpt>
      <trkpt lat="44.40034" lon="5.58761">
        <ele>1046.9</ele>
        <time>2021-09-07T14:56:09Z</time>
      </trkpt>
      <trkpt lat="44.40034" lon="5.58766">
        <ele>1046.9</ele>
        <time>2021-09-07T14:56:10Z</time>
      </trkpt>
      <trkpt lat="44.40033" lon="5.5877">
        <ele>1046.9</ele>
        <time>2021-09-07T14:56:11Z</time>
      </trkpt>
      <trkpt lat="44.40031" lon="5.58778">
        <ele>1046.8</ele>
        <time>2021-09-07T14:56:12Z</time>
      </trkpt>
      <trkpt lat="44.40031" lon="5.58781">
        <ele>1046.7</ele>
        <time>2021-09-07T14:56:13Z</time>
      </trkpt>
      <trkpt lat="44.4003" lon="5.58784">
        <ele>1046.7</ele>
        <time>2021-09-07T14:56:14Z</time>
      </trkpt>
      <trkpt lat="44.40029" lon="5.58788">
        <ele>1046.7</ele>
        <time>2021-09-07T14:56:15Z</time>
      </trkpt>
      <trkpt lat="44.40029" lon="5.58793">
        <ele>1046.7</ele>
        <time>2021-09-07T14:56:16Z</time>
      </trkpt>
      <trkpt lat="44.40029" lon="5.58797">
        <ele>1046.7</ele>
        <time>2021-09-07T14:56:17Z</time>
      </trkpt>
      <trkpt lat="44.40028" lon="5.588">
        <ele>1046.7</ele>
        <time>2021-09-07T14:56:18Z</time>
      </trkpt>
      <trkpt lat="44.40029" lon="5.58804">
        <ele>1046.7</ele>
        <time>2021-09-07T14:56:19Z</time>
      </trkpt>
      <trkpt lat="44.40029" lon="5.58807">
        <ele>1046.8</ele>
        <time>2021-09-07T14:56:20Z</time>
      </trkpt>
      <trkpt lat="44.40029" lon="5.58812">
        <ele>1046.9</ele>
        <time>2021-09-07T14:56:21Z</time>
      </trkpt>
      <trkpt lat="44.4003" lon="5.58814">
        <ele>1046.9</ele>
        <time>2021-09-07T14:56:22Z</time>
      </trkpt>
      <trkpt lat="44.4003" lon="5.58816">
        <ele>1046.9</ele>
        <time>2021-09-07T14:56:23Z</time>
      </trkpt>
      <trkpt lat="44.4003" lon="5.58817">
        <ele>1047</ele>
        <time>2021-09-07T14:56:24Z</time>
      </trkpt>
      <trkpt lat="44.4003" lon="5.5882">
        <ele>1047</ele>
        <time>2021-09-07T14:56:25Z</time>
      </trkpt>
      <trkpt lat="44.4003" lon="5.58822">
        <ele>1047</ele>
        <time>2021-09-07T14:56:26Z</time>
      </trkpt>
      <trkpt lat="44.40031" lon="5.58826">
        <ele>1047.1</ele>
        <time>2021-09-07T14:56:27Z</time>
      </trkpt>
      <trkpt lat="44.40032" lon="5.58828">
        <ele>1047.1</ele>
        <time>2021-09-07T14:56:28Z</time>
      </trkpt>
      <trkpt lat="44.40033" lon="5.58829">
        <ele>1047.2</ele>
        <time>2021-09-07T14:56:29Z</time>
      </trkpt>
      <trkpt lat="44.40034" lon="5.58831">
        <ele>1047.3</ele>
        <time>2021-09-07T14:56:30Z</time>
      </trkpt>
      <trkpt lat="44.40035" lon="5.58833">
        <ele>1047.3</ele>
        <time>2021-09-07T14:56:31Z</time>
      </trkpt>
      <trkpt lat="44.40035" lon="5.58834">
        <ele>1047.3</ele>
        <time>2021-09-07T14:56:32Z</time>
      </trkpt>
      <trkpt lat="44.40035" lon="5.58837">
        <ele>1047.5</ele>
        <time>2021-09-07T14:56:33Z</time>
      </trkpt>
      <trkpt lat="44.40036" lon="5.58838">
        <ele>1047.5</ele>
        <time>2021-09-07T14:56:34Z</time>
      </trkpt>
      <trkpt lat="44.40036" lon="5.58839">
        <ele>1047.6</ele>
        <time>2021-09-07T14:56:35Z</time>
      </trkpt>
      <trkpt lat="44.40036" lon="5.58841">
        <ele>1047.7</ele>
        <time>2021-09-07T14:56:36Z</time>
      </trkpt>
      <trkpt lat="44.40036" lon="5.58843">
        <ele>1047.8</ele>
        <time>2021-09-07T14:56:37Z</time>
      </trkpt>
      <trkpt lat="44.40036" lon="5.58845">
        <ele>1047.8</ele>
        <time>2021-09-07T14:56:38Z</time>
      </trkpt>
      <trkpt lat="44.40036" lon="5.58846">
        <ele>1047.9</ele>
        <time>2021-09-07T14:56:39Z</time>
      </trkpt>
      <trkpt lat="44.40036" lon="5.58848">
        <ele>1048</ele>
        <time>2021-09-07T14:56:40Z</time>
      </trkpt>
      <trkpt lat="44.40036" lon="5.58848">
        <ele>1048</ele>
        <time>2021-09-07T14:56:41Z</time>
      </trkpt>
      <trkpt lat="44.40037" lon="5.58848">
        <ele>1048.1</ele>
        <time>2021-09-07T14:56:42Z</time>
      </trkpt>
      <trkpt lat="44.40038" lon="5.58848">
        <ele>1048.2</ele>
        <time>2021-09-07T14:56:43Z</time>
      </trkpt>
      <trkpt lat="44.40038" lon="5.58848">
        <ele>1048.2</ele>
        <time>2021-09-07T14:56:44Z</time>
      </trkpt>
      <trkpt lat="44.40038" lon="5.58849">
        <ele>1048.3</ele>
        <time>2021-09-07T14:56:45Z</time>
      </trkpt>
      <trkpt lat="44.40039" lon="5.58849">
        <ele>1048.3</ele>
        <time>2021-09-07T14:56:46Z</time>
      </trkpt>
      <trkpt lat="44.40039" lon="5.58849">
        <ele>1048.4</ele>
        <time>2021-09-07T14:56:47Z</time>
      </trkpt>
      <trkpt lat="44.40039" lon="5.58849">
        <ele>1048.4</ele>
        <time>2021-09-07T14:56:48Z</time>
      </trkpt>
      <trkpt lat="44.40039" lon="5.58849">
        <ele>1048.4</ele>
        <time>2021-09-07T14:56:49Z</time>
      </trkpt>
      <trkpt lat="44.40039" lon="5.58849">
        <ele>1048.4</ele>
        <time>2021-09-07T14:56:50Z</time>
      </trkpt>
      <trkpt lat="44.4004" lon="5.5885">
        <ele>1048.5</ele>
        <time>2021-09-07T14:56:51Z</time>
      </trkpt>
      <trkpt lat="44.4004" lon="5.5885">
        <ele>1048.5</ele>
        <time>2021-09-07T14:56:52Z</time>
      </trkpt>
      <trkpt lat="44.4004" lon="5.5885">
        <ele>1048.5</ele>
        <time>2021-09-07T14:56:53Z</time>
      </trkpt>
      <trkpt lat="44.4004" lon="5.5885">
        <ele>1048.5</ele>
        <time>2021-09-07T14:56:54Z</time>
      </trkpt>
      <trkpt lat="44.4004" lon="5.5885">
        <ele>1048.5</ele>
        <time>2021-09-07T14:56:55Z</time>
      </trkpt>
      <trkpt lat="44.4004" lon="5.5885">
        <ele>1048.5</ele>
        <time>2021-09-07T14:56:56Z</time>
      </trkpt>
      <trkpt lat="44.4004" lon="5.5885">
        <ele>1048.5</ele>
        <time>2021-09-07T14:56:57Z</time>
      </trkpt>
      <trkpt lat="44.4004" lon="5.5885">
        <ele>1048.5</ele>
        <time>2021-09-07T14:56:58Z</time>
      </trkpt>
      <trkpt lat="44.4004" lon="5.5885">
        <ele>1048.5</ele>
        <time>2021-09-07T14:56:59Z</time>
      </trkpt>
      <trkpt lat="44.40041" lon="5.58851">
        <ele>1048.7</ele>
        <time>2021-09-07T14:57:00Z</time>
      </trkpt>
      <trkpt lat="44.4004" lon="5.58853">
        <ele>1048.8</ele>
        <time>2021-09-07T14:57:01Z</time>
      </trkpt>
      <trkpt lat="44.4004" lon="5.58854">
        <ele>1048.9</ele>
        <time>2021-09-07T14:57:02Z</time>
      </trkpt>
      <trkpt lat="44.40039" lon="5.58855">
        <ele>1049</ele>
        <time>2021-09-07T14:57:03Z</time>
      </trkpt>
      <trkpt lat="44.40039" lon="5.58858">
        <ele>1049.3</ele>
        <time>2021-09-07T14:57:04Z</time>
      </trkpt>
      <trkpt lat="44.40039" lon="5.58859">
        <ele>1049.4</ele>
        <time>2021-09-07T14:57:05Z</time>
      </trkpt>
      <trkpt lat="44.40039" lon="5.5886">
        <ele>1049.4</ele>
        <time>2021-09-07T14:57:06Z</time>
      </trkpt>
      <trkpt lat="44.40038" lon="5.58861">
        <ele>1049.6</ele>
        <time>2021-09-07T14:57:07Z</time>
      </trkpt>
      <trkpt lat="44.40038" lon="5.58862">
        <ele>1049.7</ele>
        <time>2021-09-07T14:57:08Z</time>
      </trkpt>
      <trkpt lat="44.40038" lon="5.58864">
        <ele>1049.8</ele>
        <time>2021-09-07T14:57:09Z</time>
      </trkpt>
      <trkpt lat="44.40038" lon="5.58864">
        <ele>1049.8</ele>
        <time>2021-09-07T14:57:10Z</time>
      </trkpt>
      <trkpt lat="44.40038" lon="5.58864">
        <ele>1049.8</ele>
        <time>2021-09-07T14:57:11Z</time>
      </trkpt>
      <trkpt lat="44.40038" lon="5.58865">
        <ele>1049.9</ele>
        <time>2021-09-07T14:57:12Z</time>
      </trkpt>
      <trkpt lat="44.40038" lon="5.58866">
        <ele>1050</ele>
        <time>2021-09-07T14:57:13Z</time>
      </trkpt>
      <trkpt lat="44.40038" lon="5.58866">
        <ele>1050</ele>
        <time>2021-09-07T14:57:14Z</time>
      </trkpt>
      <trkpt lat="44.40038" lon="5.58866">
        <ele>1050</ele>
        <time>2021-09-07T14:57:15Z</time>
      </trkpt>
      <trkpt lat="44.40037" lon="5.58868">
        <ele>1050.2</ele>
        <time>2021-09-07T14:57:16Z</time>
      </trkpt>
      <trkpt lat="44.40037" lon="5.5887">
        <ele>1050.3</ele>
        <time>2021-09-07T14:57:17Z</time>
      </trkpt>
      <trkpt lat="44.40036" lon="5.58873">
        <ele>1050.6</ele>
        <time>2021-09-07T14:57:18Z</time>
      </trkpt>
      <trkpt lat="44.40036" lon="5.58875">
        <ele>1050.7</ele>
        <time>2021-09-07T14:57:19Z</time>
      </trkpt>
      <trkpt lat="44.40036" lon="5.58876">
        <ele>1050.9</ele>
        <time>2021-09-07T14:57:20Z</time>
      </trkpt>
      <trkpt lat="44.40036" lon="5.5888">
        <ele>1051.2</ele>
        <time>2021-09-07T14:57:21Z</time>
      </trkpt>
      <trkpt lat="44.40037" lon="5.58883">
        <ele>1051.4</ele>
        <time>2021-09-07T14:57:22Z</time>
      </trkpt>
      <trkpt lat="44.40037" lon="5.58885">
        <ele>1051.6</ele>
        <time>2021-09-07T14:57:23Z</time>
      </trkpt>
      <trkpt lat="44.40036" lon="5.58889">
        <ele>1051.9</ele>
        <time>2021-09-07T14:57:24Z</time>
      </trkpt>
      <trkpt lat="44.40035" lon="5.58892">
        <ele>1052.2</ele>
        <time>2021-09-07T14:57:25Z</time>
      </trkpt>
      <trkpt lat="44.40035" lon="5.58895">
        <ele>1052.4</ele>
        <time>2021-09-07T14:57:26Z</time>
      </trkpt>
      <trkpt lat="44.40035" lon="5.58897">
        <ele>1052.5</ele>
        <time>2021-09-07T14:57:27Z</time>
      </trkpt>
      <trkpt lat="44.40034" lon="5.58898">
        <ele>1052.7</ele>
        <time>2021-09-07T14:57:28Z</time>
      </trkpt>
      <trkpt lat="44.40033" lon="5.58901">
        <ele>1052.9</ele>
        <time>2021-09-07T14:57:29Z</time>
      </trkpt>
      <trkpt lat="44.40032" lon="5.58903">
        <ele>1053.1</ele>
        <time>2021-09-07T14:57:30Z</time>
      </trkpt>
      <trkpt lat="44.40032" lon="5.58904">
        <ele>1053.1</ele>
        <time>2021-09-07T14:57:31Z</time>
      </trkpt>
      <trkpt lat="44.40032" lon="5.58905">
        <ele>1053.2</ele>
        <time>2021-09-07T14:57:32Z</time>
      </trkpt>
      <trkpt lat="44.40032" lon="5.58906">
        <ele>1053.3</ele>
        <time>2021-09-07T14:57:33Z</time>
      </trkpt>
      <trkpt lat="44.40031" lon="5.58907">
        <ele>1053.4</ele>
        <time>2021-09-07T14:57:34Z</time>
      </trkpt>
      <trkpt lat="44.40031" lon="5.58908">
        <ele>1053.4</ele>
        <time>2021-09-07T14:57:35Z</time>
      </trkpt>
      <trkpt lat="44.40031" lon="5.58909">
        <ele>1053.5</ele>
        <time>2021-09-07T14:57:36Z</time>
      </trkpt>
      <trkpt lat="44.40031" lon="5.58909">
        <ele>1053.5</ele>
        <time>2021-09-07T14:57:37Z</time>
      </trkpt>
      <trkpt lat="44.40031" lon="5.58909">
        <ele>1053.5</ele>
        <time>2021-09-07T14:57:38Z</time>
      </trkpt>
      <trkpt lat="44.40031" lon="5.58909">
        <ele>1053.5</ele>
        <time>2021-09-07T14:57:39Z</time>
      </trkpt>
      <trkpt lat="44.40031" lon="5.5891">
        <ele>1053.6</ele>
        <time>2021-09-07T14:57:40Z</time>
      </trkpt>
      <trkpt lat="44.40031" lon="5.5891">
        <ele>1053.6</ele>
        <time>2021-09-07T14:57:41Z</time>
      </trkpt>
      <trkpt lat="44.40031" lon="5.5891">
        <ele>1053.6</ele>
        <time>2021-09-07T14:57:42Z</time>
      </trkpt>
      <trkpt lat="44.40031" lon="5.5891">
        <ele>1053.6</ele>
        <time>2021-09-07T14:57:43Z</time>
      </trkpt>
      <trkpt lat="44.40031" lon="5.5891">
        <ele>1053.6</ele>
        <time>2021-09-07T14:57:44Z</time>
      </trkpt>
      <trkpt lat="44.40031" lon="5.5891">
        <ele>1053.6</ele>
        <time>2021-09-07T14:57:45Z</time>
      </trkpt>
      <trkpt lat="44.40031" lon="5.5891">
        <ele>1053.6</ele>
        <time>2021-09-07T14:57:46Z</time>
      </trkpt>
      <trkpt lat="44.40031" lon="5.58911">
        <ele>1053.6</ele>
        <time>2021-09-07T14:57:47Z</time>
      </trkpt>
      <trkpt lat="44.40031" lon="5.58912">
        <ele>1053.7</ele>
        <time>2021-09-07T14:57:48Z</time>
      </trkpt>
      <trkpt lat="44.40031" lon="5.58913">
        <ele>1053.8</ele>
        <time>2021-09-07T14:57:49Z</time>
      </trkpt>
      <trkpt lat="44.4003" lon="5.58915">
        <ele>1053.9</ele>
        <time>2021-09-07T14:57:50Z</time>
      </trkpt>
      <trkpt lat="44.4003" lon="5.58918">
        <ele>1054.1</ele>
        <time>2021-09-07T14:57:51Z</time>
      </trkpt>
      <trkpt lat="44.4003" lon="5.5892">
        <ele>1054.2</ele>
        <time>2021-09-07T14:57:52Z</time>
      </trkpt>
      <trkpt lat="44.4003" lon="5.58922">
        <ele>1054.3</ele>
        <time>2021-09-07T14:57:53Z</time>
      </trkpt>
      <trkpt lat="44.40029" lon="5.58925">
        <ele>1054.5</ele>
        <time>2021-09-07T14:57:54Z</time>
      </trkpt>
      <trkpt lat="44.40029" lon="5.58928">
        <ele>1054.6</ele>
        <time>2021-09-07T14:57:55Z</time>
      </trkpt>
      <trkpt lat="44.40029" lon="5.5893">
        <ele>1054.7</ele>
        <time>2021-09-07T14:57:56Z</time>
      </trkpt>
      <trkpt lat="44.40029" lon="5.58932">
        <ele>1054.8</ele>
        <time>2021-09-07T14:57:57Z</time>
      </trkpt>
      <trkpt lat="44.40029" lon="5.58934">
        <ele>1054.9</ele>
        <time>2021-09-07T14:57:58Z</time>
      </trkpt>
      <trkpt lat="44.40028" lon="5.58939">
        <ele>1055.1</ele>
        <time>2021-09-07T14:57:59Z</time>
      </trkpt>
      <trkpt lat="44.40028" lon="5.5894">
        <ele>1055.1</ele>
        <time>2021-09-07T14:58:00Z</time>
      </trkpt>
      <trkpt lat="44.40028" lon="5.5894">
        <ele>1055.2</ele>
        <time>2021-09-07T14:58:01Z</time>
      </trkpt>
      <trkpt lat="44.40027" lon="5.58941">
        <ele>1055.2</ele>
        <time>2021-09-07T14:58:02Z</time>
      </trkpt>
      <trkpt lat="44.40027" lon="5.58942">
        <ele>1055.2</ele>
        <time>2021-09-07T14:58:03Z</time>
      </trkpt>
      <trkpt lat="44.40027" lon="5.58942">
        <ele>1055.3</ele>
        <time>2021-09-07T14:58:04Z</time>
      </trkpt>
      <trkpt lat="44.40027" lon="5.58942">
        <ele>1055.3</ele>
        <time>2021-09-07T14:58:05Z</time>
      </trkpt>
      <trkpt lat="44.40027" lon="5.58942">
        <ele>1055.3</ele>
        <time>2021-09-07T14:58:06Z</time>
      </trkpt>
      <trkpt lat="44.40027" lon="5.58942">
        <ele>1055.3</ele>
        <time>2021-09-07T14:58:07Z</time>
      </trkpt>
      <trkpt lat="44.40027" lon="5.58941">
        <ele>1055.3</ele>
        <time>2021-09-07T14:58:08Z</time>
      </trkpt>
      <trkpt lat="44.40027" lon="5.58941">
        <ele>1055.3</ele>
        <time>2021-09-07T14:58:09Z</time>
      </trkpt>
      <trkpt lat="44.40027" lon="5.58941">
        <ele>1055.3</ele>
        <time>2021-09-07T14:58:10Z</time>
      </trkpt>
      <trkpt lat="44.40027" lon="5.58941">
        <ele>1055.3</ele>
        <time>2021-09-07T14:58:11Z</time>
      </trkpt>
      <trkpt lat="44.40026" lon="5.58941">
        <ele>1055.3</ele>
        <time>2021-09-07T14:58:12Z</time>
      </trkpt>
      <trkpt lat="44.40027" lon="5.58941">
        <ele>1055.4</ele>
        <time>2021-09-07T14:58:13Z</time>
      </trkpt>
      <trkpt lat="44.40027" lon="5.58941">
        <ele>1055.4</ele>
        <time>2021-09-07T14:58:14Z</time>
      </trkpt>
      <trkpt lat="44.40027" lon="5.58943">
        <ele>1055.5</ele>
        <time>2021-09-07T14:58:15Z</time>
      </trkpt>
      <trkpt lat="44.40027" lon="5.58944">
        <ele>1055.5</ele>
        <time>2021-09-07T14:58:16Z</time>
      </trkpt>
      <trkpt lat="44.40027" lon="5.58945">
        <ele>1055.5</ele>
        <time>2021-09-07T14:58:17Z</time>
      </trkpt>
      <trkpt lat="44.40028" lon="5.58947">
        <ele>1055.6</ele>
        <time>2021-09-07T14:58:18Z</time>
      </trkpt>
      <trkpt lat="44.40028" lon="5.58948">
        <ele>1055.6</ele>
        <time>2021-09-07T14:58:19Z</time>
      </trkpt>
      <trkpt lat="44.40028" lon="5.58948">
        <ele>1055.6</ele>
        <time>2021-09-07T14:58:20Z</time>
      </trkpt>
      <trkpt lat="44.40028" lon="5.5895">
        <ele>1055.6</ele>
        <time>2021-09-07T14:58:21Z</time>
      </trkpt>
      <trkpt lat="44.40028" lon="5.58951">
        <ele>1055.7</ele>
        <time>2021-09-07T14:58:22Z</time>
      </trkpt>
      <trkpt lat="44.40028" lon="5.58956">
        <ele>1055.8</ele>
        <time>2021-09-07T14:58:23Z</time>
      </trkpt>
      <trkpt lat="44.40029" lon="5.5896">
        <ele>1055.9</ele>
        <time>2021-09-07T14:58:24Z</time>
      </trkpt>
      <trkpt lat="44.4003" lon="5.58964">
        <ele>1055.9</ele>
        <time>2021-09-07T14:58:25Z</time>
      </trkpt>
      <trkpt lat="44.4003" lon="5.58968">
        <ele>1056</ele>
        <time>2021-09-07T14:58:26Z</time>
      </trkpt>
      <trkpt lat="44.4003" lon="5.5897">
        <ele>1056</ele>
        <time>2021-09-07T14:58:27Z</time>
      </trkpt>
      <trkpt lat="44.4003" lon="5.58972">
        <ele>1056</ele>
        <time>2021-09-07T14:58:28Z</time>
      </trkpt>
      <trkpt lat="44.40031" lon="5.58976">
        <ele>1056</ele>
        <time>2021-09-07T14:58:29Z</time>
      </trkpt>
      <trkpt lat="44.40031" lon="5.58979">
        <ele>1056.1</ele>
        <time>2021-09-07T14:58:30Z</time>
      </trkpt>
      <trkpt lat="44.40031" lon="5.58983">
        <ele>1056.1</ele>
        <time>2021-09-07T14:58:31Z</time>
      </trkpt>
      <trkpt lat="44.40031" lon="5.58986">
        <ele>1056.1</ele>
        <time>2021-09-07T14:58:32Z</time>
      </trkpt>
      <trkpt lat="44.40031" lon="5.58989">
        <ele>1056.2</ele>
        <time>2021-09-07T14:58:33Z</time>
      </trkpt>
      <trkpt lat="44.40032" lon="5.58994">
        <ele>1056.2</ele>
        <time>2021-09-07T14:58:34Z</time>
      </trkpt>
      <trkpt lat="44.40032" lon="5.58997">
        <ele>1056.3</ele>
        <time>2021-09-07T14:58:35Z</time>
      </trkpt>
      <trkpt lat="44.40032" lon="5.58999">
        <ele>1056.3</ele>
        <time>2021-09-07T14:58:36Z</time>
      </trkpt>
      <trkpt lat="44.40032" lon="5.59001">
        <ele>1056.3</ele>
        <time>2021-09-07T14:58:37Z</time>
      </trkpt>
      <trkpt lat="44.40032" lon="5.59002">
        <ele>1056.3</ele>
        <time>2021-09-07T14:58:38Z</time>
      </trkpt>
      <trkpt lat="44.40033" lon="5.59006">
        <ele>1056.3</ele>
        <time>2021-09-07T14:58:39Z</time>
      </trkpt>
      <trkpt lat="44.40033" lon="5.59009">
        <ele>1056.4</ele>
        <time>2021-09-07T14:58:40Z</time>
      </trkpt>
      <trkpt lat="44.40033" lon="5.59011">
        <ele>1056.4</ele>
        <time>2021-09-07T14:58:41Z</time>
      </trkpt>
      <trkpt lat="44.40034" lon="5.59016">
        <ele>1056.4</ele>
        <time>2021-09-07T14:58:42Z</time>
      </trkpt>
      <trkpt lat="44.40034" lon="5.59019">
        <ele>1056.4</ele>
        <time>2021-09-07T14:58:43Z</time>
      </trkpt>
      <trkpt lat="44.40034" lon="5.59021">
        <ele>1056.4</ele>
        <time>2021-09-07T14:58:44Z</time>
      </trkpt>
      <trkpt lat="44.40034" lon="5.59023">
        <ele>1056.4</ele>
        <time>2021-09-07T14:58:45Z</time>
      </trkpt>
      <trkpt lat="44.40033" lon="5.59025">
        <ele>1056.5</ele>
        <time>2021-09-07T14:58:46Z</time>
      </trkpt>
      <trkpt lat="44.40034" lon="5.59028">
        <ele>1056.5</ele>
        <time>2021-09-07T14:58:47Z</time>
      </trkpt>
      <trkpt lat="44.40034" lon="5.59032">
        <ele>1056.5</ele>
        <time>2021-09-07T14:58:48Z</time>
      </trkpt>
      <trkpt lat="44.40034" lon="5.59034">
        <ele>1056.5</ele>
        <time>2021-09-07T14:58:49Z</time>
      </trkpt>
      <trkpt lat="44.40034" lon="5.59036">
        <ele>1056.5</ele>
        <time>2021-09-07T14:58:50Z</time>
      </trkpt>
      <trkpt lat="44.40034" lon="5.59038">
        <ele>1056.5</ele>
        <time>2021-09-07T14:58:51Z</time>
      </trkpt>
      <trkpt lat="44.40034" lon="5.5904">
        <ele>1056.5</ele>
        <time>2021-09-07T14:58:52Z</time>
      </trkpt>
      <trkpt lat="44.40034" lon="5.59042">
        <ele>1056.5</ele>
        <time>2021-09-07T14:58:53Z</time>
      </trkpt>
      <trkpt lat="44.40034" lon="5.59043">
        <ele>1056.5</ele>
        <time>2021-09-07T14:58:54Z</time>
      </trkpt>
      <trkpt lat="44.40034" lon="5.59045">
        <ele>1056.5</ele>
        <time>2021-09-07T14:58:55Z</time>
      </trkpt>
      <trkpt lat="44.40034" lon="5.59048">
        <ele>1056.5</ele>
        <time>2021-09-07T14:58:56Z</time>
      </trkpt>
      <trkpt lat="44.40034" lon="5.5905">
        <ele>1056.6</ele>
        <time>2021-09-07T14:58:57Z</time>
      </trkpt>
      <trkpt lat="44.40033" lon="5.59052">
        <ele>1056.6</ele>
        <time>2021-09-07T14:58:58Z</time>
      </trkpt>
      <trkpt lat="44.40033" lon="5.59055">
        <ele>1056.6</ele>
        <time>2021-09-07T14:58:59Z</time>
      </trkpt>
      <trkpt lat="44.40032" lon="5.59058">
        <ele>1056.6</ele>
        <time>2021-09-07T14:59:00Z</time>
      </trkpt>
      <trkpt lat="44.40032" lon="5.59063">
        <ele>1056.6</ele>
        <time>2021-09-07T14:59:01Z</time>
      </trkpt>
      <trkpt lat="44.40032" lon="5.59065">
        <ele>1056.6</ele>
        <time>2021-09-07T14:59:02Z</time>
      </trkpt>
      <trkpt lat="44.40032" lon="5.59066">
        <ele>1056.6</ele>
        <time>2021-09-07T14:59:03Z</time>
      </trkpt>
      <trkpt lat="44.40033" lon="5.59069">
        <ele>1056.6</ele>
        <time>2021-09-07T14:59:04Z</time>
      </trkpt>
      <trkpt lat="44.40033" lon="5.59072">
        <ele>1056.6</ele>
        <time>2021-09-07T14:59:05Z</time>
      </trkpt>
      <trkpt lat="44.40034" lon="5.59074">
        <ele>1056.6</ele>
        <time>2021-09-07T14:59:06Z</time>
      </trkpt>
      <trkpt lat="44.40034" lon="5.59076">
        <ele>1056.7</ele>
        <time>2021-09-07T14:59:07Z</time>
      </trkpt>
      <trkpt lat="44.40034" lon="5.59079">
        <ele>1056.7</ele>
        <time>2021-09-07T14:59:08Z</time>
      </trkpt>
      <trkpt lat="44.40034" lon="5.59081">
        <ele>1056.7</ele>
        <time>2021-09-07T14:59:09Z</time>
      </trkpt>
      <trkpt lat="44.40035" lon="5.59084">
        <ele>1056.7</ele>
        <time>2021-09-07T14:59:10Z</time>
      </trkpt>
      <trkpt lat="44.40035" lon="5.59086">
        <ele>1056.7</ele>
        <time>2021-09-07T14:59:11Z</time>
      </trkpt>
      <trkpt lat="44.40034" lon="5.59088">
        <ele>1056.8</ele>
        <time>2021-09-07T14:59:12Z</time>
      </trkpt>
      <trkpt lat="44.40034" lon="5.5909">
        <ele>1056.8</ele>
        <time>2021-09-07T14:59:13Z</time>
      </trkpt>
      <trkpt lat="44.40034" lon="5.59092">
        <ele>1056.8</ele>
        <time>2021-09-07T14:59:14Z</time>
      </trkpt>
      <trkpt lat="44.40034" lon="5.59094">
        <ele>1056.9</ele>
        <time>2021-09-07T14:59:15Z</time>
      </trkpt>
      <trkpt lat="44.40034" lon="5.59096">
        <ele>1056.9</ele>
        <time>2021-09-07T14:59:16Z</time>
      </trkpt>
      <trkpt lat="44.40034" lon="5.59102">
        <ele>1057.1</ele>
        <time>2021-09-07T14:59:17Z</time>
      </trkpt>
      <trkpt lat="44.40034" lon="5.59104">
        <ele>1057.1</ele>
        <time>2021-09-07T14:59:18Z</time>
      </trkpt>
      <trkpt lat="44.40034" lon="5.59106">
        <ele>1057.2</ele>
        <time>2021-09-07T14:59:19Z</time>
      </trkpt>
      <trkpt lat="44.40034" lon="5.59107">
        <ele>1057.2</ele>
        <time>2021-09-07T14:59:20Z</time>
      </trkpt>
      <trkpt lat="44.40034" lon="5.59108">
        <ele>1057.3</ele>
        <time>2021-09-07T14:59:21Z</time>
      </trkpt>
      <trkpt lat="44.40034" lon="5.59111">
        <ele>1057.4</ele>
        <time>2021-09-07T14:59:22Z</time>
      </trkpt>
      <trkpt lat="44.40034" lon="5.59114">
        <ele>1057.5</ele>
        <time>2021-09-07T14:59:23Z</time>
      </trkpt>
      <trkpt lat="44.40034" lon="5.59116">
        <ele>1057.6</ele>
        <time>2021-09-07T14:59:24Z</time>
      </trkpt>
      <trkpt lat="44.40033" lon="5.59118">
        <ele>1057.7</ele>
        <time>2021-09-07T14:59:25Z</time>
      </trkpt>
      <trkpt lat="44.40033" lon="5.59121">
        <ele>1057.8</ele>
        <time>2021-09-07T14:59:26Z</time>
      </trkpt>
      <trkpt lat="44.40033" lon="5.59123">
        <ele>1057.9</ele>
        <time>2021-09-07T14:59:27Z</time>
      </trkpt>
      <trkpt lat="44.40032" lon="5.59124">
        <ele>1058</ele>
        <time>2021-09-07T14:59:28Z</time>
      </trkpt>
      <trkpt lat="44.40032" lon="5.59125">
        <ele>1058.1</ele>
        <time>2021-09-07T14:59:29Z</time>
      </trkpt>
      <trkpt lat="44.40031" lon="5.59126">
        <ele>1058.1</ele>
        <time>2021-09-07T14:59:30Z</time>
      </trkpt>
      <trkpt lat="44.4003" lon="5.59128">
        <ele>1058.3</ele>
        <time>2021-09-07T14:59:31Z</time>
      </trkpt>
      <trkpt lat="44.4003" lon="5.59131">
        <ele>1058.4</ele>
        <time>2021-09-07T14:59:32Z</time>
      </trkpt>
      <trkpt lat="44.4003" lon="5.59134">
        <ele>1058.6</ele>
        <time>2021-09-07T14:59:33Z</time>
      </trkpt>
      <trkpt lat="44.4003" lon="5.59135">
        <ele>1058.7</ele>
        <time>2021-09-07T14:59:34Z</time>
      </trkpt>
      <trkpt lat="44.4003" lon="5.59136">
        <ele>1058.7</ele>
        <time>2021-09-07T14:59:35Z</time>
      </trkpt>
      <trkpt lat="44.40029" lon="5.59139">
        <ele>1058.9</ele>
        <time>2021-09-07T14:59:36Z</time>
      </trkpt>
      <trkpt lat="44.40029" lon="5.59141">
        <ele>1059</ele>
        <time>2021-09-07T14:59:37Z</time>
      </trkpt>
      <trkpt lat="44.40028" lon="5.59142">
        <ele>1059.1</ele>
        <time>2021-09-07T14:59:38Z</time>
      </trkpt>
      <trkpt lat="44.40027" lon="5.59144">
        <ele>1059.2</ele>
        <time>2021-09-07T14:59:39Z</time>
      </trkpt>
      <trkpt lat="44.40026" lon="5.59145">
        <ele>1059.3</ele>
        <time>2021-09-07T14:59:40Z</time>
      </trkpt>
      <trkpt lat="44.40024" lon="5.59147">
        <ele>1059.4</ele>
        <time>2021-09-07T14:59:41Z</time>
      </trkpt>
      <trkpt lat="44.40023" lon="5.59149">
        <ele>1059.5</ele>
        <time>2021-09-07T14:59:42Z</time>
      </trkpt>
      <trkpt lat="44.40022" lon="5.59151">
        <ele>1059.6</ele>
        <time>2021-09-07T14:59:43Z</time>
      </trkpt>
      <trkpt lat="44.40021" lon="5.59153">
        <ele>1059.7</ele>
        <time>2021-09-07T14:59:44Z</time>
      </trkpt>
      <trkpt lat="44.4002" lon="5.59154">
        <ele>1059.7</ele>
        <time>2021-09-07T14:59:45Z</time>
      </trkpt>
      <trkpt lat="44.40019" lon="5.59157">
        <ele>1059.9</ele>
        <time>2021-09-07T14:59:46Z</time>
      </trkpt>
      <trkpt lat="44.40017" lon="5.5916">
        <ele>1060</ele>
        <time>2021-09-07T14:59:47Z</time>
      </trkpt>
      <trkpt lat="44.40016" lon="5.59162">
        <ele>1060.1</ele>
        <time>2021-09-07T14:59:48Z</time>
      </trkpt>
      <trkpt lat="44.40014" lon="5.59163">
        <ele>1060.2</ele>
        <time>2021-09-07T14:59:49Z</time>
      </trkpt>
      <trkpt lat="44.40014" lon="5.59165">
        <ele>1060.3</ele>
        <time>2021-09-07T14:59:50Z</time>
      </trkpt>
      <trkpt lat="44.40013" lon="5.59167">
        <ele>1060.3</ele>
        <time>2021-09-07T14:59:51Z</time>
      </trkpt>
      <trkpt lat="44.40013" lon="5.59169">
        <ele>1060.4</ele>
        <time>2021-09-07T14:59:52Z</time>
      </trkpt>
      <trkpt lat="44.40012" lon="5.59171">
        <ele>1060.5</ele>
        <time>2021-09-07T14:59:53Z</time>
      </trkpt>
      <trkpt lat="44.40012" lon="5.59173">
        <ele>1060.6</ele>
        <time>2021-09-07T14:59:54Z</time>
      </trkpt>
      <trkpt lat="44.40012" lon="5.59175">
        <ele>1060.6</ele>
        <time>2021-09-07T14:59:55Z</time>
      </trkpt>
      <trkpt lat="44.40011" lon="5.59176">
        <ele>1061</ele>
        <time>2021-09-07T14:59:56Z</time>
      </trkpt>
      <trkpt lat="44.40011" lon="5.59178">
        <ele>1061.1</ele>
        <time>2021-09-07T14:59:57Z</time>
      </trkpt>
      <trkpt lat="44.40011" lon="5.5918">
        <ele>1061.2</ele>
        <time>2021-09-07T14:59:58Z</time>
      </trkpt>
      <trkpt lat="44.40011" lon="5.59182">
        <ele>1061.3</ele>
        <time>2021-09-07T14:59:59Z</time>
      </trkpt>
      <trkpt lat="44.40011" lon="5.59183">
        <ele>1061.3</ele>
        <time>2021-09-07T15:00:00Z</time>
      </trkpt>
      <trkpt lat="44.40011" lon="5.59184">
        <ele>1061.4</ele>
        <time>2021-09-07T15:00:01Z</time>
      </trkpt>
      <trkpt lat="44.40011" lon="5.59187">
        <ele>1061.5</ele>
        <time>2021-09-07T15:00:02Z</time>
      </trkpt>
      <trkpt lat="44.40011" lon="5.59189">
        <ele>1061.6</ele>
        <time>2021-09-07T15:00:03Z</time>
      </trkpt>
      <trkpt lat="44.40011" lon="5.59191">
        <ele>1061.7</ele>
        <time>2021-09-07T15:00:04Z</time>
      </trkpt>
      <trkpt lat="44.40011" lon="5.59193">
        <ele>1061.8</ele>
        <time>2021-09-07T15:00:05Z</time>
      </trkpt>
      <trkpt lat="44.40011" lon="5.59197">
        <ele>1061.9</ele>
        <time>2021-09-07T15:00:06Z</time>
      </trkpt>
      <trkpt lat="44.40011" lon="5.59198">
        <ele>1062</ele>
        <time>2021-09-07T15:00:07Z</time>
      </trkpt>
      <trkpt lat="44.40011" lon="5.59199">
        <ele>1062</ele>
        <time>2021-09-07T15:00:08Z</time>
      </trkpt>
      <trkpt lat="44.40011" lon="5.59203">
        <ele>1062.1</ele>
        <time>2021-09-07T15:00:09Z</time>
      </trkpt>
      <trkpt lat="44.40011" lon="5.59205">
        <ele>1062.2</ele>
        <time>2021-09-07T15:00:10Z</time>
      </trkpt>
      <trkpt lat="44.40011" lon="5.59207">
        <ele>1062.3</ele>
        <time>2021-09-07T15:00:11Z</time>
      </trkpt>
      <trkpt lat="44.40011" lon="5.59208">
        <ele>1062.3</ele>
        <time>2021-09-07T15:00:12Z</time>
      </trkpt>
      <trkpt lat="44.4001" lon="5.59211">
        <ele>1062.4</ele>
        <time>2021-09-07T15:00:13Z</time>
      </trkpt>
      <trkpt lat="44.4001" lon="5.59213">
        <ele>1062.5</ele>
        <time>2021-09-07T15:00:14Z</time>
      </trkpt>
      <trkpt lat="44.40009" lon="5.59215">
        <ele>1062.6</ele>
        <time>2021-09-07T15:00:15Z</time>
      </trkpt>
      <trkpt lat="44.40009" lon="5.59219">
        <ele>1062.7</ele>
        <time>2021-09-07T15:00:16Z</time>
      </trkpt>
      <trkpt lat="44.40009" lon="5.59221">
        <ele>1062.8</ele>
        <time>2021-09-07T15:00:17Z</time>
      </trkpt>
      <trkpt lat="44.40008" lon="5.59222">
        <ele>1062.8</ele>
        <time>2021-09-07T15:00:18Z</time>
      </trkpt>
      <trkpt lat="44.40008" lon="5.59224">
        <ele>1062.9</ele>
        <time>2021-09-07T15:00:19Z</time>
      </trkpt>
      <trkpt lat="44.40007" lon="5.59226">
        <ele>1063</ele>
        <time>2021-09-07T15:00:20Z</time>
      </trkpt>
      <trkpt lat="44.40006" lon="5.5923">
        <ele>1063.1</ele>
        <time>2021-09-07T15:00:21Z</time>
      </trkpt>
      <trkpt lat="44.40006" lon="5.59232">
        <ele>1063.1</ele>
        <time>2021-09-07T15:00:22Z</time>
      </trkpt>
      <trkpt lat="44.40005" lon="5.59233">
        <ele>1063.2</ele>
        <time>2021-09-07T15:00:23Z</time>
      </trkpt>
      <trkpt lat="44.40004" lon="5.59235">
        <ele>1063.3</ele>
        <time>2021-09-07T15:00:24Z</time>
      </trkpt>
      <trkpt lat="44.40003" lon="5.59238">
        <ele>1063.4</ele>
        <time>2021-09-07T15:00:25Z</time>
      </trkpt>
      <trkpt lat="44.40002" lon="5.59241">
        <ele>1063.5</ele>
        <time>2021-09-07T15:00:26Z</time>
      </trkpt>
      <trkpt lat="44.40001" lon="5.59243">
        <ele>1063.5</ele>
        <time>2021-09-07T15:00:27Z</time>
      </trkpt>
      <trkpt lat="44.4" lon="5.59245">
        <ele>1063.6</ele>
        <time>2021-09-07T15:00:28Z</time>
      </trkpt>
      <trkpt lat="44.39999" lon="5.5925">
        <ele>1063.8</ele>
        <time>2021-09-07T15:00:29Z</time>
      </trkpt>
      <trkpt lat="44.39998" lon="5.59253">
        <ele>1063.9</ele>
        <time>2021-09-07T15:00:30Z</time>
      </trkpt>
      <trkpt lat="44.39997" lon="5.59255">
        <ele>1064</ele>
        <time>2021-09-07T15:00:31Z</time>
      </trkpt>
      <trkpt lat="44.39997" lon="5.59257">
        <ele>1064</ele>
        <time>2021-09-07T15:00:32Z</time>
      </trkpt>
      <trkpt lat="44.39996" lon="5.59258">
        <ele>1064.1</ele>
        <time>2021-09-07T15:00:33Z</time>
      </trkpt>
      <trkpt lat="44.39996" lon="5.59261">
        <ele>1064.2</ele>
        <time>2021-09-07T15:00:34Z</time>
      </trkpt>
      <trkpt lat="44.39996" lon="5.59265">
        <ele>1064.4</ele>
        <time>2021-09-07T15:00:35Z</time>
      </trkpt>
      <trkpt lat="44.39996" lon="5.59268">
        <ele>1064.5</ele>
        <time>2021-09-07T15:00:36Z</time>
      </trkpt>
      <trkpt lat="44.39995" lon="5.5927">
        <ele>1064.6</ele>
        <time>2021-09-07T15:00:37Z</time>
      </trkpt>
      <trkpt lat="44.39995" lon="5.59273">
        <ele>1064.7</ele>
        <time>2021-09-07T15:00:38Z</time>
      </trkpt>
      <trkpt lat="44.39995" lon="5.59276">
        <ele>1064.8</ele>
        <time>2021-09-07T15:00:39Z</time>
      </trkpt>
      <trkpt lat="44.39995" lon="5.59282">
        <ele>1065</ele>
        <time>2021-09-07T15:00:40Z</time>
      </trkpt>
      <trkpt lat="44.39995" lon="5.59284">
        <ele>1065.1</ele>
        <time>2021-09-07T15:00:41Z</time>
      </trkpt>
      <trkpt lat="44.39995" lon="5.59286">
        <ele>1065.1</ele>
        <time>2021-09-07T15:00:42Z</time>
      </trkpt>
      <trkpt lat="44.39996" lon="5.59289">
        <ele>1065.3</ele>
        <time>2021-09-07T15:00:43Z</time>
      </trkpt>
      <trkpt lat="44.39996" lon="5.59292">
        <ele>1065.4</ele>
        <time>2021-09-07T15:00:44Z</time>
      </trkpt>
      <trkpt lat="44.39996" lon="5.59295">
        <ele>1065.4</ele>
        <time>2021-09-07T15:00:45Z</time>
      </trkpt>
      <trkpt lat="44.39995" lon="5.59297">
        <ele>1065.5</ele>
        <time>2021-09-07T15:00:46Z</time>
      </trkpt>
      <trkpt lat="44.39995" lon="5.593">
        <ele>1065.6</ele>
        <time>2021-09-07T15:00:47Z</time>
      </trkpt>
      <trkpt lat="44.39994" lon="5.59303">
        <ele>1065.7</ele>
        <time>2021-09-07T15:00:48Z</time>
      </trkpt>
      <trkpt lat="44.39993" lon="5.59308">
        <ele>1065.9</ele>
        <time>2021-09-07T15:00:49Z</time>
      </trkpt>
      <trkpt lat="44.39993" lon="5.5931">
        <ele>1066</ele>
        <time>2021-09-07T15:00:50Z</time>
      </trkpt>
      <trkpt lat="44.39992" lon="5.59312">
        <ele>1066.1</ele>
        <time>2021-09-07T15:00:51Z</time>
      </trkpt>
      <trkpt lat="44.39992" lon="5.59315">
        <ele>1066.2</ele>
        <time>2021-09-07T15:00:52Z</time>
      </trkpt>
      <trkpt lat="44.3999" lon="5.59321">
        <ele>1066.4</ele>
        <time>2021-09-07T15:00:53Z</time>
      </trkpt>
      <trkpt lat="44.3999" lon="5.59323">
        <ele>1066.4</ele>
        <time>2021-09-07T15:00:54Z</time>
      </trkpt>
      <trkpt lat="44.39989" lon="5.59325">
        <ele>1066.5</ele>
        <time>2021-09-07T15:00:55Z</time>
      </trkpt>
      <trkpt lat="44.39987" lon="5.59329">
        <ele>1066.6</ele>
        <time>2021-09-07T15:00:56Z</time>
      </trkpt>
      <trkpt lat="44.39986" lon="5.59332">
        <ele>1066.7</ele>
        <time>2021-09-07T15:00:57Z</time>
      </trkpt>
      <trkpt lat="44.39985" lon="5.59335">
        <ele>1066.8</ele>
        <time>2021-09-07T15:00:58Z</time>
      </trkpt>
      <trkpt lat="44.39984" lon="5.5934">
        <ele>1067</ele>
        <time>2021-09-07T15:00:59Z</time>
      </trkpt>
      <trkpt lat="44.39984" lon="5.59343">
        <ele>1067</ele>
        <time>2021-09-07T15:01:00Z</time>
      </trkpt>
      <trkpt lat="44.39983" lon="5.59346">
        <ele>1067.1</ele>
        <time>2021-09-07T15:01:01Z</time>
      </trkpt>
      <trkpt lat="44.39981" lon="5.59353">
        <ele>1067.3</ele>
        <time>2021-09-07T15:01:02Z</time>
      </trkpt>
      <trkpt lat="44.39981" lon="5.59356">
        <ele>1067.4</ele>
        <time>2021-09-07T15:01:03Z</time>
      </trkpt>
      <trkpt lat="44.39981" lon="5.59359">
        <ele>1067.5</ele>
        <time>2021-09-07T15:01:04Z</time>
      </trkpt>
      <trkpt lat="44.3998" lon="5.59363">
        <ele>1067.6</ele>
        <time>2021-09-07T15:01:05Z</time>
      </trkpt>
      <trkpt lat="44.39979" lon="5.59366">
        <ele>1067.7</ele>
        <time>2021-09-07T15:01:06Z</time>
      </trkpt>
      <trkpt lat="44.39978" lon="5.5937">
        <ele>1067.8</ele>
        <time>2021-09-07T15:01:07Z</time>
      </trkpt>
      <trkpt lat="44.39977" lon="5.59373">
        <ele>1067.9</ele>
        <time>2021-09-07T15:01:08Z</time>
      </trkpt>
      <trkpt lat="44.39977" lon="5.59375">
        <ele>1067.9</ele>
        <time>2021-09-07T15:01:09Z</time>
      </trkpt>
      <trkpt lat="44.39976" lon="5.59378">
        <ele>1068</ele>
        <time>2021-09-07T15:01:10Z</time>
      </trkpt>
      <trkpt lat="44.39976" lon="5.59381">
        <ele>1068.1</ele>
        <time>2021-09-07T15:01:11Z</time>
      </trkpt>
      <trkpt lat="44.39975" lon="5.59384">
        <ele>1068.2</ele>
        <time>2021-09-07T15:01:12Z</time>
      </trkpt>
      <trkpt lat="44.39975" lon="5.59387">
        <ele>1068.2</ele>
        <time>2021-09-07T15:01:13Z</time>
      </trkpt>
      <trkpt lat="44.39974" lon="5.5939">
        <ele>1068.3</ele>
        <time>2021-09-07T15:01:14Z</time>
      </trkpt>
      <trkpt lat="44.39973" lon="5.59393">
        <ele>1068.4</ele>
        <time>2021-09-07T15:01:15Z</time>
      </trkpt>
      <trkpt lat="44.39972" lon="5.59398">
        <ele>1068.6</ele>
        <time>2021-09-07T15:01:16Z</time>
      </trkpt>
      <trkpt lat="44.39972" lon="5.59401">
        <ele>1068.6</ele>
        <time>2021-09-07T15:01:17Z</time>
      </trkpt>
      <trkpt lat="44.39972" lon="5.59403">
        <ele>1068.7</ele>
        <time>2021-09-07T15:01:18Z</time>
      </trkpt>
      <trkpt lat="44.39972" lon="5.59407">
        <ele>1068.8</ele>
        <time>2021-09-07T15:01:19Z</time>
      </trkpt>
      <trkpt lat="44.39972" lon="5.5941">
        <ele>1068.9</ele>
        <time>2021-09-07T15:01:20Z</time>
      </trkpt>
      <trkpt lat="44.39971" lon="5.59412">
        <ele>1069</ele>
        <time>2021-09-07T15:01:21Z</time>
      </trkpt>
      <trkpt lat="44.39972" lon="5.59415">
        <ele>1069.1</ele>
        <time>2021-09-07T15:01:22Z</time>
      </trkpt>
      <trkpt lat="44.39972" lon="5.59417">
        <ele>1069.1</ele>
        <time>2021-09-07T15:01:23Z</time>
      </trkpt>
      <trkpt lat="44.39972" lon="5.5942">
        <ele>1069.2</ele>
        <time>2021-09-07T15:01:24Z</time>
      </trkpt>
      <trkpt lat="44.39973" lon="5.59424">
        <ele>1069.4</ele>
        <time>2021-09-07T15:01:25Z</time>
      </trkpt>
      <trkpt lat="44.39973" lon="5.59427">
        <ele>1069.4</ele>
        <time>2021-09-07T15:01:26Z</time>
      </trkpt>
      <trkpt lat="44.39973" lon="5.59429">
        <ele>1069.5</ele>
        <time>2021-09-07T15:01:27Z</time>
      </trkpt>
      <trkpt lat="44.39973" lon="5.59432">
        <ele>1069.6</ele>
        <time>2021-09-07T15:01:28Z</time>
      </trkpt>
      <trkpt lat="44.39972" lon="5.59434">
        <ele>1069.7</ele>
        <time>2021-09-07T15:01:29Z</time>
      </trkpt>
      <trkpt lat="44.39972" lon="5.59437">
        <ele>1069.7</ele>
        <time>2021-09-07T15:01:30Z</time>
      </trkpt>
      <trkpt lat="44.39972" lon="5.59439">
        <ele>1069.8</ele>
        <time>2021-09-07T15:01:31Z</time>
      </trkpt>
      <trkpt lat="44.39972" lon="5.59443">
        <ele>1069.9</ele>
        <time>2021-09-07T15:01:32Z</time>
      </trkpt>
      <trkpt lat="44.39972" lon="5.59447">
        <ele>1070</ele>
        <time>2021-09-07T15:01:33Z</time>
      </trkpt>
      <trkpt lat="44.39972" lon="5.59452">
        <ele>1070.2</ele>
        <time>2021-09-07T15:01:34Z</time>
      </trkpt>
      <trkpt lat="44.39972" lon="5.59456">
        <ele>1070.2</ele>
        <time>2021-09-07T15:01:35Z</time>
      </trkpt>
      <trkpt lat="44.39972" lon="5.59458">
        <ele>1070.3</ele>
        <time>2021-09-07T15:01:36Z</time>
      </trkpt>
      <trkpt lat="44.39972" lon="5.5946">
        <ele>1070.3</ele>
        <time>2021-09-07T15:01:37Z</time>
      </trkpt>
      <trkpt lat="44.39972" lon="5.59465">
        <ele>1070.5</ele>
        <time>2021-09-07T15:01:38Z</time>
      </trkpt>
      <trkpt lat="44.39971" lon="5.59468">
        <ele>1070.5</ele>
        <time>2021-09-07T15:01:39Z</time>
      </trkpt>
      <trkpt lat="44.39971" lon="5.59472">
        <ele>1070.6</ele>
        <time>2021-09-07T15:01:40Z</time>
      </trkpt>
      <trkpt lat="44.39971" lon="5.59474">
        <ele>1070.7</ele>
        <time>2021-09-07T15:01:41Z</time>
      </trkpt>
      <trkpt lat="44.3997" lon="5.59476">
        <ele>1070.7</ele>
        <time>2021-09-07T15:01:42Z</time>
      </trkpt>
      <trkpt lat="44.3997" lon="5.5948">
        <ele>1070.8</ele>
        <time>2021-09-07T15:01:43Z</time>
      </trkpt>
      <trkpt lat="44.3997" lon="5.59484">
        <ele>1070.9</ele>
        <time>2021-09-07T15:01:44Z</time>
      </trkpt>
      <trkpt lat="44.3997" lon="5.59489">
        <ele>1071</ele>
        <time>2021-09-07T15:01:45Z</time>
      </trkpt>
      <trkpt lat="44.3997" lon="5.59494">
        <ele>1071.1</ele>
        <time>2021-09-07T15:01:46Z</time>
      </trkpt>
      <trkpt lat="44.3997" lon="5.59502">
        <ele>1071.2</ele>
        <time>2021-09-07T15:01:47Z</time>
      </trkpt>
      <trkpt lat="44.3997" lon="5.59506">
        <ele>1071.3</ele>
        <time>2021-09-07T15:01:48Z</time>
      </trkpt>
      <trkpt lat="44.39969" lon="5.5951">
        <ele>1071.4</ele>
        <time>2021-09-07T15:01:49Z</time>
      </trkpt>
      <trkpt lat="44.39968" lon="5.59516">
        <ele>1071.5</ele>
        <time>2021-09-07T15:01:50Z</time>
      </trkpt>
      <trkpt lat="44.39966" lon="5.59525">
        <ele>1071.7</ele>
        <time>2021-09-07T15:01:51Z</time>
      </trkpt>
      <trkpt lat="44.39965" lon="5.59529">
        <ele>1071.8</ele>
        <time>2021-09-07T15:01:52Z</time>
      </trkpt>
      <trkpt lat="44.39964" lon="5.59533">
        <ele>1071.9</ele>
        <time>2021-09-07T15:01:53Z</time>
      </trkpt>
      <trkpt lat="44.39961" lon="5.59542">
        <ele>1072.1</ele>
        <time>2021-09-07T15:01:54Z</time>
      </trkpt>
      <trkpt lat="44.3996" lon="5.59545">
        <ele>1072.2</ele>
        <time>2021-09-07T15:01:55Z</time>
      </trkpt>
      <trkpt lat="44.39958" lon="5.59548">
        <ele>1072.3</ele>
        <time>2021-09-07T15:01:56Z</time>
      </trkpt>
      <trkpt lat="44.39957" lon="5.59553">
        <ele>1072.4</ele>
        <time>2021-09-07T15:01:57Z</time>
      </trkpt>
      <trkpt lat="44.39954" lon="5.5956">
        <ele>1072.7</ele>
        <time>2021-09-07T15:01:58Z</time>
      </trkpt>
      <trkpt lat="44.39954" lon="5.59563">
        <ele>1072.7</ele>
        <time>2021-09-07T15:01:59Z</time>
      </trkpt>
      <trkpt lat="44.39953" lon="5.59565">
        <ele>1072.8</ele>
        <time>2021-09-07T15:02:00Z</time>
      </trkpt>
      <trkpt lat="44.39952" lon="5.59569">
        <ele>1072.9</ele>
        <time>2021-09-07T15:02:01Z</time>
      </trkpt>
      <trkpt lat="44.3995" lon="5.59572">
        <ele>1073.1</ele>
        <time>2021-09-07T15:02:02Z</time>
      </trkpt>
      <trkpt lat="44.39949" lon="5.59575">
        <ele>1073.2</ele>
        <time>2021-09-07T15:02:03Z</time>
      </trkpt>
      <trkpt lat="44.39947" lon="5.5958">
        <ele>1073.4</ele>
        <time>2021-09-07T15:02:04Z</time>
      </trkpt>
      <trkpt lat="44.39946" lon="5.59583">
        <ele>1073.5</ele>
        <time>2021-09-07T15:02:05Z</time>
      </trkpt>
      <trkpt lat="44.39945" lon="5.59585">
        <ele>1073.7</ele>
        <time>2021-09-07T15:02:06Z</time>
      </trkpt>
      <trkpt lat="44.39944" lon="5.59589">
        <ele>1073.8</ele>
        <time>2021-09-07T15:02:07Z</time>
      </trkpt>
      <trkpt lat="44.39943" lon="5.59592">
        <ele>1074</ele>
        <time>2021-09-07T15:02:08Z</time>
      </trkpt>
      <trkpt lat="44.39942" lon="5.59595">
        <ele>1074.1</ele>
        <time>2021-09-07T15:02:09Z</time>
      </trkpt>
      <trkpt lat="44.39942" lon="5.59599">
        <ele>1074.2</ele>
        <time>2021-09-07T15:02:10Z</time>
      </trkpt>
      <trkpt lat="44.39941" lon="5.59602">
        <ele>1074.4</ele>
        <time>2021-09-07T15:02:11Z</time>
      </trkpt>
      <trkpt lat="44.3994" lon="5.59606">
        <ele>1074.5</ele>
        <time>2021-09-07T15:02:12Z</time>
      </trkpt>
      <trkpt lat="44.3994" lon="5.5961">
        <ele>1074.6</ele>
        <time>2021-09-07T15:02:13Z</time>
      </trkpt>
      <trkpt lat="44.39939" lon="5.59613">
        <ele>1074.7</ele>
        <time>2021-09-07T15:02:14Z</time>
      </trkpt>
      <trkpt lat="44.39938" lon="5.59617">
        <ele>1074.9</ele>
        <time>2021-09-07T15:02:15Z</time>
      </trkpt>
      <trkpt lat="44.39937" lon="5.59622">
        <ele>1075.2</ele>
        <time>2021-09-07T15:02:16Z</time>
      </trkpt>
      <trkpt lat="44.39935" lon="5.59626">
        <ele>1075.6</ele>
        <time>2021-09-07T15:02:17Z</time>
      </trkpt>
      <trkpt lat="44.39934" lon="5.59629">
        <ele>1075.8</ele>
        <time>2021-09-07T15:02:18Z</time>
      </trkpt>
      <trkpt lat="44.39932" lon="5.59635">
        <ele>1076.2</ele>
        <time>2021-09-07T15:02:19Z</time>
      </trkpt>
      <trkpt lat="44.39931" lon="5.59637">
        <ele>1076.4</ele>
        <time>2021-09-07T15:02:20Z</time>
      </trkpt>
      <trkpt lat="44.3993" lon="5.59639">
        <ele>1076.5</ele>
        <time>2021-09-07T15:02:21Z</time>
      </trkpt>
      <trkpt lat="44.39929" lon="5.59642">
        <ele>1076.7</ele>
        <time>2021-09-07T15:02:22Z</time>
      </trkpt>
      <trkpt lat="44.39928" lon="5.59645">
        <ele>1076.9</ele>
        <time>2021-09-07T15:02:23Z</time>
      </trkpt>
      <trkpt lat="44.39927" lon="5.59647">
        <ele>1077.1</ele>
        <time>2021-09-07T15:02:24Z</time>
      </trkpt>
      <trkpt lat="44.39925" lon="5.59649">
        <ele>1077.2</ele>
        <time>2021-09-07T15:02:25Z</time>
      </trkpt>
      <trkpt lat="44.39923" lon="5.59651">
        <ele>1077.4</ele>
        <time>2021-09-07T15:02:26Z</time>
      </trkpt>
      <trkpt lat="44.39921" lon="5.59654">
        <ele>1077.6</ele>
        <time>2021-09-07T15:02:27Z</time>
      </trkpt>
      <trkpt lat="44.39921" lon="5.59655">
        <ele>1077.7</ele>
        <time>2021-09-07T15:02:28Z</time>
      </trkpt>
      <trkpt lat="44.3992" lon="5.59655">
        <ele>1077.7</ele>
        <time>2021-09-07T15:02:29Z</time>
      </trkpt>
      <trkpt lat="44.39918" lon="5.59656">
        <ele>1077.9</ele>
        <time>2021-09-07T15:02:30Z</time>
      </trkpt>
      <trkpt lat="44.39918" lon="5.59657">
        <ele>1077.9</ele>
        <time>2021-09-07T15:02:31Z</time>
      </trkpt>
      <trkpt lat="44.39918" lon="5.59657">
        <ele>1077.9</ele>
        <time>2021-09-07T15:02:32Z</time>
      </trkpt>
      <trkpt lat="44.39918" lon="5.59657">
        <ele>1077.9</ele>
        <time>2021-09-07T15:02:33Z</time>
      </trkpt>
      <trkpt lat="44.39918" lon="5.59657">
        <ele>1077.9</ele>
        <time>2021-09-07T15:02:34Z</time>
      </trkpt>
      <trkpt lat="44.39918" lon="5.59657">
        <ele>1077.9</ele>
        <time>2021-09-07T15:02:35Z</time>
      </trkpt>
      <trkpt lat="44.39918" lon="5.59657">
        <ele>1077.9</ele>
        <time>2021-09-07T15:02:36Z</time>
      </trkpt>
      <trkpt lat="44.39918" lon="5.59657">
        <ele>1077.9</ele>
        <time>2021-09-07T15:02:37Z</time>
      </trkpt>
      <trkpt lat="44.39918" lon="5.59657">
        <ele>1077.9</ele>
        <time>2021-09-07T15:02:38Z</time>
      </trkpt>
      <trkpt lat="44.39918" lon="5.59657">
        <ele>1077.9</ele>
        <time>2021-09-07T15:02:39Z</time>
      </trkpt>
      <trkpt lat="44.39918" lon="5.59657">
        <ele>1077.9</ele>
        <time>2021-09-07T15:02:40Z</time>
      </trkpt>
      <trkpt lat="44.39918" lon="5.59657">
        <ele>1077.9</ele>
        <time>2021-09-07T15:02:41Z</time>
      </trkpt>
      <trkpt lat="44.39918" lon="5.59657">
        <ele>1077.9</ele>
        <time>2021-09-07T15:02:42Z</time>
      </trkpt>
      <trkpt lat="44.39918" lon="5.59657">
        <ele>1077.9</ele>
        <time>2021-09-07T15:02:43Z</time>
      </trkpt>
      <trkpt lat="44.39918" lon="5.59657">
        <ele>1077.9</ele>
        <time>2021-09-07T15:02:44Z</time>
      </trkpt>
      <trkpt lat="44.39918" lon="5.59657">
        <ele>1077.9</ele>
        <time>2021-09-07T15:02:45Z</time>
      </trkpt>
      <trkpt lat="44.39918" lon="5.59657">
        <ele>1077.9</ele>
        <time>2021-09-07T15:02:46Z</time>
      </trkpt>
      <trkpt lat="44.39918" lon="5.59657">
        <ele>1077.9</ele>
        <time>2021-09-07T15:02:47Z</time>
      </trkpt>
      <trkpt lat="44.39918" lon="5.59657">
        <ele>1077.9</ele>
        <time>2021-09-07T15:02:48Z</time>
      </trkpt>
      <trkpt lat="44.39918" lon="5.59657">
        <ele>1077.9</ele>
        <time>2021-09-07T15:02:49Z</time>
      </trkpt>
      <trkpt lat="44.39918" lon="5.59657">
        <ele>1077.9</ele>
        <time>2021-09-07T15:02:50Z</time>
      </trkpt>
      <trkpt lat="44.39918" lon="5.59657">
        <ele>1077.9</ele>
        <time>2021-09-07T15:02:51Z</time>
      </trkpt>
      <trkpt lat="44.39918" lon="5.59657">
        <ele>1077.9</ele>
        <time>2021-09-07T15:02:52Z</time>
      </trkpt>
      <trkpt lat="44.39918" lon="5.59657">
        <ele>1077.9</ele>
        <time>2021-09-07T15:02:53Z</time>
      </trkpt>
      <trkpt lat="44.39918" lon="5.59657">
        <ele>1077.9</ele>
        <time>2021-09-07T15:02:54Z</time>
      </trkpt>
      <trkpt lat="44.39918" lon="5.59657">
        <ele>1077.9</ele>
        <time>2021-09-07T15:02:55Z</time>
      </trkpt>
      <trkpt lat="44.39917" lon="5.59658">
        <ele>1078</ele>
        <time>2021-09-07T15:02:56Z</time>
      </trkpt>
      <trkpt lat="44.39916" lon="5.59658">
        <ele>1078.1</ele>
        <time>2021-09-07T15:02:57Z</time>
      </trkpt>
      <trkpt lat="44.39915" lon="5.59658">
        <ele>1078.1</ele>
        <time>2021-09-07T15:02:58Z</time>
      </trkpt>
      <trkpt lat="44.39914" lon="5.59659">
        <ele>1078.2</ele>
        <time>2021-09-07T15:02:59Z</time>
      </trkpt>
      <trkpt lat="44.39911" lon="5.59659">
        <ele>1078.4</ele>
        <time>2021-09-07T15:03:00Z</time>
      </trkpt>
      <trkpt lat="44.3991" lon="5.59658">
        <ele>1078.5</ele>
        <time>2021-09-07T15:03:01Z</time>
      </trkpt>
      <trkpt lat="44.39909" lon="5.59659">
        <ele>1078.6</ele>
        <time>2021-09-07T15:03:02Z</time>
      </trkpt>
      <trkpt lat="44.39907" lon="5.59659">
        <ele>1078.7</ele>
        <time>2021-09-07T15:03:03Z</time>
      </trkpt>
      <trkpt lat="44.39906" lon="5.59659">
        <ele>1078.8</ele>
        <time>2021-09-07T15:03:04Z</time>
      </trkpt>
      <trkpt lat="44.39905" lon="5.59659">
        <ele>1078.9</ele>
        <time>2021-09-07T15:03:05Z</time>
      </trkpt>
      <trkpt lat="44.39902" lon="5.59658">
        <ele>1079.1</ele>
        <time>2021-09-07T15:03:06Z</time>
      </trkpt>
      <trkpt lat="44.39901" lon="5.59658">
        <ele>1079.1</ele>
        <time>2021-09-07T15:03:07Z</time>
      </trkpt>
      <trkpt lat="44.399" lon="5.59657">
        <ele>1079.2</ele>
        <time>2021-09-07T15:03:08Z</time>
      </trkpt>
      <trkpt lat="44.39899" lon="5.59656">
        <ele>1079.3</ele>
        <time>2021-09-07T15:03:09Z</time>
      </trkpt>
      <trkpt lat="44.39898" lon="5.59654">
        <ele>1079.4</ele>
        <time>2021-09-07T15:03:10Z</time>
      </trkpt>
      <trkpt lat="44.39897" lon="5.59653">
        <ele>1079.5</ele>
        <time>2021-09-07T15:03:11Z</time>
      </trkpt>
      <trkpt lat="44.39896" lon="5.59651">
        <ele>1079.6</ele>
        <time>2021-09-07T15:03:12Z</time>
      </trkpt>
      <trkpt lat="44.39895" lon="5.5965">
        <ele>1079.7</ele>
        <time>2021-09-07T15:03:13Z</time>
      </trkpt>
      <trkpt lat="44.39894" lon="5.59648">
        <ele>1079.9</ele>
        <time>2021-09-07T15:03:14Z</time>
      </trkpt>
      <trkpt lat="44.39893" lon="5.59645">
        <ele>1080</ele>
        <time>2021-09-07T15:03:15Z</time>
      </trkpt>
      <trkpt lat="44.39892" lon="5.59644">
        <ele>1080.1</ele>
        <time>2021-09-07T15:03:16Z</time>
      </trkpt>
      <trkpt lat="44.39891" lon="5.59642">
        <ele>1080.2</ele>
        <time>2021-09-07T15:03:17Z</time>
      </trkpt>
      <trkpt lat="44.39889" lon="5.59637">
        <ele>1080.4</ele>
        <time>2021-09-07T15:03:18Z</time>
      </trkpt>
      <trkpt lat="44.39888" lon="5.59634">
        <ele>1080.6</ele>
        <time>2021-09-07T15:03:19Z</time>
      </trkpt>
      <trkpt lat="44.39888" lon="5.59633">
        <ele>1080.6</ele>
        <time>2021-09-07T15:03:20Z</time>
      </trkpt>
      <trkpt lat="44.39887" lon="5.59631">
        <ele>1080.7</ele>
        <time>2021-09-07T15:03:21Z</time>
      </trkpt>
      <trkpt lat="44.39886" lon="5.59629">
        <ele>1080.8</ele>
        <time>2021-09-07T15:03:22Z</time>
      </trkpt>
      <trkpt lat="44.39886" lon="5.59627">
        <ele>1080.8</ele>
        <time>2021-09-07T15:03:23Z</time>
      </trkpt>
      <trkpt lat="44.39885" lon="5.59623">
        <ele>1080.9</ele>
        <time>2021-09-07T15:03:24Z</time>
      </trkpt>
      <trkpt lat="44.39884" lon="5.59621">
        <ele>1081</ele>
        <time>2021-09-07T15:03:25Z</time>
      </trkpt>
      <trkpt lat="44.39884" lon="5.5962">
        <ele>1081</ele>
        <time>2021-09-07T15:03:26Z</time>
      </trkpt>
      <trkpt lat="44.39884" lon="5.59619">
        <ele>1081</ele>
        <time>2021-09-07T15:03:27Z</time>
      </trkpt>
      <trkpt lat="44.39883" lon="5.59617">
        <ele>1081</ele>
        <time>2021-09-07T15:03:28Z</time>
      </trkpt>
      <trkpt lat="44.39883" lon="5.59615">
        <ele>1081.1</ele>
        <time>2021-09-07T15:03:29Z</time>
      </trkpt>
      <trkpt lat="44.39883" lon="5.59615">
        <ele>1081.1</ele>
        <time>2021-09-07T15:03:30Z</time>
      </trkpt>
      <trkpt lat="44.39883" lon="5.59614">
        <ele>1081.1</ele>
        <time>2021-09-07T15:03:31Z</time>
      </trkpt>
      <trkpt lat="44.39883" lon="5.59614">
        <ele>1081.1</ele>
        <time>2021-09-07T15:03:32Z</time>
      </trkpt>
      <trkpt lat="44.39883" lon="5.59615">
        <ele>1081.1</ele>
        <time>2021-09-07T15:03:33Z</time>
      </trkpt>
      <trkpt lat="44.39883" lon="5.59615">
        <ele>1081.1</ele>
        <time>2021-09-07T15:03:34Z</time>
      </trkpt>
      <trkpt lat="44.39883" lon="5.59614">
        <ele>1081.1</ele>
        <time>2021-09-07T15:03:35Z</time>
      </trkpt>
      <trkpt lat="44.39884" lon="5.59613">
        <ele>1081.1</ele>
        <time>2021-09-07T15:03:36Z</time>
      </trkpt>
      <trkpt lat="44.39884" lon="5.59612">
        <ele>1081.2</ele>
        <time>2021-09-07T15:03:37Z</time>
      </trkpt>
      <trkpt lat="44.39884" lon="5.5961">
        <ele>1081.2</ele>
        <time>2021-09-07T15:03:38Z</time>
      </trkpt>
      <trkpt lat="44.39885" lon="5.59608">
        <ele>1081.2</ele>
        <time>2021-09-07T15:03:39Z</time>
      </trkpt>
      <trkpt lat="44.39885" lon="5.59606">
        <ele>1081.3</ele>
        <time>2021-09-07T15:03:40Z</time>
      </trkpt>
      <trkpt lat="44.39885" lon="5.59602">
        <ele>1081.4</ele>
        <time>2021-09-07T15:03:41Z</time>
      </trkpt>
      <trkpt lat="44.39885" lon="5.59599">
        <ele>1081.5</ele>
        <time>2021-09-07T15:03:42Z</time>
      </trkpt>
      <trkpt lat="44.39885" lon="5.59595">
        <ele>1081.5</ele>
        <time>2021-09-07T15:03:43Z</time>
      </trkpt>
      <trkpt lat="44.39885" lon="5.59588">
        <ele>1081.7</ele>
        <time>2021-09-07T15:03:44Z</time>
      </trkpt>
      <trkpt lat="44.39885" lon="5.59582">
        <ele>1081.9</ele>
        <time>2021-09-07T15:03:45Z</time>
      </trkpt>
      <trkpt lat="44.39886" lon="5.59575">
        <ele>1082.1</ele>
        <time>2021-09-07T15:03:46Z</time>
      </trkpt>
      <trkpt lat="44.39886" lon="5.59571">
        <ele>1082.2</ele>
        <time>2021-09-07T15:03:47Z</time>
      </trkpt>
      <trkpt lat="44.39886" lon="5.59567">
        <ele>1082.4</ele>
        <time>2021-09-07T15:03:48Z</time>
      </trkpt>
      <trkpt lat="44.39886" lon="5.59563">
        <ele>1082.5</ele>
        <time>2021-09-07T15:03:49Z</time>
      </trkpt>
      <trkpt lat="44.39886" lon="5.59559">
        <ele>1082.6</ele>
        <time>2021-09-07T15:03:50Z</time>
      </trkpt>
      <trkpt lat="44.39885" lon="5.59554">
        <ele>1082.8</ele>
        <time>2021-09-07T15:03:51Z</time>
      </trkpt>
      <trkpt lat="44.39884" lon="5.59548">
        <ele>1082.9</ele>
        <time>2021-09-07T15:03:52Z</time>
      </trkpt>
      <trkpt lat="44.39883" lon="5.59546">
        <ele>1083</ele>
        <time>2021-09-07T15:03:53Z</time>
      </trkpt>
      <trkpt lat="44.39882" lon="5.59543">
        <ele>1083.1</ele>
        <time>2021-09-07T15:03:54Z</time>
      </trkpt>
      <trkpt lat="44.39881" lon="5.59538">
        <ele>1083.3</ele>
        <time>2021-09-07T15:03:55Z</time>
      </trkpt>
      <trkpt lat="44.3988" lon="5.59535">
        <ele>1083.4</ele>
        <time>2021-09-07T15:03:56Z</time>
      </trkpt>
      <trkpt lat="44.39879" lon="5.59532">
        <ele>1083.5</ele>
        <time>2021-09-07T15:03:57Z</time>
      </trkpt>
      <trkpt lat="44.39878" lon="5.59529">
        <ele>1083.6</ele>
        <time>2021-09-07T15:03:58Z</time>
      </trkpt>
      <trkpt lat="44.39876" lon="5.59526">
        <ele>1083.7</ele>
        <time>2021-09-07T15:03:59Z</time>
      </trkpt>
      <trkpt lat="44.39874" lon="5.59524">
        <ele>1083.9</ele>
        <time>2021-09-07T15:04:00Z</time>
      </trkpt>
      <trkpt lat="44.39873" lon="5.59522">
        <ele>1084</ele>
        <time>2021-09-07T15:04:01Z</time>
      </trkpt>
      <trkpt lat="44.39871" lon="5.59519">
        <ele>1084.1</ele>
        <time>2021-09-07T15:04:02Z</time>
      </trkpt>
      <trkpt lat="44.39869" lon="5.59515">
        <ele>1084.3</ele>
        <time>2021-09-07T15:04:03Z</time>
      </trkpt>
      <trkpt lat="44.39866" lon="5.5951">
        <ele>1084.6</ele>
        <time>2021-09-07T15:04:04Z</time>
      </trkpt>
      <trkpt lat="44.39865" lon="5.59508">
        <ele>1084.7</ele>
        <time>2021-09-07T15:04:05Z</time>
      </trkpt>
      <trkpt lat="44.39864" lon="5.59506">
        <ele>1084.8</ele>
        <time>2021-09-07T15:04:06Z</time>
      </trkpt>
      <trkpt lat="44.39863" lon="5.59503">
        <ele>1085</ele>
        <time>2021-09-07T15:04:07Z</time>
      </trkpt>
      <trkpt lat="44.39861" lon="5.595">
        <ele>1085.2</ele>
        <time>2021-09-07T15:04:08Z</time>
      </trkpt>
      <trkpt lat="44.39859" lon="5.59496">
        <ele>1085.4</ele>
        <time>2021-09-07T15:04:09Z</time>
      </trkpt>
      <trkpt lat="44.39857" lon="5.59491">
        <ele>1085.6</ele>
        <time>2021-09-07T15:04:10Z</time>
      </trkpt>
      <trkpt lat="44.39857" lon="5.59489">
        <ele>1085.7</ele>
        <time>2021-09-07T15:04:11Z</time>
      </trkpt>
      <trkpt lat="44.39856" lon="5.59487">
        <ele>1085.7</ele>
        <time>2021-09-07T15:04:12Z</time>
      </trkpt>
      <trkpt lat="44.39855" lon="5.59483">
        <ele>1085.9</ele>
        <time>2021-09-07T15:04:13Z</time>
      </trkpt>
      <trkpt lat="44.39853" lon="5.5948">
        <ele>1086</ele>
        <time>2021-09-07T15:04:14Z</time>
      </trkpt>
      <trkpt lat="44.39852" lon="5.59477">
        <ele>1086.1</ele>
        <time>2021-09-07T15:04:15Z</time>
      </trkpt>
      <trkpt lat="44.39851" lon="5.59474">
        <ele>1086.2</ele>
        <time>2021-09-07T15:04:16Z</time>
      </trkpt>
      <trkpt lat="44.3985" lon="5.59471">
        <ele>1086.3</ele>
        <time>2021-09-07T15:04:17Z</time>
      </trkpt>
      <trkpt lat="44.39849" lon="5.59469">
        <ele>1086.4</ele>
        <time>2021-09-07T15:04:18Z</time>
      </trkpt>
      <trkpt lat="44.39848" lon="5.59467">
        <ele>1086.5</ele>
        <time>2021-09-07T15:04:19Z</time>
      </trkpt>
      <trkpt lat="44.39847" lon="5.59465">
        <ele>1086.6</ele>
        <time>2021-09-07T15:04:20Z</time>
      </trkpt>
      <trkpt lat="44.39845" lon="5.59462">
        <ele>1086.8</ele>
        <time>2021-09-07T15:04:21Z</time>
      </trkpt>
      <trkpt lat="44.39844" lon="5.59461">
        <ele>1086.8</ele>
        <time>2021-09-07T15:04:22Z</time>
      </trkpt>
      <trkpt lat="44.39843" lon="5.5946">
        <ele>1086.9</ele>
        <time>2021-09-07T15:04:23Z</time>
      </trkpt>
      <trkpt lat="44.39841" lon="5.59458">
        <ele>1087</ele>
        <time>2021-09-07T15:04:24Z</time>
      </trkpt>
      <trkpt lat="44.3984" lon="5.59455">
        <ele>1087.2</ele>
        <time>2021-09-07T15:04:25Z</time>
      </trkpt>
      <trkpt lat="44.39839" lon="5.59455">
        <ele>1087.2</ele>
        <time>2021-09-07T15:04:26Z</time>
      </trkpt>
      <trkpt lat="44.39838" lon="5.59454">
        <ele>1087.3</ele>
        <time>2021-09-07T15:04:27Z</time>
      </trkpt>
      <trkpt lat="44.39837" lon="5.59452">
        <ele>1087.4</ele>
        <time>2021-09-07T15:04:28Z</time>
      </trkpt>
      <trkpt lat="44.39835" lon="5.59451">
        <ele>1087.3</ele>
        <time>2021-09-07T15:04:29Z</time>
      </trkpt>
      <trkpt lat="44.39834" lon="5.5945">
        <ele>1087.3</ele>
        <time>2021-09-07T15:04:30Z</time>
      </trkpt>
      <trkpt lat="44.39833" lon="5.59448">
        <ele>1087.2</ele>
        <time>2021-09-07T15:04:31Z</time>
      </trkpt>
      <trkpt lat="44.39832" lon="5.59447">
        <ele>1087.2</ele>
        <time>2021-09-07T15:04:32Z</time>
      </trkpt>
      <trkpt lat="44.39832" lon="5.59447">
        <ele>1087.2</ele>
        <time>2021-09-07T15:04:33Z</time>
      </trkpt>
      <trkpt lat="44.39832" lon="5.59446">
        <ele>1087.2</ele>
        <time>2021-09-07T15:04:34Z</time>
      </trkpt>
      <trkpt lat="44.39831" lon="5.59447">
        <ele>1087.1</ele>
        <time>2021-09-07T15:04:35Z</time>
      </trkpt>
      <trkpt lat="44.39831" lon="5.59447">
        <ele>1087.1</ele>
        <time>2021-09-07T15:04:36Z</time>
      </trkpt>
      <trkpt lat="44.39831" lon="5.59447">
        <ele>1087.1</ele>
        <time>2021-09-07T15:04:37Z</time>
      </trkpt>
      <trkpt lat="44.39831" lon="5.59447">
        <ele>1087.1</ele>
        <time>2021-09-07T15:04:38Z</time>
      </trkpt>
      <trkpt lat="44.39831" lon="5.59449">
        <ele>1087.1</ele>
        <time>2021-09-07T15:04:39Z</time>
      </trkpt>
      <trkpt lat="44.39831" lon="5.5945">
        <ele>1087.1</ele>
        <time>2021-09-07T15:04:40Z</time>
      </trkpt>
      <trkpt lat="44.39832" lon="5.59452">
        <ele>1087</ele>
        <time>2021-09-07T15:04:41Z</time>
      </trkpt>
      <trkpt lat="44.39833" lon="5.59454">
        <ele>1086.9</ele>
        <time>2021-09-07T15:04:42Z</time>
      </trkpt>
      <trkpt lat="44.39836" lon="5.59457">
        <ele>1086.8</ele>
        <time>2021-09-07T15:04:43Z</time>
      </trkpt>
      <trkpt lat="44.39838" lon="5.59459">
        <ele>1086.7</ele>
        <time>2021-09-07T15:04:44Z</time>
      </trkpt>
      <trkpt lat="44.3984" lon="5.59463">
        <ele>1086.6</ele>
        <time>2021-09-07T15:04:45Z</time>
      </trkpt>
      <trkpt lat="44.39843" lon="5.5947">
        <ele>1086.5</ele>
        <time>2021-09-07T15:04:46Z</time>
      </trkpt>
      <trkpt lat="44.39843" lon="5.59474">
        <ele>1086.4</ele>
        <time>2021-09-07T15:04:47Z</time>
      </trkpt>
      <trkpt lat="44.39843" lon="5.59477">
        <ele>1086.3</ele>
        <time>2021-09-07T15:04:48Z</time>
      </trkpt>
      <trkpt lat="44.39844" lon="5.59482">
        <ele>1086.2</ele>
        <time>2021-09-07T15:04:49Z</time>
      </trkpt>
      <trkpt lat="44.39844" lon="5.59486">
        <ele>1084.9</ele>
        <time>2021-09-07T15:04:50Z</time>
      </trkpt>
      <trkpt lat="44.3984" lon="5.59493">
        <ele>1084.4</ele>
        <time>2021-09-07T15:04:51Z</time>
      </trkpt>
      <trkpt lat="44.39838" lon="5.59496">
        <ele>1084.1</ele>
        <time>2021-09-07T15:04:52Z</time>
      </trkpt>
      <trkpt lat="44.39835" lon="5.59499">
        <ele>1083.9</ele>
        <time>2021-09-07T15:04:53Z</time>
      </trkpt>
      <trkpt lat="44.39832" lon="5.59504">
        <ele>1083.5</ele>
        <time>2021-09-07T15:04:54Z</time>
      </trkpt>
      <trkpt lat="44.39829" lon="5.59508">
        <ele>1083.2</ele>
        <time>2021-09-07T15:04:55Z</time>
      </trkpt>
      <trkpt lat="44.39826" lon="5.59512">
        <ele>1082.8</ele>
        <time>2021-09-07T15:04:56Z</time>
      </trkpt>
      <trkpt lat="44.39824" lon="5.59517">
        <ele>1082.5</ele>
        <time>2021-09-07T15:04:57Z</time>
      </trkpt>
      <trkpt lat="44.39821" lon="5.59521">
        <ele>1082.2</ele>
        <time>2021-09-07T15:04:58Z</time>
      </trkpt>
      <trkpt lat="44.39818" lon="5.59531">
        <ele>1081.6</ele>
        <time>2021-09-07T15:04:59Z</time>
      </trkpt>
      <trkpt lat="44.39816" lon="5.5954">
        <ele>1081.1</ele>
        <time>2021-09-07T15:05:00Z</time>
      </trkpt>
      <trkpt lat="44.39814" lon="5.59549">
        <ele>1080.6</ele>
        <time>2021-09-07T15:05:01Z</time>
      </trkpt>
      <trkpt lat="44.39813" lon="5.59559">
        <ele>1080</ele>
        <time>2021-09-07T15:05:02Z</time>
      </trkpt>
      <trkpt lat="44.39811" lon="5.59568">
        <ele>1079.5</ele>
        <time>2021-09-07T15:05:03Z</time>
      </trkpt>
      <trkpt lat="44.39811" lon="5.59577">
        <ele>1079</ele>
        <time>2021-09-07T15:05:04Z</time>
      </trkpt>
      <trkpt lat="44.39812" lon="5.59588">
        <ele>1078.4</ele>
        <time>2021-09-07T15:05:05Z</time>
      </trkpt>
      <trkpt lat="44.39813" lon="5.59598">
        <ele>1077.8</ele>
        <time>2021-09-07T15:05:06Z</time>
      </trkpt>
      <trkpt lat="44.39814" lon="5.59608">
        <ele>1077.3</ele>
        <time>2021-09-07T15:05:07Z</time>
      </trkpt>
      <trkpt lat="44.39816" lon="5.59619">
        <ele>1076.6</ele>
        <time>2021-09-07T15:05:08Z</time>
      </trkpt>
      <trkpt lat="44.39818" lon="5.5963">
        <ele>1076</ele>
        <time>2021-09-07T15:05:09Z</time>
      </trkpt>
      <trkpt lat="44.3982" lon="5.5964">
        <ele>1075.4</ele>
        <time>2021-09-07T15:05:10Z</time>
      </trkpt>
      <trkpt lat="44.39823" lon="5.59651">
        <ele>1074.8</ele>
        <time>2021-09-07T15:05:11Z</time>
      </trkpt>
      <trkpt lat="44.39826" lon="5.59661">
        <ele>1074.2</ele>
        <time>2021-09-07T15:05:12Z</time>
      </trkpt>
      <trkpt lat="44.39829" lon="5.5967">
        <ele>1073.6</ele>
        <time>2021-09-07T15:05:13Z</time>
      </trkpt>
      <trkpt lat="44.39832" lon="5.59679">
        <ele>1073.1</ele>
        <time>2021-09-07T15:05:14Z</time>
      </trkpt>
      <trkpt lat="44.39835" lon="5.59688">
        <ele>1072.5</ele>
        <time>2021-09-07T15:05:15Z</time>
      </trkpt>
      <trkpt lat="44.39838" lon="5.59697">
        <ele>1072</ele>
        <time>2021-09-07T15:05:16Z</time>
      </trkpt>
      <trkpt lat="44.39841" lon="5.59704">
        <ele>1071.5</ele>
        <time>2021-09-07T15:05:17Z</time>
      </trkpt>
      <trkpt lat="44.39844" lon="5.59711">
        <ele>1071.1</ele>
        <time>2021-09-07T15:05:18Z</time>
      </trkpt>
      <trkpt lat="44.39847" lon="5.59716">
        <ele>1070.7</ele>
        <time>2021-09-07T15:05:19Z</time>
      </trkpt>
      <trkpt lat="44.3985" lon="5.59722">
        <ele>1070.4</ele>
        <time>2021-09-07T15:05:20Z</time>
      </trkpt>
      <trkpt lat="44.39852" lon="5.59727">
        <ele>1070</ele>
        <time>2021-09-07T15:05:21Z</time>
      </trkpt>
      <trkpt lat="44.39854" lon="5.59733">
        <ele>1069.6</ele>
        <time>2021-09-07T15:05:22Z</time>
      </trkpt>
      <trkpt lat="44.39855" lon="5.59739">
        <ele>1069.3</ele>
        <time>2021-09-07T15:05:23Z</time>
      </trkpt>
      <trkpt lat="44.39856" lon="5.59744">
        <ele>1069</ele>
        <time>2021-09-07T15:05:24Z</time>
      </trkpt>
      <trkpt lat="44.39857" lon="5.59749">
        <ele>1068.7</ele>
        <time>2021-09-07T15:05:25Z</time>
      </trkpt>
      <trkpt lat="44.39859" lon="5.59755">
        <ele>1068.4</ele>
        <time>2021-09-07T15:05:26Z</time>
      </trkpt>
      <trkpt lat="44.3986" lon="5.5976">
        <ele>1068.1</ele>
        <time>2021-09-07T15:05:27Z</time>
      </trkpt>
      <trkpt lat="44.39861" lon="5.59765">
        <ele>1067.8</ele>
        <time>2021-09-07T15:05:28Z</time>
      </trkpt>
      <trkpt lat="44.39861" lon="5.59772">
        <ele>1067.4</ele>
        <time>2021-09-07T15:05:29Z</time>
      </trkpt>
      <trkpt lat="44.39861" lon="5.59778">
        <ele>1067.1</ele>
        <time>2021-09-07T15:05:30Z</time>
      </trkpt>
      <trkpt lat="44.3986" lon="5.59786">
        <ele>1066.6</ele>
        <time>2021-09-07T15:05:31Z</time>
      </trkpt>
      <trkpt lat="44.39859" lon="5.59796">
        <ele>1066.1</ele>
        <time>2021-09-07T15:05:32Z</time>
      </trkpt>
      <trkpt lat="44.39856" lon="5.59805">
        <ele>1065.5</ele>
        <time>2021-09-07T15:05:33Z</time>
      </trkpt>
      <trkpt lat="44.39853" lon="5.59814">
        <ele>1065</ele>
        <time>2021-09-07T15:05:34Z</time>
      </trkpt>
      <trkpt lat="44.39851" lon="5.59824">
        <ele>1064.4</ele>
        <time>2021-09-07T15:05:35Z</time>
      </trkpt>
      <trkpt lat="44.39848" lon="5.59833">
        <ele>1063.8</ele>
        <time>2021-09-07T15:05:36Z</time>
      </trkpt>
      <trkpt lat="44.39843" lon="5.59844">
        <ele>1063.1</ele>
        <time>2021-09-07T15:05:37Z</time>
      </trkpt>
      <trkpt lat="44.39839" lon="5.59855">
        <ele>1062.4</ele>
        <time>2021-09-07T15:05:38Z</time>
      </trkpt>
      <trkpt lat="44.39834" lon="5.59865">
        <ele>1061.8</ele>
        <time>2021-09-07T15:05:39Z</time>
      </trkpt>
      <trkpt lat="44.3983" lon="5.59877">
        <ele>1061</ele>
        <time>2021-09-07T15:05:40Z</time>
      </trkpt>
      <trkpt lat="44.39825" lon="5.59888">
        <ele>1060.3</ele>
        <time>2021-09-07T15:05:41Z</time>
      </trkpt>
      <trkpt lat="44.39821" lon="5.59899">
        <ele>1059.6</ele>
        <time>2021-09-07T15:05:42Z</time>
      </trkpt>
      <trkpt lat="44.39816" lon="5.5991">
        <ele>1058.9</ele>
        <time>2021-09-07T15:05:43Z</time>
      </trkpt>
      <trkpt lat="44.39811" lon="5.59921">
        <ele>1058.2</ele>
        <time>2021-09-07T15:05:44Z</time>
      </trkpt>
      <trkpt lat="44.39807" lon="5.59932">
        <ele>1057.5</ele>
        <time>2021-09-07T15:05:45Z</time>
      </trkpt>
      <trkpt lat="44.39802" lon="5.59942">
        <ele>1056.8</ele>
        <time>2021-09-07T15:05:46Z</time>
      </trkpt>
      <trkpt lat="44.39797" lon="5.59953">
        <ele>1056.1</ele>
        <time>2021-09-07T15:05:47Z</time>
      </trkpt>
      <trkpt lat="44.39792" lon="5.59963">
        <ele>1055.4</ele>
        <time>2021-09-07T15:05:48Z</time>
      </trkpt>
      <trkpt lat="44.39787" lon="5.59973">
        <ele>1054.8</ele>
        <time>2021-09-07T15:05:49Z</time>
      </trkpt>
      <trkpt lat="44.39781" lon="5.59982">
        <ele>1054.1</ele>
        <time>2021-09-07T15:05:50Z</time>
      </trkpt>
      <trkpt lat="44.39775" lon="5.59992">
        <ele>1053.4</ele>
        <time>2021-09-07T15:05:51Z</time>
      </trkpt>
      <trkpt lat="44.39769" lon="5.60002">
        <ele>1052.6</ele>
        <time>2021-09-07T15:05:52Z</time>
      </trkpt>
      <trkpt lat="44.39763" lon="5.60013">
        <ele>1051.9</ele>
        <time>2021-09-07T15:05:53Z</time>
      </trkpt>
      <trkpt lat="44.39756" lon="5.60023">
        <ele>1051.1</ele>
        <time>2021-09-07T15:05:54Z</time>
      </trkpt>
      <trkpt lat="44.39749" lon="5.60033">
        <ele>1050.3</ele>
        <time>2021-09-07T15:05:55Z</time>
      </trkpt>
      <trkpt lat="44.39741" lon="5.60042">
        <ele>1049.5</ele>
        <time>2021-09-07T15:05:56Z</time>
      </trkpt>
      <trkpt lat="44.39735" lon="5.60052">
        <ele>1048.8</ele>
        <time>2021-09-07T15:05:57Z</time>
      </trkpt>
      <trkpt lat="44.39728" lon="5.60062">
        <ele>1048</ele>
        <time>2021-09-07T15:05:58Z</time>
      </trkpt>
      <trkpt lat="44.39722" lon="5.60072">
        <ele>1047.3</ele>
        <time>2021-09-07T15:05:59Z</time>
      </trkpt>
      <trkpt lat="44.39716" lon="5.60083">
        <ele>1046.5</ele>
        <time>2021-09-07T15:06:00Z</time>
      </trkpt>
      <trkpt lat="44.39712" lon="5.60095">
        <ele>1045.8</ele>
        <time>2021-09-07T15:06:01Z</time>
      </trkpt>
      <trkpt lat="44.39707" lon="5.60106">
        <ele>1045.1</ele>
        <time>2021-09-07T15:06:02Z</time>
      </trkpt>
      <trkpt lat="44.39703" lon="5.60118">
        <ele>1044.4</ele>
        <time>2021-09-07T15:06:03Z</time>
      </trkpt>
      <trkpt lat="44.39699" lon="5.6013">
        <ele>1043.6</ele>
        <time>2021-09-07T15:06:04Z</time>
      </trkpt>
      <trkpt lat="44.39697" lon="5.60143">
        <ele>1042.9</ele>
        <time>2021-09-07T15:06:05Z</time>
      </trkpt>
      <trkpt lat="44.39694" lon="5.60155">
        <ele>1042.2</ele>
        <time>2021-09-07T15:06:06Z</time>
      </trkpt>
      <trkpt lat="44.39693" lon="5.60166">
        <ele>1041.6</ele>
        <time>2021-09-07T15:06:07Z</time>
      </trkpt>
      <trkpt lat="44.39691" lon="5.60176">
        <ele>1041</ele>
        <time>2021-09-07T15:06:08Z</time>
      </trkpt>
      <trkpt lat="44.39691" lon="5.60184">
        <ele>1040.6</ele>
        <time>2021-09-07T15:06:09Z</time>
      </trkpt>
      <trkpt lat="44.39691" lon="5.6019">
        <ele>1040.2</ele>
        <time>2021-09-07T15:06:10Z</time>
      </trkpt>
      <trkpt lat="44.39691" lon="5.60193">
        <ele>1040.1</ele>
        <time>2021-09-07T15:06:11Z</time>
      </trkpt>
      <trkpt lat="44.39691" lon="5.60195">
        <ele>1040</ele>
        <time>2021-09-07T15:06:12Z</time>
      </trkpt>
      <trkpt lat="44.39691" lon="5.60198">
        <ele>1039.8</ele>
        <time>2021-09-07T15:06:13Z</time>
      </trkpt>
      <trkpt lat="44.3969" lon="5.602">
        <ele>1039.7</ele>
        <time>2021-09-07T15:06:14Z</time>
      </trkpt>
      <trkpt lat="44.3969" lon="5.60202">
        <ele>1039.6</ele>
        <time>2021-09-07T15:06:15Z</time>
      </trkpt>
      <trkpt lat="44.39689" lon="5.60203">
        <ele>1039.5</ele>
        <time>2021-09-07T15:06:16Z</time>
      </trkpt>
      <trkpt lat="44.39688" lon="5.60204">
        <ele>1039.4</ele>
        <time>2021-09-07T15:06:17Z</time>
      </trkpt>
      <trkpt lat="44.39688" lon="5.60205">
        <ele>1039.3</ele>
        <time>2021-09-07T15:06:18Z</time>
      </trkpt>
      <trkpt lat="44.39687" lon="5.60205">
        <ele>1039.3</ele>
        <time>2021-09-07T15:06:19Z</time>
      </trkpt>
      <trkpt lat="44.39687" lon="5.60205">
        <ele>1039.3</ele>
        <time>2021-09-07T15:06:20Z</time>
      </trkpt>
      <trkpt lat="44.39687" lon="5.60205">
        <ele>1039.3</ele>
        <time>2021-09-07T15:06:21Z</time>
      </trkpt>
      <trkpt lat="44.39687" lon="5.60205">
        <ele>1039.3</ele>
        <time>2021-09-07T15:06:22Z</time>
      </trkpt>
      <trkpt lat="44.39687" lon="5.60205">
        <ele>1039.3</ele>
        <time>2021-09-07T15:06:23Z</time>
      </trkpt>
      <trkpt lat="44.39687" lon="5.60205">
        <ele>1039.3</ele>
        <time>2021-09-07T15:06:24Z</time>
      </trkpt>
      <trkpt lat="44.39687" lon="5.60205">
        <ele>1039.3</ele>
        <time>2021-09-07T15:06:25Z</time>
      </trkpt>
      <trkpt lat="44.39687" lon="5.60205">
        <ele>1039.3</ele>
        <time>2021-09-07T15:06:26Z</time>
      </trkpt>
      <trkpt lat="44.39687" lon="5.60205">
        <ele>1039.3</ele>
        <time>2021-09-07T15:06:27Z</time>
      </trkpt>
      <trkpt lat="44.39687" lon="5.60205">
        <ele>1039.3</ele>
        <time>2021-09-07T15:06:28Z</time>
      </trkpt>
      <trkpt lat="44.39687" lon="5.60205">
        <ele>1039.3</ele>
        <time>2021-09-07T15:06:29Z</time>
      </trkpt>
      <trkpt lat="44.39687" lon="5.60205">
        <ele>1039.3</ele>
        <time>2021-09-07T15:06:30Z</time>
      </trkpt>
      <trkpt lat="44.39687" lon="5.60205">
        <ele>1039.3</ele>
        <time>2021-09-07T15:06:31Z</time>
      </trkpt>
      <trkpt lat="44.39687" lon="5.60205">
        <ele>1039.3</ele>
        <time>2021-09-07T15:06:32Z</time>
      </trkpt>
      <trkpt lat="44.39687" lon="5.60205">
        <ele>1039.3</ele>
        <time>2021-09-07T15:06:33Z</time>
      </trkpt>
      <trkpt lat="44.39687" lon="5.60205">
        <ele>1039.3</ele>
        <time>2021-09-07T15:06:34Z</time>
      </trkpt>
      <trkpt lat="44.39687" lon="5.60205">
        <ele>1039.3</ele>
        <time>2021-09-07T15:06:35Z</time>
      </trkpt>
      <trkpt lat="44.39687" lon="5.60205">
        <ele>1039.3</ele>
        <time>2021-09-07T15:06:36Z</time>
      </trkpt>
      <trkpt lat="44.39687" lon="5.60205">
        <ele>1039.3</ele>
        <time>2021-09-07T15:06:37Z</time>
      </trkpt>
      <trkpt lat="44.39687" lon="5.60205">
        <ele>1039.3</ele>
        <time>2021-09-07T15:06:38Z</time>
      </trkpt>
      <trkpt lat="44.39687" lon="5.60205">
        <ele>1039.3</ele>
        <time>2021-09-07T15:06:39Z</time>
      </trkpt>
      <trkpt lat="44.39687" lon="5.60205">
        <ele>1039.3</ele>
        <time>2021-09-07T15:06:40Z</time>
      </trkpt>
      <trkpt lat="44.39687" lon="5.60205">
        <ele>1039.3</ele>
        <time>2021-09-07T15:06:41Z</time>
      </trkpt>
      <trkpt lat="44.39687" lon="5.60205">
        <ele>1039.3</ele>
        <time>2021-09-07T15:06:42Z</time>
      </trkpt>
      <trkpt lat="44.39687" lon="5.60205">
        <ele>1039.3</ele>
        <time>2021-09-07T15:06:43Z</time>
      </trkpt>
      <trkpt lat="44.39687" lon="5.60205">
        <ele>1039.3</ele>
        <time>2021-09-07T15:06:44Z</time>
      </trkpt>
      <trkpt lat="44.39687" lon="5.60205">
        <ele>1039.3</ele>
        <time>2021-09-07T15:06:45Z</time>
      </trkpt>
      <trkpt lat="44.39687" lon="5.60205">
        <ele>1039.3</ele>
        <time>2021-09-07T15:06:46Z</time>
      </trkpt>
      <trkpt lat="44.39687" lon="5.60207">
        <ele>1039.2</ele>
        <time>2021-09-07T15:06:47Z</time>
      </trkpt>
      <trkpt lat="44.39687" lon="5.60209">
        <ele>1039.1</ele>
        <time>2021-09-07T15:06:48Z</time>
      </trkpt>
      <trkpt lat="44.39689" lon="5.60212">
        <ele>1038.8</ele>
        <time>2021-09-07T15:06:49Z</time>
      </trkpt>
      <trkpt lat="44.39691" lon="5.60215">
        <ele>1038.6</ele>
        <time>2021-09-07T15:06:50Z</time>
      </trkpt>
      <trkpt lat="44.39695" lon="5.60216">
        <ele>1038.3</ele>
        <time>2021-09-07T15:06:51Z</time>
      </trkpt>
      <trkpt lat="44.39698" lon="5.60217">
        <ele>1034.9</ele>
        <time>2021-09-07T15:06:52Z</time>
      </trkpt>
      <trkpt lat="44.39703" lon="5.60216">
        <ele>1034.7</ele>
        <time>2021-09-07T15:06:53Z</time>
      </trkpt>
      <trkpt lat="44.39706" lon="5.60213">
        <ele>1034.6</ele>
        <time>2021-09-07T15:06:54Z</time>
      </trkpt>
      <trkpt lat="44.39709" lon="5.60209">
        <ele>1034.4</ele>
        <time>2021-09-07T15:06:55Z</time>
      </trkpt>
      <trkpt lat="44.39712" lon="5.60205">
        <ele>1034.3</ele>
        <time>2021-09-07T15:06:56Z</time>
      </trkpt>
      <trkpt lat="44.39716" lon="5.60199">
        <ele>1034.2</ele>
        <time>2021-09-07T15:06:57Z</time>
      </trkpt>
      <trkpt lat="44.39719" lon="5.60193">
        <ele>1034.1</ele>
        <time>2021-09-07T15:06:58Z</time>
      </trkpt>
      <trkpt lat="44.39723" lon="5.60188">
        <ele>1034</ele>
        <time>2021-09-07T15:06:59Z</time>
      </trkpt>
      <trkpt lat="44.39726" lon="5.60182">
        <ele>1034</ele>
        <time>2021-09-07T15:07:00Z</time>
      </trkpt>
      <trkpt lat="44.39731" lon="5.60178">
        <ele>1034</ele>
        <time>2021-09-07T15:07:01Z</time>
      </trkpt>
      <trkpt lat="44.39735" lon="5.60174">
        <ele>1034</ele>
        <time>2021-09-07T15:07:02Z</time>
      </trkpt>
      <trkpt lat="44.39741" lon="5.60172">
        <ele>1034</ele>
        <time>2021-09-07T15:07:03Z</time>
      </trkpt>
      <trkpt lat="44.39746" lon="5.60169">
        <ele>1034.1</ele>
        <time>2021-09-07T15:07:04Z</time>
      </trkpt>
      <trkpt lat="44.39751" lon="5.60168">
        <ele>1034.1</ele>
        <time>2021-09-07T15:07:05Z</time>
      </trkpt>
      <trkpt lat="44.39757" lon="5.60166">
        <ele>1034.3</ele>
        <time>2021-09-07T15:07:06Z</time>
      </trkpt>
      <trkpt lat="44.39762" lon="5.60165">
        <ele>1034.4</ele>
        <time>2021-09-07T15:07:07Z</time>
      </trkpt>
      <trkpt lat="44.39767" lon="5.60163">
        <ele>1034.5</ele>
        <time>2021-09-07T15:07:08Z</time>
      </trkpt>
      <trkpt lat="44.39772" lon="5.60162">
        <ele>1034.6</ele>
        <time>2021-09-07T15:07:09Z</time>
      </trkpt>
      <trkpt lat="44.39777" lon="5.60162">
        <ele>1034.8</ele>
        <time>2021-09-07T15:07:10Z</time>
      </trkpt>
      <trkpt lat="44.39782" lon="5.60162">
        <ele>1034.9</ele>
        <time>2021-09-07T15:07:11Z</time>
      </trkpt>
      <trkpt lat="44.39786" lon="5.60162">
        <ele>1034.9</ele>
        <time>2021-09-07T15:07:12Z</time>
      </trkpt>
      <trkpt lat="44.39791" lon="5.60164">
        <ele>1034.9</ele>
        <time>2021-09-07T15:07:13Z</time>
      </trkpt>
      <trkpt lat="44.39796" lon="5.60167">
        <ele>1034.9</ele>
        <time>2021-09-07T15:07:14Z</time>
      </trkpt>
      <trkpt lat="44.39799" lon="5.60172">
        <ele>1034.4</ele>
        <time>2021-09-07T15:07:15Z</time>
      </trkpt>
      <trkpt lat="44.39802" lon="5.60176">
        <ele>1033.9</ele>
        <time>2021-09-07T15:07:16Z</time>
      </trkpt>
      <trkpt lat="44.39803" lon="5.60182">
        <ele>1033.4</ele>
        <time>2021-09-07T15:07:17Z</time>
      </trkpt>
      <trkpt lat="44.39803" lon="5.60187">
        <ele>1033.1</ele>
        <time>2021-09-07T15:07:18Z</time>
      </trkpt>
      <trkpt lat="44.39803" lon="5.60196">
        <ele>1032.5</ele>
        <time>2021-09-07T15:07:19Z</time>
      </trkpt>
      <trkpt lat="44.39802" lon="5.60204">
        <ele>1032</ele>
        <time>2021-09-07T15:07:20Z</time>
      </trkpt>
      <trkpt lat="44.39802" lon="5.60213">
        <ele>1031.5</ele>
        <time>2021-09-07T15:07:21Z</time>
      </trkpt>
      <trkpt lat="44.39802" lon="5.60222">
        <ele>1031.1</ele>
        <time>2021-09-07T15:07:22Z</time>
      </trkpt>
      <trkpt lat="44.39801" lon="5.60231">
        <ele>1030.8</ele>
        <time>2021-09-07T15:07:23Z</time>
      </trkpt>
      <trkpt lat="44.39801" lon="5.6024">
        <ele>1030.5</ele>
        <time>2021-09-07T15:07:24Z</time>
      </trkpt>
      <trkpt lat="44.39801" lon="5.60249">
        <ele>1030.3</ele>
        <time>2021-09-07T15:07:25Z</time>
      </trkpt>
      <trkpt lat="44.398" lon="5.60258">
        <ele>1030.1</ele>
        <time>2021-09-07T15:07:26Z</time>
      </trkpt>
      <trkpt lat="44.39801" lon="5.60266">
        <ele>1029.9</ele>
        <time>2021-09-07T15:07:27Z</time>
      </trkpt>
      <trkpt lat="44.39801" lon="5.60274">
        <ele>1029.8</ele>
        <time>2021-09-07T15:07:28Z</time>
      </trkpt>
      <trkpt lat="44.39802" lon="5.60282">
        <ele>1029.7</ele>
        <time>2021-09-07T15:07:29Z</time>
      </trkpt>
      <trkpt lat="44.39803" lon="5.6029">
        <ele>1029.7</ele>
        <time>2021-09-07T15:07:30Z</time>
      </trkpt>
      <trkpt lat="44.39804" lon="5.60296">
        <ele>1029.7</ele>
        <time>2021-09-07T15:07:31Z</time>
      </trkpt>
      <trkpt lat="44.39806" lon="5.60303">
        <ele>1029.8</ele>
        <time>2021-09-07T15:07:32Z</time>
      </trkpt>
      <trkpt lat="44.39807" lon="5.60309">
        <ele>1029.8</ele>
        <time>2021-09-07T15:07:33Z</time>
      </trkpt>
      <trkpt lat="44.39808" lon="5.60314">
        <ele>1029.9</ele>
        <time>2021-09-07T15:07:34Z</time>
      </trkpt>
      <trkpt lat="44.39809" lon="5.6032">
        <ele>1030</ele>
        <time>2021-09-07T15:07:35Z</time>
      </trkpt>
      <trkpt lat="44.39811" lon="5.60327">
        <ele>1030</ele>
        <time>2021-09-07T15:07:36Z</time>
      </trkpt>
      <trkpt lat="44.39812" lon="5.60333">
        <ele>1030.1</ele>
        <time>2021-09-07T15:07:37Z</time>
      </trkpt>
      <trkpt lat="44.39813" lon="5.60338">
        <ele>1030.2</ele>
        <time>2021-09-07T15:07:38Z</time>
      </trkpt>
      <trkpt lat="44.39815" lon="5.60343">
        <ele>1030.2</ele>
        <time>2021-09-07T15:07:39Z</time>
      </trkpt>
      <trkpt lat="44.39816" lon="5.60348">
        <ele>1030.3</ele>
        <time>2021-09-07T15:07:40Z</time>
      </trkpt>
      <trkpt lat="44.39817" lon="5.60352">
        <ele>1030.4</ele>
        <time>2021-09-07T15:07:41Z</time>
      </trkpt>
      <trkpt lat="44.39818" lon="5.60356">
        <ele>1030.4</ele>
        <time>2021-09-07T15:07:42Z</time>
      </trkpt>
      <trkpt lat="44.39819" lon="5.60361">
        <ele>1030.5</ele>
        <time>2021-09-07T15:07:43Z</time>
      </trkpt>
      <trkpt lat="44.3982" lon="5.60365">
        <ele>1030.6</ele>
        <time>2021-09-07T15:07:44Z</time>
      </trkpt>
      <trkpt lat="44.39821" lon="5.60369">
        <ele>1030.6</ele>
        <time>2021-09-07T15:07:45Z</time>
      </trkpt>
      <trkpt lat="44.39821" lon="5.60373">
        <ele>1030.7</ele>
        <time>2021-09-07T15:07:46Z</time>
      </trkpt>
      <trkpt lat="44.39822" lon="5.60378">
        <ele>1030.8</ele>
        <time>2021-09-07T15:07:47Z</time>
      </trkpt>
      <trkpt lat="44.39823" lon="5.60381">
        <ele>1030.9</ele>
        <time>2021-09-07T15:07:48Z</time>
      </trkpt>
      <trkpt lat="44.39824" lon="5.60384">
        <ele>1031</ele>
        <time>2021-09-07T15:07:49Z</time>
      </trkpt>
      <trkpt lat="44.39825" lon="5.60387">
        <ele>1031</ele>
        <time>2021-09-07T15:07:50Z</time>
      </trkpt>
      <trkpt lat="44.39826" lon="5.6039">
        <ele>1031.1</ele>
        <time>2021-09-07T15:07:51Z</time>
      </trkpt>
      <trkpt lat="44.39828" lon="5.60393">
        <ele>1031.2</ele>
        <time>2021-09-07T15:07:52Z</time>
      </trkpt>
      <trkpt lat="44.39829" lon="5.60396">
        <ele>1031.2</ele>
        <time>2021-09-07T15:07:53Z</time>
      </trkpt>
      <trkpt lat="44.39831" lon="5.60399">
        <ele>1031.3</ele>
        <time>2021-09-07T15:07:54Z</time>
      </trkpt>
      <trkpt lat="44.39833" lon="5.60402">
        <ele>1031.4</ele>
        <time>2021-09-07T15:07:55Z</time>
      </trkpt>
      <trkpt lat="44.39834" lon="5.60404">
        <ele>1031.5</ele>
        <time>2021-09-07T15:07:56Z</time>
      </trkpt>
      <trkpt lat="44.39836" lon="5.60407">
        <ele>1031.5</ele>
        <time>2021-09-07T15:07:57Z</time>
      </trkpt>
      <trkpt lat="44.39838" lon="5.60411">
        <ele>1031.6</ele>
        <time>2021-09-07T15:07:58Z</time>
      </trkpt>
      <trkpt lat="44.39839" lon="5.60414">
        <ele>1031.6</ele>
        <time>2021-09-07T15:07:59Z</time>
      </trkpt>
      <trkpt lat="44.39841" lon="5.60419">
        <ele>1031.6</ele>
        <time>2021-09-07T15:08:00Z</time>
      </trkpt>
      <trkpt lat="44.39842" lon="5.60423">
        <ele>1031.6</ele>
        <time>2021-09-07T15:08:01Z</time>
      </trkpt>
      <trkpt lat="44.39843" lon="5.60427">
        <ele>1031.6</ele>
        <time>2021-09-07T15:08:02Z</time>
      </trkpt>
      <trkpt lat="44.39844" lon="5.60431">
        <ele>1031.5</ele>
        <time>2021-09-07T15:08:03Z</time>
      </trkpt>
      <trkpt lat="44.39845" lon="5.60435">
        <ele>1031.4</ele>
        <time>2021-09-07T15:08:04Z</time>
      </trkpt>
      <trkpt lat="44.39846" lon="5.6044">
        <ele>1031.2</ele>
        <time>2021-09-07T15:08:05Z</time>
      </trkpt>
      <trkpt lat="44.39848" lon="5.60445">
        <ele>1031</ele>
        <time>2021-09-07T15:08:06Z</time>
      </trkpt>
      <trkpt lat="44.39849" lon="5.6045">
        <ele>1030.8</ele>
        <time>2021-09-07T15:08:07Z</time>
      </trkpt>
      <trkpt lat="44.39851" lon="5.60454">
        <ele>1030.6</ele>
        <time>2021-09-07T15:08:08Z</time>
      </trkpt>
      <trkpt lat="44.39852" lon="5.60458">
        <ele>1030.4</ele>
        <time>2021-09-07T15:08:09Z</time>
      </trkpt>
      <trkpt lat="44.39854" lon="5.60464">
        <ele>1030.1</ele>
        <time>2021-09-07T15:08:10Z</time>
      </trkpt>
      <trkpt lat="44.39856" lon="5.60469">
        <ele>1029.8</ele>
        <time>2021-09-07T15:08:11Z</time>
      </trkpt>
      <trkpt lat="44.39858" lon="5.60474">
        <ele>1029.5</ele>
        <time>2021-09-07T15:08:12Z</time>
      </trkpt>
      <trkpt lat="44.39861" lon="5.6048">
        <ele>1029.1</ele>
        <time>2021-09-07T15:08:13Z</time>
      </trkpt>
      <trkpt lat="44.39863" lon="5.60487">
        <ele>1028.8</ele>
        <time>2021-09-07T15:08:14Z</time>
      </trkpt>
      <trkpt lat="44.39865" lon="5.60493">
        <ele>1028.4</ele>
        <time>2021-09-07T15:08:15Z</time>
      </trkpt>
      <trkpt lat="44.39868" lon="5.605">
        <ele>1028.1</ele>
        <time>2021-09-07T15:08:16Z</time>
      </trkpt>
      <trkpt lat="44.3987" lon="5.60507">
        <ele>1027.7</ele>
        <time>2021-09-07T15:08:17Z</time>
      </trkpt>
      <trkpt lat="44.39872" lon="5.60515">
        <ele>1027.3</ele>
        <time>2021-09-07T15:08:18Z</time>
      </trkpt>
      <trkpt lat="44.39874" lon="5.60522">
        <ele>1026.8</ele>
        <time>2021-09-07T15:08:19Z</time>
      </trkpt>
      <trkpt lat="44.39876" lon="5.6053">
        <ele>1026.4</ele>
        <time>2021-09-07T15:08:20Z</time>
      </trkpt>
      <trkpt lat="44.3988" lon="5.60537">
        <ele>1025.9</ele>
        <time>2021-09-07T15:08:21Z</time>
      </trkpt>
      <trkpt lat="44.39883" lon="5.60544">
        <ele>1025.4</ele>
        <time>2021-09-07T15:08:22Z</time>
      </trkpt>
      <trkpt lat="44.39886" lon="5.6055">
        <ele>1024.9</ele>
        <time>2021-09-07T15:08:23Z</time>
      </trkpt>
      <trkpt lat="44.3989" lon="5.60556">
        <ele>1024.5</ele>
        <time>2021-09-07T15:08:24Z</time>
      </trkpt>
      <trkpt lat="44.39893" lon="5.60561">
        <ele>1024</ele>
        <time>2021-09-07T15:08:25Z</time>
      </trkpt>
      <trkpt lat="44.39897" lon="5.60567">
        <ele>1023.5</ele>
        <time>2021-09-07T15:08:26Z</time>
      </trkpt>
      <trkpt lat="44.399" lon="5.60573">
        <ele>1023.1</ele>
        <time>2021-09-07T15:08:27Z</time>
      </trkpt>
      <trkpt lat="44.39903" lon="5.6058">
        <ele>1022.6</ele>
        <time>2021-09-07T15:08:28Z</time>
      </trkpt>
      <trkpt lat="44.39906" lon="5.60587">
        <ele>1022.1</ele>
        <time>2021-09-07T15:08:29Z</time>
      </trkpt>
      <trkpt lat="44.39909" lon="5.60594">
        <ele>1021.7</ele>
        <time>2021-09-07T15:08:30Z</time>
      </trkpt>
      <trkpt lat="44.39913" lon="5.60601">
        <ele>1021.2</ele>
        <time>2021-09-07T15:08:31Z</time>
      </trkpt>
      <trkpt lat="44.39917" lon="5.60608">
        <ele>1020.6</ele>
        <time>2021-09-07T15:08:32Z</time>
      </trkpt>
      <trkpt lat="44.39922" lon="5.60614">
        <ele>1020.2</ele>
        <time>2021-09-07T15:08:33Z</time>
      </trkpt>
      <trkpt lat="44.39926" lon="5.6062">
        <ele>1019.6</ele>
        <time>2021-09-07T15:08:34Z</time>
      </trkpt>
      <trkpt lat="44.39931" lon="5.60627">
        <ele>1019</ele>
        <time>2021-09-07T15:08:35Z</time>
      </trkpt>
      <trkpt lat="44.39935" lon="5.60634">
        <ele>1018.3</ele>
        <time>2021-09-07T15:08:36Z</time>
      </trkpt>
      <trkpt lat="44.3994" lon="5.60642">
        <ele>1017.6</ele>
        <time>2021-09-07T15:08:37Z</time>
      </trkpt>
      <trkpt lat="44.39945" lon="5.6065">
        <ele>1017</ele>
        <time>2021-09-07T15:08:38Z</time>
      </trkpt>
      <trkpt lat="44.3995" lon="5.60658">
        <ele>1016.3</ele>
        <time>2021-09-07T15:08:39Z</time>
      </trkpt>
      <trkpt lat="44.39955" lon="5.60667">
        <ele>1015.7</ele>
        <time>2021-09-07T15:08:40Z</time>
      </trkpt>
      <trkpt lat="44.3996" lon="5.60676">
        <ele>1015.2</ele>
        <time>2021-09-07T15:08:41Z</time>
      </trkpt>
      <trkpt lat="44.39965" lon="5.60685">
        <ele>1014.6</ele>
        <time>2021-09-07T15:08:42Z</time>
      </trkpt>
      <trkpt lat="44.39969" lon="5.60694">
        <ele>1014.1</ele>
        <time>2021-09-07T15:08:43Z</time>
      </trkpt>
      <trkpt lat="44.39973" lon="5.60704">
        <ele>1013.5</ele>
        <time>2021-09-07T15:08:44Z</time>
      </trkpt>
      <trkpt lat="44.39977" lon="5.60714">
        <ele>1013</ele>
        <time>2021-09-07T15:08:45Z</time>
      </trkpt>
      <trkpt lat="44.3998" lon="5.60723">
        <ele>1012.4</ele>
        <time>2021-09-07T15:08:46Z</time>
      </trkpt>
      <trkpt lat="44.39984" lon="5.60731">
        <ele>1012</ele>
        <time>2021-09-07T15:08:47Z</time>
      </trkpt>
      <trkpt lat="44.39987" lon="5.60738">
        <ele>1011.6</ele>
        <time>2021-09-07T15:08:48Z</time>
      </trkpt>
      <trkpt lat="44.39991" lon="5.60745">
        <ele>1011.1</ele>
        <time>2021-09-07T15:08:49Z</time>
      </trkpt>
      <trkpt lat="44.39995" lon="5.60752">
        <ele>1010.6</ele>
        <time>2021-09-07T15:08:50Z</time>
      </trkpt>
      <trkpt lat="44.39998" lon="5.6076">
        <ele>1010.1</ele>
        <time>2021-09-07T15:08:51Z</time>
      </trkpt>
      <trkpt lat="44.4" lon="5.60767">
        <ele>1010.2</ele>
        <time>2021-09-07T15:08:52Z</time>
      </trkpt>
      <trkpt lat="44.40001" lon="5.60774">
        <ele>1011.6</ele>
        <time>2021-09-07T15:08:53Z</time>
      </trkpt>
      <trkpt lat="44.40001" lon="5.6078">
        <ele>1011.7</ele>
        <time>2021-09-07T15:08:54Z</time>
      </trkpt>
      <trkpt lat="44.4" lon="5.60784">
        <ele>1011.7</ele>
        <time>2021-09-07T15:08:55Z</time>
      </trkpt>
      <trkpt lat="44.39999" lon="5.60788">
        <ele>1011.7</ele>
        <time>2021-09-07T15:08:56Z</time>
      </trkpt>
      <trkpt lat="44.39998" lon="5.60793">
        <ele>1011.8</ele>
        <time>2021-09-07T15:08:57Z</time>
      </trkpt>
      <trkpt lat="44.39996" lon="5.60798">
        <ele>1011.8</ele>
        <time>2021-09-07T15:08:58Z</time>
      </trkpt>
      <trkpt lat="44.39995" lon="5.60804">
        <ele>1011.9</ele>
        <time>2021-09-07T15:08:59Z</time>
      </trkpt>
      <trkpt lat="44.39994" lon="5.6081">
        <ele>1012</ele>
        <time>2021-09-07T15:09:00Z</time>
      </trkpt>
      <trkpt lat="44.39993" lon="5.60816">
        <ele>1012.1</ele>
        <time>2021-09-07T15:09:01Z</time>
      </trkpt>
      <trkpt lat="44.39991" lon="5.60816">
        <ele>1012.2</ele>
        <time>2021-09-07T15:09:02Z</time>
      </trkpt>
      <trkpt lat="44.39989" lon="5.60819">
        <ele>1012.3</ele>
        <time>2021-09-07T15:09:03Z</time>
      </trkpt>
      <trkpt lat="44.3999" lon="5.60829">
        <ele>1012.5</ele>
        <time>2021-09-07T15:09:04Z</time>
      </trkpt>
      <trkpt lat="44.3999" lon="5.60835">
        <ele>1012.7</ele>
        <time>2021-09-07T15:09:05Z</time>
      </trkpt>
      <trkpt lat="44.3999" lon="5.60838">
        <ele>1012.8</ele>
        <time>2021-09-07T15:09:06Z</time>
      </trkpt>
      <trkpt lat="44.39991" lon="5.60841">
        <ele>1012.9</ele>
        <time>2021-09-07T15:09:07Z</time>
      </trkpt>
      <trkpt lat="44.39991" lon="5.60844">
        <ele>1013</ele>
        <time>2021-09-07T15:09:08Z</time>
      </trkpt>
      <trkpt lat="44.39992" lon="5.60848">
        <ele>1013</ele>
        <time>2021-09-07T15:09:09Z</time>
      </trkpt>
      <trkpt lat="44.39992" lon="5.60852">
        <ele>1013.1</ele>
        <time>2021-09-07T15:09:10Z</time>
      </trkpt>
      <trkpt lat="44.39993" lon="5.60855">
        <ele>1013.2</ele>
        <time>2021-09-07T15:09:11Z</time>
      </trkpt>
      <trkpt lat="44.39993" lon="5.60858">
        <ele>1013.3</ele>
        <time>2021-09-07T15:09:12Z</time>
      </trkpt>
      <trkpt lat="44.39993" lon="5.60862">
        <ele>1013.3</ele>
        <time>2021-09-07T15:09:13Z</time>
      </trkpt>
      <trkpt lat="44.39994" lon="5.60866">
        <ele>1013.4</ele>
        <time>2021-09-07T15:09:14Z</time>
      </trkpt>
      <trkpt lat="44.39994" lon="5.60869">
        <ele>1013.4</ele>
        <time>2021-09-07T15:09:15Z</time>
      </trkpt>
      <trkpt lat="44.39995" lon="5.60875">
        <ele>1013.5</ele>
        <time>2021-09-07T15:09:16Z</time>
      </trkpt>
      <trkpt lat="44.39996" lon="5.60879">
        <ele>1013.5</ele>
        <time>2021-09-07T15:09:17Z</time>
      </trkpt>
      <trkpt lat="44.39997" lon="5.60882">
        <ele>1013.5</ele>
        <time>2021-09-07T15:09:18Z</time>
      </trkpt>
      <trkpt lat="44.39998" lon="5.60886">
        <ele>1013.5</ele>
        <time>2021-09-07T15:09:19Z</time>
      </trkpt>
      <trkpt lat="44.39999" lon="5.60891">
        <ele>1013.5</ele>
        <time>2021-09-07T15:09:20Z</time>
      </trkpt>
      <trkpt lat="44.39999" lon="5.60895">
        <ele>1013.5</ele>
        <time>2021-09-07T15:09:21Z</time>
      </trkpt>
      <trkpt lat="44.39999" lon="5.60901">
        <ele>1013.5</ele>
        <time>2021-09-07T15:09:22Z</time>
      </trkpt>
      <trkpt lat="44.4" lon="5.60905">
        <ele>1013.5</ele>
        <time>2021-09-07T15:09:23Z</time>
      </trkpt>
      <trkpt lat="44.4" lon="5.60908">
        <ele>1013.5</ele>
        <time>2021-09-07T15:09:24Z</time>
      </trkpt>
      <trkpt lat="44.4" lon="5.60917">
        <ele>1013.5</ele>
        <time>2021-09-07T15:09:25Z</time>
      </trkpt>
      <trkpt lat="44.4" lon="5.60921">
        <ele>1013.5</ele>
        <time>2021-09-07T15:09:26Z</time>
      </trkpt>
      <trkpt lat="44.4" lon="5.60925">
        <ele>1013.6</ele>
        <time>2021-09-07T15:09:27Z</time>
      </trkpt>
      <trkpt lat="44.4" lon="5.60931">
        <ele>1013.6</ele>
        <time>2021-09-07T15:09:28Z</time>
      </trkpt>
      <trkpt lat="44.39999" lon="5.60936">
        <ele>1013.6</ele>
        <time>2021-09-07T15:09:29Z</time>
      </trkpt>
      <trkpt lat="44.39999" lon="5.60941">
        <ele>1013.6</ele>
        <time>2021-09-07T15:09:30Z</time>
      </trkpt>
      <trkpt lat="44.39998" lon="5.60945">
        <ele>1013.6</ele>
        <time>2021-09-07T15:09:31Z</time>
      </trkpt>
      <trkpt lat="44.39996" lon="5.6095">
        <ele>1013.6</ele>
        <time>2021-09-07T15:09:32Z</time>
      </trkpt>
      <trkpt lat="44.39995" lon="5.60955">
        <ele>1013.6</ele>
        <time>2021-09-07T15:09:33Z</time>
      </trkpt>
      <trkpt lat="44.39994" lon="5.60959">
        <ele>1013.6</ele>
        <time>2021-09-07T15:09:34Z</time>
      </trkpt>
      <trkpt lat="44.39993" lon="5.60963">
        <ele>1013.6</ele>
        <time>2021-09-07T15:09:35Z</time>
      </trkpt>
      <trkpt lat="44.39991" lon="5.60967">
        <ele>1013.6</ele>
        <time>2021-09-07T15:09:36Z</time>
      </trkpt>
      <trkpt lat="44.3999" lon="5.60971">
        <ele>1013.7</ele>
        <time>2021-09-07T15:09:37Z</time>
      </trkpt>
      <trkpt lat="44.39988" lon="5.60975">
        <ele>1013.7</ele>
        <time>2021-09-07T15:09:38Z</time>
      </trkpt>
      <trkpt lat="44.39984" lon="5.60984">
        <ele>1013.8</ele>
        <time>2021-09-07T15:09:39Z</time>
      </trkpt>
      <trkpt lat="44.39984" lon="5.60987">
        <ele>1013.8</ele>
        <time>2021-09-07T15:09:40Z</time>
      </trkpt>
      <trkpt lat="44.39983" lon="5.60989">
        <ele>1013.8</ele>
        <time>2021-09-07T15:09:41Z</time>
      </trkpt>
      <trkpt lat="44.39981" lon="5.60993">
        <ele>1013.8</ele>
        <time>2021-09-07T15:09:42Z</time>
      </trkpt>
      <trkpt lat="44.3998" lon="5.60996">
        <ele>1013.9</ele>
        <time>2021-09-07T15:09:43Z</time>
      </trkpt>
      <trkpt lat="44.39979" lon="5.60999">
        <ele>1013.9</ele>
        <time>2021-09-07T15:09:44Z</time>
      </trkpt>
      <trkpt lat="44.39978" lon="5.61002">
        <ele>1013.9</ele>
        <time>2021-09-07T15:09:45Z</time>
      </trkpt>
      <trkpt lat="44.39978" lon="5.61005">
        <ele>1014</ele>
        <time>2021-09-07T15:09:46Z</time>
      </trkpt>
      <trkpt lat="44.39977" lon="5.61007">
        <ele>1014</ele>
        <time>2021-09-07T15:09:47Z</time>
      </trkpt>
      <trkpt lat="44.39976" lon="5.61011">
        <ele>1014.1</ele>
        <time>2021-09-07T15:09:48Z</time>
      </trkpt>
      <trkpt lat="44.39976" lon="5.61012">
        <ele>1014.1</ele>
        <time>2021-09-07T15:09:49Z</time>
      </trkpt>
      <trkpt lat="44.39975" lon="5.61013">
        <ele>1014.1</ele>
        <time>2021-09-07T15:09:50Z</time>
      </trkpt>
      <trkpt lat="44.39973" lon="5.61013">
        <ele>1014.2</ele>
        <time>2021-09-07T15:09:51Z</time>
      </trkpt>
      <trkpt lat="44.39973" lon="5.61013">
        <ele>1014.2</ele>
        <time>2021-09-07T15:09:52Z</time>
      </trkpt>
      <trkpt lat="44.39973" lon="5.61014">
        <ele>1014.2</ele>
        <time>2021-09-07T15:09:53Z</time>
      </trkpt>
      <trkpt lat="44.39972" lon="5.61014">
        <ele>1014.2</ele>
        <time>2021-09-07T15:09:54Z</time>
      </trkpt>
      <trkpt lat="44.39972" lon="5.61014">
        <ele>1014.2</ele>
        <time>2021-09-07T15:09:55Z</time>
      </trkpt>
      <trkpt lat="44.39972" lon="5.61014">
        <ele>1014.2</ele>
        <time>2021-09-07T15:09:56Z</time>
      </trkpt>
      <trkpt lat="44.39972" lon="5.61014">
        <ele>1014.2</ele>
        <time>2021-09-07T15:09:57Z</time>
      </trkpt>
      <trkpt lat="44.39972" lon="5.61014">
        <ele>1014.2</ele>
        <time>2021-09-07T15:09:58Z</time>
      </trkpt>
      <trkpt lat="44.39972" lon="5.61014">
        <ele>1014.2</ele>
        <time>2021-09-07T15:09:59Z</time>
      </trkpt>
      <trkpt lat="44.39972" lon="5.61014">
        <ele>1014.2</ele>
        <time>2021-09-07T15:10:00Z</time>
      </trkpt>
      <trkpt lat="44.39972" lon="5.61014">
        <ele>1014.2</ele>
        <time>2021-09-07T15:10:01Z</time>
      </trkpt>
      <trkpt lat="44.39972" lon="5.61014">
        <ele>1014.2</ele>
        <time>2021-09-07T15:10:02Z</time>
      </trkpt>
      <trkpt lat="44.39972" lon="5.61014">
        <ele>1014.2</ele>
        <time>2021-09-07T15:10:03Z</time>
      </trkpt>
      <trkpt lat="44.39973" lon="5.61014">
        <ele>1014.3</ele>
        <time>2021-09-07T15:10:04Z</time>
      </trkpt>
      <trkpt lat="44.39973" lon="5.61015">
        <ele>1014.3</ele>
        <time>2021-09-07T15:10:05Z</time>
      </trkpt>
      <trkpt lat="44.39973" lon="5.61015">
        <ele>1014.3</ele>
        <time>2021-09-07T15:10:06Z</time>
      </trkpt>
      <trkpt lat="44.39973" lon="5.61015">
        <ele>1014.3</ele>
        <time>2021-09-07T15:10:07Z</time>
      </trkpt>
      <trkpt lat="44.39973" lon="5.61015">
        <ele>1014.3</ele>
        <time>2021-09-07T15:10:08Z</time>
      </trkpt>
      <trkpt lat="44.39973" lon="5.61015">
        <ele>1014.3</ele>
        <time>2021-09-07T15:10:09Z</time>
      </trkpt>
      <trkpt lat="44.39973" lon="5.61015">
        <ele>1014.3</ele>
        <time>2021-09-07T15:10:10Z</time>
      </trkpt>
      <trkpt lat="44.39973" lon="5.61015">
        <ele>1014.3</ele>
        <time>2021-09-07T15:10:11Z</time>
      </trkpt>
      <trkpt lat="44.39973" lon="5.61015">
        <ele>1014.3</ele>
        <time>2021-09-07T15:10:12Z</time>
      </trkpt>
      <trkpt lat="44.39973" lon="5.61015">
        <ele>1014.3</ele>
        <time>2021-09-07T15:10:13Z</time>
      </trkpt>
      <trkpt lat="44.39973" lon="5.61015">
        <ele>1014.3</ele>
        <time>2021-09-07T15:10:14Z</time>
      </trkpt>
      <trkpt lat="44.39973" lon="5.61015">
        <ele>1014.3</ele>
        <time>2021-09-07T15:10:15Z</time>
      </trkpt>
      <trkpt lat="44.39972" lon="5.61015">
        <ele>1014.3</ele>
        <time>2021-09-07T15:10:16Z</time>
      </trkpt>
      <trkpt lat="44.39971" lon="5.61017">
        <ele>1014.4</ele>
        <time>2021-09-07T15:10:17Z</time>
      </trkpt>
      <trkpt lat="44.3997" lon="5.61018">
        <ele>1014.4</ele>
        <time>2021-09-07T15:10:18Z</time>
      </trkpt>
      <trkpt lat="44.39968" lon="5.61019">
        <ele>1014.5</ele>
        <time>2021-09-07T15:10:19Z</time>
      </trkpt>
      <trkpt lat="44.39967" lon="5.61021">
        <ele>1014.6</ele>
        <time>2021-09-07T15:10:20Z</time>
      </trkpt>
      <trkpt lat="44.39966" lon="5.61022">
        <ele>1014.7</ele>
        <time>2021-09-07T15:10:21Z</time>
      </trkpt>
      <trkpt lat="44.39965" lon="5.61023">
        <ele>1014.7</ele>
        <time>2021-09-07T15:10:22Z</time>
      </trkpt>
      <trkpt lat="44.39964" lon="5.61025">
        <ele>1014.8</ele>
        <time>2021-09-07T15:10:23Z</time>
      </trkpt>
      <trkpt lat="44.39962" lon="5.61026">
        <ele>1014.9</ele>
        <time>2021-09-07T15:10:24Z</time>
      </trkpt>
      <trkpt lat="44.39959" lon="5.6103">
        <ele>1015.2</ele>
        <time>2021-09-07T15:10:25Z</time>
      </trkpt>
      <trkpt lat="44.39958" lon="5.61032">
        <ele>1015.3</ele>
        <time>2021-09-07T15:10:26Z</time>
      </trkpt>
      <trkpt lat="44.39957" lon="5.61033">
        <ele>1015.4</ele>
        <time>2021-09-07T15:10:27Z</time>
      </trkpt>
      <trkpt lat="44.39957" lon="5.61034">
        <ele>1015.5</ele>
        <time>2021-09-07T15:10:28Z</time>
      </trkpt>
      <trkpt lat="44.39956" lon="5.61035">
        <ele>1015.5</ele>
        <time>2021-09-07T15:10:29Z</time>
      </trkpt>
      <trkpt lat="44.39956" lon="5.61036">
        <ele>1015.6</ele>
        <time>2021-09-07T15:10:30Z</time>
      </trkpt>
      <trkpt lat="44.39956" lon="5.61037">
        <ele>1015.6</ele>
        <time>2021-09-07T15:10:31Z</time>
      </trkpt>
      <trkpt lat="44.39955" lon="5.61037">
        <ele>1015.7</ele>
        <time>2021-09-07T15:10:32Z</time>
      </trkpt>
      <trkpt lat="44.39955" lon="5.61037">
        <ele>1015.7</ele>
        <time>2021-09-07T15:10:33Z</time>
      </trkpt>
      <trkpt lat="44.39955" lon="5.61037">
        <ele>1015.7</ele>
        <time>2021-09-07T15:10:34Z</time>
      </trkpt>
      <trkpt lat="44.39955" lon="5.61037">
        <ele>1015.7</ele>
        <time>2021-09-07T15:10:35Z</time>
      </trkpt>
      <trkpt lat="44.39954" lon="5.61037">
        <ele>1015.8</ele>
        <time>2021-09-07T15:10:36Z</time>
      </trkpt>
      <trkpt lat="44.39954" lon="5.61037">
        <ele>1015.8</ele>
        <time>2021-09-07T15:10:37Z</time>
      </trkpt>
      <trkpt lat="44.39954" lon="5.61037">
        <ele>1015.8</ele>
        <time>2021-09-07T15:10:38Z</time>
      </trkpt>
      <trkpt lat="44.39954" lon="5.61038">
        <ele>1015.9</ele>
        <time>2021-09-07T15:10:39Z</time>
      </trkpt>
      <trkpt lat="44.39954" lon="5.61039">
        <ele>1015.9</ele>
        <time>2021-09-07T15:10:40Z</time>
      </trkpt>
      <trkpt lat="44.39954" lon="5.61041">
        <ele>1016.1</ele>
        <time>2021-09-07T15:10:41Z</time>
      </trkpt>
      <trkpt lat="44.39953" lon="5.61043">
        <ele>1016.2</ele>
        <time>2021-09-07T15:10:42Z</time>
      </trkpt>
      <trkpt lat="44.39952" lon="5.61046">
        <ele>1016.5</ele>
        <time>2021-09-07T15:10:43Z</time>
      </trkpt>
      <trkpt lat="44.39951" lon="5.61048">
        <ele>1016.7</ele>
        <time>2021-09-07T15:10:44Z</time>
      </trkpt>
      <trkpt lat="44.39951" lon="5.6105">
        <ele>1016.9</ele>
        <time>2021-09-07T15:10:45Z</time>
      </trkpt>
      <trkpt lat="44.3995" lon="5.61051">
        <ele>1017.1</ele>
        <time>2021-09-07T15:10:46Z</time>
      </trkpt>
      <trkpt lat="44.3995" lon="5.61052">
        <ele>1017.1</ele>
        <time>2021-09-07T15:10:47Z</time>
      </trkpt>
      <trkpt lat="44.3995" lon="5.61052">
        <ele>1017.2</ele>
        <time>2021-09-07T15:10:48Z</time>
      </trkpt>
      <trkpt lat="44.3995" lon="5.61052">
        <ele>1017.2</ele>
        <time>2021-09-07T15:10:49Z</time>
      </trkpt>
      <trkpt lat="44.39949" lon="5.61053">
        <ele>1017.3</ele>
        <time>2021-09-07T15:10:50Z</time>
      </trkpt>
      <trkpt lat="44.39949" lon="5.61053">
        <ele>1017.3</ele>
        <time>2021-09-07T15:10:51Z</time>
      </trkpt>
      <trkpt lat="44.39949" lon="5.61055">
        <ele>1017.5</ele>
        <time>2021-09-07T15:10:52Z</time>
      </trkpt>
      <trkpt lat="44.39948" lon="5.61056">
        <ele>1017.7</ele>
        <time>2021-09-07T15:10:53Z</time>
      </trkpt>
      <trkpt lat="44.39946" lon="5.61058">
        <ele>1018.1</ele>
        <time>2021-09-07T15:10:54Z</time>
      </trkpt>
      <trkpt lat="44.39944" lon="5.6106">
        <ele>1018.5</ele>
        <time>2021-09-07T15:10:55Z</time>
      </trkpt>
      <trkpt lat="44.39942" lon="5.61061">
        <ele>1018.8</ele>
        <time>2021-09-07T15:10:56Z</time>
      </trkpt>
      <trkpt lat="44.39941" lon="5.61063">
        <ele>1019.1</ele>
        <time>2021-09-07T15:10:57Z</time>
      </trkpt>
      <trkpt lat="44.3994" lon="5.61064">
        <ele>1019.3</ele>
        <time>2021-09-07T15:10:58Z</time>
      </trkpt>
      <trkpt lat="44.39938" lon="5.61064">
        <ele>1019.6</ele>
        <time>2021-09-07T15:10:59Z</time>
      </trkpt>
      <trkpt lat="44.39936" lon="5.61065">
        <ele>1019.9</ele>
        <time>2021-09-07T15:11:00Z</time>
      </trkpt>
      <trkpt lat="44.39935" lon="5.61066">
        <ele>1020.1</ele>
        <time>2021-09-07T15:11:01Z</time>
      </trkpt>
      <trkpt lat="44.39934" lon="5.61067">
        <ele>1020.2</ele>
        <time>2021-09-07T15:11:02Z</time>
      </trkpt>
      <trkpt lat="44.39933" lon="5.61067">
        <ele>1020.4</ele>
        <time>2021-09-07T15:11:03Z</time>
      </trkpt>
      <trkpt lat="44.39932" lon="5.61068">
        <ele>1020.6</ele>
        <time>2021-09-07T15:11:04Z</time>
      </trkpt>
      <trkpt lat="44.39932" lon="5.61068">
        <ele>1020.6</ele>
        <time>2021-09-07T15:11:05Z</time>
      </trkpt>
      <trkpt lat="44.39931" lon="5.61069">
        <ele>1020.7</ele>
        <time>2021-09-07T15:11:06Z</time>
      </trkpt>
      <trkpt lat="44.39931" lon="5.61069">
        <ele>1020.7</ele>
        <time>2021-09-07T15:11:07Z</time>
      </trkpt>
      <trkpt lat="44.39931" lon="5.61069">
        <ele>1020.8</ele>
        <time>2021-09-07T15:11:08Z</time>
      </trkpt>
      <trkpt lat="44.3993" lon="5.61069">
        <ele>1020.8</ele>
        <time>2021-09-07T15:11:09Z</time>
      </trkpt>
      <trkpt lat="44.3993" lon="5.61069">
        <ele>1020.9</ele>
        <time>2021-09-07T15:11:10Z</time>
      </trkpt>
      <trkpt lat="44.3993" lon="5.61069">
        <ele>1020.9</ele>
        <time>2021-09-07T15:11:11Z</time>
      </trkpt>
      <trkpt lat="44.39929" lon="5.61069">
        <ele>1021</ele>
        <time>2021-09-07T15:11:12Z</time>
      </trkpt>
      <trkpt lat="44.39927" lon="5.6107">
        <ele>1021.3</ele>
        <time>2021-09-07T15:11:13Z</time>
      </trkpt>
      <trkpt lat="44.39924" lon="5.61071">
        <ele>1021.6</ele>
        <time>2021-09-07T15:11:14Z</time>
      </trkpt>
      <trkpt lat="44.39921" lon="5.61071">
        <ele>1022</ele>
        <time>2021-09-07T15:11:15Z</time>
      </trkpt>
      <trkpt lat="44.39921" lon="5.61071">
        <ele>1022</ele>
        <time>2021-09-07T15:11:16Z</time>
      </trkpt>
      <trkpt lat="44.3992" lon="5.61071">
        <ele>1022.1</ele>
        <time>2021-09-07T15:11:17Z</time>
      </trkpt>
      <trkpt lat="44.39919" lon="5.61071">
        <ele>1022.2</ele>
        <time>2021-09-07T15:11:18Z</time>
      </trkpt>
      <trkpt lat="44.39919" lon="5.61071">
        <ele>1022.2</ele>
        <time>2021-09-07T15:11:19Z</time>
      </trkpt>
      <trkpt lat="44.39918" lon="5.61071">
        <ele>1022.3</ele>
        <time>2021-09-07T15:11:20Z</time>
      </trkpt>
      <trkpt lat="44.39918" lon="5.61071">
        <ele>1022.3</ele>
        <time>2021-09-07T15:11:21Z</time>
      </trkpt>
      <trkpt lat="44.39918" lon="5.61071">
        <ele>1022.3</ele>
        <time>2021-09-07T15:11:22Z</time>
      </trkpt>
      <trkpt lat="44.39918" lon="5.61071">
        <ele>1022.3</ele>
        <time>2021-09-07T15:11:23Z</time>
      </trkpt>
      <trkpt lat="44.39918" lon="5.61071">
        <ele>1022.3</ele>
        <time>2021-09-07T15:11:24Z</time>
      </trkpt>
      <trkpt lat="44.39918" lon="5.61071">
        <ele>1022.3</ele>
        <time>2021-09-07T15:11:25Z</time>
      </trkpt>
      <trkpt lat="44.39918" lon="5.61071">
        <ele>1022.3</ele>
        <time>2021-09-07T15:11:26Z</time>
      </trkpt>
      <trkpt lat="44.39918" lon="5.61071">
        <ele>1022.3</ele>
        <time>2021-09-07T15:11:27Z</time>
      </trkpt>
      <trkpt lat="44.39917" lon="5.61072">
        <ele>1022.4</ele>
        <time>2021-09-07T15:11:28Z</time>
      </trkpt>
      <trkpt lat="44.39917" lon="5.61072">
        <ele>1022.4</ele>
        <time>2021-09-07T15:11:29Z</time>
      </trkpt>
      <trkpt lat="44.39917" lon="5.61072">
        <ele>1022.5</ele>
        <time>2021-09-07T15:11:30Z</time>
      </trkpt>
      <trkpt lat="44.39916" lon="5.61072">
        <ele>1022.5</ele>
        <time>2021-09-07T15:11:31Z</time>
      </trkpt>
      <trkpt lat="44.39914" lon="5.61072">
        <ele>1022.7</ele>
        <time>2021-09-07T15:11:32Z</time>
      </trkpt>
      <trkpt lat="44.39913" lon="5.61072">
        <ele>1022.8</ele>
        <time>2021-09-07T15:11:33Z</time>
      </trkpt>
      <trkpt lat="44.39912" lon="5.61072">
        <ele>1022.9</ele>
        <time>2021-09-07T15:11:34Z</time>
      </trkpt>
      <trkpt lat="44.39911" lon="5.61072">
        <ele>1023</ele>
        <time>2021-09-07T15:11:35Z</time>
      </trkpt>
      <trkpt lat="44.3991" lon="5.61072">
        <ele>1023.1</ele>
        <time>2021-09-07T15:11:36Z</time>
      </trkpt>
      <trkpt lat="44.3991" lon="5.61072">
        <ele>1023.2</ele>
        <time>2021-09-07T15:11:37Z</time>
      </trkpt>
      <trkpt lat="44.39909" lon="5.61072">
        <ele>1023.2</ele>
        <time>2021-09-07T15:11:38Z</time>
      </trkpt>
      <trkpt lat="44.39909" lon="5.61072">
        <ele>1023.3</ele>
        <time>2021-09-07T15:11:39Z</time>
      </trkpt>
      <trkpt lat="44.39908" lon="5.61072">
        <ele>1023.3</ele>
        <time>2021-09-07T15:11:40Z</time>
      </trkpt>
      <trkpt lat="44.39908" lon="5.61073">
        <ele>1023.4</ele>
        <time>2021-09-07T15:11:41Z</time>
      </trkpt>
      <trkpt lat="44.39908" lon="5.61073">
        <ele>1023.4</ele>
        <time>2021-09-07T15:11:42Z</time>
      </trkpt>
      <trkpt lat="44.39908" lon="5.61073">
        <ele>1023.4</ele>
        <time>2021-09-07T15:11:43Z</time>
      </trkpt>
      <trkpt lat="44.39908" lon="5.61073">
        <ele>1023.4</ele>
        <time>2021-09-07T15:11:44Z</time>
      </trkpt>
      <trkpt lat="44.39907" lon="5.61073">
        <ele>1023.5</ele>
        <time>2021-09-07T15:11:45Z</time>
      </trkpt>
      <trkpt lat="44.39907" lon="5.61073">
        <ele>1023.5</ele>
        <time>2021-09-07T15:11:46Z</time>
      </trkpt>
      <trkpt lat="44.39907" lon="5.61072">
        <ele>1023.5</ele>
        <time>2021-09-07T15:11:47Z</time>
      </trkpt>
      <trkpt lat="44.39907" lon="5.61072">
        <ele>1023.5</ele>
        <time>2021-09-07T15:11:48Z</time>
      </trkpt>
      <trkpt lat="44.39907" lon="5.61072">
        <ele>1023.5</ele>
        <time>2021-09-07T15:11:49Z</time>
      </trkpt>
      <trkpt lat="44.39907" lon="5.61072">
        <ele>1023.5</ele>
        <time>2021-09-07T15:11:50Z</time>
      </trkpt>
      <trkpt lat="44.39907" lon="5.61072">
        <ele>1023.5</ele>
        <time>2021-09-07T15:11:51Z</time>
      </trkpt>
      <trkpt lat="44.39907" lon="5.61072">
        <ele>1023.6</ele>
        <time>2021-09-07T15:11:52Z</time>
      </trkpt>
      <trkpt lat="44.39906" lon="5.61072">
        <ele>1023.6</ele>
        <time>2021-09-07T15:11:53Z</time>
      </trkpt>
      <trkpt lat="44.39906" lon="5.61072">
        <ele>1023.6</ele>
        <time>2021-09-07T15:11:54Z</time>
      </trkpt>
      <trkpt lat="44.39907" lon="5.61072">
        <ele>1023.7</ele>
        <time>2021-09-07T15:11:55Z</time>
      </trkpt>
      <trkpt lat="44.39907" lon="5.61072">
        <ele>1023.7</ele>
        <time>2021-09-07T15:11:56Z</time>
      </trkpt>
      <trkpt lat="44.39907" lon="5.61072">
        <ele>1023.7</ele>
        <time>2021-09-07T15:11:57Z</time>
      </trkpt>
      <trkpt lat="44.39907" lon="5.61072">
        <ele>1023.7</ele>
        <time>2021-09-07T15:11:58Z</time>
      </trkpt>
      <trkpt lat="44.39907" lon="5.61072">
        <ele>1023.7</ele>
        <time>2021-09-07T15:11:59Z</time>
      </trkpt>
      <trkpt lat="44.39907" lon="5.61072">
        <ele>1023.7</ele>
        <time>2021-09-07T15:12:00Z</time>
      </trkpt>
      <trkpt lat="44.39907" lon="5.61072">
        <ele>1023.7</ele>
        <time>2021-09-07T15:12:01Z</time>
      </trkpt>
      <trkpt lat="44.39905" lon="5.61073">
        <ele>1023.9</ele>
        <time>2021-09-07T15:12:02Z</time>
      </trkpt>
      <trkpt lat="44.39902" lon="5.61074">
        <ele>1024.1</ele>
        <time>2021-09-07T15:12:03Z</time>
      </trkpt>
      <trkpt lat="44.399" lon="5.61075">
        <ele>1024.3</ele>
        <time>2021-09-07T15:12:04Z</time>
      </trkpt>
      <trkpt lat="44.39898" lon="5.61076">
        <ele>1024.5</ele>
        <time>2021-09-07T15:12:05Z</time>
      </trkpt>
      <trkpt lat="44.39898" lon="5.61076">
        <ele>1024.5</ele>
        <time>2021-09-07T15:12:06Z</time>
      </trkpt>
      <trkpt lat="44.39897" lon="5.61076">
        <ele>1024.5</ele>
        <time>2021-09-07T15:12:07Z</time>
      </trkpt>
      <trkpt lat="44.39897" lon="5.61076">
        <ele>1024.5</ele>
        <time>2021-09-07T15:12:08Z</time>
      </trkpt>
      <trkpt lat="44.39898" lon="5.61076">
        <ele>1024.6</ele>
        <time>2021-09-07T15:12:09Z</time>
      </trkpt>
      <trkpt lat="44.39899" lon="5.61075">
        <ele>1024.7</ele>
        <time>2021-09-07T15:12:10Z</time>
      </trkpt>
      <trkpt lat="44.39899" lon="5.61075">
        <ele>1024.7</ele>
        <time>2021-09-07T15:12:11Z</time>
      </trkpt>
      <trkpt lat="44.39898" lon="5.61076">
        <ele>1024.8</ele>
        <time>2021-09-07T15:12:12Z</time>
      </trkpt>
      <trkpt lat="44.39898" lon="5.61076">
        <ele>1024.8</ele>
        <time>2021-09-07T15:12:13Z</time>
      </trkpt>
      <trkpt lat="44.39898" lon="5.61076">
        <ele>1024.8</ele>
        <time>2021-09-07T15:12:14Z</time>
      </trkpt>
      <trkpt lat="44.39897" lon="5.61076">
        <ele>1024.9</ele>
        <time>2021-09-07T15:12:15Z</time>
      </trkpt>
      <trkpt lat="44.39897" lon="5.61076">
        <ele>1024.9</ele>
        <time>2021-09-07T15:12:16Z</time>
      </trkpt>
      <trkpt lat="44.39897" lon="5.61077">
        <ele>1025</ele>
        <time>2021-09-07T15:12:17Z</time>
      </trkpt>
      <trkpt lat="44.39897" lon="5.61077">
        <ele>1025</ele>
        <time>2021-09-07T15:12:18Z</time>
      </trkpt>
      <trkpt lat="44.39896" lon="5.61077">
        <ele>1025.1</ele>
        <time>2021-09-07T15:12:19Z</time>
      </trkpt>
      <trkpt lat="44.39895" lon="5.61077">
        <ele>1025.2</ele>
        <time>2021-09-07T15:12:20Z</time>
      </trkpt>
      <trkpt lat="44.39893" lon="5.61077">
        <ele>1025.4</ele>
        <time>2021-09-07T15:12:21Z</time>
      </trkpt>
      <trkpt lat="44.3989" lon="5.61077">
        <ele>1025.7</ele>
        <time>2021-09-07T15:12:22Z</time>
      </trkpt>
      <trkpt lat="44.39889" lon="5.61077">
        <ele>1025.8</ele>
        <time>2021-09-07T15:12:23Z</time>
      </trkpt>
      <trkpt lat="44.39888" lon="5.61077">
        <ele>1025.9</ele>
        <time>2021-09-07T15:12:24Z</time>
      </trkpt>
      <trkpt lat="44.39887" lon="5.61077">
        <ele>1026</ele>
        <time>2021-09-07T15:12:25Z</time>
      </trkpt>
      <trkpt lat="44.39886" lon="5.61077">
        <ele>1026.1</ele>
        <time>2021-09-07T15:12:26Z</time>
      </trkpt>
      <trkpt lat="44.39886" lon="5.61077">
        <ele>1026.1</ele>
        <time>2021-09-07T15:12:27Z</time>
      </trkpt>
      <trkpt lat="44.39886" lon="5.61077">
        <ele>1026.1</ele>
        <time>2021-09-07T15:12:28Z</time>
      </trkpt>
      <trkpt lat="44.39886" lon="5.61077">
        <ele>1026.1</ele>
        <time>2021-09-07T15:12:29Z</time>
      </trkpt>
      <trkpt lat="44.39886" lon="5.61077">
        <ele>1026.2</ele>
        <time>2021-09-07T15:12:30Z</time>
      </trkpt>
      <trkpt lat="44.39885" lon="5.61077">
        <ele>1026.2</ele>
        <time>2021-09-07T15:12:31Z</time>
      </trkpt>
      <trkpt lat="44.39883" lon="5.61077">
        <ele>1026.5</ele>
        <time>2021-09-07T15:12:32Z</time>
      </trkpt>
      <trkpt lat="44.3988" lon="5.61076">
        <ele>1026.8</ele>
        <time>2021-09-07T15:12:33Z</time>
      </trkpt>
      <trkpt lat="44.39877" lon="5.61076">
        <ele>1027.2</ele>
        <time>2021-09-07T15:12:34Z</time>
      </trkpt>
      <trkpt lat="44.39876" lon="5.61076">
        <ele>1027.4</ele>
        <time>2021-09-07T15:12:35Z</time>
      </trkpt>
      <trkpt lat="44.39874" lon="5.61076">
        <ele>1027.6</ele>
        <time>2021-09-07T15:12:36Z</time>
      </trkpt>
      <trkpt lat="44.39873" lon="5.61076">
        <ele>1027.7</ele>
        <time>2021-09-07T15:12:37Z</time>
      </trkpt>
      <trkpt lat="44.39872" lon="5.61076">
        <ele>1027.9</ele>
        <time>2021-09-07T15:12:38Z</time>
      </trkpt>
      <trkpt lat="44.39871" lon="5.61077">
        <ele>1028</ele>
        <time>2021-09-07T15:12:39Z</time>
      </trkpt>
      <trkpt lat="44.3987" lon="5.61077">
        <ele>1028.1</ele>
        <time>2021-09-07T15:12:40Z</time>
      </trkpt>
      <trkpt lat="44.39869" lon="5.61077">
        <ele>1028.3</ele>
        <time>2021-09-07T15:12:41Z</time>
      </trkpt>
      <trkpt lat="44.39869" lon="5.61077">
        <ele>1028.3</ele>
        <time>2021-09-07T15:12:42Z</time>
      </trkpt>
      <trkpt lat="44.39868" lon="5.61077">
        <ele>1028.4</ele>
        <time>2021-09-07T15:12:43Z</time>
      </trkpt>
      <trkpt lat="44.39867" lon="5.61077">
        <ele>1028.5</ele>
        <time>2021-09-07T15:12:44Z</time>
      </trkpt>
      <trkpt lat="44.39867" lon="5.61077">
        <ele>1028.5</ele>
        <time>2021-09-07T15:12:45Z</time>
      </trkpt>
      <trkpt lat="44.39867" lon="5.61077">
        <ele>1028.5</ele>
        <time>2021-09-07T15:12:46Z</time>
      </trkpt>
      <trkpt lat="44.39867" lon="5.61077">
        <ele>1028.6</ele>
        <time>2021-09-07T15:12:47Z</time>
      </trkpt>
      <trkpt lat="44.39866" lon="5.61077">
        <ele>1028.6</ele>
        <time>2021-09-07T15:12:48Z</time>
      </trkpt>
      <trkpt lat="44.39866" lon="5.61078">
        <ele>1028.7</ele>
        <time>2021-09-07T15:12:49Z</time>
      </trkpt>
      <trkpt lat="44.39866" lon="5.61078">
        <ele>1028.7</ele>
        <time>2021-09-07T15:12:50Z</time>
      </trkpt>
      <trkpt lat="44.39866" lon="5.61078">
        <ele>1028.7</ele>
        <time>2021-09-07T15:12:51Z</time>
      </trkpt>
      <trkpt lat="44.39866" lon="5.61078">
        <ele>1028.7</ele>
        <time>2021-09-07T15:12:52Z</time>
      </trkpt>
      <trkpt lat="44.39866" lon="5.61078">
        <ele>1028.7</ele>
        <time>2021-09-07T15:12:53Z</time>
      </trkpt>
      <trkpt lat="44.39866" lon="5.61078">
        <ele>1028.7</ele>
        <time>2021-09-07T15:12:54Z</time>
      </trkpt>
      <trkpt lat="44.39865" lon="5.61078">
        <ele>1028.9</ele>
        <time>2021-09-07T15:12:55Z</time>
      </trkpt>
      <trkpt lat="44.39865" lon="5.61078">
        <ele>1028.9</ele>
        <time>2021-09-07T15:12:56Z</time>
      </trkpt>
      <trkpt lat="44.39865" lon="5.61078">
        <ele>1028.9</ele>
        <time>2021-09-07T15:12:57Z</time>
      </trkpt>
      <trkpt lat="44.39865" lon="5.61078">
        <ele>1028.9</ele>
        <time>2021-09-07T15:12:58Z</time>
      </trkpt>
      <trkpt lat="44.39865" lon="5.61078">
        <ele>1028.9</ele>
        <time>2021-09-07T15:12:59Z</time>
      </trkpt>
      <trkpt lat="44.39865" lon="5.61078">
        <ele>1028.9</ele>
        <time>2021-09-07T15:13:00Z</time>
      </trkpt>
      <trkpt lat="44.39865" lon="5.61078">
        <ele>1028.9</ele>
        <time>2021-09-07T15:13:01Z</time>
      </trkpt>
      <trkpt lat="44.39865" lon="5.61078">
        <ele>1028.9</ele>
        <time>2021-09-07T15:13:02Z</time>
      </trkpt>
      <trkpt lat="44.39865" lon="5.61078">
        <ele>1028.9</ele>
        <time>2021-09-07T15:13:03Z</time>
      </trkpt>
      <trkpt lat="44.39865" lon="5.61078">
        <ele>1028.9</ele>
        <time>2021-09-07T15:13:04Z</time>
      </trkpt>
      <trkpt lat="44.39865" lon="5.61078">
        <ele>1028.9</ele>
        <time>2021-09-07T15:13:05Z</time>
      </trkpt>
      <trkpt lat="44.39865" lon="5.61078">
        <ele>1028.9</ele>
        <time>2021-09-07T15:13:06Z</time>
      </trkpt>
      <trkpt lat="44.39865" lon="5.61078">
        <ele>1028.9</ele>
        <time>2021-09-07T15:13:07Z</time>
      </trkpt>
      <trkpt lat="44.39865" lon="5.61078">
        <ele>1028.9</ele>
        <time>2021-09-07T15:13:08Z</time>
      </trkpt>
      <trkpt lat="44.39865" lon="5.61078">
        <ele>1028.9</ele>
        <time>2021-09-07T15:13:09Z</time>
      </trkpt>
      <trkpt lat="44.39865" lon="5.61078">
        <ele>1028.9</ele>
        <time>2021-09-07T15:13:10Z</time>
      </trkpt>
      <trkpt lat="44.39865" lon="5.61078">
        <ele>1028.9</ele>
        <time>2021-09-07T15:13:11Z</time>
      </trkpt>
      <trkpt lat="44.39865" lon="5.61078">
        <ele>1028.9</ele>
        <time>2021-09-07T15:13:12Z</time>
      </trkpt>
      <trkpt lat="44.39865" lon="5.61078">
        <ele>1028.9</ele>
        <time>2021-09-07T15:13:13Z</time>
      </trkpt>
      <trkpt lat="44.39866" lon="5.61078">
        <ele>1029.1</ele>
        <time>2021-09-07T15:13:14Z</time>
      </trkpt>
      <trkpt lat="44.39866" lon="5.61078">
        <ele>1029.1</ele>
        <time>2021-09-07T15:13:15Z</time>
      </trkpt>
      <trkpt lat="44.39866" lon="5.61078">
        <ele>1029.1</ele>
        <time>2021-09-07T15:13:16Z</time>
      </trkpt>
      <trkpt lat="44.39866" lon="5.61078">
        <ele>1029.1</ele>
        <time>2021-09-07T15:13:17Z</time>
      </trkpt>
      <trkpt lat="44.39866" lon="5.61078">
        <ele>1029.1</ele>
        <time>2021-09-07T15:13:18Z</time>
      </trkpt>
      <trkpt lat="44.39866" lon="5.61077">
        <ele>1029.2</ele>
        <time>2021-09-07T15:13:19Z</time>
      </trkpt>
      <trkpt lat="44.39866" lon="5.61077">
        <ele>1029.3</ele>
        <time>2021-09-07T15:13:20Z</time>
      </trkpt>
      <trkpt lat="44.39866" lon="5.61077">
        <ele>1029.3</ele>
        <time>2021-09-07T15:13:21Z</time>
      </trkpt>
      <trkpt lat="44.39866" lon="5.61078">
        <ele>1029.3</ele>
        <time>2021-09-07T15:13:22Z</time>
      </trkpt>
      <trkpt lat="44.39866" lon="5.61078">
        <ele>1029.4</ele>
        <time>2021-09-07T15:13:23Z</time>
      </trkpt>
      <trkpt lat="44.39866" lon="5.61078">
        <ele>1029.4</ele>
        <time>2021-09-07T15:13:24Z</time>
      </trkpt>
      <trkpt lat="44.39866" lon="5.61078">
        <ele>1029.4</ele>
        <time>2021-09-07T15:13:25Z</time>
      </trkpt>
      <trkpt lat="44.39865" lon="5.61078">
        <ele>1029.5</ele>
        <time>2021-09-07T15:13:26Z</time>
      </trkpt>
      <trkpt lat="44.39865" lon="5.61079">
        <ele>1029.7</ele>
        <time>2021-09-07T15:13:27Z</time>
      </trkpt>
      <trkpt lat="44.39864" lon="5.6108">
        <ele>1029.8</ele>
        <time>2021-09-07T15:13:28Z</time>
      </trkpt>
      <trkpt lat="44.39863" lon="5.61081">
        <ele>1030</ele>
        <time>2021-09-07T15:13:29Z</time>
      </trkpt>
      <trkpt lat="44.39863" lon="5.61083">
        <ele>1030.2</ele>
        <time>2021-09-07T15:13:30Z</time>
      </trkpt>
      <trkpt lat="44.39862" lon="5.61084">
        <ele>1030.3</ele>
        <time>2021-09-07T15:13:31Z</time>
      </trkpt>
      <trkpt lat="44.39861" lon="5.61086">
        <ele>1030.5</ele>
        <time>2021-09-07T15:13:32Z</time>
      </trkpt>
      <trkpt lat="44.3986" lon="5.61087">
        <ele>1030.7</ele>
        <time>2021-09-07T15:13:33Z</time>
      </trkpt>
      <trkpt lat="44.39858" lon="5.6109">
        <ele>1031.2</ele>
        <time>2021-09-07T15:13:34Z</time>
      </trkpt>
      <trkpt lat="44.39856" lon="5.61093">
        <ele>1031.6</ele>
        <time>2021-09-07T15:13:35Z</time>
      </trkpt>
      <trkpt lat="44.39854" lon="5.61095">
        <ele>1031.9</ele>
        <time>2021-09-07T15:13:36Z</time>
      </trkpt>
      <trkpt lat="44.39853" lon="5.61097">
        <ele>1032.1</ele>
        <time>2021-09-07T15:13:37Z</time>
      </trkpt>
      <trkpt lat="44.39852" lon="5.61098">
        <ele>1032.3</ele>
        <time>2021-09-07T15:13:38Z</time>
      </trkpt>
      <trkpt lat="44.39851" lon="5.611">
        <ele>1032.6</ele>
        <time>2021-09-07T15:13:39Z</time>
      </trkpt>
      <trkpt lat="44.39851" lon="5.61102">
        <ele>1032.8</ele>
        <time>2021-09-07T15:13:40Z</time>
      </trkpt>
      <trkpt lat="44.3985" lon="5.61103">
        <ele>1033</ele>
        <time>2021-09-07T15:13:41Z</time>
      </trkpt>
      <trkpt lat="44.3985" lon="5.61104">
        <ele>1033.1</ele>
        <time>2021-09-07T15:13:42Z</time>
      </trkpt>
      <trkpt lat="44.3985" lon="5.61104">
        <ele>1033.1</ele>
        <time>2021-09-07T15:13:43Z</time>
      </trkpt>
      <trkpt lat="44.39849" lon="5.61104">
        <ele>1033.3</ele>
        <time>2021-09-07T15:13:44Z</time>
      </trkpt>
      <trkpt lat="44.39849" lon="5.61105">
        <ele>1033.4</ele>
        <time>2021-09-07T15:13:45Z</time>
      </trkpt>
      <trkpt lat="44.39849" lon="5.61105">
        <ele>1033.4</ele>
        <time>2021-09-07T15:13:46Z</time>
      </trkpt>
      <trkpt lat="44.39847" lon="5.61107">
        <ele>1033.8</ele>
        <time>2021-09-07T15:13:47Z</time>
      </trkpt>
      <trkpt lat="44.39846" lon="5.61108">
        <ele>1033.9</ele>
        <time>2021-09-07T15:13:48Z</time>
      </trkpt>
      <trkpt lat="44.39845" lon="5.61109">
        <ele>1034.2</ele>
        <time>2021-09-07T15:13:49Z</time>
      </trkpt>
      <trkpt lat="44.39845" lon="5.6111">
        <ele>1034.3</ele>
        <time>2021-09-07T15:13:50Z</time>
      </trkpt>
      <trkpt lat="44.39844" lon="5.61111">
        <ele>1034.5</ele>
        <time>2021-09-07T15:13:51Z</time>
      </trkpt>
      <trkpt lat="44.39843" lon="5.61111">
        <ele>1034.6</ele>
        <time>2021-09-07T15:13:52Z</time>
      </trkpt>
      <trkpt lat="44.39843" lon="5.61112">
        <ele>1034.7</ele>
        <time>2021-09-07T15:13:53Z</time>
      </trkpt>
      <trkpt lat="44.39842" lon="5.61112">
        <ele>1034.9</ele>
        <time>2021-09-07T15:13:54Z</time>
      </trkpt>
      <trkpt lat="44.39842" lon="5.61112">
        <ele>1035</ele>
        <time>2021-09-07T15:13:55Z</time>
      </trkpt>
      <trkpt lat="44.39842" lon="5.61113">
        <ele>1035</ele>
        <time>2021-09-07T15:13:56Z</time>
      </trkpt>
      <trkpt lat="44.39842" lon="5.61113">
        <ele>1035.1</ele>
        <time>2021-09-07T15:13:57Z</time>
      </trkpt>
      <trkpt lat="44.39842" lon="5.61113">
        <ele>1035.1</ele>
        <time>2021-09-07T15:13:58Z</time>
      </trkpt>
      <trkpt lat="44.39842" lon="5.61114">
        <ele>1035.2</ele>
        <time>2021-09-07T15:13:59Z</time>
      </trkpt>
      <trkpt lat="44.39841" lon="5.61114">
        <ele>1035.3</ele>
        <time>2021-09-07T15:14:00Z</time>
      </trkpt>
      <trkpt lat="44.39839" lon="5.61117">
        <ele>1035.8</ele>
        <time>2021-09-07T15:14:01Z</time>
      </trkpt>
      <trkpt lat="44.39838" lon="5.61118">
        <ele>1035.9</ele>
        <time>2021-09-07T15:14:02Z</time>
      </trkpt>
      <trkpt lat="44.39837" lon="5.6112">
        <ele>1036.2</ele>
        <time>2021-09-07T15:14:03Z</time>
      </trkpt>
      <trkpt lat="44.39835" lon="5.61121">
        <ele>1036.5</ele>
        <time>2021-09-07T15:14:04Z</time>
      </trkpt>
      <trkpt lat="44.39834" lon="5.61122">
        <ele>1036.6</ele>
        <time>2021-09-07T15:14:05Z</time>
      </trkpt>
      <trkpt lat="44.39833" lon="5.61124">
        <ele>1036.9</ele>
        <time>2021-09-07T15:14:06Z</time>
      </trkpt>
      <trkpt lat="44.39832" lon="5.61125">
        <ele>1037.1</ele>
        <time>2021-09-07T15:14:07Z</time>
      </trkpt>
      <trkpt lat="44.39831" lon="5.61126">
        <ele>1037.2</ele>
        <time>2021-09-07T15:14:08Z</time>
      </trkpt>
      <trkpt lat="44.39831" lon="5.61126">
        <ele>1037.2</ele>
        <time>2021-09-07T15:14:09Z</time>
      </trkpt>
      <trkpt lat="44.39831" lon="5.61127">
        <ele>1037.5</ele>
        <time>2021-09-07T15:14:10Z</time>
      </trkpt>
      <trkpt lat="44.3983" lon="5.61128">
        <ele>1037.6</ele>
        <time>2021-09-07T15:14:11Z</time>
      </trkpt>
      <trkpt lat="44.3983" lon="5.61128">
        <ele>1037.6</ele>
        <time>2021-09-07T15:14:12Z</time>
      </trkpt>
      <trkpt lat="44.39829" lon="5.61129">
        <ele>1037.7</ele>
        <time>2021-09-07T15:14:13Z</time>
      </trkpt>
      <trkpt lat="44.39829" lon="5.61129">
        <ele>1037.8</ele>
        <time>2021-09-07T15:14:14Z</time>
      </trkpt>
      <trkpt lat="44.39829" lon="5.61129">
        <ele>1037.8</ele>
        <time>2021-09-07T15:14:15Z</time>
      </trkpt>
      <trkpt lat="44.39829" lon="5.6113">
        <ele>1037.9</ele>
        <time>2021-09-07T15:14:16Z</time>
      </trkpt>
      <trkpt lat="44.39829" lon="5.6113">
        <ele>1037.9</ele>
        <time>2021-09-07T15:14:17Z</time>
      </trkpt>
      <trkpt lat="44.39829" lon="5.6113">
        <ele>1037.9</ele>
        <time>2021-09-07T15:14:18Z</time>
      </trkpt>
      <trkpt lat="44.39829" lon="5.6113">
        <ele>1037.9</ele>
        <time>2021-09-07T15:14:19Z</time>
      </trkpt>
      <trkpt lat="44.39829" lon="5.61131">
        <ele>1038</ele>
        <time>2021-09-07T15:14:20Z</time>
      </trkpt>
      <trkpt lat="44.39828" lon="5.61131">
        <ele>1038.2</ele>
        <time>2021-09-07T15:14:21Z</time>
      </trkpt>
      <trkpt lat="44.39827" lon="5.61134">
        <ele>1038.5</ele>
        <time>2021-09-07T15:14:22Z</time>
      </trkpt>
      <trkpt lat="44.39826" lon="5.61135">
        <ele>1038.6</ele>
        <time>2021-09-07T15:14:23Z</time>
      </trkpt>
      <trkpt lat="44.39826" lon="5.61137">
        <ele>1038.8</ele>
        <time>2021-09-07T15:14:24Z</time>
      </trkpt>
      <trkpt lat="44.39825" lon="5.61138">
        <ele>1038.9</ele>
        <time>2021-09-07T15:14:25Z</time>
      </trkpt>
      <trkpt lat="44.39824" lon="5.6114">
        <ele>1039.2</ele>
        <time>2021-09-07T15:14:26Z</time>
      </trkpt>
      <trkpt lat="44.39823" lon="5.61142">
        <ele>1039.5</ele>
        <time>2021-09-07T15:14:27Z</time>
      </trkpt>
      <trkpt lat="44.39823" lon="5.61144">
        <ele>1039.6</ele>
        <time>2021-09-07T15:14:28Z</time>
      </trkpt>
      <trkpt lat="44.39823" lon="5.61146">
        <ele>1039.8</ele>
        <time>2021-09-07T15:14:29Z</time>
      </trkpt>
      <trkpt lat="44.39822" lon="5.61147">
        <ele>1039.9</ele>
        <time>2021-09-07T15:14:30Z</time>
      </trkpt>
      <trkpt lat="44.3982" lon="5.61149">
        <ele>1040.2</ele>
        <time>2021-09-07T15:14:31Z</time>
      </trkpt>
      <trkpt lat="44.3982" lon="5.6115">
        <ele>1040.3</ele>
        <time>2021-09-07T15:14:32Z</time>
      </trkpt>
      <trkpt lat="44.3982" lon="5.6115">
        <ele>1040.3</ele>
        <time>2021-09-07T15:14:33Z</time>
      </trkpt>
      <trkpt lat="44.39819" lon="5.61151">
        <ele>1040.6</ele>
        <time>2021-09-07T15:14:34Z</time>
      </trkpt>
      <trkpt lat="44.39818" lon="5.61153">
        <ele>1040.8</ele>
        <time>2021-09-07T15:14:35Z</time>
      </trkpt>
      <trkpt lat="44.39818" lon="5.61154">
        <ele>1040.9</ele>
        <time>2021-09-07T15:14:36Z</time>
      </trkpt>
      <trkpt lat="44.39817" lon="5.61155">
        <ele>1041</ele>
        <time>2021-09-07T15:14:37Z</time>
      </trkpt>
      <trkpt lat="44.39816" lon="5.61157">
        <ele>1041.1</ele>
        <time>2021-09-07T15:14:38Z</time>
      </trkpt>
      <trkpt lat="44.39815" lon="5.61158">
        <ele>1041.3</ele>
        <time>2021-09-07T15:14:39Z</time>
      </trkpt>
      <trkpt lat="44.39815" lon="5.61159">
        <ele>1041.4</ele>
        <time>2021-09-07T15:14:40Z</time>
      </trkpt>
      <trkpt lat="44.39815" lon="5.6116">
        <ele>1041.6</ele>
        <time>2021-09-07T15:14:41Z</time>
      </trkpt>
      <trkpt lat="44.39814" lon="5.6116">
        <ele>1041.6</ele>
        <time>2021-09-07T15:14:42Z</time>
      </trkpt>
      <trkpt lat="44.39814" lon="5.61161">
        <ele>1041.7</ele>
        <time>2021-09-07T15:14:43Z</time>
      </trkpt>
      <trkpt lat="44.39814" lon="5.61161">
        <ele>1041.7</ele>
        <time>2021-09-07T15:14:44Z</time>
      </trkpt>
      <trkpt lat="44.39814" lon="5.61161">
        <ele>1041.7</ele>
        <time>2021-09-07T15:14:45Z</time>
      </trkpt>
      <trkpt lat="44.39814" lon="5.61162">
        <ele>1041.8</ele>
        <time>2021-09-07T15:14:46Z</time>
      </trkpt>
      <trkpt lat="44.39814" lon="5.61162">
        <ele>1041.9</ele>
        <time>2021-09-07T15:14:47Z</time>
      </trkpt>
      <trkpt lat="44.39813" lon="5.61163">
        <ele>1042.1</ele>
        <time>2021-09-07T15:14:48Z</time>
      </trkpt>
      <trkpt lat="44.39812" lon="5.61164">
        <ele>1042.2</ele>
        <time>2021-09-07T15:14:49Z</time>
      </trkpt>
      <trkpt lat="44.3981" lon="5.61166">
        <ele>1042.5</ele>
        <time>2021-09-07T15:14:50Z</time>
      </trkpt>
      <trkpt lat="44.39808" lon="5.61168">
        <ele>1042.8</ele>
        <time>2021-09-07T15:14:51Z</time>
      </trkpt>
      <trkpt lat="44.39807" lon="5.61169">
        <ele>1042.9</ele>
        <time>2021-09-07T15:14:52Z</time>
      </trkpt>
      <trkpt lat="44.39806" lon="5.6117">
        <ele>1043.1</ele>
        <time>2021-09-07T15:14:53Z</time>
      </trkpt>
      <trkpt lat="44.39804" lon="5.61172">
        <ele>1043.4</ele>
        <time>2021-09-07T15:14:54Z</time>
      </trkpt>
      <trkpt lat="44.39802" lon="5.61174">
        <ele>1043.7</ele>
        <time>2021-09-07T15:14:55Z</time>
      </trkpt>
      <trkpt lat="44.39801" lon="5.61175">
        <ele>1043.8</ele>
        <time>2021-09-07T15:14:56Z</time>
      </trkpt>
      <trkpt lat="44.398" lon="5.61177">
        <ele>1044</ele>
        <time>2021-09-07T15:14:57Z</time>
      </trkpt>
      <trkpt lat="44.39799" lon="5.61178">
        <ele>1044.1</ele>
        <time>2021-09-07T15:14:58Z</time>
      </trkpt>
      <trkpt lat="44.39798" lon="5.61178">
        <ele>1044.3</ele>
        <time>2021-09-07T15:14:59Z</time>
      </trkpt>
      <trkpt lat="44.39797" lon="5.61179">
        <ele>1044.4</ele>
        <time>2021-09-07T15:15:00Z</time>
      </trkpt>
      <trkpt lat="44.39796" lon="5.6118">
        <ele>1044.5</ele>
        <time>2021-09-07T15:15:01Z</time>
      </trkpt>
      <trkpt lat="44.39794" lon="5.61181">
        <ele>1044.8</ele>
        <time>2021-09-07T15:15:02Z</time>
      </trkpt>
      <trkpt lat="44.39794" lon="5.61182">
        <ele>1044.9</ele>
        <time>2021-09-07T15:15:03Z</time>
      </trkpt>
      <trkpt lat="44.39793" lon="5.61182">
        <ele>1044.9</ele>
        <time>2021-09-07T15:15:04Z</time>
      </trkpt>
      <trkpt lat="44.39793" lon="5.61182">
        <ele>1044.9</ele>
        <time>2021-09-07T15:15:05Z</time>
      </trkpt>
      <trkpt lat="44.39793" lon="5.61183">
        <ele>1045</ele>
        <time>2021-09-07T15:15:06Z</time>
      </trkpt>
      <trkpt lat="44.39792" lon="5.61183">
        <ele>1045.1</ele>
        <time>2021-09-07T15:15:07Z</time>
      </trkpt>
      <trkpt lat="44.39792" lon="5.61184">
        <ele>1045.2</ele>
        <time>2021-09-07T15:15:08Z</time>
      </trkpt>
      <trkpt lat="44.39791" lon="5.61184">
        <ele>1045.2</ele>
        <time>2021-09-07T15:15:09Z</time>
      </trkpt>
      <trkpt lat="44.39791" lon="5.61184">
        <ele>1045.2</ele>
        <time>2021-09-07T15:15:10Z</time>
      </trkpt>
      <trkpt lat="44.39791" lon="5.61184">
        <ele>1045.2</ele>
        <time>2021-09-07T15:15:11Z</time>
      </trkpt>
      <trkpt lat="44.39791" lon="5.61184">
        <ele>1045.2</ele>
        <time>2021-09-07T15:15:12Z</time>
      </trkpt>
      <trkpt lat="44.3979" lon="5.61184">
        <ele>1045.4</ele>
        <time>2021-09-07T15:15:13Z</time>
      </trkpt>
      <trkpt lat="44.3979" lon="5.61184">
        <ele>1045.4</ele>
        <time>2021-09-07T15:15:14Z</time>
      </trkpt>
      <trkpt lat="44.3979" lon="5.61184">
        <ele>1045.4</ele>
        <time>2021-09-07T15:15:15Z</time>
      </trkpt>
      <trkpt lat="44.3979" lon="5.61185">
        <ele>1045.4</ele>
        <time>2021-09-07T15:15:16Z</time>
      </trkpt>
      <trkpt lat="44.3979" lon="5.61185">
        <ele>1045.4</ele>
        <time>2021-09-07T15:15:17Z</time>
      </trkpt>
      <trkpt lat="44.3979" lon="5.61185">
        <ele>1045.4</ele>
        <time>2021-09-07T15:15:18Z</time>
      </trkpt>
      <trkpt lat="44.3979" lon="5.61185">
        <ele>1045.4</ele>
        <time>2021-09-07T15:15:19Z</time>
      </trkpt>
      <trkpt lat="44.39789" lon="5.61186">
        <ele>1045.6</ele>
        <time>2021-09-07T15:15:20Z</time>
      </trkpt>
      <trkpt lat="44.39787" lon="5.61187">
        <ele>1045.8</ele>
        <time>2021-09-07T15:15:21Z</time>
      </trkpt>
      <trkpt lat="44.39787" lon="5.61188">
        <ele>1045.9</ele>
        <time>2021-09-07T15:15:22Z</time>
      </trkpt>
      <trkpt lat="44.39786" lon="5.61188">
        <ele>1046</ele>
        <time>2021-09-07T15:15:23Z</time>
      </trkpt>
      <trkpt lat="44.39785" lon="5.61189">
        <ele>1046.1</ele>
        <time>2021-09-07T15:15:24Z</time>
      </trkpt>
      <trkpt lat="44.39784" lon="5.61189">
        <ele>1046.2</ele>
        <time>2021-09-07T15:15:25Z</time>
      </trkpt>
      <trkpt lat="44.39783" lon="5.6119">
        <ele>1046.4</ele>
        <time>2021-09-07T15:15:26Z</time>
      </trkpt>
      <trkpt lat="44.39783" lon="5.6119">
        <ele>1046.5</ele>
        <time>2021-09-07T15:15:27Z</time>
      </trkpt>
      <trkpt lat="44.39782" lon="5.6119">
        <ele>1046.5</ele>
        <time>2021-09-07T15:15:28Z</time>
      </trkpt>
      <trkpt lat="44.39782" lon="5.61191">
        <ele>1046.6</ele>
        <time>2021-09-07T15:15:29Z</time>
      </trkpt>
      <trkpt lat="44.39781" lon="5.61191">
        <ele>1046.7</ele>
        <time>2021-09-07T15:15:30Z</time>
      </trkpt>
      <trkpt lat="44.39781" lon="5.61191">
        <ele>1046.7</ele>
        <time>2021-09-07T15:15:31Z</time>
      </trkpt>
      <trkpt lat="44.39781" lon="5.61191">
        <ele>1046.7</ele>
        <time>2021-09-07T15:15:32Z</time>
      </trkpt>
      <trkpt lat="44.39781" lon="5.61192">
        <ele>1046.8</ele>
        <time>2021-09-07T15:15:33Z</time>
      </trkpt>
      <trkpt lat="44.39781" lon="5.61194">
        <ele>1047</ele>
        <time>2021-09-07T15:15:34Z</time>
      </trkpt>
      <trkpt lat="44.39781" lon="5.61196">
        <ele>1047.1</ele>
        <time>2021-09-07T15:15:35Z</time>
      </trkpt>
      <trkpt lat="44.39781" lon="5.61197">
        <ele>1047.2</ele>
        <time>2021-09-07T15:15:36Z</time>
      </trkpt>
      <trkpt lat="44.39782" lon="5.61198">
        <ele>1047.4</ele>
        <time>2021-09-07T15:15:37Z</time>
      </trkpt>
      <trkpt lat="44.39782" lon="5.612">
        <ele>1047.6</ele>
        <time>2021-09-07T15:15:38Z</time>
      </trkpt>
      <trkpt lat="44.39782" lon="5.61201">
        <ele>1047.6</ele>
        <time>2021-09-07T15:15:39Z</time>
      </trkpt>
      <trkpt lat="44.39782" lon="5.61201">
        <ele>1047.7</ele>
        <time>2021-09-07T15:15:40Z</time>
      </trkpt>
      <trkpt lat="44.39782" lon="5.61202">
        <ele>1047.7</ele>
        <time>2021-09-07T15:15:41Z</time>
      </trkpt>
      <trkpt lat="44.39782" lon="5.61202">
        <ele>1047.7</ele>
        <time>2021-09-07T15:15:42Z</time>
      </trkpt>
      <trkpt lat="44.39782" lon="5.61202">
        <ele>1047.7</ele>
        <time>2021-09-07T15:15:43Z</time>
      </trkpt>
      <trkpt lat="44.39782" lon="5.61202">
        <ele>1047.7</ele>
        <time>2021-09-07T15:15:44Z</time>
      </trkpt>
      <trkpt lat="44.39782" lon="5.61203">
        <ele>1047.8</ele>
        <time>2021-09-07T15:15:45Z</time>
      </trkpt>
      <trkpt lat="44.39782" lon="5.61203">
        <ele>1047.8</ele>
        <time>2021-09-07T15:15:46Z</time>
      </trkpt>
      <trkpt lat="44.39782" lon="5.61203">
        <ele>1047.8</ele>
        <time>2021-09-07T15:15:47Z</time>
      </trkpt>
      <trkpt lat="44.39782" lon="5.61203">
        <ele>1047.8</ele>
        <time>2021-09-07T15:15:48Z</time>
      </trkpt>
      <trkpt lat="44.39783" lon="5.61204">
        <ele>1047.9</ele>
        <time>2021-09-07T15:15:49Z</time>
      </trkpt>
      <trkpt lat="44.39783" lon="5.61205">
        <ele>1048</ele>
        <time>2021-09-07T15:15:50Z</time>
      </trkpt>
      <trkpt lat="44.39784" lon="5.61206">
        <ele>1048.2</ele>
        <time>2021-09-07T15:15:51Z</time>
      </trkpt>
      <trkpt lat="44.39784" lon="5.61207">
        <ele>1048.3</ele>
        <time>2021-09-07T15:15:52Z</time>
      </trkpt>
      <trkpt lat="44.39785" lon="5.61208">
        <ele>1048.4</ele>
        <time>2021-09-07T15:15:53Z</time>
      </trkpt>
      <trkpt lat="44.39786" lon="5.61209">
        <ele>1048.5</ele>
        <time>2021-09-07T15:15:54Z</time>
      </trkpt>
      <trkpt lat="44.39786" lon="5.61209">
        <ele>1048.5</ele>
        <time>2021-09-07T15:15:55Z</time>
      </trkpt>
      <trkpt lat="44.39787" lon="5.6121">
        <ele>1048.6</ele>
        <time>2021-09-07T15:15:56Z</time>
      </trkpt>
      <trkpt lat="44.39787" lon="5.6121">
        <ele>1048.7</ele>
        <time>2021-09-07T15:15:57Z</time>
      </trkpt>
      <trkpt lat="44.39788" lon="5.61211">
        <ele>1048.8</ele>
        <time>2021-09-07T15:15:58Z</time>
      </trkpt>
      <trkpt lat="44.39788" lon="5.61211">
        <ele>1048.8</ele>
        <time>2021-09-07T15:15:59Z</time>
      </trkpt>
      <trkpt lat="44.39788" lon="5.61211">
        <ele>1048.8</ele>
        <time>2021-09-07T15:16:00Z</time>
      </trkpt>
      <trkpt lat="44.39788" lon="5.61211">
        <ele>1048.8</ele>
        <time>2021-09-07T15:16:01Z</time>
      </trkpt>
      <trkpt lat="44.39788" lon="5.61212">
        <ele>1048.9</ele>
        <time>2021-09-07T15:16:02Z</time>
      </trkpt>
      <trkpt lat="44.39788" lon="5.61212">
        <ele>1048.9</ele>
        <time>2021-09-07T15:16:03Z</time>
      </trkpt>
      <trkpt lat="44.39788" lon="5.61212">
        <ele>1048.9</ele>
        <time>2021-09-07T15:16:04Z</time>
      </trkpt>
      <trkpt lat="44.39788" lon="5.61213">
        <ele>1049</ele>
        <time>2021-09-07T15:16:05Z</time>
      </trkpt>
      <trkpt lat="44.39788" lon="5.61213">
        <ele>1049</ele>
        <time>2021-09-07T15:16:06Z</time>
      </trkpt>
      <trkpt lat="44.39788" lon="5.61213">
        <ele>1049</ele>
        <time>2021-09-07T15:16:07Z</time>
      </trkpt>
      <trkpt lat="44.39788" lon="5.61213">
        <ele>1049</ele>
        <time>2021-09-07T15:16:08Z</time>
      </trkpt>
      <trkpt lat="44.39788" lon="5.61213">
        <ele>1049</ele>
        <time>2021-09-07T15:16:09Z</time>
      </trkpt>
      <trkpt lat="44.39788" lon="5.61213">
        <ele>1049</ele>
        <time>2021-09-07T15:16:10Z</time>
      </trkpt>
      <trkpt lat="44.39788" lon="5.61213">
        <ele>1049</ele>
        <time>2021-09-07T15:16:11Z</time>
      </trkpt>
      <trkpt lat="44.39788" lon="5.61213">
        <ele>1049</ele>
        <time>2021-09-07T15:16:12Z</time>
      </trkpt>
      <trkpt lat="44.39788" lon="5.61213">
        <ele>1049</ele>
        <time>2021-09-07T15:16:13Z</time>
      </trkpt>
      <trkpt lat="44.39788" lon="5.61213">
        <ele>1049</ele>
        <time>2021-09-07T15:16:14Z</time>
      </trkpt>
      <trkpt lat="44.39788" lon="5.61213">
        <ele>1049</ele>
        <time>2021-09-07T15:16:15Z</time>
      </trkpt>
      <trkpt lat="44.39788" lon="5.61213">
        <ele>1049</ele>
        <time>2021-09-07T15:16:16Z</time>
      </trkpt>
      <trkpt lat="44.39788" lon="5.61213">
        <ele>1049</ele>
        <time>2021-09-07T15:16:17Z</time>
      </trkpt>
      <trkpt lat="44.39788" lon="5.61213">
        <ele>1049</ele>
        <time>2021-09-07T15:16:18Z</time>
      </trkpt>
      <trkpt lat="44.39788" lon="5.61213">
        <ele>1049</ele>
        <time>2021-09-07T15:16:19Z</time>
      </trkpt>
      <trkpt lat="44.39788" lon="5.61213">
        <ele>1049</ele>
        <time>2021-09-07T15:16:20Z</time>
      </trkpt>
      <trkpt lat="44.39788" lon="5.61213">
        <ele>1049</ele>
        <time>2021-09-07T15:16:21Z</time>
      </trkpt>
      <trkpt lat="44.39788" lon="5.61213">
        <ele>1049</ele>
        <time>2021-09-07T15:16:22Z</time>
      </trkpt>
      <trkpt lat="44.39788" lon="5.61213">
        <ele>1049</ele>
        <time>2021-09-07T15:16:23Z</time>
      </trkpt>
      <trkpt lat="44.39788" lon="5.61213">
        <ele>1049</ele>
        <time>2021-09-07T15:16:24Z</time>
      </trkpt>
      <trkpt lat="44.39788" lon="5.61213">
        <ele>1049</ele>
        <time>2021-09-07T15:16:25Z</time>
      </trkpt>
      <trkpt lat="44.39788" lon="5.61213">
        <ele>1049</ele>
        <time>2021-09-07T15:16:26Z</time>
      </trkpt>
      <trkpt lat="44.39788" lon="5.61213">
        <ele>1049</ele>
        <time>2021-09-07T15:16:27Z</time>
      </trkpt>
      <trkpt lat="44.39788" lon="5.61213">
        <ele>1049</ele>
        <time>2021-09-07T15:16:28Z</time>
      </trkpt>
      <trkpt lat="44.39788" lon="5.61213">
        <ele>1049</ele>
        <time>2021-09-07T15:16:29Z</time>
      </trkpt>
      <trkpt lat="44.39788" lon="5.61213">
        <ele>1049</ele>
        <time>2021-09-07T15:16:30Z</time>
      </trkpt>
      <trkpt lat="44.39788" lon="5.61213">
        <ele>1049</ele>
        <time>2021-09-07T15:16:31Z</time>
      </trkpt>
      <trkpt lat="44.39788" lon="5.61213">
        <ele>1049</ele>
        <time>2021-09-07T15:16:32Z</time>
      </trkpt>
      <trkpt lat="44.39788" lon="5.61213">
        <ele>1049</ele>
        <time>2021-09-07T15:16:33Z</time>
      </trkpt>
      <trkpt lat="44.39788" lon="5.61213">
        <ele>1049</ele>
        <time>2021-09-07T15:16:34Z</time>
      </trkpt>
      <trkpt lat="44.39788" lon="5.61213">
        <ele>1049</ele>
        <time>2021-09-07T15:16:35Z</time>
      </trkpt>
      <trkpt lat="44.39788" lon="5.61213">
        <ele>1049</ele>
        <time>2021-09-07T15:16:36Z</time>
      </trkpt>
      <trkpt lat="44.39788" lon="5.61213">
        <ele>1049</ele>
        <time>2021-09-07T15:16:37Z</time>
      </trkpt>
      <trkpt lat="44.39788" lon="5.61213">
        <ele>1049</ele>
        <time>2021-09-07T15:16:38Z</time>
      </trkpt>
      <trkpt lat="44.39788" lon="5.61213">
        <ele>1049</ele>
        <time>2021-09-07T15:16:39Z</time>
      </trkpt>
      <trkpt lat="44.39788" lon="5.61213">
        <ele>1049</ele>
        <time>2021-09-07T15:16:40Z</time>
      </trkpt>
      <trkpt lat="44.39788" lon="5.61213">
        <ele>1049</ele>
        <time>2021-09-07T15:16:41Z</time>
      </trkpt>
      <trkpt lat="44.39791" lon="5.61213">
        <ele>1049.3</ele>
        <time>2021-09-07T15:16:42Z</time>
      </trkpt>
      <trkpt lat="44.39793" lon="5.61212">
        <ele>1049.6</ele>
        <time>2021-09-07T15:16:43Z</time>
      </trkpt>
      <trkpt lat="44.39795" lon="5.61212">
        <ele>1049.9</ele>
        <time>2021-09-07T15:16:44Z</time>
      </trkpt>
      <trkpt lat="44.39796" lon="5.61212">
        <ele>1050</ele>
        <time>2021-09-07T15:16:45Z</time>
      </trkpt>
      <trkpt lat="44.39797" lon="5.61212">
        <ele>1050.1</ele>
        <time>2021-09-07T15:16:46Z</time>
      </trkpt>
      <trkpt lat="44.39798" lon="5.61212">
        <ele>1050.2</ele>
        <time>2021-09-07T15:16:47Z</time>
      </trkpt>
      <trkpt lat="44.39798" lon="5.61212">
        <ele>1050.2</ele>
        <time>2021-09-07T15:16:48Z</time>
      </trkpt>
      <trkpt lat="44.39798" lon="5.61212">
        <ele>1050.2</ele>
        <time>2021-09-07T15:16:49Z</time>
      </trkpt>
      <trkpt lat="44.39798" lon="5.61212">
        <ele>1050.2</ele>
        <time>2021-09-07T15:16:50Z</time>
      </trkpt>
      <trkpt lat="44.39798" lon="5.61212">
        <ele>1050.2</ele>
        <time>2021-09-07T15:16:51Z</time>
      </trkpt>
      <trkpt lat="44.39798" lon="5.61212">
        <ele>1050.2</ele>
        <time>2021-09-07T15:16:52Z</time>
      </trkpt>
      <trkpt lat="44.39798" lon="5.61212">
        <ele>1050.2</ele>
        <time>2021-09-07T15:16:53Z</time>
      </trkpt>
      <trkpt lat="44.39798" lon="5.61212">
        <ele>1050.2</ele>
        <time>2021-09-07T15:16:54Z</time>
      </trkpt>
      <trkpt lat="44.39798" lon="5.61212">
        <ele>1050.2</ele>
        <time>2021-09-07T15:16:55Z</time>
      </trkpt>
      <trkpt lat="44.39798" lon="5.61212">
        <ele>1050.2</ele>
        <time>2021-09-07T15:16:56Z</time>
      </trkpt>
      <trkpt lat="44.39798" lon="5.61212">
        <ele>1050.2</ele>
        <time>2021-09-07T15:16:57Z</time>
      </trkpt>
      <trkpt lat="44.39798" lon="5.61212">
        <ele>1050.2</ele>
        <time>2021-09-07T15:16:58Z</time>
      </trkpt>
      <trkpt lat="44.39798" lon="5.61212">
        <ele>1050.2</ele>
        <time>2021-09-07T15:16:59Z</time>
      </trkpt>
      <trkpt lat="44.39798" lon="5.61212">
        <ele>1050.2</ele>
        <time>2021-09-07T15:17:00Z</time>
      </trkpt>
      <trkpt lat="44.39798" lon="5.61212">
        <ele>1050.2</ele>
        <time>2021-09-07T15:17:01Z</time>
      </trkpt>
      <trkpt lat="44.39798" lon="5.61212">
        <ele>1050.2</ele>
        <time>2021-09-07T15:17:02Z</time>
      </trkpt>
      <trkpt lat="44.39798" lon="5.61212">
        <ele>1050.2</ele>
        <time>2021-09-07T15:17:03Z</time>
      </trkpt>
      <trkpt lat="44.39798" lon="5.61212">
        <ele>1050.2</ele>
        <time>2021-09-07T15:17:04Z</time>
      </trkpt>
      <trkpt lat="44.39798" lon="5.61212">
        <ele>1050.2</ele>
        <time>2021-09-07T15:17:05Z</time>
      </trkpt>
      <trkpt lat="44.39798" lon="5.61212">
        <ele>1050.2</ele>
        <time>2021-09-07T15:17:06Z</time>
      </trkpt>
      <trkpt lat="44.39798" lon="5.61212">
        <ele>1050.2</ele>
        <time>2021-09-07T15:17:07Z</time>
      </trkpt>
      <trkpt lat="44.39798" lon="5.61212">
        <ele>1050.2</ele>
        <time>2021-09-07T15:17:08Z</time>
      </trkpt>
      <trkpt lat="44.39798" lon="5.61212">
        <ele>1050.2</ele>
        <time>2021-09-07T15:17:09Z</time>
      </trkpt>
      <trkpt lat="44.39798" lon="5.61212">
        <ele>1050.2</ele>
        <time>2021-09-07T15:17:10Z</time>
      </trkpt>
      <trkpt lat="44.39798" lon="5.61212">
        <ele>1050.2</ele>
        <time>2021-09-07T15:17:11Z</time>
      </trkpt>
      <trkpt lat="44.39798" lon="5.61212">
        <ele>1050.2</ele>
        <time>2021-09-07T15:17:12Z</time>
      </trkpt>
      <trkpt lat="44.39798" lon="5.61213">
        <ele>1050.3</ele>
        <time>2021-09-07T15:17:13Z</time>
      </trkpt>
      <trkpt lat="44.39799" lon="5.61213">
        <ele>1050.4</ele>
        <time>2021-09-07T15:17:14Z</time>
      </trkpt>
      <trkpt lat="44.39799" lon="5.61213">
        <ele>1050.4</ele>
        <time>2021-09-07T15:17:15Z</time>
      </trkpt>
      <trkpt lat="44.39799" lon="5.61213">
        <ele>1050.4</ele>
        <time>2021-09-07T15:17:16Z</time>
      </trkpt>
      <trkpt lat="44.39799" lon="5.61213">
        <ele>1050.4</ele>
        <time>2021-09-07T15:17:17Z</time>
      </trkpt>
      <trkpt lat="44.39799" lon="5.61213">
        <ele>1050.4</ele>
        <time>2021-09-07T15:17:18Z</time>
      </trkpt>
      <trkpt lat="44.39799" lon="5.61213">
        <ele>1050.4</ele>
        <time>2021-09-07T15:17:19Z</time>
      </trkpt>
      <trkpt lat="44.39799" lon="5.61213">
        <ele>1050.4</ele>
        <time>2021-09-07T15:17:20Z</time>
      </trkpt>
      <trkpt lat="44.39799" lon="5.61213">
        <ele>1050.4</ele>
        <time>2021-09-07T15:17:21Z</time>
      </trkpt>
      <trkpt lat="44.39799" lon="5.61213">
        <ele>1050.4</ele>
        <time>2021-09-07T15:17:22Z</time>
      </trkpt>
      <trkpt lat="44.39799" lon="5.61213">
        <ele>1050.5</ele>
        <time>2021-09-07T15:17:23Z</time>
      </trkpt>
      <trkpt lat="44.39798" lon="5.61212">
        <ele>1050.6</ele>
        <time>2021-09-07T15:17:24Z</time>
      </trkpt>
      <trkpt lat="44.39798" lon="5.61212">
        <ele>1050.6</ele>
        <time>2021-09-07T15:17:25Z</time>
      </trkpt>
      <trkpt lat="44.39798" lon="5.61212">
        <ele>1050.6</ele>
        <time>2021-09-07T15:17:26Z</time>
      </trkpt>
      <trkpt lat="44.39798" lon="5.61212">
        <ele>1050.6</ele>
        <time>2021-09-07T15:17:27Z</time>
      </trkpt>
      <trkpt lat="44.39798" lon="5.61212">
        <ele>1050.6</ele>
        <time>2021-09-07T15:17:28Z</time>
      </trkpt>
      <trkpt lat="44.39798" lon="5.61212">
        <ele>1050.6</ele>
        <time>2021-09-07T15:17:29Z</time>
      </trkpt>
      <trkpt lat="44.39798" lon="5.61212">
        <ele>1050.6</ele>
        <time>2021-09-07T15:17:30Z</time>
      </trkpt>
      <trkpt lat="44.39798" lon="5.61212">
        <ele>1050.6</ele>
        <time>2021-09-07T15:17:31Z</time>
      </trkpt>
      <trkpt lat="44.39798" lon="5.61212">
        <ele>1050.6</ele>
        <time>2021-09-07T15:17:32Z</time>
      </trkpt>
      <trkpt lat="44.39798" lon="5.61212">
        <ele>1050.6</ele>
        <time>2021-09-07T15:17:33Z</time>
      </trkpt>
      <trkpt lat="44.39798" lon="5.61212">
        <ele>1050.6</ele>
        <time>2021-09-07T15:17:34Z</time>
      </trkpt>
      <trkpt lat="44.39798" lon="5.61212">
        <ele>1050.6</ele>
        <time>2021-09-07T15:17:35Z</time>
      </trkpt>
      <trkpt lat="44.39798" lon="5.61212">
        <ele>1050.6</ele>
        <time>2021-09-07T15:17:36Z</time>
      </trkpt>
      <trkpt lat="44.39798" lon="5.61212">
        <ele>1050.6</ele>
        <time>2021-09-07T15:17:37Z</time>
      </trkpt>
      <trkpt lat="44.39798" lon="5.61212">
        <ele>1050.6</ele>
        <time>2021-09-07T15:17:38Z</time>
      </trkpt>
      <trkpt lat="44.39798" lon="5.61212">
        <ele>1050.6</ele>
        <time>2021-09-07T15:17:39Z</time>
      </trkpt>
      <trkpt lat="44.39798" lon="5.61212">
        <ele>1050.6</ele>
        <time>2021-09-07T15:17:40Z</time>
      </trkpt>
      <trkpt lat="44.39798" lon="5.61212">
        <ele>1050.6</ele>
        <time>2021-09-07T15:17:41Z</time>
      </trkpt>
      <trkpt lat="44.39798" lon="5.61212">
        <ele>1050.6</ele>
        <time>2021-09-07T15:17:42Z</time>
      </trkpt>
      <trkpt lat="44.39798" lon="5.61212">
        <ele>1050.6</ele>
        <time>2021-09-07T15:17:43Z</time>
      </trkpt>
      <trkpt lat="44.39798" lon="5.61212">
        <ele>1050.6</ele>
        <time>2021-09-07T15:17:44Z</time>
      </trkpt>
      <trkpt lat="44.39798" lon="5.61212">
        <ele>1050.6</ele>
        <time>2021-09-07T15:17:45Z</time>
      </trkpt>
      <trkpt lat="44.39798" lon="5.61212">
        <ele>1050.6</ele>
        <time>2021-09-07T15:17:46Z</time>
      </trkpt>
      <trkpt lat="44.39798" lon="5.61212">
        <ele>1050.6</ele>
        <time>2021-09-07T15:17:47Z</time>
      </trkpt>
      <trkpt lat="44.39798" lon="5.61212">
        <ele>1050.6</ele>
        <time>2021-09-07T15:17:48Z</time>
      </trkpt>
      <trkpt lat="44.39798" lon="5.61212">
        <ele>1050.6</ele>
        <time>2021-09-07T15:17:49Z</time>
      </trkpt>
      <trkpt lat="44.39798" lon="5.61212">
        <ele>1050.6</ele>
        <time>2021-09-07T15:17:50Z</time>
      </trkpt>
      <trkpt lat="44.39798" lon="5.61212">
        <ele>1050.6</ele>
        <time>2021-09-07T15:17:51Z</time>
      </trkpt>
      <trkpt lat="44.39798" lon="5.61212">
        <ele>1050.6</ele>
        <time>2021-09-07T15:17:52Z</time>
      </trkpt>
      <trkpt lat="44.39798" lon="5.61212">
        <ele>1050.6</ele>
        <time>2021-09-07T15:17:53Z</time>
      </trkpt>
      <trkpt lat="44.39798" lon="5.61212">
        <ele>1050.6</ele>
        <time>2021-09-07T15:17:54Z</time>
      </trkpt>
      <trkpt lat="44.39798" lon="5.61212">
        <ele>1050.6</ele>
        <time>2021-09-07T15:17:55Z</time>
      </trkpt>
      <trkpt lat="44.39798" lon="5.61212">
        <ele>1050.6</ele>
        <time>2021-09-07T15:17:56Z</time>
      </trkpt>
      <trkpt lat="44.39798" lon="5.61212">
        <ele>1050.6</ele>
        <time>2021-09-07T15:17:57Z</time>
      </trkpt>
      <trkpt lat="44.39798" lon="5.61212">
        <ele>1050.6</ele>
        <time>2021-09-07T15:17:58Z</time>
      </trkpt>
      <trkpt lat="44.39798" lon="5.61212">
        <ele>1050.6</ele>
        <time>2021-09-07T15:17:59Z</time>
      </trkpt>
      <trkpt lat="44.39798" lon="5.61212">
        <ele>1050.6</ele>
        <time>2021-09-07T15:18:00Z</time>
      </trkpt>
      <trkpt lat="44.39798" lon="5.61212">
        <ele>1050.6</ele>
        <time>2021-09-07T15:18:01Z</time>
      </trkpt>
      <trkpt lat="44.39798" lon="5.61212">
        <ele>1050.6</ele>
        <time>2021-09-07T15:18:02Z</time>
      </trkpt>
      <trkpt lat="44.39798" lon="5.61212">
        <ele>1050.6</ele>
        <time>2021-09-07T15:18:03Z</time>
      </trkpt>
      <trkpt lat="44.39798" lon="5.61212">
        <ele>1050.6</ele>
        <time>2021-09-07T15:18:04Z</time>
      </trkpt>
      <trkpt lat="44.39798" lon="5.61212">
        <ele>1050.6</ele>
        <time>2021-09-07T15:18:05Z</time>
      </trkpt>
      <trkpt lat="44.39798" lon="5.61212">
        <ele>1050.6</ele>
        <time>2021-09-07T15:18:06Z</time>
      </trkpt>
      <trkpt lat="44.39798" lon="5.61212">
        <ele>1050.6</ele>
        <time>2021-09-07T15:18:07Z</time>
      </trkpt>
      <trkpt lat="44.39798" lon="5.61212">
        <ele>1050.6</ele>
        <time>2021-09-07T15:18:08Z</time>
      </trkpt>
      <trkpt lat="44.39798" lon="5.61212">
        <ele>1050.6</ele>
        <time>2021-09-07T15:18:09Z</time>
      </trkpt>
      <trkpt lat="44.39798" lon="5.61212">
        <ele>1050.6</ele>
        <time>2021-09-07T15:18:10Z</time>
      </trkpt>
      <trkpt lat="44.39798" lon="5.61212">
        <ele>1050.6</ele>
        <time>2021-09-07T15:18:11Z</time>
      </trkpt>
      <trkpt lat="44.39798" lon="5.61212">
        <ele>1050.6</ele>
        <time>2021-09-07T15:18:12Z</time>
      </trkpt>
      <trkpt lat="44.39798" lon="5.61212">
        <ele>1050.6</ele>
        <time>2021-09-07T15:18:13Z</time>
      </trkpt>
      <trkpt lat="44.39798" lon="5.61212">
        <ele>1050.6</ele>
        <time>2021-09-07T15:18:14Z</time>
      </trkpt>
      <trkpt lat="44.39798" lon="5.61212">
        <ele>1050.6</ele>
        <time>2021-09-07T15:18:15Z</time>
      </trkpt>
      <trkpt lat="44.39798" lon="5.61212">
        <ele>1050.6</ele>
        <time>2021-09-07T15:18:16Z</time>
      </trkpt>
      <trkpt lat="44.39798" lon="5.61212">
        <ele>1050.6</ele>
        <time>2021-09-07T15:18:17Z</time>
      </trkpt>
      <trkpt lat="44.39798" lon="5.61212">
        <ele>1050.6</ele>
        <time>2021-09-07T15:18:18Z</time>
      </trkpt>
      <trkpt lat="44.39798" lon="5.61212">
        <ele>1050.6</ele>
        <time>2021-09-07T15:18:19Z</time>
      </trkpt>
      <trkpt lat="44.39798" lon="5.61212">
        <ele>1050.6</ele>
        <time>2021-09-07T15:18:20Z</time>
      </trkpt>
      <trkpt lat="44.39798" lon="5.61212">
        <ele>1050.6</ele>
        <time>2021-09-07T15:18:21Z</time>
      </trkpt>
      <trkpt lat="44.39798" lon="5.61212">
        <ele>1050.6</ele>
        <time>2021-09-07T15:18:22Z</time>
      </trkpt>
      <trkpt lat="44.39798" lon="5.61212">
        <ele>1050.6</ele>
        <time>2021-09-07T15:18:23Z</time>
      </trkpt>
      <trkpt lat="44.39798" lon="5.61212">
        <ele>1050.6</ele>
        <time>2021-09-07T15:18:24Z</time>
      </trkpt>
      <trkpt lat="44.39798" lon="5.61212">
        <ele>1050.6</ele>
        <time>2021-09-07T15:18:25Z</time>
      </trkpt>
      <trkpt lat="44.39798" lon="5.61212">
        <ele>1050.6</ele>
        <time>2021-09-07T15:18:26Z</time>
      </trkpt>
      <trkpt lat="44.39798" lon="5.61212">
        <ele>1050.6</ele>
        <time>2021-09-07T15:18:27Z</time>
      </trkpt>
      <trkpt lat="44.39798" lon="5.61212">
        <ele>1050.6</ele>
        <time>2021-09-07T15:18:28Z</time>
      </trkpt>
      <trkpt lat="44.39798" lon="5.61212">
        <ele>1050.6</ele>
        <time>2021-09-07T15:18:29Z</time>
      </trkpt>
      <trkpt lat="44.39798" lon="5.61212">
        <ele>1050.6</ele>
        <time>2021-09-07T15:18:30Z</time>
      </trkpt>
      <trkpt lat="44.39798" lon="5.61212">
        <ele>1050.6</ele>
        <time>2021-09-07T15:18:31Z</time>
      </trkpt>
      <trkpt lat="44.39798" lon="5.61212">
        <ele>1050.6</ele>
        <time>2021-09-07T15:18:32Z</time>
      </trkpt>
      <trkpt lat="44.39798" lon="5.61212">
        <ele>1050.6</ele>
        <time>2021-09-07T15:18:33Z</time>
      </trkpt>
      <trkpt lat="44.39798" lon="5.61212">
        <ele>1050.6</ele>
        <time>2021-09-07T15:18:34Z</time>
      </trkpt>
      <trkpt lat="44.39798" lon="5.61212">
        <ele>1050.6</ele>
        <time>2021-09-07T15:18:35Z</time>
      </trkpt>
      <trkpt lat="44.39798" lon="5.61212">
        <ele>1050.6</ele>
        <time>2021-09-07T15:18:36Z</time>
      </trkpt>
      <trkpt lat="44.39798" lon="5.61212">
        <ele>1050.6</ele>
        <time>2021-09-07T15:18:37Z</time>
      </trkpt>
      <trkpt lat="44.39798" lon="5.61212">
        <ele>1050.6</ele>
        <time>2021-09-07T15:18:38Z</time>
      </trkpt>
      <trkpt lat="44.39798" lon="5.61212">
        <ele>1050.6</ele>
        <time>2021-09-07T15:18:39Z</time>
      </trkpt>
      <trkpt lat="44.39798" lon="5.61212">
        <ele>1050.6</ele>
        <time>2021-09-07T15:18:40Z</time>
      </trkpt>
      <trkpt lat="44.39798" lon="5.61212">
        <ele>1050.6</ele>
        <time>2021-09-07T15:18:41Z</time>
      </trkpt>
      <trkpt lat="44.39798" lon="5.61212">
        <ele>1050.6</ele>
        <time>2021-09-07T15:18:42Z</time>
      </trkpt>
      <trkpt lat="44.39798" lon="5.61212">
        <ele>1050.6</ele>
        <time>2021-09-07T15:18:43Z</time>
      </trkpt>
      <trkpt lat="44.39798" lon="5.61212">
        <ele>1050.6</ele>
        <time>2021-09-07T15:18:44Z</time>
      </trkpt>
      <trkpt lat="44.39798" lon="5.61212">
        <ele>1050.6</ele>
        <time>2021-09-07T15:18:45Z</time>
      </trkpt>
      <trkpt lat="44.39798" lon="5.61212">
        <ele>1050.6</ele>
        <time>2021-09-07T15:18:46Z</time>
      </trkpt>
      <trkpt lat="44.39798" lon="5.61212">
        <ele>1050.6</ele>
        <time>2021-09-07T15:18:47Z</time>
      </trkpt>
      <trkpt lat="44.39798" lon="5.61212">
        <ele>1050.6</ele>
        <time>2021-09-07T15:18:48Z</time>
      </trkpt>
      <trkpt lat="44.39798" lon="5.61212">
        <ele>1050.6</ele>
        <time>2021-09-07T15:18:49Z</time>
      </trkpt>
      <trkpt lat="44.39798" lon="5.61212">
        <ele>1050.6</ele>
        <time>2021-09-07T15:18:50Z</time>
      </trkpt>
      <trkpt lat="44.39798" lon="5.61212">
        <ele>1050.6</ele>
        <time>2021-09-07T15:18:51Z</time>
      </trkpt>
      <trkpt lat="44.39798" lon="5.61212">
        <ele>1050.6</ele>
        <time>2021-09-07T15:18:52Z</time>
      </trkpt>
      <trkpt lat="44.39798" lon="5.61212">
        <ele>1050.6</ele>
        <time>2021-09-07T15:18:53Z</time>
      </trkpt>
      <trkpt lat="44.39798" lon="5.61212">
        <ele>1050.6</ele>
        <time>2021-09-07T15:18:54Z</time>
      </trkpt>
      <trkpt lat="44.39798" lon="5.61212">
        <ele>1050.6</ele>
        <time>2021-09-07T15:18:55Z</time>
      </trkpt>
      <trkpt lat="44.39798" lon="5.61212">
        <ele>1050.6</ele>
        <time>2021-09-07T15:18:56Z</time>
      </trkpt>
      <trkpt lat="44.39798" lon="5.61212">
        <ele>1050.6</ele>
        <time>2021-09-07T15:18:57Z</time>
      </trkpt>
      <trkpt lat="44.39798" lon="5.61212">
        <ele>1050.6</ele>
        <time>2021-09-07T15:18:58Z</time>
      </trkpt>
      <trkpt lat="44.39798" lon="5.61212">
        <ele>1050.6</ele>
        <time>2021-09-07T15:18:59Z</time>
      </trkpt>
      <trkpt lat="44.39798" lon="5.61212">
        <ele>1050.6</ele>
        <time>2021-09-07T15:19:00Z</time>
      </trkpt>
      <trkpt lat="44.39798" lon="5.61212">
        <ele>1050.6</ele>
        <time>2021-09-07T15:19:01Z</time>
      </trkpt>
      <trkpt lat="44.39798" lon="5.61212">
        <ele>1050.6</ele>
        <time>2021-09-07T15:19:02Z</time>
      </trkpt>
      <trkpt lat="44.39798" lon="5.61212">
        <ele>1050.6</ele>
        <time>2021-09-07T15:19:03Z</time>
      </trkpt>
      <trkpt lat="44.39798" lon="5.61212">
        <ele>1050.6</ele>
        <time>2021-09-07T15:19:04Z</time>
      </trkpt>
      <trkpt lat="44.39798" lon="5.61212">
        <ele>1050.6</ele>
        <time>2021-09-07T15:19:05Z</time>
      </trkpt>
      <trkpt lat="44.39798" lon="5.61212">
        <ele>1050.6</ele>
        <time>2021-09-07T15:19:06Z</time>
      </trkpt>
      <trkpt lat="44.39798" lon="5.61212">
        <ele>1050.6</ele>
        <time>2021-09-07T15:19:07Z</time>
      </trkpt>
      <trkpt lat="44.39798" lon="5.61212">
        <ele>1050.6</ele>
        <time>2021-09-07T15:19:08Z</time>
      </trkpt>
      <trkpt lat="44.39798" lon="5.61212">
        <ele>1050.6</ele>
        <time>2021-09-07T15:19:09Z</time>
      </trkpt>
      <trkpt lat="44.39798" lon="5.61212">
        <ele>1050.6</ele>
        <time>2021-09-07T15:19:10Z</time>
      </trkpt>
      <trkpt lat="44.39798" lon="5.61212">
        <ele>1050.6</ele>
        <time>2021-09-07T15:19:11Z</time>
      </trkpt>
      <trkpt lat="44.39798" lon="5.61212">
        <ele>1050.6</ele>
        <time>2021-09-07T15:19:12Z</time>
      </trkpt>
      <trkpt lat="44.39798" lon="5.61212">
        <ele>1050.6</ele>
        <time>2021-09-07T15:19:13Z</time>
      </trkpt>
      <trkpt lat="44.39798" lon="5.61212">
        <ele>1050.6</ele>
        <time>2021-09-07T15:19:14Z</time>
      </trkpt>
      <trkpt lat="44.39798" lon="5.61212">
        <ele>1050.6</ele>
        <time>2021-09-07T15:19:15Z</time>
      </trkpt>
      <trkpt lat="44.39798" lon="5.61212">
        <ele>1050.6</ele>
        <time>2021-09-07T15:19:16Z</time>
      </trkpt>
      <trkpt lat="44.39798" lon="5.61212">
        <ele>1050.6</ele>
        <time>2021-09-07T15:19:17Z</time>
      </trkpt>
      <trkpt lat="44.39798" lon="5.61212">
        <ele>1050.6</ele>
        <time>2021-09-07T15:19:18Z</time>
      </trkpt>
      <trkpt lat="44.39798" lon="5.61212">
        <ele>1050.6</ele>
        <time>2021-09-07T15:19:19Z</time>
      </trkpt>
      <trkpt lat="44.39798" lon="5.61212">
        <ele>1050.6</ele>
        <time>2021-09-07T15:19:20Z</time>
      </trkpt>
      <trkpt lat="44.39798" lon="5.61212">
        <ele>1050.6</ele>
        <time>2021-09-07T15:19:21Z</time>
      </trkpt>
      <trkpt lat="44.39798" lon="5.61212">
        <ele>1050.6</ele>
        <time>2021-09-07T15:19:22Z</time>
      </trkpt>
      <trkpt lat="44.39798" lon="5.61212">
        <ele>1050.6</ele>
        <time>2021-09-07T15:19:23Z</time>
      </trkpt>
      <trkpt lat="44.39798" lon="5.61212">
        <ele>1050.6</ele>
        <time>2021-09-07T15:19:24Z</time>
      </trkpt>
      <trkpt lat="44.39798" lon="5.61212">
        <ele>1050.6</ele>
        <time>2021-09-07T15:19:25Z</time>
      </trkpt>
      <trkpt lat="44.39798" lon="5.61212">
        <ele>1050.6</ele>
        <time>2021-09-07T15:19:26Z</time>
      </trkpt>
      <trkpt lat="44.39798" lon="5.61212">
        <ele>1050.6</ele>
        <time>2021-09-07T15:19:27Z</time>
      </trkpt>
      <trkpt lat="44.39798" lon="5.61212">
        <ele>1050.6</ele>
        <time>2021-09-07T15:19:28Z</time>
      </trkpt>
      <trkpt lat="44.39798" lon="5.61212">
        <ele>1050.6</ele>
        <time>2021-09-07T15:19:29Z</time>
      </trkpt>
      <trkpt lat="44.39798" lon="5.61212">
        <ele>1050.6</ele>
        <time>2021-09-07T15:19:30Z</time>
      </trkpt>
      <trkpt lat="44.39798" lon="5.61212">
        <ele>1050.6</ele>
        <time>2021-09-07T15:19:31Z</time>
      </trkpt>
      <trkpt lat="44.39798" lon="5.61212">
        <ele>1050.6</ele>
        <time>2021-09-07T15:19:32Z</time>
      </trkpt>
      <trkpt lat="44.39798" lon="5.61212">
        <ele>1050.6</ele>
        <time>2021-09-07T15:19:33Z</time>
      </trkpt>
      <trkpt lat="44.39798" lon="5.61212">
        <ele>1050.6</ele>
        <time>2021-09-07T15:19:34Z</time>
      </trkpt>
      <trkpt lat="44.39798" lon="5.61212">
        <ele>1050.6</ele>
        <time>2021-09-07T15:19:35Z</time>
      </trkpt>
      <trkpt lat="44.39798" lon="5.61212">
        <ele>1050.6</ele>
        <time>2021-09-07T15:19:36Z</time>
      </trkpt>
      <trkpt lat="44.39798" lon="5.61212">
        <ele>1050.6</ele>
        <time>2021-09-07T15:19:37Z</time>
      </trkpt>
      <trkpt lat="44.39798" lon="5.61212">
        <ele>1050.6</ele>
        <time>2021-09-07T15:19:38Z</time>
      </trkpt>
      <trkpt lat="44.39798" lon="5.61212">
        <ele>1050.6</ele>
        <time>2021-09-07T15:19:39Z</time>
      </trkpt>
      <trkpt lat="44.39798" lon="5.61212">
        <ele>1050.6</ele>
        <time>2021-09-07T15:19:40Z</time>
      </trkpt>
      <trkpt lat="44.39798" lon="5.61212">
        <ele>1050.6</ele>
        <time>2021-09-07T15:19:41Z</time>
      </trkpt>
      <trkpt lat="44.39798" lon="5.61212">
        <ele>1050.6</ele>
        <time>2021-09-07T15:19:42Z</time>
      </trkpt>
      <trkpt lat="44.39798" lon="5.61212">
        <ele>1050.6</ele>
        <time>2021-09-07T15:19:43Z</time>
      </trkpt>
      <trkpt lat="44.39798" lon="5.61212">
        <ele>1050.6</ele>
        <time>2021-09-07T15:19:44Z</time>
      </trkpt>
      <trkpt lat="44.39798" lon="5.61212">
        <ele>1050.6</ele>
        <time>2021-09-07T15:19:45Z</time>
      </trkpt>
      <trkpt lat="44.39798" lon="5.61212">
        <ele>1050.6</ele>
        <time>2021-09-07T15:19:46Z</time>
      </trkpt>
      <trkpt lat="44.39798" lon="5.61212">
        <ele>1050.6</ele>
        <time>2021-09-07T15:19:47Z</time>
      </trkpt>
      <trkpt lat="44.39798" lon="5.61212">
        <ele>1050.6</ele>
        <time>2021-09-07T15:19:48Z</time>
      </trkpt>
      <trkpt lat="44.39798" lon="5.61212">
        <ele>1050.6</ele>
        <time>2021-09-07T15:19:49Z</time>
      </trkpt>
      <trkpt lat="44.39798" lon="5.61212">
        <ele>1050.6</ele>
        <time>2021-09-07T15:19:50Z</time>
      </trkpt>
      <trkpt lat="44.39798" lon="5.61212">
        <ele>1050.6</ele>
        <time>2021-09-07T15:19:51Z</time>
      </trkpt>
      <trkpt lat="44.39798" lon="5.61212">
        <ele>1050.6</ele>
        <time>2021-09-07T15:19:52Z</time>
      </trkpt>
      <trkpt lat="44.39798" lon="5.61212">
        <ele>1050.6</ele>
        <time>2021-09-07T15:19:53Z</time>
      </trkpt>
      <trkpt lat="44.39798" lon="5.61212">
        <ele>1050.6</ele>
        <time>2021-09-07T15:19:54Z</time>
      </trkpt>
      <trkpt lat="44.39798" lon="5.61212">
        <ele>1050.6</ele>
        <time>2021-09-07T15:19:55Z</time>
      </trkpt>
      <trkpt lat="44.39798" lon="5.61212">
        <ele>1050.6</ele>
        <time>2021-09-07T15:19:56Z</time>
      </trkpt>
      <trkpt lat="44.39798" lon="5.61212">
        <ele>1050.6</ele>
        <time>2021-09-07T15:19:57Z</time>
      </trkpt>
      <trkpt lat="44.39798" lon="5.61212">
        <ele>1050.6</ele>
        <time>2021-09-07T15:19:58Z</time>
      </trkpt>
      <trkpt lat="44.39798" lon="5.61212">
        <ele>1050.6</ele>
        <time>2021-09-07T15:19:59Z</time>
      </trkpt>
      <trkpt lat="44.39798" lon="5.61212">
        <ele>1050.6</ele>
        <time>2021-09-07T15:20:00Z</time>
      </trkpt>
      <trkpt lat="44.39799" lon="5.61213">
        <ele>1050.7</ele>
        <time>2021-09-07T15:20:01Z</time>
      </trkpt>
      <trkpt lat="44.39799" lon="5.61214">
        <ele>1050.8</ele>
        <time>2021-09-07T15:20:02Z</time>
      </trkpt>
      <trkpt lat="44.39801" lon="5.61217">
        <ele>1051.1</ele>
        <time>2021-09-07T15:20:03Z</time>
      </trkpt>
      <trkpt lat="44.39803" lon="5.61221">
        <ele>1051.5</ele>
        <time>2021-09-07T15:20:04Z</time>
      </trkpt>
      <trkpt lat="44.39804" lon="5.61222">
        <ele>1051.6</ele>
        <time>2021-09-07T15:20:05Z</time>
      </trkpt>
      <trkpt lat="44.39804" lon="5.61222">
        <ele>1051.7</ele>
        <time>2021-09-07T15:20:06Z</time>
      </trkpt>
      <trkpt lat="44.39805" lon="5.61223">
        <ele>1051.8</ele>
        <time>2021-09-07T15:20:07Z</time>
      </trkpt>
      <trkpt lat="44.39805" lon="5.61224">
        <ele>1051.9</ele>
        <time>2021-09-07T15:20:08Z</time>
      </trkpt>
      <trkpt lat="44.39805" lon="5.61225">
        <ele>1052</ele>
        <time>2021-09-07T15:20:09Z</time>
      </trkpt>
      <trkpt lat="44.39805" lon="5.61226">
        <ele>1052.1</ele>
        <time>2021-09-07T15:20:10Z</time>
      </trkpt>
      <trkpt lat="44.39805" lon="5.61227">
        <ele>1052.2</ele>
        <time>2021-09-07T15:20:11Z</time>
      </trkpt>
      <trkpt lat="44.39806" lon="5.61228">
        <ele>1052.3</ele>
        <time>2021-09-07T15:20:12Z</time>
      </trkpt>
      <trkpt lat="44.39806" lon="5.6123">
        <ele>1052.5</ele>
        <time>2021-09-07T15:20:13Z</time>
      </trkpt>
      <trkpt lat="44.39806" lon="5.61231">
        <ele>1052.6</ele>
        <time>2021-09-07T15:20:14Z</time>
      </trkpt>
      <trkpt lat="44.39806" lon="5.61232">
        <ele>1052.6</ele>
        <time>2021-09-07T15:20:15Z</time>
      </trkpt>
      <trkpt lat="44.39806" lon="5.61232">
        <ele>1052.7</ele>
        <time>2021-09-07T15:20:16Z</time>
      </trkpt>
      <trkpt lat="44.39806" lon="5.61232">
        <ele>1052.7</ele>
        <time>2021-09-07T15:20:17Z</time>
      </trkpt>
      <trkpt lat="44.39806" lon="5.61233">
        <ele>1052.8</ele>
        <time>2021-09-07T15:20:18Z</time>
      </trkpt>
      <trkpt lat="44.39806" lon="5.61233">
        <ele>1052.8</ele>
        <time>2021-09-07T15:20:19Z</time>
      </trkpt>
      <trkpt lat="44.39806" lon="5.61235">
        <ele>1052.9</ele>
        <time>2021-09-07T15:20:20Z</time>
      </trkpt>
      <trkpt lat="44.39806" lon="5.61236">
        <ele>1053</ele>
        <time>2021-09-07T15:20:21Z</time>
      </trkpt>
      <trkpt lat="44.39806" lon="5.61238">
        <ele>1053.2</ele>
        <time>2021-09-07T15:20:22Z</time>
      </trkpt>
      <trkpt lat="44.39805" lon="5.61242">
        <ele>1053.6</ele>
        <time>2021-09-07T15:20:23Z</time>
      </trkpt>
      <trkpt lat="44.39805" lon="5.61244">
        <ele>1053.8</ele>
        <time>2021-09-07T15:20:24Z</time>
      </trkpt>
      <trkpt lat="44.39805" lon="5.61247">
        <ele>1054</ele>
        <time>2021-09-07T15:20:25Z</time>
      </trkpt>
      <trkpt lat="44.39805" lon="5.61249">
        <ele>1054.2</ele>
        <time>2021-09-07T15:20:26Z</time>
      </trkpt>
      <trkpt lat="44.39804" lon="5.61251">
        <ele>1054.4</ele>
        <time>2021-09-07T15:20:27Z</time>
      </trkpt>
      <trkpt lat="44.39804" lon="5.61253">
        <ele>1054.6</ele>
        <time>2021-09-07T15:20:28Z</time>
      </trkpt>
      <trkpt lat="44.39804" lon="5.61256">
        <ele>1054.8</ele>
        <time>2021-09-07T15:20:29Z</time>
      </trkpt>
      <trkpt lat="44.39804" lon="5.61258">
        <ele>1055</ele>
        <time>2021-09-07T15:20:30Z</time>
      </trkpt>
      <trkpt lat="44.39803" lon="5.61259">
        <ele>1055.1</ele>
        <time>2021-09-07T15:20:31Z</time>
      </trkpt>
      <trkpt lat="44.39803" lon="5.61261">
        <ele>1055.3</ele>
        <time>2021-09-07T15:20:32Z</time>
      </trkpt>
      <trkpt lat="44.39803" lon="5.61262">
        <ele>1055.3</ele>
        <time>2021-09-07T15:20:33Z</time>
      </trkpt>
      <trkpt lat="44.39803" lon="5.61262">
        <ele>1055.4</ele>
        <time>2021-09-07T15:20:34Z</time>
      </trkpt>
      <trkpt lat="44.39803" lon="5.61264">
        <ele>1055.6</ele>
        <time>2021-09-07T15:20:35Z</time>
      </trkpt>
      <trkpt lat="44.39803" lon="5.61264">
        <ele>1055.6</ele>
        <time>2021-09-07T15:20:36Z</time>
      </trkpt>
      <trkpt lat="44.39802" lon="5.61264">
        <ele>1055.7</ele>
        <time>2021-09-07T15:20:37Z</time>
      </trkpt>
      <trkpt lat="44.39802" lon="5.61265">
        <ele>1055.8</ele>
        <time>2021-09-07T15:20:38Z</time>
      </trkpt>
      <trkpt lat="44.39802" lon="5.61265">
        <ele>1055.8</ele>
        <time>2021-09-07T15:20:39Z</time>
      </trkpt>
      <trkpt lat="44.39802" lon="5.61267">
        <ele>1056</ele>
        <time>2021-09-07T15:20:40Z</time>
      </trkpt>
      <trkpt lat="44.39802" lon="5.61269">
        <ele>1056.1</ele>
        <time>2021-09-07T15:20:41Z</time>
      </trkpt>
      <trkpt lat="44.39801" lon="5.61272">
        <ele>1056.4</ele>
        <time>2021-09-07T15:20:42Z</time>
      </trkpt>
      <trkpt lat="44.39801" lon="5.61275">
        <ele>1056.7</ele>
        <time>2021-09-07T15:20:43Z</time>
      </trkpt>
      <trkpt lat="44.39801" lon="5.61277">
        <ele>1056.8</ele>
        <time>2021-09-07T15:20:44Z</time>
      </trkpt>
      <trkpt lat="44.39801" lon="5.61278">
        <ele>1057</ele>
        <time>2021-09-07T15:20:45Z</time>
      </trkpt>
      <trkpt lat="44.398" lon="5.6128">
        <ele>1057.2</ele>
        <time>2021-09-07T15:20:46Z</time>
      </trkpt>
      <trkpt lat="44.398" lon="5.61281">
        <ele>1057.3</ele>
        <time>2021-09-07T15:20:47Z</time>
      </trkpt>
      <trkpt lat="44.398" lon="5.61281">
        <ele>1057.3</ele>
        <time>2021-09-07T15:20:48Z</time>
      </trkpt>
      <trkpt lat="44.398" lon="5.61281">
        <ele>1057.3</ele>
        <time>2021-09-07T15:20:49Z</time>
      </trkpt>
      <trkpt lat="44.398" lon="5.61282">
        <ele>1057.3</ele>
        <time>2021-09-07T15:20:50Z</time>
      </trkpt>
      <trkpt lat="44.398" lon="5.61282">
        <ele>1057.3</ele>
        <time>2021-09-07T15:20:51Z</time>
      </trkpt>
      <trkpt lat="44.39799" lon="5.61284">
        <ele>1057.5</ele>
        <time>2021-09-07T15:20:52Z</time>
      </trkpt>
      <trkpt lat="44.39799" lon="5.61287">
        <ele>1057.7</ele>
        <time>2021-09-07T15:20:53Z</time>
      </trkpt>
      <trkpt lat="44.39799" lon="5.61289">
        <ele>1057.9</ele>
        <time>2021-09-07T15:20:54Z</time>
      </trkpt>
      <trkpt lat="44.39799" lon="5.61291">
        <ele>1058.1</ele>
        <time>2021-09-07T15:20:55Z</time>
      </trkpt>
      <trkpt lat="44.39799" lon="5.61294">
        <ele>1058.3</ele>
        <time>2021-09-07T15:20:56Z</time>
      </trkpt>
      <trkpt lat="44.39799" lon="5.61296">
        <ele>1058.4</ele>
        <time>2021-09-07T15:20:57Z</time>
      </trkpt>
      <trkpt lat="44.39799" lon="5.61297">
        <ele>1058.5</ele>
        <time>2021-09-07T15:20:58Z</time>
      </trkpt>
      <trkpt lat="44.39799" lon="5.61298">
        <ele>1058.6</ele>
        <time>2021-09-07T15:20:59Z</time>
      </trkpt>
      <trkpt lat="44.39799" lon="5.61299">
        <ele>1058.7</ele>
        <time>2021-09-07T15:21:00Z</time>
      </trkpt>
      <trkpt lat="44.39799" lon="5.61299">
        <ele>1058.7</ele>
        <time>2021-09-07T15:21:01Z</time>
      </trkpt>
      <trkpt lat="44.398" lon="5.61301">
        <ele>1058.8</ele>
        <time>2021-09-07T15:21:02Z</time>
      </trkpt>
      <trkpt lat="44.39801" lon="5.61303">
        <ele>1059</ele>
        <time>2021-09-07T15:21:03Z</time>
      </trkpt>
      <trkpt lat="44.39802" lon="5.61307">
        <ele>1059.3</ele>
        <time>2021-09-07T15:21:04Z</time>
      </trkpt>
      <trkpt lat="44.39803" lon="5.61309">
        <ele>1059.5</ele>
        <time>2021-09-07T15:21:05Z</time>
      </trkpt>
      <trkpt lat="44.39803" lon="5.6131">
        <ele>1059.6</ele>
        <time>2021-09-07T15:21:06Z</time>
      </trkpt>
      <trkpt lat="44.39803" lon="5.61311">
        <ele>1059.6</ele>
        <time>2021-09-07T15:21:07Z</time>
      </trkpt>
      <trkpt lat="44.39803" lon="5.61312">
        <ele>1059.7</ele>
        <time>2021-09-07T15:21:08Z</time>
      </trkpt>
      <trkpt lat="44.39804" lon="5.61313">
        <ele>1059.8</ele>
        <time>2021-09-07T15:21:09Z</time>
      </trkpt>
      <trkpt lat="44.39804" lon="5.61314">
        <ele>1059.9</ele>
        <time>2021-09-07T15:21:10Z</time>
      </trkpt>
      <trkpt lat="44.39805" lon="5.61315">
        <ele>1060</ele>
        <time>2021-09-07T15:21:11Z</time>
      </trkpt>
      <trkpt lat="44.39805" lon="5.61315">
        <ele>1060</ele>
        <time>2021-09-07T15:21:12Z</time>
      </trkpt>
      <trkpt lat="44.39805" lon="5.61315">
        <ele>1060</ele>
        <time>2021-09-07T15:21:13Z</time>
      </trkpt>
      <trkpt lat="44.39805" lon="5.61315">
        <ele>1060</ele>
        <time>2021-09-07T15:21:14Z</time>
      </trkpt>
      <trkpt lat="44.39805" lon="5.61316">
        <ele>1060.1</ele>
        <time>2021-09-07T15:21:15Z</time>
      </trkpt>
      <trkpt lat="44.39806" lon="5.61318">
        <ele>1060.2</ele>
        <time>2021-09-07T15:21:16Z</time>
      </trkpt>
      <trkpt lat="44.39806" lon="5.61319">
        <ele>1060.3</ele>
        <time>2021-09-07T15:21:17Z</time>
      </trkpt>
      <trkpt lat="44.39806" lon="5.61322">
        <ele>1060.5</ele>
        <time>2021-09-07T15:21:18Z</time>
      </trkpt>
      <trkpt lat="44.39806" lon="5.61325">
        <ele>1060.7</ele>
        <time>2021-09-07T15:21:19Z</time>
      </trkpt>
      <trkpt lat="44.39807" lon="5.61327">
        <ele>1060.8</ele>
        <time>2021-09-07T15:21:20Z</time>
      </trkpt>
      <trkpt lat="44.39807" lon="5.61329">
        <ele>1060.9</ele>
        <time>2021-09-07T15:21:21Z</time>
      </trkpt>
      <trkpt lat="44.39807" lon="5.6133">
        <ele>1061</ele>
        <time>2021-09-07T15:21:22Z</time>
      </trkpt>
      <trkpt lat="44.39807" lon="5.61332">
        <ele>1061.1</ele>
        <time>2021-09-07T15:21:23Z</time>
      </trkpt>
      <trkpt lat="44.39808" lon="5.61333">
        <ele>1061.2</ele>
        <time>2021-09-07T15:21:24Z</time>
      </trkpt>
      <trkpt lat="44.39808" lon="5.61333">
        <ele>1061.2</ele>
        <time>2021-09-07T15:21:25Z</time>
      </trkpt>
      <trkpt lat="44.39808" lon="5.61334">
        <ele>1061.3</ele>
        <time>2021-09-07T15:21:26Z</time>
      </trkpt>
      <trkpt lat="44.39808" lon="5.61334">
        <ele>1061.3</ele>
        <time>2021-09-07T15:21:27Z</time>
      </trkpt>
      <trkpt lat="44.39809" lon="5.61336">
        <ele>1061.4</ele>
        <time>2021-09-07T15:21:28Z</time>
      </trkpt>
      <trkpt lat="44.39809" lon="5.61337">
        <ele>1061.5</ele>
        <time>2021-09-07T15:21:29Z</time>
      </trkpt>
      <trkpt lat="44.39809" lon="5.6134">
        <ele>1061.7</ele>
        <time>2021-09-07T15:21:30Z</time>
      </trkpt>
      <trkpt lat="44.39809" lon="5.61341">
        <ele>1061.8</ele>
        <time>2021-09-07T15:21:31Z</time>
      </trkpt>
      <trkpt lat="44.3981" lon="5.61343">
        <ele>1061.9</ele>
        <time>2021-09-07T15:21:32Z</time>
      </trkpt>
      <trkpt lat="44.3981" lon="5.61345">
        <ele>1062.1</ele>
        <time>2021-09-07T15:21:33Z</time>
      </trkpt>
      <trkpt lat="44.3981" lon="5.61346">
        <ele>1062.1</ele>
        <time>2021-09-07T15:21:34Z</time>
      </trkpt>
      <trkpt lat="44.3981" lon="5.61347">
        <ele>1062.2</ele>
        <time>2021-09-07T15:21:35Z</time>
      </trkpt>
      <trkpt lat="44.3981" lon="5.61348">
        <ele>1062.3</ele>
        <time>2021-09-07T15:21:36Z</time>
      </trkpt>
      <trkpt lat="44.3981" lon="5.61349">
        <ele>1062.4</ele>
        <time>2021-09-07T15:21:37Z</time>
      </trkpt>
      <trkpt lat="44.3981" lon="5.6135">
        <ele>1062.4</ele>
        <time>2021-09-07T15:21:38Z</time>
      </trkpt>
      <trkpt lat="44.3981" lon="5.6135">
        <ele>1062.4</ele>
        <time>2021-09-07T15:21:39Z</time>
      </trkpt>
      <trkpt lat="44.3981" lon="5.6135">
        <ele>1062.4</ele>
        <time>2021-09-07T15:21:40Z</time>
      </trkpt>
      <trkpt lat="44.3981" lon="5.61351">
        <ele>1062.5</ele>
        <time>2021-09-07T15:21:41Z</time>
      </trkpt>
      <trkpt lat="44.3981" lon="5.61354">
        <ele>1062.7</ele>
        <time>2021-09-07T15:21:42Z</time>
      </trkpt>
      <trkpt lat="44.39809" lon="5.61356">
        <ele>1062.9</ele>
        <time>2021-09-07T15:21:43Z</time>
      </trkpt>
      <trkpt lat="44.39809" lon="5.6136">
        <ele>1063.2</ele>
        <time>2021-09-07T15:21:44Z</time>
      </trkpt>
      <trkpt lat="44.39809" lon="5.61362">
        <ele>1063.4</ele>
        <time>2021-09-07T15:21:45Z</time>
      </trkpt>
      <trkpt lat="44.39809" lon="5.61364">
        <ele>1063.5</ele>
        <time>2021-09-07T15:21:46Z</time>
      </trkpt>
      <trkpt lat="44.39808" lon="5.61366">
        <ele>1063.7</ele>
        <time>2021-09-07T15:21:47Z</time>
      </trkpt>
      <trkpt lat="44.39808" lon="5.61368">
        <ele>1063.9</ele>
        <time>2021-09-07T15:21:48Z</time>
      </trkpt>
      <trkpt lat="44.39808" lon="5.6137">
        <ele>1064</ele>
        <time>2021-09-07T15:21:49Z</time>
      </trkpt>
      <trkpt lat="44.39808" lon="5.61371">
        <ele>1064.1</ele>
        <time>2021-09-07T15:21:50Z</time>
      </trkpt>
      <trkpt lat="44.39807" lon="5.61372">
        <ele>1064.2</ele>
        <time>2021-09-07T15:21:51Z</time>
      </trkpt>
      <trkpt lat="44.39807" lon="5.61375">
        <ele>1064.4</ele>
        <time>2021-09-07T15:21:52Z</time>
      </trkpt>
      <trkpt lat="44.39807" lon="5.61378">
        <ele>1064.7</ele>
        <time>2021-09-07T15:21:53Z</time>
      </trkpt>
      <trkpt lat="44.39807" lon="5.61382">
        <ele>1065</ele>
        <time>2021-09-07T15:21:54Z</time>
      </trkpt>
      <trkpt lat="44.39807" lon="5.61385">
        <ele>1065.2</ele>
        <time>2021-09-07T15:21:55Z</time>
      </trkpt>
      <trkpt lat="44.39807" lon="5.61387">
        <ele>1065.3</ele>
        <time>2021-09-07T15:21:56Z</time>
      </trkpt>
      <trkpt lat="44.39806" lon="5.61388">
        <ele>1065.5</ele>
        <time>2021-09-07T15:21:57Z</time>
      </trkpt>
      <trkpt lat="44.39806" lon="5.6139">
        <ele>1065.6</ele>
        <time>2021-09-07T15:21:58Z</time>
      </trkpt>
      <trkpt lat="44.39806" lon="5.61393">
        <ele>1065.9</ele>
        <time>2021-09-07T15:21:59Z</time>
      </trkpt>
      <trkpt lat="44.39806" lon="5.61395">
        <ele>1066</ele>
        <time>2021-09-07T15:22:00Z</time>
      </trkpt>
      <trkpt lat="44.39806" lon="5.61397">
        <ele>1066.2</ele>
        <time>2021-09-07T15:22:01Z</time>
      </trkpt>
      <trkpt lat="44.39805" lon="5.61398">
        <ele>1066.3</ele>
        <time>2021-09-07T15:22:02Z</time>
      </trkpt>
      <trkpt lat="44.39805" lon="5.614">
        <ele>1066.5</ele>
        <time>2021-09-07T15:22:03Z</time>
      </trkpt>
      <trkpt lat="44.39804" lon="5.61402">
        <ele>1066.7</ele>
        <time>2021-09-07T15:22:04Z</time>
      </trkpt>
      <trkpt lat="44.39804" lon="5.61404">
        <ele>1066.9</ele>
        <time>2021-09-07T15:22:05Z</time>
      </trkpt>
      <trkpt lat="44.39804" lon="5.61405">
        <ele>1067</ele>
        <time>2021-09-07T15:22:06Z</time>
      </trkpt>
      <trkpt lat="44.39803" lon="5.61406">
        <ele>1067.1</ele>
        <time>2021-09-07T15:22:07Z</time>
      </trkpt>
      <trkpt lat="44.39802" lon="5.61408">
        <ele>1067.3</ele>
        <time>2021-09-07T15:22:08Z</time>
      </trkpt>
      <trkpt lat="44.39801" lon="5.6141">
        <ele>1067.5</ele>
        <time>2021-09-07T15:22:09Z</time>
      </trkpt>
      <trkpt lat="44.398" lon="5.61411">
        <ele>1067.7</ele>
        <time>2021-09-07T15:22:10Z</time>
      </trkpt>
      <trkpt lat="44.398" lon="5.61413">
        <ele>1067.8</ele>
        <time>2021-09-07T15:22:11Z</time>
      </trkpt>
      <trkpt lat="44.398" lon="5.61414">
        <ele>1067.9</ele>
        <time>2021-09-07T15:22:12Z</time>
      </trkpt>
      <trkpt lat="44.39799" lon="5.61416">
        <ele>1068.2</ele>
        <time>2021-09-07T15:22:13Z</time>
      </trkpt>
      <trkpt lat="44.39799" lon="5.61417">
        <ele>1068.2</ele>
        <time>2021-09-07T15:22:14Z</time>
      </trkpt>
      <trkpt lat="44.39799" lon="5.61417">
        <ele>1068.3</ele>
        <time>2021-09-07T15:22:15Z</time>
      </trkpt>
      <trkpt lat="44.39798" lon="5.61417">
        <ele>1068.4</ele>
        <time>2021-09-07T15:22:16Z</time>
      </trkpt>
      <trkpt lat="44.39798" lon="5.61417">
        <ele>1068.4</ele>
        <time>2021-09-07T15:22:17Z</time>
      </trkpt>
      <trkpt lat="44.39798" lon="5.61418">
        <ele>1068.5</ele>
        <time>2021-09-07T15:22:18Z</time>
      </trkpt>
      <trkpt lat="44.39798" lon="5.61418">
        <ele>1068.5</ele>
        <time>2021-09-07T15:22:19Z</time>
      </trkpt>
      <trkpt lat="44.39798" lon="5.61418">
        <ele>1068.5</ele>
        <time>2021-09-07T15:22:20Z</time>
      </trkpt>
      <trkpt lat="44.39798" lon="5.61418">
        <ele>1068.5</ele>
        <time>2021-09-07T15:22:21Z</time>
      </trkpt>
      <trkpt lat="44.39798" lon="5.61419">
        <ele>1068.6</ele>
        <time>2021-09-07T15:22:22Z</time>
      </trkpt>
      <trkpt lat="44.39798" lon="5.6142">
        <ele>1068.7</ele>
        <time>2021-09-07T15:22:23Z</time>
      </trkpt>
      <trkpt lat="44.39798" lon="5.61422">
        <ele>1068.8</ele>
        <time>2021-09-07T15:22:24Z</time>
      </trkpt>
      <trkpt lat="44.39797" lon="5.61423">
        <ele>1069</ele>
        <time>2021-09-07T15:22:25Z</time>
      </trkpt>
      <trkpt lat="44.39797" lon="5.61425">
        <ele>1069.1</ele>
        <time>2021-09-07T15:22:26Z</time>
      </trkpt>
      <trkpt lat="44.39796" lon="5.61427">
        <ele>1069.3</ele>
        <time>2021-09-07T15:22:27Z</time>
      </trkpt>
      <trkpt lat="44.39796" lon="5.61428">
        <ele>1069.4</ele>
        <time>2021-09-07T15:22:28Z</time>
      </trkpt>
      <trkpt lat="44.39796" lon="5.61429">
        <ele>1069.5</ele>
        <time>2021-09-07T15:22:29Z</time>
      </trkpt>
      <trkpt lat="44.39796" lon="5.6143">
        <ele>1069.6</ele>
        <time>2021-09-07T15:22:30Z</time>
      </trkpt>
      <trkpt lat="44.39796" lon="5.61431">
        <ele>1069.6</ele>
        <time>2021-09-07T15:22:31Z</time>
      </trkpt>
      <trkpt lat="44.39796" lon="5.61431">
        <ele>1069.7</ele>
        <time>2021-09-07T15:22:32Z</time>
      </trkpt>
      <trkpt lat="44.39796" lon="5.61431">
        <ele>1069.7</ele>
        <time>2021-09-07T15:22:33Z</time>
      </trkpt>
      <trkpt lat="44.39796" lon="5.61432">
        <ele>1069.8</ele>
        <time>2021-09-07T15:22:34Z</time>
      </trkpt>
      <trkpt lat="44.39795" lon="5.61434">
        <ele>1070</ele>
        <time>2021-09-07T15:22:35Z</time>
      </trkpt>
      <trkpt lat="44.39795" lon="5.61436">
        <ele>1070.2</ele>
        <time>2021-09-07T15:22:36Z</time>
      </trkpt>
      <trkpt lat="44.39795" lon="5.61439">
        <ele>1070.4</ele>
        <time>2021-09-07T15:22:37Z</time>
      </trkpt>
      <trkpt lat="44.39795" lon="5.6144">
        <ele>1070.5</ele>
        <time>2021-09-07T15:22:38Z</time>
      </trkpt>
      <trkpt lat="44.39794" lon="5.61441">
        <ele>1070.6</ele>
        <time>2021-09-07T15:22:39Z</time>
      </trkpt>
      <trkpt lat="44.39794" lon="5.61443">
        <ele>1070.8</ele>
        <time>2021-09-07T15:22:40Z</time>
      </trkpt>
      <trkpt lat="44.39794" lon="5.61444">
        <ele>1070.9</ele>
        <time>2021-09-07T15:22:41Z</time>
      </trkpt>
      <trkpt lat="44.39794" lon="5.61445">
        <ele>1071</ele>
        <time>2021-09-07T15:22:42Z</time>
      </trkpt>
      <trkpt lat="44.39794" lon="5.61446">
        <ele>1071</ele>
        <time>2021-09-07T15:22:43Z</time>
      </trkpt>
      <trkpt lat="44.39794" lon="5.61446">
        <ele>1071.1</ele>
        <time>2021-09-07T15:22:44Z</time>
      </trkpt>
      <trkpt lat="44.39793" lon="5.61447">
        <ele>1071.2</ele>
        <time>2021-09-07T15:22:45Z</time>
      </trkpt>
      <trkpt lat="44.39793" lon="5.61448">
        <ele>1071.3</ele>
        <time>2021-09-07T15:22:46Z</time>
      </trkpt>
      <trkpt lat="44.39793" lon="5.61448">
        <ele>1071.3</ele>
        <time>2021-09-07T15:22:47Z</time>
      </trkpt>
      <trkpt lat="44.39793" lon="5.61448">
        <ele>1071.3</ele>
        <time>2021-09-07T15:22:48Z</time>
      </trkpt>
      <trkpt lat="44.39793" lon="5.61448">
        <ele>1071.3</ele>
        <time>2021-09-07T15:22:49Z</time>
      </trkpt>
      <trkpt lat="44.39793" lon="5.61448">
        <ele>1071.3</ele>
        <time>2021-09-07T15:22:50Z</time>
      </trkpt>
      <trkpt lat="44.39793" lon="5.61448">
        <ele>1071.3</ele>
        <time>2021-09-07T15:22:51Z</time>
      </trkpt>
      <trkpt lat="44.39793" lon="5.61448">
        <ele>1071.3</ele>
        <time>2021-09-07T15:22:52Z</time>
      </trkpt>
      <trkpt lat="44.39793" lon="5.61448">
        <ele>1071.3</ele>
        <time>2021-09-07T15:22:53Z</time>
      </trkpt>
      <trkpt lat="44.39793" lon="5.6145">
        <ele>1071.5</ele>
        <time>2021-09-07T15:22:54Z</time>
      </trkpt>
      <trkpt lat="44.39793" lon="5.61451">
        <ele>1071.6</ele>
        <time>2021-09-07T15:22:55Z</time>
      </trkpt>
      <trkpt lat="44.39793" lon="5.61453">
        <ele>1071.8</ele>
        <time>2021-09-07T15:22:56Z</time>
      </trkpt>
      <trkpt lat="44.39792" lon="5.61455">
        <ele>1072</ele>
        <time>2021-09-07T15:22:57Z</time>
      </trkpt>
      <trkpt lat="44.39792" lon="5.61457">
        <ele>1072.1</ele>
        <time>2021-09-07T15:22:58Z</time>
      </trkpt>
      <trkpt lat="44.39792" lon="5.61458">
        <ele>1072.2</ele>
        <time>2021-09-07T15:22:59Z</time>
      </trkpt>
      <trkpt lat="44.39791" lon="5.6146">
        <ele>1072.4</ele>
        <time>2021-09-07T15:23:00Z</time>
      </trkpt>
      <trkpt lat="44.3979" lon="5.61462">
        <ele>1072.6</ele>
        <time>2021-09-07T15:23:01Z</time>
      </trkpt>
      <trkpt lat="44.3979" lon="5.61464">
        <ele>1072.7</ele>
        <time>2021-09-07T15:23:02Z</time>
      </trkpt>
      <trkpt lat="44.3979" lon="5.61465">
        <ele>1072.8</ele>
        <time>2021-09-07T15:23:03Z</time>
      </trkpt>
      <trkpt lat="44.39788" lon="5.61468">
        <ele>1073.2</ele>
        <time>2021-09-07T15:23:04Z</time>
      </trkpt>
      <trkpt lat="44.39787" lon="5.61472">
        <ele>1073.5</ele>
        <time>2021-09-07T15:23:05Z</time>
      </trkpt>
      <trkpt lat="44.39787" lon="5.61475">
        <ele>1073.7</ele>
        <time>2021-09-07T15:23:06Z</time>
      </trkpt>
      <trkpt lat="44.39786" lon="5.61477">
        <ele>1073.9</ele>
        <time>2021-09-07T15:23:07Z</time>
      </trkpt>
      <trkpt lat="44.39785" lon="5.61481">
        <ele>1074.2</ele>
        <time>2021-09-07T15:23:08Z</time>
      </trkpt>
      <trkpt lat="44.39785" lon="5.61485">
        <ele>1074.5</ele>
        <time>2021-09-07T15:23:09Z</time>
      </trkpt>
      <trkpt lat="44.39784" lon="5.61488">
        <ele>1074.8</ele>
        <time>2021-09-07T15:23:10Z</time>
      </trkpt>
      <trkpt lat="44.39784" lon="5.61491">
        <ele>1075.1</ele>
        <time>2021-09-07T15:23:11Z</time>
      </trkpt>
      <trkpt lat="44.39783" lon="5.61493">
        <ele>1075.3</ele>
        <time>2021-09-07T15:23:12Z</time>
      </trkpt>
      <trkpt lat="44.39783" lon="5.61496">
        <ele>1075.5</ele>
        <time>2021-09-07T15:23:13Z</time>
      </trkpt>
      <trkpt lat="44.39782" lon="5.61499">
        <ele>1075.8</ele>
        <time>2021-09-07T15:23:14Z</time>
      </trkpt>
      <trkpt lat="44.39782" lon="5.61502">
        <ele>1076</ele>
        <time>2021-09-07T15:23:15Z</time>
      </trkpt>
      <trkpt lat="44.39781" lon="5.61504">
        <ele>1076.2</ele>
        <time>2021-09-07T15:23:16Z</time>
      </trkpt>
      <trkpt lat="44.39781" lon="5.61507">
        <ele>1076.5</ele>
        <time>2021-09-07T15:23:17Z</time>
      </trkpt>
      <trkpt lat="44.39781" lon="5.61509">
        <ele>1076.6</ele>
        <time>2021-09-07T15:23:18Z</time>
      </trkpt>
      <trkpt lat="44.39781" lon="5.6151">
        <ele>1076.7</ele>
        <time>2021-09-07T15:23:19Z</time>
      </trkpt>
      <trkpt lat="44.39781" lon="5.61512">
        <ele>1076.9</ele>
        <time>2021-09-07T15:23:20Z</time>
      </trkpt>
      <trkpt lat="44.39781" lon="5.61516">
        <ele>1077.2</ele>
        <time>2021-09-07T15:23:21Z</time>
      </trkpt>
      <trkpt lat="44.39782" lon="5.61518">
        <ele>1077.3</ele>
        <time>2021-09-07T15:23:22Z</time>
      </trkpt>
      <trkpt lat="44.39783" lon="5.61521">
        <ele>1077.6</ele>
        <time>2021-09-07T15:23:23Z</time>
      </trkpt>
      <trkpt lat="44.39783" lon="5.61524">
        <ele>1077.8</ele>
        <time>2021-09-07T15:23:24Z</time>
      </trkpt>
      <trkpt lat="44.39783" lon="5.61526">
        <ele>1077.9</ele>
        <time>2021-09-07T15:23:25Z</time>
      </trkpt>
      <trkpt lat="44.39783" lon="5.61528">
        <ele>1078.1</ele>
        <time>2021-09-07T15:23:26Z</time>
      </trkpt>
      <trkpt lat="44.39782" lon="5.6153">
        <ele>1078.2</ele>
        <time>2021-09-07T15:23:27Z</time>
      </trkpt>
      <trkpt lat="44.39781" lon="5.61533">
        <ele>1078.4</ele>
        <time>2021-09-07T15:23:28Z</time>
      </trkpt>
      <trkpt lat="44.39781" lon="5.61535">
        <ele>1078.6</ele>
        <time>2021-09-07T15:23:29Z</time>
      </trkpt>
      <trkpt lat="44.3978" lon="5.61537">
        <ele>1078.7</ele>
        <time>2021-09-07T15:23:30Z</time>
      </trkpt>
      <trkpt lat="44.39779" lon="5.61539">
        <ele>1078.9</ele>
        <time>2021-09-07T15:23:31Z</time>
      </trkpt>
      <trkpt lat="44.39779" lon="5.61541">
        <ele>1079</ele>
        <time>2021-09-07T15:23:32Z</time>
      </trkpt>
      <trkpt lat="44.39778" lon="5.61543">
        <ele>1079.1</ele>
        <time>2021-09-07T15:23:33Z</time>
      </trkpt>
      <trkpt lat="44.39777" lon="5.61545">
        <ele>1079.3</ele>
        <time>2021-09-07T15:23:34Z</time>
      </trkpt>
      <trkpt lat="44.39777" lon="5.61548">
        <ele>1079.5</ele>
        <time>2021-09-07T15:23:35Z</time>
      </trkpt>
      <trkpt lat="44.39777" lon="5.6155">
        <ele>1079.6</ele>
        <time>2021-09-07T15:23:36Z</time>
      </trkpt>
      <trkpt lat="44.39776" lon="5.61551">
        <ele>1079.7</ele>
        <time>2021-09-07T15:23:37Z</time>
      </trkpt>
      <trkpt lat="44.39776" lon="5.61554">
        <ele>1079.9</ele>
        <time>2021-09-07T15:23:38Z</time>
      </trkpt>
      <trkpt lat="44.39775" lon="5.61557">
        <ele>1080.1</ele>
        <time>2021-09-07T15:23:39Z</time>
      </trkpt>
      <trkpt lat="44.39775" lon="5.61559">
        <ele>1080.2</ele>
        <time>2021-09-07T15:23:40Z</time>
      </trkpt>
      <trkpt lat="44.39775" lon="5.6156">
        <ele>1080.3</ele>
        <time>2021-09-07T15:23:41Z</time>
      </trkpt>
      <trkpt lat="44.39774" lon="5.61561">
        <ele>1080.3</ele>
        <time>2021-09-07T15:23:42Z</time>
      </trkpt>
      <trkpt lat="44.39773" lon="5.61565">
        <ele>1080.6</ele>
        <time>2021-09-07T15:23:43Z</time>
      </trkpt>
      <trkpt lat="44.39772" lon="5.61567">
        <ele>1080.8</ele>
        <time>2021-09-07T15:23:44Z</time>
      </trkpt>
      <trkpt lat="44.39771" lon="5.6157">
        <ele>1081</ele>
        <time>2021-09-07T15:23:45Z</time>
      </trkpt>
      <trkpt lat="44.39769" lon="5.61572">
        <ele>1081.2</ele>
        <time>2021-09-07T15:23:46Z</time>
      </trkpt>
      <trkpt lat="44.39769" lon="5.61573">
        <ele>1081.2</ele>
        <time>2021-09-07T15:23:47Z</time>
      </trkpt>
      <trkpt lat="44.39769" lon="5.61575">
        <ele>1081.4</ele>
        <time>2021-09-07T15:23:48Z</time>
      </trkpt>
      <trkpt lat="44.39768" lon="5.61577">
        <ele>1081.5</ele>
        <time>2021-09-07T15:23:49Z</time>
      </trkpt>
      <trkpt lat="44.39767" lon="5.61578">
        <ele>1081.6</ele>
        <time>2021-09-07T15:23:50Z</time>
      </trkpt>
      <trkpt lat="44.39766" lon="5.6158">
        <ele>1081.8</ele>
        <time>2021-09-07T15:23:51Z</time>
      </trkpt>
      <trkpt lat="44.39765" lon="5.61582">
        <ele>1081.9</ele>
        <time>2021-09-07T15:23:52Z</time>
      </trkpt>
      <trkpt lat="44.39764" lon="5.61584">
        <ele>1082</ele>
        <time>2021-09-07T15:23:53Z</time>
      </trkpt>
      <trkpt lat="44.39764" lon="5.61586">
        <ele>1082.1</ele>
        <time>2021-09-07T15:23:54Z</time>
      </trkpt>
      <trkpt lat="44.39763" lon="5.61587">
        <ele>1082.2</ele>
        <time>2021-09-07T15:23:55Z</time>
      </trkpt>
      <trkpt lat="44.39762" lon="5.61589">
        <ele>1082.4</ele>
        <time>2021-09-07T15:23:56Z</time>
      </trkpt>
      <trkpt lat="44.39761" lon="5.61591">
        <ele>1082.5</ele>
        <time>2021-09-07T15:23:57Z</time>
      </trkpt>
      <trkpt lat="44.3976" lon="5.61593">
        <ele>1082.7</ele>
        <time>2021-09-07T15:23:58Z</time>
      </trkpt>
      <trkpt lat="44.39759" lon="5.61595">
        <ele>1082.8</ele>
        <time>2021-09-07T15:23:59Z</time>
      </trkpt>
      <trkpt lat="44.39758" lon="5.61598">
        <ele>1083</ele>
        <time>2021-09-07T15:24:00Z</time>
      </trkpt>
      <trkpt lat="44.39756" lon="5.616">
        <ele>1083.2</ele>
        <time>2021-09-07T15:24:01Z</time>
      </trkpt>
      <trkpt lat="44.39755" lon="5.61602">
        <ele>1083.4</ele>
        <time>2021-09-07T15:24:02Z</time>
      </trkpt>
      <trkpt lat="44.39754" lon="5.61604">
        <ele>1083.5</ele>
        <time>2021-09-07T15:24:03Z</time>
      </trkpt>
      <trkpt lat="44.39753" lon="5.61606">
        <ele>1083.7</ele>
        <time>2021-09-07T15:24:04Z</time>
      </trkpt>
      <trkpt lat="44.39752" lon="5.61609">
        <ele>1083.9</ele>
        <time>2021-09-07T15:24:05Z</time>
      </trkpt>
      <trkpt lat="44.39751" lon="5.61612">
        <ele>1084.1</ele>
        <time>2021-09-07T15:24:06Z</time>
      </trkpt>
      <trkpt lat="44.39751" lon="5.61614">
        <ele>1084.3</ele>
        <time>2021-09-07T15:24:07Z</time>
      </trkpt>
      <trkpt lat="44.3975" lon="5.61615">
        <ele>1084.4</ele>
        <time>2021-09-07T15:24:08Z</time>
      </trkpt>
      <trkpt lat="44.3975" lon="5.61618">
        <ele>1084.6</ele>
        <time>2021-09-07T15:24:09Z</time>
      </trkpt>
      <trkpt lat="44.39749" lon="5.6162">
        <ele>1084.8</ele>
        <time>2021-09-07T15:24:10Z</time>
      </trkpt>
      <trkpt lat="44.39748" lon="5.61622">
        <ele>1085</ele>
        <time>2021-09-07T15:24:11Z</time>
      </trkpt>
      <trkpt lat="44.39748" lon="5.61624">
        <ele>1085.1</ele>
        <time>2021-09-07T15:24:12Z</time>
      </trkpt>
      <trkpt lat="44.39747" lon="5.61626">
        <ele>1085.3</ele>
        <time>2021-09-07T15:24:13Z</time>
      </trkpt>
      <trkpt lat="44.39746" lon="5.61628">
        <ele>1085.5</ele>
        <time>2021-09-07T15:24:14Z</time>
      </trkpt>
      <trkpt lat="44.39745" lon="5.6163">
        <ele>1085.6</ele>
        <time>2021-09-07T15:24:15Z</time>
      </trkpt>
      <trkpt lat="44.39744" lon="5.61632">
        <ele>1085.8</ele>
        <time>2021-09-07T15:24:16Z</time>
      </trkpt>
      <trkpt lat="44.39744" lon="5.61634">
        <ele>1086</ele>
        <time>2021-09-07T15:24:17Z</time>
      </trkpt>
      <trkpt lat="44.39743" lon="5.61636">
        <ele>1086.1</ele>
        <time>2021-09-07T15:24:18Z</time>
      </trkpt>
      <trkpt lat="44.39742" lon="5.61638">
        <ele>1086.3</ele>
        <time>2021-09-07T15:24:19Z</time>
      </trkpt>
      <trkpt lat="44.39742" lon="5.6164">
        <ele>1086.5</ele>
        <time>2021-09-07T15:24:20Z</time>
      </trkpt>
      <trkpt lat="44.39742" lon="5.61642">
        <ele>1086.6</ele>
        <time>2021-09-07T15:24:21Z</time>
      </trkpt>
      <trkpt lat="44.39741" lon="5.61644">
        <ele>1086.8</ele>
        <time>2021-09-07T15:24:22Z</time>
      </trkpt>
      <trkpt lat="44.39741" lon="5.61646">
        <ele>1086.9</ele>
        <time>2021-09-07T15:24:23Z</time>
      </trkpt>
      <trkpt lat="44.39741" lon="5.61648">
        <ele>1087</ele>
        <time>2021-09-07T15:24:24Z</time>
      </trkpt>
      <trkpt lat="44.3974" lon="5.61649">
        <ele>1087.2</ele>
        <time>2021-09-07T15:24:25Z</time>
      </trkpt>
      <trkpt lat="44.3974" lon="5.61651">
        <ele>1087.3</ele>
        <time>2021-09-07T15:24:26Z</time>
      </trkpt>
      <trkpt lat="44.39739" lon="5.61652">
        <ele>1087.4</ele>
        <time>2021-09-07T15:24:27Z</time>
      </trkpt>
      <trkpt lat="44.39739" lon="5.61654">
        <ele>1087.5</ele>
        <time>2021-09-07T15:24:28Z</time>
      </trkpt>
      <trkpt lat="44.39738" lon="5.61655">
        <ele>1087.6</ele>
        <time>2021-09-07T15:24:29Z</time>
      </trkpt>
      <trkpt lat="44.39737" lon="5.61657">
        <ele>1087.8</ele>
        <time>2021-09-07T15:24:30Z</time>
      </trkpt>
      <trkpt lat="44.39737" lon="5.61659">
        <ele>1087.9</ele>
        <time>2021-09-07T15:24:31Z</time>
      </trkpt>
      <trkpt lat="44.39736" lon="5.6166">
        <ele>1088</ele>
        <time>2021-09-07T15:24:32Z</time>
      </trkpt>
      <trkpt lat="44.39736" lon="5.61662">
        <ele>1088.2</ele>
        <time>2021-09-07T15:24:33Z</time>
      </trkpt>
      <trkpt lat="44.39735" lon="5.61664">
        <ele>1088.3</ele>
        <time>2021-09-07T15:24:34Z</time>
      </trkpt>
      <trkpt lat="44.39735" lon="5.61666">
        <ele>1088.5</ele>
        <time>2021-09-07T15:24:35Z</time>
      </trkpt>
      <trkpt lat="44.39734" lon="5.61667">
        <ele>1088.6</ele>
        <time>2021-09-07T15:24:36Z</time>
      </trkpt>
      <trkpt lat="44.39733" lon="5.61669">
        <ele>1088.8</ele>
        <time>2021-09-07T15:24:37Z</time>
      </trkpt>
      <trkpt lat="44.39733" lon="5.6167">
        <ele>1088.9</ele>
        <time>2021-09-07T15:24:38Z</time>
      </trkpt>
      <trkpt lat="44.39732" lon="5.61671">
        <ele>1088.9</ele>
        <time>2021-09-07T15:24:39Z</time>
      </trkpt>
      <trkpt lat="44.39731" lon="5.61673">
        <ele>1089.1</ele>
        <time>2021-09-07T15:24:40Z</time>
      </trkpt>
      <trkpt lat="44.3973" lon="5.61676">
        <ele>1089.4</ele>
        <time>2021-09-07T15:24:41Z</time>
      </trkpt>
      <trkpt lat="44.3973" lon="5.61677">
        <ele>1089.4</ele>
        <time>2021-09-07T15:24:42Z</time>
      </trkpt>
      <trkpt lat="44.39729" lon="5.61679">
        <ele>1089.6</ele>
        <time>2021-09-07T15:24:43Z</time>
      </trkpt>
      <trkpt lat="44.39728" lon="5.61681">
        <ele>1089.8</ele>
        <time>2021-09-07T15:24:44Z</time>
      </trkpt>
      <trkpt lat="44.39727" lon="5.61682">
        <ele>1089.9</ele>
        <time>2021-09-07T15:24:45Z</time>
      </trkpt>
      <trkpt lat="44.39725" lon="5.61684">
        <ele>1090.2</ele>
        <time>2021-09-07T15:24:46Z</time>
      </trkpt>
      <trkpt lat="44.39723" lon="5.61685">
        <ele>1090.4</ele>
        <time>2021-09-07T15:24:47Z</time>
      </trkpt>
      <trkpt lat="44.39722" lon="5.61687">
        <ele>1090.6</ele>
        <time>2021-09-07T15:24:48Z</time>
      </trkpt>
      <trkpt lat="44.3972" lon="5.61688">
        <ele>1090.7</ele>
        <time>2021-09-07T15:24:49Z</time>
      </trkpt>
      <trkpt lat="44.39719" lon="5.61688">
        <ele>1090.8</ele>
        <time>2021-09-07T15:24:50Z</time>
      </trkpt>
      <trkpt lat="44.39719" lon="5.61688">
        <ele>1090.8</ele>
        <time>2021-09-07T15:24:51Z</time>
      </trkpt>
      <trkpt lat="44.39719" lon="5.61688">
        <ele>1090.8</ele>
        <time>2021-09-07T15:24:52Z</time>
      </trkpt>
      <trkpt lat="44.39719" lon="5.61689">
        <ele>1090.9</ele>
        <time>2021-09-07T15:24:53Z</time>
      </trkpt>
      <trkpt lat="44.39719" lon="5.61689">
        <ele>1090.9</ele>
        <time>2021-09-07T15:24:54Z</time>
      </trkpt>
      <trkpt lat="44.39719" lon="5.61689">
        <ele>1090.9</ele>
        <time>2021-09-07T15:24:55Z</time>
      </trkpt>
      <trkpt lat="44.39719" lon="5.61689">
        <ele>1090.9</ele>
        <time>2021-09-07T15:24:56Z</time>
      </trkpt>
      <trkpt lat="44.39719" lon="5.61689">
        <ele>1090.9</ele>
        <time>2021-09-07T15:24:57Z</time>
      </trkpt>
      <trkpt lat="44.39719" lon="5.61689">
        <ele>1090.9</ele>
        <time>2021-09-07T15:24:58Z</time>
      </trkpt>
      <trkpt lat="44.39719" lon="5.61689">
        <ele>1090.9</ele>
        <time>2021-09-07T15:24:59Z</time>
      </trkpt>
      <trkpt lat="44.39719" lon="5.6169">
        <ele>1090.9</ele>
        <time>2021-09-07T15:25:00Z</time>
      </trkpt>
      <trkpt lat="44.39719" lon="5.6169">
        <ele>1091</ele>
        <time>2021-09-07T15:25:01Z</time>
      </trkpt>
      <trkpt lat="44.39719" lon="5.6169">
        <ele>1091</ele>
        <time>2021-09-07T15:25:02Z</time>
      </trkpt>
      <trkpt lat="44.39719" lon="5.6169">
        <ele>1091</ele>
        <time>2021-09-07T15:25:03Z</time>
      </trkpt>
      <trkpt lat="44.39719" lon="5.6169">
        <ele>1091</ele>
        <time>2021-09-07T15:25:04Z</time>
      </trkpt>
      <trkpt lat="44.39719" lon="5.6169">
        <ele>1091</ele>
        <time>2021-09-07T15:25:05Z</time>
      </trkpt>
      <trkpt lat="44.39718" lon="5.61691">
        <ele>1091.1</ele>
        <time>2021-09-07T15:25:06Z</time>
      </trkpt>
      <trkpt lat="44.39717" lon="5.61693">
        <ele>1091.2</ele>
        <time>2021-09-07T15:25:07Z</time>
      </trkpt>
      <trkpt lat="44.39716" lon="5.61694">
        <ele>1091.3</ele>
        <time>2021-09-07T15:25:08Z</time>
      </trkpt>
      <trkpt lat="44.39715" lon="5.61695">
        <ele>1091.4</ele>
        <time>2021-09-07T15:25:09Z</time>
      </trkpt>
      <trkpt lat="44.39714" lon="5.61697">
        <ele>1091.6</ele>
        <time>2021-09-07T15:25:10Z</time>
      </trkpt>
      <trkpt lat="44.39713" lon="5.61698">
        <ele>1091.7</ele>
        <time>2021-09-07T15:25:11Z</time>
      </trkpt>
      <trkpt lat="44.39712" lon="5.61699">
        <ele>1091.8</ele>
        <time>2021-09-07T15:25:12Z</time>
      </trkpt>
      <trkpt lat="44.39711" lon="5.61701">
        <ele>1091.9</ele>
        <time>2021-09-07T15:25:13Z</time>
      </trkpt>
      <trkpt lat="44.39709" lon="5.61704">
        <ele>1092.1</ele>
        <time>2021-09-07T15:25:14Z</time>
      </trkpt>
      <trkpt lat="44.39707" lon="5.61707">
        <ele>1092.4</ele>
        <time>2021-09-07T15:25:15Z</time>
      </trkpt>
      <trkpt lat="44.39706" lon="5.61709">
        <ele>1092.5</ele>
        <time>2021-09-07T15:25:16Z</time>
      </trkpt>
      <trkpt lat="44.39705" lon="5.61711">
        <ele>1092.6</ele>
        <time>2021-09-07T15:25:17Z</time>
      </trkpt>
      <trkpt lat="44.39706" lon="5.61715">
        <ele>1092.8</ele>
        <time>2021-09-07T15:25:18Z</time>
      </trkpt>
      <trkpt lat="44.39706" lon="5.61718">
        <ele>1093</ele>
        <time>2021-09-07T15:25:19Z</time>
      </trkpt>
      <trkpt lat="44.39706" lon="5.61722">
        <ele>1093.3</ele>
        <time>2021-09-07T15:25:20Z</time>
      </trkpt>
      <trkpt lat="44.39707" lon="5.61725">
        <ele>1093.4</ele>
        <time>2021-09-07T15:25:21Z</time>
      </trkpt>
      <trkpt lat="44.39708" lon="5.61727">
        <ele>1093.6</ele>
        <time>2021-09-07T15:25:22Z</time>
      </trkpt>
      <trkpt lat="44.39709" lon="5.61731">
        <ele>1093.8</ele>
        <time>2021-09-07T15:25:23Z</time>
      </trkpt>
      <trkpt lat="44.39709" lon="5.61735">
        <ele>1094</ele>
        <time>2021-09-07T15:25:24Z</time>
      </trkpt>
      <trkpt lat="44.3971" lon="5.61737">
        <ele>1094.1</ele>
        <time>2021-09-07T15:25:25Z</time>
      </trkpt>
      <trkpt lat="44.3971" lon="5.61739">
        <ele>1094.3</ele>
        <time>2021-09-07T15:25:26Z</time>
      </trkpt>
      <trkpt lat="44.39711" lon="5.61741">
        <ele>1094.4</ele>
        <time>2021-09-07T15:25:27Z</time>
      </trkpt>
      <trkpt lat="44.39712" lon="5.61743">
        <ele>1094.5</ele>
        <time>2021-09-07T15:25:28Z</time>
      </trkpt>
      <trkpt lat="44.39712" lon="5.61744">
        <ele>1094.5</ele>
        <time>2021-09-07T15:25:29Z</time>
      </trkpt>
      <trkpt lat="44.39712" lon="5.61746">
        <ele>1094.6</ele>
        <time>2021-09-07T15:25:30Z</time>
      </trkpt>
      <trkpt lat="44.39713" lon="5.61748">
        <ele>1094.8</ele>
        <time>2021-09-07T15:25:31Z</time>
      </trkpt>
      <trkpt lat="44.39713" lon="5.61749">
        <ele>1094.8</ele>
        <time>2021-09-07T15:25:32Z</time>
      </trkpt>
      <trkpt lat="44.39714" lon="5.61751">
        <ele>1094.9</ele>
        <time>2021-09-07T15:25:33Z</time>
      </trkpt>
      <trkpt lat="44.39714" lon="5.61752">
        <ele>1095</ele>
        <time>2021-09-07T15:25:34Z</time>
      </trkpt>
      <trkpt lat="44.39714" lon="5.61752">
        <ele>1095</ele>
        <time>2021-09-07T15:25:35Z</time>
      </trkpt>
      <trkpt lat="44.39713" lon="5.61752">
        <ele>1095</ele>
        <time>2021-09-07T15:25:36Z</time>
      </trkpt>
      <trkpt lat="44.39713" lon="5.61753">
        <ele>1095.1</ele>
        <time>2021-09-07T15:25:37Z</time>
      </trkpt>
      <trkpt lat="44.39713" lon="5.61754">
        <ele>1095.1</ele>
        <time>2021-09-07T15:25:38Z</time>
      </trkpt>
      <trkpt lat="44.39712" lon="5.61754">
        <ele>1095.2</ele>
        <time>2021-09-07T15:25:39Z</time>
      </trkpt>
      <trkpt lat="44.39712" lon="5.61754">
        <ele>1095.2</ele>
        <time>2021-09-07T15:25:40Z</time>
      </trkpt>
      <trkpt lat="44.39712" lon="5.61754">
        <ele>1095.2</ele>
        <time>2021-09-07T15:25:41Z</time>
      </trkpt>
      <trkpt lat="44.39712" lon="5.61754">
        <ele>1095.2</ele>
        <time>2021-09-07T15:25:42Z</time>
      </trkpt>
      <trkpt lat="44.39712" lon="5.61755">
        <ele>1095.2</ele>
        <time>2021-09-07T15:25:43Z</time>
      </trkpt>
      <trkpt lat="44.39711" lon="5.61755">
        <ele>1095.3</ele>
        <time>2021-09-07T15:25:44Z</time>
      </trkpt>
      <trkpt lat="44.39711" lon="5.61755">
        <ele>1095.3</ele>
        <time>2021-09-07T15:25:45Z</time>
      </trkpt>
      <trkpt lat="44.39711" lon="5.61755">
        <ele>1095.3</ele>
        <time>2021-09-07T15:25:46Z</time>
      </trkpt>
      <trkpt lat="44.39711" lon="5.61755">
        <ele>1095.3</ele>
        <time>2021-09-07T15:25:47Z</time>
      </trkpt>
      <trkpt lat="44.39711" lon="5.61755">
        <ele>1095.3</ele>
        <time>2021-09-07T15:25:48Z</time>
      </trkpt>
      <trkpt lat="44.39711" lon="5.61756">
        <ele>1095.3</ele>
        <time>2021-09-07T15:25:49Z</time>
      </trkpt>
      <trkpt lat="44.39711" lon="5.61756">
        <ele>1095.3</ele>
        <time>2021-09-07T15:25:50Z</time>
      </trkpt>
      <trkpt lat="44.39711" lon="5.61757">
        <ele>1095.4</ele>
        <time>2021-09-07T15:25:51Z</time>
      </trkpt>
      <trkpt lat="44.3971" lon="5.61757">
        <ele>1095.4</ele>
        <time>2021-09-07T15:25:52Z</time>
      </trkpt>
      <trkpt lat="44.39709" lon="5.61758">
        <ele>1095.5</ele>
        <time>2021-09-07T15:25:53Z</time>
      </trkpt>
      <trkpt lat="44.39708" lon="5.61759">
        <ele>1095.6</ele>
        <time>2021-09-07T15:25:54Z</time>
      </trkpt>
      <trkpt lat="44.39707" lon="5.61761">
        <ele>1095.7</ele>
        <time>2021-09-07T15:25:55Z</time>
      </trkpt>
      <trkpt lat="44.39707" lon="5.61762">
        <ele>1095.7</ele>
        <time>2021-09-07T15:25:56Z</time>
      </trkpt>
      <trkpt lat="44.39707" lon="5.61763">
        <ele>1095.8</ele>
        <time>2021-09-07T15:25:57Z</time>
      </trkpt>
      <trkpt lat="44.39706" lon="5.61763">
        <ele>1095.8</ele>
        <time>2021-09-07T15:25:58Z</time>
      </trkpt>
      <trkpt lat="44.39705" lon="5.61764">
        <ele>1095.9</ele>
        <time>2021-09-07T15:25:59Z</time>
      </trkpt>
      <trkpt lat="44.39705" lon="5.61765">
        <ele>1096</ele>
        <time>2021-09-07T15:26:00Z</time>
      </trkpt>
      <trkpt lat="44.39705" lon="5.61765">
        <ele>1096</ele>
        <time>2021-09-07T15:26:01Z</time>
      </trkpt>
      <trkpt lat="44.39705" lon="5.61765">
        <ele>1096</ele>
        <time>2021-09-07T15:26:02Z</time>
      </trkpt>
      <trkpt lat="44.39705" lon="5.61766">
        <ele>1096</ele>
        <time>2021-09-07T15:26:03Z</time>
      </trkpt>
      <trkpt lat="44.39705" lon="5.61766">
        <ele>1096</ele>
        <time>2021-09-07T15:26:04Z</time>
      </trkpt>
      <trkpt lat="44.39704" lon="5.61768">
        <ele>1096.1</ele>
        <time>2021-09-07T15:26:05Z</time>
      </trkpt>
      <trkpt lat="44.39703" lon="5.61769">
        <ele>1096.2</ele>
        <time>2021-09-07T15:26:06Z</time>
      </trkpt>
      <trkpt lat="44.39702" lon="5.61771">
        <ele>1096.3</ele>
        <time>2021-09-07T15:26:07Z</time>
      </trkpt>
      <trkpt lat="44.39702" lon="5.61772">
        <ele>1096.4</ele>
        <time>2021-09-07T15:26:08Z</time>
      </trkpt>
      <trkpt lat="44.39701" lon="5.61772">
        <ele>1096.4</ele>
        <time>2021-09-07T15:26:09Z</time>
      </trkpt>
      <trkpt lat="44.397" lon="5.61773">
        <ele>1096.5</ele>
        <time>2021-09-07T15:26:10Z</time>
      </trkpt>
      <trkpt lat="44.397" lon="5.61776">
        <ele>1096.6</ele>
        <time>2021-09-07T15:26:11Z</time>
      </trkpt>
      <trkpt lat="44.39699" lon="5.61779">
        <ele>1096.8</ele>
        <time>2021-09-07T15:26:12Z</time>
      </trkpt>
      <trkpt lat="44.39698" lon="5.61782">
        <ele>1096.9</ele>
        <time>2021-09-07T15:26:13Z</time>
      </trkpt>
      <trkpt lat="44.39697" lon="5.61784">
        <ele>1097</ele>
        <time>2021-09-07T15:26:14Z</time>
      </trkpt>
      <trkpt lat="44.39695" lon="5.61787">
        <ele>1097.2</ele>
        <time>2021-09-07T15:26:15Z</time>
      </trkpt>
      <trkpt lat="44.39694" lon="5.6179">
        <ele>1097.4</ele>
        <time>2021-09-07T15:26:16Z</time>
      </trkpt>
      <trkpt lat="44.39693" lon="5.61792">
        <ele>1097.5</ele>
        <time>2021-09-07T15:26:17Z</time>
      </trkpt>
      <trkpt lat="44.39692" lon="5.61794">
        <ele>1097.6</ele>
        <time>2021-09-07T15:26:18Z</time>
      </trkpt>
      <trkpt lat="44.39692" lon="5.61796">
        <ele>1097.7</ele>
        <time>2021-09-07T15:26:19Z</time>
      </trkpt>
      <trkpt lat="44.39691" lon="5.61797">
        <ele>1097.8</ele>
        <time>2021-09-07T15:26:20Z</time>
      </trkpt>
      <trkpt lat="44.3969" lon="5.61799">
        <ele>1097.9</ele>
        <time>2021-09-07T15:26:21Z</time>
      </trkpt>
      <trkpt lat="44.39688" lon="5.61799">
        <ele>1098.1</ele>
        <time>2021-09-07T15:26:22Z</time>
      </trkpt>
      <trkpt lat="44.39688" lon="5.618">
        <ele>1098.1</ele>
        <time>2021-09-07T15:26:23Z</time>
      </trkpt>
      <trkpt lat="44.39687" lon="5.61801">
        <ele>1098.2</ele>
        <time>2021-09-07T15:26:24Z</time>
      </trkpt>
      <trkpt lat="44.39687" lon="5.61803">
        <ele>1098.3</ele>
        <time>2021-09-07T15:26:25Z</time>
      </trkpt>
      <trkpt lat="44.39686" lon="5.61804">
        <ele>1098.4</ele>
        <time>2021-09-07T15:26:26Z</time>
      </trkpt>
      <trkpt lat="44.39686" lon="5.61805">
        <ele>1098.4</ele>
        <time>2021-09-07T15:26:27Z</time>
      </trkpt>
      <trkpt lat="44.39686" lon="5.61805">
        <ele>1098.4</ele>
        <time>2021-09-07T15:26:28Z</time>
      </trkpt>
      <trkpt lat="44.39686" lon="5.61806">
        <ele>1098.5</ele>
        <time>2021-09-07T15:26:29Z</time>
      </trkpt>
      <trkpt lat="44.39686" lon="5.61806">
        <ele>1098.5</ele>
        <time>2021-09-07T15:26:30Z</time>
      </trkpt>
      <trkpt lat="44.39686" lon="5.61806">
        <ele>1098.5</ele>
        <time>2021-09-07T15:26:31Z</time>
      </trkpt>
      <trkpt lat="44.39686" lon="5.61806">
        <ele>1098.5</ele>
        <time>2021-09-07T15:26:32Z</time>
      </trkpt>
      <trkpt lat="44.39686" lon="5.61806">
        <ele>1098.5</ele>
        <time>2021-09-07T15:26:33Z</time>
      </trkpt>
      <trkpt lat="44.39685" lon="5.61807">
        <ele>1098.6</ele>
        <time>2021-09-07T15:26:34Z</time>
      </trkpt>
      <trkpt lat="44.39685" lon="5.61809">
        <ele>1098.7</ele>
        <time>2021-09-07T15:26:35Z</time>
      </trkpt>
      <trkpt lat="44.39685" lon="5.61811">
        <ele>1098.8</ele>
        <time>2021-09-07T15:26:36Z</time>
      </trkpt>
      <trkpt lat="44.39685" lon="5.61813">
        <ele>1098.9</ele>
        <time>2021-09-07T15:26:37Z</time>
      </trkpt>
      <trkpt lat="44.39685" lon="5.61816">
        <ele>1099</ele>
        <time>2021-09-07T15:26:38Z</time>
      </trkpt>
      <trkpt lat="44.39685" lon="5.61819">
        <ele>1099.2</ele>
        <time>2021-09-07T15:26:39Z</time>
      </trkpt>
      <trkpt lat="44.39684" lon="5.61822">
        <ele>1099.4</ele>
        <time>2021-09-07T15:26:40Z</time>
      </trkpt>
      <trkpt lat="44.39683" lon="5.61825">
        <ele>1099.5</ele>
        <time>2021-09-07T15:26:41Z</time>
      </trkpt>
      <trkpt lat="44.39683" lon="5.61827">
        <ele>1099.6</ele>
        <time>2021-09-07T15:26:42Z</time>
      </trkpt>
      <trkpt lat="44.39683" lon="5.61829">
        <ele>1099.7</ele>
        <time>2021-09-07T15:26:43Z</time>
      </trkpt>
      <trkpt lat="44.39683" lon="5.61831">
        <ele>1099.8</ele>
        <time>2021-09-07T15:26:44Z</time>
      </trkpt>
      <trkpt lat="44.39683" lon="5.61834">
        <ele>1100</ele>
        <time>2021-09-07T15:26:45Z</time>
      </trkpt>
      <trkpt lat="44.39682" lon="5.61836">
        <ele>1100.1</ele>
        <time>2021-09-07T15:26:46Z</time>
      </trkpt>
      <trkpt lat="44.39681" lon="5.61838">
        <ele>1100.3</ele>
        <time>2021-09-07T15:26:47Z</time>
      </trkpt>
      <trkpt lat="44.3968" lon="5.6184">
        <ele>1100.4</ele>
        <time>2021-09-07T15:26:48Z</time>
      </trkpt>
      <trkpt lat="44.39679" lon="5.61842">
        <ele>1100.5</ele>
        <time>2021-09-07T15:26:49Z</time>
      </trkpt>
      <trkpt lat="44.39679" lon="5.61844">
        <ele>1100.6</ele>
        <time>2021-09-07T15:26:50Z</time>
      </trkpt>
      <trkpt lat="44.39678" lon="5.61846">
        <ele>1100.8</ele>
        <time>2021-09-07T15:26:51Z</time>
      </trkpt>
      <trkpt lat="44.39678" lon="5.61848">
        <ele>1100.9</ele>
        <time>2021-09-07T15:26:52Z</time>
      </trkpt>
      <trkpt lat="44.39677" lon="5.61849">
        <ele>1100.9</ele>
        <time>2021-09-07T15:26:53Z</time>
      </trkpt>
      <trkpt lat="44.39676" lon="5.61852">
        <ele>1101.1</ele>
        <time>2021-09-07T15:26:54Z</time>
      </trkpt>
      <trkpt lat="44.39676" lon="5.61854">
        <ele>1101.2</ele>
        <time>2021-09-07T15:26:55Z</time>
      </trkpt>
      <trkpt lat="44.39675" lon="5.61855">
        <ele>1101.3</ele>
        <time>2021-09-07T15:26:56Z</time>
      </trkpt>
      <trkpt lat="44.39675" lon="5.61858">
        <ele>1101.5</ele>
        <time>2021-09-07T15:26:57Z</time>
      </trkpt>
      <trkpt lat="44.39675" lon="5.6186">
        <ele>1101.6</ele>
        <time>2021-09-07T15:26:58Z</time>
      </trkpt>
      <trkpt lat="44.39674" lon="5.61861">
        <ele>1101.7</ele>
        <time>2021-09-07T15:26:59Z</time>
      </trkpt>
      <trkpt lat="44.39673" lon="5.61863">
        <ele>1101.8</ele>
        <time>2021-09-07T15:27:00Z</time>
      </trkpt>
      <trkpt lat="44.39673" lon="5.61865">
        <ele>1101.9</ele>
        <time>2021-09-07T15:27:01Z</time>
      </trkpt>
      <trkpt lat="44.39673" lon="5.61867">
        <ele>1102.1</ele>
        <time>2021-09-07T15:27:02Z</time>
      </trkpt>
      <trkpt lat="44.39673" lon="5.61868">
        <ele>1102.1</ele>
        <time>2021-09-07T15:27:03Z</time>
      </trkpt>
      <trkpt lat="44.39673" lon="5.6187">
        <ele>1102.2</ele>
        <time>2021-09-07T15:27:04Z</time>
      </trkpt>
      <trkpt lat="44.39672" lon="5.61871">
        <ele>1102.3</ele>
        <time>2021-09-07T15:27:05Z</time>
      </trkpt>
      <trkpt lat="44.39671" lon="5.61874">
        <ele>1102.5</ele>
        <time>2021-09-07T15:27:06Z</time>
      </trkpt>
      <trkpt lat="44.3967" lon="5.61875">
        <ele>1102.6</ele>
        <time>2021-09-07T15:27:07Z</time>
      </trkpt>
      <trkpt lat="44.3967" lon="5.61877">
        <ele>1102.7</ele>
        <time>2021-09-07T15:27:08Z</time>
      </trkpt>
      <trkpt lat="44.39669" lon="5.61879">
        <ele>1102.8</ele>
        <time>2021-09-07T15:27:09Z</time>
      </trkpt>
      <trkpt lat="44.39669" lon="5.6188">
        <ele>1102.9</ele>
        <time>2021-09-07T15:27:10Z</time>
      </trkpt>
      <trkpt lat="44.39669" lon="5.61883">
        <ele>1103</ele>
        <time>2021-09-07T15:27:11Z</time>
      </trkpt>
      <trkpt lat="44.39668" lon="5.61885">
        <ele>1103.1</ele>
        <time>2021-09-07T15:27:12Z</time>
      </trkpt>
      <trkpt lat="44.39667" lon="5.61887">
        <ele>1103.3</ele>
        <time>2021-09-07T15:27:13Z</time>
      </trkpt>
      <trkpt lat="44.39666" lon="5.61888">
        <ele>1103.4</ele>
        <time>2021-09-07T15:27:14Z</time>
      </trkpt>
      <trkpt lat="44.39666" lon="5.6189">
        <ele>1103.5</ele>
        <time>2021-09-07T15:27:15Z</time>
      </trkpt>
      <trkpt lat="44.39665" lon="5.61891">
        <ele>1103.6</ele>
        <time>2021-09-07T15:27:16Z</time>
      </trkpt>
      <trkpt lat="44.39665" lon="5.61892">
        <ele>1103.6</ele>
        <time>2021-09-07T15:27:17Z</time>
      </trkpt>
      <trkpt lat="44.39664" lon="5.61895">
        <ele>1103.8</ele>
        <time>2021-09-07T15:27:18Z</time>
      </trkpt>
      <trkpt lat="44.39663" lon="5.61896">
        <ele>1103.9</ele>
        <time>2021-09-07T15:27:19Z</time>
      </trkpt>
      <trkpt lat="44.39663" lon="5.61897">
        <ele>1103.9</ele>
        <time>2021-09-07T15:27:20Z</time>
      </trkpt>
      <trkpt lat="44.39662" lon="5.61897">
        <ele>1104</ele>
        <time>2021-09-07T15:27:21Z</time>
      </trkpt>
      <trkpt lat="44.39662" lon="5.61898">
        <ele>1104.1</ele>
        <time>2021-09-07T15:27:22Z</time>
      </trkpt>
      <trkpt lat="44.39661" lon="5.61899">
        <ele>1104.2</ele>
        <time>2021-09-07T15:27:23Z</time>
      </trkpt>
      <trkpt lat="44.3966" lon="5.61901">
        <ele>1104.3</ele>
        <time>2021-09-07T15:27:24Z</time>
      </trkpt>
      <trkpt lat="44.3966" lon="5.61902">
        <ele>1104.4</ele>
        <time>2021-09-07T15:27:25Z</time>
      </trkpt>
      <trkpt lat="44.3966" lon="5.61903">
        <ele>1104.5</ele>
        <time>2021-09-07T15:27:26Z</time>
      </trkpt>
      <trkpt lat="44.39659" lon="5.61904">
        <ele>1104.5</ele>
        <time>2021-09-07T15:27:27Z</time>
      </trkpt>
      <trkpt lat="44.3966" lon="5.61904">
        <ele>1104.6</ele>
        <time>2021-09-07T15:27:28Z</time>
      </trkpt>
      <trkpt lat="44.3966" lon="5.61904">
        <ele>1104.7</ele>
        <time>2021-09-07T15:27:29Z</time>
      </trkpt>
      <trkpt lat="44.3966" lon="5.61905">
        <ele>1104.7</ele>
        <time>2021-09-07T15:27:30Z</time>
      </trkpt>
      <trkpt lat="44.3966" lon="5.61905">
        <ele>1104.7</ele>
        <time>2021-09-07T15:27:31Z</time>
      </trkpt>
      <trkpt lat="44.3966" lon="5.61906">
        <ele>1104.8</ele>
        <time>2021-09-07T15:27:32Z</time>
      </trkpt>
      <trkpt lat="44.3966" lon="5.61906">
        <ele>1104.8</ele>
        <time>2021-09-07T15:27:33Z</time>
      </trkpt>
      <trkpt lat="44.3966" lon="5.61907">
        <ele>1104.8</ele>
        <time>2021-09-07T15:27:34Z</time>
      </trkpt>
      <trkpt lat="44.3966" lon="5.61908">
        <ele>1104.9</ele>
        <time>2021-09-07T15:27:35Z</time>
      </trkpt>
      <trkpt lat="44.3966" lon="5.61909">
        <ele>1105</ele>
        <time>2021-09-07T15:27:36Z</time>
      </trkpt>
      <trkpt lat="44.39659" lon="5.6191">
        <ele>1105</ele>
        <time>2021-09-07T15:27:37Z</time>
      </trkpt>
      <trkpt lat="44.39659" lon="5.61911">
        <ele>1105.1</ele>
        <time>2021-09-07T15:27:38Z</time>
      </trkpt>
      <trkpt lat="44.39659" lon="5.61912">
        <ele>1105.2</ele>
        <time>2021-09-07T15:27:39Z</time>
      </trkpt>
      <trkpt lat="44.39659" lon="5.61914">
        <ele>1105.3</ele>
        <time>2021-09-07T15:27:40Z</time>
      </trkpt>
      <trkpt lat="44.39659" lon="5.61915">
        <ele>1105.4</ele>
        <time>2021-09-07T15:27:41Z</time>
      </trkpt>
      <trkpt lat="44.39658" lon="5.61915">
        <ele>1105.4</ele>
        <time>2021-09-07T15:27:42Z</time>
      </trkpt>
      <trkpt lat="44.39658" lon="5.61915">
        <ele>1105.4</ele>
        <time>2021-09-07T15:27:43Z</time>
      </trkpt>
      <trkpt lat="44.39658" lon="5.61916">
        <ele>1105.4</ele>
        <time>2021-09-07T15:27:44Z</time>
      </trkpt>
      <trkpt lat="44.39658" lon="5.61916">
        <ele>1105.5</ele>
        <time>2021-09-07T15:27:45Z</time>
      </trkpt>
      <trkpt lat="44.39658" lon="5.61916">
        <ele>1105.5</ele>
        <time>2021-09-07T15:27:46Z</time>
      </trkpt>
      <trkpt lat="44.39657" lon="5.61916">
        <ele>1105.6</ele>
        <time>2021-09-07T15:27:47Z</time>
      </trkpt>
      <trkpt lat="44.39657" lon="5.61917">
        <ele>1105.6</ele>
        <time>2021-09-07T15:27:48Z</time>
      </trkpt>
      <trkpt lat="44.39657" lon="5.61917">
        <ele>1105.6</ele>
        <time>2021-09-07T15:27:49Z</time>
      </trkpt>
      <trkpt lat="44.39658" lon="5.61919">
        <ele>1105.7</ele>
        <time>2021-09-07T15:27:50Z</time>
      </trkpt>
      <trkpt lat="44.39658" lon="5.6192">
        <ele>1105.8</ele>
        <time>2021-09-07T15:27:51Z</time>
      </trkpt>
      <trkpt lat="44.39658" lon="5.61922">
        <ele>1106</ele>
        <time>2021-09-07T15:27:52Z</time>
      </trkpt>
      <trkpt lat="44.39658" lon="5.61924">
        <ele>1106.1</ele>
        <time>2021-09-07T15:27:53Z</time>
      </trkpt>
      <trkpt lat="44.39657" lon="5.61926">
        <ele>1106.2</ele>
        <time>2021-09-07T15:27:54Z</time>
      </trkpt>
      <trkpt lat="44.39657" lon="5.61928">
        <ele>1106.3</ele>
        <time>2021-09-07T15:27:55Z</time>
      </trkpt>
      <trkpt lat="44.39656" lon="5.61931">
        <ele>1106.5</ele>
        <time>2021-09-07T15:27:56Z</time>
      </trkpt>
      <trkpt lat="44.39655" lon="5.61934">
        <ele>1106.7</ele>
        <time>2021-09-07T15:27:57Z</time>
      </trkpt>
      <trkpt lat="44.39654" lon="5.61936">
        <ele>1106.8</ele>
        <time>2021-09-07T15:27:58Z</time>
      </trkpt>
      <trkpt lat="44.39655" lon="5.6194">
        <ele>1107</ele>
        <time>2021-09-07T15:27:59Z</time>
      </trkpt>
      <trkpt lat="44.39655" lon="5.61945">
        <ele>1107.3</ele>
        <time>2021-09-07T15:28:00Z</time>
      </trkpt>
      <trkpt lat="44.39655" lon="5.61949">
        <ele>1107.5</ele>
        <time>2021-09-07T15:28:01Z</time>
      </trkpt>
      <trkpt lat="44.39655" lon="5.61951">
        <ele>1107.6</ele>
        <time>2021-09-07T15:28:02Z</time>
      </trkpt>
      <trkpt lat="44.39655" lon="5.61953">
        <ele>1107.7</ele>
        <time>2021-09-07T15:28:03Z</time>
      </trkpt>
      <trkpt lat="44.39654" lon="5.61955">
        <ele>1107.8</ele>
        <time>2021-09-07T15:28:04Z</time>
      </trkpt>
      <trkpt lat="44.39654" lon="5.61957">
        <ele>1107.9</ele>
        <time>2021-09-07T15:28:05Z</time>
      </trkpt>
      <trkpt lat="44.39653" lon="5.6196">
        <ele>1108</ele>
        <time>2021-09-07T15:28:06Z</time>
      </trkpt>
      <trkpt lat="44.39652" lon="5.61962">
        <ele>1108.2</ele>
        <time>2021-09-07T15:28:07Z</time>
      </trkpt>
      <trkpt lat="44.39651" lon="5.61964">
        <ele>1108.3</ele>
        <time>2021-09-07T15:28:08Z</time>
      </trkpt>
      <trkpt lat="44.3965" lon="5.61966">
        <ele>1108.4</ele>
        <time>2021-09-07T15:28:09Z</time>
      </trkpt>
      <trkpt lat="44.39648" lon="5.61968">
        <ele>1108.6</ele>
        <time>2021-09-07T15:28:10Z</time>
      </trkpt>
      <trkpt lat="44.39647" lon="5.6197">
        <ele>1108.7</ele>
        <time>2021-09-07T15:28:11Z</time>
      </trkpt>
      <trkpt lat="44.39646" lon="5.61971">
        <ele>1108.8</ele>
        <time>2021-09-07T15:28:12Z</time>
      </trkpt>
      <trkpt lat="44.39645" lon="5.61973">
        <ele>1109</ele>
        <time>2021-09-07T15:28:13Z</time>
      </trkpt>
      <trkpt lat="44.39644" lon="5.61976">
        <ele>1109.1</ele>
        <time>2021-09-07T15:28:14Z</time>
      </trkpt>
      <trkpt lat="44.39643" lon="5.61979">
        <ele>1109.3</ele>
        <time>2021-09-07T15:28:15Z</time>
      </trkpt>
      <trkpt lat="44.39641" lon="5.61981">
        <ele>1109.5</ele>
        <time>2021-09-07T15:28:16Z</time>
      </trkpt>
      <trkpt lat="44.3964" lon="5.61983">
        <ele>1109.7</ele>
        <time>2021-09-07T15:28:17Z</time>
      </trkpt>
      <trkpt lat="44.39639" lon="5.61985">
        <ele>1109.8</ele>
        <time>2021-09-07T15:28:18Z</time>
      </trkpt>
      <trkpt lat="44.39638" lon="5.61987">
        <ele>1109.9</ele>
        <time>2021-09-07T15:28:19Z</time>
      </trkpt>
      <trkpt lat="44.39638" lon="5.61989">
        <ele>1110</ele>
        <time>2021-09-07T15:28:20Z</time>
      </trkpt>
      <trkpt lat="44.39637" lon="5.61991">
        <ele>1110.2</ele>
        <time>2021-09-07T15:28:21Z</time>
      </trkpt>
      <trkpt lat="44.39636" lon="5.61993">
        <ele>1110.3</ele>
        <time>2021-09-07T15:28:22Z</time>
      </trkpt>
      <trkpt lat="44.39636" lon="5.61994">
        <ele>1110.4</ele>
        <time>2021-09-07T15:28:23Z</time>
      </trkpt>
      <trkpt lat="44.39635" lon="5.61996">
        <ele>1110.5</ele>
        <time>2021-09-07T15:28:24Z</time>
      </trkpt>
      <trkpt lat="44.39634" lon="5.61998">
        <ele>1110.6</ele>
        <time>2021-09-07T15:28:25Z</time>
      </trkpt>
      <trkpt lat="44.39633" lon="5.62">
        <ele>1110.7</ele>
        <time>2021-09-07T15:28:26Z</time>
      </trkpt>
      <trkpt lat="44.39632" lon="5.62001">
        <ele>1110.8</ele>
        <time>2021-09-07T15:28:27Z</time>
      </trkpt>
      <trkpt lat="44.39631" lon="5.62003">
        <ele>1110.9</ele>
        <time>2021-09-07T15:28:28Z</time>
      </trkpt>
      <trkpt lat="44.3963" lon="5.62005">
        <ele>1111.1</ele>
        <time>2021-09-07T15:28:29Z</time>
      </trkpt>
      <trkpt lat="44.39629" lon="5.62007">
        <ele>1111.2</ele>
        <time>2021-09-07T15:28:30Z</time>
      </trkpt>
      <trkpt lat="44.39628" lon="5.62008">
        <ele>1111.3</ele>
        <time>2021-09-07T15:28:31Z</time>
      </trkpt>
      <trkpt lat="44.39626" lon="5.62009">
        <ele>1111.4</ele>
        <time>2021-09-07T15:28:32Z</time>
      </trkpt>
      <trkpt lat="44.39625" lon="5.62011">
        <ele>1111.5</ele>
        <time>2021-09-07T15:28:33Z</time>
      </trkpt>
      <trkpt lat="44.39624" lon="5.62013">
        <ele>1111.6</ele>
        <time>2021-09-07T15:28:34Z</time>
      </trkpt>
      <trkpt lat="44.39623" lon="5.62014">
        <ele>1111.8</ele>
        <time>2021-09-07T15:28:35Z</time>
      </trkpt>
      <trkpt lat="44.39621" lon="5.62015">
        <ele>1111.9</ele>
        <time>2021-09-07T15:28:36Z</time>
      </trkpt>
      <trkpt lat="44.3962" lon="5.62015">
        <ele>1112</ele>
        <time>2021-09-07T15:28:37Z</time>
      </trkpt>
      <trkpt lat="44.39619" lon="5.62017">
        <ele>1112.1</ele>
        <time>2021-09-07T15:28:38Z</time>
      </trkpt>
      <trkpt lat="44.39618" lon="5.62018">
        <ele>1112.2</ele>
        <time>2021-09-07T15:28:39Z</time>
      </trkpt>
      <trkpt lat="44.39616" lon="5.6202">
        <ele>1112.4</ele>
        <time>2021-09-07T15:28:40Z</time>
      </trkpt>
      <trkpt lat="44.39614" lon="5.62022">
        <ele>1112.6</ele>
        <time>2021-09-07T15:28:41Z</time>
      </trkpt>
      <trkpt lat="44.39613" lon="5.62023">
        <ele>1112.7</ele>
        <time>2021-09-07T15:28:42Z</time>
      </trkpt>
      <trkpt lat="44.39612" lon="5.62024">
        <ele>1112.8</ele>
        <time>2021-09-07T15:28:43Z</time>
      </trkpt>
      <trkpt lat="44.3961" lon="5.62026">
        <ele>1113</ele>
        <time>2021-09-07T15:28:44Z</time>
      </trkpt>
      <trkpt lat="44.39609" lon="5.62027">
        <ele>1113.1</ele>
        <time>2021-09-07T15:28:45Z</time>
      </trkpt>
      <trkpt lat="44.39608" lon="5.62029">
        <ele>1113.2</ele>
        <time>2021-09-07T15:28:46Z</time>
      </trkpt>
      <trkpt lat="44.39607" lon="5.6203">
        <ele>1113.3</ele>
        <time>2021-09-07T15:28:47Z</time>
      </trkpt>
      <trkpt lat="44.39606" lon="5.62032">
        <ele>1113.5</ele>
        <time>2021-09-07T15:28:48Z</time>
      </trkpt>
      <trkpt lat="44.39605" lon="5.62033">
        <ele>1113.6</ele>
        <time>2021-09-07T15:28:49Z</time>
      </trkpt>
      <trkpt lat="44.39604" lon="5.62034">
        <ele>1113.7</ele>
        <time>2021-09-07T15:28:50Z</time>
      </trkpt>
      <trkpt lat="44.39603" lon="5.62036">
        <ele>1113.8</ele>
        <time>2021-09-07T15:28:51Z</time>
      </trkpt>
      <trkpt lat="44.39602" lon="5.62037">
        <ele>1113.9</ele>
        <time>2021-09-07T15:28:52Z</time>
      </trkpt>
      <trkpt lat="44.39601" lon="5.62038">
        <ele>1114.1</ele>
        <time>2021-09-07T15:28:53Z</time>
      </trkpt>
      <trkpt lat="44.39599" lon="5.62039">
        <ele>1114.2</ele>
        <time>2021-09-07T15:28:54Z</time>
      </trkpt>
      <trkpt lat="44.39597" lon="5.6204">
        <ele>1114.4</ele>
        <time>2021-09-07T15:28:55Z</time>
      </trkpt>
      <trkpt lat="44.39597" lon="5.62041">
        <ele>1114.5</ele>
        <time>2021-09-07T15:28:56Z</time>
      </trkpt>
      <trkpt lat="44.39596" lon="5.62042">
        <ele>1114.6</ele>
        <time>2021-09-07T15:28:57Z</time>
      </trkpt>
      <trkpt lat="44.39594" lon="5.62044">
        <ele>1114.7</ele>
        <time>2021-09-07T15:28:58Z</time>
      </trkpt>
      <trkpt lat="44.39594" lon="5.62045">
        <ele>1114.8</ele>
        <time>2021-09-07T15:28:59Z</time>
      </trkpt>
      <trkpt lat="44.39593" lon="5.62045">
        <ele>1114.8</ele>
        <time>2021-09-07T15:29:00Z</time>
      </trkpt>
      <trkpt lat="44.39591" lon="5.62047">
        <ele>1115</ele>
        <time>2021-09-07T15:29:01Z</time>
      </trkpt>
      <trkpt lat="44.3959" lon="5.62048">
        <ele>1115.1</ele>
        <time>2021-09-07T15:29:02Z</time>
      </trkpt>
      <trkpt lat="44.39589" lon="5.62049">
        <ele>1115.2</ele>
        <time>2021-09-07T15:29:03Z</time>
      </trkpt>
      <trkpt lat="44.39587" lon="5.62051">
        <ele>1115.4</ele>
        <time>2021-09-07T15:29:04Z</time>
      </trkpt>
      <trkpt lat="44.39586" lon="5.62052">
        <ele>1115.5</ele>
        <time>2021-09-07T15:29:05Z</time>
      </trkpt>
      <trkpt lat="44.39585" lon="5.62053">
        <ele>1115.6</ele>
        <time>2021-09-07T15:29:06Z</time>
      </trkpt>
      <trkpt lat="44.39583" lon="5.62054">
        <ele>1115.7</ele>
        <time>2021-09-07T15:29:07Z</time>
      </trkpt>
      <trkpt lat="44.39582" lon="5.62056">
        <ele>1115.8</ele>
        <time>2021-09-07T15:29:08Z</time>
      </trkpt>
      <trkpt lat="44.3958" lon="5.62057">
        <ele>1115.9</ele>
        <time>2021-09-07T15:29:09Z</time>
      </trkpt>
      <trkpt lat="44.39578" lon="5.62058">
        <ele>1116.1</ele>
        <time>2021-09-07T15:29:10Z</time>
      </trkpt>
      <trkpt lat="44.39577" lon="5.62059">
        <ele>1116.2</ele>
        <time>2021-09-07T15:29:11Z</time>
      </trkpt>
      <trkpt lat="44.39575" lon="5.6206">
        <ele>1116.3</ele>
        <time>2021-09-07T15:29:12Z</time>
      </trkpt>
      <trkpt lat="44.39574" lon="5.62062">
        <ele>1116.4</ele>
        <time>2021-09-07T15:29:13Z</time>
      </trkpt>
      <trkpt lat="44.39572" lon="5.62063">
        <ele>1116.5</ele>
        <time>2021-09-07T15:29:14Z</time>
      </trkpt>
      <trkpt lat="44.39571" lon="5.62065">
        <ele>1116.6</ele>
        <time>2021-09-07T15:29:15Z</time>
      </trkpt>
      <trkpt lat="44.3957" lon="5.62066">
        <ele>1116.7</ele>
        <time>2021-09-07T15:29:16Z</time>
      </trkpt>
      <trkpt lat="44.39569" lon="5.62067">
        <ele>1116.7</ele>
        <time>2021-09-07T15:29:17Z</time>
      </trkpt>
      <trkpt lat="44.39567" lon="5.6207">
        <ele>1116.9</ele>
        <time>2021-09-07T15:29:18Z</time>
      </trkpt>
      <trkpt lat="44.39566" lon="5.62072">
        <ele>1117</ele>
        <time>2021-09-07T15:29:19Z</time>
      </trkpt>
      <trkpt lat="44.39564" lon="5.62074">
        <ele>1117.1</ele>
        <time>2021-09-07T15:29:20Z</time>
      </trkpt>
      <trkpt lat="44.39563" lon="5.62076">
        <ele>1117.2</ele>
        <time>2021-09-07T15:29:21Z</time>
      </trkpt>
      <trkpt lat="44.39561" lon="5.62078">
        <ele>1117.4</ele>
        <time>2021-09-07T15:29:22Z</time>
      </trkpt>
      <trkpt lat="44.39559" lon="5.62082">
        <ele>1117.6</ele>
        <time>2021-09-07T15:29:23Z</time>
      </trkpt>
      <trkpt lat="44.39558" lon="5.62084">
        <ele>1117.7</ele>
        <time>2021-09-07T15:29:24Z</time>
      </trkpt>
      <trkpt lat="44.39556" lon="5.62086">
        <ele>1117.8</ele>
        <time>2021-09-07T15:29:25Z</time>
      </trkpt>
      <trkpt lat="44.39553" lon="5.6209">
        <ele>1118.1</ele>
        <time>2021-09-07T15:29:26Z</time>
      </trkpt>
      <trkpt lat="44.39552" lon="5.62092">
        <ele>1118.2</ele>
        <time>2021-09-07T15:29:27Z</time>
      </trkpt>
      <trkpt lat="44.3955" lon="5.62094">
        <ele>1118.3</ele>
        <time>2021-09-07T15:29:28Z</time>
      </trkpt>
      <trkpt lat="44.39549" lon="5.62096">
        <ele>1118.4</ele>
        <time>2021-09-07T15:29:29Z</time>
      </trkpt>
      <trkpt lat="44.39547" lon="5.62098">
        <ele>1118.6</ele>
        <time>2021-09-07T15:29:30Z</time>
      </trkpt>
      <trkpt lat="44.39545" lon="5.621">
        <ele>1118.7</ele>
        <time>2021-09-07T15:29:31Z</time>
      </trkpt>
      <trkpt lat="44.39544" lon="5.62101">
        <ele>1118.8</ele>
        <time>2021-09-07T15:29:32Z</time>
      </trkpt>
      <trkpt lat="44.39543" lon="5.62101">
        <ele>1118.9</ele>
        <time>2021-09-07T15:29:33Z</time>
      </trkpt>
      <trkpt lat="44.39541" lon="5.62102">
        <ele>1119</ele>
        <time>2021-09-07T15:29:34Z</time>
      </trkpt>
      <trkpt lat="44.39539" lon="5.62104">
        <ele>1119.1</ele>
        <time>2021-09-07T15:29:35Z</time>
      </trkpt>
      <trkpt lat="44.39538" lon="5.62106">
        <ele>1119.3</ele>
        <time>2021-09-07T15:29:36Z</time>
      </trkpt>
      <trkpt lat="44.39536" lon="5.62107">
        <ele>1119.4</ele>
        <time>2021-09-07T15:29:37Z</time>
      </trkpt>
      <trkpt lat="44.39535" lon="5.62109">
        <ele>1119.5</ele>
        <time>2021-09-07T15:29:38Z</time>
      </trkpt>
      <trkpt lat="44.39533" lon="5.6211">
        <ele>1119.7</ele>
        <time>2021-09-07T15:29:39Z</time>
      </trkpt>
      <trkpt lat="44.39531" lon="5.62111">
        <ele>1119.8</ele>
        <time>2021-09-07T15:29:40Z</time>
      </trkpt>
      <trkpt lat="44.39529" lon="5.62112">
        <ele>1119.9</ele>
        <time>2021-09-07T15:29:41Z</time>
      </trkpt>
      <trkpt lat="44.39527" lon="5.62112">
        <ele>1120.1</ele>
        <time>2021-09-07T15:29:42Z</time>
      </trkpt>
      <trkpt lat="44.39526" lon="5.62112">
        <ele>1120.2</ele>
        <time>2021-09-07T15:29:43Z</time>
      </trkpt>
      <trkpt lat="44.39524" lon="5.62112">
        <ele>1120.3</ele>
        <time>2021-09-07T15:29:44Z</time>
      </trkpt>
      <trkpt lat="44.39523" lon="5.62113">
        <ele>1120.4</ele>
        <time>2021-09-07T15:29:45Z</time>
      </trkpt>
      <trkpt lat="44.39521" lon="5.62113">
        <ele>1120.5</ele>
        <time>2021-09-07T15:29:46Z</time>
      </trkpt>
      <trkpt lat="44.39518" lon="5.62114">
        <ele>1120.7</ele>
        <time>2021-09-07T15:29:47Z</time>
      </trkpt>
      <trkpt lat="44.39516" lon="5.62116">
        <ele>1120.9</ele>
        <time>2021-09-07T15:29:48Z</time>
      </trkpt>
      <trkpt lat="44.39515" lon="5.62118">
        <ele>1121</ele>
        <time>2021-09-07T15:29:49Z</time>
      </trkpt>
      <trkpt lat="44.39514" lon="5.62119">
        <ele>1121.1</ele>
        <time>2021-09-07T15:29:50Z</time>
      </trkpt>
      <trkpt lat="44.39512" lon="5.62121">
        <ele>1121.3</ele>
        <time>2021-09-07T15:29:51Z</time>
      </trkpt>
      <trkpt lat="44.39509" lon="5.62123">
        <ele>1121.5</ele>
        <time>2021-09-07T15:29:52Z</time>
      </trkpt>
      <trkpt lat="44.39508" lon="5.62124">
        <ele>1121.5</ele>
        <time>2021-09-07T15:29:53Z</time>
      </trkpt>
      <trkpt lat="44.39507" lon="5.62125">
        <ele>1121.6</ele>
        <time>2021-09-07T15:29:54Z</time>
      </trkpt>
      <trkpt lat="44.39506" lon="5.62125">
        <ele>1121.7</ele>
        <time>2021-09-07T15:29:55Z</time>
      </trkpt>
      <trkpt lat="44.39505" lon="5.62126">
        <ele>1121.8</ele>
        <time>2021-09-07T15:29:56Z</time>
      </trkpt>
      <trkpt lat="44.39503" lon="5.62126">
        <ele>1121.9</ele>
        <time>2021-09-07T15:29:57Z</time>
      </trkpt>
      <trkpt lat="44.39502" lon="5.62127">
        <ele>1122</ele>
        <time>2021-09-07T15:29:58Z</time>
      </trkpt>
      <trkpt lat="44.395" lon="5.62128">
        <ele>1122.1</ele>
        <time>2021-09-07T15:29:59Z</time>
      </trkpt>
      <trkpt lat="44.39499" lon="5.62129">
        <ele>1122.2</ele>
        <time>2021-09-07T15:30:00Z</time>
      </trkpt>
      <trkpt lat="44.39498" lon="5.6213">
        <ele>1122.3</ele>
        <time>2021-09-07T15:30:01Z</time>
      </trkpt>
      <trkpt lat="44.39496" lon="5.62131">
        <ele>1122.4</ele>
        <time>2021-09-07T15:30:02Z</time>
      </trkpt>
      <trkpt lat="44.39495" lon="5.62132">
        <ele>1122.5</ele>
        <time>2021-09-07T15:30:03Z</time>
      </trkpt>
      <trkpt lat="44.39494" lon="5.62133">
        <ele>1122.5</ele>
        <time>2021-09-07T15:30:04Z</time>
      </trkpt>
      <trkpt lat="44.39493" lon="5.62135">
        <ele>1122.6</ele>
        <time>2021-09-07T15:30:05Z</time>
      </trkpt>
      <trkpt lat="44.39492" lon="5.62136">
        <ele>1122.7</ele>
        <time>2021-09-07T15:30:06Z</time>
      </trkpt>
      <trkpt lat="44.39491" lon="5.62138">
        <ele>1122.8</ele>
        <time>2021-09-07T15:30:07Z</time>
      </trkpt>
      <trkpt lat="44.39489" lon="5.62139">
        <ele>1123</ele>
        <time>2021-09-07T15:30:08Z</time>
      </trkpt>
      <trkpt lat="44.39489" lon="5.6214">
        <ele>1123</ele>
        <time>2021-09-07T15:30:09Z</time>
      </trkpt>
      <trkpt lat="44.39488" lon="5.6214">
        <ele>1123</ele>
        <time>2021-09-07T15:30:10Z</time>
      </trkpt>
      <trkpt lat="44.39486" lon="5.62142">
        <ele>1123.2</ele>
        <time>2021-09-07T15:30:11Z</time>
      </trkpt>
      <trkpt lat="44.39486" lon="5.62144">
        <ele>1123.2</ele>
        <time>2021-09-07T15:30:12Z</time>
      </trkpt>
      <trkpt lat="44.39485" lon="5.62145">
        <ele>1123.3</ele>
        <time>2021-09-07T15:30:13Z</time>
      </trkpt>
      <trkpt lat="44.39483" lon="5.62149">
        <ele>1123.5</ele>
        <time>2021-09-07T15:30:14Z</time>
      </trkpt>
      <trkpt lat="44.39482" lon="5.62151">
        <ele>1123.6</ele>
        <time>2021-09-07T15:30:15Z</time>
      </trkpt>
      <trkpt lat="44.39481" lon="5.62153">
        <ele>1123.7</ele>
        <time>2021-09-07T15:30:16Z</time>
      </trkpt>
      <trkpt lat="44.39479" lon="5.62156">
        <ele>1123.8</ele>
        <time>2021-09-07T15:30:17Z</time>
      </trkpt>
      <trkpt lat="44.39478" lon="5.62158">
        <ele>1123.9</ele>
        <time>2021-09-07T15:30:18Z</time>
      </trkpt>
      <trkpt lat="44.39477" lon="5.62159">
        <ele>1124</ele>
        <time>2021-09-07T15:30:19Z</time>
      </trkpt>
      <trkpt lat="44.39474" lon="5.62162">
        <ele>1124.1</ele>
        <time>2021-09-07T15:30:20Z</time>
      </trkpt>
      <trkpt lat="44.39473" lon="5.62163">
        <ele>1124.2</ele>
        <time>2021-09-07T15:30:21Z</time>
      </trkpt>
      <trkpt lat="44.39473" lon="5.62166">
        <ele>1124.3</ele>
        <time>2021-09-07T15:30:22Z</time>
      </trkpt>
      <trkpt lat="44.39472" lon="5.62168">
        <ele>1124.4</ele>
        <time>2021-09-07T15:30:23Z</time>
      </trkpt>
      <trkpt lat="44.39472" lon="5.6217">
        <ele>1124.4</ele>
        <time>2021-09-07T15:30:24Z</time>
      </trkpt>
      <trkpt lat="44.39471" lon="5.62171">
        <ele>1124.5</ele>
        <time>2021-09-07T15:30:25Z</time>
      </trkpt>
      <trkpt lat="44.3947" lon="5.62174">
        <ele>1124.6</ele>
        <time>2021-09-07T15:30:26Z</time>
      </trkpt>
      <trkpt lat="44.3947" lon="5.62176">
        <ele>1124.7</ele>
        <time>2021-09-07T15:30:27Z</time>
      </trkpt>
      <trkpt lat="44.39469" lon="5.62178">
        <ele>1124.7</ele>
        <time>2021-09-07T15:30:28Z</time>
      </trkpt>
      <trkpt lat="44.39468" lon="5.6218">
        <ele>1124.8</ele>
        <time>2021-09-07T15:30:29Z</time>
      </trkpt>
      <trkpt lat="44.39467" lon="5.62182">
        <ele>1124.9</ele>
        <time>2021-09-07T15:30:30Z</time>
      </trkpt>
      <trkpt lat="44.39465" lon="5.62183">
        <ele>1125</ele>
        <time>2021-09-07T15:30:31Z</time>
      </trkpt>
      <trkpt lat="44.39465" lon="5.62184">
        <ele>1125</ele>
        <time>2021-09-07T15:30:32Z</time>
      </trkpt>
      <trkpt lat="44.39464" lon="5.62185">
        <ele>1125.1</ele>
        <time>2021-09-07T15:30:33Z</time>
      </trkpt>
      <trkpt lat="44.39463" lon="5.62186">
        <ele>1125.1</ele>
        <time>2021-09-07T15:30:34Z</time>
      </trkpt>
      <trkpt lat="44.39463" lon="5.62187">
        <ele>1125.2</ele>
        <time>2021-09-07T15:30:35Z</time>
      </trkpt>
      <trkpt lat="44.39463" lon="5.62187">
        <ele>1125.2</ele>
        <time>2021-09-07T15:30:36Z</time>
      </trkpt>
      <trkpt lat="44.39463" lon="5.62188">
        <ele>1125.2</ele>
        <time>2021-09-07T15:30:37Z</time>
      </trkpt>
      <trkpt lat="44.39463" lon="5.62188">
        <ele>1125.2</ele>
        <time>2021-09-07T15:30:38Z</time>
      </trkpt>
      <trkpt lat="44.39462" lon="5.62189">
        <ele>1125.3</ele>
        <time>2021-09-07T15:30:39Z</time>
      </trkpt>
      <trkpt lat="44.39462" lon="5.62191">
        <ele>1125.3</ele>
        <time>2021-09-07T15:30:40Z</time>
      </trkpt>
      <trkpt lat="44.39461" lon="5.62192">
        <ele>1125.4</ele>
        <time>2021-09-07T15:30:41Z</time>
      </trkpt>
      <trkpt lat="44.3946" lon="5.62195">
        <ele>1125.5</ele>
        <time>2021-09-07T15:30:42Z</time>
      </trkpt>
      <trkpt lat="44.3946" lon="5.62197">
        <ele>1125.6</ele>
        <time>2021-09-07T15:30:43Z</time>
      </trkpt>
      <trkpt lat="44.39459" lon="5.62198">
        <ele>1125.7</ele>
        <time>2021-09-07T15:30:44Z</time>
      </trkpt>
      <trkpt lat="44.39455" lon="5.62201">
        <ele>1125.9</ele>
        <time>2021-09-07T15:30:45Z</time>
      </trkpt>
      <trkpt lat="44.39453" lon="5.62204">
        <ele>1126.1</ele>
        <time>2021-09-07T15:30:46Z</time>
      </trkpt>
      <trkpt lat="44.39451" lon="5.62206">
        <ele>1126.3</ele>
        <time>2021-09-07T15:30:47Z</time>
      </trkpt>
      <trkpt lat="44.39451" lon="5.6221">
        <ele>1126.4</ele>
        <time>2021-09-07T15:30:48Z</time>
      </trkpt>
      <trkpt lat="44.3945" lon="5.62215">
        <ele>1126.7</ele>
        <time>2021-09-07T15:30:49Z</time>
      </trkpt>
      <trkpt lat="44.39449" lon="5.62219">
        <ele>1126.9</ele>
        <time>2021-09-07T15:30:50Z</time>
      </trkpt>
      <trkpt lat="44.39448" lon="5.62223">
        <ele>1127.1</ele>
        <time>2021-09-07T15:30:51Z</time>
      </trkpt>
      <trkpt lat="44.39446" lon="5.62227">
        <ele>1127.3</ele>
        <time>2021-09-07T15:30:52Z</time>
      </trkpt>
      <trkpt lat="44.39445" lon="5.62231">
        <ele>1127.5</ele>
        <time>2021-09-07T15:30:53Z</time>
      </trkpt>
      <trkpt lat="44.39444" lon="5.62234">
        <ele>1127.7</ele>
        <time>2021-09-07T15:30:54Z</time>
      </trkpt>
      <trkpt lat="44.39443" lon="5.62236">
        <ele>1127.8</ele>
        <time>2021-09-07T15:30:55Z</time>
      </trkpt>
      <trkpt lat="44.39443" lon="5.62238">
        <ele>1127.9</ele>
        <time>2021-09-07T15:30:56Z</time>
      </trkpt>
      <trkpt lat="44.39442" lon="5.62239">
        <ele>1127.9</ele>
        <time>2021-09-07T15:30:57Z</time>
      </trkpt>
      <trkpt lat="44.3944" lon="5.62242">
        <ele>1128.2</ele>
        <time>2021-09-07T15:30:58Z</time>
      </trkpt>
      <trkpt lat="44.39439" lon="5.62245">
        <ele>1128.3</ele>
        <time>2021-09-07T15:30:59Z</time>
      </trkpt>
      <trkpt lat="44.39438" lon="5.62248">
        <ele>1128.5</ele>
        <time>2021-09-07T15:31:00Z</time>
      </trkpt>
      <trkpt lat="44.39437" lon="5.62251">
        <ele>1128.7</ele>
        <time>2021-09-07T15:31:01Z</time>
      </trkpt>
      <trkpt lat="44.39436" lon="5.62253">
        <ele>1128.8</ele>
        <time>2021-09-07T15:31:02Z</time>
      </trkpt>
      <trkpt lat="44.39435" lon="5.62254">
        <ele>1129</ele>
        <time>2021-09-07T15:31:03Z</time>
      </trkpt>
      <trkpt lat="44.39434" lon="5.62258">
        <ele>1129.2</ele>
        <time>2021-09-07T15:31:04Z</time>
      </trkpt>
      <trkpt lat="44.39433" lon="5.62261">
        <ele>1129.4</ele>
        <time>2021-09-07T15:31:05Z</time>
      </trkpt>
      <trkpt lat="44.39432" lon="5.62263">
        <ele>1129.6</ele>
        <time>2021-09-07T15:31:06Z</time>
      </trkpt>
      <trkpt lat="44.39431" lon="5.62265">
        <ele>1129.8</ele>
        <time>2021-09-07T15:31:07Z</time>
      </trkpt>
      <trkpt lat="44.3943" lon="5.62267">
        <ele>1129.9</ele>
        <time>2021-09-07T15:31:08Z</time>
      </trkpt>
      <trkpt lat="44.39428" lon="5.62268">
        <ele>1130.1</ele>
        <time>2021-09-07T15:31:09Z</time>
      </trkpt>
      <trkpt lat="44.39427" lon="5.62269">
        <ele>1130.2</ele>
        <time>2021-09-07T15:31:10Z</time>
      </trkpt>
      <trkpt lat="44.39424" lon="5.62269">
        <ele>1130.5</ele>
        <time>2021-09-07T15:31:11Z</time>
      </trkpt>
      <trkpt lat="44.39421" lon="5.6227">
        <ele>1130.8</ele>
        <time>2021-09-07T15:31:12Z</time>
      </trkpt>
      <trkpt lat="44.39419" lon="5.6227">
        <ele>1131</ele>
        <time>2021-09-07T15:31:13Z</time>
      </trkpt>
      <trkpt lat="44.39417" lon="5.6227">
        <ele>1131.2</ele>
        <time>2021-09-07T15:31:14Z</time>
      </trkpt>
      <trkpt lat="44.39415" lon="5.6227">
        <ele>1131.4</ele>
        <time>2021-09-07T15:31:15Z</time>
      </trkpt>
      <trkpt lat="44.39413" lon="5.62271">
        <ele>1131.6</ele>
        <time>2021-09-07T15:31:16Z</time>
      </trkpt>
      <trkpt lat="44.39411" lon="5.62271">
        <ele>1131.8</ele>
        <time>2021-09-07T15:31:17Z</time>
      </trkpt>
      <trkpt lat="44.39407" lon="5.62272">
        <ele>1132.2</ele>
        <time>2021-09-07T15:31:18Z</time>
      </trkpt>
      <trkpt lat="44.39406" lon="5.62273">
        <ele>1132.3</ele>
        <time>2021-09-07T15:31:19Z</time>
      </trkpt>
      <trkpt lat="44.39404" lon="5.62273">
        <ele>1132.4</ele>
        <time>2021-09-07T15:31:20Z</time>
      </trkpt>
      <trkpt lat="44.394" lon="5.62274">
        <ele>1132.8</ele>
        <time>2021-09-07T15:31:21Z</time>
      </trkpt>
      <trkpt lat="44.39398" lon="5.62274">
        <ele>1133</ele>
        <time>2021-09-07T15:31:22Z</time>
      </trkpt>
      <trkpt lat="44.39395" lon="5.62273">
        <ele>1133.2</ele>
        <time>2021-09-07T15:31:23Z</time>
      </trkpt>
      <trkpt lat="44.39393" lon="5.62273">
        <ele>1133.4</ele>
        <time>2021-09-07T15:31:24Z</time>
      </trkpt>
      <trkpt lat="44.39391" lon="5.62273">
        <ele>1133.6</ele>
        <time>2021-09-07T15:31:25Z</time>
      </trkpt>
      <trkpt lat="44.3939" lon="5.62273">
        <ele>1133.7</ele>
        <time>2021-09-07T15:31:26Z</time>
      </trkpt>
      <trkpt lat="44.39388" lon="5.62272">
        <ele>1133.9</ele>
        <time>2021-09-07T15:31:27Z</time>
      </trkpt>
      <trkpt lat="44.39386" lon="5.62272">
        <ele>1134</ele>
        <time>2021-09-07T15:31:28Z</time>
      </trkpt>
      <trkpt lat="44.39385" lon="5.62272">
        <ele>1134.1</ele>
        <time>2021-09-07T15:31:29Z</time>
      </trkpt>
      <trkpt lat="44.39383" lon="5.62273">
        <ele>1134.3</ele>
        <time>2021-09-07T15:31:30Z</time>
      </trkpt>
      <trkpt lat="44.39382" lon="5.62273">
        <ele>1134.4</ele>
        <time>2021-09-07T15:31:31Z</time>
      </trkpt>
      <trkpt lat="44.3938" lon="5.62273">
        <ele>1134.5</ele>
        <time>2021-09-07T15:31:32Z</time>
      </trkpt>
      <trkpt lat="44.39378" lon="5.62273">
        <ele>1134.7</ele>
        <time>2021-09-07T15:31:33Z</time>
      </trkpt>
      <trkpt lat="44.39378" lon="5.62273">
        <ele>1134.7</ele>
        <time>2021-09-07T15:31:34Z</time>
      </trkpt>
      <trkpt lat="44.39377" lon="5.62273">
        <ele>1134.8</ele>
        <time>2021-09-07T15:31:35Z</time>
      </trkpt>
      <trkpt lat="44.39375" lon="5.62275">
        <ele>1135</ele>
        <time>2021-09-07T15:31:36Z</time>
      </trkpt>
      <trkpt lat="44.39374" lon="5.62276">
        <ele>1135.1</ele>
        <time>2021-09-07T15:31:37Z</time>
      </trkpt>
      <trkpt lat="44.39374" lon="5.62277">
        <ele>1135.1</ele>
        <time>2021-09-07T15:31:38Z</time>
      </trkpt>
      <trkpt lat="44.39373" lon="5.62277">
        <ele>1135.2</ele>
        <time>2021-09-07T15:31:39Z</time>
      </trkpt>
      <trkpt lat="44.39373" lon="5.62277">
        <ele>1135.2</ele>
        <time>2021-09-07T15:31:40Z</time>
      </trkpt>
      <trkpt lat="44.39373" lon="5.62277">
        <ele>1135.2</ele>
        <time>2021-09-07T15:31:41Z</time>
      </trkpt>
      <trkpt lat="44.39373" lon="5.62277">
        <ele>1135.2</ele>
        <time>2021-09-07T15:31:42Z</time>
      </trkpt>
      <trkpt lat="44.39371" lon="5.62279">
        <ele>1135.3</ele>
        <time>2021-09-07T15:31:43Z</time>
      </trkpt>
      <trkpt lat="44.39371" lon="5.6228">
        <ele>1135.4</ele>
        <time>2021-09-07T15:31:44Z</time>
      </trkpt>
      <trkpt lat="44.3937" lon="5.6228">
        <ele>1135.4</ele>
        <time>2021-09-07T15:31:45Z</time>
      </trkpt>
      <trkpt lat="44.3937" lon="5.6228">
        <ele>1135.4</ele>
        <time>2021-09-07T15:31:46Z</time>
      </trkpt>
      <trkpt lat="44.3937" lon="5.6228">
        <ele>1135.4</ele>
        <time>2021-09-07T15:31:47Z</time>
      </trkpt>
      <trkpt lat="44.3937" lon="5.62281">
        <ele>1135.5</ele>
        <time>2021-09-07T15:31:48Z</time>
      </trkpt>
      <trkpt lat="44.39369" lon="5.62281">
        <ele>1135.5</ele>
        <time>2021-09-07T15:31:49Z</time>
      </trkpt>
      <trkpt lat="44.39369" lon="5.62281">
        <ele>1135.5</ele>
        <time>2021-09-07T15:31:50Z</time>
      </trkpt>
      <trkpt lat="44.39368" lon="5.62282">
        <ele>1135.6</ele>
        <time>2021-09-07T15:31:51Z</time>
      </trkpt>
      <trkpt lat="44.39367" lon="5.62282">
        <ele>1135.7</ele>
        <time>2021-09-07T15:31:52Z</time>
      </trkpt>
      <trkpt lat="44.39366" lon="5.62282">
        <ele>1135.7</ele>
        <time>2021-09-07T15:31:53Z</time>
      </trkpt>
      <trkpt lat="44.39365" lon="5.62283">
        <ele>1135.8</ele>
        <time>2021-09-07T15:31:54Z</time>
      </trkpt>
      <trkpt lat="44.39364" lon="5.62283">
        <ele>1135.9</ele>
        <time>2021-09-07T15:31:55Z</time>
      </trkpt>
      <trkpt lat="44.39362" lon="5.62283">
        <ele>1136</ele>
        <time>2021-09-07T15:31:56Z</time>
      </trkpt>
      <trkpt lat="44.3936" lon="5.62285">
        <ele>1136.2</ele>
        <time>2021-09-07T15:31:57Z</time>
      </trkpt>
      <trkpt lat="44.39358" lon="5.62286">
        <ele>1136.3</ele>
        <time>2021-09-07T15:31:58Z</time>
      </trkpt>
      <trkpt lat="44.39355" lon="5.62289">
        <ele>1136.5</ele>
        <time>2021-09-07T15:31:59Z</time>
      </trkpt>
      <trkpt lat="44.39353" lon="5.62292">
        <ele>1136.7</ele>
        <time>2021-09-07T15:32:00Z</time>
      </trkpt>
      <trkpt lat="44.39351" lon="5.62294">
        <ele>1136.9</ele>
        <time>2021-09-07T15:32:01Z</time>
      </trkpt>
      <trkpt lat="44.3935" lon="5.62297">
        <ele>1137</ele>
        <time>2021-09-07T15:32:02Z</time>
      </trkpt>
      <trkpt lat="44.39348" lon="5.62299">
        <ele>1137.2</ele>
        <time>2021-09-07T15:32:03Z</time>
      </trkpt>
      <trkpt lat="44.39347" lon="5.62302">
        <ele>1137.3</ele>
        <time>2021-09-07T15:32:04Z</time>
      </trkpt>
      <trkpt lat="44.39347" lon="5.62303">
        <ele>1137.3</ele>
        <time>2021-09-07T15:32:05Z</time>
      </trkpt>
      <trkpt lat="44.39347" lon="5.62303">
        <ele>1137.4</ele>
        <time>2021-09-07T15:32:06Z</time>
      </trkpt>
      <trkpt lat="44.39348" lon="5.62305">
        <ele>1137.5</ele>
        <time>2021-09-07T15:32:07Z</time>
      </trkpt>
      <trkpt lat="44.39348" lon="5.62306">
        <ele>1137.5</ele>
        <time>2021-09-07T15:32:08Z</time>
      </trkpt>
      <trkpt lat="44.39348" lon="5.62306">
        <ele>1137.5</ele>
        <time>2021-09-07T15:32:09Z</time>
      </trkpt>
      <trkpt lat="44.39349" lon="5.62307">
        <ele>1137.6</ele>
        <time>2021-09-07T15:32:10Z</time>
      </trkpt>
      <trkpt lat="44.39349" lon="5.62307">
        <ele>1137.6</ele>
        <time>2021-09-07T15:32:11Z</time>
      </trkpt>
      <trkpt lat="44.39349" lon="5.62307">
        <ele>1137.6</ele>
        <time>2021-09-07T15:32:12Z</time>
      </trkpt>
      <trkpt lat="44.39349" lon="5.62307">
        <ele>1137.6</ele>
        <time>2021-09-07T15:32:13Z</time>
      </trkpt>
      <trkpt lat="44.39349" lon="5.62307">
        <ele>1137.6</ele>
        <time>2021-09-07T15:32:14Z</time>
      </trkpt>
      <trkpt lat="44.39349" lon="5.62308">
        <ele>1137.7</ele>
        <time>2021-09-07T15:32:15Z</time>
      </trkpt>
      <trkpt lat="44.39349" lon="5.62309">
        <ele>1137.7</ele>
        <time>2021-09-07T15:32:16Z</time>
      </trkpt>
      <trkpt lat="44.39349" lon="5.62311">
        <ele>1137.8</ele>
        <time>2021-09-07T15:32:17Z</time>
      </trkpt>
      <trkpt lat="44.39349" lon="5.62312">
        <ele>1137.9</ele>
        <time>2021-09-07T15:32:18Z</time>
      </trkpt>
      <trkpt lat="44.3935" lon="5.62314">
        <ele>1138</ele>
        <time>2021-09-07T15:32:19Z</time>
      </trkpt>
      <trkpt lat="44.3935" lon="5.62316">
        <ele>1138.1</ele>
        <time>2021-09-07T15:32:20Z</time>
      </trkpt>
      <trkpt lat="44.3935" lon="5.62318">
        <ele>1138.2</ele>
        <time>2021-09-07T15:32:21Z</time>
      </trkpt>
      <trkpt lat="44.3935" lon="5.6232">
        <ele>1138.3</ele>
        <time>2021-09-07T15:32:22Z</time>
      </trkpt>
      <trkpt lat="44.39349" lon="5.62323">
        <ele>1138.4</ele>
        <time>2021-09-07T15:32:23Z</time>
      </trkpt>
      <trkpt lat="44.39349" lon="5.62326">
        <ele>1138.6</ele>
        <time>2021-09-07T15:32:24Z</time>
      </trkpt>
      <trkpt lat="44.39349" lon="5.62328">
        <ele>1138.7</ele>
        <time>2021-09-07T15:32:25Z</time>
      </trkpt>
      <trkpt lat="44.39348" lon="5.62332">
        <ele>1138.9</ele>
        <time>2021-09-07T15:32:26Z</time>
      </trkpt>
      <trkpt lat="44.39347" lon="5.62334">
        <ele>1139</ele>
        <time>2021-09-07T15:32:27Z</time>
      </trkpt>
      <trkpt lat="44.39345" lon="5.62337">
        <ele>1139.2</ele>
        <time>2021-09-07T15:32:28Z</time>
      </trkpt>
      <trkpt lat="44.39343" lon="5.62339">
        <ele>1139.3</ele>
        <time>2021-09-07T15:32:29Z</time>
      </trkpt>
      <trkpt lat="44.3934" lon="5.62343">
        <ele>1139.6</ele>
        <time>2021-09-07T15:32:30Z</time>
      </trkpt>
      <trkpt lat="44.3934" lon="5.62345">
        <ele>1139.7</ele>
        <time>2021-09-07T15:32:31Z</time>
      </trkpt>
      <trkpt lat="44.39339" lon="5.62346">
        <ele>1139.8</ele>
        <time>2021-09-07T15:32:32Z</time>
      </trkpt>
      <trkpt lat="44.39338" lon="5.6235">
        <ele>1140.1</ele>
        <time>2021-09-07T15:32:33Z</time>
      </trkpt>
      <trkpt lat="44.39338" lon="5.62352">
        <ele>1140.2</ele>
        <time>2021-09-07T15:32:34Z</time>
      </trkpt>
      <trkpt lat="44.39338" lon="5.62354">
        <ele>1140.3</ele>
        <time>2021-09-07T15:32:35Z</time>
      </trkpt>
      <trkpt lat="44.39338" lon="5.62356">
        <ele>1140.4</ele>
        <time>2021-09-07T15:32:36Z</time>
      </trkpt>
      <trkpt lat="44.39338" lon="5.62358">
        <ele>1140.5</ele>
        <time>2021-09-07T15:32:37Z</time>
      </trkpt>
      <trkpt lat="44.39338" lon="5.62359">
        <ele>1140.6</ele>
        <time>2021-09-07T15:32:38Z</time>
      </trkpt>
      <trkpt lat="44.39338" lon="5.62361">
        <ele>1140.7</ele>
        <time>2021-09-07T15:32:39Z</time>
      </trkpt>
      <trkpt lat="44.39339" lon="5.62363">
        <ele>1140.8</ele>
        <time>2021-09-07T15:32:40Z</time>
      </trkpt>
      <trkpt lat="44.39339" lon="5.62364">
        <ele>1140.9</ele>
        <time>2021-09-07T15:32:41Z</time>
      </trkpt>
      <trkpt lat="44.39339" lon="5.62367">
        <ele>1141</ele>
        <time>2021-09-07T15:32:42Z</time>
      </trkpt>
      <trkpt lat="44.39339" lon="5.62369">
        <ele>1141.2</ele>
        <time>2021-09-07T15:32:43Z</time>
      </trkpt>
      <trkpt lat="44.39339" lon="5.62372">
        <ele>1141.3</ele>
        <time>2021-09-07T15:32:44Z</time>
      </trkpt>
      <trkpt lat="44.39338" lon="5.62375">
        <ele>1141.5</ele>
        <time>2021-09-07T15:32:45Z</time>
      </trkpt>
      <trkpt lat="44.39338" lon="5.62377">
        <ele>1141.6</ele>
        <time>2021-09-07T15:32:46Z</time>
      </trkpt>
      <trkpt lat="44.39338" lon="5.62378">
        <ele>1141.6</ele>
        <time>2021-09-07T15:32:47Z</time>
      </trkpt>
      <trkpt lat="44.39338" lon="5.62382">
        <ele>1141.8</ele>
        <time>2021-09-07T15:32:48Z</time>
      </trkpt>
      <trkpt lat="44.39339" lon="5.62384">
        <ele>1141.9</ele>
        <time>2021-09-07T15:32:49Z</time>
      </trkpt>
      <trkpt lat="44.39339" lon="5.62385">
        <ele>1142</ele>
        <time>2021-09-07T15:32:50Z</time>
      </trkpt>
      <trkpt lat="44.3934" lon="5.62388">
        <ele>1142.1</ele>
        <time>2021-09-07T15:32:51Z</time>
      </trkpt>
      <trkpt lat="44.3934" lon="5.6239">
        <ele>1142.2</ele>
        <time>2021-09-07T15:32:52Z</time>
      </trkpt>
      <trkpt lat="44.3934" lon="5.6239">
        <ele>1142.2</ele>
        <time>2021-09-07T15:32:53Z</time>
      </trkpt>
      <trkpt lat="44.3934" lon="5.6239">
        <ele>1142.2</ele>
        <time>2021-09-07T15:32:54Z</time>
      </trkpt>
      <trkpt lat="44.3934" lon="5.62391">
        <ele>1142.3</ele>
        <time>2021-09-07T15:32:55Z</time>
      </trkpt>
      <trkpt lat="44.3934" lon="5.62391">
        <ele>1142.3</ele>
        <time>2021-09-07T15:32:56Z</time>
      </trkpt>
      <trkpt lat="44.3934" lon="5.62391">
        <ele>1142.3</ele>
        <time>2021-09-07T15:32:57Z</time>
      </trkpt>
      <trkpt lat="44.3934" lon="5.62391">
        <ele>1142.3</ele>
        <time>2021-09-07T15:32:58Z</time>
      </trkpt>
      <trkpt lat="44.3934" lon="5.62392">
        <ele>1142.3</ele>
        <time>2021-09-07T15:32:59Z</time>
      </trkpt>
      <trkpt lat="44.3934" lon="5.62394">
        <ele>1142.4</ele>
        <time>2021-09-07T15:33:00Z</time>
      </trkpt>
      <trkpt lat="44.3934" lon="5.62395">
        <ele>1142.4</ele>
        <time>2021-09-07T15:33:01Z</time>
      </trkpt>
      <trkpt lat="44.3934" lon="5.62396">
        <ele>1142.5</ele>
        <time>2021-09-07T15:33:02Z</time>
      </trkpt>
      <trkpt lat="44.3934" lon="5.62398">
        <ele>1142.5</ele>
        <time>2021-09-07T15:33:03Z</time>
      </trkpt>
      <trkpt lat="44.39339" lon="5.624">
        <ele>1142.6</ele>
        <time>2021-09-07T15:33:04Z</time>
      </trkpt>
      <trkpt lat="44.39339" lon="5.62401">
        <ele>1142.6</ele>
        <time>2021-09-07T15:33:05Z</time>
      </trkpt>
      <trkpt lat="44.39339" lon="5.62402">
        <ele>1142.7</ele>
        <time>2021-09-07T15:33:06Z</time>
      </trkpt>
      <trkpt lat="44.39339" lon="5.62404">
        <ele>1142.7</ele>
        <time>2021-09-07T15:33:07Z</time>
      </trkpt>
      <trkpt lat="44.39339" lon="5.62409">
        <ele>1142.9</ele>
        <time>2021-09-07T15:33:08Z</time>
      </trkpt>
      <trkpt lat="44.39339" lon="5.62414">
        <ele>1143.1</ele>
        <time>2021-09-07T15:33:09Z</time>
      </trkpt>
      <trkpt lat="44.39339" lon="5.62417">
        <ele>1143.2</ele>
        <time>2021-09-07T15:33:10Z</time>
      </trkpt>
      <trkpt lat="44.39339" lon="5.62419">
        <ele>1143.2</ele>
        <time>2021-09-07T15:33:11Z</time>
      </trkpt>
      <trkpt lat="44.39338" lon="5.62423">
        <ele>1143.4</ele>
        <time>2021-09-07T15:33:12Z</time>
      </trkpt>
      <trkpt lat="44.39336" lon="5.62428">
        <ele>1143.6</ele>
        <time>2021-09-07T15:33:13Z</time>
      </trkpt>
      <trkpt lat="44.39335" lon="5.62431">
        <ele>1143.7</ele>
        <time>2021-09-07T15:33:14Z</time>
      </trkpt>
      <trkpt lat="44.39333" lon="5.62434">
        <ele>1143.8</ele>
        <time>2021-09-07T15:33:15Z</time>
      </trkpt>
      <trkpt lat="44.39331" lon="5.62438">
        <ele>1144</ele>
        <time>2021-09-07T15:33:16Z</time>
      </trkpt>
      <trkpt lat="44.39328" lon="5.62441">
        <ele>1144.1</ele>
        <time>2021-09-07T15:33:17Z</time>
      </trkpt>
      <trkpt lat="44.39326" lon="5.62444">
        <ele>1144.3</ele>
        <time>2021-09-07T15:33:18Z</time>
      </trkpt>
      <trkpt lat="44.39323" lon="5.62447">
        <ele>1144.5</ele>
        <time>2021-09-07T15:33:19Z</time>
      </trkpt>
      <trkpt lat="44.39321" lon="5.62451">
        <ele>1144.6</ele>
        <time>2021-09-07T15:33:20Z</time>
      </trkpt>
      <trkpt lat="44.39318" lon="5.62455">
        <ele>1144.8</ele>
        <time>2021-09-07T15:33:21Z</time>
      </trkpt>
      <trkpt lat="44.39317" lon="5.62459">
        <ele>1145</ele>
        <time>2021-09-07T15:33:22Z</time>
      </trkpt>
      <trkpt lat="44.39315" lon="5.62462">
        <ele>1145.2</ele>
        <time>2021-09-07T15:33:23Z</time>
      </trkpt>
      <trkpt lat="44.39314" lon="5.62466">
        <ele>1145.3</ele>
        <time>2021-09-07T15:33:24Z</time>
      </trkpt>
      <trkpt lat="44.39312" lon="5.62469">
        <ele>1145.5</ele>
        <time>2021-09-07T15:33:25Z</time>
      </trkpt>
      <trkpt lat="44.39309" lon="5.62474">
        <ele>1145.7</ele>
        <time>2021-09-07T15:33:26Z</time>
      </trkpt>
      <trkpt lat="44.39308" lon="5.62477">
        <ele>1145.9</ele>
        <time>2021-09-07T15:33:27Z</time>
      </trkpt>
      <trkpt lat="44.39307" lon="5.6248">
        <ele>1146</ele>
        <time>2021-09-07T15:33:28Z</time>
      </trkpt>
      <trkpt lat="44.39303" lon="5.62485">
        <ele>1146.2</ele>
        <time>2021-09-07T15:33:29Z</time>
      </trkpt>
      <trkpt lat="44.393" lon="5.62489">
        <ele>1146.4</ele>
        <time>2021-09-07T15:33:30Z</time>
      </trkpt>
      <trkpt lat="44.39297" lon="5.62493">
        <ele>1146.5</ele>
        <time>2021-09-07T15:33:31Z</time>
      </trkpt>
      <trkpt lat="44.39294" lon="5.62496">
        <ele>1146.6</ele>
        <time>2021-09-07T15:33:32Z</time>
      </trkpt>
      <trkpt lat="44.39292" lon="5.62499">
        <ele>1146.7</ele>
        <time>2021-09-07T15:33:33Z</time>
      </trkpt>
      <trkpt lat="44.39289" lon="5.62503">
        <ele>1146.9</ele>
        <time>2021-09-07T15:33:34Z</time>
      </trkpt>
      <trkpt lat="44.39287" lon="5.62507">
        <ele>1146.9</ele>
        <time>2021-09-07T15:33:35Z</time>
      </trkpt>
      <trkpt lat="44.39285" lon="5.6251">
        <ele>1147</ele>
        <time>2021-09-07T15:33:36Z</time>
      </trkpt>
      <trkpt lat="44.39283" lon="5.62514">
        <ele>1147.1</ele>
        <time>2021-09-07T15:33:37Z</time>
      </trkpt>
      <trkpt lat="44.39281" lon="5.62517">
        <ele>1147.2</ele>
        <time>2021-09-07T15:33:38Z</time>
      </trkpt>
      <trkpt lat="44.39278" lon="5.62522">
        <ele>1147.3</ele>
        <time>2021-09-07T15:33:39Z</time>
      </trkpt>
      <trkpt lat="44.39277" lon="5.62526">
        <ele>1147.3</ele>
        <time>2021-09-07T15:33:40Z</time>
      </trkpt>
      <trkpt lat="44.39276" lon="5.62529">
        <ele>1147.4</ele>
        <time>2021-09-07T15:33:41Z</time>
      </trkpt>
      <trkpt lat="44.39274" lon="5.62533">
        <ele>1147.4</ele>
        <time>2021-09-07T15:33:42Z</time>
      </trkpt>
      <trkpt lat="44.39274" lon="5.62537">
        <ele>1147.4</ele>
        <time>2021-09-07T15:33:43Z</time>
      </trkpt>
      <trkpt lat="44.39273" lon="5.6254">
        <ele>1147.5</ele>
        <time>2021-09-07T15:33:44Z</time>
      </trkpt>
      <trkpt lat="44.39273" lon="5.62543">
        <ele>1147.5</ele>
        <time>2021-09-07T15:33:45Z</time>
      </trkpt>
      <trkpt lat="44.39274" lon="5.62548">
        <ele>1147.5</ele>
        <time>2021-09-07T15:33:46Z</time>
      </trkpt>
      <trkpt lat="44.39274" lon="5.62551">
        <ele>1147.6</ele>
        <time>2021-09-07T15:33:47Z</time>
      </trkpt>
      <trkpt lat="44.39274" lon="5.62554">
        <ele>1147.6</ele>
        <time>2021-09-07T15:33:48Z</time>
      </trkpt>
      <trkpt lat="44.39273" lon="5.6256">
        <ele>1147.6</ele>
        <time>2021-09-07T15:33:49Z</time>
      </trkpt>
      <trkpt lat="44.39274" lon="5.62564">
        <ele>1147.7</ele>
        <time>2021-09-07T15:33:50Z</time>
      </trkpt>
      <trkpt lat="44.39275" lon="5.62568">
        <ele>1147.7</ele>
        <time>2021-09-07T15:33:51Z</time>
      </trkpt>
      <trkpt lat="44.39275" lon="5.62571">
        <ele>1147.7</ele>
        <time>2021-09-07T15:33:52Z</time>
      </trkpt>
      <trkpt lat="44.39277" lon="5.62576">
        <ele>1147.8</ele>
        <time>2021-09-07T15:33:53Z</time>
      </trkpt>
      <trkpt lat="44.39278" lon="5.6258">
        <ele>1147.8</ele>
        <time>2021-09-07T15:33:54Z</time>
      </trkpt>
      <trkpt lat="44.39279" lon="5.62583">
        <ele>1147.8</ele>
        <time>2021-09-07T15:33:55Z</time>
      </trkpt>
      <trkpt lat="44.3928" lon="5.62587">
        <ele>1147.8</ele>
        <time>2021-09-07T15:33:56Z</time>
      </trkpt>
      <trkpt lat="44.39281" lon="5.6259">
        <ele>1147.8</ele>
        <time>2021-09-07T15:33:57Z</time>
      </trkpt>
      <trkpt lat="44.39282" lon="5.62594">
        <ele>1147.9</ele>
        <time>2021-09-07T15:33:58Z</time>
      </trkpt>
      <trkpt lat="44.39282" lon="5.62597">
        <ele>1147.9</ele>
        <time>2021-09-07T15:33:59Z</time>
      </trkpt>
      <trkpt lat="44.39283" lon="5.62601">
        <ele>1147.9</ele>
        <time>2021-09-07T15:34:00Z</time>
      </trkpt>
      <trkpt lat="44.39283" lon="5.62604">
        <ele>1147.9</ele>
        <time>2021-09-07T15:34:01Z</time>
      </trkpt>
      <trkpt lat="44.39285" lon="5.62609">
        <ele>1147.9</ele>
        <time>2021-09-07T15:34:02Z</time>
      </trkpt>
      <trkpt lat="44.39286" lon="5.62613">
        <ele>1148</ele>
        <time>2021-09-07T15:34:03Z</time>
      </trkpt>
      <trkpt lat="44.39287" lon="5.62616">
        <ele>1148</ele>
        <time>2021-09-07T15:34:04Z</time>
      </trkpt>
      <trkpt lat="44.39288" lon="5.62619">
        <ele>1148</ele>
        <time>2021-09-07T15:34:05Z</time>
      </trkpt>
      <trkpt lat="44.3929" lon="5.62624">
        <ele>1148</ele>
        <time>2021-09-07T15:34:06Z</time>
      </trkpt>
      <trkpt lat="44.39292" lon="5.62628">
        <ele>1148.1</ele>
        <time>2021-09-07T15:34:07Z</time>
      </trkpt>
      <trkpt lat="44.39294" lon="5.62632">
        <ele>1148.1</ele>
        <time>2021-09-07T15:34:08Z</time>
      </trkpt>
      <trkpt lat="44.39296" lon="5.62636">
        <ele>1148.1</ele>
        <time>2021-09-07T15:34:09Z</time>
      </trkpt>
      <trkpt lat="44.39299" lon="5.62641">
        <ele>1148.2</ele>
        <time>2021-09-07T15:34:10Z</time>
      </trkpt>
      <trkpt lat="44.39301" lon="5.62646">
        <ele>1148.2</ele>
        <time>2021-09-07T15:34:11Z</time>
      </trkpt>
      <trkpt lat="44.39304" lon="5.62651">
        <ele>1148.3</ele>
        <time>2021-09-07T15:34:12Z</time>
      </trkpt>
      <trkpt lat="44.39307" lon="5.62655">
        <ele>1148.4</ele>
        <time>2021-09-07T15:34:13Z</time>
      </trkpt>
      <trkpt lat="44.3931" lon="5.62659">
        <ele>1148.4</ele>
        <time>2021-09-07T15:34:14Z</time>
      </trkpt>
      <trkpt lat="44.39312" lon="5.62662">
        <ele>1148.5</ele>
        <time>2021-09-07T15:34:15Z</time>
      </trkpt>
      <trkpt lat="44.39315" lon="5.62667">
        <ele>1148.6</ele>
        <time>2021-09-07T15:34:16Z</time>
      </trkpt>
      <trkpt lat="44.39317" lon="5.62671">
        <ele>1148.7</ele>
        <time>2021-09-07T15:34:17Z</time>
      </trkpt>
      <trkpt lat="44.39319" lon="5.62675">
        <ele>1148.8</ele>
        <time>2021-09-07T15:34:18Z</time>
      </trkpt>
      <trkpt lat="44.39321" lon="5.62678">
        <ele>1148.9</ele>
        <time>2021-09-07T15:34:19Z</time>
      </trkpt>
      <trkpt lat="44.39323" lon="5.62681">
        <ele>1149</ele>
        <time>2021-09-07T15:34:20Z</time>
      </trkpt>
      <trkpt lat="44.39326" lon="5.62687">
        <ele>1149.2</ele>
        <time>2021-09-07T15:34:21Z</time>
      </trkpt>
      <trkpt lat="44.39328" lon="5.62691">
        <ele>1149.3</ele>
        <time>2021-09-07T15:34:22Z</time>
      </trkpt>
      <trkpt lat="44.3933" lon="5.62695">
        <ele>1149.4</ele>
        <time>2021-09-07T15:34:23Z</time>
      </trkpt>
      <trkpt lat="44.39332" lon="5.62698">
        <ele>1149.5</ele>
        <time>2021-09-07T15:34:24Z</time>
      </trkpt>
      <trkpt lat="44.39333" lon="5.62701">
        <ele>1149.6</ele>
        <time>2021-09-07T15:34:25Z</time>
      </trkpt>
      <trkpt lat="44.39335" lon="5.62705">
        <ele>1149.6</ele>
        <time>2021-09-07T15:34:26Z</time>
      </trkpt>
      <trkpt lat="44.39336" lon="5.62709">
        <ele>1149.7</ele>
        <time>2021-09-07T15:34:27Z</time>
      </trkpt>
      <trkpt lat="44.39337" lon="5.62713">
        <ele>1149.8</ele>
        <time>2021-09-07T15:34:28Z</time>
      </trkpt>
      <trkpt lat="44.39337" lon="5.62716">
        <ele>1149.8</ele>
        <time>2021-09-07T15:34:29Z</time>
      </trkpt>
      <trkpt lat="44.39338" lon="5.62719">
        <ele>1149.8</ele>
        <time>2021-09-07T15:34:30Z</time>
      </trkpt>
      <trkpt lat="44.39338" lon="5.62721">
        <ele>1149.9</ele>
        <time>2021-09-07T15:34:31Z</time>
      </trkpt>
      <trkpt lat="44.39338" lon="5.62727">
        <ele>1150</ele>
        <time>2021-09-07T15:34:32Z</time>
      </trkpt>
      <trkpt lat="44.39338" lon="5.6273">
        <ele>1150.1</ele>
        <time>2021-09-07T15:34:33Z</time>
      </trkpt>
      <trkpt lat="44.39339" lon="5.62734">
        <ele>1150.2</ele>
        <time>2021-09-07T15:34:34Z</time>
      </trkpt>
      <trkpt lat="44.39339" lon="5.62738">
        <ele>1150.2</ele>
        <time>2021-09-07T15:34:35Z</time>
      </trkpt>
      <trkpt lat="44.39339" lon="5.62741">
        <ele>1150.3</ele>
        <time>2021-09-07T15:34:36Z</time>
      </trkpt>
      <trkpt lat="44.39339" lon="5.62745">
        <ele>1150.4</ele>
        <time>2021-09-07T15:34:37Z</time>
      </trkpt>
      <trkpt lat="44.3934" lon="5.62748">
        <ele>1150.5</ele>
        <time>2021-09-07T15:34:38Z</time>
      </trkpt>
      <trkpt lat="44.39341" lon="5.62751">
        <ele>1150.5</ele>
        <time>2021-09-07T15:34:39Z</time>
      </trkpt>
      <trkpt lat="44.39341" lon="5.62756">
        <ele>1150.6</ele>
        <time>2021-09-07T15:34:40Z</time>
      </trkpt>
      <trkpt lat="44.39342" lon="5.62759">
        <ele>1150.7</ele>
        <time>2021-09-07T15:34:41Z</time>
      </trkpt>
      <trkpt lat="44.39343" lon="5.62762">
        <ele>1150.8</ele>
        <time>2021-09-07T15:34:42Z</time>
      </trkpt>
      <trkpt lat="44.39343" lon="5.62764">
        <ele>1150.8</ele>
        <time>2021-09-07T15:34:43Z</time>
      </trkpt>
      <trkpt lat="44.39344" lon="5.6277">
        <ele>1150.9</ele>
        <time>2021-09-07T15:34:44Z</time>
      </trkpt>
      <trkpt lat="44.39345" lon="5.62773">
        <ele>1151</ele>
        <time>2021-09-07T15:34:45Z</time>
      </trkpt>
      <trkpt lat="44.39345" lon="5.62776">
        <ele>1151</ele>
        <time>2021-09-07T15:34:46Z</time>
      </trkpt>
      <trkpt lat="44.39345" lon="5.62781">
        <ele>1151.1</ele>
        <time>2021-09-07T15:34:47Z</time>
      </trkpt>
      <trkpt lat="44.39345" lon="5.62786">
        <ele>1151.2</ele>
        <time>2021-09-07T15:34:48Z</time>
      </trkpt>
      <trkpt lat="44.39345" lon="5.62788">
        <ele>1151.2</ele>
        <time>2021-09-07T15:34:49Z</time>
      </trkpt>
      <trkpt lat="44.39345" lon="5.6279">
        <ele>1151.2</ele>
        <time>2021-09-07T15:34:50Z</time>
      </trkpt>
      <trkpt lat="44.39346" lon="5.62795">
        <ele>1151.3</ele>
        <time>2021-09-07T15:34:51Z</time>
      </trkpt>
      <trkpt lat="44.39347" lon="5.62799">
        <ele>1151.3</ele>
        <time>2021-09-07T15:34:52Z</time>
      </trkpt>
      <trkpt lat="44.39347" lon="5.62802">
        <ele>1151.4</ele>
        <time>2021-09-07T15:34:53Z</time>
      </trkpt>
      <trkpt lat="44.39347" lon="5.62806">
        <ele>1151.5</ele>
        <time>2021-09-07T15:34:54Z</time>
      </trkpt>
      <trkpt lat="44.39347" lon="5.6281">
        <ele>1151.6</ele>
        <time>2021-09-07T15:34:55Z</time>
      </trkpt>
      <trkpt lat="44.39347" lon="5.62815">
        <ele>1151.7</ele>
        <time>2021-09-07T15:34:56Z</time>
      </trkpt>
      <trkpt lat="44.39346" lon="5.62818">
        <ele>1151.8</ele>
        <time>2021-09-07T15:34:57Z</time>
      </trkpt>
      <trkpt lat="44.39346" lon="5.62821">
        <ele>1151.9</ele>
        <time>2021-09-07T15:34:58Z</time>
      </trkpt>
      <trkpt lat="44.39345" lon="5.62823">
        <ele>1152</ele>
        <time>2021-09-07T15:34:59Z</time>
      </trkpt>
      <trkpt lat="44.39345" lon="5.62828">
        <ele>1152.1</ele>
        <time>2021-09-07T15:35:00Z</time>
      </trkpt>
      <trkpt lat="44.39345" lon="5.62831">
        <ele>1152.1</ele>
        <time>2021-09-07T15:35:01Z</time>
      </trkpt>
      <trkpt lat="44.39345" lon="5.62834">
        <ele>1152.2</ele>
        <time>2021-09-07T15:35:02Z</time>
      </trkpt>
      <trkpt lat="44.39345" lon="5.62836">
        <ele>1152.3</ele>
        <time>2021-09-07T15:35:03Z</time>
      </trkpt>
      <trkpt lat="44.39345" lon="5.6284">
        <ele>1152.4</ele>
        <time>2021-09-07T15:35:04Z</time>
      </trkpt>
      <trkpt lat="44.39345" lon="5.62843">
        <ele>1152.5</ele>
        <time>2021-09-07T15:35:05Z</time>
      </trkpt>
      <trkpt lat="44.39345" lon="5.62846">
        <ele>1152.5</ele>
        <time>2021-09-07T15:35:06Z</time>
      </trkpt>
      <trkpt lat="44.39345" lon="5.62848">
        <ele>1152.6</ele>
        <time>2021-09-07T15:35:07Z</time>
      </trkpt>
      <trkpt lat="44.39345" lon="5.62854">
        <ele>1152.8</ele>
        <time>2021-09-07T15:35:08Z</time>
      </trkpt>
      <trkpt lat="44.39346" lon="5.62857">
        <ele>1153</ele>
        <time>2021-09-07T15:35:09Z</time>
      </trkpt>
      <trkpt lat="44.39346" lon="5.6286">
        <ele>1153.1</ele>
        <time>2021-09-07T15:35:10Z</time>
      </trkpt>
      <trkpt lat="44.39346" lon="5.62863">
        <ele>1153.3</ele>
        <time>2021-09-07T15:35:11Z</time>
      </trkpt>
      <trkpt lat="44.39346" lon="5.62867">
        <ele>1153.5</ele>
        <time>2021-09-07T15:35:12Z</time>
      </trkpt>
      <trkpt lat="44.39346" lon="5.62871">
        <ele>1153.6</ele>
        <time>2021-09-07T15:35:13Z</time>
      </trkpt>
      <trkpt lat="44.39345" lon="5.62874">
        <ele>1153.8</ele>
        <time>2021-09-07T15:35:14Z</time>
      </trkpt>
      <trkpt lat="44.39345" lon="5.62878">
        <ele>1154</ele>
        <time>2021-09-07T15:35:15Z</time>
      </trkpt>
      <trkpt lat="44.39345" lon="5.62881">
        <ele>1154.2</ele>
        <time>2021-09-07T15:35:16Z</time>
      </trkpt>
      <trkpt lat="44.39344" lon="5.62886">
        <ele>1154.5</ele>
        <time>2021-09-07T15:35:17Z</time>
      </trkpt>
      <trkpt lat="44.39344" lon="5.62889">
        <ele>1154.6</ele>
        <time>2021-09-07T15:35:18Z</time>
      </trkpt>
      <trkpt lat="44.39344" lon="5.62891">
        <ele>1154.8</ele>
        <time>2021-09-07T15:35:19Z</time>
      </trkpt>
      <trkpt lat="44.39343" lon="5.62897">
        <ele>1155.1</ele>
        <time>2021-09-07T15:35:20Z</time>
      </trkpt>
      <trkpt lat="44.39343" lon="5.62901">
        <ele>1155.2</ele>
        <time>2021-09-07T15:35:21Z</time>
      </trkpt>
      <trkpt lat="44.39342" lon="5.62904">
        <ele>1155.4</ele>
        <time>2021-09-07T15:35:22Z</time>
      </trkpt>
      <trkpt lat="44.39341" lon="5.62909">
        <ele>1155.6</ele>
        <time>2021-09-07T15:35:23Z</time>
      </trkpt>
      <trkpt lat="44.3934" lon="5.62912">
        <ele>1155.7</ele>
        <time>2021-09-07T15:35:24Z</time>
      </trkpt>
      <trkpt lat="44.3934" lon="5.62915">
        <ele>1155.8</ele>
        <time>2021-09-07T15:35:25Z</time>
      </trkpt>
      <trkpt lat="44.39339" lon="5.62917">
        <ele>1155.8</ele>
        <time>2021-09-07T15:35:26Z</time>
      </trkpt>
      <trkpt lat="44.39338" lon="5.62922">
        <ele>1156</ele>
        <time>2021-09-07T15:35:27Z</time>
      </trkpt>
      <trkpt lat="44.39337" lon="5.62926">
        <ele>1156.1</ele>
        <time>2021-09-07T15:35:28Z</time>
      </trkpt>
      <trkpt lat="44.39337" lon="5.62929">
        <ele>1156.2</ele>
        <time>2021-09-07T15:35:29Z</time>
      </trkpt>
      <trkpt lat="44.39337" lon="5.62933">
        <ele>1156.3</ele>
        <time>2021-09-07T15:35:30Z</time>
      </trkpt>
      <trkpt lat="44.39337" lon="5.62936">
        <ele>1156.4</ele>
        <time>2021-09-07T15:35:31Z</time>
      </trkpt>
      <trkpt lat="44.39336" lon="5.62939">
        <ele>1156.4</ele>
        <time>2021-09-07T15:35:32Z</time>
      </trkpt>
      <trkpt lat="44.39336" lon="5.62943">
        <ele>1156.5</ele>
        <time>2021-09-07T15:35:33Z</time>
      </trkpt>
      <trkpt lat="44.39335" lon="5.62947">
        <ele>1156.6</ele>
        <time>2021-09-07T15:35:34Z</time>
      </trkpt>
      <trkpt lat="44.39335" lon="5.6295">
        <ele>1156.6</ele>
        <time>2021-09-07T15:35:35Z</time>
      </trkpt>
      <trkpt lat="44.39335" lon="5.62954">
        <ele>1156.7</ele>
        <time>2021-09-07T15:35:36Z</time>
      </trkpt>
      <trkpt lat="44.39335" lon="5.62957">
        <ele>1156.7</ele>
        <time>2021-09-07T15:35:37Z</time>
      </trkpt>
      <trkpt lat="44.39335" lon="5.62961">
        <ele>1156.8</ele>
        <time>2021-09-07T15:35:38Z</time>
      </trkpt>
      <trkpt lat="44.39335" lon="5.62964">
        <ele>1156.9</ele>
        <time>2021-09-07T15:35:39Z</time>
      </trkpt>
      <trkpt lat="44.39334" lon="5.62967">
        <ele>1156.9</ele>
        <time>2021-09-07T15:35:40Z</time>
      </trkpt>
      <trkpt lat="44.39334" lon="5.62972">
        <ele>1157</ele>
        <time>2021-09-07T15:35:41Z</time>
      </trkpt>
      <trkpt lat="44.39334" lon="5.62975">
        <ele>1157.1</ele>
        <time>2021-09-07T15:35:42Z</time>
      </trkpt>
      <trkpt lat="44.39334" lon="5.62978">
        <ele>1157.1</ele>
        <time>2021-09-07T15:35:43Z</time>
      </trkpt>
      <trkpt lat="44.39333" lon="5.6298">
        <ele>1157.2</ele>
        <time>2021-09-07T15:35:44Z</time>
      </trkpt>
      <trkpt lat="44.39333" lon="5.62986">
        <ele>1157.3</ele>
        <time>2021-09-07T15:35:45Z</time>
      </trkpt>
      <trkpt lat="44.39333" lon="5.62989">
        <ele>1157.3</ele>
        <time>2021-09-07T15:35:46Z</time>
      </trkpt>
      <trkpt lat="44.39333" lon="5.62992">
        <ele>1157.4</ele>
        <time>2021-09-07T15:35:47Z</time>
      </trkpt>
      <trkpt lat="44.39333" lon="5.62995">
        <ele>1157.4</ele>
        <time>2021-09-07T15:35:48Z</time>
      </trkpt>
      <trkpt lat="44.39332" lon="5.62999">
        <ele>1157.5</ele>
        <time>2021-09-07T15:35:49Z</time>
      </trkpt>
      <trkpt lat="44.39332" lon="5.63003">
        <ele>1157.6</ele>
        <time>2021-09-07T15:35:50Z</time>
      </trkpt>
      <trkpt lat="44.39332" lon="5.63006">
        <ele>1157.6</ele>
        <time>2021-09-07T15:35:51Z</time>
      </trkpt>
      <trkpt lat="44.39332" lon="5.63011">
        <ele>1157.7</ele>
        <time>2021-09-07T15:35:52Z</time>
      </trkpt>
      <trkpt lat="44.39332" lon="5.63014">
        <ele>1157.8</ele>
        <time>2021-09-07T15:35:53Z</time>
      </trkpt>
      <trkpt lat="44.39332" lon="5.63019">
        <ele>1157.8</ele>
        <time>2021-09-07T15:35:54Z</time>
      </trkpt>
      <trkpt lat="44.39332" lon="5.63021">
        <ele>1157.9</ele>
        <time>2021-09-07T15:35:55Z</time>
      </trkpt>
      <trkpt lat="44.39332" lon="5.63023">
        <ele>1157.9</ele>
        <time>2021-09-07T15:35:56Z</time>
      </trkpt>
      <trkpt lat="44.39331" lon="5.63028">
        <ele>1157.9</ele>
        <time>2021-09-07T15:35:57Z</time>
      </trkpt>
      <trkpt lat="44.3933" lon="5.63033">
        <ele>1158</ele>
        <time>2021-09-07T15:35:58Z</time>
      </trkpt>
      <trkpt lat="44.3933" lon="5.63037">
        <ele>1158</ele>
        <time>2021-09-07T15:35:59Z</time>
      </trkpt>
      <trkpt lat="44.39329" lon="5.6304">
        <ele>1158.1</ele>
        <time>2021-09-07T15:36:00Z</time>
      </trkpt>
      <trkpt lat="44.39328" lon="5.63044">
        <ele>1158.1</ele>
        <time>2021-09-07T15:36:01Z</time>
      </trkpt>
      <trkpt lat="44.39327" lon="5.63048">
        <ele>1158.2</ele>
        <time>2021-09-07T15:36:02Z</time>
      </trkpt>
      <trkpt lat="44.39326" lon="5.63054">
        <ele>1158.3</ele>
        <time>2021-09-07T15:36:03Z</time>
      </trkpt>
      <trkpt lat="44.39326" lon="5.63057">
        <ele>1158.3</ele>
        <time>2021-09-07T15:36:04Z</time>
      </trkpt>
      <trkpt lat="44.39326" lon="5.6306">
        <ele>1158.4</ele>
        <time>2021-09-07T15:36:05Z</time>
      </trkpt>
      <trkpt lat="44.39325" lon="5.63065">
        <ele>1158.5</ele>
        <time>2021-09-07T15:36:06Z</time>
      </trkpt>
      <trkpt lat="44.39326" lon="5.63068">
        <ele>1158.5</ele>
        <time>2021-09-07T15:36:07Z</time>
      </trkpt>
      <trkpt lat="44.39326" lon="5.6307">
        <ele>1158.5</ele>
        <time>2021-09-07T15:36:08Z</time>
      </trkpt>
      <trkpt lat="44.39325" lon="5.63073">
        <ele>1158.6</ele>
        <time>2021-09-07T15:36:09Z</time>
      </trkpt>
      <trkpt lat="44.39325" lon="5.63078">
        <ele>1158.7</ele>
        <time>2021-09-07T15:36:10Z</time>
      </trkpt>
      <trkpt lat="44.39324" lon="5.63082">
        <ele>1158.7</ele>
        <time>2021-09-07T15:36:11Z</time>
      </trkpt>
      <trkpt lat="44.39324" lon="5.63085">
        <ele>1158.7</ele>
        <time>2021-09-07T15:36:12Z</time>
      </trkpt>
      <trkpt lat="44.39323" lon="5.63087">
        <ele>1158.8</ele>
        <time>2021-09-07T15:36:13Z</time>
      </trkpt>
      <trkpt lat="44.39322" lon="5.6309">
        <ele>1158.8</ele>
        <time>2021-09-07T15:36:14Z</time>
      </trkpt>
      <trkpt lat="44.39321" lon="5.63092">
        <ele>1158.9</ele>
        <time>2021-09-07T15:36:15Z</time>
      </trkpt>
      <trkpt lat="44.3932" lon="5.63097">
        <ele>1159</ele>
        <time>2021-09-07T15:36:16Z</time>
      </trkpt>
      <trkpt lat="44.3932" lon="5.63103">
        <ele>1159.1</ele>
        <time>2021-09-07T15:36:17Z</time>
      </trkpt>
      <trkpt lat="44.39319" lon="5.63107">
        <ele>1159.1</ele>
        <time>2021-09-07T15:36:18Z</time>
      </trkpt>
      <trkpt lat="44.39319" lon="5.6311">
        <ele>1159.2</ele>
        <time>2021-09-07T15:36:19Z</time>
      </trkpt>
      <trkpt lat="44.39319" lon="5.63112">
        <ele>1159.2</ele>
        <time>2021-09-07T15:36:20Z</time>
      </trkpt>
      <trkpt lat="44.39319" lon="5.63117">
        <ele>1159.3</ele>
        <time>2021-09-07T15:36:21Z</time>
      </trkpt>
      <trkpt lat="44.39319" lon="5.63122">
        <ele>1159.4</ele>
        <time>2021-09-07T15:36:22Z</time>
      </trkpt>
      <trkpt lat="44.39319" lon="5.63127">
        <ele>1159.4</ele>
        <time>2021-09-07T15:36:23Z</time>
      </trkpt>
      <trkpt lat="44.39318" lon="5.63131">
        <ele>1159.5</ele>
        <time>2021-09-07T15:36:24Z</time>
      </trkpt>
      <trkpt lat="44.39318" lon="5.63135">
        <ele>1159.5</ele>
        <time>2021-09-07T15:36:25Z</time>
      </trkpt>
      <trkpt lat="44.39317" lon="5.63139">
        <ele>1159.6</ele>
        <time>2021-09-07T15:36:26Z</time>
      </trkpt>
      <trkpt lat="44.39317" lon="5.63144">
        <ele>1159.6</ele>
        <time>2021-09-07T15:36:27Z</time>
      </trkpt>
      <trkpt lat="44.39317" lon="5.63148">
        <ele>1159.7</ele>
        <time>2021-09-07T15:36:28Z</time>
      </trkpt>
      <trkpt lat="44.39317" lon="5.63152">
        <ele>1159.7</ele>
        <time>2021-09-07T15:36:29Z</time>
      </trkpt>
      <trkpt lat="44.39317" lon="5.63155">
        <ele>1159.7</ele>
        <time>2021-09-07T15:36:30Z</time>
      </trkpt>
      <trkpt lat="44.39317" lon="5.63162">
        <ele>1159.8</ele>
        <time>2021-09-07T15:36:31Z</time>
      </trkpt>
      <trkpt lat="44.39317" lon="5.63169">
        <ele>1159.9</ele>
        <time>2021-09-07T15:36:32Z</time>
      </trkpt>
      <trkpt lat="44.39316" lon="5.63174">
        <ele>1160</ele>
        <time>2021-09-07T15:36:33Z</time>
      </trkpt>
      <trkpt lat="44.39316" lon="5.63177">
        <ele>1160</ele>
        <time>2021-09-07T15:36:34Z</time>
      </trkpt>
      <trkpt lat="44.39315" lon="5.63179">
        <ele>1160.1</ele>
        <time>2021-09-07T15:36:35Z</time>
      </trkpt>
      <trkpt lat="44.39314" lon="5.63186">
        <ele>1160.1</ele>
        <time>2021-09-07T15:36:36Z</time>
      </trkpt>
      <trkpt lat="44.39314" lon="5.6319">
        <ele>1160.2</ele>
        <time>2021-09-07T15:36:37Z</time>
      </trkpt>
      <trkpt lat="44.39313" lon="5.63194">
        <ele>1160.2</ele>
        <time>2021-09-07T15:36:38Z</time>
      </trkpt>
      <trkpt lat="44.39313" lon="5.63197">
        <ele>1160.3</ele>
        <time>2021-09-07T15:36:39Z</time>
      </trkpt>
      <trkpt lat="44.39312" lon="5.632">
        <ele>1160.3</ele>
        <time>2021-09-07T15:36:40Z</time>
      </trkpt>
      <trkpt lat="44.39311" lon="5.63205">
        <ele>1160.3</ele>
        <time>2021-09-07T15:36:41Z</time>
      </trkpt>
      <trkpt lat="44.39311" lon="5.63208">
        <ele>1160.4</ele>
        <time>2021-09-07T15:36:42Z</time>
      </trkpt>
      <trkpt lat="44.39311" lon="5.63211">
        <ele>1160.4</ele>
        <time>2021-09-07T15:36:43Z</time>
      </trkpt>
      <trkpt lat="44.39311" lon="5.63213">
        <ele>1160.4</ele>
        <time>2021-09-07T15:36:44Z</time>
      </trkpt>
      <trkpt lat="44.39311" lon="5.63219">
        <ele>1160.4</ele>
        <time>2021-09-07T15:36:45Z</time>
      </trkpt>
      <trkpt lat="44.39311" lon="5.63222">
        <ele>1160.5</ele>
        <time>2021-09-07T15:36:46Z</time>
      </trkpt>
      <trkpt lat="44.3931" lon="5.63225">
        <ele>1160.5</ele>
        <time>2021-09-07T15:36:47Z</time>
      </trkpt>
      <trkpt lat="44.3931" lon="5.63227">
        <ele>1160.5</ele>
        <time>2021-09-07T15:36:48Z</time>
      </trkpt>
      <trkpt lat="44.39309" lon="5.63229">
        <ele>1160.5</ele>
        <time>2021-09-07T15:36:49Z</time>
      </trkpt>
      <trkpt lat="44.39309" lon="5.63231">
        <ele>1160.6</ele>
        <time>2021-09-07T15:36:50Z</time>
      </trkpt>
      <trkpt lat="44.39309" lon="5.63236">
        <ele>1160.6</ele>
        <time>2021-09-07T15:36:51Z</time>
      </trkpt>
      <trkpt lat="44.39308" lon="5.63239">
        <ele>1160.7</ele>
        <time>2021-09-07T15:36:52Z</time>
      </trkpt>
      <trkpt lat="44.39308" lon="5.63242">
        <ele>1160.7</ele>
        <time>2021-09-07T15:36:53Z</time>
      </trkpt>
      <trkpt lat="44.39308" lon="5.63245">
        <ele>1160.8</ele>
        <time>2021-09-07T15:36:54Z</time>
      </trkpt>
      <trkpt lat="44.39307" lon="5.6325">
        <ele>1160.8</ele>
        <time>2021-09-07T15:36:55Z</time>
      </trkpt>
      <trkpt lat="44.39307" lon="5.63253">
        <ele>1160.9</ele>
        <time>2021-09-07T15:36:56Z</time>
      </trkpt>
      <trkpt lat="44.39307" lon="5.63255">
        <ele>1160.9</ele>
        <time>2021-09-07T15:36:57Z</time>
      </trkpt>
      <trkpt lat="44.39307" lon="5.63257">
        <ele>1161</ele>
        <time>2021-09-07T15:36:58Z</time>
      </trkpt>
      <trkpt lat="44.39306" lon="5.63259">
        <ele>1161</ele>
        <time>2021-09-07T15:36:59Z</time>
      </trkpt>
      <trkpt lat="44.39306" lon="5.63263">
        <ele>1161.1</ele>
        <time>2021-09-07T15:37:00Z</time>
      </trkpt>
      <trkpt lat="44.39306" lon="5.63266">
        <ele>1161.1</ele>
        <time>2021-09-07T15:37:01Z</time>
      </trkpt>
      <trkpt lat="44.39306" lon="5.63268">
        <ele>1161.2</ele>
        <time>2021-09-07T15:37:02Z</time>
      </trkpt>
      <trkpt lat="44.39306" lon="5.63271">
        <ele>1161.2</ele>
        <time>2021-09-07T15:37:03Z</time>
      </trkpt>
      <trkpt lat="44.39305" lon="5.63274">
        <ele>1161.3</ele>
        <time>2021-09-07T15:37:04Z</time>
      </trkpt>
      <trkpt lat="44.39304" lon="5.63276">
        <ele>1161.3</ele>
        <time>2021-09-07T15:37:05Z</time>
      </trkpt>
      <trkpt lat="44.39304" lon="5.63279">
        <ele>1161.4</ele>
        <time>2021-09-07T15:37:06Z</time>
      </trkpt>
      <trkpt lat="44.39304" lon="5.63281">
        <ele>1161.4</ele>
        <time>2021-09-07T15:37:07Z</time>
      </trkpt>
      <trkpt lat="44.39303" lon="5.63282">
        <ele>1161.5</ele>
        <time>2021-09-07T15:37:08Z</time>
      </trkpt>
      <trkpt lat="44.39302" lon="5.63287">
        <ele>1161.6</ele>
        <time>2021-09-07T15:37:09Z</time>
      </trkpt>
      <trkpt lat="44.39302" lon="5.63289">
        <ele>1161.7</ele>
        <time>2021-09-07T15:37:10Z</time>
      </trkpt>
      <trkpt lat="44.39302" lon="5.63291">
        <ele>1161.7</ele>
        <time>2021-09-07T15:37:11Z</time>
      </trkpt>
      <trkpt lat="44.39302" lon="5.63292">
        <ele>1161.8</ele>
        <time>2021-09-07T15:37:12Z</time>
      </trkpt>
      <trkpt lat="44.39303" lon="5.63295">
        <ele>1161.9</ele>
        <time>2021-09-07T15:37:13Z</time>
      </trkpt>
      <trkpt lat="44.39304" lon="5.63297">
        <ele>1161.9</ele>
        <time>2021-09-07T15:37:14Z</time>
      </trkpt>
      <trkpt lat="44.39304" lon="5.63298">
        <ele>1162</ele>
        <time>2021-09-07T15:37:15Z</time>
      </trkpt>
      <trkpt lat="44.39305" lon="5.63303">
        <ele>1162.2</ele>
        <time>2021-09-07T15:37:16Z</time>
      </trkpt>
      <trkpt lat="44.39305" lon="5.63305">
        <ele>1162.2</ele>
        <time>2021-09-07T15:37:17Z</time>
      </trkpt>
      <trkpt lat="44.39304" lon="5.63307">
        <ele>1162.3</ele>
        <time>2021-09-07T15:37:18Z</time>
      </trkpt>
      <trkpt lat="44.39304" lon="5.6331">
        <ele>1162.4</ele>
        <time>2021-09-07T15:37:19Z</time>
      </trkpt>
      <trkpt lat="44.39305" lon="5.63312">
        <ele>1162.5</ele>
        <time>2021-09-07T15:37:20Z</time>
      </trkpt>
      <trkpt lat="44.39305" lon="5.63313">
        <ele>1162.5</ele>
        <time>2021-09-07T15:37:21Z</time>
      </trkpt>
      <trkpt lat="44.39306" lon="5.63315">
        <ele>1162.6</ele>
        <time>2021-09-07T15:37:22Z</time>
      </trkpt>
      <trkpt lat="44.39307" lon="5.63317">
        <ele>1162.7</ele>
        <time>2021-09-07T15:37:23Z</time>
      </trkpt>
      <trkpt lat="44.39308" lon="5.63319">
        <ele>1162.8</ele>
        <time>2021-09-07T15:37:24Z</time>
      </trkpt>
      <trkpt lat="44.39308" lon="5.63322">
        <ele>1162.9</ele>
        <time>2021-09-07T15:37:25Z</time>
      </trkpt>
      <trkpt lat="44.39307" lon="5.63324">
        <ele>1163</ele>
        <time>2021-09-07T15:37:26Z</time>
      </trkpt>
      <trkpt lat="44.39307" lon="5.63326">
        <ele>1163.1</ele>
        <time>2021-09-07T15:37:27Z</time>
      </trkpt>
      <trkpt lat="44.39306" lon="5.63327">
        <ele>1163.2</ele>
        <time>2021-09-07T15:37:28Z</time>
      </trkpt>
      <trkpt lat="44.39306" lon="5.63328">
        <ele>1163.2</ele>
        <time>2021-09-07T15:37:29Z</time>
      </trkpt>
      <trkpt lat="44.39306" lon="5.63329">
        <ele>1163.2</ele>
        <time>2021-09-07T15:37:30Z</time>
      </trkpt>
      <trkpt lat="44.39305" lon="5.63329">
        <ele>1163.3</ele>
        <time>2021-09-07T15:37:31Z</time>
      </trkpt>
      <trkpt lat="44.39305" lon="5.6333">
        <ele>1163.3</ele>
        <time>2021-09-07T15:37:32Z</time>
      </trkpt>
      <trkpt lat="44.39304" lon="5.6333">
        <ele>1163.4</ele>
        <time>2021-09-07T15:37:33Z</time>
      </trkpt>
      <trkpt lat="44.39304" lon="5.6333">
        <ele>1163.4</ele>
        <time>2021-09-07T15:37:34Z</time>
      </trkpt>
      <trkpt lat="44.39304" lon="5.6333">
        <ele>1163.4</ele>
        <time>2021-09-07T15:37:35Z</time>
      </trkpt>
      <trkpt lat="44.39304" lon="5.6333">
        <ele>1163.4</ele>
        <time>2021-09-07T15:37:36Z</time>
      </trkpt>
      <trkpt lat="44.39304" lon="5.6333">
        <ele>1163.4</ele>
        <time>2021-09-07T15:37:37Z</time>
      </trkpt>
      <trkpt lat="44.39303" lon="5.6333">
        <ele>1163.4</ele>
        <time>2021-09-07T15:37:38Z</time>
      </trkpt>
      <trkpt lat="44.39303" lon="5.6333">
        <ele>1163.4</ele>
        <time>2021-09-07T15:37:39Z</time>
      </trkpt>
      <trkpt lat="44.39303" lon="5.63331">
        <ele>1163.5</ele>
        <time>2021-09-07T15:37:40Z</time>
      </trkpt>
      <trkpt lat="44.39302" lon="5.63333">
        <ele>1163.6</ele>
        <time>2021-09-07T15:37:41Z</time>
      </trkpt>
      <trkpt lat="44.39301" lon="5.63335">
        <ele>1163.7</ele>
        <time>2021-09-07T15:37:42Z</time>
      </trkpt>
      <trkpt lat="44.39301" lon="5.63337">
        <ele>1163.8</ele>
        <time>2021-09-07T15:37:43Z</time>
      </trkpt>
      <trkpt lat="44.393" lon="5.63339">
        <ele>1164</ele>
        <time>2021-09-07T15:37:44Z</time>
      </trkpt>
      <trkpt lat="44.393" lon="5.63341">
        <ele>1164.1</ele>
        <time>2021-09-07T15:37:45Z</time>
      </trkpt>
      <trkpt lat="44.39299" lon="5.63342">
        <ele>1164.2</ele>
        <time>2021-09-07T15:37:46Z</time>
      </trkpt>
      <trkpt lat="44.39299" lon="5.63342">
        <ele>1164.2</ele>
        <time>2021-09-07T15:37:47Z</time>
      </trkpt>
      <trkpt lat="44.39298" lon="5.63343">
        <ele>1164.3</ele>
        <time>2021-09-07T15:37:48Z</time>
      </trkpt>
      <trkpt lat="44.39298" lon="5.63344">
        <ele>1164.3</ele>
        <time>2021-09-07T15:37:49Z</time>
      </trkpt>
      <trkpt lat="44.39298" lon="5.63344">
        <ele>1164.3</ele>
        <time>2021-09-07T15:37:50Z</time>
      </trkpt>
      <trkpt lat="44.39297" lon="5.63345">
        <ele>1164.4</ele>
        <time>2021-09-07T15:37:51Z</time>
      </trkpt>
      <trkpt lat="44.39297" lon="5.63345">
        <ele>1164.4</ele>
        <time>2021-09-07T15:37:52Z</time>
      </trkpt>
      <trkpt lat="44.39297" lon="5.63346">
        <ele>1164.5</ele>
        <time>2021-09-07T15:37:53Z</time>
      </trkpt>
      <trkpt lat="44.39296" lon="5.63347">
        <ele>1164.5</ele>
        <time>2021-09-07T15:37:54Z</time>
      </trkpt>
      <trkpt lat="44.39295" lon="5.63349">
        <ele>1164.7</ele>
        <time>2021-09-07T15:37:55Z</time>
      </trkpt>
      <trkpt lat="44.39295" lon="5.6335">
        <ele>1164.7</ele>
        <time>2021-09-07T15:37:56Z</time>
      </trkpt>
      <trkpt lat="44.39294" lon="5.63351">
        <ele>1164.8</ele>
        <time>2021-09-07T15:37:57Z</time>
      </trkpt>
      <trkpt lat="44.39294" lon="5.63352">
        <ele>1164.9</ele>
        <time>2021-09-07T15:37:58Z</time>
      </trkpt>
      <trkpt lat="44.39294" lon="5.63352">
        <ele>1164.9</ele>
        <time>2021-09-07T15:37:59Z</time>
      </trkpt>
      <trkpt lat="44.39294" lon="5.63353">
        <ele>1164.9</ele>
        <time>2021-09-07T15:38:00Z</time>
      </trkpt>
      <trkpt lat="44.39293" lon="5.63353">
        <ele>1165</ele>
        <time>2021-09-07T15:38:01Z</time>
      </trkpt>
      <trkpt lat="44.39293" lon="5.63353">
        <ele>1165</ele>
        <time>2021-09-07T15:38:02Z</time>
      </trkpt>
      <trkpt lat="44.39293" lon="5.63354">
        <ele>1165</ele>
        <time>2021-09-07T15:38:03Z</time>
      </trkpt>
      <trkpt lat="44.39293" lon="5.63354">
        <ele>1165</ele>
        <time>2021-09-07T15:38:04Z</time>
      </trkpt>
      <trkpt lat="44.39293" lon="5.63354">
        <ele>1165</ele>
        <time>2021-09-07T15:38:05Z</time>
      </trkpt>
      <trkpt lat="44.39293" lon="5.63354">
        <ele>1165</ele>
        <time>2021-09-07T15:38:06Z</time>
      </trkpt>
      <trkpt lat="44.39293" lon="5.63355">
        <ele>1165</ele>
        <time>2021-09-07T15:38:07Z</time>
      </trkpt>
      <trkpt lat="44.39293" lon="5.63355">
        <ele>1165.1</ele>
        <time>2021-09-07T15:38:08Z</time>
      </trkpt>
      <trkpt lat="44.39292" lon="5.63355">
        <ele>1165.1</ele>
        <time>2021-09-07T15:38:09Z</time>
      </trkpt>
      <trkpt lat="44.39292" lon="5.63355">
        <ele>1165.1</ele>
        <time>2021-09-07T15:38:10Z</time>
      </trkpt>
      <trkpt lat="44.39292" lon="5.63355">
        <ele>1165.1</ele>
        <time>2021-09-07T15:38:11Z</time>
      </trkpt>
      <trkpt lat="44.39292" lon="5.63356">
        <ele>1165.2</ele>
        <time>2021-09-07T15:38:12Z</time>
      </trkpt>
      <trkpt lat="44.39292" lon="5.63356">
        <ele>1165.2</ele>
        <time>2021-09-07T15:38:13Z</time>
      </trkpt>
      <trkpt lat="44.39291" lon="5.63357">
        <ele>1165.3</ele>
        <time>2021-09-07T15:38:14Z</time>
      </trkpt>
      <trkpt lat="44.3929" lon="5.63359">
        <ele>1165.4</ele>
        <time>2021-09-07T15:38:15Z</time>
      </trkpt>
      <trkpt lat="44.39289" lon="5.63361">
        <ele>1165.5</ele>
        <time>2021-09-07T15:38:16Z</time>
      </trkpt>
      <trkpt lat="44.39288" lon="5.63362">
        <ele>1165.6</ele>
        <time>2021-09-07T15:38:17Z</time>
      </trkpt>
      <trkpt lat="44.39288" lon="5.63364">
        <ele>1165.7</ele>
        <time>2021-09-07T15:38:18Z</time>
      </trkpt>
      <trkpt lat="44.39287" lon="5.63365">
        <ele>1165.7</ele>
        <time>2021-09-07T15:38:19Z</time>
      </trkpt>
      <trkpt lat="44.39286" lon="5.63367">
        <ele>1165.9</ele>
        <time>2021-09-07T15:38:20Z</time>
      </trkpt>
      <trkpt lat="44.39285" lon="5.63368">
        <ele>1165.9</ele>
        <time>2021-09-07T15:38:21Z</time>
      </trkpt>
      <trkpt lat="44.39284" lon="5.63369">
        <ele>1166</ele>
        <time>2021-09-07T15:38:22Z</time>
      </trkpt>
      <trkpt lat="44.39283" lon="5.63371">
        <ele>1166.2</ele>
        <time>2021-09-07T15:38:23Z</time>
      </trkpt>
      <trkpt lat="44.39281" lon="5.63373">
        <ele>1166.3</ele>
        <time>2021-09-07T15:38:24Z</time>
      </trkpt>
      <trkpt lat="44.3928" lon="5.63375">
        <ele>1166.4</ele>
        <time>2021-09-07T15:38:25Z</time>
      </trkpt>
      <trkpt lat="44.39279" lon="5.63376">
        <ele>1166.6</ele>
        <time>2021-09-07T15:38:26Z</time>
      </trkpt>
      <trkpt lat="44.39277" lon="5.63379">
        <ele>1166.8</ele>
        <time>2021-09-07T15:38:27Z</time>
      </trkpt>
      <trkpt lat="44.39276" lon="5.63381">
        <ele>1166.9</ele>
        <time>2021-09-07T15:38:28Z</time>
      </trkpt>
      <trkpt lat="44.39275" lon="5.63382">
        <ele>1167</ele>
        <time>2021-09-07T15:38:29Z</time>
      </trkpt>
      <trkpt lat="44.39274" lon="5.63384">
        <ele>1167.2</ele>
        <time>2021-09-07T15:38:30Z</time>
      </trkpt>
      <trkpt lat="44.39274" lon="5.63385">
        <ele>1167.2</ele>
        <time>2021-09-07T15:38:31Z</time>
      </trkpt>
      <trkpt lat="44.39274" lon="5.63386">
        <ele>1167.3</ele>
        <time>2021-09-07T15:38:32Z</time>
      </trkpt>
      <trkpt lat="44.39273" lon="5.63387">
        <ele>1167.4</ele>
        <time>2021-09-07T15:38:33Z</time>
      </trkpt>
      <trkpt lat="44.39273" lon="5.63388">
        <ele>1167.4</ele>
        <time>2021-09-07T15:38:34Z</time>
      </trkpt>
      <trkpt lat="44.39273" lon="5.6339">
        <ele>1167.6</ele>
        <time>2021-09-07T15:38:35Z</time>
      </trkpt>
      <trkpt lat="44.39273" lon="5.63391">
        <ele>1167.6</ele>
        <time>2021-09-07T15:38:36Z</time>
      </trkpt>
      <trkpt lat="44.39273" lon="5.63392">
        <ele>1167.7</ele>
        <time>2021-09-07T15:38:37Z</time>
      </trkpt>
      <trkpt lat="44.39273" lon="5.63393">
        <ele>1167.7</ele>
        <time>2021-09-07T15:38:38Z</time>
      </trkpt>
      <trkpt lat="44.39273" lon="5.63394">
        <ele>1167.8</ele>
        <time>2021-09-07T15:38:39Z</time>
      </trkpt>
      <trkpt lat="44.39274" lon="5.63395">
        <ele>1167.9</ele>
        <time>2021-09-07T15:38:40Z</time>
      </trkpt>
      <trkpt lat="44.39274" lon="5.63396">
        <ele>1167.9</ele>
        <time>2021-09-07T15:38:41Z</time>
      </trkpt>
      <trkpt lat="44.39274" lon="5.63396">
        <ele>1168</ele>
        <time>2021-09-07T15:38:42Z</time>
      </trkpt>
      <trkpt lat="44.39274" lon="5.63396">
        <ele>1168</ele>
        <time>2021-09-07T15:38:43Z</time>
      </trkpt>
      <trkpt lat="44.39274" lon="5.63397">
        <ele>1168</ele>
        <time>2021-09-07T15:38:44Z</time>
      </trkpt>
      <trkpt lat="44.39274" lon="5.63398">
        <ele>1168.1</ele>
        <time>2021-09-07T15:38:45Z</time>
      </trkpt>
      <trkpt lat="44.39274" lon="5.634">
        <ele>1168.2</ele>
        <time>2021-09-07T15:38:46Z</time>
      </trkpt>
      <trkpt lat="44.39273" lon="5.63401">
        <ele>1168.3</ele>
        <time>2021-09-07T15:38:47Z</time>
      </trkpt>
      <trkpt lat="44.39273" lon="5.63403">
        <ele>1168.4</ele>
        <time>2021-09-07T15:38:48Z</time>
      </trkpt>
      <trkpt lat="44.39272" lon="5.63405">
        <ele>1168.6</ele>
        <time>2021-09-07T15:38:49Z</time>
      </trkpt>
      <trkpt lat="44.39271" lon="5.63407">
        <ele>1168.7</ele>
        <time>2021-09-07T15:38:50Z</time>
      </trkpt>
      <trkpt lat="44.39271" lon="5.63408">
        <ele>1168.8</ele>
        <time>2021-09-07T15:38:51Z</time>
      </trkpt>
      <trkpt lat="44.3927" lon="5.63409">
        <ele>1168.9</ele>
        <time>2021-09-07T15:38:52Z</time>
      </trkpt>
      <trkpt lat="44.39269" lon="5.63411">
        <ele>1169</ele>
        <time>2021-09-07T15:38:53Z</time>
      </trkpt>
      <trkpt lat="44.39268" lon="5.63413">
        <ele>1169.2</ele>
        <time>2021-09-07T15:38:54Z</time>
      </trkpt>
      <trkpt lat="44.39268" lon="5.63415">
        <ele>1169.3</ele>
        <time>2021-09-07T15:38:55Z</time>
      </trkpt>
      <trkpt lat="44.39267" lon="5.63416">
        <ele>1169.4</ele>
        <time>2021-09-07T15:38:56Z</time>
      </trkpt>
      <trkpt lat="44.39266" lon="5.63418">
        <ele>1169.5</ele>
        <time>2021-09-07T15:38:57Z</time>
      </trkpt>
      <trkpt lat="44.39265" lon="5.6342">
        <ele>1169.7</ele>
        <time>2021-09-07T15:38:58Z</time>
      </trkpt>
      <trkpt lat="44.39265" lon="5.63421">
        <ele>1169.8</ele>
        <time>2021-09-07T15:38:59Z</time>
      </trkpt>
      <trkpt lat="44.39265" lon="5.63422">
        <ele>1169.8</ele>
        <time>2021-09-07T15:39:00Z</time>
      </trkpt>
      <trkpt lat="44.39264" lon="5.63422">
        <ele>1169.9</ele>
        <time>2021-09-07T15:39:01Z</time>
      </trkpt>
      <trkpt lat="44.39264" lon="5.63423">
        <ele>1170</ele>
        <time>2021-09-07T15:39:02Z</time>
      </trkpt>
      <trkpt lat="44.39264" lon="5.63423">
        <ele>1170</ele>
        <time>2021-09-07T15:39:03Z</time>
      </trkpt>
      <trkpt lat="44.39264" lon="5.63423">
        <ele>1170</ele>
        <time>2021-09-07T15:39:04Z</time>
      </trkpt>
      <trkpt lat="44.39264" lon="5.63424">
        <ele>1170</ele>
        <time>2021-09-07T15:39:05Z</time>
      </trkpt>
      <trkpt lat="44.39264" lon="5.63424">
        <ele>1170.1</ele>
        <time>2021-09-07T15:39:06Z</time>
      </trkpt>
      <trkpt lat="44.39263" lon="5.63425">
        <ele>1170.2</ele>
        <time>2021-09-07T15:39:07Z</time>
      </trkpt>
      <trkpt lat="44.39263" lon="5.63427">
        <ele>1170.3</ele>
        <time>2021-09-07T15:39:08Z</time>
      </trkpt>
      <trkpt lat="44.39262" lon="5.63429">
        <ele>1170.5</ele>
        <time>2021-09-07T15:39:09Z</time>
      </trkpt>
      <trkpt lat="44.3926" lon="5.63432">
        <ele>1170.8</ele>
        <time>2021-09-07T15:39:10Z</time>
      </trkpt>
      <trkpt lat="44.3926" lon="5.63434">
        <ele>1170.9</ele>
        <time>2021-09-07T15:39:11Z</time>
      </trkpt>
      <trkpt lat="44.39259" lon="5.63435">
        <ele>1171</ele>
        <time>2021-09-07T15:39:12Z</time>
      </trkpt>
      <trkpt lat="44.39258" lon="5.63437">
        <ele>1171.2</ele>
        <time>2021-09-07T15:39:13Z</time>
      </trkpt>
      <trkpt lat="44.39257" lon="5.6344">
        <ele>1171.4</ele>
        <time>2021-09-07T15:39:14Z</time>
      </trkpt>
      <trkpt lat="44.39257" lon="5.63442">
        <ele>1171.5</ele>
        <time>2021-09-07T15:39:15Z</time>
      </trkpt>
      <trkpt lat="44.39256" lon="5.63444">
        <ele>1171.7</ele>
        <time>2021-09-07T15:39:16Z</time>
      </trkpt>
      <trkpt lat="44.39255" lon="5.63446">
        <ele>1171.9</ele>
        <time>2021-09-07T15:39:17Z</time>
      </trkpt>
      <trkpt lat="44.39255" lon="5.63447">
        <ele>1171.9</ele>
        <time>2021-09-07T15:39:18Z</time>
      </trkpt>
      <trkpt lat="44.39254" lon="5.63448">
        <ele>1172</ele>
        <time>2021-09-07T15:39:19Z</time>
      </trkpt>
      <trkpt lat="44.39254" lon="5.63449">
        <ele>1172.1</ele>
        <time>2021-09-07T15:39:20Z</time>
      </trkpt>
      <trkpt lat="44.39253" lon="5.6345">
        <ele>1172.2</ele>
        <time>2021-09-07T15:39:21Z</time>
      </trkpt>
      <trkpt lat="44.39253" lon="5.63451">
        <ele>1172.3</ele>
        <time>2021-09-07T15:39:22Z</time>
      </trkpt>
      <trkpt lat="44.39253" lon="5.63451">
        <ele>1172.3</ele>
        <time>2021-09-07T15:39:23Z</time>
      </trkpt>
      <trkpt lat="44.39253" lon="5.63451">
        <ele>1172.3</ele>
        <time>2021-09-07T15:39:24Z</time>
      </trkpt>
      <trkpt lat="44.39252" lon="5.63453">
        <ele>1172.5</ele>
        <time>2021-09-07T15:39:25Z</time>
      </trkpt>
      <trkpt lat="44.39251" lon="5.63455">
        <ele>1172.7</ele>
        <time>2021-09-07T15:39:26Z</time>
      </trkpt>
      <trkpt lat="44.3925" lon="5.63456">
        <ele>1172.8</ele>
        <time>2021-09-07T15:39:27Z</time>
      </trkpt>
      <trkpt lat="44.39249" lon="5.63457">
        <ele>1172.9</ele>
        <time>2021-09-07T15:39:28Z</time>
      </trkpt>
      <trkpt lat="44.39248" lon="5.63459">
        <ele>1173.1</ele>
        <time>2021-09-07T15:39:29Z</time>
      </trkpt>
      <trkpt lat="44.39248" lon="5.6346">
        <ele>1173.2</ele>
        <time>2021-09-07T15:39:30Z</time>
      </trkpt>
      <trkpt lat="44.39247" lon="5.63461">
        <ele>1173.4</ele>
        <time>2021-09-07T15:39:31Z</time>
      </trkpt>
      <trkpt lat="44.39247" lon="5.63462">
        <ele>1173.5</ele>
        <time>2021-09-07T15:39:32Z</time>
      </trkpt>
      <trkpt lat="44.39247" lon="5.63462">
        <ele>1173.5</ele>
        <time>2021-09-07T15:39:33Z</time>
      </trkpt>
      <trkpt lat="44.39247" lon="5.63462">
        <ele>1173.5</ele>
        <time>2021-09-07T15:39:34Z</time>
      </trkpt>
      <trkpt lat="44.39247" lon="5.63463">
        <ele>1173.6</ele>
        <time>2021-09-07T15:39:35Z</time>
      </trkpt>
      <trkpt lat="44.39247" lon="5.63463">
        <ele>1173.6</ele>
        <time>2021-09-07T15:39:36Z</time>
      </trkpt>
      <trkpt lat="44.39247" lon="5.63463">
        <ele>1173.6</ele>
        <time>2021-09-07T15:39:37Z</time>
      </trkpt>
      <trkpt lat="44.39246" lon="5.63463">
        <ele>1173.7</ele>
        <time>2021-09-07T15:39:38Z</time>
      </trkpt>
      <trkpt lat="44.39246" lon="5.63464">
        <ele>1173.7</ele>
        <time>2021-09-07T15:39:39Z</time>
      </trkpt>
      <trkpt lat="44.39246" lon="5.63464">
        <ele>1173.8</ele>
        <time>2021-09-07T15:39:40Z</time>
      </trkpt>
      <trkpt lat="44.39246" lon="5.63464">
        <ele>1173.8</ele>
        <time>2021-09-07T15:39:41Z</time>
      </trkpt>
      <trkpt lat="44.39246" lon="5.63464">
        <ele>1173.8</ele>
        <time>2021-09-07T15:39:42Z</time>
      </trkpt>
      <trkpt lat="44.39246" lon="5.63464">
        <ele>1173.8</ele>
        <time>2021-09-07T15:39:43Z</time>
      </trkpt>
      <trkpt lat="44.39246" lon="5.63464">
        <ele>1173.8</ele>
        <time>2021-09-07T15:39:44Z</time>
      </trkpt>
      <trkpt lat="44.39246" lon="5.63464">
        <ele>1173.8</ele>
        <time>2021-09-07T15:39:45Z</time>
      </trkpt>
      <trkpt lat="44.39246" lon="5.63464">
        <ele>1173.8</ele>
        <time>2021-09-07T15:39:46Z</time>
      </trkpt>
      <trkpt lat="44.39246" lon="5.63465">
        <ele>1173.9</ele>
        <time>2021-09-07T15:39:47Z</time>
      </trkpt>
      <trkpt lat="44.39246" lon="5.63465">
        <ele>1173.9</ele>
        <time>2021-09-07T15:39:48Z</time>
      </trkpt>
      <trkpt lat="44.39246" lon="5.63465">
        <ele>1173.9</ele>
        <time>2021-09-07T15:39:49Z</time>
      </trkpt>
      <trkpt lat="44.39246" lon="5.63465">
        <ele>1173.9</ele>
        <time>2021-09-07T15:39:50Z</time>
      </trkpt>
      <trkpt lat="44.39246" lon="5.63465">
        <ele>1173.9</ele>
        <time>2021-09-07T15:39:51Z</time>
      </trkpt>
      <trkpt lat="44.39246" lon="5.63465">
        <ele>1173.9</ele>
        <time>2021-09-07T15:39:52Z</time>
      </trkpt>
      <trkpt lat="44.39246" lon="5.63467">
        <ele>1174</ele>
        <time>2021-09-07T15:39:53Z</time>
      </trkpt>
      <trkpt lat="44.39246" lon="5.63468">
        <ele>1174.2</ele>
        <time>2021-09-07T15:39:54Z</time>
      </trkpt>
      <trkpt lat="44.39245" lon="5.63472">
        <ele>1174.5</ele>
        <time>2021-09-07T15:39:55Z</time>
      </trkpt>
      <trkpt lat="44.39245" lon="5.63473">
        <ele>1174.6</ele>
        <time>2021-09-07T15:39:56Z</time>
      </trkpt>
      <trkpt lat="44.39245" lon="5.63474">
        <ele>1174.7</ele>
        <time>2021-09-07T15:39:57Z</time>
      </trkpt>
      <trkpt lat="44.39245" lon="5.63475">
        <ele>1174.8</ele>
        <time>2021-09-07T15:39:58Z</time>
      </trkpt>
      <trkpt lat="44.39245" lon="5.63476">
        <ele>1174.9</ele>
        <time>2021-09-07T15:39:59Z</time>
      </trkpt>
      <trkpt lat="44.39245" lon="5.63477">
        <ele>1174.9</ele>
        <time>2021-09-07T15:40:00Z</time>
      </trkpt>
      <trkpt lat="44.39244" lon="5.63478">
        <ele>1175.1</ele>
        <time>2021-09-07T15:40:01Z</time>
      </trkpt>
      <trkpt lat="44.39244" lon="5.63479">
        <ele>1175.1</ele>
        <time>2021-09-07T15:40:02Z</time>
      </trkpt>
      <trkpt lat="44.39244" lon="5.63479">
        <ele>1175.1</ele>
        <time>2021-09-07T15:40:03Z</time>
      </trkpt>
      <trkpt lat="44.39244" lon="5.6348">
        <ele>1175.2</ele>
        <time>2021-09-07T15:40:04Z</time>
      </trkpt>
      <trkpt lat="44.39244" lon="5.6348">
        <ele>1175.2</ele>
        <time>2021-09-07T15:40:05Z</time>
      </trkpt>
      <trkpt lat="44.39243" lon="5.63481">
        <ele>1175.4</ele>
        <time>2021-09-07T15:40:06Z</time>
      </trkpt>
      <trkpt lat="44.39242" lon="5.63484">
        <ele>1175.6</ele>
        <time>2021-09-07T15:40:07Z</time>
      </trkpt>
      <trkpt lat="44.39241" lon="5.63487">
        <ele>1175.9</ele>
        <time>2021-09-07T15:40:08Z</time>
      </trkpt>
      <trkpt lat="44.3924" lon="5.63489">
        <ele>1176.1</ele>
        <time>2021-09-07T15:40:09Z</time>
      </trkpt>
      <trkpt lat="44.3924" lon="5.63491">
        <ele>1176.2</ele>
        <time>2021-09-07T15:40:10Z</time>
      </trkpt>
      <trkpt lat="44.39239" lon="5.63492">
        <ele>1176.3</ele>
        <time>2021-09-07T15:40:11Z</time>
      </trkpt>
      <trkpt lat="44.39239" lon="5.63493">
        <ele>1176.4</ele>
        <time>2021-09-07T15:40:12Z</time>
      </trkpt>
      <trkpt lat="44.39239" lon="5.63494">
        <ele>1176.5</ele>
        <time>2021-09-07T15:40:13Z</time>
      </trkpt>
      <trkpt lat="44.39238" lon="5.63495">
        <ele>1176.6</ele>
        <time>2021-09-07T15:40:14Z</time>
      </trkpt>
      <trkpt lat="44.39238" lon="5.63496">
        <ele>1176.7</ele>
        <time>2021-09-07T15:40:15Z</time>
      </trkpt>
      <trkpt lat="44.39238" lon="5.63496">
        <ele>1176.7</ele>
        <time>2021-09-07T15:40:16Z</time>
      </trkpt>
      <trkpt lat="44.39238" lon="5.63496">
        <ele>1176.7</ele>
        <time>2021-09-07T15:40:17Z</time>
      </trkpt>
      <trkpt lat="44.39238" lon="5.63496">
        <ele>1176.7</ele>
        <time>2021-09-07T15:40:18Z</time>
      </trkpt>
      <trkpt lat="44.39238" lon="5.63497">
        <ele>1176.8</ele>
        <time>2021-09-07T15:40:19Z</time>
      </trkpt>
      <trkpt lat="44.39239" lon="5.63497">
        <ele>1176.9</ele>
        <time>2021-09-07T15:40:20Z</time>
      </trkpt>
      <trkpt lat="44.39239" lon="5.63499">
        <ele>1177.1</ele>
        <time>2021-09-07T15:40:21Z</time>
      </trkpt>
      <trkpt lat="44.39239" lon="5.635">
        <ele>1177.1</ele>
        <time>2021-09-07T15:40:22Z</time>
      </trkpt>
      <trkpt lat="44.3924" lon="5.63504">
        <ele>1177.5</ele>
        <time>2021-09-07T15:40:23Z</time>
      </trkpt>
      <trkpt lat="44.3924" lon="5.63506">
        <ele>1177.6</ele>
        <time>2021-09-07T15:40:24Z</time>
      </trkpt>
      <trkpt lat="44.39241" lon="5.63508">
        <ele>1177.7</ele>
        <time>2021-09-07T15:40:25Z</time>
      </trkpt>
      <trkpt lat="44.39241" lon="5.6351">
        <ele>1177.9</ele>
        <time>2021-09-07T15:40:26Z</time>
      </trkpt>
      <trkpt lat="44.39241" lon="5.63512">
        <ele>1178</ele>
        <time>2021-09-07T15:40:27Z</time>
      </trkpt>
      <trkpt lat="44.39241" lon="5.63513">
        <ele>1178.1</ele>
        <time>2021-09-07T15:40:28Z</time>
      </trkpt>
      <trkpt lat="44.39242" lon="5.63514">
        <ele>1178.1</ele>
        <time>2021-09-07T15:40:29Z</time>
      </trkpt>
      <trkpt lat="44.39242" lon="5.63515">
        <ele>1178.2</ele>
        <time>2021-09-07T15:40:30Z</time>
      </trkpt>
      <trkpt lat="44.39242" lon="5.63515">
        <ele>1178.2</ele>
        <time>2021-09-07T15:40:31Z</time>
      </trkpt>
      <trkpt lat="44.39242" lon="5.63516">
        <ele>1178.3</ele>
        <time>2021-09-07T15:40:32Z</time>
      </trkpt>
      <trkpt lat="44.39242" lon="5.63516">
        <ele>1178.3</ele>
        <time>2021-09-07T15:40:33Z</time>
      </trkpt>
      <trkpt lat="44.39242" lon="5.63517">
        <ele>1178.3</ele>
        <time>2021-09-07T15:40:34Z</time>
      </trkpt>
      <trkpt lat="44.39242" lon="5.63519">
        <ele>1178.5</ele>
        <time>2021-09-07T15:40:35Z</time>
      </trkpt>
      <trkpt lat="44.39242" lon="5.63522">
        <ele>1178.7</ele>
        <time>2021-09-07T15:40:36Z</time>
      </trkpt>
      <trkpt lat="44.39242" lon="5.63523">
        <ele>1178.7</ele>
        <time>2021-09-07T15:40:37Z</time>
      </trkpt>
      <trkpt lat="44.39241" lon="5.63524">
        <ele>1178.8</ele>
        <time>2021-09-07T15:40:38Z</time>
      </trkpt>
      <trkpt lat="44.39241" lon="5.63526">
        <ele>1178.9</ele>
        <time>2021-09-07T15:40:39Z</time>
      </trkpt>
      <trkpt lat="44.3924" lon="5.63527">
        <ele>1179.1</ele>
        <time>2021-09-07T15:40:40Z</time>
      </trkpt>
      <trkpt lat="44.3924" lon="5.63528">
        <ele>1179.1</ele>
        <time>2021-09-07T15:40:41Z</time>
      </trkpt>
      <trkpt lat="44.3924" lon="5.63529">
        <ele>1179.2</ele>
        <time>2021-09-07T15:40:42Z</time>
      </trkpt>
      <trkpt lat="44.3924" lon="5.63529">
        <ele>1179.2</ele>
        <time>2021-09-07T15:40:43Z</time>
      </trkpt>
      <trkpt lat="44.39239" lon="5.63531">
        <ele>1179.4</ele>
        <time>2021-09-07T15:40:44Z</time>
      </trkpt>
      <trkpt lat="44.39238" lon="5.63534">
        <ele>1179.6</ele>
        <time>2021-09-07T15:40:45Z</time>
      </trkpt>
      <trkpt lat="44.39237" lon="5.63537">
        <ele>1179.9</ele>
        <time>2021-09-07T15:40:46Z</time>
      </trkpt>
      <trkpt lat="44.39237" lon="5.63539">
        <ele>1180</ele>
        <time>2021-09-07T15:40:47Z</time>
      </trkpt>
      <trkpt lat="44.39237" lon="5.6354">
        <ele>1180.1</ele>
        <time>2021-09-07T15:40:48Z</time>
      </trkpt>
      <trkpt lat="44.39236" lon="5.63541">
        <ele>1180.2</ele>
        <time>2021-09-07T15:40:49Z</time>
      </trkpt>
      <trkpt lat="44.39235" lon="5.63542">
        <ele>1180.3</ele>
        <time>2021-09-07T15:40:50Z</time>
      </trkpt>
      <trkpt lat="44.39235" lon="5.63543">
        <ele>1180.4</ele>
        <time>2021-09-07T15:40:51Z</time>
      </trkpt>
      <trkpt lat="44.39234" lon="5.63544">
        <ele>1180.5</ele>
        <time>2021-09-07T15:40:52Z</time>
      </trkpt>
      <trkpt lat="44.39234" lon="5.63545">
        <ele>1180.6</ele>
        <time>2021-09-07T15:40:53Z</time>
      </trkpt>
      <trkpt lat="44.39234" lon="5.63545">
        <ele>1180.7</ele>
        <time>2021-09-07T15:40:54Z</time>
      </trkpt>
      <trkpt lat="44.39233" lon="5.63545">
        <ele>1180.7</ele>
        <time>2021-09-07T15:40:55Z</time>
      </trkpt>
      <trkpt lat="44.39233" lon="5.63546">
        <ele>1180.8</ele>
        <time>2021-09-07T15:40:56Z</time>
      </trkpt>
      <trkpt lat="44.39231" lon="5.6355">
        <ele>1181.2</ele>
        <time>2021-09-07T15:40:57Z</time>
      </trkpt>
      <trkpt lat="44.39228" lon="5.63554">
        <ele>1181.6</ele>
        <time>2021-09-07T15:40:58Z</time>
      </trkpt>
      <trkpt lat="44.39226" lon="5.63557">
        <ele>1181.9</ele>
        <time>2021-09-07T15:40:59Z</time>
      </trkpt>
      <trkpt lat="44.39226" lon="5.63559">
        <ele>1182.1</ele>
        <time>2021-09-07T15:41:00Z</time>
      </trkpt>
      <trkpt lat="44.39225" lon="5.6356">
        <ele>1182.2</ele>
        <time>2021-09-07T15:41:01Z</time>
      </trkpt>
      <trkpt lat="44.39224" lon="5.63562">
        <ele>1182.4</ele>
        <time>2021-09-07T15:41:02Z</time>
      </trkpt>
      <trkpt lat="44.39224" lon="5.63563">
        <ele>1182.5</ele>
        <time>2021-09-07T15:41:03Z</time>
      </trkpt>
      <trkpt lat="44.39223" lon="5.63564">
        <ele>1182.6</ele>
        <time>2021-09-07T15:41:04Z</time>
      </trkpt>
      <trkpt lat="44.39222" lon="5.63566">
        <ele>1182.8</ele>
        <time>2021-09-07T15:41:05Z</time>
      </trkpt>
      <trkpt lat="44.39222" lon="5.63569">
        <ele>1183</ele>
        <time>2021-09-07T15:41:06Z</time>
      </trkpt>
      <trkpt lat="44.3922" lon="5.63572">
        <ele>1183.3</ele>
        <time>2021-09-07T15:41:07Z</time>
      </trkpt>
      <trkpt lat="44.39219" lon="5.63575">
        <ele>1183.5</ele>
        <time>2021-09-07T15:41:08Z</time>
      </trkpt>
      <trkpt lat="44.39219" lon="5.63576">
        <ele>1183.6</ele>
        <time>2021-09-07T15:41:09Z</time>
      </trkpt>
      <trkpt lat="44.39218" lon="5.63577">
        <ele>1183.7</ele>
        <time>2021-09-07T15:41:10Z</time>
      </trkpt>
      <trkpt lat="44.39217" lon="5.63579">
        <ele>1183.9</ele>
        <time>2021-09-07T15:41:11Z</time>
      </trkpt>
      <trkpt lat="44.39216" lon="5.6358">
        <ele>1184</ele>
        <time>2021-09-07T15:41:12Z</time>
      </trkpt>
      <trkpt lat="44.39215" lon="5.63583">
        <ele>1184.2</ele>
        <time>2021-09-07T15:41:13Z</time>
      </trkpt>
      <trkpt lat="44.39214" lon="5.63587">
        <ele>1184.4</ele>
        <time>2021-09-07T15:41:14Z</time>
      </trkpt>
      <trkpt lat="44.39214" lon="5.63589">
        <ele>1184.5</ele>
        <time>2021-09-07T15:41:15Z</time>
      </trkpt>
      <trkpt lat="44.39214" lon="5.6359">
        <ele>1184.6</ele>
        <time>2021-09-07T15:41:16Z</time>
      </trkpt>
      <trkpt lat="44.39213" lon="5.63592">
        <ele>1184.8</ele>
        <time>2021-09-07T15:41:17Z</time>
      </trkpt>
      <trkpt lat="44.39212" lon="5.63595">
        <ele>1185</ele>
        <time>2021-09-07T15:41:18Z</time>
      </trkpt>
      <trkpt lat="44.39211" lon="5.63598">
        <ele>1185.2</ele>
        <time>2021-09-07T15:41:19Z</time>
      </trkpt>
      <trkpt lat="44.39211" lon="5.63599">
        <ele>1185.3</ele>
        <time>2021-09-07T15:41:20Z</time>
      </trkpt>
      <trkpt lat="44.3921" lon="5.636">
        <ele>1185.4</ele>
        <time>2021-09-07T15:41:21Z</time>
      </trkpt>
      <trkpt lat="44.39209" lon="5.63602">
        <ele>1185.5</ele>
        <time>2021-09-07T15:41:22Z</time>
      </trkpt>
      <trkpt lat="44.39208" lon="5.63604">
        <ele>1185.7</ele>
        <time>2021-09-07T15:41:23Z</time>
      </trkpt>
      <trkpt lat="44.39208" lon="5.63605">
        <ele>1185.8</ele>
        <time>2021-09-07T15:41:24Z</time>
      </trkpt>
      <trkpt lat="44.39207" lon="5.63607">
        <ele>1185.9</ele>
        <time>2021-09-07T15:41:25Z</time>
      </trkpt>
      <trkpt lat="44.39206" lon="5.63608">
        <ele>1186</ele>
        <time>2021-09-07T15:41:26Z</time>
      </trkpt>
      <trkpt lat="44.39206" lon="5.6361">
        <ele>1186.2</ele>
        <time>2021-09-07T15:41:27Z</time>
      </trkpt>
      <trkpt lat="44.39204" lon="5.63613">
        <ele>1186.5</ele>
        <time>2021-09-07T15:41:28Z</time>
      </trkpt>
      <trkpt lat="44.39204" lon="5.63615">
        <ele>1186.6</ele>
        <time>2021-09-07T15:41:29Z</time>
      </trkpt>
      <trkpt lat="44.39203" lon="5.63616">
        <ele>1186.7</ele>
        <time>2021-09-07T15:41:30Z</time>
      </trkpt>
      <trkpt lat="44.39203" lon="5.63617">
        <ele>1186.8</ele>
        <time>2021-09-07T15:41:31Z</time>
      </trkpt>
      <trkpt lat="44.39203" lon="5.63618">
        <ele>1186.9</ele>
        <time>2021-09-07T15:41:32Z</time>
      </trkpt>
      <trkpt lat="44.39203" lon="5.63619">
        <ele>1186.9</ele>
        <time>2021-09-07T15:41:33Z</time>
      </trkpt>
      <trkpt lat="44.39202" lon="5.6362">
        <ele>1187.1</ele>
        <time>2021-09-07T15:41:34Z</time>
      </trkpt>
      <trkpt lat="44.39202" lon="5.6362">
        <ele>1187.1</ele>
        <time>2021-09-07T15:41:35Z</time>
      </trkpt>
      <trkpt lat="44.39202" lon="5.6362">
        <ele>1187.1</ele>
        <time>2021-09-07T15:41:36Z</time>
      </trkpt>
      <trkpt lat="44.39202" lon="5.63622">
        <ele>1187.2</ele>
        <time>2021-09-07T15:41:37Z</time>
      </trkpt>
      <trkpt lat="44.39201" lon="5.63623">
        <ele>1187.3</ele>
        <time>2021-09-07T15:41:38Z</time>
      </trkpt>
      <trkpt lat="44.392" lon="5.63626">
        <ele>1187.5</ele>
        <time>2021-09-07T15:41:39Z</time>
      </trkpt>
      <trkpt lat="44.39198" lon="5.63628">
        <ele>1187.8</ele>
        <time>2021-09-07T15:41:40Z</time>
      </trkpt>
      <trkpt lat="44.39198" lon="5.63629">
        <ele>1187.9</ele>
        <time>2021-09-07T15:41:41Z</time>
      </trkpt>
      <trkpt lat="44.39198" lon="5.6363">
        <ele>1187.9</ele>
        <time>2021-09-07T15:41:42Z</time>
      </trkpt>
      <trkpt lat="44.39197" lon="5.63631">
        <ele>1188</ele>
        <time>2021-09-07T15:41:43Z</time>
      </trkpt>
      <trkpt lat="44.39196" lon="5.63632">
        <ele>1188.2</ele>
        <time>2021-09-07T15:41:44Z</time>
      </trkpt>
      <trkpt lat="44.39196" lon="5.63633">
        <ele>1188.2</ele>
        <time>2021-09-07T15:41:45Z</time>
      </trkpt>
      <trkpt lat="44.39196" lon="5.63633">
        <ele>1188.3</ele>
        <time>2021-09-07T15:41:46Z</time>
      </trkpt>
      <trkpt lat="44.39195" lon="5.63633">
        <ele>1188.3</ele>
        <time>2021-09-07T15:41:47Z</time>
      </trkpt>
      <trkpt lat="44.39195" lon="5.63634">
        <ele>1188.4</ele>
        <time>2021-09-07T15:41:48Z</time>
      </trkpt>
      <trkpt lat="44.39195" lon="5.63634">
        <ele>1188.4</ele>
        <time>2021-09-07T15:41:49Z</time>
      </trkpt>
      <trkpt lat="44.39195" lon="5.63635">
        <ele>1188.4</ele>
        <time>2021-09-07T15:41:50Z</time>
      </trkpt>
      <trkpt lat="44.39195" lon="5.63635">
        <ele>1188.5</ele>
        <time>2021-09-07T15:41:51Z</time>
      </trkpt>
      <trkpt lat="44.39195" lon="5.63635">
        <ele>1188.5</ele>
        <time>2021-09-07T15:41:52Z</time>
      </trkpt>
      <trkpt lat="44.39195" lon="5.63635">
        <ele>1188.5</ele>
        <time>2021-09-07T15:41:53Z</time>
      </trkpt>
      <trkpt lat="44.39195" lon="5.63635">
        <ele>1188.5</ele>
        <time>2021-09-07T15:41:54Z</time>
      </trkpt>
      <trkpt lat="44.39195" lon="5.63635">
        <ele>1188.5</ele>
        <time>2021-09-07T15:41:55Z</time>
      </trkpt>
      <trkpt lat="44.39195" lon="5.63635">
        <ele>1188.5</ele>
        <time>2021-09-07T15:41:56Z</time>
      </trkpt>
      <trkpt lat="44.39195" lon="5.63635">
        <ele>1188.5</ele>
        <time>2021-09-07T15:41:57Z</time>
      </trkpt>
      <trkpt lat="44.39195" lon="5.63635">
        <ele>1188.5</ele>
        <time>2021-09-07T15:41:58Z</time>
      </trkpt>
      <trkpt lat="44.39195" lon="5.63636">
        <ele>1188.5</ele>
        <time>2021-09-07T15:41:59Z</time>
      </trkpt>
      <trkpt lat="44.39194" lon="5.63636">
        <ele>1188.6</ele>
        <time>2021-09-07T15:42:00Z</time>
      </trkpt>
      <trkpt lat="44.39192" lon="5.63637">
        <ele>1188.8</ele>
        <time>2021-09-07T15:42:01Z</time>
      </trkpt>
      <trkpt lat="44.39191" lon="5.63639">
        <ele>1189</ele>
        <time>2021-09-07T15:42:02Z</time>
      </trkpt>
      <trkpt lat="44.3919" lon="5.6364">
        <ele>1189.1</ele>
        <time>2021-09-07T15:42:03Z</time>
      </trkpt>
      <trkpt lat="44.3919" lon="5.6364">
        <ele>1189.2</ele>
        <time>2021-09-07T15:42:04Z</time>
      </trkpt>
      <trkpt lat="44.39189" lon="5.6364">
        <ele>1189.2</ele>
        <time>2021-09-07T15:42:05Z</time>
      </trkpt>
      <trkpt lat="44.39188" lon="5.6364">
        <ele>1189.3</ele>
        <time>2021-09-07T15:42:06Z</time>
      </trkpt>
      <trkpt lat="44.39188" lon="5.63641">
        <ele>1189.4</ele>
        <time>2021-09-07T15:42:07Z</time>
      </trkpt>
      <trkpt lat="44.39187" lon="5.63641">
        <ele>1189.5</ele>
        <time>2021-09-07T15:42:08Z</time>
      </trkpt>
      <trkpt lat="44.39187" lon="5.63642">
        <ele>1189.6</ele>
        <time>2021-09-07T15:42:09Z</time>
      </trkpt>
      <trkpt lat="44.39187" lon="5.63642">
        <ele>1189.6</ele>
        <time>2021-09-07T15:42:10Z</time>
      </trkpt>
      <trkpt lat="44.39186" lon="5.63642">
        <ele>1189.7</ele>
        <time>2021-09-07T15:42:11Z</time>
      </trkpt>
      <trkpt lat="44.39186" lon="5.63642">
        <ele>1189.7</ele>
        <time>2021-09-07T15:42:12Z</time>
      </trkpt>
      <trkpt lat="44.39186" lon="5.63643">
        <ele>1189.8</ele>
        <time>2021-09-07T15:42:13Z</time>
      </trkpt>
      <trkpt lat="44.39186" lon="5.63643">
        <ele>1189.8</ele>
        <time>2021-09-07T15:42:14Z</time>
      </trkpt>
      <trkpt lat="44.39186" lon="5.63643">
        <ele>1189.8</ele>
        <time>2021-09-07T15:42:15Z</time>
      </trkpt>
      <trkpt lat="44.39186" lon="5.63643">
        <ele>1189.8</ele>
        <time>2021-09-07T15:42:16Z</time>
      </trkpt>
      <trkpt lat="44.39186" lon="5.63643">
        <ele>1189.8</ele>
        <time>2021-09-07T15:42:17Z</time>
      </trkpt>
      <trkpt lat="44.39186" lon="5.63643">
        <ele>1189.8</ele>
        <time>2021-09-07T15:42:18Z</time>
      </trkpt>
      <trkpt lat="44.39186" lon="5.63643">
        <ele>1189.8</ele>
        <time>2021-09-07T15:42:19Z</time>
      </trkpt>
      <trkpt lat="44.39186" lon="5.63643">
        <ele>1189.8</ele>
        <time>2021-09-07T15:42:20Z</time>
      </trkpt>
      <trkpt lat="44.39186" lon="5.63644">
        <ele>1189.9</ele>
        <time>2021-09-07T15:42:21Z</time>
      </trkpt>
      <trkpt lat="44.39185" lon="5.63644">
        <ele>1189.9</ele>
        <time>2021-09-07T15:42:22Z</time>
      </trkpt>
      <trkpt lat="44.39185" lon="5.63644">
        <ele>1189.9</ele>
        <time>2021-09-07T15:42:23Z</time>
      </trkpt>
      <trkpt lat="44.39185" lon="5.63645">
        <ele>1190</ele>
        <time>2021-09-07T15:42:24Z</time>
      </trkpt>
      <trkpt lat="44.39185" lon="5.63645">
        <ele>1190</ele>
        <time>2021-09-07T15:42:25Z</time>
      </trkpt>
      <trkpt lat="44.39184" lon="5.63646">
        <ele>1190.1</ele>
        <time>2021-09-07T15:42:26Z</time>
      </trkpt>
      <trkpt lat="44.39184" lon="5.63648">
        <ele>1190.3</ele>
        <time>2021-09-07T15:42:27Z</time>
      </trkpt>
      <trkpt lat="44.39183" lon="5.63649">
        <ele>1190.4</ele>
        <time>2021-09-07T15:42:28Z</time>
      </trkpt>
      <trkpt lat="44.39182" lon="5.63652">
        <ele>1190.7</ele>
        <time>2021-09-07T15:42:29Z</time>
      </trkpt>
      <trkpt lat="44.3918" lon="5.63657">
        <ele>1191.1</ele>
        <time>2021-09-07T15:42:30Z</time>
      </trkpt>
      <trkpt lat="44.39178" lon="5.6366">
        <ele>1191.5</ele>
        <time>2021-09-07T15:42:31Z</time>
      </trkpt>
      <trkpt lat="44.39177" lon="5.63663">
        <ele>1191.8</ele>
        <time>2021-09-07T15:42:32Z</time>
      </trkpt>
      <trkpt lat="44.39175" lon="5.63666">
        <ele>1192.1</ele>
        <time>2021-09-07T15:42:33Z</time>
      </trkpt>
      <trkpt lat="44.39173" lon="5.63672">
        <ele>1192.7</ele>
        <time>2021-09-07T15:42:34Z</time>
      </trkpt>
      <trkpt lat="44.39171" lon="5.63678">
        <ele>1193.2</ele>
        <time>2021-09-07T15:42:35Z</time>
      </trkpt>
      <trkpt lat="44.39168" lon="5.63682">
        <ele>1193.7</ele>
        <time>2021-09-07T15:42:36Z</time>
      </trkpt>
      <trkpt lat="44.39166" lon="5.63684">
        <ele>1194</ele>
        <time>2021-09-07T15:42:37Z</time>
      </trkpt>
      <trkpt lat="44.39165" lon="5.63686">
        <ele>1194.2</ele>
        <time>2021-09-07T15:42:38Z</time>
      </trkpt>
      <trkpt lat="44.39163" lon="5.63688">
        <ele>1194.4</ele>
        <time>2021-09-07T15:42:39Z</time>
      </trkpt>
      <trkpt lat="44.3916" lon="5.63694">
        <ele>1194.9</ele>
        <time>2021-09-07T15:42:40Z</time>
      </trkpt>
      <trkpt lat="44.39159" lon="5.63697">
        <ele>1195.2</ele>
        <time>2021-09-07T15:42:41Z</time>
      </trkpt>
      <trkpt lat="44.39157" lon="5.63699">
        <ele>1195.4</ele>
        <time>2021-09-07T15:42:42Z</time>
      </trkpt>
      <trkpt lat="44.39156" lon="5.63702">
        <ele>1195.6</ele>
        <time>2021-09-07T15:42:43Z</time>
      </trkpt>
      <trkpt lat="44.39153" lon="5.63708">
        <ele>1196</ele>
        <time>2021-09-07T15:42:44Z</time>
      </trkpt>
      <trkpt lat="44.39151" lon="5.63711">
        <ele>1196.2</ele>
        <time>2021-09-07T15:42:45Z</time>
      </trkpt>
      <trkpt lat="44.39149" lon="5.63714">
        <ele>1196.4</ele>
        <time>2021-09-07T15:42:46Z</time>
      </trkpt>
      <trkpt lat="44.39147" lon="5.63716">
        <ele>1196.5</ele>
        <time>2021-09-07T15:42:47Z</time>
      </trkpt>
      <trkpt lat="44.39145" lon="5.63718">
        <ele>1196.7</ele>
        <time>2021-09-07T15:42:48Z</time>
      </trkpt>
      <trkpt lat="44.39142" lon="5.6372">
        <ele>1196.9</ele>
        <time>2021-09-07T15:42:49Z</time>
      </trkpt>
      <trkpt lat="44.39139" lon="5.63722">
        <ele>1197.1</ele>
        <time>2021-09-07T15:42:50Z</time>
      </trkpt>
      <trkpt lat="44.39138" lon="5.63724">
        <ele>1197.2</ele>
        <time>2021-09-07T15:42:51Z</time>
      </trkpt>
      <trkpt lat="44.39136" lon="5.63726">
        <ele>1197.3</ele>
        <time>2021-09-07T15:42:52Z</time>
      </trkpt>
      <trkpt lat="44.39136" lon="5.63727">
        <ele>1197.4</ele>
        <time>2021-09-07T15:42:53Z</time>
      </trkpt>
      <trkpt lat="44.39135" lon="5.63728">
        <ele>1197.4</ele>
        <time>2021-09-07T15:42:54Z</time>
      </trkpt>
      <trkpt lat="44.39134" lon="5.63731">
        <ele>1197.6</ele>
        <time>2021-09-07T15:42:55Z</time>
      </trkpt>
      <trkpt lat="44.39134" lon="5.63732">
        <ele>1197.6</ele>
        <time>2021-09-07T15:42:56Z</time>
      </trkpt>
      <trkpt lat="44.39134" lon="5.63732">
        <ele>1197.6</ele>
        <time>2021-09-07T15:42:57Z</time>
      </trkpt>
      <trkpt lat="44.39135" lon="5.63733">
        <ele>1197.7</ele>
        <time>2021-09-07T15:42:58Z</time>
      </trkpt>
      <trkpt lat="44.39135" lon="5.63734">
        <ele>1197.8</ele>
        <time>2021-09-07T15:42:59Z</time>
      </trkpt>
      <trkpt lat="44.39135" lon="5.63735">
        <ele>1197.8</ele>
        <time>2021-09-07T15:43:00Z</time>
      </trkpt>
      <trkpt lat="44.39135" lon="5.63736">
        <ele>1197.8</ele>
        <time>2021-09-07T15:43:01Z</time>
      </trkpt>
      <trkpt lat="44.39135" lon="5.63736">
        <ele>1197.9</ele>
        <time>2021-09-07T15:43:02Z</time>
      </trkpt>
      <trkpt lat="44.39135" lon="5.63736">
        <ele>1197.9</ele>
        <time>2021-09-07T15:43:03Z</time>
      </trkpt>
      <trkpt lat="44.39135" lon="5.63737">
        <ele>1197.9</ele>
        <time>2021-09-07T15:43:04Z</time>
      </trkpt>
      <trkpt lat="44.39134" lon="5.63738">
        <ele>1198</ele>
        <time>2021-09-07T15:43:05Z</time>
      </trkpt>
      <trkpt lat="44.39133" lon="5.63739">
        <ele>1198.1</ele>
        <time>2021-09-07T15:43:06Z</time>
      </trkpt>
      <trkpt lat="44.39132" lon="5.6374">
        <ele>1198.1</ele>
        <time>2021-09-07T15:43:07Z</time>
      </trkpt>
      <trkpt lat="44.3913" lon="5.63742">
        <ele>1198.3</ele>
        <time>2021-09-07T15:43:08Z</time>
      </trkpt>
      <trkpt lat="44.39128" lon="5.63745">
        <ele>1198.5</ele>
        <time>2021-09-07T15:43:09Z</time>
      </trkpt>
      <trkpt lat="44.39128" lon="5.63747">
        <ele>1198.7</ele>
        <time>2021-09-07T15:43:10Z</time>
      </trkpt>
      <trkpt lat="44.39127" lon="5.63749">
        <ele>1198.8</ele>
        <time>2021-09-07T15:43:11Z</time>
      </trkpt>
      <trkpt lat="44.39125" lon="5.63752">
        <ele>1199</ele>
        <time>2021-09-07T15:43:12Z</time>
      </trkpt>
      <trkpt lat="44.39125" lon="5.63753">
        <ele>1199.1</ele>
        <time>2021-09-07T15:43:13Z</time>
      </trkpt>
      <trkpt lat="44.39124" lon="5.63754">
        <ele>1199.1</ele>
        <time>2021-09-07T15:43:14Z</time>
      </trkpt>
      <trkpt lat="44.39122" lon="5.63758">
        <ele>1199.4</ele>
        <time>2021-09-07T15:43:15Z</time>
      </trkpt>
      <trkpt lat="44.39121" lon="5.63759">
        <ele>1199.5</ele>
        <time>2021-09-07T15:43:16Z</time>
      </trkpt>
      <trkpt lat="44.3912" lon="5.63759">
        <ele>1199.5</ele>
        <time>2021-09-07T15:43:17Z</time>
      </trkpt>
      <trkpt lat="44.39119" lon="5.63761">
        <ele>1199.7</ele>
        <time>2021-09-07T15:43:18Z</time>
      </trkpt>
      <trkpt lat="44.39119" lon="5.63762">
        <ele>1199.7</ele>
        <time>2021-09-07T15:43:19Z</time>
      </trkpt>
      <trkpt lat="44.39119" lon="5.63762">
        <ele>1199.7</ele>
        <time>2021-09-07T15:43:20Z</time>
      </trkpt>
      <trkpt lat="44.39119" lon="5.63762">
        <ele>1199.7</ele>
        <time>2021-09-07T15:43:21Z</time>
      </trkpt>
      <trkpt lat="44.39119" lon="5.63762">
        <ele>1199.7</ele>
        <time>2021-09-07T15:43:22Z</time>
      </trkpt>
      <trkpt lat="44.39119" lon="5.63763">
        <ele>1199.8</ele>
        <time>2021-09-07T15:43:23Z</time>
      </trkpt>
      <trkpt lat="44.39119" lon="5.63763">
        <ele>1199.8</ele>
        <time>2021-09-07T15:43:24Z</time>
      </trkpt>
      <trkpt lat="44.39118" lon="5.63763">
        <ele>1199.9</ele>
        <time>2021-09-07T15:43:25Z</time>
      </trkpt>
      <trkpt lat="44.39118" lon="5.63764">
        <ele>1199.9</ele>
        <time>2021-09-07T15:43:26Z</time>
      </trkpt>
      <trkpt lat="44.39118" lon="5.63764">
        <ele>1199.9</ele>
        <time>2021-09-07T15:43:27Z</time>
      </trkpt>
      <trkpt lat="44.39118" lon="5.63764">
        <ele>1199.9</ele>
        <time>2021-09-07T15:43:28Z</time>
      </trkpt>
      <trkpt lat="44.39118" lon="5.63764">
        <ele>1199.9</ele>
        <time>2021-09-07T15:43:29Z</time>
      </trkpt>
      <trkpt lat="44.39118" lon="5.63764">
        <ele>1199.9</ele>
        <time>2021-09-07T15:43:30Z</time>
      </trkpt>
      <trkpt lat="44.39118" lon="5.63764">
        <ele>1199.9</ele>
        <time>2021-09-07T15:43:31Z</time>
      </trkpt>
      <trkpt lat="44.39118" lon="5.63764">
        <ele>1199.9</ele>
        <time>2021-09-07T15:43:32Z</time>
      </trkpt>
      <trkpt lat="44.39118" lon="5.63764">
        <ele>1199.9</ele>
        <time>2021-09-07T15:43:33Z</time>
      </trkpt>
      <trkpt lat="44.39118" lon="5.63765">
        <ele>1200</ele>
        <time>2021-09-07T15:43:34Z</time>
      </trkpt>
      <trkpt lat="44.39117" lon="5.63765">
        <ele>1200</ele>
        <time>2021-09-07T15:43:35Z</time>
      </trkpt>
      <trkpt lat="44.39118" lon="5.63767">
        <ele>1200.2</ele>
        <time>2021-09-07T15:43:36Z</time>
      </trkpt>
      <trkpt lat="44.39118" lon="5.63768">
        <ele>1200.2</ele>
        <time>2021-09-07T15:43:37Z</time>
      </trkpt>
      <trkpt lat="44.39118" lon="5.63769">
        <ele>1200.3</ele>
        <time>2021-09-07T15:43:38Z</time>
      </trkpt>
      <trkpt lat="44.39119" lon="5.63771">
        <ele>1200.4</ele>
        <time>2021-09-07T15:43:39Z</time>
      </trkpt>
      <trkpt lat="44.39119" lon="5.63772">
        <ele>1200.4</ele>
        <time>2021-09-07T15:43:40Z</time>
      </trkpt>
      <trkpt lat="44.39119" lon="5.63772">
        <ele>1200.5</ele>
        <time>2021-09-07T15:43:41Z</time>
      </trkpt>
      <trkpt lat="44.3912" lon="5.63774">
        <ele>1200.6</ele>
        <time>2021-09-07T15:43:42Z</time>
      </trkpt>
      <trkpt lat="44.3912" lon="5.63775">
        <ele>1200.7</ele>
        <time>2021-09-07T15:43:43Z</time>
      </trkpt>
      <trkpt lat="44.3912" lon="5.63776">
        <ele>1200.7</ele>
        <time>2021-09-07T15:43:44Z</time>
      </trkpt>
      <trkpt lat="44.39119" lon="5.63779">
        <ele>1200.9</ele>
        <time>2021-09-07T15:43:45Z</time>
      </trkpt>
      <trkpt lat="44.39119" lon="5.63782">
        <ele>1201.1</ele>
        <time>2021-09-07T15:43:46Z</time>
      </trkpt>
      <trkpt lat="44.39118" lon="5.63784">
        <ele>1201.2</ele>
        <time>2021-09-07T15:43:47Z</time>
      </trkpt>
      <trkpt lat="44.39117" lon="5.63786">
        <ele>1201.4</ele>
        <time>2021-09-07T15:43:48Z</time>
      </trkpt>
      <trkpt lat="44.39116" lon="5.63789">
        <ele>1201.6</ele>
        <time>2021-09-07T15:43:49Z</time>
      </trkpt>
      <trkpt lat="44.39115" lon="5.63791">
        <ele>1201.7</ele>
        <time>2021-09-07T15:43:50Z</time>
      </trkpt>
      <trkpt lat="44.39114" lon="5.63792">
        <ele>1201.8</ele>
        <time>2021-09-07T15:43:51Z</time>
      </trkpt>
      <trkpt lat="44.39113" lon="5.63795">
        <ele>1202</ele>
        <time>2021-09-07T15:43:52Z</time>
      </trkpt>
      <trkpt lat="44.39111" lon="5.63796">
        <ele>1202.2</ele>
        <time>2021-09-07T15:43:53Z</time>
      </trkpt>
      <trkpt lat="44.39109" lon="5.63798">
        <ele>1202.3</ele>
        <time>2021-09-07T15:43:54Z</time>
      </trkpt>
      <trkpt lat="44.39108" lon="5.638">
        <ele>1202.5</ele>
        <time>2021-09-07T15:43:55Z</time>
      </trkpt>
      <trkpt lat="44.39107" lon="5.63802">
        <ele>1202.6</ele>
        <time>2021-09-07T15:43:56Z</time>
      </trkpt>
      <trkpt lat="44.39104" lon="5.63805">
        <ele>1202.9</ele>
        <time>2021-09-07T15:43:57Z</time>
      </trkpt>
      <trkpt lat="44.39104" lon="5.63807">
        <ele>1203</ele>
        <time>2021-09-07T15:43:58Z</time>
      </trkpt>
      <trkpt lat="44.39103" lon="5.63809">
        <ele>1203.1</ele>
        <time>2021-09-07T15:43:59Z</time>
      </trkpt>
      <trkpt lat="44.39102" lon="5.63812">
        <ele>1203.2</ele>
        <time>2021-09-07T15:44:00Z</time>
      </trkpt>
      <trkpt lat="44.39101" lon="5.63815">
        <ele>1203.4</ele>
        <time>2021-09-07T15:44:01Z</time>
      </trkpt>
      <trkpt lat="44.39099" lon="5.63817">
        <ele>1203.5</ele>
        <time>2021-09-07T15:44:02Z</time>
      </trkpt>
      <trkpt lat="44.39098" lon="5.6382">
        <ele>1203.7</ele>
        <time>2021-09-07T15:44:03Z</time>
      </trkpt>
      <trkpt lat="44.39097" lon="5.63823">
        <ele>1203.8</ele>
        <time>2021-09-07T15:44:04Z</time>
      </trkpt>
      <trkpt lat="44.39096" lon="5.63826">
        <ele>1204</ele>
        <time>2021-09-07T15:44:05Z</time>
      </trkpt>
      <trkpt lat="44.39094" lon="5.63831">
        <ele>1204.1</ele>
        <time>2021-09-07T15:44:06Z</time>
      </trkpt>
      <trkpt lat="44.39094" lon="5.63835">
        <ele>1204.2</ele>
        <time>2021-09-07T15:44:07Z</time>
      </trkpt>
      <trkpt lat="44.39094" lon="5.63839">
        <ele>1204.3</ele>
        <time>2021-09-07T15:44:08Z</time>
      </trkpt>
      <trkpt lat="44.39093" lon="5.63842">
        <ele>1204.4</ele>
        <time>2021-09-07T15:44:09Z</time>
      </trkpt>
      <trkpt lat="44.39093" lon="5.63846">
        <ele>1204.4</ele>
        <time>2021-09-07T15:44:10Z</time>
      </trkpt>
      <trkpt lat="44.39093" lon="5.63851">
        <ele>1204.4</ele>
        <time>2021-09-07T15:44:11Z</time>
      </trkpt>
      <trkpt lat="44.39092" lon="5.63855">
        <ele>1204.4</ele>
        <time>2021-09-07T15:44:12Z</time>
      </trkpt>
      <trkpt lat="44.39091" lon="5.63857">
        <ele>1204.4</ele>
        <time>2021-09-07T15:44:13Z</time>
      </trkpt>
      <trkpt lat="44.3909" lon="5.63859">
        <ele>1204.4</ele>
        <time>2021-09-07T15:44:14Z</time>
      </trkpt>
      <trkpt lat="44.39089" lon="5.63862">
        <ele>1204.4</ele>
        <time>2021-09-07T15:44:15Z</time>
      </trkpt>
      <trkpt lat="44.39087" lon="5.63864">
        <ele>1204.4</ele>
        <time>2021-09-07T15:44:16Z</time>
      </trkpt>
      <trkpt lat="44.39084" lon="5.63864">
        <ele>1204.4</ele>
        <time>2021-09-07T15:44:17Z</time>
      </trkpt>
      <trkpt lat="44.39082" lon="5.63865">
        <ele>1204.4</ele>
        <time>2021-09-07T15:44:18Z</time>
      </trkpt>
      <trkpt lat="44.3908" lon="5.63865">
        <ele>1204.4</ele>
        <time>2021-09-07T15:44:19Z</time>
      </trkpt>
      <trkpt lat="44.39077" lon="5.63867">
        <ele>1204.5</ele>
        <time>2021-09-07T15:44:20Z</time>
      </trkpt>
      <trkpt lat="44.39076" lon="5.63867">
        <ele>1204.5</ele>
        <time>2021-09-07T15:44:21Z</time>
      </trkpt>
      <trkpt lat="44.39074" lon="5.63867">
        <ele>1204.5</ele>
        <time>2021-09-07T15:44:22Z</time>
      </trkpt>
      <trkpt lat="44.3907" lon="5.63866">
        <ele>1204.8</ele>
        <time>2021-09-07T15:44:23Z</time>
      </trkpt>
      <trkpt lat="44.39066" lon="5.63865">
        <ele>1205</ele>
        <time>2021-09-07T15:44:24Z</time>
      </trkpt>
      <trkpt lat="44.39064" lon="5.63865">
        <ele>1205.2</ele>
        <time>2021-09-07T15:44:25Z</time>
      </trkpt>
      <trkpt lat="44.39062" lon="5.63865">
        <ele>1205.2</ele>
        <time>2021-09-07T15:44:26Z</time>
      </trkpt>
      <trkpt lat="44.39058" lon="5.63863">
        <ele>1205.2</ele>
        <time>2021-09-07T15:44:27Z</time>
      </trkpt>
      <trkpt lat="44.39056" lon="5.63862">
        <ele>1205.2</ele>
        <time>2021-09-07T15:44:28Z</time>
      </trkpt>
      <trkpt lat="44.39054" lon="5.63861">
        <ele>1205.4</ele>
        <time>2021-09-07T15:44:29Z</time>
      </trkpt>
      <trkpt lat="44.39049" lon="5.63858">
        <ele>1205.3</ele>
        <time>2021-09-07T15:44:30Z</time>
      </trkpt>
      <trkpt lat="44.39044" lon="5.63857">
        <ele>1205.4</ele>
        <time>2021-09-07T15:44:31Z</time>
      </trkpt>
      <trkpt lat="44.39041" lon="5.63857">
        <ele>1205.4</ele>
        <time>2021-09-07T15:44:32Z</time>
      </trkpt>
      <trkpt lat="44.39038" lon="5.63856">
        <ele>1205</ele>
        <time>2021-09-07T15:44:33Z</time>
      </trkpt>
      <trkpt lat="44.39032" lon="5.63855">
        <ele>1204.8</ele>
        <time>2021-09-07T15:44:34Z</time>
      </trkpt>
      <trkpt lat="44.39027" lon="5.63855">
        <ele>1204.4</ele>
        <time>2021-09-07T15:44:35Z</time>
      </trkpt>
      <trkpt lat="44.39019" lon="5.63858">
        <ele>1204.3</ele>
        <time>2021-09-07T15:44:36Z</time>
      </trkpt>
      <trkpt lat="44.39013" lon="5.63859">
        <ele>1203.7</ele>
        <time>2021-09-07T15:44:37Z</time>
      </trkpt>
      <trkpt lat="44.39007" lon="5.63859">
        <ele>1203.1</ele>
        <time>2021-09-07T15:44:38Z</time>
      </trkpt>
      <trkpt lat="44.39001" lon="5.63859">
        <ele>1202.4</ele>
        <time>2021-09-07T15:44:39Z</time>
      </trkpt>
      <trkpt lat="44.38995" lon="5.63859">
        <ele>1201.7</ele>
        <time>2021-09-07T15:44:40Z</time>
      </trkpt>
      <trkpt lat="44.38989" lon="5.63858">
        <ele>1201</ele>
        <time>2021-09-07T15:44:41Z</time>
      </trkpt>
      <trkpt lat="44.38982" lon="5.63858">
        <ele>1200.3</ele>
        <time>2021-09-07T15:44:42Z</time>
      </trkpt>
      <trkpt lat="44.38975" lon="5.63857">
        <ele>1199.1</ele>
        <time>2021-09-07T15:44:43Z</time>
      </trkpt>
      <trkpt lat="44.38968" lon="5.63858">
        <ele>1198.3</ele>
        <time>2021-09-07T15:44:44Z</time>
      </trkpt>
      <trkpt lat="44.3896" lon="5.63858">
        <ele>1197.3</ele>
        <time>2021-09-07T15:44:45Z</time>
      </trkpt>
      <trkpt lat="44.38953" lon="5.6386">
        <ele>1196.6</ele>
        <time>2021-09-07T15:44:46Z</time>
      </trkpt>
      <trkpt lat="44.38946" lon="5.63861">
        <ele>1196.6</ele>
        <time>2021-09-07T15:44:47Z</time>
      </trkpt>
      <trkpt lat="44.38939" lon="5.63863">
        <ele>1195.7</ele>
        <time>2021-09-07T15:44:48Z</time>
      </trkpt>
      <trkpt lat="44.38932" lon="5.63864">
        <ele>1195.2</ele>
        <time>2021-09-07T15:44:49Z</time>
      </trkpt>
      <trkpt lat="44.38925" lon="5.63866">
        <ele>1195.3</ele>
        <time>2021-09-07T15:44:50Z</time>
      </trkpt>
      <trkpt lat="44.38917" lon="5.63868">
        <ele>1194.5</ele>
        <time>2021-09-07T15:44:51Z</time>
      </trkpt>
      <trkpt lat="44.3891" lon="5.6387">
        <ele>1194.6</ele>
        <time>2021-09-07T15:44:52Z</time>
      </trkpt>
      <trkpt lat="44.38903" lon="5.63872">
        <ele>1194.2</ele>
        <time>2021-09-07T15:44:53Z</time>
      </trkpt>
      <trkpt lat="44.38896" lon="5.63871">
        <ele>1193.8</ele>
        <time>2021-09-07T15:44:54Z</time>
      </trkpt>
      <trkpt lat="44.38889" lon="5.6387">
        <ele>1193.6</ele>
        <time>2021-09-07T15:44:55Z</time>
      </trkpt>
      <trkpt lat="44.38883" lon="5.63868">
        <ele>1192.9</ele>
        <time>2021-09-07T15:44:56Z</time>
      </trkpt>
      <trkpt lat="44.38877" lon="5.63865">
        <ele>1192.9</ele>
        <time>2021-09-07T15:44:57Z</time>
      </trkpt>
      <trkpt lat="44.3887" lon="5.63862">
        <ele>1192.5</ele>
        <time>2021-09-07T15:44:58Z</time>
      </trkpt>
      <trkpt lat="44.38864" lon="5.63858">
        <ele>1192.3</ele>
        <time>2021-09-07T15:44:59Z</time>
      </trkpt>
      <trkpt lat="44.38859" lon="5.63853">
        <ele>1192.3</ele>
        <time>2021-09-07T15:45:00Z</time>
      </trkpt>
      <trkpt lat="44.38853" lon="5.63847">
        <ele>1192</ele>
        <time>2021-09-07T15:45:01Z</time>
      </trkpt>
      <trkpt lat="44.38848" lon="5.6384">
        <ele>1191.9</ele>
        <time>2021-09-07T15:45:02Z</time>
      </trkpt>
      <trkpt lat="44.38845" lon="5.63831">
        <ele>1191.4</ele>
        <time>2021-09-07T15:45:03Z</time>
      </trkpt>
      <trkpt lat="44.38841" lon="5.63821">
        <ele>1190.8</ele>
        <time>2021-09-07T15:45:04Z</time>
      </trkpt>
      <trkpt lat="44.38839" lon="5.63811">
        <ele>1190.5</ele>
        <time>2021-09-07T15:45:05Z</time>
      </trkpt>
      <trkpt lat="44.38837" lon="5.63801">
        <ele>1190.4</ele>
        <time>2021-09-07T15:45:06Z</time>
      </trkpt>
      <trkpt lat="44.38835" lon="5.63789">
        <ele>1189.6</ele>
        <time>2021-09-07T15:45:07Z</time>
      </trkpt>
      <trkpt lat="44.38833" lon="5.63777">
        <ele>1189.3</ele>
        <time>2021-09-07T15:45:08Z</time>
      </trkpt>
      <trkpt lat="44.38831" lon="5.63765">
        <ele>1189</ele>
        <time>2021-09-07T15:45:09Z</time>
      </trkpt>
      <trkpt lat="44.38829" lon="5.63753">
        <ele>1188.7</ele>
        <time>2021-09-07T15:45:10Z</time>
      </trkpt>
      <trkpt lat="44.38826" lon="5.63741">
        <ele>1188.2</ele>
        <time>2021-09-07T15:45:11Z</time>
      </trkpt>
      <trkpt lat="44.38823" lon="5.63729">
        <ele>1187.9</ele>
        <time>2021-09-07T15:45:12Z</time>
      </trkpt>
      <trkpt lat="44.3882" lon="5.63717">
        <ele>1187.4</ele>
        <time>2021-09-07T15:45:13Z</time>
      </trkpt>
      <trkpt lat="44.38817" lon="5.63704">
        <ele>1186.5</ele>
        <time>2021-09-07T15:45:14Z</time>
      </trkpt>
      <trkpt lat="44.38815" lon="5.63693">
        <ele>1185.6</ele>
        <time>2021-09-07T15:45:15Z</time>
      </trkpt>
      <trkpt lat="44.38812" lon="5.63682">
        <ele>1184.9</ele>
        <time>2021-09-07T15:45:16Z</time>
      </trkpt>
      <trkpt lat="44.38808" lon="5.63672">
        <ele>1184.1</ele>
        <time>2021-09-07T15:45:17Z</time>
      </trkpt>
      <trkpt lat="44.38804" lon="5.63662">
        <ele>1182.8</ele>
        <time>2021-09-07T15:45:18Z</time>
      </trkpt>
      <trkpt lat="44.388" lon="5.63654">
        <ele>1181.9</ele>
        <time>2021-09-07T15:45:19Z</time>
      </trkpt>
      <trkpt lat="44.38795" lon="5.63645">
        <ele>1180.9</ele>
        <time>2021-09-07T15:45:20Z</time>
      </trkpt>
      <trkpt lat="44.38789" lon="5.63638">
        <ele>1180.9</ele>
        <time>2021-09-07T15:45:21Z</time>
      </trkpt>
      <trkpt lat="44.38783" lon="5.63631">
        <ele>1180.2</ele>
        <time>2021-09-07T15:45:22Z</time>
      </trkpt>
      <trkpt lat="44.38777" lon="5.63626">
        <ele>1180.3</ele>
        <time>2021-09-07T15:45:23Z</time>
      </trkpt>
      <trkpt lat="44.38771" lon="5.63621">
        <ele>1180.4</ele>
        <time>2021-09-07T15:45:24Z</time>
      </trkpt>
      <trkpt lat="44.38766" lon="5.63618">
        <ele>1180.4</ele>
        <time>2021-09-07T15:45:25Z</time>
      </trkpt>
      <trkpt lat="44.3876" lon="5.63615">
        <ele>1180.4</ele>
        <time>2021-09-07T15:45:26Z</time>
      </trkpt>
      <trkpt lat="44.38755" lon="5.63613">
        <ele>1181.1</ele>
        <time>2021-09-07T15:45:27Z</time>
      </trkpt>
      <trkpt lat="44.38749" lon="5.6361">
        <ele>1180.8</ele>
        <time>2021-09-07T15:45:28Z</time>
      </trkpt>
      <trkpt lat="44.38745" lon="5.63609">
        <ele>1181.4</ele>
        <time>2021-09-07T15:45:29Z</time>
      </trkpt>
      <trkpt lat="44.3874" lon="5.63608">
        <ele>1181.7</ele>
        <time>2021-09-07T15:45:30Z</time>
      </trkpt>
      <trkpt lat="44.38736" lon="5.63608">
        <ele>1182.3</ele>
        <time>2021-09-07T15:45:31Z</time>
      </trkpt>
      <trkpt lat="44.38732" lon="5.63608">
        <ele>1182.6</ele>
        <time>2021-09-07T15:45:32Z</time>
      </trkpt>
      <trkpt lat="44.38728" lon="5.63608">
        <ele>1182.9</ele>
        <time>2021-09-07T15:45:33Z</time>
      </trkpt>
      <trkpt lat="44.38724" lon="5.63607">
        <ele>1182.9</ele>
        <time>2021-09-07T15:45:34Z</time>
      </trkpt>
      <trkpt lat="44.3872" lon="5.63607">
        <ele>1183.2</ele>
        <time>2021-09-07T15:45:35Z</time>
      </trkpt>
      <trkpt lat="44.38715" lon="5.63606">
        <ele>1183.9</ele>
        <time>2021-09-07T15:45:36Z</time>
      </trkpt>
      <trkpt lat="44.38711" lon="5.63606">
        <ele>1184.1</ele>
        <time>2021-09-07T15:45:37Z</time>
      </trkpt>
      <trkpt lat="44.38707" lon="5.63606">
        <ele>1184.4</ele>
        <time>2021-09-07T15:45:38Z</time>
      </trkpt>
      <trkpt lat="44.38705" lon="5.63604">
        <ele>1184.7</ele>
        <time>2021-09-07T15:45:39Z</time>
      </trkpt>
      <trkpt lat="44.38703" lon="5.63604">
        <ele>1184.7</ele>
        <time>2021-09-07T15:45:40Z</time>
      </trkpt>
      <trkpt lat="44.38701" lon="5.63604">
        <ele>1184.9</ele>
        <time>2021-09-07T15:45:41Z</time>
      </trkpt>
      <trkpt lat="44.38699" lon="5.63604">
        <ele>1185.2</ele>
        <time>2021-09-07T15:45:42Z</time>
      </trkpt>
      <trkpt lat="44.38698" lon="5.63604">
        <ele>1185.2</ele>
        <time>2021-09-07T15:45:43Z</time>
      </trkpt>
      <trkpt lat="44.38697" lon="5.63604">
        <ele>1185.2</ele>
        <time>2021-09-07T15:45:44Z</time>
      </trkpt>
      <trkpt lat="44.38696" lon="5.63605">
        <ele>1185.5</ele>
        <time>2021-09-07T15:45:45Z</time>
      </trkpt>
      <trkpt lat="44.38695" lon="5.63605">
        <ele>1185.5</ele>
        <time>2021-09-07T15:45:46Z</time>
      </trkpt>
      <trkpt lat="44.38693" lon="5.63605">
        <ele>1185.7</ele>
        <time>2021-09-07T15:45:47Z</time>
      </trkpt>
      <trkpt lat="44.38691" lon="5.63605">
        <ele>1185.8</ele>
        <time>2021-09-07T15:45:48Z</time>
      </trkpt>
      <trkpt lat="44.38689" lon="5.63605">
        <ele>1186</ele>
        <time>2021-09-07T15:45:49Z</time>
      </trkpt>
      <trkpt lat="44.38687" lon="5.63606">
        <ele>1186.3</ele>
        <time>2021-09-07T15:45:50Z</time>
      </trkpt>
      <trkpt lat="44.38686" lon="5.63606">
        <ele>1186.3</ele>
        <time>2021-09-07T15:45:51Z</time>
      </trkpt>
      <trkpt lat="44.38685" lon="5.63606">
        <ele>1186.3</ele>
        <time>2021-09-07T15:45:52Z</time>
      </trkpt>
      <trkpt lat="44.38682" lon="5.63606">
        <ele>1186.5</ele>
        <time>2021-09-07T15:45:53Z</time>
      </trkpt>
      <trkpt lat="44.38681" lon="5.63606">
        <ele>1186.7</ele>
        <time>2021-09-07T15:45:54Z</time>
      </trkpt>
      <trkpt lat="44.3868" lon="5.63606">
        <ele>1186.7</ele>
        <time>2021-09-07T15:45:55Z</time>
      </trkpt>
      <trkpt lat="44.38678" lon="5.63606">
        <ele>1186.9</ele>
        <time>2021-09-07T15:45:56Z</time>
      </trkpt>
      <trkpt lat="44.38677" lon="5.63606">
        <ele>1186.9</ele>
        <time>2021-09-07T15:45:57Z</time>
      </trkpt>
      <trkpt lat="44.38675" lon="5.63606">
        <ele>1187.1</ele>
        <time>2021-09-07T15:45:58Z</time>
      </trkpt>
      <trkpt lat="44.38673" lon="5.63606">
        <ele>1187.1</ele>
        <time>2021-09-07T15:45:59Z</time>
      </trkpt>
      <trkpt lat="44.38672" lon="5.63606">
        <ele>1187.3</ele>
        <time>2021-09-07T15:46:00Z</time>
      </trkpt>
      <trkpt lat="44.38671" lon="5.63606">
        <ele>1187.3</ele>
        <time>2021-09-07T15:46:01Z</time>
      </trkpt>
      <trkpt lat="44.3867" lon="5.63606">
        <ele>1187.3</ele>
        <time>2021-09-07T15:46:02Z</time>
      </trkpt>
      <trkpt lat="44.38668" lon="5.63606">
        <ele>1187.6</ele>
        <time>2021-09-07T15:46:03Z</time>
      </trkpt>
      <trkpt lat="44.38666" lon="5.63606">
        <ele>1187.7</ele>
        <time>2021-09-07T15:46:04Z</time>
      </trkpt>
      <trkpt lat="44.38663" lon="5.63606">
        <ele>1187.8</ele>
        <time>2021-09-07T15:46:05Z</time>
      </trkpt>
      <trkpt lat="44.38662" lon="5.63606">
        <ele>1187.9</ele>
        <time>2021-09-07T15:46:06Z</time>
      </trkpt>
      <trkpt lat="44.38661" lon="5.63606">
        <ele>1187.9</ele>
        <time>2021-09-07T15:46:07Z</time>
      </trkpt>
      <trkpt lat="44.38659" lon="5.63606">
        <ele>1188</ele>
        <time>2021-09-07T15:46:08Z</time>
      </trkpt>
      <trkpt lat="44.38656" lon="5.63606">
        <ele>1188</ele>
        <time>2021-09-07T15:46:09Z</time>
      </trkpt>
      <trkpt lat="44.38654" lon="5.63607">
        <ele>1188</ele>
        <time>2021-09-07T15:46:10Z</time>
      </trkpt>
      <trkpt lat="44.38653" lon="5.63608">
        <ele>1188.6</ele>
        <time>2021-09-07T15:46:11Z</time>
      </trkpt>
      <trkpt lat="44.38651" lon="5.63608">
        <ele>1188.6</ele>
        <time>2021-09-07T15:46:12Z</time>
      </trkpt>
      <trkpt lat="44.38649" lon="5.63609">
        <ele>1188.7</ele>
        <time>2021-09-07T15:46:13Z</time>
      </trkpt>
      <trkpt lat="44.38647" lon="5.6361">
        <ele>1188.7</ele>
        <time>2021-09-07T15:46:14Z</time>
      </trkpt>
      <trkpt lat="44.38645" lon="5.63611">
        <ele>1188.7</ele>
        <time>2021-09-07T15:46:15Z</time>
      </trkpt>
      <trkpt lat="44.38643" lon="5.63611">
        <ele>1188.7</ele>
        <time>2021-09-07T15:46:16Z</time>
      </trkpt>
      <trkpt lat="44.38642" lon="5.63611">
        <ele>1188.7</ele>
        <time>2021-09-07T15:46:17Z</time>
      </trkpt>
      <trkpt lat="44.3864" lon="5.63611">
        <ele>1188.7</ele>
        <time>2021-09-07T15:46:18Z</time>
      </trkpt>
      <trkpt lat="44.38637" lon="5.63612">
        <ele>1189.3</ele>
        <time>2021-09-07T15:46:19Z</time>
      </trkpt>
      <trkpt lat="44.38633" lon="5.63611">
        <ele>1188.6</ele>
        <time>2021-09-07T15:46:20Z</time>
      </trkpt>
      <trkpt lat="44.38632" lon="5.63611">
        <ele>1188.5</ele>
        <time>2021-09-07T15:46:21Z</time>
      </trkpt>
      <trkpt lat="44.3863" lon="5.6361">
        <ele>1188.5</ele>
        <time>2021-09-07T15:46:22Z</time>
      </trkpt>
      <trkpt lat="44.38628" lon="5.63611">
        <ele>1188.3</ele>
        <time>2021-09-07T15:46:23Z</time>
      </trkpt>
      <trkpt lat="44.38626" lon="5.63612">
        <ele>1188.9</ele>
        <time>2021-09-07T15:46:24Z</time>
      </trkpt>
      <trkpt lat="44.38625" lon="5.63613">
        <ele>1188.9</ele>
        <time>2021-09-07T15:46:25Z</time>
      </trkpt>
      <trkpt lat="44.38623" lon="5.63614">
        <ele>1188.7</ele>
        <time>2021-09-07T15:46:26Z</time>
      </trkpt>
      <trkpt lat="44.3862" lon="5.63614">
        <ele>1188.6</ele>
        <time>2021-09-07T15:46:27Z</time>
      </trkpt>
      <trkpt lat="44.38618" lon="5.63616">
        <ele>1189.3</ele>
        <time>2021-09-07T15:46:28Z</time>
      </trkpt>
      <trkpt lat="44.38616" lon="5.63618">
        <ele>1189.1</ele>
        <time>2021-09-07T15:46:29Z</time>
      </trkpt>
      <trkpt lat="44.38613" lon="5.63619">
        <ele>1188.9</ele>
        <time>2021-09-07T15:46:30Z</time>
      </trkpt>
      <trkpt lat="44.38611" lon="5.6362">
        <ele>1188.9</ele>
        <time>2021-09-07T15:46:31Z</time>
      </trkpt>
      <trkpt lat="44.38609" lon="5.63623">
        <ele>1189.5</ele>
        <time>2021-09-07T15:46:32Z</time>
      </trkpt>
      <trkpt lat="44.38606" lon="5.63625">
        <ele>1190</ele>
        <time>2021-09-07T15:46:33Z</time>
      </trkpt>
      <trkpt lat="44.38603" lon="5.63628">
        <ele>1189.8</ele>
        <time>2021-09-07T15:46:34Z</time>
      </trkpt>
      <trkpt lat="44.38601" lon="5.6363">
        <ele>1190.4</ele>
        <time>2021-09-07T15:46:35Z</time>
      </trkpt>
      <trkpt lat="44.38598" lon="5.63631">
        <ele>1190.2</ele>
        <time>2021-09-07T15:46:36Z</time>
      </trkpt>
      <trkpt lat="44.38595" lon="5.63634">
        <ele>1190.8</ele>
        <time>2021-09-07T15:46:37Z</time>
      </trkpt>
      <trkpt lat="44.38593" lon="5.63636">
        <ele>1190.8</ele>
        <time>2021-09-07T15:46:38Z</time>
      </trkpt>
      <trkpt lat="44.38592" lon="5.63637">
        <ele>1190.7</ele>
        <time>2021-09-07T15:46:39Z</time>
      </trkpt>
      <trkpt lat="44.38591" lon="5.63638">
        <ele>1191.4</ele>
        <time>2021-09-07T15:46:40Z</time>
      </trkpt>
      <trkpt lat="44.38589" lon="5.6364">
        <ele>1191.3</ele>
        <time>2021-09-07T15:46:41Z</time>
      </trkpt>
      <trkpt lat="44.38588" lon="5.63643">
        <ele>1192</ele>
        <time>2021-09-07T15:46:42Z</time>
      </trkpt>
      <trkpt lat="44.38586" lon="5.63645">
        <ele>1191.9</ele>
        <time>2021-09-07T15:46:43Z</time>
      </trkpt>
      <trkpt lat="44.38585" lon="5.63647">
        <ele>1192.6</ele>
        <time>2021-09-07T15:46:44Z</time>
      </trkpt>
      <trkpt lat="44.38584" lon="5.63648">
        <ele>1192.7</ele>
        <time>2021-09-07T15:46:45Z</time>
      </trkpt>
      <trkpt lat="44.38581" lon="5.63651">
        <ele>1193.3</ele>
        <time>2021-09-07T15:46:46Z</time>
      </trkpt>
      <trkpt lat="44.38579" lon="5.63652">
        <ele>1193.2</ele>
        <time>2021-09-07T15:46:47Z</time>
      </trkpt>
      <trkpt lat="44.38577" lon="5.63652">
        <ele>1193.1</ele>
        <time>2021-09-07T15:46:48Z</time>
      </trkpt>
      <trkpt lat="44.38575" lon="5.63653">
        <ele>1193.1</ele>
        <time>2021-09-07T15:46:49Z</time>
      </trkpt>
      <trkpt lat="44.38573" lon="5.63654">
        <ele>1193</ele>
        <time>2021-09-07T15:46:50Z</time>
      </trkpt>
      <trkpt lat="44.3857" lon="5.63654">
        <ele>1192.9</ele>
        <time>2021-09-07T15:46:51Z</time>
      </trkpt>
      <trkpt lat="44.38567" lon="5.63654">
        <ele>1192.7</ele>
        <time>2021-09-07T15:46:52Z</time>
      </trkpt>
      <trkpt lat="44.38565" lon="5.63655">
        <ele>1193.5</ele>
        <time>2021-09-07T15:46:53Z</time>
      </trkpt>
      <trkpt lat="44.38563" lon="5.63655">
        <ele>1193.4</ele>
        <time>2021-09-07T15:46:54Z</time>
      </trkpt>
      <trkpt lat="44.38561" lon="5.63655">
        <ele>1193.2</ele>
        <time>2021-09-07T15:46:55Z</time>
      </trkpt>
      <trkpt lat="44.38556" lon="5.63654">
        <ele>1192.1</ele>
        <time>2021-09-07T15:46:56Z</time>
      </trkpt>
      <trkpt lat="44.38553" lon="5.63654">
        <ele>1191.8</ele>
        <time>2021-09-07T15:46:57Z</time>
      </trkpt>
      <trkpt lat="44.38551" lon="5.63654">
        <ele>1191.6</ele>
        <time>2021-09-07T15:46:58Z</time>
      </trkpt>
      <trkpt lat="44.38548" lon="5.63653">
        <ele>1191.4</ele>
        <time>2021-09-07T15:46:59Z</time>
      </trkpt>
      <trkpt lat="44.38546" lon="5.63653">
        <ele>1191.1</ele>
        <time>2021-09-07T15:47:00Z</time>
      </trkpt>
      <trkpt lat="44.38543" lon="5.63653">
        <ele>1190.9</ele>
        <time>2021-09-07T15:47:01Z</time>
      </trkpt>
      <trkpt lat="44.3854" lon="5.63653">
        <ele>1190.7</ele>
        <time>2021-09-07T15:47:02Z</time>
      </trkpt>
      <trkpt lat="44.38538" lon="5.63653">
        <ele>1190.7</ele>
        <time>2021-09-07T15:47:03Z</time>
      </trkpt>
      <trkpt lat="44.38536" lon="5.63653">
        <ele>1190.6</ele>
        <time>2021-09-07T15:47:04Z</time>
      </trkpt>
      <trkpt lat="44.38534" lon="5.63653">
        <ele>1190.4</ele>
        <time>2021-09-07T15:47:05Z</time>
      </trkpt>
      <trkpt lat="44.3853" lon="5.63653">
        <ele>1190.2</ele>
        <time>2021-09-07T15:47:06Z</time>
      </trkpt>
      <trkpt lat="44.38528" lon="5.63653">
        <ele>1190</ele>
        <time>2021-09-07T15:47:07Z</time>
      </trkpt>
      <trkpt lat="44.38526" lon="5.63653">
        <ele>1190</ele>
        <time>2021-09-07T15:47:08Z</time>
      </trkpt>
      <trkpt lat="44.38523" lon="5.63653">
        <ele>1189.9</ele>
        <time>2021-09-07T15:47:09Z</time>
      </trkpt>
      <trkpt lat="44.38518" lon="5.63652">
        <ele>1189.5</ele>
        <time>2021-09-07T15:47:10Z</time>
      </trkpt>
      <trkpt lat="44.38513" lon="5.63652">
        <ele>1189.3</ele>
        <time>2021-09-07T15:47:11Z</time>
      </trkpt>
      <trkpt lat="44.38509" lon="5.63652">
        <ele>1189</ele>
        <time>2021-09-07T15:47:12Z</time>
      </trkpt>
      <trkpt lat="44.38507" lon="5.63652">
        <ele>1189</ele>
        <time>2021-09-07T15:47:13Z</time>
      </trkpt>
      <trkpt lat="44.38505" lon="5.63652">
        <ele>1188.8</ele>
        <time>2021-09-07T15:47:14Z</time>
      </trkpt>
      <trkpt lat="44.38503" lon="5.6365">
        <ele>1187.6</ele>
        <time>2021-09-07T15:47:15Z</time>
      </trkpt>
      <trkpt lat="44.38502" lon="5.63649">
        <ele>1187.6</ele>
        <time>2021-09-07T15:47:16Z</time>
      </trkpt>
      <trkpt lat="44.38502" lon="5.63647">
        <ele>1187.6</ele>
        <time>2021-09-07T15:47:17Z</time>
      </trkpt>
      <trkpt lat="44.38503" lon="5.63646">
        <ele>1186.7</ele>
        <time>2021-09-07T15:47:18Z</time>
      </trkpt>
      <trkpt lat="44.38503" lon="5.63644">
        <ele>1186.7</ele>
        <time>2021-09-07T15:47:19Z</time>
      </trkpt>
      <trkpt lat="44.38504" lon="5.63642">
        <ele>1187</ele>
        <time>2021-09-07T15:47:20Z</time>
      </trkpt>
      <trkpt lat="44.38505" lon="5.63641">
        <ele>1186</ele>
        <time>2021-09-07T15:47:21Z</time>
      </trkpt>
      <trkpt lat="44.38505" lon="5.6364">
        <ele>1186</ele>
        <time>2021-09-07T15:47:22Z</time>
      </trkpt>
      <trkpt lat="44.38506" lon="5.63638">
        <ele>1186</ele>
        <time>2021-09-07T15:47:23Z</time>
      </trkpt>
      <trkpt lat="44.38507" lon="5.63637">
        <ele>1185.3</ele>
        <time>2021-09-07T15:47:24Z</time>
      </trkpt>
      <trkpt lat="44.38509" lon="5.63637">
        <ele>1185.3</ele>
        <time>2021-09-07T15:47:25Z</time>
      </trkpt>
      <trkpt lat="44.38511" lon="5.63636">
        <ele>1185.5</ele>
        <time>2021-09-07T15:47:26Z</time>
      </trkpt>
      <trkpt lat="44.38515" lon="5.63634">
        <ele>1185.8</ele>
        <time>2021-09-07T15:47:27Z</time>
      </trkpt>
      <trkpt lat="44.38519" lon="5.63632">
        <ele>1185.2</ele>
        <time>2021-09-07T15:47:28Z</time>
      </trkpt>
      <trkpt lat="44.38523" lon="5.63631">
        <ele>1185.4</ele>
        <time>2021-09-07T15:47:29Z</time>
      </trkpt>
      <trkpt lat="44.38526" lon="5.6363">
        <ele>1185.6</ele>
        <time>2021-09-07T15:47:30Z</time>
      </trkpt>
      <trkpt lat="44.38529" lon="5.63628">
        <ele>1184.9</ele>
        <time>2021-09-07T15:47:31Z</time>
      </trkpt>
      <trkpt lat="44.38536" lon="5.63626">
        <ele>1185.3</ele>
        <time>2021-09-07T15:47:32Z</time>
      </trkpt>
      <trkpt lat="44.38542" lon="5.63625">
        <ele>1185.8</ele>
        <time>2021-09-07T15:47:33Z</time>
      </trkpt>
      <trkpt lat="44.38547" lon="5.63623">
        <ele>1185.5</ele>
        <time>2021-09-07T15:47:34Z</time>
      </trkpt>
      <trkpt lat="44.38552" lon="5.63621">
        <ele>1185.8</ele>
        <time>2021-09-07T15:47:35Z</time>
      </trkpt>
      <trkpt lat="44.38555" lon="5.63623">
        <ele>1186.2</ele>
        <time>2021-09-07T15:47:36Z</time>
      </trkpt>
      <trkpt lat="44.38557" lon="5.63625">
        <ele>1187.4</ele>
        <time>2021-09-07T15:47:37Z</time>
      </trkpt>
      <trkpt lat="44.38561" lon="5.63621">
        <ele>1186.8</ele>
        <time>2021-09-07T15:47:38Z</time>
      </trkpt>
      <trkpt lat="44.38562" lon="5.63619">
        <ele>1186.3</ele>
        <time>2021-09-07T15:47:39Z</time>
      </trkpt>
      <trkpt lat="44.38563" lon="5.63616">
        <ele>1186.3</ele>
        <time>2021-09-07T15:47:40Z</time>
      </trkpt>
      <trkpt lat="44.38563" lon="5.63612">
        <ele>1185.5</ele>
        <time>2021-09-07T15:47:41Z</time>
      </trkpt>
      <trkpt lat="44.38562" lon="5.6361">
        <ele>1184.8</ele>
        <time>2021-09-07T15:47:42Z</time>
      </trkpt>
      <trkpt lat="44.3856" lon="5.63607">
        <ele>1183.7</ele>
        <time>2021-09-07T15:47:43Z</time>
      </trkpt>
      <trkpt lat="44.38558" lon="5.63605">
        <ele>1183.4</ele>
        <time>2021-09-07T15:47:44Z</time>
      </trkpt>
      <trkpt lat="44.38556" lon="5.63604">
        <ele>1183.1</ele>
        <time>2021-09-07T15:47:45Z</time>
      </trkpt>
      <trkpt lat="44.38553" lon="5.63602">
        <ele>1182.4</ele>
        <time>2021-09-07T15:47:46Z</time>
      </trkpt>
      <trkpt lat="44.38549" lon="5.636">
        <ele>1181.8</ele>
        <time>2021-09-07T15:47:47Z</time>
      </trkpt>
      <trkpt lat="44.38543" lon="5.63595">
        <ele>1180</ele>
        <time>2021-09-07T15:47:48Z</time>
      </trkpt>
      <trkpt lat="44.38537" lon="5.6359">
        <ele>1177.5</ele>
        <time>2021-09-07T15:47:49Z</time>
      </trkpt>
      <trkpt lat="44.38533" lon="5.63588">
        <ele>1177.2</ele>
        <time>2021-09-07T15:47:50Z</time>
      </trkpt>
      <trkpt lat="44.38529" lon="5.63586">
        <ele>1176.8</ele>
        <time>2021-09-07T15:47:51Z</time>
      </trkpt>
      <trkpt lat="44.38526" lon="5.63585">
        <ele>1175.4</ele>
        <time>2021-09-07T15:47:52Z</time>
      </trkpt>
      <trkpt lat="44.38522" lon="5.63583">
        <ele>1175</ele>
        <time>2021-09-07T15:47:53Z</time>
      </trkpt>
      <trkpt lat="44.38517" lon="5.63583">
        <ele>1174.2</ele>
        <time>2021-09-07T15:47:54Z</time>
      </trkpt>
      <trkpt lat="44.38507" lon="5.63582">
        <ele>1173.3</ele>
        <time>2021-09-07T15:47:55Z</time>
      </trkpt>
      <trkpt lat="44.385" lon="5.63583">
        <ele>1172.5</ele>
        <time>2021-09-07T15:47:56Z</time>
      </trkpt>
      <trkpt lat="44.38493" lon="5.63586">
        <ele>1173.1</ele>
        <time>2021-09-07T15:47:57Z</time>
      </trkpt>
      <trkpt lat="44.38485" lon="5.63589">
        <ele>1172.6</ele>
        <time>2021-09-07T15:47:58Z</time>
      </trkpt>
      <trkpt lat="44.38475" lon="5.63594">
        <ele>1173.1</ele>
        <time>2021-09-07T15:47:59Z</time>
      </trkpt>
      <trkpt lat="44.38465" lon="5.63599">
        <ele>1175.1</ele>
        <time>2021-09-07T15:48:00Z</time>
      </trkpt>
      <trkpt lat="44.38454" lon="5.63604">
        <ele>1175.6</ele>
        <time>2021-09-07T15:48:01Z</time>
      </trkpt>
      <trkpt lat="44.38443" lon="5.63608">
        <ele>1176</ele>
        <time>2021-09-07T15:48:02Z</time>
      </trkpt>
      <trkpt lat="44.38434" lon="5.63612">
        <ele>1176.4</ele>
        <time>2021-09-07T15:48:03Z</time>
      </trkpt>
      <trkpt lat="44.38424" lon="5.63616">
        <ele>1177</ele>
        <time>2021-09-07T15:48:04Z</time>
      </trkpt>
      <trkpt lat="44.38414" lon="5.63619">
        <ele>1176.6</ele>
        <time>2021-09-07T15:48:05Z</time>
      </trkpt>
      <trkpt lat="44.38405" lon="5.63623">
        <ele>1177.5</ele>
        <time>2021-09-07T15:48:06Z</time>
      </trkpt>
      <trkpt lat="44.38397" lon="5.63626">
        <ele>1178.6</ele>
        <time>2021-09-07T15:48:07Z</time>
      </trkpt>
      <trkpt lat="44.38389" lon="5.63629">
        <ele>1179.4</ele>
        <time>2021-09-07T15:48:08Z</time>
      </trkpt>
      <trkpt lat="44.38382" lon="5.63632">
        <ele>1179.2</ele>
        <time>2021-09-07T15:48:09Z</time>
      </trkpt>
      <trkpt lat="44.38377" lon="5.63634">
        <ele>1180</ele>
        <time>2021-09-07T15:48:10Z</time>
      </trkpt>
      <trkpt lat="44.38371" lon="5.63636">
        <ele>1179.8</ele>
        <time>2021-09-07T15:48:11Z</time>
      </trkpt>
      <trkpt lat="44.38367" lon="5.63639">
        <ele>1180.6</ele>
        <time>2021-09-07T15:48:12Z</time>
      </trkpt>
      <trkpt lat="44.38364" lon="5.63641">
        <ele>1180.5</ele>
        <time>2021-09-07T15:48:13Z</time>
      </trkpt>
      <trkpt lat="44.38361" lon="5.63642">
        <ele>1181.1</ele>
        <time>2021-09-07T15:48:14Z</time>
      </trkpt>
      <trkpt lat="44.38358" lon="5.63644">
        <ele>1181</ele>
        <time>2021-09-07T15:48:15Z</time>
      </trkpt>
      <trkpt lat="44.38355" lon="5.63645">
        <ele>1180.9</ele>
        <time>2021-09-07T15:48:16Z</time>
      </trkpt>
      <trkpt lat="44.38352" lon="5.63646">
        <ele>1181.5</ele>
        <time>2021-09-07T15:48:17Z</time>
      </trkpt>
      <trkpt lat="44.38351" lon="5.63647">
        <ele>1181.5</ele>
        <time>2021-09-07T15:48:18Z</time>
      </trkpt>
      <trkpt lat="44.38349" lon="5.63648">
        <ele>1181.4</ele>
        <time>2021-09-07T15:48:19Z</time>
      </trkpt>
      <trkpt lat="44.38348" lon="5.6365">
        <ele>1181.4</ele>
        <time>2021-09-07T15:48:20Z</time>
      </trkpt>
      <trkpt lat="44.38346" lon="5.63651">
        <ele>1182</ele>
        <time>2021-09-07T15:48:21Z</time>
      </trkpt>
      <trkpt lat="44.38345" lon="5.63651">
        <ele>1182.1</ele>
        <time>2021-09-07T15:48:22Z</time>
      </trkpt>
      <trkpt lat="44.38345" lon="5.63652">
        <ele>1182.1</ele>
        <time>2021-09-07T15:48:23Z</time>
      </trkpt>
      <trkpt lat="44.38344" lon="5.63652">
        <ele>1181.9</ele>
        <time>2021-09-07T15:48:24Z</time>
      </trkpt>
      <trkpt lat="44.38344" lon="5.63652">
        <ele>1181.9</ele>
        <time>2021-09-07T15:48:25Z</time>
      </trkpt>
      <trkpt lat="44.38344" lon="5.63652">
        <ele>1181.9</ele>
        <time>2021-09-07T15:48:26Z</time>
      </trkpt>
      <trkpt lat="44.38344" lon="5.63653">
        <ele>1182</ele>
        <time>2021-09-07T15:48:27Z</time>
      </trkpt>
      <trkpt lat="44.38343" lon="5.63653">
        <ele>1182</ele>
        <time>2021-09-07T15:48:28Z</time>
      </trkpt>
      <trkpt lat="44.38343" lon="5.63653">
        <ele>1182</ele>
        <time>2021-09-07T15:48:29Z</time>
      </trkpt>
      <trkpt lat="44.38343" lon="5.63653">
        <ele>1182</ele>
        <time>2021-09-07T15:48:30Z</time>
      </trkpt>
      <trkpt lat="44.38343" lon="5.63653">
        <ele>1182</ele>
        <time>2021-09-07T15:48:31Z</time>
      </trkpt>
      <trkpt lat="44.38343" lon="5.63653">
        <ele>1182</ele>
        <time>2021-09-07T15:48:32Z</time>
      </trkpt>
      <trkpt lat="44.38343" lon="5.63653">
        <ele>1182</ele>
        <time>2021-09-07T15:48:33Z</time>
      </trkpt>
      <trkpt lat="44.38343" lon="5.63653">
        <ele>1182</ele>
        <time>2021-09-07T15:48:34Z</time>
      </trkpt>
      <trkpt lat="44.38343" lon="5.63653">
        <ele>1182</ele>
        <time>2021-09-07T15:48:35Z</time>
      </trkpt>
      <trkpt lat="44.38343" lon="5.63653">
        <ele>1182.1</ele>
        <time>2021-09-07T15:48:36Z</time>
      </trkpt>
      <trkpt lat="44.38343" lon="5.63653">
        <ele>1182.1</ele>
        <time>2021-09-07T15:48:37Z</time>
      </trkpt>
      <trkpt lat="44.38343" lon="5.63653">
        <ele>1182.1</ele>
        <time>2021-09-07T15:48:38Z</time>
      </trkpt>
      <trkpt lat="44.38342" lon="5.63653">
        <ele>1182.1</ele>
        <time>2021-09-07T15:48:39Z</time>
      </trkpt>
      <trkpt lat="44.38342" lon="5.63653">
        <ele>1182.1</ele>
        <time>2021-09-07T15:48:40Z</time>
      </trkpt>
      <trkpt lat="44.38342" lon="5.63653">
        <ele>1182.1</ele>
        <time>2021-09-07T15:48:41Z</time>
      </trkpt>
      <trkpt lat="44.38342" lon="5.63653">
        <ele>1182.1</ele>
        <time>2021-09-07T15:48:42Z</time>
      </trkpt>
      <trkpt lat="44.38342" lon="5.63653">
        <ele>1182.1</ele>
        <time>2021-09-07T15:48:43Z</time>
      </trkpt>
      <trkpt lat="44.38342" lon="5.63653">
        <ele>1182.1</ele>
        <time>2021-09-07T15:48:44Z</time>
      </trkpt>
      <trkpt lat="44.38342" lon="5.63653">
        <ele>1182.2</ele>
        <time>2021-09-07T15:48:45Z</time>
      </trkpt>
      <trkpt lat="44.38342" lon="5.63653">
        <ele>1182.2</ele>
        <time>2021-09-07T15:48:46Z</time>
      </trkpt>
      <trkpt lat="44.38342" lon="5.63653">
        <ele>1182.2</ele>
        <time>2021-09-07T15:48:47Z</time>
      </trkpt>
      <trkpt lat="44.38342" lon="5.63653">
        <ele>1182.2</ele>
        <time>2021-09-07T15:48:48Z</time>
      </trkpt>
      <trkpt lat="44.38342" lon="5.63653">
        <ele>1182.2</ele>
        <time>2021-09-07T15:48:49Z</time>
      </trkpt>
      <trkpt lat="44.38342" lon="5.63653">
        <ele>1182.2</ele>
        <time>2021-09-07T15:48:50Z</time>
      </trkpt>
      <trkpt lat="44.38342" lon="5.63653">
        <ele>1182.2</ele>
        <time>2021-09-07T15:48:51Z</time>
      </trkpt>
      <trkpt lat="44.38342" lon="5.63654">
        <ele>1182.2</ele>
        <time>2021-09-07T15:48:52Z</time>
      </trkpt>
      <trkpt lat="44.38342" lon="5.63654">
        <ele>1182.2</ele>
        <time>2021-09-07T15:48:53Z</time>
      </trkpt>
      <trkpt lat="44.38342" lon="5.63654">
        <ele>1182.3</ele>
        <time>2021-09-07T15:48:54Z</time>
      </trkpt>
      <trkpt lat="44.38343" lon="5.63654">
        <ele>1182.3</ele>
        <time>2021-09-07T15:48:55Z</time>
      </trkpt>
      <trkpt lat="44.38343" lon="5.63654">
        <ele>1182.3</ele>
        <time>2021-09-07T15:48:56Z</time>
      </trkpt>
      <trkpt lat="44.38343" lon="5.63654">
        <ele>1182.3</ele>
        <time>2021-09-07T15:48:57Z</time>
      </trkpt>
      <trkpt lat="44.38343" lon="5.63654">
        <ele>1182.3</ele>
        <time>2021-09-07T15:48:58Z</time>
      </trkpt>
      <trkpt lat="44.38343" lon="5.63654">
        <ele>1182.3</ele>
        <time>2021-09-07T15:48:59Z</time>
      </trkpt>
      <trkpt lat="44.38343" lon="5.63654">
        <ele>1182.3</ele>
        <time>2021-09-07T15:49:00Z</time>
      </trkpt>
      <trkpt lat="44.38343" lon="5.63654">
        <ele>1182.3</ele>
        <time>2021-09-07T15:49:01Z</time>
      </trkpt>
      <trkpt lat="44.38343" lon="5.63654">
        <ele>1182.3</ele>
        <time>2021-09-07T15:49:02Z</time>
      </trkpt>
      <trkpt lat="44.38343" lon="5.63654">
        <ele>1182.4</ele>
        <time>2021-09-07T15:49:03Z</time>
      </trkpt>
      <trkpt lat="44.38343" lon="5.63655">
        <ele>1183.1</ele>
        <time>2021-09-07T15:49:04Z</time>
      </trkpt>
      <trkpt lat="44.38342" lon="5.63655">
        <ele>1183.1</ele>
        <time>2021-09-07T15:49:05Z</time>
      </trkpt>
      <trkpt lat="44.3834" lon="5.63656">
        <ele>1182.9</ele>
        <time>2021-09-07T15:49:06Z</time>
      </trkpt>
      <trkpt lat="44.3834" lon="5.63657">
        <ele>1183</ele>
        <time>2021-09-07T15:49:07Z</time>
      </trkpt>
      <trkpt lat="44.38339" lon="5.63658">
        <ele>1183</ele>
        <time>2021-09-07T15:49:08Z</time>
      </trkpt>
      <trkpt lat="44.38338" lon="5.63658">
        <ele>1183</ele>
        <time>2021-09-07T15:49:09Z</time>
      </trkpt>
      <trkpt lat="44.38338" lon="5.63659">
        <ele>1182.8</ele>
        <time>2021-09-07T15:49:10Z</time>
      </trkpt>
      <trkpt lat="44.38337" lon="5.63659">
        <ele>1183.6</ele>
        <time>2021-09-07T15:49:11Z</time>
      </trkpt>
      <trkpt lat="44.38337" lon="5.6366">
        <ele>1183.6</ele>
        <time>2021-09-07T15:49:12Z</time>
      </trkpt>
      <trkpt lat="44.38337" lon="5.63661">
        <ele>1183.6</ele>
        <time>2021-09-07T15:49:13Z</time>
      </trkpt>
      <trkpt lat="44.38336" lon="5.63661">
        <ele>1183.6</ele>
        <time>2021-09-07T15:49:14Z</time>
      </trkpt>
      <trkpt lat="44.38336" lon="5.63661">
        <ele>1183.6</ele>
        <time>2021-09-07T15:49:15Z</time>
      </trkpt>
      <trkpt lat="44.38336" lon="5.63662">
        <ele>1183.6</ele>
        <time>2021-09-07T15:49:16Z</time>
      </trkpt>
      <trkpt lat="44.38336" lon="5.63662">
        <ele>1183.6</ele>
        <time>2021-09-07T15:49:17Z</time>
      </trkpt>
      <trkpt lat="44.38336" lon="5.63662">
        <ele>1183.6</ele>
        <time>2021-09-07T15:49:18Z</time>
      </trkpt>
      <trkpt lat="44.38335" lon="5.63663">
        <ele>1183.6</ele>
        <time>2021-09-07T15:49:19Z</time>
      </trkpt>
      <trkpt lat="44.38335" lon="5.63663">
        <ele>1183.7</ele>
        <time>2021-09-07T15:49:20Z</time>
      </trkpt>
      <trkpt lat="44.38335" lon="5.63663">
        <ele>1183.7</ele>
        <time>2021-09-07T15:49:21Z</time>
      </trkpt>
      <trkpt lat="44.38335" lon="5.63663">
        <ele>1183.7</ele>
        <time>2021-09-07T15:49:22Z</time>
      </trkpt>
      <trkpt lat="44.38335" lon="5.63663">
        <ele>1183.7</ele>
        <time>2021-09-07T15:49:23Z</time>
      </trkpt>
      <trkpt lat="44.38335" lon="5.63663">
        <ele>1183.7</ele>
        <time>2021-09-07T15:49:24Z</time>
      </trkpt>
      <trkpt lat="44.38335" lon="5.63664">
        <ele>1184.5</ele>
        <time>2021-09-07T15:49:25Z</time>
      </trkpt>
      <trkpt lat="44.38335" lon="5.63664">
        <ele>1184.5</ele>
        <time>2021-09-07T15:49:26Z</time>
      </trkpt>
      <trkpt lat="44.38335" lon="5.63664">
        <ele>1184.5</ele>
        <time>2021-09-07T15:49:27Z</time>
      </trkpt>
      <trkpt lat="44.38335" lon="5.63664">
        <ele>1184.5</ele>
        <time>2021-09-07T15:49:28Z</time>
      </trkpt>
      <trkpt lat="44.38335" lon="5.63664">
        <ele>1184.5</ele>
        <time>2021-09-07T15:49:29Z</time>
      </trkpt>
      <trkpt lat="44.38336" lon="5.63666">
        <ele>1184.5</ele>
        <time>2021-09-07T15:49:30Z</time>
      </trkpt>
      <trkpt lat="44.38336" lon="5.63669">
        <ele>1185.3</ele>
        <time>2021-09-07T15:49:31Z</time>
      </trkpt>
      <trkpt lat="44.38337" lon="5.63671">
        <ele>1185.3</ele>
        <time>2021-09-07T15:49:32Z</time>
      </trkpt>
      <trkpt lat="44.38338" lon="5.63673">
        <ele>1186.1</ele>
        <time>2021-09-07T15:49:33Z</time>
      </trkpt>
      <trkpt lat="44.38338" lon="5.63675">
        <ele>1186.3</ele>
        <time>2021-09-07T15:49:34Z</time>
      </trkpt>
      <trkpt lat="44.38338" lon="5.63676">
        <ele>1187.1</ele>
        <time>2021-09-07T15:49:35Z</time>
      </trkpt>
      <trkpt lat="44.38338" lon="5.63677">
        <ele>1187.1</ele>
        <time>2021-09-07T15:49:36Z</time>
      </trkpt>
      <trkpt lat="44.38338" lon="5.63678">
        <ele>1187.1</ele>
        <time>2021-09-07T15:49:37Z</time>
      </trkpt>
      <trkpt lat="44.38338" lon="5.63679">
        <ele>1187.1</ele>
        <time>2021-09-07T15:49:38Z</time>
      </trkpt>
      <trkpt lat="44.38338" lon="5.6368">
        <ele>1187.1</ele>
        <time>2021-09-07T15:49:39Z</time>
      </trkpt>
      <trkpt lat="44.38338" lon="5.6368">
        <ele>1187.1</ele>
        <time>2021-09-07T15:49:40Z</time>
      </trkpt>
      <trkpt lat="44.38338" lon="5.6368">
        <ele>1187.2</ele>
        <time>2021-09-07T15:49:41Z</time>
      </trkpt>
      <trkpt lat="44.38338" lon="5.6368">
        <ele>1187.2</ele>
        <time>2021-09-07T15:49:42Z</time>
      </trkpt>
      <trkpt lat="44.38338" lon="5.6368">
        <ele>1187.2</ele>
        <time>2021-09-07T15:49:43Z</time>
      </trkpt>
      <trkpt lat="44.38338" lon="5.63681">
        <ele>1187.9</ele>
        <time>2021-09-07T15:49:44Z</time>
      </trkpt>
      <trkpt lat="44.38338" lon="5.63681">
        <ele>1187.9</ele>
        <time>2021-09-07T15:49:45Z</time>
      </trkpt>
      <trkpt lat="44.38338" lon="5.63681">
        <ele>1187.9</ele>
        <time>2021-09-07T15:49:46Z</time>
      </trkpt>
      <trkpt lat="44.38338" lon="5.63681">
        <ele>1187.9</ele>
        <time>2021-09-07T15:49:47Z</time>
      </trkpt>
      <trkpt lat="44.38338" lon="5.63681">
        <ele>1187.9</ele>
        <time>2021-09-07T15:49:48Z</time>
      </trkpt>
      <trkpt lat="44.38338" lon="5.63681">
        <ele>1187.9</ele>
        <time>2021-09-07T15:49:49Z</time>
      </trkpt>
      <trkpt lat="44.38338" lon="5.63681">
        <ele>1188</ele>
        <time>2021-09-07T15:49:50Z</time>
      </trkpt>
      <trkpt lat="44.38338" lon="5.63681">
        <ele>1188</ele>
        <time>2021-09-07T15:49:51Z</time>
      </trkpt>
      <trkpt lat="44.38338" lon="5.63681">
        <ele>1188</ele>
        <time>2021-09-07T15:49:52Z</time>
      </trkpt>
      <trkpt lat="44.38338" lon="5.63681">
        <ele>1188</ele>
        <time>2021-09-07T15:49:53Z</time>
      </trkpt>
      <trkpt lat="44.38338" lon="5.63681">
        <ele>1188</ele>
        <time>2021-09-07T15:49:54Z</time>
      </trkpt>
      <trkpt lat="44.38338" lon="5.63681">
        <ele>1187.8</ele>
        <time>2021-09-07T15:49:55Z</time>
      </trkpt>
      <trkpt lat="44.38337" lon="5.6368">
        <ele>1187.1</ele>
        <time>2021-09-07T15:49:56Z</time>
      </trkpt>
      <trkpt lat="44.38336" lon="5.63679">
        <ele>1187.1</ele>
        <time>2021-09-07T15:49:57Z</time>
      </trkpt>
      <trkpt lat="44.38334" lon="5.63677">
        <ele>1186.9</ele>
        <time>2021-09-07T15:49:58Z</time>
      </trkpt>
      <trkpt lat="44.38333" lon="5.63676">
        <ele>1186.9</ele>
        <time>2021-09-07T15:49:59Z</time>
      </trkpt>
      <trkpt lat="44.38332" lon="5.63675">
        <ele>1186.2</ele>
        <time>2021-09-07T15:50:00Z</time>
      </trkpt>
      <trkpt lat="44.38331" lon="5.63672">
        <ele>1186</ele>
        <time>2021-09-07T15:50:01Z</time>
      </trkpt>
      <trkpt lat="44.38331" lon="5.63666">
        <ele>1184.5</ele>
        <time>2021-09-07T15:50:02Z</time>
      </trkpt>
      <trkpt lat="44.38332" lon="5.63662">
        <ele>1183.9</ele>
        <time>2021-09-07T15:50:03Z</time>
      </trkpt>
      <trkpt lat="44.38333" lon="5.63658">
        <ele>1183.2</ele>
        <time>2021-09-07T15:50:04Z</time>
      </trkpt>
      <trkpt lat="44.38335" lon="5.63652">
        <ele>1182.7</ele>
        <time>2021-09-07T15:50:05Z</time>
      </trkpt>
      <trkpt lat="44.38336" lon="5.63646">
        <ele>1182</ele>
        <time>2021-09-07T15:50:06Z</time>
      </trkpt>
      <trkpt lat="44.38338" lon="5.63639">
        <ele>1180.7</ele>
        <time>2021-09-07T15:50:07Z</time>
      </trkpt>
      <trkpt lat="44.38339" lon="5.63634">
        <ele>1180</ele>
        <time>2021-09-07T15:50:08Z</time>
      </trkpt>
      <trkpt lat="44.3834" lon="5.63631">
        <ele>1179.1</ele>
        <time>2021-09-07T15:50:09Z</time>
      </trkpt>
      <trkpt lat="44.38341" lon="5.63627">
        <ele>1178.4</ele>
        <time>2021-09-07T15:50:10Z</time>
      </trkpt>
      <trkpt lat="44.38343" lon="5.63622">
        <ele>1177.5</ele>
        <time>2021-09-07T15:50:11Z</time>
      </trkpt>
      <trkpt lat="44.38344" lon="5.63618">
        <ele>1176.6</ele>
        <time>2021-09-07T15:50:12Z</time>
      </trkpt>
      <trkpt lat="44.38347" lon="5.63613">
        <ele>1175.8</ele>
        <time>2021-09-07T15:50:13Z</time>
      </trkpt>
      <trkpt lat="44.38349" lon="5.6361">
        <ele>1175</ele>
        <time>2021-09-07T15:50:14Z</time>
      </trkpt>
      <trkpt lat="44.38353" lon="5.63604">
        <ele>1174.3</ele>
        <time>2021-09-07T15:50:15Z</time>
      </trkpt>
      <trkpt lat="44.38356" lon="5.63598">
        <ele>1172.4</ele>
        <time>2021-09-07T15:50:16Z</time>
      </trkpt>
      <trkpt lat="44.3836" lon="5.63592">
        <ele>1171.7</ele>
        <time>2021-09-07T15:50:17Z</time>
      </trkpt>
      <trkpt lat="44.38364" lon="5.63586">
        <ele>1170.9</ele>
        <time>2021-09-07T15:50:18Z</time>
      </trkpt>
      <trkpt lat="44.38369" lon="5.6358">
        <ele>1169.1</ele>
        <time>2021-09-07T15:50:19Z</time>
      </trkpt>
      <trkpt lat="44.38373" lon="5.63573">
        <ele>1168.1</ele>
        <time>2021-09-07T15:50:20Z</time>
      </trkpt>
      <trkpt lat="44.38377" lon="5.63568">
        <ele>1166.3</ele>
        <time>2021-09-07T15:50:21Z</time>
      </trkpt>
      <trkpt lat="44.3838" lon="5.63563">
        <ele>1165.5</ele>
        <time>2021-09-07T15:50:22Z</time>
      </trkpt>
      <trkpt lat="44.38382" lon="5.63557">
        <ele>1164.7</ele>
        <time>2021-09-07T15:50:23Z</time>
      </trkpt>
      <trkpt lat="44.38383" lon="5.63553">
        <ele>1163.9</ele>
        <time>2021-09-07T15:50:24Z</time>
      </trkpt>
      <trkpt lat="44.38385" lon="5.63549">
        <ele>1163.2</ele>
        <time>2021-09-07T15:50:25Z</time>
      </trkpt>
      <trkpt lat="44.38387" lon="5.63544">
        <ele>1162.6</ele>
        <time>2021-09-07T15:50:26Z</time>
      </trkpt>
      <trkpt lat="44.3839" lon="5.63542">
        <ele>1161.8</ele>
        <time>2021-09-07T15:50:27Z</time>
      </trkpt>
      <trkpt lat="44.38391" lon="5.63542">
        <ele>1161.9</ele>
        <time>2021-09-07T15:50:28Z</time>
      </trkpt>
      <trkpt lat="44.38392" lon="5.63541">
        <ele>1161.9</ele>
        <time>2021-09-07T15:50:29Z</time>
      </trkpt>
      <trkpt lat="44.38393" lon="5.6354">
        <ele>1161.9</ele>
        <time>2021-09-07T15:50:30Z</time>
      </trkpt>
      <trkpt lat="44.38393" lon="5.63539">
        <ele>1161.9</ele>
        <time>2021-09-07T15:50:31Z</time>
      </trkpt>
      <trkpt lat="44.38393" lon="5.63539">
        <ele>1161.1</ele>
        <time>2021-09-07T15:50:32Z</time>
      </trkpt>
      <trkpt lat="44.38392" lon="5.63538">
        <ele>1161.1</ele>
        <time>2021-09-07T15:50:33Z</time>
      </trkpt>
      <trkpt lat="44.38392" lon="5.63538">
        <ele>1161.1</ele>
        <time>2021-09-07T15:50:34Z</time>
      </trkpt>
      <trkpt lat="44.38392" lon="5.63539">
        <ele>1161.9</ele>
        <time>2021-09-07T15:50:35Z</time>
      </trkpt>
      <trkpt lat="44.38392" lon="5.63539">
        <ele>1162</ele>
        <time>2021-09-07T15:50:36Z</time>
      </trkpt>
      <trkpt lat="44.38392" lon="5.63539">
        <ele>1162</ele>
        <time>2021-09-07T15:50:37Z</time>
      </trkpt>
      <trkpt lat="44.38392" lon="5.63539">
        <ele>1162</ele>
        <time>2021-09-07T15:50:38Z</time>
      </trkpt>
      <trkpt lat="44.38392" lon="5.63539">
        <ele>1162</ele>
        <time>2021-09-07T15:50:39Z</time>
      </trkpt>
      <trkpt lat="44.38391" lon="5.63539">
        <ele>1162</ele>
        <time>2021-09-07T15:50:40Z</time>
      </trkpt>
      <trkpt lat="44.38391" lon="5.63539">
        <ele>1162</ele>
        <time>2021-09-07T15:50:41Z</time>
      </trkpt>
      <trkpt lat="44.38391" lon="5.63539">
        <ele>1162</ele>
        <time>2021-09-07T15:50:42Z</time>
      </trkpt>
      <trkpt lat="44.38391" lon="5.63539">
        <ele>1162</ele>
        <time>2021-09-07T15:50:43Z</time>
      </trkpt>
      <trkpt lat="44.38391" lon="5.63539">
        <ele>1162</ele>
        <time>2021-09-07T15:50:44Z</time>
      </trkpt>
      <trkpt lat="44.38392" lon="5.63539">
        <ele>1162.1</ele>
        <time>2021-09-07T15:50:45Z</time>
      </trkpt>
      <trkpt lat="44.38392" lon="5.63539">
        <ele>1162.1</ele>
        <time>2021-09-07T15:50:46Z</time>
      </trkpt>
      <trkpt lat="44.38392" lon="5.63539">
        <ele>1162.1</ele>
        <time>2021-09-07T15:50:47Z</time>
      </trkpt>
      <trkpt lat="44.38392" lon="5.63539">
        <ele>1162.1</ele>
        <time>2021-09-07T15:50:48Z</time>
      </trkpt>
      <trkpt lat="44.38392" lon="5.63539">
        <ele>1162.1</ele>
        <time>2021-09-07T15:50:49Z</time>
      </trkpt>
      <trkpt lat="44.38391" lon="5.63539">
        <ele>1162.1</ele>
        <time>2021-09-07T15:50:50Z</time>
      </trkpt>
      <trkpt lat="44.38391" lon="5.63539">
        <ele>1161.3</ele>
        <time>2021-09-07T15:50:51Z</time>
      </trkpt>
      <trkpt lat="44.38391" lon="5.63538">
        <ele>1161.3</ele>
        <time>2021-09-07T15:50:52Z</time>
      </trkpt>
      <trkpt lat="44.38391" lon="5.63538">
        <ele>1161.3</ele>
        <time>2021-09-07T15:50:53Z</time>
      </trkpt>
      <trkpt lat="44.38391" lon="5.63538">
        <ele>1161.3</ele>
        <time>2021-09-07T15:50:54Z</time>
      </trkpt>
      <trkpt lat="44.38391" lon="5.63538">
        <ele>1161.3</ele>
        <time>2021-09-07T15:50:55Z</time>
      </trkpt>
      <trkpt lat="44.38391" lon="5.63538">
        <ele>1161.3</ele>
        <time>2021-09-07T15:50:56Z</time>
      </trkpt>
      <trkpt lat="44.38391" lon="5.63538">
        <ele>1161.4</ele>
        <time>2021-09-07T15:50:57Z</time>
      </trkpt>
      <trkpt lat="44.38391" lon="5.63538">
        <ele>1161.4</ele>
        <time>2021-09-07T15:50:58Z</time>
      </trkpt>
      <trkpt lat="44.38391" lon="5.63537">
        <ele>1161.4</ele>
        <time>2021-09-07T15:50:59Z</time>
      </trkpt>
      <trkpt lat="44.38391" lon="5.63537">
        <ele>1161.4</ele>
        <time>2021-09-07T15:51:00Z</time>
      </trkpt>
      <trkpt lat="44.38391" lon="5.63537">
        <ele>1161.4</ele>
        <time>2021-09-07T15:51:01Z</time>
      </trkpt>
      <trkpt lat="44.38391" lon="5.63537">
        <ele>1161.4</ele>
        <time>2021-09-07T15:51:02Z</time>
      </trkpt>
      <trkpt lat="44.38391" lon="5.63537">
        <ele>1161.4</ele>
        <time>2021-09-07T15:51:03Z</time>
      </trkpt>
      <trkpt lat="44.38391" lon="5.63537">
        <ele>1161.4</ele>
        <time>2021-09-07T15:51:04Z</time>
      </trkpt>
      <trkpt lat="44.3839" lon="5.63537">
        <ele>1161.4</ele>
        <time>2021-09-07T15:51:05Z</time>
      </trkpt>
      <trkpt lat="44.3839" lon="5.63537">
        <ele>1161.4</ele>
        <time>2021-09-07T15:51:06Z</time>
      </trkpt>
      <trkpt lat="44.3839" lon="5.63537">
        <ele>1161.4</ele>
        <time>2021-09-07T15:51:07Z</time>
      </trkpt>
      <trkpt lat="44.3839" lon="5.63537">
        <ele>1161.4</ele>
        <time>2021-09-07T15:51:08Z</time>
      </trkpt>
      <trkpt lat="44.3839" lon="5.63537">
        <ele>1161.4</ele>
        <time>2021-09-07T15:51:09Z</time>
      </trkpt>
      <trkpt lat="44.3839" lon="5.63537">
        <ele>1161.4</ele>
        <time>2021-09-07T15:51:10Z</time>
      </trkpt>
      <trkpt lat="44.3839" lon="5.63537">
        <ele>1161.4</ele>
        <time>2021-09-07T15:51:11Z</time>
      </trkpt>
      <trkpt lat="44.3839" lon="5.63537">
        <ele>1161.5</ele>
        <time>2021-09-07T15:51:12Z</time>
      </trkpt>
      <trkpt lat="44.3839" lon="5.63537">
        <ele>1161.5</ele>
        <time>2021-09-07T15:51:13Z</time>
      </trkpt>
      <trkpt lat="44.38391" lon="5.63538">
        <ele>1161.5</ele>
        <time>2021-09-07T15:51:14Z</time>
      </trkpt>
      <trkpt lat="44.38391" lon="5.63538">
        <ele>1161.6</ele>
        <time>2021-09-07T15:51:15Z</time>
      </trkpt>
      <trkpt lat="44.38391" lon="5.63538">
        <ele>1161.6</ele>
        <time>2021-09-07T15:51:16Z</time>
      </trkpt>
      <trkpt lat="44.38391" lon="5.63538">
        <ele>1161.6</ele>
        <time>2021-09-07T15:51:17Z</time>
      </trkpt>
      <trkpt lat="44.38391" lon="5.63538">
        <ele>1161.6</ele>
        <time>2021-09-07T15:51:18Z</time>
      </trkpt>
      <trkpt lat="44.38391" lon="5.63538">
        <ele>1161.6</ele>
        <time>2021-09-07T15:51:19Z</time>
      </trkpt>
      <trkpt lat="44.3839" lon="5.63537">
        <ele>1161.5</ele>
        <time>2021-09-07T15:51:20Z</time>
      </trkpt>
      <trkpt lat="44.38391" lon="5.63537">
        <ele>1161.6</ele>
        <time>2021-09-07T15:51:21Z</time>
      </trkpt>
      <trkpt lat="44.38391" lon="5.63536">
        <ele>1161.6</ele>
        <time>2021-09-07T15:51:22Z</time>
      </trkpt>
      <trkpt lat="44.38392" lon="5.63534">
        <ele>1160.8</ele>
        <time>2021-09-07T15:51:23Z</time>
      </trkpt>
      <trkpt lat="44.38393" lon="5.63531">
        <ele>1160.8</ele>
        <time>2021-09-07T15:51:24Z</time>
      </trkpt>
      <trkpt lat="44.38395" lon="5.63523">
        <ele>1159.2</ele>
        <time>2021-09-07T15:51:25Z</time>
      </trkpt>
      <trkpt lat="44.38398" lon="5.63519">
        <ele>1158.4</ele>
        <time>2021-09-07T15:51:26Z</time>
      </trkpt>
      <trkpt lat="44.384" lon="5.63514">
        <ele>1157.7</ele>
        <time>2021-09-07T15:51:27Z</time>
      </trkpt>
      <trkpt lat="44.38404" lon="5.63506">
        <ele>1156.3</ele>
        <time>2021-09-07T15:51:28Z</time>
      </trkpt>
      <trkpt lat="44.38408" lon="5.63499">
        <ele>1154.9</ele>
        <time>2021-09-07T15:51:29Z</time>
      </trkpt>
      <trkpt lat="44.38411" lon="5.63493">
        <ele>1154.1</ele>
        <time>2021-09-07T15:51:30Z</time>
      </trkpt>
      <trkpt lat="44.38412" lon="5.63488">
        <ele>1153.4</ele>
        <time>2021-09-07T15:51:31Z</time>
      </trkpt>
      <trkpt lat="44.38413" lon="5.63483">
        <ele>1152.8</ele>
        <time>2021-09-07T15:51:32Z</time>
      </trkpt>
      <trkpt lat="44.38415" lon="5.63468">
        <ele>1150.2</ele>
        <time>2021-09-07T15:51:33Z</time>
      </trkpt>
      <trkpt lat="44.38417" lon="5.63461">
        <ele>1149.1</ele>
        <time>2021-09-07T15:51:34Z</time>
      </trkpt>
      <trkpt lat="44.38418" lon="5.63453">
        <ele>1148.4</ele>
        <time>2021-09-07T15:51:35Z</time>
      </trkpt>
      <trkpt lat="44.3842" lon="5.63445">
        <ele>1147.2</ele>
        <time>2021-09-07T15:51:36Z</time>
      </trkpt>
      <trkpt lat="44.38421" lon="5.63438">
        <ele>1145.8</ele>
        <time>2021-09-07T15:51:37Z</time>
      </trkpt>
      <trkpt lat="44.38422" lon="5.6343">
        <ele>1144.7</ele>
        <time>2021-09-07T15:51:38Z</time>
      </trkpt>
      <trkpt lat="44.38422" lon="5.63423">
        <ele>1144.2</ele>
        <time>2021-09-07T15:51:39Z</time>
      </trkpt>
      <trkpt lat="44.38424" lon="5.63417">
        <ele>1143</ele>
        <time>2021-09-07T15:51:40Z</time>
      </trkpt>
      <trkpt lat="44.38425" lon="5.6341">
        <ele>1142.3</ele>
        <time>2021-09-07T15:51:41Z</time>
      </trkpt>
      <trkpt lat="44.38426" lon="5.63406">
        <ele>1141.8</ele>
        <time>2021-09-07T15:51:42Z</time>
      </trkpt>
      <trkpt lat="44.38427" lon="5.63403">
        <ele>1141.1</ele>
        <time>2021-09-07T15:51:43Z</time>
      </trkpt>
      <trkpt lat="44.38428" lon="5.634">
        <ele>1140.5</ele>
        <time>2021-09-07T15:51:44Z</time>
      </trkpt>
      <trkpt lat="44.38429" lon="5.63394">
        <ele>1139.9</ele>
        <time>2021-09-07T15:51:45Z</time>
      </trkpt>
      <trkpt lat="44.38429" lon="5.63389">
        <ele>1139.3</ele>
        <time>2021-09-07T15:51:46Z</time>
      </trkpt>
      <trkpt lat="44.3843" lon="5.63382">
        <ele>1138.2</ele>
        <time>2021-09-07T15:51:47Z</time>
      </trkpt>
      <trkpt lat="44.38432" lon="5.63374">
        <ele>1137.3</ele>
        <time>2021-09-07T15:51:48Z</time>
      </trkpt>
      <trkpt lat="44.38433" lon="5.63368">
        <ele>1136.8</ele>
        <time>2021-09-07T15:51:49Z</time>
      </trkpt>
      <trkpt lat="44.38435" lon="5.63362">
        <ele>1135.8</ele>
        <time>2021-09-07T15:51:50Z</time>
      </trkpt>
      <trkpt lat="44.38436" lon="5.63358">
        <ele>1135.3</ele>
        <time>2021-09-07T15:51:51Z</time>
      </trkpt>
      <trkpt lat="44.38437" lon="5.63352">
        <ele>1134.8</ele>
        <time>2021-09-07T15:51:52Z</time>
      </trkpt>
      <trkpt lat="44.38439" lon="5.63345">
        <ele>1133.8</ele>
        <time>2021-09-07T15:51:53Z</time>
      </trkpt>
      <trkpt lat="44.38441" lon="5.63337">
        <ele>1133.4</ele>
        <time>2021-09-07T15:51:54Z</time>
      </trkpt>
      <trkpt lat="44.38444" lon="5.63326">
        <ele>1131.9</ele>
        <time>2021-09-07T15:51:55Z</time>
      </trkpt>
      <trkpt lat="44.38446" lon="5.63315">
        <ele>1130.4</ele>
        <time>2021-09-07T15:51:56Z</time>
      </trkpt>
      <trkpt lat="44.38449" lon="5.63303">
        <ele>1129.2</ele>
        <time>2021-09-07T15:51:57Z</time>
      </trkpt>
      <trkpt lat="44.38452" lon="5.63291">
        <ele>1127.5</ele>
        <time>2021-09-07T15:51:58Z</time>
      </trkpt>
      <trkpt lat="44.38455" lon="5.63278">
        <ele>1125.7</ele>
        <time>2021-09-07T15:51:59Z</time>
      </trkpt>
      <trkpt lat="44.38458" lon="5.63265">
        <ele>1123.7</ele>
        <time>2021-09-07T15:52:00Z</time>
      </trkpt>
      <trkpt lat="44.38462" lon="5.63253">
        <ele>1121.6</ele>
        <time>2021-09-07T15:52:01Z</time>
      </trkpt>
      <trkpt lat="44.38465" lon="5.6324">
        <ele>1119.6</ele>
        <time>2021-09-07T15:52:02Z</time>
      </trkpt>
      <trkpt lat="44.38469" lon="5.63229">
        <ele>1117.8</ele>
        <time>2021-09-07T15:52:03Z</time>
      </trkpt>
      <trkpt lat="44.38472" lon="5.63217">
        <ele>1116.5</ele>
        <time>2021-09-07T15:52:04Z</time>
      </trkpt>
      <trkpt lat="44.38475" lon="5.63209">
        <ele>1115.2</ele>
        <time>2021-09-07T15:52:05Z</time>
      </trkpt>
      <trkpt lat="44.38477" lon="5.632">
        <ele>1114</ele>
        <time>2021-09-07T15:52:06Z</time>
      </trkpt>
      <trkpt lat="44.38479" lon="5.63194">
        <ele>1112.8</ele>
        <time>2021-09-07T15:52:07Z</time>
      </trkpt>
      <trkpt lat="44.3848" lon="5.6319">
        <ele>1112.2</ele>
        <time>2021-09-07T15:52:08Z</time>
      </trkpt>
      <trkpt lat="44.38481" lon="5.63185">
        <ele>1111.5</ele>
        <time>2021-09-07T15:52:09Z</time>
      </trkpt>
      <trkpt lat="44.38481" lon="5.63179">
        <ele>1110.8</ele>
        <time>2021-09-07T15:52:10Z</time>
      </trkpt>
      <trkpt lat="44.38481" lon="5.63174">
        <ele>1110.1</ele>
        <time>2021-09-07T15:52:11Z</time>
      </trkpt>
      <trkpt lat="44.38482" lon="5.63168">
        <ele>1108.6</ele>
        <time>2021-09-07T15:52:12Z</time>
      </trkpt>
      <trkpt lat="44.38483" lon="5.63161">
        <ele>1107.9</ele>
        <time>2021-09-07T15:52:13Z</time>
      </trkpt>
      <trkpt lat="44.38487" lon="5.63156">
        <ele>1106.6</ele>
        <time>2021-09-07T15:52:14Z</time>
      </trkpt>
      <trkpt lat="44.3849" lon="5.63151">
        <ele>1106.1</ele>
        <time>2021-09-07T15:52:15Z</time>
      </trkpt>
      <trkpt lat="44.38491" lon="5.63139">
        <ele>1104.1</ele>
        <time>2021-09-07T15:52:16Z</time>
      </trkpt>
      <trkpt lat="44.38495" lon="5.63133">
        <ele>1103.4</ele>
        <time>2021-09-07T15:52:17Z</time>
      </trkpt>
      <trkpt lat="44.38498" lon="5.63126">
        <ele>1101.9</ele>
        <time>2021-09-07T15:52:18Z</time>
      </trkpt>
      <trkpt lat="44.38503" lon="5.63119">
        <ele>1101.1</ele>
        <time>2021-09-07T15:52:19Z</time>
      </trkpt>
      <trkpt lat="44.38509" lon="5.63112">
        <ele>1099.6</ele>
        <time>2021-09-07T15:52:20Z</time>
      </trkpt>
      <trkpt lat="44.38514" lon="5.63104">
        <ele>1098.3</ele>
        <time>2021-09-07T15:52:21Z</time>
      </trkpt>
      <trkpt lat="44.3852" lon="5.63096">
        <ele>1097.1</ele>
        <time>2021-09-07T15:52:22Z</time>
      </trkpt>
      <trkpt lat="44.38526" lon="5.63087">
        <ele>1095.7</ele>
        <time>2021-09-07T15:52:23Z</time>
      </trkpt>
      <trkpt lat="44.38531" lon="5.63079">
        <ele>1094.1</ele>
        <time>2021-09-07T15:52:24Z</time>
      </trkpt>
      <trkpt lat="44.38537" lon="5.63071">
        <ele>1092.7</ele>
        <time>2021-09-07T15:52:25Z</time>
      </trkpt>
      <trkpt lat="44.38543" lon="5.63062">
        <ele>1091.5</ele>
        <time>2021-09-07T15:52:26Z</time>
      </trkpt>
      <trkpt lat="44.38549" lon="5.63053">
        <ele>1090.3</ele>
        <time>2021-09-07T15:52:27Z</time>
      </trkpt>
      <trkpt lat="44.38555" lon="5.63045">
        <ele>1089.1</ele>
        <time>2021-09-07T15:52:28Z</time>
      </trkpt>
      <trkpt lat="44.38561" lon="5.63036">
        <ele>1087.9</ele>
        <time>2021-09-07T15:52:29Z</time>
      </trkpt>
      <trkpt lat="44.38567" lon="5.63026">
        <ele>1086.7</ele>
        <time>2021-09-07T15:52:30Z</time>
      </trkpt>
      <trkpt lat="44.38573" lon="5.63017">
        <ele>1085.6</ele>
        <time>2021-09-07T15:52:31Z</time>
      </trkpt>
      <trkpt lat="44.38578" lon="5.63007">
        <ele>1084.7</ele>
        <time>2021-09-07T15:52:32Z</time>
      </trkpt>
      <trkpt lat="44.38583" lon="5.62998">
        <ele>1082.6</ele>
        <time>2021-09-07T15:52:33Z</time>
      </trkpt>
      <trkpt lat="44.38587" lon="5.62988">
        <ele>1081.7</ele>
        <time>2021-09-07T15:52:34Z</time>
      </trkpt>
      <trkpt lat="44.38592" lon="5.6298">
        <ele>1080.7</ele>
        <time>2021-09-07T15:52:35Z</time>
      </trkpt>
      <trkpt lat="44.38596" lon="5.62972">
        <ele>1080.1</ele>
        <time>2021-09-07T15:52:36Z</time>
      </trkpt>
      <trkpt lat="44.386" lon="5.62964">
        <ele>1079.8</ele>
        <time>2021-09-07T15:52:37Z</time>
      </trkpt>
      <trkpt lat="44.38605" lon="5.62955">
        <ele>1079</ele>
        <time>2021-09-07T15:52:38Z</time>
      </trkpt>
      <trkpt lat="44.3861" lon="5.62947">
        <ele>1077.9</ele>
        <time>2021-09-07T15:52:39Z</time>
      </trkpt>
      <trkpt lat="44.38615" lon="5.62938">
        <ele>1077</ele>
        <time>2021-09-07T15:52:40Z</time>
      </trkpt>
      <trkpt lat="44.38619" lon="5.62931">
        <ele>1076</ele>
        <time>2021-09-07T15:52:41Z</time>
      </trkpt>
      <trkpt lat="44.38623" lon="5.62926">
        <ele>1075.6</ele>
        <time>2021-09-07T15:52:42Z</time>
      </trkpt>
      <trkpt lat="44.38627" lon="5.62923">
        <ele>1075.5</ele>
        <time>2021-09-07T15:52:43Z</time>
      </trkpt>
      <trkpt lat="44.3863" lon="5.6292">
        <ele>1075.1</ele>
        <time>2021-09-07T15:52:44Z</time>
      </trkpt>
      <trkpt lat="44.38631" lon="5.6292">
        <ele>1075.1</ele>
        <time>2021-09-07T15:52:45Z</time>
      </trkpt>
      <trkpt lat="44.38631" lon="5.6292">
        <ele>1075.1</ele>
        <time>2021-09-07T15:52:46Z</time>
      </trkpt>
      <trkpt lat="44.3863" lon="5.6292">
        <ele>1075.1</ele>
        <time>2021-09-07T15:52:47Z</time>
      </trkpt>
      <trkpt lat="44.3863" lon="5.6292">
        <ele>1075.1</ele>
        <time>2021-09-07T15:52:48Z</time>
      </trkpt>
      <trkpt lat="44.3863" lon="5.6292">
        <ele>1075.1</ele>
        <time>2021-09-07T15:52:49Z</time>
      </trkpt>
      <trkpt lat="44.38629" lon="5.6292">
        <ele>1074.9</ele>
        <time>2021-09-07T15:52:50Z</time>
      </trkpt>
      <trkpt lat="44.38629" lon="5.6292">
        <ele>1074.9</ele>
        <time>2021-09-07T15:52:51Z</time>
      </trkpt>
      <trkpt lat="44.38629" lon="5.6292">
        <ele>1074.9</ele>
        <time>2021-09-07T15:52:52Z</time>
      </trkpt>
      <trkpt lat="44.38629" lon="5.6292">
        <ele>1074.9</ele>
        <time>2021-09-07T15:52:53Z</time>
      </trkpt>
      <trkpt lat="44.38629" lon="5.6292">
        <ele>1074.9</ele>
        <time>2021-09-07T15:52:54Z</time>
      </trkpt>
      <trkpt lat="44.38629" lon="5.6292">
        <ele>1074.9</ele>
        <time>2021-09-07T15:52:55Z</time>
      </trkpt>
      <trkpt lat="44.38629" lon="5.6292">
        <ele>1074.9</ele>
        <time>2021-09-07T15:52:56Z</time>
      </trkpt>
      <trkpt lat="44.38629" lon="5.6292">
        <ele>1074.9</ele>
        <time>2021-09-07T15:52:57Z</time>
      </trkpt>
      <trkpt lat="44.38629" lon="5.6292">
        <ele>1074.9</ele>
        <time>2021-09-07T15:52:58Z</time>
      </trkpt>
      <trkpt lat="44.38629" lon="5.6292">
        <ele>1075</ele>
        <time>2021-09-07T15:52:59Z</time>
      </trkpt>
      <trkpt lat="44.38629" lon="5.6292">
        <ele>1075</ele>
        <time>2021-09-07T15:53:00Z</time>
      </trkpt>
      <trkpt lat="44.38629" lon="5.6292">
        <ele>1075</ele>
        <time>2021-09-07T15:53:01Z</time>
      </trkpt>
      <trkpt lat="44.38629" lon="5.6292">
        <ele>1075</ele>
        <time>2021-09-07T15:53:02Z</time>
      </trkpt>
      <trkpt lat="44.38629" lon="5.6292">
        <ele>1075</ele>
        <time>2021-09-07T15:53:03Z</time>
      </trkpt>
      <trkpt lat="44.38629" lon="5.6292">
        <ele>1075</ele>
        <time>2021-09-07T15:53:04Z</time>
      </trkpt>
      <trkpt lat="44.38629" lon="5.6292">
        <ele>1075</ele>
        <time>2021-09-07T15:53:05Z</time>
      </trkpt>
      <trkpt lat="44.38629" lon="5.6292">
        <ele>1075</ele>
        <time>2021-09-07T15:53:06Z</time>
      </trkpt>
      <trkpt lat="44.38629" lon="5.6292">
        <ele>1075</ele>
        <time>2021-09-07T15:53:07Z</time>
      </trkpt>
      <trkpt lat="44.38629" lon="5.6292">
        <ele>1075.1</ele>
        <time>2021-09-07T15:53:08Z</time>
      </trkpt>
      <trkpt lat="44.38629" lon="5.62919">
        <ele>1075.1</ele>
        <time>2021-09-07T15:53:09Z</time>
      </trkpt>
      <trkpt lat="44.3863" lon="5.62919">
        <ele>1075.4</ele>
        <time>2021-09-07T15:53:10Z</time>
      </trkpt>
      <trkpt lat="44.3863" lon="5.62919">
        <ele>1075.4</ele>
        <time>2021-09-07T15:53:11Z</time>
      </trkpt>
      <trkpt lat="44.3863" lon="5.62919">
        <ele>1075.4</ele>
        <time>2021-09-07T15:53:12Z</time>
      </trkpt>
      <trkpt lat="44.38632" lon="5.62919">
        <ele>1075.4</ele>
        <time>2021-09-07T15:53:13Z</time>
      </trkpt>
      <trkpt lat="44.38634" lon="5.62918">
        <ele>1075.7</ele>
        <time>2021-09-07T15:53:14Z</time>
      </trkpt>
      <trkpt lat="44.38637" lon="5.62913">
        <ele>1075.2</ele>
        <time>2021-09-07T15:53:15Z</time>
      </trkpt>
      <trkpt lat="44.3864" lon="5.62908">
        <ele>1074.6</ele>
        <time>2021-09-07T15:53:16Z</time>
      </trkpt>
      <trkpt lat="44.38643" lon="5.62903">
        <ele>1073.2</ele>
        <time>2021-09-07T15:53:17Z</time>
      </trkpt>
      <trkpt lat="44.38647" lon="5.62897">
        <ele>1072.7</ele>
        <time>2021-09-07T15:53:18Z</time>
      </trkpt>
      <trkpt lat="44.3865" lon="5.62891">
        <ele>1072.2</ele>
        <time>2021-09-07T15:53:19Z</time>
      </trkpt>
      <trkpt lat="44.38652" lon="5.62892">
        <ele>1072.5</ele>
        <time>2021-09-07T15:53:20Z</time>
      </trkpt>
      <trkpt lat="44.38654" lon="5.62892">
        <ele>1072.7</ele>
        <time>2021-09-07T15:53:21Z</time>
      </trkpt>
      <trkpt lat="44.38659" lon="5.62879">
        <ele>1070.8</ele>
        <time>2021-09-07T15:53:22Z</time>
      </trkpt>
      <trkpt lat="44.38663" lon="5.62873">
        <ele>1069.5</ele>
        <time>2021-09-07T15:53:23Z</time>
      </trkpt>
      <trkpt lat="44.38666" lon="5.62867">
        <ele>1068.8</ele>
        <time>2021-09-07T15:53:24Z</time>
      </trkpt>
      <trkpt lat="44.38669" lon="5.62862">
        <ele>1068.1</ele>
        <time>2021-09-07T15:53:25Z</time>
      </trkpt>
      <trkpt lat="44.38672" lon="5.62857">
        <ele>1067.6</ele>
        <time>2021-09-07T15:53:26Z</time>
      </trkpt>
      <trkpt lat="44.38676" lon="5.62852">
        <ele>1067.2</ele>
        <time>2021-09-07T15:53:27Z</time>
      </trkpt>
      <trkpt lat="44.38679" lon="5.62847">
        <ele>1066</ele>
        <time>2021-09-07T15:53:28Z</time>
      </trkpt>
      <trkpt lat="44.38682" lon="5.62843">
        <ele>1065.6</ele>
        <time>2021-09-07T15:53:29Z</time>
      </trkpt>
      <trkpt lat="44.38685" lon="5.62838">
        <ele>1065.2</ele>
        <time>2021-09-07T15:53:30Z</time>
      </trkpt>
      <trkpt lat="44.38689" lon="5.62834">
        <ele>1064.8</ele>
        <time>2021-09-07T15:53:31Z</time>
      </trkpt>
      <trkpt lat="44.38693" lon="5.62829">
        <ele>1064.4</ele>
        <time>2021-09-07T15:53:32Z</time>
      </trkpt>
      <trkpt lat="44.38697" lon="5.62824">
        <ele>1064.2</ele>
        <time>2021-09-07T15:53:33Z</time>
      </trkpt>
      <trkpt lat="44.38701" lon="5.62819">
        <ele>1063.8</ele>
        <time>2021-09-07T15:53:34Z</time>
      </trkpt>
      <trkpt lat="44.38706" lon="5.62813">
        <ele>1063.1</ele>
        <time>2021-09-07T15:53:35Z</time>
      </trkpt>
      <trkpt lat="44.3871" lon="5.62807">
        <ele>1062.8</ele>
        <time>2021-09-07T15:53:36Z</time>
      </trkpt>
      <trkpt lat="44.38715" lon="5.62802">
        <ele>1062.7</ele>
        <time>2021-09-07T15:53:37Z</time>
      </trkpt>
      <trkpt lat="44.38719" lon="5.62797">
        <ele>1063.1</ele>
        <time>2021-09-07T15:53:38Z</time>
      </trkpt>
      <trkpt lat="44.38724" lon="5.62792">
        <ele>1063</ele>
        <time>2021-09-07T15:53:39Z</time>
      </trkpt>
      <trkpt lat="44.38729" lon="5.62789">
        <ele>1063.4</ele>
        <time>2021-09-07T15:53:40Z</time>
      </trkpt>
      <trkpt lat="44.38733" lon="5.62786">
        <ele>1063.3</ele>
        <time>2021-09-07T15:53:41Z</time>
      </trkpt>
      <trkpt lat="44.38737" lon="5.62785">
        <ele>1063.9</ele>
        <time>2021-09-07T15:53:42Z</time>
      </trkpt>
      <trkpt lat="44.38741" lon="5.62783">
        <ele>1064</ele>
        <time>2021-09-07T15:53:43Z</time>
      </trkpt>
      <trkpt lat="44.38744" lon="5.62783">
        <ele>1064.4</ele>
        <time>2021-09-07T15:53:44Z</time>
      </trkpt>
      <trkpt lat="44.38748" lon="5.62783">
        <ele>1064.7</ele>
        <time>2021-09-07T15:53:45Z</time>
      </trkpt>
      <trkpt lat="44.38751" lon="5.62782">
        <ele>1065.1</ele>
        <time>2021-09-07T15:53:46Z</time>
      </trkpt>
      <trkpt lat="44.38756" lon="5.62781">
        <ele>1065.9</ele>
        <time>2021-09-07T15:53:47Z</time>
      </trkpt>
      <trkpt lat="44.38761" lon="5.62779">
        <ele>1066.3</ele>
        <time>2021-09-07T15:53:48Z</time>
      </trkpt>
      <trkpt lat="44.38767" lon="5.62776">
        <ele>1067</ele>
        <time>2021-09-07T15:53:49Z</time>
      </trkpt>
      <trkpt lat="44.38773" lon="5.62772">
        <ele>1067.9</ele>
        <time>2021-09-07T15:53:50Z</time>
      </trkpt>
      <trkpt lat="44.3878" lon="5.62769">
        <ele>1068.8</ele>
        <time>2021-09-07T15:53:51Z</time>
      </trkpt>
      <trkpt lat="44.38786" lon="5.62765">
        <ele>1070.2</ele>
        <time>2021-09-07T15:53:52Z</time>
      </trkpt>
      <trkpt lat="44.38792" lon="5.62763">
        <ele>1070.9</ele>
        <time>2021-09-07T15:53:53Z</time>
      </trkpt>
      <trkpt lat="44.38798" lon="5.6276">
        <ele>1071.7</ele>
        <time>2021-09-07T15:53:54Z</time>
      </trkpt>
      <trkpt lat="44.38805" lon="5.62758">
        <ele>1072.6</ele>
        <time>2021-09-07T15:53:55Z</time>
      </trkpt>
      <trkpt lat="44.38812" lon="5.62755">
        <ele>1073.6</ele>
        <time>2021-09-07T15:53:56Z</time>
      </trkpt>
      <trkpt lat="44.38818" lon="5.62752">
        <ele>1074.6</ele>
        <time>2021-09-07T15:53:57Z</time>
      </trkpt>
      <trkpt lat="44.38824" lon="5.62748">
        <ele>1075.7</ele>
        <time>2021-09-07T15:53:58Z</time>
      </trkpt>
      <trkpt lat="44.38828" lon="5.62743">
        <ele>1076.5</ele>
        <time>2021-09-07T15:53:59Z</time>
      </trkpt>
      <trkpt lat="44.38832" lon="5.62738">
        <ele>1076.2</ele>
        <time>2021-09-07T15:54:00Z</time>
      </trkpt>
      <trkpt lat="44.38835" lon="5.62734">
        <ele>1076</ele>
        <time>2021-09-07T15:54:01Z</time>
      </trkpt>
      <trkpt lat="44.38837" lon="5.62729">
        <ele>1075.7</ele>
        <time>2021-09-07T15:54:02Z</time>
      </trkpt>
      <trkpt lat="44.38839" lon="5.62725">
        <ele>1075.5</ele>
        <time>2021-09-07T15:54:03Z</time>
      </trkpt>
      <trkpt lat="44.3884" lon="5.62722">
        <ele>1075.4</ele>
        <time>2021-09-07T15:54:04Z</time>
      </trkpt>
      <trkpt lat="44.3884" lon="5.62719">
        <ele>1075.3</ele>
        <time>2021-09-07T15:54:05Z</time>
      </trkpt>
      <trkpt lat="44.38838" lon="5.62717">
        <ele>1075.2</ele>
        <time>2021-09-07T15:54:06Z</time>
      </trkpt>
      <trkpt lat="44.38836" lon="5.62714">
        <ele>1075</ele>
        <time>2021-09-07T15:54:07Z</time>
      </trkpt>
      <trkpt lat="44.38837" lon="5.62712">
        <ele>1074.9</ele>
        <time>2021-09-07T15:54:08Z</time>
      </trkpt>
      <trkpt lat="44.38837" lon="5.6271">
        <ele>1074.8</ele>
        <time>2021-09-07T15:54:09Z</time>
      </trkpt>
      <trkpt lat="44.38836" lon="5.62708">
        <ele>1074.7</ele>
        <time>2021-09-07T15:54:10Z</time>
      </trkpt>
      <trkpt lat="44.38833" lon="5.62703">
        <ele>1074.5</ele>
        <time>2021-09-07T15:54:11Z</time>
      </trkpt>
      <trkpt lat="44.38829" lon="5.627">
        <ele>1074.2</ele>
        <time>2021-09-07T15:54:12Z</time>
      </trkpt>
      <trkpt lat="44.38826" lon="5.62698">
        <ele>1074</ele>
        <time>2021-09-07T15:54:13Z</time>
      </trkpt>
      <trkpt lat="44.38823" lon="5.62695">
        <ele>1073.9</ele>
        <time>2021-09-07T15:54:14Z</time>
      </trkpt>
      <trkpt lat="44.38817" lon="5.62692">
        <ele>1073.5</ele>
        <time>2021-09-07T15:54:15Z</time>
      </trkpt>
      <trkpt lat="44.38808" lon="5.62687">
        <ele>1073</ele>
        <time>2021-09-07T15:54:16Z</time>
      </trkpt>
      <trkpt lat="44.38802" lon="5.62684">
        <ele>1072.6</ele>
        <time>2021-09-07T15:54:17Z</time>
      </trkpt>
      <trkpt lat="44.38797" lon="5.62679">
        <ele>1072.3</ele>
        <time>2021-09-07T15:54:18Z</time>
      </trkpt>
      <trkpt lat="44.38793" lon="5.62674">
        <ele>1072</ele>
        <time>2021-09-07T15:54:19Z</time>
      </trkpt>
      <trkpt lat="44.38789" lon="5.62669">
        <ele>1071.7</ele>
        <time>2021-09-07T15:54:20Z</time>
      </trkpt>
      <trkpt lat="44.38785" lon="5.62663">
        <ele>1071.4</ele>
        <time>2021-09-07T15:54:21Z</time>
      </trkpt>
      <trkpt lat="44.38781" lon="5.62657">
        <ele>1071.1</ele>
        <time>2021-09-07T15:54:22Z</time>
      </trkpt>
      <trkpt lat="44.38776" lon="5.6265">
        <ele>1070.7</ele>
        <time>2021-09-07T15:54:23Z</time>
      </trkpt>
      <trkpt lat="44.38771" lon="5.62644">
        <ele>1070.3</ele>
        <time>2021-09-07T15:54:24Z</time>
      </trkpt>
      <trkpt lat="44.38766" lon="5.62638">
        <ele>1070</ele>
        <time>2021-09-07T15:54:25Z</time>
      </trkpt>
      <trkpt lat="44.3876" lon="5.62634">
        <ele>1069.6</ele>
        <time>2021-09-07T15:54:26Z</time>
      </trkpt>
      <trkpt lat="44.38754" lon="5.62629">
        <ele>1069.2</ele>
        <time>2021-09-07T15:54:27Z</time>
      </trkpt>
      <trkpt lat="44.38748" lon="5.62625">
        <ele>1068.8</ele>
        <time>2021-09-07T15:54:28Z</time>
      </trkpt>
      <trkpt lat="44.38742" lon="5.6262">
        <ele>1068.5</ele>
        <time>2021-09-07T15:54:29Z</time>
      </trkpt>
      <trkpt lat="44.38736" lon="5.62615">
        <ele>1068.1</ele>
        <time>2021-09-07T15:54:30Z</time>
      </trkpt>
      <trkpt lat="44.3873" lon="5.62609">
        <ele>1067.7</ele>
        <time>2021-09-07T15:54:31Z</time>
      </trkpt>
      <trkpt lat="44.38725" lon="5.62604">
        <ele>1067.3</ele>
        <time>2021-09-07T15:54:32Z</time>
      </trkpt>
      <trkpt lat="44.3872" lon="5.62598">
        <ele>1067</ele>
        <time>2021-09-07T15:54:33Z</time>
      </trkpt>
      <trkpt lat="44.38715" lon="5.62593">
        <ele>1066.6</ele>
        <time>2021-09-07T15:54:34Z</time>
      </trkpt>
      <trkpt lat="44.3871" lon="5.62587">
        <ele>1066.3</ele>
        <time>2021-09-07T15:54:35Z</time>
      </trkpt>
      <trkpt lat="44.38706" lon="5.62582">
        <ele>1066</ele>
        <time>2021-09-07T15:54:36Z</time>
      </trkpt>
      <trkpt lat="44.38701" lon="5.62576">
        <ele>1065.6</ele>
        <time>2021-09-07T15:54:37Z</time>
      </trkpt>
      <trkpt lat="44.38696" lon="5.6257">
        <ele>1065.3</ele>
        <time>2021-09-07T15:54:38Z</time>
      </trkpt>
      <trkpt lat="44.38691" lon="5.62564">
        <ele>1064.9</ele>
        <time>2021-09-07T15:54:39Z</time>
      </trkpt>
      <trkpt lat="44.38685" lon="5.62558">
        <ele>1064.5</ele>
        <time>2021-09-07T15:54:40Z</time>
      </trkpt>
      <trkpt lat="44.38679" lon="5.62552">
        <ele>1064.1</ele>
        <time>2021-09-07T15:54:41Z</time>
      </trkpt>
      <trkpt lat="44.38673" lon="5.62546">
        <ele>1063.7</ele>
        <time>2021-09-07T15:54:42Z</time>
      </trkpt>
      <trkpt lat="44.38668" lon="5.62541">
        <ele>1063.3</ele>
        <time>2021-09-07T15:54:43Z</time>
      </trkpt>
      <trkpt lat="44.38662" lon="5.62535">
        <ele>1063</ele>
        <time>2021-09-07T15:54:44Z</time>
      </trkpt>
      <trkpt lat="44.38657" lon="5.6253">
        <ele>1062.6</ele>
        <time>2021-09-07T15:54:45Z</time>
      </trkpt>
      <trkpt lat="44.38652" lon="5.62525">
        <ele>1062.3</ele>
        <time>2021-09-07T15:54:46Z</time>
      </trkpt>
      <trkpt lat="44.38647" lon="5.6252">
        <ele>1061.9</ele>
        <time>2021-09-07T15:54:47Z</time>
      </trkpt>
      <trkpt lat="44.38643" lon="5.62516">
        <ele>1061.7</ele>
        <time>2021-09-07T15:54:48Z</time>
      </trkpt>
      <trkpt lat="44.38639" lon="5.62512">
        <ele>1061.4</ele>
        <time>2021-09-07T15:54:49Z</time>
      </trkpt>
      <trkpt lat="44.38634" lon="5.62508">
        <ele>1061.1</ele>
        <time>2021-09-07T15:54:50Z</time>
      </trkpt>
      <trkpt lat="44.38631" lon="5.62504">
        <ele>1060.9</ele>
        <time>2021-09-07T15:54:51Z</time>
      </trkpt>
      <trkpt lat="44.38628" lon="5.625">
        <ele>1060.6</ele>
        <time>2021-09-07T15:54:52Z</time>
      </trkpt>
      <trkpt lat="44.38624" lon="5.62496">
        <ele>1060.4</ele>
        <time>2021-09-07T15:54:53Z</time>
      </trkpt>
      <trkpt lat="44.3862" lon="5.62492">
        <ele>1060.1</ele>
        <time>2021-09-07T15:54:54Z</time>
      </trkpt>
      <trkpt lat="44.38617" lon="5.62489">
        <ele>1059.9</ele>
        <time>2021-09-07T15:54:55Z</time>
      </trkpt>
      <trkpt lat="44.38614" lon="5.62485">
        <ele>1059.7</ele>
        <time>2021-09-07T15:54:56Z</time>
      </trkpt>
      <trkpt lat="44.38611" lon="5.62481">
        <ele>1059.4</ele>
        <time>2021-09-07T15:54:57Z</time>
      </trkpt>
      <trkpt lat="44.38607" lon="5.62477">
        <ele>1059.2</ele>
        <time>2021-09-07T15:54:58Z</time>
      </trkpt>
      <trkpt lat="44.38604" lon="5.62473">
        <ele>1058.9</ele>
        <time>2021-09-07T15:54:59Z</time>
      </trkpt>
      <trkpt lat="44.38601" lon="5.62468">
        <ele>1058.7</ele>
        <time>2021-09-07T15:55:00Z</time>
      </trkpt>
      <trkpt lat="44.38597" lon="5.62461">
        <ele>1058.3</ele>
        <time>2021-09-07T15:55:01Z</time>
      </trkpt>
      <trkpt lat="44.38594" lon="5.62457">
        <ele>1058.1</ele>
        <time>2021-09-07T15:55:02Z</time>
      </trkpt>
      <trkpt lat="44.38591" lon="5.62453">
        <ele>1057.9</ele>
        <time>2021-09-07T15:55:03Z</time>
      </trkpt>
      <trkpt lat="44.38588" lon="5.62449">
        <ele>1057.7</ele>
        <time>2021-09-07T15:55:04Z</time>
      </trkpt>
      <trkpt lat="44.38584" lon="5.62446">
        <ele>1057.4</ele>
        <time>2021-09-07T15:55:05Z</time>
      </trkpt>
      <trkpt lat="44.38581" lon="5.62443">
        <ele>1057.2</ele>
        <time>2021-09-07T15:55:06Z</time>
      </trkpt>
      <trkpt lat="44.38578" lon="5.6244">
        <ele>1057</ele>
        <time>2021-09-07T15:55:07Z</time>
      </trkpt>
      <trkpt lat="44.38574" lon="5.62435">
        <ele>1056.7</ele>
        <time>2021-09-07T15:55:08Z</time>
      </trkpt>
      <trkpt lat="44.38572" lon="5.62433">
        <ele>1056.6</ele>
        <time>2021-09-07T15:55:09Z</time>
      </trkpt>
      <trkpt lat="44.3857" lon="5.62431">
        <ele>1056.4</ele>
        <time>2021-09-07T15:55:10Z</time>
      </trkpt>
      <trkpt lat="44.38567" lon="5.62426">
        <ele>1056.2</ele>
        <time>2021-09-07T15:55:11Z</time>
      </trkpt>
      <trkpt lat="44.38564" lon="5.62422">
        <ele>1056</ele>
        <time>2021-09-07T15:55:12Z</time>
      </trkpt>
      <trkpt lat="44.38559" lon="5.62418">
        <ele>1055.6</ele>
        <time>2021-09-07T15:55:13Z</time>
      </trkpt>
      <trkpt lat="44.38554" lon="5.62414">
        <ele>1055.3</ele>
        <time>2021-09-07T15:55:14Z</time>
      </trkpt>
      <trkpt lat="44.3855" lon="5.62409">
        <ele>1055</ele>
        <time>2021-09-07T15:55:15Z</time>
      </trkpt>
      <trkpt lat="44.38545" lon="5.62404">
        <ele>1054.7</ele>
        <time>2021-09-07T15:55:16Z</time>
      </trkpt>
      <trkpt lat="44.38541" lon="5.62398">
        <ele>1054.4</ele>
        <time>2021-09-07T15:55:17Z</time>
      </trkpt>
      <trkpt lat="44.38537" lon="5.62392">
        <ele>1054.1</ele>
        <time>2021-09-07T15:55:18Z</time>
      </trkpt>
      <trkpt lat="44.38533" lon="5.62386">
        <ele>1053.7</ele>
        <time>2021-09-07T15:55:19Z</time>
      </trkpt>
      <trkpt lat="44.38529" lon="5.62379">
        <ele>1053.4</ele>
        <time>2021-09-07T15:55:20Z</time>
      </trkpt>
      <trkpt lat="44.38525" lon="5.62372">
        <ele>1053</ele>
        <time>2021-09-07T15:55:21Z</time>
      </trkpt>
      <trkpt lat="44.38521" lon="5.62366">
        <ele>1052.7</ele>
        <time>2021-09-07T15:55:22Z</time>
      </trkpt>
      <trkpt lat="44.38516" lon="5.62359">
        <ele>1052.3</ele>
        <time>2021-09-07T15:55:23Z</time>
      </trkpt>
      <trkpt lat="44.38511" lon="5.62353">
        <ele>1052</ele>
        <time>2021-09-07T15:55:24Z</time>
      </trkpt>
      <trkpt lat="44.38506" lon="5.62347">
        <ele>1051.6</ele>
        <time>2021-09-07T15:55:25Z</time>
      </trkpt>
      <trkpt lat="44.38501" lon="5.62341">
        <ele>1051.2</ele>
        <time>2021-09-07T15:55:26Z</time>
      </trkpt>
      <trkpt lat="44.38497" lon="5.62336">
        <ele>1050.9</ele>
        <time>2021-09-07T15:55:27Z</time>
      </trkpt>
      <trkpt lat="44.38492" lon="5.6233">
        <ele>1050.6</ele>
        <time>2021-09-07T15:55:28Z</time>
      </trkpt>
      <trkpt lat="44.38488" lon="5.62324">
        <ele>1050.3</ele>
        <time>2021-09-07T15:55:29Z</time>
      </trkpt>
      <trkpt lat="44.38483" lon="5.62318">
        <ele>1049.9</ele>
        <time>2021-09-07T15:55:30Z</time>
      </trkpt>
      <trkpt lat="44.38479" lon="5.62312">
        <ele>1049.6</ele>
        <time>2021-09-07T15:55:31Z</time>
      </trkpt>
      <trkpt lat="44.38474" lon="5.62307">
        <ele>1049.3</ele>
        <time>2021-09-07T15:55:32Z</time>
      </trkpt>
      <trkpt lat="44.38469" lon="5.62302">
        <ele>1048.9</ele>
        <time>2021-09-07T15:55:33Z</time>
      </trkpt>
      <trkpt lat="44.38463" lon="5.62296">
        <ele>1048.5</ele>
        <time>2021-09-07T15:55:34Z</time>
      </trkpt>
      <trkpt lat="44.38458" lon="5.62291">
        <ele>1048.2</ele>
        <time>2021-09-07T15:55:35Z</time>
      </trkpt>
      <trkpt lat="44.38453" lon="5.62285">
        <ele>1047.8</ele>
        <time>2021-09-07T15:55:36Z</time>
      </trkpt>
      <trkpt lat="44.38447" lon="5.62279">
        <ele>1047.4</ele>
        <time>2021-09-07T15:55:37Z</time>
      </trkpt>
      <trkpt lat="44.38442" lon="5.62273">
        <ele>1047.1</ele>
        <time>2021-09-07T15:55:38Z</time>
      </trkpt>
      <trkpt lat="44.38437" lon="5.62267">
        <ele>1046.7</ele>
        <time>2021-09-07T15:55:39Z</time>
      </trkpt>
      <trkpt lat="44.38431" lon="5.62261">
        <ele>1046.3</ele>
        <time>2021-09-07T15:55:40Z</time>
      </trkpt>
      <trkpt lat="44.38425" lon="5.62255">
        <ele>1045.9</ele>
        <time>2021-09-07T15:55:41Z</time>
      </trkpt>
      <trkpt lat="44.3842" lon="5.62249">
        <ele>1045.5</ele>
        <time>2021-09-07T15:55:42Z</time>
      </trkpt>
      <trkpt lat="44.38415" lon="5.62243">
        <ele>1045.2</ele>
        <time>2021-09-07T15:55:43Z</time>
      </trkpt>
      <trkpt lat="44.3841" lon="5.62237">
        <ele>1044.8</ele>
        <time>2021-09-07T15:55:44Z</time>
      </trkpt>
      <trkpt lat="44.38405" lon="5.62232">
        <ele>1044.5</ele>
        <time>2021-09-07T15:55:45Z</time>
      </trkpt>
      <trkpt lat="44.384" lon="5.62227">
        <ele>1044.1</ele>
        <time>2021-09-07T15:55:46Z</time>
      </trkpt>
      <trkpt lat="44.38395" lon="5.62221">
        <ele>1043.8</ele>
        <time>2021-09-07T15:55:47Z</time>
      </trkpt>
      <trkpt lat="44.3839" lon="5.62216">
        <ele>1043.4</ele>
        <time>2021-09-07T15:55:48Z</time>
      </trkpt>
      <trkpt lat="44.38385" lon="5.62211">
        <ele>1043.1</ele>
        <time>2021-09-07T15:55:49Z</time>
      </trkpt>
      <trkpt lat="44.3838" lon="5.62206">
        <ele>1042.8</ele>
        <time>2021-09-07T15:55:50Z</time>
      </trkpt>
      <trkpt lat="44.38376" lon="5.62202">
        <ele>1042.5</ele>
        <time>2021-09-07T15:55:51Z</time>
      </trkpt>
      <trkpt lat="44.38372" lon="5.62197">
        <ele>1042.2</ele>
        <time>2021-09-07T15:55:52Z</time>
      </trkpt>
      <trkpt lat="44.38368" lon="5.62193">
        <ele>1041.9</ele>
        <time>2021-09-07T15:55:53Z</time>
      </trkpt>
      <trkpt lat="44.38364" lon="5.62189">
        <ele>1041.4</ele>
        <time>2021-09-07T15:55:54Z</time>
      </trkpt>
      <trkpt lat="44.38361" lon="5.62185">
        <ele>1040.9</ele>
        <time>2021-09-07T15:55:55Z</time>
      </trkpt>
      <trkpt lat="44.38358" lon="5.6218">
        <ele>1040.4</ele>
        <time>2021-09-07T15:55:56Z</time>
      </trkpt>
      <trkpt lat="44.38355" lon="5.62177">
        <ele>1039.9</ele>
        <time>2021-09-07T15:55:57Z</time>
      </trkpt>
      <trkpt lat="44.38352" lon="5.62174">
        <ele>1039.5</ele>
        <time>2021-09-07T15:55:58Z</time>
      </trkpt>
      <trkpt lat="44.38349" lon="5.6217">
        <ele>1038.9</ele>
        <time>2021-09-07T15:55:59Z</time>
      </trkpt>
      <trkpt lat="44.38345" lon="5.62166">
        <ele>1038.4</ele>
        <time>2021-09-07T15:56:00Z</time>
      </trkpt>
      <trkpt lat="44.38341" lon="5.62162">
        <ele>1037.8</ele>
        <time>2021-09-07T15:56:01Z</time>
      </trkpt>
      <trkpt lat="44.38337" lon="5.62158">
        <ele>1037.2</ele>
        <time>2021-09-07T15:56:02Z</time>
      </trkpt>
      <trkpt lat="44.38335" lon="5.62157">
        <ele>1037</ele>
        <time>2021-09-07T15:56:03Z</time>
      </trkpt>
      <trkpt lat="44.38333" lon="5.62156">
        <ele>1036.7</ele>
        <time>2021-09-07T15:56:04Z</time>
      </trkpt>
      <trkpt lat="44.38328" lon="5.62152">
        <ele>1036</ele>
        <time>2021-09-07T15:56:05Z</time>
      </trkpt>
      <trkpt lat="44.38324" lon="5.62147">
        <ele>1035.3</ele>
        <time>2021-09-07T15:56:06Z</time>
      </trkpt>
      <trkpt lat="44.38319" lon="5.62142">
        <ele>1034.6</ele>
        <time>2021-09-07T15:56:07Z</time>
      </trkpt>
      <trkpt lat="44.38315" lon="5.62138">
        <ele>1034</ele>
        <time>2021-09-07T15:56:08Z</time>
      </trkpt>
      <trkpt lat="44.38311" lon="5.62133">
        <ele>1033.3</ele>
        <time>2021-09-07T15:56:09Z</time>
      </trkpt>
      <trkpt lat="44.38306" lon="5.62128">
        <ele>1032.6</ele>
        <time>2021-09-07T15:56:10Z</time>
      </trkpt>
      <trkpt lat="44.38301" lon="5.62123">
        <ele>1031.9</ele>
        <time>2021-09-07T15:56:11Z</time>
      </trkpt>
      <trkpt lat="44.38296" lon="5.62117">
        <ele>1031.1</ele>
        <time>2021-09-07T15:56:12Z</time>
      </trkpt>
      <trkpt lat="44.38291" lon="5.62111">
        <ele>1030.3</ele>
        <time>2021-09-07T15:56:13Z</time>
      </trkpt>
      <trkpt lat="44.38286" lon="5.62106">
        <ele>1029.6</ele>
        <time>2021-09-07T15:56:14Z</time>
      </trkpt>
      <trkpt lat="44.38281" lon="5.62101">
        <ele>1028.8</ele>
        <time>2021-09-07T15:56:15Z</time>
      </trkpt>
      <trkpt lat="44.38276" lon="5.62095">
        <ele>1028</ele>
        <time>2021-09-07T15:56:16Z</time>
      </trkpt>
      <trkpt lat="44.38271" lon="5.62089">
        <ele>1027.2</ele>
        <time>2021-09-07T15:56:17Z</time>
      </trkpt>
      <trkpt lat="44.38266" lon="5.62083">
        <ele>1026.5</ele>
        <time>2021-09-07T15:56:18Z</time>
      </trkpt>
      <trkpt lat="44.38262" lon="5.62078">
        <ele>1025.8</ele>
        <time>2021-09-07T15:56:19Z</time>
      </trkpt>
      <trkpt lat="44.38258" lon="5.62073">
        <ele>1025.2</ele>
        <time>2021-09-07T15:56:20Z</time>
      </trkpt>
      <trkpt lat="44.38255" lon="5.6207">
        <ele>1024.7</ele>
        <time>2021-09-07T15:56:21Z</time>
      </trkpt>
      <trkpt lat="44.38251" lon="5.62067">
        <ele>1024.2</ele>
        <time>2021-09-07T15:56:22Z</time>
      </trkpt>
      <trkpt lat="44.38249" lon="5.62066">
        <ele>1023.9</ele>
        <time>2021-09-07T15:56:23Z</time>
      </trkpt>
      <trkpt lat="44.38247" lon="5.62064">
        <ele>1023.6</ele>
        <time>2021-09-07T15:56:24Z</time>
      </trkpt>
      <trkpt lat="44.38247" lon="5.62063">
        <ele>1023.5</ele>
        <time>2021-09-07T15:56:25Z</time>
      </trkpt>
      <trkpt lat="44.38246" lon="5.62062">
        <ele>1023.4</ele>
        <time>2021-09-07T15:56:26Z</time>
      </trkpt>
      <trkpt lat="44.38246" lon="5.62062">
        <ele>1023.4</ele>
        <time>2021-09-07T15:56:27Z</time>
      </trkpt>
      <trkpt lat="44.38246" lon="5.62061">
        <ele>1023.3</ele>
        <time>2021-09-07T15:56:28Z</time>
      </trkpt>
      <trkpt lat="44.38246" lon="5.62061">
        <ele>1023.3</ele>
        <time>2021-09-07T15:56:29Z</time>
      </trkpt>
      <trkpt lat="44.38246" lon="5.62061">
        <ele>1023.3</ele>
        <time>2021-09-07T15:56:30Z</time>
      </trkpt>
      <trkpt lat="44.38246" lon="5.62061">
        <ele>1023.3</ele>
        <time>2021-09-07T15:56:31Z</time>
      </trkpt>
      <trkpt lat="44.38246" lon="5.62061">
        <ele>1023.3</ele>
        <time>2021-09-07T15:56:32Z</time>
      </trkpt>
      <trkpt lat="44.38246" lon="5.62061">
        <ele>1023.3</ele>
        <time>2021-09-07T15:56:33Z</time>
      </trkpt>
      <trkpt lat="44.38245" lon="5.62061">
        <ele>1023.2</ele>
        <time>2021-09-07T15:56:34Z</time>
      </trkpt>
      <trkpt lat="44.38245" lon="5.62061">
        <ele>1023.2</ele>
        <time>2021-09-07T15:56:35Z</time>
      </trkpt>
      <trkpt lat="44.38245" lon="5.62061">
        <ele>1023.2</ele>
        <time>2021-09-07T15:56:36Z</time>
      </trkpt>
      <trkpt lat="44.38245" lon="5.62061">
        <ele>1023.2</ele>
        <time>2021-09-07T15:56:37Z</time>
      </trkpt>
      <trkpt lat="44.38245" lon="5.62061">
        <ele>1023.2</ele>
        <time>2021-09-07T15:56:38Z</time>
      </trkpt>
      <trkpt lat="44.38245" lon="5.62061">
        <ele>1023.2</ele>
        <time>2021-09-07T15:56:39Z</time>
      </trkpt>
      <trkpt lat="44.38245" lon="5.62061">
        <ele>1023.2</ele>
        <time>2021-09-07T15:56:40Z</time>
      </trkpt>
      <trkpt lat="44.38245" lon="5.62061">
        <ele>1023.2</ele>
        <time>2021-09-07T15:56:41Z</time>
      </trkpt>
      <trkpt lat="44.38245" lon="5.62061">
        <ele>1023.2</ele>
        <time>2021-09-07T15:56:42Z</time>
      </trkpt>
      <trkpt lat="44.38245" lon="5.62061">
        <ele>1023.2</ele>
        <time>2021-09-07T15:56:43Z</time>
      </trkpt>
      <trkpt lat="44.38245" lon="5.62061">
        <ele>1023.2</ele>
        <time>2021-09-07T15:56:44Z</time>
      </trkpt>
      <trkpt lat="44.38245" lon="5.62061">
        <ele>1023.2</ele>
        <time>2021-09-07T15:56:45Z</time>
      </trkpt>
      <trkpt lat="44.38245" lon="5.62061">
        <ele>1023.2</ele>
        <time>2021-09-07T15:56:46Z</time>
      </trkpt>
      <trkpt lat="44.38246" lon="5.62061">
        <ele>1023.1</ele>
        <time>2021-09-07T15:56:47Z</time>
      </trkpt>
      <trkpt lat="44.38246" lon="5.6206">
        <ele>1023.1</ele>
        <time>2021-09-07T15:56:48Z</time>
      </trkpt>
      <trkpt lat="44.38245" lon="5.62059">
        <ele>1022.9</ele>
        <time>2021-09-07T15:56:49Z</time>
      </trkpt>
      <trkpt lat="44.38245" lon="5.62058">
        <ele>1022.8</ele>
        <time>2021-09-07T15:56:50Z</time>
      </trkpt>
      <trkpt lat="44.38245" lon="5.62058">
        <ele>1022.7</ele>
        <time>2021-09-07T15:56:51Z</time>
      </trkpt>
      <trkpt lat="44.38244" lon="5.62057">
        <ele>1022.7</ele>
        <time>2021-09-07T15:56:52Z</time>
      </trkpt>
      <trkpt lat="44.38241" lon="5.62055">
        <ele>1022.3</ele>
        <time>2021-09-07T15:56:53Z</time>
      </trkpt>
      <trkpt lat="44.38235" lon="5.62052">
        <ele>1021.5</ele>
        <time>2021-09-07T15:56:54Z</time>
      </trkpt>
      <trkpt lat="44.38229" lon="5.62049">
        <ele>1020.7</ele>
        <time>2021-09-07T15:56:55Z</time>
      </trkpt>
      <trkpt lat="44.38221" lon="5.62044">
        <ele>1019.7</ele>
        <time>2021-09-07T15:56:56Z</time>
      </trkpt>
      <trkpt lat="44.38216" lon="5.62042">
        <ele>1019</ele>
        <time>2021-09-07T15:56:57Z</time>
      </trkpt>
      <trkpt lat="44.3821" lon="5.62039">
        <ele>1018.3</ele>
        <time>2021-09-07T15:56:58Z</time>
      </trkpt>
      <trkpt lat="44.38206" lon="5.62036">
        <ele>1017.7</ele>
        <time>2021-09-07T15:56:59Z</time>
      </trkpt>
      <trkpt lat="44.38204" lon="5.62033">
        <ele>1017.3</ele>
        <time>2021-09-07T15:57:00Z</time>
      </trkpt>
      <trkpt lat="44.38201" lon="5.62029">
        <ele>1016.9</ele>
        <time>2021-09-07T15:57:01Z</time>
      </trkpt>
      <trkpt lat="44.38196" lon="5.62027">
        <ele>1016.3</ele>
        <time>2021-09-07T15:57:02Z</time>
      </trkpt>
      <trkpt lat="44.38193" lon="5.62025">
        <ele>1015.8</ele>
        <time>2021-09-07T15:57:03Z</time>
      </trkpt>
      <trkpt lat="44.38189" lon="5.62023">
        <ele>1015.3</ele>
        <time>2021-09-07T15:57:04Z</time>
      </trkpt>
      <trkpt lat="44.38185" lon="5.62021">
        <ele>1014.8</ele>
        <time>2021-09-07T15:57:05Z</time>
      </trkpt>
      <trkpt lat="44.38184" lon="5.6202">
        <ele>1014.7</ele>
        <time>2021-09-07T15:57:06Z</time>
      </trkpt>
      <trkpt lat="44.38183" lon="5.62019">
        <ele>1014.5</ele>
        <time>2021-09-07T15:57:07Z</time>
      </trkpt>
      <trkpt lat="44.3818" lon="5.62017">
        <ele>1014.2</ele>
        <time>2021-09-07T15:57:08Z</time>
      </trkpt>
      <trkpt lat="44.38179" lon="5.62016">
        <ele>1014.4</ele>
        <time>2021-09-07T15:57:09Z</time>
      </trkpt>
      <trkpt lat="44.38177" lon="5.62014">
        <ele>1014.6</ele>
        <time>2021-09-07T15:57:10Z</time>
      </trkpt>
      <trkpt lat="44.38175" lon="5.62013">
        <ele>1014.8</ele>
        <time>2021-09-07T15:57:11Z</time>
      </trkpt>
      <trkpt lat="44.38175" lon="5.62014">
        <ele>1014.9</ele>
        <time>2021-09-07T15:57:12Z</time>
      </trkpt>
      <trkpt lat="44.38175" lon="5.62015">
        <ele>1015</ele>
        <time>2021-09-07T15:57:13Z</time>
      </trkpt>
      <trkpt lat="44.38176" lon="5.62016">
        <ele>1015.1</ele>
        <time>2021-09-07T15:57:14Z</time>
      </trkpt>
      <trkpt lat="44.38176" lon="5.62017">
        <ele>1015.2</ele>
        <time>2021-09-07T15:57:15Z</time>
      </trkpt>
      <trkpt lat="44.38177" lon="5.62018">
        <ele>1015.3</ele>
        <time>2021-09-07T15:57:16Z</time>
      </trkpt>
      <trkpt lat="44.38177" lon="5.62019">
        <ele>1015.4</ele>
        <time>2021-09-07T15:57:17Z</time>
      </trkpt>
      <trkpt lat="44.38178" lon="5.6202">
        <ele>1015.5</ele>
        <time>2021-09-07T15:57:18Z</time>
      </trkpt>
      <trkpt lat="44.38178" lon="5.62021">
        <ele>1015.6</ele>
        <time>2021-09-07T15:57:19Z</time>
      </trkpt>
      <trkpt lat="44.38179" lon="5.62022">
        <ele>1015.7</ele>
        <time>2021-09-07T15:57:20Z</time>
      </trkpt>
      <trkpt lat="44.38179" lon="5.62023">
        <ele>1015.8</ele>
        <time>2021-09-07T15:57:21Z</time>
      </trkpt>
      <trkpt lat="44.3818" lon="5.62024">
        <ele>1015.9</ele>
        <time>2021-09-07T15:57:22Z</time>
      </trkpt>
      <trkpt lat="44.3818" lon="5.62025">
        <ele>1016</ele>
        <time>2021-09-07T15:57:23Z</time>
      </trkpt>
      <trkpt lat="44.38181" lon="5.62026">
        <ele>1016.1</ele>
        <time>2021-09-07T15:57:24Z</time>
      </trkpt>
      <trkpt lat="44.38182" lon="5.62027">
        <ele>1016.2</ele>
        <time>2021-09-07T15:57:25Z</time>
      </trkpt>
      <trkpt lat="44.38182" lon="5.62028">
        <ele>1016.3</ele>
        <time>2021-09-07T15:57:26Z</time>
      </trkpt>
      <trkpt lat="44.38187" lon="5.62031">
        <ele>1016.9</ele>
        <time>2021-09-07T15:57:27Z</time>
      </trkpt>
      <trkpt lat="44.38191" lon="5.62034">
        <ele>1017.4</ele>
        <time>2021-09-07T15:57:28Z</time>
      </trkpt>
      <trkpt lat="44.38199" lon="5.62039">
        <ele>1018.4</ele>
        <time>2021-09-07T15:57:29Z</time>
      </trkpt>
      <trkpt lat="44.38209" lon="5.62045">
        <ele>1019.7</ele>
        <time>2021-09-07T15:57:30Z</time>
      </trkpt>
      <trkpt lat="44.38216" lon="5.62048">
        <ele>1020.4</ele>
        <time>2021-09-07T15:57:31Z</time>
      </trkpt>
      <trkpt lat="44.38222" lon="5.62051">
        <ele>1021.2</ele>
        <time>2021-09-07T15:57:32Z</time>
      </trkpt>
      <trkpt lat="44.38228" lon="5.62054">
        <ele>1021.9</ele>
        <time>2021-09-07T15:57:33Z</time>
      </trkpt>
      <trkpt lat="44.38234" lon="5.62057">
        <ele>1022.6</ele>
        <time>2021-09-07T15:57:34Z</time>
      </trkpt>
      <trkpt lat="44.3824" lon="5.6206">
        <ele>1023.4</ele>
        <time>2021-09-07T15:57:35Z</time>
      </trkpt>
      <trkpt lat="44.38246" lon="5.62064">
        <ele>1024.1</ele>
        <time>2021-09-07T15:57:36Z</time>
      </trkpt>
      <trkpt lat="44.38252" lon="5.62069">
        <ele>1024.9</ele>
        <time>2021-09-07T15:57:37Z</time>
      </trkpt>
      <trkpt lat="44.38258" lon="5.62074">
        <ele>1025.7</ele>
        <time>2021-09-07T15:57:38Z</time>
      </trkpt>
      <trkpt lat="44.38263" lon="5.6208">
        <ele>1026.4</ele>
        <time>2021-09-07T15:57:39Z</time>
      </trkpt>
      <trkpt lat="44.38268" lon="5.62085">
        <ele>1027.1</ele>
        <time>2021-09-07T15:57:40Z</time>
      </trkpt>
      <trkpt lat="44.38274" lon="5.62092">
        <ele>1028</ele>
        <time>2021-09-07T15:57:41Z</time>
      </trkpt>
      <trkpt lat="44.38279" lon="5.62099">
        <ele>1028.8</ele>
        <time>2021-09-07T15:57:42Z</time>
      </trkpt>
      <trkpt lat="44.38284" lon="5.62107">
        <ele>1029.6</ele>
        <time>2021-09-07T15:57:43Z</time>
      </trkpt>
      <trkpt lat="44.38288" lon="5.62114">
        <ele>1030.4</ele>
        <time>2021-09-07T15:57:44Z</time>
      </trkpt>
      <trkpt lat="44.38292" lon="5.62122">
        <ele>1031.1</ele>
        <time>2021-09-07T15:57:45Z</time>
      </trkpt>
      <trkpt lat="44.38296" lon="5.62129">
        <ele>1031.9</ele>
        <time>2021-09-07T15:57:46Z</time>
      </trkpt>
      <trkpt lat="44.383" lon="5.62137">
        <ele>1032.6</ele>
        <time>2021-09-07T15:57:47Z</time>
      </trkpt>
      <trkpt lat="44.38303" lon="5.62144">
        <ele>1033.3</ele>
        <time>2021-09-07T15:57:48Z</time>
      </trkpt>
      <trkpt lat="44.38307" lon="5.62152">
        <ele>1034.1</ele>
        <time>2021-09-07T15:57:49Z</time>
      </trkpt>
      <trkpt lat="44.38311" lon="5.62159">
        <ele>1034.8</ele>
        <time>2021-09-07T15:57:50Z</time>
      </trkpt>
      <trkpt lat="44.38314" lon="5.62166">
        <ele>1035.5</ele>
        <time>2021-09-07T15:57:51Z</time>
      </trkpt>
      <trkpt lat="44.38317" lon="5.62172">
        <ele>1036.1</ele>
        <time>2021-09-07T15:57:52Z</time>
      </trkpt>
      <trkpt lat="44.3832" lon="5.62178">
        <ele>1036.7</ele>
        <time>2021-09-07T15:57:53Z</time>
      </trkpt>
      <trkpt lat="44.38324" lon="5.62183">
        <ele>1037.3</ele>
        <time>2021-09-07T15:57:54Z</time>
      </trkpt>
      <trkpt lat="44.38328" lon="5.62188">
        <ele>1037.8</ele>
        <time>2021-09-07T15:57:55Z</time>
      </trkpt>
      <trkpt lat="44.38332" lon="5.62192">
        <ele>1038.4</ele>
        <time>2021-09-07T15:57:56Z</time>
      </trkpt>
      <trkpt lat="44.38336" lon="5.62195">
        <ele>1038.9</ele>
        <time>2021-09-07T15:57:57Z</time>
      </trkpt>
      <trkpt lat="44.38339" lon="5.62198">
        <ele>1039.4</ele>
        <time>2021-09-07T15:57:58Z</time>
      </trkpt>
      <trkpt lat="44.38342" lon="5.62203">
        <ele>1039.9</ele>
        <time>2021-09-07T15:57:59Z</time>
      </trkpt>
      <trkpt lat="44.38345" lon="5.62206">
        <ele>1040.3</ele>
        <time>2021-09-07T15:58:00Z</time>
      </trkpt>
      <trkpt lat="44.38348" lon="5.62209">
        <ele>1040.7</ele>
        <time>2021-09-07T15:58:01Z</time>
      </trkpt>
      <trkpt lat="44.38353" lon="5.62212">
        <ele>1041.3</ele>
        <time>2021-09-07T15:58:02Z</time>
      </trkpt>
      <trkpt lat="44.38358" lon="5.62215">
        <ele>1041.9</ele>
        <time>2021-09-07T15:58:03Z</time>
      </trkpt>
      <trkpt lat="44.38361" lon="5.62217">
        <ele>1042.1</ele>
        <time>2021-09-07T15:58:04Z</time>
      </trkpt>
      <trkpt lat="44.38363" lon="5.62218">
        <ele>1042.2</ele>
        <time>2021-09-07T15:58:05Z</time>
      </trkpt>
      <trkpt lat="44.38369" lon="5.62222">
        <ele>1042.6</ele>
        <time>2021-09-07T15:58:06Z</time>
      </trkpt>
      <trkpt lat="44.38372" lon="5.62225">
        <ele>1042.8</ele>
        <time>2021-09-07T15:58:07Z</time>
      </trkpt>
      <trkpt lat="44.38375" lon="5.62228">
        <ele>1043</ele>
        <time>2021-09-07T15:58:08Z</time>
      </trkpt>
      <trkpt lat="44.38382" lon="5.62232">
        <ele>1043.4</ele>
        <time>2021-09-07T15:58:09Z</time>
      </trkpt>
      <trkpt lat="44.38387" lon="5.62235">
        <ele>1043.7</ele>
        <time>2021-09-07T15:58:10Z</time>
      </trkpt>
      <trkpt lat="44.38391" lon="5.62238">
        <ele>1044</ele>
        <time>2021-09-07T15:58:11Z</time>
      </trkpt>
      <trkpt lat="44.38395" lon="5.62242">
        <ele>1044.2</ele>
        <time>2021-09-07T15:58:12Z</time>
      </trkpt>
      <trkpt lat="44.38399" lon="5.62246">
        <ele>1044.5</ele>
        <time>2021-09-07T15:58:13Z</time>
      </trkpt>
      <trkpt lat="44.38402" lon="5.62249">
        <ele>1044.7</ele>
        <time>2021-09-07T15:58:14Z</time>
      </trkpt>
      <trkpt lat="44.38406" lon="5.62252">
        <ele>1045</ele>
        <time>2021-09-07T15:58:15Z</time>
      </trkpt>
      <trkpt lat="44.3841" lon="5.62255">
        <ele>1045.2</ele>
        <time>2021-09-07T15:58:16Z</time>
      </trkpt>
      <trkpt lat="44.38413" lon="5.62257">
        <ele>1045.4</ele>
        <time>2021-09-07T15:58:17Z</time>
      </trkpt>
      <trkpt lat="44.38418" lon="5.6226">
        <ele>1045.7</ele>
        <time>2021-09-07T15:58:18Z</time>
      </trkpt>
      <trkpt lat="44.38421" lon="5.62262">
        <ele>1045.9</ele>
        <time>2021-09-07T15:58:19Z</time>
      </trkpt>
      <trkpt lat="44.38424" lon="5.62265">
        <ele>1046.1</ele>
        <time>2021-09-07T15:58:20Z</time>
      </trkpt>
      <trkpt lat="44.38427" lon="5.62268">
        <ele>1046.3</ele>
        <time>2021-09-07T15:58:21Z</time>
      </trkpt>
      <trkpt lat="44.38429" lon="5.62271">
        <ele>1046.5</ele>
        <time>2021-09-07T15:58:22Z</time>
      </trkpt>
      <trkpt lat="44.38431" lon="5.62274">
        <ele>1046.6</ele>
        <time>2021-09-07T15:58:23Z</time>
      </trkpt>
      <trkpt lat="44.38435" lon="5.62279">
        <ele>1046.9</ele>
        <time>2021-09-07T15:58:24Z</time>
      </trkpt>
      <trkpt lat="44.38438" lon="5.62282">
        <ele>1047.2</ele>
        <time>2021-09-07T15:58:25Z</time>
      </trkpt>
      <trkpt lat="44.3844" lon="5.62285">
        <ele>1047.3</ele>
        <time>2021-09-07T15:58:26Z</time>
      </trkpt>
      <trkpt lat="44.38442" lon="5.62287">
        <ele>1047.4</ele>
        <time>2021-09-07T15:58:27Z</time>
      </trkpt>
      <trkpt lat="44.38444" lon="5.6229">
        <ele>1047.6</ele>
        <time>2021-09-07T15:58:28Z</time>
      </trkpt>
      <trkpt lat="44.38446" lon="5.62293">
        <ele>1047.8</ele>
        <time>2021-09-07T15:58:29Z</time>
      </trkpt>
      <trkpt lat="44.38448" lon="5.62297">
        <ele>1048</ele>
        <time>2021-09-07T15:58:30Z</time>
      </trkpt>
      <trkpt lat="44.3845" lon="5.623">
        <ele>1048.1</ele>
        <time>2021-09-07T15:58:31Z</time>
      </trkpt>
      <trkpt lat="44.38452" lon="5.62304">
        <ele>1048.3</ele>
        <time>2021-09-07T15:58:32Z</time>
      </trkpt>
      <trkpt lat="44.38454" lon="5.62307">
        <ele>1048.5</ele>
        <time>2021-09-07T15:58:33Z</time>
      </trkpt>
      <trkpt lat="44.38456" lon="5.6231">
        <ele>1048.6</ele>
        <time>2021-09-07T15:58:34Z</time>
      </trkpt>
      <trkpt lat="44.38457" lon="5.62313">
        <ele>1048.8</ele>
        <time>2021-09-07T15:58:35Z</time>
      </trkpt>
      <trkpt lat="44.38459" lon="5.62315">
        <ele>1048.9</ele>
        <time>2021-09-07T15:58:36Z</time>
      </trkpt>
      <trkpt lat="44.38461" lon="5.62318">
        <ele>1049.1</ele>
        <time>2021-09-07T15:58:37Z</time>
      </trkpt>
      <trkpt lat="44.38463" lon="5.62321">
        <ele>1049.2</ele>
        <time>2021-09-07T15:58:38Z</time>
      </trkpt>
      <trkpt lat="44.38464" lon="5.62323">
        <ele>1049.3</ele>
        <time>2021-09-07T15:58:39Z</time>
      </trkpt>
      <trkpt lat="44.38466" lon="5.62325">
        <ele>1049.5</ele>
        <time>2021-09-07T15:58:40Z</time>
      </trkpt>
      <trkpt lat="44.38467" lon="5.62326">
        <ele>1049.6</ele>
        <time>2021-09-07T15:58:41Z</time>
      </trkpt>
      <trkpt lat="44.38468" lon="5.62327">
        <ele>1049.6</ele>
        <time>2021-09-07T15:58:42Z</time>
      </trkpt>
      <trkpt lat="44.38471" lon="5.62329">
        <ele>1049.8</ele>
        <time>2021-09-07T15:58:43Z</time>
      </trkpt>
      <trkpt lat="44.38473" lon="5.62331">
        <ele>1049.9</ele>
        <time>2021-09-07T15:58:44Z</time>
      </trkpt>
      <trkpt lat="44.38474" lon="5.62333">
        <ele>1050</ele>
        <time>2021-09-07T15:58:45Z</time>
      </trkpt>
      <trkpt lat="44.38476" lon="5.62336">
        <ele>1050.2</ele>
        <time>2021-09-07T15:58:46Z</time>
      </trkpt>
      <trkpt lat="44.38477" lon="5.62339">
        <ele>1050.3</ele>
        <time>2021-09-07T15:58:47Z</time>
      </trkpt>
      <trkpt lat="44.38478" lon="5.62341">
        <ele>1050.4</ele>
        <time>2021-09-07T15:58:48Z</time>
      </trkpt>
      <trkpt lat="44.38478" lon="5.62343">
        <ele>1050.5</ele>
        <time>2021-09-07T15:58:49Z</time>
      </trkpt>
      <trkpt lat="44.3848" lon="5.62347">
        <ele>1050.7</ele>
        <time>2021-09-07T15:58:50Z</time>
      </trkpt>
      <trkpt lat="44.38481" lon="5.62349">
        <ele>1050.8</ele>
        <time>2021-09-07T15:58:51Z</time>
      </trkpt>
      <trkpt lat="44.38482" lon="5.6235">
        <ele>1050.9</ele>
        <time>2021-09-07T15:58:52Z</time>
      </trkpt>
      <trkpt lat="44.38484" lon="5.62354">
        <ele>1051.1</ele>
        <time>2021-09-07T15:58:53Z</time>
      </trkpt>
      <trkpt lat="44.38484" lon="5.62356">
        <ele>1051.1</ele>
        <time>2021-09-07T15:58:54Z</time>
      </trkpt>
      <trkpt lat="44.38485" lon="5.62358">
        <ele>1051.2</ele>
        <time>2021-09-07T15:58:55Z</time>
      </trkpt>
      <trkpt lat="44.38486" lon="5.6236">
        <ele>1051.3</ele>
        <time>2021-09-07T15:58:56Z</time>
      </trkpt>
      <trkpt lat="44.38488" lon="5.62362">
        <ele>1051.5</ele>
        <time>2021-09-07T15:58:57Z</time>
      </trkpt>
      <trkpt lat="44.3849" lon="5.62364">
        <ele>1051.6</ele>
        <time>2021-09-07T15:58:58Z</time>
      </trkpt>
      <trkpt lat="44.38492" lon="5.62366">
        <ele>1051.7</ele>
        <time>2021-09-07T15:58:59Z</time>
      </trkpt>
      <trkpt lat="44.38493" lon="5.62367">
        <ele>1051.8</ele>
        <time>2021-09-07T15:59:00Z</time>
      </trkpt>
      <trkpt lat="44.38494" lon="5.62368">
        <ele>1051.9</ele>
        <time>2021-09-07T15:59:01Z</time>
      </trkpt>
      <trkpt lat="44.38497" lon="5.62371">
        <ele>1052.1</ele>
        <time>2021-09-07T15:59:02Z</time>
      </trkpt>
      <trkpt lat="44.38499" lon="5.62373">
        <ele>1052.2</ele>
        <time>2021-09-07T15:59:03Z</time>
      </trkpt>
      <trkpt lat="44.385" lon="5.62374">
        <ele>1052.3</ele>
        <time>2021-09-07T15:59:04Z</time>
      </trkpt>
      <trkpt lat="44.38501" lon="5.62375">
        <ele>1052.4</ele>
        <time>2021-09-07T15:59:05Z</time>
      </trkpt>
      <trkpt lat="44.38503" lon="5.62377">
        <ele>1052.5</ele>
        <time>2021-09-07T15:59:06Z</time>
      </trkpt>
      <trkpt lat="44.38505" lon="5.62378">
        <ele>1052.6</ele>
        <time>2021-09-07T15:59:07Z</time>
      </trkpt>
      <trkpt lat="44.38507" lon="5.6238">
        <ele>1052.8</ele>
        <time>2021-09-07T15:59:08Z</time>
      </trkpt>
      <trkpt lat="44.38508" lon="5.62381">
        <ele>1052.8</ele>
        <time>2021-09-07T15:59:09Z</time>
      </trkpt>
      <trkpt lat="44.38509" lon="5.62382">
        <ele>1052.9</ele>
        <time>2021-09-07T15:59:10Z</time>
      </trkpt>
      <trkpt lat="44.38512" lon="5.62386">
        <ele>1053.1</ele>
        <time>2021-09-07T15:59:11Z</time>
      </trkpt>
      <trkpt lat="44.38514" lon="5.62387">
        <ele>1053.2</ele>
        <time>2021-09-07T15:59:12Z</time>
      </trkpt>
      <trkpt lat="44.38516" lon="5.62388">
        <ele>1053.3</ele>
        <time>2021-09-07T15:59:13Z</time>
      </trkpt>
      <trkpt lat="44.38517" lon="5.62389">
        <ele>1053.4</ele>
        <time>2021-09-07T15:59:14Z</time>
      </trkpt>
      <trkpt lat="44.38519" lon="5.62391">
        <ele>1053.6</ele>
        <time>2021-09-07T15:59:15Z</time>
      </trkpt>
      <trkpt lat="44.3852" lon="5.62393">
        <ele>1053.6</ele>
        <time>2021-09-07T15:59:16Z</time>
      </trkpt>
      <trkpt lat="44.38521" lon="5.62394">
        <ele>1053.7</ele>
        <time>2021-09-07T15:59:17Z</time>
      </trkpt>
      <trkpt lat="44.38523" lon="5.62397">
        <ele>1053.9</ele>
        <time>2021-09-07T15:59:18Z</time>
      </trkpt>
      <trkpt lat="44.38525" lon="5.624">
        <ele>1054</ele>
        <time>2021-09-07T15:59:19Z</time>
      </trkpt>
      <trkpt lat="44.38526" lon="5.62403">
        <ele>1054.2</ele>
        <time>2021-09-07T15:59:20Z</time>
      </trkpt>
      <trkpt lat="44.38527" lon="5.62406">
        <ele>1054.3</ele>
        <time>2021-09-07T15:59:21Z</time>
      </trkpt>
      <trkpt lat="44.38528" lon="5.62409">
        <ele>1054.4</ele>
        <time>2021-09-07T15:59:22Z</time>
      </trkpt>
      <trkpt lat="44.38529" lon="5.62413">
        <ele>1054.6</ele>
        <time>2021-09-07T15:59:23Z</time>
      </trkpt>
      <trkpt lat="44.3853" lon="5.62417">
        <ele>1054.8</ele>
        <time>2021-09-07T15:59:24Z</time>
      </trkpt>
      <trkpt lat="44.38532" lon="5.6242">
        <ele>1054.9</ele>
        <time>2021-09-07T15:59:25Z</time>
      </trkpt>
      <trkpt lat="44.38532" lon="5.62422">
        <ele>1055</ele>
        <time>2021-09-07T15:59:26Z</time>
      </trkpt>
      <trkpt lat="44.38533" lon="5.62424">
        <ele>1055.1</ele>
        <time>2021-09-07T15:59:27Z</time>
      </trkpt>
      <trkpt lat="44.38534" lon="5.62426">
        <ele>1055.2</ele>
        <time>2021-09-07T15:59:28Z</time>
      </trkpt>
      <trkpt lat="44.38535" lon="5.62429">
        <ele>1055.4</ele>
        <time>2021-09-07T15:59:29Z</time>
      </trkpt>
      <trkpt lat="44.38537" lon="5.62433">
        <ele>1055.5</ele>
        <time>2021-09-07T15:59:30Z</time>
      </trkpt>
      <trkpt lat="44.38538" lon="5.62436">
        <ele>1055.7</ele>
        <time>2021-09-07T15:59:31Z</time>
      </trkpt>
      <trkpt lat="44.3854" lon="5.62438">
        <ele>1055.8</ele>
        <time>2021-09-07T15:59:32Z</time>
      </trkpt>
      <trkpt lat="44.38542" lon="5.62441">
        <ele>1055.9</ele>
        <time>2021-09-07T15:59:33Z</time>
      </trkpt>
      <trkpt lat="44.38543" lon="5.62443">
        <ele>1056.1</ele>
        <time>2021-09-07T15:59:34Z</time>
      </trkpt>
      <trkpt lat="44.38546" lon="5.62446">
        <ele>1056.3</ele>
        <time>2021-09-07T15:59:35Z</time>
      </trkpt>
      <trkpt lat="44.38548" lon="5.62449">
        <ele>1056.4</ele>
        <time>2021-09-07T15:59:36Z</time>
      </trkpt>
      <trkpt lat="44.38551" lon="5.62452">
        <ele>1056.6</ele>
        <time>2021-09-07T15:59:37Z</time>
      </trkpt>
      <trkpt lat="44.38553" lon="5.62454">
        <ele>1056.8</ele>
        <time>2021-09-07T15:59:38Z</time>
      </trkpt>
      <trkpt lat="44.38555" lon="5.62456">
        <ele>1056.9</ele>
        <time>2021-09-07T15:59:39Z</time>
      </trkpt>
      <trkpt lat="44.38556" lon="5.62458">
        <ele>1057</ele>
        <time>2021-09-07T15:59:40Z</time>
      </trkpt>
      <trkpt lat="44.3856" lon="5.62462">
        <ele>1057.3</ele>
        <time>2021-09-07T15:59:41Z</time>
      </trkpt>
      <trkpt lat="44.38562" lon="5.62466">
        <ele>1057.5</ele>
        <time>2021-09-07T15:59:42Z</time>
      </trkpt>
      <trkpt lat="44.38565" lon="5.6247">
        <ele>1057.7</ele>
        <time>2021-09-07T15:59:43Z</time>
      </trkpt>
      <trkpt lat="44.38567" lon="5.62474">
        <ele>1057.9</ele>
        <time>2021-09-07T15:59:44Z</time>
      </trkpt>
      <trkpt lat="44.38569" lon="5.62478">
        <ele>1058.1</ele>
        <time>2021-09-07T15:59:45Z</time>
      </trkpt>
      <trkpt lat="44.38571" lon="5.62482">
        <ele>1058.3</ele>
        <time>2021-09-07T15:59:46Z</time>
      </trkpt>
      <trkpt lat="44.38573" lon="5.62485">
        <ele>1058.5</ele>
        <time>2021-09-07T15:59:47Z</time>
      </trkpt>
      <trkpt lat="44.38575" lon="5.62489">
        <ele>1058.6</ele>
        <time>2021-09-07T15:59:48Z</time>
      </trkpt>
      <trkpt lat="44.38577" lon="5.62492">
        <ele>1058.8</ele>
        <time>2021-09-07T15:59:49Z</time>
      </trkpt>
      <trkpt lat="44.3858" lon="5.62495">
        <ele>1059</ele>
        <time>2021-09-07T15:59:50Z</time>
      </trkpt>
      <trkpt lat="44.38583" lon="5.62498">
        <ele>1059.2</ele>
        <time>2021-09-07T15:59:51Z</time>
      </trkpt>
      <trkpt lat="44.38585" lon="5.625">
        <ele>1059.4</ele>
        <time>2021-09-07T15:59:52Z</time>
      </trkpt>
      <trkpt lat="44.38587" lon="5.62502">
        <ele>1059.5</ele>
        <time>2021-09-07T15:59:53Z</time>
      </trkpt>
      <trkpt lat="44.38589" lon="5.62504">
        <ele>1059.6</ele>
        <time>2021-09-07T15:59:54Z</time>
      </trkpt>
      <trkpt lat="44.38591" lon="5.62506">
        <ele>1059.8</ele>
        <time>2021-09-07T15:59:55Z</time>
      </trkpt>
      <trkpt lat="44.38594" lon="5.6251">
        <ele>1060</ele>
        <time>2021-09-07T15:59:56Z</time>
      </trkpt>
      <trkpt lat="44.38596" lon="5.62514">
        <ele>1060.2</ele>
        <time>2021-09-07T15:59:57Z</time>
      </trkpt>
      <trkpt lat="44.38597" lon="5.62517">
        <ele>1060.3</ele>
        <time>2021-09-07T15:59:58Z</time>
      </trkpt>
      <trkpt lat="44.386" lon="5.6252">
        <ele>1060.5</ele>
        <time>2021-09-07T15:59:59Z</time>
      </trkpt>
      <trkpt lat="44.38602" lon="5.62522">
        <ele>1060.7</ele>
        <time>2021-09-07T16:00:00Z</time>
      </trkpt>
      <trkpt lat="44.38604" lon="5.62524">
        <ele>1060.8</ele>
        <time>2021-09-07T16:00:01Z</time>
      </trkpt>
      <trkpt lat="44.38606" lon="5.62526">
        <ele>1061</ele>
        <time>2021-09-07T16:00:02Z</time>
      </trkpt>
      <trkpt lat="44.38609" lon="5.6253">
        <ele>1061.2</ele>
        <time>2021-09-07T16:00:03Z</time>
      </trkpt>
      <trkpt lat="44.38612" lon="5.62534">
        <ele>1061.4</ele>
        <time>2021-09-07T16:00:04Z</time>
      </trkpt>
      <trkpt lat="44.38613" lon="5.62537">
        <ele>1061.6</ele>
        <time>2021-09-07T16:00:05Z</time>
      </trkpt>
      <trkpt lat="44.38614" lon="5.6254">
        <ele>1061.7</ele>
        <time>2021-09-07T16:00:06Z</time>
      </trkpt>
      <trkpt lat="44.38616" lon="5.62544">
        <ele>1061.9</ele>
        <time>2021-09-07T16:00:07Z</time>
      </trkpt>
      <trkpt lat="44.38617" lon="5.62548">
        <ele>1062</ele>
        <time>2021-09-07T16:00:08Z</time>
      </trkpt>
      <trkpt lat="44.3862" lon="5.62555">
        <ele>1062.4</ele>
        <time>2021-09-07T16:00:09Z</time>
      </trkpt>
      <trkpt lat="44.38623" lon="5.6256">
        <ele>1062.6</ele>
        <time>2021-09-07T16:00:10Z</time>
      </trkpt>
      <trkpt lat="44.38626" lon="5.62564">
        <ele>1062.8</ele>
        <time>2021-09-07T16:00:11Z</time>
      </trkpt>
      <trkpt lat="44.38628" lon="5.62568">
        <ele>1063.1</ele>
        <time>2021-09-07T16:00:12Z</time>
      </trkpt>
      <trkpt lat="44.38631" lon="5.62574">
        <ele>1063.4</ele>
        <time>2021-09-07T16:00:13Z</time>
      </trkpt>
      <trkpt lat="44.38636" lon="5.6258">
        <ele>1063.7</ele>
        <time>2021-09-07T16:00:14Z</time>
      </trkpt>
      <trkpt lat="44.38638" lon="5.62584">
        <ele>1063.9</ele>
        <time>2021-09-07T16:00:15Z</time>
      </trkpt>
      <trkpt lat="44.38641" lon="5.62588">
        <ele>1064.1</ele>
        <time>2021-09-07T16:00:16Z</time>
      </trkpt>
      <trkpt lat="44.38643" lon="5.62591">
        <ele>1064.3</ele>
        <time>2021-09-07T16:00:17Z</time>
      </trkpt>
      <trkpt lat="44.38646" lon="5.62595">
        <ele>1064.5</ele>
        <time>2021-09-07T16:00:18Z</time>
      </trkpt>
      <trkpt lat="44.38649" lon="5.62599">
        <ele>1064.8</ele>
        <time>2021-09-07T16:00:19Z</time>
      </trkpt>
      <trkpt lat="44.38651" lon="5.62603">
        <ele>1065</ele>
        <time>2021-09-07T16:00:20Z</time>
      </trkpt>
      <trkpt lat="44.38654" lon="5.62607">
        <ele>1065.2</ele>
        <time>2021-09-07T16:00:21Z</time>
      </trkpt>
      <trkpt lat="44.38656" lon="5.6261">
        <ele>1065.4</ele>
        <time>2021-09-07T16:00:22Z</time>
      </trkpt>
      <trkpt lat="44.38659" lon="5.62614">
        <ele>1065.6</ele>
        <time>2021-09-07T16:00:23Z</time>
      </trkpt>
      <trkpt lat="44.38662" lon="5.62618">
        <ele>1065.8</ele>
        <time>2021-09-07T16:00:24Z</time>
      </trkpt>
      <trkpt lat="44.38664" lon="5.62622">
        <ele>1066</ele>
        <time>2021-09-07T16:00:25Z</time>
      </trkpt>
      <trkpt lat="44.38666" lon="5.62625">
        <ele>1066.2</ele>
        <time>2021-09-07T16:00:26Z</time>
      </trkpt>
      <trkpt lat="44.38669" lon="5.62629">
        <ele>1066.4</ele>
        <time>2021-09-07T16:00:27Z</time>
      </trkpt>
      <trkpt lat="44.38671" lon="5.62632">
        <ele>1066.6</ele>
        <time>2021-09-07T16:00:28Z</time>
      </trkpt>
      <trkpt lat="44.38674" lon="5.62636">
        <ele>1066.8</ele>
        <time>2021-09-07T16:00:29Z</time>
      </trkpt>
      <trkpt lat="44.38677" lon="5.62639">
        <ele>1067</ele>
        <time>2021-09-07T16:00:30Z</time>
      </trkpt>
      <trkpt lat="44.38679" lon="5.62642">
        <ele>1067.6</ele>
        <time>2021-09-07T16:00:31Z</time>
      </trkpt>
      <trkpt lat="44.38683" lon="5.62646">
        <ele>1068.2</ele>
        <time>2021-09-07T16:00:32Z</time>
      </trkpt>
      <trkpt lat="44.38685" lon="5.62651">
        <ele>1068.9</ele>
        <time>2021-09-07T16:00:33Z</time>
      </trkpt>
      <trkpt lat="44.38686" lon="5.62654">
        <ele>1068.9</ele>
        <time>2021-09-07T16:00:34Z</time>
      </trkpt>
      <trkpt lat="44.38686" lon="5.62656">
        <ele>1068.7</ele>
        <time>2021-09-07T16:00:35Z</time>
      </trkpt>
      <trkpt lat="44.38685" lon="5.62659">
        <ele>1068.5</ele>
        <time>2021-09-07T16:00:36Z</time>
      </trkpt>
      <trkpt lat="44.38684" lon="5.62662">
        <ele>1067.6</ele>
        <time>2021-09-07T16:00:37Z</time>
      </trkpt>
      <trkpt lat="44.38682" lon="5.62665">
        <ele>1067.5</ele>
        <time>2021-09-07T16:00:38Z</time>
      </trkpt>
      <trkpt lat="44.3868" lon="5.62667">
        <ele>1066.6</ele>
        <time>2021-09-07T16:00:39Z</time>
      </trkpt>
      <trkpt lat="44.38675" lon="5.62669">
        <ele>1064.6</ele>
        <time>2021-09-07T16:00:40Z</time>
      </trkpt>
      <trkpt lat="44.38672" lon="5.6267">
        <ele>1063.5</ele>
        <time>2021-09-07T16:00:41Z</time>
      </trkpt>
      <trkpt lat="44.38668" lon="5.62671">
        <ele>1061.8</ele>
        <time>2021-09-07T16:00:42Z</time>
      </trkpt>
      <trkpt lat="44.38664" lon="5.62672">
        <ele>1060.7</ele>
        <time>2021-09-07T16:00:43Z</time>
      </trkpt>
      <trkpt lat="44.3866" lon="5.62673">
        <ele>1059.7</ele>
        <time>2021-09-07T16:00:44Z</time>
      </trkpt>
      <trkpt lat="44.38653" lon="5.62673">
        <ele>1057.1</ele>
        <time>2021-09-07T16:00:45Z</time>
      </trkpt>
      <trkpt lat="44.38648" lon="5.62673">
        <ele>1056.3</ele>
        <time>2021-09-07T16:00:46Z</time>
      </trkpt>
      <trkpt lat="44.38643" lon="5.62673">
        <ele>1054.7</ele>
        <time>2021-09-07T16:00:47Z</time>
      </trkpt>
      <trkpt lat="44.38635" lon="5.62673">
        <ele>1052.4</ele>
        <time>2021-09-07T16:00:48Z</time>
      </trkpt>
      <trkpt lat="44.38632" lon="5.62674">
        <ele>1051.7</ele>
        <time>2021-09-07T16:00:49Z</time>
      </trkpt>
      <trkpt lat="44.38628" lon="5.62674">
        <ele>1051</ele>
        <time>2021-09-07T16:00:50Z</time>
      </trkpt>
      <trkpt lat="44.38621" lon="5.62677">
        <ele>1050.1</ele>
        <time>2021-09-07T16:00:51Z</time>
      </trkpt>
      <trkpt lat="44.38618" lon="5.6268">
        <ele>1049.5</ele>
        <time>2021-09-07T16:00:52Z</time>
      </trkpt>
      <trkpt lat="44.38615" lon="5.62682">
        <ele>1049.2</ele>
        <time>2021-09-07T16:00:53Z</time>
      </trkpt>
      <trkpt lat="44.3861" lon="5.62685">
        <ele>1048.3</ele>
        <time>2021-09-07T16:00:54Z</time>
      </trkpt>
      <trkpt lat="44.38609" lon="5.62686">
        <ele>1048.3</ele>
        <time>2021-09-07T16:00:55Z</time>
      </trkpt>
      <trkpt lat="44.38607" lon="5.62687">
        <ele>1047.7</ele>
        <time>2021-09-07T16:00:56Z</time>
      </trkpt>
      <trkpt lat="44.38604" lon="5.6269">
        <ele>1047.5</ele>
        <time>2021-09-07T16:00:57Z</time>
      </trkpt>
      <trkpt lat="44.38603" lon="5.62692">
        <ele>1047.5</ele>
        <time>2021-09-07T16:00:58Z</time>
      </trkpt>
      <trkpt lat="44.38601" lon="5.62693">
        <ele>1047</ele>
        <time>2021-09-07T16:00:59Z</time>
      </trkpt>
      <trkpt lat="44.386" lon="5.62695">
        <ele>1047.3</ele>
        <time>2021-09-07T16:01:00Z</time>
      </trkpt>
      <trkpt lat="44.38599" lon="5.62696">
        <ele>1047.3</ele>
        <time>2021-09-07T16:01:01Z</time>
      </trkpt>
      <trkpt lat="44.38598" lon="5.62696">
        <ele>1046.9</ele>
        <time>2021-09-07T16:01:02Z</time>
      </trkpt>
      <trkpt lat="44.38597" lon="5.62697">
        <ele>1046.9</ele>
        <time>2021-09-07T16:01:03Z</time>
      </trkpt>
      <trkpt lat="44.38596" lon="5.62698">
        <ele>1047.2</ele>
        <time>2021-09-07T16:01:04Z</time>
      </trkpt>
      <trkpt lat="44.38596" lon="5.62699">
        <ele>1047.2</ele>
        <time>2021-09-07T16:01:05Z</time>
      </trkpt>
      <trkpt lat="44.38596" lon="5.62699">
        <ele>1047.2</ele>
        <time>2021-09-07T16:01:06Z</time>
      </trkpt>
      <trkpt lat="44.38596" lon="5.62699">
        <ele>1047.2</ele>
        <time>2021-09-07T16:01:07Z</time>
      </trkpt>
      <trkpt lat="44.38595" lon="5.627">
        <ele>1046.9</ele>
        <time>2021-09-07T16:01:08Z</time>
      </trkpt>
      <trkpt lat="44.38595" lon="5.62701">
        <ele>1046.9</ele>
        <time>2021-09-07T16:01:09Z</time>
      </trkpt>
      <trkpt lat="44.38595" lon="5.62702">
        <ele>1046.9</ele>
        <time>2021-09-07T16:01:10Z</time>
      </trkpt>
      <trkpt lat="44.38595" lon="5.62702">
        <ele>1047.3</ele>
        <time>2021-09-07T16:01:11Z</time>
      </trkpt>
      <trkpt lat="44.38595" lon="5.62703">
        <ele>1047.3</ele>
        <time>2021-09-07T16:01:12Z</time>
      </trkpt>
      <trkpt lat="44.38595" lon="5.62703">
        <ele>1047.3</ele>
        <time>2021-09-07T16:01:13Z</time>
      </trkpt>
      <trkpt lat="44.38595" lon="5.62704">
        <ele>1047.3</ele>
        <time>2021-09-07T16:01:14Z</time>
      </trkpt>
      <trkpt lat="44.38595" lon="5.62704">
        <ele>1047.3</ele>
        <time>2021-09-07T16:01:15Z</time>
      </trkpt>
      <trkpt lat="44.38595" lon="5.62706">
        <ele>1047.7</ele>
        <time>2021-09-07T16:01:16Z</time>
      </trkpt>
      <trkpt lat="44.38595" lon="5.62707">
        <ele>1047.7</ele>
        <time>2021-09-07T16:01:17Z</time>
      </trkpt>
      <trkpt lat="44.38595" lon="5.62707">
        <ele>1047.7</ele>
        <time>2021-09-07T16:01:18Z</time>
      </trkpt>
      <trkpt lat="44.38594" lon="5.62709">
        <ele>1047.7</ele>
        <time>2021-09-07T16:01:19Z</time>
      </trkpt>
      <trkpt lat="44.38594" lon="5.6271">
        <ele>1047.7</ele>
        <time>2021-09-07T16:01:20Z</time>
      </trkpt>
      <trkpt lat="44.38594" lon="5.62712">
        <ele>1048.2</ele>
        <time>2021-09-07T16:01:21Z</time>
      </trkpt>
      <trkpt lat="44.38593" lon="5.62713">
        <ele>1048.2</ele>
        <time>2021-09-07T16:01:22Z</time>
      </trkpt>
      <trkpt lat="44.38593" lon="5.62714">
        <ele>1048.2</ele>
        <time>2021-09-07T16:01:23Z</time>
      </trkpt>
      <trkpt lat="44.38592" lon="5.62715">
        <ele>1048.4</ele>
        <time>2021-09-07T16:01:24Z</time>
      </trkpt>
      <trkpt lat="44.38591" lon="5.62716">
        <ele>1048.4</ele>
        <time>2021-09-07T16:01:25Z</time>
      </trkpt>
      <trkpt lat="44.38591" lon="5.62717">
        <ele>1048.4</ele>
        <time>2021-09-07T16:01:26Z</time>
      </trkpt>
      <trkpt lat="44.38591" lon="5.62717">
        <ele>1048.4</ele>
        <time>2021-09-07T16:01:27Z</time>
      </trkpt>
      <trkpt lat="44.3859" lon="5.62718">
        <ele>1048.4</ele>
        <time>2021-09-07T16:01:28Z</time>
      </trkpt>
      <trkpt lat="44.3859" lon="5.62718">
        <ele>1048.4</ele>
        <time>2021-09-07T16:01:29Z</time>
      </trkpt>
      <trkpt lat="44.3859" lon="5.62719">
        <ele>1049.1</ele>
        <time>2021-09-07T16:01:30Z</time>
      </trkpt>
      <trkpt lat="44.3859" lon="5.62719">
        <ele>1049.1</ele>
        <time>2021-09-07T16:01:31Z</time>
      </trkpt>
      <trkpt lat="44.3859" lon="5.62719">
        <ele>1049.1</ele>
        <time>2021-09-07T16:01:32Z</time>
      </trkpt>
      <trkpt lat="44.3859" lon="5.62719">
        <ele>1049.1</ele>
        <time>2021-09-07T16:01:33Z</time>
      </trkpt>
      <trkpt lat="44.38589" lon="5.6272">
        <ele>1048.8</ele>
        <time>2021-09-07T16:01:34Z</time>
      </trkpt>
      <trkpt lat="44.38587" lon="5.62722">
        <ele>1048.8</ele>
        <time>2021-09-07T16:01:35Z</time>
      </trkpt>
      <trkpt lat="44.38585" lon="5.62725">
        <ele>1049.2</ele>
        <time>2021-09-07T16:01:36Z</time>
      </trkpt>
      <trkpt lat="44.38584" lon="5.62726">
        <ele>1049.2</ele>
        <time>2021-09-07T16:01:37Z</time>
      </trkpt>
      <trkpt lat="44.38583" lon="5.62727">
        <ele>1049</ele>
        <time>2021-09-07T16:01:38Z</time>
      </trkpt>
      <trkpt lat="44.38582" lon="5.62728">
        <ele>1049.7</ele>
        <time>2021-09-07T16:01:39Z</time>
      </trkpt>
      <trkpt lat="44.38582" lon="5.62729">
        <ele>1049.7</ele>
        <time>2021-09-07T16:01:40Z</time>
      </trkpt>
      <trkpt lat="44.38581" lon="5.62729">
        <ele>1049.7</ele>
        <time>2021-09-07T16:01:41Z</time>
      </trkpt>
      <trkpt lat="44.3858" lon="5.6273">
        <ele>1049.6</ele>
        <time>2021-09-07T16:01:42Z</time>
      </trkpt>
      <trkpt lat="44.3858" lon="5.6273">
        <ele>1049.6</ele>
        <time>2021-09-07T16:01:43Z</time>
      </trkpt>
      <trkpt lat="44.3858" lon="5.6273">
        <ele>1049.6</ele>
        <time>2021-09-07T16:01:44Z</time>
      </trkpt>
      <trkpt lat="44.3858" lon="5.62731">
        <ele>1049.6</ele>
        <time>2021-09-07T16:01:45Z</time>
      </trkpt>
      <trkpt lat="44.3858" lon="5.62731">
        <ele>1049.6</ele>
        <time>2021-09-07T16:01:46Z</time>
      </trkpt>
      <trkpt lat="44.38579" lon="5.62732">
        <ele>1050.3</ele>
        <time>2021-09-07T16:01:47Z</time>
      </trkpt>
      <trkpt lat="44.38578" lon="5.62733">
        <ele>1050.3</ele>
        <time>2021-09-07T16:01:48Z</time>
      </trkpt>
      <trkpt lat="44.38577" lon="5.62735">
        <ele>1050.1</ele>
        <time>2021-09-07T16:01:49Z</time>
      </trkpt>
      <trkpt lat="44.38576" lon="5.62736">
        <ele>1050.1</ele>
        <time>2021-09-07T16:01:50Z</time>
      </trkpt>
      <trkpt lat="44.38575" lon="5.62737">
        <ele>1050.8</ele>
        <time>2021-09-07T16:01:51Z</time>
      </trkpt>
      <trkpt lat="44.38574" lon="5.62738">
        <ele>1050.7</ele>
        <time>2021-09-07T16:01:52Z</time>
      </trkpt>
      <trkpt lat="44.38574" lon="5.62739">
        <ele>1050.7</ele>
        <time>2021-09-07T16:01:53Z</time>
      </trkpt>
      <trkpt lat="44.38573" lon="5.62739">
        <ele>1050.7</ele>
        <time>2021-09-07T16:01:54Z</time>
      </trkpt>
      <trkpt lat="44.38573" lon="5.62739">
        <ele>1050.7</ele>
        <time>2021-09-07T16:01:55Z</time>
      </trkpt>
      <trkpt lat="44.38573" lon="5.62739">
        <ele>1050.7</ele>
        <time>2021-09-07T16:01:56Z</time>
      </trkpt>
      <trkpt lat="44.38573" lon="5.62739">
        <ele>1050.7</ele>
        <time>2021-09-07T16:01:57Z</time>
      </trkpt>
      <trkpt lat="44.38572" lon="5.62739">
        <ele>1050.7</ele>
        <time>2021-09-07T16:01:58Z</time>
      </trkpt>
      <trkpt lat="44.38572" lon="5.62739">
        <ele>1050.7</ele>
        <time>2021-09-07T16:01:59Z</time>
      </trkpt>
      <trkpt lat="44.38572" lon="5.62739">
        <ele>1050.7</ele>
        <time>2021-09-07T16:02:00Z</time>
      </trkpt>
      <trkpt lat="44.38572" lon="5.62739">
        <ele>1050.7</ele>
        <time>2021-09-07T16:02:01Z</time>
      </trkpt>
      <trkpt lat="44.38572" lon="5.62739">
        <ele>1050.7</ele>
        <time>2021-09-07T16:02:02Z</time>
      </trkpt>
      <trkpt lat="44.38572" lon="5.6274">
        <ele>1050.7</ele>
        <time>2021-09-07T16:02:03Z</time>
      </trkpt>
      <trkpt lat="44.38572" lon="5.6274">
        <ele>1050.7</ele>
        <time>2021-09-07T16:02:04Z</time>
      </trkpt>
      <trkpt lat="44.38572" lon="5.6274">
        <ele>1050.7</ele>
        <time>2021-09-07T16:02:05Z</time>
      </trkpt>
      <trkpt lat="44.38572" lon="5.6274">
        <ele>1050.7</ele>
        <time>2021-09-07T16:02:06Z</time>
      </trkpt>
      <trkpt lat="44.38572" lon="5.6274">
        <ele>1050.7</ele>
        <time>2021-09-07T16:02:07Z</time>
      </trkpt>
      <trkpt lat="44.38571" lon="5.6274">
        <ele>1050.6</ele>
        <time>2021-09-07T16:02:08Z</time>
      </trkpt>
      <trkpt lat="44.38571" lon="5.6274">
        <ele>1050.6</ele>
        <time>2021-09-07T16:02:09Z</time>
      </trkpt>
      <trkpt lat="44.38571" lon="5.6274">
        <ele>1050.6</ele>
        <time>2021-09-07T16:02:10Z</time>
      </trkpt>
      <trkpt lat="44.38571" lon="5.6274">
        <ele>1050.6</ele>
        <time>2021-09-07T16:02:11Z</time>
      </trkpt>
      <trkpt lat="44.38571" lon="5.6274">
        <ele>1050.6</ele>
        <time>2021-09-07T16:02:12Z</time>
      </trkpt>
      <trkpt lat="44.38571" lon="5.6274">
        <ele>1050.6</ele>
        <time>2021-09-07T16:02:13Z</time>
      </trkpt>
      <trkpt lat="44.38571" lon="5.6274">
        <ele>1050.6</ele>
        <time>2021-09-07T16:02:14Z</time>
      </trkpt>
      <trkpt lat="44.38571" lon="5.62741">
        <ele>1051.3</ele>
        <time>2021-09-07T16:02:15Z</time>
      </trkpt>
      <trkpt lat="44.38571" lon="5.62742">
        <ele>1051.3</ele>
        <time>2021-09-07T16:02:16Z</time>
      </trkpt>
      <trkpt lat="44.38571" lon="5.62743">
        <ele>1051.3</ele>
        <time>2021-09-07T16:02:17Z</time>
      </trkpt>
      <trkpt lat="44.38571" lon="5.62744">
        <ele>1051.3</ele>
        <time>2021-09-07T16:02:18Z</time>
      </trkpt>
      <trkpt lat="44.38571" lon="5.62746">
        <ele>1052</ele>
        <time>2021-09-07T16:02:19Z</time>
      </trkpt>
      <trkpt lat="44.3857" lon="5.62747">
        <ele>1052</ele>
        <time>2021-09-07T16:02:20Z</time>
      </trkpt>
      <trkpt lat="44.3857" lon="5.62748">
        <ele>1052</ele>
        <time>2021-09-07T16:02:21Z</time>
      </trkpt>
      <trkpt lat="44.3857" lon="5.62748">
        <ele>1052</ele>
        <time>2021-09-07T16:02:22Z</time>
      </trkpt>
      <trkpt lat="44.3857" lon="5.62749">
        <ele>1052.6</ele>
        <time>2021-09-07T16:02:23Z</time>
      </trkpt>
      <trkpt lat="44.3857" lon="5.6275">
        <ele>1052.6</ele>
        <time>2021-09-07T16:02:24Z</time>
      </trkpt>
      <trkpt lat="44.3857" lon="5.62751">
        <ele>1052.6</ele>
        <time>2021-09-07T16:02:25Z</time>
      </trkpt>
      <trkpt lat="44.38569" lon="5.62752">
        <ele>1052.6</ele>
        <time>2021-09-07T16:02:26Z</time>
      </trkpt>
      <trkpt lat="44.38569" lon="5.62752">
        <ele>1052.6</ele>
        <time>2021-09-07T16:02:27Z</time>
      </trkpt>
      <trkpt lat="44.38569" lon="5.62752">
        <ele>1052.6</ele>
        <time>2021-09-07T16:02:28Z</time>
      </trkpt>
      <trkpt lat="44.38569" lon="5.62754">
        <ele>1053.3</ele>
        <time>2021-09-07T16:02:29Z</time>
      </trkpt>
      <trkpt lat="44.38568" lon="5.62756">
        <ele>1053.3</ele>
        <time>2021-09-07T16:02:30Z</time>
      </trkpt>
      <trkpt lat="44.38567" lon="5.62758">
        <ele>1054</ele>
        <time>2021-09-07T16:02:31Z</time>
      </trkpt>
      <trkpt lat="44.38565" lon="5.6276">
        <ele>1054</ele>
        <time>2021-09-07T16:02:32Z</time>
      </trkpt>
      <trkpt lat="44.38564" lon="5.62763">
        <ele>1054.8</ele>
        <time>2021-09-07T16:02:33Z</time>
      </trkpt>
      <trkpt lat="44.38563" lon="5.62765">
        <ele>1054.8</ele>
        <time>2021-09-07T16:02:34Z</time>
      </trkpt>
      <trkpt lat="44.38561" lon="5.62768">
        <ele>1055.5</ele>
        <time>2021-09-07T16:02:35Z</time>
      </trkpt>
      <trkpt lat="44.3856" lon="5.6277">
        <ele>1055.5</ele>
        <time>2021-09-07T16:02:36Z</time>
      </trkpt>
      <trkpt lat="44.38558" lon="5.62773">
        <ele>1056.3</ele>
        <time>2021-09-07T16:02:37Z</time>
      </trkpt>
      <trkpt lat="44.38557" lon="5.62775">
        <ele>1056.3</ele>
        <time>2021-09-07T16:02:38Z</time>
      </trkpt>
      <trkpt lat="44.38556" lon="5.62776">
        <ele>1057.1</ele>
        <time>2021-09-07T16:02:39Z</time>
      </trkpt>
      <trkpt lat="44.38555" lon="5.62777">
        <ele>1057.1</ele>
        <time>2021-09-07T16:02:40Z</time>
      </trkpt>
      <trkpt lat="44.38554" lon="5.62778">
        <ele>1057.1</ele>
        <time>2021-09-07T16:02:41Z</time>
      </trkpt>
      <trkpt lat="44.38553" lon="5.62779">
        <ele>1057.9</ele>
        <time>2021-09-07T16:02:42Z</time>
      </trkpt>
      <trkpt lat="44.38552" lon="5.62781">
        <ele>1057.9</ele>
        <time>2021-09-07T16:02:43Z</time>
      </trkpt>
      <trkpt lat="44.38552" lon="5.62781">
        <ele>1057.9</ele>
        <time>2021-09-07T16:02:44Z</time>
      </trkpt>
      <trkpt lat="44.38551" lon="5.62781">
        <ele>1057.9</ele>
        <time>2021-09-07T16:02:45Z</time>
      </trkpt>
      <trkpt lat="44.3855" lon="5.62781">
        <ele>1057.9</ele>
        <time>2021-09-07T16:02:46Z</time>
      </trkpt>
      <trkpt lat="44.3855" lon="5.62781">
        <ele>1057.9</ele>
        <time>2021-09-07T16:02:47Z</time>
      </trkpt>
      <trkpt lat="44.3855" lon="5.62781">
        <ele>1057.9</ele>
        <time>2021-09-07T16:02:48Z</time>
      </trkpt>
      <trkpt lat="44.3855" lon="5.62781">
        <ele>1057.9</ele>
        <time>2021-09-07T16:02:49Z</time>
      </trkpt>
      <trkpt lat="44.38549" lon="5.6278">
        <ele>1058</ele>
        <time>2021-09-07T16:02:50Z</time>
      </trkpt>
      <trkpt lat="44.38549" lon="5.6278">
        <ele>1058</ele>
        <time>2021-09-07T16:02:51Z</time>
      </trkpt>
      <trkpt lat="44.38549" lon="5.6278">
        <ele>1058</ele>
        <time>2021-09-07T16:02:52Z</time>
      </trkpt>
      <trkpt lat="44.38549" lon="5.6278">
        <ele>1058</ele>
        <time>2021-09-07T16:02:53Z</time>
      </trkpt>
      <trkpt lat="44.38549" lon="5.6278">
        <ele>1058</ele>
        <time>2021-09-07T16:02:54Z</time>
      </trkpt>
      <trkpt lat="44.38549" lon="5.6278">
        <ele>1058</ele>
        <time>2021-09-07T16:02:55Z</time>
      </trkpt>
      <trkpt lat="44.38548" lon="5.62779">
        <ele>1058</ele>
        <time>2021-09-07T16:02:56Z</time>
      </trkpt>
      <trkpt lat="44.38547" lon="5.62779">
        <ele>1058</ele>
        <time>2021-09-07T16:02:57Z</time>
      </trkpt>
      <trkpt lat="44.38545" lon="5.62779">
        <ele>1058</ele>
        <time>2021-09-07T16:02:58Z</time>
      </trkpt>
      <trkpt lat="44.38544" lon="5.62778">
        <ele>1057.3</ele>
        <time>2021-09-07T16:02:59Z</time>
      </trkpt>
      <trkpt lat="44.38543" lon="5.62777">
        <ele>1057.4</ele>
        <time>2021-09-07T16:03:00Z</time>
      </trkpt>
      <trkpt lat="44.38542" lon="5.62777">
        <ele>1057.4</ele>
        <time>2021-09-07T16:03:01Z</time>
      </trkpt>
      <trkpt lat="44.38541" lon="5.62776">
        <ele>1057.4</ele>
        <time>2021-09-07T16:03:02Z</time>
      </trkpt>
      <trkpt lat="44.38541" lon="5.62776">
        <ele>1057.4</ele>
        <time>2021-09-07T16:03:03Z</time>
      </trkpt>
      <trkpt lat="44.3854" lon="5.62776">
        <ele>1057.6</ele>
        <time>2021-09-07T16:03:04Z</time>
      </trkpt>
      <trkpt lat="44.38538" lon="5.62775">
        <ele>1057.6</ele>
        <time>2021-09-07T16:03:05Z</time>
      </trkpt>
      <trkpt lat="44.38536" lon="5.62774">
        <ele>1057</ele>
        <time>2021-09-07T16:03:06Z</time>
      </trkpt>
      <trkpt lat="44.38535" lon="5.62774">
        <ele>1057</ele>
        <time>2021-09-07T16:03:07Z</time>
      </trkpt>
      <trkpt lat="44.38534" lon="5.62773">
        <ele>1057.2</ele>
        <time>2021-09-07T16:03:08Z</time>
      </trkpt>
      <trkpt lat="44.38533" lon="5.62773">
        <ele>1057.2</ele>
        <time>2021-09-07T16:03:09Z</time>
      </trkpt>
      <trkpt lat="44.38533" lon="5.62773">
        <ele>1057.2</ele>
        <time>2021-09-07T16:03:10Z</time>
      </trkpt>
      <trkpt lat="44.38532" lon="5.62772">
        <ele>1057.2</ele>
        <time>2021-09-07T16:03:11Z</time>
      </trkpt>
      <trkpt lat="44.38531" lon="5.62772">
        <ele>1057.5</ele>
        <time>2021-09-07T16:03:12Z</time>
      </trkpt>
      <trkpt lat="44.38531" lon="5.62772">
        <ele>1057.5</ele>
        <time>2021-09-07T16:03:13Z</time>
      </trkpt>
      <trkpt lat="44.38531" lon="5.62772">
        <ele>1057.5</ele>
        <time>2021-09-07T16:03:14Z</time>
      </trkpt>
      <trkpt lat="44.3853" lon="5.62772">
        <ele>1057.5</ele>
        <time>2021-09-07T16:03:15Z</time>
      </trkpt>
      <trkpt lat="44.3853" lon="5.62772">
        <ele>1057.5</ele>
        <time>2021-09-07T16:03:16Z</time>
      </trkpt>
      <trkpt lat="44.3853" lon="5.62772">
        <ele>1057.5</ele>
        <time>2021-09-07T16:03:17Z</time>
      </trkpt>
      <trkpt lat="44.38529" lon="5.62771">
        <ele>1057.5</ele>
        <time>2021-09-07T16:03:18Z</time>
      </trkpt>
      <trkpt lat="44.38528" lon="5.6277">
        <ele>1057.1</ele>
        <time>2021-09-07T16:03:19Z</time>
      </trkpt>
      <trkpt lat="44.38527" lon="5.62769">
        <ele>1057.1</ele>
        <time>2021-09-07T16:03:20Z</time>
      </trkpt>
      <trkpt lat="44.38525" lon="5.62767">
        <ele>1057.5</ele>
        <time>2021-09-07T16:03:21Z</time>
      </trkpt>
      <trkpt lat="44.38524" lon="5.62766">
        <ele>1056.8</ele>
        <time>2021-09-07T16:03:22Z</time>
      </trkpt>
      <trkpt lat="44.38523" lon="5.62764">
        <ele>1056.8</ele>
        <time>2021-09-07T16:03:23Z</time>
      </trkpt>
      <trkpt lat="44.38522" lon="5.62764">
        <ele>1056.8</ele>
        <time>2021-09-07T16:03:24Z</time>
      </trkpt>
      <trkpt lat="44.38522" lon="5.62764">
        <ele>1057.2</ele>
        <time>2021-09-07T16:03:25Z</time>
      </trkpt>
      <trkpt lat="44.38521" lon="5.62763">
        <ele>1057.2</ele>
        <time>2021-09-07T16:03:26Z</time>
      </trkpt>
      <trkpt lat="44.3852" lon="5.62763">
        <ele>1057.2</ele>
        <time>2021-09-07T16:03:27Z</time>
      </trkpt>
      <trkpt lat="44.3852" lon="5.62762">
        <ele>1057.2</ele>
        <time>2021-09-07T16:03:28Z</time>
      </trkpt>
      <trkpt lat="44.3852" lon="5.62762">
        <ele>1057.2</ele>
        <time>2021-09-07T16:03:29Z</time>
      </trkpt>
      <trkpt lat="44.38519" lon="5.62762">
        <ele>1056.5</ele>
        <time>2021-09-07T16:03:30Z</time>
      </trkpt>
      <trkpt lat="44.38518" lon="5.62761">
        <ele>1056.9</ele>
        <time>2021-09-07T16:03:31Z</time>
      </trkpt>
      <trkpt lat="44.38517" lon="5.62761">
        <ele>1056.9</ele>
        <time>2021-09-07T16:03:32Z</time>
      </trkpt>
      <trkpt lat="44.38515" lon="5.6276">
        <ele>1057.3</ele>
        <time>2021-09-07T16:03:33Z</time>
      </trkpt>
      <trkpt lat="44.38513" lon="5.62759">
        <ele>1057.3</ele>
        <time>2021-09-07T16:03:34Z</time>
      </trkpt>
      <trkpt lat="44.38512" lon="5.62758">
        <ele>1057.8</ele>
        <time>2021-09-07T16:03:35Z</time>
      </trkpt>
      <trkpt lat="44.38512" lon="5.62757">
        <ele>1057.2</ele>
        <time>2021-09-07T16:03:36Z</time>
      </trkpt>
      <trkpt lat="44.38511" lon="5.62757">
        <ele>1057.2</ele>
        <time>2021-09-07T16:03:37Z</time>
      </trkpt>
      <trkpt lat="44.3851" lon="5.62757">
        <ele>1057.2</ele>
        <time>2021-09-07T16:03:38Z</time>
      </trkpt>
      <trkpt lat="44.3851" lon="5.62757">
        <ele>1057.2</ele>
        <time>2021-09-07T16:03:39Z</time>
      </trkpt>
      <trkpt lat="44.3851" lon="5.62757">
        <ele>1057.2</ele>
        <time>2021-09-07T16:03:40Z</time>
      </trkpt>
      <trkpt lat="44.38509" lon="5.62756">
        <ele>1057.6</ele>
        <time>2021-09-07T16:03:41Z</time>
      </trkpt>
      <trkpt lat="44.38509" lon="5.62756">
        <ele>1057.6</ele>
        <time>2021-09-07T16:03:42Z</time>
      </trkpt>
      <trkpt lat="44.38509" lon="5.62756">
        <ele>1057.6</ele>
        <time>2021-09-07T16:03:43Z</time>
      </trkpt>
      <trkpt lat="44.38509" lon="5.62756">
        <ele>1057.6</ele>
        <time>2021-09-07T16:03:44Z</time>
      </trkpt>
      <trkpt lat="44.38509" lon="5.62756">
        <ele>1057.6</ele>
        <time>2021-09-07T16:03:45Z</time>
      </trkpt>
      <trkpt lat="44.38509" lon="5.62756">
        <ele>1057.6</ele>
        <time>2021-09-07T16:03:46Z</time>
      </trkpt>
      <trkpt lat="44.38509" lon="5.62756">
        <ele>1057.6</ele>
        <time>2021-09-07T16:03:47Z</time>
      </trkpt>
      <trkpt lat="44.38509" lon="5.62756">
        <ele>1057.6</ele>
        <time>2021-09-07T16:03:48Z</time>
      </trkpt>
      <trkpt lat="44.38508" lon="5.62756">
        <ele>1057.6</ele>
        <time>2021-09-07T16:03:49Z</time>
      </trkpt>
      <trkpt lat="44.38508" lon="5.62756">
        <ele>1057.6</ele>
        <time>2021-09-07T16:03:50Z</time>
      </trkpt>
      <trkpt lat="44.38508" lon="5.62756">
        <ele>1057.6</ele>
        <time>2021-09-07T16:03:51Z</time>
      </trkpt>
      <trkpt lat="44.38508" lon="5.62756">
        <ele>1057.6</ele>
        <time>2021-09-07T16:03:52Z</time>
      </trkpt>
      <trkpt lat="44.38508" lon="5.62756">
        <ele>1057.6</ele>
        <time>2021-09-07T16:03:53Z</time>
      </trkpt>
      <trkpt lat="44.38508" lon="5.62756">
        <ele>1057.6</ele>
        <time>2021-09-07T16:03:54Z</time>
      </trkpt>
      <trkpt lat="44.38508" lon="5.62756">
        <ele>1057.6</ele>
        <time>2021-09-07T16:03:55Z</time>
      </trkpt>
      <trkpt lat="44.38508" lon="5.62756">
        <ele>1057.6</ele>
        <time>2021-09-07T16:03:56Z</time>
      </trkpt>
      <trkpt lat="44.38508" lon="5.62756">
        <ele>1057.6</ele>
        <time>2021-09-07T16:03:57Z</time>
      </trkpt>
      <trkpt lat="44.38508" lon="5.62756">
        <ele>1057.6</ele>
        <time>2021-09-07T16:03:58Z</time>
      </trkpt>
      <trkpt lat="44.38508" lon="5.62756">
        <ele>1057.6</ele>
        <time>2021-09-07T16:03:59Z</time>
      </trkpt>
      <trkpt lat="44.38508" lon="5.62756">
        <ele>1057.6</ele>
        <time>2021-09-07T16:04:00Z</time>
      </trkpt>
      <trkpt lat="44.38508" lon="5.62756">
        <ele>1057.6</ele>
        <time>2021-09-07T16:04:01Z</time>
      </trkpt>
      <trkpt lat="44.38507" lon="5.62756">
        <ele>1057.6</ele>
        <time>2021-09-07T16:04:02Z</time>
      </trkpt>
      <trkpt lat="44.38505" lon="5.62755">
        <ele>1058.1</ele>
        <time>2021-09-07T16:04:03Z</time>
      </trkpt>
      <trkpt lat="44.38504" lon="5.62754">
        <ele>1058.1</ele>
        <time>2021-09-07T16:04:04Z</time>
      </trkpt>
      <trkpt lat="44.38503" lon="5.62753">
        <ele>1058.1</ele>
        <time>2021-09-07T16:04:05Z</time>
      </trkpt>
      <trkpt lat="44.38501" lon="5.62752">
        <ele>1058.1</ele>
        <time>2021-09-07T16:04:06Z</time>
      </trkpt>
      <trkpt lat="44.38501" lon="5.62752">
        <ele>1058.1</ele>
        <time>2021-09-07T16:04:07Z</time>
      </trkpt>
      <trkpt lat="44.385" lon="5.62752">
        <ele>1058.6</ele>
        <time>2021-09-07T16:04:08Z</time>
      </trkpt>
      <trkpt lat="44.38499" lon="5.62751">
        <ele>1058.6</ele>
        <time>2021-09-07T16:04:09Z</time>
      </trkpt>
      <trkpt lat="44.38498" lon="5.62751">
        <ele>1058.6</ele>
        <time>2021-09-07T16:04:10Z</time>
      </trkpt>
      <trkpt lat="44.38498" lon="5.62751">
        <ele>1058.6</ele>
        <time>2021-09-07T16:04:11Z</time>
      </trkpt>
      <trkpt lat="44.38497" lon="5.62751">
        <ele>1059.1</ele>
        <time>2021-09-07T16:04:12Z</time>
      </trkpt>
      <trkpt lat="44.38497" lon="5.62751">
        <ele>1059.1</ele>
        <time>2021-09-07T16:04:13Z</time>
      </trkpt>
      <trkpt lat="44.38497" lon="5.62751">
        <ele>1059.1</ele>
        <time>2021-09-07T16:04:14Z</time>
      </trkpt>
      <trkpt lat="44.38495" lon="5.62749">
        <ele>1059.1</ele>
        <time>2021-09-07T16:04:15Z</time>
      </trkpt>
      <trkpt lat="44.38494" lon="5.62748">
        <ele>1059</ele>
        <time>2021-09-07T16:04:16Z</time>
      </trkpt>
      <trkpt lat="44.38492" lon="5.62747">
        <ele>1059</ele>
        <time>2021-09-07T16:04:17Z</time>
      </trkpt>
      <trkpt lat="44.38491" lon="5.62746">
        <ele>1059.5</ele>
        <time>2021-09-07T16:04:18Z</time>
      </trkpt>
      <trkpt lat="44.3849" lon="5.62746">
        <ele>1059.5</ele>
        <time>2021-09-07T16:04:19Z</time>
      </trkpt>
      <trkpt lat="44.38488" lon="5.62745">
        <ele>1059.9</ele>
        <time>2021-09-07T16:04:20Z</time>
      </trkpt>
      <trkpt lat="44.38487" lon="5.62744">
        <ele>1059.3</ele>
        <time>2021-09-07T16:04:21Z</time>
      </trkpt>
      <trkpt lat="44.38486" lon="5.62744">
        <ele>1059.3</ele>
        <time>2021-09-07T16:04:22Z</time>
      </trkpt>
      <trkpt lat="44.38484" lon="5.62743">
        <ele>1059.7</ele>
        <time>2021-09-07T16:04:23Z</time>
      </trkpt>
      <trkpt lat="44.38483" lon="5.62742">
        <ele>1059.7</ele>
        <time>2021-09-07T16:04:24Z</time>
      </trkpt>
      <trkpt lat="44.38481" lon="5.62741">
        <ele>1060.1</ele>
        <time>2021-09-07T16:04:25Z</time>
      </trkpt>
      <trkpt lat="44.38481" lon="5.62741">
        <ele>1060.1</ele>
        <time>2021-09-07T16:04:26Z</time>
      </trkpt>
      <trkpt lat="44.38481" lon="5.62741">
        <ele>1060.1</ele>
        <time>2021-09-07T16:04:27Z</time>
      </trkpt>
      <trkpt lat="44.38481" lon="5.62741">
        <ele>1060.1</ele>
        <time>2021-09-07T16:04:28Z</time>
      </trkpt>
      <trkpt lat="44.38481" lon="5.62742">
        <ele>1060.1</ele>
        <time>2021-09-07T16:04:29Z</time>
      </trkpt>
      <trkpt lat="44.3848" lon="5.62742">
        <ele>1060.1</ele>
        <time>2021-09-07T16:04:30Z</time>
      </trkpt>
      <trkpt lat="44.3848" lon="5.62742">
        <ele>1060.1</ele>
        <time>2021-09-07T16:04:31Z</time>
      </trkpt>
      <trkpt lat="44.3848" lon="5.62742">
        <ele>1060.1</ele>
        <time>2021-09-07T16:04:32Z</time>
      </trkpt>
      <trkpt lat="44.3848" lon="5.62742">
        <ele>1060.1</ele>
        <time>2021-09-07T16:04:33Z</time>
      </trkpt>
      <trkpt lat="44.3848" lon="5.62742">
        <ele>1060.1</ele>
        <time>2021-09-07T16:04:34Z</time>
      </trkpt>
      <trkpt lat="44.3848" lon="5.62742">
        <ele>1060.1</ele>
        <time>2021-09-07T16:04:35Z</time>
      </trkpt>
      <trkpt lat="44.3848" lon="5.62742">
        <ele>1060.1</ele>
        <time>2021-09-07T16:04:36Z</time>
      </trkpt>
      <trkpt lat="44.3848" lon="5.62742">
        <ele>1060.1</ele>
        <time>2021-09-07T16:04:37Z</time>
      </trkpt>
      <trkpt lat="44.3848" lon="5.62742">
        <ele>1060.1</ele>
        <time>2021-09-07T16:04:38Z</time>
      </trkpt>
      <trkpt lat="44.3848" lon="5.62742">
        <ele>1060.1</ele>
        <time>2021-09-07T16:04:39Z</time>
      </trkpt>
      <trkpt lat="44.3848" lon="5.62741">
        <ele>1060.1</ele>
        <time>2021-09-07T16:04:40Z</time>
      </trkpt>
      <trkpt lat="44.3848" lon="5.62742">
        <ele>1060.1</ele>
        <time>2021-09-07T16:04:41Z</time>
      </trkpt>
      <trkpt lat="44.38479" lon="5.62742">
        <ele>1060.5</ele>
        <time>2021-09-07T16:04:42Z</time>
      </trkpt>
      <trkpt lat="44.38479" lon="5.62742">
        <ele>1060.5</ele>
        <time>2021-09-07T16:04:43Z</time>
      </trkpt>
      <trkpt lat="44.38479" lon="5.62742">
        <ele>1060.5</ele>
        <time>2021-09-07T16:04:44Z</time>
      </trkpt>
      <trkpt lat="44.38479" lon="5.62742">
        <ele>1060.5</ele>
        <time>2021-09-07T16:04:45Z</time>
      </trkpt>
      <trkpt lat="44.38479" lon="5.62742">
        <ele>1060.5</ele>
        <time>2021-09-07T16:04:46Z</time>
      </trkpt>
      <trkpt lat="44.38479" lon="5.62742">
        <ele>1060.5</ele>
        <time>2021-09-07T16:04:47Z</time>
      </trkpt>
      <trkpt lat="44.38479" lon="5.62741">
        <ele>1060.5</ele>
        <time>2021-09-07T16:04:48Z</time>
      </trkpt>
      <trkpt lat="44.38479" lon="5.62741">
        <ele>1060.5</ele>
        <time>2021-09-07T16:04:49Z</time>
      </trkpt>
      <trkpt lat="44.38479" lon="5.62742">
        <ele>1060.5</ele>
        <time>2021-09-07T16:04:50Z</time>
      </trkpt>
      <trkpt lat="44.38479" lon="5.62743">
        <ele>1060.5</ele>
        <time>2021-09-07T16:04:51Z</time>
      </trkpt>
      <trkpt lat="44.38479" lon="5.62744">
        <ele>1060.5</ele>
        <time>2021-09-07T16:04:52Z</time>
      </trkpt>
      <trkpt lat="44.3848" lon="5.62746">
        <ele>1060.7</ele>
        <time>2021-09-07T16:04:53Z</time>
      </trkpt>
      <trkpt lat="44.3848" lon="5.62747">
        <ele>1060.7</ele>
        <time>2021-09-07T16:04:54Z</time>
      </trkpt>
      <trkpt lat="44.3848" lon="5.62748">
        <ele>1060.7</ele>
        <time>2021-09-07T16:04:55Z</time>
      </trkpt>
      <trkpt lat="44.3848" lon="5.6275">
        <ele>1061.3</ele>
        <time>2021-09-07T16:04:56Z</time>
      </trkpt>
      <trkpt lat="44.3848" lon="5.62751">
        <ele>1061.3</ele>
        <time>2021-09-07T16:04:57Z</time>
      </trkpt>
      <trkpt lat="44.3848" lon="5.62752">
        <ele>1061.3</ele>
        <time>2021-09-07T16:04:58Z</time>
      </trkpt>
      <trkpt lat="44.3848" lon="5.62753">
        <ele>1061.3</ele>
        <time>2021-09-07T16:04:59Z</time>
      </trkpt>
      <trkpt lat="44.3848" lon="5.62755">
        <ele>1061.9</ele>
        <time>2021-09-07T16:05:00Z</time>
      </trkpt>
      <trkpt lat="44.3848" lon="5.62755">
        <ele>1061.9</ele>
        <time>2021-09-07T16:05:01Z</time>
      </trkpt>
      <trkpt lat="44.3848" lon="5.62756">
        <ele>1061.9</ele>
        <time>2021-09-07T16:05:02Z</time>
      </trkpt>
      <trkpt lat="44.3848" lon="5.62757">
        <ele>1061.9</ele>
        <time>2021-09-07T16:05:03Z</time>
      </trkpt>
      <trkpt lat="44.3848" lon="5.62757">
        <ele>1061.9</ele>
        <time>2021-09-07T16:05:04Z</time>
      </trkpt>
      <trkpt lat="44.3848" lon="5.62757">
        <ele>1061.9</ele>
        <time>2021-09-07T16:05:05Z</time>
      </trkpt>
      <trkpt lat="44.3848" lon="5.62758">
        <ele>1062.4</ele>
        <time>2021-09-07T16:05:06Z</time>
      </trkpt>
      <trkpt lat="44.3848" lon="5.62758">
        <ele>1062.4</ele>
        <time>2021-09-07T16:05:07Z</time>
      </trkpt>
      <trkpt lat="44.3848" lon="5.62758">
        <ele>1062.4</ele>
        <time>2021-09-07T16:05:08Z</time>
      </trkpt>
      <trkpt lat="44.3848" lon="5.62758">
        <ele>1062.4</ele>
        <time>2021-09-07T16:05:09Z</time>
      </trkpt>
      <trkpt lat="44.3848" lon="5.62758">
        <ele>1062.4</ele>
        <time>2021-09-07T16:05:10Z</time>
      </trkpt>
      <trkpt lat="44.3848" lon="5.62759">
        <ele>1062.4</ele>
        <time>2021-09-07T16:05:11Z</time>
      </trkpt>
      <trkpt lat="44.38479" lon="5.62759">
        <ele>1062.8</ele>
        <time>2021-09-07T16:05:12Z</time>
      </trkpt>
      <trkpt lat="44.38478" lon="5.62759">
        <ele>1062.8</ele>
        <time>2021-09-07T16:05:13Z</time>
      </trkpt>
      <trkpt lat="44.38477" lon="5.6276">
        <ele>1062.8</ele>
        <time>2021-09-07T16:05:14Z</time>
      </trkpt>
      <trkpt lat="44.38477" lon="5.6276">
        <ele>1062.8</ele>
        <time>2021-09-07T16:05:15Z</time>
      </trkpt>
      <trkpt lat="44.38477" lon="5.62761">
        <ele>1062.8</ele>
        <time>2021-09-07T16:05:16Z</time>
      </trkpt>
      <trkpt lat="44.38477" lon="5.62761">
        <ele>1062.8</ele>
        <time>2021-09-07T16:05:17Z</time>
      </trkpt>
      <trkpt lat="44.38477" lon="5.62762">
        <ele>1063.4</ele>
        <time>2021-09-07T16:05:18Z</time>
      </trkpt>
      <trkpt lat="44.38477" lon="5.62764">
        <ele>1063.4</ele>
        <time>2021-09-07T16:05:19Z</time>
      </trkpt>
      <trkpt lat="44.38477" lon="5.62765">
        <ele>1063.4</ele>
        <time>2021-09-07T16:05:20Z</time>
      </trkpt>
      <trkpt lat="44.38481" lon="5.62765">
        <ele>1063</ele>
        <time>2021-09-07T16:05:21Z</time>
      </trkpt>
      <trkpt lat="44.38485" lon="5.62765">
        <ele>1062.7</ele>
        <time>2021-09-07T16:05:22Z</time>
      </trkpt>
      <trkpt lat="44.3849" lon="5.62764">
        <ele>1061.9</ele>
        <time>2021-09-07T16:05:23Z</time>
      </trkpt>
      <trkpt lat="44.38493" lon="5.62763">
        <ele>1061.5</ele>
        <time>2021-09-07T16:05:24Z</time>
      </trkpt>
      <trkpt lat="44.38495" lon="5.62762">
        <ele>1061</ele>
        <time>2021-09-07T16:05:25Z</time>
      </trkpt>
      <trkpt lat="44.38498" lon="5.62761">
        <ele>1059.8</ele>
        <time>2021-09-07T16:05:26Z</time>
      </trkpt>
      <trkpt lat="44.38502" lon="5.62761">
        <ele>1059.3</ele>
        <time>2021-09-07T16:05:27Z</time>
      </trkpt>
      <trkpt lat="44.38505" lon="5.62762">
        <ele>1058.7</ele>
        <time>2021-09-07T16:05:28Z</time>
      </trkpt>
      <trkpt lat="44.38507" lon="5.62762">
        <ele>1058.9</ele>
        <time>2021-09-07T16:05:29Z</time>
      </trkpt>
      <trkpt lat="44.38512" lon="5.62763">
        <ele>1058.4</ele>
        <time>2021-09-07T16:05:30Z</time>
      </trkpt>
      <trkpt lat="44.3852" lon="5.62767">
        <ele>1057.8</ele>
        <time>2021-09-07T16:05:31Z</time>
      </trkpt>
      <trkpt lat="44.38522" lon="5.62769">
        <ele>1057.5</ele>
        <time>2021-09-07T16:05:32Z</time>
      </trkpt>
      <trkpt lat="44.38524" lon="5.62771">
        <ele>1058.2</ele>
        <time>2021-09-07T16:05:33Z</time>
      </trkpt>
      <trkpt lat="44.38527" lon="5.62774">
        <ele>1057.8</ele>
        <time>2021-09-07T16:05:34Z</time>
      </trkpt>
      <trkpt lat="44.3853" lon="5.62777">
        <ele>1058.2</ele>
        <time>2021-09-07T16:05:35Z</time>
      </trkpt>
      <trkpt lat="44.38533" lon="5.62779">
        <ele>1058</ele>
        <time>2021-09-07T16:05:36Z</time>
      </trkpt>
      <trkpt lat="44.38535" lon="5.6278">
        <ele>1058.5</ele>
        <time>2021-09-07T16:05:37Z</time>
      </trkpt>
      <trkpt lat="44.38537" lon="5.6278">
        <ele>1058.5</ele>
        <time>2021-09-07T16:05:38Z</time>
      </trkpt>
      <trkpt lat="44.38538" lon="5.6278">
        <ele>1058.3</ele>
        <time>2021-09-07T16:05:39Z</time>
      </trkpt>
      <trkpt lat="44.3854" lon="5.62777">
        <ele>1057.6</ele>
        <time>2021-09-07T16:05:40Z</time>
      </trkpt>
      <trkpt lat="44.38542" lon="5.62774">
        <ele>1056.7</ele>
        <time>2021-09-07T16:05:41Z</time>
      </trkpt>
      <trkpt lat="44.38545" lon="5.6277">
        <ele>1055.8</ele>
        <time>2021-09-07T16:05:42Z</time>
      </trkpt>
      <trkpt lat="44.38548" lon="5.62762">
        <ele>1054.9</ele>
        <time>2021-09-07T16:05:43Z</time>
      </trkpt>
      <trkpt lat="44.38552" lon="5.62755">
        <ele>1053.4</ele>
        <time>2021-09-07T16:05:44Z</time>
      </trkpt>
      <trkpt lat="44.38557" lon="5.62748">
        <ele>1051.9</ele>
        <time>2021-09-07T16:05:45Z</time>
      </trkpt>
      <trkpt lat="44.38561" lon="5.62741">
        <ele>1051.2</ele>
        <time>2021-09-07T16:05:46Z</time>
      </trkpt>
      <trkpt lat="44.38566" lon="5.62734">
        <ele>1050</ele>
        <time>2021-09-07T16:05:47Z</time>
      </trkpt>
      <trkpt lat="44.38571" lon="5.62727">
        <ele>1048.7</ele>
        <time>2021-09-07T16:05:48Z</time>
      </trkpt>
      <trkpt lat="44.38575" lon="5.6272">
        <ele>1048.1</ele>
        <time>2021-09-07T16:05:49Z</time>
      </trkpt>
      <trkpt lat="44.38578" lon="5.62713">
        <ele>1047</ele>
        <time>2021-09-07T16:05:50Z</time>
      </trkpt>
      <trkpt lat="44.38581" lon="5.62706">
        <ele>1046.6</ele>
        <time>2021-09-07T16:05:51Z</time>
      </trkpt>
      <trkpt lat="44.38584" lon="5.62701">
        <ele>1046</ele>
        <time>2021-09-07T16:05:52Z</time>
      </trkpt>
      <trkpt lat="44.38586" lon="5.62695">
        <ele>1045.6</ele>
        <time>2021-09-07T16:05:53Z</time>
      </trkpt>
      <trkpt lat="44.38587" lon="5.62692">
        <ele>1045.6</ele>
        <time>2021-09-07T16:05:54Z</time>
      </trkpt>
      <trkpt lat="44.38589" lon="5.62687">
        <ele>1045.2</ele>
        <time>2021-09-07T16:05:55Z</time>
      </trkpt>
      <trkpt lat="44.3859" lon="5.62685">
        <ele>1045.2</ele>
        <time>2021-09-07T16:05:56Z</time>
      </trkpt>
      <trkpt lat="44.38591" lon="5.62682">
        <ele>1045.2</ele>
        <time>2021-09-07T16:05:57Z</time>
      </trkpt>
      <trkpt lat="44.38593" lon="5.62677">
        <ele>1045.3</ele>
        <time>2021-09-07T16:05:58Z</time>
      </trkpt>
      <trkpt lat="44.38595" lon="5.62673">
        <ele>1045</ele>
        <time>2021-09-07T16:05:59Z</time>
      </trkpt>
      <trkpt lat="44.38597" lon="5.62671">
        <ele>1045.1</ele>
        <time>2021-09-07T16:06:00Z</time>
      </trkpt>
      <trkpt lat="44.38598" lon="5.62669">
        <ele>1045.1</ele>
        <time>2021-09-07T16:06:01Z</time>
      </trkpt>
      <trkpt lat="44.38601" lon="5.62666">
        <ele>1045.3</ele>
        <time>2021-09-07T16:06:02Z</time>
      </trkpt>
      <trkpt lat="44.38605" lon="5.62664">
        <ele>1046.4</ele>
        <time>2021-09-07T16:06:03Z</time>
      </trkpt>
      <trkpt lat="44.38606" lon="5.62664">
        <ele>1046.4</ele>
        <time>2021-09-07T16:06:04Z</time>
      </trkpt>
      <trkpt lat="44.38607" lon="5.62663">
        <ele>1046.2</ele>
        <time>2021-09-07T16:06:05Z</time>
      </trkpt>
      <trkpt lat="44.38609" lon="5.62663">
        <ele>1046.8</ele>
        <time>2021-09-07T16:06:06Z</time>
      </trkpt>
      <trkpt lat="44.38609" lon="5.62664">
        <ele>1047</ele>
        <time>2021-09-07T16:06:07Z</time>
      </trkpt>
      <trkpt lat="44.38609" lon="5.62664">
        <ele>1047</ele>
        <time>2021-09-07T16:06:08Z</time>
      </trkpt>
      <trkpt lat="44.38609" lon="5.62664">
        <ele>1047</ele>
        <time>2021-09-07T16:06:09Z</time>
      </trkpt>
      <trkpt lat="44.38609" lon="5.62664">
        <ele>1047</ele>
        <time>2021-09-07T16:06:10Z</time>
      </trkpt>
      <trkpt lat="44.38609" lon="5.62664">
        <ele>1047</ele>
        <time>2021-09-07T16:06:11Z</time>
      </trkpt>
      <trkpt lat="44.38609" lon="5.62664">
        <ele>1047</ele>
        <time>2021-09-07T16:06:12Z</time>
      </trkpt>
      <trkpt lat="44.38609" lon="5.62664">
        <ele>1047</ele>
        <time>2021-09-07T16:06:13Z</time>
      </trkpt>
      <trkpt lat="44.38609" lon="5.62664">
        <ele>1047</ele>
        <time>2021-09-07T16:06:14Z</time>
      </trkpt>
      <trkpt lat="44.38609" lon="5.62664">
        <ele>1047</ele>
        <time>2021-09-07T16:06:15Z</time>
      </trkpt>
      <trkpt lat="44.38609" lon="5.62664">
        <ele>1047</ele>
        <time>2021-09-07T16:06:16Z</time>
      </trkpt>
      <trkpt lat="44.38609" lon="5.62664">
        <ele>1047</ele>
        <time>2021-09-07T16:06:17Z</time>
      </trkpt>
      <trkpt lat="44.38609" lon="5.62664">
        <ele>1047</ele>
        <time>2021-09-07T16:06:18Z</time>
      </trkpt>
      <trkpt lat="44.38609" lon="5.62664">
        <ele>1047</ele>
        <time>2021-09-07T16:06:19Z</time>
      </trkpt>
      <trkpt lat="44.38609" lon="5.62664">
        <ele>1047</ele>
        <time>2021-09-07T16:06:20Z</time>
      </trkpt>
      <trkpt lat="44.38609" lon="5.62664">
        <ele>1047</ele>
        <time>2021-09-07T16:06:21Z</time>
      </trkpt>
      <trkpt lat="44.38608" lon="5.62664">
        <ele>1047</ele>
        <time>2021-09-07T16:06:22Z</time>
      </trkpt>
      <trkpt lat="44.38608" lon="5.62664">
        <ele>1047</ele>
        <time>2021-09-07T16:06:23Z</time>
      </trkpt>
      <trkpt lat="44.38608" lon="5.62664">
        <ele>1047</ele>
        <time>2021-09-07T16:06:24Z</time>
      </trkpt>
      <trkpt lat="44.38608" lon="5.62664">
        <ele>1047</ele>
        <time>2021-09-07T16:06:25Z</time>
      </trkpt>
      <trkpt lat="44.38608" lon="5.62664">
        <ele>1047</ele>
        <time>2021-09-07T16:06:26Z</time>
      </trkpt>
      <trkpt lat="44.38608" lon="5.62664">
        <ele>1047</ele>
        <time>2021-09-07T16:06:27Z</time>
      </trkpt>
      <trkpt lat="44.38608" lon="5.62664">
        <ele>1047</ele>
        <time>2021-09-07T16:06:28Z</time>
      </trkpt>
      <trkpt lat="44.38609" lon="5.62664">
        <ele>1047</ele>
        <time>2021-09-07T16:06:29Z</time>
      </trkpt>
      <trkpt lat="44.38609" lon="5.62664">
        <ele>1047</ele>
        <time>2021-09-07T16:06:30Z</time>
      </trkpt>
      <trkpt lat="44.38608" lon="5.62664">
        <ele>1047</ele>
        <time>2021-09-07T16:06:31Z</time>
      </trkpt>
      <trkpt lat="44.38608" lon="5.62664">
        <ele>1047</ele>
        <time>2021-09-07T16:06:32Z</time>
      </trkpt>
      <trkpt lat="44.38608" lon="5.62665">
        <ele>1047</ele>
        <time>2021-09-07T16:06:33Z</time>
      </trkpt>
      <trkpt lat="44.38608" lon="5.62665">
        <ele>1047</ele>
        <time>2021-09-07T16:06:34Z</time>
      </trkpt>
      <trkpt lat="44.38608" lon="5.62665">
        <ele>1047</ele>
        <time>2021-09-07T16:06:35Z</time>
      </trkpt>
      <trkpt lat="44.38608" lon="5.62665">
        <ele>1047</ele>
        <time>2021-09-07T16:06:36Z</time>
      </trkpt>
      <trkpt lat="44.38608" lon="5.62666">
        <ele>1047</ele>
        <time>2021-09-07T16:06:37Z</time>
      </trkpt>
      <trkpt lat="44.38608" lon="5.62666">
        <ele>1047</ele>
        <time>2021-09-07T16:06:38Z</time>
      </trkpt>
      <trkpt lat="44.38607" lon="5.62666">
        <ele>1046.4</ele>
        <time>2021-09-07T16:06:39Z</time>
      </trkpt>
      <trkpt lat="44.38607" lon="5.62667">
        <ele>1046.4</ele>
        <time>2021-09-07T16:06:40Z</time>
      </trkpt>
      <trkpt lat="44.38605" lon="5.6267">
        <ele>1046.6</ele>
        <time>2021-09-07T16:06:41Z</time>
      </trkpt>
      <trkpt lat="44.386" lon="5.62673">
        <ele>1045.8</ele>
        <time>2021-09-07T16:06:42Z</time>
      </trkpt>
      <trkpt lat="44.38597" lon="5.62674">
        <ele>1045.4</ele>
        <time>2021-09-07T16:06:43Z</time>
      </trkpt>
      <trkpt lat="44.38594" lon="5.62676">
        <ele>1045</ele>
        <time>2021-09-07T16:06:44Z</time>
      </trkpt>
      <trkpt lat="44.38585" lon="5.62679">
        <ele>1044.2</ele>
        <time>2021-09-07T16:06:45Z</time>
      </trkpt>
      <trkpt lat="44.38577" lon="5.62681">
        <ele>1043.8</ele>
        <time>2021-09-07T16:06:46Z</time>
      </trkpt>
      <trkpt lat="44.38574" lon="5.62681">
        <ele>1043.6</ele>
        <time>2021-09-07T16:06:47Z</time>
      </trkpt>
      <trkpt lat="44.38571" lon="5.62681">
        <ele>1043.5</ele>
        <time>2021-09-07T16:06:48Z</time>
      </trkpt>
      <trkpt lat="44.38564" lon="5.62678">
        <ele>1042.9</ele>
        <time>2021-09-07T16:06:49Z</time>
      </trkpt>
      <trkpt lat="44.38559" lon="5.62675">
        <ele>1042.3</ele>
        <time>2021-09-07T16:06:50Z</time>
      </trkpt>
      <trkpt lat="44.38556" lon="5.62672">
        <ele>1041.8</ele>
        <time>2021-09-07T16:06:51Z</time>
      </trkpt>
      <trkpt lat="44.38553" lon="5.62668">
        <ele>1041.8</ele>
        <time>2021-09-07T16:06:52Z</time>
      </trkpt>
      <trkpt lat="44.38548" lon="5.62661">
        <ele>1040.9</ele>
        <time>2021-09-07T16:06:53Z</time>
      </trkpt>
      <trkpt lat="44.38544" lon="5.62655">
        <ele>1040.6</ele>
        <time>2021-09-07T16:06:54Z</time>
      </trkpt>
      <trkpt lat="44.38539" lon="5.62649">
        <ele>1040</ele>
        <time>2021-09-07T16:06:55Z</time>
      </trkpt>
      <trkpt lat="44.38535" lon="5.62644">
        <ele>1039.7</ele>
        <time>2021-09-07T16:06:56Z</time>
      </trkpt>
      <trkpt lat="44.38531" lon="5.6264">
        <ele>1039.5</ele>
        <time>2021-09-07T16:06:57Z</time>
      </trkpt>
      <trkpt lat="44.38526" lon="5.62636">
        <ele>1039.1</ele>
        <time>2021-09-07T16:06:58Z</time>
      </trkpt>
      <trkpt lat="44.38522" lon="5.62632">
        <ele>1039.1</ele>
        <time>2021-09-07T16:06:59Z</time>
      </trkpt>
      <trkpt lat="44.38517" lon="5.62628">
        <ele>1038.9</ele>
        <time>2021-09-07T16:07:00Z</time>
      </trkpt>
      <trkpt lat="44.38512" lon="5.62624">
        <ele>1039</ele>
        <time>2021-09-07T16:07:01Z</time>
      </trkpt>
      <trkpt lat="44.38507" lon="5.6262">
        <ele>1038.9</ele>
        <time>2021-09-07T16:07:02Z</time>
      </trkpt>
      <trkpt lat="44.38502" lon="5.62615">
        <ele>1039</ele>
        <time>2021-09-07T16:07:03Z</time>
      </trkpt>
      <trkpt lat="44.38496" lon="5.62611">
        <ele>1039.2</ele>
        <time>2021-09-07T16:07:04Z</time>
      </trkpt>
      <trkpt lat="44.3849" lon="5.62607">
        <ele>1039.2</ele>
        <time>2021-09-07T16:07:05Z</time>
      </trkpt>
      <trkpt lat="44.38485" lon="5.62603">
        <ele>1039.7</ele>
        <time>2021-09-07T16:07:06Z</time>
      </trkpt>
      <trkpt lat="44.3848" lon="5.626">
        <ele>1039.4</ele>
        <time>2021-09-07T16:07:07Z</time>
      </trkpt>
      <trkpt lat="44.38475" lon="5.62596">
        <ele>1039.3</ele>
        <time>2021-09-07T16:07:08Z</time>
      </trkpt>
      <trkpt lat="44.3847" lon="5.62593">
        <ele>1039</ele>
        <time>2021-09-07T16:07:09Z</time>
      </trkpt>
      <trkpt lat="44.38465" lon="5.6259">
        <ele>1038.8</ele>
        <time>2021-09-07T16:07:10Z</time>
      </trkpt>
      <trkpt lat="44.38462" lon="5.62588">
        <ele>1038.9</ele>
        <time>2021-09-07T16:07:11Z</time>
      </trkpt>
      <trkpt lat="44.38459" lon="5.62586">
        <ele>1039.1</ele>
        <time>2021-09-07T16:07:12Z</time>
      </trkpt>
      <trkpt lat="44.38456" lon="5.62584">
        <ele>1038.5</ele>
        <time>2021-09-07T16:07:13Z</time>
      </trkpt>
      <trkpt lat="44.38453" lon="5.62583">
        <ele>1038.6</ele>
        <time>2021-09-07T16:07:14Z</time>
      </trkpt>
      <trkpt lat="44.3845" lon="5.62581">
        <ele>1038</ele>
        <time>2021-09-07T16:07:15Z</time>
      </trkpt>
      <trkpt lat="44.38446" lon="5.62579">
        <ele>1038</ele>
        <time>2021-09-07T16:07:16Z</time>
      </trkpt>
      <trkpt lat="44.38443" lon="5.62575">
        <ele>1037.4</ele>
        <time>2021-09-07T16:07:17Z</time>
      </trkpt>
      <trkpt lat="44.3844" lon="5.6257">
        <ele>1036.7</ele>
        <time>2021-09-07T16:07:18Z</time>
      </trkpt>
      <trkpt lat="44.38434" lon="5.62568">
        <ele>1036</ele>
        <time>2021-09-07T16:07:19Z</time>
      </trkpt>
      <trkpt lat="44.38433" lon="5.62568">
        <ele>1036</ele>
        <time>2021-09-07T16:07:20Z</time>
      </trkpt>
      <trkpt lat="44.38431" lon="5.62567">
        <ele>1036</ele>
        <time>2021-09-07T16:07:21Z</time>
      </trkpt>
      <trkpt lat="44.38426" lon="5.62566">
        <ele>1036</ele>
        <time>2021-09-07T16:07:22Z</time>
      </trkpt>
      <trkpt lat="44.38423" lon="5.62567">
        <ele>1036.1</ele>
        <time>2021-09-07T16:07:23Z</time>
      </trkpt>
      <trkpt lat="44.3842" lon="5.62567">
        <ele>1036.1</ele>
        <time>2021-09-07T16:07:24Z</time>
      </trkpt>
      <trkpt lat="44.38416" lon="5.62567">
        <ele>1036.2</ele>
        <time>2021-09-07T16:07:25Z</time>
      </trkpt>
      <trkpt lat="44.38414" lon="5.62567">
        <ele>1036.2</ele>
        <time>2021-09-07T16:07:26Z</time>
      </trkpt>
      <trkpt lat="44.38411" lon="5.62566">
        <ele>1036.2</ele>
        <time>2021-09-07T16:07:27Z</time>
      </trkpt>
      <trkpt lat="44.38408" lon="5.62565">
        <ele>1036.2</ele>
        <time>2021-09-07T16:07:28Z</time>
      </trkpt>
      <trkpt lat="44.38404" lon="5.62566">
        <ele>1036.3</ele>
        <time>2021-09-07T16:07:29Z</time>
      </trkpt>
      <trkpt lat="44.38402" lon="5.62566">
        <ele>1036.3</ele>
        <time>2021-09-07T16:07:30Z</time>
      </trkpt>
      <trkpt lat="44.384" lon="5.62566">
        <ele>1036.3</ele>
        <time>2021-09-07T16:07:31Z</time>
      </trkpt>
      <trkpt lat="44.38397" lon="5.62566">
        <ele>1036.3</ele>
        <time>2021-09-07T16:07:32Z</time>
      </trkpt>
      <trkpt lat="44.38395" lon="5.62566">
        <ele>1036.3</ele>
        <time>2021-09-07T16:07:33Z</time>
      </trkpt>
      <trkpt lat="44.38393" lon="5.62566">
        <ele>1036.3</ele>
        <time>2021-09-07T16:07:34Z</time>
      </trkpt>
      <trkpt lat="44.38391" lon="5.62567">
        <ele>1036.3</ele>
        <time>2021-09-07T16:07:35Z</time>
      </trkpt>
      <trkpt lat="44.3839" lon="5.62567">
        <ele>1036.2</ele>
        <time>2021-09-07T16:07:36Z</time>
      </trkpt>
      <trkpt lat="44.38388" lon="5.62566">
        <ele>1036.2</ele>
        <time>2021-09-07T16:07:37Z</time>
      </trkpt>
      <trkpt lat="44.38386" lon="5.62566">
        <ele>1036.2</ele>
        <time>2021-09-07T16:07:38Z</time>
      </trkpt>
      <trkpt lat="44.38385" lon="5.62566">
        <ele>1036.2</ele>
        <time>2021-09-07T16:07:39Z</time>
      </trkpt>
      <trkpt lat="44.38385" lon="5.62566">
        <ele>1036.2</ele>
        <time>2021-09-07T16:07:40Z</time>
      </trkpt>
      <trkpt lat="44.38384" lon="5.62566">
        <ele>1036.2</ele>
        <time>2021-09-07T16:07:41Z</time>
      </trkpt>
      <trkpt lat="44.38382" lon="5.62565">
        <ele>1036.2</ele>
        <time>2021-09-07T16:07:42Z</time>
      </trkpt>
      <trkpt lat="44.3838" lon="5.62566">
        <ele>1036.1</ele>
        <time>2021-09-07T16:07:43Z</time>
      </trkpt>
      <trkpt lat="44.38378" lon="5.62566">
        <ele>1036.1</ele>
        <time>2021-09-07T16:07:44Z</time>
      </trkpt>
      <trkpt lat="44.38375" lon="5.62567">
        <ele>1036.1</ele>
        <time>2021-09-07T16:07:45Z</time>
      </trkpt>
      <trkpt lat="44.38372" lon="5.62567">
        <ele>1036.1</ele>
        <time>2021-09-07T16:07:46Z</time>
      </trkpt>
      <trkpt lat="44.38368" lon="5.62568">
        <ele>1036</ele>
        <time>2021-09-07T16:07:47Z</time>
      </trkpt>
      <trkpt lat="44.38365" lon="5.62569">
        <ele>1036.7</ele>
        <time>2021-09-07T16:07:48Z</time>
      </trkpt>
      <trkpt lat="44.38362" lon="5.6257">
        <ele>1036.7</ele>
        <time>2021-09-07T16:07:49Z</time>
      </trkpt>
      <trkpt lat="44.38358" lon="5.62572">
        <ele>1036.7</ele>
        <time>2021-09-07T16:07:50Z</time>
      </trkpt>
      <trkpt lat="44.38357" lon="5.62573">
        <ele>1036.7</ele>
        <time>2021-09-07T16:07:51Z</time>
      </trkpt>
      <trkpt lat="44.38355" lon="5.62573">
        <ele>1037.5</ele>
        <time>2021-09-07T16:07:52Z</time>
      </trkpt>
      <trkpt lat="44.38351" lon="5.62575">
        <ele>1037.4</ele>
        <time>2021-09-07T16:07:53Z</time>
      </trkpt>
      <trkpt lat="44.38348" lon="5.62576">
        <ele>1037.4</ele>
        <time>2021-09-07T16:07:54Z</time>
      </trkpt>
      <trkpt lat="44.38347" lon="5.62577">
        <ele>1037.3</ele>
        <time>2021-09-07T16:07:55Z</time>
      </trkpt>
      <trkpt lat="44.38345" lon="5.62578">
        <ele>1038.2</ele>
        <time>2021-09-07T16:07:56Z</time>
      </trkpt>
      <trkpt lat="44.38343" lon="5.62579">
        <ele>1038.1</ele>
        <time>2021-09-07T16:07:57Z</time>
      </trkpt>
      <trkpt lat="44.38341" lon="5.62581">
        <ele>1038.1</ele>
        <time>2021-09-07T16:07:58Z</time>
      </trkpt>
      <trkpt lat="44.38338" lon="5.62582">
        <ele>1039</ele>
        <time>2021-09-07T16:07:59Z</time>
      </trkpt>
      <trkpt lat="44.38338" lon="5.62583">
        <ele>1038.8</ele>
        <time>2021-09-07T16:08:00Z</time>
      </trkpt>
      <trkpt lat="44.38337" lon="5.62583">
        <ele>1038.8</ele>
        <time>2021-09-07T16:08:01Z</time>
      </trkpt>
      <trkpt lat="44.38335" lon="5.62584">
        <ele>1038.8</ele>
        <time>2021-09-07T16:08:02Z</time>
      </trkpt>
      <trkpt lat="44.38336" lon="5.62585">
        <ele>1038.8</ele>
        <time>2021-09-07T16:08:03Z</time>
      </trkpt>
      <trkpt lat="44.38336" lon="5.62585">
        <ele>1038.8</ele>
        <time>2021-09-07T16:08:04Z</time>
      </trkpt>
      <trkpt lat="44.38335" lon="5.62585">
        <ele>1038.8</ele>
        <time>2021-09-07T16:08:05Z</time>
      </trkpt>
      <trkpt lat="44.38336" lon="5.62586">
        <ele>1039.8</ele>
        <time>2021-09-07T16:08:06Z</time>
      </trkpt>
      <trkpt lat="44.38336" lon="5.62586">
        <ele>1039.8</ele>
        <time>2021-09-07T16:08:07Z</time>
      </trkpt>
      <trkpt lat="44.38336" lon="5.62586">
        <ele>1039.8</ele>
        <time>2021-09-07T16:08:08Z</time>
      </trkpt>
      <trkpt lat="44.38336" lon="5.62586">
        <ele>1039.8</ele>
        <time>2021-09-07T16:08:09Z</time>
      </trkpt>
      <trkpt lat="44.38336" lon="5.62586">
        <ele>1039.8</ele>
        <time>2021-09-07T16:08:10Z</time>
      </trkpt>
      <trkpt lat="44.38336" lon="5.62586">
        <ele>1039.8</ele>
        <time>2021-09-07T16:08:11Z</time>
      </trkpt>
      <trkpt lat="44.38336" lon="5.62586">
        <ele>1039.8</ele>
        <time>2021-09-07T16:08:12Z</time>
      </trkpt>
      <trkpt lat="44.38336" lon="5.62586">
        <ele>1039.8</ele>
        <time>2021-09-07T16:08:13Z</time>
      </trkpt>
      <trkpt lat="44.38336" lon="5.62586">
        <ele>1038.8</ele>
        <time>2021-09-07T16:08:14Z</time>
      </trkpt>
      <trkpt lat="44.38336" lon="5.62585">
        <ele>1038.8</ele>
        <time>2021-09-07T16:08:15Z</time>
      </trkpt>
      <trkpt lat="44.38336" lon="5.62585">
        <ele>1038.8</ele>
        <time>2021-09-07T16:08:16Z</time>
      </trkpt>
      <trkpt lat="44.38336" lon="5.62586">
        <ele>1039.8</ele>
        <time>2021-09-07T16:08:17Z</time>
      </trkpt>
      <trkpt lat="44.38336" lon="5.62586">
        <ele>1039.8</ele>
        <time>2021-09-07T16:08:18Z</time>
      </trkpt>
      <trkpt lat="44.38336" lon="5.62586">
        <ele>1039.8</ele>
        <time>2021-09-07T16:08:19Z</time>
      </trkpt>
      <trkpt lat="44.38336" lon="5.62586">
        <ele>1039.8</ele>
        <time>2021-09-07T16:08:20Z</time>
      </trkpt>
      <trkpt lat="44.38336" lon="5.62586">
        <ele>1039.8</ele>
        <time>2021-09-07T16:08:21Z</time>
      </trkpt>
      <trkpt lat="44.38336" lon="5.62586">
        <ele>1039.8</ele>
        <time>2021-09-07T16:08:22Z</time>
      </trkpt>
      <trkpt lat="44.38336" lon="5.62586">
        <ele>1039.8</ele>
        <time>2021-09-07T16:08:23Z</time>
      </trkpt>
      <trkpt lat="44.38336" lon="5.62586">
        <ele>1039.8</ele>
        <time>2021-09-07T16:08:24Z</time>
      </trkpt>
      <trkpt lat="44.38336" lon="5.62586">
        <ele>1039.8</ele>
        <time>2021-09-07T16:08:25Z</time>
      </trkpt>
      <trkpt lat="44.38336" lon="5.62586">
        <ele>1039.8</ele>
        <time>2021-09-07T16:08:26Z</time>
      </trkpt>
      <trkpt lat="44.38336" lon="5.62586">
        <ele>1039.8</ele>
        <time>2021-09-07T16:08:27Z</time>
      </trkpt>
      <trkpt lat="44.38336" lon="5.62586">
        <ele>1039.8</ele>
        <time>2021-09-07T16:08:28Z</time>
      </trkpt>
      <trkpt lat="44.38336" lon="5.62586">
        <ele>1039.8</ele>
        <time>2021-09-07T16:08:29Z</time>
      </trkpt>
      <trkpt lat="44.38336" lon="5.62586">
        <ele>1039.8</ele>
        <time>2021-09-07T16:08:30Z</time>
      </trkpt>
      <trkpt lat="44.38336" lon="5.62586">
        <ele>1039.8</ele>
        <time>2021-09-07T16:08:31Z</time>
      </trkpt>
      <trkpt lat="44.38336" lon="5.62586">
        <ele>1039.8</ele>
        <time>2021-09-07T16:08:32Z</time>
      </trkpt>
      <trkpt lat="44.38336" lon="5.62586">
        <ele>1039.8</ele>
        <time>2021-09-07T16:08:33Z</time>
      </trkpt>
      <trkpt lat="44.38336" lon="5.62586">
        <ele>1039.8</ele>
        <time>2021-09-07T16:08:34Z</time>
      </trkpt>
      <trkpt lat="44.38336" lon="5.62586">
        <ele>1039.8</ele>
        <time>2021-09-07T16:08:35Z</time>
      </trkpt>
      <trkpt lat="44.38336" lon="5.62586">
        <ele>1039.8</ele>
        <time>2021-09-07T16:08:36Z</time>
      </trkpt>
      <trkpt lat="44.38335" lon="5.62586">
        <ele>1039.8</ele>
        <time>2021-09-07T16:08:37Z</time>
      </trkpt>
      <trkpt lat="44.38334" lon="5.62586">
        <ele>1039.6</ele>
        <time>2021-09-07T16:08:38Z</time>
      </trkpt>
      <trkpt lat="44.38333" lon="5.62586">
        <ele>1039.6</ele>
        <time>2021-09-07T16:08:39Z</time>
      </trkpt>
      <trkpt lat="44.38332" lon="5.62586">
        <ele>1039.6</ele>
        <time>2021-09-07T16:08:40Z</time>
      </trkpt>
      <trkpt lat="44.38331" lon="5.62586">
        <ele>1039.5</ele>
        <time>2021-09-07T16:08:41Z</time>
      </trkpt>
      <trkpt lat="44.3833" lon="5.62586">
        <ele>1039.5</ele>
        <time>2021-09-07T16:08:42Z</time>
      </trkpt>
      <trkpt lat="44.38328" lon="5.62585">
        <ele>1038.4</ele>
        <time>2021-09-07T16:08:43Z</time>
      </trkpt>
      <trkpt lat="44.38326" lon="5.62584">
        <ele>1038.3</ele>
        <time>2021-09-07T16:08:44Z</time>
      </trkpt>
      <trkpt lat="44.38323" lon="5.62582">
        <ele>1038.3</ele>
        <time>2021-09-07T16:08:45Z</time>
      </trkpt>
      <trkpt lat="44.38317" lon="5.62578">
        <ele>1037.2</ele>
        <time>2021-09-07T16:08:46Z</time>
      </trkpt>
      <trkpt lat="44.38309" lon="5.62574">
        <ele>1036.3</ele>
        <time>2021-09-07T16:08:47Z</time>
      </trkpt>
      <trkpt lat="44.38307" lon="5.62573">
        <ele>1035.4</ele>
        <time>2021-09-07T16:08:48Z</time>
      </trkpt>
      <trkpt lat="44.38304" lon="5.62571">
        <ele>1035.4</ele>
        <time>2021-09-07T16:08:49Z</time>
      </trkpt>
      <trkpt lat="44.38298" lon="5.62569">
        <ele>1035.4</ele>
        <time>2021-09-07T16:08:50Z</time>
      </trkpt>
      <trkpt lat="44.38295" lon="5.62568">
        <ele>1034.6</ele>
        <time>2021-09-07T16:08:51Z</time>
      </trkpt>
      <trkpt lat="44.38292" lon="5.62567">
        <ele>1034.6</ele>
        <time>2021-09-07T16:08:52Z</time>
      </trkpt>
      <trkpt lat="44.38288" lon="5.62566">
        <ele>1034.7</ele>
        <time>2021-09-07T16:08:53Z</time>
      </trkpt>
      <trkpt lat="44.38286" lon="5.62566">
        <ele>1034.7</ele>
        <time>2021-09-07T16:08:54Z</time>
      </trkpt>
      <trkpt lat="44.38284" lon="5.62567">
        <ele>1034.7</ele>
        <time>2021-09-07T16:08:55Z</time>
      </trkpt>
      <trkpt lat="44.38281" lon="5.62567">
        <ele>1034.7</ele>
        <time>2021-09-07T16:08:56Z</time>
      </trkpt>
      <trkpt lat="44.3828" lon="5.62568">
        <ele>1034.6</ele>
        <time>2021-09-07T16:08:57Z</time>
      </trkpt>
      <trkpt lat="44.38278" lon="5.62568">
        <ele>1034.6</ele>
        <time>2021-09-07T16:08:58Z</time>
      </trkpt>
      <trkpt lat="44.38277" lon="5.62568">
        <ele>1034.6</ele>
        <time>2021-09-07T16:08:59Z</time>
      </trkpt>
      <trkpt lat="44.38276" lon="5.62568">
        <ele>1034.6</ele>
        <time>2021-09-07T16:09:00Z</time>
      </trkpt>
      <trkpt lat="44.38276" lon="5.62567">
        <ele>1034.6</ele>
        <time>2021-09-07T16:09:01Z</time>
      </trkpt>
      <trkpt lat="44.38276" lon="5.62566">
        <ele>1034.6</ele>
        <time>2021-09-07T16:09:02Z</time>
      </trkpt>
      <trkpt lat="44.38276" lon="5.62566">
        <ele>1034.6</ele>
        <time>2021-09-07T16:09:03Z</time>
      </trkpt>
      <trkpt lat="44.38276" lon="5.62566">
        <ele>1034.6</ele>
        <time>2021-09-07T16:09:04Z</time>
      </trkpt>
      <trkpt lat="44.38276" lon="5.62566">
        <ele>1034.6</ele>
        <time>2021-09-07T16:09:05Z</time>
      </trkpt>
      <trkpt lat="44.38276" lon="5.62566">
        <ele>1034.6</ele>
        <time>2021-09-07T16:09:06Z</time>
      </trkpt>
      <trkpt lat="44.38276" lon="5.62566">
        <ele>1034.6</ele>
        <time>2021-09-07T16:09:07Z</time>
      </trkpt>
      <trkpt lat="44.38276" lon="5.62566">
        <ele>1034.6</ele>
        <time>2021-09-07T16:09:08Z</time>
      </trkpt>
      <trkpt lat="44.38276" lon="5.62566">
        <ele>1034.6</ele>
        <time>2021-09-07T16:09:09Z</time>
      </trkpt>
      <trkpt lat="44.38276" lon="5.62566">
        <ele>1034.6</ele>
        <time>2021-09-07T16:09:10Z</time>
      </trkpt>
      <trkpt lat="44.38275" lon="5.62566">
        <ele>1034.6</ele>
        <time>2021-09-07T16:09:11Z</time>
      </trkpt>
      <trkpt lat="44.38275" lon="5.62566">
        <ele>1034.6</ele>
        <time>2021-09-07T16:09:12Z</time>
      </trkpt>
      <trkpt lat="44.38274" lon="5.62566">
        <ele>1034.6</ele>
        <time>2021-09-07T16:09:13Z</time>
      </trkpt>
      <trkpt lat="44.38273" lon="5.62566">
        <ele>1034.6</ele>
        <time>2021-09-07T16:09:14Z</time>
      </trkpt>
      <trkpt lat="44.38272" lon="5.62566">
        <ele>1034.6</ele>
        <time>2021-09-07T16:09:15Z</time>
      </trkpt>
      <trkpt lat="44.3827" lon="5.62566">
        <ele>1034.5</ele>
        <time>2021-09-07T16:09:16Z</time>
      </trkpt>
      <trkpt lat="44.38268" lon="5.62568">
        <ele>1034.5</ele>
        <time>2021-09-07T16:09:17Z</time>
      </trkpt>
      <trkpt lat="44.38266" lon="5.62569">
        <ele>1035.3</ele>
        <time>2021-09-07T16:09:18Z</time>
      </trkpt>
      <trkpt lat="44.38264" lon="5.62571">
        <ele>1035.2</ele>
        <time>2021-09-07T16:09:19Z</time>
      </trkpt>
      <trkpt lat="44.38262" lon="5.62573">
        <ele>1036</ele>
        <time>2021-09-07T16:09:20Z</time>
      </trkpt>
      <trkpt lat="44.38259" lon="5.62574">
        <ele>1036</ele>
        <time>2021-09-07T16:09:21Z</time>
      </trkpt>
      <trkpt lat="44.38255" lon="5.62574">
        <ele>1035.7</ele>
        <time>2021-09-07T16:09:22Z</time>
      </trkpt>
      <trkpt lat="44.38252" lon="5.62574">
        <ele>1035.6</ele>
        <time>2021-09-07T16:09:23Z</time>
      </trkpt>
      <trkpt lat="44.3825" lon="5.62575">
        <ele>1035.6</ele>
        <time>2021-09-07T16:09:24Z</time>
      </trkpt>
      <trkpt lat="44.38248" lon="5.62575">
        <ele>1035.4</ele>
        <time>2021-09-07T16:09:25Z</time>
      </trkpt>
      <trkpt lat="44.38246" lon="5.62576">
        <ele>1035.4</ele>
        <time>2021-09-07T16:09:26Z</time>
      </trkpt>
      <trkpt lat="44.38244" lon="5.62577">
        <ele>1035.2</ele>
        <time>2021-09-07T16:09:27Z</time>
      </trkpt>
      <trkpt lat="44.38242" lon="5.62578">
        <ele>1035.9</ele>
        <time>2021-09-07T16:09:28Z</time>
      </trkpt>
      <trkpt lat="44.38241" lon="5.6258">
        <ele>1035.9</ele>
        <time>2021-09-07T16:09:29Z</time>
      </trkpt>
      <trkpt lat="44.3824" lon="5.62582">
        <ele>1036.8</ele>
        <time>2021-09-07T16:09:30Z</time>
      </trkpt>
      <trkpt lat="44.38239" lon="5.62583">
        <ele>1036.6</ele>
        <time>2021-09-07T16:09:31Z</time>
      </trkpt>
      <trkpt lat="44.38239" lon="5.62584">
        <ele>1036.6</ele>
        <time>2021-09-07T16:09:32Z</time>
      </trkpt>
      <trkpt lat="44.38238" lon="5.62584">
        <ele>1036.6</ele>
        <time>2021-09-07T16:09:33Z</time>
      </trkpt>
      <trkpt lat="44.38237" lon="5.62585">
        <ele>1036.6</ele>
        <time>2021-09-07T16:09:34Z</time>
      </trkpt>
      <trkpt lat="44.38237" lon="5.62585">
        <ele>1036.4</ele>
        <time>2021-09-07T16:09:35Z</time>
      </trkpt>
      <trkpt lat="44.38236" lon="5.62586">
        <ele>1036.4</ele>
        <time>2021-09-07T16:09:36Z</time>
      </trkpt>
      <trkpt lat="44.38235" lon="5.62586">
        <ele>1037.3</ele>
        <time>2021-09-07T16:09:37Z</time>
      </trkpt>
      <trkpt lat="44.38234" lon="5.62587">
        <ele>1037.3</ele>
        <time>2021-09-07T16:09:38Z</time>
      </trkpt>
      <trkpt lat="44.38234" lon="5.62587">
        <ele>1037.3</ele>
        <time>2021-09-07T16:09:39Z</time>
      </trkpt>
      <trkpt lat="44.38233" lon="5.62588">
        <ele>1037</ele>
        <time>2021-09-07T16:09:40Z</time>
      </trkpt>
      <trkpt lat="44.38232" lon="5.62588">
        <ele>1037</ele>
        <time>2021-09-07T16:09:41Z</time>
      </trkpt>
      <trkpt lat="44.38232" lon="5.62589">
        <ele>1037</ele>
        <time>2021-09-07T16:09:42Z</time>
      </trkpt>
      <trkpt lat="44.38231" lon="5.62589">
        <ele>1037</ele>
        <time>2021-09-07T16:09:43Z</time>
      </trkpt>
      <trkpt lat="44.3823" lon="5.6259">
        <ele>1036.8</ele>
        <time>2021-09-07T16:09:44Z</time>
      </trkpt>
      <trkpt lat="44.3823" lon="5.6259">
        <ele>1037.7</ele>
        <time>2021-09-07T16:09:45Z</time>
      </trkpt>
      <trkpt lat="44.38229" lon="5.62591">
        <ele>1037.7</ele>
        <time>2021-09-07T16:09:46Z</time>
      </trkpt>
      <trkpt lat="44.38228" lon="5.62591">
        <ele>1037.7</ele>
        <time>2021-09-07T16:09:47Z</time>
      </trkpt>
      <trkpt lat="44.38227" lon="5.62592">
        <ele>1037.4</ele>
        <time>2021-09-07T16:09:48Z</time>
      </trkpt>
      <trkpt lat="44.38227" lon="5.62593">
        <ele>1037.4</ele>
        <time>2021-09-07T16:09:49Z</time>
      </trkpt>
      <trkpt lat="44.38226" lon="5.62593">
        <ele>1037.4</ele>
        <time>2021-09-07T16:09:50Z</time>
      </trkpt>
      <trkpt lat="44.3822" lon="5.62597">
        <ele>1037.7</ele>
        <time>2021-09-07T16:09:51Z</time>
      </trkpt>
      <trkpt lat="44.38217" lon="5.62599">
        <ele>1038.3</ele>
        <time>2021-09-07T16:09:52Z</time>
      </trkpt>
      <trkpt lat="44.38214" lon="5.62601">
        <ele>1037.9</ele>
        <time>2021-09-07T16:09:53Z</time>
      </trkpt>
      <trkpt lat="44.38208" lon="5.62604">
        <ele>1038.2</ele>
        <time>2021-09-07T16:09:54Z</time>
      </trkpt>
      <trkpt lat="44.38205" lon="5.62606">
        <ele>1037.9</ele>
        <time>2021-09-07T16:09:55Z</time>
      </trkpt>
      <trkpt lat="44.38202" lon="5.62608">
        <ele>1038.4</ele>
        <time>2021-09-07T16:09:56Z</time>
      </trkpt>
      <trkpt lat="44.38198" lon="5.62611">
        <ele>1038.2</ele>
        <time>2021-09-07T16:09:57Z</time>
      </trkpt>
      <trkpt lat="44.38194" lon="5.62613">
        <ele>1038.8</ele>
        <time>2021-09-07T16:09:58Z</time>
      </trkpt>
      <trkpt lat="44.38186" lon="5.62618">
        <ele>1039</ele>
        <time>2021-09-07T16:09:59Z</time>
      </trkpt>
      <trkpt lat="44.38181" lon="5.62622">
        <ele>1039.6</ele>
        <time>2021-09-07T16:10:00Z</time>
      </trkpt>
      <trkpt lat="44.38176" lon="5.62627">
        <ele>1040.4</ele>
        <time>2021-09-07T16:10:01Z</time>
      </trkpt>
      <trkpt lat="44.3817" lon="5.62631">
        <ele>1041</ele>
        <time>2021-09-07T16:10:02Z</time>
      </trkpt>
      <trkpt lat="44.38165" lon="5.62637">
        <ele>1041.6</ele>
        <time>2021-09-07T16:10:03Z</time>
      </trkpt>
      <trkpt lat="44.38163" lon="5.6264">
        <ele>1042.3</ele>
        <time>2021-09-07T16:10:04Z</time>
      </trkpt>
      <trkpt lat="44.38161" lon="5.62642">
        <ele>1043.1</ele>
        <time>2021-09-07T16:10:05Z</time>
      </trkpt>
      <trkpt lat="44.38158" lon="5.62645">
        <ele>1043</ele>
        <time>2021-09-07T16:10:06Z</time>
      </trkpt>
      <trkpt lat="44.38156" lon="5.62648">
        <ele>1043.6</ele>
        <time>2021-09-07T16:10:07Z</time>
      </trkpt>
      <trkpt lat="44.38154" lon="5.62651">
        <ele>1044.3</ele>
        <time>2021-09-07T16:10:08Z</time>
      </trkpt>
      <trkpt lat="44.3815" lon="5.62654">
        <ele>1044</ele>
        <time>2021-09-07T16:10:09Z</time>
      </trkpt>
      <trkpt lat="44.38146" lon="5.62656">
        <ele>1044.5</ele>
        <time>2021-09-07T16:10:10Z</time>
      </trkpt>
      <trkpt lat="44.38144" lon="5.62658">
        <ele>1044.4</ele>
        <time>2021-09-07T16:10:11Z</time>
      </trkpt>
      <trkpt lat="44.38141" lon="5.62659">
        <ele>1045</ele>
        <time>2021-09-07T16:10:12Z</time>
      </trkpt>
      <trkpt lat="44.38138" lon="5.6266">
        <ele>1045</ele>
        <time>2021-09-07T16:10:13Z</time>
      </trkpt>
      <trkpt lat="44.38136" lon="5.62661">
        <ele>1045</ele>
        <time>2021-09-07T16:10:14Z</time>
      </trkpt>
      <trkpt lat="44.38135" lon="5.62661">
        <ele>1044.9</ele>
        <time>2021-09-07T16:10:15Z</time>
      </trkpt>
      <trkpt lat="44.38134" lon="5.6266">
        <ele>1044.9</ele>
        <time>2021-09-07T16:10:16Z</time>
      </trkpt>
      <trkpt lat="44.38133" lon="5.6266">
        <ele>1044.9</ele>
        <time>2021-09-07T16:10:17Z</time>
      </trkpt>
      <trkpt lat="44.38133" lon="5.62659">
        <ele>1044.9</ele>
        <time>2021-09-07T16:10:18Z</time>
      </trkpt>
      <trkpt lat="44.38133" lon="5.62659">
        <ele>1044.9</ele>
        <time>2021-09-07T16:10:19Z</time>
      </trkpt>
      <trkpt lat="44.38133" lon="5.62659">
        <ele>1044.9</ele>
        <time>2021-09-07T16:10:20Z</time>
      </trkpt>
      <trkpt lat="44.38133" lon="5.62659">
        <ele>1044.9</ele>
        <time>2021-09-07T16:10:21Z</time>
      </trkpt>
      <trkpt lat="44.38133" lon="5.62659">
        <ele>1044.9</ele>
        <time>2021-09-07T16:10:22Z</time>
      </trkpt>
      <trkpt lat="44.38133" lon="5.62659">
        <ele>1044.9</ele>
        <time>2021-09-07T16:10:23Z</time>
      </trkpt>
      <trkpt lat="44.38133" lon="5.62659">
        <ele>1044.9</ele>
        <time>2021-09-07T16:10:24Z</time>
      </trkpt>
      <trkpt lat="44.38133" lon="5.62659">
        <ele>1044.9</ele>
        <time>2021-09-07T16:10:25Z</time>
      </trkpt>
      <trkpt lat="44.38133" lon="5.62659">
        <ele>1044.9</ele>
        <time>2021-09-07T16:10:26Z</time>
      </trkpt>
      <trkpt lat="44.38133" lon="5.62659">
        <ele>1044.9</ele>
        <time>2021-09-07T16:10:27Z</time>
      </trkpt>
      <trkpt lat="44.38133" lon="5.62659">
        <ele>1044.9</ele>
        <time>2021-09-07T16:10:28Z</time>
      </trkpt>
      <trkpt lat="44.38133" lon="5.62659">
        <ele>1044.9</ele>
        <time>2021-09-07T16:10:29Z</time>
      </trkpt>
      <trkpt lat="44.38132" lon="5.62659">
        <ele>1044.8</ele>
        <time>2021-09-07T16:10:30Z</time>
      </trkpt>
      <trkpt lat="44.38132" lon="5.62659">
        <ele>1044.8</ele>
        <time>2021-09-07T16:10:31Z</time>
      </trkpt>
      <trkpt lat="44.38132" lon="5.62659">
        <ele>1044.8</ele>
        <time>2021-09-07T16:10:32Z</time>
      </trkpt>
      <trkpt lat="44.38132" lon="5.62659">
        <ele>1044.8</ele>
        <time>2021-09-07T16:10:33Z</time>
      </trkpt>
      <trkpt lat="44.38132" lon="5.62659">
        <ele>1044.8</ele>
        <time>2021-09-07T16:10:34Z</time>
      </trkpt>
      <trkpt lat="44.38132" lon="5.6266">
        <ele>1044.8</ele>
        <time>2021-09-07T16:10:35Z</time>
      </trkpt>
      <trkpt lat="44.38132" lon="5.6266">
        <ele>1044.8</ele>
        <time>2021-09-07T16:10:36Z</time>
      </trkpt>
      <trkpt lat="44.38132" lon="5.6266">
        <ele>1044.8</ele>
        <time>2021-09-07T16:10:37Z</time>
      </trkpt>
      <trkpt lat="44.38132" lon="5.6266">
        <ele>1044.8</ele>
        <time>2021-09-07T16:10:38Z</time>
      </trkpt>
      <trkpt lat="44.38132" lon="5.6266">
        <ele>1044.8</ele>
        <time>2021-09-07T16:10:39Z</time>
      </trkpt>
      <trkpt lat="44.38132" lon="5.62659">
        <ele>1044.8</ele>
        <time>2021-09-07T16:10:40Z</time>
      </trkpt>
      <trkpt lat="44.3813" lon="5.62658">
        <ele>1044</ele>
        <time>2021-09-07T16:10:41Z</time>
      </trkpt>
      <trkpt lat="44.3813" lon="5.62658">
        <ele>1044</ele>
        <time>2021-09-07T16:10:42Z</time>
      </trkpt>
      <trkpt lat="44.38129" lon="5.62657">
        <ele>1044</ele>
        <time>2021-09-07T16:10:43Z</time>
      </trkpt>
      <trkpt lat="44.38129" lon="5.62656">
        <ele>1044</ele>
        <time>2021-09-07T16:10:44Z</time>
      </trkpt>
      <trkpt lat="44.38128" lon="5.62655">
        <ele>1044</ele>
        <time>2021-09-07T16:10:45Z</time>
      </trkpt>
      <trkpt lat="44.38128" lon="5.62655">
        <ele>1044</ele>
        <time>2021-09-07T16:10:46Z</time>
      </trkpt>
      <trkpt lat="44.38127" lon="5.62655">
        <ele>1044</ele>
        <time>2021-09-07T16:10:47Z</time>
      </trkpt>
      <trkpt lat="44.38127" lon="5.62655">
        <ele>1044</ele>
        <time>2021-09-07T16:10:48Z</time>
      </trkpt>
      <trkpt lat="44.38127" lon="5.62654">
        <ele>1043.2</ele>
        <time>2021-09-07T16:10:49Z</time>
      </trkpt>
      <trkpt lat="44.38126" lon="5.62654">
        <ele>1043.1</ele>
        <time>2021-09-07T16:10:50Z</time>
      </trkpt>
      <trkpt lat="44.38126" lon="5.62654">
        <ele>1043.1</ele>
        <time>2021-09-07T16:10:51Z</time>
      </trkpt>
      <trkpt lat="44.38126" lon="5.62653">
        <ele>1043.1</ele>
        <time>2021-09-07T16:10:52Z</time>
      </trkpt>
      <trkpt lat="44.38126" lon="5.62653">
        <ele>1043.1</ele>
        <time>2021-09-07T16:10:53Z</time>
      </trkpt>
      <trkpt lat="44.38126" lon="5.62653">
        <ele>1043.1</ele>
        <time>2021-09-07T16:10:54Z</time>
      </trkpt>
      <trkpt lat="44.38126" lon="5.62653">
        <ele>1043.1</ele>
        <time>2021-09-07T16:10:55Z</time>
      </trkpt>
      <trkpt lat="44.38126" lon="5.62653">
        <ele>1043.1</ele>
        <time>2021-09-07T16:10:56Z</time>
      </trkpt>
      <trkpt lat="44.38126" lon="5.62653">
        <ele>1043.1</ele>
        <time>2021-09-07T16:10:57Z</time>
      </trkpt>
      <trkpt lat="44.38126" lon="5.62653">
        <ele>1043.1</ele>
        <time>2021-09-07T16:10:58Z</time>
      </trkpt>
      <trkpt lat="44.38126" lon="5.62653">
        <ele>1043.1</ele>
        <time>2021-09-07T16:10:59Z</time>
      </trkpt>
      <trkpt lat="44.38126" lon="5.62653">
        <ele>1043.1</ele>
        <time>2021-09-07T16:11:00Z</time>
      </trkpt>
      <trkpt lat="44.38126" lon="5.62653">
        <ele>1043.1</ele>
        <time>2021-09-07T16:11:01Z</time>
      </trkpt>
      <trkpt lat="44.38126" lon="5.62653">
        <ele>1043.1</ele>
        <time>2021-09-07T16:11:02Z</time>
      </trkpt>
      <trkpt lat="44.38126" lon="5.62653">
        <ele>1043.1</ele>
        <time>2021-09-07T16:11:03Z</time>
      </trkpt>
      <trkpt lat="44.38126" lon="5.62653">
        <ele>1043.1</ele>
        <time>2021-09-07T16:11:04Z</time>
      </trkpt>
      <trkpt lat="44.38126" lon="5.62653">
        <ele>1043.1</ele>
        <time>2021-09-07T16:11:05Z</time>
      </trkpt>
      <trkpt lat="44.38126" lon="5.62653">
        <ele>1043.1</ele>
        <time>2021-09-07T16:11:06Z</time>
      </trkpt>
      <trkpt lat="44.38126" lon="5.62652">
        <ele>1043.1</ele>
        <time>2021-09-07T16:11:07Z</time>
      </trkpt>
      <trkpt lat="44.38127" lon="5.62652">
        <ele>1043.2</ele>
        <time>2021-09-07T16:11:08Z</time>
      </trkpt>
      <trkpt lat="44.38129" lon="5.62651">
        <ele>1043.2</ele>
        <time>2021-09-07T16:11:09Z</time>
      </trkpt>
      <trkpt lat="44.3813" lon="5.62651">
        <ele>1043.2</ele>
        <time>2021-09-07T16:11:10Z</time>
      </trkpt>
      <trkpt lat="44.38131" lon="5.62651">
        <ele>1043.2</ele>
        <time>2021-09-07T16:11:11Z</time>
      </trkpt>
      <trkpt lat="44.38133" lon="5.6265">
        <ele>1042.5</ele>
        <time>2021-09-07T16:11:12Z</time>
      </trkpt>
      <trkpt lat="44.38133" lon="5.6265">
        <ele>1042.5</ele>
        <time>2021-09-07T16:11:13Z</time>
      </trkpt>
      <trkpt lat="44.38134" lon="5.6265">
        <ele>1042.5</ele>
        <time>2021-09-07T16:11:14Z</time>
      </trkpt>
      <trkpt lat="44.38134" lon="5.6265">
        <ele>1042.5</ele>
        <time>2021-09-07T16:11:15Z</time>
      </trkpt>
      <trkpt lat="44.38134" lon="5.6265">
        <ele>1042.5</ele>
        <time>2021-09-07T16:11:16Z</time>
      </trkpt>
      <trkpt lat="44.38134" lon="5.6265">
        <ele>1042.5</ele>
        <time>2021-09-07T16:11:17Z</time>
      </trkpt>
      <trkpt lat="44.38134" lon="5.6265">
        <ele>1042.5</ele>
        <time>2021-09-07T16:11:18Z</time>
      </trkpt>
      <trkpt lat="44.38134" lon="5.6265">
        <ele>1042.5</ele>
        <time>2021-09-07T16:11:19Z</time>
      </trkpt>
      <trkpt lat="44.38135" lon="5.6265">
        <ele>1042.5</ele>
        <time>2021-09-07T16:11:20Z</time>
      </trkpt>
      <trkpt lat="44.38136" lon="5.6265">
        <ele>1042.6</ele>
        <time>2021-09-07T16:11:21Z</time>
      </trkpt>
      <trkpt lat="44.38137" lon="5.62649">
        <ele>1042.6</ele>
        <time>2021-09-07T16:11:22Z</time>
      </trkpt>
      <trkpt lat="44.38138" lon="5.62649">
        <ele>1042.6</ele>
        <time>2021-09-07T16:11:23Z</time>
      </trkpt>
      <trkpt lat="44.38138" lon="5.62648">
        <ele>1042.6</ele>
        <time>2021-09-07T16:11:24Z</time>
      </trkpt>
      <trkpt lat="44.38139" lon="5.62648">
        <ele>1042.6</ele>
        <time>2021-09-07T16:11:25Z</time>
      </trkpt>
      <trkpt lat="44.38139" lon="5.62647">
        <ele>1042.8</ele>
        <time>2021-09-07T16:11:26Z</time>
      </trkpt>
      <trkpt lat="44.38139" lon="5.62646">
        <ele>1042.8</ele>
        <time>2021-09-07T16:11:27Z</time>
      </trkpt>
      <trkpt lat="44.38139" lon="5.62645">
        <ele>1041.9</ele>
        <time>2021-09-07T16:11:28Z</time>
      </trkpt>
      <trkpt lat="44.3814" lon="5.62642">
        <ele>1041.9</ele>
        <time>2021-09-07T16:11:29Z</time>
      </trkpt>
      <trkpt lat="44.38141" lon="5.62639">
        <ele>1041.1</ele>
        <time>2021-09-07T16:11:30Z</time>
      </trkpt>
      <trkpt lat="44.38142" lon="5.62634">
        <ele>1040.3</ele>
        <time>2021-09-07T16:11:31Z</time>
      </trkpt>
      <trkpt lat="44.38143" lon="5.62632">
        <ele>1039.4</ele>
        <time>2021-09-07T16:11:32Z</time>
      </trkpt>
      <trkpt lat="44.38144" lon="5.6263">
        <ele>1039.4</ele>
        <time>2021-09-07T16:11:33Z</time>
      </trkpt>
      <trkpt lat="44.38145" lon="5.62629">
        <ele>1039.6</ele>
        <time>2021-09-07T16:11:34Z</time>
      </trkpt>
      <trkpt lat="44.38146" lon="5.62628">
        <ele>1038.7</ele>
        <time>2021-09-07T16:11:35Z</time>
      </trkpt>
      <trkpt lat="44.38147" lon="5.62626">
        <ele>1038.7</ele>
        <time>2021-09-07T16:11:36Z</time>
      </trkpt>
      <trkpt lat="44.38147" lon="5.62625">
        <ele>1038.7</ele>
        <time>2021-09-07T16:11:37Z</time>
      </trkpt>
      <trkpt lat="44.38148" lon="5.62622">
        <ele>1038</ele>
        <time>2021-09-07T16:11:38Z</time>
      </trkpt>
      <trkpt lat="44.38149" lon="5.62621">
        <ele>1038</ele>
        <time>2021-09-07T16:11:39Z</time>
      </trkpt>
      <trkpt lat="44.38149" lon="5.62619">
        <ele>1037.1</ele>
        <time>2021-09-07T16:11:40Z</time>
      </trkpt>
      <trkpt lat="44.38149" lon="5.62617">
        <ele>1037.1</ele>
        <time>2021-09-07T16:11:41Z</time>
      </trkpt>
      <trkpt lat="44.38151" lon="5.62615">
        <ele>1036.4</ele>
        <time>2021-09-07T16:11:42Z</time>
      </trkpt>
      <trkpt lat="44.38152" lon="5.62614">
        <ele>1036.4</ele>
        <time>2021-09-07T16:11:43Z</time>
      </trkpt>
      <trkpt lat="44.38153" lon="5.62612">
        <ele>1036.4</ele>
        <time>2021-09-07T16:11:44Z</time>
      </trkpt>
      <trkpt lat="44.38154" lon="5.62611">
        <ele>1035.7</ele>
        <time>2021-09-07T16:11:45Z</time>
      </trkpt>
      <trkpt lat="44.38155" lon="5.62609">
        <ele>1035.7</ele>
        <time>2021-09-07T16:11:46Z</time>
      </trkpt>
      <trkpt lat="44.38156" lon="5.62609">
        <ele>1035.7</ele>
        <time>2021-09-07T16:11:47Z</time>
      </trkpt>
      <trkpt lat="44.38157" lon="5.62608">
        <ele>1035.8</ele>
        <time>2021-09-07T16:11:48Z</time>
      </trkpt>
      <trkpt lat="44.38157" lon="5.62608">
        <ele>1035.8</ele>
        <time>2021-09-07T16:11:49Z</time>
      </trkpt>
      <trkpt lat="44.38158" lon="5.62608">
        <ele>1035.8</ele>
        <time>2021-09-07T16:11:50Z</time>
      </trkpt>
      <trkpt lat="44.38158" lon="5.62607">
        <ele>1034.8</ele>
        <time>2021-09-07T16:11:51Z</time>
      </trkpt>
      <trkpt lat="44.38158" lon="5.62607">
        <ele>1034.8</ele>
        <time>2021-09-07T16:11:52Z</time>
      </trkpt>
      <trkpt lat="44.38158" lon="5.62607">
        <ele>1034.8</ele>
        <time>2021-09-07T16:11:53Z</time>
      </trkpt>
      <trkpt lat="44.38158" lon="5.62607">
        <ele>1034.8</ele>
        <time>2021-09-07T16:11:54Z</time>
      </trkpt>
      <trkpt lat="44.38158" lon="5.62607">
        <ele>1034.8</ele>
        <time>2021-09-07T16:11:55Z</time>
      </trkpt>
      <trkpt lat="44.38158" lon="5.62607">
        <ele>1034.8</ele>
        <time>2021-09-07T16:11:56Z</time>
      </trkpt>
      <trkpt lat="44.38158" lon="5.62607">
        <ele>1034.8</ele>
        <time>2021-09-07T16:11:57Z</time>
      </trkpt>
      <trkpt lat="44.38159" lon="5.62607">
        <ele>1034.8</ele>
        <time>2021-09-07T16:11:58Z</time>
      </trkpt>
      <trkpt lat="44.38161" lon="5.62606">
        <ele>1035</ele>
        <time>2021-09-07T16:11:59Z</time>
      </trkpt>
      <trkpt lat="44.38163" lon="5.62606">
        <ele>1035</ele>
        <time>2021-09-07T16:12:00Z</time>
      </trkpt>
      <trkpt lat="44.38164" lon="5.62606">
        <ele>1035.1</ele>
        <time>2021-09-07T16:12:01Z</time>
      </trkpt>
      <trkpt lat="44.38167" lon="5.62605">
        <ele>1035.3</ele>
        <time>2021-09-07T16:12:02Z</time>
      </trkpt>
      <trkpt lat="44.38168" lon="5.62605">
        <ele>1035.3</ele>
        <time>2021-09-07T16:12:03Z</time>
      </trkpt>
      <trkpt lat="44.38169" lon="5.62604">
        <ele>1035.3</ele>
        <time>2021-09-07T16:12:04Z</time>
      </trkpt>
      <trkpt lat="44.38171" lon="5.62603">
        <ele>1035.4</ele>
        <time>2021-09-07T16:12:05Z</time>
      </trkpt>
      <trkpt lat="44.38172" lon="5.62602">
        <ele>1034.4</ele>
        <time>2021-09-07T16:12:06Z</time>
      </trkpt>
      <trkpt lat="44.38173" lon="5.62601">
        <ele>1034.6</ele>
        <time>2021-09-07T16:12:07Z</time>
      </trkpt>
      <trkpt lat="44.38175" lon="5.626">
        <ele>1034.6</ele>
        <time>2021-09-07T16:12:08Z</time>
      </trkpt>
      <trkpt lat="44.38177" lon="5.62599">
        <ele>1034.7</ele>
        <time>2021-09-07T16:12:09Z</time>
      </trkpt>
      <trkpt lat="44.38179" lon="5.62598">
        <ele>1033.8</ele>
        <time>2021-09-07T16:12:10Z</time>
      </trkpt>
      <trkpt lat="44.38181" lon="5.62598">
        <ele>1033.8</ele>
        <time>2021-09-07T16:12:11Z</time>
      </trkpt>
      <trkpt lat="44.38183" lon="5.62598">
        <ele>1034</ele>
        <time>2021-09-07T16:12:12Z</time>
      </trkpt>
      <trkpt lat="44.38186" lon="5.62598">
        <ele>1034.3</ele>
        <time>2021-09-07T16:12:13Z</time>
      </trkpt>
      <trkpt lat="44.38188" lon="5.62598">
        <ele>1034.5</ele>
        <time>2021-09-07T16:12:14Z</time>
      </trkpt>
      <trkpt lat="44.38189" lon="5.62598">
        <ele>1034.5</ele>
        <time>2021-09-07T16:12:15Z</time>
      </trkpt>
      <trkpt lat="44.38192" lon="5.62597">
        <ele>1034.8</ele>
        <time>2021-09-07T16:12:16Z</time>
      </trkpt>
      <trkpt lat="44.38193" lon="5.62597">
        <ele>1034.8</ele>
        <time>2021-09-07T16:12:17Z</time>
      </trkpt>
      <trkpt lat="44.38194" lon="5.62597">
        <ele>1035.1</ele>
        <time>2021-09-07T16:12:18Z</time>
      </trkpt>
      <trkpt lat="44.38195" lon="5.62596">
        <ele>1035.1</ele>
        <time>2021-09-07T16:12:19Z</time>
      </trkpt>
      <trkpt lat="44.38197" lon="5.62595">
        <ele>1035.4</ele>
        <time>2021-09-07T16:12:20Z</time>
      </trkpt>
      <trkpt lat="44.38199" lon="5.62594">
        <ele>1034.4</ele>
        <time>2021-09-07T16:12:21Z</time>
      </trkpt>
      <trkpt lat="44.382" lon="5.62594">
        <ele>1034.4</ele>
        <time>2021-09-07T16:12:22Z</time>
      </trkpt>
      <trkpt lat="44.382" lon="5.62593">
        <ele>1034.8</ele>
        <time>2021-09-07T16:12:23Z</time>
      </trkpt>
      <trkpt lat="44.38201" lon="5.62592">
        <ele>1034.8</ele>
        <time>2021-09-07T16:12:24Z</time>
      </trkpt>
      <trkpt lat="44.38201" lon="5.62592">
        <ele>1034.8</ele>
        <time>2021-09-07T16:12:25Z</time>
      </trkpt>
      <trkpt lat="44.38202" lon="5.62591">
        <ele>1034.8</ele>
        <time>2021-09-07T16:12:26Z</time>
      </trkpt>
      <trkpt lat="44.38202" lon="5.62591">
        <ele>1034.8</ele>
        <time>2021-09-07T16:12:27Z</time>
      </trkpt>
      <trkpt lat="44.38202" lon="5.62591">
        <ele>1034.8</ele>
        <time>2021-09-07T16:12:28Z</time>
      </trkpt>
      <trkpt lat="44.38203" lon="5.6259">
        <ele>1034.1</ele>
        <time>2021-09-07T16:12:29Z</time>
      </trkpt>
      <trkpt lat="44.38204" lon="5.62589">
        <ele>1034.1</ele>
        <time>2021-09-07T16:12:30Z</time>
      </trkpt>
      <trkpt lat="44.38206" lon="5.62589">
        <ele>1034.1</ele>
        <time>2021-09-07T16:12:31Z</time>
      </trkpt>
      <trkpt lat="44.38207" lon="5.62589">
        <ele>1034.5</ele>
        <time>2021-09-07T16:12:32Z</time>
      </trkpt>
      <trkpt lat="44.38208" lon="5.62588">
        <ele>1034.5</ele>
        <time>2021-09-07T16:12:33Z</time>
      </trkpt>
      <trkpt lat="44.38209" lon="5.62588">
        <ele>1034.5</ele>
        <time>2021-09-07T16:12:34Z</time>
      </trkpt>
      <trkpt lat="44.38212" lon="5.62585">
        <ele>1033.8</ele>
        <time>2021-09-07T16:12:35Z</time>
      </trkpt>
      <trkpt lat="44.38214" lon="5.62585">
        <ele>1034.2</ele>
        <time>2021-09-07T16:12:36Z</time>
      </trkpt>
      <trkpt lat="44.38215" lon="5.62584">
        <ele>1034.2</ele>
        <time>2021-09-07T16:12:37Z</time>
      </trkpt>
      <trkpt lat="44.38217" lon="5.62583">
        <ele>1034.5</ele>
        <time>2021-09-07T16:12:38Z</time>
      </trkpt>
      <trkpt lat="44.38219" lon="5.62582">
        <ele>1034.9</ele>
        <time>2021-09-07T16:12:39Z</time>
      </trkpt>
      <trkpt lat="44.38221" lon="5.62581">
        <ele>1033.9</ele>
        <time>2021-09-07T16:12:40Z</time>
      </trkpt>
      <trkpt lat="44.38222" lon="5.6258">
        <ele>1034.3</ele>
        <time>2021-09-07T16:12:41Z</time>
      </trkpt>
      <trkpt lat="44.38223" lon="5.62579">
        <ele>1034.3</ele>
        <time>2021-09-07T16:12:42Z</time>
      </trkpt>
      <trkpt lat="44.38224" lon="5.62577">
        <ele>1033.3</ele>
        <time>2021-09-07T16:12:43Z</time>
      </trkpt>
      <trkpt lat="44.38226" lon="5.62576">
        <ele>1033.7</ele>
        <time>2021-09-07T16:12:44Z</time>
      </trkpt>
      <trkpt lat="44.38227" lon="5.62575">
        <ele>1033.7</ele>
        <time>2021-09-07T16:12:45Z</time>
      </trkpt>
      <trkpt lat="44.38228" lon="5.62573">
        <ele>1034</ele>
        <time>2021-09-07T16:12:46Z</time>
      </trkpt>
      <trkpt lat="44.38229" lon="5.62571">
        <ele>1033.1</ele>
        <time>2021-09-07T16:12:47Z</time>
      </trkpt>
      <trkpt lat="44.3823" lon="5.6257">
        <ele>1033.1</ele>
        <time>2021-09-07T16:12:48Z</time>
      </trkpt>
      <trkpt lat="44.3823" lon="5.62569">
        <ele>1033.1</ele>
        <time>2021-09-07T16:12:49Z</time>
      </trkpt>
      <trkpt lat="44.38231" lon="5.62568">
        <ele>1032.5</ele>
        <time>2021-09-07T16:12:50Z</time>
      </trkpt>
      <trkpt lat="44.38233" lon="5.62566">
        <ele>1032.5</ele>
        <time>2021-09-07T16:12:51Z</time>
      </trkpt>
      <trkpt lat="44.38234" lon="5.62565">
        <ele>1032.7</ele>
        <time>2021-09-07T16:12:52Z</time>
      </trkpt>
      <trkpt lat="44.38235" lon="5.62564">
        <ele>1031.8</ele>
        <time>2021-09-07T16:12:53Z</time>
      </trkpt>
      <trkpt lat="44.38236" lon="5.62562">
        <ele>1031.8</ele>
        <time>2021-09-07T16:12:54Z</time>
      </trkpt>
      <trkpt lat="44.38237" lon="5.62562">
        <ele>1032.1</ele>
        <time>2021-09-07T16:12:55Z</time>
      </trkpt>
      <trkpt lat="44.38238" lon="5.62561">
        <ele>1032.1</ele>
        <time>2021-09-07T16:12:56Z</time>
      </trkpt>
      <trkpt lat="44.38239" lon="5.6256">
        <ele>1031.1</ele>
        <time>2021-09-07T16:12:57Z</time>
      </trkpt>
      <trkpt lat="44.38241" lon="5.62559">
        <ele>1031.4</ele>
        <time>2021-09-07T16:12:58Z</time>
      </trkpt>
      <trkpt lat="44.38243" lon="5.62558">
        <ele>1031.7</ele>
        <time>2021-09-07T16:12:59Z</time>
      </trkpt>
      <trkpt lat="44.38244" lon="5.62558">
        <ele>1031.7</ele>
        <time>2021-09-07T16:13:00Z</time>
      </trkpt>
      <trkpt lat="44.38245" lon="5.62557">
        <ele>1031.7</ele>
        <time>2021-09-07T16:13:01Z</time>
      </trkpt>
      <trkpt lat="44.38247" lon="5.62555">
        <ele>1030.9</ele>
        <time>2021-09-07T16:13:02Z</time>
      </trkpt>
      <trkpt lat="44.38249" lon="5.62554">
        <ele>1031.2</ele>
        <time>2021-09-07T16:13:03Z</time>
      </trkpt>
      <trkpt lat="44.38251" lon="5.62553">
        <ele>1031.2</ele>
        <time>2021-09-07T16:13:04Z</time>
      </trkpt>
      <trkpt lat="44.38252" lon="5.62552">
        <ele>1031.2</ele>
        <time>2021-09-07T16:13:05Z</time>
      </trkpt>
      <trkpt lat="44.38255" lon="5.62549">
        <ele>1030.5</ele>
        <time>2021-09-07T16:13:06Z</time>
      </trkpt>
      <trkpt lat="44.38256" lon="5.62547">
        <ele>1029.8</ele>
        <time>2021-09-07T16:13:07Z</time>
      </trkpt>
      <trkpt lat="44.38257" lon="5.62545">
        <ele>1029.8</ele>
        <time>2021-09-07T16:13:08Z</time>
      </trkpt>
      <trkpt lat="44.38259" lon="5.62545">
        <ele>1030</ele>
        <time>2021-09-07T16:13:09Z</time>
      </trkpt>
      <trkpt lat="44.3826" lon="5.62544">
        <ele>1030</ele>
        <time>2021-09-07T16:13:10Z</time>
      </trkpt>
      <trkpt lat="44.38261" lon="5.62542">
        <ele>1029.1</ele>
        <time>2021-09-07T16:13:11Z</time>
      </trkpt>
      <trkpt lat="44.38263" lon="5.62541">
        <ele>1029.2</ele>
        <time>2021-09-07T16:13:12Z</time>
      </trkpt>
      <trkpt lat="44.38265" lon="5.62541">
        <ele>1029.3</ele>
        <time>2021-09-07T16:13:13Z</time>
      </trkpt>
      <trkpt lat="44.38266" lon="5.6254">
        <ele>1029.3</ele>
        <time>2021-09-07T16:13:14Z</time>
      </trkpt>
      <trkpt lat="44.38267" lon="5.6254">
        <ele>1029.3</ele>
        <time>2021-09-07T16:13:15Z</time>
      </trkpt>
      <trkpt lat="44.38269" lon="5.6254">
        <ele>1029.4</ele>
        <time>2021-09-07T16:13:16Z</time>
      </trkpt>
      <trkpt lat="44.3827" lon="5.62539">
        <ele>1029.4</ele>
        <time>2021-09-07T16:13:17Z</time>
      </trkpt>
      <trkpt lat="44.38272" lon="5.62539">
        <ele>1029.5</ele>
        <time>2021-09-07T16:13:18Z</time>
      </trkpt>
      <trkpt lat="44.38274" lon="5.62539">
        <ele>1029.5</ele>
        <time>2021-09-07T16:13:19Z</time>
      </trkpt>
      <trkpt lat="44.38276" lon="5.62539">
        <ele>1029.5</ele>
        <time>2021-09-07T16:13:20Z</time>
      </trkpt>
      <trkpt lat="44.38277" lon="5.62539">
        <ele>1029.5</ele>
        <time>2021-09-07T16:13:21Z</time>
      </trkpt>
      <trkpt lat="44.38277" lon="5.62539">
        <ele>1029.5</ele>
        <time>2021-09-07T16:13:22Z</time>
      </trkpt>
      <trkpt lat="44.38278" lon="5.62539">
        <ele>1029.5</ele>
        <time>2021-09-07T16:13:23Z</time>
      </trkpt>
      <trkpt lat="44.38279" lon="5.6254">
        <ele>1029.5</ele>
        <time>2021-09-07T16:13:24Z</time>
      </trkpt>
      <trkpt lat="44.38279" lon="5.62541">
        <ele>1029.5</ele>
        <time>2021-09-07T16:13:25Z</time>
      </trkpt>
      <trkpt lat="44.38281" lon="5.62542">
        <ele>1029.5</ele>
        <time>2021-09-07T16:13:26Z</time>
      </trkpt>
      <trkpt lat="44.38282" lon="5.62543">
        <ele>1030.4</ele>
        <time>2021-09-07T16:13:27Z</time>
      </trkpt>
      <trkpt lat="44.38283" lon="5.62544">
        <ele>1030.4</ele>
        <time>2021-09-07T16:13:28Z</time>
      </trkpt>
      <trkpt lat="44.38285" lon="5.62545">
        <ele>1030.4</ele>
        <time>2021-09-07T16:13:29Z</time>
      </trkpt>
      <trkpt lat="44.38288" lon="5.62547">
        <ele>1030.4</ele>
        <time>2021-09-07T16:13:30Z</time>
      </trkpt>
      <trkpt lat="44.38289" lon="5.62548">
        <ele>1031.2</ele>
        <time>2021-09-07T16:13:31Z</time>
      </trkpt>
      <trkpt lat="44.3829" lon="5.62548">
        <ele>1031.2</ele>
        <time>2021-09-07T16:13:32Z</time>
      </trkpt>
      <trkpt lat="44.38292" lon="5.62549">
        <ele>1031.2</ele>
        <time>2021-09-07T16:13:33Z</time>
      </trkpt>
      <trkpt lat="44.38293" lon="5.6255">
        <ele>1031.2</ele>
        <time>2021-09-07T16:13:34Z</time>
      </trkpt>
      <trkpt lat="44.38294" lon="5.62551">
        <ele>1031.2</ele>
        <time>2021-09-07T16:13:35Z</time>
      </trkpt>
      <trkpt lat="44.38295" lon="5.62552">
        <ele>1032.1</ele>
        <time>2021-09-07T16:13:36Z</time>
      </trkpt>
      <trkpt lat="44.38296" lon="5.62553">
        <ele>1032.1</ele>
        <time>2021-09-07T16:13:37Z</time>
      </trkpt>
      <trkpt lat="44.38297" lon="5.62554">
        <ele>1032.1</ele>
        <time>2021-09-07T16:13:38Z</time>
      </trkpt>
      <trkpt lat="44.38299" lon="5.62555">
        <ele>1032.1</ele>
        <time>2021-09-07T16:13:39Z</time>
      </trkpt>
      <trkpt lat="44.383" lon="5.62557">
        <ele>1033</ele>
        <time>2021-09-07T16:13:40Z</time>
      </trkpt>
      <trkpt lat="44.38301" lon="5.62558">
        <ele>1033</ele>
        <time>2021-09-07T16:13:41Z</time>
      </trkpt>
      <trkpt lat="44.38302" lon="5.62559">
        <ele>1033</ele>
        <time>2021-09-07T16:13:42Z</time>
      </trkpt>
      <trkpt lat="44.38302" lon="5.62559">
        <ele>1033</ele>
        <time>2021-09-07T16:13:43Z</time>
      </trkpt>
      <trkpt lat="44.38302" lon="5.62559">
        <ele>1033</ele>
        <time>2021-09-07T16:13:44Z</time>
      </trkpt>
      <trkpt lat="44.38302" lon="5.6256">
        <ele>1033</ele>
        <time>2021-09-07T16:13:45Z</time>
      </trkpt>
      <trkpt lat="44.38302" lon="5.6256">
        <ele>1033</ele>
        <time>2021-09-07T16:13:46Z</time>
      </trkpt>
      <trkpt lat="44.38303" lon="5.6256">
        <ele>1033</ele>
        <time>2021-09-07T16:13:47Z</time>
      </trkpt>
      <trkpt lat="44.38303" lon="5.6256">
        <ele>1033</ele>
        <time>2021-09-07T16:13:48Z</time>
      </trkpt>
      <trkpt lat="44.38303" lon="5.6256">
        <ele>1033</ele>
        <time>2021-09-07T16:13:49Z</time>
      </trkpt>
      <trkpt lat="44.38303" lon="5.62562">
        <ele>1033.8</ele>
        <time>2021-09-07T16:13:50Z</time>
      </trkpt>
      <trkpt lat="44.38304" lon="5.62564">
        <ele>1033.8</ele>
        <time>2021-09-07T16:13:51Z</time>
      </trkpt>
      <trkpt lat="44.38304" lon="5.62565">
        <ele>1034.6</ele>
        <time>2021-09-07T16:13:52Z</time>
      </trkpt>
      <trkpt lat="44.38305" lon="5.62567">
        <ele>1034.7</ele>
        <time>2021-09-07T16:13:53Z</time>
      </trkpt>
      <trkpt lat="44.38306" lon="5.62569">
        <ele>1034.7</ele>
        <time>2021-09-07T16:13:54Z</time>
      </trkpt>
      <trkpt lat="44.38307" lon="5.6257">
        <ele>1035.4</ele>
        <time>2021-09-07T16:13:55Z</time>
      </trkpt>
      <trkpt lat="44.38308" lon="5.62572">
        <ele>1035.5</ele>
        <time>2021-09-07T16:13:56Z</time>
      </trkpt>
      <trkpt lat="44.38308" lon="5.62573">
        <ele>1036.3</ele>
        <time>2021-09-07T16:13:57Z</time>
      </trkpt>
      <trkpt lat="44.38309" lon="5.62573">
        <ele>1036.3</ele>
        <time>2021-09-07T16:13:58Z</time>
      </trkpt>
      <trkpt lat="44.38309" lon="5.62573">
        <ele>1036.3</ele>
        <time>2021-09-07T16:13:59Z</time>
      </trkpt>
      <trkpt lat="44.38309" lon="5.62574">
        <ele>1036.3</ele>
        <time>2021-09-07T16:14:00Z</time>
      </trkpt>
      <trkpt lat="44.38309" lon="5.62574">
        <ele>1036.3</ele>
        <time>2021-09-07T16:14:01Z</time>
      </trkpt>
      <trkpt lat="44.38309" lon="5.62574">
        <ele>1036.3</ele>
        <time>2021-09-07T16:14:02Z</time>
      </trkpt>
      <trkpt lat="44.3831" lon="5.62575">
        <ele>1036.3</ele>
        <time>2021-09-07T16:14:03Z</time>
      </trkpt>
      <trkpt lat="44.38311" lon="5.62575">
        <ele>1036.3</ele>
        <time>2021-09-07T16:14:04Z</time>
      </trkpt>
      <trkpt lat="44.38313" lon="5.62575">
        <ele>1036.3</ele>
        <time>2021-09-07T16:14:05Z</time>
      </trkpt>
      <trkpt lat="44.38315" lon="5.62575">
        <ele>1036.3</ele>
        <time>2021-09-07T16:14:06Z</time>
      </trkpt>
      <trkpt lat="44.38317" lon="5.62576">
        <ele>1036.4</ele>
        <time>2021-09-07T16:14:07Z</time>
      </trkpt>
      <trkpt lat="44.38318" lon="5.62576">
        <ele>1036.4</ele>
        <time>2021-09-07T16:14:08Z</time>
      </trkpt>
      <trkpt lat="44.3832" lon="5.62576">
        <ele>1036.5</ele>
        <time>2021-09-07T16:14:09Z</time>
      </trkpt>
      <trkpt lat="44.38322" lon="5.62576">
        <ele>1036.5</ele>
        <time>2021-09-07T16:14:10Z</time>
      </trkpt>
      <trkpt lat="44.38325" lon="5.62576">
        <ele>1036.5</ele>
        <time>2021-09-07T16:14:11Z</time>
      </trkpt>
      <trkpt lat="44.38328" lon="5.62574">
        <ele>1036.6</ele>
        <time>2021-09-07T16:14:12Z</time>
      </trkpt>
      <trkpt lat="44.38333" lon="5.62572">
        <ele>1036</ele>
        <time>2021-09-07T16:14:13Z</time>
      </trkpt>
      <trkpt lat="44.38335" lon="5.62572">
        <ele>1036</ele>
        <time>2021-09-07T16:14:14Z</time>
      </trkpt>
      <trkpt lat="44.38336" lon="5.62572">
        <ele>1036.1</ele>
        <time>2021-09-07T16:14:15Z</time>
      </trkpt>
      <trkpt lat="44.38337" lon="5.62571">
        <ele>1036.1</ele>
        <time>2021-09-07T16:14:16Z</time>
      </trkpt>
      <trkpt lat="44.38338" lon="5.62571">
        <ele>1036.1</ele>
        <time>2021-09-07T16:14:17Z</time>
      </trkpt>
      <trkpt lat="44.38338" lon="5.62571">
        <ele>1036.2</ele>
        <time>2021-09-07T16:14:18Z</time>
      </trkpt>
      <trkpt lat="44.38338" lon="5.62571">
        <ele>1036.2</ele>
        <time>2021-09-07T16:14:19Z</time>
      </trkpt>
      <trkpt lat="44.38339" lon="5.62571">
        <ele>1036.2</ele>
        <time>2021-09-07T16:14:20Z</time>
      </trkpt>
      <trkpt lat="44.3834" lon="5.6257">
        <ele>1036.2</ele>
        <time>2021-09-07T16:14:21Z</time>
      </trkpt>
      <trkpt lat="44.38341" lon="5.62569">
        <ele>1036.3</ele>
        <time>2021-09-07T16:14:22Z</time>
      </trkpt>
      <trkpt lat="44.38342" lon="5.62568">
        <ele>1035.4</ele>
        <time>2021-09-07T16:14:23Z</time>
      </trkpt>
      <trkpt lat="44.38343" lon="5.62567">
        <ele>1035.4</ele>
        <time>2021-09-07T16:14:24Z</time>
      </trkpt>
      <trkpt lat="44.38344" lon="5.62566">
        <ele>1035.4</ele>
        <time>2021-09-07T16:14:25Z</time>
      </trkpt>
      <trkpt lat="44.38346" lon="5.62565">
        <ele>1035.5</ele>
        <time>2021-09-07T16:14:26Z</time>
      </trkpt>
      <trkpt lat="44.38347" lon="5.62563">
        <ele>1034.6</ele>
        <time>2021-09-07T16:14:27Z</time>
      </trkpt>
      <trkpt lat="44.38348" lon="5.62563">
        <ele>1034.7</ele>
        <time>2021-09-07T16:14:28Z</time>
      </trkpt>
      <trkpt lat="44.38349" lon="5.62562">
        <ele>1034.7</ele>
        <time>2021-09-07T16:14:29Z</time>
      </trkpt>
      <trkpt lat="44.38351" lon="5.6256">
        <ele>1033.8</ele>
        <time>2021-09-07T16:14:30Z</time>
      </trkpt>
      <trkpt lat="44.38352" lon="5.62559">
        <ele>1033.8</ele>
        <time>2021-09-07T16:14:31Z</time>
      </trkpt>
      <trkpt lat="44.38354" lon="5.62558">
        <ele>1033.9</ele>
        <time>2021-09-07T16:14:32Z</time>
      </trkpt>
      <trkpt lat="44.38356" lon="5.62557">
        <ele>1034</ele>
        <time>2021-09-07T16:14:33Z</time>
      </trkpt>
      <trkpt lat="44.38357" lon="5.62556">
        <ele>1034.1</ele>
        <time>2021-09-07T16:14:34Z</time>
      </trkpt>
      <trkpt lat="44.38359" lon="5.62554">
        <ele>1033.1</ele>
        <time>2021-09-07T16:14:35Z</time>
      </trkpt>
      <trkpt lat="44.3836" lon="5.62554">
        <ele>1033.3</ele>
        <time>2021-09-07T16:14:36Z</time>
      </trkpt>
      <trkpt lat="44.3836" lon="5.62553">
        <ele>1033.3</ele>
        <time>2021-09-07T16:14:37Z</time>
      </trkpt>
      <trkpt lat="44.38363" lon="5.62553">
        <ele>1033.5</ele>
        <time>2021-09-07T16:14:38Z</time>
      </trkpt>
      <trkpt lat="44.38364" lon="5.62553">
        <ele>1033.5</ele>
        <time>2021-09-07T16:14:39Z</time>
      </trkpt>
      <trkpt lat="44.38366" lon="5.62552">
        <ele>1033.6</ele>
        <time>2021-09-07T16:14:40Z</time>
      </trkpt>
      <trkpt lat="44.38367" lon="5.62552">
        <ele>1033.7</ele>
        <time>2021-09-07T16:14:41Z</time>
      </trkpt>
      <trkpt lat="44.38368" lon="5.62552">
        <ele>1033.7</ele>
        <time>2021-09-07T16:14:42Z</time>
      </trkpt>
      <trkpt lat="44.3837" lon="5.62551">
        <ele>1032.9</ele>
        <time>2021-09-07T16:14:43Z</time>
      </trkpt>
      <trkpt lat="44.38372" lon="5.6255">
        <ele>1033.1</ele>
        <time>2021-09-07T16:14:44Z</time>
      </trkpt>
      <trkpt lat="44.38374" lon="5.62549">
        <ele>1033.1</ele>
        <time>2021-09-07T16:14:45Z</time>
      </trkpt>
      <trkpt lat="44.38375" lon="5.62548">
        <ele>1033.3</ele>
        <time>2021-09-07T16:14:46Z</time>
      </trkpt>
      <trkpt lat="44.38376" lon="5.62547">
        <ele>1032.4</ele>
        <time>2021-09-07T16:14:47Z</time>
      </trkpt>
      <trkpt lat="44.38379" lon="5.62546">
        <ele>1032.5</ele>
        <time>2021-09-07T16:14:48Z</time>
      </trkpt>
      <trkpt lat="44.38381" lon="5.62545">
        <ele>1032.6</ele>
        <time>2021-09-07T16:14:49Z</time>
      </trkpt>
      <trkpt lat="44.38382" lon="5.62544">
        <ele>1032.6</ele>
        <time>2021-09-07T16:14:50Z</time>
      </trkpt>
      <trkpt lat="44.38383" lon="5.62544">
        <ele>1032.6</ele>
        <time>2021-09-07T16:14:51Z</time>
      </trkpt>
      <trkpt lat="44.38384" lon="5.62544">
        <ele>1032.8</ele>
        <time>2021-09-07T16:14:52Z</time>
      </trkpt>
      <trkpt lat="44.38386" lon="5.62544">
        <ele>1032.8</ele>
        <time>2021-09-07T16:14:53Z</time>
      </trkpt>
      <trkpt lat="44.38387" lon="5.62543">
        <ele>1032.9</ele>
        <time>2021-09-07T16:14:54Z</time>
      </trkpt>
      <trkpt lat="44.38389" lon="5.62543">
        <ele>1032.1</ele>
        <time>2021-09-07T16:14:55Z</time>
      </trkpt>
      <trkpt lat="44.3839" lon="5.62542">
        <ele>1032.2</ele>
        <time>2021-09-07T16:14:56Z</time>
      </trkpt>
      <trkpt lat="44.38392" lon="5.62542">
        <ele>1032.3</ele>
        <time>2021-09-07T16:14:57Z</time>
      </trkpt>
      <trkpt lat="44.38393" lon="5.62541">
        <ele>1032.3</ele>
        <time>2021-09-07T16:14:58Z</time>
      </trkpt>
      <trkpt lat="44.38395" lon="5.62542">
        <ele>1032.3</ele>
        <time>2021-09-07T16:14:59Z</time>
      </trkpt>
      <trkpt lat="44.38396" lon="5.62542">
        <ele>1032.4</ele>
        <time>2021-09-07T16:15:00Z</time>
      </trkpt>
      <trkpt lat="44.38397" lon="5.62543">
        <ele>1033.3</ele>
        <time>2021-09-07T16:15:01Z</time>
      </trkpt>
      <trkpt lat="44.38399" lon="5.62543">
        <ele>1033.3</ele>
        <time>2021-09-07T16:15:02Z</time>
      </trkpt>
      <trkpt lat="44.38402" lon="5.62544">
        <ele>1033.4</ele>
        <time>2021-09-07T16:15:03Z</time>
      </trkpt>
      <trkpt lat="44.38404" lon="5.62544">
        <ele>1033.4</ele>
        <time>2021-09-07T16:15:04Z</time>
      </trkpt>
      <trkpt lat="44.38405" lon="5.62544">
        <ele>1033.5</ele>
        <time>2021-09-07T16:15:05Z</time>
      </trkpt>
      <trkpt lat="44.38405" lon="5.62545">
        <ele>1033.5</ele>
        <time>2021-09-07T16:15:06Z</time>
      </trkpt>
      <trkpt lat="44.38405" lon="5.62546">
        <ele>1033.5</ele>
        <time>2021-09-07T16:15:07Z</time>
      </trkpt>
      <trkpt lat="44.38406" lon="5.62546">
        <ele>1033.7</ele>
        <time>2021-09-07T16:15:08Z</time>
      </trkpt>
      <trkpt lat="44.38406" lon="5.62546">
        <ele>1033.7</ele>
        <time>2021-09-07T16:15:09Z</time>
      </trkpt>
      <trkpt lat="44.38405" lon="5.62546">
        <ele>1033.6</ele>
        <time>2021-09-07T16:15:10Z</time>
      </trkpt>
      <trkpt lat="44.38406" lon="5.62547">
        <ele>1033.8</ele>
        <time>2021-09-07T16:15:11Z</time>
      </trkpt>
      <trkpt lat="44.38407" lon="5.62548">
        <ele>1034.6</ele>
        <time>2021-09-07T16:15:12Z</time>
      </trkpt>
      <trkpt lat="44.38407" lon="5.62548">
        <ele>1034.7</ele>
        <time>2021-09-07T16:15:13Z</time>
      </trkpt>
      <trkpt lat="44.38409" lon="5.62549">
        <ele>1034.7</ele>
        <time>2021-09-07T16:15:14Z</time>
      </trkpt>
      <trkpt lat="44.3841" lon="5.6255">
        <ele>1034.7</ele>
        <time>2021-09-07T16:15:15Z</time>
      </trkpt>
      <trkpt lat="44.38411" lon="5.6255">
        <ele>1034.8</ele>
        <time>2021-09-07T16:15:16Z</time>
      </trkpt>
      <trkpt lat="44.38415" lon="5.62553">
        <ele>1035.6</ele>
        <time>2021-09-07T16:15:17Z</time>
      </trkpt>
      <trkpt lat="44.38418" lon="5.62554">
        <ele>1035.7</ele>
        <time>2021-09-07T16:15:18Z</time>
      </trkpt>
      <trkpt lat="44.38419" lon="5.62554">
        <ele>1035.8</ele>
        <time>2021-09-07T16:15:19Z</time>
      </trkpt>
      <trkpt lat="44.38419" lon="5.62554">
        <ele>1035.8</ele>
        <time>2021-09-07T16:15:20Z</time>
      </trkpt>
      <trkpt lat="44.38421" lon="5.62554">
        <ele>1035.9</ele>
        <time>2021-09-07T16:15:21Z</time>
      </trkpt>
      <trkpt lat="44.38422" lon="5.62554">
        <ele>1035.9</ele>
        <time>2021-09-07T16:15:22Z</time>
      </trkpt>
      <trkpt lat="44.38423" lon="5.62554">
        <ele>1035.9</ele>
        <time>2021-09-07T16:15:23Z</time>
      </trkpt>
      <trkpt lat="44.38424" lon="5.62554">
        <ele>1036</ele>
        <time>2021-09-07T16:15:24Z</time>
      </trkpt>
      <trkpt lat="44.38425" lon="5.62554">
        <ele>1036</ele>
        <time>2021-09-07T16:15:25Z</time>
      </trkpt>
      <trkpt lat="44.38425" lon="5.62554">
        <ele>1036</ele>
        <time>2021-09-07T16:15:26Z</time>
      </trkpt>
      <trkpt lat="44.38425" lon="5.62554">
        <ele>1036.1</ele>
        <time>2021-09-07T16:15:27Z</time>
      </trkpt>
      <trkpt lat="44.38426" lon="5.62555">
        <ele>1036.1</ele>
        <time>2021-09-07T16:15:28Z</time>
      </trkpt>
      <trkpt lat="44.38428" lon="5.62556">
        <ele>1036.8</ele>
        <time>2021-09-07T16:15:29Z</time>
      </trkpt>
      <trkpt lat="44.38429" lon="5.62557">
        <ele>1036.9</ele>
        <time>2021-09-07T16:15:30Z</time>
      </trkpt>
      <trkpt lat="44.38431" lon="5.62558">
        <ele>1036.9</ele>
        <time>2021-09-07T16:15:31Z</time>
      </trkpt>
      <trkpt lat="44.38432" lon="5.62559">
        <ele>1037</ele>
        <time>2021-09-07T16:15:32Z</time>
      </trkpt>
      <trkpt lat="44.38435" lon="5.62561">
        <ele>1037.6</ele>
        <time>2021-09-07T16:15:33Z</time>
      </trkpt>
      <trkpt lat="44.38438" lon="5.62563">
        <ele>1037.6</ele>
        <time>2021-09-07T16:15:34Z</time>
      </trkpt>
      <trkpt lat="44.38439" lon="5.62564">
        <ele>1037.7</ele>
        <time>2021-09-07T16:15:35Z</time>
      </trkpt>
      <trkpt lat="44.3844" lon="5.62565">
        <ele>1038.4</ele>
        <time>2021-09-07T16:15:36Z</time>
      </trkpt>
      <trkpt lat="44.38444" lon="5.62568">
        <ele>1038.4</ele>
        <time>2021-09-07T16:15:37Z</time>
      </trkpt>
      <trkpt lat="44.38447" lon="5.62569">
        <ele>1039.1</ele>
        <time>2021-09-07T16:15:38Z</time>
      </trkpt>
      <trkpt lat="44.38449" lon="5.62571">
        <ele>1039.1</ele>
        <time>2021-09-07T16:15:39Z</time>
      </trkpt>
      <trkpt lat="44.38451" lon="5.62572">
        <ele>1039.2</ele>
        <time>2021-09-07T16:15:40Z</time>
      </trkpt>
      <trkpt lat="44.38452" lon="5.62573">
        <ele>1039.8</ele>
        <time>2021-09-07T16:15:41Z</time>
      </trkpt>
      <trkpt lat="44.38454" lon="5.62575">
        <ele>1039.8</ele>
        <time>2021-09-07T16:15:42Z</time>
      </trkpt>
      <trkpt lat="44.38455" lon="5.62576">
        <ele>1039.9</ele>
        <time>2021-09-07T16:15:43Z</time>
      </trkpt>
      <trkpt lat="44.38456" lon="5.62578">
        <ele>1040.5</ele>
        <time>2021-09-07T16:15:44Z</time>
      </trkpt>
      <trkpt lat="44.38457" lon="5.6258">
        <ele>1040.5</ele>
        <time>2021-09-07T16:15:45Z</time>
      </trkpt>
      <trkpt lat="44.38459" lon="5.62582">
        <ele>1041.2</ele>
        <time>2021-09-07T16:15:46Z</time>
      </trkpt>
      <trkpt lat="44.3846" lon="5.62584">
        <ele>1041.2</ele>
        <time>2021-09-07T16:15:47Z</time>
      </trkpt>
      <trkpt lat="44.38463" lon="5.62585">
        <ele>1041.1</ele>
        <time>2021-09-07T16:15:48Z</time>
      </trkpt>
      <trkpt lat="44.38465" lon="5.62586">
        <ele>1041</ele>
        <time>2021-09-07T16:15:49Z</time>
      </trkpt>
      <trkpt lat="44.38467" lon="5.62586">
        <ele>1041.5</ele>
        <time>2021-09-07T16:15:50Z</time>
      </trkpt>
      <trkpt lat="44.38469" lon="5.62587">
        <ele>1041.6</ele>
        <time>2021-09-07T16:15:51Z</time>
      </trkpt>
      <trkpt lat="44.3847" lon="5.62588">
        <ele>1041.3</ele>
        <time>2021-09-07T16:15:52Z</time>
      </trkpt>
      <trkpt lat="44.38473" lon="5.6259">
        <ele>1041.1</ele>
        <time>2021-09-07T16:15:53Z</time>
      </trkpt>
      <trkpt lat="44.38475" lon="5.62591">
        <ele>1041.8</ele>
        <time>2021-09-07T16:15:54Z</time>
      </trkpt>
      <trkpt lat="44.38477" lon="5.62592">
        <ele>1041.6</ele>
        <time>2021-09-07T16:15:55Z</time>
      </trkpt>
      <trkpt lat="44.38478" lon="5.62592">
        <ele>1041.6</ele>
        <time>2021-09-07T16:15:56Z</time>
      </trkpt>
      <trkpt lat="44.38481" lon="5.62592">
        <ele>1041.4</ele>
        <time>2021-09-07T16:15:57Z</time>
      </trkpt>
      <trkpt lat="44.38484" lon="5.62593">
        <ele>1041.2</ele>
        <time>2021-09-07T16:15:58Z</time>
      </trkpt>
      <trkpt lat="44.38487" lon="5.62594">
        <ele>1041.1</ele>
        <time>2021-09-07T16:15:59Z</time>
      </trkpt>
      <trkpt lat="44.38489" lon="5.62595">
        <ele>1041.4</ele>
        <time>2021-09-07T16:16:00Z</time>
      </trkpt>
      <trkpt lat="44.38492" lon="5.62596">
        <ele>1041.2</ele>
        <time>2021-09-07T16:16:01Z</time>
      </trkpt>
      <trkpt lat="44.38493" lon="5.62597">
        <ele>1041.3</ele>
        <time>2021-09-07T16:16:02Z</time>
      </trkpt>
      <trkpt lat="44.38493" lon="5.62597">
        <ele>1041.3</ele>
        <time>2021-09-07T16:16:03Z</time>
      </trkpt>
      <trkpt lat="44.38495" lon="5.62598">
        <ele>1041.1</ele>
        <time>2021-09-07T16:16:04Z</time>
      </trkpt>
      <trkpt lat="44.38496" lon="5.62598">
        <ele>1041.2</ele>
        <time>2021-09-07T16:16:05Z</time>
      </trkpt>
      <trkpt lat="44.38497" lon="5.62599">
        <ele>1041.7</ele>
        <time>2021-09-07T16:16:06Z</time>
      </trkpt>
      <trkpt lat="44.38499" lon="5.62601">
        <ele>1041.6</ele>
        <time>2021-09-07T16:16:07Z</time>
      </trkpt>
      <trkpt lat="44.38501" lon="5.62602">
        <ele>1041.4</ele>
        <time>2021-09-07T16:16:08Z</time>
      </trkpt>
      <trkpt lat="44.38502" lon="5.62604">
        <ele>1041.8</ele>
        <time>2021-09-07T16:16:09Z</time>
      </trkpt>
      <trkpt lat="44.38503" lon="5.62605">
        <ele>1041.9</ele>
        <time>2021-09-07T16:16:10Z</time>
      </trkpt>
      <trkpt lat="44.38504" lon="5.62606">
        <ele>1041.6</ele>
        <time>2021-09-07T16:16:11Z</time>
      </trkpt>
      <trkpt lat="44.38505" lon="5.62607">
        <ele>1041.6</ele>
        <time>2021-09-07T16:16:12Z</time>
      </trkpt>
      <trkpt lat="44.38506" lon="5.62609">
        <ele>1042</ele>
        <time>2021-09-07T16:16:13Z</time>
      </trkpt>
      <trkpt lat="44.38507" lon="5.6261">
        <ele>1041.8</ele>
        <time>2021-09-07T16:16:14Z</time>
      </trkpt>
      <trkpt lat="44.38508" lon="5.62611">
        <ele>1041.8</ele>
        <time>2021-09-07T16:16:15Z</time>
      </trkpt>
      <trkpt lat="44.38508" lon="5.62612">
        <ele>1042.2</ele>
        <time>2021-09-07T16:16:16Z</time>
      </trkpt>
      <trkpt lat="44.38509" lon="5.62612">
        <ele>1042.2</ele>
        <time>2021-09-07T16:16:17Z</time>
      </trkpt>
      <trkpt lat="44.3851" lon="5.62614">
        <ele>1041.9</ele>
        <time>2021-09-07T16:16:18Z</time>
      </trkpt>
      <trkpt lat="44.38512" lon="5.62616">
        <ele>1041.9</ele>
        <time>2021-09-07T16:16:19Z</time>
      </trkpt>
      <trkpt lat="44.38514" lon="5.62617">
        <ele>1042</ele>
        <time>2021-09-07T16:16:20Z</time>
      </trkpt>
      <trkpt lat="44.38516" lon="5.62619">
        <ele>1041.8</ele>
        <time>2021-09-07T16:16:21Z</time>
      </trkpt>
      <trkpt lat="44.38519" lon="5.62622">
        <ele>1041.9</ele>
        <time>2021-09-07T16:16:22Z</time>
      </trkpt>
      <trkpt lat="44.3852" lon="5.62623">
        <ele>1041.9</ele>
        <time>2021-09-07T16:16:23Z</time>
      </trkpt>
      <trkpt lat="44.38521" lon="5.62624">
        <ele>1041.9</ele>
        <time>2021-09-07T16:16:24Z</time>
      </trkpt>
      <trkpt lat="44.38524" lon="5.62626">
        <ele>1042.1</ele>
        <time>2021-09-07T16:16:25Z</time>
      </trkpt>
      <trkpt lat="44.38525" lon="5.62628">
        <ele>1042.1</ele>
        <time>2021-09-07T16:16:26Z</time>
      </trkpt>
      <trkpt lat="44.38526" lon="5.62631">
        <ele>1042.4</ele>
        <time>2021-09-07T16:16:27Z</time>
      </trkpt>
      <trkpt lat="44.38527" lon="5.62633">
        <ele>1042.4</ele>
        <time>2021-09-07T16:16:28Z</time>
      </trkpt>
      <trkpt lat="44.38529" lon="5.62636">
        <ele>1042.7</ele>
        <time>2021-09-07T16:16:29Z</time>
      </trkpt>
      <trkpt lat="44.38531" lon="5.62639">
        <ele>1043.2</ele>
        <time>2021-09-07T16:16:30Z</time>
      </trkpt>
      <trkpt lat="44.38532" lon="5.6264">
        <ele>1043</ele>
        <time>2021-09-07T16:16:31Z</time>
      </trkpt>
      <trkpt lat="44.38532" lon="5.6264">
        <ele>1043</ele>
        <time>2021-09-07T16:16:32Z</time>
      </trkpt>
      <trkpt lat="44.38533" lon="5.62642">
        <ele>1043.5</ele>
        <time>2021-09-07T16:16:33Z</time>
      </trkpt>
      <trkpt lat="44.38534" lon="5.62643">
        <ele>1043.5</ele>
        <time>2021-09-07T16:16:34Z</time>
      </trkpt>
      <trkpt lat="44.38535" lon="5.62646">
        <ele>1043.8</ele>
        <time>2021-09-07T16:16:35Z</time>
      </trkpt>
      <trkpt lat="44.38536" lon="5.62648">
        <ele>1043.8</ele>
        <time>2021-09-07T16:16:36Z</time>
      </trkpt>
      <trkpt lat="44.38537" lon="5.6265">
        <ele>1043.8</ele>
        <time>2021-09-07T16:16:37Z</time>
      </trkpt>
      <trkpt lat="44.38538" lon="5.62651">
        <ele>1044.1</ele>
        <time>2021-09-07T16:16:38Z</time>
      </trkpt>
      <trkpt lat="44.38539" lon="5.62653">
        <ele>1044.1</ele>
        <time>2021-09-07T16:16:39Z</time>
      </trkpt>
      <trkpt lat="44.38539" lon="5.62654">
        <ele>1044.1</ele>
        <time>2021-09-07T16:16:40Z</time>
      </trkpt>
      <trkpt lat="44.3854" lon="5.62657">
        <ele>1044.6</ele>
        <time>2021-09-07T16:16:41Z</time>
      </trkpt>
      <trkpt lat="44.38541" lon="5.62658">
        <ele>1044.4</ele>
        <time>2021-09-07T16:16:42Z</time>
      </trkpt>
      <trkpt lat="44.38542" lon="5.62659">
        <ele>1044.9</ele>
        <time>2021-09-07T16:16:43Z</time>
      </trkpt>
      <trkpt lat="44.38543" lon="5.62661">
        <ele>1044.9</ele>
        <time>2021-09-07T16:16:44Z</time>
      </trkpt>
      <trkpt lat="44.38544" lon="5.62662">
        <ele>1044.8</ele>
        <time>2021-09-07T16:16:45Z</time>
      </trkpt>
      <trkpt lat="44.38545" lon="5.62663">
        <ele>1044.8</ele>
        <time>2021-09-07T16:16:46Z</time>
      </trkpt>
      <trkpt lat="44.38547" lon="5.62664">
        <ele>1045.1</ele>
        <time>2021-09-07T16:16:47Z</time>
      </trkpt>
      <trkpt lat="44.38548" lon="5.62665">
        <ele>1045.1</ele>
        <time>2021-09-07T16:16:48Z</time>
      </trkpt>
      <trkpt lat="44.3855" lon="5.62665">
        <ele>1045</ele>
        <time>2021-09-07T16:16:49Z</time>
      </trkpt>
      <trkpt lat="44.38552" lon="5.62665">
        <ele>1045</ele>
        <time>2021-09-07T16:16:50Z</time>
      </trkpt>
      <trkpt lat="44.38554" lon="5.62666">
        <ele>1045</ele>
        <time>2021-09-07T16:16:51Z</time>
      </trkpt>
      <trkpt lat="44.38555" lon="5.62666">
        <ele>1045</ele>
        <time>2021-09-07T16:16:52Z</time>
      </trkpt>
      <trkpt lat="44.38557" lon="5.62666">
        <ele>1045</ele>
        <time>2021-09-07T16:16:53Z</time>
      </trkpt>
      <trkpt lat="44.38558" lon="5.62666">
        <ele>1045</ele>
        <time>2021-09-07T16:16:54Z</time>
      </trkpt>
      <trkpt lat="44.38558" lon="5.62666">
        <ele>1045</ele>
        <time>2021-09-07T16:16:55Z</time>
      </trkpt>
      <trkpt lat="44.38558" lon="5.62666">
        <ele>1045</ele>
        <time>2021-09-07T16:16:56Z</time>
      </trkpt>
      <trkpt lat="44.38558" lon="5.62666">
        <ele>1045</ele>
        <time>2021-09-07T16:16:57Z</time>
      </trkpt>
      <trkpt lat="44.38559" lon="5.62666">
        <ele>1045</ele>
        <time>2021-09-07T16:16:58Z</time>
      </trkpt>
      <trkpt lat="44.38559" lon="5.62666">
        <ele>1045</ele>
        <time>2021-09-07T16:16:59Z</time>
      </trkpt>
      <trkpt lat="44.38559" lon="5.62666">
        <ele>1045</ele>
        <time>2021-09-07T16:17:00Z</time>
      </trkpt>
      <trkpt lat="44.38559" lon="5.62666">
        <ele>1045</ele>
        <time>2021-09-07T16:17:01Z</time>
      </trkpt>
      <trkpt lat="44.3856" lon="5.62667">
        <ele>1045</ele>
        <time>2021-09-07T16:17:02Z</time>
      </trkpt>
      <trkpt lat="44.3856" lon="5.62668">
        <ele>1045.5</ele>
        <time>2021-09-07T16:17:03Z</time>
      </trkpt>
      <trkpt lat="44.38561" lon="5.62669">
        <ele>1045.5</ele>
        <time>2021-09-07T16:17:04Z</time>
      </trkpt>
      <trkpt lat="44.38562" lon="5.6267">
        <ele>1045.5</ele>
        <time>2021-09-07T16:17:05Z</time>
      </trkpt>
      <trkpt lat="44.38562" lon="5.62671">
        <ele>1045.5</ele>
        <time>2021-09-07T16:17:06Z</time>
      </trkpt>
      <trkpt lat="44.38562" lon="5.62671">
        <ele>1045.5</ele>
        <time>2021-09-07T16:17:07Z</time>
      </trkpt>
      <trkpt lat="44.38563" lon="5.62671">
        <ele>1045.5</ele>
        <time>2021-09-07T16:17:08Z</time>
      </trkpt>
      <trkpt lat="44.38563" lon="5.62672">
        <ele>1046</ele>
        <time>2021-09-07T16:17:09Z</time>
      </trkpt>
      <trkpt lat="44.38563" lon="5.62672">
        <ele>1046</ele>
        <time>2021-09-07T16:17:10Z</time>
      </trkpt>
      <trkpt lat="44.38563" lon="5.62672">
        <ele>1046</ele>
        <time>2021-09-07T16:17:11Z</time>
      </trkpt>
      <trkpt lat="44.38563" lon="5.62672">
        <ele>1046</ele>
        <time>2021-09-07T16:17:12Z</time>
      </trkpt>
      <trkpt lat="44.38563" lon="5.62673">
        <ele>1046</ele>
        <time>2021-09-07T16:17:13Z</time>
      </trkpt>
      <trkpt lat="44.38563" lon="5.62673">
        <ele>1046</ele>
        <time>2021-09-07T16:17:14Z</time>
      </trkpt>
      <trkpt lat="44.38564" lon="5.62673">
        <ele>1046</ele>
        <time>2021-09-07T16:17:15Z</time>
      </trkpt>
      <trkpt lat="44.38564" lon="5.62673">
        <ele>1046</ele>
        <time>2021-09-07T16:17:16Z</time>
      </trkpt>
      <trkpt lat="44.38565" lon="5.62673">
        <ele>1046.1</ele>
        <time>2021-09-07T16:17:17Z</time>
      </trkpt>
      <trkpt lat="44.38567" lon="5.62673">
        <ele>1046.1</ele>
        <time>2021-09-07T16:17:18Z</time>
      </trkpt>
      <trkpt lat="44.3857" lon="5.62672">
        <ele>1046.2</ele>
        <time>2021-09-07T16:17:19Z</time>
      </trkpt>
      <trkpt lat="44.38572" lon="5.62672">
        <ele>1046.4</ele>
        <time>2021-09-07T16:17:20Z</time>
      </trkpt>
      <trkpt lat="44.38574" lon="5.62672">
        <ele>1045.9</ele>
        <time>2021-09-07T16:17:21Z</time>
      </trkpt>
      <trkpt lat="44.38576" lon="5.62671">
        <ele>1046.1</ele>
        <time>2021-09-07T16:17:22Z</time>
      </trkpt>
      <trkpt lat="44.38578" lon="5.62671">
        <ele>1046.4</ele>
        <time>2021-09-07T16:17:23Z</time>
      </trkpt>
      <trkpt lat="44.38581" lon="5.6267">
        <ele>1046.8</ele>
        <time>2021-09-07T16:17:24Z</time>
      </trkpt>
      <trkpt lat="44.38584" lon="5.6267">
        <ele>1047.2</ele>
        <time>2021-09-07T16:17:25Z</time>
      </trkpt>
      <trkpt lat="44.38586" lon="5.62669">
        <ele>1047.2</ele>
        <time>2021-09-07T16:17:26Z</time>
      </trkpt>
      <trkpt lat="44.38588" lon="5.62669">
        <ele>1047.6</ele>
        <time>2021-09-07T16:17:27Z</time>
      </trkpt>
      <trkpt lat="44.3859" lon="5.62668">
        <ele>1048</ele>
        <time>2021-09-07T16:17:28Z</time>
      </trkpt>
      <trkpt lat="44.38592" lon="5.62668">
        <ele>1048</ele>
        <time>2021-09-07T16:17:29Z</time>
      </trkpt>
      <trkpt lat="44.38593" lon="5.62668">
        <ele>1048.4</ele>
        <time>2021-09-07T16:17:30Z</time>
      </trkpt>
      <trkpt lat="44.38593" lon="5.62667">
        <ele>1048.1</ele>
        <time>2021-09-07T16:17:31Z</time>
      </trkpt>
      <trkpt lat="44.38594" lon="5.62667">
        <ele>1048.1</ele>
        <time>2021-09-07T16:17:32Z</time>
      </trkpt>
      <trkpt lat="44.38594" lon="5.62667">
        <ele>1048.1</ele>
        <time>2021-09-07T16:17:33Z</time>
      </trkpt>
      <trkpt lat="44.38594" lon="5.62666">
        <ele>1048.1</ele>
        <time>2021-09-07T16:17:34Z</time>
      </trkpt>
      <trkpt lat="44.38594" lon="5.62666">
        <ele>1048.1</ele>
        <time>2021-09-07T16:17:35Z</time>
      </trkpt>
      <trkpt lat="44.38594" lon="5.62666">
        <ele>1048.1</ele>
        <time>2021-09-07T16:17:36Z</time>
      </trkpt>
      <trkpt lat="44.38594" lon="5.62666">
        <ele>1048.1</ele>
        <time>2021-09-07T16:17:37Z</time>
      </trkpt>
      <trkpt lat="44.38594" lon="5.62666">
        <ele>1048.1</ele>
        <time>2021-09-07T16:17:38Z</time>
      </trkpt>
      <trkpt lat="44.38594" lon="5.62666">
        <ele>1048.1</ele>
        <time>2021-09-07T16:17:39Z</time>
      </trkpt>
      <trkpt lat="44.38594" lon="5.62666">
        <ele>1048.1</ele>
        <time>2021-09-07T16:17:40Z</time>
      </trkpt>
      <trkpt lat="44.38594" lon="5.62666">
        <ele>1048.1</ele>
        <time>2021-09-07T16:17:41Z</time>
      </trkpt>
      <trkpt lat="44.38594" lon="5.62666">
        <ele>1048.1</ele>
        <time>2021-09-07T16:17:42Z</time>
      </trkpt>
      <trkpt lat="44.38594" lon="5.62666">
        <ele>1048.1</ele>
        <time>2021-09-07T16:17:43Z</time>
      </trkpt>
      <trkpt lat="44.38594" lon="5.62666">
        <ele>1048.1</ele>
        <time>2021-09-07T16:17:44Z</time>
      </trkpt>
      <trkpt lat="44.38594" lon="5.62666">
        <ele>1048.1</ele>
        <time>2021-09-07T16:17:45Z</time>
      </trkpt>
      <trkpt lat="44.38593" lon="5.62666">
        <ele>1048.1</ele>
        <time>2021-09-07T16:17:46Z</time>
      </trkpt>
      <trkpt lat="44.38593" lon="5.62666">
        <ele>1048.1</ele>
        <time>2021-09-07T16:17:47Z</time>
      </trkpt>
      <trkpt lat="44.38593" lon="5.62666">
        <ele>1048.1</ele>
        <time>2021-09-07T16:17:48Z</time>
      </trkpt>
      <trkpt lat="44.38593" lon="5.62666">
        <ele>1048.1</ele>
        <time>2021-09-07T16:17:49Z</time>
      </trkpt>
      <trkpt lat="44.38593" lon="5.62666">
        <ele>1048.1</ele>
        <time>2021-09-07T16:17:50Z</time>
      </trkpt>
      <trkpt lat="44.38593" lon="5.62666">
        <ele>1048.1</ele>
        <time>2021-09-07T16:17:51Z</time>
      </trkpt>
      <trkpt lat="44.38593" lon="5.62666">
        <ele>1048.1</ele>
        <time>2021-09-07T16:17:52Z</time>
      </trkpt>
      <trkpt lat="44.38593" lon="5.62666">
        <ele>1048.1</ele>
        <time>2021-09-07T16:17:53Z</time>
      </trkpt>
      <trkpt lat="44.38593" lon="5.62666">
        <ele>1048.1</ele>
        <time>2021-09-07T16:17:54Z</time>
      </trkpt>
      <trkpt lat="44.38593" lon="5.62666">
        <ele>1048.1</ele>
        <time>2021-09-07T16:17:55Z</time>
      </trkpt>
      <trkpt lat="44.38593" lon="5.62666">
        <ele>1048.1</ele>
        <time>2021-09-07T16:17:56Z</time>
      </trkpt>
      <trkpt lat="44.38593" lon="5.62666">
        <ele>1048.1</ele>
        <time>2021-09-07T16:17:57Z</time>
      </trkpt>
      <trkpt lat="44.38593" lon="5.62666">
        <ele>1048.1</ele>
        <time>2021-09-07T16:17:58Z</time>
      </trkpt>
      <trkpt lat="44.38593" lon="5.62666">
        <ele>1048.1</ele>
        <time>2021-09-07T16:17:59Z</time>
      </trkpt>
      <trkpt lat="44.38593" lon="5.62666">
        <ele>1048.1</ele>
        <time>2021-09-07T16:18:00Z</time>
      </trkpt>
      <trkpt lat="44.38593" lon="5.62666">
        <ele>1048.1</ele>
        <time>2021-09-07T16:18:01Z</time>
      </trkpt>
      <trkpt lat="44.38593" lon="5.62666">
        <ele>1048.1</ele>
        <time>2021-09-07T16:18:02Z</time>
      </trkpt>
      <trkpt lat="44.38593" lon="5.62666">
        <ele>1048.1</ele>
        <time>2021-09-07T16:18:03Z</time>
      </trkpt>
      <trkpt lat="44.38593" lon="5.62667">
        <ele>1048.1</ele>
        <time>2021-09-07T16:18:04Z</time>
      </trkpt>
      <trkpt lat="44.38593" lon="5.62667">
        <ele>1048.1</ele>
        <time>2021-09-07T16:18:05Z</time>
      </trkpt>
      <trkpt lat="44.38593" lon="5.62669">
        <ele>1048.4</ele>
        <time>2021-09-07T16:18:06Z</time>
      </trkpt>
      <trkpt lat="44.38592" lon="5.62672">
        <ele>1048.3</ele>
        <time>2021-09-07T16:18:07Z</time>
      </trkpt>
      <trkpt lat="44.38592" lon="5.62675">
        <ele>1048.3</ele>
        <time>2021-09-07T16:18:08Z</time>
      </trkpt>
      <trkpt lat="44.38592" lon="5.62677">
        <ele>1048.6</ele>
        <time>2021-09-07T16:18:09Z</time>
      </trkpt>
      <trkpt lat="44.38592" lon="5.62678">
        <ele>1048.6</ele>
        <time>2021-09-07T16:18:10Z</time>
      </trkpt>
      <trkpt lat="44.38592" lon="5.62679">
        <ele>1048.6</ele>
        <time>2021-09-07T16:18:11Z</time>
      </trkpt>
      <trkpt lat="44.38592" lon="5.6268">
        <ele>1048.6</ele>
        <time>2021-09-07T16:18:12Z</time>
      </trkpt>
      <trkpt lat="44.38592" lon="5.62681">
        <ele>1048.9</ele>
        <time>2021-09-07T16:18:13Z</time>
      </trkpt>
      <trkpt lat="44.38592" lon="5.62682">
        <ele>1048.9</ele>
        <time>2021-09-07T16:18:14Z</time>
      </trkpt>
      <trkpt lat="44.38592" lon="5.62682">
        <ele>1048.9</ele>
        <time>2021-09-07T16:18:15Z</time>
      </trkpt>
      <trkpt lat="44.38592" lon="5.62682">
        <ele>1048.9</ele>
        <time>2021-09-07T16:18:16Z</time>
      </trkpt>
      <trkpt lat="44.38592" lon="5.62682">
        <ele>1048.9</ele>
        <time>2021-09-07T16:18:17Z</time>
      </trkpt>
      <trkpt lat="44.38592" lon="5.62684">
        <ele>1048.9</ele>
        <time>2021-09-07T16:18:18Z</time>
      </trkpt>
      <trkpt lat="44.38592" lon="5.62686">
        <ele>1049.2</ele>
        <time>2021-09-07T16:18:19Z</time>
      </trkpt>
      <trkpt lat="44.38592" lon="5.62688">
        <ele>1049.2</ele>
        <time>2021-09-07T16:18:20Z</time>
      </trkpt>
      <trkpt lat="44.38592" lon="5.62691">
        <ele>1049.6</ele>
        <time>2021-09-07T16:18:21Z</time>
      </trkpt>
      <trkpt lat="44.38592" lon="5.62694">
        <ele>1049.9</ele>
        <time>2021-09-07T16:18:22Z</time>
      </trkpt>
      <trkpt lat="44.38591" lon="5.62696">
        <ele>1049.9</ele>
        <time>2021-09-07T16:18:23Z</time>
      </trkpt>
      <trkpt lat="44.3859" lon="5.62699">
        <ele>1050.3</ele>
        <time>2021-09-07T16:18:24Z</time>
      </trkpt>
      <trkpt lat="44.38589" lon="5.62702">
        <ele>1050.4</ele>
        <time>2021-09-07T16:18:25Z</time>
      </trkpt>
      <trkpt lat="44.38588" lon="5.62705">
        <ele>1050.4</ele>
        <time>2021-09-07T16:18:26Z</time>
      </trkpt>
      <trkpt lat="44.38588" lon="5.62709">
        <ele>1050.8</ele>
        <time>2021-09-07T16:18:27Z</time>
      </trkpt>
      <trkpt lat="44.38587" lon="5.62712">
        <ele>1051.3</ele>
        <time>2021-09-07T16:18:28Z</time>
      </trkpt>
      <trkpt lat="44.38585" lon="5.62715">
        <ele>1051.6</ele>
        <time>2021-09-07T16:18:29Z</time>
      </trkpt>
      <trkpt lat="44.38584" lon="5.62718">
        <ele>1051.6</ele>
        <time>2021-09-07T16:18:30Z</time>
      </trkpt>
      <trkpt lat="44.38583" lon="5.6272">
        <ele>1052.1</ele>
        <time>2021-09-07T16:18:31Z</time>
      </trkpt>
      <trkpt lat="44.38582" lon="5.62722">
        <ele>1052.1</ele>
        <time>2021-09-07T16:18:32Z</time>
      </trkpt>
      <trkpt lat="44.38581" lon="5.62724">
        <ele>1052.7</ele>
        <time>2021-09-07T16:18:33Z</time>
      </trkpt>
      <trkpt lat="44.3858" lon="5.62726">
        <ele>1052.6</ele>
        <time>2021-09-07T16:18:34Z</time>
      </trkpt>
      <trkpt lat="44.38579" lon="5.62728">
        <ele>1053.3</ele>
        <time>2021-09-07T16:18:35Z</time>
      </trkpt>
      <trkpt lat="44.38578" lon="5.62729">
        <ele>1053.3</ele>
        <time>2021-09-07T16:18:36Z</time>
      </trkpt>
      <trkpt lat="44.38577" lon="5.62731">
        <ele>1053.1</ele>
        <time>2021-09-07T16:18:37Z</time>
      </trkpt>
      <trkpt lat="44.38575" lon="5.62733">
        <ele>1053.8</ele>
        <time>2021-09-07T16:18:38Z</time>
      </trkpt>
      <trkpt lat="44.38575" lon="5.62734">
        <ele>1053.8</ele>
        <time>2021-09-07T16:18:39Z</time>
      </trkpt>
      <trkpt lat="44.38574" lon="5.62735">
        <ele>1053.7</ele>
        <time>2021-09-07T16:18:40Z</time>
      </trkpt>
      <trkpt lat="44.38574" lon="5.62735">
        <ele>1053.7</ele>
        <time>2021-09-07T16:18:41Z</time>
      </trkpt>
      <trkpt lat="44.38573" lon="5.62736">
        <ele>1053.7</ele>
        <time>2021-09-07T16:18:42Z</time>
      </trkpt>
      <trkpt lat="44.38573" lon="5.62737">
        <ele>1054.4</ele>
        <time>2021-09-07T16:18:43Z</time>
      </trkpt>
      <trkpt lat="44.38572" lon="5.62738">
        <ele>1054.4</ele>
        <time>2021-09-07T16:18:44Z</time>
      </trkpt>
      <trkpt lat="44.38571" lon="5.62739">
        <ele>1054.3</ele>
        <time>2021-09-07T16:18:45Z</time>
      </trkpt>
      <trkpt lat="44.3857" lon="5.6274">
        <ele>1054.3</ele>
        <time>2021-09-07T16:18:46Z</time>
      </trkpt>
      <trkpt lat="44.3857" lon="5.62741">
        <ele>1055</ele>
        <time>2021-09-07T16:18:47Z</time>
      </trkpt>
      <trkpt lat="44.38569" lon="5.62741">
        <ele>1055</ele>
        <time>2021-09-07T16:18:48Z</time>
      </trkpt>
      <trkpt lat="44.38569" lon="5.62741">
        <ele>1055</ele>
        <time>2021-09-07T16:18:49Z</time>
      </trkpt>
      <trkpt lat="44.38569" lon="5.62741">
        <ele>1055</ele>
        <time>2021-09-07T16:18:50Z</time>
      </trkpt>
      <trkpt lat="44.38569" lon="5.62742">
        <ele>1055</ele>
        <time>2021-09-07T16:18:51Z</time>
      </trkpt>
      <trkpt lat="44.38568" lon="5.62742">
        <ele>1055</ele>
        <time>2021-09-07T16:18:52Z</time>
      </trkpt>
      <trkpt lat="44.38567" lon="5.62744">
        <ele>1054.9</ele>
        <time>2021-09-07T16:18:53Z</time>
      </trkpt>
      <trkpt lat="44.38567" lon="5.62744">
        <ele>1054.9</ele>
        <time>2021-09-07T16:18:54Z</time>
      </trkpt>
      <trkpt lat="44.38566" lon="5.62745">
        <ele>1055.6</ele>
        <time>2021-09-07T16:18:55Z</time>
      </trkpt>
      <trkpt lat="44.38566" lon="5.62746">
        <ele>1055.6</ele>
        <time>2021-09-07T16:18:56Z</time>
      </trkpt>
      <trkpt lat="44.38565" lon="5.62746">
        <ele>1055.6</ele>
        <time>2021-09-07T16:18:57Z</time>
      </trkpt>
      <trkpt lat="44.38565" lon="5.62747">
        <ele>1055.6</ele>
        <time>2021-09-07T16:18:58Z</time>
      </trkpt>
      <trkpt lat="44.38565" lon="5.62747">
        <ele>1055.6</ele>
        <time>2021-09-07T16:18:59Z</time>
      </trkpt>
      <trkpt lat="44.38564" lon="5.62747">
        <ele>1055.6</ele>
        <time>2021-09-07T16:19:00Z</time>
      </trkpt>
      <trkpt lat="44.38564" lon="5.62748">
        <ele>1055.6</ele>
        <time>2021-09-07T16:19:01Z</time>
      </trkpt>
      <trkpt lat="44.38563" lon="5.62748">
        <ele>1055.6</ele>
        <time>2021-09-07T16:19:02Z</time>
      </trkpt>
      <trkpt lat="44.38563" lon="5.62749">
        <ele>1055.6</ele>
        <time>2021-09-07T16:19:03Z</time>
      </trkpt>
      <trkpt lat="44.38563" lon="5.62749">
        <ele>1056.3</ele>
        <time>2021-09-07T16:19:04Z</time>
      </trkpt>
      <trkpt lat="44.38563" lon="5.62749">
        <ele>1056.3</ele>
        <time>2021-09-07T16:19:05Z</time>
      </trkpt>
      <trkpt lat="44.38563" lon="5.6275">
        <ele>1056.3</ele>
        <time>2021-09-07T16:19:06Z</time>
      </trkpt>
      <trkpt lat="44.38562" lon="5.62753">
        <ele>1056.3</ele>
        <time>2021-09-07T16:19:07Z</time>
      </trkpt>
      <trkpt lat="44.38562" lon="5.62755">
        <ele>1056.9</ele>
        <time>2021-09-07T16:19:08Z</time>
      </trkpt>
      <trkpt lat="44.38561" lon="5.62756">
        <ele>1056.9</ele>
        <time>2021-09-07T16:19:09Z</time>
      </trkpt>
      <trkpt lat="44.3856" lon="5.62757">
        <ele>1056.9</ele>
        <time>2021-09-07T16:19:10Z</time>
      </trkpt>
      <trkpt lat="44.38559" lon="5.62759">
        <ele>1057.7</ele>
        <time>2021-09-07T16:19:11Z</time>
      </trkpt>
      <trkpt lat="44.38559" lon="5.6276">
        <ele>1057.7</ele>
        <time>2021-09-07T16:19:12Z</time>
      </trkpt>
      <trkpt lat="44.38558" lon="5.62761">
        <ele>1057.7</ele>
        <time>2021-09-07T16:19:13Z</time>
      </trkpt>
      <trkpt lat="44.38558" lon="5.62762">
        <ele>1057.7</ele>
        <time>2021-09-07T16:19:14Z</time>
      </trkpt>
      <trkpt lat="44.38558" lon="5.62762">
        <ele>1058.4</ele>
        <time>2021-09-07T16:19:15Z</time>
      </trkpt>
      <trkpt lat="44.38558" lon="5.62762">
        <ele>1058.4</ele>
        <time>2021-09-07T16:19:16Z</time>
      </trkpt>
      <trkpt lat="44.38558" lon="5.62762">
        <ele>1058.4</ele>
        <time>2021-09-07T16:19:17Z</time>
      </trkpt>
      <trkpt lat="44.38558" lon="5.62762">
        <ele>1058.4</ele>
        <time>2021-09-07T16:19:18Z</time>
      </trkpt>
      <trkpt lat="44.38556" lon="5.62763">
        <ele>1058.4</ele>
        <time>2021-09-07T16:19:19Z</time>
      </trkpt>
      <trkpt lat="44.38555" lon="5.62765">
        <ele>1058.5</ele>
        <time>2021-09-07T16:19:20Z</time>
      </trkpt>
      <trkpt lat="44.38554" lon="5.62765">
        <ele>1058.5</ele>
        <time>2021-09-07T16:19:21Z</time>
      </trkpt>
      <trkpt lat="44.38552" lon="5.62766">
        <ele>1058.5</ele>
        <time>2021-09-07T16:19:22Z</time>
      </trkpt>
      <trkpt lat="44.3855" lon="5.62767">
        <ele>1059.3</ele>
        <time>2021-09-07T16:19:23Z</time>
      </trkpt>
      <trkpt lat="44.3855" lon="5.62767">
        <ele>1059.3</ele>
        <time>2021-09-07T16:19:24Z</time>
      </trkpt>
      <trkpt lat="44.3855" lon="5.62767">
        <ele>1059.3</ele>
        <time>2021-09-07T16:19:25Z</time>
      </trkpt>
      <trkpt lat="44.38549" lon="5.62768">
        <ele>1059.4</ele>
        <time>2021-09-07T16:19:26Z</time>
      </trkpt>
      <trkpt lat="44.38549" lon="5.62768">
        <ele>1059.4</ele>
        <time>2021-09-07T16:19:27Z</time>
      </trkpt>
      <trkpt lat="44.38548" lon="5.62768">
        <ele>1059.4</ele>
        <time>2021-09-07T16:19:28Z</time>
      </trkpt>
      <trkpt lat="44.38548" lon="5.62769">
        <ele>1059.4</ele>
        <time>2021-09-07T16:19:29Z</time>
      </trkpt>
      <trkpt lat="44.38548" lon="5.62769">
        <ele>1059.4</ele>
        <time>2021-09-07T16:19:30Z</time>
      </trkpt>
      <trkpt lat="44.38548" lon="5.62769">
        <ele>1059.4</ele>
        <time>2021-09-07T16:19:31Z</time>
      </trkpt>
      <trkpt lat="44.38548" lon="5.6277">
        <ele>1059.4</ele>
        <time>2021-09-07T16:19:32Z</time>
      </trkpt>
      <trkpt lat="44.38547" lon="5.6277">
        <ele>1059.4</ele>
        <time>2021-09-07T16:19:33Z</time>
      </trkpt>
      <trkpt lat="44.38547" lon="5.6277">
        <ele>1059.4</ele>
        <time>2021-09-07T16:19:34Z</time>
      </trkpt>
      <trkpt lat="44.38547" lon="5.6277">
        <ele>1059.4</ele>
        <time>2021-09-07T16:19:35Z</time>
      </trkpt>
      <trkpt lat="44.38547" lon="5.6277">
        <ele>1059.4</ele>
        <time>2021-09-07T16:19:36Z</time>
      </trkpt>
      <trkpt lat="44.38545" lon="5.62771">
        <ele>1060.2</ele>
        <time>2021-09-07T16:19:37Z</time>
      </trkpt>
      <trkpt lat="44.38544" lon="5.62771">
        <ele>1060.2</ele>
        <time>2021-09-07T16:19:38Z</time>
      </trkpt>
      <trkpt lat="44.38542" lon="5.62771">
        <ele>1060.4</ele>
        <time>2021-09-07T16:19:39Z</time>
      </trkpt>
      <trkpt lat="44.3854" lon="5.62771">
        <ele>1060.5</ele>
        <time>2021-09-07T16:19:40Z</time>
      </trkpt>
      <trkpt lat="44.38539" lon="5.62771">
        <ele>1060.5</ele>
        <time>2021-09-07T16:19:41Z</time>
      </trkpt>
      <trkpt lat="44.38538" lon="5.62771">
        <ele>1060.5</ele>
        <time>2021-09-07T16:19:42Z</time>
      </trkpt>
      <trkpt lat="44.38537" lon="5.62772">
        <ele>1060.7</ele>
        <time>2021-09-07T16:19:43Z</time>
      </trkpt>
      <trkpt lat="44.38537" lon="5.62772">
        <ele>1060.7</ele>
        <time>2021-09-07T16:19:44Z</time>
      </trkpt>
      <trkpt lat="44.38537" lon="5.62772">
        <ele>1060.7</ele>
        <time>2021-09-07T16:19:45Z</time>
      </trkpt>
      <trkpt lat="44.38536" lon="5.62772">
        <ele>1060.7</ele>
        <time>2021-09-07T16:19:46Z</time>
      </trkpt>
      <trkpt lat="44.38536" lon="5.62772">
        <ele>1060.7</ele>
        <time>2021-09-07T16:19:47Z</time>
      </trkpt>
      <trkpt lat="44.38535" lon="5.62771">
        <ele>1060.7</ele>
        <time>2021-09-07T16:19:48Z</time>
      </trkpt>
      <trkpt lat="44.38533" lon="5.62771">
        <ele>1060.9</ele>
        <time>2021-09-07T16:19:49Z</time>
      </trkpt>
      <trkpt lat="44.38531" lon="5.62771">
        <ele>1061.2</ele>
        <time>2021-09-07T16:19:50Z</time>
      </trkpt>
      <trkpt lat="44.38528" lon="5.62771">
        <ele>1061.5</ele>
        <time>2021-09-07T16:19:51Z</time>
      </trkpt>
      <trkpt lat="44.38527" lon="5.62771">
        <ele>1061.5</ele>
        <time>2021-09-07T16:19:52Z</time>
      </trkpt>
      <trkpt lat="44.38526" lon="5.62771">
        <ele>1061.5</ele>
        <time>2021-09-07T16:19:53Z</time>
      </trkpt>
      <trkpt lat="44.38525" lon="5.62771">
        <ele>1061.9</ele>
        <time>2021-09-07T16:19:54Z</time>
      </trkpt>
      <trkpt lat="44.38525" lon="5.62771">
        <ele>1061.9</ele>
        <time>2021-09-07T16:19:55Z</time>
      </trkpt>
      <trkpt lat="44.38524" lon="5.62771">
        <ele>1061.9</ele>
        <time>2021-09-07T16:19:56Z</time>
      </trkpt>
      <trkpt lat="44.38524" lon="5.62771">
        <ele>1061.9</ele>
        <time>2021-09-07T16:19:57Z</time>
      </trkpt>
      <trkpt lat="44.38524" lon="5.62771">
        <ele>1061.9</ele>
        <time>2021-09-07T16:19:58Z</time>
      </trkpt>
      <trkpt lat="44.38523" lon="5.62771">
        <ele>1061.9</ele>
        <time>2021-09-07T16:19:59Z</time>
      </trkpt>
      <trkpt lat="44.38523" lon="5.62771">
        <ele>1061.9</ele>
        <time>2021-09-07T16:20:00Z</time>
      </trkpt>
      <trkpt lat="44.38523" lon="5.62771">
        <ele>1061.9</ele>
        <time>2021-09-07T16:20:01Z</time>
      </trkpt>
      <trkpt lat="44.38522" lon="5.62771">
        <ele>1061.9</ele>
        <time>2021-09-07T16:20:02Z</time>
      </trkpt>
      <trkpt lat="44.38521" lon="5.62772">
        <ele>1062.2</ele>
        <time>2021-09-07T16:20:03Z</time>
      </trkpt>
      <trkpt lat="44.3852" lon="5.62772">
        <ele>1062.2</ele>
        <time>2021-09-07T16:20:04Z</time>
      </trkpt>
      <trkpt lat="44.38519" lon="5.62773">
        <ele>1062.6</ele>
        <time>2021-09-07T16:20:05Z</time>
      </trkpt>
      <trkpt lat="44.38517" lon="5.62774">
        <ele>1062.6</ele>
        <time>2021-09-07T16:20:06Z</time>
      </trkpt>
      <trkpt lat="44.38516" lon="5.62775">
        <ele>1063.3</ele>
        <time>2021-09-07T16:20:07Z</time>
      </trkpt>
      <trkpt lat="44.38515" lon="5.62775">
        <ele>1063.7</ele>
        <time>2021-09-07T16:20:08Z</time>
      </trkpt>
      <trkpt lat="44.38514" lon="5.62776">
        <ele>1063.7</ele>
        <time>2021-09-07T16:20:09Z</time>
      </trkpt>
      <trkpt lat="44.38513" lon="5.62777">
        <ele>1063.7</ele>
        <time>2021-09-07T16:20:10Z</time>
      </trkpt>
      <trkpt lat="44.38513" lon="5.62777">
        <ele>1063.7</ele>
        <time>2021-09-07T16:20:11Z</time>
      </trkpt>
      <trkpt lat="44.38513" lon="5.62777">
        <ele>1063.7</ele>
        <time>2021-09-07T16:20:12Z</time>
      </trkpt>
      <trkpt lat="44.38512" lon="5.62777">
        <ele>1064.1</ele>
        <time>2021-09-07T16:20:13Z</time>
      </trkpt>
      <trkpt lat="44.38512" lon="5.62777">
        <ele>1064.1</ele>
        <time>2021-09-07T16:20:14Z</time>
      </trkpt>
      <trkpt lat="44.38512" lon="5.62777">
        <ele>1064.1</ele>
        <time>2021-09-07T16:20:15Z</time>
      </trkpt>
      <trkpt lat="44.38512" lon="5.62777">
        <ele>1064.1</ele>
        <time>2021-09-07T16:20:16Z</time>
      </trkpt>
      <trkpt lat="44.38512" lon="5.62778">
        <ele>1064.1</ele>
        <time>2021-09-07T16:20:17Z</time>
      </trkpt>
      <trkpt lat="44.3851" lon="5.62777">
        <ele>1064.1</ele>
        <time>2021-09-07T16:20:18Z</time>
      </trkpt>
      <trkpt lat="44.38508" lon="5.62777">
        <ele>1064.6</ele>
        <time>2021-09-07T16:20:19Z</time>
      </trkpt>
      <trkpt lat="44.38507" lon="5.62777">
        <ele>1064.6</ele>
        <time>2021-09-07T16:20:20Z</time>
      </trkpt>
      <trkpt lat="44.38506" lon="5.62776">
        <ele>1065</ele>
        <time>2021-09-07T16:20:21Z</time>
      </trkpt>
      <trkpt lat="44.38504" lon="5.62776">
        <ele>1065</ele>
        <time>2021-09-07T16:20:22Z</time>
      </trkpt>
      <trkpt lat="44.38503" lon="5.62776">
        <ele>1065.5</ele>
        <time>2021-09-07T16:20:23Z</time>
      </trkpt>
      <trkpt lat="44.38502" lon="5.62776">
        <ele>1065.5</ele>
        <time>2021-09-07T16:20:24Z</time>
      </trkpt>
      <trkpt lat="44.38501" lon="5.62775">
        <ele>1065.5</ele>
        <time>2021-09-07T16:20:25Z</time>
      </trkpt>
      <trkpt lat="44.385" lon="5.62774">
        <ele>1065.4</ele>
        <time>2021-09-07T16:20:26Z</time>
      </trkpt>
      <trkpt lat="44.385" lon="5.62774">
        <ele>1065.4</ele>
        <time>2021-09-07T16:20:27Z</time>
      </trkpt>
      <trkpt lat="44.38499" lon="5.62773">
        <ele>1065.4</ele>
        <time>2021-09-07T16:20:28Z</time>
      </trkpt>
      <trkpt lat="44.38497" lon="5.62772">
        <ele>1065.9</ele>
        <time>2021-09-07T16:20:29Z</time>
      </trkpt>
      <trkpt lat="44.38495" lon="5.62771">
        <ele>1065.9</ele>
        <time>2021-09-07T16:20:30Z</time>
      </trkpt>
      <trkpt lat="44.38494" lon="5.6277">
        <ele>1065.8</ele>
        <time>2021-09-07T16:20:31Z</time>
      </trkpt>
      <trkpt lat="44.38493" lon="5.62769">
        <ele>1065.8</ele>
        <time>2021-09-07T16:20:32Z</time>
      </trkpt>
      <trkpt lat="44.38493" lon="5.62768">
        <ele>1065.8</ele>
        <time>2021-09-07T16:20:33Z</time>
      </trkpt>
      <trkpt lat="44.38492" lon="5.62767">
        <ele>1065.8</ele>
        <time>2021-09-07T16:20:34Z</time>
      </trkpt>
      <trkpt lat="44.38491" lon="5.62766">
        <ele>1065.6</ele>
        <time>2021-09-07T16:20:35Z</time>
      </trkpt>
      <trkpt lat="44.38491" lon="5.62766">
        <ele>1065.6</ele>
        <time>2021-09-07T16:20:36Z</time>
      </trkpt>
      <trkpt lat="44.38491" lon="5.62765">
        <ele>1065.6</ele>
        <time>2021-09-07T16:20:37Z</time>
      </trkpt>
      <trkpt lat="44.38491" lon="5.62765">
        <ele>1065.6</ele>
        <time>2021-09-07T16:20:38Z</time>
      </trkpt>
      <trkpt lat="44.3849" lon="5.62764">
        <ele>1065.6</ele>
        <time>2021-09-07T16:20:39Z</time>
      </trkpt>
      <trkpt lat="44.3849" lon="5.62764">
        <ele>1065.6</ele>
        <time>2021-09-07T16:20:40Z</time>
      </trkpt>
      <trkpt lat="44.3849" lon="5.62764">
        <ele>1065.6</ele>
        <time>2021-09-07T16:20:41Z</time>
      </trkpt>
      <trkpt lat="44.3849" lon="5.62764">
        <ele>1065.6</ele>
        <time>2021-09-07T16:20:42Z</time>
      </trkpt>
      <trkpt lat="44.3849" lon="5.62764">
        <ele>1065.6</ele>
        <time>2021-09-07T16:20:43Z</time>
      </trkpt>
      <trkpt lat="44.3849" lon="5.62764">
        <ele>1065.6</ele>
        <time>2021-09-07T16:20:44Z</time>
      </trkpt>
      <trkpt lat="44.3849" lon="5.62763">
        <ele>1065.6</ele>
        <time>2021-09-07T16:20:45Z</time>
      </trkpt>
      <trkpt lat="44.3849" lon="5.62763">
        <ele>1065.6</ele>
        <time>2021-09-07T16:20:46Z</time>
      </trkpt>
      <trkpt lat="44.3849" lon="5.62763">
        <ele>1065.6</ele>
        <time>2021-09-07T16:20:47Z</time>
      </trkpt>
      <trkpt lat="44.3849" lon="5.62763">
        <ele>1065.6</ele>
        <time>2021-09-07T16:20:48Z</time>
      </trkpt>
      <trkpt lat="44.3849" lon="5.62763">
        <ele>1065.6</ele>
        <time>2021-09-07T16:20:49Z</time>
      </trkpt>
      <trkpt lat="44.38491" lon="5.62763">
        <ele>1065.6</ele>
        <time>2021-09-07T16:20:50Z</time>
      </trkpt>
      <trkpt lat="44.38491" lon="5.62763">
        <ele>1065.6</ele>
        <time>2021-09-07T16:20:51Z</time>
      </trkpt>
      <trkpt lat="44.38491" lon="5.62763">
        <ele>1065.6</ele>
        <time>2021-09-07T16:20:52Z</time>
      </trkpt>
      <trkpt lat="44.38491" lon="5.62763">
        <ele>1065.6</ele>
        <time>2021-09-07T16:20:53Z</time>
      </trkpt>
      <trkpt lat="44.38491" lon="5.62763">
        <ele>1065.6</ele>
        <time>2021-09-07T16:20:54Z</time>
      </trkpt>
      <trkpt lat="44.38491" lon="5.62763">
        <ele>1065.6</ele>
        <time>2021-09-07T16:20:55Z</time>
      </trkpt>
      <trkpt lat="44.38491" lon="5.62763">
        <ele>1065.6</ele>
        <time>2021-09-07T16:20:56Z</time>
      </trkpt>
      <trkpt lat="44.38492" lon="5.62763">
        <ele>1065.2</ele>
        <time>2021-09-07T16:20:57Z</time>
      </trkpt>
      <trkpt lat="44.38492" lon="5.62763">
        <ele>1065.2</ele>
        <time>2021-09-07T16:20:58Z</time>
      </trkpt>
      <trkpt lat="44.38492" lon="5.62763">
        <ele>1065.2</ele>
        <time>2021-09-07T16:20:59Z</time>
      </trkpt>
      <trkpt lat="44.38492" lon="5.62763">
        <ele>1065.2</ele>
        <time>2021-09-07T16:21:00Z</time>
      </trkpt>
      <trkpt lat="44.38492" lon="5.62763">
        <ele>1065.2</ele>
        <time>2021-09-07T16:21:01Z</time>
      </trkpt>
      <trkpt lat="44.38492" lon="5.62763">
        <ele>1065.2</ele>
        <time>2021-09-07T16:21:02Z</time>
      </trkpt>
      <trkpt lat="44.38492" lon="5.62763">
        <ele>1065.2</ele>
        <time>2021-09-07T16:21:03Z</time>
      </trkpt>
      <trkpt lat="44.38492" lon="5.62763">
        <ele>1065.2</ele>
        <time>2021-09-07T16:21:04Z</time>
      </trkpt>
      <trkpt lat="44.38492" lon="5.62763">
        <ele>1065.2</ele>
        <time>2021-09-07T16:21:05Z</time>
      </trkpt>
      <trkpt lat="44.38492" lon="5.62763">
        <ele>1065.2</ele>
        <time>2021-09-07T16:21:06Z</time>
      </trkpt>
      <trkpt lat="44.38492" lon="5.62763">
        <ele>1065.2</ele>
        <time>2021-09-07T16:21:07Z</time>
      </trkpt>
      <trkpt lat="44.38492" lon="5.62763">
        <ele>1065.2</ele>
        <time>2021-09-07T16:21:08Z</time>
      </trkpt>
      <trkpt lat="44.38492" lon="5.62763">
        <ele>1065.2</ele>
        <time>2021-09-07T16:21:09Z</time>
      </trkpt>
      <trkpt lat="44.38492" lon="5.62763">
        <ele>1065.2</ele>
        <time>2021-09-07T16:21:10Z</time>
      </trkpt>
      <trkpt lat="44.38492" lon="5.62763">
        <ele>1065.2</ele>
        <time>2021-09-07T16:21:11Z</time>
      </trkpt>
      <trkpt lat="44.38492" lon="5.62763">
        <ele>1065.2</ele>
        <time>2021-09-07T16:21:12Z</time>
      </trkpt>
      <trkpt lat="44.38492" lon="5.62763">
        <ele>1065.2</ele>
        <time>2021-09-07T16:21:13Z</time>
      </trkpt>
      <trkpt lat="44.38492" lon="5.62763">
        <ele>1065.2</ele>
        <time>2021-09-07T16:21:14Z</time>
      </trkpt>
      <trkpt lat="44.38492" lon="5.62764">
        <ele>1065.2</ele>
        <time>2021-09-07T16:21:15Z</time>
      </trkpt>
      <trkpt lat="44.38492" lon="5.62764">
        <ele>1065.2</ele>
        <time>2021-09-07T16:21:16Z</time>
      </trkpt>
      <trkpt lat="44.38492" lon="5.62764">
        <ele>1065.2</ele>
        <time>2021-09-07T16:21:17Z</time>
      </trkpt>
      <trkpt lat="44.38492" lon="5.62764">
        <ele>1065.2</ele>
        <time>2021-09-07T16:21:18Z</time>
      </trkpt>
      <trkpt lat="44.38492" lon="5.62764">
        <ele>1065.2</ele>
        <time>2021-09-07T16:21:19Z</time>
      </trkpt>
      <trkpt lat="44.38492" lon="5.62764">
        <ele>1065.2</ele>
        <time>2021-09-07T16:21:20Z</time>
      </trkpt>
      <trkpt lat="44.38492" lon="5.62764">
        <ele>1065.2</ele>
        <time>2021-09-07T16:21:21Z</time>
      </trkpt>
      <trkpt lat="44.38492" lon="5.62764">
        <ele>1065.2</ele>
        <time>2021-09-07T16:21:22Z</time>
      </trkpt>
      <trkpt lat="44.38492" lon="5.62765">
        <ele>1065.2</ele>
        <time>2021-09-07T16:21:23Z</time>
      </trkpt>
      <trkpt lat="44.38492" lon="5.62768">
        <ele>1065.8</ele>
        <time>2021-09-07T16:21:24Z</time>
      </trkpt>
      <trkpt lat="44.38492" lon="5.6277">
        <ele>1065.8</ele>
        <time>2021-09-07T16:21:25Z</time>
      </trkpt>
      <trkpt lat="44.38492" lon="5.62772">
        <ele>1066.4</ele>
        <time>2021-09-07T16:21:26Z</time>
      </trkpt>
      <trkpt lat="44.38492" lon="5.62773">
        <ele>1066.4</ele>
        <time>2021-09-07T16:21:27Z</time>
      </trkpt>
      <trkpt lat="44.38492" lon="5.62775">
        <ele>1067</ele>
        <time>2021-09-07T16:21:28Z</time>
      </trkpt>
      <trkpt lat="44.38493" lon="5.62776">
        <ele>1067</ele>
        <time>2021-09-07T16:21:29Z</time>
      </trkpt>
      <trkpt lat="44.38493" lon="5.62777">
        <ele>1067</ele>
        <time>2021-09-07T16:21:30Z</time>
      </trkpt>
      <trkpt lat="44.38493" lon="5.62777">
        <ele>1067</ele>
        <time>2021-09-07T16:21:31Z</time>
      </trkpt>
      <trkpt lat="44.38493" lon="5.62778">
        <ele>1067</ele>
        <time>2021-09-07T16:21:32Z</time>
      </trkpt>
      <trkpt lat="44.38493" lon="5.62779">
        <ele>1067</ele>
        <time>2021-09-07T16:21:33Z</time>
      </trkpt>
      <trkpt lat="44.38493" lon="5.62779">
        <ele>1067.6</ele>
        <time>2021-09-07T16:21:34Z</time>
      </trkpt>
      <trkpt lat="44.38493" lon="5.62779">
        <ele>1067.6</ele>
        <time>2021-09-07T16:21:35Z</time>
      </trkpt>
      <trkpt lat="44.38494" lon="5.62779">
        <ele>1067.6</ele>
        <time>2021-09-07T16:21:36Z</time>
      </trkpt>
      <trkpt lat="44.38494" lon="5.62779">
        <ele>1067.6</ele>
        <time>2021-09-07T16:21:37Z</time>
      </trkpt>
      <trkpt lat="44.38494" lon="5.62779">
        <ele>1067.6</ele>
        <time>2021-09-07T16:21:38Z</time>
      </trkpt>
      <trkpt lat="44.38496" lon="5.6278">
        <ele>1067.1</ele>
        <time>2021-09-07T16:21:39Z</time>
      </trkpt>
      <trkpt lat="44.38497" lon="5.62781">
        <ele>1067.1</ele>
        <time>2021-09-07T16:21:40Z</time>
      </trkpt>
      <trkpt lat="44.38497" lon="5.62781">
        <ele>1067.1</ele>
        <time>2021-09-07T16:21:41Z</time>
      </trkpt>
      <trkpt lat="44.38499" lon="5.62782">
        <ele>1066.6</ele>
        <time>2021-09-07T16:21:42Z</time>
      </trkpt>
      <trkpt lat="44.38502" lon="5.62782">
        <ele>1066.1</ele>
        <time>2021-09-07T16:21:43Z</time>
      </trkpt>
      <trkpt lat="44.38504" lon="5.62783">
        <ele>1065.7</ele>
        <time>2021-09-07T16:21:44Z</time>
      </trkpt>
      <trkpt lat="44.38505" lon="5.62783">
        <ele>1065.7</ele>
        <time>2021-09-07T16:21:45Z</time>
      </trkpt>
      <trkpt lat="44.38506" lon="5.62783">
        <ele>1065.7</ele>
        <time>2021-09-07T16:21:46Z</time>
      </trkpt>
      <trkpt lat="44.38506" lon="5.62783">
        <ele>1065.7</ele>
        <time>2021-09-07T16:21:47Z</time>
      </trkpt>
      <trkpt lat="44.38506" lon="5.62783">
        <ele>1065.7</ele>
        <time>2021-09-07T16:21:48Z</time>
      </trkpt>
      <trkpt lat="44.38507" lon="5.62783">
        <ele>1065.2</ele>
        <time>2021-09-07T16:21:49Z</time>
      </trkpt>
      <trkpt lat="44.38507" lon="5.62783">
        <ele>1065.2</ele>
        <time>2021-09-07T16:21:50Z</time>
      </trkpt>
      <trkpt lat="44.38509" lon="5.62782">
        <ele>1065.2</ele>
        <time>2021-09-07T16:21:51Z</time>
      </trkpt>
      <trkpt lat="44.3851" lon="5.62781">
        <ele>1064.8</ele>
        <time>2021-09-07T16:21:52Z</time>
      </trkpt>
      <trkpt lat="44.38511" lon="5.6278">
        <ele>1064.8</ele>
        <time>2021-09-07T16:21:53Z</time>
      </trkpt>
      <trkpt lat="44.38513" lon="5.62779">
        <ele>1064.4</ele>
        <time>2021-09-07T16:21:54Z</time>
      </trkpt>
      <trkpt lat="44.38514" lon="5.62778">
        <ele>1063.7</ele>
        <time>2021-09-07T16:21:55Z</time>
      </trkpt>
      <trkpt lat="44.38515" lon="5.62777">
        <ele>1063.7</ele>
        <time>2021-09-07T16:21:56Z</time>
      </trkpt>
      <trkpt lat="44.38517" lon="5.62776">
        <ele>1063.3</ele>
        <time>2021-09-07T16:21:57Z</time>
      </trkpt>
      <trkpt lat="44.38518" lon="5.62775">
        <ele>1062.6</ele>
        <time>2021-09-07T16:21:58Z</time>
      </trkpt>
      <trkpt lat="44.38519" lon="5.62773">
        <ele>1062.2</ele>
        <time>2021-09-07T16:21:59Z</time>
      </trkpt>
      <trkpt lat="44.38521" lon="5.62772">
        <ele>1062.2</ele>
        <time>2021-09-07T16:22:00Z</time>
      </trkpt>
      <trkpt lat="44.38522" lon="5.6277">
        <ele>1061.2</ele>
        <time>2021-09-07T16:22:01Z</time>
      </trkpt>
      <trkpt lat="44.38523" lon="5.62768">
        <ele>1061.2</ele>
        <time>2021-09-07T16:22:02Z</time>
      </trkpt>
      <trkpt lat="44.38525" lon="5.62766">
        <ele>1060.5</ele>
        <time>2021-09-07T16:22:03Z</time>
      </trkpt>
      <trkpt lat="44.38526" lon="5.62762">
        <ele>1060.1</ele>
        <time>2021-09-07T16:22:04Z</time>
      </trkpt>
      <trkpt lat="44.38527" lon="5.62761">
        <ele>1059.5</ele>
        <time>2021-09-07T16:22:05Z</time>
      </trkpt>
      <trkpt lat="44.38527" lon="5.62759">
        <ele>1059.5</ele>
        <time>2021-09-07T16:22:06Z</time>
      </trkpt>
      <trkpt lat="44.38527" lon="5.62757">
        <ele>1058.8</ele>
        <time>2021-09-07T16:22:07Z</time>
      </trkpt>
      <trkpt lat="44.38527" lon="5.62756">
        <ele>1058.8</ele>
        <time>2021-09-07T16:22:08Z</time>
      </trkpt>
      <trkpt lat="44.38527" lon="5.62754">
        <ele>1058.8</ele>
        <time>2021-09-07T16:22:09Z</time>
      </trkpt>
      <trkpt lat="44.38527" lon="5.62753">
        <ele>1058.2</ele>
        <time>2021-09-07T16:22:10Z</time>
      </trkpt>
      <trkpt lat="44.38527" lon="5.62752">
        <ele>1058.2</ele>
        <time>2021-09-07T16:22:11Z</time>
      </trkpt>
      <trkpt lat="44.38527" lon="5.62751">
        <ele>1058.2</ele>
        <time>2021-09-07T16:22:12Z</time>
      </trkpt>
      <trkpt lat="44.38527" lon="5.6275">
        <ele>1058.2</ele>
        <time>2021-09-07T16:22:13Z</time>
      </trkpt>
      <trkpt lat="44.38528" lon="5.62748">
        <ele>1057.6</ele>
        <time>2021-09-07T16:22:14Z</time>
      </trkpt>
      <trkpt lat="44.38529" lon="5.62746">
        <ele>1057.3</ele>
        <time>2021-09-07T16:22:15Z</time>
      </trkpt>
      <trkpt lat="44.3853" lon="5.62743">
        <ele>1056.7</ele>
        <time>2021-09-07T16:22:16Z</time>
      </trkpt>
      <trkpt lat="44.38531" lon="5.62741">
        <ele>1056.7</ele>
        <time>2021-09-07T16:22:17Z</time>
      </trkpt>
      <trkpt lat="44.38532" lon="5.62739">
        <ele>1055.8</ele>
        <time>2021-09-07T16:22:18Z</time>
      </trkpt>
      <trkpt lat="44.38533" lon="5.62736">
        <ele>1055.2</ele>
        <time>2021-09-07T16:22:19Z</time>
      </trkpt>
      <trkpt lat="44.38534" lon="5.62734">
        <ele>1055.2</ele>
        <time>2021-09-07T16:22:20Z</time>
      </trkpt>
      <trkpt lat="44.38535" lon="5.62731">
        <ele>1054.3</ele>
        <time>2021-09-07T16:22:21Z</time>
      </trkpt>
      <trkpt lat="44.38537" lon="5.62726">
        <ele>1053.6</ele>
        <time>2021-09-07T16:22:22Z</time>
      </trkpt>
      <trkpt lat="44.38538" lon="5.62724">
        <ele>1053.4</ele>
        <time>2021-09-07T16:22:23Z</time>
      </trkpt>
      <trkpt lat="44.38539" lon="5.62721">
        <ele>1052.8</ele>
        <time>2021-09-07T16:22:24Z</time>
      </trkpt>
      <trkpt lat="44.38541" lon="5.62717">
        <ele>1052</ele>
        <time>2021-09-07T16:22:25Z</time>
      </trkpt>
      <trkpt lat="44.38542" lon="5.62715">
        <ele>1052</ele>
        <time>2021-09-07T16:22:26Z</time>
      </trkpt>
      <trkpt lat="44.38543" lon="5.62713">
        <ele>1051.4</ele>
        <time>2021-09-07T16:22:27Z</time>
      </trkpt>
      <trkpt lat="44.38545" lon="5.62711">
        <ele>1051.2</ele>
        <time>2021-09-07T16:22:28Z</time>
      </trkpt>
      <trkpt lat="44.38547" lon="5.62708">
        <ele>1050.5</ele>
        <time>2021-09-07T16:22:29Z</time>
      </trkpt>
      <trkpt lat="44.38549" lon="5.62707">
        <ele>1050.5</ele>
        <time>2021-09-07T16:22:30Z</time>
      </trkpt>
      <trkpt lat="44.3855" lon="5.62705">
        <ele>1049.9</ele>
        <time>2021-09-07T16:22:31Z</time>
      </trkpt>
      <trkpt lat="44.38552" lon="5.62704">
        <ele>1049.9</ele>
        <time>2021-09-07T16:22:32Z</time>
      </trkpt>
      <trkpt lat="44.38555" lon="5.62702">
        <ele>1049.7</ele>
        <time>2021-09-07T16:22:33Z</time>
      </trkpt>
      <trkpt lat="44.38556" lon="5.62701">
        <ele>1049.2</ele>
        <time>2021-09-07T16:22:34Z</time>
      </trkpt>
      <trkpt lat="44.38557" lon="5.627">
        <ele>1049.2</ele>
        <time>2021-09-07T16:22:35Z</time>
      </trkpt>
      <trkpt lat="44.38557" lon="5.62699">
        <ele>1049.2</ele>
        <time>2021-09-07T16:22:36Z</time>
      </trkpt>
      <trkpt lat="44.38558" lon="5.62697">
        <ele>1048.7</ele>
        <time>2021-09-07T16:22:37Z</time>
      </trkpt>
      <trkpt lat="44.38558" lon="5.62696">
        <ele>1048.7</ele>
        <time>2021-09-07T16:22:38Z</time>
      </trkpt>
      <trkpt lat="44.3856" lon="5.62694">
        <ele>1048.6</ele>
        <time>2021-09-07T16:22:39Z</time>
      </trkpt>
      <trkpt lat="44.38561" lon="5.62692">
        <ele>1048.1</ele>
        <time>2021-09-07T16:22:40Z</time>
      </trkpt>
      <trkpt lat="44.38562" lon="5.62691">
        <ele>1048.1</ele>
        <time>2021-09-07T16:22:41Z</time>
      </trkpt>
      <trkpt lat="44.38563" lon="5.62689">
        <ele>1048.1</ele>
        <time>2021-09-07T16:22:42Z</time>
      </trkpt>
      <trkpt lat="44.38563" lon="5.62687">
        <ele>1047.6</ele>
        <time>2021-09-07T16:22:43Z</time>
      </trkpt>
      <trkpt lat="44.38564" lon="5.62685">
        <ele>1047.6</ele>
        <time>2021-09-07T16:22:44Z</time>
      </trkpt>
      <trkpt lat="44.38564" lon="5.62685">
        <ele>1047.6</ele>
        <time>2021-09-07T16:22:45Z</time>
      </trkpt>
      <trkpt lat="44.38564" lon="5.62685">
        <ele>1047.6</ele>
        <time>2021-09-07T16:22:46Z</time>
      </trkpt>
      <trkpt lat="44.38563" lon="5.62685">
        <ele>1047.6</ele>
        <time>2021-09-07T16:22:47Z</time>
      </trkpt>
      <trkpt lat="44.38563" lon="5.62685">
        <ele>1047.6</ele>
        <time>2021-09-07T16:22:48Z</time>
      </trkpt>
      <trkpt lat="44.38563" lon="5.62685">
        <ele>1047.1</ele>
        <time>2021-09-07T16:22:49Z</time>
      </trkpt>
      <trkpt lat="44.38563" lon="5.62684">
        <ele>1047.1</ele>
        <time>2021-09-07T16:22:50Z</time>
      </trkpt>
      <trkpt lat="44.38563" lon="5.62684">
        <ele>1047.1</ele>
        <time>2021-09-07T16:22:51Z</time>
      </trkpt>
      <trkpt lat="44.38563" lon="5.62684">
        <ele>1047.1</ele>
        <time>2021-09-07T16:22:52Z</time>
      </trkpt>
      <trkpt lat="44.38563" lon="5.62684">
        <ele>1047.1</ele>
        <time>2021-09-07T16:22:53Z</time>
      </trkpt>
      <trkpt lat="44.38563" lon="5.62684">
        <ele>1047.1</ele>
        <time>2021-09-07T16:22:54Z</time>
      </trkpt>
      <trkpt lat="44.38563" lon="5.62684">
        <ele>1047.1</ele>
        <time>2021-09-07T16:22:55Z</time>
      </trkpt>
      <trkpt lat="44.38563" lon="5.62684">
        <ele>1047.1</ele>
        <time>2021-09-07T16:22:56Z</time>
      </trkpt>
      <trkpt lat="44.38563" lon="5.62684">
        <ele>1047.1</ele>
        <time>2021-09-07T16:22:57Z</time>
      </trkpt>
      <trkpt lat="44.38564" lon="5.62684">
        <ele>1047.1</ele>
        <time>2021-09-07T16:22:58Z</time>
      </trkpt>
      <trkpt lat="44.38566" lon="5.62684">
        <ele>1047.1</ele>
        <time>2021-09-07T16:22:59Z</time>
      </trkpt>
      <trkpt lat="44.38567" lon="5.62684">
        <ele>1047.1</ele>
        <time>2021-09-07T16:23:00Z</time>
      </trkpt>
      <trkpt lat="44.38569" lon="5.62683">
        <ele>1047.2</ele>
        <time>2021-09-07T16:23:01Z</time>
      </trkpt>
      <trkpt lat="44.38573" lon="5.62683">
        <ele>1047.3</ele>
        <time>2021-09-07T16:23:02Z</time>
      </trkpt>
      <trkpt lat="44.38575" lon="5.62683">
        <ele>1047.5</ele>
        <time>2021-09-07T16:23:03Z</time>
      </trkpt>
      <trkpt lat="44.38576" lon="5.62682">
        <ele>1047.5</ele>
        <time>2021-09-07T16:23:04Z</time>
      </trkpt>
      <trkpt lat="44.38577" lon="5.62682">
        <ele>1047.5</ele>
        <time>2021-09-07T16:23:05Z</time>
      </trkpt>
      <trkpt lat="44.38578" lon="5.62682">
        <ele>1047.7</ele>
        <time>2021-09-07T16:23:06Z</time>
      </trkpt>
      <trkpt lat="44.38582" lon="5.62679">
        <ele>1047.5</ele>
        <time>2021-09-07T16:23:07Z</time>
      </trkpt>
      <trkpt lat="44.38588" lon="5.62676">
        <ele>1048.2</ele>
        <time>2021-09-07T16:23:08Z</time>
      </trkpt>
      <trkpt lat="44.38592" lon="5.62675">
        <ele>1048.3</ele>
        <time>2021-09-07T16:23:09Z</time>
      </trkpt>
      <trkpt lat="44.38595" lon="5.62674">
        <ele>1048.7</ele>
        <time>2021-09-07T16:23:10Z</time>
      </trkpt>
      <trkpt lat="44.38597" lon="5.62673">
        <ele>1049.1</ele>
        <time>2021-09-07T16:23:11Z</time>
      </trkpt>
      <trkpt lat="44.38603" lon="5.62672">
        <ele>1050</ele>
        <time>2021-09-07T16:23:12Z</time>
      </trkpt>
      <trkpt lat="44.38607" lon="5.62672">
        <ele>1050.3</ele>
        <time>2021-09-07T16:23:13Z</time>
      </trkpt>
      <trkpt lat="44.3861" lon="5.62671">
        <ele>1050.9</ele>
        <time>2021-09-07T16:23:14Z</time>
      </trkpt>
      <trkpt lat="44.38614" lon="5.62671">
        <ele>1052.1</ele>
        <time>2021-09-07T16:23:15Z</time>
      </trkpt>
      <trkpt lat="44.38617" lon="5.62671">
        <ele>1052.1</ele>
        <time>2021-09-07T16:23:16Z</time>
      </trkpt>
      <trkpt lat="44.3862" lon="5.6267">
        <ele>1052.7</ele>
        <time>2021-09-07T16:23:17Z</time>
      </trkpt>
      <trkpt lat="44.38623" lon="5.6267">
        <ele>1053.3</ele>
        <time>2021-09-07T16:23:18Z</time>
      </trkpt>
      <trkpt lat="44.38625" lon="5.62669">
        <ele>1053.9</ele>
        <time>2021-09-07T16:23:19Z</time>
      </trkpt>
      <trkpt lat="44.38627" lon="5.6267">
        <ele>1054.5</ele>
        <time>2021-09-07T16:23:20Z</time>
      </trkpt>
      <trkpt lat="44.38628" lon="5.6267">
        <ele>1054.5</ele>
        <time>2021-09-07T16:23:21Z</time>
      </trkpt>
      <trkpt lat="44.3863" lon="5.6267">
        <ele>1055.2</ele>
        <time>2021-09-07T16:23:22Z</time>
      </trkpt>
      <trkpt lat="44.38632" lon="5.62669">
        <ele>1055.2</ele>
        <time>2021-09-07T16:23:23Z</time>
      </trkpt>
      <trkpt lat="44.38634" lon="5.62669">
        <ele>1055.9</ele>
        <time>2021-09-07T16:23:24Z</time>
      </trkpt>
      <trkpt lat="44.38636" lon="5.62668">
        <ele>1056.7</ele>
        <time>2021-09-07T16:23:25Z</time>
      </trkpt>
      <trkpt lat="44.38637" lon="5.62667">
        <ele>1056.5</ele>
        <time>2021-09-07T16:23:26Z</time>
      </trkpt>
      <trkpt lat="44.38641" lon="5.62667">
        <ele>1057.4</ele>
        <time>2021-09-07T16:23:27Z</time>
      </trkpt>
      <trkpt lat="44.38642" lon="5.62667">
        <ele>1058.2</ele>
        <time>2021-09-07T16:23:28Z</time>
      </trkpt>
      <trkpt lat="44.38644" lon="5.62667">
        <ele>1058.2</ele>
        <time>2021-09-07T16:23:29Z</time>
      </trkpt>
      <trkpt lat="44.38645" lon="5.62666">
        <ele>1059.1</ele>
        <time>2021-09-07T16:23:30Z</time>
      </trkpt>
      <trkpt lat="44.38646" lon="5.62666">
        <ele>1059.1</ele>
        <time>2021-09-07T16:23:31Z</time>
      </trkpt>
      <trkpt lat="44.38648" lon="5.62666">
        <ele>1060</ele>
        <time>2021-09-07T16:23:32Z</time>
      </trkpt>
      <trkpt lat="44.3865" lon="5.62666">
        <ele>1060</ele>
        <time>2021-09-07T16:23:33Z</time>
      </trkpt>
      <trkpt lat="44.38651" lon="5.62666">
        <ele>1060.9</ele>
        <time>2021-09-07T16:23:34Z</time>
      </trkpt>
      <trkpt lat="44.38652" lon="5.62666">
        <ele>1060.9</ele>
        <time>2021-09-07T16:23:35Z</time>
      </trkpt>
      <trkpt lat="44.38653" lon="5.62666">
        <ele>1060.9</ele>
        <time>2021-09-07T16:23:36Z</time>
      </trkpt>
      <trkpt lat="44.38655" lon="5.62665">
        <ele>1061.7</ele>
        <time>2021-09-07T16:23:37Z</time>
      </trkpt>
      <trkpt lat="44.38656" lon="5.62665">
        <ele>1061.7</ele>
        <time>2021-09-07T16:23:38Z</time>
      </trkpt>
      <trkpt lat="44.38658" lon="5.62663">
        <ele>1062.7</ele>
        <time>2021-09-07T16:23:39Z</time>
      </trkpt>
      <trkpt lat="44.38659" lon="5.62663">
        <ele>1062.7</ele>
        <time>2021-09-07T16:23:40Z</time>
      </trkpt>
      <trkpt lat="44.38659" lon="5.62662">
        <ele>1062.7</ele>
        <time>2021-09-07T16:23:41Z</time>
      </trkpt>
      <trkpt lat="44.3866" lon="5.6266">
        <ele>1063.7</ele>
        <time>2021-09-07T16:23:42Z</time>
      </trkpt>
      <trkpt lat="44.38661" lon="5.62658">
        <ele>1063.8</ele>
        <time>2021-09-07T16:23:43Z</time>
      </trkpt>
      <trkpt lat="44.38662" lon="5.62658">
        <ele>1063.8</ele>
        <time>2021-09-07T16:23:44Z</time>
      </trkpt>
      <trkpt lat="44.38662" lon="5.62657">
        <ele>1063.8</ele>
        <time>2021-09-07T16:23:45Z</time>
      </trkpt>
      <trkpt lat="44.38663" lon="5.62658">
        <ele>1063.8</ele>
        <time>2021-09-07T16:23:46Z</time>
      </trkpt>
      <trkpt lat="44.38663" lon="5.62658">
        <ele>1063.8</ele>
        <time>2021-09-07T16:23:47Z</time>
      </trkpt>
      <trkpt lat="44.38663" lon="5.62657">
        <ele>1063.8</ele>
        <time>2021-09-07T16:23:48Z</time>
      </trkpt>
      <trkpt lat="44.38663" lon="5.62658">
        <ele>1063.8</ele>
        <time>2021-09-07T16:23:49Z</time>
      </trkpt>
      <trkpt lat="44.38663" lon="5.62658">
        <ele>1063.8</ele>
        <time>2021-09-07T16:23:50Z</time>
      </trkpt>
      <trkpt lat="44.38664" lon="5.62657">
        <ele>1064.8</ele>
        <time>2021-09-07T16:23:51Z</time>
      </trkpt>
      <trkpt lat="44.38664" lon="5.62656">
        <ele>1064.8</ele>
        <time>2021-09-07T16:23:52Z</time>
      </trkpt>
      <trkpt lat="44.38664" lon="5.62655">
        <ele>1064.8</ele>
        <time>2021-09-07T16:23:53Z</time>
      </trkpt>
      <trkpt lat="44.38665" lon="5.62654">
        <ele>1065</ele>
        <time>2021-09-07T16:23:54Z</time>
      </trkpt>
      <trkpt lat="44.38665" lon="5.62653">
        <ele>1065</ele>
        <time>2021-09-07T16:23:55Z</time>
      </trkpt>
      <trkpt lat="44.38665" lon="5.62652">
        <ele>1065</ele>
        <time>2021-09-07T16:23:56Z</time>
      </trkpt>
      <trkpt lat="44.38666" lon="5.62651">
        <ele>1065</ele>
        <time>2021-09-07T16:23:57Z</time>
      </trkpt>
      <trkpt lat="44.38666" lon="5.6265">
        <ele>1065.2</ele>
        <time>2021-09-07T16:23:58Z</time>
      </trkpt>
      <trkpt lat="44.38666" lon="5.62649">
        <ele>1065.2</ele>
        <time>2021-09-07T16:23:59Z</time>
      </trkpt>
      <trkpt lat="44.38666" lon="5.62646">
        <ele>1065.2</ele>
        <time>2021-09-07T16:24:00Z</time>
      </trkpt>
      <trkpt lat="44.38666" lon="5.62643">
        <ele>1065.4</ele>
        <time>2021-09-07T16:24:01Z</time>
      </trkpt>
      <trkpt lat="44.38665" lon="5.6264">
        <ele>1065.7</ele>
        <time>2021-09-07T16:24:02Z</time>
      </trkpt>
      <trkpt lat="44.38664" lon="5.62637">
        <ele>1066.1</ele>
        <time>2021-09-07T16:24:03Z</time>
      </trkpt>
      <trkpt lat="44.38664" lon="5.62634">
        <ele>1066.1</ele>
        <time>2021-09-07T16:24:04Z</time>
      </trkpt>
      <trkpt lat="44.38663" lon="5.62632">
        <ele>1065.5</ele>
        <time>2021-09-07T16:24:05Z</time>
      </trkpt>
      <trkpt lat="44.38663" lon="5.62631">
        <ele>1065.5</ele>
        <time>2021-09-07T16:24:06Z</time>
      </trkpt>
      <trkpt lat="44.38662" lon="5.62629">
        <ele>1065.5</ele>
        <time>2021-09-07T16:24:07Z</time>
      </trkpt>
      <trkpt lat="44.38661" lon="5.62628">
        <ele>1065.9</ele>
        <time>2021-09-07T16:24:08Z</time>
      </trkpt>
      <trkpt lat="44.38661" lon="5.62627">
        <ele>1065.9</ele>
        <time>2021-09-07T16:24:09Z</time>
      </trkpt>
      <trkpt lat="44.38661" lon="5.62627">
        <ele>1065.9</ele>
        <time>2021-09-07T16:24:10Z</time>
      </trkpt>
      <trkpt lat="44.38661" lon="5.62627">
        <ele>1065.9</ele>
        <time>2021-09-07T16:24:11Z</time>
      </trkpt>
      <trkpt lat="44.38661" lon="5.62626">
        <ele>1065.9</ele>
        <time>2021-09-07T16:24:12Z</time>
      </trkpt>
      <trkpt lat="44.38661" lon="5.62626">
        <ele>1065.9</ele>
        <time>2021-09-07T16:24:13Z</time>
      </trkpt>
      <trkpt lat="44.38661" lon="5.62626">
        <ele>1065.9</ele>
        <time>2021-09-07T16:24:14Z</time>
      </trkpt>
      <trkpt lat="44.3866" lon="5.62625">
        <ele>1065.9</ele>
        <time>2021-09-07T16:24:15Z</time>
      </trkpt>
      <trkpt lat="44.3866" lon="5.62625">
        <ele>1065.9</ele>
        <time>2021-09-07T16:24:16Z</time>
      </trkpt>
      <trkpt lat="44.38659" lon="5.62625">
        <ele>1065.9</ele>
        <time>2021-09-07T16:24:17Z</time>
      </trkpt>
      <trkpt lat="44.38658" lon="5.62624">
        <ele>1065.8</ele>
        <time>2021-09-07T16:24:18Z</time>
      </trkpt>
      <trkpt lat="44.38658" lon="5.62624">
        <ele>1065.8</ele>
        <time>2021-09-07T16:24:19Z</time>
      </trkpt>
      <trkpt lat="44.38656" lon="5.62622">
        <ele>1065.6</ele>
        <time>2021-09-07T16:24:20Z</time>
      </trkpt>
      <trkpt lat="44.38655" lon="5.6262">
        <ele>1065.5</ele>
        <time>2021-09-07T16:24:21Z</time>
      </trkpt>
      <trkpt lat="44.38653" lon="5.62618">
        <ele>1065.4</ele>
        <time>2021-09-07T16:24:22Z</time>
      </trkpt>
      <trkpt lat="44.38651" lon="5.62615">
        <ele>1065.3</ele>
        <time>2021-09-07T16:24:23Z</time>
      </trkpt>
      <trkpt lat="44.3865" lon="5.62614">
        <ele>1065.2</ele>
        <time>2021-09-07T16:24:24Z</time>
      </trkpt>
      <trkpt lat="44.38649" lon="5.62612">
        <ele>1065.1</ele>
        <time>2021-09-07T16:24:25Z</time>
      </trkpt>
      <trkpt lat="44.38647" lon="5.62609">
        <ele>1064.9</ele>
        <time>2021-09-07T16:24:26Z</time>
      </trkpt>
      <trkpt lat="44.38646" lon="5.62607">
        <ele>1064.8</ele>
        <time>2021-09-07T16:24:27Z</time>
      </trkpt>
      <trkpt lat="44.38644" lon="5.62605">
        <ele>1064.7</ele>
        <time>2021-09-07T16:24:28Z</time>
      </trkpt>
      <trkpt lat="44.38643" lon="5.62604">
        <ele>1064.6</ele>
        <time>2021-09-07T16:24:29Z</time>
      </trkpt>
      <trkpt lat="44.38642" lon="5.62602">
        <ele>1064.5</ele>
        <time>2021-09-07T16:24:30Z</time>
      </trkpt>
      <trkpt lat="44.38641" lon="5.62601">
        <ele>1064.5</ele>
        <time>2021-09-07T16:24:31Z</time>
      </trkpt>
      <trkpt lat="44.3864" lon="5.62599">
        <ele>1064.4</ele>
        <time>2021-09-07T16:24:32Z</time>
      </trkpt>
      <trkpt lat="44.3864" lon="5.62598">
        <ele>1064.3</ele>
        <time>2021-09-07T16:24:33Z</time>
      </trkpt>
      <trkpt lat="44.38639" lon="5.62597">
        <ele>1064.2</ele>
        <time>2021-09-07T16:24:34Z</time>
      </trkpt>
      <trkpt lat="44.38639" lon="5.62596">
        <ele>1064.2</ele>
        <time>2021-09-07T16:24:35Z</time>
      </trkpt>
      <trkpt lat="44.38638" lon="5.62595">
        <ele>1064.1</ele>
        <time>2021-09-07T16:24:36Z</time>
      </trkpt>
      <trkpt lat="44.38637" lon="5.62593">
        <ele>1064.1</ele>
        <time>2021-09-07T16:24:37Z</time>
      </trkpt>
      <trkpt lat="44.38636" lon="5.62591">
        <ele>1064</ele>
        <time>2021-09-07T16:24:38Z</time>
      </trkpt>
      <trkpt lat="44.38635" lon="5.62589">
        <ele>1063.9</ele>
        <time>2021-09-07T16:24:39Z</time>
      </trkpt>
      <trkpt lat="44.38634" lon="5.62587">
        <ele>1063.8</ele>
        <time>2021-09-07T16:24:40Z</time>
      </trkpt>
      <trkpt lat="44.38632" lon="5.62584">
        <ele>1063.6</ele>
        <time>2021-09-07T16:24:41Z</time>
      </trkpt>
      <trkpt lat="44.38631" lon="5.62582">
        <ele>1063.5</ele>
        <time>2021-09-07T16:24:42Z</time>
      </trkpt>
      <trkpt lat="44.3863" lon="5.62581">
        <ele>1063.4</ele>
        <time>2021-09-07T16:24:43Z</time>
      </trkpt>
      <trkpt lat="44.38628" lon="5.62579">
        <ele>1063.3</ele>
        <time>2021-09-07T16:24:44Z</time>
      </trkpt>
      <trkpt lat="44.38627" lon="5.62578">
        <ele>1063.2</ele>
        <time>2021-09-07T16:24:45Z</time>
      </trkpt>
      <trkpt lat="44.38625" lon="5.62575">
        <ele>1063.1</ele>
        <time>2021-09-07T16:24:46Z</time>
      </trkpt>
      <trkpt lat="44.38625" lon="5.62575">
        <ele>1063</ele>
        <time>2021-09-07T16:24:47Z</time>
      </trkpt>
      <trkpt lat="44.38624" lon="5.62574">
        <ele>1063</ele>
        <time>2021-09-07T16:24:48Z</time>
      </trkpt>
      <trkpt lat="44.38623" lon="5.62572">
        <ele>1062.9</ele>
        <time>2021-09-07T16:24:49Z</time>
      </trkpt>
      <trkpt lat="44.38622" lon="5.6257">
        <ele>1062.8</ele>
        <time>2021-09-07T16:24:50Z</time>
      </trkpt>
      <trkpt lat="44.38621" lon="5.62569">
        <ele>1062.7</ele>
        <time>2021-09-07T16:24:51Z</time>
      </trkpt>
      <trkpt lat="44.38619" lon="5.62568">
        <ele>1062.6</ele>
        <time>2021-09-07T16:24:52Z</time>
      </trkpt>
      <trkpt lat="44.38618" lon="5.62567">
        <ele>1062.5</ele>
        <time>2021-09-07T16:24:53Z</time>
      </trkpt>
      <trkpt lat="44.38617" lon="5.62566">
        <ele>1062.5</ele>
        <time>2021-09-07T16:24:54Z</time>
      </trkpt>
      <trkpt lat="44.38616" lon="5.62565">
        <ele>1062.4</ele>
        <time>2021-09-07T16:24:55Z</time>
      </trkpt>
      <trkpt lat="44.38615" lon="5.62564">
        <ele>1062.3</ele>
        <time>2021-09-07T16:24:56Z</time>
      </trkpt>
      <trkpt lat="44.38615" lon="5.62564">
        <ele>1062.3</ele>
        <time>2021-09-07T16:24:57Z</time>
      </trkpt>
      <trkpt lat="44.38614" lon="5.62563">
        <ele>1062.3</ele>
        <time>2021-09-07T16:24:58Z</time>
      </trkpt>
      <trkpt lat="44.38611" lon="5.62562">
        <ele>1062.1</ele>
        <time>2021-09-07T16:24:59Z</time>
      </trkpt>
      <trkpt lat="44.3861" lon="5.62562">
        <ele>1062</ele>
        <time>2021-09-07T16:25:00Z</time>
      </trkpt>
      <trkpt lat="44.38608" lon="5.6256">
        <ele>1061.9</ele>
        <time>2021-09-07T16:25:01Z</time>
      </trkpt>
      <trkpt lat="44.38607" lon="5.62559">
        <ele>1061.8</ele>
        <time>2021-09-07T16:25:02Z</time>
      </trkpt>
      <trkpt lat="44.38605" lon="5.62558">
        <ele>1061.7</ele>
        <time>2021-09-07T16:25:03Z</time>
      </trkpt>
      <trkpt lat="44.38604" lon="5.62557">
        <ele>1061.6</ele>
        <time>2021-09-07T16:25:04Z</time>
      </trkpt>
      <trkpt lat="44.38603" lon="5.62556">
        <ele>1061.6</ele>
        <time>2021-09-07T16:25:05Z</time>
      </trkpt>
      <trkpt lat="44.38602" lon="5.62555">
        <ele>1061.5</ele>
        <time>2021-09-07T16:25:06Z</time>
      </trkpt>
      <trkpt lat="44.38601" lon="5.62554">
        <ele>1061.4</ele>
        <time>2021-09-07T16:25:07Z</time>
      </trkpt>
      <trkpt lat="44.386" lon="5.62552">
        <ele>1061.3</ele>
        <time>2021-09-07T16:25:08Z</time>
      </trkpt>
      <trkpt lat="44.38599" lon="5.62551">
        <ele>1061.3</ele>
        <time>2021-09-07T16:25:09Z</time>
      </trkpt>
      <trkpt lat="44.38598" lon="5.62549">
        <ele>1061.2</ele>
        <time>2021-09-07T16:25:10Z</time>
      </trkpt>
      <trkpt lat="44.38596" lon="5.62547">
        <ele>1061</ele>
        <time>2021-09-07T16:25:11Z</time>
      </trkpt>
      <trkpt lat="44.38595" lon="5.62545">
        <ele>1060.9</ele>
        <time>2021-09-07T16:25:12Z</time>
      </trkpt>
      <trkpt lat="44.38594" lon="5.62544">
        <ele>1060.9</ele>
        <time>2021-09-07T16:25:13Z</time>
      </trkpt>
      <trkpt lat="44.38593" lon="5.62543">
        <ele>1060.8</ele>
        <time>2021-09-07T16:25:14Z</time>
      </trkpt>
      <trkpt lat="44.38592" lon="5.62542">
        <ele>1060.7</ele>
        <time>2021-09-07T16:25:15Z</time>
      </trkpt>
      <trkpt lat="44.3859" lon="5.6254">
        <ele>1060.6</ele>
        <time>2021-09-07T16:25:16Z</time>
      </trkpt>
      <trkpt lat="44.38589" lon="5.62538">
        <ele>1060.5</ele>
        <time>2021-09-07T16:25:17Z</time>
      </trkpt>
      <trkpt lat="44.38588" lon="5.62537">
        <ele>1060.4</ele>
        <time>2021-09-07T16:25:18Z</time>
      </trkpt>
      <trkpt lat="44.38587" lon="5.62536">
        <ele>1060.3</ele>
        <time>2021-09-07T16:25:19Z</time>
      </trkpt>
      <trkpt lat="44.38586" lon="5.62534">
        <ele>1060.3</ele>
        <time>2021-09-07T16:25:20Z</time>
      </trkpt>
      <trkpt lat="44.38585" lon="5.62532">
        <ele>1060.2</ele>
        <time>2021-09-07T16:25:21Z</time>
      </trkpt>
      <trkpt lat="44.38584" lon="5.62529">
        <ele>1060</ele>
        <time>2021-09-07T16:25:22Z</time>
      </trkpt>
      <trkpt lat="44.38583" lon="5.62526">
        <ele>1059.9</ele>
        <time>2021-09-07T16:25:23Z</time>
      </trkpt>
      <trkpt lat="44.38583" lon="5.62525">
        <ele>1059.9</ele>
        <time>2021-09-07T16:25:24Z</time>
      </trkpt>
      <trkpt lat="44.38582" lon="5.62522">
        <ele>1059.7</ele>
        <time>2021-09-07T16:25:25Z</time>
      </trkpt>
      <trkpt lat="44.38582" lon="5.62521">
        <ele>1059.7</ele>
        <time>2021-09-07T16:25:26Z</time>
      </trkpt>
      <trkpt lat="44.38581" lon="5.6252">
        <ele>1059.6</ele>
        <time>2021-09-07T16:25:27Z</time>
      </trkpt>
      <trkpt lat="44.3858" lon="5.62518">
        <ele>1059.5</ele>
        <time>2021-09-07T16:25:28Z</time>
      </trkpt>
      <trkpt lat="44.38578" lon="5.62517">
        <ele>1059.4</ele>
        <time>2021-09-07T16:25:29Z</time>
      </trkpt>
      <trkpt lat="44.38577" lon="5.62515">
        <ele>1059.3</ele>
        <time>2021-09-07T16:25:30Z</time>
      </trkpt>
      <trkpt lat="44.38576" lon="5.62512">
        <ele>1059.2</ele>
        <time>2021-09-07T16:25:31Z</time>
      </trkpt>
      <trkpt lat="44.38575" lon="5.6251">
        <ele>1059.1</ele>
        <time>2021-09-07T16:25:32Z</time>
      </trkpt>
      <trkpt lat="44.38574" lon="5.62508">
        <ele>1059</ele>
        <time>2021-09-07T16:25:33Z</time>
      </trkpt>
      <trkpt lat="44.38573" lon="5.62506">
        <ele>1058.9</ele>
        <time>2021-09-07T16:25:34Z</time>
      </trkpt>
      <trkpt lat="44.38572" lon="5.62505">
        <ele>1058.8</ele>
        <time>2021-09-07T16:25:35Z</time>
      </trkpt>
      <trkpt lat="44.3857" lon="5.62502">
        <ele>1058.7</ele>
        <time>2021-09-07T16:25:36Z</time>
      </trkpt>
      <trkpt lat="44.38569" lon="5.625">
        <ele>1058.6</ele>
        <time>2021-09-07T16:25:37Z</time>
      </trkpt>
      <trkpt lat="44.38568" lon="5.62498">
        <ele>1058.5</ele>
        <time>2021-09-07T16:25:38Z</time>
      </trkpt>
      <trkpt lat="44.38567" lon="5.62496">
        <ele>1058.4</ele>
        <time>2021-09-07T16:25:39Z</time>
      </trkpt>
      <trkpt lat="44.38566" lon="5.62495">
        <ele>1058.3</ele>
        <time>2021-09-07T16:25:40Z</time>
      </trkpt>
      <trkpt lat="44.38565" lon="5.62493">
        <ele>1058.2</ele>
        <time>2021-09-07T16:25:41Z</time>
      </trkpt>
      <trkpt lat="44.38564" lon="5.6249">
        <ele>1058.1</ele>
        <time>2021-09-07T16:25:42Z</time>
      </trkpt>
      <trkpt lat="44.38563" lon="5.62489">
        <ele>1058</ele>
        <time>2021-09-07T16:25:43Z</time>
      </trkpt>
      <trkpt lat="44.38562" lon="5.62488">
        <ele>1057.9</ele>
        <time>2021-09-07T16:25:44Z</time>
      </trkpt>
      <trkpt lat="44.38562" lon="5.62487">
        <ele>1057.9</ele>
        <time>2021-09-07T16:25:45Z</time>
      </trkpt>
      <trkpt lat="44.38561" lon="5.62485">
        <ele>1057.8</ele>
        <time>2021-09-07T16:25:46Z</time>
      </trkpt>
      <trkpt lat="44.3856" lon="5.62484">
        <ele>1057.7</ele>
        <time>2021-09-07T16:25:47Z</time>
      </trkpt>
      <trkpt lat="44.38558" lon="5.62481">
        <ele>1057.6</ele>
        <time>2021-09-07T16:25:48Z</time>
      </trkpt>
      <trkpt lat="44.38557" lon="5.62481">
        <ele>1057.5</ele>
        <time>2021-09-07T16:25:49Z</time>
      </trkpt>
      <trkpt lat="44.38556" lon="5.62479">
        <ele>1057.4</ele>
        <time>2021-09-07T16:25:50Z</time>
      </trkpt>
      <trkpt lat="44.38555" lon="5.62478">
        <ele>1057.3</ele>
        <time>2021-09-07T16:25:51Z</time>
      </trkpt>
      <trkpt lat="44.38554" lon="5.62476">
        <ele>1057.2</ele>
        <time>2021-09-07T16:25:52Z</time>
      </trkpt>
      <trkpt lat="44.38553" lon="5.62475">
        <ele>1057.2</ele>
        <time>2021-09-07T16:25:53Z</time>
      </trkpt>
      <trkpt lat="44.38551" lon="5.62473">
        <ele>1057</ele>
        <time>2021-09-07T16:25:54Z</time>
      </trkpt>
      <trkpt lat="44.38551" lon="5.62473">
        <ele>1057</ele>
        <time>2021-09-07T16:25:55Z</time>
      </trkpt>
      <trkpt lat="44.3855" lon="5.62472">
        <ele>1057</ele>
        <time>2021-09-07T16:25:56Z</time>
      </trkpt>
      <trkpt lat="44.38548" lon="5.62471">
        <ele>1056.9</ele>
        <time>2021-09-07T16:25:57Z</time>
      </trkpt>
      <trkpt lat="44.38547" lon="5.62469">
        <ele>1056.8</ele>
        <time>2021-09-07T16:25:58Z</time>
      </trkpt>
      <trkpt lat="44.38545" lon="5.62468">
        <ele>1056.6</ele>
        <time>2021-09-07T16:25:59Z</time>
      </trkpt>
      <trkpt lat="44.38544" lon="5.62466">
        <ele>1056.5</ele>
        <time>2021-09-07T16:26:00Z</time>
      </trkpt>
      <trkpt lat="44.38543" lon="5.62465">
        <ele>1056.5</ele>
        <time>2021-09-07T16:26:01Z</time>
      </trkpt>
      <trkpt lat="44.38541" lon="5.62464">
        <ele>1056.4</ele>
        <time>2021-09-07T16:26:02Z</time>
      </trkpt>
      <trkpt lat="44.3854" lon="5.62463">
        <ele>1056.3</ele>
        <time>2021-09-07T16:26:03Z</time>
      </trkpt>
      <trkpt lat="44.38539" lon="5.62463">
        <ele>1056.2</ele>
        <time>2021-09-07T16:26:04Z</time>
      </trkpt>
      <trkpt lat="44.38538" lon="5.62462">
        <ele>1056.2</ele>
        <time>2021-09-07T16:26:05Z</time>
      </trkpt>
      <trkpt lat="44.38537" lon="5.62461">
        <ele>1056.1</ele>
        <time>2021-09-07T16:26:06Z</time>
      </trkpt>
      <trkpt lat="44.38535" lon="5.62459">
        <ele>1056</ele>
        <time>2021-09-07T16:26:07Z</time>
      </trkpt>
      <trkpt lat="44.38534" lon="5.62457">
        <ele>1055.9</ele>
        <time>2021-09-07T16:26:08Z</time>
      </trkpt>
      <trkpt lat="44.38533" lon="5.62456">
        <ele>1055.8</ele>
        <time>2021-09-07T16:26:09Z</time>
      </trkpt>
      <trkpt lat="44.38532" lon="5.62453">
        <ele>1055.7</ele>
        <time>2021-09-07T16:26:10Z</time>
      </trkpt>
      <trkpt lat="44.38531" lon="5.62452">
        <ele>1055.6</ele>
        <time>2021-09-07T16:26:11Z</time>
      </trkpt>
      <trkpt lat="44.38531" lon="5.62451">
        <ele>1055.5</ele>
        <time>2021-09-07T16:26:12Z</time>
      </trkpt>
      <trkpt lat="44.3853" lon="5.62449">
        <ele>1055.5</ele>
        <time>2021-09-07T16:26:13Z</time>
      </trkpt>
      <trkpt lat="44.38529" lon="5.62447">
        <ele>1055.4</ele>
        <time>2021-09-07T16:26:14Z</time>
      </trkpt>
      <trkpt lat="44.38528" lon="5.62445">
        <ele>1055.3</ele>
        <time>2021-09-07T16:26:15Z</time>
      </trkpt>
      <trkpt lat="44.38528" lon="5.62444">
        <ele>1055.2</ele>
        <time>2021-09-07T16:26:16Z</time>
      </trkpt>
      <trkpt lat="44.38528" lon="5.62443">
        <ele>1055.2</ele>
        <time>2021-09-07T16:26:17Z</time>
      </trkpt>
      <trkpt lat="44.38527" lon="5.62441">
        <ele>1055.1</ele>
        <time>2021-09-07T16:26:18Z</time>
      </trkpt>
      <trkpt lat="44.38526" lon="5.62438">
        <ele>1055</ele>
        <time>2021-09-07T16:26:19Z</time>
      </trkpt>
      <trkpt lat="44.38526" lon="5.62437">
        <ele>1054.9</ele>
        <time>2021-09-07T16:26:20Z</time>
      </trkpt>
      <trkpt lat="44.38525" lon="5.62435">
        <ele>1054.8</ele>
        <time>2021-09-07T16:26:21Z</time>
      </trkpt>
      <trkpt lat="44.38523" lon="5.62433">
        <ele>1054.7</ele>
        <time>2021-09-07T16:26:22Z</time>
      </trkpt>
      <trkpt lat="44.38523" lon="5.62432">
        <ele>1054.6</ele>
        <time>2021-09-07T16:26:23Z</time>
      </trkpt>
      <trkpt lat="44.38522" lon="5.62431">
        <ele>1054.6</ele>
        <time>2021-09-07T16:26:24Z</time>
      </trkpt>
      <trkpt lat="44.3852" lon="5.62428">
        <ele>1054.4</ele>
        <time>2021-09-07T16:26:25Z</time>
      </trkpt>
      <trkpt lat="44.38519" lon="5.62426">
        <ele>1054.3</ele>
        <time>2021-09-07T16:26:26Z</time>
      </trkpt>
      <trkpt lat="44.38518" lon="5.62425">
        <ele>1054.3</ele>
        <time>2021-09-07T16:26:27Z</time>
      </trkpt>
      <trkpt lat="44.38517" lon="5.62423">
        <ele>1054.2</ele>
        <time>2021-09-07T16:26:28Z</time>
      </trkpt>
      <trkpt lat="44.38516" lon="5.62422">
        <ele>1054.1</ele>
        <time>2021-09-07T16:26:29Z</time>
      </trkpt>
      <trkpt lat="44.38515" lon="5.6242">
        <ele>1054</ele>
        <time>2021-09-07T16:26:30Z</time>
      </trkpt>
      <trkpt lat="44.38513" lon="5.62418">
        <ele>1053.9</ele>
        <time>2021-09-07T16:26:31Z</time>
      </trkpt>
      <trkpt lat="44.38512" lon="5.62417">
        <ele>1053.8</ele>
        <time>2021-09-07T16:26:32Z</time>
      </trkpt>
      <trkpt lat="44.38511" lon="5.62415">
        <ele>1053.7</ele>
        <time>2021-09-07T16:26:33Z</time>
      </trkpt>
      <trkpt lat="44.38509" lon="5.62414">
        <ele>1053.6</ele>
        <time>2021-09-07T16:26:34Z</time>
      </trkpt>
      <trkpt lat="44.38507" lon="5.62411">
        <ele>1053.4</ele>
        <time>2021-09-07T16:26:35Z</time>
      </trkpt>
      <trkpt lat="44.38506" lon="5.6241">
        <ele>1053.3</ele>
        <time>2021-09-07T16:26:36Z</time>
      </trkpt>
      <trkpt lat="44.38505" lon="5.62408">
        <ele>1053.2</ele>
        <time>2021-09-07T16:26:37Z</time>
      </trkpt>
      <trkpt lat="44.38504" lon="5.62407">
        <ele>1053.2</ele>
        <time>2021-09-07T16:26:38Z</time>
      </trkpt>
      <trkpt lat="44.38503" lon="5.62406">
        <ele>1053.1</ele>
        <time>2021-09-07T16:26:39Z</time>
      </trkpt>
      <trkpt lat="44.38502" lon="5.62404">
        <ele>1053</ele>
        <time>2021-09-07T16:26:40Z</time>
      </trkpt>
      <trkpt lat="44.38501" lon="5.62402">
        <ele>1052.9</ele>
        <time>2021-09-07T16:26:41Z</time>
      </trkpt>
      <trkpt lat="44.385" lon="5.624">
        <ele>1052.8</ele>
        <time>2021-09-07T16:26:42Z</time>
      </trkpt>
      <trkpt lat="44.38499" lon="5.62399">
        <ele>1052.7</ele>
        <time>2021-09-07T16:26:43Z</time>
      </trkpt>
      <trkpt lat="44.38498" lon="5.62398">
        <ele>1052.7</ele>
        <time>2021-09-07T16:26:44Z</time>
      </trkpt>
      <trkpt lat="44.38497" lon="5.62396">
        <ele>1052.6</ele>
        <time>2021-09-07T16:26:45Z</time>
      </trkpt>
      <trkpt lat="44.38496" lon="5.62395">
        <ele>1052.5</ele>
        <time>2021-09-07T16:26:46Z</time>
      </trkpt>
      <trkpt lat="44.38495" lon="5.62392">
        <ele>1052.4</ele>
        <time>2021-09-07T16:26:47Z</time>
      </trkpt>
      <trkpt lat="44.38493" lon="5.62391">
        <ele>1052.3</ele>
        <time>2021-09-07T16:26:48Z</time>
      </trkpt>
      <trkpt lat="44.38493" lon="5.6239">
        <ele>1052.2</ele>
        <time>2021-09-07T16:26:49Z</time>
      </trkpt>
      <trkpt lat="44.38492" lon="5.62388">
        <ele>1052.1</ele>
        <time>2021-09-07T16:26:50Z</time>
      </trkpt>
      <trkpt lat="44.38491" lon="5.62387">
        <ele>1052.1</ele>
        <time>2021-09-07T16:26:51Z</time>
      </trkpt>
      <trkpt lat="44.38489" lon="5.62385">
        <ele>1051.9</ele>
        <time>2021-09-07T16:26:52Z</time>
      </trkpt>
      <trkpt lat="44.38488" lon="5.62384">
        <ele>1051.8</ele>
        <time>2021-09-07T16:26:53Z</time>
      </trkpt>
      <trkpt lat="44.38487" lon="5.62383">
        <ele>1051.8</ele>
        <time>2021-09-07T16:26:54Z</time>
      </trkpt>
      <trkpt lat="44.38485" lon="5.62382">
        <ele>1051.7</ele>
        <time>2021-09-07T16:26:55Z</time>
      </trkpt>
      <trkpt lat="44.38482" lon="5.62381">
        <ele>1051.5</ele>
        <time>2021-09-07T16:26:56Z</time>
      </trkpt>
      <trkpt lat="44.3848" lon="5.62379">
        <ele>1051.4</ele>
        <time>2021-09-07T16:26:57Z</time>
      </trkpt>
      <trkpt lat="44.38477" lon="5.62378">
        <ele>1051.2</ele>
        <time>2021-09-07T16:26:58Z</time>
      </trkpt>
      <trkpt lat="44.38476" lon="5.62377">
        <ele>1051.1</ele>
        <time>2021-09-07T16:26:59Z</time>
      </trkpt>
      <trkpt lat="44.38476" lon="5.62376">
        <ele>1051.1</ele>
        <time>2021-09-07T16:27:00Z</time>
      </trkpt>
      <trkpt lat="44.38475" lon="5.62375">
        <ele>1051</ele>
        <time>2021-09-07T16:27:01Z</time>
      </trkpt>
      <trkpt lat="44.38474" lon="5.62374">
        <ele>1050.9</ele>
        <time>2021-09-07T16:27:02Z</time>
      </trkpt>
      <trkpt lat="44.38473" lon="5.62373">
        <ele>1050.9</ele>
        <time>2021-09-07T16:27:03Z</time>
      </trkpt>
      <trkpt lat="44.38471" lon="5.62372">
        <ele>1050.7</ele>
        <time>2021-09-07T16:27:04Z</time>
      </trkpt>
      <trkpt lat="44.3847" lon="5.6237">
        <ele>1050.6</ele>
        <time>2021-09-07T16:27:05Z</time>
      </trkpt>
      <trkpt lat="44.38468" lon="5.62368">
        <ele>1050.5</ele>
        <time>2021-09-07T16:27:06Z</time>
      </trkpt>
      <trkpt lat="44.38466" lon="5.62366">
        <ele>1050.4</ele>
        <time>2021-09-07T16:27:07Z</time>
      </trkpt>
      <trkpt lat="44.38464" lon="5.62364">
        <ele>1050.2</ele>
        <time>2021-09-07T16:27:08Z</time>
      </trkpt>
      <trkpt lat="44.38463" lon="5.62362">
        <ele>1050.1</ele>
        <time>2021-09-07T16:27:09Z</time>
      </trkpt>
      <trkpt lat="44.38462" lon="5.6236">
        <ele>1050</ele>
        <time>2021-09-07T16:27:10Z</time>
      </trkpt>
      <trkpt lat="44.38461" lon="5.62358">
        <ele>1049.9</ele>
        <time>2021-09-07T16:27:11Z</time>
      </trkpt>
      <trkpt lat="44.3846" lon="5.62357">
        <ele>1049.9</ele>
        <time>2021-09-07T16:27:12Z</time>
      </trkpt>
      <trkpt lat="44.38459" lon="5.62356">
        <ele>1049.8</ele>
        <time>2021-09-07T16:27:13Z</time>
      </trkpt>
      <trkpt lat="44.38457" lon="5.62355">
        <ele>1049.7</ele>
        <time>2021-09-07T16:27:14Z</time>
      </trkpt>
      <trkpt lat="44.38457" lon="5.62355">
        <ele>1049.7</ele>
        <time>2021-09-07T16:27:15Z</time>
      </trkpt>
      <trkpt lat="44.38457" lon="5.62355">
        <ele>1049.7</ele>
        <time>2021-09-07T16:27:16Z</time>
      </trkpt>
      <trkpt lat="44.38456" lon="5.62354">
        <ele>1049.6</ele>
        <time>2021-09-07T16:27:17Z</time>
      </trkpt>
      <trkpt lat="44.38456" lon="5.62354">
        <ele>1049.6</ele>
        <time>2021-09-07T16:27:18Z</time>
      </trkpt>
      <trkpt lat="44.38455" lon="5.62353">
        <ele>1049.6</ele>
        <time>2021-09-07T16:27:19Z</time>
      </trkpt>
      <trkpt lat="44.38454" lon="5.62351">
        <ele>1049.5</ele>
        <time>2021-09-07T16:27:20Z</time>
      </trkpt>
      <trkpt lat="44.38452" lon="5.6235">
        <ele>1049.3</ele>
        <time>2021-09-07T16:27:21Z</time>
      </trkpt>
      <trkpt lat="44.38452" lon="5.62349">
        <ele>1049.3</ele>
        <time>2021-09-07T16:27:22Z</time>
      </trkpt>
      <trkpt lat="44.38451" lon="5.62348">
        <ele>1049.2</ele>
        <time>2021-09-07T16:27:23Z</time>
      </trkpt>
      <trkpt lat="44.3845" lon="5.62347">
        <ele>1049.2</ele>
        <time>2021-09-07T16:27:24Z</time>
      </trkpt>
      <trkpt lat="44.38449" lon="5.62346">
        <ele>1049.1</ele>
        <time>2021-09-07T16:27:25Z</time>
      </trkpt>
      <trkpt lat="44.38448" lon="5.62345">
        <ele>1049</ele>
        <time>2021-09-07T16:27:26Z</time>
      </trkpt>
      <trkpt lat="44.38447" lon="5.62344">
        <ele>1048.9</ele>
        <time>2021-09-07T16:27:27Z</time>
      </trkpt>
      <trkpt lat="44.38446" lon="5.62342">
        <ele>1048.9</ele>
        <time>2021-09-07T16:27:28Z</time>
      </trkpt>
      <trkpt lat="44.38443" lon="5.6234">
        <ele>1048.7</ele>
        <time>2021-09-07T16:27:29Z</time>
      </trkpt>
      <trkpt lat="44.38442" lon="5.62339">
        <ele>1048.6</ele>
        <time>2021-09-07T16:27:30Z</time>
      </trkpt>
      <trkpt lat="44.3844" lon="5.62337">
        <ele>1048.5</ele>
        <time>2021-09-07T16:27:31Z</time>
      </trkpt>
      <trkpt lat="44.38438" lon="5.62335">
        <ele>1048.3</ele>
        <time>2021-09-07T16:27:32Z</time>
      </trkpt>
      <trkpt lat="44.38436" lon="5.62334">
        <ele>1048.2</ele>
        <time>2021-09-07T16:27:33Z</time>
      </trkpt>
      <trkpt lat="44.38436" lon="5.62334">
        <ele>1048.2</ele>
        <time>2021-09-07T16:27:34Z</time>
      </trkpt>
      <trkpt lat="44.38435" lon="5.62333">
        <ele>1048.1</ele>
        <time>2021-09-07T16:27:35Z</time>
      </trkpt>
      <trkpt lat="44.38434" lon="5.62332">
        <ele>1048.1</ele>
        <time>2021-09-07T16:27:36Z</time>
      </trkpt>
      <trkpt lat="44.38433" lon="5.62332">
        <ele>1048</ele>
        <time>2021-09-07T16:27:37Z</time>
      </trkpt>
      <trkpt lat="44.38433" lon="5.62332">
        <ele>1048</ele>
        <time>2021-09-07T16:27:38Z</time>
      </trkpt>
      <trkpt lat="44.38432" lon="5.62332">
        <ele>1048</ele>
        <time>2021-09-07T16:27:39Z</time>
      </trkpt>
      <trkpt lat="44.3843" lon="5.62331">
        <ele>1047.8</ele>
        <time>2021-09-07T16:27:40Z</time>
      </trkpt>
      <trkpt lat="44.38429" lon="5.6233">
        <ele>1047.8</ele>
        <time>2021-09-07T16:27:41Z</time>
      </trkpt>
      <trkpt lat="44.38428" lon="5.62328">
        <ele>1047.7</ele>
        <time>2021-09-07T16:27:42Z</time>
      </trkpt>
      <trkpt lat="44.38426" lon="5.62326">
        <ele>1047.5</ele>
        <time>2021-09-07T16:27:43Z</time>
      </trkpt>
      <trkpt lat="44.38422" lon="5.62324">
        <ele>1047.3</ele>
        <time>2021-09-07T16:27:44Z</time>
      </trkpt>
      <trkpt lat="44.38421" lon="5.62323">
        <ele>1047.2</ele>
        <time>2021-09-07T16:27:45Z</time>
      </trkpt>
      <trkpt lat="44.3842" lon="5.62322">
        <ele>1047.2</ele>
        <time>2021-09-07T16:27:46Z</time>
      </trkpt>
      <trkpt lat="44.38418" lon="5.62319">
        <ele>1047</ele>
        <time>2021-09-07T16:27:47Z</time>
      </trkpt>
      <trkpt lat="44.38416" lon="5.62317">
        <ele>1046.8</ele>
        <time>2021-09-07T16:27:48Z</time>
      </trkpt>
      <trkpt lat="44.38413" lon="5.62315">
        <ele>1046.7</ele>
        <time>2021-09-07T16:27:49Z</time>
      </trkpt>
      <trkpt lat="44.3841" lon="5.62312">
        <ele>1046.5</ele>
        <time>2021-09-07T16:27:50Z</time>
      </trkpt>
      <trkpt lat="44.38405" lon="5.62308">
        <ele>1046.1</ele>
        <time>2021-09-07T16:27:51Z</time>
      </trkpt>
      <trkpt lat="44.38403" lon="5.62305">
        <ele>1046</ele>
        <time>2021-09-07T16:27:52Z</time>
      </trkpt>
      <trkpt lat="44.384" lon="5.62302">
        <ele>1045.8</ele>
        <time>2021-09-07T16:27:53Z</time>
      </trkpt>
      <trkpt lat="44.38398" lon="5.623">
        <ele>1045.6</ele>
        <time>2021-09-07T16:27:54Z</time>
      </trkpt>
      <trkpt lat="44.38396" lon="5.62297">
        <ele>1045.5</ele>
        <time>2021-09-07T16:27:55Z</time>
      </trkpt>
      <trkpt lat="44.38392" lon="5.62293">
        <ele>1045.2</ele>
        <time>2021-09-07T16:27:56Z</time>
      </trkpt>
      <trkpt lat="44.38386" lon="5.62288">
        <ele>1044.8</ele>
        <time>2021-09-07T16:27:57Z</time>
      </trkpt>
      <trkpt lat="44.38384" lon="5.62285">
        <ele>1044.6</ele>
        <time>2021-09-07T16:27:58Z</time>
      </trkpt>
      <trkpt lat="44.38381" lon="5.62281">
        <ele>1044.4</ele>
        <time>2021-09-07T16:27:59Z</time>
      </trkpt>
      <trkpt lat="44.38378" lon="5.62277">
        <ele>1044.2</ele>
        <time>2021-09-07T16:28:00Z</time>
      </trkpt>
      <trkpt lat="44.38375" lon="5.62274">
        <ele>1044</ele>
        <time>2021-09-07T16:28:01Z</time>
      </trkpt>
      <trkpt lat="44.38372" lon="5.62271">
        <ele>1043.8</ele>
        <time>2021-09-07T16:28:02Z</time>
      </trkpt>
      <trkpt lat="44.38364" lon="5.62264">
        <ele>1043.2</ele>
        <time>2021-09-07T16:28:03Z</time>
      </trkpt>
      <trkpt lat="44.38361" lon="5.6226">
        <ele>1043</ele>
        <time>2021-09-07T16:28:04Z</time>
      </trkpt>
      <trkpt lat="44.38359" lon="5.62258">
        <ele>1042.9</ele>
        <time>2021-09-07T16:28:05Z</time>
      </trkpt>
      <trkpt lat="44.38357" lon="5.62256">
        <ele>1042.7</ele>
        <time>2021-09-07T16:28:06Z</time>
      </trkpt>
      <trkpt lat="44.38354" lon="5.62253">
        <ele>1042.5</ele>
        <time>2021-09-07T16:28:07Z</time>
      </trkpt>
      <trkpt lat="44.38351" lon="5.6225">
        <ele>1042.3</ele>
        <time>2021-09-07T16:28:08Z</time>
      </trkpt>
      <trkpt lat="44.38345" lon="5.62246">
        <ele>1042</ele>
        <time>2021-09-07T16:28:09Z</time>
      </trkpt>
      <trkpt lat="44.38342" lon="5.62244">
        <ele>1041.6</ele>
        <time>2021-09-07T16:28:10Z</time>
      </trkpt>
      <trkpt lat="44.3834" lon="5.62243">
        <ele>1041.3</ele>
        <time>2021-09-07T16:28:11Z</time>
      </trkpt>
      <trkpt lat="44.38338" lon="5.62241">
        <ele>1041.1</ele>
        <time>2021-09-07T16:28:12Z</time>
      </trkpt>
      <trkpt lat="44.38335" lon="5.62239">
        <ele>1040.7</ele>
        <time>2021-09-07T16:28:13Z</time>
      </trkpt>
      <trkpt lat="44.38334" lon="5.62238">
        <ele>1040.5</ele>
        <time>2021-09-07T16:28:14Z</time>
      </trkpt>
      <trkpt lat="44.38332" lon="5.62237">
        <ele>1040.3</ele>
        <time>2021-09-07T16:28:15Z</time>
      </trkpt>
      <trkpt lat="44.38328" lon="5.62233">
        <ele>1039.8</ele>
        <time>2021-09-07T16:28:16Z</time>
      </trkpt>
      <trkpt lat="44.38326" lon="5.6223">
        <ele>1039.5</ele>
        <time>2021-09-07T16:28:17Z</time>
      </trkpt>
      <trkpt lat="44.38325" lon="5.62229">
        <ele>1039.3</ele>
        <time>2021-09-07T16:28:18Z</time>
      </trkpt>
      <trkpt lat="44.38323" lon="5.62228">
        <ele>1039.1</ele>
        <time>2021-09-07T16:28:19Z</time>
      </trkpt>
      <trkpt lat="44.3832" lon="5.62226">
        <ele>1038.8</ele>
        <time>2021-09-07T16:28:20Z</time>
      </trkpt>
      <trkpt lat="44.38315" lon="5.62223">
        <ele>1038.2</ele>
        <time>2021-09-07T16:28:21Z</time>
      </trkpt>
      <trkpt lat="44.38313" lon="5.62221">
        <ele>1037.9</ele>
        <time>2021-09-07T16:28:22Z</time>
      </trkpt>
      <trkpt lat="44.38312" lon="5.6222">
        <ele>1037.7</ele>
        <time>2021-09-07T16:28:23Z</time>
      </trkpt>
      <trkpt lat="44.3831" lon="5.62219">
        <ele>1037.5</ele>
        <time>2021-09-07T16:28:24Z</time>
      </trkpt>
      <trkpt lat="44.38308" lon="5.62217">
        <ele>1037.3</ele>
        <time>2021-09-07T16:28:25Z</time>
      </trkpt>
      <trkpt lat="44.38305" lon="5.62214">
        <ele>1036.9</ele>
        <time>2021-09-07T16:28:26Z</time>
      </trkpt>
      <trkpt lat="44.38303" lon="5.62213">
        <ele>1036.6</ele>
        <time>2021-09-07T16:28:27Z</time>
      </trkpt>
      <trkpt lat="44.383" lon="5.62211">
        <ele>1036.3</ele>
        <time>2021-09-07T16:28:28Z</time>
      </trkpt>
      <trkpt lat="44.38297" lon="5.62211">
        <ele>1036</ele>
        <time>2021-09-07T16:28:29Z</time>
      </trkpt>
      <trkpt lat="44.38294" lon="5.6221">
        <ele>1035.6</ele>
        <time>2021-09-07T16:28:30Z</time>
      </trkpt>
      <trkpt lat="44.38291" lon="5.62207">
        <ele>1035.2</ele>
        <time>2021-09-07T16:28:31Z</time>
      </trkpt>
      <trkpt lat="44.3829" lon="5.62206">
        <ele>1035</ele>
        <time>2021-09-07T16:28:32Z</time>
      </trkpt>
      <trkpt lat="44.38288" lon="5.62204">
        <ele>1034.8</ele>
        <time>2021-09-07T16:28:33Z</time>
      </trkpt>
      <trkpt lat="44.38284" lon="5.62199">
        <ele>1034.2</ele>
        <time>2021-09-07T16:28:34Z</time>
      </trkpt>
      <trkpt lat="44.38283" lon="5.62197">
        <ele>1034.1</ele>
        <time>2021-09-07T16:28:35Z</time>
      </trkpt>
      <trkpt lat="44.38283" lon="5.62196">
        <ele>1033.9</ele>
        <time>2021-09-07T16:28:36Z</time>
      </trkpt>
      <trkpt lat="44.38282" lon="5.62194">
        <ele>1033.8</ele>
        <time>2021-09-07T16:28:37Z</time>
      </trkpt>
      <trkpt lat="44.38283" lon="5.62194">
        <ele>1033.7</ele>
        <time>2021-09-07T16:28:38Z</time>
      </trkpt>
      <trkpt lat="44.38283" lon="5.62193">
        <ele>1033.7</ele>
        <time>2021-09-07T16:28:39Z</time>
      </trkpt>
      <trkpt lat="44.38282" lon="5.62191">
        <ele>1033.5</ele>
        <time>2021-09-07T16:28:40Z</time>
      </trkpt>
      <trkpt lat="44.38282" lon="5.6219">
        <ele>1033.4</ele>
        <time>2021-09-07T16:28:41Z</time>
      </trkpt>
      <trkpt lat="44.38281" lon="5.62189">
        <ele>1033.3</ele>
        <time>2021-09-07T16:28:42Z</time>
      </trkpt>
      <trkpt lat="44.3828" lon="5.62186">
        <ele>1033</ele>
        <time>2021-09-07T16:28:43Z</time>
      </trkpt>
      <trkpt lat="44.3828" lon="5.62183">
        <ele>1032.8</ele>
        <time>2021-09-07T16:28:44Z</time>
      </trkpt>
      <trkpt lat="44.38281" lon="5.62182">
        <ele>1032.7</ele>
        <time>2021-09-07T16:28:45Z</time>
      </trkpt>
      <trkpt lat="44.38281" lon="5.6218">
        <ele>1032.5</ele>
        <time>2021-09-07T16:28:46Z</time>
      </trkpt>
      <trkpt lat="44.38282" lon="5.62177">
        <ele>1032.3</ele>
        <time>2021-09-07T16:28:47Z</time>
      </trkpt>
      <trkpt lat="44.38282" lon="5.62176">
        <ele>1032.2</ele>
        <time>2021-09-07T16:28:48Z</time>
      </trkpt>
      <trkpt lat="44.38282" lon="5.62175">
        <ele>1032.1</ele>
        <time>2021-09-07T16:28:49Z</time>
      </trkpt>
      <trkpt lat="44.38282" lon="5.62174">
        <ele>1032</ele>
        <time>2021-09-07T16:28:50Z</time>
      </trkpt>
      <trkpt lat="44.38282" lon="5.62173">
        <ele>1032</ele>
        <time>2021-09-07T16:28:51Z</time>
      </trkpt>
      <trkpt lat="44.38282" lon="5.62172">
        <ele>1031.9</ele>
        <time>2021-09-07T16:28:52Z</time>
      </trkpt>
      <trkpt lat="44.38281" lon="5.62171">
        <ele>1031.8</ele>
        <time>2021-09-07T16:28:53Z</time>
      </trkpt>
      <trkpt lat="44.38281" lon="5.6217">
        <ele>1031.7</ele>
        <time>2021-09-07T16:28:54Z</time>
      </trkpt>
      <trkpt lat="44.38281" lon="5.62169">
        <ele>1031.6</ele>
        <time>2021-09-07T16:28:55Z</time>
      </trkpt>
      <trkpt lat="44.3828" lon="5.62167">
        <ele>1031.4</ele>
        <time>2021-09-07T16:28:56Z</time>
      </trkpt>
      <trkpt lat="44.3828" lon="5.62165">
        <ele>1031.3</ele>
        <time>2021-09-07T16:28:57Z</time>
      </trkpt>
      <trkpt lat="44.38279" lon="5.62162">
        <ele>1031</ele>
        <time>2021-09-07T16:28:58Z</time>
      </trkpt>
      <trkpt lat="44.38279" lon="5.6216">
        <ele>1030.9</ele>
        <time>2021-09-07T16:28:59Z</time>
      </trkpt>
      <trkpt lat="44.38279" lon="5.62158">
        <ele>1030.7</ele>
        <time>2021-09-07T16:29:00Z</time>
      </trkpt>
      <trkpt lat="44.38279" lon="5.62157">
        <ele>1030.6</ele>
        <time>2021-09-07T16:29:01Z</time>
      </trkpt>
      <trkpt lat="44.38279" lon="5.62156">
        <ele>1030.6</ele>
        <time>2021-09-07T16:29:02Z</time>
      </trkpt>
      <trkpt lat="44.38279" lon="5.62151">
        <ele>1030.2</ele>
        <time>2021-09-07T16:29:03Z</time>
      </trkpt>
      <trkpt lat="44.38279" lon="5.62147">
        <ele>1029.9</ele>
        <time>2021-09-07T16:29:04Z</time>
      </trkpt>
      <trkpt lat="44.38279" lon="5.62146">
        <ele>1029.7</ele>
        <time>2021-09-07T16:29:05Z</time>
      </trkpt>
      <trkpt lat="44.38278" lon="5.62144">
        <ele>1029.6</ele>
        <time>2021-09-07T16:29:06Z</time>
      </trkpt>
      <trkpt lat="44.38278" lon="5.62141">
        <ele>1029.4</ele>
        <time>2021-09-07T16:29:07Z</time>
      </trkpt>
      <trkpt lat="44.38278" lon="5.62138">
        <ele>1029.1</ele>
        <time>2021-09-07T16:29:08Z</time>
      </trkpt>
      <trkpt lat="44.38277" lon="5.62136">
        <ele>1029</ele>
        <time>2021-09-07T16:29:09Z</time>
      </trkpt>
      <trkpt lat="44.38276" lon="5.62133">
        <ele>1028.7</ele>
        <time>2021-09-07T16:29:10Z</time>
      </trkpt>
      <trkpt lat="44.38274" lon="5.62128">
        <ele>1028.3</ele>
        <time>2021-09-07T16:29:11Z</time>
      </trkpt>
      <trkpt lat="44.38273" lon="5.62126">
        <ele>1028.1</ele>
        <time>2021-09-07T16:29:12Z</time>
      </trkpt>
      <trkpt lat="44.38273" lon="5.62125">
        <ele>1027.9</ele>
        <time>2021-09-07T16:29:13Z</time>
      </trkpt>
      <trkpt lat="44.38272" lon="5.62123">
        <ele>1027.8</ele>
        <time>2021-09-07T16:29:14Z</time>
      </trkpt>
      <trkpt lat="44.38271" lon="5.62122">
        <ele>1027.6</ele>
        <time>2021-09-07T16:29:15Z</time>
      </trkpt>
      <trkpt lat="44.3827" lon="5.6212">
        <ele>1027.5</ele>
        <time>2021-09-07T16:29:16Z</time>
      </trkpt>
      <trkpt lat="44.38267" lon="5.62115">
        <ele>1027</ele>
        <time>2021-09-07T16:29:17Z</time>
      </trkpt>
      <trkpt lat="44.38266" lon="5.62114">
        <ele>1026.8</ele>
        <time>2021-09-07T16:29:18Z</time>
      </trkpt>
      <trkpt lat="44.38265" lon="5.62111">
        <ele>1026.6</ele>
        <time>2021-09-07T16:29:19Z</time>
      </trkpt>
      <trkpt lat="44.38264" lon="5.6211">
        <ele>1026.4</ele>
        <time>2021-09-07T16:29:20Z</time>
      </trkpt>
      <trkpt lat="44.38263" lon="5.62108">
        <ele>1026.3</ele>
        <time>2021-09-07T16:29:21Z</time>
      </trkpt>
      <trkpt lat="44.38261" lon="5.62106">
        <ele>1026</ele>
        <time>2021-09-07T16:29:22Z</time>
      </trkpt>
      <trkpt lat="44.3826" lon="5.62103">
        <ele>1025.7</ele>
        <time>2021-09-07T16:29:23Z</time>
      </trkpt>
      <trkpt lat="44.38259" lon="5.62102">
        <ele>1025.6</ele>
        <time>2021-09-07T16:29:24Z</time>
      </trkpt>
      <trkpt lat="44.38258" lon="5.621">
        <ele>1025.4</ele>
        <time>2021-09-07T16:29:25Z</time>
      </trkpt>
      <trkpt lat="44.38257" lon="5.62098">
        <ele>1025.2</ele>
        <time>2021-09-07T16:29:26Z</time>
      </trkpt>
      <trkpt lat="44.38256" lon="5.62097">
        <ele>1025.1</ele>
        <time>2021-09-07T16:29:27Z</time>
      </trkpt>
      <trkpt lat="44.38255" lon="5.62095">
        <ele>1024.9</ele>
        <time>2021-09-07T16:29:28Z</time>
      </trkpt>
      <trkpt lat="44.38253" lon="5.62093">
        <ele>1024.6</ele>
        <time>2021-09-07T16:29:29Z</time>
      </trkpt>
      <trkpt lat="44.38252" lon="5.62092">
        <ele>1024.5</ele>
        <time>2021-09-07T16:29:30Z</time>
      </trkpt>
      <trkpt lat="44.38251" lon="5.6209">
        <ele>1024.3</ele>
        <time>2021-09-07T16:29:31Z</time>
      </trkpt>
      <trkpt lat="44.3825" lon="5.62088">
        <ele>1024.1</ele>
        <time>2021-09-07T16:29:32Z</time>
      </trkpt>
      <trkpt lat="44.38249" lon="5.62086">
        <ele>1023.9</ele>
        <time>2021-09-07T16:29:33Z</time>
      </trkpt>
      <trkpt lat="44.38248" lon="5.62085">
        <ele>1023.8</ele>
        <time>2021-09-07T16:29:34Z</time>
      </trkpt>
      <trkpt lat="44.38247" lon="5.62083">
        <ele>1023.6</ele>
        <time>2021-09-07T16:29:35Z</time>
      </trkpt>
      <trkpt lat="44.38247" lon="5.62082">
        <ele>1023.5</ele>
        <time>2021-09-07T16:29:36Z</time>
      </trkpt>
      <trkpt lat="44.38246" lon="5.62081">
        <ele>1023.4</ele>
        <time>2021-09-07T16:29:37Z</time>
      </trkpt>
      <trkpt lat="44.38245" lon="5.62079">
        <ele>1023.2</ele>
        <time>2021-09-07T16:29:38Z</time>
      </trkpt>
      <trkpt lat="44.38243" lon="5.62076">
        <ele>1022.9</ele>
        <time>2021-09-07T16:29:39Z</time>
      </trkpt>
      <trkpt lat="44.38242" lon="5.62075">
        <ele>1022.8</ele>
        <time>2021-09-07T16:29:40Z</time>
      </trkpt>
      <trkpt lat="44.38241" lon="5.62073">
        <ele>1022.6</ele>
        <time>2021-09-07T16:29:41Z</time>
      </trkpt>
      <trkpt lat="44.3824" lon="5.62072">
        <ele>1022.5</ele>
        <time>2021-09-07T16:29:42Z</time>
      </trkpt>
      <trkpt lat="44.38239" lon="5.62072">
        <ele>1022.4</ele>
        <time>2021-09-07T16:29:43Z</time>
      </trkpt>
      <trkpt lat="44.38238" lon="5.62072">
        <ele>1022.3</ele>
        <time>2021-09-07T16:29:44Z</time>
      </trkpt>
      <trkpt lat="44.38236" lon="5.62071">
        <ele>1022</ele>
        <time>2021-09-07T16:29:45Z</time>
      </trkpt>
      <trkpt lat="44.38234" lon="5.6207">
        <ele>1021.8</ele>
        <time>2021-09-07T16:29:46Z</time>
      </trkpt>
      <trkpt lat="44.38233" lon="5.62069">
        <ele>1021.7</ele>
        <time>2021-09-07T16:29:47Z</time>
      </trkpt>
      <trkpt lat="44.38232" lon="5.62068">
        <ele>1021.5</ele>
        <time>2021-09-07T16:29:48Z</time>
      </trkpt>
      <trkpt lat="44.38231" lon="5.62067">
        <ele>1021.4</ele>
        <time>2021-09-07T16:29:49Z</time>
      </trkpt>
      <trkpt lat="44.3823" lon="5.62066">
        <ele>1021.3</ele>
        <time>2021-09-07T16:29:50Z</time>
      </trkpt>
      <trkpt lat="44.38229" lon="5.62065">
        <ele>1021.1</ele>
        <time>2021-09-07T16:29:51Z</time>
      </trkpt>
      <trkpt lat="44.38228" lon="5.62064">
        <ele>1021</ele>
        <time>2021-09-07T16:29:52Z</time>
      </trkpt>
      <trkpt lat="44.38228" lon="5.62064">
        <ele>1021</ele>
        <time>2021-09-07T16:29:53Z</time>
      </trkpt>
      <trkpt lat="44.38228" lon="5.62064">
        <ele>1020.9</ele>
        <time>2021-09-07T16:29:54Z</time>
      </trkpt>
      <trkpt lat="44.38227" lon="5.62064">
        <ele>1020.9</ele>
        <time>2021-09-07T16:29:55Z</time>
      </trkpt>
      <trkpt lat="44.38227" lon="5.62063">
        <ele>1020.8</ele>
        <time>2021-09-07T16:29:56Z</time>
      </trkpt>
      <trkpt lat="44.38226" lon="5.62063">
        <ele>1020.7</ele>
        <time>2021-09-07T16:29:57Z</time>
      </trkpt>
      <trkpt lat="44.38225" lon="5.62062">
        <ele>1020.6</ele>
        <time>2021-09-07T16:29:58Z</time>
      </trkpt>
      <trkpt lat="44.38223" lon="5.6206">
        <ele>1020.3</ele>
        <time>2021-09-07T16:29:59Z</time>
      </trkpt>
      <trkpt lat="44.38222" lon="5.62059">
        <ele>1020.2</ele>
        <time>2021-09-07T16:30:00Z</time>
      </trkpt>
      <trkpt lat="44.3822" lon="5.62057">
        <ele>1019.9</ele>
        <time>2021-09-07T16:30:01Z</time>
      </trkpt>
      <trkpt lat="44.3822" lon="5.62056">
        <ele>1019.8</ele>
        <time>2021-09-07T16:30:02Z</time>
      </trkpt>
      <trkpt lat="44.38219" lon="5.62055">
        <ele>1019.7</ele>
        <time>2021-09-07T16:30:03Z</time>
      </trkpt>
      <trkpt lat="44.38218" lon="5.62054">
        <ele>1019.6</ele>
        <time>2021-09-07T16:30:04Z</time>
      </trkpt>
      <trkpt lat="44.38217" lon="5.62054">
        <ele>1019.5</ele>
        <time>2021-09-07T16:30:05Z</time>
      </trkpt>
      <trkpt lat="44.38215" lon="5.62052">
        <ele>1019.2</ele>
        <time>2021-09-07T16:30:06Z</time>
      </trkpt>
      <trkpt lat="44.38214" lon="5.62052">
        <ele>1019.1</ele>
        <time>2021-09-07T16:30:07Z</time>
      </trkpt>
      <trkpt lat="44.38213" lon="5.62052">
        <ele>1019</ele>
        <time>2021-09-07T16:30:08Z</time>
      </trkpt>
      <trkpt lat="44.38212" lon="5.62052">
        <ele>1018.9</ele>
        <time>2021-09-07T16:30:09Z</time>
      </trkpt>
      <trkpt lat="44.3821" lon="5.62051">
        <ele>1018.7</ele>
        <time>2021-09-07T16:30:10Z</time>
      </trkpt>
      <trkpt lat="44.38209" lon="5.62051">
        <ele>1018.5</ele>
        <time>2021-09-07T16:30:11Z</time>
      </trkpt>
      <trkpt lat="44.38208" lon="5.62051">
        <ele>1018.4</ele>
        <time>2021-09-07T16:30:12Z</time>
      </trkpt>
      <trkpt lat="44.38206" lon="5.6205">
        <ele>1018.2</ele>
        <time>2021-09-07T16:30:13Z</time>
      </trkpt>
      <trkpt lat="44.38205" lon="5.6205">
        <ele>1018.1</ele>
        <time>2021-09-07T16:30:14Z</time>
      </trkpt>
      <trkpt lat="44.38204" lon="5.6205">
        <ele>1018</ele>
        <time>2021-09-07T16:30:15Z</time>
      </trkpt>
      <trkpt lat="44.38203" lon="5.6205">
        <ele>1017.9</ele>
        <time>2021-09-07T16:30:16Z</time>
      </trkpt>
      <trkpt lat="44.38202" lon="5.62049">
        <ele>1017.8</ele>
        <time>2021-09-07T16:30:17Z</time>
      </trkpt>
      <trkpt lat="44.382" lon="5.62047">
        <ele>1017.5</ele>
        <time>2021-09-07T16:30:18Z</time>
      </trkpt>
      <trkpt lat="44.382" lon="5.62046">
        <ele>1017.4</ele>
        <time>2021-09-07T16:30:19Z</time>
      </trkpt>
      <trkpt lat="44.38199" lon="5.62044">
        <ele>1017.2</ele>
        <time>2021-09-07T16:30:20Z</time>
      </trkpt>
      <trkpt lat="44.38198" lon="5.62043">
        <ele>1017.1</ele>
        <time>2021-09-07T16:30:21Z</time>
      </trkpt>
      <trkpt lat="44.38197" lon="5.62043">
        <ele>1017</ele>
        <time>2021-09-07T16:30:22Z</time>
      </trkpt>
      <trkpt lat="44.38196" lon="5.62043">
        <ele>1016.9</ele>
        <time>2021-09-07T16:30:23Z</time>
      </trkpt>
      <trkpt lat="44.38195" lon="5.62042">
        <ele>1016.8</ele>
        <time>2021-09-07T16:30:24Z</time>
      </trkpt>
      <trkpt lat="44.38194" lon="5.62042">
        <ele>1016.6</ele>
        <time>2021-09-07T16:30:25Z</time>
      </trkpt>
      <trkpt lat="44.38194" lon="5.62041">
        <ele>1016.6</ele>
        <time>2021-09-07T16:30:26Z</time>
      </trkpt>
      <trkpt lat="44.38194" lon="5.62041">
        <ele>1016.5</ele>
        <time>2021-09-07T16:30:27Z</time>
      </trkpt>
      <trkpt lat="44.38193" lon="5.6204">
        <ele>1016.4</ele>
        <time>2021-09-07T16:30:28Z</time>
      </trkpt>
      <trkpt lat="44.38192" lon="5.62038">
        <ele>1016.3</ele>
        <time>2021-09-07T16:30:29Z</time>
      </trkpt>
      <trkpt lat="44.38191" lon="5.62037">
        <ele>1016.4</ele>
        <time>2021-09-07T16:30:30Z</time>
      </trkpt>
      <trkpt lat="44.3819" lon="5.62035">
        <ele>1016.6</ele>
        <time>2021-09-07T16:30:31Z</time>
      </trkpt>
      <trkpt lat="44.3819" lon="5.62034">
        <ele>1016.7</ele>
        <time>2021-09-07T16:30:32Z</time>
      </trkpt>
      <trkpt lat="44.3819" lon="5.62032">
        <ele>1016.8</ele>
        <time>2021-09-07T16:30:33Z</time>
      </trkpt>
      <trkpt lat="44.38189" lon="5.6203">
        <ele>1017</ele>
        <time>2021-09-07T16:30:34Z</time>
      </trkpt>
      <trkpt lat="44.38189" lon="5.6203">
        <ele>1017</ele>
        <time>2021-09-07T16:30:35Z</time>
      </trkpt>
      <trkpt lat="44.38189" lon="5.6203">
        <ele>1017</ele>
        <time>2021-09-07T16:30:36Z</time>
      </trkpt>
      <trkpt lat="44.38189" lon="5.62029">
        <ele>1017.1</ele>
        <time>2021-09-07T16:30:37Z</time>
      </trkpt>
      <trkpt lat="44.38189" lon="5.62029">
        <ele>1017.1</ele>
        <time>2021-09-07T16:30:38Z</time>
      </trkpt>
      <trkpt lat="44.38188" lon="5.62029">
        <ele>1017.2</ele>
        <time>2021-09-07T16:30:39Z</time>
      </trkpt>
      <trkpt lat="44.38188" lon="5.62029">
        <ele>1017.2</ele>
        <time>2021-09-07T16:30:40Z</time>
      </trkpt>
      <trkpt lat="44.38188" lon="5.62029">
        <ele>1017.2</ele>
        <time>2021-09-07T16:30:41Z</time>
      </trkpt>
      <trkpt lat="44.38187" lon="5.62028">
        <ele>1017.3</ele>
        <time>2021-09-07T16:30:42Z</time>
      </trkpt>
      <trkpt lat="44.38187" lon="5.62028">
        <ele>1017.3</ele>
        <time>2021-09-07T16:30:43Z</time>
      </trkpt>
      <trkpt lat="44.38187" lon="5.62028">
        <ele>1017.3</ele>
        <time>2021-09-07T16:30:44Z</time>
      </trkpt>
      <trkpt lat="44.38187" lon="5.62028">
        <ele>1017.3</ele>
        <time>2021-09-07T16:30:45Z</time>
      </trkpt>
      <trkpt lat="44.38187" lon="5.62028">
        <ele>1017.3</ele>
        <time>2021-09-07T16:30:46Z</time>
      </trkpt>
      <trkpt lat="44.38187" lon="5.62028">
        <ele>1017.3</ele>
        <time>2021-09-07T16:30:47Z</time>
      </trkpt>
      <trkpt lat="44.38187" lon="5.62028">
        <ele>1017.3</ele>
        <time>2021-09-07T16:30:48Z</time>
      </trkpt>
      <trkpt lat="44.38187" lon="5.62028">
        <ele>1017.3</ele>
        <time>2021-09-07T16:30:49Z</time>
      </trkpt>
      <trkpt lat="44.38187" lon="5.62028">
        <ele>1017.3</ele>
        <time>2021-09-07T16:30:50Z</time>
      </trkpt>
      <trkpt lat="44.38187" lon="5.62028">
        <ele>1017.3</ele>
        <time>2021-09-07T16:30:51Z</time>
      </trkpt>
      <trkpt lat="44.38187" lon="5.62028">
        <ele>1017.3</ele>
        <time>2021-09-07T16:30:52Z</time>
      </trkpt>
      <trkpt lat="44.38187" lon="5.62028">
        <ele>1017.3</ele>
        <time>2021-09-07T16:30:53Z</time>
      </trkpt>
      <trkpt lat="44.38187" lon="5.62029">
        <ele>1017.4</ele>
        <time>2021-09-07T16:30:54Z</time>
      </trkpt>
      <trkpt lat="44.38188" lon="5.62029">
        <ele>1017.5</ele>
        <time>2021-09-07T16:30:55Z</time>
      </trkpt>
      <trkpt lat="44.38189" lon="5.6203">
        <ele>1017.6</ele>
        <time>2021-09-07T16:30:56Z</time>
      </trkpt>
      <trkpt lat="44.3819" lon="5.62031">
        <ele>1017.7</ele>
        <time>2021-09-07T16:30:57Z</time>
      </trkpt>
      <trkpt lat="44.38191" lon="5.62031">
        <ele>1017.8</ele>
        <time>2021-09-07T16:30:58Z</time>
      </trkpt>
      <trkpt lat="44.38192" lon="5.62032">
        <ele>1018</ele>
        <time>2021-09-07T16:30:59Z</time>
      </trkpt>
      <trkpt lat="44.38196" lon="5.62034">
        <ele>1018.4</ele>
        <time>2021-09-07T16:31:00Z</time>
      </trkpt>
      <trkpt lat="44.38197" lon="5.62035">
        <ele>1018.5</ele>
        <time>2021-09-07T16:31:01Z</time>
      </trkpt>
      <trkpt lat="44.38198" lon="5.62036">
        <ele>1018.7</ele>
        <time>2021-09-07T16:31:02Z</time>
      </trkpt>
      <trkpt lat="44.382" lon="5.62037">
        <ele>1018.9</ele>
        <time>2021-09-07T16:31:03Z</time>
      </trkpt>
      <trkpt lat="44.38202" lon="5.62038">
        <ele>1019.1</ele>
        <time>2021-09-07T16:31:04Z</time>
      </trkpt>
      <trkpt lat="44.38204" lon="5.62039">
        <ele>1019.3</ele>
        <time>2021-09-07T16:31:05Z</time>
      </trkpt>
      <trkpt lat="44.38206" lon="5.6204">
        <ele>1019.5</ele>
        <time>2021-09-07T16:31:06Z</time>
      </trkpt>
      <trkpt lat="44.38207" lon="5.62041">
        <ele>1019.7</ele>
        <time>2021-09-07T16:31:07Z</time>
      </trkpt>
      <trkpt lat="44.3821" lon="5.62042">
        <ele>1020</ele>
        <time>2021-09-07T16:31:08Z</time>
      </trkpt>
      <trkpt lat="44.3821" lon="5.62043">
        <ele>1020.1</ele>
        <time>2021-09-07T16:31:09Z</time>
      </trkpt>
      <trkpt lat="44.38211" lon="5.62043">
        <ele>1020.2</ele>
        <time>2021-09-07T16:31:10Z</time>
      </trkpt>
      <trkpt lat="44.38212" lon="5.62043">
        <ele>1020.3</ele>
        <time>2021-09-07T16:31:11Z</time>
      </trkpt>
      <trkpt lat="44.38213" lon="5.62044">
        <ele>1020.4</ele>
        <time>2021-09-07T16:31:12Z</time>
      </trkpt>
      <trkpt lat="44.38214" lon="5.62045">
        <ele>1020.5</ele>
        <time>2021-09-07T16:31:13Z</time>
      </trkpt>
      <trkpt lat="44.38215" lon="5.62045">
        <ele>1020.6</ele>
        <time>2021-09-07T16:31:14Z</time>
      </trkpt>
      <trkpt lat="44.38216" lon="5.62046">
        <ele>1020.8</ele>
        <time>2021-09-07T16:31:15Z</time>
      </trkpt>
      <trkpt lat="44.38218" lon="5.62047">
        <ele>1021</ele>
        <time>2021-09-07T16:31:16Z</time>
      </trkpt>
      <trkpt lat="44.38219" lon="5.62048">
        <ele>1021.1</ele>
        <time>2021-09-07T16:31:17Z</time>
      </trkpt>
      <trkpt lat="44.3822" lon="5.62049">
        <ele>1021.2</ele>
        <time>2021-09-07T16:31:18Z</time>
      </trkpt>
      <trkpt lat="44.38221" lon="5.6205">
        <ele>1021.4</ele>
        <time>2021-09-07T16:31:19Z</time>
      </trkpt>
      <trkpt lat="44.38223" lon="5.62051">
        <ele>1021.6</ele>
        <time>2021-09-07T16:31:20Z</time>
      </trkpt>
      <trkpt lat="44.38224" lon="5.62052">
        <ele>1021.7</ele>
        <time>2021-09-07T16:31:21Z</time>
      </trkpt>
      <trkpt lat="44.38226" lon="5.62052">
        <ele>1021.9</ele>
        <time>2021-09-07T16:31:22Z</time>
      </trkpt>
      <trkpt lat="44.38228" lon="5.62053">
        <ele>1022.1</ele>
        <time>2021-09-07T16:31:23Z</time>
      </trkpt>
      <trkpt lat="44.38229" lon="5.62053">
        <ele>1022.3</ele>
        <time>2021-09-07T16:31:24Z</time>
      </trkpt>
      <trkpt lat="44.3823" lon="5.62053">
        <ele>1022.4</ele>
        <time>2021-09-07T16:31:25Z</time>
      </trkpt>
      <trkpt lat="44.38231" lon="5.62053">
        <ele>1022.5</ele>
        <time>2021-09-07T16:31:26Z</time>
      </trkpt>
      <trkpt lat="44.38233" lon="5.62054">
        <ele>1022.7</ele>
        <time>2021-09-07T16:31:27Z</time>
      </trkpt>
      <trkpt lat="44.38235" lon="5.62054">
        <ele>1022.9</ele>
        <time>2021-09-07T16:31:28Z</time>
      </trkpt>
      <trkpt lat="44.38237" lon="5.62055">
        <ele>1023.1</ele>
        <time>2021-09-07T16:31:29Z</time>
      </trkpt>
      <trkpt lat="44.38239" lon="5.62055">
        <ele>1023.3</ele>
        <time>2021-09-07T16:31:30Z</time>
      </trkpt>
      <trkpt lat="44.38241" lon="5.62056">
        <ele>1023.5</ele>
        <time>2021-09-07T16:31:31Z</time>
      </trkpt>
      <trkpt lat="44.38242" lon="5.62056">
        <ele>1023.7</ele>
        <time>2021-09-07T16:31:32Z</time>
      </trkpt>
      <trkpt lat="44.38244" lon="5.62056">
        <ele>1023.9</ele>
        <time>2021-09-07T16:31:33Z</time>
      </trkpt>
      <trkpt lat="44.38245" lon="5.62056">
        <ele>1024</ele>
        <time>2021-09-07T16:31:34Z</time>
      </trkpt>
      <trkpt lat="44.38246" lon="5.62056">
        <ele>1024.1</ele>
        <time>2021-09-07T16:31:35Z</time>
      </trkpt>
      <trkpt lat="44.38248" lon="5.62056">
        <ele>1024.3</ele>
        <time>2021-09-07T16:31:36Z</time>
      </trkpt>
      <trkpt lat="44.38249" lon="5.62057">
        <ele>1024.4</ele>
        <time>2021-09-07T16:31:37Z</time>
      </trkpt>
      <trkpt lat="44.38251" lon="5.62059">
        <ele>1024.7</ele>
        <time>2021-09-07T16:31:38Z</time>
      </trkpt>
      <trkpt lat="44.38252" lon="5.6206">
        <ele>1024.7</ele>
        <time>2021-09-07T16:31:39Z</time>
      </trkpt>
      <trkpt lat="44.38252" lon="5.6206">
        <ele>1024.8</ele>
        <time>2021-09-07T16:31:40Z</time>
      </trkpt>
      <trkpt lat="44.38254" lon="5.62061">
        <ele>1025</ele>
        <time>2021-09-07T16:31:41Z</time>
      </trkpt>
      <trkpt lat="44.38255" lon="5.62061">
        <ele>1025.1</ele>
        <time>2021-09-07T16:31:42Z</time>
      </trkpt>
      <trkpt lat="44.38256" lon="5.62061">
        <ele>1025.2</ele>
        <time>2021-09-07T16:31:43Z</time>
      </trkpt>
      <trkpt lat="44.38256" lon="5.62061">
        <ele>1025.2</ele>
        <time>2021-09-07T16:31:44Z</time>
      </trkpt>
      <trkpt lat="44.38256" lon="5.62061">
        <ele>1025.2</ele>
        <time>2021-09-07T16:31:45Z</time>
      </trkpt>
      <trkpt lat="44.38256" lon="5.62061">
        <ele>1025.2</ele>
        <time>2021-09-07T16:31:46Z</time>
      </trkpt>
      <trkpt lat="44.38256" lon="5.62061">
        <ele>1025.2</ele>
        <time>2021-09-07T16:31:47Z</time>
      </trkpt>
      <trkpt lat="44.38256" lon="5.62061">
        <ele>1025.2</ele>
        <time>2021-09-07T16:31:48Z</time>
      </trkpt>
      <trkpt lat="44.38257" lon="5.62061">
        <ele>1025.3</ele>
        <time>2021-09-07T16:31:49Z</time>
      </trkpt>
      <trkpt lat="44.38258" lon="5.62062">
        <ele>1025.4</ele>
        <time>2021-09-07T16:31:50Z</time>
      </trkpt>
      <trkpt lat="44.38258" lon="5.62062">
        <ele>1025.5</ele>
        <time>2021-09-07T16:31:51Z</time>
      </trkpt>
      <trkpt lat="44.3826" lon="5.62064">
        <ele>1025.7</ele>
        <time>2021-09-07T16:31:52Z</time>
      </trkpt>
      <trkpt lat="44.38261" lon="5.62065">
        <ele>1025.8</ele>
        <time>2021-09-07T16:31:53Z</time>
      </trkpt>
      <trkpt lat="44.38261" lon="5.62065">
        <ele>1025.9</ele>
        <time>2021-09-07T16:31:54Z</time>
      </trkpt>
      <trkpt lat="44.38262" lon="5.62067">
        <ele>1026</ele>
        <time>2021-09-07T16:31:55Z</time>
      </trkpt>
      <trkpt lat="44.38264" lon="5.62069">
        <ele>1026.3</ele>
        <time>2021-09-07T16:31:56Z</time>
      </trkpt>
      <trkpt lat="44.38266" lon="5.62071">
        <ele>1026.5</ele>
        <time>2021-09-07T16:31:57Z</time>
      </trkpt>
      <trkpt lat="44.38268" lon="5.62071">
        <ele>1026.8</ele>
        <time>2021-09-07T16:31:58Z</time>
      </trkpt>
      <trkpt lat="44.3827" lon="5.62073">
        <ele>1027</ele>
        <time>2021-09-07T16:31:59Z</time>
      </trkpt>
      <trkpt lat="44.38272" lon="5.62073">
        <ele>1027.2</ele>
        <time>2021-09-07T16:32:00Z</time>
      </trkpt>
      <trkpt lat="44.38273" lon="5.62074">
        <ele>1027.4</ele>
        <time>2021-09-07T16:32:01Z</time>
      </trkpt>
      <trkpt lat="44.38275" lon="5.62075">
        <ele>1027.5</ele>
        <time>2021-09-07T16:32:02Z</time>
      </trkpt>
      <trkpt lat="44.38276" lon="5.62076">
        <ele>1027.7</ele>
        <time>2021-09-07T16:32:03Z</time>
      </trkpt>
      <trkpt lat="44.38277" lon="5.62077">
        <ele>1027.8</ele>
        <time>2021-09-07T16:32:04Z</time>
      </trkpt>
      <trkpt lat="44.38278" lon="5.62079">
        <ele>1028</ele>
        <time>2021-09-07T16:32:05Z</time>
      </trkpt>
      <trkpt lat="44.38279" lon="5.6208">
        <ele>1028.1</ele>
        <time>2021-09-07T16:32:06Z</time>
      </trkpt>
      <trkpt lat="44.3828" lon="5.62083">
        <ele>1028.4</ele>
        <time>2021-09-07T16:32:07Z</time>
      </trkpt>
      <trkpt lat="44.38281" lon="5.62085">
        <ele>1028.5</ele>
        <time>2021-09-07T16:32:08Z</time>
      </trkpt>
      <trkpt lat="44.38282" lon="5.62086">
        <ele>1028.7</ele>
        <time>2021-09-07T16:32:09Z</time>
      </trkpt>
      <trkpt lat="44.38283" lon="5.62088">
        <ele>1028.9</ele>
        <time>2021-09-07T16:32:10Z</time>
      </trkpt>
      <trkpt lat="44.38284" lon="5.6209">
        <ele>1029.1</ele>
        <time>2021-09-07T16:32:11Z</time>
      </trkpt>
      <trkpt lat="44.38285" lon="5.62093">
        <ele>1029.3</ele>
        <time>2021-09-07T16:32:12Z</time>
      </trkpt>
      <trkpt lat="44.38285" lon="5.62096">
        <ele>1029.5</ele>
        <time>2021-09-07T16:32:13Z</time>
      </trkpt>
      <trkpt lat="44.38286" lon="5.62098">
        <ele>1029.7</ele>
        <time>2021-09-07T16:32:14Z</time>
      </trkpt>
      <trkpt lat="44.38286" lon="5.621">
        <ele>1029.8</ele>
        <time>2021-09-07T16:32:15Z</time>
      </trkpt>
      <trkpt lat="44.38287" lon="5.62101">
        <ele>1030</ele>
        <time>2021-09-07T16:32:16Z</time>
      </trkpt>
      <trkpt lat="44.38288" lon="5.62102">
        <ele>1030.1</ele>
        <time>2021-09-07T16:32:17Z</time>
      </trkpt>
      <trkpt lat="44.38289" lon="5.62103">
        <ele>1030.2</ele>
        <time>2021-09-07T16:32:18Z</time>
      </trkpt>
      <trkpt lat="44.38289" lon="5.62103">
        <ele>1030.2</ele>
        <time>2021-09-07T16:32:19Z</time>
      </trkpt>
      <trkpt lat="44.38291" lon="5.62104">
        <ele>1030.5</ele>
        <time>2021-09-07T16:32:20Z</time>
      </trkpt>
      <trkpt lat="44.38293" lon="5.62104">
        <ele>1030.7</ele>
        <time>2021-09-07T16:32:21Z</time>
      </trkpt>
      <trkpt lat="44.38294" lon="5.62104">
        <ele>1030.8</ele>
        <time>2021-09-07T16:32:22Z</time>
      </trkpt>
      <trkpt lat="44.38295" lon="5.62104">
        <ele>1030.9</ele>
        <time>2021-09-07T16:32:23Z</time>
      </trkpt>
      <trkpt lat="44.38295" lon="5.62104">
        <ele>1030.9</ele>
        <time>2021-09-07T16:32:24Z</time>
      </trkpt>
      <trkpt lat="44.38296" lon="5.62104">
        <ele>1031</ele>
        <time>2021-09-07T16:32:25Z</time>
      </trkpt>
      <trkpt lat="44.38297" lon="5.62105">
        <ele>1031.1</ele>
        <time>2021-09-07T16:32:26Z</time>
      </trkpt>
      <trkpt lat="44.38298" lon="5.62106">
        <ele>1031.2</ele>
        <time>2021-09-07T16:32:27Z</time>
      </trkpt>
      <trkpt lat="44.38298" lon="5.62107">
        <ele>1031.3</ele>
        <time>2021-09-07T16:32:28Z</time>
      </trkpt>
      <trkpt lat="44.38298" lon="5.62107">
        <ele>1031.3</ele>
        <time>2021-09-07T16:32:29Z</time>
      </trkpt>
      <trkpt lat="44.38299" lon="5.62108">
        <ele>1031.4</ele>
        <time>2021-09-07T16:32:30Z</time>
      </trkpt>
      <trkpt lat="44.38299" lon="5.62108">
        <ele>1031.4</ele>
        <time>2021-09-07T16:32:31Z</time>
      </trkpt>
      <trkpt lat="44.38299" lon="5.62109">
        <ele>1031.5</ele>
        <time>2021-09-07T16:32:32Z</time>
      </trkpt>
      <trkpt lat="44.38301" lon="5.62111">
        <ele>1031.8</ele>
        <time>2021-09-07T16:32:33Z</time>
      </trkpt>
      <trkpt lat="44.38302" lon="5.62113">
        <ele>1031.9</ele>
        <time>2021-09-07T16:32:34Z</time>
      </trkpt>
      <trkpt lat="44.38304" lon="5.62116">
        <ele>1032.2</ele>
        <time>2021-09-07T16:32:35Z</time>
      </trkpt>
      <trkpt lat="44.38305" lon="5.62117">
        <ele>1032.3</ele>
        <time>2021-09-07T16:32:36Z</time>
      </trkpt>
      <trkpt lat="44.38305" lon="5.62118">
        <ele>1032.4</ele>
        <time>2021-09-07T16:32:37Z</time>
      </trkpt>
      <trkpt lat="44.38307" lon="5.6212">
        <ele>1032.7</ele>
        <time>2021-09-07T16:32:38Z</time>
      </trkpt>
      <trkpt lat="44.38309" lon="5.62124">
        <ele>1033.1</ele>
        <time>2021-09-07T16:32:39Z</time>
      </trkpt>
      <trkpt lat="44.3831" lon="5.62125">
        <ele>1033.1</ele>
        <time>2021-09-07T16:32:40Z</time>
      </trkpt>
      <trkpt lat="44.3831" lon="5.62126">
        <ele>1033.2</ele>
        <time>2021-09-07T16:32:41Z</time>
      </trkpt>
      <trkpt lat="44.38311" lon="5.62128">
        <ele>1033.4</ele>
        <time>2021-09-07T16:32:42Z</time>
      </trkpt>
      <trkpt lat="44.38312" lon="5.62131">
        <ele>1033.7</ele>
        <time>2021-09-07T16:32:43Z</time>
      </trkpt>
      <trkpt lat="44.38312" lon="5.62132">
        <ele>1033.7</ele>
        <time>2021-09-07T16:32:44Z</time>
      </trkpt>
      <trkpt lat="44.38312" lon="5.62133">
        <ele>1033.8</ele>
        <time>2021-09-07T16:32:45Z</time>
      </trkpt>
      <trkpt lat="44.38313" lon="5.62137">
        <ele>1034.1</ele>
        <time>2021-09-07T16:32:46Z</time>
      </trkpt>
      <trkpt lat="44.38313" lon="5.62138">
        <ele>1034.2</ele>
        <time>2021-09-07T16:32:47Z</time>
      </trkpt>
      <trkpt lat="44.38314" lon="5.6214">
        <ele>1034.4</ele>
        <time>2021-09-07T16:32:48Z</time>
      </trkpt>
      <trkpt lat="44.38315" lon="5.62142">
        <ele>1034.6</ele>
        <time>2021-09-07T16:32:49Z</time>
      </trkpt>
      <trkpt lat="44.38316" lon="5.62143">
        <ele>1034.7</ele>
        <time>2021-09-07T16:32:50Z</time>
      </trkpt>
      <trkpt lat="44.38317" lon="5.62146">
        <ele>1034.9</ele>
        <time>2021-09-07T16:32:51Z</time>
      </trkpt>
      <trkpt lat="44.38318" lon="5.62148">
        <ele>1035.1</ele>
        <time>2021-09-07T16:32:52Z</time>
      </trkpt>
      <trkpt lat="44.38319" lon="5.62149">
        <ele>1035.3</ele>
        <time>2021-09-07T16:32:53Z</time>
      </trkpt>
      <trkpt lat="44.3832" lon="5.6215">
        <ele>1035.4</ele>
        <time>2021-09-07T16:32:54Z</time>
      </trkpt>
      <trkpt lat="44.3832" lon="5.62151">
        <ele>1035.4</ele>
        <time>2021-09-07T16:32:55Z</time>
      </trkpt>
      <trkpt lat="44.38321" lon="5.62153">
        <ele>1035.6</ele>
        <time>2021-09-07T16:32:56Z</time>
      </trkpt>
      <trkpt lat="44.38322" lon="5.62155">
        <ele>1035.8</ele>
        <time>2021-09-07T16:32:57Z</time>
      </trkpt>
      <trkpt lat="44.38324" lon="5.62157">
        <ele>1036.1</ele>
        <time>2021-09-07T16:32:58Z</time>
      </trkpt>
      <trkpt lat="44.38325" lon="5.62157">
        <ele>1036.1</ele>
        <time>2021-09-07T16:32:59Z</time>
      </trkpt>
      <trkpt lat="44.38325" lon="5.62157">
        <ele>1036.2</ele>
        <time>2021-09-07T16:33:00Z</time>
      </trkpt>
      <trkpt lat="44.38326" lon="5.62159">
        <ele>1036.4</ele>
        <time>2021-09-07T16:33:01Z</time>
      </trkpt>
      <trkpt lat="44.38327" lon="5.6216">
        <ele>1036.5</ele>
        <time>2021-09-07T16:33:02Z</time>
      </trkpt>
      <trkpt lat="44.38328" lon="5.62162">
        <ele>1036.6</ele>
        <time>2021-09-07T16:33:03Z</time>
      </trkpt>
      <trkpt lat="44.38329" lon="5.62163">
        <ele>1036.8</ele>
        <time>2021-09-07T16:33:04Z</time>
      </trkpt>
      <trkpt lat="44.3833" lon="5.62164">
        <ele>1036.9</ele>
        <time>2021-09-07T16:33:05Z</time>
      </trkpt>
      <trkpt lat="44.38331" lon="5.62165">
        <ele>1037</ele>
        <time>2021-09-07T16:33:06Z</time>
      </trkpt>
      <trkpt lat="44.38332" lon="5.62166">
        <ele>1037.2</ele>
        <time>2021-09-07T16:33:07Z</time>
      </trkpt>
      <trkpt lat="44.38333" lon="5.62168">
        <ele>1037.4</ele>
        <time>2021-09-07T16:33:08Z</time>
      </trkpt>
      <trkpt lat="44.38333" lon="5.62169">
        <ele>1037.4</ele>
        <time>2021-09-07T16:33:09Z</time>
      </trkpt>
      <trkpt lat="44.38335" lon="5.62172">
        <ele>1037.7</ele>
        <time>2021-09-07T16:33:10Z</time>
      </trkpt>
      <trkpt lat="44.38335" lon="5.62172">
        <ele>1037.7</ele>
        <time>2021-09-07T16:33:11Z</time>
      </trkpt>
      <trkpt lat="44.38337" lon="5.62173">
        <ele>1038</ele>
        <time>2021-09-07T16:33:12Z</time>
      </trkpt>
      <trkpt lat="44.38339" lon="5.62173">
        <ele>1038.2</ele>
        <time>2021-09-07T16:33:13Z</time>
      </trkpt>
      <trkpt lat="44.3834" lon="5.62174">
        <ele>1038.3</ele>
        <time>2021-09-07T16:33:14Z</time>
      </trkpt>
      <trkpt lat="44.38341" lon="5.62174">
        <ele>1038.4</ele>
        <time>2021-09-07T16:33:15Z</time>
      </trkpt>
      <trkpt lat="44.38343" lon="5.62175">
        <ele>1038.6</ele>
        <time>2021-09-07T16:33:16Z</time>
      </trkpt>
      <trkpt lat="44.38344" lon="5.62175">
        <ele>1038.7</ele>
        <time>2021-09-07T16:33:17Z</time>
      </trkpt>
      <trkpt lat="44.38344" lon="5.62177">
        <ele>1038.9</ele>
        <time>2021-09-07T16:33:18Z</time>
      </trkpt>
      <trkpt lat="44.38344" lon="5.62178">
        <ele>1038.9</ele>
        <time>2021-09-07T16:33:19Z</time>
      </trkpt>
      <trkpt lat="44.38344" lon="5.62179">
        <ele>1039</ele>
        <time>2021-09-07T16:33:20Z</time>
      </trkpt>
      <trkpt lat="44.38344" lon="5.62181">
        <ele>1039.2</ele>
        <time>2021-09-07T16:33:21Z</time>
      </trkpt>
      <trkpt lat="44.38345" lon="5.62182">
        <ele>1039.3</ele>
        <time>2021-09-07T16:33:22Z</time>
      </trkpt>
      <trkpt lat="44.38347" lon="5.62184">
        <ele>1039.6</ele>
        <time>2021-09-07T16:33:23Z</time>
      </trkpt>
      <trkpt lat="44.38349" lon="5.62184">
        <ele>1039.8</ele>
        <time>2021-09-07T16:33:24Z</time>
      </trkpt>
      <trkpt lat="44.3835" lon="5.62185">
        <ele>1039.9</ele>
        <time>2021-09-07T16:33:25Z</time>
      </trkpt>
      <trkpt lat="44.38351" lon="5.62186">
        <ele>1040</ele>
        <time>2021-09-07T16:33:26Z</time>
      </trkpt>
      <trkpt lat="44.38352" lon="5.62186">
        <ele>1040.1</ele>
        <time>2021-09-07T16:33:27Z</time>
      </trkpt>
      <trkpt lat="44.38354" lon="5.62187">
        <ele>1040.3</ele>
        <time>2021-09-07T16:33:28Z</time>
      </trkpt>
      <trkpt lat="44.38357" lon="5.62188">
        <ele>1040.7</ele>
        <time>2021-09-07T16:33:29Z</time>
      </trkpt>
      <trkpt lat="44.3836" lon="5.62189">
        <ele>1041</ele>
        <time>2021-09-07T16:33:30Z</time>
      </trkpt>
      <trkpt lat="44.38361" lon="5.62189">
        <ele>1041.1</ele>
        <time>2021-09-07T16:33:31Z</time>
      </trkpt>
      <trkpt lat="44.38362" lon="5.62189">
        <ele>1041.2</ele>
        <time>2021-09-07T16:33:32Z</time>
      </trkpt>
      <trkpt lat="44.38364" lon="5.62189">
        <ele>1041.4</ele>
        <time>2021-09-07T16:33:33Z</time>
      </trkpt>
      <trkpt lat="44.38365" lon="5.62188">
        <ele>1041.5</ele>
        <time>2021-09-07T16:33:34Z</time>
      </trkpt>
      <trkpt lat="44.38369" lon="5.62187">
        <ele>1041.8</ele>
        <time>2021-09-07T16:33:35Z</time>
      </trkpt>
      <trkpt lat="44.38371" lon="5.62186">
        <ele>1041.9</ele>
        <time>2021-09-07T16:33:36Z</time>
      </trkpt>
      <trkpt lat="44.38372" lon="5.62185">
        <ele>1042</ele>
        <time>2021-09-07T16:33:37Z</time>
      </trkpt>
      <trkpt lat="44.38373" lon="5.62184">
        <ele>1042.1</ele>
        <time>2021-09-07T16:33:38Z</time>
      </trkpt>
      <trkpt lat="44.38375" lon="5.62184">
        <ele>1042.2</ele>
        <time>2021-09-07T16:33:39Z</time>
      </trkpt>
      <trkpt lat="44.38377" lon="5.62184">
        <ele>1042.3</ele>
        <time>2021-09-07T16:33:40Z</time>
      </trkpt>
      <trkpt lat="44.38379" lon="5.62184">
        <ele>1042.4</ele>
        <time>2021-09-07T16:33:41Z</time>
      </trkpt>
      <trkpt lat="44.3838" lon="5.62184">
        <ele>1042.4</ele>
        <time>2021-09-07T16:33:42Z</time>
      </trkpt>
      <trkpt lat="44.38382" lon="5.62184">
        <ele>1042.5</ele>
        <time>2021-09-07T16:33:43Z</time>
      </trkpt>
      <trkpt lat="44.38382" lon="5.62185">
        <ele>1042.6</ele>
        <time>2021-09-07T16:33:44Z</time>
      </trkpt>
      <trkpt lat="44.38383" lon="5.62185">
        <ele>1042.6</ele>
        <time>2021-09-07T16:33:45Z</time>
      </trkpt>
      <trkpt lat="44.38384" lon="5.62186">
        <ele>1042.7</ele>
        <time>2021-09-07T16:33:46Z</time>
      </trkpt>
      <trkpt lat="44.38386" lon="5.62187">
        <ele>1042.8</ele>
        <time>2021-09-07T16:33:47Z</time>
      </trkpt>
      <trkpt lat="44.38387" lon="5.62187">
        <ele>1042.8</ele>
        <time>2021-09-07T16:33:48Z</time>
      </trkpt>
      <trkpt lat="44.38388" lon="5.62188">
        <ele>1042.9</ele>
        <time>2021-09-07T16:33:49Z</time>
      </trkpt>
      <trkpt lat="44.3839" lon="5.62189">
        <ele>1043</ele>
        <time>2021-09-07T16:33:50Z</time>
      </trkpt>
      <trkpt lat="44.38392" lon="5.62189">
        <ele>1043.1</ele>
        <time>2021-09-07T16:33:51Z</time>
      </trkpt>
      <trkpt lat="44.38393" lon="5.62189">
        <ele>1043.1</ele>
        <time>2021-09-07T16:33:52Z</time>
      </trkpt>
      <trkpt lat="44.38396" lon="5.6219">
        <ele>1043.3</ele>
        <time>2021-09-07T16:33:53Z</time>
      </trkpt>
      <trkpt lat="44.38398" lon="5.6219">
        <ele>1043.4</ele>
        <time>2021-09-07T16:33:54Z</time>
      </trkpt>
      <trkpt lat="44.38399" lon="5.6219">
        <ele>1043.4</ele>
        <time>2021-09-07T16:33:55Z</time>
      </trkpt>
      <trkpt lat="44.384" lon="5.6219">
        <ele>1043.5</ele>
        <time>2021-09-07T16:33:56Z</time>
      </trkpt>
      <trkpt lat="44.38401" lon="5.6219">
        <ele>1043.5</ele>
        <time>2021-09-07T16:33:57Z</time>
      </trkpt>
      <trkpt lat="44.38402" lon="5.6219">
        <ele>1043.6</ele>
        <time>2021-09-07T16:33:58Z</time>
      </trkpt>
      <trkpt lat="44.38404" lon="5.6219">
        <ele>1043.7</ele>
        <time>2021-09-07T16:33:59Z</time>
      </trkpt>
      <trkpt lat="44.38407" lon="5.6219">
        <ele>1043.9</ele>
        <time>2021-09-07T16:34:00Z</time>
      </trkpt>
      <trkpt lat="44.38408" lon="5.6219">
        <ele>1043.9</ele>
        <time>2021-09-07T16:34:01Z</time>
      </trkpt>
      <trkpt lat="44.38409" lon="5.6219">
        <ele>1044</ele>
        <time>2021-09-07T16:34:02Z</time>
      </trkpt>
      <trkpt lat="44.3841" lon="5.62191">
        <ele>1044</ele>
        <time>2021-09-07T16:34:03Z</time>
      </trkpt>
      <trkpt lat="44.38411" lon="5.62191">
        <ele>1044.1</ele>
        <time>2021-09-07T16:34:04Z</time>
      </trkpt>
      <trkpt lat="44.38412" lon="5.62192">
        <ele>1044.1</ele>
        <time>2021-09-07T16:34:05Z</time>
      </trkpt>
      <trkpt lat="44.38414" lon="5.62193">
        <ele>1044.2</ele>
        <time>2021-09-07T16:34:06Z</time>
      </trkpt>
      <trkpt lat="44.38415" lon="5.62194">
        <ele>1044.3</ele>
        <time>2021-09-07T16:34:07Z</time>
      </trkpt>
      <trkpt lat="44.38416" lon="5.62195">
        <ele>1044.4</ele>
        <time>2021-09-07T16:34:08Z</time>
      </trkpt>
      <trkpt lat="44.38416" lon="5.62196">
        <ele>1044.4</ele>
        <time>2021-09-07T16:34:09Z</time>
      </trkpt>
      <trkpt lat="44.38417" lon="5.62197">
        <ele>1044.5</ele>
        <time>2021-09-07T16:34:10Z</time>
      </trkpt>
      <trkpt lat="44.38418" lon="5.62198">
        <ele>1044.5</ele>
        <time>2021-09-07T16:34:11Z</time>
      </trkpt>
      <trkpt lat="44.38419" lon="5.62201">
        <ele>1044.6</ele>
        <time>2021-09-07T16:34:12Z</time>
      </trkpt>
      <trkpt lat="44.3842" lon="5.62202">
        <ele>1044.7</ele>
        <time>2021-09-07T16:34:13Z</time>
      </trkpt>
      <trkpt lat="44.3842" lon="5.62202">
        <ele>1044.7</ele>
        <time>2021-09-07T16:34:14Z</time>
      </trkpt>
      <trkpt lat="44.38421" lon="5.62203">
        <ele>1044.8</ele>
        <time>2021-09-07T16:34:15Z</time>
      </trkpt>
      <trkpt lat="44.38422" lon="5.62205">
        <ele>1044.8</ele>
        <time>2021-09-07T16:34:16Z</time>
      </trkpt>
      <trkpt lat="44.38423" lon="5.62207">
        <ele>1044.9</ele>
        <time>2021-09-07T16:34:17Z</time>
      </trkpt>
      <trkpt lat="44.38425" lon="5.6221">
        <ele>1045.1</ele>
        <time>2021-09-07T16:34:18Z</time>
      </trkpt>
      <trkpt lat="44.38425" lon="5.62213">
        <ele>1045.2</ele>
        <time>2021-09-07T16:34:19Z</time>
      </trkpt>
      <trkpt lat="44.38425" lon="5.62215">
        <ele>1045.3</ele>
        <time>2021-09-07T16:34:20Z</time>
      </trkpt>
      <trkpt lat="44.38424" lon="5.62218">
        <ele>1045.4</ele>
        <time>2021-09-07T16:34:21Z</time>
      </trkpt>
      <trkpt lat="44.38425" lon="5.6222">
        <ele>1045.5</ele>
        <time>2021-09-07T16:34:22Z</time>
      </trkpt>
      <trkpt lat="44.38426" lon="5.62221">
        <ele>1045.5</ele>
        <time>2021-09-07T16:34:23Z</time>
      </trkpt>
      <trkpt lat="44.38427" lon="5.62225">
        <ele>1045.7</ele>
        <time>2021-09-07T16:34:24Z</time>
      </trkpt>
      <trkpt lat="44.38427" lon="5.62228">
        <ele>1045.8</ele>
        <time>2021-09-07T16:34:25Z</time>
      </trkpt>
      <trkpt lat="44.38428" lon="5.6223">
        <ele>1045.9</ele>
        <time>2021-09-07T16:34:26Z</time>
      </trkpt>
      <trkpt lat="44.38429" lon="5.62234">
        <ele>1046</ele>
        <time>2021-09-07T16:34:27Z</time>
      </trkpt>
      <trkpt lat="44.3843" lon="5.62235">
        <ele>1046.1</ele>
        <time>2021-09-07T16:34:28Z</time>
      </trkpt>
      <trkpt lat="44.3843" lon="5.62236">
        <ele>1046.1</ele>
        <time>2021-09-07T16:34:29Z</time>
      </trkpt>
      <trkpt lat="44.38431" lon="5.62241">
        <ele>1046.3</ele>
        <time>2021-09-07T16:34:30Z</time>
      </trkpt>
      <trkpt lat="44.38432" lon="5.62242">
        <ele>1046.4</ele>
        <time>2021-09-07T16:34:31Z</time>
      </trkpt>
      <trkpt lat="44.38434" lon="5.62243">
        <ele>1046.5</ele>
        <time>2021-09-07T16:34:32Z</time>
      </trkpt>
      <trkpt lat="44.38436" lon="5.62242">
        <ele>1046.6</ele>
        <time>2021-09-07T16:34:33Z</time>
      </trkpt>
      <trkpt lat="44.38438" lon="5.62242">
        <ele>1046.7</ele>
        <time>2021-09-07T16:34:34Z</time>
      </trkpt>
      <trkpt lat="44.38439" lon="5.62241">
        <ele>1046.7</ele>
        <time>2021-09-07T16:34:35Z</time>
      </trkpt>
      <trkpt lat="44.38441" lon="5.62239">
        <ele>1046.9</ele>
        <time>2021-09-07T16:34:36Z</time>
      </trkpt>
      <trkpt lat="44.38446" lon="5.62237">
        <ele>1047.1</ele>
        <time>2021-09-07T16:34:37Z</time>
      </trkpt>
      <trkpt lat="44.38447" lon="5.62237">
        <ele>1047.2</ele>
        <time>2021-09-07T16:34:38Z</time>
      </trkpt>
      <trkpt lat="44.38448" lon="5.62236">
        <ele>1047.2</ele>
        <time>2021-09-07T16:34:39Z</time>
      </trkpt>
      <trkpt lat="44.3845" lon="5.62236">
        <ele>1047.3</ele>
        <time>2021-09-07T16:34:40Z</time>
      </trkpt>
      <trkpt lat="44.38453" lon="5.62238">
        <ele>1047.5</ele>
        <time>2021-09-07T16:34:41Z</time>
      </trkpt>
      <trkpt lat="44.38455" lon="5.62239">
        <ele>1047.6</ele>
        <time>2021-09-07T16:34:42Z</time>
      </trkpt>
      <trkpt lat="44.38457" lon="5.6224">
        <ele>1047.7</ele>
        <time>2021-09-07T16:34:43Z</time>
      </trkpt>
      <trkpt lat="44.38458" lon="5.62242">
        <ele>1047.8</ele>
        <time>2021-09-07T16:34:44Z</time>
      </trkpt>
      <trkpt lat="44.38459" lon="5.62243">
        <ele>1047.9</ele>
        <time>2021-09-07T16:34:45Z</time>
      </trkpt>
      <trkpt lat="44.38461" lon="5.62245">
        <ele>1048</ele>
        <time>2021-09-07T16:34:46Z</time>
      </trkpt>
      <trkpt lat="44.38462" lon="5.62247">
        <ele>1048.1</ele>
        <time>2021-09-07T16:34:47Z</time>
      </trkpt>
      <trkpt lat="44.38464" lon="5.6225">
        <ele>1048.2</ele>
        <time>2021-09-07T16:34:48Z</time>
      </trkpt>
      <trkpt lat="44.38466" lon="5.62253">
        <ele>1048.4</ele>
        <time>2021-09-07T16:34:49Z</time>
      </trkpt>
      <trkpt lat="44.38468" lon="5.62255">
        <ele>1048.5</ele>
        <time>2021-09-07T16:34:50Z</time>
      </trkpt>
      <trkpt lat="44.38469" lon="5.62256">
        <ele>1048.5</ele>
        <time>2021-09-07T16:34:51Z</time>
      </trkpt>
      <trkpt lat="44.3847" lon="5.62258">
        <ele>1048.6</ele>
        <time>2021-09-07T16:34:52Z</time>
      </trkpt>
      <trkpt lat="44.38471" lon="5.62258">
        <ele>1048.7</ele>
        <time>2021-09-07T16:34:53Z</time>
      </trkpt>
      <trkpt lat="44.3847" lon="5.62259">
        <ele>1048.7</ele>
        <time>2021-09-07T16:34:54Z</time>
      </trkpt>
      <trkpt lat="44.38471" lon="5.62259">
        <ele>1048.8</ele>
        <time>2021-09-07T16:34:55Z</time>
      </trkpt>
      <trkpt lat="44.38471" lon="5.62259">
        <ele>1048.8</ele>
        <time>2021-09-07T16:34:56Z</time>
      </trkpt>
      <trkpt lat="44.3847" lon="5.6226">
        <ele>1048.9</ele>
        <time>2021-09-07T16:34:57Z</time>
      </trkpt>
      <trkpt lat="44.3847" lon="5.6226">
        <ele>1048.9</ele>
        <time>2021-09-07T16:34:58Z</time>
      </trkpt>
      <trkpt lat="44.3847" lon="5.6226">
        <ele>1048.9</ele>
        <time>2021-09-07T16:34:59Z</time>
      </trkpt>
      <trkpt lat="44.38471" lon="5.62261">
        <ele>1048.9</ele>
        <time>2021-09-07T16:35:00Z</time>
      </trkpt>
      <trkpt lat="44.38471" lon="5.62263">
        <ele>1049</ele>
        <time>2021-09-07T16:35:01Z</time>
      </trkpt>
      <trkpt lat="44.38472" lon="5.62264">
        <ele>1049.1</ele>
        <time>2021-09-07T16:35:02Z</time>
      </trkpt>
      <trkpt lat="44.38473" lon="5.62266">
        <ele>1049.1</ele>
        <time>2021-09-07T16:35:03Z</time>
      </trkpt>
      <trkpt lat="44.38473" lon="5.62267">
        <ele>1049.2</ele>
        <time>2021-09-07T16:35:04Z</time>
      </trkpt>
      <trkpt lat="44.38474" lon="5.62269">
        <ele>1049.3</ele>
        <time>2021-09-07T16:35:05Z</time>
      </trkpt>
      <trkpt lat="44.38477" lon="5.62274">
        <ele>1049.5</ele>
        <time>2021-09-07T16:35:06Z</time>
      </trkpt>
      <trkpt lat="44.38479" lon="5.62278">
        <ele>1049.7</ele>
        <time>2021-09-07T16:35:07Z</time>
      </trkpt>
      <trkpt lat="44.38481" lon="5.6228">
        <ele>1049.8</ele>
        <time>2021-09-07T16:35:08Z</time>
      </trkpt>
      <trkpt lat="44.38482" lon="5.62282">
        <ele>1049.9</ele>
        <time>2021-09-07T16:35:09Z</time>
      </trkpt>
      <trkpt lat="44.38482" lon="5.62283">
        <ele>1049.9</ele>
        <time>2021-09-07T16:35:10Z</time>
      </trkpt>
      <trkpt lat="44.38484" lon="5.62286">
        <ele>1050.1</ele>
        <time>2021-09-07T16:35:11Z</time>
      </trkpt>
      <trkpt lat="44.38485" lon="5.62288">
        <ele>1050.1</ele>
        <time>2021-09-07T16:35:12Z</time>
      </trkpt>
      <trkpt lat="44.38486" lon="5.62291">
        <ele>1050.3</ele>
        <time>2021-09-07T16:35:13Z</time>
      </trkpt>
      <trkpt lat="44.38488" lon="5.62294">
        <ele>1050.4</ele>
        <time>2021-09-07T16:35:14Z</time>
      </trkpt>
      <trkpt lat="44.3849" lon="5.62296">
        <ele>1050.5</ele>
        <time>2021-09-07T16:35:15Z</time>
      </trkpt>
      <trkpt lat="44.3849" lon="5.62298">
        <ele>1050.6</ele>
        <time>2021-09-07T16:35:16Z</time>
      </trkpt>
      <trkpt lat="44.38491" lon="5.62299">
        <ele>1050.7</ele>
        <time>2021-09-07T16:35:17Z</time>
      </trkpt>
      <trkpt lat="44.38491" lon="5.623">
        <ele>1050.7</ele>
        <time>2021-09-07T16:35:18Z</time>
      </trkpt>
      <trkpt lat="44.38495" lon="5.62303">
        <ele>1050.9</ele>
        <time>2021-09-07T16:35:19Z</time>
      </trkpt>
      <trkpt lat="44.38498" lon="5.62304">
        <ele>1051.1</ele>
        <time>2021-09-07T16:35:20Z</time>
      </trkpt>
      <trkpt lat="44.38499" lon="5.62305">
        <ele>1051.1</ele>
        <time>2021-09-07T16:35:21Z</time>
      </trkpt>
      <trkpt lat="44.385" lon="5.62306">
        <ele>1051.2</ele>
        <time>2021-09-07T16:35:22Z</time>
      </trkpt>
      <trkpt lat="44.38501" lon="5.62308">
        <ele>1051.3</ele>
        <time>2021-09-07T16:35:23Z</time>
      </trkpt>
      <trkpt lat="44.38504" lon="5.6231">
        <ele>1051.5</ele>
        <time>2021-09-07T16:35:24Z</time>
      </trkpt>
      <trkpt lat="44.38506" lon="5.62312">
        <ele>1051.6</ele>
        <time>2021-09-07T16:35:25Z</time>
      </trkpt>
      <trkpt lat="44.38508" lon="5.62314">
        <ele>1051.7</ele>
        <time>2021-09-07T16:35:26Z</time>
      </trkpt>
      <trkpt lat="44.38509" lon="5.62316">
        <ele>1051.8</ele>
        <time>2021-09-07T16:35:27Z</time>
      </trkpt>
      <trkpt lat="44.3851" lon="5.62317">
        <ele>1051.9</ele>
        <time>2021-09-07T16:35:28Z</time>
      </trkpt>
      <trkpt lat="44.38511" lon="5.62318">
        <ele>1051.9</ele>
        <time>2021-09-07T16:35:29Z</time>
      </trkpt>
      <trkpt lat="44.38512" lon="5.6232">
        <ele>1052</ele>
        <time>2021-09-07T16:35:30Z</time>
      </trkpt>
      <trkpt lat="44.38512" lon="5.62321">
        <ele>1052</ele>
        <time>2021-09-07T16:35:31Z</time>
      </trkpt>
      <trkpt lat="44.38512" lon="5.62322">
        <ele>1052.1</ele>
        <time>2021-09-07T16:35:32Z</time>
      </trkpt>
      <trkpt lat="44.38513" lon="5.62323">
        <ele>1052.1</ele>
        <time>2021-09-07T16:35:33Z</time>
      </trkpt>
      <trkpt lat="44.38513" lon="5.62324">
        <ele>1052.2</ele>
        <time>2021-09-07T16:35:34Z</time>
      </trkpt>
      <trkpt lat="44.38514" lon="5.62325">
        <ele>1052.2</ele>
        <time>2021-09-07T16:35:35Z</time>
      </trkpt>
      <trkpt lat="44.38515" lon="5.62326">
        <ele>1052.3</ele>
        <time>2021-09-07T16:35:36Z</time>
      </trkpt>
      <trkpt lat="44.38517" lon="5.62327">
        <ele>1052.4</ele>
        <time>2021-09-07T16:35:37Z</time>
      </trkpt>
      <trkpt lat="44.38518" lon="5.62327">
        <ele>1052.4</ele>
        <time>2021-09-07T16:35:38Z</time>
      </trkpt>
      <trkpt lat="44.38518" lon="5.62326">
        <ele>1052.5</ele>
        <time>2021-09-07T16:35:39Z</time>
      </trkpt>
      <trkpt lat="44.38518" lon="5.62326">
        <ele>1052.5</ele>
        <time>2021-09-07T16:35:40Z</time>
      </trkpt>
      <trkpt lat="44.38519" lon="5.62326">
        <ele>1052.5</ele>
        <time>2021-09-07T16:35:41Z</time>
      </trkpt>
      <trkpt lat="44.38519" lon="5.62327">
        <ele>1052.5</ele>
        <time>2021-09-07T16:35:42Z</time>
      </trkpt>
      <trkpt lat="44.3852" lon="5.62328">
        <ele>1052.6</ele>
        <time>2021-09-07T16:35:43Z</time>
      </trkpt>
      <trkpt lat="44.38521" lon="5.62328">
        <ele>1052.6</ele>
        <time>2021-09-07T16:35:44Z</time>
      </trkpt>
      <trkpt lat="44.38524" lon="5.62329">
        <ele>1052.8</ele>
        <time>2021-09-07T16:35:45Z</time>
      </trkpt>
      <trkpt lat="44.38524" lon="5.62329">
        <ele>1052.8</ele>
        <time>2021-09-07T16:35:46Z</time>
      </trkpt>
      <trkpt lat="44.38526" lon="5.6233">
        <ele>1052.9</ele>
        <time>2021-09-07T16:35:47Z</time>
      </trkpt>
      <trkpt lat="44.38527" lon="5.6233">
        <ele>1053</ele>
        <time>2021-09-07T16:35:48Z</time>
      </trkpt>
      <trkpt lat="44.38528" lon="5.62331">
        <ele>1053</ele>
        <time>2021-09-07T16:35:49Z</time>
      </trkpt>
      <trkpt lat="44.3853" lon="5.62333">
        <ele>1053.1</ele>
        <time>2021-09-07T16:35:50Z</time>
      </trkpt>
      <trkpt lat="44.38531" lon="5.62334">
        <ele>1053.1</ele>
        <time>2021-09-07T16:35:51Z</time>
      </trkpt>
      <trkpt lat="44.38532" lon="5.62336">
        <ele>1053.2</ele>
        <time>2021-09-07T16:35:52Z</time>
      </trkpt>
      <trkpt lat="44.38532" lon="5.62337">
        <ele>1053.3</ele>
        <time>2021-09-07T16:35:53Z</time>
      </trkpt>
      <trkpt lat="44.38533" lon="5.6234">
        <ele>1053.4</ele>
        <time>2021-09-07T16:35:54Z</time>
      </trkpt>
      <trkpt lat="44.38534" lon="5.62342">
        <ele>1053.4</ele>
        <time>2021-09-07T16:35:55Z</time>
      </trkpt>
      <trkpt lat="44.38534" lon="5.62343">
        <ele>1053.5</ele>
        <time>2021-09-07T16:35:56Z</time>
      </trkpt>
      <trkpt lat="44.38534" lon="5.62347">
        <ele>1053.6</ele>
        <time>2021-09-07T16:35:57Z</time>
      </trkpt>
      <trkpt lat="44.38534" lon="5.62349">
        <ele>1053.7</ele>
        <time>2021-09-07T16:35:58Z</time>
      </trkpt>
      <trkpt lat="44.38534" lon="5.62352">
        <ele>1053.8</ele>
        <time>2021-09-07T16:35:59Z</time>
      </trkpt>
      <trkpt lat="44.38535" lon="5.62354">
        <ele>1053.9</ele>
        <time>2021-09-07T16:36:00Z</time>
      </trkpt>
      <trkpt lat="44.38535" lon="5.62356">
        <ele>1054</ele>
        <time>2021-09-07T16:36:01Z</time>
      </trkpt>
      <trkpt lat="44.38536" lon="5.6236">
        <ele>1054.1</ele>
        <time>2021-09-07T16:36:02Z</time>
      </trkpt>
      <trkpt lat="44.38537" lon="5.62363">
        <ele>1054.3</ele>
        <time>2021-09-07T16:36:03Z</time>
      </trkpt>
      <trkpt lat="44.38537" lon="5.62366">
        <ele>1054.4</ele>
        <time>2021-09-07T16:36:04Z</time>
      </trkpt>
      <trkpt lat="44.38538" lon="5.62368">
        <ele>1054.4</ele>
        <time>2021-09-07T16:36:05Z</time>
      </trkpt>
      <trkpt lat="44.38538" lon="5.6237">
        <ele>1054.5</ele>
        <time>2021-09-07T16:36:06Z</time>
      </trkpt>
      <trkpt lat="44.38538" lon="5.62372">
        <ele>1054.6</ele>
        <time>2021-09-07T16:36:07Z</time>
      </trkpt>
      <trkpt lat="44.38539" lon="5.62375">
        <ele>1054.7</ele>
        <time>2021-09-07T16:36:08Z</time>
      </trkpt>
      <trkpt lat="44.3854" lon="5.62381">
        <ele>1054.9</ele>
        <time>2021-09-07T16:36:09Z</time>
      </trkpt>
      <trkpt lat="44.38541" lon="5.62382">
        <ele>1055</ele>
        <time>2021-09-07T16:36:10Z</time>
      </trkpt>
      <trkpt lat="44.38541" lon="5.62383">
        <ele>1055</ele>
        <time>2021-09-07T16:36:11Z</time>
      </trkpt>
      <trkpt lat="44.38541" lon="5.62385">
        <ele>1055.1</ele>
        <time>2021-09-07T16:36:12Z</time>
      </trkpt>
      <trkpt lat="44.38542" lon="5.62387">
        <ele>1055.2</ele>
        <time>2021-09-07T16:36:13Z</time>
      </trkpt>
      <trkpt lat="44.38543" lon="5.62389">
        <ele>1055.3</ele>
        <time>2021-09-07T16:36:14Z</time>
      </trkpt>
      <trkpt lat="44.38544" lon="5.62391">
        <ele>1055.4</ele>
        <time>2021-09-07T16:36:15Z</time>
      </trkpt>
      <trkpt lat="44.38546" lon="5.62396">
        <ele>1055.6</ele>
        <time>2021-09-07T16:36:16Z</time>
      </trkpt>
      <trkpt lat="44.38546" lon="5.62398">
        <ele>1055.6</ele>
        <time>2021-09-07T16:36:17Z</time>
      </trkpt>
      <trkpt lat="44.38546" lon="5.624">
        <ele>1055.7</ele>
        <time>2021-09-07T16:36:18Z</time>
      </trkpt>
      <trkpt lat="44.38547" lon="5.62402">
        <ele>1055.8</ele>
        <time>2021-09-07T16:36:19Z</time>
      </trkpt>
      <trkpt lat="44.38548" lon="5.62404">
        <ele>1055.9</ele>
        <time>2021-09-07T16:36:20Z</time>
      </trkpt>
      <trkpt lat="44.38549" lon="5.62409">
        <ele>1056.1</ele>
        <time>2021-09-07T16:36:21Z</time>
      </trkpt>
      <trkpt lat="44.3855" lon="5.62411">
        <ele>1056.1</ele>
        <time>2021-09-07T16:36:22Z</time>
      </trkpt>
      <trkpt lat="44.38551" lon="5.62412">
        <ele>1056.2</ele>
        <time>2021-09-07T16:36:23Z</time>
      </trkpt>
      <trkpt lat="44.38552" lon="5.62413">
        <ele>1056.3</ele>
        <time>2021-09-07T16:36:24Z</time>
      </trkpt>
      <trkpt lat="44.38554" lon="5.62415">
        <ele>1056.4</ele>
        <time>2021-09-07T16:36:25Z</time>
      </trkpt>
      <trkpt lat="44.38555" lon="5.62416">
        <ele>1056.5</ele>
        <time>2021-09-07T16:36:26Z</time>
      </trkpt>
      <trkpt lat="44.38556" lon="5.62417">
        <ele>1056.5</ele>
        <time>2021-09-07T16:36:27Z</time>
      </trkpt>
      <trkpt lat="44.38558" lon="5.6242">
        <ele>1056.7</ele>
        <time>2021-09-07T16:36:28Z</time>
      </trkpt>
      <trkpt lat="44.3856" lon="5.62422">
        <ele>1056.8</ele>
        <time>2021-09-07T16:36:29Z</time>
      </trkpt>
      <trkpt lat="44.38561" lon="5.62423">
        <ele>1056.8</ele>
        <time>2021-09-07T16:36:30Z</time>
      </trkpt>
      <trkpt lat="44.38561" lon="5.62425">
        <ele>1056.9</ele>
        <time>2021-09-07T16:36:31Z</time>
      </trkpt>
      <trkpt lat="44.38562" lon="5.62426">
        <ele>1057</ele>
        <time>2021-09-07T16:36:32Z</time>
      </trkpt>
      <trkpt lat="44.38563" lon="5.62428">
        <ele>1057.1</ele>
        <time>2021-09-07T16:36:33Z</time>
      </trkpt>
      <trkpt lat="44.38564" lon="5.62431">
        <ele>1057.2</ele>
        <time>2021-09-07T16:36:34Z</time>
      </trkpt>
      <trkpt lat="44.38565" lon="5.62432">
        <ele>1057.2</ele>
        <time>2021-09-07T16:36:35Z</time>
      </trkpt>
      <trkpt lat="44.38565" lon="5.62432">
        <ele>1057.2</ele>
        <time>2021-09-07T16:36:36Z</time>
      </trkpt>
      <trkpt lat="44.38567" lon="5.62433">
        <ele>1057.4</ele>
        <time>2021-09-07T16:36:37Z</time>
      </trkpt>
      <trkpt lat="44.38568" lon="5.62434">
        <ele>1057.4</ele>
        <time>2021-09-07T16:36:38Z</time>
      </trkpt>
      <trkpt lat="44.3857" lon="5.62436">
        <ele>1057.5</ele>
        <time>2021-09-07T16:36:39Z</time>
      </trkpt>
      <trkpt lat="44.38571" lon="5.62438">
        <ele>1057.6</ele>
        <time>2021-09-07T16:36:40Z</time>
      </trkpt>
      <trkpt lat="44.38572" lon="5.62438">
        <ele>1057.7</ele>
        <time>2021-09-07T16:36:41Z</time>
      </trkpt>
      <trkpt lat="44.38573" lon="5.62439">
        <ele>1057.7</ele>
        <time>2021-09-07T16:36:42Z</time>
      </trkpt>
      <trkpt lat="44.38574" lon="5.6244">
        <ele>1057.8</ele>
        <time>2021-09-07T16:36:43Z</time>
      </trkpt>
      <trkpt lat="44.38574" lon="5.6244">
        <ele>1057.8</ele>
        <time>2021-09-07T16:36:44Z</time>
      </trkpt>
      <trkpt lat="44.38575" lon="5.62442">
        <ele>1057.9</ele>
        <time>2021-09-07T16:36:45Z</time>
      </trkpt>
      <trkpt lat="44.38577" lon="5.62443">
        <ele>1058</ele>
        <time>2021-09-07T16:36:46Z</time>
      </trkpt>
      <trkpt lat="44.38578" lon="5.62444">
        <ele>1058.1</ele>
        <time>2021-09-07T16:36:47Z</time>
      </trkpt>
      <trkpt lat="44.38579" lon="5.62445">
        <ele>1058.1</ele>
        <time>2021-09-07T16:36:48Z</time>
      </trkpt>
      <trkpt lat="44.38579" lon="5.62445">
        <ele>1058.1</ele>
        <time>2021-09-07T16:36:49Z</time>
      </trkpt>
      <trkpt lat="44.3858" lon="5.62446">
        <ele>1058.2</ele>
        <time>2021-09-07T16:36:50Z</time>
      </trkpt>
      <trkpt lat="44.38581" lon="5.62447">
        <ele>1058.2</ele>
        <time>2021-09-07T16:36:51Z</time>
      </trkpt>
      <trkpt lat="44.38583" lon="5.62448">
        <ele>1058.3</ele>
        <time>2021-09-07T16:36:52Z</time>
      </trkpt>
      <trkpt lat="44.38585" lon="5.62449">
        <ele>1058.4</ele>
        <time>2021-09-07T16:36:53Z</time>
      </trkpt>
      <trkpt lat="44.38586" lon="5.6245">
        <ele>1058.5</ele>
        <time>2021-09-07T16:36:54Z</time>
      </trkpt>
      <trkpt lat="44.38587" lon="5.62451">
        <ele>1058.6</ele>
        <time>2021-09-07T16:36:55Z</time>
      </trkpt>
      <trkpt lat="44.38588" lon="5.62452">
        <ele>1058.6</ele>
        <time>2021-09-07T16:36:56Z</time>
      </trkpt>
      <trkpt lat="44.3859" lon="5.62453">
        <ele>1058.7</ele>
        <time>2021-09-07T16:36:57Z</time>
      </trkpt>
      <trkpt lat="44.38591" lon="5.62454">
        <ele>1058.8</ele>
        <time>2021-09-07T16:36:58Z</time>
      </trkpt>
      <trkpt lat="44.38592" lon="5.62456">
        <ele>1058.9</ele>
        <time>2021-09-07T16:36:59Z</time>
      </trkpt>
      <trkpt lat="44.38593" lon="5.62457">
        <ele>1058.9</ele>
        <time>2021-09-07T16:37:00Z</time>
      </trkpt>
      <trkpt lat="44.38594" lon="5.62458">
        <ele>1059</ele>
        <time>2021-09-07T16:37:01Z</time>
      </trkpt>
      <trkpt lat="44.38595" lon="5.62459">
        <ele>1059.1</ele>
        <time>2021-09-07T16:37:02Z</time>
      </trkpt>
      <trkpt lat="44.38595" lon="5.6246">
        <ele>1059.1</ele>
        <time>2021-09-07T16:37:03Z</time>
      </trkpt>
      <trkpt lat="44.38596" lon="5.62462">
        <ele>1059.2</ele>
        <time>2021-09-07T16:37:04Z</time>
      </trkpt>
      <trkpt lat="44.38597" lon="5.62464">
        <ele>1059.3</ele>
        <time>2021-09-07T16:37:05Z</time>
      </trkpt>
      <trkpt lat="44.38598" lon="5.62465">
        <ele>1059.3</ele>
        <time>2021-09-07T16:37:06Z</time>
      </trkpt>
      <trkpt lat="44.38599" lon="5.62466">
        <ele>1059.4</ele>
        <time>2021-09-07T16:37:07Z</time>
      </trkpt>
      <trkpt lat="44.38601" lon="5.62468">
        <ele>1059.5</ele>
        <time>2021-09-07T16:37:08Z</time>
      </trkpt>
      <trkpt lat="44.38602" lon="5.62469">
        <ele>1059.5</ele>
        <time>2021-09-07T16:37:09Z</time>
      </trkpt>
      <trkpt lat="44.38602" lon="5.62469">
        <ele>1059.6</ele>
        <time>2021-09-07T16:37:10Z</time>
      </trkpt>
      <trkpt lat="44.38604" lon="5.6247">
        <ele>1059.7</ele>
        <time>2021-09-07T16:37:11Z</time>
      </trkpt>
      <trkpt lat="44.38603" lon="5.62472">
        <ele>1059.8</ele>
        <time>2021-09-07T16:37:12Z</time>
      </trkpt>
      <trkpt lat="44.38603" lon="5.62474">
        <ele>1059.8</ele>
        <time>2021-09-07T16:37:13Z</time>
      </trkpt>
      <trkpt lat="44.38604" lon="5.62475">
        <ele>1059.9</ele>
        <time>2021-09-07T16:37:14Z</time>
      </trkpt>
      <trkpt lat="44.38605" lon="5.62477">
        <ele>1060</ele>
        <time>2021-09-07T16:37:15Z</time>
      </trkpt>
      <trkpt lat="44.38606" lon="5.62478">
        <ele>1060.1</ele>
        <time>2021-09-07T16:37:16Z</time>
      </trkpt>
      <trkpt lat="44.38607" lon="5.62479">
        <ele>1060.1</ele>
        <time>2021-09-07T16:37:17Z</time>
      </trkpt>
      <trkpt lat="44.38609" lon="5.6248">
        <ele>1060.2</ele>
        <time>2021-09-07T16:37:18Z</time>
      </trkpt>
      <trkpt lat="44.38611" lon="5.62482">
        <ele>1060.3</ele>
        <time>2021-09-07T16:37:19Z</time>
      </trkpt>
      <trkpt lat="44.38613" lon="5.62483">
        <ele>1060.5</ele>
        <time>2021-09-07T16:37:20Z</time>
      </trkpt>
      <trkpt lat="44.38615" lon="5.62484">
        <ele>1060.5</ele>
        <time>2021-09-07T16:37:21Z</time>
      </trkpt>
      <trkpt lat="44.38616" lon="5.62484">
        <ele>1060.6</ele>
        <time>2021-09-07T16:37:22Z</time>
      </trkpt>
      <trkpt lat="44.38618" lon="5.62484">
        <ele>1060.7</ele>
        <time>2021-09-07T16:37:23Z</time>
      </trkpt>
      <trkpt lat="44.3862" lon="5.62485">
        <ele>1060.8</ele>
        <time>2021-09-07T16:37:24Z</time>
      </trkpt>
      <trkpt lat="44.38621" lon="5.62486">
        <ele>1060.9</ele>
        <time>2021-09-07T16:37:25Z</time>
      </trkpt>
      <trkpt lat="44.38623" lon="5.62487">
        <ele>1061</ele>
        <time>2021-09-07T16:37:26Z</time>
      </trkpt>
      <trkpt lat="44.38624" lon="5.62487">
        <ele>1061</ele>
        <time>2021-09-07T16:37:27Z</time>
      </trkpt>
      <trkpt lat="44.38626" lon="5.62487">
        <ele>1061.1</ele>
        <time>2021-09-07T16:37:28Z</time>
      </trkpt>
      <trkpt lat="44.38627" lon="5.62488">
        <ele>1061.2</ele>
        <time>2021-09-07T16:37:29Z</time>
      </trkpt>
      <trkpt lat="44.38628" lon="5.62489">
        <ele>1061.3</ele>
        <time>2021-09-07T16:37:30Z</time>
      </trkpt>
      <trkpt lat="44.38629" lon="5.6249">
        <ele>1061.3</ele>
        <time>2021-09-07T16:37:31Z</time>
      </trkpt>
      <trkpt lat="44.38629" lon="5.62491">
        <ele>1061.3</ele>
        <time>2021-09-07T16:37:32Z</time>
      </trkpt>
      <trkpt lat="44.3863" lon="5.62492">
        <ele>1061.4</ele>
        <time>2021-09-07T16:37:33Z</time>
      </trkpt>
      <trkpt lat="44.38631" lon="5.62494">
        <ele>1061.5</ele>
        <time>2021-09-07T16:37:34Z</time>
      </trkpt>
      <trkpt lat="44.38631" lon="5.62495">
        <ele>1061.5</ele>
        <time>2021-09-07T16:37:35Z</time>
      </trkpt>
      <trkpt lat="44.38632" lon="5.62496">
        <ele>1061.6</ele>
        <time>2021-09-07T16:37:36Z</time>
      </trkpt>
      <trkpt lat="44.38633" lon="5.62496">
        <ele>1061.6</ele>
        <time>2021-09-07T16:37:37Z</time>
      </trkpt>
      <trkpt lat="44.38634" lon="5.62496">
        <ele>1061.7</ele>
        <time>2021-09-07T16:37:38Z</time>
      </trkpt>
      <trkpt lat="44.38636" lon="5.62498">
        <ele>1061.8</ele>
        <time>2021-09-07T16:37:39Z</time>
      </trkpt>
      <trkpt lat="44.38637" lon="5.62499">
        <ele>1061.8</ele>
        <time>2021-09-07T16:37:40Z</time>
      </trkpt>
      <trkpt lat="44.38637" lon="5.625">
        <ele>1061.9</ele>
        <time>2021-09-07T16:37:41Z</time>
      </trkpt>
      <trkpt lat="44.38638" lon="5.62501">
        <ele>1062</ele>
        <time>2021-09-07T16:37:42Z</time>
      </trkpt>
      <trkpt lat="44.38639" lon="5.62503">
        <ele>1062</ele>
        <time>2021-09-07T16:37:43Z</time>
      </trkpt>
      <trkpt lat="44.3864" lon="5.62505">
        <ele>1062.1</ele>
        <time>2021-09-07T16:37:44Z</time>
      </trkpt>
      <trkpt lat="44.38641" lon="5.62507">
        <ele>1062.2</ele>
        <time>2021-09-07T16:37:45Z</time>
      </trkpt>
      <trkpt lat="44.38642" lon="5.62507">
        <ele>1062.3</ele>
        <time>2021-09-07T16:37:46Z</time>
      </trkpt>
      <trkpt lat="44.38642" lon="5.62507">
        <ele>1062.3</ele>
        <time>2021-09-07T16:37:47Z</time>
      </trkpt>
      <trkpt lat="44.38643" lon="5.62508">
        <ele>1062.3</ele>
        <time>2021-09-07T16:37:48Z</time>
      </trkpt>
      <trkpt lat="44.38644" lon="5.6251">
        <ele>1062.4</ele>
        <time>2021-09-07T16:37:49Z</time>
      </trkpt>
      <trkpt lat="44.38646" lon="5.62512">
        <ele>1062.5</ele>
        <time>2021-09-07T16:37:50Z</time>
      </trkpt>
      <trkpt lat="44.38646" lon="5.62513">
        <ele>1062.6</ele>
        <time>2021-09-07T16:37:51Z</time>
      </trkpt>
      <trkpt lat="44.38646" lon="5.62513">
        <ele>1062.6</ele>
        <time>2021-09-07T16:37:52Z</time>
      </trkpt>
      <trkpt lat="44.38647" lon="5.62515">
        <ele>1062.7</ele>
        <time>2021-09-07T16:37:53Z</time>
      </trkpt>
      <trkpt lat="44.38647" lon="5.62515">
        <ele>1062.7</ele>
        <time>2021-09-07T16:37:54Z</time>
      </trkpt>
      <trkpt lat="44.38647" lon="5.62516">
        <ele>1062.7</ele>
        <time>2021-09-07T16:37:55Z</time>
      </trkpt>
      <trkpt lat="44.38649" lon="5.62518">
        <ele>1062.8</ele>
        <time>2021-09-07T16:37:56Z</time>
      </trkpt>
      <trkpt lat="44.3865" lon="5.6252">
        <ele>1062.9</ele>
        <time>2021-09-07T16:37:57Z</time>
      </trkpt>
      <trkpt lat="44.38652" lon="5.62521">
        <ele>1063</ele>
        <time>2021-09-07T16:37:58Z</time>
      </trkpt>
      <trkpt lat="44.38653" lon="5.62522">
        <ele>1063.1</ele>
        <time>2021-09-07T16:37:59Z</time>
      </trkpt>
      <trkpt lat="44.38655" lon="5.62523">
        <ele>1063.2</ele>
        <time>2021-09-07T16:38:00Z</time>
      </trkpt>
      <trkpt lat="44.38658" lon="5.62524">
        <ele>1063.3</ele>
        <time>2021-09-07T16:38:01Z</time>
      </trkpt>
      <trkpt lat="44.38659" lon="5.62525">
        <ele>1063.4</ele>
        <time>2021-09-07T16:38:02Z</time>
      </trkpt>
      <trkpt lat="44.38662" lon="5.62526">
        <ele>1063.5</ele>
        <time>2021-09-07T16:38:03Z</time>
      </trkpt>
      <trkpt lat="44.38664" lon="5.62526">
        <ele>1063.6</ele>
        <time>2021-09-07T16:38:04Z</time>
      </trkpt>
      <trkpt lat="44.38666" lon="5.62527">
        <ele>1063.8</ele>
        <time>2021-09-07T16:38:05Z</time>
      </trkpt>
      <trkpt lat="44.38667" lon="5.62528">
        <ele>1063.8</ele>
        <time>2021-09-07T16:38:06Z</time>
      </trkpt>
      <trkpt lat="44.38668" lon="5.62529">
        <ele>1063.9</ele>
        <time>2021-09-07T16:38:07Z</time>
      </trkpt>
      <trkpt lat="44.3867" lon="5.6253">
        <ele>1064</ele>
        <time>2021-09-07T16:38:08Z</time>
      </trkpt>
      <trkpt lat="44.38672" lon="5.62532">
        <ele>1064.1</ele>
        <time>2021-09-07T16:38:09Z</time>
      </trkpt>
      <trkpt lat="44.38673" lon="5.62533">
        <ele>1064.2</ele>
        <time>2021-09-07T16:38:10Z</time>
      </trkpt>
      <trkpt lat="44.38674" lon="5.62535">
        <ele>1064.3</ele>
        <time>2021-09-07T16:38:11Z</time>
      </trkpt>
      <trkpt lat="44.38675" lon="5.62536">
        <ele>1064.3</ele>
        <time>2021-09-07T16:38:12Z</time>
      </trkpt>
      <trkpt lat="44.38675" lon="5.62537">
        <ele>1064.3</ele>
        <time>2021-09-07T16:38:13Z</time>
      </trkpt>
      <trkpt lat="44.38676" lon="5.62539">
        <ele>1064.4</ele>
        <time>2021-09-07T16:38:14Z</time>
      </trkpt>
      <trkpt lat="44.38677" lon="5.6254">
        <ele>1064.5</ele>
        <time>2021-09-07T16:38:15Z</time>
      </trkpt>
      <trkpt lat="44.38679" lon="5.62542">
        <ele>1064.6</ele>
        <time>2021-09-07T16:38:16Z</time>
      </trkpt>
      <trkpt lat="44.3868" lon="5.62543">
        <ele>1064.7</ele>
        <time>2021-09-07T16:38:17Z</time>
      </trkpt>
      <trkpt lat="44.38681" lon="5.62545">
        <ele>1064.8</ele>
        <time>2021-09-07T16:38:18Z</time>
      </trkpt>
      <trkpt lat="44.38681" lon="5.62546">
        <ele>1064.8</ele>
        <time>2021-09-07T16:38:19Z</time>
      </trkpt>
      <trkpt lat="44.38681" lon="5.62548">
        <ele>1064.9</ele>
        <time>2021-09-07T16:38:20Z</time>
      </trkpt>
      <trkpt lat="44.38682" lon="5.62549">
        <ele>1064.9</ele>
        <time>2021-09-07T16:38:21Z</time>
      </trkpt>
      <trkpt lat="44.38684" lon="5.6255">
        <ele>1065</ele>
        <time>2021-09-07T16:38:22Z</time>
      </trkpt>
      <trkpt lat="44.38684" lon="5.62551">
        <ele>1065.1</ele>
        <time>2021-09-07T16:38:23Z</time>
      </trkpt>
      <trkpt lat="44.38685" lon="5.62552">
        <ele>1065.1</ele>
        <time>2021-09-07T16:38:24Z</time>
      </trkpt>
      <trkpt lat="44.38687" lon="5.62553">
        <ele>1065.2</ele>
        <time>2021-09-07T16:38:25Z</time>
      </trkpt>
      <trkpt lat="44.38689" lon="5.62554">
        <ele>1065.3</ele>
        <time>2021-09-07T16:38:26Z</time>
      </trkpt>
      <trkpt lat="44.38691" lon="5.62555">
        <ele>1065.5</ele>
        <time>2021-09-07T16:38:27Z</time>
      </trkpt>
      <trkpt lat="44.38692" lon="5.62555">
        <ele>1065.5</ele>
        <time>2021-09-07T16:38:28Z</time>
      </trkpt>
      <trkpt lat="44.38692" lon="5.62556">
        <ele>1065.5</ele>
        <time>2021-09-07T16:38:29Z</time>
      </trkpt>
      <trkpt lat="44.38692" lon="5.62556">
        <ele>1065.5</ele>
        <time>2021-09-07T16:38:30Z</time>
      </trkpt>
      <trkpt lat="44.38692" lon="5.62556">
        <ele>1065.5</ele>
        <time>2021-09-07T16:38:31Z</time>
      </trkpt>
      <trkpt lat="44.38693" lon="5.62557">
        <ele>1065.6</ele>
        <time>2021-09-07T16:38:32Z</time>
      </trkpt>
      <trkpt lat="44.38694" lon="5.62559">
        <ele>1065.7</ele>
        <time>2021-09-07T16:38:33Z</time>
      </trkpt>
      <trkpt lat="44.38696" lon="5.62561">
        <ele>1065.8</ele>
        <time>2021-09-07T16:38:34Z</time>
      </trkpt>
      <trkpt lat="44.38697" lon="5.62562">
        <ele>1065.9</ele>
        <time>2021-09-07T16:38:35Z</time>
      </trkpt>
      <trkpt lat="44.38698" lon="5.62564">
        <ele>1066</ele>
        <time>2021-09-07T16:38:36Z</time>
      </trkpt>
      <trkpt lat="44.38699" lon="5.62568">
        <ele>1066.1</ele>
        <time>2021-09-07T16:38:37Z</time>
      </trkpt>
      <trkpt lat="44.387" lon="5.62569">
        <ele>1066.2</ele>
        <time>2021-09-07T16:38:38Z</time>
      </trkpt>
      <trkpt lat="44.38701" lon="5.62569">
        <ele>1066.2</ele>
        <time>2021-09-07T16:38:39Z</time>
      </trkpt>
      <trkpt lat="44.38703" lon="5.62573">
        <ele>1066.4</ele>
        <time>2021-09-07T16:38:40Z</time>
      </trkpt>
      <trkpt lat="44.38704" lon="5.62574">
        <ele>1066.5</ele>
        <time>2021-09-07T16:38:41Z</time>
      </trkpt>
      <trkpt lat="44.38705" lon="5.62575">
        <ele>1066.5</ele>
        <time>2021-09-07T16:38:42Z</time>
      </trkpt>
      <trkpt lat="44.38706" lon="5.62576">
        <ele>1066.6</ele>
        <time>2021-09-07T16:38:43Z</time>
      </trkpt>
      <trkpt lat="44.38707" lon="5.62577">
        <ele>1066.6</ele>
        <time>2021-09-07T16:38:44Z</time>
      </trkpt>
      <trkpt lat="44.38709" lon="5.62578">
        <ele>1066.7</ele>
        <time>2021-09-07T16:38:45Z</time>
      </trkpt>
      <trkpt lat="44.38711" lon="5.62579">
        <ele>1066.9</ele>
        <time>2021-09-07T16:38:46Z</time>
      </trkpt>
      <trkpt lat="44.38713" lon="5.6258">
        <ele>1066.9</ele>
        <time>2021-09-07T16:38:47Z</time>
      </trkpt>
      <trkpt lat="44.38714" lon="5.6258">
        <ele>1067</ele>
        <time>2021-09-07T16:38:48Z</time>
      </trkpt>
      <trkpt lat="44.38716" lon="5.62581">
        <ele>1067.1</ele>
        <time>2021-09-07T16:38:49Z</time>
      </trkpt>
      <trkpt lat="44.38718" lon="5.62581">
        <ele>1067.2</ele>
        <time>2021-09-07T16:38:50Z</time>
      </trkpt>
      <trkpt lat="44.38719" lon="5.62582">
        <ele>1067.2</ele>
        <time>2021-09-07T16:38:51Z</time>
      </trkpt>
      <trkpt lat="44.38719" lon="5.62582">
        <ele>1067.3</ele>
        <time>2021-09-07T16:38:52Z</time>
      </trkpt>
      <trkpt lat="44.38721" lon="5.62583">
        <ele>1067.4</ele>
        <time>2021-09-07T16:38:53Z</time>
      </trkpt>
      <trkpt lat="44.38723" lon="5.62585">
        <ele>1067.5</ele>
        <time>2021-09-07T16:38:54Z</time>
      </trkpt>
      <trkpt lat="44.38724" lon="5.62586">
        <ele>1067.6</ele>
        <time>2021-09-07T16:38:55Z</time>
      </trkpt>
      <trkpt lat="44.38724" lon="5.62588">
        <ele>1067.6</ele>
        <time>2021-09-07T16:38:56Z</time>
      </trkpt>
      <trkpt lat="44.38725" lon="5.6259">
        <ele>1067.7</ele>
        <time>2021-09-07T16:38:57Z</time>
      </trkpt>
      <trkpt lat="44.38725" lon="5.62592">
        <ele>1067.8</ele>
        <time>2021-09-07T16:38:58Z</time>
      </trkpt>
      <trkpt lat="44.38725" lon="5.62596">
        <ele>1067.9</ele>
        <time>2021-09-07T16:38:59Z</time>
      </trkpt>
      <trkpt lat="44.38724" lon="5.62597">
        <ele>1068</ele>
        <time>2021-09-07T16:39:00Z</time>
      </trkpt>
      <trkpt lat="44.38725" lon="5.62599">
        <ele>1068.1</ele>
        <time>2021-09-07T16:39:01Z</time>
      </trkpt>
      <trkpt lat="44.38726" lon="5.626">
        <ele>1068.1</ele>
        <time>2021-09-07T16:39:02Z</time>
      </trkpt>
      <trkpt lat="44.38728" lon="5.62601">
        <ele>1068.2</ele>
        <time>2021-09-07T16:39:03Z</time>
      </trkpt>
      <trkpt lat="44.3873" lon="5.62603">
        <ele>1068.3</ele>
        <time>2021-09-07T16:39:04Z</time>
      </trkpt>
      <trkpt lat="44.38731" lon="5.62604">
        <ele>1068.4</ele>
        <time>2021-09-07T16:39:05Z</time>
      </trkpt>
      <trkpt lat="44.38733" lon="5.62605">
        <ele>1068.5</ele>
        <time>2021-09-07T16:39:06Z</time>
      </trkpt>
      <trkpt lat="44.38735" lon="5.62607">
        <ele>1068.7</ele>
        <time>2021-09-07T16:39:07Z</time>
      </trkpt>
      <trkpt lat="44.38736" lon="5.62608">
        <ele>1068.7</ele>
        <time>2021-09-07T16:39:08Z</time>
      </trkpt>
      <trkpt lat="44.38737" lon="5.6261">
        <ele>1068.8</ele>
        <time>2021-09-07T16:39:09Z</time>
      </trkpt>
      <trkpt lat="44.38738" lon="5.62611">
        <ele>1068.9</ele>
        <time>2021-09-07T16:39:10Z</time>
      </trkpt>
      <trkpt lat="44.38741" lon="5.62613">
        <ele>1069</ele>
        <time>2021-09-07T16:39:11Z</time>
      </trkpt>
      <trkpt lat="44.38742" lon="5.62614">
        <ele>1069.1</ele>
        <time>2021-09-07T16:39:12Z</time>
      </trkpt>
      <trkpt lat="44.38743" lon="5.62615">
        <ele>1069.2</ele>
        <time>2021-09-07T16:39:13Z</time>
      </trkpt>
      <trkpt lat="44.38744" lon="5.62616">
        <ele>1069.2</ele>
        <time>2021-09-07T16:39:14Z</time>
      </trkpt>
      <trkpt lat="44.38745" lon="5.62618">
        <ele>1069.3</ele>
        <time>2021-09-07T16:39:15Z</time>
      </trkpt>
      <trkpt lat="44.38748" lon="5.62622">
        <ele>1069.5</ele>
        <time>2021-09-07T16:39:16Z</time>
      </trkpt>
      <trkpt lat="44.38749" lon="5.62623">
        <ele>1069.6</ele>
        <time>2021-09-07T16:39:17Z</time>
      </trkpt>
      <trkpt lat="44.38749" lon="5.62624">
        <ele>1069.6</ele>
        <time>2021-09-07T16:39:18Z</time>
      </trkpt>
      <trkpt lat="44.38751" lon="5.62626">
        <ele>1069.7</ele>
        <time>2021-09-07T16:39:19Z</time>
      </trkpt>
      <trkpt lat="44.38752" lon="5.62628">
        <ele>1069.8</ele>
        <time>2021-09-07T16:39:20Z</time>
      </trkpt>
      <trkpt lat="44.38753" lon="5.6263">
        <ele>1069.9</ele>
        <time>2021-09-07T16:39:21Z</time>
      </trkpt>
      <trkpt lat="44.38755" lon="5.62631">
        <ele>1070</ele>
        <time>2021-09-07T16:39:22Z</time>
      </trkpt>
      <trkpt lat="44.38756" lon="5.62632">
        <ele>1070.1</ele>
        <time>2021-09-07T16:39:23Z</time>
      </trkpt>
      <trkpt lat="44.38757" lon="5.62633">
        <ele>1070.1</ele>
        <time>2021-09-07T16:39:24Z</time>
      </trkpt>
      <trkpt lat="44.38759" lon="5.62633">
        <ele>1070.2</ele>
        <time>2021-09-07T16:39:25Z</time>
      </trkpt>
      <trkpt lat="44.3876" lon="5.62634">
        <ele>1070.3</ele>
        <time>2021-09-07T16:39:26Z</time>
      </trkpt>
      <trkpt lat="44.38761" lon="5.62634">
        <ele>1070.3</ele>
        <time>2021-09-07T16:39:27Z</time>
      </trkpt>
      <trkpt lat="44.38762" lon="5.62633">
        <ele>1070.4</ele>
        <time>2021-09-07T16:39:28Z</time>
      </trkpt>
      <trkpt lat="44.38764" lon="5.62632">
        <ele>1070.5</ele>
        <time>2021-09-07T16:39:29Z</time>
      </trkpt>
      <trkpt lat="44.38766" lon="5.62632">
        <ele>1070.6</ele>
        <time>2021-09-07T16:39:30Z</time>
      </trkpt>
      <trkpt lat="44.38767" lon="5.62632">
        <ele>1070.7</ele>
        <time>2021-09-07T16:39:31Z</time>
      </trkpt>
      <trkpt lat="44.38768" lon="5.62633">
        <ele>1070.7</ele>
        <time>2021-09-07T16:39:32Z</time>
      </trkpt>
      <trkpt lat="44.38769" lon="5.62634">
        <ele>1070.8</ele>
        <time>2021-09-07T16:39:33Z</time>
      </trkpt>
      <trkpt lat="44.3877" lon="5.62635">
        <ele>1070.8</ele>
        <time>2021-09-07T16:39:34Z</time>
      </trkpt>
      <trkpt lat="44.38772" lon="5.62639">
        <ele>1071</ele>
        <time>2021-09-07T16:39:35Z</time>
      </trkpt>
      <trkpt lat="44.38773" lon="5.62641">
        <ele>1071.1</ele>
        <time>2021-09-07T16:39:36Z</time>
      </trkpt>
      <trkpt lat="44.38774" lon="5.62643">
        <ele>1071.2</ele>
        <time>2021-09-07T16:39:37Z</time>
      </trkpt>
      <trkpt lat="44.38774" lon="5.62645">
        <ele>1071.2</ele>
        <time>2021-09-07T16:39:38Z</time>
      </trkpt>
      <trkpt lat="44.38775" lon="5.62647">
        <ele>1071.3</ele>
        <time>2021-09-07T16:39:39Z</time>
      </trkpt>
      <trkpt lat="44.38775" lon="5.62651">
        <ele>1071.5</ele>
        <time>2021-09-07T16:39:40Z</time>
      </trkpt>
      <trkpt lat="44.38776" lon="5.62653">
        <ele>1071.5</ele>
        <time>2021-09-07T16:39:41Z</time>
      </trkpt>
      <trkpt lat="44.38776" lon="5.62654">
        <ele>1071.6</ele>
        <time>2021-09-07T16:39:42Z</time>
      </trkpt>
      <trkpt lat="44.38776" lon="5.62656">
        <ele>1071.7</ele>
        <time>2021-09-07T16:39:43Z</time>
      </trkpt>
      <trkpt lat="44.38775" lon="5.62658">
        <ele>1071.7</ele>
        <time>2021-09-07T16:39:44Z</time>
      </trkpt>
      <trkpt lat="44.38776" lon="5.62661">
        <ele>1071.9</ele>
        <time>2021-09-07T16:39:45Z</time>
      </trkpt>
      <trkpt lat="44.38776" lon="5.62664">
        <ele>1072</ele>
        <time>2021-09-07T16:39:46Z</time>
      </trkpt>
      <trkpt lat="44.38777" lon="5.62665">
        <ele>1072</ele>
        <time>2021-09-07T16:39:47Z</time>
      </trkpt>
      <trkpt lat="44.38777" lon="5.62666">
        <ele>1072.1</ele>
        <time>2021-09-07T16:39:48Z</time>
      </trkpt>
      <trkpt lat="44.38778" lon="5.62668">
        <ele>1072.1</ele>
        <time>2021-09-07T16:39:49Z</time>
      </trkpt>
      <trkpt lat="44.38779" lon="5.62669">
        <ele>1072.2</ele>
        <time>2021-09-07T16:39:50Z</time>
      </trkpt>
      <trkpt lat="44.3878" lon="5.6267">
        <ele>1072.3</ele>
        <time>2021-09-07T16:39:51Z</time>
      </trkpt>
      <trkpt lat="44.38781" lon="5.62671">
        <ele>1072.3</ele>
        <time>2021-09-07T16:39:52Z</time>
      </trkpt>
      <trkpt lat="44.38782" lon="5.62673">
        <ele>1072.4</ele>
        <time>2021-09-07T16:39:53Z</time>
      </trkpt>
      <trkpt lat="44.38783" lon="5.62674">
        <ele>1072.5</ele>
        <time>2021-09-07T16:39:54Z</time>
      </trkpt>
      <trkpt lat="44.38784" lon="5.62675">
        <ele>1072.5</ele>
        <time>2021-09-07T16:39:55Z</time>
      </trkpt>
      <trkpt lat="44.38785" lon="5.62676">
        <ele>1072.6</ele>
        <time>2021-09-07T16:39:56Z</time>
      </trkpt>
      <trkpt lat="44.38786" lon="5.62678">
        <ele>1072.7</ele>
        <time>2021-09-07T16:39:57Z</time>
      </trkpt>
      <trkpt lat="44.38787" lon="5.62679">
        <ele>1072.8</ele>
        <time>2021-09-07T16:39:58Z</time>
      </trkpt>
      <trkpt lat="44.38789" lon="5.62681">
        <ele>1072.9</ele>
        <time>2021-09-07T16:39:59Z</time>
      </trkpt>
      <trkpt lat="44.38791" lon="5.62683">
        <ele>1073</ele>
        <time>2021-09-07T16:40:00Z</time>
      </trkpt>
      <trkpt lat="44.38792" lon="5.62684">
        <ele>1073</ele>
        <time>2021-09-07T16:40:01Z</time>
      </trkpt>
      <trkpt lat="44.38792" lon="5.62685">
        <ele>1073.1</ele>
        <time>2021-09-07T16:40:02Z</time>
      </trkpt>
      <trkpt lat="44.38793" lon="5.62686">
        <ele>1073.1</ele>
        <time>2021-09-07T16:40:03Z</time>
      </trkpt>
      <trkpt lat="44.38795" lon="5.62687">
        <ele>1073.3</ele>
        <time>2021-09-07T16:40:04Z</time>
      </trkpt>
      <trkpt lat="44.38796" lon="5.62688">
        <ele>1073.3</ele>
        <time>2021-09-07T16:40:05Z</time>
      </trkpt>
      <trkpt lat="44.38797" lon="5.62689">
        <ele>1073.4</ele>
        <time>2021-09-07T16:40:06Z</time>
      </trkpt>
      <trkpt lat="44.38798" lon="5.6269">
        <ele>1073.4</ele>
        <time>2021-09-07T16:40:07Z</time>
      </trkpt>
      <trkpt lat="44.388" lon="5.62691">
        <ele>1073.5</ele>
        <time>2021-09-07T16:40:08Z</time>
      </trkpt>
      <trkpt lat="44.38801" lon="5.62692">
        <ele>1073.6</ele>
        <time>2021-09-07T16:40:09Z</time>
      </trkpt>
      <trkpt lat="44.38802" lon="5.62692">
        <ele>1073.7</ele>
        <time>2021-09-07T16:40:10Z</time>
      </trkpt>
      <trkpt lat="44.38804" lon="5.62692">
        <ele>1073.8</ele>
        <time>2021-09-07T16:40:11Z</time>
      </trkpt>
      <trkpt lat="44.38808" lon="5.62693">
        <ele>1074</ele>
        <time>2021-09-07T16:40:12Z</time>
      </trkpt>
      <trkpt lat="44.38809" lon="5.62694">
        <ele>1074</ele>
        <time>2021-09-07T16:40:13Z</time>
      </trkpt>
      <trkpt lat="44.38809" lon="5.62695">
        <ele>1074</ele>
        <time>2021-09-07T16:40:14Z</time>
      </trkpt>
      <trkpt lat="44.3881" lon="5.62696">
        <ele>1074.1</ele>
        <time>2021-09-07T16:40:15Z</time>
      </trkpt>
      <trkpt lat="44.38811" lon="5.62697">
        <ele>1074.2</ele>
        <time>2021-09-07T16:40:16Z</time>
      </trkpt>
      <trkpt lat="44.38812" lon="5.62698">
        <ele>1074.2</ele>
        <time>2021-09-07T16:40:17Z</time>
      </trkpt>
      <trkpt lat="44.38812" lon="5.62698">
        <ele>1074.2</ele>
        <time>2021-09-07T16:40:18Z</time>
      </trkpt>
      <trkpt lat="44.38813" lon="5.627">
        <ele>1074.3</ele>
        <time>2021-09-07T16:40:19Z</time>
      </trkpt>
      <trkpt lat="44.38814" lon="5.62701">
        <ele>1074.4</ele>
        <time>2021-09-07T16:40:20Z</time>
      </trkpt>
      <trkpt lat="44.38815" lon="5.62703">
        <ele>1074.5</ele>
        <time>2021-09-07T16:40:21Z</time>
      </trkpt>
      <trkpt lat="44.38816" lon="5.62706">
        <ele>1074.6</ele>
        <time>2021-09-07T16:40:22Z</time>
      </trkpt>
      <trkpt lat="44.38818" lon="5.62708">
        <ele>1074.7</ele>
        <time>2021-09-07T16:40:23Z</time>
      </trkpt>
      <trkpt lat="44.38819" lon="5.62709">
        <ele>1074.8</ele>
        <time>2021-09-07T16:40:24Z</time>
      </trkpt>
      <trkpt lat="44.3882" lon="5.6271">
        <ele>1074.8</ele>
        <time>2021-09-07T16:40:25Z</time>
      </trkpt>
      <trkpt lat="44.38821" lon="5.62711">
        <ele>1074.9</ele>
        <time>2021-09-07T16:40:26Z</time>
      </trkpt>
      <trkpt lat="44.38822" lon="5.62712">
        <ele>1074.9</ele>
        <time>2021-09-07T16:40:27Z</time>
      </trkpt>
      <trkpt lat="44.38824" lon="5.62713">
        <ele>1075.1</ele>
        <time>2021-09-07T16:40:28Z</time>
      </trkpt>
      <trkpt lat="44.38825" lon="5.62715">
        <ele>1075.1</ele>
        <time>2021-09-07T16:40:29Z</time>
      </trkpt>
      <trkpt lat="44.38826" lon="5.62717">
        <ele>1075.2</ele>
        <time>2021-09-07T16:40:30Z</time>
      </trkpt>
      <trkpt lat="44.38826" lon="5.62719">
        <ele>1075.3</ele>
        <time>2021-09-07T16:40:31Z</time>
      </trkpt>
      <trkpt lat="44.38826" lon="5.6272">
        <ele>1075.3</ele>
        <time>2021-09-07T16:40:32Z</time>
      </trkpt>
      <trkpt lat="44.38827" lon="5.62723">
        <ele>1075.5</ele>
        <time>2021-09-07T16:40:33Z</time>
      </trkpt>
      <trkpt lat="44.38828" lon="5.62724">
        <ele>1075.5</ele>
        <time>2021-09-07T16:40:34Z</time>
      </trkpt>
      <trkpt lat="44.38828" lon="5.62725">
        <ele>1075.5</ele>
        <time>2021-09-07T16:40:35Z</time>
      </trkpt>
      <trkpt lat="44.38828" lon="5.62729">
        <ele>1075.7</ele>
        <time>2021-09-07T16:40:36Z</time>
      </trkpt>
      <trkpt lat="44.38829" lon="5.62729">
        <ele>1075.7</ele>
        <time>2021-09-07T16:40:37Z</time>
      </trkpt>
      <trkpt lat="44.38829" lon="5.62729">
        <ele>1075.7</ele>
        <time>2021-09-07T16:40:38Z</time>
      </trkpt>
      <trkpt lat="44.38829" lon="5.6273">
        <ele>1075.8</ele>
        <time>2021-09-07T16:40:39Z</time>
      </trkpt>
      <trkpt lat="44.38829" lon="5.62731">
        <ele>1075.8</ele>
        <time>2021-09-07T16:40:40Z</time>
      </trkpt>
      <trkpt lat="44.38829" lon="5.62731">
        <ele>1075.8</ele>
        <time>2021-09-07T16:40:41Z</time>
      </trkpt>
      <trkpt lat="44.38829" lon="5.62731">
        <ele>1075.8</ele>
        <time>2021-09-07T16:40:42Z</time>
      </trkpt>
      <trkpt lat="44.38829" lon="5.62731">
        <ele>1075.8</ele>
        <time>2021-09-07T16:40:43Z</time>
      </trkpt>
      <trkpt lat="44.38829" lon="5.62732">
        <ele>1075.8</ele>
        <time>2021-09-07T16:40:44Z</time>
      </trkpt>
      <trkpt lat="44.38829" lon="5.62732">
        <ele>1075.8</ele>
        <time>2021-09-07T16:40:45Z</time>
      </trkpt>
      <trkpt lat="44.38829" lon="5.62732">
        <ele>1075.8</ele>
        <time>2021-09-07T16:40:46Z</time>
      </trkpt>
      <trkpt lat="44.38829" lon="5.62732">
        <ele>1075.8</ele>
        <time>2021-09-07T16:40:47Z</time>
      </trkpt>
      <trkpt lat="44.38829" lon="5.62732">
        <ele>1075.8</ele>
        <time>2021-09-07T16:40:48Z</time>
      </trkpt>
      <trkpt lat="44.38829" lon="5.62732">
        <ele>1075.8</ele>
        <time>2021-09-07T16:40:49Z</time>
      </trkpt>
      <trkpt lat="44.38828" lon="5.62732">
        <ele>1075.9</ele>
        <time>2021-09-07T16:40:50Z</time>
      </trkpt>
      <trkpt lat="44.38829" lon="5.62732">
        <ele>1075.9</ele>
        <time>2021-09-07T16:40:51Z</time>
      </trkpt>
      <trkpt lat="44.38829" lon="5.62733">
        <ele>1076</ele>
        <time>2021-09-07T16:40:52Z</time>
      </trkpt>
      <trkpt lat="44.38829" lon="5.62734">
        <ele>1076</ele>
        <time>2021-09-07T16:40:53Z</time>
      </trkpt>
      <trkpt lat="44.38829" lon="5.62736">
        <ele>1076.1</ele>
        <time>2021-09-07T16:40:54Z</time>
      </trkpt>
      <trkpt lat="44.38829" lon="5.62739">
        <ele>1076.2</ele>
        <time>2021-09-07T16:40:55Z</time>
      </trkpt>
      <trkpt lat="44.3883" lon="5.62743">
        <ele>1076.3</ele>
        <time>2021-09-07T16:40:56Z</time>
      </trkpt>
      <trkpt lat="44.3883" lon="5.62745">
        <ele>1076.4</ele>
        <time>2021-09-07T16:40:57Z</time>
      </trkpt>
      <trkpt lat="44.3883" lon="5.62746">
        <ele>1076.5</ele>
        <time>2021-09-07T16:40:58Z</time>
      </trkpt>
      <trkpt lat="44.3883" lon="5.62748">
        <ele>1076.5</ele>
        <time>2021-09-07T16:40:59Z</time>
      </trkpt>
      <trkpt lat="44.3883" lon="5.62749">
        <ele>1076.6</ele>
        <time>2021-09-07T16:41:00Z</time>
      </trkpt>
      <trkpt lat="44.38829" lon="5.6275">
        <ele>1076.6</ele>
        <time>2021-09-07T16:41:01Z</time>
      </trkpt>
      <trkpt lat="44.38829" lon="5.62751">
        <ele>1076.6</ele>
        <time>2021-09-07T16:41:02Z</time>
      </trkpt>
      <trkpt lat="44.38828" lon="5.62752">
        <ele>1076.7</ele>
        <time>2021-09-07T16:41:03Z</time>
      </trkpt>
      <trkpt lat="44.38828" lon="5.62753">
        <ele>1076.7</ele>
        <time>2021-09-07T16:41:04Z</time>
      </trkpt>
      <trkpt lat="44.38828" lon="5.62753">
        <ele>1076.7</ele>
        <time>2021-09-07T16:41:05Z</time>
      </trkpt>
      <trkpt lat="44.38827" lon="5.62755">
        <ele>1076.8</ele>
        <time>2021-09-07T16:41:06Z</time>
      </trkpt>
      <trkpt lat="44.38826" lon="5.62757">
        <ele>1076.9</ele>
        <time>2021-09-07T16:41:07Z</time>
      </trkpt>
      <trkpt lat="44.38825" lon="5.62758">
        <ele>1076.3</ele>
        <time>2021-09-07T16:41:08Z</time>
      </trkpt>
      <trkpt lat="44.38824" lon="5.6276">
        <ele>1076.4</ele>
        <time>2021-09-07T16:41:09Z</time>
      </trkpt>
      <trkpt lat="44.38822" lon="5.62761">
        <ele>1075.9</ele>
        <time>2021-09-07T16:41:10Z</time>
      </trkpt>
      <trkpt lat="44.3882" lon="5.62762">
        <ele>1076</ele>
        <time>2021-09-07T16:41:11Z</time>
      </trkpt>
      <trkpt lat="44.38819" lon="5.62763">
        <ele>1075.6</ele>
        <time>2021-09-07T16:41:12Z</time>
      </trkpt>
      <trkpt lat="44.38817" lon="5.62765">
        <ele>1075.6</ele>
        <time>2021-09-07T16:41:13Z</time>
      </trkpt>
      <trkpt lat="44.38815" lon="5.62766">
        <ele>1075.3</ele>
        <time>2021-09-07T16:41:14Z</time>
      </trkpt>
      <trkpt lat="44.38813" lon="5.62768">
        <ele>1075</ele>
        <time>2021-09-07T16:41:15Z</time>
      </trkpt>
      <trkpt lat="44.3881" lon="5.62769">
        <ele>1074.6</ele>
        <time>2021-09-07T16:41:16Z</time>
      </trkpt>
      <trkpt lat="44.38807" lon="5.6277">
        <ele>1074.2</ele>
        <time>2021-09-07T16:41:17Z</time>
      </trkpt>
      <trkpt lat="44.38806" lon="5.62771">
        <ele>1074.3</ele>
        <time>2021-09-07T16:41:18Z</time>
      </trkpt>
      <trkpt lat="44.38805" lon="5.62771">
        <ele>1074.4</ele>
        <time>2021-09-07T16:41:19Z</time>
      </trkpt>
      <trkpt lat="44.38803" lon="5.62772">
        <ele>1073.9</ele>
        <time>2021-09-07T16:41:20Z</time>
      </trkpt>
      <trkpt lat="44.388" lon="5.62773">
        <ele>1073.6</ele>
        <time>2021-09-07T16:41:21Z</time>
      </trkpt>
      <trkpt lat="44.38797" lon="5.62774">
        <ele>1073.2</ele>
        <time>2021-09-07T16:41:22Z</time>
      </trkpt>
      <trkpt lat="44.38796" lon="5.62775">
        <ele>1073.3</ele>
        <time>2021-09-07T16:41:23Z</time>
      </trkpt>
      <trkpt lat="44.38795" lon="5.62775">
        <ele>1073.4</ele>
        <time>2021-09-07T16:41:24Z</time>
      </trkpt>
      <trkpt lat="44.38794" lon="5.62776">
        <ele>1073.1</ele>
        <time>2021-09-07T16:41:25Z</time>
      </trkpt>
      <trkpt lat="44.38792" lon="5.62776">
        <ele>1073.1</ele>
        <time>2021-09-07T16:41:26Z</time>
      </trkpt>
      <trkpt lat="44.3879" lon="5.62777">
        <ele>1072.8</ele>
        <time>2021-09-07T16:41:27Z</time>
      </trkpt>
      <trkpt lat="44.38788" lon="5.62778">
        <ele>1072.5</ele>
        <time>2021-09-07T16:41:28Z</time>
      </trkpt>
      <trkpt lat="44.38786" lon="5.62779">
        <ele>1072.6</ele>
        <time>2021-09-07T16:41:29Z</time>
      </trkpt>
      <trkpt lat="44.38785" lon="5.6278">
        <ele>1072.2</ele>
        <time>2021-09-07T16:41:30Z</time>
      </trkpt>
      <trkpt lat="44.38784" lon="5.62781">
        <ele>1072.3</ele>
        <time>2021-09-07T16:41:31Z</time>
      </trkpt>
      <trkpt lat="44.38783" lon="5.62782">
        <ele>1072.4</ele>
        <time>2021-09-07T16:41:32Z</time>
      </trkpt>
      <trkpt lat="44.38782" lon="5.62784">
        <ele>1072</ele>
        <time>2021-09-07T16:41:33Z</time>
      </trkpt>
      <trkpt lat="44.38781" lon="5.62786">
        <ele>1072</ele>
        <time>2021-09-07T16:41:34Z</time>
      </trkpt>
      <trkpt lat="44.38779" lon="5.62787">
        <ele>1071.6</ele>
        <time>2021-09-07T16:41:35Z</time>
      </trkpt>
      <trkpt lat="44.38778" lon="5.62787">
        <ele>1071.7</ele>
        <time>2021-09-07T16:41:36Z</time>
      </trkpt>
      <trkpt lat="44.38778" lon="5.62787">
        <ele>1071.7</ele>
        <time>2021-09-07T16:41:37Z</time>
      </trkpt>
      <trkpt lat="44.38777" lon="5.62787">
        <ele>1071.8</ele>
        <time>2021-09-07T16:41:38Z</time>
      </trkpt>
      <trkpt lat="44.38776" lon="5.62787">
        <ele>1071.4</ele>
        <time>2021-09-07T16:41:39Z</time>
      </trkpt>
      <trkpt lat="44.38774" lon="5.62789">
        <ele>1071.5</ele>
        <time>2021-09-07T16:41:40Z</time>
      </trkpt>
      <trkpt lat="44.38773" lon="5.62792">
        <ele>1071.2</ele>
        <time>2021-09-07T16:41:41Z</time>
      </trkpt>
      <trkpt lat="44.38772" lon="5.62796">
        <ele>1071.2</ele>
        <time>2021-09-07T16:41:42Z</time>
      </trkpt>
      <trkpt lat="44.38772" lon="5.62799">
        <ele>1071.4</ele>
        <time>2021-09-07T16:41:43Z</time>
      </trkpt>
      <trkpt lat="44.38772" lon="5.62802">
        <ele>1071.7</ele>
        <time>2021-09-07T16:41:44Z</time>
      </trkpt>
      <trkpt lat="44.38771" lon="5.62804">
        <ele>1071.7</ele>
        <time>2021-09-07T16:41:45Z</time>
      </trkpt>
      <trkpt lat="44.38771" lon="5.62806">
        <ele>1072</ele>
        <time>2021-09-07T16:41:46Z</time>
      </trkpt>
      <trkpt lat="44.3877" lon="5.62807">
        <ele>1071.7</ele>
        <time>2021-09-07T16:41:47Z</time>
      </trkpt>
      <trkpt lat="44.38768" lon="5.6281">
        <ele>1072</ele>
        <time>2021-09-07T16:41:48Z</time>
      </trkpt>
      <trkpt lat="44.38767" lon="5.62811">
        <ele>1071.8</ele>
        <time>2021-09-07T16:41:49Z</time>
      </trkpt>
      <trkpt lat="44.38766" lon="5.62811">
        <ele>1071.9</ele>
        <time>2021-09-07T16:41:50Z</time>
      </trkpt>
      <trkpt lat="44.38764" lon="5.62813">
        <ele>1071.7</ele>
        <time>2021-09-07T16:41:51Z</time>
      </trkpt>
      <trkpt lat="44.38762" lon="5.62814">
        <ele>1072</ele>
        <time>2021-09-07T16:41:52Z</time>
      </trkpt>
      <trkpt lat="44.38761" lon="5.62815">
        <ele>1071.8</ele>
        <time>2021-09-07T16:41:53Z</time>
      </trkpt>
      <trkpt lat="44.38759" lon="5.62815">
        <ele>1071.9</ele>
        <time>2021-09-07T16:41:54Z</time>
      </trkpt>
      <trkpt lat="44.38758" lon="5.62815">
        <ele>1071.7</ele>
        <time>2021-09-07T16:41:55Z</time>
      </trkpt>
      <trkpt lat="44.38756" lon="5.62814">
        <ele>1071.8</ele>
        <time>2021-09-07T16:41:56Z</time>
      </trkpt>
      <trkpt lat="44.38755" lon="5.62814">
        <ele>1071.6</ele>
        <time>2021-09-07T16:41:57Z</time>
      </trkpt>
      <trkpt lat="44.38753" lon="5.62814">
        <ele>1071.7</ele>
        <time>2021-09-07T16:41:58Z</time>
      </trkpt>
      <trkpt lat="44.38752" lon="5.62814">
        <ele>1071.8</ele>
        <time>2021-09-07T16:41:59Z</time>
      </trkpt>
      <trkpt lat="44.38749" lon="5.62813">
        <ele>1071.3</ele>
        <time>2021-09-07T16:42:00Z</time>
      </trkpt>
      <trkpt lat="44.38748" lon="5.62813">
        <ele>1071.1</ele>
        <time>2021-09-07T16:42:01Z</time>
      </trkpt>
      <trkpt lat="44.38745" lon="5.62812">
        <ele>1071</ele>
        <time>2021-09-07T16:42:02Z</time>
      </trkpt>
      <trkpt lat="44.38744" lon="5.62812">
        <ele>1071.1</ele>
        <time>2021-09-07T16:42:03Z</time>
      </trkpt>
      <trkpt lat="44.38743" lon="5.62812">
        <ele>1071.1</ele>
        <time>2021-09-07T16:42:04Z</time>
      </trkpt>
      <trkpt lat="44.38742" lon="5.62811">
        <ele>1071</ele>
        <time>2021-09-07T16:42:05Z</time>
      </trkpt>
      <trkpt lat="44.3874" lon="5.62811">
        <ele>1071.1</ele>
        <time>2021-09-07T16:42:06Z</time>
      </trkpt>
      <trkpt lat="44.38739" lon="5.6281">
        <ele>1071</ele>
        <time>2021-09-07T16:42:07Z</time>
      </trkpt>
      <trkpt lat="44.38737" lon="5.6281">
        <ele>1071</ele>
        <time>2021-09-07T16:42:08Z</time>
      </trkpt>
      <trkpt lat="44.38736" lon="5.6281">
        <ele>1070.9</ele>
        <time>2021-09-07T16:42:09Z</time>
      </trkpt>
      <trkpt lat="44.38735" lon="5.6281">
        <ele>1071</ele>
        <time>2021-09-07T16:42:10Z</time>
      </trkpt>
      <trkpt lat="44.38734" lon="5.62809">
        <ele>1071</ele>
        <time>2021-09-07T16:42:11Z</time>
      </trkpt>
      <trkpt lat="44.38731" lon="5.62808">
        <ele>1070.5</ele>
        <time>2021-09-07T16:42:12Z</time>
      </trkpt>
      <trkpt lat="44.3873" lon="5.62808">
        <ele>1070.3</ele>
        <time>2021-09-07T16:42:13Z</time>
      </trkpt>
      <trkpt lat="44.38728" lon="5.62808">
        <ele>1070.4</ele>
        <time>2021-09-07T16:42:14Z</time>
      </trkpt>
      <trkpt lat="44.38728" lon="5.62808">
        <ele>1070.4</ele>
        <time>2021-09-07T16:42:15Z</time>
      </trkpt>
      <trkpt lat="44.38727" lon="5.62807">
        <ele>1070.2</ele>
        <time>2021-09-07T16:42:16Z</time>
      </trkpt>
      <trkpt lat="44.38726" lon="5.62808">
        <ele>1070.3</ele>
        <time>2021-09-07T16:42:17Z</time>
      </trkpt>
      <trkpt lat="44.38724" lon="5.62808">
        <ele>1070</ele>
        <time>2021-09-07T16:42:18Z</time>
      </trkpt>
      <trkpt lat="44.38722" lon="5.62808">
        <ele>1070.1</ele>
        <time>2021-09-07T16:42:19Z</time>
      </trkpt>
      <trkpt lat="44.38721" lon="5.62809">
        <ele>1070.3</ele>
        <time>2021-09-07T16:42:20Z</time>
      </trkpt>
      <trkpt lat="44.3872" lon="5.6281">
        <ele>1070.4</ele>
        <time>2021-09-07T16:42:21Z</time>
      </trkpt>
      <trkpt lat="44.3872" lon="5.6281">
        <ele>1070.4</ele>
        <time>2021-09-07T16:42:22Z</time>
      </trkpt>
      <trkpt lat="44.3872" lon="5.62811">
        <ele>1070.5</ele>
        <time>2021-09-07T16:42:23Z</time>
      </trkpt>
      <trkpt lat="44.38719" lon="5.62811">
        <ele>1070.6</ele>
        <time>2021-09-07T16:42:24Z</time>
      </trkpt>
      <trkpt lat="44.38718" lon="5.62812">
        <ele>1070.3</ele>
        <time>2021-09-07T16:42:25Z</time>
      </trkpt>
      <trkpt lat="44.38717" lon="5.62813">
        <ele>1070.3</ele>
        <time>2021-09-07T16:42:26Z</time>
      </trkpt>
      <trkpt lat="44.38717" lon="5.62813">
        <ele>1070.4</ele>
        <time>2021-09-07T16:42:27Z</time>
      </trkpt>
      <trkpt lat="44.38716" lon="5.62813">
        <ele>1070.5</ele>
        <time>2021-09-07T16:42:28Z</time>
      </trkpt>
      <trkpt lat="44.38716" lon="5.62813">
        <ele>1070.5</ele>
        <time>2021-09-07T16:42:29Z</time>
      </trkpt>
      <trkpt lat="44.38717" lon="5.62813">
        <ele>1070.6</ele>
        <time>2021-09-07T16:42:30Z</time>
      </trkpt>
      <trkpt lat="44.38717" lon="5.62812">
        <ele>1070.7</ele>
        <time>2021-09-07T16:42:31Z</time>
      </trkpt>
      <trkpt lat="44.38717" lon="5.62812">
        <ele>1070.7</ele>
        <time>2021-09-07T16:42:32Z</time>
      </trkpt>
      <trkpt lat="44.38717" lon="5.62812">
        <ele>1070.8</ele>
        <time>2021-09-07T16:42:33Z</time>
      </trkpt>
      <trkpt lat="44.38718" lon="5.62812">
        <ele>1070.9</ele>
        <time>2021-09-07T16:42:34Z</time>
      </trkpt>
      <trkpt lat="44.38718" lon="5.62812">
        <ele>1070.9</ele>
        <time>2021-09-07T16:42:35Z</time>
      </trkpt>
      <trkpt lat="44.38718" lon="5.62811">
        <ele>1071</ele>
        <time>2021-09-07T16:42:36Z</time>
      </trkpt>
      <trkpt lat="44.38719" lon="5.62811">
        <ele>1071.4</ele>
        <time>2021-09-07T16:42:37Z</time>
      </trkpt>
      <trkpt lat="44.38719" lon="5.6281">
        <ele>1071.5</ele>
        <time>2021-09-07T16:42:38Z</time>
      </trkpt>
      <trkpt lat="44.3872" lon="5.62809">
        <ele>1071.6</ele>
        <time>2021-09-07T16:42:39Z</time>
      </trkpt>
      <trkpt lat="44.38721" lon="5.62808">
        <ele>1071.2</ele>
        <time>2021-09-07T16:42:40Z</time>
      </trkpt>
      <trkpt lat="44.38722" lon="5.62807">
        <ele>1071.6</ele>
        <time>2021-09-07T16:42:41Z</time>
      </trkpt>
      <trkpt lat="44.38723" lon="5.62807">
        <ele>1071.6</ele>
        <time>2021-09-07T16:42:42Z</time>
      </trkpt>
      <trkpt lat="44.38725" lon="5.62806">
        <ele>1072</ele>
        <time>2021-09-07T16:42:43Z</time>
      </trkpt>
      <trkpt lat="44.38727" lon="5.62806">
        <ele>1072.1</ele>
        <time>2021-09-07T16:42:44Z</time>
      </trkpt>
      <trkpt lat="44.38729" lon="5.62806">
        <ele>1072.4</ele>
        <time>2021-09-07T16:42:45Z</time>
      </trkpt>
      <trkpt lat="44.38732" lon="5.62804">
        <ele>1072.4</ele>
        <time>2021-09-07T16:42:46Z</time>
      </trkpt>
      <trkpt lat="44.38733" lon="5.62803">
        <ele>1072.4</ele>
        <time>2021-09-07T16:42:47Z</time>
      </trkpt>
      <trkpt lat="44.38733" lon="5.62802">
        <ele>1072.5</ele>
        <time>2021-09-07T16:42:48Z</time>
      </trkpt>
      <trkpt lat="44.38734" lon="5.628">
        <ele>1072.4</ele>
        <time>2021-09-07T16:42:49Z</time>
      </trkpt>
      <trkpt lat="44.38734" lon="5.628">
        <ele>1072.5</ele>
        <time>2021-09-07T16:42:50Z</time>
      </trkpt>
      <trkpt lat="44.38734" lon="5.62799">
        <ele>1072.6</ele>
        <time>2021-09-07T16:42:51Z</time>
      </trkpt>
      <trkpt lat="44.38735" lon="5.62798">
        <ele>1072.6</ele>
        <time>2021-09-07T16:42:52Z</time>
      </trkpt>
      <trkpt lat="44.38735" lon="5.62798">
        <ele>1072.7</ele>
        <time>2021-09-07T16:42:53Z</time>
      </trkpt>
      <trkpt lat="44.38735" lon="5.62797">
        <ele>1072.8</ele>
        <time>2021-09-07T16:42:54Z</time>
      </trkpt>
      <trkpt lat="44.38735" lon="5.62796">
        <ele>1072.5</ele>
        <time>2021-09-07T16:42:55Z</time>
      </trkpt>
      <trkpt lat="44.38735" lon="5.62796">
        <ele>1072.5</ele>
        <time>2021-09-07T16:42:56Z</time>
      </trkpt>
      <trkpt lat="44.38735" lon="5.62796">
        <ele>1072.6</ele>
        <time>2021-09-07T16:42:57Z</time>
      </trkpt>
      <trkpt lat="44.38735" lon="5.62795">
        <ele>1072.7</ele>
        <time>2021-09-07T16:42:58Z</time>
      </trkpt>
      <trkpt lat="44.38736" lon="5.62795">
        <ele>1072.7</ele>
        <time>2021-09-07T16:42:59Z</time>
      </trkpt>
      <trkpt lat="44.38736" lon="5.62795">
        <ele>1072.8</ele>
        <time>2021-09-07T16:43:00Z</time>
      </trkpt>
      <trkpt lat="44.38738" lon="5.62795">
        <ele>1073.1</ele>
        <time>2021-09-07T16:43:01Z</time>
      </trkpt>
      <trkpt lat="44.38739" lon="5.62795">
        <ele>1073.2</ele>
        <time>2021-09-07T16:43:02Z</time>
      </trkpt>
      <trkpt lat="44.3874" lon="5.62794">
        <ele>1073.5</ele>
        <time>2021-09-07T16:43:03Z</time>
      </trkpt>
      <trkpt lat="44.38744" lon="5.62794">
        <ele>1073.9</ele>
        <time>2021-09-07T16:43:04Z</time>
      </trkpt>
      <trkpt lat="44.38747" lon="5.62793">
        <ele>1074.2</ele>
        <time>2021-09-07T16:43:05Z</time>
      </trkpt>
      <trkpt lat="44.38749" lon="5.62793">
        <ele>1074.5</ele>
        <time>2021-09-07T16:43:06Z</time>
      </trkpt>
      <trkpt lat="44.38751" lon="5.62793">
        <ele>1074.6</ele>
        <time>2021-09-07T16:43:07Z</time>
      </trkpt>
      <trkpt lat="44.38753" lon="5.62792">
        <ele>1075</ele>
        <time>2021-09-07T16:43:08Z</time>
      </trkpt>
      <trkpt lat="44.38754" lon="5.62791">
        <ele>1074.9</ele>
        <time>2021-09-07T16:43:09Z</time>
      </trkpt>
      <trkpt lat="44.38755" lon="5.6279">
        <ele>1074.9</ele>
        <time>2021-09-07T16:43:10Z</time>
      </trkpt>
      <trkpt lat="44.38758" lon="5.62788">
        <ele>1075.3</ele>
        <time>2021-09-07T16:43:11Z</time>
      </trkpt>
      <trkpt lat="44.38758" lon="5.62788">
        <ele>1075.4</ele>
        <time>2021-09-07T16:43:12Z</time>
      </trkpt>
      <trkpt lat="44.38758" lon="5.62788">
        <ele>1075.5</ele>
        <time>2021-09-07T16:43:13Z</time>
      </trkpt>
      <trkpt lat="44.38758" lon="5.62787">
        <ele>1075.4</ele>
        <time>2021-09-07T16:43:14Z</time>
      </trkpt>
      <trkpt lat="44.38758" lon="5.62787">
        <ele>1075.5</ele>
        <time>2021-09-07T16:43:15Z</time>
      </trkpt>
      <trkpt lat="44.38758" lon="5.62786">
        <ele>1075.5</ele>
        <time>2021-09-07T16:43:16Z</time>
      </trkpt>
      <trkpt lat="44.38757" lon="5.62786">
        <ele>1075.6</ele>
        <time>2021-09-07T16:43:17Z</time>
      </trkpt>
      <trkpt lat="44.38756" lon="5.62786">
        <ele>1075.7</ele>
        <time>2021-09-07T16:43:18Z</time>
      </trkpt>
      <trkpt lat="44.38754" lon="5.62786">
        <ele>1075.4</ele>
        <time>2021-09-07T16:43:19Z</time>
      </trkpt>
      <trkpt lat="44.38752" lon="5.62787">
        <ele>1075.4</ele>
        <time>2021-09-07T16:43:20Z</time>
      </trkpt>
      <trkpt lat="44.3875" lon="5.62788">
        <ele>1075.3</ele>
        <time>2021-09-07T16:43:21Z</time>
      </trkpt>
      <trkpt lat="44.38749" lon="5.62789">
        <ele>1075.4</ele>
        <time>2021-09-07T16:43:22Z</time>
      </trkpt>
      <trkpt lat="44.38748" lon="5.62789">
        <ele>1075.2</ele>
        <time>2021-09-07T16:43:23Z</time>
      </trkpt>
      <trkpt lat="44.38745" lon="5.62789">
        <ele>1074.9</ele>
        <time>2021-09-07T16:43:24Z</time>
      </trkpt>
      <trkpt lat="44.38742" lon="5.62788">
        <ele>1074.4</ele>
        <time>2021-09-07T16:43:25Z</time>
      </trkpt>
      <trkpt lat="44.38738" lon="5.62786">
        <ele>1074.2</ele>
        <time>2021-09-07T16:43:26Z</time>
      </trkpt>
      <trkpt lat="44.38735" lon="5.62784">
        <ele>1073.9</ele>
        <time>2021-09-07T16:43:27Z</time>
      </trkpt>
      <trkpt lat="44.3873" lon="5.6278">
        <ele>1073</ele>
        <time>2021-09-07T16:43:28Z</time>
      </trkpt>
      <trkpt lat="44.38726" lon="5.62778">
        <ele>1072.3</ele>
        <time>2021-09-07T16:43:29Z</time>
      </trkpt>
      <trkpt lat="44.38724" lon="5.62777">
        <ele>1072</ele>
        <time>2021-09-07T16:43:30Z</time>
      </trkpt>
      <trkpt lat="44.38721" lon="5.62775">
        <ele>1071.6</ele>
        <time>2021-09-07T16:43:31Z</time>
      </trkpt>
      <trkpt lat="44.38715" lon="5.62774">
        <ele>1070.2</ele>
        <time>2021-09-07T16:43:32Z</time>
      </trkpt>
      <trkpt lat="44.38712" lon="5.62773">
        <ele>1069.8</ele>
        <time>2021-09-07T16:43:33Z</time>
      </trkpt>
      <trkpt lat="44.38709" lon="5.62773">
        <ele>1069.5</ele>
        <time>2021-09-07T16:43:34Z</time>
      </trkpt>
      <trkpt lat="44.38706" lon="5.62774">
        <ele>1069.5</ele>
        <time>2021-09-07T16:43:35Z</time>
      </trkpt>
      <trkpt lat="44.38703" lon="5.62774">
        <ele>1069.1</ele>
        <time>2021-09-07T16:43:36Z</time>
      </trkpt>
      <trkpt lat="44.38698" lon="5.62774">
        <ele>1068.2</ele>
        <time>2021-09-07T16:43:37Z</time>
      </trkpt>
      <trkpt lat="44.38692" lon="5.62773">
        <ele>1067</ele>
        <time>2021-09-07T16:43:38Z</time>
      </trkpt>
      <trkpt lat="44.3869" lon="5.62773">
        <ele>1066.4</ele>
        <time>2021-09-07T16:43:39Z</time>
      </trkpt>
      <trkpt lat="44.38688" lon="5.62773">
        <ele>1066.5</ele>
        <time>2021-09-07T16:43:40Z</time>
      </trkpt>
      <trkpt lat="44.38685" lon="5.62773">
        <ele>1066</ele>
        <time>2021-09-07T16:43:41Z</time>
      </trkpt>
      <trkpt lat="44.38684" lon="5.62773">
        <ele>1065.5</ele>
        <time>2021-09-07T16:43:42Z</time>
      </trkpt>
      <trkpt lat="44.38682" lon="5.62772">
        <ele>1065.6</ele>
        <time>2021-09-07T16:43:43Z</time>
      </trkpt>
      <trkpt lat="44.38679" lon="5.62771">
        <ele>1065.1</ele>
        <time>2021-09-07T16:43:44Z</time>
      </trkpt>
      <trkpt lat="44.38678" lon="5.62771">
        <ele>1064.7</ele>
        <time>2021-09-07T16:43:45Z</time>
      </trkpt>
      <trkpt lat="44.38677" lon="5.6277">
        <ele>1064.1</ele>
        <time>2021-09-07T16:43:46Z</time>
      </trkpt>
      <trkpt lat="44.38677" lon="5.6277">
        <ele>1064.2</ele>
        <time>2021-09-07T16:43:47Z</time>
      </trkpt>
      <trkpt lat="44.38677" lon="5.6277">
        <ele>1064.2</ele>
        <time>2021-09-07T16:43:48Z</time>
      </trkpt>
      <trkpt lat="44.38676" lon="5.6277">
        <ele>1064.3</ele>
        <time>2021-09-07T16:43:49Z</time>
      </trkpt>
      <trkpt lat="44.38675" lon="5.6277">
        <ele>1063.8</ele>
        <time>2021-09-07T16:43:50Z</time>
      </trkpt>
      <trkpt lat="44.38674" lon="5.6277">
        <ele>1063.9</ele>
        <time>2021-09-07T16:43:51Z</time>
      </trkpt>
      <trkpt lat="44.38676" lon="5.6277">
        <ele>1064.5</ele>
        <time>2021-09-07T16:43:52Z</time>
      </trkpt>
      <trkpt lat="44.38676" lon="5.6277">
        <ele>1064.6</ele>
        <time>2021-09-07T16:43:53Z</time>
      </trkpt>
      <trkpt lat="44.38676" lon="5.62769">
        <ele>1064.6</ele>
        <time>2021-09-07T16:43:54Z</time>
      </trkpt>
      <trkpt lat="44.38677" lon="5.62769">
        <ele>1064.7</ele>
        <time>2021-09-07T16:43:55Z</time>
      </trkpt>
      <trkpt lat="44.38677" lon="5.62769">
        <ele>1064.8</ele>
        <time>2021-09-07T16:43:56Z</time>
      </trkpt>
      <trkpt lat="44.38677" lon="5.62769">
        <ele>1064.8</ele>
        <time>2021-09-07T16:43:57Z</time>
      </trkpt>
      <trkpt lat="44.38677" lon="5.62769">
        <ele>1064.9</ele>
        <time>2021-09-07T16:43:58Z</time>
      </trkpt>
      <trkpt lat="44.38676" lon="5.62769">
        <ele>1065</ele>
        <time>2021-09-07T16:43:59Z</time>
      </trkpt>
      <trkpt lat="44.38676" lon="5.62769">
        <ele>1065</ele>
        <time>2021-09-07T16:44:00Z</time>
      </trkpt>
      <trkpt lat="44.38676" lon="5.6277">
        <ele>1065.1</ele>
        <time>2021-09-07T16:44:01Z</time>
      </trkpt>
      <trkpt lat="44.38676" lon="5.6277">
        <ele>1065.2</ele>
        <time>2021-09-07T16:44:02Z</time>
      </trkpt>
      <trkpt lat="44.38676" lon="5.6277">
        <ele>1065.2</ele>
        <time>2021-09-07T16:44:03Z</time>
      </trkpt>
      <trkpt lat="44.38676" lon="5.6277">
        <ele>1065.3</ele>
        <time>2021-09-07T16:44:04Z</time>
      </trkpt>
      <trkpt lat="44.38676" lon="5.6277">
        <ele>1065.4</ele>
        <time>2021-09-07T16:44:05Z</time>
      </trkpt>
      <trkpt lat="44.38676" lon="5.6277">
        <ele>1065.4</ele>
        <time>2021-09-07T16:44:06Z</time>
      </trkpt>
      <trkpt lat="44.38676" lon="5.62769">
        <ele>1065.5</ele>
        <time>2021-09-07T16:44:07Z</time>
      </trkpt>
      <trkpt lat="44.38675" lon="5.62767">
        <ele>1065</ele>
        <time>2021-09-07T16:44:08Z</time>
      </trkpt>
      <trkpt lat="44.38675" lon="5.62765">
        <ele>1064.5</ele>
        <time>2021-09-07T16:44:09Z</time>
      </trkpt>
      <trkpt lat="44.38675" lon="5.62762">
        <ele>1064.5</ele>
        <time>2021-09-07T16:44:10Z</time>
      </trkpt>
      <trkpt lat="44.38675" lon="5.6276">
        <ele>1064</ele>
        <time>2021-09-07T16:44:11Z</time>
      </trkpt>
      <trkpt lat="44.38675" lon="5.62759">
        <ele>1064.1</ele>
        <time>2021-09-07T16:44:12Z</time>
      </trkpt>
      <trkpt lat="44.38674" lon="5.62757">
        <ele>1063.6</ele>
        <time>2021-09-07T16:44:13Z</time>
      </trkpt>
      <trkpt lat="44.38673" lon="5.62753">
        <ele>1063.1</ele>
        <time>2021-09-07T16:44:14Z</time>
      </trkpt>
      <trkpt lat="44.38673" lon="5.62752">
        <ele>1063.2</ele>
        <time>2021-09-07T16:44:15Z</time>
      </trkpt>
      <trkpt lat="44.38673" lon="5.6275">
        <ele>1063.2</ele>
        <time>2021-09-07T16:44:16Z</time>
      </trkpt>
      <trkpt lat="44.38671" lon="5.62746">
        <ele>1062.1</ele>
        <time>2021-09-07T16:44:17Z</time>
      </trkpt>
      <trkpt lat="44.38669" lon="5.62739">
        <ele>1060</ele>
        <time>2021-09-07T16:44:18Z</time>
      </trkpt>
      <trkpt lat="44.38669" lon="5.62737">
        <ele>1060</ele>
        <time>2021-09-07T16:44:19Z</time>
      </trkpt>
      <trkpt lat="44.38668" lon="5.62734">
        <ele>1059.6</ele>
        <time>2021-09-07T16:44:20Z</time>
      </trkpt>
      <trkpt lat="44.38667" lon="5.62728">
        <ele>1059.3</ele>
        <time>2021-09-07T16:44:21Z</time>
      </trkpt>
      <trkpt lat="44.38667" lon="5.62727">
        <ele>1058.9</ele>
        <time>2021-09-07T16:44:22Z</time>
      </trkpt>
      <trkpt lat="44.38668" lon="5.62726">
        <ele>1059</ele>
        <time>2021-09-07T16:44:23Z</time>
      </trkpt>
      <trkpt lat="44.38668" lon="5.62724">
        <ele>1059</ele>
        <time>2021-09-07T16:44:24Z</time>
      </trkpt>
      <trkpt lat="44.38667" lon="5.62722">
        <ele>1058.7</ele>
        <time>2021-09-07T16:44:25Z</time>
      </trkpt>
      <trkpt lat="44.38667" lon="5.62721">
        <ele>1058.8</ele>
        <time>2021-09-07T16:44:26Z</time>
      </trkpt>
      <trkpt lat="44.38666" lon="5.6272">
        <ele>1058</ele>
        <time>2021-09-07T16:44:27Z</time>
      </trkpt>
      <trkpt lat="44.38666" lon="5.62721">
        <ele>1058.1</ele>
        <time>2021-09-07T16:44:28Z</time>
      </trkpt>
      <trkpt lat="44.38665" lon="5.62721">
        <ele>1058.1</ele>
        <time>2021-09-07T16:44:29Z</time>
      </trkpt>
      <trkpt lat="44.38663" lon="5.62719">
        <ele>1057.4</ele>
        <time>2021-09-07T16:44:30Z</time>
      </trkpt>
      <trkpt lat="44.38662" lon="5.62719">
        <ele>1057.1</ele>
        <time>2021-09-07T16:44:31Z</time>
      </trkpt>
      <trkpt lat="44.38661" lon="5.62718">
        <ele>1057.2</ele>
        <time>2021-09-07T16:44:32Z</time>
      </trkpt>
      <trkpt lat="44.3866" lon="5.62717">
        <ele>1057.2</ele>
        <time>2021-09-07T16:44:33Z</time>
      </trkpt>
      <trkpt lat="44.38659" lon="5.62716">
        <ele>1056.6</ele>
        <time>2021-09-07T16:44:34Z</time>
      </trkpt>
      <trkpt lat="44.38659" lon="5.62715">
        <ele>1056.7</ele>
        <time>2021-09-07T16:44:35Z</time>
      </trkpt>
      <trkpt lat="44.38658" lon="5.62714">
        <ele>1056.4</ele>
        <time>2021-09-07T16:44:36Z</time>
      </trkpt>
      <trkpt lat="44.38657" lon="5.62713">
        <ele>1056.5</ele>
        <time>2021-09-07T16:44:37Z</time>
      </trkpt>
      <trkpt lat="44.38657" lon="5.62713">
        <ele>1056.5</ele>
        <time>2021-09-07T16:44:38Z</time>
      </trkpt>
      <trkpt lat="44.38657" lon="5.62712">
        <ele>1056.6</ele>
        <time>2021-09-07T16:44:39Z</time>
      </trkpt>
      <trkpt lat="44.38656" lon="5.62712">
        <ele>1056</ele>
        <time>2021-09-07T16:44:40Z</time>
      </trkpt>
      <trkpt lat="44.38655" lon="5.62711">
        <ele>1056</ele>
        <time>2021-09-07T16:44:41Z</time>
      </trkpt>
      <trkpt lat="44.38655" lon="5.62708">
        <ele>1055.8</ele>
        <time>2021-09-07T16:44:42Z</time>
      </trkpt>
      <trkpt lat="44.38655" lon="5.62707">
        <ele>1055.9</ele>
        <time>2021-09-07T16:44:43Z</time>
      </trkpt>
      <trkpt lat="44.38655" lon="5.62705">
        <ele>1055.7</ele>
        <time>2021-09-07T16:44:44Z</time>
      </trkpt>
      <trkpt lat="44.38655" lon="5.627">
        <ele>1055.5</ele>
        <time>2021-09-07T16:44:45Z</time>
      </trkpt>
      <trkpt lat="44.38656" lon="5.62694">
        <ele>1055.4</ele>
        <time>2021-09-07T16:44:46Z</time>
      </trkpt>
      <trkpt lat="44.38659" lon="5.62685">
        <ele>1056</ele>
        <time>2021-09-07T16:44:47Z</time>
      </trkpt>
      <trkpt lat="44.38661" lon="5.6268">
        <ele>1056.8</ele>
        <time>2021-09-07T16:44:48Z</time>
      </trkpt>
      <trkpt lat="44.38663" lon="5.62676">
        <ele>1056.9</ele>
        <time>2021-09-07T16:44:49Z</time>
      </trkpt>
      <trkpt lat="44.38665" lon="5.62673">
        <ele>1057.9</ele>
        <time>2021-09-07T16:44:50Z</time>
      </trkpt>
      <trkpt lat="44.38667" lon="5.62669">
        <ele>1059.1</ele>
        <time>2021-09-07T16:44:51Z</time>
      </trkpt>
      <trkpt lat="44.3867" lon="5.62663">
        <ele>1061.2</ele>
        <time>2021-09-07T16:44:52Z</time>
      </trkpt>
      <trkpt lat="44.38673" lon="5.62657">
        <ele>1062.5</ele>
        <time>2021-09-07T16:44:53Z</time>
      </trkpt>
      <trkpt lat="44.38676" lon="5.6265">
        <ele>1063.9</ele>
        <time>2021-09-07T16:44:54Z</time>
      </trkpt>
      <trkpt lat="44.38678" lon="5.62646">
        <ele>1064</ele>
        <time>2021-09-07T16:44:55Z</time>
      </trkpt>
      <trkpt lat="44.38679" lon="5.62643">
        <ele>1065.3</ele>
        <time>2021-09-07T16:44:56Z</time>
      </trkpt>
      <trkpt lat="44.38679" lon="5.62639">
        <ele>1065.7</ele>
        <time>2021-09-07T16:44:57Z</time>
      </trkpt>
      <trkpt lat="44.3868" lon="5.6263">
        <ele>1066.6</ele>
        <time>2021-09-07T16:44:58Z</time>
      </trkpt>
      <trkpt lat="44.38679" lon="5.62627">
        <ele>1067.2</ele>
        <time>2021-09-07T16:44:59Z</time>
      </trkpt>
      <trkpt lat="44.38676" lon="5.62623">
        <ele>1066.8</ele>
        <time>2021-09-07T16:45:00Z</time>
      </trkpt>
      <trkpt lat="44.38674" lon="5.6262">
        <ele>1066.4</ele>
        <time>2021-09-07T16:45:01Z</time>
      </trkpt>
      <trkpt lat="44.38672" lon="5.62616">
        <ele>1066.2</ele>
        <time>2021-09-07T16:45:02Z</time>
      </trkpt>
      <trkpt lat="44.3867" lon="5.62611">
        <ele>1066</ele>
        <time>2021-09-07T16:45:03Z</time>
      </trkpt>
      <trkpt lat="44.38666" lon="5.62604">
        <ele>1065.7</ele>
        <time>2021-09-07T16:45:04Z</time>
      </trkpt>
      <trkpt lat="44.38664" lon="5.626">
        <ele>1065.5</ele>
        <time>2021-09-07T16:45:05Z</time>
      </trkpt>
      <trkpt lat="44.38661" lon="5.62596">
        <ele>1065.2</ele>
        <time>2021-09-07T16:45:06Z</time>
      </trkpt>
      <trkpt lat="44.38657" lon="5.62589">
        <ele>1064.9</ele>
        <time>2021-09-07T16:45:07Z</time>
      </trkpt>
      <trkpt lat="44.38655" lon="5.62586">
        <ele>1064.7</ele>
        <time>2021-09-07T16:45:08Z</time>
      </trkpt>
      <trkpt lat="44.38653" lon="5.62582">
        <ele>1064.5</ele>
        <time>2021-09-07T16:45:09Z</time>
      </trkpt>
      <trkpt lat="44.38645" lon="5.62575">
        <ele>1064</ele>
        <time>2021-09-07T16:45:10Z</time>
      </trkpt>
      <trkpt lat="44.38642" lon="5.6257">
        <ele>1063.7</ele>
        <time>2021-09-07T16:45:11Z</time>
      </trkpt>
      <trkpt lat="44.3864" lon="5.62566">
        <ele>1063.5</ele>
        <time>2021-09-07T16:45:12Z</time>
      </trkpt>
      <trkpt lat="44.38637" lon="5.62561">
        <ele>1063.3</ele>
        <time>2021-09-07T16:45:13Z</time>
      </trkpt>
      <trkpt lat="44.38632" lon="5.62556">
        <ele>1063</ele>
        <time>2021-09-07T16:45:14Z</time>
      </trkpt>
      <trkpt lat="44.38628" lon="5.62552">
        <ele>1062.7</ele>
        <time>2021-09-07T16:45:15Z</time>
      </trkpt>
      <trkpt lat="44.38626" lon="5.62549">
        <ele>1062.5</ele>
        <time>2021-09-07T16:45:16Z</time>
      </trkpt>
      <trkpt lat="44.38624" lon="5.62546">
        <ele>1062.4</ele>
        <time>2021-09-07T16:45:17Z</time>
      </trkpt>
      <trkpt lat="44.3862" lon="5.62542">
        <ele>1062.1</ele>
        <time>2021-09-07T16:45:18Z</time>
      </trkpt>
      <trkpt lat="44.38617" lon="5.62538">
        <ele>1061.9</ele>
        <time>2021-09-07T16:45:19Z</time>
      </trkpt>
      <trkpt lat="44.38614" lon="5.62534">
        <ele>1061.6</ele>
        <time>2021-09-07T16:45:20Z</time>
      </trkpt>
      <trkpt lat="44.38613" lon="5.62533">
        <ele>1061.5</ele>
        <time>2021-09-07T16:45:21Z</time>
      </trkpt>
      <trkpt lat="44.38611" lon="5.62531">
        <ele>1061.4</ele>
        <time>2021-09-07T16:45:22Z</time>
      </trkpt>
      <trkpt lat="44.38609" lon="5.62529">
        <ele>1061.3</ele>
        <time>2021-09-07T16:45:23Z</time>
      </trkpt>
      <trkpt lat="44.38608" lon="5.62528">
        <ele>1061.2</ele>
        <time>2021-09-07T16:45:24Z</time>
      </trkpt>
      <trkpt lat="44.38607" lon="5.62527">
        <ele>1061.2</ele>
        <time>2021-09-07T16:45:25Z</time>
      </trkpt>
      <trkpt lat="44.38605" lon="5.62526">
        <ele>1061</ele>
        <time>2021-09-07T16:45:26Z</time>
      </trkpt>
      <trkpt lat="44.38603" lon="5.62524">
        <ele>1060.9</ele>
        <time>2021-09-07T16:45:27Z</time>
      </trkpt>
      <trkpt lat="44.38602" lon="5.62524">
        <ele>1060.9</ele>
        <time>2021-09-07T16:45:28Z</time>
      </trkpt>
      <trkpt lat="44.38601" lon="5.62523">
        <ele>1060.8</ele>
        <time>2021-09-07T16:45:29Z</time>
      </trkpt>
      <trkpt lat="44.38599" lon="5.62522">
        <ele>1060.7</ele>
        <time>2021-09-07T16:45:30Z</time>
      </trkpt>
      <trkpt lat="44.38597" lon="5.62521">
        <ele>1060.6</ele>
        <time>2021-09-07T16:45:31Z</time>
      </trkpt>
      <trkpt lat="44.38596" lon="5.6252">
        <ele>1060.5</ele>
        <time>2021-09-07T16:45:32Z</time>
      </trkpt>
      <trkpt lat="44.38595" lon="5.62519">
        <ele>1060.4</ele>
        <time>2021-09-07T16:45:33Z</time>
      </trkpt>
      <trkpt lat="44.38594" lon="5.62519">
        <ele>1060.3</ele>
        <time>2021-09-07T16:45:34Z</time>
      </trkpt>
      <trkpt lat="44.38592" lon="5.62518">
        <ele>1060.3</ele>
        <time>2021-09-07T16:45:35Z</time>
      </trkpt>
      <trkpt lat="44.38591" lon="5.62518">
        <ele>1060.2</ele>
        <time>2021-09-07T16:45:36Z</time>
      </trkpt>
      <trkpt lat="44.3859" lon="5.62517">
        <ele>1060.1</ele>
        <time>2021-09-07T16:45:37Z</time>
      </trkpt>
      <trkpt lat="44.38588" lon="5.62516">
        <ele>1060</ele>
        <time>2021-09-07T16:45:38Z</time>
      </trkpt>
      <trkpt lat="44.38586" lon="5.62514">
        <ele>1059.9</ele>
        <time>2021-09-07T16:45:39Z</time>
      </trkpt>
      <trkpt lat="44.38586" lon="5.62514">
        <ele>1059.9</ele>
        <time>2021-09-07T16:45:40Z</time>
      </trkpt>
      <trkpt lat="44.38585" lon="5.62512">
        <ele>1059.8</ele>
        <time>2021-09-07T16:45:41Z</time>
      </trkpt>
      <trkpt lat="44.38584" lon="5.62511">
        <ele>1059.7</ele>
        <time>2021-09-07T16:45:42Z</time>
      </trkpt>
      <trkpt lat="44.38582" lon="5.62509">
        <ele>1059.6</ele>
        <time>2021-09-07T16:45:43Z</time>
      </trkpt>
      <trkpt lat="44.38581" lon="5.62508">
        <ele>1059.5</ele>
        <time>2021-09-07T16:45:44Z</time>
      </trkpt>
      <trkpt lat="44.3858" lon="5.62507">
        <ele>1059.4</ele>
        <time>2021-09-07T16:45:45Z</time>
      </trkpt>
      <trkpt lat="44.38579" lon="5.62504">
        <ele>1059.3</ele>
        <time>2021-09-07T16:45:46Z</time>
      </trkpt>
      <trkpt lat="44.38579" lon="5.62504">
        <ele>1059.3</ele>
        <time>2021-09-07T16:45:47Z</time>
      </trkpt>
      <trkpt lat="44.38578" lon="5.62503">
        <ele>1059.2</ele>
        <time>2021-09-07T16:45:48Z</time>
      </trkpt>
      <trkpt lat="44.38577" lon="5.62501">
        <ele>1059.1</ele>
        <time>2021-09-07T16:45:49Z</time>
      </trkpt>
      <trkpt lat="44.38577" lon="5.62499">
        <ele>1059.1</ele>
        <time>2021-09-07T16:45:50Z</time>
      </trkpt>
      <trkpt lat="44.38576" lon="5.62498">
        <ele>1059</ele>
        <time>2021-09-07T16:45:51Z</time>
      </trkpt>
      <trkpt lat="44.38575" lon="5.62497">
        <ele>1058.9</ele>
        <time>2021-09-07T16:45:52Z</time>
      </trkpt>
      <trkpt lat="44.38574" lon="5.62495">
        <ele>1058.8</ele>
        <time>2021-09-07T16:45:53Z</time>
      </trkpt>
      <trkpt lat="44.38573" lon="5.62493">
        <ele>1058.7</ele>
        <time>2021-09-07T16:45:54Z</time>
      </trkpt>
      <trkpt lat="44.38573" lon="5.62492">
        <ele>1058.7</ele>
        <time>2021-09-07T16:45:55Z</time>
      </trkpt>
      <trkpt lat="44.38572" lon="5.6249">
        <ele>1058.6</ele>
        <time>2021-09-07T16:45:56Z</time>
      </trkpt>
      <trkpt lat="44.38571" lon="5.62488">
        <ele>1058.5</ele>
        <time>2021-09-07T16:45:57Z</time>
      </trkpt>
      <trkpt lat="44.38571" lon="5.62487">
        <ele>1058.5</ele>
        <time>2021-09-07T16:45:58Z</time>
      </trkpt>
      <trkpt lat="44.3857" lon="5.62486">
        <ele>1058.4</ele>
        <time>2021-09-07T16:45:59Z</time>
      </trkpt>
      <trkpt lat="44.38569" lon="5.62485">
        <ele>1058.3</ele>
        <time>2021-09-07T16:46:00Z</time>
      </trkpt>
      <trkpt lat="44.38569" lon="5.62483">
        <ele>1058.3</ele>
        <time>2021-09-07T16:46:01Z</time>
      </trkpt>
      <trkpt lat="44.38568" lon="5.62481">
        <ele>1058.2</ele>
        <time>2021-09-07T16:46:02Z</time>
      </trkpt>
      <trkpt lat="44.38568" lon="5.62479">
        <ele>1058.1</ele>
        <time>2021-09-07T16:46:03Z</time>
      </trkpt>
      <trkpt lat="44.38568" lon="5.62478">
        <ele>1058.1</ele>
        <time>2021-09-07T16:46:04Z</time>
      </trkpt>
      <trkpt lat="44.38566" lon="5.62475">
        <ele>1057.9</ele>
        <time>2021-09-07T16:46:05Z</time>
      </trkpt>
      <trkpt lat="44.38566" lon="5.62474">
        <ele>1057.9</ele>
        <time>2021-09-07T16:46:06Z</time>
      </trkpt>
      <trkpt lat="44.38565" lon="5.62472">
        <ele>1057.8</ele>
        <time>2021-09-07T16:46:07Z</time>
      </trkpt>
      <trkpt lat="44.38564" lon="5.62471">
        <ele>1057.7</ele>
        <time>2021-09-07T16:46:08Z</time>
      </trkpt>
      <trkpt lat="44.38562" lon="5.6247">
        <ele>1057.6</ele>
        <time>2021-09-07T16:46:09Z</time>
      </trkpt>
      <trkpt lat="44.38561" lon="5.62469">
        <ele>1057.5</ele>
        <time>2021-09-07T16:46:10Z</time>
      </trkpt>
      <trkpt lat="44.3856" lon="5.62467">
        <ele>1057.4</ele>
        <time>2021-09-07T16:46:11Z</time>
      </trkpt>
      <trkpt lat="44.38559" lon="5.62466">
        <ele>1057.3</ele>
        <time>2021-09-07T16:46:12Z</time>
      </trkpt>
      <trkpt lat="44.38558" lon="5.62464">
        <ele>1057.2</ele>
        <time>2021-09-07T16:46:13Z</time>
      </trkpt>
      <trkpt lat="44.38557" lon="5.62462">
        <ele>1057.1</ele>
        <time>2021-09-07T16:46:14Z</time>
      </trkpt>
      <trkpt lat="44.38557" lon="5.6246">
        <ele>1057.1</ele>
        <time>2021-09-07T16:46:15Z</time>
      </trkpt>
      <trkpt lat="44.38556" lon="5.62458">
        <ele>1057</ele>
        <time>2021-09-07T16:46:16Z</time>
      </trkpt>
      <trkpt lat="44.38555" lon="5.62456">
        <ele>1056.9</ele>
        <time>2021-09-07T16:46:17Z</time>
      </trkpt>
      <trkpt lat="44.38554" lon="5.62454">
        <ele>1056.8</ele>
        <time>2021-09-07T16:46:18Z</time>
      </trkpt>
      <trkpt lat="44.38553" lon="5.62452">
        <ele>1056.7</ele>
        <time>2021-09-07T16:46:19Z</time>
      </trkpt>
      <trkpt lat="44.38551" lon="5.6245">
        <ele>1056.5</ele>
        <time>2021-09-07T16:46:20Z</time>
      </trkpt>
      <trkpt lat="44.3855" lon="5.62449">
        <ele>1056.5</ele>
        <time>2021-09-07T16:46:21Z</time>
      </trkpt>
      <trkpt lat="44.38549" lon="5.62448">
        <ele>1056.4</ele>
        <time>2021-09-07T16:46:22Z</time>
      </trkpt>
      <trkpt lat="44.38548" lon="5.62447">
        <ele>1056.3</ele>
        <time>2021-09-07T16:46:23Z</time>
      </trkpt>
      <trkpt lat="44.38547" lon="5.62446">
        <ele>1056.3</ele>
        <time>2021-09-07T16:46:24Z</time>
      </trkpt>
      <trkpt lat="44.38545" lon="5.62445">
        <ele>1056.2</ele>
        <time>2021-09-07T16:46:25Z</time>
      </trkpt>
      <trkpt lat="44.38544" lon="5.62443">
        <ele>1056.1</ele>
        <time>2021-09-07T16:46:26Z</time>
      </trkpt>
      <trkpt lat="44.38543" lon="5.62442">
        <ele>1056</ele>
        <time>2021-09-07T16:46:27Z</time>
      </trkpt>
      <trkpt lat="44.38541" lon="5.62441">
        <ele>1055.9</ele>
        <time>2021-09-07T16:46:28Z</time>
      </trkpt>
      <trkpt lat="44.3854" lon="5.6244">
        <ele>1055.8</ele>
        <time>2021-09-07T16:46:29Z</time>
      </trkpt>
      <trkpt lat="44.38539" lon="5.6244">
        <ele>1055.8</ele>
        <time>2021-09-07T16:46:30Z</time>
      </trkpt>
      <trkpt lat="44.38537" lon="5.62438">
        <ele>1055.6</ele>
        <time>2021-09-07T16:46:31Z</time>
      </trkpt>
      <trkpt lat="44.38535" lon="5.62436">
        <ele>1055.5</ele>
        <time>2021-09-07T16:46:32Z</time>
      </trkpt>
      <trkpt lat="44.38534" lon="5.62434">
        <ele>1055.4</ele>
        <time>2021-09-07T16:46:33Z</time>
      </trkpt>
      <trkpt lat="44.38533" lon="5.62432">
        <ele>1055.3</ele>
        <time>2021-09-07T16:46:34Z</time>
      </trkpt>
      <trkpt lat="44.38531" lon="5.62431">
        <ele>1055.2</ele>
        <time>2021-09-07T16:46:35Z</time>
      </trkpt>
      <trkpt lat="44.3853" lon="5.62429">
        <ele>1055.1</ele>
        <time>2021-09-07T16:46:36Z</time>
      </trkpt>
      <trkpt lat="44.38529" lon="5.62428">
        <ele>1055</ele>
        <time>2021-09-07T16:46:37Z</time>
      </trkpt>
      <trkpt lat="44.38529" lon="5.62427">
        <ele>1055</ele>
        <time>2021-09-07T16:46:38Z</time>
      </trkpt>
      <trkpt lat="44.38528" lon="5.62426">
        <ele>1054.9</ele>
        <time>2021-09-07T16:46:39Z</time>
      </trkpt>
      <trkpt lat="44.38526" lon="5.62424">
        <ele>1054.8</ele>
        <time>2021-09-07T16:46:40Z</time>
      </trkpt>
      <trkpt lat="44.38525" lon="5.62422">
        <ele>1054.7</ele>
        <time>2021-09-07T16:46:41Z</time>
      </trkpt>
      <trkpt lat="44.38524" lon="5.62421">
        <ele>1054.6</ele>
        <time>2021-09-07T16:46:42Z</time>
      </trkpt>
      <trkpt lat="44.38523" lon="5.62419">
        <ele>1054.5</ele>
        <time>2021-09-07T16:46:43Z</time>
      </trkpt>
      <trkpt lat="44.38521" lon="5.62416">
        <ele>1054.4</ele>
        <time>2021-09-07T16:46:44Z</time>
      </trkpt>
      <trkpt lat="44.3852" lon="5.62414">
        <ele>1054.3</ele>
        <time>2021-09-07T16:46:45Z</time>
      </trkpt>
      <trkpt lat="44.3852" lon="5.62413">
        <ele>1054.2</ele>
        <time>2021-09-07T16:46:46Z</time>
      </trkpt>
      <trkpt lat="44.38519" lon="5.62412">
        <ele>1054.2</ele>
        <time>2021-09-07T16:46:47Z</time>
      </trkpt>
      <trkpt lat="44.38518" lon="5.62409">
        <ele>1054</ele>
        <time>2021-09-07T16:46:48Z</time>
      </trkpt>
      <trkpt lat="44.38517" lon="5.62408">
        <ele>1054</ele>
        <time>2021-09-07T16:46:49Z</time>
      </trkpt>
      <trkpt lat="44.38516" lon="5.62407">
        <ele>1053.9</ele>
        <time>2021-09-07T16:46:50Z</time>
      </trkpt>
      <trkpt lat="44.38515" lon="5.62406">
        <ele>1053.8</ele>
        <time>2021-09-07T16:46:51Z</time>
      </trkpt>
      <trkpt lat="44.38515" lon="5.62405">
        <ele>1053.8</ele>
        <time>2021-09-07T16:46:52Z</time>
      </trkpt>
      <trkpt lat="44.38514" lon="5.62403">
        <ele>1053.7</ele>
        <time>2021-09-07T16:46:53Z</time>
      </trkpt>
      <trkpt lat="44.38513" lon="5.62402">
        <ele>1053.6</ele>
        <time>2021-09-07T16:46:54Z</time>
      </trkpt>
      <trkpt lat="44.38513" lon="5.624">
        <ele>1053.5</ele>
        <time>2021-09-07T16:46:55Z</time>
      </trkpt>
      <trkpt lat="44.38512" lon="5.62398">
        <ele>1053.4</ele>
        <time>2021-09-07T16:46:56Z</time>
      </trkpt>
      <trkpt lat="44.38511" lon="5.62395">
        <ele>1053.3</ele>
        <time>2021-09-07T16:46:57Z</time>
      </trkpt>
      <trkpt lat="44.3851" lon="5.62392">
        <ele>1053.2</ele>
        <time>2021-09-07T16:46:58Z</time>
      </trkpt>
      <trkpt lat="44.38509" lon="5.6239">
        <ele>1053.1</ele>
        <time>2021-09-07T16:46:59Z</time>
      </trkpt>
      <trkpt lat="44.38508" lon="5.62388">
        <ele>1053</ele>
        <time>2021-09-07T16:47:00Z</time>
      </trkpt>
      <trkpt lat="44.38507" lon="5.62385">
        <ele>1052.9</ele>
        <time>2021-09-07T16:47:01Z</time>
      </trkpt>
      <trkpt lat="44.38503" lon="5.6238">
        <ele>1052.6</ele>
        <time>2021-09-07T16:47:02Z</time>
      </trkpt>
      <trkpt lat="44.385" lon="5.62376">
        <ele>1052.3</ele>
        <time>2021-09-07T16:47:03Z</time>
      </trkpt>
      <trkpt lat="44.38498" lon="5.62374">
        <ele>1052.2</ele>
        <time>2021-09-07T16:47:04Z</time>
      </trkpt>
      <trkpt lat="44.38496" lon="5.62372">
        <ele>1052.1</ele>
        <time>2021-09-07T16:47:05Z</time>
      </trkpt>
      <trkpt lat="44.38493" lon="5.62369">
        <ele>1051.9</ele>
        <time>2021-09-07T16:47:06Z</time>
      </trkpt>
      <trkpt lat="44.38488" lon="5.62365">
        <ele>1051.5</ele>
        <time>2021-09-07T16:47:07Z</time>
      </trkpt>
      <trkpt lat="44.38484" lon="5.62362">
        <ele>1051.3</ele>
        <time>2021-09-07T16:47:08Z</time>
      </trkpt>
      <trkpt lat="44.38481" lon="5.62358">
        <ele>1051.1</ele>
        <time>2021-09-07T16:47:09Z</time>
      </trkpt>
      <trkpt lat="44.38479" lon="5.62356">
        <ele>1050.9</ele>
        <time>2021-09-07T16:47:10Z</time>
      </trkpt>
      <trkpt lat="44.38476" lon="5.62353">
        <ele>1050.7</ele>
        <time>2021-09-07T16:47:11Z</time>
      </trkpt>
      <trkpt lat="44.38473" lon="5.62349">
        <ele>1050.5</ele>
        <time>2021-09-07T16:47:12Z</time>
      </trkpt>
      <trkpt lat="44.38469" lon="5.62345">
        <ele>1050.2</ele>
        <time>2021-09-07T16:47:13Z</time>
      </trkpt>
      <trkpt lat="44.38465" lon="5.62342">
        <ele>1050</ele>
        <time>2021-09-07T16:47:14Z</time>
      </trkpt>
      <trkpt lat="44.3846" lon="5.62337">
        <ele>1049.6</ele>
        <time>2021-09-07T16:47:15Z</time>
      </trkpt>
      <trkpt lat="44.38458" lon="5.62335">
        <ele>1049.5</ele>
        <time>2021-09-07T16:47:16Z</time>
      </trkpt>
      <trkpt lat="44.38456" lon="5.62332">
        <ele>1049.3</ele>
        <time>2021-09-07T16:47:17Z</time>
      </trkpt>
      <trkpt lat="44.38452" lon="5.62328">
        <ele>1049.1</ele>
        <time>2021-09-07T16:47:18Z</time>
      </trkpt>
      <trkpt lat="44.3845" lon="5.62326">
        <ele>1048.9</ele>
        <time>2021-09-07T16:47:19Z</time>
      </trkpt>
      <trkpt lat="44.38447" lon="5.62324">
        <ele>1048.8</ele>
        <time>2021-09-07T16:47:20Z</time>
      </trkpt>
      <trkpt lat="44.38444" lon="5.62322">
        <ele>1048.6</ele>
        <time>2021-09-07T16:47:21Z</time>
      </trkpt>
      <trkpt lat="44.38443" lon="5.6232">
        <ele>1048.7</ele>
        <time>2021-09-07T16:47:22Z</time>
      </trkpt>
      <trkpt lat="44.38442" lon="5.6232">
        <ele>1048.7</ele>
        <time>2021-09-07T16:47:23Z</time>
      </trkpt>
      <trkpt lat="44.38441" lon="5.6232">
        <ele>1048.8</ele>
        <time>2021-09-07T16:47:24Z</time>
      </trkpt>
      <trkpt lat="44.38442" lon="5.62321">
        <ele>1048.8</ele>
        <time>2021-09-07T16:47:25Z</time>
      </trkpt>
      <trkpt lat="44.38442" lon="5.62321">
        <ele>1048.8</ele>
        <time>2021-09-07T16:47:26Z</time>
      </trkpt>
      <trkpt lat="44.38442" lon="5.62321">
        <ele>1048.8</ele>
        <time>2021-09-07T16:47:27Z</time>
      </trkpt>
      <trkpt lat="44.38442" lon="5.62322">
        <ele>1048.8</ele>
        <time>2021-09-07T16:47:28Z</time>
      </trkpt>
      <trkpt lat="44.38442" lon="5.62322">
        <ele>1048.9</ele>
        <time>2021-09-07T16:47:29Z</time>
      </trkpt>
      <trkpt lat="44.38442" lon="5.62322">
        <ele>1048.9</ele>
        <time>2021-09-07T16:47:30Z</time>
      </trkpt>
      <trkpt lat="44.38442" lon="5.62322">
        <ele>1048.9</ele>
        <time>2021-09-07T16:47:31Z</time>
      </trkpt>
      <trkpt lat="44.38442" lon="5.62322">
        <ele>1048.9</ele>
        <time>2021-09-07T16:47:32Z</time>
      </trkpt>
      <trkpt lat="44.38443" lon="5.62323">
        <ele>1048.9</ele>
        <time>2021-09-07T16:47:33Z</time>
      </trkpt>
      <trkpt lat="44.38443" lon="5.62323">
        <ele>1048.9</ele>
        <time>2021-09-07T16:47:34Z</time>
      </trkpt>
      <trkpt lat="44.38443" lon="5.62324">
        <ele>1049</ele>
        <time>2021-09-07T16:47:35Z</time>
      </trkpt>
      <trkpt lat="44.38444" lon="5.62324">
        <ele>1049</ele>
        <time>2021-09-07T16:47:36Z</time>
      </trkpt>
      <trkpt lat="44.38445" lon="5.62325">
        <ele>1049.1</ele>
        <time>2021-09-07T16:47:37Z</time>
      </trkpt>
      <trkpt lat="44.38447" lon="5.62326">
        <ele>1049.2</ele>
        <time>2021-09-07T16:47:38Z</time>
      </trkpt>
      <trkpt lat="44.38448" lon="5.62327">
        <ele>1049.2</ele>
        <time>2021-09-07T16:47:39Z</time>
      </trkpt>
      <trkpt lat="44.38448" lon="5.62327">
        <ele>1049.3</ele>
        <time>2021-09-07T16:47:40Z</time>
      </trkpt>
      <trkpt lat="44.38449" lon="5.62329">
        <ele>1049.3</ele>
        <time>2021-09-07T16:47:41Z</time>
      </trkpt>
      <trkpt lat="44.3845" lon="5.6233">
        <ele>1049.4</ele>
        <time>2021-09-07T16:47:42Z</time>
      </trkpt>
      <trkpt lat="44.38451" lon="5.62331">
        <ele>1049.5</ele>
        <time>2021-09-07T16:47:43Z</time>
      </trkpt>
      <trkpt lat="44.38453" lon="5.62332">
        <ele>1049.6</ele>
        <time>2021-09-07T16:47:44Z</time>
      </trkpt>
      <trkpt lat="44.38454" lon="5.62332">
        <ele>1049.6</ele>
        <time>2021-09-07T16:47:45Z</time>
      </trkpt>
      <trkpt lat="44.38455" lon="5.62332">
        <ele>1049.7</ele>
        <time>2021-09-07T16:47:46Z</time>
      </trkpt>
      <trkpt lat="44.38456" lon="5.62332">
        <ele>1049.7</ele>
        <time>2021-09-07T16:47:47Z</time>
      </trkpt>
      <trkpt lat="44.38456" lon="5.62332">
        <ele>1049.7</ele>
        <time>2021-09-07T16:47:48Z</time>
      </trkpt>
      <trkpt lat="44.38457" lon="5.62332">
        <ele>1049.8</ele>
        <time>2021-09-07T16:47:49Z</time>
      </trkpt>
      <trkpt lat="44.38457" lon="5.62332">
        <ele>1049.8</ele>
        <time>2021-09-07T16:47:50Z</time>
      </trkpt>
      <trkpt lat="44.38457" lon="5.62332">
        <ele>1049.8</ele>
        <time>2021-09-07T16:47:51Z</time>
      </trkpt>
      <trkpt lat="44.38457" lon="5.62332">
        <ele>1049.8</ele>
        <time>2021-09-07T16:47:52Z</time>
      </trkpt>
      <trkpt lat="44.38457" lon="5.62332">
        <ele>1049.8</ele>
        <time>2021-09-07T16:47:53Z</time>
      </trkpt>
      <trkpt lat="44.38457" lon="5.62332">
        <ele>1049.8</ele>
        <time>2021-09-07T16:47:54Z</time>
      </trkpt>
      <trkpt lat="44.38458" lon="5.62332">
        <ele>1049.9</ele>
        <time>2021-09-07T16:47:55Z</time>
      </trkpt>
      <trkpt lat="44.38458" lon="5.62332">
        <ele>1049.9</ele>
        <time>2021-09-07T16:47:56Z</time>
      </trkpt>
      <trkpt lat="44.38458" lon="5.62332">
        <ele>1049.9</ele>
        <time>2021-09-07T16:47:57Z</time>
      </trkpt>
      <trkpt lat="44.38459" lon="5.62333">
        <ele>1049.9</ele>
        <time>2021-09-07T16:47:58Z</time>
      </trkpt>
      <trkpt lat="44.3846" lon="5.62334">
        <ele>1050</ele>
        <time>2021-09-07T16:47:59Z</time>
      </trkpt>
      <trkpt lat="44.38461" lon="5.62335">
        <ele>1050</ele>
        <time>2021-09-07T16:48:00Z</time>
      </trkpt>
      <trkpt lat="44.38462" lon="5.62336">
        <ele>1050.1</ele>
        <time>2021-09-07T16:48:01Z</time>
      </trkpt>
      <trkpt lat="44.38464" lon="5.62338">
        <ele>1050.2</ele>
        <time>2021-09-07T16:48:02Z</time>
      </trkpt>
      <trkpt lat="44.38465" lon="5.62339">
        <ele>1050.3</ele>
        <time>2021-09-07T16:48:03Z</time>
      </trkpt>
      <trkpt lat="44.38466" lon="5.62341">
        <ele>1050.4</ele>
        <time>2021-09-07T16:48:04Z</time>
      </trkpt>
      <trkpt lat="44.38467" lon="5.62342">
        <ele>1050.5</ele>
        <time>2021-09-07T16:48:05Z</time>
      </trkpt>
      <trkpt lat="44.38468" lon="5.62343">
        <ele>1050.5</ele>
        <time>2021-09-07T16:48:06Z</time>
      </trkpt>
      <trkpt lat="44.38469" lon="5.62345">
        <ele>1050.6</ele>
        <time>2021-09-07T16:48:07Z</time>
      </trkpt>
      <trkpt lat="44.3847" lon="5.62347">
        <ele>1050.7</ele>
        <time>2021-09-07T16:48:08Z</time>
      </trkpt>
      <trkpt lat="44.38472" lon="5.6235">
        <ele>1050.8</ele>
        <time>2021-09-07T16:48:09Z</time>
      </trkpt>
      <trkpt lat="44.38473" lon="5.62352">
        <ele>1051</ele>
        <time>2021-09-07T16:48:10Z</time>
      </trkpt>
      <trkpt lat="44.38474" lon="5.62353">
        <ele>1051</ele>
        <time>2021-09-07T16:48:11Z</time>
      </trkpt>
      <trkpt lat="44.38476" lon="5.62356">
        <ele>1051.2</ele>
        <time>2021-09-07T16:48:12Z</time>
      </trkpt>
      <trkpt lat="44.38478" lon="5.62358">
        <ele>1051.3</ele>
        <time>2021-09-07T16:48:13Z</time>
      </trkpt>
      <trkpt lat="44.38479" lon="5.62359">
        <ele>1051.4</ele>
        <time>2021-09-07T16:48:14Z</time>
      </trkpt>
      <trkpt lat="44.3848" lon="5.62361">
        <ele>1051.4</ele>
        <time>2021-09-07T16:48:15Z</time>
      </trkpt>
      <trkpt lat="44.38481" lon="5.62362">
        <ele>1051.5</ele>
        <time>2021-09-07T16:48:16Z</time>
      </trkpt>
      <trkpt lat="44.38482" lon="5.62363">
        <ele>1051.6</ele>
        <time>2021-09-07T16:48:17Z</time>
      </trkpt>
      <trkpt lat="44.38484" lon="5.62366">
        <ele>1051.7</ele>
        <time>2021-09-07T16:48:18Z</time>
      </trkpt>
      <trkpt lat="44.38485" lon="5.62367">
        <ele>1051.8</ele>
        <time>2021-09-07T16:48:19Z</time>
      </trkpt>
      <trkpt lat="44.38486" lon="5.62368">
        <ele>1051.9</ele>
        <time>2021-09-07T16:48:20Z</time>
      </trkpt>
      <trkpt lat="44.38487" lon="5.62369">
        <ele>1051.9</ele>
        <time>2021-09-07T16:48:21Z</time>
      </trkpt>
      <trkpt lat="44.38488" lon="5.6237">
        <ele>1052</ele>
        <time>2021-09-07T16:48:22Z</time>
      </trkpt>
      <trkpt lat="44.38489" lon="5.62371">
        <ele>1052.1</ele>
        <time>2021-09-07T16:48:23Z</time>
      </trkpt>
      <trkpt lat="44.3849" lon="5.62372">
        <ele>1052.1</ele>
        <time>2021-09-07T16:48:24Z</time>
      </trkpt>
      <trkpt lat="44.38491" lon="5.62374">
        <ele>1052.2</ele>
        <time>2021-09-07T16:48:25Z</time>
      </trkpt>
      <trkpt lat="44.38493" lon="5.62377">
        <ele>1052.4</ele>
        <time>2021-09-07T16:48:26Z</time>
      </trkpt>
      <trkpt lat="44.38494" lon="5.62379">
        <ele>1052.5</ele>
        <time>2021-09-07T16:48:27Z</time>
      </trkpt>
      <trkpt lat="44.38495" lon="5.6238">
        <ele>1052.5</ele>
        <time>2021-09-07T16:48:28Z</time>
      </trkpt>
      <trkpt lat="44.38496" lon="5.62381">
        <ele>1052.6</ele>
        <time>2021-09-07T16:48:29Z</time>
      </trkpt>
      <trkpt lat="44.38496" lon="5.62382">
        <ele>1052.6</ele>
        <time>2021-09-07T16:48:30Z</time>
      </trkpt>
      <trkpt lat="44.38498" lon="5.62384">
        <ele>1052.8</ele>
        <time>2021-09-07T16:48:31Z</time>
      </trkpt>
      <trkpt lat="44.38499" lon="5.62386">
        <ele>1052.9</ele>
        <time>2021-09-07T16:48:32Z</time>
      </trkpt>
      <trkpt lat="44.38502" lon="5.62388">
        <ele>1053</ele>
        <time>2021-09-07T16:48:33Z</time>
      </trkpt>
      <trkpt lat="44.38503" lon="5.62389">
        <ele>1053.1</ele>
        <time>2021-09-07T16:48:34Z</time>
      </trkpt>
      <trkpt lat="44.38504" lon="5.62391">
        <ele>1053.2</ele>
        <time>2021-09-07T16:48:35Z</time>
      </trkpt>
      <trkpt lat="44.38505" lon="5.62393">
        <ele>1053.2</ele>
        <time>2021-09-07T16:48:36Z</time>
      </trkpt>
      <trkpt lat="44.38505" lon="5.62394">
        <ele>1053.3</ele>
        <time>2021-09-07T16:48:37Z</time>
      </trkpt>
      <trkpt lat="44.38507" lon="5.62396">
        <ele>1053.4</ele>
        <time>2021-09-07T16:48:38Z</time>
      </trkpt>
      <trkpt lat="44.38509" lon="5.62399">
        <ele>1053.6</ele>
        <time>2021-09-07T16:48:39Z</time>
      </trkpt>
      <trkpt lat="44.3851" lon="5.62401">
        <ele>1053.7</ele>
        <time>2021-09-07T16:48:40Z</time>
      </trkpt>
      <trkpt lat="44.38511" lon="5.62402">
        <ele>1053.7</ele>
        <time>2021-09-07T16:48:41Z</time>
      </trkpt>
      <trkpt lat="44.38512" lon="5.62403">
        <ele>1053.8</ele>
        <time>2021-09-07T16:48:42Z</time>
      </trkpt>
      <trkpt lat="44.38513" lon="5.62404">
        <ele>1053.9</ele>
        <time>2021-09-07T16:48:43Z</time>
      </trkpt>
      <trkpt lat="44.38515" lon="5.62405">
        <ele>1054</ele>
        <time>2021-09-07T16:48:44Z</time>
      </trkpt>
      <trkpt lat="44.38518" lon="5.62406">
        <ele>1054.1</ele>
        <time>2021-09-07T16:48:45Z</time>
      </trkpt>
      <trkpt lat="44.3852" lon="5.62406">
        <ele>1054.3</ele>
        <time>2021-09-07T16:48:46Z</time>
      </trkpt>
      <trkpt lat="44.38521" lon="5.62407">
        <ele>1054.3</ele>
        <time>2021-09-07T16:48:47Z</time>
      </trkpt>
      <trkpt lat="44.38522" lon="5.62408">
        <ele>1054.4</ele>
        <time>2021-09-07T16:48:48Z</time>
      </trkpt>
      <trkpt lat="44.38524" lon="5.62409">
        <ele>1054.5</ele>
        <time>2021-09-07T16:48:49Z</time>
      </trkpt>
      <trkpt lat="44.38525" lon="5.6241">
        <ele>1054.6</ele>
        <time>2021-09-07T16:48:50Z</time>
      </trkpt>
      <trkpt lat="44.38526" lon="5.62411">
        <ele>1054.6</ele>
        <time>2021-09-07T16:48:51Z</time>
      </trkpt>
      <trkpt lat="44.38526" lon="5.62411">
        <ele>1054.6</ele>
        <time>2021-09-07T16:48:52Z</time>
      </trkpt>
      <trkpt lat="44.38526" lon="5.62413">
        <ele>1054.7</ele>
        <time>2021-09-07T16:48:53Z</time>
      </trkpt>
      <trkpt lat="44.38527" lon="5.62414">
        <ele>1054.8</ele>
        <time>2021-09-07T16:48:54Z</time>
      </trkpt>
      <trkpt lat="44.38528" lon="5.62416">
        <ele>1054.9</ele>
        <time>2021-09-07T16:48:55Z</time>
      </trkpt>
      <trkpt lat="44.38528" lon="5.62417">
        <ele>1054.9</ele>
        <time>2021-09-07T16:48:56Z</time>
      </trkpt>
      <trkpt lat="44.38529" lon="5.62419">
        <ele>1055</ele>
        <time>2021-09-07T16:48:57Z</time>
      </trkpt>
      <trkpt lat="44.3853" lon="5.6242">
        <ele>1055</ele>
        <time>2021-09-07T16:48:58Z</time>
      </trkpt>
      <trkpt lat="44.3853" lon="5.62421">
        <ele>1055.1</ele>
        <time>2021-09-07T16:48:59Z</time>
      </trkpt>
      <trkpt lat="44.38531" lon="5.62423">
        <ele>1055.2</ele>
        <time>2021-09-07T16:49:00Z</time>
      </trkpt>
      <trkpt lat="44.38532" lon="5.62424">
        <ele>1055.2</ele>
        <time>2021-09-07T16:49:01Z</time>
      </trkpt>
      <trkpt lat="44.38533" lon="5.62425">
        <ele>1055.3</ele>
        <time>2021-09-07T16:49:02Z</time>
      </trkpt>
      <trkpt lat="44.38534" lon="5.62425">
        <ele>1055.3</ele>
        <time>2021-09-07T16:49:03Z</time>
      </trkpt>
      <trkpt lat="44.38535" lon="5.62426">
        <ele>1055.4</ele>
        <time>2021-09-07T16:49:04Z</time>
      </trkpt>
      <trkpt lat="44.38536" lon="5.62427">
        <ele>1055.5</ele>
        <time>2021-09-07T16:49:05Z</time>
      </trkpt>
      <trkpt lat="44.38538" lon="5.62427">
        <ele>1055.6</ele>
        <time>2021-09-07T16:49:06Z</time>
      </trkpt>
      <trkpt lat="44.38539" lon="5.62428">
        <ele>1055.6</ele>
        <time>2021-09-07T16:49:07Z</time>
      </trkpt>
      <trkpt lat="44.3854" lon="5.62429">
        <ele>1055.7</ele>
        <time>2021-09-07T16:49:08Z</time>
      </trkpt>
      <trkpt lat="44.38541" lon="5.6243">
        <ele>1055.8</ele>
        <time>2021-09-07T16:49:09Z</time>
      </trkpt>
      <trkpt lat="44.38543" lon="5.6243">
        <ele>1055.9</ele>
        <time>2021-09-07T16:49:10Z</time>
      </trkpt>
      <trkpt lat="44.38544" lon="5.62431">
        <ele>1055.9</ele>
        <time>2021-09-07T16:49:11Z</time>
      </trkpt>
      <trkpt lat="44.38545" lon="5.62432">
        <ele>1056</ele>
        <time>2021-09-07T16:49:12Z</time>
      </trkpt>
      <trkpt lat="44.38546" lon="5.62433">
        <ele>1056.1</ele>
        <time>2021-09-07T16:49:13Z</time>
      </trkpt>
      <trkpt lat="44.38547" lon="5.62434">
        <ele>1056.1</ele>
        <time>2021-09-07T16:49:14Z</time>
      </trkpt>
      <trkpt lat="44.38549" lon="5.62437">
        <ele>1056.3</ele>
        <time>2021-09-07T16:49:15Z</time>
      </trkpt>
      <trkpt lat="44.3855" lon="5.62438">
        <ele>1056.4</ele>
        <time>2021-09-07T16:49:16Z</time>
      </trkpt>
      <trkpt lat="44.3855" lon="5.6244">
        <ele>1056.4</ele>
        <time>2021-09-07T16:49:17Z</time>
      </trkpt>
      <trkpt lat="44.38551" lon="5.62441">
        <ele>1056.5</ele>
        <time>2021-09-07T16:49:18Z</time>
      </trkpt>
      <trkpt lat="44.38553" lon="5.62443">
        <ele>1056.6</ele>
        <time>2021-09-07T16:49:19Z</time>
      </trkpt>
      <trkpt lat="44.38554" lon="5.62445">
        <ele>1056.7</ele>
        <time>2021-09-07T16:49:20Z</time>
      </trkpt>
      <trkpt lat="44.38556" lon="5.62446">
        <ele>1056.8</ele>
        <time>2021-09-07T16:49:21Z</time>
      </trkpt>
      <trkpt lat="44.38557" lon="5.62446">
        <ele>1056.9</ele>
        <time>2021-09-07T16:49:22Z</time>
      </trkpt>
      <trkpt lat="44.38557" lon="5.62447">
        <ele>1056.9</ele>
        <time>2021-09-07T16:49:23Z</time>
      </trkpt>
      <trkpt lat="44.38557" lon="5.62447">
        <ele>1056.9</ele>
        <time>2021-09-07T16:49:24Z</time>
      </trkpt>
      <trkpt lat="44.38557" lon="5.62447">
        <ele>1056.9</ele>
        <time>2021-09-07T16:49:25Z</time>
      </trkpt>
      <trkpt lat="44.38558" lon="5.62447">
        <ele>1057</ele>
        <time>2021-09-07T16:49:26Z</time>
      </trkpt>
      <trkpt lat="44.38558" lon="5.62447">
        <ele>1057</ele>
        <time>2021-09-07T16:49:27Z</time>
      </trkpt>
      <trkpt lat="44.38558" lon="5.62448">
        <ele>1057</ele>
        <time>2021-09-07T16:49:28Z</time>
      </trkpt>
      <trkpt lat="44.38559" lon="5.62448">
        <ele>1057.1</ele>
        <time>2021-09-07T16:49:29Z</time>
      </trkpt>
      <trkpt lat="44.3856" lon="5.62449">
        <ele>1057.1</ele>
        <time>2021-09-07T16:49:30Z</time>
      </trkpt>
      <trkpt lat="44.38561" lon="5.6245">
        <ele>1057.2</ele>
        <time>2021-09-07T16:49:31Z</time>
      </trkpt>
      <trkpt lat="44.38561" lon="5.62451">
        <ele>1057.2</ele>
        <time>2021-09-07T16:49:32Z</time>
      </trkpt>
      <trkpt lat="44.38563" lon="5.62453">
        <ele>1057.4</ele>
        <time>2021-09-07T16:49:33Z</time>
      </trkpt>
      <trkpt lat="44.38564" lon="5.62454">
        <ele>1057.4</ele>
        <time>2021-09-07T16:49:34Z</time>
      </trkpt>
      <trkpt lat="44.38565" lon="5.62456">
        <ele>1057.5</ele>
        <time>2021-09-07T16:49:35Z</time>
      </trkpt>
      <trkpt lat="44.38566" lon="5.62457">
        <ele>1057.6</ele>
        <time>2021-09-07T16:49:36Z</time>
      </trkpt>
      <trkpt lat="44.38567" lon="5.62458">
        <ele>1057.6</ele>
        <time>2021-09-07T16:49:37Z</time>
      </trkpt>
      <trkpt lat="44.38568" lon="5.6246">
        <ele>1057.7</ele>
        <time>2021-09-07T16:49:38Z</time>
      </trkpt>
      <trkpt lat="44.38569" lon="5.62461">
        <ele>1057.8</ele>
        <time>2021-09-07T16:49:39Z</time>
      </trkpt>
      <trkpt lat="44.3857" lon="5.62464">
        <ele>1057.9</ele>
        <time>2021-09-07T16:49:40Z</time>
      </trkpt>
      <trkpt lat="44.38571" lon="5.62465">
        <ele>1058</ele>
        <time>2021-09-07T16:49:41Z</time>
      </trkpt>
      <trkpt lat="44.38571" lon="5.62466">
        <ele>1058</ele>
        <time>2021-09-07T16:49:42Z</time>
      </trkpt>
      <trkpt lat="44.38573" lon="5.62469">
        <ele>1058.2</ele>
        <time>2021-09-07T16:49:43Z</time>
      </trkpt>
      <trkpt lat="44.38574" lon="5.62471">
        <ele>1058.3</ele>
        <time>2021-09-07T16:49:44Z</time>
      </trkpt>
      <trkpt lat="44.38575" lon="5.62473">
        <ele>1058.3</ele>
        <time>2021-09-07T16:49:45Z</time>
      </trkpt>
      <trkpt lat="44.38576" lon="5.62474">
        <ele>1058.4</ele>
        <time>2021-09-07T16:49:46Z</time>
      </trkpt>
      <trkpt lat="44.38577" lon="5.62475">
        <ele>1058.5</ele>
        <time>2021-09-07T16:49:47Z</time>
      </trkpt>
      <trkpt lat="44.38578" lon="5.62477">
        <ele>1058.6</ele>
        <time>2021-09-07T16:49:48Z</time>
      </trkpt>
      <trkpt lat="44.38579" lon="5.62478">
        <ele>1058.6</ele>
        <time>2021-09-07T16:49:49Z</time>
      </trkpt>
      <trkpt lat="44.38581" lon="5.6248">
        <ele>1058.8</ele>
        <time>2021-09-07T16:49:50Z</time>
      </trkpt>
      <trkpt lat="44.38582" lon="5.62481">
        <ele>1058.8</ele>
        <time>2021-09-07T16:49:51Z</time>
      </trkpt>
      <trkpt lat="44.38583" lon="5.62482">
        <ele>1058.9</ele>
        <time>2021-09-07T16:49:52Z</time>
      </trkpt>
      <trkpt lat="44.38584" lon="5.62483">
        <ele>1059</ele>
        <time>2021-09-07T16:49:53Z</time>
      </trkpt>
      <trkpt lat="44.38585" lon="5.62484">
        <ele>1059</ele>
        <time>2021-09-07T16:49:54Z</time>
      </trkpt>
      <trkpt lat="44.38586" lon="5.62485">
        <ele>1059.1</ele>
        <time>2021-09-07T16:49:55Z</time>
      </trkpt>
      <trkpt lat="44.38587" lon="5.62487">
        <ele>1059.2</ele>
        <time>2021-09-07T16:49:56Z</time>
      </trkpt>
      <trkpt lat="44.38588" lon="5.62489">
        <ele>1059.3</ele>
        <time>2021-09-07T16:49:57Z</time>
      </trkpt>
      <trkpt lat="44.38589" lon="5.62491">
        <ele>1059.4</ele>
        <time>2021-09-07T16:49:58Z</time>
      </trkpt>
      <trkpt lat="44.3859" lon="5.62492">
        <ele>1059.4</ele>
        <time>2021-09-07T16:49:59Z</time>
      </trkpt>
      <trkpt lat="44.3859" lon="5.62493">
        <ele>1059.5</ele>
        <time>2021-09-07T16:50:00Z</time>
      </trkpt>
      <trkpt lat="44.3859" lon="5.62495">
        <ele>1059.5</ele>
        <time>2021-09-07T16:50:01Z</time>
      </trkpt>
      <trkpt lat="44.38591" lon="5.62497">
        <ele>1059.6</ele>
        <time>2021-09-07T16:50:02Z</time>
      </trkpt>
      <trkpt lat="44.38592" lon="5.62498">
        <ele>1059.7</ele>
        <time>2021-09-07T16:50:03Z</time>
      </trkpt>
      <trkpt lat="44.38592" lon="5.62499">
        <ele>1059.7</ele>
        <time>2021-09-07T16:50:04Z</time>
      </trkpt>
      <trkpt lat="44.38593" lon="5.625">
        <ele>1059.8</ele>
        <time>2021-09-07T16:50:05Z</time>
      </trkpt>
      <trkpt lat="44.38594" lon="5.62501">
        <ele>1059.9</ele>
        <time>2021-09-07T16:50:06Z</time>
      </trkpt>
      <trkpt lat="44.38595" lon="5.62503">
        <ele>1060</ele>
        <time>2021-09-07T16:50:07Z</time>
      </trkpt>
      <trkpt lat="44.38595" lon="5.62504">
        <ele>1060</ele>
        <time>2021-09-07T16:50:08Z</time>
      </trkpt>
      <trkpt lat="44.38595" lon="5.62505">
        <ele>1060</ele>
        <time>2021-09-07T16:50:09Z</time>
      </trkpt>
      <trkpt lat="44.38596" lon="5.62507">
        <ele>1060.1</ele>
        <time>2021-09-07T16:50:10Z</time>
      </trkpt>
      <trkpt lat="44.38597" lon="5.62509">
        <ele>1060.2</ele>
        <time>2021-09-07T16:50:11Z</time>
      </trkpt>
      <trkpt lat="44.38598" lon="5.6251">
        <ele>1060.3</ele>
        <time>2021-09-07T16:50:12Z</time>
      </trkpt>
      <trkpt lat="44.38599" lon="5.62511">
        <ele>1060.3</ele>
        <time>2021-09-07T16:50:13Z</time>
      </trkpt>
      <trkpt lat="44.386" lon="5.62513">
        <ele>1060.4</ele>
        <time>2021-09-07T16:50:14Z</time>
      </trkpt>
      <trkpt lat="44.38602" lon="5.62515">
        <ele>1060.6</ele>
        <time>2021-09-07T16:50:15Z</time>
      </trkpt>
      <trkpt lat="44.38604" lon="5.62517">
        <ele>1060.7</ele>
        <time>2021-09-07T16:50:16Z</time>
      </trkpt>
      <trkpt lat="44.38605" lon="5.62517">
        <ele>1060.7</ele>
        <time>2021-09-07T16:50:17Z</time>
      </trkpt>
      <trkpt lat="44.38607" lon="5.62518">
        <ele>1060.9</ele>
        <time>2021-09-07T16:50:18Z</time>
      </trkpt>
      <trkpt lat="44.38608" lon="5.62519">
        <ele>1060.9</ele>
        <time>2021-09-07T16:50:19Z</time>
      </trkpt>
      <trkpt lat="44.38609" lon="5.62519">
        <ele>1061</ele>
        <time>2021-09-07T16:50:20Z</time>
      </trkpt>
      <trkpt lat="44.3861" lon="5.6252">
        <ele>1061</ele>
        <time>2021-09-07T16:50:21Z</time>
      </trkpt>
      <trkpt lat="44.38612" lon="5.6252">
        <ele>1061.1</ele>
        <time>2021-09-07T16:50:22Z</time>
      </trkpt>
      <trkpt lat="44.38614" lon="5.62521">
        <ele>1061.3</ele>
        <time>2021-09-07T16:50:23Z</time>
      </trkpt>
      <trkpt lat="44.38615" lon="5.62522">
        <ele>1061.3</ele>
        <time>2021-09-07T16:50:24Z</time>
      </trkpt>
      <trkpt lat="44.38615" lon="5.62522">
        <ele>1061.3</ele>
        <time>2021-09-07T16:50:25Z</time>
      </trkpt>
      <trkpt lat="44.38616" lon="5.62522">
        <ele>1061.4</ele>
        <time>2021-09-07T16:50:26Z</time>
      </trkpt>
      <trkpt lat="44.38616" lon="5.62522">
        <ele>1061.4</ele>
        <time>2021-09-07T16:50:27Z</time>
      </trkpt>
      <trkpt lat="44.38616" lon="5.62523">
        <ele>1061.4</ele>
        <time>2021-09-07T16:50:28Z</time>
      </trkpt>
      <trkpt lat="44.38617" lon="5.62525">
        <ele>1061.5</ele>
        <time>2021-09-07T16:50:29Z</time>
      </trkpt>
      <trkpt lat="44.38619" lon="5.62526">
        <ele>1061.6</ele>
        <time>2021-09-07T16:50:30Z</time>
      </trkpt>
      <trkpt lat="44.3862" lon="5.62528">
        <ele>1061.7</ele>
        <time>2021-09-07T16:50:31Z</time>
      </trkpt>
      <trkpt lat="44.38621" lon="5.6253">
        <ele>1061.8</ele>
        <time>2021-09-07T16:50:32Z</time>
      </trkpt>
      <trkpt lat="44.38621" lon="5.62531">
        <ele>1061.8</ele>
        <time>2021-09-07T16:50:33Z</time>
      </trkpt>
      <trkpt lat="44.38622" lon="5.62534">
        <ele>1061.9</ele>
        <time>2021-09-07T16:50:34Z</time>
      </trkpt>
      <trkpt lat="44.38623" lon="5.62536">
        <ele>1062</ele>
        <time>2021-09-07T16:50:35Z</time>
      </trkpt>
      <trkpt lat="44.38624" lon="5.62539">
        <ele>1062.2</ele>
        <time>2021-09-07T16:50:36Z</time>
      </trkpt>
      <trkpt lat="44.38625" lon="5.62541">
        <ele>1062.3</ele>
        <time>2021-09-07T16:50:37Z</time>
      </trkpt>
      <trkpt lat="44.38626" lon="5.62542">
        <ele>1062.3</ele>
        <time>2021-09-07T16:50:38Z</time>
      </trkpt>
      <trkpt lat="44.38627" lon="5.62543">
        <ele>1062.4</ele>
        <time>2021-09-07T16:50:39Z</time>
      </trkpt>
      <trkpt lat="44.38628" lon="5.62545">
        <ele>1062.5</ele>
        <time>2021-09-07T16:50:40Z</time>
      </trkpt>
      <trkpt lat="44.3863" lon="5.62548">
        <ele>1062.6</ele>
        <time>2021-09-07T16:50:41Z</time>
      </trkpt>
      <trkpt lat="44.38631" lon="5.6255">
        <ele>1062.7</ele>
        <time>2021-09-07T16:50:42Z</time>
      </trkpt>
      <trkpt lat="44.38632" lon="5.62552">
        <ele>1062.8</ele>
        <time>2021-09-07T16:50:43Z</time>
      </trkpt>
      <trkpt lat="44.38634" lon="5.62553">
        <ele>1062.9</ele>
        <time>2021-09-07T16:50:44Z</time>
      </trkpt>
      <trkpt lat="44.38635" lon="5.62556">
        <ele>1063.1</ele>
        <time>2021-09-07T16:50:45Z</time>
      </trkpt>
      <trkpt lat="44.38636" lon="5.62558">
        <ele>1063.1</ele>
        <time>2021-09-07T16:50:46Z</time>
      </trkpt>
      <trkpt lat="44.38638" lon="5.62562">
        <ele>1063.3</ele>
        <time>2021-09-07T16:50:47Z</time>
      </trkpt>
      <trkpt lat="44.38639" lon="5.62563">
        <ele>1063.4</ele>
        <time>2021-09-07T16:50:48Z</time>
      </trkpt>
      <trkpt lat="44.3864" lon="5.62565">
        <ele>1063.5</ele>
        <time>2021-09-07T16:50:49Z</time>
      </trkpt>
      <trkpt lat="44.3864" lon="5.62566">
        <ele>1063.5</ele>
        <time>2021-09-07T16:50:50Z</time>
      </trkpt>
      <trkpt lat="44.38642" lon="5.62568">
        <ele>1063.7</ele>
        <time>2021-09-07T16:50:51Z</time>
      </trkpt>
      <trkpt lat="44.38644" lon="5.62571">
        <ele>1063.8</ele>
        <time>2021-09-07T16:50:52Z</time>
      </trkpt>
      <trkpt lat="44.38646" lon="5.62574">
        <ele>1064</ele>
        <time>2021-09-07T16:50:53Z</time>
      </trkpt>
      <trkpt lat="44.38647" lon="5.62576">
        <ele>1064.1</ele>
        <time>2021-09-07T16:50:54Z</time>
      </trkpt>
      <trkpt lat="44.38647" lon="5.62577">
        <ele>1064.1</ele>
        <time>2021-09-07T16:50:55Z</time>
      </trkpt>
      <trkpt lat="44.38647" lon="5.62578">
        <ele>1064.1</ele>
        <time>2021-09-07T16:50:56Z</time>
      </trkpt>
      <trkpt lat="44.38648" lon="5.6258">
        <ele>1064.2</ele>
        <time>2021-09-07T16:50:57Z</time>
      </trkpt>
      <trkpt lat="44.38649" lon="5.62582">
        <ele>1064.3</ele>
        <time>2021-09-07T16:50:58Z</time>
      </trkpt>
      <trkpt lat="44.3865" lon="5.62584">
        <ele>1064.4</ele>
        <time>2021-09-07T16:50:59Z</time>
      </trkpt>
      <trkpt lat="44.38651" lon="5.62586">
        <ele>1064.5</ele>
        <time>2021-09-07T16:51:00Z</time>
      </trkpt>
      <trkpt lat="44.38652" lon="5.62588">
        <ele>1064.6</ele>
        <time>2021-09-07T16:51:01Z</time>
      </trkpt>
      <trkpt lat="44.38653" lon="5.6259">
        <ele>1064.7</ele>
        <time>2021-09-07T16:51:02Z</time>
      </trkpt>
      <trkpt lat="44.38653" lon="5.62593">
        <ele>1064.8</ele>
        <time>2021-09-07T16:51:03Z</time>
      </trkpt>
      <trkpt lat="44.38654" lon="5.62596">
        <ele>1064.9</ele>
        <time>2021-09-07T16:51:04Z</time>
      </trkpt>
      <trkpt lat="44.38655" lon="5.62599">
        <ele>1065</ele>
        <time>2021-09-07T16:51:05Z</time>
      </trkpt>
      <trkpt lat="44.38656" lon="5.62601">
        <ele>1065.1</ele>
        <time>2021-09-07T16:51:06Z</time>
      </trkpt>
      <trkpt lat="44.38657" lon="5.62602">
        <ele>1065.2</ele>
        <time>2021-09-07T16:51:07Z</time>
      </trkpt>
      <trkpt lat="44.38658" lon="5.62604">
        <ele>1065.3</ele>
        <time>2021-09-07T16:51:08Z</time>
      </trkpt>
      <trkpt lat="44.38659" lon="5.62606">
        <ele>1065.4</ele>
        <time>2021-09-07T16:51:09Z</time>
      </trkpt>
      <trkpt lat="44.3866" lon="5.62607">
        <ele>1065.4</ele>
        <time>2021-09-07T16:51:10Z</time>
      </trkpt>
      <trkpt lat="44.38661" lon="5.62608">
        <ele>1065.5</ele>
        <time>2021-09-07T16:51:11Z</time>
      </trkpt>
      <trkpt lat="44.38662" lon="5.62609">
        <ele>1065.6</ele>
        <time>2021-09-07T16:51:12Z</time>
      </trkpt>
      <trkpt lat="44.38663" lon="5.6261">
        <ele>1065.6</ele>
        <time>2021-09-07T16:51:13Z</time>
      </trkpt>
      <trkpt lat="44.38663" lon="5.62611">
        <ele>1065.7</ele>
        <time>2021-09-07T16:51:14Z</time>
      </trkpt>
      <trkpt lat="44.38664" lon="5.62612">
        <ele>1065.7</ele>
        <time>2021-09-07T16:51:15Z</time>
      </trkpt>
      <trkpt lat="44.38664" lon="5.62613">
        <ele>1065.8</ele>
        <time>2021-09-07T16:51:16Z</time>
      </trkpt>
      <trkpt lat="44.38664" lon="5.62614">
        <ele>1065.8</ele>
        <time>2021-09-07T16:51:17Z</time>
      </trkpt>
      <trkpt lat="44.38664" lon="5.62614">
        <ele>1065.8</ele>
        <time>2021-09-07T16:51:18Z</time>
      </trkpt>
      <trkpt lat="44.38664" lon="5.62615">
        <ele>1065.8</ele>
        <time>2021-09-07T16:51:19Z</time>
      </trkpt>
      <trkpt lat="44.38665" lon="5.62617">
        <ele>1065.9</ele>
        <time>2021-09-07T16:51:20Z</time>
      </trkpt>
      <trkpt lat="44.38667" lon="5.6262">
        <ele>1066.1</ele>
        <time>2021-09-07T16:51:21Z</time>
      </trkpt>
      <trkpt lat="44.38668" lon="5.62621">
        <ele>1065.6</ele>
        <time>2021-09-07T16:51:22Z</time>
      </trkpt>
      <trkpt lat="44.38668" lon="5.62622">
        <ele>1065.6</ele>
        <time>2021-09-07T16:51:23Z</time>
      </trkpt>
      <trkpt lat="44.38668" lon="5.62624">
        <ele>1065.6</ele>
        <time>2021-09-07T16:51:24Z</time>
      </trkpt>
      <trkpt lat="44.3867" lon="5.62626">
        <ele>1066.9</ele>
        <time>2021-09-07T16:51:25Z</time>
      </trkpt>
      <trkpt lat="44.38671" lon="5.62628">
        <ele>1066.9</ele>
        <time>2021-09-07T16:51:26Z</time>
      </trkpt>
      <trkpt lat="44.38672" lon="5.62631">
        <ele>1066.4</ele>
        <time>2021-09-07T16:51:27Z</time>
      </trkpt>
      <trkpt lat="44.38673" lon="5.62634">
        <ele>1067.1</ele>
        <time>2021-09-07T16:51:28Z</time>
      </trkpt>
      <trkpt lat="44.38674" lon="5.62635">
        <ele>1067.1</ele>
        <time>2021-09-07T16:51:29Z</time>
      </trkpt>
      <trkpt lat="44.38674" lon="5.62636">
        <ele>1067.1</ele>
        <time>2021-09-07T16:51:30Z</time>
      </trkpt>
      <trkpt lat="44.38675" lon="5.6264">
        <ele>1066.7</ele>
        <time>2021-09-07T16:51:31Z</time>
      </trkpt>
      <trkpt lat="44.38676" lon="5.62642">
        <ele>1067.3</ele>
        <time>2021-09-07T16:51:32Z</time>
      </trkpt>
      <trkpt lat="44.38676" lon="5.62644">
        <ele>1067.3</ele>
        <time>2021-09-07T16:51:33Z</time>
      </trkpt>
      <trkpt lat="44.38677" lon="5.62646">
        <ele>1067.1</ele>
        <time>2021-09-07T16:51:34Z</time>
      </trkpt>
      <trkpt lat="44.38678" lon="5.62648">
        <ele>1067.1</ele>
        <time>2021-09-07T16:51:35Z</time>
      </trkpt>
      <trkpt lat="44.38678" lon="5.62649">
        <ele>1067.1</ele>
        <time>2021-09-07T16:51:36Z</time>
      </trkpt>
      <trkpt lat="44.38679" lon="5.62653">
        <ele>1067.8</ele>
        <time>2021-09-07T16:51:37Z</time>
      </trkpt>
      <trkpt lat="44.38678" lon="5.62655">
        <ele>1066.7</ele>
        <time>2021-09-07T16:51:38Z</time>
      </trkpt>
      <trkpt lat="44.38677" lon="5.62657">
        <ele>1066.7</ele>
        <time>2021-09-07T16:51:39Z</time>
      </trkpt>
      <trkpt lat="44.38676" lon="5.62658">
        <ele>1066.7</ele>
        <time>2021-09-07T16:51:40Z</time>
      </trkpt>
      <trkpt lat="44.38675" lon="5.6266">
        <ele>1065.5</ele>
        <time>2021-09-07T16:51:41Z</time>
      </trkpt>
      <trkpt lat="44.38674" lon="5.62662">
        <ele>1065.5</ele>
        <time>2021-09-07T16:51:42Z</time>
      </trkpt>
      <trkpt lat="44.38673" lon="5.62666">
        <ele>1065.4</ele>
        <time>2021-09-07T16:51:43Z</time>
      </trkpt>
      <trkpt lat="44.38673" lon="5.62668">
        <ele>1065.2</ele>
        <time>2021-09-07T16:51:44Z</time>
      </trkpt>
      <trkpt lat="44.38672" lon="5.62669">
        <ele>1064.2</ele>
        <time>2021-09-07T16:51:45Z</time>
      </trkpt>
      <trkpt lat="44.38671" lon="5.62671">
        <ele>1064.2</ele>
        <time>2021-09-07T16:51:46Z</time>
      </trkpt>
      <trkpt lat="44.3867" lon="5.62671">
        <ele>1064.2</ele>
        <time>2021-09-07T16:51:47Z</time>
      </trkpt>
      <trkpt lat="44.3867" lon="5.62672">
        <ele>1064.1</ele>
        <time>2021-09-07T16:51:48Z</time>
      </trkpt>
      <trkpt lat="44.38669" lon="5.62673">
        <ele>1062.4</ele>
        <time>2021-09-07T16:51:49Z</time>
      </trkpt>
      <trkpt lat="44.38668" lon="5.62673">
        <ele>1062.4</ele>
        <time>2021-09-07T16:51:50Z</time>
      </trkpt>
      <trkpt lat="44.38666" lon="5.62675">
        <ele>1061.4</ele>
        <time>2021-09-07T16:51:51Z</time>
      </trkpt>
      <trkpt lat="44.38664" lon="5.62675">
        <ele>1061.4</ele>
        <time>2021-09-07T16:51:52Z</time>
      </trkpt>
      <trkpt lat="44.38663" lon="5.62675">
        <ele>1060.4</ele>
        <time>2021-09-07T16:51:53Z</time>
      </trkpt>
      <trkpt lat="44.38662" lon="5.62675">
        <ele>1060.4</ele>
        <time>2021-09-07T16:51:54Z</time>
      </trkpt>
      <trkpt lat="44.3866" lon="5.62675">
        <ele>1060.4</ele>
        <time>2021-09-07T16:51:55Z</time>
      </trkpt>
      <trkpt lat="44.38658" lon="5.62674">
        <ele>1059.5</ele>
        <time>2021-09-07T16:51:56Z</time>
      </trkpt>
      <trkpt lat="44.38656" lon="5.62673">
        <ele>1058.7</ele>
        <time>2021-09-07T16:51:57Z</time>
      </trkpt>
      <trkpt lat="44.38655" lon="5.62672">
        <ele>1058.7</ele>
        <time>2021-09-07T16:51:58Z</time>
      </trkpt>
      <trkpt lat="44.38653" lon="5.62671">
        <ele>1057.8</ele>
        <time>2021-09-07T16:51:59Z</time>
      </trkpt>
      <trkpt lat="44.38651" lon="5.6267">
        <ele>1057.8</ele>
        <time>2021-09-07T16:52:00Z</time>
      </trkpt>
      <trkpt lat="44.38647" lon="5.62669">
        <ele>1056.1</ele>
        <time>2021-09-07T16:52:01Z</time>
      </trkpt>
      <trkpt lat="44.38646" lon="5.62669">
        <ele>1056.1</ele>
        <time>2021-09-07T16:52:02Z</time>
      </trkpt>
      <trkpt lat="44.38644" lon="5.62668">
        <ele>1055.3</ele>
        <time>2021-09-07T16:52:03Z</time>
      </trkpt>
      <trkpt lat="44.38642" lon="5.62669">
        <ele>1055.3</ele>
        <time>2021-09-07T16:52:04Z</time>
      </trkpt>
      <trkpt lat="44.3864" lon="5.62669">
        <ele>1054.4</ele>
        <time>2021-09-07T16:52:05Z</time>
      </trkpt>
      <trkpt lat="44.38638" lon="5.62671">
        <ele>1053.6</ele>
        <time>2021-09-07T16:52:06Z</time>
      </trkpt>
      <trkpt lat="44.38636" lon="5.62672">
        <ele>1053.8</ele>
        <time>2021-09-07T16:52:07Z</time>
      </trkpt>
      <trkpt lat="44.38635" lon="5.62672">
        <ele>1053.1</ele>
        <time>2021-09-07T16:52:08Z</time>
      </trkpt>
      <trkpt lat="44.38634" lon="5.62673">
        <ele>1053.1</ele>
        <time>2021-09-07T16:52:09Z</time>
      </trkpt>
      <trkpt lat="44.38633" lon="5.62673">
        <ele>1053.1</ele>
        <time>2021-09-07T16:52:10Z</time>
      </trkpt>
      <trkpt lat="44.38632" lon="5.62674">
        <ele>1052.4</ele>
        <time>2021-09-07T16:52:11Z</time>
      </trkpt>
      <trkpt lat="44.38631" lon="5.62675">
        <ele>1052.4</ele>
        <time>2021-09-07T16:52:12Z</time>
      </trkpt>
      <trkpt lat="44.38628" lon="5.62676">
        <ele>1052</ele>
        <time>2021-09-07T16:52:13Z</time>
      </trkpt>
      <trkpt lat="44.38627" lon="5.62676">
        <ele>1052</ele>
        <time>2021-09-07T16:52:14Z</time>
      </trkpt>
      <trkpt lat="44.38626" lon="5.62676">
        <ele>1051.3</ele>
        <time>2021-09-07T16:52:15Z</time>
      </trkpt>
      <trkpt lat="44.38625" lon="5.62676">
        <ele>1051.3</ele>
        <time>2021-09-07T16:52:16Z</time>
      </trkpt>
      <trkpt lat="44.38624" lon="5.62675">
        <ele>1051.1</ele>
        <time>2021-09-07T16:52:17Z</time>
      </trkpt>
      <trkpt lat="44.38622" lon="5.62675">
        <ele>1050.5</ele>
        <time>2021-09-07T16:52:18Z</time>
      </trkpt>
      <trkpt lat="44.3862" lon="5.62675">
        <ele>1049.9</ele>
        <time>2021-09-07T16:52:19Z</time>
      </trkpt>
      <trkpt lat="44.38618" lon="5.62674">
        <ele>1049.9</ele>
        <time>2021-09-07T16:52:20Z</time>
      </trkpt>
      <trkpt lat="44.38616" lon="5.62673">
        <ele>1049.3</ele>
        <time>2021-09-07T16:52:21Z</time>
      </trkpt>
      <trkpt lat="44.38614" lon="5.62672">
        <ele>1049.3</ele>
        <time>2021-09-07T16:52:22Z</time>
      </trkpt>
      <trkpt lat="44.38613" lon="5.62671">
        <ele>1048.5</ele>
        <time>2021-09-07T16:52:23Z</time>
      </trkpt>
      <trkpt lat="44.38612" lon="5.6267">
        <ele>1048.5</ele>
        <time>2021-09-07T16:52:24Z</time>
      </trkpt>
      <trkpt lat="44.3861" lon="5.62669">
        <ele>1047.9</ele>
        <time>2021-09-07T16:52:25Z</time>
      </trkpt>
      <trkpt lat="44.38607" lon="5.62668">
        <ele>1047.3</ele>
        <time>2021-09-07T16:52:26Z</time>
      </trkpt>
      <trkpt lat="44.38605" lon="5.62667">
        <ele>1047.1</ele>
        <time>2021-09-07T16:52:27Z</time>
      </trkpt>
      <trkpt lat="44.38605" lon="5.62667">
        <ele>1046.5</ele>
        <time>2021-09-07T16:52:28Z</time>
      </trkpt>
      <trkpt lat="44.38604" lon="5.62666">
        <ele>1046.5</ele>
        <time>2021-09-07T16:52:29Z</time>
      </trkpt>
      <trkpt lat="44.38603" lon="5.62665">
        <ele>1046.5</ele>
        <time>2021-09-07T16:52:30Z</time>
      </trkpt>
      <trkpt lat="44.38602" lon="5.62665">
        <ele>1046.5</ele>
        <time>2021-09-07T16:52:31Z</time>
      </trkpt>
      <trkpt lat="44.38602" lon="5.62665">
        <ele>1046.5</ele>
        <time>2021-09-07T16:52:32Z</time>
      </trkpt>
      <trkpt lat="44.38601" lon="5.62665">
        <ele>1046</ele>
        <time>2021-09-07T16:52:33Z</time>
      </trkpt>
      <trkpt lat="44.38599" lon="5.62665">
        <ele>1046</ele>
        <time>2021-09-07T16:52:34Z</time>
      </trkpt>
      <trkpt lat="44.38598" lon="5.62665">
        <ele>1045.6</ele>
        <time>2021-09-07T16:52:35Z</time>
      </trkpt>
      <trkpt lat="44.38596" lon="5.62665">
        <ele>1045.6</ele>
        <time>2021-09-07T16:52:36Z</time>
      </trkpt>
      <trkpt lat="44.38595" lon="5.62667">
        <ele>1045.1</ele>
        <time>2021-09-07T16:52:37Z</time>
      </trkpt>
      <trkpt lat="44.38594" lon="5.62668">
        <ele>1045.4</ele>
        <time>2021-09-07T16:52:38Z</time>
      </trkpt>
      <trkpt lat="44.38592" lon="5.6267">
        <ele>1045</ele>
        <time>2021-09-07T16:52:39Z</time>
      </trkpt>
      <trkpt lat="44.38591" lon="5.6267">
        <ele>1045</ele>
        <time>2021-09-07T16:52:40Z</time>
      </trkpt>
      <trkpt lat="44.3859" lon="5.6267">
        <ele>1045</ele>
        <time>2021-09-07T16:52:41Z</time>
      </trkpt>
      <trkpt lat="44.38589" lon="5.6267">
        <ele>1044.6</ele>
        <time>2021-09-07T16:52:42Z</time>
      </trkpt>
      <trkpt lat="44.38588" lon="5.6267">
        <ele>1044.6</ele>
        <time>2021-09-07T16:52:43Z</time>
      </trkpt>
      <trkpt lat="44.38586" lon="5.62671">
        <ele>1044.2</ele>
        <time>2021-09-07T16:52:44Z</time>
      </trkpt>
      <trkpt lat="44.38585" lon="5.62672">
        <ele>1044.5</ele>
        <time>2021-09-07T16:52:45Z</time>
      </trkpt>
      <trkpt lat="44.38584" lon="5.62673">
        <ele>1044.5</ele>
        <time>2021-09-07T16:52:46Z</time>
      </trkpt>
      <trkpt lat="44.38584" lon="5.62674">
        <ele>1044.5</ele>
        <time>2021-09-07T16:52:47Z</time>
      </trkpt>
      <trkpt lat="44.38584" lon="5.62674">
        <ele>1044.5</ele>
        <time>2021-09-07T16:52:48Z</time>
      </trkpt>
      <trkpt lat="44.38584" lon="5.62675">
        <ele>1044.5</ele>
        <time>2021-09-07T16:52:49Z</time>
      </trkpt>
      <trkpt lat="44.38584" lon="5.62676">
        <ele>1044.9</ele>
        <time>2021-09-07T16:52:50Z</time>
      </trkpt>
      <trkpt lat="44.38584" lon="5.62676">
        <ele>1044.9</ele>
        <time>2021-09-07T16:52:51Z</time>
      </trkpt>
      <trkpt lat="44.38584" lon="5.62676">
        <ele>1044.9</ele>
        <time>2021-09-07T16:52:52Z</time>
      </trkpt>
      <trkpt lat="44.38585" lon="5.62676">
        <ele>1044.9</ele>
        <time>2021-09-07T16:52:53Z</time>
      </trkpt>
      <trkpt lat="44.38585" lon="5.62676">
        <ele>1044.9</ele>
        <time>2021-09-07T16:52:54Z</time>
      </trkpt>
      <trkpt lat="44.38585" lon="5.62676">
        <ele>1044.9</ele>
        <time>2021-09-07T16:52:55Z</time>
      </trkpt>
      <trkpt lat="44.38585" lon="5.62676">
        <ele>1044.9</ele>
        <time>2021-09-07T16:52:56Z</time>
      </trkpt>
      <trkpt lat="44.38585" lon="5.62676">
        <ele>1044.9</ele>
        <time>2021-09-07T16:52:57Z</time>
      </trkpt>
      <trkpt lat="44.38585" lon="5.62676">
        <ele>1044.9</ele>
        <time>2021-09-07T16:52:58Z</time>
      </trkpt>
      <trkpt lat="44.38585" lon="5.62676">
        <ele>1044.9</ele>
        <time>2021-09-07T16:52:59Z</time>
      </trkpt>
      <trkpt lat="44.38585" lon="5.62676">
        <ele>1044.5</ele>
        <time>2021-09-07T16:53:00Z</time>
      </trkpt>
      <trkpt lat="44.38585" lon="5.62675">
        <ele>1044.5</ele>
        <time>2021-09-07T16:53:01Z</time>
      </trkpt>
      <trkpt lat="44.38584" lon="5.62675">
        <ele>1044.5</ele>
        <time>2021-09-07T16:53:02Z</time>
      </trkpt>
      <trkpt lat="44.38583" lon="5.62676">
        <ele>1044.5</ele>
        <time>2021-09-07T16:53:03Z</time>
      </trkpt>
      <trkpt lat="44.38582" lon="5.62677">
        <ele>1044.5</ele>
        <time>2021-09-07T16:53:04Z</time>
      </trkpt>
      <trkpt lat="44.3858" lon="5.62677">
        <ele>1044.2</ele>
        <time>2021-09-07T16:53:05Z</time>
      </trkpt>
      <trkpt lat="44.38579" lon="5.62678">
        <ele>1044.2</ele>
        <time>2021-09-07T16:53:06Z</time>
      </trkpt>
      <trkpt lat="44.38578" lon="5.62678">
        <ele>1044.2</ele>
        <time>2021-09-07T16:53:07Z</time>
      </trkpt>
      <trkpt lat="44.38577" lon="5.62678">
        <ele>1044</ele>
        <time>2021-09-07T16:53:08Z</time>
      </trkpt>
      <trkpt lat="44.38576" lon="5.62678">
        <ele>1044</ele>
        <time>2021-09-07T16:53:09Z</time>
      </trkpt>
      <trkpt lat="44.38575" lon="5.62678">
        <ele>1044</ele>
        <time>2021-09-07T16:53:10Z</time>
      </trkpt>
      <trkpt lat="44.38574" lon="5.62679">
        <ele>1043.8</ele>
        <time>2021-09-07T16:53:11Z</time>
      </trkpt>
      <trkpt lat="44.38574" lon="5.62679">
        <ele>1043.8</ele>
        <time>2021-09-07T16:53:12Z</time>
      </trkpt>
      <trkpt lat="44.38574" lon="5.62679">
        <ele>1043.8</ele>
        <time>2021-09-07T16:53:13Z</time>
      </trkpt>
      <trkpt lat="44.38574" lon="5.62679">
        <ele>1043.8</ele>
        <time>2021-09-07T16:53:14Z</time>
      </trkpt>
      <trkpt lat="44.38574" lon="5.6268">
        <ele>1043.8</ele>
        <time>2021-09-07T16:53:15Z</time>
      </trkpt>
      <trkpt lat="44.38572" lon="5.62678">
        <ele>1043.8</ele>
        <time>2021-09-07T16:53:16Z</time>
      </trkpt>
      <trkpt lat="44.3857" lon="5.62677">
        <ele>1043.7</ele>
        <time>2021-09-07T16:53:17Z</time>
      </trkpt>
      <trkpt lat="44.38568" lon="5.62676">
        <ele>1043.7</ele>
        <time>2021-09-07T16:53:18Z</time>
      </trkpt>
      <trkpt lat="44.38566" lon="5.62675">
        <ele>1043.1</ele>
        <time>2021-09-07T16:53:19Z</time>
      </trkpt>
      <trkpt lat="44.38564" lon="5.62674">
        <ele>1043</ele>
        <time>2021-09-07T16:53:20Z</time>
      </trkpt>
      <trkpt lat="44.38564" lon="5.62674">
        <ele>1043</ele>
        <time>2021-09-07T16:53:21Z</time>
      </trkpt>
      <trkpt lat="44.38563" lon="5.62674">
        <ele>1043</ele>
        <time>2021-09-07T16:53:22Z</time>
      </trkpt>
      <trkpt lat="44.38561" lon="5.62673">
        <ele>1043</ele>
        <time>2021-09-07T16:53:23Z</time>
      </trkpt>
      <trkpt lat="44.38559" lon="5.62672">
        <ele>1043</ele>
        <time>2021-09-07T16:53:24Z</time>
      </trkpt>
      <trkpt lat="44.38556" lon="5.62672">
        <ele>1043</ele>
        <time>2021-09-07T16:53:25Z</time>
      </trkpt>
      <trkpt lat="44.38553" lon="5.62671">
        <ele>1042.5</ele>
        <time>2021-09-07T16:53:26Z</time>
      </trkpt>
      <trkpt lat="44.38549" lon="5.62669">
        <ele>1042.6</ele>
        <time>2021-09-07T16:53:27Z</time>
      </trkpt>
      <trkpt lat="44.38548" lon="5.62668">
        <ele>1042.6</ele>
        <time>2021-09-07T16:53:28Z</time>
      </trkpt>
      <trkpt lat="44.38546" lon="5.62667">
        <ele>1042.2</ele>
        <time>2021-09-07T16:53:29Z</time>
      </trkpt>
      <trkpt lat="44.38545" lon="5.62666">
        <ele>1042.2</ele>
        <time>2021-09-07T16:53:30Z</time>
      </trkpt>
      <trkpt lat="44.38544" lon="5.62664">
        <ele>1042.2</ele>
        <time>2021-09-07T16:53:31Z</time>
      </trkpt>
      <trkpt lat="44.38542" lon="5.62663">
        <ele>1041.9</ele>
        <time>2021-09-07T16:53:32Z</time>
      </trkpt>
      <trkpt lat="44.38541" lon="5.62662">
        <ele>1041.9</ele>
        <time>2021-09-07T16:53:33Z</time>
      </trkpt>
      <trkpt lat="44.3854" lon="5.62661">
        <ele>1042.1</ele>
        <time>2021-09-07T16:53:34Z</time>
      </trkpt>
      <trkpt lat="44.38538" lon="5.62661">
        <ele>1042.1</ele>
        <time>2021-09-07T16:53:35Z</time>
      </trkpt>
      <trkpt lat="44.38537" lon="5.6266">
        <ele>1042.2</ele>
        <time>2021-09-07T16:53:36Z</time>
      </trkpt>
      <trkpt lat="44.38536" lon="5.6266">
        <ele>1042.2</ele>
        <time>2021-09-07T16:53:37Z</time>
      </trkpt>
      <trkpt lat="44.38535" lon="5.62659">
        <ele>1042.2</ele>
        <time>2021-09-07T16:53:38Z</time>
      </trkpt>
      <trkpt lat="44.38534" lon="5.62658">
        <ele>1041.9</ele>
        <time>2021-09-07T16:53:39Z</time>
      </trkpt>
      <trkpt lat="44.38532" lon="5.62657">
        <ele>1041.9</ele>
        <time>2021-09-07T16:53:40Z</time>
      </trkpt>
      <trkpt lat="44.38531" lon="5.62656">
        <ele>1042.1</ele>
        <time>2021-09-07T16:53:41Z</time>
      </trkpt>
      <trkpt lat="44.3853" lon="5.62653">
        <ele>1041.6</ele>
        <time>2021-09-07T16:53:42Z</time>
      </trkpt>
      <trkpt lat="44.3853" lon="5.62652">
        <ele>1041.6</ele>
        <time>2021-09-07T16:53:43Z</time>
      </trkpt>
      <trkpt lat="44.38529" lon="5.62651">
        <ele>1041.6</ele>
        <time>2021-09-07T16:53:44Z</time>
      </trkpt>
      <trkpt lat="44.38527" lon="5.62649">
        <ele>1041.3</ele>
        <time>2021-09-07T16:53:45Z</time>
      </trkpt>
      <trkpt lat="44.38525" lon="5.62646">
        <ele>1041.6</ele>
        <time>2021-09-07T16:53:46Z</time>
      </trkpt>
      <trkpt lat="44.38524" lon="5.62644">
        <ele>1041.1</ele>
        <time>2021-09-07T16:53:47Z</time>
      </trkpt>
      <trkpt lat="44.38523" lon="5.62642">
        <ele>1041.1</ele>
        <time>2021-09-07T16:53:48Z</time>
      </trkpt>
      <trkpt lat="44.38522" lon="5.62639">
        <ele>1040.6</ele>
        <time>2021-09-07T16:53:49Z</time>
      </trkpt>
      <trkpt lat="44.38519" lon="5.62636">
        <ele>1040.3</ele>
        <time>2021-09-07T16:53:50Z</time>
      </trkpt>
      <trkpt lat="44.38516" lon="5.62632">
        <ele>1040</ele>
        <time>2021-09-07T16:53:51Z</time>
      </trkpt>
      <trkpt lat="44.38515" lon="5.6263">
        <ele>1040.3</ele>
        <time>2021-09-07T16:53:52Z</time>
      </trkpt>
      <trkpt lat="44.38515" lon="5.6263">
        <ele>1040.3</ele>
        <time>2021-09-07T16:53:53Z</time>
      </trkpt>
      <trkpt lat="44.38514" lon="5.62629">
        <ele>1040.3</ele>
        <time>2021-09-07T16:53:54Z</time>
      </trkpt>
      <trkpt lat="44.38512" lon="5.62627">
        <ele>1040.1</ele>
        <time>2021-09-07T16:53:55Z</time>
      </trkpt>
      <trkpt lat="44.38511" lon="5.62626">
        <ele>1040.1</ele>
        <time>2021-09-07T16:53:56Z</time>
      </trkpt>
      <trkpt lat="44.3851" lon="5.62625">
        <ele>1040.4</ele>
        <time>2021-09-07T16:53:57Z</time>
      </trkpt>
      <trkpt lat="44.38508" lon="5.62624">
        <ele>1040</ele>
        <time>2021-09-07T16:53:58Z</time>
      </trkpt>
      <trkpt lat="44.38508" lon="5.62623">
        <ele>1040</ele>
        <time>2021-09-07T16:53:59Z</time>
      </trkpt>
      <trkpt lat="44.38506" lon="5.62622">
        <ele>1040.3</ele>
        <time>2021-09-07T16:54:00Z</time>
      </trkpt>
      <trkpt lat="44.38505" lon="5.62621">
        <ele>1040.3</ele>
        <time>2021-09-07T16:54:01Z</time>
      </trkpt>
      <trkpt lat="44.38504" lon="5.62619">
        <ele>1039.9</ele>
        <time>2021-09-07T16:54:02Z</time>
      </trkpt>
      <trkpt lat="44.38504" lon="5.62618">
        <ele>1039.9</ele>
        <time>2021-09-07T16:54:03Z</time>
      </trkpt>
      <trkpt lat="44.38503" lon="5.62617">
        <ele>1040.2</ele>
        <time>2021-09-07T16:54:04Z</time>
      </trkpt>
      <trkpt lat="44.38503" lon="5.62617">
        <ele>1040.2</ele>
        <time>2021-09-07T16:54:05Z</time>
      </trkpt>
      <trkpt lat="44.38503" lon="5.62617">
        <ele>1040.2</ele>
        <time>2021-09-07T16:54:06Z</time>
      </trkpt>
      <trkpt lat="44.38502" lon="5.62615">
        <ele>1039.7</ele>
        <time>2021-09-07T16:54:07Z</time>
      </trkpt>
      <trkpt lat="44.38501" lon="5.62615">
        <ele>1039.7</ele>
        <time>2021-09-07T16:54:08Z</time>
      </trkpt>
      <trkpt lat="44.385" lon="5.62614">
        <ele>1040</ele>
        <time>2021-09-07T16:54:09Z</time>
      </trkpt>
      <trkpt lat="44.38498" lon="5.62611">
        <ele>1039.6</ele>
        <time>2021-09-07T16:54:10Z</time>
      </trkpt>
      <trkpt lat="44.38496" lon="5.62609">
        <ele>1039.8</ele>
        <time>2021-09-07T16:54:11Z</time>
      </trkpt>
      <trkpt lat="44.38495" lon="5.62608">
        <ele>1039.8</ele>
        <time>2021-09-07T16:54:12Z</time>
      </trkpt>
      <trkpt lat="44.38495" lon="5.62608">
        <ele>1039.8</ele>
        <time>2021-09-07T16:54:13Z</time>
      </trkpt>
      <trkpt lat="44.38494" lon="5.62607">
        <ele>1039.6</ele>
        <time>2021-09-07T16:54:14Z</time>
      </trkpt>
      <trkpt lat="44.38492" lon="5.62606">
        <ele>1039.6</ele>
        <time>2021-09-07T16:54:15Z</time>
      </trkpt>
      <trkpt lat="44.3849" lon="5.62604">
        <ele>1039.9</ele>
        <time>2021-09-07T16:54:16Z</time>
      </trkpt>
      <trkpt lat="44.38489" lon="5.62604">
        <ele>1039.9</ele>
        <time>2021-09-07T16:54:17Z</time>
      </trkpt>
      <trkpt lat="44.38487" lon="5.62603">
        <ele>1040.1</ele>
        <time>2021-09-07T16:54:18Z</time>
      </trkpt>
      <trkpt lat="44.38486" lon="5.62602">
        <ele>1039.6</ele>
        <time>2021-09-07T16:54:19Z</time>
      </trkpt>
      <trkpt lat="44.38485" lon="5.62601">
        <ele>1039.8</ele>
        <time>2021-09-07T16:54:20Z</time>
      </trkpt>
      <trkpt lat="44.38483" lon="5.626">
        <ele>1039.8</ele>
        <time>2021-09-07T16:54:21Z</time>
      </trkpt>
      <trkpt lat="44.38482" lon="5.62599">
        <ele>1040.1</ele>
        <time>2021-09-07T16:54:22Z</time>
      </trkpt>
      <trkpt lat="44.38481" lon="5.62598">
        <ele>1039.5</ele>
        <time>2021-09-07T16:54:23Z</time>
      </trkpt>
      <trkpt lat="44.38479" lon="5.62596">
        <ele>1039.8</ele>
        <time>2021-09-07T16:54:24Z</time>
      </trkpt>
      <trkpt lat="44.38478" lon="5.62595">
        <ele>1039.8</ele>
        <time>2021-09-07T16:54:25Z</time>
      </trkpt>
      <trkpt lat="44.38477" lon="5.62594">
        <ele>1039.2</ele>
        <time>2021-09-07T16:54:26Z</time>
      </trkpt>
      <trkpt lat="44.38476" lon="5.62592">
        <ele>1039.2</ele>
        <time>2021-09-07T16:54:27Z</time>
      </trkpt>
      <trkpt lat="44.38474" lon="5.62591">
        <ele>1039.4</ele>
        <time>2021-09-07T16:54:28Z</time>
      </trkpt>
      <trkpt lat="44.38474" lon="5.62591">
        <ele>1039.4</ele>
        <time>2021-09-07T16:54:29Z</time>
      </trkpt>
      <trkpt lat="44.38474" lon="5.6259">
        <ele>1038.8</ele>
        <time>2021-09-07T16:54:30Z</time>
      </trkpt>
      <trkpt lat="44.38473" lon="5.62589">
        <ele>1038.8</ele>
        <time>2021-09-07T16:54:31Z</time>
      </trkpt>
      <trkpt lat="44.38473" lon="5.62589">
        <ele>1038.8</ele>
        <time>2021-09-07T16:54:32Z</time>
      </trkpt>
      <trkpt lat="44.38472" lon="5.62588">
        <ele>1039</ele>
        <time>2021-09-07T16:54:33Z</time>
      </trkpt>
      <trkpt lat="44.38472" lon="5.62587">
        <ele>1039</ele>
        <time>2021-09-07T16:54:34Z</time>
      </trkpt>
      <trkpt lat="44.38471" lon="5.62586">
        <ele>1039</ele>
        <time>2021-09-07T16:54:35Z</time>
      </trkpt>
      <trkpt lat="44.3847" lon="5.62585">
        <ele>1038.4</ele>
        <time>2021-09-07T16:54:36Z</time>
      </trkpt>
      <trkpt lat="44.38468" lon="5.62583">
        <ele>1038.6</ele>
        <time>2021-09-07T16:54:37Z</time>
      </trkpt>
      <trkpt lat="44.38466" lon="5.62582">
        <ele>1038.8</ele>
        <time>2021-09-07T16:54:38Z</time>
      </trkpt>
      <trkpt lat="44.38465" lon="5.62582">
        <ele>1038.2</ele>
        <time>2021-09-07T16:54:39Z</time>
      </trkpt>
      <trkpt lat="44.38464" lon="5.62581">
        <ele>1038.2</ele>
        <time>2021-09-07T16:54:40Z</time>
      </trkpt>
      <trkpt lat="44.38462" lon="5.6258">
        <ele>1038.3</ele>
        <time>2021-09-07T16:54:41Z</time>
      </trkpt>
      <trkpt lat="44.38461" lon="5.62579">
        <ele>1038.3</ele>
        <time>2021-09-07T16:54:42Z</time>
      </trkpt>
      <trkpt lat="44.3846" lon="5.62578">
        <ele>1038.4</ele>
        <time>2021-09-07T16:54:43Z</time>
      </trkpt>
      <trkpt lat="44.38459" lon="5.62578">
        <ele>1038.4</ele>
        <time>2021-09-07T16:54:44Z</time>
      </trkpt>
      <trkpt lat="44.38458" lon="5.62577">
        <ele>1037.8</ele>
        <time>2021-09-07T16:54:45Z</time>
      </trkpt>
      <trkpt lat="44.38456" lon="5.62576">
        <ele>1037.9</ele>
        <time>2021-09-07T16:54:46Z</time>
      </trkpt>
      <trkpt lat="44.38455" lon="5.62574">
        <ele>1037.9</ele>
        <time>2021-09-07T16:54:47Z</time>
      </trkpt>
      <trkpt lat="44.38454" lon="5.62573">
        <ele>1037.9</ele>
        <time>2021-09-07T16:54:48Z</time>
      </trkpt>
      <trkpt lat="44.38452" lon="5.62571">
        <ele>1037.3</ele>
        <time>2021-09-07T16:54:49Z</time>
      </trkpt>
      <trkpt lat="44.38451" lon="5.6257">
        <ele>1037.3</ele>
        <time>2021-09-07T16:54:50Z</time>
      </trkpt>
      <trkpt lat="44.38449" lon="5.62569">
        <ele>1037.3</ele>
        <time>2021-09-07T16:54:51Z</time>
      </trkpt>
      <trkpt lat="44.38447" lon="5.62568">
        <ele>1036.7</ele>
        <time>2021-09-07T16:54:52Z</time>
      </trkpt>
      <trkpt lat="44.38445" lon="5.62567">
        <ele>1036.7</ele>
        <time>2021-09-07T16:54:53Z</time>
      </trkpt>
      <trkpt lat="44.38445" lon="5.62567">
        <ele>1036.7</ele>
        <time>2021-09-07T16:54:54Z</time>
      </trkpt>
      <trkpt lat="44.38444" lon="5.62567">
        <ele>1036.7</ele>
        <time>2021-09-07T16:54:55Z</time>
      </trkpt>
      <trkpt lat="44.38443" lon="5.62567">
        <ele>1036.7</ele>
        <time>2021-09-07T16:54:56Z</time>
      </trkpt>
      <trkpt lat="44.38443" lon="5.62566">
        <ele>1036.7</ele>
        <time>2021-09-07T16:54:57Z</time>
      </trkpt>
      <trkpt lat="44.38442" lon="5.62566">
        <ele>1036.7</ele>
        <time>2021-09-07T16:54:58Z</time>
      </trkpt>
      <trkpt lat="44.38441" lon="5.62567">
        <ele>1036.7</ele>
        <time>2021-09-07T16:54:59Z</time>
      </trkpt>
      <trkpt lat="44.38441" lon="5.62567">
        <ele>1036.7</ele>
        <time>2021-09-07T16:55:00Z</time>
      </trkpt>
      <trkpt lat="44.3844" lon="5.62567">
        <ele>1036.7</ele>
        <time>2021-09-07T16:55:01Z</time>
      </trkpt>
      <trkpt lat="44.38439" lon="5.62567">
        <ele>1036.7</ele>
        <time>2021-09-07T16:55:02Z</time>
      </trkpt>
      <trkpt lat="44.38437" lon="5.62567">
        <ele>1036.7</ele>
        <time>2021-09-07T16:55:03Z</time>
      </trkpt>
      <trkpt lat="44.38436" lon="5.62567">
        <ele>1036.7</ele>
        <time>2021-09-07T16:55:04Z</time>
      </trkpt>
      <trkpt lat="44.38435" lon="5.62567">
        <ele>1036.7</ele>
        <time>2021-09-07T16:55:05Z</time>
      </trkpt>
      <trkpt lat="44.38435" lon="5.62567">
        <ele>1036.7</ele>
        <time>2021-09-07T16:55:06Z</time>
      </trkpt>
      <trkpt lat="44.38435" lon="5.62567">
        <ele>1036.7</ele>
        <time>2021-09-07T16:55:07Z</time>
      </trkpt>
      <trkpt lat="44.38435" lon="5.62567">
        <ele>1036.7</ele>
        <time>2021-09-07T16:55:08Z</time>
      </trkpt>
      <trkpt lat="44.38434" lon="5.62567">
        <ele>1036.7</ele>
        <time>2021-09-07T16:55:09Z</time>
      </trkpt>
      <trkpt lat="44.38434" lon="5.62567">
        <ele>1036.7</ele>
        <time>2021-09-07T16:55:10Z</time>
      </trkpt>
      <trkpt lat="44.38434" lon="5.62567">
        <ele>1036.7</ele>
        <time>2021-09-07T16:55:11Z</time>
      </trkpt>
      <trkpt lat="44.38434" lon="5.62567">
        <ele>1036.7</ele>
        <time>2021-09-07T16:55:12Z</time>
      </trkpt>
      <trkpt lat="44.38433" lon="5.62568">
        <ele>1036.7</ele>
        <time>2021-09-07T16:55:13Z</time>
      </trkpt>
      <trkpt lat="44.38431" lon="5.62568">
        <ele>1036.7</ele>
        <time>2021-09-07T16:55:14Z</time>
      </trkpt>
      <trkpt lat="44.38429" lon="5.62569">
        <ele>1037.4</ele>
        <time>2021-09-07T16:55:15Z</time>
      </trkpt>
      <trkpt lat="44.38428" lon="5.6257">
        <ele>1037.4</ele>
        <time>2021-09-07T16:55:16Z</time>
      </trkpt>
      <trkpt lat="44.38427" lon="5.6257">
        <ele>1037.4</ele>
        <time>2021-09-07T16:55:17Z</time>
      </trkpt>
      <trkpt lat="44.38426" lon="5.62571">
        <ele>1037.5</ele>
        <time>2021-09-07T16:55:18Z</time>
      </trkpt>
      <trkpt lat="44.38425" lon="5.62571">
        <ele>1037.5</ele>
        <time>2021-09-07T16:55:19Z</time>
      </trkpt>
      <trkpt lat="44.38424" lon="5.62571">
        <ele>1037.5</ele>
        <time>2021-09-07T16:55:20Z</time>
      </trkpt>
      <trkpt lat="44.38422" lon="5.62572">
        <ele>1037.5</ele>
        <time>2021-09-07T16:55:21Z</time>
      </trkpt>
      <trkpt lat="44.38421" lon="5.62572">
        <ele>1037.5</ele>
        <time>2021-09-07T16:55:22Z</time>
      </trkpt>
      <trkpt lat="44.38419" lon="5.62572">
        <ele>1037.5</ele>
        <time>2021-09-07T16:55:23Z</time>
      </trkpt>
      <trkpt lat="44.38418" lon="5.62572">
        <ele>1037.5</ele>
        <time>2021-09-07T16:55:24Z</time>
      </trkpt>
      <trkpt lat="44.38416" lon="5.62571">
        <ele>1037.6</ele>
        <time>2021-09-07T16:55:25Z</time>
      </trkpt>
      <trkpt lat="44.38415" lon="5.62571">
        <ele>1037.3</ele>
        <time>2021-09-07T16:55:26Z</time>
      </trkpt>
      <trkpt lat="44.38414" lon="5.62571">
        <ele>1037</ele>
        <time>2021-09-07T16:55:27Z</time>
      </trkpt>
      <trkpt lat="44.38414" lon="5.62571">
        <ele>1036.7</ele>
        <time>2021-09-07T16:55:28Z</time>
      </trkpt>
      <trkpt lat="44.38414" lon="5.62571">
        <ele>1036.4</ele>
        <time>2021-09-07T16:55:29Z</time>
      </trkpt>
      <trkpt lat="44.38413" lon="5.62571">
        <ele>1036.2</ele>
        <time>2021-09-07T16:55:30Z</time>
      </trkpt>
      <trkpt lat="44.38413" lon="5.62571">
        <ele>1035.9</ele>
        <time>2021-09-07T16:55:31Z</time>
      </trkpt>
      <trkpt lat="44.38413" lon="5.62571">
        <ele>1035.6</ele>
        <time>2021-09-07T16:55:32Z</time>
      </trkpt>
      <trkpt lat="44.38412" lon="5.62571">
        <ele>1035.3</ele>
        <time>2021-09-07T16:55:33Z</time>
      </trkpt>
      <trkpt lat="44.38412" lon="5.62571">
        <ele>1035</ele>
        <time>2021-09-07T16:55:34Z</time>
      </trkpt>
      <trkpt lat="44.38412" lon="5.62571">
        <ele>1034.7</ele>
        <time>2021-09-07T16:55:35Z</time>
      </trkpt>
      <trkpt lat="44.38412" lon="5.62571">
        <ele>1034.4</ele>
        <time>2021-09-07T16:55:36Z</time>
      </trkpt>
      <trkpt lat="44.38412" lon="5.62571">
        <ele>1034.1</ele>
        <time>2021-09-07T16:55:37Z</time>
      </trkpt>
      <trkpt lat="44.38412" lon="5.62571">
        <ele>1033.9</ele>
        <time>2021-09-07T16:55:38Z</time>
      </trkpt>
      <trkpt lat="44.38412" lon="5.62571">
        <ele>1033.6</ele>
        <time>2021-09-07T16:55:39Z</time>
      </trkpt>
      <trkpt lat="44.38412" lon="5.62571">
        <ele>1033.3</ele>
        <time>2021-09-07T16:55:40Z</time>
      </trkpt>
      <trkpt lat="44.38412" lon="5.62571">
        <ele>1033</ele>
        <time>2021-09-07T16:55:41Z</time>
      </trkpt>
      <trkpt lat="44.38411" lon="5.62571">
        <ele>1032.8</ele>
        <time>2021-09-07T16:55:42Z</time>
      </trkpt>
      <trkpt lat="44.3841" lon="5.62571">
        <ele>1032.5</ele>
        <time>2021-09-07T16:55:43Z</time>
      </trkpt>
      <trkpt lat="44.38408" lon="5.62572">
        <ele>1032.2</ele>
        <time>2021-09-07T16:55:44Z</time>
      </trkpt>
      <trkpt lat="44.38407" lon="5.62572">
        <ele>1031.9</ele>
        <time>2021-09-07T16:55:45Z</time>
      </trkpt>
      <trkpt lat="44.38405" lon="5.62572">
        <ele>1031.7</ele>
        <time>2021-09-07T16:55:46Z</time>
      </trkpt>
      <trkpt lat="44.38405" lon="5.62573">
        <ele>1031.4</ele>
        <time>2021-09-07T16:55:47Z</time>
      </trkpt>
      <trkpt lat="44.38404" lon="5.62573">
        <ele>1032</ele>
        <time>2021-09-07T16:55:48Z</time>
      </trkpt>
      <trkpt lat="44.38403" lon="5.62573">
        <ele>1031.7</ele>
        <time>2021-09-07T16:55:49Z</time>
      </trkpt>
      <trkpt lat="44.38403" lon="5.62573">
        <ele>1031.4</ele>
        <time>2021-09-07T16:55:50Z</time>
      </trkpt>
      <trkpt lat="44.38402" lon="5.62573">
        <ele>1031.1</ele>
        <time>2021-09-07T16:55:51Z</time>
      </trkpt>
      <trkpt lat="44.38402" lon="5.62573">
        <ele>1030.8</ele>
        <time>2021-09-07T16:55:52Z</time>
      </trkpt>
      <trkpt lat="44.38402" lon="5.62573">
        <ele>1030.5</ele>
        <time>2021-09-07T16:55:53Z</time>
      </trkpt>
      <trkpt lat="44.38401" lon="5.62573">
        <ele>1030.2</ele>
        <time>2021-09-07T16:55:54Z</time>
      </trkpt>
      <trkpt lat="44.384" lon="5.62573">
        <ele>1029.9</ele>
        <time>2021-09-07T16:55:55Z</time>
      </trkpt>
      <trkpt lat="44.38398" lon="5.62573">
        <ele>1029.6</ele>
        <time>2021-09-07T16:55:56Z</time>
      </trkpt>
      <trkpt lat="44.38396" lon="5.62573">
        <ele>1028.6</ele>
        <time>2021-09-07T16:55:57Z</time>
      </trkpt>
      <trkpt lat="44.38394" lon="5.62572">
        <ele>1028.3</ele>
        <time>2021-09-07T16:55:58Z</time>
      </trkpt>
      <trkpt lat="44.38392" lon="5.62571">
        <ele>1027.9</ele>
        <time>2021-09-07T16:55:59Z</time>
      </trkpt>
      <trkpt lat="44.38391" lon="5.62571">
        <ele>1027.6</ele>
        <time>2021-09-07T16:56:00Z</time>
      </trkpt>
      <trkpt lat="44.3839" lon="5.62571">
        <ele>1027.3</ele>
        <time>2021-09-07T16:56:01Z</time>
      </trkpt>
      <trkpt lat="44.38388" lon="5.62571">
        <ele>1027</ele>
        <time>2021-09-07T16:56:02Z</time>
      </trkpt>
      <trkpt lat="44.38385" lon="5.62571">
        <ele>1026.7</ele>
        <time>2021-09-07T16:56:03Z</time>
      </trkpt>
      <trkpt lat="44.38384" lon="5.62571">
        <ele>1026.4</ele>
        <time>2021-09-07T16:56:04Z</time>
      </trkpt>
      <trkpt lat="44.38383" lon="5.62571">
        <ele>1026.1</ele>
        <time>2021-09-07T16:56:05Z</time>
      </trkpt>
      <trkpt lat="44.38381" lon="5.62572">
        <ele>1025.9</ele>
        <time>2021-09-07T16:56:06Z</time>
      </trkpt>
      <trkpt lat="44.38379" lon="5.62572">
        <ele>1025.5</ele>
        <time>2021-09-07T16:56:07Z</time>
      </trkpt>
      <trkpt lat="44.38378" lon="5.62573">
        <ele>1026</ele>
        <time>2021-09-07T16:56:08Z</time>
      </trkpt>
      <trkpt lat="44.38378" lon="5.62573">
        <ele>1025.7</ele>
        <time>2021-09-07T16:56:09Z</time>
      </trkpt>
      <trkpt lat="44.38377" lon="5.62573">
        <ele>1025.4</ele>
        <time>2021-09-07T16:56:10Z</time>
      </trkpt>
      <trkpt lat="44.38376" lon="5.62574">
        <ele>1025.1</ele>
        <time>2021-09-07T16:56:11Z</time>
      </trkpt>
      <trkpt lat="44.38376" lon="5.62574">
        <ele>1024.8</ele>
        <time>2021-09-07T16:56:12Z</time>
      </trkpt>
      <trkpt lat="44.38375" lon="5.62574">
        <ele>1024.5</ele>
        <time>2021-09-07T16:56:13Z</time>
      </trkpt>
      <trkpt lat="44.38374" lon="5.62574">
        <ele>1024.2</ele>
        <time>2021-09-07T16:56:14Z</time>
      </trkpt>
      <trkpt lat="44.38373" lon="5.62574">
        <ele>1024</ele>
        <time>2021-09-07T16:56:15Z</time>
      </trkpt>
      <trkpt lat="44.3837" lon="5.62574">
        <ele>1023.6</ele>
        <time>2021-09-07T16:56:16Z</time>
      </trkpt>
      <trkpt lat="44.38369" lon="5.62574">
        <ele>1023.3</ele>
        <time>2021-09-07T16:56:17Z</time>
      </trkpt>
      <trkpt lat="44.38366" lon="5.62574">
        <ele>1023</ele>
        <time>2021-09-07T16:56:18Z</time>
      </trkpt>
      <trkpt lat="44.38364" lon="5.62574">
        <ele>1022.7</ele>
        <time>2021-09-07T16:56:19Z</time>
      </trkpt>
      <trkpt lat="44.38363" lon="5.62574">
        <ele>1022.4</ele>
        <time>2021-09-07T16:56:20Z</time>
      </trkpt>
      <trkpt lat="44.38363" lon="5.62574">
        <ele>1022.1</ele>
        <time>2021-09-07T16:56:21Z</time>
      </trkpt>
      <trkpt lat="44.38363" lon="5.62574">
        <ele>1021.8</ele>
        <time>2021-09-07T16:56:22Z</time>
      </trkpt>
      <trkpt lat="44.38363" lon="5.62574">
        <ele>1021.5</ele>
        <time>2021-09-07T16:56:23Z</time>
      </trkpt>
      <trkpt lat="44.38362" lon="5.62574">
        <ele>1021.2</ele>
        <time>2021-09-07T16:56:24Z</time>
      </trkpt>
      <trkpt lat="44.38359" lon="5.62575">
        <ele>1020.9</ele>
        <time>2021-09-07T16:56:25Z</time>
      </trkpt>
      <trkpt lat="44.38357" lon="5.62577">
        <ele>1020.6</ele>
        <time>2021-09-07T16:56:26Z</time>
      </trkpt>
      <trkpt lat="44.38356" lon="5.62577">
        <ele>1020.3</ele>
        <time>2021-09-07T16:56:27Z</time>
      </trkpt>
      <trkpt lat="44.38355" lon="5.62577">
        <ele>1020</ele>
        <time>2021-09-07T16:56:28Z</time>
      </trkpt>
      <trkpt lat="44.38355" lon="5.62577">
        <ele>1019.7</ele>
        <time>2021-09-07T16:56:29Z</time>
      </trkpt>
      <trkpt lat="44.38354" lon="5.62577">
        <ele>1019.4</ele>
        <time>2021-09-07T16:56:30Z</time>
      </trkpt>
      <trkpt lat="44.38353" lon="5.62578">
        <ele>1020</ele>
        <time>2021-09-07T16:56:31Z</time>
      </trkpt>
      <trkpt lat="44.38353" lon="5.62578">
        <ele>1019.7</ele>
        <time>2021-09-07T16:56:32Z</time>
      </trkpt>
      <trkpt lat="44.38352" lon="5.62578">
        <ele>1019.4</ele>
        <time>2021-09-07T16:56:33Z</time>
      </trkpt>
      <trkpt lat="44.38351" lon="5.62578">
        <ele>1019.2</ele>
        <time>2021-09-07T16:56:34Z</time>
      </trkpt>
      <trkpt lat="44.38351" lon="5.62578">
        <ele>1018.9</ele>
        <time>2021-09-07T16:56:35Z</time>
      </trkpt>
      <trkpt lat="44.3835" lon="5.62578">
        <ele>1018.5</ele>
        <time>2021-09-07T16:56:36Z</time>
      </trkpt>
      <trkpt lat="44.38349" lon="5.62578">
        <ele>1018.2</ele>
        <time>2021-09-07T16:56:37Z</time>
      </trkpt>
      <trkpt lat="44.38348" lon="5.62578">
        <ele>1017.9</ele>
        <time>2021-09-07T16:56:38Z</time>
      </trkpt>
      <trkpt lat="44.38346" lon="5.62577">
        <ele>1016.6</ele>
        <time>2021-09-07T16:56:39Z</time>
      </trkpt>
      <trkpt lat="44.38344" lon="5.62576">
        <ele>1016.2</ele>
        <time>2021-09-07T16:56:40Z</time>
      </trkpt>
      <trkpt lat="44.38341" lon="5.62576">
        <ele>1015.9</ele>
        <time>2021-09-07T16:56:41Z</time>
      </trkpt>
      <trkpt lat="44.3834" lon="5.62575">
        <ele>1015.5</ele>
        <time>2021-09-07T16:56:42Z</time>
      </trkpt>
      <trkpt lat="44.3834" lon="5.62575">
        <ele>1015.3</ele>
        <time>2021-09-07T16:56:43Z</time>
      </trkpt>
      <trkpt lat="44.38339" lon="5.62575">
        <ele>1015</ele>
        <time>2021-09-07T16:56:44Z</time>
      </trkpt>
      <trkpt lat="44.38339" lon="5.62575">
        <ele>1014.7</ele>
        <time>2021-09-07T16:56:45Z</time>
      </trkpt>
      <trkpt lat="44.38338" lon="5.62575">
        <ele>1014.4</ele>
        <time>2021-09-07T16:56:46Z</time>
      </trkpt>
      <trkpt lat="44.38337" lon="5.62574">
        <ele>1014</ele>
        <time>2021-09-07T16:56:47Z</time>
      </trkpt>
      <trkpt lat="44.38335" lon="5.62574">
        <ele>1013.7</ele>
        <time>2021-09-07T16:56:48Z</time>
      </trkpt>
      <trkpt lat="44.38334" lon="5.62574">
        <ele>1013.3</ele>
        <time>2021-09-07T16:56:49Z</time>
      </trkpt>
      <trkpt lat="44.38333" lon="5.62573">
        <ele>1013</ele>
        <time>2021-09-07T16:56:50Z</time>
      </trkpt>
      <trkpt lat="44.38331" lon="5.62573">
        <ele>1012.6</ele>
        <time>2021-09-07T16:56:51Z</time>
      </trkpt>
      <trkpt lat="44.38329" lon="5.62572">
        <ele>1011.5</ele>
        <time>2021-09-07T16:56:52Z</time>
      </trkpt>
      <trkpt lat="44.38328" lon="5.62572">
        <ele>1011.1</ele>
        <time>2021-09-07T16:56:53Z</time>
      </trkpt>
      <trkpt lat="44.38326" lon="5.62572">
        <ele>1010.8</ele>
        <time>2021-09-07T16:56:54Z</time>
      </trkpt>
      <trkpt lat="44.38325" lon="5.62572">
        <ele>1010.4</ele>
        <time>2021-09-07T16:56:55Z</time>
      </trkpt>
      <trkpt lat="44.38323" lon="5.62571">
        <ele>1010.1</ele>
        <time>2021-09-07T16:56:56Z</time>
      </trkpt>
      <trkpt lat="44.38322" lon="5.62571">
        <ele>1009.8</ele>
        <time>2021-09-07T16:56:57Z</time>
      </trkpt>
      <trkpt lat="44.38322" lon="5.62571">
        <ele>1009.5</ele>
        <time>2021-09-07T16:56:58Z</time>
      </trkpt>
      <trkpt lat="44.38321" lon="5.6257">
        <ele>1009.2</ele>
        <time>2021-09-07T16:56:59Z</time>
      </trkpt>
      <trkpt lat="44.38318" lon="5.6257">
        <ele>1008.8</ele>
        <time>2021-09-07T16:57:00Z</time>
      </trkpt>
      <trkpt lat="44.38316" lon="5.62569">
        <ele>1008.5</ele>
        <time>2021-09-07T16:57:01Z</time>
      </trkpt>
      <trkpt lat="44.38315" lon="5.62569">
        <ele>1008.2</ele>
        <time>2021-09-07T16:57:02Z</time>
      </trkpt>
      <trkpt lat="44.38314" lon="5.62569">
        <ele>1007.9</ele>
        <time>2021-09-07T16:57:03Z</time>
      </trkpt>
      <trkpt lat="44.38312" lon="5.62568">
        <ele>1006.8</ele>
        <time>2021-09-07T16:57:04Z</time>
      </trkpt>
      <trkpt lat="44.3831" lon="5.62567">
        <ele>1006.5</ele>
        <time>2021-09-07T16:57:05Z</time>
      </trkpt>
      <trkpt lat="44.38308" lon="5.62566">
        <ele>1006.5</ele>
        <time>2021-09-07T16:57:06Z</time>
      </trkpt>
      <trkpt lat="44.38308" lon="5.62566">
        <ele>1006.5</ele>
        <time>2021-09-07T16:57:07Z</time>
      </trkpt>
      <trkpt lat="44.38307" lon="5.62565">
        <ele>1006.5</ele>
        <time>2021-09-07T16:57:08Z</time>
      </trkpt>
      <trkpt lat="44.38304" lon="5.62565">
        <ele>1006.4</ele>
        <time>2021-09-07T16:57:09Z</time>
      </trkpt>
      <trkpt lat="44.38303" lon="5.62564">
        <ele>1005.6</ele>
        <time>2021-09-07T16:57:10Z</time>
      </trkpt>
      <trkpt lat="44.38301" lon="5.62563">
        <ele>1005.6</ele>
        <time>2021-09-07T16:57:11Z</time>
      </trkpt>
      <trkpt lat="44.38299" lon="5.62562">
        <ele>1005.6</ele>
        <time>2021-09-07T16:57:12Z</time>
      </trkpt>
      <trkpt lat="44.38298" lon="5.62561">
        <ele>1005.6</ele>
        <time>2021-09-07T16:57:13Z</time>
      </trkpt>
      <trkpt lat="44.38296" lon="5.6256">
        <ele>1004.8</ele>
        <time>2021-09-07T16:57:14Z</time>
      </trkpt>
      <trkpt lat="44.38293" lon="5.62559">
        <ele>1004.8</ele>
        <time>2021-09-07T16:57:15Z</time>
      </trkpt>
      <trkpt lat="44.38291" lon="5.62559">
        <ele>1004.8</ele>
        <time>2021-09-07T16:57:16Z</time>
      </trkpt>
      <trkpt lat="44.38291" lon="5.62559">
        <ele>1004.8</ele>
        <time>2021-09-07T16:57:17Z</time>
      </trkpt>
      <trkpt lat="44.3829" lon="5.62559">
        <ele>1004.8</ele>
        <time>2021-09-07T16:57:18Z</time>
      </trkpt>
      <trkpt lat="44.3829" lon="5.6256">
        <ele>1004.8</ele>
        <time>2021-09-07T16:57:19Z</time>
      </trkpt>
      <trkpt lat="44.38289" lon="5.6256">
        <ele>1004.8</ele>
        <time>2021-09-07T16:57:20Z</time>
      </trkpt>
      <trkpt lat="44.38289" lon="5.6256">
        <ele>1004.8</ele>
        <time>2021-09-07T16:57:21Z</time>
      </trkpt>
      <trkpt lat="44.38289" lon="5.6256">
        <ele>1004.8</ele>
        <time>2021-09-07T16:57:22Z</time>
      </trkpt>
      <trkpt lat="44.38289" lon="5.6256">
        <ele>1004.8</ele>
        <time>2021-09-07T16:57:23Z</time>
      </trkpt>
      <trkpt lat="44.38289" lon="5.6256">
        <ele>1004.8</ele>
        <time>2021-09-07T16:57:24Z</time>
      </trkpt>
      <trkpt lat="44.38289" lon="5.62561">
        <ele>1005.6</ele>
        <time>2021-09-07T16:57:25Z</time>
      </trkpt>
      <trkpt lat="44.38289" lon="5.62561">
        <ele>1005.6</ele>
        <time>2021-09-07T16:57:26Z</time>
      </trkpt>
      <trkpt lat="44.38289" lon="5.62561">
        <ele>1005.6</ele>
        <time>2021-09-07T16:57:27Z</time>
      </trkpt>
      <trkpt lat="44.38289" lon="5.62561">
        <ele>1005.6</ele>
        <time>2021-09-07T16:57:28Z</time>
      </trkpt>
      <trkpt lat="44.38289" lon="5.62561">
        <ele>1005.6</ele>
        <time>2021-09-07T16:57:29Z</time>
      </trkpt>
      <trkpt lat="44.38289" lon="5.6256">
        <ele>1004.8</ele>
        <time>2021-09-07T16:57:30Z</time>
      </trkpt>
      <trkpt lat="44.38289" lon="5.62561">
        <ele>1005.6</ele>
        <time>2021-09-07T16:57:31Z</time>
      </trkpt>
      <trkpt lat="44.38289" lon="5.62561">
        <ele>1005.6</ele>
        <time>2021-09-07T16:57:32Z</time>
      </trkpt>
      <trkpt lat="44.38288" lon="5.62561">
        <ele>1005.7</ele>
        <time>2021-09-07T16:57:33Z</time>
      </trkpt>
      <trkpt lat="44.38288" lon="5.62561">
        <ele>1005.7</ele>
        <time>2021-09-07T16:57:34Z</time>
      </trkpt>
      <trkpt lat="44.38288" lon="5.62561">
        <ele>1005.7</ele>
        <time>2021-09-07T16:57:35Z</time>
      </trkpt>
      <trkpt lat="44.38287" lon="5.62561">
        <ele>1005.7</ele>
        <time>2021-09-07T16:57:36Z</time>
      </trkpt>
      <trkpt lat="44.38285" lon="5.62561">
        <ele>1005.7</ele>
        <time>2021-09-07T16:57:37Z</time>
      </trkpt>
      <trkpt lat="44.38283" lon="5.62561">
        <ele>1005.7</ele>
        <time>2021-09-07T16:57:38Z</time>
      </trkpt>
      <trkpt lat="44.38281" lon="5.62561">
        <ele>1005.7</ele>
        <time>2021-09-07T16:57:39Z</time>
      </trkpt>
      <trkpt lat="44.38281" lon="5.62561">
        <ele>1005.7</ele>
        <time>2021-09-07T16:57:40Z</time>
      </trkpt>
      <trkpt lat="44.3828" lon="5.62561">
        <ele>1005.7</ele>
        <time>2021-09-07T16:57:41Z</time>
      </trkpt>
      <trkpt lat="44.38279" lon="5.62561">
        <ele>1005.6</ele>
        <time>2021-09-07T16:57:42Z</time>
      </trkpt>
      <trkpt lat="44.38279" lon="5.62561">
        <ele>1005.6</ele>
        <time>2021-09-07T16:57:43Z</time>
      </trkpt>
      <trkpt lat="44.38278" lon="5.62561">
        <ele>1005.6</ele>
        <time>2021-09-07T16:57:44Z</time>
      </trkpt>
      <trkpt lat="44.38278" lon="5.62561">
        <ele>1005.6</ele>
        <time>2021-09-07T16:57:45Z</time>
      </trkpt>
      <trkpt lat="44.38277" lon="5.62561">
        <ele>1005.6</ele>
        <time>2021-09-07T16:57:46Z</time>
      </trkpt>
      <trkpt lat="44.38276" lon="5.62562">
        <ele>1005.6</ele>
        <time>2021-09-07T16:57:47Z</time>
      </trkpt>
      <trkpt lat="44.38273" lon="5.62563">
        <ele>1005.6</ele>
        <time>2021-09-07T16:57:48Z</time>
      </trkpt>
      <trkpt lat="44.38272" lon="5.62564">
        <ele>1005.6</ele>
        <time>2021-09-07T16:57:49Z</time>
      </trkpt>
      <trkpt lat="44.3827" lon="5.62564">
        <ele>1005.5</ele>
        <time>2021-09-07T16:57:50Z</time>
      </trkpt>
      <trkpt lat="44.38269" lon="5.62565">
        <ele>1006.3</ele>
        <time>2021-09-07T16:57:51Z</time>
      </trkpt>
      <trkpt lat="44.38267" lon="5.62565">
        <ele>1006.3</ele>
        <time>2021-09-07T16:57:52Z</time>
      </trkpt>
      <trkpt lat="44.38266" lon="5.62565">
        <ele>1006.3</ele>
        <time>2021-09-07T16:57:53Z</time>
      </trkpt>
      <trkpt lat="44.38263" lon="5.62566">
        <ele>1006.2</ele>
        <time>2021-09-07T16:57:54Z</time>
      </trkpt>
      <trkpt lat="44.38262" lon="5.62566">
        <ele>1006.2</ele>
        <time>2021-09-07T16:57:55Z</time>
      </trkpt>
      <trkpt lat="44.38261" lon="5.62566">
        <ele>1006.2</ele>
        <time>2021-09-07T16:57:56Z</time>
      </trkpt>
      <trkpt lat="44.38261" lon="5.62566">
        <ele>1006.2</ele>
        <time>2021-09-07T16:57:57Z</time>
      </trkpt>
      <trkpt lat="44.38259" lon="5.62567">
        <ele>1006.2</ele>
        <time>2021-09-07T16:57:58Z</time>
      </trkpt>
      <trkpt lat="44.38254" lon="5.62568">
        <ele>1005.9</ele>
        <time>2021-09-07T16:57:59Z</time>
      </trkpt>
      <trkpt lat="44.38251" lon="5.62569">
        <ele>1006.5</ele>
        <time>2021-09-07T16:58:00Z</time>
      </trkpt>
      <trkpt lat="44.38248" lon="5.6257">
        <ele>1006.3</ele>
        <time>2021-09-07T16:58:01Z</time>
      </trkpt>
      <trkpt lat="44.38247" lon="5.6257">
        <ele>1006.3</ele>
        <time>2021-09-07T16:58:02Z</time>
      </trkpt>
      <trkpt lat="44.38245" lon="5.62571">
        <ele>1006.1</ele>
        <time>2021-09-07T16:58:03Z</time>
      </trkpt>
      <trkpt lat="44.38244" lon="5.62571">
        <ele>1006.1</ele>
        <time>2021-09-07T16:58:04Z</time>
      </trkpt>
      <trkpt lat="44.38243" lon="5.62571">
        <ele>1006.1</ele>
        <time>2021-09-07T16:58:05Z</time>
      </trkpt>
      <trkpt lat="44.38242" lon="5.62571">
        <ele>1005.9</ele>
        <time>2021-09-07T16:58:06Z</time>
      </trkpt>
      <trkpt lat="44.38241" lon="5.62571">
        <ele>1005.9</ele>
        <time>2021-09-07T16:58:07Z</time>
      </trkpt>
      <trkpt lat="44.38241" lon="5.62571">
        <ele>1005.9</ele>
        <time>2021-09-07T16:58:08Z</time>
      </trkpt>
      <trkpt lat="44.38241" lon="5.62571">
        <ele>1005.9</ele>
        <time>2021-09-07T16:58:09Z</time>
      </trkpt>
      <trkpt lat="44.38239" lon="5.62571">
        <ele>1005.7</ele>
        <time>2021-09-07T16:58:10Z</time>
      </trkpt>
      <trkpt lat="44.38237" lon="5.62572">
        <ele>1005.7</ele>
        <time>2021-09-07T16:58:11Z</time>
      </trkpt>
      <trkpt lat="44.38235" lon="5.62573">
        <ele>1006.3</ele>
        <time>2021-09-07T16:58:12Z</time>
      </trkpt>
      <trkpt lat="44.38233" lon="5.62574">
        <ele>1006.1</ele>
        <time>2021-09-07T16:58:13Z</time>
      </trkpt>
      <trkpt lat="44.38232" lon="5.62574">
        <ele>1006.1</ele>
        <time>2021-09-07T16:58:14Z</time>
      </trkpt>
      <trkpt lat="44.38232" lon="5.62575">
        <ele>1006.1</ele>
        <time>2021-09-07T16:58:15Z</time>
      </trkpt>
      <trkpt lat="44.38231" lon="5.62575">
        <ele>1006.1</ele>
        <time>2021-09-07T16:58:16Z</time>
      </trkpt>
      <trkpt lat="44.3823" lon="5.62575">
        <ele>1005.8</ele>
        <time>2021-09-07T16:58:17Z</time>
      </trkpt>
      <trkpt lat="44.38229" lon="5.62575">
        <ele>1005.8</ele>
        <time>2021-09-07T16:58:18Z</time>
      </trkpt>
      <trkpt lat="44.38229" lon="5.62575">
        <ele>1005.8</ele>
        <time>2021-09-07T16:58:19Z</time>
      </trkpt>
      <trkpt lat="44.38229" lon="5.62575">
        <ele>1005.8</ele>
        <time>2021-09-07T16:58:20Z</time>
      </trkpt>
      <trkpt lat="44.38227" lon="5.62577">
        <ele>1005.5</ele>
        <time>2021-09-07T16:58:21Z</time>
      </trkpt>
      <trkpt lat="44.38225" lon="5.62578">
        <ele>1006.4</ele>
        <time>2021-09-07T16:58:22Z</time>
      </trkpt>
      <trkpt lat="44.38223" lon="5.62579">
        <ele>1006.1</ele>
        <time>2021-09-07T16:58:23Z</time>
      </trkpt>
      <trkpt lat="44.38222" lon="5.6258">
        <ele>1006.1</ele>
        <time>2021-09-07T16:58:24Z</time>
      </trkpt>
      <trkpt lat="44.3822" lon="5.6258">
        <ele>1005.7</ele>
        <time>2021-09-07T16:58:25Z</time>
      </trkpt>
      <trkpt lat="44.3822" lon="5.6258">
        <ele>1005.7</ele>
        <time>2021-09-07T16:58:26Z</time>
      </trkpt>
      <trkpt lat="44.38219" lon="5.6258">
        <ele>1005.7</ele>
        <time>2021-09-07T16:58:27Z</time>
      </trkpt>
      <trkpt lat="44.38219" lon="5.6258">
        <ele>1005.7</ele>
        <time>2021-09-07T16:58:28Z</time>
      </trkpt>
      <trkpt lat="44.38218" lon="5.6258">
        <ele>1005.4</ele>
        <time>2021-09-07T16:58:29Z</time>
      </trkpt>
      <trkpt lat="44.38218" lon="5.6258">
        <ele>1005.4</ele>
        <time>2021-09-07T16:58:30Z</time>
      </trkpt>
      <trkpt lat="44.38217" lon="5.6258">
        <ele>1005.4</ele>
        <time>2021-09-07T16:58:31Z</time>
      </trkpt>
      <trkpt lat="44.38217" lon="5.6258">
        <ele>1005.4</ele>
        <time>2021-09-07T16:58:32Z</time>
      </trkpt>
      <trkpt lat="44.38216" lon="5.62581">
        <ele>1005.4</ele>
        <time>2021-09-07T16:58:33Z</time>
      </trkpt>
      <trkpt lat="44.38215" lon="5.62581">
        <ele>1005</ele>
        <time>2021-09-07T16:58:34Z</time>
      </trkpt>
      <trkpt lat="44.38213" lon="5.62582">
        <ele>1006</ele>
        <time>2021-09-07T16:58:35Z</time>
      </trkpt>
      <trkpt lat="44.38211" lon="5.62583">
        <ele>1005.6</ele>
        <time>2021-09-07T16:58:36Z</time>
      </trkpt>
      <trkpt lat="44.3821" lon="5.62584">
        <ele>1005.6</ele>
        <time>2021-09-07T16:58:37Z</time>
      </trkpt>
      <trkpt lat="44.38209" lon="5.62585">
        <ele>1005.2</ele>
        <time>2021-09-07T16:58:38Z</time>
      </trkpt>
      <trkpt lat="44.38209" lon="5.62586">
        <ele>1005.2</ele>
        <time>2021-09-07T16:58:39Z</time>
      </trkpt>
      <trkpt lat="44.38208" lon="5.62586">
        <ele>1006.3</ele>
        <time>2021-09-07T16:58:40Z</time>
      </trkpt>
      <trkpt lat="44.38207" lon="5.62586">
        <ele>1006.3</ele>
        <time>2021-09-07T16:58:41Z</time>
      </trkpt>
      <trkpt lat="44.38207" lon="5.62586">
        <ele>1006.3</ele>
        <time>2021-09-07T16:58:42Z</time>
      </trkpt>
      <trkpt lat="44.38207" lon="5.62586">
        <ele>1006.3</ele>
        <time>2021-09-07T16:58:43Z</time>
      </trkpt>
      <trkpt lat="44.38206" lon="5.62586">
        <ele>1005.9</ele>
        <time>2021-09-07T16:58:44Z</time>
      </trkpt>
      <trkpt lat="44.38206" lon="5.62587">
        <ele>1005.9</ele>
        <time>2021-09-07T16:58:45Z</time>
      </trkpt>
      <trkpt lat="44.38206" lon="5.62587">
        <ele>1005.9</ele>
        <time>2021-09-07T16:58:46Z</time>
      </trkpt>
      <trkpt lat="44.38206" lon="5.62587">
        <ele>1005.9</ele>
        <time>2021-09-07T16:58:47Z</time>
      </trkpt>
      <trkpt lat="44.38206" lon="5.62588">
        <ele>1005.9</ele>
        <time>2021-09-07T16:58:48Z</time>
      </trkpt>
      <trkpt lat="44.38205" lon="5.62588">
        <ele>1005.9</ele>
        <time>2021-09-07T16:58:49Z</time>
      </trkpt>
      <trkpt lat="44.38204" lon="5.62588">
        <ele>1005.9</ele>
        <time>2021-09-07T16:58:50Z</time>
      </trkpt>
      <trkpt lat="44.38204" lon="5.62589">
        <ele>1005.9</ele>
        <time>2021-09-07T16:58:51Z</time>
      </trkpt>
      <trkpt lat="44.38203" lon="5.62591">
        <ele>1006.9</ele>
        <time>2021-09-07T16:58:52Z</time>
      </trkpt>
      <trkpt lat="44.38202" lon="5.62592">
        <ele>1006.6</ele>
        <time>2021-09-07T16:58:53Z</time>
      </trkpt>
      <trkpt lat="44.38202" lon="5.62593">
        <ele>1006.6</ele>
        <time>2021-09-07T16:58:54Z</time>
      </trkpt>
      <trkpt lat="44.38201" lon="5.62593">
        <ele>1006.6</ele>
        <time>2021-09-07T16:58:55Z</time>
      </trkpt>
      <trkpt lat="44.382" lon="5.62594">
        <ele>1006.6</ele>
        <time>2021-09-07T16:58:56Z</time>
      </trkpt>
      <trkpt lat="44.382" lon="5.62595">
        <ele>1007.3</ele>
        <time>2021-09-07T16:58:57Z</time>
      </trkpt>
      <trkpt lat="44.38199" lon="5.62595">
        <ele>1007.3</ele>
        <time>2021-09-07T16:58:58Z</time>
      </trkpt>
      <trkpt lat="44.38199" lon="5.62595">
        <ele>1007.3</ele>
        <time>2021-09-07T16:58:59Z</time>
      </trkpt>
      <trkpt lat="44.38198" lon="5.62595">
        <ele>1007.3</ele>
        <time>2021-09-07T16:59:00Z</time>
      </trkpt>
      <trkpt lat="44.38199" lon="5.62595">
        <ele>1007.3</ele>
        <time>2021-09-07T16:59:01Z</time>
      </trkpt>
      <trkpt lat="44.38199" lon="5.62595">
        <ele>1007.3</ele>
        <time>2021-09-07T16:59:02Z</time>
      </trkpt>
      <trkpt lat="44.38199" lon="5.62595">
        <ele>1007.3</ele>
        <time>2021-09-07T16:59:03Z</time>
      </trkpt>
      <trkpt lat="44.38198" lon="5.62595">
        <ele>1007.3</ele>
        <time>2021-09-07T16:59:04Z</time>
      </trkpt>
      <trkpt lat="44.38198" lon="5.62596">
        <ele>1007.3</ele>
        <time>2021-09-07T16:59:05Z</time>
      </trkpt>
      <trkpt lat="44.38198" lon="5.62596">
        <ele>1007.3</ele>
        <time>2021-09-07T16:59:06Z</time>
      </trkpt>
      <trkpt lat="44.38198" lon="5.62596">
        <ele>1007.3</ele>
        <time>2021-09-07T16:59:07Z</time>
      </trkpt>
      <trkpt lat="44.38198" lon="5.62596">
        <ele>1007.3</ele>
        <time>2021-09-07T16:59:08Z</time>
      </trkpt>
      <trkpt lat="44.38198" lon="5.62596">
        <ele>1007.3</ele>
        <time>2021-09-07T16:59:09Z</time>
      </trkpt>
      <trkpt lat="44.38198" lon="5.62596">
        <ele>1007.3</ele>
        <time>2021-09-07T16:59:10Z</time>
      </trkpt>
      <trkpt lat="44.38197" lon="5.62598">
        <ele>1007.3</ele>
        <time>2021-09-07T16:59:11Z</time>
      </trkpt>
      <trkpt lat="44.38196" lon="5.62599">
        <ele>1007.9</ele>
        <time>2021-09-07T16:59:12Z</time>
      </trkpt>
      <trkpt lat="44.38194" lon="5.62601">
        <ele>1007.9</ele>
        <time>2021-09-07T16:59:13Z</time>
      </trkpt>
      <trkpt lat="44.38194" lon="5.62602">
        <ele>1007.6</ele>
        <time>2021-09-07T16:59:14Z</time>
      </trkpt>
      <trkpt lat="44.38193" lon="5.62603">
        <ele>1008.6</ele>
        <time>2021-09-07T16:59:15Z</time>
      </trkpt>
      <trkpt lat="44.38191" lon="5.62604">
        <ele>1008.6</ele>
        <time>2021-09-07T16:59:16Z</time>
      </trkpt>
      <trkpt lat="44.38191" lon="5.62606">
        <ele>1008.6</ele>
        <time>2021-09-07T16:59:17Z</time>
      </trkpt>
      <trkpt lat="44.38188" lon="5.62606">
        <ele>1008.3</ele>
        <time>2021-09-07T16:59:18Z</time>
      </trkpt>
      <trkpt lat="44.38185" lon="5.62605">
        <ele>1008.1</ele>
        <time>2021-09-07T16:59:19Z</time>
      </trkpt>
      <trkpt lat="44.38185" lon="5.62605">
        <ele>1007.9</ele>
        <time>2021-09-07T16:59:20Z</time>
      </trkpt>
      <trkpt lat="44.38184" lon="5.62605">
        <ele>1007.9</ele>
        <time>2021-09-07T16:59:21Z</time>
      </trkpt>
      <trkpt lat="44.38182" lon="5.62605">
        <ele>1007.9</ele>
        <time>2021-09-07T16:59:22Z</time>
      </trkpt>
      <trkpt lat="44.3818" lon="5.62606">
        <ele>1007.7</ele>
        <time>2021-09-07T16:59:23Z</time>
      </trkpt>
      <trkpt lat="44.38177" lon="5.62607">
        <ele>1007.5</ele>
        <time>2021-09-07T16:59:24Z</time>
      </trkpt>
      <trkpt lat="44.38175" lon="5.62608">
        <ele>1008.4</ele>
        <time>2021-09-07T16:59:25Z</time>
      </trkpt>
      <trkpt lat="44.38172" lon="5.62608">
        <ele>1008.2</ele>
        <time>2021-09-07T16:59:26Z</time>
      </trkpt>
      <trkpt lat="44.38169" lon="5.6261">
        <ele>1008.1</ele>
        <time>2021-09-07T16:59:27Z</time>
      </trkpt>
      <trkpt lat="44.38166" lon="5.62612">
        <ele>1008.9</ele>
        <time>2021-09-07T16:59:28Z</time>
      </trkpt>
      <trkpt lat="44.38165" lon="5.62614">
        <ele>1008.9</ele>
        <time>2021-09-07T16:59:29Z</time>
      </trkpt>
      <trkpt lat="44.38163" lon="5.62615">
        <ele>1008.7</ele>
        <time>2021-09-07T16:59:30Z</time>
      </trkpt>
      <trkpt lat="44.3816" lon="5.62617">
        <ele>1009.4</ele>
        <time>2021-09-07T16:59:31Z</time>
      </trkpt>
      <trkpt lat="44.38158" lon="5.6262">
        <ele>1009.4</ele>
        <time>2021-09-07T16:59:32Z</time>
      </trkpt>
      <trkpt lat="44.38156" lon="5.62622">
        <ele>1010.2</ele>
        <time>2021-09-07T16:59:33Z</time>
      </trkpt>
      <trkpt lat="44.38154" lon="5.62623">
        <ele>1010.2</ele>
        <time>2021-09-07T16:59:34Z</time>
      </trkpt>
      <trkpt lat="44.38152" lon="5.62625">
        <ele>1010.9</ele>
        <time>2021-09-07T16:59:35Z</time>
      </trkpt>
      <trkpt lat="44.38151" lon="5.62626">
        <ele>1010.9</ele>
        <time>2021-09-07T16:59:36Z</time>
      </trkpt>
      <trkpt lat="44.3815" lon="5.62627">
        <ele>1010.7</ele>
        <time>2021-09-07T16:59:37Z</time>
      </trkpt>
      <trkpt lat="44.38149" lon="5.62629">
        <ele>1011.6</ele>
        <time>2021-09-07T16:59:38Z</time>
      </trkpt>
      <trkpt lat="44.38147" lon="5.62631">
        <ele>1011.4</ele>
        <time>2021-09-07T16:59:39Z</time>
      </trkpt>
      <trkpt lat="44.38145" lon="5.62632">
        <ele>1011.4</ele>
        <time>2021-09-07T16:59:40Z</time>
      </trkpt>
      <trkpt lat="44.38144" lon="5.62632">
        <ele>1011.2</ele>
        <time>2021-09-07T16:59:41Z</time>
      </trkpt>
      <trkpt lat="44.38143" lon="5.62632">
        <ele>1011.2</ele>
        <time>2021-09-07T16:59:42Z</time>
      </trkpt>
      <trkpt lat="44.38142" lon="5.62632">
        <ele>1011.2</ele>
        <time>2021-09-07T16:59:43Z</time>
      </trkpt>
      <trkpt lat="44.38141" lon="5.62632">
        <ele>1011</ele>
        <time>2021-09-07T16:59:44Z</time>
      </trkpt>
      <trkpt lat="44.3814" lon="5.62633">
        <ele>1011</ele>
        <time>2021-09-07T16:59:45Z</time>
      </trkpt>
      <trkpt lat="44.38138" lon="5.62633">
        <ele>1010.8</ele>
        <time>2021-09-07T16:59:46Z</time>
      </trkpt>
      <trkpt lat="44.38138" lon="5.62634">
        <ele>1011.8</ele>
        <time>2021-09-07T16:59:47Z</time>
      </trkpt>
      <trkpt lat="44.38137" lon="5.62634">
        <ele>1011.8</ele>
        <time>2021-09-07T16:59:48Z</time>
      </trkpt>
      <trkpt lat="44.38136" lon="5.62635">
        <ele>1011.8</ele>
        <time>2021-09-07T16:59:49Z</time>
      </trkpt>
      <trkpt lat="44.38136" lon="5.62636">
        <ele>1011.8</ele>
        <time>2021-09-07T16:59:50Z</time>
      </trkpt>
      <trkpt lat="44.38135" lon="5.62636">
        <ele>1011.6</ele>
        <time>2021-09-07T16:59:51Z</time>
      </trkpt>
      <trkpt lat="44.38134" lon="5.62637">
        <ele>1011.6</ele>
        <time>2021-09-07T16:59:52Z</time>
      </trkpt>
      <trkpt lat="44.38133" lon="5.62637">
        <ele>1011.6</ele>
        <time>2021-09-07T16:59:53Z</time>
      </trkpt>
      <trkpt lat="44.38131" lon="5.62637">
        <ele>1011.5</ele>
        <time>2021-09-07T16:59:54Z</time>
      </trkpt>
      <trkpt lat="44.38131" lon="5.62638">
        <ele>1012.4</ele>
        <time>2021-09-07T16:59:55Z</time>
      </trkpt>
      <trkpt lat="44.3813" lon="5.62638">
        <ele>1012.4</ele>
        <time>2021-09-07T16:59:56Z</time>
      </trkpt>
      <trkpt lat="44.3813" lon="5.62638">
        <ele>1012.4</ele>
        <time>2021-09-07T16:59:57Z</time>
      </trkpt>
      <trkpt lat="44.38129" lon="5.62639">
        <ele>1012.3</ele>
        <time>2021-09-07T16:59:58Z</time>
      </trkpt>
      <trkpt lat="44.38129" lon="5.62639">
        <ele>1012.3</ele>
        <time>2021-09-07T16:59:59Z</time>
      </trkpt>
      <trkpt lat="44.38129" lon="5.62639">
        <ele>1012.3</ele>
        <time>2021-09-07T17:00:00Z</time>
      </trkpt>
      <trkpt lat="44.38129" lon="5.62639">
        <ele>1012.3</ele>
        <time>2021-09-07T17:00:01Z</time>
      </trkpt>
      <trkpt lat="44.38129" lon="5.62639">
        <ele>1012.3</ele>
        <time>2021-09-07T17:00:02Z</time>
      </trkpt>
      <trkpt lat="44.38129" lon="5.62639">
        <ele>1012.3</ele>
        <time>2021-09-07T17:00:03Z</time>
      </trkpt>
      <trkpt lat="44.38128" lon="5.6264">
        <ele>1012.3</ele>
        <time>2021-09-07T17:00:04Z</time>
      </trkpt>
      <trkpt lat="44.38128" lon="5.6264">
        <ele>1012.3</ele>
        <time>2021-09-07T17:00:05Z</time>
      </trkpt>
      <trkpt lat="44.38128" lon="5.6264">
        <ele>1012.3</ele>
        <time>2021-09-07T17:00:06Z</time>
      </trkpt>
      <trkpt lat="44.38128" lon="5.6264">
        <ele>1012.3</ele>
        <time>2021-09-07T17:00:07Z</time>
      </trkpt>
      <trkpt lat="44.38128" lon="5.6264">
        <ele>1012.3</ele>
        <time>2021-09-07T17:00:08Z</time>
      </trkpt>
      <trkpt lat="44.38128" lon="5.6264">
        <ele>1012.3</ele>
        <time>2021-09-07T17:00:09Z</time>
      </trkpt>
      <trkpt lat="44.38128" lon="5.6264">
        <ele>1012.3</ele>
        <time>2021-09-07T17:00:10Z</time>
      </trkpt>
      <trkpt lat="44.38128" lon="5.6264">
        <ele>1012.3</ele>
        <time>2021-09-07T17:00:11Z</time>
      </trkpt>
      <trkpt lat="44.38128" lon="5.6264">
        <ele>1012.3</ele>
        <time>2021-09-07T17:00:12Z</time>
      </trkpt>
      <trkpt lat="44.38127" lon="5.6264">
        <ele>1012.3</ele>
        <time>2021-09-07T17:00:13Z</time>
      </trkpt>
      <trkpt lat="44.38126" lon="5.62642">
        <ele>1012.3</ele>
        <time>2021-09-07T17:00:14Z</time>
      </trkpt>
      <trkpt lat="44.38125" lon="5.62643">
        <ele>1013.2</ele>
        <time>2021-09-07T17:00:15Z</time>
      </trkpt>
      <trkpt lat="44.38124" lon="5.62645">
        <ele>1013.2</ele>
        <time>2021-09-07T17:00:16Z</time>
      </trkpt>
      <trkpt lat="44.38123" lon="5.62648">
        <ele>1014.1</ele>
        <time>2021-09-07T17:00:17Z</time>
      </trkpt>
      <trkpt lat="44.38123" lon="5.62649">
        <ele>1014.1</ele>
        <time>2021-09-07T17:00:18Z</time>
      </trkpt>
      <trkpt lat="44.38122" lon="5.62649">
        <ele>1014.1</ele>
        <time>2021-09-07T17:00:19Z</time>
      </trkpt>
      <trkpt lat="44.38121" lon="5.6265">
        <ele>1014.1</ele>
        <time>2021-09-07T17:00:20Z</time>
      </trkpt>
      <trkpt lat="44.38121" lon="5.6265">
        <ele>1014.1</ele>
        <time>2021-09-07T17:00:21Z</time>
      </trkpt>
      <trkpt lat="44.38121" lon="5.62651">
        <ele>1014.9</ele>
        <time>2021-09-07T17:00:22Z</time>
      </trkpt>
      <trkpt lat="44.3812" lon="5.62651">
        <ele>1014.9</ele>
        <time>2021-09-07T17:00:23Z</time>
      </trkpt>
      <trkpt lat="44.3812" lon="5.62651">
        <ele>1014.9</ele>
        <time>2021-09-07T17:00:24Z</time>
      </trkpt>
      <trkpt lat="44.3812" lon="5.62651">
        <ele>1014.9</ele>
        <time>2021-09-07T17:00:25Z</time>
      </trkpt>
      <trkpt lat="44.3812" lon="5.62652">
        <ele>1014.9</ele>
        <time>2021-09-07T17:00:26Z</time>
      </trkpt>
      <trkpt lat="44.3812" lon="5.62652">
        <ele>1014.9</ele>
        <time>2021-09-07T17:00:27Z</time>
      </trkpt>
      <trkpt lat="44.38119" lon="5.62652">
        <ele>1014.9</ele>
        <time>2021-09-07T17:00:28Z</time>
      </trkpt>
      <trkpt lat="44.38119" lon="5.62652">
        <ele>1014.9</ele>
        <time>2021-09-07T17:00:29Z</time>
      </trkpt>
      <trkpt lat="44.38119" lon="5.62652">
        <ele>1014.9</ele>
        <time>2021-09-07T17:00:30Z</time>
      </trkpt>
      <trkpt lat="44.38119" lon="5.62652">
        <ele>1014.9</ele>
        <time>2021-09-07T17:00:31Z</time>
      </trkpt>
      <trkpt lat="44.38119" lon="5.62652">
        <ele>1014.9</ele>
        <time>2021-09-07T17:00:32Z</time>
      </trkpt>
      <trkpt lat="44.38119" lon="5.62652">
        <ele>1014.9</ele>
        <time>2021-09-07T17:00:33Z</time>
      </trkpt>
      <trkpt lat="44.38119" lon="5.62652">
        <ele>1014.9</ele>
        <time>2021-09-07T17:00:34Z</time>
      </trkpt>
      <trkpt lat="44.38118" lon="5.62652">
        <ele>1014.9</ele>
        <time>2021-09-07T17:00:35Z</time>
      </trkpt>
      <trkpt lat="44.38118" lon="5.62652">
        <ele>1014.9</ele>
        <time>2021-09-07T17:00:36Z</time>
      </trkpt>
      <trkpt lat="44.38118" lon="5.62652">
        <ele>1014.9</ele>
        <time>2021-09-07T17:00:37Z</time>
      </trkpt>
      <trkpt lat="44.38118" lon="5.62652">
        <ele>1014.9</ele>
        <time>2021-09-07T17:00:38Z</time>
      </trkpt>
      <trkpt lat="44.38118" lon="5.62652">
        <ele>1014.9</ele>
        <time>2021-09-07T17:00:39Z</time>
      </trkpt>
      <trkpt lat="44.38118" lon="5.62651">
        <ele>1014.9</ele>
        <time>2021-09-07T17:00:40Z</time>
      </trkpt>
      <trkpt lat="44.38118" lon="5.62651">
        <ele>1014.9</ele>
        <time>2021-09-07T17:00:41Z</time>
      </trkpt>
      <trkpt lat="44.38117" lon="5.62651">
        <ele>1015</ele>
        <time>2021-09-07T17:00:42Z</time>
      </trkpt>
      <trkpt lat="44.38116" lon="5.62651">
        <ele>1015</ele>
        <time>2021-09-07T17:00:43Z</time>
      </trkpt>
      <trkpt lat="44.38115" lon="5.62651">
        <ele>1015</ele>
        <time>2021-09-07T17:00:44Z</time>
      </trkpt>
      <trkpt lat="44.38114" lon="5.62651">
        <ele>1015</ele>
        <time>2021-09-07T17:00:45Z</time>
      </trkpt>
      <trkpt lat="44.38113" lon="5.62651">
        <ele>1015</ele>
        <time>2021-09-07T17:00:46Z</time>
      </trkpt>
      <trkpt lat="44.38112" lon="5.62651">
        <ele>1015</ele>
        <time>2021-09-07T17:00:47Z</time>
      </trkpt>
      <trkpt lat="44.38111" lon="5.62651">
        <ele>1015</ele>
        <time>2021-09-07T17:00:48Z</time>
      </trkpt>
      <trkpt lat="44.38111" lon="5.62651">
        <ele>1015</ele>
        <time>2021-09-07T17:00:49Z</time>
      </trkpt>
      <trkpt lat="44.3811" lon="5.62651">
        <ele>1015</ele>
        <time>2021-09-07T17:00:50Z</time>
      </trkpt>
      <trkpt lat="44.3811" lon="5.62651">
        <ele>1015</ele>
        <time>2021-09-07T17:00:51Z</time>
      </trkpt>
      <trkpt lat="44.3811" lon="5.62651">
        <ele>1015</ele>
        <time>2021-09-07T17:00:52Z</time>
      </trkpt>
      <trkpt lat="44.3811" lon="5.62651">
        <ele>1015</ele>
        <time>2021-09-07T17:00:53Z</time>
      </trkpt>
      <trkpt lat="44.38109" lon="5.6265">
        <ele>1014.2</ele>
        <time>2021-09-07T17:00:54Z</time>
      </trkpt>
      <trkpt lat="44.38109" lon="5.6265">
        <ele>1014.2</ele>
        <time>2021-09-07T17:00:55Z</time>
      </trkpt>
      <trkpt lat="44.38109" lon="5.6265">
        <ele>1014.2</ele>
        <time>2021-09-07T17:00:56Z</time>
      </trkpt>
      <trkpt lat="44.38109" lon="5.6265">
        <ele>1014.2</ele>
        <time>2021-09-07T17:00:57Z</time>
      </trkpt>
      <trkpt lat="44.38109" lon="5.6265">
        <ele>1014.2</ele>
        <time>2021-09-07T17:00:58Z</time>
      </trkpt>
      <trkpt lat="44.38109" lon="5.6265">
        <ele>1014.2</ele>
        <time>2021-09-07T17:00:59Z</time>
      </trkpt>
      <trkpt lat="44.38109" lon="5.6265">
        <ele>1014.2</ele>
        <time>2021-09-07T17:01:00Z</time>
      </trkpt>
      <trkpt lat="44.38109" lon="5.6265">
        <ele>1014.2</ele>
        <time>2021-09-07T17:01:01Z</time>
      </trkpt>
      <trkpt lat="44.38109" lon="5.6265">
        <ele>1014.2</ele>
        <time>2021-09-07T17:01:02Z</time>
      </trkpt>
      <trkpt lat="44.38109" lon="5.62651">
        <ele>1015</ele>
        <time>2021-09-07T17:01:03Z</time>
      </trkpt>
      <trkpt lat="44.38109" lon="5.62651">
        <ele>1015</ele>
        <time>2021-09-07T17:01:04Z</time>
      </trkpt>
      <trkpt lat="44.38109" lon="5.62651">
        <ele>1015</ele>
        <time>2021-09-07T17:01:05Z</time>
      </trkpt>
      <trkpt lat="44.38108" lon="5.62651">
        <ele>1015</ele>
        <time>2021-09-07T17:01:06Z</time>
      </trkpt>
      <trkpt lat="44.38108" lon="5.62651">
        <ele>1015</ele>
        <time>2021-09-07T17:01:07Z</time>
      </trkpt>
      <trkpt lat="44.38107" lon="5.62651">
        <ele>1015.1</ele>
        <time>2021-09-07T17:01:08Z</time>
      </trkpt>
      <trkpt lat="44.38106" lon="5.6265">
        <ele>1014.2</ele>
        <time>2021-09-07T17:01:09Z</time>
      </trkpt>
      <trkpt lat="44.38105" lon="5.6265">
        <ele>1014.3</ele>
        <time>2021-09-07T17:01:10Z</time>
      </trkpt>
      <trkpt lat="44.38103" lon="5.6265">
        <ele>1014.3</ele>
        <time>2021-09-07T17:01:11Z</time>
      </trkpt>
      <trkpt lat="44.38102" lon="5.62649">
        <ele>1014.3</ele>
        <time>2021-09-07T17:01:12Z</time>
      </trkpt>
      <trkpt lat="44.381" lon="5.62649">
        <ele>1014.3</ele>
        <time>2021-09-07T17:01:13Z</time>
      </trkpt>
      <trkpt lat="44.381" lon="5.62649">
        <ele>1014.3</ele>
        <time>2021-09-07T17:01:14Z</time>
      </trkpt>
      <trkpt lat="44.38099" lon="5.62648">
        <ele>1014.3</ele>
        <time>2021-09-07T17:01:15Z</time>
      </trkpt>
      <trkpt lat="44.38099" lon="5.62648">
        <ele>1014.3</ele>
        <time>2021-09-07T17:01:16Z</time>
      </trkpt>
      <trkpt lat="44.38098" lon="5.62648">
        <ele>1014.4</ele>
        <time>2021-09-07T17:01:17Z</time>
      </trkpt>
      <trkpt lat="44.38098" lon="5.62648">
        <ele>1014.4</ele>
        <time>2021-09-07T17:01:18Z</time>
      </trkpt>
      <trkpt lat="44.38098" lon="5.62648">
        <ele>1014.4</ele>
        <time>2021-09-07T17:01:19Z</time>
      </trkpt>
      <trkpt lat="44.38097" lon="5.62648">
        <ele>1014.4</ele>
        <time>2021-09-07T17:01:20Z</time>
      </trkpt>
      <trkpt lat="44.38097" lon="5.62648">
        <ele>1014.4</ele>
        <time>2021-09-07T17:01:21Z</time>
      </trkpt>
      <trkpt lat="44.38096" lon="5.62648">
        <ele>1014.4</ele>
        <time>2021-09-07T17:01:22Z</time>
      </trkpt>
      <trkpt lat="44.38095" lon="5.62648">
        <ele>1014.4</ele>
        <time>2021-09-07T17:01:23Z</time>
      </trkpt>
      <trkpt lat="44.38094" lon="5.62648">
        <ele>1014.4</ele>
        <time>2021-09-07T17:01:24Z</time>
      </trkpt>
      <trkpt lat="44.38093" lon="5.62648">
        <ele>1014.4</ele>
        <time>2021-09-07T17:01:25Z</time>
      </trkpt>
      <trkpt lat="44.38091" lon="5.62648">
        <ele>1014.5</ele>
        <time>2021-09-07T17:01:26Z</time>
      </trkpt>
      <trkpt lat="44.3809" lon="5.62648">
        <ele>1014.5</ele>
        <time>2021-09-07T17:01:27Z</time>
      </trkpt>
      <trkpt lat="44.38088" lon="5.62648">
        <ele>1014.5</ele>
        <time>2021-09-07T17:01:28Z</time>
      </trkpt>
      <trkpt lat="44.38085" lon="5.62649">
        <ele>1014.5</ele>
        <time>2021-09-07T17:01:29Z</time>
      </trkpt>
      <trkpt lat="44.38083" lon="5.6265">
        <ele>1014.5</ele>
        <time>2021-09-07T17:01:30Z</time>
      </trkpt>
      <trkpt lat="44.3808" lon="5.6265">
        <ele>1014.6</ele>
        <time>2021-09-07T17:01:31Z</time>
      </trkpt>
      <trkpt lat="44.38075" lon="5.6265">
        <ele>1014.6</ele>
        <time>2021-09-07T17:01:32Z</time>
      </trkpt>
      <trkpt lat="44.38074" lon="5.62651">
        <ele>1015.5</ele>
        <time>2021-09-07T17:01:33Z</time>
      </trkpt>
      <trkpt lat="44.38072" lon="5.62651">
        <ele>1015.5</ele>
        <time>2021-09-07T17:01:34Z</time>
      </trkpt>
      <trkpt lat="44.3807" lon="5.6265">
        <ele>1014.6</ele>
        <time>2021-09-07T17:01:35Z</time>
      </trkpt>
      <trkpt lat="44.38068" lon="5.6265">
        <ele>1014.7</ele>
        <time>2021-09-07T17:01:36Z</time>
      </trkpt>
      <trkpt lat="44.38067" lon="5.6265">
        <ele>1014.7</ele>
        <time>2021-09-07T17:01:37Z</time>
      </trkpt>
      <trkpt lat="44.38065" lon="5.62649">
        <ele>1014.7</ele>
        <time>2021-09-07T17:01:38Z</time>
      </trkpt>
      <trkpt lat="44.3806" lon="5.6265">
        <ele>1014.8</ele>
        <time>2021-09-07T17:01:39Z</time>
      </trkpt>
      <trkpt lat="44.38059" lon="5.6265">
        <ele>1014.9</ele>
        <time>2021-09-07T17:01:40Z</time>
      </trkpt>
      <trkpt lat="44.38057" lon="5.6265">
        <ele>1014.9</ele>
        <time>2021-09-07T17:01:41Z</time>
      </trkpt>
      <trkpt lat="44.38054" lon="5.6265">
        <ele>1015</ele>
        <time>2021-09-07T17:01:42Z</time>
      </trkpt>
      <trkpt lat="44.3805" lon="5.6265">
        <ele>1015.1</ele>
        <time>2021-09-07T17:01:43Z</time>
      </trkpt>
      <trkpt lat="44.38047" lon="5.6265">
        <ele>1015.2</ele>
        <time>2021-09-07T17:01:44Z</time>
      </trkpt>
      <trkpt lat="44.38043" lon="5.62649">
        <ele>1015.3</ele>
        <time>2021-09-07T17:01:45Z</time>
      </trkpt>
      <trkpt lat="44.38042" lon="5.62649">
        <ele>1015.3</ele>
        <time>2021-09-07T17:01:46Z</time>
      </trkpt>
      <trkpt lat="44.3804" lon="5.62649">
        <ele>1015.4</ele>
        <time>2021-09-07T17:01:47Z</time>
      </trkpt>
      <trkpt lat="44.38038" lon="5.62649">
        <ele>1015.4</ele>
        <time>2021-09-07T17:01:48Z</time>
      </trkpt>
      <trkpt lat="44.38035" lon="5.6265">
        <ele>1015.5</ele>
        <time>2021-09-07T17:01:49Z</time>
      </trkpt>
      <trkpt lat="44.38034" lon="5.62651">
        <ele>1016.6</ele>
        <time>2021-09-07T17:01:50Z</time>
      </trkpt>
      <trkpt lat="44.38033" lon="5.62651">
        <ele>1016.6</ele>
        <time>2021-09-07T17:01:51Z</time>
      </trkpt>
      <trkpt lat="44.38031" lon="5.62651">
        <ele>1016.7</ele>
        <time>2021-09-07T17:01:52Z</time>
      </trkpt>
      <trkpt lat="44.38029" lon="5.6265">
        <ele>1015.7</ele>
        <time>2021-09-07T17:01:53Z</time>
      </trkpt>
      <trkpt lat="44.38028" lon="5.6265">
        <ele>1015.9</ele>
        <time>2021-09-07T17:01:54Z</time>
      </trkpt>
      <trkpt lat="44.38024" lon="5.6265">
        <ele>1016</ele>
        <time>2021-09-07T17:01:55Z</time>
      </trkpt>
      <trkpt lat="44.38022" lon="5.6265">
        <ele>1016.1</ele>
        <time>2021-09-07T17:01:56Z</time>
      </trkpt>
      <trkpt lat="44.3802" lon="5.6265">
        <ele>1016.1</ele>
        <time>2021-09-07T17:01:57Z</time>
      </trkpt>
      <trkpt lat="44.38016" lon="5.62651">
        <ele>1017.2</ele>
        <time>2021-09-07T17:01:58Z</time>
      </trkpt>
      <trkpt lat="44.38013" lon="5.62651">
        <ele>1017.6</ele>
        <time>2021-09-07T17:01:59Z</time>
      </trkpt>
      <trkpt lat="44.38009" lon="5.6265">
        <ele>1016.8</ele>
        <time>2021-09-07T17:02:00Z</time>
      </trkpt>
      <trkpt lat="44.38005" lon="5.62649">
        <ele>1017</ele>
        <time>2021-09-07T17:02:01Z</time>
      </trkpt>
      <trkpt lat="44.38001" lon="5.62648">
        <ele>1017.2</ele>
        <time>2021-09-07T17:02:02Z</time>
      </trkpt>
      <trkpt lat="44.37999" lon="5.62648">
        <ele>1017.5</ele>
        <time>2021-09-07T17:02:03Z</time>
      </trkpt>
      <trkpt lat="44.37996" lon="5.62648">
        <ele>1017.7</ele>
        <time>2021-09-07T17:02:04Z</time>
      </trkpt>
      <trkpt lat="44.37994" lon="5.62649">
        <ele>1018</ele>
        <time>2021-09-07T17:02:05Z</time>
      </trkpt>
      <trkpt lat="44.37992" lon="5.62649">
        <ele>1018</ele>
        <time>2021-09-07T17:02:06Z</time>
      </trkpt>
      <trkpt lat="44.3799" lon="5.6265">
        <ele>1018.3</ele>
        <time>2021-09-07T17:02:07Z</time>
      </trkpt>
      <trkpt lat="44.37988" lon="5.6265">
        <ele>1018.5</ele>
        <time>2021-09-07T17:02:08Z</time>
      </trkpt>
      <trkpt lat="44.37986" lon="5.6265">
        <ele>1018.5</ele>
        <time>2021-09-07T17:02:09Z</time>
      </trkpt>
      <trkpt lat="44.37983" lon="5.6265">
        <ele>1018.8</ele>
        <time>2021-09-07T17:02:10Z</time>
      </trkpt>
      <trkpt lat="44.3798" lon="5.62649">
        <ele>1019</ele>
        <time>2021-09-07T17:02:11Z</time>
      </trkpt>
      <trkpt lat="44.37978" lon="5.62648">
        <ele>1019.3</ele>
        <time>2021-09-07T17:02:12Z</time>
      </trkpt>
      <trkpt lat="44.37977" lon="5.62645">
        <ele>1018.3</ele>
        <time>2021-09-07T17:02:13Z</time>
      </trkpt>
      <trkpt lat="44.37976" lon="5.62645">
        <ele>1018.3</ele>
        <time>2021-09-07T17:02:14Z</time>
      </trkpt>
      <trkpt lat="44.37975" lon="5.62645">
        <ele>1018.6</ele>
        <time>2021-09-07T17:02:15Z</time>
      </trkpt>
      <trkpt lat="44.37974" lon="5.62644">
        <ele>1018.6</ele>
        <time>2021-09-07T17:02:16Z</time>
      </trkpt>
      <trkpt lat="44.37973" lon="5.62644">
        <ele>1018.6</ele>
        <time>2021-09-07T17:02:17Z</time>
      </trkpt>
      <trkpt lat="44.37973" lon="5.62644">
        <ele>1018.9</ele>
        <time>2021-09-07T17:02:18Z</time>
      </trkpt>
      <trkpt lat="44.37972" lon="5.62644">
        <ele>1018.9</ele>
        <time>2021-09-07T17:02:19Z</time>
      </trkpt>
      <trkpt lat="44.37971" lon="5.62644">
        <ele>1018.9</ele>
        <time>2021-09-07T17:02:20Z</time>
      </trkpt>
      <trkpt lat="44.3797" lon="5.62643">
        <ele>1018.9</ele>
        <time>2021-09-07T17:02:21Z</time>
      </trkpt>
      <trkpt lat="44.3797" lon="5.62642">
        <ele>1018.9</ele>
        <time>2021-09-07T17:02:22Z</time>
      </trkpt>
      <trkpt lat="44.3797" lon="5.62641">
        <ele>1018.3</ele>
        <time>2021-09-07T17:02:23Z</time>
      </trkpt>
      <trkpt lat="44.37969" lon="5.6264">
        <ele>1018.3</ele>
        <time>2021-09-07T17:02:24Z</time>
      </trkpt>
      <trkpt lat="44.37969" lon="5.6264">
        <ele>1018.3</ele>
        <time>2021-09-07T17:02:25Z</time>
      </trkpt>
      <trkpt lat="44.37969" lon="5.62639">
        <ele>1018.3</ele>
        <time>2021-09-07T17:02:26Z</time>
      </trkpt>
      <trkpt lat="44.37969" lon="5.62637">
        <ele>1017.4</ele>
        <time>2021-09-07T17:02:27Z</time>
      </trkpt>
      <trkpt lat="44.37969" lon="5.62636">
        <ele>1017.4</ele>
        <time>2021-09-07T17:02:28Z</time>
      </trkpt>
      <trkpt lat="44.37969" lon="5.62635">
        <ele>1017.4</ele>
        <time>2021-09-07T17:02:29Z</time>
      </trkpt>
      <trkpt lat="44.37968" lon="5.62634">
        <ele>1017.4</ele>
        <time>2021-09-07T17:02:30Z</time>
      </trkpt>
      <trkpt lat="44.37968" lon="5.62633">
        <ele>1016.4</ele>
        <time>2021-09-07T17:02:31Z</time>
      </trkpt>
      <trkpt lat="44.37968" lon="5.62632">
        <ele>1016.4</ele>
        <time>2021-09-07T17:02:32Z</time>
      </trkpt>
      <trkpt lat="44.37968" lon="5.62631">
        <ele>1016.4</ele>
        <time>2021-09-07T17:02:33Z</time>
      </trkpt>
      <trkpt lat="44.37968" lon="5.6263">
        <ele>1016.4</ele>
        <time>2021-09-07T17:02:34Z</time>
      </trkpt>
      <trkpt lat="44.37967" lon="5.62629">
        <ele>1016.4</ele>
        <time>2021-09-07T17:02:35Z</time>
      </trkpt>
      <trkpt lat="44.37967" lon="5.62628">
        <ele>1015.5</ele>
        <time>2021-09-07T17:02:36Z</time>
      </trkpt>
      <trkpt lat="44.37965" lon="5.62625">
        <ele>1015.9</ele>
        <time>2021-09-07T17:02:37Z</time>
      </trkpt>
      <trkpt lat="44.37964" lon="5.62624">
        <ele>1015</ele>
        <time>2021-09-07T17:02:38Z</time>
      </trkpt>
      <trkpt lat="44.37963" lon="5.62623">
        <ele>1015.4</ele>
        <time>2021-09-07T17:02:39Z</time>
      </trkpt>
      <trkpt lat="44.37962" lon="5.62621">
        <ele>1015.4</ele>
        <time>2021-09-07T17:02:40Z</time>
      </trkpt>
      <trkpt lat="44.37961" lon="5.62619">
        <ele>1014.6</ele>
        <time>2021-09-07T17:02:41Z</time>
      </trkpt>
      <trkpt lat="44.3796" lon="5.62617">
        <ele>1014.9</ele>
        <time>2021-09-07T17:02:42Z</time>
      </trkpt>
      <trkpt lat="44.37958" lon="5.62615">
        <ele>1014.1</ele>
        <time>2021-09-07T17:02:43Z</time>
      </trkpt>
      <trkpt lat="44.37956" lon="5.62613">
        <ele>1014.5</ele>
        <time>2021-09-07T17:02:44Z</time>
      </trkpt>
      <trkpt lat="44.37952" lon="5.62607">
        <ele>1013.3</ele>
        <time>2021-09-07T17:02:45Z</time>
      </trkpt>
      <trkpt lat="44.37949" lon="5.62603">
        <ele>1013.8</ele>
        <time>2021-09-07T17:02:46Z</time>
      </trkpt>
      <trkpt lat="44.37945" lon="5.62599">
        <ele>1014</ele>
        <time>2021-09-07T17:02:47Z</time>
      </trkpt>
      <trkpt lat="44.37943" lon="5.62595">
        <ele>1013.3</ele>
        <time>2021-09-07T17:02:48Z</time>
      </trkpt>
      <trkpt lat="44.3794" lon="5.62591">
        <ele>1013.2</ele>
        <time>2021-09-07T17:02:49Z</time>
      </trkpt>
      <trkpt lat="44.37936" lon="5.62586">
        <ele>1013.6</ele>
        <time>2021-09-07T17:02:50Z</time>
      </trkpt>
      <trkpt lat="44.37932" lon="5.6258">
        <ele>1012.7</ele>
        <time>2021-09-07T17:02:51Z</time>
      </trkpt>
      <trkpt lat="44.3793" lon="5.62577">
        <ele>1012.5</ele>
        <time>2021-09-07T17:02:52Z</time>
      </trkpt>
      <trkpt lat="44.37927" lon="5.62574">
        <ele>1012.5</ele>
        <time>2021-09-07T17:02:53Z</time>
      </trkpt>
      <trkpt lat="44.37924" lon="5.62571">
        <ele>1012.4</ele>
        <time>2021-09-07T17:02:54Z</time>
      </trkpt>
      <trkpt lat="44.3792" lon="5.62565">
        <ele>1012.9</ele>
        <time>2021-09-07T17:02:55Z</time>
      </trkpt>
      <trkpt lat="44.37918" lon="5.62562">
        <ele>1012.8</ele>
        <time>2021-09-07T17:02:56Z</time>
      </trkpt>
      <trkpt lat="44.37915" lon="5.62559">
        <ele>1012</ele>
        <time>2021-09-07T17:02:57Z</time>
      </trkpt>
      <trkpt lat="44.37912" lon="5.62557">
        <ele>1012.6</ele>
        <time>2021-09-07T17:02:58Z</time>
      </trkpt>
      <trkpt lat="44.37909" lon="5.62554">
        <ele>1012.3</ele>
        <time>2021-09-07T17:02:59Z</time>
      </trkpt>
      <trkpt lat="44.37905" lon="5.6255">
        <ele>1012.5</ele>
        <time>2021-09-07T17:03:00Z</time>
      </trkpt>
      <trkpt lat="44.37902" lon="5.62548">
        <ele>1012.9</ele>
        <time>2021-09-07T17:03:01Z</time>
      </trkpt>
      <trkpt lat="44.37898" lon="5.62545">
        <ele>1012.6</ele>
        <time>2021-09-07T17:03:02Z</time>
      </trkpt>
      <trkpt lat="44.37891" lon="5.62539">
        <ele>1012.7</ele>
        <time>2021-09-07T17:03:03Z</time>
      </trkpt>
      <trkpt lat="44.37886" lon="5.62533">
        <ele>1011.9</ele>
        <time>2021-09-07T17:03:04Z</time>
      </trkpt>
      <trkpt lat="44.37883" lon="5.6253">
        <ele>1011.7</ele>
        <time>2021-09-07T17:03:05Z</time>
      </trkpt>
      <trkpt lat="44.37877" lon="5.62525">
        <ele>1011.6</ele>
        <time>2021-09-07T17:03:06Z</time>
      </trkpt>
      <trkpt lat="44.37874" lon="5.62522">
        <ele>1011.8</ele>
        <time>2021-09-07T17:03:07Z</time>
      </trkpt>
      <trkpt lat="44.37871" lon="5.62519">
        <ele>1011.3</ele>
        <time>2021-09-07T17:03:08Z</time>
      </trkpt>
      <trkpt lat="44.37866" lon="5.62515">
        <ele>1010.8</ele>
        <time>2021-09-07T17:03:09Z</time>
      </trkpt>
      <trkpt lat="44.3786" lon="5.62511">
        <ele>1010.3</ele>
        <time>2021-09-07T17:03:10Z</time>
      </trkpt>
      <trkpt lat="44.37857" lon="5.62509">
        <ele>1010.4</ele>
        <time>2021-09-07T17:03:11Z</time>
      </trkpt>
      <trkpt lat="44.37853" lon="5.62507">
        <ele>1009.6</ele>
        <time>2021-09-07T17:03:12Z</time>
      </trkpt>
      <trkpt lat="44.37847" lon="5.62504">
        <ele>1008.7</ele>
        <time>2021-09-07T17:03:13Z</time>
      </trkpt>
      <trkpt lat="44.37843" lon="5.62503">
        <ele>1008.5</ele>
        <time>2021-09-07T17:03:14Z</time>
      </trkpt>
      <trkpt lat="44.37838" lon="5.62501">
        <ele>1008.4</ele>
        <time>2021-09-07T17:03:15Z</time>
      </trkpt>
      <trkpt lat="44.37833" lon="5.625">
        <ele>1007.9</ele>
        <time>2021-09-07T17:03:16Z</time>
      </trkpt>
      <trkpt lat="44.37827" lon="5.62499">
        <ele>1006.1</ele>
        <time>2021-09-07T17:03:17Z</time>
      </trkpt>
      <trkpt lat="44.37825" lon="5.625">
        <ele>1006.8</ele>
        <time>2021-09-07T17:03:18Z</time>
      </trkpt>
      <trkpt lat="44.37822" lon="5.62501">
        <ele>1006.4</ele>
        <time>2021-09-07T17:03:19Z</time>
      </trkpt>
      <trkpt lat="44.37816" lon="5.62504">
        <ele>1005.5</ele>
        <time>2021-09-07T17:03:20Z</time>
      </trkpt>
      <trkpt lat="44.37811" lon="5.62507">
        <ele>1005.6</ele>
        <time>2021-09-07T17:03:21Z</time>
      </trkpt>
      <trkpt lat="44.37808" lon="5.6251">
        <ele>1005.6</ele>
        <time>2021-09-07T17:03:22Z</time>
      </trkpt>
      <trkpt lat="44.37804" lon="5.62513">
        <ele>1005</ele>
        <time>2021-09-07T17:03:23Z</time>
      </trkpt>
      <trkpt lat="44.37798" lon="5.62519">
        <ele>1004.3</ele>
        <time>2021-09-07T17:03:24Z</time>
      </trkpt>
      <trkpt lat="44.37796" lon="5.62522">
        <ele>1004.9</ele>
        <time>2021-09-07T17:03:25Z</time>
      </trkpt>
      <trkpt lat="44.37793" lon="5.62525">
        <ele>1004.2</ele>
        <time>2021-09-07T17:03:26Z</time>
      </trkpt>
      <trkpt lat="44.37792" lon="5.62528">
        <ele>1004.2</ele>
        <time>2021-09-07T17:03:27Z</time>
      </trkpt>
      <trkpt lat="44.3779" lon="5.62531">
        <ele>1004.8</ele>
        <time>2021-09-07T17:03:28Z</time>
      </trkpt>
      <trkpt lat="44.37788" lon="5.62531">
        <ele>1004.2</ele>
        <time>2021-09-07T17:03:29Z</time>
      </trkpt>
      <trkpt lat="44.37786" lon="5.62531">
        <ele>1004.2</ele>
        <time>2021-09-07T17:03:30Z</time>
      </trkpt>
      <trkpt lat="44.37782" lon="5.62526">
        <ele>1002.2</ele>
        <time>2021-09-07T17:03:31Z</time>
      </trkpt>
      <trkpt lat="44.37782" lon="5.62527">
        <ele>1002.2</ele>
        <time>2021-09-07T17:03:32Z</time>
      </trkpt>
      <trkpt lat="44.37781" lon="5.62527">
        <ele>1002.2</ele>
        <time>2021-09-07T17:03:33Z</time>
      </trkpt>
      <trkpt lat="44.37779" lon="5.62529">
        <ele>1001.4</ele>
        <time>2021-09-07T17:03:34Z</time>
      </trkpt>
      <trkpt lat="44.37778" lon="5.6253">
        <ele>1001.4</ele>
        <time>2021-09-07T17:03:35Z</time>
      </trkpt>
      <trkpt lat="44.37776" lon="5.62533">
        <ele>1001.3</ele>
        <time>2021-09-07T17:03:36Z</time>
      </trkpt>
      <trkpt lat="44.37776" lon="5.62536">
        <ele>1001.9</ele>
        <time>2021-09-07T17:03:37Z</time>
      </trkpt>
      <trkpt lat="44.37775" lon="5.62539">
        <ele>1002.6</ele>
        <time>2021-09-07T17:03:38Z</time>
      </trkpt>
      <trkpt lat="44.37773" lon="5.62543">
        <ele>1001.8</ele>
        <time>2021-09-07T17:03:39Z</time>
      </trkpt>
      <trkpt lat="44.37771" lon="5.62546">
        <ele>1002.5</ele>
        <time>2021-09-07T17:03:40Z</time>
      </trkpt>
      <trkpt lat="44.37766" lon="5.62555">
        <ele>1002.4</ele>
        <time>2021-09-07T17:03:41Z</time>
      </trkpt>
      <trkpt lat="44.37765" lon="5.62559">
        <ele>1003</ele>
        <time>2021-09-07T17:03:42Z</time>
      </trkpt>
      <trkpt lat="44.37763" lon="5.62563">
        <ele>1002.9</ele>
        <time>2021-09-07T17:03:43Z</time>
      </trkpt>
      <trkpt lat="44.37759" lon="5.62572">
        <ele>1003.4</ele>
        <time>2021-09-07T17:03:44Z</time>
      </trkpt>
      <trkpt lat="44.37755" lon="5.62579">
        <ele>1003.2</ele>
        <time>2021-09-07T17:03:45Z</time>
      </trkpt>
      <trkpt lat="44.37751" lon="5.62586">
        <ele>1003.7</ele>
        <time>2021-09-07T17:03:46Z</time>
      </trkpt>
      <trkpt lat="44.37748" lon="5.62593">
        <ele>1003.5</ele>
        <time>2021-09-07T17:03:47Z</time>
      </trkpt>
      <trkpt lat="44.37746" lon="5.62598">
        <ele>1004.1</ele>
        <time>2021-09-07T17:03:48Z</time>
      </trkpt>
      <trkpt lat="44.37744" lon="5.62603">
        <ele>1004.5</ele>
        <time>2021-09-07T17:03:49Z</time>
      </trkpt>
      <trkpt lat="44.37741" lon="5.62606">
        <ele>1003.8</ele>
        <time>2021-09-07T17:03:50Z</time>
      </trkpt>
      <trkpt lat="44.37737" lon="5.62613">
        <ele>1004.3</ele>
        <time>2021-09-07T17:03:51Z</time>
      </trkpt>
      <trkpt lat="44.37736" lon="5.62616">
        <ele>1004.2</ele>
        <time>2021-09-07T17:03:52Z</time>
      </trkpt>
      <trkpt lat="44.37734" lon="5.62619">
        <ele>1004.2</ele>
        <time>2021-09-07T17:03:53Z</time>
      </trkpt>
      <trkpt lat="44.37733" lon="5.62622">
        <ele>1004.1</ele>
        <time>2021-09-07T17:03:54Z</time>
      </trkpt>
      <trkpt lat="44.37732" lon="5.62623">
        <ele>1004.1</ele>
        <time>2021-09-07T17:03:55Z</time>
      </trkpt>
      <trkpt lat="44.3773" lon="5.62625">
        <ele>1003.9</ele>
        <time>2021-09-07T17:03:56Z</time>
      </trkpt>
      <trkpt lat="44.37728" lon="5.62626">
        <ele>1003.9</ele>
        <time>2021-09-07T17:03:57Z</time>
      </trkpt>
      <trkpt lat="44.37727" lon="5.62627">
        <ele>1003.1</ele>
        <time>2021-09-07T17:03:58Z</time>
      </trkpt>
      <trkpt lat="44.37726" lon="5.62627">
        <ele>1003.1</ele>
        <time>2021-09-07T17:03:59Z</time>
      </trkpt>
      <trkpt lat="44.37725" lon="5.62627">
        <ele>1003.1</ele>
        <time>2021-09-07T17:04:00Z</time>
      </trkpt>
      <trkpt lat="44.37725" lon="5.62628">
        <ele>1003.1</ele>
        <time>2021-09-07T17:04:01Z</time>
      </trkpt>
      <trkpt lat="44.37724" lon="5.62628">
        <ele>1002.1</ele>
        <time>2021-09-07T17:04:02Z</time>
      </trkpt>
      <trkpt lat="44.37722" lon="5.62629">
        <ele>1002.8</ele>
        <time>2021-09-07T17:04:03Z</time>
      </trkpt>
      <trkpt lat="44.3772" lon="5.62629">
        <ele>1001.9</ele>
        <time>2021-09-07T17:04:04Z</time>
      </trkpt>
      <trkpt lat="44.37717" lon="5.62628">
        <ele>1000.4</ele>
        <time>2021-09-07T17:04:05Z</time>
      </trkpt>
      <trkpt lat="44.37716" lon="5.62627">
        <ele>1000.4</ele>
        <time>2021-09-07T17:04:06Z</time>
      </trkpt>
      <trkpt lat="44.37714" lon="5.62626">
        <ele>999.6</ele>
        <time>2021-09-07T17:04:07Z</time>
      </trkpt>
      <trkpt lat="44.37712" lon="5.62626">
        <ele>998.9</ele>
        <time>2021-09-07T17:04:08Z</time>
      </trkpt>
      <trkpt lat="44.37711" lon="5.62625">
        <ele>998.9</ele>
        <time>2021-09-07T17:04:09Z</time>
      </trkpt>
      <trkpt lat="44.3771" lon="5.62624">
        <ele>998.3</ele>
        <time>2021-09-07T17:04:10Z</time>
      </trkpt>
      <trkpt lat="44.37709" lon="5.62624">
        <ele>997.5</ele>
        <time>2021-09-07T17:04:11Z</time>
      </trkpt>
      <trkpt lat="44.37707" lon="5.62623">
        <ele>997.5</ele>
        <time>2021-09-07T17:04:12Z</time>
      </trkpt>
      <trkpt lat="44.37705" lon="5.62623">
        <ele>996.8</ele>
        <time>2021-09-07T17:04:13Z</time>
      </trkpt>
      <trkpt lat="44.37702" lon="5.62622">
        <ele>996</ele>
        <time>2021-09-07T17:04:14Z</time>
      </trkpt>
      <trkpt lat="44.377" lon="5.62621">
        <ele>996</ele>
        <time>2021-09-07T17:04:15Z</time>
      </trkpt>
      <trkpt lat="44.37698" lon="5.62621">
        <ele>995.2</ele>
        <time>2021-09-07T17:04:16Z</time>
      </trkpt>
      <trkpt lat="44.37695" lon="5.62621">
        <ele>994.5</ele>
        <time>2021-09-07T17:04:17Z</time>
      </trkpt>
      <trkpt lat="44.37692" lon="5.62622">
        <ele>993.7</ele>
        <time>2021-09-07T17:04:18Z</time>
      </trkpt>
      <trkpt lat="44.37691" lon="5.62622">
        <ele>992.9</ele>
        <time>2021-09-07T17:04:19Z</time>
      </trkpt>
      <trkpt lat="44.37689" lon="5.62622">
        <ele>992.9</ele>
        <time>2021-09-07T17:04:20Z</time>
      </trkpt>
      <trkpt lat="44.37686" lon="5.62623">
        <ele>992.2</ele>
        <time>2021-09-07T17:04:21Z</time>
      </trkpt>
      <trkpt lat="44.37685" lon="5.62623">
        <ele>992.2</ele>
        <time>2021-09-07T17:04:22Z</time>
      </trkpt>
      <trkpt lat="44.37684" lon="5.62622">
        <ele>991.5</ele>
        <time>2021-09-07T17:04:23Z</time>
      </trkpt>
      <trkpt lat="44.37683" lon="5.6262">
        <ele>990.8</ele>
        <time>2021-09-07T17:04:24Z</time>
      </trkpt>
      <trkpt lat="44.37681" lon="5.62616">
        <ele>990</ele>
        <time>2021-09-07T17:04:25Z</time>
      </trkpt>
      <trkpt lat="44.37681" lon="5.62612">
        <ele>989.3</ele>
        <time>2021-09-07T17:04:26Z</time>
      </trkpt>
      <trkpt lat="44.37681" lon="5.62609">
        <ele>988.7</ele>
        <time>2021-09-07T17:04:27Z</time>
      </trkpt>
      <trkpt lat="44.37681" lon="5.62606">
        <ele>988</ele>
        <time>2021-09-07T17:04:28Z</time>
      </trkpt>
      <trkpt lat="44.37681" lon="5.626">
        <ele>987.4</ele>
        <time>2021-09-07T17:04:29Z</time>
      </trkpt>
      <trkpt lat="44.37681" lon="5.62595">
        <ele>986.7</ele>
        <time>2021-09-07T17:04:30Z</time>
      </trkpt>
      <trkpt lat="44.37683" lon="5.62586">
        <ele>986.2</ele>
        <time>2021-09-07T17:04:31Z</time>
      </trkpt>
      <trkpt lat="44.37684" lon="5.62581">
        <ele>985.1</ele>
        <time>2021-09-07T17:04:32Z</time>
      </trkpt>
      <trkpt lat="44.37685" lon="5.62578">
        <ele>985.1</ele>
        <time>2021-09-07T17:04:33Z</time>
      </trkpt>
      <trkpt lat="44.37685" lon="5.62575">
        <ele>985.4</ele>
        <time>2021-09-07T17:04:34Z</time>
      </trkpt>
      <trkpt lat="44.37686" lon="5.62569">
        <ele>984.9</ele>
        <time>2021-09-07T17:04:35Z</time>
      </trkpt>
      <trkpt lat="44.37688" lon="5.62564">
        <ele>984.9</ele>
        <time>2021-09-07T17:04:36Z</time>
      </trkpt>
      <trkpt lat="44.37688" lon="5.62559">
        <ele>984.5</ele>
        <time>2021-09-07T17:04:37Z</time>
      </trkpt>
      <trkpt lat="44.37688" lon="5.62551">
        <ele>983.6</ele>
        <time>2021-09-07T17:04:38Z</time>
      </trkpt>
      <trkpt lat="44.37689" lon="5.62546">
        <ele>983.1</ele>
        <time>2021-09-07T17:04:39Z</time>
      </trkpt>
      <trkpt lat="44.37689" lon="5.62541">
        <ele>982.6</ele>
        <time>2021-09-07T17:04:40Z</time>
      </trkpt>
      <trkpt lat="44.3769" lon="5.62529">
        <ele>981.1</ele>
        <time>2021-09-07T17:04:41Z</time>
      </trkpt>
      <trkpt lat="44.37689" lon="5.62522">
        <ele>980.6</ele>
        <time>2021-09-07T17:04:42Z</time>
      </trkpt>
      <trkpt lat="44.37688" lon="5.62514">
        <ele>979.7</ele>
        <time>2021-09-07T17:04:43Z</time>
      </trkpt>
      <trkpt lat="44.37688" lon="5.62506">
        <ele>978.7</ele>
        <time>2021-09-07T17:04:44Z</time>
      </trkpt>
      <trkpt lat="44.37689" lon="5.625">
        <ele>977.6</ele>
        <time>2021-09-07T17:04:45Z</time>
      </trkpt>
      <trkpt lat="44.37689" lon="5.62493">
        <ele>977.2</ele>
        <time>2021-09-07T17:04:46Z</time>
      </trkpt>
      <trkpt lat="44.3769" lon="5.62485">
        <ele>976.5</ele>
        <time>2021-09-07T17:04:47Z</time>
      </trkpt>
      <trkpt lat="44.37689" lon="5.6248">
        <ele>976.2</ele>
        <time>2021-09-07T17:04:48Z</time>
      </trkpt>
      <trkpt lat="44.3769" lon="5.62473">
        <ele>975.7</ele>
        <time>2021-09-07T17:04:49Z</time>
      </trkpt>
      <trkpt lat="44.3769" lon="5.62471">
        <ele>975.7</ele>
        <time>2021-09-07T17:04:50Z</time>
      </trkpt>
      <trkpt lat="44.37689" lon="5.62468">
        <ele>975.5</ele>
        <time>2021-09-07T17:04:51Z</time>
      </trkpt>
      <trkpt lat="44.37688" lon="5.62464">
        <ele>975.2</ele>
        <time>2021-09-07T17:04:52Z</time>
      </trkpt>
      <trkpt lat="44.37687" lon="5.62461">
        <ele>974.3</ele>
        <time>2021-09-07T17:04:53Z</time>
      </trkpt>
      <trkpt lat="44.37687" lon="5.62459">
        <ele>974.3</ele>
        <time>2021-09-07T17:04:54Z</time>
      </trkpt>
      <trkpt lat="44.37686" lon="5.62457">
        <ele>974.1</ele>
        <time>2021-09-07T17:04:55Z</time>
      </trkpt>
      <trkpt lat="44.37685" lon="5.62454">
        <ele>974.1</ele>
        <time>2021-09-07T17:04:56Z</time>
      </trkpt>
      <trkpt lat="44.37685" lon="5.62453">
        <ele>973.8</ele>
        <time>2021-09-07T17:04:57Z</time>
      </trkpt>
      <trkpt lat="44.37685" lon="5.62451">
        <ele>973.8</ele>
        <time>2021-09-07T17:04:58Z</time>
      </trkpt>
      <trkpt lat="44.37686" lon="5.62451">
        <ele>973.8</ele>
        <time>2021-09-07T17:04:59Z</time>
      </trkpt>
      <trkpt lat="44.37686" lon="5.6245">
        <ele>973.8</ele>
        <time>2021-09-07T17:05:00Z</time>
      </trkpt>
      <trkpt lat="44.37686" lon="5.6245">
        <ele>973.8</ele>
        <time>2021-09-07T17:05:01Z</time>
      </trkpt>
      <trkpt lat="44.37686" lon="5.6245">
        <ele>973.8</ele>
        <time>2021-09-07T17:05:02Z</time>
      </trkpt>
      <trkpt lat="44.37686" lon="5.6245">
        <ele>973.8</ele>
        <time>2021-09-07T17:05:03Z</time>
      </trkpt>
      <trkpt lat="44.37685" lon="5.6245">
        <ele>973.8</ele>
        <time>2021-09-07T17:05:04Z</time>
      </trkpt>
      <trkpt lat="44.37685" lon="5.6245">
        <ele>973.8</ele>
        <time>2021-09-07T17:05:05Z</time>
      </trkpt>
      <trkpt lat="44.37685" lon="5.6245">
        <ele>973.8</ele>
        <time>2021-09-07T17:05:06Z</time>
      </trkpt>
      <trkpt lat="44.37685" lon="5.6245">
        <ele>973.8</ele>
        <time>2021-09-07T17:05:07Z</time>
      </trkpt>
      <trkpt lat="44.37685" lon="5.62449">
        <ele>973.8</ele>
        <time>2021-09-07T17:05:08Z</time>
      </trkpt>
      <trkpt lat="44.37685" lon="5.62449">
        <ele>973.8</ele>
        <time>2021-09-07T17:05:09Z</time>
      </trkpt>
      <trkpt lat="44.37684" lon="5.62448">
        <ele>973</ele>
        <time>2021-09-07T17:05:10Z</time>
      </trkpt>
      <trkpt lat="44.37684" lon="5.62446">
        <ele>973</ele>
        <time>2021-09-07T17:05:11Z</time>
      </trkpt>
      <trkpt lat="44.37684" lon="5.62443">
        <ele>972.8</ele>
        <time>2021-09-07T17:05:12Z</time>
      </trkpt>
      <trkpt lat="44.37684" lon="5.62441">
        <ele>972.8</ele>
        <time>2021-09-07T17:05:13Z</time>
      </trkpt>
      <trkpt lat="44.37684" lon="5.62438">
        <ele>972.6</ele>
        <time>2021-09-07T17:05:14Z</time>
      </trkpt>
      <trkpt lat="44.37685" lon="5.62435">
        <ele>972.3</ele>
        <time>2021-09-07T17:05:15Z</time>
      </trkpt>
      <trkpt lat="44.37685" lon="5.62432">
        <ele>972.8</ele>
        <time>2021-09-07T17:05:16Z</time>
      </trkpt>
      <trkpt lat="44.37685" lon="5.62426">
        <ele>972.2</ele>
        <time>2021-09-07T17:05:17Z</time>
      </trkpt>
      <trkpt lat="44.37683" lon="5.62417">
        <ele>970.9</ele>
        <time>2021-09-07T17:05:18Z</time>
      </trkpt>
      <trkpt lat="44.37681" lon="5.62409">
        <ele>969.6</ele>
        <time>2021-09-07T17:05:19Z</time>
      </trkpt>
      <trkpt lat="44.3768" lon="5.62405">
        <ele>969.1</ele>
        <time>2021-09-07T17:05:20Z</time>
      </trkpt>
      <trkpt lat="44.37678" lon="5.624">
        <ele>968.3</ele>
        <time>2021-09-07T17:05:21Z</time>
      </trkpt>
      <trkpt lat="44.37676" lon="5.62394">
        <ele>967.9</ele>
        <time>2021-09-07T17:05:22Z</time>
      </trkpt>
      <trkpt lat="44.37672" lon="5.62384">
        <ele>965.9</ele>
        <time>2021-09-07T17:05:23Z</time>
      </trkpt>
      <trkpt lat="44.37668" lon="5.62374">
        <ele>964.7</ele>
        <time>2021-09-07T17:05:24Z</time>
      </trkpt>
      <trkpt lat="44.37665" lon="5.62368">
        <ele>963.9</ele>
        <time>2021-09-07T17:05:25Z</time>
      </trkpt>
      <trkpt lat="44.37661" lon="5.62361">
        <ele>962.7</ele>
        <time>2021-09-07T17:05:26Z</time>
      </trkpt>
      <trkpt lat="44.3766" lon="5.62357">
        <ele>962</ele>
        <time>2021-09-07T17:05:27Z</time>
      </trkpt>
      <trkpt lat="44.37658" lon="5.62353">
        <ele>961.6</ele>
        <time>2021-09-07T17:05:28Z</time>
      </trkpt>
      <trkpt lat="44.37658" lon="5.62349">
        <ele>961.1</ele>
        <time>2021-09-07T17:05:29Z</time>
      </trkpt>
      <trkpt lat="44.37656" lon="5.62342">
        <ele>960.5</ele>
        <time>2021-09-07T17:05:30Z</time>
      </trkpt>
      <trkpt lat="44.37656" lon="5.6234">
        <ele>960</ele>
        <time>2021-09-07T17:05:31Z</time>
      </trkpt>
      <trkpt lat="44.37655" lon="5.62337">
        <ele>960</ele>
        <time>2021-09-07T17:05:32Z</time>
      </trkpt>
      <trkpt lat="44.37655" lon="5.62335">
        <ele>959.5</ele>
        <time>2021-09-07T17:05:33Z</time>
      </trkpt>
      <trkpt lat="44.37655" lon="5.62334">
        <ele>959.5</ele>
        <time>2021-09-07T17:05:34Z</time>
      </trkpt>
      <trkpt lat="44.37654" lon="5.62332">
        <ele>959</ele>
        <time>2021-09-07T17:05:35Z</time>
      </trkpt>
      <trkpt lat="44.37656" lon="5.62333">
        <ele>959</ele>
        <time>2021-09-07T17:05:36Z</time>
      </trkpt>
      <trkpt lat="44.37657" lon="5.62333">
        <ele>959.7</ele>
        <time>2021-09-07T17:05:37Z</time>
      </trkpt>
      <trkpt lat="44.3766" lon="5.62335">
        <ele>959.7</ele>
        <time>2021-09-07T17:05:38Z</time>
      </trkpt>
      <trkpt lat="44.37663" lon="5.62336">
        <ele>959.9</ele>
        <time>2021-09-07T17:05:39Z</time>
      </trkpt>
      <trkpt lat="44.37666" lon="5.62336">
        <ele>960.2</ele>
        <time>2021-09-07T17:05:40Z</time>
      </trkpt>
      <trkpt lat="44.37668" lon="5.62337">
        <ele>960.9</ele>
        <time>2021-09-07T17:05:41Z</time>
      </trkpt>
      <trkpt lat="44.37669" lon="5.62338">
        <ele>960.9</ele>
        <time>2021-09-07T17:05:42Z</time>
      </trkpt>
      <trkpt lat="44.3767" lon="5.62339">
        <ele>961.1</ele>
        <time>2021-09-07T17:05:43Z</time>
      </trkpt>
      <trkpt lat="44.37671" lon="5.62339">
        <ele>961.1</ele>
        <time>2021-09-07T17:05:44Z</time>
      </trkpt>
      <trkpt lat="44.37671" lon="5.62339">
        <ele>961.1</ele>
        <time>2021-09-07T17:05:45Z</time>
      </trkpt>
      <trkpt lat="44.37671" lon="5.6234">
        <ele>961.1</ele>
        <time>2021-09-07T17:05:46Z</time>
      </trkpt>
      <trkpt lat="44.37671" lon="5.6234">
        <ele>961.1</ele>
        <time>2021-09-07T17:05:47Z</time>
      </trkpt>
      <trkpt lat="44.37671" lon="5.6234">
        <ele>961.1</ele>
        <time>2021-09-07T17:05:48Z</time>
      </trkpt>
      <trkpt lat="44.37672" lon="5.6234">
        <ele>961.1</ele>
        <time>2021-09-07T17:05:49Z</time>
      </trkpt>
      <trkpt lat="44.37672" lon="5.6234">
        <ele>961.1</ele>
        <time>2021-09-07T17:05:50Z</time>
      </trkpt>
      <trkpt lat="44.37672" lon="5.6234">
        <ele>961.1</ele>
        <time>2021-09-07T17:05:51Z</time>
      </trkpt>
      <trkpt lat="44.37672" lon="5.6234">
        <ele>961.1</ele>
        <time>2021-09-07T17:05:52Z</time>
      </trkpt>
      <trkpt lat="44.37673" lon="5.62341">
        <ele>961.3</ele>
        <time>2021-09-07T17:05:53Z</time>
      </trkpt>
      <trkpt lat="44.37675" lon="5.62342">
        <ele>961.8</ele>
        <time>2021-09-07T17:05:54Z</time>
      </trkpt>
      <trkpt lat="44.37676" lon="5.62342">
        <ele>962</ele>
        <time>2021-09-07T17:05:55Z</time>
      </trkpt>
      <trkpt lat="44.37677" lon="5.62343">
        <ele>962</ele>
        <time>2021-09-07T17:05:56Z</time>
      </trkpt>
      <trkpt lat="44.37678" lon="5.62343">
        <ele>962</ele>
        <time>2021-09-07T17:05:57Z</time>
      </trkpt>
      <trkpt lat="44.3768" lon="5.62343">
        <ele>962.3</ele>
        <time>2021-09-07T17:05:58Z</time>
      </trkpt>
      <trkpt lat="44.37682" lon="5.62342">
        <ele>962.6</ele>
        <time>2021-09-07T17:05:59Z</time>
      </trkpt>
      <trkpt lat="44.37683" lon="5.62341">
        <ele>962.1</ele>
        <time>2021-09-07T17:06:00Z</time>
      </trkpt>
      <trkpt lat="44.37685" lon="5.62339">
        <ele>962.5</ele>
        <time>2021-09-07T17:06:01Z</time>
      </trkpt>
      <trkpt lat="44.37686" lon="5.62338">
        <ele>962.5</ele>
        <time>2021-09-07T17:06:02Z</time>
      </trkpt>
      <trkpt lat="44.37687" lon="5.62337">
        <ele>962.5</ele>
        <time>2021-09-07T17:06:03Z</time>
      </trkpt>
      <trkpt lat="44.37687" lon="5.62334">
        <ele>961.9</ele>
        <time>2021-09-07T17:06:04Z</time>
      </trkpt>
      <trkpt lat="44.37686" lon="5.62331">
        <ele>961.4</ele>
        <time>2021-09-07T17:06:05Z</time>
      </trkpt>
      <trkpt lat="44.37684" lon="5.62323">
        <ele>960</ele>
        <time>2021-09-07T17:06:06Z</time>
      </trkpt>
      <trkpt lat="44.37683" lon="5.62314">
        <ele>958.9</ele>
        <time>2021-09-07T17:06:07Z</time>
      </trkpt>
      <trkpt lat="44.37682" lon="5.62311">
        <ele>958.3</ele>
        <time>2021-09-07T17:06:08Z</time>
      </trkpt>
      <trkpt lat="44.37681" lon="5.62307">
        <ele>958.1</ele>
        <time>2021-09-07T17:06:09Z</time>
      </trkpt>
      <trkpt lat="44.37679" lon="5.62298">
        <ele>956.5</ele>
        <time>2021-09-07T17:06:10Z</time>
      </trkpt>
      <trkpt lat="44.37676" lon="5.62289">
        <ele>955.2</ele>
        <time>2021-09-07T17:06:11Z</time>
      </trkpt>
      <trkpt lat="44.37675" lon="5.62286">
        <ele>955</ele>
        <time>2021-09-07T17:06:12Z</time>
      </trkpt>
      <trkpt lat="44.37674" lon="5.62283">
        <ele>954.4</ele>
        <time>2021-09-07T17:06:13Z</time>
      </trkpt>
      <trkpt lat="44.37673" lon="5.62274">
        <ele>953.2</ele>
        <time>2021-09-07T17:06:14Z</time>
      </trkpt>
      <trkpt lat="44.37673" lon="5.62271">
        <ele>952.6</ele>
        <time>2021-09-07T17:06:15Z</time>
      </trkpt>
      <trkpt lat="44.37673" lon="5.62267">
        <ele>952</ele>
        <time>2021-09-07T17:06:16Z</time>
      </trkpt>
      <trkpt lat="44.37673" lon="5.62263">
        <ele>951.5</ele>
        <time>2021-09-07T17:06:17Z</time>
      </trkpt>
      <trkpt lat="44.37673" lon="5.62259">
        <ele>951</ele>
        <time>2021-09-07T17:06:18Z</time>
      </trkpt>
      <trkpt lat="44.37673" lon="5.62256">
        <ele>951</ele>
        <time>2021-09-07T17:06:19Z</time>
      </trkpt>
      <trkpt lat="44.37672" lon="5.62253">
        <ele>950.1</ele>
        <time>2021-09-07T17:06:20Z</time>
      </trkpt>
      <trkpt lat="44.37672" lon="5.62251">
        <ele>949.6</ele>
        <time>2021-09-07T17:06:21Z</time>
      </trkpt>
      <trkpt lat="44.37672" lon="5.62249">
        <ele>949.6</ele>
        <time>2021-09-07T17:06:22Z</time>
      </trkpt>
      <trkpt lat="44.37672" lon="5.62243">
        <ele>949.1</ele>
        <time>2021-09-07T17:06:23Z</time>
      </trkpt>
      <trkpt lat="44.37672" lon="5.62238">
        <ele>948</ele>
        <time>2021-09-07T17:06:24Z</time>
      </trkpt>
      <trkpt lat="44.37672" lon="5.62237">
        <ele>948</ele>
        <time>2021-09-07T17:06:25Z</time>
      </trkpt>
      <trkpt lat="44.37672" lon="5.62236">
        <ele>948</ele>
        <time>2021-09-07T17:06:26Z</time>
      </trkpt>
      <trkpt lat="44.37672" lon="5.62237">
        <ele>948</ele>
        <time>2021-09-07T17:06:27Z</time>
      </trkpt>
      <trkpt lat="44.37671" lon="5.62237">
        <ele>948</ele>
        <time>2021-09-07T17:06:28Z</time>
      </trkpt>
      <trkpt lat="44.37671" lon="5.62236">
        <ele>948</ele>
        <time>2021-09-07T17:06:29Z</time>
      </trkpt>
      <trkpt lat="44.37671" lon="5.62236">
        <ele>948</ele>
        <time>2021-09-07T17:06:30Z</time>
      </trkpt>
      <trkpt lat="44.37671" lon="5.62236">
        <ele>948</ele>
        <time>2021-09-07T17:06:31Z</time>
      </trkpt>
      <trkpt lat="44.37671" lon="5.62236">
        <ele>948</ele>
        <time>2021-09-07T17:06:32Z</time>
      </trkpt>
      <trkpt lat="44.37672" lon="5.62236">
        <ele>948</ele>
        <time>2021-09-07T17:06:33Z</time>
      </trkpt>
      <trkpt lat="44.37672" lon="5.62236">
        <ele>948</ele>
        <time>2021-09-07T17:06:34Z</time>
      </trkpt>
      <trkpt lat="44.37672" lon="5.62235">
        <ele>948</ele>
        <time>2021-09-07T17:06:35Z</time>
      </trkpt>
      <trkpt lat="44.37672" lon="5.62235">
        <ele>948</ele>
        <time>2021-09-07T17:06:36Z</time>
      </trkpt>
      <trkpt lat="44.37672" lon="5.62235">
        <ele>948</ele>
        <time>2021-09-07T17:06:37Z</time>
      </trkpt>
      <trkpt lat="44.37671" lon="5.62235">
        <ele>948</ele>
        <time>2021-09-07T17:06:38Z</time>
      </trkpt>
      <trkpt lat="44.37671" lon="5.62234">
        <ele>948</ele>
        <time>2021-09-07T17:06:39Z</time>
      </trkpt>
      <trkpt lat="44.37671" lon="5.62231">
        <ele>947.4</ele>
        <time>2021-09-07T17:06:40Z</time>
      </trkpt>
      <trkpt lat="44.3767" lon="5.62229">
        <ele>946.8</ele>
        <time>2021-09-07T17:06:41Z</time>
      </trkpt>
      <trkpt lat="44.3767" lon="5.62227">
        <ele>946.8</ele>
        <time>2021-09-07T17:06:42Z</time>
      </trkpt>
      <trkpt lat="44.3767" lon="5.62224">
        <ele>946.2</ele>
        <time>2021-09-07T17:06:43Z</time>
      </trkpt>
      <trkpt lat="44.37669" lon="5.62221">
        <ele>945.3</ele>
        <time>2021-09-07T17:06:44Z</time>
      </trkpt>
      <trkpt lat="44.37669" lon="5.62212">
        <ele>944.2</ele>
        <time>2021-09-07T17:06:45Z</time>
      </trkpt>
      <trkpt lat="44.37669" lon="5.62203">
        <ele>943.2</ele>
        <time>2021-09-07T17:06:46Z</time>
      </trkpt>
      <trkpt lat="44.37669" lon="5.62198">
        <ele>942.7</ele>
        <time>2021-09-07T17:06:47Z</time>
      </trkpt>
      <trkpt lat="44.37668" lon="5.62192">
        <ele>942.1</ele>
        <time>2021-09-07T17:06:48Z</time>
      </trkpt>
      <trkpt lat="44.37668" lon="5.62182">
        <ele>940.4</ele>
        <time>2021-09-07T17:06:49Z</time>
      </trkpt>
      <trkpt lat="44.37668" lon="5.62173">
        <ele>939.2</ele>
        <time>2021-09-07T17:06:50Z</time>
      </trkpt>
      <trkpt lat="44.37669" lon="5.6217">
        <ele>938.6</ele>
        <time>2021-09-07T17:06:51Z</time>
      </trkpt>
      <trkpt lat="44.37669" lon="5.62166">
        <ele>938.6</ele>
        <time>2021-09-07T17:06:52Z</time>
      </trkpt>
      <trkpt lat="44.3767" lon="5.62156">
        <ele>937.1</ele>
        <time>2021-09-07T17:06:53Z</time>
      </trkpt>
      <trkpt lat="44.3767" lon="5.62153">
        <ele>937.1</ele>
        <time>2021-09-07T17:06:54Z</time>
      </trkpt>
      <trkpt lat="44.37669" lon="5.6215">
        <ele>936.1</ele>
        <time>2021-09-07T17:06:55Z</time>
      </trkpt>
      <trkpt lat="44.37669" lon="5.62143">
        <ele>934.6</ele>
        <time>2021-09-07T17:06:56Z</time>
      </trkpt>
      <trkpt lat="44.37668" lon="5.62139">
        <ele>933.7</ele>
        <time>2021-09-07T17:06:57Z</time>
      </trkpt>
      <trkpt lat="44.37667" lon="5.62136">
        <ele>933.7</ele>
        <time>2021-09-07T17:06:58Z</time>
      </trkpt>
      <trkpt lat="44.37666" lon="5.62132">
        <ele>932.6</ele>
        <time>2021-09-07T17:06:59Z</time>
      </trkpt>
      <trkpt lat="44.37665" lon="5.62126">
        <ele>931</ele>
        <time>2021-09-07T17:07:00Z</time>
      </trkpt>
      <trkpt lat="44.37665" lon="5.62123">
        <ele>931</ele>
        <time>2021-09-07T17:07:01Z</time>
      </trkpt>
      <trkpt lat="44.37664" lon="5.6212">
        <ele>930.2</ele>
        <time>2021-09-07T17:07:02Z</time>
      </trkpt>
      <trkpt lat="44.37663" lon="5.62113">
        <ele>928.4</ele>
        <time>2021-09-07T17:07:03Z</time>
      </trkpt>
      <trkpt lat="44.37662" lon="5.62111">
        <ele>928.4</ele>
        <time>2021-09-07T17:07:04Z</time>
      </trkpt>
      <trkpt lat="44.37661" lon="5.62108">
        <ele>927.5</ele>
        <time>2021-09-07T17:07:05Z</time>
      </trkpt>
      <trkpt lat="44.37659" lon="5.62103">
        <ele>926.5</ele>
        <time>2021-09-07T17:07:06Z</time>
      </trkpt>
      <trkpt lat="44.37658" lon="5.62101">
        <ele>925.6</ele>
        <time>2021-09-07T17:07:07Z</time>
      </trkpt>
      <trkpt lat="44.37657" lon="5.62098">
        <ele>925.6</ele>
        <time>2021-09-07T17:07:08Z</time>
      </trkpt>
      <trkpt lat="44.37655" lon="5.62093">
        <ele>924.5</ele>
        <time>2021-09-07T17:07:09Z</time>
      </trkpt>
      <trkpt lat="44.37654" lon="5.62091">
        <ele>923.6</ele>
        <time>2021-09-07T17:07:10Z</time>
      </trkpt>
      <trkpt lat="44.37653" lon="5.62088">
        <ele>922.5</ele>
        <time>2021-09-07T17:07:11Z</time>
      </trkpt>
      <trkpt lat="44.37653" lon="5.62086">
        <ele>922.5</ele>
        <time>2021-09-07T17:07:12Z</time>
      </trkpt>
      <trkpt lat="44.37651" lon="5.62082">
        <ele>921.6</ele>
        <time>2021-09-07T17:07:13Z</time>
      </trkpt>
      <trkpt lat="44.37651" lon="5.62081">
        <ele>921.5</ele>
        <time>2021-09-07T17:07:14Z</time>
      </trkpt>
      <trkpt lat="44.3765" lon="5.62079">
        <ele>920.6</ele>
        <time>2021-09-07T17:07:15Z</time>
      </trkpt>
      <trkpt lat="44.37649" lon="5.62076">
        <ele>920.6</ele>
        <time>2021-09-07T17:07:16Z</time>
      </trkpt>
      <trkpt lat="44.37649" lon="5.62075">
        <ele>919.8</ele>
        <time>2021-09-07T17:07:17Z</time>
      </trkpt>
      <trkpt lat="44.37648" lon="5.62074">
        <ele>919.8</ele>
        <time>2021-09-07T17:07:18Z</time>
      </trkpt>
      <trkpt lat="44.37648" lon="5.62074">
        <ele>919.8</ele>
        <time>2021-09-07T17:07:19Z</time>
      </trkpt>
      <trkpt lat="44.37648" lon="5.62074">
        <ele>919.8</ele>
        <time>2021-09-07T17:07:20Z</time>
      </trkpt>
      <trkpt lat="44.37648" lon="5.62074">
        <ele>919.7</ele>
        <time>2021-09-07T17:07:21Z</time>
      </trkpt>
      <trkpt lat="44.37647" lon="5.62074">
        <ele>919.7</ele>
        <time>2021-09-07T17:07:22Z</time>
      </trkpt>
      <trkpt lat="44.37647" lon="5.62074">
        <ele>919.7</ele>
        <time>2021-09-07T17:07:23Z</time>
      </trkpt>
      <trkpt lat="44.37647" lon="5.62074">
        <ele>919.7</ele>
        <time>2021-09-07T17:07:24Z</time>
      </trkpt>
      <trkpt lat="44.37647" lon="5.62073">
        <ele>919.7</ele>
        <time>2021-09-07T17:07:25Z</time>
      </trkpt>
      <trkpt lat="44.37647" lon="5.62073">
        <ele>919.7</ele>
        <time>2021-09-07T17:07:26Z</time>
      </trkpt>
      <trkpt lat="44.37647" lon="5.62073">
        <ele>919.7</ele>
        <time>2021-09-07T17:07:27Z</time>
      </trkpt>
      <trkpt lat="44.37647" lon="5.62073">
        <ele>919.7</ele>
        <time>2021-09-07T17:07:28Z</time>
      </trkpt>
      <trkpt lat="44.37647" lon="5.62073">
        <ele>919.7</ele>
        <time>2021-09-07T17:07:29Z</time>
      </trkpt>
      <trkpt lat="44.37647" lon="5.62073">
        <ele>919.7</ele>
        <time>2021-09-07T17:07:30Z</time>
      </trkpt>
      <trkpt lat="44.37647" lon="5.62072">
        <ele>919.7</ele>
        <time>2021-09-07T17:07:31Z</time>
      </trkpt>
      <trkpt lat="44.37647" lon="5.62071">
        <ele>919.7</ele>
        <time>2021-09-07T17:07:32Z</time>
      </trkpt>
      <trkpt lat="44.37647" lon="5.62069">
        <ele>918.8</ele>
        <time>2021-09-07T17:07:33Z</time>
      </trkpt>
      <trkpt lat="44.37647" lon="5.62064">
        <ele>918</ele>
        <time>2021-09-07T17:07:34Z</time>
      </trkpt>
      <trkpt lat="44.37647" lon="5.62063">
        <ele>918</ele>
        <time>2021-09-07T17:07:35Z</time>
      </trkpt>
      <trkpt lat="44.37647" lon="5.62061">
        <ele>917</ele>
        <time>2021-09-07T17:07:36Z</time>
      </trkpt>
      <trkpt lat="44.37649" lon="5.62057">
        <ele>916.2</ele>
        <time>2021-09-07T17:07:37Z</time>
      </trkpt>
      <trkpt lat="44.37649" lon="5.62051">
        <ele>915.1</ele>
        <time>2021-09-07T17:07:38Z</time>
      </trkpt>
      <trkpt lat="44.37644" lon="5.62037">
        <ele>911.9</ele>
        <time>2021-09-07T17:07:39Z</time>
      </trkpt>
      <trkpt lat="44.3764" lon="5.62027">
        <ele>908.9</ele>
        <time>2021-09-07T17:07:40Z</time>
      </trkpt>
      <trkpt lat="44.37638" lon="5.62021">
        <ele>907.9</ele>
        <time>2021-09-07T17:07:41Z</time>
      </trkpt>
      <trkpt lat="44.37636" lon="5.62014">
        <ele>905.8</ele>
        <time>2021-09-07T17:07:42Z</time>
      </trkpt>
      <trkpt lat="44.37634" lon="5.62007">
        <ele>904.7</ele>
        <time>2021-09-07T17:07:43Z</time>
      </trkpt>
      <trkpt lat="44.37632" lon="5.61998">
        <ele>902.5</ele>
        <time>2021-09-07T17:07:44Z</time>
      </trkpt>
      <trkpt lat="44.3763" lon="5.61994">
        <ele>901.3</ele>
        <time>2021-09-07T17:07:45Z</time>
      </trkpt>
      <trkpt lat="44.3763" lon="5.61992">
        <ele>900.3</ele>
        <time>2021-09-07T17:07:46Z</time>
      </trkpt>
      <trkpt lat="44.3763" lon="5.6199">
        <ele>900.3</ele>
        <time>2021-09-07T17:07:47Z</time>
      </trkpt>
      <trkpt lat="44.3763" lon="5.61989">
        <ele>899.3</ele>
        <time>2021-09-07T17:07:48Z</time>
      </trkpt>
      <trkpt lat="44.37631" lon="5.61988">
        <ele>899.3</ele>
        <time>2021-09-07T17:07:49Z</time>
      </trkpt>
      <trkpt lat="44.37631" lon="5.61986">
        <ele>899.3</ele>
        <time>2021-09-07T17:07:50Z</time>
      </trkpt>
      <trkpt lat="44.37631" lon="5.61986">
        <ele>899.3</ele>
        <time>2021-09-07T17:07:51Z</time>
      </trkpt>
      <trkpt lat="44.37631" lon="5.61986">
        <ele>899.3</ele>
        <time>2021-09-07T17:07:52Z</time>
      </trkpt>
      <trkpt lat="44.37631" lon="5.61986">
        <ele>899.3</ele>
        <time>2021-09-07T17:07:53Z</time>
      </trkpt>
      <trkpt lat="44.37631" lon="5.61986">
        <ele>899.3</ele>
        <time>2021-09-07T17:07:54Z</time>
      </trkpt>
      <trkpt lat="44.37631" lon="5.61986">
        <ele>899.3</ele>
        <time>2021-09-07T17:07:55Z</time>
      </trkpt>
      <trkpt lat="44.37631" lon="5.61986">
        <ele>899.3</ele>
        <time>2021-09-07T17:07:56Z</time>
      </trkpt>
      <trkpt lat="44.37631" lon="5.61986">
        <ele>899.3</ele>
        <time>2021-09-07T17:07:57Z</time>
      </trkpt>
      <trkpt lat="44.37631" lon="5.61986">
        <ele>899.3</ele>
        <time>2021-09-07T17:07:58Z</time>
      </trkpt>
      <trkpt lat="44.37631" lon="5.61986">
        <ele>899.3</ele>
        <time>2021-09-07T17:07:59Z</time>
      </trkpt>
      <trkpt lat="44.37631" lon="5.61986">
        <ele>899.3</ele>
        <time>2021-09-07T17:08:00Z</time>
      </trkpt>
      <trkpt lat="44.37631" lon="5.61986">
        <ele>899.3</ele>
        <time>2021-09-07T17:08:01Z</time>
      </trkpt>
      <trkpt lat="44.37631" lon="5.61986">
        <ele>899.3</ele>
        <time>2021-09-07T17:08:02Z</time>
      </trkpt>
      <trkpt lat="44.37631" lon="5.61986">
        <ele>899.3</ele>
        <time>2021-09-07T17:08:03Z</time>
      </trkpt>
      <trkpt lat="44.37631" lon="5.61986">
        <ele>899.3</ele>
        <time>2021-09-07T17:08:04Z</time>
      </trkpt>
      <trkpt lat="44.37632" lon="5.61987">
        <ele>899.3</ele>
        <time>2021-09-07T17:08:05Z</time>
      </trkpt>
      <trkpt lat="44.37632" lon="5.61987">
        <ele>899.3</ele>
        <time>2021-09-07T17:08:06Z</time>
      </trkpt>
      <trkpt lat="44.37632" lon="5.61988">
        <ele>899.3</ele>
        <time>2021-09-07T17:08:07Z</time>
      </trkpt>
      <trkpt lat="44.37632" lon="5.61988">
        <ele>899.3</ele>
        <time>2021-09-07T17:08:08Z</time>
      </trkpt>
      <trkpt lat="44.37632" lon="5.61988">
        <ele>899.3</ele>
        <time>2021-09-07T17:08:09Z</time>
      </trkpt>
      <trkpt lat="44.37632" lon="5.61988">
        <ele>899.3</ele>
        <time>2021-09-07T17:08:10Z</time>
      </trkpt>
      <trkpt lat="44.37632" lon="5.61988">
        <ele>899.3</ele>
        <time>2021-09-07T17:08:11Z</time>
      </trkpt>
      <trkpt lat="44.37632" lon="5.61988">
        <ele>899.3</ele>
        <time>2021-09-07T17:08:12Z</time>
      </trkpt>
      <trkpt lat="44.37632" lon="5.61988">
        <ele>899.3</ele>
        <time>2021-09-07T17:08:13Z</time>
      </trkpt>
      <trkpt lat="44.37632" lon="5.61988">
        <ele>899.3</ele>
        <time>2021-09-07T17:08:14Z</time>
      </trkpt>
      <trkpt lat="44.37632" lon="5.61988">
        <ele>899.3</ele>
        <time>2021-09-07T17:08:15Z</time>
      </trkpt>
      <trkpt lat="44.37632" lon="5.61988">
        <ele>899.3</ele>
        <time>2021-09-07T17:08:16Z</time>
      </trkpt>
      <trkpt lat="44.37632" lon="5.61988">
        <ele>899.3</ele>
        <time>2021-09-07T17:08:17Z</time>
      </trkpt>
      <trkpt lat="44.37632" lon="5.61988">
        <ele>899.3</ele>
        <time>2021-09-07T17:08:18Z</time>
      </trkpt>
      <trkpt lat="44.37632" lon="5.61988">
        <ele>899.3</ele>
        <time>2021-09-07T17:08:19Z</time>
      </trkpt>
      <trkpt lat="44.37632" lon="5.61988">
        <ele>899.3</ele>
        <time>2021-09-07T17:08:20Z</time>
      </trkpt>
      <trkpt lat="44.37632" lon="5.61988">
        <ele>899.3</ele>
        <time>2021-09-07T17:08:21Z</time>
      </trkpt>
      <trkpt lat="44.37633" lon="5.61987">
        <ele>899.2</ele>
        <time>2021-09-07T17:08:22Z</time>
      </trkpt>
      <trkpt lat="44.37633" lon="5.61985">
        <ele>898.2</ele>
        <time>2021-09-07T17:08:23Z</time>
      </trkpt>
      <trkpt lat="44.37634" lon="5.61981">
        <ele>898.2</ele>
        <time>2021-09-07T17:08:24Z</time>
      </trkpt>
      <trkpt lat="44.37634" lon="5.61979">
        <ele>897.1</ele>
        <time>2021-09-07T17:08:25Z</time>
      </trkpt>
      <trkpt lat="44.37634" lon="5.61978">
        <ele>897.1</ele>
        <time>2021-09-07T17:08:26Z</time>
      </trkpt>
      <trkpt lat="44.37633" lon="5.61977">
        <ele>897.1</ele>
        <time>2021-09-07T17:08:27Z</time>
      </trkpt>
      <trkpt lat="44.37631" lon="5.61973">
        <ele>896.2</ele>
        <time>2021-09-07T17:08:28Z</time>
      </trkpt>
      <trkpt lat="44.37629" lon="5.61968">
        <ele>895.2</ele>
        <time>2021-09-07T17:08:29Z</time>
      </trkpt>
      <trkpt lat="44.37626" lon="5.61963">
        <ele>893</ele>
        <time>2021-09-07T17:08:30Z</time>
      </trkpt>
      <trkpt lat="44.37625" lon="5.61961">
        <ele>893</ele>
        <time>2021-09-07T17:08:31Z</time>
      </trkpt>
      <trkpt lat="44.37623" lon="5.61958">
        <ele>892</ele>
        <time>2021-09-07T17:08:32Z</time>
      </trkpt>
      <trkpt lat="44.3762" lon="5.61952">
        <ele>891.1</ele>
        <time>2021-09-07T17:08:33Z</time>
      </trkpt>
      <trkpt lat="44.37617" lon="5.61948">
        <ele>890.1</ele>
        <time>2021-09-07T17:08:34Z</time>
      </trkpt>
      <trkpt lat="44.37616" lon="5.61945">
        <ele>889</ele>
        <time>2021-09-07T17:08:35Z</time>
      </trkpt>
      <trkpt lat="44.37614" lon="5.61942">
        <ele>888</ele>
        <time>2021-09-07T17:08:36Z</time>
      </trkpt>
      <trkpt lat="44.37611" lon="5.61939">
        <ele>888</ele>
        <time>2021-09-07T17:08:37Z</time>
      </trkpt>
      <trkpt lat="44.37608" lon="5.61934">
        <ele>887.1</ele>
        <time>2021-09-07T17:08:38Z</time>
      </trkpt>
      <trkpt lat="44.37604" lon="5.61931">
        <ele>886.4</ele>
        <time>2021-09-07T17:08:39Z</time>
      </trkpt>
      <trkpt lat="44.37602" lon="5.61929">
        <ele>885.2</ele>
        <time>2021-09-07T17:08:40Z</time>
      </trkpt>
      <trkpt lat="44.376" lon="5.61927">
        <ele>885.4</ele>
        <time>2021-09-07T17:08:41Z</time>
      </trkpt>
      <trkpt lat="44.37597" lon="5.61923">
        <ele>884.5</ele>
        <time>2021-09-07T17:08:42Z</time>
      </trkpt>
      <trkpt lat="44.37593" lon="5.61919">
        <ele>883.5</ele>
        <time>2021-09-07T17:08:43Z</time>
      </trkpt>
      <trkpt lat="44.37592" lon="5.61917">
        <ele>883.7</ele>
        <time>2021-09-07T17:08:44Z</time>
      </trkpt>
      <trkpt lat="44.3759" lon="5.61915">
        <ele>882.5</ele>
        <time>2021-09-07T17:08:45Z</time>
      </trkpt>
      <trkpt lat="44.37587" lon="5.61912">
        <ele>881.6</ele>
        <time>2021-09-07T17:08:46Z</time>
      </trkpt>
      <trkpt lat="44.37585" lon="5.61909">
        <ele>881.8</ele>
        <time>2021-09-07T17:08:47Z</time>
      </trkpt>
      <trkpt lat="44.37582" lon="5.61906">
        <ele>880.9</ele>
        <time>2021-09-07T17:08:48Z</time>
      </trkpt>
      <trkpt lat="44.3758" lon="5.61903">
        <ele>879.9</ele>
        <time>2021-09-07T17:08:49Z</time>
      </trkpt>
      <trkpt lat="44.37578" lon="5.61901">
        <ele>879.9</ele>
        <time>2021-09-07T17:08:50Z</time>
      </trkpt>
      <trkpt lat="44.37576" lon="5.61898">
        <ele>879</ele>
        <time>2021-09-07T17:08:51Z</time>
      </trkpt>
      <trkpt lat="44.37575" lon="5.61894">
        <ele>878</ele>
        <time>2021-09-07T17:08:52Z</time>
      </trkpt>
      <trkpt lat="44.37575" lon="5.61893">
        <ele>878</ele>
        <time>2021-09-07T17:08:53Z</time>
      </trkpt>
      <trkpt lat="44.37574" lon="5.61892">
        <ele>878.1</ele>
        <time>2021-09-07T17:08:54Z</time>
      </trkpt>
      <trkpt lat="44.37574" lon="5.61889">
        <ele>877.2</ele>
        <time>2021-09-07T17:08:55Z</time>
      </trkpt>
      <trkpt lat="44.37574" lon="5.61886">
        <ele>876.2</ele>
        <time>2021-09-07T17:08:56Z</time>
      </trkpt>
      <trkpt lat="44.37575" lon="5.61883">
        <ele>876.1</ele>
        <time>2021-09-07T17:08:57Z</time>
      </trkpt>
      <trkpt lat="44.37576" lon="5.61881">
        <ele>875.1</ele>
        <time>2021-09-07T17:08:58Z</time>
      </trkpt>
      <trkpt lat="44.37578" lon="5.61878">
        <ele>875</ele>
        <time>2021-09-07T17:08:59Z</time>
      </trkpt>
      <trkpt lat="44.37581" lon="5.61876">
        <ele>873.9</ele>
        <time>2021-09-07T17:09:00Z</time>
      </trkpt>
      <trkpt lat="44.37584" lon="5.61874">
        <ele>873.7</ele>
        <time>2021-09-07T17:09:01Z</time>
      </trkpt>
      <trkpt lat="44.37587" lon="5.61874">
        <ele>873.5</ele>
        <time>2021-09-07T17:09:02Z</time>
      </trkpt>
      <trkpt lat="44.37589" lon="5.61873">
        <ele>872.7</ele>
        <time>2021-09-07T17:09:03Z</time>
      </trkpt>
      <trkpt lat="44.37594" lon="5.61871">
        <ele>872.3</ele>
        <time>2021-09-07T17:09:04Z</time>
      </trkpt>
      <trkpt lat="44.37598" lon="5.61871">
        <ele>872.1</ele>
        <time>2021-09-07T17:09:05Z</time>
      </trkpt>
      <trkpt lat="44.37601" lon="5.61871">
        <ele>871.9</ele>
        <time>2021-09-07T17:09:06Z</time>
      </trkpt>
      <trkpt lat="44.37604" lon="5.61871">
        <ele>871.7</ele>
        <time>2021-09-07T17:09:07Z</time>
      </trkpt>
      <trkpt lat="44.37612" lon="5.61874">
        <ele>871.9</ele>
        <time>2021-09-07T17:09:08Z</time>
      </trkpt>
      <trkpt lat="44.37616" lon="5.61874">
        <ele>871.8</ele>
        <time>2021-09-07T17:09:09Z</time>
      </trkpt>
      <trkpt lat="44.37619" lon="5.61875">
        <ele>871.7</ele>
        <time>2021-09-07T17:09:10Z</time>
      </trkpt>
      <trkpt lat="44.37622" lon="5.61875">
        <ele>871.6</ele>
        <time>2021-09-07T17:09:11Z</time>
      </trkpt>
      <trkpt lat="44.37627" lon="5.61876">
        <ele>871.4</ele>
        <time>2021-09-07T17:09:12Z</time>
      </trkpt>
      <trkpt lat="44.37631" lon="5.61876">
        <ele>871.4</ele>
        <time>2021-09-07T17:09:13Z</time>
      </trkpt>
      <trkpt lat="44.37637" lon="5.61878">
        <ele>871.6</ele>
        <time>2021-09-07T17:09:14Z</time>
      </trkpt>
      <trkpt lat="44.37642" lon="5.61879">
        <ele>872.2</ele>
        <time>2021-09-07T17:09:15Z</time>
      </trkpt>
      <trkpt lat="44.37647" lon="5.61881">
        <ele>872.4</ele>
        <time>2021-09-07T17:09:16Z</time>
      </trkpt>
      <trkpt lat="44.37651" lon="5.61883">
        <ele>873.2</ele>
        <time>2021-09-07T17:09:17Z</time>
      </trkpt>
      <trkpt lat="44.37656" lon="5.61885">
        <ele>873.4</ele>
        <time>2021-09-07T17:09:18Z</time>
      </trkpt>
      <trkpt lat="44.3766" lon="5.61887">
        <ele>874</ele>
        <time>2021-09-07T17:09:19Z</time>
      </trkpt>
      <trkpt lat="44.37665" lon="5.61889">
        <ele>874.7</ele>
        <time>2021-09-07T17:09:20Z</time>
      </trkpt>
      <trkpt lat="44.3767" lon="5.61891">
        <ele>875.7</ele>
        <time>2021-09-07T17:09:21Z</time>
      </trkpt>
      <trkpt lat="44.37678" lon="5.61896">
        <ele>876.7</ele>
        <time>2021-09-07T17:09:22Z</time>
      </trkpt>
      <trkpt lat="44.37681" lon="5.61898">
        <ele>877.1</ele>
        <time>2021-09-07T17:09:23Z</time>
      </trkpt>
      <trkpt lat="44.37683" lon="5.61899">
        <ele>877.6</ele>
        <time>2021-09-07T17:09:24Z</time>
      </trkpt>
      <trkpt lat="44.3769" lon="5.61898">
        <ele>878.6</ele>
        <time>2021-09-07T17:09:25Z</time>
      </trkpt>
      <trkpt lat="44.37693" lon="5.61896">
        <ele>879.2</ele>
        <time>2021-09-07T17:09:26Z</time>
      </trkpt>
      <trkpt lat="44.37696" lon="5.61894">
        <ele>880</ele>
        <time>2021-09-07T17:09:27Z</time>
      </trkpt>
      <trkpt lat="44.37701" lon="5.61892">
        <ele>881.5</ele>
        <time>2021-09-07T17:09:28Z</time>
      </trkpt>
      <trkpt lat="44.37704" lon="5.6189">
        <ele>882.5</ele>
        <time>2021-09-07T17:09:29Z</time>
      </trkpt>
      <trkpt lat="44.37706" lon="5.61888">
        <ele>882.5</ele>
        <time>2021-09-07T17:09:30Z</time>
      </trkpt>
      <trkpt lat="44.37707" lon="5.61887">
        <ele>883.3</ele>
        <time>2021-09-07T17:09:31Z</time>
      </trkpt>
      <trkpt lat="44.37708" lon="5.61885">
        <ele>883.7</ele>
        <time>2021-09-07T17:09:32Z</time>
      </trkpt>
      <trkpt lat="44.37709" lon="5.61882">
        <ele>884.2</ele>
        <time>2021-09-07T17:09:33Z</time>
      </trkpt>
      <trkpt lat="44.3771" lon="5.61882">
        <ele>885.1</ele>
        <time>2021-09-07T17:09:34Z</time>
      </trkpt>
      <trkpt lat="44.3771" lon="5.61881">
        <ele>885.1</ele>
        <time>2021-09-07T17:09:35Z</time>
      </trkpt>
      <trkpt lat="44.37713" lon="5.61878">
        <ele>885.9</ele>
        <time>2021-09-07T17:09:36Z</time>
      </trkpt>
      <trkpt lat="44.37713" lon="5.61875">
        <ele>886.6</ele>
        <time>2021-09-07T17:09:37Z</time>
      </trkpt>
      <trkpt lat="44.37713" lon="5.61872">
        <ele>887.4</ele>
        <time>2021-09-07T17:09:38Z</time>
      </trkpt>
      <trkpt lat="44.37712" lon="5.61862">
        <ele>888.3</ele>
        <time>2021-09-07T17:09:39Z</time>
      </trkpt>
      <trkpt lat="44.37712" lon="5.61859">
        <ele>889.4</ele>
        <time>2021-09-07T17:09:40Z</time>
      </trkpt>
      <trkpt lat="44.37711" lon="5.61856">
        <ele>890.4</ele>
        <time>2021-09-07T17:09:41Z</time>
      </trkpt>
      <trkpt lat="44.3771" lon="5.61849">
        <ele>891.5</ele>
        <time>2021-09-07T17:09:42Z</time>
      </trkpt>
      <trkpt lat="44.3771" lon="5.61844">
        <ele>892.6</ele>
        <time>2021-09-07T17:09:43Z</time>
      </trkpt>
      <trkpt lat="44.37709" lon="5.61841">
        <ele>892.7</ele>
        <time>2021-09-07T17:09:44Z</time>
      </trkpt>
      <trkpt lat="44.3771" lon="5.6184">
        <ele>893.8</ele>
        <time>2021-09-07T17:09:45Z</time>
      </trkpt>
      <trkpt lat="44.3771" lon="5.61838">
        <ele>895.1</ele>
        <time>2021-09-07T17:09:46Z</time>
      </trkpt>
      <trkpt lat="44.37711" lon="5.61837">
        <ele>895.1</ele>
        <time>2021-09-07T17:09:47Z</time>
      </trkpt>
      <trkpt lat="44.37712" lon="5.61836">
        <ele>895.1</ele>
        <time>2021-09-07T17:09:48Z</time>
      </trkpt>
      <trkpt lat="44.37712" lon="5.61836">
        <ele>895.1</ele>
        <time>2021-09-07T17:09:49Z</time>
      </trkpt>
      <trkpt lat="44.37713" lon="5.61836">
        <ele>896.2</ele>
        <time>2021-09-07T17:09:50Z</time>
      </trkpt>
      <trkpt lat="44.37713" lon="5.61836">
        <ele>896.2</ele>
        <time>2021-09-07T17:09:51Z</time>
      </trkpt>
      <trkpt lat="44.37714" lon="5.61837">
        <ele>896.2</ele>
        <time>2021-09-07T17:09:52Z</time>
      </trkpt>
      <trkpt lat="44.37715" lon="5.61838">
        <ele>896.2</ele>
        <time>2021-09-07T17:09:53Z</time>
      </trkpt>
      <trkpt lat="44.37715" lon="5.61838">
        <ele>896.2</ele>
        <time>2021-09-07T17:09:54Z</time>
      </trkpt>
      <trkpt lat="44.37716" lon="5.61839">
        <ele>897.3</ele>
        <time>2021-09-07T17:09:55Z</time>
      </trkpt>
      <trkpt lat="44.37717" lon="5.61839">
        <ele>897.3</ele>
        <time>2021-09-07T17:09:56Z</time>
      </trkpt>
      <trkpt lat="44.37717" lon="5.61839">
        <ele>897.3</ele>
        <time>2021-09-07T17:09:57Z</time>
      </trkpt>
      <trkpt lat="44.37719" lon="5.61839">
        <ele>898.5</ele>
        <time>2021-09-07T17:09:58Z</time>
      </trkpt>
      <trkpt lat="44.37721" lon="5.61839">
        <ele>898.5</ele>
        <time>2021-09-07T17:09:59Z</time>
      </trkpt>
      <trkpt lat="44.37722" lon="5.61839">
        <ele>899.8</ele>
        <time>2021-09-07T17:10:00Z</time>
      </trkpt>
      <trkpt lat="44.37723" lon="5.61839">
        <ele>899.8</ele>
        <time>2021-09-07T17:10:01Z</time>
      </trkpt>
      <trkpt lat="44.37724" lon="5.61839">
        <ele>899.8</ele>
        <time>2021-09-07T17:10:02Z</time>
      </trkpt>
      <trkpt lat="44.37725" lon="5.6184">
        <ele>899.9</ele>
        <time>2021-09-07T17:10:03Z</time>
      </trkpt>
      <trkpt lat="44.37726" lon="5.6184">
        <ele>899.9</ele>
        <time>2021-09-07T17:10:04Z</time>
      </trkpt>
      <trkpt lat="44.37727" lon="5.61839">
        <ele>901.1</ele>
        <time>2021-09-07T17:10:05Z</time>
      </trkpt>
      <trkpt lat="44.37728" lon="5.61837">
        <ele>902.4</ele>
        <time>2021-09-07T17:10:06Z</time>
      </trkpt>
      <trkpt lat="44.37729" lon="5.61835">
        <ele>902.4</ele>
        <time>2021-09-07T17:10:07Z</time>
      </trkpt>
      <trkpt lat="44.37729" lon="5.61832">
        <ele>903.8</ele>
        <time>2021-09-07T17:10:08Z</time>
      </trkpt>
      <trkpt lat="44.3773" lon="5.6183">
        <ele>905.1</ele>
        <time>2021-09-07T17:10:09Z</time>
      </trkpt>
      <trkpt lat="44.3773" lon="5.61828">
        <ele>905.1</ele>
        <time>2021-09-07T17:10:10Z</time>
      </trkpt>
      <trkpt lat="44.3773" lon="5.61827">
        <ele>905.1</ele>
        <time>2021-09-07T17:10:11Z</time>
      </trkpt>
      <trkpt lat="44.3773" lon="5.61827">
        <ele>905.1</ele>
        <time>2021-09-07T17:10:12Z</time>
      </trkpt>
      <trkpt lat="44.3773" lon="5.61826">
        <ele>906.5</ele>
        <time>2021-09-07T17:10:13Z</time>
      </trkpt>
      <trkpt lat="44.37729" lon="5.61825">
        <ele>906.5</ele>
        <time>2021-09-07T17:10:14Z</time>
      </trkpt>
      <trkpt lat="44.37729" lon="5.61824">
        <ele>906.5</ele>
        <time>2021-09-07T17:10:15Z</time>
      </trkpt>
      <trkpt lat="44.37729" lon="5.61823">
        <ele>906.5</ele>
        <time>2021-09-07T17:10:16Z</time>
      </trkpt>
      <trkpt lat="44.37728" lon="5.61822">
        <ele>906.5</ele>
        <time>2021-09-07T17:10:17Z</time>
      </trkpt>
      <trkpt lat="44.37727" lon="5.6182">
        <ele>906.5</ele>
        <time>2021-09-07T17:10:18Z</time>
      </trkpt>
      <trkpt lat="44.37726" lon="5.61819">
        <ele>906.5</ele>
        <time>2021-09-07T17:10:19Z</time>
      </trkpt>
      <trkpt lat="44.37725" lon="5.61817">
        <ele>907.8</ele>
        <time>2021-09-07T17:10:20Z</time>
      </trkpt>
      <trkpt lat="44.37725" lon="5.61817">
        <ele>907.8</ele>
        <time>2021-09-07T17:10:21Z</time>
      </trkpt>
      <trkpt lat="44.37725" lon="5.61817">
        <ele>907.8</ele>
        <time>2021-09-07T17:10:22Z</time>
      </trkpt>
      <trkpt lat="44.37724" lon="5.61816">
        <ele>906.4</ele>
        <time>2021-09-07T17:10:23Z</time>
      </trkpt>
      <trkpt lat="44.37724" lon="5.61816">
        <ele>906.4</ele>
        <time>2021-09-07T17:10:24Z</time>
      </trkpt>
      <trkpt lat="44.37724" lon="5.61816">
        <ele>906.4</ele>
        <time>2021-09-07T17:10:25Z</time>
      </trkpt>
      <trkpt lat="44.37724" lon="5.61816">
        <ele>906.4</ele>
        <time>2021-09-07T17:10:26Z</time>
      </trkpt>
      <trkpt lat="44.37724" lon="5.61816">
        <ele>906.4</ele>
        <time>2021-09-07T17:10:27Z</time>
      </trkpt>
      <trkpt lat="44.37724" lon="5.61815">
        <ele>906.4</ele>
        <time>2021-09-07T17:10:28Z</time>
      </trkpt>
      <trkpt lat="44.37724" lon="5.61815">
        <ele>906.4</ele>
        <time>2021-09-07T17:10:29Z</time>
      </trkpt>
      <trkpt lat="44.37723" lon="5.61815">
        <ele>906.4</ele>
        <time>2021-09-07T17:10:30Z</time>
      </trkpt>
      <trkpt lat="44.37723" lon="5.61815">
        <ele>906.4</ele>
        <time>2021-09-07T17:10:31Z</time>
      </trkpt>
      <trkpt lat="44.37723" lon="5.61815">
        <ele>906.4</ele>
        <time>2021-09-07T17:10:32Z</time>
      </trkpt>
      <trkpt lat="44.37723" lon="5.61815">
        <ele>906.4</ele>
        <time>2021-09-07T17:10:33Z</time>
      </trkpt>
      <trkpt lat="44.37723" lon="5.61815">
        <ele>906.4</ele>
        <time>2021-09-07T17:10:34Z</time>
      </trkpt>
      <trkpt lat="44.37723" lon="5.61815">
        <ele>906.4</ele>
        <time>2021-09-07T17:10:35Z</time>
      </trkpt>
      <trkpt lat="44.37723" lon="5.61815">
        <ele>906.4</ele>
        <time>2021-09-07T17:10:36Z</time>
      </trkpt>
      <trkpt lat="44.37723" lon="5.61815">
        <ele>906.4</ele>
        <time>2021-09-07T17:10:37Z</time>
      </trkpt>
      <trkpt lat="44.37722" lon="5.61815">
        <ele>906.4</ele>
        <time>2021-09-07T17:10:38Z</time>
      </trkpt>
      <trkpt lat="44.37722" lon="5.61815">
        <ele>906.4</ele>
        <time>2021-09-07T17:10:39Z</time>
      </trkpt>
      <trkpt lat="44.37722" lon="5.61815">
        <ele>906.4</ele>
        <time>2021-09-07T17:10:40Z</time>
      </trkpt>
      <trkpt lat="44.37722" lon="5.61814">
        <ele>906.4</ele>
        <time>2021-09-07T17:10:41Z</time>
      </trkpt>
      <trkpt lat="44.37721" lon="5.61812">
        <ele>906.4</ele>
        <time>2021-09-07T17:10:42Z</time>
      </trkpt>
      <trkpt lat="44.3772" lon="5.61811">
        <ele>906.4</ele>
        <time>2021-09-07T17:10:43Z</time>
      </trkpt>
      <trkpt lat="44.3772" lon="5.6181">
        <ele>906.4</ele>
        <time>2021-09-07T17:10:44Z</time>
      </trkpt>
      <trkpt lat="44.37719" lon="5.61809">
        <ele>907.6</ele>
        <time>2021-09-07T17:10:45Z</time>
      </trkpt>
      <trkpt lat="44.37718" lon="5.61807">
        <ele>906.4</ele>
        <time>2021-09-07T17:10:46Z</time>
      </trkpt>
      <trkpt lat="44.37717" lon="5.61805">
        <ele>906.4</ele>
        <time>2021-09-07T17:10:47Z</time>
      </trkpt>
      <trkpt lat="44.37717" lon="5.61804">
        <ele>907.5</ele>
        <time>2021-09-07T17:10:48Z</time>
      </trkpt>
      <trkpt lat="44.37716" lon="5.61803">
        <ele>907.5</ele>
        <time>2021-09-07T17:10:49Z</time>
      </trkpt>
      <trkpt lat="44.37716" lon="5.61803">
        <ele>907.5</ele>
        <time>2021-09-07T17:10:50Z</time>
      </trkpt>
      <trkpt lat="44.37716" lon="5.61802">
        <ele>907.5</ele>
        <time>2021-09-07T17:10:51Z</time>
      </trkpt>
      <trkpt lat="44.37716" lon="5.61802">
        <ele>907.5</ele>
        <time>2021-09-07T17:10:52Z</time>
      </trkpt>
      <trkpt lat="44.37715" lon="5.61802">
        <ele>906.4</ele>
        <time>2021-09-07T17:10:53Z</time>
      </trkpt>
      <trkpt lat="44.37715" lon="5.61801">
        <ele>906.4</ele>
        <time>2021-09-07T17:10:54Z</time>
      </trkpt>
      <trkpt lat="44.37714" lon="5.618">
        <ele>907.5</ele>
        <time>2021-09-07T17:10:55Z</time>
      </trkpt>
      <trkpt lat="44.37711" lon="5.61798">
        <ele>906.4</ele>
        <time>2021-09-07T17:10:56Z</time>
      </trkpt>
      <trkpt lat="44.37711" lon="5.61798">
        <ele>906.4</ele>
        <time>2021-09-07T17:10:57Z</time>
      </trkpt>
      <trkpt lat="44.3771" lon="5.61797">
        <ele>906.4</ele>
        <time>2021-09-07T17:10:58Z</time>
      </trkpt>
      <trkpt lat="44.37708" lon="5.61796">
        <ele>906.4</ele>
        <time>2021-09-07T17:10:59Z</time>
      </trkpt>
      <trkpt lat="44.37708" lon="5.61796">
        <ele>906.4</ele>
        <time>2021-09-07T17:11:00Z</time>
      </trkpt>
      <trkpt lat="44.37707" lon="5.61795">
        <ele>906.4</ele>
        <time>2021-09-07T17:11:01Z</time>
      </trkpt>
      <trkpt lat="44.37707" lon="5.61794">
        <ele>906.4</ele>
        <time>2021-09-07T17:11:02Z</time>
      </trkpt>
      <trkpt lat="44.37705" lon="5.61792">
        <ele>905.2</ele>
        <time>2021-09-07T17:11:03Z</time>
      </trkpt>
      <trkpt lat="44.37705" lon="5.61792">
        <ele>906.3</ele>
        <time>2021-09-07T17:11:04Z</time>
      </trkpt>
      <trkpt lat="44.37704" lon="5.61791">
        <ele>906.3</ele>
        <time>2021-09-07T17:11:05Z</time>
      </trkpt>
      <trkpt lat="44.37702" lon="5.61789">
        <ele>905.1</ele>
        <time>2021-09-07T17:11:06Z</time>
      </trkpt>
      <trkpt lat="44.37701" lon="5.61788">
        <ele>905.1</ele>
        <time>2021-09-07T17:11:07Z</time>
      </trkpt>
      <trkpt lat="44.37701" lon="5.61788">
        <ele>906.3</ele>
        <time>2021-09-07T17:11:08Z</time>
      </trkpt>
      <trkpt lat="44.377" lon="5.61787">
        <ele>906.3</ele>
        <time>2021-09-07T17:11:09Z</time>
      </trkpt>
      <trkpt lat="44.37699" lon="5.61786">
        <ele>905</ele>
        <time>2021-09-07T17:11:10Z</time>
      </trkpt>
      <trkpt lat="44.37699" lon="5.61786">
        <ele>905</ele>
        <time>2021-09-07T17:11:11Z</time>
      </trkpt>
      <trkpt lat="44.37699" lon="5.61786">
        <ele>905</ele>
        <time>2021-09-07T17:11:12Z</time>
      </trkpt>
      <trkpt lat="44.37699" lon="5.61786">
        <ele>905</ele>
        <time>2021-09-07T17:11:13Z</time>
      </trkpt>
      <trkpt lat="44.37698" lon="5.61785">
        <ele>905</ele>
        <time>2021-09-07T17:11:14Z</time>
      </trkpt>
      <trkpt lat="44.37698" lon="5.61785">
        <ele>905</ele>
        <time>2021-09-07T17:11:15Z</time>
      </trkpt>
      <trkpt lat="44.37698" lon="5.61785">
        <ele>905</ele>
        <time>2021-09-07T17:11:16Z</time>
      </trkpt>
      <trkpt lat="44.37698" lon="5.61785">
        <ele>905</ele>
        <time>2021-09-07T17:11:17Z</time>
      </trkpt>
      <trkpt lat="44.37698" lon="5.61785">
        <ele>905</ele>
        <time>2021-09-07T17:11:18Z</time>
      </trkpt>
      <trkpt lat="44.37698" lon="5.61784">
        <ele>905</ele>
        <time>2021-09-07T17:11:19Z</time>
      </trkpt>
      <trkpt lat="44.37697" lon="5.61782">
        <ele>906.2</ele>
        <time>2021-09-07T17:11:20Z</time>
      </trkpt>
      <trkpt lat="44.37697" lon="5.61781">
        <ele>905</ele>
        <time>2021-09-07T17:11:21Z</time>
      </trkpt>
      <trkpt lat="44.37696" lon="5.6178">
        <ele>905</ele>
        <time>2021-09-07T17:11:22Z</time>
      </trkpt>
      <trkpt lat="44.37696" lon="5.61779">
        <ele>906.2</ele>
        <time>2021-09-07T17:11:23Z</time>
      </trkpt>
      <trkpt lat="44.37695" lon="5.61778">
        <ele>906.2</ele>
        <time>2021-09-07T17:11:24Z</time>
      </trkpt>
      <trkpt lat="44.37695" lon="5.61777">
        <ele>906.2</ele>
        <time>2021-09-07T17:11:25Z</time>
      </trkpt>
      <trkpt lat="44.37694" lon="5.61777">
        <ele>906.2</ele>
        <time>2021-09-07T17:11:26Z</time>
      </trkpt>
      <trkpt lat="44.37694" lon="5.61776">
        <ele>906.2</ele>
        <time>2021-09-07T17:11:27Z</time>
      </trkpt>
      <trkpt lat="44.37694" lon="5.61776">
        <ele>906.2</ele>
        <time>2021-09-07T17:11:28Z</time>
      </trkpt>
      <trkpt lat="44.37694" lon="5.61775">
        <ele>906.2</ele>
        <time>2021-09-07T17:11:29Z</time>
      </trkpt>
      <trkpt lat="44.37694" lon="5.61775">
        <ele>905</ele>
        <time>2021-09-07T17:11:30Z</time>
      </trkpt>
      <trkpt lat="44.37693" lon="5.61775">
        <ele>905</ele>
        <time>2021-09-07T17:11:31Z</time>
      </trkpt>
      <trkpt lat="44.37693" lon="5.61774">
        <ele>906.2</ele>
        <time>2021-09-07T17:11:32Z</time>
      </trkpt>
      <trkpt lat="44.37693" lon="5.61774">
        <ele>906.2</ele>
        <time>2021-09-07T17:11:33Z</time>
      </trkpt>
      <trkpt lat="44.37693" lon="5.61774">
        <ele>906.2</ele>
        <time>2021-09-07T17:11:34Z</time>
      </trkpt>
      <trkpt lat="44.37693" lon="5.61774">
        <ele>906.2</ele>
        <time>2021-09-07T17:11:35Z</time>
      </trkpt>
      <trkpt lat="44.37693" lon="5.61774">
        <ele>906.2</ele>
        <time>2021-09-07T17:11:36Z</time>
      </trkpt>
      <trkpt lat="44.37693" lon="5.61773">
        <ele>906.2</ele>
        <time>2021-09-07T17:11:37Z</time>
      </trkpt>
      <trkpt lat="44.37692" lon="5.61773">
        <ele>906.2</ele>
        <time>2021-09-07T17:11:38Z</time>
      </trkpt>
      <trkpt lat="44.37692" lon="5.61773">
        <ele>906.2</ele>
        <time>2021-09-07T17:11:39Z</time>
      </trkpt>
      <trkpt lat="44.37692" lon="5.61773">
        <ele>906.2</ele>
        <time>2021-09-07T17:11:40Z</time>
      </trkpt>
      <trkpt lat="44.37692" lon="5.61773">
        <ele>906.2</ele>
        <time>2021-09-07T17:11:41Z</time>
      </trkpt>
      <trkpt lat="44.37692" lon="5.61773">
        <ele>906.2</ele>
        <time>2021-09-07T17:11:42Z</time>
      </trkpt>
      <trkpt lat="44.37692" lon="5.61773">
        <ele>906.2</ele>
        <time>2021-09-07T17:11:43Z</time>
      </trkpt>
      <trkpt lat="44.37692" lon="5.61773">
        <ele>906.2</ele>
        <time>2021-09-07T17:11:44Z</time>
      </trkpt>
      <trkpt lat="44.37692" lon="5.61773">
        <ele>906.2</ele>
        <time>2021-09-07T17:11:45Z</time>
      </trkpt>
      <trkpt lat="44.37692" lon="5.61773">
        <ele>906.2</ele>
        <time>2021-09-07T17:11:46Z</time>
      </trkpt>
      <trkpt lat="44.37692" lon="5.61773">
        <ele>906.2</ele>
        <time>2021-09-07T17:11:47Z</time>
      </trkpt>
      <trkpt lat="44.37692" lon="5.61773">
        <ele>906.2</ele>
        <time>2021-09-07T17:11:48Z</time>
      </trkpt>
      <trkpt lat="44.37692" lon="5.61773">
        <ele>906.2</ele>
        <time>2021-09-07T17:11:49Z</time>
      </trkpt>
      <trkpt lat="44.37692" lon="5.61771">
        <ele>906.2</ele>
        <time>2021-09-07T17:11:50Z</time>
      </trkpt>
      <trkpt lat="44.37691" lon="5.6177">
        <ele>907.4</ele>
        <time>2021-09-07T17:11:51Z</time>
      </trkpt>
      <trkpt lat="44.3769" lon="5.61768">
        <ele>906.2</ele>
        <time>2021-09-07T17:11:52Z</time>
      </trkpt>
      <trkpt lat="44.3769" lon="5.61767">
        <ele>906.2</ele>
        <time>2021-09-07T17:11:53Z</time>
      </trkpt>
      <trkpt lat="44.37689" lon="5.61765">
        <ele>907.4</ele>
        <time>2021-09-07T17:11:54Z</time>
      </trkpt>
      <trkpt lat="44.37689" lon="5.61764">
        <ele>907.4</ele>
        <time>2021-09-07T17:11:55Z</time>
      </trkpt>
      <trkpt lat="44.37688" lon="5.61762">
        <ele>907.4</ele>
        <time>2021-09-07T17:11:56Z</time>
      </trkpt>
      <trkpt lat="44.37688" lon="5.61762">
        <ele>908.5</ele>
        <time>2021-09-07T17:11:57Z</time>
      </trkpt>
      <trkpt lat="44.37688" lon="5.61761">
        <ele>908.5</ele>
        <time>2021-09-07T17:11:58Z</time>
      </trkpt>
      <trkpt lat="44.37688" lon="5.61761">
        <ele>908.5</ele>
        <time>2021-09-07T17:11:59Z</time>
      </trkpt>
      <trkpt lat="44.37688" lon="5.6176">
        <ele>908.5</ele>
        <time>2021-09-07T17:12:00Z</time>
      </trkpt>
      <trkpt lat="44.37688" lon="5.6176">
        <ele>908.5</ele>
        <time>2021-09-07T17:12:01Z</time>
      </trkpt>
      <trkpt lat="44.37688" lon="5.6176">
        <ele>908.5</ele>
        <time>2021-09-07T17:12:02Z</time>
      </trkpt>
      <trkpt lat="44.37688" lon="5.6176">
        <ele>907.3</ele>
        <time>2021-09-07T17:12:03Z</time>
      </trkpt>
      <trkpt lat="44.37687" lon="5.61759">
        <ele>907.3</ele>
        <time>2021-09-07T17:12:04Z</time>
      </trkpt>
      <trkpt lat="44.37687" lon="5.61759">
        <ele>907.3</ele>
        <time>2021-09-07T17:12:05Z</time>
      </trkpt>
      <trkpt lat="44.37688" lon="5.61759">
        <ele>908.5</ele>
        <time>2021-09-07T17:12:06Z</time>
      </trkpt>
      <trkpt lat="44.37688" lon="5.61759">
        <ele>908.5</ele>
        <time>2021-09-07T17:12:07Z</time>
      </trkpt>
      <trkpt lat="44.37688" lon="5.61759">
        <ele>908.5</ele>
        <time>2021-09-07T17:12:08Z</time>
      </trkpt>
      <trkpt lat="44.37688" lon="5.61759">
        <ele>908.5</ele>
        <time>2021-09-07T17:12:09Z</time>
      </trkpt>
      <trkpt lat="44.37688" lon="5.61759">
        <ele>908.5</ele>
        <time>2021-09-07T17:12:10Z</time>
      </trkpt>
      <trkpt lat="44.37688" lon="5.61758">
        <ele>908.5</ele>
        <time>2021-09-07T17:12:11Z</time>
      </trkpt>
      <trkpt lat="44.37688" lon="5.61758">
        <ele>908.5</ele>
        <time>2021-09-07T17:12:12Z</time>
      </trkpt>
      <trkpt lat="44.37688" lon="5.61758">
        <ele>908.5</ele>
        <time>2021-09-07T17:12:13Z</time>
      </trkpt>
      <trkpt lat="44.37688" lon="5.61758">
        <ele>908.5</ele>
        <time>2021-09-07T17:12:14Z</time>
      </trkpt>
      <trkpt lat="44.37688" lon="5.61758">
        <ele>908.5</ele>
        <time>2021-09-07T17:12:15Z</time>
      </trkpt>
      <trkpt lat="44.37687" lon="5.61757">
        <ele>908.4</ele>
        <time>2021-09-07T17:12:16Z</time>
      </trkpt>
      <trkpt lat="44.37687" lon="5.61757">
        <ele>908.4</ele>
        <time>2021-09-07T17:12:17Z</time>
      </trkpt>
      <trkpt lat="44.37686" lon="5.61756">
        <ele>908.4</ele>
        <time>2021-09-07T17:12:18Z</time>
      </trkpt>
      <trkpt lat="44.37686" lon="5.61755">
        <ele>908.4</ele>
        <time>2021-09-07T17:12:19Z</time>
      </trkpt>
      <trkpt lat="44.37685" lon="5.61754">
        <ele>908.4</ele>
        <time>2021-09-07T17:12:20Z</time>
      </trkpt>
      <trkpt lat="44.37685" lon="5.61753">
        <ele>908.4</ele>
        <time>2021-09-07T17:12:21Z</time>
      </trkpt>
      <trkpt lat="44.37684" lon="5.61752">
        <ele>908.4</ele>
        <time>2021-09-07T17:12:22Z</time>
      </trkpt>
      <trkpt lat="44.37683" lon="5.6175">
        <ele>908.4</ele>
        <time>2021-09-07T17:12:23Z</time>
      </trkpt>
      <trkpt lat="44.37683" lon="5.61749">
        <ele>908.4</ele>
        <time>2021-09-07T17:12:24Z</time>
      </trkpt>
      <trkpt lat="44.37683" lon="5.61749">
        <ele>909.6</ele>
        <time>2021-09-07T17:12:25Z</time>
      </trkpt>
      <trkpt lat="44.37682" lon="5.61748">
        <ele>909.6</ele>
        <time>2021-09-07T17:12:26Z</time>
      </trkpt>
      <trkpt lat="44.37682" lon="5.61748">
        <ele>909.6</ele>
        <time>2021-09-07T17:12:27Z</time>
      </trkpt>
      <trkpt lat="44.37682" lon="5.61748">
        <ele>909.6</ele>
        <time>2021-09-07T17:12:28Z</time>
      </trkpt>
      <trkpt lat="44.37682" lon="5.61748">
        <ele>909.6</ele>
        <time>2021-09-07T17:12:29Z</time>
      </trkpt>
      <trkpt lat="44.37682" lon="5.61749">
        <ele>908.4</ele>
        <time>2021-09-07T17:12:30Z</time>
      </trkpt>
      <trkpt lat="44.37682" lon="5.61748">
        <ele>909.6</ele>
        <time>2021-09-07T17:12:31Z</time>
      </trkpt>
      <trkpt lat="44.37682" lon="5.61748">
        <ele>909.6</ele>
        <time>2021-09-07T17:12:32Z</time>
      </trkpt>
      <trkpt lat="44.37682" lon="5.61748">
        <ele>909.6</ele>
        <time>2021-09-07T17:12:33Z</time>
      </trkpt>
      <trkpt lat="44.37682" lon="5.61748">
        <ele>909.6</ele>
        <time>2021-09-07T17:12:34Z</time>
      </trkpt>
      <trkpt lat="44.37682" lon="5.61747">
        <ele>909.6</ele>
        <time>2021-09-07T17:12:35Z</time>
      </trkpt>
      <trkpt lat="44.37682" lon="5.61747">
        <ele>909.6</ele>
        <time>2021-09-07T17:12:36Z</time>
      </trkpt>
      <trkpt lat="44.37682" lon="5.61747">
        <ele>908.5</ele>
        <time>2021-09-07T17:12:37Z</time>
      </trkpt>
      <trkpt lat="44.37681" lon="5.61746">
        <ele>908.5</ele>
        <time>2021-09-07T17:12:38Z</time>
      </trkpt>
      <trkpt lat="44.3768" lon="5.61745">
        <ele>908.5</ele>
        <time>2021-09-07T17:12:39Z</time>
      </trkpt>
      <trkpt lat="44.3768" lon="5.61744">
        <ele>909.7</ele>
        <time>2021-09-07T17:12:40Z</time>
      </trkpt>
      <trkpt lat="44.37679" lon="5.61743">
        <ele>909.7</ele>
        <time>2021-09-07T17:12:41Z</time>
      </trkpt>
      <trkpt lat="44.37679" lon="5.61743">
        <ele>909.7</ele>
        <time>2021-09-07T17:12:42Z</time>
      </trkpt>
      <trkpt lat="44.37678" lon="5.61742">
        <ele>908.6</ele>
        <time>2021-09-07T17:12:43Z</time>
      </trkpt>
      <trkpt lat="44.37677" lon="5.61741">
        <ele>908.6</ele>
        <time>2021-09-07T17:12:44Z</time>
      </trkpt>
      <trkpt lat="44.37677" lon="5.6174">
        <ele>909.8</ele>
        <time>2021-09-07T17:12:45Z</time>
      </trkpt>
      <trkpt lat="44.37676" lon="5.6174">
        <ele>909.8</ele>
        <time>2021-09-07T17:12:46Z</time>
      </trkpt>
      <trkpt lat="44.37676" lon="5.6174">
        <ele>909.8</ele>
        <time>2021-09-07T17:12:47Z</time>
      </trkpt>
      <trkpt lat="44.37676" lon="5.61739">
        <ele>909.8</ele>
        <time>2021-09-07T17:12:48Z</time>
      </trkpt>
      <trkpt lat="44.37675" lon="5.61739">
        <ele>908.7</ele>
        <time>2021-09-07T17:12:49Z</time>
      </trkpt>
      <trkpt lat="44.37675" lon="5.61739">
        <ele>908.7</ele>
        <time>2021-09-07T17:12:50Z</time>
      </trkpt>
      <trkpt lat="44.37675" lon="5.61739">
        <ele>908.7</ele>
        <time>2021-09-07T17:12:51Z</time>
      </trkpt>
      <trkpt lat="44.37674" lon="5.61738">
        <ele>908.7</ele>
        <time>2021-09-07T17:12:52Z</time>
      </trkpt>
      <trkpt lat="44.37674" lon="5.61737">
        <ele>908.7</ele>
        <time>2021-09-07T17:12:53Z</time>
      </trkpt>
      <trkpt lat="44.37673" lon="5.61736">
        <ele>909.8</ele>
        <time>2021-09-07T17:12:54Z</time>
      </trkpt>
      <trkpt lat="44.37672" lon="5.61734">
        <ele>908.7</ele>
        <time>2021-09-07T17:12:55Z</time>
      </trkpt>
      <trkpt lat="44.37671" lon="5.61732">
        <ele>908.7</ele>
        <time>2021-09-07T17:12:56Z</time>
      </trkpt>
      <trkpt lat="44.3767" lon="5.6173">
        <ele>909.8</ele>
        <time>2021-09-07T17:12:57Z</time>
      </trkpt>
      <trkpt lat="44.3767" lon="5.6173">
        <ele>909.8</ele>
        <time>2021-09-07T17:12:58Z</time>
      </trkpt>
      <trkpt lat="44.3767" lon="5.6173">
        <ele>909.8</ele>
        <time>2021-09-07T17:12:59Z</time>
      </trkpt>
      <trkpt lat="44.37669" lon="5.61729">
        <ele>908.6</ele>
        <time>2021-09-07T17:13:00Z</time>
      </trkpt>
      <trkpt lat="44.37669" lon="5.61729">
        <ele>908.6</ele>
        <time>2021-09-07T17:13:01Z</time>
      </trkpt>
      <trkpt lat="44.37669" lon="5.61729">
        <ele>908.6</ele>
        <time>2021-09-07T17:13:02Z</time>
      </trkpt>
      <trkpt lat="44.37668" lon="5.61728">
        <ele>908.6</ele>
        <time>2021-09-07T17:13:03Z</time>
      </trkpt>
      <trkpt lat="44.37668" lon="5.61728">
        <ele>908.6</ele>
        <time>2021-09-07T17:13:04Z</time>
      </trkpt>
      <trkpt lat="44.37667" lon="5.61727">
        <ele>909.7</ele>
        <time>2021-09-07T17:13:05Z</time>
      </trkpt>
      <trkpt lat="44.37666" lon="5.61725">
        <ele>908.5</ele>
        <time>2021-09-07T17:13:06Z</time>
      </trkpt>
      <trkpt lat="44.37666" lon="5.61723">
        <ele>909.5</ele>
        <time>2021-09-07T17:13:07Z</time>
      </trkpt>
      <trkpt lat="44.37665" lon="5.61721">
        <ele>909.5</ele>
        <time>2021-09-07T17:13:08Z</time>
      </trkpt>
      <trkpt lat="44.37663" lon="5.61718">
        <ele>909.3</ele>
        <time>2021-09-07T17:13:09Z</time>
      </trkpt>
      <trkpt lat="44.37662" lon="5.61716">
        <ele>909.3</ele>
        <time>2021-09-07T17:13:10Z</time>
      </trkpt>
      <trkpt lat="44.37661" lon="5.61714">
        <ele>910.2</ele>
        <time>2021-09-07T17:13:11Z</time>
      </trkpt>
      <trkpt lat="44.37661" lon="5.61714">
        <ele>910.2</ele>
        <time>2021-09-07T17:13:12Z</time>
      </trkpt>
      <trkpt lat="44.3766" lon="5.61713">
        <ele>909.1</ele>
        <time>2021-09-07T17:13:13Z</time>
      </trkpt>
      <trkpt lat="44.37659" lon="5.61712">
        <ele>909.1</ele>
        <time>2021-09-07T17:13:14Z</time>
      </trkpt>
      <trkpt lat="44.37658" lon="5.6171">
        <ele>910</ele>
        <time>2021-09-07T17:13:15Z</time>
      </trkpt>
      <trkpt lat="44.37657" lon="5.61709">
        <ele>910</ele>
        <time>2021-09-07T17:13:16Z</time>
      </trkpt>
      <trkpt lat="44.37656" lon="5.61708">
        <ele>909</ele>
        <time>2021-09-07T17:13:17Z</time>
      </trkpt>
      <trkpt lat="44.37655" lon="5.61707">
        <ele>909</ele>
        <time>2021-09-07T17:13:18Z</time>
      </trkpt>
      <trkpt lat="44.37654" lon="5.61707">
        <ele>909</ele>
        <time>2021-09-07T17:13:19Z</time>
      </trkpt>
      <trkpt lat="44.37654" lon="5.61707">
        <ele>909</ele>
        <time>2021-09-07T17:13:20Z</time>
      </trkpt>
      <trkpt lat="44.37654" lon="5.61707">
        <ele>909</ele>
        <time>2021-09-07T17:13:21Z</time>
      </trkpt>
      <trkpt lat="44.37654" lon="5.61707">
        <ele>909</ele>
        <time>2021-09-07T17:13:22Z</time>
      </trkpt>
      <trkpt lat="44.37654" lon="5.61707">
        <ele>909</ele>
        <time>2021-09-07T17:13:23Z</time>
      </trkpt>
      <trkpt lat="44.37653" lon="5.61707">
        <ele>908</ele>
        <time>2021-09-07T17:13:24Z</time>
      </trkpt>
      <trkpt lat="44.37653" lon="5.61707">
        <ele>908</ele>
        <time>2021-09-07T17:13:25Z</time>
      </trkpt>
      <trkpt lat="44.37653" lon="5.61707">
        <ele>908</ele>
        <time>2021-09-07T17:13:26Z</time>
      </trkpt>
      <trkpt lat="44.37653" lon="5.61707">
        <ele>908</ele>
        <time>2021-09-07T17:13:27Z</time>
      </trkpt>
      <trkpt lat="44.37653" lon="5.61707">
        <ele>908</ele>
        <time>2021-09-07T17:13:28Z</time>
      </trkpt>
      <trkpt lat="44.37653" lon="5.61707">
        <ele>908</ele>
        <time>2021-09-07T17:13:29Z</time>
      </trkpt>
      <trkpt lat="44.37653" lon="5.61707">
        <ele>908</ele>
        <time>2021-09-07T17:13:30Z</time>
      </trkpt>
      <trkpt lat="44.37653" lon="5.61707">
        <ele>908</ele>
        <time>2021-09-07T17:13:31Z</time>
      </trkpt>
      <trkpt lat="44.37653" lon="5.61706">
        <ele>909</ele>
        <time>2021-09-07T17:13:32Z</time>
      </trkpt>
      <trkpt lat="44.37653" lon="5.61706">
        <ele>909</ele>
        <time>2021-09-07T17:13:33Z</time>
      </trkpt>
      <trkpt lat="44.37653" lon="5.61706">
        <ele>909</ele>
        <time>2021-09-07T17:13:34Z</time>
      </trkpt>
      <trkpt lat="44.37653" lon="5.61706">
        <ele>909</ele>
        <time>2021-09-07T17:13:35Z</time>
      </trkpt>
      <trkpt lat="44.37653" lon="5.61706">
        <ele>909</ele>
        <time>2021-09-07T17:13:36Z</time>
      </trkpt>
      <trkpt lat="44.37653" lon="5.61706">
        <ele>909</ele>
        <time>2021-09-07T17:13:37Z</time>
      </trkpt>
      <trkpt lat="44.37653" lon="5.61706">
        <ele>909</ele>
        <time>2021-09-07T17:13:38Z</time>
      </trkpt>
      <trkpt lat="44.37653" lon="5.61706">
        <ele>909</ele>
        <time>2021-09-07T17:13:39Z</time>
      </trkpt>
      <trkpt lat="44.37653" lon="5.61706">
        <ele>909</ele>
        <time>2021-09-07T17:13:40Z</time>
      </trkpt>
      <trkpt lat="44.37653" lon="5.61706">
        <ele>909</ele>
        <time>2021-09-07T17:13:41Z</time>
      </trkpt>
      <trkpt lat="44.37653" lon="5.61706">
        <ele>909</ele>
        <time>2021-09-07T17:13:42Z</time>
      </trkpt>
      <trkpt lat="44.37653" lon="5.61705">
        <ele>909</ele>
        <time>2021-09-07T17:13:43Z</time>
      </trkpt>
      <trkpt lat="44.37653" lon="5.61705">
        <ele>909</ele>
        <time>2021-09-07T17:13:44Z</time>
      </trkpt>
      <trkpt lat="44.37653" lon="5.61705">
        <ele>909</ele>
        <time>2021-09-07T17:13:45Z</time>
      </trkpt>
      <trkpt lat="44.37653" lon="5.61705">
        <ele>909</ele>
        <time>2021-09-07T17:13:46Z</time>
      </trkpt>
      <trkpt lat="44.37653" lon="5.61705">
        <ele>909</ele>
        <time>2021-09-07T17:13:47Z</time>
      </trkpt>
      <trkpt lat="44.37653" lon="5.61705">
        <ele>909</ele>
        <time>2021-09-07T17:13:48Z</time>
      </trkpt>
      <trkpt lat="44.37653" lon="5.61705">
        <ele>909</ele>
        <time>2021-09-07T17:13:49Z</time>
      </trkpt>
      <trkpt lat="44.37653" lon="5.61705">
        <ele>909</ele>
        <time>2021-09-07T17:13:50Z</time>
      </trkpt>
      <trkpt lat="44.37652" lon="5.61704">
        <ele>909</ele>
        <time>2021-09-07T17:13:51Z</time>
      </trkpt>
      <trkpt lat="44.37651" lon="5.61703">
        <ele>909</ele>
        <time>2021-09-07T17:13:52Z</time>
      </trkpt>
      <trkpt lat="44.3765" lon="5.61703">
        <ele>908.1</ele>
        <time>2021-09-07T17:13:53Z</time>
      </trkpt>
      <trkpt lat="44.37648" lon="5.61702">
        <ele>908.1</ele>
        <time>2021-09-07T17:13:54Z</time>
      </trkpt>
      <trkpt lat="44.37648" lon="5.61701">
        <ele>908.3</ele>
        <time>2021-09-07T17:13:55Z</time>
      </trkpt>
      <trkpt lat="44.37647" lon="5.617">
        <ele>908.3</ele>
        <time>2021-09-07T17:13:56Z</time>
      </trkpt>
      <trkpt lat="44.37646" lon="5.617">
        <ele>908.3</ele>
        <time>2021-09-07T17:13:57Z</time>
      </trkpt>
      <trkpt lat="44.37645" lon="5.61699">
        <ele>908.3</ele>
        <time>2021-09-07T17:13:58Z</time>
      </trkpt>
      <trkpt lat="44.37645" lon="5.61699">
        <ele>908.3</ele>
        <time>2021-09-07T17:13:59Z</time>
      </trkpt>
      <trkpt lat="44.37645" lon="5.61699">
        <ele>908.3</ele>
        <time>2021-09-07T17:14:00Z</time>
      </trkpt>
      <trkpt lat="44.37645" lon="5.61698">
        <ele>908.3</ele>
        <time>2021-09-07T17:14:01Z</time>
      </trkpt>
      <trkpt lat="44.37644" lon="5.61698">
        <ele>907.3</ele>
        <time>2021-09-07T17:14:02Z</time>
      </trkpt>
      <trkpt lat="44.37644" lon="5.61697">
        <ele>908.5</ele>
        <time>2021-09-07T17:14:03Z</time>
      </trkpt>
      <trkpt lat="44.37644" lon="5.61697">
        <ele>908.5</ele>
        <time>2021-09-07T17:14:04Z</time>
      </trkpt>
      <trkpt lat="44.37644" lon="5.61697">
        <ele>908.5</ele>
        <time>2021-09-07T17:14:05Z</time>
      </trkpt>
      <trkpt lat="44.37644" lon="5.61697">
        <ele>908.5</ele>
        <time>2021-09-07T17:14:06Z</time>
      </trkpt>
      <trkpt lat="44.37644" lon="5.61697">
        <ele>908.5</ele>
        <time>2021-09-07T17:14:07Z</time>
      </trkpt>
      <trkpt lat="44.37644" lon="5.61697">
        <ele>908.5</ele>
        <time>2021-09-07T17:14:08Z</time>
      </trkpt>
      <trkpt lat="44.37643" lon="5.61697">
        <ele>908.5</ele>
        <time>2021-09-07T17:14:09Z</time>
      </trkpt>
      <trkpt lat="44.37643" lon="5.61697">
        <ele>908.5</ele>
        <time>2021-09-07T17:14:10Z</time>
      </trkpt>
      <trkpt lat="44.37643" lon="5.61696">
        <ele>908.5</ele>
        <time>2021-09-07T17:14:11Z</time>
      </trkpt>
      <trkpt lat="44.37643" lon="5.61696">
        <ele>908.5</ele>
        <time>2021-09-07T17:14:12Z</time>
      </trkpt>
      <trkpt lat="44.37644" lon="5.61695">
        <ele>908.5</ele>
        <time>2021-09-07T17:14:13Z</time>
      </trkpt>
      <trkpt lat="44.37644" lon="5.61694">
        <ele>908.5</ele>
        <time>2021-09-07T17:14:14Z</time>
      </trkpt>
      <trkpt lat="44.37644" lon="5.61692">
        <ele>909.6</ele>
        <time>2021-09-07T17:14:15Z</time>
      </trkpt>
      <trkpt lat="44.37645" lon="5.61691">
        <ele>909.6</ele>
        <time>2021-09-07T17:14:16Z</time>
      </trkpt>
      <trkpt lat="44.37645" lon="5.6169">
        <ele>910.6</ele>
        <time>2021-09-07T17:14:17Z</time>
      </trkpt>
      <trkpt lat="44.37645" lon="5.61688">
        <ele>911.7</ele>
        <time>2021-09-07T17:14:18Z</time>
      </trkpt>
      <trkpt lat="44.37645" lon="5.61687">
        <ele>911.7</ele>
        <time>2021-09-07T17:14:19Z</time>
      </trkpt>
      <trkpt lat="44.37645" lon="5.61686">
        <ele>911.7</ele>
        <time>2021-09-07T17:14:20Z</time>
      </trkpt>
      <trkpt lat="44.37645" lon="5.61686">
        <ele>911.7</ele>
        <time>2021-09-07T17:14:21Z</time>
      </trkpt>
      <trkpt lat="44.37646" lon="5.61685">
        <ele>911.7</ele>
        <time>2021-09-07T17:14:22Z</time>
      </trkpt>
      <trkpt lat="44.37646" lon="5.61685">
        <ele>911.7</ele>
        <time>2021-09-07T17:14:23Z</time>
      </trkpt>
      <trkpt lat="44.37646" lon="5.61685">
        <ele>912.9</ele>
        <time>2021-09-07T17:14:24Z</time>
      </trkpt>
      <trkpt lat="44.37646" lon="5.61684">
        <ele>912.9</ele>
        <time>2021-09-07T17:14:25Z</time>
      </trkpt>
      <trkpt lat="44.37646" lon="5.61684">
        <ele>912.9</ele>
        <time>2021-09-07T17:14:26Z</time>
      </trkpt>
      <trkpt lat="44.37646" lon="5.61684">
        <ele>912.9</ele>
        <time>2021-09-07T17:14:27Z</time>
      </trkpt>
      <trkpt lat="44.37646" lon="5.61684">
        <ele>912.9</ele>
        <time>2021-09-07T17:14:28Z</time>
      </trkpt>
      <trkpt lat="44.37646" lon="5.61684">
        <ele>912.9</ele>
        <time>2021-09-07T17:14:29Z</time>
      </trkpt>
      <trkpt lat="44.37646" lon="5.61683">
        <ele>912.9</ele>
        <time>2021-09-07T17:14:30Z</time>
      </trkpt>
      <trkpt lat="44.37646" lon="5.61683">
        <ele>912.9</ele>
        <time>2021-09-07T17:14:31Z</time>
      </trkpt>
      <trkpt lat="44.37646" lon="5.61683">
        <ele>912.9</ele>
        <time>2021-09-07T17:14:32Z</time>
      </trkpt>
      <trkpt lat="44.37646" lon="5.61683">
        <ele>912.9</ele>
        <time>2021-09-07T17:14:33Z</time>
      </trkpt>
      <trkpt lat="44.37646" lon="5.61683">
        <ele>912.9</ele>
        <time>2021-09-07T17:14:34Z</time>
      </trkpt>
      <trkpt lat="44.37646" lon="5.61683">
        <ele>912.9</ele>
        <time>2021-09-07T17:14:35Z</time>
      </trkpt>
      <trkpt lat="44.37646" lon="5.61683">
        <ele>912.9</ele>
        <time>2021-09-07T17:14:36Z</time>
      </trkpt>
      <trkpt lat="44.37644" lon="5.61681">
        <ele>912</ele>
        <time>2021-09-07T17:14:37Z</time>
      </trkpt>
      <trkpt lat="44.37644" lon="5.61681">
        <ele>912</ele>
        <time>2021-09-07T17:14:38Z</time>
      </trkpt>
      <trkpt lat="44.37643" lon="5.6168">
        <ele>913.1</ele>
        <time>2021-09-07T17:14:39Z</time>
      </trkpt>
      <trkpt lat="44.37643" lon="5.61679">
        <ele>913.1</ele>
        <time>2021-09-07T17:14:40Z</time>
      </trkpt>
      <trkpt lat="44.37642" lon="5.61678">
        <ele>913.1</ele>
        <time>2021-09-07T17:14:41Z</time>
      </trkpt>
      <trkpt lat="44.37642" lon="5.61678">
        <ele>912.2</ele>
        <time>2021-09-07T17:14:42Z</time>
      </trkpt>
      <trkpt lat="44.37641" lon="5.61677">
        <ele>912.2</ele>
        <time>2021-09-07T17:14:43Z</time>
      </trkpt>
      <trkpt lat="44.3764" lon="5.61676">
        <ele>913.4</ele>
        <time>2021-09-07T17:14:44Z</time>
      </trkpt>
      <trkpt lat="44.3764" lon="5.61676">
        <ele>913.4</ele>
        <time>2021-09-07T17:14:45Z</time>
      </trkpt>
      <trkpt lat="44.37639" lon="5.61674">
        <ele>913.4</ele>
        <time>2021-09-07T17:14:46Z</time>
      </trkpt>
      <trkpt lat="44.37639" lon="5.61674">
        <ele>913.4</ele>
        <time>2021-09-07T17:14:47Z</time>
      </trkpt>
      <trkpt lat="44.37639" lon="5.61674">
        <ele>913.4</ele>
        <time>2021-09-07T17:14:48Z</time>
      </trkpt>
      <trkpt lat="44.37638" lon="5.61673">
        <ele>912.5</ele>
        <time>2021-09-07T17:14:49Z</time>
      </trkpt>
      <trkpt lat="44.37638" lon="5.61673">
        <ele>912.5</ele>
        <time>2021-09-07T17:14:50Z</time>
      </trkpt>
      <trkpt lat="44.37638" lon="5.61673">
        <ele>912.5</ele>
        <time>2021-09-07T17:14:51Z</time>
      </trkpt>
      <trkpt lat="44.37638" lon="5.61673">
        <ele>912.5</ele>
        <time>2021-09-07T17:14:52Z</time>
      </trkpt>
      <trkpt lat="44.37638" lon="5.61673">
        <ele>912.5</ele>
        <time>2021-09-07T17:14:53Z</time>
      </trkpt>
      <trkpt lat="44.37638" lon="5.61673">
        <ele>912.5</ele>
        <time>2021-09-07T17:14:54Z</time>
      </trkpt>
      <trkpt lat="44.37638" lon="5.61673">
        <ele>912.5</ele>
        <time>2021-09-07T17:14:55Z</time>
      </trkpt>
      <trkpt lat="44.37637" lon="5.61672">
        <ele>912.5</ele>
        <time>2021-09-07T17:14:56Z</time>
      </trkpt>
      <trkpt lat="44.37635" lon="5.6167">
        <ele>912.8</ele>
        <time>2021-09-07T17:14:57Z</time>
      </trkpt>
      <trkpt lat="44.37633" lon="5.61668">
        <ele>912.8</ele>
        <time>2021-09-07T17:14:58Z</time>
      </trkpt>
      <trkpt lat="44.37633" lon="5.61668">
        <ele>912.8</ele>
        <time>2021-09-07T17:14:59Z</time>
      </trkpt>
      <trkpt lat="44.37633" lon="5.61667">
        <ele>914</ele>
        <time>2021-09-07T17:15:00Z</time>
      </trkpt>
      <trkpt lat="44.37632" lon="5.61667">
        <ele>913.3</ele>
        <time>2021-09-07T17:15:01Z</time>
      </trkpt>
      <trkpt lat="44.37631" lon="5.61667">
        <ele>913.3</ele>
        <time>2021-09-07T17:15:02Z</time>
      </trkpt>
      <trkpt lat="44.3763" lon="5.61666">
        <ele>913.3</ele>
        <time>2021-09-07T17:15:03Z</time>
      </trkpt>
      <trkpt lat="44.3763" lon="5.61666">
        <ele>913.3</ele>
        <time>2021-09-07T17:15:04Z</time>
      </trkpt>
      <trkpt lat="44.37629" lon="5.61666">
        <ele>912.6</ele>
        <time>2021-09-07T17:15:05Z</time>
      </trkpt>
      <trkpt lat="44.37629" lon="5.61666">
        <ele>912.6</ele>
        <time>2021-09-07T17:15:06Z</time>
      </trkpt>
      <trkpt lat="44.37629" lon="5.61666">
        <ele>912.6</ele>
        <time>2021-09-07T17:15:07Z</time>
      </trkpt>
      <trkpt lat="44.37628" lon="5.61666">
        <ele>912.6</ele>
        <time>2021-09-07T17:15:08Z</time>
      </trkpt>
      <trkpt lat="44.37628" lon="5.61666">
        <ele>912.6</ele>
        <time>2021-09-07T17:15:09Z</time>
      </trkpt>
      <trkpt lat="44.37628" lon="5.61666">
        <ele>912.6</ele>
        <time>2021-09-07T17:15:10Z</time>
      </trkpt>
      <trkpt lat="44.37628" lon="5.61666">
        <ele>912.6</ele>
        <time>2021-09-07T17:15:11Z</time>
      </trkpt>
      <trkpt lat="44.37627" lon="5.61666">
        <ele>912.6</ele>
        <time>2021-09-07T17:15:12Z</time>
      </trkpt>
      <trkpt lat="44.37625" lon="5.61665">
        <ele>912</ele>
        <time>2021-09-07T17:15:13Z</time>
      </trkpt>
      <trkpt lat="44.37623" lon="5.61665">
        <ele>911.4</ele>
        <time>2021-09-07T17:15:14Z</time>
      </trkpt>
      <trkpt lat="44.37623" lon="5.61665">
        <ele>911.4</ele>
        <time>2021-09-07T17:15:15Z</time>
      </trkpt>
      <trkpt lat="44.37622" lon="5.61664">
        <ele>911.4</ele>
        <time>2021-09-07T17:15:16Z</time>
      </trkpt>
      <trkpt lat="44.3762" lon="5.61664">
        <ele>910.7</ele>
        <time>2021-09-07T17:15:17Z</time>
      </trkpt>
      <trkpt lat="44.37619" lon="5.61664">
        <ele>910.7</ele>
        <time>2021-09-07T17:15:18Z</time>
      </trkpt>
      <trkpt lat="44.37619" lon="5.61664">
        <ele>910.7</ele>
        <time>2021-09-07T17:15:19Z</time>
      </trkpt>
      <trkpt lat="44.37619" lon="5.61664">
        <ele>910.7</ele>
        <time>2021-09-07T17:15:20Z</time>
      </trkpt>
      <trkpt lat="44.37618" lon="5.61664">
        <ele>910.7</ele>
        <time>2021-09-07T17:15:21Z</time>
      </trkpt>
      <trkpt lat="44.37618" lon="5.61664">
        <ele>910.7</ele>
        <time>2021-09-07T17:15:22Z</time>
      </trkpt>
      <trkpt lat="44.37617" lon="5.61663">
        <ele>911.2</ele>
        <time>2021-09-07T17:15:23Z</time>
      </trkpt>
      <trkpt lat="44.37617" lon="5.61663">
        <ele>911.2</ele>
        <time>2021-09-07T17:15:24Z</time>
      </trkpt>
      <trkpt lat="44.37615" lon="5.61662">
        <ele>911.2</ele>
        <time>2021-09-07T17:15:25Z</time>
      </trkpt>
      <trkpt lat="44.37613" lon="5.61661">
        <ele>910.5</ele>
        <time>2021-09-07T17:15:26Z</time>
      </trkpt>
      <trkpt lat="44.37611" lon="5.61659">
        <ele>910.5</ele>
        <time>2021-09-07T17:15:27Z</time>
      </trkpt>
      <trkpt lat="44.37609" lon="5.61656">
        <ele>911</ele>
        <time>2021-09-07T17:15:28Z</time>
      </trkpt>
      <trkpt lat="44.37608" lon="5.61656">
        <ele>911</ele>
        <time>2021-09-07T17:15:29Z</time>
      </trkpt>
      <trkpt lat="44.37607" lon="5.61655">
        <ele>910.4</ele>
        <time>2021-09-07T17:15:30Z</time>
      </trkpt>
      <trkpt lat="44.37607" lon="5.61654">
        <ele>911.7</ele>
        <time>2021-09-07T17:15:31Z</time>
      </trkpt>
      <trkpt lat="44.37606" lon="5.61653">
        <ele>911.7</ele>
        <time>2021-09-07T17:15:32Z</time>
      </trkpt>
      <trkpt lat="44.37606" lon="5.61653">
        <ele>911.7</ele>
        <time>2021-09-07T17:15:33Z</time>
      </trkpt>
      <trkpt lat="44.37605" lon="5.61652">
        <ele>911.7</ele>
        <time>2021-09-07T17:15:34Z</time>
      </trkpt>
      <trkpt lat="44.37603" lon="5.6165">
        <ele>912.4</ele>
        <time>2021-09-07T17:15:35Z</time>
      </trkpt>
      <trkpt lat="44.37602" lon="5.6165">
        <ele>912.4</ele>
        <time>2021-09-07T17:15:36Z</time>
      </trkpt>
      <trkpt lat="44.37602" lon="5.6165">
        <ele>912.4</ele>
        <time>2021-09-07T17:15:37Z</time>
      </trkpt>
      <trkpt lat="44.37602" lon="5.61649">
        <ele>912.4</ele>
        <time>2021-09-07T17:15:38Z</time>
      </trkpt>
      <trkpt lat="44.37601" lon="5.61649">
        <ele>911.9</ele>
        <time>2021-09-07T17:15:39Z</time>
      </trkpt>
      <trkpt lat="44.37601" lon="5.61649">
        <ele>911.9</ele>
        <time>2021-09-07T17:15:40Z</time>
      </trkpt>
      <trkpt lat="44.376" lon="5.6165">
        <ele>911.9</ele>
        <time>2021-09-07T17:15:41Z</time>
      </trkpt>
      <trkpt lat="44.37598" lon="5.6165">
        <ele>911.4</ele>
        <time>2021-09-07T17:15:42Z</time>
      </trkpt>
      <trkpt lat="44.37597" lon="5.6165">
        <ele>911.4</ele>
        <time>2021-09-07T17:15:43Z</time>
      </trkpt>
      <trkpt lat="44.37596" lon="5.6165">
        <ele>911.4</ele>
        <time>2021-09-07T17:15:44Z</time>
      </trkpt>
      <trkpt lat="44.37595" lon="5.61649">
        <ele>911</ele>
        <time>2021-09-07T17:15:45Z</time>
      </trkpt>
      <trkpt lat="44.37593" lon="5.61648">
        <ele>911</ele>
        <time>2021-09-07T17:15:46Z</time>
      </trkpt>
      <trkpt lat="44.37592" lon="5.61648">
        <ele>910.5</ele>
        <time>2021-09-07T17:15:47Z</time>
      </trkpt>
      <trkpt lat="44.37591" lon="5.61647">
        <ele>910.5</ele>
        <time>2021-09-07T17:15:48Z</time>
      </trkpt>
      <trkpt lat="44.3759" lon="5.61645">
        <ele>911.8</ele>
        <time>2021-09-07T17:15:49Z</time>
      </trkpt>
      <trkpt lat="44.37588" lon="5.61643">
        <ele>911.4</ele>
        <time>2021-09-07T17:15:50Z</time>
      </trkpt>
      <trkpt lat="44.37588" lon="5.61642">
        <ele>911.4</ele>
        <time>2021-09-07T17:15:51Z</time>
      </trkpt>
      <trkpt lat="44.37587" lon="5.61641">
        <ele>912.7</ele>
        <time>2021-09-07T17:15:52Z</time>
      </trkpt>
      <trkpt lat="44.37585" lon="5.61638">
        <ele>912.3</ele>
        <time>2021-09-07T17:15:53Z</time>
      </trkpt>
      <trkpt lat="44.37583" lon="5.61635">
        <ele>913.2</ele>
        <time>2021-09-07T17:15:54Z</time>
      </trkpt>
      <trkpt lat="44.37582" lon="5.61634">
        <ele>913.2</ele>
        <time>2021-09-07T17:15:55Z</time>
      </trkpt>
      <trkpt lat="44.37581" lon="5.61633">
        <ele>914.5</ele>
        <time>2021-09-07T17:15:56Z</time>
      </trkpt>
      <trkpt lat="44.37581" lon="5.61633">
        <ele>914.5</ele>
        <time>2021-09-07T17:15:57Z</time>
      </trkpt>
      <trkpt lat="44.3758" lon="5.61632">
        <ele>914.1</ele>
        <time>2021-09-07T17:15:58Z</time>
      </trkpt>
      <trkpt lat="44.3758" lon="5.61632">
        <ele>914.1</ele>
        <time>2021-09-07T17:15:59Z</time>
      </trkpt>
      <trkpt lat="44.3758" lon="5.61632">
        <ele>914.1</ele>
        <time>2021-09-07T17:16:00Z</time>
      </trkpt>
      <trkpt lat="44.37579" lon="5.61631">
        <ele>914.1</ele>
        <time>2021-09-07T17:16:01Z</time>
      </trkpt>
      <trkpt lat="44.37578" lon="5.61628">
        <ele>915.3</ele>
        <time>2021-09-07T17:16:02Z</time>
      </trkpt>
      <trkpt lat="44.37577" lon="5.61626">
        <ele>914.9</ele>
        <time>2021-09-07T17:16:03Z</time>
      </trkpt>
      <trkpt lat="44.37577" lon="5.61626">
        <ele>914.9</ele>
        <time>2021-09-07T17:16:04Z</time>
      </trkpt>
      <trkpt lat="44.37577" lon="5.61625">
        <ele>914.9</ele>
        <time>2021-09-07T17:16:05Z</time>
      </trkpt>
      <trkpt lat="44.37577" lon="5.61624">
        <ele>916</ele>
        <time>2021-09-07T17:16:06Z</time>
      </trkpt>
      <trkpt lat="44.37576" lon="5.61623">
        <ele>916</ele>
        <time>2021-09-07T17:16:07Z</time>
      </trkpt>
      <trkpt lat="44.37576" lon="5.61621">
        <ele>916</ele>
        <time>2021-09-07T17:16:08Z</time>
      </trkpt>
      <trkpt lat="44.37574" lon="5.61617">
        <ele>916.8</ele>
        <time>2021-09-07T17:16:09Z</time>
      </trkpt>
      <trkpt lat="44.37574" lon="5.61613">
        <ele>917.9</ele>
        <time>2021-09-07T17:16:10Z</time>
      </trkpt>
      <trkpt lat="44.37572" lon="5.61609">
        <ele>919.1</ele>
        <time>2021-09-07T17:16:11Z</time>
      </trkpt>
      <trkpt lat="44.37571" lon="5.61606">
        <ele>919.9</ele>
        <time>2021-09-07T17:16:12Z</time>
      </trkpt>
      <trkpt lat="44.3757" lon="5.61603">
        <ele>921</ele>
        <time>2021-09-07T17:16:13Z</time>
      </trkpt>
      <trkpt lat="44.37569" lon="5.616">
        <ele>921</ele>
        <time>2021-09-07T17:16:14Z</time>
      </trkpt>
      <trkpt lat="44.37567" lon="5.61597">
        <ele>921.7</ele>
        <time>2021-09-07T17:16:15Z</time>
      </trkpt>
      <trkpt lat="44.37566" lon="5.61594">
        <ele>922.7</ele>
        <time>2021-09-07T17:16:16Z</time>
      </trkpt>
      <trkpt lat="44.37566" lon="5.61593">
        <ele>922.7</ele>
        <time>2021-09-07T17:16:17Z</time>
      </trkpt>
      <trkpt lat="44.37565" lon="5.61592">
        <ele>922.7</ele>
        <time>2021-09-07T17:16:18Z</time>
      </trkpt>
      <trkpt lat="44.37564" lon="5.61588">
        <ele>923.2</ele>
        <time>2021-09-07T17:16:19Z</time>
      </trkpt>
      <trkpt lat="44.37563" lon="5.61586">
        <ele>923.2</ele>
        <time>2021-09-07T17:16:20Z</time>
      </trkpt>
      <trkpt lat="44.37562" lon="5.61583">
        <ele>924.1</ele>
        <time>2021-09-07T17:16:21Z</time>
      </trkpt>
      <trkpt lat="44.37562" lon="5.6158">
        <ele>924.8</ele>
        <time>2021-09-07T17:16:22Z</time>
      </trkpt>
      <trkpt lat="44.37562" lon="5.61579">
        <ele>924.5</ele>
        <time>2021-09-07T17:16:23Z</time>
      </trkpt>
      <trkpt lat="44.37561" lon="5.61577">
        <ele>925.2</ele>
        <time>2021-09-07T17:16:24Z</time>
      </trkpt>
      <trkpt lat="44.37561" lon="5.61575">
        <ele>925.2</ele>
        <time>2021-09-07T17:16:25Z</time>
      </trkpt>
      <trkpt lat="44.3756" lon="5.61574">
        <ele>925.2</ele>
        <time>2021-09-07T17:16:26Z</time>
      </trkpt>
      <trkpt lat="44.3756" lon="5.61573">
        <ele>925.9</ele>
        <time>2021-09-07T17:16:27Z</time>
      </trkpt>
      <trkpt lat="44.3756" lon="5.61571">
        <ele>925.9</ele>
        <time>2021-09-07T17:16:28Z</time>
      </trkpt>
      <trkpt lat="44.3756" lon="5.6157">
        <ele>925.9</ele>
        <time>2021-09-07T17:16:29Z</time>
      </trkpt>
      <trkpt lat="44.37559" lon="5.61569">
        <ele>925.9</ele>
        <time>2021-09-07T17:16:30Z</time>
      </trkpt>
      <trkpt lat="44.37559" lon="5.61568">
        <ele>926.6</ele>
        <time>2021-09-07T17:16:31Z</time>
      </trkpt>
      <trkpt lat="44.37559" lon="5.61568">
        <ele>926.3</ele>
        <time>2021-09-07T17:16:32Z</time>
      </trkpt>
      <trkpt lat="44.37558" lon="5.61568">
        <ele>926.3</ele>
        <time>2021-09-07T17:16:33Z</time>
      </trkpt>
      <trkpt lat="44.37558" lon="5.61568">
        <ele>926.3</ele>
        <time>2021-09-07T17:16:34Z</time>
      </trkpt>
      <trkpt lat="44.37558" lon="5.61568">
        <ele>926.3</ele>
        <time>2021-09-07T17:16:35Z</time>
      </trkpt>
      <trkpt lat="44.37558" lon="5.61568">
        <ele>926.3</ele>
        <time>2021-09-07T17:16:36Z</time>
      </trkpt>
      <trkpt lat="44.37558" lon="5.61568">
        <ele>926.3</ele>
        <time>2021-09-07T17:16:37Z</time>
      </trkpt>
      <trkpt lat="44.37557" lon="5.61568">
        <ele>926.3</ele>
        <time>2021-09-07T17:16:38Z</time>
      </trkpt>
      <trkpt lat="44.37557" lon="5.61568">
        <ele>926.3</ele>
        <time>2021-09-07T17:16:39Z</time>
      </trkpt>
      <trkpt lat="44.37557" lon="5.61568">
        <ele>926.3</ele>
        <time>2021-09-07T17:16:40Z</time>
      </trkpt>
      <trkpt lat="44.37558" lon="5.61568">
        <ele>926.3</ele>
        <time>2021-09-07T17:16:41Z</time>
      </trkpt>
      <trkpt lat="44.37558" lon="5.61567">
        <ele>926.3</ele>
        <time>2021-09-07T17:16:42Z</time>
      </trkpt>
      <trkpt lat="44.37559" lon="5.61567">
        <ele>926.6</ele>
        <time>2021-09-07T17:16:43Z</time>
      </trkpt>
      <trkpt lat="44.3756" lon="5.61566">
        <ele>926.6</ele>
        <time>2021-09-07T17:16:44Z</time>
      </trkpt>
      <trkpt lat="44.37561" lon="5.61564">
        <ele>927.2</ele>
        <time>2021-09-07T17:16:45Z</time>
      </trkpt>
      <trkpt lat="44.37562" lon="5.61563">
        <ele>927.2</ele>
        <time>2021-09-07T17:16:46Z</time>
      </trkpt>
      <trkpt lat="44.37562" lon="5.61562">
        <ele>927.5</ele>
        <time>2021-09-07T17:16:47Z</time>
      </trkpt>
      <trkpt lat="44.37563" lon="5.61561">
        <ele>927.5</ele>
        <time>2021-09-07T17:16:48Z</time>
      </trkpt>
      <trkpt lat="44.37563" lon="5.61559">
        <ele>928.1</ele>
        <time>2021-09-07T17:16:49Z</time>
      </trkpt>
      <trkpt lat="44.37563" lon="5.61558">
        <ele>928.1</ele>
        <time>2021-09-07T17:16:50Z</time>
      </trkpt>
      <trkpt lat="44.37564" lon="5.61558">
        <ele>928</ele>
        <time>2021-09-07T17:16:51Z</time>
      </trkpt>
      <trkpt lat="44.37564" lon="5.61558">
        <ele>928</ele>
        <time>2021-09-07T17:16:52Z</time>
      </trkpt>
      <trkpt lat="44.37564" lon="5.61558">
        <ele>928</ele>
        <time>2021-09-07T17:16:53Z</time>
      </trkpt>
      <trkpt lat="44.37564" lon="5.61558">
        <ele>928</ele>
        <time>2021-09-07T17:16:54Z</time>
      </trkpt>
      <trkpt lat="44.37565" lon="5.61558">
        <ele>928</ele>
        <time>2021-09-07T17:16:55Z</time>
      </trkpt>
      <trkpt lat="44.37565" lon="5.61557">
        <ele>928</ele>
        <time>2021-09-07T17:16:56Z</time>
      </trkpt>
      <trkpt lat="44.37565" lon="5.61557">
        <ele>928</ele>
        <time>2021-09-07T17:16:57Z</time>
      </trkpt>
      <trkpt lat="44.37565" lon="5.61557">
        <ele>928</ele>
        <time>2021-09-07T17:16:58Z</time>
      </trkpt>
      <trkpt lat="44.37565" lon="5.61557">
        <ele>928</ele>
        <time>2021-09-07T17:16:59Z</time>
      </trkpt>
      <trkpt lat="44.37565" lon="5.61558">
        <ele>927.9</ele>
        <time>2021-09-07T17:17:00Z</time>
      </trkpt>
      <trkpt lat="44.37565" lon="5.61559">
        <ele>927.9</ele>
        <time>2021-09-07T17:17:01Z</time>
      </trkpt>
      <trkpt lat="44.37563" lon="5.61561">
        <ele>927.8</ele>
        <time>2021-09-07T17:17:02Z</time>
      </trkpt>
      <trkpt lat="44.37562" lon="5.61563">
        <ele>927.7</ele>
        <time>2021-09-07T17:17:03Z</time>
      </trkpt>
      <trkpt lat="44.37561" lon="5.61564">
        <ele>927.6</ele>
        <time>2021-09-07T17:17:04Z</time>
      </trkpt>
      <trkpt lat="44.3756" lon="5.61565">
        <ele>927.6</ele>
        <time>2021-09-07T17:17:05Z</time>
      </trkpt>
      <trkpt lat="44.3756" lon="5.61566">
        <ele>927.5</ele>
        <time>2021-09-07T17:17:06Z</time>
      </trkpt>
      <trkpt lat="44.37559" lon="5.61566">
        <ele>927.5</ele>
        <time>2021-09-07T17:17:07Z</time>
      </trkpt>
      <trkpt lat="44.37559" lon="5.61566">
        <ele>927.5</ele>
        <time>2021-09-07T17:17:08Z</time>
      </trkpt>
      <trkpt lat="44.37559" lon="5.61566">
        <ele>927.5</ele>
        <time>2021-09-07T17:17:09Z</time>
      </trkpt>
      <trkpt lat="44.37559" lon="5.61567">
        <ele>927.5</ele>
        <time>2021-09-07T17:17:10Z</time>
      </trkpt>
      <trkpt lat="44.37559" lon="5.61567">
        <ele>927.5</ele>
        <time>2021-09-07T17:17:11Z</time>
      </trkpt>
      <trkpt lat="44.37559" lon="5.61568">
        <ele>927.4</ele>
        <time>2021-09-07T17:17:12Z</time>
      </trkpt>
      <trkpt lat="44.37559" lon="5.61568">
        <ele>927.4</ele>
        <time>2021-09-07T17:17:13Z</time>
      </trkpt>
      <trkpt lat="44.37559" lon="5.61568">
        <ele>927.4</ele>
        <time>2021-09-07T17:17:14Z</time>
      </trkpt>
      <trkpt lat="44.37559" lon="5.61568">
        <ele>927.4</ele>
        <time>2021-09-07T17:17:15Z</time>
      </trkpt>
      <trkpt lat="44.37558" lon="5.6157">
        <ele>927.3</ele>
        <time>2021-09-07T17:17:16Z</time>
      </trkpt>
      <trkpt lat="44.37556" lon="5.6157">
        <ele>927.3</ele>
        <time>2021-09-07T17:17:17Z</time>
      </trkpt>
      <trkpt lat="44.37554" lon="5.61571">
        <ele>927.2</ele>
        <time>2021-09-07T17:17:18Z</time>
      </trkpt>
      <trkpt lat="44.37553" lon="5.61571">
        <ele>927.1</ele>
        <time>2021-09-07T17:17:19Z</time>
      </trkpt>
      <trkpt lat="44.37552" lon="5.61571">
        <ele>927.1</ele>
        <time>2021-09-07T17:17:20Z</time>
      </trkpt>
      <trkpt lat="44.37551" lon="5.61571">
        <ele>927</ele>
        <time>2021-09-07T17:17:21Z</time>
      </trkpt>
      <trkpt lat="44.3755" lon="5.61572">
        <ele>926.9</ele>
        <time>2021-09-07T17:17:22Z</time>
      </trkpt>
      <trkpt lat="44.37548" lon="5.61573">
        <ele>926.9</ele>
        <time>2021-09-07T17:17:23Z</time>
      </trkpt>
      <trkpt lat="44.37544" lon="5.61575">
        <ele>926.7</ele>
        <time>2021-09-07T17:17:24Z</time>
      </trkpt>
      <trkpt lat="44.3754" lon="5.61577">
        <ele>926.5</ele>
        <time>2021-09-07T17:17:25Z</time>
      </trkpt>
      <trkpt lat="44.37538" lon="5.61577">
        <ele>926.4</ele>
        <time>2021-09-07T17:17:26Z</time>
      </trkpt>
      <trkpt lat="44.37537" lon="5.61577">
        <ele>926.3</ele>
        <time>2021-09-07T17:17:27Z</time>
      </trkpt>
      <trkpt lat="44.37537" lon="5.61576">
        <ele>926.3</ele>
        <time>2021-09-07T17:17:28Z</time>
      </trkpt>
      <trkpt lat="44.37537" lon="5.61576">
        <ele>926.3</ele>
        <time>2021-09-07T17:17:29Z</time>
      </trkpt>
      <trkpt lat="44.37537" lon="5.61576">
        <ele>926.3</ele>
        <time>2021-09-07T17:17:30Z</time>
      </trkpt>
      <trkpt lat="44.37536" lon="5.61576">
        <ele>926.3</ele>
        <time>2021-09-07T17:17:31Z</time>
      </trkpt>
      <trkpt lat="44.37536" lon="5.61576">
        <ele>926.3</ele>
        <time>2021-09-07T17:17:32Z</time>
      </trkpt>
      <trkpt lat="44.37536" lon="5.61576">
        <ele>926.3</ele>
        <time>2021-09-07T17:17:33Z</time>
      </trkpt>
      <trkpt lat="44.37536" lon="5.61576">
        <ele>926.3</ele>
        <time>2021-09-07T17:17:34Z</time>
      </trkpt>
      <trkpt lat="44.37536" lon="5.61575">
        <ele>926.2</ele>
        <time>2021-09-07T17:17:35Z</time>
      </trkpt>
      <trkpt lat="44.37535" lon="5.61575">
        <ele>926.2</ele>
        <time>2021-09-07T17:17:36Z</time>
      </trkpt>
      <trkpt lat="44.37532" lon="5.61575">
        <ele>926</ele>
        <time>2021-09-07T17:17:37Z</time>
      </trkpt>
      <trkpt lat="44.37531" lon="5.61576">
        <ele>926</ele>
        <time>2021-09-07T17:17:38Z</time>
      </trkpt>
      <trkpt lat="44.3753" lon="5.61576">
        <ele>926</ele>
        <time>2021-09-07T17:17:39Z</time>
      </trkpt>
      <trkpt lat="44.37528" lon="5.61577">
        <ele>925.9</ele>
        <time>2021-09-07T17:17:40Z</time>
      </trkpt>
      <trkpt lat="44.37527" lon="5.61578">
        <ele>925.8</ele>
        <time>2021-09-07T17:17:41Z</time>
      </trkpt>
      <trkpt lat="44.37526" lon="5.61578">
        <ele>925.8</ele>
        <time>2021-09-07T17:17:42Z</time>
      </trkpt>
      <trkpt lat="44.37524" lon="5.61578">
        <ele>925.7</ele>
        <time>2021-09-07T17:17:43Z</time>
      </trkpt>
      <trkpt lat="44.37523" lon="5.61578">
        <ele>925.6</ele>
        <time>2021-09-07T17:17:44Z</time>
      </trkpt>
      <trkpt lat="44.37522" lon="5.61578">
        <ele>925.6</ele>
        <time>2021-09-07T17:17:45Z</time>
      </trkpt>
      <trkpt lat="44.37521" lon="5.61579">
        <ele>925.5</ele>
        <time>2021-09-07T17:17:46Z</time>
      </trkpt>
      <trkpt lat="44.37521" lon="5.61579">
        <ele>925.5</ele>
        <time>2021-09-07T17:17:47Z</time>
      </trkpt>
      <trkpt lat="44.37521" lon="5.61579">
        <ele>925.5</ele>
        <time>2021-09-07T17:17:48Z</time>
      </trkpt>
      <trkpt lat="44.37521" lon="5.61579">
        <ele>925.5</ele>
        <time>2021-09-07T17:17:49Z</time>
      </trkpt>
      <trkpt lat="44.37521" lon="5.61579">
        <ele>925.5</ele>
        <time>2021-09-07T17:17:50Z</time>
      </trkpt>
      <trkpt lat="44.3752" lon="5.61579">
        <ele>925.5</ele>
        <time>2021-09-07T17:17:51Z</time>
      </trkpt>
      <trkpt lat="44.3752" lon="5.61579">
        <ele>925.5</ele>
        <time>2021-09-07T17:17:52Z</time>
      </trkpt>
      <trkpt lat="44.3752" lon="5.61579">
        <ele>925.5</ele>
        <time>2021-09-07T17:17:53Z</time>
      </trkpt>
      <trkpt lat="44.3752" lon="5.61579">
        <ele>925.5</ele>
        <time>2021-09-07T17:17:54Z</time>
      </trkpt>
      <trkpt lat="44.3752" lon="5.61581">
        <ele>925.4</ele>
        <time>2021-09-07T17:17:55Z</time>
      </trkpt>
      <trkpt lat="44.37519" lon="5.61582">
        <ele>925.4</ele>
        <time>2021-09-07T17:17:56Z</time>
      </trkpt>
      <trkpt lat="44.37518" lon="5.61584">
        <ele>925.3</ele>
        <time>2021-09-07T17:17:57Z</time>
      </trkpt>
      <trkpt lat="44.37518" lon="5.61585">
        <ele>925.3</ele>
        <time>2021-09-07T17:17:58Z</time>
      </trkpt>
      <trkpt lat="44.37518" lon="5.61585">
        <ele>925.3</ele>
        <time>2021-09-07T17:17:59Z</time>
      </trkpt>
      <trkpt lat="44.37517" lon="5.61586">
        <ele>925.2</ele>
        <time>2021-09-07T17:18:00Z</time>
      </trkpt>
      <trkpt lat="44.37516" lon="5.61587">
        <ele>925.2</ele>
        <time>2021-09-07T17:18:01Z</time>
      </trkpt>
      <trkpt lat="44.37515" lon="5.61588">
        <ele>925.1</ele>
        <time>2021-09-07T17:18:02Z</time>
      </trkpt>
      <trkpt lat="44.37515" lon="5.61588">
        <ele>925.1</ele>
        <time>2021-09-07T17:18:03Z</time>
      </trkpt>
      <trkpt lat="44.37514" lon="5.61588">
        <ele>925.3</ele>
        <time>2021-09-07T17:18:04Z</time>
      </trkpt>
      <trkpt lat="44.37511" lon="5.61589">
        <ele>925.5</ele>
        <time>2021-09-07T17:18:05Z</time>
      </trkpt>
      <trkpt lat="44.3751" lon="5.61589">
        <ele>925.6</ele>
        <time>2021-09-07T17:18:06Z</time>
      </trkpt>
      <trkpt lat="44.3751" lon="5.6159">
        <ele>925.6</ele>
        <time>2021-09-07T17:18:07Z</time>
      </trkpt>
      <trkpt lat="44.37509" lon="5.6159">
        <ele>925.7</ele>
        <time>2021-09-07T17:18:08Z</time>
      </trkpt>
      <trkpt lat="44.37508" lon="5.6159">
        <ele>925.8</ele>
        <time>2021-09-07T17:18:09Z</time>
      </trkpt>
      <trkpt lat="44.37508" lon="5.6159">
        <ele>925.8</ele>
        <time>2021-09-07T17:18:10Z</time>
      </trkpt>
      <trkpt lat="44.37507" lon="5.6159">
        <ele>925.9</ele>
        <time>2021-09-07T17:18:11Z</time>
      </trkpt>
      <trkpt lat="44.37507" lon="5.6159">
        <ele>925.9</ele>
        <time>2021-09-07T17:18:12Z</time>
      </trkpt>
      <trkpt lat="44.37506" lon="5.6159">
        <ele>925.9</ele>
        <time>2021-09-07T17:18:13Z</time>
      </trkpt>
      <trkpt lat="44.37506" lon="5.6159">
        <ele>925.9</ele>
        <time>2021-09-07T17:18:14Z</time>
      </trkpt>
      <trkpt lat="44.37503" lon="5.61589">
        <ele>926.2</ele>
        <time>2021-09-07T17:18:15Z</time>
      </trkpt>
      <trkpt lat="44.37502" lon="5.61589">
        <ele>926.3</ele>
        <time>2021-09-07T17:18:16Z</time>
      </trkpt>
      <trkpt lat="44.37501" lon="5.61589">
        <ele>926.3</ele>
        <time>2021-09-07T17:18:17Z</time>
      </trkpt>
      <trkpt lat="44.37499" lon="5.61589">
        <ele>926.4</ele>
        <time>2021-09-07T17:18:18Z</time>
      </trkpt>
      <trkpt lat="44.37498" lon="5.61589">
        <ele>926.5</ele>
        <time>2021-09-07T17:18:19Z</time>
      </trkpt>
      <trkpt lat="44.37497" lon="5.61589">
        <ele>926.6</ele>
        <time>2021-09-07T17:18:20Z</time>
      </trkpt>
      <trkpt lat="44.37497" lon="5.61589">
        <ele>926.6</ele>
        <time>2021-09-07T17:18:21Z</time>
      </trkpt>
      <trkpt lat="44.37496" lon="5.61588">
        <ele>926.6</ele>
        <time>2021-09-07T17:18:22Z</time>
      </trkpt>
      <trkpt lat="44.37495" lon="5.61588">
        <ele>926.7</ele>
        <time>2021-09-07T17:18:23Z</time>
      </trkpt>
      <trkpt lat="44.37494" lon="5.61588">
        <ele>926.7</ele>
        <time>2021-09-07T17:18:24Z</time>
      </trkpt>
      <trkpt lat="44.37493" lon="5.61588">
        <ele>926.7</ele>
        <time>2021-09-07T17:18:25Z</time>
      </trkpt>
      <trkpt lat="44.37492" lon="5.61588">
        <ele>926.8</ele>
        <time>2021-09-07T17:18:26Z</time>
      </trkpt>
      <trkpt lat="44.37491" lon="5.61589">
        <ele>926.8</ele>
        <time>2021-09-07T17:18:27Z</time>
      </trkpt>
      <trkpt lat="44.3749" lon="5.61589">
        <ele>926.8</ele>
        <time>2021-09-07T17:18:28Z</time>
      </trkpt>
      <trkpt lat="44.3749" lon="5.61589">
        <ele>926.8</ele>
        <time>2021-09-07T17:18:29Z</time>
      </trkpt>
      <trkpt lat="44.3749" lon="5.61589">
        <ele>926.8</ele>
        <time>2021-09-07T17:18:30Z</time>
      </trkpt>
      <trkpt lat="44.37489" lon="5.61589">
        <ele>926.8</ele>
        <time>2021-09-07T17:18:31Z</time>
      </trkpt>
      <trkpt lat="44.37489" lon="5.61589">
        <ele>926.8</ele>
        <time>2021-09-07T17:18:32Z</time>
      </trkpt>
      <trkpt lat="44.37489" lon="5.6159">
        <ele>926.9</ele>
        <time>2021-09-07T17:18:33Z</time>
      </trkpt>
      <trkpt lat="44.37489" lon="5.6159">
        <ele>926.9</ele>
        <time>2021-09-07T17:18:34Z</time>
      </trkpt>
      <trkpt lat="44.37489" lon="5.6159">
        <ele>926.9</ele>
        <time>2021-09-07T17:18:35Z</time>
      </trkpt>
      <trkpt lat="44.37489" lon="5.6159">
        <ele>926.9</ele>
        <time>2021-09-07T17:18:36Z</time>
      </trkpt>
      <trkpt lat="44.37489" lon="5.6159">
        <ele>926.9</ele>
        <time>2021-09-07T17:18:37Z</time>
      </trkpt>
      <trkpt lat="44.37489" lon="5.6159">
        <ele>926.9</ele>
        <time>2021-09-07T17:18:38Z</time>
      </trkpt>
      <trkpt lat="44.37489" lon="5.6159">
        <ele>926.9</ele>
        <time>2021-09-07T17:18:39Z</time>
      </trkpt>
      <trkpt lat="44.37489" lon="5.6159">
        <ele>926.9</ele>
        <time>2021-09-07T17:18:40Z</time>
      </trkpt>
      <trkpt lat="44.37489" lon="5.6159">
        <ele>926.9</ele>
        <time>2021-09-07T17:18:41Z</time>
      </trkpt>
      <trkpt lat="44.37489" lon="5.6159">
        <ele>926.9</ele>
        <time>2021-09-07T17:18:42Z</time>
      </trkpt>
      <trkpt lat="44.37489" lon="5.61591">
        <ele>926.9</ele>
        <time>2021-09-07T17:18:43Z</time>
      </trkpt>
      <trkpt lat="44.37489" lon="5.61591">
        <ele>926.9</ele>
        <time>2021-09-07T17:18:44Z</time>
      </trkpt>
      <trkpt lat="44.37489" lon="5.61591">
        <ele>926.9</ele>
        <time>2021-09-07T17:18:45Z</time>
      </trkpt>
      <trkpt lat="44.37488" lon="5.61591">
        <ele>926.9</ele>
        <time>2021-09-07T17:18:46Z</time>
      </trkpt>
      <trkpt lat="44.37488" lon="5.61591">
        <ele>926.9</ele>
        <time>2021-09-07T17:18:47Z</time>
      </trkpt>
      <trkpt lat="44.37488" lon="5.61591">
        <ele>926.9</ele>
        <time>2021-09-07T17:18:48Z</time>
      </trkpt>
      <trkpt lat="44.37488" lon="5.61591">
        <ele>926.9</ele>
        <time>2021-09-07T17:18:49Z</time>
      </trkpt>
      <trkpt lat="44.37488" lon="5.61591">
        <ele>926.9</ele>
        <time>2021-09-07T17:18:50Z</time>
      </trkpt>
      <trkpt lat="44.37488" lon="5.61591">
        <ele>926.9</ele>
        <time>2021-09-07T17:18:51Z</time>
      </trkpt>
      <trkpt lat="44.37488" lon="5.61591">
        <ele>926.9</ele>
        <time>2021-09-07T17:18:52Z</time>
      </trkpt>
      <trkpt lat="44.37488" lon="5.61591">
        <ele>926.9</ele>
        <time>2021-09-07T17:18:53Z</time>
      </trkpt>
      <trkpt lat="44.37488" lon="5.61591">
        <ele>926.9</ele>
        <time>2021-09-07T17:18:54Z</time>
      </trkpt>
      <trkpt lat="44.37488" lon="5.61591">
        <ele>926.9</ele>
        <time>2021-09-07T17:18:55Z</time>
      </trkpt>
      <trkpt lat="44.37488" lon="5.6159">
        <ele>926.9</ele>
        <time>2021-09-07T17:18:56Z</time>
      </trkpt>
      <trkpt lat="44.37488" lon="5.6159">
        <ele>926.9</ele>
        <time>2021-09-07T17:18:57Z</time>
      </trkpt>
      <trkpt lat="44.37488" lon="5.6159">
        <ele>926.9</ele>
        <time>2021-09-07T17:18:58Z</time>
      </trkpt>
      <trkpt lat="44.37488" lon="5.6159">
        <ele>926.9</ele>
        <time>2021-09-07T17:18:59Z</time>
      </trkpt>
      <trkpt lat="44.37488" lon="5.6159">
        <ele>926.9</ele>
        <time>2021-09-07T17:19:00Z</time>
      </trkpt>
      <trkpt lat="44.37488" lon="5.6159">
        <ele>926.9</ele>
        <time>2021-09-07T17:19:01Z</time>
      </trkpt>
      <trkpt lat="44.37488" lon="5.61589">
        <ele>926.9</ele>
        <time>2021-09-07T17:19:02Z</time>
      </trkpt>
      <trkpt lat="44.37488" lon="5.61589">
        <ele>926.9</ele>
        <time>2021-09-07T17:19:03Z</time>
      </trkpt>
      <trkpt lat="44.37488" lon="5.61589">
        <ele>926.9</ele>
        <time>2021-09-07T17:19:04Z</time>
      </trkpt>
      <trkpt lat="44.37488" lon="5.61589">
        <ele>926.9</ele>
        <time>2021-09-07T17:19:05Z</time>
      </trkpt>
      <trkpt lat="44.37488" lon="5.61589">
        <ele>926.9</ele>
        <time>2021-09-07T17:19:06Z</time>
      </trkpt>
      <trkpt lat="44.37488" lon="5.61589">
        <ele>926.9</ele>
        <time>2021-09-07T17:19:07Z</time>
      </trkpt>
      <trkpt lat="44.37488" lon="5.61589">
        <ele>926.9</ele>
        <time>2021-09-07T17:19:08Z</time>
      </trkpt>
      <trkpt lat="44.37487" lon="5.6159">
        <ele>926.9</ele>
        <time>2021-09-07T17:19:09Z</time>
      </trkpt>
      <trkpt lat="44.37486" lon="5.6159">
        <ele>926.9</ele>
        <time>2021-09-07T17:19:10Z</time>
      </trkpt>
      <trkpt lat="44.37485" lon="5.61591">
        <ele>926.9</ele>
        <time>2021-09-07T17:19:11Z</time>
      </trkpt>
      <trkpt lat="44.37484" lon="5.61591">
        <ele>926.9</ele>
        <time>2021-09-07T17:19:12Z</time>
      </trkpt>
      <trkpt lat="44.37483" lon="5.61591">
        <ele>926.9</ele>
        <time>2021-09-07T17:19:13Z</time>
      </trkpt>
      <trkpt lat="44.37482" lon="5.61591">
        <ele>926.9</ele>
        <time>2021-09-07T17:19:14Z</time>
      </trkpt>
      <trkpt lat="44.37482" lon="5.61592">
        <ele>926.8</ele>
        <time>2021-09-07T17:19:15Z</time>
      </trkpt>
      <trkpt lat="44.37481" lon="5.61592">
        <ele>926.8</ele>
        <time>2021-09-07T17:19:16Z</time>
      </trkpt>
      <trkpt lat="44.37481" lon="5.61592">
        <ele>926.8</ele>
        <time>2021-09-07T17:19:17Z</time>
      </trkpt>
      <trkpt lat="44.3748" lon="5.61592">
        <ele>926.8</ele>
        <time>2021-09-07T17:19:18Z</time>
      </trkpt>
      <trkpt lat="44.3748" lon="5.61593">
        <ele>926.8</ele>
        <time>2021-09-07T17:19:19Z</time>
      </trkpt>
      <trkpt lat="44.37479" lon="5.61593">
        <ele>926.8</ele>
        <time>2021-09-07T17:19:20Z</time>
      </trkpt>
      <trkpt lat="44.37479" lon="5.61593">
        <ele>926.8</ele>
        <time>2021-09-07T17:19:21Z</time>
      </trkpt>
      <trkpt lat="44.37479" lon="5.61593">
        <ele>926.8</ele>
        <time>2021-09-07T17:19:22Z</time>
      </trkpt>
      <trkpt lat="44.37478" lon="5.61593">
        <ele>926.8</ele>
        <time>2021-09-07T17:19:23Z</time>
      </trkpt>
      <trkpt lat="44.37478" lon="5.61593">
        <ele>926.8</ele>
        <time>2021-09-07T17:19:24Z</time>
      </trkpt>
      <trkpt lat="44.37478" lon="5.61593">
        <ele>926.8</ele>
        <time>2021-09-07T17:19:25Z</time>
      </trkpt>
      <trkpt lat="44.37478" lon="5.61593">
        <ele>926.8</ele>
        <time>2021-09-07T17:19:26Z</time>
      </trkpt>
      <trkpt lat="44.37478" lon="5.61593">
        <ele>926.8</ele>
        <time>2021-09-07T17:19:27Z</time>
      </trkpt>
      <trkpt lat="44.37477" lon="5.61593">
        <ele>926.8</ele>
        <time>2021-09-07T17:19:28Z</time>
      </trkpt>
      <trkpt lat="44.37477" lon="5.61593">
        <ele>926.8</ele>
        <time>2021-09-07T17:19:29Z</time>
      </trkpt>
      <trkpt lat="44.37477" lon="5.61593">
        <ele>926.8</ele>
        <time>2021-09-07T17:19:30Z</time>
      </trkpt>
      <trkpt lat="44.37477" lon="5.61593">
        <ele>926.8</ele>
        <time>2021-09-07T17:19:31Z</time>
      </trkpt>
      <trkpt lat="44.37477" lon="5.61589">
        <ele>926.8</ele>
        <time>2021-09-07T17:19:32Z</time>
      </trkpt>
      <trkpt lat="44.37478" lon="5.61588">
        <ele>926.8</ele>
        <time>2021-09-07T17:19:33Z</time>
      </trkpt>
      <trkpt lat="44.37478" lon="5.61587">
        <ele>926.8</ele>
        <time>2021-09-07T17:19:34Z</time>
      </trkpt>
      <trkpt lat="44.37478" lon="5.61584">
        <ele>926.8</ele>
        <time>2021-09-07T17:19:35Z</time>
      </trkpt>
      <trkpt lat="44.37479" lon="5.61581">
        <ele>926.8</ele>
        <time>2021-09-07T17:19:36Z</time>
      </trkpt>
      <trkpt lat="44.3748" lon="5.6158">
        <ele>926.8</ele>
        <time>2021-09-07T17:19:37Z</time>
      </trkpt>
      <trkpt lat="44.3748" lon="5.61578">
        <ele>926.8</ele>
        <time>2021-09-07T17:19:38Z</time>
      </trkpt>
      <trkpt lat="44.3748" lon="5.61577">
        <ele>926.8</ele>
        <time>2021-09-07T17:19:39Z</time>
      </trkpt>
      <trkpt lat="44.37481" lon="5.61576">
        <ele>926.8</ele>
        <time>2021-09-07T17:19:40Z</time>
      </trkpt>
      <trkpt lat="44.37481" lon="5.61576">
        <ele>926.8</ele>
        <time>2021-09-07T17:19:41Z</time>
      </trkpt>
      <trkpt lat="44.37481" lon="5.61575">
        <ele>926.8</ele>
        <time>2021-09-07T17:19:42Z</time>
      </trkpt>
      <trkpt lat="44.37481" lon="5.61574">
        <ele>926.8</ele>
        <time>2021-09-07T17:19:43Z</time>
      </trkpt>
      <trkpt lat="44.37482" lon="5.61574">
        <ele>926.8</ele>
        <time>2021-09-07T17:19:44Z</time>
      </trkpt>
      <trkpt lat="44.37482" lon="5.61574">
        <ele>926.8</ele>
        <time>2021-09-07T17:19:45Z</time>
      </trkpt>
      <trkpt lat="44.37482" lon="5.61573">
        <ele>926.8</ele>
        <time>2021-09-07T17:19:46Z</time>
      </trkpt>
      <trkpt lat="44.37482" lon="5.61573">
        <ele>926.8</ele>
        <time>2021-09-07T17:19:47Z</time>
      </trkpt>
      <trkpt lat="44.37482" lon="5.61573">
        <ele>926.8</ele>
        <time>2021-09-07T17:19:48Z</time>
      </trkpt>
      <trkpt lat="44.37482" lon="5.61573">
        <ele>926.8</ele>
        <time>2021-09-07T17:19:49Z</time>
      </trkpt>
      <trkpt lat="44.37482" lon="5.61573">
        <ele>926.8</ele>
        <time>2021-09-07T17:19:50Z</time>
      </trkpt>
      <trkpt lat="44.37482" lon="5.61573">
        <ele>926.8</ele>
        <time>2021-09-07T17:19:51Z</time>
      </trkpt>
      <trkpt lat="44.37482" lon="5.61573">
        <ele>926.8</ele>
        <time>2021-09-07T17:19:52Z</time>
      </trkpt>
      <trkpt lat="44.37482" lon="5.61573">
        <ele>926.8</ele>
        <time>2021-09-07T17:19:53Z</time>
      </trkpt>
      <trkpt lat="44.37482" lon="5.61573">
        <ele>926.8</ele>
        <time>2021-09-07T17:19:54Z</time>
      </trkpt>
      <trkpt lat="44.37482" lon="5.61573">
        <ele>926.8</ele>
        <time>2021-09-07T17:19:55Z</time>
      </trkpt>
      <trkpt lat="44.37483" lon="5.61573">
        <ele>926.7</ele>
        <time>2021-09-07T17:19:56Z</time>
      </trkpt>
      <trkpt lat="44.37483" lon="5.61573">
        <ele>926.7</ele>
        <time>2021-09-07T17:19:57Z</time>
      </trkpt>
      <trkpt lat="44.37483" lon="5.61573">
        <ele>926.7</ele>
        <time>2021-09-07T17:19:58Z</time>
      </trkpt>
      <trkpt lat="44.37483" lon="5.61573">
        <ele>926.7</ele>
        <time>2021-09-07T17:19:59Z</time>
      </trkpt>
      <trkpt lat="44.37483" lon="5.61573">
        <ele>926.7</ele>
        <time>2021-09-07T17:20:00Z</time>
      </trkpt>
      <trkpt lat="44.37483" lon="5.61572">
        <ele>926.7</ele>
        <time>2021-09-07T17:20:01Z</time>
      </trkpt>
      <trkpt lat="44.37483" lon="5.61572">
        <ele>926.7</ele>
        <time>2021-09-07T17:20:02Z</time>
      </trkpt>
      <trkpt lat="44.37483" lon="5.61572">
        <ele>926.7</ele>
        <time>2021-09-07T17:20:03Z</time>
      </trkpt>
      <trkpt lat="44.37483" lon="5.61572">
        <ele>926.7</ele>
        <time>2021-09-07T17:20:04Z</time>
      </trkpt>
      <trkpt lat="44.37483" lon="5.61572">
        <ele>926.7</ele>
        <time>2021-09-07T17:20:05Z</time>
      </trkpt>
      <trkpt lat="44.37482" lon="5.61572">
        <ele>926.7</ele>
        <time>2021-09-07T17:20:06Z</time>
      </trkpt>
      <trkpt lat="44.37482" lon="5.61572">
        <ele>926.7</ele>
        <time>2021-09-07T17:20:07Z</time>
      </trkpt>
      <trkpt lat="44.37482" lon="5.61572">
        <ele>926.7</ele>
        <time>2021-09-07T17:20:08Z</time>
      </trkpt>
      <trkpt lat="44.37482" lon="5.61572">
        <ele>926.7</ele>
        <time>2021-09-07T17:20:09Z</time>
      </trkpt>
      <trkpt lat="44.37483" lon="5.61572">
        <ele>926.7</ele>
        <time>2021-09-07T17:20:10Z</time>
      </trkpt>
      <trkpt lat="44.37482" lon="5.61572">
        <ele>926.7</ele>
        <time>2021-09-07T17:20:11Z</time>
      </trkpt>
      <trkpt lat="44.37482" lon="5.61572">
        <ele>926.7</ele>
        <time>2021-09-07T17:20:12Z</time>
      </trkpt>
      <trkpt lat="44.37482" lon="5.61572">
        <ele>926.7</ele>
        <time>2021-09-07T17:20:13Z</time>
      </trkpt>
      <trkpt lat="44.37482" lon="5.61572">
        <ele>926.7</ele>
        <time>2021-09-07T17:20:14Z</time>
      </trkpt>
      <trkpt lat="44.37482" lon="5.61572">
        <ele>926.7</ele>
        <time>2021-09-07T17:20:15Z</time>
      </trkpt>
      <trkpt lat="44.37482" lon="5.61572">
        <ele>926.7</ele>
        <time>2021-09-07T17:20:16Z</time>
      </trkpt>
      <trkpt lat="44.37482" lon="5.61572">
        <ele>926.7</ele>
        <time>2021-09-07T17:20:17Z</time>
      </trkpt>
      <trkpt lat="44.37482" lon="5.61572">
        <ele>926.7</ele>
        <time>2021-09-07T17:20:18Z</time>
      </trkpt>
      <trkpt lat="44.37482" lon="5.61572">
        <ele>926.7</ele>
        <time>2021-09-07T17:20:19Z</time>
      </trkpt>
      <trkpt lat="44.37482" lon="5.61572">
        <ele>926.7</ele>
        <time>2021-09-07T17:20:20Z</time>
      </trkpt>
      <trkpt lat="44.37482" lon="5.61572">
        <ele>926.7</ele>
        <time>2021-09-07T17:20:21Z</time>
      </trkpt>
      <trkpt lat="44.37482" lon="5.61572">
        <ele>926.7</ele>
        <time>2021-09-07T17:20:22Z</time>
      </trkpt>
      <trkpt lat="44.37482" lon="5.61572">
        <ele>926.7</ele>
        <time>2021-09-07T17:20:23Z</time>
      </trkpt>
      <trkpt lat="44.37482" lon="5.61573">
        <ele>926.7</ele>
        <time>2021-09-07T17:20:24Z</time>
      </trkpt>
      <trkpt lat="44.37482" lon="5.61573">
        <ele>926.7</ele>
        <time>2021-09-07T17:20:25Z</time>
      </trkpt>
      <trkpt lat="44.37482" lon="5.61573">
        <ele>926.7</ele>
        <time>2021-09-07T17:20:26Z</time>
      </trkpt>
      <trkpt lat="44.37482" lon="5.61573">
        <ele>926.7</ele>
        <time>2021-09-07T17:20:27Z</time>
      </trkpt>
      <trkpt lat="44.37482" lon="5.61573">
        <ele>926.7</ele>
        <time>2021-09-07T17:20:28Z</time>
      </trkpt>
      <trkpt lat="44.37482" lon="5.61573">
        <ele>926.7</ele>
        <time>2021-09-07T17:20:29Z</time>
      </trkpt>
      <trkpt lat="44.37481" lon="5.61573">
        <ele>926.7</ele>
        <time>2021-09-07T17:20:30Z</time>
      </trkpt>
      <trkpt lat="44.37481" lon="5.61573">
        <ele>926.7</ele>
        <time>2021-09-07T17:20:31Z</time>
      </trkpt>
      <trkpt lat="44.37481" lon="5.61573">
        <ele>926.7</ele>
        <time>2021-09-07T17:20:32Z</time>
      </trkpt>
      <trkpt lat="44.37481" lon="5.61573">
        <ele>926.7</ele>
        <time>2021-09-07T17:20:33Z</time>
      </trkpt>
      <trkpt lat="44.37481" lon="5.61573">
        <ele>926.7</ele>
        <time>2021-09-07T17:20:34Z</time>
      </trkpt>
      <trkpt lat="44.37482" lon="5.61573">
        <ele>926.7</ele>
        <time>2021-09-07T17:20:35Z</time>
      </trkpt>
      <trkpt lat="44.37482" lon="5.61573">
        <ele>926.7</ele>
        <time>2021-09-07T17:20:36Z</time>
      </trkpt>
      <trkpt lat="44.37482" lon="5.61573">
        <ele>926.7</ele>
        <time>2021-09-07T17:20:37Z</time>
      </trkpt>
      <trkpt lat="44.37481" lon="5.61573">
        <ele>926.7</ele>
        <time>2021-09-07T17:20:38Z</time>
      </trkpt>
      <trkpt lat="44.37481" lon="5.61573">
        <ele>926.7</ele>
        <time>2021-09-07T17:20:39Z</time>
      </trkpt>
      <trkpt lat="44.37481" lon="5.61574">
        <ele>926.7</ele>
        <time>2021-09-07T17:20:40Z</time>
      </trkpt>
      <trkpt lat="44.37481" lon="5.61574">
        <ele>926.7</ele>
        <time>2021-09-07T17:20:41Z</time>
      </trkpt>
      <trkpt lat="44.37481" lon="5.61576">
        <ele>926.6</ele>
        <time>2021-09-07T17:20:42Z</time>
      </trkpt>
      <trkpt lat="44.37481" lon="5.61577">
        <ele>926.6</ele>
        <time>2021-09-07T17:20:43Z</time>
      </trkpt>
      <trkpt lat="44.37481" lon="5.61578">
        <ele>926.6</ele>
        <time>2021-09-07T17:20:44Z</time>
      </trkpt>
      <trkpt lat="44.37481" lon="5.61579">
        <ele>926.6</ele>
        <time>2021-09-07T17:20:45Z</time>
      </trkpt>
      <trkpt lat="44.3748" lon="5.6158">
        <ele>926.6</ele>
        <time>2021-09-07T17:20:46Z</time>
      </trkpt>
      <trkpt lat="44.37479" lon="5.61581">
        <ele>926.6</ele>
        <time>2021-09-07T17:20:47Z</time>
      </trkpt>
      <trkpt lat="44.37477" lon="5.61581">
        <ele>926.6</ele>
        <time>2021-09-07T17:20:48Z</time>
      </trkpt>
      <trkpt lat="44.37475" lon="5.61582">
        <ele>926.5</ele>
        <time>2021-09-07T17:20:49Z</time>
      </trkpt>
      <trkpt lat="44.37473" lon="5.61582">
        <ele>926.5</ele>
        <time>2021-09-07T17:20:50Z</time>
      </trkpt>
      <trkpt lat="44.37471" lon="5.61584">
        <ele>926.5</ele>
        <time>2021-09-07T17:20:51Z</time>
      </trkpt>
      <trkpt lat="44.37469" lon="5.61586">
        <ele>926.4</ele>
        <time>2021-09-07T17:20:52Z</time>
      </trkpt>
      <trkpt lat="44.37467" lon="5.61587">
        <ele>926.4</ele>
        <time>2021-09-07T17:20:53Z</time>
      </trkpt>
      <trkpt lat="44.37465" lon="5.61589">
        <ele>926.4</ele>
        <time>2021-09-07T17:20:54Z</time>
      </trkpt>
      <trkpt lat="44.37463" lon="5.6159">
        <ele>926.3</ele>
        <time>2021-09-07T17:20:55Z</time>
      </trkpt>
      <trkpt lat="44.37461" lon="5.6159">
        <ele>926.3</ele>
        <time>2021-09-07T17:20:56Z</time>
      </trkpt>
      <trkpt lat="44.37459" lon="5.61592">
        <ele>926.3</ele>
        <time>2021-09-07T17:20:57Z</time>
      </trkpt>
      <trkpt lat="44.37457" lon="5.61593">
        <ele>926.2</ele>
        <time>2021-09-07T17:20:58Z</time>
      </trkpt>
      <trkpt lat="44.37455" lon="5.61594">
        <ele>926.2</ele>
        <time>2021-09-07T17:20:59Z</time>
      </trkpt>
      <trkpt lat="44.37453" lon="5.61596">
        <ele>926.1</ele>
        <time>2021-09-07T17:21:00Z</time>
      </trkpt>
      <trkpt lat="44.3745" lon="5.61599">
        <ele>926.1</ele>
        <time>2021-09-07T17:21:01Z</time>
      </trkpt>
      <trkpt lat="44.37448" lon="5.61602">
        <ele>926</ele>
        <time>2021-09-07T17:21:02Z</time>
      </trkpt>
      <trkpt lat="44.37446" lon="5.61604">
        <ele>925.9</ele>
        <time>2021-09-07T17:21:03Z</time>
      </trkpt>
      <trkpt lat="44.37443" lon="5.61605">
        <ele>925.9</ele>
        <time>2021-09-07T17:21:04Z</time>
      </trkpt>
      <trkpt lat="44.37441" lon="5.61608">
        <ele>925.8</ele>
        <time>2021-09-07T17:21:05Z</time>
      </trkpt>
      <trkpt lat="44.37439" lon="5.6161">
        <ele>925.8</ele>
        <time>2021-09-07T17:21:06Z</time>
      </trkpt>
      <trkpt lat="44.37437" lon="5.61611">
        <ele>925.7</ele>
        <time>2021-09-07T17:21:07Z</time>
      </trkpt>
      <trkpt lat="44.37435" lon="5.61611">
        <ele>925.7</ele>
        <time>2021-09-07T17:21:08Z</time>
      </trkpt>
      <trkpt lat="44.37432" lon="5.61611">
        <ele>925.6</ele>
        <time>2021-09-07T17:21:09Z</time>
      </trkpt>
      <trkpt lat="44.37428" lon="5.61612">
        <ele>925.6</ele>
        <time>2021-09-07T17:21:10Z</time>
      </trkpt>
      <trkpt lat="44.37425" lon="5.61613">
        <ele>925.6</ele>
        <time>2021-09-07T17:21:11Z</time>
      </trkpt>
      <trkpt lat="44.37422" lon="5.61614">
        <ele>925.5</ele>
        <time>2021-09-07T17:21:12Z</time>
      </trkpt>
      <trkpt lat="44.37421" lon="5.61615">
        <ele>925.5</ele>
        <time>2021-09-07T17:21:13Z</time>
      </trkpt>
      <trkpt lat="44.37419" lon="5.61616">
        <ele>925.5</ele>
        <time>2021-09-07T17:21:14Z</time>
      </trkpt>
      <trkpt lat="44.37419" lon="5.61617">
        <ele>925.5</ele>
        <time>2021-09-07T17:21:15Z</time>
      </trkpt>
      <trkpt lat="44.37418" lon="5.61617">
        <ele>925.4</ele>
        <time>2021-09-07T17:21:16Z</time>
      </trkpt>
      <trkpt lat="44.37419" lon="5.61617">
        <ele>925.4</ele>
        <time>2021-09-07T17:21:17Z</time>
      </trkpt>
      <trkpt lat="44.37419" lon="5.61616">
        <ele>925.4</ele>
        <time>2021-09-07T17:21:18Z</time>
      </trkpt>
      <trkpt lat="44.37419" lon="5.61616">
        <ele>925.4</ele>
        <time>2021-09-07T17:21:19Z</time>
      </trkpt>
      <trkpt lat="44.37419" lon="5.61616">
        <ele>925.4</ele>
        <time>2021-09-07T17:21:20Z</time>
      </trkpt>
      <trkpt lat="44.37419" lon="5.61616">
        <ele>925.4</ele>
        <time>2021-09-07T17:21:21Z</time>
      </trkpt>
      <trkpt lat="44.37419" lon="5.61617">
        <ele>925.4</ele>
        <time>2021-09-07T17:21:22Z</time>
      </trkpt>
      <trkpt lat="44.37419" lon="5.61617">
        <ele>925.4</ele>
        <time>2021-09-07T17:21:23Z</time>
      </trkpt>
      <trkpt lat="44.37419" lon="5.61617">
        <ele>925.4</ele>
        <time>2021-09-07T17:21:24Z</time>
      </trkpt>
      <trkpt lat="44.37419" lon="5.61617">
        <ele>925.4</ele>
        <time>2021-09-07T17:21:25Z</time>
      </trkpt>
      <trkpt lat="44.37419" lon="5.61617">
        <ele>925.4</ele>
        <time>2021-09-07T17:21:26Z</time>
      </trkpt>
      <trkpt lat="44.37419" lon="5.61617">
        <ele>925.4</ele>
        <time>2021-09-07T17:21:27Z</time>
      </trkpt>
      <trkpt lat="44.37419" lon="5.61617">
        <ele>925.4</ele>
        <time>2021-09-07T17:21:28Z</time>
      </trkpt>
      <trkpt lat="44.37419" lon="5.61617">
        <ele>925.4</ele>
        <time>2021-09-07T17:21:29Z</time>
      </trkpt>
      <trkpt lat="44.37419" lon="5.61617">
        <ele>925.4</ele>
        <time>2021-09-07T17:21:30Z</time>
      </trkpt>
      <trkpt lat="44.37419" lon="5.61617">
        <ele>925.4</ele>
        <time>2021-09-07T17:21:31Z</time>
      </trkpt>
      <trkpt lat="44.37419" lon="5.61617">
        <ele>925.4</ele>
        <time>2021-09-07T17:21:32Z</time>
      </trkpt>
      <trkpt lat="44.37419" lon="5.61617">
        <ele>925.4</ele>
        <time>2021-09-07T17:21:33Z</time>
      </trkpt>
      <trkpt lat="44.37419" lon="5.61617">
        <ele>925.4</ele>
        <time>2021-09-07T17:21:34Z</time>
      </trkpt>
      <trkpt lat="44.37419" lon="5.61617">
        <ele>925.4</ele>
        <time>2021-09-07T17:21:35Z</time>
      </trkpt>
      <trkpt lat="44.37419" lon="5.61617">
        <ele>925.4</ele>
        <time>2021-09-07T17:21:36Z</time>
      </trkpt>
      <trkpt lat="44.37419" lon="5.61617">
        <ele>925.4</ele>
        <time>2021-09-07T17:21:37Z</time>
      </trkpt>
      <trkpt lat="44.37419" lon="5.61617">
        <ele>925.4</ele>
        <time>2021-09-07T17:21:38Z</time>
      </trkpt>
      <trkpt lat="44.37419" lon="5.61617">
        <ele>925.4</ele>
        <time>2021-09-07T17:21:39Z</time>
      </trkpt>
      <trkpt lat="44.37419" lon="5.61617">
        <ele>925.4</ele>
        <time>2021-09-07T17:21:40Z</time>
      </trkpt>
      <trkpt lat="44.37419" lon="5.61617">
        <ele>925.4</ele>
        <time>2021-09-07T17:21:41Z</time>
      </trkpt>
      <trkpt lat="44.37419" lon="5.61617">
        <ele>925.4</ele>
        <time>2021-09-07T17:21:42Z</time>
      </trkpt>
      <trkpt lat="44.37419" lon="5.61617">
        <ele>925.4</ele>
        <time>2021-09-07T17:21:43Z</time>
      </trkpt>
      <trkpt lat="44.37419" lon="5.61617">
        <ele>925.4</ele>
        <time>2021-09-07T17:21:44Z</time>
      </trkpt>
      <trkpt lat="44.37419" lon="5.61617">
        <ele>925.4</ele>
        <time>2021-09-07T17:21:45Z</time>
      </trkpt>
      <trkpt lat="44.37419" lon="5.61617">
        <ele>925.4</ele>
        <time>2021-09-07T17:21:46Z</time>
      </trkpt>
      <trkpt lat="44.3742" lon="5.61614">
        <ele>925.4</ele>
        <time>2021-09-07T17:21:47Z</time>
      </trkpt>
      <trkpt lat="44.3742" lon="5.61611">
        <ele>925.3</ele>
        <time>2021-09-07T17:21:48Z</time>
      </trkpt>
      <trkpt lat="44.37421" lon="5.61608">
        <ele>925.3</ele>
        <time>2021-09-07T17:21:49Z</time>
      </trkpt>
      <trkpt lat="44.37422" lon="5.61605">
        <ele>925.2</ele>
        <time>2021-09-07T17:21:50Z</time>
      </trkpt>
      <trkpt lat="44.37422" lon="5.61603">
        <ele>925.2</ele>
        <time>2021-09-07T17:21:51Z</time>
      </trkpt>
      <trkpt lat="44.37423" lon="5.61602">
        <ele>925.1</ele>
        <time>2021-09-07T17:21:52Z</time>
      </trkpt>
      <trkpt lat="44.37423" lon="5.61601">
        <ele>925.1</ele>
        <time>2021-09-07T17:21:53Z</time>
      </trkpt>
      <trkpt lat="44.37423" lon="5.61601">
        <ele>925.1</ele>
        <time>2021-09-07T17:21:54Z</time>
      </trkpt>
      <trkpt lat="44.37423" lon="5.61601">
        <ele>925.1</ele>
        <time>2021-09-07T17:21:55Z</time>
      </trkpt>
      <trkpt lat="44.37423" lon="5.61601">
        <ele>925.1</ele>
        <time>2021-09-07T17:21:56Z</time>
      </trkpt>
      <trkpt lat="44.37423" lon="5.61601">
        <ele>925.1</ele>
        <time>2021-09-07T17:21:57Z</time>
      </trkpt>
      <trkpt lat="44.37423" lon="5.61601">
        <ele>925.1</ele>
        <time>2021-09-07T17:21:58Z</time>
      </trkpt>
      <trkpt lat="44.37423" lon="5.61601">
        <ele>925.1</ele>
        <time>2021-09-07T17:21:59Z</time>
      </trkpt>
      <trkpt lat="44.37423" lon="5.61601">
        <ele>925.1</ele>
        <time>2021-09-07T17:22:00Z</time>
      </trkpt>
      <trkpt lat="44.37423" lon="5.61601">
        <ele>925.1</ele>
        <time>2021-09-07T17:22:01Z</time>
      </trkpt>
      <trkpt lat="44.37423" lon="5.61601">
        <ele>925.1</ele>
        <time>2021-09-07T17:22:02Z</time>
      </trkpt>
      <trkpt lat="44.37423" lon="5.61601">
        <ele>925.1</ele>
        <time>2021-09-07T17:22:03Z</time>
      </trkpt>
      <trkpt lat="44.37423" lon="5.61601">
        <ele>925.1</ele>
        <time>2021-09-07T17:22:04Z</time>
      </trkpt>
      <trkpt lat="44.37423" lon="5.61601">
        <ele>925.1</ele>
        <time>2021-09-07T17:22:05Z</time>
      </trkpt>
      <trkpt lat="44.37423" lon="5.61601">
        <ele>925.1</ele>
        <time>2021-09-07T17:22:06Z</time>
      </trkpt>
      <trkpt lat="44.37423" lon="5.61601">
        <ele>925.1</ele>
        <time>2021-09-07T17:22:07Z</time>
      </trkpt>
      <trkpt lat="44.37423" lon="5.61601">
        <ele>925.1</ele>
        <time>2021-09-07T17:22:08Z</time>
      </trkpt>
      <trkpt lat="44.37423" lon="5.61601">
        <ele>925.1</ele>
        <time>2021-09-07T17:22:09Z</time>
      </trkpt>
      <trkpt lat="44.37423" lon="5.61601">
        <ele>925.1</ele>
        <time>2021-09-07T17:22:10Z</time>
      </trkpt>
      <trkpt lat="44.37423" lon="5.61601">
        <ele>925.1</ele>
        <time>2021-09-07T17:22:11Z</time>
      </trkpt>
      <trkpt lat="44.37423" lon="5.61601">
        <ele>925.1</ele>
        <time>2021-09-07T17:22:12Z</time>
      </trkpt>
      <trkpt lat="44.37423" lon="5.61601">
        <ele>925.1</ele>
        <time>2021-09-07T17:22:13Z</time>
      </trkpt>
      <trkpt lat="44.37423" lon="5.61601">
        <ele>925.1</ele>
        <time>2021-09-07T17:22:14Z</time>
      </trkpt>
      <trkpt lat="44.37423" lon="5.61601">
        <ele>925.1</ele>
        <time>2021-09-07T17:22:15Z</time>
      </trkpt>
      <trkpt lat="44.37423" lon="5.61601">
        <ele>925.1</ele>
        <time>2021-09-07T17:22:16Z</time>
      </trkpt>
      <trkpt lat="44.37423" lon="5.61601">
        <ele>925.1</ele>
        <time>2021-09-07T17:22:17Z</time>
      </trkpt>
      <trkpt lat="44.37423" lon="5.61601">
        <ele>925.1</ele>
        <time>2021-09-07T17:22:18Z</time>
      </trkpt>
      <trkpt lat="44.37423" lon="5.61601">
        <ele>925.1</ele>
        <time>2021-09-07T17:22:19Z</time>
      </trkpt>
      <trkpt lat="44.37423" lon="5.61601">
        <ele>925.1</ele>
        <time>2021-09-07T17:22:20Z</time>
      </trkpt>
      <trkpt lat="44.37421" lon="5.61602">
        <ele>925</ele>
        <time>2021-09-07T17:22:21Z</time>
      </trkpt>
      <trkpt lat="44.37417" lon="5.61602">
        <ele>924.8</ele>
        <time>2021-09-07T17:22:22Z</time>
      </trkpt>
      <trkpt lat="44.37414" lon="5.61602">
        <ele>924.7</ele>
        <time>2021-09-07T17:22:23Z</time>
      </trkpt>
      <trkpt lat="44.3741" lon="5.61601">
        <ele>924.5</ele>
        <time>2021-09-07T17:22:24Z</time>
      </trkpt>
      <trkpt lat="44.37405" lon="5.616">
        <ele>924.2</ele>
        <time>2021-09-07T17:22:25Z</time>
      </trkpt>
      <trkpt lat="44.37399" lon="5.616">
        <ele>923.9</ele>
        <time>2021-09-07T17:22:26Z</time>
      </trkpt>
      <trkpt lat="44.37394" lon="5.61601">
        <ele>923.7</ele>
        <time>2021-09-07T17:22:27Z</time>
      </trkpt>
      <trkpt lat="44.37389" lon="5.61602">
        <ele>923.4</ele>
        <time>2021-09-07T17:22:28Z</time>
      </trkpt>
      <trkpt lat="44.37385" lon="5.61601">
        <ele>923.2</ele>
        <time>2021-09-07T17:22:29Z</time>
      </trkpt>
      <trkpt lat="44.37382" lon="5.61601">
        <ele>923</ele>
        <time>2021-09-07T17:22:30Z</time>
      </trkpt>
      <trkpt lat="44.3738" lon="5.61602">
        <ele>922.9</ele>
        <time>2021-09-07T17:22:31Z</time>
      </trkpt>
      <trkpt lat="44.37378" lon="5.61602">
        <ele>922.8</ele>
        <time>2021-09-07T17:22:32Z</time>
      </trkpt>
      <trkpt lat="44.37377" lon="5.61602">
        <ele>922.7</ele>
        <time>2021-09-07T17:22:33Z</time>
      </trkpt>
      <trkpt lat="44.37376" lon="5.61602">
        <ele>922.7</ele>
        <time>2021-09-07T17:22:34Z</time>
      </trkpt>
      <trkpt lat="44.37375" lon="5.61602">
        <ele>922.6</ele>
        <time>2021-09-07T17:22:35Z</time>
      </trkpt>
      <trkpt lat="44.37375" lon="5.61602">
        <ele>922.6</ele>
        <time>2021-09-07T17:22:36Z</time>
      </trkpt>
      <trkpt lat="44.37374" lon="5.61602">
        <ele>922.5</ele>
        <time>2021-09-07T17:22:37Z</time>
      </trkpt>
      <trkpt lat="44.37373" lon="5.61602">
        <ele>922.5</ele>
        <time>2021-09-07T17:22:38Z</time>
      </trkpt>
      <trkpt lat="44.37373" lon="5.61603">
        <ele>922.5</ele>
        <time>2021-09-07T17:22:39Z</time>
      </trkpt>
      <trkpt lat="44.37372" lon="5.61603">
        <ele>922.4</ele>
        <time>2021-09-07T17:22:40Z</time>
      </trkpt>
      <trkpt lat="44.37371" lon="5.61603">
        <ele>922.4</ele>
        <time>2021-09-07T17:22:41Z</time>
      </trkpt>
      <trkpt lat="44.37371" lon="5.61603">
        <ele>922.4</ele>
        <time>2021-09-07T17:22:42Z</time>
      </trkpt>
      <trkpt lat="44.3737" lon="5.61603">
        <ele>922.3</ele>
        <time>2021-09-07T17:22:43Z</time>
      </trkpt>
      <trkpt lat="44.37369" lon="5.61603">
        <ele>922.3</ele>
        <time>2021-09-07T17:22:44Z</time>
      </trkpt>
      <trkpt lat="44.37368" lon="5.61603">
        <ele>922.2</ele>
        <time>2021-09-07T17:22:45Z</time>
      </trkpt>
      <trkpt lat="44.37368" lon="5.61603">
        <ele>922.2</ele>
        <time>2021-09-07T17:22:46Z</time>
      </trkpt>
      <trkpt lat="44.37367" lon="5.61604">
        <ele>922.2</ele>
        <time>2021-09-07T17:22:47Z</time>
      </trkpt>
      <trkpt lat="44.37366" lon="5.61604">
        <ele>922.1</ele>
        <time>2021-09-07T17:22:48Z</time>
      </trkpt>
      <trkpt lat="44.37366" lon="5.61604">
        <ele>922.1</ele>
        <time>2021-09-07T17:22:49Z</time>
      </trkpt>
      <trkpt lat="44.37365" lon="5.61604">
        <ele>922</ele>
        <time>2021-09-07T17:22:50Z</time>
      </trkpt>
      <trkpt lat="44.37364" lon="5.61604">
        <ele>922</ele>
        <time>2021-09-07T17:22:51Z</time>
      </trkpt>
      <trkpt lat="44.37364" lon="5.61604">
        <ele>922</ele>
        <time>2021-09-07T17:22:52Z</time>
      </trkpt>
      <trkpt lat="44.37363" lon="5.61604">
        <ele>921.9</ele>
        <time>2021-09-07T17:22:53Z</time>
      </trkpt>
      <trkpt lat="44.37362" lon="5.61605">
        <ele>921.9</ele>
        <time>2021-09-07T17:22:54Z</time>
      </trkpt>
      <trkpt lat="44.37362" lon="5.61605">
        <ele>921.9</ele>
        <time>2021-09-07T17:22:55Z</time>
      </trkpt>
      <trkpt lat="44.37361" lon="5.61605">
        <ele>921.8</ele>
        <time>2021-09-07T17:22:56Z</time>
      </trkpt>
      <trkpt lat="44.3736" lon="5.61605">
        <ele>921.8</ele>
        <time>2021-09-07T17:22:57Z</time>
      </trkpt>
      <trkpt lat="44.37359" lon="5.61605">
        <ele>921.7</ele>
        <time>2021-09-07T17:22:58Z</time>
      </trkpt>
      <trkpt lat="44.37359" lon="5.61605">
        <ele>921.7</ele>
        <time>2021-09-07T17:22:59Z</time>
      </trkpt>
      <trkpt lat="44.37358" lon="5.61605">
        <ele>921.6</ele>
        <time>2021-09-07T17:23:00Z</time>
      </trkpt>
      <trkpt lat="44.37345" lon="5.6161">
        <ele>920.7</ele>
        <time>2021-09-07T17:23:01Z</time>
      </trkpt>
      <trkpt lat="44.37335" lon="5.61613">
        <ele>919.9</ele>
        <time>2021-09-07T17:23:02Z</time>
      </trkpt>
      <trkpt lat="44.37327" lon="5.61615">
        <ele>919.2</ele>
        <time>2021-09-07T17:23:03Z</time>
      </trkpt>
      <trkpt lat="44.37318" lon="5.61617">
        <ele>918.4</ele>
        <time>2021-09-07T17:23:04Z</time>
      </trkpt>
      <trkpt lat="44.3731" lon="5.61618">
        <ele>917.7</ele>
        <time>2021-09-07T17:23:05Z</time>
      </trkpt>
      <trkpt lat="44.37302" lon="5.61619">
        <ele>917</ele>
        <time>2021-09-07T17:23:06Z</time>
      </trkpt>
      <trkpt lat="44.37295" lon="5.6162">
        <ele>916.3</ele>
        <time>2021-09-07T17:23:07Z</time>
      </trkpt>
      <trkpt lat="44.37287" lon="5.61621">
        <ele>915.6</ele>
        <time>2021-09-07T17:23:08Z</time>
      </trkpt>
      <trkpt lat="44.37279" lon="5.61623">
        <ele>914.9</ele>
        <time>2021-09-07T17:23:09Z</time>
      </trkpt>
      <trkpt lat="44.37272" lon="5.61623">
        <ele>914.3</ele>
        <time>2021-09-07T17:23:10Z</time>
      </trkpt>
      <trkpt lat="44.37266" lon="5.61623">
        <ele>913.8</ele>
        <time>2021-09-07T17:23:11Z</time>
      </trkpt>
      <trkpt lat="44.37259" lon="5.61623">
        <ele>913.3</ele>
        <time>2021-09-07T17:23:12Z</time>
      </trkpt>
      <trkpt lat="44.37254" lon="5.61622">
        <ele>912.8</ele>
        <time>2021-09-07T17:23:13Z</time>
      </trkpt>
      <trkpt lat="44.37248" lon="5.6162">
        <ele>912.3</ele>
        <time>2021-09-07T17:23:14Z</time>
      </trkpt>
      <trkpt lat="44.37243" lon="5.61617">
        <ele>910.5</ele>
        <time>2021-09-07T17:23:15Z</time>
      </trkpt>
      <trkpt lat="44.37238" lon="5.61613">
        <ele>907.9</ele>
        <time>2021-09-07T17:23:16Z</time>
      </trkpt>
      <trkpt lat="44.37235" lon="5.61609">
        <ele>906.2</ele>
        <time>2021-09-07T17:23:17Z</time>
      </trkpt>
      <trkpt lat="44.37231" lon="5.61604">
        <ele>904.4</ele>
        <time>2021-09-07T17:23:18Z</time>
      </trkpt>
      <trkpt lat="44.37229" lon="5.61599">
        <ele>902.5</ele>
        <time>2021-09-07T17:23:19Z</time>
      </trkpt>
      <trkpt lat="44.37227" lon="5.61594">
        <ele>900.3</ele>
        <time>2021-09-07T17:23:20Z</time>
      </trkpt>
      <trkpt lat="44.37226" lon="5.6159">
        <ele>899</ele>
        <time>2021-09-07T17:23:21Z</time>
      </trkpt>
      <trkpt lat="44.37226" lon="5.61587">
        <ele>898.8</ele>
        <time>2021-09-07T17:23:22Z</time>
      </trkpt>
      <trkpt lat="44.37229" lon="5.61587">
        <ele>898.6</ele>
        <time>2021-09-07T17:23:23Z</time>
      </trkpt>
      <trkpt lat="44.37231" lon="5.61586">
        <ele>898.5</ele>
        <time>2021-09-07T17:23:24Z</time>
      </trkpt>
      <trkpt lat="44.37233" lon="5.61582">
        <ele>898.4</ele>
        <time>2021-09-07T17:23:25Z</time>
      </trkpt>
      <trkpt lat="44.37235" lon="5.61578">
        <ele>898.3</ele>
        <time>2021-09-07T17:23:26Z</time>
      </trkpt>
      <trkpt lat="44.37237" lon="5.61576">
        <ele>898.2</ele>
        <time>2021-09-07T17:23:27Z</time>
      </trkpt>
      <trkpt lat="44.37237" lon="5.61575">
        <ele>898.2</ele>
        <time>2021-09-07T17:23:28Z</time>
      </trkpt>
      <trkpt lat="44.37237" lon="5.61574">
        <ele>898.2</ele>
        <time>2021-09-07T17:23:29Z</time>
      </trkpt>
      <trkpt lat="44.37236" lon="5.61574">
        <ele>898.2</ele>
        <time>2021-09-07T17:23:30Z</time>
      </trkpt>
      <trkpt lat="44.37235" lon="5.61573">
        <ele>898.2</ele>
        <time>2021-09-07T17:23:31Z</time>
      </trkpt>
      <trkpt lat="44.37233" lon="5.61574">
        <ele>898.1</ele>
        <time>2021-09-07T17:23:32Z</time>
      </trkpt>
      <trkpt lat="44.37229" lon="5.61577">
        <ele>898</ele>
        <time>2021-09-07T17:23:33Z</time>
      </trkpt>
      <trkpt lat="44.37225" lon="5.6158">
        <ele>897.7</ele>
        <time>2021-09-07T17:23:34Z</time>
      </trkpt>
      <trkpt lat="44.37219" lon="5.61582">
        <ele>897</ele>
        <time>2021-09-07T17:23:35Z</time>
      </trkpt>
      <trkpt lat="44.37213" lon="5.61585">
        <ele>896</ele>
        <time>2021-09-07T17:23:36Z</time>
      </trkpt>
      <trkpt lat="44.37207" lon="5.61588">
        <ele>894.7</ele>
        <time>2021-09-07T17:23:37Z</time>
      </trkpt>
      <trkpt lat="44.372" lon="5.61591">
        <ele>893.2</ele>
        <time>2021-09-07T17:23:38Z</time>
      </trkpt>
      <trkpt lat="44.37193" lon="5.61594">
        <ele>891.8</ele>
        <time>2021-09-07T17:23:39Z</time>
      </trkpt>
      <trkpt lat="44.37185" lon="5.61597">
        <ele>890.7</ele>
        <time>2021-09-07T17:23:40Z</time>
      </trkpt>
      <trkpt lat="44.3718" lon="5.616">
        <ele>889.9</ele>
        <time>2021-09-07T17:23:41Z</time>
      </trkpt>
      <trkpt lat="44.37174" lon="5.61602">
        <ele>889.2</ele>
        <time>2021-09-07T17:23:42Z</time>
      </trkpt>
      <trkpt lat="44.37171" lon="5.61605">
        <ele>888.8</ele>
        <time>2021-09-07T17:23:43Z</time>
      </trkpt>
      <trkpt lat="44.37168" lon="5.61607">
        <ele>888.3</ele>
        <time>2021-09-07T17:23:44Z</time>
      </trkpt>
      <trkpt lat="44.37165" lon="5.61612">
        <ele>887.7</ele>
        <time>2021-09-07T17:23:45Z</time>
      </trkpt>
      <trkpt lat="44.37161" lon="5.61616">
        <ele>887</ele>
        <time>2021-09-07T17:23:46Z</time>
      </trkpt>
      <trkpt lat="44.37158" lon="5.61619">
        <ele>886.4</ele>
        <time>2021-09-07T17:23:47Z</time>
      </trkpt>
      <trkpt lat="44.37156" lon="5.6162">
        <ele>886.1</ele>
        <time>2021-09-07T17:23:48Z</time>
      </trkpt>
      <trkpt lat="44.37154" lon="5.61622">
        <ele>885.8</ele>
        <time>2021-09-07T17:23:49Z</time>
      </trkpt>
      <trkpt lat="44.37151" lon="5.61623">
        <ele>885.4</ele>
        <time>2021-09-07T17:23:50Z</time>
      </trkpt>
      <trkpt lat="44.37149" lon="5.61625">
        <ele>885</ele>
        <time>2021-09-07T17:23:51Z</time>
      </trkpt>
      <trkpt lat="44.37146" lon="5.61626">
        <ele>884.7</ele>
        <time>2021-09-07T17:23:52Z</time>
      </trkpt>
      <trkpt lat="44.37138" lon="5.61628">
        <ele>883.7</ele>
        <time>2021-09-07T17:23:53Z</time>
      </trkpt>
      <trkpt lat="44.37131" lon="5.6163">
        <ele>882.9</ele>
        <time>2021-09-07T17:23:54Z</time>
      </trkpt>
      <trkpt lat="44.37122" lon="5.61632">
        <ele>881.9</ele>
        <time>2021-09-07T17:23:55Z</time>
      </trkpt>
      <trkpt lat="44.37113" lon="5.61633">
        <ele>881</ele>
        <time>2021-09-07T17:23:56Z</time>
      </trkpt>
      <trkpt lat="44.37103" lon="5.61636">
        <ele>880</ele>
        <time>2021-09-07T17:23:57Z</time>
      </trkpt>
      <trkpt lat="44.37093" lon="5.61639">
        <ele>879.2</ele>
        <time>2021-09-07T17:23:58Z</time>
      </trkpt>
      <trkpt lat="44.37084" lon="5.61642">
        <ele>878.5</ele>
        <time>2021-09-07T17:23:59Z</time>
      </trkpt>
      <trkpt lat="44.37076" lon="5.61645">
        <ele>878.2</ele>
        <time>2021-09-07T17:24:00Z</time>
      </trkpt>
      <trkpt lat="44.37068" lon="5.61648">
        <ele>877.9</ele>
        <time>2021-09-07T17:24:01Z</time>
      </trkpt>
      <trkpt lat="44.3706" lon="5.6165">
        <ele>877.8</ele>
        <time>2021-09-07T17:24:02Z</time>
      </trkpt>
      <trkpt lat="44.37052" lon="5.61652">
        <ele>877.4</ele>
        <time>2021-09-07T17:24:03Z</time>
      </trkpt>
      <trkpt lat="44.37044" lon="5.61654">
        <ele>876.8</ele>
        <time>2021-09-07T17:24:04Z</time>
      </trkpt>
      <trkpt lat="44.37036" lon="5.61656">
        <ele>876.1</ele>
        <time>2021-09-07T17:24:05Z</time>
      </trkpt>
      <trkpt lat="44.37027" lon="5.61655">
        <ele>875.7</ele>
        <time>2021-09-07T17:24:06Z</time>
      </trkpt>
      <trkpt lat="44.37018" lon="5.61654">
        <ele>875.5</ele>
        <time>2021-09-07T17:24:07Z</time>
      </trkpt>
      <trkpt lat="44.37009" lon="5.61653">
        <ele>875.6</ele>
        <time>2021-09-07T17:24:08Z</time>
      </trkpt>
      <trkpt lat="44.37" lon="5.61653">
        <ele>875.8</ele>
        <time>2021-09-07T17:24:09Z</time>
      </trkpt>
      <trkpt lat="44.36993" lon="5.61654">
        <ele>875.9</ele>
        <time>2021-09-07T17:24:10Z</time>
      </trkpt>
      <trkpt lat="44.36985" lon="5.61655">
        <ele>875.9</ele>
        <time>2021-09-07T17:24:11Z</time>
      </trkpt>
      <trkpt lat="44.36978" lon="5.61655">
        <ele>875.7</ele>
        <time>2021-09-07T17:24:12Z</time>
      </trkpt>
      <trkpt lat="44.36972" lon="5.61656">
        <ele>875.5</ele>
        <time>2021-09-07T17:24:13Z</time>
      </trkpt>
      <trkpt lat="44.36965" lon="5.61657">
        <ele>875.3</ele>
        <time>2021-09-07T17:24:14Z</time>
      </trkpt>
      <trkpt lat="44.36958" lon="5.61658">
        <ele>875.3</ele>
        <time>2021-09-07T17:24:15Z</time>
      </trkpt>
      <trkpt lat="44.3695" lon="5.61659">
        <ele>875.3</ele>
        <time>2021-09-07T17:24:16Z</time>
      </trkpt>
      <trkpt lat="44.36944" lon="5.61661">
        <ele>875.3</ele>
        <time>2021-09-07T17:24:17Z</time>
      </trkpt>
      <trkpt lat="44.36937" lon="5.61663">
        <ele>875.4</ele>
        <time>2021-09-07T17:24:18Z</time>
      </trkpt>
      <trkpt lat="44.36931" lon="5.61667">
        <ele>875.5</ele>
        <time>2021-09-07T17:24:19Z</time>
      </trkpt>
      <trkpt lat="44.36925" lon="5.6167">
        <ele>875.7</ele>
        <time>2021-09-07T17:24:20Z</time>
      </trkpt>
      <trkpt lat="44.3692" lon="5.61673">
        <ele>875.9</ele>
        <time>2021-09-07T17:24:21Z</time>
      </trkpt>
      <trkpt lat="44.36914" lon="5.61676">
        <ele>876.1</ele>
        <time>2021-09-07T17:24:22Z</time>
      </trkpt>
      <trkpt lat="44.36909" lon="5.61679">
        <ele>876.2</ele>
        <time>2021-09-07T17:24:23Z</time>
      </trkpt>
      <trkpt lat="44.36904" lon="5.61681">
        <ele>876.3</ele>
        <time>2021-09-07T17:24:24Z</time>
      </trkpt>
      <trkpt lat="44.36899" lon="5.61684">
        <ele>876.2</ele>
        <time>2021-09-07T17:24:25Z</time>
      </trkpt>
      <trkpt lat="44.36894" lon="5.61687">
        <ele>876.2</ele>
        <time>2021-09-07T17:24:26Z</time>
      </trkpt>
      <trkpt lat="44.3689" lon="5.6169">
        <ele>876.2</ele>
        <time>2021-09-07T17:24:27Z</time>
      </trkpt>
      <trkpt lat="44.36886" lon="5.61692">
        <ele>876.1</ele>
        <time>2021-09-07T17:24:28Z</time>
      </trkpt>
      <trkpt lat="44.36883" lon="5.61694">
        <ele>876.2</ele>
        <time>2021-09-07T17:24:29Z</time>
      </trkpt>
      <trkpt lat="44.36879" lon="5.61695">
        <ele>876.2</ele>
        <time>2021-09-07T17:24:30Z</time>
      </trkpt>
      <trkpt lat="44.36877" lon="5.61696">
        <ele>876.3</ele>
        <time>2021-09-07T17:24:31Z</time>
      </trkpt>
      <trkpt lat="44.36875" lon="5.61697">
        <ele>876.3</ele>
        <time>2021-09-07T17:24:32Z</time>
      </trkpt>
      <trkpt lat="44.36873" lon="5.61697">
        <ele>876.4</ele>
        <time>2021-09-07T17:24:33Z</time>
      </trkpt>
      <trkpt lat="44.36871" lon="5.61697">
        <ele>876.5</ele>
        <time>2021-09-07T17:24:34Z</time>
      </trkpt>
      <trkpt lat="44.36871" lon="5.61697">
        <ele>876.6</ele>
        <time>2021-09-07T17:24:35Z</time>
      </trkpt>
      <trkpt lat="44.36871" lon="5.61696">
        <ele>876.6</ele>
        <time>2021-09-07T17:24:36Z</time>
      </trkpt>
      <trkpt lat="44.36871" lon="5.61696">
        <ele>876.6</ele>
        <time>2021-09-07T17:24:37Z</time>
      </trkpt>
      <trkpt lat="44.36871" lon="5.61696">
        <ele>876.6</ele>
        <time>2021-09-07T17:24:38Z</time>
      </trkpt>
      <trkpt lat="44.36871" lon="5.61696">
        <ele>876.6</ele>
        <time>2021-09-07T17:24:39Z</time>
      </trkpt>
      <trkpt lat="44.36871" lon="5.61696">
        <ele>876.6</ele>
        <time>2021-09-07T17:24:40Z</time>
      </trkpt>
      <trkpt lat="44.36871" lon="5.61696">
        <ele>876.6</ele>
        <time>2021-09-07T17:24:41Z</time>
      </trkpt>
      <trkpt lat="44.36871" lon="5.61696">
        <ele>876.6</ele>
        <time>2021-09-07T17:24:42Z</time>
      </trkpt>
      <trkpt lat="44.36871" lon="5.61696">
        <ele>876.6</ele>
        <time>2021-09-07T17:24:43Z</time>
      </trkpt>
      <trkpt lat="44.3687" lon="5.61697">
        <ele>876.6</ele>
        <time>2021-09-07T17:24:44Z</time>
      </trkpt>
      <trkpt lat="44.3687" lon="5.61697">
        <ele>876.6</ele>
        <time>2021-09-07T17:24:45Z</time>
      </trkpt>
      <trkpt lat="44.3687" lon="5.61697">
        <ele>876.6</ele>
        <time>2021-09-07T17:24:46Z</time>
      </trkpt>
      <trkpt lat="44.3687" lon="5.61697">
        <ele>876.6</ele>
        <time>2021-09-07T17:24:47Z</time>
      </trkpt>
      <trkpt lat="44.3687" lon="5.61697">
        <ele>876.6</ele>
        <time>2021-09-07T17:24:48Z</time>
      </trkpt>
      <trkpt lat="44.3687" lon="5.61697">
        <ele>876.6</ele>
        <time>2021-09-07T17:24:49Z</time>
      </trkpt>
      <trkpt lat="44.3687" lon="5.61697">
        <ele>876.7</ele>
        <time>2021-09-07T17:24:50Z</time>
      </trkpt>
      <trkpt lat="44.3687" lon="5.61696">
        <ele>876.7</ele>
        <time>2021-09-07T17:24:51Z</time>
      </trkpt>
      <trkpt lat="44.36868" lon="5.61695">
        <ele>876.9</ele>
        <time>2021-09-07T17:24:52Z</time>
      </trkpt>
      <trkpt lat="44.36867" lon="5.61695">
        <ele>877</ele>
        <time>2021-09-07T17:24:53Z</time>
      </trkpt>
      <trkpt lat="44.36866" lon="5.61694">
        <ele>877.1</ele>
        <time>2021-09-07T17:24:54Z</time>
      </trkpt>
      <trkpt lat="44.36864" lon="5.61693">
        <ele>877.3</ele>
        <time>2021-09-07T17:24:55Z</time>
      </trkpt>
      <trkpt lat="44.36864" lon="5.61693">
        <ele>877.3</ele>
        <time>2021-09-07T17:24:56Z</time>
      </trkpt>
      <trkpt lat="44.36863" lon="5.61692">
        <ele>877.4</ele>
        <time>2021-09-07T17:24:57Z</time>
      </trkpt>
      <trkpt lat="44.36862" lon="5.61692">
        <ele>877.5</ele>
        <time>2021-09-07T17:24:58Z</time>
      </trkpt>
      <trkpt lat="44.36862" lon="5.61691">
        <ele>877.6</ele>
        <time>2021-09-07T17:24:59Z</time>
      </trkpt>
      <trkpt lat="44.36862" lon="5.61691">
        <ele>877.6</ele>
        <time>2021-09-07T17:25:00Z</time>
      </trkpt>
      <trkpt lat="44.36862" lon="5.6169">
        <ele>877.6</ele>
        <time>2021-09-07T17:25:01Z</time>
      </trkpt>
      <trkpt lat="44.36862" lon="5.6169">
        <ele>877.7</ele>
        <time>2021-09-07T17:25:02Z</time>
      </trkpt>
      <trkpt lat="44.36861" lon="5.6169">
        <ele>877.7</ele>
        <time>2021-09-07T17:25:03Z</time>
      </trkpt>
      <trkpt lat="44.36861" lon="5.6169">
        <ele>877.7</ele>
        <time>2021-09-07T17:25:04Z</time>
      </trkpt>
      <trkpt lat="44.36861" lon="5.6169">
        <ele>877.7</ele>
        <time>2021-09-07T17:25:05Z</time>
      </trkpt>
      <trkpt lat="44.36861" lon="5.6169">
        <ele>877.8</ele>
        <time>2021-09-07T17:25:06Z</time>
      </trkpt>
      <trkpt lat="44.36861" lon="5.61689">
        <ele>877.8</ele>
        <time>2021-09-07T17:25:07Z</time>
      </trkpt>
      <trkpt lat="44.36861" lon="5.61689">
        <ele>877.8</ele>
        <time>2021-09-07T17:25:08Z</time>
      </trkpt>
      <trkpt lat="44.3686" lon="5.61687">
        <ele>878</ele>
        <time>2021-09-07T17:25:09Z</time>
      </trkpt>
      <trkpt lat="44.3686" lon="5.61686">
        <ele>878.1</ele>
        <time>2021-09-07T17:25:10Z</time>
      </trkpt>
      <trkpt lat="44.36859" lon="5.61685">
        <ele>878.2</ele>
        <time>2021-09-07T17:25:11Z</time>
      </trkpt>
      <trkpt lat="44.36859" lon="5.61684">
        <ele>878.3</ele>
        <time>2021-09-07T17:25:12Z</time>
      </trkpt>
      <trkpt lat="44.36858" lon="5.61683">
        <ele>878.4</ele>
        <time>2021-09-07T17:25:13Z</time>
      </trkpt>
      <trkpt lat="44.36857" lon="5.61683">
        <ele>878.5</ele>
        <time>2021-09-07T17:25:14Z</time>
      </trkpt>
      <trkpt lat="44.36856" lon="5.61682">
        <ele>878.6</ele>
        <time>2021-09-07T17:25:15Z</time>
      </trkpt>
      <trkpt lat="44.36855" lon="5.61682">
        <ele>878.7</ele>
        <time>2021-09-07T17:25:16Z</time>
      </trkpt>
      <trkpt lat="44.36853" lon="5.61681">
        <ele>879</ele>
        <time>2021-09-07T17:25:17Z</time>
      </trkpt>
      <trkpt lat="44.36853" lon="5.6168">
        <ele>879</ele>
        <time>2021-09-07T17:25:18Z</time>
      </trkpt>
      <trkpt lat="44.36853" lon="5.6168">
        <ele>879.1</ele>
        <time>2021-09-07T17:25:19Z</time>
      </trkpt>
      <trkpt lat="44.36852" lon="5.6168">
        <ele>879.2</ele>
        <time>2021-09-07T17:25:20Z</time>
      </trkpt>
      <trkpt lat="44.36851" lon="5.6168">
        <ele>879.3</ele>
        <time>2021-09-07T17:25:21Z</time>
      </trkpt>
      <trkpt lat="44.3685" lon="5.61679">
        <ele>879.4</ele>
        <time>2021-09-07T17:25:22Z</time>
      </trkpt>
      <trkpt lat="44.36848" lon="5.61679">
        <ele>879.6</ele>
        <time>2021-09-07T17:25:23Z</time>
      </trkpt>
      <trkpt lat="44.36847" lon="5.61678">
        <ele>879.7</ele>
        <time>2021-09-07T17:25:24Z</time>
      </trkpt>
      <trkpt lat="44.36847" lon="5.61678">
        <ele>879.8</ele>
        <time>2021-09-07T17:25:25Z</time>
      </trkpt>
      <trkpt lat="44.36846" lon="5.61678">
        <ele>879.8</ele>
        <time>2021-09-07T17:25:26Z</time>
      </trkpt>
      <trkpt lat="44.36845" lon="5.61678">
        <ele>879.9</ele>
        <time>2021-09-07T17:25:27Z</time>
      </trkpt>
      <trkpt lat="44.36845" lon="5.61678">
        <ele>880</ele>
        <time>2021-09-07T17:25:28Z</time>
      </trkpt>
      <trkpt lat="44.36844" lon="5.61678">
        <ele>880</ele>
        <time>2021-09-07T17:25:29Z</time>
      </trkpt>
      <trkpt lat="44.36843" lon="5.61678">
        <ele>880.1</ele>
        <time>2021-09-07T17:25:30Z</time>
      </trkpt>
      <trkpt lat="44.36842" lon="5.61678">
        <ele>880.2</ele>
        <time>2021-09-07T17:25:31Z</time>
      </trkpt>
      <trkpt lat="44.36841" lon="5.61679">
        <ele>880.3</ele>
        <time>2021-09-07T17:25:32Z</time>
      </trkpt>
      <trkpt lat="44.3684" lon="5.61679">
        <ele>880.4</ele>
        <time>2021-09-07T17:25:33Z</time>
      </trkpt>
      <trkpt lat="44.36839" lon="5.61679">
        <ele>880.5</ele>
        <time>2021-09-07T17:25:34Z</time>
      </trkpt>
      <trkpt lat="44.36837" lon="5.6168">
        <ele>880.7</ele>
        <time>2021-09-07T17:25:35Z</time>
      </trkpt>
      <trkpt lat="44.36837" lon="5.6168">
        <ele>880.7</ele>
        <time>2021-09-07T17:25:36Z</time>
      </trkpt>
      <trkpt lat="44.36835" lon="5.6168">
        <ele>880.8</ele>
        <time>2021-09-07T17:25:37Z</time>
      </trkpt>
      <trkpt lat="44.36835" lon="5.6168">
        <ele>880.8</ele>
        <time>2021-09-07T17:25:38Z</time>
      </trkpt>
      <trkpt lat="44.36834" lon="5.6168">
        <ele>880.9</ele>
        <time>2021-09-07T17:25:39Z</time>
      </trkpt>
      <trkpt lat="44.36833" lon="5.6168">
        <ele>880.9</ele>
        <time>2021-09-07T17:25:40Z</time>
      </trkpt>
      <trkpt lat="44.36832" lon="5.61681">
        <ele>881</ele>
        <time>2021-09-07T17:25:41Z</time>
      </trkpt>
      <trkpt lat="44.36831" lon="5.61681">
        <ele>881.1</ele>
        <time>2021-09-07T17:25:42Z</time>
      </trkpt>
      <trkpt lat="44.3683" lon="5.61682">
        <ele>881.1</ele>
        <time>2021-09-07T17:25:43Z</time>
      </trkpt>
      <trkpt lat="44.36829" lon="5.61682">
        <ele>881.2</ele>
        <time>2021-09-07T17:25:44Z</time>
      </trkpt>
      <trkpt lat="44.36828" lon="5.61682">
        <ele>881.2</ele>
        <time>2021-09-07T17:25:45Z</time>
      </trkpt>
      <trkpt lat="44.36827" lon="5.61682">
        <ele>881.3</ele>
        <time>2021-09-07T17:25:46Z</time>
      </trkpt>
      <trkpt lat="44.36826" lon="5.61682">
        <ele>881.3</ele>
        <time>2021-09-07T17:25:47Z</time>
      </trkpt>
      <trkpt lat="44.36826" lon="5.61682">
        <ele>881.3</ele>
        <time>2021-09-07T17:25:48Z</time>
      </trkpt>
      <trkpt lat="44.36825" lon="5.61682">
        <ele>881.4</ele>
        <time>2021-09-07T17:25:49Z</time>
      </trkpt>
      <trkpt lat="44.36824" lon="5.61683">
        <ele>881.4</ele>
        <time>2021-09-07T17:25:50Z</time>
      </trkpt>
      <trkpt lat="44.36822" lon="5.61683">
        <ele>881.4</ele>
        <time>2021-09-07T17:25:51Z</time>
      </trkpt>
      <trkpt lat="44.3682" lon="5.61683">
        <ele>881.4</ele>
        <time>2021-09-07T17:25:52Z</time>
      </trkpt>
      <trkpt lat="44.36818" lon="5.61684">
        <ele>881.4</ele>
        <time>2021-09-07T17:25:53Z</time>
      </trkpt>
      <trkpt lat="44.36816" lon="5.61684">
        <ele>881.3</ele>
        <time>2021-09-07T17:25:54Z</time>
      </trkpt>
      <trkpt lat="44.36814" lon="5.61685">
        <ele>881.1</ele>
        <time>2021-09-07T17:25:55Z</time>
      </trkpt>
      <trkpt lat="44.36811" lon="5.61686">
        <ele>880.8</ele>
        <time>2021-09-07T17:25:56Z</time>
      </trkpt>
      <trkpt lat="44.36807" lon="5.61687">
        <ele>880.4</ele>
        <time>2021-09-07T17:25:57Z</time>
      </trkpt>
      <trkpt lat="44.36796" lon="5.61692">
        <ele>879.1</ele>
        <time>2021-09-07T17:25:58Z</time>
      </trkpt>
      <trkpt lat="44.3679" lon="5.61695">
        <ele>878.6</ele>
        <time>2021-09-07T17:25:59Z</time>
      </trkpt>
      <trkpt lat="44.36784" lon="5.61698">
        <ele>878.2</ele>
        <time>2021-09-07T17:26:00Z</time>
      </trkpt>
      <trkpt lat="44.36778" lon="5.61701">
        <ele>877.8</ele>
        <time>2021-09-07T17:26:01Z</time>
      </trkpt>
      <trkpt lat="44.36772" lon="5.61705">
        <ele>877.4</ele>
        <time>2021-09-07T17:26:02Z</time>
      </trkpt>
      <trkpt lat="44.36765" lon="5.61709">
        <ele>877</ele>
        <time>2021-09-07T17:26:03Z</time>
      </trkpt>
      <trkpt lat="44.36758" lon="5.61713">
        <ele>876.5</ele>
        <time>2021-09-07T17:26:04Z</time>
      </trkpt>
      <trkpt lat="44.36751" lon="5.61717">
        <ele>876.1</ele>
        <time>2021-09-07T17:26:05Z</time>
      </trkpt>
      <trkpt lat="44.36744" lon="5.6172">
        <ele>876.1</ele>
        <time>2021-09-07T17:26:06Z</time>
      </trkpt>
      <trkpt lat="44.36737" lon="5.61722">
        <ele>876.1</ele>
        <time>2021-09-07T17:26:07Z</time>
      </trkpt>
      <trkpt lat="44.36731" lon="5.61725">
        <ele>876.1</ele>
        <time>2021-09-07T17:26:08Z</time>
      </trkpt>
      <trkpt lat="44.36724" lon="5.61727">
        <ele>876.2</ele>
        <time>2021-09-07T17:26:09Z</time>
      </trkpt>
      <trkpt lat="44.36718" lon="5.6173">
        <ele>876.3</ele>
        <time>2021-09-07T17:26:10Z</time>
      </trkpt>
      <trkpt lat="44.36712" lon="5.61733">
        <ele>876.4</ele>
        <time>2021-09-07T17:26:11Z</time>
      </trkpt>
      <trkpt lat="44.36707" lon="5.61736">
        <ele>876.6</ele>
        <time>2021-09-07T17:26:12Z</time>
      </trkpt>
      <trkpt lat="44.36702" lon="5.61739">
        <ele>876.8</ele>
        <time>2021-09-07T17:26:13Z</time>
      </trkpt>
      <trkpt lat="44.36697" lon="5.61741">
        <ele>876.9</ele>
        <time>2021-09-07T17:26:14Z</time>
      </trkpt>
      <trkpt lat="44.36692" lon="5.61743">
        <ele>877.1</ele>
        <time>2021-09-07T17:26:15Z</time>
      </trkpt>
      <trkpt lat="44.36689" lon="5.61745">
        <ele>877.2</ele>
        <time>2021-09-07T17:26:16Z</time>
      </trkpt>
      <trkpt lat="44.36685" lon="5.61747">
        <ele>877.3</ele>
        <time>2021-09-07T17:26:17Z</time>
      </trkpt>
      <trkpt lat="44.36682" lon="5.61749">
        <ele>877.4</ele>
        <time>2021-09-07T17:26:18Z</time>
      </trkpt>
      <trkpt lat="44.36678" lon="5.6175">
        <ele>877.5</ele>
        <time>2021-09-07T17:26:19Z</time>
      </trkpt>
      <trkpt lat="44.36676" lon="5.61752">
        <ele>877.6</ele>
        <time>2021-09-07T17:26:20Z</time>
      </trkpt>
      <trkpt lat="44.36673" lon="5.61753">
        <ele>877.7</ele>
        <time>2021-09-07T17:26:21Z</time>
      </trkpt>
      <trkpt lat="44.36673" lon="5.61755">
        <ele>877.8</ele>
        <time>2021-09-07T17:26:22Z</time>
      </trkpt>
      <trkpt lat="44.36672" lon="5.61756">
        <ele>877.8</ele>
        <time>2021-09-07T17:26:23Z</time>
      </trkpt>
      <trkpt lat="44.36669" lon="5.61757">
        <ele>878</ele>
        <time>2021-09-07T17:26:24Z</time>
      </trkpt>
      <trkpt lat="44.36666" lon="5.61758">
        <ele>878.2</ele>
        <time>2021-09-07T17:26:25Z</time>
      </trkpt>
      <trkpt lat="44.36665" lon="5.61759">
        <ele>878.3</ele>
        <time>2021-09-07T17:26:26Z</time>
      </trkpt>
      <trkpt lat="44.36663" lon="5.61759">
        <ele>878.4</ele>
        <time>2021-09-07T17:26:27Z</time>
      </trkpt>
      <trkpt lat="44.36661" lon="5.61759">
        <ele>878.5</ele>
        <time>2021-09-07T17:26:28Z</time>
      </trkpt>
      <trkpt lat="44.3666" lon="5.6176">
        <ele>878.6</ele>
        <time>2021-09-07T17:26:29Z</time>
      </trkpt>
      <trkpt lat="44.36659" lon="5.61761">
        <ele>878.7</ele>
        <time>2021-09-07T17:26:30Z</time>
      </trkpt>
      <trkpt lat="44.36658" lon="5.61761">
        <ele>878.7</ele>
        <time>2021-09-07T17:26:31Z</time>
      </trkpt>
      <trkpt lat="44.36657" lon="5.61761">
        <ele>878.8</ele>
        <time>2021-09-07T17:26:32Z</time>
      </trkpt>
      <trkpt lat="44.36657" lon="5.61762">
        <ele>878.9</ele>
        <time>2021-09-07T17:26:33Z</time>
      </trkpt>
      <trkpt lat="44.36656" lon="5.61763">
        <ele>878.9</ele>
        <time>2021-09-07T17:26:34Z</time>
      </trkpt>
      <trkpt lat="44.36654" lon="5.61764">
        <ele>879.1</ele>
        <time>2021-09-07T17:26:35Z</time>
      </trkpt>
      <trkpt lat="44.36653" lon="5.61765">
        <ele>879.2</ele>
        <time>2021-09-07T17:26:36Z</time>
      </trkpt>
      <trkpt lat="44.36651" lon="5.61767">
        <ele>879.3</ele>
        <time>2021-09-07T17:26:37Z</time>
      </trkpt>
      <trkpt lat="44.3665" lon="5.61768">
        <ele>879.4</ele>
        <time>2021-09-07T17:26:38Z</time>
      </trkpt>
      <trkpt lat="44.36649" lon="5.61769">
        <ele>879.5</ele>
        <time>2021-09-07T17:26:39Z</time>
      </trkpt>
      <trkpt lat="44.36648" lon="5.6177">
        <ele>879.6</ele>
        <time>2021-09-07T17:26:40Z</time>
      </trkpt>
      <trkpt lat="44.36646" lon="5.61772">
        <ele>879.7</ele>
        <time>2021-09-07T17:26:41Z</time>
      </trkpt>
      <trkpt lat="44.36644" lon="5.61773">
        <ele>879.9</ele>
        <time>2021-09-07T17:26:42Z</time>
      </trkpt>
      <trkpt lat="44.36643" lon="5.61774">
        <ele>880</ele>
        <time>2021-09-07T17:26:43Z</time>
      </trkpt>
      <trkpt lat="44.36641" lon="5.61775">
        <ele>880.1</ele>
        <time>2021-09-07T17:26:44Z</time>
      </trkpt>
      <trkpt lat="44.36639" lon="5.61775">
        <ele>880.3</ele>
        <time>2021-09-07T17:26:45Z</time>
      </trkpt>
      <trkpt lat="44.36637" lon="5.61776">
        <ele>880.4</ele>
        <time>2021-09-07T17:26:46Z</time>
      </trkpt>
      <trkpt lat="44.36637" lon="5.61777">
        <ele>880.5</ele>
        <time>2021-09-07T17:26:47Z</time>
      </trkpt>
      <trkpt lat="44.36637" lon="5.61778">
        <ele>880.5</ele>
        <time>2021-09-07T17:26:48Z</time>
      </trkpt>
      <trkpt lat="44.36636" lon="5.61778">
        <ele>880.6</ele>
        <time>2021-09-07T17:26:49Z</time>
      </trkpt>
      <trkpt lat="44.36635" lon="5.61779">
        <ele>880.7</ele>
        <time>2021-09-07T17:26:50Z</time>
      </trkpt>
      <trkpt lat="44.36634" lon="5.61779">
        <ele>880.8</ele>
        <time>2021-09-07T17:26:51Z</time>
      </trkpt>
      <trkpt lat="44.36633" lon="5.6178">
        <ele>880.9</ele>
        <time>2021-09-07T17:26:52Z</time>
      </trkpt>
      <trkpt lat="44.36632" lon="5.61781">
        <ele>880.9</ele>
        <time>2021-09-07T17:26:53Z</time>
      </trkpt>
      <trkpt lat="44.36631" lon="5.61783">
        <ele>881.1</ele>
        <time>2021-09-07T17:26:54Z</time>
      </trkpt>
      <trkpt lat="44.3663" lon="5.61785">
        <ele>881.2</ele>
        <time>2021-09-07T17:26:55Z</time>
      </trkpt>
      <trkpt lat="44.36629" lon="5.61786">
        <ele>881.3</ele>
        <time>2021-09-07T17:26:56Z</time>
      </trkpt>
      <trkpt lat="44.36629" lon="5.61788">
        <ele>881.5</ele>
        <time>2021-09-07T17:26:57Z</time>
      </trkpt>
      <trkpt lat="44.36629" lon="5.6179">
        <ele>881.6</ele>
        <time>2021-09-07T17:26:58Z</time>
      </trkpt>
      <trkpt lat="44.36629" lon="5.61793">
        <ele>881.8</ele>
        <time>2021-09-07T17:26:59Z</time>
      </trkpt>
      <trkpt lat="44.3663" lon="5.61795">
        <ele>882</ele>
        <time>2021-09-07T17:27:00Z</time>
      </trkpt>
      <trkpt lat="44.36631" lon="5.61796">
        <ele>882.1</ele>
        <time>2021-09-07T17:27:01Z</time>
      </trkpt>
      <trkpt lat="44.36631" lon="5.61797">
        <ele>882.2</ele>
        <time>2021-09-07T17:27:02Z</time>
      </trkpt>
      <trkpt lat="44.36632" lon="5.61797">
        <ele>882.3</ele>
        <time>2021-09-07T17:27:03Z</time>
      </trkpt>
      <trkpt lat="44.36632" lon="5.61798">
        <ele>882.4</ele>
        <time>2021-09-07T17:27:04Z</time>
      </trkpt>
      <trkpt lat="44.36632" lon="5.61798">
        <ele>882.4</ele>
        <time>2021-09-07T17:27:05Z</time>
      </trkpt>
      <trkpt lat="44.36632" lon="5.61798">
        <ele>882.4</ele>
        <time>2021-09-07T17:27:06Z</time>
      </trkpt>
      <trkpt lat="44.36632" lon="5.61799">
        <ele>882.4</ele>
        <time>2021-09-07T17:27:07Z</time>
      </trkpt>
      <trkpt lat="44.36632" lon="5.61801">
        <ele>882.6</ele>
        <time>2021-09-07T17:27:08Z</time>
      </trkpt>
      <trkpt lat="44.36632" lon="5.61801">
        <ele>882.6</ele>
        <time>2021-09-07T17:27:09Z</time>
      </trkpt>
      <trkpt lat="44.36632" lon="5.61802">
        <ele>882.7</ele>
        <time>2021-09-07T17:27:10Z</time>
      </trkpt>
      <trkpt lat="44.36632" lon="5.61803">
        <ele>882.8</ele>
        <time>2021-09-07T17:27:11Z</time>
      </trkpt>
      <trkpt lat="44.36632" lon="5.61805">
        <ele>883</ele>
        <time>2021-09-07T17:27:12Z</time>
      </trkpt>
      <trkpt lat="44.36632" lon="5.61808">
        <ele>883.2</ele>
        <time>2021-09-07T17:27:13Z</time>
      </trkpt>
      <trkpt lat="44.36631" lon="5.61811">
        <ele>883.5</ele>
        <time>2021-09-07T17:27:14Z</time>
      </trkpt>
      <trkpt lat="44.36631" lon="5.61812">
        <ele>883.6</ele>
        <time>2021-09-07T17:27:15Z</time>
      </trkpt>
      <trkpt lat="44.36631" lon="5.61812">
        <ele>883.6</ele>
        <time>2021-09-07T17:27:16Z</time>
      </trkpt>
      <trkpt lat="44.3663" lon="5.61812">
        <ele>883.7</ele>
        <time>2021-09-07T17:27:17Z</time>
      </trkpt>
      <trkpt lat="44.36629" lon="5.61813">
        <ele>883.8</ele>
        <time>2021-09-07T17:27:18Z</time>
      </trkpt>
      <trkpt lat="44.36628" lon="5.61813">
        <ele>884</ele>
        <time>2021-09-07T17:27:19Z</time>
      </trkpt>
      <trkpt lat="44.36627" lon="5.61813">
        <ele>884.1</ele>
        <time>2021-09-07T17:27:20Z</time>
      </trkpt>
      <trkpt lat="44.36626" lon="5.61813">
        <ele>884.2</ele>
        <time>2021-09-07T17:27:21Z</time>
      </trkpt>
      <trkpt lat="44.36625" lon="5.61813">
        <ele>884.3</ele>
        <time>2021-09-07T17:27:22Z</time>
      </trkpt>
      <trkpt lat="44.36623" lon="5.61813">
        <ele>884.6</ele>
        <time>2021-09-07T17:27:23Z</time>
      </trkpt>
      <trkpt lat="44.36622" lon="5.61813">
        <ele>884.7</ele>
        <time>2021-09-07T17:27:24Z</time>
      </trkpt>
      <trkpt lat="44.36621" lon="5.61813">
        <ele>884.8</ele>
        <time>2021-09-07T17:27:25Z</time>
      </trkpt>
      <trkpt lat="44.36619" lon="5.61813">
        <ele>885.1</ele>
        <time>2021-09-07T17:27:26Z</time>
      </trkpt>
      <trkpt lat="44.36616" lon="5.61812">
        <ele>885.4</ele>
        <time>2021-09-07T17:27:27Z</time>
      </trkpt>
      <trkpt lat="44.36613" lon="5.61811">
        <ele>885.8</ele>
        <time>2021-09-07T17:27:28Z</time>
      </trkpt>
      <trkpt lat="44.36612" lon="5.61811">
        <ele>885.9</ele>
        <time>2021-09-07T17:27:29Z</time>
      </trkpt>
      <trkpt lat="44.3661" lon="5.61811">
        <ele>886.1</ele>
        <time>2021-09-07T17:27:30Z</time>
      </trkpt>
      <trkpt lat="44.36608" lon="5.6181">
        <ele>886.3</ele>
        <time>2021-09-07T17:27:31Z</time>
      </trkpt>
      <trkpt lat="44.36606" lon="5.6181">
        <ele>886.5</ele>
        <time>2021-09-07T17:27:32Z</time>
      </trkpt>
      <trkpt lat="44.36605" lon="5.61811">
        <ele>886.7</ele>
        <time>2021-09-07T17:27:33Z</time>
      </trkpt>
      <trkpt lat="44.36603" lon="5.61811">
        <ele>886.8</ele>
        <time>2021-09-07T17:27:34Z</time>
      </trkpt>
      <trkpt lat="44.36601" lon="5.61811">
        <ele>887</ele>
        <time>2021-09-07T17:27:35Z</time>
      </trkpt>
      <trkpt lat="44.36599" lon="5.61811">
        <ele>887.2</ele>
        <time>2021-09-07T17:27:36Z</time>
      </trkpt>
      <trkpt lat="44.36597" lon="5.61811">
        <ele>887.3</ele>
        <time>2021-09-07T17:27:37Z</time>
      </trkpt>
      <trkpt lat="44.36595" lon="5.61812">
        <ele>887.5</ele>
        <time>2021-09-07T17:27:38Z</time>
      </trkpt>
      <trkpt lat="44.36595" lon="5.61812">
        <ele>887.5</ele>
        <time>2021-09-07T17:27:39Z</time>
      </trkpt>
      <trkpt lat="44.36594" lon="5.61812">
        <ele>887.6</ele>
        <time>2021-09-07T17:27:40Z</time>
      </trkpt>
      <trkpt lat="44.36593" lon="5.61813">
        <ele>887.7</ele>
        <time>2021-09-07T17:27:41Z</time>
      </trkpt>
      <trkpt lat="44.36593" lon="5.61814">
        <ele>887.7</ele>
        <time>2021-09-07T17:27:42Z</time>
      </trkpt>
      <trkpt lat="44.36593" lon="5.61815">
        <ele>887.8</ele>
        <time>2021-09-07T17:27:43Z</time>
      </trkpt>
      <trkpt lat="44.36592" lon="5.61816">
        <ele>887.9</ele>
        <time>2021-09-07T17:27:44Z</time>
      </trkpt>
      <trkpt lat="44.36592" lon="5.61817">
        <ele>887.9</ele>
        <time>2021-09-07T17:27:45Z</time>
      </trkpt>
      <trkpt lat="44.36591" lon="5.61817">
        <ele>887.9</ele>
        <time>2021-09-07T17:27:46Z</time>
      </trkpt>
      <trkpt lat="44.3659" lon="5.61817">
        <ele>888</ele>
        <time>2021-09-07T17:27:47Z</time>
      </trkpt>
      <trkpt lat="44.3659" lon="5.61817">
        <ele>888</ele>
        <time>2021-09-07T17:27:48Z</time>
      </trkpt>
      <trkpt lat="44.3659" lon="5.61817">
        <ele>888</ele>
        <time>2021-09-07T17:27:49Z</time>
      </trkpt>
      <trkpt lat="44.36589" lon="5.61817">
        <ele>888.1</ele>
        <time>2021-09-07T17:27:50Z</time>
      </trkpt>
      <trkpt lat="44.36588" lon="5.61817">
        <ele>888.2</ele>
        <time>2021-09-07T17:27:51Z</time>
      </trkpt>
      <trkpt lat="44.36588" lon="5.61818">
        <ele>888.2</ele>
        <time>2021-09-07T17:27:52Z</time>
      </trkpt>
      <trkpt lat="44.36587" lon="5.61818">
        <ele>888.3</ele>
        <time>2021-09-07T17:27:53Z</time>
      </trkpt>
      <trkpt lat="44.36586" lon="5.61818">
        <ele>888.4</ele>
        <time>2021-09-07T17:27:54Z</time>
      </trkpt>
      <trkpt lat="44.36585" lon="5.61819">
        <ele>888.5</ele>
        <time>2021-09-07T17:27:55Z</time>
      </trkpt>
      <trkpt lat="44.36583" lon="5.61819">
        <ele>888.6</ele>
        <time>2021-09-07T17:27:56Z</time>
      </trkpt>
      <trkpt lat="44.3658" lon="5.6182">
        <ele>888.8</ele>
        <time>2021-09-07T17:27:57Z</time>
      </trkpt>
      <trkpt lat="44.36578" lon="5.6182">
        <ele>888.9</ele>
        <time>2021-09-07T17:27:58Z</time>
      </trkpt>
      <trkpt lat="44.36575" lon="5.6182">
        <ele>889.2</ele>
        <time>2021-09-07T17:27:59Z</time>
      </trkpt>
      <trkpt lat="44.36573" lon="5.6182">
        <ele>889.3</ele>
        <time>2021-09-07T17:28:00Z</time>
      </trkpt>
      <trkpt lat="44.36572" lon="5.61821">
        <ele>889.4</ele>
        <time>2021-09-07T17:28:01Z</time>
      </trkpt>
      <trkpt lat="44.3657" lon="5.61821">
        <ele>889.5</ele>
        <time>2021-09-07T17:28:02Z</time>
      </trkpt>
      <trkpt lat="44.36569" lon="5.61821">
        <ele>889.6</ele>
        <time>2021-09-07T17:28:03Z</time>
      </trkpt>
      <trkpt lat="44.36568" lon="5.61822">
        <ele>889.7</ele>
        <time>2021-09-07T17:28:04Z</time>
      </trkpt>
      <trkpt lat="44.36566" lon="5.61823">
        <ele>889.9</ele>
        <time>2021-09-07T17:28:05Z</time>
      </trkpt>
      <trkpt lat="44.36566" lon="5.61824">
        <ele>889.9</ele>
        <time>2021-09-07T17:28:06Z</time>
      </trkpt>
      <trkpt lat="44.36566" lon="5.61825">
        <ele>890</ele>
        <time>2021-09-07T17:28:07Z</time>
      </trkpt>
      <trkpt lat="44.36566" lon="5.61829">
        <ele>890.3</ele>
        <time>2021-09-07T17:28:08Z</time>
      </trkpt>
      <trkpt lat="44.36567" lon="5.61832">
        <ele>890.5</ele>
        <time>2021-09-07T17:28:09Z</time>
      </trkpt>
      <trkpt lat="44.36568" lon="5.61835">
        <ele>890.7</ele>
        <time>2021-09-07T17:28:10Z</time>
      </trkpt>
      <trkpt lat="44.36571" lon="5.61841">
        <ele>891.1</ele>
        <time>2021-09-07T17:28:11Z</time>
      </trkpt>
      <trkpt lat="44.36573" lon="5.61846">
        <ele>891.6</ele>
        <time>2021-09-07T17:28:12Z</time>
      </trkpt>
      <trkpt lat="44.36575" lon="5.61848">
        <ele>891.8</ele>
        <time>2021-09-07T17:28:13Z</time>
      </trkpt>
      <trkpt lat="44.36575" lon="5.6185">
        <ele>891.9</ele>
        <time>2021-09-07T17:28:14Z</time>
      </trkpt>
      <trkpt lat="44.36575" lon="5.61851">
        <ele>892</ele>
        <time>2021-09-07T17:28:15Z</time>
      </trkpt>
      <trkpt lat="44.36575" lon="5.61852">
        <ele>892</ele>
        <time>2021-09-07T17:28:16Z</time>
      </trkpt>
      <trkpt lat="44.36574" lon="5.61852">
        <ele>892.1</ele>
        <time>2021-09-07T17:28:17Z</time>
      </trkpt>
      <trkpt lat="44.36574" lon="5.61853">
        <ele>892.2</ele>
        <time>2021-09-07T17:28:18Z</time>
      </trkpt>
      <trkpt lat="44.36574" lon="5.61853">
        <ele>892.2</ele>
        <time>2021-09-07T17:28:19Z</time>
      </trkpt>
      <trkpt lat="44.36574" lon="5.61854">
        <ele>892.2</ele>
        <time>2021-09-07T17:28:20Z</time>
      </trkpt>
      <trkpt lat="44.36574" lon="5.61854">
        <ele>892.2</ele>
        <time>2021-09-07T17:28:21Z</time>
      </trkpt>
      <trkpt lat="44.36574" lon="5.61854">
        <ele>892.2</ele>
        <time>2021-09-07T17:28:22Z</time>
      </trkpt>
      <trkpt lat="44.36573" lon="5.61856">
        <ele>892.4</ele>
        <time>2021-09-07T17:28:23Z</time>
      </trkpt>
      <trkpt lat="44.36571" lon="5.61857">
        <ele>892.6</ele>
        <time>2021-09-07T17:28:24Z</time>
      </trkpt>
      <trkpt lat="44.3657" lon="5.61859">
        <ele>892.7</ele>
        <time>2021-09-07T17:28:25Z</time>
      </trkpt>
      <trkpt lat="44.3657" lon="5.61859">
        <ele>892.7</ele>
        <time>2021-09-07T17:28:26Z</time>
      </trkpt>
      <trkpt lat="44.3657" lon="5.6186">
        <ele>892.8</ele>
        <time>2021-09-07T17:28:27Z</time>
      </trkpt>
      <trkpt lat="44.36566" lon="5.61862">
        <ele>893.2</ele>
        <time>2021-09-07T17:28:28Z</time>
      </trkpt>
      <trkpt lat="44.36562" lon="5.61864">
        <ele>893.5</ele>
        <time>2021-09-07T17:28:29Z</time>
      </trkpt>
      <trkpt lat="44.36554" lon="5.61866">
        <ele>894.3</ele>
        <time>2021-09-07T17:28:30Z</time>
      </trkpt>
      <trkpt lat="44.3655" lon="5.61869">
        <ele>894.7</ele>
        <time>2021-09-07T17:28:31Z</time>
      </trkpt>
      <trkpt lat="44.36548" lon="5.6187">
        <ele>894.9</ele>
        <time>2021-09-07T17:28:32Z</time>
      </trkpt>
      <trkpt lat="44.36546" lon="5.61872">
        <ele>895.1</ele>
        <time>2021-09-07T17:28:33Z</time>
      </trkpt>
      <trkpt lat="44.36543" lon="5.61874">
        <ele>895.4</ele>
        <time>2021-09-07T17:28:34Z</time>
      </trkpt>
      <trkpt lat="44.36539" lon="5.61877">
        <ele>895.8</ele>
        <time>2021-09-07T17:28:35Z</time>
      </trkpt>
      <trkpt lat="44.36538" lon="5.61879">
        <ele>895.9</ele>
        <time>2021-09-07T17:28:36Z</time>
      </trkpt>
      <trkpt lat="44.36537" lon="5.61881">
        <ele>896.1</ele>
        <time>2021-09-07T17:28:37Z</time>
      </trkpt>
      <trkpt lat="44.36536" lon="5.61883">
        <ele>896.2</ele>
        <time>2021-09-07T17:28:38Z</time>
      </trkpt>
      <trkpt lat="44.36536" lon="5.61885">
        <ele>896.3</ele>
        <time>2021-09-07T17:28:39Z</time>
      </trkpt>
      <trkpt lat="44.36535" lon="5.61887">
        <ele>896.5</ele>
        <time>2021-09-07T17:28:40Z</time>
      </trkpt>
      <trkpt lat="44.36534" lon="5.61891">
        <ele>896.7</ele>
        <time>2021-09-07T17:28:41Z</time>
      </trkpt>
      <trkpt lat="44.36532" lon="5.61893">
        <ele>896.9</ele>
        <time>2021-09-07T17:28:42Z</time>
      </trkpt>
      <trkpt lat="44.36532" lon="5.61895">
        <ele>897</ele>
        <time>2021-09-07T17:28:43Z</time>
      </trkpt>
      <trkpt lat="44.36531" lon="5.61897">
        <ele>897.2</ele>
        <time>2021-09-07T17:28:44Z</time>
      </trkpt>
      <trkpt lat="44.3653" lon="5.61899">
        <ele>897.3</ele>
        <time>2021-09-07T17:28:45Z</time>
      </trkpt>
      <trkpt lat="44.36528" lon="5.619">
        <ele>897.5</ele>
        <time>2021-09-07T17:28:46Z</time>
      </trkpt>
      <trkpt lat="44.36525" lon="5.61902">
        <ele>897.8</ele>
        <time>2021-09-07T17:28:47Z</time>
      </trkpt>
      <trkpt lat="44.36523" lon="5.61904">
        <ele>898</ele>
        <time>2021-09-07T17:28:48Z</time>
      </trkpt>
      <trkpt lat="44.3652" lon="5.61906">
        <ele>898.2</ele>
        <time>2021-09-07T17:28:49Z</time>
      </trkpt>
      <trkpt lat="44.36517" lon="5.61907">
        <ele>898.4</ele>
        <time>2021-09-07T17:28:50Z</time>
      </trkpt>
      <trkpt lat="44.36514" lon="5.61909">
        <ele>898.6</ele>
        <time>2021-09-07T17:28:51Z</time>
      </trkpt>
      <trkpt lat="44.3651" lon="5.61911">
        <ele>898.8</ele>
        <time>2021-09-07T17:28:52Z</time>
      </trkpt>
      <trkpt lat="44.36507" lon="5.61913">
        <ele>898.9</ele>
        <time>2021-09-07T17:28:53Z</time>
      </trkpt>
      <trkpt lat="44.36505" lon="5.61914">
        <ele>899</ele>
        <time>2021-09-07T17:28:54Z</time>
      </trkpt>
      <trkpt lat="44.36502" lon="5.61915">
        <ele>899.1</ele>
        <time>2021-09-07T17:28:55Z</time>
      </trkpt>
      <trkpt lat="44.36499" lon="5.61916">
        <ele>899.2</ele>
        <time>2021-09-07T17:28:56Z</time>
      </trkpt>
      <trkpt lat="44.36496" lon="5.61916">
        <ele>899.4</ele>
        <time>2021-09-07T17:28:57Z</time>
      </trkpt>
      <trkpt lat="44.36493" lon="5.61918">
        <ele>899.5</ele>
        <time>2021-09-07T17:28:58Z</time>
      </trkpt>
      <trkpt lat="44.3649" lon="5.61919">
        <ele>899.6</ele>
        <time>2021-09-07T17:28:59Z</time>
      </trkpt>
      <trkpt lat="44.36489" lon="5.6192">
        <ele>899.7</ele>
        <time>2021-09-07T17:29:00Z</time>
      </trkpt>
      <trkpt lat="44.36487" lon="5.6192">
        <ele>899.7</ele>
        <time>2021-09-07T17:29:01Z</time>
      </trkpt>
      <trkpt lat="44.36483" lon="5.61923">
        <ele>899.9</ele>
        <time>2021-09-07T17:29:02Z</time>
      </trkpt>
      <trkpt lat="44.36482" lon="5.61925">
        <ele>900</ele>
        <time>2021-09-07T17:29:03Z</time>
      </trkpt>
      <trkpt lat="44.3648" lon="5.61926">
        <ele>900.1</ele>
        <time>2021-09-07T17:29:04Z</time>
      </trkpt>
      <trkpt lat="44.36478" lon="5.61928">
        <ele>900.2</ele>
        <time>2021-09-07T17:29:05Z</time>
      </trkpt>
      <trkpt lat="44.36476" lon="5.61929">
        <ele>900.3</ele>
        <time>2021-09-07T17:29:06Z</time>
      </trkpt>
      <trkpt lat="44.36474" lon="5.6193">
        <ele>900.4</ele>
        <time>2021-09-07T17:29:07Z</time>
      </trkpt>
      <trkpt lat="44.36473" lon="5.61932">
        <ele>900.4</ele>
        <time>2021-09-07T17:29:08Z</time>
      </trkpt>
      <trkpt lat="44.36472" lon="5.61933">
        <ele>900.5</ele>
        <time>2021-09-07T17:29:09Z</time>
      </trkpt>
      <trkpt lat="44.3647" lon="5.61934">
        <ele>900.5</ele>
        <time>2021-09-07T17:29:10Z</time>
      </trkpt>
      <trkpt lat="44.36468" lon="5.61935">
        <ele>900.6</ele>
        <time>2021-09-07T17:29:11Z</time>
      </trkpt>
      <trkpt lat="44.36466" lon="5.61935">
        <ele>900.7</ele>
        <time>2021-09-07T17:29:12Z</time>
      </trkpt>
      <trkpt lat="44.36465" lon="5.61936">
        <ele>900.8</ele>
        <time>2021-09-07T17:29:13Z</time>
      </trkpt>
      <trkpt lat="44.36463" lon="5.61936">
        <ele>900.8</ele>
        <time>2021-09-07T17:29:14Z</time>
      </trkpt>
      <trkpt lat="44.3646" lon="5.61937">
        <ele>900.9</ele>
        <time>2021-09-07T17:29:15Z</time>
      </trkpt>
      <trkpt lat="44.36457" lon="5.61938">
        <ele>901.1</ele>
        <time>2021-09-07T17:29:16Z</time>
      </trkpt>
      <trkpt lat="44.36454" lon="5.61939">
        <ele>901.2</ele>
        <time>2021-09-07T17:29:17Z</time>
      </trkpt>
      <trkpt lat="44.36452" lon="5.6194">
        <ele>901.3</ele>
        <time>2021-09-07T17:29:18Z</time>
      </trkpt>
      <trkpt lat="44.36451" lon="5.61941">
        <ele>901.4</ele>
        <time>2021-09-07T17:29:19Z</time>
      </trkpt>
      <trkpt lat="44.36449" lon="5.61941">
        <ele>901.5</ele>
        <time>2021-09-07T17:29:20Z</time>
      </trkpt>
      <trkpt lat="44.36447" lon="5.61942">
        <ele>901.6</ele>
        <time>2021-09-07T17:29:21Z</time>
      </trkpt>
      <trkpt lat="44.36446" lon="5.61943">
        <ele>901.7</ele>
        <time>2021-09-07T17:29:22Z</time>
      </trkpt>
      <trkpt lat="44.36444" lon="5.61943">
        <ele>901.8</ele>
        <time>2021-09-07T17:29:23Z</time>
      </trkpt>
      <trkpt lat="44.36442" lon="5.61944">
        <ele>901.9</ele>
        <time>2021-09-07T17:29:24Z</time>
      </trkpt>
      <trkpt lat="44.3644" lon="5.61945">
        <ele>902</ele>
        <time>2021-09-07T17:29:25Z</time>
      </trkpt>
      <trkpt lat="44.36439" lon="5.61946">
        <ele>902.1</ele>
        <time>2021-09-07T17:29:26Z</time>
      </trkpt>
      <trkpt lat="44.36439" lon="5.61947">
        <ele>902.2</ele>
        <time>2021-09-07T17:29:27Z</time>
      </trkpt>
      <trkpt lat="44.36439" lon="5.61948">
        <ele>902.2</ele>
        <time>2021-09-07T17:29:28Z</time>
      </trkpt>
      <trkpt lat="44.36439" lon="5.61949">
        <ele>902.2</ele>
        <time>2021-09-07T17:29:29Z</time>
      </trkpt>
      <trkpt lat="44.36439" lon="5.61949">
        <ele>902.2</ele>
        <time>2021-09-07T17:29:30Z</time>
      </trkpt>
      <trkpt lat="44.36439" lon="5.61949">
        <ele>902.2</ele>
        <time>2021-09-07T17:29:31Z</time>
      </trkpt>
      <trkpt lat="44.36439" lon="5.61949">
        <ele>902.2</ele>
        <time>2021-09-07T17:29:32Z</time>
      </trkpt>
      <trkpt lat="44.3644" lon="5.61949">
        <ele>902.3</ele>
        <time>2021-09-07T17:29:33Z</time>
      </trkpt>
      <trkpt lat="44.3644" lon="5.61949">
        <ele>902.3</ele>
        <time>2021-09-07T17:29:34Z</time>
      </trkpt>
      <trkpt lat="44.3644" lon="5.61949">
        <ele>902.3</ele>
        <time>2021-09-07T17:29:35Z</time>
      </trkpt>
      <trkpt lat="44.3644" lon="5.61949">
        <ele>902.3</ele>
        <time>2021-09-07T17:29:36Z</time>
      </trkpt>
      <trkpt lat="44.3644" lon="5.61949">
        <ele>902.3</ele>
        <time>2021-09-07T17:29:37Z</time>
      </trkpt>
      <trkpt lat="44.3644" lon="5.61949">
        <ele>902.3</ele>
        <time>2021-09-07T17:29:38Z</time>
      </trkpt>
      <trkpt lat="44.3644" lon="5.61949">
        <ele>902.3</ele>
        <time>2021-09-07T17:29:39Z</time>
      </trkpt>
      <trkpt lat="44.3644" lon="5.61949">
        <ele>902.3</ele>
        <time>2021-09-07T17:29:40Z</time>
      </trkpt>
      <trkpt lat="44.3644" lon="5.61949">
        <ele>902.3</ele>
        <time>2021-09-07T17:29:41Z</time>
      </trkpt>
      <trkpt lat="44.3644" lon="5.61949">
        <ele>902.3</ele>
        <time>2021-09-07T17:29:42Z</time>
      </trkpt>
      <trkpt lat="44.3644" lon="5.61949">
        <ele>902.3</ele>
        <time>2021-09-07T17:29:43Z</time>
      </trkpt>
      <trkpt lat="44.3644" lon="5.61949">
        <ele>902.3</ele>
        <time>2021-09-07T17:29:44Z</time>
      </trkpt>
      <trkpt lat="44.3644" lon="5.61949">
        <ele>902.3</ele>
        <time>2021-09-07T17:29:45Z</time>
      </trkpt>
      <trkpt lat="44.3644" lon="5.61949">
        <ele>902.3</ele>
        <time>2021-09-07T17:29:46Z</time>
      </trkpt>
      <trkpt lat="44.3644" lon="5.61949">
        <ele>902.3</ele>
        <time>2021-09-07T17:29:47Z</time>
      </trkpt>
      <trkpt lat="44.3644" lon="5.61949">
        <ele>902.3</ele>
        <time>2021-09-07T17:29:48Z</time>
      </trkpt>
      <trkpt lat="44.3644" lon="5.61949">
        <ele>902.3</ele>
        <time>2021-09-07T17:29:49Z</time>
      </trkpt>
      <trkpt lat="44.3644" lon="5.61951">
        <ele>902.4</ele>
        <time>2021-09-07T17:29:50Z</time>
      </trkpt>
      <trkpt lat="44.3644" lon="5.61952">
        <ele>902.4</ele>
        <time>2021-09-07T17:29:51Z</time>
      </trkpt>
      <trkpt lat="44.36439" lon="5.61953">
        <ele>902.5</ele>
        <time>2021-09-07T17:29:52Z</time>
      </trkpt>
      <trkpt lat="44.36439" lon="5.61955">
        <ele>902.5</ele>
        <time>2021-09-07T17:29:53Z</time>
      </trkpt>
      <trkpt lat="44.36438" lon="5.61956">
        <ele>902.6</ele>
        <time>2021-09-07T17:29:54Z</time>
      </trkpt>
      <trkpt lat="44.36437" lon="5.61957">
        <ele>902.6</ele>
        <time>2021-09-07T17:29:55Z</time>
      </trkpt>
      <trkpt lat="44.36437" lon="5.61958">
        <ele>902.7</ele>
        <time>2021-09-07T17:29:56Z</time>
      </trkpt>
      <trkpt lat="44.36436" lon="5.61959">
        <ele>902.7</ele>
        <time>2021-09-07T17:29:57Z</time>
      </trkpt>
      <trkpt lat="44.36436" lon="5.6196">
        <ele>902.8</ele>
        <time>2021-09-07T17:29:58Z</time>
      </trkpt>
      <trkpt lat="44.36436" lon="5.6196">
        <ele>902.8</ele>
        <time>2021-09-07T17:29:59Z</time>
      </trkpt>
      <trkpt lat="44.36435" lon="5.6196">
        <ele>902.8</ele>
        <time>2021-09-07T17:30:00Z</time>
      </trkpt>
      <trkpt lat="44.36435" lon="5.61961">
        <ele>902.9</ele>
        <time>2021-09-07T17:30:01Z</time>
      </trkpt>
      <trkpt lat="44.36434" lon="5.61961">
        <ele>902.9</ele>
        <time>2021-09-07T17:30:02Z</time>
      </trkpt>
      <trkpt lat="44.36432" lon="5.61962">
        <ele>903</ele>
        <time>2021-09-07T17:30:03Z</time>
      </trkpt>
      <trkpt lat="44.3643" lon="5.61962">
        <ele>903.1</ele>
        <time>2021-09-07T17:30:04Z</time>
      </trkpt>
      <trkpt lat="44.36427" lon="5.61962">
        <ele>903.3</ele>
        <time>2021-09-07T17:30:05Z</time>
      </trkpt>
      <trkpt lat="44.36425" lon="5.61962">
        <ele>903.4</ele>
        <time>2021-09-07T17:30:06Z</time>
      </trkpt>
      <trkpt lat="44.36425" lon="5.61962">
        <ele>903.4</ele>
        <time>2021-09-07T17:30:07Z</time>
      </trkpt>
      <trkpt lat="44.36424" lon="5.61963">
        <ele>903.5</ele>
        <time>2021-09-07T17:30:08Z</time>
      </trkpt>
      <trkpt lat="44.36423" lon="5.61963">
        <ele>903.6</ele>
        <time>2021-09-07T17:30:09Z</time>
      </trkpt>
      <trkpt lat="44.36423" lon="5.61963">
        <ele>903.6</ele>
        <time>2021-09-07T17:30:10Z</time>
      </trkpt>
      <trkpt lat="44.36423" lon="5.61963">
        <ele>903.6</ele>
        <time>2021-09-07T17:30:11Z</time>
      </trkpt>
      <trkpt lat="44.36422" lon="5.61963">
        <ele>903.6</ele>
        <time>2021-09-07T17:30:12Z</time>
      </trkpt>
      <trkpt lat="44.36421" lon="5.61964">
        <ele>903.7</ele>
        <time>2021-09-07T17:30:13Z</time>
      </trkpt>
      <trkpt lat="44.3642" lon="5.61966">
        <ele>903.9</ele>
        <time>2021-09-07T17:30:14Z</time>
      </trkpt>
      <trkpt lat="44.36418" lon="5.61967">
        <ele>904</ele>
        <time>2021-09-07T17:30:15Z</time>
      </trkpt>
      <trkpt lat="44.36416" lon="5.61969">
        <ele>904.3</ele>
        <time>2021-09-07T17:30:16Z</time>
      </trkpt>
      <trkpt lat="44.36414" lon="5.61973">
        <ele>904.6</ele>
        <time>2021-09-07T17:30:17Z</time>
      </trkpt>
      <trkpt lat="44.36411" lon="5.61975">
        <ele>904.9</ele>
        <time>2021-09-07T17:30:18Z</time>
      </trkpt>
      <trkpt lat="44.3641" lon="5.61976">
        <ele>905</ele>
        <time>2021-09-07T17:30:19Z</time>
      </trkpt>
      <trkpt lat="44.36409" lon="5.61976">
        <ele>905.1</ele>
        <time>2021-09-07T17:30:20Z</time>
      </trkpt>
      <trkpt lat="44.36407" lon="5.61976">
        <ele>905.3</ele>
        <time>2021-09-07T17:30:21Z</time>
      </trkpt>
      <trkpt lat="44.36406" lon="5.61976">
        <ele>905.4</ele>
        <time>2021-09-07T17:30:22Z</time>
      </trkpt>
      <trkpt lat="44.36403" lon="5.61977">
        <ele>905.7</ele>
        <time>2021-09-07T17:30:23Z</time>
      </trkpt>
      <trkpt lat="44.36401" lon="5.61978">
        <ele>905.9</ele>
        <time>2021-09-07T17:30:24Z</time>
      </trkpt>
      <trkpt lat="44.36398" lon="5.61979">
        <ele>906.1</ele>
        <time>2021-09-07T17:30:25Z</time>
      </trkpt>
      <trkpt lat="44.36397" lon="5.61978">
        <ele>906.3</ele>
        <time>2021-09-07T17:30:26Z</time>
      </trkpt>
      <trkpt lat="44.36397" lon="5.61978">
        <ele>906.3</ele>
        <time>2021-09-07T17:30:27Z</time>
      </trkpt>
      <trkpt lat="44.36396" lon="5.61977">
        <ele>906.4</ele>
        <time>2021-09-07T17:30:28Z</time>
      </trkpt>
      <trkpt lat="44.36396" lon="5.61977">
        <ele>906.4</ele>
        <time>2021-09-07T17:30:29Z</time>
      </trkpt>
      <trkpt lat="44.36396" lon="5.61977">
        <ele>906.4</ele>
        <time>2021-09-07T17:30:30Z</time>
      </trkpt>
      <trkpt lat="44.36396" lon="5.61977">
        <ele>906.4</ele>
        <time>2021-09-07T17:30:31Z</time>
      </trkpt>
      <trkpt lat="44.36396" lon="5.61977">
        <ele>906.4</ele>
        <time>2021-09-07T17:30:32Z</time>
      </trkpt>
      <trkpt lat="44.36396" lon="5.61977">
        <ele>906.4</ele>
        <time>2021-09-07T17:30:33Z</time>
      </trkpt>
      <trkpt lat="44.36395" lon="5.61977">
        <ele>906.5</ele>
        <time>2021-09-07T17:30:34Z</time>
      </trkpt>
      <trkpt lat="44.36395" lon="5.61977">
        <ele>906.5</ele>
        <time>2021-09-07T17:30:35Z</time>
      </trkpt>
      <trkpt lat="44.36395" lon="5.61976">
        <ele>906.5</ele>
        <time>2021-09-07T17:30:36Z</time>
      </trkpt>
      <trkpt lat="44.36395" lon="5.61976">
        <ele>906.5</ele>
        <time>2021-09-07T17:30:37Z</time>
      </trkpt>
      <trkpt lat="44.36395" lon="5.61976">
        <ele>906.6</ele>
        <time>2021-09-07T17:30:38Z</time>
      </trkpt>
      <trkpt lat="44.36394" lon="5.61976">
        <ele>906.6</ele>
        <time>2021-09-07T17:30:39Z</time>
      </trkpt>
      <trkpt lat="44.36394" lon="5.61976">
        <ele>906.6</ele>
        <time>2021-09-07T17:30:40Z</time>
      </trkpt>
      <trkpt lat="44.36394" lon="5.61976">
        <ele>906.6</ele>
        <time>2021-09-07T17:30:41Z</time>
      </trkpt>
      <trkpt lat="44.36394" lon="5.61976">
        <ele>906.7</ele>
        <time>2021-09-07T17:30:42Z</time>
      </trkpt>
      <trkpt lat="44.36393" lon="5.61976">
        <ele>906.7</ele>
        <time>2021-09-07T17:30:43Z</time>
      </trkpt>
      <trkpt lat="44.36392" lon="5.61976">
        <ele>906.8</ele>
        <time>2021-09-07T17:30:44Z</time>
      </trkpt>
      <trkpt lat="44.36391" lon="5.61975">
        <ele>906.9</ele>
        <time>2021-09-07T17:30:45Z</time>
      </trkpt>
      <trkpt lat="44.36391" lon="5.61975">
        <ele>907</ele>
        <time>2021-09-07T17:30:46Z</time>
      </trkpt>
      <trkpt lat="44.3639" lon="5.61974">
        <ele>907</ele>
        <time>2021-09-07T17:30:47Z</time>
      </trkpt>
      <trkpt lat="44.36387" lon="5.61972">
        <ele>907.4</ele>
        <time>2021-09-07T17:30:48Z</time>
      </trkpt>
      <trkpt lat="44.36386" lon="5.61971">
        <ele>907.5</ele>
        <time>2021-09-07T17:30:49Z</time>
      </trkpt>
      <trkpt lat="44.36385" lon="5.6197">
        <ele>907.7</ele>
        <time>2021-09-07T17:30:50Z</time>
      </trkpt>
      <trkpt lat="44.36384" lon="5.61969">
        <ele>907.9</ele>
        <time>2021-09-07T17:30:51Z</time>
      </trkpt>
      <trkpt lat="44.36382" lon="5.61968">
        <ele>908.1</ele>
        <time>2021-09-07T17:30:52Z</time>
      </trkpt>
      <trkpt lat="44.3638" lon="5.61967">
        <ele>908.3</ele>
        <time>2021-09-07T17:30:53Z</time>
      </trkpt>
      <trkpt lat="44.36377" lon="5.61966">
        <ele>908.8</ele>
        <time>2021-09-07T17:30:54Z</time>
      </trkpt>
      <trkpt lat="44.36374" lon="5.61966">
        <ele>909.2</ele>
        <time>2021-09-07T17:30:55Z</time>
      </trkpt>
      <trkpt lat="44.36373" lon="5.61966">
        <ele>909.5</ele>
        <time>2021-09-07T17:30:56Z</time>
      </trkpt>
      <trkpt lat="44.36371" lon="5.61965">
        <ele>909.7</ele>
        <time>2021-09-07T17:30:57Z</time>
      </trkpt>
      <trkpt lat="44.36372" lon="5.61965">
        <ele>909.9</ele>
        <time>2021-09-07T17:30:58Z</time>
      </trkpt>
      <trkpt lat="44.36372" lon="5.61966">
        <ele>910</ele>
        <time>2021-09-07T17:30:59Z</time>
      </trkpt>
      <trkpt lat="44.36372" lon="5.61966">
        <ele>910.1</ele>
        <time>2021-09-07T17:31:00Z</time>
      </trkpt>
      <trkpt lat="44.36372" lon="5.61966">
        <ele>910.1</ele>
        <time>2021-09-07T17:31:01Z</time>
      </trkpt>
      <trkpt lat="44.36372" lon="5.61967">
        <ele>910.2</ele>
        <time>2021-09-07T17:31:02Z</time>
      </trkpt>
      <trkpt lat="44.36373" lon="5.61968">
        <ele>910.3</ele>
        <time>2021-09-07T17:31:03Z</time>
      </trkpt>
      <trkpt lat="44.36373" lon="5.61968">
        <ele>910.4</ele>
        <time>2021-09-07T17:31:04Z</time>
      </trkpt>
      <trkpt lat="44.36373" lon="5.6197">
        <ele>910.7</ele>
        <time>2021-09-07T17:31:05Z</time>
      </trkpt>
      <trkpt lat="44.36373" lon="5.61972">
        <ele>911</ele>
        <time>2021-09-07T17:31:06Z</time>
      </trkpt>
      <trkpt lat="44.36373" lon="5.61974">
        <ele>911.3</ele>
        <time>2021-09-07T17:31:07Z</time>
      </trkpt>
      <trkpt lat="44.36373" lon="5.61975">
        <ele>911.5</ele>
        <time>2021-09-07T17:31:08Z</time>
      </trkpt>
      <trkpt lat="44.36373" lon="5.61977">
        <ele>911.8</ele>
        <time>2021-09-07T17:31:09Z</time>
      </trkpt>
      <trkpt lat="44.36373" lon="5.61978">
        <ele>912</ele>
        <time>2021-09-07T17:31:10Z</time>
      </trkpt>
      <trkpt lat="44.36373" lon="5.6198">
        <ele>912.2</ele>
        <time>2021-09-07T17:31:11Z</time>
      </trkpt>
      <trkpt lat="44.36372" lon="5.61981">
        <ele>912.5</ele>
        <time>2021-09-07T17:31:12Z</time>
      </trkpt>
      <trkpt lat="44.36372" lon="5.61983">
        <ele>912.8</ele>
        <time>2021-09-07T17:31:13Z</time>
      </trkpt>
      <trkpt lat="44.36372" lon="5.61986">
        <ele>913.3</ele>
        <time>2021-09-07T17:31:14Z</time>
      </trkpt>
      <trkpt lat="44.36372" lon="5.61988">
        <ele>913.5</ele>
        <time>2021-09-07T17:31:15Z</time>
      </trkpt>
      <trkpt lat="44.36371" lon="5.61989">
        <ele>913.7</ele>
        <time>2021-09-07T17:31:16Z</time>
      </trkpt>
      <trkpt lat="44.36371" lon="5.61991">
        <ele>914</ele>
        <time>2021-09-07T17:31:17Z</time>
      </trkpt>
      <trkpt lat="44.3637" lon="5.61993">
        <ele>914.3</ele>
        <time>2021-09-07T17:31:18Z</time>
      </trkpt>
      <trkpt lat="44.36369" lon="5.61996">
        <ele>914.7</ele>
        <time>2021-09-07T17:31:19Z</time>
      </trkpt>
      <trkpt lat="44.36369" lon="5.61998">
        <ele>914.9</ele>
        <time>2021-09-07T17:31:20Z</time>
      </trkpt>
      <trkpt lat="44.36369" lon="5.62">
        <ele>915.1</ele>
        <time>2021-09-07T17:31:21Z</time>
      </trkpt>
      <trkpt lat="44.36368" lon="5.62001">
        <ele>915.3</ele>
        <time>2021-09-07T17:31:22Z</time>
      </trkpt>
      <trkpt lat="44.36367" lon="5.62002">
        <ele>915.5</ele>
        <time>2021-09-07T17:31:23Z</time>
      </trkpt>
      <trkpt lat="44.36366" lon="5.62004">
        <ele>915.7</ele>
        <time>2021-09-07T17:31:24Z</time>
      </trkpt>
      <trkpt lat="44.36366" lon="5.62005">
        <ele>915.8</ele>
        <time>2021-09-07T17:31:25Z</time>
      </trkpt>
      <trkpt lat="44.36366" lon="5.62005">
        <ele>915.8</ele>
        <time>2021-09-07T17:31:26Z</time>
      </trkpt>
      <trkpt lat="44.36365" lon="5.62006">
        <ele>916</ele>
        <time>2021-09-07T17:31:27Z</time>
      </trkpt>
      <trkpt lat="44.36365" lon="5.62006">
        <ele>916</ele>
        <time>2021-09-07T17:31:28Z</time>
      </trkpt>
      <trkpt lat="44.36365" lon="5.62007">
        <ele>916.1</ele>
        <time>2021-09-07T17:31:29Z</time>
      </trkpt>
      <trkpt lat="44.36365" lon="5.62007">
        <ele>916.1</ele>
        <time>2021-09-07T17:31:30Z</time>
      </trkpt>
      <trkpt lat="44.36365" lon="5.62007">
        <ele>916.1</ele>
        <time>2021-09-07T17:31:31Z</time>
      </trkpt>
      <trkpt lat="44.36365" lon="5.62007">
        <ele>916.1</ele>
        <time>2021-09-07T17:31:32Z</time>
      </trkpt>
      <trkpt lat="44.36365" lon="5.62007">
        <ele>916.1</ele>
        <time>2021-09-07T17:31:33Z</time>
      </trkpt>
      <trkpt lat="44.36365" lon="5.62007">
        <ele>916.1</ele>
        <time>2021-09-07T17:31:34Z</time>
      </trkpt>
      <trkpt lat="44.36365" lon="5.62007">
        <ele>916.1</ele>
        <time>2021-09-07T17:31:35Z</time>
      </trkpt>
      <trkpt lat="44.36365" lon="5.62007">
        <ele>916.1</ele>
        <time>2021-09-07T17:31:36Z</time>
      </trkpt>
      <trkpt lat="44.36365" lon="5.62007">
        <ele>916.1</ele>
        <time>2021-09-07T17:31:37Z</time>
      </trkpt>
      <trkpt lat="44.36365" lon="5.62007">
        <ele>916.1</ele>
        <time>2021-09-07T17:31:38Z</time>
      </trkpt>
      <trkpt lat="44.36364" lon="5.62007">
        <ele>916.2</ele>
        <time>2021-09-07T17:31:39Z</time>
      </trkpt>
      <trkpt lat="44.36363" lon="5.62006">
        <ele>916.3</ele>
        <time>2021-09-07T17:31:40Z</time>
      </trkpt>
      <trkpt lat="44.36362" lon="5.62005">
        <ele>916.5</ele>
        <time>2021-09-07T17:31:41Z</time>
      </trkpt>
      <trkpt lat="44.36361" lon="5.62004">
        <ele>916.6</ele>
        <time>2021-09-07T17:31:42Z</time>
      </trkpt>
      <trkpt lat="44.3636" lon="5.62003">
        <ele>916.8</ele>
        <time>2021-09-07T17:31:43Z</time>
      </trkpt>
      <trkpt lat="44.3636" lon="5.62002">
        <ele>916.9</ele>
        <time>2021-09-07T17:31:44Z</time>
      </trkpt>
      <trkpt lat="44.36359" lon="5.62001">
        <ele>917</ele>
        <time>2021-09-07T17:31:45Z</time>
      </trkpt>
      <trkpt lat="44.36358" lon="5.61999">
        <ele>917.2</ele>
        <time>2021-09-07T17:31:46Z</time>
      </trkpt>
      <trkpt lat="44.36357" lon="5.61997">
        <ele>917.3</ele>
        <time>2021-09-07T17:31:47Z</time>
      </trkpt>
      <trkpt lat="44.36356" lon="5.61994">
        <ele>917.5</ele>
        <time>2021-09-07T17:31:48Z</time>
      </trkpt>
      <trkpt lat="44.36356" lon="5.61993">
        <ele>917.7</ele>
        <time>2021-09-07T17:31:49Z</time>
      </trkpt>
      <trkpt lat="44.36355" lon="5.61991">
        <ele>917.7</ele>
        <time>2021-09-07T17:31:50Z</time>
      </trkpt>
      <trkpt lat="44.36354" lon="5.61987">
        <ele>918</ele>
        <time>2021-09-07T17:31:51Z</time>
      </trkpt>
      <trkpt lat="44.36353" lon="5.61984">
        <ele>918.1</ele>
        <time>2021-09-07T17:31:52Z</time>
      </trkpt>
      <trkpt lat="44.36352" lon="5.61979">
        <ele>918.4</ele>
        <time>2021-09-07T17:31:53Z</time>
      </trkpt>
      <trkpt lat="44.36351" lon="5.61974">
        <ele>918.6</ele>
        <time>2021-09-07T17:31:54Z</time>
      </trkpt>
      <trkpt lat="44.36349" lon="5.61966">
        <ele>918.8</ele>
        <time>2021-09-07T17:31:55Z</time>
      </trkpt>
      <trkpt lat="44.36348" lon="5.6196">
        <ele>918.9</ele>
        <time>2021-09-07T17:31:56Z</time>
      </trkpt>
      <trkpt lat="44.36346" lon="5.61954">
        <ele>919</ele>
        <time>2021-09-07T17:31:57Z</time>
      </trkpt>
      <trkpt lat="44.36345" lon="5.61949">
        <ele>919</ele>
        <time>2021-09-07T17:31:58Z</time>
      </trkpt>
      <trkpt lat="44.36343" lon="5.61943">
        <ele>919.1</ele>
        <time>2021-09-07T17:31:59Z</time>
      </trkpt>
      <trkpt lat="44.36342" lon="5.61938">
        <ele>919.1</ele>
        <time>2021-09-07T17:32:00Z</time>
      </trkpt>
      <trkpt lat="44.3634" lon="5.61932">
        <ele>919.2</ele>
        <time>2021-09-07T17:32:01Z</time>
      </trkpt>
      <trkpt lat="44.36338" lon="5.61925">
        <ele>919.2</ele>
        <time>2021-09-07T17:32:02Z</time>
      </trkpt>
      <trkpt lat="44.36336" lon="5.61919">
        <ele>919.2</ele>
        <time>2021-09-07T17:32:03Z</time>
      </trkpt>
      <trkpt lat="44.36334" lon="5.61913">
        <ele>919.3</ele>
        <time>2021-09-07T17:32:04Z</time>
      </trkpt>
      <trkpt lat="44.36333" lon="5.61908">
        <ele>919.3</ele>
        <time>2021-09-07T17:32:05Z</time>
      </trkpt>
      <trkpt lat="44.36332" lon="5.61903">
        <ele>919.3</ele>
        <time>2021-09-07T17:32:06Z</time>
      </trkpt>
      <trkpt lat="44.36329" lon="5.61896">
        <ele>919.4</ele>
        <time>2021-09-07T17:32:07Z</time>
      </trkpt>
      <trkpt lat="44.36328" lon="5.6189">
        <ele>919.5</ele>
        <time>2021-09-07T17:32:08Z</time>
      </trkpt>
      <trkpt lat="44.36328" lon="5.61886">
        <ele>919.6</ele>
        <time>2021-09-07T17:32:09Z</time>
      </trkpt>
      <trkpt lat="44.36327" lon="5.61882">
        <ele>919.6</ele>
        <time>2021-09-07T17:32:10Z</time>
      </trkpt>
      <trkpt lat="44.36326" lon="5.61875">
        <ele>919.8</ele>
        <time>2021-09-07T17:32:11Z</time>
      </trkpt>
      <trkpt lat="44.36325" lon="5.61871">
        <ele>919.9</ele>
        <time>2021-09-07T17:32:12Z</time>
      </trkpt>
      <trkpt lat="44.36324" lon="5.61868">
        <ele>920</ele>
        <time>2021-09-07T17:32:13Z</time>
      </trkpt>
      <trkpt lat="44.36323" lon="5.61865">
        <ele>920.1</ele>
        <time>2021-09-07T17:32:14Z</time>
      </trkpt>
      <trkpt lat="44.36322" lon="5.61865">
        <ele>920.1</ele>
        <time>2021-09-07T17:32:15Z</time>
      </trkpt>
      <trkpt lat="44.36322" lon="5.61866">
        <ele>920.2</ele>
        <time>2021-09-07T17:32:16Z</time>
      </trkpt>
      <trkpt lat="44.36321" lon="5.61866">
        <ele>920.2</ele>
        <time>2021-09-07T17:32:17Z</time>
      </trkpt>
      <trkpt lat="44.36318" lon="5.61868">
        <ele>920.3</ele>
        <time>2021-09-07T17:32:18Z</time>
      </trkpt>
      <trkpt lat="44.36316" lon="5.6187">
        <ele>920.4</ele>
        <time>2021-09-07T17:32:19Z</time>
      </trkpt>
      <trkpt lat="44.36314" lon="5.61871">
        <ele>920.5</ele>
        <time>2021-09-07T17:32:20Z</time>
      </trkpt>
      <trkpt lat="44.36312" lon="5.61872">
        <ele>920.6</ele>
        <time>2021-09-07T17:32:21Z</time>
      </trkpt>
      <trkpt lat="44.3631" lon="5.61873">
        <ele>920.6</ele>
        <time>2021-09-07T17:32:22Z</time>
      </trkpt>
      <trkpt lat="44.36309" lon="5.61873">
        <ele>920.6</ele>
        <time>2021-09-07T17:32:23Z</time>
      </trkpt>
      <trkpt lat="44.36307" lon="5.61873">
        <ele>920.7</ele>
        <time>2021-09-07T17:32:24Z</time>
      </trkpt>
      <trkpt lat="44.36303" lon="5.61873">
        <ele>920.7</ele>
        <time>2021-09-07T17:32:25Z</time>
      </trkpt>
      <trkpt lat="44.36301" lon="5.61873">
        <ele>920.7</ele>
        <time>2021-09-07T17:32:26Z</time>
      </trkpt>
      <trkpt lat="44.36299" lon="5.61873">
        <ele>920.7</ele>
        <time>2021-09-07T17:32:27Z</time>
      </trkpt>
      <trkpt lat="44.36297" lon="5.61873">
        <ele>920.8</ele>
        <time>2021-09-07T17:32:28Z</time>
      </trkpt>
      <trkpt lat="44.36293" lon="5.61873">
        <ele>920.8</ele>
        <time>2021-09-07T17:32:29Z</time>
      </trkpt>
      <trkpt lat="44.36291" lon="5.61874">
        <ele>920.8</ele>
        <time>2021-09-07T17:32:30Z</time>
      </trkpt>
      <trkpt lat="44.36289" lon="5.61875">
        <ele>920.8</ele>
        <time>2021-09-07T17:32:31Z</time>
      </trkpt>
      <trkpt lat="44.36286" lon="5.61876">
        <ele>920.8</ele>
        <time>2021-09-07T17:32:32Z</time>
      </trkpt>
      <trkpt lat="44.36285" lon="5.61876">
        <ele>920.8</ele>
        <time>2021-09-07T17:32:33Z</time>
      </trkpt>
      <trkpt lat="44.36284" lon="5.61876">
        <ele>920.8</ele>
        <time>2021-09-07T17:32:34Z</time>
      </trkpt>
      <trkpt lat="44.36284" lon="5.61877">
        <ele>920.8</ele>
        <time>2021-09-07T17:32:35Z</time>
      </trkpt>
      <trkpt lat="44.36284" lon="5.61877">
        <ele>920.8</ele>
        <time>2021-09-07T17:32:36Z</time>
      </trkpt>
      <trkpt lat="44.36284" lon="5.61877">
        <ele>920.8</ele>
        <time>2021-09-07T17:32:37Z</time>
      </trkpt>
      <trkpt lat="44.36284" lon="5.61877">
        <ele>920.8</ele>
        <time>2021-09-07T17:32:38Z</time>
      </trkpt>
      <trkpt lat="44.36284" lon="5.61877">
        <ele>920.8</ele>
        <time>2021-09-07T17:32:39Z</time>
      </trkpt>
      <trkpt lat="44.36284" lon="5.61877">
        <ele>920.8</ele>
        <time>2021-09-07T17:32:40Z</time>
      </trkpt>
      <trkpt lat="44.36284" lon="5.61877">
        <ele>920.8</ele>
        <time>2021-09-07T17:32:41Z</time>
      </trkpt>
      <trkpt lat="44.36284" lon="5.61877">
        <ele>920.8</ele>
        <time>2021-09-07T17:32:42Z</time>
      </trkpt>
      <trkpt lat="44.36284" lon="5.61877">
        <ele>920.8</ele>
        <time>2021-09-07T17:32:43Z</time>
      </trkpt>
      <trkpt lat="44.36284" lon="5.61877">
        <ele>920.8</ele>
        <time>2021-09-07T17:32:44Z</time>
      </trkpt>
      <trkpt lat="44.36284" lon="5.61877">
        <ele>920.8</ele>
        <time>2021-09-07T17:32:45Z</time>
      </trkpt>
      <trkpt lat="44.36284" lon="5.61877">
        <ele>920.8</ele>
        <time>2021-09-07T17:32:46Z</time>
      </trkpt>
      <trkpt lat="44.36284" lon="5.61878">
        <ele>920.8</ele>
        <time>2021-09-07T17:32:47Z</time>
      </trkpt>
      <trkpt lat="44.36284" lon="5.61878">
        <ele>920.8</ele>
        <time>2021-09-07T17:32:48Z</time>
      </trkpt>
      <trkpt lat="44.36284" lon="5.61878">
        <ele>920.8</ele>
        <time>2021-09-07T17:32:49Z</time>
      </trkpt>
      <trkpt lat="44.36284" lon="5.61878">
        <ele>920.8</ele>
        <time>2021-09-07T17:32:50Z</time>
      </trkpt>
      <trkpt lat="44.36284" lon="5.61878">
        <ele>920.8</ele>
        <time>2021-09-07T17:32:51Z</time>
      </trkpt>
      <trkpt lat="44.36284" lon="5.61878">
        <ele>920.8</ele>
        <time>2021-09-07T17:32:52Z</time>
      </trkpt>
      <trkpt lat="44.36284" lon="5.61878">
        <ele>920.8</ele>
        <time>2021-09-07T17:32:53Z</time>
      </trkpt>
      <trkpt lat="44.36284" lon="5.61878">
        <ele>920.8</ele>
        <time>2021-09-07T17:32:54Z</time>
      </trkpt>
      <trkpt lat="44.36284" lon="5.61877">
        <ele>920.8</ele>
        <time>2021-09-07T17:32:55Z</time>
      </trkpt>
      <trkpt lat="44.36283" lon="5.61876">
        <ele>920.8</ele>
        <time>2021-09-07T17:32:56Z</time>
      </trkpt>
      <trkpt lat="44.36283" lon="5.61875">
        <ele>920.7</ele>
        <time>2021-09-07T17:32:57Z</time>
      </trkpt>
      <trkpt lat="44.36282" lon="5.61874">
        <ele>920.7</ele>
        <time>2021-09-07T17:32:58Z</time>
      </trkpt>
      <trkpt lat="44.36282" lon="5.61873">
        <ele>920.7</ele>
        <time>2021-09-07T17:32:59Z</time>
      </trkpt>
      <trkpt lat="44.36282" lon="5.61872">
        <ele>920.7</ele>
        <time>2021-09-07T17:33:00Z</time>
      </trkpt>
      <trkpt lat="44.36282" lon="5.61871">
        <ele>920.6</ele>
        <time>2021-09-07T17:33:01Z</time>
      </trkpt>
      <trkpt lat="44.36282" lon="5.6187">
        <ele>920.6</ele>
        <time>2021-09-07T17:33:02Z</time>
      </trkpt>
      <trkpt lat="44.36282" lon="5.61869">
        <ele>920.6</ele>
        <time>2021-09-07T17:33:03Z</time>
      </trkpt>
      <trkpt lat="44.36282" lon="5.61868">
        <ele>920.6</ele>
        <time>2021-09-07T17:33:04Z</time>
      </trkpt>
      <trkpt lat="44.36282" lon="5.61868">
        <ele>920.5</ele>
        <time>2021-09-07T17:33:05Z</time>
      </trkpt>
      <trkpt lat="44.36281" lon="5.61867">
        <ele>920.5</ele>
        <time>2021-09-07T17:33:06Z</time>
      </trkpt>
      <trkpt lat="44.36281" lon="5.61867">
        <ele>920.5</ele>
        <time>2021-09-07T17:33:07Z</time>
      </trkpt>
      <trkpt lat="44.36281" lon="5.61866">
        <ele>920.5</ele>
        <time>2021-09-07T17:33:08Z</time>
      </trkpt>
      <trkpt lat="44.36281" lon="5.61866">
        <ele>920.5</ele>
        <time>2021-09-07T17:33:09Z</time>
      </trkpt>
      <trkpt lat="44.36281" lon="5.61866">
        <ele>920.5</ele>
        <time>2021-09-07T17:33:10Z</time>
      </trkpt>
      <trkpt lat="44.36281" lon="5.61866">
        <ele>920.5</ele>
        <time>2021-09-07T17:33:11Z</time>
      </trkpt>
      <trkpt lat="44.36281" lon="5.61866">
        <ele>920.5</ele>
        <time>2021-09-07T17:33:12Z</time>
      </trkpt>
      <trkpt lat="44.36281" lon="5.61866">
        <ele>920.5</ele>
        <time>2021-09-07T17:33:13Z</time>
      </trkpt>
      <trkpt lat="44.36281" lon="5.61866">
        <ele>920.5</ele>
        <time>2021-09-07T17:33:14Z</time>
      </trkpt>
      <trkpt lat="44.36281" lon="5.61866">
        <ele>920.5</ele>
        <time>2021-09-07T17:33:15Z</time>
      </trkpt>
      <trkpt lat="44.36281" lon="5.61866">
        <ele>920.4</ele>
        <time>2021-09-07T17:33:16Z</time>
      </trkpt>
      <trkpt lat="44.3628" lon="5.61866">
        <ele>920.4</ele>
        <time>2021-09-07T17:33:17Z</time>
      </trkpt>
      <trkpt lat="44.3628" lon="5.61866">
        <ele>920.4</ele>
        <time>2021-09-07T17:33:18Z</time>
      </trkpt>
      <trkpt lat="44.3628" lon="5.61866">
        <ele>920.4</ele>
        <time>2021-09-07T17:33:19Z</time>
      </trkpt>
      <trkpt lat="44.3628" lon="5.61866">
        <ele>920.4</ele>
        <time>2021-09-07T17:33:20Z</time>
      </trkpt>
      <trkpt lat="44.3628" lon="5.61866">
        <ele>920.4</ele>
        <time>2021-09-07T17:33:21Z</time>
      </trkpt>
      <trkpt lat="44.3628" lon="5.61866">
        <ele>920.4</ele>
        <time>2021-09-07T17:33:22Z</time>
      </trkpt>
      <trkpt lat="44.3628" lon="5.61866">
        <ele>920.4</ele>
        <time>2021-09-07T17:33:23Z</time>
      </trkpt>
      <trkpt lat="44.3628" lon="5.61866">
        <ele>920.4</ele>
        <time>2021-09-07T17:33:24Z</time>
      </trkpt>
      <trkpt lat="44.3628" lon="5.61866">
        <ele>920.4</ele>
        <time>2021-09-07T17:33:25Z</time>
      </trkpt>
      <trkpt lat="44.3628" lon="5.61866">
        <ele>920.4</ele>
        <time>2021-09-07T17:33:26Z</time>
      </trkpt>
      <trkpt lat="44.3628" lon="5.61866">
        <ele>920.4</ele>
        <time>2021-09-07T17:33:27Z</time>
      </trkpt>
      <trkpt lat="44.3628" lon="5.61866">
        <ele>920.4</ele>
        <time>2021-09-07T17:33:28Z</time>
      </trkpt>
      <trkpt lat="44.3628" lon="5.61866">
        <ele>920.4</ele>
        <time>2021-09-07T17:33:29Z</time>
      </trkpt>
      <trkpt lat="44.3628" lon="5.61866">
        <ele>920.4</ele>
        <time>2021-09-07T17:33:30Z</time>
      </trkpt>
      <trkpt lat="44.3628" lon="5.61866">
        <ele>920.4</ele>
        <time>2021-09-07T17:33:31Z</time>
      </trkpt>
      <trkpt lat="44.3628" lon="5.61866">
        <ele>920.4</ele>
        <time>2021-09-07T17:33:32Z</time>
      </trkpt>
      <trkpt lat="44.3628" lon="5.61866">
        <ele>920.4</ele>
        <time>2021-09-07T17:33:33Z</time>
      </trkpt>
      <trkpt lat="44.3628" lon="5.61866">
        <ele>920.4</ele>
        <time>2021-09-07T17:33:34Z</time>
      </trkpt>
      <trkpt lat="44.3628" lon="5.61866">
        <ele>920.4</ele>
        <time>2021-09-07T17:33:35Z</time>
      </trkpt>
      <trkpt lat="44.3628" lon="5.61866">
        <ele>920.4</ele>
        <time>2021-09-07T17:33:36Z</time>
      </trkpt>
      <trkpt lat="44.3628" lon="5.61865">
        <ele>920.4</ele>
        <time>2021-09-07T17:33:37Z</time>
      </trkpt>
      <trkpt lat="44.36281" lon="5.61862">
        <ele>920.3</ele>
        <time>2021-09-07T17:33:38Z</time>
      </trkpt>
      <trkpt lat="44.36282" lon="5.6186">
        <ele>920.2</ele>
        <time>2021-09-07T17:33:39Z</time>
      </trkpt>
      <trkpt lat="44.36283" lon="5.61858">
        <ele>920.1</ele>
        <time>2021-09-07T17:33:40Z</time>
      </trkpt>
      <trkpt lat="44.36283" lon="5.61855">
        <ele>920</ele>
        <time>2021-09-07T17:33:41Z</time>
      </trkpt>
      <trkpt lat="44.36284" lon="5.61854">
        <ele>919.9</ele>
        <time>2021-09-07T17:33:42Z</time>
      </trkpt>
      <trkpt lat="44.36284" lon="5.61852">
        <ele>919.8</ele>
        <time>2021-09-07T17:33:43Z</time>
      </trkpt>
      <trkpt lat="44.36285" lon="5.6185">
        <ele>919.7</ele>
        <time>2021-09-07T17:33:44Z</time>
      </trkpt>
      <trkpt lat="44.36285" lon="5.61849">
        <ele>919.7</ele>
        <time>2021-09-07T17:33:45Z</time>
      </trkpt>
      <trkpt lat="44.36285" lon="5.61846">
        <ele>919.6</ele>
        <time>2021-09-07T17:33:46Z</time>
      </trkpt>
      <trkpt lat="44.36286" lon="5.61845">
        <ele>919.5</ele>
        <time>2021-09-07T17:33:47Z</time>
      </trkpt>
      <trkpt lat="44.36286" lon="5.61843">
        <ele>919.5</ele>
        <time>2021-09-07T17:33:48Z</time>
      </trkpt>
      <trkpt lat="44.36287" lon="5.61839">
        <ele>919.3</ele>
        <time>2021-09-07T17:33:49Z</time>
      </trkpt>
      <trkpt lat="44.36288" lon="5.61835">
        <ele>919.2</ele>
        <time>2021-09-07T17:33:50Z</time>
      </trkpt>
      <trkpt lat="44.36289" lon="5.61833">
        <ele>919.1</ele>
        <time>2021-09-07T17:33:51Z</time>
      </trkpt>
      <trkpt lat="44.36289" lon="5.61832">
        <ele>919.1</ele>
        <time>2021-09-07T17:33:52Z</time>
      </trkpt>
      <trkpt lat="44.36289" lon="5.6183">
        <ele>919</ele>
        <time>2021-09-07T17:33:53Z</time>
      </trkpt>
      <trkpt lat="44.3629" lon="5.61827">
        <ele>919</ele>
        <time>2021-09-07T17:33:54Z</time>
      </trkpt>
      <trkpt lat="44.3629" lon="5.61827">
        <ele>919</ele>
        <time>2021-09-07T17:33:55Z</time>
      </trkpt>
      <trkpt lat="44.3629" lon="5.61827">
        <ele>919</ele>
        <time>2021-09-07T17:33:56Z</time>
      </trkpt>
      <trkpt lat="44.3629" lon="5.61827">
        <ele>919</ele>
        <time>2021-09-07T17:33:57Z</time>
      </trkpt>
      <trkpt lat="44.3629" lon="5.61827">
        <ele>918.9</ele>
        <time>2021-09-07T17:33:58Z</time>
      </trkpt>
      <trkpt lat="44.3629" lon="5.61826">
        <ele>918.9</ele>
        <time>2021-09-07T17:33:59Z</time>
      </trkpt>
      <trkpt lat="44.36289" lon="5.61825">
        <ele>918.9</ele>
        <time>2021-09-07T17:34:00Z</time>
      </trkpt>
      <trkpt lat="44.36289" lon="5.61824">
        <ele>918.8</ele>
        <time>2021-09-07T17:34:01Z</time>
      </trkpt>
      <trkpt lat="44.36288" lon="5.61823">
        <ele>918.8</ele>
        <time>2021-09-07T17:34:02Z</time>
      </trkpt>
      <trkpt lat="44.36287" lon="5.61821">
        <ele>918.7</ele>
        <time>2021-09-07T17:34:03Z</time>
      </trkpt>
      <trkpt lat="44.36286" lon="5.61819">
        <ele>918.7</ele>
        <time>2021-09-07T17:34:04Z</time>
      </trkpt>
      <trkpt lat="44.36285" lon="5.61813">
        <ele>918.5</ele>
        <time>2021-09-07T17:34:05Z</time>
      </trkpt>
      <trkpt lat="44.36281" lon="5.61807">
        <ele>918.4</ele>
        <time>2021-09-07T17:34:06Z</time>
      </trkpt>
      <trkpt lat="44.36276" lon="5.61799">
        <ele>918.1</ele>
        <time>2021-09-07T17:34:07Z</time>
      </trkpt>
      <trkpt lat="44.36273" lon="5.61794">
        <ele>917.8</ele>
        <time>2021-09-07T17:34:08Z</time>
      </trkpt>
      <trkpt lat="44.3627" lon="5.61788">
        <ele>917.4</ele>
        <time>2021-09-07T17:34:09Z</time>
      </trkpt>
      <trkpt lat="44.36267" lon="5.61782">
        <ele>917</ele>
        <time>2021-09-07T17:34:10Z</time>
      </trkpt>
      <trkpt lat="44.36264" lon="5.61775">
        <ele>916.5</ele>
        <time>2021-09-07T17:34:11Z</time>
      </trkpt>
      <trkpt lat="44.36263" lon="5.61773">
        <ele>916.3</ele>
        <time>2021-09-07T17:34:12Z</time>
      </trkpt>
      <trkpt lat="44.36261" lon="5.61771">
        <ele>916.1</ele>
        <time>2021-09-07T17:34:13Z</time>
      </trkpt>
      <trkpt lat="44.36259" lon="5.61766">
        <ele>915.7</ele>
        <time>2021-09-07T17:34:14Z</time>
      </trkpt>
      <trkpt lat="44.3626" lon="5.61766">
        <ele>915.6</ele>
        <time>2021-09-07T17:34:15Z</time>
      </trkpt>
      <trkpt lat="44.3626" lon="5.61765">
        <ele>915.6</ele>
        <time>2021-09-07T17:34:16Z</time>
      </trkpt>
      <trkpt lat="44.3626" lon="5.61765">
        <ele>915.6</ele>
        <time>2021-09-07T17:34:17Z</time>
      </trkpt>
      <trkpt lat="44.3626" lon="5.61765">
        <ele>915.6</ele>
        <time>2021-09-07T17:34:18Z</time>
      </trkpt>
      <trkpt lat="44.3626" lon="5.61765">
        <ele>915.6</ele>
        <time>2021-09-07T17:34:19Z</time>
      </trkpt>
      <trkpt lat="44.36261" lon="5.61765">
        <ele>915.5</ele>
        <time>2021-09-07T17:34:20Z</time>
      </trkpt>
      <trkpt lat="44.36261" lon="5.61765">
        <ele>915.5</ele>
        <time>2021-09-07T17:34:21Z</time>
      </trkpt>
      <trkpt lat="44.36261" lon="5.61764">
        <ele>915.4</ele>
        <time>2021-09-07T17:34:22Z</time>
      </trkpt>
      <trkpt lat="44.36261" lon="5.61764">
        <ele>915.4</ele>
        <time>2021-09-07T17:34:23Z</time>
      </trkpt>
      <trkpt lat="44.36261" lon="5.61764">
        <ele>915.4</ele>
        <time>2021-09-07T17:34:24Z</time>
      </trkpt>
      <trkpt lat="44.36261" lon="5.61764">
        <ele>915.4</ele>
        <time>2021-09-07T17:34:25Z</time>
      </trkpt>
      <trkpt lat="44.36261" lon="5.61765">
        <ele>915.4</ele>
        <time>2021-09-07T17:34:26Z</time>
      </trkpt>
      <trkpt lat="44.36261" lon="5.61765">
        <ele>915.4</ele>
        <time>2021-09-07T17:34:27Z</time>
      </trkpt>
      <trkpt lat="44.36261" lon="5.61765">
        <ele>915.4</ele>
        <time>2021-09-07T17:34:28Z</time>
      </trkpt>
      <trkpt lat="44.36261" lon="5.61765">
        <ele>915.4</ele>
        <time>2021-09-07T17:34:29Z</time>
      </trkpt>
      <trkpt lat="44.36261" lon="5.61765">
        <ele>915.4</ele>
        <time>2021-09-07T17:34:30Z</time>
      </trkpt>
      <trkpt lat="44.36262" lon="5.61766">
        <ele>915.3</ele>
        <time>2021-09-07T17:34:31Z</time>
      </trkpt>
      <trkpt lat="44.36263" lon="5.61766">
        <ele>915.2</ele>
        <time>2021-09-07T17:34:32Z</time>
      </trkpt>
      <trkpt lat="44.36263" lon="5.61766">
        <ele>915.2</ele>
        <time>2021-09-07T17:34:33Z</time>
      </trkpt>
      <trkpt lat="44.36264" lon="5.61766">
        <ele>915.1</ele>
        <time>2021-09-07T17:34:34Z</time>
      </trkpt>
      <trkpt lat="44.36265" lon="5.61766">
        <ele>915</ele>
        <time>2021-09-07T17:34:35Z</time>
      </trkpt>
      <trkpt lat="44.36265" lon="5.61766">
        <ele>915</ele>
        <time>2021-09-07T17:34:36Z</time>
      </trkpt>
      <trkpt lat="44.36266" lon="5.61766">
        <ele>914.9</ele>
        <time>2021-09-07T17:34:37Z</time>
      </trkpt>
      <trkpt lat="44.36266" lon="5.61766">
        <ele>914.9</ele>
        <time>2021-09-07T17:34:38Z</time>
      </trkpt>
      <trkpt lat="44.36267" lon="5.61766">
        <ele>914.8</ele>
        <time>2021-09-07T17:34:39Z</time>
      </trkpt>
      <trkpt lat="44.36268" lon="5.61766">
        <ele>914.7</ele>
        <time>2021-09-07T17:34:40Z</time>
      </trkpt>
      <trkpt lat="44.36268" lon="5.61766">
        <ele>914.7</ele>
        <time>2021-09-07T17:34:41Z</time>
      </trkpt>
      <trkpt lat="44.36268" lon="5.61766">
        <ele>914.7</ele>
        <time>2021-09-07T17:34:42Z</time>
      </trkpt>
      <trkpt lat="44.36268" lon="5.61766">
        <ele>914.7</ele>
        <time>2021-09-07T17:34:43Z</time>
      </trkpt>
      <trkpt lat="44.36268" lon="5.61765">
        <ele>914.6</ele>
        <time>2021-09-07T17:34:44Z</time>
      </trkpt>
      <trkpt lat="44.36267" lon="5.61765">
        <ele>914.5</ele>
        <time>2021-09-07T17:34:45Z</time>
      </trkpt>
      <trkpt lat="44.36265" lon="5.61764">
        <ele>914.3</ele>
        <time>2021-09-07T17:34:46Z</time>
      </trkpt>
      <trkpt lat="44.36262" lon="5.61764">
        <ele>914</ele>
        <time>2021-09-07T17:34:47Z</time>
      </trkpt>
      <trkpt lat="44.36261" lon="5.61761">
        <ele>913.8</ele>
        <time>2021-09-07T17:34:48Z</time>
      </trkpt>
      <trkpt lat="44.36261" lon="5.61759">
        <ele>913.7</ele>
        <time>2021-09-07T17:34:49Z</time>
      </trkpt>
      <trkpt lat="44.3626" lon="5.61758">
        <ele>913.6</ele>
        <time>2021-09-07T17:34:50Z</time>
      </trkpt>
      <trkpt lat="44.36259" lon="5.61756">
        <ele>913.4</ele>
        <time>2021-09-07T17:34:51Z</time>
      </trkpt>
      <trkpt lat="44.36259" lon="5.61754">
        <ele>913.3</ele>
        <time>2021-09-07T17:34:52Z</time>
      </trkpt>
      <trkpt lat="44.36256" lon="5.61744">
        <ele>912.6</ele>
        <time>2021-09-07T17:34:53Z</time>
      </trkpt>
      <trkpt lat="44.36256" lon="5.61742">
        <ele>912.5</ele>
        <time>2021-09-07T17:34:54Z</time>
      </trkpt>
      <trkpt lat="44.36255" lon="5.61739">
        <ele>912.3</ele>
        <time>2021-09-07T17:34:55Z</time>
      </trkpt>
      <trkpt lat="44.36255" lon="5.61739">
        <ele>912.3</ele>
        <time>2021-09-07T17:34:56Z</time>
      </trkpt>
      <trkpt lat="44.36254" lon="5.61738">
        <ele>912.2</ele>
        <time>2021-09-07T17:34:57Z</time>
      </trkpt>
      <trkpt lat="44.36254" lon="5.61738">
        <ele>912.2</ele>
        <time>2021-09-07T17:34:58Z</time>
      </trkpt>
      <trkpt lat="44.36252" lon="5.61737">
        <ele>912</ele>
        <time>2021-09-07T17:34:59Z</time>
      </trkpt>
      <trkpt lat="44.36252" lon="5.61737">
        <ele>912</ele>
        <time>2021-09-07T17:35:00Z</time>
      </trkpt>
      <trkpt lat="44.36251" lon="5.61737">
        <ele>912</ele>
        <time>2021-09-07T17:35:01Z</time>
      </trkpt>
      <trkpt lat="44.3625" lon="5.61736">
        <ele>911.8</ele>
        <time>2021-09-07T17:35:02Z</time>
      </trkpt>
      <trkpt lat="44.36248" lon="5.61735">
        <ele>911.7</ele>
        <time>2021-09-07T17:35:03Z</time>
      </trkpt>
      <trkpt lat="44.36246" lon="5.61734">
        <ele>911.5</ele>
        <time>2021-09-07T17:35:04Z</time>
      </trkpt>
      <trkpt lat="44.36243" lon="5.61732">
        <ele>911.1</ele>
        <time>2021-09-07T17:35:05Z</time>
      </trkpt>
      <trkpt lat="44.36239" lon="5.6173">
        <ele>910.8</ele>
        <time>2021-09-07T17:35:06Z</time>
      </trkpt>
      <trkpt lat="44.36238" lon="5.61728">
        <ele>910.6</ele>
        <time>2021-09-07T17:35:07Z</time>
      </trkpt>
      <trkpt lat="44.36236" lon="5.61726">
        <ele>910.4</ele>
        <time>2021-09-07T17:35:08Z</time>
      </trkpt>
      <trkpt lat="44.36235" lon="5.61722">
        <ele>910</ele>
        <time>2021-09-07T17:35:09Z</time>
      </trkpt>
      <trkpt lat="44.36233" lon="5.61718">
        <ele>909.7</ele>
        <time>2021-09-07T17:35:10Z</time>
      </trkpt>
      <trkpt lat="44.36233" lon="5.61717">
        <ele>909.6</ele>
        <time>2021-09-07T17:35:11Z</time>
      </trkpt>
      <trkpt lat="44.36233" lon="5.61716">
        <ele>909.6</ele>
        <time>2021-09-07T17:35:12Z</time>
      </trkpt>
      <trkpt lat="44.36233" lon="5.61715">
        <ele>909.5</ele>
        <time>2021-09-07T17:35:13Z</time>
      </trkpt>
      <trkpt lat="44.36233" lon="5.61715">
        <ele>909.4</ele>
        <time>2021-09-07T17:35:14Z</time>
      </trkpt>
      <trkpt lat="44.36232" lon="5.61714">
        <ele>909.4</ele>
        <time>2021-09-07T17:35:15Z</time>
      </trkpt>
      <trkpt lat="44.36232" lon="5.61714">
        <ele>909.4</ele>
        <time>2021-09-07T17:35:16Z</time>
      </trkpt>
      <trkpt lat="44.36232" lon="5.61714">
        <ele>909.4</ele>
        <time>2021-09-07T17:35:17Z</time>
      </trkpt>
      <trkpt lat="44.36232" lon="5.61714">
        <ele>909.4</ele>
        <time>2021-09-07T17:35:18Z</time>
      </trkpt>
      <trkpt lat="44.36232" lon="5.61714">
        <ele>909.4</ele>
        <time>2021-09-07T17:35:19Z</time>
      </trkpt>
      <trkpt lat="44.36232" lon="5.61714">
        <ele>909.4</ele>
        <time>2021-09-07T17:35:20Z</time>
      </trkpt>
      <trkpt lat="44.36232" lon="5.61714">
        <ele>909.4</ele>
        <time>2021-09-07T17:35:21Z</time>
      </trkpt>
      <trkpt lat="44.36232" lon="5.61714">
        <ele>909.4</ele>
        <time>2021-09-07T17:35:22Z</time>
      </trkpt>
      <trkpt lat="44.36232" lon="5.61713">
        <ele>909.3</ele>
        <time>2021-09-07T17:35:23Z</time>
      </trkpt>
      <trkpt lat="44.36233" lon="5.61714">
        <ele>909.2</ele>
        <time>2021-09-07T17:35:24Z</time>
      </trkpt>
      <trkpt lat="44.36233" lon="5.61714">
        <ele>909.2</ele>
        <time>2021-09-07T17:35:25Z</time>
      </trkpt>
      <trkpt lat="44.36233" lon="5.61714">
        <ele>909.2</ele>
        <time>2021-09-07T17:35:26Z</time>
      </trkpt>
      <trkpt lat="44.36233" lon="5.61714">
        <ele>909.2</ele>
        <time>2021-09-07T17:35:27Z</time>
      </trkpt>
      <trkpt lat="44.36233" lon="5.61712">
        <ele>909</ele>
        <time>2021-09-07T17:35:28Z</time>
      </trkpt>
      <trkpt lat="44.36232" lon="5.61709">
        <ele>908.8</ele>
        <time>2021-09-07T17:35:29Z</time>
      </trkpt>
      <trkpt lat="44.3623" lon="5.61703">
        <ele>908.2</ele>
        <time>2021-09-07T17:35:30Z</time>
      </trkpt>
      <trkpt lat="44.36231" lon="5.61705">
        <ele>908</ele>
        <time>2021-09-07T17:35:31Z</time>
      </trkpt>
      <trkpt lat="44.36231" lon="5.61707">
        <ele>907.9</ele>
        <time>2021-09-07T17:35:32Z</time>
      </trkpt>
      <trkpt lat="44.3623" lon="5.61706">
        <ele>907.7</ele>
        <time>2021-09-07T17:35:33Z</time>
      </trkpt>
      <trkpt lat="44.3623" lon="5.61705">
        <ele>907.6</ele>
        <time>2021-09-07T17:35:34Z</time>
      </trkpt>
      <trkpt lat="44.36228" lon="5.61703">
        <ele>907.3</ele>
        <time>2021-09-07T17:35:35Z</time>
      </trkpt>
      <trkpt lat="44.36224" lon="5.617">
        <ele>906.6</ele>
        <time>2021-09-07T17:35:36Z</time>
      </trkpt>
      <trkpt lat="44.36222" lon="5.61697">
        <ele>906.1</ele>
        <time>2021-09-07T17:35:37Z</time>
      </trkpt>
      <trkpt lat="44.36219" lon="5.61694">
        <ele>905.6</ele>
        <time>2021-09-07T17:35:38Z</time>
      </trkpt>
      <trkpt lat="44.36215" lon="5.61689">
        <ele>904.8</ele>
        <time>2021-09-07T17:35:39Z</time>
      </trkpt>
      <trkpt lat="44.36212" lon="5.61684">
        <ele>904</ele>
        <time>2021-09-07T17:35:40Z</time>
      </trkpt>
      <trkpt lat="44.36208" lon="5.6168">
        <ele>903.3</ele>
        <time>2021-09-07T17:35:41Z</time>
      </trkpt>
      <trkpt lat="44.36206" lon="5.61678">
        <ele>902.9</ele>
        <time>2021-09-07T17:35:42Z</time>
      </trkpt>
      <trkpt lat="44.36204" lon="5.61675">
        <ele>902.5</ele>
        <time>2021-09-07T17:35:43Z</time>
      </trkpt>
      <trkpt lat="44.362" lon="5.61669">
        <ele>901.7</ele>
        <time>2021-09-07T17:35:44Z</time>
      </trkpt>
      <trkpt lat="44.36198" lon="5.61665">
        <ele>901.2</ele>
        <time>2021-09-07T17:35:45Z</time>
      </trkpt>
      <trkpt lat="44.36196" lon="5.6166">
        <ele>900.6</ele>
        <time>2021-09-07T17:35:46Z</time>
      </trkpt>
      <trkpt lat="44.36194" lon="5.61657">
        <ele>900.2</ele>
        <time>2021-09-07T17:35:47Z</time>
      </trkpt>
      <trkpt lat="44.36192" lon="5.61653">
        <ele>899.7</ele>
        <time>2021-09-07T17:35:48Z</time>
      </trkpt>
      <trkpt lat="44.36187" lon="5.61643">
        <ele>898.5</ele>
        <time>2021-09-07T17:35:49Z</time>
      </trkpt>
      <trkpt lat="44.36184" lon="5.61637">
        <ele>897.8</ele>
        <time>2021-09-07T17:35:50Z</time>
      </trkpt>
      <trkpt lat="44.36182" lon="5.6163">
        <ele>897.1</ele>
        <time>2021-09-07T17:35:51Z</time>
      </trkpt>
      <trkpt lat="44.36181" lon="5.61623">
        <ele>896.4</ele>
        <time>2021-09-07T17:35:52Z</time>
      </trkpt>
      <trkpt lat="44.36179" lon="5.61615">
        <ele>895.7</ele>
        <time>2021-09-07T17:35:53Z</time>
      </trkpt>
      <trkpt lat="44.36178" lon="5.61608">
        <ele>895</ele>
        <time>2021-09-07T17:35:54Z</time>
      </trkpt>
      <trkpt lat="44.36177" lon="5.61601">
        <ele>894.3</ele>
        <time>2021-09-07T17:35:55Z</time>
      </trkpt>
      <trkpt lat="44.36176" lon="5.61594">
        <ele>893.6</ele>
        <time>2021-09-07T17:35:56Z</time>
      </trkpt>
      <trkpt lat="44.36175" lon="5.61588">
        <ele>893</ele>
        <time>2021-09-07T17:35:57Z</time>
      </trkpt>
      <trkpt lat="44.36173" lon="5.61582">
        <ele>892.3</ele>
        <time>2021-09-07T17:35:58Z</time>
      </trkpt>
      <trkpt lat="44.36172" lon="5.61576">
        <ele>891.7</ele>
        <time>2021-09-07T17:35:59Z</time>
      </trkpt>
      <trkpt lat="44.36171" lon="5.61569">
        <ele>891.1</ele>
        <time>2021-09-07T17:36:00Z</time>
      </trkpt>
      <trkpt lat="44.36171" lon="5.61561">
        <ele>890.4</ele>
        <time>2021-09-07T17:36:01Z</time>
      </trkpt>
      <trkpt lat="44.3617" lon="5.61552">
        <ele>889.8</ele>
        <time>2021-09-07T17:36:02Z</time>
      </trkpt>
      <trkpt lat="44.36169" lon="5.61543">
        <ele>889.2</ele>
        <time>2021-09-07T17:36:03Z</time>
      </trkpt>
      <trkpt lat="44.36167" lon="5.61534">
        <ele>888.7</ele>
        <time>2021-09-07T17:36:04Z</time>
      </trkpt>
      <trkpt lat="44.36165" lon="5.61526">
        <ele>888.2</ele>
        <time>2021-09-07T17:36:05Z</time>
      </trkpt>
      <trkpt lat="44.36162" lon="5.61518">
        <ele>887.8</ele>
        <time>2021-09-07T17:36:06Z</time>
      </trkpt>
      <trkpt lat="44.3616" lon="5.61511">
        <ele>887.4</ele>
        <time>2021-09-07T17:36:07Z</time>
      </trkpt>
      <trkpt lat="44.36158" lon="5.61503">
        <ele>887.1</ele>
        <time>2021-09-07T17:36:08Z</time>
      </trkpt>
      <trkpt lat="44.36158" lon="5.61496">
        <ele>886.8</ele>
        <time>2021-09-07T17:36:09Z</time>
      </trkpt>
      <trkpt lat="44.36157" lon="5.61489">
        <ele>886.4</ele>
        <time>2021-09-07T17:36:10Z</time>
      </trkpt>
      <trkpt lat="44.36157" lon="5.61482">
        <ele>886</ele>
        <time>2021-09-07T17:36:11Z</time>
      </trkpt>
      <trkpt lat="44.36158" lon="5.61478">
        <ele>885.7</ele>
        <time>2021-09-07T17:36:12Z</time>
      </trkpt>
      <trkpt lat="44.36158" lon="5.61473">
        <ele>885.4</ele>
        <time>2021-09-07T17:36:13Z</time>
      </trkpt>
      <trkpt lat="44.36159" lon="5.61469">
        <ele>885</ele>
        <time>2021-09-07T17:36:14Z</time>
      </trkpt>
      <trkpt lat="44.3616" lon="5.61465">
        <ele>884.9</ele>
        <time>2021-09-07T17:36:15Z</time>
      </trkpt>
      <trkpt lat="44.36161" lon="5.61462">
        <ele>884.8</ele>
        <time>2021-09-07T17:36:16Z</time>
      </trkpt>
      <trkpt lat="44.36161" lon="5.61459">
        <ele>884.8</ele>
        <time>2021-09-07T17:36:17Z</time>
      </trkpt>
      <trkpt lat="44.36163" lon="5.6146">
        <ele>884.8</ele>
        <time>2021-09-07T17:36:18Z</time>
      </trkpt>
      <trkpt lat="44.36163" lon="5.61457">
        <ele>884.7</ele>
        <time>2021-09-07T17:36:19Z</time>
      </trkpt>
      <trkpt lat="44.36162" lon="5.61454">
        <ele>884.7</ele>
        <time>2021-09-07T17:36:20Z</time>
      </trkpt>
      <trkpt lat="44.3616" lon="5.6145">
        <ele>884.7</ele>
        <time>2021-09-07T17:36:21Z</time>
      </trkpt>
      <trkpt lat="44.36159" lon="5.61448">
        <ele>884.7</ele>
        <time>2021-09-07T17:36:22Z</time>
      </trkpt>
      <trkpt lat="44.36157" lon="5.61445">
        <ele>884.7</ele>
        <time>2021-09-07T17:36:23Z</time>
      </trkpt>
      <trkpt lat="44.36156" lon="5.61442">
        <ele>884.7</ele>
        <time>2021-09-07T17:36:24Z</time>
      </trkpt>
      <trkpt lat="44.36154" lon="5.61439">
        <ele>884.7</ele>
        <time>2021-09-07T17:36:25Z</time>
      </trkpt>
      <trkpt lat="44.36153" lon="5.61435">
        <ele>884.7</ele>
        <time>2021-09-07T17:36:26Z</time>
      </trkpt>
      <trkpt lat="44.36151" lon="5.61432">
        <ele>884.8</ele>
        <time>2021-09-07T17:36:27Z</time>
      </trkpt>
      <trkpt lat="44.3615" lon="5.6143">
        <ele>884.8</ele>
        <time>2021-09-07T17:36:28Z</time>
      </trkpt>
      <trkpt lat="44.36149" lon="5.61427">
        <ele>884.8</ele>
        <time>2021-09-07T17:36:29Z</time>
      </trkpt>
      <trkpt lat="44.36147" lon="5.61424">
        <ele>884.9</ele>
        <time>2021-09-07T17:36:30Z</time>
      </trkpt>
      <trkpt lat="44.36146" lon="5.61423">
        <ele>884.9</ele>
        <time>2021-09-07T17:36:31Z</time>
      </trkpt>
      <trkpt lat="44.36145" lon="5.61422">
        <ele>884.9</ele>
        <time>2021-09-07T17:36:32Z</time>
      </trkpt>
      <trkpt lat="44.36142" lon="5.61419">
        <ele>884.9</ele>
        <time>2021-09-07T17:36:33Z</time>
      </trkpt>
      <trkpt lat="44.36141" lon="5.61418">
        <ele>884.9</ele>
        <time>2021-09-07T17:36:34Z</time>
      </trkpt>
      <trkpt lat="44.36139" lon="5.61417">
        <ele>884.9</ele>
        <time>2021-09-07T17:36:35Z</time>
      </trkpt>
      <trkpt lat="44.36138" lon="5.61416">
        <ele>884.9</ele>
        <time>2021-09-07T17:36:36Z</time>
      </trkpt>
      <trkpt lat="44.36136" lon="5.61415">
        <ele>885</ele>
        <time>2021-09-07T17:36:37Z</time>
      </trkpt>
      <trkpt lat="44.36133" lon="5.61412">
        <ele>885</ele>
        <time>2021-09-07T17:36:38Z</time>
      </trkpt>
      <trkpt lat="44.36133" lon="5.61411">
        <ele>885</ele>
        <time>2021-09-07T17:36:39Z</time>
      </trkpt>
      <trkpt lat="44.36132" lon="5.6141">
        <ele>885</ele>
        <time>2021-09-07T17:36:40Z</time>
      </trkpt>
      <trkpt lat="44.36131" lon="5.61407">
        <ele>885.1</ele>
        <time>2021-09-07T17:36:41Z</time>
      </trkpt>
      <trkpt lat="44.36131" lon="5.61406">
        <ele>885.1</ele>
        <time>2021-09-07T17:36:42Z</time>
      </trkpt>
      <trkpt lat="44.36131" lon="5.61405">
        <ele>885.1</ele>
        <time>2021-09-07T17:36:43Z</time>
      </trkpt>
      <trkpt lat="44.36132" lon="5.61402">
        <ele>885.2</ele>
        <time>2021-09-07T17:36:44Z</time>
      </trkpt>
      <trkpt lat="44.36132" lon="5.614">
        <ele>885.2</ele>
        <time>2021-09-07T17:36:45Z</time>
      </trkpt>
      <trkpt lat="44.36132" lon="5.61398">
        <ele>885.2</ele>
        <time>2021-09-07T17:36:46Z</time>
      </trkpt>
      <trkpt lat="44.36132" lon="5.61395">
        <ele>885.3</ele>
        <time>2021-09-07T17:36:47Z</time>
      </trkpt>
      <trkpt lat="44.36132" lon="5.61391">
        <ele>885.3</ele>
        <time>2021-09-07T17:36:48Z</time>
      </trkpt>
      <trkpt lat="44.36132" lon="5.6139">
        <ele>885.3</ele>
        <time>2021-09-07T17:36:49Z</time>
      </trkpt>
      <trkpt lat="44.36131" lon="5.61388">
        <ele>885.4</ele>
        <time>2021-09-07T17:36:50Z</time>
      </trkpt>
      <trkpt lat="44.36131" lon="5.61387">
        <ele>885.4</ele>
        <time>2021-09-07T17:36:51Z</time>
      </trkpt>
      <trkpt lat="44.3613" lon="5.61385">
        <ele>885.4</ele>
        <time>2021-09-07T17:36:52Z</time>
      </trkpt>
      <trkpt lat="44.36131" lon="5.61385">
        <ele>885.5</ele>
        <time>2021-09-07T17:36:53Z</time>
      </trkpt>
      <trkpt lat="44.36131" lon="5.61385">
        <ele>885.5</ele>
        <time>2021-09-07T17:36:54Z</time>
      </trkpt>
      <trkpt lat="44.36131" lon="5.61384">
        <ele>885.5</ele>
        <time>2021-09-07T17:36:55Z</time>
      </trkpt>
      <trkpt lat="44.36131" lon="5.61384">
        <ele>885.5</ele>
        <time>2021-09-07T17:36:56Z</time>
      </trkpt>
      <trkpt lat="44.3613" lon="5.61384">
        <ele>885.5</ele>
        <time>2021-09-07T17:36:57Z</time>
      </trkpt>
      <trkpt lat="44.3613" lon="5.61384">
        <ele>885.5</ele>
        <time>2021-09-07T17:36:58Z</time>
      </trkpt>
      <trkpt lat="44.3613" lon="5.61384">
        <ele>885.5</ele>
        <time>2021-09-07T17:36:59Z</time>
      </trkpt>
      <trkpt lat="44.3613" lon="5.61384">
        <ele>885.5</ele>
        <time>2021-09-07T17:37:00Z</time>
      </trkpt>
      <trkpt lat="44.3613" lon="5.61384">
        <ele>885.5</ele>
        <time>2021-09-07T17:37:01Z</time>
      </trkpt>
      <trkpt lat="44.3613" lon="5.61385">
        <ele>885.5</ele>
        <time>2021-09-07T17:37:02Z</time>
      </trkpt>
      <trkpt lat="44.3613" lon="5.61385">
        <ele>885.6</ele>
        <time>2021-09-07T17:37:03Z</time>
      </trkpt>
      <trkpt lat="44.3613" lon="5.61385">
        <ele>885.6</ele>
        <time>2021-09-07T17:37:04Z</time>
      </trkpt>
      <trkpt lat="44.3613" lon="5.61385">
        <ele>885.6</ele>
        <time>2021-09-07T17:37:05Z</time>
      </trkpt>
      <trkpt lat="44.3613" lon="5.61385">
        <ele>885.6</ele>
        <time>2021-09-07T17:37:06Z</time>
      </trkpt>
      <trkpt lat="44.3613" lon="5.61385">
        <ele>885.6</ele>
        <time>2021-09-07T17:37:07Z</time>
      </trkpt>
      <trkpt lat="44.3613" lon="5.61385">
        <ele>885.6</ele>
        <time>2021-09-07T17:37:08Z</time>
      </trkpt>
      <trkpt lat="44.3613" lon="5.61385">
        <ele>885.6</ele>
        <time>2021-09-07T17:37:09Z</time>
      </trkpt>
      <trkpt lat="44.3613" lon="5.61386">
        <ele>885.6</ele>
        <time>2021-09-07T17:37:10Z</time>
      </trkpt>
      <trkpt lat="44.3613" lon="5.61386">
        <ele>885.6</ele>
        <time>2021-09-07T17:37:11Z</time>
      </trkpt>
      <trkpt lat="44.3613" lon="5.61386">
        <ele>885.6</ele>
        <time>2021-09-07T17:37:12Z</time>
      </trkpt>
      <trkpt lat="44.3613" lon="5.61386">
        <ele>885.6</ele>
        <time>2021-09-07T17:37:13Z</time>
      </trkpt>
      <trkpt lat="44.3613" lon="5.61386">
        <ele>885.6</ele>
        <time>2021-09-07T17:37:14Z</time>
      </trkpt>
      <trkpt lat="44.3613" lon="5.61386">
        <ele>885.6</ele>
        <time>2021-09-07T17:37:15Z</time>
      </trkpt>
      <trkpt lat="44.3613" lon="5.61386">
        <ele>885.6</ele>
        <time>2021-09-07T17:37:16Z</time>
      </trkpt>
      <trkpt lat="44.3613" lon="5.61386">
        <ele>885.6</ele>
        <time>2021-09-07T17:37:17Z</time>
      </trkpt>
      <trkpt lat="44.3613" lon="5.61386">
        <ele>885.6</ele>
        <time>2021-09-07T17:37:18Z</time>
      </trkpt>
      <trkpt lat="44.36129" lon="5.61386">
        <ele>885.6</ele>
        <time>2021-09-07T17:37:19Z</time>
      </trkpt>
      <trkpt lat="44.36129" lon="5.61385">
        <ele>885.7</ele>
        <time>2021-09-07T17:37:20Z</time>
      </trkpt>
      <trkpt lat="44.36128" lon="5.61384">
        <ele>885.7</ele>
        <time>2021-09-07T17:37:21Z</time>
      </trkpt>
      <trkpt lat="44.36128" lon="5.61383">
        <ele>885.8</ele>
        <time>2021-09-07T17:37:22Z</time>
      </trkpt>
      <trkpt lat="44.36127" lon="5.61382">
        <ele>885.8</ele>
        <time>2021-09-07T17:37:23Z</time>
      </trkpt>
      <trkpt lat="44.36126" lon="5.61381">
        <ele>885.9</ele>
        <time>2021-09-07T17:37:24Z</time>
      </trkpt>
      <trkpt lat="44.36125" lon="5.6138">
        <ele>886</ele>
        <time>2021-09-07T17:37:25Z</time>
      </trkpt>
      <trkpt lat="44.36125" lon="5.61377">
        <ele>886.2</ele>
        <time>2021-09-07T17:37:26Z</time>
      </trkpt>
      <trkpt lat="44.36124" lon="5.61373">
        <ele>886.4</ele>
        <time>2021-09-07T17:37:27Z</time>
      </trkpt>
      <trkpt lat="44.36124" lon="5.61369">
        <ele>886.6</ele>
        <time>2021-09-07T17:37:28Z</time>
      </trkpt>
      <trkpt lat="44.36124" lon="5.61367">
        <ele>886.7</ele>
        <time>2021-09-07T17:37:29Z</time>
      </trkpt>
      <trkpt lat="44.36123" lon="5.61365">
        <ele>886.7</ele>
        <time>2021-09-07T17:37:30Z</time>
      </trkpt>
      <trkpt lat="44.36123" lon="5.61362">
        <ele>886.8</ele>
        <time>2021-09-07T17:37:31Z</time>
      </trkpt>
      <trkpt lat="44.36123" lon="5.61359">
        <ele>886.9</ele>
        <time>2021-09-07T17:37:32Z</time>
      </trkpt>
      <trkpt lat="44.36124" lon="5.61355">
        <ele>887</ele>
        <time>2021-09-07T17:37:33Z</time>
      </trkpt>
      <trkpt lat="44.36125" lon="5.61354">
        <ele>887</ele>
        <time>2021-09-07T17:37:34Z</time>
      </trkpt>
      <trkpt lat="44.36125" lon="5.61352">
        <ele>887</ele>
        <time>2021-09-07T17:37:35Z</time>
      </trkpt>
      <trkpt lat="44.36126" lon="5.61349">
        <ele>887</ele>
        <time>2021-09-07T17:37:36Z</time>
      </trkpt>
      <trkpt lat="44.36126" lon="5.61347">
        <ele>887</ele>
        <time>2021-09-07T17:37:37Z</time>
      </trkpt>
      <trkpt lat="44.36126" lon="5.61345">
        <ele>886.9</ele>
        <time>2021-09-07T17:37:38Z</time>
      </trkpt>
      <trkpt lat="44.36126" lon="5.61343">
        <ele>886.9</ele>
        <time>2021-09-07T17:37:39Z</time>
      </trkpt>
      <trkpt lat="44.36126" lon="5.61342">
        <ele>886.9</ele>
        <time>2021-09-07T17:37:40Z</time>
      </trkpt>
      <trkpt lat="44.36126" lon="5.61342">
        <ele>886.9</ele>
        <time>2021-09-07T17:37:41Z</time>
      </trkpt>
      <trkpt lat="44.36126" lon="5.61342">
        <ele>886.9</ele>
        <time>2021-09-07T17:37:42Z</time>
      </trkpt>
      <trkpt lat="44.36126" lon="5.61342">
        <ele>886.9</ele>
        <time>2021-09-07T17:37:43Z</time>
      </trkpt>
      <trkpt lat="44.36126" lon="5.61342">
        <ele>886.9</ele>
        <time>2021-09-07T17:37:44Z</time>
      </trkpt>
      <trkpt lat="44.36126" lon="5.61341">
        <ele>886.8</ele>
        <time>2021-09-07T17:37:45Z</time>
      </trkpt>
      <trkpt lat="44.36126" lon="5.61341">
        <ele>886.8</ele>
        <time>2021-09-07T17:37:46Z</time>
      </trkpt>
      <trkpt lat="44.36126" lon="5.61341">
        <ele>886.8</ele>
        <time>2021-09-07T17:37:47Z</time>
      </trkpt>
      <trkpt lat="44.36126" lon="5.6134">
        <ele>886.8</ele>
        <time>2021-09-07T17:37:48Z</time>
      </trkpt>
      <trkpt lat="44.36125" lon="5.61339">
        <ele>886.8</ele>
        <time>2021-09-07T17:37:49Z</time>
      </trkpt>
      <trkpt lat="44.36125" lon="5.61336">
        <ele>886.7</ele>
        <time>2021-09-07T17:37:50Z</time>
      </trkpt>
      <trkpt lat="44.36125" lon="5.61335">
        <ele>886.7</ele>
        <time>2021-09-07T17:37:51Z</time>
      </trkpt>
      <trkpt lat="44.36124" lon="5.61334">
        <ele>886.6</ele>
        <time>2021-09-07T17:37:52Z</time>
      </trkpt>
      <trkpt lat="44.36124" lon="5.61333">
        <ele>886.6</ele>
        <time>2021-09-07T17:37:53Z</time>
      </trkpt>
      <trkpt lat="44.36123" lon="5.61331">
        <ele>886.6</ele>
        <time>2021-09-07T17:37:54Z</time>
      </trkpt>
      <trkpt lat="44.36122" lon="5.61327">
        <ele>886.4</ele>
        <time>2021-09-07T17:37:55Z</time>
      </trkpt>
      <trkpt lat="44.3612" lon="5.61322">
        <ele>886.2</ele>
        <time>2021-09-07T17:37:56Z</time>
      </trkpt>
      <trkpt lat="44.3612" lon="5.61319">
        <ele>886.2</ele>
        <time>2021-09-07T17:37:57Z</time>
      </trkpt>
      <trkpt lat="44.36119" lon="5.61316">
        <ele>886</ele>
        <time>2021-09-07T17:37:58Z</time>
      </trkpt>
      <trkpt lat="44.36118" lon="5.61311">
        <ele>885.9</ele>
        <time>2021-09-07T17:37:59Z</time>
      </trkpt>
      <trkpt lat="44.36116" lon="5.61308">
        <ele>885.7</ele>
        <time>2021-09-07T17:38:00Z</time>
      </trkpt>
      <trkpt lat="44.36115" lon="5.61303">
        <ele>885.5</ele>
        <time>2021-09-07T17:38:01Z</time>
      </trkpt>
      <trkpt lat="44.36115" lon="5.61301">
        <ele>885.4</ele>
        <time>2021-09-07T17:38:02Z</time>
      </trkpt>
      <trkpt lat="44.36114" lon="5.61299">
        <ele>885.4</ele>
        <time>2021-09-07T17:38:03Z</time>
      </trkpt>
      <trkpt lat="44.36114" lon="5.61298">
        <ele>885.3</ele>
        <time>2021-09-07T17:38:04Z</time>
      </trkpt>
      <trkpt lat="44.36114" lon="5.61297">
        <ele>885.3</ele>
        <time>2021-09-07T17:38:05Z</time>
      </trkpt>
      <trkpt lat="44.36114" lon="5.61297">
        <ele>885.3</ele>
        <time>2021-09-07T17:38:06Z</time>
      </trkpt>
      <trkpt lat="44.36114" lon="5.61297">
        <ele>885.3</ele>
        <time>2021-09-07T17:38:07Z</time>
      </trkpt>
      <trkpt lat="44.36114" lon="5.61297">
        <ele>885.3</ele>
        <time>2021-09-07T17:38:08Z</time>
      </trkpt>
      <trkpt lat="44.36114" lon="5.61297">
        <ele>885.3</ele>
        <time>2021-09-07T17:38:09Z</time>
      </trkpt>
      <trkpt lat="44.36114" lon="5.61297">
        <ele>885.3</ele>
        <time>2021-09-07T17:38:10Z</time>
      </trkpt>
      <trkpt lat="44.36114" lon="5.61296">
        <ele>885.2</ele>
        <time>2021-09-07T17:38:11Z</time>
      </trkpt>
      <trkpt lat="44.36113" lon="5.61295">
        <ele>885.2</ele>
        <time>2021-09-07T17:38:12Z</time>
      </trkpt>
      <trkpt lat="44.36113" lon="5.61294">
        <ele>885.1</ele>
        <time>2021-09-07T17:38:13Z</time>
      </trkpt>
      <trkpt lat="44.36112" lon="5.61291">
        <ele>885</ele>
        <time>2021-09-07T17:38:14Z</time>
      </trkpt>
      <trkpt lat="44.36111" lon="5.61288">
        <ele>884.8</ele>
        <time>2021-09-07T17:38:15Z</time>
      </trkpt>
      <trkpt lat="44.3611" lon="5.61284">
        <ele>884.6</ele>
        <time>2021-09-07T17:38:16Z</time>
      </trkpt>
      <trkpt lat="44.36106" lon="5.61269">
        <ele>883.7</ele>
        <time>2021-09-07T17:38:17Z</time>
      </trkpt>
      <trkpt lat="44.36102" lon="5.6126">
        <ele>883.1</ele>
        <time>2021-09-07T17:38:18Z</time>
      </trkpt>
      <trkpt lat="44.36097" lon="5.6125">
        <ele>882.3</ele>
        <time>2021-09-07T17:38:19Z</time>
      </trkpt>
      <trkpt lat="44.36093" lon="5.61241">
        <ele>881.3</ele>
        <time>2021-09-07T17:38:20Z</time>
      </trkpt>
      <trkpt lat="44.36088" lon="5.61231">
        <ele>880</ele>
        <time>2021-09-07T17:38:21Z</time>
      </trkpt>
      <trkpt lat="44.36084" lon="5.61222">
        <ele>878.1</ele>
        <time>2021-09-07T17:38:22Z</time>
      </trkpt>
      <trkpt lat="44.3608" lon="5.61212">
        <ele>875.8</ele>
        <time>2021-09-07T17:38:23Z</time>
      </trkpt>
      <trkpt lat="44.36078" lon="5.61201">
        <ele>873.9</ele>
        <time>2021-09-07T17:38:24Z</time>
      </trkpt>
      <trkpt lat="44.36077" lon="5.61191">
        <ele>872.6</ele>
        <time>2021-09-07T17:38:25Z</time>
      </trkpt>
      <trkpt lat="44.36076" lon="5.6118">
        <ele>871.6</ele>
        <time>2021-09-07T17:38:26Z</time>
      </trkpt>
      <trkpt lat="44.36078" lon="5.61171">
        <ele>871</ele>
        <time>2021-09-07T17:38:27Z</time>
      </trkpt>
      <trkpt lat="44.3608" lon="5.61162">
        <ele>870.6</ele>
        <time>2021-09-07T17:38:28Z</time>
      </trkpt>
      <trkpt lat="44.36082" lon="5.61154">
        <ele>870.3</ele>
        <time>2021-09-07T17:38:29Z</time>
      </trkpt>
      <trkpt lat="44.36086" lon="5.61147">
        <ele>869.9</ele>
        <time>2021-09-07T17:38:30Z</time>
      </trkpt>
      <trkpt lat="44.36089" lon="5.6114">
        <ele>869.5</ele>
        <time>2021-09-07T17:38:31Z</time>
      </trkpt>
      <trkpt lat="44.36093" lon="5.61134">
        <ele>869.1</ele>
        <time>2021-09-07T17:38:32Z</time>
      </trkpt>
      <trkpt lat="44.36098" lon="5.61128">
        <ele>868.7</ele>
        <time>2021-09-07T17:38:33Z</time>
      </trkpt>
      <trkpt lat="44.36103" lon="5.61122">
        <ele>868.4</ele>
        <time>2021-09-07T17:38:34Z</time>
      </trkpt>
      <trkpt lat="44.36107" lon="5.61116">
        <ele>868.2</ele>
        <time>2021-09-07T17:38:35Z</time>
      </trkpt>
      <trkpt lat="44.36111" lon="5.61111">
        <ele>868</ele>
        <time>2021-09-07T17:38:36Z</time>
      </trkpt>
      <trkpt lat="44.36115" lon="5.61105">
        <ele>867.9</ele>
        <time>2021-09-07T17:38:37Z</time>
      </trkpt>
      <trkpt lat="44.36118" lon="5.611">
        <ele>867.7</ele>
        <time>2021-09-07T17:38:38Z</time>
      </trkpt>
      <trkpt lat="44.36121" lon="5.61095">
        <ele>867.6</ele>
        <time>2021-09-07T17:38:39Z</time>
      </trkpt>
      <trkpt lat="44.36124" lon="5.6109">
        <ele>867.4</ele>
        <time>2021-09-07T17:38:40Z</time>
      </trkpt>
      <trkpt lat="44.36126" lon="5.61086">
        <ele>867.2</ele>
        <time>2021-09-07T17:38:41Z</time>
      </trkpt>
      <trkpt lat="44.36128" lon="5.61082">
        <ele>867</ele>
        <time>2021-09-07T17:38:42Z</time>
      </trkpt>
      <trkpt lat="44.3613" lon="5.61079">
        <ele>866.8</ele>
        <time>2021-09-07T17:38:43Z</time>
      </trkpt>
      <trkpt lat="44.36132" lon="5.61075">
        <ele>866.6</ele>
        <time>2021-09-07T17:38:44Z</time>
      </trkpt>
      <trkpt lat="44.36134" lon="5.6107">
        <ele>866.3</ele>
        <time>2021-09-07T17:38:45Z</time>
      </trkpt>
      <trkpt lat="44.36134" lon="5.61066">
        <ele>866.1</ele>
        <time>2021-09-07T17:38:46Z</time>
      </trkpt>
      <trkpt lat="44.36134" lon="5.6106">
        <ele>865.9</ele>
        <time>2021-09-07T17:38:47Z</time>
      </trkpt>
      <trkpt lat="44.36134" lon="5.61054">
        <ele>865.6</ele>
        <time>2021-09-07T17:38:48Z</time>
      </trkpt>
      <trkpt lat="44.36135" lon="5.61053">
        <ele>865.5</ele>
        <time>2021-09-07T17:38:49Z</time>
      </trkpt>
      <trkpt lat="44.36135" lon="5.61049">
        <ele>865.4</ele>
        <time>2021-09-07T17:38:50Z</time>
      </trkpt>
      <trkpt lat="44.36135" lon="5.61045">
        <ele>865.2</ele>
        <time>2021-09-07T17:38:51Z</time>
      </trkpt>
      <trkpt lat="44.36135" lon="5.6104">
        <ele>865</ele>
        <time>2021-09-07T17:38:52Z</time>
      </trkpt>
      <trkpt lat="44.36136" lon="5.61033">
        <ele>864.6</ele>
        <time>2021-09-07T17:38:53Z</time>
      </trkpt>
      <trkpt lat="44.36137" lon="5.61025">
        <ele>864.2</ele>
        <time>2021-09-07T17:38:54Z</time>
      </trkpt>
      <trkpt lat="44.36138" lon="5.61016">
        <ele>863.8</ele>
        <time>2021-09-07T17:38:55Z</time>
      </trkpt>
      <trkpt lat="44.36138" lon="5.61008">
        <ele>863.4</ele>
        <time>2021-09-07T17:38:56Z</time>
      </trkpt>
      <trkpt lat="44.36137" lon="5.61001">
        <ele>863</ele>
        <time>2021-09-07T17:38:57Z</time>
      </trkpt>
      <trkpt lat="44.36135" lon="5.60994">
        <ele>862.6</ele>
        <time>2021-09-07T17:38:58Z</time>
      </trkpt>
      <trkpt lat="44.36133" lon="5.60987">
        <ele>862.2</ele>
        <time>2021-09-07T17:38:59Z</time>
      </trkpt>
      <trkpt lat="44.36132" lon="5.60979">
        <ele>861.7</ele>
        <time>2021-09-07T17:39:00Z</time>
      </trkpt>
      <trkpt lat="44.36131" lon="5.60972">
        <ele>861.3</ele>
        <time>2021-09-07T17:39:01Z</time>
      </trkpt>
      <trkpt lat="44.3613" lon="5.60966">
        <ele>861</ele>
        <time>2021-09-07T17:39:02Z</time>
      </trkpt>
      <trkpt lat="44.36128" lon="5.60959">
        <ele>860.6</ele>
        <time>2021-09-07T17:39:03Z</time>
      </trkpt>
      <trkpt lat="44.36129" lon="5.60955">
        <ele>860.3</ele>
        <time>2021-09-07T17:39:04Z</time>
      </trkpt>
      <trkpt lat="44.36129" lon="5.60951">
        <ele>860.1</ele>
        <time>2021-09-07T17:39:05Z</time>
      </trkpt>
      <trkpt lat="44.36131" lon="5.60946">
        <ele>859.8</ele>
        <time>2021-09-07T17:39:06Z</time>
      </trkpt>
      <trkpt lat="44.36135" lon="5.60939">
        <ele>859.4</ele>
        <time>2021-09-07T17:39:07Z</time>
      </trkpt>
      <trkpt lat="44.36138" lon="5.60936">
        <ele>859.1</ele>
        <time>2021-09-07T17:39:08Z</time>
      </trkpt>
      <trkpt lat="44.3614" lon="5.60932">
        <ele>858.9</ele>
        <time>2021-09-07T17:39:09Z</time>
      </trkpt>
      <trkpt lat="44.36144" lon="5.60927">
        <ele>858.6</ele>
        <time>2021-09-07T17:39:10Z</time>
      </trkpt>
      <trkpt lat="44.36149" lon="5.60921">
        <ele>858.3</ele>
        <time>2021-09-07T17:39:11Z</time>
      </trkpt>
      <trkpt lat="44.36153" lon="5.60916">
        <ele>858</ele>
        <time>2021-09-07T17:39:12Z</time>
      </trkpt>
      <trkpt lat="44.36156" lon="5.60912">
        <ele>857.8</ele>
        <time>2021-09-07T17:39:13Z</time>
      </trkpt>
      <trkpt lat="44.36158" lon="5.6091">
        <ele>857.6</ele>
        <time>2021-09-07T17:39:14Z</time>
      </trkpt>
      <trkpt lat="44.3616" lon="5.60907">
        <ele>857.5</ele>
        <time>2021-09-07T17:39:15Z</time>
      </trkpt>
      <trkpt lat="44.36163" lon="5.60903">
        <ele>857.3</ele>
        <time>2021-09-07T17:39:16Z</time>
      </trkpt>
      <trkpt lat="44.36166" lon="5.609">
        <ele>857.1</ele>
        <time>2021-09-07T17:39:17Z</time>
      </trkpt>
      <trkpt lat="44.36168" lon="5.60896">
        <ele>856.9</ele>
        <time>2021-09-07T17:39:18Z</time>
      </trkpt>
      <trkpt lat="44.36173" lon="5.6089">
        <ele>856.6</ele>
        <time>2021-09-07T17:39:19Z</time>
      </trkpt>
      <trkpt lat="44.36177" lon="5.60884">
        <ele>856.4</ele>
        <time>2021-09-07T17:39:20Z</time>
      </trkpt>
      <trkpt lat="44.36181" lon="5.60879">
        <ele>856.2</ele>
        <time>2021-09-07T17:39:21Z</time>
      </trkpt>
      <trkpt lat="44.36184" lon="5.60874">
        <ele>855.9</ele>
        <time>2021-09-07T17:39:22Z</time>
      </trkpt>
      <trkpt lat="44.36186" lon="5.60868">
        <ele>855.6</ele>
        <time>2021-09-07T17:39:23Z</time>
      </trkpt>
      <trkpt lat="44.3619" lon="5.60863">
        <ele>855.1</ele>
        <time>2021-09-07T17:39:24Z</time>
      </trkpt>
      <trkpt lat="44.36191" lon="5.6086">
        <ele>854.8</ele>
        <time>2021-09-07T17:39:25Z</time>
      </trkpt>
      <trkpt lat="44.36192" lon="5.60856">
        <ele>854.5</ele>
        <time>2021-09-07T17:39:26Z</time>
      </trkpt>
      <trkpt lat="44.36194" lon="5.60851">
        <ele>854</ele>
        <time>2021-09-07T17:39:27Z</time>
      </trkpt>
      <trkpt lat="44.36194" lon="5.60844">
        <ele>853.4</ele>
        <time>2021-09-07T17:39:28Z</time>
      </trkpt>
      <trkpt lat="44.36193" lon="5.60841">
        <ele>853</ele>
        <time>2021-09-07T17:39:29Z</time>
      </trkpt>
      <trkpt lat="44.36192" lon="5.60837">
        <ele>852.7</ele>
        <time>2021-09-07T17:39:30Z</time>
      </trkpt>
      <trkpt lat="44.36191" lon="5.60832">
        <ele>852.2</ele>
        <time>2021-09-07T17:39:31Z</time>
      </trkpt>
      <trkpt lat="44.36189" lon="5.60828">
        <ele>851.8</ele>
        <time>2021-09-07T17:39:32Z</time>
      </trkpt>
      <trkpt lat="44.36185" lon="5.60822">
        <ele>851</ele>
        <time>2021-09-07T17:39:33Z</time>
      </trkpt>
      <trkpt lat="44.36183" lon="5.60819">
        <ele>850.6</ele>
        <time>2021-09-07T17:39:34Z</time>
      </trkpt>
      <trkpt lat="44.36181" lon="5.60816">
        <ele>850.2</ele>
        <time>2021-09-07T17:39:35Z</time>
      </trkpt>
      <trkpt lat="44.36176" lon="5.60811">
        <ele>849.4</ele>
        <time>2021-09-07T17:39:36Z</time>
      </trkpt>
      <trkpt lat="44.36172" lon="5.60807">
        <ele>848.7</ele>
        <time>2021-09-07T17:39:37Z</time>
      </trkpt>
      <trkpt lat="44.36167" lon="5.60803">
        <ele>848.1</ele>
        <time>2021-09-07T17:39:38Z</time>
      </trkpt>
      <trkpt lat="44.36163" lon="5.60798">
        <ele>847.3</ele>
        <time>2021-09-07T17:39:39Z</time>
      </trkpt>
      <trkpt lat="44.36158" lon="5.60792">
        <ele>846.5</ele>
        <time>2021-09-07T17:39:40Z</time>
      </trkpt>
      <trkpt lat="44.36153" lon="5.60787">
        <ele>845.7</ele>
        <time>2021-09-07T17:39:41Z</time>
      </trkpt>
      <trkpt lat="44.36147" lon="5.60782">
        <ele>844.8</ele>
        <time>2021-09-07T17:39:42Z</time>
      </trkpt>
      <trkpt lat="44.36142" lon="5.60778">
        <ele>844.1</ele>
        <time>2021-09-07T17:39:43Z</time>
      </trkpt>
      <trkpt lat="44.36137" lon="5.60773">
        <ele>843.4</ele>
        <time>2021-09-07T17:39:44Z</time>
      </trkpt>
      <trkpt lat="44.36134" lon="5.60771">
        <ele>842.8</ele>
        <time>2021-09-07T17:39:45Z</time>
      </trkpt>
      <trkpt lat="44.3613" lon="5.60768">
        <ele>842.3</ele>
        <time>2021-09-07T17:39:46Z</time>
      </trkpt>
      <trkpt lat="44.36125" lon="5.60767">
        <ele>841.5</ele>
        <time>2021-09-07T17:39:47Z</time>
      </trkpt>
      <trkpt lat="44.36122" lon="5.60763">
        <ele>840.8</ele>
        <time>2021-09-07T17:39:48Z</time>
      </trkpt>
      <trkpt lat="44.36118" lon="5.6076">
        <ele>840.1</ele>
        <time>2021-09-07T17:39:49Z</time>
      </trkpt>
      <trkpt lat="44.36114" lon="5.60756">
        <ele>839.4</ele>
        <time>2021-09-07T17:39:50Z</time>
      </trkpt>
      <trkpt lat="44.36112" lon="5.60754">
        <ele>838.9</ele>
        <time>2021-09-07T17:39:51Z</time>
      </trkpt>
      <trkpt lat="44.3611" lon="5.60752">
        <ele>838.5</ele>
        <time>2021-09-07T17:39:52Z</time>
      </trkpt>
      <trkpt lat="44.36105" lon="5.6075">
        <ele>837.4</ele>
        <time>2021-09-07T17:39:53Z</time>
      </trkpt>
      <trkpt lat="44.36101" lon="5.60747">
        <ele>836.5</ele>
        <time>2021-09-07T17:39:54Z</time>
      </trkpt>
      <trkpt lat="44.36099" lon="5.60746">
        <ele>836</ele>
        <time>2021-09-07T17:39:55Z</time>
      </trkpt>
      <trkpt lat="44.36097" lon="5.60744">
        <ele>835.6</ele>
        <time>2021-09-07T17:39:56Z</time>
      </trkpt>
      <trkpt lat="44.36094" lon="5.60744">
        <ele>835</ele>
        <time>2021-09-07T17:39:57Z</time>
      </trkpt>
      <trkpt lat="44.3609" lon="5.60744">
        <ele>834.3</ele>
        <time>2021-09-07T17:39:58Z</time>
      </trkpt>
      <trkpt lat="44.36086" lon="5.60745">
        <ele>833.7</ele>
        <time>2021-09-07T17:39:59Z</time>
      </trkpt>
      <trkpt lat="44.36082" lon="5.60745">
        <ele>833.4</ele>
        <time>2021-09-07T17:40:00Z</time>
      </trkpt>
      <trkpt lat="44.36079" lon="5.60746">
        <ele>832.6</ele>
        <time>2021-09-07T17:40:01Z</time>
      </trkpt>
      <trkpt lat="44.36075" lon="5.60747">
        <ele>831.8</ele>
        <time>2021-09-07T17:40:02Z</time>
      </trkpt>
      <trkpt lat="44.3607" lon="5.60752">
        <ele>831.3</ele>
        <time>2021-09-07T17:40:03Z</time>
      </trkpt>
      <trkpt lat="44.36068" lon="5.60757">
        <ele>830.8</ele>
        <time>2021-09-07T17:40:04Z</time>
      </trkpt>
      <trkpt lat="44.36065" lon="5.60761">
        <ele>830.6</ele>
        <time>2021-09-07T17:40:05Z</time>
      </trkpt>
      <trkpt lat="44.36063" lon="5.60767">
        <ele>830.3</ele>
        <time>2021-09-07T17:40:06Z</time>
      </trkpt>
      <trkpt lat="44.36061" lon="5.60771">
        <ele>829.3</ele>
        <time>2021-09-07T17:40:07Z</time>
      </trkpt>
      <trkpt lat="44.36059" lon="5.60774">
        <ele>828.9</ele>
        <time>2021-09-07T17:40:08Z</time>
      </trkpt>
      <trkpt lat="44.36055" lon="5.6078">
        <ele>827.8</ele>
        <time>2021-09-07T17:40:09Z</time>
      </trkpt>
      <trkpt lat="44.3605" lon="5.60786">
        <ele>826.9</ele>
        <time>2021-09-07T17:40:10Z</time>
      </trkpt>
      <trkpt lat="44.36046" lon="5.60791">
        <ele>825.4</ele>
        <time>2021-09-07T17:40:11Z</time>
      </trkpt>
      <trkpt lat="44.36042" lon="5.60796">
        <ele>824.5</ele>
        <time>2021-09-07T17:40:12Z</time>
      </trkpt>
      <trkpt lat="44.36038" lon="5.60803">
        <ele>823.8</ele>
        <time>2021-09-07T17:40:13Z</time>
      </trkpt>
      <trkpt lat="44.36035" lon="5.6081">
        <ele>823</ele>
        <time>2021-09-07T17:40:14Z</time>
      </trkpt>
      <trkpt lat="44.36032" lon="5.60818">
        <ele>822.1</ele>
        <time>2021-09-07T17:40:15Z</time>
      </trkpt>
      <trkpt lat="44.36029" lon="5.60825">
        <ele>821.4</ele>
        <time>2021-09-07T17:40:16Z</time>
      </trkpt>
      <trkpt lat="44.36026" lon="5.60832">
        <ele>820.7</ele>
        <time>2021-09-07T17:40:17Z</time>
      </trkpt>
      <trkpt lat="44.36023" lon="5.60839">
        <ele>819.9</ele>
        <time>2021-09-07T17:40:18Z</time>
      </trkpt>
      <trkpt lat="44.36021" lon="5.60846">
        <ele>819.2</ele>
        <time>2021-09-07T17:40:19Z</time>
      </trkpt>
      <trkpt lat="44.36019" lon="5.60853">
        <ele>818.9</ele>
        <time>2021-09-07T17:40:20Z</time>
      </trkpt>
      <trkpt lat="44.36016" lon="5.6086">
        <ele>818</ele>
        <time>2021-09-07T17:40:21Z</time>
      </trkpt>
      <trkpt lat="44.36013" lon="5.60867">
        <ele>817.4</ele>
        <time>2021-09-07T17:40:22Z</time>
      </trkpt>
      <trkpt lat="44.3601" lon="5.60874">
        <ele>816.6</ele>
        <time>2021-09-07T17:40:23Z</time>
      </trkpt>
      <trkpt lat="44.36007" lon="5.6088">
        <ele>816</ele>
        <time>2021-09-07T17:40:24Z</time>
      </trkpt>
      <trkpt lat="44.36003" lon="5.60885">
        <ele>814.9</ele>
        <time>2021-09-07T17:40:25Z</time>
      </trkpt>
      <trkpt lat="44.35998" lon="5.6089">
        <ele>814.1</ele>
        <time>2021-09-07T17:40:26Z</time>
      </trkpt>
      <trkpt lat="44.35993" lon="5.60895">
        <ele>812.9</ele>
        <time>2021-09-07T17:40:27Z</time>
      </trkpt>
      <trkpt lat="44.35987" lon="5.60899">
        <ele>811.6</ele>
        <time>2021-09-07T17:40:28Z</time>
      </trkpt>
      <trkpt lat="44.35981" lon="5.60904">
        <ele>810.6</ele>
        <time>2021-09-07T17:40:29Z</time>
      </trkpt>
      <trkpt lat="44.35975" lon="5.60908">
        <ele>809.2</ele>
        <time>2021-09-07T17:40:30Z</time>
      </trkpt>
      <trkpt lat="44.3597" lon="5.60913">
        <ele>807.5</ele>
        <time>2021-09-07T17:40:31Z</time>
      </trkpt>
      <trkpt lat="44.35964" lon="5.60917">
        <ele>806.4</ele>
        <time>2021-09-07T17:40:32Z</time>
      </trkpt>
      <trkpt lat="44.3596" lon="5.60921">
        <ele>804.8</ele>
        <time>2021-09-07T17:40:33Z</time>
      </trkpt>
      <trkpt lat="44.35955" lon="5.60925">
        <ele>803.4</ele>
        <time>2021-09-07T17:40:34Z</time>
      </trkpt>
      <trkpt lat="44.35951" lon="5.60929">
        <ele>801.5</ele>
        <time>2021-09-07T17:40:35Z</time>
      </trkpt>
      <trkpt lat="44.35947" lon="5.60933">
        <ele>800.2</ele>
        <time>2021-09-07T17:40:36Z</time>
      </trkpt>
      <trkpt lat="44.35943" lon="5.60937">
        <ele>798.9</ele>
        <time>2021-09-07T17:40:37Z</time>
      </trkpt>
      <trkpt lat="44.35941" lon="5.60942">
        <ele>797.5</ele>
        <time>2021-09-07T17:40:38Z</time>
      </trkpt>
      <trkpt lat="44.35938" lon="5.60946">
        <ele>796.2</ele>
        <time>2021-09-07T17:40:39Z</time>
      </trkpt>
      <trkpt lat="44.35936" lon="5.60951">
        <ele>796</ele>
        <time>2021-09-07T17:40:40Z</time>
      </trkpt>
      <trkpt lat="44.35934" lon="5.60956">
        <ele>794.7</ele>
        <time>2021-09-07T17:40:41Z</time>
      </trkpt>
      <trkpt lat="44.35933" lon="5.60959">
        <ele>794</ele>
        <time>2021-09-07T17:40:42Z</time>
      </trkpt>
      <trkpt lat="44.35931" lon="5.60963">
        <ele>792.6</ele>
        <time>2021-09-07T17:40:43Z</time>
      </trkpt>
      <trkpt lat="44.3593" lon="5.60966">
        <ele>791.2</ele>
        <time>2021-09-07T17:40:44Z</time>
      </trkpt>
      <trkpt lat="44.35928" lon="5.60968">
        <ele>790.6</ele>
        <time>2021-09-07T17:40:45Z</time>
      </trkpt>
      <trkpt lat="44.35928" lon="5.60978">
        <ele>790</ele>
        <time>2021-09-07T17:40:46Z</time>
      </trkpt>
      <trkpt lat="44.35928" lon="5.60982">
        <ele>790.1</ele>
        <time>2021-09-07T17:40:47Z</time>
      </trkpt>
      <trkpt lat="44.35928" lon="5.60986">
        <ele>790.1</ele>
        <time>2021-09-07T17:40:48Z</time>
      </trkpt>
      <trkpt lat="44.35929" lon="5.60992">
        <ele>790.1</ele>
        <time>2021-09-07T17:40:49Z</time>
      </trkpt>
      <trkpt lat="44.3593" lon="5.60997">
        <ele>790.2</ele>
        <time>2021-09-07T17:40:50Z</time>
      </trkpt>
      <trkpt lat="44.35931" lon="5.61003">
        <ele>790.2</ele>
        <time>2021-09-07T17:40:51Z</time>
      </trkpt>
      <trkpt lat="44.35933" lon="5.61012">
        <ele>790.3</ele>
        <time>2021-09-07T17:40:52Z</time>
      </trkpt>
      <trkpt lat="44.35934" lon="5.61018">
        <ele>790.3</ele>
        <time>2021-09-07T17:40:53Z</time>
      </trkpt>
      <trkpt lat="44.35935" lon="5.61023">
        <ele>790.3</ele>
        <time>2021-09-07T17:40:54Z</time>
      </trkpt>
      <trkpt lat="44.35937" lon="5.61029">
        <ele>790.4</ele>
        <time>2021-09-07T17:40:55Z</time>
      </trkpt>
      <trkpt lat="44.35941" lon="5.61039">
        <ele>790.4</ele>
        <time>2021-09-07T17:40:56Z</time>
      </trkpt>
      <trkpt lat="44.35943" lon="5.61046">
        <ele>790.4</ele>
        <time>2021-09-07T17:40:57Z</time>
      </trkpt>
      <trkpt lat="44.35945" lon="5.61054">
        <ele>790.5</ele>
        <time>2021-09-07T17:40:58Z</time>
      </trkpt>
      <trkpt lat="44.35947" lon="5.61063">
        <ele>790.5</ele>
        <time>2021-09-07T17:40:59Z</time>
      </trkpt>
      <trkpt lat="44.3595" lon="5.61072">
        <ele>790.4</ele>
        <time>2021-09-07T17:41:00Z</time>
      </trkpt>
      <trkpt lat="44.35952" lon="5.61083">
        <ele>790.4</ele>
        <time>2021-09-07T17:41:01Z</time>
      </trkpt>
      <trkpt lat="44.35954" lon="5.61094">
        <ele>790.3</ele>
        <time>2021-09-07T17:41:02Z</time>
      </trkpt>
      <trkpt lat="44.35954" lon="5.61108">
        <ele>790.1</ele>
        <time>2021-09-07T17:41:03Z</time>
      </trkpt>
      <trkpt lat="44.35954" lon="5.61121">
        <ele>790</ele>
        <time>2021-09-07T17:41:04Z</time>
      </trkpt>
      <trkpt lat="44.35955" lon="5.61135">
        <ele>789.8</ele>
        <time>2021-09-07T17:41:05Z</time>
      </trkpt>
      <trkpt lat="44.35954" lon="5.61148">
        <ele>789.6</ele>
        <time>2021-09-07T17:41:06Z</time>
      </trkpt>
      <trkpt lat="44.35953" lon="5.61162">
        <ele>789.4</ele>
        <time>2021-09-07T17:41:07Z</time>
      </trkpt>
      <trkpt lat="44.35952" lon="5.61175">
        <ele>789.2</ele>
        <time>2021-09-07T17:41:08Z</time>
      </trkpt>
      <trkpt lat="44.35949" lon="5.61187">
        <ele>789</ele>
        <time>2021-09-07T17:41:09Z</time>
      </trkpt>
      <trkpt lat="44.35947" lon="5.61198">
        <ele>788.8</ele>
        <time>2021-09-07T17:41:10Z</time>
      </trkpt>
      <trkpt lat="44.35944" lon="5.61208">
        <ele>788.7</ele>
        <time>2021-09-07T17:41:11Z</time>
      </trkpt>
      <trkpt lat="44.35943" lon="5.61217">
        <ele>788.6</ele>
        <time>2021-09-07T17:41:12Z</time>
      </trkpt>
      <trkpt lat="44.35941" lon="5.61227">
        <ele>788.5</ele>
        <time>2021-09-07T17:41:13Z</time>
      </trkpt>
      <trkpt lat="44.35939" lon="5.61237">
        <ele>788.3</ele>
        <time>2021-09-07T17:41:14Z</time>
      </trkpt>
      <trkpt lat="44.35936" lon="5.61248">
        <ele>788.1</ele>
        <time>2021-09-07T17:41:15Z</time>
      </trkpt>
      <trkpt lat="44.35935" lon="5.61251">
        <ele>788.1</ele>
        <time>2021-09-07T17:41:16Z</time>
      </trkpt>
      <trkpt lat="44.35934" lon="5.61253">
        <ele>788</ele>
        <time>2021-09-07T17:41:17Z</time>
      </trkpt>
      <trkpt lat="44.35935" lon="5.61251">
        <ele>788</ele>
        <time>2021-09-07T17:41:18Z</time>
      </trkpt>
      <trkpt lat="44.35933" lon="5.61249">
        <ele>787.9</ele>
        <time>2021-09-07T17:41:19Z</time>
      </trkpt>
      <trkpt lat="44.35928" lon="5.61239">
        <ele>788.1</ele>
        <time>2021-09-07T17:41:20Z</time>
      </trkpt>
      <trkpt lat="44.35928" lon="5.61238">
        <ele>788.1</ele>
        <time>2021-09-07T17:41:21Z</time>
      </trkpt>
      <trkpt lat="44.35927" lon="5.61236">
        <ele>788.1</ele>
        <time>2021-09-07T17:41:22Z</time>
      </trkpt>
      <trkpt lat="44.35926" lon="5.61233">
        <ele>788.2</ele>
        <time>2021-09-07T17:41:23Z</time>
      </trkpt>
      <trkpt lat="44.35919" lon="5.61217">
        <ele>788.5</ele>
        <time>2021-09-07T17:41:24Z</time>
      </trkpt>
      <trkpt lat="44.35911" lon="5.612">
        <ele>788.7</ele>
        <time>2021-09-07T17:41:25Z</time>
      </trkpt>
      <trkpt lat="44.35906" lon="5.61181">
        <ele>789</ele>
        <time>2021-09-07T17:41:26Z</time>
      </trkpt>
      <trkpt lat="44.359" lon="5.61162">
        <ele>789.3</ele>
        <time>2021-09-07T17:41:27Z</time>
      </trkpt>
      <trkpt lat="44.35896" lon="5.61148">
        <ele>789.6</ele>
        <time>2021-09-07T17:41:28Z</time>
      </trkpt>
      <trkpt lat="44.35892" lon="5.61133">
        <ele>789.8</ele>
        <time>2021-09-07T17:41:29Z</time>
      </trkpt>
      <trkpt lat="44.3589" lon="5.61122">
        <ele>790</ele>
        <time>2021-09-07T17:41:30Z</time>
      </trkpt>
      <trkpt lat="44.3589" lon="5.61116">
        <ele>790</ele>
        <time>2021-09-07T17:41:31Z</time>
      </trkpt>
      <trkpt lat="44.35889" lon="5.61112">
        <ele>790.1</ele>
        <time>2021-09-07T17:41:32Z</time>
      </trkpt>
      <trkpt lat="44.35888" lon="5.61108">
        <ele>790.1</ele>
        <time>2021-09-07T17:41:33Z</time>
      </trkpt>
      <trkpt lat="44.35884" lon="5.61103">
        <ele>790</ele>
        <time>2021-09-07T17:41:34Z</time>
      </trkpt>
      <trkpt lat="44.35882" lon="5.61102">
        <ele>789.9</ele>
        <time>2021-09-07T17:41:35Z</time>
      </trkpt>
      <trkpt lat="44.3588" lon="5.611">
        <ele>789.9</ele>
        <time>2021-09-07T17:41:36Z</time>
      </trkpt>
      <trkpt lat="44.3588" lon="5.61098">
        <ele>789.9</ele>
        <time>2021-09-07T17:41:37Z</time>
      </trkpt>
      <trkpt lat="44.3588" lon="5.61095">
        <ele>789.8</ele>
        <time>2021-09-07T17:41:38Z</time>
      </trkpt>
      <trkpt lat="44.3588" lon="5.61094">
        <ele>789.8</ele>
        <time>2021-09-07T17:41:39Z</time>
      </trkpt>
      <trkpt lat="44.3588" lon="5.61095">
        <ele>789.8</ele>
        <time>2021-09-07T17:41:40Z</time>
      </trkpt>
      <trkpt lat="44.3588" lon="5.61097">
        <ele>789.8</ele>
        <time>2021-09-07T17:41:41Z</time>
      </trkpt>
      <trkpt lat="44.3588" lon="5.61098">
        <ele>789.8</ele>
        <time>2021-09-07T17:41:42Z</time>
      </trkpt>
      <trkpt lat="44.3588" lon="5.61098">
        <ele>789.8</ele>
        <time>2021-09-07T17:41:43Z</time>
      </trkpt>
      <trkpt lat="44.3588" lon="5.61099">
        <ele>789.7</ele>
        <time>2021-09-07T17:41:44Z</time>
      </trkpt>
      <trkpt lat="44.35882" lon="5.61103">
        <ele>789.7</ele>
        <time>2021-09-07T17:41:45Z</time>
      </trkpt>
      <trkpt lat="44.35884" lon="5.61107">
        <ele>789.6</ele>
        <time>2021-09-07T17:41:46Z</time>
      </trkpt>
      <trkpt lat="44.3589" lon="5.61118">
        <ele>789.4</ele>
        <time>2021-09-07T17:41:47Z</time>
      </trkpt>
      <trkpt lat="44.359" lon="5.6114">
        <ele>789.1</ele>
        <time>2021-09-07T17:41:48Z</time>
      </trkpt>
      <trkpt lat="44.35905" lon="5.61151">
        <ele>788.9</ele>
        <time>2021-09-07T17:41:49Z</time>
      </trkpt>
      <trkpt lat="44.35909" lon="5.61161">
        <ele>788.8</ele>
        <time>2021-09-07T17:41:50Z</time>
      </trkpt>
      <trkpt lat="44.35913" lon="5.6117">
        <ele>788.7</ele>
        <time>2021-09-07T17:41:51Z</time>
      </trkpt>
      <trkpt lat="44.35916" lon="5.61179">
        <ele>788.6</ele>
        <time>2021-09-07T17:41:52Z</time>
      </trkpt>
      <trkpt lat="44.35918" lon="5.61187">
        <ele>788.5</ele>
        <time>2021-09-07T17:41:53Z</time>
      </trkpt>
      <trkpt lat="44.35919" lon="5.61195">
        <ele>788.4</ele>
        <time>2021-09-07T17:41:54Z</time>
      </trkpt>
      <trkpt lat="44.3592" lon="5.61204">
        <ele>788.3</ele>
        <time>2021-09-07T17:41:55Z</time>
      </trkpt>
      <trkpt lat="44.35921" lon="5.61213">
        <ele>788.1</ele>
        <time>2021-09-07T17:41:56Z</time>
      </trkpt>
      <trkpt lat="44.3592" lon="5.61222">
        <ele>788</ele>
        <time>2021-09-07T17:41:57Z</time>
      </trkpt>
      <trkpt lat="44.3592" lon="5.61231">
        <ele>787.8</ele>
        <time>2021-09-07T17:41:58Z</time>
      </trkpt>
      <trkpt lat="44.35919" lon="5.6124">
        <ele>787.6</ele>
        <time>2021-09-07T17:41:59Z</time>
      </trkpt>
      <trkpt lat="44.35918" lon="5.61249">
        <ele>787.3</ele>
        <time>2021-09-07T17:42:00Z</time>
      </trkpt>
      <trkpt lat="44.35916" lon="5.61257">
        <ele>787.1</ele>
        <time>2021-09-07T17:42:01Z</time>
      </trkpt>
      <trkpt lat="44.35915" lon="5.61266">
        <ele>786.8</ele>
        <time>2021-09-07T17:42:02Z</time>
      </trkpt>
      <trkpt lat="44.35915" lon="5.61274">
        <ele>786.6</ele>
        <time>2021-09-07T17:42:03Z</time>
      </trkpt>
      <trkpt lat="44.35915" lon="5.61282">
        <ele>786.3</ele>
        <time>2021-09-07T17:42:04Z</time>
      </trkpt>
      <trkpt lat="44.35917" lon="5.6129">
        <ele>786.1</ele>
        <time>2021-09-07T17:42:05Z</time>
      </trkpt>
      <trkpt lat="44.35919" lon="5.61297">
        <ele>785.8</ele>
        <time>2021-09-07T17:42:06Z</time>
      </trkpt>
      <trkpt lat="44.35922" lon="5.61304">
        <ele>785.6</ele>
        <time>2021-09-07T17:42:07Z</time>
      </trkpt>
      <trkpt lat="44.35924" lon="5.6131">
        <ele>785.4</ele>
        <time>2021-09-07T17:42:08Z</time>
      </trkpt>
      <trkpt lat="44.35926" lon="5.61316">
        <ele>785.2</ele>
        <time>2021-09-07T17:42:09Z</time>
      </trkpt>
      <trkpt lat="44.35927" lon="5.61321">
        <ele>785.1</ele>
        <time>2021-09-07T17:42:10Z</time>
      </trkpt>
      <trkpt lat="44.35928" lon="5.61325">
        <ele>785</ele>
        <time>2021-09-07T17:42:11Z</time>
      </trkpt>
      <trkpt lat="44.35927" lon="5.6133">
        <ele>784.8</ele>
        <time>2021-09-07T17:42:12Z</time>
      </trkpt>
      <trkpt lat="44.35926" lon="5.61334">
        <ele>784.7</ele>
        <time>2021-09-07T17:42:13Z</time>
      </trkpt>
      <trkpt lat="44.35925" lon="5.61338">
        <ele>784.7</ele>
        <time>2021-09-07T17:42:14Z</time>
      </trkpt>
      <trkpt lat="44.35925" lon="5.61342">
        <ele>784.6</ele>
        <time>2021-09-07T17:42:15Z</time>
      </trkpt>
      <trkpt lat="44.35925" lon="5.61344">
        <ele>784.5</ele>
        <time>2021-09-07T17:42:16Z</time>
      </trkpt>
      <trkpt lat="44.35924" lon="5.61346">
        <ele>784.4</ele>
        <time>2021-09-07T17:42:17Z</time>
      </trkpt>
      <trkpt lat="44.35922" lon="5.61348">
        <ele>784.3</ele>
        <time>2021-09-07T17:42:18Z</time>
      </trkpt>
      <trkpt lat="44.35913" lon="5.61354">
        <ele>784</ele>
        <time>2021-09-07T17:42:19Z</time>
      </trkpt>
      <trkpt lat="44.35904" lon="5.61359">
        <ele>783.6</ele>
        <time>2021-09-07T17:42:20Z</time>
      </trkpt>
      <trkpt lat="44.35896" lon="5.61366">
        <ele>783.1</ele>
        <time>2021-09-07T17:42:21Z</time>
      </trkpt>
      <trkpt lat="44.35888" lon="5.61374">
        <ele>782.7</ele>
        <time>2021-09-07T17:42:22Z</time>
      </trkpt>
      <trkpt lat="44.35881" lon="5.61382">
        <ele>782.5</ele>
        <time>2021-09-07T17:42:23Z</time>
      </trkpt>
      <trkpt lat="44.35874" lon="5.6139">
        <ele>782.5</ele>
        <time>2021-09-07T17:42:24Z</time>
      </trkpt>
      <trkpt lat="44.35868" lon="5.61397">
        <ele>782.7</ele>
        <time>2021-09-07T17:42:25Z</time>
      </trkpt>
      <trkpt lat="44.35862" lon="5.61404">
        <ele>783</ele>
        <time>2021-09-07T17:42:26Z</time>
      </trkpt>
      <trkpt lat="44.35858" lon="5.61411">
        <ele>783.3</ele>
        <time>2021-09-07T17:42:27Z</time>
      </trkpt>
      <trkpt lat="44.35853" lon="5.61417">
        <ele>783.6</ele>
        <time>2021-09-07T17:42:28Z</time>
      </trkpt>
      <trkpt lat="44.35848" lon="5.61422">
        <ele>784</ele>
        <time>2021-09-07T17:42:29Z</time>
      </trkpt>
      <trkpt lat="44.35843" lon="5.61428">
        <ele>784.4</ele>
        <time>2021-09-07T17:42:30Z</time>
      </trkpt>
      <trkpt lat="44.35837" lon="5.61433">
        <ele>784.9</ele>
        <time>2021-09-07T17:42:31Z</time>
      </trkpt>
      <trkpt lat="44.35832" lon="5.61438">
        <ele>785.3</ele>
        <time>2021-09-07T17:42:32Z</time>
      </trkpt>
      <trkpt lat="44.35827" lon="5.61442">
        <ele>785.7</ele>
        <time>2021-09-07T17:42:33Z</time>
      </trkpt>
      <trkpt lat="44.35821" lon="5.61445">
        <ele>786.1</ele>
        <time>2021-09-07T17:42:34Z</time>
      </trkpt>
      <trkpt lat="44.35817" lon="5.61447">
        <ele>786.1</ele>
        <time>2021-09-07T17:42:35Z</time>
      </trkpt>
      <trkpt lat="44.35813" lon="5.61448">
        <ele>786.1</ele>
        <time>2021-09-07T17:42:36Z</time>
      </trkpt>
      <trkpt lat="44.35809" lon="5.61449">
        <ele>786.1</ele>
        <time>2021-09-07T17:42:37Z</time>
      </trkpt>
      <trkpt lat="44.35804" lon="5.6145">
        <ele>786.1</ele>
        <time>2021-09-07T17:42:38Z</time>
      </trkpt>
      <trkpt lat="44.35799" lon="5.61451">
        <ele>786.1</ele>
        <time>2021-09-07T17:42:39Z</time>
      </trkpt>
      <trkpt lat="44.35795" lon="5.61451">
        <ele>786.1</ele>
        <time>2021-09-07T17:42:40Z</time>
      </trkpt>
      <trkpt lat="44.35786" lon="5.61446">
        <ele>786.2</ele>
        <time>2021-09-07T17:42:41Z</time>
      </trkpt>
      <trkpt lat="44.35785" lon="5.61446">
        <ele>786.2</ele>
        <time>2021-09-07T17:42:42Z</time>
      </trkpt>
      <trkpt lat="44.35783" lon="5.61445">
        <ele>786.2</ele>
        <time>2021-09-07T17:42:43Z</time>
      </trkpt>
      <trkpt lat="44.3578" lon="5.6145">
        <ele>786.2</ele>
        <time>2021-09-07T17:42:44Z</time>
      </trkpt>
      <trkpt lat="44.35775" lon="5.61456">
        <ele>786.3</ele>
        <time>2021-09-07T17:42:45Z</time>
      </trkpt>
      <trkpt lat="44.35773" lon="5.61458">
        <ele>786.3</ele>
        <time>2021-09-07T17:42:46Z</time>
      </trkpt>
      <trkpt lat="44.35771" lon="5.6146">
        <ele>786.4</ele>
        <time>2021-09-07T17:42:47Z</time>
      </trkpt>
      <trkpt lat="44.35769" lon="5.61462">
        <ele>786.4</ele>
        <time>2021-09-07T17:42:48Z</time>
      </trkpt>
      <trkpt lat="44.35767" lon="5.61464">
        <ele>786.4</ele>
        <time>2021-09-07T17:42:49Z</time>
      </trkpt>
      <trkpt lat="44.35763" lon="5.61467">
        <ele>786.5</ele>
        <time>2021-09-07T17:42:50Z</time>
      </trkpt>
      <trkpt lat="44.35761" lon="5.61468">
        <ele>786.6</ele>
        <time>2021-09-07T17:42:51Z</time>
      </trkpt>
      <trkpt lat="44.35758" lon="5.61468">
        <ele>786.6</ele>
        <time>2021-09-07T17:42:52Z</time>
      </trkpt>
      <trkpt lat="44.35754" lon="5.61469">
        <ele>786.7</ele>
        <time>2021-09-07T17:42:53Z</time>
      </trkpt>
      <trkpt lat="44.35748" lon="5.61469">
        <ele>786.9</ele>
        <time>2021-09-07T17:42:54Z</time>
      </trkpt>
      <trkpt lat="44.35746" lon="5.61469">
        <ele>787</ele>
        <time>2021-09-07T17:42:55Z</time>
      </trkpt>
      <trkpt lat="44.35744" lon="5.61468">
        <ele>787</ele>
        <time>2021-09-07T17:42:56Z</time>
      </trkpt>
      <trkpt lat="44.35737" lon="5.61466">
        <ele>787.2</ele>
        <time>2021-09-07T17:42:57Z</time>
      </trkpt>
      <trkpt lat="44.35732" lon="5.61465">
        <ele>787.4</ele>
        <time>2021-09-07T17:42:58Z</time>
      </trkpt>
      <trkpt lat="44.3573" lon="5.61465">
        <ele>787.5</ele>
        <time>2021-09-07T17:42:59Z</time>
      </trkpt>
      <trkpt lat="44.35727" lon="5.61464">
        <ele>787.5</ele>
        <time>2021-09-07T17:43:00Z</time>
      </trkpt>
      <trkpt lat="44.35725" lon="5.61465">
        <ele>787.6</ele>
        <time>2021-09-07T17:43:01Z</time>
      </trkpt>
      <trkpt lat="44.35722" lon="5.61465">
        <ele>787.7</ele>
        <time>2021-09-07T17:43:02Z</time>
      </trkpt>
      <trkpt lat="44.35719" lon="5.61465">
        <ele>787.8</ele>
        <time>2021-09-07T17:43:03Z</time>
      </trkpt>
      <trkpt lat="44.35715" lon="5.61464">
        <ele>788</ele>
        <time>2021-09-07T17:43:04Z</time>
      </trkpt>
      <trkpt lat="44.35714" lon="5.61463">
        <ele>788</ele>
        <time>2021-09-07T17:43:05Z</time>
      </trkpt>
      <trkpt lat="44.35712" lon="5.61462">
        <ele>788.1</ele>
        <time>2021-09-07T17:43:06Z</time>
      </trkpt>
      <trkpt lat="44.3571" lon="5.61462">
        <ele>788.2</ele>
        <time>2021-09-07T17:43:07Z</time>
      </trkpt>
      <trkpt lat="44.35708" lon="5.61463">
        <ele>788.2</ele>
        <time>2021-09-07T17:43:08Z</time>
      </trkpt>
      <trkpt lat="44.35707" lon="5.61463">
        <ele>788.3</ele>
        <time>2021-09-07T17:43:09Z</time>
      </trkpt>
      <trkpt lat="44.35705" lon="5.61463">
        <ele>788.3</ele>
        <time>2021-09-07T17:43:10Z</time>
      </trkpt>
      <trkpt lat="44.35702" lon="5.61463">
        <ele>788.5</ele>
        <time>2021-09-07T17:43:11Z</time>
      </trkpt>
      <trkpt lat="44.35699" lon="5.61465">
        <ele>788.6</ele>
        <time>2021-09-07T17:43:12Z</time>
      </trkpt>
      <trkpt lat="44.35695" lon="5.61466">
        <ele>788.7</ele>
        <time>2021-09-07T17:43:13Z</time>
      </trkpt>
      <trkpt lat="44.35692" lon="5.61468">
        <ele>788.9</ele>
        <time>2021-09-07T17:43:14Z</time>
      </trkpt>
      <trkpt lat="44.35689" lon="5.61469">
        <ele>789</ele>
        <time>2021-09-07T17:43:15Z</time>
      </trkpt>
      <trkpt lat="44.35686" lon="5.6147">
        <ele>789</ele>
        <time>2021-09-07T17:43:16Z</time>
      </trkpt>
      <trkpt lat="44.35683" lon="5.61471">
        <ele>789.1</ele>
        <time>2021-09-07T17:43:17Z</time>
      </trkpt>
      <trkpt lat="44.35679" lon="5.61472">
        <ele>789.3</ele>
        <time>2021-09-07T17:43:18Z</time>
      </trkpt>
      <trkpt lat="44.35677" lon="5.61473">
        <ele>789.3</ele>
        <time>2021-09-07T17:43:19Z</time>
      </trkpt>
      <trkpt lat="44.35674" lon="5.61474">
        <ele>789.4</ele>
        <time>2021-09-07T17:43:20Z</time>
      </trkpt>
      <trkpt lat="44.35671" lon="5.61475">
        <ele>789.5</ele>
        <time>2021-09-07T17:43:21Z</time>
      </trkpt>
      <trkpt lat="44.35669" lon="5.61476">
        <ele>789.5</ele>
        <time>2021-09-07T17:43:22Z</time>
      </trkpt>
      <trkpt lat="44.35667" lon="5.61477">
        <ele>789.6</ele>
        <time>2021-09-07T17:43:23Z</time>
      </trkpt>
      <trkpt lat="44.35664" lon="5.61479">
        <ele>789.6</ele>
        <time>2021-09-07T17:43:24Z</time>
      </trkpt>
      <trkpt lat="44.35663" lon="5.6148">
        <ele>789.6</ele>
        <time>2021-09-07T17:43:25Z</time>
      </trkpt>
      <trkpt lat="44.35662" lon="5.6148">
        <ele>789.7</ele>
        <time>2021-09-07T17:43:26Z</time>
      </trkpt>
      <trkpt lat="44.35662" lon="5.61484">
        <ele>789.7</ele>
        <time>2021-09-07T17:43:27Z</time>
      </trkpt>
      <trkpt lat="44.35661" lon="5.61486">
        <ele>789.8</ele>
        <time>2021-09-07T17:43:28Z</time>
      </trkpt>
      <trkpt lat="44.35661" lon="5.61487">
        <ele>789.8</ele>
        <time>2021-09-07T17:43:29Z</time>
      </trkpt>
      <trkpt lat="44.3566" lon="5.61488">
        <ele>789.8</ele>
        <time>2021-09-07T17:43:30Z</time>
      </trkpt>
      <trkpt lat="44.35658" lon="5.6149">
        <ele>789.9</ele>
        <time>2021-09-07T17:43:31Z</time>
      </trkpt>
      <trkpt lat="44.35658" lon="5.61491">
        <ele>789.9</ele>
        <time>2021-09-07T17:43:32Z</time>
      </trkpt>
      <trkpt lat="44.35657" lon="5.61491">
        <ele>789.9</ele>
        <time>2021-09-07T17:43:33Z</time>
      </trkpt>
      <trkpt lat="44.35656" lon="5.61493">
        <ele>789.9</ele>
        <time>2021-09-07T17:43:34Z</time>
      </trkpt>
      <trkpt lat="44.35655" lon="5.61494">
        <ele>789.9</ele>
        <time>2021-09-07T17:43:35Z</time>
      </trkpt>
      <trkpt lat="44.35651" lon="5.61497">
        <ele>790</ele>
        <time>2021-09-07T17:43:36Z</time>
      </trkpt>
      <trkpt lat="44.35647" lon="5.615">
        <ele>790.1</ele>
        <time>2021-09-07T17:43:37Z</time>
      </trkpt>
      <trkpt lat="44.35645" lon="5.61502">
        <ele>790.2</ele>
        <time>2021-09-07T17:43:38Z</time>
      </trkpt>
      <trkpt lat="44.35642" lon="5.61504">
        <ele>790.2</ele>
        <time>2021-09-07T17:43:39Z</time>
      </trkpt>
      <trkpt lat="44.35638" lon="5.61505">
        <ele>790.3</ele>
        <time>2021-09-07T17:43:40Z</time>
      </trkpt>
      <trkpt lat="44.35637" lon="5.61506">
        <ele>790.4</ele>
        <time>2021-09-07T17:43:41Z</time>
      </trkpt>
      <trkpt lat="44.35635" lon="5.61507">
        <ele>790.4</ele>
        <time>2021-09-07T17:43:42Z</time>
      </trkpt>
      <trkpt lat="44.35631" lon="5.61509">
        <ele>790.5</ele>
        <time>2021-09-07T17:43:43Z</time>
      </trkpt>
      <trkpt lat="44.35628" lon="5.6151">
        <ele>790.5</ele>
        <time>2021-09-07T17:43:44Z</time>
      </trkpt>
      <trkpt lat="44.35626" lon="5.61512">
        <ele>790.6</ele>
        <time>2021-09-07T17:43:45Z</time>
      </trkpt>
      <trkpt lat="44.35624" lon="5.61514">
        <ele>790.6</ele>
        <time>2021-09-07T17:43:46Z</time>
      </trkpt>
      <trkpt lat="44.35621" lon="5.61515">
        <ele>790.7</ele>
        <time>2021-09-07T17:43:47Z</time>
      </trkpt>
      <trkpt lat="44.35618" lon="5.61516">
        <ele>790.8</ele>
        <time>2021-09-07T17:43:48Z</time>
      </trkpt>
      <trkpt lat="44.35614" lon="5.61517">
        <ele>790.8</ele>
        <time>2021-09-07T17:43:49Z</time>
      </trkpt>
      <trkpt lat="44.35611" lon="5.61519">
        <ele>790.9</ele>
        <time>2021-09-07T17:43:50Z</time>
      </trkpt>
      <trkpt lat="44.35608" lon="5.6152">
        <ele>790.9</ele>
        <time>2021-09-07T17:43:51Z</time>
      </trkpt>
      <trkpt lat="44.35605" lon="5.61522">
        <ele>791</ele>
        <time>2021-09-07T17:43:52Z</time>
      </trkpt>
      <trkpt lat="44.35603" lon="5.61524">
        <ele>791</ele>
        <time>2021-09-07T17:43:53Z</time>
      </trkpt>
      <trkpt lat="44.35601" lon="5.61526">
        <ele>791.1</ele>
        <time>2021-09-07T17:43:54Z</time>
      </trkpt>
      <trkpt lat="44.35599" lon="5.61528">
        <ele>791.1</ele>
        <time>2021-09-07T17:43:55Z</time>
      </trkpt>
      <trkpt lat="44.35597" lon="5.6153">
        <ele>791.2</ele>
        <time>2021-09-07T17:43:56Z</time>
      </trkpt>
      <trkpt lat="44.35594" lon="5.61531">
        <ele>791.2</ele>
        <time>2021-09-07T17:43:57Z</time>
      </trkpt>
      <trkpt lat="44.35592" lon="5.61533">
        <ele>791.3</ele>
        <time>2021-09-07T17:43:58Z</time>
      </trkpt>
      <trkpt lat="44.35589" lon="5.61534">
        <ele>791.3</ele>
        <time>2021-09-07T17:43:59Z</time>
      </trkpt>
      <trkpt lat="44.35587" lon="5.61536">
        <ele>791.3</ele>
        <time>2021-09-07T17:44:00Z</time>
      </trkpt>
      <trkpt lat="44.35585" lon="5.61537">
        <ele>791.4</ele>
        <time>2021-09-07T17:44:01Z</time>
      </trkpt>
      <trkpt lat="44.35583" lon="5.61538">
        <ele>791.4</ele>
        <time>2021-09-07T17:44:02Z</time>
      </trkpt>
      <trkpt lat="44.3558" lon="5.6154">
        <ele>791.5</ele>
        <time>2021-09-07T17:44:03Z</time>
      </trkpt>
      <trkpt lat="44.35578" lon="5.61543">
        <ele>791.5</ele>
        <time>2021-09-07T17:44:04Z</time>
      </trkpt>
      <trkpt lat="44.35575" lon="5.61546">
        <ele>791.6</ele>
        <time>2021-09-07T17:44:05Z</time>
      </trkpt>
      <trkpt lat="44.35572" lon="5.61549">
        <ele>791.7</ele>
        <time>2021-09-07T17:44:06Z</time>
      </trkpt>
      <trkpt lat="44.35571" lon="5.61551">
        <ele>791.7</ele>
        <time>2021-09-07T17:44:07Z</time>
      </trkpt>
      <trkpt lat="44.3557" lon="5.61552">
        <ele>791.7</ele>
        <time>2021-09-07T17:44:08Z</time>
      </trkpt>
      <trkpt lat="44.35569" lon="5.61555">
        <ele>791.8</ele>
        <time>2021-09-07T17:44:09Z</time>
      </trkpt>
      <trkpt lat="44.35567" lon="5.61558">
        <ele>791.8</ele>
        <time>2021-09-07T17:44:10Z</time>
      </trkpt>
      <trkpt lat="44.35567" lon="5.61562">
        <ele>791.9</ele>
        <time>2021-09-07T17:44:11Z</time>
      </trkpt>
      <trkpt lat="44.35567" lon="5.61566">
        <ele>791.9</ele>
        <time>2021-09-07T17:44:12Z</time>
      </trkpt>
      <trkpt lat="44.35567" lon="5.61569">
        <ele>792</ele>
        <time>2021-09-07T17:44:13Z</time>
      </trkpt>
      <trkpt lat="44.35567" lon="5.61573">
        <ele>792</ele>
        <time>2021-09-07T17:44:14Z</time>
      </trkpt>
      <trkpt lat="44.35567" lon="5.61577">
        <ele>792.1</ele>
        <time>2021-09-07T17:44:15Z</time>
      </trkpt>
      <trkpt lat="44.35567" lon="5.61581">
        <ele>792.1</ele>
        <time>2021-09-07T17:44:16Z</time>
      </trkpt>
      <trkpt lat="44.35567" lon="5.61585">
        <ele>792.2</ele>
        <time>2021-09-07T17:44:17Z</time>
      </trkpt>
      <trkpt lat="44.35567" lon="5.61589">
        <ele>792.3</ele>
        <time>2021-09-07T17:44:18Z</time>
      </trkpt>
      <trkpt lat="44.35567" lon="5.61594">
        <ele>792.3</ele>
        <time>2021-09-07T17:44:19Z</time>
      </trkpt>
      <trkpt lat="44.35566" lon="5.61598">
        <ele>792.4</ele>
        <time>2021-09-07T17:44:20Z</time>
      </trkpt>
      <trkpt lat="44.35566" lon="5.61602">
        <ele>792.4</ele>
        <time>2021-09-07T17:44:21Z</time>
      </trkpt>
      <trkpt lat="44.35566" lon="5.61606">
        <ele>792.5</ele>
        <time>2021-09-07T17:44:22Z</time>
      </trkpt>
      <trkpt lat="44.35567" lon="5.6161">
        <ele>792.6</ele>
        <time>2021-09-07T17:44:23Z</time>
      </trkpt>
      <trkpt lat="44.35567" lon="5.61614">
        <ele>792.6</ele>
        <time>2021-09-07T17:44:24Z</time>
      </trkpt>
      <trkpt lat="44.35568" lon="5.61616">
        <ele>792.7</ele>
        <time>2021-09-07T17:44:25Z</time>
      </trkpt>
      <trkpt lat="44.3557" lon="5.61619">
        <ele>792.7</ele>
        <time>2021-09-07T17:44:26Z</time>
      </trkpt>
      <trkpt lat="44.35571" lon="5.61623">
        <ele>792.8</ele>
        <time>2021-09-07T17:44:27Z</time>
      </trkpt>
      <trkpt lat="44.35572" lon="5.61626">
        <ele>792.8</ele>
        <time>2021-09-07T17:44:28Z</time>
      </trkpt>
      <trkpt lat="44.35572" lon="5.61628">
        <ele>792.9</ele>
        <time>2021-09-07T17:44:29Z</time>
      </trkpt>
      <trkpt lat="44.35573" lon="5.61631">
        <ele>792.9</ele>
        <time>2021-09-07T17:44:30Z</time>
      </trkpt>
      <trkpt lat="44.35573" lon="5.61634">
        <ele>793</ele>
        <time>2021-09-07T17:44:31Z</time>
      </trkpt>
      <trkpt lat="44.35573" lon="5.61637">
        <ele>793</ele>
        <time>2021-09-07T17:44:32Z</time>
      </trkpt>
      <trkpt lat="44.35573" lon="5.6164">
        <ele>793.1</ele>
        <time>2021-09-07T17:44:33Z</time>
      </trkpt>
      <trkpt lat="44.35574" lon="5.61644">
        <ele>793.1</ele>
        <time>2021-09-07T17:44:34Z</time>
      </trkpt>
      <trkpt lat="44.35574" lon="5.61647">
        <ele>793.2</ele>
        <time>2021-09-07T17:44:35Z</time>
      </trkpt>
      <trkpt lat="44.35574" lon="5.6165">
        <ele>793.2</ele>
        <time>2021-09-07T17:44:36Z</time>
      </trkpt>
      <trkpt lat="44.35574" lon="5.61654">
        <ele>793.3</ele>
        <time>2021-09-07T17:44:37Z</time>
      </trkpt>
      <trkpt lat="44.35573" lon="5.61657">
        <ele>793.4</ele>
        <time>2021-09-07T17:44:38Z</time>
      </trkpt>
      <trkpt lat="44.35574" lon="5.61661">
        <ele>793.4</ele>
        <time>2021-09-07T17:44:39Z</time>
      </trkpt>
      <trkpt lat="44.35575" lon="5.61664">
        <ele>793.5</ele>
        <time>2021-09-07T17:44:40Z</time>
      </trkpt>
      <trkpt lat="44.35576" lon="5.61672">
        <ele>793.6</ele>
        <time>2021-09-07T17:44:41Z</time>
      </trkpt>
      <trkpt lat="44.35576" lon="5.61675">
        <ele>793.7</ele>
        <time>2021-09-07T17:44:42Z</time>
      </trkpt>
      <trkpt lat="44.35576" lon="5.61678">
        <ele>793.8</ele>
        <time>2021-09-07T17:44:43Z</time>
      </trkpt>
      <trkpt lat="44.35574" lon="5.61679">
        <ele>793.8</ele>
        <time>2021-09-07T17:44:44Z</time>
      </trkpt>
      <trkpt lat="44.35572" lon="5.6168">
        <ele>793.9</ele>
        <time>2021-09-07T17:44:45Z</time>
      </trkpt>
      <trkpt lat="44.35572" lon="5.61681">
        <ele>793.9</ele>
        <time>2021-09-07T17:44:46Z</time>
      </trkpt>
      <trkpt lat="44.35572" lon="5.61682">
        <ele>793.9</ele>
        <time>2021-09-07T17:44:47Z</time>
      </trkpt>
      <trkpt lat="44.35572" lon="5.61683">
        <ele>793.9</ele>
        <time>2021-09-07T17:44:48Z</time>
      </trkpt>
      <trkpt lat="44.35572" lon="5.61684">
        <ele>794</ele>
        <time>2021-09-07T17:44:49Z</time>
      </trkpt>
      <trkpt lat="44.35573" lon="5.61686">
        <ele>794</ele>
        <time>2021-09-07T17:44:50Z</time>
      </trkpt>
      <trkpt lat="44.35573" lon="5.61687">
        <ele>794</ele>
        <time>2021-09-07T17:44:51Z</time>
      </trkpt>
      <trkpt lat="44.35573" lon="5.61692">
        <ele>794.1</ele>
        <time>2021-09-07T17:44:52Z</time>
      </trkpt>
      <trkpt lat="44.35572" lon="5.61697">
        <ele>794.2</ele>
        <time>2021-09-07T17:44:53Z</time>
      </trkpt>
      <trkpt lat="44.35572" lon="5.617">
        <ele>794.3</ele>
        <time>2021-09-07T17:44:54Z</time>
      </trkpt>
      <trkpt lat="44.35571" lon="5.61702">
        <ele>794.3</ele>
        <time>2021-09-07T17:44:55Z</time>
      </trkpt>
      <trkpt lat="44.3557" lon="5.61704">
        <ele>794.4</ele>
        <time>2021-09-07T17:44:56Z</time>
      </trkpt>
      <trkpt lat="44.35569" lon="5.61706">
        <ele>794.4</ele>
        <time>2021-09-07T17:44:57Z</time>
      </trkpt>
      <trkpt lat="44.35568" lon="5.61707">
        <ele>794.4</ele>
        <time>2021-09-07T17:44:58Z</time>
      </trkpt>
      <trkpt lat="44.35568" lon="5.61708">
        <ele>794.4</ele>
        <time>2021-09-07T17:44:59Z</time>
      </trkpt>
      <trkpt lat="44.35567" lon="5.61708">
        <ele>794.5</ele>
        <time>2021-09-07T17:45:00Z</time>
      </trkpt>
      <trkpt lat="44.35564" lon="5.61712">
        <ele>794.6</ele>
        <time>2021-09-07T17:45:01Z</time>
      </trkpt>
      <trkpt lat="44.35563" lon="5.61713">
        <ele>794.6</ele>
        <time>2021-09-07T17:45:02Z</time>
      </trkpt>
      <trkpt lat="44.35562" lon="5.61713">
        <ele>794.6</ele>
        <time>2021-09-07T17:45:03Z</time>
      </trkpt>
      <trkpt lat="44.3556" lon="5.61714">
        <ele>794.6</ele>
        <time>2021-09-07T17:45:04Z</time>
      </trkpt>
      <trkpt lat="44.35558" lon="5.61714">
        <ele>794.7</ele>
        <time>2021-09-07T17:45:05Z</time>
      </trkpt>
      <trkpt lat="44.35556" lon="5.61715">
        <ele>794.7</ele>
        <time>2021-09-07T17:45:06Z</time>
      </trkpt>
      <trkpt lat="44.35556" lon="5.61716">
        <ele>794.7</ele>
        <time>2021-09-07T17:45:07Z</time>
      </trkpt>
      <trkpt lat="44.35555" lon="5.61716">
        <ele>794.8</ele>
        <time>2021-09-07T17:45:08Z</time>
      </trkpt>
      <trkpt lat="44.35555" lon="5.61717">
        <ele>794.8</ele>
        <time>2021-09-07T17:45:09Z</time>
      </trkpt>
      <trkpt lat="44.35554" lon="5.61718">
        <ele>794.8</ele>
        <time>2021-09-07T17:45:10Z</time>
      </trkpt>
      <trkpt lat="44.35553" lon="5.61719">
        <ele>794.8</ele>
        <time>2021-09-07T17:45:11Z</time>
      </trkpt>
      <trkpt lat="44.35551" lon="5.61721">
        <ele>794.9</ele>
        <time>2021-09-07T17:45:12Z</time>
      </trkpt>
      <trkpt lat="44.3555" lon="5.61723">
        <ele>794.9</ele>
        <time>2021-09-07T17:45:13Z</time>
      </trkpt>
      <trkpt lat="44.35549" lon="5.61724">
        <ele>795</ele>
        <time>2021-09-07T17:45:14Z</time>
      </trkpt>
      <trkpt lat="44.35548" lon="5.61726">
        <ele>795</ele>
        <time>2021-09-07T17:45:15Z</time>
      </trkpt>
      <trkpt lat="44.35546" lon="5.61727">
        <ele>795.1</ele>
        <time>2021-09-07T17:45:16Z</time>
      </trkpt>
      <trkpt lat="44.35545" lon="5.61729">
        <ele>795.1</ele>
        <time>2021-09-07T17:45:17Z</time>
      </trkpt>
      <trkpt lat="44.35544" lon="5.61731">
        <ele>795.2</ele>
        <time>2021-09-07T17:45:18Z</time>
      </trkpt>
      <trkpt lat="44.35543" lon="5.61732">
        <ele>795.2</ele>
        <time>2021-09-07T17:45:19Z</time>
      </trkpt>
      <trkpt lat="44.35542" lon="5.61733">
        <ele>795.3</ele>
        <time>2021-09-07T17:45:20Z</time>
      </trkpt>
      <trkpt lat="44.3554" lon="5.61734">
        <ele>795.3</ele>
        <time>2021-09-07T17:45:21Z</time>
      </trkpt>
      <trkpt lat="44.35538" lon="5.61735">
        <ele>795.4</ele>
        <time>2021-09-07T17:45:22Z</time>
      </trkpt>
      <trkpt lat="44.35537" lon="5.61737">
        <ele>795.4</ele>
        <time>2021-09-07T17:45:23Z</time>
      </trkpt>
      <trkpt lat="44.35537" lon="5.61738">
        <ele>795.4</ele>
        <time>2021-09-07T17:45:24Z</time>
      </trkpt>
      <trkpt lat="44.35537" lon="5.61739">
        <ele>795.5</ele>
        <time>2021-09-07T17:45:25Z</time>
      </trkpt>
      <trkpt lat="44.35537" lon="5.61741">
        <ele>795.5</ele>
        <time>2021-09-07T17:45:26Z</time>
      </trkpt>
      <trkpt lat="44.35536" lon="5.61742">
        <ele>795.5</ele>
        <time>2021-09-07T17:45:27Z</time>
      </trkpt>
      <trkpt lat="44.35536" lon="5.61743">
        <ele>795.6</ele>
        <time>2021-09-07T17:45:28Z</time>
      </trkpt>
      <trkpt lat="44.35535" lon="5.61745">
        <ele>795.6</ele>
        <time>2021-09-07T17:45:29Z</time>
      </trkpt>
      <trkpt lat="44.35535" lon="5.61746">
        <ele>795.7</ele>
        <time>2021-09-07T17:45:30Z</time>
      </trkpt>
      <trkpt lat="44.35534" lon="5.61746">
        <ele>795.7</ele>
        <time>2021-09-07T17:45:31Z</time>
      </trkpt>
      <trkpt lat="44.35532" lon="5.61748">
        <ele>795.8</ele>
        <time>2021-09-07T17:45:32Z</time>
      </trkpt>
      <trkpt lat="44.35531" lon="5.61749">
        <ele>795.8</ele>
        <time>2021-09-07T17:45:33Z</time>
      </trkpt>
      <trkpt lat="44.3553" lon="5.61749">
        <ele>795.8</ele>
        <time>2021-09-07T17:45:34Z</time>
      </trkpt>
      <trkpt lat="44.35529" lon="5.6175">
        <ele>795.9</ele>
        <time>2021-09-07T17:45:35Z</time>
      </trkpt>
      <trkpt lat="44.35528" lon="5.61749">
        <ele>795.9</ele>
        <time>2021-09-07T17:45:36Z</time>
      </trkpt>
      <trkpt lat="44.35528" lon="5.61749">
        <ele>795.9</ele>
        <time>2021-09-07T17:45:37Z</time>
      </trkpt>
      <trkpt lat="44.35528" lon="5.61749">
        <ele>795.9</ele>
        <time>2021-09-07T17:45:38Z</time>
      </trkpt>
      <trkpt lat="44.35528" lon="5.61749">
        <ele>795.9</ele>
        <time>2021-09-07T17:45:39Z</time>
      </trkpt>
      <trkpt lat="44.35528" lon="5.6175">
        <ele>795.9</ele>
        <time>2021-09-07T17:45:40Z</time>
      </trkpt>
      <trkpt lat="44.35528" lon="5.6175">
        <ele>795.9</ele>
        <time>2021-09-07T17:45:41Z</time>
      </trkpt>
      <trkpt lat="44.35528" lon="5.6175">
        <ele>795.9</ele>
        <time>2021-09-07T17:45:42Z</time>
      </trkpt>
      <trkpt lat="44.35528" lon="5.6175">
        <ele>795.9</ele>
        <time>2021-09-07T17:45:43Z</time>
      </trkpt>
      <trkpt lat="44.35528" lon="5.61751">
        <ele>795.9</ele>
        <time>2021-09-07T17:45:44Z</time>
      </trkpt>
      <trkpt lat="44.35528" lon="5.61751">
        <ele>795.9</ele>
        <time>2021-09-07T17:45:45Z</time>
      </trkpt>
      <trkpt lat="44.35528" lon="5.61751">
        <ele>795.9</ele>
        <time>2021-09-07T17:45:46Z</time>
      </trkpt>
      <trkpt lat="44.35529" lon="5.61751">
        <ele>796</ele>
        <time>2021-09-07T17:45:47Z</time>
      </trkpt>
      <trkpt lat="44.35529" lon="5.61751">
        <ele>796</ele>
        <time>2021-09-07T17:45:48Z</time>
      </trkpt>
      <trkpt lat="44.35529" lon="5.61751">
        <ele>796</ele>
        <time>2021-09-07T17:45:49Z</time>
      </trkpt>
      <trkpt lat="44.35529" lon="5.61751">
        <ele>796</ele>
        <time>2021-09-07T17:45:50Z</time>
      </trkpt>
      <trkpt lat="44.35528" lon="5.61751">
        <ele>796</ele>
        <time>2021-09-07T17:45:51Z</time>
      </trkpt>
      <trkpt lat="44.35528" lon="5.61751">
        <ele>796</ele>
        <time>2021-09-07T17:45:52Z</time>
      </trkpt>
      <trkpt lat="44.35528" lon="5.61751">
        <ele>796</ele>
        <time>2021-09-07T17:45:53Z</time>
      </trkpt>
      <trkpt lat="44.35528" lon="5.61751">
        <ele>796</ele>
        <time>2021-09-07T17:45:54Z</time>
      </trkpt>
      <trkpt lat="44.35528" lon="5.61751">
        <ele>796</ele>
        <time>2021-09-07T17:45:55Z</time>
      </trkpt>
      <trkpt lat="44.35528" lon="5.61752">
        <ele>796</ele>
        <time>2021-09-07T17:45:56Z</time>
      </trkpt>
      <trkpt lat="44.35528" lon="5.61752">
        <ele>796</ele>
        <time>2021-09-07T17:45:57Z</time>
      </trkpt>
      <trkpt lat="44.35528" lon="5.61752">
        <ele>796</ele>
        <time>2021-09-07T17:45:58Z</time>
      </trkpt>
      <trkpt lat="44.35528" lon="5.61752">
        <ele>796</ele>
        <time>2021-09-07T17:45:59Z</time>
      </trkpt>
      <trkpt lat="44.35528" lon="5.61751">
        <ele>796.1</ele>
        <time>2021-09-07T17:46:00Z</time>
      </trkpt>
      <trkpt lat="44.35528" lon="5.61751">
        <ele>796.1</ele>
        <time>2021-09-07T17:46:01Z</time>
      </trkpt>
      <trkpt lat="44.35528" lon="5.61751">
        <ele>796.1</ele>
        <time>2021-09-07T17:46:02Z</time>
      </trkpt>
      <trkpt lat="44.35528" lon="5.61751">
        <ele>796.1</ele>
        <time>2021-09-07T17:46:03Z</time>
      </trkpt>
      <trkpt lat="44.35528" lon="5.61751">
        <ele>796.1</ele>
        <time>2021-09-07T17:46:04Z</time>
      </trkpt>
      <trkpt lat="44.35527" lon="5.61751">
        <ele>796.1</ele>
        <time>2021-09-07T17:46:05Z</time>
      </trkpt>
      <trkpt lat="44.35526" lon="5.61751">
        <ele>796.1</ele>
        <time>2021-09-07T17:46:06Z</time>
      </trkpt>
      <trkpt lat="44.35524" lon="5.61751">
        <ele>796.2</ele>
        <time>2021-09-07T17:46:07Z</time>
      </trkpt>
      <trkpt lat="44.35523" lon="5.61751">
        <ele>796.2</ele>
        <time>2021-09-07T17:46:08Z</time>
      </trkpt>
      <trkpt lat="44.35522" lon="5.61751">
        <ele>796.3</ele>
        <time>2021-09-07T17:46:09Z</time>
      </trkpt>
      <trkpt lat="44.35521" lon="5.61751">
        <ele>796.3</ele>
        <time>2021-09-07T17:46:10Z</time>
      </trkpt>
      <trkpt lat="44.3552" lon="5.61751">
        <ele>796.3</ele>
        <time>2021-09-07T17:46:11Z</time>
      </trkpt>
      <trkpt lat="44.3552" lon="5.61751">
        <ele>796.3</ele>
        <time>2021-09-07T17:46:12Z</time>
      </trkpt>
      <trkpt lat="44.35519" lon="5.61751">
        <ele>796.4</ele>
        <time>2021-09-07T17:46:13Z</time>
      </trkpt>
      <trkpt lat="44.35518" lon="5.61751">
        <ele>796.4</ele>
        <time>2021-09-07T17:46:14Z</time>
      </trkpt>
      <trkpt lat="44.35518" lon="5.61751">
        <ele>796.4</ele>
        <time>2021-09-07T17:46:15Z</time>
      </trkpt>
      <trkpt lat="44.35517" lon="5.61751">
        <ele>796.5</ele>
        <time>2021-09-07T17:46:16Z</time>
      </trkpt>
      <trkpt lat="44.35515" lon="5.61749">
        <ele>796.5</ele>
        <time>2021-09-07T17:46:17Z</time>
      </trkpt>
      <trkpt lat="44.35513" lon="5.61747">
        <ele>796.6</ele>
        <time>2021-09-07T17:46:18Z</time>
      </trkpt>
      <trkpt lat="44.35512" lon="5.61746">
        <ele>796.7</ele>
        <time>2021-09-07T17:46:19Z</time>
      </trkpt>
      <trkpt lat="44.35511" lon="5.61745">
        <ele>796.7</ele>
        <time>2021-09-07T17:46:20Z</time>
      </trkpt>
      <trkpt lat="44.3551" lon="5.61744">
        <ele>796.8</ele>
        <time>2021-09-07T17:46:21Z</time>
      </trkpt>
      <trkpt lat="44.3551" lon="5.61744">
        <ele>796.8</ele>
        <time>2021-09-07T17:46:22Z</time>
      </trkpt>
      <trkpt lat="44.35509" lon="5.61744">
        <ele>796.8</ele>
        <time>2021-09-07T17:46:23Z</time>
      </trkpt>
      <trkpt lat="44.35509" lon="5.61744">
        <ele>796.8</ele>
        <time>2021-09-07T17:46:24Z</time>
      </trkpt>
      <trkpt lat="44.35509" lon="5.61744">
        <ele>796.8</ele>
        <time>2021-09-07T17:46:25Z</time>
      </trkpt>
      <trkpt lat="44.35508" lon="5.61744">
        <ele>796.9</ele>
        <time>2021-09-07T17:46:26Z</time>
      </trkpt>
      <trkpt lat="44.35508" lon="5.61744">
        <ele>796.9</ele>
        <time>2021-09-07T17:46:27Z</time>
      </trkpt>
      <trkpt lat="44.35507" lon="5.61744">
        <ele>796.9</ele>
        <time>2021-09-07T17:46:28Z</time>
      </trkpt>
      <trkpt lat="44.35507" lon="5.61744">
        <ele>796.9</ele>
        <time>2021-09-07T17:46:29Z</time>
      </trkpt>
      <trkpt lat="44.35506" lon="5.61744">
        <ele>796.9</ele>
        <time>2021-09-07T17:46:30Z</time>
      </trkpt>
      <trkpt lat="44.35506" lon="5.61744">
        <ele>797</ele>
        <time>2021-09-07T17:46:31Z</time>
      </trkpt>
      <trkpt lat="44.35505" lon="5.61744">
        <ele>797</ele>
        <time>2021-09-07T17:46:32Z</time>
      </trkpt>
      <trkpt lat="44.35504" lon="5.61743">
        <ele>797</ele>
        <time>2021-09-07T17:46:33Z</time>
      </trkpt>
      <trkpt lat="44.35503" lon="5.61743">
        <ele>797.1</ele>
        <time>2021-09-07T17:46:34Z</time>
      </trkpt>
      <trkpt lat="44.35503" lon="5.61743">
        <ele>797.1</ele>
        <time>2021-09-07T17:46:35Z</time>
      </trkpt>
      <trkpt lat="44.35502" lon="5.61743">
        <ele>797.1</ele>
        <time>2021-09-07T17:46:36Z</time>
      </trkpt>
      <trkpt lat="44.35502" lon="5.61743">
        <ele>797.1</ele>
        <time>2021-09-07T17:46:37Z</time>
      </trkpt>
      <trkpt lat="44.35501" lon="5.61742">
        <ele>797.2</ele>
        <time>2021-09-07T17:46:38Z</time>
      </trkpt>
      <trkpt lat="44.355" lon="5.61742">
        <ele>797.2</ele>
        <time>2021-09-07T17:46:39Z</time>
      </trkpt>
      <trkpt lat="44.355" lon="5.61742">
        <ele>797.2</ele>
        <time>2021-09-07T17:46:40Z</time>
      </trkpt>
      <trkpt lat="44.35499" lon="5.61742">
        <ele>797.2</ele>
        <time>2021-09-07T17:46:41Z</time>
      </trkpt>
      <trkpt lat="44.35497" lon="5.61742">
        <ele>797.3</ele>
        <time>2021-09-07T17:46:42Z</time>
      </trkpt>
      <trkpt lat="44.35495" lon="5.61742">
        <ele>797.4</ele>
        <time>2021-09-07T17:46:43Z</time>
      </trkpt>
      <trkpt lat="44.35492" lon="5.61742">
        <ele>797.5</ele>
        <time>2021-09-07T17:46:44Z</time>
      </trkpt>
      <trkpt lat="44.35489" lon="5.61742">
        <ele>797.7</ele>
        <time>2021-09-07T17:46:45Z</time>
      </trkpt>
      <trkpt lat="44.35486" lon="5.61742">
        <ele>797.8</ele>
        <time>2021-09-07T17:46:46Z</time>
      </trkpt>
      <trkpt lat="44.35481" lon="5.61742">
        <ele>798</ele>
        <time>2021-09-07T17:46:47Z</time>
      </trkpt>
      <trkpt lat="44.35479" lon="5.61742">
        <ele>798.1</ele>
        <time>2021-09-07T17:46:48Z</time>
      </trkpt>
      <trkpt lat="44.35477" lon="5.61742">
        <ele>798.2</ele>
        <time>2021-09-07T17:46:49Z</time>
      </trkpt>
      <trkpt lat="44.35476" lon="5.61742">
        <ele>798.3</ele>
        <time>2021-09-07T17:46:50Z</time>
      </trkpt>
      <trkpt lat="44.35474" lon="5.61742">
        <ele>798.4</ele>
        <time>2021-09-07T17:46:51Z</time>
      </trkpt>
      <trkpt lat="44.35473" lon="5.61743">
        <ele>798.5</ele>
        <time>2021-09-07T17:46:52Z</time>
      </trkpt>
      <trkpt lat="44.35472" lon="5.61743">
        <ele>798.5</ele>
        <time>2021-09-07T17:46:53Z</time>
      </trkpt>
      <trkpt lat="44.3547" lon="5.61744">
        <ele>798.6</ele>
        <time>2021-09-07T17:46:54Z</time>
      </trkpt>
      <trkpt lat="44.35469" lon="5.61746">
        <ele>798.7</ele>
        <time>2021-09-07T17:46:55Z</time>
      </trkpt>
      <trkpt lat="44.35468" lon="5.61747">
        <ele>798.8</ele>
        <time>2021-09-07T17:46:56Z</time>
      </trkpt>
      <trkpt lat="44.35468" lon="5.61748">
        <ele>798.8</ele>
        <time>2021-09-07T17:46:57Z</time>
      </trkpt>
      <trkpt lat="44.35468" lon="5.61749">
        <ele>798.9</ele>
        <time>2021-09-07T17:46:58Z</time>
      </trkpt>
      <trkpt lat="44.35468" lon="5.6175">
        <ele>798.9</ele>
        <time>2021-09-07T17:46:59Z</time>
      </trkpt>
      <trkpt lat="44.35468" lon="5.6175">
        <ele>798.9</ele>
        <time>2021-09-07T17:47:00Z</time>
      </trkpt>
      <trkpt lat="44.35469" lon="5.61749">
        <ele>799</ele>
        <time>2021-09-07T17:47:01Z</time>
      </trkpt>
      <trkpt lat="44.3547" lon="5.61748">
        <ele>799</ele>
        <time>2021-09-07T17:47:02Z</time>
      </trkpt>
      <trkpt lat="44.35473" lon="5.61746">
        <ele>799.2</ele>
        <time>2021-09-07T17:47:03Z</time>
      </trkpt>
      <trkpt lat="44.35475" lon="5.61744">
        <ele>799.4</ele>
        <time>2021-09-07T17:47:04Z</time>
      </trkpt>
      <trkpt lat="44.35478" lon="5.61742">
        <ele>799.6</ele>
        <time>2021-09-07T17:47:05Z</time>
      </trkpt>
      <trkpt lat="44.35481" lon="5.6174">
        <ele>799.8</ele>
        <time>2021-09-07T17:47:06Z</time>
      </trkpt>
      <trkpt lat="44.35479" lon="5.61739">
        <ele>799.9</ele>
        <time>2021-09-07T17:47:07Z</time>
      </trkpt>
      <trkpt lat="44.35479" lon="5.61738">
        <ele>800</ele>
        <time>2021-09-07T17:47:08Z</time>
      </trkpt>
      <trkpt lat="44.35478" lon="5.61737">
        <ele>800.1</ele>
        <time>2021-09-07T17:47:09Z</time>
      </trkpt>
      <trkpt lat="44.35478" lon="5.61736">
        <ele>800.1</ele>
        <time>2021-09-07T17:47:10Z</time>
      </trkpt>
      <trkpt lat="44.35479" lon="5.61735">
        <ele>800.2</ele>
        <time>2021-09-07T17:47:11Z</time>
      </trkpt>
      <trkpt lat="44.3548" lon="5.61734">
        <ele>800.3</ele>
        <time>2021-09-07T17:47:12Z</time>
      </trkpt>
      <trkpt lat="44.35481" lon="5.61734">
        <ele>800.3</ele>
        <time>2021-09-07T17:47:13Z</time>
      </trkpt>
      <trkpt lat="44.35481" lon="5.61733">
        <ele>800.4</ele>
        <time>2021-09-07T17:47:14Z</time>
      </trkpt>
      <trkpt lat="44.35482" lon="5.61731">
        <ele>800.5</ele>
        <time>2021-09-07T17:47:15Z</time>
      </trkpt>
      <trkpt lat="44.35484" lon="5.61728">
        <ele>800.8</ele>
        <time>2021-09-07T17:47:16Z</time>
      </trkpt>
      <trkpt lat="44.35485" lon="5.61727">
        <ele>800.9</ele>
        <time>2021-09-07T17:47:17Z</time>
      </trkpt>
      <trkpt lat="44.35486" lon="5.61726">
        <ele>801</ele>
        <time>2021-09-07T17:47:18Z</time>
      </trkpt>
      <trkpt lat="44.35487" lon="5.61725">
        <ele>801.1</ele>
        <time>2021-09-07T17:47:19Z</time>
      </trkpt>
      <trkpt lat="44.35488" lon="5.61724">
        <ele>801.2</ele>
        <time>2021-09-07T17:47:20Z</time>
      </trkpt>
      <trkpt lat="44.35489" lon="5.61723">
        <ele>801.3</ele>
        <time>2021-09-07T17:47:21Z</time>
      </trkpt>
      <trkpt lat="44.3549" lon="5.61723">
        <ele>801.4</ele>
        <time>2021-09-07T17:47:22Z</time>
      </trkpt>
      <trkpt lat="44.3549" lon="5.61722">
        <ele>801.4</ele>
        <time>2021-09-07T17:47:23Z</time>
      </trkpt>
      <trkpt lat="44.3549" lon="5.61722">
        <ele>801.4</ele>
        <time>2021-09-07T17:47:24Z</time>
      </trkpt>
      <trkpt lat="44.3549" lon="5.61722">
        <ele>801.4</ele>
        <time>2021-09-07T17:47:25Z</time>
      </trkpt>
      <trkpt lat="44.3549" lon="5.61722">
        <ele>801.4</ele>
        <time>2021-09-07T17:47:26Z</time>
      </trkpt>
      <trkpt lat="44.35491" lon="5.61722">
        <ele>801.5</ele>
        <time>2021-09-07T17:47:27Z</time>
      </trkpt>
      <trkpt lat="44.35491" lon="5.61722">
        <ele>801.5</ele>
        <time>2021-09-07T17:47:28Z</time>
      </trkpt>
      <trkpt lat="44.35491" lon="5.61722">
        <ele>801.5</ele>
        <time>2021-09-07T17:47:29Z</time>
      </trkpt>
      <trkpt lat="44.35491" lon="5.61721">
        <ele>801.6</ele>
        <time>2021-09-07T17:47:30Z</time>
      </trkpt>
      <trkpt lat="44.35492" lon="5.61721">
        <ele>801.7</ele>
        <time>2021-09-07T17:47:31Z</time>
      </trkpt>
      <trkpt lat="44.35494" lon="5.61721">
        <ele>801.9</ele>
        <time>2021-09-07T17:47:32Z</time>
      </trkpt>
      <trkpt lat="44.35498" lon="5.61721">
        <ele>802.2</ele>
        <time>2021-09-07T17:47:33Z</time>
      </trkpt>
      <trkpt lat="44.355" lon="5.61721">
        <ele>802.4</ele>
        <time>2021-09-07T17:47:34Z</time>
      </trkpt>
      <trkpt lat="44.35502" lon="5.6172">
        <ele>802.6</ele>
        <time>2021-09-07T17:47:35Z</time>
      </trkpt>
      <trkpt lat="44.35504" lon="5.6172">
        <ele>802.7</ele>
        <time>2021-09-07T17:47:36Z</time>
      </trkpt>
      <trkpt lat="44.35506" lon="5.6172">
        <ele>802.9</ele>
        <time>2021-09-07T17:47:37Z</time>
      </trkpt>
      <trkpt lat="44.35508" lon="5.61719">
        <ele>803.1</ele>
        <time>2021-09-07T17:47:38Z</time>
      </trkpt>
      <trkpt lat="44.3551" lon="5.61719">
        <ele>803.3</ele>
        <time>2021-09-07T17:47:39Z</time>
      </trkpt>
      <trkpt lat="44.35512" lon="5.61719">
        <ele>803.5</ele>
        <time>2021-09-07T17:47:40Z</time>
      </trkpt>
      <trkpt lat="44.35521" lon="5.61718">
        <ele>804.4</ele>
        <time>2021-09-07T17:47:41Z</time>
      </trkpt>
      <trkpt lat="44.35527" lon="5.61716">
        <ele>804.9</ele>
        <time>2021-09-07T17:47:42Z</time>
      </trkpt>
      <trkpt lat="44.35528" lon="5.61715">
        <ele>805</ele>
        <time>2021-09-07T17:47:43Z</time>
      </trkpt>
      <trkpt lat="44.35528" lon="5.61713">
        <ele>805.1</ele>
        <time>2021-09-07T17:47:44Z</time>
      </trkpt>
      <trkpt lat="44.35528" lon="5.61711">
        <ele>805.3</ele>
        <time>2021-09-07T17:47:45Z</time>
      </trkpt>
      <trkpt lat="44.35528" lon="5.61708">
        <ele>805.5</ele>
        <time>2021-09-07T17:47:46Z</time>
      </trkpt>
      <trkpt lat="44.35528" lon="5.61707">
        <ele>805.5</ele>
        <time>2021-09-07T17:47:47Z</time>
      </trkpt>
      <trkpt lat="44.35528" lon="5.61706">
        <ele>805.6</ele>
        <time>2021-09-07T17:47:48Z</time>
      </trkpt>
      <trkpt lat="44.35526" lon="5.61705">
        <ele>805.8</ele>
        <time>2021-09-07T17:47:49Z</time>
      </trkpt>
      <trkpt lat="44.35525" lon="5.61703">
        <ele>805.9</ele>
        <time>2021-09-07T17:47:50Z</time>
      </trkpt>
      <trkpt lat="44.35523" lon="5.61699">
        <ele>806.2</ele>
        <time>2021-09-07T17:47:51Z</time>
      </trkpt>
      <trkpt lat="44.35521" lon="5.61697">
        <ele>806.4</ele>
        <time>2021-09-07T17:47:52Z</time>
      </trkpt>
      <trkpt lat="44.3552" lon="5.61696">
        <ele>806.5</ele>
        <time>2021-09-07T17:47:53Z</time>
      </trkpt>
      <trkpt lat="44.35519" lon="5.61694">
        <ele>806.7</ele>
        <time>2021-09-07T17:47:54Z</time>
      </trkpt>
      <trkpt lat="44.35518" lon="5.61692">
        <ele>806.8</ele>
        <time>2021-09-07T17:47:55Z</time>
      </trkpt>
      <trkpt lat="44.35517" lon="5.61689">
        <ele>807</ele>
        <time>2021-09-07T17:47:56Z</time>
      </trkpt>
      <trkpt lat="44.35516" lon="5.61685">
        <ele>807.2</ele>
        <time>2021-09-07T17:47:57Z</time>
      </trkpt>
      <trkpt lat="44.35516" lon="5.61682">
        <ele>807.4</ele>
        <time>2021-09-07T17:47:58Z</time>
      </trkpt>
      <trkpt lat="44.35514" lon="5.61677">
        <ele>807.8</ele>
        <time>2021-09-07T17:47:59Z</time>
      </trkpt>
      <trkpt lat="44.35513" lon="5.61674">
        <ele>808</ele>
        <time>2021-09-07T17:48:00Z</time>
      </trkpt>
      <trkpt lat="44.35512" lon="5.6167">
        <ele>808.2</ele>
        <time>2021-09-07T17:48:01Z</time>
      </trkpt>
      <trkpt lat="44.3551" lon="5.61667">
        <ele>808.4</ele>
        <time>2021-09-07T17:48:02Z</time>
      </trkpt>
      <trkpt lat="44.35509" lon="5.61665">
        <ele>808.5</ele>
        <time>2021-09-07T17:48:03Z</time>
      </trkpt>
      <trkpt lat="44.35508" lon="5.61663">
        <ele>808.7</ele>
        <time>2021-09-07T17:48:04Z</time>
      </trkpt>
      <trkpt lat="44.35507" lon="5.61661">
        <ele>808.8</ele>
        <time>2021-09-07T17:48:05Z</time>
      </trkpt>
      <trkpt lat="44.35507" lon="5.61659">
        <ele>808.9</ele>
        <time>2021-09-07T17:48:06Z</time>
      </trkpt>
      <trkpt lat="44.35508" lon="5.61657">
        <ele>809.1</ele>
        <time>2021-09-07T17:48:07Z</time>
      </trkpt>
      <trkpt lat="44.35509" lon="5.61657">
        <ele>809.1</ele>
        <time>2021-09-07T17:48:08Z</time>
      </trkpt>
      <trkpt lat="44.35509" lon="5.61656">
        <ele>809.2</ele>
        <time>2021-09-07T17:48:09Z</time>
      </trkpt>
      <trkpt lat="44.35509" lon="5.61656">
        <ele>809.2</ele>
        <time>2021-09-07T17:48:10Z</time>
      </trkpt>
      <trkpt lat="44.35509" lon="5.61656">
        <ele>809.2</ele>
        <time>2021-09-07T17:48:11Z</time>
      </trkpt>
      <trkpt lat="44.35509" lon="5.61655">
        <ele>809.2</ele>
        <time>2021-09-07T17:48:12Z</time>
      </trkpt>
      <trkpt lat="44.35509" lon="5.61652">
        <ele>809.4</ele>
        <time>2021-09-07T17:48:13Z</time>
      </trkpt>
      <trkpt lat="44.35509" lon="5.61649">
        <ele>809.5</ele>
        <time>2021-09-07T17:48:14Z</time>
      </trkpt>
      <trkpt lat="44.3551" lon="5.61648">
        <ele>809.6</ele>
        <time>2021-09-07T17:48:15Z</time>
      </trkpt>
      <trkpt lat="44.3551" lon="5.61646">
        <ele>809.7</ele>
        <time>2021-09-07T17:48:16Z</time>
      </trkpt>
      <trkpt lat="44.35512" lon="5.61644">
        <ele>809.9</ele>
        <time>2021-09-07T17:48:17Z</time>
      </trkpt>
      <trkpt lat="44.35514" lon="5.61642">
        <ele>810.1</ele>
        <time>2021-09-07T17:48:18Z</time>
      </trkpt>
      <trkpt lat="44.35518" lon="5.61639">
        <ele>810.4</ele>
        <time>2021-09-07T17:48:19Z</time>
      </trkpt>
      <trkpt lat="44.3552" lon="5.61638">
        <ele>810.5</ele>
        <time>2021-09-07T17:48:20Z</time>
      </trkpt>
      <trkpt lat="44.35524" lon="5.61635">
        <ele>810.9</ele>
        <time>2021-09-07T17:48:21Z</time>
      </trkpt>
      <trkpt lat="44.35526" lon="5.61635">
        <ele>811</ele>
        <time>2021-09-07T17:48:22Z</time>
      </trkpt>
      <trkpt lat="44.35528" lon="5.61634">
        <ele>811.2</ele>
        <time>2021-09-07T17:48:23Z</time>
      </trkpt>
      <trkpt lat="44.35528" lon="5.61633">
        <ele>811.2</ele>
        <time>2021-09-07T17:48:24Z</time>
      </trkpt>
      <trkpt lat="44.35528" lon="5.61633">
        <ele>811.2</ele>
        <time>2021-09-07T17:48:25Z</time>
      </trkpt>
      <trkpt lat="44.35528" lon="5.61632">
        <ele>811.3</ele>
        <time>2021-09-07T17:48:26Z</time>
      </trkpt>
      <trkpt lat="44.35529" lon="5.61632">
        <ele>811.3</ele>
        <time>2021-09-07T17:48:27Z</time>
      </trkpt>
      <trkpt lat="44.35529" lon="5.61632">
        <ele>811.3</ele>
        <time>2021-09-07T17:48:28Z</time>
      </trkpt>
      <trkpt lat="44.35529" lon="5.61631">
        <ele>811.4</ele>
        <time>2021-09-07T17:48:29Z</time>
      </trkpt>
      <trkpt lat="44.35529" lon="5.6163">
        <ele>811.4</ele>
        <time>2021-09-07T17:48:30Z</time>
      </trkpt>
      <trkpt lat="44.35529" lon="5.61629">
        <ele>811.5</ele>
        <time>2021-09-07T17:48:31Z</time>
      </trkpt>
      <trkpt lat="44.35529" lon="5.61629">
        <ele>811.5</ele>
        <time>2021-09-07T17:48:32Z</time>
      </trkpt>
      <trkpt lat="44.35529" lon="5.61627">
        <ele>811.6</ele>
        <time>2021-09-07T17:48:33Z</time>
      </trkpt>
      <trkpt lat="44.3553" lon="5.61626">
        <ele>811.6</ele>
        <time>2021-09-07T17:48:34Z</time>
      </trkpt>
      <trkpt lat="44.3553" lon="5.61625">
        <ele>811.7</ele>
        <time>2021-09-07T17:48:35Z</time>
      </trkpt>
      <trkpt lat="44.35531" lon="5.61624">
        <ele>811.8</ele>
        <time>2021-09-07T17:48:36Z</time>
      </trkpt>
      <trkpt lat="44.35531" lon="5.61623">
        <ele>811.8</ele>
        <time>2021-09-07T17:48:37Z</time>
      </trkpt>
      <trkpt lat="44.35531" lon="5.61621">
        <ele>811.9</ele>
        <time>2021-09-07T17:48:38Z</time>
      </trkpt>
      <trkpt lat="44.35532" lon="5.6162">
        <ele>812</ele>
        <time>2021-09-07T17:48:39Z</time>
      </trkpt>
      <trkpt lat="44.35532" lon="5.61618">
        <ele>812.1</ele>
        <time>2021-09-07T17:48:40Z</time>
      </trkpt>
      <trkpt lat="44.35533" lon="5.61617">
        <ele>812.2</ele>
        <time>2021-09-07T17:48:41Z</time>
      </trkpt>
      <trkpt lat="44.35533" lon="5.61616">
        <ele>812.2</ele>
        <time>2021-09-07T17:48:42Z</time>
      </trkpt>
      <trkpt lat="44.35534" lon="5.61614">
        <ele>812.3</ele>
        <time>2021-09-07T17:48:43Z</time>
      </trkpt>
      <trkpt lat="44.35534" lon="5.61613">
        <ele>812.4</ele>
        <time>2021-09-07T17:48:44Z</time>
      </trkpt>
      <trkpt lat="44.35534" lon="5.61611">
        <ele>812.5</ele>
        <time>2021-09-07T17:48:45Z</time>
      </trkpt>
      <trkpt lat="44.35535" lon="5.61608">
        <ele>812.6</ele>
        <time>2021-09-07T17:48:46Z</time>
      </trkpt>
      <trkpt lat="44.35535" lon="5.61605">
        <ele>812.8</ele>
        <time>2021-09-07T17:48:47Z</time>
      </trkpt>
      <trkpt lat="44.35535" lon="5.61604">
        <ele>812.8</ele>
        <time>2021-09-07T17:48:48Z</time>
      </trkpt>
      <trkpt lat="44.35535" lon="5.61603">
        <ele>812.9</ele>
        <time>2021-09-07T17:48:49Z</time>
      </trkpt>
      <trkpt lat="44.35535" lon="5.61602">
        <ele>812.9</ele>
        <time>2021-09-07T17:48:50Z</time>
      </trkpt>
      <trkpt lat="44.35534" lon="5.616">
        <ele>813</ele>
        <time>2021-09-07T17:48:51Z</time>
      </trkpt>
      <trkpt lat="44.35533" lon="5.61596">
        <ele>813.2</ele>
        <time>2021-09-07T17:48:52Z</time>
      </trkpt>
      <trkpt lat="44.35533" lon="5.61595">
        <ele>813.3</ele>
        <time>2021-09-07T17:48:53Z</time>
      </trkpt>
      <trkpt lat="44.35532" lon="5.61594">
        <ele>813.4</ele>
        <time>2021-09-07T17:48:54Z</time>
      </trkpt>
      <trkpt lat="44.35532" lon="5.61594">
        <ele>813.4</ele>
        <time>2021-09-07T17:48:55Z</time>
      </trkpt>
      <trkpt lat="44.35532" lon="5.61593">
        <ele>813.4</ele>
        <time>2021-09-07T17:48:56Z</time>
      </trkpt>
      <trkpt lat="44.35532" lon="5.61593">
        <ele>813.4</ele>
        <time>2021-09-07T17:48:57Z</time>
      </trkpt>
      <trkpt lat="44.35532" lon="5.61593">
        <ele>813.4</ele>
        <time>2021-09-07T17:48:58Z</time>
      </trkpt>
      <trkpt lat="44.35532" lon="5.61592">
        <ele>813.5</ele>
        <time>2021-09-07T17:48:59Z</time>
      </trkpt>
      <trkpt lat="44.35532" lon="5.61592">
        <ele>813.5</ele>
        <time>2021-09-07T17:49:00Z</time>
      </trkpt>
      <trkpt lat="44.35532" lon="5.61592">
        <ele>813.5</ele>
        <time>2021-09-07T17:49:01Z</time>
      </trkpt>
      <trkpt lat="44.35532" lon="5.61592">
        <ele>813.5</ele>
        <time>2021-09-07T17:49:02Z</time>
      </trkpt>
      <trkpt lat="44.35532" lon="5.61592">
        <ele>813.5</ele>
        <time>2021-09-07T17:49:03Z</time>
      </trkpt>
      <trkpt lat="44.35532" lon="5.61591">
        <ele>813.5</ele>
        <time>2021-09-07T17:49:04Z</time>
      </trkpt>
      <trkpt lat="44.35532" lon="5.61591">
        <ele>813.5</ele>
        <time>2021-09-07T17:49:05Z</time>
      </trkpt>
      <trkpt lat="44.35532" lon="5.61591">
        <ele>813.5</ele>
        <time>2021-09-07T17:49:06Z</time>
      </trkpt>
      <trkpt lat="44.35532" lon="5.61591">
        <ele>813.5</ele>
        <time>2021-09-07T17:49:07Z</time>
      </trkpt>
      <trkpt lat="44.35532" lon="5.61591">
        <ele>813.6</ele>
        <time>2021-09-07T17:49:08Z</time>
      </trkpt>
      <trkpt lat="44.35532" lon="5.6159">
        <ele>813.6</ele>
        <time>2021-09-07T17:49:09Z</time>
      </trkpt>
      <trkpt lat="44.35532" lon="5.6159">
        <ele>813.6</ele>
        <time>2021-09-07T17:49:10Z</time>
      </trkpt>
      <trkpt lat="44.35532" lon="5.61589">
        <ele>813.6</ele>
        <time>2021-09-07T17:49:11Z</time>
      </trkpt>
      <trkpt lat="44.35532" lon="5.61589">
        <ele>813.6</ele>
        <time>2021-09-07T17:49:12Z</time>
      </trkpt>
      <trkpt lat="44.35532" lon="5.61588">
        <ele>813.7</ele>
        <time>2021-09-07T17:49:13Z</time>
      </trkpt>
      <trkpt lat="44.35532" lon="5.61588">
        <ele>813.7</ele>
        <time>2021-09-07T17:49:14Z</time>
      </trkpt>
      <trkpt lat="44.35532" lon="5.61588">
        <ele>813.7</ele>
        <time>2021-09-07T17:49:15Z</time>
      </trkpt>
      <trkpt lat="44.35531" lon="5.61588">
        <ele>813.7</ele>
        <time>2021-09-07T17:49:16Z</time>
      </trkpt>
      <trkpt lat="44.3553" lon="5.61589">
        <ele>813.9</ele>
        <time>2021-09-07T17:49:17Z</time>
      </trkpt>
      <trkpt lat="44.35528" lon="5.6159">
        <ele>814</ele>
        <time>2021-09-07T17:49:18Z</time>
      </trkpt>
      <trkpt lat="44.35525" lon="5.61591">
        <ele>814.2</ele>
        <time>2021-09-07T17:49:19Z</time>
      </trkpt>
      <trkpt lat="44.35525" lon="5.61591">
        <ele>814.2</ele>
        <time>2021-09-07T17:49:20Z</time>
      </trkpt>
      <trkpt lat="44.35525" lon="5.61592">
        <ele>814.3</ele>
        <time>2021-09-07T17:49:21Z</time>
      </trkpt>
      <trkpt lat="44.35524" lon="5.61592">
        <ele>814.3</ele>
        <time>2021-09-07T17:49:22Z</time>
      </trkpt>
      <trkpt lat="44.35523" lon="5.61593">
        <ele>814.4</ele>
        <time>2021-09-07T17:49:23Z</time>
      </trkpt>
      <trkpt lat="44.35523" lon="5.61593">
        <ele>814.4</ele>
        <time>2021-09-07T17:49:24Z</time>
      </trkpt>
      <trkpt lat="44.35521" lon="5.61594">
        <ele>814.6</ele>
        <time>2021-09-07T17:49:25Z</time>
      </trkpt>
      <trkpt lat="44.3552" lon="5.61595">
        <ele>814.7</ele>
        <time>2021-09-07T17:49:26Z</time>
      </trkpt>
      <trkpt lat="44.35518" lon="5.61596">
        <ele>814.8</ele>
        <time>2021-09-07T17:49:27Z</time>
      </trkpt>
      <trkpt lat="44.35517" lon="5.61597">
        <ele>814.9</ele>
        <time>2021-09-07T17:49:28Z</time>
      </trkpt>
      <trkpt lat="44.35516" lon="5.61598">
        <ele>815</ele>
        <time>2021-09-07T17:49:29Z</time>
      </trkpt>
      <trkpt lat="44.35515" lon="5.61598">
        <ele>815</ele>
        <time>2021-09-07T17:49:30Z</time>
      </trkpt>
      <trkpt lat="44.35512" lon="5.61597">
        <ele>815.3</ele>
        <time>2021-09-07T17:49:31Z</time>
      </trkpt>
      <trkpt lat="44.35508" lon="5.61595">
        <ele>815.6</ele>
        <time>2021-09-07T17:49:32Z</time>
      </trkpt>
      <trkpt lat="44.35506" lon="5.61595">
        <ele>815.7</ele>
        <time>2021-09-07T17:49:33Z</time>
      </trkpt>
      <trkpt lat="44.35504" lon="5.61595">
        <ele>815.9</ele>
        <time>2021-09-07T17:49:34Z</time>
      </trkpt>
      <trkpt lat="44.35502" lon="5.61595">
        <ele>816.1</ele>
        <time>2021-09-07T17:49:35Z</time>
      </trkpt>
      <trkpt lat="44.35499" lon="5.61594">
        <ele>816.3</ele>
        <time>2021-09-07T17:49:36Z</time>
      </trkpt>
      <trkpt lat="44.35496" lon="5.61592">
        <ele>816.5</ele>
        <time>2021-09-07T17:49:37Z</time>
      </trkpt>
      <trkpt lat="44.35496" lon="5.61592">
        <ele>816.6</ele>
        <time>2021-09-07T17:49:38Z</time>
      </trkpt>
      <trkpt lat="44.35495" lon="5.61591">
        <ele>816.6</ele>
        <time>2021-09-07T17:49:39Z</time>
      </trkpt>
      <trkpt lat="44.35495" lon="5.61591">
        <ele>816.6</ele>
        <time>2021-09-07T17:49:40Z</time>
      </trkpt>
      <trkpt lat="44.35495" lon="5.61591">
        <ele>816.6</ele>
        <time>2021-09-07T17:49:41Z</time>
      </trkpt>
      <trkpt lat="44.35495" lon="5.61592">
        <ele>816.7</ele>
        <time>2021-09-07T17:49:42Z</time>
      </trkpt>
      <trkpt lat="44.35494" lon="5.61592">
        <ele>816.7</ele>
        <time>2021-09-07T17:49:43Z</time>
      </trkpt>
      <trkpt lat="44.35494" lon="5.61592">
        <ele>816.7</ele>
        <time>2021-09-07T17:49:44Z</time>
      </trkpt>
      <trkpt lat="44.35494" lon="5.61593">
        <ele>816.7</ele>
        <time>2021-09-07T17:49:45Z</time>
      </trkpt>
      <trkpt lat="44.35494" lon="5.61593">
        <ele>816.8</ele>
        <time>2021-09-07T17:49:46Z</time>
      </trkpt>
      <trkpt lat="44.35494" lon="5.61593">
        <ele>816.8</ele>
        <time>2021-09-07T17:49:47Z</time>
      </trkpt>
      <trkpt lat="44.35494" lon="5.61593">
        <ele>816.8</ele>
        <time>2021-09-07T17:49:48Z</time>
      </trkpt>
      <trkpt lat="44.35493" lon="5.61593">
        <ele>816.8</ele>
        <time>2021-09-07T17:49:49Z</time>
      </trkpt>
      <trkpt lat="44.35493" lon="5.61593">
        <ele>816.8</ele>
        <time>2021-09-07T17:49:50Z</time>
      </trkpt>
      <trkpt lat="44.35493" lon="5.61594">
        <ele>816.9</ele>
        <time>2021-09-07T17:49:51Z</time>
      </trkpt>
      <trkpt lat="44.35493" lon="5.61594">
        <ele>816.9</ele>
        <time>2021-09-07T17:49:52Z</time>
      </trkpt>
      <trkpt lat="44.35493" lon="5.61594">
        <ele>816.9</ele>
        <time>2021-09-07T17:49:53Z</time>
      </trkpt>
      <trkpt lat="44.35493" lon="5.61594">
        <ele>816.9</ele>
        <time>2021-09-07T17:49:54Z</time>
      </trkpt>
      <trkpt lat="44.35493" lon="5.61594">
        <ele>816.9</ele>
        <time>2021-09-07T17:49:55Z</time>
      </trkpt>
      <trkpt lat="44.35492" lon="5.61594">
        <ele>817</ele>
        <time>2021-09-07T17:49:56Z</time>
      </trkpt>
      <trkpt lat="44.35491" lon="5.61594">
        <ele>817.1</ele>
        <time>2021-09-07T17:49:57Z</time>
      </trkpt>
      <trkpt lat="44.35491" lon="5.61594">
        <ele>817.1</ele>
        <time>2021-09-07T17:49:58Z</time>
      </trkpt>
      <trkpt lat="44.3549" lon="5.61594">
        <ele>817.1</ele>
        <time>2021-09-07T17:49:59Z</time>
      </trkpt>
      <trkpt lat="44.35489" lon="5.61593">
        <ele>817.2</ele>
        <time>2021-09-07T17:50:00Z</time>
      </trkpt>
      <trkpt lat="44.35488" lon="5.61593">
        <ele>817.3</ele>
        <time>2021-09-07T17:50:01Z</time>
      </trkpt>
      <trkpt lat="44.35487" lon="5.61593">
        <ele>817.4</ele>
        <time>2021-09-07T17:50:02Z</time>
      </trkpt>
      <trkpt lat="44.35486" lon="5.61592">
        <ele>817.5</ele>
        <time>2021-09-07T17:50:03Z</time>
      </trkpt>
      <trkpt lat="44.35486" lon="5.61592">
        <ele>817.5</ele>
        <time>2021-09-07T17:50:04Z</time>
      </trkpt>
      <trkpt lat="44.35485" lon="5.61591">
        <ele>817.6</ele>
        <time>2021-09-07T17:50:05Z</time>
      </trkpt>
      <trkpt lat="44.35481" lon="5.6159">
        <ele>817.9</ele>
        <time>2021-09-07T17:50:06Z</time>
      </trkpt>
      <trkpt lat="44.35479" lon="5.61589">
        <ele>818.1</ele>
        <time>2021-09-07T17:50:07Z</time>
      </trkpt>
      <trkpt lat="44.35476" lon="5.61588">
        <ele>818.3</ele>
        <time>2021-09-07T17:50:08Z</time>
      </trkpt>
      <trkpt lat="44.35475" lon="5.61588">
        <ele>818.4</ele>
        <time>2021-09-07T17:50:09Z</time>
      </trkpt>
      <trkpt lat="44.35473" lon="5.61587">
        <ele>818.5</ele>
        <time>2021-09-07T17:50:10Z</time>
      </trkpt>
      <trkpt lat="44.35471" lon="5.61587">
        <ele>818.7</ele>
        <time>2021-09-07T17:50:11Z</time>
      </trkpt>
      <trkpt lat="44.3547" lon="5.61586">
        <ele>818.7</ele>
        <time>2021-09-07T17:50:12Z</time>
      </trkpt>
      <trkpt lat="44.35468" lon="5.61586">
        <ele>818.9</ele>
        <time>2021-09-07T17:50:13Z</time>
      </trkpt>
      <trkpt lat="44.35465" lon="5.61586">
        <ele>819.1</ele>
        <time>2021-09-07T17:50:14Z</time>
      </trkpt>
      <trkpt lat="44.35465" lon="5.61586">
        <ele>819.2</ele>
        <time>2021-09-07T17:50:15Z</time>
      </trkpt>
      <trkpt lat="44.35464" lon="5.61586">
        <ele>819.2</ele>
        <time>2021-09-07T17:50:16Z</time>
      </trkpt>
      <trkpt lat="44.35464" lon="5.61586">
        <ele>819.2</ele>
        <time>2021-09-07T17:50:17Z</time>
      </trkpt>
      <trkpt lat="44.35464" lon="5.61587">
        <ele>819.3</ele>
        <time>2021-09-07T17:50:18Z</time>
      </trkpt>
      <trkpt lat="44.35464" lon="5.61587">
        <ele>819.3</ele>
        <time>2021-09-07T17:50:19Z</time>
      </trkpt>
      <trkpt lat="44.35464" lon="5.61587">
        <ele>819.3</ele>
        <time>2021-09-07T17:50:20Z</time>
      </trkpt>
      <trkpt lat="44.35464" lon="5.61587">
        <ele>819.3</ele>
        <time>2021-09-07T17:50:21Z</time>
      </trkpt>
      <trkpt lat="44.35464" lon="5.61587">
        <ele>819.3</ele>
        <time>2021-09-07T17:50:22Z</time>
      </trkpt>
      <trkpt lat="44.35464" lon="5.61587">
        <ele>819.3</ele>
        <time>2021-09-07T17:50:23Z</time>
      </trkpt>
      <trkpt lat="44.35464" lon="5.61587">
        <ele>819.3</ele>
        <time>2021-09-07T17:50:24Z</time>
      </trkpt>
      <trkpt lat="44.35464" lon="5.61587">
        <ele>819.3</ele>
        <time>2021-09-07T17:50:25Z</time>
      </trkpt>
      <trkpt lat="44.35464" lon="5.61587">
        <ele>819.3</ele>
        <time>2021-09-07T17:50:26Z</time>
      </trkpt>
      <trkpt lat="44.35463" lon="5.61586">
        <ele>819.3</ele>
        <time>2021-09-07T17:50:27Z</time>
      </trkpt>
      <trkpt lat="44.35462" lon="5.61586">
        <ele>819.5</ele>
        <time>2021-09-07T17:50:28Z</time>
      </trkpt>
      <trkpt lat="44.3546" lon="5.61585">
        <ele>820.2</ele>
        <time>2021-09-07T17:50:29Z</time>
      </trkpt>
      <trkpt lat="44.35458" lon="5.61584">
        <ele>820.2</ele>
        <time>2021-09-07T17:50:30Z</time>
      </trkpt>
      <trkpt lat="44.35457" lon="5.61584">
        <ele>820.9</ele>
        <time>2021-09-07T17:50:31Z</time>
      </trkpt>
      <trkpt lat="44.35456" lon="5.61583">
        <ele>821</ele>
        <time>2021-09-07T17:50:32Z</time>
      </trkpt>
      <trkpt lat="44.35454" lon="5.61583">
        <ele>821.7</ele>
        <time>2021-09-07T17:50:33Z</time>
      </trkpt>
      <trkpt lat="44.35453" lon="5.61583">
        <ele>821.7</ele>
        <time>2021-09-07T17:50:34Z</time>
      </trkpt>
      <trkpt lat="44.35452" lon="5.61582">
        <ele>821.8</ele>
        <time>2021-09-07T17:50:35Z</time>
      </trkpt>
      <trkpt lat="44.35449" lon="5.61582">
        <ele>822.5</ele>
        <time>2021-09-07T17:50:36Z</time>
      </trkpt>
      <trkpt lat="44.35447" lon="5.61582">
        <ele>823.1</ele>
        <time>2021-09-07T17:50:37Z</time>
      </trkpt>
      <trkpt lat="44.35445" lon="5.61581">
        <ele>823.2</ele>
        <time>2021-09-07T17:50:38Z</time>
      </trkpt>
      <trkpt lat="44.35443" lon="5.61581">
        <ele>824</ele>
        <time>2021-09-07T17:50:39Z</time>
      </trkpt>
      <trkpt lat="44.35441" lon="5.61581">
        <ele>825</ele>
        <time>2021-09-07T17:50:40Z</time>
      </trkpt>
      <trkpt lat="44.3544" lon="5.61581">
        <ele>825</ele>
        <time>2021-09-07T17:50:41Z</time>
      </trkpt>
      <trkpt lat="44.35439" lon="5.6158">
        <ele>825</ele>
        <time>2021-09-07T17:50:42Z</time>
      </trkpt>
      <trkpt lat="44.35438" lon="5.6158">
        <ele>825.9</ele>
        <time>2021-09-07T17:50:43Z</time>
      </trkpt>
      <trkpt lat="44.35438" lon="5.6158">
        <ele>825.9</ele>
        <time>2021-09-07T17:50:44Z</time>
      </trkpt>
      <trkpt lat="44.35437" lon="5.61579">
        <ele>825.9</ele>
        <time>2021-09-07T17:50:45Z</time>
      </trkpt>
      <trkpt lat="44.35437" lon="5.61578">
        <ele>826</ele>
        <time>2021-09-07T17:50:46Z</time>
      </trkpt>
      <trkpt lat="44.35437" lon="5.61578">
        <ele>826</ele>
        <time>2021-09-07T17:50:47Z</time>
      </trkpt>
      <trkpt lat="44.35436" lon="5.61578">
        <ele>826</ele>
        <time>2021-09-07T17:50:48Z</time>
      </trkpt>
      <trkpt lat="44.35436" lon="5.61578">
        <ele>826</ele>
        <time>2021-09-07T17:50:49Z</time>
      </trkpt>
      <trkpt lat="44.35436" lon="5.61578">
        <ele>826.1</ele>
        <time>2021-09-07T17:50:50Z</time>
      </trkpt>
      <trkpt lat="44.35436" lon="5.61577">
        <ele>825.8</ele>
        <time>2021-09-07T17:50:51Z</time>
      </trkpt>
      <trkpt lat="44.35436" lon="5.61577">
        <ele>825.8</ele>
        <time>2021-09-07T17:50:52Z</time>
      </trkpt>
      <trkpt lat="44.35436" lon="5.61577">
        <ele>825.8</ele>
        <time>2021-09-07T17:50:53Z</time>
      </trkpt>
      <trkpt lat="44.35436" lon="5.61576">
        <ele>825.8</ele>
        <time>2021-09-07T17:50:54Z</time>
      </trkpt>
      <trkpt lat="44.35436" lon="5.61576">
        <ele>825.9</ele>
        <time>2021-09-07T17:50:55Z</time>
      </trkpt>
      <trkpt lat="44.35436" lon="5.61576">
        <ele>825.9</ele>
        <time>2021-09-07T17:50:56Z</time>
      </trkpt>
      <trkpt lat="44.35436" lon="5.61576">
        <ele>825.9</ele>
        <time>2021-09-07T17:50:57Z</time>
      </trkpt>
      <trkpt lat="44.35436" lon="5.61576">
        <ele>825.9</ele>
        <time>2021-09-07T17:50:58Z</time>
      </trkpt>
      <trkpt lat="44.35436" lon="5.61576">
        <ele>826</ele>
        <time>2021-09-07T17:50:59Z</time>
      </trkpt>
      <trkpt lat="44.35436" lon="5.61576">
        <ele>826</ele>
        <time>2021-09-07T17:51:00Z</time>
      </trkpt>
      <trkpt lat="44.35436" lon="5.61576">
        <ele>826</ele>
        <time>2021-09-07T17:51:01Z</time>
      </trkpt>
      <trkpt lat="44.35436" lon="5.61575">
        <ele>826</ele>
        <time>2021-09-07T17:51:02Z</time>
      </trkpt>
      <trkpt lat="44.35435" lon="5.61575">
        <ele>826.9</ele>
        <time>2021-09-07T17:51:03Z</time>
      </trkpt>
      <trkpt lat="44.35436" lon="5.61574">
        <ele>826.9</ele>
        <time>2021-09-07T17:51:04Z</time>
      </trkpt>
      <trkpt lat="44.35436" lon="5.61573">
        <ele>825.8</ele>
        <time>2021-09-07T17:51:05Z</time>
      </trkpt>
      <trkpt lat="44.35437" lon="5.61571">
        <ele>825.8</ele>
        <time>2021-09-07T17:51:06Z</time>
      </trkpt>
      <trkpt lat="44.35437" lon="5.6157">
        <ele>825.9</ele>
        <time>2021-09-07T17:51:07Z</time>
      </trkpt>
      <trkpt lat="44.35437" lon="5.61569">
        <ele>825.6</ele>
        <time>2021-09-07T17:51:08Z</time>
      </trkpt>
      <trkpt lat="44.35437" lon="5.61567">
        <ele>825.6</ele>
        <time>2021-09-07T17:51:09Z</time>
      </trkpt>
      <trkpt lat="44.35437" lon="5.61566">
        <ele>825.6</ele>
        <time>2021-09-07T17:51:10Z</time>
      </trkpt>
      <trkpt lat="44.35436" lon="5.61564">
        <ele>825.4</ele>
        <time>2021-09-07T17:51:11Z</time>
      </trkpt>
      <trkpt lat="44.35436" lon="5.61563">
        <ele>825.4</ele>
        <time>2021-09-07T17:51:12Z</time>
      </trkpt>
      <trkpt lat="44.35436" lon="5.61562">
        <ele>825.4</ele>
        <time>2021-09-07T17:51:13Z</time>
      </trkpt>
      <trkpt lat="44.35436" lon="5.61561">
        <ele>826.2</ele>
        <time>2021-09-07T17:51:14Z</time>
      </trkpt>
      <trkpt lat="44.35435" lon="5.6156">
        <ele>825.9</ele>
        <time>2021-09-07T17:51:15Z</time>
      </trkpt>
      <trkpt lat="44.35435" lon="5.61559">
        <ele>826</ele>
        <time>2021-09-07T17:51:16Z</time>
      </trkpt>
      <trkpt lat="44.35434" lon="5.61559">
        <ele>826</ele>
        <time>2021-09-07T17:51:17Z</time>
      </trkpt>
      <trkpt lat="44.35434" lon="5.61558">
        <ele>826</ele>
        <time>2021-09-07T17:51:18Z</time>
      </trkpt>
      <trkpt lat="44.35433" lon="5.61557">
        <ele>826</ele>
        <time>2021-09-07T17:51:19Z</time>
      </trkpt>
      <trkpt lat="44.35432" lon="5.61556">
        <ele>826.7</ele>
        <time>2021-09-07T17:51:20Z</time>
      </trkpt>
      <trkpt lat="44.35431" lon="5.61555">
        <ele>826.5</ele>
        <time>2021-09-07T17:51:21Z</time>
      </trkpt>
      <trkpt lat="44.3543" lon="5.61554">
        <ele>826.5</ele>
        <time>2021-09-07T17:51:22Z</time>
      </trkpt>
      <trkpt lat="44.35429" lon="5.61553">
        <ele>827.2</ele>
        <time>2021-09-07T17:51:23Z</time>
      </trkpt>
      <trkpt lat="44.35429" lon="5.61553">
        <ele>827.2</ele>
        <time>2021-09-07T17:51:24Z</time>
      </trkpt>
      <trkpt lat="44.35428" lon="5.61552">
        <ele>827.2</ele>
        <time>2021-09-07T17:51:25Z</time>
      </trkpt>
      <trkpt lat="44.35427" lon="5.61551">
        <ele>827</ele>
        <time>2021-09-07T17:51:26Z</time>
      </trkpt>
      <trkpt lat="44.35426" lon="5.6155">
        <ele>827.7</ele>
        <time>2021-09-07T17:51:27Z</time>
      </trkpt>
      <trkpt lat="44.35425" lon="5.61549">
        <ele>827.7</ele>
        <time>2021-09-07T17:51:28Z</time>
      </trkpt>
      <trkpt lat="44.35425" lon="5.61549">
        <ele>827.7</ele>
        <time>2021-09-07T17:51:29Z</time>
      </trkpt>
      <trkpt lat="44.35425" lon="5.61549">
        <ele>827.8</ele>
        <time>2021-09-07T17:51:30Z</time>
      </trkpt>
      <trkpt lat="44.35425" lon="5.61548">
        <ele>827.8</ele>
        <time>2021-09-07T17:51:31Z</time>
      </trkpt>
      <trkpt lat="44.35425" lon="5.61548">
        <ele>827.8</ele>
        <time>2021-09-07T17:51:32Z</time>
      </trkpt>
      <trkpt lat="44.35424" lon="5.61548">
        <ele>827.8</ele>
        <time>2021-09-07T17:51:33Z</time>
      </trkpt>
      <trkpt lat="44.35424" lon="5.61548">
        <ele>827.9</ele>
        <time>2021-09-07T17:51:34Z</time>
      </trkpt>
      <trkpt lat="44.35424" lon="5.61548">
        <ele>827.9</ele>
        <time>2021-09-07T17:51:35Z</time>
      </trkpt>
      <trkpt lat="44.35424" lon="5.61548">
        <ele>827.9</ele>
        <time>2021-09-07T17:51:36Z</time>
      </trkpt>
      <trkpt lat="44.35424" lon="5.61548">
        <ele>827.9</ele>
        <time>2021-09-07T17:51:37Z</time>
      </trkpt>
      <trkpt lat="44.35424" lon="5.61548">
        <ele>827.9</ele>
        <time>2021-09-07T17:51:38Z</time>
      </trkpt>
      <trkpt lat="44.35424" lon="5.61548">
        <ele>828</ele>
        <time>2021-09-07T17:51:39Z</time>
      </trkpt>
      <trkpt lat="44.35424" lon="5.61548">
        <ele>828</ele>
        <time>2021-09-07T17:51:40Z</time>
      </trkpt>
      <trkpt lat="44.35424" lon="5.61548">
        <ele>828</ele>
        <time>2021-09-07T17:51:41Z</time>
      </trkpt>
      <trkpt lat="44.35424" lon="5.61548">
        <ele>828</ele>
        <time>2021-09-07T17:51:42Z</time>
      </trkpt>
      <trkpt lat="44.35424" lon="5.61548">
        <ele>828.1</ele>
        <time>2021-09-07T17:51:43Z</time>
      </trkpt>
      <trkpt lat="44.35424" lon="5.61548">
        <ele>828.1</ele>
        <time>2021-09-07T17:51:44Z</time>
      </trkpt>
      <trkpt lat="44.35424" lon="5.61548">
        <ele>828.1</ele>
        <time>2021-09-07T17:51:45Z</time>
      </trkpt>
      <trkpt lat="44.35424" lon="5.61548">
        <ele>828.1</ele>
        <time>2021-09-07T17:51:46Z</time>
      </trkpt>
      <trkpt lat="44.35424" lon="5.61548">
        <ele>828.2</ele>
        <time>2021-09-07T17:51:47Z</time>
      </trkpt>
      <trkpt lat="44.35424" lon="5.61548">
        <ele>828.2</ele>
        <time>2021-09-07T17:51:48Z</time>
      </trkpt>
      <trkpt lat="44.35424" lon="5.61548">
        <ele>828.2</ele>
        <time>2021-09-07T17:51:49Z</time>
      </trkpt>
      <trkpt lat="44.35424" lon="5.61548">
        <ele>828.2</ele>
        <time>2021-09-07T17:51:50Z</time>
      </trkpt>
      <trkpt lat="44.35424" lon="5.61548">
        <ele>828.2</ele>
        <time>2021-09-07T17:51:51Z</time>
      </trkpt>
      <trkpt lat="44.35424" lon="5.61548">
        <ele>828.3</ele>
        <time>2021-09-07T17:51:52Z</time>
      </trkpt>
      <trkpt lat="44.35424" lon="5.61548">
        <ele>828.3</ele>
        <time>2021-09-07T17:51:53Z</time>
      </trkpt>
      <trkpt lat="44.35424" lon="5.61548">
        <ele>828.3</ele>
        <time>2021-09-07T17:51:54Z</time>
      </trkpt>
      <trkpt lat="44.35424" lon="5.61548">
        <ele>828.3</ele>
        <time>2021-09-07T17:51:55Z</time>
      </trkpt>
      <trkpt lat="44.35424" lon="5.61548">
        <ele>828.4</ele>
        <time>2021-09-07T17:51:56Z</time>
      </trkpt>
      <trkpt lat="44.35424" lon="5.61548">
        <ele>828.4</ele>
        <time>2021-09-07T17:51:57Z</time>
      </trkpt>
      <trkpt lat="44.35426" lon="5.61549">
        <ele>828.4</ele>
        <time>2021-09-07T17:51:58Z</time>
      </trkpt>
      <trkpt lat="44.35427" lon="5.61549">
        <ele>827.7</ele>
        <time>2021-09-07T17:51:59Z</time>
      </trkpt>
      <trkpt lat="44.3543" lon="5.61549">
        <ele>827.1</ele>
        <time>2021-09-07T17:52:00Z</time>
      </trkpt>
      <trkpt lat="44.35431" lon="5.61549">
        <ele>827.1</ele>
        <time>2021-09-07T17:52:01Z</time>
      </trkpt>
      <trkpt lat="44.35432" lon="5.6155">
        <ele>827.1</ele>
        <time>2021-09-07T17:52:02Z</time>
      </trkpt>
      <trkpt lat="44.35433" lon="5.6155">
        <ele>826.5</ele>
        <time>2021-09-07T17:52:03Z</time>
      </trkpt>
      <trkpt lat="44.35434" lon="5.6155">
        <ele>826.5</ele>
        <time>2021-09-07T17:52:04Z</time>
      </trkpt>
      <trkpt lat="44.35434" lon="5.6155">
        <ele>826.5</ele>
        <time>2021-09-07T17:52:05Z</time>
      </trkpt>
      <trkpt lat="44.35434" lon="5.6155">
        <ele>826.6</ele>
        <time>2021-09-07T17:52:06Z</time>
      </trkpt>
      <trkpt lat="44.35434" lon="5.6155">
        <ele>826.6</ele>
        <time>2021-09-07T17:52:07Z</time>
      </trkpt>
      <trkpt lat="44.35434" lon="5.6155">
        <ele>826.6</ele>
        <time>2021-09-07T17:52:08Z</time>
      </trkpt>
      <trkpt lat="44.35434" lon="5.6155">
        <ele>826.6</ele>
        <time>2021-09-07T17:52:09Z</time>
      </trkpt>
      <trkpt lat="44.35434" lon="5.6155">
        <ele>826.6</ele>
        <time>2021-09-07T17:52:10Z</time>
      </trkpt>
      <trkpt lat="44.35434" lon="5.6155">
        <ele>826.7</ele>
        <time>2021-09-07T17:52:11Z</time>
      </trkpt>
      <trkpt lat="44.35434" lon="5.6155">
        <ele>826.7</ele>
        <time>2021-09-07T17:52:12Z</time>
      </trkpt>
      <trkpt lat="44.35434" lon="5.6155">
        <ele>826.7</ele>
        <time>2021-09-07T17:52:13Z</time>
      </trkpt>
      <trkpt lat="44.35434" lon="5.6155">
        <ele>826.7</ele>
        <time>2021-09-07T17:52:14Z</time>
      </trkpt>
      <trkpt lat="44.35434" lon="5.6155">
        <ele>826.8</ele>
        <time>2021-09-07T17:52:15Z</time>
      </trkpt>
      <trkpt lat="44.35434" lon="5.6155">
        <ele>826.8</ele>
        <time>2021-09-07T17:52:16Z</time>
      </trkpt>
      <trkpt lat="44.35434" lon="5.6155">
        <ele>826.8</ele>
        <time>2021-09-07T17:52:17Z</time>
      </trkpt>
      <trkpt lat="44.35434" lon="5.6155">
        <ele>826.8</ele>
        <time>2021-09-07T17:52:18Z</time>
      </trkpt>
      <trkpt lat="44.35434" lon="5.6155">
        <ele>826.9</ele>
        <time>2021-09-07T17:52:19Z</time>
      </trkpt>
      <trkpt lat="44.35434" lon="5.6155">
        <ele>826.9</ele>
        <time>2021-09-07T17:52:20Z</time>
      </trkpt>
      <trkpt lat="44.35434" lon="5.6155">
        <ele>826.9</ele>
        <time>2021-09-07T17:52:21Z</time>
      </trkpt>
      <trkpt lat="44.35434" lon="5.6155">
        <ele>826.9</ele>
        <time>2021-09-07T17:52:22Z</time>
      </trkpt>
      <trkpt lat="44.35434" lon="5.6155">
        <ele>826.9</ele>
        <time>2021-09-07T17:52:23Z</time>
      </trkpt>
      <trkpt lat="44.35434" lon="5.6155">
        <ele>827</ele>
        <time>2021-09-07T17:52:24Z</time>
      </trkpt>
      <trkpt lat="44.35434" lon="5.6155">
        <ele>827</ele>
        <time>2021-09-07T17:52:25Z</time>
      </trkpt>
      <trkpt lat="44.35434" lon="5.6155">
        <ele>827</ele>
        <time>2021-09-07T17:52:26Z</time>
      </trkpt>
      <trkpt lat="44.35434" lon="5.6155">
        <ele>827</ele>
        <time>2021-09-07T17:52:27Z</time>
      </trkpt>
      <trkpt lat="44.35433" lon="5.61549">
        <ele>827.1</ele>
        <time>2021-09-07T17:52:28Z</time>
      </trkpt>
      <trkpt lat="44.35433" lon="5.61549">
        <ele>827.1</ele>
        <time>2021-09-07T17:52:29Z</time>
      </trkpt>
      <trkpt lat="44.35431" lon="5.61548">
        <ele>827.8</ele>
        <time>2021-09-07T17:52:30Z</time>
      </trkpt>
      <trkpt lat="44.3543" lon="5.61547">
        <ele>827.5</ele>
        <time>2021-09-07T17:52:31Z</time>
      </trkpt>
      <trkpt lat="44.35429" lon="5.61547">
        <ele>828.2</ele>
        <time>2021-09-07T17:52:32Z</time>
      </trkpt>
      <trkpt lat="44.35428" lon="5.61547">
        <ele>828.2</ele>
        <time>2021-09-07T17:52:33Z</time>
      </trkpt>
      <trkpt lat="44.35426" lon="5.61547">
        <ele>828.9</ele>
        <time>2021-09-07T17:52:34Z</time>
      </trkpt>
      <trkpt lat="44.35425" lon="5.61547">
        <ele>829</ele>
        <time>2021-09-07T17:52:35Z</time>
      </trkpt>
      <trkpt lat="44.35424" lon="5.61547">
        <ele>829</ele>
        <time>2021-09-07T17:52:36Z</time>
      </trkpt>
      <trkpt lat="44.35423" lon="5.61548">
        <ele>830.1</ele>
        <time>2021-09-07T17:52:37Z</time>
      </trkpt>
      <trkpt lat="44.35422" lon="5.61548">
        <ele>830.1</ele>
        <time>2021-09-07T17:52:38Z</time>
      </trkpt>
      <trkpt lat="44.35422" lon="5.61549">
        <ele>830.1</ele>
        <time>2021-09-07T17:52:39Z</time>
      </trkpt>
      <trkpt lat="44.35422" lon="5.61552">
        <ele>830.5</ele>
        <time>2021-09-07T17:52:40Z</time>
      </trkpt>
      <trkpt lat="44.35422" lon="5.61555">
        <ele>830.5</ele>
        <time>2021-09-07T17:52:41Z</time>
      </trkpt>
      <trkpt lat="44.35423" lon="5.61557">
        <ele>830.9</ele>
        <time>2021-09-07T17:52:42Z</time>
      </trkpt>
      <trkpt lat="44.35423" lon="5.61559">
        <ele>831</ele>
        <time>2021-09-07T17:52:43Z</time>
      </trkpt>
      <trkpt lat="44.35426" lon="5.6156">
        <ele>830.2</ele>
        <time>2021-09-07T17:52:44Z</time>
      </trkpt>
      <trkpt lat="44.35428" lon="5.6156">
        <ele>829.4</ele>
        <time>2021-09-07T17:52:45Z</time>
      </trkpt>
      <trkpt lat="44.3543" lon="5.6156">
        <ele>828.7</ele>
        <time>2021-09-07T17:52:46Z</time>
      </trkpt>
      <trkpt lat="44.35432" lon="5.61561">
        <ele>829.1</ele>
        <time>2021-09-07T17:52:47Z</time>
      </trkpt>
      <trkpt lat="44.35433" lon="5.61562">
        <ele>828.4</ele>
        <time>2021-09-07T17:52:48Z</time>
      </trkpt>
      <trkpt lat="44.35434" lon="5.61563">
        <ele>828.4</ele>
        <time>2021-09-07T17:52:49Z</time>
      </trkpt>
      <trkpt lat="44.35435" lon="5.61564">
        <ele>828.4</ele>
        <time>2021-09-07T17:52:50Z</time>
      </trkpt>
      <trkpt lat="44.35436" lon="5.61565">
        <ele>828.5</ele>
        <time>2021-09-07T17:52:51Z</time>
      </trkpt>
      <trkpt lat="44.35436" lon="5.61566">
        <ele>828.6</ele>
        <time>2021-09-07T17:52:52Z</time>
      </trkpt>
      <trkpt lat="44.35436" lon="5.61568">
        <ele>828.7</ele>
        <time>2021-09-07T17:52:53Z</time>
      </trkpt>
      <trkpt lat="44.35437" lon="5.61568">
        <ele>828.8</ele>
        <time>2021-09-07T17:52:54Z</time>
      </trkpt>
      <trkpt lat="44.35438" lon="5.61569">
        <ele>828.9</ele>
        <time>2021-09-07T17:52:55Z</time>
      </trkpt>
      <trkpt lat="44.35439" lon="5.6157">
        <ele>828.9</ele>
        <time>2021-09-07T17:52:56Z</time>
      </trkpt>
      <trkpt lat="44.35439" lon="5.61571">
        <ele>829</ele>
        <time>2021-09-07T17:52:57Z</time>
      </trkpt>
      <trkpt lat="44.35439" lon="5.61572">
        <ele>829.1</ele>
        <time>2021-09-07T17:52:58Z</time>
      </trkpt>
      <trkpt lat="44.35439" lon="5.61573">
        <ele>829.1</ele>
        <time>2021-09-07T17:52:59Z</time>
      </trkpt>
      <trkpt lat="44.35438" lon="5.61573">
        <ele>829.2</ele>
        <time>2021-09-07T17:53:00Z</time>
      </trkpt>
      <trkpt lat="44.35438" lon="5.61573">
        <ele>829.2</ele>
        <time>2021-09-07T17:53:01Z</time>
      </trkpt>
      <trkpt lat="44.35438" lon="5.61573">
        <ele>829.2</ele>
        <time>2021-09-07T17:53:02Z</time>
      </trkpt>
      <trkpt lat="44.35438" lon="5.61573">
        <ele>829.2</ele>
        <time>2021-09-07T17:53:03Z</time>
      </trkpt>
      <trkpt lat="44.35438" lon="5.61574">
        <ele>829.3</ele>
        <time>2021-09-07T17:53:04Z</time>
      </trkpt>
      <trkpt lat="44.35438" lon="5.61574">
        <ele>829.3</ele>
        <time>2021-09-07T17:53:05Z</time>
      </trkpt>
      <trkpt lat="44.35438" lon="5.61574">
        <ele>829.3</ele>
        <time>2021-09-07T17:53:06Z</time>
      </trkpt>
      <trkpt lat="44.35438" lon="5.61574">
        <ele>829.3</ele>
        <time>2021-09-07T17:53:07Z</time>
      </trkpt>
      <trkpt lat="44.35438" lon="5.61574">
        <ele>829.3</ele>
        <time>2021-09-07T17:53:08Z</time>
      </trkpt>
      <trkpt lat="44.35438" lon="5.61574">
        <ele>829.3</ele>
        <time>2021-09-07T17:53:09Z</time>
      </trkpt>
      <trkpt lat="44.35438" lon="5.61574">
        <ele>829.3</ele>
        <time>2021-09-07T17:53:10Z</time>
      </trkpt>
      <trkpt lat="44.35438" lon="5.61575">
        <ele>829.3</ele>
        <time>2021-09-07T17:53:11Z</time>
      </trkpt>
      <trkpt lat="44.35438" lon="5.61575">
        <ele>829.3</ele>
        <time>2021-09-07T17:53:12Z</time>
      </trkpt>
      <trkpt lat="44.35438" lon="5.61575">
        <ele>829.3</ele>
        <time>2021-09-07T17:53:13Z</time>
      </trkpt>
      <trkpt lat="44.35438" lon="5.61575">
        <ele>829.3</ele>
        <time>2021-09-07T17:53:14Z</time>
      </trkpt>
      <trkpt lat="44.35438" lon="5.61575">
        <ele>829.3</ele>
        <time>2021-09-07T17:53:15Z</time>
      </trkpt>
      <trkpt lat="44.35438" lon="5.61575">
        <ele>829.3</ele>
        <time>2021-09-07T17:53:16Z</time>
      </trkpt>
      <trkpt lat="44.35438" lon="5.61575">
        <ele>829.3</ele>
        <time>2021-09-07T17:53:17Z</time>
      </trkpt>
      <trkpt lat="44.35438" lon="5.61575">
        <ele>829.3</ele>
        <time>2021-09-07T17:53:18Z</time>
      </trkpt>
      <trkpt lat="44.35438" lon="5.61575">
        <ele>829.3</ele>
        <time>2021-09-07T17:53:19Z</time>
      </trkpt>
      <trkpt lat="44.35438" lon="5.61575">
        <ele>829.3</ele>
        <time>2021-09-07T17:53:20Z</time>
      </trkpt>
      <trkpt lat="44.35438" lon="5.61575">
        <ele>829.3</ele>
        <time>2021-09-07T17:53:21Z</time>
      </trkpt>
      <trkpt lat="44.35438" lon="5.61575">
        <ele>829.3</ele>
        <time>2021-09-07T17:53:22Z</time>
      </trkpt>
      <trkpt lat="44.35438" lon="5.61575">
        <ele>829.3</ele>
        <time>2021-09-07T17:53:23Z</time>
      </trkpt>
      <trkpt lat="44.35438" lon="5.61575">
        <ele>829.3</ele>
        <time>2021-09-07T17:53:24Z</time>
      </trkpt>
      <trkpt lat="44.35439" lon="5.61575">
        <ele>829.4</ele>
        <time>2021-09-07T17:53:25Z</time>
      </trkpt>
      <trkpt lat="44.3544" lon="5.61576">
        <ele>829.5</ele>
        <time>2021-09-07T17:53:26Z</time>
      </trkpt>
      <trkpt lat="44.35441" lon="5.61577">
        <ele>829.6</ele>
        <time>2021-09-07T17:53:27Z</time>
      </trkpt>
      <trkpt lat="44.35442" lon="5.61577">
        <ele>829.7</ele>
        <time>2021-09-07T17:53:28Z</time>
      </trkpt>
      <trkpt lat="44.35443" lon="5.61578">
        <ele>829.8</ele>
        <time>2021-09-07T17:53:29Z</time>
      </trkpt>
      <trkpt lat="44.35443" lon="5.61579">
        <ele>829.9</ele>
        <time>2021-09-07T17:53:30Z</time>
      </trkpt>
      <trkpt lat="44.35444" lon="5.6158">
        <ele>830</ele>
        <time>2021-09-07T17:53:31Z</time>
      </trkpt>
      <trkpt lat="44.35445" lon="5.61581">
        <ele>830.1</ele>
        <time>2021-09-07T17:53:32Z</time>
      </trkpt>
      <trkpt lat="44.35445" lon="5.61581">
        <ele>830.1</ele>
        <time>2021-09-07T17:53:33Z</time>
      </trkpt>
      <trkpt lat="44.35445" lon="5.61582">
        <ele>830.1</ele>
        <time>2021-09-07T17:53:34Z</time>
      </trkpt>
      <trkpt lat="44.35445" lon="5.61582">
        <ele>830.1</ele>
        <time>2021-09-07T17:53:35Z</time>
      </trkpt>
      <trkpt lat="44.35446" lon="5.61583">
        <ele>830.2</ele>
        <time>2021-09-07T17:53:36Z</time>
      </trkpt>
      <trkpt lat="44.35447" lon="5.61584">
        <ele>830.3</ele>
        <time>2021-09-07T17:53:37Z</time>
      </trkpt>
      <trkpt lat="44.35448" lon="5.61586">
        <ele>830.5</ele>
        <time>2021-09-07T17:53:38Z</time>
      </trkpt>
      <trkpt lat="44.35449" lon="5.61587">
        <ele>830.6</ele>
        <time>2021-09-07T17:53:39Z</time>
      </trkpt>
      <trkpt lat="44.3545" lon="5.61588">
        <ele>830.7</ele>
        <time>2021-09-07T17:53:40Z</time>
      </trkpt>
      <trkpt lat="44.35451" lon="5.61589">
        <ele>830.8</ele>
        <time>2021-09-07T17:53:41Z</time>
      </trkpt>
      <trkpt lat="44.35453" lon="5.61591">
        <ele>831.1</ele>
        <time>2021-09-07T17:53:42Z</time>
      </trkpt>
      <trkpt lat="44.35453" lon="5.61592">
        <ele>831.1</ele>
        <time>2021-09-07T17:53:43Z</time>
      </trkpt>
      <trkpt lat="44.35454" lon="5.61594">
        <ele>831.3</ele>
        <time>2021-09-07T17:53:44Z</time>
      </trkpt>
      <trkpt lat="44.35455" lon="5.61595">
        <ele>831.3</ele>
        <time>2021-09-07T17:53:45Z</time>
      </trkpt>
      <trkpt lat="44.35455" lon="5.61595">
        <ele>831.4</ele>
        <time>2021-09-07T17:53:46Z</time>
      </trkpt>
      <trkpt lat="44.35455" lon="5.61596">
        <ele>831.5</ele>
        <time>2021-09-07T17:53:47Z</time>
      </trkpt>
      <trkpt lat="44.35455" lon="5.61597">
        <ele>831.5</ele>
        <time>2021-09-07T17:53:48Z</time>
      </trkpt>
      <trkpt lat="44.35455" lon="5.61597">
        <ele>831.5</ele>
        <time>2021-09-07T17:53:49Z</time>
      </trkpt>
      <trkpt lat="44.35456" lon="5.61599">
        <ele>831.7</ele>
        <time>2021-09-07T17:53:50Z</time>
      </trkpt>
      <trkpt lat="44.35456" lon="5.61602">
        <ele>831.9</ele>
        <time>2021-09-07T17:53:51Z</time>
      </trkpt>
      <trkpt lat="44.35456" lon="5.61604">
        <ele>832</ele>
        <time>2021-09-07T17:53:52Z</time>
      </trkpt>
      <trkpt lat="44.35456" lon="5.61607">
        <ele>832.2</ele>
        <time>2021-09-07T17:53:53Z</time>
      </trkpt>
      <trkpt lat="44.35456" lon="5.6161">
        <ele>832.4</ele>
        <time>2021-09-07T17:53:54Z</time>
      </trkpt>
      <trkpt lat="44.35456" lon="5.61612">
        <ele>832.6</ele>
        <time>2021-09-07T17:53:55Z</time>
      </trkpt>
      <trkpt lat="44.35456" lon="5.61616">
        <ele>832.9</ele>
        <time>2021-09-07T17:53:56Z</time>
      </trkpt>
      <trkpt lat="44.35456" lon="5.61619">
        <ele>833</ele>
        <time>2021-09-07T17:53:57Z</time>
      </trkpt>
      <trkpt lat="44.35456" lon="5.61621">
        <ele>833.2</ele>
        <time>2021-09-07T17:53:58Z</time>
      </trkpt>
      <trkpt lat="44.35456" lon="5.61622">
        <ele>833.3</ele>
        <time>2021-09-07T17:53:59Z</time>
      </trkpt>
      <trkpt lat="44.35456" lon="5.61623">
        <ele>833.3</ele>
        <time>2021-09-07T17:54:00Z</time>
      </trkpt>
      <trkpt lat="44.35456" lon="5.61625">
        <ele>833.5</ele>
        <time>2021-09-07T17:54:01Z</time>
      </trkpt>
      <trkpt lat="44.35456" lon="5.61625">
        <ele>833.5</ele>
        <time>2021-09-07T17:54:02Z</time>
      </trkpt>
      <trkpt lat="44.35456" lon="5.61626">
        <ele>833.5</ele>
        <time>2021-09-07T17:54:03Z</time>
      </trkpt>
      <trkpt lat="44.35455" lon="5.61627">
        <ele>833.6</ele>
        <time>2021-09-07T17:54:04Z</time>
      </trkpt>
      <trkpt lat="44.35454" lon="5.61629">
        <ele>833.8</ele>
        <time>2021-09-07T17:54:05Z</time>
      </trkpt>
      <trkpt lat="44.35454" lon="5.61631">
        <ele>833.9</ele>
        <time>2021-09-07T17:54:06Z</time>
      </trkpt>
      <trkpt lat="44.35453" lon="5.61632">
        <ele>834</ele>
        <time>2021-09-07T17:54:07Z</time>
      </trkpt>
      <trkpt lat="44.35452" lon="5.61633">
        <ele>834.1</ele>
        <time>2021-09-07T17:54:08Z</time>
      </trkpt>
      <trkpt lat="44.35452" lon="5.61634">
        <ele>834.2</ele>
        <time>2021-09-07T17:54:09Z</time>
      </trkpt>
      <trkpt lat="44.35451" lon="5.61634">
        <ele>834.2</ele>
        <time>2021-09-07T17:54:10Z</time>
      </trkpt>
      <trkpt lat="44.3545" lon="5.61635">
        <ele>834.3</ele>
        <time>2021-09-07T17:54:11Z</time>
      </trkpt>
      <trkpt lat="44.35449" lon="5.61636">
        <ele>834.4</ele>
        <time>2021-09-07T17:54:12Z</time>
      </trkpt>
      <trkpt lat="44.35448" lon="5.61637">
        <ele>834.5</ele>
        <time>2021-09-07T17:54:13Z</time>
      </trkpt>
      <trkpt lat="44.35446" lon="5.61639">
        <ele>834.8</ele>
        <time>2021-09-07T17:54:14Z</time>
      </trkpt>
      <trkpt lat="44.35445" lon="5.6164">
        <ele>834.9</ele>
        <time>2021-09-07T17:54:15Z</time>
      </trkpt>
      <trkpt lat="44.35444" lon="5.61641">
        <ele>835</ele>
        <time>2021-09-07T17:54:16Z</time>
      </trkpt>
      <trkpt lat="44.35442" lon="5.61643">
        <ele>835.2</ele>
        <time>2021-09-07T17:54:17Z</time>
      </trkpt>
      <trkpt lat="44.3544" lon="5.61645">
        <ele>835.4</ele>
        <time>2021-09-07T17:54:18Z</time>
      </trkpt>
      <trkpt lat="44.35439" lon="5.61647">
        <ele>835.6</ele>
        <time>2021-09-07T17:54:19Z</time>
      </trkpt>
      <trkpt lat="44.35438" lon="5.61649">
        <ele>835.7</ele>
        <time>2021-09-07T17:54:20Z</time>
      </trkpt>
      <trkpt lat="44.35438" lon="5.6165">
        <ele>835.8</ele>
        <time>2021-09-07T17:54:21Z</time>
      </trkpt>
      <trkpt lat="44.35438" lon="5.61651">
        <ele>835.9</ele>
        <time>2021-09-07T17:54:22Z</time>
      </trkpt>
      <trkpt lat="44.35437" lon="5.61653">
        <ele>836</ele>
        <time>2021-09-07T17:54:23Z</time>
      </trkpt>
      <trkpt lat="44.35437" lon="5.61655">
        <ele>836.1</ele>
        <time>2021-09-07T17:54:24Z</time>
      </trkpt>
      <trkpt lat="44.35436" lon="5.61656">
        <ele>836.2</ele>
        <time>2021-09-07T17:54:25Z</time>
      </trkpt>
      <trkpt lat="44.35435" lon="5.61657">
        <ele>836.3</ele>
        <time>2021-09-07T17:54:26Z</time>
      </trkpt>
      <trkpt lat="44.35435" lon="5.61657">
        <ele>836.3</ele>
        <time>2021-09-07T17:54:27Z</time>
      </trkpt>
      <trkpt lat="44.35435" lon="5.61657">
        <ele>836.3</ele>
        <time>2021-09-07T17:54:28Z</time>
      </trkpt>
      <trkpt lat="44.35434" lon="5.61658">
        <ele>836.5</ele>
        <time>2021-09-07T17:54:29Z</time>
      </trkpt>
      <trkpt lat="44.35434" lon="5.61659">
        <ele>836.5</ele>
        <time>2021-09-07T17:54:30Z</time>
      </trkpt>
      <trkpt lat="44.35434" lon="5.6166">
        <ele>836.6</ele>
        <time>2021-09-07T17:54:31Z</time>
      </trkpt>
      <trkpt lat="44.35434" lon="5.6166">
        <ele>836.6</ele>
        <time>2021-09-07T17:54:32Z</time>
      </trkpt>
      <trkpt lat="44.35433" lon="5.6166">
        <ele>836.7</ele>
        <time>2021-09-07T17:54:33Z</time>
      </trkpt>
      <trkpt lat="44.35433" lon="5.6166">
        <ele>836.7</ele>
        <time>2021-09-07T17:54:34Z</time>
      </trkpt>
      <trkpt lat="44.35433" lon="5.6166">
        <ele>836.7</ele>
        <time>2021-09-07T17:54:35Z</time>
      </trkpt>
      <trkpt lat="44.35433" lon="5.6166">
        <ele>836.7</ele>
        <time>2021-09-07T17:54:36Z</time>
      </trkpt>
      <trkpt lat="44.35433" lon="5.61661">
        <ele>836.8</ele>
        <time>2021-09-07T17:54:37Z</time>
      </trkpt>
      <trkpt lat="44.35432" lon="5.61662">
        <ele>836.8</ele>
        <time>2021-09-07T17:54:38Z</time>
      </trkpt>
      <trkpt lat="44.35431" lon="5.61662">
        <ele>836.9</ele>
        <time>2021-09-07T17:54:39Z</time>
      </trkpt>
      <trkpt lat="44.3543" lon="5.61663">
        <ele>837</ele>
        <time>2021-09-07T17:54:40Z</time>
      </trkpt>
      <trkpt lat="44.35429" lon="5.61664">
        <ele>837.2</ele>
        <time>2021-09-07T17:54:41Z</time>
      </trkpt>
      <trkpt lat="44.35428" lon="5.61665">
        <ele>837.3</ele>
        <time>2021-09-07T17:54:42Z</time>
      </trkpt>
      <trkpt lat="44.35427" lon="5.61666">
        <ele>837.4</ele>
        <time>2021-09-07T17:54:43Z</time>
      </trkpt>
      <trkpt lat="44.35426" lon="5.61666">
        <ele>837.5</ele>
        <time>2021-09-07T17:54:44Z</time>
      </trkpt>
      <trkpt lat="44.35423" lon="5.61668">
        <ele>837.8</ele>
        <time>2021-09-07T17:54:45Z</time>
      </trkpt>
      <trkpt lat="44.35422" lon="5.61669">
        <ele>838</ele>
        <time>2021-09-07T17:54:46Z</time>
      </trkpt>
      <trkpt lat="44.3542" lon="5.61669">
        <ele>838.1</ele>
        <time>2021-09-07T17:54:47Z</time>
      </trkpt>
      <trkpt lat="44.35418" lon="5.61671">
        <ele>838.4</ele>
        <time>2021-09-07T17:54:48Z</time>
      </trkpt>
      <trkpt lat="44.35416" lon="5.61671">
        <ele>838.6</ele>
        <time>2021-09-07T17:54:49Z</time>
      </trkpt>
      <trkpt lat="44.35414" lon="5.6167">
        <ele>838.8</ele>
        <time>2021-09-07T17:54:50Z</time>
      </trkpt>
      <trkpt lat="44.35414" lon="5.6167">
        <ele>838.8</ele>
        <time>2021-09-07T17:54:51Z</time>
      </trkpt>
      <trkpt lat="44.35414" lon="5.6167">
        <ele>838.8</ele>
        <time>2021-09-07T17:54:52Z</time>
      </trkpt>
      <trkpt lat="44.35413" lon="5.61671">
        <ele>838.9</ele>
        <time>2021-09-07T17:54:53Z</time>
      </trkpt>
      <trkpt lat="44.35413" lon="5.61671">
        <ele>839</ele>
        <time>2021-09-07T17:54:54Z</time>
      </trkpt>
      <trkpt lat="44.35412" lon="5.61671">
        <ele>839</ele>
        <time>2021-09-07T17:54:55Z</time>
      </trkpt>
      <trkpt lat="44.35411" lon="5.61672">
        <ele>839.1</ele>
        <time>2021-09-07T17:54:56Z</time>
      </trkpt>
      <trkpt lat="44.35411" lon="5.61672">
        <ele>839.1</ele>
        <time>2021-09-07T17:54:57Z</time>
      </trkpt>
      <trkpt lat="44.35411" lon="5.61673">
        <ele>839.2</ele>
        <time>2021-09-07T17:54:58Z</time>
      </trkpt>
      <trkpt lat="44.3541" lon="5.61673">
        <ele>839.3</ele>
        <time>2021-09-07T17:54:59Z</time>
      </trkpt>
      <trkpt lat="44.3541" lon="5.61673">
        <ele>839.3</ele>
        <time>2021-09-07T17:55:00Z</time>
      </trkpt>
      <trkpt lat="44.3541" lon="5.61673">
        <ele>839.3</ele>
        <time>2021-09-07T17:55:01Z</time>
      </trkpt>
      <trkpt lat="44.3541" lon="5.61673">
        <ele>839.3</ele>
        <time>2021-09-07T17:55:02Z</time>
      </trkpt>
      <trkpt lat="44.3541" lon="5.61673">
        <ele>839.3</ele>
        <time>2021-09-07T17:55:03Z</time>
      </trkpt>
      <trkpt lat="44.35409" lon="5.61673">
        <ele>839.4</ele>
        <time>2021-09-07T17:55:04Z</time>
      </trkpt>
      <trkpt lat="44.35409" lon="5.61673">
        <ele>839.4</ele>
        <time>2021-09-07T17:55:05Z</time>
      </trkpt>
      <trkpt lat="44.35409" lon="5.61673">
        <ele>839.4</ele>
        <time>2021-09-07T17:55:06Z</time>
      </trkpt>
      <trkpt lat="44.35409" lon="5.61673">
        <ele>839.4</ele>
        <time>2021-09-07T17:55:07Z</time>
      </trkpt>
      <trkpt lat="44.35409" lon="5.61673">
        <ele>839.4</ele>
        <time>2021-09-07T17:55:08Z</time>
      </trkpt>
      <trkpt lat="44.35409" lon="5.61673">
        <ele>839.4</ele>
        <time>2021-09-07T17:55:09Z</time>
      </trkpt>
      <trkpt lat="44.35409" lon="5.61673">
        <ele>839.4</ele>
        <time>2021-09-07T17:55:10Z</time>
      </trkpt>
      <trkpt lat="44.35409" lon="5.61673">
        <ele>839.4</ele>
        <time>2021-09-07T17:55:11Z</time>
      </trkpt>
      <trkpt lat="44.35409" lon="5.61674">
        <ele>839.4</ele>
        <time>2021-09-07T17:55:12Z</time>
      </trkpt>
      <trkpt lat="44.35408" lon="5.61676">
        <ele>839.6</ele>
        <time>2021-09-07T17:55:13Z</time>
      </trkpt>
      <trkpt lat="44.35408" lon="5.61678">
        <ele>839.7</ele>
        <time>2021-09-07T17:55:14Z</time>
      </trkpt>
      <trkpt lat="44.35408" lon="5.6168">
        <ele>839.9</ele>
        <time>2021-09-07T17:55:15Z</time>
      </trkpt>
      <trkpt lat="44.35407" lon="5.61681">
        <ele>840</ele>
        <time>2021-09-07T17:55:16Z</time>
      </trkpt>
      <trkpt lat="44.35406" lon="5.61683">
        <ele>840.1</ele>
        <time>2021-09-07T17:55:17Z</time>
      </trkpt>
      <trkpt lat="44.35405" lon="5.61684">
        <ele>840.3</ele>
        <time>2021-09-07T17:55:18Z</time>
      </trkpt>
      <trkpt lat="44.35404" lon="5.61685">
        <ele>840.4</ele>
        <time>2021-09-07T17:55:19Z</time>
      </trkpt>
      <trkpt lat="44.35403" lon="5.61687">
        <ele>840.6</ele>
        <time>2021-09-07T17:55:20Z</time>
      </trkpt>
      <trkpt lat="44.35403" lon="5.61687">
        <ele>840.6</ele>
        <time>2021-09-07T17:55:21Z</time>
      </trkpt>
      <trkpt lat="44.35402" lon="5.61687">
        <ele>840.6</ele>
        <time>2021-09-07T17:55:22Z</time>
      </trkpt>
      <trkpt lat="44.35401" lon="5.61688">
        <ele>840.8</ele>
        <time>2021-09-07T17:55:23Z</time>
      </trkpt>
      <trkpt lat="44.35401" lon="5.61689">
        <ele>840.8</ele>
        <time>2021-09-07T17:55:24Z</time>
      </trkpt>
      <trkpt lat="44.35401" lon="5.6169">
        <ele>840.9</ele>
        <time>2021-09-07T17:55:25Z</time>
      </trkpt>
      <trkpt lat="44.35401" lon="5.6169">
        <ele>840.9</ele>
        <time>2021-09-07T17:55:26Z</time>
      </trkpt>
      <trkpt lat="44.354" lon="5.6169">
        <ele>841</ele>
        <time>2021-09-07T17:55:27Z</time>
      </trkpt>
      <trkpt lat="44.354" lon="5.61691">
        <ele>841</ele>
        <time>2021-09-07T17:55:28Z</time>
      </trkpt>
      <trkpt lat="44.35399" lon="5.61692">
        <ele>841.2</ele>
        <time>2021-09-07T17:55:29Z</time>
      </trkpt>
      <trkpt lat="44.35397" lon="5.61692">
        <ele>841.3</ele>
        <time>2021-09-07T17:55:30Z</time>
      </trkpt>
      <trkpt lat="44.35396" lon="5.61693">
        <ele>841.4</ele>
        <time>2021-09-07T17:55:31Z</time>
      </trkpt>
      <trkpt lat="44.35395" lon="5.61694">
        <ele>841.5</ele>
        <time>2021-09-07T17:55:32Z</time>
      </trkpt>
      <trkpt lat="44.35394" lon="5.61694">
        <ele>841.6</ele>
        <time>2021-09-07T17:55:33Z</time>
      </trkpt>
      <trkpt lat="44.35392" lon="5.61694">
        <ele>841.8</ele>
        <time>2021-09-07T17:55:34Z</time>
      </trkpt>
      <trkpt lat="44.3539" lon="5.61695">
        <ele>842</ele>
        <time>2021-09-07T17:55:35Z</time>
      </trkpt>
      <trkpt lat="44.35389" lon="5.61695">
        <ele>842.1</ele>
        <time>2021-09-07T17:55:36Z</time>
      </trkpt>
      <trkpt lat="44.35388" lon="5.61695">
        <ele>842.2</ele>
        <time>2021-09-07T17:55:37Z</time>
      </trkpt>
      <trkpt lat="44.35386" lon="5.61695">
        <ele>842.4</ele>
        <time>2021-09-07T17:55:38Z</time>
      </trkpt>
      <trkpt lat="44.35384" lon="5.61696">
        <ele>842.6</ele>
        <time>2021-09-07T17:55:39Z</time>
      </trkpt>
      <trkpt lat="44.35381" lon="5.61696">
        <ele>842.8</ele>
        <time>2021-09-07T17:55:40Z</time>
      </trkpt>
      <trkpt lat="44.35378" lon="5.61696">
        <ele>843.1</ele>
        <time>2021-09-07T17:55:41Z</time>
      </trkpt>
      <trkpt lat="44.35377" lon="5.61696">
        <ele>843.2</ele>
        <time>2021-09-07T17:55:42Z</time>
      </trkpt>
      <trkpt lat="44.35375" lon="5.61696">
        <ele>843.4</ele>
        <time>2021-09-07T17:55:43Z</time>
      </trkpt>
      <trkpt lat="44.35374" lon="5.61696">
        <ele>843.4</ele>
        <time>2021-09-07T17:55:44Z</time>
      </trkpt>
      <trkpt lat="44.35373" lon="5.61697">
        <ele>843.5</ele>
        <time>2021-09-07T17:55:45Z</time>
      </trkpt>
      <trkpt lat="44.35373" lon="5.61697">
        <ele>843.5</ele>
        <time>2021-09-07T17:55:46Z</time>
      </trkpt>
      <trkpt lat="44.35372" lon="5.61697">
        <ele>843.6</ele>
        <time>2021-09-07T17:55:47Z</time>
      </trkpt>
      <trkpt lat="44.35372" lon="5.61697">
        <ele>843.7</ele>
        <time>2021-09-07T17:55:48Z</time>
      </trkpt>
      <trkpt lat="44.35371" lon="5.61697">
        <ele>843.7</ele>
        <time>2021-09-07T17:55:49Z</time>
      </trkpt>
      <trkpt lat="44.35371" lon="5.61697">
        <ele>843.7</ele>
        <time>2021-09-07T17:55:50Z</time>
      </trkpt>
      <trkpt lat="44.3537" lon="5.61697">
        <ele>843.8</ele>
        <time>2021-09-07T17:55:51Z</time>
      </trkpt>
      <trkpt lat="44.3537" lon="5.61697">
        <ele>843.8</ele>
        <time>2021-09-07T17:55:52Z</time>
      </trkpt>
      <trkpt lat="44.3537" lon="5.61697">
        <ele>843.8</ele>
        <time>2021-09-07T17:55:53Z</time>
      </trkpt>
      <trkpt lat="44.3537" lon="5.61697">
        <ele>843.8</ele>
        <time>2021-09-07T17:55:54Z</time>
      </trkpt>
      <trkpt lat="44.3537" lon="5.61697">
        <ele>843.8</ele>
        <time>2021-09-07T17:55:55Z</time>
      </trkpt>
      <trkpt lat="44.35369" lon="5.61698">
        <ele>843.9</ele>
        <time>2021-09-07T17:55:56Z</time>
      </trkpt>
      <trkpt lat="44.35367" lon="5.617">
        <ele>844.1</ele>
        <time>2021-09-07T17:55:57Z</time>
      </trkpt>
      <trkpt lat="44.35366" lon="5.61701">
        <ele>844.2</ele>
        <time>2021-09-07T17:55:58Z</time>
      </trkpt>
      <trkpt lat="44.35365" lon="5.61702">
        <ele>844.3</ele>
        <time>2021-09-07T17:55:59Z</time>
      </trkpt>
      <trkpt lat="44.35364" lon="5.61704">
        <ele>844.5</ele>
        <time>2021-09-07T17:56:00Z</time>
      </trkpt>
      <trkpt lat="44.35362" lon="5.61706">
        <ele>844.7</ele>
        <time>2021-09-07T17:56:01Z</time>
      </trkpt>
      <trkpt lat="44.35361" lon="5.61708">
        <ele>844.8</ele>
        <time>2021-09-07T17:56:02Z</time>
      </trkpt>
      <trkpt lat="44.3536" lon="5.61709">
        <ele>845</ele>
        <time>2021-09-07T17:56:03Z</time>
      </trkpt>
      <trkpt lat="44.35359" lon="5.61711">
        <ele>845.1</ele>
        <time>2021-09-07T17:56:04Z</time>
      </trkpt>
      <trkpt lat="44.35358" lon="5.61712">
        <ele>845.2</ele>
        <time>2021-09-07T17:56:05Z</time>
      </trkpt>
      <trkpt lat="44.35356" lon="5.61714">
        <ele>845.4</ele>
        <time>2021-09-07T17:56:06Z</time>
      </trkpt>
      <trkpt lat="44.35356" lon="5.61714">
        <ele>845.4</ele>
        <time>2021-09-07T17:56:07Z</time>
      </trkpt>
      <trkpt lat="44.35356" lon="5.61714">
        <ele>845.4</ele>
        <time>2021-09-07T17:56:08Z</time>
      </trkpt>
      <trkpt lat="44.35356" lon="5.61715">
        <ele>845.5</ele>
        <time>2021-09-07T17:56:09Z</time>
      </trkpt>
      <trkpt lat="44.35355" lon="5.61715">
        <ele>845.5</ele>
        <time>2021-09-07T17:56:10Z</time>
      </trkpt>
      <trkpt lat="44.35354" lon="5.61716">
        <ele>845.6</ele>
        <time>2021-09-07T17:56:11Z</time>
      </trkpt>
      <trkpt lat="44.35354" lon="5.61717">
        <ele>845.7</ele>
        <time>2021-09-07T17:56:12Z</time>
      </trkpt>
      <trkpt lat="44.35354" lon="5.61717">
        <ele>845.7</ele>
        <time>2021-09-07T17:56:13Z</time>
      </trkpt>
      <trkpt lat="44.35354" lon="5.61718">
        <ele>845.8</ele>
        <time>2021-09-07T17:56:14Z</time>
      </trkpt>
      <trkpt lat="44.35353" lon="5.6172">
        <ele>845.9</ele>
        <time>2021-09-07T17:56:15Z</time>
      </trkpt>
      <trkpt lat="44.35353" lon="5.61722">
        <ele>846.1</ele>
        <time>2021-09-07T17:56:16Z</time>
      </trkpt>
      <trkpt lat="44.35353" lon="5.61723">
        <ele>846.1</ele>
        <time>2021-09-07T17:56:17Z</time>
      </trkpt>
      <trkpt lat="44.35353" lon="5.61725">
        <ele>846.2</ele>
        <time>2021-09-07T17:56:18Z</time>
      </trkpt>
      <trkpt lat="44.35352" lon="5.61726">
        <ele>846.3</ele>
        <time>2021-09-07T17:56:19Z</time>
      </trkpt>
      <trkpt lat="44.3535" lon="5.61731">
        <ele>846.7</ele>
        <time>2021-09-07T17:56:20Z</time>
      </trkpt>
      <trkpt lat="44.3535" lon="5.61733">
        <ele>846.9</ele>
        <time>2021-09-07T17:56:21Z</time>
      </trkpt>
      <trkpt lat="44.35349" lon="5.61735">
        <ele>847.1</ele>
        <time>2021-09-07T17:56:22Z</time>
      </trkpt>
      <trkpt lat="44.35348" lon="5.61738">
        <ele>847.3</ele>
        <time>2021-09-07T17:56:23Z</time>
      </trkpt>
      <trkpt lat="44.35348" lon="5.61739">
        <ele>847.4</ele>
        <time>2021-09-07T17:56:24Z</time>
      </trkpt>
      <trkpt lat="44.35348" lon="5.6174">
        <ele>847.4</ele>
        <time>2021-09-07T17:56:25Z</time>
      </trkpt>
      <trkpt lat="44.35348" lon="5.61742">
        <ele>847.6</ele>
        <time>2021-09-07T17:56:26Z</time>
      </trkpt>
      <trkpt lat="44.35348" lon="5.61743">
        <ele>847.6</ele>
        <time>2021-09-07T17:56:27Z</time>
      </trkpt>
      <trkpt lat="44.35347" lon="5.61743">
        <ele>847.7</ele>
        <time>2021-09-07T17:56:28Z</time>
      </trkpt>
      <trkpt lat="44.35347" lon="5.61743">
        <ele>847.7</ele>
        <time>2021-09-07T17:56:29Z</time>
      </trkpt>
      <trkpt lat="44.35346" lon="5.61743">
        <ele>847.8</ele>
        <time>2021-09-07T17:56:30Z</time>
      </trkpt>
      <trkpt lat="44.35346" lon="5.61744">
        <ele>847.8</ele>
        <time>2021-09-07T17:56:31Z</time>
      </trkpt>
      <trkpt lat="44.35346" lon="5.61744">
        <ele>847.9</ele>
        <time>2021-09-07T17:56:32Z</time>
      </trkpt>
      <trkpt lat="44.35346" lon="5.61744">
        <ele>847.9</ele>
        <time>2021-09-07T17:56:33Z</time>
      </trkpt>
      <trkpt lat="44.35346" lon="5.61744">
        <ele>847.9</ele>
        <time>2021-09-07T17:56:34Z</time>
      </trkpt>
      <trkpt lat="44.35346" lon="5.61744">
        <ele>847.9</ele>
        <time>2021-09-07T17:56:35Z</time>
      </trkpt>
      <trkpt lat="44.35346" lon="5.61745">
        <ele>847.9</ele>
        <time>2021-09-07T17:56:36Z</time>
      </trkpt>
      <trkpt lat="44.35346" lon="5.61745">
        <ele>847.9</ele>
        <time>2021-09-07T17:56:37Z</time>
      </trkpt>
      <trkpt lat="44.35346" lon="5.61745">
        <ele>847.9</ele>
        <time>2021-09-07T17:56:38Z</time>
      </trkpt>
      <trkpt lat="44.35346" lon="5.61745">
        <ele>847.9</ele>
        <time>2021-09-07T17:56:39Z</time>
      </trkpt>
      <trkpt lat="44.35346" lon="5.61745">
        <ele>847.9</ele>
        <time>2021-09-07T17:56:40Z</time>
      </trkpt>
      <trkpt lat="44.35346" lon="5.61745">
        <ele>847.9</ele>
        <time>2021-09-07T17:56:41Z</time>
      </trkpt>
      <trkpt lat="44.35346" lon="5.61745">
        <ele>847.9</ele>
        <time>2021-09-07T17:56:42Z</time>
      </trkpt>
      <trkpt lat="44.35346" lon="5.61746">
        <ele>848</ele>
        <time>2021-09-07T17:56:43Z</time>
      </trkpt>
      <trkpt lat="44.35346" lon="5.61747">
        <ele>848.1</ele>
        <time>2021-09-07T17:56:44Z</time>
      </trkpt>
      <trkpt lat="44.35347" lon="5.6175">
        <ele>848.3</ele>
        <time>2021-09-07T17:56:45Z</time>
      </trkpt>
      <trkpt lat="44.35348" lon="5.61752">
        <ele>848.4</ele>
        <time>2021-09-07T17:56:46Z</time>
      </trkpt>
      <trkpt lat="44.35348" lon="5.61753">
        <ele>848.6</ele>
        <time>2021-09-07T17:56:47Z</time>
      </trkpt>
      <trkpt lat="44.35349" lon="5.61756">
        <ele>848.8</ele>
        <time>2021-09-07T17:56:48Z</time>
      </trkpt>
      <trkpt lat="44.3535" lon="5.61758">
        <ele>849</ele>
        <time>2021-09-07T17:56:49Z</time>
      </trkpt>
      <trkpt lat="44.3535" lon="5.6176">
        <ele>849.1</ele>
        <time>2021-09-07T17:56:50Z</time>
      </trkpt>
      <trkpt lat="44.35352" lon="5.61764">
        <ele>849.5</ele>
        <time>2021-09-07T17:56:51Z</time>
      </trkpt>
      <trkpt lat="44.35353" lon="5.61766">
        <ele>849.6</ele>
        <time>2021-09-07T17:56:52Z</time>
      </trkpt>
      <trkpt lat="44.35354" lon="5.61768">
        <ele>849.8</ele>
        <time>2021-09-07T17:56:53Z</time>
      </trkpt>
      <trkpt lat="44.35355" lon="5.61771">
        <ele>850.1</ele>
        <time>2021-09-07T17:56:54Z</time>
      </trkpt>
      <trkpt lat="44.35356" lon="5.61773">
        <ele>850.2</ele>
        <time>2021-09-07T17:56:55Z</time>
      </trkpt>
      <trkpt lat="44.35357" lon="5.61775">
        <ele>850.4</ele>
        <time>2021-09-07T17:56:56Z</time>
      </trkpt>
      <trkpt lat="44.35357" lon="5.61776">
        <ele>850.4</ele>
        <time>2021-09-07T17:56:57Z</time>
      </trkpt>
      <trkpt lat="44.35357" lon="5.61776">
        <ele>850.5</ele>
        <time>2021-09-07T17:56:58Z</time>
      </trkpt>
      <trkpt lat="44.35358" lon="5.61777">
        <ele>850.5</ele>
        <time>2021-09-07T17:56:59Z</time>
      </trkpt>
      <trkpt lat="44.35359" lon="5.61778">
        <ele>850.6</ele>
        <time>2021-09-07T17:57:00Z</time>
      </trkpt>
      <trkpt lat="44.3536" lon="5.61779">
        <ele>850.7</ele>
        <time>2021-09-07T17:57:01Z</time>
      </trkpt>
      <trkpt lat="44.3536" lon="5.6178">
        <ele>850.8</ele>
        <time>2021-09-07T17:57:02Z</time>
      </trkpt>
      <trkpt lat="44.3536" lon="5.61781">
        <ele>850.8</ele>
        <time>2021-09-07T17:57:03Z</time>
      </trkpt>
      <trkpt lat="44.35361" lon="5.61783">
        <ele>851</ele>
        <time>2021-09-07T17:57:04Z</time>
      </trkpt>
      <trkpt lat="44.35361" lon="5.61784">
        <ele>851.1</ele>
        <time>2021-09-07T17:57:05Z</time>
      </trkpt>
      <trkpt lat="44.35362" lon="5.61785">
        <ele>851.2</ele>
        <time>2021-09-07T17:57:06Z</time>
      </trkpt>
      <trkpt lat="44.35362" lon="5.61786">
        <ele>851.2</ele>
        <time>2021-09-07T17:57:07Z</time>
      </trkpt>
      <trkpt lat="44.35362" lon="5.61786">
        <ele>851.3</ele>
        <time>2021-09-07T17:57:08Z</time>
      </trkpt>
      <trkpt lat="44.35362" lon="5.61787">
        <ele>851.3</ele>
        <time>2021-09-07T17:57:09Z</time>
      </trkpt>
      <trkpt lat="44.35362" lon="5.61787">
        <ele>851.3</ele>
        <time>2021-09-07T17:57:10Z</time>
      </trkpt>
      <trkpt lat="44.35362" lon="5.61788">
        <ele>851.4</ele>
        <time>2021-09-07T17:57:11Z</time>
      </trkpt>
      <trkpt lat="44.35362" lon="5.61789">
        <ele>851.4</ele>
        <time>2021-09-07T17:57:12Z</time>
      </trkpt>
      <trkpt lat="44.35362" lon="5.61789">
        <ele>851.5</ele>
        <time>2021-09-07T17:57:13Z</time>
      </trkpt>
      <trkpt lat="44.3536" lon="5.61791">
        <ele>851.7</ele>
        <time>2021-09-07T17:57:14Z</time>
      </trkpt>
      <trkpt lat="44.35359" lon="5.61793">
        <ele>851.9</ele>
        <time>2021-09-07T17:57:15Z</time>
      </trkpt>
      <trkpt lat="44.35358" lon="5.61794">
        <ele>852</ele>
        <time>2021-09-07T17:57:16Z</time>
      </trkpt>
      <trkpt lat="44.35358" lon="5.61795">
        <ele>852</ele>
        <time>2021-09-07T17:57:17Z</time>
      </trkpt>
      <trkpt lat="44.35357" lon="5.61796">
        <ele>852.1</ele>
        <time>2021-09-07T17:57:18Z</time>
      </trkpt>
      <trkpt lat="44.35357" lon="5.61797">
        <ele>852.1</ele>
        <time>2021-09-07T17:57:19Z</time>
      </trkpt>
      <trkpt lat="44.35357" lon="5.61799">
        <ele>852.3</ele>
        <time>2021-09-07T17:57:20Z</time>
      </trkpt>
      <trkpt lat="44.35356" lon="5.618">
        <ele>852.4</ele>
        <time>2021-09-07T17:57:21Z</time>
      </trkpt>
      <trkpt lat="44.35356" lon="5.618">
        <ele>852.4</ele>
        <time>2021-09-07T17:57:22Z</time>
      </trkpt>
      <trkpt lat="44.35356" lon="5.61801">
        <ele>852.4</ele>
        <time>2021-09-07T17:57:23Z</time>
      </trkpt>
      <trkpt lat="44.35356" lon="5.61801">
        <ele>852.4</ele>
        <time>2021-09-07T17:57:24Z</time>
      </trkpt>
      <trkpt lat="44.35356" lon="5.61802">
        <ele>852.5</ele>
        <time>2021-09-07T17:57:25Z</time>
      </trkpt>
      <trkpt lat="44.35356" lon="5.61802">
        <ele>852.6</ele>
        <time>2021-09-07T17:57:26Z</time>
      </trkpt>
      <trkpt lat="44.35355" lon="5.61802">
        <ele>852.6</ele>
        <time>2021-09-07T17:57:27Z</time>
      </trkpt>
      <trkpt lat="44.35356" lon="5.61804">
        <ele>852.7</ele>
        <time>2021-09-07T17:57:28Z</time>
      </trkpt>
      <trkpt lat="44.35356" lon="5.61805">
        <ele>852.8</ele>
        <time>2021-09-07T17:57:29Z</time>
      </trkpt>
      <trkpt lat="44.35357" lon="5.61807">
        <ele>852.9</ele>
        <time>2021-09-07T17:57:30Z</time>
      </trkpt>
      <trkpt lat="44.35357" lon="5.6181">
        <ele>853.1</ele>
        <time>2021-09-07T17:57:31Z</time>
      </trkpt>
      <trkpt lat="44.35358" lon="5.61813">
        <ele>853.3</ele>
        <time>2021-09-07T17:57:32Z</time>
      </trkpt>
      <trkpt lat="44.35359" lon="5.61815">
        <ele>853.5</ele>
        <time>2021-09-07T17:57:33Z</time>
      </trkpt>
      <trkpt lat="44.3536" lon="5.61817">
        <ele>853.7</ele>
        <time>2021-09-07T17:57:34Z</time>
      </trkpt>
      <trkpt lat="44.35361" lon="5.6182">
        <ele>853.9</ele>
        <time>2021-09-07T17:57:35Z</time>
      </trkpt>
      <trkpt lat="44.35362" lon="5.61821">
        <ele>853.9</ele>
        <time>2021-09-07T17:57:36Z</time>
      </trkpt>
      <trkpt lat="44.35362" lon="5.61821">
        <ele>854</ele>
        <time>2021-09-07T17:57:37Z</time>
      </trkpt>
      <trkpt lat="44.35363" lon="5.61823">
        <ele>854.1</ele>
        <time>2021-09-07T17:57:38Z</time>
      </trkpt>
      <trkpt lat="44.35364" lon="5.61826">
        <ele>854.4</ele>
        <time>2021-09-07T17:57:39Z</time>
      </trkpt>
      <trkpt lat="44.35364" lon="5.61827">
        <ele>854.4</ele>
        <time>2021-09-07T17:57:40Z</time>
      </trkpt>
      <trkpt lat="44.35365" lon="5.61828">
        <ele>854.5</ele>
        <time>2021-09-07T17:57:41Z</time>
      </trkpt>
      <trkpt lat="44.35366" lon="5.6183">
        <ele>854.7</ele>
        <time>2021-09-07T17:57:42Z</time>
      </trkpt>
      <trkpt lat="44.35366" lon="5.61832">
        <ele>854.8</ele>
        <time>2021-09-07T17:57:43Z</time>
      </trkpt>
      <trkpt lat="44.35367" lon="5.61834">
        <ele>854.9</ele>
        <time>2021-09-07T17:57:44Z</time>
      </trkpt>
      <trkpt lat="44.35368" lon="5.61835">
        <ele>855.1</ele>
        <time>2021-09-07T17:57:45Z</time>
      </trkpt>
      <trkpt lat="44.35369" lon="5.61836">
        <ele>855.2</ele>
        <time>2021-09-07T17:57:46Z</time>
      </trkpt>
      <trkpt lat="44.3537" lon="5.61838">
        <ele>855.3</ele>
        <time>2021-09-07T17:57:47Z</time>
      </trkpt>
      <trkpt lat="44.3537" lon="5.61839">
        <ele>855.4</ele>
        <time>2021-09-07T17:57:48Z</time>
      </trkpt>
      <trkpt lat="44.3537" lon="5.6184">
        <ele>855.5</ele>
        <time>2021-09-07T17:57:49Z</time>
      </trkpt>
      <trkpt lat="44.3537" lon="5.61841">
        <ele>855.5</ele>
        <time>2021-09-07T17:57:50Z</time>
      </trkpt>
      <trkpt lat="44.35371" lon="5.61841">
        <ele>855.6</ele>
        <time>2021-09-07T17:57:51Z</time>
      </trkpt>
      <trkpt lat="44.35371" lon="5.61841">
        <ele>855.6</ele>
        <time>2021-09-07T17:57:52Z</time>
      </trkpt>
      <trkpt lat="44.35371" lon="5.61842">
        <ele>855.6</ele>
        <time>2021-09-07T17:57:53Z</time>
      </trkpt>
      <trkpt lat="44.35371" lon="5.61842">
        <ele>855.6</ele>
        <time>2021-09-07T17:57:54Z</time>
      </trkpt>
      <trkpt lat="44.35371" lon="5.61842">
        <ele>855.6</ele>
        <time>2021-09-07T17:57:55Z</time>
      </trkpt>
      <trkpt lat="44.35371" lon="5.61844">
        <ele>855.7</ele>
        <time>2021-09-07T17:57:56Z</time>
      </trkpt>
      <trkpt lat="44.35372" lon="5.61846">
        <ele>855.9</ele>
        <time>2021-09-07T17:57:57Z</time>
      </trkpt>
      <trkpt lat="44.35373" lon="5.61849">
        <ele>856.1</ele>
        <time>2021-09-07T17:57:58Z</time>
      </trkpt>
      <trkpt lat="44.35374" lon="5.61851">
        <ele>856.2</ele>
        <time>2021-09-07T17:57:59Z</time>
      </trkpt>
      <trkpt lat="44.35374" lon="5.61852">
        <ele>856.3</ele>
        <time>2021-09-07T17:58:00Z</time>
      </trkpt>
      <trkpt lat="44.35374" lon="5.61854">
        <ele>856.4</ele>
        <time>2021-09-07T17:58:01Z</time>
      </trkpt>
      <trkpt lat="44.35375" lon="5.61856">
        <ele>856.6</ele>
        <time>2021-09-07T17:58:02Z</time>
      </trkpt>
      <trkpt lat="44.35375" lon="5.61857">
        <ele>856.6</ele>
        <time>2021-09-07T17:58:03Z</time>
      </trkpt>
      <trkpt lat="44.35375" lon="5.61858">
        <ele>856.7</ele>
        <time>2021-09-07T17:58:04Z</time>
      </trkpt>
      <trkpt lat="44.35375" lon="5.61858">
        <ele>856.7</ele>
        <time>2021-09-07T17:58:05Z</time>
      </trkpt>
      <trkpt lat="44.35376" lon="5.61859">
        <ele>856.8</ele>
        <time>2021-09-07T17:58:06Z</time>
      </trkpt>
      <trkpt lat="44.35376" lon="5.6186">
        <ele>856.8</ele>
        <time>2021-09-07T17:58:07Z</time>
      </trkpt>
      <trkpt lat="44.35376" lon="5.6186">
        <ele>856.7</ele>
        <time>2021-09-07T17:58:08Z</time>
      </trkpt>
      <trkpt lat="44.35376" lon="5.6186">
        <ele>856.7</ele>
        <time>2021-09-07T17:58:09Z</time>
      </trkpt>
      <trkpt lat="44.35376" lon="5.61861">
        <ele>856.8</ele>
        <time>2021-09-07T17:58:10Z</time>
      </trkpt>
      <trkpt lat="44.35376" lon="5.61861">
        <ele>856.8</ele>
        <time>2021-09-07T17:58:11Z</time>
      </trkpt>
      <trkpt lat="44.35376" lon="5.61864">
        <ele>857</ele>
        <time>2021-09-07T17:58:12Z</time>
      </trkpt>
      <trkpt lat="44.35376" lon="5.61869">
        <ele>857.3</ele>
        <time>2021-09-07T17:58:13Z</time>
      </trkpt>
      <trkpt lat="44.35376" lon="5.61872">
        <ele>857.5</ele>
        <time>2021-09-07T17:58:14Z</time>
      </trkpt>
      <trkpt lat="44.35376" lon="5.61874">
        <ele>857.6</ele>
        <time>2021-09-07T17:58:15Z</time>
      </trkpt>
      <trkpt lat="44.35376" lon="5.61875">
        <ele>857.7</ele>
        <time>2021-09-07T17:58:16Z</time>
      </trkpt>
      <trkpt lat="44.35376" lon="5.61877">
        <ele>857.8</ele>
        <time>2021-09-07T17:58:17Z</time>
      </trkpt>
      <trkpt lat="44.35376" lon="5.61879">
        <ele>857.9</ele>
        <time>2021-09-07T17:58:18Z</time>
      </trkpt>
      <trkpt lat="44.35375" lon="5.61881">
        <ele>858</ele>
        <time>2021-09-07T17:58:19Z</time>
      </trkpt>
      <trkpt lat="44.35375" lon="5.61882">
        <ele>858.1</ele>
        <time>2021-09-07T17:58:20Z</time>
      </trkpt>
      <trkpt lat="44.35375" lon="5.61882">
        <ele>858</ele>
        <time>2021-09-07T17:58:21Z</time>
      </trkpt>
      <trkpt lat="44.35375" lon="5.61882">
        <ele>858</ele>
        <time>2021-09-07T17:58:22Z</time>
      </trkpt>
      <trkpt lat="44.35375" lon="5.61883">
        <ele>858.1</ele>
        <time>2021-09-07T17:58:23Z</time>
      </trkpt>
      <trkpt lat="44.35375" lon="5.61883">
        <ele>858.1</ele>
        <time>2021-09-07T17:58:24Z</time>
      </trkpt>
      <trkpt lat="44.35375" lon="5.61883">
        <ele>858.1</ele>
        <time>2021-09-07T17:58:25Z</time>
      </trkpt>
      <trkpt lat="44.35375" lon="5.61883">
        <ele>858.1</ele>
        <time>2021-09-07T17:58:26Z</time>
      </trkpt>
      <trkpt lat="44.35375" lon="5.61883">
        <ele>858.1</ele>
        <time>2021-09-07T17:58:27Z</time>
      </trkpt>
      <trkpt lat="44.35375" lon="5.61885">
        <ele>858.2</ele>
        <time>2021-09-07T17:58:28Z</time>
      </trkpt>
      <trkpt lat="44.35374" lon="5.61887">
        <ele>858.3</ele>
        <time>2021-09-07T17:58:29Z</time>
      </trkpt>
      <trkpt lat="44.35373" lon="5.6189">
        <ele>858.5</ele>
        <time>2021-09-07T17:58:30Z</time>
      </trkpt>
      <trkpt lat="44.35373" lon="5.61891">
        <ele>858.6</ele>
        <time>2021-09-07T17:58:31Z</time>
      </trkpt>
      <trkpt lat="44.35373" lon="5.61892">
        <ele>858.7</ele>
        <time>2021-09-07T17:58:32Z</time>
      </trkpt>
      <trkpt lat="44.35372" lon="5.61894">
        <ele>858.8</ele>
        <time>2021-09-07T17:58:33Z</time>
      </trkpt>
      <trkpt lat="44.35371" lon="5.61895">
        <ele>858.9</ele>
        <time>2021-09-07T17:58:34Z</time>
      </trkpt>
      <trkpt lat="44.35371" lon="5.61897">
        <ele>859</ele>
        <time>2021-09-07T17:58:35Z</time>
      </trkpt>
      <trkpt lat="44.3537" lon="5.61898">
        <ele>859.1</ele>
        <time>2021-09-07T17:58:36Z</time>
      </trkpt>
      <trkpt lat="44.35368" lon="5.61901">
        <ele>859.4</ele>
        <time>2021-09-07T17:58:37Z</time>
      </trkpt>
      <trkpt lat="44.35368" lon="5.61902">
        <ele>859.4</ele>
        <time>2021-09-07T17:58:38Z</time>
      </trkpt>
      <trkpt lat="44.35367" lon="5.61903">
        <ele>859.5</ele>
        <time>2021-09-07T17:58:39Z</time>
      </trkpt>
      <trkpt lat="44.35366" lon="5.61905">
        <ele>859.7</ele>
        <time>2021-09-07T17:58:40Z</time>
      </trkpt>
      <trkpt lat="44.35365" lon="5.61906">
        <ele>859.8</ele>
        <time>2021-09-07T17:58:41Z</time>
      </trkpt>
      <trkpt lat="44.35364" lon="5.61907">
        <ele>859.9</ele>
        <time>2021-09-07T17:58:42Z</time>
      </trkpt>
      <trkpt lat="44.35363" lon="5.61908">
        <ele>860</ele>
        <time>2021-09-07T17:58:43Z</time>
      </trkpt>
      <trkpt lat="44.35362" lon="5.61909">
        <ele>860.1</ele>
        <time>2021-09-07T17:58:44Z</time>
      </trkpt>
      <trkpt lat="44.35362" lon="5.6191">
        <ele>860.2</ele>
        <time>2021-09-07T17:58:45Z</time>
      </trkpt>
      <trkpt lat="44.35362" lon="5.61911">
        <ele>860.2</ele>
        <time>2021-09-07T17:58:46Z</time>
      </trkpt>
      <trkpt lat="44.35361" lon="5.61911">
        <ele>860.3</ele>
        <time>2021-09-07T17:58:47Z</time>
      </trkpt>
      <trkpt lat="44.3536" lon="5.61913">
        <ele>860.4</ele>
        <time>2021-09-07T17:58:48Z</time>
      </trkpt>
      <trkpt lat="44.35358" lon="5.61915">
        <ele>860.7</ele>
        <time>2021-09-07T17:58:49Z</time>
      </trkpt>
      <trkpt lat="44.35358" lon="5.61916">
        <ele>860.7</ele>
        <time>2021-09-07T17:58:50Z</time>
      </trkpt>
      <trkpt lat="44.35357" lon="5.61917">
        <ele>860.8</ele>
        <time>2021-09-07T17:58:51Z</time>
      </trkpt>
      <trkpt lat="44.35356" lon="5.61919">
        <ele>861</ele>
        <time>2021-09-07T17:58:52Z</time>
      </trkpt>
      <trkpt lat="44.35355" lon="5.6192">
        <ele>861.1</ele>
        <time>2021-09-07T17:58:53Z</time>
      </trkpt>
      <trkpt lat="44.35354" lon="5.61921">
        <ele>861.2</ele>
        <time>2021-09-07T17:58:54Z</time>
      </trkpt>
      <trkpt lat="44.35353" lon="5.61922">
        <ele>861.3</ele>
        <time>2021-09-07T17:58:55Z</time>
      </trkpt>
      <trkpt lat="44.35351" lon="5.61924">
        <ele>861.5</ele>
        <time>2021-09-07T17:58:56Z</time>
      </trkpt>
      <trkpt lat="44.3535" lon="5.61925">
        <ele>861.6</ele>
        <time>2021-09-07T17:58:57Z</time>
      </trkpt>
      <trkpt lat="44.3535" lon="5.61925">
        <ele>861.7</ele>
        <time>2021-09-07T17:58:58Z</time>
      </trkpt>
      <trkpt lat="44.3535" lon="5.61926">
        <ele>861.7</ele>
        <time>2021-09-07T17:58:59Z</time>
      </trkpt>
      <trkpt lat="44.3535" lon="5.61926">
        <ele>861.7</ele>
        <time>2021-09-07T17:59:00Z</time>
      </trkpt>
      <trkpt lat="44.35349" lon="5.61927">
        <ele>861.8</ele>
        <time>2021-09-07T17:59:01Z</time>
      </trkpt>
      <trkpt lat="44.35349" lon="5.61928">
        <ele>861.8</ele>
        <time>2021-09-07T17:59:02Z</time>
      </trkpt>
      <trkpt lat="44.35349" lon="5.61928">
        <ele>861.9</ele>
        <time>2021-09-07T17:59:03Z</time>
      </trkpt>
      <trkpt lat="44.35349" lon="5.61929">
        <ele>861.9</ele>
        <time>2021-09-07T17:59:04Z</time>
      </trkpt>
      <trkpt lat="44.35349" lon="5.61929">
        <ele>862</ele>
        <time>2021-09-07T17:59:05Z</time>
      </trkpt>
      <trkpt lat="44.35348" lon="5.6193">
        <ele>862</ele>
        <time>2021-09-07T17:59:06Z</time>
      </trkpt>
      <trkpt lat="44.35348" lon="5.6193">
        <ele>862</ele>
        <time>2021-09-07T17:59:07Z</time>
      </trkpt>
      <trkpt lat="44.35348" lon="5.61931">
        <ele>862.1</ele>
        <time>2021-09-07T17:59:08Z</time>
      </trkpt>
      <trkpt lat="44.35348" lon="5.61932">
        <ele>862.1</ele>
        <time>2021-09-07T17:59:09Z</time>
      </trkpt>
      <trkpt lat="44.35348" lon="5.61932">
        <ele>862.2</ele>
        <time>2021-09-07T17:59:10Z</time>
      </trkpt>
      <trkpt lat="44.35347" lon="5.61933">
        <ele>862.2</ele>
        <time>2021-09-07T17:59:11Z</time>
      </trkpt>
      <trkpt lat="44.35347" lon="5.61933">
        <ele>862.3</ele>
        <time>2021-09-07T17:59:12Z</time>
      </trkpt>
      <trkpt lat="44.35347" lon="5.61934">
        <ele>862.3</ele>
        <time>2021-09-07T17:59:13Z</time>
      </trkpt>
      <trkpt lat="44.35347" lon="5.61935">
        <ele>862.4</ele>
        <time>2021-09-07T17:59:14Z</time>
      </trkpt>
      <trkpt lat="44.35346" lon="5.61935">
        <ele>862.4</ele>
        <time>2021-09-07T17:59:15Z</time>
      </trkpt>
      <trkpt lat="44.35346" lon="5.61936">
        <ele>862.4</ele>
        <time>2021-09-07T17:59:16Z</time>
      </trkpt>
      <trkpt lat="44.35346" lon="5.61936">
        <ele>862.5</ele>
        <time>2021-09-07T17:59:17Z</time>
      </trkpt>
      <trkpt lat="44.35346" lon="5.61937">
        <ele>862.5</ele>
        <time>2021-09-07T17:59:18Z</time>
      </trkpt>
      <trkpt lat="44.35346" lon="5.61937">
        <ele>862.6</ele>
        <time>2021-09-07T17:59:19Z</time>
      </trkpt>
      <trkpt lat="44.35345" lon="5.61938">
        <ele>862.6</ele>
        <time>2021-09-07T17:59:20Z</time>
      </trkpt>
      <trkpt lat="44.35345" lon="5.61939">
        <ele>862.7</ele>
        <time>2021-09-07T17:59:21Z</time>
      </trkpt>
      <trkpt lat="44.35345" lon="5.61939">
        <ele>862.7</ele>
        <time>2021-09-07T17:59:22Z</time>
      </trkpt>
      <trkpt lat="44.35345" lon="5.6194">
        <ele>862.8</ele>
        <time>2021-09-07T17:59:23Z</time>
      </trkpt>
      <trkpt lat="44.35344" lon="5.6194">
        <ele>862.8</ele>
        <time>2021-09-07T17:59:24Z</time>
      </trkpt>
      <trkpt lat="44.35344" lon="5.61941">
        <ele>862.8</ele>
        <time>2021-09-07T17:59:25Z</time>
      </trkpt>
      <trkpt lat="44.35344" lon="5.61942">
        <ele>862.9</ele>
        <time>2021-09-07T17:59:26Z</time>
      </trkpt>
      <trkpt lat="44.35343" lon="5.61949">
        <ele>863.4</ele>
        <time>2021-09-07T17:59:27Z</time>
      </trkpt>
      <trkpt lat="44.35342" lon="5.61958">
        <ele>864.1</ele>
        <time>2021-09-07T17:59:28Z</time>
      </trkpt>
      <trkpt lat="44.35342" lon="5.61961">
        <ele>864.4</ele>
        <time>2021-09-07T17:59:29Z</time>
      </trkpt>
      <trkpt lat="44.35342" lon="5.61964">
        <ele>864.6</ele>
        <time>2021-09-07T17:59:30Z</time>
      </trkpt>
      <trkpt lat="44.35341" lon="5.61966">
        <ele>864.8</ele>
        <time>2021-09-07T17:59:31Z</time>
      </trkpt>
      <trkpt lat="44.3534" lon="5.61967">
        <ele>865</ele>
        <time>2021-09-07T17:59:32Z</time>
      </trkpt>
      <trkpt lat="44.35339" lon="5.61967">
        <ele>865.1</ele>
        <time>2021-09-07T17:59:33Z</time>
      </trkpt>
      <trkpt lat="44.35339" lon="5.61966">
        <ele>865.2</ele>
        <time>2021-09-07T17:59:34Z</time>
      </trkpt>
      <trkpt lat="44.35338" lon="5.61965">
        <ele>865.3</ele>
        <time>2021-09-07T17:59:35Z</time>
      </trkpt>
      <trkpt lat="44.35338" lon="5.61965">
        <ele>865.4</ele>
        <time>2021-09-07T17:59:36Z</time>
      </trkpt>
      <trkpt lat="44.35337" lon="5.61965">
        <ele>865.4</ele>
        <time>2021-09-07T17:59:37Z</time>
      </trkpt>
      <trkpt lat="44.35337" lon="5.61965">
        <ele>865.4</ele>
        <time>2021-09-07T17:59:38Z</time>
      </trkpt>
      <trkpt lat="44.35337" lon="5.61965">
        <ele>865.4</ele>
        <time>2021-09-07T17:59:39Z</time>
      </trkpt>
      <trkpt lat="44.35337" lon="5.61965">
        <ele>865.4</ele>
        <time>2021-09-07T17:59:40Z</time>
      </trkpt>
      <trkpt lat="44.35337" lon="5.61965">
        <ele>865.4</ele>
        <time>2021-09-07T17:59:41Z</time>
      </trkpt>
      <trkpt lat="44.35337" lon="5.61965">
        <ele>865.4</ele>
        <time>2021-09-07T17:59:42Z</time>
      </trkpt>
      <trkpt lat="44.35337" lon="5.61965">
        <ele>865.4</ele>
        <time>2021-09-07T17:59:43Z</time>
      </trkpt>
      <trkpt lat="44.35337" lon="5.61965">
        <ele>865.4</ele>
        <time>2021-09-07T17:59:44Z</time>
      </trkpt>
      <trkpt lat="44.35337" lon="5.61965">
        <ele>865.4</ele>
        <time>2021-09-07T17:59:45Z</time>
      </trkpt>
      <trkpt lat="44.35337" lon="5.61965">
        <ele>865.4</ele>
        <time>2021-09-07T17:59:46Z</time>
      </trkpt>
      <trkpt lat="44.35337" lon="5.61965">
        <ele>865.4</ele>
        <time>2021-09-07T17:59:47Z</time>
      </trkpt>
      <trkpt lat="44.35337" lon="5.61965">
        <ele>865.4</ele>
        <time>2021-09-07T17:59:48Z</time>
      </trkpt>
      <trkpt lat="44.35337" lon="5.61965">
        <ele>865.4</ele>
        <time>2021-09-07T17:59:49Z</time>
      </trkpt>
      <trkpt lat="44.35337" lon="5.61965">
        <ele>865.4</ele>
        <time>2021-09-07T17:59:50Z</time>
      </trkpt>
      <trkpt lat="44.35337" lon="5.61965">
        <ele>865.4</ele>
        <time>2021-09-07T17:59:51Z</time>
      </trkpt>
      <trkpt lat="44.35337" lon="5.61965">
        <ele>865.4</ele>
        <time>2021-09-07T17:59:52Z</time>
      </trkpt>
      <trkpt lat="44.35337" lon="5.61965">
        <ele>865.4</ele>
        <time>2021-09-07T17:59:53Z</time>
      </trkpt>
      <trkpt lat="44.35337" lon="5.61965">
        <ele>865.4</ele>
        <time>2021-09-07T17:59:54Z</time>
      </trkpt>
      <trkpt lat="44.35337" lon="5.61965">
        <ele>865.4</ele>
        <time>2021-09-07T17:59:55Z</time>
      </trkpt>
      <trkpt lat="44.35337" lon="5.61965">
        <ele>865.4</ele>
        <time>2021-09-07T17:59:56Z</time>
      </trkpt>
      <trkpt lat="44.35337" lon="5.61965">
        <ele>865.4</ele>
        <time>2021-09-07T17:59:57Z</time>
      </trkpt>
      <trkpt lat="44.35337" lon="5.61965">
        <ele>865.4</ele>
        <time>2021-09-07T17:59:58Z</time>
      </trkpt>
      <trkpt lat="44.35334" lon="5.61963">
        <ele>865.9</ele>
        <time>2021-09-07T17:59:59Z</time>
      </trkpt>
      <trkpt lat="44.35331" lon="5.6196">
        <ele>866.3</ele>
        <time>2021-09-07T18:00:00Z</time>
      </trkpt>
      <trkpt lat="44.3533" lon="5.6196">
        <ele>866.5</ele>
        <time>2021-09-07T18:00:01Z</time>
      </trkpt>
      <trkpt lat="44.35329" lon="5.61959">
        <ele>866.6</ele>
        <time>2021-09-07T18:00:02Z</time>
      </trkpt>
      <trkpt lat="44.35329" lon="5.61959">
        <ele>866.6</ele>
        <time>2021-09-07T18:00:03Z</time>
      </trkpt>
      <trkpt lat="44.35329" lon="5.61959">
        <ele>866.6</ele>
        <time>2021-09-07T18:00:04Z</time>
      </trkpt>
      <trkpt lat="44.35329" lon="5.61959">
        <ele>866.6</ele>
        <time>2021-09-07T18:00:05Z</time>
      </trkpt>
      <trkpt lat="44.35329" lon="5.61959">
        <ele>866.6</ele>
        <time>2021-09-07T18:00:06Z</time>
      </trkpt>
      <trkpt lat="44.35329" lon="5.61959">
        <ele>866.6</ele>
        <time>2021-09-07T18:00:07Z</time>
      </trkpt>
      <trkpt lat="44.35329" lon="5.61959">
        <ele>866.6</ele>
        <time>2021-09-07T18:00:08Z</time>
      </trkpt>
      <trkpt lat="44.35329" lon="5.61959">
        <ele>866.6</ele>
        <time>2021-09-07T18:00:09Z</time>
      </trkpt>
      <trkpt lat="44.35328" lon="5.61959">
        <ele>866.7</ele>
        <time>2021-09-07T18:00:10Z</time>
      </trkpt>
      <trkpt lat="44.35328" lon="5.61959">
        <ele>866.7</ele>
        <time>2021-09-07T18:00:11Z</time>
      </trkpt>
      <trkpt lat="44.35328" lon="5.61959">
        <ele>866.7</ele>
        <time>2021-09-07T18:00:12Z</time>
      </trkpt>
      <trkpt lat="44.35328" lon="5.61959">
        <ele>866.7</ele>
        <time>2021-09-07T18:00:13Z</time>
      </trkpt>
      <trkpt lat="44.35328" lon="5.61959">
        <ele>866.7</ele>
        <time>2021-09-07T18:00:14Z</time>
      </trkpt>
      <trkpt lat="44.35328" lon="5.61959">
        <ele>866.7</ele>
        <time>2021-09-07T18:00:15Z</time>
      </trkpt>
      <trkpt lat="44.35328" lon="5.61959">
        <ele>866.7</ele>
        <time>2021-09-07T18:00:16Z</time>
      </trkpt>
      <trkpt lat="44.35328" lon="5.61959">
        <ele>866.7</ele>
        <time>2021-09-07T18:00:17Z</time>
      </trkpt>
      <trkpt lat="44.35328" lon="5.61959">
        <ele>866.7</ele>
        <time>2021-09-07T18:00:18Z</time>
      </trkpt>
      <trkpt lat="44.35328" lon="5.61959">
        <ele>866.7</ele>
        <time>2021-09-07T18:00:19Z</time>
      </trkpt>
      <trkpt lat="44.35328" lon="5.61959">
        <ele>866.7</ele>
        <time>2021-09-07T18:00:20Z</time>
      </trkpt>
      <trkpt lat="44.35328" lon="5.61959">
        <ele>866.7</ele>
        <time>2021-09-07T18:00:21Z</time>
      </trkpt>
      <trkpt lat="44.35328" lon="5.61959">
        <ele>866.7</ele>
        <time>2021-09-07T18:00:22Z</time>
      </trkpt>
      <trkpt lat="44.35328" lon="5.61959">
        <ele>866.7</ele>
        <time>2021-09-07T18:00:23Z</time>
      </trkpt>
      <trkpt lat="44.35328" lon="5.61959">
        <ele>866.7</ele>
        <time>2021-09-07T18:00:24Z</time>
      </trkpt>
      <trkpt lat="44.35328" lon="5.61959">
        <ele>866.7</ele>
        <time>2021-09-07T18:00:25Z</time>
      </trkpt>
      <trkpt lat="44.35328" lon="5.61959">
        <ele>866.7</ele>
        <time>2021-09-07T18:00:26Z</time>
      </trkpt>
      <trkpt lat="44.35328" lon="5.61959">
        <ele>866.7</ele>
        <time>2021-09-07T18:00:27Z</time>
      </trkpt>
      <trkpt lat="44.35328" lon="5.61959">
        <ele>866.7</ele>
        <time>2021-09-07T18:00:28Z</time>
      </trkpt>
      <trkpt lat="44.35328" lon="5.61959">
        <ele>866.7</ele>
        <time>2021-09-07T18:00:29Z</time>
      </trkpt>
      <trkpt lat="44.35328" lon="5.61959">
        <ele>866.7</ele>
        <time>2021-09-07T18:00:30Z</time>
      </trkpt>
      <trkpt lat="44.35328" lon="5.61959">
        <ele>866.7</ele>
        <time>2021-09-07T18:00:31Z</time>
      </trkpt>
      <trkpt lat="44.35328" lon="5.61959">
        <ele>866.7</ele>
        <time>2021-09-07T18:00:32Z</time>
      </trkpt>
      <trkpt lat="44.3533" lon="5.61957">
        <ele>867.1</ele>
        <time>2021-09-07T18:00:33Z</time>
      </trkpt>
      <trkpt lat="44.35332" lon="5.61955">
        <ele>867.4</ele>
        <time>2021-09-07T18:00:34Z</time>
      </trkpt>
      <trkpt lat="44.35334" lon="5.61952">
        <ele>867.8</ele>
        <time>2021-09-07T18:00:35Z</time>
      </trkpt>
      <trkpt lat="44.35336" lon="5.61948">
        <ele>868.3</ele>
        <time>2021-09-07T18:00:36Z</time>
      </trkpt>
      <trkpt lat="44.35337" lon="5.61947">
        <ele>868.4</ele>
        <time>2021-09-07T18:00:37Z</time>
      </trkpt>
      <trkpt lat="44.35338" lon="5.61946">
        <ele>868.6</ele>
        <time>2021-09-07T18:00:38Z</time>
      </trkpt>
      <trkpt lat="44.35339" lon="5.61946">
        <ele>868.7</ele>
        <time>2021-09-07T18:00:39Z</time>
      </trkpt>
      <trkpt lat="44.3534" lon="5.61946">
        <ele>868.8</ele>
        <time>2021-09-07T18:00:40Z</time>
      </trkpt>
      <trkpt lat="44.3534" lon="5.61945">
        <ele>868.9</ele>
        <time>2021-09-07T18:00:41Z</time>
      </trkpt>
      <trkpt lat="44.35341" lon="5.61945">
        <ele>869</ele>
        <time>2021-09-07T18:00:42Z</time>
      </trkpt>
      <trkpt lat="44.35341" lon="5.61945">
        <ele>869</ele>
        <time>2021-09-07T18:00:43Z</time>
      </trkpt>
      <trkpt lat="44.35341" lon="5.61945">
        <ele>869</ele>
        <time>2021-09-07T18:00:44Z</time>
      </trkpt>
      <trkpt lat="44.3534" lon="5.61945">
        <ele>869.2</ele>
        <time>2021-09-07T18:00:45Z</time>
      </trkpt>
      <trkpt lat="44.3534" lon="5.61945">
        <ele>869.2</ele>
        <time>2021-09-07T18:00:46Z</time>
      </trkpt>
      <trkpt lat="44.3534" lon="5.61945">
        <ele>869.2</ele>
        <time>2021-09-07T18:00:47Z</time>
      </trkpt>
      <trkpt lat="44.3534" lon="5.61945">
        <ele>869.2</ele>
        <time>2021-09-07T18:00:48Z</time>
      </trkpt>
      <trkpt lat="44.3534" lon="5.61945">
        <ele>869.2</ele>
        <time>2021-09-07T18:00:49Z</time>
      </trkpt>
      <trkpt lat="44.3534" lon="5.61945">
        <ele>869.2</ele>
        <time>2021-09-07T18:00:50Z</time>
      </trkpt>
      <trkpt lat="44.3534" lon="5.61945">
        <ele>869.2</ele>
        <time>2021-09-07T18:00:51Z</time>
      </trkpt>
      <trkpt lat="44.3534" lon="5.61945">
        <ele>869.2</ele>
        <time>2021-09-07T18:00:52Z</time>
      </trkpt>
      <trkpt lat="44.3534" lon="5.61945">
        <ele>869.2</ele>
        <time>2021-09-07T18:00:53Z</time>
      </trkpt>
      <trkpt lat="44.3534" lon="5.61945">
        <ele>869.2</ele>
        <time>2021-09-07T18:00:54Z</time>
      </trkpt>
      <trkpt lat="44.3534" lon="5.61945">
        <ele>869.2</ele>
        <time>2021-09-07T18:00:55Z</time>
      </trkpt>
      <trkpt lat="44.3534" lon="5.61945">
        <ele>869.2</ele>
        <time>2021-09-07T18:00:56Z</time>
      </trkpt>
      <trkpt lat="44.3534" lon="5.61945">
        <ele>869.2</ele>
        <time>2021-09-07T18:00:57Z</time>
      </trkpt>
      <trkpt lat="44.3534" lon="5.61945">
        <ele>869.2</ele>
        <time>2021-09-07T18:00:58Z</time>
      </trkpt>
      <trkpt lat="44.3534" lon="5.61945">
        <ele>869.2</ele>
        <time>2021-09-07T18:00:59Z</time>
      </trkpt>
      <trkpt lat="44.3534" lon="5.61945">
        <ele>869.2</ele>
        <time>2021-09-07T18:01:00Z</time>
      </trkpt>
      <trkpt lat="44.3534" lon="5.61945">
        <ele>869.2</ele>
        <time>2021-09-07T18:01:01Z</time>
      </trkpt>
      <trkpt lat="44.3534" lon="5.61945">
        <ele>869.2</ele>
        <time>2021-09-07T18:01:02Z</time>
      </trkpt>
      <trkpt lat="44.3534" lon="5.61945">
        <ele>869.2</ele>
        <time>2021-09-07T18:01:03Z</time>
      </trkpt>
      <trkpt lat="44.3534" lon="5.61945">
        <ele>869.2</ele>
        <time>2021-09-07T18:01:04Z</time>
      </trkpt>
      <trkpt lat="44.3534" lon="5.61945">
        <ele>869.2</ele>
        <time>2021-09-07T18:01:05Z</time>
      </trkpt>
      <trkpt lat="44.3534" lon="5.61945">
        <ele>869.2</ele>
        <time>2021-09-07T18:01:06Z</time>
      </trkpt>
      <trkpt lat="44.3534" lon="5.61945">
        <ele>869.2</ele>
        <time>2021-09-07T18:01:07Z</time>
      </trkpt>
      <trkpt lat="44.3534" lon="5.61945">
        <ele>869.2</ele>
        <time>2021-09-07T18:01:08Z</time>
      </trkpt>
      <trkpt lat="44.3534" lon="5.61945">
        <ele>869.2</ele>
        <time>2021-09-07T18:01:09Z</time>
      </trkpt>
      <trkpt lat="44.3534" lon="5.61945">
        <ele>869.2</ele>
        <time>2021-09-07T18:01:10Z</time>
      </trkpt>
      <trkpt lat="44.3534" lon="5.61945">
        <ele>869.2</ele>
        <time>2021-09-07T18:01:11Z</time>
      </trkpt>
      <trkpt lat="44.3534" lon="5.61945">
        <ele>869.2</ele>
        <time>2021-09-07T18:01:12Z</time>
      </trkpt>
      <trkpt lat="44.3534" lon="5.61945">
        <ele>869.2</ele>
        <time>2021-09-07T18:01:13Z</time>
      </trkpt>
      <trkpt lat="44.3534" lon="5.61945">
        <ele>869.2</ele>
        <time>2021-09-07T18:01:14Z</time>
      </trkpt>
      <trkpt lat="44.3534" lon="5.61945">
        <ele>869.2</ele>
        <time>2021-09-07T18:01:15Z</time>
      </trkpt>
      <trkpt lat="44.3534" lon="5.61945">
        <ele>869.2</ele>
        <time>2021-09-07T18:01:16Z</time>
      </trkpt>
      <trkpt lat="44.3534" lon="5.61945">
        <ele>869.2</ele>
        <time>2021-09-07T18:01:17Z</time>
      </trkpt>
      <trkpt lat="44.3534" lon="5.61945">
        <ele>869.2</ele>
        <time>2021-09-07T18:01:18Z</time>
      </trkpt>
      <trkpt lat="44.3534" lon="5.61945">
        <ele>869.2</ele>
        <time>2021-09-07T18:01:19Z</time>
      </trkpt>
      <trkpt lat="44.3534" lon="5.61945">
        <ele>869.2</ele>
        <time>2021-09-07T18:01:20Z</time>
      </trkpt>
      <trkpt lat="44.3534" lon="5.61945">
        <ele>869.2</ele>
        <time>2021-09-07T18:01:21Z</time>
      </trkpt>
      <trkpt lat="44.3534" lon="5.61945">
        <ele>869.2</ele>
        <time>2021-09-07T18:01:22Z</time>
      </trkpt>
      <trkpt lat="44.3534" lon="5.61945">
        <ele>869.2</ele>
        <time>2021-09-07T18:01:23Z</time>
      </trkpt>
      <trkpt lat="44.3534" lon="5.61945">
        <ele>869.2</ele>
        <time>2021-09-07T18:01:24Z</time>
      </trkpt>
      <trkpt lat="44.3534" lon="5.61945">
        <ele>869.2</ele>
        <time>2021-09-07T18:01:25Z</time>
      </trkpt>
      <trkpt lat="44.3534" lon="5.61945">
        <ele>869.2</ele>
        <time>2021-09-07T18:01:26Z</time>
      </trkpt>
      <trkpt lat="44.3534" lon="5.61946">
        <ele>869.2</ele>
        <time>2021-09-07T18:01:27Z</time>
      </trkpt>
      <trkpt lat="44.3534" lon="5.61946">
        <ele>869.3</ele>
        <time>2021-09-07T18:01:28Z</time>
      </trkpt>
      <trkpt lat="44.3534" lon="5.61946">
        <ele>869.3</ele>
        <time>2021-09-07T18:01:29Z</time>
      </trkpt>
      <trkpt lat="44.35341" lon="5.61945">
        <ele>869.4</ele>
        <time>2021-09-07T18:01:30Z</time>
      </trkpt>
      <trkpt lat="44.35341" lon="5.61945">
        <ele>869.4</ele>
        <time>2021-09-07T18:01:31Z</time>
      </trkpt>
      <trkpt lat="44.35341" lon="5.61945">
        <ele>869.4</ele>
        <time>2021-09-07T18:01:32Z</time>
      </trkpt>
      <trkpt lat="44.35341" lon="5.61945">
        <ele>869.4</ele>
        <time>2021-09-07T18:01:33Z</time>
      </trkpt>
      <trkpt lat="44.35341" lon="5.61945">
        <ele>869.4</ele>
        <time>2021-09-07T18:01:34Z</time>
      </trkpt>
      <trkpt lat="44.35341" lon="5.61945">
        <ele>869.4</ele>
        <time>2021-09-07T18:01:35Z</time>
      </trkpt>
      <trkpt lat="44.35341" lon="5.61945">
        <ele>869.4</ele>
        <time>2021-09-07T18:01:36Z</time>
      </trkpt>
      <trkpt lat="44.3534" lon="5.61944">
        <ele>869.6</ele>
        <time>2021-09-07T18:01:37Z</time>
      </trkpt>
      <trkpt lat="44.35339" lon="5.61943">
        <ele>869.8</ele>
        <time>2021-09-07T18:01:38Z</time>
      </trkpt>
      <trkpt lat="44.35339" lon="5.61942">
        <ele>869.9</ele>
        <time>2021-09-07T18:01:39Z</time>
      </trkpt>
      <trkpt lat="44.35338" lon="5.61941">
        <ele>870</ele>
        <time>2021-09-07T18:01:40Z</time>
      </trkpt>
      <trkpt lat="44.35337" lon="5.61941">
        <ele>870.1</ele>
        <time>2021-09-07T18:01:41Z</time>
      </trkpt>
      <trkpt lat="44.35336" lon="5.6194">
        <ele>870.3</ele>
        <time>2021-09-07T18:01:42Z</time>
      </trkpt>
      <trkpt lat="44.35336" lon="5.6194">
        <ele>870.3</ele>
        <time>2021-09-07T18:01:43Z</time>
      </trkpt>
      <trkpt lat="44.35335" lon="5.61939">
        <ele>870.4</ele>
        <time>2021-09-07T18:01:44Z</time>
      </trkpt>
      <trkpt lat="44.35335" lon="5.61939">
        <ele>870.4</ele>
        <time>2021-09-07T18:01:45Z</time>
      </trkpt>
      <trkpt lat="44.35335" lon="5.61939">
        <ele>870.5</ele>
        <time>2021-09-07T18:01:46Z</time>
      </trkpt>
      <trkpt lat="44.35334" lon="5.61938">
        <ele>870.6</ele>
        <time>2021-09-07T18:01:47Z</time>
      </trkpt>
      <trkpt lat="44.35334" lon="5.61938">
        <ele>870.7</ele>
        <time>2021-09-07T18:01:48Z</time>
      </trkpt>
      <trkpt lat="44.35333" lon="5.61937">
        <ele>870.7</ele>
        <time>2021-09-07T18:01:49Z</time>
      </trkpt>
      <trkpt lat="44.35333" lon="5.61937">
        <ele>870.7</ele>
        <time>2021-09-07T18:01:50Z</time>
      </trkpt>
      <trkpt lat="44.35333" lon="5.61937">
        <ele>870.7</ele>
        <time>2021-09-07T18:01:51Z</time>
      </trkpt>
      <trkpt lat="44.35333" lon="5.61937">
        <ele>870.7</ele>
        <time>2021-09-07T18:01:52Z</time>
      </trkpt>
      <trkpt lat="44.35333" lon="5.61937">
        <ele>870.7</ele>
        <time>2021-09-07T18:01:53Z</time>
      </trkpt>
      <trkpt lat="44.35332" lon="5.61936">
        <ele>870.9</ele>
        <time>2021-09-07T18:01:54Z</time>
      </trkpt>
      <trkpt lat="44.35332" lon="5.61936">
        <ele>870.9</ele>
        <time>2021-09-07T18:01:55Z</time>
      </trkpt>
      <trkpt lat="44.35332" lon="5.61936">
        <ele>870.9</ele>
        <time>2021-09-07T18:01:56Z</time>
      </trkpt>
      <trkpt lat="44.35332" lon="5.61936">
        <ele>870.9</ele>
        <time>2021-09-07T18:01:57Z</time>
      </trkpt>
      <trkpt lat="44.35331" lon="5.61936">
        <ele>871</ele>
        <time>2021-09-07T18:01:58Z</time>
      </trkpt>
      <trkpt lat="44.35331" lon="5.61936">
        <ele>871.1</ele>
        <time>2021-09-07T18:01:59Z</time>
      </trkpt>
      <trkpt lat="44.35331" lon="5.61935">
        <ele>871.1</ele>
        <time>2021-09-07T18:02:00Z</time>
      </trkpt>
      <trkpt lat="44.3533" lon="5.61935">
        <ele>871.2</ele>
        <time>2021-09-07T18:02:01Z</time>
      </trkpt>
      <trkpt lat="44.35329" lon="5.61935">
        <ele>871.3</ele>
        <time>2021-09-07T18:02:02Z</time>
      </trkpt>
      <trkpt lat="44.35328" lon="5.61935">
        <ele>871.5</ele>
        <time>2021-09-07T18:02:03Z</time>
      </trkpt>
      <trkpt lat="44.35327" lon="5.61934">
        <ele>871.6</ele>
        <time>2021-09-07T18:02:04Z</time>
      </trkpt>
      <trkpt lat="44.35325" lon="5.61934">
        <ele>871.8</ele>
        <time>2021-09-07T18:02:05Z</time>
      </trkpt>
      <trkpt lat="44.35323" lon="5.61934">
        <ele>872</ele>
        <time>2021-09-07T18:02:06Z</time>
      </trkpt>
      <trkpt lat="44.35321" lon="5.61933">
        <ele>872.3</ele>
        <time>2021-09-07T18:02:07Z</time>
      </trkpt>
      <trkpt lat="44.35319" lon="5.61933">
        <ele>872.5</ele>
        <time>2021-09-07T18:02:08Z</time>
      </trkpt>
      <trkpt lat="44.35317" lon="5.61933">
        <ele>872.7</ele>
        <time>2021-09-07T18:02:09Z</time>
      </trkpt>
      <trkpt lat="44.35314" lon="5.61935">
        <ele>873.1</ele>
        <time>2021-09-07T18:02:10Z</time>
      </trkpt>
      <trkpt lat="44.35311" lon="5.61936">
        <ele>873.4</ele>
        <time>2021-09-07T18:02:11Z</time>
      </trkpt>
      <trkpt lat="44.35311" lon="5.61936">
        <ele>873.5</ele>
        <time>2021-09-07T18:02:12Z</time>
      </trkpt>
      <trkpt lat="44.3531" lon="5.61936">
        <ele>873.5</ele>
        <time>2021-09-07T18:02:13Z</time>
      </trkpt>
      <trkpt lat="44.35309" lon="5.61937">
        <ele>873.7</ele>
        <time>2021-09-07T18:02:14Z</time>
      </trkpt>
      <trkpt lat="44.35309" lon="5.61937">
        <ele>873.7</ele>
        <time>2021-09-07T18:02:15Z</time>
      </trkpt>
      <trkpt lat="44.35309" lon="5.61938">
        <ele>873.8</ele>
        <time>2021-09-07T18:02:16Z</time>
      </trkpt>
      <trkpt lat="44.35309" lon="5.61938">
        <ele>873.8</ele>
        <time>2021-09-07T18:02:17Z</time>
      </trkpt>
      <trkpt lat="44.35307" lon="5.61938">
        <ele>874</ele>
        <time>2021-09-07T18:02:18Z</time>
      </trkpt>
      <trkpt lat="44.35307" lon="5.61939">
        <ele>874</ele>
        <time>2021-09-07T18:02:19Z</time>
      </trkpt>
      <trkpt lat="44.35306" lon="5.61939">
        <ele>874.1</ele>
        <time>2021-09-07T18:02:20Z</time>
      </trkpt>
      <trkpt lat="44.35306" lon="5.61939">
        <ele>874.1</ele>
        <time>2021-09-07T18:02:21Z</time>
      </trkpt>
      <trkpt lat="44.35306" lon="5.6194">
        <ele>874.2</ele>
        <time>2021-09-07T18:02:22Z</time>
      </trkpt>
      <trkpt lat="44.35305" lon="5.6194">
        <ele>874.2</ele>
        <time>2021-09-07T18:02:23Z</time>
      </trkpt>
      <trkpt lat="44.35305" lon="5.6194">
        <ele>874.2</ele>
        <time>2021-09-07T18:02:24Z</time>
      </trkpt>
      <trkpt lat="44.35305" lon="5.6194">
        <ele>874.2</ele>
        <time>2021-09-07T18:02:25Z</time>
      </trkpt>
      <trkpt lat="44.35305" lon="5.6194">
        <ele>874.2</ele>
        <time>2021-09-07T18:02:26Z</time>
      </trkpt>
      <trkpt lat="44.35305" lon="5.6194">
        <ele>874.2</ele>
        <time>2021-09-07T18:02:27Z</time>
      </trkpt>
      <trkpt lat="44.35304" lon="5.6194">
        <ele>874.3</ele>
        <time>2021-09-07T18:02:28Z</time>
      </trkpt>
      <trkpt lat="44.35303" lon="5.61941">
        <ele>874.5</ele>
        <time>2021-09-07T18:02:29Z</time>
      </trkpt>
      <trkpt lat="44.35302" lon="5.61942">
        <ele>874.6</ele>
        <time>2021-09-07T18:02:30Z</time>
      </trkpt>
      <trkpt lat="44.353" lon="5.61943">
        <ele>874.8</ele>
        <time>2021-09-07T18:02:31Z</time>
      </trkpt>
      <trkpt lat="44.35299" lon="5.61944">
        <ele>875</ele>
        <time>2021-09-07T18:02:32Z</time>
      </trkpt>
      <trkpt lat="44.35298" lon="5.61944">
        <ele>875.1</ele>
        <time>2021-09-07T18:02:33Z</time>
      </trkpt>
      <trkpt lat="44.35296" lon="5.61946">
        <ele>875.4</ele>
        <time>2021-09-07T18:02:34Z</time>
      </trkpt>
      <trkpt lat="44.35294" lon="5.61946">
        <ele>875.6</ele>
        <time>2021-09-07T18:02:35Z</time>
      </trkpt>
      <trkpt lat="44.35293" lon="5.61947">
        <ele>875.7</ele>
        <time>2021-09-07T18:02:36Z</time>
      </trkpt>
      <trkpt lat="44.35292" lon="5.61947">
        <ele>875.8</ele>
        <time>2021-09-07T18:02:37Z</time>
      </trkpt>
      <trkpt lat="44.3529" lon="5.61948">
        <ele>876.1</ele>
        <time>2021-09-07T18:02:38Z</time>
      </trkpt>
      <trkpt lat="44.3529" lon="5.61948">
        <ele>876.1</ele>
        <time>2021-09-07T18:02:39Z</time>
      </trkpt>
      <trkpt lat="44.35289" lon="5.61948">
        <ele>876.2</ele>
        <time>2021-09-07T18:02:40Z</time>
      </trkpt>
      <trkpt lat="44.35288" lon="5.61948">
        <ele>876.3</ele>
        <time>2021-09-07T18:02:41Z</time>
      </trkpt>
      <trkpt lat="44.35287" lon="5.61949">
        <ele>876.5</ele>
        <time>2021-09-07T18:02:42Z</time>
      </trkpt>
      <trkpt lat="44.35286" lon="5.61949">
        <ele>876.6</ele>
        <time>2021-09-07T18:02:43Z</time>
      </trkpt>
      <trkpt lat="44.35285" lon="5.61949">
        <ele>876.7</ele>
        <time>2021-09-07T18:02:44Z</time>
      </trkpt>
      <trkpt lat="44.35285" lon="5.6195">
        <ele>876.8</ele>
        <time>2021-09-07T18:02:45Z</time>
      </trkpt>
      <trkpt lat="44.35284" lon="5.6195">
        <ele>876.8</ele>
        <time>2021-09-07T18:02:46Z</time>
      </trkpt>
      <trkpt lat="44.35284" lon="5.6195">
        <ele>876.8</ele>
        <time>2021-09-07T18:02:47Z</time>
      </trkpt>
      <trkpt lat="44.35284" lon="5.6195">
        <ele>876.8</ele>
        <time>2021-09-07T18:02:48Z</time>
      </trkpt>
      <trkpt lat="44.35284" lon="5.6195">
        <ele>876.9</ele>
        <time>2021-09-07T18:02:49Z</time>
      </trkpt>
      <trkpt lat="44.35283" lon="5.6195">
        <ele>877</ele>
        <time>2021-09-07T18:02:50Z</time>
      </trkpt>
      <trkpt lat="44.35283" lon="5.61951">
        <ele>877</ele>
        <time>2021-09-07T18:02:51Z</time>
      </trkpt>
      <trkpt lat="44.35283" lon="5.61951">
        <ele>877</ele>
        <time>2021-09-07T18:02:52Z</time>
      </trkpt>
      <trkpt lat="44.35283" lon="5.61951">
        <ele>877</ele>
        <time>2021-09-07T18:02:53Z</time>
      </trkpt>
      <trkpt lat="44.35283" lon="5.61951">
        <ele>877</ele>
        <time>2021-09-07T18:02:54Z</time>
      </trkpt>
      <trkpt lat="44.35283" lon="5.61951">
        <ele>877</ele>
        <time>2021-09-07T18:02:55Z</time>
      </trkpt>
      <trkpt lat="44.35283" lon="5.61951">
        <ele>877</ele>
        <time>2021-09-07T18:02:56Z</time>
      </trkpt>
      <trkpt lat="44.35283" lon="5.61951">
        <ele>877</ele>
        <time>2021-09-07T18:02:57Z</time>
      </trkpt>
      <trkpt lat="44.35283" lon="5.61951">
        <ele>877</ele>
        <time>2021-09-07T18:02:58Z</time>
      </trkpt>
      <trkpt lat="44.35283" lon="5.61951">
        <ele>877</ele>
        <time>2021-09-07T18:02:59Z</time>
      </trkpt>
      <trkpt lat="44.35283" lon="5.61951">
        <ele>877</ele>
        <time>2021-09-07T18:03:00Z</time>
      </trkpt>
      <trkpt lat="44.35283" lon="5.61951">
        <ele>877</ele>
        <time>2021-09-07T18:03:01Z</time>
      </trkpt>
      <trkpt lat="44.35283" lon="5.61951">
        <ele>877</ele>
        <time>2021-09-07T18:03:02Z</time>
      </trkpt>
      <trkpt lat="44.35283" lon="5.61951">
        <ele>877</ele>
        <time>2021-09-07T18:03:03Z</time>
      </trkpt>
      <trkpt lat="44.35282" lon="5.61952">
        <ele>877.2</ele>
        <time>2021-09-07T18:03:04Z</time>
      </trkpt>
      <trkpt lat="44.35281" lon="5.61952">
        <ele>877.3</ele>
        <time>2021-09-07T18:03:05Z</time>
      </trkpt>
      <trkpt lat="44.3528" lon="5.61952">
        <ele>877.4</ele>
        <time>2021-09-07T18:03:06Z</time>
      </trkpt>
      <trkpt lat="44.35279" lon="5.61953">
        <ele>877.5</ele>
        <time>2021-09-07T18:03:07Z</time>
      </trkpt>
      <trkpt lat="44.35278" lon="5.61954">
        <ele>877.7</ele>
        <time>2021-09-07T18:03:08Z</time>
      </trkpt>
      <trkpt lat="44.35277" lon="5.61955">
        <ele>877.8</ele>
        <time>2021-09-07T18:03:09Z</time>
      </trkpt>
      <trkpt lat="44.35275" lon="5.61955">
        <ele>878</ele>
        <time>2021-09-07T18:03:10Z</time>
      </trkpt>
      <trkpt lat="44.35274" lon="5.61955">
        <ele>878.1</ele>
        <time>2021-09-07T18:03:11Z</time>
      </trkpt>
      <trkpt lat="44.35273" lon="5.61955">
        <ele>878.2</ele>
        <time>2021-09-07T18:03:12Z</time>
      </trkpt>
      <trkpt lat="44.35273" lon="5.61955">
        <ele>878.2</ele>
        <time>2021-09-07T18:03:13Z</time>
      </trkpt>
      <trkpt lat="44.35272" lon="5.61955">
        <ele>878.3</ele>
        <time>2021-09-07T18:03:14Z</time>
      </trkpt>
      <trkpt lat="44.35272" lon="5.61955">
        <ele>878.3</ele>
        <time>2021-09-07T18:03:15Z</time>
      </trkpt>
      <trkpt lat="44.35272" lon="5.61955">
        <ele>878.3</ele>
        <time>2021-09-07T18:03:16Z</time>
      </trkpt>
      <trkpt lat="44.35272" lon="5.61955">
        <ele>878.3</ele>
        <time>2021-09-07T18:03:17Z</time>
      </trkpt>
      <trkpt lat="44.35272" lon="5.61955">
        <ele>878.3</ele>
        <time>2021-09-07T18:03:18Z</time>
      </trkpt>
      <trkpt lat="44.35272" lon="5.61955">
        <ele>878.3</ele>
        <time>2021-09-07T18:03:19Z</time>
      </trkpt>
      <trkpt lat="44.35272" lon="5.61955">
        <ele>878.3</ele>
        <time>2021-09-07T18:03:20Z</time>
      </trkpt>
      <trkpt lat="44.35272" lon="5.61955">
        <ele>878.3</ele>
        <time>2021-09-07T18:03:21Z</time>
      </trkpt>
      <trkpt lat="44.35272" lon="5.61955">
        <ele>878.3</ele>
        <time>2021-09-07T18:03:22Z</time>
      </trkpt>
      <trkpt lat="44.35272" lon="5.61955">
        <ele>878.3</ele>
        <time>2021-09-07T18:03:23Z</time>
      </trkpt>
      <trkpt lat="44.35272" lon="5.61955">
        <ele>878.3</ele>
        <time>2021-09-07T18:03:24Z</time>
      </trkpt>
      <trkpt lat="44.35272" lon="5.61955">
        <ele>878.3</ele>
        <time>2021-09-07T18:03:25Z</time>
      </trkpt>
      <trkpt lat="44.35272" lon="5.61955">
        <ele>878.3</ele>
        <time>2021-09-07T18:03:26Z</time>
      </trkpt>
      <trkpt lat="44.35272" lon="5.61955">
        <ele>878.3</ele>
        <time>2021-09-07T18:03:27Z</time>
      </trkpt>
      <trkpt lat="44.3527" lon="5.61957">
        <ele>878.6</ele>
        <time>2021-09-07T18:03:28Z</time>
      </trkpt>
      <trkpt lat="44.35267" lon="5.61959">
        <ele>878.8</ele>
        <time>2021-09-07T18:03:29Z</time>
      </trkpt>
      <trkpt lat="44.35266" lon="5.61959">
        <ele>878.9</ele>
        <time>2021-09-07T18:03:30Z</time>
      </trkpt>
      <trkpt lat="44.35263" lon="5.6196">
        <ele>879.1</ele>
        <time>2021-09-07T18:03:31Z</time>
      </trkpt>
      <trkpt lat="44.35261" lon="5.61961">
        <ele>879.3</ele>
        <time>2021-09-07T18:03:32Z</time>
      </trkpt>
      <trkpt lat="44.35261" lon="5.61962">
        <ele>879.3</ele>
        <time>2021-09-07T18:03:33Z</time>
      </trkpt>
      <trkpt lat="44.3526" lon="5.61962">
        <ele>879.4</ele>
        <time>2021-09-07T18:03:34Z</time>
      </trkpt>
      <trkpt lat="44.35259" lon="5.61962">
        <ele>879.5</ele>
        <time>2021-09-07T18:03:35Z</time>
      </trkpt>
      <trkpt lat="44.35258" lon="5.61962">
        <ele>879.5</ele>
        <time>2021-09-07T18:03:36Z</time>
      </trkpt>
      <trkpt lat="44.35256" lon="5.61963">
        <ele>879.7</ele>
        <time>2021-09-07T18:03:37Z</time>
      </trkpt>
      <trkpt lat="44.35256" lon="5.61964">
        <ele>879.7</ele>
        <time>2021-09-07T18:03:38Z</time>
      </trkpt>
      <trkpt lat="44.35255" lon="5.61964">
        <ele>879.7</ele>
        <time>2021-09-07T18:03:39Z</time>
      </trkpt>
      <trkpt lat="44.35255" lon="5.61965">
        <ele>879.8</ele>
        <time>2021-09-07T18:03:40Z</time>
      </trkpt>
      <trkpt lat="44.35254" lon="5.61966">
        <ele>879.8</ele>
        <time>2021-09-07T18:03:41Z</time>
      </trkpt>
      <trkpt lat="44.35254" lon="5.61968">
        <ele>879.9</ele>
        <time>2021-09-07T18:03:42Z</time>
      </trkpt>
      <trkpt lat="44.35254" lon="5.6197">
        <ele>880</ele>
        <time>2021-09-07T18:03:43Z</time>
      </trkpt>
      <trkpt lat="44.35254" lon="5.6197">
        <ele>880</ele>
        <time>2021-09-07T18:03:44Z</time>
      </trkpt>
      <trkpt lat="44.35254" lon="5.6197">
        <ele>880</ele>
        <time>2021-09-07T18:03:45Z</time>
      </trkpt>
      <trkpt lat="44.35254" lon="5.61971">
        <ele>880.1</ele>
        <time>2021-09-07T18:03:46Z</time>
      </trkpt>
      <trkpt lat="44.35254" lon="5.61972">
        <ele>880.1</ele>
        <time>2021-09-07T18:03:47Z</time>
      </trkpt>
      <trkpt lat="44.35254" lon="5.61973">
        <ele>880.2</ele>
        <time>2021-09-07T18:03:48Z</time>
      </trkpt>
      <trkpt lat="44.35254" lon="5.61974">
        <ele>880.2</ele>
        <time>2021-09-07T18:03:49Z</time>
      </trkpt>
      <trkpt lat="44.35254" lon="5.61976">
        <ele>880.3</ele>
        <time>2021-09-07T18:03:50Z</time>
      </trkpt>
      <trkpt lat="44.35254" lon="5.61977">
        <ele>880.3</ele>
        <time>2021-09-07T18:03:51Z</time>
      </trkpt>
      <trkpt lat="44.35253" lon="5.61978">
        <ele>880.4</ele>
        <time>2021-09-07T18:03:52Z</time>
      </trkpt>
      <trkpt lat="44.35253" lon="5.61981">
        <ele>880.6</ele>
        <time>2021-09-07T18:03:53Z</time>
      </trkpt>
      <trkpt lat="44.35252" lon="5.61983">
        <ele>880.7</ele>
        <time>2021-09-07T18:03:54Z</time>
      </trkpt>
      <trkpt lat="44.35252" lon="5.61984">
        <ele>880.8</ele>
        <time>2021-09-07T18:03:55Z</time>
      </trkpt>
      <trkpt lat="44.35251" lon="5.61985">
        <ele>880.8</ele>
        <time>2021-09-07T18:03:56Z</time>
      </trkpt>
      <trkpt lat="44.35249" lon="5.61986">
        <ele>881</ele>
        <time>2021-09-07T18:03:57Z</time>
      </trkpt>
      <trkpt lat="44.35248" lon="5.61988">
        <ele>881.1</ele>
        <time>2021-09-07T18:03:58Z</time>
      </trkpt>
      <trkpt lat="44.35247" lon="5.61989">
        <ele>881.2</ele>
        <time>2021-09-07T18:03:59Z</time>
      </trkpt>
      <trkpt lat="44.35246" lon="5.6199">
        <ele>881.3</ele>
        <time>2021-09-07T18:04:00Z</time>
      </trkpt>
      <trkpt lat="44.35245" lon="5.61991">
        <ele>881.4</ele>
        <time>2021-09-07T18:04:01Z</time>
      </trkpt>
      <trkpt lat="44.35244" lon="5.61992">
        <ele>881.5</ele>
        <time>2021-09-07T18:04:02Z</time>
      </trkpt>
      <trkpt lat="44.35244" lon="5.61993">
        <ele>881.6</ele>
        <time>2021-09-07T18:04:03Z</time>
      </trkpt>
      <trkpt lat="44.35243" lon="5.61993">
        <ele>881.7</ele>
        <time>2021-09-07T18:04:04Z</time>
      </trkpt>
      <trkpt lat="44.35242" lon="5.61994">
        <ele>881.8</ele>
        <time>2021-09-07T18:04:05Z</time>
      </trkpt>
      <trkpt lat="44.35241" lon="5.61996">
        <ele>881.9</ele>
        <time>2021-09-07T18:04:06Z</time>
      </trkpt>
      <trkpt lat="44.35241" lon="5.61997">
        <ele>882</ele>
        <time>2021-09-07T18:04:07Z</time>
      </trkpt>
      <trkpt lat="44.3524" lon="5.61998">
        <ele>882.1</ele>
        <time>2021-09-07T18:04:08Z</time>
      </trkpt>
      <trkpt lat="44.3524" lon="5.61999">
        <ele>882.1</ele>
        <time>2021-09-07T18:04:09Z</time>
      </trkpt>
      <trkpt lat="44.3524" lon="5.62">
        <ele>882.2</ele>
        <time>2021-09-07T18:04:10Z</time>
      </trkpt>
      <trkpt lat="44.35239" lon="5.62001">
        <ele>882.3</ele>
        <time>2021-09-07T18:04:11Z</time>
      </trkpt>
      <trkpt lat="44.35238" lon="5.62001">
        <ele>882.4</ele>
        <time>2021-09-07T18:04:12Z</time>
      </trkpt>
      <trkpt lat="44.35237" lon="5.62001">
        <ele>882.5</ele>
        <time>2021-09-07T18:04:13Z</time>
      </trkpt>
      <trkpt lat="44.35237" lon="5.62001">
        <ele>882.5</ele>
        <time>2021-09-07T18:04:14Z</time>
      </trkpt>
      <trkpt lat="44.35237" lon="5.62001">
        <ele>882.5</ele>
        <time>2021-09-07T18:04:15Z</time>
      </trkpt>
      <trkpt lat="44.35237" lon="5.62001">
        <ele>882.5</ele>
        <time>2021-09-07T18:04:16Z</time>
      </trkpt>
      <trkpt lat="44.35236" lon="5.62003">
        <ele>882.7</ele>
        <time>2021-09-07T18:04:17Z</time>
      </trkpt>
      <trkpt lat="44.35235" lon="5.62005">
        <ele>882.9</ele>
        <time>2021-09-07T18:04:18Z</time>
      </trkpt>
      <trkpt lat="44.35235" lon="5.62006">
        <ele>882.9</ele>
        <time>2021-09-07T18:04:19Z</time>
      </trkpt>
      <trkpt lat="44.35235" lon="5.62006">
        <ele>883</ele>
        <time>2021-09-07T18:04:20Z</time>
      </trkpt>
      <trkpt lat="44.35234" lon="5.62007">
        <ele>883.1</ele>
        <time>2021-09-07T18:04:21Z</time>
      </trkpt>
      <trkpt lat="44.35234" lon="5.62008">
        <ele>883.2</ele>
        <time>2021-09-07T18:04:22Z</time>
      </trkpt>
      <trkpt lat="44.35234" lon="5.62008">
        <ele>883.2</ele>
        <time>2021-09-07T18:04:23Z</time>
      </trkpt>
      <trkpt lat="44.35234" lon="5.62008">
        <ele>883.3</ele>
        <time>2021-09-07T18:04:24Z</time>
      </trkpt>
      <trkpt lat="44.35233" lon="5.62008">
        <ele>883.3</ele>
        <time>2021-09-07T18:04:25Z</time>
      </trkpt>
      <trkpt lat="44.35233" lon="5.62009">
        <ele>883.4</ele>
        <time>2021-09-07T18:04:26Z</time>
      </trkpt>
      <trkpt lat="44.35233" lon="5.62009">
        <ele>883.4</ele>
        <time>2021-09-07T18:04:27Z</time>
      </trkpt>
      <trkpt lat="44.35233" lon="5.62009">
        <ele>883.4</ele>
        <time>2021-09-07T18:04:28Z</time>
      </trkpt>
      <trkpt lat="44.35233" lon="5.62009">
        <ele>883.4</ele>
        <time>2021-09-07T18:04:29Z</time>
      </trkpt>
      <trkpt lat="44.35233" lon="5.62009">
        <ele>883.4</ele>
        <time>2021-09-07T18:04:30Z</time>
      </trkpt>
      <trkpt lat="44.35233" lon="5.62009">
        <ele>883.4</ele>
        <time>2021-09-07T18:04:31Z</time>
      </trkpt>
      <trkpt lat="44.35233" lon="5.62009">
        <ele>883.4</ele>
        <time>2021-09-07T18:04:32Z</time>
      </trkpt>
      <trkpt lat="44.35233" lon="5.62009">
        <ele>883.4</ele>
        <time>2021-09-07T18:04:33Z</time>
      </trkpt>
      <trkpt lat="44.35233" lon="5.62009">
        <ele>883.4</ele>
        <time>2021-09-07T18:04:34Z</time>
      </trkpt>
      <trkpt lat="44.35233" lon="5.6201">
        <ele>883.5</ele>
        <time>2021-09-07T18:04:35Z</time>
      </trkpt>
      <trkpt lat="44.35233" lon="5.6201">
        <ele>883.5</ele>
        <time>2021-09-07T18:04:36Z</time>
      </trkpt>
      <trkpt lat="44.35232" lon="5.62011">
        <ele>883.7</ele>
        <time>2021-09-07T18:04:37Z</time>
      </trkpt>
      <trkpt lat="44.35231" lon="5.62012">
        <ele>883.8</ele>
        <time>2021-09-07T18:04:38Z</time>
      </trkpt>
      <trkpt lat="44.35229" lon="5.62013">
        <ele>884.1</ele>
        <time>2021-09-07T18:04:39Z</time>
      </trkpt>
      <trkpt lat="44.35228" lon="5.62015">
        <ele>884.4</ele>
        <time>2021-09-07T18:04:40Z</time>
      </trkpt>
      <trkpt lat="44.35228" lon="5.62016">
        <ele>884.4</ele>
        <time>2021-09-07T18:04:41Z</time>
      </trkpt>
      <trkpt lat="44.35227" lon="5.62016">
        <ele>884.5</ele>
        <time>2021-09-07T18:04:42Z</time>
      </trkpt>
      <trkpt lat="44.35226" lon="5.62016">
        <ele>884.7</ele>
        <time>2021-09-07T18:04:43Z</time>
      </trkpt>
      <trkpt lat="44.35226" lon="5.62017">
        <ele>884.8</ele>
        <time>2021-09-07T18:04:44Z</time>
      </trkpt>
      <trkpt lat="44.35225" lon="5.62017">
        <ele>884.8</ele>
        <time>2021-09-07T18:04:45Z</time>
      </trkpt>
      <trkpt lat="44.35225" lon="5.62017">
        <ele>884.8</ele>
        <time>2021-09-07T18:04:46Z</time>
      </trkpt>
      <trkpt lat="44.35225" lon="5.62018">
        <ele>885</ele>
        <time>2021-09-07T18:04:47Z</time>
      </trkpt>
      <trkpt lat="44.35225" lon="5.62019">
        <ele>885</ele>
        <time>2021-09-07T18:04:48Z</time>
      </trkpt>
      <trkpt lat="44.35224" lon="5.62019">
        <ele>885.1</ele>
        <time>2021-09-07T18:04:49Z</time>
      </trkpt>
      <trkpt lat="44.35223" lon="5.6202">
        <ele>885.3</ele>
        <time>2021-09-07T18:04:50Z</time>
      </trkpt>
      <trkpt lat="44.35222" lon="5.6202">
        <ele>885.5</ele>
        <time>2021-09-07T18:04:51Z</time>
      </trkpt>
      <trkpt lat="44.35221" lon="5.62021">
        <ele>885.7</ele>
        <time>2021-09-07T18:04:52Z</time>
      </trkpt>
      <trkpt lat="44.35221" lon="5.62022">
        <ele>885.8</ele>
        <time>2021-09-07T18:04:53Z</time>
      </trkpt>
      <trkpt lat="44.3522" lon="5.62022">
        <ele>885.9</ele>
        <time>2021-09-07T18:04:54Z</time>
      </trkpt>
      <trkpt lat="44.3522" lon="5.62022">
        <ele>885.9</ele>
        <time>2021-09-07T18:04:55Z</time>
      </trkpt>
      <trkpt lat="44.3522" lon="5.62022">
        <ele>886</ele>
        <time>2021-09-07T18:04:56Z</time>
      </trkpt>
      <trkpt lat="44.35219" lon="5.62022">
        <ele>886</ele>
        <time>2021-09-07T18:04:57Z</time>
      </trkpt>
      <trkpt lat="44.35219" lon="5.62022">
        <ele>886</ele>
        <time>2021-09-07T18:04:58Z</time>
      </trkpt>
      <trkpt lat="44.35219" lon="5.62023">
        <ele>886.2</ele>
        <time>2021-09-07T18:04:59Z</time>
      </trkpt>
      <trkpt lat="44.35219" lon="5.62023">
        <ele>886.2</ele>
        <time>2021-09-07T18:05:00Z</time>
      </trkpt>
      <trkpt lat="44.35219" lon="5.62022">
        <ele>886.3</ele>
        <time>2021-09-07T18:05:01Z</time>
      </trkpt>
      <trkpt lat="44.35219" lon="5.62022">
        <ele>886.3</ele>
        <time>2021-09-07T18:05:02Z</time>
      </trkpt>
      <trkpt lat="44.35219" lon="5.62022">
        <ele>886.3</ele>
        <time>2021-09-07T18:05:03Z</time>
      </trkpt>
      <trkpt lat="44.35219" lon="5.62022">
        <ele>886.3</ele>
        <time>2021-09-07T18:05:04Z</time>
      </trkpt>
      <trkpt lat="44.35219" lon="5.62022">
        <ele>886.3</ele>
        <time>2021-09-07T18:05:05Z</time>
      </trkpt>
      <trkpt lat="44.35219" lon="5.62022">
        <ele>886.3</ele>
        <time>2021-09-07T18:05:06Z</time>
      </trkpt>
      <trkpt lat="44.35219" lon="5.62022">
        <ele>886.3</ele>
        <time>2021-09-07T18:05:07Z</time>
      </trkpt>
      <trkpt lat="44.35219" lon="5.62022">
        <ele>886.3</ele>
        <time>2021-09-07T18:05:08Z</time>
      </trkpt>
      <trkpt lat="44.35218" lon="5.62022">
        <ele>886.5</ele>
        <time>2021-09-07T18:05:09Z</time>
      </trkpt>
      <trkpt lat="44.35217" lon="5.62022">
        <ele>886.6</ele>
        <time>2021-09-07T18:05:10Z</time>
      </trkpt>
      <trkpt lat="44.35216" lon="5.62021">
        <ele>886.8</ele>
        <time>2021-09-07T18:05:11Z</time>
      </trkpt>
      <trkpt lat="44.35215" lon="5.62019">
        <ele>887.1</ele>
        <time>2021-09-07T18:05:12Z</time>
      </trkpt>
      <trkpt lat="44.35214" lon="5.62019">
        <ele>887.3</ele>
        <time>2021-09-07T18:05:13Z</time>
      </trkpt>
      <trkpt lat="44.35213" lon="5.62018">
        <ele>887.5</ele>
        <time>2021-09-07T18:05:14Z</time>
      </trkpt>
      <trkpt lat="44.35212" lon="5.62018">
        <ele>887.7</ele>
        <time>2021-09-07T18:05:15Z</time>
      </trkpt>
      <trkpt lat="44.35211" lon="5.62018">
        <ele>887.9</ele>
        <time>2021-09-07T18:05:16Z</time>
      </trkpt>
      <trkpt lat="44.35209" lon="5.62017">
        <ele>888.2</ele>
        <time>2021-09-07T18:05:17Z</time>
      </trkpt>
      <trkpt lat="44.35207" lon="5.62016">
        <ele>888.6</ele>
        <time>2021-09-07T18:05:18Z</time>
      </trkpt>
      <trkpt lat="44.35205" lon="5.62016">
        <ele>888.9</ele>
        <time>2021-09-07T18:05:19Z</time>
      </trkpt>
      <trkpt lat="44.35204" lon="5.62016">
        <ele>889.2</ele>
        <time>2021-09-07T18:05:20Z</time>
      </trkpt>
      <trkpt lat="44.35202" lon="5.62015">
        <ele>889.4</ele>
        <time>2021-09-07T18:05:21Z</time>
      </trkpt>
      <trkpt lat="44.35201" lon="5.62015">
        <ele>889.6</ele>
        <time>2021-09-07T18:05:22Z</time>
      </trkpt>
      <trkpt lat="44.352" lon="5.62015">
        <ele>889.8</ele>
        <time>2021-09-07T18:05:23Z</time>
      </trkpt>
      <trkpt lat="44.35198" lon="5.62014">
        <ele>890.1</ele>
        <time>2021-09-07T18:05:24Z</time>
      </trkpt>
      <trkpt lat="44.35197" lon="5.62014">
        <ele>890.3</ele>
        <time>2021-09-07T18:05:25Z</time>
      </trkpt>
      <trkpt lat="44.35195" lon="5.62014">
        <ele>890.6</ele>
        <time>2021-09-07T18:05:26Z</time>
      </trkpt>
      <trkpt lat="44.35194" lon="5.62014">
        <ele>890.7</ele>
        <time>2021-09-07T18:05:27Z</time>
      </trkpt>
      <trkpt lat="44.35193" lon="5.62013">
        <ele>890.9</ele>
        <time>2021-09-07T18:05:28Z</time>
      </trkpt>
      <trkpt lat="44.35192" lon="5.62014">
        <ele>891.1</ele>
        <time>2021-09-07T18:05:29Z</time>
      </trkpt>
      <trkpt lat="44.35191" lon="5.62014">
        <ele>891.2</ele>
        <time>2021-09-07T18:05:30Z</time>
      </trkpt>
      <trkpt lat="44.35189" lon="5.62015">
        <ele>891.5</ele>
        <time>2021-09-07T18:05:31Z</time>
      </trkpt>
      <trkpt lat="44.35189" lon="5.62015">
        <ele>891.5</ele>
        <time>2021-09-07T18:05:32Z</time>
      </trkpt>
      <trkpt lat="44.35189" lon="5.62015">
        <ele>891.6</ele>
        <time>2021-09-07T18:05:33Z</time>
      </trkpt>
      <trkpt lat="44.35188" lon="5.62015">
        <ele>891.7</ele>
        <time>2021-09-07T18:05:34Z</time>
      </trkpt>
      <trkpt lat="44.35187" lon="5.62016">
        <ele>891.8</ele>
        <time>2021-09-07T18:05:35Z</time>
      </trkpt>
      <trkpt lat="44.35186" lon="5.62016">
        <ele>891.9</ele>
        <time>2021-09-07T18:05:36Z</time>
      </trkpt>
      <trkpt lat="44.35184" lon="5.62016">
        <ele>892.2</ele>
        <time>2021-09-07T18:05:37Z</time>
      </trkpt>
      <trkpt lat="44.35182" lon="5.62016">
        <ele>892.4</ele>
        <time>2021-09-07T18:05:38Z</time>
      </trkpt>
      <trkpt lat="44.35182" lon="5.62016">
        <ele>892.4</ele>
        <time>2021-09-07T18:05:39Z</time>
      </trkpt>
      <trkpt lat="44.35182" lon="5.62016">
        <ele>892.4</ele>
        <time>2021-09-07T18:05:40Z</time>
      </trkpt>
      <trkpt lat="44.35182" lon="5.62015">
        <ele>892.5</ele>
        <time>2021-09-07T18:05:41Z</time>
      </trkpt>
      <trkpt lat="44.35182" lon="5.62015">
        <ele>892.5</ele>
        <time>2021-09-07T18:05:42Z</time>
      </trkpt>
      <trkpt lat="44.35182" lon="5.62016">
        <ele>892.6</ele>
        <time>2021-09-07T18:05:43Z</time>
      </trkpt>
      <trkpt lat="44.35182" lon="5.62016">
        <ele>892.7</ele>
        <time>2021-09-07T18:05:44Z</time>
      </trkpt>
      <trkpt lat="44.35181" lon="5.62016">
        <ele>892.7</ele>
        <time>2021-09-07T18:05:45Z</time>
      </trkpt>
      <trkpt lat="44.35181" lon="5.62016">
        <ele>892.7</ele>
        <time>2021-09-07T18:05:46Z</time>
      </trkpt>
      <trkpt lat="44.35181" lon="5.62016">
        <ele>892.7</ele>
        <time>2021-09-07T18:05:47Z</time>
      </trkpt>
      <trkpt lat="44.35181" lon="5.62016">
        <ele>892.7</ele>
        <time>2021-09-07T18:05:48Z</time>
      </trkpt>
      <trkpt lat="44.35181" lon="5.62016">
        <ele>892.7</ele>
        <time>2021-09-07T18:05:49Z</time>
      </trkpt>
      <trkpt lat="44.35181" lon="5.62016">
        <ele>892.7</ele>
        <time>2021-09-07T18:05:50Z</time>
      </trkpt>
      <trkpt lat="44.35181" lon="5.62016">
        <ele>892.7</ele>
        <time>2021-09-07T18:05:51Z</time>
      </trkpt>
      <trkpt lat="44.35181" lon="5.62016">
        <ele>892.7</ele>
        <time>2021-09-07T18:05:52Z</time>
      </trkpt>
      <trkpt lat="44.35181" lon="5.62016">
        <ele>892.7</ele>
        <time>2021-09-07T18:05:53Z</time>
      </trkpt>
      <trkpt lat="44.35181" lon="5.62016">
        <ele>892.7</ele>
        <time>2021-09-07T18:05:54Z</time>
      </trkpt>
      <trkpt lat="44.35181" lon="5.62016">
        <ele>892.7</ele>
        <time>2021-09-07T18:05:55Z</time>
      </trkpt>
      <trkpt lat="44.35181" lon="5.62016">
        <ele>892.7</ele>
        <time>2021-09-07T18:05:56Z</time>
      </trkpt>
      <trkpt lat="44.35181" lon="5.62016">
        <ele>892.7</ele>
        <time>2021-09-07T18:05:57Z</time>
      </trkpt>
      <trkpt lat="44.35181" lon="5.62016">
        <ele>892.7</ele>
        <time>2021-09-07T18:05:58Z</time>
      </trkpt>
      <trkpt lat="44.35181" lon="5.62016">
        <ele>892.7</ele>
        <time>2021-09-07T18:05:59Z</time>
      </trkpt>
      <trkpt lat="44.35181" lon="5.62016">
        <ele>892.7</ele>
        <time>2021-09-07T18:06:00Z</time>
      </trkpt>
      <trkpt lat="44.35181" lon="5.62016">
        <ele>892.7</ele>
        <time>2021-09-07T18:06:01Z</time>
      </trkpt>
      <trkpt lat="44.35181" lon="5.62016">
        <ele>892.7</ele>
        <time>2021-09-07T18:06:02Z</time>
      </trkpt>
      <trkpt lat="44.35181" lon="5.62016">
        <ele>892.7</ele>
        <time>2021-09-07T18:06:03Z</time>
      </trkpt>
      <trkpt lat="44.35181" lon="5.62016">
        <ele>892.7</ele>
        <time>2021-09-07T18:06:04Z</time>
      </trkpt>
      <trkpt lat="44.35181" lon="5.62016">
        <ele>892.7</ele>
        <time>2021-09-07T18:06:05Z</time>
      </trkpt>
      <trkpt lat="44.35181" lon="5.62016">
        <ele>892.7</ele>
        <time>2021-09-07T18:06:06Z</time>
      </trkpt>
      <trkpt lat="44.35181" lon="5.62016">
        <ele>892.7</ele>
        <time>2021-09-07T18:06:07Z</time>
      </trkpt>
      <trkpt lat="44.35181" lon="5.62016">
        <ele>892.7</ele>
        <time>2021-09-07T18:06:08Z</time>
      </trkpt>
      <trkpt lat="44.35181" lon="5.62016">
        <ele>892.7</ele>
        <time>2021-09-07T18:06:09Z</time>
      </trkpt>
      <trkpt lat="44.35181" lon="5.62016">
        <ele>892.7</ele>
        <time>2021-09-07T18:06:10Z</time>
      </trkpt>
      <trkpt lat="44.35181" lon="5.62016">
        <ele>892.7</ele>
        <time>2021-09-07T18:06:11Z</time>
      </trkpt>
      <trkpt lat="44.35181" lon="5.62016">
        <ele>892.7</ele>
        <time>2021-09-07T18:06:12Z</time>
      </trkpt>
      <trkpt lat="44.35181" lon="5.62016">
        <ele>892.7</ele>
        <time>2021-09-07T18:06:13Z</time>
      </trkpt>
      <trkpt lat="44.35181" lon="5.62016">
        <ele>892.7</ele>
        <time>2021-09-07T18:06:14Z</time>
      </trkpt>
      <trkpt lat="44.35181" lon="5.62016">
        <ele>892.7</ele>
        <time>2021-09-07T18:06:15Z</time>
      </trkpt>
      <trkpt lat="44.35181" lon="5.62016">
        <ele>892.7</ele>
        <time>2021-09-07T18:06:16Z</time>
      </trkpt>
      <trkpt lat="44.35181" lon="5.62016">
        <ele>892.7</ele>
        <time>2021-09-07T18:06:17Z</time>
      </trkpt>
      <trkpt lat="44.35181" lon="5.62016">
        <ele>892.7</ele>
        <time>2021-09-07T18:06:18Z</time>
      </trkpt>
      <trkpt lat="44.35181" lon="5.62016">
        <ele>892.7</ele>
        <time>2021-09-07T18:06:19Z</time>
      </trkpt>
      <trkpt lat="44.35181" lon="5.62016">
        <ele>892.7</ele>
        <time>2021-09-07T18:06:20Z</time>
      </trkpt>
      <trkpt lat="44.35182" lon="5.62017">
        <ele>892.8</ele>
        <time>2021-09-07T18:06:21Z</time>
      </trkpt>
      <trkpt lat="44.35182" lon="5.62017">
        <ele>892.9</ele>
        <time>2021-09-07T18:06:22Z</time>
      </trkpt>
      <trkpt lat="44.35182" lon="5.62017">
        <ele>892.9</ele>
        <time>2021-09-07T18:06:23Z</time>
      </trkpt>
      <trkpt lat="44.35182" lon="5.62017">
        <ele>892.9</ele>
        <time>2021-09-07T18:06:24Z</time>
      </trkpt>
      <trkpt lat="44.35182" lon="5.62017">
        <ele>892.9</ele>
        <time>2021-09-07T18:06:25Z</time>
      </trkpt>
      <trkpt lat="44.35181" lon="5.62017">
        <ele>893</ele>
        <time>2021-09-07T18:06:26Z</time>
      </trkpt>
      <trkpt lat="44.35181" lon="5.62018">
        <ele>893.1</ele>
        <time>2021-09-07T18:06:27Z</time>
      </trkpt>
      <trkpt lat="44.3518" lon="5.62018">
        <ele>893.1</ele>
        <time>2021-09-07T18:06:28Z</time>
      </trkpt>
      <trkpt lat="44.35178" lon="5.62019">
        <ele>893.4</ele>
        <time>2021-09-07T18:06:29Z</time>
      </trkpt>
      <trkpt lat="44.35177" lon="5.62019">
        <ele>893.5</ele>
        <time>2021-09-07T18:06:30Z</time>
      </trkpt>
      <trkpt lat="44.35175" lon="5.62021">
        <ele>893.8</ele>
        <time>2021-09-07T18:06:31Z</time>
      </trkpt>
      <trkpt lat="44.35174" lon="5.62022">
        <ele>893.9</ele>
        <time>2021-09-07T18:06:32Z</time>
      </trkpt>
      <trkpt lat="44.35172" lon="5.62022">
        <ele>894.2</ele>
        <time>2021-09-07T18:06:33Z</time>
      </trkpt>
      <trkpt lat="44.35171" lon="5.62022">
        <ele>894.3</ele>
        <time>2021-09-07T18:06:34Z</time>
      </trkpt>
      <trkpt lat="44.3517" lon="5.62022">
        <ele>894.4</ele>
        <time>2021-09-07T18:06:35Z</time>
      </trkpt>
      <trkpt lat="44.35169" lon="5.62021">
        <ele>894.6</ele>
        <time>2021-09-07T18:06:36Z</time>
      </trkpt>
      <trkpt lat="44.35167" lon="5.6202">
        <ele>894.8</ele>
        <time>2021-09-07T18:06:37Z</time>
      </trkpt>
      <trkpt lat="44.35165" lon="5.62018">
        <ele>895.1</ele>
        <time>2021-09-07T18:06:38Z</time>
      </trkpt>
      <trkpt lat="44.35162" lon="5.62016">
        <ele>895.5</ele>
        <time>2021-09-07T18:06:39Z</time>
      </trkpt>
      <trkpt lat="44.35161" lon="5.62016">
        <ele>895.7</ele>
        <time>2021-09-07T18:06:40Z</time>
      </trkpt>
      <trkpt lat="44.3516" lon="5.62016">
        <ele>895.8</ele>
        <time>2021-09-07T18:06:41Z</time>
      </trkpt>
      <trkpt lat="44.3516" lon="5.62016">
        <ele>895.8</ele>
        <time>2021-09-07T18:06:42Z</time>
      </trkpt>
      <trkpt lat="44.35159" lon="5.62015">
        <ele>896</ele>
        <time>2021-09-07T18:06:43Z</time>
      </trkpt>
      <trkpt lat="44.35159" lon="5.62015">
        <ele>896</ele>
        <time>2021-09-07T18:06:44Z</time>
      </trkpt>
      <trkpt lat="44.35159" lon="5.62015">
        <ele>896</ele>
        <time>2021-09-07T18:06:45Z</time>
      </trkpt>
      <trkpt lat="44.35159" lon="5.62015">
        <ele>896</ele>
        <time>2021-09-07T18:06:46Z</time>
      </trkpt>
      <trkpt lat="44.35158" lon="5.62015">
        <ele>896.1</ele>
        <time>2021-09-07T18:06:47Z</time>
      </trkpt>
      <trkpt lat="44.35158" lon="5.62015">
        <ele>896.1</ele>
        <time>2021-09-07T18:06:48Z</time>
      </trkpt>
      <trkpt lat="44.35158" lon="5.62014">
        <ele>896.2</ele>
        <time>2021-09-07T18:06:49Z</time>
      </trkpt>
      <trkpt lat="44.35158" lon="5.62014">
        <ele>896.2</ele>
        <time>2021-09-07T18:06:50Z</time>
      </trkpt>
      <trkpt lat="44.35158" lon="5.62014">
        <ele>896.2</ele>
        <time>2021-09-07T18:06:51Z</time>
      </trkpt>
      <trkpt lat="44.35158" lon="5.62014">
        <ele>896.2</ele>
        <time>2021-09-07T18:06:52Z</time>
      </trkpt>
      <trkpt lat="44.35158" lon="5.62014">
        <ele>896.2</ele>
        <time>2021-09-07T18:06:53Z</time>
      </trkpt>
      <trkpt lat="44.35158" lon="5.62014">
        <ele>896.2</ele>
        <time>2021-09-07T18:06:54Z</time>
      </trkpt>
      <trkpt lat="44.35158" lon="5.62014">
        <ele>896.2</ele>
        <time>2021-09-07T18:06:55Z</time>
      </trkpt>
      <trkpt lat="44.35158" lon="5.62013">
        <ele>896.3</ele>
        <time>2021-09-07T18:06:56Z</time>
      </trkpt>
      <trkpt lat="44.35157" lon="5.62013">
        <ele>896.4</ele>
        <time>2021-09-07T18:06:57Z</time>
      </trkpt>
      <trkpt lat="44.35156" lon="5.62013">
        <ele>896.6</ele>
        <time>2021-09-07T18:06:58Z</time>
      </trkpt>
      <trkpt lat="44.35155" lon="5.62012">
        <ele>896.7</ele>
        <time>2021-09-07T18:06:59Z</time>
      </trkpt>
      <trkpt lat="44.35155" lon="5.62012">
        <ele>896.7</ele>
        <time>2021-09-07T18:07:00Z</time>
      </trkpt>
      <trkpt lat="44.35154" lon="5.62012">
        <ele>896.8</ele>
        <time>2021-09-07T18:07:01Z</time>
      </trkpt>
      <trkpt lat="44.35154" lon="5.62012">
        <ele>896.9</ele>
        <time>2021-09-07T18:07:02Z</time>
      </trkpt>
      <trkpt lat="44.35153" lon="5.62011">
        <ele>897</ele>
        <time>2021-09-07T18:07:03Z</time>
      </trkpt>
      <trkpt lat="44.35153" lon="5.62011">
        <ele>897.1</ele>
        <time>2021-09-07T18:07:04Z</time>
      </trkpt>
      <trkpt lat="44.35152" lon="5.62011">
        <ele>897.1</ele>
        <time>2021-09-07T18:07:05Z</time>
      </trkpt>
      <trkpt lat="44.35151" lon="5.6201">
        <ele>897.3</ele>
        <time>2021-09-07T18:07:06Z</time>
      </trkpt>
      <trkpt lat="44.35151" lon="5.6201">
        <ele>897.3</ele>
        <time>2021-09-07T18:07:07Z</time>
      </trkpt>
      <trkpt lat="44.35151" lon="5.6201">
        <ele>897.3</ele>
        <time>2021-09-07T18:07:08Z</time>
      </trkpt>
      <trkpt lat="44.3515" lon="5.6201">
        <ele>897.4</ele>
        <time>2021-09-07T18:07:09Z</time>
      </trkpt>
      <trkpt lat="44.3515" lon="5.6201">
        <ele>897.5</ele>
        <time>2021-09-07T18:07:10Z</time>
      </trkpt>
      <trkpt lat="44.3515" lon="5.62009">
        <ele>897.5</ele>
        <time>2021-09-07T18:07:11Z</time>
      </trkpt>
      <trkpt lat="44.3515" lon="5.62009">
        <ele>897.5</ele>
        <time>2021-09-07T18:07:12Z</time>
      </trkpt>
      <trkpt lat="44.3515" lon="5.62009">
        <ele>897.5</ele>
        <time>2021-09-07T18:07:13Z</time>
      </trkpt>
      <trkpt lat="44.3515" lon="5.62009">
        <ele>897.5</ele>
        <time>2021-09-07T18:07:14Z</time>
      </trkpt>
      <trkpt lat="44.3515" lon="5.62009">
        <ele>897.5</ele>
        <time>2021-09-07T18:07:15Z</time>
      </trkpt>
      <trkpt lat="44.35149" lon="5.62009">
        <ele>897.6</ele>
        <time>2021-09-07T18:07:16Z</time>
      </trkpt>
      <trkpt lat="44.35147" lon="5.62009">
        <ele>897.9</ele>
        <time>2021-09-07T18:07:17Z</time>
      </trkpt>
      <trkpt lat="44.35145" lon="5.62009">
        <ele>898.1</ele>
        <time>2021-09-07T18:07:18Z</time>
      </trkpt>
      <trkpt lat="44.35142" lon="5.62007">
        <ele>898.6</ele>
        <time>2021-09-07T18:07:19Z</time>
      </trkpt>
      <trkpt lat="44.35141" lon="5.62007">
        <ele>898.7</ele>
        <time>2021-09-07T18:07:20Z</time>
      </trkpt>
      <trkpt lat="44.3514" lon="5.62006">
        <ele>898.8</ele>
        <time>2021-09-07T18:07:21Z</time>
      </trkpt>
      <trkpt lat="44.35138" lon="5.62006">
        <ele>899</ele>
        <time>2021-09-07T18:07:22Z</time>
      </trkpt>
      <trkpt lat="44.35137" lon="5.62005">
        <ele>899.2</ele>
        <time>2021-09-07T18:07:23Z</time>
      </trkpt>
      <trkpt lat="44.35135" lon="5.62004">
        <ele>899.4</ele>
        <time>2021-09-07T18:07:24Z</time>
      </trkpt>
      <trkpt lat="44.35134" lon="5.62003">
        <ele>899.5</ele>
        <time>2021-09-07T18:07:25Z</time>
      </trkpt>
      <trkpt lat="44.35131" lon="5.62002">
        <ele>899.8</ele>
        <time>2021-09-07T18:07:26Z</time>
      </trkpt>
      <trkpt lat="44.35127" lon="5.62001">
        <ele>900.2</ele>
        <time>2021-09-07T18:07:27Z</time>
      </trkpt>
      <trkpt lat="44.35126" lon="5.62001">
        <ele>900.4</ele>
        <time>2021-09-07T18:07:28Z</time>
      </trkpt>
      <trkpt lat="44.35124" lon="5.62001">
        <ele>900.5</ele>
        <time>2021-09-07T18:07:29Z</time>
      </trkpt>
      <trkpt lat="44.35122" lon="5.62001">
        <ele>900.7</ele>
        <time>2021-09-07T18:07:30Z</time>
      </trkpt>
      <trkpt lat="44.35122" lon="5.62001">
        <ele>900.8</ele>
        <time>2021-09-07T18:07:31Z</time>
      </trkpt>
      <trkpt lat="44.35121" lon="5.62001">
        <ele>900.8</ele>
        <time>2021-09-07T18:07:32Z</time>
      </trkpt>
      <trkpt lat="44.35121" lon="5.62001">
        <ele>900.8</ele>
        <time>2021-09-07T18:07:33Z</time>
      </trkpt>
      <trkpt lat="44.3512" lon="5.62001">
        <ele>900.9</ele>
        <time>2021-09-07T18:07:34Z</time>
      </trkpt>
      <trkpt lat="44.3512" lon="5.62001">
        <ele>900.9</ele>
        <time>2021-09-07T18:07:35Z</time>
      </trkpt>
      <trkpt lat="44.3512" lon="5.62001">
        <ele>900.9</ele>
        <time>2021-09-07T18:07:36Z</time>
      </trkpt>
      <trkpt lat="44.3512" lon="5.62001">
        <ele>900.9</ele>
        <time>2021-09-07T18:07:37Z</time>
      </trkpt>
      <trkpt lat="44.3512" lon="5.62001">
        <ele>900.9</ele>
        <time>2021-09-07T18:07:38Z</time>
      </trkpt>
      <trkpt lat="44.3512" lon="5.62001">
        <ele>900.9</ele>
        <time>2021-09-07T18:07:39Z</time>
      </trkpt>
      <trkpt lat="44.3512" lon="5.62001">
        <ele>901</ele>
        <time>2021-09-07T18:07:40Z</time>
      </trkpt>
      <trkpt lat="44.35119" lon="5.62001">
        <ele>901</ele>
        <time>2021-09-07T18:07:41Z</time>
      </trkpt>
      <trkpt lat="44.35119" lon="5.62001">
        <ele>901</ele>
        <time>2021-09-07T18:07:42Z</time>
      </trkpt>
      <trkpt lat="44.35119" lon="5.62001">
        <ele>901</ele>
        <time>2021-09-07T18:07:43Z</time>
      </trkpt>
      <trkpt lat="44.35119" lon="5.62001">
        <ele>901</ele>
        <time>2021-09-07T18:07:44Z</time>
      </trkpt>
      <trkpt lat="44.35119" lon="5.62001">
        <ele>901</ele>
        <time>2021-09-07T18:07:45Z</time>
      </trkpt>
      <trkpt lat="44.35119" lon="5.62001">
        <ele>901</ele>
        <time>2021-09-07T18:07:46Z</time>
      </trkpt>
      <trkpt lat="44.35119" lon="5.62001">
        <ele>901</ele>
        <time>2021-09-07T18:07:47Z</time>
      </trkpt>
      <trkpt lat="44.35119" lon="5.62002">
        <ele>901.1</ele>
        <time>2021-09-07T18:07:48Z</time>
      </trkpt>
      <trkpt lat="44.35118" lon="5.62002">
        <ele>901.2</ele>
        <time>2021-09-07T18:07:49Z</time>
      </trkpt>
      <trkpt lat="44.35116" lon="5.62003">
        <ele>901.4</ele>
        <time>2021-09-07T18:07:50Z</time>
      </trkpt>
      <trkpt lat="44.35116" lon="5.62004">
        <ele>901.4</ele>
        <time>2021-09-07T18:07:51Z</time>
      </trkpt>
      <trkpt lat="44.35115" lon="5.62004">
        <ele>901.5</ele>
        <time>2021-09-07T18:07:52Z</time>
      </trkpt>
      <trkpt lat="44.35113" lon="5.62004">
        <ele>901.7</ele>
        <time>2021-09-07T18:07:53Z</time>
      </trkpt>
      <trkpt lat="44.35112" lon="5.62005">
        <ele>901.8</ele>
        <time>2021-09-07T18:07:54Z</time>
      </trkpt>
      <trkpt lat="44.35111" lon="5.62005">
        <ele>901.9</ele>
        <time>2021-09-07T18:07:55Z</time>
      </trkpt>
      <trkpt lat="44.35111" lon="5.62006">
        <ele>902</ele>
        <time>2021-09-07T18:07:56Z</time>
      </trkpt>
      <trkpt lat="44.3511" lon="5.62006">
        <ele>902</ele>
        <time>2021-09-07T18:07:57Z</time>
      </trkpt>
      <trkpt lat="44.3511" lon="5.62006">
        <ele>902</ele>
        <time>2021-09-07T18:07:58Z</time>
      </trkpt>
      <trkpt lat="44.35109" lon="5.62007">
        <ele>902.1</ele>
        <time>2021-09-07T18:07:59Z</time>
      </trkpt>
      <trkpt lat="44.35108" lon="5.62007">
        <ele>902.2</ele>
        <time>2021-09-07T18:08:00Z</time>
      </trkpt>
      <trkpt lat="44.35105" lon="5.62009">
        <ele>902.6</ele>
        <time>2021-09-07T18:08:01Z</time>
      </trkpt>
      <trkpt lat="44.35104" lon="5.62009">
        <ele>902.7</ele>
        <time>2021-09-07T18:08:02Z</time>
      </trkpt>
      <trkpt lat="44.35103" lon="5.62009">
        <ele>902.8</ele>
        <time>2021-09-07T18:08:03Z</time>
      </trkpt>
      <trkpt lat="44.35101" lon="5.62009">
        <ele>903</ele>
        <time>2021-09-07T18:08:04Z</time>
      </trkpt>
      <trkpt lat="44.35099" lon="5.62008">
        <ele>903.2</ele>
        <time>2021-09-07T18:08:05Z</time>
      </trkpt>
      <trkpt lat="44.35097" lon="5.62008">
        <ele>903.4</ele>
        <time>2021-09-07T18:08:06Z</time>
      </trkpt>
      <trkpt lat="44.35096" lon="5.62008">
        <ele>903.5</ele>
        <time>2021-09-07T18:08:07Z</time>
      </trkpt>
      <trkpt lat="44.35096" lon="5.62008">
        <ele>903.5</ele>
        <time>2021-09-07T18:08:08Z</time>
      </trkpt>
      <trkpt lat="44.35096" lon="5.62008">
        <ele>903.5</ele>
        <time>2021-09-07T18:08:09Z</time>
      </trkpt>
      <trkpt lat="44.35096" lon="5.62008">
        <ele>903.5</ele>
        <time>2021-09-07T18:08:10Z</time>
      </trkpt>
      <trkpt lat="44.35095" lon="5.62009">
        <ele>903.6</ele>
        <time>2021-09-07T18:08:11Z</time>
      </trkpt>
      <trkpt lat="44.35095" lon="5.62009">
        <ele>903.7</ele>
        <time>2021-09-07T18:08:12Z</time>
      </trkpt>
      <trkpt lat="44.35094" lon="5.62009">
        <ele>903.7</ele>
        <time>2021-09-07T18:08:13Z</time>
      </trkpt>
      <trkpt lat="44.35094" lon="5.62009">
        <ele>903.7</ele>
        <time>2021-09-07T18:08:14Z</time>
      </trkpt>
      <trkpt lat="44.35094" lon="5.62009">
        <ele>903.7</ele>
        <time>2021-09-07T18:08:15Z</time>
      </trkpt>
      <trkpt lat="44.35094" lon="5.6201">
        <ele>903.8</ele>
        <time>2021-09-07T18:08:16Z</time>
      </trkpt>
      <trkpt lat="44.35094" lon="5.6201">
        <ele>903.8</ele>
        <time>2021-09-07T18:08:17Z</time>
      </trkpt>
      <trkpt lat="44.35093" lon="5.6201">
        <ele>903.9</ele>
        <time>2021-09-07T18:08:18Z</time>
      </trkpt>
      <trkpt lat="44.35093" lon="5.6201">
        <ele>903.9</ele>
        <time>2021-09-07T18:08:19Z</time>
      </trkpt>
      <trkpt lat="44.35093" lon="5.6201">
        <ele>903.9</ele>
        <time>2021-09-07T18:08:20Z</time>
      </trkpt>
      <trkpt lat="44.35093" lon="5.6201">
        <ele>903.9</ele>
        <time>2021-09-07T18:08:21Z</time>
      </trkpt>
      <trkpt lat="44.35093" lon="5.6201">
        <ele>903.9</ele>
        <time>2021-09-07T18:08:22Z</time>
      </trkpt>
      <trkpt lat="44.35093" lon="5.6201">
        <ele>903.9</ele>
        <time>2021-09-07T18:08:23Z</time>
      </trkpt>
      <trkpt lat="44.35093" lon="5.6201">
        <ele>903.9</ele>
        <time>2021-09-07T18:08:24Z</time>
      </trkpt>
      <trkpt lat="44.35091" lon="5.6201">
        <ele>904.1</ele>
        <time>2021-09-07T18:08:25Z</time>
      </trkpt>
      <trkpt lat="44.35089" lon="5.62011">
        <ele>904.4</ele>
        <time>2021-09-07T18:08:26Z</time>
      </trkpt>
      <trkpt lat="44.35086" lon="5.62012">
        <ele>904.7</ele>
        <time>2021-09-07T18:08:27Z</time>
      </trkpt>
      <trkpt lat="44.35085" lon="5.62012">
        <ele>904.8</ele>
        <time>2021-09-07T18:08:28Z</time>
      </trkpt>
      <trkpt lat="44.35084" lon="5.62012">
        <ele>905</ele>
        <time>2021-09-07T18:08:29Z</time>
      </trkpt>
      <trkpt lat="44.35083" lon="5.62012">
        <ele>905.1</ele>
        <time>2021-09-07T18:08:30Z</time>
      </trkpt>
      <trkpt lat="44.35081" lon="5.62013">
        <ele>905.3</ele>
        <time>2021-09-07T18:08:31Z</time>
      </trkpt>
      <trkpt lat="44.3508" lon="5.62015">
        <ele>905.6</ele>
        <time>2021-09-07T18:08:32Z</time>
      </trkpt>
      <trkpt lat="44.35079" lon="5.62016">
        <ele>905.7</ele>
        <time>2021-09-07T18:08:33Z</time>
      </trkpt>
      <trkpt lat="44.35078" lon="5.62016">
        <ele>905.8</ele>
        <time>2021-09-07T18:08:34Z</time>
      </trkpt>
      <trkpt lat="44.35077" lon="5.62017">
        <ele>906</ele>
        <time>2021-09-07T18:08:35Z</time>
      </trkpt>
      <trkpt lat="44.35076" lon="5.62018">
        <ele>906.1</ele>
        <time>2021-09-07T18:08:36Z</time>
      </trkpt>
      <trkpt lat="44.35075" lon="5.62018">
        <ele>906.2</ele>
        <time>2021-09-07T18:08:37Z</time>
      </trkpt>
      <trkpt lat="44.35074" lon="5.62019">
        <ele>906.4</ele>
        <time>2021-09-07T18:08:38Z</time>
      </trkpt>
      <trkpt lat="44.35072" lon="5.62019">
        <ele>906.6</ele>
        <time>2021-09-07T18:08:39Z</time>
      </trkpt>
      <trkpt lat="44.35072" lon="5.6202">
        <ele>906.7</ele>
        <time>2021-09-07T18:08:40Z</time>
      </trkpt>
      <trkpt lat="44.35072" lon="5.6202">
        <ele>906.7</ele>
        <time>2021-09-07T18:08:41Z</time>
      </trkpt>
      <trkpt lat="44.35071" lon="5.6202">
        <ele>906.8</ele>
        <time>2021-09-07T18:08:42Z</time>
      </trkpt>
      <trkpt lat="44.3507" lon="5.62021">
        <ele>907</ele>
        <time>2021-09-07T18:08:43Z</time>
      </trkpt>
      <trkpt lat="44.3507" lon="5.62021">
        <ele>907</ele>
        <time>2021-09-07T18:08:44Z</time>
      </trkpt>
      <trkpt lat="44.3507" lon="5.62021">
        <ele>907</ele>
        <time>2021-09-07T18:08:45Z</time>
      </trkpt>
      <trkpt lat="44.3507" lon="5.62021">
        <ele>907</ele>
        <time>2021-09-07T18:08:46Z</time>
      </trkpt>
      <trkpt lat="44.35069" lon="5.62022">
        <ele>907.1</ele>
        <time>2021-09-07T18:08:47Z</time>
      </trkpt>
      <trkpt lat="44.35069" lon="5.62022">
        <ele>907.1</ele>
        <time>2021-09-07T18:08:48Z</time>
      </trkpt>
      <trkpt lat="44.35069" lon="5.62022">
        <ele>907.1</ele>
        <time>2021-09-07T18:08:49Z</time>
      </trkpt>
      <trkpt lat="44.35069" lon="5.62022">
        <ele>907.1</ele>
        <time>2021-09-07T18:08:50Z</time>
      </trkpt>
      <trkpt lat="44.35069" lon="5.62022">
        <ele>907.1</ele>
        <time>2021-09-07T18:08:51Z</time>
      </trkpt>
      <trkpt lat="44.35069" lon="5.62022">
        <ele>907.1</ele>
        <time>2021-09-07T18:08:52Z</time>
      </trkpt>
      <trkpt lat="44.35069" lon="5.62022">
        <ele>907.1</ele>
        <time>2021-09-07T18:08:53Z</time>
      </trkpt>
      <trkpt lat="44.35069" lon="5.62023">
        <ele>907.2</ele>
        <time>2021-09-07T18:08:54Z</time>
      </trkpt>
      <trkpt lat="44.35068" lon="5.62023">
        <ele>907.3</ele>
        <time>2021-09-07T18:08:55Z</time>
      </trkpt>
      <trkpt lat="44.35066" lon="5.62025">
        <ele>907.6</ele>
        <time>2021-09-07T18:08:56Z</time>
      </trkpt>
      <trkpt lat="44.35066" lon="5.62026">
        <ele>907.6</ele>
        <time>2021-09-07T18:08:57Z</time>
      </trkpt>
      <trkpt lat="44.35066" lon="5.62026">
        <ele>907.7</ele>
        <time>2021-09-07T18:08:58Z</time>
      </trkpt>
      <trkpt lat="44.35065" lon="5.62027">
        <ele>907.8</ele>
        <time>2021-09-07T18:08:59Z</time>
      </trkpt>
      <trkpt lat="44.35064" lon="5.62028">
        <ele>908</ele>
        <time>2021-09-07T18:09:00Z</time>
      </trkpt>
      <trkpt lat="44.35063" lon="5.62029">
        <ele>908.2</ele>
        <time>2021-09-07T18:09:01Z</time>
      </trkpt>
      <trkpt lat="44.35062" lon="5.62029">
        <ele>908.3</ele>
        <time>2021-09-07T18:09:02Z</time>
      </trkpt>
      <trkpt lat="44.35062" lon="5.6203">
        <ele>908.3</ele>
        <time>2021-09-07T18:09:03Z</time>
      </trkpt>
      <trkpt lat="44.35062" lon="5.6203">
        <ele>908.4</ele>
        <time>2021-09-07T18:09:04Z</time>
      </trkpt>
      <trkpt lat="44.35061" lon="5.6203">
        <ele>908.5</ele>
        <time>2021-09-07T18:09:05Z</time>
      </trkpt>
      <trkpt lat="44.35061" lon="5.6203">
        <ele>908.5</ele>
        <time>2021-09-07T18:09:06Z</time>
      </trkpt>
      <trkpt lat="44.3506" lon="5.62031">
        <ele>908.6</ele>
        <time>2021-09-07T18:09:07Z</time>
      </trkpt>
      <trkpt lat="44.35059" lon="5.62032">
        <ele>908.8</ele>
        <time>2021-09-07T18:09:08Z</time>
      </trkpt>
      <trkpt lat="44.35058" lon="5.62033">
        <ele>908.9</ele>
        <time>2021-09-07T18:09:09Z</time>
      </trkpt>
      <trkpt lat="44.35057" lon="5.62033">
        <ele>909.1</ele>
        <time>2021-09-07T18:09:10Z</time>
      </trkpt>
      <trkpt lat="44.35056" lon="5.62034">
        <ele>909.2</ele>
        <time>2021-09-07T18:09:11Z</time>
      </trkpt>
      <trkpt lat="44.35055" lon="5.62035">
        <ele>909.4</ele>
        <time>2021-09-07T18:09:12Z</time>
      </trkpt>
      <trkpt lat="44.35053" lon="5.62036">
        <ele>909.6</ele>
        <time>2021-09-07T18:09:13Z</time>
      </trkpt>
      <trkpt lat="44.35051" lon="5.62036">
        <ele>909.9</ele>
        <time>2021-09-07T18:09:14Z</time>
      </trkpt>
      <trkpt lat="44.3505" lon="5.62037">
        <ele>910</ele>
        <time>2021-09-07T18:09:15Z</time>
      </trkpt>
      <trkpt lat="44.35049" lon="5.62037">
        <ele>910.1</ele>
        <time>2021-09-07T18:09:16Z</time>
      </trkpt>
      <trkpt lat="44.35047" lon="5.62038">
        <ele>910.4</ele>
        <time>2021-09-07T18:09:17Z</time>
      </trkpt>
      <trkpt lat="44.35046" lon="5.62039">
        <ele>910.5</ele>
        <time>2021-09-07T18:09:18Z</time>
      </trkpt>
      <trkpt lat="44.35045" lon="5.6204">
        <ele>910.7</ele>
        <time>2021-09-07T18:09:19Z</time>
      </trkpt>
      <trkpt lat="44.35043" lon="5.62042">
        <ele>910.9</ele>
        <time>2021-09-07T18:09:20Z</time>
      </trkpt>
      <trkpt lat="44.35042" lon="5.62043">
        <ele>911.1</ele>
        <time>2021-09-07T18:09:21Z</time>
      </trkpt>
      <trkpt lat="44.35041" lon="5.62043">
        <ele>911.2</ele>
        <time>2021-09-07T18:09:22Z</time>
      </trkpt>
      <trkpt lat="44.35041" lon="5.62044">
        <ele>911.3</ele>
        <time>2021-09-07T18:09:23Z</time>
      </trkpt>
      <trkpt lat="44.3504" lon="5.62045">
        <ele>911.4</ele>
        <time>2021-09-07T18:09:24Z</time>
      </trkpt>
      <trkpt lat="44.35039" lon="5.62046">
        <ele>911.5</ele>
        <time>2021-09-07T18:09:25Z</time>
      </trkpt>
      <trkpt lat="44.35039" lon="5.62046">
        <ele>911.5</ele>
        <time>2021-09-07T18:09:26Z</time>
      </trkpt>
      <trkpt lat="44.35039" lon="5.62047">
        <ele>911.6</ele>
        <time>2021-09-07T18:09:27Z</time>
      </trkpt>
      <trkpt lat="44.35039" lon="5.62047">
        <ele>911.6</ele>
        <time>2021-09-07T18:09:28Z</time>
      </trkpt>
      <trkpt lat="44.35038" lon="5.62048">
        <ele>911.7</ele>
        <time>2021-09-07T18:09:29Z</time>
      </trkpt>
      <trkpt lat="44.35038" lon="5.62048">
        <ele>911.7</ele>
        <time>2021-09-07T18:09:30Z</time>
      </trkpt>
      <trkpt lat="44.35038" lon="5.62049">
        <ele>911.8</ele>
        <time>2021-09-07T18:09:31Z</time>
      </trkpt>
      <trkpt lat="44.35038" lon="5.62049">
        <ele>911.8</ele>
        <time>2021-09-07T18:09:32Z</time>
      </trkpt>
      <trkpt lat="44.35037" lon="5.62049">
        <ele>911.9</ele>
        <time>2021-09-07T18:09:33Z</time>
      </trkpt>
      <trkpt lat="44.35037" lon="5.6205">
        <ele>912</ele>
        <time>2021-09-07T18:09:34Z</time>
      </trkpt>
      <trkpt lat="44.35036" lon="5.6205">
        <ele>912.1</ele>
        <time>2021-09-07T18:09:35Z</time>
      </trkpt>
      <trkpt lat="44.35034" lon="5.62052">
        <ele>912.4</ele>
        <time>2021-09-07T18:09:36Z</time>
      </trkpt>
      <trkpt lat="44.35032" lon="5.62053">
        <ele>912.6</ele>
        <time>2021-09-07T18:09:37Z</time>
      </trkpt>
      <trkpt lat="44.35032" lon="5.62054">
        <ele>912.7</ele>
        <time>2021-09-07T18:09:38Z</time>
      </trkpt>
      <trkpt lat="44.35031" lon="5.62054">
        <ele>912.8</ele>
        <time>2021-09-07T18:09:39Z</time>
      </trkpt>
      <trkpt lat="44.3503" lon="5.62055">
        <ele>912.9</ele>
        <time>2021-09-07T18:09:40Z</time>
      </trkpt>
      <trkpt lat="44.35029" lon="5.62055">
        <ele>913</ele>
        <time>2021-09-07T18:09:41Z</time>
      </trkpt>
      <trkpt lat="44.35029" lon="5.62056">
        <ele>913.1</ele>
        <time>2021-09-07T18:09:42Z</time>
      </trkpt>
      <trkpt lat="44.35028" lon="5.62056">
        <ele>913.2</ele>
        <time>2021-09-07T18:09:43Z</time>
      </trkpt>
      <trkpt lat="44.35028" lon="5.62056">
        <ele>913.2</ele>
        <time>2021-09-07T18:09:44Z</time>
      </trkpt>
      <trkpt lat="44.35028" lon="5.62056">
        <ele>913.2</ele>
        <time>2021-09-07T18:09:45Z</time>
      </trkpt>
      <trkpt lat="44.35028" lon="5.62056">
        <ele>913.2</ele>
        <time>2021-09-07T18:09:46Z</time>
      </trkpt>
      <trkpt lat="44.35027" lon="5.62056">
        <ele>913.4</ele>
        <time>2021-09-07T18:09:47Z</time>
      </trkpt>
      <trkpt lat="44.35027" lon="5.62056">
        <ele>913.4</ele>
        <time>2021-09-07T18:09:48Z</time>
      </trkpt>
      <trkpt lat="44.35027" lon="5.62057">
        <ele>913.4</ele>
        <time>2021-09-07T18:09:49Z</time>
      </trkpt>
      <trkpt lat="44.35027" lon="5.62057">
        <ele>913.5</ele>
        <time>2021-09-07T18:09:50Z</time>
      </trkpt>
      <trkpt lat="44.35026" lon="5.62057">
        <ele>913.6</ele>
        <time>2021-09-07T18:09:51Z</time>
      </trkpt>
      <trkpt lat="44.35024" lon="5.62058">
        <ele>913.8</ele>
        <time>2021-09-07T18:09:52Z</time>
      </trkpt>
      <trkpt lat="44.35024" lon="5.62058">
        <ele>913.9</ele>
        <time>2021-09-07T18:09:53Z</time>
      </trkpt>
      <trkpt lat="44.35023" lon="5.62058">
        <ele>914</ele>
        <time>2021-09-07T18:09:54Z</time>
      </trkpt>
      <trkpt lat="44.35022" lon="5.62059">
        <ele>914.1</ele>
        <time>2021-09-07T18:09:55Z</time>
      </trkpt>
      <trkpt lat="44.35021" lon="5.62059">
        <ele>914.2</ele>
        <time>2021-09-07T18:09:56Z</time>
      </trkpt>
      <trkpt lat="44.35021" lon="5.6206">
        <ele>914.3</ele>
        <time>2021-09-07T18:09:57Z</time>
      </trkpt>
      <trkpt lat="44.3502" lon="5.6206">
        <ele>914.4</ele>
        <time>2021-09-07T18:09:58Z</time>
      </trkpt>
      <trkpt lat="44.35019" lon="5.62061">
        <ele>914.5</ele>
        <time>2021-09-07T18:09:59Z</time>
      </trkpt>
      <trkpt lat="44.35019" lon="5.62061">
        <ele>914.5</ele>
        <time>2021-09-07T18:10:00Z</time>
      </trkpt>
      <trkpt lat="44.35019" lon="5.62061">
        <ele>914.5</ele>
        <time>2021-09-07T18:10:01Z</time>
      </trkpt>
      <trkpt lat="44.35019" lon="5.62062">
        <ele>914.6</ele>
        <time>2021-09-07T18:10:02Z</time>
      </trkpt>
      <trkpt lat="44.35018" lon="5.62062">
        <ele>914.7</ele>
        <time>2021-09-07T18:10:03Z</time>
      </trkpt>
      <trkpt lat="44.35018" lon="5.62062">
        <ele>914.7</ele>
        <time>2021-09-07T18:10:04Z</time>
      </trkpt>
      <trkpt lat="44.35018" lon="5.62062">
        <ele>914.7</ele>
        <time>2021-09-07T18:10:05Z</time>
      </trkpt>
      <trkpt lat="44.35017" lon="5.62062">
        <ele>914.8</ele>
        <time>2021-09-07T18:10:06Z</time>
      </trkpt>
      <trkpt lat="44.35017" lon="5.62062">
        <ele>914.8</ele>
        <time>2021-09-07T18:10:07Z</time>
      </trkpt>
      <trkpt lat="44.35017" lon="5.62062">
        <ele>914.8</ele>
        <time>2021-09-07T18:10:08Z</time>
      </trkpt>
      <trkpt lat="44.35017" lon="5.62062">
        <ele>914.8</ele>
        <time>2021-09-07T18:10:09Z</time>
      </trkpt>
      <trkpt lat="44.35017" lon="5.62062">
        <ele>914.8</ele>
        <time>2021-09-07T18:10:10Z</time>
      </trkpt>
      <trkpt lat="44.35017" lon="5.62062">
        <ele>914.8</ele>
        <time>2021-09-07T18:10:11Z</time>
      </trkpt>
      <trkpt lat="44.35017" lon="5.62063">
        <ele>914.9</ele>
        <time>2021-09-07T18:10:12Z</time>
      </trkpt>
      <trkpt lat="44.35017" lon="5.62063">
        <ele>914.9</ele>
        <time>2021-09-07T18:10:13Z</time>
      </trkpt>
      <trkpt lat="44.35017" lon="5.62063">
        <ele>914.9</ele>
        <time>2021-09-07T18:10:14Z</time>
      </trkpt>
      <trkpt lat="44.35017" lon="5.62063">
        <ele>914.9</ele>
        <time>2021-09-07T18:10:15Z</time>
      </trkpt>
      <trkpt lat="44.35017" lon="5.62063">
        <ele>914.9</ele>
        <time>2021-09-07T18:10:16Z</time>
      </trkpt>
      <trkpt lat="44.35017" lon="5.62063">
        <ele>914.9</ele>
        <time>2021-09-07T18:10:17Z</time>
      </trkpt>
      <trkpt lat="44.35017" lon="5.62063">
        <ele>914.9</ele>
        <time>2021-09-07T18:10:18Z</time>
      </trkpt>
      <trkpt lat="44.35017" lon="5.62064">
        <ele>915</ele>
        <time>2021-09-07T18:10:19Z</time>
      </trkpt>
      <trkpt lat="44.35016" lon="5.62064">
        <ele>915</ele>
        <time>2021-09-07T18:10:20Z</time>
      </trkpt>
      <trkpt lat="44.35015" lon="5.62067">
        <ele>915.3</ele>
        <time>2021-09-07T18:10:21Z</time>
      </trkpt>
      <trkpt lat="44.35014" lon="5.62068">
        <ele>915.5</ele>
        <time>2021-09-07T18:10:22Z</time>
      </trkpt>
      <trkpt lat="44.35012" lon="5.6207">
        <ele>915.7</ele>
        <time>2021-09-07T18:10:23Z</time>
      </trkpt>
      <trkpt lat="44.35011" lon="5.62071">
        <ele>915.9</ele>
        <time>2021-09-07T18:10:24Z</time>
      </trkpt>
      <trkpt lat="44.3501" lon="5.62072">
        <ele>916.1</ele>
        <time>2021-09-07T18:10:25Z</time>
      </trkpt>
      <trkpt lat="44.35008" lon="5.62073">
        <ele>916.3</ele>
        <time>2021-09-07T18:10:26Z</time>
      </trkpt>
      <trkpt lat="44.35007" lon="5.62074">
        <ele>916.4</ele>
        <time>2021-09-07T18:10:27Z</time>
      </trkpt>
      <trkpt lat="44.35006" lon="5.62074">
        <ele>916.5</ele>
        <time>2021-09-07T18:10:28Z</time>
      </trkpt>
      <trkpt lat="44.35005" lon="5.62074">
        <ele>916.6</ele>
        <time>2021-09-07T18:10:29Z</time>
      </trkpt>
      <trkpt lat="44.35005" lon="5.62074">
        <ele>916.7</ele>
        <time>2021-09-07T18:10:30Z</time>
      </trkpt>
      <trkpt lat="44.35004" lon="5.62074">
        <ele>916.7</ele>
        <time>2021-09-07T18:10:31Z</time>
      </trkpt>
      <trkpt lat="44.35002" lon="5.62075">
        <ele>917</ele>
        <time>2021-09-07T18:10:32Z</time>
      </trkpt>
      <trkpt lat="44.35" lon="5.62077">
        <ele>917.2</ele>
        <time>2021-09-07T18:10:33Z</time>
      </trkpt>
      <trkpt lat="44.34998" lon="5.62078">
        <ele>917.5</ele>
        <time>2021-09-07T18:10:34Z</time>
      </trkpt>
      <trkpt lat="44.34997" lon="5.62079">
        <ele>917.6</ele>
        <time>2021-09-07T18:10:35Z</time>
      </trkpt>
      <trkpt lat="44.34996" lon="5.6208">
        <ele>917.8</ele>
        <time>2021-09-07T18:10:36Z</time>
      </trkpt>
      <trkpt lat="44.34995" lon="5.6208">
        <ele>917.9</ele>
        <time>2021-09-07T18:10:37Z</time>
      </trkpt>
      <trkpt lat="44.34995" lon="5.6208">
        <ele>917.9</ele>
        <time>2021-09-07T18:10:38Z</time>
      </trkpt>
      <trkpt lat="44.34995" lon="5.62081">
        <ele>918</ele>
        <time>2021-09-07T18:10:39Z</time>
      </trkpt>
      <trkpt lat="44.34994" lon="5.62081">
        <ele>918</ele>
        <time>2021-09-07T18:10:40Z</time>
      </trkpt>
      <trkpt lat="44.34994" lon="5.62081">
        <ele>918</ele>
        <time>2021-09-07T18:10:41Z</time>
      </trkpt>
      <trkpt lat="44.34994" lon="5.62081">
        <ele>918.1</ele>
        <time>2021-09-07T18:10:42Z</time>
      </trkpt>
      <trkpt lat="44.34993" lon="5.62081">
        <ele>918.1</ele>
        <time>2021-09-07T18:10:43Z</time>
      </trkpt>
      <trkpt lat="44.34993" lon="5.62081">
        <ele>918.1</ele>
        <time>2021-09-07T18:10:44Z</time>
      </trkpt>
      <trkpt lat="44.34993" lon="5.62081">
        <ele>918.1</ele>
        <time>2021-09-07T18:10:45Z</time>
      </trkpt>
      <trkpt lat="44.34993" lon="5.62081">
        <ele>918.1</ele>
        <time>2021-09-07T18:10:46Z</time>
      </trkpt>
      <trkpt lat="44.34993" lon="5.62081">
        <ele>918.1</ele>
        <time>2021-09-07T18:10:47Z</time>
      </trkpt>
      <trkpt lat="44.34993" lon="5.62081">
        <ele>918.1</ele>
        <time>2021-09-07T18:10:48Z</time>
      </trkpt>
      <trkpt lat="44.34993" lon="5.62081">
        <ele>918.1</ele>
        <time>2021-09-07T18:10:49Z</time>
      </trkpt>
      <trkpt lat="44.34992" lon="5.62082">
        <ele>918.3</ele>
        <time>2021-09-07T18:10:50Z</time>
      </trkpt>
      <trkpt lat="44.34992" lon="5.62082">
        <ele>918.4</ele>
        <time>2021-09-07T18:10:51Z</time>
      </trkpt>
      <trkpt lat="44.34991" lon="5.62082">
        <ele>918.4</ele>
        <time>2021-09-07T18:10:52Z</time>
      </trkpt>
      <trkpt lat="44.34989" lon="5.62084">
        <ele>918.7</ele>
        <time>2021-09-07T18:10:53Z</time>
      </trkpt>
      <trkpt lat="44.34989" lon="5.62085">
        <ele>918.8</ele>
        <time>2021-09-07T18:10:54Z</time>
      </trkpt>
      <trkpt lat="44.34988" lon="5.62085">
        <ele>918.9</ele>
        <time>2021-09-07T18:10:55Z</time>
      </trkpt>
      <trkpt lat="44.34987" lon="5.62085">
        <ele>919</ele>
        <time>2021-09-07T18:10:56Z</time>
      </trkpt>
      <trkpt lat="44.34985" lon="5.62086">
        <ele>919.3</ele>
        <time>2021-09-07T18:10:57Z</time>
      </trkpt>
      <trkpt lat="44.34985" lon="5.62086">
        <ele>919.3</ele>
        <time>2021-09-07T18:10:58Z</time>
      </trkpt>
      <trkpt lat="44.34985" lon="5.62086">
        <ele>919.3</ele>
        <time>2021-09-07T18:10:59Z</time>
      </trkpt>
      <trkpt lat="44.34984" lon="5.62086">
        <ele>919.4</ele>
        <time>2021-09-07T18:11:00Z</time>
      </trkpt>
      <trkpt lat="44.34984" lon="5.62087">
        <ele>919.4</ele>
        <time>2021-09-07T18:11:01Z</time>
      </trkpt>
      <trkpt lat="44.34984" lon="5.62087">
        <ele>919.5</ele>
        <time>2021-09-07T18:11:02Z</time>
      </trkpt>
      <trkpt lat="44.34981" lon="5.62089">
        <ele>919.9</ele>
        <time>2021-09-07T18:11:03Z</time>
      </trkpt>
      <trkpt lat="44.3498" lon="5.6209">
        <ele>920.1</ele>
        <time>2021-09-07T18:11:04Z</time>
      </trkpt>
      <trkpt lat="44.34979" lon="5.6209">
        <ele>920.2</ele>
        <time>2021-09-07T18:11:05Z</time>
      </trkpt>
      <trkpt lat="44.34978" lon="5.62092">
        <ele>920.5</ele>
        <time>2021-09-07T18:11:06Z</time>
      </trkpt>
      <trkpt lat="44.34976" lon="5.62094">
        <ele>920.8</ele>
        <time>2021-09-07T18:11:07Z</time>
      </trkpt>
      <trkpt lat="44.34975" lon="5.62095">
        <ele>921</ele>
        <time>2021-09-07T18:11:08Z</time>
      </trkpt>
      <trkpt lat="44.34973" lon="5.62095">
        <ele>921.3</ele>
        <time>2021-09-07T18:11:09Z</time>
      </trkpt>
      <trkpt lat="44.34972" lon="5.62096">
        <ele>921.4</ele>
        <time>2021-09-07T18:11:10Z</time>
      </trkpt>
      <trkpt lat="44.34971" lon="5.62097">
        <ele>921.6</ele>
        <time>2021-09-07T18:11:11Z</time>
      </trkpt>
      <trkpt lat="44.3497" lon="5.62098">
        <ele>921.8</ele>
        <time>2021-09-07T18:11:12Z</time>
      </trkpt>
      <trkpt lat="44.34969" lon="5.62098">
        <ele>921.9</ele>
        <time>2021-09-07T18:11:13Z</time>
      </trkpt>
      <trkpt lat="44.34969" lon="5.62098">
        <ele>921.9</ele>
        <time>2021-09-07T18:11:14Z</time>
      </trkpt>
      <trkpt lat="44.34968" lon="5.62098">
        <ele>922.1</ele>
        <time>2021-09-07T18:11:15Z</time>
      </trkpt>
      <trkpt lat="44.34968" lon="5.62099">
        <ele>922.1</ele>
        <time>2021-09-07T18:11:16Z</time>
      </trkpt>
      <trkpt lat="44.34968" lon="5.62099">
        <ele>922.2</ele>
        <time>2021-09-07T18:11:17Z</time>
      </trkpt>
      <trkpt lat="44.34968" lon="5.62099">
        <ele>922.2</ele>
        <time>2021-09-07T18:11:18Z</time>
      </trkpt>
      <trkpt lat="44.34968" lon="5.621">
        <ele>922.3</ele>
        <time>2021-09-07T18:11:19Z</time>
      </trkpt>
      <trkpt lat="44.34968" lon="5.621">
        <ele>922.3</ele>
        <time>2021-09-07T18:11:20Z</time>
      </trkpt>
      <trkpt lat="44.34968" lon="5.621">
        <ele>922.3</ele>
        <time>2021-09-07T18:11:21Z</time>
      </trkpt>
      <trkpt lat="44.34968" lon="5.621">
        <ele>922.3</ele>
        <time>2021-09-07T18:11:22Z</time>
      </trkpt>
      <trkpt lat="44.34968" lon="5.621">
        <ele>922.3</ele>
        <time>2021-09-07T18:11:23Z</time>
      </trkpt>
      <trkpt lat="44.34968" lon="5.621">
        <ele>922.3</ele>
        <time>2021-09-07T18:11:24Z</time>
      </trkpt>
      <trkpt lat="44.34967" lon="5.621">
        <ele>922.4</ele>
        <time>2021-09-07T18:11:25Z</time>
      </trkpt>
      <trkpt lat="44.34967" lon="5.621">
        <ele>922.4</ele>
        <time>2021-09-07T18:11:26Z</time>
      </trkpt>
      <trkpt lat="44.34967" lon="5.621">
        <ele>922.4</ele>
        <time>2021-09-07T18:11:27Z</time>
      </trkpt>
      <trkpt lat="44.34967" lon="5.621">
        <ele>922.4</ele>
        <time>2021-09-07T18:11:28Z</time>
      </trkpt>
      <trkpt lat="44.34967" lon="5.621">
        <ele>922.4</ele>
        <time>2021-09-07T18:11:29Z</time>
      </trkpt>
      <trkpt lat="44.34967" lon="5.621">
        <ele>922.4</ele>
        <time>2021-09-07T18:11:30Z</time>
      </trkpt>
      <trkpt lat="44.34966" lon="5.62101">
        <ele>922.6</ele>
        <time>2021-09-07T18:11:31Z</time>
      </trkpt>
      <trkpt lat="44.34964" lon="5.62101">
        <ele>922.9</ele>
        <time>2021-09-07T18:11:32Z</time>
      </trkpt>
      <trkpt lat="44.34964" lon="5.62102">
        <ele>922.9</ele>
        <time>2021-09-07T18:11:33Z</time>
      </trkpt>
      <trkpt lat="44.34964" lon="5.62102">
        <ele>923</ele>
        <time>2021-09-07T18:11:34Z</time>
      </trkpt>
      <trkpt lat="44.34963" lon="5.62102">
        <ele>923.1</ele>
        <time>2021-09-07T18:11:35Z</time>
      </trkpt>
      <trkpt lat="44.34961" lon="5.62103">
        <ele>923.4</ele>
        <time>2021-09-07T18:11:36Z</time>
      </trkpt>
      <trkpt lat="44.34959" lon="5.62103">
        <ele>923.7</ele>
        <time>2021-09-07T18:11:37Z</time>
      </trkpt>
      <trkpt lat="44.34958" lon="5.62104">
        <ele>923.8</ele>
        <time>2021-09-07T18:11:38Z</time>
      </trkpt>
      <trkpt lat="44.34957" lon="5.62104">
        <ele>924</ele>
        <time>2021-09-07T18:11:39Z</time>
      </trkpt>
      <trkpt lat="44.34956" lon="5.62105">
        <ele>924.2</ele>
        <time>2021-09-07T18:11:40Z</time>
      </trkpt>
      <trkpt lat="44.34954" lon="5.62106">
        <ele>924.5</ele>
        <time>2021-09-07T18:11:41Z</time>
      </trkpt>
      <trkpt lat="44.34952" lon="5.62109">
        <ele>924.9</ele>
        <time>2021-09-07T18:11:42Z</time>
      </trkpt>
      <trkpt lat="44.34951" lon="5.6211">
        <ele>925.1</ele>
        <time>2021-09-07T18:11:43Z</time>
      </trkpt>
      <trkpt lat="44.34951" lon="5.6211">
        <ele>925.1</ele>
        <time>2021-09-07T18:11:44Z</time>
      </trkpt>
      <trkpt lat="44.34951" lon="5.6211">
        <ele>925.1</ele>
        <time>2021-09-07T18:11:45Z</time>
      </trkpt>
      <trkpt lat="44.3495" lon="5.6211">
        <ele>925.2</ele>
        <time>2021-09-07T18:11:46Z</time>
      </trkpt>
      <trkpt lat="44.3495" lon="5.6211">
        <ele>925.2</ele>
        <time>2021-09-07T18:11:47Z</time>
      </trkpt>
      <trkpt lat="44.3495" lon="5.6211">
        <ele>925.2</ele>
        <time>2021-09-07T18:11:48Z</time>
      </trkpt>
      <trkpt lat="44.3495" lon="5.6211">
        <ele>925.2</ele>
        <time>2021-09-07T18:11:49Z</time>
      </trkpt>
      <trkpt lat="44.3495" lon="5.6211">
        <ele>925.2</ele>
        <time>2021-09-07T18:11:50Z</time>
      </trkpt>
      <trkpt lat="44.3495" lon="5.6211">
        <ele>925.2</ele>
        <time>2021-09-07T18:11:51Z</time>
      </trkpt>
      <trkpt lat="44.3495" lon="5.6211">
        <ele>925.3</ele>
        <time>2021-09-07T18:11:52Z</time>
      </trkpt>
      <trkpt lat="44.34949" lon="5.6211">
        <ele>925.3</ele>
        <time>2021-09-07T18:11:53Z</time>
      </trkpt>
      <trkpt lat="44.34949" lon="5.6211">
        <ele>925.3</ele>
        <time>2021-09-07T18:11:54Z</time>
      </trkpt>
      <trkpt lat="44.34949" lon="5.6211">
        <ele>925.3</ele>
        <time>2021-09-07T18:11:55Z</time>
      </trkpt>
      <trkpt lat="44.34949" lon="5.6211">
        <ele>925.3</ele>
        <time>2021-09-07T18:11:56Z</time>
      </trkpt>
      <trkpt lat="44.34949" lon="5.6211">
        <ele>925.3</ele>
        <time>2021-09-07T18:11:57Z</time>
      </trkpt>
      <trkpt lat="44.34949" lon="5.6211">
        <ele>925.3</ele>
        <time>2021-09-07T18:11:58Z</time>
      </trkpt>
      <trkpt lat="44.34949" lon="5.6211">
        <ele>925.3</ele>
        <time>2021-09-07T18:11:59Z</time>
      </trkpt>
      <trkpt lat="44.34949" lon="5.6211">
        <ele>925.3</ele>
        <time>2021-09-07T18:12:00Z</time>
      </trkpt>
      <trkpt lat="44.34949" lon="5.6211">
        <ele>925.3</ele>
        <time>2021-09-07T18:12:01Z</time>
      </trkpt>
      <trkpt lat="44.34949" lon="5.6211">
        <ele>925.3</ele>
        <time>2021-09-07T18:12:02Z</time>
      </trkpt>
      <trkpt lat="44.34949" lon="5.6211">
        <ele>925.3</ele>
        <time>2021-09-07T18:12:03Z</time>
      </trkpt>
      <trkpt lat="44.34949" lon="5.6211">
        <ele>925.3</ele>
        <time>2021-09-07T18:12:04Z</time>
      </trkpt>
      <trkpt lat="44.34949" lon="5.62112">
        <ele>925.5</ele>
        <time>2021-09-07T18:12:05Z</time>
      </trkpt>
      <trkpt lat="44.34948" lon="5.62113">
        <ele>925.7</ele>
        <time>2021-09-07T18:12:06Z</time>
      </trkpt>
      <trkpt lat="44.34948" lon="5.62117">
        <ele>926</ele>
        <time>2021-09-07T18:12:07Z</time>
      </trkpt>
      <trkpt lat="44.34947" lon="5.62121">
        <ele>926.4</ele>
        <time>2021-09-07T18:12:08Z</time>
      </trkpt>
      <trkpt lat="44.34947" lon="5.62125">
        <ele>926.8</ele>
        <time>2021-09-07T18:12:09Z</time>
      </trkpt>
      <trkpt lat="44.34947" lon="5.6213">
        <ele>927.3</ele>
        <time>2021-09-07T18:12:10Z</time>
      </trkpt>
      <trkpt lat="44.34947" lon="5.62133">
        <ele>927.6</ele>
        <time>2021-09-07T18:12:11Z</time>
      </trkpt>
      <trkpt lat="44.34948" lon="5.62138">
        <ele>928.1</ele>
        <time>2021-09-07T18:12:12Z</time>
      </trkpt>
      <trkpt lat="44.34949" lon="5.62142">
        <ele>928.6</ele>
        <time>2021-09-07T18:12:13Z</time>
      </trkpt>
      <trkpt lat="44.3495" lon="5.62145">
        <ele>928.9</ele>
        <time>2021-09-07T18:12:14Z</time>
      </trkpt>
      <trkpt lat="44.3495" lon="5.62148">
        <ele>929.2</ele>
        <time>2021-09-07T18:12:15Z</time>
      </trkpt>
      <trkpt lat="44.3495" lon="5.6215">
        <ele>929.4</ele>
        <time>2021-09-07T18:12:16Z</time>
      </trkpt>
      <trkpt lat="44.34951" lon="5.62151">
        <ele>929.5</ele>
        <time>2021-09-07T18:12:17Z</time>
      </trkpt>
      <trkpt lat="44.34951" lon="5.62153">
        <ele>929.7</ele>
        <time>2021-09-07T18:12:18Z</time>
      </trkpt>
      <trkpt lat="44.34951" lon="5.62154">
        <ele>929.8</ele>
        <time>2021-09-07T18:12:19Z</time>
      </trkpt>
      <trkpt lat="44.3495" lon="5.62155">
        <ele>930</ele>
        <time>2021-09-07T18:12:20Z</time>
      </trkpt>
      <trkpt lat="44.34949" lon="5.62156">
        <ele>930.2</ele>
        <time>2021-09-07T18:12:21Z</time>
      </trkpt>
      <trkpt lat="44.34949" lon="5.62156">
        <ele>930.2</ele>
        <time>2021-09-07T18:12:22Z</time>
      </trkpt>
      <trkpt lat="44.34949" lon="5.62156">
        <ele>930.2</ele>
        <time>2021-09-07T18:12:23Z</time>
      </trkpt>
      <trkpt lat="44.3495" lon="5.62156">
        <ele>930.3</ele>
        <time>2021-09-07T18:12:24Z</time>
      </trkpt>
      <trkpt lat="44.3495" lon="5.62155">
        <ele>930.4</ele>
        <time>2021-09-07T18:12:25Z</time>
      </trkpt>
      <trkpt lat="44.34951" lon="5.62156">
        <ele>930.5</ele>
        <time>2021-09-07T18:12:26Z</time>
      </trkpt>
      <trkpt lat="44.34951" lon="5.62156">
        <ele>930.6</ele>
        <time>2021-09-07T18:12:27Z</time>
      </trkpt>
      <trkpt lat="44.34952" lon="5.62157">
        <ele>930.8</ele>
        <time>2021-09-07T18:12:28Z</time>
      </trkpt>
      <trkpt lat="44.34953" lon="5.62161">
        <ele>931.2</ele>
        <time>2021-09-07T18:12:29Z</time>
      </trkpt>
      <trkpt lat="44.34953" lon="5.62163">
        <ele>931.3</ele>
        <time>2021-09-07T18:12:30Z</time>
      </trkpt>
      <trkpt lat="44.34953" lon="5.62164">
        <ele>931.5</ele>
        <time>2021-09-07T18:12:31Z</time>
      </trkpt>
      <trkpt lat="44.34954" lon="5.62166">
        <ele>931.7</ele>
        <time>2021-09-07T18:12:32Z</time>
      </trkpt>
      <trkpt lat="44.34953" lon="5.62166">
        <ele>931.9</ele>
        <time>2021-09-07T18:12:33Z</time>
      </trkpt>
      <trkpt lat="44.34952" lon="5.62166">
        <ele>932</ele>
        <time>2021-09-07T18:12:34Z</time>
      </trkpt>
      <trkpt lat="44.34951" lon="5.62166">
        <ele>932.1</ele>
        <time>2021-09-07T18:12:35Z</time>
      </trkpt>
      <trkpt lat="44.34951" lon="5.62166">
        <ele>932.2</ele>
        <time>2021-09-07T18:12:36Z</time>
      </trkpt>
      <trkpt lat="44.3495" lon="5.62165">
        <ele>932.3</ele>
        <time>2021-09-07T18:12:37Z</time>
      </trkpt>
      <trkpt lat="44.3495" lon="5.62164">
        <ele>932.4</ele>
        <time>2021-09-07T18:12:38Z</time>
      </trkpt>
      <trkpt lat="44.3495" lon="5.62162">
        <ele>932.6</ele>
        <time>2021-09-07T18:12:39Z</time>
      </trkpt>
      <trkpt lat="44.34948" lon="5.6216">
        <ele>932.9</ele>
        <time>2021-09-07T18:12:40Z</time>
      </trkpt>
      <trkpt lat="44.34945" lon="5.62158">
        <ele>933.3</ele>
        <time>2021-09-07T18:12:41Z</time>
      </trkpt>
      <trkpt lat="44.34944" lon="5.62157">
        <ele>933.5</ele>
        <time>2021-09-07T18:12:42Z</time>
      </trkpt>
      <trkpt lat="44.34943" lon="5.62155">
        <ele>933.7</ele>
        <time>2021-09-07T18:12:43Z</time>
      </trkpt>
      <trkpt lat="44.3494" lon="5.62151">
        <ele>934.3</ele>
        <time>2021-09-07T18:12:44Z</time>
      </trkpt>
      <trkpt lat="44.3494" lon="5.6215">
        <ele>934.4</ele>
        <time>2021-09-07T18:12:45Z</time>
      </trkpt>
      <trkpt lat="44.34939" lon="5.62149">
        <ele>934.5</ele>
        <time>2021-09-07T18:12:46Z</time>
      </trkpt>
      <trkpt lat="44.34938" lon="5.62146">
        <ele>934.8</ele>
        <time>2021-09-07T18:12:47Z</time>
      </trkpt>
      <trkpt lat="44.34937" lon="5.62144">
        <ele>935</ele>
        <time>2021-09-07T18:12:48Z</time>
      </trkpt>
      <trkpt lat="44.34936" lon="5.62143">
        <ele>935.2</ele>
        <time>2021-09-07T18:12:49Z</time>
      </trkpt>
      <trkpt lat="44.34935" lon="5.62142">
        <ele>935.4</ele>
        <time>2021-09-07T18:12:50Z</time>
      </trkpt>
      <trkpt lat="44.34934" lon="5.62141">
        <ele>935.6</ele>
        <time>2021-09-07T18:12:51Z</time>
      </trkpt>
      <trkpt lat="44.34933" lon="5.62139">
        <ele>935.8</ele>
        <time>2021-09-07T18:12:52Z</time>
      </trkpt>
      <trkpt lat="44.34933" lon="5.62138">
        <ele>935.9</ele>
        <time>2021-09-07T18:12:53Z</time>
      </trkpt>
      <trkpt lat="44.34932" lon="5.62137">
        <ele>936.1</ele>
        <time>2021-09-07T18:12:54Z</time>
      </trkpt>
      <trkpt lat="44.34932" lon="5.62137">
        <ele>936.1</ele>
        <time>2021-09-07T18:12:55Z</time>
      </trkpt>
      <trkpt lat="44.34931" lon="5.62136">
        <ele>936.2</ele>
        <time>2021-09-07T18:12:56Z</time>
      </trkpt>
      <trkpt lat="44.3493" lon="5.62135">
        <ele>936.4</ele>
        <time>2021-09-07T18:12:57Z</time>
      </trkpt>
      <trkpt lat="44.3493" lon="5.62134">
        <ele>936.5</ele>
        <time>2021-09-07T18:12:58Z</time>
      </trkpt>
      <trkpt lat="44.3493" lon="5.62134">
        <ele>936.5</ele>
        <time>2021-09-07T18:12:59Z</time>
      </trkpt>
      <trkpt lat="44.3493" lon="5.62134">
        <ele>936.5</ele>
        <time>2021-09-07T18:13:00Z</time>
      </trkpt>
      <trkpt lat="44.3493" lon="5.62133">
        <ele>936.6</ele>
        <time>2021-09-07T18:13:01Z</time>
      </trkpt>
      <trkpt lat="44.3493" lon="5.62133">
        <ele>936.6</ele>
        <time>2021-09-07T18:13:02Z</time>
      </trkpt>
      <trkpt lat="44.3493" lon="5.62133">
        <ele>936.6</ele>
        <time>2021-09-07T18:13:03Z</time>
      </trkpt>
      <trkpt lat="44.3493" lon="5.62133">
        <ele>936.6</ele>
        <time>2021-09-07T18:13:04Z</time>
      </trkpt>
      <trkpt lat="44.3493" lon="5.62133">
        <ele>936.6</ele>
        <time>2021-09-07T18:13:05Z</time>
      </trkpt>
      <trkpt lat="44.3493" lon="5.62133">
        <ele>936.6</ele>
        <time>2021-09-07T18:13:06Z</time>
      </trkpt>
      <trkpt lat="44.3493" lon="5.62133">
        <ele>936.6</ele>
        <time>2021-09-07T18:13:07Z</time>
      </trkpt>
      <trkpt lat="44.34929" lon="5.62133">
        <ele>936.8</ele>
        <time>2021-09-07T18:13:08Z</time>
      </trkpt>
      <trkpt lat="44.34928" lon="5.62132">
        <ele>936.9</ele>
        <time>2021-09-07T18:13:09Z</time>
      </trkpt>
      <trkpt lat="44.34927" lon="5.62132">
        <ele>937.1</ele>
        <time>2021-09-07T18:13:10Z</time>
      </trkpt>
      <trkpt lat="44.34926" lon="5.62132">
        <ele>937.2</ele>
        <time>2021-09-07T18:13:11Z</time>
      </trkpt>
      <trkpt lat="44.34925" lon="5.62132">
        <ele>937.4</ele>
        <time>2021-09-07T18:13:12Z</time>
      </trkpt>
      <trkpt lat="44.34924" lon="5.62131">
        <ele>937.5</ele>
        <time>2021-09-07T18:13:13Z</time>
      </trkpt>
      <trkpt lat="44.34924" lon="5.62131">
        <ele>937.6</ele>
        <time>2021-09-07T18:13:14Z</time>
      </trkpt>
      <trkpt lat="44.34923" lon="5.6213">
        <ele>937.7</ele>
        <time>2021-09-07T18:13:15Z</time>
      </trkpt>
      <trkpt lat="44.34923" lon="5.6213">
        <ele>937.7</ele>
        <time>2021-09-07T18:13:16Z</time>
      </trkpt>
      <trkpt lat="44.34923" lon="5.6213">
        <ele>937.8</ele>
        <time>2021-09-07T18:13:17Z</time>
      </trkpt>
      <trkpt lat="44.34922" lon="5.62129">
        <ele>937.9</ele>
        <time>2021-09-07T18:13:18Z</time>
      </trkpt>
      <trkpt lat="44.34921" lon="5.62129">
        <ele>938.1</ele>
        <time>2021-09-07T18:13:19Z</time>
      </trkpt>
      <trkpt lat="44.34921" lon="5.62128">
        <ele>938.2</ele>
        <time>2021-09-07T18:13:20Z</time>
      </trkpt>
      <trkpt lat="44.34921" lon="5.62128">
        <ele>938.2</ele>
        <time>2021-09-07T18:13:21Z</time>
      </trkpt>
      <trkpt lat="44.34921" lon="5.62128">
        <ele>938.2</ele>
        <time>2021-09-07T18:13:22Z</time>
      </trkpt>
      <trkpt lat="44.3492" lon="5.62128">
        <ele>938.3</ele>
        <time>2021-09-07T18:13:23Z</time>
      </trkpt>
      <trkpt lat="44.3492" lon="5.62128">
        <ele>938.3</ele>
        <time>2021-09-07T18:13:24Z</time>
      </trkpt>
      <trkpt lat="44.3492" lon="5.62128">
        <ele>938.3</ele>
        <time>2021-09-07T18:13:25Z</time>
      </trkpt>
      <trkpt lat="44.3492" lon="5.62127">
        <ele>938.4</ele>
        <time>2021-09-07T18:13:26Z</time>
      </trkpt>
      <trkpt lat="44.3492" lon="5.62127">
        <ele>938.4</ele>
        <time>2021-09-07T18:13:27Z</time>
      </trkpt>
      <trkpt lat="44.3492" lon="5.62127">
        <ele>938.4</ele>
        <time>2021-09-07T18:13:28Z</time>
      </trkpt>
      <trkpt lat="44.3492" lon="5.62127">
        <ele>938.4</ele>
        <time>2021-09-07T18:13:29Z</time>
      </trkpt>
      <trkpt lat="44.3492" lon="5.62127">
        <ele>938.4</ele>
        <time>2021-09-07T18:13:30Z</time>
      </trkpt>
      <trkpt lat="44.34919" lon="5.62127">
        <ele>938.6</ele>
        <time>2021-09-07T18:13:31Z</time>
      </trkpt>
      <trkpt lat="44.34918" lon="5.62128">
        <ele>938.7</ele>
        <time>2021-09-07T18:13:32Z</time>
      </trkpt>
      <trkpt lat="44.34917" lon="5.62128">
        <ele>938.9</ele>
        <time>2021-09-07T18:13:33Z</time>
      </trkpt>
      <trkpt lat="44.34917" lon="5.62129">
        <ele>938.9</ele>
        <time>2021-09-07T18:13:34Z</time>
      </trkpt>
      <trkpt lat="44.34916" lon="5.62129">
        <ele>939</ele>
        <time>2021-09-07T18:13:35Z</time>
      </trkpt>
      <trkpt lat="44.34916" lon="5.6213">
        <ele>939.1</ele>
        <time>2021-09-07T18:13:36Z</time>
      </trkpt>
      <trkpt lat="44.34915" lon="5.6213">
        <ele>939.2</ele>
        <time>2021-09-07T18:13:37Z</time>
      </trkpt>
      <trkpt lat="44.34913" lon="5.62131">
        <ele>939.5</ele>
        <time>2021-09-07T18:13:38Z</time>
      </trkpt>
      <trkpt lat="44.34913" lon="5.62132">
        <ele>939.6</ele>
        <time>2021-09-07T18:13:39Z</time>
      </trkpt>
      <trkpt lat="44.34912" lon="5.62133">
        <ele>939.7</ele>
        <time>2021-09-07T18:13:40Z</time>
      </trkpt>
      <trkpt lat="44.3491" lon="5.62134">
        <ele>939.9</ele>
        <time>2021-09-07T18:13:41Z</time>
      </trkpt>
      <trkpt lat="44.34909" lon="5.62136">
        <ele>940.2</ele>
        <time>2021-09-07T18:13:42Z</time>
      </trkpt>
      <trkpt lat="44.34909" lon="5.62137">
        <ele>940.3</ele>
        <time>2021-09-07T18:13:43Z</time>
      </trkpt>
      <trkpt lat="44.34908" lon="5.62138">
        <ele>940.4</ele>
        <time>2021-09-07T18:13:44Z</time>
      </trkpt>
      <trkpt lat="44.34907" lon="5.6214">
        <ele>940.6</ele>
        <time>2021-09-07T18:13:45Z</time>
      </trkpt>
      <trkpt lat="44.34906" lon="5.62141">
        <ele>940.7</ele>
        <time>2021-09-07T18:13:46Z</time>
      </trkpt>
      <trkpt lat="44.34906" lon="5.62142">
        <ele>940.8</ele>
        <time>2021-09-07T18:13:47Z</time>
      </trkpt>
      <trkpt lat="44.34905" lon="5.62142">
        <ele>940.9</ele>
        <time>2021-09-07T18:13:48Z</time>
      </trkpt>
      <trkpt lat="44.34905" lon="5.62143">
        <ele>940.9</ele>
        <time>2021-09-07T18:13:49Z</time>
      </trkpt>
      <trkpt lat="44.34904" lon="5.62144">
        <ele>941.1</ele>
        <time>2021-09-07T18:13:50Z</time>
      </trkpt>
      <trkpt lat="44.34904" lon="5.62144">
        <ele>941.1</ele>
        <time>2021-09-07T18:13:51Z</time>
      </trkpt>
      <trkpt lat="44.34904" lon="5.62144">
        <ele>941.1</ele>
        <time>2021-09-07T18:13:52Z</time>
      </trkpt>
      <trkpt lat="44.34904" lon="5.62144">
        <ele>941.1</ele>
        <time>2021-09-07T18:13:53Z</time>
      </trkpt>
      <trkpt lat="44.34904" lon="5.62145">
        <ele>941.2</ele>
        <time>2021-09-07T18:13:54Z</time>
      </trkpt>
      <trkpt lat="44.34903" lon="5.62145">
        <ele>941.3</ele>
        <time>2021-09-07T18:13:55Z</time>
      </trkpt>
      <trkpt lat="44.34903" lon="5.62145">
        <ele>941.3</ele>
        <time>2021-09-07T18:13:56Z</time>
      </trkpt>
      <trkpt lat="44.34903" lon="5.62146">
        <ele>941.3</ele>
        <time>2021-09-07T18:13:57Z</time>
      </trkpt>
      <trkpt lat="44.34903" lon="5.62146">
        <ele>941.3</ele>
        <time>2021-09-07T18:13:58Z</time>
      </trkpt>
      <trkpt lat="44.34902" lon="5.62147">
        <ele>941.5</ele>
        <time>2021-09-07T18:13:59Z</time>
      </trkpt>
      <trkpt lat="44.34901" lon="5.62148">
        <ele>941.6</ele>
        <time>2021-09-07T18:14:00Z</time>
      </trkpt>
      <trkpt lat="44.34899" lon="5.6215">
        <ele>941.9</ele>
        <time>2021-09-07T18:14:01Z</time>
      </trkpt>
      <trkpt lat="44.34898" lon="5.62152">
        <ele>942.1</ele>
        <time>2021-09-07T18:14:02Z</time>
      </trkpt>
      <trkpt lat="44.34897" lon="5.62153">
        <ele>942.2</ele>
        <time>2021-09-07T18:14:03Z</time>
      </trkpt>
      <trkpt lat="44.34897" lon="5.62153">
        <ele>942.2</ele>
        <time>2021-09-07T18:14:04Z</time>
      </trkpt>
      <trkpt lat="44.34897" lon="5.62154">
        <ele>942.3</ele>
        <time>2021-09-07T18:14:05Z</time>
      </trkpt>
      <trkpt lat="44.34896" lon="5.62154">
        <ele>942.4</ele>
        <time>2021-09-07T18:14:06Z</time>
      </trkpt>
      <trkpt lat="44.34896" lon="5.62155">
        <ele>942.4</ele>
        <time>2021-09-07T18:14:07Z</time>
      </trkpt>
      <trkpt lat="44.34896" lon="5.62155">
        <ele>942.4</ele>
        <time>2021-09-07T18:14:08Z</time>
      </trkpt>
      <trkpt lat="44.34896" lon="5.62156">
        <ele>942.5</ele>
        <time>2021-09-07T18:14:09Z</time>
      </trkpt>
      <trkpt lat="44.34896" lon="5.62156">
        <ele>942.6</ele>
        <time>2021-09-07T18:14:10Z</time>
      </trkpt>
      <trkpt lat="44.34895" lon="5.62156">
        <ele>942.6</ele>
        <time>2021-09-07T18:14:11Z</time>
      </trkpt>
      <trkpt lat="44.34895" lon="5.62157">
        <ele>942.7</ele>
        <time>2021-09-07T18:14:12Z</time>
      </trkpt>
      <trkpt lat="44.34893" lon="5.6216">
        <ele>943</ele>
        <time>2021-09-07T18:14:13Z</time>
      </trkpt>
      <trkpt lat="44.34892" lon="5.62162">
        <ele>943.2</ele>
        <time>2021-09-07T18:14:14Z</time>
      </trkpt>
      <trkpt lat="44.34892" lon="5.62163">
        <ele>943.3</ele>
        <time>2021-09-07T18:14:15Z</time>
      </trkpt>
      <trkpt lat="44.34891" lon="5.62164">
        <ele>943.4</ele>
        <time>2021-09-07T18:14:16Z</time>
      </trkpt>
      <trkpt lat="44.34891" lon="5.62165">
        <ele>943.5</ele>
        <time>2021-09-07T18:14:17Z</time>
      </trkpt>
      <trkpt lat="44.3489" lon="5.62165">
        <ele>943.6</ele>
        <time>2021-09-07T18:14:18Z</time>
      </trkpt>
      <trkpt lat="44.34889" lon="5.62166">
        <ele>943.7</ele>
        <time>2021-09-07T18:14:19Z</time>
      </trkpt>
      <trkpt lat="44.34889" lon="5.62166">
        <ele>943.7</ele>
        <time>2021-09-07T18:14:20Z</time>
      </trkpt>
      <trkpt lat="44.34889" lon="5.62166">
        <ele>943.7</ele>
        <time>2021-09-07T18:14:21Z</time>
      </trkpt>
      <trkpt lat="44.34889" lon="5.62166">
        <ele>943.7</ele>
        <time>2021-09-07T18:14:22Z</time>
      </trkpt>
      <trkpt lat="44.34889" lon="5.62166">
        <ele>943.7</ele>
        <time>2021-09-07T18:14:23Z</time>
      </trkpt>
      <trkpt lat="44.34889" lon="5.62166">
        <ele>943.7</ele>
        <time>2021-09-07T18:14:24Z</time>
      </trkpt>
      <trkpt lat="44.34889" lon="5.62166">
        <ele>943.7</ele>
        <time>2021-09-07T18:14:25Z</time>
      </trkpt>
      <trkpt lat="44.34889" lon="5.62166">
        <ele>943.7</ele>
        <time>2021-09-07T18:14:26Z</time>
      </trkpt>
      <trkpt lat="44.34889" lon="5.62166">
        <ele>943.7</ele>
        <time>2021-09-07T18:14:27Z</time>
      </trkpt>
      <trkpt lat="44.34889" lon="5.62166">
        <ele>943.7</ele>
        <time>2021-09-07T18:14:28Z</time>
      </trkpt>
      <trkpt lat="44.34889" lon="5.62166">
        <ele>943.7</ele>
        <time>2021-09-07T18:14:29Z</time>
      </trkpt>
      <trkpt lat="44.34889" lon="5.62167">
        <ele>943.8</ele>
        <time>2021-09-07T18:14:30Z</time>
      </trkpt>
      <trkpt lat="44.34888" lon="5.62167">
        <ele>943.9</ele>
        <time>2021-09-07T18:14:31Z</time>
      </trkpt>
      <trkpt lat="44.34887" lon="5.62167">
        <ele>944</ele>
        <time>2021-09-07T18:14:32Z</time>
      </trkpt>
      <trkpt lat="44.34886" lon="5.62167">
        <ele>944.2</ele>
        <time>2021-09-07T18:14:33Z</time>
      </trkpt>
      <trkpt lat="44.34885" lon="5.62167">
        <ele>944.3</ele>
        <time>2021-09-07T18:14:34Z</time>
      </trkpt>
      <trkpt lat="44.34884" lon="5.62168">
        <ele>944.4</ele>
        <time>2021-09-07T18:14:35Z</time>
      </trkpt>
      <trkpt lat="44.34883" lon="5.62168">
        <ele>944.5</ele>
        <time>2021-09-07T18:14:36Z</time>
      </trkpt>
      <trkpt lat="44.34882" lon="5.62169">
        <ele>944.6</ele>
        <time>2021-09-07T18:14:37Z</time>
      </trkpt>
      <trkpt lat="44.34881" lon="5.62169">
        <ele>944.8</ele>
        <time>2021-09-07T18:14:38Z</time>
      </trkpt>
      <trkpt lat="44.34881" lon="5.62169">
        <ele>944.8</ele>
        <time>2021-09-07T18:14:39Z</time>
      </trkpt>
      <trkpt lat="44.3488" lon="5.6217">
        <ele>944.9</ele>
        <time>2021-09-07T18:14:40Z</time>
      </trkpt>
      <trkpt lat="44.34879" lon="5.6217">
        <ele>945</ele>
        <time>2021-09-07T18:14:41Z</time>
      </trkpt>
      <trkpt lat="44.34878" lon="5.6217">
        <ele>945.1</ele>
        <time>2021-09-07T18:14:42Z</time>
      </trkpt>
      <trkpt lat="44.34877" lon="5.62172">
        <ele>945.3</ele>
        <time>2021-09-07T18:14:43Z</time>
      </trkpt>
      <trkpt lat="44.34876" lon="5.62173">
        <ele>945.5</ele>
        <time>2021-09-07T18:14:44Z</time>
      </trkpt>
      <trkpt lat="44.34876" lon="5.62174">
        <ele>945.5</ele>
        <time>2021-09-07T18:14:45Z</time>
      </trkpt>
      <trkpt lat="44.34875" lon="5.62174">
        <ele>945.6</ele>
        <time>2021-09-07T18:14:46Z</time>
      </trkpt>
      <trkpt lat="44.34875" lon="5.62174">
        <ele>945.6</ele>
        <time>2021-09-07T18:14:47Z</time>
      </trkpt>
      <trkpt lat="44.34875" lon="5.62174">
        <ele>945.6</ele>
        <time>2021-09-07T18:14:48Z</time>
      </trkpt>
      <trkpt lat="44.34875" lon="5.62174">
        <ele>945.6</ele>
        <time>2021-09-07T18:14:49Z</time>
      </trkpt>
      <trkpt lat="44.34875" lon="5.62174">
        <ele>945.6</ele>
        <time>2021-09-07T18:14:50Z</time>
      </trkpt>
      <trkpt lat="44.34875" lon="5.62174">
        <ele>945.6</ele>
        <time>2021-09-07T18:14:51Z</time>
      </trkpt>
      <trkpt lat="44.34875" lon="5.62174">
        <ele>945.7</ele>
        <time>2021-09-07T18:14:52Z</time>
      </trkpt>
      <trkpt lat="44.34874" lon="5.62174">
        <ele>945.7</ele>
        <time>2021-09-07T18:14:53Z</time>
      </trkpt>
      <trkpt lat="44.34874" lon="5.62174">
        <ele>945.7</ele>
        <time>2021-09-07T18:14:54Z</time>
      </trkpt>
      <trkpt lat="44.34874" lon="5.62174">
        <ele>945.7</ele>
        <time>2021-09-07T18:14:55Z</time>
      </trkpt>
      <trkpt lat="44.34874" lon="5.62174">
        <ele>945.7</ele>
        <time>2021-09-07T18:14:56Z</time>
      </trkpt>
      <trkpt lat="44.34874" lon="5.62174">
        <ele>945.7</ele>
        <time>2021-09-07T18:14:57Z</time>
      </trkpt>
      <trkpt lat="44.34874" lon="5.62174">
        <ele>945.7</ele>
        <time>2021-09-07T18:14:58Z</time>
      </trkpt>
      <trkpt lat="44.34874" lon="5.62174">
        <ele>945.7</ele>
        <time>2021-09-07T18:14:59Z</time>
      </trkpt>
      <trkpt lat="44.34874" lon="5.62174">
        <ele>945.7</ele>
        <time>2021-09-07T18:15:00Z</time>
      </trkpt>
      <trkpt lat="44.34874" lon="5.62174">
        <ele>945.7</ele>
        <time>2021-09-07T18:15:01Z</time>
      </trkpt>
      <trkpt lat="44.34874" lon="5.62174">
        <ele>945.7</ele>
        <time>2021-09-07T18:15:02Z</time>
      </trkpt>
      <trkpt lat="44.34874" lon="5.62176">
        <ele>945.9</ele>
        <time>2021-09-07T18:15:03Z</time>
      </trkpt>
      <trkpt lat="44.34875" lon="5.62177">
        <ele>946</ele>
        <time>2021-09-07T18:15:04Z</time>
      </trkpt>
      <trkpt lat="44.34875" lon="5.62178">
        <ele>946.1</ele>
        <time>2021-09-07T18:15:05Z</time>
      </trkpt>
      <trkpt lat="44.34876" lon="5.62181">
        <ele>946.4</ele>
        <time>2021-09-07T18:15:06Z</time>
      </trkpt>
      <trkpt lat="44.34876" lon="5.62183">
        <ele>946.5</ele>
        <time>2021-09-07T18:15:07Z</time>
      </trkpt>
      <trkpt lat="44.34876" lon="5.62184">
        <ele>946.6</ele>
        <time>2021-09-07T18:15:08Z</time>
      </trkpt>
      <trkpt lat="44.34876" lon="5.62185">
        <ele>946.7</ele>
        <time>2021-09-07T18:15:09Z</time>
      </trkpt>
      <trkpt lat="44.34876" lon="5.62187">
        <ele>946.9</ele>
        <time>2021-09-07T18:15:10Z</time>
      </trkpt>
      <trkpt lat="44.34876" lon="5.62188">
        <ele>947</ele>
        <time>2021-09-07T18:15:11Z</time>
      </trkpt>
      <trkpt lat="44.34875" lon="5.6219">
        <ele>947.2</ele>
        <time>2021-09-07T18:15:12Z</time>
      </trkpt>
      <trkpt lat="44.34875" lon="5.62191">
        <ele>947.3</ele>
        <time>2021-09-07T18:15:13Z</time>
      </trkpt>
      <trkpt lat="44.34875" lon="5.62192">
        <ele>947.3</ele>
        <time>2021-09-07T18:15:14Z</time>
      </trkpt>
      <trkpt lat="44.34874" lon="5.62194">
        <ele>947.5</ele>
        <time>2021-09-07T18:15:15Z</time>
      </trkpt>
      <trkpt lat="44.34874" lon="5.62195">
        <ele>947.6</ele>
        <time>2021-09-07T18:15:16Z</time>
      </trkpt>
      <trkpt lat="44.34874" lon="5.62196">
        <ele>947.7</ele>
        <time>2021-09-07T18:15:17Z</time>
      </trkpt>
      <trkpt lat="44.34873" lon="5.62196">
        <ele>947.8</ele>
        <time>2021-09-07T18:15:18Z</time>
      </trkpt>
      <trkpt lat="44.34873" lon="5.62196">
        <ele>947.8</ele>
        <time>2021-09-07T18:15:19Z</time>
      </trkpt>
      <trkpt lat="44.34873" lon="5.62196">
        <ele>947.8</ele>
        <time>2021-09-07T18:15:20Z</time>
      </trkpt>
      <trkpt lat="44.34873" lon="5.62197">
        <ele>947.9</ele>
        <time>2021-09-07T18:15:21Z</time>
      </trkpt>
      <trkpt lat="44.34873" lon="5.62197">
        <ele>947.9</ele>
        <time>2021-09-07T18:15:22Z</time>
      </trkpt>
      <trkpt lat="44.34873" lon="5.62197">
        <ele>947.9</ele>
        <time>2021-09-07T18:15:23Z</time>
      </trkpt>
      <trkpt lat="44.34873" lon="5.62197">
        <ele>947.9</ele>
        <time>2021-09-07T18:15:24Z</time>
      </trkpt>
      <trkpt lat="44.34872" lon="5.62197">
        <ele>948</ele>
        <time>2021-09-07T18:15:25Z</time>
      </trkpt>
      <trkpt lat="44.34872" lon="5.62198">
        <ele>948</ele>
        <time>2021-09-07T18:15:26Z</time>
      </trkpt>
      <trkpt lat="44.34872" lon="5.62198">
        <ele>948.1</ele>
        <time>2021-09-07T18:15:27Z</time>
      </trkpt>
      <trkpt lat="44.3487" lon="5.62198">
        <ele>948.3</ele>
        <time>2021-09-07T18:15:28Z</time>
      </trkpt>
      <trkpt lat="44.34868" lon="5.62198">
        <ele>948.5</ele>
        <time>2021-09-07T18:15:29Z</time>
      </trkpt>
      <trkpt lat="44.34868" lon="5.62198">
        <ele>948.6</ele>
        <time>2021-09-07T18:15:30Z</time>
      </trkpt>
      <trkpt lat="44.34867" lon="5.62198">
        <ele>948.7</ele>
        <time>2021-09-07T18:15:31Z</time>
      </trkpt>
      <trkpt lat="44.34866" lon="5.62199">
        <ele>948.8</ele>
        <time>2021-09-07T18:15:32Z</time>
      </trkpt>
      <trkpt lat="44.34865" lon="5.62199">
        <ele>948.9</ele>
        <time>2021-09-07T18:15:33Z</time>
      </trkpt>
      <trkpt lat="44.34865" lon="5.62199">
        <ele>948.9</ele>
        <time>2021-09-07T18:15:34Z</time>
      </trkpt>
      <trkpt lat="44.34864" lon="5.622">
        <ele>949.1</ele>
        <time>2021-09-07T18:15:35Z</time>
      </trkpt>
      <trkpt lat="44.34864" lon="5.622">
        <ele>949.1</ele>
        <time>2021-09-07T18:15:36Z</time>
      </trkpt>
      <trkpt lat="44.34864" lon="5.622">
        <ele>949.1</ele>
        <time>2021-09-07T18:15:37Z</time>
      </trkpt>
      <trkpt lat="44.34864" lon="5.62201">
        <ele>949.1</ele>
        <time>2021-09-07T18:15:38Z</time>
      </trkpt>
      <trkpt lat="44.34864" lon="5.62201">
        <ele>949.2</ele>
        <time>2021-09-07T18:15:39Z</time>
      </trkpt>
      <trkpt lat="44.34864" lon="5.62201">
        <ele>949.2</ele>
        <time>2021-09-07T18:15:40Z</time>
      </trkpt>
      <trkpt lat="44.34864" lon="5.62201">
        <ele>949.2</ele>
        <time>2021-09-07T18:15:41Z</time>
      </trkpt>
      <trkpt lat="44.34864" lon="5.622">
        <ele>949.3</ele>
        <time>2021-09-07T18:15:42Z</time>
      </trkpt>
      <trkpt lat="44.34864" lon="5.62201">
        <ele>949.3</ele>
        <time>2021-09-07T18:15:43Z</time>
      </trkpt>
      <trkpt lat="44.34864" lon="5.62201">
        <ele>949.3</ele>
        <time>2021-09-07T18:15:44Z</time>
      </trkpt>
      <trkpt lat="44.34864" lon="5.62201">
        <ele>949.3</ele>
        <time>2021-09-07T18:15:45Z</time>
      </trkpt>
      <trkpt lat="44.34864" lon="5.62201">
        <ele>949.3</ele>
        <time>2021-09-07T18:15:46Z</time>
      </trkpt>
      <trkpt lat="44.34864" lon="5.62201">
        <ele>949.3</ele>
        <time>2021-09-07T18:15:47Z</time>
      </trkpt>
      <trkpt lat="44.34864" lon="5.62201">
        <ele>949.3</ele>
        <time>2021-09-07T18:15:48Z</time>
      </trkpt>
      <trkpt lat="44.34864" lon="5.62201">
        <ele>949.3</ele>
        <time>2021-09-07T18:15:49Z</time>
      </trkpt>
      <trkpt lat="44.34864" lon="5.62201">
        <ele>949.3</ele>
        <time>2021-09-07T18:15:50Z</time>
      </trkpt>
      <trkpt lat="44.34864" lon="5.62201">
        <ele>949.3</ele>
        <time>2021-09-07T18:15:51Z</time>
      </trkpt>
      <trkpt lat="44.34864" lon="5.62201">
        <ele>949.3</ele>
        <time>2021-09-07T18:15:52Z</time>
      </trkpt>
      <trkpt lat="44.34864" lon="5.62201">
        <ele>949.3</ele>
        <time>2021-09-07T18:15:53Z</time>
      </trkpt>
      <trkpt lat="44.34864" lon="5.62201">
        <ele>949.3</ele>
        <time>2021-09-07T18:15:54Z</time>
      </trkpt>
      <trkpt lat="44.34864" lon="5.62201">
        <ele>949.3</ele>
        <time>2021-09-07T18:15:55Z</time>
      </trkpt>
      <trkpt lat="44.34864" lon="5.62201">
        <ele>949.3</ele>
        <time>2021-09-07T18:15:56Z</time>
      </trkpt>
      <trkpt lat="44.34864" lon="5.62202">
        <ele>949.4</ele>
        <time>2021-09-07T18:15:57Z</time>
      </trkpt>
      <trkpt lat="44.34864" lon="5.62204">
        <ele>949.6</ele>
        <time>2021-09-07T18:15:58Z</time>
      </trkpt>
      <trkpt lat="44.34863" lon="5.62205">
        <ele>949.7</ele>
        <time>2021-09-07T18:15:59Z</time>
      </trkpt>
      <trkpt lat="44.34863" lon="5.62206">
        <ele>949.8</ele>
        <time>2021-09-07T18:16:00Z</time>
      </trkpt>
      <trkpt lat="44.34862" lon="5.62207">
        <ele>949.9</ele>
        <time>2021-09-07T18:16:01Z</time>
      </trkpt>
      <trkpt lat="44.34862" lon="5.62208">
        <ele>950</ele>
        <time>2021-09-07T18:16:02Z</time>
      </trkpt>
      <trkpt lat="44.34862" lon="5.62209">
        <ele>950.1</ele>
        <time>2021-09-07T18:16:03Z</time>
      </trkpt>
      <trkpt lat="44.34861" lon="5.6221">
        <ele>950.2</ele>
        <time>2021-09-07T18:16:04Z</time>
      </trkpt>
      <trkpt lat="44.34861" lon="5.62212">
        <ele>950.4</ele>
        <time>2021-09-07T18:16:05Z</time>
      </trkpt>
      <trkpt lat="44.3486" lon="5.62214">
        <ele>950.6</ele>
        <time>2021-09-07T18:16:06Z</time>
      </trkpt>
      <trkpt lat="44.3486" lon="5.62215">
        <ele>950.7</ele>
        <time>2021-09-07T18:16:07Z</time>
      </trkpt>
      <trkpt lat="44.3486" lon="5.62215">
        <ele>950.7</ele>
        <time>2021-09-07T18:16:08Z</time>
      </trkpt>
      <trkpt lat="44.3486" lon="5.62215">
        <ele>950.7</ele>
        <time>2021-09-07T18:16:09Z</time>
      </trkpt>
      <trkpt lat="44.3486" lon="5.62215">
        <ele>950.7</ele>
        <time>2021-09-07T18:16:10Z</time>
      </trkpt>
      <trkpt lat="44.3486" lon="5.62215">
        <ele>950.7</ele>
        <time>2021-09-07T18:16:11Z</time>
      </trkpt>
      <trkpt lat="44.3486" lon="5.62215">
        <ele>950.7</ele>
        <time>2021-09-07T18:16:12Z</time>
      </trkpt>
      <trkpt lat="44.3486" lon="5.62215">
        <ele>950.7</ele>
        <time>2021-09-07T18:16:13Z</time>
      </trkpt>
      <trkpt lat="44.3486" lon="5.62215">
        <ele>950.7</ele>
        <time>2021-09-07T18:16:14Z</time>
      </trkpt>
      <trkpt lat="44.3486" lon="5.62215">
        <ele>950.7</ele>
        <time>2021-09-07T18:16:15Z</time>
      </trkpt>
      <trkpt lat="44.3486" lon="5.62215">
        <ele>950.7</ele>
        <time>2021-09-07T18:16:16Z</time>
      </trkpt>
      <trkpt lat="44.3486" lon="5.62215">
        <ele>950.7</ele>
        <time>2021-09-07T18:16:17Z</time>
      </trkpt>
      <trkpt lat="44.3486" lon="5.62215">
        <ele>950.7</ele>
        <time>2021-09-07T18:16:18Z</time>
      </trkpt>
      <trkpt lat="44.3486" lon="5.62215">
        <ele>950.7</ele>
        <time>2021-09-07T18:16:19Z</time>
      </trkpt>
      <trkpt lat="44.3486" lon="5.62215">
        <ele>950.7</ele>
        <time>2021-09-07T18:16:20Z</time>
      </trkpt>
      <trkpt lat="44.3486" lon="5.62215">
        <ele>950.7</ele>
        <time>2021-09-07T18:16:21Z</time>
      </trkpt>
      <trkpt lat="44.3486" lon="5.62215">
        <ele>950.7</ele>
        <time>2021-09-07T18:16:22Z</time>
      </trkpt>
      <trkpt lat="44.3486" lon="5.62215">
        <ele>950.7</ele>
        <time>2021-09-07T18:16:23Z</time>
      </trkpt>
      <trkpt lat="44.3486" lon="5.62215">
        <ele>950.7</ele>
        <time>2021-09-07T18:16:24Z</time>
      </trkpt>
      <trkpt lat="44.3486" lon="5.62215">
        <ele>950.7</ele>
        <time>2021-09-07T18:16:25Z</time>
      </trkpt>
      <trkpt lat="44.3486" lon="5.62215">
        <ele>950.7</ele>
        <time>2021-09-07T18:16:26Z</time>
      </trkpt>
      <trkpt lat="44.3486" lon="5.62215">
        <ele>950.7</ele>
        <time>2021-09-07T18:16:27Z</time>
      </trkpt>
      <trkpt lat="44.3486" lon="5.62215">
        <ele>950.7</ele>
        <time>2021-09-07T18:16:28Z</time>
      </trkpt>
      <trkpt lat="44.3486" lon="5.62215">
        <ele>950.7</ele>
        <time>2021-09-07T18:16:29Z</time>
      </trkpt>
      <trkpt lat="44.3486" lon="5.62215">
        <ele>950.7</ele>
        <time>2021-09-07T18:16:30Z</time>
      </trkpt>
      <trkpt lat="44.3486" lon="5.62215">
        <ele>950.7</ele>
        <time>2021-09-07T18:16:31Z</time>
      </trkpt>
      <trkpt lat="44.3486" lon="5.62215">
        <ele>950.7</ele>
        <time>2021-09-07T18:16:32Z</time>
      </trkpt>
      <trkpt lat="44.3486" lon="5.62215">
        <ele>950.7</ele>
        <time>2021-09-07T18:16:33Z</time>
      </trkpt>
      <trkpt lat="44.3486" lon="5.62215">
        <ele>950.7</ele>
        <time>2021-09-07T18:16:34Z</time>
      </trkpt>
      <trkpt lat="44.3486" lon="5.62215">
        <ele>950.7</ele>
        <time>2021-09-07T18:16:35Z</time>
      </trkpt>
      <trkpt lat="44.3486" lon="5.62215">
        <ele>950.7</ele>
        <time>2021-09-07T18:16:36Z</time>
      </trkpt>
      <trkpt lat="44.3486" lon="5.62215">
        <ele>950.7</ele>
        <time>2021-09-07T18:16:37Z</time>
      </trkpt>
      <trkpt lat="44.3486" lon="5.62215">
        <ele>950.7</ele>
        <time>2021-09-07T18:16:38Z</time>
      </trkpt>
      <trkpt lat="44.3486" lon="5.62215">
        <ele>950.7</ele>
        <time>2021-09-07T18:16:39Z</time>
      </trkpt>
      <trkpt lat="44.3486" lon="5.62215">
        <ele>950.7</ele>
        <time>2021-09-07T18:16:40Z</time>
      </trkpt>
      <trkpt lat="44.3486" lon="5.62215">
        <ele>950.7</ele>
        <time>2021-09-07T18:16:41Z</time>
      </trkpt>
      <trkpt lat="44.3486" lon="5.62215">
        <ele>950.7</ele>
        <time>2021-09-07T18:16:42Z</time>
      </trkpt>
      <trkpt lat="44.3486" lon="5.62215">
        <ele>950.7</ele>
        <time>2021-09-07T18:16:43Z</time>
      </trkpt>
      <trkpt lat="44.3486" lon="5.62215">
        <ele>950.7</ele>
        <time>2021-09-07T18:16:44Z</time>
      </trkpt>
      <trkpt lat="44.3486" lon="5.62215">
        <ele>950.7</ele>
        <time>2021-09-07T18:16:45Z</time>
      </trkpt>
      <trkpt lat="44.3486" lon="5.62215">
        <ele>950.7</ele>
        <time>2021-09-07T18:16:46Z</time>
      </trkpt>
      <trkpt lat="44.3486" lon="5.62215">
        <ele>950.7</ele>
        <time>2021-09-07T18:16:47Z</time>
      </trkpt>
      <trkpt lat="44.3486" lon="5.62215">
        <ele>950.7</ele>
        <time>2021-09-07T18:16:48Z</time>
      </trkpt>
      <trkpt lat="44.3486" lon="5.62215">
        <ele>950.7</ele>
        <time>2021-09-07T18:16:49Z</time>
      </trkpt>
      <trkpt lat="44.3486" lon="5.62215">
        <ele>950.7</ele>
        <time>2021-09-07T18:16:50Z</time>
      </trkpt>
      <trkpt lat="44.3486" lon="5.62215">
        <ele>950.7</ele>
        <time>2021-09-07T18:16:51Z</time>
      </trkpt>
      <trkpt lat="44.3486" lon="5.62215">
        <ele>950.7</ele>
        <time>2021-09-07T18:16:52Z</time>
      </trkpt>
      <trkpt lat="44.3486" lon="5.62215">
        <ele>950.7</ele>
        <time>2021-09-07T18:16:53Z</time>
      </trkpt>
      <trkpt lat="44.3486" lon="5.62215">
        <ele>950.7</ele>
        <time>2021-09-07T18:16:54Z</time>
      </trkpt>
      <trkpt lat="44.3486" lon="5.62215">
        <ele>950.7</ele>
        <time>2021-09-07T18:16:55Z</time>
      </trkpt>
      <trkpt lat="44.3486" lon="5.62215">
        <ele>950.7</ele>
        <time>2021-09-07T18:16:56Z</time>
      </trkpt>
      <trkpt lat="44.3486" lon="5.62215">
        <ele>950.7</ele>
        <time>2021-09-07T18:16:57Z</time>
      </trkpt>
      <trkpt lat="44.3486" lon="5.62215">
        <ele>950.7</ele>
        <time>2021-09-07T18:16:58Z</time>
      </trkpt>
      <trkpt lat="44.3486" lon="5.62215">
        <ele>950.7</ele>
        <time>2021-09-07T18:16:59Z</time>
      </trkpt>
      <trkpt lat="44.3486" lon="5.62215">
        <ele>950.7</ele>
        <time>2021-09-07T18:17:00Z</time>
      </trkpt>
      <trkpt lat="44.3486" lon="5.62215">
        <ele>950.7</ele>
        <time>2021-09-07T18:17:01Z</time>
      </trkpt>
      <trkpt lat="44.3486" lon="5.62215">
        <ele>950.7</ele>
        <time>2021-09-07T18:17:02Z</time>
      </trkpt>
      <trkpt lat="44.3486" lon="5.62215">
        <ele>950.7</ele>
        <time>2021-09-07T18:17:03Z</time>
      </trkpt>
      <trkpt lat="44.3486" lon="5.62215">
        <ele>950.7</ele>
        <time>2021-09-07T18:17:04Z</time>
      </trkpt>
      <trkpt lat="44.3486" lon="5.62215">
        <ele>950.7</ele>
        <time>2021-09-07T18:17:05Z</time>
      </trkpt>
      <trkpt lat="44.3486" lon="5.62215">
        <ele>950.7</ele>
        <time>2021-09-07T18:17:06Z</time>
      </trkpt>
      <trkpt lat="44.3486" lon="5.62215">
        <ele>950.7</ele>
        <time>2021-09-07T18:17:07Z</time>
      </trkpt>
      <trkpt lat="44.3486" lon="5.62215">
        <ele>950.7</ele>
        <time>2021-09-07T18:17:08Z</time>
      </trkpt>
      <trkpt lat="44.3486" lon="5.62215">
        <ele>950.7</ele>
        <time>2021-09-07T18:17:09Z</time>
      </trkpt>
      <trkpt lat="44.3486" lon="5.62215">
        <ele>950.7</ele>
        <time>2021-09-07T18:17:10Z</time>
      </trkpt>
      <trkpt lat="44.3486" lon="5.62215">
        <ele>950.7</ele>
        <time>2021-09-07T18:17:11Z</time>
      </trkpt>
      <trkpt lat="44.3486" lon="5.62215">
        <ele>950.7</ele>
        <time>2021-09-07T18:17:12Z</time>
      </trkpt>
      <trkpt lat="44.3486" lon="5.62215">
        <ele>950.7</ele>
        <time>2021-09-07T18:17:13Z</time>
      </trkpt>
      <trkpt lat="44.3486" lon="5.62215">
        <ele>950.7</ele>
        <time>2021-09-07T18:17:14Z</time>
      </trkpt>
      <trkpt lat="44.3486" lon="5.62215">
        <ele>950.8</ele>
        <time>2021-09-07T18:17:15Z</time>
      </trkpt>
      <trkpt lat="44.3486" lon="5.62215">
        <ele>950.8</ele>
        <time>2021-09-07T18:17:16Z</time>
      </trkpt>
      <trkpt lat="44.3486" lon="5.62215">
        <ele>950.8</ele>
        <time>2021-09-07T18:17:17Z</time>
      </trkpt>
      <trkpt lat="44.3486" lon="5.62215">
        <ele>950.8</ele>
        <time>2021-09-07T18:17:18Z</time>
      </trkpt>
      <trkpt lat="44.3486" lon="5.62215">
        <ele>950.9</ele>
        <time>2021-09-07T18:17:19Z</time>
      </trkpt>
      <trkpt lat="44.3486" lon="5.62215">
        <ele>950.9</ele>
        <time>2021-09-07T18:17:20Z</time>
      </trkpt>
      <trkpt lat="44.3486" lon="5.62215">
        <ele>950.9</ele>
        <time>2021-09-07T18:17:21Z</time>
      </trkpt>
      <trkpt lat="44.3486" lon="5.62215">
        <ele>950.9</ele>
        <time>2021-09-07T18:17:22Z</time>
      </trkpt>
      <trkpt lat="44.3486" lon="5.62215">
        <ele>951</ele>
        <time>2021-09-07T18:17:23Z</time>
      </trkpt>
      <trkpt lat="44.3486" lon="5.62215">
        <ele>951</ele>
        <time>2021-09-07T18:17:24Z</time>
      </trkpt>
      <trkpt lat="44.3486" lon="5.62215">
        <ele>951</ele>
        <time>2021-09-07T18:17:25Z</time>
      </trkpt>
      <trkpt lat="44.3486" lon="5.62215">
        <ele>951</ele>
        <time>2021-09-07T18:17:26Z</time>
      </trkpt>
      <trkpt lat="44.3486" lon="5.62215">
        <ele>951.1</ele>
        <time>2021-09-07T18:17:27Z</time>
      </trkpt>
      <trkpt lat="44.34861" lon="5.62214">
        <ele>951.3</ele>
        <time>2021-09-07T18:17:28Z</time>
      </trkpt>
      <trkpt lat="44.34862" lon="5.62215">
        <ele>951.4</ele>
        <time>2021-09-07T18:17:29Z</time>
      </trkpt>
      <trkpt lat="44.34862" lon="5.62215">
        <ele>951.4</ele>
        <time>2021-09-07T18:17:30Z</time>
      </trkpt>
      <trkpt lat="44.34863" lon="5.62216">
        <ele>951.7</ele>
        <time>2021-09-07T18:17:31Z</time>
      </trkpt>
      <trkpt lat="44.34864" lon="5.62218">
        <ele>951.9</ele>
        <time>2021-09-07T18:17:32Z</time>
      </trkpt>
      <trkpt lat="44.34864" lon="5.6222">
        <ele>952.1</ele>
        <time>2021-09-07T18:17:33Z</time>
      </trkpt>
      <trkpt lat="44.34865" lon="5.62222">
        <ele>952.3</ele>
        <time>2021-09-07T18:17:34Z</time>
      </trkpt>
      <trkpt lat="44.34867" lon="5.62224">
        <ele>952.6</ele>
        <time>2021-09-07T18:17:35Z</time>
      </trkpt>
      <trkpt lat="44.34868" lon="5.62226">
        <ele>953</ele>
        <time>2021-09-07T18:17:36Z</time>
      </trkpt>
      <trkpt lat="44.34868" lon="5.62228">
        <ele>953.2</ele>
        <time>2021-09-07T18:17:37Z</time>
      </trkpt>
      <trkpt lat="44.34869" lon="5.6223">
        <ele>953.4</ele>
        <time>2021-09-07T18:17:38Z</time>
      </trkpt>
      <trkpt lat="44.3487" lon="5.62231">
        <ele>953.6</ele>
        <time>2021-09-07T18:17:39Z</time>
      </trkpt>
      <trkpt lat="44.3487" lon="5.62232">
        <ele>953.7</ele>
        <time>2021-09-07T18:17:40Z</time>
      </trkpt>
      <trkpt lat="44.3487" lon="5.62232">
        <ele>953.8</ele>
        <time>2021-09-07T18:17:41Z</time>
      </trkpt>
      <trkpt lat="44.34869" lon="5.62232">
        <ele>953.9</ele>
        <time>2021-09-07T18:17:42Z</time>
      </trkpt>
      <trkpt lat="44.34869" lon="5.62232">
        <ele>953.9</ele>
        <time>2021-09-07T18:17:43Z</time>
      </trkpt>
      <trkpt lat="44.34869" lon="5.62232">
        <ele>953.9</ele>
        <time>2021-09-07T18:17:44Z</time>
      </trkpt>
      <trkpt lat="44.34869" lon="5.62232">
        <ele>953.9</ele>
        <time>2021-09-07T18:17:45Z</time>
      </trkpt>
      <trkpt lat="44.34869" lon="5.62232">
        <ele>954</ele>
        <time>2021-09-07T18:17:46Z</time>
      </trkpt>
      <trkpt lat="44.34869" lon="5.62232">
        <ele>954</ele>
        <time>2021-09-07T18:17:47Z</time>
      </trkpt>
      <trkpt lat="44.34869" lon="5.62232">
        <ele>954</ele>
        <time>2021-09-07T18:17:48Z</time>
      </trkpt>
      <trkpt lat="44.34869" lon="5.62232">
        <ele>954</ele>
        <time>2021-09-07T18:17:49Z</time>
      </trkpt>
      <trkpt lat="44.34867" lon="5.62229">
        <ele>954.6</ele>
        <time>2021-09-07T18:17:50Z</time>
      </trkpt>
      <trkpt lat="44.34864" lon="5.62225">
        <ele>955</ele>
        <time>2021-09-07T18:17:51Z</time>
      </trkpt>
      <trkpt lat="44.34862" lon="5.62221">
        <ele>955.5</ele>
        <time>2021-09-07T18:17:52Z</time>
      </trkpt>
      <trkpt lat="44.3486" lon="5.62217">
        <ele>955.9</ele>
        <time>2021-09-07T18:17:53Z</time>
      </trkpt>
      <trkpt lat="44.34859" lon="5.62215">
        <ele>956.2</ele>
        <time>2021-09-07T18:17:54Z</time>
      </trkpt>
      <trkpt lat="44.34857" lon="5.62212">
        <ele>956.6</ele>
        <time>2021-09-07T18:17:55Z</time>
      </trkpt>
      <trkpt lat="44.34856" lon="5.6221">
        <ele>956.8</ele>
        <time>2021-09-07T18:17:56Z</time>
      </trkpt>
      <trkpt lat="44.34856" lon="5.62209">
        <ele>957</ele>
        <time>2021-09-07T18:17:57Z</time>
      </trkpt>
      <trkpt lat="44.34855" lon="5.62208">
        <ele>957.1</ele>
        <time>2021-09-07T18:17:58Z</time>
      </trkpt>
      <trkpt lat="44.34855" lon="5.62208">
        <ele>957.1</ele>
        <time>2021-09-07T18:17:59Z</time>
      </trkpt>
      <trkpt lat="44.34855" lon="5.62208">
        <ele>957.1</ele>
        <time>2021-09-07T18:18:00Z</time>
      </trkpt>
      <trkpt lat="44.34855" lon="5.62208">
        <ele>957.2</ele>
        <time>2021-09-07T18:18:01Z</time>
      </trkpt>
      <trkpt lat="44.34855" lon="5.62208">
        <ele>957.2</ele>
        <time>2021-09-07T18:18:02Z</time>
      </trkpt>
      <trkpt lat="44.34854" lon="5.62209">
        <ele>957.4</ele>
        <time>2021-09-07T18:18:03Z</time>
      </trkpt>
      <trkpt lat="44.34853" lon="5.6221">
        <ele>957.6</ele>
        <time>2021-09-07T18:18:04Z</time>
      </trkpt>
      <trkpt lat="44.34851" lon="5.62209">
        <ele>957.8</ele>
        <time>2021-09-07T18:18:05Z</time>
      </trkpt>
      <trkpt lat="44.3485" lon="5.62209">
        <ele>958</ele>
        <time>2021-09-07T18:18:06Z</time>
      </trkpt>
      <trkpt lat="44.3485" lon="5.62209">
        <ele>958.1</ele>
        <time>2021-09-07T18:18:07Z</time>
      </trkpt>
      <trkpt lat="44.34849" lon="5.62208">
        <ele>958.2</ele>
        <time>2021-09-07T18:18:08Z</time>
      </trkpt>
      <trkpt lat="44.34849" lon="5.62208">
        <ele>958.3</ele>
        <time>2021-09-07T18:18:09Z</time>
      </trkpt>
      <trkpt lat="44.34848" lon="5.62208">
        <ele>958.4</ele>
        <time>2021-09-07T18:18:10Z</time>
      </trkpt>
      <trkpt lat="44.34847" lon="5.62208">
        <ele>958.6</ele>
        <time>2021-09-07T18:18:11Z</time>
      </trkpt>
      <trkpt lat="44.34845" lon="5.62209">
        <ele>958.9</ele>
        <time>2021-09-07T18:18:12Z</time>
      </trkpt>
      <trkpt lat="44.34845" lon="5.6221">
        <ele>959</ele>
        <time>2021-09-07T18:18:13Z</time>
      </trkpt>
      <trkpt lat="44.34845" lon="5.6221">
        <ele>959</ele>
        <time>2021-09-07T18:18:14Z</time>
      </trkpt>
      <trkpt lat="44.34844" lon="5.6221">
        <ele>959.2</ele>
        <time>2021-09-07T18:18:15Z</time>
      </trkpt>
      <trkpt lat="44.34844" lon="5.62211">
        <ele>959.3</ele>
        <time>2021-09-07T18:18:16Z</time>
      </trkpt>
      <trkpt lat="44.34844" lon="5.62211">
        <ele>959.3</ele>
        <time>2021-09-07T18:18:17Z</time>
      </trkpt>
      <trkpt lat="44.34843" lon="5.62211">
        <ele>959.4</ele>
        <time>2021-09-07T18:18:18Z</time>
      </trkpt>
      <trkpt lat="44.34843" lon="5.62211">
        <ele>959.5</ele>
        <time>2021-09-07T18:18:19Z</time>
      </trkpt>
      <trkpt lat="44.34843" lon="5.62211">
        <ele>959.5</ele>
        <time>2021-09-07T18:18:20Z</time>
      </trkpt>
      <trkpt lat="44.34843" lon="5.62211">
        <ele>959.5</ele>
        <time>2021-09-07T18:18:21Z</time>
      </trkpt>
      <trkpt lat="44.34843" lon="5.62211">
        <ele>959.5</ele>
        <time>2021-09-07T18:18:22Z</time>
      </trkpt>
      <trkpt lat="44.34843" lon="5.62211">
        <ele>959.5</ele>
        <time>2021-09-07T18:18:23Z</time>
      </trkpt>
      <trkpt lat="44.34843" lon="5.62212">
        <ele>959.7</ele>
        <time>2021-09-07T18:18:24Z</time>
      </trkpt>
      <trkpt lat="44.34843" lon="5.62212">
        <ele>959.7</ele>
        <time>2021-09-07T18:18:25Z</time>
      </trkpt>
      <trkpt lat="44.34842" lon="5.62212">
        <ele>959.8</ele>
        <time>2021-09-07T18:18:26Z</time>
      </trkpt>
      <trkpt lat="44.34842" lon="5.62212">
        <ele>959.8</ele>
        <time>2021-09-07T18:18:27Z</time>
      </trkpt>
      <trkpt lat="44.34842" lon="5.62212">
        <ele>959.9</ele>
        <time>2021-09-07T18:18:28Z</time>
      </trkpt>
      <trkpt lat="44.34842" lon="5.62213">
        <ele>960</ele>
        <time>2021-09-07T18:18:29Z</time>
      </trkpt>
      <trkpt lat="44.3484" lon="5.62216">
        <ele>960.4</ele>
        <time>2021-09-07T18:18:30Z</time>
      </trkpt>
      <trkpt lat="44.3484" lon="5.62217">
        <ele>960.5</ele>
        <time>2021-09-07T18:18:31Z</time>
      </trkpt>
      <trkpt lat="44.34839" lon="5.62217">
        <ele>960.6</ele>
        <time>2021-09-07T18:18:32Z</time>
      </trkpt>
      <trkpt lat="44.34838" lon="5.62219">
        <ele>960.9</ele>
        <time>2021-09-07T18:18:33Z</time>
      </trkpt>
      <trkpt lat="44.34838" lon="5.6222">
        <ele>961</ele>
        <time>2021-09-07T18:18:34Z</time>
      </trkpt>
      <trkpt lat="44.34837" lon="5.6222">
        <ele>961.1</ele>
        <time>2021-09-07T18:18:35Z</time>
      </trkpt>
      <trkpt lat="44.34836" lon="5.62221">
        <ele>961.2</ele>
        <time>2021-09-07T18:18:36Z</time>
      </trkpt>
      <trkpt lat="44.34836" lon="5.62221">
        <ele>961.3</ele>
        <time>2021-09-07T18:18:37Z</time>
      </trkpt>
      <trkpt lat="44.34836" lon="5.62221">
        <ele>961.3</ele>
        <time>2021-09-07T18:18:38Z</time>
      </trkpt>
      <trkpt lat="44.34836" lon="5.62221">
        <ele>961.3</ele>
        <time>2021-09-07T18:18:39Z</time>
      </trkpt>
      <trkpt lat="44.34835" lon="5.62222">
        <ele>961.5</ele>
        <time>2021-09-07T18:18:40Z</time>
      </trkpt>
      <trkpt lat="44.34834" lon="5.62222">
        <ele>961.6</ele>
        <time>2021-09-07T18:18:41Z</time>
      </trkpt>
      <trkpt lat="44.34834" lon="5.62224">
        <ele>961.9</ele>
        <time>2021-09-07T18:18:42Z</time>
      </trkpt>
      <trkpt lat="44.34833" lon="5.62225">
        <ele>962</ele>
        <time>2021-09-07T18:18:43Z</time>
      </trkpt>
      <trkpt lat="44.34832" lon="5.62226">
        <ele>962.2</ele>
        <time>2021-09-07T18:18:44Z</time>
      </trkpt>
      <trkpt lat="44.34832" lon="5.62227">
        <ele>962.3</ele>
        <time>2021-09-07T18:18:45Z</time>
      </trkpt>
      <trkpt lat="44.34831" lon="5.62228">
        <ele>962.5</ele>
        <time>2021-09-07T18:18:46Z</time>
      </trkpt>
      <trkpt lat="44.34831" lon="5.62229">
        <ele>962.6</ele>
        <time>2021-09-07T18:18:47Z</time>
      </trkpt>
      <trkpt lat="44.3483" lon="5.62229">
        <ele>962.7</ele>
        <time>2021-09-07T18:18:48Z</time>
      </trkpt>
      <trkpt lat="44.34829" lon="5.62229">
        <ele>962.8</ele>
        <time>2021-09-07T18:18:49Z</time>
      </trkpt>
      <trkpt lat="44.34828" lon="5.6223">
        <ele>963</ele>
        <time>2021-09-07T18:18:50Z</time>
      </trkpt>
      <trkpt lat="44.34828" lon="5.62231">
        <ele>963.1</ele>
        <time>2021-09-07T18:18:51Z</time>
      </trkpt>
      <trkpt lat="44.34827" lon="5.62231">
        <ele>963.2</ele>
        <time>2021-09-07T18:18:52Z</time>
      </trkpt>
      <trkpt lat="44.34826" lon="5.62231">
        <ele>963.3</ele>
        <time>2021-09-07T18:18:53Z</time>
      </trkpt>
      <trkpt lat="44.34826" lon="5.62232">
        <ele>963.4</ele>
        <time>2021-09-07T18:18:54Z</time>
      </trkpt>
      <trkpt lat="44.34826" lon="5.62232">
        <ele>963.4</ele>
        <time>2021-09-07T18:18:55Z</time>
      </trkpt>
      <trkpt lat="44.34825" lon="5.62235">
        <ele>963.7</ele>
        <time>2021-09-07T18:18:56Z</time>
      </trkpt>
      <trkpt lat="44.34825" lon="5.62238">
        <ele>964</ele>
        <time>2021-09-07T18:18:57Z</time>
      </trkpt>
      <trkpt lat="44.34825" lon="5.62239">
        <ele>964.1</ele>
        <time>2021-09-07T18:18:58Z</time>
      </trkpt>
      <trkpt lat="44.34824" lon="5.6224">
        <ele>964.2</ele>
        <time>2021-09-07T18:18:59Z</time>
      </trkpt>
      <trkpt lat="44.34824" lon="5.62242">
        <ele>964.4</ele>
        <time>2021-09-07T18:19:00Z</time>
      </trkpt>
      <trkpt lat="44.34824" lon="5.62243">
        <ele>964.5</ele>
        <time>2021-09-07T18:19:01Z</time>
      </trkpt>
      <trkpt lat="44.34823" lon="5.62243">
        <ele>964.5</ele>
        <time>2021-09-07T18:19:02Z</time>
      </trkpt>
      <trkpt lat="44.34823" lon="5.62243">
        <ele>964.5</ele>
        <time>2021-09-07T18:19:03Z</time>
      </trkpt>
      <trkpt lat="44.34822" lon="5.62244">
        <ele>964.7</ele>
        <time>2021-09-07T18:19:04Z</time>
      </trkpt>
      <trkpt lat="44.34822" lon="5.62244">
        <ele>964.7</ele>
        <time>2021-09-07T18:19:05Z</time>
      </trkpt>
      <trkpt lat="44.34822" lon="5.62244">
        <ele>964.7</ele>
        <time>2021-09-07T18:19:06Z</time>
      </trkpt>
      <trkpt lat="44.34822" lon="5.62245">
        <ele>964.8</ele>
        <time>2021-09-07T18:19:07Z</time>
      </trkpt>
      <trkpt lat="44.34822" lon="5.62245">
        <ele>964.8</ele>
        <time>2021-09-07T18:19:08Z</time>
      </trkpt>
      <trkpt lat="44.34822" lon="5.62246">
        <ele>964.9</ele>
        <time>2021-09-07T18:19:09Z</time>
      </trkpt>
      <trkpt lat="44.34822" lon="5.62246">
        <ele>964.9</ele>
        <time>2021-09-07T18:19:10Z</time>
      </trkpt>
      <trkpt lat="44.34821" lon="5.62246">
        <ele>965</ele>
        <time>2021-09-07T18:19:11Z</time>
      </trkpt>
      <trkpt lat="44.34821" lon="5.62246">
        <ele>965</ele>
        <time>2021-09-07T18:19:12Z</time>
      </trkpt>
      <trkpt lat="44.34821" lon="5.62246">
        <ele>965</ele>
        <time>2021-09-07T18:19:13Z</time>
      </trkpt>
      <trkpt lat="44.34821" lon="5.62247">
        <ele>965</ele>
        <time>2021-09-07T18:19:14Z</time>
      </trkpt>
      <trkpt lat="44.34821" lon="5.62247">
        <ele>965.1</ele>
        <time>2021-09-07T18:19:15Z</time>
      </trkpt>
      <trkpt lat="44.34821" lon="5.6225">
        <ele>965.3</ele>
        <time>2021-09-07T18:19:16Z</time>
      </trkpt>
      <trkpt lat="44.34821" lon="5.62251">
        <ele>965.4</ele>
        <time>2021-09-07T18:19:17Z</time>
      </trkpt>
      <trkpt lat="44.34821" lon="5.62252">
        <ele>965.5</ele>
        <time>2021-09-07T18:19:18Z</time>
      </trkpt>
      <trkpt lat="44.34821" lon="5.62253">
        <ele>965.6</ele>
        <time>2021-09-07T18:19:19Z</time>
      </trkpt>
      <trkpt lat="44.34821" lon="5.62254">
        <ele>965.7</ele>
        <time>2021-09-07T18:19:20Z</time>
      </trkpt>
      <trkpt lat="44.34821" lon="5.62255">
        <ele>965.8</ele>
        <time>2021-09-07T18:19:21Z</time>
      </trkpt>
      <trkpt lat="44.34822" lon="5.62256">
        <ele>965.8</ele>
        <time>2021-09-07T18:19:22Z</time>
      </trkpt>
      <trkpt lat="44.34822" lon="5.62256">
        <ele>965.9</ele>
        <time>2021-09-07T18:19:23Z</time>
      </trkpt>
      <trkpt lat="44.34822" lon="5.62257">
        <ele>966</ele>
        <time>2021-09-07T18:19:24Z</time>
      </trkpt>
      <trkpt lat="44.34822" lon="5.62257">
        <ele>966</ele>
        <time>2021-09-07T18:19:25Z</time>
      </trkpt>
      <trkpt lat="44.34822" lon="5.62258">
        <ele>966</ele>
        <time>2021-09-07T18:19:26Z</time>
      </trkpt>
      <trkpt lat="44.34822" lon="5.62258">
        <ele>966.1</ele>
        <time>2021-09-07T18:19:27Z</time>
      </trkpt>
      <trkpt lat="44.34822" lon="5.62258">
        <ele>966.1</ele>
        <time>2021-09-07T18:19:28Z</time>
      </trkpt>
      <trkpt lat="44.34822" lon="5.62258">
        <ele>966.1</ele>
        <time>2021-09-07T18:19:29Z</time>
      </trkpt>
      <trkpt lat="44.34822" lon="5.62259">
        <ele>966.2</ele>
        <time>2021-09-07T18:19:30Z</time>
      </trkpt>
      <trkpt lat="44.34822" lon="5.62259">
        <ele>966.2</ele>
        <time>2021-09-07T18:19:31Z</time>
      </trkpt>
      <trkpt lat="44.34822" lon="5.62259">
        <ele>966.2</ele>
        <time>2021-09-07T18:19:32Z</time>
      </trkpt>
      <trkpt lat="44.34822" lon="5.62259">
        <ele>966.2</ele>
        <time>2021-09-07T18:19:33Z</time>
      </trkpt>
      <trkpt lat="44.34822" lon="5.62259">
        <ele>966.2</ele>
        <time>2021-09-07T18:19:34Z</time>
      </trkpt>
      <trkpt lat="44.34822" lon="5.62259">
        <ele>966.2</ele>
        <time>2021-09-07T18:19:35Z</time>
      </trkpt>
      <trkpt lat="44.34822" lon="5.6226">
        <ele>966.2</ele>
        <time>2021-09-07T18:19:36Z</time>
      </trkpt>
      <trkpt lat="44.34822" lon="5.6226">
        <ele>966.3</ele>
        <time>2021-09-07T18:19:37Z</time>
      </trkpt>
      <trkpt lat="44.34822" lon="5.62262">
        <ele>966.4</ele>
        <time>2021-09-07T18:19:38Z</time>
      </trkpt>
      <trkpt lat="44.34822" lon="5.62263">
        <ele>966.5</ele>
        <time>2021-09-07T18:19:39Z</time>
      </trkpt>
      <trkpt lat="44.34822" lon="5.62268">
        <ele>966.9</ele>
        <time>2021-09-07T18:19:40Z</time>
      </trkpt>
      <trkpt lat="44.34822" lon="5.62272">
        <ele>967.3</ele>
        <time>2021-09-07T18:19:41Z</time>
      </trkpt>
      <trkpt lat="44.34822" lon="5.62274">
        <ele>967.5</ele>
        <time>2021-09-07T18:19:42Z</time>
      </trkpt>
      <trkpt lat="44.34822" lon="5.62275">
        <ele>967.5</ele>
        <time>2021-09-07T18:19:43Z</time>
      </trkpt>
      <trkpt lat="44.34822" lon="5.62275">
        <ele>967.5</ele>
        <time>2021-09-07T18:19:44Z</time>
      </trkpt>
      <trkpt lat="44.34822" lon="5.62275">
        <ele>967.5</ele>
        <time>2021-09-07T18:19:45Z</time>
      </trkpt>
      <trkpt lat="44.34822" lon="5.62275">
        <ele>967.5</ele>
        <time>2021-09-07T18:19:46Z</time>
      </trkpt>
      <trkpt lat="44.34822" lon="5.62275">
        <ele>967.5</ele>
        <time>2021-09-07T18:19:47Z</time>
      </trkpt>
      <trkpt lat="44.34822" lon="5.62274">
        <ele>967.6</ele>
        <time>2021-09-07T18:19:48Z</time>
      </trkpt>
      <trkpt lat="44.34822" lon="5.62274">
        <ele>967.6</ele>
        <time>2021-09-07T18:19:49Z</time>
      </trkpt>
      <trkpt lat="44.34822" lon="5.62274">
        <ele>967.6</ele>
        <time>2021-09-07T18:19:50Z</time>
      </trkpt>
      <trkpt lat="44.34822" lon="5.62274">
        <ele>967.6</ele>
        <time>2021-09-07T18:19:51Z</time>
      </trkpt>
      <trkpt lat="44.34822" lon="5.62275">
        <ele>967.7</ele>
        <time>2021-09-07T18:19:52Z</time>
      </trkpt>
      <trkpt lat="44.34822" lon="5.62275">
        <ele>967.7</ele>
        <time>2021-09-07T18:19:53Z</time>
      </trkpt>
      <trkpt lat="44.34822" lon="5.62275">
        <ele>967.7</ele>
        <time>2021-09-07T18:19:54Z</time>
      </trkpt>
      <trkpt lat="44.34821" lon="5.62276">
        <ele>967.9</ele>
        <time>2021-09-07T18:19:55Z</time>
      </trkpt>
      <trkpt lat="44.34821" lon="5.62276">
        <ele>967.9</ele>
        <time>2021-09-07T18:19:56Z</time>
      </trkpt>
      <trkpt lat="44.34821" lon="5.62277">
        <ele>968</ele>
        <time>2021-09-07T18:19:57Z</time>
      </trkpt>
      <trkpt lat="44.34821" lon="5.62278">
        <ele>968</ele>
        <time>2021-09-07T18:19:58Z</time>
      </trkpt>
      <trkpt lat="44.34821" lon="5.62279">
        <ele>968.1</ele>
        <time>2021-09-07T18:19:59Z</time>
      </trkpt>
      <trkpt lat="44.34821" lon="5.62282">
        <ele>968.4</ele>
        <time>2021-09-07T18:20:00Z</time>
      </trkpt>
      <trkpt lat="44.3482" lon="5.62284">
        <ele>968.6</ele>
        <time>2021-09-07T18:20:01Z</time>
      </trkpt>
      <trkpt lat="44.3482" lon="5.62285">
        <ele>968.7</ele>
        <time>2021-09-07T18:20:02Z</time>
      </trkpt>
      <trkpt lat="44.3482" lon="5.62286">
        <ele>968.8</ele>
        <time>2021-09-07T18:20:03Z</time>
      </trkpt>
      <trkpt lat="44.34819" lon="5.62287">
        <ele>968.9</ele>
        <time>2021-09-07T18:20:04Z</time>
      </trkpt>
      <trkpt lat="44.34819" lon="5.62288">
        <ele>969</ele>
        <time>2021-09-07T18:20:05Z</time>
      </trkpt>
      <trkpt lat="44.34819" lon="5.62289">
        <ele>969</ele>
        <time>2021-09-07T18:20:06Z</time>
      </trkpt>
      <trkpt lat="44.34819" lon="5.62289">
        <ele>969.1</ele>
        <time>2021-09-07T18:20:07Z</time>
      </trkpt>
      <trkpt lat="44.34817" lon="5.62291">
        <ele>969.4</ele>
        <time>2021-09-07T18:20:08Z</time>
      </trkpt>
      <trkpt lat="44.34816" lon="5.62292">
        <ele>969.5</ele>
        <time>2021-09-07T18:20:09Z</time>
      </trkpt>
      <trkpt lat="44.34814" lon="5.62293">
        <ele>969.8</ele>
        <time>2021-09-07T18:20:10Z</time>
      </trkpt>
      <trkpt lat="44.34813" lon="5.62295">
        <ele>970</ele>
        <time>2021-09-07T18:20:11Z</time>
      </trkpt>
      <trkpt lat="44.34812" lon="5.62296">
        <ele>970.1</ele>
        <time>2021-09-07T18:20:12Z</time>
      </trkpt>
      <trkpt lat="44.34811" lon="5.62296">
        <ele>970.2</ele>
        <time>2021-09-07T18:20:13Z</time>
      </trkpt>
      <trkpt lat="44.3481" lon="5.62297">
        <ele>970.4</ele>
        <time>2021-09-07T18:20:14Z</time>
      </trkpt>
      <trkpt lat="44.3481" lon="5.62298">
        <ele>970.5</ele>
        <time>2021-09-07T18:20:15Z</time>
      </trkpt>
      <trkpt lat="44.34809" lon="5.62298">
        <ele>970.5</ele>
        <time>2021-09-07T18:20:16Z</time>
      </trkpt>
      <trkpt lat="44.34809" lon="5.62298">
        <ele>970.5</ele>
        <time>2021-09-07T18:20:17Z</time>
      </trkpt>
      <trkpt lat="44.34808" lon="5.62299">
        <ele>970.7</ele>
        <time>2021-09-07T18:20:18Z</time>
      </trkpt>
      <trkpt lat="44.34808" lon="5.62299">
        <ele>970.7</ele>
        <time>2021-09-07T18:20:19Z</time>
      </trkpt>
      <trkpt lat="44.34808" lon="5.62299">
        <ele>970.7</ele>
        <time>2021-09-07T18:20:20Z</time>
      </trkpt>
      <trkpt lat="44.34807" lon="5.623">
        <ele>970.8</ele>
        <time>2021-09-07T18:20:21Z</time>
      </trkpt>
      <trkpt lat="44.34806" lon="5.62301">
        <ele>971</ele>
        <time>2021-09-07T18:20:22Z</time>
      </trkpt>
      <trkpt lat="44.34805" lon="5.62303">
        <ele>971.2</ele>
        <time>2021-09-07T18:20:23Z</time>
      </trkpt>
      <trkpt lat="44.34804" lon="5.62304">
        <ele>971.4</ele>
        <time>2021-09-07T18:20:24Z</time>
      </trkpt>
      <trkpt lat="44.34803" lon="5.62306">
        <ele>971.6</ele>
        <time>2021-09-07T18:20:25Z</time>
      </trkpt>
      <trkpt lat="44.34803" lon="5.62307">
        <ele>971.7</ele>
        <time>2021-09-07T18:20:26Z</time>
      </trkpt>
      <trkpt lat="44.34802" lon="5.62308">
        <ele>971.8</ele>
        <time>2021-09-07T18:20:27Z</time>
      </trkpt>
      <trkpt lat="44.34802" lon="5.62309">
        <ele>971.9</ele>
        <time>2021-09-07T18:20:28Z</time>
      </trkpt>
      <trkpt lat="44.34801" lon="5.62309">
        <ele>972</ele>
        <time>2021-09-07T18:20:29Z</time>
      </trkpt>
      <trkpt lat="44.34801" lon="5.62309">
        <ele>972</ele>
        <time>2021-09-07T18:20:30Z</time>
      </trkpt>
      <trkpt lat="44.34799" lon="5.6231">
        <ele>972.2</ele>
        <time>2021-09-07T18:20:31Z</time>
      </trkpt>
      <trkpt lat="44.34798" lon="5.62311">
        <ele>972.4</ele>
        <time>2021-09-07T18:20:32Z</time>
      </trkpt>
      <trkpt lat="44.34797" lon="5.62312">
        <ele>972.6</ele>
        <time>2021-09-07T18:20:33Z</time>
      </trkpt>
      <trkpt lat="44.34796" lon="5.62312">
        <ele>972.7</ele>
        <time>2021-09-07T18:20:34Z</time>
      </trkpt>
      <trkpt lat="44.34795" lon="5.62313">
        <ele>972.9</ele>
        <time>2021-09-07T18:20:35Z</time>
      </trkpt>
      <trkpt lat="44.34794" lon="5.62314">
        <ele>973</ele>
        <time>2021-09-07T18:20:36Z</time>
      </trkpt>
      <trkpt lat="44.34793" lon="5.62315">
        <ele>973.2</ele>
        <time>2021-09-07T18:20:37Z</time>
      </trkpt>
      <trkpt lat="44.34792" lon="5.62315">
        <ele>973.3</ele>
        <time>2021-09-07T18:20:38Z</time>
      </trkpt>
      <trkpt lat="44.34792" lon="5.62316">
        <ele>973.4</ele>
        <time>2021-09-07T18:20:39Z</time>
      </trkpt>
      <trkpt lat="44.34792" lon="5.62317">
        <ele>973.5</ele>
        <time>2021-09-07T18:20:40Z</time>
      </trkpt>
      <trkpt lat="44.34791" lon="5.62317">
        <ele>973.6</ele>
        <time>2021-09-07T18:20:41Z</time>
      </trkpt>
      <trkpt lat="44.34791" lon="5.62318">
        <ele>973.7</ele>
        <time>2021-09-07T18:20:42Z</time>
      </trkpt>
      <trkpt lat="44.3479" lon="5.62318">
        <ele>973.7</ele>
        <time>2021-09-07T18:20:43Z</time>
      </trkpt>
      <trkpt lat="44.3479" lon="5.62318">
        <ele>973.7</ele>
        <time>2021-09-07T18:20:44Z</time>
      </trkpt>
      <trkpt lat="44.3479" lon="5.62318">
        <ele>973.7</ele>
        <time>2021-09-07T18:20:45Z</time>
      </trkpt>
      <trkpt lat="44.3479" lon="5.62319">
        <ele>973.8</ele>
        <time>2021-09-07T18:20:46Z</time>
      </trkpt>
      <trkpt lat="44.34789" lon="5.62319">
        <ele>973.9</ele>
        <time>2021-09-07T18:20:47Z</time>
      </trkpt>
      <trkpt lat="44.34789" lon="5.62319">
        <ele>973.9</ele>
        <time>2021-09-07T18:20:48Z</time>
      </trkpt>
      <trkpt lat="44.34789" lon="5.6232">
        <ele>974</ele>
        <time>2021-09-07T18:20:49Z</time>
      </trkpt>
      <trkpt lat="44.34789" lon="5.6232">
        <ele>974</ele>
        <time>2021-09-07T18:20:50Z</time>
      </trkpt>
      <trkpt lat="44.34789" lon="5.6232">
        <ele>974</ele>
        <time>2021-09-07T18:20:51Z</time>
      </trkpt>
      <trkpt lat="44.34789" lon="5.62321">
        <ele>974.1</ele>
        <time>2021-09-07T18:20:52Z</time>
      </trkpt>
      <trkpt lat="44.34789" lon="5.62321">
        <ele>974.1</ele>
        <time>2021-09-07T18:20:53Z</time>
      </trkpt>
      <trkpt lat="44.34789" lon="5.62321">
        <ele>974.1</ele>
        <time>2021-09-07T18:20:54Z</time>
      </trkpt>
      <trkpt lat="44.34788" lon="5.62322">
        <ele>974.3</ele>
        <time>2021-09-07T18:20:55Z</time>
      </trkpt>
      <trkpt lat="44.34788" lon="5.62324">
        <ele>974.5</ele>
        <time>2021-09-07T18:20:56Z</time>
      </trkpt>
      <trkpt lat="44.34787" lon="5.62327">
        <ele>974.8</ele>
        <time>2021-09-07T18:20:57Z</time>
      </trkpt>
      <trkpt lat="44.34786" lon="5.62328">
        <ele>975</ele>
        <time>2021-09-07T18:20:58Z</time>
      </trkpt>
      <trkpt lat="44.34786" lon="5.62329">
        <ele>975</ele>
        <time>2021-09-07T18:20:59Z</time>
      </trkpt>
      <trkpt lat="44.34786" lon="5.62329">
        <ele>975</ele>
        <time>2021-09-07T18:21:00Z</time>
      </trkpt>
      <trkpt lat="44.34785" lon="5.62331">
        <ele>975.3</ele>
        <time>2021-09-07T18:21:01Z</time>
      </trkpt>
      <trkpt lat="44.34785" lon="5.62332">
        <ele>975.4</ele>
        <time>2021-09-07T18:21:02Z</time>
      </trkpt>
      <trkpt lat="44.34785" lon="5.62332">
        <ele>975.4</ele>
        <time>2021-09-07T18:21:03Z</time>
      </trkpt>
      <trkpt lat="44.34785" lon="5.62333">
        <ele>975.5</ele>
        <time>2021-09-07T18:21:04Z</time>
      </trkpt>
      <trkpt lat="44.34785" lon="5.62334">
        <ele>975.5</ele>
        <time>2021-09-07T18:21:05Z</time>
      </trkpt>
      <trkpt lat="44.34785" lon="5.62334">
        <ele>975.6</ele>
        <time>2021-09-07T18:21:06Z</time>
      </trkpt>
      <trkpt lat="44.34785" lon="5.62335">
        <ele>975.6</ele>
        <time>2021-09-07T18:21:07Z</time>
      </trkpt>
      <trkpt lat="44.34785" lon="5.62335">
        <ele>975.7</ele>
        <time>2021-09-07T18:21:08Z</time>
      </trkpt>
      <trkpt lat="44.34783" lon="5.62336">
        <ele>976</ele>
        <time>2021-09-07T18:21:09Z</time>
      </trkpt>
      <trkpt lat="44.34783" lon="5.62337">
        <ele>976.1</ele>
        <time>2021-09-07T18:21:10Z</time>
      </trkpt>
      <trkpt lat="44.34781" lon="5.62339">
        <ele>976.4</ele>
        <time>2021-09-07T18:21:11Z</time>
      </trkpt>
      <trkpt lat="44.34781" lon="5.6234">
        <ele>976.5</ele>
        <time>2021-09-07T18:21:12Z</time>
      </trkpt>
      <trkpt lat="44.3478" lon="5.62341">
        <ele>976.7</ele>
        <time>2021-09-07T18:21:13Z</time>
      </trkpt>
      <trkpt lat="44.34778" lon="5.62343">
        <ele>977</ele>
        <time>2021-09-07T18:21:14Z</time>
      </trkpt>
      <trkpt lat="44.34778" lon="5.62344">
        <ele>977.1</ele>
        <time>2021-09-07T18:21:15Z</time>
      </trkpt>
      <trkpt lat="44.34778" lon="5.62344">
        <ele>977.1</ele>
        <time>2021-09-07T18:21:16Z</time>
      </trkpt>
      <trkpt lat="44.34777" lon="5.62344">
        <ele>977.2</ele>
        <time>2021-09-07T18:21:17Z</time>
      </trkpt>
      <trkpt lat="44.34777" lon="5.62345">
        <ele>977.3</ele>
        <time>2021-09-07T18:21:18Z</time>
      </trkpt>
      <trkpt lat="44.34777" lon="5.62345">
        <ele>977.3</ele>
        <time>2021-09-07T18:21:19Z</time>
      </trkpt>
      <trkpt lat="44.34777" lon="5.62345">
        <ele>977.3</ele>
        <time>2021-09-07T18:21:20Z</time>
      </trkpt>
      <trkpt lat="44.34777" lon="5.62345">
        <ele>977.3</ele>
        <time>2021-09-07T18:21:21Z</time>
      </trkpt>
      <trkpt lat="44.34777" lon="5.62345">
        <ele>977.4</ele>
        <time>2021-09-07T18:21:22Z</time>
      </trkpt>
      <trkpt lat="44.34776" lon="5.62345">
        <ele>977.5</ele>
        <time>2021-09-07T18:21:23Z</time>
      </trkpt>
      <trkpt lat="44.34776" lon="5.62345">
        <ele>977.5</ele>
        <time>2021-09-07T18:21:24Z</time>
      </trkpt>
      <trkpt lat="44.34776" lon="5.62345">
        <ele>977.5</ele>
        <time>2021-09-07T18:21:25Z</time>
      </trkpt>
      <trkpt lat="44.34776" lon="5.62345">
        <ele>977.5</ele>
        <time>2021-09-07T18:21:26Z</time>
      </trkpt>
      <trkpt lat="44.34776" lon="5.62346">
        <ele>977.6</ele>
        <time>2021-09-07T18:21:27Z</time>
      </trkpt>
      <trkpt lat="44.34776" lon="5.62346">
        <ele>977.6</ele>
        <time>2021-09-07T18:21:28Z</time>
      </trkpt>
      <trkpt lat="44.34776" lon="5.62346">
        <ele>977.6</ele>
        <time>2021-09-07T18:21:29Z</time>
      </trkpt>
      <trkpt lat="44.34775" lon="5.62347">
        <ele>977.7</ele>
        <time>2021-09-07T18:21:30Z</time>
      </trkpt>
      <trkpt lat="44.34774" lon="5.62348">
        <ele>977.9</ele>
        <time>2021-09-07T18:21:31Z</time>
      </trkpt>
      <trkpt lat="44.34773" lon="5.62348">
        <ele>978</ele>
        <time>2021-09-07T18:21:32Z</time>
      </trkpt>
      <trkpt lat="44.34771" lon="5.62349">
        <ele>978.3</ele>
        <time>2021-09-07T18:21:33Z</time>
      </trkpt>
      <trkpt lat="44.34771" lon="5.6235">
        <ele>978.4</ele>
        <time>2021-09-07T18:21:34Z</time>
      </trkpt>
      <trkpt lat="44.3477" lon="5.6235">
        <ele>978.4</ele>
        <time>2021-09-07T18:21:35Z</time>
      </trkpt>
      <trkpt lat="44.34767" lon="5.62351">
        <ele>978.8</ele>
        <time>2021-09-07T18:21:36Z</time>
      </trkpt>
      <trkpt lat="44.34767" lon="5.62352">
        <ele>978.9</ele>
        <time>2021-09-07T18:21:37Z</time>
      </trkpt>
      <trkpt lat="44.34766" lon="5.62352">
        <ele>979</ele>
        <time>2021-09-07T18:21:38Z</time>
      </trkpt>
      <trkpt lat="44.34765" lon="5.62353">
        <ele>979.1</ele>
        <time>2021-09-07T18:21:39Z</time>
      </trkpt>
      <trkpt lat="44.34764" lon="5.62353">
        <ele>979.3</ele>
        <time>2021-09-07T18:21:40Z</time>
      </trkpt>
      <trkpt lat="44.34762" lon="5.62353">
        <ele>979.5</ele>
        <time>2021-09-07T18:21:41Z</time>
      </trkpt>
      <trkpt lat="44.3476" lon="5.62354">
        <ele>979.8</ele>
        <time>2021-09-07T18:21:42Z</time>
      </trkpt>
      <trkpt lat="44.3476" lon="5.62355">
        <ele>979.9</ele>
        <time>2021-09-07T18:21:43Z</time>
      </trkpt>
      <trkpt lat="44.34759" lon="5.62355">
        <ele>979.9</ele>
        <time>2021-09-07T18:21:44Z</time>
      </trkpt>
      <trkpt lat="44.34758" lon="5.62356">
        <ele>980.1</ele>
        <time>2021-09-07T18:21:45Z</time>
      </trkpt>
      <trkpt lat="44.34757" lon="5.62356">
        <ele>980.2</ele>
        <time>2021-09-07T18:21:46Z</time>
      </trkpt>
      <trkpt lat="44.34756" lon="5.62357">
        <ele>980.4</ele>
        <time>2021-09-07T18:21:47Z</time>
      </trkpt>
      <trkpt lat="44.34756" lon="5.62357">
        <ele>980.4</ele>
        <time>2021-09-07T18:21:48Z</time>
      </trkpt>
      <trkpt lat="44.34755" lon="5.62357">
        <ele>980.5</ele>
        <time>2021-09-07T18:21:49Z</time>
      </trkpt>
      <trkpt lat="44.34755" lon="5.62358">
        <ele>980.6</ele>
        <time>2021-09-07T18:21:50Z</time>
      </trkpt>
      <trkpt lat="44.34754" lon="5.62358">
        <ele>980.6</ele>
        <time>2021-09-07T18:21:51Z</time>
      </trkpt>
      <trkpt lat="44.34753" lon="5.62358">
        <ele>980.8</ele>
        <time>2021-09-07T18:21:52Z</time>
      </trkpt>
      <trkpt lat="44.34753" lon="5.62358">
        <ele>980.8</ele>
        <time>2021-09-07T18:21:53Z</time>
      </trkpt>
      <trkpt lat="44.34752" lon="5.62358">
        <ele>980.9</ele>
        <time>2021-09-07T18:21:54Z</time>
      </trkpt>
      <trkpt lat="44.34752" lon="5.62358">
        <ele>980.9</ele>
        <time>2021-09-07T18:21:55Z</time>
      </trkpt>
      <trkpt lat="44.34752" lon="5.62358">
        <ele>980.9</ele>
        <time>2021-09-07T18:21:56Z</time>
      </trkpt>
      <trkpt lat="44.34752" lon="5.62358">
        <ele>980.9</ele>
        <time>2021-09-07T18:21:57Z</time>
      </trkpt>
      <trkpt lat="44.34752" lon="5.62358">
        <ele>980.9</ele>
        <time>2021-09-07T18:21:58Z</time>
      </trkpt>
      <trkpt lat="44.34752" lon="5.62358">
        <ele>980.9</ele>
        <time>2021-09-07T18:21:59Z</time>
      </trkpt>
      <trkpt lat="44.34753" lon="5.62358">
        <ele>980.9</ele>
        <time>2021-09-07T18:22:00Z</time>
      </trkpt>
      <trkpt lat="44.34753" lon="5.62358">
        <ele>981</ele>
        <time>2021-09-07T18:22:01Z</time>
      </trkpt>
      <trkpt lat="44.34753" lon="5.62358">
        <ele>981</ele>
        <time>2021-09-07T18:22:02Z</time>
      </trkpt>
      <trkpt lat="44.34753" lon="5.62358">
        <ele>981</ele>
        <time>2021-09-07T18:22:03Z</time>
      </trkpt>
      <trkpt lat="44.34753" lon="5.62358">
        <ele>981.1</ele>
        <time>2021-09-07T18:22:04Z</time>
      </trkpt>
      <trkpt lat="44.34752" lon="5.62357">
        <ele>981.1</ele>
        <time>2021-09-07T18:22:05Z</time>
      </trkpt>
      <trkpt lat="44.34752" lon="5.62357">
        <ele>981.1</ele>
        <time>2021-09-07T18:22:06Z</time>
      </trkpt>
      <trkpt lat="44.34752" lon="5.62357">
        <ele>981.1</ele>
        <time>2021-09-07T18:22:07Z</time>
      </trkpt>
      <trkpt lat="44.34752" lon="5.62357">
        <ele>981.1</ele>
        <time>2021-09-07T18:22:08Z</time>
      </trkpt>
      <trkpt lat="44.34752" lon="5.62357">
        <ele>981.1</ele>
        <time>2021-09-07T18:22:09Z</time>
      </trkpt>
      <trkpt lat="44.34752" lon="5.62357">
        <ele>981.1</ele>
        <time>2021-09-07T18:22:10Z</time>
      </trkpt>
      <trkpt lat="44.34752" lon="5.62357">
        <ele>981.1</ele>
        <time>2021-09-07T18:22:11Z</time>
      </trkpt>
      <trkpt lat="44.34752" lon="5.62357">
        <ele>981.1</ele>
        <time>2021-09-07T18:22:12Z</time>
      </trkpt>
      <trkpt lat="44.34752" lon="5.62357">
        <ele>981.1</ele>
        <time>2021-09-07T18:22:13Z</time>
      </trkpt>
      <trkpt lat="44.34753" lon="5.62357">
        <ele>981.2</ele>
        <time>2021-09-07T18:22:14Z</time>
      </trkpt>
      <trkpt lat="44.34753" lon="5.62357">
        <ele>981.3</ele>
        <time>2021-09-07T18:22:15Z</time>
      </trkpt>
      <trkpt lat="44.34753" lon="5.62357">
        <ele>981.3</ele>
        <time>2021-09-07T18:22:16Z</time>
      </trkpt>
      <trkpt lat="44.34753" lon="5.62357">
        <ele>981.3</ele>
        <time>2021-09-07T18:22:17Z</time>
      </trkpt>
      <trkpt lat="44.34753" lon="5.62357">
        <ele>981.3</ele>
        <time>2021-09-07T18:22:18Z</time>
      </trkpt>
      <trkpt lat="44.34753" lon="5.62358">
        <ele>981.3</ele>
        <time>2021-09-07T18:22:19Z</time>
      </trkpt>
      <trkpt lat="44.34752" lon="5.62358">
        <ele>981.4</ele>
        <time>2021-09-07T18:22:20Z</time>
      </trkpt>
      <trkpt lat="44.34752" lon="5.62359">
        <ele>981.5</ele>
        <time>2021-09-07T18:22:21Z</time>
      </trkpt>
      <trkpt lat="44.34752" lon="5.62359">
        <ele>981.5</ele>
        <time>2021-09-07T18:22:22Z</time>
      </trkpt>
      <trkpt lat="44.34752" lon="5.62359">
        <ele>981.5</ele>
        <time>2021-09-07T18:22:23Z</time>
      </trkpt>
      <trkpt lat="44.34752" lon="5.62359">
        <ele>981.5</ele>
        <time>2021-09-07T18:22:24Z</time>
      </trkpt>
      <trkpt lat="44.34752" lon="5.62362">
        <ele>981.8</ele>
        <time>2021-09-07T18:22:25Z</time>
      </trkpt>
      <trkpt lat="44.34751" lon="5.62365">
        <ele>982</ele>
        <time>2021-09-07T18:22:26Z</time>
      </trkpt>
      <trkpt lat="44.34751" lon="5.62368">
        <ele>982.3</ele>
        <time>2021-09-07T18:22:27Z</time>
      </trkpt>
      <trkpt lat="44.34751" lon="5.6237">
        <ele>982.4</ele>
        <time>2021-09-07T18:22:28Z</time>
      </trkpt>
      <trkpt lat="44.34751" lon="5.62371">
        <ele>982.6</ele>
        <time>2021-09-07T18:22:29Z</time>
      </trkpt>
      <trkpt lat="44.34751" lon="5.62372">
        <ele>982.6</ele>
        <time>2021-09-07T18:22:30Z</time>
      </trkpt>
      <trkpt lat="44.34751" lon="5.62372">
        <ele>982.6</ele>
        <time>2021-09-07T18:22:31Z</time>
      </trkpt>
      <trkpt lat="44.34751" lon="5.62372">
        <ele>982.6</ele>
        <time>2021-09-07T18:22:32Z</time>
      </trkpt>
      <trkpt lat="44.34751" lon="5.62372">
        <ele>982.6</ele>
        <time>2021-09-07T18:22:33Z</time>
      </trkpt>
      <trkpt lat="44.34751" lon="5.62372">
        <ele>982.6</ele>
        <time>2021-09-07T18:22:34Z</time>
      </trkpt>
      <trkpt lat="44.34751" lon="5.62372">
        <ele>982.6</ele>
        <time>2021-09-07T18:22:35Z</time>
      </trkpt>
      <trkpt lat="44.34751" lon="5.62371">
        <ele>982.7</ele>
        <time>2021-09-07T18:22:36Z</time>
      </trkpt>
      <trkpt lat="44.3475" lon="5.62371">
        <ele>982.8</ele>
        <time>2021-09-07T18:22:37Z</time>
      </trkpt>
      <trkpt lat="44.3475" lon="5.62371">
        <ele>982.8</ele>
        <time>2021-09-07T18:22:38Z</time>
      </trkpt>
      <trkpt lat="44.3475" lon="5.62372">
        <ele>982.9</ele>
        <time>2021-09-07T18:22:39Z</time>
      </trkpt>
      <trkpt lat="44.3475" lon="5.62372">
        <ele>982.9</ele>
        <time>2021-09-07T18:22:40Z</time>
      </trkpt>
      <trkpt lat="44.3475" lon="5.62372">
        <ele>982.9</ele>
        <time>2021-09-07T18:22:41Z</time>
      </trkpt>
      <trkpt lat="44.3475" lon="5.62372">
        <ele>982.9</ele>
        <time>2021-09-07T18:22:42Z</time>
      </trkpt>
      <trkpt lat="44.3475" lon="5.62372">
        <ele>982.9</ele>
        <time>2021-09-07T18:22:43Z</time>
      </trkpt>
      <trkpt lat="44.34751" lon="5.62372">
        <ele>983.1</ele>
        <time>2021-09-07T18:22:44Z</time>
      </trkpt>
      <trkpt lat="44.34751" lon="5.62372">
        <ele>983.1</ele>
        <time>2021-09-07T18:22:45Z</time>
      </trkpt>
      <trkpt lat="44.34751" lon="5.62372">
        <ele>983.1</ele>
        <time>2021-09-07T18:22:46Z</time>
      </trkpt>
      <trkpt lat="44.34751" lon="5.62372">
        <ele>983.1</ele>
        <time>2021-09-07T18:22:47Z</time>
      </trkpt>
      <trkpt lat="44.34751" lon="5.62372">
        <ele>983.1</ele>
        <time>2021-09-07T18:22:48Z</time>
      </trkpt>
      <trkpt lat="44.34751" lon="5.62372">
        <ele>983.1</ele>
        <time>2021-09-07T18:22:49Z</time>
      </trkpt>
      <trkpt lat="44.34751" lon="5.62373">
        <ele>983.1</ele>
        <time>2021-09-07T18:22:50Z</time>
      </trkpt>
      <trkpt lat="44.34751" lon="5.62373">
        <ele>983.2</ele>
        <time>2021-09-07T18:22:51Z</time>
      </trkpt>
      <trkpt lat="44.3475" lon="5.62373">
        <ele>983.3</ele>
        <time>2021-09-07T18:22:52Z</time>
      </trkpt>
      <trkpt lat="44.3475" lon="5.62374">
        <ele>983.3</ele>
        <time>2021-09-07T18:22:53Z</time>
      </trkpt>
      <trkpt lat="44.34749" lon="5.62375">
        <ele>983.5</ele>
        <time>2021-09-07T18:22:54Z</time>
      </trkpt>
      <trkpt lat="44.34749" lon="5.62375">
        <ele>983.5</ele>
        <time>2021-09-07T18:22:55Z</time>
      </trkpt>
      <trkpt lat="44.34749" lon="5.62375">
        <ele>983.5</ele>
        <time>2021-09-07T18:22:56Z</time>
      </trkpt>
      <trkpt lat="44.34748" lon="5.62375">
        <ele>983.6</ele>
        <time>2021-09-07T18:22:57Z</time>
      </trkpt>
      <trkpt lat="44.34748" lon="5.62375">
        <ele>983.6</ele>
        <time>2021-09-07T18:22:58Z</time>
      </trkpt>
      <trkpt lat="44.34748" lon="5.62375">
        <ele>983.6</ele>
        <time>2021-09-07T18:22:59Z</time>
      </trkpt>
      <trkpt lat="44.34747" lon="5.62376">
        <ele>983.7</ele>
        <time>2021-09-07T18:23:00Z</time>
      </trkpt>
      <trkpt lat="44.34747" lon="5.62376">
        <ele>983.7</ele>
        <time>2021-09-07T18:23:01Z</time>
      </trkpt>
      <trkpt lat="44.34747" lon="5.62376">
        <ele>983.7</ele>
        <time>2021-09-07T18:23:02Z</time>
      </trkpt>
      <trkpt lat="44.34747" lon="5.62376">
        <ele>983.7</ele>
        <time>2021-09-07T18:23:03Z</time>
      </trkpt>
      <trkpt lat="44.34747" lon="5.62376">
        <ele>983.7</ele>
        <time>2021-09-07T18:23:04Z</time>
      </trkpt>
      <trkpt lat="44.34746" lon="5.62377">
        <ele>983.9</ele>
        <time>2021-09-07T18:23:05Z</time>
      </trkpt>
      <trkpt lat="44.34746" lon="5.62378">
        <ele>984</ele>
        <time>2021-09-07T18:23:06Z</time>
      </trkpt>
      <trkpt lat="44.34745" lon="5.62378">
        <ele>984</ele>
        <time>2021-09-07T18:23:07Z</time>
      </trkpt>
      <trkpt lat="44.34744" lon="5.6238">
        <ele>984.2</ele>
        <time>2021-09-07T18:23:08Z</time>
      </trkpt>
      <trkpt lat="44.34743" lon="5.62382">
        <ele>984.4</ele>
        <time>2021-09-07T18:23:09Z</time>
      </trkpt>
      <trkpt lat="44.34741" lon="5.62383">
        <ele>984.7</ele>
        <time>2021-09-07T18:23:10Z</time>
      </trkpt>
      <trkpt lat="44.34741" lon="5.62384">
        <ele>984.8</ele>
        <time>2021-09-07T18:23:11Z</time>
      </trkpt>
      <trkpt lat="44.3474" lon="5.62385">
        <ele>984.9</ele>
        <time>2021-09-07T18:23:12Z</time>
      </trkpt>
      <trkpt lat="44.3474" lon="5.62385">
        <ele>984.9</ele>
        <time>2021-09-07T18:23:13Z</time>
      </trkpt>
      <trkpt lat="44.34739" lon="5.62387">
        <ele>985.1</ele>
        <time>2021-09-07T18:23:14Z</time>
      </trkpt>
      <trkpt lat="44.34737" lon="5.62389">
        <ele>985.5</ele>
        <time>2021-09-07T18:23:15Z</time>
      </trkpt>
      <trkpt lat="44.34737" lon="5.6239">
        <ele>985.6</ele>
        <time>2021-09-07T18:23:16Z</time>
      </trkpt>
      <trkpt lat="44.34736" lon="5.62391">
        <ele>985.8</ele>
        <time>2021-09-07T18:23:17Z</time>
      </trkpt>
      <trkpt lat="44.34734" lon="5.62394">
        <ele>986.2</ele>
        <time>2021-09-07T18:23:18Z</time>
      </trkpt>
      <trkpt lat="44.34733" lon="5.62395">
        <ele>986.4</ele>
        <time>2021-09-07T18:23:19Z</time>
      </trkpt>
      <trkpt lat="44.34733" lon="5.62396">
        <ele>986.4</ele>
        <time>2021-09-07T18:23:20Z</time>
      </trkpt>
      <trkpt lat="44.34733" lon="5.62396">
        <ele>986.5</ele>
        <time>2021-09-07T18:23:21Z</time>
      </trkpt>
      <trkpt lat="44.34732" lon="5.62397">
        <ele>986.6</ele>
        <time>2021-09-07T18:23:22Z</time>
      </trkpt>
      <trkpt lat="44.34732" lon="5.62397">
        <ele>986.7</ele>
        <time>2021-09-07T18:23:23Z</time>
      </trkpt>
      <trkpt lat="44.34732" lon="5.62398">
        <ele>986.7</ele>
        <time>2021-09-07T18:23:24Z</time>
      </trkpt>
      <trkpt lat="44.34732" lon="5.62398">
        <ele>986.7</ele>
        <time>2021-09-07T18:23:25Z</time>
      </trkpt>
      <trkpt lat="44.34732" lon="5.62399">
        <ele>986.8</ele>
        <time>2021-09-07T18:23:26Z</time>
      </trkpt>
      <trkpt lat="44.34732" lon="5.62399">
        <ele>986.8</ele>
        <time>2021-09-07T18:23:27Z</time>
      </trkpt>
      <trkpt lat="44.34731" lon="5.62399">
        <ele>987</ele>
        <time>2021-09-07T18:23:28Z</time>
      </trkpt>
      <trkpt lat="44.3473" lon="5.62401">
        <ele>987.3</ele>
        <time>2021-09-07T18:23:29Z</time>
      </trkpt>
      <trkpt lat="44.3473" lon="5.62402">
        <ele>987.4</ele>
        <time>2021-09-07T18:23:30Z</time>
      </trkpt>
      <trkpt lat="44.34729" lon="5.62403">
        <ele>987.5</ele>
        <time>2021-09-07T18:23:31Z</time>
      </trkpt>
      <trkpt lat="44.34728" lon="5.62404">
        <ele>987.7</ele>
        <time>2021-09-07T18:23:32Z</time>
      </trkpt>
      <trkpt lat="44.34728" lon="5.62405">
        <ele>987.8</ele>
        <time>2021-09-07T18:23:33Z</time>
      </trkpt>
      <trkpt lat="44.34727" lon="5.62405">
        <ele>987.9</ele>
        <time>2021-09-07T18:23:34Z</time>
      </trkpt>
      <trkpt lat="44.34726" lon="5.62407">
        <ele>988.2</ele>
        <time>2021-09-07T18:23:35Z</time>
      </trkpt>
      <trkpt lat="44.34726" lon="5.62408">
        <ele>988.3</ele>
        <time>2021-09-07T18:23:36Z</time>
      </trkpt>
      <trkpt lat="44.34725" lon="5.62408">
        <ele>988.4</ele>
        <time>2021-09-07T18:23:37Z</time>
      </trkpt>
      <trkpt lat="44.34725" lon="5.62409">
        <ele>988.5</ele>
        <time>2021-09-07T18:23:38Z</time>
      </trkpt>
      <trkpt lat="44.34725" lon="5.62409">
        <ele>988.5</ele>
        <time>2021-09-07T18:23:39Z</time>
      </trkpt>
      <trkpt lat="44.34725" lon="5.62409">
        <ele>988.5</ele>
        <time>2021-09-07T18:23:40Z</time>
      </trkpt>
      <trkpt lat="44.34724" lon="5.6241">
        <ele>988.7</ele>
        <time>2021-09-07T18:23:41Z</time>
      </trkpt>
      <trkpt lat="44.34724" lon="5.6241">
        <ele>988.7</ele>
        <time>2021-09-07T18:23:42Z</time>
      </trkpt>
      <trkpt lat="44.34724" lon="5.6241">
        <ele>988.7</ele>
        <time>2021-09-07T18:23:43Z</time>
      </trkpt>
      <trkpt lat="44.34724" lon="5.6241">
        <ele>988.7</ele>
        <time>2021-09-07T18:23:44Z</time>
      </trkpt>
      <trkpt lat="44.34724" lon="5.6241">
        <ele>988.7</ele>
        <time>2021-09-07T18:23:45Z</time>
      </trkpt>
      <trkpt lat="44.34724" lon="5.62411">
        <ele>988.8</ele>
        <time>2021-09-07T18:23:46Z</time>
      </trkpt>
      <trkpt lat="44.34724" lon="5.62412">
        <ele>988.9</ele>
        <time>2021-09-07T18:23:47Z</time>
      </trkpt>
      <trkpt lat="44.34723" lon="5.62415">
        <ele>989.3</ele>
        <time>2021-09-07T18:23:48Z</time>
      </trkpt>
      <trkpt lat="44.34722" lon="5.62418">
        <ele>989.7</ele>
        <time>2021-09-07T18:23:49Z</time>
      </trkpt>
      <trkpt lat="44.34722" lon="5.6242">
        <ele>989.9</ele>
        <time>2021-09-07T18:23:50Z</time>
      </trkpt>
      <trkpt lat="44.34721" lon="5.62421">
        <ele>990.1</ele>
        <time>2021-09-07T18:23:51Z</time>
      </trkpt>
      <trkpt lat="44.34721" lon="5.62424">
        <ele>990.4</ele>
        <time>2021-09-07T18:23:52Z</time>
      </trkpt>
      <trkpt lat="44.34721" lon="5.62425">
        <ele>990.5</ele>
        <time>2021-09-07T18:23:53Z</time>
      </trkpt>
      <trkpt lat="44.3472" lon="5.62426">
        <ele>990.7</ele>
        <time>2021-09-07T18:23:54Z</time>
      </trkpt>
      <trkpt lat="44.3472" lon="5.62427">
        <ele>990.8</ele>
        <time>2021-09-07T18:23:55Z</time>
      </trkpt>
      <trkpt lat="44.34719" lon="5.62429">
        <ele>991</ele>
        <time>2021-09-07T18:23:56Z</time>
      </trkpt>
      <trkpt lat="44.34718" lon="5.6243">
        <ele>991.2</ele>
        <time>2021-09-07T18:23:57Z</time>
      </trkpt>
      <trkpt lat="44.34718" lon="5.62431">
        <ele>991.3</ele>
        <time>2021-09-07T18:23:58Z</time>
      </trkpt>
      <trkpt lat="44.34718" lon="5.62432">
        <ele>991.4</ele>
        <time>2021-09-07T18:23:59Z</time>
      </trkpt>
      <trkpt lat="44.34718" lon="5.62432">
        <ele>991.5</ele>
        <time>2021-09-07T18:24:00Z</time>
      </trkpt>
      <trkpt lat="44.34717" lon="5.62432">
        <ele>991.6</ele>
        <time>2021-09-07T18:24:01Z</time>
      </trkpt>
      <trkpt lat="44.34717" lon="5.62433">
        <ele>991.6</ele>
        <time>2021-09-07T18:24:02Z</time>
      </trkpt>
      <trkpt lat="44.34717" lon="5.62433">
        <ele>991.7</ele>
        <time>2021-09-07T18:24:03Z</time>
      </trkpt>
      <trkpt lat="44.34717" lon="5.62434">
        <ele>991.8</ele>
        <time>2021-09-07T18:24:04Z</time>
      </trkpt>
      <trkpt lat="44.34717" lon="5.62434">
        <ele>991.8</ele>
        <time>2021-09-07T18:24:05Z</time>
      </trkpt>
      <trkpt lat="44.34715" lon="5.62436">
        <ele>992.2</ele>
        <time>2021-09-07T18:24:06Z</time>
      </trkpt>
      <trkpt lat="44.34714" lon="5.62438">
        <ele>992.4</ele>
        <time>2021-09-07T18:24:07Z</time>
      </trkpt>
      <trkpt lat="44.34713" lon="5.62439">
        <ele>992.6</ele>
        <time>2021-09-07T18:24:08Z</time>
      </trkpt>
      <trkpt lat="44.34712" lon="5.6244">
        <ele>992.8</ele>
        <time>2021-09-07T18:24:09Z</time>
      </trkpt>
      <trkpt lat="44.34711" lon="5.62441">
        <ele>993</ele>
        <time>2021-09-07T18:24:10Z</time>
      </trkpt>
      <trkpt lat="44.3471" lon="5.62442">
        <ele>993.2</ele>
        <time>2021-09-07T18:24:11Z</time>
      </trkpt>
      <trkpt lat="44.34709" lon="5.62442">
        <ele>993.3</ele>
        <time>2021-09-07T18:24:12Z</time>
      </trkpt>
      <trkpt lat="44.34709" lon="5.62443">
        <ele>993.4</ele>
        <time>2021-09-07T18:24:13Z</time>
      </trkpt>
      <trkpt lat="44.34709" lon="5.62443">
        <ele>993.4</ele>
        <time>2021-09-07T18:24:14Z</time>
      </trkpt>
      <trkpt lat="44.34709" lon="5.62443">
        <ele>993.5</ele>
        <time>2021-09-07T18:24:15Z</time>
      </trkpt>
      <trkpt lat="44.34708" lon="5.62443">
        <ele>993.6</ele>
        <time>2021-09-07T18:24:16Z</time>
      </trkpt>
      <trkpt lat="44.34708" lon="5.62444">
        <ele>993.7</ele>
        <time>2021-09-07T18:24:17Z</time>
      </trkpt>
      <trkpt lat="44.34708" lon="5.62444">
        <ele>993.7</ele>
        <time>2021-09-07T18:24:18Z</time>
      </trkpt>
      <trkpt lat="44.34707" lon="5.62444">
        <ele>993.8</ele>
        <time>2021-09-07T18:24:19Z</time>
      </trkpt>
      <trkpt lat="44.34707" lon="5.62444">
        <ele>993.8</ele>
        <time>2021-09-07T18:24:20Z</time>
      </trkpt>
      <trkpt lat="44.34707" lon="5.62444">
        <ele>993.8</ele>
        <time>2021-09-07T18:24:21Z</time>
      </trkpt>
      <trkpt lat="44.34707" lon="5.62445">
        <ele>994</ele>
        <time>2021-09-07T18:24:22Z</time>
      </trkpt>
      <trkpt lat="44.34706" lon="5.62447">
        <ele>994.2</ele>
        <time>2021-09-07T18:24:23Z</time>
      </trkpt>
      <trkpt lat="44.34705" lon="5.62449">
        <ele>994.4</ele>
        <time>2021-09-07T18:24:24Z</time>
      </trkpt>
      <trkpt lat="44.34704" lon="5.6245">
        <ele>994.6</ele>
        <time>2021-09-07T18:24:25Z</time>
      </trkpt>
      <trkpt lat="44.34704" lon="5.62451">
        <ele>994.7</ele>
        <time>2021-09-07T18:24:26Z</time>
      </trkpt>
      <trkpt lat="44.34703" lon="5.62453">
        <ele>995</ele>
        <time>2021-09-07T18:24:27Z</time>
      </trkpt>
      <trkpt lat="44.34703" lon="5.62454">
        <ele>995</ele>
        <time>2021-09-07T18:24:28Z</time>
      </trkpt>
      <trkpt lat="44.34703" lon="5.62454">
        <ele>995.1</ele>
        <time>2021-09-07T18:24:29Z</time>
      </trkpt>
      <trkpt lat="44.34703" lon="5.62454">
        <ele>995.1</ele>
        <time>2021-09-07T18:24:30Z</time>
      </trkpt>
      <trkpt lat="44.34703" lon="5.62455">
        <ele>995.2</ele>
        <time>2021-09-07T18:24:31Z</time>
      </trkpt>
      <trkpt lat="44.34702" lon="5.62455">
        <ele>995.3</ele>
        <time>2021-09-07T18:24:32Z</time>
      </trkpt>
      <trkpt lat="44.34702" lon="5.62455">
        <ele>995.3</ele>
        <time>2021-09-07T18:24:33Z</time>
      </trkpt>
      <trkpt lat="44.34702" lon="5.62455">
        <ele>995.3</ele>
        <time>2021-09-07T18:24:34Z</time>
      </trkpt>
      <trkpt lat="44.34702" lon="5.62456">
        <ele>995.4</ele>
        <time>2021-09-07T18:24:35Z</time>
      </trkpt>
      <trkpt lat="44.34701" lon="5.62456">
        <ele>995.5</ele>
        <time>2021-09-07T18:24:36Z</time>
      </trkpt>
      <trkpt lat="44.34701" lon="5.62458">
        <ele>995.7</ele>
        <time>2021-09-07T18:24:37Z</time>
      </trkpt>
      <trkpt lat="44.347" lon="5.62459">
        <ele>995.8</ele>
        <time>2021-09-07T18:24:38Z</time>
      </trkpt>
      <trkpt lat="44.347" lon="5.62461">
        <ele>996</ele>
        <time>2021-09-07T18:24:39Z</time>
      </trkpt>
      <trkpt lat="44.34699" lon="5.62462">
        <ele>996.2</ele>
        <time>2021-09-07T18:24:40Z</time>
      </trkpt>
      <trkpt lat="44.34698" lon="5.62465">
        <ele>996.5</ele>
        <time>2021-09-07T18:24:41Z</time>
      </trkpt>
      <trkpt lat="44.34698" lon="5.62466">
        <ele>996.6</ele>
        <time>2021-09-07T18:24:42Z</time>
      </trkpt>
      <trkpt lat="44.34697" lon="5.62467">
        <ele>996.7</ele>
        <time>2021-09-07T18:24:43Z</time>
      </trkpt>
      <trkpt lat="44.34696" lon="5.62468">
        <ele>996.9</ele>
        <time>2021-09-07T18:24:44Z</time>
      </trkpt>
      <trkpt lat="44.34696" lon="5.62468">
        <ele>996.9</ele>
        <time>2021-09-07T18:24:45Z</time>
      </trkpt>
      <trkpt lat="44.34696" lon="5.62469">
        <ele>997</ele>
        <time>2021-09-07T18:24:46Z</time>
      </trkpt>
      <trkpt lat="44.34696" lon="5.6247">
        <ele>997.1</ele>
        <time>2021-09-07T18:24:47Z</time>
      </trkpt>
      <trkpt lat="44.34695" lon="5.6247">
        <ele>997.2</ele>
        <time>2021-09-07T18:24:48Z</time>
      </trkpt>
      <trkpt lat="44.34695" lon="5.62475">
        <ele>997.7</ele>
        <time>2021-09-07T18:24:49Z</time>
      </trkpt>
      <trkpt lat="44.34695" lon="5.62477">
        <ele>997.8</ele>
        <time>2021-09-07T18:24:50Z</time>
      </trkpt>
      <trkpt lat="44.34695" lon="5.62478">
        <ele>998</ele>
        <time>2021-09-07T18:24:51Z</time>
      </trkpt>
      <trkpt lat="44.34695" lon="5.6248">
        <ele>998.2</ele>
        <time>2021-09-07T18:24:52Z</time>
      </trkpt>
      <trkpt lat="44.34695" lon="5.62481">
        <ele>998.3</ele>
        <time>2021-09-07T18:24:53Z</time>
      </trkpt>
      <trkpt lat="44.34695" lon="5.62482">
        <ele>998.4</ele>
        <time>2021-09-07T18:24:54Z</time>
      </trkpt>
      <trkpt lat="44.34694" lon="5.62483">
        <ele>998.6</ele>
        <time>2021-09-07T18:24:55Z</time>
      </trkpt>
      <trkpt lat="44.34694" lon="5.62484">
        <ele>998.6</ele>
        <time>2021-09-07T18:24:56Z</time>
      </trkpt>
      <trkpt lat="44.34694" lon="5.62484">
        <ele>998.7</ele>
        <time>2021-09-07T18:24:57Z</time>
      </trkpt>
      <trkpt lat="44.34694" lon="5.62485">
        <ele>998.8</ele>
        <time>2021-09-07T18:24:58Z</time>
      </trkpt>
      <trkpt lat="44.34694" lon="5.62485">
        <ele>998.8</ele>
        <time>2021-09-07T18:24:59Z</time>
      </trkpt>
      <trkpt lat="44.34694" lon="5.62486">
        <ele>998.8</ele>
        <time>2021-09-07T18:25:00Z</time>
      </trkpt>
      <trkpt lat="44.34694" lon="5.62486">
        <ele>998.9</ele>
        <time>2021-09-07T18:25:01Z</time>
      </trkpt>
      <trkpt lat="44.34694" lon="5.62486">
        <ele>998.9</ele>
        <time>2021-09-07T18:25:02Z</time>
      </trkpt>
      <trkpt lat="44.34694" lon="5.62487">
        <ele>998.9</ele>
        <time>2021-09-07T18:25:03Z</time>
      </trkpt>
      <trkpt lat="44.34694" lon="5.62487">
        <ele>999</ele>
        <time>2021-09-07T18:25:04Z</time>
      </trkpt>
      <trkpt lat="44.34694" lon="5.62487">
        <ele>999</ele>
        <time>2021-09-07T18:25:05Z</time>
      </trkpt>
      <trkpt lat="44.34694" lon="5.62487">
        <ele>999</ele>
        <time>2021-09-07T18:25:06Z</time>
      </trkpt>
      <trkpt lat="44.34694" lon="5.62487">
        <ele>999</ele>
        <time>2021-09-07T18:25:07Z</time>
      </trkpt>
      <trkpt lat="44.34694" lon="5.62487">
        <ele>999</ele>
        <time>2021-09-07T18:25:08Z</time>
      </trkpt>
      <trkpt lat="44.34693" lon="5.62487">
        <ele>999.1</ele>
        <time>2021-09-07T18:25:09Z</time>
      </trkpt>
      <trkpt lat="44.34693" lon="5.62487">
        <ele>999.1</ele>
        <time>2021-09-07T18:25:10Z</time>
      </trkpt>
      <trkpt lat="44.34693" lon="5.62487">
        <ele>999.1</ele>
        <time>2021-09-07T18:25:11Z</time>
      </trkpt>
      <trkpt lat="44.34693" lon="5.62487">
        <ele>999.1</ele>
        <time>2021-09-07T18:25:12Z</time>
      </trkpt>
      <trkpt lat="44.34693" lon="5.62487">
        <ele>999.1</ele>
        <time>2021-09-07T18:25:13Z</time>
      </trkpt>
      <trkpt lat="44.34693" lon="5.62487">
        <ele>999.2</ele>
        <time>2021-09-07T18:25:14Z</time>
      </trkpt>
      <trkpt lat="44.34693" lon="5.62486">
        <ele>999.2</ele>
        <time>2021-09-07T18:25:15Z</time>
      </trkpt>
      <trkpt lat="44.34693" lon="5.62486">
        <ele>999.2</ele>
        <time>2021-09-07T18:25:16Z</time>
      </trkpt>
      <trkpt lat="44.34693" lon="5.62486">
        <ele>999.2</ele>
        <time>2021-09-07T18:25:17Z</time>
      </trkpt>
      <trkpt lat="44.34693" lon="5.62486">
        <ele>999.2</ele>
        <time>2021-09-07T18:25:18Z</time>
      </trkpt>
      <trkpt lat="44.34693" lon="5.62486">
        <ele>999.2</ele>
        <time>2021-09-07T18:25:19Z</time>
      </trkpt>
      <trkpt lat="44.34694" lon="5.62486">
        <ele>999.3</ele>
        <time>2021-09-07T18:25:20Z</time>
      </trkpt>
      <trkpt lat="44.34694" lon="5.62486">
        <ele>999.4</ele>
        <time>2021-09-07T18:25:21Z</time>
      </trkpt>
      <trkpt lat="44.34694" lon="5.62486">
        <ele>999.4</ele>
        <time>2021-09-07T18:25:22Z</time>
      </trkpt>
      <trkpt lat="44.34693" lon="5.62486">
        <ele>999.5</ele>
        <time>2021-09-07T18:25:23Z</time>
      </trkpt>
      <trkpt lat="44.34692" lon="5.62487">
        <ele>999.7</ele>
        <time>2021-09-07T18:25:24Z</time>
      </trkpt>
      <trkpt lat="44.34691" lon="5.62488">
        <ele>999.9</ele>
        <time>2021-09-07T18:25:25Z</time>
      </trkpt>
      <trkpt lat="44.3469" lon="5.62489">
        <ele>1000</ele>
        <time>2021-09-07T18:25:26Z</time>
      </trkpt>
      <trkpt lat="44.34689" lon="5.62489">
        <ele>1000.2</ele>
        <time>2021-09-07T18:25:27Z</time>
      </trkpt>
      <trkpt lat="44.34689" lon="5.62491">
        <ele>1000.3</ele>
        <time>2021-09-07T18:25:28Z</time>
      </trkpt>
      <trkpt lat="44.34689" lon="5.62492">
        <ele>1000.5</ele>
        <time>2021-09-07T18:25:29Z</time>
      </trkpt>
      <trkpt lat="44.34689" lon="5.62494">
        <ele>1000.7</ele>
        <time>2021-09-07T18:25:30Z</time>
      </trkpt>
      <trkpt lat="44.34689" lon="5.62496">
        <ele>1000.9</ele>
        <time>2021-09-07T18:25:31Z</time>
      </trkpt>
      <trkpt lat="44.34689" lon="5.62498">
        <ele>1001.1</ele>
        <time>2021-09-07T18:25:32Z</time>
      </trkpt>
      <trkpt lat="44.34689" lon="5.62499">
        <ele>1001.3</ele>
        <time>2021-09-07T18:25:33Z</time>
      </trkpt>
      <trkpt lat="44.34689" lon="5.625">
        <ele>1001.4</ele>
        <time>2021-09-07T18:25:34Z</time>
      </trkpt>
      <trkpt lat="44.3469" lon="5.62501">
        <ele>1001.6</ele>
        <time>2021-09-07T18:25:35Z</time>
      </trkpt>
      <trkpt lat="44.34691" lon="5.62505">
        <ele>1002</ele>
        <time>2021-09-07T18:25:36Z</time>
      </trkpt>
      <trkpt lat="44.34692" lon="5.62506">
        <ele>1002.2</ele>
        <time>2021-09-07T18:25:37Z</time>
      </trkpt>
      <trkpt lat="44.34693" lon="5.62507">
        <ele>1002.4</ele>
        <time>2021-09-07T18:25:38Z</time>
      </trkpt>
      <trkpt lat="44.34695" lon="5.62509">
        <ele>1002.9</ele>
        <time>2021-09-07T18:25:39Z</time>
      </trkpt>
      <trkpt lat="44.34695" lon="5.6251">
        <ele>1003</ele>
        <time>2021-09-07T18:25:40Z</time>
      </trkpt>
      <trkpt lat="44.34695" lon="5.62511">
        <ele>1003.1</ele>
        <time>2021-09-07T18:25:41Z</time>
      </trkpt>
      <trkpt lat="44.34695" lon="5.62513">
        <ele>1003.3</ele>
        <time>2021-09-07T18:25:42Z</time>
      </trkpt>
      <trkpt lat="44.34695" lon="5.62514">
        <ele>1003.5</ele>
        <time>2021-09-07T18:25:43Z</time>
      </trkpt>
      <trkpt lat="44.34695" lon="5.62515">
        <ele>1003.5</ele>
        <time>2021-09-07T18:25:44Z</time>
      </trkpt>
      <trkpt lat="44.34695" lon="5.62515">
        <ele>1003.6</ele>
        <time>2021-09-07T18:25:45Z</time>
      </trkpt>
      <trkpt lat="44.34695" lon="5.62516">
        <ele>1003.7</ele>
        <time>2021-09-07T18:25:46Z</time>
      </trkpt>
      <trkpt lat="44.34695" lon="5.62516">
        <ele>1003.7</ele>
        <time>2021-09-07T18:25:47Z</time>
      </trkpt>
      <trkpt lat="44.34695" lon="5.62516">
        <ele>1003.7</ele>
        <time>2021-09-07T18:25:48Z</time>
      </trkpt>
      <trkpt lat="44.34695" lon="5.62517">
        <ele>1003.8</ele>
        <time>2021-09-07T18:25:49Z</time>
      </trkpt>
      <trkpt lat="44.34695" lon="5.62518">
        <ele>1003.9</ele>
        <time>2021-09-07T18:25:50Z</time>
      </trkpt>
      <trkpt lat="44.34694" lon="5.62518">
        <ele>1004</ele>
        <time>2021-09-07T18:25:51Z</time>
      </trkpt>
      <trkpt lat="44.34693" lon="5.6252">
        <ele>1004.3</ele>
        <time>2021-09-07T18:25:52Z</time>
      </trkpt>
      <trkpt lat="44.34692" lon="5.62521">
        <ele>1004.5</ele>
        <time>2021-09-07T18:25:53Z</time>
      </trkpt>
      <trkpt lat="44.34692" lon="5.62522">
        <ele>1004.6</ele>
        <time>2021-09-07T18:25:54Z</time>
      </trkpt>
      <trkpt lat="44.34691" lon="5.62522">
        <ele>1004.7</ele>
        <time>2021-09-07T18:25:55Z</time>
      </trkpt>
      <trkpt lat="44.34691" lon="5.62523">
        <ele>1004.8</ele>
        <time>2021-09-07T18:25:56Z</time>
      </trkpt>
      <trkpt lat="44.3469" lon="5.62523">
        <ele>1004.9</ele>
        <time>2021-09-07T18:25:57Z</time>
      </trkpt>
      <trkpt lat="44.34689" lon="5.62523">
        <ele>1005.1</ele>
        <time>2021-09-07T18:25:58Z</time>
      </trkpt>
      <trkpt lat="44.34689" lon="5.62524">
        <ele>1005.2</ele>
        <time>2021-09-07T18:25:59Z</time>
      </trkpt>
      <trkpt lat="44.34688" lon="5.62524">
        <ele>1005.4</ele>
        <time>2021-09-07T18:26:00Z</time>
      </trkpt>
      <trkpt lat="44.34687" lon="5.62524">
        <ele>1005.5</ele>
        <time>2021-09-07T18:26:01Z</time>
      </trkpt>
      <trkpt lat="44.34685" lon="5.62525">
        <ele>1005.9</ele>
        <time>2021-09-07T18:26:02Z</time>
      </trkpt>
      <trkpt lat="44.34684" lon="5.62526">
        <ele>1006</ele>
        <time>2021-09-07T18:26:03Z</time>
      </trkpt>
      <trkpt lat="44.34683" lon="5.62526">
        <ele>1006.2</ele>
        <time>2021-09-07T18:26:04Z</time>
      </trkpt>
      <trkpt lat="44.34682" lon="5.62526">
        <ele>1006.4</ele>
        <time>2021-09-07T18:26:05Z</time>
      </trkpt>
      <trkpt lat="44.34681" lon="5.62526">
        <ele>1006.5</ele>
        <time>2021-09-07T18:26:06Z</time>
      </trkpt>
      <trkpt lat="44.3468" lon="5.62526">
        <ele>1006.7</ele>
        <time>2021-09-07T18:26:07Z</time>
      </trkpt>
      <trkpt lat="44.34679" lon="5.62526">
        <ele>1006.9</ele>
        <time>2021-09-07T18:26:08Z</time>
      </trkpt>
      <trkpt lat="44.34678" lon="5.62526">
        <ele>1007</ele>
        <time>2021-09-07T18:26:09Z</time>
      </trkpt>
      <trkpt lat="44.34677" lon="5.62526">
        <ele>1007.2</ele>
        <time>2021-09-07T18:26:10Z</time>
      </trkpt>
      <trkpt lat="44.34677" lon="5.62526">
        <ele>1007.2</ele>
        <time>2021-09-07T18:26:11Z</time>
      </trkpt>
      <trkpt lat="44.34676" lon="5.62526">
        <ele>1007.3</ele>
        <time>2021-09-07T18:26:12Z</time>
      </trkpt>
      <trkpt lat="44.34675" lon="5.62525">
        <ele>1007.5</ele>
        <time>2021-09-07T18:26:13Z</time>
      </trkpt>
      <trkpt lat="44.34674" lon="5.62525">
        <ele>1007.7</ele>
        <time>2021-09-07T18:26:14Z</time>
      </trkpt>
      <trkpt lat="44.34673" lon="5.62525">
        <ele>1007.8</ele>
        <time>2021-09-07T18:26:15Z</time>
      </trkpt>
      <trkpt lat="44.34673" lon="5.62525">
        <ele>1007.8</ele>
        <time>2021-09-07T18:26:16Z</time>
      </trkpt>
      <trkpt lat="44.34673" lon="5.62525">
        <ele>1007.8</ele>
        <time>2021-09-07T18:26:17Z</time>
      </trkpt>
      <trkpt lat="44.34672" lon="5.62525">
        <ele>1008</ele>
        <time>2021-09-07T18:26:18Z</time>
      </trkpt>
      <trkpt lat="44.34671" lon="5.62525">
        <ele>1008.2</ele>
        <time>2021-09-07T18:26:19Z</time>
      </trkpt>
      <trkpt lat="44.3467" lon="5.62525">
        <ele>1008.3</ele>
        <time>2021-09-07T18:26:20Z</time>
      </trkpt>
      <trkpt lat="44.34669" lon="5.62526">
        <ele>1008.5</ele>
        <time>2021-09-07T18:26:21Z</time>
      </trkpt>
      <trkpt lat="44.34668" lon="5.62527">
        <ele>1008.8</ele>
        <time>2021-09-07T18:26:22Z</time>
      </trkpt>
      <trkpt lat="44.34666" lon="5.62527">
        <ele>1009.1</ele>
        <time>2021-09-07T18:26:23Z</time>
      </trkpt>
      <trkpt lat="44.34666" lon="5.62528">
        <ele>1009.2</ele>
        <time>2021-09-07T18:26:24Z</time>
      </trkpt>
      <trkpt lat="44.34665" lon="5.62528">
        <ele>1009.3</ele>
        <time>2021-09-07T18:26:25Z</time>
      </trkpt>
      <trkpt lat="44.34664" lon="5.62528">
        <ele>1009.5</ele>
        <time>2021-09-07T18:26:26Z</time>
      </trkpt>
      <trkpt lat="44.34663" lon="5.62528">
        <ele>1009.7</ele>
        <time>2021-09-07T18:26:27Z</time>
      </trkpt>
      <trkpt lat="44.34662" lon="5.62528">
        <ele>1009.8</ele>
        <time>2021-09-07T18:26:28Z</time>
      </trkpt>
      <trkpt lat="44.34662" lon="5.62528">
        <ele>1009.8</ele>
        <time>2021-09-07T18:26:29Z</time>
      </trkpt>
      <trkpt lat="44.34661" lon="5.62529">
        <ele>1010.1</ele>
        <time>2021-09-07T18:26:30Z</time>
      </trkpt>
      <trkpt lat="44.34661" lon="5.62529">
        <ele>1010.1</ele>
        <time>2021-09-07T18:26:31Z</time>
      </trkpt>
      <trkpt lat="44.34661" lon="5.62529">
        <ele>1010.1</ele>
        <time>2021-09-07T18:26:32Z</time>
      </trkpt>
      <trkpt lat="44.34661" lon="5.62529">
        <ele>1010.1</ele>
        <time>2021-09-07T18:26:33Z</time>
      </trkpt>
      <trkpt lat="44.3466" lon="5.62529">
        <ele>1010.3</ele>
        <time>2021-09-07T18:26:34Z</time>
      </trkpt>
      <trkpt lat="44.3466" lon="5.62529">
        <ele>1010.3</ele>
        <time>2021-09-07T18:26:35Z</time>
      </trkpt>
      <trkpt lat="44.3466" lon="5.62529">
        <ele>1010.3</ele>
        <time>2021-09-07T18:26:36Z</time>
      </trkpt>
      <trkpt lat="44.3466" lon="5.62529">
        <ele>1010.3</ele>
        <time>2021-09-07T18:26:37Z</time>
      </trkpt>
      <trkpt lat="44.3466" lon="5.62529">
        <ele>1010.3</ele>
        <time>2021-09-07T18:26:38Z</time>
      </trkpt>
      <trkpt lat="44.34659" lon="5.6253">
        <ele>1010.5</ele>
        <time>2021-09-07T18:26:39Z</time>
      </trkpt>
      <trkpt lat="44.34658" lon="5.6253">
        <ele>1010.7</ele>
        <time>2021-09-07T18:26:40Z</time>
      </trkpt>
      <trkpt lat="44.34656" lon="5.62531">
        <ele>1011.1</ele>
        <time>2021-09-07T18:26:41Z</time>
      </trkpt>
      <trkpt lat="44.34653" lon="5.62532">
        <ele>1011.7</ele>
        <time>2021-09-07T18:26:42Z</time>
      </trkpt>
      <trkpt lat="44.34652" lon="5.62533">
        <ele>1011.9</ele>
        <time>2021-09-07T18:26:43Z</time>
      </trkpt>
      <trkpt lat="44.34651" lon="5.62533">
        <ele>1012.1</ele>
        <time>2021-09-07T18:26:44Z</time>
      </trkpt>
      <trkpt lat="44.3465" lon="5.62534">
        <ele>1012.4</ele>
        <time>2021-09-07T18:26:45Z</time>
      </trkpt>
      <trkpt lat="44.34648" lon="5.62535">
        <ele>1012.8</ele>
        <time>2021-09-07T18:26:46Z</time>
      </trkpt>
      <trkpt lat="44.34647" lon="5.62536">
        <ele>1013</ele>
        <time>2021-09-07T18:26:47Z</time>
      </trkpt>
      <trkpt lat="44.34646" lon="5.62537">
        <ele>1013.3</ele>
        <time>2021-09-07T18:26:48Z</time>
      </trkpt>
      <trkpt lat="44.34645" lon="5.62537">
        <ele>1013.5</ele>
        <time>2021-09-07T18:26:49Z</time>
      </trkpt>
      <trkpt lat="44.34645" lon="5.62538">
        <ele>1013.6</ele>
        <time>2021-09-07T18:26:50Z</time>
      </trkpt>
      <trkpt lat="44.34644" lon="5.62538">
        <ele>1013.7</ele>
        <time>2021-09-07T18:26:51Z</time>
      </trkpt>
      <trkpt lat="44.34644" lon="5.62538">
        <ele>1013.7</ele>
        <time>2021-09-07T18:26:52Z</time>
      </trkpt>
      <trkpt lat="44.34644" lon="5.62538">
        <ele>1013.7</ele>
        <time>2021-09-07T18:26:53Z</time>
      </trkpt>
      <trkpt lat="44.34644" lon="5.62538">
        <ele>1013.7</ele>
        <time>2021-09-07T18:26:54Z</time>
      </trkpt>
      <trkpt lat="44.34644" lon="5.62538">
        <ele>1013.7</ele>
        <time>2021-09-07T18:26:55Z</time>
      </trkpt>
      <trkpt lat="44.34644" lon="5.62538">
        <ele>1013.7</ele>
        <time>2021-09-07T18:26:56Z</time>
      </trkpt>
      <trkpt lat="44.34644" lon="5.62538">
        <ele>1013.8</ele>
        <time>2021-09-07T18:26:57Z</time>
      </trkpt>
      <trkpt lat="44.34643" lon="5.62538">
        <ele>1013.9</ele>
        <time>2021-09-07T18:26:58Z</time>
      </trkpt>
      <trkpt lat="44.34643" lon="5.62538">
        <ele>1013.9</ele>
        <time>2021-09-07T18:26:59Z</time>
      </trkpt>
      <trkpt lat="44.34643" lon="5.62538">
        <ele>1013.9</ele>
        <time>2021-09-07T18:27:00Z</time>
      </trkpt>
      <trkpt lat="44.34643" lon="5.62538">
        <ele>1013.9</ele>
        <time>2021-09-07T18:27:01Z</time>
      </trkpt>
      <trkpt lat="44.34643" lon="5.62538">
        <ele>1013.9</ele>
        <time>2021-09-07T18:27:02Z</time>
      </trkpt>
      <trkpt lat="44.34643" lon="5.62538">
        <ele>1013.9</ele>
        <time>2021-09-07T18:27:03Z</time>
      </trkpt>
      <trkpt lat="44.34643" lon="5.62538">
        <ele>1013.9</ele>
        <time>2021-09-07T18:27:04Z</time>
      </trkpt>
      <trkpt lat="44.34643" lon="5.62538">
        <ele>1013.9</ele>
        <time>2021-09-07T18:27:05Z</time>
      </trkpt>
      <trkpt lat="44.34643" lon="5.62538">
        <ele>1013.9</ele>
        <time>2021-09-07T18:27:06Z</time>
      </trkpt>
      <trkpt lat="44.34643" lon="5.62538">
        <ele>1013.9</ele>
        <time>2021-09-07T18:27:07Z</time>
      </trkpt>
      <trkpt lat="44.34643" lon="5.62538">
        <ele>1013.9</ele>
        <time>2021-09-07T18:27:08Z</time>
      </trkpt>
      <trkpt lat="44.34643" lon="5.62538">
        <ele>1013.9</ele>
        <time>2021-09-07T18:27:09Z</time>
      </trkpt>
      <trkpt lat="44.34643" lon="5.62538">
        <ele>1013.9</ele>
        <time>2021-09-07T18:27:10Z</time>
      </trkpt>
      <trkpt lat="44.34643" lon="5.62538">
        <ele>1013.9</ele>
        <time>2021-09-07T18:27:11Z</time>
      </trkpt>
      <trkpt lat="44.34643" lon="5.62538">
        <ele>1013.9</ele>
        <time>2021-09-07T18:27:12Z</time>
      </trkpt>
      <trkpt lat="44.34643" lon="5.62538">
        <ele>1013.9</ele>
        <time>2021-09-07T18:27:13Z</time>
      </trkpt>
      <trkpt lat="44.34643" lon="5.62538">
        <ele>1013.9</ele>
        <time>2021-09-07T18:27:14Z</time>
      </trkpt>
      <trkpt lat="44.34643" lon="5.62538">
        <ele>1013.9</ele>
        <time>2021-09-07T18:27:15Z</time>
      </trkpt>
      <trkpt lat="44.34643" lon="5.62538">
        <ele>1013.9</ele>
        <time>2021-09-07T18:27:16Z</time>
      </trkpt>
      <trkpt lat="44.34643" lon="5.62538">
        <ele>1014</ele>
        <time>2021-09-07T18:27:17Z</time>
      </trkpt>
      <trkpt lat="44.34643" lon="5.62537">
        <ele>1014</ele>
        <time>2021-09-07T18:27:18Z</time>
      </trkpt>
      <trkpt lat="44.34643" lon="5.62537">
        <ele>1014.1</ele>
        <time>2021-09-07T18:27:19Z</time>
      </trkpt>
      <trkpt lat="44.34643" lon="5.62537">
        <ele>1014.1</ele>
        <time>2021-09-07T18:27:20Z</time>
      </trkpt>
      <trkpt lat="44.34643" lon="5.62537">
        <ele>1014.1</ele>
        <time>2021-09-07T18:27:21Z</time>
      </trkpt>
      <trkpt lat="44.34643" lon="5.62537">
        <ele>1014.1</ele>
        <time>2021-09-07T18:27:22Z</time>
      </trkpt>
      <trkpt lat="44.34643" lon="5.62537">
        <ele>1014.1</ele>
        <time>2021-09-07T18:27:23Z</time>
      </trkpt>
      <trkpt lat="44.34643" lon="5.62537">
        <ele>1014.1</ele>
        <time>2021-09-07T18:27:24Z</time>
      </trkpt>
      <trkpt lat="44.34643" lon="5.62537">
        <ele>1014.1</ele>
        <time>2021-09-07T18:27:25Z</time>
      </trkpt>
      <trkpt lat="44.34643" lon="5.62538">
        <ele>1014.2</ele>
        <time>2021-09-07T18:27:26Z</time>
      </trkpt>
      <trkpt lat="44.34643" lon="5.62538">
        <ele>1014.2</ele>
        <time>2021-09-07T18:27:27Z</time>
      </trkpt>
      <trkpt lat="44.34643" lon="5.62538">
        <ele>1014.2</ele>
        <time>2021-09-07T18:27:28Z</time>
      </trkpt>
      <trkpt lat="44.34643" lon="5.62538">
        <ele>1014.2</ele>
        <time>2021-09-07T18:27:29Z</time>
      </trkpt>
      <trkpt lat="44.34643" lon="5.62538">
        <ele>1014.2</ele>
        <time>2021-09-07T18:27:30Z</time>
      </trkpt>
      <trkpt lat="44.34643" lon="5.62538">
        <ele>1014.2</ele>
        <time>2021-09-07T18:27:31Z</time>
      </trkpt>
      <trkpt lat="44.34643" lon="5.62539">
        <ele>1014.4</ele>
        <time>2021-09-07T18:27:32Z</time>
      </trkpt>
      <trkpt lat="44.34643" lon="5.62539">
        <ele>1014.4</ele>
        <time>2021-09-07T18:27:33Z</time>
      </trkpt>
      <trkpt lat="44.34643" lon="5.62539">
        <ele>1014.4</ele>
        <time>2021-09-07T18:27:34Z</time>
      </trkpt>
      <trkpt lat="44.34643" lon="5.62539">
        <ele>1014.4</ele>
        <time>2021-09-07T18:27:35Z</time>
      </trkpt>
      <trkpt lat="44.34643" lon="5.62539">
        <ele>1014.4</ele>
        <time>2021-09-07T18:27:36Z</time>
      </trkpt>
      <trkpt lat="44.34643" lon="5.62539">
        <ele>1014.4</ele>
        <time>2021-09-07T18:27:37Z</time>
      </trkpt>
      <trkpt lat="44.34642" lon="5.62539">
        <ele>1014.6</ele>
        <time>2021-09-07T18:27:38Z</time>
      </trkpt>
      <trkpt lat="44.3464" lon="5.62541">
        <ele>1015.1</ele>
        <time>2021-09-07T18:27:39Z</time>
      </trkpt>
      <trkpt lat="44.34638" lon="5.62542">
        <ele>1015.5</ele>
        <time>2021-09-07T18:27:40Z</time>
      </trkpt>
      <trkpt lat="44.34638" lon="5.62543">
        <ele>1015.6</ele>
        <time>2021-09-07T18:27:41Z</time>
      </trkpt>
      <trkpt lat="44.34637" lon="5.62543">
        <ele>1015.7</ele>
        <time>2021-09-07T18:27:42Z</time>
      </trkpt>
      <trkpt lat="44.34635" lon="5.62544">
        <ele>1016.2</ele>
        <time>2021-09-07T18:27:43Z</time>
      </trkpt>
      <trkpt lat="44.34635" lon="5.62544">
        <ele>1016.2</ele>
        <time>2021-09-07T18:27:44Z</time>
      </trkpt>
      <trkpt lat="44.34634" lon="5.62544">
        <ele>1016.3</ele>
        <time>2021-09-07T18:27:45Z</time>
      </trkpt>
      <trkpt lat="44.34634" lon="5.62545">
        <ele>1016.4</ele>
        <time>2021-09-07T18:27:46Z</time>
      </trkpt>
      <trkpt lat="44.34634" lon="5.62545">
        <ele>1016.5</ele>
        <time>2021-09-07T18:27:47Z</time>
      </trkpt>
      <trkpt lat="44.34634" lon="5.62545">
        <ele>1016.5</ele>
        <time>2021-09-07T18:27:48Z</time>
      </trkpt>
      <trkpt lat="44.34633" lon="5.62545">
        <ele>1016.6</ele>
        <time>2021-09-07T18:27:49Z</time>
      </trkpt>
      <trkpt lat="44.34633" lon="5.62545">
        <ele>1016.7</ele>
        <time>2021-09-07T18:27:50Z</time>
      </trkpt>
      <trkpt lat="44.34633" lon="5.62545">
        <ele>1016.7</ele>
        <time>2021-09-07T18:27:51Z</time>
      </trkpt>
      <trkpt lat="44.34633" lon="5.62545">
        <ele>1016.7</ele>
        <time>2021-09-07T18:27:52Z</time>
      </trkpt>
      <trkpt lat="44.34633" lon="5.62545">
        <ele>1016.7</ele>
        <time>2021-09-07T18:27:53Z</time>
      </trkpt>
      <trkpt lat="44.34633" lon="5.62545">
        <ele>1016.7</ele>
        <time>2021-09-07T18:27:54Z</time>
      </trkpt>
      <trkpt lat="44.34633" lon="5.62545">
        <ele>1016.7</ele>
        <time>2021-09-07T18:27:55Z</time>
      </trkpt>
      <trkpt lat="44.34633" lon="5.62545">
        <ele>1016.7</ele>
        <time>2021-09-07T18:27:56Z</time>
      </trkpt>
      <trkpt lat="44.34633" lon="5.62545">
        <ele>1016.7</ele>
        <time>2021-09-07T18:27:57Z</time>
      </trkpt>
      <trkpt lat="44.34633" lon="5.62546">
        <ele>1016.8</ele>
        <time>2021-09-07T18:27:58Z</time>
      </trkpt>
      <trkpt lat="44.34632" lon="5.62546">
        <ele>1017</ele>
        <time>2021-09-07T18:27:59Z</time>
      </trkpt>
      <trkpt lat="44.34631" lon="5.62547">
        <ele>1017.2</ele>
        <time>2021-09-07T18:28:00Z</time>
      </trkpt>
      <trkpt lat="44.34631" lon="5.62547">
        <ele>1017.3</ele>
        <time>2021-09-07T18:28:01Z</time>
      </trkpt>
      <trkpt lat="44.3463" lon="5.62548">
        <ele>1017.5</ele>
        <time>2021-09-07T18:28:02Z</time>
      </trkpt>
      <trkpt lat="44.34628" lon="5.62548">
        <ele>1017.9</ele>
        <time>2021-09-07T18:28:03Z</time>
      </trkpt>
      <trkpt lat="44.34626" lon="5.62549">
        <ele>1018.3</ele>
        <time>2021-09-07T18:28:04Z</time>
      </trkpt>
      <trkpt lat="44.34625" lon="5.62549">
        <ele>1018.5</ele>
        <time>2021-09-07T18:28:05Z</time>
      </trkpt>
      <trkpt lat="44.34624" lon="5.62549">
        <ele>1018.7</ele>
        <time>2021-09-07T18:28:06Z</time>
      </trkpt>
      <trkpt lat="44.34623" lon="5.62549">
        <ele>1018.9</ele>
        <time>2021-09-07T18:28:07Z</time>
      </trkpt>
      <trkpt lat="44.3462" lon="5.6255">
        <ele>1019.5</ele>
        <time>2021-09-07T18:28:08Z</time>
      </trkpt>
      <trkpt lat="44.34619" lon="5.62551">
        <ele>1019.7</ele>
        <time>2021-09-07T18:28:09Z</time>
      </trkpt>
      <trkpt lat="44.34618" lon="5.62551">
        <ele>1019.9</ele>
        <time>2021-09-07T18:28:10Z</time>
      </trkpt>
      <trkpt lat="44.34617" lon="5.62552">
        <ele>1020.1</ele>
        <time>2021-09-07T18:28:11Z</time>
      </trkpt>
      <trkpt lat="44.34616" lon="5.62552">
        <ele>1020.3</ele>
        <time>2021-09-07T18:28:12Z</time>
      </trkpt>
      <trkpt lat="44.34616" lon="5.62553">
        <ele>1020.5</ele>
        <time>2021-09-07T18:28:13Z</time>
      </trkpt>
      <trkpt lat="44.34615" lon="5.62553">
        <ele>1020.6</ele>
        <time>2021-09-07T18:28:14Z</time>
      </trkpt>
      <trkpt lat="44.34614" lon="5.62553">
        <ele>1020.8</ele>
        <time>2021-09-07T18:28:15Z</time>
      </trkpt>
      <trkpt lat="44.34614" lon="5.62553">
        <ele>1020.8</ele>
        <time>2021-09-07T18:28:16Z</time>
      </trkpt>
      <trkpt lat="44.34614" lon="5.62553">
        <ele>1020.8</ele>
        <time>2021-09-07T18:28:17Z</time>
      </trkpt>
      <trkpt lat="44.34614" lon="5.62553">
        <ele>1020.8</ele>
        <time>2021-09-07T18:28:18Z</time>
      </trkpt>
      <trkpt lat="44.34614" lon="5.62553">
        <ele>1020.9</ele>
        <time>2021-09-07T18:28:19Z</time>
      </trkpt>
      <trkpt lat="44.34613" lon="5.62553">
        <ele>1021</ele>
        <time>2021-09-07T18:28:20Z</time>
      </trkpt>
      <trkpt lat="44.34613" lon="5.62553">
        <ele>1021</ele>
        <time>2021-09-07T18:28:21Z</time>
      </trkpt>
      <trkpt lat="44.34613" lon="5.62553">
        <ele>1021</ele>
        <time>2021-09-07T18:28:22Z</time>
      </trkpt>
      <trkpt lat="44.34613" lon="5.62553">
        <ele>1021</ele>
        <time>2021-09-07T18:28:23Z</time>
      </trkpt>
      <trkpt lat="44.34613" lon="5.62553">
        <ele>1021</ele>
        <time>2021-09-07T18:28:24Z</time>
      </trkpt>
      <trkpt lat="44.34613" lon="5.62553">
        <ele>1021</ele>
        <time>2021-09-07T18:28:25Z</time>
      </trkpt>
      <trkpt lat="44.34613" lon="5.62553">
        <ele>1021</ele>
        <time>2021-09-07T18:28:26Z</time>
      </trkpt>
      <trkpt lat="44.34612" lon="5.62553">
        <ele>1021.2</ele>
        <time>2021-09-07T18:28:27Z</time>
      </trkpt>
      <trkpt lat="44.34611" lon="5.62554">
        <ele>1021.4</ele>
        <time>2021-09-07T18:28:28Z</time>
      </trkpt>
      <trkpt lat="44.3461" lon="5.62555">
        <ele>1021.6</ele>
        <time>2021-09-07T18:28:29Z</time>
      </trkpt>
      <trkpt lat="44.34609" lon="5.62556">
        <ele>1021.8</ele>
        <time>2021-09-07T18:28:30Z</time>
      </trkpt>
      <trkpt lat="44.34608" lon="5.62556">
        <ele>1022.1</ele>
        <time>2021-09-07T18:28:31Z</time>
      </trkpt>
      <trkpt lat="44.34607" lon="5.62557">
        <ele>1022.3</ele>
        <time>2021-09-07T18:28:32Z</time>
      </trkpt>
      <trkpt lat="44.34606" lon="5.62558">
        <ele>1022.6</ele>
        <time>2021-09-07T18:28:33Z</time>
      </trkpt>
      <trkpt lat="44.34605" lon="5.62559">
        <ele>1022.8</ele>
        <time>2021-09-07T18:28:34Z</time>
      </trkpt>
      <trkpt lat="44.34605" lon="5.62559">
        <ele>1022.8</ele>
        <time>2021-09-07T18:28:35Z</time>
      </trkpt>
      <trkpt lat="44.34604" lon="5.6256">
        <ele>1023.1</ele>
        <time>2021-09-07T18:28:36Z</time>
      </trkpt>
      <trkpt lat="44.34603" lon="5.62561">
        <ele>1023.4</ele>
        <time>2021-09-07T18:28:37Z</time>
      </trkpt>
      <trkpt lat="44.34601" lon="5.62563">
        <ele>1023.9</ele>
        <time>2021-09-07T18:28:38Z</time>
      </trkpt>
      <trkpt lat="44.346" lon="5.62564">
        <ele>1024.1</ele>
        <time>2021-09-07T18:28:39Z</time>
      </trkpt>
      <trkpt lat="44.346" lon="5.62564">
        <ele>1024.2</ele>
        <time>2021-09-07T18:28:40Z</time>
      </trkpt>
      <trkpt lat="44.34599" lon="5.62564">
        <ele>1024.4</ele>
        <time>2021-09-07T18:28:41Z</time>
      </trkpt>
      <trkpt lat="44.34599" lon="5.62565">
        <ele>1024.5</ele>
        <time>2021-09-07T18:28:42Z</time>
      </trkpt>
      <trkpt lat="44.34598" lon="5.62565">
        <ele>1024.7</ele>
        <time>2021-09-07T18:28:43Z</time>
      </trkpt>
      <trkpt lat="44.34598" lon="5.62566">
        <ele>1024.9</ele>
        <time>2021-09-07T18:28:44Z</time>
      </trkpt>
      <trkpt lat="44.34597" lon="5.62566">
        <ele>1025</ele>
        <time>2021-09-07T18:28:45Z</time>
      </trkpt>
      <trkpt lat="44.34597" lon="5.62566">
        <ele>1025</ele>
        <time>2021-09-07T18:28:46Z</time>
      </trkpt>
      <trkpt lat="44.34597" lon="5.62566">
        <ele>1025</ele>
        <time>2021-09-07T18:28:47Z</time>
      </trkpt>
      <trkpt lat="44.34597" lon="5.62567">
        <ele>1025.1</ele>
        <time>2021-09-07T18:28:48Z</time>
      </trkpt>
      <trkpt lat="44.34597" lon="5.62567">
        <ele>1025.1</ele>
        <time>2021-09-07T18:28:49Z</time>
      </trkpt>
      <trkpt lat="44.34597" lon="5.62568">
        <ele>1025.3</ele>
        <time>2021-09-07T18:28:50Z</time>
      </trkpt>
      <trkpt lat="44.34596" lon="5.62568">
        <ele>1025.4</ele>
        <time>2021-09-07T18:28:51Z</time>
      </trkpt>
      <trkpt lat="44.34596" lon="5.6257">
        <ele>1025.7</ele>
        <time>2021-09-07T18:28:52Z</time>
      </trkpt>
      <trkpt lat="44.34596" lon="5.62573">
        <ele>1026.2</ele>
        <time>2021-09-07T18:28:53Z</time>
      </trkpt>
      <trkpt lat="44.34596" lon="5.62577">
        <ele>1026.8</ele>
        <time>2021-09-07T18:28:54Z</time>
      </trkpt>
      <trkpt lat="44.34596" lon="5.62578">
        <ele>1026.9</ele>
        <time>2021-09-07T18:28:55Z</time>
      </trkpt>
      <trkpt lat="44.34596" lon="5.62579">
        <ele>1027.1</ele>
        <time>2021-09-07T18:28:56Z</time>
      </trkpt>
      <trkpt lat="44.34596" lon="5.6258">
        <ele>1027.2</ele>
        <time>2021-09-07T18:28:57Z</time>
      </trkpt>
      <trkpt lat="44.34596" lon="5.62581">
        <ele>1027.4</ele>
        <time>2021-09-07T18:28:58Z</time>
      </trkpt>
      <trkpt lat="44.34596" lon="5.62582">
        <ele>1027.5</ele>
        <time>2021-09-07T18:28:59Z</time>
      </trkpt>
      <trkpt lat="44.34596" lon="5.62583">
        <ele>1027.6</ele>
        <time>2021-09-07T18:29:00Z</time>
      </trkpt>
      <trkpt lat="44.34596" lon="5.62583">
        <ele>1027.7</ele>
        <time>2021-09-07T18:29:01Z</time>
      </trkpt>
      <trkpt lat="44.34596" lon="5.62583">
        <ele>1027.7</ele>
        <time>2021-09-07T18:29:02Z</time>
      </trkpt>
      <trkpt lat="44.34596" lon="5.62584">
        <ele>1027.8</ele>
        <time>2021-09-07T18:29:03Z</time>
      </trkpt>
      <trkpt lat="44.34596" lon="5.62584">
        <ele>1027.8</ele>
        <time>2021-09-07T18:29:04Z</time>
      </trkpt>
      <trkpt lat="44.34596" lon="5.62584">
        <ele>1027.8</ele>
        <time>2021-09-07T18:29:05Z</time>
      </trkpt>
      <trkpt lat="44.34596" lon="5.62584">
        <ele>1027.8</ele>
        <time>2021-09-07T18:29:06Z</time>
      </trkpt>
      <trkpt lat="44.34596" lon="5.62584">
        <ele>1027.8</ele>
        <time>2021-09-07T18:29:07Z</time>
      </trkpt>
      <trkpt lat="44.34596" lon="5.62584">
        <ele>1027.8</ele>
        <time>2021-09-07T18:29:08Z</time>
      </trkpt>
      <trkpt lat="44.34596" lon="5.62584">
        <ele>1027.8</ele>
        <time>2021-09-07T18:29:09Z</time>
      </trkpt>
      <trkpt lat="44.34596" lon="5.62584">
        <ele>1027.8</ele>
        <time>2021-09-07T18:29:10Z</time>
      </trkpt>
      <trkpt lat="44.34596" lon="5.62585">
        <ele>1028</ele>
        <time>2021-09-07T18:29:11Z</time>
      </trkpt>
      <trkpt lat="44.34596" lon="5.62585">
        <ele>1028</ele>
        <time>2021-09-07T18:29:12Z</time>
      </trkpt>
      <trkpt lat="44.34596" lon="5.62585">
        <ele>1028</ele>
        <time>2021-09-07T18:29:13Z</time>
      </trkpt>
      <trkpt lat="44.34596" lon="5.62585">
        <ele>1028</ele>
        <time>2021-09-07T18:29:14Z</time>
      </trkpt>
      <trkpt lat="44.34596" lon="5.62585">
        <ele>1028</ele>
        <time>2021-09-07T18:29:15Z</time>
      </trkpt>
      <trkpt lat="44.34596" lon="5.62585">
        <ele>1028</ele>
        <time>2021-09-07T18:29:16Z</time>
      </trkpt>
      <trkpt lat="44.34596" lon="5.62585">
        <ele>1028</ele>
        <time>2021-09-07T18:29:17Z</time>
      </trkpt>
      <trkpt lat="44.34596" lon="5.62585">
        <ele>1028</ele>
        <time>2021-09-07T18:29:18Z</time>
      </trkpt>
      <trkpt lat="44.34596" lon="5.62585">
        <ele>1028</ele>
        <time>2021-09-07T18:29:19Z</time>
      </trkpt>
      <trkpt lat="44.34596" lon="5.62586">
        <ele>1028.2</ele>
        <time>2021-09-07T18:29:20Z</time>
      </trkpt>
      <trkpt lat="44.34596" lon="5.62588">
        <ele>1028.4</ele>
        <time>2021-09-07T18:29:21Z</time>
      </trkpt>
      <trkpt lat="44.34596" lon="5.62589">
        <ele>1028.6</ele>
        <time>2021-09-07T18:29:22Z</time>
      </trkpt>
      <trkpt lat="44.34596" lon="5.62591">
        <ele>1028.8</ele>
        <time>2021-09-07T18:29:23Z</time>
      </trkpt>
      <trkpt lat="44.34596" lon="5.62592">
        <ele>1029</ele>
        <time>2021-09-07T18:29:24Z</time>
      </trkpt>
      <trkpt lat="44.34596" lon="5.62593">
        <ele>1029.1</ele>
        <time>2021-09-07T18:29:25Z</time>
      </trkpt>
      <trkpt lat="44.34596" lon="5.62595">
        <ele>1029.3</ele>
        <time>2021-09-07T18:29:26Z</time>
      </trkpt>
      <trkpt lat="44.34596" lon="5.62596">
        <ele>1029.5</ele>
        <time>2021-09-07T18:29:27Z</time>
      </trkpt>
      <trkpt lat="44.34596" lon="5.62597">
        <ele>1029.7</ele>
        <time>2021-09-07T18:29:28Z</time>
      </trkpt>
      <trkpt lat="44.34595" lon="5.62597">
        <ele>1029.8</ele>
        <time>2021-09-07T18:29:29Z</time>
      </trkpt>
      <trkpt lat="44.34595" lon="5.62597">
        <ele>1029.8</ele>
        <time>2021-09-07T18:29:30Z</time>
      </trkpt>
      <trkpt lat="44.34595" lon="5.62597">
        <ele>1029.8</ele>
        <time>2021-09-07T18:29:31Z</time>
      </trkpt>
      <trkpt lat="44.34595" lon="5.62598">
        <ele>1029.8</ele>
        <time>2021-09-07T18:29:32Z</time>
      </trkpt>
      <trkpt lat="44.34595" lon="5.62598">
        <ele>1029.9</ele>
        <time>2021-09-07T18:29:33Z</time>
      </trkpt>
      <trkpt lat="44.34595" lon="5.62598">
        <ele>1029.9</ele>
        <time>2021-09-07T18:29:34Z</time>
      </trkpt>
      <trkpt lat="44.34595" lon="5.62598">
        <ele>1029.9</ele>
        <time>2021-09-07T18:29:35Z</time>
      </trkpt>
      <trkpt lat="44.34595" lon="5.62598">
        <ele>1029.9</ele>
        <time>2021-09-07T18:29:36Z</time>
      </trkpt>
      <trkpt lat="44.34595" lon="5.62598">
        <ele>1029.9</ele>
        <time>2021-09-07T18:29:37Z</time>
      </trkpt>
      <trkpt lat="44.34595" lon="5.62598">
        <ele>1029.9</ele>
        <time>2021-09-07T18:29:38Z</time>
      </trkpt>
      <trkpt lat="44.34595" lon="5.62598">
        <ele>1029.9</ele>
        <time>2021-09-07T18:29:39Z</time>
      </trkpt>
      <trkpt lat="44.34595" lon="5.62598">
        <ele>1029.9</ele>
        <time>2021-09-07T18:29:40Z</time>
      </trkpt>
      <trkpt lat="44.34595" lon="5.62598">
        <ele>1029.9</ele>
        <time>2021-09-07T18:29:41Z</time>
      </trkpt>
      <trkpt lat="44.34595" lon="5.62598">
        <ele>1029.9</ele>
        <time>2021-09-07T18:29:42Z</time>
      </trkpt>
      <trkpt lat="44.34595" lon="5.62598">
        <ele>1029.9</ele>
        <time>2021-09-07T18:29:43Z</time>
      </trkpt>
      <trkpt lat="44.34595" lon="5.62598">
        <ele>1029.9</ele>
        <time>2021-09-07T18:29:44Z</time>
      </trkpt>
      <trkpt lat="44.34595" lon="5.62599">
        <ele>1029.9</ele>
        <time>2021-09-07T18:29:45Z</time>
      </trkpt>
      <trkpt lat="44.34595" lon="5.62599">
        <ele>1030</ele>
        <time>2021-09-07T18:29:46Z</time>
      </trkpt>
      <trkpt lat="44.34595" lon="5.62599">
        <ele>1030</ele>
        <time>2021-09-07T18:29:47Z</time>
      </trkpt>
      <trkpt lat="44.34595" lon="5.62599">
        <ele>1030</ele>
        <time>2021-09-07T18:29:48Z</time>
      </trkpt>
      <trkpt lat="44.34595" lon="5.62599">
        <ele>1030</ele>
        <time>2021-09-07T18:29:49Z</time>
      </trkpt>
      <trkpt lat="44.34594" lon="5.62599">
        <ele>1030.2</ele>
        <time>2021-09-07T18:29:50Z</time>
      </trkpt>
      <trkpt lat="44.34594" lon="5.626">
        <ele>1030.2</ele>
        <time>2021-09-07T18:29:51Z</time>
      </trkpt>
      <trkpt lat="44.34594" lon="5.626">
        <ele>1030.3</ele>
        <time>2021-09-07T18:29:52Z</time>
      </trkpt>
      <trkpt lat="44.34594" lon="5.62601">
        <ele>1030.4</ele>
        <time>2021-09-07T18:29:53Z</time>
      </trkpt>
      <trkpt lat="44.34593" lon="5.62603">
        <ele>1030.6</ele>
        <time>2021-09-07T18:29:54Z</time>
      </trkpt>
      <trkpt lat="44.34592" lon="5.62604">
        <ele>1030.9</ele>
        <time>2021-09-07T18:29:55Z</time>
      </trkpt>
      <trkpt lat="44.34591" lon="5.62606">
        <ele>1031.1</ele>
        <time>2021-09-07T18:29:56Z</time>
      </trkpt>
      <trkpt lat="44.34591" lon="5.62607">
        <ele>1031.2</ele>
        <time>2021-09-07T18:29:57Z</time>
      </trkpt>
      <trkpt lat="44.3459" lon="5.62607">
        <ele>1031.3</ele>
        <time>2021-09-07T18:29:58Z</time>
      </trkpt>
      <trkpt lat="44.3459" lon="5.62608">
        <ele>1031.4</ele>
        <time>2021-09-07T18:29:59Z</time>
      </trkpt>
      <trkpt lat="44.34589" lon="5.62609">
        <ele>1031.6</ele>
        <time>2021-09-07T18:30:00Z</time>
      </trkpt>
      <trkpt lat="44.34589" lon="5.62609">
        <ele>1031.6</ele>
        <time>2021-09-07T18:30:01Z</time>
      </trkpt>
      <trkpt lat="44.34589" lon="5.62609">
        <ele>1031.6</ele>
        <time>2021-09-07T18:30:02Z</time>
      </trkpt>
      <trkpt lat="44.34588" lon="5.62609">
        <ele>1031.8</ele>
        <time>2021-09-07T18:30:03Z</time>
      </trkpt>
      <trkpt lat="44.34588" lon="5.6261">
        <ele>1031.8</ele>
        <time>2021-09-07T18:30:04Z</time>
      </trkpt>
      <trkpt lat="44.34588" lon="5.6261">
        <ele>1031.9</ele>
        <time>2021-09-07T18:30:05Z</time>
      </trkpt>
      <trkpt lat="44.34588" lon="5.6261">
        <ele>1031.9</ele>
        <time>2021-09-07T18:30:06Z</time>
      </trkpt>
      <trkpt lat="44.34588" lon="5.6261">
        <ele>1031.9</ele>
        <time>2021-09-07T18:30:07Z</time>
      </trkpt>
      <trkpt lat="44.34588" lon="5.6261">
        <ele>1031.9</ele>
        <time>2021-09-07T18:30:08Z</time>
      </trkpt>
      <trkpt lat="44.34587" lon="5.6261">
        <ele>1032</ele>
        <time>2021-09-07T18:30:09Z</time>
      </trkpt>
      <trkpt lat="44.34587" lon="5.6261">
        <ele>1032</ele>
        <time>2021-09-07T18:30:10Z</time>
      </trkpt>
      <trkpt lat="44.34587" lon="5.6261">
        <ele>1032</ele>
        <time>2021-09-07T18:30:11Z</time>
      </trkpt>
      <trkpt lat="44.34587" lon="5.6261">
        <ele>1032</ele>
        <time>2021-09-07T18:30:12Z</time>
      </trkpt>
      <trkpt lat="44.34587" lon="5.6261">
        <ele>1032</ele>
        <time>2021-09-07T18:30:13Z</time>
      </trkpt>
      <trkpt lat="44.34587" lon="5.6261">
        <ele>1032</ele>
        <time>2021-09-07T18:30:14Z</time>
      </trkpt>
      <trkpt lat="44.34587" lon="5.6261">
        <ele>1032</ele>
        <time>2021-09-07T18:30:15Z</time>
      </trkpt>
      <trkpt lat="44.34587" lon="5.6261">
        <ele>1032</ele>
        <time>2021-09-07T18:30:16Z</time>
      </trkpt>
      <trkpt lat="44.34587" lon="5.6261">
        <ele>1032</ele>
        <time>2021-09-07T18:30:17Z</time>
      </trkpt>
      <trkpt lat="44.34587" lon="5.6261">
        <ele>1032</ele>
        <time>2021-09-07T18:30:18Z</time>
      </trkpt>
      <trkpt lat="44.34587" lon="5.6261">
        <ele>1032</ele>
        <time>2021-09-07T18:30:19Z</time>
      </trkpt>
      <trkpt lat="44.34587" lon="5.6261">
        <ele>1032</ele>
        <time>2021-09-07T18:30:20Z</time>
      </trkpt>
      <trkpt lat="44.34587" lon="5.6261">
        <ele>1032</ele>
        <time>2021-09-07T18:30:21Z</time>
      </trkpt>
      <trkpt lat="44.34587" lon="5.62611">
        <ele>1032.2</ele>
        <time>2021-09-07T18:30:22Z</time>
      </trkpt>
      <trkpt lat="44.34586" lon="5.62611">
        <ele>1032.3</ele>
        <time>2021-09-07T18:30:23Z</time>
      </trkpt>
      <trkpt lat="44.34585" lon="5.62612">
        <ele>1032.4</ele>
        <time>2021-09-07T18:30:24Z</time>
      </trkpt>
      <trkpt lat="44.34584" lon="5.62612">
        <ele>1032.6</ele>
        <time>2021-09-07T18:30:25Z</time>
      </trkpt>
      <trkpt lat="44.34584" lon="5.62613">
        <ele>1032.8</ele>
        <time>2021-09-07T18:30:26Z</time>
      </trkpt>
      <trkpt lat="44.34584" lon="5.62614">
        <ele>1032.9</ele>
        <time>2021-09-07T18:30:27Z</time>
      </trkpt>
      <trkpt lat="44.34583" lon="5.62614">
        <ele>1033</ele>
        <time>2021-09-07T18:30:28Z</time>
      </trkpt>
      <trkpt lat="44.34582" lon="5.62615">
        <ele>1033.2</ele>
        <time>2021-09-07T18:30:29Z</time>
      </trkpt>
      <trkpt lat="44.34582" lon="5.62616">
        <ele>1033.3</ele>
        <time>2021-09-07T18:30:30Z</time>
      </trkpt>
      <trkpt lat="44.34581" lon="5.62616">
        <ele>1033.4</ele>
        <time>2021-09-07T18:30:31Z</time>
      </trkpt>
      <trkpt lat="44.3458" lon="5.62616">
        <ele>1033.6</ele>
        <time>2021-09-07T18:30:32Z</time>
      </trkpt>
      <trkpt lat="44.3458" lon="5.62617">
        <ele>1033.8</ele>
        <time>2021-09-07T18:30:33Z</time>
      </trkpt>
      <trkpt lat="44.3458" lon="5.62617">
        <ele>1033.8</ele>
        <time>2021-09-07T18:30:34Z</time>
      </trkpt>
      <trkpt lat="44.3458" lon="5.62617">
        <ele>1033.8</ele>
        <time>2021-09-07T18:30:35Z</time>
      </trkpt>
      <trkpt lat="44.34579" lon="5.62617">
        <ele>1034</ele>
        <time>2021-09-07T18:30:36Z</time>
      </trkpt>
      <trkpt lat="44.34579" lon="5.62618">
        <ele>1034.1</ele>
        <time>2021-09-07T18:30:37Z</time>
      </trkpt>
      <trkpt lat="44.34579" lon="5.62618">
        <ele>1034.1</ele>
        <time>2021-09-07T18:30:38Z</time>
      </trkpt>
      <trkpt lat="44.34579" lon="5.62618">
        <ele>1034.1</ele>
        <time>2021-09-07T18:30:39Z</time>
      </trkpt>
      <trkpt lat="44.34579" lon="5.62618">
        <ele>1034.1</ele>
        <time>2021-09-07T18:30:40Z</time>
      </trkpt>
      <trkpt lat="44.34579" lon="5.62618">
        <ele>1034.1</ele>
        <time>2021-09-07T18:30:41Z</time>
      </trkpt>
      <trkpt lat="44.34578" lon="5.62618">
        <ele>1034.3</ele>
        <time>2021-09-07T18:30:42Z</time>
      </trkpt>
      <trkpt lat="44.34578" lon="5.62618">
        <ele>1034.3</ele>
        <time>2021-09-07T18:30:43Z</time>
      </trkpt>
      <trkpt lat="44.34578" lon="5.62618">
        <ele>1034.3</ele>
        <time>2021-09-07T18:30:44Z</time>
      </trkpt>
      <trkpt lat="44.34578" lon="5.62621">
        <ele>1034.7</ele>
        <time>2021-09-07T18:30:45Z</time>
      </trkpt>
      <trkpt lat="44.34577" lon="5.62623">
        <ele>1035.1</ele>
        <time>2021-09-07T18:30:46Z</time>
      </trkpt>
      <trkpt lat="44.34577" lon="5.62625">
        <ele>1035.3</ele>
        <time>2021-09-07T18:30:47Z</time>
      </trkpt>
      <trkpt lat="44.34577" lon="5.62626">
        <ele>1035.5</ele>
        <time>2021-09-07T18:30:48Z</time>
      </trkpt>
      <trkpt lat="44.34577" lon="5.62628">
        <ele>1035.8</ele>
        <time>2021-09-07T18:30:49Z</time>
      </trkpt>
      <trkpt lat="44.34577" lon="5.62629">
        <ele>1036</ele>
        <time>2021-09-07T18:30:50Z</time>
      </trkpt>
      <trkpt lat="44.34576" lon="5.6263">
        <ele>1036.2</ele>
        <time>2021-09-07T18:30:51Z</time>
      </trkpt>
      <trkpt lat="44.34576" lon="5.62631">
        <ele>1036.2</ele>
        <time>2021-09-07T18:30:52Z</time>
      </trkpt>
      <trkpt lat="44.34576" lon="5.62631">
        <ele>1036.3</ele>
        <time>2021-09-07T18:30:53Z</time>
      </trkpt>
      <trkpt lat="44.34576" lon="5.62631">
        <ele>1036.3</ele>
        <time>2021-09-07T18:30:54Z</time>
      </trkpt>
      <trkpt lat="44.34576" lon="5.62632">
        <ele>1036.4</ele>
        <time>2021-09-07T18:30:55Z</time>
      </trkpt>
      <trkpt lat="44.34576" lon="5.62632">
        <ele>1036.4</ele>
        <time>2021-09-07T18:30:56Z</time>
      </trkpt>
      <trkpt lat="44.34576" lon="5.62632">
        <ele>1036.5</ele>
        <time>2021-09-07T18:30:57Z</time>
      </trkpt>
      <trkpt lat="44.34575" lon="5.62632">
        <ele>1036.6</ele>
        <time>2021-09-07T18:30:58Z</time>
      </trkpt>
      <trkpt lat="44.34575" lon="5.62633">
        <ele>1036.7</ele>
        <time>2021-09-07T18:30:59Z</time>
      </trkpt>
      <trkpt lat="44.34575" lon="5.62633">
        <ele>1036.7</ele>
        <time>2021-09-07T18:31:00Z</time>
      </trkpt>
      <trkpt lat="44.34575" lon="5.62633">
        <ele>1036.7</ele>
        <time>2021-09-07T18:31:01Z</time>
      </trkpt>
      <trkpt lat="44.34575" lon="5.62633">
        <ele>1036.7</ele>
        <time>2021-09-07T18:31:02Z</time>
      </trkpt>
      <trkpt lat="44.34575" lon="5.62633">
        <ele>1036.7</ele>
        <time>2021-09-07T18:31:03Z</time>
      </trkpt>
      <trkpt lat="44.34575" lon="5.62633">
        <ele>1036.7</ele>
        <time>2021-09-07T18:31:04Z</time>
      </trkpt>
      <trkpt lat="44.34575" lon="5.62634">
        <ele>1036.8</ele>
        <time>2021-09-07T18:31:05Z</time>
      </trkpt>
      <trkpt lat="44.34575" lon="5.62634">
        <ele>1036.9</ele>
        <time>2021-09-07T18:31:06Z</time>
      </trkpt>
      <trkpt lat="44.34575" lon="5.62634">
        <ele>1036.9</ele>
        <time>2021-09-07T18:31:07Z</time>
      </trkpt>
      <trkpt lat="44.34575" lon="5.62634">
        <ele>1036.9</ele>
        <time>2021-09-07T18:31:08Z</time>
      </trkpt>
      <trkpt lat="44.34575" lon="5.62634">
        <ele>1036.9</ele>
        <time>2021-09-07T18:31:09Z</time>
      </trkpt>
      <trkpt lat="44.34575" lon="5.62634">
        <ele>1036.9</ele>
        <time>2021-09-07T18:31:10Z</time>
      </trkpt>
      <trkpt lat="44.34575" lon="5.62634">
        <ele>1036.9</ele>
        <time>2021-09-07T18:31:11Z</time>
      </trkpt>
      <trkpt lat="44.34575" lon="5.62634">
        <ele>1036.9</ele>
        <time>2021-09-07T18:31:12Z</time>
      </trkpt>
      <trkpt lat="44.34575" lon="5.62634">
        <ele>1036.9</ele>
        <time>2021-09-07T18:31:13Z</time>
      </trkpt>
      <trkpt lat="44.34575" lon="5.62634">
        <ele>1036.9</ele>
        <time>2021-09-07T18:31:14Z</time>
      </trkpt>
      <trkpt lat="44.34575" lon="5.62634">
        <ele>1036.9</ele>
        <time>2021-09-07T18:31:15Z</time>
      </trkpt>
      <trkpt lat="44.34575" lon="5.62634">
        <ele>1036.9</ele>
        <time>2021-09-07T18:31:16Z</time>
      </trkpt>
      <trkpt lat="44.34575" lon="5.62634">
        <ele>1036.9</ele>
        <time>2021-09-07T18:31:17Z</time>
      </trkpt>
      <trkpt lat="44.34575" lon="5.62634">
        <ele>1036.9</ele>
        <time>2021-09-07T18:31:18Z</time>
      </trkpt>
      <trkpt lat="44.34575" lon="5.62634">
        <ele>1036.9</ele>
        <time>2021-09-07T18:31:19Z</time>
      </trkpt>
      <trkpt lat="44.34575" lon="5.62634">
        <ele>1036.9</ele>
        <time>2021-09-07T18:31:20Z</time>
      </trkpt>
      <trkpt lat="44.34575" lon="5.62634">
        <ele>1036.9</ele>
        <time>2021-09-07T18:31:21Z</time>
      </trkpt>
      <trkpt lat="44.34574" lon="5.62634">
        <ele>1037</ele>
        <time>2021-09-07T18:31:22Z</time>
      </trkpt>
      <trkpt lat="44.34574" lon="5.62634">
        <ele>1037</ele>
        <time>2021-09-07T18:31:23Z</time>
      </trkpt>
      <trkpt lat="44.34574" lon="5.62635">
        <ele>1037.1</ele>
        <time>2021-09-07T18:31:24Z</time>
      </trkpt>
      <trkpt lat="44.34574" lon="5.62635">
        <ele>1037.2</ele>
        <time>2021-09-07T18:31:25Z</time>
      </trkpt>
      <trkpt lat="44.34574" lon="5.62637">
        <ele>1037.4</ele>
        <time>2021-09-07T18:31:26Z</time>
      </trkpt>
      <trkpt lat="44.34573" lon="5.62639">
        <ele>1037.7</ele>
        <time>2021-09-07T18:31:27Z</time>
      </trkpt>
      <trkpt lat="44.34572" lon="5.6264">
        <ele>1037.9</ele>
        <time>2021-09-07T18:31:28Z</time>
      </trkpt>
      <trkpt lat="44.34572" lon="5.62641">
        <ele>1038.1</ele>
        <time>2021-09-07T18:31:29Z</time>
      </trkpt>
      <trkpt lat="44.34571" lon="5.62643">
        <ele>1038.2</ele>
        <time>2021-09-07T18:31:30Z</time>
      </trkpt>
      <trkpt lat="44.34571" lon="5.62644">
        <ele>1038.4</ele>
        <time>2021-09-07T18:31:31Z</time>
      </trkpt>
      <trkpt lat="44.34571" lon="5.62645">
        <ele>1038.4</ele>
        <time>2021-09-07T18:31:32Z</time>
      </trkpt>
      <trkpt lat="44.34571" lon="5.62645">
        <ele>1038.5</ele>
        <time>2021-09-07T18:31:33Z</time>
      </trkpt>
      <trkpt lat="44.3457" lon="5.62645">
        <ele>1038.7</ele>
        <time>2021-09-07T18:31:34Z</time>
      </trkpt>
      <trkpt lat="44.3457" lon="5.62646">
        <ele>1038.7</ele>
        <time>2021-09-07T18:31:35Z</time>
      </trkpt>
      <trkpt lat="44.3457" lon="5.62646">
        <ele>1038.8</ele>
        <time>2021-09-07T18:31:36Z</time>
      </trkpt>
      <trkpt lat="44.3457" lon="5.62647">
        <ele>1038.9</ele>
        <time>2021-09-07T18:31:37Z</time>
      </trkpt>
      <trkpt lat="44.3457" lon="5.62647">
        <ele>1038.9</ele>
        <time>2021-09-07T18:31:38Z</time>
      </trkpt>
      <trkpt lat="44.3457" lon="5.62647">
        <ele>1038.9</ele>
        <time>2021-09-07T18:31:39Z</time>
      </trkpt>
      <trkpt lat="44.34569" lon="5.62647">
        <ele>1039</ele>
        <time>2021-09-07T18:31:40Z</time>
      </trkpt>
      <trkpt lat="44.34569" lon="5.62648">
        <ele>1039.1</ele>
        <time>2021-09-07T18:31:41Z</time>
      </trkpt>
      <trkpt lat="44.34569" lon="5.62648">
        <ele>1039.2</ele>
        <time>2021-09-07T18:31:42Z</time>
      </trkpt>
      <trkpt lat="44.34569" lon="5.62648">
        <ele>1039.2</ele>
        <time>2021-09-07T18:31:43Z</time>
      </trkpt>
      <trkpt lat="44.34568" lon="5.62649">
        <ele>1039.3</ele>
        <time>2021-09-07T18:31:44Z</time>
      </trkpt>
      <trkpt lat="44.34567" lon="5.62649">
        <ele>1039.5</ele>
        <time>2021-09-07T18:31:45Z</time>
      </trkpt>
      <trkpt lat="44.34565" lon="5.6265">
        <ele>1039.8</ele>
        <time>2021-09-07T18:31:46Z</time>
      </trkpt>
      <trkpt lat="44.34564" lon="5.62651">
        <ele>1040</ele>
        <time>2021-09-07T18:31:47Z</time>
      </trkpt>
      <trkpt lat="44.34564" lon="5.62652">
        <ele>1040.2</ele>
        <time>2021-09-07T18:31:48Z</time>
      </trkpt>
      <trkpt lat="44.34563" lon="5.62653">
        <ele>1040.3</ele>
        <time>2021-09-07T18:31:49Z</time>
      </trkpt>
      <trkpt lat="44.34563" lon="5.62653">
        <ele>1040.3</ele>
        <time>2021-09-07T18:31:50Z</time>
      </trkpt>
      <trkpt lat="44.34562" lon="5.62654">
        <ele>1040.5</ele>
        <time>2021-09-07T18:31:51Z</time>
      </trkpt>
      <trkpt lat="44.34562" lon="5.62654">
        <ele>1040.5</ele>
        <time>2021-09-07T18:31:52Z</time>
      </trkpt>
      <trkpt lat="44.34561" lon="5.62655">
        <ele>1040.7</ele>
        <time>2021-09-07T18:31:53Z</time>
      </trkpt>
      <trkpt lat="44.34561" lon="5.62655">
        <ele>1040.8</ele>
        <time>2021-09-07T18:31:54Z</time>
      </trkpt>
      <trkpt lat="44.3456" lon="5.62655">
        <ele>1040.9</ele>
        <time>2021-09-07T18:31:55Z</time>
      </trkpt>
      <trkpt lat="44.3456" lon="5.62655">
        <ele>1040.9</ele>
        <time>2021-09-07T18:31:56Z</time>
      </trkpt>
      <trkpt lat="44.3456" lon="5.62655">
        <ele>1041</ele>
        <time>2021-09-07T18:31:57Z</time>
      </trkpt>
      <trkpt lat="44.34559" lon="5.62655">
        <ele>1041</ele>
        <time>2021-09-07T18:31:58Z</time>
      </trkpt>
      <trkpt lat="44.34559" lon="5.62655">
        <ele>1041</ele>
        <time>2021-09-07T18:31:59Z</time>
      </trkpt>
      <trkpt lat="44.34558" lon="5.62657">
        <ele>1041.3</ele>
        <time>2021-09-07T18:32:00Z</time>
      </trkpt>
      <trkpt lat="44.34558" lon="5.62658">
        <ele>1041.4</ele>
        <time>2021-09-07T18:32:01Z</time>
      </trkpt>
      <trkpt lat="44.34557" lon="5.62658">
        <ele>1041.6</ele>
        <time>2021-09-07T18:32:02Z</time>
      </trkpt>
      <trkpt lat="44.34557" lon="5.62658">
        <ele>1041.6</ele>
        <time>2021-09-07T18:32:03Z</time>
      </trkpt>
      <trkpt lat="44.34556" lon="5.62659">
        <ele>1041.8</ele>
        <time>2021-09-07T18:32:04Z</time>
      </trkpt>
      <trkpt lat="44.34556" lon="5.62659">
        <ele>1041.8</ele>
        <time>2021-09-07T18:32:05Z</time>
      </trkpt>
      <trkpt lat="44.34556" lon="5.6266">
        <ele>1041.9</ele>
        <time>2021-09-07T18:32:06Z</time>
      </trkpt>
      <trkpt lat="44.34555" lon="5.62661">
        <ele>1042.1</ele>
        <time>2021-09-07T18:32:07Z</time>
      </trkpt>
      <trkpt lat="44.34554" lon="5.62661">
        <ele>1042.2</ele>
        <time>2021-09-07T18:32:08Z</time>
      </trkpt>
      <trkpt lat="44.34554" lon="5.62662">
        <ele>1042.4</ele>
        <time>2021-09-07T18:32:09Z</time>
      </trkpt>
      <trkpt lat="44.34554" lon="5.62663">
        <ele>1042.5</ele>
        <time>2021-09-07T18:32:10Z</time>
      </trkpt>
      <trkpt lat="44.34554" lon="5.62664">
        <ele>1042.6</ele>
        <time>2021-09-07T18:32:11Z</time>
      </trkpt>
      <trkpt lat="44.34553" lon="5.62664">
        <ele>1042.7</ele>
        <time>2021-09-07T18:32:12Z</time>
      </trkpt>
      <trkpt lat="44.34553" lon="5.62664">
        <ele>1042.7</ele>
        <time>2021-09-07T18:32:13Z</time>
      </trkpt>
      <trkpt lat="44.34553" lon="5.62665">
        <ele>1042.8</ele>
        <time>2021-09-07T18:32:14Z</time>
      </trkpt>
      <trkpt lat="44.34553" lon="5.62665">
        <ele>1042.8</ele>
        <time>2021-09-07T18:32:15Z</time>
      </trkpt>
      <trkpt lat="44.34553" lon="5.62665">
        <ele>1042.8</ele>
        <time>2021-09-07T18:32:16Z</time>
      </trkpt>
      <trkpt lat="44.34553" lon="5.62666">
        <ele>1042.9</ele>
        <time>2021-09-07T18:32:17Z</time>
      </trkpt>
      <trkpt lat="44.34552" lon="5.62666">
        <ele>1043</ele>
        <time>2021-09-07T18:32:18Z</time>
      </trkpt>
      <trkpt lat="44.34552" lon="5.62666">
        <ele>1043</ele>
        <time>2021-09-07T18:32:19Z</time>
      </trkpt>
      <trkpt lat="44.34552" lon="5.62666">
        <ele>1043</ele>
        <time>2021-09-07T18:32:20Z</time>
      </trkpt>
      <trkpt lat="44.34552" lon="5.62666">
        <ele>1043</ele>
        <time>2021-09-07T18:32:21Z</time>
      </trkpt>
      <trkpt lat="44.34552" lon="5.62666">
        <ele>1043</ele>
        <time>2021-09-07T18:32:22Z</time>
      </trkpt>
      <trkpt lat="44.34552" lon="5.62666">
        <ele>1043</ele>
        <time>2021-09-07T18:32:23Z</time>
      </trkpt>
      <trkpt lat="44.34552" lon="5.62666">
        <ele>1043</ele>
        <time>2021-09-07T18:32:24Z</time>
      </trkpt>
      <trkpt lat="44.34552" lon="5.62667">
        <ele>1043.1</ele>
        <time>2021-09-07T18:32:25Z</time>
      </trkpt>
      <trkpt lat="44.34551" lon="5.62667">
        <ele>1043.2</ele>
        <time>2021-09-07T18:32:26Z</time>
      </trkpt>
      <trkpt lat="44.3455" lon="5.62668">
        <ele>1043.4</ele>
        <time>2021-09-07T18:32:27Z</time>
      </trkpt>
      <trkpt lat="44.34549" lon="5.62668">
        <ele>1043.6</ele>
        <time>2021-09-07T18:32:28Z</time>
      </trkpt>
      <trkpt lat="44.34547" lon="5.62669">
        <ele>1044</ele>
        <time>2021-09-07T18:32:29Z</time>
      </trkpt>
      <trkpt lat="44.34546" lon="5.6267">
        <ele>1044.1</ele>
        <time>2021-09-07T18:32:30Z</time>
      </trkpt>
      <trkpt lat="44.34546" lon="5.62671">
        <ele>1044.2</ele>
        <time>2021-09-07T18:32:31Z</time>
      </trkpt>
      <trkpt lat="44.34545" lon="5.62671">
        <ele>1044.3</ele>
        <time>2021-09-07T18:32:32Z</time>
      </trkpt>
      <trkpt lat="44.34544" lon="5.62671">
        <ele>1044.5</ele>
        <time>2021-09-07T18:32:33Z</time>
      </trkpt>
      <trkpt lat="44.34544" lon="5.62671">
        <ele>1044.5</ele>
        <time>2021-09-07T18:32:34Z</time>
      </trkpt>
      <trkpt lat="44.34545" lon="5.62671">
        <ele>1044.6</ele>
        <time>2021-09-07T18:32:35Z</time>
      </trkpt>
      <trkpt lat="44.34545" lon="5.62671">
        <ele>1044.6</ele>
        <time>2021-09-07T18:32:36Z</time>
      </trkpt>
      <trkpt lat="44.34545" lon="5.62671">
        <ele>1044.6</ele>
        <time>2021-09-07T18:32:37Z</time>
      </trkpt>
      <trkpt lat="44.34545" lon="5.62671">
        <ele>1044.6</ele>
        <time>2021-09-07T18:32:38Z</time>
      </trkpt>
      <trkpt lat="44.34545" lon="5.62672">
        <ele>1044.7</ele>
        <time>2021-09-07T18:32:39Z</time>
      </trkpt>
      <trkpt lat="44.34545" lon="5.62672">
        <ele>1044.7</ele>
        <time>2021-09-07T18:32:40Z</time>
      </trkpt>
      <trkpt lat="44.34545" lon="5.62672">
        <ele>1044.7</ele>
        <time>2021-09-07T18:32:41Z</time>
      </trkpt>
      <trkpt lat="44.34545" lon="5.62672">
        <ele>1044.7</ele>
        <time>2021-09-07T18:32:42Z</time>
      </trkpt>
      <trkpt lat="44.34545" lon="5.62672">
        <ele>1044.7</ele>
        <time>2021-09-07T18:32:43Z</time>
      </trkpt>
      <trkpt lat="44.34545" lon="5.62672">
        <ele>1044.7</ele>
        <time>2021-09-07T18:32:44Z</time>
      </trkpt>
      <trkpt lat="44.34545" lon="5.62672">
        <ele>1044.7</ele>
        <time>2021-09-07T18:32:45Z</time>
      </trkpt>
      <trkpt lat="44.34545" lon="5.62672">
        <ele>1044.7</ele>
        <time>2021-09-07T18:32:46Z</time>
      </trkpt>
      <trkpt lat="44.34545" lon="5.62672">
        <ele>1044.7</ele>
        <time>2021-09-07T18:32:47Z</time>
      </trkpt>
      <trkpt lat="44.34545" lon="5.62672">
        <ele>1044.7</ele>
        <time>2021-09-07T18:32:48Z</time>
      </trkpt>
      <trkpt lat="44.34545" lon="5.62672">
        <ele>1044.7</ele>
        <time>2021-09-07T18:32:49Z</time>
      </trkpt>
      <trkpt lat="44.34545" lon="5.62672">
        <ele>1044.7</ele>
        <time>2021-09-07T18:32:50Z</time>
      </trkpt>
      <trkpt lat="44.34545" lon="5.62672">
        <ele>1044.7</ele>
        <time>2021-09-07T18:32:51Z</time>
      </trkpt>
      <trkpt lat="44.34544" lon="5.62673">
        <ele>1044.8</ele>
        <time>2021-09-07T18:32:52Z</time>
      </trkpt>
      <trkpt lat="44.34543" lon="5.62673">
        <ele>1045</ele>
        <time>2021-09-07T18:32:53Z</time>
      </trkpt>
      <trkpt lat="44.34542" lon="5.62674">
        <ele>1045.2</ele>
        <time>2021-09-07T18:32:54Z</time>
      </trkpt>
      <trkpt lat="44.3454" lon="5.62674">
        <ele>1045.4</ele>
        <time>2021-09-07T18:32:55Z</time>
      </trkpt>
      <trkpt lat="44.34539" lon="5.62675">
        <ele>1045.5</ele>
        <time>2021-09-07T18:32:56Z</time>
      </trkpt>
      <trkpt lat="44.34538" lon="5.62675">
        <ele>1045.6</ele>
        <time>2021-09-07T18:32:57Z</time>
      </trkpt>
      <trkpt lat="44.34538" lon="5.62675">
        <ele>1045.6</ele>
        <time>2021-09-07T18:32:58Z</time>
      </trkpt>
      <trkpt lat="44.34537" lon="5.62675">
        <ele>1045.7</ele>
        <time>2021-09-07T18:32:59Z</time>
      </trkpt>
      <trkpt lat="44.34536" lon="5.62675">
        <ele>1045.8</ele>
        <time>2021-09-07T18:33:00Z</time>
      </trkpt>
      <trkpt lat="44.34536" lon="5.62675">
        <ele>1045.9</ele>
        <time>2021-09-07T18:33:01Z</time>
      </trkpt>
      <trkpt lat="44.34535" lon="5.62675">
        <ele>1045.9</ele>
        <time>2021-09-07T18:33:02Z</time>
      </trkpt>
      <trkpt lat="44.34534" lon="5.62675">
        <ele>1046</ele>
        <time>2021-09-07T18:33:03Z</time>
      </trkpt>
      <trkpt lat="44.34534" lon="5.62675">
        <ele>1046</ele>
        <time>2021-09-07T18:33:04Z</time>
      </trkpt>
      <trkpt lat="44.34534" lon="5.62675">
        <ele>1046</ele>
        <time>2021-09-07T18:33:05Z</time>
      </trkpt>
      <trkpt lat="44.34534" lon="5.62675">
        <ele>1046</ele>
        <time>2021-09-07T18:33:06Z</time>
      </trkpt>
      <trkpt lat="44.34533" lon="5.62676">
        <ele>1046.1</ele>
        <time>2021-09-07T18:33:07Z</time>
      </trkpt>
      <trkpt lat="44.34533" lon="5.62676">
        <ele>1046.1</ele>
        <time>2021-09-07T18:33:08Z</time>
      </trkpt>
      <trkpt lat="44.34533" lon="5.62676">
        <ele>1046.1</ele>
        <time>2021-09-07T18:33:09Z</time>
      </trkpt>
      <trkpt lat="44.34533" lon="5.62676">
        <ele>1046.1</ele>
        <time>2021-09-07T18:33:10Z</time>
      </trkpt>
      <trkpt lat="44.34533" lon="5.62676">
        <ele>1046.1</ele>
        <time>2021-09-07T18:33:11Z</time>
      </trkpt>
      <trkpt lat="44.34533" lon="5.62676">
        <ele>1046.1</ele>
        <time>2021-09-07T18:33:12Z</time>
      </trkpt>
      <trkpt lat="44.34533" lon="5.62676">
        <ele>1046.1</ele>
        <time>2021-09-07T18:33:13Z</time>
      </trkpt>
      <trkpt lat="44.34533" lon="5.62676">
        <ele>1046.1</ele>
        <time>2021-09-07T18:33:14Z</time>
      </trkpt>
      <trkpt lat="44.34533" lon="5.62676">
        <ele>1046.1</ele>
        <time>2021-09-07T18:33:15Z</time>
      </trkpt>
      <trkpt lat="44.34533" lon="5.62676">
        <ele>1046.1</ele>
        <time>2021-09-07T18:33:16Z</time>
      </trkpt>
      <trkpt lat="44.34533" lon="5.62676">
        <ele>1046.1</ele>
        <time>2021-09-07T18:33:17Z</time>
      </trkpt>
      <trkpt lat="44.34533" lon="5.62677">
        <ele>1046.2</ele>
        <time>2021-09-07T18:33:18Z</time>
      </trkpt>
      <trkpt lat="44.34532" lon="5.62677">
        <ele>1046.2</ele>
        <time>2021-09-07T18:33:19Z</time>
      </trkpt>
      <trkpt lat="44.34531" lon="5.62677">
        <ele>1046.3</ele>
        <time>2021-09-07T18:33:20Z</time>
      </trkpt>
      <trkpt lat="44.34529" lon="5.6268">
        <ele>1046.5</ele>
        <time>2021-09-07T18:33:21Z</time>
      </trkpt>
      <trkpt lat="44.34529" lon="5.62681">
        <ele>1046.6</ele>
        <time>2021-09-07T18:33:22Z</time>
      </trkpt>
      <trkpt lat="44.34528" lon="5.62681">
        <ele>1046.6</ele>
        <time>2021-09-07T18:33:23Z</time>
      </trkpt>
      <trkpt lat="44.34527" lon="5.62682">
        <ele>1046.7</ele>
        <time>2021-09-07T18:33:24Z</time>
      </trkpt>
      <trkpt lat="44.34527" lon="5.62683">
        <ele>1046.8</ele>
        <time>2021-09-07T18:33:25Z</time>
      </trkpt>
      <trkpt lat="44.34526" lon="5.62683">
        <ele>1046.8</ele>
        <time>2021-09-07T18:33:26Z</time>
      </trkpt>
      <trkpt lat="44.34525" lon="5.62684">
        <ele>1046.9</ele>
        <time>2021-09-07T18:33:27Z</time>
      </trkpt>
      <trkpt lat="44.34525" lon="5.62684">
        <ele>1046.9</ele>
        <time>2021-09-07T18:33:28Z</time>
      </trkpt>
      <trkpt lat="44.34525" lon="5.62684">
        <ele>1046.9</ele>
        <time>2021-09-07T18:33:29Z</time>
      </trkpt>
      <trkpt lat="44.34525" lon="5.62684">
        <ele>1046.9</ele>
        <time>2021-09-07T18:33:30Z</time>
      </trkpt>
      <trkpt lat="44.34524" lon="5.62684">
        <ele>1047</ele>
        <time>2021-09-07T18:33:31Z</time>
      </trkpt>
      <trkpt lat="44.34524" lon="5.62685">
        <ele>1047.1</ele>
        <time>2021-09-07T18:33:32Z</time>
      </trkpt>
      <trkpt lat="44.34524" lon="5.62686">
        <ele>1047.1</ele>
        <time>2021-09-07T18:33:33Z</time>
      </trkpt>
      <trkpt lat="44.34523" lon="5.62686">
        <ele>1047.2</ele>
        <time>2021-09-07T18:33:34Z</time>
      </trkpt>
      <trkpt lat="44.34523" lon="5.62687">
        <ele>1047.2</ele>
        <time>2021-09-07T18:33:35Z</time>
      </trkpt>
      <trkpt lat="44.34521" lon="5.6269">
        <ele>1047.5</ele>
        <time>2021-09-07T18:33:36Z</time>
      </trkpt>
      <trkpt lat="44.3452" lon="5.62693">
        <ele>1047.7</ele>
        <time>2021-09-07T18:33:37Z</time>
      </trkpt>
      <trkpt lat="44.3452" lon="5.62694">
        <ele>1047.7</ele>
        <time>2021-09-07T18:33:38Z</time>
      </trkpt>
      <trkpt lat="44.34519" lon="5.62695">
        <ele>1047.8</ele>
        <time>2021-09-07T18:33:39Z</time>
      </trkpt>
      <trkpt lat="44.34518" lon="5.62696">
        <ele>1047.9</ele>
        <time>2021-09-07T18:33:40Z</time>
      </trkpt>
      <trkpt lat="44.34518" lon="5.62697">
        <ele>1048</ele>
        <time>2021-09-07T18:33:41Z</time>
      </trkpt>
      <trkpt lat="44.34517" lon="5.62698">
        <ele>1048</ele>
        <time>2021-09-07T18:33:42Z</time>
      </trkpt>
      <trkpt lat="44.34516" lon="5.62701">
        <ele>1048.2</ele>
        <time>2021-09-07T18:33:43Z</time>
      </trkpt>
      <trkpt lat="44.34515" lon="5.62702">
        <ele>1048.3</ele>
        <time>2021-09-07T18:33:44Z</time>
      </trkpt>
      <trkpt lat="44.34515" lon="5.62703">
        <ele>1048.4</ele>
        <time>2021-09-07T18:33:45Z</time>
      </trkpt>
      <trkpt lat="44.34515" lon="5.62704">
        <ele>1048.5</ele>
        <time>2021-09-07T18:33:46Z</time>
      </trkpt>
      <trkpt lat="44.34514" lon="5.62707">
        <ele>1048.6</ele>
        <time>2021-09-07T18:33:47Z</time>
      </trkpt>
      <trkpt lat="44.34513" lon="5.62709">
        <ele>1048.8</ele>
        <time>2021-09-07T18:33:48Z</time>
      </trkpt>
      <trkpt lat="44.34513" lon="5.6271">
        <ele>1048.8</ele>
        <time>2021-09-07T18:33:49Z</time>
      </trkpt>
      <trkpt lat="44.34513" lon="5.62711">
        <ele>1048.9</ele>
        <time>2021-09-07T18:33:50Z</time>
      </trkpt>
      <trkpt lat="44.34513" lon="5.62712">
        <ele>1048.9</ele>
        <time>2021-09-07T18:33:51Z</time>
      </trkpt>
      <trkpt lat="44.34513" lon="5.62712">
        <ele>1048.9</ele>
        <time>2021-09-07T18:33:52Z</time>
      </trkpt>
      <trkpt lat="44.34513" lon="5.62713">
        <ele>1049</ele>
        <time>2021-09-07T18:33:53Z</time>
      </trkpt>
      <trkpt lat="44.34513" lon="5.62714">
        <ele>1049</ele>
        <time>2021-09-07T18:33:54Z</time>
      </trkpt>
      <trkpt lat="44.34513" lon="5.62714">
        <ele>1049</ele>
        <time>2021-09-07T18:33:55Z</time>
      </trkpt>
      <trkpt lat="44.34513" lon="5.62714">
        <ele>1049</ele>
        <time>2021-09-07T18:33:56Z</time>
      </trkpt>
      <trkpt lat="44.34513" lon="5.62714">
        <ele>1049</ele>
        <time>2021-09-07T18:33:57Z</time>
      </trkpt>
      <trkpt lat="44.34513" lon="5.62715">
        <ele>1049.1</ele>
        <time>2021-09-07T18:33:58Z</time>
      </trkpt>
      <trkpt lat="44.34513" lon="5.62715">
        <ele>1049.1</ele>
        <time>2021-09-07T18:33:59Z</time>
      </trkpt>
      <trkpt lat="44.34513" lon="5.62715">
        <ele>1049.1</ele>
        <time>2021-09-07T18:34:00Z</time>
      </trkpt>
      <trkpt lat="44.34513" lon="5.62715">
        <ele>1049.1</ele>
        <time>2021-09-07T18:34:01Z</time>
      </trkpt>
      <trkpt lat="44.34513" lon="5.62715">
        <ele>1049.1</ele>
        <time>2021-09-07T18:34:02Z</time>
      </trkpt>
      <trkpt lat="44.34513" lon="5.62715">
        <ele>1049.1</ele>
        <time>2021-09-07T18:34:03Z</time>
      </trkpt>
      <trkpt lat="44.34513" lon="5.62716">
        <ele>1049.1</ele>
        <time>2021-09-07T18:34:04Z</time>
      </trkpt>
      <trkpt lat="44.34512" lon="5.62719">
        <ele>1049.3</ele>
        <time>2021-09-07T18:34:05Z</time>
      </trkpt>
      <trkpt lat="44.34511" lon="5.62722">
        <ele>1049.4</ele>
        <time>2021-09-07T18:34:06Z</time>
      </trkpt>
      <trkpt lat="44.3451" lon="5.62723">
        <ele>1049.5</ele>
        <time>2021-09-07T18:34:07Z</time>
      </trkpt>
      <trkpt lat="44.3451" lon="5.62724">
        <ele>1049.5</ele>
        <time>2021-09-07T18:34:08Z</time>
      </trkpt>
      <trkpt lat="44.3451" lon="5.62725">
        <ele>1049.5</ele>
        <time>2021-09-07T18:34:09Z</time>
      </trkpt>
      <trkpt lat="44.34509" lon="5.62727">
        <ele>1049.6</ele>
        <time>2021-09-07T18:34:10Z</time>
      </trkpt>
      <trkpt lat="44.34509" lon="5.62728">
        <ele>1049.7</ele>
        <time>2021-09-07T18:34:11Z</time>
      </trkpt>
      <trkpt lat="44.34509" lon="5.62728">
        <ele>1049.7</ele>
        <time>2021-09-07T18:34:12Z</time>
      </trkpt>
      <trkpt lat="44.34509" lon="5.62729">
        <ele>1049.7</ele>
        <time>2021-09-07T18:34:13Z</time>
      </trkpt>
      <trkpt lat="44.34509" lon="5.62729">
        <ele>1049.7</ele>
        <time>2021-09-07T18:34:14Z</time>
      </trkpt>
      <trkpt lat="44.34509" lon="5.6273">
        <ele>1049.7</ele>
        <time>2021-09-07T18:34:15Z</time>
      </trkpt>
      <trkpt lat="44.34509" lon="5.6273">
        <ele>1049.7</ele>
        <time>2021-09-07T18:34:16Z</time>
      </trkpt>
      <trkpt lat="44.34509" lon="5.6273">
        <ele>1049.7</ele>
        <time>2021-09-07T18:34:17Z</time>
      </trkpt>
      <trkpt lat="44.34509" lon="5.6273">
        <ele>1049.7</ele>
        <time>2021-09-07T18:34:18Z</time>
      </trkpt>
      <trkpt lat="44.34508" lon="5.62733">
        <ele>1049.8</ele>
        <time>2021-09-07T18:34:19Z</time>
      </trkpt>
      <trkpt lat="44.34508" lon="5.62734">
        <ele>1049.9</ele>
        <time>2021-09-07T18:34:20Z</time>
      </trkpt>
      <trkpt lat="44.34507" lon="5.62735">
        <ele>1049.9</ele>
        <time>2021-09-07T18:34:21Z</time>
      </trkpt>
      <trkpt lat="44.34506" lon="5.62738">
        <ele>1050</ele>
        <time>2021-09-07T18:34:22Z</time>
      </trkpt>
      <trkpt lat="44.34505" lon="5.62739">
        <ele>1050.1</ele>
        <time>2021-09-07T18:34:23Z</time>
      </trkpt>
      <trkpt lat="44.34505" lon="5.6274">
        <ele>1050.1</ele>
        <time>2021-09-07T18:34:24Z</time>
      </trkpt>
      <trkpt lat="44.34505" lon="5.6274">
        <ele>1050.1</ele>
        <time>2021-09-07T18:34:25Z</time>
      </trkpt>
      <trkpt lat="44.34504" lon="5.62741">
        <ele>1050.2</ele>
        <time>2021-09-07T18:34:26Z</time>
      </trkpt>
      <trkpt lat="44.34504" lon="5.62742">
        <ele>1050.2</ele>
        <time>2021-09-07T18:34:27Z</time>
      </trkpt>
      <trkpt lat="44.34503" lon="5.62742">
        <ele>1050.3</ele>
        <time>2021-09-07T18:34:28Z</time>
      </trkpt>
      <trkpt lat="44.34503" lon="5.62743">
        <ele>1050.3</ele>
        <time>2021-09-07T18:34:29Z</time>
      </trkpt>
      <trkpt lat="44.34502" lon="5.62744">
        <ele>1050.3</ele>
        <time>2021-09-07T18:34:30Z</time>
      </trkpt>
      <trkpt lat="44.34501" lon="5.62745">
        <ele>1050.4</ele>
        <time>2021-09-07T18:34:31Z</time>
      </trkpt>
      <trkpt lat="44.34499" lon="5.62747">
        <ele>1050.5</ele>
        <time>2021-09-07T18:34:32Z</time>
      </trkpt>
      <trkpt lat="44.34498" lon="5.62748">
        <ele>1050.5</ele>
        <time>2021-09-07T18:34:33Z</time>
      </trkpt>
      <trkpt lat="44.34497" lon="5.62748">
        <ele>1050.6</ele>
        <time>2021-09-07T18:34:34Z</time>
      </trkpt>
      <trkpt lat="44.34497" lon="5.6275">
        <ele>1050.6</ele>
        <time>2021-09-07T18:34:35Z</time>
      </trkpt>
      <trkpt lat="44.34496" lon="5.62751">
        <ele>1050.7</ele>
        <time>2021-09-07T18:34:36Z</time>
      </trkpt>
      <trkpt lat="44.34495" lon="5.62753">
        <ele>1050.8</ele>
        <time>2021-09-07T18:34:37Z</time>
      </trkpt>
      <trkpt lat="44.34494" lon="5.62754">
        <ele>1050.8</ele>
        <time>2021-09-07T18:34:38Z</time>
      </trkpt>
      <trkpt lat="44.34493" lon="5.62756">
        <ele>1050.9</ele>
        <time>2021-09-07T18:34:39Z</time>
      </trkpt>
      <trkpt lat="44.34491" lon="5.62758">
        <ele>1051</ele>
        <time>2021-09-07T18:34:40Z</time>
      </trkpt>
      <trkpt lat="44.34489" lon="5.6276">
        <ele>1051.1</ele>
        <time>2021-09-07T18:34:41Z</time>
      </trkpt>
      <trkpt lat="44.34488" lon="5.62761">
        <ele>1051.2</ele>
        <time>2021-09-07T18:34:42Z</time>
      </trkpt>
      <trkpt lat="44.34487" lon="5.62763">
        <ele>1051.3</ele>
        <time>2021-09-07T18:34:43Z</time>
      </trkpt>
      <trkpt lat="44.34486" lon="5.62766">
        <ele>1051.4</ele>
        <time>2021-09-07T18:34:44Z</time>
      </trkpt>
      <trkpt lat="44.34485" lon="5.62767">
        <ele>1051.5</ele>
        <time>2021-09-07T18:34:45Z</time>
      </trkpt>
      <trkpt lat="44.34484" lon="5.62769">
        <ele>1051.6</ele>
        <time>2021-09-07T18:34:46Z</time>
      </trkpt>
      <trkpt lat="44.34484" lon="5.6277">
        <ele>1051.6</ele>
        <time>2021-09-07T18:34:47Z</time>
      </trkpt>
      <trkpt lat="44.34483" lon="5.62771">
        <ele>1051.7</ele>
        <time>2021-09-07T18:34:48Z</time>
      </trkpt>
      <trkpt lat="44.34482" lon="5.62773">
        <ele>1051.8</ele>
        <time>2021-09-07T18:34:49Z</time>
      </trkpt>
      <trkpt lat="44.3448" lon="5.62775">
        <ele>1051.9</ele>
        <time>2021-09-07T18:34:50Z</time>
      </trkpt>
      <trkpt lat="44.34479" lon="5.62776">
        <ele>1052</ele>
        <time>2021-09-07T18:34:51Z</time>
      </trkpt>
      <trkpt lat="44.34478" lon="5.62777">
        <ele>1052.1</ele>
        <time>2021-09-07T18:34:52Z</time>
      </trkpt>
      <trkpt lat="44.34477" lon="5.62778">
        <ele>1052.2</ele>
        <time>2021-09-07T18:34:53Z</time>
      </trkpt>
      <trkpt lat="44.34476" lon="5.62779">
        <ele>1052.3</ele>
        <time>2021-09-07T18:34:54Z</time>
      </trkpt>
      <trkpt lat="44.34474" lon="5.6278">
        <ele>1052.4</ele>
        <time>2021-09-07T18:34:55Z</time>
      </trkpt>
      <trkpt lat="44.34473" lon="5.62781">
        <ele>1052.5</ele>
        <time>2021-09-07T18:34:56Z</time>
      </trkpt>
      <trkpt lat="44.34472" lon="5.62782">
        <ele>1052.6</ele>
        <time>2021-09-07T18:34:57Z</time>
      </trkpt>
      <trkpt lat="44.34471" lon="5.62783">
        <ele>1052.7</ele>
        <time>2021-09-07T18:34:58Z</time>
      </trkpt>
      <trkpt lat="44.3447" lon="5.62784">
        <ele>1052.8</ele>
        <time>2021-09-07T18:34:59Z</time>
      </trkpt>
      <trkpt lat="44.34469" lon="5.62785">
        <ele>1053</ele>
        <time>2021-09-07T18:35:00Z</time>
      </trkpt>
      <trkpt lat="44.34469" lon="5.62785">
        <ele>1053</ele>
        <time>2021-09-07T18:35:01Z</time>
      </trkpt>
      <trkpt lat="44.34469" lon="5.62786">
        <ele>1053</ele>
        <time>2021-09-07T18:35:02Z</time>
      </trkpt>
      <trkpt lat="44.34469" lon="5.62786">
        <ele>1053</ele>
        <time>2021-09-07T18:35:03Z</time>
      </trkpt>
      <trkpt lat="44.34469" lon="5.62786">
        <ele>1053</ele>
        <time>2021-09-07T18:35:04Z</time>
      </trkpt>
      <trkpt lat="44.34469" lon="5.62786">
        <ele>1053</ele>
        <time>2021-09-07T18:35:05Z</time>
      </trkpt>
      <trkpt lat="44.34469" lon="5.62786">
        <ele>1053</ele>
        <time>2021-09-07T18:35:06Z</time>
      </trkpt>
      <trkpt lat="44.34469" lon="5.62786">
        <ele>1053</ele>
        <time>2021-09-07T18:35:07Z</time>
      </trkpt>
      <trkpt lat="44.34469" lon="5.62786">
        <ele>1053</ele>
        <time>2021-09-07T18:35:08Z</time>
      </trkpt>
      <trkpt lat="44.34469" lon="5.62786">
        <ele>1053</ele>
        <time>2021-09-07T18:35:09Z</time>
      </trkpt>
      <trkpt lat="44.34469" lon="5.62786">
        <ele>1053</ele>
        <time>2021-09-07T18:35:10Z</time>
      </trkpt>
      <trkpt lat="44.34469" lon="5.62786">
        <ele>1053</ele>
        <time>2021-09-07T18:35:11Z</time>
      </trkpt>
      <trkpt lat="44.34469" lon="5.62786">
        <ele>1053</ele>
        <time>2021-09-07T18:35:12Z</time>
      </trkpt>
      <trkpt lat="44.34468" lon="5.62788">
        <ele>1053.2</ele>
        <time>2021-09-07T18:35:13Z</time>
      </trkpt>
      <trkpt lat="44.34466" lon="5.6279">
        <ele>1053.5</ele>
        <time>2021-09-07T18:35:14Z</time>
      </trkpt>
      <trkpt lat="44.34465" lon="5.62792">
        <ele>1053.7</ele>
        <time>2021-09-07T18:35:15Z</time>
      </trkpt>
      <trkpt lat="44.34465" lon="5.62793">
        <ele>1053.8</ele>
        <time>2021-09-07T18:35:16Z</time>
      </trkpt>
      <trkpt lat="44.34464" lon="5.62794">
        <ele>1053.9</ele>
        <time>2021-09-07T18:35:17Z</time>
      </trkpt>
      <trkpt lat="44.34464" lon="5.62795">
        <ele>1054</ele>
        <time>2021-09-07T18:35:18Z</time>
      </trkpt>
      <trkpt lat="44.34463" lon="5.62796">
        <ele>1054.1</ele>
        <time>2021-09-07T18:35:19Z</time>
      </trkpt>
      <trkpt lat="44.34463" lon="5.62797">
        <ele>1054.2</ele>
        <time>2021-09-07T18:35:20Z</time>
      </trkpt>
      <trkpt lat="44.34463" lon="5.62798">
        <ele>1054.3</ele>
        <time>2021-09-07T18:35:21Z</time>
      </trkpt>
      <trkpt lat="44.34463" lon="5.62798">
        <ele>1054.3</ele>
        <time>2021-09-07T18:35:22Z</time>
      </trkpt>
      <trkpt lat="44.34463" lon="5.62798">
        <ele>1054.3</ele>
        <time>2021-09-07T18:35:23Z</time>
      </trkpt>
      <trkpt lat="44.34461" lon="5.62799">
        <ele>1054.5</ele>
        <time>2021-09-07T18:35:24Z</time>
      </trkpt>
      <trkpt lat="44.3446" lon="5.628">
        <ele>1054.6</ele>
        <time>2021-09-07T18:35:25Z</time>
      </trkpt>
      <trkpt lat="44.34457" lon="5.62801">
        <ele>1054.9</ele>
        <time>2021-09-07T18:35:26Z</time>
      </trkpt>
      <trkpt lat="44.34456" lon="5.62801">
        <ele>1055</ele>
        <time>2021-09-07T18:35:27Z</time>
      </trkpt>
      <trkpt lat="44.34454" lon="5.62801">
        <ele>1055.1</ele>
        <time>2021-09-07T18:35:28Z</time>
      </trkpt>
      <trkpt lat="44.34452" lon="5.62802">
        <ele>1055.3</ele>
        <time>2021-09-07T18:35:29Z</time>
      </trkpt>
      <trkpt lat="44.34451" lon="5.62803">
        <ele>1055.4</ele>
        <time>2021-09-07T18:35:30Z</time>
      </trkpt>
      <trkpt lat="44.3445" lon="5.62803">
        <ele>1055.4</ele>
        <time>2021-09-07T18:35:31Z</time>
      </trkpt>
      <trkpt lat="44.34449" lon="5.62804">
        <ele>1055.5</ele>
        <time>2021-09-07T18:35:32Z</time>
      </trkpt>
      <trkpt lat="44.34448" lon="5.62804">
        <ele>1055.6</ele>
        <time>2021-09-07T18:35:33Z</time>
      </trkpt>
      <trkpt lat="44.34447" lon="5.62804">
        <ele>1055.6</ele>
        <time>2021-09-07T18:35:34Z</time>
      </trkpt>
      <trkpt lat="44.34445" lon="5.62804">
        <ele>1055.7</ele>
        <time>2021-09-07T18:35:35Z</time>
      </trkpt>
      <trkpt lat="44.34445" lon="5.62805">
        <ele>1055.7</ele>
        <time>2021-09-07T18:35:36Z</time>
      </trkpt>
      <trkpt lat="44.34445" lon="5.62805">
        <ele>1055.7</ele>
        <time>2021-09-07T18:35:37Z</time>
      </trkpt>
      <trkpt lat="44.34444" lon="5.62805">
        <ele>1055.8</ele>
        <time>2021-09-07T18:35:38Z</time>
      </trkpt>
      <trkpt lat="44.34444" lon="5.62805">
        <ele>1055.8</ele>
        <time>2021-09-07T18:35:39Z</time>
      </trkpt>
      <trkpt lat="44.34444" lon="5.62805">
        <ele>1055.8</ele>
        <time>2021-09-07T18:35:40Z</time>
      </trkpt>
      <trkpt lat="44.34443" lon="5.62805">
        <ele>1055.8</ele>
        <time>2021-09-07T18:35:41Z</time>
      </trkpt>
      <trkpt lat="44.34443" lon="5.62805">
        <ele>1055.8</ele>
        <time>2021-09-07T18:35:42Z</time>
      </trkpt>
      <trkpt lat="44.34443" lon="5.62805">
        <ele>1055.8</ele>
        <time>2021-09-07T18:35:43Z</time>
      </trkpt>
      <trkpt lat="44.34443" lon="5.62806">
        <ele>1055.8</ele>
        <time>2021-09-07T18:35:44Z</time>
      </trkpt>
      <trkpt lat="44.34443" lon="5.62806">
        <ele>1055.8</ele>
        <time>2021-09-07T18:35:45Z</time>
      </trkpt>
      <trkpt lat="44.34442" lon="5.62806">
        <ele>1055.9</ele>
        <time>2021-09-07T18:35:46Z</time>
      </trkpt>
      <trkpt lat="44.34441" lon="5.62807">
        <ele>1055.9</ele>
        <time>2021-09-07T18:35:47Z</time>
      </trkpt>
      <trkpt lat="44.3444" lon="5.62808">
        <ele>1055.9</ele>
        <time>2021-09-07T18:35:48Z</time>
      </trkpt>
      <trkpt lat="44.34439" lon="5.62809">
        <ele>1056</ele>
        <time>2021-09-07T18:35:49Z</time>
      </trkpt>
      <trkpt lat="44.34439" lon="5.62811">
        <ele>1056</ele>
        <time>2021-09-07T18:35:50Z</time>
      </trkpt>
      <trkpt lat="44.34438" lon="5.62813">
        <ele>1056.1</ele>
        <time>2021-09-07T18:35:51Z</time>
      </trkpt>
      <trkpt lat="44.34437" lon="5.62815">
        <ele>1056.1</ele>
        <time>2021-09-07T18:35:52Z</time>
      </trkpt>
      <trkpt lat="44.34434" lon="5.62818">
        <ele>1056.2</ele>
        <time>2021-09-07T18:35:53Z</time>
      </trkpt>
      <trkpt lat="44.34432" lon="5.62822">
        <ele>1056.3</ele>
        <time>2021-09-07T18:35:54Z</time>
      </trkpt>
      <trkpt lat="44.3443" lon="5.62825">
        <ele>1056.4</ele>
        <time>2021-09-07T18:35:55Z</time>
      </trkpt>
      <trkpt lat="44.34429" lon="5.62827">
        <ele>1056.4</ele>
        <time>2021-09-07T18:35:56Z</time>
      </trkpt>
      <trkpt lat="44.34428" lon="5.62828">
        <ele>1056.4</ele>
        <time>2021-09-07T18:35:57Z</time>
      </trkpt>
      <trkpt lat="44.34427" lon="5.6283">
        <ele>1056.5</ele>
        <time>2021-09-07T18:35:58Z</time>
      </trkpt>
      <trkpt lat="44.34426" lon="5.62832">
        <ele>1056.5</ele>
        <time>2021-09-07T18:35:59Z</time>
      </trkpt>
      <trkpt lat="44.34425" lon="5.62834">
        <ele>1056.5</ele>
        <time>2021-09-07T18:36:00Z</time>
      </trkpt>
      <trkpt lat="44.34424" lon="5.62836">
        <ele>1056.6</ele>
        <time>2021-09-07T18:36:01Z</time>
      </trkpt>
      <trkpt lat="44.34423" lon="5.62837">
        <ele>1056.6</ele>
        <time>2021-09-07T18:36:02Z</time>
      </trkpt>
      <trkpt lat="44.34422" lon="5.62839">
        <ele>1056.6</ele>
        <time>2021-09-07T18:36:03Z</time>
      </trkpt>
      <trkpt lat="44.34421" lon="5.62841">
        <ele>1056.7</ele>
        <time>2021-09-07T18:36:04Z</time>
      </trkpt>
      <trkpt lat="44.3442" lon="5.62843">
        <ele>1056.7</ele>
        <time>2021-09-07T18:36:05Z</time>
      </trkpt>
      <trkpt lat="44.34419" lon="5.62845">
        <ele>1056.8</ele>
        <time>2021-09-07T18:36:06Z</time>
      </trkpt>
      <trkpt lat="44.34418" lon="5.62846">
        <ele>1056.8</ele>
        <time>2021-09-07T18:36:07Z</time>
      </trkpt>
      <trkpt lat="44.34416" lon="5.62847">
        <ele>1056.9</ele>
        <time>2021-09-07T18:36:08Z</time>
      </trkpt>
      <trkpt lat="44.34414" lon="5.62848">
        <ele>1056.9</ele>
        <time>2021-09-07T18:36:09Z</time>
      </trkpt>
      <trkpt lat="44.34413" lon="5.6285">
        <ele>1056.9</ele>
        <time>2021-09-07T18:36:10Z</time>
      </trkpt>
      <trkpt lat="44.34412" lon="5.62852">
        <ele>1057</ele>
        <time>2021-09-07T18:36:11Z</time>
      </trkpt>
      <trkpt lat="44.34411" lon="5.62854">
        <ele>1057</ele>
        <time>2021-09-07T18:36:12Z</time>
      </trkpt>
      <trkpt lat="44.3441" lon="5.62856">
        <ele>1057.1</ele>
        <time>2021-09-07T18:36:13Z</time>
      </trkpt>
      <trkpt lat="44.34409" lon="5.62858">
        <ele>1057.1</ele>
        <time>2021-09-07T18:36:14Z</time>
      </trkpt>
      <trkpt lat="44.34408" lon="5.6286">
        <ele>1057.2</ele>
        <time>2021-09-07T18:36:15Z</time>
      </trkpt>
      <trkpt lat="44.34407" lon="5.62862">
        <ele>1057.2</ele>
        <time>2021-09-07T18:36:16Z</time>
      </trkpt>
      <trkpt lat="44.34405" lon="5.62863">
        <ele>1057.3</ele>
        <time>2021-09-07T18:36:17Z</time>
      </trkpt>
      <trkpt lat="44.34404" lon="5.62865">
        <ele>1057.4</ele>
        <time>2021-09-07T18:36:18Z</time>
      </trkpt>
      <trkpt lat="44.34402" lon="5.62867">
        <ele>1057.4</ele>
        <time>2021-09-07T18:36:19Z</time>
      </trkpt>
      <trkpt lat="44.34399" lon="5.62869">
        <ele>1057.6</ele>
        <time>2021-09-07T18:36:20Z</time>
      </trkpt>
      <trkpt lat="44.34398" lon="5.6287">
        <ele>1057.7</ele>
        <time>2021-09-07T18:36:21Z</time>
      </trkpt>
      <trkpt lat="44.34397" lon="5.62871">
        <ele>1057.7</ele>
        <time>2021-09-07T18:36:22Z</time>
      </trkpt>
      <trkpt lat="44.34395" lon="5.62872">
        <ele>1057.8</ele>
        <time>2021-09-07T18:36:23Z</time>
      </trkpt>
      <trkpt lat="44.34395" lon="5.62873">
        <ele>1057.8</ele>
        <time>2021-09-07T18:36:24Z</time>
      </trkpt>
      <trkpt lat="44.34394" lon="5.62873">
        <ele>1057.9</ele>
        <time>2021-09-07T18:36:25Z</time>
      </trkpt>
      <trkpt lat="44.34394" lon="5.62873">
        <ele>1057.9</ele>
        <time>2021-09-07T18:36:26Z</time>
      </trkpt>
      <trkpt lat="44.34394" lon="5.62873">
        <ele>1057.9</ele>
        <time>2021-09-07T18:36:27Z</time>
      </trkpt>
      <trkpt lat="44.34394" lon="5.62873">
        <ele>1057.9</ele>
        <time>2021-09-07T18:36:28Z</time>
      </trkpt>
      <trkpt lat="44.34394" lon="5.62873">
        <ele>1057.9</ele>
        <time>2021-09-07T18:36:29Z</time>
      </trkpt>
      <trkpt lat="44.34394" lon="5.62873">
        <ele>1057.9</ele>
        <time>2021-09-07T18:36:30Z</time>
      </trkpt>
      <trkpt lat="44.34394" lon="5.62873">
        <ele>1057.9</ele>
        <time>2021-09-07T18:36:31Z</time>
      </trkpt>
      <trkpt lat="44.34394" lon="5.62873">
        <ele>1057.9</ele>
        <time>2021-09-07T18:36:32Z</time>
      </trkpt>
      <trkpt lat="44.34394" lon="5.62873">
        <ele>1057.9</ele>
        <time>2021-09-07T18:36:33Z</time>
      </trkpt>
      <trkpt lat="44.34394" lon="5.62873">
        <ele>1057.9</ele>
        <time>2021-09-07T18:36:34Z</time>
      </trkpt>
      <trkpt lat="44.34394" lon="5.62873">
        <ele>1057.9</ele>
        <time>2021-09-07T18:36:35Z</time>
      </trkpt>
      <trkpt lat="44.34394" lon="5.62873">
        <ele>1057.9</ele>
        <time>2021-09-07T18:36:36Z</time>
      </trkpt>
      <trkpt lat="44.34394" lon="5.62873">
        <ele>1057.9</ele>
        <time>2021-09-07T18:36:37Z</time>
      </trkpt>
      <trkpt lat="44.34394" lon="5.62873">
        <ele>1057.9</ele>
        <time>2021-09-07T18:36:38Z</time>
      </trkpt>
      <trkpt lat="44.34394" lon="5.62873">
        <ele>1057.9</ele>
        <time>2021-09-07T18:36:39Z</time>
      </trkpt>
      <trkpt lat="44.34394" lon="5.62873">
        <ele>1057.9</ele>
        <time>2021-09-07T18:36:40Z</time>
      </trkpt>
      <trkpt lat="44.34395" lon="5.62873">
        <ele>1057.9</ele>
        <time>2021-09-07T18:36:41Z</time>
      </trkpt>
      <trkpt lat="44.34395" lon="5.62873">
        <ele>1057.9</ele>
        <time>2021-09-07T18:36:42Z</time>
      </trkpt>
      <trkpt lat="44.34395" lon="5.62873">
        <ele>1057.9</ele>
        <time>2021-09-07T18:36:43Z</time>
      </trkpt>
      <trkpt lat="44.34395" lon="5.62873">
        <ele>1057.9</ele>
        <time>2021-09-07T18:36:44Z</time>
      </trkpt>
      <trkpt lat="44.34395" lon="5.62873">
        <ele>1057.9</ele>
        <time>2021-09-07T18:36:45Z</time>
      </trkpt>
      <trkpt lat="44.34395" lon="5.62873">
        <ele>1057.9</ele>
        <time>2021-09-07T18:36:46Z</time>
      </trkpt>
      <trkpt lat="44.34395" lon="5.62873">
        <ele>1057.9</ele>
        <time>2021-09-07T18:36:47Z</time>
      </trkpt>
      <trkpt lat="44.34395" lon="5.62873">
        <ele>1057.9</ele>
        <time>2021-09-07T18:36:48Z</time>
      </trkpt>
      <trkpt lat="44.34395" lon="5.62873">
        <ele>1057.9</ele>
        <time>2021-09-07T18:36:49Z</time>
      </trkpt>
      <trkpt lat="44.34395" lon="5.62873">
        <ele>1058</ele>
        <time>2021-09-07T18:36:50Z</time>
      </trkpt>
      <trkpt lat="44.34395" lon="5.62872">
        <ele>1058</ele>
        <time>2021-09-07T18:36:51Z</time>
      </trkpt>
      <trkpt lat="44.34395" lon="5.62872">
        <ele>1058</ele>
        <time>2021-09-07T18:36:52Z</time>
      </trkpt>
      <trkpt lat="44.34395" lon="5.62872">
        <ele>1058</ele>
        <time>2021-09-07T18:36:53Z</time>
      </trkpt>
      <trkpt lat="44.34395" lon="5.62872">
        <ele>1058</ele>
        <time>2021-09-07T18:36:54Z</time>
      </trkpt>
      <trkpt lat="44.34395" lon="5.62872">
        <ele>1058</ele>
        <time>2021-09-07T18:36:55Z</time>
      </trkpt>
      <trkpt lat="44.34395" lon="5.62872">
        <ele>1058</ele>
        <time>2021-09-07T18:36:56Z</time>
      </trkpt>
      <trkpt lat="44.34394" lon="5.62872">
        <ele>1058</ele>
        <time>2021-09-07T18:36:57Z</time>
      </trkpt>
      <trkpt lat="44.34394" lon="5.62872">
        <ele>1058</ele>
        <time>2021-09-07T18:36:58Z</time>
      </trkpt>
      <trkpt lat="44.34394" lon="5.62872">
        <ele>1058</ele>
        <time>2021-09-07T18:36:59Z</time>
      </trkpt>
      <trkpt lat="44.34394" lon="5.62872">
        <ele>1058</ele>
        <time>2021-09-07T18:37:00Z</time>
      </trkpt>
      <trkpt lat="44.34394" lon="5.62872">
        <ele>1058</ele>
        <time>2021-09-07T18:37:01Z</time>
      </trkpt>
      <trkpt lat="44.34394" lon="5.62872">
        <ele>1058</ele>
        <time>2021-09-07T18:37:02Z</time>
      </trkpt>
      <trkpt lat="44.34394" lon="5.62874">
        <ele>1058.1</ele>
        <time>2021-09-07T18:37:03Z</time>
      </trkpt>
      <trkpt lat="44.34393" lon="5.62875">
        <ele>1058.2</ele>
        <time>2021-09-07T18:37:04Z</time>
      </trkpt>
      <trkpt lat="44.34392" lon="5.62877">
        <ele>1058.3</ele>
        <time>2021-09-07T18:37:05Z</time>
      </trkpt>
      <trkpt lat="44.3439" lon="5.62879">
        <ele>1058.5</ele>
        <time>2021-09-07T18:37:06Z</time>
      </trkpt>
      <trkpt lat="44.3439" lon="5.6288">
        <ele>1058.5</ele>
        <time>2021-09-07T18:37:07Z</time>
      </trkpt>
      <trkpt lat="44.34389" lon="5.6288">
        <ele>1058.6</ele>
        <time>2021-09-07T18:37:08Z</time>
      </trkpt>
      <trkpt lat="44.34388" lon="5.62882">
        <ele>1058.7</ele>
        <time>2021-09-07T18:37:09Z</time>
      </trkpt>
      <trkpt lat="44.34388" lon="5.62882">
        <ele>1058.7</ele>
        <time>2021-09-07T18:37:10Z</time>
      </trkpt>
      <trkpt lat="44.34387" lon="5.62884">
        <ele>1058.8</ele>
        <time>2021-09-07T18:37:11Z</time>
      </trkpt>
      <trkpt lat="44.34386" lon="5.62886">
        <ele>1059</ele>
        <time>2021-09-07T18:37:12Z</time>
      </trkpt>
      <trkpt lat="44.34385" lon="5.62887">
        <ele>1059.1</ele>
        <time>2021-09-07T18:37:13Z</time>
      </trkpt>
      <trkpt lat="44.34384" lon="5.62888">
        <ele>1059.2</ele>
        <time>2021-09-07T18:37:14Z</time>
      </trkpt>
      <trkpt lat="44.34384" lon="5.62889">
        <ele>1059.2</ele>
        <time>2021-09-07T18:37:15Z</time>
      </trkpt>
      <trkpt lat="44.34383" lon="5.6289">
        <ele>1059.3</ele>
        <time>2021-09-07T18:37:16Z</time>
      </trkpt>
      <trkpt lat="44.34382" lon="5.62891">
        <ele>1059.4</ele>
        <time>2021-09-07T18:37:17Z</time>
      </trkpt>
      <trkpt lat="44.34382" lon="5.62891">
        <ele>1059.4</ele>
        <time>2021-09-07T18:37:18Z</time>
      </trkpt>
      <trkpt lat="44.34382" lon="5.62891">
        <ele>1059.4</ele>
        <time>2021-09-07T18:37:19Z</time>
      </trkpt>
      <trkpt lat="44.34382" lon="5.62891">
        <ele>1059.4</ele>
        <time>2021-09-07T18:37:20Z</time>
      </trkpt>
      <trkpt lat="44.34381" lon="5.62892">
        <ele>1059.5</ele>
        <time>2021-09-07T18:37:21Z</time>
      </trkpt>
      <trkpt lat="44.34381" lon="5.62892">
        <ele>1059.5</ele>
        <time>2021-09-07T18:37:22Z</time>
      </trkpt>
      <trkpt lat="44.34381" lon="5.62892">
        <ele>1059.5</ele>
        <time>2021-09-07T18:37:23Z</time>
      </trkpt>
      <trkpt lat="44.34381" lon="5.62892">
        <ele>1059.5</ele>
        <time>2021-09-07T18:37:24Z</time>
      </trkpt>
      <trkpt lat="44.34381" lon="5.62892">
        <ele>1059.5</ele>
        <time>2021-09-07T18:37:25Z</time>
      </trkpt>
      <trkpt lat="44.34381" lon="5.62892">
        <ele>1059.5</ele>
        <time>2021-09-07T18:37:26Z</time>
      </trkpt>
      <trkpt lat="44.34381" lon="5.62893">
        <ele>1059.6</ele>
        <time>2021-09-07T18:37:27Z</time>
      </trkpt>
      <trkpt lat="44.3438" lon="5.62894">
        <ele>1059.7</ele>
        <time>2021-09-07T18:37:28Z</time>
      </trkpt>
      <trkpt lat="44.3438" lon="5.62895">
        <ele>1059.7</ele>
        <time>2021-09-07T18:37:29Z</time>
      </trkpt>
      <trkpt lat="44.34379" lon="5.62897">
        <ele>1059.9</ele>
        <time>2021-09-07T18:37:30Z</time>
      </trkpt>
      <trkpt lat="44.34378" lon="5.62899">
        <ele>1060</ele>
        <time>2021-09-07T18:37:31Z</time>
      </trkpt>
      <trkpt lat="44.34377" lon="5.62901">
        <ele>1060.2</ele>
        <time>2021-09-07T18:37:32Z</time>
      </trkpt>
      <trkpt lat="44.34376" lon="5.62902">
        <ele>1060.3</ele>
        <time>2021-09-07T18:37:33Z</time>
      </trkpt>
      <trkpt lat="44.34376" lon="5.62903">
        <ele>1060.3</ele>
        <time>2021-09-07T18:37:34Z</time>
      </trkpt>
      <trkpt lat="44.34376" lon="5.62904">
        <ele>1060.4</ele>
        <time>2021-09-07T18:37:35Z</time>
      </trkpt>
      <trkpt lat="44.34376" lon="5.62906">
        <ele>1060.5</ele>
        <time>2021-09-07T18:37:36Z</time>
      </trkpt>
      <trkpt lat="44.34375" lon="5.62908">
        <ele>1060.6</ele>
        <time>2021-09-07T18:37:37Z</time>
      </trkpt>
      <trkpt lat="44.34373" lon="5.62911">
        <ele>1060.9</ele>
        <time>2021-09-07T18:37:38Z</time>
      </trkpt>
      <trkpt lat="44.34372" lon="5.62913">
        <ele>1061.1</ele>
        <time>2021-09-07T18:37:39Z</time>
      </trkpt>
      <trkpt lat="44.34371" lon="5.62915">
        <ele>1061.2</ele>
        <time>2021-09-07T18:37:40Z</time>
      </trkpt>
      <trkpt lat="44.3437" lon="5.62916">
        <ele>1061.3</ele>
        <time>2021-09-07T18:37:41Z</time>
      </trkpt>
      <trkpt lat="44.3437" lon="5.62916">
        <ele>1061.3</ele>
        <time>2021-09-07T18:37:42Z</time>
      </trkpt>
      <trkpt lat="44.34369" lon="5.62917">
        <ele>1061.4</ele>
        <time>2021-09-07T18:37:43Z</time>
      </trkpt>
      <trkpt lat="44.34367" lon="5.62919">
        <ele>1061.6</ele>
        <time>2021-09-07T18:37:44Z</time>
      </trkpt>
      <trkpt lat="44.34366" lon="5.6292">
        <ele>1061.8</ele>
        <time>2021-09-07T18:37:45Z</time>
      </trkpt>
      <trkpt lat="44.34365" lon="5.62921">
        <ele>1061.9</ele>
        <time>2021-09-07T18:37:46Z</time>
      </trkpt>
      <trkpt lat="44.34364" lon="5.62922">
        <ele>1061.9</ele>
        <time>2021-09-07T18:37:47Z</time>
      </trkpt>
      <trkpt lat="44.34364" lon="5.62923">
        <ele>1061.9</ele>
        <time>2021-09-07T18:37:48Z</time>
      </trkpt>
      <trkpt lat="44.34363" lon="5.62923">
        <ele>1062</ele>
        <time>2021-09-07T18:37:49Z</time>
      </trkpt>
      <trkpt lat="44.34362" lon="5.62923">
        <ele>1062.1</ele>
        <time>2021-09-07T18:37:50Z</time>
      </trkpt>
      <trkpt lat="44.34362" lon="5.62923">
        <ele>1062.2</ele>
        <time>2021-09-07T18:37:51Z</time>
      </trkpt>
      <trkpt lat="44.34361" lon="5.62923">
        <ele>1062.2</ele>
        <time>2021-09-07T18:37:52Z</time>
      </trkpt>
      <trkpt lat="44.34361" lon="5.62923">
        <ele>1062.2</ele>
        <time>2021-09-07T18:37:53Z</time>
      </trkpt>
      <trkpt lat="44.34361" lon="5.62923">
        <ele>1062.2</ele>
        <time>2021-09-07T18:37:54Z</time>
      </trkpt>
      <trkpt lat="44.34361" lon="5.62923">
        <ele>1062.2</ele>
        <time>2021-09-07T18:37:55Z</time>
      </trkpt>
      <trkpt lat="44.3436" lon="5.62923">
        <ele>1062.3</ele>
        <time>2021-09-07T18:37:56Z</time>
      </trkpt>
      <trkpt lat="44.3436" lon="5.62924">
        <ele>1062.3</ele>
        <time>2021-09-07T18:37:57Z</time>
      </trkpt>
      <trkpt lat="44.3436" lon="5.62924">
        <ele>1062.4</ele>
        <time>2021-09-07T18:37:58Z</time>
      </trkpt>
      <trkpt lat="44.34359" lon="5.62926">
        <ele>1062.5</ele>
        <time>2021-09-07T18:37:59Z</time>
      </trkpt>
      <trkpt lat="44.34359" lon="5.62927">
        <ele>1062.5</ele>
        <time>2021-09-07T18:38:00Z</time>
      </trkpt>
      <trkpt lat="44.34358" lon="5.62927">
        <ele>1062.6</ele>
        <time>2021-09-07T18:38:01Z</time>
      </trkpt>
      <trkpt lat="44.34357" lon="5.6293">
        <ele>1062.9</ele>
        <time>2021-09-07T18:38:02Z</time>
      </trkpt>
      <trkpt lat="44.34357" lon="5.62931">
        <ele>1062.9</ele>
        <time>2021-09-07T18:38:03Z</time>
      </trkpt>
      <trkpt lat="44.34357" lon="5.62932">
        <ele>1063</ele>
        <time>2021-09-07T18:38:04Z</time>
      </trkpt>
      <trkpt lat="44.34357" lon="5.62933">
        <ele>1063.1</ele>
        <time>2021-09-07T18:38:05Z</time>
      </trkpt>
      <trkpt lat="44.34356" lon="5.62933">
        <ele>1063.1</ele>
        <time>2021-09-07T18:38:06Z</time>
      </trkpt>
      <trkpt lat="44.34356" lon="5.62934">
        <ele>1063.2</ele>
        <time>2021-09-07T18:38:07Z</time>
      </trkpt>
      <trkpt lat="44.34356" lon="5.62934">
        <ele>1063.2</ele>
        <time>2021-09-07T18:38:08Z</time>
      </trkpt>
      <trkpt lat="44.34356" lon="5.62935">
        <ele>1063.3</ele>
        <time>2021-09-07T18:38:09Z</time>
      </trkpt>
      <trkpt lat="44.34355" lon="5.62935">
        <ele>1063.3</ele>
        <time>2021-09-07T18:38:10Z</time>
      </trkpt>
      <trkpt lat="44.34355" lon="5.62935">
        <ele>1063.3</ele>
        <time>2021-09-07T18:38:11Z</time>
      </trkpt>
      <trkpt lat="44.34355" lon="5.62936">
        <ele>1063.3</ele>
        <time>2021-09-07T18:38:12Z</time>
      </trkpt>
      <trkpt lat="44.34354" lon="5.62937">
        <ele>1063.5</ele>
        <time>2021-09-07T18:38:13Z</time>
      </trkpt>
      <trkpt lat="44.34354" lon="5.62938">
        <ele>1063.5</ele>
        <time>2021-09-07T18:38:14Z</time>
      </trkpt>
      <trkpt lat="44.34353" lon="5.62938">
        <ele>1063.6</ele>
        <time>2021-09-07T18:38:15Z</time>
      </trkpt>
      <trkpt lat="44.34351" lon="5.6294">
        <ele>1063.8</ele>
        <time>2021-09-07T18:38:16Z</time>
      </trkpt>
      <trkpt lat="44.34349" lon="5.62942">
        <ele>1064.1</ele>
        <time>2021-09-07T18:38:17Z</time>
      </trkpt>
      <trkpt lat="44.34348" lon="5.62943">
        <ele>1064.3</ele>
        <time>2021-09-07T18:38:18Z</time>
      </trkpt>
      <trkpt lat="44.34348" lon="5.62944">
        <ele>1064.3</ele>
        <time>2021-09-07T18:38:19Z</time>
      </trkpt>
      <trkpt lat="44.34347" lon="5.62944">
        <ele>1064.4</ele>
        <time>2021-09-07T18:38:20Z</time>
      </trkpt>
      <trkpt lat="44.34347" lon="5.62944">
        <ele>1064.4</ele>
        <time>2021-09-07T18:38:21Z</time>
      </trkpt>
      <trkpt lat="44.34346" lon="5.62945">
        <ele>1064.5</ele>
        <time>2021-09-07T18:38:22Z</time>
      </trkpt>
      <trkpt lat="44.34346" lon="5.62945">
        <ele>1064.5</ele>
        <time>2021-09-07T18:38:23Z</time>
      </trkpt>
      <trkpt lat="44.34346" lon="5.62945">
        <ele>1064.5</ele>
        <time>2021-09-07T18:38:24Z</time>
      </trkpt>
      <trkpt lat="44.34346" lon="5.62945">
        <ele>1064.5</ele>
        <time>2021-09-07T18:38:25Z</time>
      </trkpt>
      <trkpt lat="44.34344" lon="5.62947">
        <ele>1064.7</ele>
        <time>2021-09-07T18:38:26Z</time>
      </trkpt>
      <trkpt lat="44.34343" lon="5.62948">
        <ele>1064.9</ele>
        <time>2021-09-07T18:38:27Z</time>
      </trkpt>
      <trkpt lat="44.34342" lon="5.62949">
        <ele>1065</ele>
        <time>2021-09-07T18:38:28Z</time>
      </trkpt>
      <trkpt lat="44.3434" lon="5.62951">
        <ele>1065.3</ele>
        <time>2021-09-07T18:38:29Z</time>
      </trkpt>
      <trkpt lat="44.34339" lon="5.62952">
        <ele>1065.4</ele>
        <time>2021-09-07T18:38:30Z</time>
      </trkpt>
      <trkpt lat="44.34338" lon="5.62952">
        <ele>1065.6</ele>
        <time>2021-09-07T18:38:31Z</time>
      </trkpt>
      <trkpt lat="44.34337" lon="5.62952">
        <ele>1065.7</ele>
        <time>2021-09-07T18:38:32Z</time>
      </trkpt>
      <trkpt lat="44.34336" lon="5.62953">
        <ele>1065.8</ele>
        <time>2021-09-07T18:38:33Z</time>
      </trkpt>
      <trkpt lat="44.34334" lon="5.62956">
        <ele>1066.2</ele>
        <time>2021-09-07T18:38:34Z</time>
      </trkpt>
      <trkpt lat="44.34333" lon="5.62959">
        <ele>1066.5</ele>
        <time>2021-09-07T18:38:35Z</time>
      </trkpt>
      <trkpt lat="44.34332" lon="5.62961">
        <ele>1066.7</ele>
        <time>2021-09-07T18:38:36Z</time>
      </trkpt>
      <trkpt lat="44.34331" lon="5.62962">
        <ele>1066.8</ele>
        <time>2021-09-07T18:38:37Z</time>
      </trkpt>
      <trkpt lat="44.3433" lon="5.62964">
        <ele>1067</ele>
        <time>2021-09-07T18:38:38Z</time>
      </trkpt>
      <trkpt lat="44.3433" lon="5.62966">
        <ele>1067.2</ele>
        <time>2021-09-07T18:38:39Z</time>
      </trkpt>
      <trkpt lat="44.3433" lon="5.62967">
        <ele>1067.3</ele>
        <time>2021-09-07T18:38:40Z</time>
      </trkpt>
      <trkpt lat="44.34329" lon="5.62968">
        <ele>1067.4</ele>
        <time>2021-09-07T18:38:41Z</time>
      </trkpt>
      <trkpt lat="44.34329" lon="5.62969">
        <ele>1067.5</ele>
        <time>2021-09-07T18:38:42Z</time>
      </trkpt>
      <trkpt lat="44.34329" lon="5.62969">
        <ele>1067.5</ele>
        <time>2021-09-07T18:38:43Z</time>
      </trkpt>
      <trkpt lat="44.34328" lon="5.62969">
        <ele>1067.6</ele>
        <time>2021-09-07T18:38:44Z</time>
      </trkpt>
      <trkpt lat="44.34328" lon="5.6297">
        <ele>1067.6</ele>
        <time>2021-09-07T18:38:45Z</time>
      </trkpt>
      <trkpt lat="44.34328" lon="5.6297">
        <ele>1067.6</ele>
        <time>2021-09-07T18:38:46Z</time>
      </trkpt>
      <trkpt lat="44.34328" lon="5.6297">
        <ele>1067.6</ele>
        <time>2021-09-07T18:38:47Z</time>
      </trkpt>
      <trkpt lat="44.34327" lon="5.6297">
        <ele>1067.8</ele>
        <time>2021-09-07T18:38:48Z</time>
      </trkpt>
      <trkpt lat="44.34327" lon="5.6297">
        <ele>1067.7</ele>
        <time>2021-09-07T18:38:49Z</time>
      </trkpt>
      <trkpt lat="44.34327" lon="5.6297">
        <ele>1067.7</ele>
        <time>2021-09-07T18:38:50Z</time>
      </trkpt>
      <trkpt lat="44.34327" lon="5.6297">
        <ele>1067.7</ele>
        <time>2021-09-07T18:38:51Z</time>
      </trkpt>
      <trkpt lat="44.34327" lon="5.6297">
        <ele>1067.7</ele>
        <time>2021-09-07T18:38:52Z</time>
      </trkpt>
      <trkpt lat="44.34327" lon="5.6297">
        <ele>1067.7</ele>
        <time>2021-09-07T18:38:53Z</time>
      </trkpt>
      <trkpt lat="44.34327" lon="5.6297">
        <ele>1067.7</ele>
        <time>2021-09-07T18:38:54Z</time>
      </trkpt>
      <trkpt lat="44.34327" lon="5.6297">
        <ele>1067.7</ele>
        <time>2021-09-07T18:38:55Z</time>
      </trkpt>
      <trkpt lat="44.34327" lon="5.6297">
        <ele>1067.7</ele>
        <time>2021-09-07T18:38:56Z</time>
      </trkpt>
      <trkpt lat="44.34327" lon="5.6297">
        <ele>1067.7</ele>
        <time>2021-09-07T18:38:57Z</time>
      </trkpt>
      <trkpt lat="44.34327" lon="5.6297">
        <ele>1067.7</ele>
        <time>2021-09-07T18:38:58Z</time>
      </trkpt>
      <trkpt lat="44.34327" lon="5.6297">
        <ele>1067.7</ele>
        <time>2021-09-07T18:38:59Z</time>
      </trkpt>
      <trkpt lat="44.34327" lon="5.6297">
        <ele>1067.7</ele>
        <time>2021-09-07T18:39:00Z</time>
      </trkpt>
      <trkpt lat="44.34327" lon="5.6297">
        <ele>1067.7</ele>
        <time>2021-09-07T18:39:01Z</time>
      </trkpt>
      <trkpt lat="44.34327" lon="5.6297">
        <ele>1067.6</ele>
        <time>2021-09-07T18:39:02Z</time>
      </trkpt>
      <trkpt lat="44.34327" lon="5.6297">
        <ele>1067.6</ele>
        <time>2021-09-07T18:39:03Z</time>
      </trkpt>
      <trkpt lat="44.34327" lon="5.6297">
        <ele>1067.6</ele>
        <time>2021-09-07T18:39:04Z</time>
      </trkpt>
      <trkpt lat="44.34327" lon="5.6297">
        <ele>1067.6</ele>
        <time>2021-09-07T18:39:05Z</time>
      </trkpt>
      <trkpt lat="44.34327" lon="5.6297">
        <ele>1067.6</ele>
        <time>2021-09-07T18:39:06Z</time>
      </trkpt>
      <trkpt lat="44.34327" lon="5.6297">
        <ele>1067.6</ele>
        <time>2021-09-07T18:39:07Z</time>
      </trkpt>
      <trkpt lat="44.34327" lon="5.6297">
        <ele>1067.6</ele>
        <time>2021-09-07T18:39:08Z</time>
      </trkpt>
      <trkpt lat="44.34327" lon="5.6297">
        <ele>1067.6</ele>
        <time>2021-09-07T18:39:09Z</time>
      </trkpt>
      <trkpt lat="44.34327" lon="5.6297">
        <ele>1067.6</ele>
        <time>2021-09-07T18:39:10Z</time>
      </trkpt>
      <trkpt lat="44.34327" lon="5.6297">
        <ele>1067.6</ele>
        <time>2021-09-07T18:39:11Z</time>
      </trkpt>
      <trkpt lat="44.34327" lon="5.6297">
        <ele>1067.6</ele>
        <time>2021-09-07T18:39:12Z</time>
      </trkpt>
      <trkpt lat="44.34327" lon="5.6297">
        <ele>1067.6</ele>
        <time>2021-09-07T18:39:13Z</time>
      </trkpt>
      <trkpt lat="44.34327" lon="5.62971">
        <ele>1067.6</ele>
        <time>2021-09-07T18:39:14Z</time>
      </trkpt>
      <trkpt lat="44.34327" lon="5.62971">
        <ele>1067.6</ele>
        <time>2021-09-07T18:39:15Z</time>
      </trkpt>
      <trkpt lat="44.34327" lon="5.62971">
        <ele>1067.6</ele>
        <time>2021-09-07T18:39:16Z</time>
      </trkpt>
      <trkpt lat="44.34327" lon="5.62971">
        <ele>1067.6</ele>
        <time>2021-09-07T18:39:17Z</time>
      </trkpt>
      <trkpt lat="44.34327" lon="5.62972">
        <ele>1067.7</ele>
        <time>2021-09-07T18:39:18Z</time>
      </trkpt>
      <trkpt lat="44.34326" lon="5.62972">
        <ele>1067.8</ele>
        <time>2021-09-07T18:39:19Z</time>
      </trkpt>
      <trkpt lat="44.34325" lon="5.62973">
        <ele>1067.9</ele>
        <time>2021-09-07T18:39:20Z</time>
      </trkpt>
      <trkpt lat="44.34324" lon="5.62974">
        <ele>1068.1</ele>
        <time>2021-09-07T18:39:21Z</time>
      </trkpt>
      <trkpt lat="44.34323" lon="5.62975">
        <ele>1068.3</ele>
        <time>2021-09-07T18:39:22Z</time>
      </trkpt>
      <trkpt lat="44.34322" lon="5.62976">
        <ele>1068.4</ele>
        <time>2021-09-07T18:39:23Z</time>
      </trkpt>
      <trkpt lat="44.34321" lon="5.62977">
        <ele>1068.6</ele>
        <time>2021-09-07T18:39:24Z</time>
      </trkpt>
      <trkpt lat="44.3432" lon="5.62978">
        <ele>1068.8</ele>
        <time>2021-09-07T18:39:25Z</time>
      </trkpt>
      <trkpt lat="44.34319" lon="5.62979">
        <ele>1068.9</ele>
        <time>2021-09-07T18:39:26Z</time>
      </trkpt>
      <trkpt lat="44.34319" lon="5.6298">
        <ele>1069</ele>
        <time>2021-09-07T18:39:27Z</time>
      </trkpt>
      <trkpt lat="44.34318" lon="5.6298">
        <ele>1069.1</ele>
        <time>2021-09-07T18:39:28Z</time>
      </trkpt>
      <trkpt lat="44.34317" lon="5.62982">
        <ele>1069.3</ele>
        <time>2021-09-07T18:39:29Z</time>
      </trkpt>
      <trkpt lat="44.34317" lon="5.62982">
        <ele>1069.4</ele>
        <time>2021-09-07T18:39:30Z</time>
      </trkpt>
      <trkpt lat="44.34316" lon="5.62982">
        <ele>1069.5</ele>
        <time>2021-09-07T18:39:31Z</time>
      </trkpt>
      <trkpt lat="44.34316" lon="5.62983">
        <ele>1069.6</ele>
        <time>2021-09-07T18:39:32Z</time>
      </trkpt>
      <trkpt lat="44.34316" lon="5.62984">
        <ele>1069.6</ele>
        <time>2021-09-07T18:39:33Z</time>
      </trkpt>
      <trkpt lat="44.34316" lon="5.62984">
        <ele>1069.7</ele>
        <time>2021-09-07T18:39:34Z</time>
      </trkpt>
      <trkpt lat="44.34315" lon="5.62986">
        <ele>1070</ele>
        <time>2021-09-07T18:39:35Z</time>
      </trkpt>
      <trkpt lat="44.34315" lon="5.62987">
        <ele>1070.1</ele>
        <time>2021-09-07T18:39:36Z</time>
      </trkpt>
      <trkpt lat="44.34315" lon="5.62988">
        <ele>1070.2</ele>
        <time>2021-09-07T18:39:37Z</time>
      </trkpt>
      <trkpt lat="44.34315" lon="5.6299">
        <ele>1070.4</ele>
        <time>2021-09-07T18:39:38Z</time>
      </trkpt>
      <trkpt lat="44.34315" lon="5.62991">
        <ele>1070.5</ele>
        <time>2021-09-07T18:39:39Z</time>
      </trkpt>
      <trkpt lat="44.34315" lon="5.62992">
        <ele>1070.6</ele>
        <time>2021-09-07T18:39:40Z</time>
      </trkpt>
      <trkpt lat="44.34315" lon="5.62992">
        <ele>1070.6</ele>
        <time>2021-09-07T18:39:41Z</time>
      </trkpt>
      <trkpt lat="44.34314" lon="5.62992">
        <ele>1070.8</ele>
        <time>2021-09-07T18:39:42Z</time>
      </trkpt>
      <trkpt lat="44.34314" lon="5.62993">
        <ele>1070.9</ele>
        <time>2021-09-07T18:39:43Z</time>
      </trkpt>
      <trkpt lat="44.34314" lon="5.62993">
        <ele>1070.9</ele>
        <time>2021-09-07T18:39:44Z</time>
      </trkpt>
      <trkpt lat="44.34314" lon="5.62993">
        <ele>1070.9</ele>
        <time>2021-09-07T18:39:45Z</time>
      </trkpt>
      <trkpt lat="44.34314" lon="5.62994">
        <ele>1071</ele>
        <time>2021-09-07T18:39:46Z</time>
      </trkpt>
      <trkpt lat="44.34314" lon="5.62994">
        <ele>1071</ele>
        <time>2021-09-07T18:39:47Z</time>
      </trkpt>
      <trkpt lat="44.34314" lon="5.62994">
        <ele>1071</ele>
        <time>2021-09-07T18:39:48Z</time>
      </trkpt>
      <trkpt lat="44.34314" lon="5.62994">
        <ele>1071</ele>
        <time>2021-09-07T18:39:49Z</time>
      </trkpt>
      <trkpt lat="44.34314" lon="5.62994">
        <ele>1071</ele>
        <time>2021-09-07T18:39:50Z</time>
      </trkpt>
      <trkpt lat="44.34314" lon="5.62994">
        <ele>1071</ele>
        <time>2021-09-07T18:39:51Z</time>
      </trkpt>
      <trkpt lat="44.34314" lon="5.62995">
        <ele>1071.1</ele>
        <time>2021-09-07T18:39:52Z</time>
      </trkpt>
      <trkpt lat="44.34314" lon="5.62995">
        <ele>1071.1</ele>
        <time>2021-09-07T18:39:53Z</time>
      </trkpt>
      <trkpt lat="44.34314" lon="5.62995">
        <ele>1071.1</ele>
        <time>2021-09-07T18:39:54Z</time>
      </trkpt>
      <trkpt lat="44.34314" lon="5.62995">
        <ele>1071.1</ele>
        <time>2021-09-07T18:39:55Z</time>
      </trkpt>
      <trkpt lat="44.34314" lon="5.62995">
        <ele>1071.1</ele>
        <time>2021-09-07T18:39:56Z</time>
      </trkpt>
      <trkpt lat="44.34314" lon="5.62995">
        <ele>1071.2</ele>
        <time>2021-09-07T18:39:57Z</time>
      </trkpt>
      <trkpt lat="44.34314" lon="5.62994">
        <ele>1071.2</ele>
        <time>2021-09-07T18:39:58Z</time>
      </trkpt>
      <trkpt lat="44.34314" lon="5.62994">
        <ele>1071.2</ele>
        <time>2021-09-07T18:39:59Z</time>
      </trkpt>
      <trkpt lat="44.34314" lon="5.62994">
        <ele>1071.2</ele>
        <time>2021-09-07T18:40:00Z</time>
      </trkpt>
      <trkpt lat="44.34314" lon="5.62994">
        <ele>1071.2</ele>
        <time>2021-09-07T18:40:01Z</time>
      </trkpt>
      <trkpt lat="44.34314" lon="5.62994">
        <ele>1071.2</ele>
        <time>2021-09-07T18:40:02Z</time>
      </trkpt>
      <trkpt lat="44.34314" lon="5.62993">
        <ele>1071.3</ele>
        <time>2021-09-07T18:40:03Z</time>
      </trkpt>
      <trkpt lat="44.34314" lon="5.62993">
        <ele>1071.3</ele>
        <time>2021-09-07T18:40:04Z</time>
      </trkpt>
      <trkpt lat="44.34314" lon="5.62993">
        <ele>1071.3</ele>
        <time>2021-09-07T18:40:05Z</time>
      </trkpt>
      <trkpt lat="44.34314" lon="5.62993">
        <ele>1071.3</ele>
        <time>2021-09-07T18:40:06Z</time>
      </trkpt>
      <trkpt lat="44.34314" lon="5.62994">
        <ele>1071.4</ele>
        <time>2021-09-07T18:40:07Z</time>
      </trkpt>
      <trkpt lat="44.34314" lon="5.62994">
        <ele>1071.5</ele>
        <time>2021-09-07T18:40:08Z</time>
      </trkpt>
      <trkpt lat="44.34314" lon="5.62997">
        <ele>1071.8</ele>
        <time>2021-09-07T18:40:09Z</time>
      </trkpt>
      <trkpt lat="44.34315" lon="5.63001">
        <ele>1072.2</ele>
        <time>2021-09-07T18:40:10Z</time>
      </trkpt>
      <trkpt lat="44.34315" lon="5.63002">
        <ele>1072.3</ele>
        <time>2021-09-07T18:40:11Z</time>
      </trkpt>
      <trkpt lat="44.34315" lon="5.63003">
        <ele>1072.4</ele>
        <time>2021-09-07T18:40:12Z</time>
      </trkpt>
      <trkpt lat="44.34315" lon="5.63004">
        <ele>1072.5</ele>
        <time>2021-09-07T18:40:13Z</time>
      </trkpt>
      <trkpt lat="44.34315" lon="5.63007">
        <ele>1072.8</ele>
        <time>2021-09-07T18:40:14Z</time>
      </trkpt>
      <trkpt lat="44.34315" lon="5.63009">
        <ele>1072.9</ele>
        <time>2021-09-07T18:40:15Z</time>
      </trkpt>
      <trkpt lat="44.34315" lon="5.6301">
        <ele>1073.1</ele>
        <time>2021-09-07T18:40:16Z</time>
      </trkpt>
      <trkpt lat="44.34316" lon="5.63012">
        <ele>1073.3</ele>
        <time>2021-09-07T18:40:17Z</time>
      </trkpt>
      <trkpt lat="44.34316" lon="5.63015">
        <ele>1073.6</ele>
        <time>2021-09-07T18:40:18Z</time>
      </trkpt>
      <trkpt lat="44.34316" lon="5.63016">
        <ele>1073.7</ele>
        <time>2021-09-07T18:40:19Z</time>
      </trkpt>
      <trkpt lat="44.34316" lon="5.63017">
        <ele>1073.7</ele>
        <time>2021-09-07T18:40:20Z</time>
      </trkpt>
      <trkpt lat="44.34317" lon="5.6302">
        <ele>1074</ele>
        <time>2021-09-07T18:40:21Z</time>
      </trkpt>
      <trkpt lat="44.34317" lon="5.63021">
        <ele>1074.1</ele>
        <time>2021-09-07T18:40:22Z</time>
      </trkpt>
      <trkpt lat="44.34317" lon="5.63022">
        <ele>1074.2</ele>
        <time>2021-09-07T18:40:23Z</time>
      </trkpt>
      <trkpt lat="44.34317" lon="5.63022">
        <ele>1074.2</ele>
        <time>2021-09-07T18:40:24Z</time>
      </trkpt>
      <trkpt lat="44.34317" lon="5.63023">
        <ele>1074.3</ele>
        <time>2021-09-07T18:40:25Z</time>
      </trkpt>
      <trkpt lat="44.34317" lon="5.63024">
        <ele>1074.4</ele>
        <time>2021-09-07T18:40:26Z</time>
      </trkpt>
      <trkpt lat="44.34317" lon="5.63024">
        <ele>1074.4</ele>
        <time>2021-09-07T18:40:27Z</time>
      </trkpt>
      <trkpt lat="44.34316" lon="5.63025">
        <ele>1074.5</ele>
        <time>2021-09-07T18:40:28Z</time>
      </trkpt>
      <trkpt lat="44.34316" lon="5.63025">
        <ele>1074.5</ele>
        <time>2021-09-07T18:40:29Z</time>
      </trkpt>
      <trkpt lat="44.34316" lon="5.63025">
        <ele>1074.5</ele>
        <time>2021-09-07T18:40:30Z</time>
      </trkpt>
      <trkpt lat="44.34316" lon="5.63026">
        <ele>1074.6</ele>
        <time>2021-09-07T18:40:31Z</time>
      </trkpt>
      <trkpt lat="44.34315" lon="5.63028">
        <ele>1074.8</ele>
        <time>2021-09-07T18:40:32Z</time>
      </trkpt>
      <trkpt lat="44.34314" lon="5.6303">
        <ele>1075</ele>
        <time>2021-09-07T18:40:33Z</time>
      </trkpt>
      <trkpt lat="44.34313" lon="5.63032">
        <ele>1075.2</ele>
        <time>2021-09-07T18:40:34Z</time>
      </trkpt>
      <trkpt lat="44.34312" lon="5.63036">
        <ele>1075.5</ele>
        <time>2021-09-07T18:40:35Z</time>
      </trkpt>
      <trkpt lat="44.34311" lon="5.63038">
        <ele>1075.7</ele>
        <time>2021-09-07T18:40:36Z</time>
      </trkpt>
      <trkpt lat="44.3431" lon="5.63039">
        <ele>1075.9</ele>
        <time>2021-09-07T18:40:37Z</time>
      </trkpt>
      <trkpt lat="44.34309" lon="5.63039">
        <ele>1076</ele>
        <time>2021-09-07T18:40:38Z</time>
      </trkpt>
      <trkpt lat="44.34309" lon="5.6304">
        <ele>1076</ele>
        <time>2021-09-07T18:40:39Z</time>
      </trkpt>
      <trkpt lat="44.34309" lon="5.6304">
        <ele>1076.1</ele>
        <time>2021-09-07T18:40:40Z</time>
      </trkpt>
      <trkpt lat="44.34308" lon="5.6304">
        <ele>1076.2</ele>
        <time>2021-09-07T18:40:41Z</time>
      </trkpt>
      <trkpt lat="44.34308" lon="5.6304">
        <ele>1076.2</ele>
        <time>2021-09-07T18:40:42Z</time>
      </trkpt>
      <trkpt lat="44.34308" lon="5.63041">
        <ele>1076.2</ele>
        <time>2021-09-07T18:40:43Z</time>
      </trkpt>
      <trkpt lat="44.34308" lon="5.63041">
        <ele>1076.2</ele>
        <time>2021-09-07T18:40:44Z</time>
      </trkpt>
      <trkpt lat="44.34308" lon="5.63041">
        <ele>1076.2</ele>
        <time>2021-09-07T18:40:45Z</time>
      </trkpt>
      <trkpt lat="44.34308" lon="5.63041">
        <ele>1076.2</ele>
        <time>2021-09-07T18:40:46Z</time>
      </trkpt>
      <trkpt lat="44.34306" lon="5.63043">
        <ele>1076.5</ele>
        <time>2021-09-07T18:40:47Z</time>
      </trkpt>
      <trkpt lat="44.34305" lon="5.63045">
        <ele>1076.7</ele>
        <time>2021-09-07T18:40:48Z</time>
      </trkpt>
      <trkpt lat="44.34305" lon="5.63046">
        <ele>1076.8</ele>
        <time>2021-09-07T18:40:49Z</time>
      </trkpt>
      <trkpt lat="44.34304" lon="5.63046">
        <ele>1076.9</ele>
        <time>2021-09-07T18:40:50Z</time>
      </trkpt>
      <trkpt lat="44.34302" lon="5.63048">
        <ele>1077.2</ele>
        <time>2021-09-07T18:40:51Z</time>
      </trkpt>
      <trkpt lat="44.34302" lon="5.63049">
        <ele>1077.3</ele>
        <time>2021-09-07T18:40:52Z</time>
      </trkpt>
      <trkpt lat="44.34301" lon="5.63049">
        <ele>1077.3</ele>
        <time>2021-09-07T18:40:53Z</time>
      </trkpt>
      <trkpt lat="44.34301" lon="5.6305">
        <ele>1077.4</ele>
        <time>2021-09-07T18:40:54Z</time>
      </trkpt>
      <trkpt lat="44.343" lon="5.6305">
        <ele>1077.5</ele>
        <time>2021-09-07T18:40:55Z</time>
      </trkpt>
      <trkpt lat="44.343" lon="5.63051">
        <ele>1077.5</ele>
        <time>2021-09-07T18:40:56Z</time>
      </trkpt>
      <trkpt lat="44.343" lon="5.63051">
        <ele>1077.6</ele>
        <time>2021-09-07T18:40:57Z</time>
      </trkpt>
      <trkpt lat="44.34299" lon="5.63051">
        <ele>1077.7</ele>
        <time>2021-09-07T18:40:58Z</time>
      </trkpt>
      <trkpt lat="44.34299" lon="5.63051">
        <ele>1077.7</ele>
        <time>2021-09-07T18:40:59Z</time>
      </trkpt>
      <trkpt lat="44.34299" lon="5.63052">
        <ele>1077.7</ele>
        <time>2021-09-07T18:41:00Z</time>
      </trkpt>
      <trkpt lat="44.34299" lon="5.63052">
        <ele>1077.8</ele>
        <time>2021-09-07T18:41:01Z</time>
      </trkpt>
      <trkpt lat="44.34299" lon="5.63052">
        <ele>1077.8</ele>
        <time>2021-09-07T18:41:02Z</time>
      </trkpt>
      <trkpt lat="44.34299" lon="5.63052">
        <ele>1077.8</ele>
        <time>2021-09-07T18:41:03Z</time>
      </trkpt>
      <trkpt lat="44.34299" lon="5.63052">
        <ele>1077.8</ele>
        <time>2021-09-07T18:41:04Z</time>
      </trkpt>
      <trkpt lat="44.34299" lon="5.63052">
        <ele>1077.8</ele>
        <time>2021-09-07T18:41:05Z</time>
      </trkpt>
      <trkpt lat="44.34299" lon="5.63052">
        <ele>1077.8</ele>
        <time>2021-09-07T18:41:06Z</time>
      </trkpt>
      <trkpt lat="44.34299" lon="5.63052">
        <ele>1077.8</ele>
        <time>2021-09-07T18:41:07Z</time>
      </trkpt>
      <trkpt lat="44.34299" lon="5.63052">
        <ele>1077.8</ele>
        <time>2021-09-07T18:41:08Z</time>
      </trkpt>
      <trkpt lat="44.34299" lon="5.63052">
        <ele>1077.8</ele>
        <time>2021-09-07T18:41:09Z</time>
      </trkpt>
      <trkpt lat="44.34299" lon="5.63052">
        <ele>1077.8</ele>
        <time>2021-09-07T18:41:10Z</time>
      </trkpt>
      <trkpt lat="44.34299" lon="5.63052">
        <ele>1077.8</ele>
        <time>2021-09-07T18:41:11Z</time>
      </trkpt>
      <trkpt lat="44.343" lon="5.63052">
        <ele>1077.8</ele>
        <time>2021-09-07T18:41:12Z</time>
      </trkpt>
      <trkpt lat="44.343" lon="5.63052">
        <ele>1077.9</ele>
        <time>2021-09-07T18:41:13Z</time>
      </trkpt>
      <trkpt lat="44.343" lon="5.63052">
        <ele>1077.9</ele>
        <time>2021-09-07T18:41:14Z</time>
      </trkpt>
      <trkpt lat="44.343" lon="5.63052">
        <ele>1077.9</ele>
        <time>2021-09-07T18:41:15Z</time>
      </trkpt>
      <trkpt lat="44.343" lon="5.63052">
        <ele>1077.9</ele>
        <time>2021-09-07T18:41:16Z</time>
      </trkpt>
      <trkpt lat="44.34297" lon="5.63051">
        <ele>1078.3</ele>
        <time>2021-09-07T18:41:17Z</time>
      </trkpt>
      <trkpt lat="44.34296" lon="5.63051">
        <ele>1078.4</ele>
        <time>2021-09-07T18:41:18Z</time>
      </trkpt>
      <trkpt lat="44.34294" lon="5.63051">
        <ele>1078.6</ele>
        <time>2021-09-07T18:41:19Z</time>
      </trkpt>
      <trkpt lat="44.34292" lon="5.63051">
        <ele>1078.8</ele>
        <time>2021-09-07T18:41:20Z</time>
      </trkpt>
      <trkpt lat="44.34291" lon="5.63052">
        <ele>1079</ele>
        <time>2021-09-07T18:41:21Z</time>
      </trkpt>
      <trkpt lat="44.34289" lon="5.63052">
        <ele>1079.2</ele>
        <time>2021-09-07T18:41:22Z</time>
      </trkpt>
      <trkpt lat="44.34287" lon="5.63053">
        <ele>1079.4</ele>
        <time>2021-09-07T18:41:23Z</time>
      </trkpt>
      <trkpt lat="44.34286" lon="5.63053">
        <ele>1079.5</ele>
        <time>2021-09-07T18:41:24Z</time>
      </trkpt>
      <trkpt lat="44.34284" lon="5.63054">
        <ele>1079.8</ele>
        <time>2021-09-07T18:41:25Z</time>
      </trkpt>
      <trkpt lat="44.34281" lon="5.63055">
        <ele>1080.2</ele>
        <time>2021-09-07T18:41:26Z</time>
      </trkpt>
      <trkpt lat="44.3428" lon="5.63056">
        <ele>1080.4</ele>
        <time>2021-09-07T18:41:27Z</time>
      </trkpt>
      <trkpt lat="44.34278" lon="5.63057">
        <ele>1080.6</ele>
        <time>2021-09-07T18:41:28Z</time>
      </trkpt>
      <trkpt lat="44.34276" lon="5.63059">
        <ele>1080.9</ele>
        <time>2021-09-07T18:41:29Z</time>
      </trkpt>
      <trkpt lat="44.34275" lon="5.63061">
        <ele>1081.1</ele>
        <time>2021-09-07T18:41:30Z</time>
      </trkpt>
      <trkpt lat="44.34274" lon="5.63064">
        <ele>1081.4</ele>
        <time>2021-09-07T18:41:31Z</time>
      </trkpt>
      <trkpt lat="44.34274" lon="5.63067">
        <ele>1081.6</ele>
        <time>2021-09-07T18:41:32Z</time>
      </trkpt>
      <trkpt lat="44.34273" lon="5.63069">
        <ele>1081.8</ele>
        <time>2021-09-07T18:41:33Z</time>
      </trkpt>
      <trkpt lat="44.34272" lon="5.63071">
        <ele>1082</ele>
        <time>2021-09-07T18:41:34Z</time>
      </trkpt>
      <trkpt lat="44.34271" lon="5.63072">
        <ele>1082.2</ele>
        <time>2021-09-07T18:41:35Z</time>
      </trkpt>
      <trkpt lat="44.3427" lon="5.63072">
        <ele>1082.3</ele>
        <time>2021-09-07T18:41:36Z</time>
      </trkpt>
      <trkpt lat="44.34271" lon="5.63072">
        <ele>1082.5</ele>
        <time>2021-09-07T18:41:37Z</time>
      </trkpt>
      <trkpt lat="44.34271" lon="5.63072">
        <ele>1082.5</ele>
        <time>2021-09-07T18:41:38Z</time>
      </trkpt>
      <trkpt lat="44.34271" lon="5.63072">
        <ele>1082.5</ele>
        <time>2021-09-07T18:41:39Z</time>
      </trkpt>
      <trkpt lat="44.34271" lon="5.63072">
        <ele>1082.5</ele>
        <time>2021-09-07T18:41:40Z</time>
      </trkpt>
      <trkpt lat="44.34272" lon="5.63072">
        <ele>1082.5</ele>
        <time>2021-09-07T18:41:41Z</time>
      </trkpt>
      <trkpt lat="44.34272" lon="5.63072">
        <ele>1082.6</ele>
        <time>2021-09-07T18:41:42Z</time>
      </trkpt>
      <trkpt lat="44.34272" lon="5.63072">
        <ele>1082.6</ele>
        <time>2021-09-07T18:41:43Z</time>
      </trkpt>
      <trkpt lat="44.34272" lon="5.63072">
        <ele>1082.6</ele>
        <time>2021-09-07T18:41:44Z</time>
      </trkpt>
      <trkpt lat="44.34272" lon="5.63072">
        <ele>1082.6</ele>
        <time>2021-09-07T18:41:45Z</time>
      </trkpt>
      <trkpt lat="44.34272" lon="5.63072">
        <ele>1082.6</ele>
        <time>2021-09-07T18:41:46Z</time>
      </trkpt>
      <trkpt lat="44.34272" lon="5.63072">
        <ele>1082.6</ele>
        <time>2021-09-07T18:41:47Z</time>
      </trkpt>
      <trkpt lat="44.34272" lon="5.63072">
        <ele>1082.6</ele>
        <time>2021-09-07T18:41:48Z</time>
      </trkpt>
      <trkpt lat="44.34272" lon="5.63072">
        <ele>1082.6</ele>
        <time>2021-09-07T18:41:49Z</time>
      </trkpt>
      <trkpt lat="44.34273" lon="5.63072">
        <ele>1082.6</ele>
        <time>2021-09-07T18:41:50Z</time>
      </trkpt>
      <trkpt lat="44.34273" lon="5.63072">
        <ele>1082.7</ele>
        <time>2021-09-07T18:41:51Z</time>
      </trkpt>
      <trkpt lat="44.34273" lon="5.63072">
        <ele>1082.7</ele>
        <time>2021-09-07T18:41:52Z</time>
      </trkpt>
      <trkpt lat="44.34273" lon="5.63072">
        <ele>1082.7</ele>
        <time>2021-09-07T18:41:53Z</time>
      </trkpt>
      <trkpt lat="44.34273" lon="5.63072">
        <ele>1082.7</ele>
        <time>2021-09-07T18:41:54Z</time>
      </trkpt>
      <trkpt lat="44.34273" lon="5.63072">
        <ele>1082.7</ele>
        <time>2021-09-07T18:41:55Z</time>
      </trkpt>
      <trkpt lat="44.34273" lon="5.63072">
        <ele>1082.8</ele>
        <time>2021-09-07T18:41:56Z</time>
      </trkpt>
      <trkpt lat="44.34272" lon="5.63072">
        <ele>1082.8</ele>
        <time>2021-09-07T18:41:57Z</time>
      </trkpt>
      <trkpt lat="44.34272" lon="5.63072">
        <ele>1082.8</ele>
        <time>2021-09-07T18:41:58Z</time>
      </trkpt>
      <trkpt lat="44.34272" lon="5.63072">
        <ele>1082.8</ele>
        <time>2021-09-07T18:41:59Z</time>
      </trkpt>
      <trkpt lat="44.34272" lon="5.63072">
        <ele>1082.8</ele>
        <time>2021-09-07T18:42:00Z</time>
      </trkpt>
      <trkpt lat="44.34272" lon="5.63072">
        <ele>1082.8</ele>
        <time>2021-09-07T18:42:01Z</time>
      </trkpt>
      <trkpt lat="44.34272" lon="5.63072">
        <ele>1082.8</ele>
        <time>2021-09-07T18:42:02Z</time>
      </trkpt>
      <trkpt lat="44.34272" lon="5.63072">
        <ele>1082.8</ele>
        <time>2021-09-07T18:42:03Z</time>
      </trkpt>
      <trkpt lat="44.34272" lon="5.63072">
        <ele>1082.8</ele>
        <time>2021-09-07T18:42:04Z</time>
      </trkpt>
      <trkpt lat="44.34273" lon="5.63072">
        <ele>1082.9</ele>
        <time>2021-09-07T18:42:05Z</time>
      </trkpt>
      <trkpt lat="44.34273" lon="5.63072">
        <ele>1082.9</ele>
        <time>2021-09-07T18:42:06Z</time>
      </trkpt>
      <trkpt lat="44.34273" lon="5.63072">
        <ele>1082.9</ele>
        <time>2021-09-07T18:42:07Z</time>
      </trkpt>
      <trkpt lat="44.34273" lon="5.63072">
        <ele>1082.9</ele>
        <time>2021-09-07T18:42:08Z</time>
      </trkpt>
      <trkpt lat="44.34273" lon="5.63072">
        <ele>1082.9</ele>
        <time>2021-09-07T18:42:09Z</time>
      </trkpt>
      <trkpt lat="44.34273" lon="5.63072">
        <ele>1082.9</ele>
        <time>2021-09-07T18:42:10Z</time>
      </trkpt>
      <trkpt lat="44.34273" lon="5.63072">
        <ele>1082.9</ele>
        <time>2021-09-07T18:42:11Z</time>
      </trkpt>
      <trkpt lat="44.34273" lon="5.63072">
        <ele>1082.9</ele>
        <time>2021-09-07T18:42:12Z</time>
      </trkpt>
      <trkpt lat="44.34272" lon="5.63072">
        <ele>1083.1</ele>
        <time>2021-09-07T18:42:13Z</time>
      </trkpt>
      <trkpt lat="44.34271" lon="5.63072">
        <ele>1083.2</ele>
        <time>2021-09-07T18:42:14Z</time>
      </trkpt>
      <trkpt lat="44.34271" lon="5.63073">
        <ele>1083.3</ele>
        <time>2021-09-07T18:42:15Z</time>
      </trkpt>
      <trkpt lat="44.3427" lon="5.63073">
        <ele>1083.3</ele>
        <time>2021-09-07T18:42:16Z</time>
      </trkpt>
      <trkpt lat="44.3427" lon="5.63073">
        <ele>1083.3</ele>
        <time>2021-09-07T18:42:17Z</time>
      </trkpt>
      <trkpt lat="44.34269" lon="5.63073">
        <ele>1083.5</ele>
        <time>2021-09-07T18:42:18Z</time>
      </trkpt>
      <trkpt lat="44.34269" lon="5.63073">
        <ele>1083.5</ele>
        <time>2021-09-07T18:42:19Z</time>
      </trkpt>
      <trkpt lat="44.34268" lon="5.63073">
        <ele>1083.6</ele>
        <time>2021-09-07T18:42:20Z</time>
      </trkpt>
      <trkpt lat="44.34267" lon="5.63073">
        <ele>1083.7</ele>
        <time>2021-09-07T18:42:21Z</time>
      </trkpt>
      <trkpt lat="44.34267" lon="5.63073">
        <ele>1083.8</ele>
        <time>2021-09-07T18:42:22Z</time>
      </trkpt>
      <trkpt lat="44.34266" lon="5.63073">
        <ele>1083.8</ele>
        <time>2021-09-07T18:42:23Z</time>
      </trkpt>
      <trkpt lat="44.34266" lon="5.63073">
        <ele>1083.9</ele>
        <time>2021-09-07T18:42:24Z</time>
      </trkpt>
      <trkpt lat="44.34265" lon="5.63073">
        <ele>1083.9</ele>
        <time>2021-09-07T18:42:25Z</time>
      </trkpt>
      <trkpt lat="44.34264" lon="5.63072">
        <ele>1084.1</ele>
        <time>2021-09-07T18:42:26Z</time>
      </trkpt>
      <trkpt lat="44.34264" lon="5.63072">
        <ele>1084.1</ele>
        <time>2021-09-07T18:42:27Z</time>
      </trkpt>
      <trkpt lat="44.34263" lon="5.63072">
        <ele>1084.2</ele>
        <time>2021-09-07T18:42:28Z</time>
      </trkpt>
      <trkpt lat="44.34263" lon="5.63072">
        <ele>1084.2</ele>
        <time>2021-09-07T18:42:29Z</time>
      </trkpt>
      <trkpt lat="44.34263" lon="5.63071">
        <ele>1084.3</ele>
        <time>2021-09-07T18:42:30Z</time>
      </trkpt>
      <trkpt lat="44.34263" lon="5.63071">
        <ele>1084.3</ele>
        <time>2021-09-07T18:42:31Z</time>
      </trkpt>
      <trkpt lat="44.34263" lon="5.63071">
        <ele>1084.3</ele>
        <time>2021-09-07T18:42:32Z</time>
      </trkpt>
      <trkpt lat="44.34263" lon="5.63071">
        <ele>1084.3</ele>
        <time>2021-09-07T18:42:33Z</time>
      </trkpt>
      <trkpt lat="44.34262" lon="5.63071">
        <ele>1084.4</ele>
        <time>2021-09-07T18:42:34Z</time>
      </trkpt>
      <trkpt lat="44.34262" lon="5.63071">
        <ele>1084.4</ele>
        <time>2021-09-07T18:42:35Z</time>
      </trkpt>
      <trkpt lat="44.34262" lon="5.63071">
        <ele>1084.4</ele>
        <time>2021-09-07T18:42:36Z</time>
      </trkpt>
      <trkpt lat="44.34262" lon="5.63071">
        <ele>1084.4</ele>
        <time>2021-09-07T18:42:37Z</time>
      </trkpt>
      <trkpt lat="44.34262" lon="5.63071">
        <ele>1084.4</ele>
        <time>2021-09-07T18:42:38Z</time>
      </trkpt>
      <trkpt lat="44.34262" lon="5.63071">
        <ele>1084.4</ele>
        <time>2021-09-07T18:42:39Z</time>
      </trkpt>
      <trkpt lat="44.34262" lon="5.63071">
        <ele>1084.4</ele>
        <time>2021-09-07T18:42:40Z</time>
      </trkpt>
      <trkpt lat="44.34262" lon="5.63072">
        <ele>1084.5</ele>
        <time>2021-09-07T18:42:41Z</time>
      </trkpt>
      <trkpt lat="44.34262" lon="5.63072">
        <ele>1084.5</ele>
        <time>2021-09-07T18:42:42Z</time>
      </trkpt>
      <trkpt lat="44.34262" lon="5.63072">
        <ele>1084.5</ele>
        <time>2021-09-07T18:42:43Z</time>
      </trkpt>
      <trkpt lat="44.34262" lon="5.63072">
        <ele>1084.5</ele>
        <time>2021-09-07T18:42:44Z</time>
      </trkpt>
      <trkpt lat="44.34262" lon="5.63072">
        <ele>1084.5</ele>
        <time>2021-09-07T18:42:45Z</time>
      </trkpt>
      <trkpt lat="44.34262" lon="5.63072">
        <ele>1084.5</ele>
        <time>2021-09-07T18:42:46Z</time>
      </trkpt>
      <trkpt lat="44.34262" lon="5.63072">
        <ele>1084.5</ele>
        <time>2021-09-07T18:42:47Z</time>
      </trkpt>
      <trkpt lat="44.34262" lon="5.63072">
        <ele>1084.5</ele>
        <time>2021-09-07T18:42:48Z</time>
      </trkpt>
      <trkpt lat="44.34262" lon="5.63071">
        <ele>1084.6</ele>
        <time>2021-09-07T18:42:49Z</time>
      </trkpt>
      <trkpt lat="44.34261" lon="5.63073">
        <ele>1084.7</ele>
        <time>2021-09-07T18:42:50Z</time>
      </trkpt>
      <trkpt lat="44.34261" lon="5.63074">
        <ele>1084.8</ele>
        <time>2021-09-07T18:42:51Z</time>
      </trkpt>
      <trkpt lat="44.3426" lon="5.63075">
        <ele>1084.9</ele>
        <time>2021-09-07T18:42:52Z</time>
      </trkpt>
      <trkpt lat="44.3426" lon="5.63076">
        <ele>1085</ele>
        <time>2021-09-07T18:42:53Z</time>
      </trkpt>
      <trkpt lat="44.34259" lon="5.63078">
        <ele>1085.2</ele>
        <time>2021-09-07T18:42:54Z</time>
      </trkpt>
      <trkpt lat="44.34258" lon="5.63078">
        <ele>1085.3</ele>
        <time>2021-09-07T18:42:55Z</time>
      </trkpt>
      <trkpt lat="44.34258" lon="5.63079">
        <ele>1085.3</ele>
        <time>2021-09-07T18:42:56Z</time>
      </trkpt>
      <trkpt lat="44.34258" lon="5.63079">
        <ele>1085.4</ele>
        <time>2021-09-07T18:42:57Z</time>
      </trkpt>
      <trkpt lat="44.34257" lon="5.6308">
        <ele>1085.5</ele>
        <time>2021-09-07T18:42:58Z</time>
      </trkpt>
      <trkpt lat="44.34257" lon="5.6308">
        <ele>1085.5</ele>
        <time>2021-09-07T18:42:59Z</time>
      </trkpt>
      <trkpt lat="44.34257" lon="5.63081">
        <ele>1085.6</ele>
        <time>2021-09-07T18:43:00Z</time>
      </trkpt>
      <trkpt lat="44.34257" lon="5.63081">
        <ele>1085.6</ele>
        <time>2021-09-07T18:43:01Z</time>
      </trkpt>
      <trkpt lat="44.34257" lon="5.63081">
        <ele>1085.6</ele>
        <time>2021-09-07T18:43:02Z</time>
      </trkpt>
      <trkpt lat="44.34257" lon="5.63081">
        <ele>1085.6</ele>
        <time>2021-09-07T18:43:03Z</time>
      </trkpt>
      <trkpt lat="44.34256" lon="5.63082">
        <ele>1085.7</ele>
        <time>2021-09-07T18:43:04Z</time>
      </trkpt>
      <trkpt lat="44.34256" lon="5.63082">
        <ele>1085.7</ele>
        <time>2021-09-07T18:43:05Z</time>
      </trkpt>
      <trkpt lat="44.34256" lon="5.63082">
        <ele>1085.7</ele>
        <time>2021-09-07T18:43:06Z</time>
      </trkpt>
      <trkpt lat="44.34256" lon="5.63082">
        <ele>1085.7</ele>
        <time>2021-09-07T18:43:07Z</time>
      </trkpt>
      <trkpt lat="44.34256" lon="5.63082">
        <ele>1085.7</ele>
        <time>2021-09-07T18:43:08Z</time>
      </trkpt>
      <trkpt lat="44.34256" lon="5.63082">
        <ele>1085.7</ele>
        <time>2021-09-07T18:43:09Z</time>
      </trkpt>
      <trkpt lat="44.34256" lon="5.63081">
        <ele>1085.8</ele>
        <time>2021-09-07T18:43:10Z</time>
      </trkpt>
      <trkpt lat="44.34256" lon="5.63081">
        <ele>1085.8</ele>
        <time>2021-09-07T18:43:11Z</time>
      </trkpt>
      <trkpt lat="44.34256" lon="5.63082">
        <ele>1085.8</ele>
        <time>2021-09-07T18:43:12Z</time>
      </trkpt>
      <trkpt lat="44.34256" lon="5.63082">
        <ele>1085.9</ele>
        <time>2021-09-07T18:43:13Z</time>
      </trkpt>
      <trkpt lat="44.34256" lon="5.63082">
        <ele>1085.9</ele>
        <time>2021-09-07T18:43:14Z</time>
      </trkpt>
      <trkpt lat="44.34256" lon="5.63082">
        <ele>1085.9</ele>
        <time>2021-09-07T18:43:15Z</time>
      </trkpt>
      <trkpt lat="44.34256" lon="5.63082">
        <ele>1085.9</ele>
        <time>2021-09-07T18:43:16Z</time>
      </trkpt>
      <trkpt lat="44.34256" lon="5.63082">
        <ele>1085.9</ele>
        <time>2021-09-07T18:43:17Z</time>
      </trkpt>
      <trkpt lat="44.34256" lon="5.63082">
        <ele>1085.9</ele>
        <time>2021-09-07T18:43:18Z</time>
      </trkpt>
      <trkpt lat="44.34256" lon="5.63082">
        <ele>1085.9</ele>
        <time>2021-09-07T18:43:19Z</time>
      </trkpt>
      <trkpt lat="44.34256" lon="5.63082">
        <ele>1085.9</ele>
        <time>2021-09-07T18:43:20Z</time>
      </trkpt>
      <trkpt lat="44.34256" lon="5.63082">
        <ele>1085.9</ele>
        <time>2021-09-07T18:43:21Z</time>
      </trkpt>
      <trkpt lat="44.34256" lon="5.63082">
        <ele>1085.9</ele>
        <time>2021-09-07T18:43:22Z</time>
      </trkpt>
      <trkpt lat="44.34256" lon="5.63082">
        <ele>1085.9</ele>
        <time>2021-09-07T18:43:23Z</time>
      </trkpt>
      <trkpt lat="44.34256" lon="5.63082">
        <ele>1085.9</ele>
        <time>2021-09-07T18:43:24Z</time>
      </trkpt>
      <trkpt lat="44.34255" lon="5.63081">
        <ele>1086</ele>
        <time>2021-09-07T18:43:25Z</time>
      </trkpt>
      <trkpt lat="44.34253" lon="5.6308">
        <ele>1086.2</ele>
        <time>2021-09-07T18:43:26Z</time>
      </trkpt>
      <trkpt lat="44.34252" lon="5.6308">
        <ele>1086.3</ele>
        <time>2021-09-07T18:43:27Z</time>
      </trkpt>
      <trkpt lat="44.34251" lon="5.6308">
        <ele>1086.4</ele>
        <time>2021-09-07T18:43:28Z</time>
      </trkpt>
      <trkpt lat="44.34249" lon="5.6308">
        <ele>1086.6</ele>
        <time>2021-09-07T18:43:29Z</time>
      </trkpt>
      <trkpt lat="44.34248" lon="5.6308">
        <ele>1086.8</ele>
        <time>2021-09-07T18:43:30Z</time>
      </trkpt>
      <trkpt lat="44.34248" lon="5.6308">
        <ele>1086.8</ele>
        <time>2021-09-07T18:43:31Z</time>
      </trkpt>
      <trkpt lat="44.34247" lon="5.6308">
        <ele>1086.9</ele>
        <time>2021-09-07T18:43:32Z</time>
      </trkpt>
      <trkpt lat="44.34247" lon="5.6308">
        <ele>1086.9</ele>
        <time>2021-09-07T18:43:33Z</time>
      </trkpt>
      <trkpt lat="44.34247" lon="5.6308">
        <ele>1086.9</ele>
        <time>2021-09-07T18:43:34Z</time>
      </trkpt>
      <trkpt lat="44.34246" lon="5.6308">
        <ele>1087</ele>
        <time>2021-09-07T18:43:35Z</time>
      </trkpt>
      <trkpt lat="44.34246" lon="5.6308">
        <ele>1087</ele>
        <time>2021-09-07T18:43:36Z</time>
      </trkpt>
      <trkpt lat="44.34245" lon="5.6308">
        <ele>1087.1</ele>
        <time>2021-09-07T18:43:37Z</time>
      </trkpt>
      <trkpt lat="44.34244" lon="5.6308">
        <ele>1087.2</ele>
        <time>2021-09-07T18:43:38Z</time>
      </trkpt>
      <trkpt lat="44.34243" lon="5.6308">
        <ele>1087.3</ele>
        <time>2021-09-07T18:43:39Z</time>
      </trkpt>
      <trkpt lat="44.34242" lon="5.6308">
        <ele>1087.5</ele>
        <time>2021-09-07T18:43:40Z</time>
      </trkpt>
      <trkpt lat="44.34241" lon="5.6308">
        <ele>1087.6</ele>
        <time>2021-09-07T18:43:41Z</time>
      </trkpt>
      <trkpt lat="44.34239" lon="5.63081">
        <ele>1087.8</ele>
        <time>2021-09-07T18:43:42Z</time>
      </trkpt>
      <trkpt lat="44.34239" lon="5.63081">
        <ele>1087.9</ele>
        <time>2021-09-07T18:43:43Z</time>
      </trkpt>
      <trkpt lat="44.34238" lon="5.63081">
        <ele>1087.9</ele>
        <time>2021-09-07T18:43:44Z</time>
      </trkpt>
      <trkpt lat="44.34237" lon="5.63081">
        <ele>1088.1</ele>
        <time>2021-09-07T18:43:45Z</time>
      </trkpt>
      <trkpt lat="44.34237" lon="5.63081">
        <ele>1088.1</ele>
        <time>2021-09-07T18:43:46Z</time>
      </trkpt>
      <trkpt lat="44.34237" lon="5.63081">
        <ele>1088.1</ele>
        <time>2021-09-07T18:43:47Z</time>
      </trkpt>
      <trkpt lat="44.34236" lon="5.63081">
        <ele>1088.2</ele>
        <time>2021-09-07T18:43:48Z</time>
      </trkpt>
      <trkpt lat="44.34236" lon="5.63081">
        <ele>1088.2</ele>
        <time>2021-09-07T18:43:49Z</time>
      </trkpt>
      <trkpt lat="44.34236" lon="5.63081">
        <ele>1088.2</ele>
        <time>2021-09-07T18:43:50Z</time>
      </trkpt>
      <trkpt lat="44.34236" lon="5.63081">
        <ele>1088.2</ele>
        <time>2021-09-07T18:43:51Z</time>
      </trkpt>
      <trkpt lat="44.34236" lon="5.63081">
        <ele>1088.2</ele>
        <time>2021-09-07T18:43:52Z</time>
      </trkpt>
      <trkpt lat="44.34236" lon="5.63081">
        <ele>1088.2</ele>
        <time>2021-09-07T18:43:53Z</time>
      </trkpt>
      <trkpt lat="44.34236" lon="5.63081">
        <ele>1088.2</ele>
        <time>2021-09-07T18:43:54Z</time>
      </trkpt>
      <trkpt lat="44.34236" lon="5.63081">
        <ele>1088.2</ele>
        <time>2021-09-07T18:43:55Z</time>
      </trkpt>
      <trkpt lat="44.34236" lon="5.63081">
        <ele>1088.2</ele>
        <time>2021-09-07T18:43:56Z</time>
      </trkpt>
      <trkpt lat="44.34235" lon="5.63081">
        <ele>1088.3</ele>
        <time>2021-09-07T18:43:57Z</time>
      </trkpt>
      <trkpt lat="44.34235" lon="5.63081">
        <ele>1088.3</ele>
        <time>2021-09-07T18:43:58Z</time>
      </trkpt>
      <trkpt lat="44.34235" lon="5.63081">
        <ele>1088.3</ele>
        <time>2021-09-07T18:43:59Z</time>
      </trkpt>
      <trkpt lat="44.34235" lon="5.63081">
        <ele>1088.3</ele>
        <time>2021-09-07T18:44:00Z</time>
      </trkpt>
      <trkpt lat="44.34235" lon="5.63081">
        <ele>1088.3</ele>
        <time>2021-09-07T18:44:01Z</time>
      </trkpt>
      <trkpt lat="44.34235" lon="5.63081">
        <ele>1088.3</ele>
        <time>2021-09-07T18:44:02Z</time>
      </trkpt>
      <trkpt lat="44.34235" lon="5.63081">
        <ele>1088.3</ele>
        <time>2021-09-07T18:44:03Z</time>
      </trkpt>
      <trkpt lat="44.34235" lon="5.63081">
        <ele>1088.3</ele>
        <time>2021-09-07T18:44:04Z</time>
      </trkpt>
      <trkpt lat="44.34235" lon="5.63081">
        <ele>1088.3</ele>
        <time>2021-09-07T18:44:05Z</time>
      </trkpt>
      <trkpt lat="44.34235" lon="5.63082">
        <ele>1088.4</ele>
        <time>2021-09-07T18:44:06Z</time>
      </trkpt>
      <trkpt lat="44.34235" lon="5.63083">
        <ele>1088.5</ele>
        <time>2021-09-07T18:44:07Z</time>
      </trkpt>
      <trkpt lat="44.34234" lon="5.63083">
        <ele>1088.5</ele>
        <time>2021-09-07T18:44:08Z</time>
      </trkpt>
      <trkpt lat="44.34233" lon="5.63086">
        <ele>1088.8</ele>
        <time>2021-09-07T18:44:09Z</time>
      </trkpt>
      <trkpt lat="44.34233" lon="5.63087">
        <ele>1088.9</ele>
        <time>2021-09-07T18:44:10Z</time>
      </trkpt>
      <trkpt lat="44.34232" lon="5.63088">
        <ele>1089</ele>
        <time>2021-09-07T18:44:11Z</time>
      </trkpt>
      <trkpt lat="44.34231" lon="5.6309">
        <ele>1089.3</ele>
        <time>2021-09-07T18:44:12Z</time>
      </trkpt>
      <trkpt lat="44.34231" lon="5.63091">
        <ele>1089.3</ele>
        <time>2021-09-07T18:44:13Z</time>
      </trkpt>
      <trkpt lat="44.34231" lon="5.63091">
        <ele>1089.3</ele>
        <time>2021-09-07T18:44:14Z</time>
      </trkpt>
      <trkpt lat="44.34231" lon="5.63092">
        <ele>1089.4</ele>
        <time>2021-09-07T18:44:15Z</time>
      </trkpt>
      <trkpt lat="44.34231" lon="5.63093">
        <ele>1089.5</ele>
        <time>2021-09-07T18:44:16Z</time>
      </trkpt>
      <trkpt lat="44.34231" lon="5.63093">
        <ele>1089.5</ele>
        <time>2021-09-07T18:44:17Z</time>
      </trkpt>
      <trkpt lat="44.34231" lon="5.63093">
        <ele>1089.5</ele>
        <time>2021-09-07T18:44:18Z</time>
      </trkpt>
      <trkpt lat="44.3423" lon="5.63093">
        <ele>1089.6</ele>
        <time>2021-09-07T18:44:19Z</time>
      </trkpt>
      <trkpt lat="44.3423" lon="5.63094">
        <ele>1089.7</ele>
        <time>2021-09-07T18:44:20Z</time>
      </trkpt>
      <trkpt lat="44.3423" lon="5.63094">
        <ele>1089.7</ele>
        <time>2021-09-07T18:44:21Z</time>
      </trkpt>
      <trkpt lat="44.3423" lon="5.63094">
        <ele>1089.7</ele>
        <time>2021-09-07T18:44:22Z</time>
      </trkpt>
      <trkpt lat="44.3423" lon="5.63094">
        <ele>1089.7</ele>
        <time>2021-09-07T18:44:23Z</time>
      </trkpt>
      <trkpt lat="44.3423" lon="5.63095">
        <ele>1089.8</ele>
        <time>2021-09-07T18:44:24Z</time>
      </trkpt>
      <trkpt lat="44.34229" lon="5.63096">
        <ele>1089.9</ele>
        <time>2021-09-07T18:44:25Z</time>
      </trkpt>
      <trkpt lat="44.34227" lon="5.63098">
        <ele>1090.2</ele>
        <time>2021-09-07T18:44:26Z</time>
      </trkpt>
      <trkpt lat="44.34227" lon="5.63099">
        <ele>1090.3</ele>
        <time>2021-09-07T18:44:27Z</time>
      </trkpt>
      <trkpt lat="44.34226" lon="5.63099">
        <ele>1090.4</ele>
        <time>2021-09-07T18:44:28Z</time>
      </trkpt>
      <trkpt lat="44.34225" lon="5.63099">
        <ele>1090.5</ele>
        <time>2021-09-07T18:44:29Z</time>
      </trkpt>
      <trkpt lat="44.34225" lon="5.631">
        <ele>1090.6</ele>
        <time>2021-09-07T18:44:30Z</time>
      </trkpt>
      <trkpt lat="44.34224" lon="5.631">
        <ele>1090.7</ele>
        <time>2021-09-07T18:44:31Z</time>
      </trkpt>
      <trkpt lat="44.34224" lon="5.63101">
        <ele>1090.8</ele>
        <time>2021-09-07T18:44:32Z</time>
      </trkpt>
      <trkpt lat="44.34223" lon="5.63101">
        <ele>1090.9</ele>
        <time>2021-09-07T18:44:33Z</time>
      </trkpt>
      <trkpt lat="44.34223" lon="5.63101">
        <ele>1090.9</ele>
        <time>2021-09-07T18:44:34Z</time>
      </trkpt>
      <trkpt lat="44.34223" lon="5.63102">
        <ele>1090.9</ele>
        <time>2021-09-07T18:44:35Z</time>
      </trkpt>
      <trkpt lat="44.34223" lon="5.63102">
        <ele>1091</ele>
        <time>2021-09-07T18:44:36Z</time>
      </trkpt>
      <trkpt lat="44.34223" lon="5.63102">
        <ele>1091</ele>
        <time>2021-09-07T18:44:37Z</time>
      </trkpt>
      <trkpt lat="44.34223" lon="5.63102">
        <ele>1091</ele>
        <time>2021-09-07T18:44:38Z</time>
      </trkpt>
      <trkpt lat="44.34222" lon="5.63102">
        <ele>1091.1</ele>
        <time>2021-09-07T18:44:39Z</time>
      </trkpt>
      <trkpt lat="44.34222" lon="5.63103">
        <ele>1091.2</ele>
        <time>2021-09-07T18:44:40Z</time>
      </trkpt>
      <trkpt lat="44.34222" lon="5.63103">
        <ele>1091.2</ele>
        <time>2021-09-07T18:44:41Z</time>
      </trkpt>
      <trkpt lat="44.34222" lon="5.63103">
        <ele>1091.2</ele>
        <time>2021-09-07T18:44:42Z</time>
      </trkpt>
      <trkpt lat="44.34222" lon="5.63103">
        <ele>1091.2</ele>
        <time>2021-09-07T18:44:43Z</time>
      </trkpt>
      <trkpt lat="44.34222" lon="5.63103">
        <ele>1091.2</ele>
        <time>2021-09-07T18:44:44Z</time>
      </trkpt>
      <trkpt lat="44.34222" lon="5.63104">
        <ele>1091.3</ele>
        <time>2021-09-07T18:44:45Z</time>
      </trkpt>
      <trkpt lat="44.34222" lon="5.63104">
        <ele>1091.3</ele>
        <time>2021-09-07T18:44:46Z</time>
      </trkpt>
      <trkpt lat="44.34222" lon="5.63104">
        <ele>1091.3</ele>
        <time>2021-09-07T18:44:47Z</time>
      </trkpt>
      <trkpt lat="44.34221" lon="5.63104">
        <ele>1091.4</ele>
        <time>2021-09-07T18:44:48Z</time>
      </trkpt>
      <trkpt lat="44.34219" lon="5.63104">
        <ele>1091.6</ele>
        <time>2021-09-07T18:44:49Z</time>
      </trkpt>
      <trkpt lat="44.34217" lon="5.63104">
        <ele>1091.8</ele>
        <time>2021-09-07T18:44:50Z</time>
      </trkpt>
      <trkpt lat="44.34216" lon="5.63104">
        <ele>1092</ele>
        <time>2021-09-07T18:44:51Z</time>
      </trkpt>
      <trkpt lat="44.34215" lon="5.63104">
        <ele>1092.1</ele>
        <time>2021-09-07T18:44:52Z</time>
      </trkpt>
      <trkpt lat="44.34215" lon="5.63104">
        <ele>1092.1</ele>
        <time>2021-09-07T18:44:53Z</time>
      </trkpt>
      <trkpt lat="44.34214" lon="5.63104">
        <ele>1092.2</ele>
        <time>2021-09-07T18:44:54Z</time>
      </trkpt>
      <trkpt lat="44.34213" lon="5.63104">
        <ele>1092.3</ele>
        <time>2021-09-07T18:44:55Z</time>
      </trkpt>
      <trkpt lat="44.34212" lon="5.63105">
        <ele>1092.5</ele>
        <time>2021-09-07T18:44:56Z</time>
      </trkpt>
      <trkpt lat="44.34212" lon="5.63106">
        <ele>1092.5</ele>
        <time>2021-09-07T18:44:57Z</time>
      </trkpt>
      <trkpt lat="44.34212" lon="5.63106">
        <ele>1092.5</ele>
        <time>2021-09-07T18:44:58Z</time>
      </trkpt>
      <trkpt lat="44.34212" lon="5.63106">
        <ele>1092.6</ele>
        <time>2021-09-07T18:44:59Z</time>
      </trkpt>
      <trkpt lat="44.34211" lon="5.63106">
        <ele>1092.7</ele>
        <time>2021-09-07T18:45:00Z</time>
      </trkpt>
      <trkpt lat="44.3421" lon="5.63107">
        <ele>1092.8</ele>
        <time>2021-09-07T18:45:01Z</time>
      </trkpt>
      <trkpt lat="44.34209" lon="5.63109">
        <ele>1093</ele>
        <time>2021-09-07T18:45:02Z</time>
      </trkpt>
      <trkpt lat="44.34208" lon="5.6311">
        <ele>1093.2</ele>
        <time>2021-09-07T18:45:03Z</time>
      </trkpt>
      <trkpt lat="44.34207" lon="5.63111">
        <ele>1093.3</ele>
        <time>2021-09-07T18:45:04Z</time>
      </trkpt>
      <trkpt lat="44.34207" lon="5.63112">
        <ele>1093.4</ele>
        <time>2021-09-07T18:45:05Z</time>
      </trkpt>
      <trkpt lat="44.34206" lon="5.63114">
        <ele>1093.6</ele>
        <time>2021-09-07T18:45:06Z</time>
      </trkpt>
      <trkpt lat="44.34206" lon="5.63115">
        <ele>1093.7</ele>
        <time>2021-09-07T18:45:07Z</time>
      </trkpt>
      <trkpt lat="44.34205" lon="5.63115">
        <ele>1093.8</ele>
        <time>2021-09-07T18:45:08Z</time>
      </trkpt>
      <trkpt lat="44.34205" lon="5.63116">
        <ele>1093.9</ele>
        <time>2021-09-07T18:45:09Z</time>
      </trkpt>
      <trkpt lat="44.34204" lon="5.63116">
        <ele>1094</ele>
        <time>2021-09-07T18:45:10Z</time>
      </trkpt>
      <trkpt lat="44.34204" lon="5.63117">
        <ele>1094</ele>
        <time>2021-09-07T18:45:11Z</time>
      </trkpt>
      <trkpt lat="44.34204" lon="5.63118">
        <ele>1094.1</ele>
        <time>2021-09-07T18:45:12Z</time>
      </trkpt>
      <trkpt lat="44.34203" lon="5.63118">
        <ele>1094.2</ele>
        <time>2021-09-07T18:45:13Z</time>
      </trkpt>
      <trkpt lat="44.34203" lon="5.63119">
        <ele>1094.2</ele>
        <time>2021-09-07T18:45:14Z</time>
      </trkpt>
      <trkpt lat="44.34203" lon="5.63119">
        <ele>1094.3</ele>
        <time>2021-09-07T18:45:15Z</time>
      </trkpt>
      <trkpt lat="44.34203" lon="5.63119">
        <ele>1094.3</ele>
        <time>2021-09-07T18:45:16Z</time>
      </trkpt>
      <trkpt lat="44.34203" lon="5.63119">
        <ele>1094.3</ele>
        <time>2021-09-07T18:45:17Z</time>
      </trkpt>
      <trkpt lat="44.34202" lon="5.63119">
        <ele>1094.4</ele>
        <time>2021-09-07T18:45:18Z</time>
      </trkpt>
      <trkpt lat="44.34202" lon="5.6312">
        <ele>1094.5</ele>
        <time>2021-09-07T18:45:19Z</time>
      </trkpt>
      <trkpt lat="44.34202" lon="5.6312">
        <ele>1094.5</ele>
        <time>2021-09-07T18:45:20Z</time>
      </trkpt>
      <trkpt lat="44.34202" lon="5.6312">
        <ele>1094.5</ele>
        <time>2021-09-07T18:45:21Z</time>
      </trkpt>
      <trkpt lat="44.34202" lon="5.6312">
        <ele>1094.5</ele>
        <time>2021-09-07T18:45:22Z</time>
      </trkpt>
      <trkpt lat="44.34202" lon="5.6312">
        <ele>1094.5</ele>
        <time>2021-09-07T18:45:23Z</time>
      </trkpt>
      <trkpt lat="44.34202" lon="5.6312">
        <ele>1094.5</ele>
        <time>2021-09-07T18:45:24Z</time>
      </trkpt>
      <trkpt lat="44.34202" lon="5.6312">
        <ele>1094.5</ele>
        <time>2021-09-07T18:45:25Z</time>
      </trkpt>
      <trkpt lat="44.34202" lon="5.6312">
        <ele>1094.5</ele>
        <time>2021-09-07T18:45:26Z</time>
      </trkpt>
      <trkpt lat="44.34202" lon="5.6312">
        <ele>1094.5</ele>
        <time>2021-09-07T18:45:27Z</time>
      </trkpt>
      <trkpt lat="44.34202" lon="5.6312">
        <ele>1094.5</ele>
        <time>2021-09-07T18:45:28Z</time>
      </trkpt>
      <trkpt lat="44.34202" lon="5.6312">
        <ele>1094.5</ele>
        <time>2021-09-07T18:45:29Z</time>
      </trkpt>
      <trkpt lat="44.34202" lon="5.6312">
        <ele>1094.5</ele>
        <time>2021-09-07T18:45:30Z</time>
      </trkpt>
      <trkpt lat="44.34202" lon="5.6312">
        <ele>1094.5</ele>
        <time>2021-09-07T18:45:31Z</time>
      </trkpt>
      <trkpt lat="44.34202" lon="5.63121">
        <ele>1094.6</ele>
        <time>2021-09-07T18:45:32Z</time>
      </trkpt>
      <trkpt lat="44.34202" lon="5.63121">
        <ele>1094.6</ele>
        <time>2021-09-07T18:45:33Z</time>
      </trkpt>
      <trkpt lat="44.34202" lon="5.63121">
        <ele>1094.7</ele>
        <time>2021-09-07T18:45:34Z</time>
      </trkpt>
      <trkpt lat="44.34201" lon="5.6312">
        <ele>1094.8</ele>
        <time>2021-09-07T18:45:35Z</time>
      </trkpt>
      <trkpt lat="44.34201" lon="5.6312">
        <ele>1094.8</ele>
        <time>2021-09-07T18:45:36Z</time>
      </trkpt>
      <trkpt lat="44.34201" lon="5.63121">
        <ele>1094.9</ele>
        <time>2021-09-07T18:45:37Z</time>
      </trkpt>
      <trkpt lat="44.342" lon="5.63122">
        <ele>1095</ele>
        <time>2021-09-07T18:45:38Z</time>
      </trkpt>
      <trkpt lat="44.34199" lon="5.63123">
        <ele>1095.2</ele>
        <time>2021-09-07T18:45:39Z</time>
      </trkpt>
      <trkpt lat="44.34198" lon="5.63125">
        <ele>1095.4</ele>
        <time>2021-09-07T18:45:40Z</time>
      </trkpt>
      <trkpt lat="44.34197" lon="5.63126">
        <ele>1095.6</ele>
        <time>2021-09-07T18:45:41Z</time>
      </trkpt>
      <trkpt lat="44.34196" lon="5.63127">
        <ele>1095.7</ele>
        <time>2021-09-07T18:45:42Z</time>
      </trkpt>
      <trkpt lat="44.34196" lon="5.63127">
        <ele>1095.7</ele>
        <time>2021-09-07T18:45:43Z</time>
      </trkpt>
      <trkpt lat="44.34195" lon="5.63129">
        <ele>1095.9</ele>
        <time>2021-09-07T18:45:44Z</time>
      </trkpt>
      <trkpt lat="44.34195" lon="5.63129">
        <ele>1096</ele>
        <time>2021-09-07T18:45:45Z</time>
      </trkpt>
      <trkpt lat="44.34194" lon="5.63129">
        <ele>1096.1</ele>
        <time>2021-09-07T18:45:46Z</time>
      </trkpt>
      <trkpt lat="44.34194" lon="5.6313">
        <ele>1096.2</ele>
        <time>2021-09-07T18:45:47Z</time>
      </trkpt>
      <trkpt lat="44.34194" lon="5.63131">
        <ele>1096.3</ele>
        <time>2021-09-07T18:45:48Z</time>
      </trkpt>
      <trkpt lat="44.34194" lon="5.63131">
        <ele>1096.3</ele>
        <time>2021-09-07T18:45:49Z</time>
      </trkpt>
      <trkpt lat="44.34194" lon="5.63131">
        <ele>1096.3</ele>
        <time>2021-09-07T18:45:50Z</time>
      </trkpt>
      <trkpt lat="44.34194" lon="5.63131">
        <ele>1096.3</ele>
        <time>2021-09-07T18:45:51Z</time>
      </trkpt>
      <trkpt lat="44.34194" lon="5.63131">
        <ele>1096.3</ele>
        <time>2021-09-07T18:45:52Z</time>
      </trkpt>
      <trkpt lat="44.34194" lon="5.63132">
        <ele>1096.3</ele>
        <time>2021-09-07T18:45:53Z</time>
      </trkpt>
      <trkpt lat="44.34194" lon="5.63132">
        <ele>1096.3</ele>
        <time>2021-09-07T18:45:54Z</time>
      </trkpt>
      <trkpt lat="44.34194" lon="5.63132">
        <ele>1096.3</ele>
        <time>2021-09-07T18:45:55Z</time>
      </trkpt>
      <trkpt lat="44.34194" lon="5.63132">
        <ele>1096.3</ele>
        <time>2021-09-07T18:45:56Z</time>
      </trkpt>
      <trkpt lat="44.34194" lon="5.63132">
        <ele>1096.3</ele>
        <time>2021-09-07T18:45:57Z</time>
      </trkpt>
      <trkpt lat="44.34193" lon="5.63133">
        <ele>1096.5</ele>
        <time>2021-09-07T18:45:58Z</time>
      </trkpt>
      <trkpt lat="44.34191" lon="5.63135">
        <ele>1096.8</ele>
        <time>2021-09-07T18:45:59Z</time>
      </trkpt>
      <trkpt lat="44.34189" lon="5.63136">
        <ele>1097.1</ele>
        <time>2021-09-07T18:46:00Z</time>
      </trkpt>
      <trkpt lat="44.34189" lon="5.63137">
        <ele>1097.2</ele>
        <time>2021-09-07T18:46:01Z</time>
      </trkpt>
      <trkpt lat="44.34188" lon="5.63137">
        <ele>1097.3</ele>
        <time>2021-09-07T18:46:02Z</time>
      </trkpt>
      <trkpt lat="44.34187" lon="5.63137">
        <ele>1097.4</ele>
        <time>2021-09-07T18:46:03Z</time>
      </trkpt>
      <trkpt lat="44.34187" lon="5.63138">
        <ele>1097.5</ele>
        <time>2021-09-07T18:46:04Z</time>
      </trkpt>
      <trkpt lat="44.34186" lon="5.63138">
        <ele>1097.6</ele>
        <time>2021-09-07T18:46:05Z</time>
      </trkpt>
      <trkpt lat="44.34186" lon="5.63138">
        <ele>1097.6</ele>
        <time>2021-09-07T18:46:06Z</time>
      </trkpt>
      <trkpt lat="44.34186" lon="5.63139">
        <ele>1097.7</ele>
        <time>2021-09-07T18:46:07Z</time>
      </trkpt>
      <trkpt lat="44.34185" lon="5.63139">
        <ele>1097.8</ele>
        <time>2021-09-07T18:46:08Z</time>
      </trkpt>
      <trkpt lat="44.34185" lon="5.63139">
        <ele>1097.8</ele>
        <time>2021-09-07T18:46:09Z</time>
      </trkpt>
      <trkpt lat="44.34185" lon="5.63139">
        <ele>1097.8</ele>
        <time>2021-09-07T18:46:10Z</time>
      </trkpt>
      <trkpt lat="44.34185" lon="5.63139">
        <ele>1097.8</ele>
        <time>2021-09-07T18:46:11Z</time>
      </trkpt>
      <trkpt lat="44.34185" lon="5.63139">
        <ele>1097.8</ele>
        <time>2021-09-07T18:46:12Z</time>
      </trkpt>
      <trkpt lat="44.34185" lon="5.63139">
        <ele>1097.8</ele>
        <time>2021-09-07T18:46:13Z</time>
      </trkpt>
      <trkpt lat="44.34185" lon="5.63139">
        <ele>1097.8</ele>
        <time>2021-09-07T18:46:14Z</time>
      </trkpt>
      <trkpt lat="44.34185" lon="5.63139">
        <ele>1097.8</ele>
        <time>2021-09-07T18:46:15Z</time>
      </trkpt>
      <trkpt lat="44.34185" lon="5.63139">
        <ele>1097.8</ele>
        <time>2021-09-07T18:46:16Z</time>
      </trkpt>
      <trkpt lat="44.34185" lon="5.63139">
        <ele>1097.8</ele>
        <time>2021-09-07T18:46:17Z</time>
      </trkpt>
      <trkpt lat="44.34185" lon="5.63139">
        <ele>1097.8</ele>
        <time>2021-09-07T18:46:18Z</time>
      </trkpt>
      <trkpt lat="44.34185" lon="5.63138">
        <ele>1097.9</ele>
        <time>2021-09-07T18:46:19Z</time>
      </trkpt>
      <trkpt lat="44.34185" lon="5.63138">
        <ele>1097.9</ele>
        <time>2021-09-07T18:46:20Z</time>
      </trkpt>
      <trkpt lat="44.34185" lon="5.63138">
        <ele>1097.9</ele>
        <time>2021-09-07T18:46:21Z</time>
      </trkpt>
      <trkpt lat="44.34185" lon="5.63138">
        <ele>1097.9</ele>
        <time>2021-09-07T18:46:22Z</time>
      </trkpt>
      <trkpt lat="44.34184" lon="5.63139">
        <ele>1098.1</ele>
        <time>2021-09-07T18:46:23Z</time>
      </trkpt>
      <trkpt lat="44.34183" lon="5.63139">
        <ele>1098.3</ele>
        <time>2021-09-07T18:46:24Z</time>
      </trkpt>
      <trkpt lat="44.34181" lon="5.63139">
        <ele>1098.5</ele>
        <time>2021-09-07T18:46:25Z</time>
      </trkpt>
      <trkpt lat="44.3418" lon="5.63139">
        <ele>1098.6</ele>
        <time>2021-09-07T18:46:26Z</time>
      </trkpt>
      <trkpt lat="44.34179" lon="5.63139">
        <ele>1098.8</ele>
        <time>2021-09-07T18:46:27Z</time>
      </trkpt>
      <trkpt lat="44.34178" lon="5.63139">
        <ele>1098.9</ele>
        <time>2021-09-07T18:46:28Z</time>
      </trkpt>
      <trkpt lat="44.34175" lon="5.6314">
        <ele>1099.4</ele>
        <time>2021-09-07T18:46:29Z</time>
      </trkpt>
      <trkpt lat="44.34175" lon="5.63141">
        <ele>1099.5</ele>
        <time>2021-09-07T18:46:30Z</time>
      </trkpt>
      <trkpt lat="44.34174" lon="5.63142">
        <ele>1099.7</ele>
        <time>2021-09-07T18:46:31Z</time>
      </trkpt>
      <trkpt lat="44.34174" lon="5.63143">
        <ele>1099.8</ele>
        <time>2021-09-07T18:46:32Z</time>
      </trkpt>
      <trkpt lat="44.34174" lon="5.63144">
        <ele>1099.9</ele>
        <time>2021-09-07T18:46:33Z</time>
      </trkpt>
      <trkpt lat="44.34174" lon="5.63145">
        <ele>1100</ele>
        <time>2021-09-07T18:46:34Z</time>
      </trkpt>
      <trkpt lat="44.34173" lon="5.63146">
        <ele>1100.2</ele>
        <time>2021-09-07T18:46:35Z</time>
      </trkpt>
      <trkpt lat="44.34173" lon="5.63148">
        <ele>1100.4</ele>
        <time>2021-09-07T18:46:36Z</time>
      </trkpt>
      <trkpt lat="44.34173" lon="5.63149">
        <ele>1100.5</ele>
        <time>2021-09-07T18:46:37Z</time>
      </trkpt>
      <trkpt lat="44.34172" lon="5.6315">
        <ele>1100.7</ele>
        <time>2021-09-07T18:46:38Z</time>
      </trkpt>
      <trkpt lat="44.34172" lon="5.63151">
        <ele>1100.8</ele>
        <time>2021-09-07T18:46:39Z</time>
      </trkpt>
      <trkpt lat="44.34172" lon="5.63151">
        <ele>1100.8</ele>
        <time>2021-09-07T18:46:40Z</time>
      </trkpt>
      <trkpt lat="44.34172" lon="5.63151">
        <ele>1100.8</ele>
        <time>2021-09-07T18:46:41Z</time>
      </trkpt>
      <trkpt lat="44.34172" lon="5.63152">
        <ele>1100.9</ele>
        <time>2021-09-07T18:46:42Z</time>
      </trkpt>
      <trkpt lat="44.34172" lon="5.63152">
        <ele>1100.9</ele>
        <time>2021-09-07T18:46:43Z</time>
      </trkpt>
      <trkpt lat="44.34172" lon="5.63153">
        <ele>1101</ele>
        <time>2021-09-07T18:46:44Z</time>
      </trkpt>
      <trkpt lat="44.34172" lon="5.63153">
        <ele>1101</ele>
        <time>2021-09-07T18:46:45Z</time>
      </trkpt>
      <trkpt lat="44.34172" lon="5.63154">
        <ele>1101.2</ele>
        <time>2021-09-07T18:46:46Z</time>
      </trkpt>
      <trkpt lat="44.34172" lon="5.63155">
        <ele>1101.3</ele>
        <time>2021-09-07T18:46:47Z</time>
      </trkpt>
      <trkpt lat="44.34172" lon="5.63156">
        <ele>1101.4</ele>
        <time>2021-09-07T18:46:48Z</time>
      </trkpt>
      <trkpt lat="44.34172" lon="5.63158">
        <ele>1101.6</ele>
        <time>2021-09-07T18:46:49Z</time>
      </trkpt>
      <trkpt lat="44.34171" lon="5.63161">
        <ele>1102</ele>
        <time>2021-09-07T18:46:50Z</time>
      </trkpt>
      <trkpt lat="44.34171" lon="5.63162">
        <ele>1102.1</ele>
        <time>2021-09-07T18:46:51Z</time>
      </trkpt>
      <trkpt lat="44.34171" lon="5.63162">
        <ele>1102.1</ele>
        <time>2021-09-07T18:46:52Z</time>
      </trkpt>
      <trkpt lat="44.3417" lon="5.63164">
        <ele>1102.4</ele>
        <time>2021-09-07T18:46:53Z</time>
      </trkpt>
      <trkpt lat="44.3417" lon="5.63164">
        <ele>1102.4</ele>
        <time>2021-09-07T18:46:54Z</time>
      </trkpt>
      <trkpt lat="44.3417" lon="5.63164">
        <ele>1102.4</ele>
        <time>2021-09-07T18:46:55Z</time>
      </trkpt>
      <trkpt lat="44.3417" lon="5.63165">
        <ele>1102.5</ele>
        <time>2021-09-07T18:46:56Z</time>
      </trkpt>
      <trkpt lat="44.3417" lon="5.63166">
        <ele>1102.7</ele>
        <time>2021-09-07T18:46:57Z</time>
      </trkpt>
      <trkpt lat="44.3417" lon="5.63166">
        <ele>1102.7</ele>
        <time>2021-09-07T18:46:58Z</time>
      </trkpt>
      <trkpt lat="44.3417" lon="5.63166">
        <ele>1102.7</ele>
        <time>2021-09-07T18:46:59Z</time>
      </trkpt>
      <trkpt lat="44.34169" lon="5.63167">
        <ele>1102.9</ele>
        <time>2021-09-07T18:47:00Z</time>
      </trkpt>
      <trkpt lat="44.34168" lon="5.63168">
        <ele>1103.1</ele>
        <time>2021-09-07T18:47:01Z</time>
      </trkpt>
      <trkpt lat="44.34167" lon="5.6317">
        <ele>1103.3</ele>
        <time>2021-09-07T18:47:02Z</time>
      </trkpt>
      <trkpt lat="44.34166" lon="5.63171">
        <ele>1103.5</ele>
        <time>2021-09-07T18:47:03Z</time>
      </trkpt>
      <trkpt lat="44.34166" lon="5.63172">
        <ele>1103.7</ele>
        <time>2021-09-07T18:47:04Z</time>
      </trkpt>
      <trkpt lat="44.34165" lon="5.63173">
        <ele>1103.8</ele>
        <time>2021-09-07T18:47:05Z</time>
      </trkpt>
      <trkpt lat="44.34164" lon="5.63173">
        <ele>1104</ele>
        <time>2021-09-07T18:47:06Z</time>
      </trkpt>
      <trkpt lat="44.34164" lon="5.63174">
        <ele>1104.1</ele>
        <time>2021-09-07T18:47:07Z</time>
      </trkpt>
      <trkpt lat="44.34163" lon="5.63174">
        <ele>1104.2</ele>
        <time>2021-09-07T18:47:08Z</time>
      </trkpt>
      <trkpt lat="44.34163" lon="5.63174">
        <ele>1104.2</ele>
        <time>2021-09-07T18:47:09Z</time>
      </trkpt>
      <trkpt lat="44.34163" lon="5.63175">
        <ele>1104.3</ele>
        <time>2021-09-07T18:47:10Z</time>
      </trkpt>
      <trkpt lat="44.34163" lon="5.63175">
        <ele>1104.3</ele>
        <time>2021-09-07T18:47:11Z</time>
      </trkpt>
      <trkpt lat="44.34163" lon="5.63175">
        <ele>1104.4</ele>
        <time>2021-09-07T18:47:12Z</time>
      </trkpt>
      <trkpt lat="44.34162" lon="5.63175">
        <ele>1104.5</ele>
        <time>2021-09-07T18:47:13Z</time>
      </trkpt>
      <trkpt lat="44.34162" lon="5.63175">
        <ele>1104.5</ele>
        <time>2021-09-07T18:47:14Z</time>
      </trkpt>
      <trkpt lat="44.34162" lon="5.63175">
        <ele>1104.5</ele>
        <time>2021-09-07T18:47:15Z</time>
      </trkpt>
      <trkpt lat="44.34162" lon="5.63176">
        <ele>1104.5</ele>
        <time>2021-09-07T18:47:16Z</time>
      </trkpt>
      <trkpt lat="44.34162" lon="5.63176">
        <ele>1104.6</ele>
        <time>2021-09-07T18:47:17Z</time>
      </trkpt>
      <trkpt lat="44.34162" lon="5.63176">
        <ele>1104.6</ele>
        <time>2021-09-07T18:47:18Z</time>
      </trkpt>
      <trkpt lat="44.34162" lon="5.63176">
        <ele>1104.6</ele>
        <time>2021-09-07T18:47:19Z</time>
      </trkpt>
      <trkpt lat="44.34162" lon="5.63176">
        <ele>1104.6</ele>
        <time>2021-09-07T18:47:20Z</time>
      </trkpt>
      <trkpt lat="44.34162" lon="5.63176">
        <ele>1104.6</ele>
        <time>2021-09-07T18:47:21Z</time>
      </trkpt>
      <trkpt lat="44.34162" lon="5.63176">
        <ele>1104.6</ele>
        <time>2021-09-07T18:47:22Z</time>
      </trkpt>
      <trkpt lat="44.34162" lon="5.63176">
        <ele>1104.6</ele>
        <time>2021-09-07T18:47:23Z</time>
      </trkpt>
      <trkpt lat="44.34162" lon="5.63176">
        <ele>1104.6</ele>
        <time>2021-09-07T18:47:24Z</time>
      </trkpt>
      <trkpt lat="44.34162" lon="5.63176">
        <ele>1104.6</ele>
        <time>2021-09-07T18:47:25Z</time>
      </trkpt>
      <trkpt lat="44.34162" lon="5.63176">
        <ele>1104.6</ele>
        <time>2021-09-07T18:47:26Z</time>
      </trkpt>
      <trkpt lat="44.34162" lon="5.63176">
        <ele>1104.6</ele>
        <time>2021-09-07T18:47:27Z</time>
      </trkpt>
      <trkpt lat="44.34162" lon="5.63176">
        <ele>1104.6</ele>
        <time>2021-09-07T18:47:28Z</time>
      </trkpt>
      <trkpt lat="44.34162" lon="5.63176">
        <ele>1104.6</ele>
        <time>2021-09-07T18:47:29Z</time>
      </trkpt>
      <trkpt lat="44.34162" lon="5.63176">
        <ele>1104.6</ele>
        <time>2021-09-07T18:47:30Z</time>
      </trkpt>
      <trkpt lat="44.34162" lon="5.63176">
        <ele>1104.6</ele>
        <time>2021-09-07T18:47:31Z</time>
      </trkpt>
      <trkpt lat="44.3416" lon="5.63177">
        <ele>1105</ele>
        <time>2021-09-07T18:47:32Z</time>
      </trkpt>
      <trkpt lat="44.34158" lon="5.63178">
        <ele>1105.3</ele>
        <time>2021-09-07T18:47:33Z</time>
      </trkpt>
      <trkpt lat="44.34156" lon="5.63179">
        <ele>1105.6</ele>
        <time>2021-09-07T18:47:34Z</time>
      </trkpt>
      <trkpt lat="44.34154" lon="5.63179">
        <ele>1106</ele>
        <time>2021-09-07T18:47:35Z</time>
      </trkpt>
      <trkpt lat="44.34154" lon="5.63179">
        <ele>1106.1</ele>
        <time>2021-09-07T18:47:36Z</time>
      </trkpt>
      <trkpt lat="44.34153" lon="5.63179">
        <ele>1106.1</ele>
        <time>2021-09-07T18:47:37Z</time>
      </trkpt>
      <trkpt lat="44.34152" lon="5.63179">
        <ele>1106.3</ele>
        <time>2021-09-07T18:47:38Z</time>
      </trkpt>
      <trkpt lat="44.34152" lon="5.63179">
        <ele>1106.3</ele>
        <time>2021-09-07T18:47:39Z</time>
      </trkpt>
      <trkpt lat="44.34152" lon="5.63179">
        <ele>1106.3</ele>
        <time>2021-09-07T18:47:40Z</time>
      </trkpt>
      <trkpt lat="44.34152" lon="5.63179">
        <ele>1106.3</ele>
        <time>2021-09-07T18:47:41Z</time>
      </trkpt>
      <trkpt lat="44.34152" lon="5.63179">
        <ele>1106.3</ele>
        <time>2021-09-07T18:47:42Z</time>
      </trkpt>
      <trkpt lat="44.34152" lon="5.63179">
        <ele>1106.3</ele>
        <time>2021-09-07T18:47:43Z</time>
      </trkpt>
      <trkpt lat="44.34152" lon="5.6318">
        <ele>1106.4</ele>
        <time>2021-09-07T18:47:44Z</time>
      </trkpt>
      <trkpt lat="44.34152" lon="5.6318">
        <ele>1106.4</ele>
        <time>2021-09-07T18:47:45Z</time>
      </trkpt>
      <trkpt lat="44.34152" lon="5.6318">
        <ele>1106.4</ele>
        <time>2021-09-07T18:47:46Z</time>
      </trkpt>
      <trkpt lat="44.34152" lon="5.6318">
        <ele>1106.4</ele>
        <time>2021-09-07T18:47:47Z</time>
      </trkpt>
      <trkpt lat="44.34152" lon="5.6318">
        <ele>1106.4</ele>
        <time>2021-09-07T18:47:48Z</time>
      </trkpt>
      <trkpt lat="44.34152" lon="5.6318">
        <ele>1106.4</ele>
        <time>2021-09-07T18:47:49Z</time>
      </trkpt>
      <trkpt lat="44.34152" lon="5.6318">
        <ele>1106.4</ele>
        <time>2021-09-07T18:47:50Z</time>
      </trkpt>
      <trkpt lat="44.34152" lon="5.6318">
        <ele>1106.4</ele>
        <time>2021-09-07T18:47:51Z</time>
      </trkpt>
      <trkpt lat="44.34152" lon="5.6318">
        <ele>1106.4</ele>
        <time>2021-09-07T18:47:52Z</time>
      </trkpt>
      <trkpt lat="44.34152" lon="5.6318">
        <ele>1106.4</ele>
        <time>2021-09-07T18:47:53Z</time>
      </trkpt>
      <trkpt lat="44.34152" lon="5.6318">
        <ele>1106.4</ele>
        <time>2021-09-07T18:47:54Z</time>
      </trkpt>
      <trkpt lat="44.34152" lon="5.6318">
        <ele>1106.4</ele>
        <time>2021-09-07T18:47:55Z</time>
      </trkpt>
      <trkpt lat="44.34152" lon="5.6318">
        <ele>1106.4</ele>
        <time>2021-09-07T18:47:56Z</time>
      </trkpt>
      <trkpt lat="44.34152" lon="5.6318">
        <ele>1106.4</ele>
        <time>2021-09-07T18:47:57Z</time>
      </trkpt>
      <trkpt lat="44.34152" lon="5.6318">
        <ele>1106.4</ele>
        <time>2021-09-07T18:47:58Z</time>
      </trkpt>
      <trkpt lat="44.34152" lon="5.6318">
        <ele>1106.4</ele>
        <time>2021-09-07T18:47:59Z</time>
      </trkpt>
      <trkpt lat="44.34152" lon="5.6318">
        <ele>1106.4</ele>
        <time>2021-09-07T18:48:00Z</time>
      </trkpt>
      <trkpt lat="44.34152" lon="5.6318">
        <ele>1106.4</ele>
        <time>2021-09-07T18:48:01Z</time>
      </trkpt>
      <trkpt lat="44.34152" lon="5.6318">
        <ele>1106.4</ele>
        <time>2021-09-07T18:48:02Z</time>
      </trkpt>
      <trkpt lat="44.34152" lon="5.6318">
        <ele>1106.4</ele>
        <time>2021-09-07T18:48:03Z</time>
      </trkpt>
      <trkpt lat="44.34152" lon="5.6318">
        <ele>1106.4</ele>
        <time>2021-09-07T18:48:04Z</time>
      </trkpt>
      <trkpt lat="44.34152" lon="5.6318">
        <ele>1106.4</ele>
        <time>2021-09-07T18:48:05Z</time>
      </trkpt>
      <trkpt lat="44.34152" lon="5.6318">
        <ele>1106.4</ele>
        <time>2021-09-07T18:48:06Z</time>
      </trkpt>
      <trkpt lat="44.34152" lon="5.6318">
        <ele>1106.4</ele>
        <time>2021-09-07T18:48:07Z</time>
      </trkpt>
      <trkpt lat="44.34152" lon="5.6318">
        <ele>1106.4</ele>
        <time>2021-09-07T18:48:08Z</time>
      </trkpt>
      <trkpt lat="44.34152" lon="5.6318">
        <ele>1106.4</ele>
        <time>2021-09-07T18:48:09Z</time>
      </trkpt>
      <trkpt lat="44.34152" lon="5.6318">
        <ele>1106.4</ele>
        <time>2021-09-07T18:48:10Z</time>
      </trkpt>
      <trkpt lat="44.34152" lon="5.6318">
        <ele>1106.4</ele>
        <time>2021-09-07T18:48:11Z</time>
      </trkpt>
      <trkpt lat="44.34152" lon="5.6318">
        <ele>1106.4</ele>
        <time>2021-09-07T18:48:12Z</time>
      </trkpt>
      <trkpt lat="44.34152" lon="5.6318">
        <ele>1106.4</ele>
        <time>2021-09-07T18:48:13Z</time>
      </trkpt>
      <trkpt lat="44.34152" lon="5.6318">
        <ele>1106.4</ele>
        <time>2021-09-07T18:48:14Z</time>
      </trkpt>
      <trkpt lat="44.34152" lon="5.6318">
        <ele>1106.4</ele>
        <time>2021-09-07T18:48:15Z</time>
      </trkpt>
      <trkpt lat="44.34152" lon="5.6318">
        <ele>1106.4</ele>
        <time>2021-09-07T18:48:16Z</time>
      </trkpt>
      <trkpt lat="44.34152" lon="5.6318">
        <ele>1106.4</ele>
        <time>2021-09-07T18:48:17Z</time>
      </trkpt>
      <trkpt lat="44.34152" lon="5.6318">
        <ele>1106.4</ele>
        <time>2021-09-07T18:48:18Z</time>
      </trkpt>
      <trkpt lat="44.34152" lon="5.6318">
        <ele>1106.4</ele>
        <time>2021-09-07T18:48:19Z</time>
      </trkpt>
      <trkpt lat="44.34152" lon="5.6318">
        <ele>1106.4</ele>
        <time>2021-09-07T18:48:20Z</time>
      </trkpt>
      <trkpt lat="44.34152" lon="5.6318">
        <ele>1106.4</ele>
        <time>2021-09-07T18:48:21Z</time>
      </trkpt>
      <trkpt lat="44.34152" lon="5.6318">
        <ele>1106.4</ele>
        <time>2021-09-07T18:48:22Z</time>
      </trkpt>
      <trkpt lat="44.34152" lon="5.63182">
        <ele>1106.6</ele>
        <time>2021-09-07T18:48:23Z</time>
      </trkpt>
      <trkpt lat="44.34151" lon="5.63183">
        <ele>1106.8</ele>
        <time>2021-09-07T18:48:24Z</time>
      </trkpt>
      <trkpt lat="44.34151" lon="5.63184">
        <ele>1107</ele>
        <time>2021-09-07T18:48:25Z</time>
      </trkpt>
      <trkpt lat="44.3415" lon="5.63185">
        <ele>1107.1</ele>
        <time>2021-09-07T18:48:26Z</time>
      </trkpt>
      <trkpt lat="44.3415" lon="5.63186">
        <ele>1107.2</ele>
        <time>2021-09-07T18:48:27Z</time>
      </trkpt>
      <trkpt lat="44.3415" lon="5.63187">
        <ele>1107.3</ele>
        <time>2021-09-07T18:48:28Z</time>
      </trkpt>
      <trkpt lat="44.3415" lon="5.63188">
        <ele>1107.5</ele>
        <time>2021-09-07T18:48:29Z</time>
      </trkpt>
      <trkpt lat="44.34149" lon="5.63189">
        <ele>1107.6</ele>
        <time>2021-09-07T18:48:30Z</time>
      </trkpt>
      <trkpt lat="44.34149" lon="5.6319">
        <ele>1107.8</ele>
        <time>2021-09-07T18:48:31Z</time>
      </trkpt>
      <trkpt lat="44.34149" lon="5.63191">
        <ele>1107.9</ele>
        <time>2021-09-07T18:48:32Z</time>
      </trkpt>
      <trkpt lat="44.34148" lon="5.63191">
        <ele>1108</ele>
        <time>2021-09-07T18:48:33Z</time>
      </trkpt>
      <trkpt lat="44.34148" lon="5.63191">
        <ele>1108</ele>
        <time>2021-09-07T18:48:34Z</time>
      </trkpt>
      <trkpt lat="44.34148" lon="5.63191">
        <ele>1108</ele>
        <time>2021-09-07T18:48:35Z</time>
      </trkpt>
      <trkpt lat="44.34148" lon="5.63192">
        <ele>1108.1</ele>
        <time>2021-09-07T18:48:36Z</time>
      </trkpt>
      <trkpt lat="44.34148" lon="5.63192">
        <ele>1108.1</ele>
        <time>2021-09-07T18:48:37Z</time>
      </trkpt>
      <trkpt lat="44.34148" lon="5.63192">
        <ele>1108.1</ele>
        <time>2021-09-07T18:48:38Z</time>
      </trkpt>
      <trkpt lat="44.34148" lon="5.63192">
        <ele>1108.1</ele>
        <time>2021-09-07T18:48:39Z</time>
      </trkpt>
      <trkpt lat="44.34148" lon="5.63192">
        <ele>1108.1</ele>
        <time>2021-09-07T18:48:40Z</time>
      </trkpt>
      <trkpt lat="44.34147" lon="5.63193">
        <ele>1108.3</ele>
        <time>2021-09-07T18:48:41Z</time>
      </trkpt>
      <trkpt lat="44.34147" lon="5.63193">
        <ele>1108.3</ele>
        <time>2021-09-07T18:48:42Z</time>
      </trkpt>
      <trkpt lat="44.34147" lon="5.63193">
        <ele>1108.3</ele>
        <time>2021-09-07T18:48:43Z</time>
      </trkpt>
      <trkpt lat="44.34147" lon="5.63193">
        <ele>1108.3</ele>
        <time>2021-09-07T18:48:44Z</time>
      </trkpt>
      <trkpt lat="44.34147" lon="5.63193">
        <ele>1108.3</ele>
        <time>2021-09-07T18:48:45Z</time>
      </trkpt>
      <trkpt lat="44.34147" lon="5.63193">
        <ele>1108.3</ele>
        <time>2021-09-07T18:48:46Z</time>
      </trkpt>
      <trkpt lat="44.34147" lon="5.63193">
        <ele>1108.3</ele>
        <time>2021-09-07T18:48:47Z</time>
      </trkpt>
      <trkpt lat="44.34147" lon="5.63194">
        <ele>1108.4</ele>
        <time>2021-09-07T18:48:48Z</time>
      </trkpt>
      <trkpt lat="44.34147" lon="5.63194">
        <ele>1108.5</ele>
        <time>2021-09-07T18:48:49Z</time>
      </trkpt>
      <trkpt lat="44.34147" lon="5.63194">
        <ele>1108.5</ele>
        <time>2021-09-07T18:48:50Z</time>
      </trkpt>
      <trkpt lat="44.34148" lon="5.63194">
        <ele>1108.7</ele>
        <time>2021-09-07T18:48:51Z</time>
      </trkpt>
      <trkpt lat="44.34148" lon="5.63194">
        <ele>1108.8</ele>
        <time>2021-09-07T18:48:52Z</time>
      </trkpt>
      <trkpt lat="44.34147" lon="5.63194">
        <ele>1108.8</ele>
        <time>2021-09-07T18:48:53Z</time>
      </trkpt>
      <trkpt lat="44.34147" lon="5.63194">
        <ele>1108.8</ele>
        <time>2021-09-07T18:48:54Z</time>
      </trkpt>
      <trkpt lat="44.34147" lon="5.63194">
        <ele>1108.8</ele>
        <time>2021-09-07T18:48:55Z</time>
      </trkpt>
      <trkpt lat="44.34147" lon="5.63194">
        <ele>1108.8</ele>
        <time>2021-09-07T18:48:56Z</time>
      </trkpt>
      <trkpt lat="44.34147" lon="5.63194">
        <ele>1108.8</ele>
        <time>2021-09-07T18:48:57Z</time>
      </trkpt>
      <trkpt lat="44.34147" lon="5.63194">
        <ele>1108.8</ele>
        <time>2021-09-07T18:48:58Z</time>
      </trkpt>
      <trkpt lat="44.34147" lon="5.63194">
        <ele>1108.8</ele>
        <time>2021-09-07T18:48:59Z</time>
      </trkpt>
      <trkpt lat="44.34147" lon="5.63194">
        <ele>1108.8</ele>
        <time>2021-09-07T18:49:00Z</time>
      </trkpt>
      <trkpt lat="44.34147" lon="5.63194">
        <ele>1108.8</ele>
        <time>2021-09-07T18:49:01Z</time>
      </trkpt>
      <trkpt lat="44.34147" lon="5.63194">
        <ele>1108.8</ele>
        <time>2021-09-07T18:49:02Z</time>
      </trkpt>
      <trkpt lat="44.34147" lon="5.63194">
        <ele>1108.8</ele>
        <time>2021-09-07T18:49:03Z</time>
      </trkpt>
      <trkpt lat="44.34147" lon="5.63195">
        <ele>1109</ele>
        <time>2021-09-07T18:49:04Z</time>
      </trkpt>
      <trkpt lat="44.34147" lon="5.63195">
        <ele>1109</ele>
        <time>2021-09-07T18:49:05Z</time>
      </trkpt>
      <trkpt lat="44.34147" lon="5.63196">
        <ele>1109.1</ele>
        <time>2021-09-07T18:49:06Z</time>
      </trkpt>
      <trkpt lat="44.34147" lon="5.63197">
        <ele>1109.2</ele>
        <time>2021-09-07T18:49:07Z</time>
      </trkpt>
      <trkpt lat="44.34147" lon="5.63198">
        <ele>1109.4</ele>
        <time>2021-09-07T18:49:08Z</time>
      </trkpt>
      <trkpt lat="44.34146" lon="5.63199">
        <ele>1109.6</ele>
        <time>2021-09-07T18:49:09Z</time>
      </trkpt>
      <trkpt lat="44.34146" lon="5.632">
        <ele>1109.7</ele>
        <time>2021-09-07T18:49:10Z</time>
      </trkpt>
      <trkpt lat="44.34146" lon="5.63201">
        <ele>1109.8</ele>
        <time>2021-09-07T18:49:11Z</time>
      </trkpt>
      <trkpt lat="44.34145" lon="5.63202">
        <ele>1110.1</ele>
        <time>2021-09-07T18:49:12Z</time>
      </trkpt>
      <trkpt lat="44.34145" lon="5.63203">
        <ele>1110.1</ele>
        <time>2021-09-07T18:49:13Z</time>
      </trkpt>
      <trkpt lat="44.34145" lon="5.63203">
        <ele>1110.2</ele>
        <time>2021-09-07T18:49:14Z</time>
      </trkpt>
      <trkpt lat="44.34145" lon="5.63203">
        <ele>1110.2</ele>
        <time>2021-09-07T18:49:15Z</time>
      </trkpt>
      <trkpt lat="44.34145" lon="5.63204">
        <ele>1110.4</ele>
        <time>2021-09-07T18:49:16Z</time>
      </trkpt>
      <trkpt lat="44.34144" lon="5.63204">
        <ele>1110.5</ele>
        <time>2021-09-07T18:49:17Z</time>
      </trkpt>
      <trkpt lat="44.34144" lon="5.63205">
        <ele>1110.7</ele>
        <time>2021-09-07T18:49:18Z</time>
      </trkpt>
      <trkpt lat="44.34144" lon="5.63205">
        <ele>1110.7</ele>
        <time>2021-09-07T18:49:19Z</time>
      </trkpt>
      <trkpt lat="44.34144" lon="5.63206">
        <ele>1110.7</ele>
        <time>2021-09-07T18:49:20Z</time>
      </trkpt>
      <trkpt lat="44.34144" lon="5.63206">
        <ele>1110.8</ele>
        <time>2021-09-07T18:49:21Z</time>
      </trkpt>
      <trkpt lat="44.34144" lon="5.63206">
        <ele>1110.8</ele>
        <time>2021-09-07T18:49:22Z</time>
      </trkpt>
      <trkpt lat="44.34144" lon="5.63206">
        <ele>1110.8</ele>
        <time>2021-09-07T18:49:23Z</time>
      </trkpt>
      <trkpt lat="44.34144" lon="5.63206">
        <ele>1110.8</ele>
        <time>2021-09-07T18:49:24Z</time>
      </trkpt>
      <trkpt lat="44.34144" lon="5.63206">
        <ele>1110.8</ele>
        <time>2021-09-07T18:49:25Z</time>
      </trkpt>
      <trkpt lat="44.34144" lon="5.63207">
        <ele>1111</ele>
        <time>2021-09-07T18:49:26Z</time>
      </trkpt>
      <trkpt lat="44.34144" lon="5.63207">
        <ele>1111</ele>
        <time>2021-09-07T18:49:27Z</time>
      </trkpt>
      <trkpt lat="44.34144" lon="5.63207">
        <ele>1111</ele>
        <time>2021-09-07T18:49:28Z</time>
      </trkpt>
      <trkpt lat="44.34144" lon="5.63207">
        <ele>1111</ele>
        <time>2021-09-07T18:49:29Z</time>
      </trkpt>
      <trkpt lat="44.34144" lon="5.63207">
        <ele>1111</ele>
        <time>2021-09-07T18:49:30Z</time>
      </trkpt>
      <trkpt lat="44.34144" lon="5.63207">
        <ele>1111</ele>
        <time>2021-09-07T18:49:31Z</time>
      </trkpt>
      <trkpt lat="44.34144" lon="5.63207">
        <ele>1111</ele>
        <time>2021-09-07T18:49:32Z</time>
      </trkpt>
      <trkpt lat="44.34144" lon="5.63207">
        <ele>1111</ele>
        <time>2021-09-07T18:49:33Z</time>
      </trkpt>
      <trkpt lat="44.34144" lon="5.63207">
        <ele>1111</ele>
        <time>2021-09-07T18:49:34Z</time>
      </trkpt>
      <trkpt lat="44.34144" lon="5.63208">
        <ele>1111</ele>
        <time>2021-09-07T18:49:35Z</time>
      </trkpt>
      <trkpt lat="44.34144" lon="5.63208">
        <ele>1111.1</ele>
        <time>2021-09-07T18:49:36Z</time>
      </trkpt>
      <trkpt lat="44.34144" lon="5.63208">
        <ele>1111.1</ele>
        <time>2021-09-07T18:49:37Z</time>
      </trkpt>
      <trkpt lat="44.34144" lon="5.63208">
        <ele>1111.1</ele>
        <time>2021-09-07T18:49:38Z</time>
      </trkpt>
      <trkpt lat="44.34144" lon="5.63208">
        <ele>1111.1</ele>
        <time>2021-09-07T18:49:39Z</time>
      </trkpt>
      <trkpt lat="44.34144" lon="5.63208">
        <ele>1111.1</ele>
        <time>2021-09-07T18:49:40Z</time>
      </trkpt>
      <trkpt lat="44.34144" lon="5.63209">
        <ele>1111.2</ele>
        <time>2021-09-07T18:49:41Z</time>
      </trkpt>
      <trkpt lat="44.34143" lon="5.63209">
        <ele>1111.3</ele>
        <time>2021-09-07T18:49:42Z</time>
      </trkpt>
      <trkpt lat="44.34143" lon="5.6321">
        <ele>1111.5</ele>
        <time>2021-09-07T18:49:43Z</time>
      </trkpt>
      <trkpt lat="44.34142" lon="5.63212">
        <ele>1111.8</ele>
        <time>2021-09-07T18:49:44Z</time>
      </trkpt>
      <trkpt lat="44.34141" lon="5.63213">
        <ele>1112</ele>
        <time>2021-09-07T18:49:45Z</time>
      </trkpt>
      <trkpt lat="44.34141" lon="5.63214">
        <ele>1112.2</ele>
        <time>2021-09-07T18:49:46Z</time>
      </trkpt>
      <trkpt lat="44.3414" lon="5.63216">
        <ele>1112.5</ele>
        <time>2021-09-07T18:49:47Z</time>
      </trkpt>
      <trkpt lat="44.3414" lon="5.63217">
        <ele>1112.6</ele>
        <time>2021-09-07T18:49:48Z</time>
      </trkpt>
      <trkpt lat="44.34139" lon="5.63218">
        <ele>1112.8</ele>
        <time>2021-09-07T18:49:49Z</time>
      </trkpt>
      <trkpt lat="44.34139" lon="5.63219">
        <ele>1112.8</ele>
        <time>2021-09-07T18:49:50Z</time>
      </trkpt>
      <trkpt lat="44.34139" lon="5.63219">
        <ele>1112.9</ele>
        <time>2021-09-07T18:49:51Z</time>
      </trkpt>
      <trkpt lat="44.34139" lon="5.6322">
        <ele>1113</ele>
        <time>2021-09-07T18:49:52Z</time>
      </trkpt>
      <trkpt lat="44.34139" lon="5.6322">
        <ele>1113</ele>
        <time>2021-09-07T18:49:53Z</time>
      </trkpt>
      <trkpt lat="44.34139" lon="5.6322">
        <ele>1113</ele>
        <time>2021-09-07T18:49:54Z</time>
      </trkpt>
      <trkpt lat="44.34139" lon="5.6322">
        <ele>1113</ele>
        <time>2021-09-07T18:49:55Z</time>
      </trkpt>
      <trkpt lat="44.34139" lon="5.6322">
        <ele>1113</ele>
        <time>2021-09-07T18:49:56Z</time>
      </trkpt>
      <trkpt lat="44.34139" lon="5.6322">
        <ele>1113</ele>
        <time>2021-09-07T18:49:57Z</time>
      </trkpt>
      <trkpt lat="44.34139" lon="5.6322">
        <ele>1113</ele>
        <time>2021-09-07T18:49:58Z</time>
      </trkpt>
      <trkpt lat="44.34139" lon="5.6322">
        <ele>1113</ele>
        <time>2021-09-07T18:49:59Z</time>
      </trkpt>
      <trkpt lat="44.34139" lon="5.6322">
        <ele>1113</ele>
        <time>2021-09-07T18:50:00Z</time>
      </trkpt>
      <trkpt lat="44.34139" lon="5.6322">
        <ele>1113</ele>
        <time>2021-09-07T18:50:01Z</time>
      </trkpt>
      <trkpt lat="44.34139" lon="5.6322">
        <ele>1113</ele>
        <time>2021-09-07T18:50:02Z</time>
      </trkpt>
      <trkpt lat="44.34139" lon="5.6322">
        <ele>1113</ele>
        <time>2021-09-07T18:50:03Z</time>
      </trkpt>
      <trkpt lat="44.34139" lon="5.6322">
        <ele>1113</ele>
        <time>2021-09-07T18:50:04Z</time>
      </trkpt>
      <trkpt lat="44.34139" lon="5.6322">
        <ele>1113</ele>
        <time>2021-09-07T18:50:05Z</time>
      </trkpt>
      <trkpt lat="44.34139" lon="5.6322">
        <ele>1113</ele>
        <time>2021-09-07T18:50:06Z</time>
      </trkpt>
      <trkpt lat="44.34139" lon="5.63222">
        <ele>1113.2</ele>
        <time>2021-09-07T18:50:07Z</time>
      </trkpt>
      <trkpt lat="44.34139" lon="5.63223">
        <ele>1113.4</ele>
        <time>2021-09-07T18:50:08Z</time>
      </trkpt>
      <trkpt lat="44.3414" lon="5.63225">
        <ele>1113.7</ele>
        <time>2021-09-07T18:50:09Z</time>
      </trkpt>
      <trkpt lat="44.34141" lon="5.63227">
        <ele>1114</ele>
        <time>2021-09-07T18:50:10Z</time>
      </trkpt>
      <trkpt lat="44.34142" lon="5.63231">
        <ele>1114.5</ele>
        <time>2021-09-07T18:50:11Z</time>
      </trkpt>
      <trkpt lat="44.34142" lon="5.63233">
        <ele>1114.8</ele>
        <time>2021-09-07T18:50:12Z</time>
      </trkpt>
      <trkpt lat="44.34142" lon="5.63236">
        <ele>1115.1</ele>
        <time>2021-09-07T18:50:13Z</time>
      </trkpt>
      <trkpt lat="44.34142" lon="5.63242">
        <ele>1115.8</ele>
        <time>2021-09-07T18:50:14Z</time>
      </trkpt>
      <trkpt lat="44.34141" lon="5.63251">
        <ele>1116.8</ele>
        <time>2021-09-07T18:50:15Z</time>
      </trkpt>
      <trkpt lat="44.34141" lon="5.63258">
        <ele>1117.6</ele>
        <time>2021-09-07T18:50:16Z</time>
      </trkpt>
      <trkpt lat="44.34142" lon="5.63262">
        <ele>1118.1</ele>
        <time>2021-09-07T18:50:17Z</time>
      </trkpt>
      <trkpt lat="44.34142" lon="5.63265">
        <ele>1118.4</ele>
        <time>2021-09-07T18:50:18Z</time>
      </trkpt>
      <trkpt lat="44.34142" lon="5.63267">
        <ele>1118.6</ele>
        <time>2021-09-07T18:50:19Z</time>
      </trkpt>
      <trkpt lat="44.34141" lon="5.63266">
        <ele>1118.8</ele>
        <time>2021-09-07T18:50:20Z</time>
      </trkpt>
      <trkpt lat="44.3414" lon="5.63265">
        <ele>1119</ele>
        <time>2021-09-07T18:50:21Z</time>
      </trkpt>
      <trkpt lat="44.34139" lon="5.63263">
        <ele>1119.3</ele>
        <time>2021-09-07T18:50:22Z</time>
      </trkpt>
      <trkpt lat="44.34138" lon="5.63262">
        <ele>1119.5</ele>
        <time>2021-09-07T18:50:23Z</time>
      </trkpt>
      <trkpt lat="44.34138" lon="5.63262">
        <ele>1119.5</ele>
        <time>2021-09-07T18:50:24Z</time>
      </trkpt>
      <trkpt lat="44.34138" lon="5.63261">
        <ele>1119.6</ele>
        <time>2021-09-07T18:50:25Z</time>
      </trkpt>
      <trkpt lat="44.34138" lon="5.63261">
        <ele>1119.6</ele>
        <time>2021-09-07T18:50:26Z</time>
      </trkpt>
      <trkpt lat="44.34138" lon="5.63261">
        <ele>1119.6</ele>
        <time>2021-09-07T18:50:27Z</time>
      </trkpt>
      <trkpt lat="44.34137" lon="5.63262">
        <ele>1119.8</ele>
        <time>2021-09-07T18:50:28Z</time>
      </trkpt>
      <trkpt lat="44.34137" lon="5.63262">
        <ele>1119.8</ele>
        <time>2021-09-07T18:50:29Z</time>
      </trkpt>
      <trkpt lat="44.34137" lon="5.63262">
        <ele>1119.8</ele>
        <time>2021-09-07T18:50:30Z</time>
      </trkpt>
      <trkpt lat="44.34137" lon="5.63262">
        <ele>1119.8</ele>
        <time>2021-09-07T18:50:31Z</time>
      </trkpt>
      <trkpt lat="44.34137" lon="5.63262">
        <ele>1119.8</ele>
        <time>2021-09-07T18:50:32Z</time>
      </trkpt>
      <trkpt lat="44.34137" lon="5.63262">
        <ele>1119.8</ele>
        <time>2021-09-07T18:50:33Z</time>
      </trkpt>
      <trkpt lat="44.34137" lon="5.63262">
        <ele>1119.8</ele>
        <time>2021-09-07T18:50:34Z</time>
      </trkpt>
      <trkpt lat="44.34137" lon="5.63262">
        <ele>1119.8</ele>
        <time>2021-09-07T18:50:35Z</time>
      </trkpt>
      <trkpt lat="44.34137" lon="5.63261">
        <ele>1119.9</ele>
        <time>2021-09-07T18:50:36Z</time>
      </trkpt>
      <trkpt lat="44.34137" lon="5.63261">
        <ele>1119.9</ele>
        <time>2021-09-07T18:50:37Z</time>
      </trkpt>
      <trkpt lat="44.34137" lon="5.63261">
        <ele>1120</ele>
        <time>2021-09-07T18:50:38Z</time>
      </trkpt>
      <trkpt lat="44.34136" lon="5.63261">
        <ele>1120.1</ele>
        <time>2021-09-07T18:50:39Z</time>
      </trkpt>
      <trkpt lat="44.34136" lon="5.6326">
        <ele>1120.2</ele>
        <time>2021-09-07T18:50:40Z</time>
      </trkpt>
      <trkpt lat="44.34135" lon="5.63259">
        <ele>1120.3</ele>
        <time>2021-09-07T18:50:41Z</time>
      </trkpt>
      <trkpt lat="44.34134" lon="5.63258">
        <ele>1120.5</ele>
        <time>2021-09-07T18:50:42Z</time>
      </trkpt>
      <trkpt lat="44.34133" lon="5.63258">
        <ele>1120.7</ele>
        <time>2021-09-07T18:50:43Z</time>
      </trkpt>
      <trkpt lat="44.34131" lon="5.63257">
        <ele>1121</ele>
        <time>2021-09-07T18:50:44Z</time>
      </trkpt>
      <trkpt lat="44.3413" lon="5.63257">
        <ele>1121.1</ele>
        <time>2021-09-07T18:50:45Z</time>
      </trkpt>
      <trkpt lat="44.34129" lon="5.63257">
        <ele>1121.3</ele>
        <time>2021-09-07T18:50:46Z</time>
      </trkpt>
      <trkpt lat="44.34129" lon="5.63257">
        <ele>1121.3</ele>
        <time>2021-09-07T18:50:47Z</time>
      </trkpt>
      <trkpt lat="44.34128" lon="5.63257">
        <ele>1121.4</ele>
        <time>2021-09-07T18:50:48Z</time>
      </trkpt>
      <trkpt lat="44.34127" lon="5.63257">
        <ele>1121.6</ele>
        <time>2021-09-07T18:50:49Z</time>
      </trkpt>
      <trkpt lat="44.34127" lon="5.63257">
        <ele>1121.6</ele>
        <time>2021-09-07T18:50:50Z</time>
      </trkpt>
      <trkpt lat="44.34127" lon="5.63257">
        <ele>1121.6</ele>
        <time>2021-09-07T18:50:51Z</time>
      </trkpt>
      <trkpt lat="44.34126" lon="5.63257">
        <ele>1121.7</ele>
        <time>2021-09-07T18:50:52Z</time>
      </trkpt>
      <trkpt lat="44.34126" lon="5.63257">
        <ele>1121.7</ele>
        <time>2021-09-07T18:50:53Z</time>
      </trkpt>
      <trkpt lat="44.34126" lon="5.63257">
        <ele>1121.7</ele>
        <time>2021-09-07T18:50:54Z</time>
      </trkpt>
      <trkpt lat="44.34126" lon="5.63257">
        <ele>1121.7</ele>
        <time>2021-09-07T18:50:55Z</time>
      </trkpt>
      <trkpt lat="44.34126" lon="5.63257">
        <ele>1121.7</ele>
        <time>2021-09-07T18:50:56Z</time>
      </trkpt>
      <trkpt lat="44.34126" lon="5.63257">
        <ele>1121.7</ele>
        <time>2021-09-07T18:50:57Z</time>
      </trkpt>
      <trkpt lat="44.34125" lon="5.63257">
        <ele>1121.9</ele>
        <time>2021-09-07T18:50:58Z</time>
      </trkpt>
      <trkpt lat="44.34125" lon="5.63257">
        <ele>1121.9</ele>
        <time>2021-09-07T18:50:59Z</time>
      </trkpt>
      <trkpt lat="44.34125" lon="5.63257">
        <ele>1121.9</ele>
        <time>2021-09-07T18:51:00Z</time>
      </trkpt>
      <trkpt lat="44.34125" lon="5.63257">
        <ele>1121.9</ele>
        <time>2021-09-07T18:51:01Z</time>
      </trkpt>
      <trkpt lat="44.34125" lon="5.63257">
        <ele>1121.9</ele>
        <time>2021-09-07T18:51:02Z</time>
      </trkpt>
      <trkpt lat="44.34125" lon="5.63257">
        <ele>1121.9</ele>
        <time>2021-09-07T18:51:03Z</time>
      </trkpt>
      <trkpt lat="44.34125" lon="5.63257">
        <ele>1121.9</ele>
        <time>2021-09-07T18:51:04Z</time>
      </trkpt>
      <trkpt lat="44.34125" lon="5.63257">
        <ele>1121.9</ele>
        <time>2021-09-07T18:51:05Z</time>
      </trkpt>
      <trkpt lat="44.34125" lon="5.63257">
        <ele>1121.9</ele>
        <time>2021-09-07T18:51:06Z</time>
      </trkpt>
      <trkpt lat="44.34125" lon="5.63257">
        <ele>1121.9</ele>
        <time>2021-09-07T18:51:07Z</time>
      </trkpt>
      <trkpt lat="44.34125" lon="5.63257">
        <ele>1121.9</ele>
        <time>2021-09-07T18:51:08Z</time>
      </trkpt>
      <trkpt lat="44.34125" lon="5.63257">
        <ele>1121.9</ele>
        <time>2021-09-07T18:51:09Z</time>
      </trkpt>
      <trkpt lat="44.34125" lon="5.63257">
        <ele>1121.9</ele>
        <time>2021-09-07T18:51:10Z</time>
      </trkpt>
      <trkpt lat="44.34125" lon="5.63257">
        <ele>1121.9</ele>
        <time>2021-09-07T18:51:11Z</time>
      </trkpt>
      <trkpt lat="44.34125" lon="5.63257">
        <ele>1121.9</ele>
        <time>2021-09-07T18:51:12Z</time>
      </trkpt>
      <trkpt lat="44.34125" lon="5.63257">
        <ele>1121.9</ele>
        <time>2021-09-07T18:51:13Z</time>
      </trkpt>
      <trkpt lat="44.34125" lon="5.63258">
        <ele>1121.9</ele>
        <time>2021-09-07T18:51:14Z</time>
      </trkpt>
      <trkpt lat="44.34124" lon="5.63258">
        <ele>1122</ele>
        <time>2021-09-07T18:51:15Z</time>
      </trkpt>
      <trkpt lat="44.34123" lon="5.63259">
        <ele>1122.2</ele>
        <time>2021-09-07T18:51:16Z</time>
      </trkpt>
      <trkpt lat="44.34122" lon="5.63259">
        <ele>1122.3</ele>
        <time>2021-09-07T18:51:17Z</time>
      </trkpt>
      <trkpt lat="44.34122" lon="5.6326">
        <ele>1122.5</ele>
        <time>2021-09-07T18:51:18Z</time>
      </trkpt>
      <trkpt lat="44.34121" lon="5.63261">
        <ele>1122.6</ele>
        <time>2021-09-07T18:51:19Z</time>
      </trkpt>
      <trkpt lat="44.34121" lon="5.63262">
        <ele>1122.7</ele>
        <time>2021-09-07T18:51:20Z</time>
      </trkpt>
      <trkpt lat="44.3412" lon="5.63262">
        <ele>1122.8</ele>
        <time>2021-09-07T18:51:21Z</time>
      </trkpt>
      <trkpt lat="44.3412" lon="5.63262">
        <ele>1122.8</ele>
        <time>2021-09-07T18:51:22Z</time>
      </trkpt>
      <trkpt lat="44.34119" lon="5.63262">
        <ele>1122.9</ele>
        <time>2021-09-07T18:51:23Z</time>
      </trkpt>
      <trkpt lat="44.34118" lon="5.63262">
        <ele>1123.1</ele>
        <time>2021-09-07T18:51:24Z</time>
      </trkpt>
      <trkpt lat="44.34118" lon="5.63262">
        <ele>1123.1</ele>
        <time>2021-09-07T18:51:25Z</time>
      </trkpt>
      <trkpt lat="44.34118" lon="5.63263">
        <ele>1123.2</ele>
        <time>2021-09-07T18:51:26Z</time>
      </trkpt>
      <trkpt lat="44.34117" lon="5.63264">
        <ele>1123.3</ele>
        <time>2021-09-07T18:51:27Z</time>
      </trkpt>
      <trkpt lat="44.34117" lon="5.63264">
        <ele>1123.3</ele>
        <time>2021-09-07T18:51:28Z</time>
      </trkpt>
      <trkpt lat="44.34117" lon="5.63264">
        <ele>1123.3</ele>
        <time>2021-09-07T18:51:29Z</time>
      </trkpt>
      <trkpt lat="44.34117" lon="5.63264">
        <ele>1123.3</ele>
        <time>2021-09-07T18:51:30Z</time>
      </trkpt>
      <trkpt lat="44.34117" lon="5.63264">
        <ele>1123.3</ele>
        <time>2021-09-07T18:51:31Z</time>
      </trkpt>
      <trkpt lat="44.34117" lon="5.63264">
        <ele>1123.3</ele>
        <time>2021-09-07T18:51:32Z</time>
      </trkpt>
      <trkpt lat="44.34117" lon="5.63264">
        <ele>1123.3</ele>
        <time>2021-09-07T18:51:33Z</time>
      </trkpt>
      <trkpt lat="44.34117" lon="5.63264">
        <ele>1123.3</ele>
        <time>2021-09-07T18:51:34Z</time>
      </trkpt>
      <trkpt lat="44.34117" lon="5.63264">
        <ele>1123.3</ele>
        <time>2021-09-07T18:51:35Z</time>
      </trkpt>
      <trkpt lat="44.34117" lon="5.63264">
        <ele>1123.3</ele>
        <time>2021-09-07T18:51:36Z</time>
      </trkpt>
      <trkpt lat="44.34117" lon="5.63264">
        <ele>1123.3</ele>
        <time>2021-09-07T18:51:37Z</time>
      </trkpt>
      <trkpt lat="44.34116" lon="5.63264">
        <ele>1123.5</ele>
        <time>2021-09-07T18:51:38Z</time>
      </trkpt>
      <trkpt lat="44.34116" lon="5.63264">
        <ele>1123.5</ele>
        <time>2021-09-07T18:51:39Z</time>
      </trkpt>
      <trkpt lat="44.34116" lon="5.63264">
        <ele>1123.5</ele>
        <time>2021-09-07T18:51:40Z</time>
      </trkpt>
      <trkpt lat="44.34116" lon="5.63264">
        <ele>1123.5</ele>
        <time>2021-09-07T18:51:41Z</time>
      </trkpt>
      <trkpt lat="44.34116" lon="5.63264">
        <ele>1123.5</ele>
        <time>2021-09-07T18:51:42Z</time>
      </trkpt>
      <trkpt lat="44.34116" lon="5.63264">
        <ele>1123.5</ele>
        <time>2021-09-07T18:51:43Z</time>
      </trkpt>
      <trkpt lat="44.34116" lon="5.63265">
        <ele>1123.5</ele>
        <time>2021-09-07T18:51:44Z</time>
      </trkpt>
      <trkpt lat="44.34116" lon="5.63265">
        <ele>1123.6</ele>
        <time>2021-09-07T18:51:45Z</time>
      </trkpt>
      <trkpt lat="44.34116" lon="5.63265">
        <ele>1123.6</ele>
        <time>2021-09-07T18:51:46Z</time>
      </trkpt>
      <trkpt lat="44.34116" lon="5.63265">
        <ele>1123.6</ele>
        <time>2021-09-07T18:51:47Z</time>
      </trkpt>
      <trkpt lat="44.34116" lon="5.63265">
        <ele>1123.6</ele>
        <time>2021-09-07T18:51:48Z</time>
      </trkpt>
      <trkpt lat="44.34115" lon="5.63264">
        <ele>1123.7</ele>
        <time>2021-09-07T18:51:49Z</time>
      </trkpt>
      <trkpt lat="44.34113" lon="5.63264">
        <ele>1124</ele>
        <time>2021-09-07T18:51:50Z</time>
      </trkpt>
      <trkpt lat="44.34112" lon="5.63264">
        <ele>1124.2</ele>
        <time>2021-09-07T18:51:51Z</time>
      </trkpt>
      <trkpt lat="44.34111" lon="5.63264">
        <ele>1124.4</ele>
        <time>2021-09-07T18:51:52Z</time>
      </trkpt>
      <trkpt lat="44.34109" lon="5.63265">
        <ele>1124.7</ele>
        <time>2021-09-07T18:51:53Z</time>
      </trkpt>
      <trkpt lat="44.34106" lon="5.63265">
        <ele>1125.2</ele>
        <time>2021-09-07T18:51:54Z</time>
      </trkpt>
      <trkpt lat="44.34104" lon="5.63266">
        <ele>1125.5</ele>
        <time>2021-09-07T18:51:55Z</time>
      </trkpt>
      <trkpt lat="44.34102" lon="5.63267">
        <ele>1125.8</ele>
        <time>2021-09-07T18:51:56Z</time>
      </trkpt>
      <trkpt lat="44.34102" lon="5.63267">
        <ele>1125.9</ele>
        <time>2021-09-07T18:51:57Z</time>
      </trkpt>
      <trkpt lat="44.34101" lon="5.63267">
        <ele>1126</ele>
        <time>2021-09-07T18:51:58Z</time>
      </trkpt>
      <trkpt lat="44.34101" lon="5.63267">
        <ele>1126</ele>
        <time>2021-09-07T18:51:59Z</time>
      </trkpt>
      <trkpt lat="44.34099" lon="5.63268">
        <ele>1126.3</ele>
        <time>2021-09-07T18:52:00Z</time>
      </trkpt>
      <trkpt lat="44.34099" lon="5.63268">
        <ele>1126.3</ele>
        <time>2021-09-07T18:52:01Z</time>
      </trkpt>
      <trkpt lat="44.34099" lon="5.63268">
        <ele>1126.3</ele>
        <time>2021-09-07T18:52:02Z</time>
      </trkpt>
      <trkpt lat="44.34099" lon="5.63268">
        <ele>1126.3</ele>
        <time>2021-09-07T18:52:03Z</time>
      </trkpt>
      <trkpt lat="44.34098" lon="5.63268">
        <ele>1126.5</ele>
        <time>2021-09-07T18:52:04Z</time>
      </trkpt>
      <trkpt lat="44.34098" lon="5.63268">
        <ele>1126.5</ele>
        <time>2021-09-07T18:52:05Z</time>
      </trkpt>
      <trkpt lat="44.34098" lon="5.63267">
        <ele>1126.6</ele>
        <time>2021-09-07T18:52:06Z</time>
      </trkpt>
      <trkpt lat="44.34098" lon="5.63267">
        <ele>1126.6</ele>
        <time>2021-09-07T18:52:07Z</time>
      </trkpt>
      <trkpt lat="44.34098" lon="5.63267">
        <ele>1126.6</ele>
        <time>2021-09-07T18:52:08Z</time>
      </trkpt>
      <trkpt lat="44.34098" lon="5.63267">
        <ele>1126.6</ele>
        <time>2021-09-07T18:52:09Z</time>
      </trkpt>
      <trkpt lat="44.34098" lon="5.63267">
        <ele>1126.6</ele>
        <time>2021-09-07T18:52:10Z</time>
      </trkpt>
      <trkpt lat="44.34098" lon="5.63267">
        <ele>1126.7</ele>
        <time>2021-09-07T18:52:11Z</time>
      </trkpt>
      <trkpt lat="44.34097" lon="5.63267">
        <ele>1126.7</ele>
        <time>2021-09-07T18:52:12Z</time>
      </trkpt>
      <trkpt lat="44.34097" lon="5.63267">
        <ele>1126.8</ele>
        <time>2021-09-07T18:52:13Z</time>
      </trkpt>
      <trkpt lat="44.34097" lon="5.63266">
        <ele>1126.9</ele>
        <time>2021-09-07T18:52:14Z</time>
      </trkpt>
      <trkpt lat="44.34097" lon="5.63266">
        <ele>1126.9</ele>
        <time>2021-09-07T18:52:15Z</time>
      </trkpt>
      <trkpt lat="44.34097" lon="5.63266">
        <ele>1126.9</ele>
        <time>2021-09-07T18:52:16Z</time>
      </trkpt>
      <trkpt lat="44.34097" lon="5.63266">
        <ele>1126.9</ele>
        <time>2021-09-07T18:52:17Z</time>
      </trkpt>
      <trkpt lat="44.34097" lon="5.63266">
        <ele>1126.9</ele>
        <time>2021-09-07T18:52:18Z</time>
      </trkpt>
      <trkpt lat="44.34097" lon="5.63266">
        <ele>1126.9</ele>
        <time>2021-09-07T18:52:19Z</time>
      </trkpt>
      <trkpt lat="44.34097" lon="5.63267">
        <ele>1127</ele>
        <time>2021-09-07T18:52:20Z</time>
      </trkpt>
      <trkpt lat="44.34097" lon="5.63268">
        <ele>1127.1</ele>
        <time>2021-09-07T18:52:21Z</time>
      </trkpt>
      <trkpt lat="44.34096" lon="5.63269">
        <ele>1127.2</ele>
        <time>2021-09-07T18:52:22Z</time>
      </trkpt>
      <trkpt lat="44.34096" lon="5.63271">
        <ele>1127.4</ele>
        <time>2021-09-07T18:52:23Z</time>
      </trkpt>
      <trkpt lat="44.34095" lon="5.63272">
        <ele>1127.6</ele>
        <time>2021-09-07T18:52:24Z</time>
      </trkpt>
      <trkpt lat="44.34095" lon="5.63274">
        <ele>1127.8</ele>
        <time>2021-09-07T18:52:25Z</time>
      </trkpt>
      <trkpt lat="44.34094" lon="5.63276">
        <ele>1128.1</ele>
        <time>2021-09-07T18:52:26Z</time>
      </trkpt>
      <trkpt lat="44.34094" lon="5.63277">
        <ele>1128.2</ele>
        <time>2021-09-07T18:52:27Z</time>
      </trkpt>
      <trkpt lat="44.34094" lon="5.63277">
        <ele>1128.2</ele>
        <time>2021-09-07T18:52:28Z</time>
      </trkpt>
      <trkpt lat="44.34094" lon="5.63278">
        <ele>1128.4</ele>
        <time>2021-09-07T18:52:29Z</time>
      </trkpt>
      <trkpt lat="44.34093" lon="5.63279">
        <ele>1128.6</ele>
        <time>2021-09-07T18:52:30Z</time>
      </trkpt>
      <trkpt lat="44.34093" lon="5.6328">
        <ele>1128.7</ele>
        <time>2021-09-07T18:52:31Z</time>
      </trkpt>
      <trkpt lat="44.34093" lon="5.6328">
        <ele>1128.7</ele>
        <time>2021-09-07T18:52:32Z</time>
      </trkpt>
      <trkpt lat="44.34093" lon="5.6328">
        <ele>1128.7</ele>
        <time>2021-09-07T18:52:33Z</time>
      </trkpt>
      <trkpt lat="44.34093" lon="5.63281">
        <ele>1128.8</ele>
        <time>2021-09-07T18:52:34Z</time>
      </trkpt>
      <trkpt lat="44.34093" lon="5.63281">
        <ele>1128.8</ele>
        <time>2021-09-07T18:52:35Z</time>
      </trkpt>
      <trkpt lat="44.34093" lon="5.63281">
        <ele>1128.8</ele>
        <time>2021-09-07T18:52:36Z</time>
      </trkpt>
      <trkpt lat="44.34093" lon="5.63281">
        <ele>1128.8</ele>
        <time>2021-09-07T18:52:37Z</time>
      </trkpt>
      <trkpt lat="44.34093" lon="5.63282">
        <ele>1128.9</ele>
        <time>2021-09-07T18:52:38Z</time>
      </trkpt>
      <trkpt lat="44.34093" lon="5.63282">
        <ele>1128.9</ele>
        <time>2021-09-07T18:52:39Z</time>
      </trkpt>
      <trkpt lat="44.34093" lon="5.63282">
        <ele>1129</ele>
        <time>2021-09-07T18:52:40Z</time>
      </trkpt>
      <trkpt lat="44.34092" lon="5.63282">
        <ele>1129.1</ele>
        <time>2021-09-07T18:52:41Z</time>
      </trkpt>
      <trkpt lat="44.34092" lon="5.63282">
        <ele>1129.1</ele>
        <time>2021-09-07T18:52:42Z</time>
      </trkpt>
      <trkpt lat="44.34092" lon="5.63282">
        <ele>1129.1</ele>
        <time>2021-09-07T18:52:43Z</time>
      </trkpt>
      <trkpt lat="44.34092" lon="5.63282">
        <ele>1129.1</ele>
        <time>2021-09-07T18:52:44Z</time>
      </trkpt>
      <trkpt lat="44.34092" lon="5.63282">
        <ele>1129.1</ele>
        <time>2021-09-07T18:52:45Z</time>
      </trkpt>
      <trkpt lat="44.34092" lon="5.63282">
        <ele>1129.1</ele>
        <time>2021-09-07T18:52:46Z</time>
      </trkpt>
      <trkpt lat="44.34092" lon="5.63282">
        <ele>1129.1</ele>
        <time>2021-09-07T18:52:47Z</time>
      </trkpt>
      <trkpt lat="44.34092" lon="5.63282">
        <ele>1129.1</ele>
        <time>2021-09-07T18:52:48Z</time>
      </trkpt>
      <trkpt lat="44.34093" lon="5.63282">
        <ele>1129.2</ele>
        <time>2021-09-07T18:52:49Z</time>
      </trkpt>
      <trkpt lat="44.34093" lon="5.63282">
        <ele>1129.2</ele>
        <time>2021-09-07T18:52:50Z</time>
      </trkpt>
      <trkpt lat="44.34093" lon="5.63282">
        <ele>1129.3</ele>
        <time>2021-09-07T18:52:51Z</time>
      </trkpt>
      <trkpt lat="44.34092" lon="5.63282">
        <ele>1129.4</ele>
        <time>2021-09-07T18:52:52Z</time>
      </trkpt>
      <trkpt lat="44.34092" lon="5.63282">
        <ele>1129.4</ele>
        <time>2021-09-07T18:52:53Z</time>
      </trkpt>
      <trkpt lat="44.34092" lon="5.63282">
        <ele>1129.4</ele>
        <time>2021-09-07T18:52:54Z</time>
      </trkpt>
      <trkpt lat="44.34092" lon="5.63282">
        <ele>1129.4</ele>
        <time>2021-09-07T18:52:55Z</time>
      </trkpt>
      <trkpt lat="44.34092" lon="5.63282">
        <ele>1129.4</ele>
        <time>2021-09-07T18:52:56Z</time>
      </trkpt>
      <trkpt lat="44.34092" lon="5.63282">
        <ele>1129.4</ele>
        <time>2021-09-07T18:52:57Z</time>
      </trkpt>
      <trkpt lat="44.34092" lon="5.63282">
        <ele>1129.4</ele>
        <time>2021-09-07T18:52:58Z</time>
      </trkpt>
      <trkpt lat="44.34092" lon="5.63282">
        <ele>1129.4</ele>
        <time>2021-09-07T18:52:59Z</time>
      </trkpt>
      <trkpt lat="44.34092" lon="5.63282">
        <ele>1129.4</ele>
        <time>2021-09-07T18:53:00Z</time>
      </trkpt>
      <trkpt lat="44.34092" lon="5.63282">
        <ele>1129.4</ele>
        <time>2021-09-07T18:53:01Z</time>
      </trkpt>
      <trkpt lat="44.34092" lon="5.63282">
        <ele>1129.4</ele>
        <time>2021-09-07T18:53:02Z</time>
      </trkpt>
      <trkpt lat="44.34092" lon="5.63282">
        <ele>1129.4</ele>
        <time>2021-09-07T18:53:03Z</time>
      </trkpt>
      <trkpt lat="44.34092" lon="5.63282">
        <ele>1129.4</ele>
        <time>2021-09-07T18:53:04Z</time>
      </trkpt>
      <trkpt lat="44.34092" lon="5.63282">
        <ele>1129.4</ele>
        <time>2021-09-07T18:53:05Z</time>
      </trkpt>
      <trkpt lat="44.34092" lon="5.63282">
        <ele>1129.4</ele>
        <time>2021-09-07T18:53:06Z</time>
      </trkpt>
      <trkpt lat="44.34092" lon="5.63282">
        <ele>1129.4</ele>
        <time>2021-09-07T18:53:07Z</time>
      </trkpt>
      <trkpt lat="44.34092" lon="5.63282">
        <ele>1129.4</ele>
        <time>2021-09-07T18:53:08Z</time>
      </trkpt>
      <trkpt lat="44.34092" lon="5.63282">
        <ele>1129.4</ele>
        <time>2021-09-07T18:53:09Z</time>
      </trkpt>
      <trkpt lat="44.34092" lon="5.63282">
        <ele>1129.4</ele>
        <time>2021-09-07T18:53:10Z</time>
      </trkpt>
      <trkpt lat="44.34092" lon="5.63282">
        <ele>1129.4</ele>
        <time>2021-09-07T18:53:11Z</time>
      </trkpt>
      <trkpt lat="44.34092" lon="5.63282">
        <ele>1129.5</ele>
        <time>2021-09-07T18:53:12Z</time>
      </trkpt>
      <trkpt lat="44.34092" lon="5.63281">
        <ele>1129.5</ele>
        <time>2021-09-07T18:53:13Z</time>
      </trkpt>
      <trkpt lat="44.34092" lon="5.63281">
        <ele>1129.5</ele>
        <time>2021-09-07T18:53:14Z</time>
      </trkpt>
      <trkpt lat="44.34092" lon="5.63281">
        <ele>1129.5</ele>
        <time>2021-09-07T18:53:15Z</time>
      </trkpt>
      <trkpt lat="44.34092" lon="5.63281">
        <ele>1129.5</ele>
        <time>2021-09-07T18:53:16Z</time>
      </trkpt>
      <trkpt lat="44.34092" lon="5.63281">
        <ele>1129.5</ele>
        <time>2021-09-07T18:53:17Z</time>
      </trkpt>
      <trkpt lat="44.34092" lon="5.63281">
        <ele>1129.5</ele>
        <time>2021-09-07T18:53:18Z</time>
      </trkpt>
      <trkpt lat="44.34092" lon="5.63281">
        <ele>1129.5</ele>
        <time>2021-09-07T18:53:19Z</time>
      </trkpt>
      <trkpt lat="44.34092" lon="5.63281">
        <ele>1129.5</ele>
        <time>2021-09-07T18:53:20Z</time>
      </trkpt>
      <trkpt lat="44.34092" lon="5.63282">
        <ele>1129.6</ele>
        <time>2021-09-07T18:53:21Z</time>
      </trkpt>
      <trkpt lat="44.34092" lon="5.63283">
        <ele>1129.8</ele>
        <time>2021-09-07T18:53:22Z</time>
      </trkpt>
      <trkpt lat="44.34092" lon="5.63284">
        <ele>1129.9</ele>
        <time>2021-09-07T18:53:23Z</time>
      </trkpt>
      <trkpt lat="44.34091" lon="5.63288">
        <ele>1130.4</ele>
        <time>2021-09-07T18:53:24Z</time>
      </trkpt>
      <trkpt lat="44.34091" lon="5.6329">
        <ele>1130.6</ele>
        <time>2021-09-07T18:53:25Z</time>
      </trkpt>
      <trkpt lat="44.3409" lon="5.63291">
        <ele>1130.8</ele>
        <time>2021-09-07T18:53:26Z</time>
      </trkpt>
      <trkpt lat="44.3409" lon="5.63292">
        <ele>1130.9</ele>
        <time>2021-09-07T18:53:27Z</time>
      </trkpt>
      <trkpt lat="44.3409" lon="5.63293">
        <ele>1131</ele>
        <time>2021-09-07T18:53:28Z</time>
      </trkpt>
      <trkpt lat="44.3409" lon="5.63295">
        <ele>1131.3</ele>
        <time>2021-09-07T18:53:29Z</time>
      </trkpt>
      <trkpt lat="44.3409" lon="5.63296">
        <ele>1131.4</ele>
        <time>2021-09-07T18:53:30Z</time>
      </trkpt>
      <trkpt lat="44.3409" lon="5.63296">
        <ele>1131.4</ele>
        <time>2021-09-07T18:53:31Z</time>
      </trkpt>
      <trkpt lat="44.3409" lon="5.63296">
        <ele>1131.4</ele>
        <time>2021-09-07T18:53:32Z</time>
      </trkpt>
      <trkpt lat="44.3409" lon="5.63297">
        <ele>1131.6</ele>
        <time>2021-09-07T18:53:33Z</time>
      </trkpt>
      <trkpt lat="44.3409" lon="5.63298">
        <ele>1131.7</ele>
        <time>2021-09-07T18:53:34Z</time>
      </trkpt>
      <trkpt lat="44.34089" lon="5.63298">
        <ele>1131.8</ele>
        <time>2021-09-07T18:53:35Z</time>
      </trkpt>
      <trkpt lat="44.34088" lon="5.63299">
        <ele>1132</ele>
        <time>2021-09-07T18:53:36Z</time>
      </trkpt>
      <trkpt lat="44.34087" lon="5.633">
        <ele>1132.2</ele>
        <time>2021-09-07T18:53:37Z</time>
      </trkpt>
      <trkpt lat="44.34086" lon="5.63302">
        <ele>1132.5</ele>
        <time>2021-09-07T18:53:38Z</time>
      </trkpt>
      <trkpt lat="44.34085" lon="5.63303">
        <ele>1132.7</ele>
        <time>2021-09-07T18:53:39Z</time>
      </trkpt>
      <trkpt lat="44.34084" lon="5.63304">
        <ele>1133</ele>
        <time>2021-09-07T18:53:40Z</time>
      </trkpt>
      <trkpt lat="44.34084" lon="5.63305">
        <ele>1133.1</ele>
        <time>2021-09-07T18:53:41Z</time>
      </trkpt>
      <trkpt lat="44.34083" lon="5.63306">
        <ele>1133.3</ele>
        <time>2021-09-07T18:53:42Z</time>
      </trkpt>
      <trkpt lat="44.34082" lon="5.63307">
        <ele>1133.5</ele>
        <time>2021-09-07T18:53:43Z</time>
      </trkpt>
      <trkpt lat="44.34082" lon="5.63308">
        <ele>1133.6</ele>
        <time>2021-09-07T18:53:44Z</time>
      </trkpt>
      <trkpt lat="44.34082" lon="5.63308">
        <ele>1133.6</ele>
        <time>2021-09-07T18:53:45Z</time>
      </trkpt>
      <trkpt lat="44.34081" lon="5.63309">
        <ele>1133.9</ele>
        <time>2021-09-07T18:53:46Z</time>
      </trkpt>
      <trkpt lat="44.3408" lon="5.63311">
        <ele>1134.2</ele>
        <time>2021-09-07T18:53:47Z</time>
      </trkpt>
      <trkpt lat="44.34079" lon="5.63312">
        <ele>1134.4</ele>
        <time>2021-09-07T18:53:48Z</time>
      </trkpt>
      <trkpt lat="44.34078" lon="5.63313">
        <ele>1134.6</ele>
        <time>2021-09-07T18:53:49Z</time>
      </trkpt>
      <trkpt lat="44.34078" lon="5.63315">
        <ele>1134.8</ele>
        <time>2021-09-07T18:53:50Z</time>
      </trkpt>
      <trkpt lat="44.34077" lon="5.63316">
        <ele>1135</ele>
        <time>2021-09-07T18:53:51Z</time>
      </trkpt>
      <trkpt lat="44.34077" lon="5.63317">
        <ele>1135.1</ele>
        <time>2021-09-07T18:53:52Z</time>
      </trkpt>
      <trkpt lat="44.34076" lon="5.63317">
        <ele>1135.2</ele>
        <time>2021-09-07T18:53:53Z</time>
      </trkpt>
      <trkpt lat="44.34076" lon="5.63318">
        <ele>1135.4</ele>
        <time>2021-09-07T18:53:54Z</time>
      </trkpt>
      <trkpt lat="44.34076" lon="5.63318">
        <ele>1135.4</ele>
        <time>2021-09-07T18:53:55Z</time>
      </trkpt>
      <trkpt lat="44.34076" lon="5.63319">
        <ele>1135.5</ele>
        <time>2021-09-07T18:53:56Z</time>
      </trkpt>
      <trkpt lat="44.34075" lon="5.63319">
        <ele>1135.6</ele>
        <time>2021-09-07T18:53:57Z</time>
      </trkpt>
      <trkpt lat="44.34075" lon="5.63319">
        <ele>1135.6</ele>
        <time>2021-09-07T18:53:58Z</time>
      </trkpt>
      <trkpt lat="44.34075" lon="5.6332">
        <ele>1135.7</ele>
        <time>2021-09-07T18:53:59Z</time>
      </trkpt>
      <trkpt lat="44.34075" lon="5.6332">
        <ele>1135.7</ele>
        <time>2021-09-07T18:54:00Z</time>
      </trkpt>
      <trkpt lat="44.34075" lon="5.6332">
        <ele>1135.7</ele>
        <time>2021-09-07T18:54:01Z</time>
      </trkpt>
      <trkpt lat="44.34075" lon="5.63321">
        <ele>1135.8</ele>
        <time>2021-09-07T18:54:02Z</time>
      </trkpt>
      <trkpt lat="44.34075" lon="5.63321">
        <ele>1135.8</ele>
        <time>2021-09-07T18:54:03Z</time>
      </trkpt>
      <trkpt lat="44.34075" lon="5.63321">
        <ele>1135.9</ele>
        <time>2021-09-07T18:54:04Z</time>
      </trkpt>
      <trkpt lat="44.34074" lon="5.63321">
        <ele>1136</ele>
        <time>2021-09-07T18:54:05Z</time>
      </trkpt>
      <trkpt lat="44.34074" lon="5.63321">
        <ele>1136</ele>
        <time>2021-09-07T18:54:06Z</time>
      </trkpt>
      <trkpt lat="44.34074" lon="5.63321">
        <ele>1136</ele>
        <time>2021-09-07T18:54:07Z</time>
      </trkpt>
      <trkpt lat="44.34074" lon="5.63321">
        <ele>1136</ele>
        <time>2021-09-07T18:54:08Z</time>
      </trkpt>
      <trkpt lat="44.34074" lon="5.63321">
        <ele>1136</ele>
        <time>2021-09-07T18:54:09Z</time>
      </trkpt>
      <trkpt lat="44.34074" lon="5.63321">
        <ele>1136</ele>
        <time>2021-09-07T18:54:10Z</time>
      </trkpt>
      <trkpt lat="44.34074" lon="5.63321">
        <ele>1136</ele>
        <time>2021-09-07T18:54:11Z</time>
      </trkpt>
      <trkpt lat="44.34074" lon="5.63321">
        <ele>1136</ele>
        <time>2021-09-07T18:54:12Z</time>
      </trkpt>
      <trkpt lat="44.34074" lon="5.6332">
        <ele>1136.1</ele>
        <time>2021-09-07T18:54:13Z</time>
      </trkpt>
      <trkpt lat="44.34074" lon="5.6332">
        <ele>1136.1</ele>
        <time>2021-09-07T18:54:14Z</time>
      </trkpt>
      <trkpt lat="44.34073" lon="5.63321">
        <ele>1136.3</ele>
        <time>2021-09-07T18:54:15Z</time>
      </trkpt>
      <trkpt lat="44.34072" lon="5.63321">
        <ele>1136.4</ele>
        <time>2021-09-07T18:54:16Z</time>
      </trkpt>
      <trkpt lat="44.34069" lon="5.63322">
        <ele>1136.9</ele>
        <time>2021-09-07T18:54:17Z</time>
      </trkpt>
      <trkpt lat="44.34069" lon="5.63323">
        <ele>1137</ele>
        <time>2021-09-07T18:54:18Z</time>
      </trkpt>
      <trkpt lat="44.34068" lon="5.63323">
        <ele>1137.1</ele>
        <time>2021-09-07T18:54:19Z</time>
      </trkpt>
      <trkpt lat="44.34067" lon="5.63323">
        <ele>1137.3</ele>
        <time>2021-09-07T18:54:20Z</time>
      </trkpt>
      <trkpt lat="44.34067" lon="5.63323">
        <ele>1137.4</ele>
        <time>2021-09-07T18:54:21Z</time>
      </trkpt>
      <trkpt lat="44.34066" lon="5.63323">
        <ele>1137.4</ele>
        <time>2021-09-07T18:54:22Z</time>
      </trkpt>
      <trkpt lat="44.34066" lon="5.63323">
        <ele>1137.4</ele>
        <time>2021-09-07T18:54:23Z</time>
      </trkpt>
      <trkpt lat="44.34065" lon="5.63323">
        <ele>1137.6</ele>
        <time>2021-09-07T18:54:24Z</time>
      </trkpt>
      <trkpt lat="44.34065" lon="5.63323">
        <ele>1137.6</ele>
        <time>2021-09-07T18:54:25Z</time>
      </trkpt>
      <trkpt lat="44.34065" lon="5.63323">
        <ele>1137.6</ele>
        <time>2021-09-07T18:54:26Z</time>
      </trkpt>
      <trkpt lat="44.34065" lon="5.63323">
        <ele>1137.7</ele>
        <time>2021-09-07T18:54:27Z</time>
      </trkpt>
      <trkpt lat="44.34064" lon="5.63323">
        <ele>1137.8</ele>
        <time>2021-09-07T18:54:28Z</time>
      </trkpt>
      <trkpt lat="44.34063" lon="5.63323">
        <ele>1137.9</ele>
        <time>2021-09-07T18:54:29Z</time>
      </trkpt>
      <trkpt lat="44.34061" lon="5.63323">
        <ele>1138.2</ele>
        <time>2021-09-07T18:54:30Z</time>
      </trkpt>
      <trkpt lat="44.34059" lon="5.63322">
        <ele>1138.5</ele>
        <time>2021-09-07T18:54:31Z</time>
      </trkpt>
      <trkpt lat="44.34059" lon="5.63322">
        <ele>1138.6</ele>
        <time>2021-09-07T18:54:32Z</time>
      </trkpt>
      <trkpt lat="44.34058" lon="5.63322">
        <ele>1138.7</ele>
        <time>2021-09-07T18:54:33Z</time>
      </trkpt>
      <trkpt lat="44.34057" lon="5.63322">
        <ele>1138.8</ele>
        <time>2021-09-07T18:54:34Z</time>
      </trkpt>
      <trkpt lat="44.34057" lon="5.63322">
        <ele>1138.9</ele>
        <time>2021-09-07T18:54:35Z</time>
      </trkpt>
      <trkpt lat="44.34056" lon="5.63322">
        <ele>1139</ele>
        <time>2021-09-07T18:54:36Z</time>
      </trkpt>
      <trkpt lat="44.34056" lon="5.63322">
        <ele>1139.1</ele>
        <time>2021-09-07T18:54:37Z</time>
      </trkpt>
      <trkpt lat="44.34055" lon="5.63321">
        <ele>1139.2</ele>
        <time>2021-09-07T18:54:38Z</time>
      </trkpt>
      <trkpt lat="44.34054" lon="5.63321">
        <ele>1139.3</ele>
        <time>2021-09-07T18:54:39Z</time>
      </trkpt>
      <trkpt lat="44.34054" lon="5.63321">
        <ele>1139.4</ele>
        <time>2021-09-07T18:54:40Z</time>
      </trkpt>
      <trkpt lat="44.34053" lon="5.63321">
        <ele>1139.5</ele>
        <time>2021-09-07T18:54:41Z</time>
      </trkpt>
      <trkpt lat="44.34052" lon="5.63321">
        <ele>1139.6</ele>
        <time>2021-09-07T18:54:42Z</time>
      </trkpt>
      <trkpt lat="44.34052" lon="5.63321">
        <ele>1139.7</ele>
        <time>2021-09-07T18:54:43Z</time>
      </trkpt>
      <trkpt lat="44.34051" lon="5.63321">
        <ele>1139.8</ele>
        <time>2021-09-07T18:54:44Z</time>
      </trkpt>
      <trkpt lat="44.3405" lon="5.6332">
        <ele>1139.9</ele>
        <time>2021-09-07T18:54:45Z</time>
      </trkpt>
      <trkpt lat="44.3405" lon="5.6332">
        <ele>1140</ele>
        <time>2021-09-07T18:54:46Z</time>
      </trkpt>
      <trkpt lat="44.34049" lon="5.6332">
        <ele>1140.2</ele>
        <time>2021-09-07T18:54:47Z</time>
      </trkpt>
      <trkpt lat="44.34048" lon="5.6332">
        <ele>1140.2</ele>
        <time>2021-09-07T18:54:48Z</time>
      </trkpt>
      <trkpt lat="44.34048" lon="5.6332">
        <ele>1140.4</ele>
        <time>2021-09-07T18:54:49Z</time>
      </trkpt>
      <trkpt lat="44.34047" lon="5.6332">
        <ele>1140.5</ele>
        <time>2021-09-07T18:54:50Z</time>
      </trkpt>
      <trkpt lat="44.34047" lon="5.6332">
        <ele>1140.6</ele>
        <time>2021-09-07T18:54:51Z</time>
      </trkpt>
      <trkpt lat="44.34046" lon="5.63319">
        <ele>1140.7</ele>
        <time>2021-09-07T18:54:52Z</time>
      </trkpt>
      <trkpt lat="44.34045" lon="5.63319">
        <ele>1140.8</ele>
        <time>2021-09-07T18:54:53Z</time>
      </trkpt>
      <trkpt lat="44.34045" lon="5.63319">
        <ele>1140.9</ele>
        <time>2021-09-07T18:54:54Z</time>
      </trkpt>
      <trkpt lat="44.34044" lon="5.63319">
        <ele>1141</ele>
        <time>2021-09-07T18:54:55Z</time>
      </trkpt>
      <trkpt lat="44.34043" lon="5.63319">
        <ele>1141.1</ele>
        <time>2021-09-07T18:54:56Z</time>
      </trkpt>
      <trkpt lat="44.34043" lon="5.63319">
        <ele>1141.2</ele>
        <time>2021-09-07T18:54:57Z</time>
      </trkpt>
      <trkpt lat="44.34042" lon="5.63318">
        <ele>1141.3</ele>
        <time>2021-09-07T18:54:58Z</time>
      </trkpt>
      <trkpt lat="44.34041" lon="5.63318">
        <ele>1141.4</ele>
        <time>2021-09-07T18:54:59Z</time>
      </trkpt>
      <trkpt lat="44.34041" lon="5.63318">
        <ele>1141.5</ele>
        <time>2021-09-07T18:55:00Z</time>
      </trkpt>
      <trkpt lat="44.3404" lon="5.63318">
        <ele>1141.6</ele>
        <time>2021-09-07T18:55:01Z</time>
      </trkpt>
      <trkpt lat="44.34039" lon="5.63317">
        <ele>1141.8</ele>
        <time>2021-09-07T18:55:02Z</time>
      </trkpt>
      <trkpt lat="44.34038" lon="5.63316">
        <ele>1142</ele>
        <time>2021-09-07T18:55:03Z</time>
      </trkpt>
      <trkpt lat="44.34038" lon="5.63316">
        <ele>1142</ele>
        <time>2021-09-07T18:55:04Z</time>
      </trkpt>
      <trkpt lat="44.34038" lon="5.63316">
        <ele>1142</ele>
        <time>2021-09-07T18:55:05Z</time>
      </trkpt>
      <trkpt lat="44.34038" lon="5.63316">
        <ele>1142</ele>
        <time>2021-09-07T18:55:06Z</time>
      </trkpt>
      <trkpt lat="44.34038" lon="5.63316">
        <ele>1142</ele>
        <time>2021-09-07T18:55:07Z</time>
      </trkpt>
      <trkpt lat="44.34038" lon="5.63316">
        <ele>1142</ele>
        <time>2021-09-07T18:55:08Z</time>
      </trkpt>
      <trkpt lat="44.34038" lon="5.63316">
        <ele>1142.1</ele>
        <time>2021-09-07T18:55:09Z</time>
      </trkpt>
      <trkpt lat="44.34037" lon="5.63316">
        <ele>1142.2</ele>
        <time>2021-09-07T18:55:10Z</time>
      </trkpt>
      <trkpt lat="44.34037" lon="5.63316">
        <ele>1142.2</ele>
        <time>2021-09-07T18:55:11Z</time>
      </trkpt>
      <trkpt lat="44.34037" lon="5.63316">
        <ele>1142.2</ele>
        <time>2021-09-07T18:55:12Z</time>
      </trkpt>
      <trkpt lat="44.34037" lon="5.63316">
        <ele>1142.2</ele>
        <time>2021-09-07T18:55:13Z</time>
      </trkpt>
      <trkpt lat="44.34037" lon="5.63316">
        <ele>1142.2</ele>
        <time>2021-09-07T18:55:14Z</time>
      </trkpt>
      <trkpt lat="44.34037" lon="5.63316">
        <ele>1142.2</ele>
        <time>2021-09-07T18:55:15Z</time>
      </trkpt>
      <trkpt lat="44.34037" lon="5.63316">
        <ele>1142.2</ele>
        <time>2021-09-07T18:55:16Z</time>
      </trkpt>
      <trkpt lat="44.34037" lon="5.63316">
        <ele>1142.2</ele>
        <time>2021-09-07T18:55:17Z</time>
      </trkpt>
      <trkpt lat="44.3404" lon="5.63318">
        <ele>1142.7</ele>
        <time>2021-09-07T18:55:18Z</time>
      </trkpt>
      <trkpt lat="44.34043" lon="5.6332">
        <ele>1143.3</ele>
        <time>2021-09-07T18:55:19Z</time>
      </trkpt>
      <trkpt lat="44.34045" lon="5.63321">
        <ele>1143.6</ele>
        <time>2021-09-07T18:55:20Z</time>
      </trkpt>
      <trkpt lat="44.34046" lon="5.63322">
        <ele>1143.8</ele>
        <time>2021-09-07T18:55:21Z</time>
      </trkpt>
      <trkpt lat="44.34047" lon="5.63322">
        <ele>1143.9</ele>
        <time>2021-09-07T18:55:22Z</time>
      </trkpt>
      <trkpt lat="44.34048" lon="5.63322">
        <ele>1144.1</ele>
        <time>2021-09-07T18:55:23Z</time>
      </trkpt>
      <trkpt lat="44.34048" lon="5.63322">
        <ele>1144.1</ele>
        <time>2021-09-07T18:55:24Z</time>
      </trkpt>
      <trkpt lat="44.34048" lon="5.63322">
        <ele>1144.1</ele>
        <time>2021-09-07T18:55:25Z</time>
      </trkpt>
      <trkpt lat="44.34048" lon="5.63322">
        <ele>1144.1</ele>
        <time>2021-09-07T18:55:26Z</time>
      </trkpt>
      <trkpt lat="44.34048" lon="5.63322">
        <ele>1144.1</ele>
        <time>2021-09-07T18:55:27Z</time>
      </trkpt>
      <trkpt lat="44.34048" lon="5.63322">
        <ele>1144.1</ele>
        <time>2021-09-07T18:55:28Z</time>
      </trkpt>
      <trkpt lat="44.34048" lon="5.63323">
        <ele>1144.2</ele>
        <time>2021-09-07T18:55:29Z</time>
      </trkpt>
      <trkpt lat="44.34048" lon="5.63323">
        <ele>1144.2</ele>
        <time>2021-09-07T18:55:30Z</time>
      </trkpt>
      <trkpt lat="44.34048" lon="5.63323">
        <ele>1144.2</ele>
        <time>2021-09-07T18:55:31Z</time>
      </trkpt>
      <trkpt lat="44.34048" lon="5.63323">
        <ele>1144.2</ele>
        <time>2021-09-07T18:55:32Z</time>
      </trkpt>
      <trkpt lat="44.34048" lon="5.63323">
        <ele>1144.2</ele>
        <time>2021-09-07T18:55:33Z</time>
      </trkpt>
      <trkpt lat="44.34048" lon="5.63323">
        <ele>1144.2</ele>
        <time>2021-09-07T18:55:34Z</time>
      </trkpt>
      <trkpt lat="44.34048" lon="5.63323">
        <ele>1144.2</ele>
        <time>2021-09-07T18:55:35Z</time>
      </trkpt>
      <trkpt lat="44.34048" lon="5.63323">
        <ele>1144.2</ele>
        <time>2021-09-07T18:55:36Z</time>
      </trkpt>
      <trkpt lat="44.34048" lon="5.63323">
        <ele>1144.2</ele>
        <time>2021-09-07T18:55:37Z</time>
      </trkpt>
      <trkpt lat="44.34048" lon="5.63323">
        <ele>1144.2</ele>
        <time>2021-09-07T18:55:38Z</time>
      </trkpt>
      <trkpt lat="44.34048" lon="5.63324">
        <ele>1144.3</ele>
        <time>2021-09-07T18:55:39Z</time>
      </trkpt>
      <trkpt lat="44.34047" lon="5.63324">
        <ele>1144.4</ele>
        <time>2021-09-07T18:55:40Z</time>
      </trkpt>
      <trkpt lat="44.34046" lon="5.63326">
        <ele>1144.7</ele>
        <time>2021-09-07T18:55:41Z</time>
      </trkpt>
      <trkpt lat="44.34044" lon="5.63328">
        <ele>1145</ele>
        <time>2021-09-07T18:55:42Z</time>
      </trkpt>
      <trkpt lat="44.34044" lon="5.63329">
        <ele>1145.1</ele>
        <time>2021-09-07T18:55:43Z</time>
      </trkpt>
      <trkpt lat="44.34043" lon="5.63329">
        <ele>1145.2</ele>
        <time>2021-09-07T18:55:44Z</time>
      </trkpt>
      <trkpt lat="44.34043" lon="5.6333">
        <ele>1145.3</ele>
        <time>2021-09-07T18:55:45Z</time>
      </trkpt>
      <trkpt lat="44.34042" lon="5.6333">
        <ele>1145.4</ele>
        <time>2021-09-07T18:55:46Z</time>
      </trkpt>
      <trkpt lat="44.34041" lon="5.63331">
        <ele>1145.6</ele>
        <time>2021-09-07T18:55:47Z</time>
      </trkpt>
      <trkpt lat="44.3404" lon="5.63332">
        <ele>1145.7</ele>
        <time>2021-09-07T18:55:48Z</time>
      </trkpt>
      <trkpt lat="44.3404" lon="5.63332">
        <ele>1145.7</ele>
        <time>2021-09-07T18:55:49Z</time>
      </trkpt>
      <trkpt lat="44.3404" lon="5.63333">
        <ele>1145.8</ele>
        <time>2021-09-07T18:55:50Z</time>
      </trkpt>
      <trkpt lat="44.34039" lon="5.63333">
        <ele>1145.9</ele>
        <time>2021-09-07T18:55:51Z</time>
      </trkpt>
      <trkpt lat="44.34039" lon="5.63334">
        <ele>1146</ele>
        <time>2021-09-07T18:55:52Z</time>
      </trkpt>
      <trkpt lat="44.34039" lon="5.63335">
        <ele>1146.1</ele>
        <time>2021-09-07T18:55:53Z</time>
      </trkpt>
      <trkpt lat="44.34038" lon="5.63335">
        <ele>1146.2</ele>
        <time>2021-09-07T18:55:54Z</time>
      </trkpt>
      <trkpt lat="44.34038" lon="5.63335">
        <ele>1146.2</ele>
        <time>2021-09-07T18:55:55Z</time>
      </trkpt>
      <trkpt lat="44.34038" lon="5.63336">
        <ele>1146.2</ele>
        <time>2021-09-07T18:55:56Z</time>
      </trkpt>
      <trkpt lat="44.34038" lon="5.63336">
        <ele>1146.3</ele>
        <time>2021-09-07T18:55:57Z</time>
      </trkpt>
      <trkpt lat="44.34037" lon="5.63336">
        <ele>1146.4</ele>
        <time>2021-09-07T18:55:58Z</time>
      </trkpt>
      <trkpt lat="44.34037" lon="5.63336">
        <ele>1146.4</ele>
        <time>2021-09-07T18:55:59Z</time>
      </trkpt>
      <trkpt lat="44.34037" lon="5.63336">
        <ele>1146.4</ele>
        <time>2021-09-07T18:56:00Z</time>
      </trkpt>
      <trkpt lat="44.34037" lon="5.63336">
        <ele>1146.4</ele>
        <time>2021-09-07T18:56:01Z</time>
      </trkpt>
      <trkpt lat="44.34037" lon="5.63337">
        <ele>1146.5</ele>
        <time>2021-09-07T18:56:02Z</time>
      </trkpt>
      <trkpt lat="44.34037" lon="5.63337">
        <ele>1146.5</ele>
        <time>2021-09-07T18:56:03Z</time>
      </trkpt>
      <trkpt lat="44.34037" lon="5.63337">
        <ele>1146.5</ele>
        <time>2021-09-07T18:56:04Z</time>
      </trkpt>
      <trkpt lat="44.34037" lon="5.63337">
        <ele>1146.6</ele>
        <time>2021-09-07T18:56:05Z</time>
      </trkpt>
      <trkpt lat="44.34036" lon="5.63337">
        <ele>1146.7</ele>
        <time>2021-09-07T18:56:06Z</time>
      </trkpt>
      <trkpt lat="44.34034" lon="5.63339">
        <ele>1147</ele>
        <time>2021-09-07T18:56:07Z</time>
      </trkpt>
      <trkpt lat="44.34033" lon="5.6334">
        <ele>1147.1</ele>
        <time>2021-09-07T18:56:08Z</time>
      </trkpt>
      <trkpt lat="44.34032" lon="5.6334">
        <ele>1147.3</ele>
        <time>2021-09-07T18:56:09Z</time>
      </trkpt>
      <trkpt lat="44.3403" lon="5.63342">
        <ele>1147.6</ele>
        <time>2021-09-07T18:56:10Z</time>
      </trkpt>
      <trkpt lat="44.3403" lon="5.63342">
        <ele>1147.7</ele>
        <time>2021-09-07T18:56:11Z</time>
      </trkpt>
      <trkpt lat="44.34029" lon="5.63342">
        <ele>1147.7</ele>
        <time>2021-09-07T18:56:12Z</time>
      </trkpt>
      <trkpt lat="44.34028" lon="5.63343">
        <ele>1147.9</ele>
        <time>2021-09-07T18:56:13Z</time>
      </trkpt>
      <trkpt lat="44.34026" lon="5.63343">
        <ele>1148.2</ele>
        <time>2021-09-07T18:56:14Z</time>
      </trkpt>
      <trkpt lat="44.34025" lon="5.63344">
        <ele>1148.3</ele>
        <time>2021-09-07T18:56:15Z</time>
      </trkpt>
      <trkpt lat="44.34024" lon="5.63344">
        <ele>1148.4</ele>
        <time>2021-09-07T18:56:16Z</time>
      </trkpt>
      <trkpt lat="44.34022" lon="5.63344">
        <ele>1148.7</ele>
        <time>2021-09-07T18:56:17Z</time>
      </trkpt>
      <trkpt lat="44.34021" lon="5.63344">
        <ele>1148.8</ele>
        <time>2021-09-07T18:56:18Z</time>
      </trkpt>
      <trkpt lat="44.34021" lon="5.63344">
        <ele>1148.9</ele>
        <time>2021-09-07T18:56:19Z</time>
      </trkpt>
      <trkpt lat="44.3402" lon="5.63344">
        <ele>1149</ele>
        <time>2021-09-07T18:56:20Z</time>
      </trkpt>
      <trkpt lat="44.34019" lon="5.63344">
        <ele>1149.1</ele>
        <time>2021-09-07T18:56:21Z</time>
      </trkpt>
      <trkpt lat="44.34019" lon="5.63343">
        <ele>1149.2</ele>
        <time>2021-09-07T18:56:22Z</time>
      </trkpt>
      <trkpt lat="44.34019" lon="5.63343">
        <ele>1149.3</ele>
        <time>2021-09-07T18:56:23Z</time>
      </trkpt>
      <trkpt lat="44.34018" lon="5.63343">
        <ele>1149.3</ele>
        <time>2021-09-07T18:56:24Z</time>
      </trkpt>
      <trkpt lat="44.34018" lon="5.63343">
        <ele>1149.3</ele>
        <time>2021-09-07T18:56:25Z</time>
      </trkpt>
      <trkpt lat="44.34018" lon="5.63343">
        <ele>1149.3</ele>
        <time>2021-09-07T18:56:26Z</time>
      </trkpt>
      <trkpt lat="44.34018" lon="5.63343">
        <ele>1149.3</ele>
        <time>2021-09-07T18:56:27Z</time>
      </trkpt>
      <trkpt lat="44.34018" lon="5.63343">
        <ele>1149.3</ele>
        <time>2021-09-07T18:56:28Z</time>
      </trkpt>
      <trkpt lat="44.34018" lon="5.63343">
        <ele>1149.3</ele>
        <time>2021-09-07T18:56:29Z</time>
      </trkpt>
      <trkpt lat="44.34018" lon="5.63344">
        <ele>1149.4</ele>
        <time>2021-09-07T18:56:30Z</time>
      </trkpt>
      <trkpt lat="44.34018" lon="5.63344">
        <ele>1149.4</ele>
        <time>2021-09-07T18:56:31Z</time>
      </trkpt>
      <trkpt lat="44.34018" lon="5.63344">
        <ele>1149.4</ele>
        <time>2021-09-07T18:56:32Z</time>
      </trkpt>
      <trkpt lat="44.34018" lon="5.63344">
        <ele>1149.4</ele>
        <time>2021-09-07T18:56:33Z</time>
      </trkpt>
      <trkpt lat="44.34018" lon="5.63344">
        <ele>1149.5</ele>
        <time>2021-09-07T18:56:34Z</time>
      </trkpt>
      <trkpt lat="44.34017" lon="5.63344">
        <ele>1149.5</ele>
        <time>2021-09-07T18:56:35Z</time>
      </trkpt>
      <trkpt lat="44.34017" lon="5.63345">
        <ele>1149.6</ele>
        <time>2021-09-07T18:56:36Z</time>
      </trkpt>
      <trkpt lat="44.34016" lon="5.63347">
        <ele>1149.8</ele>
        <time>2021-09-07T18:56:37Z</time>
      </trkpt>
      <trkpt lat="44.34016" lon="5.63348">
        <ele>1149.9</ele>
        <time>2021-09-07T18:56:38Z</time>
      </trkpt>
      <trkpt lat="44.34015" lon="5.63348">
        <ele>1150</ele>
        <time>2021-09-07T18:56:39Z</time>
      </trkpt>
      <trkpt lat="44.34014" lon="5.63349">
        <ele>1150.2</ele>
        <time>2021-09-07T18:56:40Z</time>
      </trkpt>
      <trkpt lat="44.34013" lon="5.6335">
        <ele>1150.3</ele>
        <time>2021-09-07T18:56:41Z</time>
      </trkpt>
      <trkpt lat="44.34013" lon="5.63351">
        <ele>1150.4</ele>
        <time>2021-09-07T18:56:42Z</time>
      </trkpt>
      <trkpt lat="44.34012" lon="5.63352">
        <ele>1150.5</ele>
        <time>2021-09-07T18:56:43Z</time>
      </trkpt>
      <trkpt lat="44.34011" lon="5.63352">
        <ele>1150.7</ele>
        <time>2021-09-07T18:56:44Z</time>
      </trkpt>
      <trkpt lat="44.34011" lon="5.63353">
        <ele>1150.7</ele>
        <time>2021-09-07T18:56:45Z</time>
      </trkpt>
      <trkpt lat="44.34011" lon="5.63353">
        <ele>1150.7</ele>
        <time>2021-09-07T18:56:46Z</time>
      </trkpt>
      <trkpt lat="44.34011" lon="5.63353">
        <ele>1150.7</ele>
        <time>2021-09-07T18:56:47Z</time>
      </trkpt>
      <trkpt lat="44.34009" lon="5.63354">
        <ele>1151</ele>
        <time>2021-09-07T18:56:48Z</time>
      </trkpt>
      <trkpt lat="44.34008" lon="5.63354">
        <ele>1151.2</ele>
        <time>2021-09-07T18:56:49Z</time>
      </trkpt>
      <trkpt lat="44.34006" lon="5.63354">
        <ele>1151.3</ele>
        <time>2021-09-07T18:56:50Z</time>
      </trkpt>
      <trkpt lat="44.34004" lon="5.63355">
        <ele>1151.6</ele>
        <time>2021-09-07T18:56:51Z</time>
      </trkpt>
      <trkpt lat="44.34003" lon="5.63356">
        <ele>1151.7</ele>
        <time>2021-09-07T18:56:52Z</time>
      </trkpt>
      <trkpt lat="44.34001" lon="5.63357">
        <ele>1152</ele>
        <time>2021-09-07T18:56:53Z</time>
      </trkpt>
      <trkpt lat="44.34" lon="5.63357">
        <ele>1152.1</ele>
        <time>2021-09-07T18:56:54Z</time>
      </trkpt>
      <trkpt lat="44.34" lon="5.63357">
        <ele>1152.1</ele>
        <time>2021-09-07T18:56:55Z</time>
      </trkpt>
      <trkpt lat="44.33999" lon="5.63357">
        <ele>1152.2</ele>
        <time>2021-09-07T18:56:56Z</time>
      </trkpt>
      <trkpt lat="44.33999" lon="5.63357">
        <ele>1152.2</ele>
        <time>2021-09-07T18:56:57Z</time>
      </trkpt>
      <trkpt lat="44.33999" lon="5.63358">
        <ele>1152.3</ele>
        <time>2021-09-07T18:56:58Z</time>
      </trkpt>
      <trkpt lat="44.33998" lon="5.63358">
        <ele>1152.3</ele>
        <time>2021-09-07T18:56:59Z</time>
      </trkpt>
      <trkpt lat="44.33998" lon="5.63358">
        <ele>1152.3</ele>
        <time>2021-09-07T18:57:00Z</time>
      </trkpt>
      <trkpt lat="44.33998" lon="5.63358">
        <ele>1152.3</ele>
        <time>2021-09-07T18:57:01Z</time>
      </trkpt>
      <trkpt lat="44.33998" lon="5.63358">
        <ele>1152.3</ele>
        <time>2021-09-07T18:57:02Z</time>
      </trkpt>
      <trkpt lat="44.33998" lon="5.63358">
        <ele>1152.4</ele>
        <time>2021-09-07T18:57:03Z</time>
      </trkpt>
      <trkpt lat="44.33997" lon="5.63358">
        <ele>1152.4</ele>
        <time>2021-09-07T18:57:04Z</time>
      </trkpt>
      <trkpt lat="44.33997" lon="5.63358">
        <ele>1152.4</ele>
        <time>2021-09-07T18:57:05Z</time>
      </trkpt>
      <trkpt lat="44.33997" lon="5.63358">
        <ele>1152.4</ele>
        <time>2021-09-07T18:57:06Z</time>
      </trkpt>
      <trkpt lat="44.33997" lon="5.63358">
        <ele>1152.4</ele>
        <time>2021-09-07T18:57:07Z</time>
      </trkpt>
      <trkpt lat="44.33997" lon="5.63358">
        <ele>1152.4</ele>
        <time>2021-09-07T18:57:08Z</time>
      </trkpt>
      <trkpt lat="44.33997" lon="5.63358">
        <ele>1152.4</ele>
        <time>2021-09-07T18:57:09Z</time>
      </trkpt>
      <trkpt lat="44.33997" lon="5.63359">
        <ele>1152.5</ele>
        <time>2021-09-07T18:57:10Z</time>
      </trkpt>
      <trkpt lat="44.33997" lon="5.63359">
        <ele>1152.5</ele>
        <time>2021-09-07T18:57:11Z</time>
      </trkpt>
      <trkpt lat="44.33997" lon="5.63359">
        <ele>1152.5</ele>
        <time>2021-09-07T18:57:12Z</time>
      </trkpt>
      <trkpt lat="44.33997" lon="5.63359">
        <ele>1152.5</ele>
        <time>2021-09-07T18:57:13Z</time>
      </trkpt>
      <trkpt lat="44.33997" lon="5.63359">
        <ele>1152.5</ele>
        <time>2021-09-07T18:57:14Z</time>
      </trkpt>
      <trkpt lat="44.33997" lon="5.63359">
        <ele>1152.5</ele>
        <time>2021-09-07T18:57:15Z</time>
      </trkpt>
      <trkpt lat="44.33997" lon="5.63358">
        <ele>1152.6</ele>
        <time>2021-09-07T18:57:16Z</time>
      </trkpt>
      <trkpt lat="44.33997" lon="5.63358">
        <ele>1152.6</ele>
        <time>2021-09-07T18:57:17Z</time>
      </trkpt>
      <trkpt lat="44.33997" lon="5.63358">
        <ele>1152.6</ele>
        <time>2021-09-07T18:57:18Z</time>
      </trkpt>
      <trkpt lat="44.33997" lon="5.63358">
        <ele>1152.6</ele>
        <time>2021-09-07T18:57:19Z</time>
      </trkpt>
      <trkpt lat="44.33997" lon="5.63358">
        <ele>1152.6</ele>
        <time>2021-09-07T18:57:20Z</time>
      </trkpt>
      <trkpt lat="44.33997" lon="5.63358">
        <ele>1152.6</ele>
        <time>2021-09-07T18:57:21Z</time>
      </trkpt>
      <trkpt lat="44.33997" lon="5.63358">
        <ele>1152.6</ele>
        <time>2021-09-07T18:57:22Z</time>
      </trkpt>
      <trkpt lat="44.33997" lon="5.63358">
        <ele>1152.6</ele>
        <time>2021-09-07T18:57:23Z</time>
      </trkpt>
      <trkpt lat="44.33997" lon="5.63358">
        <ele>1152.6</ele>
        <time>2021-09-07T18:57:24Z</time>
      </trkpt>
      <trkpt lat="44.33997" lon="5.63358">
        <ele>1152.6</ele>
        <time>2021-09-07T18:57:25Z</time>
      </trkpt>
      <trkpt lat="44.33997" lon="5.63358">
        <ele>1152.6</ele>
        <time>2021-09-07T18:57:26Z</time>
      </trkpt>
      <trkpt lat="44.33997" lon="5.63358">
        <ele>1152.6</ele>
        <time>2021-09-07T18:57:27Z</time>
      </trkpt>
      <trkpt lat="44.33997" lon="5.63358">
        <ele>1152.6</ele>
        <time>2021-09-07T18:57:28Z</time>
      </trkpt>
      <trkpt lat="44.33997" lon="5.63358">
        <ele>1152.6</ele>
        <time>2021-09-07T18:57:29Z</time>
      </trkpt>
      <trkpt lat="44.33997" lon="5.63358">
        <ele>1152.6</ele>
        <time>2021-09-07T18:57:30Z</time>
      </trkpt>
      <trkpt lat="44.33997" lon="5.63357">
        <ele>1152.7</ele>
        <time>2021-09-07T18:57:31Z</time>
      </trkpt>
      <trkpt lat="44.33997" lon="5.63358">
        <ele>1152.8</ele>
        <time>2021-09-07T18:57:32Z</time>
      </trkpt>
      <trkpt lat="44.33997" lon="5.63357">
        <ele>1152.8</ele>
        <time>2021-09-07T18:57:33Z</time>
      </trkpt>
      <trkpt lat="44.33997" lon="5.63357">
        <ele>1152.8</ele>
        <time>2021-09-07T18:57:34Z</time>
      </trkpt>
      <trkpt lat="44.33997" lon="5.63357">
        <ele>1152.8</ele>
        <time>2021-09-07T18:57:35Z</time>
      </trkpt>
      <trkpt lat="44.33997" lon="5.63357">
        <ele>1152.8</ele>
        <time>2021-09-07T18:57:36Z</time>
      </trkpt>
      <trkpt lat="44.33997" lon="5.63357">
        <ele>1152.8</ele>
        <time>2021-09-07T18:57:37Z</time>
      </trkpt>
      <trkpt lat="44.33997" lon="5.63358">
        <ele>1152.9</ele>
        <time>2021-09-07T18:57:38Z</time>
      </trkpt>
      <trkpt lat="44.33997" lon="5.63358">
        <ele>1152.9</ele>
        <time>2021-09-07T18:57:39Z</time>
      </trkpt>
      <trkpt lat="44.33997" lon="5.63358">
        <ele>1152.9</ele>
        <time>2021-09-07T18:57:40Z</time>
      </trkpt>
      <trkpt lat="44.33997" lon="5.63358">
        <ele>1152.9</ele>
        <time>2021-09-07T18:57:41Z</time>
      </trkpt>
      <trkpt lat="44.33997" lon="5.63358">
        <ele>1152.9</ele>
        <time>2021-09-07T18:57:42Z</time>
      </trkpt>
      <trkpt lat="44.33997" lon="5.63358">
        <ele>1152.9</ele>
        <time>2021-09-07T18:57:43Z</time>
      </trkpt>
      <trkpt lat="44.33997" lon="5.63358">
        <ele>1152.9</ele>
        <time>2021-09-07T18:57:44Z</time>
      </trkpt>
      <trkpt lat="44.33997" lon="5.63358">
        <ele>1152.9</ele>
        <time>2021-09-07T18:57:45Z</time>
      </trkpt>
      <trkpt lat="44.33997" lon="5.63358">
        <ele>1152.9</ele>
        <time>2021-09-07T18:57:46Z</time>
      </trkpt>
      <trkpt lat="44.33997" lon="5.63358">
        <ele>1152.9</ele>
        <time>2021-09-07T18:57:47Z</time>
      </trkpt>
      <trkpt lat="44.33997" lon="5.63358">
        <ele>1152.9</ele>
        <time>2021-09-07T18:57:48Z</time>
      </trkpt>
      <trkpt lat="44.33997" lon="5.63358">
        <ele>1152.9</ele>
        <time>2021-09-07T18:57:49Z</time>
      </trkpt>
      <trkpt lat="44.33997" lon="5.63358">
        <ele>1152.9</ele>
        <time>2021-09-07T18:57:50Z</time>
      </trkpt>
      <trkpt lat="44.33997" lon="5.63358">
        <ele>1152.9</ele>
        <time>2021-09-07T18:57:51Z</time>
      </trkpt>
      <trkpt lat="44.33997" lon="5.63358">
        <ele>1152.9</ele>
        <time>2021-09-07T18:57:52Z</time>
      </trkpt>
      <trkpt lat="44.33997" lon="5.63358">
        <ele>1152.9</ele>
        <time>2021-09-07T18:57:53Z</time>
      </trkpt>
      <trkpt lat="44.33997" lon="5.63358">
        <ele>1152.9</ele>
        <time>2021-09-07T18:57:54Z</time>
      </trkpt>
      <trkpt lat="44.33997" lon="5.63358">
        <ele>1152.9</ele>
        <time>2021-09-07T18:57:55Z</time>
      </trkpt>
      <trkpt lat="44.33997" lon="5.63358">
        <ele>1152.9</ele>
        <time>2021-09-07T18:57:56Z</time>
      </trkpt>
      <trkpt lat="44.33997" lon="5.63358">
        <ele>1152.9</ele>
        <time>2021-09-07T18:57:57Z</time>
      </trkpt>
      <trkpt lat="44.33997" lon="5.63358">
        <ele>1152.9</ele>
        <time>2021-09-07T18:57:58Z</time>
      </trkpt>
      <trkpt lat="44.33997" lon="5.63358">
        <ele>1152.9</ele>
        <time>2021-09-07T18:57:59Z</time>
      </trkpt>
      <trkpt lat="44.33997" lon="5.63358">
        <ele>1152.9</ele>
        <time>2021-09-07T18:58:00Z</time>
      </trkpt>
      <trkpt lat="44.33997" lon="5.63358">
        <ele>1152.9</ele>
        <time>2021-09-07T18:58:01Z</time>
      </trkpt>
      <trkpt lat="44.33997" lon="5.63358">
        <ele>1152.9</ele>
        <time>2021-09-07T18:58:02Z</time>
      </trkpt>
      <trkpt lat="44.33997" lon="5.63358">
        <ele>1152.9</ele>
        <time>2021-09-07T18:58:03Z</time>
      </trkpt>
      <trkpt lat="44.33997" lon="5.63358">
        <ele>1152.9</ele>
        <time>2021-09-07T18:58:04Z</time>
      </trkpt>
      <trkpt lat="44.33997" lon="5.63358">
        <ele>1152.9</ele>
        <time>2021-09-07T18:58:05Z</time>
      </trkpt>
      <trkpt lat="44.33997" lon="5.63358">
        <ele>1152.9</ele>
        <time>2021-09-07T18:58:06Z</time>
      </trkpt>
      <trkpt lat="44.33997" lon="5.63358">
        <ele>1152.9</ele>
        <time>2021-09-07T18:58:07Z</time>
      </trkpt>
      <trkpt lat="44.33998" lon="5.63358">
        <ele>1153</ele>
        <time>2021-09-07T18:58:08Z</time>
      </trkpt>
      <trkpt lat="44.33998" lon="5.63358">
        <ele>1153</ele>
        <time>2021-09-07T18:58:09Z</time>
      </trkpt>
      <trkpt lat="44.33998" lon="5.63358">
        <ele>1153</ele>
        <time>2021-09-07T18:58:10Z</time>
      </trkpt>
      <trkpt lat="44.33998" lon="5.63358">
        <ele>1153</ele>
        <time>2021-09-07T18:58:11Z</time>
      </trkpt>
      <trkpt lat="44.33998" lon="5.63358">
        <ele>1153</ele>
        <time>2021-09-07T18:58:12Z</time>
      </trkpt>
      <trkpt lat="44.33998" lon="5.63358">
        <ele>1153</ele>
        <time>2021-09-07T18:58:13Z</time>
      </trkpt>
      <trkpt lat="44.33998" lon="5.63358">
        <ele>1153</ele>
        <time>2021-09-07T18:58:14Z</time>
      </trkpt>
      <trkpt lat="44.33998" lon="5.63358">
        <ele>1153</ele>
        <time>2021-09-07T18:58:15Z</time>
      </trkpt>
      <trkpt lat="44.33998" lon="5.63358">
        <ele>1153</ele>
        <time>2021-09-07T18:58:16Z</time>
      </trkpt>
      <trkpt lat="44.33998" lon="5.63358">
        <ele>1153</ele>
        <time>2021-09-07T18:58:17Z</time>
      </trkpt>
      <trkpt lat="44.33998" lon="5.63358">
        <ele>1153</ele>
        <time>2021-09-07T18:58:18Z</time>
      </trkpt>
      <trkpt lat="44.33998" lon="5.63358">
        <ele>1153</ele>
        <time>2021-09-07T18:58:19Z</time>
      </trkpt>
      <trkpt lat="44.33998" lon="5.63358">
        <ele>1153</ele>
        <time>2021-09-07T18:58:20Z</time>
      </trkpt>
      <trkpt lat="44.34021" lon="5.63847">
        <ele>1144.5</ele>
        <time>2021-09-08T05:25:13Z</time>
      </trkpt>
      <trkpt lat="44.34021" lon="5.63847">
        <ele>1144.5</ele>
        <time>2021-09-08T05:25:13Z</time>
      </trkpt>
      <trkpt lat="44.34015" lon="5.63854">
        <ele>1144.4</ele>
        <time>2021-09-08T05:25:14Z</time>
      </trkpt>
      <trkpt lat="44.34009" lon="5.63861">
        <ele>1144.4</ele>
        <time>2021-09-08T05:25:15Z</time>
      </trkpt>
      <trkpt lat="44.34009" lon="5.63861">
        <ele>1144.4</ele>
        <time>2021-09-08T05:25:16Z</time>
      </trkpt>
      <trkpt lat="44.34008" lon="5.63861">
        <ele>1144.4</ele>
        <time>2021-09-08T05:25:17Z</time>
      </trkpt>
      <trkpt lat="44.34003" lon="5.63865">
        <ele>1144.4</ele>
        <time>2021-09-08T05:25:19Z</time>
      </trkpt>
      <trkpt lat="44.33998" lon="5.63867">
        <ele>1144.3</ele>
        <time>2021-09-08T05:25:20Z</time>
      </trkpt>
      <trkpt lat="44.33993" lon="5.63871">
        <ele>1144.1</ele>
        <time>2021-09-08T05:25:22Z</time>
      </trkpt>
      <trkpt lat="44.33989" lon="5.63874">
        <ele>1143.9</ele>
        <time>2021-09-08T05:25:23Z</time>
      </trkpt>
      <trkpt lat="44.33984" lon="5.63886">
        <ele>1143.3</ele>
        <time>2021-09-08T05:25:24Z</time>
      </trkpt>
      <trkpt lat="44.3398" lon="5.63894">
        <ele>1142.8</ele>
        <time>2021-09-08T05:25:26Z</time>
      </trkpt>
      <trkpt lat="44.33977" lon="5.639">
        <ele>1142.5</ele>
        <time>2021-09-08T05:25:28Z</time>
      </trkpt>
      <trkpt lat="44.33975" lon="5.63904">
        <ele>1142.3</ele>
        <time>2021-09-08T05:25:29Z</time>
      </trkpt>
      <trkpt lat="44.33973" lon="5.63907">
        <ele>1142.2</ele>
        <time>2021-09-08T05:25:30Z</time>
      </trkpt>
      <trkpt lat="44.3397" lon="5.63911">
        <ele>1142</ele>
        <time>2021-09-08T05:25:32Z</time>
      </trkpt>
      <trkpt lat="44.33969" lon="5.63913">
        <ele>1141.9</ele>
        <time>2021-09-08T05:25:33Z</time>
      </trkpt>
      <trkpt lat="44.33977" lon="5.63976">
        <ele>1140.3</ele>
        <time>2021-09-08T05:25:50Z</time>
      </trkpt>
      <trkpt lat="44.33977" lon="5.63983">
        <ele>1140</ele>
        <time>2021-09-08T05:25:51Z</time>
      </trkpt>
      <trkpt lat="44.33977" lon="5.63995">
        <ele>1139.7</ele>
        <time>2021-09-08T05:25:53Z</time>
      </trkpt>
      <trkpt lat="44.33977" lon="5.64002">
        <ele>1139.5</ele>
        <time>2021-09-08T05:25:54Z</time>
      </trkpt>
      <trkpt lat="44.33977" lon="5.64013">
        <ele>1139.2</ele>
        <time>2021-09-08T05:25:56Z</time>
      </trkpt>
      <trkpt lat="44.33977" lon="5.64023">
        <ele>1138.8</ele>
        <time>2021-09-08T05:25:58Z</time>
      </trkpt>
      <trkpt lat="44.33976" lon="5.6403">
        <ele>1138.4</ele>
        <time>2021-09-08T05:25:59Z</time>
      </trkpt>
      <trkpt lat="44.33976" lon="5.64037">
        <ele>1138</ele>
        <time>2021-09-08T05:26:00Z</time>
      </trkpt>
      <trkpt lat="44.33975" lon="5.64045">
        <ele>1137.8</ele>
        <time>2021-09-08T05:26:02Z</time>
      </trkpt>
      <trkpt lat="44.33974" lon="5.64051">
        <ele>1137.6</ele>
        <time>2021-09-08T05:26:03Z</time>
      </trkpt>
      <trkpt lat="44.33972" lon="5.64059">
        <ele>1137.5</ele>
        <time>2021-09-08T05:26:04Z</time>
      </trkpt>
      <trkpt lat="44.33969" lon="5.64065">
        <ele>1137.4</ele>
        <time>2021-09-08T05:26:05Z</time>
      </trkpt>
      <trkpt lat="44.33967" lon="5.64072">
        <ele>1137.2</ele>
        <time>2021-09-08T05:26:07Z</time>
      </trkpt>
      <trkpt lat="44.33965" lon="5.64078">
        <ele>1137</ele>
        <time>2021-09-08T05:26:08Z</time>
      </trkpt>
      <trkpt lat="44.33963" lon="5.64084">
        <ele>1136.7</ele>
        <time>2021-09-08T05:26:10Z</time>
      </trkpt>
      <trkpt lat="44.33961" lon="5.64089">
        <ele>1136.5</ele>
        <time>2021-09-08T05:26:11Z</time>
      </trkpt>
      <trkpt lat="44.33959" lon="5.64092">
        <ele>1136.3</ele>
        <time>2021-09-08T05:26:12Z</time>
      </trkpt>
      <trkpt lat="44.33954" lon="5.64096">
        <ele>1136.1</ele>
        <time>2021-09-08T05:26:13Z</time>
      </trkpt>
      <trkpt lat="44.33949" lon="5.641">
        <ele>1135.9</ele>
        <time>2021-09-08T05:26:15Z</time>
      </trkpt>
      <trkpt lat="44.33943" lon="5.64102">
        <ele>1135.8</ele>
        <time>2021-09-08T05:26:16Z</time>
      </trkpt>
      <trkpt lat="44.33937" lon="5.64102">
        <ele>1135.6</ele>
        <time>2021-09-08T05:26:18Z</time>
      </trkpt>
      <trkpt lat="44.33932" lon="5.64103">
        <ele>1135.4</ele>
        <time>2021-09-08T05:26:19Z</time>
      </trkpt>
      <trkpt lat="44.33924" lon="5.64103">
        <ele>1135.1</ele>
        <time>2021-09-08T05:26:21Z</time>
      </trkpt>
      <trkpt lat="44.33919" lon="5.64101">
        <ele>1134.9</ele>
        <time>2021-09-08T05:26:22Z</time>
      </trkpt>
      <trkpt lat="44.33913" lon="5.64102">
        <ele>1134.8</ele>
        <time>2021-09-08T05:26:23Z</time>
      </trkpt>
      <trkpt lat="44.33905" lon="5.64107">
        <ele>1134.6</ele>
        <time>2021-09-08T05:26:25Z</time>
      </trkpt>
      <trkpt lat="44.33897" lon="5.64115">
        <ele>1134.5</ele>
        <time>2021-09-08T05:26:27Z</time>
      </trkpt>
      <trkpt lat="44.33891" lon="5.64118">
        <ele>1134.4</ele>
        <time>2021-09-08T05:26:28Z</time>
      </trkpt>
      <trkpt lat="44.33879" lon="5.64126">
        <ele>1134.3</ele>
        <time>2021-09-08T05:26:29Z</time>
      </trkpt>
      <trkpt lat="44.33869" lon="5.64139">
        <ele>1134.1</ele>
        <time>2021-09-08T05:26:31Z</time>
      </trkpt>
      <trkpt lat="44.33858" lon="5.6415">
        <ele>1133.9</ele>
        <time>2021-09-08T05:26:33Z</time>
      </trkpt>
      <trkpt lat="44.33849" lon="5.6416">
        <ele>1133.8</ele>
        <time>2021-09-08T05:26:35Z</time>
      </trkpt>
      <trkpt lat="44.33839" lon="5.64172">
        <ele>1133.7</ele>
        <time>2021-09-08T05:26:37Z</time>
      </trkpt>
      <trkpt lat="44.33832" lon="5.64186">
        <ele>1133.4</ele>
        <time>2021-09-08T05:26:39Z</time>
      </trkpt>
      <trkpt lat="44.33828" lon="5.64194">
        <ele>1133.2</ele>
        <time>2021-09-08T05:26:40Z</time>
      </trkpt>
      <trkpt lat="44.33824" lon="5.64206">
        <ele>1133.1</ele>
        <time>2021-09-08T05:26:42Z</time>
      </trkpt>
      <trkpt lat="44.33822" lon="5.64213">
        <ele>1133.1</ele>
        <time>2021-09-08T05:26:43Z</time>
      </trkpt>
      <trkpt lat="44.33816" lon="5.64225">
        <ele>1133.2</ele>
        <time>2021-09-08T05:26:45Z</time>
      </trkpt>
      <trkpt lat="44.33809" lon="5.64236">
        <ele>1132.9</ele>
        <time>2021-09-08T05:26:47Z</time>
      </trkpt>
      <trkpt lat="44.33807" lon="5.64242">
        <ele>1132.6</ele>
        <time>2021-09-08T05:26:48Z</time>
      </trkpt>
      <trkpt lat="44.33804" lon="5.64257">
        <ele>1131.5</ele>
        <time>2021-09-08T05:26:50Z</time>
      </trkpt>
      <trkpt lat="44.33803" lon="5.64263">
        <ele>1131.1</ele>
        <time>2021-09-08T05:26:51Z</time>
      </trkpt>
      <trkpt lat="44.33803" lon="5.6427">
        <ele>1130.6</ele>
        <time>2021-09-08T05:26:52Z</time>
      </trkpt>
      <trkpt lat="44.33804" lon="5.64285">
        <ele>1129.8</ele>
        <time>2021-09-08T05:26:54Z</time>
      </trkpt>
      <trkpt lat="44.33807" lon="5.643">
        <ele>1129.1</ele>
        <time>2021-09-08T05:26:56Z</time>
      </trkpt>
      <trkpt lat="44.3381" lon="5.64314">
        <ele>1128.4</ele>
        <time>2021-09-08T05:26:58Z</time>
      </trkpt>
      <trkpt lat="44.33809" lon="5.64327">
        <ele>1127.8</ele>
        <time>2021-09-08T05:27:00Z</time>
      </trkpt>
      <trkpt lat="44.33807" lon="5.64334">
        <ele>1127.5</ele>
        <time>2021-09-08T05:27:01Z</time>
      </trkpt>
      <trkpt lat="44.33807" lon="5.64341">
        <ele>1127.3</ele>
        <time>2021-09-08T05:27:02Z</time>
      </trkpt>
      <trkpt lat="44.33807" lon="5.64348">
        <ele>1127.1</ele>
        <time>2021-09-08T05:27:03Z</time>
      </trkpt>
      <trkpt lat="44.33808" lon="5.64355">
        <ele>1126.9</ele>
        <time>2021-09-08T05:27:04Z</time>
      </trkpt>
      <trkpt lat="44.33811" lon="5.64366">
        <ele>1126.7</ele>
        <time>2021-09-08T05:27:06Z</time>
      </trkpt>
      <trkpt lat="44.33811" lon="5.64374">
        <ele>1126.5</ele>
        <time>2021-09-08T05:27:07Z</time>
      </trkpt>
      <trkpt lat="44.3381" lon="5.64379">
        <ele>1126.3</ele>
        <time>2021-09-08T05:27:09Z</time>
      </trkpt>
      <trkpt lat="44.33809" lon="5.64381">
        <ele>1126.2</ele>
        <time>2021-09-08T05:27:10Z</time>
      </trkpt>
      <trkpt lat="44.33808" lon="5.64383">
        <ele>1126.1</ele>
        <time>2021-09-08T05:27:11Z</time>
      </trkpt>
      <trkpt lat="44.33808" lon="5.64381">
        <ele>1126.1</ele>
        <time>2021-09-08T05:27:12Z</time>
      </trkpt>
      <trkpt lat="44.33806" lon="5.64384">
        <ele>1125.9</ele>
        <time>2021-09-08T05:27:13Z</time>
      </trkpt>
      <trkpt lat="44.338" lon="5.64393">
        <ele>1125.3</ele>
        <time>2021-09-08T05:27:15Z</time>
      </trkpt>
      <trkpt lat="44.33795" lon="5.64397">
        <ele>1124.8</ele>
        <time>2021-09-08T05:27:16Z</time>
      </trkpt>
      <trkpt lat="44.3379" lon="5.64402">
        <ele>1122.1</ele>
        <time>2021-09-08T05:27:17Z</time>
      </trkpt>
      <trkpt lat="44.33783" lon="5.64408">
        <ele>1117.1</ele>
        <time>2021-09-08T05:27:19Z</time>
      </trkpt>
      <trkpt lat="44.33777" lon="5.64413">
        <ele>1112.6</ele>
        <time>2021-09-08T05:27:20Z</time>
      </trkpt>
      <trkpt lat="44.33772" lon="5.64418">
        <ele>1108.9</ele>
        <time>2021-09-08T05:27:22Z</time>
      </trkpt>
      <trkpt lat="44.33767" lon="5.64428">
        <ele>1103.6</ele>
        <time>2021-09-08T05:27:23Z</time>
      </trkpt>
      <trkpt lat="44.33762" lon="5.64434">
        <ele>1100.1</ele>
        <time>2021-09-08T05:27:24Z</time>
      </trkpt>
      <trkpt lat="44.33753" lon="5.64442">
        <ele>1095.4</ele>
        <time>2021-09-08T05:27:26Z</time>
      </trkpt>
      <trkpt lat="44.33745" lon="5.64449">
        <ele>1094</ele>
        <time>2021-09-08T05:27:28Z</time>
      </trkpt>
      <trkpt lat="44.33743" lon="5.64453">
        <ele>1093.4</ele>
        <time>2021-09-08T05:27:29Z</time>
      </trkpt>
      <trkpt lat="44.33739" lon="5.64456">
        <ele>1092.8</ele>
        <time>2021-09-08T05:27:30Z</time>
      </trkpt>
      <trkpt lat="44.33736" lon="5.6446">
        <ele>1092.1</ele>
        <time>2021-09-08T05:27:31Z</time>
      </trkpt>
      <trkpt lat="44.33733" lon="5.64463">
        <ele>1091.5</ele>
        <time>2021-09-08T05:27:33Z</time>
      </trkpt>
      <trkpt lat="44.33729" lon="5.64465">
        <ele>1090.9</ele>
        <time>2021-09-08T05:27:34Z</time>
      </trkpt>
      <trkpt lat="44.33727" lon="5.64466">
        <ele>1090.6</ele>
        <time>2021-09-08T05:27:35Z</time>
      </trkpt>
      <trkpt lat="44.33724" lon="5.6447">
        <ele>1090</ele>
        <time>2021-09-08T05:27:36Z</time>
      </trkpt>
      <trkpt lat="44.33723" lon="5.64475">
        <ele>1089.4</ele>
        <time>2021-09-08T05:27:38Z</time>
      </trkpt>
      <trkpt lat="44.33724" lon="5.64482">
        <ele>1088.8</ele>
        <time>2021-09-08T05:27:39Z</time>
      </trkpt>
      <trkpt lat="44.33725" lon="5.64488">
        <ele>1088.1</ele>
        <time>2021-09-08T05:27:40Z</time>
      </trkpt>
      <trkpt lat="44.33727" lon="5.64496">
        <ele>1087.3</ele>
        <time>2021-09-08T05:27:41Z</time>
      </trkpt>
      <trkpt lat="44.33729" lon="5.64501">
        <ele>1086.8</ele>
        <time>2021-09-08T05:27:42Z</time>
      </trkpt>
      <trkpt lat="44.33732" lon="5.64508">
        <ele>1086</ele>
        <time>2021-09-08T05:27:44Z</time>
      </trkpt>
      <trkpt lat="44.33732" lon="5.64514">
        <ele>1085.4</ele>
        <time>2021-09-08T05:27:46Z</time>
      </trkpt>
      <trkpt lat="44.33731" lon="5.64517">
        <ele>1085</ele>
        <time>2021-09-08T05:27:47Z</time>
      </trkpt>
      <trkpt lat="44.3373" lon="5.64521">
        <ele>1084.6</ele>
        <time>2021-09-08T05:27:48Z</time>
      </trkpt>
      <trkpt lat="44.3373" lon="5.64525">
        <ele>1084.2</ele>
        <time>2021-09-08T05:27:50Z</time>
      </trkpt>
      <trkpt lat="44.33729" lon="5.64529">
        <ele>1083.8</ele>
        <time>2021-09-08T05:27:52Z</time>
      </trkpt>
      <trkpt lat="44.33728" lon="5.64533">
        <ele>1083.4</ele>
        <time>2021-09-08T05:27:54Z</time>
      </trkpt>
      <trkpt lat="44.33727" lon="5.64537">
        <ele>1082.9</ele>
        <time>2021-09-08T05:28:05Z</time>
      </trkpt>
      <trkpt lat="44.33726" lon="5.64541">
        <ele>1082.5</ele>
        <time>2021-09-08T05:28:06Z</time>
      </trkpt>
      <trkpt lat="44.33726" lon="5.64543">
        <ele>1082.2</ele>
        <time>2021-09-08T05:28:07Z</time>
      </trkpt>
      <trkpt lat="44.33725" lon="5.64546">
        <ele>1081.9</ele>
        <time>2021-09-08T05:28:08Z</time>
      </trkpt>
      <trkpt lat="44.33724" lon="5.64552">
        <ele>1081.1</ele>
        <time>2021-09-08T05:28:10Z</time>
      </trkpt>
      <trkpt lat="44.33722" lon="5.64559">
        <ele>1080.2</ele>
        <time>2021-09-08T05:28:12Z</time>
      </trkpt>
      <trkpt lat="44.33721" lon="5.64563">
        <ele>1079.7</ele>
        <time>2021-09-08T05:28:13Z</time>
      </trkpt>
      <trkpt lat="44.3372" lon="5.64565">
        <ele>1079.4</ele>
        <time>2021-09-08T05:28:14Z</time>
      </trkpt>
      <trkpt lat="44.33723" lon="5.64571">
        <ele>1078.4</ele>
        <time>2021-09-08T05:28:16Z</time>
      </trkpt>
      <trkpt lat="44.33724" lon="5.64574">
        <ele>1077.8</ele>
        <time>2021-09-08T05:28:17Z</time>
      </trkpt>
      <trkpt lat="44.33725" lon="5.64581">
        <ele>1076.7</ele>
        <time>2021-09-08T05:28:19Z</time>
      </trkpt>
      <trkpt lat="44.33724" lon="5.64585">
        <ele>1075.9</ele>
        <time>2021-09-08T05:28:20Z</time>
      </trkpt>
      <trkpt lat="44.33723" lon="5.64589">
        <ele>1075.2</ele>
        <time>2021-09-08T05:28:21Z</time>
      </trkpt>
      <trkpt lat="44.33719" lon="5.64596">
        <ele>1073.8</ele>
        <time>2021-09-08T05:28:23Z</time>
      </trkpt>
      <trkpt lat="44.33718" lon="5.646">
        <ele>1073</ele>
        <time>2021-09-08T05:28:24Z</time>
      </trkpt>
      <trkpt lat="44.33716" lon="5.6461">
        <ele>1071.5</ele>
        <time>2021-09-08T05:28:26Z</time>
      </trkpt>
      <trkpt lat="44.33715" lon="5.64614">
        <ele>1070.8</ele>
        <time>2021-09-08T05:28:27Z</time>
      </trkpt>
      <trkpt lat="44.33711" lon="5.64619">
        <ele>1069.8</ele>
        <time>2021-09-08T05:28:29Z</time>
      </trkpt>
      <trkpt lat="44.33708" lon="5.64623">
        <ele>1069</ele>
        <time>2021-09-08T05:28:30Z</time>
      </trkpt>
      <trkpt lat="44.33702" lon="5.6463">
        <ele>1067.7</ele>
        <time>2021-09-08T05:28:32Z</time>
      </trkpt>
      <trkpt lat="44.33699" lon="5.64635">
        <ele>1067</ele>
        <time>2021-09-08T05:28:33Z</time>
      </trkpt>
      <trkpt lat="44.33697" lon="5.64645">
        <ele>1065.9</ele>
        <time>2021-09-08T05:28:35Z</time>
      </trkpt>
      <trkpt lat="44.33696" lon="5.64652">
        <ele>1065.1</ele>
        <time>2021-09-08T05:28:36Z</time>
      </trkpt>
      <trkpt lat="44.33696" lon="5.64657">
        <ele>1065.5</ele>
        <time>2021-09-08T05:28:38Z</time>
      </trkpt>
      <trkpt lat="44.33697" lon="5.64659">
        <ele>1065.6</ele>
        <time>2021-09-08T05:28:39Z</time>
      </trkpt>
      <trkpt lat="44.33699" lon="5.64659">
        <ele>1065.7</ele>
        <time>2021-09-08T05:28:41Z</time>
      </trkpt>
      <trkpt lat="44.33703" lon="5.64658">
        <ele>1065.7</ele>
        <time>2021-09-08T05:28:42Z</time>
      </trkpt>
      <trkpt lat="44.33707" lon="5.64657">
        <ele>1065.8</ele>
        <time>2021-09-08T05:28:43Z</time>
      </trkpt>
      <trkpt lat="44.33715" lon="5.64654">
        <ele>1065.9</ele>
        <time>2021-09-08T05:28:45Z</time>
      </trkpt>
      <trkpt lat="44.33721" lon="5.64653">
        <ele>1066</ele>
        <time>2021-09-08T05:28:46Z</time>
      </trkpt>
      <trkpt lat="44.33725" lon="5.64652">
        <ele>1066</ele>
        <time>2021-09-08T05:28:47Z</time>
      </trkpt>
      <trkpt lat="44.33731" lon="5.64652">
        <ele>1066.1</ele>
        <time>2021-09-08T05:28:48Z</time>
      </trkpt>
      <trkpt lat="44.33736" lon="5.64652">
        <ele>1066.2</ele>
        <time>2021-09-08T05:28:50Z</time>
      </trkpt>
      <trkpt lat="44.33742" lon="5.64652">
        <ele>1066.4</ele>
        <time>2021-09-08T05:28:52Z</time>
      </trkpt>
      <trkpt lat="44.33746" lon="5.64653">
        <ele>1066.5</ele>
        <time>2021-09-08T05:28:53Z</time>
      </trkpt>
      <trkpt lat="44.3375" lon="5.64654">
        <ele>1066.7</ele>
        <time>2021-09-08T05:28:54Z</time>
      </trkpt>
      <trkpt lat="44.33753" lon="5.64655">
        <ele>1066.8</ele>
        <time>2021-09-08T05:28:56Z</time>
      </trkpt>
      <trkpt lat="44.33756" lon="5.64658">
        <ele>1067</ele>
        <time>2021-09-08T05:28:57Z</time>
      </trkpt>
      <trkpt lat="44.3376" lon="5.64661">
        <ele>1067.2</ele>
        <time>2021-09-08T05:28:58Z</time>
      </trkpt>
      <trkpt lat="44.33763" lon="5.64662">
        <ele>1067.4</ele>
        <time>2021-09-08T05:28:59Z</time>
      </trkpt>
      <trkpt lat="44.33768" lon="5.64666">
        <ele>1067.6</ele>
        <time>2021-09-08T05:29:01Z</time>
      </trkpt>
      <trkpt lat="44.33771" lon="5.64668">
        <ele>1067.8</ele>
        <time>2021-09-08T05:29:02Z</time>
      </trkpt>
      <trkpt lat="44.33775" lon="5.64672">
        <ele>1068</ele>
        <time>2021-09-08T05:29:04Z</time>
      </trkpt>
      <trkpt lat="44.33779" lon="5.64674">
        <ele>1068.1</ele>
        <time>2021-09-08T05:29:05Z</time>
      </trkpt>
      <trkpt lat="44.33783" lon="5.64675">
        <ele>1068.3</ele>
        <time>2021-09-08T05:29:07Z</time>
      </trkpt>
      <trkpt lat="44.33786" lon="5.64675">
        <ele>1068.4</ele>
        <time>2021-09-08T05:29:08Z</time>
      </trkpt>
      <trkpt lat="44.33789" lon="5.64674">
        <ele>1068.6</ele>
        <time>2021-09-08T05:29:09Z</time>
      </trkpt>
      <trkpt lat="44.33793" lon="5.64673">
        <ele>1068.7</ele>
        <time>2021-09-08T05:29:11Z</time>
      </trkpt>
      <trkpt lat="44.33798" lon="5.64674">
        <ele>1068.8</ele>
        <time>2021-09-08T05:29:12Z</time>
      </trkpt>
      <trkpt lat="44.33802" lon="5.64674">
        <ele>1068.9</ele>
        <time>2021-09-08T05:29:13Z</time>
      </trkpt>
      <trkpt lat="44.33806" lon="5.64674">
        <ele>1069.1</ele>
        <time>2021-09-08T05:29:14Z</time>
      </trkpt>
      <trkpt lat="44.3381" lon="5.64673">
        <ele>1069.2</ele>
        <time>2021-09-08T05:29:16Z</time>
      </trkpt>
      <trkpt lat="44.33814" lon="5.64672">
        <ele>1069.3</ele>
        <time>2021-09-08T05:29:17Z</time>
      </trkpt>
      <trkpt lat="44.33818" lon="5.64671">
        <ele>1069.4</ele>
        <time>2021-09-08T05:29:19Z</time>
      </trkpt>
      <trkpt lat="44.33822" lon="5.6467">
        <ele>1069.6</ele>
        <time>2021-09-08T05:29:20Z</time>
      </trkpt>
      <trkpt lat="44.33826" lon="5.6467">
        <ele>1069.7</ele>
        <time>2021-09-08T05:29:21Z</time>
      </trkpt>
      <trkpt lat="44.33827" lon="5.6467">
        <ele>1069.8</ele>
        <time>2021-09-08T05:29:22Z</time>
      </trkpt>
      <trkpt lat="44.3383" lon="5.64671">
        <ele>1069.9</ele>
        <time>2021-09-08T05:29:23Z</time>
      </trkpt>
      <trkpt lat="44.33833" lon="5.6467">
        <ele>1070</ele>
        <time>2021-09-08T05:29:25Z</time>
      </trkpt>
      <trkpt lat="44.33837" lon="5.6467">
        <ele>1070.1</ele>
        <time>2021-09-08T05:29:26Z</time>
      </trkpt>
      <trkpt lat="44.33841" lon="5.64668">
        <ele>1070.2</ele>
        <time>2021-09-08T05:29:28Z</time>
      </trkpt>
      <trkpt lat="44.33844" lon="5.64667">
        <ele>1070.3</ele>
        <time>2021-09-08T05:29:29Z</time>
      </trkpt>
      <trkpt lat="44.33846" lon="5.64663">
        <ele>1070.4</ele>
        <time>2021-09-08T05:29:30Z</time>
      </trkpt>
      <trkpt lat="44.33848" lon="5.6466">
        <ele>1070.5</ele>
        <time>2021-09-08T05:29:31Z</time>
      </trkpt>
      <trkpt lat="44.3385" lon="5.64658">
        <ele>1070.6</ele>
        <time>2021-09-08T05:29:33Z</time>
      </trkpt>
      <trkpt lat="44.33853" lon="5.64655">
        <ele>1070.7</ele>
        <time>2021-09-08T05:29:34Z</time>
      </trkpt>
      <trkpt lat="44.33854" lon="5.64654">
        <ele>1070.7</ele>
        <time>2021-09-08T05:29:35Z</time>
      </trkpt>
      <trkpt lat="44.33856" lon="5.64651">
        <ele>1070.8</ele>
        <time>2021-09-08T05:29:36Z</time>
      </trkpt>
      <trkpt lat="44.33857" lon="5.64651">
        <ele>1070.9</ele>
        <time>2021-09-08T05:29:37Z</time>
      </trkpt>
      <trkpt lat="44.3386" lon="5.64649">
        <ele>1071</ele>
        <time>2021-09-08T05:29:38Z</time>
      </trkpt>
      <trkpt lat="44.33861" lon="5.64649">
        <ele>1071</ele>
        <time>2021-09-08T05:29:39Z</time>
      </trkpt>
      <trkpt lat="44.33866" lon="5.6465">
        <ele>1071.2</ele>
        <time>2021-09-08T05:29:40Z</time>
      </trkpt>
      <trkpt lat="44.33869" lon="5.6465">
        <ele>1071.3</ele>
        <time>2021-09-08T05:29:42Z</time>
      </trkpt>
      <trkpt lat="44.33872" lon="5.64649">
        <ele>1071.5</ele>
        <time>2021-09-08T05:29:43Z</time>
      </trkpt>
      <trkpt lat="44.33874" lon="5.64648">
        <ele>1071.6</ele>
        <time>2021-09-08T05:29:44Z</time>
      </trkpt>
      <trkpt lat="44.33878" lon="5.64647">
        <ele>1071.7</ele>
        <time>2021-09-08T05:29:45Z</time>
      </trkpt>
      <trkpt lat="44.33881" lon="5.64648">
        <ele>1071.9</ele>
        <time>2021-09-08T05:29:46Z</time>
      </trkpt>
      <trkpt lat="44.33884" lon="5.64648">
        <ele>1072</ele>
        <time>2021-09-08T05:29:47Z</time>
      </trkpt>
      <trkpt lat="44.33888" lon="5.64649">
        <ele>1072.2</ele>
        <time>2021-09-08T05:29:48Z</time>
      </trkpt>
      <trkpt lat="44.33891" lon="5.6465">
        <ele>1072.3</ele>
        <time>2021-09-08T05:29:49Z</time>
      </trkpt>
      <trkpt lat="44.33893" lon="5.64651">
        <ele>1072.4</ele>
        <time>2021-09-08T05:29:50Z</time>
      </trkpt>
      <trkpt lat="44.33897" lon="5.64653">
        <ele>1072.5</ele>
        <time>2021-09-08T05:29:52Z</time>
      </trkpt>
      <trkpt lat="44.339" lon="5.64653">
        <ele>1072.6</ele>
        <time>2021-09-08T05:29:53Z</time>
      </trkpt>
      <trkpt lat="44.33903" lon="5.64654">
        <ele>1072.8</ele>
        <time>2021-09-08T05:29:54Z</time>
      </trkpt>
      <trkpt lat="44.33906" lon="5.64656">
        <ele>1072.9</ele>
        <time>2021-09-08T05:29:56Z</time>
      </trkpt>
      <trkpt lat="44.33908" lon="5.64658">
        <ele>1073</ele>
        <time>2021-09-08T05:29:57Z</time>
      </trkpt>
      <trkpt lat="44.33913" lon="5.64665">
        <ele>1073.3</ele>
        <time>2021-09-08T05:29:59Z</time>
      </trkpt>
      <trkpt lat="44.33916" lon="5.64668">
        <ele>1073.5</ele>
        <time>2021-09-08T05:30:00Z</time>
      </trkpt>
      <trkpt lat="44.33921" lon="5.6467">
        <ele>1073.6</ele>
        <time>2021-09-08T05:30:02Z</time>
      </trkpt>
      <trkpt lat="44.33924" lon="5.6467">
        <ele>1073.8</ele>
        <time>2021-09-08T05:30:03Z</time>
      </trkpt>
      <trkpt lat="44.33925" lon="5.64669">
        <ele>1073.8</ele>
        <time>2021-09-08T05:30:04Z</time>
      </trkpt>
      <trkpt lat="44.33929" lon="5.64665">
        <ele>1074</ele>
        <time>2021-09-08T05:30:06Z</time>
      </trkpt>
      <trkpt lat="44.33932" lon="5.64664">
        <ele>1074.1</ele>
        <time>2021-09-08T05:30:07Z</time>
      </trkpt>
      <trkpt lat="44.33934" lon="5.64664">
        <ele>1074.2</ele>
        <time>2021-09-08T05:30:08Z</time>
      </trkpt>
      <trkpt lat="44.33936" lon="5.64664">
        <ele>1074.3</ele>
        <time>2021-09-08T05:30:09Z</time>
      </trkpt>
      <trkpt lat="44.33937" lon="5.64663">
        <ele>1074.3</ele>
        <time>2021-09-08T05:30:10Z</time>
      </trkpt>
      <trkpt lat="44.33941" lon="5.64661">
        <ele>1074.5</ele>
        <time>2021-09-08T05:30:12Z</time>
      </trkpt>
      <trkpt lat="44.33943" lon="5.6466">
        <ele>1074.6</ele>
        <time>2021-09-08T05:30:13Z</time>
      </trkpt>
      <trkpt lat="44.33944" lon="5.64658">
        <ele>1074.7</ele>
        <time>2021-09-08T05:30:14Z</time>
      </trkpt>
      <trkpt lat="44.33947" lon="5.64657">
        <ele>1074.9</ele>
        <time>2021-09-08T05:30:15Z</time>
      </trkpt>
      <trkpt lat="44.33951" lon="5.64657">
        <ele>1075</ele>
        <time>2021-09-08T05:30:17Z</time>
      </trkpt>
      <trkpt lat="44.33954" lon="5.64659">
        <ele>1075.1</ele>
        <time>2021-09-08T05:30:19Z</time>
      </trkpt>
      <trkpt lat="44.33956" lon="5.64663">
        <ele>1075.2</ele>
        <time>2021-09-08T05:30:20Z</time>
      </trkpt>
      <trkpt lat="44.33958" lon="5.64667">
        <ele>1075.3</ele>
        <time>2021-09-08T05:30:21Z</time>
      </trkpt>
      <trkpt lat="44.33959" lon="5.64668">
        <ele>1075.3</ele>
        <time>2021-09-08T05:30:22Z</time>
      </trkpt>
      <trkpt lat="44.33961" lon="5.64674">
        <ele>1075.4</ele>
        <time>2021-09-08T05:30:24Z</time>
      </trkpt>
      <trkpt lat="44.33961" lon="5.64679">
        <ele>1075.5</ele>
        <time>2021-09-08T05:30:25Z</time>
      </trkpt>
      <trkpt lat="44.33962" lon="5.64683">
        <ele>1075.6</ele>
        <time>2021-09-08T05:30:26Z</time>
      </trkpt>
      <trkpt lat="44.33962" lon="5.64687">
        <ele>1075.7</ele>
        <time>2021-09-08T05:30:27Z</time>
      </trkpt>
      <trkpt lat="44.33964" lon="5.64693">
        <ele>1075.8</ele>
        <time>2021-09-08T05:30:29Z</time>
      </trkpt>
      <trkpt lat="44.33964" lon="5.64697">
        <ele>1075.9</ele>
        <time>2021-09-08T05:30:30Z</time>
      </trkpt>
      <trkpt lat="44.33963" lon="5.64701">
        <ele>1076</ele>
        <time>2021-09-08T05:30:31Z</time>
      </trkpt>
      <trkpt lat="44.33962" lon="5.64706">
        <ele>1076.1</ele>
        <time>2021-09-08T05:30:32Z</time>
      </trkpt>
      <trkpt lat="44.3396" lon="5.6471">
        <ele>1076.1</ele>
        <time>2021-09-08T05:30:33Z</time>
      </trkpt>
      <trkpt lat="44.33958" lon="5.64713">
        <ele>1076.2</ele>
        <time>2021-09-08T05:30:34Z</time>
      </trkpt>
      <trkpt lat="44.33957" lon="5.64715">
        <ele>1076.3</ele>
        <time>2021-09-08T05:30:35Z</time>
      </trkpt>
      <trkpt lat="44.33957" lon="5.6472">
        <ele>1076.4</ele>
        <time>2021-09-08T05:30:37Z</time>
      </trkpt>
      <trkpt lat="44.33955" lon="5.64724">
        <ele>1076.5</ele>
        <time>2021-09-08T05:30:38Z</time>
      </trkpt>
      <trkpt lat="44.33955" lon="5.64725">
        <ele>1076.5</ele>
        <time>2021-09-08T05:30:39Z</time>
      </trkpt>
      <trkpt lat="44.33953" lon="5.6473">
        <ele>1076.7</ele>
        <time>2021-09-08T05:30:41Z</time>
      </trkpt>
      <trkpt lat="44.33953" lon="5.64734">
        <ele>1076.8</ele>
        <time>2021-09-08T05:30:42Z</time>
      </trkpt>
      <trkpt lat="44.33953" lon="5.6474">
        <ele>1076.9</ele>
        <time>2021-09-08T05:30:44Z</time>
      </trkpt>
      <trkpt lat="44.33952" lon="5.64745">
        <ele>1077.1</ele>
        <time>2021-09-08T05:30:46Z</time>
      </trkpt>
      <trkpt lat="44.33952" lon="5.6475">
        <ele>1077.2</ele>
        <time>2021-09-08T05:30:47Z</time>
      </trkpt>
      <trkpt lat="44.33952" lon="5.64753">
        <ele>1077.3</ele>
        <time>2021-09-08T05:30:48Z</time>
      </trkpt>
      <trkpt lat="44.33952" lon="5.64757">
        <ele>1077.4</ele>
        <time>2021-09-08T05:30:50Z</time>
      </trkpt>
      <trkpt lat="44.33952" lon="5.64761">
        <ele>1077.5</ele>
        <time>2021-09-08T05:30:51Z</time>
      </trkpt>
      <trkpt lat="44.33952" lon="5.64763">
        <ele>1077.6</ele>
        <time>2021-09-08T05:30:52Z</time>
      </trkpt>
      <trkpt lat="44.33951" lon="5.64766">
        <ele>1077.7</ele>
        <time>2021-09-08T05:30:53Z</time>
      </trkpt>
      <trkpt lat="44.33952" lon="5.64769">
        <ele>1077.7</ele>
        <time>2021-09-08T05:30:54Z</time>
      </trkpt>
      <trkpt lat="44.33954" lon="5.64773">
        <ele>1077.8</ele>
        <time>2021-09-08T05:30:56Z</time>
      </trkpt>
      <trkpt lat="44.33958" lon="5.64779">
        <ele>1078</ele>
        <time>2021-09-08T05:30:57Z</time>
      </trkpt>
      <trkpt lat="44.33962" lon="5.64785">
        <ele>1078.2</ele>
        <time>2021-09-08T05:30:59Z</time>
      </trkpt>
      <trkpt lat="44.33965" lon="5.64791">
        <ele>1078.4</ele>
        <time>2021-09-08T05:31:00Z</time>
      </trkpt>
      <trkpt lat="44.33968" lon="5.64796">
        <ele>1078.5</ele>
        <time>2021-09-08T05:31:01Z</time>
      </trkpt>
      <trkpt lat="44.33971" lon="5.648">
        <ele>1078.6</ele>
        <time>2021-09-08T05:31:03Z</time>
      </trkpt>
      <trkpt lat="44.33973" lon="5.64806">
        <ele>1078.7</ele>
        <time>2021-09-08T05:31:04Z</time>
      </trkpt>
      <trkpt lat="44.33974" lon="5.64812">
        <ele>1078.8</ele>
        <time>2021-09-08T05:31:06Z</time>
      </trkpt>
      <trkpt lat="44.33974" lon="5.64818">
        <ele>1078.9</ele>
        <time>2021-09-08T05:31:07Z</time>
      </trkpt>
      <trkpt lat="44.33974" lon="5.64821">
        <ele>1079</ele>
        <time>2021-09-08T05:31:08Z</time>
      </trkpt>
      <trkpt lat="44.33974" lon="5.64826">
        <ele>1079.1</ele>
        <time>2021-09-08T05:31:10Z</time>
      </trkpt>
      <trkpt lat="44.33974" lon="5.6483">
        <ele>1079.1</ele>
        <time>2021-09-08T05:31:11Z</time>
      </trkpt>
      <trkpt lat="44.33974" lon="5.64838">
        <ele>1079.3</ele>
        <time>2021-09-08T05:31:13Z</time>
      </trkpt>
      <trkpt lat="44.33976" lon="5.64843">
        <ele>1079.4</ele>
        <time>2021-09-08T05:31:14Z</time>
      </trkpt>
      <trkpt lat="44.33976" lon="5.64845">
        <ele>1079.4</ele>
        <time>2021-09-08T05:31:15Z</time>
      </trkpt>
      <trkpt lat="44.33977" lon="5.6485">
        <ele>1079.5</ele>
        <time>2021-09-08T05:31:16Z</time>
      </trkpt>
      <trkpt lat="44.33978" lon="5.64858">
        <ele>1079.6</ele>
        <time>2021-09-08T05:31:18Z</time>
      </trkpt>
      <trkpt lat="44.3398" lon="5.64863">
        <ele>1079.7</ele>
        <time>2021-09-08T05:31:19Z</time>
      </trkpt>
      <trkpt lat="44.33981" lon="5.64871">
        <ele>1079.8</ele>
        <time>2021-09-08T05:31:21Z</time>
      </trkpt>
      <trkpt lat="44.33982" lon="5.64876">
        <ele>1079.9</ele>
        <time>2021-09-08T05:31:22Z</time>
      </trkpt>
      <trkpt lat="44.33982" lon="5.6488">
        <ele>1079.9</ele>
        <time>2021-09-08T05:31:23Z</time>
      </trkpt>
      <trkpt lat="44.33982" lon="5.64887">
        <ele>1080</ele>
        <time>2021-09-08T05:31:25Z</time>
      </trkpt>
      <trkpt lat="44.33982" lon="5.64893">
        <ele>1080</ele>
        <time>2021-09-08T05:31:26Z</time>
      </trkpt>
      <trkpt lat="44.33983" lon="5.64897">
        <ele>1080</ele>
        <time>2021-09-08T05:31:28Z</time>
      </trkpt>
      <trkpt lat="44.33985" lon="5.64901">
        <ele>1080.1</ele>
        <time>2021-09-08T05:31:29Z</time>
      </trkpt>
      <trkpt lat="44.33987" lon="5.6491">
        <ele>1080.2</ele>
        <time>2021-09-08T05:31:31Z</time>
      </trkpt>
      <trkpt lat="44.33993" lon="5.64918">
        <ele>1080.3</ele>
        <time>2021-09-08T05:31:33Z</time>
      </trkpt>
      <trkpt lat="44.33999" lon="5.64929">
        <ele>1080.5</ele>
        <time>2021-09-08T05:31:35Z</time>
      </trkpt>
      <trkpt lat="44.34003" lon="5.64938">
        <ele>1080.6</ele>
        <time>2021-09-08T05:31:36Z</time>
      </trkpt>
      <trkpt lat="44.34007" lon="5.64945">
        <ele>1080.8</ele>
        <time>2021-09-08T05:31:37Z</time>
      </trkpt>
      <trkpt lat="44.34011" lon="5.6495">
        <ele>1080.9</ele>
        <time>2021-09-08T05:31:39Z</time>
      </trkpt>
      <trkpt lat="44.34015" lon="5.64956">
        <ele>1081.1</ele>
        <time>2021-09-08T05:31:40Z</time>
      </trkpt>
      <trkpt lat="44.3402" lon="5.64962">
        <ele>1081.3</ele>
        <time>2021-09-08T05:31:42Z</time>
      </trkpt>
      <trkpt lat="44.34025" lon="5.64966">
        <ele>1081.4</ele>
        <time>2021-09-08T05:31:43Z</time>
      </trkpt>
      <trkpt lat="44.34027" lon="5.64967">
        <ele>1081.5</ele>
        <time>2021-09-08T05:31:44Z</time>
      </trkpt>
      <trkpt lat="44.3403" lon="5.64967">
        <ele>1081.6</ele>
        <time>2021-09-08T05:31:46Z</time>
      </trkpt>
      <trkpt lat="44.34033" lon="5.64969">
        <ele>1081.7</ele>
        <time>2021-09-08T05:31:47Z</time>
      </trkpt>
      <trkpt lat="44.34033" lon="5.6497">
        <ele>1081.7</ele>
        <time>2021-09-08T05:31:48Z</time>
      </trkpt>
      <trkpt lat="44.34037" lon="5.64976">
        <ele>1081.8</ele>
        <time>2021-09-08T05:31:49Z</time>
      </trkpt>
      <trkpt lat="44.34044" lon="5.64984">
        <ele>1082.1</ele>
        <time>2021-09-08T05:31:51Z</time>
      </trkpt>
      <trkpt lat="44.34051" lon="5.64992">
        <ele>1082.3</ele>
        <time>2021-09-08T05:31:53Z</time>
      </trkpt>
      <trkpt lat="44.34056" lon="5.64998">
        <ele>1082.4</ele>
        <time>2021-09-08T05:31:54Z</time>
      </trkpt>
      <trkpt lat="44.34059" lon="5.65001">
        <ele>1082.5</ele>
        <time>2021-09-08T05:31:55Z</time>
      </trkpt>
      <trkpt lat="44.34062" lon="5.65004">
        <ele>1082.5</ele>
        <time>2021-09-08T05:31:56Z</time>
      </trkpt>
      <trkpt lat="44.34067" lon="5.65009">
        <ele>1082.7</ele>
        <time>2021-09-08T05:31:58Z</time>
      </trkpt>
      <trkpt lat="44.3407" lon="5.65014">
        <ele>1082.8</ele>
        <time>2021-09-08T05:31:59Z</time>
      </trkpt>
      <trkpt lat="44.34073" lon="5.65018">
        <ele>1082.8</ele>
        <time>2021-09-08T05:32:00Z</time>
      </trkpt>
      <trkpt lat="44.34075" lon="5.65022">
        <ele>1082.9</ele>
        <time>2021-09-08T05:32:02Z</time>
      </trkpt>
      <trkpt lat="44.34077" lon="5.65025">
        <ele>1083</ele>
        <time>2021-09-08T05:32:03Z</time>
      </trkpt>
      <trkpt lat="44.34079" lon="5.65031">
        <ele>1083</ele>
        <time>2021-09-08T05:32:05Z</time>
      </trkpt>
      <trkpt lat="44.34081" lon="5.65036">
        <ele>1083.1</ele>
        <time>2021-09-08T05:32:06Z</time>
      </trkpt>
      <trkpt lat="44.34084" lon="5.65043">
        <ele>1083.1</ele>
        <time>2021-09-08T05:32:07Z</time>
      </trkpt>
      <trkpt lat="44.34084" lon="5.65046">
        <ele>1083.1</ele>
        <time>2021-09-08T05:32:09Z</time>
      </trkpt>
      <trkpt lat="44.34081" lon="5.65041">
        <ele>1083.2</ele>
        <time>2021-09-08T05:32:10Z</time>
      </trkpt>
      <trkpt lat="44.34077" lon="5.65038">
        <ele>1083.2</ele>
        <time>2021-09-08T05:32:12Z</time>
      </trkpt>
      <trkpt lat="44.34073" lon="5.65035">
        <ele>1083.3</ele>
        <time>2021-09-08T05:32:13Z</time>
      </trkpt>
      <trkpt lat="44.3407" lon="5.65038">
        <ele>1083.4</ele>
        <time>2021-09-08T05:32:15Z</time>
      </trkpt>
      <trkpt lat="44.34069" lon="5.65039">
        <ele>1083.4</ele>
        <time>2021-09-08T05:32:16Z</time>
      </trkpt>
      <trkpt lat="44.34067" lon="5.65044">
        <ele>1083.4</ele>
        <time>2021-09-08T05:32:18Z</time>
      </trkpt>
      <trkpt lat="44.34066" lon="5.65045">
        <ele>1083.4</ele>
        <time>2021-09-08T05:32:19Z</time>
      </trkpt>
      <trkpt lat="44.34064" lon="5.65049">
        <ele>1083.5</ele>
        <time>2021-09-08T05:32:21Z</time>
      </trkpt>
      <trkpt lat="44.34063" lon="5.65054">
        <ele>1083.6</ele>
        <time>2021-09-08T05:32:22Z</time>
      </trkpt>
      <trkpt lat="44.34061" lon="5.65058">
        <ele>1083.6</ele>
        <time>2021-09-08T05:32:23Z</time>
      </trkpt>
      <trkpt lat="44.34059" lon="5.65061">
        <ele>1083.6</ele>
        <time>2021-09-08T05:32:24Z</time>
      </trkpt>
      <trkpt lat="44.34058" lon="5.65068">
        <ele>1083.7</ele>
        <time>2021-09-08T05:32:26Z</time>
      </trkpt>
      <trkpt lat="44.34058" lon="5.65074">
        <ele>1083.8</ele>
        <time>2021-09-08T05:32:28Z</time>
      </trkpt>
      <trkpt lat="44.34058" lon="5.6508">
        <ele>1083.9</ele>
        <time>2021-09-08T05:32:29Z</time>
      </trkpt>
      <trkpt lat="44.34059" lon="5.65085">
        <ele>1084</ele>
        <time>2021-09-08T05:32:30Z</time>
      </trkpt>
      <trkpt lat="44.34059" lon="5.6509">
        <ele>1084.1</ele>
        <time>2021-09-08T05:32:31Z</time>
      </trkpt>
      <trkpt lat="44.3406" lon="5.65094">
        <ele>1084.2</ele>
        <time>2021-09-08T05:32:32Z</time>
      </trkpt>
      <trkpt lat="44.3406" lon="5.651">
        <ele>1084.4</ele>
        <time>2021-09-08T05:32:34Z</time>
      </trkpt>
      <trkpt lat="44.34059" lon="5.65106">
        <ele>1084.5</ele>
        <time>2021-09-08T05:32:36Z</time>
      </trkpt>
      <trkpt lat="44.34057" lon="5.65112">
        <ele>1084.7</ele>
        <time>2021-09-08T05:32:38Z</time>
      </trkpt>
      <trkpt lat="44.34054" lon="5.65116">
        <ele>1084.8</ele>
        <time>2021-09-08T05:32:39Z</time>
      </trkpt>
      <trkpt lat="44.34052" lon="5.65121">
        <ele>1084.8</ele>
        <time>2021-09-08T05:32:40Z</time>
      </trkpt>
      <trkpt lat="44.34051" lon="5.65125">
        <ele>1084.9</ele>
        <time>2021-09-08T05:32:41Z</time>
      </trkpt>
      <trkpt lat="44.34052" lon="5.65129">
        <ele>1084.9</ele>
        <time>2021-09-08T05:32:42Z</time>
      </trkpt>
      <trkpt lat="44.34051" lon="5.65135">
        <ele>1084.9</ele>
        <time>2021-09-08T05:32:43Z</time>
      </trkpt>
      <trkpt lat="44.34051" lon="5.65137">
        <ele>1084.9</ele>
        <time>2021-09-08T05:32:44Z</time>
      </trkpt>
      <trkpt lat="44.34049" lon="5.65145">
        <ele>1084.9</ele>
        <time>2021-09-08T05:32:46Z</time>
      </trkpt>
      <trkpt lat="44.3405" lon="5.6515">
        <ele>1084.9</ele>
        <time>2021-09-08T05:32:47Z</time>
      </trkpt>
      <trkpt lat="44.3405" lon="5.65152">
        <ele>1084.9</ele>
        <time>2021-09-08T05:32:48Z</time>
      </trkpt>
      <trkpt lat="44.34052" lon="5.65156">
        <ele>1085</ele>
        <time>2021-09-08T05:32:50Z</time>
      </trkpt>
      <trkpt lat="44.34052" lon="5.65157">
        <ele>1085</ele>
        <time>2021-09-08T05:32:51Z</time>
      </trkpt>
      <trkpt lat="44.34053" lon="5.65159">
        <ele>1085</ele>
        <time>2021-09-08T05:32:52Z</time>
      </trkpt>
      <trkpt lat="44.34052" lon="5.65161">
        <ele>1084.8</ele>
        <time>2021-09-08T05:32:53Z</time>
      </trkpt>
      <trkpt lat="44.34051" lon="5.65162">
        <ele>1084.7</ele>
        <time>2021-09-08T05:32:54Z</time>
      </trkpt>
      <trkpt lat="44.34051" lon="5.65163">
        <ele>1084.6</ele>
        <time>2021-09-08T05:32:55Z</time>
      </trkpt>
      <trkpt lat="44.3405" lon="5.65164">
        <ele>1084.5</ele>
        <time>2021-09-08T05:32:56Z</time>
      </trkpt>
      <trkpt lat="44.34049" lon="5.65164">
        <ele>1084.5</ele>
        <time>2021-09-08T05:32:58Z</time>
      </trkpt>
      <trkpt lat="44.34048" lon="5.65163">
        <ele>1084.4</ele>
        <time>2021-09-08T05:32:59Z</time>
      </trkpt>
      <trkpt lat="44.34047" lon="5.65163">
        <ele>1084.3</ele>
        <time>2021-09-08T05:33:01Z</time>
      </trkpt>
      <trkpt lat="44.34046" lon="5.65162">
        <ele>1084.2</ele>
        <time>2021-09-08T05:33:02Z</time>
      </trkpt>
      <trkpt lat="44.34045" lon="5.6516">
        <ele>1084</ele>
        <time>2021-09-08T05:33:03Z</time>
      </trkpt>
      <trkpt lat="44.34044" lon="5.65159">
        <ele>1083.9</ele>
        <time>2021-09-08T05:33:05Z</time>
      </trkpt>
      <trkpt lat="44.34043" lon="5.65159">
        <ele>1083.8</ele>
        <time>2021-09-08T05:33:07Z</time>
      </trkpt>
      <trkpt lat="44.34043" lon="5.65158">
        <ele>1083.7</ele>
        <time>2021-09-08T05:33:08Z</time>
      </trkpt>
      <trkpt lat="44.34042" lon="5.65158">
        <ele>1083.6</ele>
        <time>2021-09-08T05:33:09Z</time>
      </trkpt>
      <trkpt lat="44.34041" lon="5.65157">
        <ele>1083.4</ele>
        <time>2021-09-08T05:33:10Z</time>
      </trkpt>
      <trkpt lat="44.34037" lon="5.65156">
        <ele>1082.9</ele>
        <time>2021-09-08T05:33:12Z</time>
      </trkpt>
      <trkpt lat="44.34033" lon="5.65154">
        <ele>1082.4</ele>
        <time>2021-09-08T05:33:13Z</time>
      </trkpt>
      <trkpt lat="44.34029" lon="5.65151">
        <ele>1081.8</ele>
        <time>2021-09-08T05:33:14Z</time>
      </trkpt>
      <trkpt lat="44.34025" lon="5.65149">
        <ele>1081.3</ele>
        <time>2021-09-08T05:33:16Z</time>
      </trkpt>
      <trkpt lat="44.34022" lon="5.65149">
        <ele>1080.8</ele>
        <time>2021-09-08T05:33:17Z</time>
      </trkpt>
      <trkpt lat="44.34018" lon="5.65149">
        <ele>1080.2</ele>
        <time>2021-09-08T05:33:19Z</time>
      </trkpt>
      <trkpt lat="44.34015" lon="5.65149">
        <ele>1079.8</ele>
        <time>2021-09-08T05:33:20Z</time>
      </trkpt>
      <trkpt lat="44.34012" lon="5.65148">
        <ele>1079.4</ele>
        <time>2021-09-08T05:33:21Z</time>
      </trkpt>
      <trkpt lat="44.34009" lon="5.65146">
        <ele>1079</ele>
        <time>2021-09-08T05:33:22Z</time>
      </trkpt>
      <trkpt lat="44.34005" lon="5.65144">
        <ele>1078.3</ele>
        <time>2021-09-08T05:33:24Z</time>
      </trkpt>
      <trkpt lat="44.34003" lon="5.65143">
        <ele>1078</ele>
        <time>2021-09-08T05:33:25Z</time>
      </trkpt>
      <trkpt lat="44.34001" lon="5.65143">
        <ele>1077.8</ele>
        <time>2021-09-08T05:33:26Z</time>
      </trkpt>
      <trkpt lat="44.33998" lon="5.65144">
        <ele>1077.3</ele>
        <time>2021-09-08T05:33:27Z</time>
      </trkpt>
      <trkpt lat="44.33995" lon="5.65144">
        <ele>1076.9</ele>
        <time>2021-09-08T05:33:28Z</time>
      </trkpt>
      <trkpt lat="44.33991" lon="5.65143">
        <ele>1076.4</ele>
        <time>2021-09-08T05:33:29Z</time>
      </trkpt>
      <trkpt lat="44.33987" lon="5.65142">
        <ele>1076</ele>
        <time>2021-09-08T05:33:30Z</time>
      </trkpt>
      <trkpt lat="44.33984" lon="5.65141">
        <ele>1075.6</ele>
        <time>2021-09-08T05:33:32Z</time>
      </trkpt>
      <trkpt lat="44.3398" lon="5.65144">
        <ele>1075.3</ele>
        <time>2021-09-08T05:33:33Z</time>
      </trkpt>
      <trkpt lat="44.33978" lon="5.65146">
        <ele>1075.1</ele>
        <time>2021-09-08T05:33:34Z</time>
      </trkpt>
      <trkpt lat="44.33972" lon="5.65149">
        <ele>1074.6</ele>
        <time>2021-09-08T05:33:36Z</time>
      </trkpt>
      <trkpt lat="44.33966" lon="5.65148">
        <ele>1074.2</ele>
        <time>2021-09-08T05:33:37Z</time>
      </trkpt>
      <trkpt lat="44.33957" lon="5.65145">
        <ele>1073.6</ele>
        <time>2021-09-08T05:33:39Z</time>
      </trkpt>
      <trkpt lat="44.33948" lon="5.6514">
        <ele>1072.9</ele>
        <time>2021-09-08T05:33:41Z</time>
      </trkpt>
      <trkpt lat="44.33944" lon="5.65138">
        <ele>1072.5</ele>
        <time>2021-09-08T05:33:42Z</time>
      </trkpt>
      <trkpt lat="44.33942" lon="5.65137">
        <ele>1072.3</ele>
        <time>2021-09-08T05:33:43Z</time>
      </trkpt>
      <trkpt lat="44.33937" lon="5.65132">
        <ele>1071.8</ele>
        <time>2021-09-08T05:33:45Z</time>
      </trkpt>
      <trkpt lat="44.33936" lon="5.65131">
        <ele>1071.7</ele>
        <time>2021-09-08T05:33:46Z</time>
      </trkpt>
      <trkpt lat="44.33935" lon="5.65129">
        <ele>1071.5</ele>
        <time>2021-09-08T05:33:47Z</time>
      </trkpt>
      <trkpt lat="44.33933" lon="5.65127">
        <ele>1071.3</ele>
        <time>2021-09-08T05:33:49Z</time>
      </trkpt>
      <trkpt lat="44.33932" lon="5.65125">
        <ele>1071.1</ele>
        <time>2021-09-08T05:33:51Z</time>
      </trkpt>
      <trkpt lat="44.33931" lon="5.65123">
        <ele>1071</ele>
        <time>2021-09-08T05:33:52Z</time>
      </trkpt>
      <trkpt lat="44.33929" lon="5.65121">
        <ele>1070.8</ele>
        <time>2021-09-08T05:33:54Z</time>
      </trkpt>
      <trkpt lat="44.33928" lon="5.65119">
        <ele>1070.6</ele>
        <time>2021-09-08T05:33:55Z</time>
      </trkpt>
      <trkpt lat="44.33926" lon="5.65117">
        <ele>1070.4</ele>
        <time>2021-09-08T05:34:07Z</time>
      </trkpt>
      <trkpt lat="44.33925" lon="5.65115">
        <ele>1070.2</ele>
        <time>2021-09-08T05:34:08Z</time>
      </trkpt>
      <trkpt lat="44.33917" lon="5.65107">
        <ele>1069.3</ele>
        <time>2021-09-08T05:34:09Z</time>
      </trkpt>
      <trkpt lat="44.3391" lon="5.65102">
        <ele>1068.3</ele>
        <time>2021-09-08T05:34:11Z</time>
      </trkpt>
      <trkpt lat="44.33904" lon="5.65098">
        <ele>1067.4</ele>
        <time>2021-09-08T05:34:12Z</time>
      </trkpt>
      <trkpt lat="44.339" lon="5.65095">
        <ele>1066.7</ele>
        <time>2021-09-08T05:34:14Z</time>
      </trkpt>
      <trkpt lat="44.33895" lon="5.6509">
        <ele>1065.9</ele>
        <time>2021-09-08T05:34:15Z</time>
      </trkpt>
      <trkpt lat="44.33891" lon="5.65086">
        <ele>1065.2</ele>
        <time>2021-09-08T05:34:16Z</time>
      </trkpt>
      <trkpt lat="44.33886" lon="5.65083">
        <ele>1064.4</ele>
        <time>2021-09-08T05:34:18Z</time>
      </trkpt>
      <trkpt lat="44.33883" lon="5.6508">
        <ele>1063.8</ele>
        <time>2021-09-08T05:34:19Z</time>
      </trkpt>
      <trkpt lat="44.3388" lon="5.65078">
        <ele>1063.4</ele>
        <time>2021-09-08T05:34:20Z</time>
      </trkpt>
      <trkpt lat="44.33876" lon="5.65076">
        <ele>1062.8</ele>
        <time>2021-09-08T05:34:21Z</time>
      </trkpt>
      <trkpt lat="44.33874" lon="5.65075">
        <ele>1062.5</ele>
        <time>2021-09-08T05:34:22Z</time>
      </trkpt>
      <trkpt lat="44.33873" lon="5.65075">
        <ele>1062.5</ele>
        <time>2021-09-08T05:34:24Z</time>
      </trkpt>
      <trkpt lat="44.33869" lon="5.65072">
        <ele>1061.9</ele>
        <time>2021-09-08T05:34:25Z</time>
      </trkpt>
      <trkpt lat="44.33864" lon="5.65071">
        <ele>1061.2</ele>
        <time>2021-09-08T05:34:27Z</time>
      </trkpt>
      <trkpt lat="44.33861" lon="5.6507">
        <ele>1060.8</ele>
        <time>2021-09-08T05:34:28Z</time>
      </trkpt>
      <trkpt lat="44.33857" lon="5.6507">
        <ele>1060.4</ele>
        <time>2021-09-08T05:34:29Z</time>
      </trkpt>
      <trkpt lat="44.33852" lon="5.65072">
        <ele>1059.8</ele>
        <time>2021-09-08T05:34:31Z</time>
      </trkpt>
      <trkpt lat="44.33847" lon="5.65075">
        <ele>1059.2</ele>
        <time>2021-09-08T05:34:32Z</time>
      </trkpt>
      <trkpt lat="44.33841" lon="5.65076">
        <ele>1058.6</ele>
        <time>2021-09-08T05:34:34Z</time>
      </trkpt>
      <trkpt lat="44.33837" lon="5.65078">
        <ele>1058.2</ele>
        <time>2021-09-08T05:34:35Z</time>
      </trkpt>
      <trkpt lat="44.33833" lon="5.65079">
        <ele>1057.8</ele>
        <time>2021-09-08T05:34:37Z</time>
      </trkpt>
      <trkpt lat="44.33828" lon="5.6508">
        <ele>1057.4</ele>
        <time>2021-09-08T05:34:38Z</time>
      </trkpt>
      <trkpt lat="44.33825" lon="5.65082">
        <ele>1057</ele>
        <time>2021-09-08T05:34:39Z</time>
      </trkpt>
      <trkpt lat="44.33822" lon="5.65083">
        <ele>1056.7</ele>
        <time>2021-09-08T05:34:41Z</time>
      </trkpt>
      <trkpt lat="44.33818" lon="5.65084">
        <ele>1056.3</ele>
        <time>2021-09-08T05:34:42Z</time>
      </trkpt>
      <trkpt lat="44.33812" lon="5.65088">
        <ele>1055.4</ele>
        <time>2021-09-08T05:34:44Z</time>
      </trkpt>
      <trkpt lat="44.33807" lon="5.6509">
        <ele>1054.7</ele>
        <time>2021-09-08T05:34:46Z</time>
      </trkpt>
      <trkpt lat="44.33804" lon="5.65091">
        <ele>1054.2</ele>
        <time>2021-09-08T05:34:48Z</time>
      </trkpt>
      <trkpt lat="44.33803" lon="5.65094">
        <ele>1053.9</ele>
        <time>2021-09-08T05:34:49Z</time>
      </trkpt>
      <trkpt lat="44.33802" lon="5.65094">
        <ele>1053.8</ele>
        <time>2021-09-08T05:34:50Z</time>
      </trkpt>
      <trkpt lat="44.33802" lon="5.65091">
        <ele>1053.4</ele>
        <time>2021-09-08T05:34:51Z</time>
      </trkpt>
      <trkpt lat="44.33802" lon="5.65088">
        <ele>1053.2</ele>
        <time>2021-09-08T05:34:52Z</time>
      </trkpt>
      <trkpt lat="44.33802" lon="5.65084">
        <ele>1052.6</ele>
        <time>2021-09-08T05:34:54Z</time>
      </trkpt>
      <trkpt lat="44.33803" lon="5.65078">
        <ele>1051.9</ele>
        <time>2021-09-08T05:34:55Z</time>
      </trkpt>
      <trkpt lat="44.33804" lon="5.65071">
        <ele>1051</ele>
        <time>2021-09-08T05:34:56Z</time>
      </trkpt>
      <trkpt lat="44.33806" lon="5.65066">
        <ele>1050.1</ele>
        <time>2021-09-08T05:34:57Z</time>
      </trkpt>
      <trkpt lat="44.33807" lon="5.65062">
        <ele>1049.4</ele>
        <time>2021-09-08T05:34:58Z</time>
      </trkpt>
      <trkpt lat="44.33809" lon="5.65057">
        <ele>1048.6</ele>
        <time>2021-09-08T05:35:00Z</time>
      </trkpt>
      <trkpt lat="44.33809" lon="5.65055">
        <ele>1048.2</ele>
        <time>2021-09-08T05:35:01Z</time>
      </trkpt>
      <trkpt lat="44.3381" lon="5.65053">
        <ele>1047.8</ele>
        <time>2021-09-08T05:35:02Z</time>
      </trkpt>
      <trkpt lat="44.3381" lon="5.65051">
        <ele>1047.5</ele>
        <time>2021-09-08T05:35:04Z</time>
      </trkpt>
      <trkpt lat="44.3381" lon="5.65052">
        <ele>1047.3</ele>
        <time>2021-09-08T05:35:05Z</time>
      </trkpt>
      <trkpt lat="44.33808" lon="5.65053">
        <ele>1046.8</ele>
        <time>2021-09-08T05:35:06Z</time>
      </trkpt>
      <trkpt lat="44.33807" lon="5.65052">
        <ele>1046.5</ele>
        <time>2021-09-08T05:35:07Z</time>
      </trkpt>
      <trkpt lat="44.33804" lon="5.6505">
        <ele>1045.7</ele>
        <time>2021-09-08T05:35:08Z</time>
      </trkpt>
      <trkpt lat="44.33803" lon="5.65049">
        <ele>1045.4</ele>
        <time>2021-09-08T05:35:09Z</time>
      </trkpt>
      <trkpt lat="44.338" lon="5.6505">
        <ele>1044.7</ele>
        <time>2021-09-08T05:35:11Z</time>
      </trkpt>
      <trkpt lat="44.33796" lon="5.65051">
        <ele>1043.8</ele>
        <time>2021-09-08T05:35:12Z</time>
      </trkpt>
      <trkpt lat="44.33792" lon="5.65052">
        <ele>1042.8</ele>
        <time>2021-09-08T05:35:13Z</time>
      </trkpt>
      <trkpt lat="44.33787" lon="5.65055">
        <ele>1041.6</ele>
        <time>2021-09-08T05:35:15Z</time>
      </trkpt>
      <trkpt lat="44.33781" lon="5.65057">
        <ele>1040.2</ele>
        <time>2021-09-08T05:35:17Z</time>
      </trkpt>
      <trkpt lat="44.33778" lon="5.65059">
        <ele>1039.5</ele>
        <time>2021-09-08T05:35:18Z</time>
      </trkpt>
      <trkpt lat="44.33775" lon="5.65063">
        <ele>1038.8</ele>
        <time>2021-09-08T05:35:19Z</time>
      </trkpt>
      <trkpt lat="44.33774" lon="5.65064">
        <ele>1038.5</ele>
        <time>2021-09-08T05:35:20Z</time>
      </trkpt>
      <trkpt lat="44.33772" lon="5.65066">
        <ele>1038</ele>
        <time>2021-09-08T05:35:22Z</time>
      </trkpt>
      <trkpt lat="44.33769" lon="5.65066">
        <ele>1037.5</ele>
        <time>2021-09-08T05:35:23Z</time>
      </trkpt>
      <trkpt lat="44.33764" lon="5.65067">
        <ele>1036.8</ele>
        <time>2021-09-08T05:35:24Z</time>
      </trkpt>
      <trkpt lat="44.33759" lon="5.65071">
        <ele>1035.9</ele>
        <time>2021-09-08T05:35:26Z</time>
      </trkpt>
      <trkpt lat="44.33757" lon="5.65074">
        <ele>1035.6</ele>
        <time>2021-09-08T05:35:27Z</time>
      </trkpt>
      <trkpt lat="44.33755" lon="5.65075">
        <ele>1035.4</ele>
        <time>2021-09-08T05:35:28Z</time>
      </trkpt>
      <trkpt lat="44.33754" lon="5.65076">
        <ele>1035.2</ele>
        <time>2021-09-08T05:35:29Z</time>
      </trkpt>
      <trkpt lat="44.33751" lon="5.6508">
        <ele>1034.7</ele>
        <time>2021-09-08T05:35:31Z</time>
      </trkpt>
      <trkpt lat="44.33748" lon="5.65081">
        <ele>1034.3</ele>
        <time>2021-09-08T05:35:32Z</time>
      </trkpt>
      <trkpt lat="44.33745" lon="5.65082">
        <ele>1033.9</ele>
        <time>2021-09-08T05:35:33Z</time>
      </trkpt>
      <trkpt lat="44.33742" lon="5.65082">
        <ele>1033.5</ele>
        <time>2021-09-08T05:35:35Z</time>
      </trkpt>
      <trkpt lat="44.33738" lon="5.65082">
        <ele>1033</ele>
        <time>2021-09-08T05:35:36Z</time>
      </trkpt>
      <trkpt lat="44.33735" lon="5.65083">
        <ele>1032.5</ele>
        <time>2021-09-08T05:35:37Z</time>
      </trkpt>
      <trkpt lat="44.3373" lon="5.65083">
        <ele>1031.7</ele>
        <time>2021-09-08T05:35:39Z</time>
      </trkpt>
      <trkpt lat="44.33727" lon="5.65084">
        <ele>1031.2</ele>
        <time>2021-09-08T05:35:40Z</time>
      </trkpt>
      <trkpt lat="44.33724" lon="5.65086">
        <ele>1030.5</ele>
        <time>2021-09-08T05:35:41Z</time>
      </trkpt>
      <trkpt lat="44.33721" lon="5.65088">
        <ele>1029.9</ele>
        <time>2021-09-08T05:35:42Z</time>
      </trkpt>
      <trkpt lat="44.33718" lon="5.65087">
        <ele>1029.2</ele>
        <time>2021-09-08T05:35:44Z</time>
      </trkpt>
      <trkpt lat="44.33717" lon="5.65086">
        <ele>1028.8</ele>
        <time>2021-09-08T05:35:45Z</time>
      </trkpt>
      <trkpt lat="44.33715" lon="5.65085">
        <ele>1028.5</ele>
        <time>2021-09-08T05:35:47Z</time>
      </trkpt>
      <trkpt lat="44.33714" lon="5.65086">
        <ele>1028.2</ele>
        <time>2021-09-08T05:35:48Z</time>
      </trkpt>
      <trkpt lat="44.33713" lon="5.65086">
        <ele>1027.9</ele>
        <time>2021-09-08T05:35:49Z</time>
      </trkpt>
      <trkpt lat="44.33712" lon="5.65087">
        <ele>1027.7</ele>
        <time>2021-09-08T05:35:50Z</time>
      </trkpt>
      <trkpt lat="44.33711" lon="5.65086">
        <ele>1027.3</ele>
        <time>2021-09-08T05:35:52Z</time>
      </trkpt>
      <trkpt lat="44.33707" lon="5.65087">
        <ele>1026.4</ele>
        <time>2021-09-08T05:35:54Z</time>
      </trkpt>
      <trkpt lat="44.33703" lon="5.65086">
        <ele>1025.3</ele>
        <time>2021-09-08T05:35:55Z</time>
      </trkpt>
      <trkpt lat="44.33697" lon="5.65086">
        <ele>1024</ele>
        <time>2021-09-08T05:35:57Z</time>
      </trkpt>
      <trkpt lat="44.33693" lon="5.65087">
        <ele>1023</ele>
        <time>2021-09-08T05:35:58Z</time>
      </trkpt>
      <trkpt lat="44.3369" lon="5.65089">
        <ele>1022.2</ele>
        <time>2021-09-08T05:36:00Z</time>
      </trkpt>
      <trkpt lat="44.33688" lon="5.65092">
        <ele>1021.5</ele>
        <time>2021-09-08T05:36:01Z</time>
      </trkpt>
      <trkpt lat="44.33685" lon="5.65097">
        <ele>1020.6</ele>
        <time>2021-09-08T05:36:02Z</time>
      </trkpt>
      <trkpt lat="44.33681" lon="5.65101">
        <ele>1019.6</ele>
        <time>2021-09-08T05:36:03Z</time>
      </trkpt>
      <trkpt lat="44.33677" lon="5.65105">
        <ele>1018.8</ele>
        <time>2021-09-08T05:36:05Z</time>
      </trkpt>
      <trkpt lat="44.33674" lon="5.65108">
        <ele>1018.2</ele>
        <time>2021-09-08T05:36:06Z</time>
      </trkpt>
      <trkpt lat="44.33669" lon="5.65111">
        <ele>1017.4</ele>
        <time>2021-09-08T05:36:07Z</time>
      </trkpt>
      <trkpt lat="44.33665" lon="5.65113">
        <ele>1016.8</ele>
        <time>2021-09-08T05:36:08Z</time>
      </trkpt>
      <trkpt lat="44.33661" lon="5.65115">
        <ele>1016.1</ele>
        <time>2021-09-08T05:36:09Z</time>
      </trkpt>
      <trkpt lat="44.33655" lon="5.65115">
        <ele>1015.1</ele>
        <time>2021-09-08T05:36:11Z</time>
      </trkpt>
      <trkpt lat="44.33651" lon="5.65115">
        <ele>1014.2</ele>
        <time>2021-09-08T05:36:12Z</time>
      </trkpt>
      <trkpt lat="44.33646" lon="5.65117">
        <ele>1013.3</ele>
        <time>2021-09-08T05:36:14Z</time>
      </trkpt>
      <trkpt lat="44.33643" lon="5.65121">
        <ele>1012.5</ele>
        <time>2021-09-08T05:36:15Z</time>
      </trkpt>
      <trkpt lat="44.33642" lon="5.65125">
        <ele>1011.8</ele>
        <time>2021-09-08T05:36:16Z</time>
      </trkpt>
      <trkpt lat="44.33641" lon="5.65128">
        <ele>1011.3</ele>
        <time>2021-09-08T05:36:18Z</time>
      </trkpt>
      <trkpt lat="44.33639" lon="5.65129">
        <ele>1010.9</ele>
        <time>2021-09-08T05:36:19Z</time>
      </trkpt>
      <trkpt lat="44.33638" lon="5.65131">
        <ele>1010.4</ele>
        <time>2021-09-08T05:36:20Z</time>
      </trkpt>
      <trkpt lat="44.33636" lon="5.65131">
        <ele>1010</ele>
        <time>2021-09-08T05:36:21Z</time>
      </trkpt>
      <trkpt lat="44.33627" lon="5.65132">
        <ele>1007.9</ele>
        <time>2021-09-08T05:36:23Z</time>
      </trkpt>
      <trkpt lat="44.33613" lon="5.65132">
        <ele>1005.1</ele>
        <time>2021-09-08T05:36:24Z</time>
      </trkpt>
      <trkpt lat="44.33606" lon="5.65131">
        <ele>1003.7</ele>
        <time>2021-09-08T05:36:25Z</time>
      </trkpt>
      <trkpt lat="44.336" lon="5.65129">
        <ele>1002.4</ele>
        <time>2021-09-08T05:36:26Z</time>
      </trkpt>
      <trkpt lat="44.33587" lon="5.65126">
        <ele>1000</ele>
        <time>2021-09-08T05:36:28Z</time>
      </trkpt>
      <trkpt lat="44.33581" lon="5.65129">
        <ele>999</ele>
        <time>2021-09-08T05:36:29Z</time>
      </trkpt>
      <trkpt lat="44.33576" lon="5.65131">
        <ele>998</ele>
        <time>2021-09-08T05:36:30Z</time>
      </trkpt>
      <trkpt lat="44.33563" lon="5.65133">
        <ele>996</ele>
        <time>2021-09-08T05:36:32Z</time>
      </trkpt>
      <trkpt lat="44.33549" lon="5.65135">
        <ele>994</ele>
        <time>2021-09-08T05:36:34Z</time>
      </trkpt>
      <trkpt lat="44.33543" lon="5.65137">
        <ele>993.3</ele>
        <time>2021-09-08T05:36:35Z</time>
      </trkpt>
      <trkpt lat="44.33533" lon="5.65141">
        <ele>992.2</ele>
        <time>2021-09-08T05:36:37Z</time>
      </trkpt>
      <trkpt lat="44.33528" lon="5.65143">
        <ele>991.7</ele>
        <time>2021-09-08T05:36:38Z</time>
      </trkpt>
      <trkpt lat="44.33514" lon="5.6515">
        <ele>990</ele>
        <time>2021-09-08T05:36:40Z</time>
      </trkpt>
      <trkpt lat="44.33507" lon="5.65153">
        <ele>989.2</ele>
        <time>2021-09-08T05:36:41Z</time>
      </trkpt>
      <trkpt lat="44.335" lon="5.65158">
        <ele>988.3</ele>
        <time>2021-09-08T05:36:43Z</time>
      </trkpt>
      <trkpt lat="44.33497" lon="5.6516">
        <ele>988.1</ele>
        <time>2021-09-08T05:36:44Z</time>
      </trkpt>
      <trkpt lat="44.33494" lon="5.65161">
        <ele>987.8</ele>
        <time>2021-09-08T05:36:46Z</time>
      </trkpt>
      <trkpt lat="44.33492" lon="5.6516">
        <ele>987.7</ele>
        <time>2021-09-08T05:36:47Z</time>
      </trkpt>
      <trkpt lat="44.33489" lon="5.65157">
        <ele>987.4</ele>
        <time>2021-09-08T05:36:49Z</time>
      </trkpt>
      <trkpt lat="44.33487" lon="5.65154">
        <ele>987.3</ele>
        <time>2021-09-08T05:36:50Z</time>
      </trkpt>
      <trkpt lat="44.33484" lon="5.65149">
        <ele>987.2</ele>
        <time>2021-09-08T05:36:52Z</time>
      </trkpt>
      <trkpt lat="44.33483" lon="5.65147">
        <ele>987.1</ele>
        <time>2021-09-08T05:36:53Z</time>
      </trkpt>
      <trkpt lat="44.33483" lon="5.65145">
        <ele>987.1</ele>
        <time>2021-09-08T05:36:54Z</time>
      </trkpt>
      <trkpt lat="44.33482" lon="5.6514">
        <ele>987.1</ele>
        <time>2021-09-08T05:36:56Z</time>
      </trkpt>
      <trkpt lat="44.33482" lon="5.65139">
        <ele>987.1</ele>
        <time>2021-09-08T05:36:57Z</time>
      </trkpt>
      <trkpt lat="44.33481" lon="5.65138">
        <ele>987.1</ele>
        <time>2021-09-08T05:36:58Z</time>
      </trkpt>
      <trkpt lat="44.3348" lon="5.65137">
        <ele>987.1</ele>
        <time>2021-09-08T05:36:59Z</time>
      </trkpt>
      <trkpt lat="44.33477" lon="5.65133">
        <ele>987.1</ele>
        <time>2021-09-08T05:37:01Z</time>
      </trkpt>
      <trkpt lat="44.33475" lon="5.65131">
        <ele>987</ele>
        <time>2021-09-08T05:37:02Z</time>
      </trkpt>
      <trkpt lat="44.33475" lon="5.65131">
        <ele>987</ele>
        <time>2021-09-08T05:37:02Z</time>
      </trkpt>
      <trkpt lat="44.33471" lon="5.65128">
        <ele>986.9</ele>
        <time>2021-09-08T05:37:03Z</time>
      </trkpt>
      <trkpt lat="44.33467" lon="5.65125">
        <ele>986.8</ele>
        <time>2021-09-08T05:37:05Z</time>
      </trkpt>
      <trkpt lat="44.33461" lon="5.6512">
        <ele>986.5</ele>
        <time>2021-09-08T05:37:07Z</time>
      </trkpt>
      <trkpt lat="44.33456" lon="5.65114">
        <ele>986.2</ele>
        <time>2021-09-08T05:37:08Z</time>
      </trkpt>
      <trkpt lat="44.3345" lon="5.65109">
        <ele>985.6</ele>
        <time>2021-09-08T05:37:10Z</time>
      </trkpt>
      <trkpt lat="44.33444" lon="5.65105">
        <ele>984.9</ele>
        <time>2021-09-08T05:37:11Z</time>
      </trkpt>
      <trkpt lat="44.33439" lon="5.65103">
        <ele>984.2</ele>
        <time>2021-09-08T05:37:12Z</time>
      </trkpt>
      <trkpt lat="44.33433" lon="5.65102">
        <ele>983.5</ele>
        <time>2021-09-08T05:37:13Z</time>
      </trkpt>
      <trkpt lat="44.33419" lon="5.65112">
        <ele>981.6</ele>
        <time>2021-09-08T05:37:14Z</time>
      </trkpt>
      <trkpt lat="44.33405" lon="5.65119">
        <ele>979.8</ele>
        <time>2021-09-08T05:37:16Z</time>
      </trkpt>
      <trkpt lat="44.33398" lon="5.65121">
        <ele>978.9</ele>
        <time>2021-09-08T05:37:17Z</time>
      </trkpt>
      <trkpt lat="44.33383" lon="5.65128">
        <ele>977</ele>
        <time>2021-09-08T05:37:19Z</time>
      </trkpt>
      <trkpt lat="44.33376" lon="5.65129">
        <ele>976</ele>
        <time>2021-09-08T05:37:20Z</time>
      </trkpt>
      <trkpt lat="44.33361" lon="5.6513">
        <ele>973.9</ele>
        <time>2021-09-08T05:37:22Z</time>
      </trkpt>
      <trkpt lat="44.33353" lon="5.65131">
        <ele>972.7</ele>
        <time>2021-09-08T05:37:23Z</time>
      </trkpt>
      <trkpt lat="44.33346" lon="5.65133">
        <ele>971.5</ele>
        <time>2021-09-08T05:37:24Z</time>
      </trkpt>
      <trkpt lat="44.33338" lon="5.65135">
        <ele>970.3</ele>
        <time>2021-09-08T05:37:25Z</time>
      </trkpt>
      <trkpt lat="44.33324" lon="5.65138">
        <ele>967.9</ele>
        <time>2021-09-08T05:37:27Z</time>
      </trkpt>
      <trkpt lat="44.3331" lon="5.65142">
        <ele>965.9</ele>
        <time>2021-09-08T05:37:29Z</time>
      </trkpt>
      <trkpt lat="44.33298" lon="5.65146">
        <ele>964.2</ele>
        <time>2021-09-08T05:37:31Z</time>
      </trkpt>
      <trkpt lat="44.33292" lon="5.65149">
        <ele>963.2</ele>
        <time>2021-09-08T05:37:32Z</time>
      </trkpt>
      <trkpt lat="44.33286" lon="5.6515">
        <ele>962.3</ele>
        <time>2021-09-08T05:37:33Z</time>
      </trkpt>
      <trkpt lat="44.33275" lon="5.65156">
        <ele>960.2</ele>
        <time>2021-09-08T05:37:35Z</time>
      </trkpt>
      <trkpt lat="44.3327" lon="5.6516">
        <ele>959</ele>
        <time>2021-09-08T05:37:36Z</time>
      </trkpt>
      <trkpt lat="44.3326" lon="5.6517">
        <ele>957</ele>
        <time>2021-09-08T05:37:38Z</time>
      </trkpt>
      <trkpt lat="44.33253" lon="5.65175">
        <ele>955.7</ele>
        <time>2021-09-08T05:37:40Z</time>
      </trkpt>
      <trkpt lat="44.33246" lon="5.65177">
        <ele>954.5</ele>
        <time>2021-09-08T05:37:41Z</time>
      </trkpt>
      <trkpt lat="44.3324" lon="5.65179">
        <ele>953.5</ele>
        <time>2021-09-08T05:37:42Z</time>
      </trkpt>
      <trkpt lat="44.33236" lon="5.65188">
        <ele>952</ele>
        <time>2021-09-08T05:37:44Z</time>
      </trkpt>
      <trkpt lat="44.33231" lon="5.65203">
        <ele>949.4</ele>
        <time>2021-09-08T05:37:46Z</time>
      </trkpt>
      <trkpt lat="44.33232" lon="5.65198">
        <ele>948.5</ele>
        <time>2021-09-08T05:37:47Z</time>
      </trkpt>
      <trkpt lat="44.33229" lon="5.65201">
        <ele>947.7</ele>
        <time>2021-09-08T05:37:49Z</time>
      </trkpt>
      <trkpt lat="44.33226" lon="5.65206">
        <ele>947.2</ele>
        <time>2021-09-08T05:37:50Z</time>
      </trkpt>
      <trkpt lat="44.33225" lon="5.65211">
        <ele>946.5</ele>
        <time>2021-09-08T05:37:51Z</time>
      </trkpt>
      <trkpt lat="44.33225" lon="5.65218">
        <ele>945.7</ele>
        <time>2021-09-08T05:37:53Z</time>
      </trkpt>
      <trkpt lat="44.33225" lon="5.65223">
        <ele>945.1</ele>
        <time>2021-09-08T05:37:54Z</time>
      </trkpt>
      <trkpt lat="44.33226" lon="5.65227">
        <ele>944.6</ele>
        <time>2021-09-08T05:37:55Z</time>
      </trkpt>
      <trkpt lat="44.33226" lon="5.6523">
        <ele>944.3</ele>
        <time>2021-09-08T05:37:57Z</time>
      </trkpt>
      <trkpt lat="44.33226" lon="5.65231">
        <ele>944.2</ele>
        <time>2021-09-08T05:37:58Z</time>
      </trkpt>
      <trkpt lat="44.33226" lon="5.65235">
        <ele>943.8</ele>
        <time>2021-09-08T05:37:59Z</time>
      </trkpt>
      <trkpt lat="44.33225" lon="5.65237">
        <ele>943.6</ele>
        <time>2021-09-08T05:38:00Z</time>
      </trkpt>
      <trkpt lat="44.33223" lon="5.6524">
        <ele>943.3</ele>
        <time>2021-09-08T05:38:01Z</time>
      </trkpt>
      <trkpt lat="44.33221" lon="5.65246">
        <ele>942.7</ele>
        <time>2021-09-08T05:38:03Z</time>
      </trkpt>
      <trkpt lat="44.33219" lon="5.65268">
        <ele>941.2</ele>
        <time>2021-09-08T05:38:04Z</time>
      </trkpt>
      <trkpt lat="44.33219" lon="5.65278">
        <ele>940.6</ele>
        <time>2021-09-08T05:38:05Z</time>
      </trkpt>
      <trkpt lat="44.33219" lon="5.65287">
        <ele>940.1</ele>
        <time>2021-09-08T05:38:06Z</time>
      </trkpt>
      <trkpt lat="44.33219" lon="5.65296">
        <ele>939.5</ele>
        <time>2021-09-08T05:38:08Z</time>
      </trkpt>
      <trkpt lat="44.33216" lon="5.65297">
        <ele>939.1</ele>
        <time>2021-09-08T05:38:09Z</time>
      </trkpt>
      <trkpt lat="44.33213" lon="5.653">
        <ele>938.7</ele>
        <time>2021-09-08T05:38:10Z</time>
      </trkpt>
      <trkpt lat="44.3321" lon="5.65306">
        <ele>938.1</ele>
        <time>2021-09-08T05:38:12Z</time>
      </trkpt>
      <trkpt lat="44.33207" lon="5.6531">
        <ele>937.6</ele>
        <time>2021-09-08T05:38:13Z</time>
      </trkpt>
      <trkpt lat="44.33197" lon="5.65327">
        <ele>935.9</ele>
        <time>2021-09-08T05:38:15Z</time>
      </trkpt>
      <trkpt lat="44.33188" lon="5.6534">
        <ele>934.7</ele>
        <time>2021-09-08T05:38:16Z</time>
      </trkpt>
      <trkpt lat="44.3318" lon="5.65354">
        <ele>933.5</ele>
        <time>2021-09-08T05:38:18Z</time>
      </trkpt>
      <trkpt lat="44.33173" lon="5.65366">
        <ele>932</ele>
        <time>2021-09-08T05:38:20Z</time>
      </trkpt>
      <trkpt lat="44.33172" lon="5.65365">
        <ele>931.9</ele>
        <time>2021-09-08T05:38:21Z</time>
      </trkpt>
      <trkpt lat="44.3317" lon="5.65366">
        <ele>931.5</ele>
        <time>2021-09-08T05:38:22Z</time>
      </trkpt>
      <trkpt lat="44.33165" lon="5.65366">
        <ele>930.6</ele>
        <time>2021-09-08T05:38:24Z</time>
      </trkpt>
      <trkpt lat="44.33162" lon="5.65365">
        <ele>930</ele>
        <time>2021-09-08T05:38:25Z</time>
      </trkpt>
      <trkpt lat="44.33159" lon="5.65366">
        <ele>929.4</ele>
        <time>2021-09-08T05:38:27Z</time>
      </trkpt>
      <trkpt lat="44.33158" lon="5.65366">
        <ele>929.3</ele>
        <time>2021-09-08T05:38:28Z</time>
      </trkpt>
      <trkpt lat="44.33154" lon="5.65365">
        <ele>928.7</ele>
        <time>2021-09-08T05:38:30Z</time>
      </trkpt>
      <trkpt lat="44.33154" lon="5.65364">
        <ele>928.5</ele>
        <time>2021-09-08T05:38:31Z</time>
      </trkpt>
      <trkpt lat="44.33153" lon="5.65362">
        <ele>928.3</ele>
        <time>2021-09-08T05:38:32Z</time>
      </trkpt>
      <trkpt lat="44.33172" lon="5.65268">
        <ele>925.4</ele>
        <time>2021-09-08T05:38:59Z</time>
      </trkpt>
      <trkpt lat="44.33168" lon="5.65258">
        <ele>925.4</ele>
        <time>2021-09-08T05:39:01Z</time>
      </trkpt>
      <trkpt lat="44.33155" lon="5.65241">
        <ele>925.2</ele>
        <time>2021-09-08T05:39:02Z</time>
      </trkpt>
      <trkpt lat="44.3315" lon="5.65233">
        <ele>925.1</ele>
        <time>2021-09-08T05:39:03Z</time>
      </trkpt>
      <trkpt lat="44.33147" lon="5.65226">
        <ele>924.9</ele>
        <time>2021-09-08T05:39:04Z</time>
      </trkpt>
      <trkpt lat="44.33145" lon="5.65219">
        <ele>924.7</ele>
        <time>2021-09-08T05:39:05Z</time>
      </trkpt>
      <trkpt lat="44.33143" lon="5.65213">
        <ele>924.5</ele>
        <time>2021-09-08T05:39:06Z</time>
      </trkpt>
      <trkpt lat="44.3314" lon="5.65197">
        <ele>923.9</ele>
        <time>2021-09-08T05:39:08Z</time>
      </trkpt>
      <trkpt lat="44.33139" lon="5.65191">
        <ele>923.6</ele>
        <time>2021-09-08T05:39:09Z</time>
      </trkpt>
      <trkpt lat="44.3314" lon="5.65185">
        <ele>923.3</ele>
        <time>2021-09-08T05:39:10Z</time>
      </trkpt>
      <trkpt lat="44.33139" lon="5.65175">
        <ele>922.8</ele>
        <time>2021-09-08T05:39:12Z</time>
      </trkpt>
      <trkpt lat="44.3314" lon="5.65171">
        <ele>922.6</ele>
        <time>2021-09-08T05:39:13Z</time>
      </trkpt>
      <trkpt lat="44.33142" lon="5.65169">
        <ele>922.4</ele>
        <time>2021-09-08T05:39:14Z</time>
      </trkpt>
      <trkpt lat="44.33143" lon="5.65167">
        <ele>922.3</ele>
        <time>2021-09-08T05:39:15Z</time>
      </trkpt>
      <trkpt lat="44.33144" lon="5.65163">
        <ele>922</ele>
        <time>2021-09-08T05:39:16Z</time>
      </trkpt>
      <trkpt lat="44.33144" lon="5.65158">
        <ele>921.7</ele>
        <time>2021-09-08T05:39:18Z</time>
      </trkpt>
      <trkpt lat="44.33145" lon="5.65153">
        <ele>921.4</ele>
        <time>2021-09-08T05:39:19Z</time>
      </trkpt>
      <trkpt lat="44.33146" lon="5.65149">
        <ele>921.2</ele>
        <time>2021-09-08T05:39:20Z</time>
      </trkpt>
      <trkpt lat="44.33146" lon="5.65145">
        <ele>921</ele>
        <time>2021-09-08T05:39:21Z</time>
      </trkpt>
      <trkpt lat="44.33146" lon="5.6514">
        <ele>920.7</ele>
        <time>2021-09-08T05:39:23Z</time>
      </trkpt>
      <trkpt lat="44.33149" lon="5.65135">
        <ele>920.2</ele>
        <time>2021-09-08T05:39:25Z</time>
      </trkpt>
      <trkpt lat="44.3315" lon="5.65134">
        <ele>920.1</ele>
        <time>2021-09-08T05:39:26Z</time>
      </trkpt>
      <trkpt lat="44.33149" lon="5.65133">
        <ele>920</ele>
        <time>2021-09-08T05:39:28Z</time>
      </trkpt>
      <trkpt lat="44.33147" lon="5.65134">
        <ele>919.8</ele>
        <time>2021-09-08T05:39:29Z</time>
      </trkpt>
      <trkpt lat="44.33144" lon="5.65135">
        <ele>919.3</ele>
        <time>2021-09-08T05:39:31Z</time>
      </trkpt>
      <trkpt lat="44.33142" lon="5.65136">
        <ele>919.1</ele>
        <time>2021-09-08T05:39:32Z</time>
      </trkpt>
      <trkpt lat="44.33141" lon="5.65137">
        <ele>919</ele>
        <time>2021-09-08T05:39:34Z</time>
      </trkpt>
      <trkpt lat="44.33118" lon="5.65142">
        <ele>916</ele>
        <time>2021-09-08T05:39:37Z</time>
      </trkpt>
      <trkpt lat="44.33114" lon="5.65144">
        <ele>915.6</ele>
        <time>2021-09-08T05:39:38Z</time>
      </trkpt>
      <trkpt lat="44.33109" lon="5.65144">
        <ele>915</ele>
        <time>2021-09-08T05:39:40Z</time>
      </trkpt>
      <trkpt lat="44.33107" lon="5.65143">
        <ele>914.8</ele>
        <time>2021-09-08T05:39:41Z</time>
      </trkpt>
      <trkpt lat="44.33101" lon="5.6514">
        <ele>914.3</ele>
        <time>2021-09-08T05:39:43Z</time>
      </trkpt>
      <trkpt lat="44.33101" lon="5.65139">
        <ele>914.2</ele>
        <time>2021-09-08T05:39:44Z</time>
      </trkpt>
      <trkpt lat="44.33103" lon="5.65139">
        <ele>914.1</ele>
        <time>2021-09-08T05:39:46Z</time>
      </trkpt>
      <trkpt lat="44.33103" lon="5.65139">
        <ele>914</ele>
        <time>2021-09-08T05:39:47Z</time>
      </trkpt>
      <trkpt lat="44.33098" lon="5.65141">
        <ele>913.7</ele>
        <time>2021-09-08T05:39:49Z</time>
      </trkpt>
      <trkpt lat="44.33093" lon="5.65144">
        <ele>913.3</ele>
        <time>2021-09-08T05:39:50Z</time>
      </trkpt>
      <trkpt lat="44.33088" lon="5.65146">
        <ele>913</ele>
        <time>2021-09-08T05:39:51Z</time>
      </trkpt>
      <trkpt lat="44.33083" lon="5.65149">
        <ele>912.6</ele>
        <time>2021-09-08T05:39:53Z</time>
      </trkpt>
      <trkpt lat="44.33078" lon="5.65152">
        <ele>912.1</ele>
        <time>2021-09-08T05:40:35Z</time>
      </trkpt>
      <trkpt lat="44.33073" lon="5.65154">
        <ele>911.6</ele>
        <time>2021-09-08T05:40:36Z</time>
      </trkpt>
      <trkpt lat="44.3307" lon="5.65157">
        <ele>911.3</ele>
        <time>2021-09-08T05:40:37Z</time>
      </trkpt>
      <trkpt lat="44.33065" lon="5.65159">
        <ele>910.9</ele>
        <time>2021-09-08T05:40:39Z</time>
      </trkpt>
      <trkpt lat="44.33061" lon="5.65161">
        <ele>910.6</ele>
        <time>2021-09-08T05:40:40Z</time>
      </trkpt>
      <trkpt lat="44.33058" lon="5.65162">
        <ele>910.3</ele>
        <time>2021-09-08T05:40:41Z</time>
      </trkpt>
      <trkpt lat="44.33054" lon="5.65163">
        <ele>909.9</ele>
        <time>2021-09-08T05:40:42Z</time>
      </trkpt>
      <trkpt lat="44.33059" lon="5.65173">
        <ele>909.2</ele>
        <time>2021-09-08T05:40:44Z</time>
      </trkpt>
      <trkpt lat="44.33065" lon="5.65184">
        <ele>908.5</ele>
        <time>2021-09-08T05:40:45Z</time>
      </trkpt>
      <trkpt lat="44.33066" lon="5.65188">
        <ele>908.3</ele>
        <time>2021-09-08T05:40:47Z</time>
      </trkpt>
      <trkpt lat="44.33065" lon="5.65188">
        <ele>908.3</ele>
        <time>2021-09-08T05:40:48Z</time>
      </trkpt>
      <trkpt lat="44.33064" lon="5.65189">
        <ele>908.2</ele>
        <time>2021-09-08T05:40:49Z</time>
      </trkpt>
      <trkpt lat="44.33063" lon="5.65189">
        <ele>908.1</ele>
        <time>2021-09-08T05:40:51Z</time>
      </trkpt>
      <trkpt lat="44.33062" lon="5.65189">
        <ele>908.1</ele>
        <time>2021-09-08T05:40:52Z</time>
      </trkpt>
      <trkpt lat="44.33056" lon="5.65187">
        <ele>907.8</ele>
        <time>2021-09-08T05:40:56Z</time>
      </trkpt>
      <trkpt lat="44.33052" lon="5.65184">
        <ele>907.7</ele>
        <time>2021-09-08T05:40:57Z</time>
      </trkpt>
      <trkpt lat="44.33047" lon="5.65182">
        <ele>907.5</ele>
        <time>2021-09-08T05:40:58Z</time>
      </trkpt>
      <trkpt lat="44.33042" lon="5.65179">
        <ele>907.4</ele>
        <time>2021-09-08T05:40:59Z</time>
      </trkpt>
      <trkpt lat="44.33036" lon="5.65175">
        <ele>907.2</ele>
        <time>2021-09-08T05:41:00Z</time>
      </trkpt>
      <trkpt lat="44.33009" lon="5.65146">
        <ele>906.9</ele>
        <time>2021-09-08T05:41:02Z</time>
      </trkpt>
      <trkpt lat="44.33" lon="5.65135">
        <ele>907</ele>
        <time>2021-09-08T05:41:03Z</time>
      </trkpt>
      <trkpt lat="44.32993" lon="5.65126">
        <ele>907.2</ele>
        <time>2021-09-08T05:41:05Z</time>
      </trkpt>
      <trkpt lat="44.32988" lon="5.6512">
        <ele>907.4</ele>
        <time>2021-09-08T05:41:06Z</time>
      </trkpt>
      <trkpt lat="44.32983" lon="5.65115">
        <ele>907.6</ele>
        <time>2021-09-08T05:41:07Z</time>
      </trkpt>
      <trkpt lat="44.3297" lon="5.65105">
        <ele>908</ele>
        <time>2021-09-08T05:41:09Z</time>
      </trkpt>
      <trkpt lat="44.32975" lon="5.65111">
        <ele>908.2</ele>
        <time>2021-09-08T05:41:11Z</time>
      </trkpt>
      <trkpt lat="44.32971" lon="5.65107">
        <ele>908.3</ele>
        <time>2021-09-08T05:41:12Z</time>
      </trkpt>
      <trkpt lat="44.32964" lon="5.65103">
        <ele>908.4</ele>
        <time>2021-09-08T05:41:13Z</time>
      </trkpt>
      <trkpt lat="44.32961" lon="5.65101">
        <ele>908.4</ele>
        <time>2021-09-08T05:41:14Z</time>
      </trkpt>
      <trkpt lat="44.32957" lon="5.65099">
        <ele>908.3</ele>
        <time>2021-09-08T05:41:15Z</time>
      </trkpt>
      <trkpt lat="44.32952" lon="5.65101">
        <ele>908.2</ele>
        <time>2021-09-08T05:41:17Z</time>
      </trkpt>
      <trkpt lat="44.3295" lon="5.65104">
        <ele>908.1</ele>
        <time>2021-09-08T05:41:19Z</time>
      </trkpt>
      <trkpt lat="44.32939" lon="5.65114">
        <ele>907.4</ele>
        <time>2021-09-08T05:41:26Z</time>
      </trkpt>
      <trkpt lat="44.32937" lon="5.65118">
        <ele>907.2</ele>
        <time>2021-09-08T05:41:27Z</time>
      </trkpt>
      <trkpt lat="44.32934" lon="5.65125">
        <ele>906.8</ele>
        <time>2021-09-08T05:41:29Z</time>
      </trkpt>
      <trkpt lat="44.32933" lon="5.6513">
        <ele>906.5</ele>
        <time>2021-09-08T05:41:30Z</time>
      </trkpt>
      <trkpt lat="44.32932" lon="5.65135">
        <ele>906.2</ele>
        <time>2021-09-08T05:41:31Z</time>
      </trkpt>
      <trkpt lat="44.32931" lon="5.65144">
        <ele>905.7</ele>
        <time>2021-09-08T05:41:33Z</time>
      </trkpt>
      <trkpt lat="44.32932" lon="5.65148">
        <ele>905.6</ele>
        <time>2021-09-08T05:41:34Z</time>
      </trkpt>
      <trkpt lat="44.32932" lon="5.65149">
        <ele>905.5</ele>
        <time>2021-09-08T05:41:35Z</time>
      </trkpt>
      <trkpt lat="44.32931" lon="5.65155">
        <ele>905.3</ele>
        <time>2021-09-08T05:41:36Z</time>
      </trkpt>
      <trkpt lat="44.32927" lon="5.65162">
        <ele>904.9</ele>
        <time>2021-09-08T05:41:38Z</time>
      </trkpt>
      <trkpt lat="44.32925" lon="5.6517">
        <ele>904.7</ele>
        <time>2021-09-08T05:41:39Z</time>
      </trkpt>
      <trkpt lat="44.32924" lon="5.65176">
        <ele>904.5</ele>
        <time>2021-09-08T05:41:40Z</time>
      </trkpt>
      <trkpt lat="44.32922" lon="5.6518">
        <ele>904.4</ele>
        <time>2021-09-08T05:41:41Z</time>
      </trkpt>
      <trkpt lat="44.32922" lon="5.65182">
        <ele>904.4</ele>
        <time>2021-09-08T05:41:42Z</time>
      </trkpt>
      <trkpt lat="44.32919" lon="5.65186">
        <ele>904.3</ele>
        <time>2021-09-08T05:41:44Z</time>
      </trkpt>
      <trkpt lat="44.32918" lon="5.65186">
        <ele>904.3</ele>
        <time>2021-09-08T05:41:46Z</time>
      </trkpt>
      <trkpt lat="44.32918" lon="5.65186">
        <ele>904.3</ele>
        <time>2021-09-08T05:41:47Z</time>
      </trkpt>
      <trkpt lat="44.32917" lon="5.65187">
        <ele>904.3</ele>
        <time>2021-09-08T05:41:48Z</time>
      </trkpt>
      <trkpt lat="44.32917" lon="5.65188">
        <ele>904.3</ele>
        <time>2021-09-08T05:41:50Z</time>
      </trkpt>
      <trkpt lat="44.32917" lon="5.6519">
        <ele>904.2</ele>
        <time>2021-09-08T05:41:52Z</time>
      </trkpt>
      <trkpt lat="44.32917" lon="5.652">
        <ele>904.1</ele>
        <time>2021-09-08T05:41:55Z</time>
      </trkpt>
      <trkpt lat="44.32916" lon="5.65206">
        <ele>904</ele>
        <time>2021-09-08T05:41:56Z</time>
      </trkpt>
      <trkpt lat="44.32912" lon="5.65214">
        <ele>903.8</ele>
        <time>2021-09-08T05:41:58Z</time>
      </trkpt>
      <trkpt lat="44.32908" lon="5.65219">
        <ele>903.6</ele>
        <time>2021-09-08T05:41:59Z</time>
      </trkpt>
      <trkpt lat="44.32902" lon="5.65224">
        <ele>903.3</ele>
        <time>2021-09-08T05:42:01Z</time>
      </trkpt>
      <trkpt lat="44.32897" lon="5.65227">
        <ele>903.1</ele>
        <time>2021-09-08T05:42:02Z</time>
      </trkpt>
      <trkpt lat="44.32894" lon="5.65229">
        <ele>902.9</ele>
        <time>2021-09-08T05:42:03Z</time>
      </trkpt>
      <trkpt lat="44.32887" lon="5.65234">
        <ele>902.4</ele>
        <time>2021-09-08T05:42:05Z</time>
      </trkpt>
      <trkpt lat="44.32883" lon="5.65238">
        <ele>902.2</ele>
        <time>2021-09-08T05:42:06Z</time>
      </trkpt>
      <trkpt lat="44.32877" lon="5.65243">
        <ele>901.8</ele>
        <time>2021-09-08T05:42:07Z</time>
      </trkpt>
      <trkpt lat="44.32872" lon="5.65245">
        <ele>901.5</ele>
        <time>2021-09-08T05:42:09Z</time>
      </trkpt>
      <trkpt lat="44.32871" lon="5.65246">
        <ele>901.4</ele>
        <time>2021-09-08T05:42:10Z</time>
      </trkpt>
      <trkpt lat="44.32871" lon="5.65249">
        <ele>901.3</ele>
        <time>2021-09-08T05:42:12Z</time>
      </trkpt>
      <trkpt lat="44.3287" lon="5.65256">
        <ele>901</ele>
        <time>2021-09-08T05:42:14Z</time>
      </trkpt>
      <trkpt lat="44.32869" lon="5.6526">
        <ele>900.9</ele>
        <time>2021-09-08T05:42:15Z</time>
      </trkpt>
      <trkpt lat="44.32865" lon="5.65263">
        <ele>900.7</ele>
        <time>2021-09-08T05:42:17Z</time>
      </trkpt>
      <trkpt lat="44.32863" lon="5.65264">
        <ele>900.6</ele>
        <time>2021-09-08T05:42:18Z</time>
      </trkpt>
      <trkpt lat="44.32859" lon="5.6527">
        <ele>900.3</ele>
        <time>2021-09-08T05:42:19Z</time>
      </trkpt>
      <trkpt lat="44.32855" lon="5.65279">
        <ele>900.1</ele>
        <time>2021-09-08T05:42:21Z</time>
      </trkpt>
      <trkpt lat="44.32852" lon="5.65284">
        <ele>899.9</ele>
        <time>2021-09-08T05:42:22Z</time>
      </trkpt>
      <trkpt lat="44.32849" lon="5.65292">
        <ele>899.7</ele>
        <time>2021-09-08T05:42:24Z</time>
      </trkpt>
      <trkpt lat="44.32845" lon="5.65299">
        <ele>899.4</ele>
        <time>2021-09-08T05:42:25Z</time>
      </trkpt>
      <trkpt lat="44.3284" lon="5.65311">
        <ele>897.6</ele>
        <time>2021-09-08T05:42:26Z</time>
      </trkpt>
      <trkpt lat="44.32834" lon="5.65328">
        <ele>894.8</ele>
        <time>2021-09-08T05:42:28Z</time>
      </trkpt>
      <trkpt lat="44.32829" lon="5.65337">
        <ele>893.3</ele>
        <time>2021-09-08T05:42:29Z</time>
      </trkpt>
      <trkpt lat="44.32824" lon="5.65346">
        <ele>891.8</ele>
        <time>2021-09-08T05:42:30Z</time>
      </trkpt>
      <trkpt lat="44.32816" lon="5.65365">
        <ele>888.7</ele>
        <time>2021-09-08T05:42:32Z</time>
      </trkpt>
      <trkpt lat="44.32807" lon="5.65387">
        <ele>885.5</ele>
        <time>2021-09-08T05:42:34Z</time>
      </trkpt>
      <trkpt lat="44.32799" lon="5.6541">
        <ele>882.1</ele>
        <time>2021-09-08T05:42:36Z</time>
      </trkpt>
      <trkpt lat="44.32793" lon="5.65433">
        <ele>878.7</ele>
        <time>2021-09-08T05:42:38Z</time>
      </trkpt>
      <trkpt lat="44.32793" lon="5.65443">
        <ele>877.2</ele>
        <time>2021-09-08T05:42:39Z</time>
      </trkpt>
      <trkpt lat="44.32791" lon="5.65452">
        <ele>875.9</ele>
        <time>2021-09-08T05:42:41Z</time>
      </trkpt>
      <trkpt lat="44.32789" lon="5.65459">
        <ele>874.8</ele>
        <time>2021-09-08T05:42:43Z</time>
      </trkpt>
      <trkpt lat="44.32787" lon="5.65468">
        <ele>873.5</ele>
        <time>2021-09-08T05:42:45Z</time>
      </trkpt>
      <trkpt lat="44.32785" lon="5.65474">
        <ele>872.7</ele>
        <time>2021-09-08T05:42:47Z</time>
      </trkpt>
      <trkpt lat="44.32784" lon="5.65477">
        <ele>872.3</ele>
        <time>2021-09-08T05:42:48Z</time>
      </trkpt>
      <trkpt lat="44.32781" lon="5.65483">
        <ele>871.4</ele>
        <time>2021-09-08T05:42:50Z</time>
      </trkpt>
      <trkpt lat="44.3277" lon="5.65498">
        <ele>869.3</ele>
        <time>2021-09-08T05:42:55Z</time>
      </trkpt>
      <trkpt lat="44.32767" lon="5.65502">
        <ele>868.9</ele>
        <time>2021-09-08T05:42:56Z</time>
      </trkpt>
      <trkpt lat="44.32764" lon="5.65504">
        <ele>868.9</ele>
        <time>2021-09-08T05:42:57Z</time>
      </trkpt>
      <trkpt lat="44.3276" lon="5.65506">
        <ele>868.9</ele>
        <time>2021-09-08T05:42:58Z</time>
      </trkpt>
      <trkpt lat="44.32758" lon="5.65508">
        <ele>868.9</ele>
        <time>2021-09-08T05:42:59Z</time>
      </trkpt>
      <trkpt lat="44.32755" lon="5.65511">
        <ele>868.9</ele>
        <time>2021-09-08T05:43:00Z</time>
      </trkpt>
      <trkpt lat="44.32753" lon="5.65515">
        <ele>868.9</ele>
        <time>2021-09-08T05:43:01Z</time>
      </trkpt>
      <trkpt lat="44.3275" lon="5.65518">
        <ele>868.9</ele>
        <time>2021-09-08T05:43:03Z</time>
      </trkpt>
      <trkpt lat="44.32747" lon="5.65521">
        <ele>869</ele>
        <time>2021-09-08T05:43:04Z</time>
      </trkpt>
      <trkpt lat="44.32745" lon="5.65525">
        <ele>869</ele>
        <time>2021-09-08T05:43:05Z</time>
      </trkpt>
      <trkpt lat="44.32742" lon="5.65528">
        <ele>869.1</ele>
        <time>2021-09-08T05:43:06Z</time>
      </trkpt>
      <trkpt lat="44.3274" lon="5.65531">
        <ele>869.1</ele>
        <time>2021-09-08T05:43:07Z</time>
      </trkpt>
      <trkpt lat="44.32738" lon="5.65534">
        <ele>869.1</ele>
        <time>2021-09-08T05:43:08Z</time>
      </trkpt>
      <trkpt lat="44.32737" lon="5.65536">
        <ele>869.2</ele>
        <time>2021-09-08T05:43:09Z</time>
      </trkpt>
      <trkpt lat="44.32734" lon="5.65539">
        <ele>869.2</ele>
        <time>2021-09-08T05:43:11Z</time>
      </trkpt>
      <trkpt lat="44.32731" lon="5.6554">
        <ele>869.2</ele>
        <time>2021-09-08T05:43:12Z</time>
      </trkpt>
      <trkpt lat="44.32729" lon="5.65539">
        <ele>869.2</ele>
        <time>2021-09-08T05:43:14Z</time>
      </trkpt>
      <trkpt lat="44.32726" lon="5.65539">
        <ele>869.2</ele>
        <time>2021-09-08T05:43:15Z</time>
      </trkpt>
      <trkpt lat="44.32724" lon="5.6554">
        <ele>869.2</ele>
        <time>2021-09-08T05:43:17Z</time>
      </trkpt>
      <trkpt lat="44.32719" lon="5.65539">
        <ele>869.2</ele>
        <time>2021-09-08T05:43:19Z</time>
      </trkpt>
      <trkpt lat="44.32718" lon="5.6554">
        <ele>869.1</ele>
        <time>2021-09-08T05:43:20Z</time>
      </trkpt>
      <trkpt lat="44.32716" lon="5.6554">
        <ele>869.1</ele>
        <time>2021-09-08T05:43:21Z</time>
      </trkpt>
      <trkpt lat="44.32712" lon="5.65541">
        <ele>869</ele>
        <time>2021-09-08T05:43:22Z</time>
      </trkpt>
      <trkpt lat="44.32707" lon="5.65542">
        <ele>868.8</ele>
        <time>2021-09-08T05:43:24Z</time>
      </trkpt>
      <trkpt lat="44.32702" lon="5.65539">
        <ele>868.7</ele>
        <time>2021-09-08T05:43:26Z</time>
      </trkpt>
      <trkpt lat="44.32699" lon="5.65537">
        <ele>868.6</ele>
        <time>2021-09-08T05:43:27Z</time>
      </trkpt>
      <trkpt lat="44.32695" lon="5.65536">
        <ele>868.4</ele>
        <time>2021-09-08T05:43:28Z</time>
      </trkpt>
      <trkpt lat="44.32689" lon="5.65534">
        <ele>868.2</ele>
        <time>2021-09-08T05:43:29Z</time>
      </trkpt>
      <trkpt lat="44.32687" lon="5.65533">
        <ele>868.1</ele>
        <time>2021-09-08T05:43:30Z</time>
      </trkpt>
      <trkpt lat="44.32683" lon="5.65532">
        <ele>867.8</ele>
        <time>2021-09-08T05:43:31Z</time>
      </trkpt>
      <trkpt lat="44.3268" lon="5.65532">
        <ele>867.5</ele>
        <time>2021-09-08T05:43:33Z</time>
      </trkpt>
      <trkpt lat="44.32679" lon="5.65532">
        <ele>867.4</ele>
        <time>2021-09-08T05:43:34Z</time>
      </trkpt>
      <trkpt lat="44.32677" lon="5.65531">
        <ele>867.1</ele>
        <time>2021-09-08T05:43:35Z</time>
      </trkpt>
      <trkpt lat="44.32676" lon="5.65531">
        <ele>867</ele>
        <time>2021-09-08T05:43:36Z</time>
      </trkpt>
      <trkpt lat="44.32675" lon="5.6553">
        <ele>866.9</ele>
        <time>2021-09-08T05:43:37Z</time>
      </trkpt>
      <trkpt lat="44.32673" lon="5.65527">
        <ele>866.7</ele>
        <time>2021-09-08T05:43:39Z</time>
      </trkpt>
      <trkpt lat="44.32673" lon="5.65526">
        <ele>866.6</ele>
        <time>2021-09-08T05:43:40Z</time>
      </trkpt>
      <trkpt lat="44.32674" lon="5.65525">
        <ele>866.5</ele>
        <time>2021-09-08T05:43:41Z</time>
      </trkpt>
      <trkpt lat="44.32674" lon="5.65524">
        <ele>866.4</ele>
        <time>2021-09-08T05:43:42Z</time>
      </trkpt>
      <trkpt lat="44.32674" lon="5.65523">
        <ele>866.4</ele>
        <time>2021-09-08T05:43:43Z</time>
      </trkpt>
      <trkpt lat="44.32674" lon="5.65522">
        <ele>866.3</ele>
        <time>2021-09-08T05:43:45Z</time>
      </trkpt>
      <trkpt lat="44.32674" lon="5.65522">
        <ele>866.3</ele>
        <time>2021-09-08T05:43:46Z</time>
      </trkpt>
      <trkpt lat="44.32674" lon="5.65521">
        <ele>866.3</ele>
        <time>2021-09-08T05:43:48Z</time>
      </trkpt>
      <trkpt lat="44.32644" lon="5.65515">
        <ele>865.1</ele>
        <time>2021-09-08T05:44:27Z</time>
      </trkpt>
      <trkpt lat="44.32641" lon="5.65516">
        <ele>865.2</ele>
        <time>2021-09-08T05:44:28Z</time>
      </trkpt>
      <trkpt lat="44.32637" lon="5.65518">
        <ele>865.4</ele>
        <time>2021-09-08T05:44:30Z</time>
      </trkpt>
      <trkpt lat="44.32633" lon="5.65519">
        <ele>865.5</ele>
        <time>2021-09-08T05:44:31Z</time>
      </trkpt>
      <trkpt lat="44.3263" lon="5.65523">
        <ele>865.7</ele>
        <time>2021-09-08T05:44:32Z</time>
      </trkpt>
      <trkpt lat="44.32628" lon="5.65523">
        <ele>865.9</ele>
        <time>2021-09-08T05:44:33Z</time>
      </trkpt>
      <trkpt lat="44.32628" lon="5.65524">
        <ele>866</ele>
        <time>2021-09-08T05:44:35Z</time>
      </trkpt>
      <trkpt lat="44.32627" lon="5.65524">
        <ele>866</ele>
        <time>2021-09-08T05:44:36Z</time>
      </trkpt>
      <trkpt lat="44.32627" lon="5.65524">
        <ele>866</ele>
        <time>2021-09-08T05:44:37Z</time>
      </trkpt>
      <trkpt lat="44.32627" lon="5.65524">
        <ele>866.1</ele>
        <time>2021-09-08T05:44:39Z</time>
      </trkpt>
      <trkpt lat="44.32627" lon="5.65524">
        <ele>866.1</ele>
        <time>2021-09-08T05:44:40Z</time>
      </trkpt>
      <trkpt lat="44.32627" lon="5.65524">
        <ele>866.1</ele>
        <time>2021-09-08T05:44:42Z</time>
      </trkpt>
      <trkpt lat="44.32685" lon="5.65511">
        <ele>866.8</ele>
        <time>2021-09-08T05:45:49Z</time>
      </trkpt>
      <trkpt lat="44.32699" lon="5.65502">
        <ele>867.3</ele>
        <time>2021-09-08T05:45:51Z</time>
      </trkpt>
      <trkpt lat="44.32706" lon="5.65496">
        <ele>867.5</ele>
        <time>2021-09-08T05:45:53Z</time>
      </trkpt>
      <trkpt lat="44.3271" lon="5.65495">
        <ele>867.6</ele>
        <time>2021-09-08T05:45:54Z</time>
      </trkpt>
      <trkpt lat="44.3271" lon="5.65496">
        <ele>867.7</ele>
        <time>2021-09-08T05:45:55Z</time>
      </trkpt>
      <trkpt lat="44.32698" lon="5.65498">
        <ele>867</ele>
        <time>2021-09-08T05:45:57Z</time>
      </trkpt>
      <trkpt lat="44.32683" lon="5.65496">
        <ele>866.1</ele>
        <time>2021-09-08T05:45:59Z</time>
      </trkpt>
      <trkpt lat="44.32679" lon="5.65496">
        <ele>865.9</ele>
        <time>2021-09-08T05:46:01Z</time>
      </trkpt>
      <trkpt lat="44.3267" lon="5.65503">
        <ele>865.4</ele>
        <time>2021-09-08T05:46:03Z</time>
      </trkpt>
      <trkpt lat="44.32662" lon="5.65508">
        <ele>864.8</ele>
        <time>2021-09-08T05:46:04Z</time>
      </trkpt>
      <trkpt lat="44.32659" lon="5.65511">
        <ele>864.9</ele>
        <time>2021-09-08T05:46:06Z</time>
      </trkpt>
      <trkpt lat="44.32659" lon="5.65512">
        <ele>864.9</ele>
        <time>2021-09-08T05:46:07Z</time>
      </trkpt>
      <trkpt lat="44.32658" lon="5.65515">
        <ele>864.9</ele>
        <time>2021-09-08T05:46:09Z</time>
      </trkpt>
      <trkpt lat="44.32618" lon="5.65546">
        <ele>866.8</ele>
        <time>2021-09-08T05:47:58Z</time>
      </trkpt>
      <trkpt lat="44.32617" lon="5.6555">
        <ele>867</ele>
        <time>2021-09-08T05:47:59Z</time>
      </trkpt>
      <trkpt lat="44.32613" lon="5.65556">
        <ele>867.3</ele>
        <time>2021-09-08T05:48:01Z</time>
      </trkpt>
      <trkpt lat="44.32608" lon="5.65563">
        <ele>867.5</ele>
        <time>2021-09-08T05:48:02Z</time>
      </trkpt>
      <trkpt lat="44.32605" lon="5.65568">
        <ele>867.7</ele>
        <time>2021-09-08T05:48:04Z</time>
      </trkpt>
      <trkpt lat="44.32603" lon="5.65572">
        <ele>867.7</ele>
        <time>2021-09-08T05:48:05Z</time>
      </trkpt>
      <trkpt lat="44.32599" lon="5.65579">
        <ele>867.7</ele>
        <time>2021-09-08T05:48:06Z</time>
      </trkpt>
      <trkpt lat="44.32593" lon="5.65584">
        <ele>867.5</ele>
        <time>2021-09-08T05:48:08Z</time>
      </trkpt>
      <trkpt lat="44.32586" lon="5.65587">
        <ele>867.1</ele>
        <time>2021-09-08T05:48:09Z</time>
      </trkpt>
      <trkpt lat="44.32581" lon="5.65591">
        <ele>866.6</ele>
        <time>2021-09-08T05:48:11Z</time>
      </trkpt>
      <trkpt lat="44.32577" lon="5.65595">
        <ele>866.2</ele>
        <time>2021-09-08T05:48:12Z</time>
      </trkpt>
      <trkpt lat="44.32574" lon="5.65599">
        <ele>865.9</ele>
        <time>2021-09-08T05:48:13Z</time>
      </trkpt>
      <trkpt lat="44.32571" lon="5.65602">
        <ele>865.6</ele>
        <time>2021-09-08T05:48:15Z</time>
      </trkpt>
      <trkpt lat="44.32568" lon="5.65603">
        <ele>865.3</ele>
        <time>2021-09-08T05:48:16Z</time>
      </trkpt>
      <trkpt lat="44.32563" lon="5.65603">
        <ele>864.9</ele>
        <time>2021-09-08T05:48:17Z</time>
      </trkpt>
      <trkpt lat="44.32559" lon="5.65602">
        <ele>864.5</ele>
        <time>2021-09-08T05:48:19Z</time>
      </trkpt>
      <trkpt lat="44.32554" lon="5.65602">
        <ele>864</ele>
        <time>2021-09-08T05:48:20Z</time>
      </trkpt>
      <trkpt lat="44.3255" lon="5.65601">
        <ele>863.5</ele>
        <time>2021-09-08T05:48:21Z</time>
      </trkpt>
      <trkpt lat="44.32544" lon="5.65599">
        <ele>862.6</ele>
        <time>2021-09-08T05:48:23Z</time>
      </trkpt>
      <trkpt lat="44.3254" lon="5.65598">
        <ele>861.9</ele>
        <time>2021-09-08T05:48:24Z</time>
      </trkpt>
      <trkpt lat="44.32536" lon="5.65597">
        <ele>861.1</ele>
        <time>2021-09-08T05:48:25Z</time>
      </trkpt>
      <trkpt lat="44.32532" lon="5.65596">
        <ele>860.3</ele>
        <time>2021-09-08T05:48:26Z</time>
      </trkpt>
      <trkpt lat="44.32528" lon="5.65594">
        <ele>859.4</ele>
        <time>2021-09-08T05:48:27Z</time>
      </trkpt>
      <trkpt lat="44.32524" lon="5.65593">
        <ele>858.5</ele>
        <time>2021-09-08T05:48:28Z</time>
      </trkpt>
      <trkpt lat="44.3252" lon="5.65593">
        <ele>857.4</ele>
        <time>2021-09-08T05:48:30Z</time>
      </trkpt>
      <trkpt lat="44.32515" lon="5.65593">
        <ele>856.2</ele>
        <time>2021-09-08T05:48:31Z</time>
      </trkpt>
      <trkpt lat="44.32512" lon="5.65593">
        <ele>855.5</ele>
        <time>2021-09-08T05:48:32Z</time>
      </trkpt>
      <trkpt lat="44.32509" lon="5.65592">
        <ele>854.8</ele>
        <time>2021-09-08T05:48:33Z</time>
      </trkpt>
      <trkpt lat="44.32503" lon="5.65593">
        <ele>853.4</ele>
        <time>2021-09-08T05:48:35Z</time>
      </trkpt>
      <trkpt lat="44.32499" lon="5.65594">
        <ele>852.6</ele>
        <time>2021-09-08T05:48:36Z</time>
      </trkpt>
      <trkpt lat="44.32496" lon="5.65595">
        <ele>851.8</ele>
        <time>2021-09-08T05:48:37Z</time>
      </trkpt>
      <trkpt lat="44.3249" lon="5.65596">
        <ele>850.4</ele>
        <time>2021-09-08T05:48:39Z</time>
      </trkpt>
      <trkpt lat="44.32485" lon="5.65596">
        <ele>849</ele>
        <time>2021-09-08T05:48:40Z</time>
      </trkpt>
      <trkpt lat="44.32481" lon="5.65597">
        <ele>847.8</ele>
        <time>2021-09-08T05:48:41Z</time>
      </trkpt>
      <trkpt lat="44.32476" lon="5.65598">
        <ele>846.2</ele>
        <time>2021-09-08T05:48:43Z</time>
      </trkpt>
      <trkpt lat="44.32472" lon="5.65598">
        <ele>845.3</ele>
        <time>2021-09-08T05:48:44Z</time>
      </trkpt>
      <trkpt lat="44.32471" lon="5.65597">
        <ele>844.8</ele>
        <time>2021-09-08T05:48:45Z</time>
      </trkpt>
      <trkpt lat="44.32469" lon="5.65596">
        <ele>844.3</ele>
        <time>2021-09-08T05:48:46Z</time>
      </trkpt>
      <trkpt lat="44.32468" lon="5.65596">
        <ele>843.9</ele>
        <time>2021-09-08T05:48:47Z</time>
      </trkpt>
      <trkpt lat="44.32466" lon="5.65596">
        <ele>843.5</ele>
        <time>2021-09-08T05:48:49Z</time>
      </trkpt>
      <trkpt lat="44.32464" lon="5.65593">
        <ele>842.8</ele>
        <time>2021-09-08T05:48:50Z</time>
      </trkpt>
      <trkpt lat="44.32462" lon="5.6559">
        <ele>842</ele>
        <time>2021-09-08T05:48:51Z</time>
      </trkpt>
      <trkpt lat="44.32459" lon="5.65587">
        <ele>841.1</ele>
        <time>2021-09-08T05:48:53Z</time>
      </trkpt>
      <trkpt lat="44.32455" lon="5.65585">
        <ele>840.2</ele>
        <time>2021-09-08T05:48:54Z</time>
      </trkpt>
      <trkpt lat="44.32452" lon="5.65582">
        <ele>839.3</ele>
        <time>2021-09-08T05:48:55Z</time>
      </trkpt>
      <trkpt lat="44.32448" lon="5.6558">
        <ele>838.3</ele>
        <time>2021-09-08T05:48:57Z</time>
      </trkpt>
      <trkpt lat="44.32445" lon="5.65578">
        <ele>837.4</ele>
        <time>2021-09-08T05:48:58Z</time>
      </trkpt>
      <trkpt lat="44.32441" lon="5.65578">
        <ele>836.5</ele>
        <time>2021-09-08T05:48:59Z</time>
      </trkpt>
      <trkpt lat="44.32438" lon="5.65577">
        <ele>835.9</ele>
        <time>2021-09-08T05:49:00Z</time>
      </trkpt>
      <trkpt lat="44.32434" lon="5.65576">
        <ele>835.2</ele>
        <time>2021-09-08T05:49:02Z</time>
      </trkpt>
      <trkpt lat="44.3243" lon="5.65576">
        <ele>834.6</ele>
        <time>2021-09-08T05:49:03Z</time>
      </trkpt>
      <trkpt lat="44.32424" lon="5.65576">
        <ele>833.9</ele>
        <time>2021-09-08T05:49:04Z</time>
      </trkpt>
      <trkpt lat="44.3242" lon="5.65576">
        <ele>833.5</ele>
        <time>2021-09-08T05:49:05Z</time>
      </trkpt>
      <trkpt lat="44.32415" lon="5.6558">
        <ele>833</ele>
        <time>2021-09-08T05:49:07Z</time>
      </trkpt>
      <trkpt lat="44.32411" lon="5.65585">
        <ele>832.7</ele>
        <time>2021-09-08T05:49:08Z</time>
      </trkpt>
      <trkpt lat="44.32408" lon="5.65589">
        <ele>832.3</ele>
        <time>2021-09-08T05:49:10Z</time>
      </trkpt>
      <trkpt lat="44.32406" lon="5.65593">
        <ele>832.1</ele>
        <time>2021-09-08T05:49:11Z</time>
      </trkpt>
      <trkpt lat="44.32405" lon="5.65593">
        <ele>832</ele>
        <time>2021-09-08T05:49:12Z</time>
      </trkpt>
      <trkpt lat="44.32403" lon="5.65597">
        <ele>831.8</ele>
        <time>2021-09-08T05:49:13Z</time>
      </trkpt>
      <trkpt lat="44.32399" lon="5.65605">
        <ele>831.2</ele>
        <time>2021-09-08T05:49:15Z</time>
      </trkpt>
      <trkpt lat="44.32396" lon="5.65611">
        <ele>830.7</ele>
        <time>2021-09-08T05:49:16Z</time>
      </trkpt>
      <trkpt lat="44.32392" lon="5.65617">
        <ele>830</ele>
        <time>2021-09-08T05:49:17Z</time>
      </trkpt>
      <trkpt lat="44.32388" lon="5.65618">
        <ele>829.5</ele>
        <time>2021-09-08T05:49:19Z</time>
      </trkpt>
      <trkpt lat="44.32385" lon="5.65624">
        <ele>828.8</ele>
        <time>2021-09-08T05:49:20Z</time>
      </trkpt>
      <trkpt lat="44.32383" lon="5.65627">
        <ele>828.3</ele>
        <time>2021-09-08T05:49:21Z</time>
      </trkpt>
      <trkpt lat="44.32382" lon="5.65629">
        <ele>828.1</ele>
        <time>2021-09-08T05:49:22Z</time>
      </trkpt>
      <trkpt lat="44.32381" lon="5.65631">
        <ele>827.9</ele>
        <time>2021-09-08T05:49:24Z</time>
      </trkpt>
      <trkpt lat="44.3238" lon="5.65632">
        <ele>827.7</ele>
        <time>2021-09-08T05:49:25Z</time>
      </trkpt>
      <trkpt lat="44.32378" lon="5.65632">
        <ele>827.4</ele>
        <time>2021-09-08T05:49:27Z</time>
      </trkpt>
      <trkpt lat="44.32359" lon="5.65588">
        <ele>823.6</ele>
        <time>2021-09-08T05:49:31Z</time>
      </trkpt>
      <trkpt lat="44.32356" lon="5.65577">
        <ele>822.7</ele>
        <time>2021-09-08T05:49:33Z</time>
      </trkpt>
      <trkpt lat="44.32356" lon="5.65568">
        <ele>822.2</ele>
        <time>2021-09-08T05:49:35Z</time>
      </trkpt>
      <trkpt lat="44.32355" lon="5.65558">
        <ele>821.5</ele>
        <time>2021-09-08T05:49:36Z</time>
      </trkpt>
      <trkpt lat="44.32354" lon="5.65551">
        <ele>821</ele>
        <time>2021-09-08T05:49:37Z</time>
      </trkpt>
      <trkpt lat="44.32356" lon="5.65539">
        <ele>820.2</ele>
        <time>2021-09-08T05:49:38Z</time>
      </trkpt>
      <trkpt lat="44.32356" lon="5.65523">
        <ele>819.3</ele>
        <time>2021-09-08T05:49:40Z</time>
      </trkpt>
      <trkpt lat="44.32356" lon="5.65515">
        <ele>819</ele>
        <time>2021-09-08T05:49:42Z</time>
      </trkpt>
      <trkpt lat="44.32356" lon="5.65509">
        <ele>818.8</ele>
        <time>2021-09-08T05:49:43Z</time>
      </trkpt>
      <trkpt lat="44.32354" lon="5.65502">
        <ele>818.4</ele>
        <time>2021-09-08T05:49:45Z</time>
      </trkpt>
      <trkpt lat="44.32351" lon="5.65495">
        <ele>818.1</ele>
        <time>2021-09-08T05:49:46Z</time>
      </trkpt>
      <trkpt lat="44.32348" lon="5.6549">
        <ele>817.8</ele>
        <time>2021-09-08T05:49:47Z</time>
      </trkpt>
      <trkpt lat="44.32346" lon="5.65484">
        <ele>817.5</ele>
        <time>2021-09-08T05:49:48Z</time>
      </trkpt>
      <trkpt lat="44.32342" lon="5.65479">
        <ele>817.1</ele>
        <time>2021-09-08T05:49:49Z</time>
      </trkpt>
      <trkpt lat="44.32337" lon="5.65473">
        <ele>816.6</ele>
        <time>2021-09-08T05:49:51Z</time>
      </trkpt>
      <trkpt lat="44.32329" lon="5.65467">
        <ele>815.9</ele>
        <time>2021-09-08T05:49:52Z</time>
      </trkpt>
      <trkpt lat="44.32323" lon="5.65462">
        <ele>815.3</ele>
        <time>2021-09-08T05:49:53Z</time>
      </trkpt>
      <trkpt lat="44.32317" lon="5.65458">
        <ele>814.8</ele>
        <time>2021-09-08T05:49:54Z</time>
      </trkpt>
      <trkpt lat="44.32311" lon="5.65453">
        <ele>814.4</ele>
        <time>2021-09-08T05:49:55Z</time>
      </trkpt>
      <trkpt lat="44.32302" lon="5.65444">
        <ele>813.5</ele>
        <time>2021-09-08T05:49:57Z</time>
      </trkpt>
      <trkpt lat="44.32297" lon="5.65439">
        <ele>813.1</ele>
        <time>2021-09-08T05:49:58Z</time>
      </trkpt>
      <trkpt lat="44.32293" lon="5.65435">
        <ele>812.8</ele>
        <time>2021-09-08T05:49:59Z</time>
      </trkpt>
      <trkpt lat="44.32286" lon="5.65426">
        <ele>812</ele>
        <time>2021-09-08T05:50:01Z</time>
      </trkpt>
      <trkpt lat="44.3228" lon="5.65416">
        <ele>811.3</ele>
        <time>2021-09-08T05:50:03Z</time>
      </trkpt>
      <trkpt lat="44.32276" lon="5.65411">
        <ele>810.9</ele>
        <time>2021-09-08T05:50:04Z</time>
      </trkpt>
      <trkpt lat="44.32266" lon="5.65402">
        <ele>810.1</ele>
        <time>2021-09-08T05:50:06Z</time>
      </trkpt>
      <trkpt lat="44.32258" lon="5.65395">
        <ele>809.4</ele>
        <time>2021-09-08T05:50:08Z</time>
      </trkpt>
      <trkpt lat="44.32252" lon="5.65391">
        <ele>809</ele>
        <time>2021-09-08T05:50:10Z</time>
      </trkpt>
      <trkpt lat="44.32247" lon="5.65389">
        <ele>808.8</ele>
        <time>2021-09-08T05:50:12Z</time>
      </trkpt>
      <trkpt lat="44.32245" lon="5.65388">
        <ele>808.6</ele>
        <time>2021-09-08T05:50:13Z</time>
      </trkpt>
      <trkpt lat="44.32242" lon="5.65387">
        <ele>808.4</ele>
        <time>2021-09-08T05:50:14Z</time>
      </trkpt>
      <trkpt lat="44.32237" lon="5.65389">
        <ele>808.1</ele>
        <time>2021-09-08T05:50:16Z</time>
      </trkpt>
      <trkpt lat="44.32232" lon="5.65391">
        <ele>807.7</ele>
        <time>2021-09-08T05:50:17Z</time>
      </trkpt>
      <trkpt lat="44.32227" lon="5.65392">
        <ele>807.2</ele>
        <time>2021-09-08T05:50:18Z</time>
      </trkpt>
      <trkpt lat="44.32221" lon="5.65392">
        <ele>806.7</ele>
        <time>2021-09-08T05:50:19Z</time>
      </trkpt>
      <trkpt lat="44.32205" lon="5.65391">
        <ele>804.7</ele>
        <time>2021-09-08T05:50:21Z</time>
      </trkpt>
      <trkpt lat="44.32192" lon="5.6539">
        <ele>802.9</ele>
        <time>2021-09-08T05:50:23Z</time>
      </trkpt>
      <trkpt lat="44.3218" lon="5.65387">
        <ele>801.3</ele>
        <time>2021-09-08T05:50:25Z</time>
      </trkpt>
      <trkpt lat="44.32171" lon="5.65384">
        <ele>800.1</ele>
        <time>2021-09-08T05:50:27Z</time>
      </trkpt>
      <trkpt lat="44.32167" lon="5.65388">
        <ele>799.5</ele>
        <time>2021-09-08T05:50:28Z</time>
      </trkpt>
      <trkpt lat="44.32162" lon="5.65388">
        <ele>799</ele>
        <time>2021-09-08T05:50:30Z</time>
      </trkpt>
      <trkpt lat="44.32156" lon="5.6538">
        <ele>798.2</ele>
        <time>2021-09-08T05:50:31Z</time>
      </trkpt>
      <trkpt lat="44.32145" lon="5.65378">
        <ele>797.3</ele>
        <time>2021-09-08T05:50:33Z</time>
      </trkpt>
      <trkpt lat="44.32134" lon="5.65378">
        <ele>796.3</ele>
        <time>2021-09-08T05:50:35Z</time>
      </trkpt>
      <trkpt lat="44.32129" lon="5.65377">
        <ele>795.8</ele>
        <time>2021-09-08T05:50:36Z</time>
      </trkpt>
      <trkpt lat="44.32126" lon="5.65376">
        <ele>795.4</ele>
        <time>2021-09-08T05:50:38Z</time>
      </trkpt>
      <trkpt lat="44.32124" lon="5.65375">
        <ele>795.2</ele>
        <time>2021-09-08T05:50:39Z</time>
      </trkpt>
      <trkpt lat="44.32124" lon="5.65371">
        <ele>794.9</ele>
        <time>2021-09-08T05:50:40Z</time>
      </trkpt>
      <trkpt lat="44.32125" lon="5.65368">
        <ele>794.6</ele>
        <time>2021-09-08T05:50:41Z</time>
      </trkpt>
      <trkpt lat="44.32126" lon="5.65366">
        <ele>794.3</ele>
        <time>2021-09-08T05:50:42Z</time>
      </trkpt>
      <trkpt lat="44.32126" lon="5.65362">
        <ele>794</ele>
        <time>2021-09-08T05:50:43Z</time>
      </trkpt>
      <trkpt lat="44.32123" lon="5.65356">
        <ele>793.3</ele>
        <time>2021-09-08T05:50:45Z</time>
      </trkpt>
      <trkpt lat="44.32121" lon="5.65355">
        <ele>792.9</ele>
        <time>2021-09-08T05:50:46Z</time>
      </trkpt>
      <trkpt lat="44.32118" lon="5.65353">
        <ele>792.5</ele>
        <time>2021-09-08T05:50:48Z</time>
      </trkpt>
      <trkpt lat="44.32116" lon="5.65351">
        <ele>791.2</ele>
        <time>2021-09-08T05:50:49Z</time>
      </trkpt>
      <trkpt lat="44.32113" lon="5.6535">
        <ele>789.8</ele>
        <time>2021-09-08T05:50:50Z</time>
      </trkpt>
      <trkpt lat="44.32103" lon="5.65348">
        <ele>786.9</ele>
        <time>2021-09-08T05:50:51Z</time>
      </trkpt>
      <trkpt lat="44.32092" lon="5.65345">
        <ele>783.4</ele>
        <time>2021-09-08T05:50:53Z</time>
      </trkpt>
      <trkpt lat="44.32088" lon="5.65344">
        <ele>782</ele>
        <time>2021-09-08T05:50:54Z</time>
      </trkpt>
      <trkpt lat="44.32081" lon="5.65342">
        <ele>779.9</ele>
        <time>2021-09-08T05:50:56Z</time>
      </trkpt>
      <trkpt lat="44.32077" lon="5.6534">
        <ele>777.5</ele>
        <time>2021-09-08T05:50:57Z</time>
      </trkpt>
      <trkpt lat="44.32072" lon="5.65336">
        <ele>775.8</ele>
        <time>2021-09-08T05:50:59Z</time>
      </trkpt>
      <trkpt lat="44.3207" lon="5.65332">
        <ele>774.1</ele>
        <time>2021-09-08T05:51:00Z</time>
      </trkpt>
      <trkpt lat="44.3207" lon="5.65331">
        <ele>773.4</ele>
        <time>2021-09-08T05:51:01Z</time>
      </trkpt>
      <trkpt lat="44.32077" lon="5.65317">
        <ele>772.9</ele>
        <time>2021-09-08T05:51:02Z</time>
      </trkpt>
      <trkpt lat="44.32083" lon="5.65306">
        <ele>772.4</ele>
        <time>2021-09-08T05:51:03Z</time>
      </trkpt>
      <trkpt lat="44.3209" lon="5.65295">
        <ele>772</ele>
        <time>2021-09-08T05:51:06Z</time>
      </trkpt>
      <trkpt lat="44.32095" lon="5.65287">
        <ele>771.4</ele>
        <time>2021-09-08T05:51:07Z</time>
      </trkpt>
      <trkpt lat="44.32099" lon="5.65282">
        <ele>770.6</ele>
        <time>2021-09-08T05:51:08Z</time>
      </trkpt>
      <trkpt lat="44.32105" lon="5.65283">
        <ele>771.1</ele>
        <time>2021-09-08T05:51:10Z</time>
      </trkpt>
      <trkpt lat="44.32111" lon="5.6529">
        <ele>772.7</ele>
        <time>2021-09-08T05:51:11Z</time>
      </trkpt>
      <trkpt lat="44.32114" lon="5.65295">
        <ele>773.1</ele>
        <time>2021-09-08T05:51:12Z</time>
      </trkpt>
      <trkpt lat="44.32111" lon="5.65301">
        <ele>772.3</ele>
        <time>2021-09-08T05:51:14Z</time>
      </trkpt>
      <trkpt lat="44.32106" lon="5.65304">
        <ele>771.5</ele>
        <time>2021-09-08T05:51:15Z</time>
      </trkpt>
      <trkpt lat="44.32085" lon="5.65313">
        <ele>767.6</ele>
        <time>2021-09-08T05:51:16Z</time>
      </trkpt>
      <trkpt lat="44.32079" lon="5.65315">
        <ele>765.5</ele>
        <time>2021-09-08T05:51:18Z</time>
      </trkpt>
      <trkpt lat="44.32034" lon="5.6538">
        <ele>760.7</ele>
        <time>2021-09-08T05:51:30Z</time>
      </trkpt>
      <trkpt lat="44.32035" lon="5.65385">
        <ele>760.3</ele>
        <time>2021-09-08T05:51:31Z</time>
      </trkpt>
      <trkpt lat="44.32036" lon="5.65391">
        <ele>760</ele>
        <time>2021-09-08T05:51:32Z</time>
      </trkpt>
      <trkpt lat="44.32036" lon="5.65391">
        <ele>760</ele>
        <time>2021-09-08T05:51:33Z</time>
      </trkpt>
      <trkpt lat="44.32036" lon="5.65388">
        <ele>759.8</ele>
        <time>2021-09-08T05:51:34Z</time>
      </trkpt>
      <trkpt lat="44.32037" lon="5.65385">
        <ele>759.7</ele>
        <time>2021-09-08T05:51:36Z</time>
      </trkpt>
      <trkpt lat="44.32038" lon="5.65382">
        <ele>759.5</ele>
        <time>2021-09-08T05:51:37Z</time>
      </trkpt>
      <trkpt lat="44.32037" lon="5.65378">
        <ele>759.2</ele>
        <time>2021-09-08T05:51:38Z</time>
      </trkpt>
      <trkpt lat="44.32035" lon="5.65369">
        <ele>758.7</ele>
        <time>2021-09-08T05:51:40Z</time>
      </trkpt>
      <trkpt lat="44.32033" lon="5.65364">
        <ele>758.3</ele>
        <time>2021-09-08T05:51:41Z</time>
      </trkpt>
      <trkpt lat="44.32032" lon="5.65359">
        <ele>758</ele>
        <time>2021-09-08T05:51:42Z</time>
      </trkpt>
      <trkpt lat="44.3203" lon="5.65355">
        <ele>757.7</ele>
        <time>2021-09-08T05:51:43Z</time>
      </trkpt>
      <trkpt lat="44.32025" lon="5.65351">
        <ele>757.3</ele>
        <time>2021-09-08T05:51:45Z</time>
      </trkpt>
      <trkpt lat="44.32018" lon="5.65345">
        <ele>756.6</ele>
        <time>2021-09-08T05:51:47Z</time>
      </trkpt>
      <trkpt lat="44.32012" lon="5.65335">
        <ele>756</ele>
        <time>2021-09-08T05:51:49Z</time>
      </trkpt>
      <trkpt lat="44.32007" lon="5.65325">
        <ele>755.4</ele>
        <time>2021-09-08T05:51:51Z</time>
      </trkpt>
      <trkpt lat="44.32004" lon="5.65319">
        <ele>755</ele>
        <time>2021-09-08T05:51:52Z</time>
      </trkpt>
      <trkpt lat="44.31998" lon="5.65308">
        <ele>754.1</ele>
        <time>2021-09-08T05:51:54Z</time>
      </trkpt>
      <trkpt lat="44.31995" lon="5.65303">
        <ele>753.7</ele>
        <time>2021-09-08T05:51:55Z</time>
      </trkpt>
      <trkpt lat="44.31989" lon="5.65294">
        <ele>752.8</ele>
        <time>2021-09-08T05:51:57Z</time>
      </trkpt>
      <trkpt lat="44.31985" lon="5.6529">
        <ele>752.4</ele>
        <time>2021-09-08T05:51:58Z</time>
      </trkpt>
      <trkpt lat="44.3198" lon="5.65286">
        <ele>751.7</ele>
        <time>2021-09-08T05:51:59Z</time>
      </trkpt>
      <trkpt lat="44.31966" lon="5.65287">
        <ele>750.2</ele>
        <time>2021-09-08T05:52:01Z</time>
      </trkpt>
      <trkpt lat="44.31949" lon="5.6529">
        <ele>748.5</ele>
        <time>2021-09-08T05:52:03Z</time>
      </trkpt>
      <trkpt lat="44.31935" lon="5.65294">
        <ele>747.3</ele>
        <time>2021-09-08T05:52:05Z</time>
      </trkpt>
      <trkpt lat="44.31921" lon="5.653">
        <ele>746.2</ele>
        <time>2021-09-08T05:52:07Z</time>
      </trkpt>
      <trkpt lat="44.31908" lon="5.65307">
        <ele>745.3</ele>
        <time>2021-09-08T05:52:09Z</time>
      </trkpt>
      <trkpt lat="44.31896" lon="5.65308">
        <ele>744.6</ele>
        <time>2021-09-08T05:52:11Z</time>
      </trkpt>
      <trkpt lat="44.31883" lon="5.65306">
        <ele>743.9</ele>
        <time>2021-09-08T05:52:13Z</time>
      </trkpt>
      <trkpt lat="44.31877" lon="5.65302">
        <ele>743.6</ele>
        <time>2021-09-08T05:52:14Z</time>
      </trkpt>
      <trkpt lat="44.3187" lon="5.65299">
        <ele>743.2</ele>
        <time>2021-09-08T05:52:15Z</time>
      </trkpt>
      <trkpt lat="44.31862" lon="5.65294">
        <ele>742.8</ele>
        <time>2021-09-08T05:52:16Z</time>
      </trkpt>
      <trkpt lat="44.31855" lon="5.6529">
        <ele>742.4</ele>
        <time>2021-09-08T05:52:17Z</time>
      </trkpt>
      <trkpt lat="44.31841" lon="5.65282">
        <ele>741.6</ele>
        <time>2021-09-08T05:52:19Z</time>
      </trkpt>
      <trkpt lat="44.31827" lon="5.65277">
        <ele>740.9</ele>
        <time>2021-09-08T05:52:21Z</time>
      </trkpt>
      <trkpt lat="44.3182" lon="5.65275">
        <ele>740.7</ele>
        <time>2021-09-08T05:52:22Z</time>
      </trkpt>
      <trkpt lat="44.31814" lon="5.65273">
        <ele>740.5</ele>
        <time>2021-09-08T05:52:23Z</time>
      </trkpt>
      <trkpt lat="44.3181" lon="5.65269">
        <ele>740.4</ele>
        <time>2021-09-08T05:52:24Z</time>
      </trkpt>
      <trkpt lat="44.31807" lon="5.65265">
        <ele>740.4</ele>
        <time>2021-09-08T05:52:25Z</time>
      </trkpt>
      <trkpt lat="44.31798" lon="5.65263">
        <ele>740.3</ele>
        <time>2021-09-08T05:52:27Z</time>
      </trkpt>
      <trkpt lat="44.31787" lon="5.65267">
        <ele>740.1</ele>
        <time>2021-09-08T05:52:29Z</time>
      </trkpt>
      <trkpt lat="44.31779" lon="5.65275">
        <ele>740</ele>
        <time>2021-09-08T05:52:31Z</time>
      </trkpt>
      <trkpt lat="44.31775" lon="5.65289">
        <ele>739.8</ele>
        <time>2021-09-08T05:52:33Z</time>
      </trkpt>
      <trkpt lat="44.31771" lon="5.6531">
        <ele>739.3</ele>
        <time>2021-09-08T05:52:35Z</time>
      </trkpt>
      <trkpt lat="44.31767" lon="5.65334">
        <ele>738.6</ele>
        <time>2021-09-08T05:52:37Z</time>
      </trkpt>
      <trkpt lat="44.31764" lon="5.65344">
        <ele>738.3</ele>
        <time>2021-09-08T05:52:38Z</time>
      </trkpt>
      <trkpt lat="44.31761" lon="5.65356">
        <ele>738</ele>
        <time>2021-09-08T05:52:39Z</time>
      </trkpt>
      <trkpt lat="44.31755" lon="5.65379">
        <ele>737.3</ele>
        <time>2021-09-08T05:52:41Z</time>
      </trkpt>
      <trkpt lat="44.31748" lon="5.65401">
        <ele>736.8</ele>
        <time>2021-09-08T05:52:43Z</time>
      </trkpt>
      <trkpt lat="44.31741" lon="5.65423">
        <ele>736.4</ele>
        <time>2021-09-08T05:52:45Z</time>
      </trkpt>
      <trkpt lat="44.31737" lon="5.65434">
        <ele>736.2</ele>
        <time>2021-09-08T05:52:46Z</time>
      </trkpt>
      <trkpt lat="44.3173" lon="5.65455">
        <ele>736.1</ele>
        <time>2021-09-08T05:52:48Z</time>
      </trkpt>
      <trkpt lat="44.31724" lon="5.65474">
        <ele>736.2</ele>
        <time>2021-09-08T05:52:50Z</time>
      </trkpt>
      <trkpt lat="44.31722" lon="5.65484">
        <ele>736.2</ele>
        <time>2021-09-08T05:52:51Z</time>
      </trkpt>
      <trkpt lat="44.31719" lon="5.65495">
        <ele>736.1</ele>
        <time>2021-09-08T05:52:52Z</time>
      </trkpt>
      <trkpt lat="44.31715" lon="5.65516">
        <ele>736.1</ele>
        <time>2021-09-08T05:52:54Z</time>
      </trkpt>
      <trkpt lat="44.31712" lon="5.65537">
        <ele>736.1</ele>
        <time>2021-09-08T05:52:56Z</time>
      </trkpt>
      <trkpt lat="44.31711" lon="5.65546">
        <ele>736.1</ele>
        <time>2021-09-08T05:52:57Z</time>
      </trkpt>
      <trkpt lat="44.31709" lon="5.65565">
        <ele>736.1</ele>
        <time>2021-09-08T05:52:59Z</time>
      </trkpt>
      <trkpt lat="44.31706" lon="5.65584">
        <ele>736.2</ele>
        <time>2021-09-08T05:53:01Z</time>
      </trkpt>
      <trkpt lat="44.31704" lon="5.65602">
        <ele>736.2</ele>
        <time>2021-09-08T05:53:03Z</time>
      </trkpt>
      <trkpt lat="44.31703" lon="5.65621">
        <ele>736.2</ele>
        <time>2021-09-08T05:53:05Z</time>
      </trkpt>
      <trkpt lat="44.31704" lon="5.65639">
        <ele>736.2</ele>
        <time>2021-09-08T05:53:07Z</time>
      </trkpt>
      <trkpt lat="44.31701" lon="5.65657">
        <ele>736.2</ele>
        <time>2021-09-08T05:53:09Z</time>
      </trkpt>
      <trkpt lat="44.317" lon="5.65665">
        <ele>736.2</ele>
        <time>2021-09-08T05:53:10Z</time>
      </trkpt>
      <trkpt lat="44.31699" lon="5.65674">
        <ele>736.2</ele>
        <time>2021-09-08T05:53:11Z</time>
      </trkpt>
      <trkpt lat="44.31696" lon="5.65693">
        <ele>736.3</ele>
        <time>2021-09-08T05:53:13Z</time>
      </trkpt>
      <trkpt lat="44.31695" lon="5.6571">
        <ele>736.4</ele>
        <time>2021-09-08T05:53:15Z</time>
      </trkpt>
      <trkpt lat="44.31696" lon="5.65718">
        <ele>736.4</ele>
        <time>2021-09-08T05:53:16Z</time>
      </trkpt>
      <trkpt lat="44.31698" lon="5.65734">
        <ele>736.6</ele>
        <time>2021-09-08T05:53:18Z</time>
      </trkpt>
      <trkpt lat="44.31702" lon="5.65749">
        <ele>736.8</ele>
        <time>2021-09-08T05:53:20Z</time>
      </trkpt>
      <trkpt lat="44.31704" lon="5.65757">
        <ele>736.9</ele>
        <time>2021-09-08T05:53:21Z</time>
      </trkpt>
      <trkpt lat="44.31707" lon="5.65768">
        <ele>737</ele>
        <time>2021-09-08T05:53:23Z</time>
      </trkpt>
      <trkpt lat="44.3171" lon="5.65774">
        <ele>737.1</ele>
        <time>2021-09-08T05:53:24Z</time>
      </trkpt>
      <trkpt lat="44.31713" lon="5.65782">
        <ele>737.2</ele>
        <time>2021-09-08T05:53:25Z</time>
      </trkpt>
      <trkpt lat="44.31723" lon="5.65798">
        <ele>737.4</ele>
        <time>2021-09-08T05:53:27Z</time>
      </trkpt>
      <trkpt lat="44.3173" lon="5.6581">
        <ele>737.5</ele>
        <time>2021-09-08T05:53:29Z</time>
      </trkpt>
      <trkpt lat="44.31735" lon="5.65818">
        <ele>737.6</ele>
        <time>2021-09-08T05:53:31Z</time>
      </trkpt>
      <trkpt lat="44.31739" lon="5.65824">
        <ele>737.6</ele>
        <time>2021-09-08T05:53:32Z</time>
      </trkpt>
      <trkpt lat="44.31743" lon="5.65829">
        <ele>737.5</ele>
        <time>2021-09-08T05:53:33Z</time>
      </trkpt>
      <trkpt lat="44.31751" lon="5.65835">
        <ele>737.5</ele>
        <time>2021-09-08T05:53:34Z</time>
      </trkpt>
      <trkpt lat="44.31756" lon="5.6584">
        <ele>737.4</ele>
        <time>2021-09-08T05:53:35Z</time>
      </trkpt>
      <trkpt lat="44.31761" lon="5.65848">
        <ele>737.4</ele>
        <time>2021-09-08T05:53:37Z</time>
      </trkpt>
      <trkpt lat="44.31762" lon="5.65855">
        <ele>737.4</ele>
        <time>2021-09-08T05:53:38Z</time>
      </trkpt>
      <trkpt lat="44.31764" lon="5.65865">
        <ele>737.4</ele>
        <time>2021-09-08T05:53:39Z</time>
      </trkpt>
      <trkpt lat="44.31764" lon="5.65882">
        <ele>737.5</ele>
        <time>2021-09-08T05:53:41Z</time>
      </trkpt>
      <trkpt lat="44.31761" lon="5.65896">
        <ele>737.6</ele>
        <time>2021-09-08T05:53:43Z</time>
      </trkpt>
      <trkpt lat="44.31757" lon="5.65905">
        <ele>737.6</ele>
        <time>2021-09-08T05:53:45Z</time>
      </trkpt>
      <trkpt lat="44.31756" lon="5.65915">
        <ele>737.7</ele>
        <time>2021-09-08T05:53:47Z</time>
      </trkpt>
      <trkpt lat="44.31754" lon="5.65925">
        <ele>737.7</ele>
        <time>2021-09-08T05:53:48Z</time>
      </trkpt>
      <trkpt lat="44.31752" lon="5.65931">
        <ele>737.7</ele>
        <time>2021-09-08T05:53:49Z</time>
      </trkpt>
      <trkpt lat="44.31748" lon="5.65944">
        <ele>737.7</ele>
        <time>2021-09-08T05:53:51Z</time>
      </trkpt>
      <trkpt lat="44.31744" lon="5.65955">
        <ele>737.6</ele>
        <time>2021-09-08T05:53:53Z</time>
      </trkpt>
      <trkpt lat="44.31745" lon="5.65961">
        <ele>737.6</ele>
        <time>2021-09-08T05:53:54Z</time>
      </trkpt>
      <trkpt lat="44.31745" lon="5.65967">
        <ele>737.5</ele>
        <time>2021-09-08T05:53:55Z</time>
      </trkpt>
      <trkpt lat="44.31746" lon="5.65974">
        <ele>737.4</ele>
        <time>2021-09-08T05:53:57Z</time>
      </trkpt>
      <trkpt lat="44.31747" lon="5.65988">
        <ele>737.3</ele>
        <time>2021-09-08T05:53:58Z</time>
      </trkpt>
      <trkpt lat="44.31747" lon="5.65996">
        <ele>737.2</ele>
        <time>2021-09-08T05:53:59Z</time>
      </trkpt>
      <trkpt lat="44.31749" lon="5.66011">
        <ele>737.1</ele>
        <time>2021-09-08T05:54:01Z</time>
      </trkpt>
      <trkpt lat="44.3175" lon="5.66025">
        <ele>737</ele>
        <time>2021-09-08T05:54:03Z</time>
      </trkpt>
      <trkpt lat="44.31748" lon="5.6604">
        <ele>736.9</ele>
        <time>2021-09-08T05:54:05Z</time>
      </trkpt>
      <trkpt lat="44.31748" lon="5.66047">
        <ele>736.8</ele>
        <time>2021-09-08T05:54:06Z</time>
      </trkpt>
      <trkpt lat="44.31747" lon="5.66054">
        <ele>736.7</ele>
        <time>2021-09-08T05:54:07Z</time>
      </trkpt>
      <trkpt lat="44.31744" lon="5.66069">
        <ele>736.6</ele>
        <time>2021-09-08T05:54:09Z</time>
      </trkpt>
      <trkpt lat="44.31741" lon="5.66085">
        <ele>736.4</ele>
        <time>2021-09-08T05:54:11Z</time>
      </trkpt>
      <trkpt lat="44.31738" lon="5.66101">
        <ele>736.2</ele>
        <time>2021-09-08T05:54:13Z</time>
      </trkpt>
      <trkpt lat="44.31737" lon="5.66109">
        <ele>736.1</ele>
        <time>2021-09-08T05:54:14Z</time>
      </trkpt>
      <trkpt lat="44.31735" lon="5.66122">
        <ele>736</ele>
        <time>2021-09-08T05:54:16Z</time>
      </trkpt>
      <trkpt lat="44.31732" lon="5.66128">
        <ele>735.9</ele>
        <time>2021-09-08T05:54:17Z</time>
      </trkpt>
      <trkpt lat="44.31728" lon="5.66134">
        <ele>735.8</ele>
        <time>2021-09-08T05:54:18Z</time>
      </trkpt>
      <trkpt lat="44.31734" lon="5.66145">
        <ele>735.6</ele>
        <time>2021-09-08T05:54:20Z</time>
      </trkpt>
      <trkpt lat="44.31732" lon="5.66158">
        <ele>735.4</ele>
        <time>2021-09-08T05:54:22Z</time>
      </trkpt>
      <trkpt lat="44.31731" lon="5.66167">
        <ele>735.3</ele>
        <time>2021-09-08T05:54:23Z</time>
      </trkpt>
      <trkpt lat="44.31729" lon="5.66182">
        <ele>735.1</ele>
        <time>2021-09-08T05:54:25Z</time>
      </trkpt>
      <trkpt lat="44.31726" lon="5.66197">
        <ele>734.8</ele>
        <time>2021-09-08T05:54:27Z</time>
      </trkpt>
      <trkpt lat="44.31722" lon="5.66214">
        <ele>734.5</ele>
        <time>2021-09-08T05:54:29Z</time>
      </trkpt>
      <trkpt lat="44.31715" lon="5.66229">
        <ele>734.2</ele>
        <time>2021-09-08T05:54:31Z</time>
      </trkpt>
      <trkpt lat="44.31709" lon="5.66244">
        <ele>733.8</ele>
        <time>2021-09-08T05:54:33Z</time>
      </trkpt>
      <trkpt lat="44.31705" lon="5.66252">
        <ele>733.7</ele>
        <time>2021-09-08T05:54:34Z</time>
      </trkpt>
      <trkpt lat="44.31703" lon="5.66259">
        <ele>733.5</ele>
        <time>2021-09-08T05:54:35Z</time>
      </trkpt>
      <trkpt lat="44.317" lon="5.66266">
        <ele>733.4</ele>
        <time>2021-09-08T05:54:36Z</time>
      </trkpt>
      <trkpt lat="44.31693" lon="5.66281">
        <ele>733</ele>
        <time>2021-09-08T05:54:38Z</time>
      </trkpt>
      <trkpt lat="44.31686" lon="5.66296">
        <ele>732.6</ele>
        <time>2021-09-08T05:54:40Z</time>
      </trkpt>
      <trkpt lat="44.31681" lon="5.66305">
        <ele>732.3</ele>
        <time>2021-09-08T05:54:41Z</time>
      </trkpt>
      <trkpt lat="44.31673" lon="5.66321">
        <ele>731.8</ele>
        <time>2021-09-08T05:54:43Z</time>
      </trkpt>
      <trkpt lat="44.31671" lon="5.6633">
        <ele>731.6</ele>
        <time>2021-09-08T05:54:44Z</time>
      </trkpt>
      <trkpt lat="44.31667" lon="5.66339">
        <ele>731.3</ele>
        <time>2021-09-08T05:54:45Z</time>
      </trkpt>
      <trkpt lat="44.31665" lon="5.66348">
        <ele>731</ele>
        <time>2021-09-08T05:54:46Z</time>
      </trkpt>
      <trkpt lat="44.31662" lon="5.66356">
        <ele>730.8</ele>
        <time>2021-09-08T05:54:47Z</time>
      </trkpt>
      <trkpt lat="44.31655" lon="5.66373">
        <ele>730.2</ele>
        <time>2021-09-08T05:54:49Z</time>
      </trkpt>
      <trkpt lat="44.31648" lon="5.66393">
        <ele>729.6</ele>
        <time>2021-09-08T05:54:51Z</time>
      </trkpt>
      <trkpt lat="44.31642" lon="5.66403">
        <ele>729.3</ele>
        <time>2021-09-08T05:54:52Z</time>
      </trkpt>
      <trkpt lat="44.31637" lon="5.66412">
        <ele>729</ele>
        <time>2021-09-08T05:54:53Z</time>
      </trkpt>
      <trkpt lat="44.31629" lon="5.66429">
        <ele>728.6</ele>
        <time>2021-09-08T05:54:55Z</time>
      </trkpt>
      <trkpt lat="44.31625" lon="5.66446">
        <ele>728.3</ele>
        <time>2021-09-08T05:54:57Z</time>
      </trkpt>
      <trkpt lat="44.31622" lon="5.66455">
        <ele>728</ele>
        <time>2021-09-08T05:54:58Z</time>
      </trkpt>
      <trkpt lat="44.31616" lon="5.66473">
        <ele>727.7</ele>
        <time>2021-09-08T05:55:00Z</time>
      </trkpt>
      <trkpt lat="44.31613" lon="5.66493">
        <ele>727.3</ele>
        <time>2021-09-08T05:55:02Z</time>
      </trkpt>
      <trkpt lat="44.31612" lon="5.66504">
        <ele>727.1</ele>
        <time>2021-09-08T05:55:03Z</time>
      </trkpt>
      <trkpt lat="44.31612" lon="5.66515">
        <ele>726.9</ele>
        <time>2021-09-08T05:55:04Z</time>
      </trkpt>
      <trkpt lat="44.31613" lon="5.66525">
        <ele>726.8</ele>
        <time>2021-09-08T05:55:05Z</time>
      </trkpt>
      <trkpt lat="44.31612" lon="5.66544">
        <ele>726.5</ele>
        <time>2021-09-08T05:55:07Z</time>
      </trkpt>
      <trkpt lat="44.31613" lon="5.66553">
        <ele>726.4</ele>
        <time>2021-09-08T05:55:08Z</time>
      </trkpt>
      <trkpt lat="44.31614" lon="5.66563">
        <ele>726.2</ele>
        <time>2021-09-08T05:55:09Z</time>
      </trkpt>
      <trkpt lat="44.31617" lon="5.66584">
        <ele>726</ele>
        <time>2021-09-08T05:55:11Z</time>
      </trkpt>
      <trkpt lat="44.31618" lon="5.66605">
        <ele>725.9</ele>
        <time>2021-09-08T05:55:13Z</time>
      </trkpt>
      <trkpt lat="44.31622" lon="5.66624">
        <ele>725.9</ele>
        <time>2021-09-08T05:55:15Z</time>
      </trkpt>
      <trkpt lat="44.31624" lon="5.66634">
        <ele>725.9</ele>
        <time>2021-09-08T05:55:16Z</time>
      </trkpt>
      <trkpt lat="44.31626" lon="5.66644">
        <ele>725.9</ele>
        <time>2021-09-08T05:55:17Z</time>
      </trkpt>
      <trkpt lat="44.3163" lon="5.66661">
        <ele>725.9</ele>
        <time>2021-09-08T05:55:19Z</time>
      </trkpt>
      <trkpt lat="44.31633" lon="5.66676">
        <ele>725.9</ele>
        <time>2021-09-08T05:55:21Z</time>
      </trkpt>
      <trkpt lat="44.31634" lon="5.66693">
        <ele>725.8</ele>
        <time>2021-09-08T05:55:23Z</time>
      </trkpt>
      <trkpt lat="44.3164" lon="5.66699">
        <ele>725.7</ele>
        <time>2021-09-08T05:55:24Z</time>
      </trkpt>
      <trkpt lat="44.31642" lon="5.66706">
        <ele>725.6</ele>
        <time>2021-09-08T05:55:25Z</time>
      </trkpt>
      <trkpt lat="44.31642" lon="5.66721">
        <ele>725.3</ele>
        <time>2021-09-08T05:55:27Z</time>
      </trkpt>
      <trkpt lat="44.3164" lon="5.66736">
        <ele>725.1</ele>
        <time>2021-09-08T05:55:29Z</time>
      </trkpt>
      <trkpt lat="44.31639" lon="5.66753">
        <ele>724.7</ele>
        <time>2021-09-08T05:55:31Z</time>
      </trkpt>
      <trkpt lat="44.31639" lon="5.66769">
        <ele>724.5</ele>
        <time>2021-09-08T05:55:33Z</time>
      </trkpt>
      <trkpt lat="44.31643" lon="5.66785">
        <ele>724.3</ele>
        <time>2021-09-08T05:55:35Z</time>
      </trkpt>
      <trkpt lat="44.31652" lon="5.66803">
        <ele>724.2</ele>
        <time>2021-09-08T05:55:37Z</time>
      </trkpt>
      <trkpt lat="44.31656" lon="5.66813">
        <ele>724.1</ele>
        <time>2021-09-08T05:55:38Z</time>
      </trkpt>
      <trkpt lat="44.31665" lon="5.66832">
        <ele>724</ele>
        <time>2021-09-08T05:55:40Z</time>
      </trkpt>
      <trkpt lat="44.31668" lon="5.66841">
        <ele>723.9</ele>
        <time>2021-09-08T05:55:41Z</time>
      </trkpt>
      <trkpt lat="44.31669" lon="5.6685">
        <ele>723.8</ele>
        <time>2021-09-08T05:55:42Z</time>
      </trkpt>
      <trkpt lat="44.31671" lon="5.66859">
        <ele>723.7</ele>
        <time>2021-09-08T05:55:43Z</time>
      </trkpt>
      <trkpt lat="44.31673" lon="5.66877">
        <ele>723.4</ele>
        <time>2021-09-08T05:55:45Z</time>
      </trkpt>
      <trkpt lat="44.31676" lon="5.66895">
        <ele>723.1</ele>
        <time>2021-09-08T05:55:47Z</time>
      </trkpt>
      <trkpt lat="44.31681" lon="5.66914">
        <ele>722.7</ele>
        <time>2021-09-08T05:55:49Z</time>
      </trkpt>
      <trkpt lat="44.31687" lon="5.66933">
        <ele>722.4</ele>
        <time>2021-09-08T05:55:51Z</time>
      </trkpt>
      <trkpt lat="44.3169" lon="5.66943">
        <ele>722.2</ele>
        <time>2021-09-08T05:55:52Z</time>
      </trkpt>
      <trkpt lat="44.31695" lon="5.66952">
        <ele>722.1</ele>
        <time>2021-09-08T05:55:53Z</time>
      </trkpt>
      <trkpt lat="44.31703" lon="5.66967">
        <ele>722</ele>
        <time>2021-09-08T05:55:55Z</time>
      </trkpt>
      <trkpt lat="44.31708" lon="5.66984">
        <ele>721.8</ele>
        <time>2021-09-08T05:55:57Z</time>
      </trkpt>
      <trkpt lat="44.3171" lon="5.66993">
        <ele>721.7</ele>
        <time>2021-09-08T05:55:58Z</time>
      </trkpt>
      <trkpt lat="44.31713" lon="5.6701">
        <ele>721.6</ele>
        <time>2021-09-08T05:56:00Z</time>
      </trkpt>
      <trkpt lat="44.31715" lon="5.67019">
        <ele>721.5</ele>
        <time>2021-09-08T05:56:01Z</time>
      </trkpt>
      <trkpt lat="44.31718" lon="5.67037">
        <ele>721.3</ele>
        <time>2021-09-08T05:56:03Z</time>
      </trkpt>
      <trkpt lat="44.3172" lon="5.67054">
        <ele>721.1</ele>
        <time>2021-09-08T05:56:05Z</time>
      </trkpt>
      <trkpt lat="44.31724" lon="5.67073">
        <ele>720.8</ele>
        <time>2021-09-08T05:56:07Z</time>
      </trkpt>
      <trkpt lat="44.31727" lon="5.67092">
        <ele>720.4</ele>
        <time>2021-09-08T05:56:09Z</time>
      </trkpt>
      <trkpt lat="44.31729" lon="5.67101">
        <ele>720.2</ele>
        <time>2021-09-08T05:56:10Z</time>
      </trkpt>
      <trkpt lat="44.31731" lon="5.67109">
        <ele>720</ele>
        <time>2021-09-08T05:56:11Z</time>
      </trkpt>
      <trkpt lat="44.31736" lon="5.67127">
        <ele>719.7</ele>
        <time>2021-09-08T05:56:13Z</time>
      </trkpt>
      <trkpt lat="44.31736" lon="5.67146">
        <ele>719.4</ele>
        <time>2021-09-08T05:56:15Z</time>
      </trkpt>
      <trkpt lat="44.31737" lon="5.67157">
        <ele>719.2</ele>
        <time>2021-09-08T05:56:16Z</time>
      </trkpt>
      <trkpt lat="44.31735" lon="5.67177">
        <ele>718.9</ele>
        <time>2021-09-08T05:56:18Z</time>
      </trkpt>
      <trkpt lat="44.31734" lon="5.67188">
        <ele>718.8</ele>
        <time>2021-09-08T05:56:19Z</time>
      </trkpt>
      <trkpt lat="44.31732" lon="5.67208">
        <ele>718.7</ele>
        <time>2021-09-08T05:56:21Z</time>
      </trkpt>
      <trkpt lat="44.31732" lon="5.67217">
        <ele>718.6</ele>
        <time>2021-09-08T05:56:22Z</time>
      </trkpt>
      <trkpt lat="44.31732" lon="5.67227">
        <ele>718.5</ele>
        <time>2021-09-08T05:56:23Z</time>
      </trkpt>
      <trkpt lat="44.31732" lon="5.67245">
        <ele>718.5</ele>
        <time>2021-09-08T05:56:25Z</time>
      </trkpt>
      <trkpt lat="44.31728" lon="5.67254">
        <ele>718.5</ele>
        <time>2021-09-08T05:56:27Z</time>
      </trkpt>
      <trkpt lat="44.31723" lon="5.67263">
        <ele>718.5</ele>
        <time>2021-09-08T05:56:28Z</time>
      </trkpt>
      <trkpt lat="44.31715" lon="5.67276">
        <ele>718.5</ele>
        <time>2021-09-08T05:56:30Z</time>
      </trkpt>
      <trkpt lat="44.31712" lon="5.67281">
        <ele>718.5</ele>
        <time>2021-09-08T05:56:31Z</time>
      </trkpt>
      <trkpt lat="44.3171" lon="5.67288">
        <ele>718.5</ele>
        <time>2021-09-08T05:56:33Z</time>
      </trkpt>
      <trkpt lat="44.31708" lon="5.67299">
        <ele>718.4</ele>
        <time>2021-09-08T05:56:35Z</time>
      </trkpt>
      <trkpt lat="44.31707" lon="5.67306">
        <ele>718.4</ele>
        <time>2021-09-08T05:56:36Z</time>
      </trkpt>
      <trkpt lat="44.31705" lon="5.67313">
        <ele>718.3</ele>
        <time>2021-09-08T05:56:37Z</time>
      </trkpt>
      <trkpt lat="44.31701" lon="5.67331">
        <ele>718.2</ele>
        <time>2021-09-08T05:56:38Z</time>
      </trkpt>
      <trkpt lat="44.31697" lon="5.67343">
        <ele>718</ele>
        <time>2021-09-08T05:56:39Z</time>
      </trkpt>
      <trkpt lat="44.31688" lon="5.67364">
        <ele>717.6</ele>
        <time>2021-09-08T05:56:41Z</time>
      </trkpt>
      <trkpt lat="44.31686" lon="5.67372">
        <ele>717.5</ele>
        <time>2021-09-08T05:56:42Z</time>
      </trkpt>
      <trkpt lat="44.31684" lon="5.67381">
        <ele>717.3</ele>
        <time>2021-09-08T05:56:43Z</time>
      </trkpt>
      <trkpt lat="44.31679" lon="5.67397">
        <ele>717</ele>
        <time>2021-09-08T05:56:45Z</time>
      </trkpt>
      <trkpt lat="44.31677" lon="5.67406">
        <ele>716.9</ele>
        <time>2021-09-08T05:56:46Z</time>
      </trkpt>
      <trkpt lat="44.31671" lon="5.67424">
        <ele>716.6</ele>
        <time>2021-09-08T05:56:48Z</time>
      </trkpt>
      <trkpt lat="44.31667" lon="5.67433">
        <ele>716.5</ele>
        <time>2021-09-08T05:56:49Z</time>
      </trkpt>
      <trkpt lat="44.3166" lon="5.67452">
        <ele>716.3</ele>
        <time>2021-09-08T05:56:51Z</time>
      </trkpt>
      <trkpt lat="44.31654" lon="5.67471">
        <ele>716.2</ele>
        <time>2021-09-08T05:56:53Z</time>
      </trkpt>
      <trkpt lat="44.3165" lon="5.6748">
        <ele>716.2</ele>
        <time>2021-09-08T05:56:54Z</time>
      </trkpt>
      <trkpt lat="44.31647" lon="5.67489">
        <ele>716.1</ele>
        <time>2021-09-08T05:56:55Z</time>
      </trkpt>
      <trkpt lat="44.31641" lon="5.67505">
        <ele>716.1</ele>
        <time>2021-09-08T05:56:57Z</time>
      </trkpt>
      <trkpt lat="44.31636" lon="5.67521">
        <ele>716</ele>
        <time>2021-09-08T05:56:59Z</time>
      </trkpt>
      <trkpt lat="44.31634" lon="5.67529">
        <ele>716</ele>
        <time>2021-09-08T05:57:00Z</time>
      </trkpt>
      <trkpt lat="44.31631" lon="5.67536">
        <ele>716</ele>
        <time>2021-09-08T05:57:01Z</time>
      </trkpt>
      <trkpt lat="44.31623" lon="5.67553">
        <ele>716</ele>
        <time>2021-09-08T05:57:03Z</time>
      </trkpt>
      <trkpt lat="44.31618" lon="5.67571">
        <ele>716</ele>
        <time>2021-09-08T05:57:05Z</time>
      </trkpt>
      <trkpt lat="44.31616" lon="5.67588">
        <ele>716</ele>
        <time>2021-09-08T05:57:07Z</time>
      </trkpt>
      <trkpt lat="44.31615" lon="5.67598">
        <ele>716</ele>
        <time>2021-09-08T05:57:08Z</time>
      </trkpt>
      <trkpt lat="44.31615" lon="5.67616">
        <ele>716</ele>
        <time>2021-09-08T05:57:10Z</time>
      </trkpt>
      <trkpt lat="44.31615" lon="5.67623">
        <ele>716</ele>
        <time>2021-09-08T05:57:11Z</time>
      </trkpt>
      <trkpt lat="44.31615" lon="5.67629">
        <ele>716</ele>
        <time>2021-09-08T05:57:12Z</time>
      </trkpt>
      <trkpt lat="44.31615" lon="5.67635">
        <ele>716</ele>
        <time>2021-09-08T05:57:13Z</time>
      </trkpt>
      <trkpt lat="44.31613" lon="5.67646">
        <ele>716</ele>
        <time>2021-09-08T05:57:15Z</time>
      </trkpt>
      <trkpt lat="44.31613" lon="5.67652">
        <ele>716.1</ele>
        <time>2021-09-08T05:57:16Z</time>
      </trkpt>
      <trkpt lat="44.31613" lon="5.67664">
        <ele>716.1</ele>
        <time>2021-09-08T05:57:18Z</time>
      </trkpt>
      <trkpt lat="44.31612" lon="5.6767">
        <ele>716.1</ele>
        <time>2021-09-08T05:57:19Z</time>
      </trkpt>
      <trkpt lat="44.3161" lon="5.67683">
        <ele>716.3</ele>
        <time>2021-09-08T05:57:21Z</time>
      </trkpt>
      <trkpt lat="44.31606" lon="5.67697">
        <ele>716.4</ele>
        <time>2021-09-08T05:57:23Z</time>
      </trkpt>
      <trkpt lat="44.31604" lon="5.67704">
        <ele>716.5</ele>
        <time>2021-09-08T05:57:24Z</time>
      </trkpt>
      <trkpt lat="44.31602" lon="5.67711">
        <ele>716.6</ele>
        <time>2021-09-08T05:57:25Z</time>
      </trkpt>
      <trkpt lat="44.31598" lon="5.67722">
        <ele>716.8</ele>
        <time>2021-09-08T05:57:27Z</time>
      </trkpt>
      <trkpt lat="44.31597" lon="5.67725">
        <ele>716.8</ele>
        <time>2021-09-08T05:57:28Z</time>
      </trkpt>
      <trkpt lat="44.31594" lon="5.67737">
        <ele>717</ele>
        <time>2021-09-08T05:57:30Z</time>
      </trkpt>
      <trkpt lat="44.3159" lon="5.67748">
        <ele>717.2</ele>
        <time>2021-09-08T05:57:32Z</time>
      </trkpt>
      <trkpt lat="44.31588" lon="5.67754">
        <ele>717.3</ele>
        <time>2021-09-08T05:57:33Z</time>
      </trkpt>
      <trkpt lat="44.31585" lon="5.67767">
        <ele>717.4</ele>
        <time>2021-09-08T05:57:35Z</time>
      </trkpt>
      <trkpt lat="44.31583" lon="5.67775">
        <ele>717.5</ele>
        <time>2021-09-08T05:57:36Z</time>
      </trkpt>
      <trkpt lat="44.31582" lon="5.67783">
        <ele>717.6</ele>
        <time>2021-09-08T05:57:37Z</time>
      </trkpt>
      <trkpt lat="44.31578" lon="5.67792">
        <ele>717.7</ele>
        <time>2021-09-08T05:57:39Z</time>
      </trkpt>
      <trkpt lat="44.31575" lon="5.67799">
        <ele>717.8</ele>
        <time>2021-09-08T05:57:40Z</time>
      </trkpt>
      <trkpt lat="44.31576" lon="5.67807">
        <ele>717.8</ele>
        <time>2021-09-08T05:57:42Z</time>
      </trkpt>
      <trkpt lat="44.31573" lon="5.67815">
        <ele>717.7</ele>
        <time>2021-09-08T05:57:43Z</time>
      </trkpt>
      <trkpt lat="44.31567" lon="5.67823">
        <ele>717.4</ele>
        <time>2021-09-08T05:57:45Z</time>
      </trkpt>
      <trkpt lat="44.31565" lon="5.67827">
        <ele>717.2</ele>
        <time>2021-09-08T05:57:46Z</time>
      </trkpt>
      <trkpt lat="44.31559" lon="5.67836">
        <ele>716.7</ele>
        <time>2021-09-08T05:57:47Z</time>
      </trkpt>
      <trkpt lat="44.3155" lon="5.67849">
        <ele>716</ele>
        <time>2021-09-08T05:57:49Z</time>
      </trkpt>
      <trkpt lat="44.31547" lon="5.67855">
        <ele>715.6</ele>
        <time>2021-09-08T05:57:50Z</time>
      </trkpt>
      <trkpt lat="44.31539" lon="5.6787">
        <ele>714.8</ele>
        <time>2021-09-08T05:57:52Z</time>
      </trkpt>
      <trkpt lat="44.31536" lon="5.67878">
        <ele>714.4</ele>
        <time>2021-09-08T05:57:53Z</time>
      </trkpt>
      <trkpt lat="44.31528" lon="5.67896">
        <ele>713.6</ele>
        <time>2021-09-08T05:57:55Z</time>
      </trkpt>
      <trkpt lat="44.31523" lon="5.67906">
        <ele>713.1</ele>
        <time>2021-09-08T05:57:56Z</time>
      </trkpt>
      <trkpt lat="44.31513" lon="5.67925">
        <ele>712.1</ele>
        <time>2021-09-08T05:57:58Z</time>
      </trkpt>
      <trkpt lat="44.31508" lon="5.67934">
        <ele>711.6</ele>
        <time>2021-09-08T05:57:59Z</time>
      </trkpt>
      <trkpt lat="44.31504" lon="5.67943">
        <ele>711.1</ele>
        <time>2021-09-08T05:58:00Z</time>
      </trkpt>
      <trkpt lat="44.31495" lon="5.67959">
        <ele>710.3</ele>
        <time>2021-09-08T05:58:02Z</time>
      </trkpt>
      <trkpt lat="44.31486" lon="5.67977">
        <ele>709.3</ele>
        <time>2021-09-08T05:58:04Z</time>
      </trkpt>
      <trkpt lat="44.31476" lon="5.67995">
        <ele>708.3</ele>
        <time>2021-09-08T05:58:06Z</time>
      </trkpt>
      <trkpt lat="44.31466" lon="5.68015">
        <ele>707.3</ele>
        <time>2021-09-08T05:58:08Z</time>
      </trkpt>
      <trkpt lat="44.31457" lon="5.68034">
        <ele>706.3</ele>
        <time>2021-09-08T05:58:10Z</time>
      </trkpt>
      <trkpt lat="44.31452" lon="5.68044">
        <ele>705.8</ele>
        <time>2021-09-08T05:58:11Z</time>
      </trkpt>
      <trkpt lat="44.31442" lon="5.68063">
        <ele>705</ele>
        <time>2021-09-08T05:58:13Z</time>
      </trkpt>
      <trkpt lat="44.31432" lon="5.68082">
        <ele>704</ele>
        <time>2021-09-08T05:58:15Z</time>
      </trkpt>
      <trkpt lat="44.31422" lon="5.68101">
        <ele>703</ele>
        <time>2021-09-08T05:58:17Z</time>
      </trkpt>
      <trkpt lat="44.31413" lon="5.68118">
        <ele>702.1</ele>
        <time>2021-09-08T05:58:19Z</time>
      </trkpt>
      <trkpt lat="44.31408" lon="5.68126">
        <ele>701.6</ele>
        <time>2021-09-08T05:58:20Z</time>
      </trkpt>
      <trkpt lat="44.31397" lon="5.68145">
        <ele>701</ele>
        <time>2021-09-08T05:58:22Z</time>
      </trkpt>
      <trkpt lat="44.31388" lon="5.68159">
        <ele>700.9</ele>
        <time>2021-09-08T05:58:24Z</time>
      </trkpt>
      <trkpt lat="44.3138" lon="5.68187">
        <ele>700.5</ele>
        <time>2021-09-08T05:58:26Z</time>
      </trkpt>
      <trkpt lat="44.31376" lon="5.682">
        <ele>700.4</ele>
        <time>2021-09-08T05:58:27Z</time>
      </trkpt>
      <trkpt lat="44.31374" lon="5.68213">
        <ele>700.2</ele>
        <time>2021-09-08T05:58:28Z</time>
      </trkpt>
      <trkpt lat="44.31373" lon="5.68222">
        <ele>700.1</ele>
        <time>2021-09-08T05:58:29Z</time>
      </trkpt>
      <trkpt lat="44.31374" lon="5.68238">
        <ele>699.9</ele>
        <time>2021-09-08T05:58:31Z</time>
      </trkpt>
      <trkpt lat="44.31377" lon="5.68256">
        <ele>699.8</ele>
        <time>2021-09-08T05:58:33Z</time>
      </trkpt>
      <trkpt lat="44.31382" lon="5.68275">
        <ele>699.7</ele>
        <time>2021-09-08T05:58:35Z</time>
      </trkpt>
      <trkpt lat="44.31385" lon="5.68285">
        <ele>699.6</ele>
        <time>2021-09-08T05:58:36Z</time>
      </trkpt>
      <trkpt lat="44.31388" lon="5.68294">
        <ele>699.5</ele>
        <time>2021-09-08T05:58:37Z</time>
      </trkpt>
      <trkpt lat="44.31394" lon="5.68312">
        <ele>699.4</ele>
        <time>2021-09-08T05:58:39Z</time>
      </trkpt>
      <trkpt lat="44.31406" lon="5.68329">
        <ele>699.3</ele>
        <time>2021-09-08T05:58:41Z</time>
      </trkpt>
      <trkpt lat="44.31413" lon="5.68338">
        <ele>699.2</ele>
        <time>2021-09-08T05:58:42Z</time>
      </trkpt>
      <trkpt lat="44.31425" lon="5.68358">
        <ele>699</ele>
        <time>2021-09-08T05:58:44Z</time>
      </trkpt>
      <trkpt lat="44.31444" lon="5.68379">
        <ele>698.9</ele>
        <time>2021-09-08T05:58:46Z</time>
      </trkpt>
      <trkpt lat="44.31454" lon="5.6839">
        <ele>698.8</ele>
        <time>2021-09-08T05:58:47Z</time>
      </trkpt>
      <trkpt lat="44.31466" lon="5.68412">
        <ele>698.5</ele>
        <time>2021-09-08T05:58:49Z</time>
      </trkpt>
      <trkpt lat="44.31471" lon="5.68421">
        <ele>698.2</ele>
        <time>2021-09-08T05:58:50Z</time>
      </trkpt>
      <trkpt lat="44.31479" lon="5.68432">
        <ele>698</ele>
        <time>2021-09-08T05:58:51Z</time>
      </trkpt>
      <trkpt lat="44.3149" lon="5.68449">
        <ele>697.7</ele>
        <time>2021-09-08T05:58:53Z</time>
      </trkpt>
      <trkpt lat="44.31496" lon="5.68464">
        <ele>697.5</ele>
        <time>2021-09-08T05:58:55Z</time>
      </trkpt>
      <trkpt lat="44.31502" lon="5.68479">
        <ele>697.3</ele>
        <time>2021-09-08T05:58:57Z</time>
      </trkpt>
      <trkpt lat="44.31509" lon="5.68497">
        <ele>697.1</ele>
        <time>2021-09-08T05:58:59Z</time>
      </trkpt>
      <trkpt lat="44.31516" lon="5.68508">
        <ele>696.9</ele>
        <time>2021-09-08T05:59:00Z</time>
      </trkpt>
      <trkpt lat="44.31523" lon="5.68534">
        <ele>696.7</ele>
        <time>2021-09-08T05:59:02Z</time>
      </trkpt>
      <trkpt lat="44.31525" lon="5.68546">
        <ele>696.6</ele>
        <time>2021-09-08T05:59:03Z</time>
      </trkpt>
      <trkpt lat="44.31524" lon="5.68557">
        <ele>696.5</ele>
        <time>2021-09-08T05:59:04Z</time>
      </trkpt>
      <trkpt lat="44.31522" lon="5.68566">
        <ele>696.4</ele>
        <time>2021-09-08T05:59:05Z</time>
      </trkpt>
      <trkpt lat="44.31514" lon="5.68583">
        <ele>696.2</ele>
        <time>2021-09-08T05:59:07Z</time>
      </trkpt>
      <trkpt lat="44.3151" lon="5.68601">
        <ele>696.1</ele>
        <time>2021-09-08T05:59:09Z</time>
      </trkpt>
      <trkpt lat="44.31508" lon="5.6861">
        <ele>696</ele>
        <time>2021-09-08T05:59:10Z</time>
      </trkpt>
      <trkpt lat="44.31507" lon="5.68619">
        <ele>695.9</ele>
        <time>2021-09-08T05:59:11Z</time>
      </trkpt>
      <trkpt lat="44.31502" lon="5.68635">
        <ele>695.6</ele>
        <time>2021-09-08T05:59:13Z</time>
      </trkpt>
      <trkpt lat="44.31501" lon="5.68644">
        <ele>695.5</ele>
        <time>2021-09-08T05:59:14Z</time>
      </trkpt>
      <trkpt lat="44.31499" lon="5.68661">
        <ele>695.3</ele>
        <time>2021-09-08T05:59:16Z</time>
      </trkpt>
      <trkpt lat="44.31499" lon="5.68677">
        <ele>695</ele>
        <time>2021-09-08T05:59:18Z</time>
      </trkpt>
      <trkpt lat="44.31499" lon="5.68684">
        <ele>694.9</ele>
        <time>2021-09-08T05:59:19Z</time>
      </trkpt>
      <trkpt lat="44.315" lon="5.687">
        <ele>694.7</ele>
        <time>2021-09-08T05:59:21Z</time>
      </trkpt>
      <trkpt lat="44.315" lon="5.68708">
        <ele>694.6</ele>
        <time>2021-09-08T05:59:22Z</time>
      </trkpt>
      <trkpt lat="44.31499" lon="5.68716">
        <ele>694.5</ele>
        <time>2021-09-08T05:59:23Z</time>
      </trkpt>
      <trkpt lat="44.31496" lon="5.68733">
        <ele>694.3</ele>
        <time>2021-09-08T05:59:25Z</time>
      </trkpt>
      <trkpt lat="44.31492" lon="5.6875">
        <ele>694</ele>
        <time>2021-09-08T05:59:27Z</time>
      </trkpt>
      <trkpt lat="44.3149" lon="5.68759">
        <ele>693.9</ele>
        <time>2021-09-08T05:59:28Z</time>
      </trkpt>
      <trkpt lat="44.31488" lon="5.68767">
        <ele>693.7</ele>
        <time>2021-09-08T05:59:29Z</time>
      </trkpt>
      <trkpt lat="44.3148" lon="5.68784">
        <ele>693.4</ele>
        <time>2021-09-08T05:59:31Z</time>
      </trkpt>
      <trkpt lat="44.31474" lon="5.688">
        <ele>693</ele>
        <time>2021-09-08T05:59:33Z</time>
      </trkpt>
      <trkpt lat="44.3147" lon="5.68808">
        <ele>692.8</ele>
        <time>2021-09-08T05:59:34Z</time>
      </trkpt>
      <trkpt lat="44.31462" lon="5.68823">
        <ele>692.4</ele>
        <time>2021-09-08T05:59:36Z</time>
      </trkpt>
      <trkpt lat="44.31457" lon="5.6883">
        <ele>692.2</ele>
        <time>2021-09-08T05:59:37Z</time>
      </trkpt>
      <trkpt lat="44.31451" lon="5.68836">
        <ele>692</ele>
        <time>2021-09-08T05:59:38Z</time>
      </trkpt>
      <trkpt lat="44.31439" lon="5.68847">
        <ele>691.6</ele>
        <time>2021-09-08T05:59:40Z</time>
      </trkpt>
      <trkpt lat="44.31432" lon="5.68852">
        <ele>691.5</ele>
        <time>2021-09-08T05:59:41Z</time>
      </trkpt>
      <trkpt lat="44.31416" lon="5.68859">
        <ele>691.2</ele>
        <time>2021-09-08T05:59:43Z</time>
      </trkpt>
      <trkpt lat="44.31409" lon="5.68863">
        <ele>691.1</ele>
        <time>2021-09-08T05:59:44Z</time>
      </trkpt>
      <trkpt lat="44.31402" lon="5.68865">
        <ele>691</ele>
        <time>2021-09-08T05:59:45Z</time>
      </trkpt>
      <trkpt lat="44.31396" lon="5.68868">
        <ele>691</ele>
        <time>2021-09-08T05:59:46Z</time>
      </trkpt>
      <trkpt lat="44.3139" lon="5.6887">
        <ele>690.9</ele>
        <time>2021-09-08T05:59:47Z</time>
      </trkpt>
      <trkpt lat="44.31378" lon="5.68877">
        <ele>690.7</ele>
        <time>2021-09-08T05:59:49Z</time>
      </trkpt>
      <trkpt lat="44.31366" lon="5.68882">
        <ele>690.6</ele>
        <time>2021-09-08T05:59:51Z</time>
      </trkpt>
      <trkpt lat="44.3136" lon="5.68882">
        <ele>690.5</ele>
        <time>2021-09-08T05:59:52Z</time>
      </trkpt>
      <trkpt lat="44.31354" lon="5.68884">
        <ele>690.4</ele>
        <time>2021-09-08T05:59:53Z</time>
      </trkpt>
      <trkpt lat="44.31348" lon="5.68886">
        <ele>690.3</ele>
        <time>2021-09-08T05:59:54Z</time>
      </trkpt>
      <trkpt lat="44.31337" lon="5.68891">
        <ele>690.2</ele>
        <time>2021-09-08T05:59:56Z</time>
      </trkpt>
      <trkpt lat="44.31331" lon="5.68893">
        <ele>690.2</ele>
        <time>2021-09-08T05:59:57Z</time>
      </trkpt>
      <trkpt lat="44.3132" lon="5.68902">
        <ele>690.1</ele>
        <time>2021-09-08T05:59:59Z</time>
      </trkpt>
      <trkpt lat="44.31314" lon="5.68909">
        <ele>690</ele>
        <time>2021-09-08T06:00:00Z</time>
      </trkpt>
      <trkpt lat="44.31304" lon="5.68928">
        <ele>689.9</ele>
        <time>2021-09-08T06:00:02Z</time>
      </trkpt>
      <trkpt lat="44.313" lon="5.68939">
        <ele>689.8</ele>
        <time>2021-09-08T06:00:03Z</time>
      </trkpt>
      <trkpt lat="44.31293" lon="5.68959">
        <ele>689.7</ele>
        <time>2021-09-08T06:00:05Z</time>
      </trkpt>
      <trkpt lat="44.31288" lon="5.68979">
        <ele>689.6</ele>
        <time>2021-09-08T06:00:07Z</time>
      </trkpt>
      <trkpt lat="44.31284" lon="5.68995">
        <ele>689.5</ele>
        <time>2021-09-08T06:00:09Z</time>
      </trkpt>
      <trkpt lat="44.31281" lon="5.69002">
        <ele>689.4</ele>
        <time>2021-09-08T06:00:10Z</time>
      </trkpt>
      <trkpt lat="44.31279" lon="5.69007">
        <ele>689.4</ele>
        <time>2021-09-08T06:00:11Z</time>
      </trkpt>
      <trkpt lat="44.31278" lon="5.69017">
        <ele>689.3</ele>
        <time>2021-09-08T06:00:13Z</time>
      </trkpt>
      <trkpt lat="44.3128" lon="5.69018">
        <ele>689.3</ele>
        <time>2021-09-08T06:00:14Z</time>
      </trkpt>
      <trkpt lat="44.31276" lon="5.69018">
        <ele>689.3</ele>
        <time>2021-09-08T06:00:16Z</time>
      </trkpt>
      <trkpt lat="44.31274" lon="5.69015">
        <ele>689.2</ele>
        <time>2021-09-08T06:00:18Z</time>
      </trkpt>
      <trkpt lat="44.31273" lon="5.69015">
        <ele>689.2</ele>
        <time>2021-09-08T06:00:19Z</time>
      </trkpt>
      <trkpt lat="44.31273" lon="5.69014">
        <ele>689.2</ele>
        <time>2021-09-08T06:00:20Z</time>
      </trkpt>
      <trkpt lat="44.31276" lon="5.69012">
        <ele>689.2</ele>
        <time>2021-09-08T06:00:22Z</time>
      </trkpt>
      <trkpt lat="44.31277" lon="5.69011">
        <ele>689.2</ele>
        <time>2021-09-08T06:00:23Z</time>
      </trkpt>
      <trkpt lat="44.31277" lon="5.69008">
        <ele>689.1</ele>
        <time>2021-09-08T06:00:25Z</time>
      </trkpt>
      <trkpt lat="44.31276" lon="5.69004">
        <ele>689.1</ele>
        <time>2021-09-08T06:00:27Z</time>
      </trkpt>
      <trkpt lat="44.31274" lon="5.68999">
        <ele>689.1</ele>
        <time>2021-09-08T06:00:29Z</time>
      </trkpt>
      <trkpt lat="44.31274" lon="5.68994">
        <ele>689</ele>
        <time>2021-09-08T06:00:30Z</time>
      </trkpt>
      <trkpt lat="44.31274" lon="5.68992">
        <ele>689</ele>
        <time>2021-09-08T06:00:31Z</time>
      </trkpt>
      <trkpt lat="44.31276" lon="5.68991">
        <ele>688.9</ele>
        <time>2021-09-08T06:00:33Z</time>
      </trkpt>
      <trkpt lat="44.31283" lon="5.68993">
        <ele>688.8</ele>
        <time>2021-09-08T06:00:35Z</time>
      </trkpt>
      <trkpt lat="44.31285" lon="5.69008">
        <ele>688.6</ele>
        <time>2021-09-08T06:00:37Z</time>
      </trkpt>
      <trkpt lat="44.31285" lon="5.69022">
        <ele>688.5</ele>
        <time>2021-09-08T06:00:39Z</time>
      </trkpt>
      <trkpt lat="44.31286" lon="5.69036">
        <ele>688.3</ele>
        <time>2021-09-08T06:00:40Z</time>
      </trkpt>
      <trkpt lat="44.31286" lon="5.69049">
        <ele>688.1</ele>
        <time>2021-09-08T06:02:00Z</time>
      </trkpt>
      <trkpt lat="44.31286" lon="5.69063">
        <ele>688</ele>
        <time>2021-09-08T06:02:01Z</time>
      </trkpt>
      <trkpt lat="44.31289" lon="5.69077">
        <ele>687.8</ele>
        <time>2021-09-08T06:02:03Z</time>
      </trkpt>
      <trkpt lat="44.31289" lon="5.69084">
        <ele>687.8</ele>
        <time>2021-09-08T06:02:04Z</time>
      </trkpt>
      <trkpt lat="44.31289" lon="5.69091">
        <ele>687.7</ele>
        <time>2021-09-08T06:02:05Z</time>
      </trkpt>
      <trkpt lat="44.31288" lon="5.69105">
        <ele>687.6</ele>
        <time>2021-09-08T06:02:07Z</time>
      </trkpt>
      <trkpt lat="44.31286" lon="5.69111">
        <ele>687.6</ele>
        <time>2021-09-08T06:02:09Z</time>
      </trkpt>
      <trkpt lat="44.31286" lon="5.69115">
        <ele>687.6</ele>
        <time>2021-09-08T06:02:10Z</time>
      </trkpt>
      <trkpt lat="44.31286" lon="5.69119">
        <ele>687.5</ele>
        <time>2021-09-08T06:02:12Z</time>
      </trkpt>
      <trkpt lat="44.31286" lon="5.69119">
        <ele>687.5</ele>
        <time>2021-09-08T06:02:13Z</time>
      </trkpt>
      <trkpt lat="44.31286" lon="5.69116">
        <ele>687.5</ele>
        <time>2021-09-08T06:02:15Z</time>
      </trkpt>
      <trkpt lat="44.31286" lon="5.69114">
        <ele>687.5</ele>
        <time>2021-09-08T06:02:17Z</time>
      </trkpt>
      <trkpt lat="44.31286" lon="5.69113">
        <ele>687.5</ele>
        <time>2021-09-08T06:02:18Z</time>
      </trkpt>
      <trkpt lat="44.31286" lon="5.69113">
        <ele>687.5</ele>
        <time>2021-09-08T06:02:19Z</time>
      </trkpt>
      <trkpt lat="44.31286" lon="5.69113">
        <ele>687.5</ele>
        <time>2021-09-08T06:02:21Z</time>
      </trkpt>
      <trkpt lat="44.31286" lon="5.69114">
        <ele>687.5</ele>
        <time>2021-09-08T06:02:23Z</time>
      </trkpt>
      <trkpt lat="44.31285" lon="5.69134">
        <ele>687.4</ele>
        <time>2021-09-08T06:02:33Z</time>
      </trkpt>
      <trkpt lat="44.31287" lon="5.69139">
        <ele>687.4</ele>
        <time>2021-09-08T06:02:34Z</time>
      </trkpt>
      <trkpt lat="44.31288" lon="5.69146">
        <ele>687.4</ele>
        <time>2021-09-08T06:02:36Z</time>
      </trkpt>
      <trkpt lat="44.3129" lon="5.69152">
        <ele>687.4</ele>
        <time>2021-09-08T06:02:37Z</time>
      </trkpt>
      <trkpt lat="44.31291" lon="5.69162">
        <ele>687.5</ele>
        <time>2021-09-08T06:02:38Z</time>
      </trkpt>
      <trkpt lat="44.31292" lon="5.6917">
        <ele>687.5</ele>
        <time>2021-09-08T06:02:40Z</time>
      </trkpt>
      <trkpt lat="44.31294" lon="5.69176">
        <ele>687.5</ele>
        <time>2021-09-08T06:02:41Z</time>
      </trkpt>
      <trkpt lat="44.31296" lon="5.69183">
        <ele>687.5</ele>
        <time>2021-09-08T06:02:42Z</time>
      </trkpt>
      <trkpt lat="44.313" lon="5.69189">
        <ele>687.6</ele>
        <time>2021-09-08T06:02:44Z</time>
      </trkpt>
      <trkpt lat="44.31303" lon="5.69194">
        <ele>687.6</ele>
        <time>2021-09-08T06:02:45Z</time>
      </trkpt>
      <trkpt lat="44.31311" lon="5.69202">
        <ele>687.7</ele>
        <time>2021-09-08T06:02:47Z</time>
      </trkpt>
      <trkpt lat="44.31318" lon="5.69209">
        <ele>687.9</ele>
        <time>2021-09-08T06:02:48Z</time>
      </trkpt>
      <trkpt lat="44.31325" lon="5.69213">
        <ele>688.1</ele>
        <time>2021-09-08T06:02:50Z</time>
      </trkpt>
      <trkpt lat="44.31328" lon="5.69214">
        <ele>688.2</ele>
        <time>2021-09-08T06:02:51Z</time>
      </trkpt>
      <trkpt lat="44.3133" lon="5.69215">
        <ele>688.3</ele>
        <time>2021-09-08T06:02:52Z</time>
      </trkpt>
      <trkpt lat="44.31334" lon="5.69217">
        <ele>688.4</ele>
        <time>2021-09-08T06:02:53Z</time>
      </trkpt>
      <trkpt lat="44.31335" lon="5.69218">
        <ele>688.4</ele>
        <time>2021-09-08T06:02:54Z</time>
      </trkpt>
      <trkpt lat="44.31336" lon="5.69219">
        <ele>688.4</ele>
        <time>2021-09-08T06:02:55Z</time>
      </trkpt>
      <trkpt lat="44.31338" lon="5.69221">
        <ele>688.5</ele>
        <time>2021-09-08T06:02:57Z</time>
      </trkpt>
      <trkpt lat="44.3134" lon="5.69224">
        <ele>688.6</ele>
        <time>2021-09-08T06:02:58Z</time>
      </trkpt>
      <trkpt lat="44.31344" lon="5.69229">
        <ele>688.8</ele>
        <time>2021-09-08T06:02:59Z</time>
      </trkpt>
      <trkpt lat="44.31349" lon="5.69235">
        <ele>689</ele>
        <time>2021-09-08T06:03:00Z</time>
      </trkpt>
      <trkpt lat="44.31352" lon="5.6924">
        <ele>689.2</ele>
        <time>2021-09-08T06:03:01Z</time>
      </trkpt>
      <trkpt lat="44.31358" lon="5.69246">
        <ele>689.6</ele>
        <time>2021-09-08T06:03:03Z</time>
      </trkpt>
      <trkpt lat="44.31364" lon="5.69249">
        <ele>691.8</ele>
        <time>2021-09-08T06:03:04Z</time>
      </trkpt>
      <trkpt lat="44.31371" lon="5.69251">
        <ele>692.1</ele>
        <time>2021-09-08T06:03:05Z</time>
      </trkpt>
      <trkpt lat="44.314" lon="5.69249">
        <ele>693.7</ele>
        <time>2021-09-08T06:03:07Z</time>
      </trkpt>
      <trkpt lat="44.31408" lon="5.69249">
        <ele>693.8</ele>
        <time>2021-09-08T06:03:09Z</time>
      </trkpt>
      <trkpt lat="44.31412" lon="5.69249">
        <ele>693.8</ele>
        <time>2021-09-08T06:03:10Z</time>
      </trkpt>
      <trkpt lat="44.31414" lon="5.69249">
        <ele>693.8</ele>
        <time>2021-09-08T06:03:11Z</time>
      </trkpt>
      <trkpt lat="44.31421" lon="5.69249">
        <ele>693.8</ele>
        <time>2021-09-08T06:03:13Z</time>
      </trkpt>
      <trkpt lat="44.31424" lon="5.69249">
        <ele>693.8</ele>
        <time>2021-09-08T06:03:14Z</time>
      </trkpt>
      <trkpt lat="44.31426" lon="5.6925">
        <ele>693.8</ele>
        <time>2021-09-08T06:03:15Z</time>
      </trkpt>
      <trkpt lat="44.31427" lon="5.6925">
        <ele>693.8</ele>
        <time>2021-09-08T06:03:17Z</time>
      </trkpt>
      <trkpt lat="44.31429" lon="5.69252">
        <ele>693.8</ele>
        <time>2021-09-08T06:03:18Z</time>
      </trkpt>
      <trkpt lat="44.3143" lon="5.69253">
        <ele>693.8</ele>
        <time>2021-09-08T06:03:19Z</time>
      </trkpt>
      <trkpt lat="44.31363" lon="5.69399">
        <ele>691.8</ele>
        <time>2021-09-08T06:03:48Z</time>
      </trkpt>
      <trkpt lat="44.31361" lon="5.69409">
        <ele>691.4</ele>
        <time>2021-09-08T06:03:50Z</time>
      </trkpt>
      <trkpt lat="44.31358" lon="5.69417">
        <ele>691</ele>
        <time>2021-09-08T06:03:51Z</time>
      </trkpt>
      <trkpt lat="44.31355" lon="5.69425">
        <ele>690.6</ele>
        <time>2021-09-08T06:03:53Z</time>
      </trkpt>
      <trkpt lat="44.31352" lon="5.69431">
        <ele>690.4</ele>
        <time>2021-09-08T06:03:54Z</time>
      </trkpt>
      <trkpt lat="44.31349" lon="5.69435">
        <ele>690.1</ele>
        <time>2021-09-08T06:03:55Z</time>
      </trkpt>
      <trkpt lat="44.31348" lon="5.69438">
        <ele>690</ele>
        <time>2021-09-08T06:03:56Z</time>
      </trkpt>
      <trkpt lat="44.31348" lon="5.6944">
        <ele>689.9</ele>
        <time>2021-09-08T06:03:57Z</time>
      </trkpt>
      <trkpt lat="44.31346" lon="5.6945">
        <ele>689.5</ele>
        <time>2021-09-08T06:03:59Z</time>
      </trkpt>
      <trkpt lat="44.31342" lon="5.69453">
        <ele>689.2</ele>
        <time>2021-09-08T06:04:00Z</time>
      </trkpt>
      <trkpt lat="44.31338" lon="5.69456">
        <ele>689</ele>
        <time>2021-09-08T06:04:01Z</time>
      </trkpt>
      <trkpt lat="44.31331" lon="5.69459">
        <ele>688.7</ele>
        <time>2021-09-08T06:04:03Z</time>
      </trkpt>
      <trkpt lat="44.31321" lon="5.69464">
        <ele>688.2</ele>
        <time>2021-09-08T06:04:04Z</time>
      </trkpt>
      <trkpt lat="44.31317" lon="5.69466">
        <ele>688</ele>
        <time>2021-09-08T06:04:05Z</time>
      </trkpt>
      <trkpt lat="44.31312" lon="5.69468">
        <ele>687.8</ele>
        <time>2021-09-08T06:04:07Z</time>
      </trkpt>
      <trkpt lat="44.31308" lon="5.69469">
        <ele>687.6</ele>
        <time>2021-09-08T06:04:08Z</time>
      </trkpt>
      <trkpt lat="44.31301" lon="5.69469">
        <ele>687.5</ele>
        <time>2021-09-08T06:04:09Z</time>
      </trkpt>
      <trkpt lat="44.31293" lon="5.69462">
        <ele>687.2</ele>
        <time>2021-09-08T06:04:11Z</time>
      </trkpt>
      <trkpt lat="44.3129" lon="5.69458">
        <ele>687.2</ele>
        <time>2021-09-08T06:04:12Z</time>
      </trkpt>
      <trkpt lat="44.31287" lon="5.69452">
        <ele>687.1</ele>
        <time>2021-09-08T06:04:14Z</time>
      </trkpt>
      <trkpt lat="44.31285" lon="5.69444">
        <ele>687.1</ele>
        <time>2021-09-08T06:04:16Z</time>
      </trkpt>
      <trkpt lat="44.31284" lon="5.69442">
        <ele>687.1</ele>
        <time>2021-09-08T06:04:17Z</time>
      </trkpt>
      <trkpt lat="44.31282" lon="5.69437">
        <ele>687</ele>
        <time>2021-09-08T06:04:19Z</time>
      </trkpt>
      <trkpt lat="44.31282" lon="5.69435">
        <ele>687</ele>
        <time>2021-09-08T06:04:21Z</time>
      </trkpt>
      <trkpt lat="44.31282" lon="5.69431">
        <ele>686.9</ele>
        <time>2021-09-08T06:04:23Z</time>
      </trkpt>
      <trkpt lat="44.3128" lon="5.69426">
        <ele>686.8</ele>
        <time>2021-09-08T06:04:25Z</time>
      </trkpt>
      <trkpt lat="44.31279" lon="5.69423">
        <ele>686.8</ele>
        <time>2021-09-08T06:04:26Z</time>
      </trkpt>
      <trkpt lat="44.31278" lon="5.69416">
        <ele>686.7</ele>
        <time>2021-09-08T06:04:28Z</time>
      </trkpt>
      <trkpt lat="44.31279" lon="5.69414">
        <ele>686.7</ele>
        <time>2021-09-08T06:04:29Z</time>
      </trkpt>
      <trkpt lat="44.31282" lon="5.69406">
        <ele>686.5</ele>
        <time>2021-09-08T06:04:31Z</time>
      </trkpt>
      <trkpt lat="44.3128" lon="5.69407">
        <ele>686.5</ele>
        <time>2021-09-08T06:04:33Z</time>
      </trkpt>
      <trkpt lat="44.31279" lon="5.69407">
        <ele>686.5</ele>
        <time>2021-09-08T06:04:34Z</time>
      </trkpt>
      <trkpt lat="44.31279" lon="5.69408">
        <ele>686.5</ele>
        <time>2021-09-08T06:04:35Z</time>
      </trkpt>
      <trkpt lat="44.31277" lon="5.69412">
        <ele>686.4</ele>
        <time>2021-09-08T06:04:37Z</time>
      </trkpt>
      <trkpt lat="44.31276" lon="5.69414">
        <ele>686.4</ele>
        <time>2021-09-08T06:04:39Z</time>
      </trkpt>
      <trkpt lat="44.3128" lon="5.69429">
        <ele>686.3</ele>
        <time>2021-09-08T06:04:45Z</time>
      </trkpt>
      <trkpt lat="44.31283" lon="5.69432">
        <ele>686.4</ele>
        <time>2021-09-08T06:04:46Z</time>
      </trkpt>
      <trkpt lat="44.31288" lon="5.69433">
        <ele>686.5</ele>
        <time>2021-09-08T06:04:48Z</time>
      </trkpt>
      <trkpt lat="44.31287" lon="5.69432">
        <ele>686.5</ele>
        <time>2021-09-08T06:04:49Z</time>
      </trkpt>
      <trkpt lat="44.31285" lon="5.69431">
        <ele>686.5</ele>
        <time>2021-09-08T06:04:51Z</time>
      </trkpt>
      <trkpt lat="44.31283" lon="5.69431">
        <ele>686.5</ele>
        <time>2021-09-08T06:04:52Z</time>
      </trkpt>
      <trkpt lat="44.31283" lon="5.69431">
        <ele>686.5</ele>
        <time>2021-09-08T06:04:53Z</time>
      </trkpt>
      <trkpt lat="44.31284" lon="5.69431">
        <ele>686.6</ele>
        <time>2021-09-08T06:04:55Z</time>
      </trkpt>
      <trkpt lat="44.31285" lon="5.6943">
        <ele>686.6</ele>
        <time>2021-09-08T06:04:57Z</time>
      </trkpt>
      <trkpt lat="44.31285" lon="5.6943">
        <ele>686.6</ele>
        <time>2021-09-08T06:04:58Z</time>
      </trkpt>
      <trkpt lat="44.31286" lon="5.6943">
        <ele>686.6</ele>
        <time>2021-09-08T06:04:59Z</time>
      </trkpt>
      <trkpt lat="44.31283" lon="5.69438">
        <ele>686.7</ele>
        <time>2021-09-08T06:10:39Z</time>
      </trkpt>
      <trkpt lat="44.31287" lon="5.69443">
        <ele>686.8</ele>
        <time>2021-09-08T06:10:41Z</time>
      </trkpt>
      <trkpt lat="44.31291" lon="5.69445">
        <ele>687.2</ele>
        <time>2021-09-08T06:10:42Z</time>
      </trkpt>
      <trkpt lat="44.31295" lon="5.69448">
        <ele>687.4</ele>
        <time>2021-09-08T06:10:43Z</time>
      </trkpt>
      <trkpt lat="44.31299" lon="5.69449">
        <ele>687.5</ele>
        <time>2021-09-08T06:10:45Z</time>
      </trkpt>
      <trkpt lat="44.31301" lon="5.6945">
        <ele>687.6</ele>
        <time>2021-09-08T06:10:46Z</time>
      </trkpt>
      <trkpt lat="44.31306" lon="5.6945">
        <ele>687.7</ele>
        <time>2021-09-08T06:10:48Z</time>
      </trkpt>
      <trkpt lat="44.3131" lon="5.69448">
        <ele>687.9</ele>
        <time>2021-09-08T06:10:49Z</time>
      </trkpt>
      <trkpt lat="44.31311" lon="5.69447">
        <ele>688</ele>
        <time>2021-09-08T06:10:50Z</time>
      </trkpt>
      <trkpt lat="44.31315" lon="5.69444">
        <ele>688.2</ele>
        <time>2021-09-08T06:10:52Z</time>
      </trkpt>
      <trkpt lat="44.31317" lon="5.69443">
        <ele>688.3</ele>
        <time>2021-09-08T06:10:54Z</time>
      </trkpt>
      <trkpt lat="44.31318" lon="5.69442">
        <ele>688.4</ele>
        <time>2021-09-08T06:10:55Z</time>
      </trkpt>
      <trkpt lat="44.3132" lon="5.69441">
        <ele>688.5</ele>
        <time>2021-09-08T06:10:56Z</time>
      </trkpt>
      <trkpt lat="44.31322" lon="5.69441">
        <ele>688.6</ele>
        <time>2021-09-08T06:10:58Z</time>
      </trkpt>
      <trkpt lat="44.31325" lon="5.69441">
        <ele>688.8</ele>
        <time>2021-09-08T06:10:59Z</time>
      </trkpt>
      <trkpt lat="44.31326" lon="5.69441">
        <ele>688.8</ele>
        <time>2021-09-08T06:11:00Z</time>
      </trkpt>
      <trkpt lat="44.31328" lon="5.6944">
        <ele>688.9</ele>
        <time>2021-09-08T06:11:01Z</time>
      </trkpt>
      <trkpt lat="44.3133" lon="5.6944">
        <ele>689</ele>
        <time>2021-09-08T06:11:03Z</time>
      </trkpt>
      <trkpt lat="44.31333" lon="5.6944">
        <ele>689.2</ele>
        <time>2021-09-08T06:11:04Z</time>
      </trkpt>
      <trkpt lat="44.31335" lon="5.69441">
        <ele>689.3</ele>
        <time>2021-09-08T06:11:05Z</time>
      </trkpt>
      <trkpt lat="44.31336" lon="5.69441">
        <ele>689.4</ele>
        <time>2021-09-08T06:11:07Z</time>
      </trkpt>
      <trkpt lat="44.31337" lon="5.69441">
        <ele>689.5</ele>
        <time>2021-09-08T06:11:08Z</time>
      </trkpt>
      <trkpt lat="44.31338" lon="5.69441">
        <ele>689.5</ele>
        <time>2021-09-08T06:11:09Z</time>
      </trkpt>
      <trkpt lat="44.31339" lon="5.69443">
        <ele>691.2</ele>
        <time>2021-09-08T06:11:10Z</time>
      </trkpt>
      <trkpt lat="44.3134" lon="5.69445">
        <ele>691.2</ele>
        <time>2021-09-08T06:11:11Z</time>
      </trkpt>
      <trkpt lat="44.3134" lon="5.69448">
        <ele>691.3</ele>
        <time>2021-09-08T06:11:13Z</time>
      </trkpt>
      <trkpt lat="44.31341" lon="5.69452">
        <ele>691.3</ele>
        <time>2021-09-08T06:11:14Z</time>
      </trkpt>
      <trkpt lat="44.31339" lon="5.69456">
        <ele>691.4</ele>
        <time>2021-09-08T06:11:16Z</time>
      </trkpt>
      <trkpt lat="44.31338" lon="5.69457">
        <ele>691.4</ele>
        <time>2021-09-08T06:11:18Z</time>
      </trkpt>
      <trkpt lat="44.31338" lon="5.69457">
        <ele>691.4</ele>
        <time>2021-09-08T06:11:19Z</time>
      </trkpt>
      <trkpt lat="44.31337" lon="5.69458">
        <ele>691.4</ele>
        <time>2021-09-08T06:11:21Z</time>
      </trkpt>
      <trkpt lat="44.31337" lon="5.6946">
        <ele>691.4</ele>
        <time>2021-09-08T06:11:22Z</time>
      </trkpt>
      <trkpt lat="44.31337" lon="5.69464">
        <ele>691.5</ele>
        <time>2021-09-08T06:11:24Z</time>
      </trkpt>
      <trkpt lat="44.31338" lon="5.69465">
        <ele>691.5</ele>
        <time>2021-09-08T06:11:25Z</time>
      </trkpt>
      <trkpt lat="44.31339" lon="5.69468">
        <ele>691.5</ele>
        <time>2021-09-08T06:11:27Z</time>
      </trkpt>
      <trkpt lat="44.3134" lon="5.69475">
        <ele>691.6</ele>
        <time>2021-09-08T06:11:29Z</time>
      </trkpt>
      <trkpt lat="44.3134" lon="5.69483">
        <ele>691.7</ele>
        <time>2021-09-08T06:11:30Z</time>
      </trkpt>
      <trkpt lat="44.3134" lon="5.69488">
        <ele>691.8</ele>
        <time>2021-09-08T06:11:31Z</time>
      </trkpt>
      <trkpt lat="44.31341" lon="5.69497">
        <ele>691.9</ele>
        <time>2021-09-08T06:11:33Z</time>
      </trkpt>
      <trkpt lat="44.31343" lon="5.69505">
        <ele>692</ele>
        <time>2021-09-08T06:11:34Z</time>
      </trkpt>
      <trkpt lat="44.31344" lon="5.69514">
        <ele>692.1</ele>
        <time>2021-09-08T06:11:35Z</time>
      </trkpt>
      <trkpt lat="44.31344" lon="5.69524">
        <ele>692.2</ele>
        <time>2021-09-08T06:11:37Z</time>
      </trkpt>
      <trkpt lat="44.31342" lon="5.69532">
        <ele>692.3</ele>
        <time>2021-09-08T06:11:39Z</time>
      </trkpt>
      <trkpt lat="44.31341" lon="5.69536">
        <ele>692.3</ele>
        <time>2021-09-08T06:11:40Z</time>
      </trkpt>
      <trkpt lat="44.3134" lon="5.69541">
        <ele>692.4</ele>
        <time>2021-09-08T06:11:41Z</time>
      </trkpt>
      <trkpt lat="44.31337" lon="5.6955">
        <ele>692.5</ele>
        <time>2021-09-08T06:11:43Z</time>
      </trkpt>
      <trkpt lat="44.31336" lon="5.69554">
        <ele>692.5</ele>
        <time>2021-09-08T06:11:44Z</time>
      </trkpt>
      <trkpt lat="44.31335" lon="5.69559">
        <ele>692.5</ele>
        <time>2021-09-08T06:11:45Z</time>
      </trkpt>
      <trkpt lat="44.31334" lon="5.69566">
        <ele>692.6</ele>
        <time>2021-09-08T06:11:47Z</time>
      </trkpt>
      <trkpt lat="44.31334" lon="5.6957">
        <ele>692.6</ele>
        <time>2021-09-08T06:11:48Z</time>
      </trkpt>
      <trkpt lat="44.31335" lon="5.69574">
        <ele>692.6</ele>
        <time>2021-09-08T06:11:49Z</time>
      </trkpt>
      <trkpt lat="44.31337" lon="5.69583">
        <ele>692.6</ele>
        <time>2021-09-08T06:11:51Z</time>
      </trkpt>
      <trkpt lat="44.31336" lon="5.69588">
        <ele>692.6</ele>
        <time>2021-09-08T06:11:52Z</time>
      </trkpt>
      <trkpt lat="44.31336" lon="5.69592">
        <ele>692.5</ele>
        <time>2021-09-08T06:11:53Z</time>
      </trkpt>
      <trkpt lat="44.31335" lon="5.696">
        <ele>692.5</ele>
        <time>2021-09-08T06:11:55Z</time>
      </trkpt>
      <trkpt lat="44.31334" lon="5.69606">
        <ele>692.5</ele>
        <time>2021-09-08T06:11:56Z</time>
      </trkpt>
      <trkpt lat="44.31333" lon="5.69614">
        <ele>692.4</ele>
        <time>2021-09-08T06:11:58Z</time>
      </trkpt>
      <trkpt lat="44.31333" lon="5.69622">
        <ele>692.4</ele>
        <time>2021-09-08T06:11:59Z</time>
      </trkpt>
      <trkpt lat="44.31335" lon="5.69633">
        <ele>692.3</ele>
        <time>2021-09-08T06:12:01Z</time>
      </trkpt>
      <trkpt lat="44.31335" lon="5.69641">
        <ele>692.2</ele>
        <time>2021-09-08T06:12:02Z</time>
      </trkpt>
      <trkpt lat="44.31335" lon="5.69647">
        <ele>692.1</ele>
        <time>2021-09-08T06:12:03Z</time>
      </trkpt>
      <trkpt lat="44.31332" lon="5.69662">
        <ele>692</ele>
        <time>2021-09-08T06:12:05Z</time>
      </trkpt>
      <trkpt lat="44.3133" lon="5.69668">
        <ele>691.9</ele>
        <time>2021-09-08T06:12:07Z</time>
      </trkpt>
      <trkpt lat="44.31329" lon="5.69681">
        <ele>691.9</ele>
        <time>2021-09-08T06:12:08Z</time>
      </trkpt>
      <trkpt lat="44.31328" lon="5.69697">
        <ele>691.8</ele>
        <time>2021-09-08T06:12:10Z</time>
      </trkpt>
      <trkpt lat="44.31327" lon="5.69704">
        <ele>691.8</ele>
        <time>2021-09-08T06:12:11Z</time>
      </trkpt>
      <trkpt lat="44.31326" lon="5.69717">
        <ele>691.7</ele>
        <time>2021-09-08T06:12:13Z</time>
      </trkpt>
      <trkpt lat="44.31325" lon="5.69724">
        <ele>691.7</ele>
        <time>2021-09-08T06:12:15Z</time>
      </trkpt>
      <trkpt lat="44.31322" lon="5.69737">
        <ele>691.6</ele>
        <time>2021-09-08T06:12:16Z</time>
      </trkpt>
      <trkpt lat="44.31321" lon="5.69744">
        <ele>691.6</ele>
        <time>2021-09-08T06:12:17Z</time>
      </trkpt>
      <trkpt lat="44.31321" lon="5.69759">
        <ele>691.5</ele>
        <time>2021-09-08T06:12:19Z</time>
      </trkpt>
      <trkpt lat="44.31321" lon="5.69772">
        <ele>691.5</ele>
        <time>2021-09-08T06:12:21Z</time>
      </trkpt>
      <trkpt lat="44.3132" lon="5.69785">
        <ele>691.5</ele>
        <time>2021-09-08T06:12:23Z</time>
      </trkpt>
      <trkpt lat="44.31318" lon="5.69799">
        <ele>691.5</ele>
        <time>2021-09-08T06:12:25Z</time>
      </trkpt>
      <trkpt lat="44.31317" lon="5.69815">
        <ele>691.5</ele>
        <time>2021-09-08T06:12:27Z</time>
      </trkpt>
      <trkpt lat="44.31317" lon="5.69824">
        <ele>691.5</ele>
        <time>2021-09-08T06:12:28Z</time>
      </trkpt>
      <trkpt lat="44.31317" lon="5.69831">
        <ele>691.5</ele>
        <time>2021-09-08T06:12:29Z</time>
      </trkpt>
      <trkpt lat="44.3132" lon="5.69846">
        <ele>691.5</ele>
        <time>2021-09-08T06:12:31Z</time>
      </trkpt>
      <trkpt lat="44.31322" lon="5.69854">
        <ele>691.5</ele>
        <time>2021-09-08T06:12:32Z</time>
      </trkpt>
      <trkpt lat="44.31327" lon="5.69867">
        <ele>691.5</ele>
        <time>2021-09-08T06:12:34Z</time>
      </trkpt>
      <trkpt lat="44.3133" lon="5.6988">
        <ele>691.5</ele>
        <time>2021-09-08T06:12:36Z</time>
      </trkpt>
      <trkpt lat="44.31331" lon="5.69887">
        <ele>691.5</ele>
        <time>2021-09-08T06:12:37Z</time>
      </trkpt>
      <trkpt lat="44.31334" lon="5.69898">
        <ele>691.6</ele>
        <time>2021-09-08T06:12:39Z</time>
      </trkpt>
      <trkpt lat="44.31335" lon="5.69904">
        <ele>691.6</ele>
        <time>2021-09-08T06:12:40Z</time>
      </trkpt>
      <trkpt lat="44.31336" lon="5.69911">
        <ele>691.6</ele>
        <time>2021-09-08T06:12:41Z</time>
      </trkpt>
      <trkpt lat="44.31339" lon="5.69924">
        <ele>691.7</ele>
        <time>2021-09-08T06:12:43Z</time>
      </trkpt>
      <trkpt lat="44.31343" lon="5.69936">
        <ele>691.8</ele>
        <time>2021-09-08T06:12:45Z</time>
      </trkpt>
      <trkpt lat="44.31345" lon="5.69942">
        <ele>691.9</ele>
        <time>2021-09-08T06:12:46Z</time>
      </trkpt>
      <trkpt lat="44.31347" lon="5.69949">
        <ele>691.9</ele>
        <time>2021-09-08T06:12:47Z</time>
      </trkpt>
      <trkpt lat="44.3135" lon="5.69962">
        <ele>692.1</ele>
        <time>2021-09-08T06:12:49Z</time>
      </trkpt>
      <trkpt lat="44.31352" lon="5.69971">
        <ele>692.3</ele>
        <time>2021-09-08T06:12:51Z</time>
      </trkpt>
      <trkpt lat="44.31353" lon="5.69976">
        <ele>692.4</ele>
        <time>2021-09-08T06:12:52Z</time>
      </trkpt>
      <trkpt lat="44.31354" lon="5.69982">
        <ele>692.5</ele>
        <time>2021-09-08T06:12:53Z</time>
      </trkpt>
      <trkpt lat="44.31357" lon="5.69997">
        <ele>692.7</ele>
        <time>2021-09-08T06:12:55Z</time>
      </trkpt>
      <trkpt lat="44.31359" lon="5.70007">
        <ele>692.8</ele>
        <time>2021-09-08T06:12:57Z</time>
      </trkpt>
      <trkpt lat="44.3136" lon="5.70011">
        <ele>692.9</ele>
        <time>2021-09-08T06:12:58Z</time>
      </trkpt>
      <trkpt lat="44.31362" lon="5.70018">
        <ele>692.9</ele>
        <time>2021-09-08T06:13:00Z</time>
      </trkpt>
      <trkpt lat="44.31363" lon="5.70023">
        <ele>693</ele>
        <time>2021-09-08T06:13:01Z</time>
      </trkpt>
      <trkpt lat="44.31365" lon="5.7003">
        <ele>693</ele>
        <time>2021-09-08T06:13:02Z</time>
      </trkpt>
      <trkpt lat="44.31367" lon="5.70035">
        <ele>693</ele>
        <time>2021-09-08T06:13:03Z</time>
      </trkpt>
      <trkpt lat="44.31367" lon="5.70041">
        <ele>693.1</ele>
        <time>2021-09-08T06:13:04Z</time>
      </trkpt>
      <trkpt lat="44.31367" lon="5.70046">
        <ele>693.1</ele>
        <time>2021-09-08T06:13:05Z</time>
      </trkpt>
      <trkpt lat="44.31369" lon="5.70054">
        <ele>693.1</ele>
        <time>2021-09-08T06:13:07Z</time>
      </trkpt>
      <trkpt lat="44.31369" lon="5.70059">
        <ele>693</ele>
        <time>2021-09-08T06:13:08Z</time>
      </trkpt>
      <trkpt lat="44.3137" lon="5.70065">
        <ele>693</ele>
        <time>2021-09-08T06:13:09Z</time>
      </trkpt>
      <trkpt lat="44.31371" lon="5.70073">
        <ele>692.9</ele>
        <time>2021-09-08T06:13:10Z</time>
      </trkpt>
      <trkpt lat="44.31373" lon="5.7008">
        <ele>692.9</ele>
        <time>2021-09-08T06:13:11Z</time>
      </trkpt>
      <trkpt lat="44.31376" lon="5.70088">
        <ele>692.7</ele>
        <time>2021-09-08T06:13:13Z</time>
      </trkpt>
      <trkpt lat="44.3138" lon="5.70095">
        <ele>692.6</ele>
        <time>2021-09-08T06:13:14Z</time>
      </trkpt>
      <trkpt lat="44.31386" lon="5.70111">
        <ele>692.3</ele>
        <time>2021-09-08T06:13:16Z</time>
      </trkpt>
      <trkpt lat="44.31389" lon="5.70119">
        <ele>692.1</ele>
        <time>2021-09-08T06:13:17Z</time>
      </trkpt>
      <trkpt lat="44.31395" lon="5.70135">
        <ele>691.7</ele>
        <time>2021-09-08T06:13:19Z</time>
      </trkpt>
      <trkpt lat="44.314" lon="5.70151">
        <ele>691.2</ele>
        <time>2021-09-08T06:13:21Z</time>
      </trkpt>
      <trkpt lat="44.31403" lon="5.70161">
        <ele>690.9</ele>
        <time>2021-09-08T06:13:22Z</time>
      </trkpt>
      <trkpt lat="44.31406" lon="5.70171">
        <ele>690.7</ele>
        <time>2021-09-08T06:13:23Z</time>
      </trkpt>
      <trkpt lat="44.31411" lon="5.70189">
        <ele>690.1</ele>
        <time>2021-09-08T06:13:25Z</time>
      </trkpt>
      <trkpt lat="44.31415" lon="5.70207">
        <ele>689.5</ele>
        <time>2021-09-08T06:13:27Z</time>
      </trkpt>
      <trkpt lat="44.31417" lon="5.70217">
        <ele>689.2</ele>
        <time>2021-09-08T06:13:28Z</time>
      </trkpt>
      <trkpt lat="44.31417" lon="5.70227">
        <ele>688.9</ele>
        <time>2021-09-08T06:13:29Z</time>
      </trkpt>
      <trkpt lat="44.31418" lon="5.70248">
        <ele>688.2</ele>
        <time>2021-09-08T06:13:31Z</time>
      </trkpt>
      <trkpt lat="44.31418" lon="5.70258">
        <ele>687.9</ele>
        <time>2021-09-08T06:13:32Z</time>
      </trkpt>
      <trkpt lat="44.31418" lon="5.70279">
        <ele>687.2</ele>
        <time>2021-09-08T06:13:34Z</time>
      </trkpt>
      <trkpt lat="44.31418" lon="5.7029">
        <ele>686.9</ele>
        <time>2021-09-08T06:13:35Z</time>
      </trkpt>
      <trkpt lat="44.31419" lon="5.7031">
        <ele>686.3</ele>
        <time>2021-09-08T06:13:37Z</time>
      </trkpt>
      <trkpt lat="44.31421" lon="5.70331">
        <ele>685.8</ele>
        <time>2021-09-08T06:13:39Z</time>
      </trkpt>
      <trkpt lat="44.31426" lon="5.70352">
        <ele>685.2</ele>
        <time>2021-09-08T06:13:41Z</time>
      </trkpt>
      <trkpt lat="44.31429" lon="5.70362">
        <ele>685</ele>
        <time>2021-09-08T06:13:42Z</time>
      </trkpt>
      <trkpt lat="44.31434" lon="5.70372">
        <ele>684.7</ele>
        <time>2021-09-08T06:13:43Z</time>
      </trkpt>
      <trkpt lat="44.31444" lon="5.70391">
        <ele>684.2</ele>
        <time>2021-09-08T06:13:45Z</time>
      </trkpt>
      <trkpt lat="44.31453" lon="5.7041">
        <ele>683.9</ele>
        <time>2021-09-08T06:13:47Z</time>
      </trkpt>
      <trkpt lat="44.31462" lon="5.70427">
        <ele>683.6</ele>
        <time>2021-09-08T06:13:49Z</time>
      </trkpt>
      <trkpt lat="44.3147" lon="5.70447">
        <ele>683.3</ele>
        <time>2021-09-08T06:13:51Z</time>
      </trkpt>
      <trkpt lat="44.31474" lon="5.70457">
        <ele>683.1</ele>
        <time>2021-09-08T06:13:52Z</time>
      </trkpt>
      <trkpt lat="44.31478" lon="5.70479">
        <ele>682.8</ele>
        <time>2021-09-08T06:13:54Z</time>
      </trkpt>
      <trkpt lat="44.3148" lon="5.7049">
        <ele>682.7</ele>
        <time>2021-09-08T06:13:55Z</time>
      </trkpt>
      <trkpt lat="44.31481" lon="5.705">
        <ele>682.6</ele>
        <time>2021-09-08T06:13:56Z</time>
      </trkpt>
      <trkpt lat="44.31485" lon="5.7052">
        <ele>682.4</ele>
        <time>2021-09-08T06:13:58Z</time>
      </trkpt>
      <trkpt lat="44.31486" lon="5.7053">
        <ele>682.3</ele>
        <time>2021-09-08T06:13:59Z</time>
      </trkpt>
      <trkpt lat="44.31488" lon="5.70539">
        <ele>682.2</ele>
        <time>2021-09-08T06:14:00Z</time>
      </trkpt>
      <trkpt lat="44.31493" lon="5.70558">
        <ele>681.9</ele>
        <time>2021-09-08T06:14:02Z</time>
      </trkpt>
      <trkpt lat="44.31502" lon="5.70577">
        <ele>681.5</ele>
        <time>2021-09-08T06:14:04Z</time>
      </trkpt>
      <trkpt lat="44.31508" lon="5.70586">
        <ele>681.2</ele>
        <time>2021-09-08T06:14:05Z</time>
      </trkpt>
      <trkpt lat="44.31518" lon="5.70603">
        <ele>680.7</ele>
        <time>2021-09-08T06:14:07Z</time>
      </trkpt>
      <trkpt lat="44.31528" lon="5.70621">
        <ele>680.1</ele>
        <time>2021-09-08T06:14:09Z</time>
      </trkpt>
      <trkpt lat="44.31533" lon="5.7063">
        <ele>679.7</ele>
        <time>2021-09-08T06:14:10Z</time>
      </trkpt>
      <trkpt lat="44.31538" lon="5.7064">
        <ele>679.4</ele>
        <time>2021-09-08T06:14:11Z</time>
      </trkpt>
      <trkpt lat="44.31549" lon="5.70659">
        <ele>678.6</ele>
        <time>2021-09-08T06:14:13Z</time>
      </trkpt>
      <trkpt lat="44.31556" lon="5.7068">
        <ele>677.8</ele>
        <time>2021-09-08T06:14:15Z</time>
      </trkpt>
      <trkpt lat="44.31559" lon="5.70691">
        <ele>677.4</ele>
        <time>2021-09-08T06:14:16Z</time>
      </trkpt>
      <trkpt lat="44.31561" lon="5.70703">
        <ele>677</ele>
        <time>2021-09-08T06:14:17Z</time>
      </trkpt>
      <trkpt lat="44.31563" lon="5.70727">
        <ele>676.1</ele>
        <time>2021-09-08T06:14:19Z</time>
      </trkpt>
      <trkpt lat="44.31567" lon="5.70752">
        <ele>675.2</ele>
        <time>2021-09-08T06:14:21Z</time>
      </trkpt>
      <trkpt lat="44.31567" lon="5.70764">
        <ele>674.8</ele>
        <time>2021-09-08T06:14:22Z</time>
      </trkpt>
      <trkpt lat="44.31567" lon="5.70789">
        <ele>674.1</ele>
        <time>2021-09-08T06:14:24Z</time>
      </trkpt>
      <trkpt lat="44.31563" lon="5.70814">
        <ele>673.3</ele>
        <time>2021-09-08T06:14:26Z</time>
      </trkpt>
      <trkpt lat="44.31558" lon="5.7084">
        <ele>672.6</ele>
        <time>2021-09-08T06:14:28Z</time>
      </trkpt>
      <trkpt lat="44.31555" lon="5.70853">
        <ele>672.4</ele>
        <time>2021-09-08T06:14:29Z</time>
      </trkpt>
      <trkpt lat="44.31551" lon="5.70877">
        <ele>671.9</ele>
        <time>2021-09-08T06:14:31Z</time>
      </trkpt>
      <trkpt lat="44.31546" lon="5.70901">
        <ele>671.8</ele>
        <time>2021-09-08T06:14:33Z</time>
      </trkpt>
      <trkpt lat="44.31541" lon="5.70924">
        <ele>671.6</ele>
        <time>2021-09-08T06:14:35Z</time>
      </trkpt>
      <trkpt lat="44.31538" lon="5.70934">
        <ele>671.5</ele>
        <time>2021-09-08T06:14:36Z</time>
      </trkpt>
      <trkpt lat="44.31535" lon="5.70945">
        <ele>671.3</ele>
        <time>2021-09-08T06:14:37Z</time>
      </trkpt>
      <trkpt lat="44.31529" lon="5.70965">
        <ele>671.2</ele>
        <time>2021-09-08T06:14:39Z</time>
      </trkpt>
      <trkpt lat="44.31525" lon="5.70986">
        <ele>671</ele>
        <time>2021-09-08T06:14:41Z</time>
      </trkpt>
      <trkpt lat="44.31522" lon="5.71005">
        <ele>670.8</ele>
        <time>2021-09-08T06:14:43Z</time>
      </trkpt>
      <trkpt lat="44.31521" lon="5.71025">
        <ele>670.6</ele>
        <time>2021-09-08T06:14:45Z</time>
      </trkpt>
      <trkpt lat="44.31521" lon="5.71035">
        <ele>670.4</ele>
        <time>2021-09-08T06:14:46Z</time>
      </trkpt>
      <trkpt lat="44.31523" lon="5.71054">
        <ele>670.1</ele>
        <time>2021-09-08T06:14:48Z</time>
      </trkpt>
      <trkpt lat="44.31524" lon="5.71063">
        <ele>669.9</ele>
        <time>2021-09-08T06:14:49Z</time>
      </trkpt>
      <trkpt lat="44.31528" lon="5.71081">
        <ele>669.6</ele>
        <time>2021-09-08T06:14:51Z</time>
      </trkpt>
      <trkpt lat="44.3153" lon="5.71091">
        <ele>669.4</ele>
        <time>2021-09-08T06:14:52Z</time>
      </trkpt>
      <trkpt lat="44.31533" lon="5.71101">
        <ele>669.1</ele>
        <time>2021-09-08T06:14:53Z</time>
      </trkpt>
      <trkpt lat="44.31536" lon="5.71112">
        <ele>668.8</ele>
        <time>2021-09-08T06:14:54Z</time>
      </trkpt>
      <trkpt lat="44.31539" lon="5.71123">
        <ele>668.5</ele>
        <time>2021-09-08T06:14:55Z</time>
      </trkpt>
      <trkpt lat="44.31547" lon="5.71145">
        <ele>667.9</ele>
        <time>2021-09-08T06:14:57Z</time>
      </trkpt>
      <trkpt lat="44.3155" lon="5.71156">
        <ele>667.7</ele>
        <time>2021-09-08T06:14:58Z</time>
      </trkpt>
      <trkpt lat="44.31555" lon="5.71179">
        <ele>667.3</ele>
        <time>2021-09-08T06:15:00Z</time>
      </trkpt>
      <trkpt lat="44.31558" lon="5.7119">
        <ele>667.1</ele>
        <time>2021-09-08T06:15:01Z</time>
      </trkpt>
      <trkpt lat="44.31563" lon="5.71213">
        <ele>666.9</ele>
        <time>2021-09-08T06:15:03Z</time>
      </trkpt>
      <trkpt lat="44.31566" lon="5.71235">
        <ele>666.6</ele>
        <time>2021-09-08T06:15:05Z</time>
      </trkpt>
      <trkpt lat="44.31571" lon="5.71255">
        <ele>666</ele>
        <time>2021-09-08T06:15:07Z</time>
      </trkpt>
      <trkpt lat="44.31573" lon="5.71276">
        <ele>665.2</ele>
        <time>2021-09-08T06:15:09Z</time>
      </trkpt>
      <trkpt lat="44.31575" lon="5.71287">
        <ele>664.9</ele>
        <time>2021-09-08T06:15:10Z</time>
      </trkpt>
      <trkpt lat="44.3158" lon="5.71309">
        <ele>664.3</ele>
        <time>2021-09-08T06:15:12Z</time>
      </trkpt>
      <trkpt lat="44.31582" lon="5.71319">
        <ele>664</ele>
        <time>2021-09-08T06:15:13Z</time>
      </trkpt>
      <trkpt lat="44.31587" lon="5.71341">
        <ele>663.5</ele>
        <time>2021-09-08T06:15:15Z</time>
      </trkpt>
      <trkpt lat="44.31589" lon="5.71353">
        <ele>663.3</ele>
        <time>2021-09-08T06:15:16Z</time>
      </trkpt>
      <trkpt lat="44.31595" lon="5.71376">
        <ele>662.8</ele>
        <time>2021-09-08T06:15:18Z</time>
      </trkpt>
      <trkpt lat="44.31598" lon="5.71387">
        <ele>662.6</ele>
        <time>2021-09-08T06:15:19Z</time>
      </trkpt>
      <trkpt lat="44.31606" lon="5.71409">
        <ele>662.2</ele>
        <time>2021-09-08T06:15:21Z</time>
      </trkpt>
      <trkpt lat="44.31613" lon="5.7143">
        <ele>662</ele>
        <time>2021-09-08T06:15:23Z</time>
      </trkpt>
      <trkpt lat="44.31621" lon="5.71452">
        <ele>661.8</ele>
        <time>2021-09-08T06:15:25Z</time>
      </trkpt>
      <trkpt lat="44.31629" lon="5.71472">
        <ele>661.6</ele>
        <time>2021-09-08T06:15:27Z</time>
      </trkpt>
      <trkpt lat="44.31633" lon="5.71482">
        <ele>661.6</ele>
        <time>2021-09-08T06:15:28Z</time>
      </trkpt>
      <trkpt lat="44.31638" lon="5.71493">
        <ele>661.6</ele>
        <time>2021-09-08T06:15:29Z</time>
      </trkpt>
      <trkpt lat="44.31647" lon="5.71512">
        <ele>661.6</ele>
        <time>2021-09-08T06:15:31Z</time>
      </trkpt>
      <trkpt lat="44.31652" lon="5.71528">
        <ele>661.5</ele>
        <time>2021-09-08T06:15:33Z</time>
      </trkpt>
      <trkpt lat="44.31656" lon="5.71544">
        <ele>661.5</ele>
        <time>2021-09-08T06:15:35Z</time>
      </trkpt>
      <trkpt lat="44.31658" lon="5.71553">
        <ele>661.5</ele>
        <time>2021-09-08T06:15:36Z</time>
      </trkpt>
      <trkpt lat="44.3166" lon="5.71561">
        <ele>661.5</ele>
        <time>2021-09-08T06:15:37Z</time>
      </trkpt>
      <trkpt lat="44.31666" lon="5.71578">
        <ele>661.4</ele>
        <time>2021-09-08T06:15:39Z</time>
      </trkpt>
      <trkpt lat="44.31673" lon="5.71594">
        <ele>661.4</ele>
        <time>2021-09-08T06:15:41Z</time>
      </trkpt>
      <trkpt lat="44.31677" lon="5.71602">
        <ele>661.4</ele>
        <time>2021-09-08T06:15:42Z</time>
      </trkpt>
      <trkpt lat="44.3168" lon="5.71609">
        <ele>661.5</ele>
        <time>2021-09-08T06:15:43Z</time>
      </trkpt>
      <trkpt lat="44.31686" lon="5.71624">
        <ele>661.5</ele>
        <time>2021-09-08T06:15:45Z</time>
      </trkpt>
      <trkpt lat="44.31689" lon="5.71631">
        <ele>661.6</ele>
        <time>2021-09-08T06:15:46Z</time>
      </trkpt>
      <trkpt lat="44.31692" lon="5.71638">
        <ele>661.6</ele>
        <time>2021-09-08T06:15:47Z</time>
      </trkpt>
      <trkpt lat="44.31696" lon="5.71645">
        <ele>661.7</ele>
        <time>2021-09-08T06:15:48Z</time>
      </trkpt>
      <trkpt lat="44.317" lon="5.71652">
        <ele>661.7</ele>
        <time>2021-09-08T06:15:49Z</time>
      </trkpt>
      <trkpt lat="44.31707" lon="5.71665">
        <ele>661.8</ele>
        <time>2021-09-08T06:15:51Z</time>
      </trkpt>
      <trkpt lat="44.3171" lon="5.71671">
        <ele>661.8</ele>
        <time>2021-09-08T06:15:52Z</time>
      </trkpt>
      <trkpt lat="44.3172" lon="5.71683">
        <ele>662</ele>
        <time>2021-09-08T06:15:54Z</time>
      </trkpt>
      <trkpt lat="44.31723" lon="5.71689">
        <ele>662</ele>
        <time>2021-09-08T06:15:55Z</time>
      </trkpt>
      <trkpt lat="44.31729" lon="5.71701">
        <ele>662.1</ele>
        <time>2021-09-08T06:15:57Z</time>
      </trkpt>
      <trkpt lat="44.31733" lon="5.71708">
        <ele>662.1</ele>
        <time>2021-09-08T06:15:58Z</time>
      </trkpt>
      <trkpt lat="44.31738" lon="5.71721">
        <ele>662</ele>
        <time>2021-09-08T06:16:00Z</time>
      </trkpt>
      <trkpt lat="44.3174" lon="5.71728">
        <ele>662</ele>
        <time>2021-09-08T06:16:01Z</time>
      </trkpt>
      <trkpt lat="44.31741" lon="5.71741">
        <ele>661.9</ele>
        <time>2021-09-08T06:16:03Z</time>
      </trkpt>
      <trkpt lat="44.31741" lon="5.71755">
        <ele>661.9</ele>
        <time>2021-09-08T06:16:05Z</time>
      </trkpt>
      <trkpt lat="44.31741" lon="5.71762">
        <ele>661.8</ele>
        <time>2021-09-08T06:16:06Z</time>
      </trkpt>
      <trkpt lat="44.31741" lon="5.71769">
        <ele>661.7</ele>
        <time>2021-09-08T06:16:07Z</time>
      </trkpt>
      <trkpt lat="44.31741" lon="5.71785">
        <ele>661.5</ele>
        <time>2021-09-08T06:16:09Z</time>
      </trkpt>
      <trkpt lat="44.3174" lon="5.71794">
        <ele>661.4</ele>
        <time>2021-09-08T06:16:10Z</time>
      </trkpt>
      <trkpt lat="44.3174" lon="5.71801">
        <ele>661.3</ele>
        <time>2021-09-08T06:16:11Z</time>
      </trkpt>
      <trkpt lat="44.31741" lon="5.71818">
        <ele>661</ele>
        <time>2021-09-08T06:16:13Z</time>
      </trkpt>
      <trkpt lat="44.31743" lon="5.71833">
        <ele>660.8</ele>
        <time>2021-09-08T06:16:15Z</time>
      </trkpt>
      <trkpt lat="44.31746" lon="5.7185">
        <ele>660.5</ele>
        <time>2021-09-08T06:16:17Z</time>
      </trkpt>
      <trkpt lat="44.31747" lon="5.71867">
        <ele>660.3</ele>
        <time>2021-09-08T06:16:19Z</time>
      </trkpt>
      <trkpt lat="44.31748" lon="5.71885">
        <ele>660.1</ele>
        <time>2021-09-08T06:16:21Z</time>
      </trkpt>
      <trkpt lat="44.31748" lon="5.71893">
        <ele>660</ele>
        <time>2021-09-08T06:16:22Z</time>
      </trkpt>
      <trkpt lat="44.31749" lon="5.71909">
        <ele>660</ele>
        <time>2021-09-08T06:16:24Z</time>
      </trkpt>
      <trkpt lat="44.31751" lon="5.71916">
        <ele>660</ele>
        <time>2021-09-08T06:16:25Z</time>
      </trkpt>
      <trkpt lat="44.31756" lon="5.7193">
        <ele>660</ele>
        <time>2021-09-08T06:16:27Z</time>
      </trkpt>
      <trkpt lat="44.31759" lon="5.71937">
        <ele>660</ele>
        <time>2021-09-08T06:16:28Z</time>
      </trkpt>
      <trkpt lat="44.31761" lon="5.71945">
        <ele>660</ele>
        <time>2021-09-08T06:16:29Z</time>
      </trkpt>
      <trkpt lat="44.31767" lon="5.71959">
        <ele>660</ele>
        <time>2021-09-08T06:16:31Z</time>
      </trkpt>
      <trkpt lat="44.31772" lon="5.71974">
        <ele>659.9</ele>
        <time>2021-09-08T06:16:33Z</time>
      </trkpt>
      <trkpt lat="44.31776" lon="5.71989">
        <ele>659.8</ele>
        <time>2021-09-08T06:16:35Z</time>
      </trkpt>
      <trkpt lat="44.31777" lon="5.71996">
        <ele>659.8</ele>
        <time>2021-09-08T06:16:36Z</time>
      </trkpt>
      <trkpt lat="44.31779" lon="5.72002">
        <ele>659.8</ele>
        <time>2021-09-08T06:16:37Z</time>
      </trkpt>
      <trkpt lat="44.31785" lon="5.72015">
        <ele>659.7</ele>
        <time>2021-09-08T06:16:39Z</time>
      </trkpt>
      <trkpt lat="44.31788" lon="5.72022">
        <ele>659.6</ele>
        <time>2021-09-08T06:16:40Z</time>
      </trkpt>
      <trkpt lat="44.31791" lon="5.72029">
        <ele>659.6</ele>
        <time>2021-09-08T06:16:41Z</time>
      </trkpt>
      <trkpt lat="44.31795" lon="5.72044">
        <ele>659.5</ele>
        <time>2021-09-08T06:16:43Z</time>
      </trkpt>
      <trkpt lat="44.31798" lon="5.72058">
        <ele>659.4</ele>
        <time>2021-09-08T06:16:45Z</time>
      </trkpt>
      <trkpt lat="44.31799" lon="5.72065">
        <ele>659.3</ele>
        <time>2021-09-08T06:16:46Z</time>
      </trkpt>
      <trkpt lat="44.31803" lon="5.72079">
        <ele>659.2</ele>
        <time>2021-09-08T06:16:48Z</time>
      </trkpt>
      <trkpt lat="44.31805" lon="5.72086">
        <ele>659.1</ele>
        <time>2021-09-08T06:16:49Z</time>
      </trkpt>
      <trkpt lat="44.3181" lon="5.72102">
        <ele>659</ele>
        <time>2021-09-08T06:16:51Z</time>
      </trkpt>
      <trkpt lat="44.31813" lon="5.7211">
        <ele>658.9</ele>
        <time>2021-09-08T06:16:52Z</time>
      </trkpt>
      <trkpt lat="44.31815" lon="5.72118">
        <ele>658.8</ele>
        <time>2021-09-08T06:16:53Z</time>
      </trkpt>
      <trkpt lat="44.31821" lon="5.72133">
        <ele>658.7</ele>
        <time>2021-09-08T06:16:55Z</time>
      </trkpt>
      <trkpt lat="44.31824" lon="5.72149">
        <ele>658.6</ele>
        <time>2021-09-08T06:16:57Z</time>
      </trkpt>
      <trkpt lat="44.31828" lon="5.72164">
        <ele>658.5</ele>
        <time>2021-09-08T06:16:59Z</time>
      </trkpt>
      <trkpt lat="44.3183" lon="5.72172">
        <ele>658.5</ele>
        <time>2021-09-08T06:17:00Z</time>
      </trkpt>
      <trkpt lat="44.31833" lon="5.72187">
        <ele>658.4</ele>
        <time>2021-09-08T06:17:02Z</time>
      </trkpt>
      <trkpt lat="44.31837" lon="5.72203">
        <ele>658.3</ele>
        <time>2021-09-08T06:17:04Z</time>
      </trkpt>
      <trkpt lat="44.31839" lon="5.7221">
        <ele>658.2</ele>
        <time>2021-09-08T06:17:05Z</time>
      </trkpt>
      <trkpt lat="44.31841" lon="5.72218">
        <ele>658.1</ele>
        <time>2021-09-08T06:17:06Z</time>
      </trkpt>
      <trkpt lat="44.31842" lon="5.72225">
        <ele>658.1</ele>
        <time>2021-09-08T06:17:07Z</time>
      </trkpt>
      <trkpt lat="44.31846" lon="5.72241">
        <ele>658</ele>
        <time>2021-09-08T06:17:09Z</time>
      </trkpt>
      <trkpt lat="44.31849" lon="5.72249">
        <ele>657.9</ele>
        <time>2021-09-08T06:17:10Z</time>
      </trkpt>
      <trkpt lat="44.31851" lon="5.72257">
        <ele>657.8</ele>
        <time>2021-09-08T06:17:11Z</time>
      </trkpt>
      <trkpt lat="44.31855" lon="5.72272">
        <ele>657.7</ele>
        <time>2021-09-08T06:17:13Z</time>
      </trkpt>
      <trkpt lat="44.3186" lon="5.72288">
        <ele>657.6</ele>
        <time>2021-09-08T06:17:15Z</time>
      </trkpt>
      <trkpt lat="44.31861" lon="5.72296">
        <ele>657.5</ele>
        <time>2021-09-08T06:17:16Z</time>
      </trkpt>
      <trkpt lat="44.31864" lon="5.72311">
        <ele>657.4</ele>
        <time>2021-09-08T06:17:18Z</time>
      </trkpt>
      <trkpt lat="44.31867" lon="5.72326">
        <ele>657.3</ele>
        <time>2021-09-08T06:17:20Z</time>
      </trkpt>
      <trkpt lat="44.31871" lon="5.72341">
        <ele>657.1</ele>
        <time>2021-09-08T06:17:22Z</time>
      </trkpt>
      <trkpt lat="44.31874" lon="5.72349">
        <ele>656.9</ele>
        <time>2021-09-08T06:17:23Z</time>
      </trkpt>
      <trkpt lat="44.31877" lon="5.72356">
        <ele>656.8</ele>
        <time>2021-09-08T06:17:24Z</time>
      </trkpt>
      <trkpt lat="44.31881" lon="5.72371">
        <ele>656.5</ele>
        <time>2021-09-08T06:17:26Z</time>
      </trkpt>
      <trkpt lat="44.31888" lon="5.72386">
        <ele>656.1</ele>
        <time>2021-09-08T06:17:28Z</time>
      </trkpt>
      <trkpt lat="44.31892" lon="5.72393">
        <ele>655.9</ele>
        <time>2021-09-08T06:17:29Z</time>
      </trkpt>
      <trkpt lat="44.31895" lon="5.72401">
        <ele>655.7</ele>
        <time>2021-09-08T06:17:30Z</time>
      </trkpt>
      <trkpt lat="44.31899" lon="5.72408">
        <ele>655.5</ele>
        <time>2021-09-08T06:17:31Z</time>
      </trkpt>
      <trkpt lat="44.31908" lon="5.72424">
        <ele>655.1</ele>
        <time>2021-09-08T06:17:33Z</time>
      </trkpt>
      <trkpt lat="44.31913" lon="5.72432">
        <ele>654.8</ele>
        <time>2021-09-08T06:17:34Z</time>
      </trkpt>
      <trkpt lat="44.31922" lon="5.72448">
        <ele>654.5</ele>
        <time>2021-09-08T06:17:36Z</time>
      </trkpt>
      <trkpt lat="44.31927" lon="5.72456">
        <ele>654.4</ele>
        <time>2021-09-08T06:17:37Z</time>
      </trkpt>
      <trkpt lat="44.31936" lon="5.72472">
        <ele>654.3</ele>
        <time>2021-09-08T06:17:39Z</time>
      </trkpt>
      <trkpt lat="44.3194" lon="5.7248">
        <ele>654.3</ele>
        <time>2021-09-08T06:17:40Z</time>
      </trkpt>
      <trkpt lat="44.31948" lon="5.72496">
        <ele>654.3</ele>
        <time>2021-09-08T06:17:42Z</time>
      </trkpt>
      <trkpt lat="44.31952" lon="5.72504">
        <ele>654.3</ele>
        <time>2021-09-08T06:17:43Z</time>
      </trkpt>
      <trkpt lat="44.31959" lon="5.7252">
        <ele>654.3</ele>
        <time>2021-09-08T06:17:45Z</time>
      </trkpt>
      <trkpt lat="44.31963" lon="5.72527">
        <ele>654.2</ele>
        <time>2021-09-08T06:17:46Z</time>
      </trkpt>
      <trkpt lat="44.31969" lon="5.72541">
        <ele>654.1</ele>
        <time>2021-09-08T06:17:48Z</time>
      </trkpt>
      <trkpt lat="44.31971" lon="5.72548">
        <ele>654</ele>
        <time>2021-09-08T06:17:49Z</time>
      </trkpt>
      <trkpt lat="44.31974" lon="5.72556">
        <ele>654</ele>
        <time>2021-09-08T06:17:50Z</time>
      </trkpt>
      <trkpt lat="44.31978" lon="5.72571">
        <ele>653.8</ele>
        <time>2021-09-08T06:17:52Z</time>
      </trkpt>
      <trkpt lat="44.31979" lon="5.72579">
        <ele>653.7</ele>
        <time>2021-09-08T06:17:53Z</time>
      </trkpt>
      <trkpt lat="44.3198" lon="5.72595">
        <ele>653.5</ele>
        <time>2021-09-08T06:17:55Z</time>
      </trkpt>
      <trkpt lat="44.31981" lon="5.72603">
        <ele>653.5</ele>
        <time>2021-09-08T06:17:56Z</time>
      </trkpt>
      <trkpt lat="44.31982" lon="5.7262">
        <ele>653.3</ele>
        <time>2021-09-08T06:17:58Z</time>
      </trkpt>
      <trkpt lat="44.31982" lon="5.72628">
        <ele>653.2</ele>
        <time>2021-09-08T06:17:59Z</time>
      </trkpt>
      <trkpt lat="44.31983" lon="5.72637">
        <ele>653.1</ele>
        <time>2021-09-08T06:18:00Z</time>
      </trkpt>
      <trkpt lat="44.31984" lon="5.72645">
        <ele>653</ele>
        <time>2021-09-08T06:18:01Z</time>
      </trkpt>
      <trkpt lat="44.31987" lon="5.72662">
        <ele>652.7</ele>
        <time>2021-09-08T06:18:03Z</time>
      </trkpt>
      <trkpt lat="44.31988" lon="5.7267">
        <ele>652.6</ele>
        <time>2021-09-08T06:18:04Z</time>
      </trkpt>
      <trkpt lat="44.3199" lon="5.72677">
        <ele>652.4</ele>
        <time>2021-09-08T06:18:05Z</time>
      </trkpt>
      <trkpt lat="44.31994" lon="5.72693">
        <ele>652.1</ele>
        <time>2021-09-08T06:18:07Z</time>
      </trkpt>
      <trkpt lat="44.31998" lon="5.72709">
        <ele>651.7</ele>
        <time>2021-09-08T06:18:09Z</time>
      </trkpt>
      <trkpt lat="44.31999" lon="5.72717">
        <ele>651.6</ele>
        <time>2021-09-08T06:18:10Z</time>
      </trkpt>
      <trkpt lat="44.32" lon="5.72726">
        <ele>651.4</ele>
        <time>2021-09-08T06:18:11Z</time>
      </trkpt>
      <trkpt lat="44.32002" lon="5.72742">
        <ele>651.1</ele>
        <time>2021-09-08T06:18:13Z</time>
      </trkpt>
      <trkpt lat="44.32003" lon="5.72751">
        <ele>650.9</ele>
        <time>2021-09-08T06:18:14Z</time>
      </trkpt>
      <trkpt lat="44.32005" lon="5.72767">
        <ele>650.6</ele>
        <time>2021-09-08T06:18:16Z</time>
      </trkpt>
      <trkpt lat="44.32006" lon="5.72775">
        <ele>650.5</ele>
        <time>2021-09-08T06:18:17Z</time>
      </trkpt>
      <trkpt lat="44.32007" lon="5.72784">
        <ele>650.3</ele>
        <time>2021-09-08T06:18:18Z</time>
      </trkpt>
      <trkpt lat="44.32009" lon="5.72792">
        <ele>650.1</ele>
        <time>2021-09-08T06:18:19Z</time>
      </trkpt>
      <trkpt lat="44.32011" lon="5.72809">
        <ele>649.8</ele>
        <time>2021-09-08T06:18:21Z</time>
      </trkpt>
      <trkpt lat="44.32014" lon="5.72824">
        <ele>649.6</ele>
        <time>2021-09-08T06:18:23Z</time>
      </trkpt>
      <trkpt lat="44.32016" lon="5.72839">
        <ele>649.3</ele>
        <time>2021-09-08T06:18:25Z</time>
      </trkpt>
      <trkpt lat="44.32015" lon="5.72856">
        <ele>649</ele>
        <time>2021-09-08T06:18:27Z</time>
      </trkpt>
      <trkpt lat="44.32016" lon="5.72864">
        <ele>648.9</ele>
        <time>2021-09-08T06:18:28Z</time>
      </trkpt>
      <trkpt lat="44.3202" lon="5.72881">
        <ele>648.6</ele>
        <time>2021-09-08T06:18:30Z</time>
      </trkpt>
      <trkpt lat="44.32021" lon="5.72891">
        <ele>648.5</ele>
        <time>2021-09-08T06:18:31Z</time>
      </trkpt>
      <trkpt lat="44.32023" lon="5.72899">
        <ele>648.4</ele>
        <time>2021-09-08T06:18:32Z</time>
      </trkpt>
      <trkpt lat="44.32026" lon="5.72912">
        <ele>648.3</ele>
        <time>2021-09-08T06:18:34Z</time>
      </trkpt>
      <trkpt lat="44.32027" lon="5.72922">
        <ele>648.2</ele>
        <time>2021-09-08T06:18:36Z</time>
      </trkpt>
      <trkpt lat="44.32028" lon="5.72933">
        <ele>648.2</ele>
        <time>2021-09-08T06:18:38Z</time>
      </trkpt>
      <trkpt lat="44.32029" lon="5.72946">
        <ele>648.1</ele>
        <time>2021-09-08T06:18:40Z</time>
      </trkpt>
      <trkpt lat="44.32031" lon="5.7296">
        <ele>648</ele>
        <time>2021-09-08T06:18:42Z</time>
      </trkpt>
      <trkpt lat="44.32033" lon="5.72975">
        <ele>647.9</ele>
        <time>2021-09-08T06:18:44Z</time>
      </trkpt>
      <trkpt lat="44.32033" lon="5.72983">
        <ele>647.8</ele>
        <time>2021-09-08T06:18:45Z</time>
      </trkpt>
      <trkpt lat="44.32034" lon="5.72991">
        <ele>647.8</ele>
        <time>2021-09-08T06:18:46Z</time>
      </trkpt>
      <trkpt lat="44.32037" lon="5.73008">
        <ele>647.6</ele>
        <time>2021-09-08T06:18:48Z</time>
      </trkpt>
      <trkpt lat="44.32037" lon="5.73028">
        <ele>647.4</ele>
        <time>2021-09-08T06:18:50Z</time>
      </trkpt>
      <trkpt lat="44.32039" lon="5.73046">
        <ele>647.3</ele>
        <time>2021-09-08T06:18:52Z</time>
      </trkpt>
      <trkpt lat="44.32041" lon="5.73063">
        <ele>647.2</ele>
        <time>2021-09-08T06:18:54Z</time>
      </trkpt>
      <trkpt lat="44.32043" lon="5.73071">
        <ele>647.2</ele>
        <time>2021-09-08T06:18:55Z</time>
      </trkpt>
      <trkpt lat="44.32045" lon="5.73087">
        <ele>647.1</ele>
        <time>2021-09-08T06:18:57Z</time>
      </trkpt>
      <trkpt lat="44.32046" lon="5.73096">
        <ele>647.1</ele>
        <time>2021-09-08T06:18:58Z</time>
      </trkpt>
      <trkpt lat="44.32048" lon="5.73113">
        <ele>647</ele>
        <time>2021-09-08T06:19:00Z</time>
      </trkpt>
      <trkpt lat="44.3205" lon="5.73122">
        <ele>646.9</ele>
        <time>2021-09-08T06:19:01Z</time>
      </trkpt>
      <trkpt lat="44.32052" lon="5.73139">
        <ele>646.8</ele>
        <time>2021-09-08T06:19:03Z</time>
      </trkpt>
      <trkpt lat="44.32053" lon="5.73147">
        <ele>646.8</ele>
        <time>2021-09-08T06:19:04Z</time>
      </trkpt>
      <trkpt lat="44.32054" lon="5.73154">
        <ele>646.8</ele>
        <time>2021-09-08T06:19:05Z</time>
      </trkpt>
      <trkpt lat="44.32057" lon="5.73169">
        <ele>646.7</ele>
        <time>2021-09-08T06:19:07Z</time>
      </trkpt>
      <trkpt lat="44.32058" lon="5.73176">
        <ele>646.7</ele>
        <time>2021-09-08T06:19:08Z</time>
      </trkpt>
      <trkpt lat="44.32058" lon="5.73192">
        <ele>646.5</ele>
        <time>2021-09-08T06:19:10Z</time>
      </trkpt>
      <trkpt lat="44.32059" lon="5.73201">
        <ele>646.4</ele>
        <time>2021-09-08T06:19:11Z</time>
      </trkpt>
      <trkpt lat="44.32061" lon="5.73218">
        <ele>646.2</ele>
        <time>2021-09-08T06:19:13Z</time>
      </trkpt>
      <trkpt lat="44.32064" lon="5.73236">
        <ele>646.1</ele>
        <time>2021-09-08T06:19:15Z</time>
      </trkpt>
      <trkpt lat="44.32066" lon="5.73245">
        <ele>646</ele>
        <time>2021-09-08T06:19:16Z</time>
      </trkpt>
      <trkpt lat="44.32069" lon="5.73261">
        <ele>646</ele>
        <time>2021-09-08T06:19:18Z</time>
      </trkpt>
      <trkpt lat="44.3207" lon="5.73269">
        <ele>645.9</ele>
        <time>2021-09-08T06:19:19Z</time>
      </trkpt>
      <trkpt lat="44.32074" lon="5.73283">
        <ele>645.9</ele>
        <time>2021-09-08T06:19:21Z</time>
      </trkpt>
      <trkpt lat="44.32076" lon="5.7329">
        <ele>645.9</ele>
        <time>2021-09-08T06:19:22Z</time>
      </trkpt>
      <trkpt lat="44.32078" lon="5.73298">
        <ele>646</ele>
        <time>2021-09-08T06:19:23Z</time>
      </trkpt>
      <trkpt lat="44.32083" lon="5.7331">
        <ele>646</ele>
        <time>2021-09-08T06:19:25Z</time>
      </trkpt>
      <trkpt lat="44.32089" lon="5.73323">
        <ele>646</ele>
        <time>2021-09-08T06:19:27Z</time>
      </trkpt>
      <trkpt lat="44.32091" lon="5.73329">
        <ele>646.1</ele>
        <time>2021-09-08T06:19:28Z</time>
      </trkpt>
      <trkpt lat="44.32096" lon="5.73341">
        <ele>646.1</ele>
        <time>2021-09-08T06:19:30Z</time>
      </trkpt>
      <trkpt lat="44.32098" lon="5.73348">
        <ele>646.1</ele>
        <time>2021-09-08T06:19:31Z</time>
      </trkpt>
      <trkpt lat="44.32102" lon="5.73362">
        <ele>646.1</ele>
        <time>2021-09-08T06:19:33Z</time>
      </trkpt>
      <trkpt lat="44.32107" lon="5.73376">
        <ele>646.1</ele>
        <time>2021-09-08T06:19:36Z</time>
      </trkpt>
      <trkpt lat="44.32109" lon="5.73384">
        <ele>646.1</ele>
        <time>2021-09-08T06:19:37Z</time>
      </trkpt>
      <trkpt lat="44.32111" lon="5.73392">
        <ele>646.1</ele>
        <time>2021-09-08T06:19:38Z</time>
      </trkpt>
      <trkpt lat="44.32117" lon="5.73408">
        <ele>646.1</ele>
        <time>2021-09-08T06:19:40Z</time>
      </trkpt>
      <trkpt lat="44.32121" lon="5.73416">
        <ele>646</ele>
        <time>2021-09-08T06:19:41Z</time>
      </trkpt>
      <trkpt lat="44.32125" lon="5.73424">
        <ele>646</ele>
        <time>2021-09-08T06:19:42Z</time>
      </trkpt>
      <trkpt lat="44.32127" lon="5.73432">
        <ele>646</ele>
        <time>2021-09-08T06:19:43Z</time>
      </trkpt>
      <trkpt lat="44.3213" lon="5.7344">
        <ele>645.9</ele>
        <time>2021-09-08T06:19:44Z</time>
      </trkpt>
      <trkpt lat="44.32134" lon="5.73456">
        <ele>645.9</ele>
        <time>2021-09-08T06:19:46Z</time>
      </trkpt>
      <trkpt lat="44.32139" lon="5.7347">
        <ele>645.8</ele>
        <time>2021-09-08T06:19:48Z</time>
      </trkpt>
      <trkpt lat="44.32141" lon="5.73478">
        <ele>645.7</ele>
        <time>2021-09-08T06:19:49Z</time>
      </trkpt>
      <trkpt lat="44.32143" lon="5.73485">
        <ele>645.7</ele>
        <time>2021-09-08T06:19:50Z</time>
      </trkpt>
      <trkpt lat="44.32148" lon="5.735">
        <ele>645.6</ele>
        <time>2021-09-08T06:19:52Z</time>
      </trkpt>
      <trkpt lat="44.32151" lon="5.73516">
        <ele>645.4</ele>
        <time>2021-09-08T06:19:54Z</time>
      </trkpt>
      <trkpt lat="44.32153" lon="5.73523">
        <ele>645.3</ele>
        <time>2021-09-08T06:19:55Z</time>
      </trkpt>
      <trkpt lat="44.32154" lon="5.73529">
        <ele>645.2</ele>
        <time>2021-09-08T06:19:56Z</time>
      </trkpt>
      <trkpt lat="44.32158" lon="5.73542">
        <ele>645.1</ele>
        <time>2021-09-08T06:19:58Z</time>
      </trkpt>
      <trkpt lat="44.32161" lon="5.73547">
        <ele>645</ele>
        <time>2021-09-08T06:19:59Z</time>
      </trkpt>
      <trkpt lat="44.32164" lon="5.73553">
        <ele>644.9</ele>
        <time>2021-09-08T06:20:00Z</time>
      </trkpt>
      <trkpt lat="44.32171" lon="5.73565">
        <ele>644.7</ele>
        <time>2021-09-08T06:20:02Z</time>
      </trkpt>
      <trkpt lat="44.32177" lon="5.73578">
        <ele>644.5</ele>
        <time>2021-09-08T06:20:04Z</time>
      </trkpt>
      <trkpt lat="44.32179" lon="5.73585">
        <ele>644.4</ele>
        <time>2021-09-08T06:20:05Z</time>
      </trkpt>
      <trkpt lat="44.32181" lon="5.73592">
        <ele>644.3</ele>
        <time>2021-09-08T06:20:06Z</time>
      </trkpt>
      <trkpt lat="44.32187" lon="5.73607">
        <ele>644.1</ele>
        <time>2021-09-08T06:20:08Z</time>
      </trkpt>
      <trkpt lat="44.32193" lon="5.73622">
        <ele>643.9</ele>
        <time>2021-09-08T06:20:10Z</time>
      </trkpt>
      <trkpt lat="44.32196" lon="5.7363">
        <ele>643.9</ele>
        <time>2021-09-08T06:20:11Z</time>
      </trkpt>
      <trkpt lat="44.32201" lon="5.73647">
        <ele>643.7</ele>
        <time>2021-09-08T06:20:13Z</time>
      </trkpt>
      <trkpt lat="44.32204" lon="5.73656">
        <ele>643.7</ele>
        <time>2021-09-08T06:20:14Z</time>
      </trkpt>
      <trkpt lat="44.32211" lon="5.73673">
        <ele>643.5</ele>
        <time>2021-09-08T06:20:16Z</time>
      </trkpt>
      <trkpt lat="44.32215" lon="5.73682">
        <ele>643.5</ele>
        <time>2021-09-08T06:20:17Z</time>
      </trkpt>
      <trkpt lat="44.32221" lon="5.73696">
        <ele>643.5</ele>
        <time>2021-09-08T06:20:19Z</time>
      </trkpt>
      <trkpt lat="44.32224" lon="5.73704">
        <ele>643.5</ele>
        <time>2021-09-08T06:20:20Z</time>
      </trkpt>
      <trkpt lat="44.32227" lon="5.73712">
        <ele>643.5</ele>
        <time>2021-09-08T06:20:21Z</time>
      </trkpt>
      <trkpt lat="44.32233" lon="5.73728">
        <ele>643.4</ele>
        <time>2021-09-08T06:20:23Z</time>
      </trkpt>
      <trkpt lat="44.32235" lon="5.73736">
        <ele>643.4</ele>
        <time>2021-09-08T06:20:24Z</time>
      </trkpt>
      <trkpt lat="44.32236" lon="5.73742">
        <ele>643.4</ele>
        <time>2021-09-08T06:20:25Z</time>
      </trkpt>
      <trkpt lat="44.32237" lon="5.73748">
        <ele>643.3</ele>
        <time>2021-09-08T06:20:26Z</time>
      </trkpt>
      <trkpt lat="44.32239" lon="5.73759">
        <ele>643.2</ele>
        <time>2021-09-08T06:20:28Z</time>
      </trkpt>
      <trkpt lat="44.32242" lon="5.73771">
        <ele>643.1</ele>
        <time>2021-09-08T06:20:30Z</time>
      </trkpt>
      <trkpt lat="44.32244" lon="5.73777">
        <ele>643</ele>
        <time>2021-09-08T06:20:31Z</time>
      </trkpt>
      <trkpt lat="44.32247" lon="5.73783">
        <ele>642.9</ele>
        <time>2021-09-08T06:20:32Z</time>
      </trkpt>
      <trkpt lat="44.32251" lon="5.73795">
        <ele>642.8</ele>
        <time>2021-09-08T06:20:34Z</time>
      </trkpt>
      <trkpt lat="44.32253" lon="5.73801">
        <ele>642.7</ele>
        <time>2021-09-08T06:20:35Z</time>
      </trkpt>
      <trkpt lat="44.32255" lon="5.73807">
        <ele>642.6</ele>
        <time>2021-09-08T06:20:36Z</time>
      </trkpt>
      <trkpt lat="44.32258" lon="5.73813">
        <ele>642.5</ele>
        <time>2021-09-08T06:20:37Z</time>
      </trkpt>
      <trkpt lat="44.32261" lon="5.73819">
        <ele>642.4</ele>
        <time>2021-09-08T06:20:38Z</time>
      </trkpt>
      <trkpt lat="44.32266" lon="5.73833">
        <ele>642.3</ele>
        <time>2021-09-08T06:20:40Z</time>
      </trkpt>
      <trkpt lat="44.3227" lon="5.73839">
        <ele>642.2</ele>
        <time>2021-09-08T06:20:41Z</time>
      </trkpt>
      <trkpt lat="44.32272" lon="5.73844">
        <ele>642.1</ele>
        <time>2021-09-08T06:20:42Z</time>
      </trkpt>
      <trkpt lat="44.32278" lon="5.73855">
        <ele>642</ele>
        <time>2021-09-08T06:20:44Z</time>
      </trkpt>
      <trkpt lat="44.32284" lon="5.73868">
        <ele>641.9</ele>
        <time>2021-09-08T06:20:46Z</time>
      </trkpt>
      <trkpt lat="44.32287" lon="5.73874">
        <ele>641.8</ele>
        <time>2021-09-08T06:20:47Z</time>
      </trkpt>
      <trkpt lat="44.3229" lon="5.73882">
        <ele>641.7</ele>
        <time>2021-09-08T06:20:48Z</time>
      </trkpt>
      <trkpt lat="44.32298" lon="5.73898">
        <ele>641.5</ele>
        <time>2021-09-08T06:20:50Z</time>
      </trkpt>
      <trkpt lat="44.32303" lon="5.73915">
        <ele>641.2</ele>
        <time>2021-09-08T06:20:52Z</time>
      </trkpt>
      <trkpt lat="44.32306" lon="5.73923">
        <ele>641</ele>
        <time>2021-09-08T06:20:53Z</time>
      </trkpt>
      <trkpt lat="44.3231" lon="5.7393">
        <ele>640.7</ele>
        <time>2021-09-08T06:20:54Z</time>
      </trkpt>
      <trkpt lat="44.32317" lon="5.73945">
        <ele>640.2</ele>
        <time>2021-09-08T06:20:56Z</time>
      </trkpt>
      <trkpt lat="44.32321" lon="5.73953">
        <ele>640</ele>
        <time>2021-09-08T06:20:57Z</time>
      </trkpt>
      <trkpt lat="44.32327" lon="5.73968">
        <ele>639.4</ele>
        <time>2021-09-08T06:20:59Z</time>
      </trkpt>
      <trkpt lat="44.3233" lon="5.73976">
        <ele>639.1</ele>
        <time>2021-09-08T06:21:00Z</time>
      </trkpt>
      <trkpt lat="44.32333" lon="5.73984">
        <ele>638.7</ele>
        <time>2021-09-08T06:21:01Z</time>
      </trkpt>
      <trkpt lat="44.32337" lon="5.73992">
        <ele>638.4</ele>
        <time>2021-09-08T06:21:02Z</time>
      </trkpt>
      <trkpt lat="44.32345" lon="5.74009">
        <ele>637.6</ele>
        <time>2021-09-08T06:21:04Z</time>
      </trkpt>
      <trkpt lat="44.3235" lon="5.74018">
        <ele>637.2</ele>
        <time>2021-09-08T06:21:05Z</time>
      </trkpt>
      <trkpt lat="44.32355" lon="5.74027">
        <ele>636.8</ele>
        <time>2021-09-08T06:21:06Z</time>
      </trkpt>
      <trkpt lat="44.32364" lon="5.74046">
        <ele>636.1</ele>
        <time>2021-09-08T06:21:08Z</time>
      </trkpt>
      <trkpt lat="44.32374" lon="5.74062">
        <ele>635.7</ele>
        <time>2021-09-08T06:21:10Z</time>
      </trkpt>
      <trkpt lat="44.32379" lon="5.7407">
        <ele>635.5</ele>
        <time>2021-09-08T06:21:11Z</time>
      </trkpt>
      <trkpt lat="44.32384" lon="5.74079">
        <ele>635.4</ele>
        <time>2021-09-08T06:21:12Z</time>
      </trkpt>
      <trkpt lat="44.32395" lon="5.74094">
        <ele>635.2</ele>
        <time>2021-09-08T06:21:14Z</time>
      </trkpt>
      <trkpt lat="44.32405" lon="5.7411">
        <ele>635.2</ele>
        <time>2021-09-08T06:21:16Z</time>
      </trkpt>
      <trkpt lat="44.32409" lon="5.74117">
        <ele>635.3</ele>
        <time>2021-09-08T06:21:17Z</time>
      </trkpt>
      <trkpt lat="44.32413" lon="5.74124">
        <ele>635.3</ele>
        <time>2021-09-08T06:21:18Z</time>
      </trkpt>
      <trkpt lat="44.32417" lon="5.7413">
        <ele>635.4</ele>
        <time>2021-09-08T06:21:19Z</time>
      </trkpt>
      <trkpt lat="44.3242" lon="5.74137">
        <ele>635.5</ele>
        <time>2021-09-08T06:21:20Z</time>
      </trkpt>
      <trkpt lat="44.32427" lon="5.74152">
        <ele>635.8</ele>
        <time>2021-09-08T06:21:22Z</time>
      </trkpt>
      <trkpt lat="44.32432" lon="5.74164">
        <ele>636.1</ele>
        <time>2021-09-08T06:21:24Z</time>
      </trkpt>
      <trkpt lat="44.32436" lon="5.74175">
        <ele>636.4</ele>
        <time>2021-09-08T06:21:26Z</time>
      </trkpt>
      <trkpt lat="44.32442" lon="5.74189">
        <ele>636.8</ele>
        <time>2021-09-08T06:21:28Z</time>
      </trkpt>
      <trkpt lat="44.32447" lon="5.74201">
        <ele>637.1</ele>
        <time>2021-09-08T06:21:30Z</time>
      </trkpt>
      <trkpt lat="44.32451" lon="5.74211">
        <ele>637.4</ele>
        <time>2021-09-08T06:21:32Z</time>
      </trkpt>
      <trkpt lat="44.32456" lon="5.7422">
        <ele>637.6</ele>
        <time>2021-09-08T06:21:34Z</time>
      </trkpt>
      <trkpt lat="44.32457" lon="5.74224">
        <ele>637.7</ele>
        <time>2021-09-08T06:21:35Z</time>
      </trkpt>
      <trkpt lat="44.32459" lon="5.74228">
        <ele>637.8</ele>
        <time>2021-09-08T06:21:36Z</time>
      </trkpt>
      <trkpt lat="44.32466" lon="5.74239">
        <ele>638.1</ele>
        <time>2021-09-08T06:21:38Z</time>
      </trkpt>
      <trkpt lat="44.32469" lon="5.74246">
        <ele>638.2</ele>
        <time>2021-09-08T06:21:40Z</time>
      </trkpt>
      <trkpt lat="44.32473" lon="5.74251">
        <ele>638.2</ele>
        <time>2021-09-08T06:21:41Z</time>
      </trkpt>
      <trkpt lat="44.32476" lon="5.74253">
        <ele>638.2</ele>
        <time>2021-09-08T06:21:42Z</time>
      </trkpt>
      <trkpt lat="44.32482" lon="5.74257">
        <ele>638.2</ele>
        <time>2021-09-08T06:21:44Z</time>
      </trkpt>
      <trkpt lat="44.32484" lon="5.74263">
        <ele>638.3</ele>
        <time>2021-09-08T06:21:45Z</time>
      </trkpt>
      <trkpt lat="44.32488" lon="5.74269">
        <ele>638.3</ele>
        <time>2021-09-08T06:21:46Z</time>
      </trkpt>
      <trkpt lat="44.32494" lon="5.74276">
        <ele>638.2</ele>
        <time>2021-09-08T06:21:47Z</time>
      </trkpt>
      <trkpt lat="44.32497" lon="5.7428">
        <ele>638.2</ele>
        <time>2021-09-08T06:21:49Z</time>
      </trkpt>
      <trkpt lat="44.32499" lon="5.74282">
        <ele>638.2</ele>
        <time>2021-09-08T06:21:50Z</time>
      </trkpt>
      <trkpt lat="44.32502" lon="5.74286">
        <ele>638.1</ele>
        <time>2021-09-08T06:21:51Z</time>
      </trkpt>
      <trkpt lat="44.3251" lon="5.74293">
        <ele>638</ele>
        <time>2021-09-08T06:21:53Z</time>
      </trkpt>
      <trkpt lat="44.32514" lon="5.74299">
        <ele>638</ele>
        <time>2021-09-08T06:21:54Z</time>
      </trkpt>
      <trkpt lat="44.32523" lon="5.74308">
        <ele>637.9</ele>
        <time>2021-09-08T06:21:56Z</time>
      </trkpt>
      <trkpt lat="44.32532" lon="5.74321">
        <ele>637.8</ele>
        <time>2021-09-08T06:21:58Z</time>
      </trkpt>
      <trkpt lat="44.32541" lon="5.74334">
        <ele>637.7</ele>
        <time>2021-09-08T06:22:00Z</time>
      </trkpt>
      <trkpt lat="44.32548" lon="5.74346">
        <ele>637.7</ele>
        <time>2021-09-08T06:22:02Z</time>
      </trkpt>
      <trkpt lat="44.32555" lon="5.74355">
        <ele>637.7</ele>
        <time>2021-09-08T06:22:04Z</time>
      </trkpt>
      <trkpt lat="44.32559" lon="5.74358">
        <ele>637.7</ele>
        <time>2021-09-08T06:22:05Z</time>
      </trkpt>
      <trkpt lat="44.32565" lon="5.74365">
        <ele>637.7</ele>
        <time>2021-09-08T06:22:07Z</time>
      </trkpt>
      <trkpt lat="44.32568" lon="5.7437">
        <ele>637.7</ele>
        <time>2021-09-08T06:22:08Z</time>
      </trkpt>
      <trkpt lat="44.32574" lon="5.74376">
        <ele>637.7</ele>
        <time>2021-09-08T06:22:10Z</time>
      </trkpt>
      <trkpt lat="44.32578" lon="5.7438">
        <ele>637.7</ele>
        <time>2021-09-08T06:22:11Z</time>
      </trkpt>
      <trkpt lat="44.32581" lon="5.74386">
        <ele>637.7</ele>
        <time>2021-09-08T06:22:12Z</time>
      </trkpt>
      <trkpt lat="44.32584" lon="5.74391">
        <ele>637.6</ele>
        <time>2021-09-08T06:22:13Z</time>
      </trkpt>
      <trkpt lat="44.32587" lon="5.74396">
        <ele>637.6</ele>
        <time>2021-09-08T06:22:14Z</time>
      </trkpt>
      <trkpt lat="44.32594" lon="5.74404">
        <ele>637.5</ele>
        <time>2021-09-08T06:22:16Z</time>
      </trkpt>
      <trkpt lat="44.32599" lon="5.74409">
        <ele>637.4</ele>
        <time>2021-09-08T06:22:17Z</time>
      </trkpt>
      <trkpt lat="44.32603" lon="5.74414">
        <ele>637.3</ele>
        <time>2021-09-08T06:22:18Z</time>
      </trkpt>
      <trkpt lat="44.3261" lon="5.74423">
        <ele>637.1</ele>
        <time>2021-09-08T06:22:20Z</time>
      </trkpt>
      <trkpt lat="44.32618" lon="5.74434">
        <ele>636.9</ele>
        <time>2021-09-08T06:22:22Z</time>
      </trkpt>
      <trkpt lat="44.32622" lon="5.74438">
        <ele>636.8</ele>
        <time>2021-09-08T06:22:23Z</time>
      </trkpt>
      <trkpt lat="44.3263" lon="5.74449">
        <ele>636.5</ele>
        <time>2021-09-08T06:22:25Z</time>
      </trkpt>
      <trkpt lat="44.32634" lon="5.74454">
        <ele>636.4</ele>
        <time>2021-09-08T06:22:26Z</time>
      </trkpt>
      <trkpt lat="44.32643" lon="5.74466">
        <ele>636.1</ele>
        <time>2021-09-08T06:22:28Z</time>
      </trkpt>
      <trkpt lat="44.32648" lon="5.74472">
        <ele>636</ele>
        <time>2021-09-08T06:22:29Z</time>
      </trkpt>
      <trkpt lat="44.32653" lon="5.74478">
        <ele>635.8</ele>
        <time>2021-09-08T06:22:30Z</time>
      </trkpt>
      <trkpt lat="44.32658" lon="5.74483">
        <ele>635.7</ele>
        <time>2021-09-08T06:22:31Z</time>
      </trkpt>
      <trkpt lat="44.32663" lon="5.74489">
        <ele>635.5</ele>
        <time>2021-09-08T06:22:32Z</time>
      </trkpt>
      <trkpt lat="44.32673" lon="5.74501">
        <ele>635.1</ele>
        <time>2021-09-08T06:22:34Z</time>
      </trkpt>
      <trkpt lat="44.32678" lon="5.74507">
        <ele>634.9</ele>
        <time>2021-09-08T06:22:35Z</time>
      </trkpt>
      <trkpt lat="44.3269" lon="5.74521">
        <ele>634.4</ele>
        <time>2021-09-08T06:22:37Z</time>
      </trkpt>
      <trkpt lat="44.32696" lon="5.74527">
        <ele>634.1</ele>
        <time>2021-09-08T06:22:38Z</time>
      </trkpt>
      <trkpt lat="44.32701" lon="5.74534">
        <ele>633.8</ele>
        <time>2021-09-08T06:22:39Z</time>
      </trkpt>
      <trkpt lat="44.32707" lon="5.74541">
        <ele>633.5</ele>
        <time>2021-09-08T06:22:40Z</time>
      </trkpt>
      <trkpt lat="44.32718" lon="5.74554">
        <ele>632.9</ele>
        <time>2021-09-08T06:22:42Z</time>
      </trkpt>
      <trkpt lat="44.32724" lon="5.7456">
        <ele>632.7</ele>
        <time>2021-09-08T06:22:43Z</time>
      </trkpt>
      <trkpt lat="44.32731" lon="5.74565">
        <ele>632.5</ele>
        <time>2021-09-08T06:22:44Z</time>
      </trkpt>
      <trkpt lat="44.32745" lon="5.74574">
        <ele>632.1</ele>
        <time>2021-09-08T06:22:46Z</time>
      </trkpt>
      <trkpt lat="44.32751" lon="5.74577">
        <ele>632</ele>
        <time>2021-09-08T06:22:47Z</time>
      </trkpt>
      <trkpt lat="44.32758" lon="5.74581">
        <ele>631.9</ele>
        <time>2021-09-08T06:22:48Z</time>
      </trkpt>
      <trkpt lat="44.3277" lon="5.74591">
        <ele>631.9</ele>
        <time>2021-09-08T06:22:50Z</time>
      </trkpt>
      <trkpt lat="44.32784" lon="5.74604">
        <ele>631.9</ele>
        <time>2021-09-08T06:22:52Z</time>
      </trkpt>
      <trkpt lat="44.3279" lon="5.74611">
        <ele>631.9</ele>
        <time>2021-09-08T06:22:53Z</time>
      </trkpt>
      <trkpt lat="44.32795" lon="5.74616">
        <ele>631.9</ele>
        <time>2021-09-08T06:22:54Z</time>
      </trkpt>
      <trkpt lat="44.32801" lon="5.74621">
        <ele>631.9</ele>
        <time>2021-09-08T06:22:55Z</time>
      </trkpt>
      <trkpt lat="44.32811" lon="5.74631">
        <ele>631.9</ele>
        <time>2021-09-08T06:22:57Z</time>
      </trkpt>
      <trkpt lat="44.32819" lon="5.74642">
        <ele>631.8</ele>
        <time>2021-09-08T06:22:59Z</time>
      </trkpt>
      <trkpt lat="44.32827" lon="5.74657">
        <ele>631.7</ele>
        <time>2021-09-08T06:23:01Z</time>
      </trkpt>
      <trkpt lat="44.32831" lon="5.74663">
        <ele>631.6</ele>
        <time>2021-09-08T06:23:02Z</time>
      </trkpt>
      <trkpt lat="44.3284" lon="5.74671">
        <ele>631.5</ele>
        <time>2021-09-08T06:23:04Z</time>
      </trkpt>
      <trkpt lat="44.32844" lon="5.74675">
        <ele>631.4</ele>
        <time>2021-09-08T06:23:05Z</time>
      </trkpt>
      <trkpt lat="44.32852" lon="5.74684">
        <ele>631.2</ele>
        <time>2021-09-08T06:23:07Z</time>
      </trkpt>
      <trkpt lat="44.32857" lon="5.74689">
        <ele>631.1</ele>
        <time>2021-09-08T06:23:08Z</time>
      </trkpt>
      <trkpt lat="44.32867" lon="5.74699">
        <ele>630.8</ele>
        <time>2021-09-08T06:23:10Z</time>
      </trkpt>
      <trkpt lat="44.32877" lon="5.74708">
        <ele>630.6</ele>
        <time>2021-09-08T06:23:12Z</time>
      </trkpt>
      <trkpt lat="44.32886" lon="5.74717">
        <ele>630.3</ele>
        <time>2021-09-08T06:23:14Z</time>
      </trkpt>
      <trkpt lat="44.32896" lon="5.74726">
        <ele>630.1</ele>
        <time>2021-09-08T06:23:16Z</time>
      </trkpt>
      <trkpt lat="44.32901" lon="5.74729">
        <ele>630</ele>
        <time>2021-09-08T06:23:17Z</time>
      </trkpt>
      <trkpt lat="44.32905" lon="5.74733">
        <ele>629.9</ele>
        <time>2021-09-08T06:23:18Z</time>
      </trkpt>
      <trkpt lat="44.32915" lon="5.7474">
        <ele>629.8</ele>
        <time>2021-09-08T06:23:20Z</time>
      </trkpt>
      <trkpt lat="44.32926" lon="5.74749">
        <ele>629.6</ele>
        <time>2021-09-08T06:23:22Z</time>
      </trkpt>
      <trkpt lat="44.32931" lon="5.74754">
        <ele>629.6</ele>
        <time>2021-09-08T06:23:23Z</time>
      </trkpt>
      <trkpt lat="44.32936" lon="5.7476">
        <ele>629.5</ele>
        <time>2021-09-08T06:23:24Z</time>
      </trkpt>
      <trkpt lat="44.32946" lon="5.74773">
        <ele>629.5</ele>
        <time>2021-09-08T06:23:26Z</time>
      </trkpt>
      <trkpt lat="44.32954" lon="5.74785">
        <ele>629.5</ele>
        <time>2021-09-08T06:23:28Z</time>
      </trkpt>
      <trkpt lat="44.32957" lon="5.74789">
        <ele>629.4</ele>
        <time>2021-09-08T06:23:29Z</time>
      </trkpt>
      <trkpt lat="44.32961" lon="5.74793">
        <ele>629.4</ele>
        <time>2021-09-08T06:23:30Z</time>
      </trkpt>
      <trkpt lat="44.32968" lon="5.74801">
        <ele>629.4</ele>
        <time>2021-09-08T06:23:32Z</time>
      </trkpt>
      <trkpt lat="44.32972" lon="5.74804">
        <ele>629.4</ele>
        <time>2021-09-08T06:23:33Z</time>
      </trkpt>
      <trkpt lat="44.32982" lon="5.74813">
        <ele>629.3</ele>
        <time>2021-09-08T06:23:35Z</time>
      </trkpt>
      <trkpt lat="44.32987" lon="5.74818">
        <ele>629.3</ele>
        <time>2021-09-08T06:23:36Z</time>
      </trkpt>
      <trkpt lat="44.32996" lon="5.74825">
        <ele>629.2</ele>
        <time>2021-09-08T06:23:38Z</time>
      </trkpt>
      <trkpt lat="44.33006" lon="5.74833">
        <ele>629.1</ele>
        <time>2021-09-08T06:23:40Z</time>
      </trkpt>
      <trkpt lat="44.33014" lon="5.74841">
        <ele>629.1</ele>
        <time>2021-09-08T06:23:42Z</time>
      </trkpt>
      <trkpt lat="44.33024" lon="5.7485">
        <ele>629</ele>
        <time>2021-09-08T06:23:44Z</time>
      </trkpt>
      <trkpt lat="44.33033" lon="5.74858">
        <ele>628.9</ele>
        <time>2021-09-08T06:23:46Z</time>
      </trkpt>
      <trkpt lat="44.33042" lon="5.7487">
        <ele>628.9</ele>
        <time>2021-09-08T06:23:48Z</time>
      </trkpt>
      <trkpt lat="44.33051" lon="5.74883">
        <ele>628.7</ele>
        <time>2021-09-08T06:23:50Z</time>
      </trkpt>
      <trkpt lat="44.33057" lon="5.74897">
        <ele>628.6</ele>
        <time>2021-09-08T06:23:52Z</time>
      </trkpt>
      <trkpt lat="44.3306" lon="5.74904">
        <ele>628.5</ele>
        <time>2021-09-08T06:23:53Z</time>
      </trkpt>
      <trkpt lat="44.33063" lon="5.74909">
        <ele>628.5</ele>
        <time>2021-09-08T06:23:54Z</time>
      </trkpt>
      <trkpt lat="44.33067" lon="5.74915">
        <ele>628.4</ele>
        <time>2021-09-08T06:23:55Z</time>
      </trkpt>
      <trkpt lat="44.33071" lon="5.74922">
        <ele>628.3</ele>
        <time>2021-09-08T06:23:56Z</time>
      </trkpt>
      <trkpt lat="44.3308" lon="5.74939">
        <ele>628.1</ele>
        <time>2021-09-08T06:23:58Z</time>
      </trkpt>
      <trkpt lat="44.33084" lon="5.74947">
        <ele>628</ele>
        <time>2021-09-08T06:23:59Z</time>
      </trkpt>
      <trkpt lat="44.33088" lon="5.74956">
        <ele>628</ele>
        <time>2021-09-08T06:24:00Z</time>
      </trkpt>
      <trkpt lat="44.33094" lon="5.74968">
        <ele>627.8</ele>
        <time>2021-09-08T06:24:02Z</time>
      </trkpt>
      <trkpt lat="44.33099" lon="5.74981">
        <ele>627.7</ele>
        <time>2021-09-08T06:24:04Z</time>
      </trkpt>
      <trkpt lat="44.33101" lon="5.74988">
        <ele>627.6</ele>
        <time>2021-09-08T06:24:05Z</time>
      </trkpt>
      <trkpt lat="44.33103" lon="5.74995">
        <ele>627.5</ele>
        <time>2021-09-08T06:24:06Z</time>
      </trkpt>
      <trkpt lat="44.33104" lon="5.75002">
        <ele>627.4</ele>
        <time>2021-09-08T06:24:07Z</time>
      </trkpt>
      <trkpt lat="44.33106" lon="5.75008">
        <ele>627.4</ele>
        <time>2021-09-08T06:24:08Z</time>
      </trkpt>
      <trkpt lat="44.33111" lon="5.75021">
        <ele>627.2</ele>
        <time>2021-09-08T06:24:10Z</time>
      </trkpt>
      <trkpt lat="44.33115" lon="5.75028">
        <ele>627</ele>
        <time>2021-09-08T06:24:11Z</time>
      </trkpt>
      <trkpt lat="44.33118" lon="5.75034">
        <ele>626.8</ele>
        <time>2021-09-08T06:24:12Z</time>
      </trkpt>
      <trkpt lat="44.33125" lon="5.75046">
        <ele>626.5</ele>
        <time>2021-09-08T06:24:14Z</time>
      </trkpt>
      <trkpt lat="44.33131" lon="5.75055">
        <ele>626.2</ele>
        <time>2021-09-08T06:24:16Z</time>
      </trkpt>
      <trkpt lat="44.33134" lon="5.7506">
        <ele>626</ele>
        <time>2021-09-08T06:24:17Z</time>
      </trkpt>
      <trkpt lat="44.33139" lon="5.75065">
        <ele>625.8</ele>
        <time>2021-09-08T06:24:18Z</time>
      </trkpt>
      <trkpt lat="44.33149" lon="5.75076">
        <ele>625.3</ele>
        <time>2021-09-08T06:24:20Z</time>
      </trkpt>
      <trkpt lat="44.33159" lon="5.75086">
        <ele>624.8</ele>
        <time>2021-09-08T06:24:22Z</time>
      </trkpt>
      <trkpt lat="44.33164" lon="5.7509">
        <ele>624.6</ele>
        <time>2021-09-08T06:24:23Z</time>
      </trkpt>
      <trkpt lat="44.33169" lon="5.75095">
        <ele>624.3</ele>
        <time>2021-09-08T06:24:24Z</time>
      </trkpt>
      <trkpt lat="44.33182" lon="5.75105">
        <ele>623.8</ele>
        <time>2021-09-08T06:24:26Z</time>
      </trkpt>
      <trkpt lat="44.33194" lon="5.75114">
        <ele>623.2</ele>
        <time>2021-09-08T06:24:28Z</time>
      </trkpt>
      <trkpt lat="44.33206" lon="5.75123">
        <ele>622.5</ele>
        <time>2021-09-08T06:24:30Z</time>
      </trkpt>
      <trkpt lat="44.33221" lon="5.75132">
        <ele>621.9</ele>
        <time>2021-09-08T06:24:32Z</time>
      </trkpt>
      <trkpt lat="44.33233" lon="5.75139">
        <ele>621.5</ele>
        <time>2021-09-08T06:24:34Z</time>
      </trkpt>
      <trkpt lat="44.33239" lon="5.75143">
        <ele>621.3</ele>
        <time>2021-09-08T06:24:35Z</time>
      </trkpt>
      <trkpt lat="44.33246" lon="5.75147">
        <ele>621.2</ele>
        <time>2021-09-08T06:24:36Z</time>
      </trkpt>
      <trkpt lat="44.33259" lon="5.75156">
        <ele>621</ele>
        <time>2021-09-08T06:24:38Z</time>
      </trkpt>
      <trkpt lat="44.33271" lon="5.75163">
        <ele>621</ele>
        <time>2021-09-08T06:24:40Z</time>
      </trkpt>
      <trkpt lat="44.33277" lon="5.75167">
        <ele>621</ele>
        <time>2021-09-08T06:24:41Z</time>
      </trkpt>
      <trkpt lat="44.33283" lon="5.75171">
        <ele>621</ele>
        <time>2021-09-08T06:24:42Z</time>
      </trkpt>
      <trkpt lat="44.33289" lon="5.75175">
        <ele>621.1</ele>
        <time>2021-09-08T06:24:43Z</time>
      </trkpt>
      <trkpt lat="44.33296" lon="5.75178">
        <ele>621.1</ele>
        <time>2021-09-08T06:24:44Z</time>
      </trkpt>
      <trkpt lat="44.33307" lon="5.75186">
        <ele>621.3</ele>
        <time>2021-09-08T06:24:46Z</time>
      </trkpt>
      <trkpt lat="44.33312" lon="5.75189">
        <ele>621.4</ele>
        <time>2021-09-08T06:24:47Z</time>
      </trkpt>
      <trkpt lat="44.33317" lon="5.75193">
        <ele>621.4</ele>
        <time>2021-09-08T06:24:48Z</time>
      </trkpt>
      <trkpt lat="44.33328" lon="5.75199">
        <ele>621.7</ele>
        <time>2021-09-08T06:24:50Z</time>
      </trkpt>
      <trkpt lat="44.33337" lon="5.75207">
        <ele>621.8</ele>
        <time>2021-09-08T06:24:52Z</time>
      </trkpt>
      <trkpt lat="44.33343" lon="5.7521">
        <ele>621.9</ele>
        <time>2021-09-08T06:24:53Z</time>
      </trkpt>
      <trkpt lat="44.33347" lon="5.75214">
        <ele>622</ele>
        <time>2021-09-08T06:24:54Z</time>
      </trkpt>
      <trkpt lat="44.33356" lon="5.75219">
        <ele>622.2</ele>
        <time>2021-09-08T06:24:56Z</time>
      </trkpt>
      <trkpt lat="44.33365" lon="5.75226">
        <ele>622.3</ele>
        <time>2021-09-08T06:24:58Z</time>
      </trkpt>
      <trkpt lat="44.33369" lon="5.75229">
        <ele>622.3</ele>
        <time>2021-09-08T06:24:59Z</time>
      </trkpt>
      <trkpt lat="44.33374" lon="5.75233">
        <ele>622.3</ele>
        <time>2021-09-08T06:25:00Z</time>
      </trkpt>
      <trkpt lat="44.33382" lon="5.75243">
        <ele>622.3</ele>
        <time>2021-09-08T06:25:02Z</time>
      </trkpt>
      <trkpt lat="44.33391" lon="5.75252">
        <ele>622.3</ele>
        <time>2021-09-08T06:25:04Z</time>
      </trkpt>
      <trkpt lat="44.334" lon="5.75262">
        <ele>622.2</ele>
        <time>2021-09-08T06:25:06Z</time>
      </trkpt>
      <trkpt lat="44.3341" lon="5.75271">
        <ele>622.1</ele>
        <time>2021-09-08T06:25:08Z</time>
      </trkpt>
      <trkpt lat="44.33418" lon="5.75281">
        <ele>622</ele>
        <time>2021-09-08T06:25:10Z</time>
      </trkpt>
      <trkpt lat="44.33423" lon="5.75285">
        <ele>621.9</ele>
        <time>2021-09-08T06:25:11Z</time>
      </trkpt>
      <trkpt lat="44.33428" lon="5.7529">
        <ele>621.8</ele>
        <time>2021-09-08T06:25:12Z</time>
      </trkpt>
      <trkpt lat="44.33436" lon="5.75299">
        <ele>621.7</ele>
        <time>2021-09-08T06:25:14Z</time>
      </trkpt>
      <trkpt lat="44.33444" lon="5.75306">
        <ele>621.5</ele>
        <time>2021-09-08T06:25:16Z</time>
      </trkpt>
      <trkpt lat="44.33448" lon="5.7531">
        <ele>621.4</ele>
        <time>2021-09-08T06:25:17Z</time>
      </trkpt>
      <trkpt lat="44.33456" lon="5.75319">
        <ele>621.2</ele>
        <time>2021-09-08T06:25:19Z</time>
      </trkpt>
      <trkpt lat="44.3346" lon="5.75324">
        <ele>621</ele>
        <time>2021-09-08T06:25:20Z</time>
      </trkpt>
      <trkpt lat="44.33469" lon="5.75333">
        <ele>620.6</ele>
        <time>2021-09-08T06:25:22Z</time>
      </trkpt>
      <trkpt lat="44.33474" lon="5.75337">
        <ele>620.4</ele>
        <time>2021-09-08T06:25:23Z</time>
      </trkpt>
      <trkpt lat="44.33483" lon="5.75347">
        <ele>619.9</ele>
        <time>2021-09-08T06:25:25Z</time>
      </trkpt>
      <trkpt lat="44.33489" lon="5.75351">
        <ele>619.6</ele>
        <time>2021-09-08T06:25:26Z</time>
      </trkpt>
      <trkpt lat="44.33499" lon="5.75361">
        <ele>619.1</ele>
        <time>2021-09-08T06:25:28Z</time>
      </trkpt>
      <trkpt lat="44.33504" lon="5.75367">
        <ele>618.8</ele>
        <time>2021-09-08T06:25:29Z</time>
      </trkpt>
      <trkpt lat="44.3351" lon="5.75373">
        <ele>618.4</ele>
        <time>2021-09-08T06:25:30Z</time>
      </trkpt>
      <trkpt lat="44.33521" lon="5.75385">
        <ele>617.8</ele>
        <time>2021-09-08T06:25:32Z</time>
      </trkpt>
      <trkpt lat="44.33533" lon="5.75397">
        <ele>617</ele>
        <time>2021-09-08T06:25:34Z</time>
      </trkpt>
      <trkpt lat="44.33538" lon="5.75404">
        <ele>616.6</ele>
        <time>2021-09-08T06:25:35Z</time>
      </trkpt>
      <trkpt lat="44.33544" lon="5.7541">
        <ele>616.3</ele>
        <time>2021-09-08T06:25:36Z</time>
      </trkpt>
      <trkpt lat="44.33554" lon="5.75423">
        <ele>615.6</ele>
        <time>2021-09-08T06:25:38Z</time>
      </trkpt>
      <trkpt lat="44.33566" lon="5.75436">
        <ele>614.9</ele>
        <time>2021-09-08T06:25:40Z</time>
      </trkpt>
      <trkpt lat="44.33572" lon="5.75443">
        <ele>614.6</ele>
        <time>2021-09-08T06:25:41Z</time>
      </trkpt>
      <trkpt lat="44.33577" lon="5.7545">
        <ele>614.3</ele>
        <time>2021-09-08T06:25:42Z</time>
      </trkpt>
      <trkpt lat="44.33583" lon="5.75457">
        <ele>614</ele>
        <time>2021-09-08T06:25:43Z</time>
      </trkpt>
      <trkpt lat="44.33588" lon="5.75464">
        <ele>613.7</ele>
        <time>2021-09-08T06:25:44Z</time>
      </trkpt>
      <trkpt lat="44.336" lon="5.75477">
        <ele>613.3</ele>
        <time>2021-09-08T06:25:46Z</time>
      </trkpt>
      <trkpt lat="44.33606" lon="5.75482">
        <ele>613.1</ele>
        <time>2021-09-08T06:25:47Z</time>
      </trkpt>
      <trkpt lat="44.33617" lon="5.75494">
        <ele>612.9</ele>
        <time>2021-09-08T06:25:49Z</time>
      </trkpt>
      <trkpt lat="44.33623" lon="5.755">
        <ele>612.8</ele>
        <time>2021-09-08T06:25:50Z</time>
      </trkpt>
      <trkpt lat="44.33635" lon="5.75511">
        <ele>612.7</ele>
        <time>2021-09-08T06:25:52Z</time>
      </trkpt>
      <trkpt lat="44.33641" lon="5.75517">
        <ele>612.6</ele>
        <time>2021-09-08T06:25:53Z</time>
      </trkpt>
      <trkpt lat="44.33648" lon="5.75524">
        <ele>612.6</ele>
        <time>2021-09-08T06:25:54Z</time>
      </trkpt>
      <trkpt lat="44.33658" lon="5.75537">
        <ele>612.5</ele>
        <time>2021-09-08T06:25:56Z</time>
      </trkpt>
      <trkpt lat="44.33666" lon="5.75552">
        <ele>612.4</ele>
        <time>2021-09-08T06:25:58Z</time>
      </trkpt>
      <trkpt lat="44.33674" lon="5.75568">
        <ele>612.4</ele>
        <time>2021-09-08T06:26:00Z</time>
      </trkpt>
      <trkpt lat="44.33677" lon="5.75577">
        <ele>612.4</ele>
        <time>2021-09-08T06:26:01Z</time>
      </trkpt>
      <trkpt lat="44.3368" lon="5.75586">
        <ele>612.3</ele>
        <time>2021-09-08T06:26:02Z</time>
      </trkpt>
      <trkpt lat="44.33685" lon="5.75606">
        <ele>612.3</ele>
        <time>2021-09-08T06:26:04Z</time>
      </trkpt>
      <trkpt lat="44.33687" lon="5.75616">
        <ele>612.3</ele>
        <time>2021-09-08T06:26:05Z</time>
      </trkpt>
      <trkpt lat="44.3369" lon="5.75625">
        <ele>612.3</ele>
        <time>2021-09-08T06:26:06Z</time>
      </trkpt>
      <trkpt lat="44.33693" lon="5.75639">
        <ele>612.3</ele>
        <time>2021-09-08T06:26:08Z</time>
      </trkpt>
      <trkpt lat="44.33696" lon="5.75652">
        <ele>612.2</ele>
        <time>2021-09-08T06:26:10Z</time>
      </trkpt>
      <trkpt lat="44.33698" lon="5.75657">
        <ele>612.2</ele>
        <time>2021-09-08T06:26:11Z</time>
      </trkpt>
      <trkpt lat="44.33701" lon="5.75663">
        <ele>612.2</ele>
        <time>2021-09-08T06:26:12Z</time>
      </trkpt>
      <trkpt lat="44.33707" lon="5.75676">
        <ele>612.2</ele>
        <time>2021-09-08T06:26:14Z</time>
      </trkpt>
      <trkpt lat="44.33714" lon="5.75687">
        <ele>612.2</ele>
        <time>2021-09-08T06:26:16Z</time>
      </trkpt>
      <trkpt lat="44.33718" lon="5.75693">
        <ele>612.2</ele>
        <time>2021-09-08T06:26:17Z</time>
      </trkpt>
      <trkpt lat="44.33722" lon="5.75699">
        <ele>612.1</ele>
        <time>2021-09-08T06:26:18Z</time>
      </trkpt>
      <trkpt lat="44.33729" lon="5.75709">
        <ele>612.1</ele>
        <time>2021-09-08T06:26:20Z</time>
      </trkpt>
      <trkpt lat="44.33736" lon="5.7572">
        <ele>612.1</ele>
        <time>2021-09-08T06:26:22Z</time>
      </trkpt>
      <trkpt lat="44.3374" lon="5.75725">
        <ele>612.1</ele>
        <time>2021-09-08T06:26:23Z</time>
      </trkpt>
      <trkpt lat="44.33748" lon="5.75734">
        <ele>612.1</ele>
        <time>2021-09-08T06:26:25Z</time>
      </trkpt>
      <trkpt lat="44.33752" lon="5.75739">
        <ele>612</ele>
        <time>2021-09-08T06:26:26Z</time>
      </trkpt>
      <trkpt lat="44.33761" lon="5.75748">
        <ele>612</ele>
        <time>2021-09-08T06:26:28Z</time>
      </trkpt>
      <trkpt lat="44.33765" lon="5.75754">
        <ele>612</ele>
        <time>2021-09-08T06:26:29Z</time>
      </trkpt>
      <trkpt lat="44.33769" lon="5.7576">
        <ele>612</ele>
        <time>2021-09-08T06:26:30Z</time>
      </trkpt>
      <trkpt lat="44.33773" lon="5.75765">
        <ele>612</ele>
        <time>2021-09-08T06:26:31Z</time>
      </trkpt>
      <trkpt lat="44.33777" lon="5.75769">
        <ele>612</ele>
        <time>2021-09-08T06:26:32Z</time>
      </trkpt>
      <trkpt lat="44.33785" lon="5.75776">
        <ele>611.9</ele>
        <time>2021-09-08T06:26:34Z</time>
      </trkpt>
      <trkpt lat="44.33793" lon="5.75785">
        <ele>611.9</ele>
        <time>2021-09-08T06:26:36Z</time>
      </trkpt>
      <trkpt lat="44.338" lon="5.75792">
        <ele>611.9</ele>
        <time>2021-09-08T06:26:38Z</time>
      </trkpt>
      <trkpt lat="44.33807" lon="5.75801">
        <ele>611.9</ele>
        <time>2021-09-08T06:26:40Z</time>
      </trkpt>
      <trkpt lat="44.33814" lon="5.7581">
        <ele>611.9</ele>
        <time>2021-09-08T06:26:42Z</time>
      </trkpt>
      <trkpt lat="44.33821" lon="5.75818">
        <ele>611.8</ele>
        <time>2021-09-08T06:26:44Z</time>
      </trkpt>
      <trkpt lat="44.33829" lon="5.75827">
        <ele>611.8</ele>
        <time>2021-09-08T06:26:46Z</time>
      </trkpt>
      <trkpt lat="44.33833" lon="5.75831">
        <ele>611.8</ele>
        <time>2021-09-08T06:26:47Z</time>
      </trkpt>
      <trkpt lat="44.33836" lon="5.75836">
        <ele>611.8</ele>
        <time>2021-09-08T06:26:48Z</time>
      </trkpt>
      <trkpt lat="44.33842" lon="5.75848">
        <ele>611.5</ele>
        <time>2021-09-08T06:26:50Z</time>
      </trkpt>
      <trkpt lat="44.33848" lon="5.7586">
        <ele>611.2</ele>
        <time>2021-09-08T06:26:52Z</time>
      </trkpt>
      <trkpt lat="44.33856" lon="5.75872">
        <ele>611</ele>
        <time>2021-09-08T06:26:54Z</time>
      </trkpt>
      <trkpt lat="44.33864" lon="5.75883">
        <ele>610.6</ele>
        <time>2021-09-08T06:26:56Z</time>
      </trkpt>
      <trkpt lat="44.33867" lon="5.75889">
        <ele>610.5</ele>
        <time>2021-09-08T06:26:57Z</time>
      </trkpt>
      <trkpt lat="44.33871" lon="5.75893">
        <ele>610.3</ele>
        <time>2021-09-08T06:26:58Z</time>
      </trkpt>
      <trkpt lat="44.33879" lon="5.75901">
        <ele>610</ele>
        <time>2021-09-08T06:27:00Z</time>
      </trkpt>
      <trkpt lat="44.33882" lon="5.75905">
        <ele>609.9</ele>
        <time>2021-09-08T06:27:01Z</time>
      </trkpt>
      <trkpt lat="44.33889" lon="5.75912">
        <ele>609.7</ele>
        <time>2021-09-08T06:27:03Z</time>
      </trkpt>
      <trkpt lat="44.33892" lon="5.75915">
        <ele>609.5</ele>
        <time>2021-09-08T06:27:04Z</time>
      </trkpt>
      <trkpt lat="44.33895" lon="5.75918">
        <ele>609.4</ele>
        <time>2021-09-08T06:27:05Z</time>
      </trkpt>
      <trkpt lat="44.33899" lon="5.75921">
        <ele>609.3</ele>
        <time>2021-09-08T06:27:06Z</time>
      </trkpt>
      <trkpt lat="44.33906" lon="5.75932">
        <ele>609</ele>
        <time>2021-09-08T06:27:08Z</time>
      </trkpt>
      <trkpt lat="44.33913" lon="5.75942">
        <ele>608.8</ele>
        <time>2021-09-08T06:27:10Z</time>
      </trkpt>
      <trkpt lat="44.33917" lon="5.75947">
        <ele>608.7</ele>
        <time>2021-09-08T06:27:11Z</time>
      </trkpt>
      <trkpt lat="44.33921" lon="5.75953">
        <ele>608.6</ele>
        <time>2021-09-08T06:27:12Z</time>
      </trkpt>
      <trkpt lat="44.33925" lon="5.75959">
        <ele>608.5</ele>
        <time>2021-09-08T06:27:13Z</time>
      </trkpt>
      <trkpt lat="44.33927" lon="5.75968">
        <ele>608.3</ele>
        <time>2021-09-08T06:27:14Z</time>
      </trkpt>
      <trkpt lat="44.33929" lon="5.7598">
        <ele>608.1</ele>
        <time>2021-09-08T06:27:15Z</time>
      </trkpt>
      <trkpt lat="44.33937" lon="5.76004">
        <ele>607.8</ele>
        <time>2021-09-08T06:27:17Z</time>
      </trkpt>
      <trkpt lat="44.33946" lon="5.76022">
        <ele>607.4</ele>
        <time>2021-09-08T06:27:19Z</time>
      </trkpt>
      <trkpt lat="44.33951" lon="5.7603">
        <ele>607.3</ele>
        <time>2021-09-08T06:27:20Z</time>
      </trkpt>
      <trkpt lat="44.33959" lon="5.76046">
        <ele>607.1</ele>
        <time>2021-09-08T06:27:22Z</time>
      </trkpt>
      <trkpt lat="44.33964" lon="5.76054">
        <ele>607</ele>
        <time>2021-09-08T06:27:23Z</time>
      </trkpt>
      <trkpt lat="44.33971" lon="5.76069">
        <ele>606.9</ele>
        <time>2021-09-08T06:27:25Z</time>
      </trkpt>
      <trkpt lat="44.33974" lon="5.76077">
        <ele>606.8</ele>
        <time>2021-09-08T06:27:26Z</time>
      </trkpt>
      <trkpt lat="44.33977" lon="5.76085">
        <ele>606.7</ele>
        <time>2021-09-08T06:27:27Z</time>
      </trkpt>
      <trkpt lat="44.33984" lon="5.76101">
        <ele>606.5</ele>
        <time>2021-09-08T06:27:29Z</time>
      </trkpt>
      <trkpt lat="44.33988" lon="5.76109">
        <ele>606.4</ele>
        <time>2021-09-08T06:27:30Z</time>
      </trkpt>
      <trkpt lat="44.33994" lon="5.76124">
        <ele>606.2</ele>
        <time>2021-09-08T06:27:32Z</time>
      </trkpt>
      <trkpt lat="44.33999" lon="5.76137">
        <ele>606</ele>
        <time>2021-09-08T06:27:34Z</time>
      </trkpt>
      <trkpt lat="44.34002" lon="5.76143">
        <ele>606</ele>
        <time>2021-09-08T06:27:35Z</time>
      </trkpt>
      <trkpt lat="44.34005" lon="5.7615">
        <ele>605.9</ele>
        <time>2021-09-08T06:27:36Z</time>
      </trkpt>
      <trkpt lat="44.34007" lon="5.76156">
        <ele>605.8</ele>
        <time>2021-09-08T06:27:37Z</time>
      </trkpt>
      <trkpt lat="44.3401" lon="5.76163">
        <ele>605.7</ele>
        <time>2021-09-08T06:27:38Z</time>
      </trkpt>
      <trkpt lat="44.34017" lon="5.76175">
        <ele>605.6</ele>
        <time>2021-09-08T06:27:40Z</time>
      </trkpt>
      <trkpt lat="44.3402" lon="5.76182">
        <ele>605.5</ele>
        <time>2021-09-08T06:27:41Z</time>
      </trkpt>
      <trkpt lat="44.34023" lon="5.76189">
        <ele>605.4</ele>
        <time>2021-09-08T06:27:42Z</time>
      </trkpt>
      <trkpt lat="44.3403" lon="5.76202">
        <ele>605.3</ele>
        <time>2021-09-08T06:27:44Z</time>
      </trkpt>
      <trkpt lat="44.34037" lon="5.76215">
        <ele>605.1</ele>
        <time>2021-09-08T06:27:46Z</time>
      </trkpt>
      <trkpt lat="44.3404" lon="5.76223">
        <ele>605</ele>
        <time>2021-09-08T06:27:47Z</time>
      </trkpt>
      <trkpt lat="44.34043" lon="5.7623">
        <ele>604.9</ele>
        <time>2021-09-08T06:27:48Z</time>
      </trkpt>
      <trkpt lat="44.34049" lon="5.76243">
        <ele>604.6</ele>
        <time>2021-09-08T06:27:50Z</time>
      </trkpt>
      <trkpt lat="44.34056" lon="5.76257">
        <ele>604.3</ele>
        <time>2021-09-08T06:27:52Z</time>
      </trkpt>
      <trkpt lat="44.34059" lon="5.76263">
        <ele>604.1</ele>
        <time>2021-09-08T06:27:53Z</time>
      </trkpt>
      <trkpt lat="44.34062" lon="5.7627">
        <ele>603.9</ele>
        <time>2021-09-08T06:27:54Z</time>
      </trkpt>
      <trkpt lat="44.3407" lon="5.76285">
        <ele>603.5</ele>
        <time>2021-09-08T06:27:56Z</time>
      </trkpt>
      <trkpt lat="44.34073" lon="5.76293">
        <ele>603.4</ele>
        <time>2021-09-08T06:27:57Z</time>
      </trkpt>
      <trkpt lat="44.34079" lon="5.76309">
        <ele>603</ele>
        <time>2021-09-08T06:27:59Z</time>
      </trkpt>
      <trkpt lat="44.34082" lon="5.76317">
        <ele>602.9</ele>
        <time>2021-09-08T06:28:00Z</time>
      </trkpt>
      <trkpt lat="44.34089" lon="5.76332">
        <ele>602.6</ele>
        <time>2021-09-08T06:28:02Z</time>
      </trkpt>
      <trkpt lat="44.34096" lon="5.76347">
        <ele>602.4</ele>
        <time>2021-09-08T06:28:04Z</time>
      </trkpt>
      <trkpt lat="44.34102" lon="5.76362">
        <ele>602.3</ele>
        <time>2021-09-08T06:28:06Z</time>
      </trkpt>
      <trkpt lat="44.34105" lon="5.76377">
        <ele>602.3</ele>
        <time>2021-09-08T06:28:08Z</time>
      </trkpt>
      <trkpt lat="44.34109" lon="5.7639">
        <ele>602.2</ele>
        <time>2021-09-08T06:28:10Z</time>
      </trkpt>
      <trkpt lat="44.34113" lon="5.76394">
        <ele>602</ele>
        <time>2021-09-08T06:28:11Z</time>
      </trkpt>
      <trkpt lat="44.34117" lon="5.76398">
        <ele>601.7</ele>
        <time>2021-09-08T06:28:12Z</time>
      </trkpt>
      <trkpt lat="44.34126" lon="5.76402">
        <ele>600.6</ele>
        <time>2021-09-08T06:28:14Z</time>
      </trkpt>
      <trkpt lat="44.34132" lon="5.76411">
        <ele>600.3</ele>
        <time>2021-09-08T06:28:16Z</time>
      </trkpt>
      <trkpt lat="44.34138" lon="5.76424">
        <ele>599.9</ele>
        <time>2021-09-08T06:28:18Z</time>
      </trkpt>
      <trkpt lat="44.34145" lon="5.76436">
        <ele>599.5</ele>
        <time>2021-09-08T06:28:20Z</time>
      </trkpt>
      <trkpt lat="44.34152" lon="5.76448">
        <ele>599.2</ele>
        <time>2021-09-08T06:28:22Z</time>
      </trkpt>
      <trkpt lat="44.34159" lon="5.76462">
        <ele>599</ele>
        <time>2021-09-08T06:28:24Z</time>
      </trkpt>
      <trkpt lat="44.34163" lon="5.76469">
        <ele>598.8</ele>
        <time>2021-09-08T06:28:25Z</time>
      </trkpt>
      <trkpt lat="44.34167" lon="5.76477">
        <ele>598.7</ele>
        <time>2021-09-08T06:28:26Z</time>
      </trkpt>
      <trkpt lat="44.34174" lon="5.76492">
        <ele>598.4</ele>
        <time>2021-09-08T06:28:28Z</time>
      </trkpt>
      <trkpt lat="44.34178" lon="5.76499">
        <ele>598.2</ele>
        <time>2021-09-08T06:28:29Z</time>
      </trkpt>
      <trkpt lat="44.34184" lon="5.76513">
        <ele>598</ele>
        <time>2021-09-08T06:28:31Z</time>
      </trkpt>
      <trkpt lat="44.34187" lon="5.76521">
        <ele>597.8</ele>
        <time>2021-09-08T06:28:32Z</time>
      </trkpt>
      <trkpt lat="44.34194" lon="5.76535">
        <ele>597.6</ele>
        <time>2021-09-08T06:28:34Z</time>
      </trkpt>
      <trkpt lat="44.34197" lon="5.76543">
        <ele>597.5</ele>
        <time>2021-09-08T06:28:35Z</time>
      </trkpt>
      <trkpt lat="44.34204" lon="5.76557">
        <ele>597.3</ele>
        <time>2021-09-08T06:28:37Z</time>
      </trkpt>
      <trkpt lat="44.34208" lon="5.76564">
        <ele>597.3</ele>
        <time>2021-09-08T06:28:38Z</time>
      </trkpt>
      <trkpt lat="44.34215" lon="5.76577">
        <ele>597.2</ele>
        <time>2021-09-08T06:28:40Z</time>
      </trkpt>
      <trkpt lat="44.3422" lon="5.76583">
        <ele>597.1</ele>
        <time>2021-09-08T06:28:41Z</time>
      </trkpt>
      <trkpt lat="44.34224" lon="5.7659">
        <ele>597.1</ele>
        <time>2021-09-08T06:28:42Z</time>
      </trkpt>
      <trkpt lat="44.34231" lon="5.76604">
        <ele>597.1</ele>
        <time>2021-09-08T06:28:44Z</time>
      </trkpt>
      <trkpt lat="44.34236" lon="5.76618">
        <ele>597.2</ele>
        <time>2021-09-08T06:28:46Z</time>
      </trkpt>
      <trkpt lat="44.3424" lon="5.76625">
        <ele>597.2</ele>
        <time>2021-09-08T06:28:47Z</time>
      </trkpt>
      <trkpt lat="44.34242" lon="5.76632">
        <ele>597.3</ele>
        <time>2021-09-08T06:28:48Z</time>
      </trkpt>
      <trkpt lat="44.34247" lon="5.76646">
        <ele>597.3</ele>
        <time>2021-09-08T06:28:50Z</time>
      </trkpt>
      <trkpt lat="44.34251" lon="5.76653">
        <ele>597.4</ele>
        <time>2021-09-08T06:28:51Z</time>
      </trkpt>
      <trkpt lat="44.34257" lon="5.76666">
        <ele>597.2</ele>
        <time>2021-09-08T06:28:53Z</time>
      </trkpt>
      <trkpt lat="44.34259" lon="5.76673">
        <ele>597.1</ele>
        <time>2021-09-08T06:28:54Z</time>
      </trkpt>
      <trkpt lat="44.34264" lon="5.76686">
        <ele>596.9</ele>
        <time>2021-09-08T06:28:56Z</time>
      </trkpt>
      <trkpt lat="44.34271" lon="5.76698">
        <ele>596.8</ele>
        <time>2021-09-08T06:28:58Z</time>
      </trkpt>
      <trkpt lat="44.34277" lon="5.7671">
        <ele>596.6</ele>
        <time>2021-09-08T06:29:00Z</time>
      </trkpt>
      <trkpt lat="44.34283" lon="5.76723">
        <ele>596.5</ele>
        <time>2021-09-08T06:29:02Z</time>
      </trkpt>
      <trkpt lat="44.34289" lon="5.76735">
        <ele>596.4</ele>
        <time>2021-09-08T06:29:04Z</time>
      </trkpt>
      <trkpt lat="44.34292" lon="5.76741">
        <ele>596.3</ele>
        <time>2021-09-08T06:29:05Z</time>
      </trkpt>
      <trkpt lat="44.34294" lon="5.76745">
        <ele>596.3</ele>
        <time>2021-09-08T06:29:06Z</time>
      </trkpt>
      <trkpt lat="44.34299" lon="5.76755">
        <ele>596.2</ele>
        <time>2021-09-08T06:29:08Z</time>
      </trkpt>
      <trkpt lat="44.34303" lon="5.76765">
        <ele>596.1</ele>
        <time>2021-09-08T06:29:10Z</time>
      </trkpt>
      <trkpt lat="44.34305" lon="5.7677">
        <ele>596.1</ele>
        <time>2021-09-08T06:29:11Z</time>
      </trkpt>
      <trkpt lat="44.34309" lon="5.76775">
        <ele>596.1</ele>
        <time>2021-09-08T06:29:12Z</time>
      </trkpt>
      <trkpt lat="44.34314" lon="5.76784">
        <ele>596</ele>
        <time>2021-09-08T06:29:14Z</time>
      </trkpt>
      <trkpt lat="44.34316" lon="5.76788">
        <ele>596</ele>
        <time>2021-09-08T06:29:15Z</time>
      </trkpt>
      <trkpt lat="44.34323" lon="5.76798">
        <ele>595.9</ele>
        <time>2021-09-08T06:29:17Z</time>
      </trkpt>
      <trkpt lat="44.34326" lon="5.76801">
        <ele>595.9</ele>
        <time>2021-09-08T06:29:18Z</time>
      </trkpt>
      <trkpt lat="44.34328" lon="5.76803">
        <ele>595.9</ele>
        <time>2021-09-08T06:29:19Z</time>
      </trkpt>
      <trkpt lat="44.34331" lon="5.76804">
        <ele>595.9</ele>
        <time>2021-09-08T06:29:20Z</time>
      </trkpt>
      <trkpt lat="44.34332" lon="5.76805">
        <ele>595.9</ele>
        <time>2021-09-08T06:29:21Z</time>
      </trkpt>
      <trkpt lat="44.34333" lon="5.76802">
        <ele>595.9</ele>
        <time>2021-09-08T06:29:23Z</time>
      </trkpt>
      <trkpt lat="44.34333" lon="5.76801">
        <ele>595.9</ele>
        <time>2021-09-08T06:29:24Z</time>
      </trkpt>
      <trkpt lat="44.34331" lon="5.76798">
        <ele>595.9</ele>
        <time>2021-09-08T06:29:25Z</time>
      </trkpt>
      <trkpt lat="44.34329" lon="5.76796">
        <ele>595.9</ele>
        <time>2021-09-08T06:29:27Z</time>
      </trkpt>
      <trkpt lat="44.34329" lon="5.76795">
        <ele>595.9</ele>
        <time>2021-09-08T06:29:28Z</time>
      </trkpt>
      <trkpt lat="44.34329" lon="5.76795">
        <ele>595.9</ele>
        <time>2021-09-08T06:29:29Z</time>
      </trkpt>
      <trkpt lat="44.34328" lon="5.76795">
        <ele>595.9</ele>
        <time>2021-09-08T06:29:30Z</time>
      </trkpt>
      <trkpt lat="44.34328" lon="5.76794">
        <ele>595.9</ele>
        <time>2021-09-08T06:29:32Z</time>
      </trkpt>
      <trkpt lat="44.34329" lon="5.76795">
        <ele>595.9</ele>
        <time>2021-09-08T06:29:33Z</time>
      </trkpt>
      <trkpt lat="44.34329" lon="5.76795">
        <ele>595.9</ele>
        <time>2021-09-08T06:29:35Z</time>
      </trkpt>
      <trkpt lat="44.34356" lon="5.76755">
        <ele>595.9</ele>
        <time>2021-09-08T06:31:56Z</time>
      </trkpt>
      <trkpt lat="44.34344" lon="5.76782">
        <ele>595.9</ele>
        <time>2021-09-08T06:32:02Z</time>
      </trkpt>
      <trkpt lat="44.3434" lon="5.76792">
        <ele>595.9</ele>
        <time>2021-09-08T06:32:08Z</time>
      </trkpt>
      <trkpt lat="44.34342" lon="5.76787">
        <ele>595.9</ele>
        <time>2021-09-08T06:32:15Z</time>
      </trkpt>
      <trkpt lat="44.34344" lon="5.76784">
        <ele>595.9</ele>
        <time>2021-09-08T06:32:21Z</time>
      </trkpt>
      <trkpt lat="44.34329" lon="5.76782">
        <ele>595.9</ele>
        <time>2021-09-08T06:37:09Z</time>
      </trkpt>
      <trkpt lat="44.34326" lon="5.76773">
        <ele>595.9</ele>
        <time>2021-09-08T06:37:11Z</time>
      </trkpt>
      <trkpt lat="44.34324" lon="5.76764">
        <ele>595.9</ele>
        <time>2021-09-08T06:37:13Z</time>
      </trkpt>
      <trkpt lat="44.34323" lon="5.7676">
        <ele>595.7</ele>
        <time>2021-09-08T06:37:14Z</time>
      </trkpt>
      <trkpt lat="44.3432" lon="5.76756">
        <ele>595.5</ele>
        <time>2021-09-08T06:37:16Z</time>
      </trkpt>
      <trkpt lat="44.34319" lon="5.76756">
        <ele>595.5</ele>
        <time>2021-09-08T06:37:17Z</time>
      </trkpt>
      <trkpt lat="44.34317" lon="5.76758">
        <ele>595.4</ele>
        <time>2021-09-08T06:37:19Z</time>
      </trkpt>
      <trkpt lat="44.34314" lon="5.76763">
        <ele>595.1</ele>
        <time>2021-09-08T06:37:21Z</time>
      </trkpt>
      <trkpt lat="44.34311" lon="5.76767">
        <ele>594.8</ele>
        <time>2021-09-08T06:37:23Z</time>
      </trkpt>
      <trkpt lat="44.34309" lon="5.7677">
        <ele>594.7</ele>
        <time>2021-09-08T06:37:24Z</time>
      </trkpt>
      <trkpt lat="44.34304" lon="5.7678">
        <ele>594.3</ele>
        <time>2021-09-08T06:37:26Z</time>
      </trkpt>
      <trkpt lat="44.343" lon="5.76787">
        <ele>594</ele>
        <time>2021-09-08T06:37:28Z</time>
      </trkpt>
      <trkpt lat="44.34299" lon="5.76791">
        <ele>593.9</ele>
        <time>2021-09-08T06:37:29Z</time>
      </trkpt>
      <trkpt lat="44.34295" lon="5.76792">
        <ele>593.8</ele>
        <time>2021-09-08T06:37:31Z</time>
      </trkpt>
      <trkpt lat="44.34294" lon="5.76791">
        <ele>593.7</ele>
        <time>2021-09-08T06:37:32Z</time>
      </trkpt>
      <trkpt lat="44.34293" lon="5.7679">
        <ele>593.7</ele>
        <time>2021-09-08T06:37:33Z</time>
      </trkpt>
      <trkpt lat="44.34294" lon="5.76789">
        <ele>593.7</ele>
        <time>2021-09-08T06:37:35Z</time>
      </trkpt>
      <trkpt lat="44.34293" lon="5.76789">
        <ele>593.7</ele>
        <time>2021-09-08T06:37:37Z</time>
      </trkpt>
      <trkpt lat="44.34293" lon="5.76789">
        <ele>593.7</ele>
        <time>2021-09-08T06:37:38Z</time>
      </trkpt>
      <trkpt lat="44.34293" lon="5.76789">
        <ele>593.7</ele>
        <time>2021-09-08T06:37:40Z</time>
      </trkpt>
      <trkpt lat="44.34289" lon="5.76799">
        <ele>593.6</ele>
        <time>2021-09-08T06:41:58Z</time>
      </trkpt>
      <trkpt lat="44.34296" lon="5.76794">
        <ele>593.9</ele>
        <time>2021-09-08T06:42:01Z</time>
      </trkpt>
      <trkpt lat="44.3432" lon="5.76771">
        <ele>595.7</ele>
        <time>2021-09-08T06:42:07Z</time>
      </trkpt>
      <trkpt lat="44.34331" lon="5.7676">
        <ele>595.9</ele>
        <time>2021-09-08T06:42:13Z</time>
      </trkpt>
      <trkpt lat="44.34332" lon="5.76754">
        <ele>595.9</ele>
        <time>2021-09-08T06:42:19Z</time>
      </trkpt>
      <trkpt lat="44.34332" lon="5.76754">
        <ele>595.9</ele>
        <time>2021-09-08T06:42:24Z</time>
      </trkpt>
      <trkpt lat="44.34318" lon="5.76768">
        <ele>595.9</ele>
        <time>2021-09-08T06:42:26Z</time>
      </trkpt>
      <trkpt lat="44.34318" lon="5.76768">
        <ele>595.7</ele>
        <time>2021-09-08T06:42:31Z</time>
      </trkpt>
      <trkpt lat="44.34316" lon="5.76765">
        <ele>595.6</ele>
        <time>2021-09-08T06:42:32Z</time>
      </trkpt>
      <trkpt lat="44.34303" lon="5.76769">
        <ele>595.5</ele>
        <time>2021-09-08T06:42:36Z</time>
      </trkpt>
      <trkpt lat="44.34302" lon="5.76769">
        <ele>595.5</ele>
        <time>2021-09-08T06:42:37Z</time>
      </trkpt>
      <trkpt lat="44.34302" lon="5.76769">
        <ele>595.5</ele>
        <time>2021-09-08T06:42:38Z</time>
      </trkpt>
      <trkpt lat="44.34304" lon="5.76764">
        <ele>595.4</ele>
        <time>2021-09-08T06:42:40Z</time>
      </trkpt>
      <trkpt lat="44.34306" lon="5.76761">
        <ele>595.4</ele>
        <time>2021-09-08T06:42:41Z</time>
      </trkpt>
      <trkpt lat="44.34307" lon="5.76758">
        <ele>595.4</ele>
        <time>2021-09-08T06:42:43Z</time>
      </trkpt>
      <trkpt lat="44.3429" lon="5.76811">
        <ele>593.4</ele>
        <time>2021-09-08T06:53:52Z</time>
      </trkpt>
      <trkpt lat="44.34287" lon="5.76821">
        <ele>593.4</ele>
        <time>2021-09-08T06:53:54Z</time>
      </trkpt>
      <trkpt lat="44.34286" lon="5.76826">
        <ele>593.3</ele>
        <time>2021-09-08T06:53:55Z</time>
      </trkpt>
      <trkpt lat="44.34284" lon="5.76833">
        <ele>593.3</ele>
        <time>2021-09-08T06:53:57Z</time>
      </trkpt>
      <trkpt lat="44.34283" lon="5.76837">
        <ele>593.3</ele>
        <time>2021-09-08T06:53:59Z</time>
      </trkpt>
      <trkpt lat="44.34283" lon="5.76837">
        <ele>593.3</ele>
        <time>2021-09-08T06:54:00Z</time>
      </trkpt>
      <trkpt lat="44.34283" lon="5.76837">
        <ele>593.3</ele>
        <time>2021-09-08T06:54:01Z</time>
      </trkpt>
      <trkpt lat="44.34284" lon="5.76838">
        <ele>593.3</ele>
        <time>2021-09-08T06:54:03Z</time>
      </trkpt>
      <trkpt lat="44.34286" lon="5.76832">
        <ele>593.3</ele>
        <time>2021-09-08T06:54:05Z</time>
      </trkpt>
      <trkpt lat="44.34288" lon="5.76827">
        <ele>593.3</ele>
        <time>2021-09-08T06:54:07Z</time>
      </trkpt>
      <trkpt lat="44.34288" lon="5.76825">
        <ele>593.3</ele>
        <time>2021-09-08T06:54:08Z</time>
      </trkpt>
      <trkpt lat="44.34289" lon="5.76824">
        <ele>593.3</ele>
        <time>2021-09-08T06:54:09Z</time>
      </trkpt>
      <trkpt lat="44.34301" lon="5.76771">
        <ele>595.2</ele>
        <time>2021-09-08T06:54:30Z</time>
      </trkpt>
      <trkpt lat="44.34304" lon="5.76766">
        <ele>595.4</ele>
        <time>2021-09-08T06:54:32Z</time>
      </trkpt>
      <trkpt lat="44.34304" lon="5.76764">
        <ele>595.4</ele>
        <time>2021-09-08T06:54:33Z</time>
      </trkpt>
      <trkpt lat="44.34305" lon="5.76762">
        <ele>595.5</ele>
        <time>2021-09-08T06:54:35Z</time>
      </trkpt>
      <trkpt lat="44.34304" lon="5.76764">
        <ele>595.5</ele>
        <time>2021-09-08T06:54:37Z</time>
      </trkpt>
      <trkpt lat="44.34304" lon="5.76764">
        <ele>595.5</ele>
        <time>2021-09-08T06:54:38Z</time>
      </trkpt>
      <trkpt lat="44.34304" lon="5.76765">
        <ele>595.5</ele>
        <time>2021-09-08T06:54:40Z</time>
      </trkpt>
      <trkpt lat="44.34304" lon="5.76765">
        <ele>595.5</ele>
        <time>2021-09-08T06:54:41Z</time>
      </trkpt>
      <trkpt lat="44.34304" lon="5.76765">
        <ele>595.5</ele>
        <time>2021-09-08T06:54:43Z</time>
      </trkpt>
      <trkpt lat="44.34312" lon="5.76771">
        <ele>595.8</ele>
        <time>2021-09-08T07:20:54Z</time>
      </trkpt>
      <trkpt lat="44.34317" lon="5.76767">
        <ele>595.9</ele>
        <time>2021-09-08T07:20:56Z</time>
      </trkpt>
      <trkpt lat="44.3432" lon="5.76765">
        <ele>596</ele>
        <time>2021-09-08T07:20:57Z</time>
      </trkpt>
      <trkpt lat="44.34323" lon="5.76764">
        <ele>596.1</ele>
        <time>2021-09-08T07:20:59Z</time>
      </trkpt>
      <trkpt lat="44.34324" lon="5.76765">
        <ele>596</ele>
        <time>2021-09-08T07:21:00Z</time>
      </trkpt>
      <trkpt lat="44.34328" lon="5.76769">
        <ele>596</ele>
        <time>2021-09-08T07:21:02Z</time>
      </trkpt>
      <trkpt lat="44.3433" lon="5.76776">
        <ele>595.9</ele>
        <time>2021-09-08T07:21:04Z</time>
      </trkpt>
      <trkpt lat="44.34331" lon="5.76782">
        <ele>595.9</ele>
        <time>2021-09-08T07:21:05Z</time>
      </trkpt>
      <trkpt lat="44.34335" lon="5.76792">
        <ele>595.8</ele>
        <time>2021-09-08T07:21:07Z</time>
      </trkpt>
      <trkpt lat="44.34338" lon="5.76799">
        <ele>595.7</ele>
        <time>2021-09-08T07:21:08Z</time>
      </trkpt>
      <trkpt lat="44.34341" lon="5.76806">
        <ele>595.7</ele>
        <time>2021-09-08T07:21:10Z</time>
      </trkpt>
      <trkpt lat="44.34344" lon="5.76811">
        <ele>595.6</ele>
        <time>2021-09-08T07:21:11Z</time>
      </trkpt>
      <trkpt lat="44.34347" lon="5.76816">
        <ele>595.6</ele>
        <time>2021-09-08T07:21:12Z</time>
      </trkpt>
      <trkpt lat="44.34351" lon="5.76823">
        <ele>595.5</ele>
        <time>2021-09-08T07:21:13Z</time>
      </trkpt>
      <trkpt lat="44.34354" lon="5.7683">
        <ele>595.5</ele>
        <time>2021-09-08T07:21:14Z</time>
      </trkpt>
      <trkpt lat="44.34357" lon="5.76837">
        <ele>595.4</ele>
        <time>2021-09-08T07:21:16Z</time>
      </trkpt>
      <trkpt lat="44.34363" lon="5.76849">
        <ele>595.3</ele>
        <time>2021-09-08T07:21:18Z</time>
      </trkpt>
      <trkpt lat="44.3437" lon="5.7686">
        <ele>595.2</ele>
        <time>2021-09-08T07:21:20Z</time>
      </trkpt>
      <trkpt lat="44.34371" lon="5.76867">
        <ele>595.2</ele>
        <time>2021-09-08T07:21:21Z</time>
      </trkpt>
      <trkpt lat="44.34374" lon="5.76872">
        <ele>595.1</ele>
        <time>2021-09-08T07:21:23Z</time>
      </trkpt>
      <trkpt lat="44.34377" lon="5.76878">
        <ele>595.1</ele>
        <time>2021-09-08T07:21:24Z</time>
      </trkpt>
      <trkpt lat="44.34381" lon="5.76885">
        <ele>595</ele>
        <time>2021-09-08T07:21:25Z</time>
      </trkpt>
      <trkpt lat="44.34384" lon="5.76891">
        <ele>594.9</ele>
        <time>2021-09-08T07:21:27Z</time>
      </trkpt>
      <trkpt lat="44.34387" lon="5.76897">
        <ele>594.9</ele>
        <time>2021-09-08T07:21:28Z</time>
      </trkpt>
      <trkpt lat="44.3439" lon="5.76902">
        <ele>594.9</ele>
        <time>2021-09-08T07:21:29Z</time>
      </trkpt>
      <trkpt lat="44.34393" lon="5.76907">
        <ele>594.8</ele>
        <time>2021-09-08T07:21:30Z</time>
      </trkpt>
      <trkpt lat="44.34396" lon="5.76912">
        <ele>594.8</ele>
        <time>2021-09-08T07:21:31Z</time>
      </trkpt>
      <trkpt lat="44.34399" lon="5.76916">
        <ele>594.8</ele>
        <time>2021-09-08T07:21:32Z</time>
      </trkpt>
      <trkpt lat="44.34403" lon="5.76922">
        <ele>594.8</ele>
        <time>2021-09-08T07:21:34Z</time>
      </trkpt>
      <trkpt lat="44.34406" lon="5.76926">
        <ele>594.8</ele>
        <time>2021-09-08T07:21:35Z</time>
      </trkpt>
      <trkpt lat="44.3441" lon="5.76934">
        <ele>594.8</ele>
        <time>2021-09-08T07:21:37Z</time>
      </trkpt>
      <trkpt lat="44.34412" lon="5.76937">
        <ele>594.7</ele>
        <time>2021-09-08T07:21:38Z</time>
      </trkpt>
      <trkpt lat="44.34416" lon="5.76941">
        <ele>594.8</ele>
        <time>2021-09-08T07:21:40Z</time>
      </trkpt>
      <trkpt lat="44.34416" lon="5.76944">
        <ele>594.8</ele>
        <time>2021-09-08T07:21:41Z</time>
      </trkpt>
      <trkpt lat="44.34417" lon="5.76946">
        <ele>594.8</ele>
        <time>2021-09-08T07:21:42Z</time>
      </trkpt>
      <trkpt lat="44.34418" lon="5.76948">
        <ele>594.8</ele>
        <time>2021-09-08T07:21:44Z</time>
      </trkpt>
      <trkpt lat="44.34418" lon="5.76947">
        <ele>594.8</ele>
        <time>2021-09-08T07:21:46Z</time>
      </trkpt>
      <trkpt lat="44.34418" lon="5.76947">
        <ele>594.8</ele>
        <time>2021-09-08T07:21:47Z</time>
      </trkpt>
      <trkpt lat="44.34418" lon="5.76947">
        <ele>594.8</ele>
        <time>2021-09-08T07:21:48Z</time>
      </trkpt>
      <trkpt lat="44.34418" lon="5.76946">
        <ele>594.8</ele>
        <time>2021-09-08T07:21:50Z</time>
      </trkpt>
      <trkpt lat="44.34418" lon="5.76946">
        <ele>594.8</ele>
        <time>2021-09-08T07:21:51Z</time>
      </trkpt>
      <trkpt lat="44.34418" lon="5.76946">
        <ele>594.8</ele>
        <time>2021-09-08T07:21:52Z</time>
      </trkpt>
      <trkpt lat="44.34423" lon="5.76933">
        <ele>594.8</ele>
        <time>2021-09-08T07:24:11Z</time>
      </trkpt>
      <trkpt lat="44.34424" lon="5.76933">
        <ele>594.8</ele>
        <time>2021-09-08T07:24:15Z</time>
      </trkpt>
      <trkpt lat="44.34425" lon="5.76933">
        <ele>594.8</ele>
        <time>2021-09-08T07:24:17Z</time>
      </trkpt>
      <trkpt lat="44.34427" lon="5.76932">
        <ele>594.8</ele>
        <time>2021-09-08T07:24:23Z</time>
      </trkpt>
      <trkpt lat="44.34427" lon="5.76931">
        <ele>594.8</ele>
        <time>2021-09-08T07:24:26Z</time>
      </trkpt>
      <trkpt lat="44.34429" lon="5.76929">
        <ele>594.8</ele>
        <time>2021-09-08T07:24:54Z</time>
      </trkpt>
      <trkpt lat="44.34429" lon="5.76929">
        <ele>594.8</ele>
        <time>2021-09-08T07:24:55Z</time>
      </trkpt>
      <trkpt lat="44.34428" lon="5.76929">
        <ele>594.8</ele>
        <time>2021-09-08T07:24:57Z</time>
      </trkpt>
      <trkpt lat="44.34427" lon="5.76929">
        <ele>594.8</ele>
        <time>2021-09-08T07:24:58Z</time>
      </trkpt>
      <trkpt lat="44.34426" lon="5.76929">
        <ele>594.8</ele>
        <time>2021-09-08T07:25:00Z</time>
      </trkpt>
      <trkpt lat="44.34426" lon="5.76929">
        <ele>594.8</ele>
        <time>2021-09-08T07:25:01Z</time>
      </trkpt>
      <trkpt lat="44.34425" lon="5.76932">
        <ele>594.8</ele>
        <time>2021-09-08T07:25:08Z</time>
      </trkpt>
      <trkpt lat="44.34425" lon="5.76932">
        <ele>594.8</ele>
        <time>2021-09-08T07:25:14Z</time>
      </trkpt>
      <trkpt lat="44.34424" lon="5.76932">
        <ele>594.8</ele>
        <time>2021-09-08T07:26:01Z</time>
      </trkpt>
      <trkpt lat="44.34423" lon="5.76933">
        <ele>594.8</ele>
        <time>2021-09-08T07:26:03Z</time>
      </trkpt>
      <trkpt lat="44.34423" lon="5.76934">
        <ele>594.8</ele>
        <time>2021-09-08T07:26:04Z</time>
      </trkpt>
      <trkpt lat="44.34421" lon="5.76936">
        <ele>594.8</ele>
        <time>2021-09-08T07:26:11Z</time>
      </trkpt>
      <trkpt lat="44.34421" lon="5.76936">
        <ele>594.8</ele>
        <time>2021-09-08T07:26:12Z</time>
      </trkpt>
      <trkpt lat="44.34421" lon="5.76936">
        <ele>594.8</ele>
        <time>2021-09-08T07:26:14Z</time>
      </trkpt>
      <trkpt lat="44.34421" lon="5.76936">
        <ele>594.8</ele>
        <time>2021-09-08T07:26:17Z</time>
      </trkpt>
      <trkpt lat="44.3442" lon="5.76935">
        <ele>594.8</ele>
        <time>2021-09-08T07:26:23Z</time>
      </trkpt>
      <trkpt lat="44.34404" lon="5.76926">
        <ele>594.8</ele>
        <time>2021-09-08T07:37:26Z</time>
      </trkpt>
      <trkpt lat="44.34399" lon="5.76924">
        <ele>594.8</ele>
        <time>2021-09-08T07:37:28Z</time>
      </trkpt>
      <trkpt lat="44.34397" lon="5.76921">
        <ele>594.8</ele>
        <time>2021-09-08T07:37:29Z</time>
      </trkpt>
      <trkpt lat="44.34394" lon="5.76916">
        <ele>594.8</ele>
        <time>2021-09-08T07:37:31Z</time>
      </trkpt>
      <trkpt lat="44.34392" lon="5.76913">
        <ele>594.8</ele>
        <time>2021-09-08T07:37:32Z</time>
      </trkpt>
      <trkpt lat="44.3439" lon="5.7691">
        <ele>594.8</ele>
        <time>2021-09-08T07:37:33Z</time>
      </trkpt>
      <trkpt lat="44.34388" lon="5.76903">
        <ele>594.9</ele>
        <time>2021-09-08T07:37:35Z</time>
      </trkpt>
      <trkpt lat="44.34386" lon="5.76899">
        <ele>594.9</ele>
        <time>2021-09-08T07:37:36Z</time>
      </trkpt>
      <trkpt lat="44.34383" lon="5.76891">
        <ele>595</ele>
        <time>2021-09-08T07:37:38Z</time>
      </trkpt>
      <trkpt lat="44.3438" lon="5.76883">
        <ele>595</ele>
        <time>2021-09-08T07:37:40Z</time>
      </trkpt>
      <trkpt lat="44.34378" lon="5.76879">
        <ele>595.1</ele>
        <time>2021-09-08T07:37:41Z</time>
      </trkpt>
      <trkpt lat="44.34375" lon="5.76875">
        <ele>595.1</ele>
        <time>2021-09-08T07:37:42Z</time>
      </trkpt>
      <trkpt lat="44.3437" lon="5.76865">
        <ele>595.2</ele>
        <time>2021-09-08T07:37:44Z</time>
      </trkpt>
      <trkpt lat="44.34365" lon="5.76855">
        <ele>595.3</ele>
        <time>2021-09-08T07:37:46Z</time>
      </trkpt>
      <trkpt lat="44.34361" lon="5.76845">
        <ele>595.3</ele>
        <time>2021-09-08T07:37:48Z</time>
      </trkpt>
      <trkpt lat="44.34359" lon="5.76839">
        <ele>595.4</ele>
        <time>2021-09-08T07:37:49Z</time>
      </trkpt>
      <trkpt lat="44.34356" lon="5.76835">
        <ele>595.4</ele>
        <time>2021-09-08T07:37:50Z</time>
      </trkpt>
      <trkpt lat="44.34352" lon="5.76826">
        <ele>595.5</ele>
        <time>2021-09-08T07:37:52Z</time>
      </trkpt>
      <trkpt lat="44.34349" lon="5.76819">
        <ele>595.6</ele>
        <time>2021-09-08T07:37:53Z</time>
      </trkpt>
      <trkpt lat="44.34347" lon="5.76813">
        <ele>595.6</ele>
        <time>2021-09-08T07:37:54Z</time>
      </trkpt>
      <trkpt lat="44.34344" lon="5.76805">
        <ele>595.7</ele>
        <time>2021-09-08T07:37:56Z</time>
      </trkpt>
      <trkpt lat="44.34342" lon="5.768">
        <ele>595.7</ele>
        <time>2021-09-08T07:37:57Z</time>
      </trkpt>
      <trkpt lat="44.34339" lon="5.76792">
        <ele>595.8</ele>
        <time>2021-09-08T07:37:59Z</time>
      </trkpt>
      <trkpt lat="44.34337" lon="5.76787">
        <ele>595.8</ele>
        <time>2021-09-08T07:38:00Z</time>
      </trkpt>
      <trkpt lat="44.34334" lon="5.76777">
        <ele>595.9</ele>
        <time>2021-09-08T07:38:02Z</time>
      </trkpt>
      <trkpt lat="44.34332" lon="5.76769">
        <ele>595.9</ele>
        <time>2021-09-08T07:38:04Z</time>
      </trkpt>
      <trkpt lat="44.3433" lon="5.76765">
        <ele>596</ele>
        <time>2021-09-08T07:38:05Z</time>
      </trkpt>
      <trkpt lat="44.34328" lon="5.76761">
        <ele>596</ele>
        <time>2021-09-08T07:38:06Z</time>
      </trkpt>
      <trkpt lat="44.34325" lon="5.76756">
        <ele>596.1</ele>
        <time>2021-09-08T07:38:07Z</time>
      </trkpt>
      <trkpt lat="44.34323" lon="5.76751">
        <ele>596.1</ele>
        <time>2021-09-08T07:38:09Z</time>
      </trkpt>
      <trkpt lat="44.3432" lon="5.76747">
        <ele>596.1</ele>
        <time>2021-09-08T07:38:10Z</time>
      </trkpt>
      <trkpt lat="44.34318" lon="5.76744">
        <ele>596.2</ele>
        <time>2021-09-08T07:38:11Z</time>
      </trkpt>
      <trkpt lat="44.34315" lon="5.76738">
        <ele>596.2</ele>
        <time>2021-09-08T07:38:12Z</time>
      </trkpt>
      <trkpt lat="44.34313" lon="5.76732">
        <ele>596.3</ele>
        <time>2021-09-08T07:38:14Z</time>
      </trkpt>
      <trkpt lat="44.34311" lon="5.76727">
        <ele>596.3</ele>
        <time>2021-09-08T07:38:15Z</time>
      </trkpt>
      <trkpt lat="44.34309" lon="5.76724">
        <ele>596.3</ele>
        <time>2021-09-08T07:38:16Z</time>
      </trkpt>
      <trkpt lat="44.34307" lon="5.7672">
        <ele>596.4</ele>
        <time>2021-09-08T07:38:17Z</time>
      </trkpt>
      <trkpt lat="44.34304" lon="5.76713">
        <ele>596.4</ele>
        <time>2021-09-08T07:38:18Z</time>
      </trkpt>
      <trkpt lat="44.34303" lon="5.76708">
        <ele>596.5</ele>
        <time>2021-09-08T07:38:19Z</time>
      </trkpt>
      <trkpt lat="44.34301" lon="5.76703">
        <ele>596.5</ele>
        <time>2021-09-08T07:38:21Z</time>
      </trkpt>
      <trkpt lat="44.34299" lon="5.76697">
        <ele>596.4</ele>
        <time>2021-09-08T07:38:22Z</time>
      </trkpt>
      <trkpt lat="44.34297" lon="5.76692">
        <ele>596.4</ele>
        <time>2021-09-08T07:38:23Z</time>
      </trkpt>
      <trkpt lat="44.34295" lon="5.76688">
        <ele>596.3</ele>
        <time>2021-09-08T07:38:24Z</time>
      </trkpt>
      <trkpt lat="44.34292" lon="5.76681">
        <ele>596.3</ele>
        <time>2021-09-08T07:38:25Z</time>
      </trkpt>
      <trkpt lat="44.34289" lon="5.76675">
        <ele>596.2</ele>
        <time>2021-09-08T07:38:26Z</time>
      </trkpt>
      <trkpt lat="44.34287" lon="5.76671">
        <ele>596.1</ele>
        <time>2021-09-08T07:38:27Z</time>
      </trkpt>
      <trkpt lat="44.34285" lon="5.76666">
        <ele>596.1</ele>
        <time>2021-09-08T07:38:28Z</time>
      </trkpt>
      <trkpt lat="44.34282" lon="5.76661">
        <ele>596</ele>
        <time>2021-09-08T07:38:30Z</time>
      </trkpt>
      <trkpt lat="44.34279" lon="5.76656">
        <ele>596</ele>
        <time>2021-09-08T07:38:31Z</time>
      </trkpt>
      <trkpt lat="44.34275" lon="5.7665">
        <ele>596</ele>
        <time>2021-09-08T07:38:32Z</time>
      </trkpt>
      <trkpt lat="44.3427" lon="5.76642">
        <ele>596</ele>
        <time>2021-09-08T07:38:34Z</time>
      </trkpt>
      <trkpt lat="44.34268" lon="5.76636">
        <ele>596</ele>
        <time>2021-09-08T07:38:35Z</time>
      </trkpt>
      <trkpt lat="44.34265" lon="5.76631">
        <ele>596</ele>
        <time>2021-09-08T07:38:36Z</time>
      </trkpt>
      <trkpt lat="44.34262" lon="5.76626">
        <ele>596</ele>
        <time>2021-09-08T07:38:37Z</time>
      </trkpt>
      <trkpt lat="44.34258" lon="5.76619">
        <ele>596.1</ele>
        <time>2021-09-08T07:38:38Z</time>
      </trkpt>
      <trkpt lat="44.34255" lon="5.76612">
        <ele>596.3</ele>
        <time>2021-09-08T07:38:40Z</time>
      </trkpt>
      <trkpt lat="44.34253" lon="5.76608">
        <ele>596.4</ele>
        <time>2021-09-08T07:38:41Z</time>
      </trkpt>
      <trkpt lat="44.34252" lon="5.76604">
        <ele>596.5</ele>
        <time>2021-09-08T07:38:42Z</time>
      </trkpt>
      <trkpt lat="44.34249" lon="5.76598">
        <ele>596.6</ele>
        <time>2021-09-08T07:38:43Z</time>
      </trkpt>
      <trkpt lat="44.34247" lon="5.76593">
        <ele>596.7</ele>
        <time>2021-09-08T07:38:45Z</time>
      </trkpt>
      <trkpt lat="44.34245" lon="5.76587">
        <ele>596.9</ele>
        <time>2021-09-08T07:38:46Z</time>
      </trkpt>
      <trkpt lat="44.34243" lon="5.76584">
        <ele>597</ele>
        <time>2021-09-08T07:38:47Z</time>
      </trkpt>
      <trkpt lat="44.34241" lon="5.76579">
        <ele>597.1</ele>
        <time>2021-09-08T07:38:48Z</time>
      </trkpt>
      <trkpt lat="44.34239" lon="5.76572">
        <ele>597.1</ele>
        <time>2021-09-08T07:38:50Z</time>
      </trkpt>
      <trkpt lat="44.34236" lon="5.76566">
        <ele>597.1</ele>
        <time>2021-09-08T07:38:51Z</time>
      </trkpt>
      <trkpt lat="44.34234" lon="5.76561">
        <ele>597.2</ele>
        <time>2021-09-08T07:38:53Z</time>
      </trkpt>
      <trkpt lat="44.34232" lon="5.76557">
        <ele>597.2</ele>
        <time>2021-09-08T07:38:54Z</time>
      </trkpt>
      <trkpt lat="44.34229" lon="5.76552">
        <ele>597.2</ele>
        <time>2021-09-08T07:38:55Z</time>
      </trkpt>
      <trkpt lat="44.34227" lon="5.76547">
        <ele>597.3</ele>
        <time>2021-09-08T07:38:56Z</time>
      </trkpt>
      <trkpt lat="44.34225" lon="5.76542">
        <ele>597.3</ele>
        <time>2021-09-08T07:38:58Z</time>
      </trkpt>
      <trkpt lat="44.34222" lon="5.76538">
        <ele>597.3</ele>
        <time>2021-09-08T07:38:59Z</time>
      </trkpt>
      <trkpt lat="44.34219" lon="5.76533">
        <ele>597.4</ele>
        <time>2021-09-08T07:39:00Z</time>
      </trkpt>
      <trkpt lat="44.34217" lon="5.76528">
        <ele>597.5</ele>
        <time>2021-09-08T07:39:01Z</time>
      </trkpt>
      <trkpt lat="44.34215" lon="5.76523">
        <ele>597.5</ele>
        <time>2021-09-08T07:39:03Z</time>
      </trkpt>
      <trkpt lat="44.34212" lon="5.76519">
        <ele>597.6</ele>
        <time>2021-09-08T07:39:04Z</time>
      </trkpt>
      <trkpt lat="44.34209" lon="5.76515">
        <ele>597.6</ele>
        <time>2021-09-08T07:39:05Z</time>
      </trkpt>
      <trkpt lat="44.34207" lon="5.76511">
        <ele>597.7</ele>
        <time>2021-09-08T07:39:06Z</time>
      </trkpt>
      <trkpt lat="44.34205" lon="5.76507">
        <ele>597.8</ele>
        <time>2021-09-08T07:39:07Z</time>
      </trkpt>
      <trkpt lat="44.34202" lon="5.76498">
        <ele>597.9</ele>
        <time>2021-09-08T07:39:09Z</time>
      </trkpt>
      <trkpt lat="44.342" lon="5.76493">
        <ele>598</ele>
        <time>2021-09-08T07:39:10Z</time>
      </trkpt>
      <trkpt lat="44.34197" lon="5.76489">
        <ele>598.1</ele>
        <time>2021-09-08T07:39:11Z</time>
      </trkpt>
      <trkpt lat="44.34193" lon="5.76483">
        <ele>598.2</ele>
        <time>2021-09-08T07:39:12Z</time>
      </trkpt>
      <trkpt lat="44.34191" lon="5.76479">
        <ele>598.3</ele>
        <time>2021-09-08T07:39:13Z</time>
      </trkpt>
      <trkpt lat="44.34189" lon="5.76475">
        <ele>598.4</ele>
        <time>2021-09-08T07:39:14Z</time>
      </trkpt>
      <trkpt lat="44.34186" lon="5.7647">
        <ele>598.5</ele>
        <time>2021-09-08T07:39:16Z</time>
      </trkpt>
      <trkpt lat="44.34184" lon="5.76464">
        <ele>598.6</ele>
        <time>2021-09-08T07:39:17Z</time>
      </trkpt>
      <trkpt lat="44.34182" lon="5.7646">
        <ele>598.7</ele>
        <time>2021-09-08T07:39:18Z</time>
      </trkpt>
      <trkpt lat="44.3418" lon="5.76456">
        <ele>598.8</ele>
        <time>2021-09-08T07:39:19Z</time>
      </trkpt>
      <trkpt lat="44.34177" lon="5.76452">
        <ele>598.9</ele>
        <time>2021-09-08T07:39:20Z</time>
      </trkpt>
      <trkpt lat="44.34173" lon="5.76445">
        <ele>599</ele>
        <time>2021-09-08T07:39:22Z</time>
      </trkpt>
      <trkpt lat="44.34172" lon="5.7644">
        <ele>599.1</ele>
        <time>2021-09-08T07:39:23Z</time>
      </trkpt>
      <trkpt lat="44.3417" lon="5.76435">
        <ele>599.2</ele>
        <time>2021-09-08T07:39:24Z</time>
      </trkpt>
      <trkpt lat="44.34169" lon="5.7643">
        <ele>599.3</ele>
        <time>2021-09-08T07:39:25Z</time>
      </trkpt>
      <trkpt lat="44.34167" lon="5.76425">
        <ele>599.3</ele>
        <time>2021-09-08T07:39:26Z</time>
      </trkpt>
      <trkpt lat="44.34165" lon="5.7642">
        <ele>599.4</ele>
        <time>2021-09-08T07:39:27Z</time>
      </trkpt>
      <trkpt lat="44.34163" lon="5.76414">
        <ele>599.6</ele>
        <time>2021-09-08T07:39:29Z</time>
      </trkpt>
      <trkpt lat="44.34161" lon="5.76411">
        <ele>599.7</ele>
        <time>2021-09-08T07:39:30Z</time>
      </trkpt>
      <trkpt lat="44.34159" lon="5.76405">
        <ele>599.9</ele>
        <time>2021-09-08T07:39:31Z</time>
      </trkpt>
      <trkpt lat="44.34158" lon="5.76401">
        <ele>600</ele>
        <time>2021-09-08T07:39:32Z</time>
      </trkpt>
      <trkpt lat="44.34156" lon="5.76398">
        <ele>600.1</ele>
        <time>2021-09-08T07:39:33Z</time>
      </trkpt>
      <trkpt lat="44.34154" lon="5.76393">
        <ele>600.2</ele>
        <time>2021-09-08T07:39:35Z</time>
      </trkpt>
      <trkpt lat="44.34151" lon="5.76385">
        <ele>600.5</ele>
        <time>2021-09-08T07:39:37Z</time>
      </trkpt>
      <trkpt lat="44.3415" lon="5.7638">
        <ele>600.8</ele>
        <time>2021-09-08T07:39:38Z</time>
      </trkpt>
      <trkpt lat="44.34149" lon="5.76376">
        <ele>600.9</ele>
        <time>2021-09-08T07:39:39Z</time>
      </trkpt>
      <trkpt lat="44.34149" lon="5.7637">
        <ele>601</ele>
        <time>2021-09-08T07:39:40Z</time>
      </trkpt>
      <trkpt lat="44.34148" lon="5.76364">
        <ele>601.1</ele>
        <time>2021-09-08T07:39:42Z</time>
      </trkpt>
      <trkpt lat="44.34146" lon="5.7636">
        <ele>601.3</ele>
        <time>2021-09-08T07:39:43Z</time>
      </trkpt>
      <trkpt lat="44.3414" lon="5.76355">
        <ele>601.4</ele>
        <time>2021-09-08T07:39:44Z</time>
      </trkpt>
      <trkpt lat="44.34134" lon="5.76352">
        <ele>601.6</ele>
        <time>2021-09-08T07:39:46Z</time>
      </trkpt>
      <trkpt lat="44.3413" lon="5.7635">
        <ele>601.8</ele>
        <time>2021-09-08T07:39:47Z</time>
      </trkpt>
      <trkpt lat="44.34127" lon="5.76348">
        <ele>602</ele>
        <time>2021-09-08T07:39:48Z</time>
      </trkpt>
      <trkpt lat="44.34121" lon="5.7634">
        <ele>602.2</ele>
        <time>2021-09-08T07:39:50Z</time>
      </trkpt>
      <trkpt lat="44.34118" lon="5.76335">
        <ele>602.3</ele>
        <time>2021-09-08T07:39:51Z</time>
      </trkpt>
      <trkpt lat="44.34114" lon="5.76326">
        <ele>602.5</ele>
        <time>2021-09-08T07:39:53Z</time>
      </trkpt>
      <trkpt lat="44.34112" lon="5.7632">
        <ele>602.6</ele>
        <time>2021-09-08T07:39:54Z</time>
      </trkpt>
      <trkpt lat="44.34109" lon="5.76313">
        <ele>602.7</ele>
        <time>2021-09-08T07:39:56Z</time>
      </trkpt>
      <trkpt lat="44.34106" lon="5.76308">
        <ele>602.8</ele>
        <time>2021-09-08T07:39:57Z</time>
      </trkpt>
      <trkpt lat="44.34101" lon="5.76299">
        <ele>603</ele>
        <time>2021-09-08T07:39:59Z</time>
      </trkpt>
      <trkpt lat="44.34099" lon="5.76295">
        <ele>603</ele>
        <time>2021-09-08T07:40:00Z</time>
      </trkpt>
      <trkpt lat="44.34096" lon="5.76287">
        <ele>603.2</ele>
        <time>2021-09-08T07:40:02Z</time>
      </trkpt>
      <trkpt lat="44.34092" lon="5.76279">
        <ele>603.3</ele>
        <time>2021-09-08T07:40:04Z</time>
      </trkpt>
      <trkpt lat="44.34088" lon="5.76271">
        <ele>603.5</ele>
        <time>2021-09-08T07:40:06Z</time>
      </trkpt>
      <trkpt lat="44.34086" lon="5.76267">
        <ele>603.6</ele>
        <time>2021-09-08T07:40:07Z</time>
      </trkpt>
      <trkpt lat="44.34081" lon="5.7626">
        <ele>603.8</ele>
        <time>2021-09-08T07:40:09Z</time>
      </trkpt>
      <trkpt lat="44.34079" lon="5.76256">
        <ele>603.9</ele>
        <time>2021-09-08T07:40:10Z</time>
      </trkpt>
      <trkpt lat="44.34076" lon="5.7625">
        <ele>604.1</ele>
        <time>2021-09-08T07:40:12Z</time>
      </trkpt>
      <trkpt lat="44.34074" lon="5.76245">
        <ele>604.2</ele>
        <time>2021-09-08T07:40:13Z</time>
      </trkpt>
      <trkpt lat="44.34073" lon="5.76241">
        <ele>604.3</ele>
        <time>2021-09-08T07:40:14Z</time>
      </trkpt>
      <trkpt lat="44.34071" lon="5.76235">
        <ele>604.4</ele>
        <time>2021-09-08T07:40:15Z</time>
      </trkpt>
      <trkpt lat="44.3407" lon="5.76231">
        <ele>604.5</ele>
        <time>2021-09-08T07:40:16Z</time>
      </trkpt>
      <trkpt lat="44.34069" lon="5.76226">
        <ele>604.6</ele>
        <time>2021-09-08T07:40:17Z</time>
      </trkpt>
      <trkpt lat="44.34068" lon="5.76222">
        <ele>604.7</ele>
        <time>2021-09-08T07:40:18Z</time>
      </trkpt>
      <trkpt lat="44.34067" lon="5.76217">
        <ele>604.8</ele>
        <time>2021-09-08T07:40:20Z</time>
      </trkpt>
      <trkpt lat="44.34064" lon="5.76211">
        <ele>604.9</ele>
        <time>2021-09-08T07:40:22Z</time>
      </trkpt>
      <trkpt lat="44.34062" lon="5.76206">
        <ele>605</ele>
        <time>2021-09-08T07:40:23Z</time>
      </trkpt>
      <trkpt lat="44.34061" lon="5.76204">
        <ele>605</ele>
        <time>2021-09-08T07:40:24Z</time>
      </trkpt>
      <trkpt lat="44.34058" lon="5.76198">
        <ele>605.1</ele>
        <time>2021-09-08T07:40:26Z</time>
      </trkpt>
      <trkpt lat="44.34054" lon="5.76191">
        <ele>605.2</ele>
        <time>2021-09-08T07:40:28Z</time>
      </trkpt>
      <trkpt lat="44.3405" lon="5.76187">
        <ele>605.2</ele>
        <time>2021-09-08T07:40:29Z</time>
      </trkpt>
      <trkpt lat="44.34049" lon="5.76184">
        <ele>605.3</ele>
        <time>2021-09-08T07:40:30Z</time>
      </trkpt>
      <trkpt lat="44.34046" lon="5.76179">
        <ele>605.3</ele>
        <time>2021-09-08T07:40:32Z</time>
      </trkpt>
      <trkpt lat="44.34042" lon="5.76174">
        <ele>605.4</ele>
        <time>2021-09-08T07:40:33Z</time>
      </trkpt>
      <trkpt lat="44.34039" lon="5.76168">
        <ele>605.5</ele>
        <time>2021-09-08T07:40:35Z</time>
      </trkpt>
      <trkpt lat="44.34038" lon="5.76165">
        <ele>605.5</ele>
        <time>2021-09-08T07:40:36Z</time>
      </trkpt>
      <trkpt lat="44.34036" lon="5.76161">
        <ele>605.6</ele>
        <time>2021-09-08T07:40:37Z</time>
      </trkpt>
      <trkpt lat="44.34034" lon="5.76157">
        <ele>605.6</ele>
        <time>2021-09-08T07:40:38Z</time>
      </trkpt>
      <trkpt lat="44.34031" lon="5.7615">
        <ele>605.7</ele>
        <time>2021-09-08T07:40:39Z</time>
      </trkpt>
      <trkpt lat="44.34028" lon="5.76144">
        <ele>605.8</ele>
        <time>2021-09-08T07:40:41Z</time>
      </trkpt>
      <trkpt lat="44.34024" lon="5.76138">
        <ele>605.8</ele>
        <time>2021-09-08T07:40:42Z</time>
      </trkpt>
      <trkpt lat="44.34022" lon="5.76133">
        <ele>605.9</ele>
        <time>2021-09-08T07:40:44Z</time>
      </trkpt>
      <trkpt lat="44.3402" lon="5.76127">
        <ele>606</ele>
        <time>2021-09-08T07:40:45Z</time>
      </trkpt>
      <trkpt lat="44.34016" lon="5.76119">
        <ele>606.1</ele>
        <time>2021-09-08T07:40:47Z</time>
      </trkpt>
      <trkpt lat="44.34013" lon="5.76112">
        <ele>606.2</ele>
        <time>2021-09-08T07:40:48Z</time>
      </trkpt>
      <trkpt lat="44.34011" lon="5.76107">
        <ele>606.2</ele>
        <time>2021-09-08T07:40:50Z</time>
      </trkpt>
      <trkpt lat="44.34009" lon="5.76101">
        <ele>606.3</ele>
        <time>2021-09-08T07:40:51Z</time>
      </trkpt>
      <trkpt lat="44.34006" lon="5.76095">
        <ele>606.4</ele>
        <time>2021-09-08T07:40:53Z</time>
      </trkpt>
      <trkpt lat="44.34004" lon="5.76092">
        <ele>606.4</ele>
        <time>2021-09-08T07:40:54Z</time>
      </trkpt>
      <trkpt lat="44.34001" lon="5.76087">
        <ele>606.5</ele>
        <time>2021-09-08T07:40:55Z</time>
      </trkpt>
      <trkpt lat="44.33997" lon="5.76081">
        <ele>606.6</ele>
        <time>2021-09-08T07:40:57Z</time>
      </trkpt>
      <trkpt lat="44.33995" lon="5.76077">
        <ele>606.7</ele>
        <time>2021-09-08T07:40:58Z</time>
      </trkpt>
      <trkpt lat="44.33992" lon="5.76073">
        <ele>606.7</ele>
        <time>2021-09-08T07:40:59Z</time>
      </trkpt>
      <trkpt lat="44.3399" lon="5.76068">
        <ele>606.7</ele>
        <time>2021-09-08T07:41:00Z</time>
      </trkpt>
      <trkpt lat="44.33987" lon="5.76063">
        <ele>606.8</ele>
        <time>2021-09-08T07:41:02Z</time>
      </trkpt>
      <trkpt lat="44.33983" lon="5.76056">
        <ele>606.9</ele>
        <time>2021-09-08T07:41:04Z</time>
      </trkpt>
      <trkpt lat="44.3398" lon="5.76051">
        <ele>606.9</ele>
        <time>2021-09-08T07:41:05Z</time>
      </trkpt>
      <trkpt lat="44.33977" lon="5.76046">
        <ele>607</ele>
        <time>2021-09-08T07:41:07Z</time>
      </trkpt>
      <trkpt lat="44.33974" lon="5.76042">
        <ele>607</ele>
        <time>2021-09-08T07:41:08Z</time>
      </trkpt>
      <trkpt lat="44.33971" lon="5.76037">
        <ele>607.1</ele>
        <time>2021-09-08T07:41:09Z</time>
      </trkpt>
      <trkpt lat="44.33969" lon="5.76033">
        <ele>607.1</ele>
        <time>2021-09-08T07:41:10Z</time>
      </trkpt>
      <trkpt lat="44.33966" lon="5.76026">
        <ele>607.2</ele>
        <time>2021-09-08T07:41:12Z</time>
      </trkpt>
      <trkpt lat="44.33964" lon="5.76022">
        <ele>607.3</ele>
        <time>2021-09-08T07:41:13Z</time>
      </trkpt>
      <trkpt lat="44.33962" lon="5.76018">
        <ele>607.3</ele>
        <time>2021-09-08T07:41:14Z</time>
      </trkpt>
      <trkpt lat="44.33958" lon="5.7601">
        <ele>607.5</ele>
        <time>2021-09-08T07:41:16Z</time>
      </trkpt>
      <trkpt lat="44.33956" lon="5.76006">
        <ele>607.5</ele>
        <time>2021-09-08T07:41:17Z</time>
      </trkpt>
      <trkpt lat="44.33953" lon="5.76003">
        <ele>607.6</ele>
        <time>2021-09-08T07:41:18Z</time>
      </trkpt>
      <trkpt lat="44.3395" lon="5.75998">
        <ele>607.7</ele>
        <time>2021-09-08T07:41:19Z</time>
      </trkpt>
      <trkpt lat="44.33948" lon="5.75994">
        <ele>607.8</ele>
        <time>2021-09-08T07:41:20Z</time>
      </trkpt>
      <trkpt lat="44.33944" lon="5.75988">
        <ele>607.9</ele>
        <time>2021-09-08T07:41:22Z</time>
      </trkpt>
      <trkpt lat="44.3394" lon="5.75982">
        <ele>608</ele>
        <time>2021-09-08T07:41:23Z</time>
      </trkpt>
      <trkpt lat="44.33937" lon="5.75977">
        <ele>608.1</ele>
        <time>2021-09-08T07:41:25Z</time>
      </trkpt>
      <trkpt lat="44.33936" lon="5.75973">
        <ele>608.2</ele>
        <time>2021-09-08T07:41:26Z</time>
      </trkpt>
      <trkpt lat="44.33932" lon="5.75968">
        <ele>608.3</ele>
        <time>2021-09-08T07:41:27Z</time>
      </trkpt>
      <trkpt lat="44.3393" lon="5.75962">
        <ele>608.4</ele>
        <time>2021-09-08T07:41:29Z</time>
      </trkpt>
      <trkpt lat="44.33929" lon="5.75958">
        <ele>608.4</ele>
        <time>2021-09-08T07:41:30Z</time>
      </trkpt>
      <trkpt lat="44.33927" lon="5.75954">
        <ele>608.5</ele>
        <time>2021-09-08T07:41:31Z</time>
      </trkpt>
      <trkpt lat="44.33925" lon="5.75948">
        <ele>608.6</ele>
        <time>2021-09-08T07:41:32Z</time>
      </trkpt>
      <trkpt lat="44.33922" lon="5.75941">
        <ele>608.7</ele>
        <time>2021-09-08T07:41:34Z</time>
      </trkpt>
      <trkpt lat="44.3392" lon="5.75937">
        <ele>608.8</ele>
        <time>2021-09-08T07:41:35Z</time>
      </trkpt>
      <trkpt lat="44.33918" lon="5.75933">
        <ele>608.9</ele>
        <time>2021-09-08T07:41:36Z</time>
      </trkpt>
      <trkpt lat="44.33914" lon="5.75925">
        <ele>609</ele>
        <time>2021-09-08T07:41:38Z</time>
      </trkpt>
      <trkpt lat="44.33912" lon="5.7592">
        <ele>609.1</ele>
        <time>2021-09-08T07:41:39Z</time>
      </trkpt>
      <trkpt lat="44.33909" lon="5.75913">
        <ele>609.3</ele>
        <time>2021-09-08T07:41:40Z</time>
      </trkpt>
      <trkpt lat="44.33907" lon="5.75909">
        <ele>609.4</ele>
        <time>2021-09-08T07:41:41Z</time>
      </trkpt>
      <trkpt lat="44.33904" lon="5.75903">
        <ele>609.5</ele>
        <time>2021-09-08T07:41:43Z</time>
      </trkpt>
      <trkpt lat="44.33901" lon="5.75898">
        <ele>609.7</ele>
        <time>2021-09-08T07:41:44Z</time>
      </trkpt>
      <trkpt lat="44.33898" lon="5.75892">
        <ele>609.8</ele>
        <time>2021-09-08T07:41:45Z</time>
      </trkpt>
      <trkpt lat="44.33896" lon="5.75887">
        <ele>610</ele>
        <time>2021-09-08T07:41:46Z</time>
      </trkpt>
      <trkpt lat="44.33892" lon="5.75881">
        <ele>610.1</ele>
        <time>2021-09-08T07:41:48Z</time>
      </trkpt>
      <trkpt lat="44.33889" lon="5.75876">
        <ele>610.3</ele>
        <time>2021-09-08T07:41:49Z</time>
      </trkpt>
      <trkpt lat="44.33886" lon="5.75871">
        <ele>610.4</ele>
        <time>2021-09-08T07:41:51Z</time>
      </trkpt>
      <trkpt lat="44.33883" lon="5.75865">
        <ele>610.6</ele>
        <time>2021-09-08T07:41:52Z</time>
      </trkpt>
      <trkpt lat="44.3388" lon="5.75859">
        <ele>610.7</ele>
        <time>2021-09-08T07:41:54Z</time>
      </trkpt>
      <trkpt lat="44.33878" lon="5.75854">
        <ele>610.8</ele>
        <time>2021-09-08T07:41:55Z</time>
      </trkpt>
      <trkpt lat="44.33873" lon="5.75847">
        <ele>611</ele>
        <time>2021-09-08T07:41:57Z</time>
      </trkpt>
      <trkpt lat="44.33869" lon="5.7584">
        <ele>611.2</ele>
        <time>2021-09-08T07:41:59Z</time>
      </trkpt>
      <trkpt lat="44.33868" lon="5.75837">
        <ele>611.2</ele>
        <time>2021-09-08T07:42:00Z</time>
      </trkpt>
      <trkpt lat="44.33865" lon="5.75833">
        <ele>611.3</ele>
        <time>2021-09-08T07:42:01Z</time>
      </trkpt>
      <trkpt lat="44.33863" lon="5.7583">
        <ele>611.4</ele>
        <time>2021-09-08T07:42:02Z</time>
      </trkpt>
      <trkpt lat="44.3386" lon="5.75823">
        <ele>611.5</ele>
        <time>2021-09-08T07:42:04Z</time>
      </trkpt>
      <trkpt lat="44.33858" lon="5.75819">
        <ele>611.6</ele>
        <time>2021-09-08T07:42:05Z</time>
      </trkpt>
      <trkpt lat="44.33855" lon="5.75814">
        <ele>611.7</ele>
        <time>2021-09-08T07:42:06Z</time>
      </trkpt>
      <trkpt lat="44.33853" lon="5.7581">
        <ele>611.8</ele>
        <time>2021-09-08T07:42:07Z</time>
      </trkpt>
      <trkpt lat="44.33851" lon="5.75807">
        <ele>611.8</ele>
        <time>2021-09-08T07:42:08Z</time>
      </trkpt>
      <trkpt lat="44.33848" lon="5.75802">
        <ele>611.8</ele>
        <time>2021-09-08T07:42:10Z</time>
      </trkpt>
      <trkpt lat="44.33845" lon="5.75799">
        <ele>611.8</ele>
        <time>2021-09-08T07:42:11Z</time>
      </trkpt>
      <trkpt lat="44.33842" lon="5.75794">
        <ele>611.9</ele>
        <time>2021-09-08T07:42:12Z</time>
      </trkpt>
      <trkpt lat="44.33839" lon="5.75791">
        <ele>611.9</ele>
        <time>2021-09-08T07:42:13Z</time>
      </trkpt>
      <trkpt lat="44.33837" lon="5.75789">
        <ele>611.9</ele>
        <time>2021-09-08T07:42:15Z</time>
      </trkpt>
      <trkpt lat="44.33833" lon="5.75785">
        <ele>612</ele>
        <time>2021-09-08T07:42:16Z</time>
      </trkpt>
      <trkpt lat="44.33831" lon="5.75782">
        <ele>612</ele>
        <time>2021-09-08T07:42:17Z</time>
      </trkpt>
      <trkpt lat="44.33826" lon="5.75777">
        <ele>612</ele>
        <time>2021-09-08T07:42:18Z</time>
      </trkpt>
      <trkpt lat="44.33821" lon="5.75773">
        <ele>612</ele>
        <time>2021-09-08T07:42:20Z</time>
      </trkpt>
      <trkpt lat="44.33817" lon="5.75769">
        <ele>612</ele>
        <time>2021-09-08T07:42:21Z</time>
      </trkpt>
      <trkpt lat="44.33814" lon="5.75766">
        <ele>612</ele>
        <time>2021-09-08T07:42:22Z</time>
      </trkpt>
      <trkpt lat="44.3381" lon="5.75763">
        <ele>612</ele>
        <time>2021-09-08T07:42:23Z</time>
      </trkpt>
      <trkpt lat="44.33806" lon="5.75759">
        <ele>612</ele>
        <time>2021-09-08T07:42:25Z</time>
      </trkpt>
      <trkpt lat="44.338" lon="5.75754">
        <ele>612.1</ele>
        <time>2021-09-08T07:42:27Z</time>
      </trkpt>
      <trkpt lat="44.33796" lon="5.7575">
        <ele>612.1</ele>
        <time>2021-09-08T07:42:28Z</time>
      </trkpt>
      <trkpt lat="44.33793" lon="5.75746">
        <ele>612.2</ele>
        <time>2021-09-08T07:42:29Z</time>
      </trkpt>
      <trkpt lat="44.3379" lon="5.7574">
        <ele>612.2</ele>
        <time>2021-09-08T07:42:31Z</time>
      </trkpt>
      <trkpt lat="44.33788" lon="5.75736">
        <ele>612.3</ele>
        <time>2021-09-08T07:42:32Z</time>
      </trkpt>
      <trkpt lat="44.33785" lon="5.7573">
        <ele>612.3</ele>
        <time>2021-09-08T07:42:33Z</time>
      </trkpt>
      <trkpt lat="44.33783" lon="5.75726">
        <ele>612.3</ele>
        <time>2021-09-08T07:42:34Z</time>
      </trkpt>
      <trkpt lat="44.33779" lon="5.75722">
        <ele>612.4</ele>
        <time>2021-09-08T07:42:36Z</time>
      </trkpt>
      <trkpt lat="44.33776" lon="5.75719">
        <ele>612.4</ele>
        <time>2021-09-08T07:42:37Z</time>
      </trkpt>
      <trkpt lat="44.33773" lon="5.75715">
        <ele>612.4</ele>
        <time>2021-09-08T07:42:38Z</time>
      </trkpt>
      <trkpt lat="44.33769" lon="5.75709">
        <ele>612.5</ele>
        <time>2021-09-08T07:42:40Z</time>
      </trkpt>
      <trkpt lat="44.33765" lon="5.75703">
        <ele>612.5</ele>
        <time>2021-09-08T07:42:41Z</time>
      </trkpt>
      <trkpt lat="44.33761" lon="5.75698">
        <ele>612.5</ele>
        <time>2021-09-08T07:42:42Z</time>
      </trkpt>
      <trkpt lat="44.33756" lon="5.75694">
        <ele>612.6</ele>
        <time>2021-09-08T07:42:44Z</time>
      </trkpt>
      <trkpt lat="44.33753" lon="5.75692">
        <ele>612.6</ele>
        <time>2021-09-08T07:42:45Z</time>
      </trkpt>
      <trkpt lat="44.33749" lon="5.75689">
        <ele>612.6</ele>
        <time>2021-09-08T07:42:46Z</time>
      </trkpt>
      <trkpt lat="44.33745" lon="5.75687">
        <ele>612.7</ele>
        <time>2021-09-08T07:42:47Z</time>
      </trkpt>
      <trkpt lat="44.3374" lon="5.75684">
        <ele>612.7</ele>
        <time>2021-09-08T07:42:49Z</time>
      </trkpt>
      <trkpt lat="44.33734" lon="5.75678">
        <ele>612.7</ele>
        <time>2021-09-08T07:42:50Z</time>
      </trkpt>
      <trkpt lat="44.3373" lon="5.75672">
        <ele>612.8</ele>
        <time>2021-09-08T07:42:52Z</time>
      </trkpt>
      <trkpt lat="44.33728" lon="5.75668">
        <ele>612.8</ele>
        <time>2021-09-08T07:42:53Z</time>
      </trkpt>
      <trkpt lat="44.33725" lon="5.75664">
        <ele>612.8</ele>
        <time>2021-09-08T07:42:54Z</time>
      </trkpt>
      <trkpt lat="44.3372" lon="5.75656">
        <ele>612.7</ele>
        <time>2021-09-08T07:42:56Z</time>
      </trkpt>
      <trkpt lat="44.33717" lon="5.75654">
        <ele>612.7</ele>
        <time>2021-09-08T07:42:57Z</time>
      </trkpt>
      <trkpt lat="44.33712" lon="5.75649">
        <ele>612.6</ele>
        <time>2021-09-08T07:42:59Z</time>
      </trkpt>
      <trkpt lat="44.33707" lon="5.75643">
        <ele>612.6</ele>
        <time>2021-09-08T07:43:01Z</time>
      </trkpt>
      <trkpt lat="44.33702" lon="5.75635">
        <ele>612.5</ele>
        <time>2021-09-08T07:43:03Z</time>
      </trkpt>
      <trkpt lat="44.33698" lon="5.75631">
        <ele>612.4</ele>
        <time>2021-09-08T07:43:04Z</time>
      </trkpt>
      <trkpt lat="44.33691" lon="5.75623">
        <ele>612.3</ele>
        <time>2021-09-08T07:43:06Z</time>
      </trkpt>
      <trkpt lat="44.33687" lon="5.75615">
        <ele>612.3</ele>
        <time>2021-09-08T07:43:08Z</time>
      </trkpt>
      <trkpt lat="44.33683" lon="5.75605">
        <ele>612.2</ele>
        <time>2021-09-08T07:43:10Z</time>
      </trkpt>
      <trkpt lat="44.33681" lon="5.756">
        <ele>612.2</ele>
        <time>2021-09-08T07:43:11Z</time>
      </trkpt>
      <trkpt lat="44.33679" lon="5.75589">
        <ele>612.2</ele>
        <time>2021-09-08T07:43:12Z</time>
      </trkpt>
      <trkpt lat="44.33675" lon="5.75583">
        <ele>612.3</ele>
        <time>2021-09-08T07:43:14Z</time>
      </trkpt>
      <trkpt lat="44.33669" lon="5.75579">
        <ele>612.3</ele>
        <time>2021-09-08T07:43:16Z</time>
      </trkpt>
      <trkpt lat="44.33666" lon="5.75578">
        <ele>612.4</ele>
        <time>2021-09-08T07:43:17Z</time>
      </trkpt>
      <trkpt lat="44.33663" lon="5.75577">
        <ele>612.4</ele>
        <time>2021-09-08T07:43:18Z</time>
      </trkpt>
      <trkpt lat="44.33658" lon="5.75575">
        <ele>612.4</ele>
        <time>2021-09-08T07:43:20Z</time>
      </trkpt>
      <trkpt lat="44.33653" lon="5.75579">
        <ele>611.1</ele>
        <time>2021-09-08T07:43:22Z</time>
      </trkpt>
      <trkpt lat="44.33648" lon="5.75583">
        <ele>610.6</ele>
        <time>2021-09-08T07:43:23Z</time>
      </trkpt>
      <trkpt lat="44.33645" lon="5.75585">
        <ele>610.2</ele>
        <time>2021-09-08T07:43:24Z</time>
      </trkpt>
      <trkpt lat="44.33638" lon="5.75588">
        <ele>609.7</ele>
        <time>2021-09-08T07:43:26Z</time>
      </trkpt>
      <trkpt lat="44.33633" lon="5.7559">
        <ele>609.7</ele>
        <time>2021-09-08T07:43:27Z</time>
      </trkpt>
      <trkpt lat="44.3363" lon="5.7559">
        <ele>609.7</ele>
        <time>2021-09-08T07:43:28Z</time>
      </trkpt>
      <trkpt lat="44.33627" lon="5.75591">
        <ele>609.6</ele>
        <time>2021-09-08T07:43:29Z</time>
      </trkpt>
      <trkpt lat="44.33623" lon="5.75592">
        <ele>609.6</ele>
        <time>2021-09-08T07:43:30Z</time>
      </trkpt>
      <trkpt lat="44.33617" lon="5.75593">
        <ele>609.5</ele>
        <time>2021-09-08T07:43:32Z</time>
      </trkpt>
      <trkpt lat="44.33613" lon="5.75592">
        <ele>609.5</ele>
        <time>2021-09-08T07:43:33Z</time>
      </trkpt>
      <trkpt lat="44.33608" lon="5.75591">
        <ele>609.5</ele>
        <time>2021-09-08T07:43:34Z</time>
      </trkpt>
      <trkpt lat="44.336" lon="5.75587">
        <ele>609.5</ele>
        <time>2021-09-08T07:43:36Z</time>
      </trkpt>
      <trkpt lat="44.33596" lon="5.75587">
        <ele>609.5</ele>
        <time>2021-09-08T07:43:37Z</time>
      </trkpt>
      <trkpt lat="44.3359" lon="5.75588">
        <ele>609.6</ele>
        <time>2021-09-08T07:43:38Z</time>
      </trkpt>
      <trkpt lat="44.33585" lon="5.75588">
        <ele>609.6</ele>
        <time>2021-09-08T07:43:40Z</time>
      </trkpt>
      <trkpt lat="44.33578" lon="5.75586">
        <ele>609.6</ele>
        <time>2021-09-08T07:43:42Z</time>
      </trkpt>
      <trkpt lat="44.33572" lon="5.75584">
        <ele>609.6</ele>
        <time>2021-09-08T07:43:44Z</time>
      </trkpt>
      <trkpt lat="44.33565" lon="5.75582">
        <ele>609.6</ele>
        <time>2021-09-08T07:43:46Z</time>
      </trkpt>
      <trkpt lat="44.33558" lon="5.75579">
        <ele>609.6</ele>
        <time>2021-09-08T07:43:48Z</time>
      </trkpt>
      <trkpt lat="44.33554" lon="5.75578">
        <ele>609.7</ele>
        <time>2021-09-08T07:43:49Z</time>
      </trkpt>
      <trkpt lat="44.33547" lon="5.75576">
        <ele>609.7</ele>
        <time>2021-09-08T07:43:51Z</time>
      </trkpt>
      <trkpt lat="44.33542" lon="5.75575">
        <ele>609.8</ele>
        <time>2021-09-08T07:43:52Z</time>
      </trkpt>
      <trkpt lat="44.33538" lon="5.75574">
        <ele>609.8</ele>
        <time>2021-09-08T07:43:53Z</time>
      </trkpt>
      <trkpt lat="44.3353" lon="5.75573">
        <ele>609.8</ele>
        <time>2021-09-08T07:43:55Z</time>
      </trkpt>
      <trkpt lat="44.33526" lon="5.75573">
        <ele>609.9</ele>
        <time>2021-09-08T07:43:56Z</time>
      </trkpt>
      <trkpt lat="44.33518" lon="5.75574">
        <ele>609.9</ele>
        <time>2021-09-08T07:43:58Z</time>
      </trkpt>
      <trkpt lat="44.33514" lon="5.75575">
        <ele>609.9</ele>
        <time>2021-09-08T07:43:59Z</time>
      </trkpt>
      <trkpt lat="44.33505" lon="5.75576">
        <ele>610</ele>
        <time>2021-09-08T07:44:01Z</time>
      </trkpt>
      <trkpt lat="44.33501" lon="5.75575">
        <ele>610</ele>
        <time>2021-09-08T07:44:02Z</time>
      </trkpt>
      <trkpt lat="44.33496" lon="5.75575">
        <ele>610.1</ele>
        <time>2021-09-08T07:44:03Z</time>
      </trkpt>
      <trkpt lat="44.33489" lon="5.75575">
        <ele>610.1</ele>
        <time>2021-09-08T07:44:05Z</time>
      </trkpt>
      <trkpt lat="44.33482" lon="5.75574">
        <ele>610.2</ele>
        <time>2021-09-08T07:44:07Z</time>
      </trkpt>
      <trkpt lat="44.33474" lon="5.75573">
        <ele>610.3</ele>
        <time>2021-09-08T07:44:09Z</time>
      </trkpt>
      <trkpt lat="44.33471" lon="5.75573">
        <ele>610.4</ele>
        <time>2021-09-08T07:44:10Z</time>
      </trkpt>
      <trkpt lat="44.33468" lon="5.75572">
        <ele>610.4</ele>
        <time>2021-09-08T07:44:11Z</time>
      </trkpt>
      <trkpt lat="44.33464" lon="5.75571">
        <ele>610.5</ele>
        <time>2021-09-08T07:44:12Z</time>
      </trkpt>
      <trkpt lat="44.33459" lon="5.7557">
        <ele>610.6</ele>
        <time>2021-09-08T07:44:13Z</time>
      </trkpt>
      <trkpt lat="44.33455" lon="5.75569">
        <ele>610.6</ele>
        <time>2021-09-08T07:44:15Z</time>
      </trkpt>
      <trkpt lat="44.33451" lon="5.75569">
        <ele>610.7</ele>
        <time>2021-09-08T07:44:16Z</time>
      </trkpt>
      <trkpt lat="44.33447" lon="5.75569">
        <ele>610.7</ele>
        <time>2021-09-08T07:44:18Z</time>
      </trkpt>
      <trkpt lat="44.33443" lon="5.75566">
        <ele>610.7</ele>
        <time>2021-09-08T07:44:19Z</time>
      </trkpt>
      <trkpt lat="44.33439" lon="5.75562">
        <ele>610.8</ele>
        <time>2021-09-08T07:44:20Z</time>
      </trkpt>
      <trkpt lat="44.33434" lon="5.75562">
        <ele>610.8</ele>
        <time>2021-09-08T07:44:22Z</time>
      </trkpt>
      <trkpt lat="44.33427" lon="5.75559">
        <ele>610.9</ele>
        <time>2021-09-08T07:44:23Z</time>
      </trkpt>
      <trkpt lat="44.33423" lon="5.75557">
        <ele>610.9</ele>
        <time>2021-09-08T07:44:24Z</time>
      </trkpt>
      <trkpt lat="44.33417" lon="5.75556">
        <ele>611</ele>
        <time>2021-09-08T07:44:26Z</time>
      </trkpt>
      <trkpt lat="44.3341" lon="5.75553">
        <ele>611.1</ele>
        <time>2021-09-08T07:44:28Z</time>
      </trkpt>
      <trkpt lat="44.33405" lon="5.75549">
        <ele>611.1</ele>
        <time>2021-09-08T07:44:29Z</time>
      </trkpt>
      <trkpt lat="44.33401" lon="5.75547">
        <ele>611.2</ele>
        <time>2021-09-08T07:44:30Z</time>
      </trkpt>
      <trkpt lat="44.33397" lon="5.75543">
        <ele>611.2</ele>
        <time>2021-09-08T07:44:31Z</time>
      </trkpt>
      <trkpt lat="44.33389" lon="5.75538">
        <ele>611.3</ele>
        <time>2021-09-08T07:44:33Z</time>
      </trkpt>
      <trkpt lat="44.33384" lon="5.75538">
        <ele>611.3</ele>
        <time>2021-09-08T07:44:34Z</time>
      </trkpt>
      <trkpt lat="44.33381" lon="5.75538">
        <ele>611.3</ele>
        <time>2021-09-08T07:44:35Z</time>
      </trkpt>
      <trkpt lat="44.33377" lon="5.75537">
        <ele>611.3</ele>
        <time>2021-09-08T07:44:36Z</time>
      </trkpt>
      <trkpt lat="44.3337" lon="5.75536">
        <ele>611.4</ele>
        <time>2021-09-08T07:44:38Z</time>
      </trkpt>
      <trkpt lat="44.33364" lon="5.75536">
        <ele>611.4</ele>
        <time>2021-09-08T07:44:40Z</time>
      </trkpt>
      <trkpt lat="44.33361" lon="5.75536">
        <ele>611.4</ele>
        <time>2021-09-08T07:44:41Z</time>
      </trkpt>
      <trkpt lat="44.33358" lon="5.75536">
        <ele>611.4</ele>
        <time>2021-09-08T07:44:42Z</time>
      </trkpt>
      <trkpt lat="44.33351" lon="5.75534">
        <ele>611.5</ele>
        <time>2021-09-08T07:44:44Z</time>
      </trkpt>
      <trkpt lat="44.33344" lon="5.75532">
        <ele>611.6</ele>
        <time>2021-09-08T07:44:46Z</time>
      </trkpt>
      <trkpt lat="44.33341" lon="5.75531">
        <ele>611.6</ele>
        <time>2021-09-08T07:44:47Z</time>
      </trkpt>
      <trkpt lat="44.33337" lon="5.75529">
        <ele>611.6</ele>
        <time>2021-09-08T07:44:48Z</time>
      </trkpt>
      <trkpt lat="44.33331" lon="5.75527">
        <ele>611.7</ele>
        <time>2021-09-08T07:44:50Z</time>
      </trkpt>
      <trkpt lat="44.33326" lon="5.75525">
        <ele>611.7</ele>
        <time>2021-09-08T07:44:51Z</time>
      </trkpt>
      <trkpt lat="44.33324" lon="5.75523">
        <ele>611.7</ele>
        <time>2021-09-08T07:44:52Z</time>
      </trkpt>
      <trkpt lat="44.33321" lon="5.75521">
        <ele>611.7</ele>
        <time>2021-09-08T07:44:53Z</time>
      </trkpt>
      <trkpt lat="44.33318" lon="5.75521">
        <ele>611.7</ele>
        <time>2021-09-08T07:44:54Z</time>
      </trkpt>
      <trkpt lat="44.33313" lon="5.75519">
        <ele>611.7</ele>
        <time>2021-09-08T07:44:56Z</time>
      </trkpt>
      <trkpt lat="44.33309" lon="5.75518">
        <ele>611.7</ele>
        <time>2021-09-08T07:44:58Z</time>
      </trkpt>
      <trkpt lat="44.33305" lon="5.75517">
        <ele>611.8</ele>
        <time>2021-09-08T07:44:59Z</time>
      </trkpt>
      <trkpt lat="44.33302" lon="5.75518">
        <ele>611.8</ele>
        <time>2021-09-08T07:45:00Z</time>
      </trkpt>
      <trkpt lat="44.33299" lon="5.75518">
        <ele>611.8</ele>
        <time>2021-09-08T07:45:01Z</time>
      </trkpt>
      <trkpt lat="44.33295" lon="5.75517">
        <ele>611.8</ele>
        <time>2021-09-08T07:45:02Z</time>
      </trkpt>
      <trkpt lat="44.33288" lon="5.75516">
        <ele>611.7</ele>
        <time>2021-09-08T07:45:04Z</time>
      </trkpt>
      <trkpt lat="44.33278" lon="5.75514">
        <ele>611.7</ele>
        <time>2021-09-08T07:45:05Z</time>
      </trkpt>
      <trkpt lat="44.33266" lon="5.7551">
        <ele>611.7</ele>
        <time>2021-09-08T07:45:07Z</time>
      </trkpt>
      <trkpt lat="44.3326" lon="5.75507">
        <ele>611.6</ele>
        <time>2021-09-08T07:45:08Z</time>
      </trkpt>
      <trkpt lat="44.33248" lon="5.75502">
        <ele>611.5</ele>
        <time>2021-09-08T07:45:10Z</time>
      </trkpt>
      <trkpt lat="44.33243" lon="5.75499">
        <ele>611.4</ele>
        <time>2021-09-08T07:45:11Z</time>
      </trkpt>
      <trkpt lat="44.33237" lon="5.75495">
        <ele>611.3</ele>
        <time>2021-09-08T07:45:13Z</time>
      </trkpt>
      <trkpt lat="44.33231" lon="5.75491">
        <ele>611.3</ele>
        <time>2021-09-08T07:45:14Z</time>
      </trkpt>
      <trkpt lat="44.33222" lon="5.7549">
        <ele>611.2</ele>
        <time>2021-09-08T07:45:16Z</time>
      </trkpt>
      <trkpt lat="44.33218" lon="5.75489">
        <ele>611.2</ele>
        <time>2021-09-08T07:45:17Z</time>
      </trkpt>
      <trkpt lat="44.33211" lon="5.75487">
        <ele>611.1</ele>
        <time>2021-09-08T07:45:19Z</time>
      </trkpt>
      <trkpt lat="44.33207" lon="5.75488">
        <ele>611.1</ele>
        <time>2021-09-08T07:45:20Z</time>
      </trkpt>
      <trkpt lat="44.33196" lon="5.75488">
        <ele>610.9</ele>
        <time>2021-09-08T07:45:22Z</time>
      </trkpt>
      <trkpt lat="44.33189" lon="5.75489">
        <ele>610.8</ele>
        <time>2021-09-08T07:45:24Z</time>
      </trkpt>
      <trkpt lat="44.33183" lon="5.75491">
        <ele>610.6</ele>
        <time>2021-09-08T07:45:25Z</time>
      </trkpt>
      <trkpt lat="44.33179" lon="5.75492">
        <ele>610.5</ele>
        <time>2021-09-08T07:45:26Z</time>
      </trkpt>
      <trkpt lat="44.33176" lon="5.75491">
        <ele>610.4</ele>
        <time>2021-09-08T07:45:27Z</time>
      </trkpt>
      <trkpt lat="44.33172" lon="5.75489">
        <ele>610.3</ele>
        <time>2021-09-08T07:45:28Z</time>
      </trkpt>
      <trkpt lat="44.33166" lon="5.75481">
        <ele>610.1</ele>
        <time>2021-09-08T07:45:30Z</time>
      </trkpt>
      <trkpt lat="44.3316" lon="5.75468">
        <ele>609.8</ele>
        <time>2021-09-08T07:45:32Z</time>
      </trkpt>
      <trkpt lat="44.33157" lon="5.75461">
        <ele>609.7</ele>
        <time>2021-09-08T07:45:33Z</time>
      </trkpt>
      <trkpt lat="44.33146" lon="5.75445">
        <ele>609.2</ele>
        <time>2021-09-08T07:45:35Z</time>
      </trkpt>
      <trkpt lat="44.33141" lon="5.75442">
        <ele>609.1</ele>
        <time>2021-09-08T07:45:36Z</time>
      </trkpt>
      <trkpt lat="44.33131" lon="5.75438">
        <ele>608.8</ele>
        <time>2021-09-08T07:45:38Z</time>
      </trkpt>
      <trkpt lat="44.33121" lon="5.75436">
        <ele>608.6</ele>
        <time>2021-09-08T07:45:40Z</time>
      </trkpt>
      <trkpt lat="44.33116" lon="5.75434">
        <ele>608.4</ele>
        <time>2021-09-08T07:45:41Z</time>
      </trkpt>
      <trkpt lat="44.33106" lon="5.75432">
        <ele>608.1</ele>
        <time>2021-09-08T07:45:43Z</time>
      </trkpt>
      <trkpt lat="44.33101" lon="5.7543">
        <ele>608.1</ele>
        <time>2021-09-08T07:45:44Z</time>
      </trkpt>
      <trkpt lat="44.33091" lon="5.75427">
        <ele>608.1</ele>
        <time>2021-09-08T07:45:46Z</time>
      </trkpt>
      <trkpt lat="44.33087" lon="5.75425">
        <ele>608.1</ele>
        <time>2021-09-08T07:45:47Z</time>
      </trkpt>
      <trkpt lat="44.33081" lon="5.75423">
        <ele>608.1</ele>
        <time>2021-09-08T07:45:48Z</time>
      </trkpt>
      <trkpt lat="44.33072" lon="5.75416">
        <ele>608</ele>
        <time>2021-09-08T07:45:50Z</time>
      </trkpt>
      <trkpt lat="44.33063" lon="5.75407">
        <ele>608</ele>
        <time>2021-09-08T07:45:52Z</time>
      </trkpt>
      <trkpt lat="44.3306" lon="5.75403">
        <ele>608</ele>
        <time>2021-09-08T07:45:53Z</time>
      </trkpt>
      <trkpt lat="44.33056" lon="5.75398">
        <ele>608</ele>
        <time>2021-09-08T07:45:54Z</time>
      </trkpt>
      <trkpt lat="44.33049" lon="5.75391">
        <ele>608</ele>
        <time>2021-09-08T07:45:56Z</time>
      </trkpt>
      <trkpt lat="44.33045" lon="5.75387">
        <ele>608</ele>
        <time>2021-09-08T07:45:57Z</time>
      </trkpt>
      <trkpt lat="44.33037" lon="5.75379">
        <ele>608</ele>
        <time>2021-09-08T07:45:59Z</time>
      </trkpt>
      <trkpt lat="44.33031" lon="5.7537">
        <ele>608</ele>
        <time>2021-09-08T07:46:01Z</time>
      </trkpt>
      <trkpt lat="44.33029" lon="5.75367">
        <ele>608</ele>
        <time>2021-09-08T07:46:02Z</time>
      </trkpt>
      <trkpt lat="44.33027" lon="5.75362">
        <ele>608</ele>
        <time>2021-09-08T07:46:03Z</time>
      </trkpt>
      <trkpt lat="44.33021" lon="5.75355">
        <ele>608</ele>
        <time>2021-09-08T07:46:05Z</time>
      </trkpt>
      <trkpt lat="44.33018" lon="5.75353">
        <ele>608</ele>
        <time>2021-09-08T07:46:06Z</time>
      </trkpt>
      <trkpt lat="44.33015" lon="5.75351">
        <ele>608</ele>
        <time>2021-09-08T07:46:08Z</time>
      </trkpt>
      <trkpt lat="44.33013" lon="5.75348">
        <ele>608</ele>
        <time>2021-09-08T07:46:09Z</time>
      </trkpt>
      <trkpt lat="44.33011" lon="5.75345">
        <ele>608</ele>
        <time>2021-09-08T07:46:10Z</time>
      </trkpt>
      <trkpt lat="44.33009" lon="5.75343">
        <ele>608</ele>
        <time>2021-09-08T07:46:11Z</time>
      </trkpt>
      <trkpt lat="44.33002" lon="5.7534">
        <ele>608.1</ele>
        <time>2021-09-08T07:46:13Z</time>
      </trkpt>
      <trkpt lat="44.32997" lon="5.75336">
        <ele>608.1</ele>
        <time>2021-09-08T07:46:15Z</time>
      </trkpt>
      <trkpt lat="44.32994" lon="5.75335">
        <ele>608.1</ele>
        <time>2021-09-08T07:46:16Z</time>
      </trkpt>
      <trkpt lat="44.32994" lon="5.75335">
        <ele>608.1</ele>
        <time>2021-09-08T07:46:16Z</time>
      </trkpt>
      <trkpt lat="44.32989" lon="5.75333">
        <ele>608.1</ele>
        <time>2021-09-08T07:46:17Z</time>
      </trkpt>
      <trkpt lat="44.32985" lon="5.75331">
        <ele>608.1</ele>
        <time>2021-09-08T07:46:19Z</time>
      </trkpt>
      <trkpt lat="44.32981" lon="5.75329">
        <ele>608.2</ele>
        <time>2021-09-08T07:46:20Z</time>
      </trkpt>
      <trkpt lat="44.32974" lon="5.75325">
        <ele>608.2</ele>
        <time>2021-09-08T07:46:22Z</time>
      </trkpt>
      <trkpt lat="44.32969" lon="5.75324">
        <ele>608.2</ele>
        <time>2021-09-08T07:46:23Z</time>
      </trkpt>
      <trkpt lat="44.32965" lon="5.75324">
        <ele>608.2</ele>
        <time>2021-09-08T07:46:24Z</time>
      </trkpt>
      <trkpt lat="44.3296" lon="5.75322">
        <ele>608.3</ele>
        <time>2021-09-08T07:46:26Z</time>
      </trkpt>
      <trkpt lat="44.32955" lon="5.75319">
        <ele>608.3</ele>
        <time>2021-09-08T07:46:27Z</time>
      </trkpt>
      <trkpt lat="44.32948" lon="5.75314">
        <ele>608.4</ele>
        <time>2021-09-08T07:46:29Z</time>
      </trkpt>
      <trkpt lat="44.32941" lon="5.75306">
        <ele>608.4</ele>
        <time>2021-09-08T07:46:31Z</time>
      </trkpt>
      <trkpt lat="44.32938" lon="5.75302">
        <ele>608.5</ele>
        <time>2021-09-08T07:46:32Z</time>
      </trkpt>
      <trkpt lat="44.32934" lon="5.75297">
        <ele>608.5</ele>
        <time>2021-09-08T07:46:34Z</time>
      </trkpt>
      <trkpt lat="44.3293" lon="5.75296">
        <ele>608.5</ele>
        <time>2021-09-08T07:46:35Z</time>
      </trkpt>
      <trkpt lat="44.32928" lon="5.75296">
        <ele>608.5</ele>
        <time>2021-09-08T07:46:36Z</time>
      </trkpt>
      <trkpt lat="44.32923" lon="5.75296">
        <ele>608.6</ele>
        <time>2021-09-08T07:46:37Z</time>
      </trkpt>
      <trkpt lat="44.32918" lon="5.75293">
        <ele>608.6</ele>
        <time>2021-09-08T07:46:39Z</time>
      </trkpt>
      <trkpt lat="44.32913" lon="5.75289">
        <ele>608.6</ele>
        <time>2021-09-08T07:46:40Z</time>
      </trkpt>
      <trkpt lat="44.32908" lon="5.75285">
        <ele>608.7</ele>
        <time>2021-09-08T07:46:41Z</time>
      </trkpt>
      <trkpt lat="44.32903" lon="5.75278">
        <ele>608.7</ele>
        <time>2021-09-08T07:46:42Z</time>
      </trkpt>
      <trkpt lat="44.32898" lon="5.75267">
        <ele>608.8</ele>
        <time>2021-09-08T07:46:44Z</time>
      </trkpt>
      <trkpt lat="44.32892" lon="5.75257">
        <ele>608.9</ele>
        <time>2021-09-08T07:46:45Z</time>
      </trkpt>
      <trkpt lat="44.32889" lon="5.75249">
        <ele>608.9</ele>
        <time>2021-09-08T07:46:46Z</time>
      </trkpt>
      <trkpt lat="44.32886" lon="5.75244">
        <ele>608.9</ele>
        <time>2021-09-08T07:46:47Z</time>
      </trkpt>
      <trkpt lat="44.32884" lon="5.75239">
        <ele>608.9</ele>
        <time>2021-09-08T07:46:49Z</time>
      </trkpt>
      <trkpt lat="44.32882" lon="5.75232">
        <ele>609</ele>
        <time>2021-09-08T07:46:50Z</time>
      </trkpt>
      <trkpt lat="44.3288" lon="5.75226">
        <ele>609</ele>
        <time>2021-09-08T07:46:51Z</time>
      </trkpt>
      <trkpt lat="44.32879" lon="5.7522">
        <ele>609.1</ele>
        <time>2021-09-08T07:46:52Z</time>
      </trkpt>
      <trkpt lat="44.32876" lon="5.75215">
        <ele>609.1</ele>
        <time>2021-09-08T07:46:53Z</time>
      </trkpt>
      <trkpt lat="44.32874" lon="5.75207">
        <ele>609.1</ele>
        <time>2021-09-08T07:46:54Z</time>
      </trkpt>
      <trkpt lat="44.32872" lon="5.752">
        <ele>609.2</ele>
        <time>2021-09-08T07:46:55Z</time>
      </trkpt>
      <trkpt lat="44.3287" lon="5.75194">
        <ele>609.2</ele>
        <time>2021-09-08T07:46:56Z</time>
      </trkpt>
      <trkpt lat="44.32867" lon="5.75188">
        <ele>609.2</ele>
        <time>2021-09-08T07:46:57Z</time>
      </trkpt>
      <trkpt lat="44.32863" lon="5.75183">
        <ele>609.2</ele>
        <time>2021-09-08T07:46:59Z</time>
      </trkpt>
      <trkpt lat="44.32859" lon="5.75178">
        <ele>609.3</ele>
        <time>2021-09-08T07:47:00Z</time>
      </trkpt>
      <trkpt lat="44.32856" lon="5.75174">
        <ele>609.3</ele>
        <time>2021-09-08T07:47:01Z</time>
      </trkpt>
      <trkpt lat="44.32852" lon="5.75169">
        <ele>609.3</ele>
        <time>2021-09-08T07:47:02Z</time>
      </trkpt>
      <trkpt lat="44.32849" lon="5.75166">
        <ele>609.3</ele>
        <time>2021-09-08T07:47:03Z</time>
      </trkpt>
      <trkpt lat="44.32845" lon="5.75161">
        <ele>609.3</ele>
        <time>2021-09-08T07:47:05Z</time>
      </trkpt>
      <trkpt lat="44.32842" lon="5.75155">
        <ele>609.4</ele>
        <time>2021-09-08T07:47:06Z</time>
      </trkpt>
      <trkpt lat="44.3284" lon="5.75149">
        <ele>609.4</ele>
        <time>2021-09-08T07:47:07Z</time>
      </trkpt>
      <trkpt lat="44.32837" lon="5.75141">
        <ele>609.5</ele>
        <time>2021-09-08T07:47:08Z</time>
      </trkpt>
      <trkpt lat="44.32834" lon="5.75135">
        <ele>609.6</ele>
        <time>2021-09-08T07:47:09Z</time>
      </trkpt>
      <trkpt lat="44.32832" lon="5.7513">
        <ele>609.6</ele>
        <time>2021-09-08T07:47:10Z</time>
      </trkpt>
      <trkpt lat="44.32831" lon="5.75123">
        <ele>609.7</ele>
        <time>2021-09-08T07:47:12Z</time>
      </trkpt>
      <trkpt lat="44.32831" lon="5.75117">
        <ele>609.8</ele>
        <time>2021-09-08T07:47:13Z</time>
      </trkpt>
      <trkpt lat="44.32831" lon="5.75113">
        <ele>609.9</ele>
        <time>2021-09-08T07:47:14Z</time>
      </trkpt>
      <trkpt lat="44.3283" lon="5.75108">
        <ele>609.9</ele>
        <time>2021-09-08T07:47:15Z</time>
      </trkpt>
      <trkpt lat="44.32829" lon="5.75102">
        <ele>610</ele>
        <time>2021-09-08T07:47:16Z</time>
      </trkpt>
      <trkpt lat="44.32828" lon="5.75098">
        <ele>610.1</ele>
        <time>2021-09-08T07:47:17Z</time>
      </trkpt>
      <trkpt lat="44.32825" lon="5.75091">
        <ele>610.1</ele>
        <time>2021-09-08T07:47:19Z</time>
      </trkpt>
      <trkpt lat="44.32822" lon="5.75084">
        <ele>610.2</ele>
        <time>2021-09-08T07:47:20Z</time>
      </trkpt>
      <trkpt lat="44.3282" lon="5.7508">
        <ele>610.3</ele>
        <time>2021-09-08T07:47:21Z</time>
      </trkpt>
      <trkpt lat="44.32817" lon="5.75075">
        <ele>610.4</ele>
        <time>2021-09-08T07:47:22Z</time>
      </trkpt>
      <trkpt lat="44.32814" lon="5.7507">
        <ele>610.5</ele>
        <time>2021-09-08T07:47:23Z</time>
      </trkpt>
      <trkpt lat="44.32811" lon="5.75067">
        <ele>610.6</ele>
        <time>2021-09-08T07:47:25Z</time>
      </trkpt>
      <trkpt lat="44.3281" lon="5.75067">
        <ele>610.6</ele>
        <time>2021-09-08T07:47:26Z</time>
      </trkpt>
      <trkpt lat="44.32806" lon="5.75064">
        <ele>610.7</ele>
        <time>2021-09-08T07:47:27Z</time>
      </trkpt>
      <trkpt lat="44.32801" lon="5.75062">
        <ele>610.9</ele>
        <time>2021-09-08T07:47:28Z</time>
      </trkpt>
      <trkpt lat="44.32789" lon="5.75057">
        <ele>611.2</ele>
        <time>2021-09-08T07:47:30Z</time>
      </trkpt>
      <trkpt lat="44.32777" lon="5.75052">
        <ele>611.4</ele>
        <time>2021-09-08T07:47:32Z</time>
      </trkpt>
      <trkpt lat="44.32765" lon="5.75051">
        <ele>611.6</ele>
        <time>2021-09-08T07:47:33Z</time>
      </trkpt>
      <trkpt lat="44.32757" lon="5.75046">
        <ele>611.8</ele>
        <time>2021-09-08T07:47:35Z</time>
      </trkpt>
      <trkpt lat="44.32753" lon="5.75044">
        <ele>611.9</ele>
        <time>2021-09-08T07:47:36Z</time>
      </trkpt>
      <trkpt lat="44.32751" lon="5.75026">
        <ele>612.2</ele>
        <time>2021-09-08T07:47:38Z</time>
      </trkpt>
      <trkpt lat="44.32749" lon="5.7502">
        <ele>612.3</ele>
        <time>2021-09-08T07:47:39Z</time>
      </trkpt>
      <trkpt lat="44.32748" lon="5.75015">
        <ele>612.4</ele>
        <time>2021-09-08T07:47:40Z</time>
      </trkpt>
      <trkpt lat="44.32747" lon="5.75008">
        <ele>612.5</ele>
        <time>2021-09-08T07:47:42Z</time>
      </trkpt>
      <trkpt lat="44.32744" lon="5.74997">
        <ele>612.7</ele>
        <time>2021-09-08T07:47:44Z</time>
      </trkpt>
      <trkpt lat="44.32743" lon="5.74993">
        <ele>612.7</ele>
        <time>2021-09-08T07:47:46Z</time>
      </trkpt>
      <trkpt lat="44.32743" lon="5.74993">
        <ele>612.7</ele>
        <time>2021-09-08T07:47:48Z</time>
      </trkpt>
      <trkpt lat="44.32743" lon="5.74993">
        <ele>612.7</ele>
        <time>2021-09-08T07:47:49Z</time>
      </trkpt>
      <trkpt lat="44.32742" lon="5.74992">
        <ele>612.8</ele>
        <time>2021-09-08T07:47:51Z</time>
      </trkpt>
      <trkpt lat="44.3274" lon="5.74993">
        <ele>612.8</ele>
        <time>2021-09-08T07:47:53Z</time>
      </trkpt>
      <trkpt lat="44.32738" lon="5.74994">
        <ele>612.8</ele>
        <time>2021-09-08T07:47:55Z</time>
      </trkpt>
      <trkpt lat="44.32542" lon="5.74831">
        <ele>618.7</ele>
        <time>2021-09-08T07:49:19Z</time>
      </trkpt>
      <trkpt lat="44.32539" lon="5.74832">
        <ele>618.7</ele>
        <time>2021-09-08T07:49:20Z</time>
      </trkpt>
      <trkpt lat="44.32533" lon="5.74834">
        <ele>618.7</ele>
        <time>2021-09-08T07:49:21Z</time>
      </trkpt>
      <trkpt lat="44.32517" lon="5.74837">
        <ele>618.5</ele>
        <time>2021-09-08T07:49:23Z</time>
      </trkpt>
      <trkpt lat="44.32508" lon="5.74839">
        <ele>618.4</ele>
        <time>2021-09-08T07:49:24Z</time>
      </trkpt>
      <trkpt lat="44.32502" lon="5.74838">
        <ele>618.4</ele>
        <time>2021-09-08T07:49:25Z</time>
      </trkpt>
      <trkpt lat="44.32499" lon="5.74837">
        <ele>618.4</ele>
        <time>2021-09-08T07:49:26Z</time>
      </trkpt>
      <trkpt lat="44.32496" lon="5.74837">
        <ele>618.4</ele>
        <time>2021-09-08T07:49:27Z</time>
      </trkpt>
      <trkpt lat="44.32493" lon="5.74836">
        <ele>618.4</ele>
        <time>2021-09-08T07:49:29Z</time>
      </trkpt>
      <trkpt lat="44.3249" lon="5.74837">
        <ele>618.4</ele>
        <time>2021-09-08T07:49:30Z</time>
      </trkpt>
      <trkpt lat="44.32459" lon="5.7485">
        <ele>619</ele>
        <time>2021-09-08T07:49:36Z</time>
      </trkpt>
      <trkpt lat="44.32456" lon="5.74853">
        <ele>619.1</ele>
        <time>2021-09-08T07:49:37Z</time>
      </trkpt>
      <trkpt lat="44.32451" lon="5.74855">
        <ele>619.2</ele>
        <time>2021-09-08T07:49:38Z</time>
      </trkpt>
      <trkpt lat="44.32446" lon="5.74856">
        <ele>619.4</ele>
        <time>2021-09-08T07:49:39Z</time>
      </trkpt>
      <trkpt lat="44.32442" lon="5.74855">
        <ele>619.5</ele>
        <time>2021-09-08T07:49:40Z</time>
      </trkpt>
      <trkpt lat="44.32438" lon="5.74855">
        <ele>619.6</ele>
        <time>2021-09-08T07:49:41Z</time>
      </trkpt>
      <trkpt lat="44.32435" lon="5.74855">
        <ele>619.7</ele>
        <time>2021-09-08T07:49:42Z</time>
      </trkpt>
      <trkpt lat="44.32435" lon="5.74855">
        <ele>619.7</ele>
        <time>2021-09-08T07:49:43Z</time>
      </trkpt>
      <trkpt lat="44.32433" lon="5.74854">
        <ele>619.8</ele>
        <time>2021-09-08T07:49:44Z</time>
      </trkpt>
      <trkpt lat="44.32433" lon="5.74853">
        <ele>619.8</ele>
        <time>2021-09-08T07:49:45Z</time>
      </trkpt>
      <trkpt lat="44.32432" lon="5.74853">
        <ele>619.8</ele>
        <time>2021-09-08T07:49:46Z</time>
      </trkpt>
      <trkpt lat="44.32433" lon="5.74851">
        <ele>619.9</ele>
        <time>2021-09-08T07:49:47Z</time>
      </trkpt>
      <trkpt lat="44.32433" lon="5.74848">
        <ele>619.9</ele>
        <time>2021-09-08T07:49:49Z</time>
      </trkpt>
      <trkpt lat="44.32432" lon="5.74847">
        <ele>619.9</ele>
        <time>2021-09-08T07:49:50Z</time>
      </trkpt>
      <trkpt lat="44.32432" lon="5.74846">
        <ele>620</ele>
        <time>2021-09-08T07:49:51Z</time>
      </trkpt>
      <trkpt lat="44.32432" lon="5.74846">
        <ele>620</ele>
        <time>2021-09-08T07:49:52Z</time>
      </trkpt>
      <trkpt lat="44.32431" lon="5.74846">
        <ele>620</ele>
        <time>2021-09-08T07:49:53Z</time>
      </trkpt>
      <trkpt lat="44.32431" lon="5.74845">
        <ele>620</ele>
        <time>2021-09-08T07:49:54Z</time>
      </trkpt>
      <trkpt lat="44.32431" lon="5.74844">
        <ele>620</ele>
        <time>2021-09-08T07:49:55Z</time>
      </trkpt>
      <trkpt lat="44.3243" lon="5.74843">
        <ele>620.1</ele>
        <time>2021-09-08T07:49:56Z</time>
      </trkpt>
      <trkpt lat="44.3243" lon="5.74841">
        <ele>620.1</ele>
        <time>2021-09-08T07:49:58Z</time>
      </trkpt>
      <trkpt lat="44.3243" lon="5.74841">
        <ele>620.1</ele>
        <time>2021-09-08T07:49:59Z</time>
      </trkpt>
      <trkpt lat="44.32428" lon="5.7484">
        <ele>620.2</ele>
        <time>2021-09-08T07:50:00Z</time>
      </trkpt>
      <trkpt lat="44.32427" lon="5.74837">
        <ele>620.2</ele>
        <time>2021-09-08T07:50:02Z</time>
      </trkpt>
      <trkpt lat="44.32424" lon="5.74837">
        <ele>620.3</ele>
        <time>2021-09-08T07:50:04Z</time>
      </trkpt>
      <trkpt lat="44.32423" lon="5.74836">
        <ele>620.3</ele>
        <time>2021-09-08T07:50:05Z</time>
      </trkpt>
      <trkpt lat="44.32419" lon="5.74835">
        <ele>620.4</ele>
        <time>2021-09-08T07:50:07Z</time>
      </trkpt>
      <trkpt lat="44.32417" lon="5.74835">
        <ele>620.5</ele>
        <time>2021-09-08T07:50:08Z</time>
      </trkpt>
      <trkpt lat="44.32413" lon="5.74834">
        <ele>620.6</ele>
        <time>2021-09-08T07:50:10Z</time>
      </trkpt>
      <trkpt lat="44.32409" lon="5.74833">
        <ele>620.7</ele>
        <time>2021-09-08T07:50:11Z</time>
      </trkpt>
      <trkpt lat="44.32408" lon="5.74833">
        <ele>620.7</ele>
        <time>2021-09-08T07:50:12Z</time>
      </trkpt>
      <trkpt lat="44.32406" lon="5.74831">
        <ele>621.2</ele>
        <time>2021-09-08T07:50:14Z</time>
      </trkpt>
      <trkpt lat="44.32405" lon="5.7483">
        <ele>621.2</ele>
        <time>2021-09-08T07:50:15Z</time>
      </trkpt>
      <trkpt lat="44.32401" lon="5.7483">
        <ele>621.3</ele>
        <time>2021-09-08T07:50:16Z</time>
      </trkpt>
      <trkpt lat="44.32398" lon="5.74827">
        <ele>621.4</ele>
        <time>2021-09-08T07:50:18Z</time>
      </trkpt>
      <trkpt lat="44.32393" lon="5.74824">
        <ele>621.5</ele>
        <time>2021-09-08T07:50:20Z</time>
      </trkpt>
      <trkpt lat="44.3239" lon="5.74821">
        <ele>621.5</ele>
        <time>2021-09-08T07:50:21Z</time>
      </trkpt>
      <trkpt lat="44.32384" lon="5.74817">
        <ele>621.7</ele>
        <time>2021-09-08T07:50:23Z</time>
      </trkpt>
      <trkpt lat="44.32381" lon="5.74814">
        <ele>621.7</ele>
        <time>2021-09-08T07:50:24Z</time>
      </trkpt>
      <trkpt lat="44.32378" lon="5.74812">
        <ele>621.8</ele>
        <time>2021-09-08T07:50:25Z</time>
      </trkpt>
      <trkpt lat="44.32376" lon="5.74811">
        <ele>621.8</ele>
        <time>2021-09-08T07:50:27Z</time>
      </trkpt>
      <trkpt lat="44.32372" lon="5.7481">
        <ele>621.9</ele>
        <time>2021-09-08T07:50:29Z</time>
      </trkpt>
      <trkpt lat="44.32368" lon="5.74807">
        <ele>622</ele>
        <time>2021-09-08T07:50:30Z</time>
      </trkpt>
      <trkpt lat="44.32364" lon="5.74803">
        <ele>622.1</ele>
        <time>2021-09-08T07:50:32Z</time>
      </trkpt>
      <trkpt lat="44.32358" lon="5.74799">
        <ele>622.3</ele>
        <time>2021-09-08T07:50:34Z</time>
      </trkpt>
      <trkpt lat="44.32356" lon="5.74796">
        <ele>622.3</ele>
        <time>2021-09-08T07:50:35Z</time>
      </trkpt>
      <trkpt lat="44.32355" lon="5.74792">
        <ele>622.4</ele>
        <time>2021-09-08T07:50:36Z</time>
      </trkpt>
      <trkpt lat="44.32353" lon="5.74785">
        <ele>622.6</ele>
        <time>2021-09-08T07:50:38Z</time>
      </trkpt>
      <trkpt lat="44.32353" lon="5.74777">
        <ele>622.7</ele>
        <time>2021-09-08T07:50:40Z</time>
      </trkpt>
      <trkpt lat="44.32351" lon="5.74771">
        <ele>622.9</ele>
        <time>2021-09-08T07:50:41Z</time>
      </trkpt>
      <trkpt lat="44.32349" lon="5.74763">
        <ele>623</ele>
        <time>2021-09-08T07:50:43Z</time>
      </trkpt>
      <trkpt lat="44.32349" lon="5.7476">
        <ele>623.1</ele>
        <time>2021-09-08T07:50:44Z</time>
      </trkpt>
      <trkpt lat="44.32346" lon="5.74754">
        <ele>623.2</ele>
        <time>2021-09-08T07:50:46Z</time>
      </trkpt>
      <trkpt lat="44.32346" lon="5.74751">
        <ele>623.3</ele>
        <time>2021-09-08T07:50:48Z</time>
      </trkpt>
      <trkpt lat="44.32346" lon="5.74748">
        <ele>623.3</ele>
        <time>2021-09-08T07:50:49Z</time>
      </trkpt>
      <trkpt lat="44.32344" lon="5.74741">
        <ele>623.4</ele>
        <time>2021-09-08T07:50:51Z</time>
      </trkpt>
      <trkpt lat="44.32341" lon="5.74735">
        <ele>623.5</ele>
        <time>2021-09-08T07:50:53Z</time>
      </trkpt>
      <trkpt lat="44.3234" lon="5.7473">
        <ele>623.6</ele>
        <time>2021-09-08T07:50:54Z</time>
      </trkpt>
      <trkpt lat="44.32339" lon="5.74728">
        <ele>623.6</ele>
        <time>2021-09-08T07:50:55Z</time>
      </trkpt>
      <trkpt lat="44.32336" lon="5.74725">
        <ele>623.7</ele>
        <time>2021-09-08T07:50:56Z</time>
      </trkpt>
      <trkpt lat="44.32333" lon="5.74722">
        <ele>623.8</ele>
        <time>2021-09-08T07:50:58Z</time>
      </trkpt>
      <trkpt lat="44.3233" lon="5.7472">
        <ele>623.8</ele>
        <time>2021-09-08T07:50:59Z</time>
      </trkpt>
      <trkpt lat="44.32324" lon="5.74719">
        <ele>623.9</ele>
        <time>2021-09-08T07:51:00Z</time>
      </trkpt>
      <trkpt lat="44.32319" lon="5.74717">
        <ele>624.1</ele>
        <time>2021-09-08T07:51:02Z</time>
      </trkpt>
      <trkpt lat="44.32313" lon="5.74715">
        <ele>624.2</ele>
        <time>2021-09-08T07:51:03Z</time>
      </trkpt>
      <trkpt lat="44.32307" lon="5.7471">
        <ele>624.3</ele>
        <time>2021-09-08T07:51:05Z</time>
      </trkpt>
      <trkpt lat="44.32304" lon="5.74705">
        <ele>624.4</ele>
        <time>2021-09-08T07:51:06Z</time>
      </trkpt>
      <trkpt lat="44.32301" lon="5.74699">
        <ele>624.5</ele>
        <time>2021-09-08T07:51:07Z</time>
      </trkpt>
      <trkpt lat="44.32299" lon="5.74691">
        <ele>624.6</ele>
        <time>2021-09-08T07:51:09Z</time>
      </trkpt>
      <trkpt lat="44.32297" lon="5.74679">
        <ele>624.8</ele>
        <time>2021-09-08T07:51:11Z</time>
      </trkpt>
      <trkpt lat="44.32295" lon="5.74671">
        <ele>624.9</ele>
        <time>2021-09-08T07:51:12Z</time>
      </trkpt>
      <trkpt lat="44.32292" lon="5.74659">
        <ele>625.1</ele>
        <time>2021-09-08T07:51:14Z</time>
      </trkpt>
      <trkpt lat="44.32287" lon="5.74647">
        <ele>625.2</ele>
        <time>2021-09-08T07:51:15Z</time>
      </trkpt>
      <trkpt lat="44.32284" lon="5.74639">
        <ele>625.3</ele>
        <time>2021-09-08T07:51:17Z</time>
      </trkpt>
      <trkpt lat="44.32279" lon="5.74633">
        <ele>625.4</ele>
        <time>2021-09-08T07:51:18Z</time>
      </trkpt>
      <trkpt lat="44.32274" lon="5.74625">
        <ele>625.5</ele>
        <time>2021-09-08T07:51:20Z</time>
      </trkpt>
      <trkpt lat="44.32271" lon="5.74618">
        <ele>625.6</ele>
        <time>2021-09-08T07:51:21Z</time>
      </trkpt>
      <trkpt lat="44.32266" lon="5.74611">
        <ele>625.7</ele>
        <time>2021-09-08T07:51:23Z</time>
      </trkpt>
      <trkpt lat="44.3226" lon="5.74606">
        <ele>625.9</ele>
        <time>2021-09-08T07:51:24Z</time>
      </trkpt>
      <trkpt lat="44.32249" lon="5.74603">
        <ele>626.1</ele>
        <time>2021-09-08T07:51:26Z</time>
      </trkpt>
      <trkpt lat="44.32244" lon="5.74604">
        <ele>626.2</ele>
        <time>2021-09-08T07:51:27Z</time>
      </trkpt>
      <trkpt lat="44.32239" lon="5.74603">
        <ele>626.3</ele>
        <time>2021-09-08T07:51:28Z</time>
      </trkpt>
      <trkpt lat="44.32234" lon="5.74603">
        <ele>626.4</ele>
        <time>2021-09-08T07:51:30Z</time>
      </trkpt>
      <trkpt lat="44.3223" lon="5.74605">
        <ele>626.5</ele>
        <time>2021-09-08T07:51:31Z</time>
      </trkpt>
      <trkpt lat="44.32224" lon="5.74609">
        <ele>626.6</ele>
        <time>2021-09-08T07:51:33Z</time>
      </trkpt>
      <trkpt lat="44.32221" lon="5.74611">
        <ele>626.7</ele>
        <time>2021-09-08T07:51:34Z</time>
      </trkpt>
      <trkpt lat="44.32217" lon="5.74616">
        <ele>626.8</ele>
        <time>2021-09-08T07:51:35Z</time>
      </trkpt>
      <trkpt lat="44.32214" lon="5.74618">
        <ele>626.8</ele>
        <time>2021-09-08T07:51:36Z</time>
      </trkpt>
      <trkpt lat="44.32209" lon="5.7462">
        <ele>626.9</ele>
        <time>2021-09-08T07:51:38Z</time>
      </trkpt>
      <trkpt lat="44.32203" lon="5.74623">
        <ele>627.1</ele>
        <time>2021-09-08T07:51:40Z</time>
      </trkpt>
      <trkpt lat="44.32199" lon="5.74625">
        <ele>627.2</ele>
        <time>2021-09-08T07:51:42Z</time>
      </trkpt>
      <trkpt lat="44.32196" lon="5.74624">
        <ele>627.3</ele>
        <time>2021-09-08T07:51:43Z</time>
      </trkpt>
      <trkpt lat="44.32193" lon="5.7462">
        <ele>627.4</ele>
        <time>2021-09-08T07:51:45Z</time>
      </trkpt>
      <trkpt lat="44.32192" lon="5.74619">
        <ele>627.4</ele>
        <time>2021-09-08T07:51:46Z</time>
      </trkpt>
      <trkpt lat="44.3219" lon="5.74614">
        <ele>627.5</ele>
        <time>2021-09-08T07:51:48Z</time>
      </trkpt>
      <trkpt lat="44.3219" lon="5.74612">
        <ele>627.6</ele>
        <time>2021-09-08T07:51:49Z</time>
      </trkpt>
      <trkpt lat="44.32189" lon="5.7461">
        <ele>627.6</ele>
        <time>2021-09-08T07:51:50Z</time>
      </trkpt>
      <trkpt lat="44.32187" lon="5.74609">
        <ele>627.7</ele>
        <time>2021-09-08T07:51:51Z</time>
      </trkpt>
      <trkpt lat="44.32185" lon="5.74609">
        <ele>627.8</ele>
        <time>2021-09-08T07:51:53Z</time>
      </trkpt>
      <trkpt lat="44.32184" lon="5.74608">
        <ele>627.8</ele>
        <time>2021-09-08T07:51:54Z</time>
      </trkpt>
      <trkpt lat="44.32182" lon="5.74608">
        <ele>627.9</ele>
        <time>2021-09-08T07:51:55Z</time>
      </trkpt>
      <trkpt lat="44.32178" lon="5.74607">
        <ele>628.1</ele>
        <time>2021-09-08T07:51:57Z</time>
      </trkpt>
      <trkpt lat="44.32178" lon="5.74607">
        <ele>628.1</ele>
        <time>2021-09-08T07:51:58Z</time>
      </trkpt>
      <trkpt lat="44.32177" lon="5.74607">
        <ele>628.2</ele>
        <time>2021-09-08T07:51:59Z</time>
      </trkpt>
      <trkpt lat="44.32176" lon="5.74607">
        <ele>628.2</ele>
        <time>2021-09-08T07:52:00Z</time>
      </trkpt>
      <trkpt lat="44.32174" lon="5.74606">
        <ele>628.3</ele>
        <time>2021-09-08T07:52:02Z</time>
      </trkpt>
      <trkpt lat="44.32173" lon="5.74606">
        <ele>628.4</ele>
        <time>2021-09-08T07:52:03Z</time>
      </trkpt>
      <trkpt lat="44.3217" lon="5.74606">
        <ele>628.5</ele>
        <time>2021-09-08T07:52:05Z</time>
      </trkpt>
      <trkpt lat="44.32166" lon="5.74608">
        <ele>628.7</ele>
        <time>2021-09-08T07:52:07Z</time>
      </trkpt>
      <trkpt lat="44.32162" lon="5.74609">
        <ele>628.9</ele>
        <time>2021-09-08T07:52:09Z</time>
      </trkpt>
      <trkpt lat="44.32156" lon="5.74612">
        <ele>629.3</ele>
        <time>2021-09-08T07:52:11Z</time>
      </trkpt>
      <trkpt lat="44.32151" lon="5.74612">
        <ele>629.5</ele>
        <time>2021-09-08T07:52:12Z</time>
      </trkpt>
      <trkpt lat="44.32147" lon="5.74611">
        <ele>629.7</ele>
        <time>2021-09-08T07:52:14Z</time>
      </trkpt>
      <trkpt lat="44.32145" lon="5.74609">
        <ele>629.9</ele>
        <time>2021-09-08T07:52:15Z</time>
      </trkpt>
      <trkpt lat="44.32142" lon="5.74609">
        <ele>630</ele>
        <time>2021-09-08T07:52:17Z</time>
      </trkpt>
      <trkpt lat="44.32142" lon="5.74608">
        <ele>630</ele>
        <time>2021-09-08T07:52:18Z</time>
      </trkpt>
      <trkpt lat="44.32142" lon="5.74608">
        <ele>630.1</ele>
        <time>2021-09-08T07:52:19Z</time>
      </trkpt>
      <trkpt lat="44.32143" lon="5.74607">
        <ele>630.1</ele>
        <time>2021-09-08T07:52:21Z</time>
      </trkpt>
      <trkpt lat="44.32143" lon="5.74607">
        <ele>630.1</ele>
        <time>2021-09-08T07:52:23Z</time>
      </trkpt>
      <trkpt lat="44.32144" lon="5.74606">
        <ele>630.2</ele>
        <time>2021-09-08T07:52:24Z</time>
      </trkpt>
      <trkpt lat="44.32144" lon="5.74606">
        <ele>630.2</ele>
        <time>2021-09-08T07:52:26Z</time>
      </trkpt>
      <trkpt lat="44.32145" lon="5.74605">
        <ele>630.2</ele>
        <time>2021-09-08T07:52:27Z</time>
      </trkpt>
      <trkpt lat="44.32145" lon="5.74605">
        <ele>630.3</ele>
        <time>2021-09-08T07:52:28Z</time>
      </trkpt>
      <trkpt lat="44.3215" lon="5.74602">
        <ele>630.6</ele>
        <time>2021-09-08T07:52:29Z</time>
      </trkpt>
      <trkpt lat="44.32156" lon="5.74597">
        <ele>630.1</ele>
        <time>2021-09-08T07:52:31Z</time>
      </trkpt>
      <trkpt lat="44.32161" lon="5.74595">
        <ele>629.8</ele>
        <time>2021-09-08T07:52:32Z</time>
      </trkpt>
      <trkpt lat="44.32178" lon="5.74593">
        <ele>629</ele>
        <time>2021-09-08T07:52:34Z</time>
      </trkpt>
      <trkpt lat="44.32182" lon="5.74591">
        <ele>628.7</ele>
        <time>2021-09-08T07:52:35Z</time>
      </trkpt>
      <trkpt lat="44.32186" lon="5.74589">
        <ele>628.5</ele>
        <time>2021-09-08T07:52:36Z</time>
      </trkpt>
      <trkpt lat="44.32192" lon="5.74581">
        <ele>627.8</ele>
        <time>2021-09-08T07:52:38Z</time>
      </trkpt>
      <trkpt lat="44.32196" lon="5.74575">
        <ele>627.6</ele>
        <time>2021-09-08T07:52:40Z</time>
      </trkpt>
      <trkpt lat="44.32199" lon="5.74571">
        <ele>627.3</ele>
        <time>2021-09-08T07:52:41Z</time>
      </trkpt>
      <trkpt lat="44.32203" lon="5.74564">
        <ele>627</ele>
        <time>2021-09-08T07:52:43Z</time>
      </trkpt>
      <trkpt lat="44.32206" lon="5.74557">
        <ele>626.9</ele>
        <time>2021-09-08T07:52:44Z</time>
      </trkpt>
      <trkpt lat="44.3221" lon="5.74548">
        <ele>626.8</ele>
        <time>2021-09-08T07:52:45Z</time>
      </trkpt>
      <trkpt lat="44.32213" lon="5.7454">
        <ele>626.8</ele>
        <time>2021-09-08T07:52:47Z</time>
      </trkpt>
      <trkpt lat="44.32216" lon="5.74532">
        <ele>626.8</ele>
        <time>2021-09-08T07:52:48Z</time>
      </trkpt>
      <trkpt lat="44.32218" lon="5.74525">
        <ele>626.7</ele>
        <time>2021-09-08T07:52:49Z</time>
      </trkpt>
      <trkpt lat="44.32221" lon="5.74519">
        <ele>626.6</ele>
        <time>2021-09-08T07:52:50Z</time>
      </trkpt>
      <trkpt lat="44.32224" lon="5.74512">
        <ele>626.4</ele>
        <time>2021-09-08T07:52:51Z</time>
      </trkpt>
      <trkpt lat="44.32231" lon="5.745">
        <ele>626.1</ele>
        <time>2021-09-08T07:52:53Z</time>
      </trkpt>
      <trkpt lat="44.32234" lon="5.74494">
        <ele>626</ele>
        <time>2021-09-08T07:52:54Z</time>
      </trkpt>
      <trkpt lat="44.32237" lon="5.74485">
        <ele>625.9</ele>
        <time>2021-09-08T07:52:56Z</time>
      </trkpt>
      <trkpt lat="44.32241" lon="5.74476">
        <ele>625.7</ele>
        <time>2021-09-08T07:52:58Z</time>
      </trkpt>
      <trkpt lat="44.32243" lon="5.74469">
        <ele>625.7</ele>
        <time>2021-09-08T07:52:59Z</time>
      </trkpt>
      <trkpt lat="44.32245" lon="5.74464">
        <ele>625.6</ele>
        <time>2021-09-08T07:53:00Z</time>
      </trkpt>
      <trkpt lat="44.32246" lon="5.74458">
        <ele>625.6</ele>
        <time>2021-09-08T07:53:01Z</time>
      </trkpt>
      <trkpt lat="44.32246" lon="5.74453">
        <ele>625.7</ele>
        <time>2021-09-08T07:53:02Z</time>
      </trkpt>
      <trkpt lat="44.32248" lon="5.7444">
        <ele>625.5</ele>
        <time>2021-09-08T07:53:04Z</time>
      </trkpt>
      <trkpt lat="44.32249" lon="5.74432">
        <ele>625.5</ele>
        <time>2021-09-08T07:53:05Z</time>
      </trkpt>
      <trkpt lat="44.32248" lon="5.74418">
        <ele>625.5</ele>
        <time>2021-09-08T07:53:07Z</time>
      </trkpt>
      <trkpt lat="44.32248" lon="5.74401">
        <ele>625.6</ele>
        <time>2021-09-08T07:53:10Z</time>
      </trkpt>
      <trkpt lat="44.32247" lon="5.74397">
        <ele>625.6</ele>
        <time>2021-09-08T07:53:11Z</time>
      </trkpt>
      <trkpt lat="44.32247" lon="5.7439">
        <ele>625.6</ele>
        <time>2021-09-08T07:53:12Z</time>
      </trkpt>
      <trkpt lat="44.32245" lon="5.74379">
        <ele>625.9</ele>
        <time>2021-09-08T07:53:14Z</time>
      </trkpt>
      <trkpt lat="44.32243" lon="5.74368">
        <ele>626</ele>
        <time>2021-09-08T07:53:16Z</time>
      </trkpt>
      <trkpt lat="44.32243" lon="5.74362">
        <ele>625.9</ele>
        <time>2021-09-08T07:53:17Z</time>
      </trkpt>
      <trkpt lat="44.32243" lon="5.74358">
        <ele>625.8</ele>
        <time>2021-09-08T07:53:18Z</time>
      </trkpt>
      <trkpt lat="44.32242" lon="5.74347">
        <ele>625.5</ele>
        <time>2021-09-08T07:53:20Z</time>
      </trkpt>
      <trkpt lat="44.32238" lon="5.74334">
        <ele>625.5</ele>
        <time>2021-09-08T07:53:22Z</time>
      </trkpt>
      <trkpt lat="44.32237" lon="5.74326">
        <ele>625.6</ele>
        <time>2021-09-08T07:53:23Z</time>
      </trkpt>
      <trkpt lat="44.32235" lon="5.74318">
        <ele>625.3</ele>
        <time>2021-09-08T07:53:24Z</time>
      </trkpt>
      <trkpt lat="44.3223" lon="5.74303">
        <ele>625.5</ele>
        <time>2021-09-08T07:53:26Z</time>
      </trkpt>
      <trkpt lat="44.3223" lon="5.7429">
        <ele>625.1</ele>
        <time>2021-09-08T07:53:28Z</time>
      </trkpt>
      <trkpt lat="44.32228" lon="5.74284">
        <ele>625</ele>
        <time>2021-09-08T07:53:29Z</time>
      </trkpt>
      <trkpt lat="44.32227" lon="5.74278">
        <ele>624.9</ele>
        <time>2021-09-08T07:53:30Z</time>
      </trkpt>
      <trkpt lat="44.32221" lon="5.74266">
        <ele>625.1</ele>
        <time>2021-09-08T07:53:32Z</time>
      </trkpt>
      <trkpt lat="44.32211" lon="5.74255">
        <ele>625.9</ele>
        <time>2021-09-08T07:53:34Z</time>
      </trkpt>
      <trkpt lat="44.32206" lon="5.74251">
        <ele>626.6</ele>
        <time>2021-09-08T07:53:35Z</time>
      </trkpt>
      <trkpt lat="44.32196" lon="5.74242">
        <ele>627.5</ele>
        <time>2021-09-08T07:53:37Z</time>
      </trkpt>
      <trkpt lat="44.32193" lon="5.74238">
        <ele>627.7</ele>
        <time>2021-09-08T07:53:38Z</time>
      </trkpt>
      <trkpt lat="44.32188" lon="5.74231">
        <ele>628</ele>
        <time>2021-09-08T07:53:40Z</time>
      </trkpt>
      <trkpt lat="44.32187" lon="5.74227">
        <ele>627.8</ele>
        <time>2021-09-08T07:53:41Z</time>
      </trkpt>
      <trkpt lat="44.32186" lon="5.74222">
        <ele>627.5</ele>
        <time>2021-09-08T07:53:42Z</time>
      </trkpt>
      <trkpt lat="44.32185" lon="5.7422">
        <ele>627.3</ele>
        <time>2021-09-08T07:53:43Z</time>
      </trkpt>
      <trkpt lat="44.32186" lon="5.74217">
        <ele>627.2</ele>
        <time>2021-09-08T07:53:44Z</time>
      </trkpt>
      <trkpt lat="44.32186" lon="5.74217">
        <ele>627.2</ele>
        <time>2021-09-08T07:53:46Z</time>
      </trkpt>
      <trkpt lat="44.32186" lon="5.74215">
        <ele>626.9</ele>
        <time>2021-09-08T07:53:47Z</time>
      </trkpt>
      <trkpt lat="44.32187" lon="5.74209">
        <ele>626.7</ele>
        <time>2021-09-08T07:53:48Z</time>
      </trkpt>
      <trkpt lat="44.32187" lon="5.74207">
        <ele>626.4</ele>
        <time>2021-09-08T07:53:50Z</time>
      </trkpt>
      <trkpt lat="44.3219" lon="5.74204">
        <ele>626.1</ele>
        <time>2021-09-08T07:53:52Z</time>
      </trkpt>
      <trkpt lat="44.32193" lon="5.74201">
        <ele>625.8</ele>
        <time>2021-09-08T07:53:54Z</time>
      </trkpt>
      <trkpt lat="44.32193" lon="5.74084">
        <ele>624.3</ele>
        <time>2021-09-08T07:54:16Z</time>
      </trkpt>
      <trkpt lat="44.32191" lon="5.74073">
        <ele>624.4</ele>
        <time>2021-09-08T07:54:17Z</time>
      </trkpt>
      <trkpt lat="44.32189" lon="5.74064">
        <ele>624.5</ele>
        <time>2021-09-08T07:54:18Z</time>
      </trkpt>
      <trkpt lat="44.32184" lon="5.74053">
        <ele>624.7</ele>
        <time>2021-09-08T07:54:19Z</time>
      </trkpt>
      <trkpt lat="44.32181" lon="5.74046">
        <ele>624.8</ele>
        <time>2021-09-08T07:54:21Z</time>
      </trkpt>
      <trkpt lat="44.32178" lon="5.74038">
        <ele>624.9</ele>
        <time>2021-09-08T07:54:22Z</time>
      </trkpt>
      <trkpt lat="44.32176" lon="5.74032">
        <ele>624.9</ele>
        <time>2021-09-08T07:54:23Z</time>
      </trkpt>
      <trkpt lat="44.32172" lon="5.74025">
        <ele>625</ele>
        <time>2021-09-08T07:54:25Z</time>
      </trkpt>
      <trkpt lat="44.32168" lon="5.74022">
        <ele>625.1</ele>
        <time>2021-09-08T07:54:26Z</time>
      </trkpt>
      <trkpt lat="44.32165" lon="5.74018">
        <ele>625.2</ele>
        <time>2021-09-08T07:54:27Z</time>
      </trkpt>
      <trkpt lat="44.3216" lon="5.74012">
        <ele>625.3</ele>
        <time>2021-09-08T07:54:29Z</time>
      </trkpt>
      <trkpt lat="44.32156" lon="5.74008">
        <ele>625.3</ele>
        <time>2021-09-08T07:54:30Z</time>
      </trkpt>
      <trkpt lat="44.32153" lon="5.74004">
        <ele>625.3</ele>
        <time>2021-09-08T07:54:31Z</time>
      </trkpt>
      <trkpt lat="44.3215" lon="5.74">
        <ele>625.4</ele>
        <time>2021-09-08T07:54:32Z</time>
      </trkpt>
      <trkpt lat="44.32146" lon="5.73997">
        <ele>625.4</ele>
        <time>2021-09-08T07:54:34Z</time>
      </trkpt>
      <trkpt lat="44.32141" lon="5.73993">
        <ele>625.4</ele>
        <time>2021-09-08T07:54:35Z</time>
      </trkpt>
      <trkpt lat="44.32136" lon="5.73986">
        <ele>625.4</ele>
        <time>2021-09-08T07:54:36Z</time>
      </trkpt>
      <trkpt lat="44.32133" lon="5.7398">
        <ele>625.5</ele>
        <time>2021-09-08T07:54:38Z</time>
      </trkpt>
      <trkpt lat="44.32131" lon="5.73975">
        <ele>625.5</ele>
        <time>2021-09-08T07:54:39Z</time>
      </trkpt>
      <trkpt lat="44.32129" lon="5.73971">
        <ele>625.5</ele>
        <time>2021-09-08T07:54:40Z</time>
      </trkpt>
      <trkpt lat="44.32127" lon="5.73966">
        <ele>625.6</ele>
        <time>2021-09-08T07:54:41Z</time>
      </trkpt>
      <trkpt lat="44.32125" lon="5.73962">
        <ele>625.6</ele>
        <time>2021-09-08T07:54:42Z</time>
      </trkpt>
      <trkpt lat="44.32123" lon="5.73957">
        <ele>625.7</ele>
        <time>2021-09-08T07:54:43Z</time>
      </trkpt>
      <trkpt lat="44.32122" lon="5.73952">
        <ele>625.7</ele>
        <time>2021-09-08T07:54:44Z</time>
      </trkpt>
      <trkpt lat="44.32121" lon="5.73946">
        <ele>625.8</ele>
        <time>2021-09-08T07:54:45Z</time>
      </trkpt>
      <trkpt lat="44.3212" lon="5.73941">
        <ele>625.8</ele>
        <time>2021-09-08T07:54:46Z</time>
      </trkpt>
      <trkpt lat="44.32119" lon="5.73936">
        <ele>625.8</ele>
        <time>2021-09-08T07:54:47Z</time>
      </trkpt>
      <trkpt lat="44.32118" lon="5.73931">
        <ele>625.8</ele>
        <time>2021-09-08T07:54:48Z</time>
      </trkpt>
      <trkpt lat="44.32118" lon="5.73926">
        <ele>625.8</ele>
        <time>2021-09-08T07:54:49Z</time>
      </trkpt>
      <trkpt lat="44.32118" lon="5.7392">
        <ele>625.8</ele>
        <time>2021-09-08T07:54:50Z</time>
      </trkpt>
      <trkpt lat="44.32117" lon="5.73912">
        <ele>625.9</ele>
        <time>2021-09-08T07:54:52Z</time>
      </trkpt>
      <trkpt lat="44.32116" lon="5.73906">
        <ele>625.9</ele>
        <time>2021-09-08T07:54:53Z</time>
      </trkpt>
      <trkpt lat="44.32116" lon="5.73899">
        <ele>625.9</ele>
        <time>2021-09-08T07:54:54Z</time>
      </trkpt>
      <trkpt lat="44.32116" lon="5.73894">
        <ele>625.9</ele>
        <time>2021-09-08T07:54:55Z</time>
      </trkpt>
      <trkpt lat="44.32115" lon="5.73889">
        <ele>626</ele>
        <time>2021-09-08T07:54:56Z</time>
      </trkpt>
      <trkpt lat="44.32113" lon="5.73884">
        <ele>626</ele>
        <time>2021-09-08T07:54:57Z</time>
      </trkpt>
      <trkpt lat="44.32112" lon="5.73879">
        <ele>626</ele>
        <time>2021-09-08T07:54:58Z</time>
      </trkpt>
      <trkpt lat="44.3211" lon="5.73872">
        <ele>626.1</ele>
        <time>2021-09-08T07:55:00Z</time>
      </trkpt>
      <trkpt lat="44.32109" lon="5.73867">
        <ele>626.1</ele>
        <time>2021-09-08T07:55:01Z</time>
      </trkpt>
      <trkpt lat="44.32108" lon="5.73863">
        <ele>626.2</ele>
        <time>2021-09-08T07:55:02Z</time>
      </trkpt>
      <trkpt lat="44.32107" lon="5.73854">
        <ele>626.3</ele>
        <time>2021-09-08T07:55:04Z</time>
      </trkpt>
      <trkpt lat="44.32105" lon="5.73846">
        <ele>626.4</ele>
        <time>2021-09-08T07:55:06Z</time>
      </trkpt>
      <trkpt lat="44.32104" lon="5.73842">
        <ele>626.4</ele>
        <time>2021-09-08T07:55:07Z</time>
      </trkpt>
      <trkpt lat="44.32101" lon="5.73835">
        <ele>626.5</ele>
        <time>2021-09-08T07:55:09Z</time>
      </trkpt>
      <trkpt lat="44.32099" lon="5.73831">
        <ele>626.6</ele>
        <time>2021-09-08T07:55:10Z</time>
      </trkpt>
      <trkpt lat="44.32097" lon="5.73826">
        <ele>626.7</ele>
        <time>2021-09-08T07:55:11Z</time>
      </trkpt>
      <trkpt lat="44.32095" lon="5.73822">
        <ele>626.8</ele>
        <time>2021-09-08T07:55:12Z</time>
      </trkpt>
      <trkpt lat="44.32092" lon="5.73816">
        <ele>626.9</ele>
        <time>2021-09-08T07:55:14Z</time>
      </trkpt>
      <trkpt lat="44.32091" lon="5.73812">
        <ele>626.9</ele>
        <time>2021-09-08T07:55:15Z</time>
      </trkpt>
      <trkpt lat="44.32089" lon="5.73809">
        <ele>627</ele>
        <time>2021-09-08T07:55:16Z</time>
      </trkpt>
      <trkpt lat="44.32087" lon="5.73806">
        <ele>627</ele>
        <time>2021-09-08T07:55:17Z</time>
      </trkpt>
      <trkpt lat="44.32084" lon="5.73803">
        <ele>627.1</ele>
        <time>2021-09-08T07:55:18Z</time>
      </trkpt>
      <trkpt lat="44.32081" lon="5.73799">
        <ele>627.1</ele>
        <time>2021-09-08T07:55:19Z</time>
      </trkpt>
      <trkpt lat="44.32078" lon="5.73796">
        <ele>627.2</ele>
        <time>2021-09-08T07:55:21Z</time>
      </trkpt>
      <trkpt lat="44.32075" lon="5.73794">
        <ele>627.3</ele>
        <time>2021-09-08T07:55:22Z</time>
      </trkpt>
      <trkpt lat="44.32072" lon="5.73792">
        <ele>627.3</ele>
        <time>2021-09-08T07:55:23Z</time>
      </trkpt>
      <trkpt lat="44.32068" lon="5.7379">
        <ele>627.4</ele>
        <time>2021-09-08T07:55:24Z</time>
      </trkpt>
      <trkpt lat="44.32065" lon="5.73788">
        <ele>627.5</ele>
        <time>2021-09-08T07:55:25Z</time>
      </trkpt>
      <trkpt lat="44.32062" lon="5.73785">
        <ele>627.6</ele>
        <time>2021-09-08T07:55:26Z</time>
      </trkpt>
      <trkpt lat="44.32058" lon="5.73783">
        <ele>627.7</ele>
        <time>2021-09-08T07:55:27Z</time>
      </trkpt>
      <trkpt lat="44.32055" lon="5.73781">
        <ele>627.8</ele>
        <time>2021-09-08T07:55:28Z</time>
      </trkpt>
      <trkpt lat="44.32051" lon="5.73779">
        <ele>627.9</ele>
        <time>2021-09-08T07:55:29Z</time>
      </trkpt>
      <trkpt lat="44.32048" lon="5.73779">
        <ele>628</ele>
        <time>2021-09-08T07:55:30Z</time>
      </trkpt>
      <trkpt lat="44.32044" lon="5.73778">
        <ele>628.1</ele>
        <time>2021-09-08T07:55:32Z</time>
      </trkpt>
      <trkpt lat="44.32041" lon="5.73776">
        <ele>628.1</ele>
        <time>2021-09-08T07:55:33Z</time>
      </trkpt>
      <trkpt lat="44.32037" lon="5.73776">
        <ele>628.2</ele>
        <time>2021-09-08T07:55:34Z</time>
      </trkpt>
      <trkpt lat="44.32034" lon="5.73777">
        <ele>628.3</ele>
        <time>2021-09-08T07:55:35Z</time>
      </trkpt>
      <trkpt lat="44.32031" lon="5.73778">
        <ele>628.3</ele>
        <time>2021-09-08T07:55:36Z</time>
      </trkpt>
      <trkpt lat="44.32027" lon="5.7378">
        <ele>628.4</ele>
        <time>2021-09-08T07:55:37Z</time>
      </trkpt>
      <trkpt lat="44.32024" lon="5.73782">
        <ele>628.5</ele>
        <time>2021-09-08T07:55:38Z</time>
      </trkpt>
      <trkpt lat="44.3202" lon="5.73784">
        <ele>628.5</ele>
        <time>2021-09-08T07:55:39Z</time>
      </trkpt>
      <trkpt lat="44.32017" lon="5.73787">
        <ele>628.5</ele>
        <time>2021-09-08T07:55:40Z</time>
      </trkpt>
      <trkpt lat="44.32012" lon="5.73789">
        <ele>628.6</ele>
        <time>2021-09-08T07:55:42Z</time>
      </trkpt>
      <trkpt lat="44.32009" lon="5.73791">
        <ele>628.6</ele>
        <time>2021-09-08T07:55:43Z</time>
      </trkpt>
      <trkpt lat="44.32005" lon="5.73793">
        <ele>628.6</ele>
        <time>2021-09-08T07:55:44Z</time>
      </trkpt>
      <trkpt lat="44.32003" lon="5.73795">
        <ele>628.7</ele>
        <time>2021-09-08T07:55:45Z</time>
      </trkpt>
      <trkpt lat="44.31998" lon="5.73797">
        <ele>628.7</ele>
        <time>2021-09-08T07:55:46Z</time>
      </trkpt>
      <trkpt lat="44.31993" lon="5.738">
        <ele>628.8</ele>
        <time>2021-09-08T07:55:48Z</time>
      </trkpt>
      <trkpt lat="44.3199" lon="5.73801">
        <ele>628.8</ele>
        <time>2021-09-08T07:55:49Z</time>
      </trkpt>
      <trkpt lat="44.31985" lon="5.73803">
        <ele>628.9</ele>
        <time>2021-09-08T07:55:51Z</time>
      </trkpt>
      <trkpt lat="44.31982" lon="5.73802">
        <ele>629</ele>
        <time>2021-09-08T07:55:52Z</time>
      </trkpt>
      <trkpt lat="44.31979" lon="5.738">
        <ele>629</ele>
        <time>2021-09-08T07:55:54Z</time>
      </trkpt>
      <trkpt lat="44.31978" lon="5.73799">
        <ele>629.1</ele>
        <time>2021-09-08T07:55:55Z</time>
      </trkpt>
      <trkpt lat="44.31975" lon="5.73796">
        <ele>629.2</ele>
        <time>2021-09-08T07:55:56Z</time>
      </trkpt>
      <trkpt lat="44.31972" lon="5.73791">
        <ele>629.3</ele>
        <time>2021-09-08T07:55:57Z</time>
      </trkpt>
      <trkpt lat="44.31971" lon="5.73785">
        <ele>629.4</ele>
        <time>2021-09-08T07:55:58Z</time>
      </trkpt>
      <trkpt lat="44.3197" lon="5.73775">
        <ele>629.5</ele>
        <time>2021-09-08T07:56:00Z</time>
      </trkpt>
      <trkpt lat="44.3197" lon="5.73769">
        <ele>629.5</ele>
        <time>2021-09-08T07:56:01Z</time>
      </trkpt>
      <trkpt lat="44.3197" lon="5.73762">
        <ele>629.6</ele>
        <time>2021-09-08T07:56:02Z</time>
      </trkpt>
      <trkpt lat="44.31969" lon="5.73751">
        <ele>629.6</ele>
        <time>2021-09-08T07:56:04Z</time>
      </trkpt>
      <trkpt lat="44.31968" lon="5.73743">
        <ele>629.6</ele>
        <time>2021-09-08T07:56:05Z</time>
      </trkpt>
      <trkpt lat="44.31967" lon="5.73738">
        <ele>629.7</ele>
        <time>2021-09-08T07:56:06Z</time>
      </trkpt>
      <trkpt lat="44.31966" lon="5.7373">
        <ele>629.7</ele>
        <time>2021-09-08T07:56:07Z</time>
      </trkpt>
      <trkpt lat="44.31963" lon="5.73726">
        <ele>629.8</ele>
        <time>2021-09-08T07:56:08Z</time>
      </trkpt>
      <trkpt lat="44.31961" lon="5.73722">
        <ele>629.8</ele>
        <time>2021-09-08T07:56:09Z</time>
      </trkpt>
      <trkpt lat="44.31958" lon="5.73718">
        <ele>629.9</ele>
        <time>2021-09-08T07:56:11Z</time>
      </trkpt>
      <trkpt lat="44.31955" lon="5.73714">
        <ele>629.9</ele>
        <time>2021-09-08T07:56:12Z</time>
      </trkpt>
      <trkpt lat="44.31951" lon="5.73708">
        <ele>630</ele>
        <time>2021-09-08T07:56:13Z</time>
      </trkpt>
      <trkpt lat="44.31948" lon="5.73706">
        <ele>630.1</ele>
        <time>2021-09-08T07:56:14Z</time>
      </trkpt>
      <trkpt lat="44.31941" lon="5.73702">
        <ele>630.2</ele>
        <time>2021-09-08T07:56:16Z</time>
      </trkpt>
      <trkpt lat="44.31935" lon="5.73699">
        <ele>630.2</ele>
        <time>2021-09-08T07:56:17Z</time>
      </trkpt>
      <trkpt lat="44.3193" lon="5.73698">
        <ele>630.3</ele>
        <time>2021-09-08T07:56:18Z</time>
      </trkpt>
      <trkpt lat="44.31925" lon="5.73695">
        <ele>630.4</ele>
        <time>2021-09-08T07:56:20Z</time>
      </trkpt>
      <trkpt lat="44.31921" lon="5.73693">
        <ele>630.5</ele>
        <time>2021-09-08T07:56:21Z</time>
      </trkpt>
      <trkpt lat="44.31917" lon="5.73689">
        <ele>630.6</ele>
        <time>2021-09-08T07:56:22Z</time>
      </trkpt>
      <trkpt lat="44.31914" lon="5.73686">
        <ele>630.6</ele>
        <time>2021-09-08T07:56:23Z</time>
      </trkpt>
      <trkpt lat="44.3191" lon="5.73685">
        <ele>630.7</ele>
        <time>2021-09-08T07:56:24Z</time>
      </trkpt>
      <trkpt lat="44.31904" lon="5.73683">
        <ele>630.8</ele>
        <time>2021-09-08T07:56:26Z</time>
      </trkpt>
      <trkpt lat="44.31899" lon="5.73681">
        <ele>630.9</ele>
        <time>2021-09-08T07:56:27Z</time>
      </trkpt>
      <trkpt lat="44.31895" lon="5.7368">
        <ele>630.9</ele>
        <time>2021-09-08T07:56:28Z</time>
      </trkpt>
      <trkpt lat="44.31892" lon="5.73678">
        <ele>631</ele>
        <time>2021-09-08T07:56:29Z</time>
      </trkpt>
      <trkpt lat="44.3189" lon="5.73675">
        <ele>631</ele>
        <time>2021-09-08T07:56:30Z</time>
      </trkpt>
      <trkpt lat="44.31887" lon="5.73672">
        <ele>631</ele>
        <time>2021-09-08T07:56:31Z</time>
      </trkpt>
      <trkpt lat="44.31884" lon="5.73669">
        <ele>631.1</ele>
        <time>2021-09-08T07:56:32Z</time>
      </trkpt>
      <trkpt lat="44.3188" lon="5.73668">
        <ele>631.1</ele>
        <time>2021-09-08T07:56:34Z</time>
      </trkpt>
      <trkpt lat="44.31877" lon="5.73667">
        <ele>631.1</ele>
        <time>2021-09-08T07:56:35Z</time>
      </trkpt>
      <trkpt lat="44.31874" lon="5.73665">
        <ele>631.2</ele>
        <time>2021-09-08T07:56:36Z</time>
      </trkpt>
      <trkpt lat="44.31872" lon="5.73663">
        <ele>631.2</ele>
        <time>2021-09-08T07:56:37Z</time>
      </trkpt>
      <trkpt lat="44.31868" lon="5.73659">
        <ele>631.3</ele>
        <time>2021-09-08T07:56:39Z</time>
      </trkpt>
      <trkpt lat="44.31865" lon="5.73656">
        <ele>631.4</ele>
        <time>2021-09-08T07:56:40Z</time>
      </trkpt>
      <trkpt lat="44.3186" lon="5.73653">
        <ele>631.5</ele>
        <time>2021-09-08T07:56:42Z</time>
      </trkpt>
      <trkpt lat="44.31854" lon="5.7365">
        <ele>631.6</ele>
        <time>2021-09-08T07:56:44Z</time>
      </trkpt>
      <trkpt lat="44.31849" lon="5.73648">
        <ele>631.7</ele>
        <time>2021-09-08T07:56:45Z</time>
      </trkpt>
      <trkpt lat="44.31846" lon="5.73647">
        <ele>631.7</ele>
        <time>2021-09-08T07:56:46Z</time>
      </trkpt>
      <trkpt lat="44.31843" lon="5.73646">
        <ele>631.8</ele>
        <time>2021-09-08T07:56:48Z</time>
      </trkpt>
      <trkpt lat="44.31839" lon="5.73646">
        <ele>631.8</ele>
        <time>2021-09-08T07:56:49Z</time>
      </trkpt>
      <trkpt lat="44.31835" lon="5.73646">
        <ele>631.9</ele>
        <time>2021-09-08T07:56:50Z</time>
      </trkpt>
      <trkpt lat="44.3183" lon="5.73647">
        <ele>632</ele>
        <time>2021-09-08T07:56:51Z</time>
      </trkpt>
      <trkpt lat="44.31825" lon="5.73647">
        <ele>632.1</ele>
        <time>2021-09-08T07:56:52Z</time>
      </trkpt>
      <trkpt lat="44.31818" lon="5.73646">
        <ele>632.2</ele>
        <time>2021-09-08T07:56:54Z</time>
      </trkpt>
      <trkpt lat="44.31814" lon="5.73646">
        <ele>632.3</ele>
        <time>2021-09-08T07:56:55Z</time>
      </trkpt>
      <trkpt lat="44.31811" lon="5.73645">
        <ele>632.3</ele>
        <time>2021-09-08T07:56:56Z</time>
      </trkpt>
      <trkpt lat="44.31804" lon="5.73646">
        <ele>632.5</ele>
        <time>2021-09-08T07:56:58Z</time>
      </trkpt>
      <trkpt lat="44.318" lon="5.73649">
        <ele>632.6</ele>
        <time>2021-09-08T07:56:59Z</time>
      </trkpt>
      <trkpt lat="44.31793" lon="5.73652">
        <ele>632.9</ele>
        <time>2021-09-08T07:57:01Z</time>
      </trkpt>
      <trkpt lat="44.31789" lon="5.73655">
        <ele>633.2</ele>
        <time>2021-09-08T07:57:02Z</time>
      </trkpt>
      <trkpt lat="44.31784" lon="5.73658">
        <ele>633.5</ele>
        <time>2021-09-08T07:57:03Z</time>
      </trkpt>
      <trkpt lat="44.31779" lon="5.73661">
        <ele>634</ele>
        <time>2021-09-08T07:57:05Z</time>
      </trkpt>
      <trkpt lat="44.31776" lon="5.73663">
        <ele>634.3</ele>
        <time>2021-09-08T07:57:06Z</time>
      </trkpt>
      <trkpt lat="44.31775" lon="5.73664">
        <ele>634.4</ele>
        <time>2021-09-08T07:57:07Z</time>
      </trkpt>
      <trkpt lat="44.31774" lon="5.73665">
        <ele>634.4</ele>
        <time>2021-09-08T07:57:09Z</time>
      </trkpt>
      <trkpt lat="44.31773" lon="5.73664">
        <ele>634.3</ele>
        <time>2021-09-08T07:57:10Z</time>
      </trkpt>
      <trkpt lat="44.31773" lon="5.73661">
        <ele>634.2</ele>
        <time>2021-09-08T07:57:12Z</time>
      </trkpt>
      <trkpt lat="44.31772" lon="5.73656">
        <ele>634.1</ele>
        <time>2021-09-08T07:57:13Z</time>
      </trkpt>
      <trkpt lat="44.31772" lon="5.73651">
        <ele>633.9</ele>
        <time>2021-09-08T07:57:15Z</time>
      </trkpt>
      <trkpt lat="44.31772" lon="5.73645">
        <ele>633.8</ele>
        <time>2021-09-08T07:57:16Z</time>
      </trkpt>
      <trkpt lat="44.31772" lon="5.73642">
        <ele>633.6</ele>
        <time>2021-09-08T07:57:17Z</time>
      </trkpt>
      <trkpt lat="44.31771" lon="5.73635">
        <ele>633.4</ele>
        <time>2021-09-08T07:57:19Z</time>
      </trkpt>
      <trkpt lat="44.31769" lon="5.73631">
        <ele>633.2</ele>
        <time>2021-09-08T07:57:20Z</time>
      </trkpt>
      <trkpt lat="44.31768" lon="5.73627">
        <ele>633.1</ele>
        <time>2021-09-08T07:57:21Z</time>
      </trkpt>
      <trkpt lat="44.31766" lon="5.73621">
        <ele>632.9</ele>
        <time>2021-09-08T07:57:23Z</time>
      </trkpt>
      <trkpt lat="44.31764" lon="5.73615">
        <ele>632.7</ele>
        <time>2021-09-08T07:57:25Z</time>
      </trkpt>
      <trkpt lat="44.31763" lon="5.73612">
        <ele>632.6</ele>
        <time>2021-09-08T07:57:26Z</time>
      </trkpt>
      <trkpt lat="44.31769" lon="5.73607">
        <ele>632.3</ele>
        <time>2021-09-08T07:57:28Z</time>
      </trkpt>
      <trkpt lat="44.31772" lon="5.73605">
        <ele>632.2</ele>
        <time>2021-09-08T07:57:30Z</time>
      </trkpt>
      <trkpt lat="44.31773" lon="5.73604">
        <ele>632.1</ele>
        <time>2021-09-08T07:57:31Z</time>
      </trkpt>
      <trkpt lat="44.31773" lon="5.73603">
        <ele>632.1</ele>
        <time>2021-09-08T07:57:32Z</time>
      </trkpt>
      <trkpt lat="44.31775" lon="5.73602">
        <ele>632</ele>
        <time>2021-09-08T07:57:34Z</time>
      </trkpt>
      <trkpt lat="44.31777" lon="5.736">
        <ele>631.9</ele>
        <time>2021-09-08T07:57:35Z</time>
      </trkpt>
      <trkpt lat="44.31781" lon="5.73607">
        <ele>632</ele>
        <time>2021-09-08T07:57:48Z</time>
      </trkpt>
      <trkpt lat="44.3178" lon="5.73617">
        <ele>632.4</ele>
        <time>2021-09-08T07:57:50Z</time>
      </trkpt>
      <trkpt lat="44.3178" lon="5.73624">
        <ele>632.6</ele>
        <time>2021-09-08T07:57:51Z</time>
      </trkpt>
      <trkpt lat="44.31783" lon="5.73636">
        <ele>633.2</ele>
        <time>2021-09-08T07:57:53Z</time>
      </trkpt>
      <trkpt lat="44.31785" lon="5.73642">
        <ele>633.5</ele>
        <time>2021-09-08T07:57:54Z</time>
      </trkpt>
      <trkpt lat="44.31789" lon="5.73654">
        <ele>634.1</ele>
        <time>2021-09-08T07:57:56Z</time>
      </trkpt>
      <trkpt lat="44.3179" lon="5.73659">
        <ele>634.3</ele>
        <time>2021-09-08T07:57:57Z</time>
      </trkpt>
      <trkpt lat="44.3179" lon="5.73664">
        <ele>634.5</ele>
        <time>2021-09-08T07:57:58Z</time>
      </trkpt>
      <trkpt lat="44.3179" lon="5.73667">
        <ele>634.6</ele>
        <time>2021-09-08T07:57:59Z</time>
      </trkpt>
      <trkpt lat="44.3179" lon="5.73673">
        <ele>634.8</ele>
        <time>2021-09-08T07:58:01Z</time>
      </trkpt>
      <trkpt lat="44.3179" lon="5.73679">
        <ele>635</ele>
        <time>2021-09-08T07:58:03Z</time>
      </trkpt>
      <trkpt lat="44.31791" lon="5.73684">
        <ele>635.3</ele>
        <time>2021-09-08T07:58:04Z</time>
      </trkpt>
      <trkpt lat="44.31791" lon="5.73687">
        <ele>635.4</ele>
        <time>2021-09-08T07:58:05Z</time>
      </trkpt>
      <trkpt lat="44.3179" lon="5.73691">
        <ele>635.6</ele>
        <time>2021-09-08T07:58:07Z</time>
      </trkpt>
      <trkpt lat="44.31789" lon="5.73695">
        <ele>635.8</ele>
        <time>2021-09-08T07:58:08Z</time>
      </trkpt>
      <trkpt lat="44.31787" lon="5.737">
        <ele>636</ele>
        <time>2021-09-08T07:58:10Z</time>
      </trkpt>
      <trkpt lat="44.31785" lon="5.73704">
        <ele>636.2</ele>
        <time>2021-09-08T07:58:11Z</time>
      </trkpt>
      <trkpt lat="44.31781" lon="5.73709">
        <ele>636.5</ele>
        <time>2021-09-08T07:58:13Z</time>
      </trkpt>
      <trkpt lat="44.31779" lon="5.73714">
        <ele>636.7</ele>
        <time>2021-09-08T07:58:14Z</time>
      </trkpt>
      <trkpt lat="44.31775" lon="5.73719">
        <ele>637</ele>
        <time>2021-09-08T07:58:16Z</time>
      </trkpt>
      <trkpt lat="44.31771" lon="5.73724">
        <ele>638.6</ele>
        <time>2021-09-08T07:58:17Z</time>
      </trkpt>
      <trkpt lat="44.31768" lon="5.73727">
        <ele>638.7</ele>
        <time>2021-09-08T07:58:18Z</time>
      </trkpt>
      <trkpt lat="44.31763" lon="5.73729">
        <ele>638.9</ele>
        <time>2021-09-08T07:58:20Z</time>
      </trkpt>
      <trkpt lat="44.3176" lon="5.7373">
        <ele>639</ele>
        <time>2021-09-08T07:58:21Z</time>
      </trkpt>
      <trkpt lat="44.31757" lon="5.7373">
        <ele>639.2</ele>
        <time>2021-09-08T07:58:23Z</time>
      </trkpt>
      <trkpt lat="44.31753" lon="5.73729">
        <ele>639.4</ele>
        <time>2021-09-08T07:58:25Z</time>
      </trkpt>
      <trkpt lat="44.31751" lon="5.73728">
        <ele>639.5</ele>
        <time>2021-09-08T07:58:26Z</time>
      </trkpt>
      <trkpt lat="44.3175" lon="5.73727">
        <ele>639.5</ele>
        <time>2021-09-08T07:58:28Z</time>
      </trkpt>
      <trkpt lat="44.31748" lon="5.73724">
        <ele>639.7</ele>
        <time>2021-09-08T07:58:30Z</time>
      </trkpt>
      <trkpt lat="44.31746" lon="5.73722">
        <ele>639.8</ele>
        <time>2021-09-08T07:58:31Z</time>
      </trkpt>
      <trkpt lat="44.31741" lon="5.7372">
        <ele>640.1</ele>
        <time>2021-09-08T07:58:33Z</time>
      </trkpt>
      <trkpt lat="44.31736" lon="5.73719">
        <ele>640.3</ele>
        <time>2021-09-08T07:58:35Z</time>
      </trkpt>
      <trkpt lat="44.31733" lon="5.73718">
        <ele>640.5</ele>
        <time>2021-09-08T07:58:36Z</time>
      </trkpt>
      <trkpt lat="44.31732" lon="5.73717">
        <ele>640.6</ele>
        <time>2021-09-08T07:58:37Z</time>
      </trkpt>
      <trkpt lat="44.31728" lon="5.73716">
        <ele>640.8</ele>
        <time>2021-09-08T07:58:39Z</time>
      </trkpt>
      <trkpt lat="44.31724" lon="5.73713">
        <ele>641</ele>
        <time>2021-09-08T07:58:41Z</time>
      </trkpt>
      <trkpt lat="44.3172" lon="5.73713">
        <ele>641.2</ele>
        <time>2021-09-08T07:58:42Z</time>
      </trkpt>
      <trkpt lat="44.31717" lon="5.73711">
        <ele>641.4</ele>
        <time>2021-09-08T07:58:44Z</time>
      </trkpt>
      <trkpt lat="44.31714" lon="5.73709">
        <ele>641.6</ele>
        <time>2021-09-08T07:58:46Z</time>
      </trkpt>
      <trkpt lat="44.3171" lon="5.73707">
        <ele>641.8</ele>
        <time>2021-09-08T07:58:47Z</time>
      </trkpt>
      <trkpt lat="44.31709" lon="5.73707">
        <ele>641.8</ele>
        <time>2021-09-08T07:58:48Z</time>
      </trkpt>
      <trkpt lat="44.31706" lon="5.73704">
        <ele>642</ele>
        <time>2021-09-08T07:58:50Z</time>
      </trkpt>
      <trkpt lat="44.31703" lon="5.73703">
        <ele>642.1</ele>
        <time>2021-09-08T07:58:51Z</time>
      </trkpt>
      <trkpt lat="44.31699" lon="5.73701">
        <ele>642.3</ele>
        <time>2021-09-08T07:58:53Z</time>
      </trkpt>
      <trkpt lat="44.31695" lon="5.737">
        <ele>642.4</ele>
        <time>2021-09-08T07:58:55Z</time>
      </trkpt>
      <trkpt lat="44.31691" lon="5.73698">
        <ele>642.5</ele>
        <time>2021-09-08T07:58:57Z</time>
      </trkpt>
      <trkpt lat="44.31687" lon="5.73696">
        <ele>642.6</ele>
        <time>2021-09-08T07:58:59Z</time>
      </trkpt>
      <trkpt lat="44.31684" lon="5.73695">
        <ele>642.6</ele>
        <time>2021-09-08T07:59:00Z</time>
      </trkpt>
      <trkpt lat="44.3168" lon="5.73693">
        <ele>642.6</ele>
        <time>2021-09-08T07:59:01Z</time>
      </trkpt>
      <trkpt lat="44.31677" lon="5.7369">
        <ele>642.7</ele>
        <time>2021-09-08T07:59:02Z</time>
      </trkpt>
      <trkpt lat="44.31671" lon="5.73685">
        <ele>642.7</ele>
        <time>2021-09-08T07:59:04Z</time>
      </trkpt>
      <trkpt lat="44.31665" lon="5.73678">
        <ele>642.8</ele>
        <time>2021-09-08T07:59:06Z</time>
      </trkpt>
      <trkpt lat="44.31662" lon="5.73673">
        <ele>642.9</ele>
        <time>2021-09-08T07:59:07Z</time>
      </trkpt>
      <trkpt lat="44.31659" lon="5.7367">
        <ele>643</ele>
        <time>2021-09-08T07:59:08Z</time>
      </trkpt>
      <trkpt lat="44.31655" lon="5.73667">
        <ele>643.1</ele>
        <time>2021-09-08T07:59:09Z</time>
      </trkpt>
      <trkpt lat="44.31651" lon="5.73661">
        <ele>643.3</ele>
        <time>2021-09-08T07:59:11Z</time>
      </trkpt>
      <trkpt lat="44.3165" lon="5.7366">
        <ele>643.3</ele>
        <time>2021-09-08T07:59:12Z</time>
      </trkpt>
      <trkpt lat="44.3165" lon="5.73658">
        <ele>643.4</ele>
        <time>2021-09-08T07:59:14Z</time>
      </trkpt>
      <trkpt lat="44.31654" lon="5.73658">
        <ele>643.6</ele>
        <time>2021-09-08T07:59:16Z</time>
      </trkpt>
      <trkpt lat="44.31655" lon="5.73657">
        <ele>643.6</ele>
        <time>2021-09-08T07:59:17Z</time>
      </trkpt>
      <trkpt lat="44.31655" lon="5.73657">
        <ele>643.6</ele>
        <time>2021-09-08T07:59:19Z</time>
      </trkpt>
      <trkpt lat="44.31657" lon="5.73655">
        <ele>643.7</ele>
        <time>2021-09-08T07:59:21Z</time>
      </trkpt>
      <trkpt lat="44.31658" lon="5.73654">
        <ele>643.8</ele>
        <time>2021-09-08T07:59:22Z</time>
      </trkpt>
      <trkpt lat="44.31659" lon="5.73645">
        <ele>644.1</ele>
        <time>2021-09-08T07:59:30Z</time>
      </trkpt>
      <trkpt lat="44.31658" lon="5.73641">
        <ele>644.2</ele>
        <time>2021-09-08T07:59:32Z</time>
      </trkpt>
      <trkpt lat="44.31654" lon="5.73636">
        <ele>644.4</ele>
        <time>2021-09-08T07:59:34Z</time>
      </trkpt>
      <trkpt lat="44.31649" lon="5.7363">
        <ele>644.6</ele>
        <time>2021-09-08T07:59:35Z</time>
      </trkpt>
      <trkpt lat="44.31644" lon="5.73622">
        <ele>644.9</ele>
        <time>2021-09-08T07:59:37Z</time>
      </trkpt>
      <trkpt lat="44.31638" lon="5.73615">
        <ele>645.1</ele>
        <time>2021-09-08T07:59:39Z</time>
      </trkpt>
      <trkpt lat="44.31635" lon="5.73609">
        <ele>645.2</ele>
        <time>2021-09-08T07:59:40Z</time>
      </trkpt>
      <trkpt lat="44.31634" lon="5.73605">
        <ele>645.3</ele>
        <time>2021-09-08T07:59:41Z</time>
      </trkpt>
      <trkpt lat="44.31633" lon="5.73599">
        <ele>645.4</ele>
        <time>2021-09-08T07:59:43Z</time>
      </trkpt>
      <trkpt lat="44.31632" lon="5.73595">
        <ele>645.5</ele>
        <time>2021-09-08T07:59:45Z</time>
      </trkpt>
      <trkpt lat="44.31631" lon="5.73591">
        <ele>645.7</ele>
        <time>2021-09-08T07:59:46Z</time>
      </trkpt>
      <trkpt lat="44.3163" lon="5.7359">
        <ele>645.8</ele>
        <time>2021-09-08T07:59:47Z</time>
      </trkpt>
      <trkpt lat="44.31627" lon="5.73587">
        <ele>646</ele>
        <time>2021-09-08T07:59:48Z</time>
      </trkpt>
      <trkpt lat="44.31626" lon="5.73586">
        <ele>646.1</ele>
        <time>2021-09-08T07:59:49Z</time>
      </trkpt>
      <trkpt lat="44.31624" lon="5.73584">
        <ele>646.3</ele>
        <time>2021-09-08T07:59:50Z</time>
      </trkpt>
      <trkpt lat="44.31621" lon="5.73578">
        <ele>646.7</ele>
        <time>2021-09-08T07:59:52Z</time>
      </trkpt>
      <trkpt lat="44.31617" lon="5.73572">
        <ele>647.2</ele>
        <time>2021-09-08T07:59:54Z</time>
      </trkpt>
      <trkpt lat="44.31616" lon="5.73568">
        <ele>647.6</ele>
        <time>2021-09-08T07:59:56Z</time>
      </trkpt>
      <trkpt lat="44.31616" lon="5.73564">
        <ele>647.9</ele>
        <time>2021-09-08T07:59:58Z</time>
      </trkpt>
      <trkpt lat="44.31613" lon="5.73561">
        <ele>647.9</ele>
        <time>2021-09-08T08:00:00Z</time>
      </trkpt>
      <trkpt lat="44.3161" lon="5.73558">
        <ele>648.4</ele>
        <time>2021-09-08T08:00:01Z</time>
      </trkpt>
      <trkpt lat="44.31608" lon="5.73554">
        <ele>648.7</ele>
        <time>2021-09-08T08:00:02Z</time>
      </trkpt>
      <trkpt lat="44.31607" lon="5.73551">
        <ele>648.8</ele>
        <time>2021-09-08T08:00:03Z</time>
      </trkpt>
      <trkpt lat="44.31607" lon="5.73546">
        <ele>649.1</ele>
        <time>2021-09-08T08:00:05Z</time>
      </trkpt>
      <trkpt lat="44.31606" lon="5.73541">
        <ele>649.3</ele>
        <time>2021-09-08T08:00:06Z</time>
      </trkpt>
      <trkpt lat="44.31606" lon="5.73538">
        <ele>649.5</ele>
        <time>2021-09-08T08:00:07Z</time>
      </trkpt>
      <trkpt lat="44.31605" lon="5.73533">
        <ele>649.7</ele>
        <time>2021-09-08T08:00:09Z</time>
      </trkpt>
      <trkpt lat="44.31604" lon="5.73529">
        <ele>649.9</ele>
        <time>2021-09-08T08:00:10Z</time>
      </trkpt>
      <trkpt lat="44.31603" lon="5.73525">
        <ele>650.1</ele>
        <time>2021-09-08T08:00:11Z</time>
      </trkpt>
      <trkpt lat="44.31601" lon="5.7352">
        <ele>650.3</ele>
        <time>2021-09-08T08:00:13Z</time>
      </trkpt>
      <trkpt lat="44.316" lon="5.73517">
        <ele>650.5</ele>
        <time>2021-09-08T08:00:14Z</time>
      </trkpt>
      <trkpt lat="44.31598" lon="5.73512">
        <ele>650.8</ele>
        <time>2021-09-08T08:00:15Z</time>
      </trkpt>
      <trkpt lat="44.31597" lon="5.73509">
        <ele>650.9</ele>
        <time>2021-09-08T08:00:16Z</time>
      </trkpt>
      <trkpt lat="44.31595" lon="5.73503">
        <ele>651.2</ele>
        <time>2021-09-08T08:00:18Z</time>
      </trkpt>
      <trkpt lat="44.31592" lon="5.73497">
        <ele>651.5</ele>
        <time>2021-09-08T08:00:20Z</time>
      </trkpt>
      <trkpt lat="44.31591" lon="5.73492">
        <ele>651.7</ele>
        <time>2021-09-08T08:00:21Z</time>
      </trkpt>
      <trkpt lat="44.31589" lon="5.73488">
        <ele>651.9</ele>
        <time>2021-09-08T08:00:23Z</time>
      </trkpt>
      <trkpt lat="44.31588" lon="5.73485">
        <ele>652</ele>
        <time>2021-09-08T08:00:24Z</time>
      </trkpt>
      <trkpt lat="44.31586" lon="5.73481">
        <ele>652.2</ele>
        <time>2021-09-08T08:00:26Z</time>
      </trkpt>
      <trkpt lat="44.31585" lon="5.73477">
        <ele>652.3</ele>
        <time>2021-09-08T08:00:28Z</time>
      </trkpt>
      <trkpt lat="44.31584" lon="5.73473">
        <ele>652.4</ele>
        <time>2021-09-08T08:00:29Z</time>
      </trkpt>
      <trkpt lat="44.31583" lon="5.73468">
        <ele>652.6</ele>
        <time>2021-09-08T08:00:30Z</time>
      </trkpt>
      <trkpt lat="44.31583" lon="5.73466">
        <ele>652.6</ele>
        <time>2021-09-08T08:00:31Z</time>
      </trkpt>
      <trkpt lat="44.31582" lon="5.73463">
        <ele>652.7</ele>
        <time>2021-09-08T08:00:32Z</time>
      </trkpt>
      <trkpt lat="44.3158" lon="5.73456">
        <ele>653</ele>
        <time>2021-09-08T08:00:34Z</time>
      </trkpt>
      <trkpt lat="44.31579" lon="5.7345">
        <ele>653.2</ele>
        <time>2021-09-08T08:00:36Z</time>
      </trkpt>
      <trkpt lat="44.31578" lon="5.73446">
        <ele>653.3</ele>
        <time>2021-09-08T08:00:37Z</time>
      </trkpt>
      <trkpt lat="44.31577" lon="5.73442">
        <ele>653.4</ele>
        <time>2021-09-08T08:00:38Z</time>
      </trkpt>
      <trkpt lat="44.31576" lon="5.73438">
        <ele>653.5</ele>
        <time>2021-09-08T08:00:39Z</time>
      </trkpt>
      <trkpt lat="44.31575" lon="5.73432">
        <ele>653.7</ele>
        <time>2021-09-08T08:00:41Z</time>
      </trkpt>
      <trkpt lat="44.31575" lon="5.73429">
        <ele>653.8</ele>
        <time>2021-09-08T08:00:42Z</time>
      </trkpt>
      <trkpt lat="44.31574" lon="5.73423">
        <ele>654</ele>
        <time>2021-09-08T08:00:44Z</time>
      </trkpt>
      <trkpt lat="44.31574" lon="5.73416">
        <ele>654.2</ele>
        <time>2021-09-08T08:00:46Z</time>
      </trkpt>
      <trkpt lat="44.31573" lon="5.73411">
        <ele>654.3</ele>
        <time>2021-09-08T08:00:48Z</time>
      </trkpt>
      <trkpt lat="44.31573" lon="5.73406">
        <ele>654.5</ele>
        <time>2021-09-08T08:00:49Z</time>
      </trkpt>
      <trkpt lat="44.31572" lon="5.73405">
        <ele>654.5</ele>
        <time>2021-09-08T08:00:50Z</time>
      </trkpt>
      <trkpt lat="44.31573" lon="5.734">
        <ele>654.7</ele>
        <time>2021-09-08T08:00:52Z</time>
      </trkpt>
      <trkpt lat="44.31573" lon="5.73399">
        <ele>654.7</ele>
        <time>2021-09-08T08:00:53Z</time>
      </trkpt>
      <trkpt lat="44.31572" lon="5.73395">
        <ele>654.8</ele>
        <time>2021-09-08T08:00:55Z</time>
      </trkpt>
      <trkpt lat="44.31572" lon="5.73393">
        <ele>654.9</ele>
        <time>2021-09-08T08:00:56Z</time>
      </trkpt>
      <trkpt lat="44.31572" lon="5.73391">
        <ele>655</ele>
        <time>2021-09-08T08:00:57Z</time>
      </trkpt>
      <trkpt lat="44.31571" lon="5.73388">
        <ele>655</ele>
        <time>2021-09-08T08:00:59Z</time>
      </trkpt>
      <trkpt lat="44.31569" lon="5.73386">
        <ele>655.1</ele>
        <time>2021-09-08T08:01:00Z</time>
      </trkpt>
      <trkpt lat="44.31567" lon="5.73382">
        <ele>655.3</ele>
        <time>2021-09-08T08:01:02Z</time>
      </trkpt>
      <trkpt lat="44.31564" lon="5.73378">
        <ele>655.5</ele>
        <time>2021-09-08T08:01:04Z</time>
      </trkpt>
      <trkpt lat="44.31562" lon="5.73375">
        <ele>655.6</ele>
        <time>2021-09-08T08:01:05Z</time>
      </trkpt>
      <trkpt lat="44.3156" lon="5.73373">
        <ele>655.7</ele>
        <time>2021-09-08T08:01:06Z</time>
      </trkpt>
      <trkpt lat="44.31558" lon="5.73368">
        <ele>655.9</ele>
        <time>2021-09-08T08:01:08Z</time>
      </trkpt>
      <trkpt lat="44.31558" lon="5.73364">
        <ele>656</ele>
        <time>2021-09-08T08:01:09Z</time>
      </trkpt>
      <trkpt lat="44.31555" lon="5.73358">
        <ele>656.1</ele>
        <time>2021-09-08T08:01:11Z</time>
      </trkpt>
      <trkpt lat="44.31554" lon="5.73354">
        <ele>656.2</ele>
        <time>2021-09-08T08:01:12Z</time>
      </trkpt>
      <trkpt lat="44.31552" lon="5.73349">
        <ele>656.4</ele>
        <time>2021-09-08T08:01:14Z</time>
      </trkpt>
      <trkpt lat="44.3155" lon="5.73344">
        <ele>656.5</ele>
        <time>2021-09-08T08:01:15Z</time>
      </trkpt>
      <trkpt lat="44.31549" lon="5.73343">
        <ele>656.5</ele>
        <time>2021-09-08T08:01:16Z</time>
      </trkpt>
      <trkpt lat="44.31547" lon="5.73339">
        <ele>656.6</ele>
        <time>2021-09-08T08:01:17Z</time>
      </trkpt>
      <trkpt lat="44.31546" lon="5.73338">
        <ele>656.7</ele>
        <time>2021-09-08T08:01:18Z</time>
      </trkpt>
      <trkpt lat="44.31545" lon="5.73333">
        <ele>656.8</ele>
        <time>2021-09-08T08:01:20Z</time>
      </trkpt>
      <trkpt lat="44.31544" lon="5.7333">
        <ele>656.9</ele>
        <time>2021-09-08T08:01:21Z</time>
      </trkpt>
      <trkpt lat="44.31543" lon="5.73325">
        <ele>657</ele>
        <time>2021-09-08T08:01:23Z</time>
      </trkpt>
      <trkpt lat="44.31542" lon="5.73322">
        <ele>657.1</ele>
        <time>2021-09-08T08:01:24Z</time>
      </trkpt>
      <trkpt lat="44.31539" lon="5.73319">
        <ele>657.2</ele>
        <time>2021-09-08T08:01:26Z</time>
      </trkpt>
      <trkpt lat="44.31537" lon="5.73316">
        <ele>657.2</ele>
        <time>2021-09-08T08:01:27Z</time>
      </trkpt>
      <trkpt lat="44.31534" lon="5.73312">
        <ele>657.4</ele>
        <time>2021-09-08T08:01:29Z</time>
      </trkpt>
      <trkpt lat="44.31531" lon="5.73308">
        <ele>657.5</ele>
        <time>2021-09-08T08:01:30Z</time>
      </trkpt>
      <trkpt lat="44.31529" lon="5.73304">
        <ele>657.6</ele>
        <time>2021-09-08T08:01:31Z</time>
      </trkpt>
      <trkpt lat="44.31528" lon="5.73302">
        <ele>657.7</ele>
        <time>2021-09-08T08:01:32Z</time>
      </trkpt>
      <trkpt lat="44.31526" lon="5.73299">
        <ele>657.8</ele>
        <time>2021-09-08T08:01:33Z</time>
      </trkpt>
      <trkpt lat="44.31523" lon="5.73294">
        <ele>658</ele>
        <time>2021-09-08T08:01:35Z</time>
      </trkpt>
      <trkpt lat="44.31522" lon="5.73292">
        <ele>658.1</ele>
        <time>2021-09-08T08:01:36Z</time>
      </trkpt>
      <trkpt lat="44.3152" lon="5.73288">
        <ele>658.2</ele>
        <time>2021-09-08T08:01:38Z</time>
      </trkpt>
      <trkpt lat="44.31519" lon="5.73286">
        <ele>658.3</ele>
        <time>2021-09-08T08:01:39Z</time>
      </trkpt>
      <trkpt lat="44.3152" lon="5.73285">
        <ele>658.3</ele>
        <time>2021-09-08T08:01:40Z</time>
      </trkpt>
      <trkpt lat="44.3152" lon="5.73284">
        <ele>658.3</ele>
        <time>2021-09-08T08:01:42Z</time>
      </trkpt>
      <trkpt lat="44.3152" lon="5.73285">
        <ele>658.3</ele>
        <time>2021-09-08T08:01:44Z</time>
      </trkpt>
      <trkpt lat="44.3152" lon="5.73285">
        <ele>658.3</ele>
        <time>2021-09-08T08:01:46Z</time>
      </trkpt>
      <trkpt lat="44.3152" lon="5.73286">
        <ele>658.3</ele>
        <time>2021-09-08T08:01:48Z</time>
      </trkpt>
      <trkpt lat="44.3152" lon="5.73286">
        <ele>658.4</ele>
        <time>2021-09-08T08:01:50Z</time>
      </trkpt>
      <trkpt lat="44.31514" lon="5.73295">
        <ele>658.7</ele>
        <time>2021-09-08T08:01:57Z</time>
      </trkpt>
      <trkpt lat="44.31512" lon="5.73296">
        <ele>658.8</ele>
        <time>2021-09-08T08:01:58Z</time>
      </trkpt>
      <trkpt lat="44.31507" lon="5.73296">
        <ele>659</ele>
        <time>2021-09-08T08:02:00Z</time>
      </trkpt>
      <trkpt lat="44.3151" lon="5.73294">
        <ele>659.2</ele>
        <time>2021-09-08T08:02:02Z</time>
      </trkpt>
      <trkpt lat="44.31515" lon="5.73294">
        <ele>659.4</ele>
        <time>2021-09-08T08:02:04Z</time>
      </trkpt>
      <trkpt lat="44.31517" lon="5.73294">
        <ele>659.5</ele>
        <time>2021-09-08T08:02:05Z</time>
      </trkpt>
      <trkpt lat="44.31514" lon="5.73294">
        <ele>659.6</ele>
        <time>2021-09-08T08:02:07Z</time>
      </trkpt>
      <trkpt lat="44.31513" lon="5.73295">
        <ele>659.7</ele>
        <time>2021-09-08T08:02:09Z</time>
      </trkpt>
      <trkpt lat="44.31514" lon="5.73298">
        <ele>659.8</ele>
        <time>2021-09-08T08:02:10Z</time>
      </trkpt>
      <trkpt lat="44.31515" lon="5.733">
        <ele>659.9</ele>
        <time>2021-09-08T08:02:12Z</time>
      </trkpt>
      <trkpt lat="44.31516" lon="5.73301">
        <ele>659.9</ele>
        <time>2021-09-08T08:02:13Z</time>
      </trkpt>
      <trkpt lat="44.31517" lon="5.73301">
        <ele>660</ele>
        <time>2021-09-08T08:02:14Z</time>
      </trkpt>
      <trkpt lat="44.31518" lon="5.73302">
        <ele>660.1</ele>
        <time>2021-09-08T08:02:15Z</time>
      </trkpt>
      <trkpt lat="44.3152" lon="5.73303">
        <ele>660.2</ele>
        <time>2021-09-08T08:02:17Z</time>
      </trkpt>
      <trkpt lat="44.3152" lon="5.733">
        <ele>660.2</ele>
        <time>2021-09-08T08:02:18Z</time>
      </trkpt>
      <trkpt lat="44.3152" lon="5.73298">
        <ele>660.3</ele>
        <time>2021-09-08T08:02:19Z</time>
      </trkpt>
      <trkpt lat="44.31519" lon="5.73295">
        <ele>660.4</ele>
        <time>2021-09-08T08:02:20Z</time>
      </trkpt>
      <trkpt lat="44.31518" lon="5.73293">
        <ele>660.5</ele>
        <time>2021-09-08T08:02:21Z</time>
      </trkpt>
      <trkpt lat="44.31518" lon="5.7329">
        <ele>660.6</ele>
        <time>2021-09-08T08:02:23Z</time>
      </trkpt>
      <trkpt lat="44.31517" lon="5.73288">
        <ele>660.7</ele>
        <time>2021-09-08T08:02:24Z</time>
      </trkpt>
      <trkpt lat="44.31516" lon="5.73285">
        <ele>660.8</ele>
        <time>2021-09-08T08:02:25Z</time>
      </trkpt>
      <trkpt lat="44.31517" lon="5.73278">
        <ele>661.2</ele>
        <time>2021-09-08T08:02:26Z</time>
      </trkpt>
      <trkpt lat="44.31516" lon="5.73274">
        <ele>661.4</ele>
        <time>2021-09-08T08:02:27Z</time>
      </trkpt>
      <trkpt lat="44.31514" lon="5.73269">
        <ele>661.6</ele>
        <time>2021-09-08T08:02:28Z</time>
      </trkpt>
      <trkpt lat="44.31512" lon="5.73265">
        <ele>661.8</ele>
        <time>2021-09-08T08:02:29Z</time>
      </trkpt>
      <trkpt lat="44.31509" lon="5.7326">
        <ele>662.1</ele>
        <time>2021-09-08T08:02:30Z</time>
      </trkpt>
      <trkpt lat="44.31503" lon="5.73253">
        <ele>662.5</ele>
        <time>2021-09-08T08:02:32Z</time>
      </trkpt>
      <trkpt lat="44.31501" lon="5.73249">
        <ele>662.7</ele>
        <time>2021-09-08T08:02:33Z</time>
      </trkpt>
      <trkpt lat="44.31498" lon="5.73246">
        <ele>662.9</ele>
        <time>2021-09-08T08:02:35Z</time>
      </trkpt>
      <trkpt lat="44.31496" lon="5.73243">
        <ele>663.1</ele>
        <time>2021-09-08T08:02:36Z</time>
      </trkpt>
      <trkpt lat="44.31492" lon="5.7324">
        <ele>663.3</ele>
        <time>2021-09-08T08:02:38Z</time>
      </trkpt>
      <trkpt lat="44.31489" lon="5.73237">
        <ele>663.4</ele>
        <time>2021-09-08T08:02:39Z</time>
      </trkpt>
      <trkpt lat="44.31488" lon="5.73237">
        <ele>663.5</ele>
        <time>2021-09-08T08:02:40Z</time>
      </trkpt>
      <trkpt lat="44.31486" lon="5.73234">
        <ele>663.6</ele>
        <time>2021-09-08T08:02:41Z</time>
      </trkpt>
      <trkpt lat="44.31485" lon="5.73233">
        <ele>663.7</ele>
        <time>2021-09-08T08:02:42Z</time>
      </trkpt>
      <trkpt lat="44.31485" lon="5.73231">
        <ele>663.7</ele>
        <time>2021-09-08T08:02:43Z</time>
      </trkpt>
      <trkpt lat="44.31483" lon="5.73227">
        <ele>663.9</ele>
        <time>2021-09-08T08:02:45Z</time>
      </trkpt>
      <trkpt lat="44.31482" lon="5.73223">
        <ele>664.1</ele>
        <time>2021-09-08T08:02:46Z</time>
      </trkpt>
      <trkpt lat="44.31482" lon="5.73219">
        <ele>664.2</ele>
        <time>2021-09-08T08:02:47Z</time>
      </trkpt>
      <trkpt lat="44.31481" lon="5.73215">
        <ele>664.3</ele>
        <time>2021-09-08T08:02:49Z</time>
      </trkpt>
      <trkpt lat="44.31479" lon="5.73213">
        <ele>664.5</ele>
        <time>2021-09-08T08:02:50Z</time>
      </trkpt>
      <trkpt lat="44.31478" lon="5.73212">
        <ele>664.5</ele>
        <time>2021-09-08T08:02:51Z</time>
      </trkpt>
      <trkpt lat="44.31477" lon="5.73208">
        <ele>664.6</ele>
        <time>2021-09-08T08:02:52Z</time>
      </trkpt>
      <trkpt lat="44.31476" lon="5.73206">
        <ele>664.7</ele>
        <time>2021-09-08T08:02:54Z</time>
      </trkpt>
      <trkpt lat="44.31473" lon="5.73204">
        <ele>664.9</ele>
        <time>2021-09-08T08:02:55Z</time>
      </trkpt>
      <trkpt lat="44.31472" lon="5.73203">
        <ele>664.9</ele>
        <time>2021-09-08T08:02:56Z</time>
      </trkpt>
      <trkpt lat="44.31471" lon="5.73202">
        <ele>665</ele>
        <time>2021-09-08T08:02:57Z</time>
      </trkpt>
      <trkpt lat="44.31468" lon="5.73201">
        <ele>665.2</ele>
        <time>2021-09-08T08:02:59Z</time>
      </trkpt>
      <trkpt lat="44.31466" lon="5.73198">
        <ele>665.3</ele>
        <time>2021-09-08T08:03:00Z</time>
      </trkpt>
      <trkpt lat="44.31464" lon="5.73194">
        <ele>665.5</ele>
        <time>2021-09-08T08:03:02Z</time>
      </trkpt>
      <trkpt lat="44.31461" lon="5.73191">
        <ele>665.7</ele>
        <time>2021-09-08T08:03:04Z</time>
      </trkpt>
      <trkpt lat="44.3146" lon="5.7319">
        <ele>665.8</ele>
        <time>2021-09-08T08:03:05Z</time>
      </trkpt>
      <trkpt lat="44.31458" lon="5.73188">
        <ele>665.9</ele>
        <time>2021-09-08T08:03:06Z</time>
      </trkpt>
      <trkpt lat="44.31457" lon="5.73187">
        <ele>666</ele>
        <time>2021-09-08T08:03:08Z</time>
      </trkpt>
      <trkpt lat="44.31455" lon="5.73186">
        <ele>666.1</ele>
        <time>2021-09-08T08:03:09Z</time>
      </trkpt>
      <trkpt lat="44.31454" lon="5.73185">
        <ele>666.2</ele>
        <time>2021-09-08T08:03:10Z</time>
      </trkpt>
      <trkpt lat="44.31449" lon="5.73181">
        <ele>666.6</ele>
        <time>2021-09-08T08:03:12Z</time>
      </trkpt>
      <trkpt lat="44.31448" lon="5.7318">
        <ele>666.7</ele>
        <time>2021-09-08T08:03:13Z</time>
      </trkpt>
      <trkpt lat="44.31446" lon="5.73179">
        <ele>666.8</ele>
        <time>2021-09-08T08:03:14Z</time>
      </trkpt>
      <trkpt lat="44.31444" lon="5.73178">
        <ele>666.9</ele>
        <time>2021-09-08T08:03:16Z</time>
      </trkpt>
      <trkpt lat="44.31443" lon="5.73178">
        <ele>667</ele>
        <time>2021-09-08T08:03:17Z</time>
      </trkpt>
      <trkpt lat="44.31443" lon="5.73178">
        <ele>667</ele>
        <time>2021-09-08T08:03:18Z</time>
      </trkpt>
      <trkpt lat="44.31442" lon="5.73177">
        <ele>667.1</ele>
        <time>2021-09-08T08:03:19Z</time>
      </trkpt>
      <trkpt lat="44.31441" lon="5.73176">
        <ele>667.2</ele>
        <time>2021-09-08T08:03:20Z</time>
      </trkpt>
      <trkpt lat="44.31439" lon="5.73173">
        <ele>667.4</ele>
        <time>2021-09-08T08:03:22Z</time>
      </trkpt>
      <trkpt lat="44.31438" lon="5.73172">
        <ele>667.5</ele>
        <time>2021-09-08T08:03:23Z</time>
      </trkpt>
      <trkpt lat="44.31436" lon="5.7317">
        <ele>667.7</ele>
        <time>2021-09-08T08:03:25Z</time>
      </trkpt>
      <trkpt lat="44.31435" lon="5.7317">
        <ele>667.7</ele>
        <time>2021-09-08T08:03:26Z</time>
      </trkpt>
      <trkpt lat="44.31433" lon="5.73169">
        <ele>667.9</ele>
        <time>2021-09-08T08:03:27Z</time>
      </trkpt>
      <trkpt lat="44.31431" lon="5.73166">
        <ele>668.1</ele>
        <time>2021-09-08T08:03:29Z</time>
      </trkpt>
      <trkpt lat="44.31429" lon="5.73164">
        <ele>668.3</ele>
        <time>2021-09-08T08:03:30Z</time>
      </trkpt>
      <trkpt lat="44.31428" lon="5.73161">
        <ele>668.5</ele>
        <time>2021-09-08T08:03:32Z</time>
      </trkpt>
      <trkpt lat="44.31426" lon="5.73155">
        <ele>668.7</ele>
        <time>2021-09-08T08:03:34Z</time>
      </trkpt>
      <trkpt lat="44.31425" lon="5.73153">
        <ele>668.8</ele>
        <time>2021-09-08T08:03:35Z</time>
      </trkpt>
      <trkpt lat="44.31424" lon="5.7315">
        <ele>669</ele>
        <time>2021-09-08T08:03:37Z</time>
      </trkpt>
      <trkpt lat="44.31422" lon="5.73147">
        <ele>669.2</ele>
        <time>2021-09-08T08:03:38Z</time>
      </trkpt>
      <trkpt lat="44.31421" lon="5.73144">
        <ele>669.4</ele>
        <time>2021-09-08T08:03:40Z</time>
      </trkpt>
      <trkpt lat="44.3142" lon="5.73141">
        <ele>669.5</ele>
        <time>2021-09-08T08:03:41Z</time>
      </trkpt>
      <trkpt lat="44.3142" lon="5.73136">
        <ele>669.7</ele>
        <time>2021-09-08T08:03:43Z</time>
      </trkpt>
      <trkpt lat="44.31417" lon="5.73133">
        <ele>669.9</ele>
        <time>2021-09-08T08:03:45Z</time>
      </trkpt>
      <trkpt lat="44.31417" lon="5.73132">
        <ele>670</ele>
        <time>2021-09-08T08:03:46Z</time>
      </trkpt>
      <trkpt lat="44.31415" lon="5.7313">
        <ele>670.1</ele>
        <time>2021-09-08T08:03:47Z</time>
      </trkpt>
      <trkpt lat="44.31414" lon="5.73129">
        <ele>670.1</ele>
        <time>2021-09-08T08:03:48Z</time>
      </trkpt>
      <trkpt lat="44.31413" lon="5.73128">
        <ele>670.2</ele>
        <time>2021-09-08T08:03:50Z</time>
      </trkpt>
      <trkpt lat="44.31412" lon="5.73127">
        <ele>670.3</ele>
        <time>2021-09-08T08:03:51Z</time>
      </trkpt>
      <trkpt lat="44.31409" lon="5.73125">
        <ele>670.4</ele>
        <time>2021-09-08T08:03:53Z</time>
      </trkpt>
      <trkpt lat="44.31408" lon="5.73125">
        <ele>670.5</ele>
        <time>2021-09-08T08:03:54Z</time>
      </trkpt>
      <trkpt lat="44.31406" lon="5.73123">
        <ele>670.7</ele>
        <time>2021-09-08T08:03:55Z</time>
      </trkpt>
      <trkpt lat="44.31405" lon="5.73123">
        <ele>670.7</ele>
        <time>2021-09-08T08:03:56Z</time>
      </trkpt>
      <trkpt lat="44.31402" lon="5.7312">
        <ele>670.9</ele>
        <time>2021-09-08T08:03:58Z</time>
      </trkpt>
      <trkpt lat="44.31399" lon="5.73117">
        <ele>671.1</ele>
        <time>2021-09-08T08:04:00Z</time>
      </trkpt>
      <trkpt lat="44.31397" lon="5.73115">
        <ele>671.2</ele>
        <time>2021-09-08T08:04:01Z</time>
      </trkpt>
      <trkpt lat="44.31396" lon="5.73114">
        <ele>671.3</ele>
        <time>2021-09-08T08:04:02Z</time>
      </trkpt>
      <trkpt lat="44.31393" lon="5.73112">
        <ele>671.5</ele>
        <time>2021-09-08T08:04:04Z</time>
      </trkpt>
      <trkpt lat="44.31392" lon="5.73111">
        <ele>671.5</ele>
        <time>2021-09-08T08:04:05Z</time>
      </trkpt>
      <trkpt lat="44.31392" lon="5.73109">
        <ele>671.6</ele>
        <time>2021-09-08T08:04:06Z</time>
      </trkpt>
      <trkpt lat="44.3139" lon="5.73107">
        <ele>671.7</ele>
        <time>2021-09-08T08:04:07Z</time>
      </trkpt>
      <trkpt lat="44.3139" lon="5.73106">
        <ele>671.8</ele>
        <time>2021-09-08T08:04:08Z</time>
      </trkpt>
      <trkpt lat="44.31389" lon="5.73105">
        <ele>671.8</ele>
        <time>2021-09-08T08:04:09Z</time>
      </trkpt>
      <trkpt lat="44.31387" lon="5.73102">
        <ele>671.9</ele>
        <time>2021-09-08T08:04:11Z</time>
      </trkpt>
      <trkpt lat="44.31385" lon="5.73099">
        <ele>672.1</ele>
        <time>2021-09-08T08:04:12Z</time>
      </trkpt>
      <trkpt lat="44.31383" lon="5.73098">
        <ele>672.2</ele>
        <time>2021-09-08T08:04:13Z</time>
      </trkpt>
      <trkpt lat="44.31379" lon="5.73095">
        <ele>672.4</ele>
        <time>2021-09-08T08:04:15Z</time>
      </trkpt>
      <trkpt lat="44.31374" lon="5.73093">
        <ele>672.6</ele>
        <time>2021-09-08T08:04:17Z</time>
      </trkpt>
      <trkpt lat="44.31371" lon="5.7309">
        <ele>672.8</ele>
        <time>2021-09-08T08:04:18Z</time>
      </trkpt>
      <trkpt lat="44.31368" lon="5.73089">
        <ele>672.9</ele>
        <time>2021-09-08T08:04:19Z</time>
      </trkpt>
      <trkpt lat="44.31365" lon="5.73088">
        <ele>673</ele>
        <time>2021-09-08T08:04:20Z</time>
      </trkpt>
      <trkpt lat="44.31362" lon="5.73085">
        <ele>673.2</ele>
        <time>2021-09-08T08:04:22Z</time>
      </trkpt>
      <trkpt lat="44.3136" lon="5.73083">
        <ele>673.3</ele>
        <time>2021-09-08T08:04:24Z</time>
      </trkpt>
      <trkpt lat="44.31356" lon="5.73081">
        <ele>673.4</ele>
        <time>2021-09-08T08:04:26Z</time>
      </trkpt>
      <trkpt lat="44.31353" lon="5.73078">
        <ele>673.6</ele>
        <time>2021-09-08T08:04:27Z</time>
      </trkpt>
      <trkpt lat="44.31352" lon="5.73077">
        <ele>673.6</ele>
        <time>2021-09-08T08:04:28Z</time>
      </trkpt>
      <trkpt lat="44.31349" lon="5.73074">
        <ele>673.7</ele>
        <time>2021-09-08T08:04:30Z</time>
      </trkpt>
      <trkpt lat="44.31347" lon="5.73071">
        <ele>673.8</ele>
        <time>2021-09-08T08:04:31Z</time>
      </trkpt>
      <trkpt lat="44.31346" lon="5.7307">
        <ele>673.8</ele>
        <time>2021-09-08T08:04:32Z</time>
      </trkpt>
      <trkpt lat="44.31344" lon="5.73066">
        <ele>673.9</ele>
        <time>2021-09-08T08:04:34Z</time>
      </trkpt>
      <trkpt lat="44.3134" lon="5.73065">
        <ele>673.9</ele>
        <time>2021-09-08T08:04:35Z</time>
      </trkpt>
      <trkpt lat="44.31338" lon="5.73064">
        <ele>673.9</ele>
        <time>2021-09-08T08:04:36Z</time>
      </trkpt>
      <trkpt lat="44.31335" lon="5.73062">
        <ele>673.9</ele>
        <time>2021-09-08T08:04:38Z</time>
      </trkpt>
      <trkpt lat="44.31333" lon="5.7306">
        <ele>673.9</ele>
        <time>2021-09-08T08:04:39Z</time>
      </trkpt>
      <trkpt lat="44.3133" lon="5.73057">
        <ele>673.9</ele>
        <time>2021-09-08T08:04:41Z</time>
      </trkpt>
      <trkpt lat="44.31327" lon="5.73055">
        <ele>674</ele>
        <time>2021-09-08T08:04:43Z</time>
      </trkpt>
      <trkpt lat="44.31323" lon="5.73053">
        <ele>674</ele>
        <time>2021-09-08T08:04:44Z</time>
      </trkpt>
      <trkpt lat="44.31322" lon="5.73052">
        <ele>674</ele>
        <time>2021-09-08T08:04:45Z</time>
      </trkpt>
      <trkpt lat="44.31317" lon="5.73048">
        <ele>674</ele>
        <time>2021-09-08T08:04:47Z</time>
      </trkpt>
      <trkpt lat="44.31315" lon="5.73047">
        <ele>674</ele>
        <time>2021-09-08T08:04:48Z</time>
      </trkpt>
      <trkpt lat="44.31311" lon="5.73045">
        <ele>674</ele>
        <time>2021-09-08T08:04:50Z</time>
      </trkpt>
      <trkpt lat="44.31309" lon="5.73043">
        <ele>674</ele>
        <time>2021-09-08T08:04:51Z</time>
      </trkpt>
      <trkpt lat="44.31306" lon="5.73041">
        <ele>674.1</ele>
        <time>2021-09-08T08:04:53Z</time>
      </trkpt>
      <trkpt lat="44.31304" lon="5.73038">
        <ele>674.1</ele>
        <time>2021-09-08T08:04:54Z</time>
      </trkpt>
      <trkpt lat="44.31302" lon="5.73035">
        <ele>674.1</ele>
        <time>2021-09-08T08:04:56Z</time>
      </trkpt>
      <trkpt lat="44.31301" lon="5.73033">
        <ele>674.2</ele>
        <time>2021-09-08T08:04:57Z</time>
      </trkpt>
      <trkpt lat="44.31299" lon="5.73031">
        <ele>674.2</ele>
        <time>2021-09-08T08:04:59Z</time>
      </trkpt>
      <trkpt lat="44.31298" lon="5.73026">
        <ele>674.2</ele>
        <time>2021-09-08T08:05:00Z</time>
      </trkpt>
      <trkpt lat="44.31297" lon="5.73025">
        <ele>674.3</ele>
        <time>2021-09-08T08:05:01Z</time>
      </trkpt>
      <trkpt lat="44.31297" lon="5.73024">
        <ele>674.3</ele>
        <time>2021-09-08T08:05:02Z</time>
      </trkpt>
      <trkpt lat="44.31296" lon="5.73022">
        <ele>674.3</ele>
        <time>2021-09-08T08:05:03Z</time>
      </trkpt>
      <trkpt lat="44.31294" lon="5.73018">
        <ele>674.3</ele>
        <time>2021-09-08T08:05:05Z</time>
      </trkpt>
      <trkpt lat="44.31294" lon="5.73015">
        <ele>674.4</ele>
        <time>2021-09-08T08:05:06Z</time>
      </trkpt>
      <trkpt lat="44.31292" lon="5.73012">
        <ele>674.4</ele>
        <time>2021-09-08T08:05:08Z</time>
      </trkpt>
      <trkpt lat="44.31289" lon="5.7301">
        <ele>674.4</ele>
        <time>2021-09-08T08:05:10Z</time>
      </trkpt>
      <trkpt lat="44.31287" lon="5.73007">
        <ele>674.4</ele>
        <time>2021-09-08T08:05:11Z</time>
      </trkpt>
      <trkpt lat="44.31286" lon="5.73006">
        <ele>674.5</ele>
        <time>2021-09-08T08:05:12Z</time>
      </trkpt>
      <trkpt lat="44.31285" lon="5.73004">
        <ele>674.5</ele>
        <time>2021-09-08T08:05:13Z</time>
      </trkpt>
      <trkpt lat="44.31283" lon="5.73002">
        <ele>674.5</ele>
        <time>2021-09-08T08:05:15Z</time>
      </trkpt>
      <trkpt lat="44.3128" lon="5.72999">
        <ele>674.5</ele>
        <time>2021-09-08T08:05:17Z</time>
      </trkpt>
      <trkpt lat="44.31279" lon="5.72999">
        <ele>674.5</ele>
        <time>2021-09-08T08:05:18Z</time>
      </trkpt>
      <trkpt lat="44.31278" lon="5.72997">
        <ele>674.5</ele>
        <time>2021-09-08T08:05:19Z</time>
      </trkpt>
      <trkpt lat="44.31276" lon="5.72995">
        <ele>674.5</ele>
        <time>2021-09-08T08:05:21Z</time>
      </trkpt>
      <trkpt lat="44.31274" lon="5.72992">
        <ele>674.5</ele>
        <time>2021-09-08T08:05:22Z</time>
      </trkpt>
      <trkpt lat="44.31271" lon="5.72986">
        <ele>674.5</ele>
        <time>2021-09-08T08:05:24Z</time>
      </trkpt>
      <trkpt lat="44.31268" lon="5.72982">
        <ele>674.5</ele>
        <time>2021-09-08T08:05:26Z</time>
      </trkpt>
      <trkpt lat="44.31267" lon="5.72979">
        <ele>674.5</ele>
        <time>2021-09-08T08:05:27Z</time>
      </trkpt>
      <trkpt lat="44.31263" lon="5.72972">
        <ele>674.5</ele>
        <time>2021-09-08T08:05:29Z</time>
      </trkpt>
      <trkpt lat="44.3126" lon="5.7297">
        <ele>674.5</ele>
        <time>2021-09-08T08:05:30Z</time>
      </trkpt>
      <trkpt lat="44.31259" lon="5.7297">
        <ele>674.5</ele>
        <time>2021-09-08T08:05:31Z</time>
      </trkpt>
      <trkpt lat="44.31255" lon="5.72969">
        <ele>674.5</ele>
        <time>2021-09-08T08:05:33Z</time>
      </trkpt>
      <trkpt lat="44.31254" lon="5.72967">
        <ele>674.5</ele>
        <time>2021-09-08T08:05:34Z</time>
      </trkpt>
      <trkpt lat="44.31253" lon="5.72966">
        <ele>674.4</ele>
        <time>2021-09-08T08:05:35Z</time>
      </trkpt>
      <trkpt lat="44.31252" lon="5.72965">
        <ele>674.4</ele>
        <time>2021-09-08T08:05:36Z</time>
      </trkpt>
      <trkpt lat="44.3125" lon="5.72965">
        <ele>674.4</ele>
        <time>2021-09-08T08:05:37Z</time>
      </trkpt>
      <trkpt lat="44.31249" lon="5.72965">
        <ele>674.4</ele>
        <time>2021-09-08T08:05:39Z</time>
      </trkpt>
      <trkpt lat="44.31247" lon="5.72964">
        <ele>674.4</ele>
        <time>2021-09-08T08:05:40Z</time>
      </trkpt>
      <trkpt lat="44.31245" lon="5.72961">
        <ele>674.4</ele>
        <time>2021-09-08T08:05:42Z</time>
      </trkpt>
      <trkpt lat="44.31243" lon="5.72957">
        <ele>674.3</ele>
        <time>2021-09-08T08:05:44Z</time>
      </trkpt>
      <trkpt lat="44.31241" lon="5.72956">
        <ele>674.3</ele>
        <time>2021-09-08T08:05:45Z</time>
      </trkpt>
      <trkpt lat="44.31239" lon="5.72954">
        <ele>674.3</ele>
        <time>2021-09-08T08:05:46Z</time>
      </trkpt>
      <trkpt lat="44.31235" lon="5.72951">
        <ele>674.2</ele>
        <time>2021-09-08T08:05:48Z</time>
      </trkpt>
      <trkpt lat="44.31234" lon="5.7295">
        <ele>674.1</ele>
        <time>2021-09-08T08:05:49Z</time>
      </trkpt>
      <trkpt lat="44.31231" lon="5.72948">
        <ele>674.1</ele>
        <time>2021-09-08T08:05:50Z</time>
      </trkpt>
      <trkpt lat="44.31227" lon="5.72944">
        <ele>673.9</ele>
        <time>2021-09-08T08:05:51Z</time>
      </trkpt>
      <trkpt lat="44.31223" lon="5.72939">
        <ele>673.8</ele>
        <time>2021-09-08T08:05:52Z</time>
      </trkpt>
      <trkpt lat="44.31219" lon="5.72932">
        <ele>673.8</ele>
        <time>2021-09-08T08:05:54Z</time>
      </trkpt>
      <trkpt lat="44.31214" lon="5.7292">
        <ele>673.9</ele>
        <time>2021-09-08T08:05:55Z</time>
      </trkpt>
      <trkpt lat="44.3121" lon="5.7291">
        <ele>674.1</ele>
        <time>2021-09-08T08:05:56Z</time>
      </trkpt>
      <trkpt lat="44.31204" lon="5.7289">
        <ele>674.2</ele>
        <time>2021-09-08T08:05:58Z</time>
      </trkpt>
      <trkpt lat="44.31202" lon="5.72879">
        <ele>674.3</ele>
        <time>2021-09-08T08:05:59Z</time>
      </trkpt>
      <trkpt lat="44.31201" lon="5.72868">
        <ele>674.5</ele>
        <time>2021-09-08T08:06:00Z</time>
      </trkpt>
      <trkpt lat="44.312" lon="5.72845">
        <ele>675.3</ele>
        <time>2021-09-08T08:06:02Z</time>
      </trkpt>
      <trkpt lat="44.31198" lon="5.72823">
        <ele>676.7</ele>
        <time>2021-09-08T08:06:04Z</time>
      </trkpt>
      <trkpt lat="44.31197" lon="5.72812">
        <ele>677.7</ele>
        <time>2021-09-08T08:06:05Z</time>
      </trkpt>
      <trkpt lat="44.31199" lon="5.72801">
        <ele>678.7</ele>
        <time>2021-09-08T08:06:06Z</time>
      </trkpt>
      <trkpt lat="44.31203" lon="5.7278">
        <ele>680.6</ele>
        <time>2021-09-08T08:06:08Z</time>
      </trkpt>
      <trkpt lat="44.31208" lon="5.72764">
        <ele>681.6</ele>
        <time>2021-09-08T08:06:10Z</time>
      </trkpt>
      <trkpt lat="44.31208" lon="5.72758">
        <ele>681.8</ele>
        <time>2021-09-08T08:06:11Z</time>
      </trkpt>
      <trkpt lat="44.31208" lon="5.72754">
        <ele>682</ele>
        <time>2021-09-08T08:06:12Z</time>
      </trkpt>
      <trkpt lat="44.31206" lon="5.72746">
        <ele>682</ele>
        <time>2021-09-08T08:06:14Z</time>
      </trkpt>
      <trkpt lat="44.31206" lon="5.72741">
        <ele>682</ele>
        <time>2021-09-08T08:06:15Z</time>
      </trkpt>
      <trkpt lat="44.31205" lon="5.72732">
        <ele>681.8</ele>
        <time>2021-09-08T08:06:17Z</time>
      </trkpt>
      <trkpt lat="44.31203" lon="5.7273">
        <ele>681.7</ele>
        <time>2021-09-08T08:06:18Z</time>
      </trkpt>
      <trkpt lat="44.31204" lon="5.72728">
        <ele>681.7</ele>
        <time>2021-09-08T08:06:19Z</time>
      </trkpt>
      <trkpt lat="44.31204" lon="5.72725">
        <ele>681.6</ele>
        <time>2021-09-08T08:06:20Z</time>
      </trkpt>
      <trkpt lat="44.31204" lon="5.72723">
        <ele>681.5</ele>
        <time>2021-09-08T08:06:21Z</time>
      </trkpt>
      <trkpt lat="44.31204" lon="5.72722">
        <ele>681.5</ele>
        <time>2021-09-08T08:06:23Z</time>
      </trkpt>
      <trkpt lat="44.31204" lon="5.7272">
        <ele>681.4</ele>
        <time>2021-09-08T08:06:24Z</time>
      </trkpt>
      <trkpt lat="44.31204" lon="5.72719">
        <ele>681.3</ele>
        <time>2021-09-08T08:06:26Z</time>
      </trkpt>
      <trkpt lat="44.31204" lon="5.72717">
        <ele>681.3</ele>
        <time>2021-09-08T08:06:27Z</time>
      </trkpt>
      <trkpt lat="44.31201" lon="5.72704">
        <ele>680.7</ele>
        <time>2021-09-08T08:06:28Z</time>
      </trkpt>
      <trkpt lat="44.31198" lon="5.72691">
        <ele>680.2</ele>
        <time>2021-09-08T08:06:29Z</time>
      </trkpt>
      <trkpt lat="44.31194" lon="5.72681">
        <ele>679.7</ele>
        <time>2021-09-08T08:06:30Z</time>
      </trkpt>
      <trkpt lat="44.3119" lon="5.72673">
        <ele>679.4</ele>
        <time>2021-09-08T08:06:31Z</time>
      </trkpt>
      <trkpt lat="44.31186" lon="5.72665">
        <ele>679.1</ele>
        <time>2021-09-08T08:06:32Z</time>
      </trkpt>
      <trkpt lat="44.31176" lon="5.7265">
        <ele>678.5</ele>
        <time>2021-09-08T08:06:34Z</time>
      </trkpt>
      <trkpt lat="44.31171" lon="5.72643">
        <ele>678.2</ele>
        <time>2021-09-08T08:06:35Z</time>
      </trkpt>
      <trkpt lat="44.31166" lon="5.72635">
        <ele>677.9</ele>
        <time>2021-09-08T08:06:36Z</time>
      </trkpt>
      <trkpt lat="44.31156" lon="5.72619">
        <ele>677.4</ele>
        <time>2021-09-08T08:06:38Z</time>
      </trkpt>
      <trkpt lat="44.31148" lon="5.72598">
        <ele>676.9</ele>
        <time>2021-09-08T08:06:40Z</time>
      </trkpt>
      <trkpt lat="44.3114" lon="5.72575">
        <ele>676.9</ele>
        <time>2021-09-08T08:06:42Z</time>
      </trkpt>
      <trkpt lat="44.31136" lon="5.72563">
        <ele>677</ele>
        <time>2021-09-08T08:06:43Z</time>
      </trkpt>
      <trkpt lat="44.31134" lon="5.72551">
        <ele>677.1</ele>
        <time>2021-09-08T08:06:44Z</time>
      </trkpt>
      <trkpt lat="44.31134" lon="5.72529">
        <ele>677.3</ele>
        <time>2021-09-08T08:06:46Z</time>
      </trkpt>
      <trkpt lat="44.31135" lon="5.72518">
        <ele>677.5</ele>
        <time>2021-09-08T08:06:47Z</time>
      </trkpt>
      <trkpt lat="44.31137" lon="5.72507">
        <ele>677.7</ele>
        <time>2021-09-08T08:06:48Z</time>
      </trkpt>
      <trkpt lat="44.3114" lon="5.72488">
        <ele>678.1</ele>
        <time>2021-09-08T08:06:50Z</time>
      </trkpt>
      <trkpt lat="44.31144" lon="5.72469">
        <ele>678.5</ele>
        <time>2021-09-08T08:06:52Z</time>
      </trkpt>
      <trkpt lat="44.31148" lon="5.72452">
        <ele>678.9</ele>
        <time>2021-09-08T08:06:54Z</time>
      </trkpt>
      <trkpt lat="44.31149" lon="5.72443">
        <ele>679.1</ele>
        <time>2021-09-08T08:06:55Z</time>
      </trkpt>
      <trkpt lat="44.31153" lon="5.72428">
        <ele>679.4</ele>
        <time>2021-09-08T08:06:57Z</time>
      </trkpt>
      <trkpt lat="44.31153" lon="5.72416">
        <ele>679.6</ele>
        <time>2021-09-08T08:06:59Z</time>
      </trkpt>
      <trkpt lat="44.31153" lon="5.72411">
        <ele>679.7</ele>
        <time>2021-09-08T08:07:00Z</time>
      </trkpt>
      <trkpt lat="44.31151" lon="5.72403">
        <ele>680</ele>
        <time>2021-09-08T08:07:02Z</time>
      </trkpt>
      <trkpt lat="44.3115" lon="5.72398">
        <ele>680.1</ele>
        <time>2021-09-08T08:07:03Z</time>
      </trkpt>
      <trkpt lat="44.31147" lon="5.72393">
        <ele>680.3</ele>
        <time>2021-09-08T08:07:05Z</time>
      </trkpt>
      <trkpt lat="44.31143" lon="5.72389">
        <ele>680.4</ele>
        <time>2021-09-08T08:07:07Z</time>
      </trkpt>
      <trkpt lat="44.31139" lon="5.72391">
        <ele>680.6</ele>
        <time>2021-09-08T08:07:08Z</time>
      </trkpt>
      <trkpt lat="44.31138" lon="5.72391">
        <ele>680.6</ele>
        <time>2021-09-08T08:07:09Z</time>
      </trkpt>
      <trkpt lat="44.31135" lon="5.72394">
        <ele>680.7</ele>
        <time>2021-09-08T08:07:11Z</time>
      </trkpt>
      <trkpt lat="44.31132" lon="5.72396">
        <ele>680.8</ele>
        <time>2021-09-08T08:07:12Z</time>
      </trkpt>
      <trkpt lat="44.31129" lon="5.72397">
        <ele>681</ele>
        <time>2021-09-08T08:07:13Z</time>
      </trkpt>
      <trkpt lat="44.31125" lon="5.72397">
        <ele>681.1</ele>
        <time>2021-09-08T08:07:14Z</time>
      </trkpt>
      <trkpt lat="44.31123" lon="5.72396">
        <ele>681.2</ele>
        <time>2021-09-08T08:07:15Z</time>
      </trkpt>
      <trkpt lat="44.3112" lon="5.72396">
        <ele>681.3</ele>
        <time>2021-09-08T08:07:16Z</time>
      </trkpt>
      <trkpt lat="44.31117" lon="5.72396">
        <ele>681.4</ele>
        <time>2021-09-08T08:07:17Z</time>
      </trkpt>
      <trkpt lat="44.31114" lon="5.72396">
        <ele>681.5</ele>
        <time>2021-09-08T08:07:18Z</time>
      </trkpt>
      <trkpt lat="44.31112" lon="5.72398">
        <ele>681.6</ele>
        <time>2021-09-08T08:07:19Z</time>
      </trkpt>
      <trkpt lat="44.31108" lon="5.72401">
        <ele>681.8</ele>
        <time>2021-09-08T08:07:20Z</time>
      </trkpt>
      <trkpt lat="44.31103" lon="5.72406">
        <ele>682</ele>
        <time>2021-09-08T08:07:22Z</time>
      </trkpt>
      <trkpt lat="44.31098" lon="5.7241">
        <ele>682.3</ele>
        <time>2021-09-08T08:07:24Z</time>
      </trkpt>
      <trkpt lat="44.31094" lon="5.72412">
        <ele>682.4</ele>
        <time>2021-09-08T08:07:26Z</time>
      </trkpt>
      <trkpt lat="44.31091" lon="5.72413">
        <ele>682.6</ele>
        <time>2021-09-08T08:07:27Z</time>
      </trkpt>
      <trkpt lat="44.31087" lon="5.72414">
        <ele>682.7</ele>
        <time>2021-09-08T08:07:28Z</time>
      </trkpt>
      <trkpt lat="44.31084" lon="5.72414">
        <ele>682.9</ele>
        <time>2021-09-08T08:07:30Z</time>
      </trkpt>
      <trkpt lat="44.31081" lon="5.72414">
        <ele>683</ele>
        <time>2021-09-08T08:07:31Z</time>
      </trkpt>
      <trkpt lat="44.31076" lon="5.72413">
        <ele>683.2</ele>
        <time>2021-09-08T08:07:33Z</time>
      </trkpt>
      <trkpt lat="44.31072" lon="5.72412">
        <ele>683.4</ele>
        <time>2021-09-08T08:07:35Z</time>
      </trkpt>
      <trkpt lat="44.31069" lon="5.72412">
        <ele>683.5</ele>
        <time>2021-09-08T08:07:36Z</time>
      </trkpt>
      <trkpt lat="44.31062" lon="5.72414">
        <ele>683.8</ele>
        <time>2021-09-08T08:07:38Z</time>
      </trkpt>
      <trkpt lat="44.31056" lon="5.72413">
        <ele>684.1</ele>
        <time>2021-09-08T08:07:40Z</time>
      </trkpt>
      <trkpt lat="44.31053" lon="5.72412">
        <ele>684.3</ele>
        <time>2021-09-08T08:07:41Z</time>
      </trkpt>
      <trkpt lat="44.31047" lon="5.72412">
        <ele>684.5</ele>
        <time>2021-09-08T08:07:43Z</time>
      </trkpt>
      <trkpt lat="44.31044" lon="5.72413">
        <ele>684.7</ele>
        <time>2021-09-08T08:07:44Z</time>
      </trkpt>
      <trkpt lat="44.31041" lon="5.72412">
        <ele>684.8</ele>
        <time>2021-09-08T08:07:45Z</time>
      </trkpt>
      <trkpt lat="44.31037" lon="5.72411">
        <ele>685</ele>
        <time>2021-09-08T08:07:46Z</time>
      </trkpt>
      <trkpt lat="44.31036" lon="5.72411">
        <ele>685.1</ele>
        <time>2021-09-08T08:07:47Z</time>
      </trkpt>
      <trkpt lat="44.31033" lon="5.7241">
        <ele>685.2</ele>
        <time>2021-09-08T08:07:48Z</time>
      </trkpt>
      <trkpt lat="44.31029" lon="5.72409">
        <ele>685.4</ele>
        <time>2021-09-08T08:07:49Z</time>
      </trkpt>
      <trkpt lat="44.31027" lon="5.72408">
        <ele>685.4</ele>
        <time>2021-09-08T08:07:50Z</time>
      </trkpt>
      <trkpt lat="44.31022" lon="5.72407">
        <ele>685.7</ele>
        <time>2021-09-08T08:07:52Z</time>
      </trkpt>
      <trkpt lat="44.31018" lon="5.72407">
        <ele>685.9</ele>
        <time>2021-09-08T08:07:53Z</time>
      </trkpt>
      <trkpt lat="44.31012" lon="5.72406">
        <ele>686.1</ele>
        <time>2021-09-08T08:07:54Z</time>
      </trkpt>
      <trkpt lat="44.31006" lon="5.72406">
        <ele>686.4</ele>
        <time>2021-09-08T08:07:56Z</time>
      </trkpt>
      <trkpt lat="44.30999" lon="5.72403">
        <ele>686.7</ele>
        <time>2021-09-08T08:07:58Z</time>
      </trkpt>
      <trkpt lat="44.30994" lon="5.72401">
        <ele>687</ele>
        <time>2021-09-08T08:07:59Z</time>
      </trkpt>
      <trkpt lat="44.3099" lon="5.72401">
        <ele>687.2</ele>
        <time>2021-09-08T08:08:01Z</time>
      </trkpt>
      <trkpt lat="44.30986" lon="5.72401">
        <ele>687.4</ele>
        <time>2021-09-08T08:08:02Z</time>
      </trkpt>
      <trkpt lat="44.30982" lon="5.724">
        <ele>687.6</ele>
        <time>2021-09-08T08:08:04Z</time>
      </trkpt>
      <trkpt lat="44.30979" lon="5.72399">
        <ele>687.7</ele>
        <time>2021-09-08T08:08:05Z</time>
      </trkpt>
      <trkpt lat="44.30977" lon="5.72398">
        <ele>687.8</ele>
        <time>2021-09-08T08:08:06Z</time>
      </trkpt>
      <trkpt lat="44.30974" lon="5.72399">
        <ele>688</ele>
        <time>2021-09-08T08:08:08Z</time>
      </trkpt>
      <trkpt lat="44.30973" lon="5.72398">
        <ele>688</ele>
        <time>2021-09-08T08:08:10Z</time>
      </trkpt>
      <trkpt lat="44.30973" lon="5.72395">
        <ele>688.2</ele>
        <time>2021-09-08T08:08:12Z</time>
      </trkpt>
      <trkpt lat="44.30974" lon="5.72392">
        <ele>688.3</ele>
        <time>2021-09-08T08:08:14Z</time>
      </trkpt>
      <trkpt lat="44.30974" lon="5.72391">
        <ele>688.3</ele>
        <time>2021-09-08T08:08:15Z</time>
      </trkpt>
      <trkpt lat="44.30973" lon="5.7239">
        <ele>688.4</ele>
        <time>2021-09-08T08:08:16Z</time>
      </trkpt>
      <trkpt lat="44.30972" lon="5.7239">
        <ele>688.4</ele>
        <time>2021-09-08T08:08:17Z</time>
      </trkpt>
      <trkpt lat="44.30972" lon="5.72389">
        <ele>688.5</ele>
        <time>2021-09-08T08:08:18Z</time>
      </trkpt>
      <trkpt lat="44.30971" lon="5.72388">
        <ele>688.5</ele>
        <time>2021-09-08T08:08:19Z</time>
      </trkpt>
      <trkpt lat="44.30969" lon="5.72387">
        <ele>688.6</ele>
        <time>2021-09-08T08:08:21Z</time>
      </trkpt>
      <trkpt lat="44.30967" lon="5.72385">
        <ele>688.8</ele>
        <time>2021-09-08T08:08:23Z</time>
      </trkpt>
      <trkpt lat="44.30966" lon="5.72385">
        <ele>688.8</ele>
        <time>2021-09-08T08:08:24Z</time>
      </trkpt>
      <trkpt lat="44.30965" lon="5.72382">
        <ele>688.9</ele>
        <time>2021-09-08T08:08:26Z</time>
      </trkpt>
      <trkpt lat="44.30964" lon="5.72382">
        <ele>688.9</ele>
        <time>2021-09-08T08:08:28Z</time>
      </trkpt>
      <trkpt lat="44.30966" lon="5.72382">
        <ele>689</ele>
        <time>2021-09-08T08:08:29Z</time>
      </trkpt>
      <trkpt lat="44.30967" lon="5.72381">
        <ele>689.1</ele>
        <time>2021-09-08T08:08:30Z</time>
      </trkpt>
      <trkpt lat="44.30968" lon="5.72381">
        <ele>689.1</ele>
        <time>2021-09-08T08:08:32Z</time>
      </trkpt>
      <trkpt lat="44.30967" lon="5.72381">
        <ele>689.1</ele>
        <time>2021-09-08T08:08:33Z</time>
      </trkpt>
      <trkpt lat="44.30967" lon="5.72381">
        <ele>689.1</ele>
        <time>2021-09-08T08:08:34Z</time>
      </trkpt>
      <trkpt lat="44.30967" lon="5.72382">
        <ele>689.1</ele>
        <time>2021-09-08T08:08:35Z</time>
      </trkpt>
      <trkpt lat="44.30967" lon="5.72381">
        <ele>689.1</ele>
        <time>2021-09-08T08:08:37Z</time>
      </trkpt>
      <trkpt lat="44.30961" lon="5.72376">
        <ele>689.5</ele>
        <time>2021-09-08T08:08:47Z</time>
      </trkpt>
      <trkpt lat="44.30959" lon="5.72375">
        <ele>689.7</ele>
        <time>2021-09-08T08:08:49Z</time>
      </trkpt>
      <trkpt lat="44.30957" lon="5.72375">
        <ele>689.8</ele>
        <time>2021-09-08T08:08:50Z</time>
      </trkpt>
      <trkpt lat="44.30954" lon="5.72374">
        <ele>689.9</ele>
        <time>2021-09-08T08:08:52Z</time>
      </trkpt>
      <trkpt lat="44.30952" lon="5.72374">
        <ele>690</ele>
        <time>2021-09-08T08:08:53Z</time>
      </trkpt>
      <trkpt lat="44.30951" lon="5.72373">
        <ele>690.1</ele>
        <time>2021-09-08T08:08:54Z</time>
      </trkpt>
      <trkpt lat="44.30948" lon="5.72374">
        <ele>690.3</ele>
        <time>2021-09-08T08:08:56Z</time>
      </trkpt>
      <trkpt lat="44.30947" lon="5.72374">
        <ele>690.3</ele>
        <time>2021-09-08T08:08:57Z</time>
      </trkpt>
      <trkpt lat="44.30946" lon="5.72374">
        <ele>690.4</ele>
        <time>2021-09-08T08:08:58Z</time>
      </trkpt>
      <trkpt lat="44.30944" lon="5.72374">
        <ele>690.5</ele>
        <time>2021-09-08T08:08:59Z</time>
      </trkpt>
      <trkpt lat="44.30943" lon="5.72374">
        <ele>690.6</ele>
        <time>2021-09-08T08:09:01Z</time>
      </trkpt>
      <trkpt lat="44.30942" lon="5.72374">
        <ele>690.6</ele>
        <time>2021-09-08T08:09:02Z</time>
      </trkpt>
      <trkpt lat="44.3094" lon="5.72373">
        <ele>690.7</ele>
        <time>2021-09-08T08:09:03Z</time>
      </trkpt>
      <trkpt lat="44.30939" lon="5.72373">
        <ele>690.8</ele>
        <time>2021-09-08T08:09:04Z</time>
      </trkpt>
      <trkpt lat="44.30937" lon="5.72373">
        <ele>690.9</ele>
        <time>2021-09-08T08:09:05Z</time>
      </trkpt>
      <trkpt lat="44.30935" lon="5.72373">
        <ele>691</ele>
        <time>2021-09-08T08:09:07Z</time>
      </trkpt>
      <trkpt lat="44.30933" lon="5.72373">
        <ele>691.2</ele>
        <time>2021-09-08T08:09:09Z</time>
      </trkpt>
      <trkpt lat="44.3093" lon="5.72372">
        <ele>691.3</ele>
        <time>2021-09-08T08:09:10Z</time>
      </trkpt>
      <trkpt lat="44.30929" lon="5.72372">
        <ele>691.4</ele>
        <time>2021-09-08T08:09:11Z</time>
      </trkpt>
      <trkpt lat="44.30928" lon="5.72372">
        <ele>691.4</ele>
        <time>2021-09-08T08:09:12Z</time>
      </trkpt>
      <trkpt lat="44.30928" lon="5.72373">
        <ele>691.5</ele>
        <time>2021-09-08T08:09:13Z</time>
      </trkpt>
      <trkpt lat="44.30927" lon="5.72373">
        <ele>691.5</ele>
        <time>2021-09-08T08:09:15Z</time>
      </trkpt>
      <trkpt lat="44.30927" lon="5.72373">
        <ele>691.5</ele>
        <time>2021-09-08T08:09:16Z</time>
      </trkpt>
      <trkpt lat="44.30925" lon="5.72372">
        <ele>691.6</ele>
        <time>2021-09-08T08:09:17Z</time>
      </trkpt>
      <trkpt lat="44.30922" lon="5.72372">
        <ele>691.8</ele>
        <time>2021-09-08T08:09:18Z</time>
      </trkpt>
      <trkpt lat="44.30921" lon="5.72371">
        <ele>691.9</ele>
        <time>2021-09-08T08:09:19Z</time>
      </trkpt>
      <trkpt lat="44.30917" lon="5.72371">
        <ele>692.1</ele>
        <time>2021-09-08T08:09:21Z</time>
      </trkpt>
      <trkpt lat="44.30914" lon="5.7237">
        <ele>692.3</ele>
        <time>2021-09-08T08:09:22Z</time>
      </trkpt>
      <trkpt lat="44.30913" lon="5.7237">
        <ele>692.3</ele>
        <time>2021-09-08T08:09:23Z</time>
      </trkpt>
      <trkpt lat="44.30911" lon="5.72369">
        <ele>692.5</ele>
        <time>2021-09-08T08:09:24Z</time>
      </trkpt>
      <trkpt lat="44.30908" lon="5.72369">
        <ele>692.7</ele>
        <time>2021-09-08T08:09:26Z</time>
      </trkpt>
      <trkpt lat="44.30907" lon="5.72368">
        <ele>692.8</ele>
        <time>2021-09-08T08:09:28Z</time>
      </trkpt>
      <trkpt lat="44.30906" lon="5.72368">
        <ele>692.8</ele>
        <time>2021-09-08T08:09:29Z</time>
      </trkpt>
      <trkpt lat="44.30905" lon="5.72367">
        <ele>692.9</ele>
        <time>2021-09-08T08:09:30Z</time>
      </trkpt>
      <trkpt lat="44.30904" lon="5.72366">
        <ele>693</ele>
        <time>2021-09-08T08:09:31Z</time>
      </trkpt>
      <trkpt lat="44.30903" lon="5.72366">
        <ele>693</ele>
        <time>2021-09-08T08:09:32Z</time>
      </trkpt>
      <trkpt lat="44.30901" lon="5.72366">
        <ele>693.2</ele>
        <time>2021-09-08T08:09:34Z</time>
      </trkpt>
      <trkpt lat="44.309" lon="5.72366">
        <ele>693.3</ele>
        <time>2021-09-08T08:09:35Z</time>
      </trkpt>
      <trkpt lat="44.30899" lon="5.72366">
        <ele>693.3</ele>
        <time>2021-09-08T08:09:36Z</time>
      </trkpt>
      <trkpt lat="44.30898" lon="5.72366">
        <ele>693.4</ele>
        <time>2021-09-08T08:09:37Z</time>
      </trkpt>
      <trkpt lat="44.30896" lon="5.72365">
        <ele>693.5</ele>
        <time>2021-09-08T08:09:39Z</time>
      </trkpt>
      <trkpt lat="44.30895" lon="5.72364">
        <ele>693.6</ele>
        <time>2021-09-08T08:09:41Z</time>
      </trkpt>
      <trkpt lat="44.30893" lon="5.72364">
        <ele>693.7</ele>
        <time>2021-09-08T08:09:42Z</time>
      </trkpt>
      <trkpt lat="44.30892" lon="5.72363">
        <ele>693.8</ele>
        <time>2021-09-08T08:09:43Z</time>
      </trkpt>
      <trkpt lat="44.30891" lon="5.72363">
        <ele>693.8</ele>
        <time>2021-09-08T08:09:44Z</time>
      </trkpt>
      <trkpt lat="44.30891" lon="5.72363">
        <ele>693.9</ele>
        <time>2021-09-08T08:09:45Z</time>
      </trkpt>
      <trkpt lat="44.3089" lon="5.72363">
        <ele>693.9</ele>
        <time>2021-09-08T08:09:47Z</time>
      </trkpt>
      <trkpt lat="44.30889" lon="5.72363">
        <ele>694</ele>
        <time>2021-09-08T08:09:48Z</time>
      </trkpt>
      <trkpt lat="44.30888" lon="5.72363">
        <ele>694.1</ele>
        <time>2021-09-08T08:09:49Z</time>
      </trkpt>
      <trkpt lat="44.30886" lon="5.72363">
        <ele>694.2</ele>
        <time>2021-09-08T08:09:50Z</time>
      </trkpt>
      <trkpt lat="44.30885" lon="5.72363">
        <ele>694.3</ele>
        <time>2021-09-08T08:09:52Z</time>
      </trkpt>
      <trkpt lat="44.30884" lon="5.72363">
        <ele>694.3</ele>
        <time>2021-09-08T08:09:53Z</time>
      </trkpt>
      <trkpt lat="44.30884" lon="5.72363">
        <ele>694.4</ele>
        <time>2021-09-08T08:09:54Z</time>
      </trkpt>
      <trkpt lat="44.30883" lon="5.72363">
        <ele>694.4</ele>
        <time>2021-09-08T08:09:55Z</time>
      </trkpt>
      <trkpt lat="44.30882" lon="5.72363">
        <ele>694.5</ele>
        <time>2021-09-08T08:09:56Z</time>
      </trkpt>
      <trkpt lat="44.30882" lon="5.72363">
        <ele>694.5</ele>
        <time>2021-09-08T08:09:58Z</time>
      </trkpt>
      <trkpt lat="44.30882" lon="5.72362">
        <ele>694.5</ele>
        <time>2021-09-08T08:09:59Z</time>
      </trkpt>
      <trkpt lat="44.30881" lon="5.72362">
        <ele>694.5</ele>
        <time>2021-09-08T08:10:00Z</time>
      </trkpt>
      <trkpt lat="44.30881" lon="5.72362">
        <ele>694.5</ele>
        <time>2021-09-08T08:10:01Z</time>
      </trkpt>
      <trkpt lat="44.30881" lon="5.72362">
        <ele>694.6</ele>
        <time>2021-09-08T08:10:02Z</time>
      </trkpt>
      <trkpt lat="44.30881" lon="5.72362">
        <ele>694.6</ele>
        <time>2021-09-08T08:10:04Z</time>
      </trkpt>
      <trkpt lat="44.30881" lon="5.72362">
        <ele>694.6</ele>
        <time>2021-09-08T08:10:05Z</time>
      </trkpt>
      <trkpt lat="44.3088" lon="5.72362">
        <ele>694.6</ele>
        <time>2021-09-08T08:10:06Z</time>
      </trkpt>
      <trkpt lat="44.30878" lon="5.72361">
        <ele>694.8</ele>
        <time>2021-09-08T08:10:07Z</time>
      </trkpt>
      <trkpt lat="44.30876" lon="5.72361">
        <ele>694.9</ele>
        <time>2021-09-08T08:10:08Z</time>
      </trkpt>
      <trkpt lat="44.30875" lon="5.72362">
        <ele>695</ele>
        <time>2021-09-08T08:10:09Z</time>
      </trkpt>
      <trkpt lat="44.30874" lon="5.72362">
        <ele>695.1</ele>
        <time>2021-09-08T08:10:10Z</time>
      </trkpt>
      <trkpt lat="44.30861" lon="5.7236">
        <ele>695.9</ele>
        <time>2021-09-08T08:10:17Z</time>
      </trkpt>
      <trkpt lat="44.30857" lon="5.7236">
        <ele>696.3</ele>
        <time>2021-09-08T08:10:19Z</time>
      </trkpt>
      <trkpt lat="44.30855" lon="5.7236">
        <ele>696.4</ele>
        <time>2021-09-08T08:10:20Z</time>
      </trkpt>
      <trkpt lat="44.30854" lon="5.7236">
        <ele>696.5</ele>
        <time>2021-09-08T08:10:21Z</time>
      </trkpt>
      <trkpt lat="44.30851" lon="5.7236">
        <ele>696.7</ele>
        <time>2021-09-08T08:10:23Z</time>
      </trkpt>
      <trkpt lat="44.3085" lon="5.7236">
        <ele>696.8</ele>
        <time>2021-09-08T08:10:24Z</time>
      </trkpt>
      <trkpt lat="44.30848" lon="5.72359">
        <ele>697</ele>
        <time>2021-09-08T08:10:25Z</time>
      </trkpt>
      <trkpt lat="44.30847" lon="5.72359">
        <ele>697.1</ele>
        <time>2021-09-08T08:10:27Z</time>
      </trkpt>
      <trkpt lat="44.30846" lon="5.72358">
        <ele>697.1</ele>
        <time>2021-09-08T08:10:28Z</time>
      </trkpt>
      <trkpt lat="44.30844" lon="5.72358">
        <ele>697.2</ele>
        <time>2021-09-08T08:10:29Z</time>
      </trkpt>
      <trkpt lat="44.30843" lon="5.72357">
        <ele>697.3</ele>
        <time>2021-09-08T08:10:31Z</time>
      </trkpt>
      <trkpt lat="44.30842" lon="5.72356">
        <ele>697.4</ele>
        <time>2021-09-08T08:10:32Z</time>
      </trkpt>
      <trkpt lat="44.30841" lon="5.72356">
        <ele>697.5</ele>
        <time>2021-09-08T08:10:33Z</time>
      </trkpt>
      <trkpt lat="44.3084" lon="5.72355">
        <ele>697.6</ele>
        <time>2021-09-08T08:10:34Z</time>
      </trkpt>
      <trkpt lat="44.30839" lon="5.72355">
        <ele>697.7</ele>
        <time>2021-09-08T08:10:35Z</time>
      </trkpt>
      <trkpt lat="44.30838" lon="5.72354">
        <ele>697.8</ele>
        <time>2021-09-08T08:10:43Z</time>
      </trkpt>
      <trkpt lat="44.30837" lon="5.72354">
        <ele>697.9</ele>
        <time>2021-09-08T08:10:44Z</time>
      </trkpt>
      <trkpt lat="44.30831" lon="5.72354">
        <ele>698.4</ele>
        <time>2021-09-08T08:10:46Z</time>
      </trkpt>
      <trkpt lat="44.30827" lon="5.72354">
        <ele>698.7</ele>
        <time>2021-09-08T08:10:47Z</time>
      </trkpt>
      <trkpt lat="44.30826" lon="5.72354">
        <ele>698.8</ele>
        <time>2021-09-08T08:10:48Z</time>
      </trkpt>
      <trkpt lat="44.30823" lon="5.72354">
        <ele>699</ele>
        <time>2021-09-08T08:10:49Z</time>
      </trkpt>
      <trkpt lat="44.30821" lon="5.72353">
        <ele>699.2</ele>
        <time>2021-09-08T08:10:50Z</time>
      </trkpt>
      <trkpt lat="44.30821" lon="5.72353">
        <ele>699.2</ele>
        <time>2021-09-08T08:10:51Z</time>
      </trkpt>
      <trkpt lat="44.3082" lon="5.72352">
        <ele>699.3</ele>
        <time>2021-09-08T08:10:52Z</time>
      </trkpt>
      <trkpt lat="44.30818" lon="5.72351">
        <ele>699.4</ele>
        <time>2021-09-08T08:10:53Z</time>
      </trkpt>
      <trkpt lat="44.30816" lon="5.72349">
        <ele>699.7</ele>
        <time>2021-09-08T08:10:55Z</time>
      </trkpt>
      <trkpt lat="44.30814" lon="5.72348">
        <ele>699.8</ele>
        <time>2021-09-08T08:10:56Z</time>
      </trkpt>
      <trkpt lat="44.30811" lon="5.72347">
        <ele>700.1</ele>
        <time>2021-09-08T08:10:58Z</time>
      </trkpt>
      <trkpt lat="44.30808" lon="5.72346">
        <ele>700.3</ele>
        <time>2021-09-08T08:10:59Z</time>
      </trkpt>
      <trkpt lat="44.30807" lon="5.72345">
        <ele>700.4</ele>
        <time>2021-09-08T08:11:00Z</time>
      </trkpt>
      <trkpt lat="44.30804" lon="5.72344">
        <ele>700.7</ele>
        <time>2021-09-08T08:11:01Z</time>
      </trkpt>
      <trkpt lat="44.30803" lon="5.72344">
        <ele>700.8</ele>
        <time>2021-09-08T08:11:02Z</time>
      </trkpt>
      <trkpt lat="44.308" lon="5.72344">
        <ele>701</ele>
        <time>2021-09-08T08:11:03Z</time>
      </trkpt>
      <trkpt lat="44.30799" lon="5.72344">
        <ele>701.1</ele>
        <time>2021-09-08T08:11:04Z</time>
      </trkpt>
      <trkpt lat="44.30798" lon="5.72344">
        <ele>701.1</ele>
        <time>2021-09-08T08:11:05Z</time>
      </trkpt>
      <trkpt lat="44.30799" lon="5.72344">
        <ele>701.2</ele>
        <time>2021-09-08T08:11:07Z</time>
      </trkpt>
      <trkpt lat="44.30796" lon="5.72343">
        <ele>701.5</ele>
        <time>2021-09-08T08:11:09Z</time>
      </trkpt>
      <trkpt lat="44.30794" lon="5.72343">
        <ele>701.7</ele>
        <time>2021-09-08T08:11:11Z</time>
      </trkpt>
      <trkpt lat="44.30792" lon="5.7234">
        <ele>701.9</ele>
        <time>2021-09-08T08:11:13Z</time>
      </trkpt>
      <trkpt lat="44.30792" lon="5.7234">
        <ele>701.9</ele>
        <time>2021-09-08T08:11:15Z</time>
      </trkpt>
      <trkpt lat="44.3079" lon="5.72339">
        <ele>702</ele>
        <time>2021-09-08T08:11:16Z</time>
      </trkpt>
      <trkpt lat="44.3079" lon="5.72339">
        <ele>702</ele>
        <time>2021-09-08T08:11:17Z</time>
      </trkpt>
      <trkpt lat="44.3079" lon="5.7234">
        <ele>702</ele>
        <time>2021-09-08T08:11:18Z</time>
      </trkpt>
      <trkpt lat="44.3079" lon="5.7234">
        <ele>702.1</ele>
        <time>2021-09-08T08:11:19Z</time>
      </trkpt>
      <trkpt lat="44.30789" lon="5.7234">
        <ele>702.2</ele>
        <time>2021-09-08T08:11:20Z</time>
      </trkpt>
      <trkpt lat="44.30784" lon="5.7234">
        <ele>702.5</ele>
        <time>2021-09-08T08:11:22Z</time>
      </trkpt>
      <trkpt lat="44.30783" lon="5.7234">
        <ele>702.6</ele>
        <time>2021-09-08T08:11:23Z</time>
      </trkpt>
      <trkpt lat="44.30781" lon="5.7234">
        <ele>702.7</ele>
        <time>2021-09-08T08:11:24Z</time>
      </trkpt>
      <trkpt lat="44.30779" lon="5.72339">
        <ele>702.9</ele>
        <time>2021-09-08T08:11:26Z</time>
      </trkpt>
      <trkpt lat="44.30778" lon="5.72339">
        <ele>703</ele>
        <time>2021-09-08T08:11:28Z</time>
      </trkpt>
      <trkpt lat="44.30777" lon="5.72339">
        <ele>703.1</ele>
        <time>2021-09-08T08:11:29Z</time>
      </trkpt>
      <trkpt lat="44.30775" lon="5.72338">
        <ele>703.3</ele>
        <time>2021-09-08T08:11:31Z</time>
      </trkpt>
      <trkpt lat="44.30774" lon="5.72338">
        <ele>703.4</ele>
        <time>2021-09-08T08:11:32Z</time>
      </trkpt>
      <trkpt lat="44.30773" lon="5.72337">
        <ele>703.4</ele>
        <time>2021-09-08T08:11:34Z</time>
      </trkpt>
      <trkpt lat="44.30772" lon="5.72337">
        <ele>703.5</ele>
        <time>2021-09-08T08:11:35Z</time>
      </trkpt>
      <trkpt lat="44.30768" lon="5.72336">
        <ele>703.8</ele>
        <time>2021-09-08T08:11:37Z</time>
      </trkpt>
      <trkpt lat="44.30767" lon="5.72336">
        <ele>703.9</ele>
        <time>2021-09-08T08:11:38Z</time>
      </trkpt>
      <trkpt lat="44.30765" lon="5.72336">
        <ele>704</ele>
        <time>2021-09-08T08:11:39Z</time>
      </trkpt>
      <trkpt lat="44.30764" lon="5.72336">
        <ele>704.1</ele>
        <time>2021-09-08T08:11:40Z</time>
      </trkpt>
      <trkpt lat="44.30764" lon="5.72337">
        <ele>704.2</ele>
        <time>2021-09-08T08:11:41Z</time>
      </trkpt>
      <trkpt lat="44.30761" lon="5.72337">
        <ele>704.4</ele>
        <time>2021-09-08T08:11:43Z</time>
      </trkpt>
      <trkpt lat="44.30759" lon="5.72337">
        <ele>704.5</ele>
        <time>2021-09-08T08:11:44Z</time>
      </trkpt>
      <trkpt lat="44.30758" lon="5.72337">
        <ele>704.6</ele>
        <time>2021-09-08T08:11:45Z</time>
      </trkpt>
      <trkpt lat="44.30754" lon="5.72336">
        <ele>704.9</ele>
        <time>2021-09-08T08:11:46Z</time>
      </trkpt>
      <trkpt lat="44.30754" lon="5.72336">
        <ele>704.9</ele>
        <time>2021-09-08T08:11:47Z</time>
      </trkpt>
      <trkpt lat="44.30752" lon="5.72337">
        <ele>705.1</ele>
        <time>2021-09-08T08:11:49Z</time>
      </trkpt>
      <trkpt lat="44.3075" lon="5.72337">
        <ele>705.2</ele>
        <time>2021-09-08T08:11:50Z</time>
      </trkpt>
      <trkpt lat="44.30749" lon="5.72336">
        <ele>705.3</ele>
        <time>2021-09-08T08:11:51Z</time>
      </trkpt>
      <trkpt lat="44.30747" lon="5.72335">
        <ele>705.5</ele>
        <time>2021-09-08T08:11:52Z</time>
      </trkpt>
      <trkpt lat="44.30745" lon="5.72335">
        <ele>705.6</ele>
        <time>2021-09-08T08:11:53Z</time>
      </trkpt>
      <trkpt lat="44.30744" lon="5.72334">
        <ele>705.7</ele>
        <time>2021-09-08T08:11:54Z</time>
      </trkpt>
      <trkpt lat="44.30741" lon="5.72334">
        <ele>705.9</ele>
        <time>2021-09-08T08:11:55Z</time>
      </trkpt>
      <trkpt lat="44.3074" lon="5.72334">
        <ele>706</ele>
        <time>2021-09-08T08:11:56Z</time>
      </trkpt>
      <trkpt lat="44.30738" lon="5.72334">
        <ele>706.2</ele>
        <time>2021-09-08T08:11:57Z</time>
      </trkpt>
      <trkpt lat="44.30735" lon="5.72334">
        <ele>706.4</ele>
        <time>2021-09-08T08:11:58Z</time>
      </trkpt>
      <trkpt lat="44.30731" lon="5.72334">
        <ele>706.7</ele>
        <time>2021-09-08T08:11:59Z</time>
      </trkpt>
      <trkpt lat="44.3073" lon="5.72335">
        <ele>706.8</ele>
        <time>2021-09-08T08:12:00Z</time>
      </trkpt>
      <trkpt lat="44.30729" lon="5.72335">
        <ele>706.9</ele>
        <time>2021-09-08T08:12:01Z</time>
      </trkpt>
      <trkpt lat="44.30727" lon="5.72334">
        <ele>707</ele>
        <time>2021-09-08T08:12:03Z</time>
      </trkpt>
      <trkpt lat="44.30726" lon="5.72334">
        <ele>707.1</ele>
        <time>2021-09-08T08:12:04Z</time>
      </trkpt>
      <trkpt lat="44.30724" lon="5.72332">
        <ele>707.3</ele>
        <time>2021-09-08T08:12:05Z</time>
      </trkpt>
      <trkpt lat="44.30722" lon="5.72331">
        <ele>707.4</ele>
        <time>2021-09-08T08:12:06Z</time>
      </trkpt>
      <trkpt lat="44.30722" lon="5.7233">
        <ele>707.5</ele>
        <time>2021-09-08T08:12:07Z</time>
      </trkpt>
      <trkpt lat="44.30721" lon="5.7233">
        <ele>707.6</ele>
        <time>2021-09-08T08:12:08Z</time>
      </trkpt>
      <trkpt lat="44.3072" lon="5.72329">
        <ele>707.7</ele>
        <time>2021-09-08T08:12:09Z</time>
      </trkpt>
      <trkpt lat="44.30718" lon="5.72329">
        <ele>707.8</ele>
        <time>2021-09-08T08:12:10Z</time>
      </trkpt>
      <trkpt lat="44.30717" lon="5.72328">
        <ele>707.9</ele>
        <time>2021-09-08T08:12:11Z</time>
      </trkpt>
      <trkpt lat="44.30715" lon="5.72328">
        <ele>708</ele>
        <time>2021-09-08T08:12:12Z</time>
      </trkpt>
      <trkpt lat="44.30713" lon="5.72327">
        <ele>708.2</ele>
        <time>2021-09-08T08:12:13Z</time>
      </trkpt>
      <trkpt lat="44.30711" lon="5.72327">
        <ele>708.3</ele>
        <time>2021-09-08T08:12:14Z</time>
      </trkpt>
      <trkpt lat="44.30709" lon="5.72326">
        <ele>708.5</ele>
        <time>2021-09-08T08:12:15Z</time>
      </trkpt>
      <trkpt lat="44.30707" lon="5.72325">
        <ele>708.7</ele>
        <time>2021-09-08T08:12:17Z</time>
      </trkpt>
      <trkpt lat="44.30704" lon="5.72322">
        <ele>709.9</ele>
        <time>2021-09-08T08:12:18Z</time>
      </trkpt>
      <trkpt lat="44.30704" lon="5.72322">
        <ele>710</ele>
        <time>2021-09-08T08:12:19Z</time>
      </trkpt>
      <trkpt lat="44.30701" lon="5.72319">
        <ele>710.2</ele>
        <time>2021-09-08T08:12:21Z</time>
      </trkpt>
      <trkpt lat="44.307" lon="5.72318">
        <ele>710.3</ele>
        <time>2021-09-08T08:12:22Z</time>
      </trkpt>
      <trkpt lat="44.30699" lon="5.72316">
        <ele>710.4</ele>
        <time>2021-09-08T08:12:23Z</time>
      </trkpt>
      <trkpt lat="44.30698" lon="5.7231">
        <ele>710.7</ele>
        <time>2021-09-08T08:12:25Z</time>
      </trkpt>
      <trkpt lat="44.30697" lon="5.72308">
        <ele>710.7</ele>
        <time>2021-09-08T08:12:26Z</time>
      </trkpt>
      <trkpt lat="44.30694" lon="5.72306">
        <ele>710.9</ele>
        <time>2021-09-08T08:12:28Z</time>
      </trkpt>
      <trkpt lat="44.30693" lon="5.72304">
        <ele>711</ele>
        <time>2021-09-08T08:12:30Z</time>
      </trkpt>
      <trkpt lat="44.30692" lon="5.72302">
        <ele>711</ele>
        <time>2021-09-08T08:12:31Z</time>
      </trkpt>
      <trkpt lat="44.30692" lon="5.72298">
        <ele>711.2</ele>
        <time>2021-09-08T08:12:33Z</time>
      </trkpt>
      <trkpt lat="44.30691" lon="5.72296">
        <ele>711.2</ele>
        <time>2021-09-08T08:12:34Z</time>
      </trkpt>
      <trkpt lat="44.3069" lon="5.72293">
        <ele>711.3</ele>
        <time>2021-09-08T08:12:35Z</time>
      </trkpt>
      <trkpt lat="44.30689" lon="5.72289">
        <ele>711.4</ele>
        <time>2021-09-08T08:12:37Z</time>
      </trkpt>
      <trkpt lat="44.30688" lon="5.72284">
        <ele>711.5</ele>
        <time>2021-09-08T08:12:38Z</time>
      </trkpt>
      <trkpt lat="44.30688" lon="5.7228">
        <ele>711.5</ele>
        <time>2021-09-08T08:12:39Z</time>
      </trkpt>
      <trkpt lat="44.30688" lon="5.72275">
        <ele>711.6</ele>
        <time>2021-09-08T08:12:40Z</time>
      </trkpt>
      <trkpt lat="44.30688" lon="5.72273">
        <ele>711.6</ele>
        <time>2021-09-08T08:12:41Z</time>
      </trkpt>
      <trkpt lat="44.30689" lon="5.72266">
        <ele>711.7</ele>
        <time>2021-09-08T08:12:43Z</time>
      </trkpt>
      <trkpt lat="44.30689" lon="5.72264">
        <ele>711.7</ele>
        <time>2021-09-08T08:12:44Z</time>
      </trkpt>
      <trkpt lat="44.30689" lon="5.72262">
        <ele>711.8</ele>
        <time>2021-09-08T08:12:45Z</time>
      </trkpt>
      <trkpt lat="44.30687" lon="5.72256">
        <ele>711.8</ele>
        <time>2021-09-08T08:12:47Z</time>
      </trkpt>
      <trkpt lat="44.30687" lon="5.72254">
        <ele>711.9</ele>
        <time>2021-09-08T08:12:48Z</time>
      </trkpt>
      <trkpt lat="44.30686" lon="5.72251">
        <ele>711.9</ele>
        <time>2021-09-08T08:12:49Z</time>
      </trkpt>
      <trkpt lat="44.30683" lon="5.72246">
        <ele>711.9</ele>
        <time>2021-09-08T08:12:51Z</time>
      </trkpt>
      <trkpt lat="44.30681" lon="5.72242">
        <ele>712</ele>
        <time>2021-09-08T08:12:52Z</time>
      </trkpt>
      <trkpt lat="44.30678" lon="5.72239">
        <ele>712</ele>
        <time>2021-09-08T08:12:53Z</time>
      </trkpt>
      <trkpt lat="44.30674" lon="5.72233">
        <ele>712.1</ele>
        <time>2021-09-08T08:12:55Z</time>
      </trkpt>
      <trkpt lat="44.30671" lon="5.72229">
        <ele>712.1</ele>
        <time>2021-09-08T08:12:56Z</time>
      </trkpt>
      <trkpt lat="44.30668" lon="5.72225">
        <ele>712.2</ele>
        <time>2021-09-08T08:12:57Z</time>
      </trkpt>
      <trkpt lat="44.30666" lon="5.72222">
        <ele>712.2</ele>
        <time>2021-09-08T08:12:58Z</time>
      </trkpt>
      <trkpt lat="44.30664" lon="5.72219">
        <ele>712.3</ele>
        <time>2021-09-08T08:12:59Z</time>
      </trkpt>
      <trkpt lat="44.30662" lon="5.72214">
        <ele>712.3</ele>
        <time>2021-09-08T08:13:01Z</time>
      </trkpt>
      <trkpt lat="44.30658" lon="5.7221">
        <ele>712.4</ele>
        <time>2021-09-08T08:13:02Z</time>
      </trkpt>
      <trkpt lat="44.30655" lon="5.72208">
        <ele>712.4</ele>
        <time>2021-09-08T08:13:04Z</time>
      </trkpt>
      <trkpt lat="44.30652" lon="5.72206">
        <ele>712.4</ele>
        <time>2021-09-08T08:13:05Z</time>
      </trkpt>
      <trkpt lat="44.30649" lon="5.72203">
        <ele>712.5</ele>
        <time>2021-09-08T08:13:06Z</time>
      </trkpt>
      <trkpt lat="44.30648" lon="5.72202">
        <ele>712.5</ele>
        <time>2021-09-08T08:13:07Z</time>
      </trkpt>
      <trkpt lat="44.30644" lon="5.72199">
        <ele>712.5</ele>
        <time>2021-09-08T08:13:08Z</time>
      </trkpt>
      <trkpt lat="44.30643" lon="5.72198">
        <ele>712.6</ele>
        <time>2021-09-08T08:13:09Z</time>
      </trkpt>
      <trkpt lat="44.3064" lon="5.72195">
        <ele>712.6</ele>
        <time>2021-09-08T08:13:10Z</time>
      </trkpt>
      <trkpt lat="44.30639" lon="5.72194">
        <ele>712.6</ele>
        <time>2021-09-08T08:13:11Z</time>
      </trkpt>
      <trkpt lat="44.30635" lon="5.72192">
        <ele>712.7</ele>
        <time>2021-09-08T08:13:13Z</time>
      </trkpt>
      <trkpt lat="44.30633" lon="5.72189">
        <ele>712.7</ele>
        <time>2021-09-08T08:13:14Z</time>
      </trkpt>
      <trkpt lat="44.3063" lon="5.72185">
        <ele>712.8</ele>
        <time>2021-09-08T08:13:15Z</time>
      </trkpt>
      <trkpt lat="44.30627" lon="5.72183">
        <ele>712.8</ele>
        <time>2021-09-08T08:13:16Z</time>
      </trkpt>
      <trkpt lat="44.30624" lon="5.72179">
        <ele>712.9</ele>
        <time>2021-09-08T08:13:18Z</time>
      </trkpt>
      <trkpt lat="44.3062" lon="5.72176">
        <ele>712.9</ele>
        <time>2021-09-08T08:13:19Z</time>
      </trkpt>
      <trkpt lat="44.30617" lon="5.72173">
        <ele>713</ele>
        <time>2021-09-08T08:13:20Z</time>
      </trkpt>
      <trkpt lat="44.30614" lon="5.72171">
        <ele>713</ele>
        <time>2021-09-08T08:13:21Z</time>
      </trkpt>
      <trkpt lat="44.30609" lon="5.72167">
        <ele>713.2</ele>
        <time>2021-09-08T08:13:23Z</time>
      </trkpt>
      <trkpt lat="44.30605" lon="5.72165">
        <ele>713.2</ele>
        <time>2021-09-08T08:13:24Z</time>
      </trkpt>
      <trkpt lat="44.306" lon="5.72161">
        <ele>713.3</ele>
        <time>2021-09-08T08:13:26Z</time>
      </trkpt>
      <trkpt lat="44.30594" lon="5.72157">
        <ele>713.4</ele>
        <time>2021-09-08T08:13:28Z</time>
      </trkpt>
      <trkpt lat="44.30591" lon="5.72155">
        <ele>713.5</ele>
        <time>2021-09-08T08:13:29Z</time>
      </trkpt>
      <trkpt lat="44.30588" lon="5.72153">
        <ele>713.5</ele>
        <time>2021-09-08T08:13:30Z</time>
      </trkpt>
      <trkpt lat="44.30586" lon="5.72151">
        <ele>713.6</ele>
        <time>2021-09-08T08:13:31Z</time>
      </trkpt>
      <trkpt lat="44.30583" lon="5.72149">
        <ele>713.6</ele>
        <time>2021-09-08T08:13:33Z</time>
      </trkpt>
      <trkpt lat="44.30579" lon="5.72148">
        <ele>713.7</ele>
        <time>2021-09-08T08:13:34Z</time>
      </trkpt>
      <trkpt lat="44.30573" lon="5.72148">
        <ele>713.8</ele>
        <time>2021-09-08T08:13:36Z</time>
      </trkpt>
      <trkpt lat="44.3057" lon="5.72148">
        <ele>713.9</ele>
        <time>2021-09-08T08:13:37Z</time>
      </trkpt>
      <trkpt lat="44.30564" lon="5.72149">
        <ele>714</ele>
        <time>2021-09-08T08:13:39Z</time>
      </trkpt>
      <trkpt lat="44.3056" lon="5.7215">
        <ele>714</ele>
        <time>2021-09-08T08:13:40Z</time>
      </trkpt>
      <trkpt lat="44.30556" lon="5.72151">
        <ele>714.1</ele>
        <time>2021-09-08T08:13:41Z</time>
      </trkpt>
      <trkpt lat="44.30553" lon="5.72152">
        <ele>714.1</ele>
        <time>2021-09-08T08:13:42Z</time>
      </trkpt>
      <trkpt lat="44.30551" lon="5.72154">
        <ele>714.1</ele>
        <time>2021-09-08T08:13:43Z</time>
      </trkpt>
      <trkpt lat="44.30546" lon="5.72158">
        <ele>714.1</ele>
        <time>2021-09-08T08:13:45Z</time>
      </trkpt>
      <trkpt lat="44.30543" lon="5.72162">
        <ele>714</ele>
        <time>2021-09-08T08:13:46Z</time>
      </trkpt>
      <trkpt lat="44.30539" lon="5.72166">
        <ele>713.9</ele>
        <time>2021-09-08T08:13:48Z</time>
      </trkpt>
      <trkpt lat="44.30534" lon="5.72174">
        <ele>713.8</ele>
        <time>2021-09-08T08:13:49Z</time>
      </trkpt>
      <trkpt lat="44.30527" lon="5.72184">
        <ele>713.6</ele>
        <time>2021-09-08T08:13:51Z</time>
      </trkpt>
      <trkpt lat="44.30522" lon="5.7219">
        <ele>713.5</ele>
        <time>2021-09-08T08:13:53Z</time>
      </trkpt>
      <trkpt lat="44.30517" lon="5.72193">
        <ele>713.5</ele>
        <time>2021-09-08T08:13:55Z</time>
      </trkpt>
      <trkpt lat="44.30512" lon="5.72194">
        <ele>713.5</ele>
        <time>2021-09-08T08:13:56Z</time>
      </trkpt>
      <trkpt lat="44.30509" lon="5.72191">
        <ele>713.5</ele>
        <time>2021-09-08T08:13:57Z</time>
      </trkpt>
      <trkpt lat="44.30505" lon="5.72189">
        <ele>713.5</ele>
        <time>2021-09-08T08:13:58Z</time>
      </trkpt>
      <trkpt lat="44.30502" lon="5.72188">
        <ele>713.5</ele>
        <time>2021-09-08T08:13:59Z</time>
      </trkpt>
      <trkpt lat="44.30497" lon="5.72186">
        <ele>713.5</ele>
        <time>2021-09-08T08:14:01Z</time>
      </trkpt>
      <trkpt lat="44.30493" lon="5.72185">
        <ele>713.5</ele>
        <time>2021-09-08T08:14:02Z</time>
      </trkpt>
      <trkpt lat="44.30487" lon="5.72187">
        <ele>713.5</ele>
        <time>2021-09-08T08:14:03Z</time>
      </trkpt>
      <trkpt lat="44.30483" lon="5.72188">
        <ele>713.5</ele>
        <time>2021-09-08T08:14:04Z</time>
      </trkpt>
      <trkpt lat="44.3048" lon="5.72189">
        <ele>714.4</ele>
        <time>2021-09-08T08:14:05Z</time>
      </trkpt>
      <trkpt lat="44.30478" lon="5.72194">
        <ele>714.6</ele>
        <time>2021-09-08T08:14:07Z</time>
      </trkpt>
      <trkpt lat="44.30478" lon="5.72199">
        <ele>714.8</ele>
        <time>2021-09-08T08:14:08Z</time>
      </trkpt>
      <trkpt lat="44.30477" lon="5.72203">
        <ele>715</ele>
        <time>2021-09-08T08:14:10Z</time>
      </trkpt>
      <trkpt lat="44.30476" lon="5.72208">
        <ele>715.3</ele>
        <time>2021-09-08T08:14:11Z</time>
      </trkpt>
      <trkpt lat="44.30475" lon="5.72212">
        <ele>715.4</ele>
        <time>2021-09-08T08:14:12Z</time>
      </trkpt>
      <trkpt lat="44.30473" lon="5.72217">
        <ele>715.6</ele>
        <time>2021-09-08T08:14:13Z</time>
      </trkpt>
      <trkpt lat="44.3047" lon="5.72226">
        <ele>716.1</ele>
        <time>2021-09-08T08:14:15Z</time>
      </trkpt>
      <trkpt lat="44.30468" lon="5.72231">
        <ele>716.2</ele>
        <time>2021-09-08T08:14:16Z</time>
      </trkpt>
      <trkpt lat="44.30473" lon="5.72233">
        <ele>716.5</ele>
        <time>2021-09-08T08:14:18Z</time>
      </trkpt>
      <trkpt lat="44.30476" lon="5.72235">
        <ele>716.6</ele>
        <time>2021-09-08T08:14:19Z</time>
      </trkpt>
      <trkpt lat="44.30477" lon="5.72238">
        <ele>716.8</ele>
        <time>2021-09-08T08:14:20Z</time>
      </trkpt>
      <trkpt lat="44.30478" lon="5.72242">
        <ele>717</ele>
        <time>2021-09-08T08:14:22Z</time>
      </trkpt>
      <trkpt lat="44.30478" lon="5.72244">
        <ele>717</ele>
        <time>2021-09-08T08:14:23Z</time>
      </trkpt>
      <trkpt lat="44.30479" lon="5.72245">
        <ele>717.1</ele>
        <time>2021-09-08T08:14:25Z</time>
      </trkpt>
      <trkpt lat="44.3055" lon="5.72255">
        <ele>724.8</ele>
        <time>2021-09-08T08:19:06Z</time>
      </trkpt>
      <trkpt lat="44.30552" lon="5.72255">
        <ele>725</ele>
        <time>2021-09-08T08:19:07Z</time>
      </trkpt>
      <trkpt lat="44.30551" lon="5.72255">
        <ele>725.1</ele>
        <time>2021-09-08T08:19:09Z</time>
      </trkpt>
      <trkpt lat="44.30551" lon="5.72254">
        <ele>725.1</ele>
        <time>2021-09-08T08:19:10Z</time>
      </trkpt>
      <trkpt lat="44.30548" lon="5.72254">
        <ele>725.4</ele>
        <time>2021-09-08T08:19:12Z</time>
      </trkpt>
      <trkpt lat="44.30548" lon="5.72254">
        <ele>725.4</ele>
        <time>2021-09-08T08:19:13Z</time>
      </trkpt>
      <trkpt lat="44.30547" lon="5.72255">
        <ele>725.5</ele>
        <time>2021-09-08T08:19:15Z</time>
      </trkpt>
      <trkpt lat="44.30547" lon="5.72255">
        <ele>725.5</ele>
        <time>2021-09-08T08:19:16Z</time>
      </trkpt>
      <trkpt lat="44.30547" lon="5.72255">
        <ele>725.5</ele>
        <time>2021-09-08T08:19:19Z</time>
      </trkpt>
      <trkpt lat="44.30482" lon="5.72311">
        <ele>732.1</ele>
        <time>2021-09-08T08:23:20Z</time>
      </trkpt>
      <trkpt lat="44.30479" lon="5.72314">
        <ele>732.4</ele>
        <time>2021-09-08T08:23:22Z</time>
      </trkpt>
      <trkpt lat="44.30477" lon="5.72316">
        <ele>732.5</ele>
        <time>2021-09-08T08:23:23Z</time>
      </trkpt>
      <trkpt lat="44.30475" lon="5.72319">
        <ele>732.7</ele>
        <time>2021-09-08T08:23:25Z</time>
      </trkpt>
      <trkpt lat="44.30475" lon="5.72319">
        <ele>732.8</ele>
        <time>2021-09-08T08:23:26Z</time>
      </trkpt>
      <trkpt lat="44.30475" lon="5.72319">
        <ele>732.8</ele>
        <time>2021-09-08T08:23:27Z</time>
      </trkpt>
      <trkpt lat="44.30475" lon="5.72319">
        <ele>732.8</ele>
        <time>2021-09-08T08:23:28Z</time>
      </trkpt>
      <trkpt lat="44.30475" lon="5.7232">
        <ele>732.8</ele>
        <time>2021-09-08T08:23:29Z</time>
      </trkpt>
      <trkpt lat="44.30475" lon="5.7232">
        <ele>732.8</ele>
        <time>2021-09-08T08:23:31Z</time>
      </trkpt>
      <trkpt lat="44.30475" lon="5.7232">
        <ele>732.8</ele>
        <time>2021-09-08T08:23:32Z</time>
      </trkpt>
      <trkpt lat="44.30475" lon="5.7232">
        <ele>732.9</ele>
        <time>2021-09-08T08:23:34Z</time>
      </trkpt>
      <trkpt lat="44.30469" lon="5.72347">
        <ele>734.4</ele>
        <time>2021-09-08T08:23:49Z</time>
      </trkpt>
      <trkpt lat="44.30467" lon="5.72353">
        <ele>734.8</ele>
        <time>2021-09-08T08:23:51Z</time>
      </trkpt>
      <trkpt lat="44.30466" lon="5.72357">
        <ele>735</ele>
        <time>2021-09-08T08:23:52Z</time>
      </trkpt>
      <trkpt lat="44.30466" lon="5.72362">
        <ele>735.3</ele>
        <time>2021-09-08T08:23:53Z</time>
      </trkpt>
      <trkpt lat="44.30466" lon="5.72366">
        <ele>735.5</ele>
        <time>2021-09-08T08:23:54Z</time>
      </trkpt>
      <trkpt lat="44.30465" lon="5.72367">
        <ele>735.6</ele>
        <time>2021-09-08T08:23:55Z</time>
      </trkpt>
      <trkpt lat="44.30462" lon="5.72372">
        <ele>735.9</ele>
        <time>2021-09-08T08:23:57Z</time>
      </trkpt>
      <trkpt lat="44.3046" lon="5.72375">
        <ele>736.2</ele>
        <time>2021-09-08T08:23:58Z</time>
      </trkpt>
      <trkpt lat="44.30458" lon="5.72377">
        <ele>736.3</ele>
        <time>2021-09-08T08:23:59Z</time>
      </trkpt>
      <trkpt lat="44.30458" lon="5.72378">
        <ele>736.4</ele>
        <time>2021-09-08T08:24:01Z</time>
      </trkpt>
      <trkpt lat="44.3046" lon="5.72381">
        <ele>736.6</ele>
        <time>2021-09-08T08:24:02Z</time>
      </trkpt>
      <trkpt lat="44.30461" lon="5.72383">
        <ele>736.7</ele>
        <time>2021-09-08T08:24:03Z</time>
      </trkpt>
      <trkpt lat="44.30461" lon="5.72384">
        <ele>736.8</ele>
        <time>2021-09-08T08:24:04Z</time>
      </trkpt>
      <trkpt lat="44.30461" lon="5.72386">
        <ele>736.9</ele>
        <time>2021-09-08T08:24:06Z</time>
      </trkpt>
      <trkpt lat="44.30461" lon="5.72387">
        <ele>737</ele>
        <time>2021-09-08T08:24:07Z</time>
      </trkpt>
      <trkpt lat="44.3046" lon="5.7239">
        <ele>737.1</ele>
        <time>2021-09-08T08:24:09Z</time>
      </trkpt>
      <trkpt lat="44.30441" lon="5.72414">
        <ele>739.7</ele>
        <time>2021-09-08T08:24:44Z</time>
      </trkpt>
      <trkpt lat="44.30439" lon="5.72409">
        <ele>740.1</ele>
        <time>2021-09-08T08:24:45Z</time>
      </trkpt>
      <trkpt lat="44.30438" lon="5.72405">
        <ele>740.4</ele>
        <time>2021-09-08T08:24:46Z</time>
      </trkpt>
      <trkpt lat="44.30438" lon="5.72401">
        <ele>740.7</ele>
        <time>2021-09-08T08:24:47Z</time>
      </trkpt>
      <trkpt lat="44.30438" lon="5.72394">
        <ele>741.1</ele>
        <time>2021-09-08T08:24:49Z</time>
      </trkpt>
      <trkpt lat="44.30438" lon="5.72388">
        <ele>741.5</ele>
        <time>2021-09-08T08:24:51Z</time>
      </trkpt>
      <trkpt lat="44.30438" lon="5.72385">
        <ele>741.7</ele>
        <time>2021-09-08T08:24:52Z</time>
      </trkpt>
      <trkpt lat="44.30439" lon="5.72383">
        <ele>741.8</ele>
        <time>2021-09-08T08:24:53Z</time>
      </trkpt>
      <trkpt lat="44.30439" lon="5.72383">
        <ele>741.8</ele>
        <time>2021-09-08T08:24:55Z</time>
      </trkpt>
      <trkpt lat="44.30438" lon="5.72385">
        <ele>741.9</ele>
        <time>2021-09-08T08:24:56Z</time>
      </trkpt>
      <trkpt lat="44.30438" lon="5.72385">
        <ele>741.9</ele>
        <time>2021-09-08T08:24:57Z</time>
      </trkpt>
      <trkpt lat="44.30437" lon="5.72384">
        <ele>742</ele>
        <time>2021-09-08T08:24:58Z</time>
      </trkpt>
      <trkpt lat="44.30437" lon="5.72384">
        <ele>742</ele>
        <time>2021-09-08T08:24:59Z</time>
      </trkpt>
      <trkpt lat="44.30437" lon="5.72381">
        <ele>742.2</ele>
        <time>2021-09-08T08:25:01Z</time>
      </trkpt>
      <trkpt lat="44.30437" lon="5.72378">
        <ele>742.4</ele>
        <time>2021-09-08T08:25:03Z</time>
      </trkpt>
      <trkpt lat="44.30439" lon="5.72355">
        <ele>743.8</ele>
        <time>2021-09-08T08:25:13Z</time>
      </trkpt>
      <trkpt lat="44.30439" lon="5.72353">
        <ele>743.9</ele>
        <time>2021-09-08T08:25:14Z</time>
      </trkpt>
      <trkpt lat="44.30439" lon="5.7235">
        <ele>744</ele>
        <time>2021-09-08T08:25:15Z</time>
      </trkpt>
      <trkpt lat="44.30437" lon="5.72345">
        <ele>744.3</ele>
        <time>2021-09-08T08:25:17Z</time>
      </trkpt>
      <trkpt lat="44.30434" lon="5.72342">
        <ele>744.6</ele>
        <time>2021-09-08T08:25:19Z</time>
      </trkpt>
      <trkpt lat="44.30433" lon="5.72343">
        <ele>744.7</ele>
        <time>2021-09-08T08:25:20Z</time>
      </trkpt>
      <trkpt lat="44.30432" lon="5.72344">
        <ele>744.9</ele>
        <time>2021-09-08T08:25:21Z</time>
      </trkpt>
      <trkpt lat="44.3043" lon="5.72344">
        <ele>745</ele>
        <time>2021-09-08T08:25:23Z</time>
      </trkpt>
      <trkpt lat="44.30429" lon="5.72345">
        <ele>745.1</ele>
        <time>2021-09-08T08:25:24Z</time>
      </trkpt>
      <trkpt lat="44.30428" lon="5.72346">
        <ele>745.2</ele>
        <time>2021-09-08T08:25:25Z</time>
      </trkpt>
      <trkpt lat="44.30428" lon="5.72347">
        <ele>745.3</ele>
        <time>2021-09-08T08:25:26Z</time>
      </trkpt>
      <trkpt lat="44.30427" lon="5.72348">
        <ele>745.4</ele>
        <time>2021-09-08T08:25:27Z</time>
      </trkpt>
      <trkpt lat="44.30423" lon="5.72357">
        <ele>746.1</ele>
        <time>2021-09-08T08:25:33Z</time>
      </trkpt>
      <trkpt lat="44.30422" lon="5.72359">
        <ele>746.3</ele>
        <time>2021-09-08T08:25:34Z</time>
      </trkpt>
      <trkpt lat="44.3042" lon="5.72363">
        <ele>746.6</ele>
        <time>2021-09-08T08:25:36Z</time>
      </trkpt>
      <trkpt lat="44.30419" lon="5.72367">
        <ele>747</ele>
        <time>2021-09-08T08:25:37Z</time>
      </trkpt>
      <trkpt lat="44.30419" lon="5.72368">
        <ele>747</ele>
        <time>2021-09-08T08:25:38Z</time>
      </trkpt>
      <trkpt lat="44.30419" lon="5.72375">
        <ele>747.5</ele>
        <time>2021-09-08T08:25:40Z</time>
      </trkpt>
      <trkpt lat="44.30419" lon="5.72377">
        <ele>747.7</ele>
        <time>2021-09-08T08:25:41Z</time>
      </trkpt>
      <trkpt lat="44.30419" lon="5.7238">
        <ele>747.9</ele>
        <time>2021-09-08T08:25:42Z</time>
      </trkpt>
      <trkpt lat="44.30421" lon="5.72385">
        <ele>748.3</ele>
        <time>2021-09-08T08:25:43Z</time>
      </trkpt>
      <trkpt lat="44.30422" lon="5.72387">
        <ele>748.5</ele>
        <time>2021-09-08T08:25:44Z</time>
      </trkpt>
      <trkpt lat="44.30421" lon="5.72391">
        <ele>748.9</ele>
        <time>2021-09-08T08:25:46Z</time>
      </trkpt>
      <trkpt lat="44.3042" lon="5.72393">
        <ele>749.1</ele>
        <time>2021-09-08T08:25:47Z</time>
      </trkpt>
      <trkpt lat="44.3042" lon="5.72394">
        <ele>749.1</ele>
        <time>2021-09-08T08:25:48Z</time>
      </trkpt>
      <trkpt lat="44.30418" lon="5.72399">
        <ele>749.6</ele>
        <time>2021-09-08T08:25:50Z</time>
      </trkpt>
      <trkpt lat="44.30418" lon="5.72401">
        <ele>749.7</ele>
        <time>2021-09-08T08:25:51Z</time>
      </trkpt>
      <trkpt lat="44.30417" lon="5.72402">
        <ele>749.8</ele>
        <time>2021-09-08T08:25:52Z</time>
      </trkpt>
      <trkpt lat="44.30417" lon="5.72402">
        <ele>749.9</ele>
        <time>2021-09-08T08:25:53Z</time>
      </trkpt>
      <trkpt lat="44.30417" lon="5.72403">
        <ele>749.9</ele>
        <time>2021-09-08T08:25:54Z</time>
      </trkpt>
      <trkpt lat="44.30417" lon="5.72403">
        <ele>750</ele>
        <time>2021-09-08T08:25:56Z</time>
      </trkpt>
      <trkpt lat="44.30417" lon="5.72403">
        <ele>750</ele>
        <time>2021-09-08T08:25:57Z</time>
      </trkpt>
      <trkpt lat="44.30417" lon="5.72404">
        <ele>750</ele>
        <time>2021-09-08T08:25:59Z</time>
      </trkpt>
      <trkpt lat="44.30417" lon="5.72404">
        <ele>750</ele>
        <time>2021-09-08T08:26:00Z</time>
      </trkpt>
      <trkpt lat="44.30417" lon="5.72404">
        <ele>750</ele>
        <time>2021-09-08T08:26:01Z</time>
      </trkpt>
      <trkpt lat="44.30414" lon="5.72435">
        <ele>752.3</ele>
        <time>2021-09-08T08:26:15Z</time>
      </trkpt>
      <trkpt lat="44.30414" lon="5.72437">
        <ele>752.5</ele>
        <time>2021-09-08T08:26:16Z</time>
      </trkpt>
      <trkpt lat="44.30414" lon="5.72439">
        <ele>752.6</ele>
        <time>2021-09-08T08:26:17Z</time>
      </trkpt>
      <trkpt lat="44.30414" lon="5.72441">
        <ele>752.7</ele>
        <time>2021-09-08T08:26:18Z</time>
      </trkpt>
      <trkpt lat="44.30412" lon="5.72445">
        <ele>753</ele>
        <time>2021-09-08T08:26:20Z</time>
      </trkpt>
      <trkpt lat="44.30411" lon="5.72449">
        <ele>753.4</ele>
        <time>2021-09-08T08:26:21Z</time>
      </trkpt>
      <trkpt lat="44.30409" lon="5.72453">
        <ele>753.8</ele>
        <time>2021-09-08T08:26:22Z</time>
      </trkpt>
      <trkpt lat="44.30408" lon="5.72454">
        <ele>753.9</ele>
        <time>2021-09-08T08:26:23Z</time>
      </trkpt>
      <trkpt lat="44.30408" lon="5.7246">
        <ele>754.5</ele>
        <time>2021-09-08T08:26:25Z</time>
      </trkpt>
      <trkpt lat="44.30408" lon="5.72466">
        <ele>755</ele>
        <time>2021-09-08T08:26:27Z</time>
      </trkpt>
      <trkpt lat="44.30407" lon="5.7247">
        <ele>755.3</ele>
        <time>2021-09-08T08:26:28Z</time>
      </trkpt>
      <trkpt lat="44.30406" lon="5.72471">
        <ele>755.4</ele>
        <time>2021-09-08T08:26:29Z</time>
      </trkpt>
      <trkpt lat="44.30405" lon="5.72475">
        <ele>755.8</ele>
        <time>2021-09-08T08:26:31Z</time>
      </trkpt>
      <trkpt lat="44.30404" lon="5.72476">
        <ele>756</ele>
        <time>2021-09-08T08:26:32Z</time>
      </trkpt>
      <trkpt lat="44.30402" lon="5.72476">
        <ele>756.2</ele>
        <time>2021-09-08T08:26:34Z</time>
      </trkpt>
      <trkpt lat="44.30399" lon="5.7248">
        <ele>756.6</ele>
        <time>2021-09-08T08:26:36Z</time>
      </trkpt>
      <trkpt lat="44.30399" lon="5.72481">
        <ele>756.7</ele>
        <time>2021-09-08T08:26:37Z</time>
      </trkpt>
      <trkpt lat="44.30397" lon="5.72484">
        <ele>757</ele>
        <time>2021-09-08T08:26:39Z</time>
      </trkpt>
      <trkpt lat="44.30396" lon="5.72485">
        <ele>757.2</ele>
        <time>2021-09-08T08:26:40Z</time>
      </trkpt>
      <trkpt lat="44.30396" lon="5.72486">
        <ele>757.3</ele>
        <time>2021-09-08T08:26:41Z</time>
      </trkpt>
      <trkpt lat="44.30395" lon="5.72487">
        <ele>757.4</ele>
        <time>2021-09-08T08:26:42Z</time>
      </trkpt>
      <trkpt lat="44.30394" lon="5.72489">
        <ele>757.6</ele>
        <time>2021-09-08T08:26:43Z</time>
      </trkpt>
      <trkpt lat="44.30392" lon="5.72492">
        <ele>758</ele>
        <time>2021-09-08T08:26:45Z</time>
      </trkpt>
      <trkpt lat="44.30391" lon="5.72494">
        <ele>758.2</ele>
        <time>2021-09-08T08:26:46Z</time>
      </trkpt>
      <trkpt lat="44.3039" lon="5.72498">
        <ele>758.5</ele>
        <time>2021-09-08T08:26:48Z</time>
      </trkpt>
      <trkpt lat="44.3039" lon="5.725">
        <ele>758.6</ele>
        <time>2021-09-08T08:26:49Z</time>
      </trkpt>
      <trkpt lat="44.3039" lon="5.72499">
        <ele>758.7</ele>
        <time>2021-09-08T08:26:51Z</time>
      </trkpt>
      <trkpt lat="44.3039" lon="5.725">
        <ele>758.8</ele>
        <time>2021-09-08T08:26:52Z</time>
      </trkpt>
      <trkpt lat="44.3039" lon="5.725">
        <ele>758.8</ele>
        <time>2021-09-08T08:26:53Z</time>
      </trkpt>
      <trkpt lat="44.3039" lon="5.725">
        <ele>758.8</ele>
        <time>2021-09-08T08:26:54Z</time>
      </trkpt>
      <trkpt lat="44.3039" lon="5.725">
        <ele>758.8</ele>
        <time>2021-09-08T08:26:55Z</time>
      </trkpt>
      <trkpt lat="44.30389" lon="5.725">
        <ele>758.9</ele>
        <time>2021-09-08T08:26:56Z</time>
      </trkpt>
      <trkpt lat="44.30389" lon="5.725">
        <ele>758.9</ele>
        <time>2021-09-08T08:26:57Z</time>
      </trkpt>
      <trkpt lat="44.30388" lon="5.72501">
        <ele>759</ele>
        <time>2021-09-08T08:26:58Z</time>
      </trkpt>
      <trkpt lat="44.30363" lon="5.72534">
        <ele>761.5</ele>
        <time>2021-09-08T08:27:42Z</time>
      </trkpt>
      <trkpt lat="44.30362" lon="5.72536">
        <ele>761.6</ele>
        <time>2021-09-08T08:27:43Z</time>
      </trkpt>
      <trkpt lat="44.3036" lon="5.72539">
        <ele>761.9</ele>
        <time>2021-09-08T08:27:45Z</time>
      </trkpt>
      <trkpt lat="44.30359" lon="5.7254">
        <ele>762</ele>
        <time>2021-09-08T08:27:46Z</time>
      </trkpt>
      <trkpt lat="44.30359" lon="5.72541">
        <ele>762</ele>
        <time>2021-09-08T08:27:48Z</time>
      </trkpt>
      <trkpt lat="44.30359" lon="5.72541">
        <ele>762.1</ele>
        <time>2021-09-08T08:27:49Z</time>
      </trkpt>
      <trkpt lat="44.30359" lon="5.72542">
        <ele>762.1</ele>
        <time>2021-09-08T08:27:50Z</time>
      </trkpt>
      <trkpt lat="44.30358" lon="5.72542">
        <ele>762.1</ele>
        <time>2021-09-08T08:27:52Z</time>
      </trkpt>
      <trkpt lat="44.30358" lon="5.72542">
        <ele>762.1</ele>
        <time>2021-09-08T08:27:53Z</time>
      </trkpt>
      <trkpt lat="44.30358" lon="5.72542">
        <ele>762.1</ele>
        <time>2021-09-08T08:27:55Z</time>
      </trkpt>
      <trkpt lat="44.30358" lon="5.72542">
        <ele>762.2</ele>
        <time>2021-09-08T08:27:56Z</time>
      </trkpt>
      <trkpt lat="44.30358" lon="5.72542">
        <ele>762.2</ele>
        <time>2021-09-08T08:27:57Z</time>
      </trkpt>
      <trkpt lat="44.30358" lon="5.72543">
        <ele>762.2</ele>
        <time>2021-09-08T08:27:58Z</time>
      </trkpt>
      <trkpt lat="44.30341" lon="5.72539">
        <ele>763.9</ele>
        <time>2021-09-08T08:29:21Z</time>
      </trkpt>
      <trkpt lat="44.30339" lon="5.72538">
        <ele>764.2</ele>
        <time>2021-09-08T08:29:22Z</time>
      </trkpt>
      <trkpt lat="44.30335" lon="5.72541">
        <ele>764.6</ele>
        <time>2021-09-08T08:29:24Z</time>
      </trkpt>
      <trkpt lat="44.30334" lon="5.72543">
        <ele>764.8</ele>
        <time>2021-09-08T08:29:25Z</time>
      </trkpt>
      <trkpt lat="44.30333" lon="5.72545">
        <ele>765</ele>
        <time>2021-09-08T08:29:26Z</time>
      </trkpt>
      <trkpt lat="44.30332" lon="5.72547">
        <ele>765.2</ele>
        <time>2021-09-08T08:29:27Z</time>
      </trkpt>
      <trkpt lat="44.30332" lon="5.72548">
        <ele>765.3</ele>
        <time>2021-09-08T08:29:28Z</time>
      </trkpt>
      <trkpt lat="44.30331" lon="5.72549">
        <ele>765.4</ele>
        <time>2021-09-08T08:29:29Z</time>
      </trkpt>
      <trkpt lat="44.3033" lon="5.72555">
        <ele>765.9</ele>
        <time>2021-09-08T08:29:31Z</time>
      </trkpt>
      <trkpt lat="44.30331" lon="5.72559">
        <ele>766.2</ele>
        <time>2021-09-08T08:29:32Z</time>
      </trkpt>
      <trkpt lat="44.30331" lon="5.72561">
        <ele>766.4</ele>
        <time>2021-09-08T08:29:34Z</time>
      </trkpt>
      <trkpt lat="44.30331" lon="5.72563">
        <ele>766.5</ele>
        <time>2021-09-08T08:29:35Z</time>
      </trkpt>
      <trkpt lat="44.30332" lon="5.72565">
        <ele>766.7</ele>
        <time>2021-09-08T08:29:36Z</time>
      </trkpt>
      <trkpt lat="44.30334" lon="5.72564">
        <ele>767</ele>
        <time>2021-09-08T08:29:38Z</time>
      </trkpt>
      <trkpt lat="44.30334" lon="5.72564">
        <ele>767</ele>
        <time>2021-09-08T08:29:39Z</time>
      </trkpt>
      <trkpt lat="44.30334" lon="5.72564">
        <ele>767</ele>
        <time>2021-09-08T08:29:40Z</time>
      </trkpt>
      <trkpt lat="44.30334" lon="5.72564">
        <ele>767.1</ele>
        <time>2021-09-08T08:29:42Z</time>
      </trkpt>
      <trkpt lat="44.30335" lon="5.72565">
        <ele>767.1</ele>
        <time>2021-09-08T08:29:43Z</time>
      </trkpt>
      <trkpt lat="44.30335" lon="5.72565">
        <ele>767.1</ele>
        <time>2021-09-08T08:29:44Z</time>
      </trkpt>
      <trkpt lat="44.30335" lon="5.72565">
        <ele>767.1</ele>
        <time>2021-09-08T08:29:46Z</time>
      </trkpt>
      <trkpt lat="44.3033" lon="5.7257">
        <ele>767.8</ele>
        <time>2021-09-08T08:30:28Z</time>
      </trkpt>
      <trkpt lat="44.30328" lon="5.72574">
        <ele>768.2</ele>
        <time>2021-09-08T08:30:29Z</time>
      </trkpt>
      <trkpt lat="44.30327" lon="5.72576">
        <ele>768.3</ele>
        <time>2021-09-08T08:30:31Z</time>
      </trkpt>
      <trkpt lat="44.30326" lon="5.72577">
        <ele>768.4</ele>
        <time>2021-09-08T08:30:32Z</time>
      </trkpt>
      <trkpt lat="44.30326" lon="5.72576">
        <ele>768.5</ele>
        <time>2021-09-08T08:30:33Z</time>
      </trkpt>
      <trkpt lat="44.30325" lon="5.72578">
        <ele>768.6</ele>
        <time>2021-09-08T08:30:35Z</time>
      </trkpt>
      <trkpt lat="44.30324" lon="5.72581">
        <ele>768.8</ele>
        <time>2021-09-08T08:30:36Z</time>
      </trkpt>
      <trkpt lat="44.30324" lon="5.72581">
        <ele>768.8</ele>
        <time>2021-09-08T08:30:37Z</time>
      </trkpt>
      <trkpt lat="44.30323" lon="5.7258">
        <ele>768.9</ele>
        <time>2021-09-08T08:30:38Z</time>
      </trkpt>
      <trkpt lat="44.30323" lon="5.7258">
        <ele>768.9</ele>
        <time>2021-09-08T08:30:40Z</time>
      </trkpt>
      <trkpt lat="44.30323" lon="5.7258">
        <ele>769</ele>
        <time>2021-09-08T08:30:41Z</time>
      </trkpt>
      <trkpt lat="44.30322" lon="5.72581">
        <ele>769</ele>
        <time>2021-09-08T08:30:43Z</time>
      </trkpt>
      <trkpt lat="44.30321" lon="5.72582">
        <ele>769.2</ele>
        <time>2021-09-08T08:30:44Z</time>
      </trkpt>
      <trkpt lat="44.3032" lon="5.72583">
        <ele>769.3</ele>
        <time>2021-09-08T08:30:45Z</time>
      </trkpt>
      <trkpt lat="44.30319" lon="5.72584">
        <ele>769.4</ele>
        <time>2021-09-08T08:30:47Z</time>
      </trkpt>
      <trkpt lat="44.30161" lon="5.72923">
        <ele>796.8</ele>
        <time>2021-09-08T08:37:15Z</time>
      </trkpt>
      <trkpt lat="44.3016" lon="5.72924">
        <ele>796.9</ele>
        <time>2021-09-08T08:37:16Z</time>
      </trkpt>
      <trkpt lat="44.30158" lon="5.72924">
        <ele>797.1</ele>
        <time>2021-09-08T08:37:17Z</time>
      </trkpt>
      <trkpt lat="44.30154" lon="5.72928">
        <ele>797.5</ele>
        <time>2021-09-08T08:37:19Z</time>
      </trkpt>
      <trkpt lat="44.30152" lon="5.72931">
        <ele>797.8</ele>
        <time>2021-09-08T08:37:21Z</time>
      </trkpt>
      <trkpt lat="44.3015" lon="5.72934">
        <ele>798.1</ele>
        <time>2021-09-08T08:37:22Z</time>
      </trkpt>
      <trkpt lat="44.30148" lon="5.72938">
        <ele>798.4</ele>
        <time>2021-09-08T08:37:23Z</time>
      </trkpt>
      <trkpt lat="44.30146" lon="5.72941">
        <ele>798.6</ele>
        <time>2021-09-08T08:37:24Z</time>
      </trkpt>
      <trkpt lat="44.30144" lon="5.72944">
        <ele>798.9</ele>
        <time>2021-09-08T08:37:26Z</time>
      </trkpt>
      <trkpt lat="44.30141" lon="5.72947">
        <ele>799.2</ele>
        <time>2021-09-08T08:37:27Z</time>
      </trkpt>
      <trkpt lat="44.30139" lon="5.7295">
        <ele>799.5</ele>
        <time>2021-09-08T08:37:46Z</time>
      </trkpt>
      <trkpt lat="44.30137" lon="5.72953">
        <ele>799.7</ele>
        <time>2021-09-08T08:37:47Z</time>
      </trkpt>
      <trkpt lat="44.30135" lon="5.72957">
        <ele>800</ele>
        <time>2021-09-08T08:37:48Z</time>
      </trkpt>
      <trkpt lat="44.30133" lon="5.72958">
        <ele>800.2</ele>
        <time>2021-09-08T08:37:49Z</time>
      </trkpt>
      <trkpt lat="44.3013" lon="5.72961">
        <ele>800.5</ele>
        <time>2021-09-08T08:37:51Z</time>
      </trkpt>
      <trkpt lat="44.30128" lon="5.72964">
        <ele>800.8</ele>
        <time>2021-09-08T08:37:52Z</time>
      </trkpt>
      <trkpt lat="44.30126" lon="5.72967">
        <ele>801</ele>
        <time>2021-09-08T08:37:54Z</time>
      </trkpt>
      <trkpt lat="44.30126" lon="5.72969">
        <ele>801.2</ele>
        <time>2021-09-08T08:37:55Z</time>
      </trkpt>
      <trkpt lat="44.30126" lon="5.72971">
        <ele>801.3</ele>
        <time>2021-09-08T08:37:57Z</time>
      </trkpt>
      <trkpt lat="44.30125" lon="5.72972">
        <ele>801.4</ele>
        <time>2021-09-08T08:37:58Z</time>
      </trkpt>
      <trkpt lat="44.30124" lon="5.72975">
        <ele>801.8</ele>
        <time>2021-09-08T08:37:59Z</time>
      </trkpt>
      <trkpt lat="44.30122" lon="5.72979">
        <ele>802.2</ele>
        <time>2021-09-08T08:38:01Z</time>
      </trkpt>
      <trkpt lat="44.30122" lon="5.72979">
        <ele>802.3</ele>
        <time>2021-09-08T08:38:02Z</time>
      </trkpt>
      <trkpt lat="44.30119" lon="5.72982">
        <ele>802.6</ele>
        <time>2021-09-08T08:38:04Z</time>
      </trkpt>
      <trkpt lat="44.30118" lon="5.72984">
        <ele>802.8</ele>
        <time>2021-09-08T08:38:06Z</time>
      </trkpt>
      <trkpt lat="44.30117" lon="5.72985">
        <ele>802.9</ele>
        <time>2021-09-08T08:38:07Z</time>
      </trkpt>
      <trkpt lat="44.30116" lon="5.72986">
        <ele>803.1</ele>
        <time>2021-09-08T08:38:08Z</time>
      </trkpt>
      <trkpt lat="44.30116" lon="5.72986">
        <ele>803.1</ele>
        <time>2021-09-08T08:38:09Z</time>
      </trkpt>
      <trkpt lat="44.30115" lon="5.72986">
        <ele>803.2</ele>
        <time>2021-09-08T08:38:10Z</time>
      </trkpt>
      <trkpt lat="44.30115" lon="5.72986">
        <ele>803.2</ele>
        <time>2021-09-08T08:38:11Z</time>
      </trkpt>
      <trkpt lat="44.30114" lon="5.72986">
        <ele>803.3</ele>
        <time>2021-09-08T08:38:12Z</time>
      </trkpt>
      <trkpt lat="44.30114" lon="5.72986">
        <ele>803.3</ele>
        <time>2021-09-08T08:38:13Z</time>
      </trkpt>
      <trkpt lat="44.30114" lon="5.72987">
        <ele>803.3</ele>
        <time>2021-09-08T08:38:15Z</time>
      </trkpt>
      <trkpt lat="44.30114" lon="5.72987">
        <ele>803.3</ele>
        <time>2021-09-08T08:38:16Z</time>
      </trkpt>
      <trkpt lat="44.30113" lon="5.72987">
        <ele>803.4</ele>
        <time>2021-09-08T08:38:17Z</time>
      </trkpt>
      <trkpt lat="44.30084" lon="5.73003">
        <ele>806.9</ele>
        <time>2021-09-08T08:38:48Z</time>
      </trkpt>
      <trkpt lat="44.30082" lon="5.73004">
        <ele>807.1</ele>
        <time>2021-09-08T08:38:50Z</time>
      </trkpt>
      <trkpt lat="44.3008" lon="5.73006">
        <ele>807.3</ele>
        <time>2021-09-08T08:38:51Z</time>
      </trkpt>
      <trkpt lat="44.30079" lon="5.73006">
        <ele>807.4</ele>
        <time>2021-09-08T08:38:52Z</time>
      </trkpt>
      <trkpt lat="44.30077" lon="5.73006">
        <ele>807.6</ele>
        <time>2021-09-08T08:38:53Z</time>
      </trkpt>
      <trkpt lat="44.30076" lon="5.73006">
        <ele>807.7</ele>
        <time>2021-09-08T08:38:55Z</time>
      </trkpt>
      <trkpt lat="44.30076" lon="5.73006">
        <ele>807.7</ele>
        <time>2021-09-08T08:38:56Z</time>
      </trkpt>
      <trkpt lat="44.30076" lon="5.73006">
        <ele>807.7</ele>
        <time>2021-09-08T08:38:57Z</time>
      </trkpt>
      <trkpt lat="44.30073" lon="5.73009">
        <ele>808</ele>
        <time>2021-09-08T08:38:59Z</time>
      </trkpt>
      <trkpt lat="44.3007" lon="5.73013">
        <ele>808.4</ele>
        <time>2021-09-08T08:39:00Z</time>
      </trkpt>
      <trkpt lat="44.30068" lon="5.73013">
        <ele>808.5</ele>
        <time>2021-09-08T08:39:02Z</time>
      </trkpt>
      <trkpt lat="44.30067" lon="5.73013">
        <ele>808.6</ele>
        <time>2021-09-08T08:39:03Z</time>
      </trkpt>
      <trkpt lat="44.30062" lon="5.73015">
        <ele>809.1</ele>
        <time>2021-09-08T08:39:04Z</time>
      </trkpt>
      <trkpt lat="44.30058" lon="5.73016">
        <ele>809.4</ele>
        <time>2021-09-08T08:39:06Z</time>
      </trkpt>
      <trkpt lat="44.30055" lon="5.73018">
        <ele>809.8</ele>
        <time>2021-09-08T08:39:08Z</time>
      </trkpt>
      <trkpt lat="44.30051" lon="5.7302">
        <ele>810.1</ele>
        <time>2021-09-08T08:39:09Z</time>
      </trkpt>
      <trkpt lat="44.30047" lon="5.73021">
        <ele>810.5</ele>
        <time>2021-09-08T08:39:10Z</time>
      </trkpt>
      <trkpt lat="44.30043" lon="5.73023">
        <ele>810.8</ele>
        <time>2021-09-08T08:39:29Z</time>
      </trkpt>
      <trkpt lat="44.30039" lon="5.73024">
        <ele>811.1</ele>
        <time>2021-09-08T08:39:30Z</time>
      </trkpt>
      <trkpt lat="44.30035" lon="5.73026">
        <ele>811.4</ele>
        <time>2021-09-08T08:39:31Z</time>
      </trkpt>
      <trkpt lat="44.30035" lon="5.73027">
        <ele>811.5</ele>
        <time>2021-09-08T08:39:33Z</time>
      </trkpt>
      <trkpt lat="44.30034" lon="5.73027">
        <ele>811.5</ele>
        <time>2021-09-08T08:39:34Z</time>
      </trkpt>
      <trkpt lat="44.30034" lon="5.73028">
        <ele>811.6</ele>
        <time>2021-09-08T08:39:35Z</time>
      </trkpt>
      <trkpt lat="44.30033" lon="5.73029">
        <ele>811.6</ele>
        <time>2021-09-08T08:39:36Z</time>
      </trkpt>
      <trkpt lat="44.30033" lon="5.73029">
        <ele>811.7</ele>
        <time>2021-09-08T08:39:37Z</time>
      </trkpt>
      <trkpt lat="44.30033" lon="5.73029">
        <ele>811.7</ele>
        <time>2021-09-08T08:39:39Z</time>
      </trkpt>
      <trkpt lat="44.30032" lon="5.7303">
        <ele>811.7</ele>
        <time>2021-09-08T08:39:40Z</time>
      </trkpt>
      <trkpt lat="44.3003" lon="5.7303">
        <ele>811.9</ele>
        <time>2021-09-08T08:39:41Z</time>
      </trkpt>
      <trkpt lat="44.30016" lon="5.73045">
        <ele>813.2</ele>
        <time>2021-09-08T08:39:55Z</time>
      </trkpt>
      <trkpt lat="44.30015" lon="5.73049">
        <ele>813.4</ele>
        <time>2021-09-08T08:39:56Z</time>
      </trkpt>
      <trkpt lat="44.30014" lon="5.73053">
        <ele>813.5</ele>
        <time>2021-09-08T08:39:57Z</time>
      </trkpt>
      <trkpt lat="44.30012" lon="5.73058">
        <ele>813.7</ele>
        <time>2021-09-08T08:39:58Z</time>
      </trkpt>
      <trkpt lat="44.30012" lon="5.73059">
        <ele>813.7</ele>
        <time>2021-09-08T08:39:59Z</time>
      </trkpt>
      <trkpt lat="44.30011" lon="5.73063">
        <ele>813.9</ele>
        <time>2021-09-08T08:40:00Z</time>
      </trkpt>
      <trkpt lat="44.30011" lon="5.73064">
        <ele>813.9</ele>
        <time>2021-09-08T08:40:01Z</time>
      </trkpt>
      <trkpt lat="44.3001" lon="5.73065">
        <ele>814</ele>
        <time>2021-09-08T08:40:03Z</time>
      </trkpt>
      <trkpt lat="44.30009" lon="5.73068">
        <ele>814</ele>
        <time>2021-09-08T08:40:04Z</time>
      </trkpt>
      <trkpt lat="44.30009" lon="5.7307">
        <ele>814.1</ele>
        <time>2021-09-08T08:40:05Z</time>
      </trkpt>
      <trkpt lat="44.30009" lon="5.73074">
        <ele>814.2</ele>
        <time>2021-09-08T08:40:07Z</time>
      </trkpt>
      <trkpt lat="44.30008" lon="5.73078">
        <ele>814.4</ele>
        <time>2021-09-08T08:40:08Z</time>
      </trkpt>
      <trkpt lat="44.30009" lon="5.73082">
        <ele>814.5</ele>
        <time>2021-09-08T08:40:10Z</time>
      </trkpt>
      <trkpt lat="44.3001" lon="5.73084">
        <ele>814.6</ele>
        <time>2021-09-08T08:40:11Z</time>
      </trkpt>
      <trkpt lat="44.30013" lon="5.73087">
        <ele>814.9</ele>
        <time>2021-09-08T08:40:13Z</time>
      </trkpt>
      <trkpt lat="44.30015" lon="5.73089">
        <ele>815</ele>
        <time>2021-09-08T08:40:14Z</time>
      </trkpt>
      <trkpt lat="44.30016" lon="5.73092">
        <ele>815.1</ele>
        <time>2021-09-08T08:40:15Z</time>
      </trkpt>
      <trkpt lat="44.30018" lon="5.73092">
        <ele>815.2</ele>
        <time>2021-09-08T08:40:17Z</time>
      </trkpt>
      <trkpt lat="44.30021" lon="5.73095">
        <ele>815.5</ele>
        <time>2021-09-08T08:40:18Z</time>
      </trkpt>
      <trkpt lat="44.30022" lon="5.73097">
        <ele>815.6</ele>
        <time>2021-09-08T08:40:19Z</time>
      </trkpt>
      <trkpt lat="44.30022" lon="5.73098">
        <ele>815.6</ele>
        <time>2021-09-08T08:40:20Z</time>
      </trkpt>
      <trkpt lat="44.30021" lon="5.73099">
        <ele>815.7</ele>
        <time>2021-09-08T08:40:21Z</time>
      </trkpt>
      <trkpt lat="44.30021" lon="5.73102">
        <ele>815.9</ele>
        <time>2021-09-08T08:40:23Z</time>
      </trkpt>
      <trkpt lat="44.3002" lon="5.73107">
        <ele>816.2</ele>
        <time>2021-09-08T08:40:24Z</time>
      </trkpt>
      <trkpt lat="44.30017" lon="5.73111">
        <ele>816.5</ele>
        <time>2021-09-08T08:40:25Z</time>
      </trkpt>
      <trkpt lat="44.30015" lon="5.73115">
        <ele>816.8</ele>
        <time>2021-09-08T08:40:26Z</time>
      </trkpt>
      <trkpt lat="44.30014" lon="5.73117">
        <ele>817</ele>
        <time>2021-09-08T08:40:27Z</time>
      </trkpt>
      <trkpt lat="44.30013" lon="5.73118">
        <ele>817</ele>
        <time>2021-09-08T08:40:28Z</time>
      </trkpt>
      <trkpt lat="44.30013" lon="5.73119">
        <ele>817.1</ele>
        <time>2021-09-08T08:40:29Z</time>
      </trkpt>
      <trkpt lat="44.30012" lon="5.73121">
        <ele>817.3</ele>
        <time>2021-09-08T08:40:30Z</time>
      </trkpt>
      <trkpt lat="44.30012" lon="5.73124">
        <ele>817.4</ele>
        <time>2021-09-08T08:40:32Z</time>
      </trkpt>
      <trkpt lat="44.30011" lon="5.73126">
        <ele>817.6</ele>
        <time>2021-09-08T08:40:33Z</time>
      </trkpt>
      <trkpt lat="44.30009" lon="5.73128">
        <ele>817.7</ele>
        <time>2021-09-08T08:40:34Z</time>
      </trkpt>
      <trkpt lat="44.30007" lon="5.73129">
        <ele>817.9</ele>
        <time>2021-09-08T08:40:36Z</time>
      </trkpt>
      <trkpt lat="44.30006" lon="5.73129">
        <ele>818</ele>
        <time>2021-09-08T08:40:37Z</time>
      </trkpt>
      <trkpt lat="44.30006" lon="5.7313">
        <ele>818.1</ele>
        <time>2021-09-08T08:40:38Z</time>
      </trkpt>
      <trkpt lat="44.30005" lon="5.7313">
        <ele>818.1</ele>
        <time>2021-09-08T08:40:39Z</time>
      </trkpt>
      <trkpt lat="44.30004" lon="5.7313">
        <ele>818.2</ele>
        <time>2021-09-08T08:40:41Z</time>
      </trkpt>
      <trkpt lat="44.30002" lon="5.73132">
        <ele>818.4</ele>
        <time>2021-09-08T08:40:43Z</time>
      </trkpt>
      <trkpt lat="44.30001" lon="5.73131">
        <ele>818.5</ele>
        <time>2021-09-08T08:40:44Z</time>
      </trkpt>
      <trkpt lat="44.30001" lon="5.73131">
        <ele>818.5</ele>
        <time>2021-09-08T08:40:45Z</time>
      </trkpt>
      <trkpt lat="44.3" lon="5.73131">
        <ele>818.6</ele>
        <time>2021-09-08T08:40:46Z</time>
      </trkpt>
      <trkpt lat="44.3" lon="5.73132">
        <ele>818.6</ele>
        <time>2021-09-08T08:40:47Z</time>
      </trkpt>
      <trkpt lat="44.3" lon="5.73132">
        <ele>818.6</ele>
        <time>2021-09-08T08:40:48Z</time>
      </trkpt>
      <trkpt lat="44.30001" lon="5.73133">
        <ele>818.7</ele>
        <time>2021-09-08T08:40:49Z</time>
      </trkpt>
      <trkpt lat="44.30001" lon="5.73135">
        <ele>818.8</ele>
        <time>2021-09-08T08:40:51Z</time>
      </trkpt>
      <trkpt lat="44.30002" lon="5.73136">
        <ele>818.9</ele>
        <time>2021-09-08T08:40:52Z</time>
      </trkpt>
      <trkpt lat="44.30002" lon="5.73138">
        <ele>819</ele>
        <time>2021-09-08T08:40:53Z</time>
      </trkpt>
      <trkpt lat="44.30006" lon="5.73152">
        <ele>820</ele>
        <time>2021-09-08T08:41:03Z</time>
      </trkpt>
      <trkpt lat="44.30007" lon="5.73155">
        <ele>820.2</ele>
        <time>2021-09-08T08:41:04Z</time>
      </trkpt>
      <trkpt lat="44.30007" lon="5.73157">
        <ele>820.3</ele>
        <time>2021-09-08T08:41:05Z</time>
      </trkpt>
      <trkpt lat="44.30009" lon="5.7316">
        <ele>820.5</ele>
        <time>2021-09-08T08:41:07Z</time>
      </trkpt>
      <trkpt lat="44.3001" lon="5.73162">
        <ele>820.6</ele>
        <time>2021-09-08T08:41:08Z</time>
      </trkpt>
      <trkpt lat="44.30012" lon="5.73164">
        <ele>820.9</ele>
        <time>2021-09-08T08:41:10Z</time>
      </trkpt>
      <trkpt lat="44.30014" lon="5.73165">
        <ele>821</ele>
        <time>2021-09-08T08:41:11Z</time>
      </trkpt>
      <trkpt lat="44.30017" lon="5.73166">
        <ele>821.3</ele>
        <time>2021-09-08T08:41:13Z</time>
      </trkpt>
      <trkpt lat="44.30019" lon="5.73167">
        <ele>821.4</ele>
        <time>2021-09-08T08:41:14Z</time>
      </trkpt>
      <trkpt lat="44.30021" lon="5.73168">
        <ele>821.5</ele>
        <time>2021-09-08T08:41:16Z</time>
      </trkpt>
      <trkpt lat="44.30023" lon="5.73168">
        <ele>821.7</ele>
        <time>2021-09-08T08:41:17Z</time>
      </trkpt>
      <trkpt lat="44.30025" lon="5.73168">
        <ele>821.8</ele>
        <time>2021-09-08T08:41:19Z</time>
      </trkpt>
      <trkpt lat="44.30026" lon="5.73168">
        <ele>821.9</ele>
        <time>2021-09-08T08:41:20Z</time>
      </trkpt>
      <trkpt lat="44.30027" lon="5.73169">
        <ele>822</ele>
        <time>2021-09-08T08:41:21Z</time>
      </trkpt>
      <trkpt lat="44.30028" lon="5.73169">
        <ele>822</ele>
        <time>2021-09-08T08:41:22Z</time>
      </trkpt>
      <trkpt lat="44.30031" lon="5.7317">
        <ele>822.2</ele>
        <time>2021-09-08T08:41:23Z</time>
      </trkpt>
      <trkpt lat="44.30032" lon="5.7317">
        <ele>822.3</ele>
        <time>2021-09-08T08:41:24Z</time>
      </trkpt>
      <trkpt lat="44.30033" lon="5.73171">
        <ele>822.4</ele>
        <time>2021-09-08T08:41:26Z</time>
      </trkpt>
      <trkpt lat="44.30038" lon="5.73172">
        <ele>822.7</ele>
        <time>2021-09-08T08:41:28Z</time>
      </trkpt>
      <trkpt lat="44.30043" lon="5.73171">
        <ele>823.1</ele>
        <time>2021-09-08T08:41:30Z</time>
      </trkpt>
      <trkpt lat="44.30047" lon="5.73171">
        <ele>823.4</ele>
        <time>2021-09-08T08:41:31Z</time>
      </trkpt>
      <trkpt lat="44.30051" lon="5.73172">
        <ele>823.7</ele>
        <time>2021-09-08T08:41:33Z</time>
      </trkpt>
      <trkpt lat="44.30053" lon="5.73171">
        <ele>823.9</ele>
        <time>2021-09-08T08:41:34Z</time>
      </trkpt>
      <trkpt lat="44.30054" lon="5.73171">
        <ele>824</ele>
        <time>2021-09-08T08:41:35Z</time>
      </trkpt>
      <trkpt lat="44.30055" lon="5.73172">
        <ele>824</ele>
        <time>2021-09-08T08:41:37Z</time>
      </trkpt>
      <trkpt lat="44.30055" lon="5.73172">
        <ele>824.1</ele>
        <time>2021-09-08T08:41:38Z</time>
      </trkpt>
      <trkpt lat="44.30056" lon="5.73172">
        <ele>824.1</ele>
        <time>2021-09-08T08:41:39Z</time>
      </trkpt>
      <trkpt lat="44.30056" lon="5.73172">
        <ele>824.1</ele>
        <time>2021-09-08T08:41:40Z</time>
      </trkpt>
      <trkpt lat="44.30056" lon="5.73172">
        <ele>824.2</ele>
        <time>2021-09-08T08:41:42Z</time>
      </trkpt>
      <trkpt lat="44.30058" lon="5.73171">
        <ele>824.3</ele>
        <time>2021-09-08T08:41:44Z</time>
      </trkpt>
      <trkpt lat="44.30061" lon="5.73171">
        <ele>824.5</ele>
        <time>2021-09-08T08:41:47Z</time>
      </trkpt>
      <trkpt lat="44.30065" lon="5.7317">
        <ele>824.9</ele>
        <time>2021-09-08T08:41:48Z</time>
      </trkpt>
      <trkpt lat="44.30069" lon="5.7317">
        <ele>825.2</ele>
        <time>2021-09-08T08:41:50Z</time>
      </trkpt>
      <trkpt lat="44.3007" lon="5.73169">
        <ele>825.3</ele>
        <time>2021-09-08T08:41:51Z</time>
      </trkpt>
      <trkpt lat="44.30071" lon="5.73169">
        <ele>825.4</ele>
        <time>2021-09-08T08:41:52Z</time>
      </trkpt>
      <trkpt lat="44.30072" lon="5.73169">
        <ele>825.5</ele>
        <time>2021-09-08T08:41:53Z</time>
      </trkpt>
      <trkpt lat="44.30075" lon="5.73169">
        <ele>825.7</ele>
        <time>2021-09-08T08:41:55Z</time>
      </trkpt>
      <trkpt lat="44.30078" lon="5.73169">
        <ele>825.9</ele>
        <time>2021-09-08T08:41:56Z</time>
      </trkpt>
      <trkpt lat="44.30079" lon="5.7317">
        <ele>826</ele>
        <time>2021-09-08T08:41:57Z</time>
      </trkpt>
      <trkpt lat="44.3008" lon="5.73171">
        <ele>826.2</ele>
        <time>2021-09-08T08:41:59Z</time>
      </trkpt>
      <trkpt lat="44.3008" lon="5.73172">
        <ele>826.2</ele>
        <time>2021-09-08T08:42:01Z</time>
      </trkpt>
      <trkpt lat="44.30081" lon="5.73173">
        <ele>826.3</ele>
        <time>2021-09-08T08:42:02Z</time>
      </trkpt>
      <trkpt lat="44.30082" lon="5.73175">
        <ele>826.4</ele>
        <time>2021-09-08T08:42:03Z</time>
      </trkpt>
      <trkpt lat="44.30083" lon="5.73176">
        <ele>826.5</ele>
        <time>2021-09-08T08:42:04Z</time>
      </trkpt>
      <trkpt lat="44.30083" lon="5.73176">
        <ele>826.5</ele>
        <time>2021-09-08T08:42:05Z</time>
      </trkpt>
      <trkpt lat="44.30083" lon="5.73176">
        <ele>826.5</ele>
        <time>2021-09-08T08:42:06Z</time>
      </trkpt>
      <trkpt lat="44.30085" lon="5.73174">
        <ele>826.7</ele>
        <time>2021-09-08T08:42:09Z</time>
      </trkpt>
      <trkpt lat="44.30087" lon="5.73174">
        <ele>826.8</ele>
        <time>2021-09-08T08:42:10Z</time>
      </trkpt>
      <trkpt lat="44.30087" lon="5.73174">
        <ele>826.8</ele>
        <time>2021-09-08T08:42:11Z</time>
      </trkpt>
      <trkpt lat="44.30088" lon="5.73173">
        <ele>826.9</ele>
        <time>2021-09-08T08:42:12Z</time>
      </trkpt>
      <trkpt lat="44.30088" lon="5.73173">
        <ele>826.9</ele>
        <time>2021-09-08T08:42:14Z</time>
      </trkpt>
      <trkpt lat="44.30088" lon="5.73173">
        <ele>826.9</ele>
        <time>2021-09-08T08:42:15Z</time>
      </trkpt>
      <trkpt lat="44.30088" lon="5.73173">
        <ele>826.9</ele>
        <time>2021-09-08T08:42:16Z</time>
      </trkpt>
      <trkpt lat="44.30088" lon="5.73173">
        <ele>826.9</ele>
        <time>2021-09-08T08:42:17Z</time>
      </trkpt>
      <trkpt lat="44.30088" lon="5.73174">
        <ele>827</ele>
        <time>2021-09-08T08:42:19Z</time>
      </trkpt>
      <trkpt lat="44.30089" lon="5.73178">
        <ele>827.2</ele>
        <time>2021-09-08T08:42:21Z</time>
      </trkpt>
      <trkpt lat="44.30089" lon="5.73214">
        <ele>828.7</ele>
        <time>2021-09-08T08:42:35Z</time>
      </trkpt>
      <trkpt lat="44.30089" lon="5.73221">
        <ele>829</ele>
        <time>2021-09-08T08:42:36Z</time>
      </trkpt>
      <trkpt lat="44.30089" lon="5.73228">
        <ele>829.2</ele>
        <time>2021-09-08T08:42:38Z</time>
      </trkpt>
      <trkpt lat="44.30089" lon="5.7323">
        <ele>829.2</ele>
        <time>2021-09-08T08:42:39Z</time>
      </trkpt>
      <trkpt lat="44.30089" lon="5.73232">
        <ele>829.3</ele>
        <time>2021-09-08T08:42:40Z</time>
      </trkpt>
      <trkpt lat="44.30089" lon="5.73236">
        <ele>829.4</ele>
        <time>2021-09-08T08:42:41Z</time>
      </trkpt>
      <trkpt lat="44.30089" lon="5.73237">
        <ele>829.4</ele>
        <time>2021-09-08T08:42:42Z</time>
      </trkpt>
      <trkpt lat="44.3009" lon="5.73239">
        <ele>829.5</ele>
        <time>2021-09-08T08:42:43Z</time>
      </trkpt>
      <trkpt lat="44.30092" lon="5.73243">
        <ele>829.7</ele>
        <time>2021-09-08T08:42:45Z</time>
      </trkpt>
      <trkpt lat="44.30093" lon="5.73247">
        <ele>829.8</ele>
        <time>2021-09-08T08:42:46Z</time>
      </trkpt>
      <trkpt lat="44.30092" lon="5.7325">
        <ele>829.9</ele>
        <time>2021-09-08T08:42:47Z</time>
      </trkpt>
      <trkpt lat="44.30089" lon="5.73253">
        <ele>830</ele>
        <time>2021-09-08T08:42:49Z</time>
      </trkpt>
      <trkpt lat="44.30087" lon="5.73255">
        <ele>830.1</ele>
        <time>2021-09-08T08:42:50Z</time>
      </trkpt>
      <trkpt lat="44.30084" lon="5.73258">
        <ele>830.2</ele>
        <time>2021-09-08T08:42:52Z</time>
      </trkpt>
      <trkpt lat="44.30081" lon="5.73259">
        <ele>830.3</ele>
        <time>2021-09-08T08:42:53Z</time>
      </trkpt>
      <trkpt lat="44.30079" lon="5.73261">
        <ele>830.4</ele>
        <time>2021-09-08T08:42:54Z</time>
      </trkpt>
      <trkpt lat="44.30079" lon="5.73263">
        <ele>830.4</ele>
        <time>2021-09-08T08:42:56Z</time>
      </trkpt>
      <trkpt lat="44.30077" lon="5.73265">
        <ele>830.5</ele>
        <time>2021-09-08T08:42:57Z</time>
      </trkpt>
      <trkpt lat="44.30075" lon="5.73265">
        <ele>830.5</ele>
        <time>2021-09-08T08:42:58Z</time>
      </trkpt>
      <trkpt lat="44.30074" lon="5.73265">
        <ele>830.5</ele>
        <time>2021-09-08T08:43:00Z</time>
      </trkpt>
      <trkpt lat="44.30073" lon="5.73266">
        <ele>830.6</ele>
        <time>2021-09-08T08:43:01Z</time>
      </trkpt>
      <trkpt lat="44.30072" lon="5.73266">
        <ele>830.6</ele>
        <time>2021-09-08T08:43:02Z</time>
      </trkpt>
      <trkpt lat="44.30071" lon="5.73266">
        <ele>830.6</ele>
        <time>2021-09-08T08:43:03Z</time>
      </trkpt>
      <trkpt lat="44.30069" lon="5.73263">
        <ele>830.7</ele>
        <time>2021-09-08T08:43:05Z</time>
      </trkpt>
      <trkpt lat="44.30068" lon="5.73262">
        <ele>830.7</ele>
        <time>2021-09-08T08:43:06Z</time>
      </trkpt>
      <trkpt lat="44.30066" lon="5.73261">
        <ele>830.8</ele>
        <time>2021-09-08T08:43:07Z</time>
      </trkpt>
      <trkpt lat="44.30063" lon="5.73259">
        <ele>830.8</ele>
        <time>2021-09-08T08:43:09Z</time>
      </trkpt>
      <trkpt lat="44.3006" lon="5.73257">
        <ele>830.9</ele>
        <time>2021-09-08T08:43:10Z</time>
      </trkpt>
      <trkpt lat="44.30057" lon="5.73254">
        <ele>831</ele>
        <time>2021-09-08T08:43:12Z</time>
      </trkpt>
      <trkpt lat="44.30055" lon="5.73252">
        <ele>831</ele>
        <time>2021-09-08T08:43:13Z</time>
      </trkpt>
      <trkpt lat="44.30053" lon="5.73249">
        <ele>831.1</ele>
        <time>2021-09-08T08:43:15Z</time>
      </trkpt>
      <trkpt lat="44.30052" lon="5.73248">
        <ele>831.1</ele>
        <time>2021-09-08T08:43:16Z</time>
      </trkpt>
      <trkpt lat="44.30051" lon="5.73246">
        <ele>831.1</ele>
        <time>2021-09-08T08:43:17Z</time>
      </trkpt>
      <trkpt lat="44.3005" lon="5.73244">
        <ele>831.2</ele>
        <time>2021-09-08T08:43:19Z</time>
      </trkpt>
      <trkpt lat="44.30047" lon="5.73243">
        <ele>831.3</ele>
        <time>2021-09-08T08:43:20Z</time>
      </trkpt>
      <trkpt lat="44.30044" lon="5.73241">
        <ele>831.3</ele>
        <time>2021-09-08T08:43:21Z</time>
      </trkpt>
      <trkpt lat="44.3004" lon="5.73238">
        <ele>831.5</ele>
        <time>2021-09-08T08:43:23Z</time>
      </trkpt>
      <trkpt lat="44.30038" lon="5.73236">
        <ele>831.6</ele>
        <time>2021-09-08T08:43:24Z</time>
      </trkpt>
      <trkpt lat="44.30037" lon="5.73235">
        <ele>831.6</ele>
        <time>2021-09-08T08:43:25Z</time>
      </trkpt>
      <trkpt lat="44.30034" lon="5.73233">
        <ele>831.8</ele>
        <time>2021-09-08T08:43:27Z</time>
      </trkpt>
      <trkpt lat="44.30033" lon="5.73233">
        <ele>831.9</ele>
        <time>2021-09-08T08:43:28Z</time>
      </trkpt>
      <trkpt lat="44.30031" lon="5.73231">
        <ele>832</ele>
        <time>2021-09-08T08:43:30Z</time>
      </trkpt>
      <trkpt lat="44.3003" lon="5.73228">
        <ele>832.2</ele>
        <time>2021-09-08T08:43:32Z</time>
      </trkpt>
      <trkpt lat="44.30029" lon="5.73226">
        <ele>832.3</ele>
        <time>2021-09-08T08:43:33Z</time>
      </trkpt>
      <trkpt lat="44.30028" lon="5.73224">
        <ele>832.4</ele>
        <time>2021-09-08T08:43:34Z</time>
      </trkpt>
      <trkpt lat="44.30027" lon="5.73223">
        <ele>832.5</ele>
        <time>2021-09-08T08:43:35Z</time>
      </trkpt>
      <trkpt lat="44.30025" lon="5.73221">
        <ele>832.7</ele>
        <time>2021-09-08T08:43:36Z</time>
      </trkpt>
      <trkpt lat="44.30025" lon="5.73222">
        <ele>832.7</ele>
        <time>2021-09-08T08:43:38Z</time>
      </trkpt>
      <trkpt lat="44.30023" lon="5.73221">
        <ele>832.9</ele>
        <time>2021-09-08T08:43:39Z</time>
      </trkpt>
      <trkpt lat="44.30021" lon="5.7322">
        <ele>833</ele>
        <time>2021-09-08T08:43:41Z</time>
      </trkpt>
      <trkpt lat="44.30018" lon="5.73219">
        <ele>833.3</ele>
        <time>2021-09-08T08:43:43Z</time>
      </trkpt>
      <trkpt lat="44.30018" lon="5.73219">
        <ele>833.4</ele>
        <time>2021-09-08T08:43:44Z</time>
      </trkpt>
      <trkpt lat="44.30017" lon="5.7322">
        <ele>833.5</ele>
        <time>2021-09-08T08:43:45Z</time>
      </trkpt>
      <trkpt lat="44.30015" lon="5.73222">
        <ele>833.7</ele>
        <time>2021-09-08T08:43:47Z</time>
      </trkpt>
      <trkpt lat="44.30015" lon="5.73222">
        <ele>833.7</ele>
        <time>2021-09-08T08:43:49Z</time>
      </trkpt>
      <trkpt lat="44.30015" lon="5.73222">
        <ele>833.7</ele>
        <time>2021-09-08T08:43:50Z</time>
      </trkpt>
      <trkpt lat="44.30015" lon="5.73223">
        <ele>833.7</ele>
        <time>2021-09-08T08:43:52Z</time>
      </trkpt>
      <trkpt lat="44.30014" lon="5.73223">
        <ele>833.8</ele>
        <time>2021-09-08T08:43:53Z</time>
      </trkpt>
      <trkpt lat="44.30014" lon="5.73223">
        <ele>833.8</ele>
        <time>2021-09-08T08:43:55Z</time>
      </trkpt>
      <trkpt lat="44.29997" lon="5.73288">
        <ele>837.6</ele>
        <time>2021-09-08T08:45:08Z</time>
      </trkpt>
      <trkpt lat="44.29998" lon="5.73293">
        <ele>838</ele>
        <time>2021-09-08T08:45:10Z</time>
      </trkpt>
      <trkpt lat="44.29998" lon="5.73295">
        <ele>838.1</ele>
        <time>2021-09-08T08:45:11Z</time>
      </trkpt>
      <trkpt lat="44.29998" lon="5.73297">
        <ele>838.3</ele>
        <time>2021-09-08T08:45:12Z</time>
      </trkpt>
      <trkpt lat="44.29999" lon="5.73299">
        <ele>838.4</ele>
        <time>2021-09-08T08:45:14Z</time>
      </trkpt>
      <trkpt lat="44.29999" lon="5.733">
        <ele>838.4</ele>
        <time>2021-09-08T08:45:15Z</time>
      </trkpt>
      <trkpt lat="44.29999" lon="5.73301">
        <ele>838.5</ele>
        <time>2021-09-08T08:45:16Z</time>
      </trkpt>
      <trkpt lat="44.29999" lon="5.73301">
        <ele>838.5</ele>
        <time>2021-09-08T08:45:18Z</time>
      </trkpt>
      <trkpt lat="44.29999" lon="5.73302">
        <ele>838.5</ele>
        <time>2021-09-08T08:45:19Z</time>
      </trkpt>
      <trkpt lat="44.29999" lon="5.73302">
        <ele>838.6</ele>
        <time>2021-09-08T08:45:20Z</time>
      </trkpt>
      <trkpt lat="44.29999" lon="5.73302">
        <ele>838.6</ele>
        <time>2021-09-08T08:45:22Z</time>
      </trkpt>
      <trkpt lat="44.29999" lon="5.73302">
        <ele>838.6</ele>
        <time>2021-09-08T08:45:23Z</time>
      </trkpt>
      <trkpt lat="44.29999" lon="5.73303">
        <ele>838.7</ele>
        <time>2021-09-08T08:45:24Z</time>
      </trkpt>
      <trkpt lat="44.29998" lon="5.73306">
        <ele>838.8</ele>
        <time>2021-09-08T08:45:26Z</time>
      </trkpt>
      <trkpt lat="44.29987" lon="5.73457">
        <ele>847.1</ele>
        <time>2021-09-08T08:48:13Z</time>
      </trkpt>
      <trkpt lat="44.29987" lon="5.73461">
        <ele>847.3</ele>
        <time>2021-09-08T08:48:14Z</time>
      </trkpt>
      <trkpt lat="44.29987" lon="5.73465">
        <ele>847.4</ele>
        <time>2021-09-08T08:48:16Z</time>
      </trkpt>
      <trkpt lat="44.29987" lon="5.7347">
        <ele>847.6</ele>
        <time>2021-09-08T08:48:17Z</time>
      </trkpt>
      <trkpt lat="44.29986" lon="5.73472">
        <ele>847.7</ele>
        <time>2021-09-08T08:48:18Z</time>
      </trkpt>
      <trkpt lat="44.29986" lon="5.73473">
        <ele>847.8</ele>
        <time>2021-09-08T08:48:20Z</time>
      </trkpt>
      <trkpt lat="44.29985" lon="5.73474">
        <ele>847.8</ele>
        <time>2021-09-08T08:48:21Z</time>
      </trkpt>
      <trkpt lat="44.29984" lon="5.73475">
        <ele>847.9</ele>
        <time>2021-09-08T08:48:22Z</time>
      </trkpt>
      <trkpt lat="44.29984" lon="5.73476">
        <ele>848</ele>
        <time>2021-09-08T08:48:24Z</time>
      </trkpt>
      <trkpt lat="44.29983" lon="5.73476">
        <ele>848</ele>
        <time>2021-09-08T08:48:25Z</time>
      </trkpt>
      <trkpt lat="44.29983" lon="5.73477">
        <ele>848</ele>
        <time>2021-09-08T08:48:26Z</time>
      </trkpt>
      <trkpt lat="44.29983" lon="5.73478">
        <ele>848.1</ele>
        <time>2021-09-08T08:48:28Z</time>
      </trkpt>
      <trkpt lat="44.29968" lon="5.73462">
        <ele>849.7</ele>
        <time>2021-09-08T08:48:49Z</time>
      </trkpt>
      <trkpt lat="44.29967" lon="5.73457">
        <ele>849.9</ele>
        <time>2021-09-08T08:48:50Z</time>
      </trkpt>
      <trkpt lat="44.29967" lon="5.73452">
        <ele>850.2</ele>
        <time>2021-09-08T08:48:52Z</time>
      </trkpt>
      <trkpt lat="44.29968" lon="5.7345">
        <ele>850.3</ele>
        <time>2021-09-08T08:48:53Z</time>
      </trkpt>
      <trkpt lat="44.29968" lon="5.73447">
        <ele>850.4</ele>
        <time>2021-09-08T08:48:54Z</time>
      </trkpt>
      <trkpt lat="44.29968" lon="5.73445">
        <ele>850.5</ele>
        <time>2021-09-08T08:48:55Z</time>
      </trkpt>
      <trkpt lat="44.29967" lon="5.73443">
        <ele>850.6</ele>
        <time>2021-09-08T08:48:56Z</time>
      </trkpt>
      <trkpt lat="44.29967" lon="5.73441">
        <ele>850.7</ele>
        <time>2021-09-08T08:48:58Z</time>
      </trkpt>
      <trkpt lat="44.29967" lon="5.73441">
        <ele>850.7</ele>
        <time>2021-09-08T08:48:59Z</time>
      </trkpt>
      <trkpt lat="44.29966" lon="5.7344">
        <ele>850.8</ele>
        <time>2021-09-08T08:49:01Z</time>
      </trkpt>
      <trkpt lat="44.29966" lon="5.7344">
        <ele>850.8</ele>
        <time>2021-09-08T08:49:02Z</time>
      </trkpt>
      <trkpt lat="44.29966" lon="5.73439">
        <ele>850.8</ele>
        <time>2021-09-08T08:49:03Z</time>
      </trkpt>
      <trkpt lat="44.29966" lon="5.73439">
        <ele>850.8</ele>
        <time>2021-09-08T08:49:04Z</time>
      </trkpt>
      <trkpt lat="44.29966" lon="5.73439">
        <ele>850.8</ele>
        <time>2021-09-08T08:49:05Z</time>
      </trkpt>
      <trkpt lat="44.29954" lon="5.73434">
        <ele>851.5</ele>
        <time>2021-09-08T08:49:18Z</time>
      </trkpt>
      <trkpt lat="44.29953" lon="5.73433">
        <ele>851.6</ele>
        <time>2021-09-08T08:49:19Z</time>
      </trkpt>
      <trkpt lat="44.29952" lon="5.73431">
        <ele>851.7</ele>
        <time>2021-09-08T08:49:21Z</time>
      </trkpt>
      <trkpt lat="44.29952" lon="5.7343">
        <ele>851.7</ele>
        <time>2021-09-08T08:49:22Z</time>
      </trkpt>
      <trkpt lat="44.29952" lon="5.7343">
        <ele>851.7</ele>
        <time>2021-09-08T08:49:23Z</time>
      </trkpt>
      <trkpt lat="44.29951" lon="5.7343">
        <ele>851.7</ele>
        <time>2021-09-08T08:49:24Z</time>
      </trkpt>
      <trkpt lat="44.29951" lon="5.73429">
        <ele>851.8</ele>
        <time>2021-09-08T08:49:25Z</time>
      </trkpt>
      <trkpt lat="44.2995" lon="5.73429">
        <ele>851.8</ele>
        <time>2021-09-08T08:49:27Z</time>
      </trkpt>
      <trkpt lat="44.2995" lon="5.73429">
        <ele>851.9</ele>
        <time>2021-09-08T08:49:28Z</time>
      </trkpt>
      <trkpt lat="44.29949" lon="5.73429">
        <ele>851.9</ele>
        <time>2021-09-08T08:49:29Z</time>
      </trkpt>
      <trkpt lat="44.29948" lon="5.73428">
        <ele>851.9</ele>
        <time>2021-09-08T08:49:30Z</time>
      </trkpt>
      <trkpt lat="44.29947" lon="5.73428">
        <ele>852</ele>
        <time>2021-09-08T08:49:31Z</time>
      </trkpt>
      <trkpt lat="44.29946" lon="5.73428">
        <ele>852.1</ele>
        <time>2021-09-08T08:49:32Z</time>
      </trkpt>
      <trkpt lat="44.29945" lon="5.73427">
        <ele>852.1</ele>
        <time>2021-09-08T08:49:34Z</time>
      </trkpt>
      <trkpt lat="44.29944" lon="5.73427">
        <ele>852.2</ele>
        <time>2021-09-08T08:49:35Z</time>
      </trkpt>
      <trkpt lat="44.29938" lon="5.73425">
        <ele>852.5</ele>
        <time>2021-09-08T08:49:40Z</time>
      </trkpt>
      <trkpt lat="44.29934" lon="5.73424">
        <ele>852.8</ele>
        <time>2021-09-08T08:49:41Z</time>
      </trkpt>
      <trkpt lat="44.29928" lon="5.73423">
        <ele>853.3</ele>
        <time>2021-09-08T08:49:42Z</time>
      </trkpt>
      <trkpt lat="44.29924" lon="5.73423">
        <ele>853.5</ele>
        <time>2021-09-08T08:49:44Z</time>
      </trkpt>
      <trkpt lat="44.2992" lon="5.73423">
        <ele>853.8</ele>
        <time>2021-09-08T08:49:45Z</time>
      </trkpt>
      <trkpt lat="44.29918" lon="5.73423">
        <ele>854</ele>
        <time>2021-09-08T08:49:46Z</time>
      </trkpt>
      <trkpt lat="44.29918" lon="5.73423">
        <ele>854</ele>
        <time>2021-09-08T08:49:48Z</time>
      </trkpt>
      <trkpt lat="44.29918" lon="5.73423">
        <ele>854</ele>
        <time>2021-09-08T08:49:49Z</time>
      </trkpt>
      <trkpt lat="44.29918" lon="5.73422">
        <ele>854</ele>
        <time>2021-09-08T08:49:50Z</time>
      </trkpt>
      <trkpt lat="44.29918" lon="5.73422">
        <ele>854.1</ele>
        <time>2021-09-08T08:49:52Z</time>
      </trkpt>
      <trkpt lat="44.29901" lon="5.73383">
        <ele>856.7</ele>
        <time>2021-09-08T08:50:22Z</time>
      </trkpt>
      <trkpt lat="44.29902" lon="5.73379">
        <ele>857</ele>
        <time>2021-09-08T08:50:24Z</time>
      </trkpt>
      <trkpt lat="44.29902" lon="5.73376">
        <ele>857.2</ele>
        <time>2021-09-08T08:50:25Z</time>
      </trkpt>
      <trkpt lat="44.29904" lon="5.73374">
        <ele>857.4</ele>
        <time>2021-09-08T08:50:27Z</time>
      </trkpt>
      <trkpt lat="44.29905" lon="5.73373">
        <ele>857.5</ele>
        <time>2021-09-08T08:50:28Z</time>
      </trkpt>
      <trkpt lat="44.29906" lon="5.73372">
        <ele>857.6</ele>
        <time>2021-09-08T08:50:29Z</time>
      </trkpt>
      <trkpt lat="44.29907" lon="5.73371">
        <ele>857.7</ele>
        <time>2021-09-08T08:50:30Z</time>
      </trkpt>
      <trkpt lat="44.29908" lon="5.73369">
        <ele>857.9</ele>
        <time>2021-09-08T08:50:31Z</time>
      </trkpt>
      <trkpt lat="44.2991" lon="5.73367">
        <ele>858</ele>
        <time>2021-09-08T08:50:33Z</time>
      </trkpt>
      <trkpt lat="44.29911" lon="5.73364">
        <ele>858.2</ele>
        <time>2021-09-08T08:50:34Z</time>
      </trkpt>
      <trkpt lat="44.29913" lon="5.73362">
        <ele>858.4</ele>
        <time>2021-09-08T08:50:35Z</time>
      </trkpt>
      <trkpt lat="44.29914" lon="5.7336">
        <ele>858.5</ele>
        <time>2021-09-08T08:50:42Z</time>
      </trkpt>
      <trkpt lat="44.29915" lon="5.73358">
        <ele>858.7</ele>
        <time>2021-09-08T08:50:43Z</time>
      </trkpt>
      <trkpt lat="44.29917" lon="5.73355">
        <ele>858.8</ele>
        <time>2021-09-08T08:50:44Z</time>
      </trkpt>
      <trkpt lat="44.29918" lon="5.73353">
        <ele>859</ele>
        <time>2021-09-08T08:50:46Z</time>
      </trkpt>
      <trkpt lat="44.29918" lon="5.73353">
        <ele>859</ele>
        <time>2021-09-08T08:50:47Z</time>
      </trkpt>
      <trkpt lat="44.29918" lon="5.73353">
        <ele>859</ele>
        <time>2021-09-08T08:50:49Z</time>
      </trkpt>
      <trkpt lat="44.29917" lon="5.73353">
        <ele>859</ele>
        <time>2021-09-08T08:50:50Z</time>
      </trkpt>
      <trkpt lat="44.29916" lon="5.73352">
        <ele>859.1</ele>
        <time>2021-09-08T08:50:51Z</time>
      </trkpt>
      <trkpt lat="44.29915" lon="5.73351">
        <ele>859.2</ele>
        <time>2021-09-08T08:50:52Z</time>
      </trkpt>
      <trkpt lat="44.29914" lon="5.73349">
        <ele>859.3</ele>
        <time>2021-09-08T08:50:55Z</time>
      </trkpt>
      <trkpt lat="44.29857" lon="5.73282">
        <ele>865.6</ele>
        <time>2021-09-08T08:52:23Z</time>
      </trkpt>
      <trkpt lat="44.29854" lon="5.73278">
        <ele>865.9</ele>
        <time>2021-09-08T08:52:24Z</time>
      </trkpt>
      <trkpt lat="44.29853" lon="5.73277">
        <ele>866.1</ele>
        <time>2021-09-08T08:52:26Z</time>
      </trkpt>
      <trkpt lat="44.29852" lon="5.73277">
        <ele>866.2</ele>
        <time>2021-09-08T08:52:27Z</time>
      </trkpt>
      <trkpt lat="44.29852" lon="5.73276">
        <ele>866.2</ele>
        <time>2021-09-08T08:52:28Z</time>
      </trkpt>
      <trkpt lat="44.29851" lon="5.73275">
        <ele>866.3</ele>
        <time>2021-09-08T08:52:29Z</time>
      </trkpt>
      <trkpt lat="44.2985" lon="5.73275">
        <ele>866.4</ele>
        <time>2021-09-08T08:52:31Z</time>
      </trkpt>
      <trkpt lat="44.2985" lon="5.73275">
        <ele>866.4</ele>
        <time>2021-09-08T08:52:32Z</time>
      </trkpt>
      <trkpt lat="44.29849" lon="5.73275">
        <ele>866.5</ele>
        <time>2021-09-08T08:52:33Z</time>
      </trkpt>
      <trkpt lat="44.29849" lon="5.73274">
        <ele>866.5</ele>
        <time>2021-09-08T08:52:34Z</time>
      </trkpt>
      <trkpt lat="44.29848" lon="5.73272">
        <ele>866.7</ele>
        <time>2021-09-08T08:52:35Z</time>
      </trkpt>
      <trkpt lat="44.29848" lon="5.7327">
        <ele>866.8</ele>
        <time>2021-09-08T08:52:37Z</time>
      </trkpt>
      <trkpt lat="44.29847" lon="5.73268">
        <ele>866.9</ele>
        <time>2021-09-08T08:52:38Z</time>
      </trkpt>
      <trkpt lat="44.29847" lon="5.73266">
        <ele>867</ele>
        <time>2021-09-08T08:52:39Z</time>
      </trkpt>
      <trkpt lat="44.29847" lon="5.73263">
        <ele>867.2</ele>
        <time>2021-09-08T08:52:41Z</time>
      </trkpt>
      <trkpt lat="44.29847" lon="5.7326">
        <ele>867.4</ele>
        <time>2021-09-08T08:52:42Z</time>
      </trkpt>
      <trkpt lat="44.29847" lon="5.73258">
        <ele>867.5</ele>
        <time>2021-09-08T08:52:43Z</time>
      </trkpt>
      <trkpt lat="44.29847" lon="5.73257">
        <ele>867.6</ele>
        <time>2021-09-08T08:52:45Z</time>
      </trkpt>
      <trkpt lat="44.29847" lon="5.73256">
        <ele>867.6</ele>
        <time>2021-09-08T08:52:47Z</time>
      </trkpt>
      <trkpt lat="44.29847" lon="5.73254">
        <ele>867.7</ele>
        <time>2021-09-08T08:52:49Z</time>
      </trkpt>
      <trkpt lat="44.29847" lon="5.73253">
        <ele>867.8</ele>
        <time>2021-09-08T08:52:50Z</time>
      </trkpt>
      <trkpt lat="44.29845" lon="5.73249">
        <ele>868.1</ele>
        <time>2021-09-08T08:52:52Z</time>
      </trkpt>
      <trkpt lat="44.29844" lon="5.73247">
        <ele>868.3</ele>
        <time>2021-09-08T08:52:53Z</time>
      </trkpt>
      <trkpt lat="44.29843" lon="5.73245">
        <ele>868.4</ele>
        <time>2021-09-08T08:52:54Z</time>
      </trkpt>
      <trkpt lat="44.29843" lon="5.73243">
        <ele>868.5</ele>
        <time>2021-09-08T08:52:56Z</time>
      </trkpt>
      <trkpt lat="44.29843" lon="5.73242">
        <ele>868.6</ele>
        <time>2021-09-08T08:52:57Z</time>
      </trkpt>
      <trkpt lat="44.29843" lon="5.73241">
        <ele>868.6</ele>
        <time>2021-09-08T08:52:58Z</time>
      </trkpt>
      <trkpt lat="44.29843" lon="5.7324">
        <ele>868.7</ele>
        <time>2021-09-08T08:53:00Z</time>
      </trkpt>
      <trkpt lat="44.29843" lon="5.7324">
        <ele>868.7</ele>
        <time>2021-09-08T08:53:02Z</time>
      </trkpt>
      <trkpt lat="44.29843" lon="5.73239">
        <ele>868.8</ele>
        <time>2021-09-08T08:53:03Z</time>
      </trkpt>
      <trkpt lat="44.29842" lon="5.73236">
        <ele>869</ele>
        <time>2021-09-08T08:53:04Z</time>
      </trkpt>
      <trkpt lat="44.29841" lon="5.73235">
        <ele>869.1</ele>
        <time>2021-09-08T08:53:06Z</time>
      </trkpt>
      <trkpt lat="44.2984" lon="5.73234">
        <ele>869.2</ele>
        <time>2021-09-08T08:53:07Z</time>
      </trkpt>
      <trkpt lat="44.29839" lon="5.73232">
        <ele>869.3</ele>
        <time>2021-09-08T08:53:08Z</time>
      </trkpt>
      <trkpt lat="44.29839" lon="5.73231">
        <ele>869.4</ele>
        <time>2021-09-08T08:53:10Z</time>
      </trkpt>
      <trkpt lat="44.29838" lon="5.73231">
        <ele>869.4</ele>
        <time>2021-09-08T08:53:11Z</time>
      </trkpt>
      <trkpt lat="44.29838" lon="5.7323">
        <ele>869.5</ele>
        <time>2021-09-08T08:53:12Z</time>
      </trkpt>
      <trkpt lat="44.29838" lon="5.7323">
        <ele>869.5</ele>
        <time>2021-09-08T08:53:13Z</time>
      </trkpt>
      <trkpt lat="44.29838" lon="5.73229">
        <ele>869.5</ele>
        <time>2021-09-08T08:53:15Z</time>
      </trkpt>
      <trkpt lat="44.29836" lon="5.7323">
        <ele>869.7</ele>
        <time>2021-09-08T08:53:16Z</time>
      </trkpt>
      <trkpt lat="44.29834" lon="5.7323">
        <ele>869.9</ele>
        <time>2021-09-08T08:53:17Z</time>
      </trkpt>
      <trkpt lat="44.29832" lon="5.7323">
        <ele>870</ele>
        <time>2021-09-08T08:53:19Z</time>
      </trkpt>
      <trkpt lat="44.2983" lon="5.7323">
        <ele>870.2</ele>
        <time>2021-09-08T08:53:21Z</time>
      </trkpt>
      <trkpt lat="44.29828" lon="5.7323">
        <ele>870.4</ele>
        <time>2021-09-08T08:53:22Z</time>
      </trkpt>
      <trkpt lat="44.29828" lon="5.73231">
        <ele>870.4</ele>
        <time>2021-09-08T08:53:24Z</time>
      </trkpt>
      <trkpt lat="44.29827" lon="5.73231">
        <ele>870.5</ele>
        <time>2021-09-08T08:53:25Z</time>
      </trkpt>
      <trkpt lat="44.29826" lon="5.73231">
        <ele>870.5</ele>
        <time>2021-09-08T08:53:26Z</time>
      </trkpt>
      <trkpt lat="44.29826" lon="5.73231">
        <ele>870.6</ele>
        <time>2021-09-08T08:53:27Z</time>
      </trkpt>
      <trkpt lat="44.29826" lon="5.73231">
        <ele>870.6</ele>
        <time>2021-09-08T08:53:29Z</time>
      </trkpt>
      <trkpt lat="44.29825" lon="5.73231">
        <ele>870.6</ele>
        <time>2021-09-08T08:53:31Z</time>
      </trkpt>
      <trkpt lat="44.29825" lon="5.73232">
        <ele>870.7</ele>
        <time>2021-09-08T08:53:32Z</time>
      </trkpt>
      <trkpt lat="44.29823" lon="5.73232">
        <ele>870.9</ele>
        <time>2021-09-08T08:53:33Z</time>
      </trkpt>
      <trkpt lat="44.29819" lon="5.73233">
        <ele>871.2</ele>
        <time>2021-09-08T08:53:35Z</time>
      </trkpt>
      <trkpt lat="44.29818" lon="5.73233">
        <ele>871.3</ele>
        <time>2021-09-08T08:53:36Z</time>
      </trkpt>
      <trkpt lat="44.29817" lon="5.73233">
        <ele>871.4</ele>
        <time>2021-09-08T08:53:37Z</time>
      </trkpt>
      <trkpt lat="44.29815" lon="5.73234">
        <ele>871.5</ele>
        <time>2021-09-08T08:53:38Z</time>
      </trkpt>
      <trkpt lat="44.29813" lon="5.73234">
        <ele>871.7</ele>
        <time>2021-09-08T08:53:40Z</time>
      </trkpt>
      <trkpt lat="44.29812" lon="5.73234">
        <ele>871.8</ele>
        <time>2021-09-08T08:53:41Z</time>
      </trkpt>
      <trkpt lat="44.29811" lon="5.73234">
        <ele>871.9</ele>
        <time>2021-09-08T08:53:43Z</time>
      </trkpt>
      <trkpt lat="44.29811" lon="5.73234">
        <ele>871.9</ele>
        <time>2021-09-08T08:53:44Z</time>
      </trkpt>
      <trkpt lat="44.2981" lon="5.73234">
        <ele>872</ele>
        <time>2021-09-08T08:53:45Z</time>
      </trkpt>
      <trkpt lat="44.29809" lon="5.73234">
        <ele>872.1</ele>
        <time>2021-09-08T08:53:47Z</time>
      </trkpt>
      <trkpt lat="44.29808" lon="5.73234">
        <ele>872.1</ele>
        <time>2021-09-08T08:53:48Z</time>
      </trkpt>
      <trkpt lat="44.29807" lon="5.73234">
        <ele>872.2</ele>
        <time>2021-09-08T08:53:49Z</time>
      </trkpt>
      <trkpt lat="44.29806" lon="5.73234">
        <ele>872.3</ele>
        <time>2021-09-08T08:53:51Z</time>
      </trkpt>
      <trkpt lat="44.29806" lon="5.73234">
        <ele>872.4</ele>
        <time>2021-09-08T08:53:52Z</time>
      </trkpt>
      <trkpt lat="44.29805" lon="5.73234">
        <ele>872.4</ele>
        <time>2021-09-08T08:53:53Z</time>
      </trkpt>
      <trkpt lat="44.29803" lon="5.73233">
        <ele>872.9</ele>
        <time>2021-09-08T08:53:55Z</time>
      </trkpt>
      <trkpt lat="44.29801" lon="5.73232">
        <ele>873</ele>
        <time>2021-09-08T08:53:56Z</time>
      </trkpt>
      <trkpt lat="44.298" lon="5.73232">
        <ele>873.2</ele>
        <time>2021-09-08T08:53:57Z</time>
      </trkpt>
      <trkpt lat="44.29799" lon="5.73232">
        <ele>873.3</ele>
        <time>2021-09-08T08:53:58Z</time>
      </trkpt>
      <trkpt lat="44.29798" lon="5.73231">
        <ele>873.4</ele>
        <time>2021-09-08T08:53:59Z</time>
      </trkpt>
      <trkpt lat="44.29796" lon="5.73231">
        <ele>873.7</ele>
        <time>2021-09-08T08:54:00Z</time>
      </trkpt>
      <trkpt lat="44.29794" lon="5.73231">
        <ele>873.9</ele>
        <time>2021-09-08T08:54:02Z</time>
      </trkpt>
      <trkpt lat="44.29792" lon="5.73231">
        <ele>874.1</ele>
        <time>2021-09-08T08:54:03Z</time>
      </trkpt>
      <trkpt lat="44.29784" lon="5.73228">
        <ele>875</ele>
        <time>2021-09-08T08:54:06Z</time>
      </trkpt>
      <trkpt lat="44.2978" lon="5.73228">
        <ele>875.5</ele>
        <time>2021-09-08T08:54:07Z</time>
      </trkpt>
      <trkpt lat="44.29778" lon="5.73228">
        <ele>875.8</ele>
        <time>2021-09-08T08:54:08Z</time>
      </trkpt>
      <trkpt lat="44.29774" lon="5.73229">
        <ele>876.2</ele>
        <time>2021-09-08T08:54:10Z</time>
      </trkpt>
      <trkpt lat="44.2977" lon="5.73231">
        <ele>876.7</ele>
        <time>2021-09-08T08:54:11Z</time>
      </trkpt>
      <trkpt lat="44.29769" lon="5.73231">
        <ele>876.8</ele>
        <time>2021-09-08T08:54:12Z</time>
      </trkpt>
      <trkpt lat="44.29767" lon="5.73232">
        <ele>877</ele>
        <time>2021-09-08T08:54:13Z</time>
      </trkpt>
      <trkpt lat="44.29764" lon="5.73234">
        <ele>877.3</ele>
        <time>2021-09-08T08:54:14Z</time>
      </trkpt>
      <trkpt lat="44.29763" lon="5.73235">
        <ele>877.4</ele>
        <time>2021-09-08T08:54:15Z</time>
      </trkpt>
      <trkpt lat="44.2976" lon="5.73237">
        <ele>877.8</ele>
        <time>2021-09-08T08:54:16Z</time>
      </trkpt>
      <trkpt lat="44.29759" lon="5.73238">
        <ele>877.9</ele>
        <time>2021-09-08T08:54:17Z</time>
      </trkpt>
      <trkpt lat="44.29758" lon="5.73239">
        <ele>878.1</ele>
        <time>2021-09-08T08:54:19Z</time>
      </trkpt>
      <trkpt lat="44.29757" lon="5.73241">
        <ele>878.2</ele>
        <time>2021-09-08T08:54:20Z</time>
      </trkpt>
      <trkpt lat="44.29755" lon="5.73244">
        <ele>878.5</ele>
        <time>2021-09-08T08:54:22Z</time>
      </trkpt>
      <trkpt lat="44.29754" lon="5.73246">
        <ele>878.7</ele>
        <time>2021-09-08T08:54:23Z</time>
      </trkpt>
      <trkpt lat="44.29751" lon="5.73249">
        <ele>879</ele>
        <time>2021-09-08T08:54:25Z</time>
      </trkpt>
      <trkpt lat="44.2975" lon="5.7325">
        <ele>879.1</ele>
        <time>2021-09-08T08:54:26Z</time>
      </trkpt>
      <trkpt lat="44.29749" lon="5.73251">
        <ele>879.3</ele>
        <time>2021-09-08T08:54:27Z</time>
      </trkpt>
      <trkpt lat="44.29748" lon="5.73252">
        <ele>879.5</ele>
        <time>2021-09-08T08:54:28Z</time>
      </trkpt>
      <trkpt lat="44.29745" lon="5.73256">
        <ele>879.9</ele>
        <time>2021-09-08T08:54:30Z</time>
      </trkpt>
      <trkpt lat="44.29744" lon="5.73258">
        <ele>880</ele>
        <time>2021-09-08T08:54:31Z</time>
      </trkpt>
      <trkpt lat="44.29742" lon="5.73261">
        <ele>880.3</ele>
        <time>2021-09-08T08:54:33Z</time>
      </trkpt>
      <trkpt lat="44.29742" lon="5.73263">
        <ele>880.4</ele>
        <time>2021-09-08T08:54:34Z</time>
      </trkpt>
      <trkpt lat="44.29741" lon="5.73264">
        <ele>880.5</ele>
        <time>2021-09-08T08:54:36Z</time>
      </trkpt>
      <trkpt lat="44.29741" lon="5.73264">
        <ele>880.5</ele>
        <time>2021-09-08T08:54:37Z</time>
      </trkpt>
      <trkpt lat="44.2974" lon="5.73263">
        <ele>880.6</ele>
        <time>2021-09-08T08:54:39Z</time>
      </trkpt>
      <trkpt lat="44.2974" lon="5.73263">
        <ele>880.7</ele>
        <time>2021-09-08T08:54:40Z</time>
      </trkpt>
      <trkpt lat="44.29739" lon="5.73263">
        <ele>880.8</ele>
        <time>2021-09-08T08:54:41Z</time>
      </trkpt>
      <trkpt lat="44.29738" lon="5.73263">
        <ele>880.8</ele>
        <time>2021-09-08T08:54:42Z</time>
      </trkpt>
      <trkpt lat="44.29738" lon="5.73263">
        <ele>880.9</ele>
        <time>2021-09-08T08:54:43Z</time>
      </trkpt>
      <trkpt lat="44.29737" lon="5.73264">
        <ele>880.9</ele>
        <time>2021-09-08T08:54:44Z</time>
      </trkpt>
      <trkpt lat="44.29737" lon="5.73264">
        <ele>880.9</ele>
        <time>2021-09-08T08:54:45Z</time>
      </trkpt>
      <trkpt lat="44.29737" lon="5.73264">
        <ele>881</ele>
        <time>2021-09-08T08:54:46Z</time>
      </trkpt>
      <trkpt lat="44.29736" lon="5.73266">
        <ele>881.1</ele>
        <time>2021-09-08T08:54:48Z</time>
      </trkpt>
      <trkpt lat="44.29735" lon="5.73267">
        <ele>881.2</ele>
        <time>2021-09-08T08:54:49Z</time>
      </trkpt>
      <trkpt lat="44.29734" lon="5.73269">
        <ele>881.4</ele>
        <time>2021-09-08T08:54:51Z</time>
      </trkpt>
      <trkpt lat="44.29668" lon="5.7325">
        <ele>889.1</ele>
        <time>2021-09-08T08:55:56Z</time>
      </trkpt>
      <trkpt lat="44.29667" lon="5.73249">
        <ele>889.3</ele>
        <time>2021-09-08T08:55:57Z</time>
      </trkpt>
      <trkpt lat="44.29666" lon="5.73248">
        <ele>889.3</ele>
        <time>2021-09-08T08:55:58Z</time>
      </trkpt>
      <trkpt lat="44.29665" lon="5.73248">
        <ele>889.4</ele>
        <time>2021-09-08T08:55:59Z</time>
      </trkpt>
      <trkpt lat="44.29664" lon="5.73248">
        <ele>889.5</ele>
        <time>2021-09-08T08:56:00Z</time>
      </trkpt>
      <trkpt lat="44.29664" lon="5.73247">
        <ele>889.6</ele>
        <time>2021-09-08T08:56:02Z</time>
      </trkpt>
      <trkpt lat="44.29664" lon="5.73247">
        <ele>889.6</ele>
        <time>2021-09-08T08:56:03Z</time>
      </trkpt>
      <trkpt lat="44.29663" lon="5.73247">
        <ele>889.7</ele>
        <time>2021-09-08T08:56:04Z</time>
      </trkpt>
      <trkpt lat="44.29662" lon="5.73247">
        <ele>889.8</ele>
        <time>2021-09-08T08:56:05Z</time>
      </trkpt>
      <trkpt lat="44.29662" lon="5.73247">
        <ele>889.9</ele>
        <time>2021-09-08T08:56:07Z</time>
      </trkpt>
      <trkpt lat="44.29661" lon="5.73247">
        <ele>889.9</ele>
        <time>2021-09-08T08:56:08Z</time>
      </trkpt>
      <trkpt lat="44.29661" lon="5.73247">
        <ele>890</ele>
        <time>2021-09-08T08:56:10Z</time>
      </trkpt>
      <trkpt lat="44.2966" lon="5.73247">
        <ele>890</ele>
        <time>2021-09-08T08:56:11Z</time>
      </trkpt>
      <trkpt lat="44.2966" lon="5.73248">
        <ele>890</ele>
        <time>2021-09-08T08:56:12Z</time>
      </trkpt>
      <trkpt lat="44.2966" lon="5.73248">
        <ele>890</ele>
        <time>2021-09-08T08:56:14Z</time>
      </trkpt>
      <trkpt lat="44.29659" lon="5.73248">
        <ele>890.2</ele>
        <time>2021-09-08T08:56:15Z</time>
      </trkpt>
      <trkpt lat="44.29658" lon="5.73247">
        <ele>890.3</ele>
        <time>2021-09-08T08:56:17Z</time>
      </trkpt>
      <trkpt lat="44.29656" lon="5.73246">
        <ele>890.5</ele>
        <time>2021-09-08T08:56:19Z</time>
      </trkpt>
      <trkpt lat="44.29655" lon="5.73245">
        <ele>890.6</ele>
        <time>2021-09-08T08:56:22Z</time>
      </trkpt>
      <trkpt lat="44.29655" lon="5.73245">
        <ele>890.6</ele>
        <time>2021-09-08T08:56:23Z</time>
      </trkpt>
      <trkpt lat="44.29655" lon="5.73244">
        <ele>890.7</ele>
        <time>2021-09-08T08:56:24Z</time>
      </trkpt>
      <trkpt lat="44.29655" lon="5.73244">
        <ele>890.7</ele>
        <time>2021-09-08T08:56:25Z</time>
      </trkpt>
      <trkpt lat="44.29654" lon="5.73244">
        <ele>890.8</ele>
        <time>2021-09-08T08:56:28Z</time>
      </trkpt>
      <trkpt lat="44.29655" lon="5.73243">
        <ele>890.8</ele>
        <time>2021-09-08T08:56:29Z</time>
      </trkpt>
      <trkpt lat="44.29655" lon="5.7324">
        <ele>891.1</ele>
        <time>2021-09-08T08:56:31Z</time>
      </trkpt>
      <trkpt lat="44.29655" lon="5.73236">
        <ele>891.4</ele>
        <time>2021-09-08T08:56:34Z</time>
      </trkpt>
      <trkpt lat="44.29656" lon="5.7323">
        <ele>891.7</ele>
        <time>2021-09-08T08:56:36Z</time>
      </trkpt>
      <trkpt lat="44.29656" lon="5.73229">
        <ele>891.8</ele>
        <time>2021-09-08T08:56:37Z</time>
      </trkpt>
      <trkpt lat="44.29656" lon="5.73228">
        <ele>891.9</ele>
        <time>2021-09-08T08:56:39Z</time>
      </trkpt>
      <trkpt lat="44.29656" lon="5.73228">
        <ele>891.9</ele>
        <time>2021-09-08T08:56:40Z</time>
      </trkpt>
      <trkpt lat="44.29656" lon="5.73228">
        <ele>891.9</ele>
        <time>2021-09-08T08:56:41Z</time>
      </trkpt>
      <trkpt lat="44.29656" lon="5.73228">
        <ele>891.9</ele>
        <time>2021-09-08T08:56:43Z</time>
      </trkpt>
      <trkpt lat="44.29656" lon="5.73228">
        <ele>891.9</ele>
        <time>2021-09-08T08:56:45Z</time>
      </trkpt>
      <trkpt lat="44.29656" lon="5.73228">
        <ele>891.9</ele>
        <time>2021-09-08T08:56:46Z</time>
      </trkpt>
      <trkpt lat="44.29656" lon="5.73228">
        <ele>891.9</ele>
        <time>2021-09-08T08:56:47Z</time>
      </trkpt>
      <trkpt lat="44.29656" lon="5.73228">
        <ele>891.9</ele>
        <time>2021-09-08T08:56:49Z</time>
      </trkpt>
      <trkpt lat="44.29656" lon="5.73228">
        <ele>891.9</ele>
        <time>2021-09-08T08:56:51Z</time>
      </trkpt>
      <trkpt lat="44.29656" lon="5.73228">
        <ele>891.9</ele>
        <time>2021-09-08T08:56:52Z</time>
      </trkpt>
      <trkpt lat="44.29654" lon="5.73226">
        <ele>892.1</ele>
        <time>2021-09-08T08:56:53Z</time>
      </trkpt>
      <trkpt lat="44.29651" lon="5.73222">
        <ele>892.6</ele>
        <time>2021-09-08T08:56:55Z</time>
      </trkpt>
      <trkpt lat="44.29646" lon="5.73221">
        <ele>893</ele>
        <time>2021-09-08T08:56:57Z</time>
      </trkpt>
      <trkpt lat="44.29645" lon="5.73221">
        <ele>893.2</ele>
        <time>2021-09-08T08:56:58Z</time>
      </trkpt>
      <trkpt lat="44.29644" lon="5.73221">
        <ele>893.3</ele>
        <time>2021-09-08T08:56:59Z</time>
      </trkpt>
      <trkpt lat="44.29642" lon="5.7322">
        <ele>893.4</ele>
        <time>2021-09-08T08:57:00Z</time>
      </trkpt>
      <trkpt lat="44.29639" lon="5.73219">
        <ele>893.8</ele>
        <time>2021-09-08T08:57:02Z</time>
      </trkpt>
      <trkpt lat="44.29636" lon="5.73219">
        <ele>894.1</ele>
        <time>2021-09-08T08:57:03Z</time>
      </trkpt>
      <trkpt lat="44.29634" lon="5.73219">
        <ele>894.3</ele>
        <time>2021-09-08T08:57:04Z</time>
      </trkpt>
      <trkpt lat="44.29634" lon="5.73219">
        <ele>894.3</ele>
        <time>2021-09-08T08:57:05Z</time>
      </trkpt>
      <trkpt lat="44.29634" lon="5.73219">
        <ele>894.4</ele>
        <time>2021-09-08T08:57:06Z</time>
      </trkpt>
      <trkpt lat="44.29634" lon="5.73219">
        <ele>894.4</ele>
        <time>2021-09-08T08:57:08Z</time>
      </trkpt>
      <trkpt lat="44.29634" lon="5.73218">
        <ele>894.4</ele>
        <time>2021-09-08T08:57:09Z</time>
      </trkpt>
      <trkpt lat="44.29634" lon="5.73218">
        <ele>894.4</ele>
        <time>2021-09-08T08:57:11Z</time>
      </trkpt>
      <trkpt lat="44.29634" lon="5.73218">
        <ele>894.5</ele>
        <time>2021-09-08T08:57:12Z</time>
      </trkpt>
      <trkpt lat="44.29634" lon="5.73218">
        <ele>894.5</ele>
        <time>2021-09-08T08:57:13Z</time>
      </trkpt>
      <trkpt lat="44.29634" lon="5.73217">
        <ele>894.5</ele>
        <time>2021-09-08T08:57:14Z</time>
      </trkpt>
      <trkpt lat="44.29634" lon="5.73215">
        <ele>894.7</ele>
        <time>2021-09-08T08:57:15Z</time>
      </trkpt>
      <trkpt lat="44.29634" lon="5.73213">
        <ele>894.9</ele>
        <time>2021-09-08T08:57:17Z</time>
      </trkpt>
      <trkpt lat="44.29634" lon="5.73211">
        <ele>895</ele>
        <time>2021-09-08T08:57:18Z</time>
      </trkpt>
      <trkpt lat="44.29633" lon="5.7321">
        <ele>895.1</ele>
        <time>2021-09-08T08:57:19Z</time>
      </trkpt>
      <trkpt lat="44.29613" lon="5.73155">
        <ele>899.7</ele>
        <time>2021-09-08T08:58:15Z</time>
      </trkpt>
      <trkpt lat="44.29612" lon="5.73151">
        <ele>900</ele>
        <time>2021-09-08T08:58:16Z</time>
      </trkpt>
      <trkpt lat="44.2961" lon="5.73146">
        <ele>900.4</ele>
        <time>2021-09-08T08:58:17Z</time>
      </trkpt>
      <trkpt lat="44.29609" lon="5.73141">
        <ele>900.8</ele>
        <time>2021-09-08T08:58:19Z</time>
      </trkpt>
      <trkpt lat="44.29609" lon="5.73137">
        <ele>901.2</ele>
        <time>2021-09-08T08:58:20Z</time>
      </trkpt>
      <trkpt lat="44.29608" lon="5.73133">
        <ele>901.5</ele>
        <time>2021-09-08T08:58:22Z</time>
      </trkpt>
      <trkpt lat="44.29608" lon="5.7313">
        <ele>901.7</ele>
        <time>2021-09-08T08:58:23Z</time>
      </trkpt>
      <trkpt lat="44.29608" lon="5.73128">
        <ele>901.8</ele>
        <time>2021-09-08T08:58:24Z</time>
      </trkpt>
      <trkpt lat="44.29608" lon="5.73127">
        <ele>901.9</ele>
        <time>2021-09-08T08:58:25Z</time>
      </trkpt>
      <trkpt lat="44.29608" lon="5.73127">
        <ele>902</ele>
        <time>2021-09-08T08:58:26Z</time>
      </trkpt>
      <trkpt lat="44.29608" lon="5.73126">
        <ele>902</ele>
        <time>2021-09-08T08:58:28Z</time>
      </trkpt>
      <trkpt lat="44.29608" lon="5.73125">
        <ele>902.1</ele>
        <time>2021-09-08T08:58:29Z</time>
      </trkpt>
      <trkpt lat="44.29608" lon="5.73124">
        <ele>902.2</ele>
        <time>2021-09-08T08:58:31Z</time>
      </trkpt>
      <trkpt lat="44.29607" lon="5.73124">
        <ele>902.2</ele>
        <time>2021-09-08T08:58:33Z</time>
      </trkpt>
      <trkpt lat="44.2961" lon="5.73114">
        <ele>903.1</ele>
        <time>2021-09-08T08:58:39Z</time>
      </trkpt>
      <trkpt lat="44.29611" lon="5.7311">
        <ele>903.4</ele>
        <time>2021-09-08T08:58:41Z</time>
      </trkpt>
      <trkpt lat="44.29612" lon="5.73107">
        <ele>903.7</ele>
        <time>2021-09-08T08:58:43Z</time>
      </trkpt>
      <trkpt lat="44.29612" lon="5.73105">
        <ele>903.9</ele>
        <time>2021-09-08T08:58:45Z</time>
      </trkpt>
      <trkpt lat="44.29612" lon="5.73102">
        <ele>904</ele>
        <time>2021-09-08T08:58:46Z</time>
      </trkpt>
      <trkpt lat="44.29612" lon="5.731">
        <ele>904.2</ele>
        <time>2021-09-08T08:58:47Z</time>
      </trkpt>
      <trkpt lat="44.29612" lon="5.73099">
        <ele>904.3</ele>
        <time>2021-09-08T08:58:49Z</time>
      </trkpt>
      <trkpt lat="44.29612" lon="5.73097">
        <ele>904.5</ele>
        <time>2021-09-08T08:58:51Z</time>
      </trkpt>
      <trkpt lat="44.29612" lon="5.73095">
        <ele>904.6</ele>
        <time>2021-09-08T08:58:52Z</time>
      </trkpt>
      <trkpt lat="44.29612" lon="5.7309">
        <ele>905</ele>
        <time>2021-09-08T08:58:54Z</time>
      </trkpt>
      <trkpt lat="44.29612" lon="5.73089">
        <ele>905</ele>
        <time>2021-09-08T08:58:55Z</time>
      </trkpt>
      <trkpt lat="44.29612" lon="5.73089">
        <ele>905.1</ele>
        <time>2021-09-08T08:58:57Z</time>
      </trkpt>
      <trkpt lat="44.29612" lon="5.73088">
        <ele>905.1</ele>
        <time>2021-09-08T08:58:58Z</time>
      </trkpt>
      <trkpt lat="44.29612" lon="5.73087">
        <ele>905.2</ele>
        <time>2021-09-08T08:58:59Z</time>
      </trkpt>
      <trkpt lat="44.29611" lon="5.73087">
        <ele>905.2</ele>
        <time>2021-09-08T08:59:01Z</time>
      </trkpt>
      <trkpt lat="44.29611" lon="5.73086">
        <ele>905.3</ele>
        <time>2021-09-08T08:59:03Z</time>
      </trkpt>
      <trkpt lat="44.29611" lon="5.73085">
        <ele>905.3</ele>
        <time>2021-09-08T08:59:04Z</time>
      </trkpt>
      <trkpt lat="44.29611" lon="5.73085">
        <ele>905.4</ele>
        <time>2021-09-08T08:59:06Z</time>
      </trkpt>
      <trkpt lat="44.29611" lon="5.73084">
        <ele>905.4</ele>
        <time>2021-09-08T08:59:07Z</time>
      </trkpt>
      <trkpt lat="44.29611" lon="5.73083">
        <ele>905.5</ele>
        <time>2021-09-08T08:59:08Z</time>
      </trkpt>
      <trkpt lat="44.29611" lon="5.73083">
        <ele>905.5</ele>
        <time>2021-09-08T08:59:09Z</time>
      </trkpt>
      <trkpt lat="44.29611" lon="5.73082">
        <ele>905.6</ele>
        <time>2021-09-08T08:59:10Z</time>
      </trkpt>
      <trkpt lat="44.29611" lon="5.73081">
        <ele>905.6</ele>
        <time>2021-09-08T08:59:12Z</time>
      </trkpt>
      <trkpt lat="44.2961" lon="5.73081">
        <ele>905.7</ele>
        <time>2021-09-08T08:59:13Z</time>
      </trkpt>
      <trkpt lat="44.2961" lon="5.7308">
        <ele>905.8</ele>
        <time>2021-09-08T08:59:14Z</time>
      </trkpt>
      <trkpt lat="44.2961" lon="5.73079">
        <ele>905.8</ele>
        <time>2021-09-08T08:59:16Z</time>
      </trkpt>
      <trkpt lat="44.2961" lon="5.73079">
        <ele>905.9</ele>
        <time>2021-09-08T08:59:17Z</time>
      </trkpt>
      <trkpt lat="44.2961" lon="5.73078">
        <ele>905.9</ele>
        <time>2021-09-08T08:59:19Z</time>
      </trkpt>
      <trkpt lat="44.2961" lon="5.73077">
        <ele>906</ele>
        <time>2021-09-08T08:59:20Z</time>
      </trkpt>
      <trkpt lat="44.29608" lon="5.73074">
        <ele>906.3</ele>
        <time>2021-09-08T08:59:22Z</time>
      </trkpt>
      <trkpt lat="44.29608" lon="5.73073">
        <ele>906.4</ele>
        <time>2021-09-08T08:59:23Z</time>
      </trkpt>
      <trkpt lat="44.29607" lon="5.73072">
        <ele>906.5</ele>
        <time>2021-09-08T08:59:24Z</time>
      </trkpt>
      <trkpt lat="44.29607" lon="5.73071">
        <ele>906.5</ele>
        <time>2021-09-08T08:59:26Z</time>
      </trkpt>
      <trkpt lat="44.29606" lon="5.73071">
        <ele>906.6</ele>
        <time>2021-09-08T08:59:27Z</time>
      </trkpt>
      <trkpt lat="44.29606" lon="5.7307">
        <ele>906.6</ele>
        <time>2021-09-08T08:59:29Z</time>
      </trkpt>
      <trkpt lat="44.29606" lon="5.7307">
        <ele>906.6</ele>
        <time>2021-09-08T08:59:30Z</time>
      </trkpt>
      <trkpt lat="44.29606" lon="5.7307">
        <ele>906.7</ele>
        <time>2021-09-08T08:59:31Z</time>
      </trkpt>
      <trkpt lat="44.29605" lon="5.73068">
        <ele>906.8</ele>
        <time>2021-09-08T08:59:33Z</time>
      </trkpt>
      <trkpt lat="44.29605" lon="5.73066">
        <ele>907</ele>
        <time>2021-09-08T08:59:34Z</time>
      </trkpt>
      <trkpt lat="44.29604" lon="5.73064">
        <ele>907.1</ele>
        <time>2021-09-08T08:59:35Z</time>
      </trkpt>
      <trkpt lat="44.29603" lon="5.7306">
        <ele>907.5</ele>
        <time>2021-09-08T08:59:37Z</time>
      </trkpt>
      <trkpt lat="44.29603" lon="5.73059">
        <ele>907.6</ele>
        <time>2021-09-08T08:59:38Z</time>
      </trkpt>
      <trkpt lat="44.29603" lon="5.73056">
        <ele>907.8</ele>
        <time>2021-09-08T08:59:40Z</time>
      </trkpt>
      <trkpt lat="44.29602" lon="5.73055">
        <ele>907.9</ele>
        <time>2021-09-08T08:59:41Z</time>
      </trkpt>
      <trkpt lat="44.29602" lon="5.73054">
        <ele>908</ele>
        <time>2021-09-08T08:59:42Z</time>
      </trkpt>
      <trkpt lat="44.29602" lon="5.73053">
        <ele>908.1</ele>
        <time>2021-09-08T08:59:45Z</time>
      </trkpt>
      <trkpt lat="44.29602" lon="5.73051">
        <ele>908.2</ele>
        <time>2021-09-08T08:59:46Z</time>
      </trkpt>
      <trkpt lat="44.29601" lon="5.7305">
        <ele>908.2</ele>
        <time>2021-09-08T08:59:47Z</time>
      </trkpt>
      <trkpt lat="44.29601" lon="5.73049">
        <ele>908.3</ele>
        <time>2021-09-08T08:59:48Z</time>
      </trkpt>
      <trkpt lat="44.296" lon="5.73047">
        <ele>908.5</ele>
        <time>2021-09-08T08:59:49Z</time>
      </trkpt>
      <trkpt lat="44.296" lon="5.73045">
        <ele>908.7</ele>
        <time>2021-09-08T08:59:51Z</time>
      </trkpt>
      <trkpt lat="44.296" lon="5.73044">
        <ele>908.8</ele>
        <time>2021-09-08T08:59:52Z</time>
      </trkpt>
      <trkpt lat="44.29599" lon="5.73043">
        <ele>908.8</ele>
        <time>2021-09-08T08:59:53Z</time>
      </trkpt>
      <trkpt lat="44.29599" lon="5.73043">
        <ele>908.9</ele>
        <time>2021-09-08T08:59:55Z</time>
      </trkpt>
      <trkpt lat="44.29599" lon="5.73041">
        <ele>909</ele>
        <time>2021-09-08T08:59:56Z</time>
      </trkpt>
      <trkpt lat="44.29599" lon="5.73036">
        <ele>909.4</ele>
        <time>2021-09-08T08:59:57Z</time>
      </trkpt>
      <trkpt lat="44.29599" lon="5.73035">
        <ele>909.4</ele>
        <time>2021-09-08T08:59:58Z</time>
      </trkpt>
      <trkpt lat="44.29599" lon="5.73033">
        <ele>909.6</ele>
        <time>2021-09-08T09:00:00Z</time>
      </trkpt>
      <trkpt lat="44.29598" lon="5.73032">
        <ele>909.7</ele>
        <time>2021-09-08T09:00:01Z</time>
      </trkpt>
      <trkpt lat="44.29598" lon="5.7303">
        <ele>909.8</ele>
        <time>2021-09-08T09:00:02Z</time>
      </trkpt>
      <trkpt lat="44.29598" lon="5.7303">
        <ele>909.9</ele>
        <time>2021-09-08T09:00:04Z</time>
      </trkpt>
      <trkpt lat="44.29598" lon="5.73029">
        <ele>909.9</ele>
        <time>2021-09-08T09:00:05Z</time>
      </trkpt>
      <trkpt lat="44.29598" lon="5.73028">
        <ele>910</ele>
        <time>2021-09-08T09:00:06Z</time>
      </trkpt>
      <trkpt lat="44.29596" lon="5.73028">
        <ele>910.2</ele>
        <time>2021-09-08T09:00:07Z</time>
      </trkpt>
      <trkpt lat="44.29595" lon="5.73027">
        <ele>910.3</ele>
        <time>2021-09-08T09:00:09Z</time>
      </trkpt>
      <trkpt lat="44.29593" lon="5.73028">
        <ele>910.5</ele>
        <time>2021-09-08T09:00:10Z</time>
      </trkpt>
      <trkpt lat="44.29592" lon="5.73028">
        <ele>910.6</ele>
        <time>2021-09-08T09:00:11Z</time>
      </trkpt>
      <trkpt lat="44.29591" lon="5.73028">
        <ele>910.7</ele>
        <time>2021-09-08T09:00:13Z</time>
      </trkpt>
      <trkpt lat="44.29591" lon="5.73028">
        <ele>910.8</ele>
        <time>2021-09-08T09:00:14Z</time>
      </trkpt>
      <trkpt lat="44.2959" lon="5.73028">
        <ele>910.8</ele>
        <time>2021-09-08T09:00:15Z</time>
      </trkpt>
      <trkpt lat="44.2959" lon="5.73028">
        <ele>910.8</ele>
        <time>2021-09-08T09:00:16Z</time>
      </trkpt>
      <trkpt lat="44.2959" lon="5.73028">
        <ele>910.8</ele>
        <time>2021-09-08T09:00:18Z</time>
      </trkpt>
      <trkpt lat="44.2959" lon="5.73027">
        <ele>910.8</ele>
        <time>2021-09-08T09:00:19Z</time>
      </trkpt>
      <trkpt lat="44.29589" lon="5.73027">
        <ele>910.9</ele>
        <time>2021-09-08T09:00:20Z</time>
      </trkpt>
      <trkpt lat="44.29589" lon="5.73028">
        <ele>910.9</ele>
        <time>2021-09-08T09:00:21Z</time>
      </trkpt>
      <trkpt lat="44.29589" lon="5.7303">
        <ele>911.1</ele>
        <time>2021-09-08T09:00:23Z</time>
      </trkpt>
      <trkpt lat="44.29589" lon="5.73032">
        <ele>911.3</ele>
        <time>2021-09-08T09:00:24Z</time>
      </trkpt>
      <trkpt lat="44.29589" lon="5.73034">
        <ele>911.4</ele>
        <time>2021-09-08T09:00:25Z</time>
      </trkpt>
      <trkpt lat="44.2959" lon="5.73038">
        <ele>911.6</ele>
        <time>2021-09-08T09:00:26Z</time>
      </trkpt>
      <trkpt lat="44.2959" lon="5.7304">
        <ele>911.8</ele>
        <time>2021-09-08T09:00:28Z</time>
      </trkpt>
      <trkpt lat="44.2959" lon="5.73041">
        <ele>911.9</ele>
        <time>2021-09-08T09:00:29Z</time>
      </trkpt>
      <trkpt lat="44.2959" lon="5.73043">
        <ele>912</ele>
        <time>2021-09-08T09:00:31Z</time>
      </trkpt>
      <trkpt lat="44.2959" lon="5.73045">
        <ele>912.2</ele>
        <time>2021-09-08T09:00:33Z</time>
      </trkpt>
      <trkpt lat="44.2959" lon="5.73047">
        <ele>912.3</ele>
        <time>2021-09-08T09:00:34Z</time>
      </trkpt>
      <trkpt lat="44.2959" lon="5.73049">
        <ele>912.4</ele>
        <time>2021-09-08T09:00:35Z</time>
      </trkpt>
      <trkpt lat="44.29589" lon="5.73051">
        <ele>912.5</ele>
        <time>2021-09-08T09:00:37Z</time>
      </trkpt>
      <trkpt lat="44.29589" lon="5.73054">
        <ele>912.8</ele>
        <time>2021-09-08T09:00:38Z</time>
      </trkpt>
      <trkpt lat="44.29589" lon="5.73056">
        <ele>912.9</ele>
        <time>2021-09-08T09:00:40Z</time>
      </trkpt>
      <trkpt lat="44.29588" lon="5.73058">
        <ele>913</ele>
        <time>2021-09-08T09:00:42Z</time>
      </trkpt>
      <trkpt lat="44.29588" lon="5.73059">
        <ele>913.1</ele>
        <time>2021-09-08T09:00:43Z</time>
      </trkpt>
      <trkpt lat="44.29588" lon="5.73061">
        <ele>913.3</ele>
        <time>2021-09-08T09:00:44Z</time>
      </trkpt>
      <trkpt lat="44.29587" lon="5.73062">
        <ele>913.3</ele>
        <time>2021-09-08T09:00:46Z</time>
      </trkpt>
      <trkpt lat="44.29587" lon="5.73063">
        <ele>913.4</ele>
        <time>2021-09-08T09:00:47Z</time>
      </trkpt>
      <trkpt lat="44.29587" lon="5.73065">
        <ele>913.6</ele>
        <time>2021-09-08T09:00:48Z</time>
      </trkpt>
      <trkpt lat="44.29586" lon="5.73067">
        <ele>913.7</ele>
        <time>2021-09-08T09:00:50Z</time>
      </trkpt>
      <trkpt lat="44.29585" lon="5.73069">
        <ele>913.9</ele>
        <time>2021-09-08T09:00:51Z</time>
      </trkpt>
      <trkpt lat="44.29585" lon="5.73071">
        <ele>914</ele>
        <time>2021-09-08T09:00:52Z</time>
      </trkpt>
      <trkpt lat="44.29584" lon="5.73073">
        <ele>914.2</ele>
        <time>2021-09-08T09:00:53Z</time>
      </trkpt>
      <trkpt lat="44.29582" lon="5.73077">
        <ele>914.5</ele>
        <time>2021-09-08T09:00:54Z</time>
      </trkpt>
      <trkpt lat="44.29582" lon="5.73078">
        <ele>914.6</ele>
        <time>2021-09-08T09:00:56Z</time>
      </trkpt>
      <trkpt lat="44.29581" lon="5.7308">
        <ele>914.8</ele>
        <time>2021-09-08T09:00:57Z</time>
      </trkpt>
      <trkpt lat="44.2958" lon="5.73082">
        <ele>914.9</ele>
        <time>2021-09-08T09:00:58Z</time>
      </trkpt>
      <trkpt lat="44.29579" lon="5.73083">
        <ele>915</ele>
        <time>2021-09-08T09:01:00Z</time>
      </trkpt>
      <trkpt lat="44.29579" lon="5.73084">
        <ele>915.1</ele>
        <time>2021-09-08T09:01:01Z</time>
      </trkpt>
      <trkpt lat="44.29578" lon="5.73085">
        <ele>915.2</ele>
        <time>2021-09-08T09:01:03Z</time>
      </trkpt>
      <trkpt lat="44.29578" lon="5.73086">
        <ele>915.2</ele>
        <time>2021-09-08T09:01:05Z</time>
      </trkpt>
      <trkpt lat="44.29578" lon="5.73086">
        <ele>915.3</ele>
        <time>2021-09-08T09:01:06Z</time>
      </trkpt>
      <trkpt lat="44.29577" lon="5.73089">
        <ele>915.5</ele>
        <time>2021-09-08T09:01:07Z</time>
      </trkpt>
      <trkpt lat="44.29575" lon="5.73092">
        <ele>915.8</ele>
        <time>2021-09-08T09:01:09Z</time>
      </trkpt>
      <trkpt lat="44.29574" lon="5.73093">
        <ele>915.9</ele>
        <time>2021-09-08T09:01:10Z</time>
      </trkpt>
      <trkpt lat="44.29573" lon="5.73095">
        <ele>916.1</ele>
        <time>2021-09-08T09:01:11Z</time>
      </trkpt>
      <trkpt lat="44.29573" lon="5.73097">
        <ele>916.2</ele>
        <time>2021-09-08T09:01:12Z</time>
      </trkpt>
      <trkpt lat="44.29572" lon="5.73099">
        <ele>916.4</ele>
        <time>2021-09-08T09:01:14Z</time>
      </trkpt>
      <trkpt lat="44.29571" lon="5.731">
        <ele>916.5</ele>
        <time>2021-09-08T09:01:15Z</time>
      </trkpt>
      <trkpt lat="44.2957" lon="5.73103">
        <ele>916.8</ele>
        <time>2021-09-08T09:01:17Z</time>
      </trkpt>
      <trkpt lat="44.2957" lon="5.73104">
        <ele>916.9</ele>
        <time>2021-09-08T09:01:18Z</time>
      </trkpt>
      <trkpt lat="44.2957" lon="5.73105">
        <ele>917</ele>
        <time>2021-09-08T09:01:19Z</time>
      </trkpt>
      <trkpt lat="44.2957" lon="5.73107">
        <ele>917.1</ele>
        <time>2021-09-08T09:01:21Z</time>
      </trkpt>
      <trkpt lat="44.29569" lon="5.73108">
        <ele>917.2</ele>
        <time>2021-09-08T09:01:22Z</time>
      </trkpt>
      <trkpt lat="44.29569" lon="5.7311">
        <ele>917.4</ele>
        <time>2021-09-08T09:01:23Z</time>
      </trkpt>
      <trkpt lat="44.29569" lon="5.73111">
        <ele>917.4</ele>
        <time>2021-09-08T09:01:25Z</time>
      </trkpt>
      <trkpt lat="44.29569" lon="5.73111">
        <ele>917.5</ele>
        <time>2021-09-08T09:01:26Z</time>
      </trkpt>
      <trkpt lat="44.29569" lon="5.73112">
        <ele>917.5</ele>
        <time>2021-09-08T09:01:27Z</time>
      </trkpt>
      <trkpt lat="44.29569" lon="5.73112">
        <ele>917.5</ele>
        <time>2021-09-08T09:01:29Z</time>
      </trkpt>
      <trkpt lat="44.29569" lon="5.73112">
        <ele>917.5</ele>
        <time>2021-09-08T09:01:30Z</time>
      </trkpt>
      <trkpt lat="44.29569" lon="5.73112">
        <ele>917.5</ele>
        <time>2021-09-08T09:01:31Z</time>
      </trkpt>
      <trkpt lat="44.29569" lon="5.73112">
        <ele>917.6</ele>
        <time>2021-09-08T09:01:32Z</time>
      </trkpt>
      <trkpt lat="44.29569" lon="5.73113">
        <ele>917.6</ele>
        <time>2021-09-08T09:01:33Z</time>
      </trkpt>
      <trkpt lat="44.29568" lon="5.73115">
        <ele>917.8</ele>
        <time>2021-09-08T09:01:35Z</time>
      </trkpt>
      <trkpt lat="44.29567" lon="5.73116">
        <ele>917.9</ele>
        <time>2021-09-08T09:01:36Z</time>
      </trkpt>
      <trkpt lat="44.29566" lon="5.73119">
        <ele>918.2</ele>
        <time>2021-09-08T09:01:37Z</time>
      </trkpt>
      <trkpt lat="44.29566" lon="5.73121">
        <ele>918.4</ele>
        <time>2021-09-08T09:01:39Z</time>
      </trkpt>
      <trkpt lat="44.29565" lon="5.73122">
        <ele>918.5</ele>
        <time>2021-09-08T09:01:40Z</time>
      </trkpt>
      <trkpt lat="44.29565" lon="5.73124">
        <ele>918.6</ele>
        <time>2021-09-08T09:01:41Z</time>
      </trkpt>
      <trkpt lat="44.29565" lon="5.73124">
        <ele>918.6</ele>
        <time>2021-09-08T09:01:43Z</time>
      </trkpt>
      <trkpt lat="44.29565" lon="5.73125">
        <ele>918.8</ele>
        <time>2021-09-08T09:01:44Z</time>
      </trkpt>
      <trkpt lat="44.29566" lon="5.73127">
        <ele>918.9</ele>
        <time>2021-09-08T09:01:45Z</time>
      </trkpt>
      <trkpt lat="44.29566" lon="5.73129">
        <ele>919.1</ele>
        <time>2021-09-08T09:01:46Z</time>
      </trkpt>
      <trkpt lat="44.29566" lon="5.7313">
        <ele>919.2</ele>
        <time>2021-09-08T09:01:47Z</time>
      </trkpt>
      <trkpt lat="44.29567" lon="5.73131">
        <ele>919.3</ele>
        <time>2021-09-08T09:01:49Z</time>
      </trkpt>
      <trkpt lat="44.29567" lon="5.73132">
        <ele>919.3</ele>
        <time>2021-09-08T09:01:50Z</time>
      </trkpt>
      <trkpt lat="44.29567" lon="5.73133">
        <ele>919.4</ele>
        <time>2021-09-08T09:01:51Z</time>
      </trkpt>
      <trkpt lat="44.29567" lon="5.73134">
        <ele>919.5</ele>
        <time>2021-09-08T09:01:52Z</time>
      </trkpt>
      <trkpt lat="44.29567" lon="5.73134">
        <ele>919.5</ele>
        <time>2021-09-08T09:01:54Z</time>
      </trkpt>
      <trkpt lat="44.29567" lon="5.73135">
        <ele>919.6</ele>
        <time>2021-09-08T09:01:55Z</time>
      </trkpt>
      <trkpt lat="44.29567" lon="5.73135">
        <ele>919.6</ele>
        <time>2021-09-08T09:01:56Z</time>
      </trkpt>
      <trkpt lat="44.29568" lon="5.73138">
        <ele>919.9</ele>
        <time>2021-09-08T09:01:58Z</time>
      </trkpt>
      <trkpt lat="44.29568" lon="5.7314">
        <ele>920</ele>
        <time>2021-09-08T09:01:59Z</time>
      </trkpt>
      <trkpt lat="44.29568" lon="5.73141">
        <ele>920.1</ele>
        <time>2021-09-08T09:02:00Z</time>
      </trkpt>
      <trkpt lat="44.29568" lon="5.73143">
        <ele>920.3</ele>
        <time>2021-09-08T09:02:01Z</time>
      </trkpt>
      <trkpt lat="44.29568" lon="5.73146">
        <ele>920.5</ele>
        <time>2021-09-08T09:02:03Z</time>
      </trkpt>
      <trkpt lat="44.29568" lon="5.73148">
        <ele>920.7</ele>
        <time>2021-09-08T09:02:04Z</time>
      </trkpt>
      <trkpt lat="44.29568" lon="5.73149">
        <ele>920.8</ele>
        <time>2021-09-08T09:02:06Z</time>
      </trkpt>
      <trkpt lat="44.29568" lon="5.7315">
        <ele>920.9</ele>
        <time>2021-09-08T09:02:07Z</time>
      </trkpt>
      <trkpt lat="44.29568" lon="5.7315">
        <ele>920.9</ele>
        <time>2021-09-08T09:02:08Z</time>
      </trkpt>
      <trkpt lat="44.29568" lon="5.73151">
        <ele>921</ele>
        <time>2021-09-08T09:02:10Z</time>
      </trkpt>
      <trkpt lat="44.29568" lon="5.73151">
        <ele>921</ele>
        <time>2021-09-08T09:02:11Z</time>
      </trkpt>
      <trkpt lat="44.29567" lon="5.73154">
        <ele>921.3</ele>
        <time>2021-09-08T09:02:12Z</time>
      </trkpt>
      <trkpt lat="44.29567" lon="5.73156">
        <ele>921.5</ele>
        <time>2021-09-08T09:02:14Z</time>
      </trkpt>
      <trkpt lat="44.29566" lon="5.73161">
        <ele>921.9</ele>
        <time>2021-09-08T09:02:16Z</time>
      </trkpt>
      <trkpt lat="44.29566" lon="5.73165">
        <ele>922.3</ele>
        <time>2021-09-08T09:02:18Z</time>
      </trkpt>
      <trkpt lat="44.29565" lon="5.73166">
        <ele>922.4</ele>
        <time>2021-09-08T09:02:20Z</time>
      </trkpt>
      <trkpt lat="44.29565" lon="5.73167">
        <ele>922.5</ele>
        <time>2021-09-08T09:02:21Z</time>
      </trkpt>
      <trkpt lat="44.29565" lon="5.73167">
        <ele>922.6</ele>
        <time>2021-09-08T09:02:22Z</time>
      </trkpt>
      <trkpt lat="44.29565" lon="5.73168">
        <ele>922.6</ele>
        <time>2021-09-08T09:02:25Z</time>
      </trkpt>
      <trkpt lat="44.29564" lon="5.73169">
        <ele>922.7</ele>
        <time>2021-09-08T09:02:26Z</time>
      </trkpt>
      <trkpt lat="44.29564" lon="5.7317">
        <ele>922.8</ele>
        <time>2021-09-08T09:02:27Z</time>
      </trkpt>
      <trkpt lat="44.29564" lon="5.7317">
        <ele>922.9</ele>
        <time>2021-09-08T09:02:28Z</time>
      </trkpt>
      <trkpt lat="44.29562" lon="5.73174">
        <ele>923.3</ele>
        <time>2021-09-08T09:02:29Z</time>
      </trkpt>
      <trkpt lat="44.29562" lon="5.73176">
        <ele>923.4</ele>
        <time>2021-09-08T09:02:30Z</time>
      </trkpt>
      <trkpt lat="44.29562" lon="5.73177">
        <ele>923.6</ele>
        <time>2021-09-08T09:02:32Z</time>
      </trkpt>
      <trkpt lat="44.29561" lon="5.7318">
        <ele>923.8</ele>
        <time>2021-09-08T09:02:34Z</time>
      </trkpt>
      <trkpt lat="44.2956" lon="5.73181">
        <ele>924</ele>
        <time>2021-09-08T09:02:35Z</time>
      </trkpt>
      <trkpt lat="44.29559" lon="5.73183">
        <ele>924.2</ele>
        <time>2021-09-08T09:02:36Z</time>
      </trkpt>
      <trkpt lat="44.29558" lon="5.73186">
        <ele>924.5</ele>
        <time>2021-09-08T09:02:38Z</time>
      </trkpt>
      <trkpt lat="44.29557" lon="5.73187">
        <ele>924.5</ele>
        <time>2021-09-08T09:02:39Z</time>
      </trkpt>
      <trkpt lat="44.29557" lon="5.73188">
        <ele>924.6</ele>
        <time>2021-09-08T09:02:40Z</time>
      </trkpt>
      <trkpt lat="44.29555" lon="5.73192">
        <ele>925</ele>
        <time>2021-09-08T09:02:41Z</time>
      </trkpt>
      <trkpt lat="44.29554" lon="5.73193">
        <ele>925.2</ele>
        <time>2021-09-08T09:02:43Z</time>
      </trkpt>
      <trkpt lat="44.29553" lon="5.73195">
        <ele>925.4</ele>
        <time>2021-09-08T09:02:44Z</time>
      </trkpt>
      <trkpt lat="44.29552" lon="5.73197">
        <ele>925.5</ele>
        <time>2021-09-08T09:02:45Z</time>
      </trkpt>
      <trkpt lat="44.2955" lon="5.732">
        <ele>925.8</ele>
        <time>2021-09-08T09:02:47Z</time>
      </trkpt>
      <trkpt lat="44.29549" lon="5.73204">
        <ele>926.1</ele>
        <time>2021-09-08T09:02:49Z</time>
      </trkpt>
      <trkpt lat="44.29548" lon="5.73206">
        <ele>926.3</ele>
        <time>2021-09-08T09:02:50Z</time>
      </trkpt>
      <trkpt lat="44.29547" lon="5.73208">
        <ele>926.5</ele>
        <time>2021-09-08T09:02:51Z</time>
      </trkpt>
      <trkpt lat="44.29546" lon="5.7321">
        <ele>926.6</ele>
        <time>2021-09-08T09:02:52Z</time>
      </trkpt>
      <trkpt lat="44.29546" lon="5.73211">
        <ele>926.7</ele>
        <time>2021-09-08T09:02:53Z</time>
      </trkpt>
      <trkpt lat="44.29545" lon="5.73214">
        <ele>927</ele>
        <time>2021-09-08T09:02:55Z</time>
      </trkpt>
      <trkpt lat="44.29545" lon="5.73216">
        <ele>927.1</ele>
        <time>2021-09-08T09:02:56Z</time>
      </trkpt>
      <trkpt lat="44.29545" lon="5.73216">
        <ele>927.1</ele>
        <time>2021-09-08T09:02:58Z</time>
      </trkpt>
      <trkpt lat="44.29545" lon="5.73217">
        <ele>927.2</ele>
        <time>2021-09-08T09:02:59Z</time>
      </trkpt>
      <trkpt lat="44.29545" lon="5.73218">
        <ele>927.3</ele>
        <time>2021-09-08T09:03:00Z</time>
      </trkpt>
      <trkpt lat="44.29545" lon="5.73218">
        <ele>927.3</ele>
        <time>2021-09-08T09:03:01Z</time>
      </trkpt>
      <trkpt lat="44.29545" lon="5.73219">
        <ele>927.3</ele>
        <time>2021-09-08T09:03:03Z</time>
      </trkpt>
      <trkpt lat="44.29545" lon="5.73219">
        <ele>927.3</ele>
        <time>2021-09-08T09:03:04Z</time>
      </trkpt>
      <trkpt lat="44.29545" lon="5.73219">
        <ele>927.4</ele>
        <time>2021-09-08T09:03:05Z</time>
      </trkpt>
      <trkpt lat="44.29546" lon="5.73222">
        <ele>927.6</ele>
        <time>2021-09-08T09:03:06Z</time>
      </trkpt>
      <trkpt lat="44.29548" lon="5.73225">
        <ele>927.9</ele>
        <time>2021-09-08T09:03:08Z</time>
      </trkpt>
      <trkpt lat="44.29548" lon="5.73226">
        <ele>928</ele>
        <time>2021-09-08T09:03:09Z</time>
      </trkpt>
      <trkpt lat="44.29549" lon="5.73228">
        <ele>928.2</ele>
        <time>2021-09-08T09:03:10Z</time>
      </trkpt>
      <trkpt lat="44.2955" lon="5.73229">
        <ele>928.2</ele>
        <time>2021-09-08T09:03:12Z</time>
      </trkpt>
      <trkpt lat="44.2955" lon="5.7323">
        <ele>928.3</ele>
        <time>2021-09-08T09:03:13Z</time>
      </trkpt>
      <trkpt lat="44.29551" lon="5.73231">
        <ele>928.4</ele>
        <time>2021-09-08T09:03:14Z</time>
      </trkpt>
      <trkpt lat="44.29551" lon="5.73233">
        <ele>928.6</ele>
        <time>2021-09-08T09:03:15Z</time>
      </trkpt>
      <trkpt lat="44.29551" lon="5.73235">
        <ele>928.8</ele>
        <time>2021-09-08T09:03:17Z</time>
      </trkpt>
      <trkpt lat="44.29552" lon="5.7324">
        <ele>929.1</ele>
        <time>2021-09-08T09:03:18Z</time>
      </trkpt>
      <trkpt lat="44.29552" lon="5.73241">
        <ele>929.2</ele>
        <time>2021-09-08T09:03:19Z</time>
      </trkpt>
      <trkpt lat="44.29552" lon="5.73242">
        <ele>929.3</ele>
        <time>2021-09-08T09:03:21Z</time>
      </trkpt>
      <trkpt lat="44.29552" lon="5.73244">
        <ele>929.5</ele>
        <time>2021-09-08T09:03:22Z</time>
      </trkpt>
      <trkpt lat="44.29552" lon="5.73244">
        <ele>929.5</ele>
        <time>2021-09-08T09:03:23Z</time>
      </trkpt>
      <trkpt lat="44.29552" lon="5.73245">
        <ele>929.6</ele>
        <time>2021-09-08T09:03:25Z</time>
      </trkpt>
      <trkpt lat="44.29552" lon="5.73245">
        <ele>929.6</ele>
        <time>2021-09-08T09:03:26Z</time>
      </trkpt>
      <trkpt lat="44.29551" lon="5.73246">
        <ele>929.7</ele>
        <time>2021-09-08T09:03:27Z</time>
      </trkpt>
      <trkpt lat="44.29551" lon="5.73248">
        <ele>929.8</ele>
        <time>2021-09-08T09:03:29Z</time>
      </trkpt>
      <trkpt lat="44.29551" lon="5.7325">
        <ele>930</ele>
        <time>2021-09-08T09:03:30Z</time>
      </trkpt>
      <trkpt lat="44.29551" lon="5.73252">
        <ele>930.2</ele>
        <time>2021-09-08T09:03:32Z</time>
      </trkpt>
      <trkpt lat="44.2955" lon="5.73254">
        <ele>930.3</ele>
        <time>2021-09-08T09:03:33Z</time>
      </trkpt>
      <trkpt lat="44.2955" lon="5.73255">
        <ele>930.4</ele>
        <time>2021-09-08T09:03:35Z</time>
      </trkpt>
      <trkpt lat="44.2955" lon="5.73256">
        <ele>930.5</ele>
        <time>2021-09-08T09:03:36Z</time>
      </trkpt>
      <trkpt lat="44.2955" lon="5.73257">
        <ele>930.6</ele>
        <time>2021-09-08T09:03:37Z</time>
      </trkpt>
      <trkpt lat="44.2955" lon="5.73258">
        <ele>930.6</ele>
        <time>2021-09-08T09:03:38Z</time>
      </trkpt>
      <trkpt lat="44.29549" lon="5.73258">
        <ele>930.7</ele>
        <time>2021-09-08T09:03:40Z</time>
      </trkpt>
      <trkpt lat="44.29549" lon="5.73259">
        <ele>930.7</ele>
        <time>2021-09-08T09:03:41Z</time>
      </trkpt>
      <trkpt lat="44.29549" lon="5.7326">
        <ele>930.8</ele>
        <time>2021-09-08T09:03:42Z</time>
      </trkpt>
      <trkpt lat="44.29548" lon="5.73264">
        <ele>931.2</ele>
        <time>2021-09-08T09:03:44Z</time>
      </trkpt>
      <trkpt lat="44.29547" lon="5.73265">
        <ele>931.3</ele>
        <time>2021-09-08T09:03:45Z</time>
      </trkpt>
      <trkpt lat="44.29546" lon="5.73267">
        <ele>931.5</ele>
        <time>2021-09-08T09:03:46Z</time>
      </trkpt>
      <trkpt lat="44.29546" lon="5.73269">
        <ele>931.6</ele>
        <time>2021-09-08T09:03:47Z</time>
      </trkpt>
      <trkpt lat="44.29545" lon="5.73271">
        <ele>931.8</ele>
        <time>2021-09-08T09:03:49Z</time>
      </trkpt>
      <trkpt lat="44.29544" lon="5.73273">
        <ele>931.9</ele>
        <time>2021-09-08T09:03:50Z</time>
      </trkpt>
      <trkpt lat="44.29543" lon="5.73276">
        <ele>932.2</ele>
        <time>2021-09-08T09:03:51Z</time>
      </trkpt>
      <trkpt lat="44.29543" lon="5.73278">
        <ele>932.3</ele>
        <time>2021-09-08T09:03:53Z</time>
      </trkpt>
      <trkpt lat="44.29542" lon="5.73279">
        <ele>932.5</ele>
        <time>2021-09-08T09:03:54Z</time>
      </trkpt>
      <trkpt lat="44.29542" lon="5.73282">
        <ele>932.7</ele>
        <time>2021-09-08T09:03:55Z</time>
      </trkpt>
      <trkpt lat="44.29542" lon="5.73285">
        <ele>932.9</ele>
        <time>2021-09-08T09:03:57Z</time>
      </trkpt>
      <trkpt lat="44.29542" lon="5.73287">
        <ele>933</ele>
        <time>2021-09-08T09:03:58Z</time>
      </trkpt>
      <trkpt lat="44.29542" lon="5.73289">
        <ele>933.2</ele>
        <time>2021-09-08T09:04:00Z</time>
      </trkpt>
      <trkpt lat="44.29542" lon="5.73292">
        <ele>933.5</ele>
        <time>2021-09-08T09:04:01Z</time>
      </trkpt>
      <trkpt lat="44.29543" lon="5.73295">
        <ele>933.6</ele>
        <time>2021-09-08T09:04:03Z</time>
      </trkpt>
      <trkpt lat="44.29543" lon="5.73296">
        <ele>933.8</ele>
        <time>2021-09-08T09:04:04Z</time>
      </trkpt>
      <trkpt lat="44.29543" lon="5.73298">
        <ele>933.9</ele>
        <time>2021-09-08T09:04:05Z</time>
      </trkpt>
      <trkpt lat="44.29544" lon="5.73299">
        <ele>934</ele>
        <time>2021-09-08T09:04:07Z</time>
      </trkpt>
      <trkpt lat="44.29544" lon="5.73301">
        <ele>934.2</ele>
        <time>2021-09-08T09:04:09Z</time>
      </trkpt>
      <trkpt lat="44.29543" lon="5.73303">
        <ele>934.3</ele>
        <time>2021-09-08T09:04:10Z</time>
      </trkpt>
      <trkpt lat="44.29543" lon="5.73304">
        <ele>934.4</ele>
        <time>2021-09-08T09:04:12Z</time>
      </trkpt>
      <trkpt lat="44.29542" lon="5.73305">
        <ele>934.5</ele>
        <time>2021-09-08T09:04:13Z</time>
      </trkpt>
      <trkpt lat="44.29541" lon="5.73308">
        <ele>934.8</ele>
        <time>2021-09-08T09:04:15Z</time>
      </trkpt>
      <trkpt lat="44.29541" lon="5.7331">
        <ele>935</ele>
        <time>2021-09-08T09:04:16Z</time>
      </trkpt>
      <trkpt lat="44.2954" lon="5.73312">
        <ele>935.2</ele>
        <time>2021-09-08T09:04:18Z</time>
      </trkpt>
      <trkpt lat="44.29539" lon="5.73314">
        <ele>935.4</ele>
        <time>2021-09-08T09:04:20Z</time>
      </trkpt>
      <trkpt lat="44.29539" lon="5.73316">
        <ele>935.5</ele>
        <time>2021-09-08T09:04:21Z</time>
      </trkpt>
      <trkpt lat="44.29538" lon="5.73323">
        <ele>936.1</ele>
        <time>2021-09-08T09:04:23Z</time>
      </trkpt>
      <trkpt lat="44.29538" lon="5.73327">
        <ele>936.4</ele>
        <time>2021-09-08T09:04:24Z</time>
      </trkpt>
      <trkpt lat="44.29536" lon="5.73328">
        <ele>936.7</ele>
        <time>2021-09-08T09:04:26Z</time>
      </trkpt>
      <trkpt lat="44.29533" lon="5.73325">
        <ele>937.1</ele>
        <time>2021-09-08T09:04:28Z</time>
      </trkpt>
      <trkpt lat="44.29532" lon="5.73321">
        <ele>937.5</ele>
        <time>2021-09-08T09:04:30Z</time>
      </trkpt>
      <trkpt lat="44.29531" lon="5.73321">
        <ele>937.5</ele>
        <time>2021-09-08T09:04:32Z</time>
      </trkpt>
      <trkpt lat="44.29531" lon="5.73321">
        <ele>937.5</ele>
        <time>2021-09-08T09:04:33Z</time>
      </trkpt>
      <trkpt lat="44.29653" lon="5.73426">
        <ele>952.3</ele>
        <time>2021-09-08T09:07:30Z</time>
      </trkpt>
      <trkpt lat="44.29661" lon="5.73437">
        <ele>953.2</ele>
        <time>2021-09-08T09:07:32Z</time>
      </trkpt>
      <trkpt lat="44.29664" lon="5.73439">
        <ele>953.5</ele>
        <time>2021-09-08T09:07:33Z</time>
      </trkpt>
      <trkpt lat="44.29667" lon="5.73441">
        <ele>953.8</ele>
        <time>2021-09-08T09:07:34Z</time>
      </trkpt>
      <trkpt lat="44.29671" lon="5.73444">
        <ele>954.3</ele>
        <time>2021-09-08T09:07:35Z</time>
      </trkpt>
      <trkpt lat="44.29674" lon="5.73447">
        <ele>954.6</ele>
        <time>2021-09-08T09:07:37Z</time>
      </trkpt>
      <trkpt lat="44.29674" lon="5.73448">
        <ele>954.7</ele>
        <time>2021-09-08T09:07:38Z</time>
      </trkpt>
      <trkpt lat="44.29675" lon="5.7345">
        <ele>954.9</ele>
        <time>2021-09-08T09:07:39Z</time>
      </trkpt>
      <trkpt lat="44.29675" lon="5.73451">
        <ele>955</ele>
        <time>2021-09-08T09:07:40Z</time>
      </trkpt>
      <trkpt lat="44.29675" lon="5.73452">
        <ele>955.1</ele>
        <time>2021-09-08T09:07:41Z</time>
      </trkpt>
      <trkpt lat="44.29675" lon="5.73456">
        <ele>955.4</ele>
        <time>2021-09-08T09:07:43Z</time>
      </trkpt>
      <trkpt lat="44.29675" lon="5.73458">
        <ele>955.6</ele>
        <time>2021-09-08T09:07:44Z</time>
      </trkpt>
      <trkpt lat="44.29675" lon="5.73458">
        <ele>955.6</ele>
        <time>2021-09-08T09:07:45Z</time>
      </trkpt>
      <trkpt lat="44.29674" lon="5.73459">
        <ele>955.7</ele>
        <time>2021-09-08T09:07:47Z</time>
      </trkpt>
      <trkpt lat="44.29673" lon="5.7346">
        <ele>955.8</ele>
        <time>2021-09-08T09:07:48Z</time>
      </trkpt>
      <trkpt lat="44.29673" lon="5.73461">
        <ele>955.9</ele>
        <time>2021-09-08T09:07:49Z</time>
      </trkpt>
      <trkpt lat="44.29672" lon="5.73462">
        <ele>956.1</ele>
        <time>2021-09-08T09:07:50Z</time>
      </trkpt>
      <trkpt lat="44.29672" lon="5.73464">
        <ele>956.2</ele>
        <time>2021-09-08T09:07:51Z</time>
      </trkpt>
      <trkpt lat="44.29672" lon="5.73464">
        <ele>956.3</ele>
        <time>2021-09-08T09:07:52Z</time>
      </trkpt>
      <trkpt lat="44.29671" lon="5.73465">
        <ele>956.4</ele>
        <time>2021-09-08T09:07:53Z</time>
      </trkpt>
      <trkpt lat="44.29671" lon="5.73466">
        <ele>956.4</ele>
        <time>2021-09-08T09:07:54Z</time>
      </trkpt>
      <trkpt lat="44.29678" lon="5.73499">
        <ele>959.3</ele>
        <time>2021-09-08T09:08:26Z</time>
      </trkpt>
      <trkpt lat="44.29678" lon="5.73502">
        <ele>959.2</ele>
        <time>2021-09-08T09:08:27Z</time>
      </trkpt>
      <trkpt lat="44.29676" lon="5.73504">
        <ele>960.7</ele>
        <time>2021-09-08T09:08:29Z</time>
      </trkpt>
      <trkpt lat="44.29675" lon="5.73505">
        <ele>960.7</ele>
        <time>2021-09-08T09:08:30Z</time>
      </trkpt>
      <trkpt lat="44.29675" lon="5.73507">
        <ele>960.7</ele>
        <time>2021-09-08T09:08:31Z</time>
      </trkpt>
      <trkpt lat="44.29675" lon="5.73507">
        <ele>960.6</ele>
        <time>2021-09-08T09:08:33Z</time>
      </trkpt>
      <trkpt lat="44.29675" lon="5.73507">
        <ele>960.6</ele>
        <time>2021-09-08T09:08:34Z</time>
      </trkpt>
      <trkpt lat="44.29675" lon="5.73508">
        <ele>960.6</ele>
        <time>2021-09-08T09:08:35Z</time>
      </trkpt>
      <trkpt lat="44.29675" lon="5.73508">
        <ele>960.6</ele>
        <time>2021-09-08T09:08:37Z</time>
      </trkpt>
      <trkpt lat="44.29675" lon="5.73508">
        <ele>960.5</ele>
        <time>2021-09-08T09:08:38Z</time>
      </trkpt>
      <trkpt lat="44.29675" lon="5.73508">
        <ele>960.5</ele>
        <time>2021-09-08T09:08:39Z</time>
      </trkpt>
      <trkpt lat="44.29675" lon="5.73508">
        <ele>960.5</ele>
        <time>2021-09-08T09:08:40Z</time>
      </trkpt>
      <trkpt lat="44.29675" lon="5.73508">
        <ele>961.2</ele>
        <time>2021-09-08T09:08:41Z</time>
      </trkpt>
      <trkpt lat="44.29632" lon="5.73551">
        <ele>978.9</ele>
        <time>2021-09-08T09:12:31Z</time>
      </trkpt>
      <trkpt lat="44.29631" lon="5.73546">
        <ele>978.1</ele>
        <time>2021-09-08T09:12:33Z</time>
      </trkpt>
      <trkpt lat="44.2963" lon="5.73544">
        <ele>979</ele>
        <time>2021-09-08T09:12:34Z</time>
      </trkpt>
      <trkpt lat="44.29629" lon="5.73543">
        <ele>979</ele>
        <time>2021-09-08T09:12:35Z</time>
      </trkpt>
      <trkpt lat="44.29628" lon="5.73542">
        <ele>978.2</ele>
        <time>2021-09-08T09:12:36Z</time>
      </trkpt>
      <trkpt lat="44.29626" lon="5.7354">
        <ele>979</ele>
        <time>2021-09-08T09:12:37Z</time>
      </trkpt>
      <trkpt lat="44.29624" lon="5.73539">
        <ele>979</ele>
        <time>2021-09-08T09:12:39Z</time>
      </trkpt>
      <trkpt lat="44.29624" lon="5.73539">
        <ele>979.8</ele>
        <time>2021-09-08T09:12:40Z</time>
      </trkpt>
      <trkpt lat="44.29623" lon="5.73539">
        <ele>979.7</ele>
        <time>2021-09-08T09:12:41Z</time>
      </trkpt>
      <trkpt lat="44.29623" lon="5.73539">
        <ele>979.7</ele>
        <time>2021-09-08T09:12:43Z</time>
      </trkpt>
      <trkpt lat="44.29623" lon="5.73538">
        <ele>979.7</ele>
        <time>2021-09-08T09:12:45Z</time>
      </trkpt>
      <trkpt lat="44.29622" lon="5.73537">
        <ele>978.9</ele>
        <time>2021-09-08T09:12:46Z</time>
      </trkpt>
      <trkpt lat="44.29622" lon="5.73535">
        <ele>978.9</ele>
        <time>2021-09-08T09:12:47Z</time>
      </trkpt>
      <trkpt lat="44.29622" lon="5.73533">
        <ele>978.1</ele>
        <time>2021-09-08T09:12:49Z</time>
      </trkpt>
      <trkpt lat="44.29622" lon="5.73532">
        <ele>978.1</ele>
        <time>2021-09-08T09:12:50Z</time>
      </trkpt>
      <trkpt lat="44.29622" lon="5.73531">
        <ele>978.1</ele>
        <time>2021-09-08T09:12:51Z</time>
      </trkpt>
      <trkpt lat="44.29616" lon="5.7353">
        <ele>979.7</ele>
        <time>2021-09-08T09:12:52Z</time>
      </trkpt>
      <trkpt lat="44.2961" lon="5.7353">
        <ele>981.6</ele>
        <time>2021-09-08T09:12:53Z</time>
      </trkpt>
      <trkpt lat="44.29604" lon="5.7353">
        <ele>983.5</ele>
        <time>2021-09-08T09:14:04Z</time>
      </trkpt>
      <trkpt lat="44.29598" lon="5.7353">
        <ele>985.3</ele>
        <time>2021-09-08T09:14:05Z</time>
      </trkpt>
      <trkpt lat="44.29598" lon="5.73538">
        <ele>986</ele>
        <time>2021-09-08T09:14:06Z</time>
      </trkpt>
      <trkpt lat="44.29599" lon="5.73545">
        <ele>987.6</ele>
        <time>2021-09-08T09:14:08Z</time>
      </trkpt>
      <trkpt lat="44.29598" lon="5.73547">
        <ele>988.4</ele>
        <time>2021-09-08T09:14:09Z</time>
      </trkpt>
      <trkpt lat="44.29597" lon="5.73549">
        <ele>988.3</ele>
        <time>2021-09-08T09:14:10Z</time>
      </trkpt>
      <trkpt lat="44.29595" lon="5.73549">
        <ele>989.2</ele>
        <time>2021-09-08T09:14:11Z</time>
      </trkpt>
      <trkpt lat="44.29595" lon="5.73546">
        <ele>988.3</ele>
        <time>2021-09-08T09:14:13Z</time>
      </trkpt>
      <trkpt lat="44.29594" lon="5.73543">
        <ele>988.3</ele>
        <time>2021-09-08T09:14:14Z</time>
      </trkpt>
      <trkpt lat="44.29594" lon="5.7354">
        <ele>987.5</ele>
        <time>2021-09-08T09:14:15Z</time>
      </trkpt>
      <trkpt lat="44.29594" lon="5.7354">
        <ele>987.4</ele>
        <time>2021-09-08T09:14:17Z</time>
      </trkpt>
      <trkpt lat="44.29594" lon="5.7354">
        <ele>987.4</ele>
        <time>2021-09-08T09:14:19Z</time>
      </trkpt>
      <trkpt lat="44.29593" lon="5.7354">
        <ele>988.3</ele>
        <time>2021-09-08T09:14:20Z</time>
      </trkpt>
      <trkpt lat="44.29592" lon="5.7354">
        <ele>988.3</ele>
        <time>2021-09-08T09:14:22Z</time>
      </trkpt>
      <trkpt lat="44.2959" lon="5.73539">
        <ele>988.3</ele>
        <time>2021-09-08T09:14:23Z</time>
      </trkpt>
      <trkpt lat="44.29549" lon="5.73523">
        <ele>991.7</ele>
        <time>2021-09-08T09:15:00Z</time>
      </trkpt>
      <trkpt lat="44.29545" lon="5.73525">
        <ele>992.1</ele>
        <time>2021-09-08T09:15:01Z</time>
      </trkpt>
      <trkpt lat="44.29543" lon="5.73526">
        <ele>992.3</ele>
        <time>2021-09-08T09:15:02Z</time>
      </trkpt>
      <trkpt lat="44.29542" lon="5.73526">
        <ele>992.4</ele>
        <time>2021-09-08T09:15:03Z</time>
      </trkpt>
      <trkpt lat="44.2954" lon="5.73526">
        <ele>992.6</ele>
        <time>2021-09-08T09:15:05Z</time>
      </trkpt>
      <trkpt lat="44.29538" lon="5.73527">
        <ele>992.7</ele>
        <time>2021-09-08T09:15:06Z</time>
      </trkpt>
      <trkpt lat="44.29537" lon="5.73527">
        <ele>992.9</ele>
        <time>2021-09-08T09:15:08Z</time>
      </trkpt>
      <trkpt lat="44.29535" lon="5.73527">
        <ele>993</ele>
        <time>2021-09-08T09:15:09Z</time>
      </trkpt>
      <trkpt lat="44.29534" lon="5.73528">
        <ele>993.2</ele>
        <time>2021-09-08T09:15:10Z</time>
      </trkpt>
      <trkpt lat="44.29532" lon="5.73529">
        <ele>993.3</ele>
        <time>2021-09-08T09:15:11Z</time>
      </trkpt>
      <trkpt lat="44.2953" lon="5.73532">
        <ele>993.6</ele>
        <time>2021-09-08T09:15:12Z</time>
      </trkpt>
      <trkpt lat="44.29529" lon="5.73533">
        <ele>993.7</ele>
        <time>2021-09-08T09:15:13Z</time>
      </trkpt>
      <trkpt lat="44.29528" lon="5.73534">
        <ele>993.9</ele>
        <time>2021-09-08T09:15:15Z</time>
      </trkpt>
      <trkpt lat="44.29526" lon="5.73536">
        <ele>994.2</ele>
        <time>2021-09-08T09:15:17Z</time>
      </trkpt>
      <trkpt lat="44.29525" lon="5.73537">
        <ele>994.4</ele>
        <time>2021-09-08T09:15:18Z</time>
      </trkpt>
      <trkpt lat="44.29524" lon="5.73536">
        <ele>994.5</ele>
        <time>2021-09-08T09:15:19Z</time>
      </trkpt>
      <trkpt lat="44.29523" lon="5.73536">
        <ele>994.6</ele>
        <time>2021-09-08T09:15:21Z</time>
      </trkpt>
      <trkpt lat="44.29522" lon="5.73536">
        <ele>994.7</ele>
        <time>2021-09-08T09:15:22Z</time>
      </trkpt>
      <trkpt lat="44.29519" lon="5.73537">
        <ele>995</ele>
        <time>2021-09-08T09:15:23Z</time>
      </trkpt>
      <trkpt lat="44.29518" lon="5.73537">
        <ele>995.1</ele>
        <time>2021-09-08T09:15:25Z</time>
      </trkpt>
      <trkpt lat="44.29518" lon="5.73538">
        <ele>995.1</ele>
        <time>2021-09-08T09:15:27Z</time>
      </trkpt>
      <trkpt lat="44.29517" lon="5.73538">
        <ele>995.2</ele>
        <time>2021-09-08T09:15:28Z</time>
      </trkpt>
      <trkpt lat="44.29517" lon="5.73539">
        <ele>995.2</ele>
        <time>2021-09-08T09:15:29Z</time>
      </trkpt>
      <trkpt lat="44.29517" lon="5.7354">
        <ele>995.3</ele>
        <time>2021-09-08T09:15:30Z</time>
      </trkpt>
      <trkpt lat="44.29516" lon="5.73541">
        <ele>995.5</ele>
        <time>2021-09-08T09:15:32Z</time>
      </trkpt>
      <trkpt lat="44.29515" lon="5.73542">
        <ele>995.6</ele>
        <time>2021-09-08T09:15:33Z</time>
      </trkpt>
      <trkpt lat="44.29512" lon="5.73544">
        <ele>995.8</ele>
        <time>2021-09-08T09:15:34Z</time>
      </trkpt>
      <trkpt lat="44.29509" lon="5.73546">
        <ele>996.2</ele>
        <time>2021-09-08T09:15:35Z</time>
      </trkpt>
      <trkpt lat="44.29507" lon="5.73546">
        <ele>996.3</ele>
        <time>2021-09-08T09:15:36Z</time>
      </trkpt>
      <trkpt lat="44.29506" lon="5.73546">
        <ele>996.4</ele>
        <time>2021-09-08T09:15:38Z</time>
      </trkpt>
      <trkpt lat="44.29504" lon="5.73545">
        <ele>996.5</ele>
        <time>2021-09-08T09:15:39Z</time>
      </trkpt>
      <trkpt lat="44.29502" lon="5.73544">
        <ele>996.7</ele>
        <time>2021-09-08T09:15:41Z</time>
      </trkpt>
      <trkpt lat="44.295" lon="5.73541">
        <ele>996.9</ele>
        <time>2021-09-08T09:15:43Z</time>
      </trkpt>
      <trkpt lat="44.29497" lon="5.73538">
        <ele>997.2</ele>
        <time>2021-09-08T09:15:44Z</time>
      </trkpt>
      <trkpt lat="44.29496" lon="5.73536">
        <ele>997.3</ele>
        <time>2021-09-08T09:15:45Z</time>
      </trkpt>
      <trkpt lat="44.29495" lon="5.73535">
        <ele>997.4</ele>
        <time>2021-09-08T09:15:47Z</time>
      </trkpt>
      <trkpt lat="44.29478" lon="5.73515">
        <ele>998.9</ele>
        <time>2021-09-08T09:15:58Z</time>
      </trkpt>
      <trkpt lat="44.29477" lon="5.73511">
        <ele>999.2</ele>
        <time>2021-09-08T09:15:59Z</time>
      </trkpt>
      <trkpt lat="44.29476" lon="5.73506">
        <ele>999.4</ele>
        <time>2021-09-08T09:16:00Z</time>
      </trkpt>
      <trkpt lat="44.29476" lon="5.735">
        <ele>999.8</ele>
        <time>2021-09-08T09:16:01Z</time>
      </trkpt>
      <trkpt lat="44.29477" lon="5.73494">
        <ele>1000.1</ele>
        <time>2021-09-08T09:16:02Z</time>
      </trkpt>
      <trkpt lat="44.29478" lon="5.73488">
        <ele>1000.4</ele>
        <time>2021-09-08T09:16:03Z</time>
      </trkpt>
      <trkpt lat="44.2948" lon="5.73483">
        <ele>1000.8</ele>
        <time>2021-09-08T09:16:05Z</time>
      </trkpt>
      <trkpt lat="44.29481" lon="5.73481">
        <ele>1000.9</ele>
        <time>2021-09-08T09:16:06Z</time>
      </trkpt>
      <trkpt lat="44.29482" lon="5.7348">
        <ele>1001.1</ele>
        <time>2021-09-08T09:16:07Z</time>
      </trkpt>
      <trkpt lat="44.29483" lon="5.73478">
        <ele>1001.2</ele>
        <time>2021-09-08T09:16:08Z</time>
      </trkpt>
      <trkpt lat="44.29484" lon="5.73477">
        <ele>1001.3</ele>
        <time>2021-09-08T09:16:09Z</time>
      </trkpt>
      <trkpt lat="44.29484" lon="5.73477">
        <ele>1001.3</ele>
        <time>2021-09-08T09:16:10Z</time>
      </trkpt>
      <trkpt lat="44.29485" lon="5.73476">
        <ele>1001.3</ele>
        <time>2021-09-08T09:16:11Z</time>
      </trkpt>
      <trkpt lat="44.29485" lon="5.73476">
        <ele>1001.4</ele>
        <time>2021-09-08T09:16:13Z</time>
      </trkpt>
      <trkpt lat="44.29485" lon="5.73476">
        <ele>1001.4</ele>
        <time>2021-09-08T09:16:14Z</time>
      </trkpt>
      <trkpt lat="44.29485" lon="5.73475">
        <ele>1001.4</ele>
        <time>2021-09-08T09:16:15Z</time>
      </trkpt>
      <trkpt lat="44.29485" lon="5.73475">
        <ele>1001.4</ele>
        <time>2021-09-08T09:16:16Z</time>
      </trkpt>
      <trkpt lat="44.29485" lon="5.73475">
        <ele>1001.5</ele>
        <time>2021-09-08T09:16:18Z</time>
      </trkpt>
      <trkpt lat="44.29479" lon="5.73447">
        <ele>1003.3</ele>
        <time>2021-09-08T09:16:36Z</time>
      </trkpt>
      <trkpt lat="44.29477" lon="5.73442">
        <ele>1003.7</ele>
        <time>2021-09-08T09:16:38Z</time>
      </trkpt>
      <trkpt lat="44.29475" lon="5.73438">
        <ele>1004</ele>
        <time>2021-09-08T09:16:39Z</time>
      </trkpt>
      <trkpt lat="44.29474" lon="5.73436">
        <ele>1004.2</ele>
        <time>2021-09-08T09:16:40Z</time>
      </trkpt>
      <trkpt lat="44.29472" lon="5.73432">
        <ele>1004.4</ele>
        <time>2021-09-08T09:16:42Z</time>
      </trkpt>
      <trkpt lat="44.29471" lon="5.73428">
        <ele>1004.8</ele>
        <time>2021-09-08T09:16:43Z</time>
      </trkpt>
      <trkpt lat="44.29469" lon="5.73425">
        <ele>1005</ele>
        <time>2021-09-08T09:16:44Z</time>
      </trkpt>
      <trkpt lat="44.29468" lon="5.73424">
        <ele>1005.1</ele>
        <time>2021-09-08T09:16:46Z</time>
      </trkpt>
      <trkpt lat="44.29468" lon="5.73425">
        <ele>1005.1</ele>
        <time>2021-09-08T09:16:47Z</time>
      </trkpt>
      <trkpt lat="44.29467" lon="5.73422">
        <ele>1005.3</ele>
        <time>2021-09-08T09:16:49Z</time>
      </trkpt>
      <trkpt lat="44.29467" lon="5.73421">
        <ele>1005.3</ele>
        <time>2021-09-08T09:16:50Z</time>
      </trkpt>
      <trkpt lat="44.29467" lon="5.73421">
        <ele>1005.4</ele>
        <time>2021-09-08T09:16:51Z</time>
      </trkpt>
      <trkpt lat="44.29467" lon="5.7342">
        <ele>1005.4</ele>
        <time>2021-09-08T09:16:52Z</time>
      </trkpt>
      <trkpt lat="44.29466" lon="5.73419">
        <ele>1005.5</ele>
        <time>2021-09-08T09:16:53Z</time>
      </trkpt>
      <trkpt lat="44.29466" lon="5.73418">
        <ele>1005.5</ele>
        <time>2021-09-08T09:16:55Z</time>
      </trkpt>
      <trkpt lat="44.29405" lon="5.733">
        <ele>1014.8</ele>
        <time>2021-09-08T09:19:30Z</time>
      </trkpt>
      <trkpt lat="44.29405" lon="5.73296">
        <ele>1015.1</ele>
        <time>2021-09-08T09:19:31Z</time>
      </trkpt>
      <trkpt lat="44.29405" lon="5.73295">
        <ele>1015.2</ele>
        <time>2021-09-08T09:19:32Z</time>
      </trkpt>
      <trkpt lat="44.29406" lon="5.73293">
        <ele>1015.3</ele>
        <time>2021-09-08T09:19:33Z</time>
      </trkpt>
      <trkpt lat="44.29407" lon="5.73292">
        <ele>1015.4</ele>
        <time>2021-09-08T09:19:35Z</time>
      </trkpt>
      <trkpt lat="44.29408" lon="5.73291">
        <ele>1015.5</ele>
        <time>2021-09-08T09:19:37Z</time>
      </trkpt>
      <trkpt lat="44.29408" lon="5.73289">
        <ele>1015.5</ele>
        <time>2021-09-08T09:19:38Z</time>
      </trkpt>
      <trkpt lat="44.29408" lon="5.73286">
        <ele>1015.7</ele>
        <time>2021-09-08T09:19:40Z</time>
      </trkpt>
      <trkpt lat="44.29408" lon="5.73285">
        <ele>1015.8</ele>
        <time>2021-09-08T09:19:41Z</time>
      </trkpt>
      <trkpt lat="44.29407" lon="5.73284">
        <ele>1015.9</ele>
        <time>2021-09-08T09:19:42Z</time>
      </trkpt>
      <trkpt lat="44.29407" lon="5.73283">
        <ele>1015.9</ele>
        <time>2021-09-08T09:19:44Z</time>
      </trkpt>
      <trkpt lat="44.29407" lon="5.73283">
        <ele>1016</ele>
        <time>2021-09-08T09:19:45Z</time>
      </trkpt>
      <trkpt lat="44.29407" lon="5.73282">
        <ele>1016</ele>
        <time>2021-09-08T09:19:46Z</time>
      </trkpt>
      <trkpt lat="44.29406" lon="5.73281">
        <ele>1016.1</ele>
        <time>2021-09-08T09:19:48Z</time>
      </trkpt>
      <trkpt lat="44.29406" lon="5.7328">
        <ele>1016.2</ele>
        <time>2021-09-08T09:19:49Z</time>
      </trkpt>
      <trkpt lat="44.29405" lon="5.73279">
        <ele>1016.3</ele>
        <time>2021-09-08T09:19:50Z</time>
      </trkpt>
      <trkpt lat="44.29404" lon="5.73278">
        <ele>1016.4</ele>
        <time>2021-09-08T09:19:52Z</time>
      </trkpt>
      <trkpt lat="44.2931" lon="5.72964">
        <ele>1038.1</ele>
        <time>2021-09-08T09:27:02Z</time>
      </trkpt>
      <trkpt lat="44.2931" lon="5.7296">
        <ele>1038.1</ele>
        <time>2021-09-08T09:27:04Z</time>
      </trkpt>
      <trkpt lat="44.2931" lon="5.72956">
        <ele>1038.2</ele>
        <time>2021-09-08T09:27:05Z</time>
      </trkpt>
      <trkpt lat="44.29309" lon="5.7295">
        <ele>1038.3</ele>
        <time>2021-09-08T09:27:06Z</time>
      </trkpt>
      <trkpt lat="44.29308" lon="5.72943">
        <ele>1038.4</ele>
        <time>2021-09-08T09:27:08Z</time>
      </trkpt>
      <trkpt lat="44.29307" lon="5.72934">
        <ele>1038.6</ele>
        <time>2021-09-08T09:27:09Z</time>
      </trkpt>
      <trkpt lat="44.29307" lon="5.72929">
        <ele>1038.7</ele>
        <time>2021-09-08T09:27:10Z</time>
      </trkpt>
      <trkpt lat="44.29307" lon="5.72928">
        <ele>1038.7</ele>
        <time>2021-09-08T09:27:11Z</time>
      </trkpt>
      <trkpt lat="44.29306" lon="5.72924">
        <ele>1038.9</ele>
        <time>2021-09-08T09:27:12Z</time>
      </trkpt>
      <trkpt lat="44.29305" lon="5.7292">
        <ele>1039</ele>
        <time>2021-09-08T09:27:14Z</time>
      </trkpt>
      <trkpt lat="44.29303" lon="5.72915">
        <ele>1039.3</ele>
        <time>2021-09-08T09:27:16Z</time>
      </trkpt>
      <trkpt lat="44.29302" lon="5.7291">
        <ele>1039.4</ele>
        <time>2021-09-08T09:27:17Z</time>
      </trkpt>
      <trkpt lat="44.29301" lon="5.72908">
        <ele>1039.5</ele>
        <time>2021-09-08T09:27:18Z</time>
      </trkpt>
      <trkpt lat="44.293" lon="5.72906">
        <ele>1039.6</ele>
        <time>2021-09-08T09:27:20Z</time>
      </trkpt>
      <trkpt lat="44.29299" lon="5.72904">
        <ele>1039.7</ele>
        <time>2021-09-08T09:27:21Z</time>
      </trkpt>
      <trkpt lat="44.29299" lon="5.72903">
        <ele>1039.7</ele>
        <time>2021-09-08T09:27:22Z</time>
      </trkpt>
      <trkpt lat="44.29299" lon="5.72901">
        <ele>1039.8</ele>
        <time>2021-09-08T09:27:24Z</time>
      </trkpt>
      <trkpt lat="44.29298" lon="5.72901">
        <ele>1039.8</ele>
        <time>2021-09-08T09:27:25Z</time>
      </trkpt>
      <trkpt lat="44.29298" lon="5.72899">
        <ele>1039.8</ele>
        <time>2021-09-08T09:27:26Z</time>
      </trkpt>
      <trkpt lat="44.29297" lon="5.72898">
        <ele>1039.9</ele>
        <time>2021-09-08T09:27:27Z</time>
      </trkpt>
      <trkpt lat="44.29297" lon="5.72897">
        <ele>1039.9</ele>
        <time>2021-09-08T09:27:28Z</time>
      </trkpt>
      <trkpt lat="44.29297" lon="5.72896">
        <ele>1040</ele>
        <time>2021-09-08T09:27:30Z</time>
      </trkpt>
      <trkpt lat="44.29292" lon="5.72867">
        <ele>1040.7</ele>
        <time>2021-09-08T09:27:42Z</time>
      </trkpt>
      <trkpt lat="44.2929" lon="5.72863">
        <ele>1040.7</ele>
        <time>2021-09-08T09:27:44Z</time>
      </trkpt>
      <trkpt lat="44.29287" lon="5.72858">
        <ele>1040.8</ele>
        <time>2021-09-08T09:27:45Z</time>
      </trkpt>
      <trkpt lat="44.29284" lon="5.72853">
        <ele>1040.9</ele>
        <time>2021-09-08T09:27:47Z</time>
      </trkpt>
      <trkpt lat="44.29282" lon="5.72845">
        <ele>1040.9</ele>
        <time>2021-09-08T09:27:48Z</time>
      </trkpt>
      <trkpt lat="44.2928" lon="5.72839">
        <ele>1040.8</ele>
        <time>2021-09-08T09:27:49Z</time>
      </trkpt>
      <trkpt lat="44.29279" lon="5.72834">
        <ele>1040.7</ele>
        <time>2021-09-08T09:27:51Z</time>
      </trkpt>
      <trkpt lat="44.29279" lon="5.72828">
        <ele>1040.5</ele>
        <time>2021-09-08T09:27:52Z</time>
      </trkpt>
      <trkpt lat="44.2928" lon="5.72822">
        <ele>1040.4</ele>
        <time>2021-09-08T09:27:53Z</time>
      </trkpt>
      <trkpt lat="44.29281" lon="5.72818">
        <ele>1040.2</ele>
        <time>2021-09-08T09:27:55Z</time>
      </trkpt>
      <trkpt lat="44.29283" lon="5.72816">
        <ele>1040.1</ele>
        <time>2021-09-08T09:27:56Z</time>
      </trkpt>
      <trkpt lat="44.29285" lon="5.72816">
        <ele>1040</ele>
        <time>2021-09-08T09:27:58Z</time>
      </trkpt>
      <trkpt lat="44.29288" lon="5.72813">
        <ele>1039.9</ele>
        <time>2021-09-08T09:27:59Z</time>
      </trkpt>
      <trkpt lat="44.29288" lon="5.72812">
        <ele>1039.8</ele>
        <time>2021-09-08T09:28:00Z</time>
      </trkpt>
      <trkpt lat="44.29292" lon="5.72809">
        <ele>1039.6</ele>
        <time>2021-09-08T09:28:01Z</time>
      </trkpt>
      <trkpt lat="44.29295" lon="5.72805">
        <ele>1039.4</ele>
        <time>2021-09-08T09:28:02Z</time>
      </trkpt>
      <trkpt lat="44.29297" lon="5.72798">
        <ele>1039.2</ele>
        <time>2021-09-08T09:28:04Z</time>
      </trkpt>
      <trkpt lat="44.29299" lon="5.72792">
        <ele>1039</ele>
        <time>2021-09-08T09:28:05Z</time>
      </trkpt>
      <trkpt lat="44.29301" lon="5.72782">
        <ele>1038.6</ele>
        <time>2021-09-08T09:28:07Z</time>
      </trkpt>
      <trkpt lat="44.29303" lon="5.72778">
        <ele>1038.3</ele>
        <time>2021-09-08T09:28:08Z</time>
      </trkpt>
      <trkpt lat="44.29305" lon="5.72773">
        <ele>1038</ele>
        <time>2021-09-08T09:28:09Z</time>
      </trkpt>
      <trkpt lat="44.29303" lon="5.72768">
        <ele>1037.7</ele>
        <time>2021-09-08T09:28:11Z</time>
      </trkpt>
      <trkpt lat="44.29302" lon="5.72768">
        <ele>1037.5</ele>
        <time>2021-09-08T09:28:12Z</time>
      </trkpt>
      <trkpt lat="44.293" lon="5.72767">
        <ele>1037.4</ele>
        <time>2021-09-08T09:28:13Z</time>
      </trkpt>
      <trkpt lat="44.293" lon="5.72758">
        <ele>1036.8</ele>
        <time>2021-09-08T09:28:15Z</time>
      </trkpt>
      <trkpt lat="44.29301" lon="5.72752">
        <ele>1036.4</ele>
        <time>2021-09-08T09:28:17Z</time>
      </trkpt>
      <trkpt lat="44.29302" lon="5.72747">
        <ele>1036</ele>
        <time>2021-09-08T09:28:18Z</time>
      </trkpt>
      <trkpt lat="44.29302" lon="5.72741">
        <ele>1035.6</ele>
        <time>2021-09-08T09:28:19Z</time>
      </trkpt>
      <trkpt lat="44.29245" lon="5.72577">
        <ele>1022.3</ele>
        <time>2021-09-08T09:28:40Z</time>
      </trkpt>
      <trkpt lat="44.29245" lon="5.72573">
        <ele>1022</ele>
        <time>2021-09-08T09:28:41Z</time>
      </trkpt>
      <trkpt lat="44.29245" lon="5.72567">
        <ele>1021.7</ele>
        <time>2021-09-08T09:28:43Z</time>
      </trkpt>
      <trkpt lat="44.29244" lon="5.72559">
        <ele>1021.2</ele>
        <time>2021-09-08T09:28:44Z</time>
      </trkpt>
      <trkpt lat="44.29242" lon="5.72545">
        <ele>1020.5</ele>
        <time>2021-09-08T09:28:46Z</time>
      </trkpt>
      <trkpt lat="44.29242" lon="5.7254">
        <ele>1020.3</ele>
        <time>2021-09-08T09:28:47Z</time>
      </trkpt>
      <trkpt lat="44.29241" lon="5.72536">
        <ele>1020.1</ele>
        <time>2021-09-08T09:28:49Z</time>
      </trkpt>
      <trkpt lat="44.2924" lon="5.72535">
        <ele>1020</ele>
        <time>2021-09-08T09:28:51Z</time>
      </trkpt>
      <trkpt lat="44.29198" lon="5.72422">
        <ele>1015.5</ele>
        <time>2021-09-08T09:29:12Z</time>
      </trkpt>
      <trkpt lat="44.29196" lon="5.72411">
        <ele>1015.1</ele>
        <time>2021-09-08T09:29:13Z</time>
      </trkpt>
      <trkpt lat="44.29194" lon="5.72403">
        <ele>1014.7</ele>
        <time>2021-09-08T09:29:14Z</time>
      </trkpt>
      <trkpt lat="44.29192" lon="5.72393">
        <ele>1014.3</ele>
        <time>2021-09-08T09:29:16Z</time>
      </trkpt>
      <trkpt lat="44.29191" lon="5.72386">
        <ele>1014.1</ele>
        <time>2021-09-08T09:29:17Z</time>
      </trkpt>
      <trkpt lat="44.29188" lon="5.72374">
        <ele>1013.6</ele>
        <time>2021-09-08T09:29:19Z</time>
      </trkpt>
      <trkpt lat="44.29186" lon="5.72369">
        <ele>1013.5</ele>
        <time>2021-09-08T09:29:20Z</time>
      </trkpt>
      <trkpt lat="44.29184" lon="5.7236">
        <ele>1013.2</ele>
        <time>2021-09-08T09:29:22Z</time>
      </trkpt>
      <trkpt lat="44.29182" lon="5.72349">
        <ele>1012.9</ele>
        <time>2021-09-08T09:29:24Z</time>
      </trkpt>
      <trkpt lat="44.29183" lon="5.72345">
        <ele>1012.8</ele>
        <time>2021-09-08T09:29:25Z</time>
      </trkpt>
      <trkpt lat="44.29184" lon="5.72337">
        <ele>1012.6</ele>
        <time>2021-09-08T09:29:27Z</time>
      </trkpt>
      <trkpt lat="44.29183" lon="5.72332">
        <ele>1012.6</ele>
        <time>2021-09-08T09:29:28Z</time>
      </trkpt>
      <trkpt lat="44.29182" lon="5.72321">
        <ele>1012.4</ele>
        <time>2021-09-08T09:29:30Z</time>
      </trkpt>
      <trkpt lat="44.29181" lon="5.72315">
        <ele>1012.3</ele>
        <time>2021-09-08T09:29:31Z</time>
      </trkpt>
      <trkpt lat="44.29182" lon="5.72303">
        <ele>1012.2</ele>
        <time>2021-09-08T09:29:33Z</time>
      </trkpt>
      <trkpt lat="44.29184" lon="5.72299">
        <ele>1012.2</ele>
        <time>2021-09-08T09:29:34Z</time>
      </trkpt>
      <trkpt lat="44.29187" lon="5.72294">
        <ele>1012.1</ele>
        <time>2021-09-08T09:29:35Z</time>
      </trkpt>
      <trkpt lat="44.29191" lon="5.72291">
        <ele>1012.1</ele>
        <time>2021-09-08T09:29:36Z</time>
      </trkpt>
      <trkpt lat="44.29197" lon="5.72285">
        <ele>1012</ele>
        <time>2021-09-08T09:29:38Z</time>
      </trkpt>
      <trkpt lat="44.29198" lon="5.72284">
        <ele>1012</ele>
        <time>2021-09-08T09:29:39Z</time>
      </trkpt>
      <trkpt lat="44.29198" lon="5.72281">
        <ele>1012</ele>
        <time>2021-09-08T09:29:40Z</time>
      </trkpt>
      <trkpt lat="44.29199" lon="5.7228">
        <ele>1012</ele>
        <time>2021-09-08T09:29:41Z</time>
      </trkpt>
      <trkpt lat="44.29199" lon="5.72275">
        <ele>1011.9</ele>
        <time>2021-09-08T09:29:43Z</time>
      </trkpt>
      <trkpt lat="44.29199" lon="5.72267">
        <ele>1011.9</ele>
        <time>2021-09-08T09:29:45Z</time>
      </trkpt>
      <trkpt lat="44.29196" lon="5.72262">
        <ele>1011.9</ele>
        <time>2021-09-08T09:29:47Z</time>
      </trkpt>
      <trkpt lat="44.29194" lon="5.72258">
        <ele>1011.9</ele>
        <time>2021-09-08T09:29:48Z</time>
      </trkpt>
      <trkpt lat="44.29194" lon="5.72257">
        <ele>1011.9</ele>
        <time>2021-09-08T09:29:49Z</time>
      </trkpt>
      <trkpt lat="44.29194" lon="5.72254">
        <ele>1011.9</ele>
        <time>2021-09-08T09:29:50Z</time>
      </trkpt>
      <trkpt lat="44.29194" lon="5.72252">
        <ele>1011.9</ele>
        <time>2021-09-08T09:29:51Z</time>
      </trkpt>
      <trkpt lat="44.29193" lon="5.72248">
        <ele>1011.8</ele>
        <time>2021-09-08T09:29:53Z</time>
      </trkpt>
      <trkpt lat="44.29191" lon="5.72242">
        <ele>1011.8</ele>
        <time>2021-09-08T09:29:55Z</time>
      </trkpt>
      <trkpt lat="44.2919" lon="5.7224">
        <ele>1011.8</ele>
        <time>2021-09-08T09:29:57Z</time>
      </trkpt>
      <trkpt lat="44.2919" lon="5.72237">
        <ele>1011.8</ele>
        <time>2021-09-08T09:29:58Z</time>
      </trkpt>
      <trkpt lat="44.29188" lon="5.72232">
        <ele>1011.8</ele>
        <time>2021-09-08T09:30:00Z</time>
      </trkpt>
      <trkpt lat="44.29186" lon="5.72228">
        <ele>1011.7</ele>
        <time>2021-09-08T09:30:01Z</time>
      </trkpt>
      <trkpt lat="44.29184" lon="5.72223">
        <ele>1011.7</ele>
        <time>2021-09-08T09:30:02Z</time>
      </trkpt>
      <trkpt lat="44.29181" lon="5.7222">
        <ele>1011.7</ele>
        <time>2021-09-08T09:30:03Z</time>
      </trkpt>
      <trkpt lat="44.29179" lon="5.72218">
        <ele>1011.6</ele>
        <time>2021-09-08T09:30:04Z</time>
      </trkpt>
      <trkpt lat="44.29175" lon="5.72215">
        <ele>1011.6</ele>
        <time>2021-09-08T09:30:06Z</time>
      </trkpt>
      <trkpt lat="44.29172" lon="5.72214">
        <ele>1011.5</ele>
        <time>2021-09-08T09:30:07Z</time>
      </trkpt>
      <trkpt lat="44.29171" lon="5.72213">
        <ele>1011.5</ele>
        <time>2021-09-08T09:30:08Z</time>
      </trkpt>
      <trkpt lat="44.29156" lon="5.72205">
        <ele>1011.4</ele>
        <time>2021-09-08T09:30:09Z</time>
      </trkpt>
      <trkpt lat="44.29152" lon="5.72202">
        <ele>1011.3</ele>
        <time>2021-09-08T09:30:11Z</time>
      </trkpt>
      <trkpt lat="44.29145" lon="5.722">
        <ele>1011.3</ele>
        <time>2021-09-08T09:30:12Z</time>
      </trkpt>
      <trkpt lat="44.29141" lon="5.72199">
        <ele>1011.4</ele>
        <time>2021-09-08T09:30:13Z</time>
      </trkpt>
      <trkpt lat="44.29132" lon="5.72195">
        <ele>1011.5</ele>
        <time>2021-09-08T09:30:15Z</time>
      </trkpt>
      <trkpt lat="44.29126" lon="5.72192">
        <ele>1011.5</ele>
        <time>2021-09-08T09:30:16Z</time>
      </trkpt>
      <trkpt lat="44.29126" lon="5.72192">
        <ele>1011.5</ele>
        <time>2021-09-08T09:30:16Z</time>
      </trkpt>
      <trkpt lat="44.29124" lon="5.7219">
        <ele>1011.5</ele>
        <time>2021-09-08T09:30:17Z</time>
      </trkpt>
      <trkpt lat="44.29124" lon="5.72185">
        <ele>1011.5</ele>
        <time>2021-09-08T09:30:19Z</time>
      </trkpt>
      <trkpt lat="44.29124" lon="5.72183">
        <ele>1011.5</ele>
        <time>2021-09-08T09:30:20Z</time>
      </trkpt>
      <trkpt lat="44.29121" lon="5.72181">
        <ele>1011.5</ele>
        <time>2021-09-08T09:30:21Z</time>
      </trkpt>
      <trkpt lat="44.2912" lon="5.7218">
        <ele>1011.5</ele>
        <time>2021-09-08T09:30:22Z</time>
      </trkpt>
      <trkpt lat="44.29117" lon="5.72176">
        <ele>1011.5</ele>
        <time>2021-09-08T09:30:24Z</time>
      </trkpt>
      <trkpt lat="44.29115" lon="5.72172">
        <ele>1011.4</ele>
        <time>2021-09-08T09:30:25Z</time>
      </trkpt>
      <trkpt lat="44.29114" lon="5.7217">
        <ele>1011.4</ele>
        <time>2021-09-08T09:30:26Z</time>
      </trkpt>
      <trkpt lat="44.29113" lon="5.72165">
        <ele>1011.4</ele>
        <time>2021-09-08T09:30:28Z</time>
      </trkpt>
      <trkpt lat="44.29112" lon="5.72163">
        <ele>1011.4</ele>
        <time>2021-09-08T09:30:29Z</time>
      </trkpt>
      <trkpt lat="44.2911" lon="5.7216">
        <ele>1011.4</ele>
        <time>2021-09-08T09:30:31Z</time>
      </trkpt>
      <trkpt lat="44.29108" lon="5.72157">
        <ele>1011.4</ele>
        <time>2021-09-08T09:30:32Z</time>
      </trkpt>
      <trkpt lat="44.29106" lon="5.72154">
        <ele>1011.4</ele>
        <time>2021-09-08T09:30:34Z</time>
      </trkpt>
      <trkpt lat="44.29102" lon="5.72148">
        <ele>1011.4</ele>
        <time>2021-09-08T09:30:36Z</time>
      </trkpt>
      <trkpt lat="44.291" lon="5.72145">
        <ele>1011.3</ele>
        <time>2021-09-08T09:30:37Z</time>
      </trkpt>
      <trkpt lat="44.29097" lon="5.7214">
        <ele>1011.3</ele>
        <time>2021-09-08T09:30:38Z</time>
      </trkpt>
      <trkpt lat="44.29096" lon="5.72137">
        <ele>1011.3</ele>
        <time>2021-09-08T09:30:40Z</time>
      </trkpt>
      <trkpt lat="44.29095" lon="5.72131">
        <ele>1011.3</ele>
        <time>2021-09-08T09:30:42Z</time>
      </trkpt>
      <trkpt lat="44.29094" lon="5.72125">
        <ele>1011.3</ele>
        <time>2021-09-08T09:30:44Z</time>
      </trkpt>
      <trkpt lat="44.29093" lon="5.72124">
        <ele>1011.3</ele>
        <time>2021-09-08T09:30:46Z</time>
      </trkpt>
      <trkpt lat="44.29093" lon="5.72122">
        <ele>1011.3</ele>
        <time>2021-09-08T09:30:47Z</time>
      </trkpt>
      <trkpt lat="44.29094" lon="5.72117">
        <ele>1011.4</ele>
        <time>2021-09-08T09:30:49Z</time>
      </trkpt>
      <trkpt lat="44.29096" lon="5.72113">
        <ele>1011.4</ele>
        <time>2021-09-08T09:30:50Z</time>
      </trkpt>
      <trkpt lat="44.29101" lon="5.7211">
        <ele>1011.5</ele>
        <time>2021-09-08T09:30:52Z</time>
      </trkpt>
      <trkpt lat="44.29102" lon="5.72106">
        <ele>1011.5</ele>
        <time>2021-09-08T09:30:53Z</time>
      </trkpt>
      <trkpt lat="44.29105" lon="5.72104">
        <ele>1011.6</ele>
        <time>2021-09-08T09:30:54Z</time>
      </trkpt>
      <trkpt lat="44.29107" lon="5.72102">
        <ele>1011.7</ele>
        <time>2021-09-08T09:30:55Z</time>
      </trkpt>
      <trkpt lat="44.29109" lon="5.72095">
        <ele>1011.8</ele>
        <time>2021-09-08T09:30:57Z</time>
      </trkpt>
      <trkpt lat="44.29109" lon="5.72091">
        <ele>1011.8</ele>
        <time>2021-09-08T09:30:58Z</time>
      </trkpt>
      <trkpt lat="44.29109" lon="5.72087">
        <ele>1011.9</ele>
        <time>2021-09-08T09:30:59Z</time>
      </trkpt>
      <trkpt lat="44.29109" lon="5.72085">
        <ele>1011.9</ele>
        <time>2021-09-08T09:31:00Z</time>
      </trkpt>
      <trkpt lat="44.29109" lon="5.72082">
        <ele>1011.9</ele>
        <time>2021-09-08T09:31:01Z</time>
      </trkpt>
      <trkpt lat="44.29109" lon="5.72079">
        <ele>1011.9</ele>
        <time>2021-09-08T09:31:03Z</time>
      </trkpt>
      <trkpt lat="44.29107" lon="5.72075">
        <ele>1012</ele>
        <time>2021-09-08T09:31:04Z</time>
      </trkpt>
      <trkpt lat="44.29106" lon="5.72074">
        <ele>1012</ele>
        <time>2021-09-08T09:31:05Z</time>
      </trkpt>
      <trkpt lat="44.29102" lon="5.7207">
        <ele>1012</ele>
        <time>2021-09-08T09:31:07Z</time>
      </trkpt>
      <trkpt lat="44.29099" lon="5.72068">
        <ele>1012</ele>
        <time>2021-09-08T09:31:08Z</time>
      </trkpt>
      <trkpt lat="44.29098" lon="5.72068">
        <ele>1012</ele>
        <time>2021-09-08T09:31:09Z</time>
      </trkpt>
      <trkpt lat="44.29094" lon="5.72065">
        <ele>1012</ele>
        <time>2021-09-08T09:31:10Z</time>
      </trkpt>
      <trkpt lat="44.2909" lon="5.72062">
        <ele>1012</ele>
        <time>2021-09-08T09:31:12Z</time>
      </trkpt>
      <trkpt lat="44.29086" lon="5.7206">
        <ele>1012</ele>
        <time>2021-09-08T09:31:14Z</time>
      </trkpt>
      <trkpt lat="44.29082" lon="5.72058">
        <ele>1012.1</ele>
        <time>2021-09-08T09:31:15Z</time>
      </trkpt>
      <trkpt lat="44.29078" lon="5.72056">
        <ele>1012.1</ele>
        <time>2021-09-08T09:31:17Z</time>
      </trkpt>
      <trkpt lat="44.29073" lon="5.72053">
        <ele>1012.3</ele>
        <time>2021-09-08T09:31:18Z</time>
      </trkpt>
      <trkpt lat="44.29069" lon="5.72051">
        <ele>1012.4</ele>
        <time>2021-09-08T09:31:19Z</time>
      </trkpt>
      <trkpt lat="44.29065" lon="5.72049">
        <ele>1012.5</ele>
        <time>2021-09-08T09:32:33Z</time>
      </trkpt>
      <trkpt lat="44.29061" lon="5.72046">
        <ele>1012.7</ele>
        <time>2021-09-08T09:32:34Z</time>
      </trkpt>
      <trkpt lat="44.29057" lon="5.72044">
        <ele>1012.8</ele>
        <time>2021-09-08T09:32:36Z</time>
      </trkpt>
      <trkpt lat="44.29053" lon="5.72042">
        <ele>1013</ele>
        <time>2021-09-08T09:32:37Z</time>
      </trkpt>
      <trkpt lat="44.29048" lon="5.72039">
        <ele>1013.3</ele>
        <time>2021-09-08T09:32:38Z</time>
      </trkpt>
      <trkpt lat="44.29046" lon="5.72037">
        <ele>1013.4</ele>
        <time>2021-09-08T09:32:40Z</time>
      </trkpt>
      <trkpt lat="44.29045" lon="5.72037">
        <ele>1013.5</ele>
        <time>2021-09-08T09:32:41Z</time>
      </trkpt>
      <trkpt lat="44.29041" lon="5.72035">
        <ele>1013.7</ele>
        <time>2021-09-08T09:32:42Z</time>
      </trkpt>
      <trkpt lat="44.2904" lon="5.72034">
        <ele>1013.8</ele>
        <time>2021-09-08T09:32:43Z</time>
      </trkpt>
      <trkpt lat="44.29035" lon="5.72028">
        <ele>1014.2</ele>
        <time>2021-09-08T09:32:46Z</time>
      </trkpt>
      <trkpt lat="44.29034" lon="5.72027">
        <ele>1014.4</ele>
        <time>2021-09-08T09:32:47Z</time>
      </trkpt>
      <trkpt lat="44.29033" lon="5.72025">
        <ele>1014.5</ele>
        <time>2021-09-08T09:32:48Z</time>
      </trkpt>
      <trkpt lat="44.29031" lon="5.72022">
        <ele>1014.7</ele>
        <time>2021-09-08T09:32:49Z</time>
      </trkpt>
      <trkpt lat="44.2903" lon="5.7202">
        <ele>1014.8</ele>
        <time>2021-09-08T09:32:51Z</time>
      </trkpt>
      <trkpt lat="44.29028" lon="5.72016">
        <ele>1015.1</ele>
        <time>2021-09-08T09:32:52Z</time>
      </trkpt>
      <trkpt lat="44.29028" lon="5.72015">
        <ele>1015.1</ele>
        <time>2021-09-08T09:32:53Z</time>
      </trkpt>
      <trkpt lat="44.29027" lon="5.72012">
        <ele>1015.3</ele>
        <time>2021-09-08T09:32:55Z</time>
      </trkpt>
      <trkpt lat="44.29026" lon="5.72011">
        <ele>1015.3</ele>
        <time>2021-09-08T09:32:56Z</time>
      </trkpt>
      <trkpt lat="44.29026" lon="5.7201">
        <ele>1015.4</ele>
        <time>2021-09-08T09:32:57Z</time>
      </trkpt>
      <trkpt lat="44.29026" lon="5.72008">
        <ele>1015.5</ele>
        <time>2021-09-08T09:32:58Z</time>
      </trkpt>
      <trkpt lat="44.29027" lon="5.72008">
        <ele>1015.5</ele>
        <time>2021-09-08T09:33:01Z</time>
      </trkpt>
      <trkpt lat="44.29027" lon="5.72008">
        <ele>1015.6</ele>
        <time>2021-09-08T09:33:02Z</time>
      </trkpt>
      <trkpt lat="44.29028" lon="5.72008">
        <ele>1015.6</ele>
        <time>2021-09-08T09:33:04Z</time>
      </trkpt>
      <trkpt lat="44.29029" lon="5.72008">
        <ele>1015.6</ele>
        <time>2021-09-08T09:33:05Z</time>
      </trkpt>
      <trkpt lat="44.29031" lon="5.7201">
        <ele>1015.7</ele>
        <time>2021-09-08T09:33:07Z</time>
      </trkpt>
      <trkpt lat="44.29031" lon="5.72011">
        <ele>1015.8</ele>
        <time>2021-09-08T09:33:08Z</time>
      </trkpt>
      <trkpt lat="44.29032" lon="5.72012">
        <ele>1015.8</ele>
        <time>2021-09-08T09:33:10Z</time>
      </trkpt>
      <trkpt lat="44.29032" lon="5.72014">
        <ele>1015.8</ele>
        <time>2021-09-08T09:33:11Z</time>
      </trkpt>
      <trkpt lat="44.29032" lon="5.72015">
        <ele>1015.9</ele>
        <time>2021-09-08T09:33:13Z</time>
      </trkpt>
      <trkpt lat="44.29032" lon="5.72015">
        <ele>1015.9</ele>
        <time>2021-09-08T09:33:14Z</time>
      </trkpt>
      <trkpt lat="44.29031" lon="5.72017">
        <ele>1015.9</ele>
        <time>2021-09-08T09:33:15Z</time>
      </trkpt>
      <trkpt lat="44.29031" lon="5.72016">
        <ele>1015.9</ele>
        <time>2021-09-08T09:33:17Z</time>
      </trkpt>
      <trkpt lat="44.29031" lon="5.72013">
        <ele>1016</ele>
        <time>2021-09-08T09:33:18Z</time>
      </trkpt>
      <trkpt lat="44.2903" lon="5.72011">
        <ele>1016</ele>
        <time>2021-09-08T09:33:20Z</time>
      </trkpt>
      <trkpt lat="44.2903" lon="5.7201">
        <ele>1016</ele>
        <time>2021-09-08T09:33:21Z</time>
      </trkpt>
      <trkpt lat="44.29023" lon="5.72002">
        <ele>1016</ele>
        <time>2021-09-08T09:33:23Z</time>
      </trkpt>
      <trkpt lat="44.29017" lon="5.71994">
        <ele>1015.9</ele>
        <time>2021-09-08T09:33:25Z</time>
      </trkpt>
      <trkpt lat="44.29015" lon="5.71989">
        <ele>1015.9</ele>
        <time>2021-09-08T09:33:26Z</time>
      </trkpt>
      <trkpt lat="44.29013" lon="5.71986">
        <ele>1015.9</ele>
        <time>2021-09-08T09:33:27Z</time>
      </trkpt>
      <trkpt lat="44.29013" lon="5.71986">
        <ele>1015.9</ele>
        <time>2021-09-08T09:33:29Z</time>
      </trkpt>
      <trkpt lat="44.2901" lon="5.71984">
        <ele>1015.8</ele>
        <time>2021-09-08T09:33:30Z</time>
      </trkpt>
      <trkpt lat="44.2901" lon="5.71981">
        <ele>1015.8</ele>
        <time>2021-09-08T09:33:31Z</time>
      </trkpt>
      <trkpt lat="44.29011" lon="5.71979">
        <ele>1015.8</ele>
        <time>2021-09-08T09:33:33Z</time>
      </trkpt>
      <trkpt lat="44.29011" lon="5.71976">
        <ele>1015.8</ele>
        <time>2021-09-08T09:33:34Z</time>
      </trkpt>
      <trkpt lat="44.29012" lon="5.71974">
        <ele>1015.7</ele>
        <time>2021-09-08T09:33:35Z</time>
      </trkpt>
      <trkpt lat="44.29014" lon="5.71965">
        <ele>1015.6</ele>
        <time>2021-09-08T09:33:36Z</time>
      </trkpt>
      <trkpt lat="44.29015" lon="5.71955">
        <ele>1015.4</ele>
        <time>2021-09-08T09:33:38Z</time>
      </trkpt>
      <trkpt lat="44.29017" lon="5.71942">
        <ele>1015.1</ele>
        <time>2021-09-08T09:33:40Z</time>
      </trkpt>
      <trkpt lat="44.29017" lon="5.7193">
        <ele>1014.9</ele>
        <time>2021-09-08T09:33:41Z</time>
      </trkpt>
      <trkpt lat="44.29018" lon="5.71922">
        <ele>1014.7</ele>
        <time>2021-09-08T09:33:43Z</time>
      </trkpt>
      <trkpt lat="44.29016" lon="5.71912">
        <ele>1014.7</ele>
        <time>2021-09-08T09:33:44Z</time>
      </trkpt>
      <trkpt lat="44.29014" lon="5.71905">
        <ele>1014.7</ele>
        <time>2021-09-08T09:33:46Z</time>
      </trkpt>
      <trkpt lat="44.29011" lon="5.71899">
        <ele>1014.9</ele>
        <time>2021-09-08T09:33:47Z</time>
      </trkpt>
      <trkpt lat="44.29008" lon="5.71894">
        <ele>1015.1</ele>
        <time>2021-09-08T09:33:49Z</time>
      </trkpt>
      <trkpt lat="44.29005" lon="5.71891">
        <ele>1015.3</ele>
        <time>2021-09-08T09:33:50Z</time>
      </trkpt>
      <trkpt lat="44.29004" lon="5.71889">
        <ele>1015.4</ele>
        <time>2021-09-08T09:33:51Z</time>
      </trkpt>
      <trkpt lat="44.29001" lon="5.71885">
        <ele>1015.6</ele>
        <time>2021-09-08T09:33:53Z</time>
      </trkpt>
      <trkpt lat="44.29001" lon="5.71884">
        <ele>1015.7</ele>
        <time>2021-09-08T09:33:54Z</time>
      </trkpt>
      <trkpt lat="44.28999" lon="5.71882">
        <ele>1015.8</ele>
        <time>2021-09-08T09:33:55Z</time>
      </trkpt>
      <trkpt lat="44.28997" lon="5.7188">
        <ele>1015.8</ele>
        <time>2021-09-08T09:33:57Z</time>
      </trkpt>
      <trkpt lat="44.28994" lon="5.71878">
        <ele>1015.9</ele>
        <time>2021-09-08T09:33:58Z</time>
      </trkpt>
      <trkpt lat="44.28993" lon="5.71877">
        <ele>1015.9</ele>
        <time>2021-09-08T09:33:59Z</time>
      </trkpt>
      <trkpt lat="44.28991" lon="5.71877">
        <ele>1015.9</ele>
        <time>2021-09-08T09:34:01Z</time>
      </trkpt>
      <trkpt lat="44.2899" lon="5.71877">
        <ele>1015.9</ele>
        <time>2021-09-08T09:34:02Z</time>
      </trkpt>
      <trkpt lat="44.28989" lon="5.71877">
        <ele>1015.9</ele>
        <time>2021-09-08T09:34:03Z</time>
      </trkpt>
      <trkpt lat="44.28989" lon="5.71877">
        <ele>1015.9</ele>
        <time>2021-09-08T09:34:04Z</time>
      </trkpt>
      <trkpt lat="44.28989" lon="5.71876">
        <ele>1015.9</ele>
        <time>2021-09-08T09:34:06Z</time>
      </trkpt>
      <trkpt lat="44.28989" lon="5.71874">
        <ele>1015.9</ele>
        <time>2021-09-08T09:34:07Z</time>
      </trkpt>
      <trkpt lat="44.28988" lon="5.71871">
        <ele>1015.8</ele>
        <time>2021-09-08T09:34:09Z</time>
      </trkpt>
      <trkpt lat="44.28986" lon="5.71843">
        <ele>1014.2</ele>
        <time>2021-09-08T09:34:13Z</time>
      </trkpt>
      <trkpt lat="44.28983" lon="5.71831">
        <ele>1013.4</ele>
        <time>2021-09-08T09:34:15Z</time>
      </trkpt>
      <trkpt lat="44.28983" lon="5.71814">
        <ele>1012.9</ele>
        <time>2021-09-08T09:34:16Z</time>
      </trkpt>
      <trkpt lat="44.28981" lon="5.71794">
        <ele>1012.9</ele>
        <time>2021-09-08T09:34:18Z</time>
      </trkpt>
      <trkpt lat="44.2898" lon="5.71788">
        <ele>1013</ele>
        <time>2021-09-08T09:34:19Z</time>
      </trkpt>
      <trkpt lat="44.28979" lon="5.71778">
        <ele>1013.1</ele>
        <time>2021-09-08T09:34:20Z</time>
      </trkpt>
      <trkpt lat="44.28979" lon="5.7177">
        <ele>1013.3</ele>
        <time>2021-09-08T09:34:22Z</time>
      </trkpt>
      <trkpt lat="44.28979" lon="5.71764">
        <ele>1013.5</ele>
        <time>2021-09-08T09:34:23Z</time>
      </trkpt>
      <trkpt lat="44.28978" lon="5.71755">
        <ele>1013.9</ele>
        <time>2021-09-08T09:34:24Z</time>
      </trkpt>
      <trkpt lat="44.28977" lon="5.71748">
        <ele>1014.3</ele>
        <time>2021-09-08T09:34:26Z</time>
      </trkpt>
      <trkpt lat="44.28975" lon="5.71744">
        <ele>1014.5</ele>
        <time>2021-09-08T09:34:27Z</time>
      </trkpt>
      <trkpt lat="44.28972" lon="5.71741">
        <ele>1014.9</ele>
        <time>2021-09-08T09:34:28Z</time>
      </trkpt>
      <trkpt lat="44.2897" lon="5.7174">
        <ele>1015</ele>
        <time>2021-09-08T09:34:29Z</time>
      </trkpt>
      <trkpt lat="44.28968" lon="5.71739">
        <ele>1015.2</ele>
        <time>2021-09-08T09:34:31Z</time>
      </trkpt>
      <trkpt lat="44.28967" lon="5.71739">
        <ele>1015.3</ele>
        <time>2021-09-08T09:34:32Z</time>
      </trkpt>
      <trkpt lat="44.28967" lon="5.71738">
        <ele>1015.4</ele>
        <time>2021-09-08T09:34:34Z</time>
      </trkpt>
      <trkpt lat="44.28965" lon="5.71737">
        <ele>1015.6</ele>
        <time>2021-09-08T09:34:36Z</time>
      </trkpt>
      <trkpt lat="44.28962" lon="5.71735">
        <ele>1015.9</ele>
        <time>2021-09-08T09:34:37Z</time>
      </trkpt>
      <trkpt lat="44.28961" lon="5.71734">
        <ele>1016</ele>
        <time>2021-09-08T09:34:38Z</time>
      </trkpt>
      <trkpt lat="44.28948" lon="5.71709">
        <ele>1018.3</ele>
        <time>2021-09-08T09:34:58Z</time>
      </trkpt>
      <trkpt lat="44.28946" lon="5.71706">
        <ele>1018.7</ele>
        <time>2021-09-08T09:34:59Z</time>
      </trkpt>
      <trkpt lat="44.28943" lon="5.71702">
        <ele>1019.1</ele>
        <time>2021-09-08T09:35:00Z</time>
      </trkpt>
      <trkpt lat="44.2894" lon="5.71697">
        <ele>1019.5</ele>
        <time>2021-09-08T09:35:02Z</time>
      </trkpt>
      <trkpt lat="44.28938" lon="5.71695">
        <ele>1019.8</ele>
        <time>2021-09-08T09:35:04Z</time>
      </trkpt>
      <trkpt lat="44.28937" lon="5.71694">
        <ele>1020</ele>
        <time>2021-09-08T09:35:05Z</time>
      </trkpt>
      <trkpt lat="44.28936" lon="5.71692">
        <ele>1020.2</ele>
        <time>2021-09-08T09:35:06Z</time>
      </trkpt>
      <trkpt lat="44.28935" lon="5.71692">
        <ele>1020.3</ele>
        <time>2021-09-08T09:35:08Z</time>
      </trkpt>
      <trkpt lat="44.28934" lon="5.71692">
        <ele>1020.4</ele>
        <time>2021-09-08T09:35:09Z</time>
      </trkpt>
      <trkpt lat="44.28934" lon="5.71692">
        <ele>1020.4</ele>
        <time>2021-09-08T09:35:10Z</time>
      </trkpt>
      <trkpt lat="44.28934" lon="5.71691">
        <ele>1020.5</ele>
        <time>2021-09-08T09:35:12Z</time>
      </trkpt>
      <trkpt lat="44.28934" lon="5.71691">
        <ele>1020.5</ele>
        <time>2021-09-08T09:35:13Z</time>
      </trkpt>
      <trkpt lat="44.28933" lon="5.7169">
        <ele>1020.6</ele>
        <time>2021-09-08T09:35:15Z</time>
      </trkpt>
      <trkpt lat="44.28798" lon="5.71427">
        <ele>1044.9</ele>
        <time>2021-09-08T09:40:05Z</time>
      </trkpt>
      <trkpt lat="44.28793" lon="5.71426">
        <ele>1045.5</ele>
        <time>2021-09-08T09:40:06Z</time>
      </trkpt>
      <trkpt lat="44.28783" lon="5.71426">
        <ele>1046.4</ele>
        <time>2021-09-08T09:40:07Z</time>
      </trkpt>
      <trkpt lat="44.28777" lon="5.71426">
        <ele>1047</ele>
        <time>2021-09-08T09:40:09Z</time>
      </trkpt>
      <trkpt lat="44.28771" lon="5.71424">
        <ele>1047.7</ele>
        <time>2021-09-08T09:40:10Z</time>
      </trkpt>
      <trkpt lat="44.28767" lon="5.71423">
        <ele>1048.1</ele>
        <time>2021-09-08T09:40:12Z</time>
      </trkpt>
      <trkpt lat="44.28764" lon="5.71422">
        <ele>1048.6</ele>
        <time>2021-09-08T09:40:13Z</time>
      </trkpt>
      <trkpt lat="44.28761" lon="5.7142">
        <ele>1048.9</ele>
        <time>2021-09-08T09:40:14Z</time>
      </trkpt>
      <trkpt lat="44.28762" lon="5.71419">
        <ele>1049</ele>
        <time>2021-09-08T09:40:16Z</time>
      </trkpt>
      <trkpt lat="44.2876" lon="5.71416">
        <ele>1049.4</ele>
        <time>2021-09-08T09:40:17Z</time>
      </trkpt>
      <trkpt lat="44.28758" lon="5.71415">
        <ele>1049.7</ele>
        <time>2021-09-08T09:40:19Z</time>
      </trkpt>
      <trkpt lat="44.28757" lon="5.71414">
        <ele>1049.8</ele>
        <time>2021-09-08T09:40:20Z</time>
      </trkpt>
      <trkpt lat="44.28755" lon="5.71413">
        <ele>1050</ele>
        <time>2021-09-08T09:40:21Z</time>
      </trkpt>
      <trkpt lat="44.28755" lon="5.71412">
        <ele>1050.1</ele>
        <time>2021-09-08T09:40:23Z</time>
      </trkpt>
      <trkpt lat="44.28755" lon="5.71411">
        <ele>1050.1</ele>
        <time>2021-09-08T09:40:24Z</time>
      </trkpt>
      <trkpt lat="44.28841" lon="5.71299">
        <ele>1057.3</ele>
        <time>2021-09-08T09:41:52Z</time>
      </trkpt>
      <trkpt lat="44.28836" lon="5.71288">
        <ele>1056.5</ele>
        <time>2021-09-08T09:41:53Z</time>
      </trkpt>
      <trkpt lat="44.28831" lon="5.71278">
        <ele>1055.8</ele>
        <time>2021-09-08T09:41:55Z</time>
      </trkpt>
      <trkpt lat="44.28826" lon="5.71265">
        <ele>1054.8</ele>
        <time>2021-09-08T09:41:56Z</time>
      </trkpt>
      <trkpt lat="44.28822" lon="5.71259">
        <ele>1054.3</ele>
        <time>2021-09-08T09:41:58Z</time>
      </trkpt>
      <trkpt lat="44.2882" lon="5.71251">
        <ele>1053.8</ele>
        <time>2021-09-08T09:42:00Z</time>
      </trkpt>
      <trkpt lat="44.28821" lon="5.71246">
        <ele>1053.5</ele>
        <time>2021-09-08T09:42:01Z</time>
      </trkpt>
      <trkpt lat="44.28821" lon="5.71245">
        <ele>1053.4</ele>
        <time>2021-09-08T09:42:02Z</time>
      </trkpt>
      <trkpt lat="44.28822" lon="5.71241">
        <ele>1053.1</ele>
        <time>2021-09-08T09:42:03Z</time>
      </trkpt>
      <trkpt lat="44.28823" lon="5.71237">
        <ele>1052.8</ele>
        <time>2021-09-08T09:42:05Z</time>
      </trkpt>
      <trkpt lat="44.28824" lon="5.7123">
        <ele>1052.4</ele>
        <time>2021-09-08T09:42:07Z</time>
      </trkpt>
      <trkpt lat="44.28837" lon="5.71173">
        <ele>1047.3</ele>
        <time>2021-09-08T09:42:12Z</time>
      </trkpt>
      <trkpt lat="44.28838" lon="5.71165">
        <ele>1046.6</ele>
        <time>2021-09-08T09:42:13Z</time>
      </trkpt>
      <trkpt lat="44.2884" lon="5.71155">
        <ele>1045.7</ele>
        <time>2021-09-08T09:42:14Z</time>
      </trkpt>
      <trkpt lat="44.28841" lon="5.71144">
        <ele>1045</ele>
        <time>2021-09-08T09:42:15Z</time>
      </trkpt>
      <trkpt lat="44.28842" lon="5.71136">
        <ele>1044.5</ele>
        <time>2021-09-08T09:42:16Z</time>
      </trkpt>
      <trkpt lat="44.28843" lon="5.7113">
        <ele>1044.2</ele>
        <time>2021-09-08T09:42:18Z</time>
      </trkpt>
      <trkpt lat="44.28845" lon="5.7112">
        <ele>1043.7</ele>
        <time>2021-09-08T09:42:19Z</time>
      </trkpt>
      <trkpt lat="44.28846" lon="5.71115">
        <ele>1043.5</ele>
        <time>2021-09-08T09:42:20Z</time>
      </trkpt>
      <trkpt lat="44.28849" lon="5.71101">
        <ele>1042.8</ele>
        <time>2021-09-08T09:42:21Z</time>
      </trkpt>
      <trkpt lat="44.28851" lon="5.71093">
        <ele>1042.3</ele>
        <time>2021-09-08T09:42:23Z</time>
      </trkpt>
      <trkpt lat="44.28853" lon="5.71087">
        <ele>1041.9</ele>
        <time>2021-09-08T09:42:24Z</time>
      </trkpt>
      <trkpt lat="44.28854" lon="5.71083">
        <ele>1041.6</ele>
        <time>2021-09-08T09:42:26Z</time>
      </trkpt>
      <trkpt lat="44.28854" lon="5.71082">
        <ele>1041.5</ele>
        <time>2021-09-08T09:42:27Z</time>
      </trkpt>
      <trkpt lat="44.28853" lon="5.71081">
        <ele>1041.4</ele>
        <time>2021-09-08T09:42:28Z</time>
      </trkpt>
      <trkpt lat="44.2885" lon="5.71075">
        <ele>1040.9</ele>
        <time>2021-09-08T09:42:30Z</time>
      </trkpt>
      <trkpt lat="44.28847" lon="5.71069">
        <ele>1040.4</ele>
        <time>2021-09-08T09:42:31Z</time>
      </trkpt>
      <trkpt lat="44.28845" lon="5.71067">
        <ele>1040.2</ele>
        <time>2021-09-08T09:42:32Z</time>
      </trkpt>
      <trkpt lat="44.28844" lon="5.71061">
        <ele>1039.8</ele>
        <time>2021-09-08T09:42:34Z</time>
      </trkpt>
      <trkpt lat="44.28844" lon="5.71059">
        <ele>1039.7</ele>
        <time>2021-09-08T09:42:35Z</time>
      </trkpt>
      <trkpt lat="44.28843" lon="5.71057">
        <ele>1039.6</ele>
        <time>2021-09-08T09:42:36Z</time>
      </trkpt>
      <trkpt lat="44.28844" lon="5.7105">
        <ele>1039.2</ele>
        <time>2021-09-08T09:42:37Z</time>
      </trkpt>
      <trkpt lat="44.28844" lon="5.71045">
        <ele>1038.9</ele>
        <time>2021-09-08T09:42:38Z</time>
      </trkpt>
      <trkpt lat="44.28845" lon="5.7104">
        <ele>1038.7</ele>
        <time>2021-09-08T09:42:40Z</time>
      </trkpt>
      <trkpt lat="44.28845" lon="5.71037">
        <ele>1038.5</ele>
        <time>2021-09-08T09:42:41Z</time>
      </trkpt>
      <trkpt lat="44.28845" lon="5.71035">
        <ele>1038.4</ele>
        <time>2021-09-08T09:42:42Z</time>
      </trkpt>
      <trkpt lat="44.28845" lon="5.71033">
        <ele>1038.3</ele>
        <time>2021-09-08T09:42:43Z</time>
      </trkpt>
      <trkpt lat="44.28845" lon="5.71031">
        <ele>1038.2</ele>
        <time>2021-09-08T09:42:45Z</time>
      </trkpt>
      <trkpt lat="44.28844" lon="5.71025">
        <ele>1038</ele>
        <time>2021-09-08T09:42:46Z</time>
      </trkpt>
      <trkpt lat="44.28844" lon="5.71023">
        <ele>1037.9</ele>
        <time>2021-09-08T09:42:47Z</time>
      </trkpt>
      <trkpt lat="44.28844" lon="5.71018">
        <ele>1037.7</ele>
        <time>2021-09-08T09:42:48Z</time>
      </trkpt>
      <trkpt lat="44.28842" lon="5.71012">
        <ele>1037.4</ele>
        <time>2021-09-08T09:42:49Z</time>
      </trkpt>
      <trkpt lat="44.2884" lon="5.71006">
        <ele>1037.1</ele>
        <time>2021-09-08T09:42:51Z</time>
      </trkpt>
      <trkpt lat="44.28837" lon="5.71002">
        <ele>1036.8</ele>
        <time>2021-09-08T09:42:52Z</time>
      </trkpt>
      <trkpt lat="44.28835" lon="5.71002">
        <ele>1036.7</ele>
        <time>2021-09-08T09:42:53Z</time>
      </trkpt>
      <trkpt lat="44.2883" lon="5.71">
        <ele>1036.3</ele>
        <time>2021-09-08T09:42:54Z</time>
      </trkpt>
      <trkpt lat="44.28827" lon="5.70999">
        <ele>1036.1</ele>
        <time>2021-09-08T09:42:55Z</time>
      </trkpt>
      <trkpt lat="44.28824" lon="5.70997">
        <ele>1036.2</ele>
        <time>2021-09-08T09:42:57Z</time>
      </trkpt>
      <trkpt lat="44.28822" lon="5.70995">
        <ele>1036.3</ele>
        <time>2021-09-08T09:42:58Z</time>
      </trkpt>
      <trkpt lat="44.28817" lon="5.70992">
        <ele>1036.4</ele>
        <time>2021-09-08T09:43:00Z</time>
      </trkpt>
      <trkpt lat="44.28814" lon="5.70989">
        <ele>1036.5</ele>
        <time>2021-09-08T09:43:01Z</time>
      </trkpt>
      <trkpt lat="44.28811" lon="5.70986">
        <ele>1036.6</ele>
        <time>2021-09-08T09:43:02Z</time>
      </trkpt>
      <trkpt lat="44.28808" lon="5.7098">
        <ele>1036.7</ele>
        <time>2021-09-08T09:43:04Z</time>
      </trkpt>
      <trkpt lat="44.28806" lon="5.70976">
        <ele>1036.9</ele>
        <time>2021-09-08T09:43:05Z</time>
      </trkpt>
      <trkpt lat="44.28804" lon="5.70969">
        <ele>1037</ele>
        <time>2021-09-08T09:43:06Z</time>
      </trkpt>
      <trkpt lat="44.28803" lon="5.70963">
        <ele>1037.2</ele>
        <time>2021-09-08T09:43:07Z</time>
      </trkpt>
      <trkpt lat="44.28804" lon="5.70959">
        <ele>1037.3</ele>
        <time>2021-09-08T09:43:09Z</time>
      </trkpt>
      <trkpt lat="44.28803" lon="5.70954">
        <ele>1037.4</ele>
        <time>2021-09-08T09:43:10Z</time>
      </trkpt>
      <trkpt lat="44.288" lon="5.70949">
        <ele>1037.6</ele>
        <time>2021-09-08T09:43:11Z</time>
      </trkpt>
      <trkpt lat="44.28797" lon="5.70945">
        <ele>1037.8</ele>
        <time>2021-09-08T09:43:12Z</time>
      </trkpt>
      <trkpt lat="44.28794" lon="5.70942">
        <ele>1037.9</ele>
        <time>2021-09-08T09:43:13Z</time>
      </trkpt>
      <trkpt lat="44.28792" lon="5.70938">
        <ele>1038.1</ele>
        <time>2021-09-08T09:43:15Z</time>
      </trkpt>
      <trkpt lat="44.28791" lon="5.70934">
        <ele>1038.2</ele>
        <time>2021-09-08T09:43:16Z</time>
      </trkpt>
      <trkpt lat="44.2879" lon="5.70933">
        <ele>1038.3</ele>
        <time>2021-09-08T09:43:17Z</time>
      </trkpt>
      <trkpt lat="44.28789" lon="5.70929">
        <ele>1038.4</ele>
        <time>2021-09-08T09:43:18Z</time>
      </trkpt>
      <trkpt lat="44.28788" lon="5.70925">
        <ele>1038.4</ele>
        <time>2021-09-08T09:43:19Z</time>
      </trkpt>
      <trkpt lat="44.28784" lon="5.70918">
        <ele>1038.6</ele>
        <time>2021-09-08T09:43:21Z</time>
      </trkpt>
      <trkpt lat="44.28781" lon="5.7091">
        <ele>1038.6</ele>
        <time>2021-09-08T09:43:22Z</time>
      </trkpt>
      <trkpt lat="44.28779" lon="5.70905">
        <ele>1038.6</ele>
        <time>2021-09-08T09:43:24Z</time>
      </trkpt>
      <trkpt lat="44.28777" lon="5.70898">
        <ele>1038.7</ele>
        <time>2021-09-08T09:43:25Z</time>
      </trkpt>
      <trkpt lat="44.28777" lon="5.70893">
        <ele>1038.7</ele>
        <time>2021-09-08T09:43:27Z</time>
      </trkpt>
      <trkpt lat="44.28776" lon="5.70889">
        <ele>1038.7</ele>
        <time>2021-09-08T09:43:28Z</time>
      </trkpt>
      <trkpt lat="44.28776" lon="5.70885">
        <ele>1038.7</ele>
        <time>2021-09-08T09:43:29Z</time>
      </trkpt>
      <trkpt lat="44.28775" lon="5.70876">
        <ele>1038.7</ele>
        <time>2021-09-08T09:43:30Z</time>
      </trkpt>
      <trkpt lat="44.28775" lon="5.70869">
        <ele>1038.7</ele>
        <time>2021-09-08T09:43:32Z</time>
      </trkpt>
      <trkpt lat="44.28774" lon="5.70863">
        <ele>1038.7</ele>
        <time>2021-09-08T09:43:33Z</time>
      </trkpt>
      <trkpt lat="44.28772" lon="5.70855">
        <ele>1038.7</ele>
        <time>2021-09-08T09:43:35Z</time>
      </trkpt>
      <trkpt lat="44.28771" lon="5.70851">
        <ele>1038.7</ele>
        <time>2021-09-08T09:43:36Z</time>
      </trkpt>
      <trkpt lat="44.28772" lon="5.70843">
        <ele>1038.7</ele>
        <time>2021-09-08T09:43:37Z</time>
      </trkpt>
      <trkpt lat="44.28774" lon="5.70836">
        <ele>1038.7</ele>
        <time>2021-09-08T09:43:39Z</time>
      </trkpt>
      <trkpt lat="44.28776" lon="5.7083">
        <ele>1038.7</ele>
        <time>2021-09-08T09:43:40Z</time>
      </trkpt>
      <trkpt lat="44.28779" lon="5.70822">
        <ele>1038.8</ele>
        <time>2021-09-08T09:43:42Z</time>
      </trkpt>
      <trkpt lat="44.2878" lon="5.70815">
        <ele>1038.9</ele>
        <time>2021-09-08T09:43:43Z</time>
      </trkpt>
      <trkpt lat="44.28781" lon="5.70809">
        <ele>1039</ele>
        <time>2021-09-08T09:43:45Z</time>
      </trkpt>
      <trkpt lat="44.28779" lon="5.708">
        <ele>1039.2</ele>
        <time>2021-09-08T09:43:46Z</time>
      </trkpt>
      <trkpt lat="44.28777" lon="5.70794">
        <ele>1039.3</ele>
        <time>2021-09-08T09:43:48Z</time>
      </trkpt>
      <trkpt lat="44.28775" lon="5.70787">
        <ele>1039.5</ele>
        <time>2021-09-08T09:43:50Z</time>
      </trkpt>
      <trkpt lat="44.28774" lon="5.70782">
        <ele>1039.6</ele>
        <time>2021-09-08T09:43:51Z</time>
      </trkpt>
      <trkpt lat="44.28772" lon="5.70778">
        <ele>1039.7</ele>
        <time>2021-09-08T09:43:52Z</time>
      </trkpt>
      <trkpt lat="44.2877" lon="5.70773">
        <ele>1039.9</ele>
        <time>2021-09-08T09:43:53Z</time>
      </trkpt>
      <trkpt lat="44.28768" lon="5.70766">
        <ele>1040.1</ele>
        <time>2021-09-08T09:43:55Z</time>
      </trkpt>
      <trkpt lat="44.28766" lon="5.7076">
        <ele>1040.3</ele>
        <time>2021-09-08T09:43:56Z</time>
      </trkpt>
      <trkpt lat="44.28765" lon="5.70754">
        <ele>1040.4</ele>
        <time>2021-09-08T09:43:57Z</time>
      </trkpt>
      <trkpt lat="44.28765" lon="5.70752">
        <ele>1040.5</ele>
        <time>2021-09-08T09:43:59Z</time>
      </trkpt>
      <trkpt lat="44.28764" lon="5.70749">
        <ele>1040.6</ele>
        <time>2021-09-08T09:44:00Z</time>
      </trkpt>
      <trkpt lat="44.28764" lon="5.70745">
        <ele>1040.7</ele>
        <time>2021-09-08T09:44:01Z</time>
      </trkpt>
      <trkpt lat="44.28762" lon="5.70744">
        <ele>1040.8</ele>
        <time>2021-09-08T09:44:03Z</time>
      </trkpt>
      <trkpt lat="44.28762" lon="5.70742">
        <ele>1040.8</ele>
        <time>2021-09-08T09:44:04Z</time>
      </trkpt>
      <trkpt lat="44.28762" lon="5.70737">
        <ele>1041</ele>
        <time>2021-09-08T09:44:06Z</time>
      </trkpt>
      <trkpt lat="44.28762" lon="5.70735">
        <ele>1041</ele>
        <time>2021-09-08T09:44:07Z</time>
      </trkpt>
      <trkpt lat="44.28762" lon="5.70731">
        <ele>1041.1</ele>
        <time>2021-09-08T09:44:09Z</time>
      </trkpt>
      <trkpt lat="44.28761" lon="5.70726">
        <ele>1041.3</ele>
        <time>2021-09-08T09:44:11Z</time>
      </trkpt>
      <trkpt lat="44.2872" lon="5.70604">
        <ele>1045.2</ele>
        <time>2021-09-08T09:45:00Z</time>
      </trkpt>
      <trkpt lat="44.28725" lon="5.70596">
        <ele>1045.4</ele>
        <time>2021-09-08T09:45:01Z</time>
      </trkpt>
      <trkpt lat="44.28728" lon="5.70589">
        <ele>1045.6</ele>
        <time>2021-09-08T09:45:02Z</time>
      </trkpt>
      <trkpt lat="44.28732" lon="5.70585">
        <ele>1045.8</ele>
        <time>2021-09-08T09:45:03Z</time>
      </trkpt>
      <trkpt lat="44.28741" lon="5.70574">
        <ele>1046.3</ele>
        <time>2021-09-08T09:45:05Z</time>
      </trkpt>
      <trkpt lat="44.28748" lon="5.70565">
        <ele>1046.5</ele>
        <time>2021-09-08T09:45:06Z</time>
      </trkpt>
      <trkpt lat="44.28751" lon="5.7056">
        <ele>1046.7</ele>
        <time>2021-09-08T09:45:08Z</time>
      </trkpt>
      <trkpt lat="44.28753" lon="5.70552">
        <ele>1046.8</ele>
        <time>2021-09-08T09:45:10Z</time>
      </trkpt>
      <trkpt lat="44.28753" lon="5.70545">
        <ele>1047</ele>
        <time>2021-09-08T09:45:11Z</time>
      </trkpt>
      <trkpt lat="44.28752" lon="5.70538">
        <ele>1047.1</ele>
        <time>2021-09-08T09:45:13Z</time>
      </trkpt>
      <trkpt lat="44.28751" lon="5.70532">
        <ele>1047.2</ele>
        <time>2021-09-08T09:45:14Z</time>
      </trkpt>
      <trkpt lat="44.2875" lon="5.70527">
        <ele>1047.4</ele>
        <time>2021-09-08T09:45:15Z</time>
      </trkpt>
      <trkpt lat="44.28752" lon="5.70521">
        <ele>1047.5</ele>
        <time>2021-09-08T09:45:17Z</time>
      </trkpt>
      <trkpt lat="44.28753" lon="5.70515">
        <ele>1047.7</ele>
        <time>2021-09-08T09:45:18Z</time>
      </trkpt>
      <trkpt lat="44.28754" lon="5.7051">
        <ele>1047.8</ele>
        <time>2021-09-08T09:45:19Z</time>
      </trkpt>
      <trkpt lat="44.28753" lon="5.70506">
        <ele>1047.9</ele>
        <time>2021-09-08T09:45:20Z</time>
      </trkpt>
      <trkpt lat="44.28753" lon="5.70502">
        <ele>1048</ele>
        <time>2021-09-08T09:45:22Z</time>
      </trkpt>
      <trkpt lat="44.28753" lon="5.70498">
        <ele>1048.1</ele>
        <time>2021-09-08T09:45:23Z</time>
      </trkpt>
      <trkpt lat="44.2875" lon="5.70491">
        <ele>1048.3</ele>
        <time>2021-09-08T09:45:25Z</time>
      </trkpt>
      <trkpt lat="44.28749" lon="5.70488">
        <ele>1048.4</ele>
        <time>2021-09-08T09:45:26Z</time>
      </trkpt>
      <trkpt lat="44.28747" lon="5.70485">
        <ele>1048.5</ele>
        <time>2021-09-08T09:45:28Z</time>
      </trkpt>
      <trkpt lat="44.28743" lon="5.70481">
        <ele>1048.7</ele>
        <time>2021-09-08T09:45:29Z</time>
      </trkpt>
      <trkpt lat="44.28741" lon="5.7048">
        <ele>1048.8</ele>
        <time>2021-09-08T09:45:30Z</time>
      </trkpt>
      <trkpt lat="44.28739" lon="5.70477">
        <ele>1049</ele>
        <time>2021-09-08T09:45:31Z</time>
      </trkpt>
      <trkpt lat="44.28735" lon="5.70474">
        <ele>1049.2</ele>
        <time>2021-09-08T09:45:33Z</time>
      </trkpt>
      <trkpt lat="44.28734" lon="5.70472">
        <ele>1049.2</ele>
        <time>2021-09-08T09:45:34Z</time>
      </trkpt>
      <trkpt lat="44.28733" lon="5.70471">
        <ele>1049.3</ele>
        <time>2021-09-08T09:45:35Z</time>
      </trkpt>
      <trkpt lat="44.28732" lon="5.70468">
        <ele>1049.4</ele>
        <time>2021-09-08T09:45:36Z</time>
      </trkpt>
      <trkpt lat="44.28734" lon="5.70465">
        <ele>1049.5</ele>
        <time>2021-09-08T09:45:38Z</time>
      </trkpt>
      <trkpt lat="44.28736" lon="5.7046">
        <ele>1049.6</ele>
        <time>2021-09-08T09:45:39Z</time>
      </trkpt>
      <trkpt lat="44.28738" lon="5.70456">
        <ele>1049.7</ele>
        <time>2021-09-08T09:45:40Z</time>
      </trkpt>
      <trkpt lat="44.28741" lon="5.70454">
        <ele>1049.8</ele>
        <time>2021-09-08T09:45:41Z</time>
      </trkpt>
      <trkpt lat="44.28744" lon="5.7045">
        <ele>1050</ele>
        <time>2021-09-08T09:45:43Z</time>
      </trkpt>
      <trkpt lat="44.28747" lon="5.70447">
        <ele>1050.1</ele>
        <time>2021-09-08T09:45:44Z</time>
      </trkpt>
      <trkpt lat="44.28753" lon="5.70439">
        <ele>1050.4</ele>
        <time>2021-09-08T09:45:46Z</time>
      </trkpt>
      <trkpt lat="44.28756" lon="5.70434">
        <ele>1050.6</ele>
        <time>2021-09-08T09:45:47Z</time>
      </trkpt>
      <trkpt lat="44.28759" lon="5.70429">
        <ele>1050.8</ele>
        <time>2021-09-08T09:45:48Z</time>
      </trkpt>
      <trkpt lat="44.2876" lon="5.70426">
        <ele>1050.9</ele>
        <time>2021-09-08T09:45:49Z</time>
      </trkpt>
      <trkpt lat="44.28761" lon="5.70424">
        <ele>1051</ele>
        <time>2021-09-08T09:45:51Z</time>
      </trkpt>
      <trkpt lat="44.2876" lon="5.70421">
        <ele>1051.1</ele>
        <time>2021-09-08T09:45:52Z</time>
      </trkpt>
      <trkpt lat="44.28759" lon="5.70416">
        <ele>1051.2</ele>
        <time>2021-09-08T09:45:54Z</time>
      </trkpt>
      <trkpt lat="44.28759" lon="5.70414">
        <ele>1051.3</ele>
        <time>2021-09-08T09:45:55Z</time>
      </trkpt>
      <trkpt lat="44.28757" lon="5.70401">
        <ele>1051.7</ele>
        <time>2021-09-08T09:45:57Z</time>
      </trkpt>
      <trkpt lat="44.28755" lon="5.70396">
        <ele>1051.9</ele>
        <time>2021-09-08T09:45:58Z</time>
      </trkpt>
      <trkpt lat="44.28754" lon="5.70392">
        <ele>1052</ele>
        <time>2021-09-08T09:45:59Z</time>
      </trkpt>
      <trkpt lat="44.28752" lon="5.70383">
        <ele>1052.3</ele>
        <time>2021-09-08T09:46:01Z</time>
      </trkpt>
      <trkpt lat="44.28753" lon="5.70379">
        <ele>1052.4</ele>
        <time>2021-09-08T09:46:02Z</time>
      </trkpt>
      <trkpt lat="44.28754" lon="5.70371">
        <ele>1052.6</ele>
        <time>2021-09-08T09:46:03Z</time>
      </trkpt>
      <trkpt lat="44.28755" lon="5.70364">
        <ele>1052.9</ele>
        <time>2021-09-08T09:46:05Z</time>
      </trkpt>
      <trkpt lat="44.28756" lon="5.70362">
        <ele>1052.9</ele>
        <time>2021-09-08T09:46:06Z</time>
      </trkpt>
      <trkpt lat="44.28756" lon="5.7036">
        <ele>1053</ele>
        <time>2021-09-08T09:46:07Z</time>
      </trkpt>
      <trkpt lat="44.28755" lon="5.70357">
        <ele>1053.1</ele>
        <time>2021-09-08T09:46:09Z</time>
      </trkpt>
      <trkpt lat="44.28754" lon="5.70355">
        <ele>1053.2</ele>
        <time>2021-09-08T09:46:10Z</time>
      </trkpt>
      <trkpt lat="44.28753" lon="5.70354">
        <ele>1053.3</ele>
        <time>2021-09-08T09:46:11Z</time>
      </trkpt>
      <trkpt lat="44.28759" lon="5.70189">
        <ele>1056.2</ele>
        <time>2021-09-08T09:46:55Z</time>
      </trkpt>
      <trkpt lat="44.28761" lon="5.70183">
        <ele>1056.3</ele>
        <time>2021-09-08T09:46:57Z</time>
      </trkpt>
      <trkpt lat="44.28762" lon="5.70177">
        <ele>1056.4</ele>
        <time>2021-09-08T09:46:58Z</time>
      </trkpt>
      <trkpt lat="44.28762" lon="5.70167">
        <ele>1056.6</ele>
        <time>2021-09-08T09:46:59Z</time>
      </trkpt>
      <trkpt lat="44.28764" lon="5.70162">
        <ele>1056.7</ele>
        <time>2021-09-08T09:47:01Z</time>
      </trkpt>
      <trkpt lat="44.28764" lon="5.70155">
        <ele>1056.8</ele>
        <time>2021-09-08T09:47:02Z</time>
      </trkpt>
      <trkpt lat="44.28764" lon="5.7015">
        <ele>1056.9</ele>
        <time>2021-09-08T09:47:03Z</time>
      </trkpt>
      <trkpt lat="44.28764" lon="5.70147">
        <ele>1057</ele>
        <time>2021-09-08T09:47:04Z</time>
      </trkpt>
      <trkpt lat="44.2876" lon="5.70144">
        <ele>1057.2</ele>
        <time>2021-09-08T09:47:06Z</time>
      </trkpt>
      <trkpt lat="44.28757" lon="5.70141">
        <ele>1057.4</ele>
        <time>2021-09-08T09:47:07Z</time>
      </trkpt>
      <trkpt lat="44.28737" lon="5.70131">
        <ele>1058.4</ele>
        <time>2021-09-08T09:47:08Z</time>
      </trkpt>
      <trkpt lat="44.28732" lon="5.70128">
        <ele>1058.7</ele>
        <time>2021-09-08T09:47:10Z</time>
      </trkpt>
      <trkpt lat="44.28727" lon="5.70123">
        <ele>1059</ele>
        <time>2021-09-08T09:47:11Z</time>
      </trkpt>
      <trkpt lat="44.28725" lon="5.70121">
        <ele>1059.1</ele>
        <time>2021-09-08T09:47:13Z</time>
      </trkpt>
      <trkpt lat="44.28726" lon="5.7012">
        <ele>1059.2</ele>
        <time>2021-09-08T09:47:14Z</time>
      </trkpt>
      <trkpt lat="44.28727" lon="5.70119">
        <ele>1059.2</ele>
        <time>2021-09-08T09:47:15Z</time>
      </trkpt>
      <trkpt lat="44.28728" lon="5.70117">
        <ele>1059.3</ele>
        <time>2021-09-08T09:47:16Z</time>
      </trkpt>
      <trkpt lat="44.28728" lon="5.70116">
        <ele>1059.4</ele>
        <time>2021-09-08T09:47:17Z</time>
      </trkpt>
      <trkpt lat="44.28731" lon="5.70113">
        <ele>1059.5</ele>
        <time>2021-09-08T09:47:19Z</time>
      </trkpt>
      <trkpt lat="44.28732" lon="5.70111">
        <ele>1059.5</ele>
        <time>2021-09-08T09:47:21Z</time>
      </trkpt>
      <trkpt lat="44.28738" lon="5.701">
        <ele>1059.8</ele>
        <time>2021-09-08T09:47:27Z</time>
      </trkpt>
      <trkpt lat="44.2874" lon="5.70092">
        <ele>1059.8</ele>
        <time>2021-09-08T09:47:28Z</time>
      </trkpt>
      <trkpt lat="44.28739" lon="5.70087">
        <ele>1059.9</ele>
        <time>2021-09-08T09:47:29Z</time>
      </trkpt>
      <trkpt lat="44.28737" lon="5.70081">
        <ele>1059.9</ele>
        <time>2021-09-08T09:47:31Z</time>
      </trkpt>
      <trkpt lat="44.28736" lon="5.70076">
        <ele>1059.9</ele>
        <time>2021-09-08T09:47:32Z</time>
      </trkpt>
      <trkpt lat="44.28735" lon="5.70066">
        <ele>1060</ele>
        <time>2021-09-08T09:47:33Z</time>
      </trkpt>
      <trkpt lat="44.28736" lon="5.7006">
        <ele>1060.1</ele>
        <time>2021-09-08T09:47:34Z</time>
      </trkpt>
      <trkpt lat="44.28738" lon="5.70054">
        <ele>1060.2</ele>
        <time>2021-09-08T09:47:36Z</time>
      </trkpt>
      <trkpt lat="44.28739" lon="5.7005">
        <ele>1060.3</ele>
        <time>2021-09-08T09:47:37Z</time>
      </trkpt>
      <trkpt lat="44.28741" lon="5.70045">
        <ele>1060.4</ele>
        <time>2021-09-08T09:47:38Z</time>
      </trkpt>
      <trkpt lat="44.28744" lon="5.70041">
        <ele>1060.6</ele>
        <time>2021-09-08T09:47:40Z</time>
      </trkpt>
      <trkpt lat="44.28747" lon="5.7004">
        <ele>1060.6</ele>
        <time>2021-09-08T09:47:41Z</time>
      </trkpt>
      <trkpt lat="44.28751" lon="5.70039">
        <ele>1060.8</ele>
        <time>2021-09-08T09:47:42Z</time>
      </trkpt>
      <trkpt lat="44.28755" lon="5.70037">
        <ele>1060.8</ele>
        <time>2021-09-08T09:47:43Z</time>
      </trkpt>
      <trkpt lat="44.28758" lon="5.70036">
        <ele>1060.9</ele>
        <time>2021-09-08T09:47:45Z</time>
      </trkpt>
      <trkpt lat="44.28761" lon="5.70035">
        <ele>1061</ele>
        <time>2021-09-08T09:47:46Z</time>
      </trkpt>
      <trkpt lat="44.28766" lon="5.70033">
        <ele>1061.1</ele>
        <time>2021-09-08T09:47:47Z</time>
      </trkpt>
      <trkpt lat="44.28772" lon="5.70029">
        <ele>1061.3</ele>
        <time>2021-09-08T09:47:48Z</time>
      </trkpt>
      <trkpt lat="44.28777" lon="5.70025">
        <ele>1061.4</ele>
        <time>2021-09-08T09:47:50Z</time>
      </trkpt>
      <trkpt lat="44.28782" lon="5.7002">
        <ele>1061.5</ele>
        <time>2021-09-08T09:47:51Z</time>
      </trkpt>
      <trkpt lat="44.28786" lon="5.70016">
        <ele>1061.7</ele>
        <time>2021-09-08T09:47:52Z</time>
      </trkpt>
      <trkpt lat="44.28791" lon="5.70009">
        <ele>1062</ele>
        <time>2021-09-08T09:47:54Z</time>
      </trkpt>
      <trkpt lat="44.28796" lon="5.70003">
        <ele>1062.2</ele>
        <time>2021-09-08T09:47:55Z</time>
      </trkpt>
      <trkpt lat="44.28799" lon="5.69998">
        <ele>1062.4</ele>
        <time>2021-09-08T09:47:56Z</time>
      </trkpt>
      <trkpt lat="44.28802" lon="5.69993">
        <ele>1062.6</ele>
        <time>2021-09-08T09:47:58Z</time>
      </trkpt>
      <trkpt lat="44.28804" lon="5.69989">
        <ele>1062.8</ele>
        <time>2021-09-08T09:47:59Z</time>
      </trkpt>
      <trkpt lat="44.28806" lon="5.69984">
        <ele>1063</ele>
        <time>2021-09-08T09:48:00Z</time>
      </trkpt>
      <trkpt lat="44.28809" lon="5.69978">
        <ele>1063.2</ele>
        <time>2021-09-08T09:48:02Z</time>
      </trkpt>
      <trkpt lat="44.28811" lon="5.69975">
        <ele>1063.3</ele>
        <time>2021-09-08T09:48:03Z</time>
      </trkpt>
      <trkpt lat="44.28813" lon="5.69973">
        <ele>1063.4</ele>
        <time>2021-09-08T09:48:04Z</time>
      </trkpt>
      <trkpt lat="44.28818" lon="5.69968">
        <ele>1063.7</ele>
        <time>2021-09-08T09:48:07Z</time>
      </trkpt>
      <trkpt lat="44.28822" lon="5.69963">
        <ele>1064</ele>
        <time>2021-09-08T09:48:09Z</time>
      </trkpt>
      <trkpt lat="44.28825" lon="5.6996">
        <ele>1064.2</ele>
        <time>2021-09-08T09:48:11Z</time>
      </trkpt>
      <trkpt lat="44.28825" lon="5.69959">
        <ele>1064.2</ele>
        <time>2021-09-08T09:48:12Z</time>
      </trkpt>
      <trkpt lat="44.28826" lon="5.69959">
        <ele>1064.2</ele>
        <time>2021-09-08T09:48:13Z</time>
      </trkpt>
      <trkpt lat="44.28826" lon="5.69959">
        <ele>1064.2</ele>
        <time>2021-09-08T09:48:14Z</time>
      </trkpt>
      <trkpt lat="44.28796" lon="5.69902">
        <ele>1067.7</ele>
        <time>2021-09-08T09:48:53Z</time>
      </trkpt>
      <trkpt lat="44.28795" lon="5.69899">
        <ele>1067.8</ele>
        <time>2021-09-08T09:48:54Z</time>
      </trkpt>
      <trkpt lat="44.28793" lon="5.69896">
        <ele>1067.9</ele>
        <time>2021-09-08T09:48:56Z</time>
      </trkpt>
      <trkpt lat="44.28793" lon="5.69894">
        <ele>1068</ele>
        <time>2021-09-08T09:48:57Z</time>
      </trkpt>
      <trkpt lat="44.28792" lon="5.69892">
        <ele>1068</ele>
        <time>2021-09-08T09:48:58Z</time>
      </trkpt>
      <trkpt lat="44.28792" lon="5.69891">
        <ele>1068</ele>
        <time>2021-09-08T09:49:00Z</time>
      </trkpt>
      <trkpt lat="44.28791" lon="5.69889">
        <ele>1068.1</ele>
        <time>2021-09-08T09:49:02Z</time>
      </trkpt>
      <trkpt lat="44.2879" lon="5.69889">
        <ele>1068.1</ele>
        <time>2021-09-08T09:49:03Z</time>
      </trkpt>
      <trkpt lat="44.2879" lon="5.69888">
        <ele>1068.1</ele>
        <time>2021-09-08T09:49:05Z</time>
      </trkpt>
      <trkpt lat="44.28789" lon="5.69888">
        <ele>1068.1</ele>
        <time>2021-09-08T09:49:06Z</time>
      </trkpt>
      <trkpt lat="44.28789" lon="5.69887">
        <ele>1068.1</ele>
        <time>2021-09-08T09:49:08Z</time>
      </trkpt>
      <trkpt lat="44.28788" lon="5.69887">
        <ele>1068.1</ele>
        <time>2021-09-08T09:49:09Z</time>
      </trkpt>
      <trkpt lat="44.28786" lon="5.69885">
        <ele>1068.2</ele>
        <time>2021-09-08T09:49:10Z</time>
      </trkpt>
      <trkpt lat="44.28784" lon="5.69881">
        <ele>1068.2</ele>
        <time>2021-09-08T09:49:13Z</time>
      </trkpt>
      <trkpt lat="44.28771" lon="5.69855">
        <ele>1067.8</ele>
        <time>2021-09-08T09:49:14Z</time>
      </trkpt>
      <trkpt lat="44.28769" lon="5.6985">
        <ele>1068.3</ele>
        <time>2021-09-08T09:49:15Z</time>
      </trkpt>
      <trkpt lat="44.28767" lon="5.69842">
        <ele>1069.2</ele>
        <time>2021-09-08T09:49:16Z</time>
      </trkpt>
      <trkpt lat="44.28765" lon="5.69834">
        <ele>1070.2</ele>
        <time>2021-09-08T09:49:17Z</time>
      </trkpt>
      <trkpt lat="44.28763" lon="5.69828">
        <ele>1070.8</ele>
        <time>2021-09-08T09:49:18Z</time>
      </trkpt>
      <trkpt lat="44.28762" lon="5.69823">
        <ele>1070.8</ele>
        <time>2021-09-08T09:49:19Z</time>
      </trkpt>
      <trkpt lat="44.2876" lon="5.69819">
        <ele>1070.8</ele>
        <time>2021-09-08T09:49:21Z</time>
      </trkpt>
      <trkpt lat="44.28757" lon="5.69815">
        <ele>1070.8</ele>
        <time>2021-09-08T09:49:22Z</time>
      </trkpt>
      <trkpt lat="44.28755" lon="5.69813">
        <ele>1070.8</ele>
        <time>2021-09-08T09:49:23Z</time>
      </trkpt>
      <trkpt lat="44.28751" lon="5.6981">
        <ele>1070.8</ele>
        <time>2021-09-08T09:49:24Z</time>
      </trkpt>
      <trkpt lat="44.28749" lon="5.6981">
        <ele>1070.8</ele>
        <time>2021-09-08T09:49:26Z</time>
      </trkpt>
      <trkpt lat="44.28749" lon="5.69808">
        <ele>1070.8</ele>
        <time>2021-09-08T09:49:27Z</time>
      </trkpt>
      <trkpt lat="44.28747" lon="5.69801">
        <ele>1070.8</ele>
        <time>2021-09-08T09:49:29Z</time>
      </trkpt>
      <trkpt lat="44.28744" lon="5.69794">
        <ele>1070.8</ele>
        <time>2021-09-08T09:49:31Z</time>
      </trkpt>
      <trkpt lat="44.28743" lon="5.69789">
        <ele>1070.8</ele>
        <time>2021-09-08T09:49:33Z</time>
      </trkpt>
      <trkpt lat="44.28742" lon="5.69784">
        <ele>1070.8</ele>
        <time>2021-09-08T09:49:35Z</time>
      </trkpt>
      <trkpt lat="44.28742" lon="5.69783">
        <ele>1070.8</ele>
        <time>2021-09-08T09:49:36Z</time>
      </trkpt>
      <trkpt lat="44.28744" lon="5.69778">
        <ele>1070.8</ele>
        <time>2021-09-08T09:49:38Z</time>
      </trkpt>
      <trkpt lat="44.28744" lon="5.69777">
        <ele>1070.8</ele>
        <time>2021-09-08T09:49:39Z</time>
      </trkpt>
      <trkpt lat="44.28744" lon="5.69775">
        <ele>1070.8</ele>
        <time>2021-09-08T09:49:40Z</time>
      </trkpt>
      <trkpt lat="44.28744" lon="5.69772">
        <ele>1070.8</ele>
        <time>2021-09-08T09:49:41Z</time>
      </trkpt>
      <trkpt lat="44.28745" lon="5.69768">
        <ele>1070.8</ele>
        <time>2021-09-08T09:49:42Z</time>
      </trkpt>
      <trkpt lat="44.28746" lon="5.69764">
        <ele>1070.9</ele>
        <time>2021-09-08T09:49:44Z</time>
      </trkpt>
      <trkpt lat="44.28747" lon="5.69761">
        <ele>1070.9</ele>
        <time>2021-09-08T09:49:45Z</time>
      </trkpt>
      <trkpt lat="44.28747" lon="5.69759">
        <ele>1070.9</ele>
        <time>2021-09-08T09:49:46Z</time>
      </trkpt>
      <trkpt lat="44.28749" lon="5.69755">
        <ele>1070.9</ele>
        <time>2021-09-08T09:49:47Z</time>
      </trkpt>
      <trkpt lat="44.28751" lon="5.69753">
        <ele>1071</ele>
        <time>2021-09-08T09:49:48Z</time>
      </trkpt>
      <trkpt lat="44.28753" lon="5.69749">
        <ele>1071</ele>
        <time>2021-09-08T09:49:49Z</time>
      </trkpt>
      <trkpt lat="44.28754" lon="5.69748">
        <ele>1071</ele>
        <time>2021-09-08T09:49:50Z</time>
      </trkpt>
      <trkpt lat="44.28756" lon="5.69746">
        <ele>1071</ele>
        <time>2021-09-08T09:49:51Z</time>
      </trkpt>
      <trkpt lat="44.28758" lon="5.69742">
        <ele>1071</ele>
        <time>2021-09-08T09:49:53Z</time>
      </trkpt>
      <trkpt lat="44.2876" lon="5.69739">
        <ele>1071.1</ele>
        <time>2021-09-08T09:49:54Z</time>
      </trkpt>
      <trkpt lat="44.28762" lon="5.69735">
        <ele>1071.1</ele>
        <time>2021-09-08T09:49:56Z</time>
      </trkpt>
      <trkpt lat="44.28762" lon="5.69734">
        <ele>1071.1</ele>
        <time>2021-09-08T09:49:57Z</time>
      </trkpt>
      <trkpt lat="44.28763" lon="5.69731">
        <ele>1071.1</ele>
        <time>2021-09-08T09:49:59Z</time>
      </trkpt>
      <trkpt lat="44.28763" lon="5.69729">
        <ele>1071.1</ele>
        <time>2021-09-08T09:50:00Z</time>
      </trkpt>
      <trkpt lat="44.28764" lon="5.69726">
        <ele>1071.1</ele>
        <time>2021-09-08T09:50:02Z</time>
      </trkpt>
      <trkpt lat="44.28765" lon="5.69723">
        <ele>1071.2</ele>
        <time>2021-09-08T09:50:03Z</time>
      </trkpt>
      <trkpt lat="44.28766" lon="5.69722">
        <ele>1071.2</ele>
        <time>2021-09-08T09:50:04Z</time>
      </trkpt>
      <trkpt lat="44.28766" lon="5.69721">
        <ele>1071.2</ele>
        <time>2021-09-08T09:50:05Z</time>
      </trkpt>
      <trkpt lat="44.28767" lon="5.69717">
        <ele>1071.2</ele>
        <time>2021-09-08T09:50:07Z</time>
      </trkpt>
      <trkpt lat="44.28767" lon="5.69714">
        <ele>1071.2</ele>
        <time>2021-09-08T09:50:08Z</time>
      </trkpt>
      <trkpt lat="44.28766" lon="5.69713">
        <ele>1071.2</ele>
        <time>2021-09-08T09:50:09Z</time>
      </trkpt>
      <trkpt lat="44.28765" lon="5.69708">
        <ele>1071.2</ele>
        <time>2021-09-08T09:50:11Z</time>
      </trkpt>
      <trkpt lat="44.28764" lon="5.69705">
        <ele>1071.1</ele>
        <time>2021-09-08T09:50:12Z</time>
      </trkpt>
      <trkpt lat="44.28761" lon="5.69701">
        <ele>1071.1</ele>
        <time>2021-09-08T09:50:14Z</time>
      </trkpt>
      <trkpt lat="44.2876" lon="5.697">
        <ele>1071.1</ele>
        <time>2021-09-08T09:50:15Z</time>
      </trkpt>
      <trkpt lat="44.28759" lon="5.69699">
        <ele>1071.1</ele>
        <time>2021-09-08T09:50:16Z</time>
      </trkpt>
      <trkpt lat="44.28758" lon="5.69698">
        <ele>1071.1</ele>
        <time>2021-09-08T09:50:17Z</time>
      </trkpt>
      <trkpt lat="44.28758" lon="5.69694">
        <ele>1071.1</ele>
        <time>2021-09-08T09:50:19Z</time>
      </trkpt>
      <trkpt lat="44.28758" lon="5.69692">
        <ele>1071.2</ele>
        <time>2021-09-08T09:50:20Z</time>
      </trkpt>
      <trkpt lat="44.28758" lon="5.6969">
        <ele>1071.3</ele>
        <time>2021-09-08T09:50:21Z</time>
      </trkpt>
      <trkpt lat="44.28755" lon="5.69687">
        <ele>1071.4</ele>
        <time>2021-09-08T09:50:22Z</time>
      </trkpt>
      <trkpt lat="44.28755" lon="5.69686">
        <ele>1071.4</ele>
        <time>2021-09-08T09:50:23Z</time>
      </trkpt>
      <trkpt lat="44.28752" lon="5.69683">
        <ele>1071.5</ele>
        <time>2021-09-08T09:50:25Z</time>
      </trkpt>
      <trkpt lat="44.28752" lon="5.69682">
        <ele>1071.6</ele>
        <time>2021-09-08T09:50:26Z</time>
      </trkpt>
      <trkpt lat="44.28749" lon="5.69679">
        <ele>1071.6</ele>
        <time>2021-09-08T09:50:27Z</time>
      </trkpt>
      <trkpt lat="44.28747" lon="5.69677">
        <ele>1071.7</ele>
        <time>2021-09-08T09:50:29Z</time>
      </trkpt>
      <trkpt lat="44.28746" lon="5.69673">
        <ele>1071.7</ele>
        <time>2021-09-08T09:50:30Z</time>
      </trkpt>
      <trkpt lat="44.28744" lon="5.6967">
        <ele>1071.8</ele>
        <time>2021-09-08T09:50:32Z</time>
      </trkpt>
      <trkpt lat="44.28741" lon="5.69666">
        <ele>1071.8</ele>
        <time>2021-09-08T09:50:34Z</time>
      </trkpt>
      <trkpt lat="44.2874" lon="5.69663">
        <ele>1071.8</ele>
        <time>2021-09-08T09:50:35Z</time>
      </trkpt>
      <trkpt lat="44.28738" lon="5.69661">
        <ele>1071.9</ele>
        <time>2021-09-08T09:50:36Z</time>
      </trkpt>
      <trkpt lat="44.28735" lon="5.69659">
        <ele>1071.9</ele>
        <time>2021-09-08T09:50:38Z</time>
      </trkpt>
      <trkpt lat="44.28732" lon="5.69656">
        <ele>1071.9</ele>
        <time>2021-09-08T09:50:39Z</time>
      </trkpt>
      <trkpt lat="44.28729" lon="5.69654">
        <ele>1071.9</ele>
        <time>2021-09-08T09:50:40Z</time>
      </trkpt>
      <trkpt lat="44.28727" lon="5.69651">
        <ele>1072</ele>
        <time>2021-09-08T09:50:41Z</time>
      </trkpt>
      <trkpt lat="44.28721" lon="5.69646">
        <ele>1072.1</ele>
        <time>2021-09-08T09:50:43Z</time>
      </trkpt>
      <trkpt lat="44.28716" lon="5.6964">
        <ele>1072.2</ele>
        <time>2021-09-08T09:50:45Z</time>
      </trkpt>
      <trkpt lat="44.28713" lon="5.69635">
        <ele>1072.2</ele>
        <time>2021-09-08T09:50:46Z</time>
      </trkpt>
      <trkpt lat="44.2871" lon="5.69632">
        <ele>1072.3</ele>
        <time>2021-09-08T09:50:47Z</time>
      </trkpt>
      <trkpt lat="44.28708" lon="5.69627">
        <ele>1072.4</ele>
        <time>2021-09-08T09:50:48Z</time>
      </trkpt>
      <trkpt lat="44.28706" lon="5.69623">
        <ele>1072.4</ele>
        <time>2021-09-08T09:50:50Z</time>
      </trkpt>
      <trkpt lat="44.28703" lon="5.69615">
        <ele>1072.6</ele>
        <time>2021-09-08T09:50:52Z</time>
      </trkpt>
      <trkpt lat="44.28701" lon="5.69611">
        <ele>1072.7</ele>
        <time>2021-09-08T09:50:53Z</time>
      </trkpt>
      <trkpt lat="44.28697" lon="5.69608">
        <ele>1072.8</ele>
        <time>2021-09-08T09:50:54Z</time>
      </trkpt>
      <trkpt lat="44.28694" lon="5.69605">
        <ele>1072.9</ele>
        <time>2021-09-08T09:50:55Z</time>
      </trkpt>
      <trkpt lat="44.28691" lon="5.696">
        <ele>1073.1</ele>
        <time>2021-09-08T09:50:56Z</time>
      </trkpt>
      <trkpt lat="44.28687" lon="5.69594">
        <ele>1073.3</ele>
        <time>2021-09-08T09:50:58Z</time>
      </trkpt>
      <trkpt lat="44.28685" lon="5.6959">
        <ele>1073.4</ele>
        <time>2021-09-08T09:50:59Z</time>
      </trkpt>
      <trkpt lat="44.28684" lon="5.69588">
        <ele>1073.5</ele>
        <time>2021-09-08T09:51:00Z</time>
      </trkpt>
      <trkpt lat="44.28683" lon="5.69583">
        <ele>1073.7</ele>
        <time>2021-09-08T09:51:02Z</time>
      </trkpt>
      <trkpt lat="44.28683" lon="5.69582">
        <ele>1073.8</ele>
        <time>2021-09-08T09:51:03Z</time>
      </trkpt>
      <trkpt lat="44.28681" lon="5.69576">
        <ele>1074.1</ele>
        <time>2021-09-08T09:51:05Z</time>
      </trkpt>
      <trkpt lat="44.28678" lon="5.69568">
        <ele>1074.5</ele>
        <time>2021-09-08T09:51:07Z</time>
      </trkpt>
      <trkpt lat="44.28677" lon="5.69563">
        <ele>1074.7</ele>
        <time>2021-09-08T09:51:08Z</time>
      </trkpt>
      <trkpt lat="44.28677" lon="5.69561">
        <ele>1074.8</ele>
        <time>2021-09-08T09:51:09Z</time>
      </trkpt>
      <trkpt lat="44.2868" lon="5.69557">
        <ele>1075.1</ele>
        <time>2021-09-08T09:51:11Z</time>
      </trkpt>
      <trkpt lat="44.28681" lon="5.69556">
        <ele>1075.2</ele>
        <time>2021-09-08T09:51:12Z</time>
      </trkpt>
      <trkpt lat="44.28683" lon="5.69555">
        <ele>1075.3</ele>
        <time>2021-09-08T09:51:13Z</time>
      </trkpt>
      <trkpt lat="44.28683" lon="5.69555">
        <ele>1075.3</ele>
        <time>2021-09-08T09:51:14Z</time>
      </trkpt>
      <trkpt lat="44.28684" lon="5.69554">
        <ele>1075.4</ele>
        <time>2021-09-08T09:51:15Z</time>
      </trkpt>
      <trkpt lat="44.28684" lon="5.69554">
        <ele>1075.4</ele>
        <time>2021-09-08T09:51:16Z</time>
      </trkpt>
      <trkpt lat="44.28685" lon="5.69552">
        <ele>1075.5</ele>
        <time>2021-09-08T09:51:18Z</time>
      </trkpt>
      <trkpt lat="44.28686" lon="5.6955">
        <ele>1075.6</ele>
        <time>2021-09-08T09:51:19Z</time>
      </trkpt>
      <trkpt lat="44.28686" lon="5.69549">
        <ele>1075.7</ele>
        <time>2021-09-08T09:51:20Z</time>
      </trkpt>
      <trkpt lat="44.28687" lon="5.69545">
        <ele>1075.9</ele>
        <time>2021-09-08T09:51:22Z</time>
      </trkpt>
      <trkpt lat="44.28685" lon="5.69537">
        <ele>1076.3</ele>
        <time>2021-09-08T09:51:25Z</time>
      </trkpt>
      <trkpt lat="44.28683" lon="5.69536">
        <ele>1076.5</ele>
        <time>2021-09-08T09:51:27Z</time>
      </trkpt>
      <trkpt lat="44.28682" lon="5.69536">
        <ele>1076.5</ele>
        <time>2021-09-08T09:51:28Z</time>
      </trkpt>
      <trkpt lat="44.28681" lon="5.69536">
        <ele>1076.6</ele>
        <time>2021-09-08T09:51:29Z</time>
      </trkpt>
      <trkpt lat="44.2868" lon="5.69537">
        <ele>1076.7</ele>
        <time>2021-09-08T09:51:31Z</time>
      </trkpt>
      <trkpt lat="44.28679" lon="5.69537">
        <ele>1076.8</ele>
        <time>2021-09-08T09:51:32Z</time>
      </trkpt>
      <trkpt lat="44.28678" lon="5.69537">
        <ele>1076.8</ele>
        <time>2021-09-08T09:51:33Z</time>
      </trkpt>
      <trkpt lat="44.28677" lon="5.69538">
        <ele>1076.9</ele>
        <time>2021-09-08T09:51:34Z</time>
      </trkpt>
      <trkpt lat="44.28675" lon="5.69538">
        <ele>1077</ele>
        <time>2021-09-08T09:51:35Z</time>
      </trkpt>
      <trkpt lat="44.28674" lon="5.69539">
        <ele>1077.1</ele>
        <time>2021-09-08T09:51:36Z</time>
      </trkpt>
      <trkpt lat="44.28673" lon="5.6954">
        <ele>1077.2</ele>
        <time>2021-09-08T09:51:38Z</time>
      </trkpt>
      <trkpt lat="44.28672" lon="5.6954">
        <ele>1077.3</ele>
        <time>2021-09-08T09:51:39Z</time>
      </trkpt>
      <trkpt lat="44.28672" lon="5.69541">
        <ele>1077.3</ele>
        <time>2021-09-08T09:51:40Z</time>
      </trkpt>
      <trkpt lat="44.2867" lon="5.69542">
        <ele>1077.4</ele>
        <time>2021-09-08T09:51:42Z</time>
      </trkpt>
      <trkpt lat="44.28669" lon="5.69542">
        <ele>1077.5</ele>
        <time>2021-09-08T09:51:44Z</time>
      </trkpt>
      <trkpt lat="44.28668" lon="5.69542">
        <ele>1077.6</ele>
        <time>2021-09-08T09:51:45Z</time>
      </trkpt>
      <trkpt lat="44.28659" lon="5.69538">
        <ele>1078.2</ele>
        <time>2021-09-08T09:51:46Z</time>
      </trkpt>
      <trkpt lat="44.2865" lon="5.69533">
        <ele>1079</ele>
        <time>2021-09-08T09:51:48Z</time>
      </trkpt>
      <trkpt lat="44.28647" lon="5.69531">
        <ele>1079.3</ele>
        <time>2021-09-08T09:51:49Z</time>
      </trkpt>
      <trkpt lat="44.28646" lon="5.6953">
        <ele>1079.4</ele>
        <time>2021-09-08T09:51:50Z</time>
      </trkpt>
      <trkpt lat="44.28645" lon="5.69529">
        <ele>1079.5</ele>
        <time>2021-09-08T09:51:51Z</time>
      </trkpt>
      <trkpt lat="44.28645" lon="5.69528">
        <ele>1079.5</ele>
        <time>2021-09-08T09:51:52Z</time>
      </trkpt>
      <trkpt lat="44.28644" lon="5.69526">
        <ele>1079.7</ele>
        <time>2021-09-08T09:51:54Z</time>
      </trkpt>
      <trkpt lat="44.28643" lon="5.69524">
        <ele>1079.8</ele>
        <time>2021-09-08T09:51:55Z</time>
      </trkpt>
      <trkpt lat="44.28642" lon="5.69523">
        <ele>1079.9</ele>
        <time>2021-09-08T09:51:56Z</time>
      </trkpt>
      <trkpt lat="44.28642" lon="5.69521">
        <ele>1080</ele>
        <time>2021-09-08T09:51:58Z</time>
      </trkpt>
      <trkpt lat="44.28642" lon="5.69519">
        <ele>1080.1</ele>
        <time>2021-09-08T09:51:59Z</time>
      </trkpt>
      <trkpt lat="44.28643" lon="5.69517">
        <ele>1080.2</ele>
        <time>2021-09-08T09:52:00Z</time>
      </trkpt>
      <trkpt lat="44.28644" lon="5.69515">
        <ele>1080.4</ele>
        <time>2021-09-08T09:52:02Z</time>
      </trkpt>
      <trkpt lat="44.28645" lon="5.69514">
        <ele>1080.5</ele>
        <time>2021-09-08T09:52:03Z</time>
      </trkpt>
      <trkpt lat="44.28646" lon="5.69513">
        <ele>1080.5</ele>
        <time>2021-09-08T09:52:04Z</time>
      </trkpt>
      <trkpt lat="44.28646" lon="5.69513">
        <ele>1080.6</ele>
        <time>2021-09-08T09:52:06Z</time>
      </trkpt>
      <trkpt lat="44.28647" lon="5.69513">
        <ele>1080.6</ele>
        <time>2021-09-08T09:52:07Z</time>
      </trkpt>
      <trkpt lat="44.28647" lon="5.69513">
        <ele>1080.6</ele>
        <time>2021-09-08T09:52:08Z</time>
      </trkpt>
      <trkpt lat="44.28648" lon="5.69513">
        <ele>1080.7</ele>
        <time>2021-09-08T09:52:09Z</time>
      </trkpt>
      <trkpt lat="44.28648" lon="5.69513">
        <ele>1080.7</ele>
        <time>2021-09-08T09:52:11Z</time>
      </trkpt>
      <trkpt lat="44.28649" lon="5.69513">
        <ele>1080.8</ele>
        <time>2021-09-08T09:52:13Z</time>
      </trkpt>
      <trkpt lat="44.28649" lon="5.69513">
        <ele>1080.8</ele>
        <time>2021-09-08T09:52:14Z</time>
      </trkpt>
      <trkpt lat="44.2865" lon="5.69514">
        <ele>1080.9</ele>
        <time>2021-09-08T09:52:16Z</time>
      </trkpt>
      <trkpt lat="44.28651" lon="5.69514">
        <ele>1080.9</ele>
        <time>2021-09-08T09:52:18Z</time>
      </trkpt>
      <trkpt lat="44.28652" lon="5.69515">
        <ele>1081</ele>
        <time>2021-09-08T09:52:20Z</time>
      </trkpt>
      <trkpt lat="44.28653" lon="5.69515">
        <ele>1081</ele>
        <time>2021-09-08T09:52:21Z</time>
      </trkpt>
      <trkpt lat="44.28653" lon="5.69515">
        <ele>1081.1</ele>
        <time>2021-09-08T09:52:22Z</time>
      </trkpt>
      <trkpt lat="44.28653" lon="5.69516">
        <ele>1081.1</ele>
        <time>2021-09-08T09:52:23Z</time>
      </trkpt>
      <trkpt lat="44.28654" lon="5.69517">
        <ele>1081.2</ele>
        <time>2021-09-08T09:52:26Z</time>
      </trkpt>
      <trkpt lat="44.28654" lon="5.69517">
        <ele>1081.2</ele>
        <time>2021-09-08T09:52:27Z</time>
      </trkpt>
      <trkpt lat="44.28654" lon="5.69518">
        <ele>1081.2</ele>
        <time>2021-09-08T09:52:28Z</time>
      </trkpt>
      <trkpt lat="44.28654" lon="5.69519">
        <ele>1081.3</ele>
        <time>2021-09-08T09:52:30Z</time>
      </trkpt>
      <trkpt lat="44.28654" lon="5.6952">
        <ele>1081.3</ele>
        <time>2021-09-08T09:52:31Z</time>
      </trkpt>
      <trkpt lat="44.28654" lon="5.69521">
        <ele>1081.4</ele>
        <time>2021-09-08T09:52:33Z</time>
      </trkpt>
      <trkpt lat="44.28654" lon="5.69522">
        <ele>1081.4</ele>
        <time>2021-09-08T09:52:35Z</time>
      </trkpt>
      <trkpt lat="44.28654" lon="5.69524">
        <ele>1081.5</ele>
        <time>2021-09-08T09:52:37Z</time>
      </trkpt>
      <trkpt lat="44.28653" lon="5.69525">
        <ele>1081.6</ele>
        <time>2021-09-08T09:52:39Z</time>
      </trkpt>
      <trkpt lat="44.28652" lon="5.69525">
        <ele>1081.6</ele>
        <time>2021-09-08T09:52:40Z</time>
      </trkpt>
      <trkpt lat="44.28652" lon="5.69526">
        <ele>1081.7</ele>
        <time>2021-09-08T09:52:42Z</time>
      </trkpt>
      <trkpt lat="44.28651" lon="5.69527">
        <ele>1081.8</ele>
        <time>2021-09-08T09:52:44Z</time>
      </trkpt>
      <trkpt lat="44.28649" lon="5.69527">
        <ele>1081.9</ele>
        <time>2021-09-08T09:52:45Z</time>
      </trkpt>
      <trkpt lat="44.28648" lon="5.69527">
        <ele>1082</ele>
        <time>2021-09-08T09:52:47Z</time>
      </trkpt>
      <trkpt lat="44.28647" lon="5.69527">
        <ele>1082</ele>
        <time>2021-09-08T09:52:48Z</time>
      </trkpt>
      <trkpt lat="44.28644" lon="5.69526">
        <ele>1082.2</ele>
        <time>2021-09-08T09:52:50Z</time>
      </trkpt>
      <trkpt lat="44.28643" lon="5.69526">
        <ele>1082.3</ele>
        <time>2021-09-08T09:52:51Z</time>
      </trkpt>
      <trkpt lat="44.28641" lon="5.69524">
        <ele>1082.4</ele>
        <time>2021-09-08T09:52:53Z</time>
      </trkpt>
      <trkpt lat="44.28638" lon="5.69521">
        <ele>1082.7</ele>
        <time>2021-09-08T09:52:56Z</time>
      </trkpt>
      <trkpt lat="44.28637" lon="5.6952">
        <ele>1082.8</ele>
        <time>2021-09-08T09:52:58Z</time>
      </trkpt>
      <trkpt lat="44.28636" lon="5.69518">
        <ele>1082.9</ele>
        <time>2021-09-08T09:52:59Z</time>
      </trkpt>
      <trkpt lat="44.28635" lon="5.69516">
        <ele>1083</ele>
        <time>2021-09-08T09:53:01Z</time>
      </trkpt>
      <trkpt lat="44.28633" lon="5.69514">
        <ele>1083.1</ele>
        <time>2021-09-08T09:53:02Z</time>
      </trkpt>
      <trkpt lat="44.28633" lon="5.69512">
        <ele>1083.2</ele>
        <time>2021-09-08T09:53:04Z</time>
      </trkpt>
      <trkpt lat="44.28633" lon="5.6951">
        <ele>1083.3</ele>
        <time>2021-09-08T09:53:06Z</time>
      </trkpt>
      <trkpt lat="44.28633" lon="5.69508">
        <ele>1083.4</ele>
        <time>2021-09-08T09:53:08Z</time>
      </trkpt>
      <trkpt lat="44.28633" lon="5.69507">
        <ele>1083.4</ele>
        <time>2021-09-08T09:53:09Z</time>
      </trkpt>
      <trkpt lat="44.28633" lon="5.69506">
        <ele>1083.5</ele>
        <time>2021-09-08T09:53:10Z</time>
      </trkpt>
      <trkpt lat="44.28633" lon="5.69505">
        <ele>1083.5</ele>
        <time>2021-09-08T09:53:12Z</time>
      </trkpt>
      <trkpt lat="44.28634" lon="5.69503">
        <ele>1083.6</ele>
        <time>2021-09-08T09:53:15Z</time>
      </trkpt>
      <trkpt lat="44.28634" lon="5.69501">
        <ele>1083.7</ele>
        <time>2021-09-08T09:53:16Z</time>
      </trkpt>
      <trkpt lat="44.28635" lon="5.695">
        <ele>1083.7</ele>
        <time>2021-09-08T09:53:18Z</time>
      </trkpt>
      <trkpt lat="44.28635" lon="5.695">
        <ele>1083.8</ele>
        <time>2021-09-08T09:53:19Z</time>
      </trkpt>
      <trkpt lat="44.28635" lon="5.69497">
        <ele>1083.9</ele>
        <time>2021-09-08T09:53:21Z</time>
      </trkpt>
      <trkpt lat="44.28636" lon="5.69496">
        <ele>1083.9</ele>
        <time>2021-09-08T09:53:23Z</time>
      </trkpt>
      <trkpt lat="44.28636" lon="5.69495">
        <ele>1084</ele>
        <time>2021-09-08T09:53:24Z</time>
      </trkpt>
      <trkpt lat="44.28636" lon="5.69493">
        <ele>1084.1</ele>
        <time>2021-09-08T09:53:27Z</time>
      </trkpt>
      <trkpt lat="44.28636" lon="5.69491">
        <ele>1084.1</ele>
        <time>2021-09-08T09:53:29Z</time>
      </trkpt>
      <trkpt lat="44.28636" lon="5.6949">
        <ele>1084.2</ele>
        <time>2021-09-08T09:53:30Z</time>
      </trkpt>
      <trkpt lat="44.28636" lon="5.69488">
        <ele>1084.3</ele>
        <time>2021-09-08T09:53:32Z</time>
      </trkpt>
      <trkpt lat="44.28636" lon="5.69486">
        <ele>1084.3</ele>
        <time>2021-09-08T09:53:34Z</time>
      </trkpt>
      <trkpt lat="44.28636" lon="5.69485">
        <ele>1084.4</ele>
        <time>2021-09-08T09:53:36Z</time>
      </trkpt>
      <trkpt lat="44.28636" lon="5.69484">
        <ele>1084.4</ele>
        <time>2021-09-08T09:53:37Z</time>
      </trkpt>
      <trkpt lat="44.28636" lon="5.69482">
        <ele>1084.5</ele>
        <time>2021-09-08T09:53:39Z</time>
      </trkpt>
      <trkpt lat="44.28636" lon="5.6948">
        <ele>1084.6</ele>
        <time>2021-09-08T09:53:41Z</time>
      </trkpt>
      <trkpt lat="44.28636" lon="5.6948">
        <ele>1084.6</ele>
        <time>2021-09-08T09:53:42Z</time>
      </trkpt>
      <trkpt lat="44.28636" lon="5.69479">
        <ele>1084.6</ele>
        <time>2021-09-08T09:53:44Z</time>
      </trkpt>
      <trkpt lat="44.28636" lon="5.69477">
        <ele>1084.7</ele>
        <time>2021-09-08T09:53:45Z</time>
      </trkpt>
      <trkpt lat="44.28636" lon="5.69476">
        <ele>1084.8</ele>
        <time>2021-09-08T09:53:47Z</time>
      </trkpt>
      <trkpt lat="44.28635" lon="5.69475">
        <ele>1084.8</ele>
        <time>2021-09-08T09:53:49Z</time>
      </trkpt>
      <trkpt lat="44.28635" lon="5.69473">
        <ele>1084.9</ele>
        <time>2021-09-08T09:53:50Z</time>
      </trkpt>
      <trkpt lat="44.28635" lon="5.69472">
        <ele>1084.9</ele>
        <time>2021-09-08T09:53:51Z</time>
      </trkpt>
      <trkpt lat="44.28634" lon="5.69471">
        <ele>1085</ele>
        <time>2021-09-08T09:53:53Z</time>
      </trkpt>
      <trkpt lat="44.28634" lon="5.69469">
        <ele>1085.1</ele>
        <time>2021-09-08T09:53:55Z</time>
      </trkpt>
      <trkpt lat="44.28633" lon="5.69468">
        <ele>1085.1</ele>
        <time>2021-09-08T09:53:56Z</time>
      </trkpt>
      <trkpt lat="44.28632" lon="5.69467">
        <ele>1085.2</ele>
        <time>2021-09-08T09:53:58Z</time>
      </trkpt>
      <trkpt lat="44.28632" lon="5.69466">
        <ele>1085.3</ele>
        <time>2021-09-08T09:53:59Z</time>
      </trkpt>
      <trkpt lat="44.28631" lon="5.69464">
        <ele>1085.4</ele>
        <time>2021-09-08T09:54:00Z</time>
      </trkpt>
      <trkpt lat="44.2863" lon="5.69463">
        <ele>1085.4</ele>
        <time>2021-09-08T09:54:02Z</time>
      </trkpt>
      <trkpt lat="44.28629" lon="5.69462">
        <ele>1085.5</ele>
        <time>2021-09-08T09:54:03Z</time>
      </trkpt>
      <trkpt lat="44.28628" lon="5.69461">
        <ele>1085.6</ele>
        <time>2021-09-08T09:54:05Z</time>
      </trkpt>
      <trkpt lat="44.28626" lon="5.69459">
        <ele>1085.7</ele>
        <time>2021-09-08T09:54:07Z</time>
      </trkpt>
      <trkpt lat="44.28625" lon="5.69458">
        <ele>1085.8</ele>
        <time>2021-09-08T09:54:08Z</time>
      </trkpt>
      <trkpt lat="44.28624" lon="5.69456">
        <ele>1085.9</ele>
        <time>2021-09-08T09:54:10Z</time>
      </trkpt>
      <trkpt lat="44.28623" lon="5.69455">
        <ele>1086</ele>
        <time>2021-09-08T09:54:11Z</time>
      </trkpt>
      <trkpt lat="44.28621" lon="5.69453">
        <ele>1086.2</ele>
        <time>2021-09-08T09:54:13Z</time>
      </trkpt>
      <trkpt lat="44.28619" lon="5.69451">
        <ele>1086.3</ele>
        <time>2021-09-08T09:54:14Z</time>
      </trkpt>
      <trkpt lat="44.28617" lon="5.69449">
        <ele>1086.5</ele>
        <time>2021-09-08T09:54:16Z</time>
      </trkpt>
      <trkpt lat="44.28614" lon="5.69446">
        <ele>1086.7</ele>
        <time>2021-09-08T09:54:18Z</time>
      </trkpt>
      <trkpt lat="44.28613" lon="5.69444">
        <ele>1086.8</ele>
        <time>2021-09-08T09:54:19Z</time>
      </trkpt>
      <trkpt lat="44.28611" lon="5.69441">
        <ele>1087.1</ele>
        <time>2021-09-08T09:54:21Z</time>
      </trkpt>
      <trkpt lat="44.2861" lon="5.6944">
        <ele>1087.1</ele>
        <time>2021-09-08T09:54:22Z</time>
      </trkpt>
      <trkpt lat="44.28607" lon="5.69436">
        <ele>1087.4</ele>
        <time>2021-09-08T09:54:25Z</time>
      </trkpt>
      <trkpt lat="44.28606" lon="5.69434">
        <ele>1087.5</ele>
        <time>2021-09-08T09:54:26Z</time>
      </trkpt>
      <trkpt lat="44.28605" lon="5.69432">
        <ele>1087.7</ele>
        <time>2021-09-08T09:54:28Z</time>
      </trkpt>
      <trkpt lat="44.28604" lon="5.69431">
        <ele>1087.7</ele>
        <time>2021-09-08T09:54:29Z</time>
      </trkpt>
      <trkpt lat="44.28603" lon="5.69428">
        <ele>1087.9</ele>
        <time>2021-09-08T09:54:31Z</time>
      </trkpt>
      <trkpt lat="44.28602" lon="5.69426">
        <ele>1088</ele>
        <time>2021-09-08T09:54:32Z</time>
      </trkpt>
      <trkpt lat="44.28601" lon="5.69425">
        <ele>1088</ele>
        <time>2021-09-08T09:54:33Z</time>
      </trkpt>
      <trkpt lat="44.28601" lon="5.69424">
        <ele>1088.1</ele>
        <time>2021-09-08T09:54:34Z</time>
      </trkpt>
      <trkpt lat="44.28601" lon="5.69423">
        <ele>1088.1</ele>
        <time>2021-09-08T09:54:35Z</time>
      </trkpt>
      <trkpt lat="44.286" lon="5.69421">
        <ele>1088.2</ele>
        <time>2021-09-08T09:54:37Z</time>
      </trkpt>
      <trkpt lat="44.28599" lon="5.6942">
        <ele>1088.3</ele>
        <time>2021-09-08T09:54:38Z</time>
      </trkpt>
      <trkpt lat="44.28599" lon="5.69419">
        <ele>1088.3</ele>
        <time>2021-09-08T09:54:40Z</time>
      </trkpt>
      <trkpt lat="44.28599" lon="5.69418">
        <ele>1088.4</ele>
        <time>2021-09-08T09:54:42Z</time>
      </trkpt>
      <trkpt lat="44.28598" lon="5.69416">
        <ele>1088.5</ele>
        <time>2021-09-08T09:54:48Z</time>
      </trkpt>
      <trkpt lat="44.28598" lon="5.69415">
        <ele>1088.5</ele>
        <time>2021-09-08T09:54:55Z</time>
      </trkpt>
      <trkpt lat="44.28572" lon="5.69191">
        <ele>1096.2</ele>
        <time>2021-09-08T09:55:30Z</time>
      </trkpt>
      <trkpt lat="44.28568" lon="5.6918">
        <ele>1097</ele>
        <time>2021-09-08T09:55:31Z</time>
      </trkpt>
      <trkpt lat="44.28567" lon="5.69179">
        <ele>1097.2</ele>
        <time>2021-09-08T09:55:33Z</time>
      </trkpt>
      <trkpt lat="44.28564" lon="5.69178">
        <ele>1097.4</ele>
        <time>2021-09-08T09:55:35Z</time>
      </trkpt>
      <trkpt lat="44.28582" lon="5.69147">
        <ele>1100.1</ele>
        <time>2021-09-08T09:56:52Z</time>
      </trkpt>
      <trkpt lat="44.28584" lon="5.69147">
        <ele>1100.4</ele>
        <time>2021-09-08T09:56:53Z</time>
      </trkpt>
      <trkpt lat="44.28586" lon="5.69146">
        <ele>1100.6</ele>
        <time>2021-09-08T09:56:55Z</time>
      </trkpt>
      <trkpt lat="44.28586" lon="5.69145">
        <ele>1100.6</ele>
        <time>2021-09-08T09:56:56Z</time>
      </trkpt>
      <trkpt lat="44.28587" lon="5.69144">
        <ele>1100.7</ele>
        <time>2021-09-08T09:56:57Z</time>
      </trkpt>
      <trkpt lat="44.28587" lon="5.69144">
        <ele>1100.8</ele>
        <time>2021-09-08T09:56:58Z</time>
      </trkpt>
      <trkpt lat="44.28587" lon="5.69143">
        <ele>1100.8</ele>
        <time>2021-09-08T09:56:59Z</time>
      </trkpt>
      <trkpt lat="44.28588" lon="5.69142">
        <ele>1100.9</ele>
        <time>2021-09-08T09:57:00Z</time>
      </trkpt>
      <trkpt lat="44.28588" lon="5.69142">
        <ele>1100.9</ele>
        <time>2021-09-08T09:57:02Z</time>
      </trkpt>
      <trkpt lat="44.28589" lon="5.69141">
        <ele>1101</ele>
        <time>2021-09-08T09:57:03Z</time>
      </trkpt>
      <trkpt lat="44.2861" lon="5.69056">
        <ele>1106.4</ele>
        <time>2021-09-08T09:58:37Z</time>
      </trkpt>
      <trkpt lat="44.28609" lon="5.69055">
        <ele>1106.5</ele>
        <time>2021-09-08T09:58:38Z</time>
      </trkpt>
      <trkpt lat="44.28609" lon="5.69055">
        <ele>1106.5</ele>
        <time>2021-09-08T09:58:39Z</time>
      </trkpt>
      <trkpt lat="44.28609" lon="5.69054">
        <ele>1106.5</ele>
        <time>2021-09-08T09:58:41Z</time>
      </trkpt>
      <trkpt lat="44.2861" lon="5.69053">
        <ele>1106.6</ele>
        <time>2021-09-08T09:58:42Z</time>
      </trkpt>
      <trkpt lat="44.2861" lon="5.69052">
        <ele>1106.7</ele>
        <time>2021-09-08T09:58:44Z</time>
      </trkpt>
      <trkpt lat="44.2861" lon="5.6905">
        <ele>1106.7</ele>
        <time>2021-09-08T09:58:45Z</time>
      </trkpt>
      <trkpt lat="44.28611" lon="5.69049">
        <ele>1106.8</ele>
        <time>2021-09-08T09:58:46Z</time>
      </trkpt>
      <trkpt lat="44.28611" lon="5.69047">
        <ele>1106.9</ele>
        <time>2021-09-08T09:58:48Z</time>
      </trkpt>
      <trkpt lat="44.28611" lon="5.69046">
        <ele>1106.9</ele>
        <time>2021-09-08T09:58:49Z</time>
      </trkpt>
      <trkpt lat="44.28611" lon="5.69045">
        <ele>1107</ele>
        <time>2021-09-08T09:58:50Z</time>
      </trkpt>
      <trkpt lat="44.28611" lon="5.69044">
        <ele>1107.1</ele>
        <time>2021-09-08T09:58:51Z</time>
      </trkpt>
      <trkpt lat="44.28612" lon="5.69042">
        <ele>1107.1</ele>
        <time>2021-09-08T09:58:52Z</time>
      </trkpt>
      <trkpt lat="44.28611" lon="5.69039">
        <ele>1107.3</ele>
        <time>2021-09-08T09:58:53Z</time>
      </trkpt>
      <trkpt lat="44.2861" lon="5.69037">
        <ele>1107.4</ele>
        <time>2021-09-08T09:58:55Z</time>
      </trkpt>
      <trkpt lat="44.28609" lon="5.69035">
        <ele>1107.5</ele>
        <time>2021-09-08T09:58:56Z</time>
      </trkpt>
      <trkpt lat="44.28608" lon="5.69034">
        <ele>1107.6</ele>
        <time>2021-09-08T09:58:57Z</time>
      </trkpt>
      <trkpt lat="44.28607" lon="5.69032">
        <ele>1107.8</ele>
        <time>2021-09-08T09:58:59Z</time>
      </trkpt>
      <trkpt lat="44.28607" lon="5.6903">
        <ele>1107.9</ele>
        <time>2021-09-08T09:59:00Z</time>
      </trkpt>
      <trkpt lat="44.28606" lon="5.69028">
        <ele>1108</ele>
        <time>2021-09-08T09:59:01Z</time>
      </trkpt>
      <trkpt lat="44.28604" lon="5.69025">
        <ele>1108.2</ele>
        <time>2021-09-08T09:59:02Z</time>
      </trkpt>
      <trkpt lat="44.28602" lon="5.6902">
        <ele>1108.5</ele>
        <time>2021-09-08T09:59:03Z</time>
      </trkpt>
      <trkpt lat="44.28601" lon="5.69016">
        <ele>1108.7</ele>
        <time>2021-09-08T09:59:04Z</time>
      </trkpt>
      <trkpt lat="44.286" lon="5.69015">
        <ele>1108.8</ele>
        <time>2021-09-08T09:59:05Z</time>
      </trkpt>
      <trkpt lat="44.28599" lon="5.69012">
        <ele>1109</ele>
        <time>2021-09-08T09:59:07Z</time>
      </trkpt>
      <trkpt lat="44.28599" lon="5.69012">
        <ele>1109</ele>
        <time>2021-09-08T09:59:08Z</time>
      </trkpt>
      <trkpt lat="44.28599" lon="5.69011">
        <ele>1109</ele>
        <time>2021-09-08T09:59:09Z</time>
      </trkpt>
      <trkpt lat="44.28598" lon="5.69009">
        <ele>1109.2</ele>
        <time>2021-09-08T09:59:11Z</time>
      </trkpt>
      <trkpt lat="44.28597" lon="5.69005">
        <ele>1109.4</ele>
        <time>2021-09-08T09:59:13Z</time>
      </trkpt>
      <trkpt lat="44.28597" lon="5.69003">
        <ele>1109.5</ele>
        <time>2021-09-08T09:59:14Z</time>
      </trkpt>
      <trkpt lat="44.28598" lon="5.68995">
        <ele>1109.9</ele>
        <time>2021-09-08T09:59:18Z</time>
      </trkpt>
      <trkpt lat="44.28597" lon="5.6899">
        <ele>1110.2</ele>
        <time>2021-09-08T09:59:20Z</time>
      </trkpt>
      <trkpt lat="44.28596" lon="5.68986">
        <ele>1110.4</ele>
        <time>2021-09-08T09:59:21Z</time>
      </trkpt>
      <trkpt lat="44.28596" lon="5.68983">
        <ele>1110.5</ele>
        <time>2021-09-08T09:59:22Z</time>
      </trkpt>
      <trkpt lat="44.28595" lon="5.68978">
        <ele>1110.8</ele>
        <time>2021-09-08T09:59:24Z</time>
      </trkpt>
      <trkpt lat="44.28593" lon="5.68976">
        <ele>1110.9</ele>
        <time>2021-09-08T09:59:25Z</time>
      </trkpt>
      <trkpt lat="44.28591" lon="5.68974">
        <ele>1111.1</ele>
        <time>2021-09-08T09:59:27Z</time>
      </trkpt>
      <trkpt lat="44.28591" lon="5.68973">
        <ele>1111.1</ele>
        <time>2021-09-08T09:59:28Z</time>
      </trkpt>
      <trkpt lat="44.2859" lon="5.68973">
        <ele>1111.2</ele>
        <time>2021-09-08T09:59:29Z</time>
      </trkpt>
      <trkpt lat="44.28589" lon="5.68972">
        <ele>1111.3</ele>
        <time>2021-09-08T09:59:31Z</time>
      </trkpt>
      <trkpt lat="44.28589" lon="5.68971">
        <ele>1111.3</ele>
        <time>2021-09-08T09:59:32Z</time>
      </trkpt>
      <trkpt lat="44.28588" lon="5.68969">
        <ele>1111.4</ele>
        <time>2021-09-08T09:59:34Z</time>
      </trkpt>
      <trkpt lat="44.28587" lon="5.68927">
        <ele>1112.8</ele>
        <time>2021-09-08T10:00:03Z</time>
      </trkpt>
      <trkpt lat="44.28584" lon="5.68921">
        <ele>1112.8</ele>
        <time>2021-09-08T10:00:05Z</time>
      </trkpt>
      <trkpt lat="44.2858" lon="5.68915">
        <ele>1112.7</ele>
        <time>2021-09-08T10:00:06Z</time>
      </trkpt>
      <trkpt lat="44.28577" lon="5.68909">
        <ele>1112.5</ele>
        <time>2021-09-08T10:00:07Z</time>
      </trkpt>
      <trkpt lat="44.28571" lon="5.68897">
        <ele>1112</ele>
        <time>2021-09-08T10:00:08Z</time>
      </trkpt>
      <trkpt lat="44.28567" lon="5.68887">
        <ele>1111.5</ele>
        <time>2021-09-08T10:00:09Z</time>
      </trkpt>
      <trkpt lat="44.28561" lon="5.6887">
        <ele>1110.2</ele>
        <time>2021-09-08T10:00:11Z</time>
      </trkpt>
      <trkpt lat="44.28555" lon="5.68857">
        <ele>1109</ele>
        <time>2021-09-08T10:00:13Z</time>
      </trkpt>
      <trkpt lat="44.28552" lon="5.68851">
        <ele>1108.5</ele>
        <time>2021-09-08T10:00:14Z</time>
      </trkpt>
      <trkpt lat="44.28548" lon="5.6885">
        <ele>1108</ele>
        <time>2021-09-08T10:00:16Z</time>
      </trkpt>
      <trkpt lat="44.28546" lon="5.68848">
        <ele>1107.8</ele>
        <time>2021-09-08T10:00:17Z</time>
      </trkpt>
      <trkpt lat="44.28541" lon="5.6884">
        <ele>1107.1</ele>
        <time>2021-09-08T10:00:18Z</time>
      </trkpt>
      <trkpt lat="44.28524" lon="5.68832">
        <ele>1106</ele>
        <time>2021-09-08T10:00:20Z</time>
      </trkpt>
      <trkpt lat="44.2851" lon="5.68826">
        <ele>1105.5</ele>
        <time>2021-09-08T10:00:22Z</time>
      </trkpt>
      <trkpt lat="44.28495" lon="5.68817">
        <ele>1104.9</ele>
        <time>2021-09-08T10:00:24Z</time>
      </trkpt>
      <trkpt lat="44.28487" lon="5.68812">
        <ele>1104.6</ele>
        <time>2021-09-08T10:00:25Z</time>
      </trkpt>
      <trkpt lat="44.2848" lon="5.68808">
        <ele>1104.3</ele>
        <time>2021-09-08T10:00:26Z</time>
      </trkpt>
      <trkpt lat="44.28472" lon="5.68792">
        <ele>1103.8</ele>
        <time>2021-09-08T10:00:28Z</time>
      </trkpt>
      <trkpt lat="44.28469" lon="5.68776">
        <ele>1102.6</ele>
        <time>2021-09-08T10:00:30Z</time>
      </trkpt>
      <trkpt lat="44.28467" lon="5.68767">
        <ele>1102</ele>
        <time>2021-09-08T10:00:31Z</time>
      </trkpt>
      <trkpt lat="44.28464" lon="5.68757">
        <ele>1101.2</ele>
        <time>2021-09-08T10:00:32Z</time>
      </trkpt>
      <trkpt lat="44.28461" lon="5.68746">
        <ele>1100.5</ele>
        <time>2021-09-08T10:00:33Z</time>
      </trkpt>
      <trkpt lat="44.28458" lon="5.68736">
        <ele>1099.6</ele>
        <time>2021-09-08T10:00:34Z</time>
      </trkpt>
      <trkpt lat="44.28455" lon="5.68725">
        <ele>1098.8</ele>
        <time>2021-09-08T10:00:35Z</time>
      </trkpt>
      <trkpt lat="44.28446" lon="5.68709">
        <ele>1097.4</ele>
        <time>2021-09-08T10:00:37Z</time>
      </trkpt>
      <trkpt lat="44.28438" lon="5.68704">
        <ele>1096.6</ele>
        <time>2021-09-08T10:00:38Z</time>
      </trkpt>
      <trkpt lat="44.28421" lon="5.68696">
        <ele>1094.9</ele>
        <time>2021-09-08T10:00:40Z</time>
      </trkpt>
      <trkpt lat="44.28412" lon="5.68691">
        <ele>1094.1</ele>
        <time>2021-09-08T10:00:41Z</time>
      </trkpt>
      <trkpt lat="44.28405" lon="5.68684">
        <ele>1093.2</ele>
        <time>2021-09-08T10:00:42Z</time>
      </trkpt>
      <trkpt lat="44.28392" lon="5.68665">
        <ele>1091.4</ele>
        <time>2021-09-08T10:00:44Z</time>
      </trkpt>
      <trkpt lat="44.28391" lon="5.68637">
        <ele>1089.3</ele>
        <time>2021-09-08T10:00:46Z</time>
      </trkpt>
      <trkpt lat="44.28391" lon="5.68624">
        <ele>1088.4</ele>
        <time>2021-09-08T10:00:47Z</time>
      </trkpt>
      <trkpt lat="44.28393" lon="5.686">
        <ele>1086.8</ele>
        <time>2021-09-08T10:00:49Z</time>
      </trkpt>
      <trkpt lat="44.2839" lon="5.68585">
        <ele>1086.5</ele>
        <time>2021-09-08T10:00:51Z</time>
      </trkpt>
      <trkpt lat="44.28386" lon="5.68578">
        <ele>1086.4</ele>
        <time>2021-09-08T10:00:53Z</time>
      </trkpt>
      <trkpt lat="44.28378" lon="5.68571">
        <ele>1086.3</ele>
        <time>2021-09-08T10:00:55Z</time>
      </trkpt>
      <trkpt lat="44.28373" lon="5.6857">
        <ele>1086.1</ele>
        <time>2021-09-08T10:00:56Z</time>
      </trkpt>
      <trkpt lat="44.28369" lon="5.6857">
        <ele>1086</ele>
        <time>2021-09-08T10:00:57Z</time>
      </trkpt>
      <trkpt lat="44.28363" lon="5.68566">
        <ele>1085.7</ele>
        <time>2021-09-08T10:00:59Z</time>
      </trkpt>
      <trkpt lat="44.28359" lon="5.68563">
        <ele>1085.4</ele>
        <time>2021-09-08T10:01:00Z</time>
      </trkpt>
      <trkpt lat="44.28355" lon="5.68561">
        <ele>1085.2</ele>
        <time>2021-09-08T10:01:01Z</time>
      </trkpt>
      <trkpt lat="44.28346" lon="5.68554">
        <ele>1084.7</ele>
        <time>2021-09-08T10:01:03Z</time>
      </trkpt>
      <trkpt lat="44.28339" lon="5.68548">
        <ele>1084.5</ele>
        <time>2021-09-08T10:01:05Z</time>
      </trkpt>
      <trkpt lat="44.28338" lon="5.68545">
        <ele>1084.4</ele>
        <time>2021-09-08T10:01:06Z</time>
      </trkpt>
      <trkpt lat="44.28342" lon="5.68539">
        <ele>1084.4</ele>
        <time>2021-09-08T10:01:08Z</time>
      </trkpt>
      <trkpt lat="44.28344" lon="5.68536">
        <ele>1084.4</ele>
        <time>2021-09-08T10:01:09Z</time>
      </trkpt>
      <trkpt lat="44.28344" lon="5.68531">
        <ele>1084.4</ele>
        <time>2021-09-08T10:01:11Z</time>
      </trkpt>
      <trkpt lat="44.28342" lon="5.68527">
        <ele>1084.4</ele>
        <time>2021-09-08T10:01:12Z</time>
      </trkpt>
      <trkpt lat="44.28343" lon="5.68521">
        <ele>1084.4</ele>
        <time>2021-09-08T10:01:14Z</time>
      </trkpt>
      <trkpt lat="44.28344" lon="5.68519">
        <ele>1084.4</ele>
        <time>2021-09-08T10:01:15Z</time>
      </trkpt>
      <trkpt lat="44.28345" lon="5.68517">
        <ele>1084.5</ele>
        <time>2021-09-08T10:01:16Z</time>
      </trkpt>
      <trkpt lat="44.28345" lon="5.68512">
        <ele>1084.5</ele>
        <time>2021-09-08T10:01:18Z</time>
      </trkpt>
      <trkpt lat="44.28346" lon="5.68508">
        <ele>1084.5</ele>
        <time>2021-09-08T10:01:19Z</time>
      </trkpt>
      <trkpt lat="44.28346" lon="5.68506">
        <ele>1084.5</ele>
        <time>2021-09-08T10:01:20Z</time>
      </trkpt>
      <trkpt lat="44.28347" lon="5.68501">
        <ele>1084.6</ele>
        <time>2021-09-08T10:01:22Z</time>
      </trkpt>
      <trkpt lat="44.28349" lon="5.68496">
        <ele>1084.6</ele>
        <time>2021-09-08T10:01:23Z</time>
      </trkpt>
      <trkpt lat="44.28351" lon="5.68492">
        <ele>1084.7</ele>
        <time>2021-09-08T10:01:25Z</time>
      </trkpt>
      <trkpt lat="44.28352" lon="5.68491">
        <ele>1084.7</ele>
        <time>2021-09-08T10:01:26Z</time>
      </trkpt>
      <trkpt lat="44.28351" lon="5.6849">
        <ele>1084.7</ele>
        <time>2021-09-08T10:01:27Z</time>
      </trkpt>
      <trkpt lat="44.28351" lon="5.6849">
        <ele>1084.8</ele>
        <time>2021-09-08T10:01:28Z</time>
      </trkpt>
      <trkpt lat="44.2835" lon="5.6849">
        <ele>1084.8</ele>
        <time>2021-09-08T10:01:30Z</time>
      </trkpt>
      <trkpt lat="44.28349" lon="5.6849">
        <ele>1084.8</ele>
        <time>2021-09-08T10:01:31Z</time>
      </trkpt>
      <trkpt lat="44.28348" lon="5.68489">
        <ele>1084.8</ele>
        <time>2021-09-08T10:01:33Z</time>
      </trkpt>
      <trkpt lat="44.28348" lon="5.68489">
        <ele>1084.8</ele>
        <time>2021-09-08T10:01:34Z</time>
      </trkpt>
      <trkpt lat="44.28347" lon="5.68489">
        <ele>1084.8</ele>
        <time>2021-09-08T10:01:35Z</time>
      </trkpt>
      <trkpt lat="44.28346" lon="5.68486">
        <ele>1084.9</ele>
        <time>2021-09-08T10:01:38Z</time>
      </trkpt>
      <trkpt lat="44.28341" lon="5.68477">
        <ele>1085.1</ele>
        <time>2021-09-08T10:01:40Z</time>
      </trkpt>
      <trkpt lat="44.28338" lon="5.6847">
        <ele>1085.3</ele>
        <time>2021-09-08T10:01:41Z</time>
      </trkpt>
      <trkpt lat="44.28335" lon="5.68458">
        <ele>1085.6</ele>
        <time>2021-09-08T10:01:43Z</time>
      </trkpt>
      <trkpt lat="44.28332" lon="5.68451">
        <ele>1085.8</ele>
        <time>2021-09-08T10:01:44Z</time>
      </trkpt>
      <trkpt lat="44.28328" lon="5.68447">
        <ele>1085.9</ele>
        <time>2021-09-08T10:01:46Z</time>
      </trkpt>
      <trkpt lat="44.28324" lon="5.68443">
        <ele>1085.9</ele>
        <time>2021-09-08T10:01:47Z</time>
      </trkpt>
      <trkpt lat="44.28321" lon="5.68442">
        <ele>1085.9</ele>
        <time>2021-09-08T10:01:48Z</time>
      </trkpt>
      <trkpt lat="44.28318" lon="5.68443">
        <ele>1085.9</ele>
        <time>2021-09-08T10:01:49Z</time>
      </trkpt>
      <trkpt lat="44.28313" lon="5.68444">
        <ele>1085.9</ele>
        <time>2021-09-08T10:01:51Z</time>
      </trkpt>
      <trkpt lat="44.28309" lon="5.68445">
        <ele>1086.1</ele>
        <time>2021-09-08T10:01:52Z</time>
      </trkpt>
      <trkpt lat="44.28308" lon="5.68445">
        <ele>1086.2</ele>
        <time>2021-09-08T10:01:53Z</time>
      </trkpt>
      <trkpt lat="44.28306" lon="5.68446">
        <ele>1086.3</ele>
        <time>2021-09-08T10:01:54Z</time>
      </trkpt>
      <trkpt lat="44.28303" lon="5.68448">
        <ele>1086.5</ele>
        <time>2021-09-08T10:01:56Z</time>
      </trkpt>
      <trkpt lat="44.28302" lon="5.68448">
        <ele>1086.6</ele>
        <time>2021-09-08T10:01:57Z</time>
      </trkpt>
      <trkpt lat="44.28298" lon="5.68449">
        <ele>1086.8</ele>
        <time>2021-09-08T10:01:59Z</time>
      </trkpt>
      <trkpt lat="44.28294" lon="5.68449">
        <ele>1087.1</ele>
        <time>2021-09-08T10:02:01Z</time>
      </trkpt>
      <trkpt lat="44.28291" lon="5.68449">
        <ele>1087.3</ele>
        <time>2021-09-08T10:02:03Z</time>
      </trkpt>
      <trkpt lat="44.28288" lon="5.68449">
        <ele>1087.5</ele>
        <time>2021-09-08T10:02:04Z</time>
      </trkpt>
      <trkpt lat="44.28284" lon="5.68449">
        <ele>1087.8</ele>
        <time>2021-09-08T10:02:06Z</time>
      </trkpt>
      <trkpt lat="44.28284" lon="5.68449">
        <ele>1087.8</ele>
        <time>2021-09-08T10:02:07Z</time>
      </trkpt>
      <trkpt lat="44.28284" lon="5.68449">
        <ele>1087.8</ele>
        <time>2021-09-08T10:02:08Z</time>
      </trkpt>
      <trkpt lat="44.28283" lon="5.68449">
        <ele>1087.8</ele>
        <time>2021-09-08T10:02:09Z</time>
      </trkpt>
      <trkpt lat="44.28281" lon="5.68449">
        <ele>1088</ele>
        <time>2021-09-08T10:02:11Z</time>
      </trkpt>
      <trkpt lat="44.2828" lon="5.68448">
        <ele>1088.1</ele>
        <time>2021-09-08T10:02:12Z</time>
      </trkpt>
      <trkpt lat="44.28278" lon="5.68447">
        <ele>1088.2</ele>
        <time>2021-09-08T10:02:13Z</time>
      </trkpt>
      <trkpt lat="44.28275" lon="5.68445">
        <ele>1088.4</ele>
        <time>2021-09-08T10:02:15Z</time>
      </trkpt>
      <trkpt lat="44.28274" lon="5.68443">
        <ele>1088.5</ele>
        <time>2021-09-08T10:02:16Z</time>
      </trkpt>
      <trkpt lat="44.28273" lon="5.68443">
        <ele>1088.5</ele>
        <time>2021-09-08T10:02:17Z</time>
      </trkpt>
      <trkpt lat="44.28272" lon="5.68442">
        <ele>1088.6</ele>
        <time>2021-09-08T10:02:18Z</time>
      </trkpt>
      <trkpt lat="44.28272" lon="5.68442">
        <ele>1088.6</ele>
        <time>2021-09-08T10:02:20Z</time>
      </trkpt>
      <trkpt lat="44.28272" lon="5.68442">
        <ele>1088.6</ele>
        <time>2021-09-08T10:02:21Z</time>
      </trkpt>
      <trkpt lat="44.28272" lon="5.68441">
        <ele>1088.6</ele>
        <time>2021-09-08T10:02:23Z</time>
      </trkpt>
      <trkpt lat="44.28272" lon="5.68439">
        <ele>1088.7</ele>
        <time>2021-09-08T10:02:24Z</time>
      </trkpt>
      <trkpt lat="44.28272" lon="5.68436">
        <ele>1088.8</ele>
        <time>2021-09-08T10:02:25Z</time>
      </trkpt>
      <trkpt lat="44.28259" lon="5.684">
        <ele>1090.2</ele>
        <time>2021-09-08T10:02:41Z</time>
      </trkpt>
      <trkpt lat="44.28252" lon="5.68394">
        <ele>1090.7</ele>
        <time>2021-09-08T10:02:44Z</time>
      </trkpt>
      <trkpt lat="44.28248" lon="5.68391">
        <ele>1091</ele>
        <time>2021-09-08T10:02:45Z</time>
      </trkpt>
      <trkpt lat="44.2824" lon="5.68386">
        <ele>1091.6</ele>
        <time>2021-09-08T10:02:47Z</time>
      </trkpt>
      <trkpt lat="44.28234" lon="5.6838">
        <ele>1092.1</ele>
        <time>2021-09-08T10:02:48Z</time>
      </trkpt>
      <trkpt lat="44.28228" lon="5.68375">
        <ele>1092.6</ele>
        <time>2021-09-08T10:02:50Z</time>
      </trkpt>
      <trkpt lat="44.28223" lon="5.68369">
        <ele>1093.1</ele>
        <time>2021-09-08T10:02:51Z</time>
      </trkpt>
      <trkpt lat="44.28217" lon="5.68363">
        <ele>1093.6</ele>
        <time>2021-09-08T10:02:54Z</time>
      </trkpt>
      <trkpt lat="44.28211" lon="5.68357">
        <ele>1094.2</ele>
        <time>2021-09-08T10:03:40Z</time>
      </trkpt>
      <trkpt lat="44.28206" lon="5.68352">
        <ele>1094.7</ele>
        <time>2021-09-08T10:03:41Z</time>
      </trkpt>
      <trkpt lat="44.28199" lon="5.68348">
        <ele>1095.3</ele>
        <time>2021-09-08T10:03:43Z</time>
      </trkpt>
      <trkpt lat="44.28193" lon="5.68345">
        <ele>1095.7</ele>
        <time>2021-09-08T10:03:44Z</time>
      </trkpt>
      <trkpt lat="44.28189" lon="5.68343">
        <ele>1096</ele>
        <time>2021-09-08T10:03:45Z</time>
      </trkpt>
      <trkpt lat="44.28187" lon="5.68341">
        <ele>1096.1</ele>
        <time>2021-09-08T10:03:46Z</time>
      </trkpt>
      <trkpt lat="44.28186" lon="5.6834">
        <ele>1096.2</ele>
        <time>2021-09-08T10:03:48Z</time>
      </trkpt>
      <trkpt lat="44.28187" lon="5.68339">
        <ele>1096.3</ele>
        <time>2021-09-08T10:03:49Z</time>
      </trkpt>
      <trkpt lat="44.28187" lon="5.68337">
        <ele>1096.3</ele>
        <time>2021-09-08T10:03:50Z</time>
      </trkpt>
      <trkpt lat="44.28187" lon="5.68335">
        <ele>1096.4</ele>
        <time>2021-09-08T10:03:51Z</time>
      </trkpt>
      <trkpt lat="44.28188" lon="5.68335">
        <ele>1096.5</ele>
        <time>2021-09-08T10:03:53Z</time>
      </trkpt>
      <trkpt lat="44.28189" lon="5.68335">
        <ele>1096.5</ele>
        <time>2021-09-08T10:03:54Z</time>
      </trkpt>
      <trkpt lat="44.2819" lon="5.68334">
        <ele>1096.5</ele>
        <time>2021-09-08T10:03:55Z</time>
      </trkpt>
      <trkpt lat="44.2819" lon="5.68333">
        <ele>1096.6</ele>
        <time>2021-09-08T10:03:56Z</time>
      </trkpt>
      <trkpt lat="44.28192" lon="5.68331">
        <ele>1096.7</ele>
        <time>2021-09-08T10:03:58Z</time>
      </trkpt>
      <trkpt lat="44.28192" lon="5.6833">
        <ele>1096.7</ele>
        <time>2021-09-08T10:03:59Z</time>
      </trkpt>
      <trkpt lat="44.28195" lon="5.68325">
        <ele>1097</ele>
        <time>2021-09-08T10:04:00Z</time>
      </trkpt>
      <trkpt lat="44.28197" lon="5.68322">
        <ele>1097.2</ele>
        <time>2021-09-08T10:04:01Z</time>
      </trkpt>
      <trkpt lat="44.28206" lon="5.6831">
        <ele>1097.9</ele>
        <time>2021-09-08T10:04:02Z</time>
      </trkpt>
      <trkpt lat="44.28207" lon="5.68307">
        <ele>1098.1</ele>
        <time>2021-09-08T10:04:03Z</time>
      </trkpt>
      <trkpt lat="44.28208" lon="5.68302">
        <ele>1098.3</ele>
        <time>2021-09-08T10:04:05Z</time>
      </trkpt>
      <trkpt lat="44.28207" lon="5.68299">
        <ele>1098.5</ele>
        <time>2021-09-08T10:04:07Z</time>
      </trkpt>
      <trkpt lat="44.28208" lon="5.68298">
        <ele>1098.6</ele>
        <time>2021-09-08T10:04:08Z</time>
      </trkpt>
      <trkpt lat="44.28208" lon="5.68294">
        <ele>1098.8</ele>
        <time>2021-09-08T10:04:10Z</time>
      </trkpt>
      <trkpt lat="44.28208" lon="5.68292">
        <ele>1099</ele>
        <time>2021-09-08T10:04:12Z</time>
      </trkpt>
      <trkpt lat="44.28208" lon="5.6829">
        <ele>1099.1</ele>
        <time>2021-09-08T10:04:13Z</time>
      </trkpt>
      <trkpt lat="44.28208" lon="5.68288">
        <ele>1099.3</ele>
        <time>2021-09-08T10:04:15Z</time>
      </trkpt>
      <trkpt lat="44.28208" lon="5.68285">
        <ele>1099.4</ele>
        <time>2021-09-08T10:04:16Z</time>
      </trkpt>
      <trkpt lat="44.28208" lon="5.68283">
        <ele>1099.6</ele>
        <time>2021-09-08T10:04:18Z</time>
      </trkpt>
      <trkpt lat="44.28208" lon="5.68281">
        <ele>1099.8</ele>
        <time>2021-09-08T10:05:10Z</time>
      </trkpt>
      <trkpt lat="44.28208" lon="5.68278">
        <ele>1099.9</ele>
        <time>2021-09-08T10:05:12Z</time>
      </trkpt>
      <trkpt lat="44.28208" lon="5.68276">
        <ele>1100.1</ele>
        <time>2021-09-08T10:05:13Z</time>
      </trkpt>
      <trkpt lat="44.28208" lon="5.68274">
        <ele>1100.2</ele>
        <time>2021-09-08T10:05:14Z</time>
      </trkpt>
      <trkpt lat="44.28202" lon="5.68274">
        <ele>1100.6</ele>
        <time>2021-09-08T10:05:16Z</time>
      </trkpt>
      <trkpt lat="44.28198" lon="5.68274">
        <ele>1100.9</ele>
        <time>2021-09-08T10:05:17Z</time>
      </trkpt>
      <trkpt lat="44.28194" lon="5.68274">
        <ele>1101.2</ele>
        <time>2021-09-08T10:05:18Z</time>
      </trkpt>
      <trkpt lat="44.28189" lon="5.68273">
        <ele>1101.4</ele>
        <time>2021-09-08T10:05:19Z</time>
      </trkpt>
      <trkpt lat="44.28183" lon="5.68271">
        <ele>1101.7</ele>
        <time>2021-09-08T10:05:21Z</time>
      </trkpt>
      <trkpt lat="44.2818" lon="5.68269">
        <ele>1101.9</ele>
        <time>2021-09-08T10:05:22Z</time>
      </trkpt>
      <trkpt lat="44.28177" lon="5.68267">
        <ele>1102</ele>
        <time>2021-09-08T10:05:23Z</time>
      </trkpt>
      <trkpt lat="44.28173" lon="5.68263">
        <ele>1102.3</ele>
        <time>2021-09-08T10:05:25Z</time>
      </trkpt>
      <trkpt lat="44.28171" lon="5.68262">
        <ele>1102.4</ele>
        <time>2021-09-08T10:05:26Z</time>
      </trkpt>
      <trkpt lat="44.28171" lon="5.68261">
        <ele>1102.4</ele>
        <time>2021-09-08T10:05:28Z</time>
      </trkpt>
      <trkpt lat="44.2817" lon="5.68261">
        <ele>1102.4</ele>
        <time>2021-09-08T10:05:29Z</time>
      </trkpt>
      <trkpt lat="44.2817" lon="5.68261">
        <ele>1102.4</ele>
        <time>2021-09-08T10:05:30Z</time>
      </trkpt>
      <trkpt lat="44.2817" lon="5.68261">
        <ele>1102.4</ele>
        <time>2021-09-08T10:05:32Z</time>
      </trkpt>
      <trkpt lat="44.2817" lon="5.68261">
        <ele>1102.4</ele>
        <time>2021-09-08T10:05:33Z</time>
      </trkpt>
      <trkpt lat="44.28107" lon="5.68185">
        <ele>1109.8</ele>
        <time>2021-09-08T10:11:27Z</time>
      </trkpt>
      <trkpt lat="44.28113" lon="5.68181">
        <ele>1110.4</ele>
        <time>2021-09-08T10:11:28Z</time>
      </trkpt>
      <trkpt lat="44.28117" lon="5.68178">
        <ele>1110.7</ele>
        <time>2021-09-08T10:11:29Z</time>
      </trkpt>
      <trkpt lat="44.28117" lon="5.68177">
        <ele>1110.8</ele>
        <time>2021-09-08T10:11:30Z</time>
      </trkpt>
      <trkpt lat="44.28117" lon="5.68176">
        <ele>1110.8</ele>
        <time>2021-09-08T10:11:31Z</time>
      </trkpt>
      <trkpt lat="44.28117" lon="5.68176">
        <ele>1110.9</ele>
        <time>2021-09-08T10:11:33Z</time>
      </trkpt>
      <trkpt lat="44.28117" lon="5.68176">
        <ele>1110.9</ele>
        <time>2021-09-08T10:11:35Z</time>
      </trkpt>
      <trkpt lat="44.28116" lon="5.68175">
        <ele>1110.9</ele>
        <time>2021-09-08T10:11:36Z</time>
      </trkpt>
      <trkpt lat="44.28116" lon="5.68175">
        <ele>1110.9</ele>
        <time>2021-09-08T10:11:37Z</time>
      </trkpt>
      <trkpt lat="44.28116" lon="5.68174">
        <ele>1111</ele>
        <time>2021-09-08T10:11:38Z</time>
      </trkpt>
      <trkpt lat="44.28115" lon="5.68174">
        <ele>1111</ele>
        <time>2021-09-08T10:11:40Z</time>
      </trkpt>
      <trkpt lat="44.28115" lon="5.68174">
        <ele>1111</ele>
        <time>2021-09-08T10:11:41Z</time>
      </trkpt>
      <trkpt lat="44.28115" lon="5.68173">
        <ele>1111.1</ele>
        <time>2021-09-08T10:11:43Z</time>
      </trkpt>
      <trkpt lat="44.28114" lon="5.68173">
        <ele>1111.1</ele>
        <time>2021-09-08T10:11:44Z</time>
      </trkpt>
      <trkpt lat="44.28114" lon="5.68172">
        <ele>1111.1</ele>
        <time>2021-09-08T10:11:45Z</time>
      </trkpt>
      <trkpt lat="44.28114" lon="5.68172">
        <ele>1111.1</ele>
        <time>2021-09-08T10:11:46Z</time>
      </trkpt>
      <trkpt lat="44.28115" lon="5.68168">
        <ele>1111.3</ele>
        <time>2021-09-08T10:11:47Z</time>
      </trkpt>
      <trkpt lat="44.28116" lon="5.68166">
        <ele>1111.4</ele>
        <time>2021-09-08T10:11:48Z</time>
      </trkpt>
      <trkpt lat="44.28117" lon="5.68165">
        <ele>1111.4</ele>
        <time>2021-09-08T10:11:49Z</time>
      </trkpt>
      <trkpt lat="44.28117" lon="5.68164">
        <ele>1111.4</ele>
        <time>2021-09-08T10:11:50Z</time>
      </trkpt>
      <trkpt lat="44.28117" lon="5.68164">
        <ele>1111.4</ele>
        <time>2021-09-08T10:11:51Z</time>
      </trkpt>
      <trkpt lat="44.28117" lon="5.68164">
        <ele>1111.4</ele>
        <time>2021-09-08T10:11:52Z</time>
      </trkpt>
      <trkpt lat="44.28117" lon="5.68164">
        <ele>1111.4</ele>
        <time>2021-09-08T10:11:54Z</time>
      </trkpt>
      <trkpt lat="44.28117" lon="5.68164">
        <ele>1111.4</ele>
        <time>2021-09-08T10:11:55Z</time>
      </trkpt>
      <trkpt lat="44.28117" lon="5.68164">
        <ele>1111.4</ele>
        <time>2021-09-08T10:11:56Z</time>
      </trkpt>
      <trkpt lat="44.28117" lon="5.68163">
        <ele>1111.4</ele>
        <time>2021-09-08T10:11:58Z</time>
      </trkpt>
      <trkpt lat="44.28117" lon="5.68163">
        <ele>1111.4</ele>
        <time>2021-09-08T10:11:59Z</time>
      </trkpt>
      <trkpt lat="44.28117" lon="5.68163">
        <ele>1111.5</ele>
        <time>2021-09-08T10:12:00Z</time>
      </trkpt>
      <trkpt lat="44.28112" lon="5.68166">
        <ele>1111.5</ele>
        <time>2021-09-08T10:12:02Z</time>
      </trkpt>
      <trkpt lat="44.28107" lon="5.6817">
        <ele>1111.5</ele>
        <time>2021-09-08T10:12:04Z</time>
      </trkpt>
      <trkpt lat="44.28105" lon="5.68171">
        <ele>1111.5</ele>
        <time>2021-09-08T10:12:06Z</time>
      </trkpt>
      <trkpt lat="44.28105" lon="5.68171">
        <ele>1111.5</ele>
        <time>2021-09-08T10:12:07Z</time>
      </trkpt>
      <trkpt lat="44.28105" lon="5.68171">
        <ele>1111.5</ele>
        <time>2021-09-08T10:12:09Z</time>
      </trkpt>
      <trkpt lat="44.28105" lon="5.68172">
        <ele>1111.5</ele>
        <time>2021-09-08T10:12:11Z</time>
      </trkpt>
      <trkpt lat="44.28105" lon="5.68172">
        <ele>1111.5</ele>
        <time>2021-09-08T10:12:12Z</time>
      </trkpt>
      <trkpt lat="44.28104" lon="5.68172">
        <ele>1111.5</ele>
        <time>2021-09-08T10:12:14Z</time>
      </trkpt>
      <trkpt lat="44.28103" lon="5.68174">
        <ele>1111.4</ele>
        <time>2021-09-08T10:12:16Z</time>
      </trkpt>
      <trkpt lat="44.28102" lon="5.68175">
        <ele>1111.3</ele>
        <time>2021-09-08T10:12:17Z</time>
      </trkpt>
      <trkpt lat="44.28101" lon="5.68177">
        <ele>1111.3</ele>
        <time>2021-09-08T10:12:18Z</time>
      </trkpt>
      <trkpt lat="44.28099" lon="5.68182">
        <ele>1111.1</ele>
        <time>2021-09-08T10:12:20Z</time>
      </trkpt>
      <trkpt lat="44.28099" lon="5.68181">
        <ele>1111</ele>
        <time>2021-09-08T10:12:21Z</time>
      </trkpt>
      <trkpt lat="44.28098" lon="5.68183">
        <ele>1110.9</ele>
        <time>2021-09-08T10:12:23Z</time>
      </trkpt>
      <trkpt lat="44.28098" lon="5.68184">
        <ele>1110.8</ele>
        <time>2021-09-08T10:12:24Z</time>
      </trkpt>
      <trkpt lat="44.28098" lon="5.68184">
        <ele>1110.8</ele>
        <time>2021-09-08T10:12:25Z</time>
      </trkpt>
      <trkpt lat="44.28098" lon="5.68184">
        <ele>1110.8</ele>
        <time>2021-09-08T10:12:27Z</time>
      </trkpt>
      <trkpt lat="44.28098" lon="5.68185">
        <ele>1110.8</ele>
        <time>2021-09-08T10:12:28Z</time>
      </trkpt>
      <trkpt lat="44.28098" lon="5.68185">
        <ele>1110.8</ele>
        <time>2021-09-08T10:12:29Z</time>
      </trkpt>
      <trkpt lat="44.28098" lon="5.68185">
        <ele>1110.8</ele>
        <time>2021-09-08T10:12:31Z</time>
      </trkpt>
      <trkpt lat="44.28098" lon="5.68185">
        <ele>1110.8</ele>
        <time>2021-09-08T10:12:33Z</time>
      </trkpt>
      <trkpt lat="44.28098" lon="5.68185">
        <ele>1110.8</ele>
        <time>2021-09-08T10:12:35Z</time>
      </trkpt>
      <trkpt lat="44.28098" lon="5.68185">
        <ele>1110.8</ele>
        <time>2021-09-08T10:12:36Z</time>
      </trkpt>
      <trkpt lat="44.28098" lon="5.68185">
        <ele>1110.8</ele>
        <time>2021-09-08T10:12:38Z</time>
      </trkpt>
      <trkpt lat="44.28098" lon="5.68184">
        <ele>1110.8</ele>
        <time>2021-09-08T10:12:39Z</time>
      </trkpt>
      <trkpt lat="44.28098" lon="5.68184">
        <ele>1110.7</ele>
        <time>2021-09-08T10:12:41Z</time>
      </trkpt>
      <trkpt lat="44.28098" lon="5.68185">
        <ele>1110.7</ele>
        <time>2021-09-08T10:12:43Z</time>
      </trkpt>
      <trkpt lat="44.28098" lon="5.68185">
        <ele>1110.7</ele>
        <time>2021-09-08T10:12:45Z</time>
      </trkpt>
      <trkpt lat="44.28098" lon="5.68185">
        <ele>1110.7</ele>
        <time>2021-09-08T10:12:46Z</time>
      </trkpt>
      <trkpt lat="44.28098" lon="5.68185">
        <ele>1110.7</ele>
        <time>2021-09-08T10:12:47Z</time>
      </trkpt>
      <trkpt lat="44.28098" lon="5.68185">
        <ele>1110.7</ele>
        <time>2021-09-08T10:12:49Z</time>
      </trkpt>
      <trkpt lat="44.28098" lon="5.68186">
        <ele>1110.7</ele>
        <time>2021-09-08T10:12:51Z</time>
      </trkpt>
      <trkpt lat="44.28098" lon="5.68186">
        <ele>1110.7</ele>
        <time>2021-09-08T10:12:52Z</time>
      </trkpt>
      <trkpt lat="44.28098" lon="5.68186">
        <ele>1110.7</ele>
        <time>2021-09-08T10:12:53Z</time>
      </trkpt>
      <trkpt lat="44.28098" lon="5.68186">
        <ele>1110.6</ele>
        <time>2021-09-08T10:12:55Z</time>
      </trkpt>
      <trkpt lat="44.28098" lon="5.68186">
        <ele>1110.6</ele>
        <time>2021-09-08T10:12:57Z</time>
      </trkpt>
      <trkpt lat="44.28098" lon="5.68186">
        <ele>1110.6</ele>
        <time>2021-09-08T10:12:58Z</time>
      </trkpt>
      <trkpt lat="44.28098" lon="5.68185">
        <ele>1110.6</ele>
        <time>2021-09-08T10:12:59Z</time>
      </trkpt>
      <trkpt lat="44.28097" lon="5.68184">
        <ele>1110.5</ele>
        <time>2021-09-08T10:13:00Z</time>
      </trkpt>
      <trkpt lat="44.28096" lon="5.68183">
        <ele>1110.4</ele>
        <time>2021-09-08T10:13:02Z</time>
      </trkpt>
      <trkpt lat="44.28095" lon="5.68182">
        <ele>1110.4</ele>
        <time>2021-09-08T10:13:03Z</time>
      </trkpt>
      <trkpt lat="44.28094" lon="5.68182">
        <ele>1110.3</ele>
        <time>2021-09-08T10:13:04Z</time>
      </trkpt>
      <trkpt lat="44.28092" lon="5.68181">
        <ele>1110.2</ele>
        <time>2021-09-08T10:13:06Z</time>
      </trkpt>
      <trkpt lat="44.28089" lon="5.68179">
        <ele>1110</ele>
        <time>2021-09-08T10:13:07Z</time>
      </trkpt>
      <trkpt lat="44.28083" lon="5.68171">
        <ele>1109.7</ele>
        <time>2021-09-08T10:13:08Z</time>
      </trkpt>
      <trkpt lat="44.28078" lon="5.68165">
        <ele>1109.7</ele>
        <time>2021-09-08T10:13:09Z</time>
      </trkpt>
      <trkpt lat="44.28071" lon="5.68157">
        <ele>1110.2</ele>
        <time>2021-09-08T10:13:11Z</time>
      </trkpt>
      <trkpt lat="44.28059" lon="5.68146">
        <ele>1111.7</ele>
        <time>2021-09-08T10:13:14Z</time>
      </trkpt>
      <trkpt lat="44.28058" lon="5.68143">
        <ele>1112</ele>
        <time>2021-09-08T10:13:16Z</time>
      </trkpt>
      <trkpt lat="44.28059" lon="5.68144">
        <ele>1112.1</ele>
        <time>2021-09-08T10:13:17Z</time>
      </trkpt>
      <trkpt lat="44.28061" lon="5.68147">
        <ele>1112.6</ele>
        <time>2021-09-08T10:13:19Z</time>
      </trkpt>
      <trkpt lat="44.28061" lon="5.68147">
        <ele>1112.6</ele>
        <time>2021-09-08T10:13:20Z</time>
      </trkpt>
      <trkpt lat="44.28061" lon="5.68147">
        <ele>1112.6</ele>
        <time>2021-09-08T10:13:21Z</time>
      </trkpt>
      <trkpt lat="44.28061" lon="5.68147">
        <ele>1112.6</ele>
        <time>2021-09-08T10:13:23Z</time>
      </trkpt>
      <trkpt lat="44.28061" lon="5.68147">
        <ele>1112.7</ele>
        <time>2021-09-08T10:13:24Z</time>
      </trkpt>
      <trkpt lat="44.28036" lon="5.68112">
        <ele>1115.2</ele>
        <time>2021-09-08T10:14:39Z</time>
      </trkpt>
      <trkpt lat="44.28032" lon="5.68113">
        <ele>1115.1</ele>
        <time>2021-09-08T10:14:41Z</time>
      </trkpt>
      <trkpt lat="44.2803" lon="5.68116">
        <ele>1115</ele>
        <time>2021-09-08T10:14:43Z</time>
      </trkpt>
      <trkpt lat="44.28028" lon="5.6812">
        <ele>1114.9</ele>
        <time>2021-09-08T10:14:44Z</time>
      </trkpt>
      <trkpt lat="44.28028" lon="5.68121">
        <ele>1114.8</ele>
        <time>2021-09-08T10:14:45Z</time>
      </trkpt>
      <trkpt lat="44.28027" lon="5.68122">
        <ele>1114.8</ele>
        <time>2021-09-08T10:14:46Z</time>
      </trkpt>
      <trkpt lat="44.28027" lon="5.68122">
        <ele>1114.8</ele>
        <time>2021-09-08T10:14:51Z</time>
      </trkpt>
      <trkpt lat="44.28024" lon="5.68131">
        <ele>1114.5</ele>
        <time>2021-09-08T10:14:53Z</time>
      </trkpt>
      <trkpt lat="44.28024" lon="5.6813">
        <ele>1114.5</ele>
        <time>2021-09-08T10:14:55Z</time>
      </trkpt>
      <trkpt lat="44.28024" lon="5.68128">
        <ele>1114.5</ele>
        <time>2021-09-08T10:14:58Z</time>
      </trkpt>
      <trkpt lat="44.28024" lon="5.68127">
        <ele>1114.5</ele>
        <time>2021-09-08T10:15:03Z</time>
      </trkpt>
      <trkpt lat="44.28023" lon="5.68126">
        <ele>1114.4</ele>
        <time>2021-09-08T10:15:04Z</time>
      </trkpt>
      <trkpt lat="44.28023" lon="5.68126">
        <ele>1114.4</ele>
        <time>2021-09-08T10:15:06Z</time>
      </trkpt>
      <trkpt lat="44.28023" lon="5.68126">
        <ele>1114.4</ele>
        <time>2021-09-08T10:15:07Z</time>
      </trkpt>
      <trkpt lat="44.28023" lon="5.68126">
        <ele>1114.4</ele>
        <time>2021-09-08T10:15:09Z</time>
      </trkpt>
      <trkpt lat="44.28023" lon="5.68126">
        <ele>1114.4</ele>
        <time>2021-09-08T10:15:11Z</time>
      </trkpt>
      <trkpt lat="44.28022" lon="5.68127">
        <ele>1114.4</ele>
        <time>2021-09-08T10:15:13Z</time>
      </trkpt>
      <trkpt lat="44.28022" lon="5.68127">
        <ele>1114.4</ele>
        <time>2021-09-08T10:15:14Z</time>
      </trkpt>
      <trkpt lat="44.28023" lon="5.6813">
        <ele>1114.4</ele>
        <time>2021-09-08T10:15:16Z</time>
      </trkpt>
      <trkpt lat="44.28024" lon="5.68132">
        <ele>1114.4</ele>
        <time>2021-09-08T10:15:17Z</time>
      </trkpt>
      <trkpt lat="44.28024" lon="5.68132">
        <ele>1114.4</ele>
        <time>2021-09-08T10:15:18Z</time>
      </trkpt>
      <trkpt lat="44.28024" lon="5.68133">
        <ele>1114.4</ele>
        <time>2021-09-08T10:15:20Z</time>
      </trkpt>
      <trkpt lat="44.28024" lon="5.68133">
        <ele>1114.4</ele>
        <time>2021-09-08T10:15:21Z</time>
      </trkpt>
      <trkpt lat="44.28024" lon="5.68132">
        <ele>1114.4</ele>
        <time>2021-09-08T10:15:23Z</time>
      </trkpt>
      <trkpt lat="44.28024" lon="5.68128">
        <ele>1114.4</ele>
        <time>2021-09-08T10:15:24Z</time>
      </trkpt>
      <trkpt lat="44.28024" lon="5.68124">
        <ele>1114.4</ele>
        <time>2021-09-08T10:15:26Z</time>
      </trkpt>
      <trkpt lat="44.28027" lon="5.68105">
        <ele>1114.5</ele>
        <time>2021-09-08T10:15:27Z</time>
      </trkpt>
      <trkpt lat="44.28026" lon="5.68095">
        <ele>1114.5</ele>
        <time>2021-09-08T10:15:28Z</time>
      </trkpt>
      <trkpt lat="44.28025" lon="5.68075">
        <ele>1114.6</ele>
        <time>2021-09-08T10:15:29Z</time>
      </trkpt>
      <trkpt lat="44.28026" lon="5.68064">
        <ele>1114.7</ele>
        <time>2021-09-08T10:15:30Z</time>
      </trkpt>
      <trkpt lat="44.28023" lon="5.68027">
        <ele>1115.7</ele>
        <time>2021-09-08T10:15:32Z</time>
      </trkpt>
      <trkpt lat="44.28019" lon="5.6801">
        <ele>1116.6</ele>
        <time>2021-09-08T10:15:34Z</time>
      </trkpt>
      <trkpt lat="44.28015" lon="5.68002">
        <ele>1117.2</ele>
        <time>2021-09-08T10:15:35Z</time>
      </trkpt>
      <trkpt lat="44.2801" lon="5.67992">
        <ele>1118.2</ele>
        <time>2021-09-08T10:15:37Z</time>
      </trkpt>
      <trkpt lat="44.28005" lon="5.67987">
        <ele>1119</ele>
        <time>2021-09-08T10:15:39Z</time>
      </trkpt>
      <trkpt lat="44.28002" lon="5.67983">
        <ele>1119.5</ele>
        <time>2021-09-08T10:15:40Z</time>
      </trkpt>
      <trkpt lat="44.27997" lon="5.67977">
        <ele>1120.3</ele>
        <time>2021-09-08T10:15:42Z</time>
      </trkpt>
      <trkpt lat="44.27993" lon="5.67972">
        <ele>1120.9</ele>
        <time>2021-09-08T10:15:44Z</time>
      </trkpt>
      <trkpt lat="44.2799" lon="5.67969">
        <ele>1121.2</ele>
        <time>2021-09-08T10:15:45Z</time>
      </trkpt>
      <trkpt lat="44.2799" lon="5.67968">
        <ele>1121.3</ele>
        <time>2021-09-08T10:15:46Z</time>
      </trkpt>
      <trkpt lat="44.2799" lon="5.67968">
        <ele>1121.3</ele>
        <time>2021-09-08T10:15:48Z</time>
      </trkpt>
      <trkpt lat="44.27989" lon="5.67967">
        <ele>1121.3</ele>
        <time>2021-09-08T10:15:49Z</time>
      </trkpt>
      <trkpt lat="44.2799" lon="5.67967">
        <ele>1121.3</ele>
        <time>2021-09-08T10:15:50Z</time>
      </trkpt>
      <trkpt lat="44.2799" lon="5.67967">
        <ele>1121.3</ele>
        <time>2021-09-08T10:15:51Z</time>
      </trkpt>
      <trkpt lat="44.2799" lon="5.67967">
        <ele>1121.4</ele>
        <time>2021-09-08T10:15:52Z</time>
      </trkpt>
      <trkpt lat="44.2799" lon="5.67967">
        <ele>1121.4</ele>
        <time>2021-09-08T10:15:53Z</time>
      </trkpt>
      <trkpt lat="44.2799" lon="5.67966">
        <ele>1121.5</ele>
        <time>2021-09-08T10:15:55Z</time>
      </trkpt>
      <trkpt lat="44.27989" lon="5.67964">
        <ele>1121.5</ele>
        <time>2021-09-08T10:15:56Z</time>
      </trkpt>
      <trkpt lat="44.27977" lon="5.67894">
        <ele>1118.8</ele>
        <time>2021-09-08T10:17:32Z</time>
      </trkpt>
      <trkpt lat="44.27975" lon="5.67886">
        <ele>1118.1</ele>
        <time>2021-09-08T10:17:34Z</time>
      </trkpt>
      <trkpt lat="44.27968" lon="5.67877">
        <ele>1117.1</ele>
        <time>2021-09-08T10:17:35Z</time>
      </trkpt>
      <trkpt lat="44.27952" lon="5.67859">
        <ele>1115.1</ele>
        <time>2021-09-08T10:17:37Z</time>
      </trkpt>
      <trkpt lat="44.27941" lon="5.67843">
        <ele>1114.3</ele>
        <time>2021-09-08T10:17:39Z</time>
      </trkpt>
      <trkpt lat="44.27936" lon="5.67835">
        <ele>1114</ele>
        <time>2021-09-08T10:17:40Z</time>
      </trkpt>
      <trkpt lat="44.27927" lon="5.67819">
        <ele>1113.5</ele>
        <time>2021-09-08T10:17:42Z</time>
      </trkpt>
      <trkpt lat="44.27918" lon="5.67803">
        <ele>1113</ele>
        <time>2021-09-08T10:17:44Z</time>
      </trkpt>
      <trkpt lat="44.2791" lon="5.67788">
        <ele>1112.8</ele>
        <time>2021-09-08T10:17:46Z</time>
      </trkpt>
      <trkpt lat="44.27904" lon="5.67771">
        <ele>1112.7</ele>
        <time>2021-09-08T10:17:48Z</time>
      </trkpt>
      <trkpt lat="44.27902" lon="5.67762">
        <ele>1112.7</ele>
        <time>2021-09-08T10:17:49Z</time>
      </trkpt>
      <trkpt lat="44.27897" lon="5.67744">
        <ele>1112.6</ele>
        <time>2021-09-08T10:17:51Z</time>
      </trkpt>
      <trkpt lat="44.27894" lon="5.67739">
        <ele>1112.6</ele>
        <time>2021-09-08T10:17:52Z</time>
      </trkpt>
      <trkpt lat="44.27889" lon="5.67734">
        <ele>1112.6</ele>
        <time>2021-09-08T10:17:53Z</time>
      </trkpt>
      <trkpt lat="44.27882" lon="5.67722">
        <ele>1113.1</ele>
        <time>2021-09-08T10:17:55Z</time>
      </trkpt>
      <trkpt lat="44.27878" lon="5.67716">
        <ele>1113.5</ele>
        <time>2021-09-08T10:17:56Z</time>
      </trkpt>
      <trkpt lat="44.27874" lon="5.67708">
        <ele>1114.1</ele>
        <time>2021-09-08T10:17:57Z</time>
      </trkpt>
      <trkpt lat="44.27869" lon="5.67702">
        <ele>1114.6</ele>
        <time>2021-09-08T10:17:59Z</time>
      </trkpt>
      <trkpt lat="44.27866" lon="5.67698">
        <ele>1114.9</ele>
        <time>2021-09-08T10:18:00Z</time>
      </trkpt>
      <trkpt lat="44.2786" lon="5.67678">
        <ele>1115.2</ele>
        <time>2021-09-08T10:18:01Z</time>
      </trkpt>
      <trkpt lat="44.27857" lon="5.67665">
        <ele>1115.1</ele>
        <time>2021-09-08T10:18:59Z</time>
      </trkpt>
      <trkpt lat="44.27854" lon="5.67652">
        <ele>1115.1</ele>
        <time>2021-09-08T10:19:00Z</time>
      </trkpt>
      <trkpt lat="44.27851" lon="5.67647">
        <ele>1115.2</ele>
        <time>2021-09-08T10:19:01Z</time>
      </trkpt>
      <trkpt lat="44.27846" lon="5.6764">
        <ele>1115.4</ele>
        <time>2021-09-08T10:19:02Z</time>
      </trkpt>
      <trkpt lat="44.27843" lon="5.67636">
        <ele>1115.4</ele>
        <time>2021-09-08T10:19:04Z</time>
      </trkpt>
      <trkpt lat="44.27842" lon="5.67632">
        <ele>1115.4</ele>
        <time>2021-09-08T10:19:05Z</time>
      </trkpt>
      <trkpt lat="44.27842" lon="5.67627">
        <ele>1115.4</ele>
        <time>2021-09-08T10:19:06Z</time>
      </trkpt>
      <trkpt lat="44.27842" lon="5.67626">
        <ele>1115.3</ele>
        <time>2021-09-08T10:19:07Z</time>
      </trkpt>
      <trkpt lat="44.2784" lon="5.67621">
        <ele>1115.2</ele>
        <time>2021-09-08T10:19:09Z</time>
      </trkpt>
      <trkpt lat="44.27839" lon="5.67617">
        <ele>1115</ele>
        <time>2021-09-08T10:19:10Z</time>
      </trkpt>
      <trkpt lat="44.27837" lon="5.67609">
        <ele>1114.6</ele>
        <time>2021-09-08T10:19:11Z</time>
      </trkpt>
      <trkpt lat="44.27837" lon="5.67605">
        <ele>1114.4</ele>
        <time>2021-09-08T10:19:12Z</time>
      </trkpt>
      <trkpt lat="44.27834" lon="5.67597">
        <ele>1114</ele>
        <time>2021-09-08T10:19:14Z</time>
      </trkpt>
      <trkpt lat="44.27832" lon="5.67592">
        <ele>1113.8</ele>
        <time>2021-09-08T10:19:15Z</time>
      </trkpt>
      <trkpt lat="44.2783" lon="5.67586">
        <ele>1113.5</ele>
        <time>2021-09-08T10:19:16Z</time>
      </trkpt>
      <trkpt lat="44.27827" lon="5.67578">
        <ele>1113.2</ele>
        <time>2021-09-08T10:19:17Z</time>
      </trkpt>
      <trkpt lat="44.27819" lon="5.67567">
        <ele>1113</ele>
        <time>2021-09-08T10:19:19Z</time>
      </trkpt>
      <trkpt lat="44.27816" lon="5.67561">
        <ele>1113</ele>
        <time>2021-09-08T10:19:20Z</time>
      </trkpt>
      <trkpt lat="44.27811" lon="5.67556">
        <ele>1113.1</ele>
        <time>2021-09-08T10:19:21Z</time>
      </trkpt>
      <trkpt lat="44.27809" lon="5.67552">
        <ele>1113.3</ele>
        <time>2021-09-08T10:19:23Z</time>
      </trkpt>
      <trkpt lat="44.27808" lon="5.6755">
        <ele>1113.3</ele>
        <time>2021-09-08T10:19:24Z</time>
      </trkpt>
      <trkpt lat="44.27807" lon="5.67548">
        <ele>1113.4</ele>
        <time>2021-09-08T10:19:25Z</time>
      </trkpt>
      <trkpt lat="44.27808" lon="5.67546">
        <ele>1113.5</ele>
        <time>2021-09-08T10:19:27Z</time>
      </trkpt>
      <trkpt lat="44.27808" lon="5.67544">
        <ele>1113.6</ele>
        <time>2021-09-08T10:19:28Z</time>
      </trkpt>
      <trkpt lat="44.27809" lon="5.67542">
        <ele>1113.6</ele>
        <time>2021-09-08T10:19:29Z</time>
      </trkpt>
      <trkpt lat="44.2781" lon="5.67541">
        <ele>1113.7</ele>
        <time>2021-09-08T10:19:31Z</time>
      </trkpt>
      <trkpt lat="44.27786" lon="5.67505">
        <ele>1115.8</ele>
        <time>2021-09-08T10:23:58Z</time>
      </trkpt>
      <trkpt lat="44.27792" lon="5.67512">
        <ele>1115.8</ele>
        <time>2021-09-08T10:24:00Z</time>
      </trkpt>
      <trkpt lat="44.27793" lon="5.67514">
        <ele>1115.8</ele>
        <time>2021-09-08T10:24:02Z</time>
      </trkpt>
      <trkpt lat="44.27794" lon="5.67515">
        <ele>1115.8</ele>
        <time>2021-09-08T10:24:03Z</time>
      </trkpt>
      <trkpt lat="44.27795" lon="5.67514">
        <ele>1115.8</ele>
        <time>2021-09-08T10:24:05Z</time>
      </trkpt>
      <trkpt lat="44.27795" lon="5.67515">
        <ele>1115.8</ele>
        <time>2021-09-08T10:24:06Z</time>
      </trkpt>
      <trkpt lat="44.27795" lon="5.67515">
        <ele>1115.8</ele>
        <time>2021-09-08T10:24:07Z</time>
      </trkpt>
      <trkpt lat="44.27795" lon="5.67515">
        <ele>1115.8</ele>
        <time>2021-09-08T10:24:08Z</time>
      </trkpt>
      <trkpt lat="44.27795" lon="5.67515">
        <ele>1115.8</ele>
        <time>2021-09-08T10:24:09Z</time>
      </trkpt>
      <trkpt lat="44.27795" lon="5.67515">
        <ele>1115.8</ele>
        <time>2021-09-08T10:24:10Z</time>
      </trkpt>
      <trkpt lat="44.27795" lon="5.67515">
        <ele>1115.8</ele>
        <time>2021-09-08T10:24:12Z</time>
      </trkpt>
      <trkpt lat="44.2779" lon="5.67521">
        <ele>1115.8</ele>
        <time>2021-09-08T10:24:26Z</time>
      </trkpt>
      <trkpt lat="44.27788" lon="5.67519">
        <ele>1115.8</ele>
        <time>2021-09-08T10:24:27Z</time>
      </trkpt>
      <trkpt lat="44.27787" lon="5.67518">
        <ele>1115.8</ele>
        <time>2021-09-08T10:24:29Z</time>
      </trkpt>
      <trkpt lat="44.27784" lon="5.67519">
        <ele>1115.8</ele>
        <time>2021-09-08T10:24:30Z</time>
      </trkpt>
      <trkpt lat="44.27781" lon="5.6752">
        <ele>1115.8</ele>
        <time>2021-09-08T10:24:32Z</time>
      </trkpt>
      <trkpt lat="44.27781" lon="5.67522">
        <ele>1115.8</ele>
        <time>2021-09-08T10:24:33Z</time>
      </trkpt>
      <trkpt lat="44.2778" lon="5.67522">
        <ele>1115.8</ele>
        <time>2021-09-08T10:24:34Z</time>
      </trkpt>
      <trkpt lat="44.27779" lon="5.67523">
        <ele>1115.9</ele>
        <time>2021-09-08T10:24:36Z</time>
      </trkpt>
      <trkpt lat="44.27777" lon="5.67522">
        <ele>1116.2</ele>
        <time>2021-09-08T10:24:37Z</time>
      </trkpt>
      <trkpt lat="44.27776" lon="5.67521">
        <ele>1116.4</ele>
        <time>2021-09-08T10:24:39Z</time>
      </trkpt>
      <trkpt lat="44.27776" lon="5.6752">
        <ele>1116.5</ele>
        <time>2021-09-08T10:24:40Z</time>
      </trkpt>
      <trkpt lat="44.27775" lon="5.6752">
        <ele>1116.6</ele>
        <time>2021-09-08T10:24:42Z</time>
      </trkpt>
      <trkpt lat="44.27775" lon="5.6752">
        <ele>1116.6</ele>
        <time>2021-09-08T10:24:43Z</time>
      </trkpt>
      <trkpt lat="44.27775" lon="5.6752">
        <ele>1116.6</ele>
        <time>2021-09-08T10:24:45Z</time>
      </trkpt>
      <trkpt lat="44.27775" lon="5.6752">
        <ele>1116.7</ele>
        <time>2021-09-08T10:24:47Z</time>
      </trkpt>
      <trkpt lat="44.27747" lon="5.67507">
        <ele>1121.5</ele>
        <time>2021-09-08T10:25:11Z</time>
      </trkpt>
      <trkpt lat="44.27744" lon="5.67504">
        <ele>1122</ele>
        <time>2021-09-08T10:25:12Z</time>
      </trkpt>
      <trkpt lat="44.27738" lon="5.67499">
        <ele>1122.8</ele>
        <time>2021-09-08T10:25:13Z</time>
      </trkpt>
      <trkpt lat="44.27733" lon="5.67496">
        <ele>1123.5</ele>
        <time>2021-09-08T10:25:15Z</time>
      </trkpt>
      <trkpt lat="44.2773" lon="5.67494">
        <ele>1123.9</ele>
        <time>2021-09-08T10:25:16Z</time>
      </trkpt>
      <trkpt lat="44.27729" lon="5.67492">
        <ele>1124.1</ele>
        <time>2021-09-08T10:25:17Z</time>
      </trkpt>
      <trkpt lat="44.27729" lon="5.67492">
        <ele>1124.2</ele>
        <time>2021-09-08T10:25:18Z</time>
      </trkpt>
      <trkpt lat="44.27728" lon="5.67491">
        <ele>1124.2</ele>
        <time>2021-09-08T10:25:19Z</time>
      </trkpt>
      <trkpt lat="44.27728" lon="5.67491">
        <ele>1124.3</ele>
        <time>2021-09-08T10:25:21Z</time>
      </trkpt>
      <trkpt lat="44.27728" lon="5.67491">
        <ele>1124.3</ele>
        <time>2021-09-08T10:25:22Z</time>
      </trkpt>
      <trkpt lat="44.27727" lon="5.6749">
        <ele>1124.4</ele>
        <time>2021-09-08T10:25:23Z</time>
      </trkpt>
      <trkpt lat="44.27726" lon="5.6749">
        <ele>1124.5</ele>
        <time>2021-09-08T10:25:25Z</time>
      </trkpt>
      <trkpt lat="44.27725" lon="5.6749">
        <ele>1124.6</ele>
        <time>2021-09-08T10:25:26Z</time>
      </trkpt>
      <trkpt lat="44.27716" lon="5.67484">
        <ele>1125.6</ele>
        <time>2021-09-08T10:25:32Z</time>
      </trkpt>
      <trkpt lat="44.27713" lon="5.67481">
        <ele>1126</ele>
        <time>2021-09-08T10:25:34Z</time>
      </trkpt>
      <trkpt lat="44.27712" lon="5.6748">
        <ele>1126.1</ele>
        <time>2021-09-08T10:25:35Z</time>
      </trkpt>
      <trkpt lat="44.27712" lon="5.6748">
        <ele>1126.2</ele>
        <time>2021-09-08T10:25:36Z</time>
      </trkpt>
      <trkpt lat="44.27711" lon="5.67479">
        <ele>1126.2</ele>
        <time>2021-09-08T10:25:38Z</time>
      </trkpt>
      <trkpt lat="44.27711" lon="5.67478">
        <ele>1126.3</ele>
        <time>2021-09-08T10:25:39Z</time>
      </trkpt>
      <trkpt lat="44.2771" lon="5.67477">
        <ele>1126.4</ele>
        <time>2021-09-08T10:25:41Z</time>
      </trkpt>
      <trkpt lat="44.2771" lon="5.67476">
        <ele>1126.4</ele>
        <time>2021-09-08T10:25:42Z</time>
      </trkpt>
      <trkpt lat="44.2771" lon="5.67475">
        <ele>1126.5</ele>
        <time>2021-09-08T10:25:43Z</time>
      </trkpt>
      <trkpt lat="44.2771" lon="5.67473">
        <ele>1126.6</ele>
        <time>2021-09-08T10:25:44Z</time>
      </trkpt>
      <trkpt lat="44.2771" lon="5.67471">
        <ele>1126.8</ele>
        <time>2021-09-08T10:25:45Z</time>
      </trkpt>
      <trkpt lat="44.27709" lon="5.67468">
        <ele>1126.9</ele>
        <time>2021-09-08T10:25:47Z</time>
      </trkpt>
      <trkpt lat="44.27709" lon="5.67465">
        <ele>1127.1</ele>
        <time>2021-09-08T10:25:48Z</time>
      </trkpt>
      <trkpt lat="44.27708" lon="5.67463">
        <ele>1127.2</ele>
        <time>2021-09-08T10:25:50Z</time>
      </trkpt>
      <trkpt lat="44.27707" lon="5.67461">
        <ele>1127.4</ele>
        <time>2021-09-08T10:25:51Z</time>
      </trkpt>
      <trkpt lat="44.27706" lon="5.6746">
        <ele>1127.5</ele>
        <time>2021-09-08T10:25:52Z</time>
      </trkpt>
      <trkpt lat="44.27705" lon="5.67458">
        <ele>1127.6</ele>
        <time>2021-09-08T10:25:53Z</time>
      </trkpt>
      <trkpt lat="44.27702" lon="5.67455">
        <ele>1127.8</ele>
        <time>2021-09-08T10:25:55Z</time>
      </trkpt>
      <trkpt lat="44.277" lon="5.67452">
        <ele>1128</ele>
        <time>2021-09-08T10:25:56Z</time>
      </trkpt>
      <trkpt lat="44.27699" lon="5.67451">
        <ele>1128.1</ele>
        <time>2021-09-08T10:25:57Z</time>
      </trkpt>
      <trkpt lat="44.27698" lon="5.67448">
        <ele>1128.3</ele>
        <time>2021-09-08T10:25:58Z</time>
      </trkpt>
      <trkpt lat="44.27696" lon="5.67446">
        <ele>1128.4</ele>
        <time>2021-09-08T10:26:00Z</time>
      </trkpt>
      <trkpt lat="44.27688" lon="5.67436">
        <ele>1129.1</ele>
        <time>2021-09-08T10:26:01Z</time>
      </trkpt>
      <trkpt lat="44.27681" lon="5.67427">
        <ele>1129.8</ele>
        <time>2021-09-08T10:26:03Z</time>
      </trkpt>
      <trkpt lat="44.27677" lon="5.67421">
        <ele>1130.2</ele>
        <time>2021-09-08T10:26:04Z</time>
      </trkpt>
      <trkpt lat="44.27675" lon="5.67416">
        <ele>1130.6</ele>
        <time>2021-09-08T10:26:06Z</time>
      </trkpt>
      <trkpt lat="44.27674" lon="5.67411">
        <ele>1131</ele>
        <time>2021-09-08T10:26:07Z</time>
      </trkpt>
      <trkpt lat="44.27674" lon="5.67409">
        <ele>1131.2</ele>
        <time>2021-09-08T10:26:08Z</time>
      </trkpt>
      <trkpt lat="44.27673" lon="5.67404">
        <ele>1131.6</ele>
        <time>2021-09-08T10:26:10Z</time>
      </trkpt>
      <trkpt lat="44.27672" lon="5.674">
        <ele>1131.9</ele>
        <time>2021-09-08T10:26:11Z</time>
      </trkpt>
      <trkpt lat="44.27667" lon="5.67394">
        <ele>1132.7</ele>
        <time>2021-09-08T10:26:13Z</time>
      </trkpt>
      <trkpt lat="44.27664" lon="5.67391">
        <ele>1133.3</ele>
        <time>2021-09-08T10:26:14Z</time>
      </trkpt>
      <trkpt lat="44.27662" lon="5.67388">
        <ele>1133.7</ele>
        <time>2021-09-08T10:26:15Z</time>
      </trkpt>
      <trkpt lat="44.27661" lon="5.67388">
        <ele>1133.9</ele>
        <time>2021-09-08T10:26:16Z</time>
      </trkpt>
      <trkpt lat="44.2766" lon="5.67387">
        <ele>1134</ele>
        <time>2021-09-08T10:26:18Z</time>
      </trkpt>
      <trkpt lat="44.27659" lon="5.67387">
        <ele>1134.1</ele>
        <time>2021-09-08T10:26:19Z</time>
      </trkpt>
      <trkpt lat="44.27659" lon="5.67387">
        <ele>1134.2</ele>
        <time>2021-09-08T10:26:20Z</time>
      </trkpt>
      <trkpt lat="44.27658" lon="5.67386">
        <ele>1134.3</ele>
        <time>2021-09-08T10:26:22Z</time>
      </trkpt>
      <trkpt lat="44.27657" lon="5.67386">
        <ele>1134.4</ele>
        <time>2021-09-08T10:26:23Z</time>
      </trkpt>
      <trkpt lat="44.27656" lon="5.67385">
        <ele>1134.6</ele>
        <time>2021-09-08T10:26:24Z</time>
      </trkpt>
      <trkpt lat="44.27656" lon="5.67385">
        <ele>1134.7</ele>
        <time>2021-09-08T10:26:26Z</time>
      </trkpt>
      <trkpt lat="44.27634" lon="5.67375">
        <ele>1137.6</ele>
        <time>2021-09-08T10:26:52Z</time>
      </trkpt>
      <trkpt lat="44.2763" lon="5.67373">
        <ele>1138</ele>
        <time>2021-09-08T10:26:53Z</time>
      </trkpt>
      <trkpt lat="44.27626" lon="5.6737">
        <ele>1138.5</ele>
        <time>2021-09-08T10:26:55Z</time>
      </trkpt>
      <trkpt lat="44.2762" lon="5.67363">
        <ele>1139.1</ele>
        <time>2021-09-08T10:26:56Z</time>
      </trkpt>
      <trkpt lat="44.27615" lon="5.67358">
        <ele>1139.5</ele>
        <time>2021-09-08T10:26:57Z</time>
      </trkpt>
      <trkpt lat="44.27613" lon="5.67354">
        <ele>1139.8</ele>
        <time>2021-09-08T10:26:59Z</time>
      </trkpt>
      <trkpt lat="44.27612" lon="5.67352">
        <ele>1139.8</ele>
        <time>2021-09-08T10:27:00Z</time>
      </trkpt>
      <trkpt lat="44.27612" lon="5.67351">
        <ele>1139.9</ele>
        <time>2021-09-08T10:27:01Z</time>
      </trkpt>
      <trkpt lat="44.2761" lon="5.67349">
        <ele>1140</ele>
        <time>2021-09-08T10:27:02Z</time>
      </trkpt>
      <trkpt lat="44.27609" lon="5.67343">
        <ele>1140.3</ele>
        <time>2021-09-08T10:27:03Z</time>
      </trkpt>
      <trkpt lat="44.27608" lon="5.67337">
        <ele>1140.6</ele>
        <time>2021-09-08T10:27:05Z</time>
      </trkpt>
      <trkpt lat="44.27607" lon="5.67331">
        <ele>1140.9</ele>
        <time>2021-09-08T10:27:07Z</time>
      </trkpt>
      <trkpt lat="44.27609" lon="5.67327">
        <ele>1141.1</ele>
        <time>2021-09-08T10:27:08Z</time>
      </trkpt>
      <trkpt lat="44.2761" lon="5.67323">
        <ele>1141.4</ele>
        <time>2021-09-08T10:27:10Z</time>
      </trkpt>
      <trkpt lat="44.2761" lon="5.67322">
        <ele>1141.4</ele>
        <time>2021-09-08T10:27:11Z</time>
      </trkpt>
      <trkpt lat="44.2761" lon="5.67321">
        <ele>1141.5</ele>
        <time>2021-09-08T10:27:12Z</time>
      </trkpt>
      <trkpt lat="44.2761" lon="5.6732">
        <ele>1141.5</ele>
        <time>2021-09-08T10:27:13Z</time>
      </trkpt>
      <trkpt lat="44.2761" lon="5.67318">
        <ele>1141.6</ele>
        <time>2021-09-08T10:27:15Z</time>
      </trkpt>
      <trkpt lat="44.27606" lon="5.67307">
        <ele>1142.3</ele>
        <time>2021-09-08T10:27:19Z</time>
      </trkpt>
      <trkpt lat="44.27605" lon="5.67304">
        <ele>1142.5</ele>
        <time>2021-09-08T10:27:20Z</time>
      </trkpt>
      <trkpt lat="44.27604" lon="5.67299">
        <ele>1142.8</ele>
        <time>2021-09-08T10:27:21Z</time>
      </trkpt>
      <trkpt lat="44.27604" lon="5.67297">
        <ele>1142.9</ele>
        <time>2021-09-08T10:27:22Z</time>
      </trkpt>
      <trkpt lat="44.27603" lon="5.67295">
        <ele>1143.1</ele>
        <time>2021-09-08T10:27:24Z</time>
      </trkpt>
      <trkpt lat="44.27602" lon="5.67293">
        <ele>1143.3</ele>
        <time>2021-09-08T10:27:25Z</time>
      </trkpt>
      <trkpt lat="44.27601" lon="5.67292">
        <ele>1143.4</ele>
        <time>2021-09-08T10:27:26Z</time>
      </trkpt>
      <trkpt lat="44.27601" lon="5.6729">
        <ele>1143.5</ele>
        <time>2021-09-08T10:27:28Z</time>
      </trkpt>
      <trkpt lat="44.27601" lon="5.67288">
        <ele>1143.7</ele>
        <time>2021-09-08T10:27:30Z</time>
      </trkpt>
      <trkpt lat="44.27601" lon="5.67286">
        <ele>1143.8</ele>
        <time>2021-09-08T10:27:31Z</time>
      </trkpt>
      <trkpt lat="44.27582" lon="5.67161">
        <ele>1157.3</ele>
        <time>2021-09-08T10:29:17Z</time>
      </trkpt>
      <trkpt lat="44.2758" lon="5.67159">
        <ele>1157.6</ele>
        <time>2021-09-08T10:29:18Z</time>
      </trkpt>
      <trkpt lat="44.27579" lon="5.67157">
        <ele>1157.9</ele>
        <time>2021-09-08T10:29:19Z</time>
      </trkpt>
      <trkpt lat="44.27577" lon="5.67154">
        <ele>1158.3</ele>
        <time>2021-09-08T10:29:21Z</time>
      </trkpt>
      <trkpt lat="44.27575" lon="5.67152">
        <ele>1158.7</ele>
        <time>2021-09-08T10:29:22Z</time>
      </trkpt>
      <trkpt lat="44.27574" lon="5.67151">
        <ele>1158.9</ele>
        <time>2021-09-08T10:29:23Z</time>
      </trkpt>
      <trkpt lat="44.27573" lon="5.6715">
        <ele>1159.1</ele>
        <time>2021-09-08T10:29:24Z</time>
      </trkpt>
      <trkpt lat="44.27572" lon="5.67148">
        <ele>1159.4</ele>
        <time>2021-09-08T10:29:26Z</time>
      </trkpt>
      <trkpt lat="44.27569" lon="5.67146">
        <ele>1159.8</ele>
        <time>2021-09-08T10:29:27Z</time>
      </trkpt>
      <trkpt lat="44.27568" lon="5.67144">
        <ele>1159.9</ele>
        <time>2021-09-08T10:29:29Z</time>
      </trkpt>
      <trkpt lat="44.2756" lon="5.67136">
        <ele>1161</ele>
        <time>2021-09-08T10:29:32Z</time>
      </trkpt>
      <trkpt lat="44.27553" lon="5.67131">
        <ele>1161.8</ele>
        <time>2021-09-08T10:29:34Z</time>
      </trkpt>
      <trkpt lat="44.27552" lon="5.6713">
        <ele>1161.9</ele>
        <time>2021-09-08T10:29:35Z</time>
      </trkpt>
      <trkpt lat="44.27551" lon="5.67128">
        <ele>1162</ele>
        <time>2021-09-08T10:29:37Z</time>
      </trkpt>
      <trkpt lat="44.2755" lon="5.67128">
        <ele>1162.1</ele>
        <time>2021-09-08T10:29:39Z</time>
      </trkpt>
      <trkpt lat="44.2755" lon="5.67127">
        <ele>1162.2</ele>
        <time>2021-09-08T10:29:40Z</time>
      </trkpt>
      <trkpt lat="44.2755" lon="5.67126">
        <ele>1162.2</ele>
        <time>2021-09-08T10:29:41Z</time>
      </trkpt>
      <trkpt lat="44.2755" lon="5.67126">
        <ele>1162.2</ele>
        <time>2021-09-08T10:29:43Z</time>
      </trkpt>
      <trkpt lat="44.27549" lon="5.67125">
        <ele>1162.3</ele>
        <time>2021-09-08T10:29:44Z</time>
      </trkpt>
      <trkpt lat="44.27549" lon="5.67125">
        <ele>1162.3</ele>
        <time>2021-09-08T10:29:46Z</time>
      </trkpt>
      <trkpt lat="44.27549" lon="5.67125">
        <ele>1162.3</ele>
        <time>2021-09-08T10:29:47Z</time>
      </trkpt>
      <trkpt lat="44.27549" lon="5.67125">
        <ele>1162.3</ele>
        <time>2021-09-08T10:29:48Z</time>
      </trkpt>
      <trkpt lat="44.27549" lon="5.67125">
        <ele>1162.3</ele>
        <time>2021-09-08T10:29:50Z</time>
      </trkpt>
      <trkpt lat="44.27549" lon="5.67125">
        <ele>1162.3</ele>
        <time>2021-09-08T10:29:51Z</time>
      </trkpt>
      <trkpt lat="44.27549" lon="5.67124">
        <ele>1162.3</ele>
        <time>2021-09-08T10:29:52Z</time>
      </trkpt>
      <trkpt lat="44.27549" lon="5.67123">
        <ele>1162.4</ele>
        <time>2021-09-08T10:29:54Z</time>
      </trkpt>
      <trkpt lat="44.27549" lon="5.67122">
        <ele>1162.5</ele>
        <time>2021-09-08T10:29:55Z</time>
      </trkpt>
      <trkpt lat="44.2755" lon="5.67121">
        <ele>1162.5</ele>
        <time>2021-09-08T10:29:56Z</time>
      </trkpt>
      <trkpt lat="44.2755" lon="5.6712">
        <ele>1162.6</ele>
        <time>2021-09-08T10:29:58Z</time>
      </trkpt>
      <trkpt lat="44.2755" lon="5.6712">
        <ele>1162.6</ele>
        <time>2021-09-08T10:29:59Z</time>
      </trkpt>
      <trkpt lat="44.2755" lon="5.67119">
        <ele>1162.6</ele>
        <time>2021-09-08T10:30:00Z</time>
      </trkpt>
      <trkpt lat="44.2755" lon="5.67119">
        <ele>1162.7</ele>
        <time>2021-09-08T10:30:02Z</time>
      </trkpt>
      <trkpt lat="44.2755" lon="5.67118">
        <ele>1162.7</ele>
        <time>2021-09-08T10:30:03Z</time>
      </trkpt>
      <trkpt lat="44.27549" lon="5.67116">
        <ele>1162.8</ele>
        <time>2021-09-08T10:30:04Z</time>
      </trkpt>
      <trkpt lat="44.27547" lon="5.67114">
        <ele>1163</ele>
        <time>2021-09-08T10:30:05Z</time>
      </trkpt>
      <trkpt lat="44.27546" lon="5.67111">
        <ele>1163.2</ele>
        <time>2021-09-08T10:30:07Z</time>
      </trkpt>
      <trkpt lat="44.27544" lon="5.67108">
        <ele>1163.4</ele>
        <time>2021-09-08T10:30:08Z</time>
      </trkpt>
      <trkpt lat="44.27544" lon="5.67107">
        <ele>1163.4</ele>
        <time>2021-09-08T10:30:09Z</time>
      </trkpt>
      <trkpt lat="44.27543" lon="5.67107">
        <ele>1163.5</ele>
        <time>2021-09-08T10:30:11Z</time>
      </trkpt>
      <trkpt lat="44.27543" lon="5.67106">
        <ele>1163.5</ele>
        <time>2021-09-08T10:30:12Z</time>
      </trkpt>
      <trkpt lat="44.27542" lon="5.67105">
        <ele>1163.6</ele>
        <time>2021-09-08T10:30:13Z</time>
      </trkpt>
      <trkpt lat="44.27541" lon="5.67104">
        <ele>1163.6</ele>
        <time>2021-09-08T10:30:15Z</time>
      </trkpt>
      <trkpt lat="44.2754" lon="5.67103">
        <ele>1163.7</ele>
        <time>2021-09-08T10:30:16Z</time>
      </trkpt>
      <trkpt lat="44.27539" lon="5.67101">
        <ele>1163.7</ele>
        <time>2021-09-08T10:30:17Z</time>
      </trkpt>
      <trkpt lat="44.27538" lon="5.671">
        <ele>1163.8</ele>
        <time>2021-09-08T10:30:19Z</time>
      </trkpt>
      <trkpt lat="44.27538" lon="5.67099">
        <ele>1163.8</ele>
        <time>2021-09-08T10:30:20Z</time>
      </trkpt>
      <trkpt lat="44.27537" lon="5.67099">
        <ele>1163.8</ele>
        <time>2021-09-08T10:30:21Z</time>
      </trkpt>
      <trkpt lat="44.27536" lon="5.67098">
        <ele>1163.9</ele>
        <time>2021-09-08T10:30:23Z</time>
      </trkpt>
      <trkpt lat="44.27536" lon="5.67098">
        <ele>1163.9</ele>
        <time>2021-09-08T10:30:24Z</time>
      </trkpt>
      <trkpt lat="44.27536" lon="5.67097">
        <ele>1163.9</ele>
        <time>2021-09-08T10:30:26Z</time>
      </trkpt>
      <trkpt lat="44.27536" lon="5.67096">
        <ele>1163.9</ele>
        <time>2021-09-08T10:30:27Z</time>
      </trkpt>
      <trkpt lat="44.27536" lon="5.67095">
        <ele>1163.9</ele>
        <time>2021-09-08T10:30:29Z</time>
      </trkpt>
      <trkpt lat="44.27535" lon="5.67094">
        <ele>1163.9</ele>
        <time>2021-09-08T10:30:30Z</time>
      </trkpt>
      <trkpt lat="44.27535" lon="5.67093">
        <ele>1164</ele>
        <time>2021-09-08T10:30:32Z</time>
      </trkpt>
      <trkpt lat="44.27535" lon="5.67092">
        <ele>1164</ele>
        <time>2021-09-08T10:30:34Z</time>
      </trkpt>
      <trkpt lat="44.27535" lon="5.67091">
        <ele>1164</ele>
        <time>2021-09-08T10:30:35Z</time>
      </trkpt>
      <trkpt lat="44.27535" lon="5.67088">
        <ele>1164</ele>
        <time>2021-09-08T10:30:37Z</time>
      </trkpt>
      <trkpt lat="44.27536" lon="5.67086">
        <ele>1164.1</ele>
        <time>2021-09-08T10:30:38Z</time>
      </trkpt>
      <trkpt lat="44.27536" lon="5.67084">
        <ele>1164.1</ele>
        <time>2021-09-08T10:30:39Z</time>
      </trkpt>
      <trkpt lat="44.27535" lon="5.67079">
        <ele>1164.2</ele>
        <time>2021-09-08T10:30:40Z</time>
      </trkpt>
      <trkpt lat="44.27535" lon="5.67077">
        <ele>1164.2</ele>
        <time>2021-09-08T10:30:41Z</time>
      </trkpt>
      <trkpt lat="44.27535" lon="5.6707">
        <ele>1164.2</ele>
        <time>2021-09-08T10:30:43Z</time>
      </trkpt>
      <trkpt lat="44.27534" lon="5.67068">
        <ele>1164.2</ele>
        <time>2021-09-08T10:30:44Z</time>
      </trkpt>
      <trkpt lat="44.27533" lon="5.67067">
        <ele>1164.2</ele>
        <time>2021-09-08T10:30:45Z</time>
      </trkpt>
      <trkpt lat="44.27531" lon="5.67056">
        <ele>1164.1</ele>
        <time>2021-09-08T10:30:47Z</time>
      </trkpt>
      <trkpt lat="44.27531" lon="5.6705">
        <ele>1164</ele>
        <time>2021-09-08T10:30:49Z</time>
      </trkpt>
      <trkpt lat="44.27531" lon="5.67044">
        <ele>1163.9</ele>
        <time>2021-09-08T10:30:50Z</time>
      </trkpt>
      <trkpt lat="44.27531" lon="5.6704">
        <ele>1163.8</ele>
        <time>2021-09-08T10:30:51Z</time>
      </trkpt>
      <trkpt lat="44.27529" lon="5.6703">
        <ele>1163.8</ele>
        <time>2021-09-08T10:30:53Z</time>
      </trkpt>
      <trkpt lat="44.27529" lon="5.67021">
        <ele>1163.9</ele>
        <time>2021-09-08T10:30:54Z</time>
      </trkpt>
      <trkpt lat="44.27529" lon="5.67017">
        <ele>1163.9</ele>
        <time>2021-09-08T10:30:55Z</time>
      </trkpt>
      <trkpt lat="44.2753" lon="5.67012">
        <ele>1164</ele>
        <time>2021-09-08T10:30:57Z</time>
      </trkpt>
      <trkpt lat="44.27529" lon="5.67008">
        <ele>1164</ele>
        <time>2021-09-08T10:30:58Z</time>
      </trkpt>
      <trkpt lat="44.27527" lon="5.67002">
        <ele>1164.2</ele>
        <time>2021-09-08T10:30:59Z</time>
      </trkpt>
      <trkpt lat="44.27526" lon="5.66998">
        <ele>1164.2</ele>
        <time>2021-09-08T10:31:00Z</time>
      </trkpt>
      <trkpt lat="44.27526" lon="5.66995">
        <ele>1164.3</ele>
        <time>2021-09-08T10:31:01Z</time>
      </trkpt>
      <trkpt lat="44.27525" lon="5.66991">
        <ele>1164.4</ele>
        <time>2021-09-08T10:31:03Z</time>
      </trkpt>
      <trkpt lat="44.27523" lon="5.66987">
        <ele>1164.5</ele>
        <time>2021-09-08T10:31:04Z</time>
      </trkpt>
      <trkpt lat="44.27521" lon="5.66985">
        <ele>1164.6</ele>
        <time>2021-09-08T10:31:05Z</time>
      </trkpt>
      <trkpt lat="44.2752" lon="5.66983">
        <ele>1164.7</ele>
        <time>2021-09-08T10:31:06Z</time>
      </trkpt>
      <trkpt lat="44.27519" lon="5.6698">
        <ele>1164.7</ele>
        <time>2021-09-08T10:31:07Z</time>
      </trkpt>
      <trkpt lat="44.27518" lon="5.66977">
        <ele>1164.9</ele>
        <time>2021-09-08T10:31:08Z</time>
      </trkpt>
      <trkpt lat="44.27518" lon="5.66976">
        <ele>1165</ele>
        <time>2021-09-08T10:31:09Z</time>
      </trkpt>
      <trkpt lat="44.27516" lon="5.66972">
        <ele>1165.2</ele>
        <time>2021-09-08T10:31:11Z</time>
      </trkpt>
      <trkpt lat="44.27516" lon="5.66971">
        <ele>1165.3</ele>
        <time>2021-09-08T10:31:12Z</time>
      </trkpt>
      <trkpt lat="44.27515" lon="5.66969">
        <ele>1165.4</ele>
        <time>2021-09-08T10:31:13Z</time>
      </trkpt>
      <trkpt lat="44.27515" lon="5.66966">
        <ele>1165.5</ele>
        <time>2021-09-08T10:31:14Z</time>
      </trkpt>
      <trkpt lat="44.27515" lon="5.66964">
        <ele>1165.6</ele>
        <time>2021-09-08T10:31:16Z</time>
      </trkpt>
      <trkpt lat="44.27509" lon="5.66888">
        <ele>1167.3</ele>
        <time>2021-09-08T10:32:40Z</time>
      </trkpt>
      <trkpt lat="44.27509" lon="5.66886">
        <ele>1167.4</ele>
        <time>2021-09-08T10:32:41Z</time>
      </trkpt>
      <trkpt lat="44.27509" lon="5.66884">
        <ele>1167.4</ele>
        <time>2021-09-08T10:32:42Z</time>
      </trkpt>
      <trkpt lat="44.27509" lon="5.66879">
        <ele>1167.6</ele>
        <time>2021-09-08T10:32:44Z</time>
      </trkpt>
      <trkpt lat="44.27509" lon="5.66877">
        <ele>1167.6</ele>
        <time>2021-09-08T10:32:45Z</time>
      </trkpt>
      <trkpt lat="44.27509" lon="5.66876">
        <ele>1167.7</ele>
        <time>2021-09-08T10:32:46Z</time>
      </trkpt>
      <trkpt lat="44.27508" lon="5.66873">
        <ele>1167.8</ele>
        <time>2021-09-08T10:32:47Z</time>
      </trkpt>
      <trkpt lat="44.27507" lon="5.66867">
        <ele>1168</ele>
        <time>2021-09-08T10:32:48Z</time>
      </trkpt>
      <trkpt lat="44.27506" lon="5.66863">
        <ele>1168.2</ele>
        <time>2021-09-08T10:32:49Z</time>
      </trkpt>
      <trkpt lat="44.27506" lon="5.66859">
        <ele>1168.3</ele>
        <time>2021-09-08T10:32:50Z</time>
      </trkpt>
      <trkpt lat="44.27506" lon="5.66855">
        <ele>1168.5</ele>
        <time>2021-09-08T10:32:52Z</time>
      </trkpt>
      <trkpt lat="44.27506" lon="5.66853">
        <ele>1168.6</ele>
        <time>2021-09-08T10:32:53Z</time>
      </trkpt>
      <trkpt lat="44.27506" lon="5.66852">
        <ele>1168.6</ele>
        <time>2021-09-08T10:32:54Z</time>
      </trkpt>
      <trkpt lat="44.27506" lon="5.66851">
        <ele>1168.7</ele>
        <time>2021-09-08T10:32:56Z</time>
      </trkpt>
      <trkpt lat="44.27506" lon="5.66851">
        <ele>1168.7</ele>
        <time>2021-09-08T10:32:58Z</time>
      </trkpt>
      <trkpt lat="44.27506" lon="5.66851">
        <ele>1168.7</ele>
        <time>2021-09-08T10:32:59Z</time>
      </trkpt>
      <trkpt lat="44.27506" lon="5.6685">
        <ele>1168.7</ele>
        <time>2021-09-08T10:33:00Z</time>
      </trkpt>
      <trkpt lat="44.27462" lon="5.6655">
        <ele>1154.4</ele>
        <time>2021-09-08T10:34:46Z</time>
      </trkpt>
      <trkpt lat="44.27466" lon="5.66549">
        <ele>1153.8</ele>
        <time>2021-09-08T10:34:47Z</time>
      </trkpt>
      <trkpt lat="44.27476" lon="5.6654">
        <ele>1152.6</ele>
        <time>2021-09-08T10:34:48Z</time>
      </trkpt>
      <trkpt lat="44.27484" lon="5.66535">
        <ele>1152</ele>
        <time>2021-09-08T10:34:50Z</time>
      </trkpt>
      <trkpt lat="44.27489" lon="5.66508">
        <ele>1152</ele>
        <time>2021-09-08T10:34:52Z</time>
      </trkpt>
      <trkpt lat="44.27491" lon="5.66501">
        <ele>1152.4</ele>
        <time>2021-09-08T10:34:53Z</time>
      </trkpt>
      <trkpt lat="44.27489" lon="5.66497">
        <ele>1152.7</ele>
        <time>2021-09-08T10:34:54Z</time>
      </trkpt>
      <trkpt lat="44.27491" lon="5.66488">
        <ele>1153.3</ele>
        <time>2021-09-08T10:34:56Z</time>
      </trkpt>
      <trkpt lat="44.27493" lon="5.66483">
        <ele>1153.8</ele>
        <time>2021-09-08T10:34:57Z</time>
      </trkpt>
      <trkpt lat="44.27494" lon="5.66478">
        <ele>1154.3</ele>
        <time>2021-09-08T10:34:59Z</time>
      </trkpt>
      <trkpt lat="44.27494" lon="5.66474">
        <ele>1154.6</ele>
        <time>2021-09-08T10:35:00Z</time>
      </trkpt>
      <trkpt lat="44.27494" lon="5.66471">
        <ele>1154.9</ele>
        <time>2021-09-08T10:35:01Z</time>
      </trkpt>
      <trkpt lat="44.27493" lon="5.66469">
        <ele>1155.1</ele>
        <time>2021-09-08T10:35:03Z</time>
      </trkpt>
      <trkpt lat="44.27492" lon="5.66467">
        <ele>1155.4</ele>
        <time>2021-09-08T10:35:04Z</time>
      </trkpt>
      <trkpt lat="44.27489" lon="5.66466">
        <ele>1155.7</ele>
        <time>2021-09-08T10:35:06Z</time>
      </trkpt>
      <trkpt lat="44.27428" lon="5.6612">
        <ele>1184.8</ele>
        <time>2021-09-08T10:42:56Z</time>
      </trkpt>
      <trkpt lat="44.27434" lon="5.661">
        <ele>1184.1</ele>
        <time>2021-09-08T10:42:58Z</time>
      </trkpt>
      <trkpt lat="44.27436" lon="5.66088">
        <ele>1183.3</ele>
        <time>2021-09-08T10:42:59Z</time>
      </trkpt>
      <trkpt lat="44.2744" lon="5.66081">
        <ele>1182.7</ele>
        <time>2021-09-08T10:43:00Z</time>
      </trkpt>
      <trkpt lat="44.27453" lon="5.66061">
        <ele>1180.4</ele>
        <time>2021-09-08T10:43:02Z</time>
      </trkpt>
      <trkpt lat="44.27457" lon="5.66054">
        <ele>1179.6</ele>
        <time>2021-09-08T10:43:03Z</time>
      </trkpt>
      <trkpt lat="44.27459" lon="5.6605">
        <ele>1179.3</ele>
        <time>2021-09-08T10:43:04Z</time>
      </trkpt>
      <trkpt lat="44.27462" lon="5.66046">
        <ele>1178.9</ele>
        <time>2021-09-08T10:43:06Z</time>
      </trkpt>
      <trkpt lat="44.27463" lon="5.6604">
        <ele>1178.6</ele>
        <time>2021-09-08T10:43:08Z</time>
      </trkpt>
      <trkpt lat="44.2746" lon="5.66038">
        <ele>1178.3</ele>
        <time>2021-09-08T10:43:09Z</time>
      </trkpt>
      <trkpt lat="44.27458" lon="5.66038">
        <ele>1178.2</ele>
        <time>2021-09-08T10:43:10Z</time>
      </trkpt>
      <trkpt lat="44.27458" lon="5.66038">
        <ele>1178.2</ele>
        <time>2021-09-08T10:43:12Z</time>
      </trkpt>
      <trkpt lat="44.27458" lon="5.66038">
        <ele>1178.1</ele>
        <time>2021-09-08T10:43:14Z</time>
      </trkpt>
      <trkpt lat="44.27458" lon="5.66038">
        <ele>1178.1</ele>
        <time>2021-09-08T10:43:15Z</time>
      </trkpt>
      <trkpt lat="44.27458" lon="5.66038">
        <ele>1178.1</ele>
        <time>2021-09-08T10:43:16Z</time>
      </trkpt>
      <trkpt lat="44.27458" lon="5.66039">
        <ele>1178.1</ele>
        <time>2021-09-08T10:43:17Z</time>
      </trkpt>
      <trkpt lat="44.27458" lon="5.66039">
        <ele>1178.1</ele>
        <time>2021-09-08T10:43:19Z</time>
      </trkpt>
      <trkpt lat="44.27424" lon="5.65904">
        <ele>1192.5</ele>
        <time>2021-09-08T10:46:14Z</time>
      </trkpt>
      <trkpt lat="44.27426" lon="5.65901">
        <ele>1192.9</ele>
        <time>2021-09-08T10:46:15Z</time>
      </trkpt>
      <trkpt lat="44.27428" lon="5.65898">
        <ele>1193.4</ele>
        <time>2021-09-08T10:46:16Z</time>
      </trkpt>
      <trkpt lat="44.2743" lon="5.65895">
        <ele>1193.7</ele>
        <time>2021-09-08T10:46:18Z</time>
      </trkpt>
      <trkpt lat="44.27431" lon="5.65892">
        <ele>1194.1</ele>
        <time>2021-09-08T10:46:20Z</time>
      </trkpt>
      <trkpt lat="44.27431" lon="5.65891">
        <ele>1194.2</ele>
        <time>2021-09-08T10:46:21Z</time>
      </trkpt>
      <trkpt lat="44.27431" lon="5.65891">
        <ele>1194.2</ele>
        <time>2021-09-08T10:46:23Z</time>
      </trkpt>
      <trkpt lat="44.27431" lon="5.65891">
        <ele>1194.2</ele>
        <time>2021-09-08T10:46:25Z</time>
      </trkpt>
      <trkpt lat="44.2743" lon="5.65891">
        <ele>1194.2</ele>
        <time>2021-09-08T10:46:26Z</time>
      </trkpt>
      <trkpt lat="44.2743" lon="5.65891">
        <ele>1194.3</ele>
        <time>2021-09-08T10:46:27Z</time>
      </trkpt>
      <trkpt lat="44.2743" lon="5.6589">
        <ele>1194.3</ele>
        <time>2021-09-08T10:46:29Z</time>
      </trkpt>
      <trkpt lat="44.2743" lon="5.6589">
        <ele>1194.3</ele>
        <time>2021-09-08T10:46:30Z</time>
      </trkpt>
      <trkpt lat="44.27478" lon="5.65782">
        <ele>1204.8</ele>
        <time>2021-09-08T10:48:37Z</time>
      </trkpt>
      <trkpt lat="44.27481" lon="5.65777">
        <ele>1205.2</ele>
        <time>2021-09-08T10:48:38Z</time>
      </trkpt>
      <trkpt lat="44.27483" lon="5.65775">
        <ele>1205.4</ele>
        <time>2021-09-08T10:48:40Z</time>
      </trkpt>
      <trkpt lat="44.27483" lon="5.65774">
        <ele>1205.4</ele>
        <time>2021-09-08T10:48:41Z</time>
      </trkpt>
      <trkpt lat="44.27483" lon="5.65773">
        <ele>1205.5</ele>
        <time>2021-09-08T10:48:43Z</time>
      </trkpt>
      <trkpt lat="44.27483" lon="5.65773">
        <ele>1205.5</ele>
        <time>2021-09-08T10:48:44Z</time>
      </trkpt>
      <trkpt lat="44.27483" lon="5.65772">
        <ele>1205.5</ele>
        <time>2021-09-08T10:48:45Z</time>
      </trkpt>
      <trkpt lat="44.27483" lon="5.65772">
        <ele>1205.6</ele>
        <time>2021-09-08T10:48:46Z</time>
      </trkpt>
      <trkpt lat="44.27483" lon="5.65771">
        <ele>1205.6</ele>
        <time>2021-09-08T10:48:48Z</time>
      </trkpt>
      <trkpt lat="44.27483" lon="5.65771">
        <ele>1205.6</ele>
        <time>2021-09-08T10:48:49Z</time>
      </trkpt>
      <trkpt lat="44.27483" lon="5.65771">
        <ele>1205.6</ele>
        <time>2021-09-08T10:48:50Z</time>
      </trkpt>
      <trkpt lat="44.27483" lon="5.65771">
        <ele>1205.6</ele>
        <time>2021-09-08T10:48:52Z</time>
      </trkpt>
      <trkpt lat="44.27508" lon="5.65722">
        <ele>1209.3</ele>
        <time>2021-09-08T10:49:48Z</time>
      </trkpt>
      <trkpt lat="44.27511" lon="5.65721">
        <ele>1209.6</ele>
        <time>2021-09-08T10:49:50Z</time>
      </trkpt>
      <trkpt lat="44.27514" lon="5.65719">
        <ele>1210</ele>
        <time>2021-09-08T10:49:51Z</time>
      </trkpt>
      <trkpt lat="44.27517" lon="5.65716">
        <ele>1210.4</ele>
        <time>2021-09-08T10:49:52Z</time>
      </trkpt>
      <trkpt lat="44.27518" lon="5.65716">
        <ele>1210.5</ele>
        <time>2021-09-08T10:49:53Z</time>
      </trkpt>
      <trkpt lat="44.27521" lon="5.65714">
        <ele>1210.7</ele>
        <time>2021-09-08T10:49:55Z</time>
      </trkpt>
      <trkpt lat="44.27525" lon="5.65712">
        <ele>1211.1</ele>
        <time>2021-09-08T10:49:56Z</time>
      </trkpt>
      <trkpt lat="44.27528" lon="5.65711">
        <ele>1211.3</ele>
        <time>2021-09-08T10:49:57Z</time>
      </trkpt>
      <trkpt lat="44.2753" lon="5.65709">
        <ele>1211.6</ele>
        <time>2021-09-08T10:49:59Z</time>
      </trkpt>
      <trkpt lat="44.27532" lon="5.65709">
        <ele>1211.6</ele>
        <time>2021-09-08T10:50:00Z</time>
      </trkpt>
      <trkpt lat="44.27533" lon="5.65708">
        <ele>1211.7</ele>
        <time>2021-09-08T10:50:02Z</time>
      </trkpt>
      <trkpt lat="44.27532" lon="5.65708">
        <ele>1211.7</ele>
        <time>2021-09-08T10:50:03Z</time>
      </trkpt>
      <trkpt lat="44.27533" lon="5.65707">
        <ele>1211.9</ele>
        <time>2021-09-08T10:50:05Z</time>
      </trkpt>
      <trkpt lat="44.27534" lon="5.65707">
        <ele>1211.9</ele>
        <time>2021-09-08T10:50:06Z</time>
      </trkpt>
      <trkpt lat="44.27536" lon="5.65705">
        <ele>1212.2</ele>
        <time>2021-09-08T10:50:08Z</time>
      </trkpt>
      <trkpt lat="44.27537" lon="5.65702">
        <ele>1212.4</ele>
        <time>2021-09-08T10:50:10Z</time>
      </trkpt>
      <trkpt lat="44.27537" lon="5.65701">
        <ele>1212.5</ele>
        <time>2021-09-08T10:50:11Z</time>
      </trkpt>
      <trkpt lat="44.27538" lon="5.657">
        <ele>1212.7</ele>
        <time>2021-09-08T10:50:12Z</time>
      </trkpt>
      <trkpt lat="44.2754" lon="5.65698">
        <ele>1212.9</ele>
        <time>2021-09-08T10:50:13Z</time>
      </trkpt>
      <trkpt lat="44.27542" lon="5.65696">
        <ele>1213.2</ele>
        <time>2021-09-08T10:50:15Z</time>
      </trkpt>
      <trkpt lat="44.27543" lon="5.65695">
        <ele>1213.3</ele>
        <time>2021-09-08T10:50:16Z</time>
      </trkpt>
      <trkpt lat="44.27543" lon="5.65694">
        <ele>1213.4</ele>
        <time>2021-09-08T10:50:17Z</time>
      </trkpt>
      <trkpt lat="44.27545" lon="5.65693">
        <ele>1213.5</ele>
        <time>2021-09-08T10:50:19Z</time>
      </trkpt>
      <trkpt lat="44.27166" lon="5.6558">
        <ele>1245.3</ele>
        <time>2021-09-08T11:04:56Z</time>
      </trkpt>
      <trkpt lat="44.27163" lon="5.65578">
        <ele>1245.1</ele>
        <time>2021-09-08T11:04:57Z</time>
      </trkpt>
      <trkpt lat="44.27155" lon="5.65574">
        <ele>1244.7</ele>
        <time>2021-09-08T11:04:59Z</time>
      </trkpt>
      <trkpt lat="44.27146" lon="5.6557">
        <ele>1244.2</ele>
        <time>2021-09-08T11:05:01Z</time>
      </trkpt>
      <trkpt lat="44.27142" lon="5.65569">
        <ele>1244</ele>
        <time>2021-09-08T11:05:02Z</time>
      </trkpt>
      <trkpt lat="44.27139" lon="5.65569">
        <ele>1243.8</ele>
        <time>2021-09-08T11:05:03Z</time>
      </trkpt>
      <trkpt lat="44.27134" lon="5.65569">
        <ele>1243.6</ele>
        <time>2021-09-08T11:05:05Z</time>
      </trkpt>
      <trkpt lat="44.27132" lon="5.65569">
        <ele>1243.4</ele>
        <time>2021-09-08T11:05:06Z</time>
      </trkpt>
      <trkpt lat="44.27131" lon="5.65569">
        <ele>1243.4</ele>
        <time>2021-09-08T11:05:08Z</time>
      </trkpt>
      <trkpt lat="44.2713" lon="5.65569">
        <ele>1243.4</ele>
        <time>2021-09-08T11:05:09Z</time>
      </trkpt>
      <trkpt lat="44.2713" lon="5.65569">
        <ele>1243.3</ele>
        <time>2021-09-08T11:05:10Z</time>
      </trkpt>
      <trkpt lat="44.27127" lon="5.65567">
        <ele>1243.3</ele>
        <time>2021-09-08T11:05:12Z</time>
      </trkpt>
      <trkpt lat="44.27125" lon="5.65564">
        <ele>1243.2</ele>
        <time>2021-09-08T11:05:13Z</time>
      </trkpt>
      <trkpt lat="44.27123" lon="5.65563">
        <ele>1243.1</ele>
        <time>2021-09-08T11:05:14Z</time>
      </trkpt>
      <trkpt lat="44.27121" lon="5.65561">
        <ele>1243</ele>
        <time>2021-09-08T11:05:15Z</time>
      </trkpt>
      <trkpt lat="44.27117" lon="5.65557">
        <ele>1242.9</ele>
        <time>2021-09-08T11:05:17Z</time>
      </trkpt>
      <trkpt lat="44.27116" lon="5.65555">
        <ele>1242.8</ele>
        <time>2021-09-08T11:05:18Z</time>
      </trkpt>
      <trkpt lat="44.27116" lon="5.65553">
        <ele>1242.8</ele>
        <time>2021-09-08T11:05:19Z</time>
      </trkpt>
      <trkpt lat="44.27114" lon="5.65552">
        <ele>1242.7</ele>
        <time>2021-09-08T11:05:21Z</time>
      </trkpt>
      <trkpt lat="44.27113" lon="5.65552">
        <ele>1242.7</ele>
        <time>2021-09-08T11:05:22Z</time>
      </trkpt>
      <trkpt lat="44.27112" lon="5.6555">
        <ele>1242.6</ele>
        <time>2021-09-08T11:05:24Z</time>
      </trkpt>
      <trkpt lat="44.2711" lon="5.65547">
        <ele>1242.5</ele>
        <time>2021-09-08T11:05:26Z</time>
      </trkpt>
      <trkpt lat="44.27109" lon="5.65547">
        <ele>1242.5</ele>
        <time>2021-09-08T11:05:27Z</time>
      </trkpt>
      <trkpt lat="44.27105" lon="5.65545">
        <ele>1242.3</ele>
        <time>2021-09-08T11:05:29Z</time>
      </trkpt>
      <trkpt lat="44.27103" lon="5.65544">
        <ele>1242.3</ele>
        <time>2021-09-08T11:05:30Z</time>
      </trkpt>
      <trkpt lat="44.27098" lon="5.6554">
        <ele>1242.1</ele>
        <time>2021-09-08T11:05:32Z</time>
      </trkpt>
      <trkpt lat="44.27094" lon="5.65538">
        <ele>1242</ele>
        <time>2021-09-08T11:05:33Z</time>
      </trkpt>
      <trkpt lat="44.2709" lon="5.65536">
        <ele>1242</ele>
        <time>2021-09-08T11:05:34Z</time>
      </trkpt>
      <trkpt lat="44.27086" lon="5.65534">
        <ele>1242</ele>
        <time>2021-09-08T11:05:35Z</time>
      </trkpt>
      <trkpt lat="44.2708" lon="5.65531">
        <ele>1242.2</ele>
        <time>2021-09-08T11:05:37Z</time>
      </trkpt>
      <trkpt lat="44.27077" lon="5.65528">
        <ele>1242.3</ele>
        <time>2021-09-08T11:05:38Z</time>
      </trkpt>
      <trkpt lat="44.27075" lon="5.65526">
        <ele>1242.3</ele>
        <time>2021-09-08T11:05:39Z</time>
      </trkpt>
      <trkpt lat="44.27072" lon="5.65523">
        <ele>1242.5</ele>
        <time>2021-09-08T11:05:41Z</time>
      </trkpt>
      <trkpt lat="44.27068" lon="5.65521">
        <ele>1242.6</ele>
        <time>2021-09-08T11:05:42Z</time>
      </trkpt>
      <trkpt lat="44.27067" lon="5.65521">
        <ele>1242.7</ele>
        <time>2021-09-08T11:05:43Z</time>
      </trkpt>
      <trkpt lat="44.27063" lon="5.65521">
        <ele>1242.8</ele>
        <time>2021-09-08T11:05:45Z</time>
      </trkpt>
      <trkpt lat="44.2706" lon="5.6552">
        <ele>1242.9</ele>
        <time>2021-09-08T11:05:46Z</time>
      </trkpt>
      <trkpt lat="44.27056" lon="5.65518">
        <ele>1243</ele>
        <time>2021-09-08T11:05:48Z</time>
      </trkpt>
      <trkpt lat="44.27055" lon="5.65519">
        <ele>1243</ele>
        <time>2021-09-08T11:05:49Z</time>
      </trkpt>
      <trkpt lat="44.27055" lon="5.65518">
        <ele>1243</ele>
        <time>2021-09-08T11:05:50Z</time>
      </trkpt>
      <trkpt lat="44.27053" lon="5.65516">
        <ele>1243.1</ele>
        <time>2021-09-08T11:05:51Z</time>
      </trkpt>
      <trkpt lat="44.2705" lon="5.65513">
        <ele>1243.2</ele>
        <time>2021-09-08T11:05:53Z</time>
      </trkpt>
      <trkpt lat="44.27048" lon="5.65509">
        <ele>1243.3</ele>
        <time>2021-09-08T11:05:54Z</time>
      </trkpt>
      <trkpt lat="44.27046" lon="5.65503">
        <ele>1243.5</ele>
        <time>2021-09-08T11:05:56Z</time>
      </trkpt>
      <trkpt lat="44.27044" lon="5.65498">
        <ele>1243.6</ele>
        <time>2021-09-08T11:05:57Z</time>
      </trkpt>
      <trkpt lat="44.27043" lon="5.65493">
        <ele>1243.7</ele>
        <time>2021-09-08T11:05:58Z</time>
      </trkpt>
      <trkpt lat="44.27041" lon="5.65488">
        <ele>1243.9</ele>
        <time>2021-09-08T11:06:00Z</time>
      </trkpt>
      <trkpt lat="44.27038" lon="5.65482">
        <ele>1244.2</ele>
        <time>2021-09-08T11:06:02Z</time>
      </trkpt>
      <trkpt lat="44.27037" lon="5.65478">
        <ele>1244.3</ele>
        <time>2021-09-08T11:06:03Z</time>
      </trkpt>
      <trkpt lat="44.27035" lon="5.65472">
        <ele>1244.6</ele>
        <time>2021-09-08T11:06:05Z</time>
      </trkpt>
      <trkpt lat="44.27034" lon="5.65467">
        <ele>1244.8</ele>
        <time>2021-09-08T11:06:06Z</time>
      </trkpt>
      <trkpt lat="44.27033" lon="5.65461">
        <ele>1245.1</ele>
        <time>2021-09-08T11:06:07Z</time>
      </trkpt>
      <trkpt lat="44.27031" lon="5.65451">
        <ele>1245.8</ele>
        <time>2021-09-08T11:06:09Z</time>
      </trkpt>
      <trkpt lat="44.27032" lon="5.65445">
        <ele>1246.2</ele>
        <time>2021-09-08T11:06:10Z</time>
      </trkpt>
      <trkpt lat="44.27032" lon="5.65436">
        <ele>1246.8</ele>
        <time>2021-09-08T11:06:12Z</time>
      </trkpt>
      <trkpt lat="44.27033" lon="5.65431">
        <ele>1247.2</ele>
        <time>2021-09-08T11:06:13Z</time>
      </trkpt>
      <trkpt lat="44.27032" lon="5.65427">
        <ele>1247.5</ele>
        <time>2021-09-08T11:06:14Z</time>
      </trkpt>
      <trkpt lat="44.27031" lon="5.65422">
        <ele>1248</ele>
        <time>2021-09-08T11:06:15Z</time>
      </trkpt>
      <trkpt lat="44.27031" lon="5.65419">
        <ele>1248.2</ele>
        <time>2021-09-08T11:06:17Z</time>
      </trkpt>
      <trkpt lat="44.2703" lon="5.65417">
        <ele>1248.3</ele>
        <time>2021-09-08T11:06:18Z</time>
      </trkpt>
      <trkpt lat="44.2703" lon="5.65416">
        <ele>1248.4</ele>
        <time>2021-09-08T11:06:19Z</time>
      </trkpt>
      <trkpt lat="44.2703" lon="5.65413">
        <ele>1248.6</ele>
        <time>2021-09-08T11:06:20Z</time>
      </trkpt>
      <trkpt lat="44.27027" lon="5.65385">
        <ele>1250.6</ele>
        <time>2021-09-08T11:06:23Z</time>
      </trkpt>
      <trkpt lat="44.27028" lon="5.65376">
        <ele>1251.2</ele>
        <time>2021-09-08T11:06:24Z</time>
      </trkpt>
      <trkpt lat="44.27028" lon="5.6537">
        <ele>1251.7</ele>
        <time>2021-09-08T11:06:26Z</time>
      </trkpt>
      <trkpt lat="44.27026" lon="5.65364">
        <ele>1252.1</ele>
        <time>2021-09-08T11:06:27Z</time>
      </trkpt>
      <trkpt lat="44.27025" lon="5.65361">
        <ele>1252.3</ele>
        <time>2021-09-08T11:06:29Z</time>
      </trkpt>
      <trkpt lat="44.27024" lon="5.65358">
        <ele>1252.5</ele>
        <time>2021-09-08T11:06:30Z</time>
      </trkpt>
      <trkpt lat="44.27023" lon="5.65355">
        <ele>1252.7</ele>
        <time>2021-09-08T11:06:31Z</time>
      </trkpt>
      <trkpt lat="44.27018" lon="5.65338">
        <ele>1253.4</ele>
        <time>2021-09-08T11:06:33Z</time>
      </trkpt>
      <trkpt lat="44.27017" lon="5.65333">
        <ele>1253.6</ele>
        <time>2021-09-08T11:06:34Z</time>
      </trkpt>
      <trkpt lat="44.27016" lon="5.65328">
        <ele>1253.8</ele>
        <time>2021-09-08T11:06:36Z</time>
      </trkpt>
      <trkpt lat="44.27017" lon="5.65326">
        <ele>1253.9</ele>
        <time>2021-09-08T11:06:37Z</time>
      </trkpt>
      <trkpt lat="44.27017" lon="5.65325">
        <ele>1254</ele>
        <time>2021-09-08T11:06:39Z</time>
      </trkpt>
      <trkpt lat="44.27017" lon="5.65323">
        <ele>1254.1</ele>
        <time>2021-09-08T11:06:40Z</time>
      </trkpt>
      <trkpt lat="44.27018" lon="5.65322">
        <ele>1254.2</ele>
        <time>2021-09-08T11:06:41Z</time>
      </trkpt>
      <trkpt lat="44.27019" lon="5.65319">
        <ele>1254.3</ele>
        <time>2021-09-08T11:06:43Z</time>
      </trkpt>
      <trkpt lat="44.2702" lon="5.65316">
        <ele>1254.5</ele>
        <time>2021-09-08T11:06:45Z</time>
      </trkpt>
      <trkpt lat="44.27022" lon="5.65313">
        <ele>1254.7</ele>
        <time>2021-09-08T11:06:46Z</time>
      </trkpt>
      <trkpt lat="44.27025" lon="5.6531">
        <ele>1255</ele>
        <time>2021-09-08T11:06:48Z</time>
      </trkpt>
      <trkpt lat="44.27026" lon="5.65309">
        <ele>1255.1</ele>
        <time>2021-09-08T11:06:49Z</time>
      </trkpt>
      <trkpt lat="44.27027" lon="5.65308">
        <ele>1255.2</ele>
        <time>2021-09-08T11:06:50Z</time>
      </trkpt>
      <trkpt lat="44.2703" lon="5.65305">
        <ele>1255.5</ele>
        <time>2021-09-08T11:06:53Z</time>
      </trkpt>
      <trkpt lat="44.27031" lon="5.65304">
        <ele>1255.6</ele>
        <time>2021-09-08T11:06:54Z</time>
      </trkpt>
      <trkpt lat="44.27033" lon="5.65303">
        <ele>1255.7</ele>
        <time>2021-09-08T11:06:55Z</time>
      </trkpt>
      <trkpt lat="44.27034" lon="5.65302">
        <ele>1255.8</ele>
        <time>2021-09-08T11:06:57Z</time>
      </trkpt>
      <trkpt lat="44.27035" lon="5.653">
        <ele>1256</ele>
        <time>2021-09-08T11:06:59Z</time>
      </trkpt>
      <trkpt lat="44.27035" lon="5.65299">
        <ele>1256</ele>
        <time>2021-09-08T11:07:00Z</time>
      </trkpt>
      <trkpt lat="44.27035" lon="5.65298">
        <ele>1256.1</ele>
        <time>2021-09-08T11:07:01Z</time>
      </trkpt>
      <trkpt lat="44.27035" lon="5.65297">
        <ele>1256.2</ele>
        <time>2021-09-08T11:07:03Z</time>
      </trkpt>
      <trkpt lat="44.27035" lon="5.65296">
        <ele>1256.2</ele>
        <time>2021-09-08T11:07:04Z</time>
      </trkpt>
      <trkpt lat="44.27035" lon="5.65296">
        <ele>1256.2</ele>
        <time>2021-09-08T11:07:05Z</time>
      </trkpt>
      <trkpt lat="44.27035" lon="5.65295">
        <ele>1256.3</ele>
        <time>2021-09-08T11:07:07Z</time>
      </trkpt>
      <trkpt lat="44.27035" lon="5.65295">
        <ele>1256.3</ele>
        <time>2021-09-08T11:07:08Z</time>
      </trkpt>
      <trkpt lat="44.27035" lon="5.65295">
        <ele>1256.3</ele>
        <time>2021-09-08T11:07:09Z</time>
      </trkpt>
      <trkpt lat="44.27035" lon="5.65295">
        <ele>1256.3</ele>
        <time>2021-09-08T11:07:10Z</time>
      </trkpt>
      <trkpt lat="44.27035" lon="5.65294">
        <ele>1256.3</ele>
        <time>2021-09-08T11:07:11Z</time>
      </trkpt>
      <trkpt lat="44.27035" lon="5.65294">
        <ele>1256.4</ele>
        <time>2021-09-08T11:07:12Z</time>
      </trkpt>
      <trkpt lat="44.27035" lon="5.65294">
        <ele>1256.4</ele>
        <time>2021-09-08T11:07:13Z</time>
      </trkpt>
      <trkpt lat="44.27034" lon="5.65294">
        <ele>1256.4</ele>
        <time>2021-09-08T11:07:14Z</time>
      </trkpt>
      <trkpt lat="44.27033" lon="5.65292">
        <ele>1256.6</ele>
        <time>2021-09-08T11:07:16Z</time>
      </trkpt>
      <trkpt lat="44.27032" lon="5.65291">
        <ele>1256.7</ele>
        <time>2021-09-08T11:07:18Z</time>
      </trkpt>
      <trkpt lat="44.27032" lon="5.65291">
        <ele>1256.7</ele>
        <time>2021-09-08T11:07:19Z</time>
      </trkpt>
      <trkpt lat="44.27032" lon="5.65291">
        <ele>1256.7</ele>
        <time>2021-09-08T11:07:21Z</time>
      </trkpt>
      <trkpt lat="44.27031" lon="5.65291">
        <ele>1256.7</ele>
        <time>2021-09-08T11:07:22Z</time>
      </trkpt>
      <trkpt lat="44.27031" lon="5.65291">
        <ele>1256.8</ele>
        <time>2021-09-08T11:07:24Z</time>
      </trkpt>
      <trkpt lat="44.27031" lon="5.6529">
        <ele>1256.8</ele>
        <time>2021-09-08T11:07:25Z</time>
      </trkpt>
      <trkpt lat="44.27031" lon="5.6529">
        <ele>1256.8</ele>
        <time>2021-09-08T11:07:27Z</time>
      </trkpt>
      <trkpt lat="44.27031" lon="5.6529">
        <ele>1256.8</ele>
        <time>2021-09-08T11:07:29Z</time>
      </trkpt>
      <trkpt lat="44.27031" lon="5.6529">
        <ele>1256.8</ele>
        <time>2021-09-08T11:07:30Z</time>
      </trkpt>
      <trkpt lat="44.27031" lon="5.6529">
        <ele>1256.9</ele>
        <time>2021-09-08T11:07:32Z</time>
      </trkpt>
      <trkpt lat="44.27041" lon="5.6528">
        <ele>1257.8</ele>
        <time>2021-09-08T11:07:34Z</time>
      </trkpt>
      <trkpt lat="44.27041" lon="5.65281">
        <ele>1257.9</ele>
        <time>2021-09-08T11:07:36Z</time>
      </trkpt>
      <trkpt lat="44.27039" lon="5.65281">
        <ele>1258</ele>
        <time>2021-09-08T11:07:37Z</time>
      </trkpt>
      <trkpt lat="44.27036" lon="5.65282">
        <ele>1258.3</ele>
        <time>2021-09-08T11:07:39Z</time>
      </trkpt>
      <trkpt lat="44.27037" lon="5.65286">
        <ele>1258.5</ele>
        <time>2021-09-08T11:07:41Z</time>
      </trkpt>
      <trkpt lat="44.27037" lon="5.65288">
        <ele>1258.6</ele>
        <time>2021-09-08T11:07:42Z</time>
      </trkpt>
      <trkpt lat="44.27033" lon="5.65294">
        <ele>1259.1</ele>
        <time>2021-09-08T11:07:44Z</time>
      </trkpt>
      <trkpt lat="44.27028" lon="5.65298">
        <ele>1259.4</ele>
        <time>2021-09-08T11:07:45Z</time>
      </trkpt>
      <trkpt lat="44.27018" lon="5.65306">
        <ele>1260.1</ele>
        <time>2021-09-08T11:07:47Z</time>
      </trkpt>
      <trkpt lat="44.27015" lon="5.65308">
        <ele>1260.3</ele>
        <time>2021-09-08T11:07:48Z</time>
      </trkpt>
      <trkpt lat="44.27012" lon="5.65308">
        <ele>1260.4</ele>
        <time>2021-09-08T11:07:50Z</time>
      </trkpt>
      <trkpt lat="44.27012" lon="5.65308">
        <ele>1260.4</ele>
        <time>2021-09-08T11:07:51Z</time>
      </trkpt>
      <trkpt lat="44.27011" lon="5.65307">
        <ele>1260.5</ele>
        <time>2021-09-08T11:07:53Z</time>
      </trkpt>
      <trkpt lat="44.27011" lon="5.65307">
        <ele>1260.5</ele>
        <time>2021-09-08T11:07:54Z</time>
      </trkpt>
      <trkpt lat="44.27011" lon="5.65306">
        <ele>1260.6</ele>
        <time>2021-09-08T11:07:55Z</time>
      </trkpt>
      <trkpt lat="44.27011" lon="5.65305">
        <ele>1260.6</ele>
        <time>2021-09-08T11:07:57Z</time>
      </trkpt>
      <trkpt lat="44.27011" lon="5.65304">
        <ele>1260.6</ele>
        <time>2021-09-08T11:07:58Z</time>
      </trkpt>
      <trkpt lat="44.27011" lon="5.65303">
        <ele>1260.7</ele>
        <time>2021-09-08T11:07:59Z</time>
      </trkpt>
      <trkpt lat="44.27012" lon="5.65303">
        <ele>1260.7</ele>
        <time>2021-09-08T11:08:00Z</time>
      </trkpt>
      <trkpt lat="44.27012" lon="5.65302">
        <ele>1260.7</ele>
        <time>2021-09-08T11:08:01Z</time>
      </trkpt>
      <trkpt lat="44.27012" lon="5.65301">
        <ele>1260.8</ele>
        <time>2021-09-08T11:08:03Z</time>
      </trkpt>
      <trkpt lat="44.27012" lon="5.653">
        <ele>1260.8</ele>
        <time>2021-09-08T11:08:05Z</time>
      </trkpt>
      <trkpt lat="44.27012" lon="5.653">
        <ele>1260.8</ele>
        <time>2021-09-08T11:08:06Z</time>
      </trkpt>
      <trkpt lat="44.27012" lon="5.65299">
        <ele>1260.9</ele>
        <time>2021-09-08T11:08:07Z</time>
      </trkpt>
      <trkpt lat="44.27012" lon="5.65297">
        <ele>1260.9</ele>
        <time>2021-09-08T11:08:08Z</time>
      </trkpt>
      <trkpt lat="44.27013" lon="5.65295">
        <ele>1261.1</ele>
        <time>2021-09-08T11:08:10Z</time>
      </trkpt>
      <trkpt lat="44.27014" lon="5.65292">
        <ele>1261.2</ele>
        <time>2021-09-08T11:08:12Z</time>
      </trkpt>
      <trkpt lat="44.27014" lon="5.6529">
        <ele>1261.3</ele>
        <time>2021-09-08T11:08:13Z</time>
      </trkpt>
      <trkpt lat="44.27014" lon="5.65288">
        <ele>1261.4</ele>
        <time>2021-09-08T11:08:14Z</time>
      </trkpt>
      <trkpt lat="44.27013" lon="5.65287">
        <ele>1261.6</ele>
        <time>2021-09-08T11:08:15Z</time>
      </trkpt>
      <trkpt lat="44.27013" lon="5.65285">
        <ele>1261.6</ele>
        <time>2021-09-08T11:08:16Z</time>
      </trkpt>
      <trkpt lat="44.27012" lon="5.65283">
        <ele>1261.8</ele>
        <time>2021-09-08T11:08:18Z</time>
      </trkpt>
      <trkpt lat="44.27011" lon="5.65282">
        <ele>1261.9</ele>
        <time>2021-09-08T11:08:19Z</time>
      </trkpt>
      <trkpt lat="44.2701" lon="5.65281">
        <ele>1262</ele>
        <time>2021-09-08T11:08:21Z</time>
      </trkpt>
      <trkpt lat="44.27009" lon="5.65281">
        <ele>1262</ele>
        <time>2021-09-08T11:08:22Z</time>
      </trkpt>
      <trkpt lat="44.27009" lon="5.65282">
        <ele>1262</ele>
        <time>2021-09-08T11:08:23Z</time>
      </trkpt>
      <trkpt lat="44.27007" lon="5.65281">
        <ele>1262.2</ele>
        <time>2021-09-08T11:08:24Z</time>
      </trkpt>
      <trkpt lat="44.27005" lon="5.65281">
        <ele>1262.4</ele>
        <time>2021-09-08T11:08:26Z</time>
      </trkpt>
      <trkpt lat="44.27004" lon="5.6528">
        <ele>1262.4</ele>
        <time>2021-09-08T11:08:27Z</time>
      </trkpt>
      <trkpt lat="44.27003" lon="5.6528">
        <ele>1262.5</ele>
        <time>2021-09-08T11:08:28Z</time>
      </trkpt>
      <trkpt lat="44.27001" lon="5.65279">
        <ele>1262.7</ele>
        <time>2021-09-08T11:08:30Z</time>
      </trkpt>
      <trkpt lat="44.27" lon="5.65278">
        <ele>1262.9</ele>
        <time>2021-09-08T11:08:32Z</time>
      </trkpt>
      <trkpt lat="44.26998" lon="5.65278">
        <ele>1263</ele>
        <time>2021-09-08T11:08:34Z</time>
      </trkpt>
      <trkpt lat="44.26996" lon="5.65277">
        <ele>1263.2</ele>
        <time>2021-09-08T11:08:36Z</time>
      </trkpt>
      <trkpt lat="44.26992" lon="5.65276">
        <ele>1263.5</ele>
        <time>2021-09-08T11:08:38Z</time>
      </trkpt>
      <trkpt lat="44.26992" lon="5.65276">
        <ele>1263.6</ele>
        <time>2021-09-08T11:08:39Z</time>
      </trkpt>
      <trkpt lat="44.26992" lon="5.65277">
        <ele>1263.6</ele>
        <time>2021-09-08T11:08:41Z</time>
      </trkpt>
      <trkpt lat="44.26993" lon="5.65277">
        <ele>1263.7</ele>
        <time>2021-09-08T11:08:42Z</time>
      </trkpt>
      <trkpt lat="44.26993" lon="5.65278">
        <ele>1263.8</ele>
        <time>2021-09-08T11:08:43Z</time>
      </trkpt>
      <trkpt lat="44.26994" lon="5.65278">
        <ele>1263.8</ele>
        <time>2021-09-08T11:08:45Z</time>
      </trkpt>
      <trkpt lat="44.26995" lon="5.65278">
        <ele>1263.9</ele>
        <time>2021-09-08T11:08:46Z</time>
      </trkpt>
      <trkpt lat="44.26995" lon="5.65279">
        <ele>1263.9</ele>
        <time>2021-09-08T11:08:47Z</time>
      </trkpt>
      <trkpt lat="44.27019" lon="5.65294">
        <ele>1266.4</ele>
        <time>2021-09-08T11:08:48Z</time>
      </trkpt>
      <trkpt lat="44.27024" lon="5.65298">
        <ele>1267</ele>
        <time>2021-09-08T11:08:50Z</time>
      </trkpt>
      <trkpt lat="44.27028" lon="5.653">
        <ele>1267.4</ele>
        <time>2021-09-08T11:08:51Z</time>
      </trkpt>
      <trkpt lat="44.27026" lon="5.65298">
        <ele>1267.7</ele>
        <time>2021-09-08T11:08:53Z</time>
      </trkpt>
      <trkpt lat="44.27022" lon="5.65294">
        <ele>1268.2</ele>
        <time>2021-09-08T11:08:54Z</time>
      </trkpt>
      <trkpt lat="44.27019" lon="5.6529">
        <ele>1268.7</ele>
        <time>2021-09-08T11:08:56Z</time>
      </trkpt>
      <trkpt lat="44.27015" lon="5.65287">
        <ele>1269.3</ele>
        <time>2021-09-08T11:08:57Z</time>
      </trkpt>
      <trkpt lat="44.27012" lon="5.65283">
        <ele>1269.8</ele>
        <time>2021-09-08T11:08:59Z</time>
      </trkpt>
      <trkpt lat="44.27008" lon="5.6528">
        <ele>1270.4</ele>
        <time>2021-09-08T11:09:00Z</time>
      </trkpt>
      <trkpt lat="44.27004" lon="5.65276">
        <ele>1271</ele>
        <time>2021-09-08T11:09:01Z</time>
      </trkpt>
      <trkpt lat="44.27001" lon="5.65273">
        <ele>1271.5</ele>
        <time>2021-09-08T11:09:03Z</time>
      </trkpt>
      <trkpt lat="44.26992" lon="5.65265">
        <ele>1272.8</ele>
        <time>2021-09-08T11:09:04Z</time>
      </trkpt>
      <trkpt lat="44.26989" lon="5.65261">
        <ele>1273.3</ele>
        <time>2021-09-08T11:09:06Z</time>
      </trkpt>
      <trkpt lat="44.26987" lon="5.65258">
        <ele>1273.5</ele>
        <time>2021-09-08T11:09:08Z</time>
      </trkpt>
      <trkpt lat="44.26987" lon="5.65257">
        <ele>1273.6</ele>
        <time>2021-09-08T11:09:10Z</time>
      </trkpt>
      <trkpt lat="44.26987" lon="5.65257">
        <ele>1273.6</ele>
        <time>2021-09-08T11:09:11Z</time>
      </trkpt>
      <trkpt lat="44.26987" lon="5.65257">
        <ele>1273.6</ele>
        <time>2021-09-08T11:09:13Z</time>
      </trkpt>
      <trkpt lat="44.26987" lon="5.65257">
        <ele>1273.6</ele>
        <time>2021-09-08T11:09:14Z</time>
      </trkpt>
      <trkpt lat="44.26987" lon="5.65257">
        <ele>1273.6</ele>
        <time>2021-09-08T11:09:16Z</time>
      </trkpt>
      <trkpt lat="44.26987" lon="5.65257">
        <ele>1273.6</ele>
        <time>2021-09-08T11:09:17Z</time>
      </trkpt>
      <trkpt lat="44.26987" lon="5.65256">
        <ele>1273.7</ele>
        <time>2021-09-08T11:09:19Z</time>
      </trkpt>
      <trkpt lat="44.26987" lon="5.65256">
        <ele>1273.7</ele>
        <time>2021-09-08T11:09:20Z</time>
      </trkpt>
      <trkpt lat="44.26987" lon="5.65256">
        <ele>1273.7</ele>
        <time>2021-09-08T11:09:22Z</time>
      </trkpt>
      <trkpt lat="44.26987" lon="5.65255">
        <ele>1273.7</ele>
        <time>2021-09-08T11:09:23Z</time>
      </trkpt>
      <trkpt lat="44.26987" lon="5.65255">
        <ele>1273.8</ele>
        <time>2021-09-08T11:09:24Z</time>
      </trkpt>
      <trkpt lat="44.26987" lon="5.65254">
        <ele>1273.8</ele>
        <time>2021-09-08T11:09:25Z</time>
      </trkpt>
      <trkpt lat="44.26988" lon="5.65253">
        <ele>1273.9</ele>
        <time>2021-09-08T11:09:27Z</time>
      </trkpt>
      <trkpt lat="44.26988" lon="5.65252">
        <ele>1274</ele>
        <time>2021-09-08T11:09:28Z</time>
      </trkpt>
      <trkpt lat="44.26988" lon="5.65251">
        <ele>1274.1</ele>
        <time>2021-09-08T11:09:29Z</time>
      </trkpt>
      <trkpt lat="44.26988" lon="5.65249">
        <ele>1274.2</ele>
        <time>2021-09-08T11:09:31Z</time>
      </trkpt>
      <trkpt lat="44.26989" lon="5.65244">
        <ele>1274.6</ele>
        <time>2021-09-08T11:09:33Z</time>
      </trkpt>
      <trkpt lat="44.26988" lon="5.6524">
        <ele>1274.9</ele>
        <time>2021-09-08T11:09:34Z</time>
      </trkpt>
      <trkpt lat="44.26989" lon="5.65236">
        <ele>1275.2</ele>
        <time>2021-09-08T11:09:35Z</time>
      </trkpt>
      <trkpt lat="44.2699" lon="5.65234">
        <ele>1275.4</ele>
        <time>2021-09-08T11:09:37Z</time>
      </trkpt>
      <trkpt lat="44.26991" lon="5.65233">
        <ele>1275.5</ele>
        <time>2021-09-08T11:09:38Z</time>
      </trkpt>
      <trkpt lat="44.26992" lon="5.65232">
        <ele>1275.6</ele>
        <time>2021-09-08T11:09:39Z</time>
      </trkpt>
      <trkpt lat="44.26993" lon="5.65231">
        <ele>1275.7</ele>
        <time>2021-09-08T11:09:41Z</time>
      </trkpt>
      <trkpt lat="44.26994" lon="5.6523">
        <ele>1275.8</ele>
        <time>2021-09-08T11:09:42Z</time>
      </trkpt>
      <trkpt lat="44.26995" lon="5.65229">
        <ele>1275.9</ele>
        <time>2021-09-08T11:09:43Z</time>
      </trkpt>
      <trkpt lat="44.26997" lon="5.65228">
        <ele>1276.1</ele>
        <time>2021-09-08T11:09:44Z</time>
      </trkpt>
      <trkpt lat="44.26998" lon="5.65228">
        <ele>1276.2</ele>
        <time>2021-09-08T11:09:45Z</time>
      </trkpt>
      <trkpt lat="44.26998" lon="5.65228">
        <ele>1276.3</ele>
        <time>2021-09-08T11:09:46Z</time>
      </trkpt>
      <trkpt lat="44.26999" lon="5.65228">
        <ele>1276.3</ele>
        <time>2021-09-08T11:09:47Z</time>
      </trkpt>
      <trkpt lat="44.27" lon="5.65229">
        <ele>1276.5</ele>
        <time>2021-09-08T11:09:49Z</time>
      </trkpt>
      <trkpt lat="44.27002" lon="5.6523">
        <ele>1276.6</ele>
        <time>2021-09-08T11:09:50Z</time>
      </trkpt>
      <trkpt lat="44.27003" lon="5.6523">
        <ele>1276.7</ele>
        <time>2021-09-08T11:09:51Z</time>
      </trkpt>
      <trkpt lat="44.27003" lon="5.65231">
        <ele>1276.8</ele>
        <time>2021-09-08T11:09:53Z</time>
      </trkpt>
      <trkpt lat="44.27003" lon="5.65231">
        <ele>1276.8</ele>
        <time>2021-09-08T11:09:54Z</time>
      </trkpt>
      <trkpt lat="44.27004" lon="5.65232">
        <ele>1276.9</ele>
        <time>2021-09-08T11:09:56Z</time>
      </trkpt>
      <trkpt lat="44.27004" lon="5.65232">
        <ele>1276.9</ele>
        <time>2021-09-08T11:09:57Z</time>
      </trkpt>
      <trkpt lat="44.27005" lon="5.65232">
        <ele>1276.9</ele>
        <time>2021-09-08T11:09:58Z</time>
      </trkpt>
      <trkpt lat="44.27005" lon="5.65233">
        <ele>1277</ele>
        <time>2021-09-08T11:10:00Z</time>
      </trkpt>
      <trkpt lat="44.27006" lon="5.65233">
        <ele>1277.1</ele>
        <time>2021-09-08T11:10:01Z</time>
      </trkpt>
      <trkpt lat="44.27006" lon="5.65233">
        <ele>1277.1</ele>
        <time>2021-09-08T11:10:02Z</time>
      </trkpt>
      <trkpt lat="44.27006" lon="5.65234">
        <ele>1277.2</ele>
        <time>2021-09-08T11:10:03Z</time>
      </trkpt>
      <trkpt lat="44.27007" lon="5.65234">
        <ele>1277.2</ele>
        <time>2021-09-08T11:10:04Z</time>
      </trkpt>
      <trkpt lat="44.27007" lon="5.65235">
        <ele>1277.3</ele>
        <time>2021-09-08T11:10:05Z</time>
      </trkpt>
      <trkpt lat="44.27007" lon="5.65236">
        <ele>1277.4</ele>
        <time>2021-09-08T11:10:06Z</time>
      </trkpt>
      <trkpt lat="44.27007" lon="5.6524">
        <ele>1277.7</ele>
        <time>2021-09-08T11:10:08Z</time>
      </trkpt>
      <trkpt lat="44.27007" lon="5.65247">
        <ele>1278.2</ele>
        <time>2021-09-08T11:10:09Z</time>
      </trkpt>
      <trkpt lat="44.27006" lon="5.65246">
        <ele>1278.3</ele>
        <time>2021-09-08T11:10:11Z</time>
      </trkpt>
      <trkpt lat="44.27003" lon="5.65239">
        <ele>1278.9</ele>
        <time>2021-09-08T11:10:13Z</time>
      </trkpt>
      <trkpt lat="44.27003" lon="5.65235">
        <ele>1279.2</ele>
        <time>2021-09-08T11:10:14Z</time>
      </trkpt>
      <trkpt lat="44.27002" lon="5.65234">
        <ele>1279.3</ele>
        <time>2021-09-08T11:10:15Z</time>
      </trkpt>
      <trkpt lat="44.27003" lon="5.65231">
        <ele>1279.5</ele>
        <time>2021-09-08T11:10:17Z</time>
      </trkpt>
      <trkpt lat="44.27004" lon="5.6523">
        <ele>1279.7</ele>
        <time>2021-09-08T11:10:18Z</time>
      </trkpt>
      <trkpt lat="44.27005" lon="5.65228">
        <ele>1279.8</ele>
        <time>2021-09-08T11:10:19Z</time>
      </trkpt>
      <trkpt lat="44.27005" lon="5.65228">
        <ele>1279.8</ele>
        <time>2021-09-08T11:10:21Z</time>
      </trkpt>
      <trkpt lat="44.27005" lon="5.65229">
        <ele>1279.9</ele>
        <time>2021-09-08T11:10:22Z</time>
      </trkpt>
      <trkpt lat="44.27001" lon="5.65219">
        <ele>1280.7</ele>
        <time>2021-09-08T11:10:24Z</time>
      </trkpt>
      <trkpt lat="44.26992" lon="5.65197">
        <ele>1282.5</ele>
        <time>2021-09-08T11:10:25Z</time>
      </trkpt>
      <trkpt lat="44.26988" lon="5.65187">
        <ele>1283.4</ele>
        <time>2021-09-08T11:10:27Z</time>
      </trkpt>
      <trkpt lat="44.26985" lon="5.6518">
        <ele>1284</ele>
        <time>2021-09-08T11:10:29Z</time>
      </trkpt>
      <trkpt lat="44.26983" lon="5.65177">
        <ele>1284.3</ele>
        <time>2021-09-08T11:10:30Z</time>
      </trkpt>
      <trkpt lat="44.26981" lon="5.65173">
        <ele>1284.7</ele>
        <time>2021-09-08T11:10:31Z</time>
      </trkpt>
      <trkpt lat="44.26979" lon="5.65171">
        <ele>1284.9</ele>
        <time>2021-09-08T11:10:32Z</time>
      </trkpt>
      <trkpt lat="44.26976" lon="5.65167">
        <ele>1285.3</ele>
        <time>2021-09-08T11:10:34Z</time>
      </trkpt>
      <trkpt lat="44.26975" lon="5.65166">
        <ele>1285.4</ele>
        <time>2021-09-08T11:10:35Z</time>
      </trkpt>
      <trkpt lat="44.26974" lon="5.65164">
        <ele>1285.6</ele>
        <time>2021-09-08T11:10:37Z</time>
      </trkpt>
      <trkpt lat="44.26973" lon="5.65163">
        <ele>1285.7</ele>
        <time>2021-09-08T11:10:38Z</time>
      </trkpt>
      <trkpt lat="44.26973" lon="5.65162">
        <ele>1285.7</ele>
        <time>2021-09-08T11:10:40Z</time>
      </trkpt>
      <trkpt lat="44.26973" lon="5.65161">
        <ele>1285.8</ele>
        <time>2021-09-08T11:10:41Z</time>
      </trkpt>
      <trkpt lat="44.26973" lon="5.65161">
        <ele>1285.8</ele>
        <time>2021-09-08T11:10:42Z</time>
      </trkpt>
      <trkpt lat="44.26973" lon="5.65161">
        <ele>1285.8</ele>
        <time>2021-09-08T11:10:44Z</time>
      </trkpt>
      <trkpt lat="44.26973" lon="5.65161">
        <ele>1285.8</ele>
        <time>2021-09-08T11:10:45Z</time>
      </trkpt>
      <trkpt lat="44.26973" lon="5.65161">
        <ele>1285.8</ele>
        <time>2021-09-08T11:10:46Z</time>
      </trkpt>
      <trkpt lat="44.26973" lon="5.6516">
        <ele>1285.9</ele>
        <time>2021-09-08T11:10:48Z</time>
      </trkpt>
      <trkpt lat="44.26974" lon="5.6516">
        <ele>1285.9</ele>
        <time>2021-09-08T11:10:49Z</time>
      </trkpt>
      <trkpt lat="44.26973" lon="5.65161">
        <ele>1285.9</ele>
        <time>2021-09-08T11:10:50Z</time>
      </trkpt>
      <trkpt lat="44.2697" lon="5.65163">
        <ele>1286.2</ele>
        <time>2021-09-08T11:10:52Z</time>
      </trkpt>
      <trkpt lat="44.26968" lon="5.65164">
        <ele>1286.4</ele>
        <time>2021-09-08T11:10:53Z</time>
      </trkpt>
      <trkpt lat="44.26967" lon="5.65165">
        <ele>1286.4</ele>
        <time>2021-09-08T11:10:55Z</time>
      </trkpt>
      <trkpt lat="44.26966" lon="5.65165">
        <ele>1286.5</ele>
        <time>2021-09-08T11:10:57Z</time>
      </trkpt>
      <trkpt lat="44.26965" lon="5.65166">
        <ele>1286.6</ele>
        <time>2021-09-08T11:10:59Z</time>
      </trkpt>
      <trkpt lat="44.26964" lon="5.65166">
        <ele>1286.7</ele>
        <time>2021-09-08T11:11:01Z</time>
      </trkpt>
      <trkpt lat="44.26964" lon="5.65167">
        <ele>1286.8</ele>
        <time>2021-09-08T11:11:02Z</time>
      </trkpt>
      <trkpt lat="44.26962" lon="5.65167">
        <ele>1286.9</ele>
        <time>2021-09-08T11:11:03Z</time>
      </trkpt>
      <trkpt lat="44.26957" lon="5.65166">
        <ele>1287.3</ele>
        <time>2021-09-08T11:11:05Z</time>
      </trkpt>
      <trkpt lat="44.26954" lon="5.65165">
        <ele>1287.5</ele>
        <time>2021-09-08T11:11:06Z</time>
      </trkpt>
      <trkpt lat="44.26953" lon="5.65165">
        <ele>1287.6</ele>
        <time>2021-09-08T11:11:07Z</time>
      </trkpt>
      <trkpt lat="44.26951" lon="5.65164">
        <ele>1287.9</ele>
        <time>2021-09-08T11:11:08Z</time>
      </trkpt>
      <trkpt lat="44.2695" lon="5.65163">
        <ele>1288</ele>
        <time>2021-09-08T11:11:09Z</time>
      </trkpt>
      <trkpt lat="44.26948" lon="5.65163">
        <ele>1288.1</ele>
        <time>2021-09-08T11:11:11Z</time>
      </trkpt>
      <trkpt lat="44.26947" lon="5.65163">
        <ele>1288.2</ele>
        <time>2021-09-08T11:11:12Z</time>
      </trkpt>
      <trkpt lat="44.26947" lon="5.65162">
        <ele>1288.3</ele>
        <time>2021-09-08T11:11:13Z</time>
      </trkpt>
      <trkpt lat="44.26943" lon="5.6516">
        <ele>1288.6</ele>
        <time>2021-09-08T11:11:15Z</time>
      </trkpt>
      <trkpt lat="44.2694" lon="5.65158">
        <ele>1289</ele>
        <time>2021-09-08T11:11:16Z</time>
      </trkpt>
      <trkpt lat="44.26936" lon="5.65155">
        <ele>1289.3</ele>
        <time>2021-09-08T11:11:17Z</time>
      </trkpt>
      <trkpt lat="44.26931" lon="5.65153">
        <ele>1289.9</ele>
        <time>2021-09-08T11:11:19Z</time>
      </trkpt>
      <trkpt lat="44.26926" lon="5.6515">
        <ele>1290.4</ele>
        <time>2021-09-08T11:11:20Z</time>
      </trkpt>
      <trkpt lat="44.26923" lon="5.65148">
        <ele>1290.8</ele>
        <time>2021-09-08T11:11:21Z</time>
      </trkpt>
      <trkpt lat="44.26922" lon="5.65147">
        <ele>1290.9</ele>
        <time>2021-09-08T11:11:22Z</time>
      </trkpt>
      <trkpt lat="44.26921" lon="5.65146">
        <ele>1291</ele>
        <time>2021-09-08T11:11:24Z</time>
      </trkpt>
      <trkpt lat="44.26921" lon="5.65145">
        <ele>1291.1</ele>
        <time>2021-09-08T11:11:25Z</time>
      </trkpt>
      <trkpt lat="44.2692" lon="5.65144">
        <ele>1291.2</ele>
        <time>2021-09-08T11:11:27Z</time>
      </trkpt>
      <trkpt lat="44.2692" lon="5.65143">
        <ele>1291.2</ele>
        <time>2021-09-08T11:11:28Z</time>
      </trkpt>
      <trkpt lat="44.26922" lon="5.65143">
        <ele>1291.3</ele>
        <time>2021-09-08T11:11:30Z</time>
      </trkpt>
      <trkpt lat="44.26923" lon="5.65143">
        <ele>1291.5</ele>
        <time>2021-09-08T11:11:32Z</time>
      </trkpt>
      <trkpt lat="44.26924" lon="5.65143">
        <ele>1291.6</ele>
        <time>2021-09-08T11:11:33Z</time>
      </trkpt>
      <trkpt lat="44.26926" lon="5.65143">
        <ele>1291.8</ele>
        <time>2021-09-08T11:11:34Z</time>
      </trkpt>
      <trkpt lat="44.26927" lon="5.65143">
        <ele>1291.9</ele>
        <time>2021-09-08T11:11:36Z</time>
      </trkpt>
      <trkpt lat="44.26928" lon="5.65143">
        <ele>1292</ele>
        <time>2021-09-08T11:11:37Z</time>
      </trkpt>
      <trkpt lat="44.2693" lon="5.65142">
        <ele>1292.2</ele>
        <time>2021-09-08T11:11:39Z</time>
      </trkpt>
      <trkpt lat="44.26931" lon="5.65142">
        <ele>1292.3</ele>
        <time>2021-09-08T11:11:40Z</time>
      </trkpt>
      <trkpt lat="44.26932" lon="5.65142">
        <ele>1292.5</ele>
        <time>2021-09-08T11:11:41Z</time>
      </trkpt>
      <trkpt lat="44.26934" lon="5.65142">
        <ele>1292.6</ele>
        <time>2021-09-08T11:11:43Z</time>
      </trkpt>
      <trkpt lat="44.26935" lon="5.65142">
        <ele>1292.7</ele>
        <time>2021-09-08T11:11:44Z</time>
      </trkpt>
      <trkpt lat="44.2694" lon="5.65143">
        <ele>1293.2</ele>
        <time>2021-09-08T11:11:46Z</time>
      </trkpt>
      <trkpt lat="44.2694" lon="5.65144">
        <ele>1293.3</ele>
        <time>2021-09-08T11:11:47Z</time>
      </trkpt>
      <trkpt lat="44.2694" lon="5.65145">
        <ele>1293.4</ele>
        <time>2021-09-08T11:11:48Z</time>
      </trkpt>
      <trkpt lat="44.26938" lon="5.65146">
        <ele>1293.5</ele>
        <time>2021-09-08T11:11:50Z</time>
      </trkpt>
      <trkpt lat="44.26936" lon="5.65146">
        <ele>1293.8</ele>
        <time>2021-09-08T11:11:52Z</time>
      </trkpt>
      <trkpt lat="44.26932" lon="5.65148">
        <ele>1294.1</ele>
        <time>2021-09-08T11:11:53Z</time>
      </trkpt>
      <trkpt lat="44.2693" lon="5.65149">
        <ele>1294.3</ele>
        <time>2021-09-08T11:11:54Z</time>
      </trkpt>
      <trkpt lat="44.26928" lon="5.65148">
        <ele>1294.5</ele>
        <time>2021-09-08T11:11:55Z</time>
      </trkpt>
      <trkpt lat="44.26927" lon="5.65147">
        <ele>1294.6</ele>
        <time>2021-09-08T11:11:56Z</time>
      </trkpt>
      <trkpt lat="44.26927" lon="5.65145">
        <ele>1294.7</ele>
        <time>2021-09-08T11:11:57Z</time>
      </trkpt>
      <trkpt lat="44.26925" lon="5.65143">
        <ele>1294.8</ele>
        <time>2021-09-08T11:11:59Z</time>
      </trkpt>
      <trkpt lat="44.26925" lon="5.65143">
        <ele>1294.9</ele>
        <time>2021-09-08T11:12:00Z</time>
      </trkpt>
      <trkpt lat="44.26925" lon="5.65143">
        <ele>1294.9</ele>
        <time>2021-09-08T11:12:02Z</time>
      </trkpt>
      <trkpt lat="44.26924" lon="5.65142">
        <ele>1294.9</ele>
        <time>2021-09-08T11:12:03Z</time>
      </trkpt>
      <trkpt lat="44.26924" lon="5.65142">
        <ele>1295</ele>
        <time>2021-09-08T11:12:04Z</time>
      </trkpt>
      <trkpt lat="44.26851" lon="5.6506">
        <ele>1300.4</ele>
        <time>2021-09-08T11:14:26Z</time>
      </trkpt>
      <trkpt lat="44.26848" lon="5.65058">
        <ele>1300.4</ele>
        <time>2021-09-08T11:14:27Z</time>
      </trkpt>
      <trkpt lat="44.26847" lon="5.65057">
        <ele>1300.4</ele>
        <time>2021-09-08T11:14:28Z</time>
      </trkpt>
      <trkpt lat="44.26846" lon="5.65056">
        <ele>1300.4</ele>
        <time>2021-09-08T11:14:29Z</time>
      </trkpt>
      <trkpt lat="44.26844" lon="5.65055">
        <ele>1300.4</ele>
        <time>2021-09-08T11:14:30Z</time>
      </trkpt>
      <trkpt lat="44.26843" lon="5.65053">
        <ele>1300.3</ele>
        <time>2021-09-08T11:14:32Z</time>
      </trkpt>
      <trkpt lat="44.26842" lon="5.65052">
        <ele>1300.3</ele>
        <time>2021-09-08T11:14:33Z</time>
      </trkpt>
      <trkpt lat="44.26842" lon="5.65051">
        <ele>1300.3</ele>
        <time>2021-09-08T11:14:34Z</time>
      </trkpt>
      <trkpt lat="44.26842" lon="5.6505">
        <ele>1300.3</ele>
        <time>2021-09-08T11:14:35Z</time>
      </trkpt>
      <trkpt lat="44.26841" lon="5.6505">
        <ele>1300.3</ele>
        <time>2021-09-08T11:14:36Z</time>
      </trkpt>
      <trkpt lat="44.26841" lon="5.65049">
        <ele>1300.3</ele>
        <time>2021-09-08T11:14:38Z</time>
      </trkpt>
      <trkpt lat="44.26838" lon="5.65018">
        <ele>1299.9</ele>
        <time>2021-09-08T11:15:33Z</time>
      </trkpt>
      <trkpt lat="44.26838" lon="5.65013">
        <ele>1299.9</ele>
        <time>2021-09-08T11:15:34Z</time>
      </trkpt>
      <trkpt lat="44.26837" lon="5.65005">
        <ele>1299.8</ele>
        <time>2021-09-08T11:15:35Z</time>
      </trkpt>
      <trkpt lat="44.26835" lon="5.64997">
        <ele>1299.8</ele>
        <time>2021-09-08T11:15:37Z</time>
      </trkpt>
      <trkpt lat="44.26835" lon="5.64986">
        <ele>1299.9</ele>
        <time>2021-09-08T11:15:39Z</time>
      </trkpt>
      <trkpt lat="44.26834" lon="5.6498">
        <ele>1300</ele>
        <time>2021-09-08T11:15:40Z</time>
      </trkpt>
      <trkpt lat="44.26834" lon="5.64972">
        <ele>1300.1</ele>
        <time>2021-09-08T11:15:42Z</time>
      </trkpt>
      <trkpt lat="44.26833" lon="5.64966">
        <ele>1300.2</ele>
        <time>2021-09-08T11:15:43Z</time>
      </trkpt>
      <trkpt lat="44.26832" lon="5.6496">
        <ele>1300.3</ele>
        <time>2021-09-08T11:15:44Z</time>
      </trkpt>
      <trkpt lat="44.26832" lon="5.64957">
        <ele>1300.4</ele>
        <time>2021-09-08T11:15:45Z</time>
      </trkpt>
      <trkpt lat="44.26832" lon="5.64954">
        <ele>1300.5</ele>
        <time>2021-09-08T11:15:46Z</time>
      </trkpt>
      <trkpt lat="44.26832" lon="5.64952">
        <ele>1300.5</ele>
        <time>2021-09-08T11:15:48Z</time>
      </trkpt>
      <trkpt lat="44.26833" lon="5.6495">
        <ele>1300.5</ele>
        <time>2021-09-08T11:15:49Z</time>
      </trkpt>
      <trkpt lat="44.26833" lon="5.64946">
        <ele>1300.6</ele>
        <time>2021-09-08T11:15:51Z</time>
      </trkpt>
      <trkpt lat="44.26834" lon="5.64944">
        <ele>1300.7</ele>
        <time>2021-09-08T11:15:52Z</time>
      </trkpt>
      <trkpt lat="44.26834" lon="5.64941">
        <ele>1300.8</ele>
        <time>2021-09-08T11:15:54Z</time>
      </trkpt>
      <trkpt lat="44.26835" lon="5.64937">
        <ele>1300.8</ele>
        <time>2021-09-08T11:15:55Z</time>
      </trkpt>
      <trkpt lat="44.26835" lon="5.64934">
        <ele>1300.9</ele>
        <time>2021-09-08T11:15:56Z</time>
      </trkpt>
      <trkpt lat="44.26851" lon="5.6482">
        <ele>1298.3</ele>
        <time>2021-09-08T11:16:33Z</time>
      </trkpt>
      <trkpt lat="44.2685" lon="5.64813">
        <ele>1298.6</ele>
        <time>2021-09-08T11:16:34Z</time>
      </trkpt>
      <trkpt lat="44.26851" lon="5.6481">
        <ele>1298.8</ele>
        <time>2021-09-08T11:16:35Z</time>
      </trkpt>
      <trkpt lat="44.26855" lon="5.64803">
        <ele>1299.3</ele>
        <time>2021-09-08T11:16:37Z</time>
      </trkpt>
      <trkpt lat="44.26856" lon="5.64802">
        <ele>1299.4</ele>
        <time>2021-09-08T11:16:38Z</time>
      </trkpt>
      <trkpt lat="44.26859" lon="5.64801">
        <ele>1299.6</ele>
        <time>2021-09-08T11:16:40Z</time>
      </trkpt>
      <trkpt lat="44.26859" lon="5.648">
        <ele>1299.7</ele>
        <time>2021-09-08T11:16:41Z</time>
      </trkpt>
      <trkpt lat="44.26859" lon="5.64799">
        <ele>1299.8</ele>
        <time>2021-09-08T11:16:42Z</time>
      </trkpt>
      <trkpt lat="44.26859" lon="5.64799">
        <ele>1299.8</ele>
        <time>2021-09-08T11:16:44Z</time>
      </trkpt>
      <trkpt lat="44.26859" lon="5.64798">
        <ele>1299.8</ele>
        <time>2021-09-08T11:16:45Z</time>
      </trkpt>
      <trkpt lat="44.26859" lon="5.64798">
        <ele>1299.8</ele>
        <time>2021-09-08T11:16:46Z</time>
      </trkpt>
      <trkpt lat="44.26859" lon="5.64797">
        <ele>1300</ele>
        <time>2021-09-08T11:16:47Z</time>
      </trkpt>
      <trkpt lat="44.26864" lon="5.64705">
        <ele>1309.3</ele>
        <time>2021-09-08T11:18:27Z</time>
      </trkpt>
      <trkpt lat="44.26867" lon="5.64706">
        <ele>1309.7</ele>
        <time>2021-09-08T11:18:29Z</time>
      </trkpt>
      <trkpt lat="44.26868" lon="5.64707">
        <ele>1309.9</ele>
        <time>2021-09-08T11:18:30Z</time>
      </trkpt>
      <trkpt lat="44.26868" lon="5.64708">
        <ele>1309.9</ele>
        <time>2021-09-08T11:18:32Z</time>
      </trkpt>
      <trkpt lat="44.26868" lon="5.64708">
        <ele>1310</ele>
        <time>2021-09-08T11:18:33Z</time>
      </trkpt>
      <trkpt lat="44.26868" lon="5.64708">
        <ele>1310</ele>
        <time>2021-09-08T11:18:34Z</time>
      </trkpt>
      <trkpt lat="44.26869" lon="5.64707">
        <ele>1310.1</ele>
        <time>2021-09-08T11:18:36Z</time>
      </trkpt>
      <trkpt lat="44.26869" lon="5.64707">
        <ele>1310.1</ele>
        <time>2021-09-08T11:18:37Z</time>
      </trkpt>
      <trkpt lat="44.26869" lon="5.64707">
        <ele>1310.1</ele>
        <time>2021-09-08T11:18:39Z</time>
      </trkpt>
      <trkpt lat="44.26809" lon="5.64434">
        <ele>1306.7</ele>
        <time>2021-09-08T11:22:13Z</time>
      </trkpt>
      <trkpt lat="44.26805" lon="5.64426">
        <ele>1306.4</ele>
        <time>2021-09-08T11:22:15Z</time>
      </trkpt>
      <trkpt lat="44.268" lon="5.64414">
        <ele>1305.8</ele>
        <time>2021-09-08T11:22:16Z</time>
      </trkpt>
      <trkpt lat="44.26799" lon="5.64409">
        <ele>1305.5</ele>
        <time>2021-09-08T11:22:17Z</time>
      </trkpt>
      <trkpt lat="44.26796" lon="5.64403">
        <ele>1304.9</ele>
        <time>2021-09-08T11:22:18Z</time>
      </trkpt>
      <trkpt lat="44.26794" lon="5.64397">
        <ele>1304.5</ele>
        <time>2021-09-08T11:22:20Z</time>
      </trkpt>
      <trkpt lat="44.26793" lon="5.64391">
        <ele>1303.9</ele>
        <time>2021-09-08T11:22:21Z</time>
      </trkpt>
      <trkpt lat="44.26792" lon="5.64385">
        <ele>1303.3</ele>
        <time>2021-09-08T11:22:23Z</time>
      </trkpt>
      <trkpt lat="44.26791" lon="5.6438">
        <ele>1302.8</ele>
        <time>2021-09-08T11:22:25Z</time>
      </trkpt>
      <trkpt lat="44.26791" lon="5.64378">
        <ele>1302.5</ele>
        <time>2021-09-08T11:22:26Z</time>
      </trkpt>
      <trkpt lat="44.26753" lon="5.64176">
        <ele>1291.6</ele>
        <time>2021-09-08T11:23:58Z</time>
      </trkpt>
      <trkpt lat="44.26748" lon="5.64175">
        <ele>1292.3</ele>
        <time>2021-09-08T11:23:59Z</time>
      </trkpt>
      <trkpt lat="44.26745" lon="5.64174">
        <ele>1292.9</ele>
        <time>2021-09-08T11:24:00Z</time>
      </trkpt>
      <trkpt lat="44.26743" lon="5.64172">
        <ele>1293.4</ele>
        <time>2021-09-08T11:24:01Z</time>
      </trkpt>
      <trkpt lat="44.26742" lon="5.64171">
        <ele>1293.6</ele>
        <time>2021-09-08T11:24:02Z</time>
      </trkpt>
      <trkpt lat="44.26739" lon="5.64167">
        <ele>1294.3</ele>
        <time>2021-09-08T11:24:04Z</time>
      </trkpt>
      <trkpt lat="44.26739" lon="5.64163">
        <ele>1295</ele>
        <time>2021-09-08T11:24:06Z</time>
      </trkpt>
      <trkpt lat="44.26743" lon="5.64159">
        <ele>1295.9</ele>
        <time>2021-09-08T11:24:08Z</time>
      </trkpt>
      <trkpt lat="44.26747" lon="5.64158">
        <ele>1296.8</ele>
        <time>2021-09-08T11:24:09Z</time>
      </trkpt>
      <trkpt lat="44.2675" lon="5.64157">
        <ele>1297.3</ele>
        <time>2021-09-08T11:24:10Z</time>
      </trkpt>
      <trkpt lat="44.26753" lon="5.64157">
        <ele>1297.9</ele>
        <time>2021-09-08T11:24:12Z</time>
      </trkpt>
      <trkpt lat="44.26755" lon="5.64157">
        <ele>1298.3</ele>
        <time>2021-09-08T11:24:14Z</time>
      </trkpt>
      <trkpt lat="44.26756" lon="5.64158">
        <ele>1298.4</ele>
        <time>2021-09-08T11:24:15Z</time>
      </trkpt>
      <trkpt lat="44.26757" lon="5.64158">
        <ele>1298.5</ele>
        <time>2021-09-08T11:24:16Z</time>
      </trkpt>
      <trkpt lat="44.26757" lon="5.64158">
        <ele>1298.5</ele>
        <time>2021-09-08T11:24:17Z</time>
      </trkpt>
      <trkpt lat="44.26757" lon="5.64158">
        <ele>1298.6</ele>
        <time>2021-09-08T11:24:19Z</time>
      </trkpt>
      <trkpt lat="44.26756" lon="5.64156">
        <ele>1298.8</ele>
        <time>2021-09-08T11:24:20Z</time>
      </trkpt>
      <trkpt lat="44.26619" lon="5.63946">
        <ele>1306.3</ele>
        <time>2021-09-08T11:26:39Z</time>
      </trkpt>
      <trkpt lat="44.26613" lon="5.63946">
        <ele>1305.7</ele>
        <time>2021-09-08T11:26:40Z</time>
      </trkpt>
      <trkpt lat="44.26605" lon="5.63945">
        <ele>1305</ele>
        <time>2021-09-08T11:26:41Z</time>
      </trkpt>
      <trkpt lat="44.26598" lon="5.63944">
        <ele>1304.3</ele>
        <time>2021-09-08T11:26:42Z</time>
      </trkpt>
      <trkpt lat="44.26587" lon="5.63942">
        <ele>1303.2</ele>
        <time>2021-09-08T11:26:44Z</time>
      </trkpt>
      <trkpt lat="44.26577" lon="5.6394">
        <ele>1298.6</ele>
        <time>2021-09-08T11:26:45Z</time>
      </trkpt>
      <trkpt lat="44.26561" lon="5.63938">
        <ele>1296.5</ele>
        <time>2021-09-08T11:26:46Z</time>
      </trkpt>
      <trkpt lat="44.26554" lon="5.63937">
        <ele>1295.5</ele>
        <time>2021-09-08T11:26:47Z</time>
      </trkpt>
      <trkpt lat="44.26547" lon="5.63936">
        <ele>1294.6</ele>
        <time>2021-09-08T11:26:48Z</time>
      </trkpt>
      <trkpt lat="44.26535" lon="5.63931">
        <ele>1292.9</ele>
        <time>2021-09-08T11:26:50Z</time>
      </trkpt>
      <trkpt lat="44.26528" lon="5.63928">
        <ele>1291.9</ele>
        <time>2021-09-08T11:26:52Z</time>
      </trkpt>
      <trkpt lat="44.26525" lon="5.63927">
        <ele>1291.5</ele>
        <time>2021-09-08T11:26:53Z</time>
      </trkpt>
      <trkpt lat="44.26522" lon="5.63923">
        <ele>1290.9</ele>
        <time>2021-09-08T11:26:54Z</time>
      </trkpt>
      <trkpt lat="44.26518" lon="5.63918">
        <ele>1290.2</ele>
        <time>2021-09-08T11:26:55Z</time>
      </trkpt>
      <trkpt lat="44.26514" lon="5.63912">
        <ele>1289.5</ele>
        <time>2021-09-08T11:26:56Z</time>
      </trkpt>
      <trkpt lat="44.26502" lon="5.63885">
        <ele>1286.4</ele>
        <time>2021-09-08T11:26:58Z</time>
      </trkpt>
      <trkpt lat="44.26491" lon="5.63854">
        <ele>1283</ele>
        <time>2021-09-08T11:27:00Z</time>
      </trkpt>
      <trkpt lat="44.26485" lon="5.6384">
        <ele>1282.2</ele>
        <time>2021-09-08T11:27:01Z</time>
      </trkpt>
      <trkpt lat="44.26481" lon="5.63829">
        <ele>1281.8</ele>
        <time>2021-09-08T11:27:02Z</time>
      </trkpt>
      <trkpt lat="44.26469" lon="5.63813">
        <ele>1282.4</ele>
        <time>2021-09-08T11:27:04Z</time>
      </trkpt>
      <trkpt lat="44.26473" lon="5.63814">
        <ele>1282.2</ele>
        <time>2021-09-08T11:27:06Z</time>
      </trkpt>
      <trkpt lat="44.26477" lon="5.63817">
        <ele>1280.8</ele>
        <time>2021-09-08T11:27:07Z</time>
      </trkpt>
      <trkpt lat="44.2648" lon="5.6382">
        <ele>1280.5</ele>
        <time>2021-09-08T11:27:09Z</time>
      </trkpt>
      <trkpt lat="44.26481" lon="5.6382">
        <ele>1280.7</ele>
        <time>2021-09-08T11:27:10Z</time>
      </trkpt>
      <trkpt lat="44.26481" lon="5.63821">
        <ele>1279.5</ele>
        <time>2021-09-08T11:27:11Z</time>
      </trkpt>
      <trkpt lat="44.26482" lon="5.63821">
        <ele>1279.7</ele>
        <time>2021-09-08T11:27:13Z</time>
      </trkpt>
      <trkpt lat="44.26482" lon="5.63821">
        <ele>1279.8</ele>
        <time>2021-09-08T11:27:14Z</time>
      </trkpt>
      <trkpt lat="44.26394" lon="5.6309">
        <ele>1131.8</ele>
        <time>2021-09-08T11:29:15Z</time>
      </trkpt>
      <trkpt lat="44.26394" lon="5.63081">
        <ele>1131.6</ele>
        <time>2021-09-08T11:29:16Z</time>
      </trkpt>
      <trkpt lat="44.26392" lon="5.63072">
        <ele>1132.5</ele>
        <time>2021-09-08T11:29:18Z</time>
      </trkpt>
      <trkpt lat="44.2639" lon="5.63063">
        <ele>1132</ele>
        <time>2021-09-08T11:29:19Z</time>
      </trkpt>
      <trkpt lat="44.2639" lon="5.63057">
        <ele>1131.5</ele>
        <time>2021-09-08T11:29:20Z</time>
      </trkpt>
      <trkpt lat="44.2639" lon="5.6305">
        <ele>1131.2</ele>
        <time>2021-09-08T11:29:22Z</time>
      </trkpt>
      <trkpt lat="44.2639" lon="5.63046">
        <ele>1130.9</ele>
        <time>2021-09-08T11:29:23Z</time>
      </trkpt>
      <trkpt lat="44.2639" lon="5.63045">
        <ele>1131.1</ele>
        <time>2021-09-08T11:29:24Z</time>
      </trkpt>
      <trkpt lat="44.26389" lon="5.63034">
        <ele>1131.2</ele>
        <time>2021-09-08T11:29:26Z</time>
      </trkpt>
      <trkpt lat="44.26338" lon="5.6234">
        <ele>1125.6</ele>
        <time>2021-09-08T11:31:28Z</time>
      </trkpt>
      <trkpt lat="44.26336" lon="5.62337">
        <ele>1126.6</ele>
        <time>2021-09-08T11:31:29Z</time>
      </trkpt>
      <trkpt lat="44.26333" lon="5.62332">
        <ele>1127.6</ele>
        <time>2021-09-08T11:31:30Z</time>
      </trkpt>
      <trkpt lat="44.2633" lon="5.62328">
        <ele>1127.7</ele>
        <time>2021-09-08T11:31:31Z</time>
      </trkpt>
      <trkpt lat="44.26328" lon="5.62325">
        <ele>1128.8</ele>
        <time>2021-09-08T11:31:33Z</time>
      </trkpt>
      <trkpt lat="44.26326" lon="5.62321">
        <ele>1129.9</ele>
        <time>2021-09-08T11:31:34Z</time>
      </trkpt>
      <trkpt lat="44.26325" lon="5.62319">
        <ele>1130</ele>
        <time>2021-09-08T11:31:35Z</time>
      </trkpt>
      <trkpt lat="44.26324" lon="5.62316">
        <ele>1131.1</ele>
        <time>2021-09-08T11:31:37Z</time>
      </trkpt>
      <trkpt lat="44.26325" lon="5.62311">
        <ele>1130.4</ele>
        <time>2021-09-08T11:31:38Z</time>
      </trkpt>
      <trkpt lat="44.26324" lon="5.62309">
        <ele>1130.6</ele>
        <time>2021-09-08T11:31:39Z</time>
      </trkpt>
      <trkpt lat="44.26324" lon="5.62306">
        <ele>1131.8</ele>
        <time>2021-09-08T11:31:41Z</time>
      </trkpt>
      <trkpt lat="44.26324" lon="5.62304">
        <ele>1131.9</ele>
        <time>2021-09-08T11:31:42Z</time>
      </trkpt>
      <trkpt lat="44.26323" lon="5.62299">
        <ele>1132.1</ele>
        <time>2021-09-08T11:31:44Z</time>
      </trkpt>
      <trkpt lat="44.26323" lon="5.62298">
        <ele>1132.4</ele>
        <time>2021-09-08T11:31:45Z</time>
      </trkpt>
      <trkpt lat="44.26322" lon="5.62296">
        <ele>1132.5</ele>
        <time>2021-09-08T11:31:46Z</time>
      </trkpt>
      <trkpt lat="44.26321" lon="5.62294">
        <ele>1133.6</ele>
        <time>2021-09-08T11:31:47Z</time>
      </trkpt>
      <trkpt lat="44.26318" lon="5.62292">
        <ele>1133.8</ele>
        <time>2021-09-08T11:31:49Z</time>
      </trkpt>
      <trkpt lat="44.26304" lon="5.62268">
        <ele>1139.2</ele>
        <time>2021-09-08T11:31:56Z</time>
      </trkpt>
      <trkpt lat="44.26298" lon="5.62261">
        <ele>1141.5</ele>
        <time>2021-09-08T11:31:57Z</time>
      </trkpt>
      <trkpt lat="44.26297" lon="5.62257">
        <ele>1142.7</ele>
        <time>2021-09-08T11:31:59Z</time>
      </trkpt>
      <trkpt lat="44.26296" lon="5.62256">
        <ele>1142.9</ele>
        <time>2021-09-08T11:32:00Z</time>
      </trkpt>
      <trkpt lat="44.26296" lon="5.62252">
        <ele>1143.1</ele>
        <time>2021-09-08T11:32:01Z</time>
      </trkpt>
      <trkpt lat="44.26296" lon="5.6225">
        <ele>1143.3</ele>
        <time>2021-09-08T11:32:02Z</time>
      </trkpt>
      <trkpt lat="44.26294" lon="5.62245">
        <ele>1143.6</ele>
        <time>2021-09-08T11:32:04Z</time>
      </trkpt>
      <trkpt lat="44.26292" lon="5.6224">
        <ele>1144.6</ele>
        <time>2021-09-08T11:32:05Z</time>
      </trkpt>
      <trkpt lat="44.26289" lon="5.62234">
        <ele>1145.6</ele>
        <time>2021-09-08T11:32:07Z</time>
      </trkpt>
      <trkpt lat="44.26286" lon="5.62229">
        <ele>1146.6</ele>
        <time>2021-09-08T11:32:08Z</time>
      </trkpt>
      <trkpt lat="44.26285" lon="5.62227">
        <ele>1146.8</ele>
        <time>2021-09-08T11:32:09Z</time>
      </trkpt>
      <trkpt lat="44.26279" lon="5.62219">
        <ele>1148.6</ele>
        <time>2021-09-08T11:32:11Z</time>
      </trkpt>
      <trkpt lat="44.26278" lon="5.62216">
        <ele>1149.6</ele>
        <time>2021-09-08T11:32:13Z</time>
      </trkpt>
      <trkpt lat="44.26277" lon="5.62216">
        <ele>1149.7</ele>
        <time>2021-09-08T11:32:14Z</time>
      </trkpt>
      <trkpt lat="44.26277" lon="5.62214">
        <ele>1149.8</ele>
        <time>2021-09-08T11:32:16Z</time>
      </trkpt>
      <trkpt lat="44.26254" lon="5.62251">
        <ele>1156.2</ele>
        <time>2021-09-08T11:34:01Z</time>
      </trkpt>
      <trkpt lat="44.26259" lon="5.6226">
        <ele>1156</ele>
        <time>2021-09-08T11:34:03Z</time>
      </trkpt>
      <trkpt lat="44.26262" lon="5.62266">
        <ele>1155.4</ele>
        <time>2021-09-08T11:34:05Z</time>
      </trkpt>
      <trkpt lat="44.26265" lon="5.62268">
        <ele>1155.4</ele>
        <time>2021-09-08T11:34:06Z</time>
      </trkpt>
      <trkpt lat="44.26266" lon="5.62269">
        <ele>1155.3</ele>
        <time>2021-09-08T11:34:07Z</time>
      </trkpt>
      <trkpt lat="44.26269" lon="5.62267">
        <ele>1155.3</ele>
        <time>2021-09-08T11:34:08Z</time>
      </trkpt>
      <trkpt lat="44.26269" lon="5.62265">
        <ele>1155.3</ele>
        <time>2021-09-08T11:34:09Z</time>
      </trkpt>
      <trkpt lat="44.26268" lon="5.62258">
        <ele>1155.3</ele>
        <time>2021-09-08T11:34:10Z</time>
      </trkpt>
      <trkpt lat="44.26265" lon="5.62242">
        <ele>1155.1</ele>
        <time>2021-09-08T11:34:12Z</time>
      </trkpt>
      <trkpt lat="44.26264" lon="5.62234">
        <ele>1154.9</ele>
        <time>2021-09-08T11:34:14Z</time>
      </trkpt>
      <trkpt lat="44.26264" lon="5.62226">
        <ele>1154.8</ele>
        <time>2021-09-08T11:34:18Z</time>
      </trkpt>
      <trkpt lat="44.26264" lon="5.62223">
        <ele>1154.8</ele>
        <time>2021-09-08T11:34:19Z</time>
      </trkpt>
      <trkpt lat="44.26262" lon="5.62209">
        <ele>1154.5</ele>
        <time>2021-09-08T11:34:21Z</time>
      </trkpt>
      <trkpt lat="44.26261" lon="5.62204">
        <ele>1154.5</ele>
        <time>2021-09-08T11:34:22Z</time>
      </trkpt>
      <trkpt lat="44.26261" lon="5.62203">
        <ele>1154.4</ele>
        <time>2021-09-08T11:34:23Z</time>
      </trkpt>
      <trkpt lat="44.2626" lon="5.62198">
        <ele>1154.3</ele>
        <time>2021-09-08T11:34:24Z</time>
      </trkpt>
      <trkpt lat="44.2626" lon="5.62195">
        <ele>1154.3</ele>
        <time>2021-09-08T11:34:26Z</time>
      </trkpt>
      <trkpt lat="44.26259" lon="5.62193">
        <ele>1154.2</ele>
        <time>2021-09-08T11:34:27Z</time>
      </trkpt>
      <trkpt lat="44.26259" lon="5.62189">
        <ele>1154.2</ele>
        <time>2021-09-08T11:34:28Z</time>
      </trkpt>
      <trkpt lat="44.26258" lon="5.62186">
        <ele>1154.1</ele>
        <time>2021-09-08T11:34:29Z</time>
      </trkpt>
      <trkpt lat="44.26258" lon="5.62185">
        <ele>1154.1</ele>
        <time>2021-09-08T11:34:30Z</time>
      </trkpt>
      <trkpt lat="44.26257" lon="5.62184">
        <ele>1154.1</ele>
        <time>2021-09-08T11:34:32Z</time>
      </trkpt>
      <trkpt lat="44.26207" lon="5.62195">
        <ele>1157</ele>
        <time>2021-09-08T11:36:00Z</time>
      </trkpt>
      <trkpt lat="44.26204" lon="5.62194">
        <ele>1157.3</ele>
        <time>2021-09-08T11:36:01Z</time>
      </trkpt>
      <trkpt lat="44.26201" lon="5.62194">
        <ele>1157.4</ele>
        <time>2021-09-08T11:36:02Z</time>
      </trkpt>
      <trkpt lat="44.26196" lon="5.62193">
        <ele>1157.8</ele>
        <time>2021-09-08T11:36:04Z</time>
      </trkpt>
      <trkpt lat="44.26193" lon="5.62193">
        <ele>1158</ele>
        <time>2021-09-08T11:36:05Z</time>
      </trkpt>
      <trkpt lat="44.26188" lon="5.62192">
        <ele>1158.2</ele>
        <time>2021-09-08T11:36:07Z</time>
      </trkpt>
      <trkpt lat="44.26187" lon="5.62192">
        <ele>1158.3</ele>
        <time>2021-09-08T11:36:08Z</time>
      </trkpt>
      <trkpt lat="44.26186" lon="5.62192">
        <ele>1158.4</ele>
        <time>2021-09-08T11:36:09Z</time>
      </trkpt>
      <trkpt lat="44.26182" lon="5.62191">
        <ele>1158.6</ele>
        <time>2021-09-08T11:36:10Z</time>
      </trkpt>
      <trkpt lat="44.26179" lon="5.6219">
        <ele>1158.7</ele>
        <time>2021-09-08T11:36:11Z</time>
      </trkpt>
      <trkpt lat="44.26178" lon="5.6219">
        <ele>1158.8</ele>
        <time>2021-09-08T11:36:12Z</time>
      </trkpt>
      <trkpt lat="44.26175" lon="5.62189">
        <ele>1158.9</ele>
        <time>2021-09-08T11:36:14Z</time>
      </trkpt>
      <trkpt lat="44.26174" lon="5.62188">
        <ele>1159</ele>
        <time>2021-09-08T11:36:15Z</time>
      </trkpt>
      <trkpt lat="44.26171" lon="5.62187">
        <ele>1159.1</ele>
        <time>2021-09-08T11:36:16Z</time>
      </trkpt>
      <trkpt lat="44.26166" lon="5.62186">
        <ele>1159.2</ele>
        <time>2021-09-08T11:36:18Z</time>
      </trkpt>
      <trkpt lat="44.26163" lon="5.62186">
        <ele>1159.2</ele>
        <time>2021-09-08T11:36:19Z</time>
      </trkpt>
      <trkpt lat="44.2616" lon="5.62187">
        <ele>1159.3</ele>
        <time>2021-09-08T11:36:21Z</time>
      </trkpt>
      <trkpt lat="44.26156" lon="5.62186">
        <ele>1159.3</ele>
        <time>2021-09-08T11:36:22Z</time>
      </trkpt>
      <trkpt lat="44.26152" lon="5.62186">
        <ele>1159.3</ele>
        <time>2021-09-08T11:36:23Z</time>
      </trkpt>
      <trkpt lat="44.26149" lon="5.62187">
        <ele>1159.4</ele>
        <time>2021-09-08T11:36:24Z</time>
      </trkpt>
      <trkpt lat="44.26145" lon="5.62187">
        <ele>1159.4</ele>
        <time>2021-09-08T11:36:26Z</time>
      </trkpt>
      <trkpt lat="44.26141" lon="5.62187">
        <ele>1159.5</ele>
        <time>2021-09-08T11:36:27Z</time>
      </trkpt>
      <trkpt lat="44.2614" lon="5.62187">
        <ele>1159.5</ele>
        <time>2021-09-08T11:36:28Z</time>
      </trkpt>
      <trkpt lat="44.26139" lon="5.62185">
        <ele>1159.5</ele>
        <time>2021-09-08T11:36:29Z</time>
      </trkpt>
      <trkpt lat="44.26137" lon="5.62183">
        <ele>1159.6</ele>
        <time>2021-09-08T11:36:31Z</time>
      </trkpt>
      <trkpt lat="44.26135" lon="5.62179">
        <ele>1159.6</ele>
        <time>2021-09-08T11:36:32Z</time>
      </trkpt>
      <trkpt lat="44.26132" lon="5.62176">
        <ele>1159.7</ele>
        <time>2021-09-08T11:36:33Z</time>
      </trkpt>
      <trkpt lat="44.2613" lon="5.62173">
        <ele>1159.8</ele>
        <time>2021-09-08T11:36:34Z</time>
      </trkpt>
      <trkpt lat="44.26128" lon="5.62168">
        <ele>1159.9</ele>
        <time>2021-09-08T11:36:36Z</time>
      </trkpt>
      <trkpt lat="44.26127" lon="5.62163">
        <ele>1160.2</ele>
        <time>2021-09-08T11:36:37Z</time>
      </trkpt>
      <trkpt lat="44.26124" lon="5.62157">
        <ele>1160.6</ele>
        <time>2021-09-08T11:36:38Z</time>
      </trkpt>
      <trkpt lat="44.26122" lon="5.62153">
        <ele>1160.9</ele>
        <time>2021-09-08T11:36:39Z</time>
      </trkpt>
      <trkpt lat="44.2612" lon="5.62149">
        <ele>1161.3</ele>
        <time>2021-09-08T11:36:40Z</time>
      </trkpt>
      <trkpt lat="44.2612" lon="5.62147">
        <ele>1161.4</ele>
        <time>2021-09-08T11:36:41Z</time>
      </trkpt>
      <trkpt lat="44.26114" lon="5.62146">
        <ele>1162.2</ele>
        <time>2021-09-08T11:36:43Z</time>
      </trkpt>
      <trkpt lat="44.2611" lon="5.62148">
        <ele>1162.9</ele>
        <time>2021-09-08T11:36:44Z</time>
      </trkpt>
      <trkpt lat="44.26106" lon="5.6215">
        <ele>1163.5</ele>
        <time>2021-09-08T11:36:46Z</time>
      </trkpt>
      <trkpt lat="44.26102" lon="5.62152">
        <ele>1164.2</ele>
        <time>2021-09-08T11:36:47Z</time>
      </trkpt>
      <trkpt lat="44.26098" lon="5.62154">
        <ele>1165</ele>
        <time>2021-09-08T11:36:48Z</time>
      </trkpt>
      <trkpt lat="44.26094" lon="5.62156">
        <ele>1165.7</ele>
        <time>2021-09-08T11:36:49Z</time>
      </trkpt>
      <trkpt lat="44.26089" lon="5.62158">
        <ele>1166.5</ele>
        <time>2021-09-08T11:36:51Z</time>
      </trkpt>
      <trkpt lat="44.26085" lon="5.6216">
        <ele>1167.3</ele>
        <time>2021-09-08T11:36:52Z</time>
      </trkpt>
      <trkpt lat="44.26081" lon="5.62162">
        <ele>1168</ele>
        <time>2021-09-08T11:36:53Z</time>
      </trkpt>
      <trkpt lat="44.26077" lon="5.62164">
        <ele>1168.8</ele>
        <time>2021-09-08T11:39:40Z</time>
      </trkpt>
      <trkpt lat="44.26073" lon="5.62166">
        <ele>1169.5</ele>
        <time>2021-09-08T11:39:42Z</time>
      </trkpt>
      <trkpt lat="44.26069" lon="5.62168">
        <ele>1170.2</ele>
        <time>2021-09-08T11:39:43Z</time>
      </trkpt>
      <trkpt lat="44.26069" lon="5.62174">
        <ele>1170.9</ele>
        <time>2021-09-08T11:39:45Z</time>
      </trkpt>
      <trkpt lat="44.26069" lon="5.62176">
        <ele>1171</ele>
        <time>2021-09-08T11:39:46Z</time>
      </trkpt>
      <trkpt lat="44.26069" lon="5.62177">
        <ele>1171.2</ele>
        <time>2021-09-08T11:39:47Z</time>
      </trkpt>
      <trkpt lat="44.26069" lon="5.62179">
        <ele>1171.3</ele>
        <time>2021-09-08T11:39:49Z</time>
      </trkpt>
      <trkpt lat="44.26068" lon="5.6218">
        <ele>1171.4</ele>
        <time>2021-09-08T11:39:50Z</time>
      </trkpt>
      <trkpt lat="44.26068" lon="5.62181">
        <ele>1171.5</ele>
        <time>2021-09-08T11:39:51Z</time>
      </trkpt>
      <trkpt lat="44.26068" lon="5.62182">
        <ele>1171.6</ele>
        <time>2021-09-08T11:39:52Z</time>
      </trkpt>
      <trkpt lat="44.26068" lon="5.62183">
        <ele>1171.7</ele>
        <time>2021-09-08T11:39:54Z</time>
      </trkpt>
      <trkpt lat="44.26068" lon="5.62184">
        <ele>1171.7</ele>
        <time>2021-09-08T11:39:55Z</time>
      </trkpt>
      <trkpt lat="44.26067" lon="5.62184">
        <ele>1171.8</ele>
        <time>2021-09-08T11:39:57Z</time>
      </trkpt>
      <trkpt lat="44.26064" lon="5.62208">
        <ele>1172.9</ele>
        <time>2021-09-08T11:40:05Z</time>
      </trkpt>
      <trkpt lat="44.26062" lon="5.62233">
        <ele>1172.5</ele>
        <time>2021-09-08T11:40:07Z</time>
      </trkpt>
      <trkpt lat="44.26062" lon="5.62243">
        <ele>1172</ele>
        <time>2021-09-08T11:40:08Z</time>
      </trkpt>
      <trkpt lat="44.26063" lon="5.62263">
        <ele>1171.2</ele>
        <time>2021-09-08T11:40:10Z</time>
      </trkpt>
      <trkpt lat="44.26064" lon="5.62272">
        <ele>1170.8</ele>
        <time>2021-09-08T11:40:11Z</time>
      </trkpt>
      <trkpt lat="44.26063" lon="5.62291">
        <ele>1170.3</ele>
        <time>2021-09-08T11:40:13Z</time>
      </trkpt>
      <trkpt lat="44.26063" lon="5.623">
        <ele>1169.9</ele>
        <time>2021-09-08T11:40:14Z</time>
      </trkpt>
      <trkpt lat="44.26062" lon="5.62308">
        <ele>1169.5</ele>
        <time>2021-09-08T11:40:15Z</time>
      </trkpt>
      <trkpt lat="44.26061" lon="5.62317">
        <ele>1169.1</ele>
        <time>2021-09-08T11:40:16Z</time>
      </trkpt>
      <trkpt lat="44.26059" lon="5.62325">
        <ele>1168.7</ele>
        <time>2021-09-08T11:40:17Z</time>
      </trkpt>
      <trkpt lat="44.26057" lon="5.62333">
        <ele>1168.4</ele>
        <time>2021-09-08T11:40:18Z</time>
      </trkpt>
      <trkpt lat="44.26051" lon="5.62348">
        <ele>1167.4</ele>
        <time>2021-09-08T11:40:20Z</time>
      </trkpt>
      <trkpt lat="44.26048" lon="5.62356">
        <ele>1166.7</ele>
        <time>2021-09-08T11:40:21Z</time>
      </trkpt>
      <trkpt lat="44.26044" lon="5.62365">
        <ele>1165.8</ele>
        <time>2021-09-08T11:40:22Z</time>
      </trkpt>
      <trkpt lat="44.2604" lon="5.62373">
        <ele>1164.9</ele>
        <time>2021-09-08T11:40:23Z</time>
      </trkpt>
      <trkpt lat="44.26031" lon="5.62392">
        <ele>1163.2</ele>
        <time>2021-09-08T11:40:25Z</time>
      </trkpt>
      <trkpt lat="44.26024" lon="5.62409">
        <ele>1161.8</ele>
        <time>2021-09-08T11:40:27Z</time>
      </trkpt>
      <trkpt lat="44.2602" lon="5.62418">
        <ele>1161.3</ele>
        <time>2021-09-08T11:40:28Z</time>
      </trkpt>
      <trkpt lat="44.26016" lon="5.62425">
        <ele>1161</ele>
        <time>2021-09-08T11:40:29Z</time>
      </trkpt>
      <trkpt lat="44.26009" lon="5.62439">
        <ele>1160.2</ele>
        <time>2021-09-08T11:40:31Z</time>
      </trkpt>
      <trkpt lat="44.25999" lon="5.62453">
        <ele>1158.9</ele>
        <time>2021-09-08T11:40:33Z</time>
      </trkpt>
      <trkpt lat="44.25993" lon="5.6246">
        <ele>1157.8</ele>
        <time>2021-09-08T11:40:34Z</time>
      </trkpt>
      <trkpt lat="44.25986" lon="5.62467">
        <ele>1156.5</ele>
        <time>2021-09-08T11:40:35Z</time>
      </trkpt>
      <trkpt lat="44.25972" lon="5.62482">
        <ele>1154.1</ele>
        <time>2021-09-08T11:40:37Z</time>
      </trkpt>
      <trkpt lat="44.25958" lon="5.62499">
        <ele>1152.8</ele>
        <time>2021-09-08T11:40:39Z</time>
      </trkpt>
      <trkpt lat="44.25945" lon="5.62513">
        <ele>1152.4</ele>
        <time>2021-09-08T11:40:41Z</time>
      </trkpt>
      <trkpt lat="44.25939" lon="5.62519">
        <ele>1152.4</ele>
        <time>2021-09-08T11:40:42Z</time>
      </trkpt>
      <trkpt lat="44.25926" lon="5.62529">
        <ele>1152.4</ele>
        <time>2021-09-08T11:40:44Z</time>
      </trkpt>
      <trkpt lat="44.25914" lon="5.62535">
        <ele>1152.5</ele>
        <time>2021-09-08T11:40:46Z</time>
      </trkpt>
      <trkpt lat="44.25903" lon="5.62539">
        <ele>1152.5</ele>
        <time>2021-09-08T11:40:48Z</time>
      </trkpt>
      <trkpt lat="44.25894" lon="5.62542">
        <ele>1152.4</ele>
        <time>2021-09-08T11:40:50Z</time>
      </trkpt>
      <trkpt lat="44.25886" lon="5.62544">
        <ele>1152.1</ele>
        <time>2021-09-08T11:40:52Z</time>
      </trkpt>
      <trkpt lat="44.25877" lon="5.62546">
        <ele>1151.7</ele>
        <time>2021-09-08T11:40:54Z</time>
      </trkpt>
      <trkpt lat="44.25873" lon="5.62549">
        <ele>1151.4</ele>
        <time>2021-09-08T11:40:55Z</time>
      </trkpt>
      <trkpt lat="44.25866" lon="5.62554">
        <ele>1150.7</ele>
        <time>2021-09-08T11:40:57Z</time>
      </trkpt>
      <trkpt lat="44.25863" lon="5.62557">
        <ele>1150.3</ele>
        <time>2021-09-08T11:40:58Z</time>
      </trkpt>
      <trkpt lat="44.2586" lon="5.62559">
        <ele>1149.9</ele>
        <time>2021-09-08T11:40:59Z</time>
      </trkpt>
      <trkpt lat="44.25857" lon="5.62562">
        <ele>1149.5</ele>
        <time>2021-09-08T11:41:00Z</time>
      </trkpt>
      <trkpt lat="44.25852" lon="5.62564">
        <ele>1149</ele>
        <time>2021-09-08T11:41:02Z</time>
      </trkpt>
      <trkpt lat="44.25843" lon="5.62561">
        <ele>1148.7</ele>
        <time>2021-09-08T11:41:03Z</time>
      </trkpt>
      <trkpt lat="44.25838" lon="5.62561">
        <ele>1148.6</ele>
        <time>2021-09-08T11:41:04Z</time>
      </trkpt>
      <trkpt lat="44.25833" lon="5.62561">
        <ele>1148.3</ele>
        <time>2021-09-08T11:41:05Z</time>
      </trkpt>
      <trkpt lat="44.25828" lon="5.62562">
        <ele>1148.1</ele>
        <time>2021-09-08T11:41:06Z</time>
      </trkpt>
      <trkpt lat="44.25816" lon="5.62565">
        <ele>1147.5</ele>
        <time>2021-09-08T11:41:08Z</time>
      </trkpt>
      <trkpt lat="44.25803" lon="5.62569">
        <ele>1146.9</ele>
        <time>2021-09-08T11:41:10Z</time>
      </trkpt>
      <trkpt lat="44.25797" lon="5.6257">
        <ele>1146.7</ele>
        <time>2021-09-08T11:41:11Z</time>
      </trkpt>
      <trkpt lat="44.2579" lon="5.62571">
        <ele>1146.6</ele>
        <time>2021-09-08T11:41:12Z</time>
      </trkpt>
      <trkpt lat="44.25784" lon="5.62573">
        <ele>1146.4</ele>
        <time>2021-09-08T11:41:13Z</time>
      </trkpt>
      <trkpt lat="44.25771" lon="5.62575">
        <ele>1146.2</ele>
        <time>2021-09-08T11:41:15Z</time>
      </trkpt>
      <trkpt lat="44.25764" lon="5.62577">
        <ele>1146.1</ele>
        <time>2021-09-08T11:41:16Z</time>
      </trkpt>
      <trkpt lat="44.25759" lon="5.62578">
        <ele>1146.1</ele>
        <time>2021-09-08T11:41:17Z</time>
      </trkpt>
      <trkpt lat="44.25753" lon="5.62581">
        <ele>1146</ele>
        <time>2021-09-08T11:41:18Z</time>
      </trkpt>
      <trkpt lat="44.25749" lon="5.62583">
        <ele>1145.8</ele>
        <time>2021-09-08T11:41:19Z</time>
      </trkpt>
      <trkpt lat="44.25742" lon="5.62588">
        <ele>1145.6</ele>
        <time>2021-09-08T11:41:21Z</time>
      </trkpt>
      <trkpt lat="44.25734" lon="5.6259">
        <ele>1145.3</ele>
        <time>2021-09-08T11:41:23Z</time>
      </trkpt>
      <trkpt lat="44.25729" lon="5.6259">
        <ele>1145.1</ele>
        <time>2021-09-08T11:41:25Z</time>
      </trkpt>
      <trkpt lat="44.25727" lon="5.62588">
        <ele>1145</ele>
        <time>2021-09-08T11:41:26Z</time>
      </trkpt>
      <trkpt lat="44.25723" lon="5.6259">
        <ele>1144.9</ele>
        <time>2021-09-08T11:41:28Z</time>
      </trkpt>
      <trkpt lat="44.25722" lon="5.62584">
        <ele>1144.7</ele>
        <time>2021-09-08T11:41:29Z</time>
      </trkpt>
      <trkpt lat="44.25719" lon="5.62581">
        <ele>1144.6</ele>
        <time>2021-09-08T11:41:31Z</time>
      </trkpt>
      <trkpt lat="44.25716" lon="5.62582">
        <ele>1144.4</ele>
        <time>2021-09-08T11:41:32Z</time>
      </trkpt>
      <trkpt lat="44.25715" lon="5.62583">
        <ele>1144.4</ele>
        <time>2021-09-08T11:41:33Z</time>
      </trkpt>
      <trkpt lat="44.25715" lon="5.62587">
        <ele>1144.2</ele>
        <time>2021-09-08T11:41:35Z</time>
      </trkpt>
      <trkpt lat="44.25716" lon="5.62591">
        <ele>1144</ele>
        <time>2021-09-08T11:41:36Z</time>
      </trkpt>
      <trkpt lat="44.25722" lon="5.62598">
        <ele>1144.6</ele>
        <time>2021-09-08T11:41:38Z</time>
      </trkpt>
      <trkpt lat="44.25727" lon="5.62602">
        <ele>1144.8</ele>
        <time>2021-09-08T11:41:39Z</time>
      </trkpt>
      <trkpt lat="44.25731" lon="5.62605">
        <ele>1144.9</ele>
        <time>2021-09-08T11:41:40Z</time>
      </trkpt>
      <trkpt lat="44.25737" lon="5.6261">
        <ele>1145.2</ele>
        <time>2021-09-08T11:41:42Z</time>
      </trkpt>
      <trkpt lat="44.25739" lon="5.62611">
        <ele>1145.3</ele>
        <time>2021-09-08T11:41:43Z</time>
      </trkpt>
      <trkpt lat="44.25739" lon="5.62612">
        <ele>1145.3</ele>
        <time>2021-09-08T11:41:45Z</time>
      </trkpt>
      <trkpt lat="44.25739" lon="5.62612">
        <ele>1145.3</ele>
        <time>2021-09-08T11:41:46Z</time>
      </trkpt>
      <trkpt lat="44.25746" lon="5.62613">
        <ele>1145.5</ele>
        <time>2021-09-08T11:41:47Z</time>
      </trkpt>
      <trkpt lat="44.25752" lon="5.62613">
        <ele>1145.7</ele>
        <time>2021-09-08T11:41:48Z</time>
      </trkpt>
      <trkpt lat="44.25758" lon="5.62614">
        <ele>1144.4</ele>
        <time>2021-09-08T11:41:50Z</time>
      </trkpt>
      <trkpt lat="44.25764" lon="5.62615">
        <ele>1143</ele>
        <time>2021-09-08T11:41:51Z</time>
      </trkpt>
      <trkpt lat="44.2577" lon="5.62616">
        <ele>1141.3</ele>
        <time>2021-09-08T11:41:53Z</time>
      </trkpt>
      <trkpt lat="44.25777" lon="5.62617">
        <ele>1140</ele>
        <time>2021-09-08T11:42:57Z</time>
      </trkpt>
      <trkpt lat="44.25783" lon="5.62618">
        <ele>1139.7</ele>
        <time>2021-09-08T11:42:58Z</time>
      </trkpt>
      <trkpt lat="44.2579" lon="5.62622">
        <ele>1139.3</ele>
        <time>2021-09-08T11:42:59Z</time>
      </trkpt>
      <trkpt lat="44.25802" lon="5.62632">
        <ele>1138.7</ele>
        <time>2021-09-08T11:43:01Z</time>
      </trkpt>
      <trkpt lat="44.25813" lon="5.62646">
        <ele>1138.4</ele>
        <time>2021-09-08T11:43:03Z</time>
      </trkpt>
      <trkpt lat="44.25817" lon="5.62655">
        <ele>1138.3</ele>
        <time>2021-09-08T11:43:04Z</time>
      </trkpt>
      <trkpt lat="44.25822" lon="5.62666">
        <ele>1138.1</ele>
        <time>2021-09-08T11:43:05Z</time>
      </trkpt>
      <trkpt lat="44.25826" lon="5.62688">
        <ele>1137.6</ele>
        <time>2021-09-08T11:43:07Z</time>
      </trkpt>
      <trkpt lat="44.2583" lon="5.6271">
        <ele>1137</ele>
        <time>2021-09-08T11:43:09Z</time>
      </trkpt>
      <trkpt lat="44.25832" lon="5.62722">
        <ele>1136.6</ele>
        <time>2021-09-08T11:43:10Z</time>
      </trkpt>
      <trkpt lat="44.25833" lon="5.62736">
        <ele>1136.2</ele>
        <time>2021-09-08T11:43:11Z</time>
      </trkpt>
      <trkpt lat="44.25836" lon="5.6276">
        <ele>1135.7</ele>
        <time>2021-09-08T11:43:13Z</time>
      </trkpt>
      <trkpt lat="44.25839" lon="5.6277">
        <ele>1135.5</ele>
        <time>2021-09-08T11:43:14Z</time>
      </trkpt>
      <trkpt lat="44.25841" lon="5.62793">
        <ele>1134.9</ele>
        <time>2021-09-08T11:43:16Z</time>
      </trkpt>
      <trkpt lat="44.25842" lon="5.62817">
        <ele>1134.2</ele>
        <time>2021-09-08T11:43:18Z</time>
      </trkpt>
      <trkpt lat="44.25845" lon="5.62841">
        <ele>1133.5</ele>
        <time>2021-09-08T11:43:20Z</time>
      </trkpt>
      <trkpt lat="44.25846" lon="5.62855">
        <ele>1133.2</ele>
        <time>2021-09-08T11:43:21Z</time>
      </trkpt>
      <trkpt lat="44.25848" lon="5.62884">
        <ele>1132.6</ele>
        <time>2021-09-08T11:43:23Z</time>
      </trkpt>
      <trkpt lat="44.25849" lon="5.62912">
        <ele>1132.3</ele>
        <time>2021-09-08T11:43:25Z</time>
      </trkpt>
      <trkpt lat="44.2585" lon="5.62925">
        <ele>1132.1</ele>
        <time>2021-09-08T11:43:26Z</time>
      </trkpt>
      <trkpt lat="44.25849" lon="5.62946">
        <ele>1131</ele>
        <time>2021-09-08T11:43:28Z</time>
      </trkpt>
      <trkpt lat="44.25849" lon="5.62965">
        <ele>1128.9</ele>
        <time>2021-09-08T11:43:30Z</time>
      </trkpt>
      <trkpt lat="44.25848" lon="5.62986">
        <ele>1126.7</ele>
        <time>2021-09-08T11:43:32Z</time>
      </trkpt>
      <trkpt lat="44.25849" lon="5.62996">
        <ele>1125.7</ele>
        <time>2021-09-08T11:43:33Z</time>
      </trkpt>
      <trkpt lat="44.25847" lon="5.63021">
        <ele>1123.2</ele>
        <time>2021-09-08T11:43:35Z</time>
      </trkpt>
      <trkpt lat="44.25846" lon="5.63033">
        <ele>1121.9</ele>
        <time>2021-09-08T11:43:36Z</time>
      </trkpt>
      <trkpt lat="44.25842" lon="5.63056">
        <ele>1119</ele>
        <time>2021-09-08T11:43:38Z</time>
      </trkpt>
      <trkpt lat="44.25841" lon="5.63067">
        <ele>1117.9</ele>
        <time>2021-09-08T11:43:39Z</time>
      </trkpt>
      <trkpt lat="44.25839" lon="5.63088">
        <ele>1115.4</ele>
        <time>2021-09-08T11:43:41Z</time>
      </trkpt>
      <trkpt lat="44.25838" lon="5.63106">
        <ele>1113.4</ele>
        <time>2021-09-08T11:43:43Z</time>
      </trkpt>
      <trkpt lat="44.25837" lon="5.63121">
        <ele>1112</ele>
        <time>2021-09-08T11:43:45Z</time>
      </trkpt>
      <trkpt lat="44.25838" lon="5.63133">
        <ele>1110.9</ele>
        <time>2021-09-08T11:43:47Z</time>
      </trkpt>
      <trkpt lat="44.2584" lon="5.63148">
        <ele>1109.6</ele>
        <time>2021-09-08T11:43:49Z</time>
      </trkpt>
      <trkpt lat="44.25841" lon="5.63156">
        <ele>1109</ele>
        <time>2021-09-08T11:43:50Z</time>
      </trkpt>
      <trkpt lat="44.25841" lon="5.63164">
        <ele>1108.5</ele>
        <time>2021-09-08T11:43:51Z</time>
      </trkpt>
      <trkpt lat="44.25841" lon="5.63171">
        <ele>1107.8</ele>
        <time>2021-09-08T11:43:52Z</time>
      </trkpt>
      <trkpt lat="44.25841" lon="5.63186">
        <ele>1106.4</ele>
        <time>2021-09-08T11:43:54Z</time>
      </trkpt>
      <trkpt lat="44.2584" lon="5.63193">
        <ele>1105.7</ele>
        <time>2021-09-08T11:43:55Z</time>
      </trkpt>
      <trkpt lat="44.2584" lon="5.63202">
        <ele>1104.8</ele>
        <time>2021-09-08T11:43:57Z</time>
      </trkpt>
      <trkpt lat="44.25842" lon="5.63209">
        <ele>1104.2</ele>
        <time>2021-09-08T11:43:59Z</time>
      </trkpt>
      <trkpt lat="44.25844" lon="5.63219">
        <ele>1103.1</ele>
        <time>2021-09-08T11:44:01Z</time>
      </trkpt>
      <trkpt lat="44.25845" lon="5.63235">
        <ele>1101.5</ele>
        <time>2021-09-08T11:44:03Z</time>
      </trkpt>
      <trkpt lat="44.25845" lon="5.63245">
        <ele>1100.5</ele>
        <time>2021-09-08T11:44:04Z</time>
      </trkpt>
      <trkpt lat="44.25848" lon="5.63268">
        <ele>1099.6</ele>
        <time>2021-09-08T11:44:06Z</time>
      </trkpt>
      <trkpt lat="44.25849" lon="5.6328">
        <ele>1100.1</ele>
        <time>2021-09-08T11:44:07Z</time>
      </trkpt>
      <trkpt lat="44.25848" lon="5.63291">
        <ele>1100.6</ele>
        <time>2021-09-08T11:44:08Z</time>
      </trkpt>
      <trkpt lat="44.25848" lon="5.63302">
        <ele>1101.1</ele>
        <time>2021-09-08T11:44:09Z</time>
      </trkpt>
      <trkpt lat="44.25847" lon="5.6332">
        <ele>1101.9</ele>
        <time>2021-09-08T11:44:11Z</time>
      </trkpt>
      <trkpt lat="44.25847" lon="5.6333">
        <ele>1102.3</ele>
        <time>2021-09-08T11:44:12Z</time>
      </trkpt>
      <trkpt lat="44.25845" lon="5.63342">
        <ele>1102.8</ele>
        <time>2021-09-08T11:44:13Z</time>
      </trkpt>
      <trkpt lat="44.25844" lon="5.63368">
        <ele>1103.9</ele>
        <time>2021-09-08T11:44:15Z</time>
      </trkpt>
      <trkpt lat="44.25844" lon="5.63381">
        <ele>1104.5</ele>
        <time>2021-09-08T11:44:16Z</time>
      </trkpt>
      <trkpt lat="44.25844" lon="5.63394">
        <ele>1105.1</ele>
        <time>2021-09-08T11:44:17Z</time>
      </trkpt>
      <trkpt lat="44.25849" lon="5.6341">
        <ele>1105.8</ele>
        <time>2021-09-08T11:44:19Z</time>
      </trkpt>
      <trkpt lat="44.25852" lon="5.63414">
        <ele>1106</ele>
        <time>2021-09-08T11:44:20Z</time>
      </trkpt>
      <trkpt lat="44.25853" lon="5.63415">
        <ele>1105.9</ele>
        <time>2021-09-08T11:44:22Z</time>
      </trkpt>
      <trkpt lat="44.25853" lon="5.63413">
        <ele>1105.8</ele>
        <time>2021-09-08T11:44:23Z</time>
      </trkpt>
      <trkpt lat="44.25855" lon="5.63408">
        <ele>1105.6</ele>
        <time>2021-09-08T11:44:25Z</time>
      </trkpt>
      <trkpt lat="44.25855" lon="5.63404">
        <ele>1105.4</ele>
        <time>2021-09-08T11:44:26Z</time>
      </trkpt>
      <trkpt lat="44.25855" lon="5.63398">
        <ele>1105.1</ele>
        <time>2021-09-08T11:44:28Z</time>
      </trkpt>
      <trkpt lat="44.25855" lon="5.63395">
        <ele>1105</ele>
        <time>2021-09-08T11:44:29Z</time>
      </trkpt>
      <trkpt lat="44.25855" lon="5.63394">
        <ele>1105</ele>
        <time>2021-09-08T11:44:30Z</time>
      </trkpt>
      <trkpt lat="44.25855" lon="5.63394">
        <ele>1105</ele>
        <time>2021-09-08T11:44:32Z</time>
      </trkpt>
      <trkpt lat="44.25823" lon="5.63288">
        <ele>1099.8</ele>
        <time>2021-09-08T11:45:13Z</time>
      </trkpt>
      <trkpt lat="44.25818" lon="5.63286">
        <ele>1098.1</ele>
        <time>2021-09-08T11:45:14Z</time>
      </trkpt>
      <trkpt lat="44.25812" lon="5.63285">
        <ele>1095</ele>
        <time>2021-09-08T11:45:15Z</time>
      </trkpt>
      <trkpt lat="44.25807" lon="5.63285">
        <ele>1091.4</ele>
        <time>2021-09-08T11:45:17Z</time>
      </trkpt>
      <trkpt lat="44.25797" lon="5.633">
        <ele>1085.8</ele>
        <time>2021-09-08T11:45:18Z</time>
      </trkpt>
      <trkpt lat="44.25795" lon="5.6331">
        <ele>1083.9</ele>
        <time>2021-09-08T11:45:19Z</time>
      </trkpt>
      <trkpt lat="44.25794" lon="5.63327">
        <ele>1083.1</ele>
        <time>2021-09-08T11:45:21Z</time>
      </trkpt>
      <trkpt lat="44.25796" lon="5.63335">
        <ele>1084</ele>
        <time>2021-09-08T11:45:22Z</time>
      </trkpt>
      <trkpt lat="44.25798" lon="5.63343">
        <ele>1083.5</ele>
        <time>2021-09-08T11:45:23Z</time>
      </trkpt>
      <trkpt lat="44.25804" lon="5.63359">
        <ele>1085.7</ele>
        <time>2021-09-08T11:45:25Z</time>
      </trkpt>
      <trkpt lat="44.25808" lon="5.63366">
        <ele>1086.9</ele>
        <time>2021-09-08T11:45:26Z</time>
      </trkpt>
      <trkpt lat="44.25812" lon="5.63372">
        <ele>1089.6</ele>
        <time>2021-09-08T11:45:27Z</time>
      </trkpt>
      <trkpt lat="44.25816" lon="5.63379">
        <ele>1090.8</ele>
        <time>2021-09-08T11:45:28Z</time>
      </trkpt>
      <trkpt lat="44.25819" lon="5.63387">
        <ele>1091.8</ele>
        <time>2021-09-08T11:45:29Z</time>
      </trkpt>
      <trkpt lat="44.25823" lon="5.63404">
        <ele>1091.9</ele>
        <time>2021-09-08T11:45:31Z</time>
      </trkpt>
      <trkpt lat="44.25824" lon="5.63423">
        <ele>1091.7</ele>
        <time>2021-09-08T11:45:33Z</time>
      </trkpt>
      <trkpt lat="44.25821" lon="5.63445">
        <ele>1088.6</ele>
        <time>2021-09-08T11:45:35Z</time>
      </trkpt>
      <trkpt lat="44.25816" lon="5.63468">
        <ele>1083.9</ele>
        <time>2021-09-08T11:45:37Z</time>
      </trkpt>
      <trkpt lat="44.25816" lon="5.63479">
        <ele>1082.5</ele>
        <time>2021-09-08T11:45:38Z</time>
      </trkpt>
      <trkpt lat="44.25817" lon="5.63489">
        <ele>1081.5</ele>
        <time>2021-09-08T11:45:39Z</time>
      </trkpt>
      <trkpt lat="44.25816" lon="5.63508">
        <ele>1079.7</ele>
        <time>2021-09-08T11:45:41Z</time>
      </trkpt>
      <trkpt lat="44.25816" lon="5.63514">
        <ele>1079</ele>
        <time>2021-09-08T11:45:42Z</time>
      </trkpt>
      <trkpt lat="44.25812" lon="5.63512">
        <ele>1077.5</ele>
        <time>2021-09-08T11:45:44Z</time>
      </trkpt>
      <trkpt lat="44.25811" lon="5.63509">
        <ele>1077.3</ele>
        <time>2021-09-08T11:45:45Z</time>
      </trkpt>
      <trkpt lat="44.25812" lon="5.63501">
        <ele>1077.8</ele>
        <time>2021-09-08T11:45:47Z</time>
      </trkpt>
      <trkpt lat="44.25813" lon="5.63486">
        <ele>1079.2</ele>
        <time>2021-09-08T11:45:49Z</time>
      </trkpt>
      <trkpt lat="44.25812" lon="5.63474">
        <ele>1080.3</ele>
        <time>2021-09-08T11:45:50Z</time>
      </trkpt>
      <trkpt lat="44.2581" lon="5.6347">
        <ele>1078.9</ele>
        <time>2021-09-08T11:45:51Z</time>
      </trkpt>
      <trkpt lat="44.25807" lon="5.63463">
        <ele>1077.5</ele>
        <time>2021-09-08T11:45:53Z</time>
      </trkpt>
      <trkpt lat="44.25802" lon="5.63458">
        <ele>1076.1</ele>
        <time>2021-09-08T11:45:54Z</time>
      </trkpt>
      <trkpt lat="44.25799" lon="5.63459">
        <ele>1074.4</ele>
        <time>2021-09-08T11:45:55Z</time>
      </trkpt>
      <trkpt lat="44.25795" lon="5.63461">
        <ele>1070.9</ele>
        <time>2021-09-08T11:45:56Z</time>
      </trkpt>
      <trkpt lat="44.25792" lon="5.63464">
        <ele>1069.3</ele>
        <time>2021-09-08T11:45:58Z</time>
      </trkpt>
      <trkpt lat="44.25789" lon="5.6347">
        <ele>1067.4</ele>
        <time>2021-09-08T11:45:59Z</time>
      </trkpt>
      <trkpt lat="44.25788" lon="5.63477">
        <ele>1066.5</ele>
        <time>2021-09-08T11:46:00Z</time>
      </trkpt>
      <trkpt lat="44.25786" lon="5.63492">
        <ele>1063.2</ele>
        <time>2021-09-08T11:46:02Z</time>
      </trkpt>
      <trkpt lat="44.25786" lon="5.63504">
        <ele>1063.3</ele>
        <time>2021-09-08T11:46:04Z</time>
      </trkpt>
      <trkpt lat="44.25787" lon="5.63509">
        <ele>1062.8</ele>
        <time>2021-09-08T11:46:05Z</time>
      </trkpt>
      <trkpt lat="44.25788" lon="5.63513">
        <ele>1062.2</ele>
        <time>2021-09-08T11:46:06Z</time>
      </trkpt>
      <trkpt lat="44.25789" lon="5.63524">
        <ele>1061.3</ele>
        <time>2021-09-08T11:46:08Z</time>
      </trkpt>
      <trkpt lat="44.2579" lon="5.63533">
        <ele>1061.7</ele>
        <time>2021-09-08T11:46:10Z</time>
      </trkpt>
      <trkpt lat="44.25792" lon="5.63544">
        <ele>1060.2</ele>
        <time>2021-09-08T11:46:12Z</time>
      </trkpt>
      <trkpt lat="44.25791" lon="5.63556">
        <ele>1058.7</ele>
        <time>2021-09-08T11:46:14Z</time>
      </trkpt>
      <trkpt lat="44.2579" lon="5.6357">
        <ele>1057.1</ele>
        <time>2021-09-08T11:46:16Z</time>
      </trkpt>
      <trkpt lat="44.2579" lon="5.63574">
        <ele>1056.4</ele>
        <time>2021-09-08T11:46:17Z</time>
      </trkpt>
      <trkpt lat="44.25789" lon="5.63581">
        <ele>1054</ele>
        <time>2021-09-08T11:46:18Z</time>
      </trkpt>
      <trkpt lat="44.25789" lon="5.63593">
        <ele>1052</ele>
        <time>2021-09-08T11:46:20Z</time>
      </trkpt>
      <trkpt lat="44.25789" lon="5.63605">
        <ele>1049.8</ele>
        <time>2021-09-08T11:46:22Z</time>
      </trkpt>
      <trkpt lat="44.25787" lon="5.6361">
        <ele>1049.1</ele>
        <time>2021-09-08T11:46:23Z</time>
      </trkpt>
      <trkpt lat="44.25786" lon="5.63612">
        <ele>1046.4</ele>
        <time>2021-09-08T11:46:24Z</time>
      </trkpt>
      <trkpt lat="44.25785" lon="5.63613">
        <ele>1046.3</ele>
        <time>2021-09-08T11:46:25Z</time>
      </trkpt>
      <trkpt lat="44.25782" lon="5.6361">
        <ele>1044.9</ele>
        <time>2021-09-08T11:46:27Z</time>
      </trkpt>
      <trkpt lat="44.25781" lon="5.63609">
        <ele>1044.7</ele>
        <time>2021-09-08T11:46:28Z</time>
      </trkpt>
      <trkpt lat="44.25779" lon="5.63603">
        <ele>1043.2</ele>
        <time>2021-09-08T11:46:30Z</time>
      </trkpt>
      <trkpt lat="44.25779" lon="5.63601">
        <ele>1043.6</ele>
        <time>2021-09-08T11:46:31Z</time>
      </trkpt>
      <trkpt lat="44.25778" lon="5.636">
        <ele>1043.4</ele>
        <time>2021-09-08T11:46:32Z</time>
      </trkpt>
      <trkpt lat="44.25775" lon="5.63596">
        <ele>1042.1</ele>
        <time>2021-09-08T11:46:34Z</time>
      </trkpt>
      <trkpt lat="44.25773" lon="5.63592">
        <ele>1040.5</ele>
        <time>2021-09-08T11:46:35Z</time>
      </trkpt>
      <trkpt lat="44.25772" lon="5.63591">
        <ele>1040.3</ele>
        <time>2021-09-08T11:46:36Z</time>
      </trkpt>
      <trkpt lat="44.2577" lon="5.63587">
        <ele>1038.8</ele>
        <time>2021-09-08T11:46:37Z</time>
      </trkpt>
      <trkpt lat="44.25765" lon="5.63579">
        <ele>1038.2</ele>
        <time>2021-09-08T11:46:39Z</time>
      </trkpt>
      <trkpt lat="44.25762" lon="5.63573">
        <ele>1037.1</ele>
        <time>2021-09-08T11:46:40Z</time>
      </trkpt>
      <trkpt lat="44.25759" lon="5.63564">
        <ele>1037.1</ele>
        <time>2021-09-08T11:46:42Z</time>
      </trkpt>
      <trkpt lat="44.25758" lon="5.6356">
        <ele>1035.4</ele>
        <time>2021-09-08T11:46:43Z</time>
      </trkpt>
      <trkpt lat="44.25754" lon="5.63551">
        <ele>1035.2</ele>
        <time>2021-09-08T11:46:45Z</time>
      </trkpt>
      <trkpt lat="44.25749" lon="5.6354">
        <ele>1032.5</ele>
        <time>2021-09-08T11:46:47Z</time>
      </trkpt>
      <trkpt lat="44.25746" lon="5.63535">
        <ele>1031.1</ele>
        <time>2021-09-08T11:46:48Z</time>
      </trkpt>
      <trkpt lat="44.25744" lon="5.63527">
        <ele>1032.1</ele>
        <time>2021-09-08T11:46:50Z</time>
      </trkpt>
      <trkpt lat="44.25741" lon="5.63519">
        <ele>1031.3</ele>
        <time>2021-09-08T11:46:52Z</time>
      </trkpt>
      <trkpt lat="44.2574" lon="5.63515">
        <ele>1030</ele>
        <time>2021-09-08T11:46:53Z</time>
      </trkpt>
      <trkpt lat="44.25734" lon="5.63502">
        <ele>1028.1</ele>
        <time>2021-09-08T11:46:55Z</time>
      </trkpt>
      <trkpt lat="44.25727" lon="5.63492">
        <ele>1025.5</ele>
        <time>2021-09-08T11:46:57Z</time>
      </trkpt>
      <trkpt lat="44.25723" lon="5.63485">
        <ele>1024.7</ele>
        <time>2021-09-08T11:46:59Z</time>
      </trkpt>
      <trkpt lat="44.2572" lon="5.63481">
        <ele>1023.3</ele>
        <time>2021-09-08T11:47:00Z</time>
      </trkpt>
      <trkpt lat="44.25717" lon="5.63476">
        <ele>1021.9</ele>
        <time>2021-09-08T11:47:01Z</time>
      </trkpt>
      <trkpt lat="44.25712" lon="5.63467">
        <ele>1019.6</ele>
        <time>2021-09-08T11:47:03Z</time>
      </trkpt>
      <trkpt lat="44.25708" lon="5.63457">
        <ele>1019.1</ele>
        <time>2021-09-08T11:47:05Z</time>
      </trkpt>
      <trkpt lat="44.25707" lon="5.63453">
        <ele>1019.4</ele>
        <time>2021-09-08T11:47:06Z</time>
      </trkpt>
      <trkpt lat="44.25704" lon="5.63443">
        <ele>1018.5</ele>
        <time>2021-09-08T11:47:08Z</time>
      </trkpt>
      <trkpt lat="44.25702" lon="5.63431">
        <ele>1017.5</ele>
        <time>2021-09-08T11:47:10Z</time>
      </trkpt>
      <trkpt lat="44.257" lon="5.63418">
        <ele>1017.2</ele>
        <time>2021-09-08T11:47:12Z</time>
      </trkpt>
      <trkpt lat="44.25699" lon="5.63406">
        <ele>1017.7</ele>
        <time>2021-09-08T11:47:14Z</time>
      </trkpt>
      <trkpt lat="44.25695" lon="5.63398">
        <ele>1016.4</ele>
        <time>2021-09-08T11:47:16Z</time>
      </trkpt>
      <trkpt lat="44.25688" lon="5.63393">
        <ele>1011.1</ele>
        <time>2021-09-08T11:47:18Z</time>
      </trkpt>
      <trkpt lat="44.25683" lon="5.63391">
        <ele>1009.5</ele>
        <time>2021-09-08T11:47:19Z</time>
      </trkpt>
      <trkpt lat="44.25678" lon="5.6339">
        <ele>1005.9</ele>
        <time>2021-09-08T11:47:20Z</time>
      </trkpt>
      <trkpt lat="44.25673" lon="5.6339">
        <ele>1004</ele>
        <time>2021-09-08T11:47:21Z</time>
      </trkpt>
      <trkpt lat="44.25666" lon="5.63392">
        <ele>998.1</ele>
        <time>2021-09-08T11:47:23Z</time>
      </trkpt>
      <trkpt lat="44.25664" lon="5.63396">
        <ele>997.8</ele>
        <time>2021-09-08T11:47:24Z</time>
      </trkpt>
      <trkpt lat="44.25664" lon="5.63397">
        <ele>997.6</ele>
        <time>2021-09-08T11:47:25Z</time>
      </trkpt>
      <trkpt lat="44.25663" lon="5.63404">
        <ele>995.1</ele>
        <time>2021-09-08T11:47:27Z</time>
      </trkpt>
      <trkpt lat="44.25663" lon="5.6341">
        <ele>994.6</ele>
        <time>2021-09-08T11:47:28Z</time>
      </trkpt>
      <trkpt lat="44.25662" lon="5.63412">
        <ele>994.2</ele>
        <time>2021-09-08T11:47:29Z</time>
      </trkpt>
      <trkpt lat="44.25662" lon="5.63417">
        <ele>993.7</ele>
        <time>2021-09-08T11:47:30Z</time>
      </trkpt>
      <trkpt lat="44.25663" lon="5.63425">
        <ele>992.8</ele>
        <time>2021-09-08T11:47:32Z</time>
      </trkpt>
      <trkpt lat="44.25664" lon="5.6343">
        <ele>994.2</ele>
        <time>2021-09-08T11:47:33Z</time>
      </trkpt>
      <trkpt lat="44.25668" lon="5.63437">
        <ele>995.1</ele>
        <time>2021-09-08T11:47:35Z</time>
      </trkpt>
      <trkpt lat="44.2567" lon="5.63444">
        <ele>996.3</ele>
        <time>2021-09-08T11:47:36Z</time>
      </trkpt>
      <trkpt lat="44.25673" lon="5.6345">
        <ele>996.9</ele>
        <time>2021-09-08T11:47:37Z</time>
      </trkpt>
      <trkpt lat="44.25676" lon="5.63456">
        <ele>997.8</ele>
        <time>2021-09-08T11:47:38Z</time>
      </trkpt>
      <trkpt lat="44.25681" lon="5.63467">
        <ele>997.9</ele>
        <time>2021-09-08T11:47:40Z</time>
      </trkpt>
      <trkpt lat="44.25682" lon="5.63482">
        <ele>998</ele>
        <time>2021-09-08T11:47:41Z</time>
      </trkpt>
      <trkpt lat="44.25684" lon="5.63494">
        <ele>996.5</ele>
        <time>2021-09-08T11:47:42Z</time>
      </trkpt>
      <trkpt lat="44.25688" lon="5.63515">
        <ele>995.7</ele>
        <time>2021-09-08T11:47:44Z</time>
      </trkpt>
      <trkpt lat="44.2569" lon="5.63525">
        <ele>996.1</ele>
        <time>2021-09-08T11:47:45Z</time>
      </trkpt>
      <trkpt lat="44.25691" lon="5.63536">
        <ele>995.8</ele>
        <time>2021-09-08T11:47:46Z</time>
      </trkpt>
      <trkpt lat="44.25693" lon="5.63556">
        <ele>994.3</ele>
        <time>2021-09-08T11:47:48Z</time>
      </trkpt>
      <trkpt lat="44.25693" lon="5.63565">
        <ele>993.7</ele>
        <time>2021-09-08T11:47:49Z</time>
      </trkpt>
      <trkpt lat="44.25694" lon="5.63574">
        <ele>993.1</ele>
        <time>2021-09-08T11:47:50Z</time>
      </trkpt>
      <trkpt lat="44.25696" lon="5.63581">
        <ele>992.6</ele>
        <time>2021-09-08T11:47:51Z</time>
      </trkpt>
      <trkpt lat="44.257" lon="5.63594">
        <ele>991.8</ele>
        <time>2021-09-08T11:47:53Z</time>
      </trkpt>
      <trkpt lat="44.25705" lon="5.6361">
        <ele>990.7</ele>
        <time>2021-09-08T11:47:55Z</time>
      </trkpt>
      <trkpt lat="44.25708" lon="5.63626">
        <ele>989.9</ele>
        <time>2021-09-08T11:47:57Z</time>
      </trkpt>
      <trkpt lat="44.25713" lon="5.6364">
        <ele>989.3</ele>
        <time>2021-09-08T11:47:59Z</time>
      </trkpt>
      <trkpt lat="44.25715" lon="5.63647">
        <ele>989</ele>
        <time>2021-09-08T11:48:00Z</time>
      </trkpt>
      <trkpt lat="44.25717" lon="5.63656">
        <ele>988.6</ele>
        <time>2021-09-08T11:48:02Z</time>
      </trkpt>
      <trkpt lat="44.25718" lon="5.63659">
        <ele>988.3</ele>
        <time>2021-09-08T11:48:03Z</time>
      </trkpt>
      <trkpt lat="44.25719" lon="5.6366">
        <ele>988.2</ele>
        <time>2021-09-08T11:48:04Z</time>
      </trkpt>
      <trkpt lat="44.2572" lon="5.63664">
        <ele>987.9</ele>
        <time>2021-09-08T11:48:06Z</time>
      </trkpt>
      <trkpt lat="44.25722" lon="5.63666">
        <ele>987.8</ele>
        <time>2021-09-08T11:48:07Z</time>
      </trkpt>
      <trkpt lat="44.25723" lon="5.63668">
        <ele>987.6</ele>
        <time>2021-09-08T11:48:08Z</time>
      </trkpt>
      <trkpt lat="44.25724" lon="5.63669">
        <ele>987.4</ele>
        <time>2021-09-08T11:48:10Z</time>
      </trkpt>
      <trkpt lat="44.25725" lon="5.63671">
        <ele>987.3</ele>
        <time>2021-09-08T11:48:12Z</time>
      </trkpt>
      <trkpt lat="44.25727" lon="5.63673">
        <ele>987.1</ele>
        <time>2021-09-08T11:48:13Z</time>
      </trkpt>
      <trkpt lat="44.25728" lon="5.63675">
        <ele>986.9</ele>
        <time>2021-09-08T11:48:14Z</time>
      </trkpt>
      <trkpt lat="44.25729" lon="5.63677">
        <ele>986.8</ele>
        <time>2021-09-08T11:48:46Z</time>
      </trkpt>
      <trkpt lat="44.2573" lon="5.63679">
        <ele>986.6</ele>
        <time>2021-09-08T11:48:47Z</time>
      </trkpt>
      <trkpt lat="44.25734" lon="5.63698">
        <ele>985.1</ele>
        <time>2021-09-08T11:48:48Z</time>
      </trkpt>
      <trkpt lat="44.25739" lon="5.63713">
        <ele>983.7</ele>
        <time>2021-09-08T11:48:50Z</time>
      </trkpt>
      <trkpt lat="44.25742" lon="5.63718">
        <ele>983.1</ele>
        <time>2021-09-08T11:48:51Z</time>
      </trkpt>
      <trkpt lat="44.25745" lon="5.63724">
        <ele>982.6</ele>
        <time>2021-09-08T11:48:52Z</time>
      </trkpt>
      <trkpt lat="44.2575" lon="5.63736">
        <ele>981.4</ele>
        <time>2021-09-08T11:48:54Z</time>
      </trkpt>
      <trkpt lat="44.25753" lon="5.63743">
        <ele>980.7</ele>
        <time>2021-09-08T11:48:55Z</time>
      </trkpt>
      <trkpt lat="44.25755" lon="5.63758">
        <ele>979.3</ele>
        <time>2021-09-08T11:48:57Z</time>
      </trkpt>
      <trkpt lat="44.25757" lon="5.63766">
        <ele>978.5</ele>
        <time>2021-09-08T11:48:58Z</time>
      </trkpt>
      <trkpt lat="44.25759" lon="5.63774">
        <ele>977.9</ele>
        <time>2021-09-08T11:48:59Z</time>
      </trkpt>
      <trkpt lat="44.2576" lon="5.63781">
        <ele>977.5</ele>
        <time>2021-09-08T11:49:00Z</time>
      </trkpt>
      <trkpt lat="44.25762" lon="5.63787">
        <ele>977.1</ele>
        <time>2021-09-08T11:49:01Z</time>
      </trkpt>
      <trkpt lat="44.25763" lon="5.63793">
        <ele>976.9</ele>
        <time>2021-09-08T11:49:02Z</time>
      </trkpt>
      <trkpt lat="44.25765" lon="5.638">
        <ele>976.6</ele>
        <time>2021-09-08T11:49:03Z</time>
      </trkpt>
      <trkpt lat="44.25768" lon="5.63812">
        <ele>976.3</ele>
        <time>2021-09-08T11:49:05Z</time>
      </trkpt>
      <trkpt lat="44.25769" lon="5.63819">
        <ele>976.1</ele>
        <time>2021-09-08T11:49:06Z</time>
      </trkpt>
      <trkpt lat="44.2577" lon="5.63834">
        <ele>975.8</ele>
        <time>2021-09-08T11:49:08Z</time>
      </trkpt>
      <trkpt lat="44.2577" lon="5.63842">
        <ele>975.6</ele>
        <time>2021-09-08T11:49:09Z</time>
      </trkpt>
      <trkpt lat="44.25771" lon="5.63858">
        <ele>975.2</ele>
        <time>2021-09-08T11:49:11Z</time>
      </trkpt>
      <trkpt lat="44.25772" lon="5.63871">
        <ele>974.9</ele>
        <time>2021-09-08T11:49:13Z</time>
      </trkpt>
      <trkpt lat="44.25772" lon="5.63885">
        <ele>974.6</ele>
        <time>2021-09-08T11:49:15Z</time>
      </trkpt>
      <trkpt lat="44.25772" lon="5.63894">
        <ele>974.4</ele>
        <time>2021-09-08T11:49:16Z</time>
      </trkpt>
      <trkpt lat="44.25772" lon="5.63907">
        <ele>974.3</ele>
        <time>2021-09-08T11:49:18Z</time>
      </trkpt>
      <trkpt lat="44.25773" lon="5.63912">
        <ele>974.2</ele>
        <time>2021-09-08T11:49:19Z</time>
      </trkpt>
      <trkpt lat="44.25774" lon="5.63917">
        <ele>974.2</ele>
        <time>2021-09-08T11:49:20Z</time>
      </trkpt>
      <trkpt lat="44.25775" lon="5.63925">
        <ele>973.9</ele>
        <time>2021-09-08T11:49:22Z</time>
      </trkpt>
      <trkpt lat="44.25775" lon="5.63929">
        <ele>973.7</ele>
        <time>2021-09-08T11:49:23Z</time>
      </trkpt>
      <trkpt lat="44.25775" lon="5.63936">
        <ele>973.3</ele>
        <time>2021-09-08T11:49:24Z</time>
      </trkpt>
      <trkpt lat="44.25773" lon="5.63943">
        <ele>972.6</ele>
        <time>2021-09-08T11:49:26Z</time>
      </trkpt>
      <trkpt lat="44.25775" lon="5.63951">
        <ele>972</ele>
        <time>2021-09-08T11:49:27Z</time>
      </trkpt>
      <trkpt lat="44.25778" lon="5.63957">
        <ele>971.5</ele>
        <time>2021-09-08T11:49:28Z</time>
      </trkpt>
      <trkpt lat="44.25781" lon="5.63964">
        <ele>971.1</ele>
        <time>2021-09-08T11:49:30Z</time>
      </trkpt>
      <trkpt lat="44.25786" lon="5.63975">
        <ele>970.5</ele>
        <time>2021-09-08T11:49:31Z</time>
      </trkpt>
      <trkpt lat="44.25789" lon="5.63976">
        <ele>970.3</ele>
        <time>2021-09-08T11:49:32Z</time>
      </trkpt>
      <trkpt lat="44.25793" lon="5.63982">
        <ele>969.9</ele>
        <time>2021-09-08T11:49:34Z</time>
      </trkpt>
      <trkpt lat="44.25795" lon="5.63987">
        <ele>969.6</ele>
        <time>2021-09-08T11:49:35Z</time>
      </trkpt>
      <trkpt lat="44.25798" lon="5.63993">
        <ele>969.2</ele>
        <time>2021-09-08T11:49:36Z</time>
      </trkpt>
      <trkpt lat="44.258" lon="5.63998">
        <ele>968.8</ele>
        <time>2021-09-08T11:49:37Z</time>
      </trkpt>
      <trkpt lat="44.258" lon="5.64005">
        <ele>968.3</ele>
        <time>2021-09-08T11:49:38Z</time>
      </trkpt>
      <trkpt lat="44.258" lon="5.64009">
        <ele>967.9</ele>
        <time>2021-09-08T11:49:39Z</time>
      </trkpt>
      <trkpt lat="44.25798" lon="5.64013">
        <ele>967.5</ele>
        <time>2021-09-08T11:49:41Z</time>
      </trkpt>
      <trkpt lat="44.25797" lon="5.64014">
        <ele>967.3</ele>
        <time>2021-09-08T11:49:42Z</time>
      </trkpt>
      <trkpt lat="44.25797" lon="5.6401">
        <ele>967</ele>
        <time>2021-09-08T11:49:44Z</time>
      </trkpt>
      <trkpt lat="44.25796" lon="5.64009">
        <ele>966.8</ele>
        <time>2021-09-08T11:49:45Z</time>
      </trkpt>
      <trkpt lat="44.25795" lon="5.64007">
        <ele>966.6</ele>
        <time>2021-09-08T11:49:46Z</time>
      </trkpt>
      <trkpt lat="44.25792" lon="5.63998">
        <ele>967.4</ele>
        <time>2021-09-08T11:49:47Z</time>
      </trkpt>
      <trkpt lat="44.25789" lon="5.6399">
        <ele>968.2</ele>
        <time>2021-09-08T11:49:49Z</time>
      </trkpt>
      <trkpt lat="44.25785" lon="5.6398">
        <ele>968.9</ele>
        <time>2021-09-08T11:49:50Z</time>
      </trkpt>
      <trkpt lat="44.25777" lon="5.63965">
        <ele>969.9</ele>
        <time>2021-09-08T11:49:52Z</time>
      </trkpt>
      <trkpt lat="44.25775" lon="5.63962">
        <ele>970.1</ele>
        <time>2021-09-08T11:49:53Z</time>
      </trkpt>
      <trkpt lat="44.2577" lon="5.63956">
        <ele>970.5</ele>
        <time>2021-09-08T11:49:55Z</time>
      </trkpt>
      <trkpt lat="44.25766" lon="5.63952">
        <ele>970.8</ele>
        <time>2021-09-08T11:49:56Z</time>
      </trkpt>
      <trkpt lat="44.2576" lon="5.63946">
        <ele>971.2</ele>
        <time>2021-09-08T11:49:58Z</time>
      </trkpt>
      <trkpt lat="44.25755" lon="5.63941">
        <ele>971.7</ele>
        <time>2021-09-08T11:49:59Z</time>
      </trkpt>
      <trkpt lat="44.2575" lon="5.63935">
        <ele>972.2</ele>
        <time>2021-09-08T11:50:00Z</time>
      </trkpt>
      <trkpt lat="44.25741" lon="5.63923">
        <ele>973.5</ele>
        <time>2021-09-08T11:50:02Z</time>
      </trkpt>
      <trkpt lat="44.25733" lon="5.63913">
        <ele>966.6</ele>
        <time>2021-09-08T11:50:04Z</time>
      </trkpt>
      <trkpt lat="44.25728" lon="5.63908">
        <ele>959.6</ele>
        <time>2021-09-08T11:50:05Z</time>
      </trkpt>
      <trkpt lat="44.25724" lon="5.63902">
        <ele>955</ele>
        <time>2021-09-08T11:50:06Z</time>
      </trkpt>
      <trkpt lat="44.25718" lon="5.63889">
        <ele>949.7</ele>
        <time>2021-09-08T11:50:08Z</time>
      </trkpt>
      <trkpt lat="44.25714" lon="5.6388">
        <ele>948.8</ele>
        <time>2021-09-08T11:50:09Z</time>
      </trkpt>
      <trkpt lat="44.2571" lon="5.63871">
        <ele>948</ele>
        <time>2021-09-08T11:50:10Z</time>
      </trkpt>
      <trkpt lat="44.25707" lon="5.63861">
        <ele>947.4</ele>
        <time>2021-09-08T11:50:11Z</time>
      </trkpt>
      <trkpt lat="44.25701" lon="5.63844">
        <ele>946.3</ele>
        <time>2021-09-08T11:50:13Z</time>
      </trkpt>
      <trkpt lat="44.25693" lon="5.63829">
        <ele>945.2</ele>
        <time>2021-09-08T11:50:15Z</time>
      </trkpt>
      <trkpt lat="44.25688" lon="5.63813">
        <ele>944.2</ele>
        <time>2021-09-08T11:50:17Z</time>
      </trkpt>
      <trkpt lat="44.25683" lon="5.63795">
        <ele>942.8</ele>
        <time>2021-09-08T11:50:19Z</time>
      </trkpt>
      <trkpt lat="44.25678" lon="5.63775">
        <ele>941.5</ele>
        <time>2021-09-08T11:50:21Z</time>
      </trkpt>
      <trkpt lat="44.25674" lon="5.63765">
        <ele>940.7</ele>
        <time>2021-09-08T11:50:22Z</time>
      </trkpt>
      <trkpt lat="44.25671" lon="5.63754">
        <ele>939.9</ele>
        <time>2021-09-08T11:50:23Z</time>
      </trkpt>
      <trkpt lat="44.25661" lon="5.63734">
        <ele>938.1</ele>
        <time>2021-09-08T11:50:25Z</time>
      </trkpt>
      <trkpt lat="44.25647" lon="5.63717">
        <ele>936</ele>
        <time>2021-09-08T11:50:27Z</time>
      </trkpt>
      <trkpt lat="44.2564" lon="5.63709">
        <ele>934.9</ele>
        <time>2021-09-08T11:50:28Z</time>
      </trkpt>
      <trkpt lat="44.25635" lon="5.63701">
        <ele>934.1</ele>
        <time>2021-09-08T11:50:29Z</time>
      </trkpt>
      <trkpt lat="44.25625" lon="5.63687">
        <ele>932.5</ele>
        <time>2021-09-08T11:50:31Z</time>
      </trkpt>
      <trkpt lat="44.25619" lon="5.6368">
        <ele>931.6</ele>
        <time>2021-09-08T11:50:32Z</time>
      </trkpt>
      <trkpt lat="44.25606" lon="5.63663">
        <ele>929.6</ele>
        <time>2021-09-08T11:50:34Z</time>
      </trkpt>
      <trkpt lat="44.25594" lon="5.63645">
        <ele>927.3</ele>
        <time>2021-09-08T11:50:36Z</time>
      </trkpt>
      <trkpt lat="44.25586" lon="5.63624">
        <ele>925.6</ele>
        <time>2021-09-08T11:50:38Z</time>
      </trkpt>
      <trkpt lat="44.25581" lon="5.63602">
        <ele>924.2</ele>
        <time>2021-09-08T11:50:40Z</time>
      </trkpt>
      <trkpt lat="44.25578" lon="5.63591">
        <ele>923.5</ele>
        <time>2021-09-08T11:50:41Z</time>
      </trkpt>
      <trkpt lat="44.25576" lon="5.6358">
        <ele>922.8</ele>
        <time>2021-09-08T11:50:42Z</time>
      </trkpt>
      <trkpt lat="44.2557" lon="5.63556">
        <ele>921.5</ele>
        <time>2021-09-08T11:50:44Z</time>
      </trkpt>
      <trkpt lat="44.25566" lon="5.63545">
        <ele>920.8</ele>
        <time>2021-09-08T11:50:45Z</time>
      </trkpt>
      <trkpt lat="44.2556" lon="5.6352">
        <ele>918.8</ele>
        <time>2021-09-08T11:50:47Z</time>
      </trkpt>
      <trkpt lat="44.25557" lon="5.63507">
        <ele>917.8</ele>
        <time>2021-09-08T11:50:48Z</time>
      </trkpt>
      <trkpt lat="44.25553" lon="5.63495">
        <ele>916.9</ele>
        <time>2021-09-08T11:50:49Z</time>
      </trkpt>
      <trkpt lat="44.25548" lon="5.63482">
        <ele>915.8</ele>
        <time>2021-09-08T11:50:50Z</time>
      </trkpt>
      <trkpt lat="44.25539" lon="5.63461">
        <ele>913.7</ele>
        <time>2021-09-08T11:50:52Z</time>
      </trkpt>
      <trkpt lat="44.25532" lon="5.63442">
        <ele>911.4</ele>
        <time>2021-09-08T11:50:54Z</time>
      </trkpt>
      <trkpt lat="44.25524" lon="5.63426">
        <ele>909.3</ele>
        <time>2021-09-08T11:50:56Z</time>
      </trkpt>
      <trkpt lat="44.2552" lon="5.63418">
        <ele>908.3</ele>
        <time>2021-09-08T11:50:57Z</time>
      </trkpt>
      <trkpt lat="44.25518" lon="5.63409">
        <ele>907.3</ele>
        <time>2021-09-08T11:50:58Z</time>
      </trkpt>
      <trkpt lat="44.25517" lon="5.63401">
        <ele>906.4</ele>
        <time>2021-09-08T11:50:59Z</time>
      </trkpt>
      <trkpt lat="44.25516" lon="5.63383">
        <ele>904.6</ele>
        <time>2021-09-08T11:51:01Z</time>
      </trkpt>
      <trkpt lat="44.25517" lon="5.63364">
        <ele>902.9</ele>
        <time>2021-09-08T11:51:03Z</time>
      </trkpt>
      <trkpt lat="44.25518" lon="5.63356">
        <ele>902.2</ele>
        <time>2021-09-08T11:51:04Z</time>
      </trkpt>
      <trkpt lat="44.25523" lon="5.63342">
        <ele>901.2</ele>
        <time>2021-09-08T11:51:06Z</time>
      </trkpt>
      <trkpt lat="44.25524" lon="5.63333">
        <ele>900.6</ele>
        <time>2021-09-08T11:51:07Z</time>
      </trkpt>
      <trkpt lat="44.25525" lon="5.63314">
        <ele>899</ele>
        <time>2021-09-08T11:51:09Z</time>
      </trkpt>
      <trkpt lat="44.25522" lon="5.63295">
        <ele>897.1</ele>
        <time>2021-09-08T11:51:11Z</time>
      </trkpt>
      <trkpt lat="44.2552" lon="5.63286">
        <ele>896.1</ele>
        <time>2021-09-08T11:51:12Z</time>
      </trkpt>
      <trkpt lat="44.25518" lon="5.63278">
        <ele>895.2</ele>
        <time>2021-09-08T11:51:13Z</time>
      </trkpt>
      <trkpt lat="44.25517" lon="5.6326">
        <ele>893.5</ele>
        <time>2021-09-08T11:51:15Z</time>
      </trkpt>
      <trkpt lat="44.25516" lon="5.63251">
        <ele>892.8</ele>
        <time>2021-09-08T11:51:16Z</time>
      </trkpt>
      <trkpt lat="44.25514" lon="5.63234">
        <ele>891.6</ele>
        <time>2021-09-08T11:51:18Z</time>
      </trkpt>
      <trkpt lat="44.25513" lon="5.63226">
        <ele>891</ele>
        <time>2021-09-08T11:51:19Z</time>
      </trkpt>
      <trkpt lat="44.2551" lon="5.63211">
        <ele>889.8</ele>
        <time>2021-09-08T11:51:21Z</time>
      </trkpt>
      <trkpt lat="44.25504" lon="5.63201">
        <ele>888.7</ele>
        <time>2021-09-08T11:51:23Z</time>
      </trkpt>
      <trkpt lat="44.25501" lon="5.63198">
        <ele>888.3</ele>
        <time>2021-09-08T11:51:24Z</time>
      </trkpt>
      <trkpt lat="44.25498" lon="5.63195">
        <ele>887.8</ele>
        <time>2021-09-08T11:51:25Z</time>
      </trkpt>
      <trkpt lat="44.25497" lon="5.63194">
        <ele>887.6</ele>
        <time>2021-09-08T11:51:26Z</time>
      </trkpt>
      <trkpt lat="44.25495" lon="5.6319">
        <ele>887.1</ele>
        <time>2021-09-08T11:51:28Z</time>
      </trkpt>
      <trkpt lat="44.25496" lon="5.6319">
        <ele>887.1</ele>
        <time>2021-09-08T11:51:29Z</time>
      </trkpt>
      <trkpt lat="44.25497" lon="5.63191">
        <ele>886.9</ele>
        <time>2021-09-08T11:51:30Z</time>
      </trkpt>
      <trkpt lat="44.25496" lon="5.63192">
        <ele>886.8</ele>
        <time>2021-09-08T11:51:31Z</time>
      </trkpt>
      <trkpt lat="44.25498" lon="5.63195">
        <ele>886.5</ele>
        <time>2021-09-08T11:51:33Z</time>
      </trkpt>
      <trkpt lat="44.25496" lon="5.63195">
        <ele>886.2</ele>
        <time>2021-09-08T11:51:35Z</time>
      </trkpt>
      <trkpt lat="44.25495" lon="5.63195">
        <ele>886.1</ele>
        <time>2021-09-08T11:51:36Z</time>
      </trkpt>
      <trkpt lat="44.25494" lon="5.63195">
        <ele>885.9</ele>
        <time>2021-09-08T11:51:37Z</time>
      </trkpt>
      <trkpt lat="44.25494" lon="5.63195">
        <ele>885.8</ele>
        <time>2021-09-08T11:51:38Z</time>
      </trkpt>
      <trkpt lat="44.25493" lon="5.63195">
        <ele>885.8</ele>
        <time>2021-09-08T11:51:39Z</time>
      </trkpt>
      <trkpt lat="44.2549" lon="5.63195">
        <ele>885.3</ele>
        <time>2021-09-08T11:51:41Z</time>
      </trkpt>
      <trkpt lat="44.25486" lon="5.63194">
        <ele>884.8</ele>
        <time>2021-09-08T11:51:43Z</time>
      </trkpt>
      <trkpt lat="44.25485" lon="5.63193">
        <ele>884.7</ele>
        <time>2021-09-08T11:51:44Z</time>
      </trkpt>
      <trkpt lat="44.25485" lon="5.63193">
        <ele>884.7</ele>
        <time>2021-09-08T11:51:46Z</time>
      </trkpt>
      <trkpt lat="44.25485" lon="5.63193">
        <ele>884.7</ele>
        <time>2021-09-08T11:51:47Z</time>
      </trkpt>
      <trkpt lat="44.25485" lon="5.63194">
        <ele>884.6</ele>
        <time>2021-09-08T11:51:49Z</time>
      </trkpt>
      <trkpt lat="44.25485" lon="5.63194">
        <ele>884.6</ele>
        <time>2021-09-08T11:51:51Z</time>
      </trkpt>
      <trkpt lat="44.25485" lon="5.63191">
        <ele>884.4</ele>
        <time>2021-09-08T11:51:53Z</time>
      </trkpt>
      <trkpt lat="44.25484" lon="5.63186">
        <ele>884</ele>
        <time>2021-09-08T11:51:55Z</time>
      </trkpt>
      <trkpt lat="44.2547" lon="5.6319">
        <ele>882.2</ele>
        <time>2021-09-08T11:52:01Z</time>
      </trkpt>
      <trkpt lat="44.25456" lon="5.63193">
        <ele>880.6</ele>
        <time>2021-09-08T11:52:03Z</time>
      </trkpt>
      <trkpt lat="44.25443" lon="5.63187">
        <ele>879.2</ele>
        <time>2021-09-08T11:52:05Z</time>
      </trkpt>
      <trkpt lat="44.25437" lon="5.63182">
        <ele>878.6</ele>
        <time>2021-09-08T11:52:06Z</time>
      </trkpt>
      <trkpt lat="44.25429" lon="5.63172">
        <ele>877.4</ele>
        <time>2021-09-08T11:52:08Z</time>
      </trkpt>
      <trkpt lat="44.25425" lon="5.63168">
        <ele>876.9</ele>
        <time>2021-09-08T11:52:09Z</time>
      </trkpt>
      <trkpt lat="44.25416" lon="5.63162">
        <ele>875.9</ele>
        <time>2021-09-08T11:52:11Z</time>
      </trkpt>
      <trkpt lat="44.25406" lon="5.63157">
        <ele>874.8</ele>
        <time>2021-09-08T11:52:13Z</time>
      </trkpt>
      <trkpt lat="44.25401" lon="5.63154">
        <ele>874.3</ele>
        <time>2021-09-08T11:52:14Z</time>
      </trkpt>
      <trkpt lat="44.25395" lon="5.6315">
        <ele>873.6</ele>
        <time>2021-09-08T11:52:15Z</time>
      </trkpt>
      <trkpt lat="44.25388" lon="5.63147">
        <ele>872.8</ele>
        <time>2021-09-08T11:52:16Z</time>
      </trkpt>
      <trkpt lat="44.25382" lon="5.63144">
        <ele>872.1</ele>
        <time>2021-09-08T11:52:17Z</time>
      </trkpt>
      <trkpt lat="44.25376" lon="5.6314">
        <ele>871.5</ele>
        <time>2021-09-08T11:52:18Z</time>
      </trkpt>
      <trkpt lat="44.2537" lon="5.63134">
        <ele>870.9</ele>
        <time>2021-09-08T11:52:19Z</time>
      </trkpt>
      <trkpt lat="44.25359" lon="5.63127">
        <ele>869.8</ele>
        <time>2021-09-08T11:52:21Z</time>
      </trkpt>
      <trkpt lat="44.25355" lon="5.63122">
        <ele>869.3</ele>
        <time>2021-09-08T11:52:22Z</time>
      </trkpt>
      <trkpt lat="44.25347" lon="5.63107">
        <ele>868.2</ele>
        <time>2021-09-08T11:52:24Z</time>
      </trkpt>
      <trkpt lat="44.25339" lon="5.63091">
        <ele>866.7</ele>
        <time>2021-09-08T11:52:26Z</time>
      </trkpt>
      <trkpt lat="44.25331" lon="5.63076">
        <ele>864.8</ele>
        <time>2021-09-08T11:52:28Z</time>
      </trkpt>
      <trkpt lat="44.25328" lon="5.63067">
        <ele>863.8</ele>
        <time>2021-09-08T11:52:29Z</time>
      </trkpt>
      <trkpt lat="44.25322" lon="5.63051">
        <ele>862.3</ele>
        <time>2021-09-08T11:52:31Z</time>
      </trkpt>
      <trkpt lat="44.25319" lon="5.63036">
        <ele>861</ele>
        <time>2021-09-08T11:52:33Z</time>
      </trkpt>
      <trkpt lat="44.25318" lon="5.63029">
        <ele>860.4</ele>
        <time>2021-09-08T11:52:34Z</time>
      </trkpt>
      <trkpt lat="44.25315" lon="5.63022">
        <ele>859.8</ele>
        <time>2021-09-08T11:52:35Z</time>
      </trkpt>
      <trkpt lat="44.25308" lon="5.63009">
        <ele>858.4</ele>
        <time>2021-09-08T11:52:37Z</time>
      </trkpt>
      <trkpt lat="44.25304" lon="5.63004">
        <ele>857.7</ele>
        <time>2021-09-08T11:52:38Z</time>
      </trkpt>
      <trkpt lat="44.25301" lon="5.63001">
        <ele>857.2</ele>
        <time>2021-09-08T11:52:39Z</time>
      </trkpt>
      <trkpt lat="44.25298" lon="5.62999">
        <ele>856.7</ele>
        <time>2021-09-08T11:52:41Z</time>
      </trkpt>
      <trkpt lat="44.25298" lon="5.62998">
        <ele>856.6</ele>
        <time>2021-09-08T11:52:43Z</time>
      </trkpt>
      <trkpt lat="44.253" lon="5.63002">
        <ele>856.1</ele>
        <time>2021-09-08T11:52:44Z</time>
      </trkpt>
      <trkpt lat="44.25305" lon="5.6301">
        <ele>855</ele>
        <time>2021-09-08T11:52:46Z</time>
      </trkpt>
      <trkpt lat="44.25308" lon="5.63013">
        <ele>852.6</ele>
        <time>2021-09-08T11:52:48Z</time>
      </trkpt>
      <trkpt lat="44.2531" lon="5.63015">
        <ele>852.2</ele>
        <time>2021-09-08T11:52:49Z</time>
      </trkpt>
      <trkpt lat="44.25319" lon="5.63029">
        <ele>850.6</ele>
        <time>2021-09-08T11:52:50Z</time>
      </trkpt>
      <trkpt lat="44.25322" lon="5.63037">
        <ele>850.3</ele>
        <time>2021-09-08T11:52:52Z</time>
      </trkpt>
      <trkpt lat="44.25328" lon="5.63061">
        <ele>849.8</ele>
        <time>2021-09-08T11:52:53Z</time>
      </trkpt>
      <trkpt lat="44.25328" lon="5.63072">
        <ele>849.7</ele>
        <time>2021-09-08T11:52:55Z</time>
      </trkpt>
      <trkpt lat="44.25329" lon="5.63084">
        <ele>849.6</ele>
        <time>2021-09-08T11:52:56Z</time>
      </trkpt>
      <trkpt lat="44.25333" lon="5.6309">
        <ele>849.5</ele>
        <time>2021-09-08T11:52:57Z</time>
      </trkpt>
      <trkpt lat="44.25343" lon="5.63107">
        <ele>849.3</ele>
        <time>2021-09-08T11:52:59Z</time>
      </trkpt>
      <trkpt lat="44.25348" lon="5.63123">
        <ele>848.9</ele>
        <time>2021-09-08T11:53:01Z</time>
      </trkpt>
      <trkpt lat="44.2535" lon="5.6313">
        <ele>848.6</ele>
        <time>2021-09-08T11:53:02Z</time>
      </trkpt>
      <trkpt lat="44.25354" lon="5.63148">
        <ele>847.9</ele>
        <time>2021-09-08T11:53:04Z</time>
      </trkpt>
      <trkpt lat="44.25358" lon="5.63172">
        <ele>846.8</ele>
        <time>2021-09-08T11:53:06Z</time>
      </trkpt>
      <trkpt lat="44.25362" lon="5.63189">
        <ele>845.9</ele>
        <time>2021-09-08T11:53:07Z</time>
      </trkpt>
      <trkpt lat="44.25366" lon="5.63205">
        <ele>844.9</ele>
        <time>2021-09-08T11:53:08Z</time>
      </trkpt>
      <trkpt lat="44.25376" lon="5.63235">
        <ele>843.4</ele>
        <time>2021-09-08T11:53:10Z</time>
      </trkpt>
      <trkpt lat="44.2538" lon="5.63247">
        <ele>843</ele>
        <time>2021-09-08T11:53:11Z</time>
      </trkpt>
      <trkpt lat="44.25384" lon="5.63257">
        <ele>842.8</ele>
        <time>2021-09-08T11:53:12Z</time>
      </trkpt>
      <trkpt lat="44.25388" lon="5.63267">
        <ele>842.7</ele>
        <time>2021-09-08T11:53:13Z</time>
      </trkpt>
      <trkpt lat="44.25395" lon="5.6328">
        <ele>842.8</ele>
        <time>2021-09-08T11:53:15Z</time>
      </trkpt>
      <trkpt lat="44.25399" lon="5.63285">
        <ele>842.8</ele>
        <time>2021-09-08T11:53:16Z</time>
      </trkpt>
      <trkpt lat="44.25402" lon="5.63288">
        <ele>842.8</ele>
        <time>2021-09-08T11:53:17Z</time>
      </trkpt>
      <trkpt lat="44.25408" lon="5.63294">
        <ele>842.9</ele>
        <time>2021-09-08T11:53:19Z</time>
      </trkpt>
      <trkpt lat="44.2541" lon="5.63304">
        <ele>842.8</ele>
        <time>2021-09-08T11:53:21Z</time>
      </trkpt>
      <trkpt lat="44.2541" lon="5.63306">
        <ele>842.8</ele>
        <time>2021-09-08T11:53:22Z</time>
      </trkpt>
      <trkpt lat="44.25414" lon="5.63315">
        <ele>842.5</ele>
        <time>2021-09-08T11:53:24Z</time>
      </trkpt>
      <trkpt lat="44.25423" lon="5.63323">
        <ele>842.1</ele>
        <time>2021-09-08T11:53:26Z</time>
      </trkpt>
      <trkpt lat="44.25435" lon="5.63327">
        <ele>841.6</ele>
        <time>2021-09-08T11:53:28Z</time>
      </trkpt>
      <trkpt lat="44.25441" lon="5.6333">
        <ele>841.4</ele>
        <time>2021-09-08T11:53:29Z</time>
      </trkpt>
      <trkpt lat="44.25449" lon="5.63339">
        <ele>841.1</ele>
        <time>2021-09-08T11:53:31Z</time>
      </trkpt>
      <trkpt lat="44.25452" lon="5.63345">
        <ele>840.9</ele>
        <time>2021-09-08T11:53:32Z</time>
      </trkpt>
      <trkpt lat="44.25455" lon="5.6336">
        <ele>840.7</ele>
        <time>2021-09-08T11:53:34Z</time>
      </trkpt>
      <trkpt lat="44.25455" lon="5.63377">
        <ele>840.6</ele>
        <time>2021-09-08T11:53:36Z</time>
      </trkpt>
      <trkpt lat="44.25455" lon="5.63393">
        <ele>840.6</ele>
        <time>2021-09-08T11:53:38Z</time>
      </trkpt>
      <trkpt lat="44.25455" lon="5.63406">
        <ele>840.6</ele>
        <time>2021-09-08T11:53:40Z</time>
      </trkpt>
      <trkpt lat="44.25455" lon="5.63412">
        <ele>840.5</ele>
        <time>2021-09-08T11:53:41Z</time>
      </trkpt>
      <trkpt lat="44.25453" lon="5.63423">
        <ele>840.4</ele>
        <time>2021-09-08T11:53:43Z</time>
      </trkpt>
      <trkpt lat="44.25449" lon="5.63438">
        <ele>840</ele>
        <time>2021-09-08T11:53:45Z</time>
      </trkpt>
      <trkpt lat="44.25446" lon="5.63447">
        <ele>839.6</ele>
        <time>2021-09-08T11:53:46Z</time>
      </trkpt>
      <trkpt lat="44.25442" lon="5.63455">
        <ele>839.1</ele>
        <time>2021-09-08T11:53:47Z</time>
      </trkpt>
      <trkpt lat="44.25439" lon="5.63463">
        <ele>838.5</ele>
        <time>2021-09-08T11:53:48Z</time>
      </trkpt>
      <trkpt lat="44.25431" lon="5.63482">
        <ele>837.3</ele>
        <time>2021-09-08T11:53:50Z</time>
      </trkpt>
      <trkpt lat="44.25427" lon="5.63492">
        <ele>836.7</ele>
        <time>2021-09-08T11:53:51Z</time>
      </trkpt>
      <trkpt lat="44.25422" lon="5.63502">
        <ele>836.1</ele>
        <time>2021-09-08T11:53:52Z</time>
      </trkpt>
      <trkpt lat="44.25418" lon="5.63513">
        <ele>835.5</ele>
        <time>2021-09-08T11:53:53Z</time>
      </trkpt>
      <trkpt lat="44.25415" lon="5.63525">
        <ele>834.8</ele>
        <time>2021-09-08T11:53:54Z</time>
      </trkpt>
      <trkpt lat="44.25413" lon="5.63537">
        <ele>834.2</ele>
        <time>2021-09-08T11:53:55Z</time>
      </trkpt>
      <trkpt lat="44.2541" lon="5.63562">
        <ele>832.5</ele>
        <time>2021-09-08T11:53:57Z</time>
      </trkpt>
      <trkpt lat="44.2541" lon="5.63575">
        <ele>831.3</ele>
        <time>2021-09-08T11:53:58Z</time>
      </trkpt>
      <trkpt lat="44.25414" lon="5.63601">
        <ele>829.3</ele>
        <time>2021-09-08T11:54:00Z</time>
      </trkpt>
      <trkpt lat="44.25415" lon="5.63614">
        <ele>828.4</ele>
        <time>2021-09-08T11:54:01Z</time>
      </trkpt>
      <trkpt lat="44.25419" lon="5.63641">
        <ele>826.9</ele>
        <time>2021-09-08T11:54:03Z</time>
      </trkpt>
      <trkpt lat="44.2542" lon="5.63654">
        <ele>826.2</ele>
        <time>2021-09-08T11:54:04Z</time>
      </trkpt>
      <trkpt lat="44.25421" lon="5.63667">
        <ele>825.3</ele>
        <time>2021-09-08T11:54:05Z</time>
      </trkpt>
      <trkpt lat="44.25421" lon="5.63689">
        <ele>823.6</ele>
        <time>2021-09-08T11:54:07Z</time>
      </trkpt>
      <trkpt lat="44.25423" lon="5.637">
        <ele>822.7</ele>
        <time>2021-09-08T11:54:08Z</time>
      </trkpt>
      <trkpt lat="44.25426" lon="5.63711">
        <ele>821.7</ele>
        <time>2021-09-08T11:54:09Z</time>
      </trkpt>
      <trkpt lat="44.25428" lon="5.63722">
        <ele>820.7</ele>
        <time>2021-09-08T11:54:10Z</time>
      </trkpt>
      <trkpt lat="44.2543" lon="5.63743">
        <ele>818.8</ele>
        <time>2021-09-08T11:54:12Z</time>
      </trkpt>
      <trkpt lat="44.25431" lon="5.63754">
        <ele>818.1</ele>
        <time>2021-09-08T11:54:13Z</time>
      </trkpt>
      <trkpt lat="44.25433" lon="5.63773">
        <ele>817</ele>
        <time>2021-09-08T11:54:15Z</time>
      </trkpt>
      <trkpt lat="44.25435" lon="5.63789">
        <ele>816.1</ele>
        <time>2021-09-08T11:54:17Z</time>
      </trkpt>
      <trkpt lat="44.25435" lon="5.63797">
        <ele>815.6</ele>
        <time>2021-09-08T11:54:18Z</time>
      </trkpt>
      <trkpt lat="44.25433" lon="5.6381">
        <ele>814.7</ele>
        <time>2021-09-08T11:54:20Z</time>
      </trkpt>
      <trkpt lat="44.25432" lon="5.63826">
        <ele>813.7</ele>
        <time>2021-09-08T11:54:22Z</time>
      </trkpt>
      <trkpt lat="44.25433" lon="5.6384">
        <ele>813</ele>
        <time>2021-09-08T11:54:24Z</time>
      </trkpt>
      <trkpt lat="44.25434" lon="5.63842">
        <ele>812.9</ele>
        <time>2021-09-08T11:54:25Z</time>
      </trkpt>
      <trkpt lat="44.25435" lon="5.63845">
        <ele>812.7</ele>
        <time>2021-09-08T11:54:27Z</time>
      </trkpt>
      <trkpt lat="44.25434" lon="5.63848">
        <ele>812.5</ele>
        <time>2021-09-08T11:54:28Z</time>
      </trkpt>
      <trkpt lat="44.25434" lon="5.63849">
        <ele>812.5</ele>
        <time>2021-09-08T11:54:30Z</time>
      </trkpt>
      <trkpt lat="44.25433" lon="5.63849">
        <ele>812.4</ele>
        <time>2021-09-08T11:54:31Z</time>
      </trkpt>
      <trkpt lat="44.25433" lon="5.6385">
        <ele>812.3</ele>
        <time>2021-09-08T11:54:33Z</time>
      </trkpt>
      <trkpt lat="44.25432" lon="5.63851">
        <ele>812.3</ele>
        <time>2021-09-08T11:54:34Z</time>
      </trkpt>
      <trkpt lat="44.25431" lon="5.63852">
        <ele>812.2</ele>
        <time>2021-09-08T11:54:35Z</time>
      </trkpt>
      <trkpt lat="44.25431" lon="5.63853">
        <ele>812.1</ele>
        <time>2021-09-08T11:54:37Z</time>
      </trkpt>
      <trkpt lat="44.2543" lon="5.63853">
        <ele>812</ele>
        <time>2021-09-08T11:54:38Z</time>
      </trkpt>
      <trkpt lat="44.25429" lon="5.63854">
        <ele>812</ele>
        <time>2021-09-08T11:55:08Z</time>
      </trkpt>
      <trkpt lat="44.25429" lon="5.63855">
        <ele>811.9</ele>
        <time>2021-09-08T11:55:09Z</time>
      </trkpt>
      <trkpt lat="44.25429" lon="5.63862">
        <ele>810</ele>
        <time>2021-09-08T11:55:10Z</time>
      </trkpt>
      <trkpt lat="44.2543" lon="5.63873">
        <ele>809.5</ele>
        <time>2021-09-08T11:55:12Z</time>
      </trkpt>
      <trkpt lat="44.25431" lon="5.63879">
        <ele>809.2</ele>
        <time>2021-09-08T11:55:13Z</time>
      </trkpt>
      <trkpt lat="44.25432" lon="5.63887">
        <ele>808.8</ele>
        <time>2021-09-08T11:55:15Z</time>
      </trkpt>
      <trkpt lat="44.25433" lon="5.63891">
        <ele>808.7</ele>
        <time>2021-09-08T11:55:16Z</time>
      </trkpt>
      <trkpt lat="44.25432" lon="5.63896">
        <ele>808.5</ele>
        <time>2021-09-08T11:55:18Z</time>
      </trkpt>
      <trkpt lat="44.25432" lon="5.63898">
        <ele>808.4</ele>
        <time>2021-09-08T11:55:19Z</time>
      </trkpt>
      <trkpt lat="44.25432" lon="5.63899">
        <ele>808.3</ele>
        <time>2021-09-08T11:55:20Z</time>
      </trkpt>
      <trkpt lat="44.25431" lon="5.639">
        <ele>808.3</ele>
        <time>2021-09-08T11:55:21Z</time>
      </trkpt>
      <trkpt lat="44.2543" lon="5.63901">
        <ele>808.2</ele>
        <time>2021-09-08T11:55:23Z</time>
      </trkpt>
      <trkpt lat="44.25427" lon="5.63904">
        <ele>807.9</ele>
        <time>2021-09-08T11:55:25Z</time>
      </trkpt>
      <trkpt lat="44.25426" lon="5.63906">
        <ele>807.8</ele>
        <time>2021-09-08T11:55:27Z</time>
      </trkpt>
      <trkpt lat="44.2541" lon="5.63974">
        <ele>803.7</ele>
        <time>2021-09-08T11:58:12Z</time>
      </trkpt>
      <trkpt lat="44.25409" lon="5.63975">
        <ele>803.6</ele>
        <time>2021-09-08T11:58:13Z</time>
      </trkpt>
      <trkpt lat="44.25408" lon="5.63976">
        <ele>803.7</ele>
        <time>2021-09-08T11:58:15Z</time>
      </trkpt>
      <trkpt lat="44.25408" lon="5.63976">
        <ele>803.6</ele>
        <time>2021-09-08T11:58:16Z</time>
      </trkpt>
      <trkpt lat="44.25408" lon="5.63977">
        <ele>803.6</ele>
        <time>2021-09-08T11:58:18Z</time>
      </trkpt>
      <trkpt lat="44.25408" lon="5.63977">
        <ele>803.6</ele>
        <time>2021-09-08T11:58:19Z</time>
      </trkpt>
      <trkpt lat="44.25408" lon="5.63977">
        <ele>803.6</ele>
        <time>2021-09-08T11:58:20Z</time>
      </trkpt>
      <trkpt lat="44.25407" lon="5.63977">
        <ele>803.7</ele>
        <time>2021-09-08T11:58:21Z</time>
      </trkpt>
      <trkpt lat="44.25408" lon="5.63977">
        <ele>803.6</ele>
        <time>2021-09-08T11:58:23Z</time>
      </trkpt>
      <trkpt lat="44.25366" lon="5.64008">
        <ele>800.6</ele>
        <time>2021-09-08T12:03:23Z</time>
      </trkpt>
      <trkpt lat="44.25365" lon="5.64007">
        <ele>800.6</ele>
        <time>2021-09-08T12:03:24Z</time>
      </trkpt>
      <trkpt lat="44.25365" lon="5.64008">
        <ele>800.6</ele>
        <time>2021-09-08T12:03:26Z</time>
      </trkpt>
      <trkpt lat="44.25365" lon="5.64008">
        <ele>800.7</ele>
        <time>2021-09-08T12:03:28Z</time>
      </trkpt>
      <trkpt lat="44.25365" lon="5.64008">
        <ele>800.7</ele>
        <time>2021-09-08T12:03:29Z</time>
      </trkpt>
      <trkpt lat="44.25365" lon="5.64008">
        <ele>800.7</ele>
        <time>2021-09-08T12:03:30Z</time>
      </trkpt>
      <trkpt lat="44.25365" lon="5.64008">
        <ele>800.7</ele>
        <time>2021-09-08T12:03:32Z</time>
      </trkpt>
      <trkpt lat="44.25365" lon="5.64008">
        <ele>800.7</ele>
        <time>2021-09-08T12:03:33Z</time>
      </trkpt>
      <trkpt lat="44.25365" lon="5.64008">
        <ele>800.7</ele>
        <time>2021-09-08T12:03:35Z</time>
      </trkpt>
      <trkpt lat="44.25365" lon="5.64008">
        <ele>800.7</ele>
        <time>2021-09-08T12:03:37Z</time>
      </trkpt>
      <trkpt lat="44.25365" lon="5.64008">
        <ele>800.7</ele>
        <time>2021-09-08T12:03:38Z</time>
      </trkpt>
      <trkpt lat="44.25365" lon="5.64008">
        <ele>800.7</ele>
        <time>2021-09-08T12:03:39Z</time>
      </trkpt>
      <trkpt lat="44.25365" lon="5.64008">
        <ele>800.7</ele>
        <time>2021-09-08T12:03:41Z</time>
      </trkpt>
      <trkpt lat="44.25365" lon="5.64008">
        <ele>800.7</ele>
        <time>2021-09-08T12:03:42Z</time>
      </trkpt>
      <trkpt lat="44.25365" lon="5.64008">
        <ele>800.7</ele>
        <time>2021-09-08T12:03:44Z</time>
      </trkpt>
      <trkpt lat="44.25365" lon="5.64008">
        <ele>800.7</ele>
        <time>2021-09-08T12:03:46Z</time>
      </trkpt>
      <trkpt lat="44.25365" lon="5.64008">
        <ele>800.6</ele>
        <time>2021-09-08T12:03:48Z</time>
      </trkpt>
      <trkpt lat="44.25365" lon="5.64009">
        <ele>800.6</ele>
        <time>2021-09-08T12:03:50Z</time>
      </trkpt>
      <trkpt lat="44.25365" lon="5.64009">
        <ele>800.6</ele>
        <time>2021-09-08T12:03:51Z</time>
      </trkpt>
      <trkpt lat="44.25365" lon="5.64009">
        <ele>800.6</ele>
        <time>2021-09-08T12:03:52Z</time>
      </trkpt>
      <trkpt lat="44.25365" lon="5.64009">
        <ele>800.6</ele>
        <time>2021-09-08T12:03:54Z</time>
      </trkpt>
      <trkpt lat="44.25365" lon="5.6401">
        <ele>800.6</ele>
        <time>2021-09-08T12:03:55Z</time>
      </trkpt>
      <trkpt lat="44.25366" lon="5.64012">
        <ele>800.5</ele>
        <time>2021-09-08T12:03:57Z</time>
      </trkpt>
      <trkpt lat="44.25367" lon="5.64013">
        <ele>800.5</ele>
        <time>2021-09-08T12:03:58Z</time>
      </trkpt>
      <trkpt lat="44.25367" lon="5.64014">
        <ele>800.4</ele>
        <time>2021-09-08T12:03:59Z</time>
      </trkpt>
      <trkpt lat="44.25368" lon="5.64016">
        <ele>800.4</ele>
        <time>2021-09-08T12:04:01Z</time>
      </trkpt>
      <trkpt lat="44.25368" lon="5.64017">
        <ele>800.3</ele>
        <time>2021-09-08T12:04:02Z</time>
      </trkpt>
      <trkpt lat="44.25369" lon="5.64019">
        <ele>800.3</ele>
        <time>2021-09-08T12:04:04Z</time>
      </trkpt>
      <trkpt lat="44.25369" lon="5.6402">
        <ele>800.3</ele>
        <time>2021-09-08T12:04:05Z</time>
      </trkpt>
      <trkpt lat="44.25374" lon="5.64023">
        <ele>800.1</ele>
        <time>2021-09-08T12:04:07Z</time>
      </trkpt>
      <trkpt lat="44.2538" lon="5.64023">
        <ele>800</ele>
        <time>2021-09-08T12:04:09Z</time>
      </trkpt>
      <trkpt lat="44.25382" lon="5.64022">
        <ele>799.9</ele>
        <time>2021-09-08T12:04:10Z</time>
      </trkpt>
      <trkpt lat="44.25385" lon="5.64022">
        <ele>799.8</ele>
        <time>2021-09-08T12:04:12Z</time>
      </trkpt>
      <trkpt lat="44.25385" lon="5.64024">
        <ele>799.8</ele>
        <time>2021-09-08T12:04:13Z</time>
      </trkpt>
      <trkpt lat="44.25386" lon="5.64026">
        <ele>799.8</ele>
        <time>2021-09-08T12:04:14Z</time>
      </trkpt>
      <trkpt lat="44.25386" lon="5.64027">
        <ele>799.8</ele>
        <time>2021-09-08T12:04:16Z</time>
      </trkpt>
      <trkpt lat="44.25386" lon="5.64027">
        <ele>799.8</ele>
        <time>2021-09-08T12:04:18Z</time>
      </trkpt>
      <trkpt lat="44.25386" lon="5.64027">
        <ele>799.8</ele>
        <time>2021-09-08T12:04:20Z</time>
      </trkpt>
      <trkpt lat="44.25386" lon="5.64027">
        <ele>799.8</ele>
        <time>2021-09-08T12:04:22Z</time>
      </trkpt>
      <trkpt lat="44.25386" lon="5.64027">
        <ele>799.8</ele>
        <time>2021-09-08T12:04:23Z</time>
      </trkpt>
      <trkpt lat="44.25386" lon="5.64027">
        <ele>799.8</ele>
        <time>2021-09-08T12:04:24Z</time>
      </trkpt>
      <trkpt lat="44.25386" lon="5.64027">
        <ele>799.8</ele>
        <time>2021-09-08T12:04:26Z</time>
      </trkpt>
      <trkpt lat="44.25386" lon="5.64027">
        <ele>799.8</ele>
        <time>2021-09-08T12:04:28Z</time>
      </trkpt>
      <trkpt lat="44.25386" lon="5.64027">
        <ele>799.8</ele>
        <time>2021-09-08T12:04:29Z</time>
      </trkpt>
      <trkpt lat="44.25386" lon="5.64027">
        <ele>799.8</ele>
        <time>2021-09-08T12:04:31Z</time>
      </trkpt>
      <trkpt lat="44.25386" lon="5.64027">
        <ele>799.8</ele>
        <time>2021-09-08T12:04:32Z</time>
      </trkpt>
      <trkpt lat="44.25386" lon="5.64027">
        <ele>799.8</ele>
        <time>2021-09-08T12:04:33Z</time>
      </trkpt>
      <trkpt lat="44.25386" lon="5.64027">
        <ele>799.8</ele>
        <time>2021-09-08T12:04:34Z</time>
      </trkpt>
      <trkpt lat="44.25386" lon="5.64027">
        <ele>799.8</ele>
        <time>2021-09-08T12:04:36Z</time>
      </trkpt>
      <trkpt lat="44.25386" lon="5.64027">
        <ele>799.8</ele>
        <time>2021-09-08T12:04:38Z</time>
      </trkpt>
      <trkpt lat="44.25386" lon="5.64027">
        <ele>799.8</ele>
        <time>2021-09-08T12:04:39Z</time>
      </trkpt>
      <trkpt lat="44.25386" lon="5.64027">
        <ele>799.8</ele>
        <time>2021-09-08T12:04:41Z</time>
      </trkpt>
      <trkpt lat="44.25386" lon="5.64027">
        <ele>799.8</ele>
        <time>2021-09-08T12:04:43Z</time>
      </trkpt>
      <trkpt lat="44.25386" lon="5.64027">
        <ele>799.8</ele>
        <time>2021-09-08T12:04:44Z</time>
      </trkpt>
      <trkpt lat="44.25386" lon="5.64027">
        <ele>799.8</ele>
        <time>2021-09-08T12:04:45Z</time>
      </trkpt>
      <trkpt lat="44.25386" lon="5.64027">
        <ele>799.8</ele>
        <time>2021-09-08T12:04:47Z</time>
      </trkpt>
      <trkpt lat="44.25386" lon="5.64027">
        <ele>799.8</ele>
        <time>2021-09-08T12:04:48Z</time>
      </trkpt>
      <trkpt lat="44.25386" lon="5.64027">
        <ele>799.8</ele>
        <time>2021-09-08T12:04:50Z</time>
      </trkpt>
      <trkpt lat="44.25386" lon="5.64027">
        <ele>799.8</ele>
        <time>2021-09-08T12:04:51Z</time>
      </trkpt>
      <trkpt lat="44.25386" lon="5.64027">
        <ele>799.8</ele>
        <time>2021-09-08T12:04:53Z</time>
      </trkpt>
      <trkpt lat="44.25386" lon="5.64027">
        <ele>799.8</ele>
        <time>2021-09-08T12:04:54Z</time>
      </trkpt>
      <trkpt lat="44.25386" lon="5.64027">
        <ele>799.8</ele>
        <time>2021-09-08T12:04:55Z</time>
      </trkpt>
      <trkpt lat="44.25386" lon="5.64027">
        <ele>799.8</ele>
        <time>2021-09-08T12:04:57Z</time>
      </trkpt>
      <trkpt lat="44.25386" lon="5.64027">
        <ele>799.8</ele>
        <time>2021-09-08T12:04:58Z</time>
      </trkpt>
      <trkpt lat="44.25386" lon="5.64027">
        <ele>799.8</ele>
        <time>2021-09-08T12:05:00Z</time>
      </trkpt>
      <trkpt lat="44.25386" lon="5.64027">
        <ele>799.8</ele>
        <time>2021-09-08T12:05:02Z</time>
      </trkpt>
      <trkpt lat="44.25386" lon="5.64027">
        <ele>799.8</ele>
        <time>2021-09-08T12:05:04Z</time>
      </trkpt>
      <trkpt lat="44.25386" lon="5.64027">
        <ele>799.8</ele>
        <time>2021-09-08T12:05:05Z</time>
      </trkpt>
      <trkpt lat="44.25386" lon="5.64027">
        <ele>799.8</ele>
        <time>2021-09-08T12:05:07Z</time>
      </trkpt>
      <trkpt lat="44.25386" lon="5.64027">
        <ele>799.8</ele>
        <time>2021-09-08T12:05:09Z</time>
      </trkpt>
      <trkpt lat="44.25386" lon="5.64027">
        <ele>799.8</ele>
        <time>2021-09-08T12:05:11Z</time>
      </trkpt>
      <trkpt lat="44.25386" lon="5.64027">
        <ele>799.8</ele>
        <time>2021-09-08T12:05:13Z</time>
      </trkpt>
      <trkpt lat="44.25386" lon="5.64027">
        <ele>799.8</ele>
        <time>2021-09-08T12:05:14Z</time>
      </trkpt>
      <trkpt lat="44.25386" lon="5.64026">
        <ele>799.8</ele>
        <time>2021-09-08T12:05:17Z</time>
      </trkpt>
      <trkpt lat="44.25386" lon="5.64023">
        <ele>799.8</ele>
        <time>2021-09-08T12:05:19Z</time>
      </trkpt>
      <trkpt lat="44.25387" lon="5.64021">
        <ele>799.7</ele>
        <time>2021-09-08T12:05:21Z</time>
      </trkpt>
      <trkpt lat="44.25387" lon="5.64019">
        <ele>799.7</ele>
        <time>2021-09-08T12:05:23Z</time>
      </trkpt>
      <trkpt lat="44.25387" lon="5.64018">
        <ele>799.7</ele>
        <time>2021-09-08T12:05:25Z</time>
      </trkpt>
      <trkpt lat="44.25387" lon="5.64016">
        <ele>799.7</ele>
        <time>2021-09-08T12:05:27Z</time>
      </trkpt>
      <trkpt lat="44.25387" lon="5.64016">
        <ele>799.7</ele>
        <time>2021-09-08T12:05:28Z</time>
      </trkpt>
      <trkpt lat="44.25387" lon="5.64015">
        <ele>799.7</ele>
        <time>2021-09-08T12:05:30Z</time>
      </trkpt>
      <trkpt lat="44.25387" lon="5.64015">
        <ele>799.7</ele>
        <time>2021-09-08T12:05:31Z</time>
      </trkpt>
      <trkpt lat="44.25387" lon="5.64014">
        <ele>799.7</ele>
        <time>2021-09-08T12:05:33Z</time>
      </trkpt>
      <trkpt lat="44.25387" lon="5.64014">
        <ele>799.7</ele>
        <time>2021-09-08T12:05:34Z</time>
      </trkpt>
      <trkpt lat="44.25387" lon="5.64014">
        <ele>799.7</ele>
        <time>2021-09-08T12:05:35Z</time>
      </trkpt>
      <trkpt lat="44.25387" lon="5.64014">
        <ele>799.7</ele>
        <time>2021-09-08T12:05:37Z</time>
      </trkpt>
      <trkpt lat="44.25387" lon="5.64014">
        <ele>799.7</ele>
        <time>2021-09-08T12:05:38Z</time>
      </trkpt>
      <trkpt lat="44.25387" lon="5.64014">
        <ele>799.7</ele>
        <time>2021-09-08T12:05:39Z</time>
      </trkpt>
      <trkpt lat="44.25387" lon="5.64013">
        <ele>799.7</ele>
        <time>2021-09-08T12:05:41Z</time>
      </trkpt>
      <trkpt lat="44.25387" lon="5.64013">
        <ele>799.7</ele>
        <time>2021-09-08T12:05:42Z</time>
      </trkpt>
      <trkpt lat="44.25387" lon="5.64013">
        <ele>799.7</ele>
        <time>2021-09-08T12:05:44Z</time>
      </trkpt>
      <trkpt lat="44.25387" lon="5.64013">
        <ele>799.7</ele>
        <time>2021-09-08T12:05:45Z</time>
      </trkpt>
      <trkpt lat="44.25387" lon="5.64013">
        <ele>799.7</ele>
        <time>2021-09-08T12:05:47Z</time>
      </trkpt>
      <trkpt lat="44.25387" lon="5.64013">
        <ele>799.7</ele>
        <time>2021-09-08T12:05:48Z</time>
      </trkpt>
      <trkpt lat="44.25387" lon="5.64013">
        <ele>799.7</ele>
        <time>2021-09-08T12:05:49Z</time>
      </trkpt>
      <trkpt lat="44.25388" lon="5.64013">
        <ele>799.7</ele>
        <time>2021-09-08T12:05:51Z</time>
      </trkpt>
      <trkpt lat="44.25389" lon="5.64013">
        <ele>799.7</ele>
        <time>2021-09-08T12:05:53Z</time>
      </trkpt>
      <trkpt lat="44.2539" lon="5.64013">
        <ele>799.7</ele>
        <time>2021-09-08T12:05:55Z</time>
      </trkpt>
      <trkpt lat="44.25391" lon="5.64013">
        <ele>799.7</ele>
        <time>2021-09-08T12:05:56Z</time>
      </trkpt>
      <trkpt lat="44.25392" lon="5.64012">
        <ele>799.7</ele>
        <time>2021-09-08T12:05:58Z</time>
      </trkpt>
      <trkpt lat="44.25404" lon="5.64021">
        <ele>799.7</ele>
        <time>2021-09-08T12:06:00Z</time>
      </trkpt>
      <trkpt lat="44.25405" lon="5.64025">
        <ele>799.8</ele>
        <time>2021-09-08T12:06:02Z</time>
      </trkpt>
      <trkpt lat="44.25402" lon="5.64028">
        <ele>799.8</ele>
        <time>2021-09-08T12:06:04Z</time>
      </trkpt>
      <trkpt lat="44.254" lon="5.64029">
        <ele>799.8</ele>
        <time>2021-09-08T12:06:05Z</time>
      </trkpt>
      <trkpt lat="44.254" lon="5.6403">
        <ele>799.8</ele>
        <time>2021-09-08T12:06:07Z</time>
      </trkpt>
      <trkpt lat="44.25399" lon="5.6403">
        <ele>799.8</ele>
        <time>2021-09-08T12:06:08Z</time>
      </trkpt>
      <trkpt lat="44.25395" lon="5.64033">
        <ele>799.9</ele>
        <time>2021-09-08T12:06:10Z</time>
      </trkpt>
      <trkpt lat="44.25392" lon="5.64034">
        <ele>800</ele>
        <time>2021-09-08T12:06:11Z</time>
      </trkpt>
      <trkpt lat="44.25388" lon="5.64036">
        <ele>800.1</ele>
        <time>2021-09-08T12:06:12Z</time>
      </trkpt>
      <trkpt lat="44.25381" lon="5.64039">
        <ele>800.2</ele>
        <time>2021-09-08T12:06:14Z</time>
      </trkpt>
      <trkpt lat="44.25379" lon="5.64042">
        <ele>800.3</ele>
        <time>2021-09-08T12:06:16Z</time>
      </trkpt>
      <trkpt lat="44.25379" lon="5.64043">
        <ele>800.3</ele>
        <time>2021-09-08T12:06:17Z</time>
      </trkpt>
      <trkpt lat="44.25379" lon="5.64047">
        <ele>800.4</ele>
        <time>2021-09-08T12:06:19Z</time>
      </trkpt>
      <trkpt lat="44.25379" lon="5.64047">
        <ele>800.4</ele>
        <time>2021-09-08T12:06:20Z</time>
      </trkpt>
      <trkpt lat="44.25379" lon="5.64046">
        <ele>800.4</ele>
        <time>2021-09-08T12:06:21Z</time>
      </trkpt>
      <trkpt lat="44.25379" lon="5.64046">
        <ele>800.4</ele>
        <time>2021-09-08T12:06:23Z</time>
      </trkpt>
      <trkpt lat="44.25379" lon="5.64046">
        <ele>800.4</ele>
        <time>2021-09-08T12:06:25Z</time>
      </trkpt>
      <trkpt lat="44.25379" lon="5.64045">
        <ele>800.4</ele>
        <time>2021-09-08T12:06:26Z</time>
      </trkpt>
      <trkpt lat="44.25379" lon="5.64045">
        <ele>800.4</ele>
        <time>2021-09-08T12:06:28Z</time>
      </trkpt>
      <trkpt lat="44.25379" lon="5.64045">
        <ele>800.4</ele>
        <time>2021-09-08T12:06:30Z</time>
      </trkpt>
      <trkpt lat="44.25379" lon="5.64044">
        <ele>800.4</ele>
        <time>2021-09-08T12:06:32Z</time>
      </trkpt>
      <trkpt lat="44.25379" lon="5.64044">
        <ele>800.4</ele>
        <time>2021-09-08T12:06:33Z</time>
      </trkpt>
      <trkpt lat="44.25379" lon="5.64043">
        <ele>800.4</ele>
        <time>2021-09-08T12:06:34Z</time>
      </trkpt>
      <trkpt lat="44.25378" lon="5.64042">
        <ele>800.5</ele>
        <time>2021-09-08T12:06:35Z</time>
      </trkpt>
      <trkpt lat="44.25377" lon="5.64042">
        <ele>800.5</ele>
        <time>2021-09-08T12:06:37Z</time>
      </trkpt>
      <trkpt lat="44.25376" lon="5.64041">
        <ele>800.5</ele>
        <time>2021-09-08T12:06:38Z</time>
      </trkpt>
      <trkpt lat="44.25376" lon="5.64041">
        <ele>800.5</ele>
        <time>2021-09-08T12:06:39Z</time>
      </trkpt>
      <trkpt lat="44.25376" lon="5.64041">
        <ele>800.5</ele>
        <time>2021-09-08T12:06:41Z</time>
      </trkpt>
      <trkpt lat="44.25376" lon="5.64041">
        <ele>800.5</ele>
        <time>2021-09-08T12:06:42Z</time>
      </trkpt>
      <trkpt lat="44.25376" lon="5.64041">
        <ele>800.5</ele>
        <time>2021-09-08T12:06:44Z</time>
      </trkpt>
      <trkpt lat="44.25376" lon="5.64041">
        <ele>800.5</ele>
        <time>2021-09-08T12:06:45Z</time>
      </trkpt>
      <trkpt lat="44.25376" lon="5.64041">
        <ele>800.5</ele>
        <time>2021-09-08T12:06:47Z</time>
      </trkpt>
      <trkpt lat="44.25376" lon="5.64041">
        <ele>800.5</ele>
        <time>2021-09-08T12:06:49Z</time>
      </trkpt>
      <trkpt lat="44.25376" lon="5.64041">
        <ele>800.5</ele>
        <time>2021-09-08T12:06:51Z</time>
      </trkpt>
      <trkpt lat="44.25376" lon="5.64041">
        <ele>800.5</ele>
        <time>2021-09-08T12:06:52Z</time>
      </trkpt>
      <trkpt lat="44.25376" lon="5.64041">
        <ele>800.5</ele>
        <time>2021-09-08T12:06:53Z</time>
      </trkpt>
      <trkpt lat="44.25376" lon="5.64041">
        <ele>800.5</ele>
        <time>2021-09-08T12:06:55Z</time>
      </trkpt>
      <trkpt lat="44.25376" lon="5.64041">
        <ele>800.5</ele>
        <time>2021-09-08T12:06:56Z</time>
      </trkpt>
      <trkpt lat="44.25376" lon="5.64041">
        <ele>800.5</ele>
        <time>2021-09-08T12:06:58Z</time>
      </trkpt>
      <trkpt lat="44.25376" lon="5.64041">
        <ele>800.5</ele>
        <time>2021-09-08T12:07:00Z</time>
      </trkpt>
      <trkpt lat="44.25376" lon="5.64041">
        <ele>800.5</ele>
        <time>2021-09-08T12:07:01Z</time>
      </trkpt>
      <trkpt lat="44.25376" lon="5.64041">
        <ele>800.5</ele>
        <time>2021-09-08T12:07:03Z</time>
      </trkpt>
      <trkpt lat="44.25376" lon="5.64041">
        <ele>800.5</ele>
        <time>2021-09-08T12:07:05Z</time>
      </trkpt>
      <trkpt lat="44.25376" lon="5.64041">
        <ele>800.5</ele>
        <time>2021-09-08T12:07:07Z</time>
      </trkpt>
      <trkpt lat="44.25376" lon="5.64041">
        <ele>800.5</ele>
        <time>2021-09-08T12:07:08Z</time>
      </trkpt>
      <trkpt lat="44.25376" lon="5.64041">
        <ele>800.5</ele>
        <time>2021-09-08T12:07:10Z</time>
      </trkpt>
      <trkpt lat="44.25376" lon="5.64041">
        <ele>800.5</ele>
        <time>2021-09-08T12:07:12Z</time>
      </trkpt>
      <trkpt lat="44.25376" lon="5.64041">
        <ele>800.5</ele>
        <time>2021-09-08T12:07:14Z</time>
      </trkpt>
      <trkpt lat="44.25376" lon="5.64041">
        <ele>800.5</ele>
        <time>2021-09-08T12:07:15Z</time>
      </trkpt>
      <trkpt lat="44.25376" lon="5.64041">
        <ele>800.5</ele>
        <time>2021-09-08T12:07:17Z</time>
      </trkpt>
      <trkpt lat="44.25376" lon="5.64041">
        <ele>800.5</ele>
        <time>2021-09-08T12:07:18Z</time>
      </trkpt>
      <trkpt lat="44.25376" lon="5.64041">
        <ele>800.5</ele>
        <time>2021-09-08T12:07:19Z</time>
      </trkpt>
      <trkpt lat="44.25376" lon="5.64041">
        <ele>800.5</ele>
        <time>2021-09-08T12:07:21Z</time>
      </trkpt>
      <trkpt lat="44.25376" lon="5.64041">
        <ele>800.5</ele>
        <time>2021-09-08T12:07:22Z</time>
      </trkpt>
      <trkpt lat="44.25376" lon="5.64041">
        <ele>800.5</ele>
        <time>2021-09-08T12:07:24Z</time>
      </trkpt>
      <trkpt lat="44.25376" lon="5.64041">
        <ele>800.5</ele>
        <time>2021-09-08T12:07:26Z</time>
      </trkpt>
      <trkpt lat="44.25376" lon="5.64041">
        <ele>800.5</ele>
        <time>2021-09-08T12:07:27Z</time>
      </trkpt>
      <trkpt lat="44.25376" lon="5.64041">
        <ele>800.5</ele>
        <time>2021-09-08T12:07:29Z</time>
      </trkpt>
      <trkpt lat="44.25376" lon="5.64041">
        <ele>800.5</ele>
        <time>2021-09-08T12:07:31Z</time>
      </trkpt>
      <trkpt lat="44.25373" lon="5.6404">
        <ele>800.6</ele>
        <time>2021-09-08T12:07:32Z</time>
      </trkpt>
      <trkpt lat="44.2537" lon="5.64039">
        <ele>800.7</ele>
        <time>2021-09-08T12:07:33Z</time>
      </trkpt>
      <trkpt lat="44.25369" lon="5.64039">
        <ele>800.7</ele>
        <time>2021-09-08T12:07:34Z</time>
      </trkpt>
      <trkpt lat="44.25368" lon="5.64039">
        <ele>800.8</ele>
        <time>2021-09-08T12:07:35Z</time>
      </trkpt>
      <trkpt lat="44.25366" lon="5.6404">
        <ele>800.8</ele>
        <time>2021-09-08T12:07:36Z</time>
      </trkpt>
      <trkpt lat="44.25366" lon="5.64042">
        <ele>800.9</ele>
        <time>2021-09-08T12:07:38Z</time>
      </trkpt>
      <trkpt lat="44.25365" lon="5.64042">
        <ele>800.9</ele>
        <time>2021-09-08T12:07:39Z</time>
      </trkpt>
      <trkpt lat="44.25365" lon="5.64042">
        <ele>800.9</ele>
        <time>2021-09-08T12:07:41Z</time>
      </trkpt>
      <trkpt lat="44.25364" lon="5.64044">
        <ele>800.9</ele>
        <time>2021-09-08T12:07:43Z</time>
      </trkpt>
      <trkpt lat="44.25363" lon="5.64045">
        <ele>801</ele>
        <time>2021-09-08T12:07:44Z</time>
      </trkpt>
      <trkpt lat="44.25362" lon="5.64047">
        <ele>801.1</ele>
        <time>2021-09-08T12:07:46Z</time>
      </trkpt>
      <trkpt lat="44.25363" lon="5.64047">
        <ele>801.1</ele>
        <time>2021-09-08T12:07:47Z</time>
      </trkpt>
      <trkpt lat="44.25363" lon="5.64049">
        <ele>801.1</ele>
        <time>2021-09-08T12:07:48Z</time>
      </trkpt>
      <trkpt lat="44.25363" lon="5.64049">
        <ele>801.1</ele>
        <time>2021-09-08T12:07:49Z</time>
      </trkpt>
      <trkpt lat="44.25364" lon="5.64049">
        <ele>801.1</ele>
        <time>2021-09-08T12:07:50Z</time>
      </trkpt>
      <trkpt lat="44.25364" lon="5.6405">
        <ele>801.1</ele>
        <time>2021-09-08T12:07:52Z</time>
      </trkpt>
      <trkpt lat="44.25364" lon="5.6405">
        <ele>801.1</ele>
        <time>2021-09-08T12:07:54Z</time>
      </trkpt>
      <trkpt lat="44.25364" lon="5.6405">
        <ele>801.1</ele>
        <time>2021-09-08T12:07:55Z</time>
      </trkpt>
      <trkpt lat="44.25364" lon="5.6405">
        <ele>801.1</ele>
        <time>2021-09-08T12:07:57Z</time>
      </trkpt>
      <trkpt lat="44.25364" lon="5.6405">
        <ele>801.1</ele>
        <time>2021-09-08T12:07:58Z</time>
      </trkpt>
      <trkpt lat="44.25364" lon="5.6405">
        <ele>801.1</ele>
        <time>2021-09-08T12:08:00Z</time>
      </trkpt>
      <trkpt lat="44.25364" lon="5.6405">
        <ele>801.1</ele>
        <time>2021-09-08T12:08:02Z</time>
      </trkpt>
      <trkpt lat="44.25364" lon="5.6405">
        <ele>801.1</ele>
        <time>2021-09-08T12:08:03Z</time>
      </trkpt>
      <trkpt lat="44.25364" lon="5.6405">
        <ele>801.1</ele>
        <time>2021-09-08T12:08:05Z</time>
      </trkpt>
      <trkpt lat="44.25364" lon="5.6405">
        <ele>801.1</ele>
        <time>2021-09-08T12:08:06Z</time>
      </trkpt>
      <trkpt lat="44.25364" lon="5.6405">
        <ele>801.1</ele>
        <time>2021-09-08T12:08:07Z</time>
      </trkpt>
      <trkpt lat="44.25364" lon="5.6405">
        <ele>801.1</ele>
        <time>2021-09-08T12:08:08Z</time>
      </trkpt>
      <trkpt lat="44.25364" lon="5.6405">
        <ele>801.1</ele>
        <time>2021-09-08T12:08:10Z</time>
      </trkpt>
      <trkpt lat="44.25364" lon="5.6405">
        <ele>801.1</ele>
        <time>2021-09-08T12:08:11Z</time>
      </trkpt>
      <trkpt lat="44.25364" lon="5.6405">
        <ele>801.1</ele>
        <time>2021-09-08T12:08:13Z</time>
      </trkpt>
      <trkpt lat="44.25367" lon="5.64044">
        <ele>801.3</ele>
        <time>2021-09-08T12:08:15Z</time>
      </trkpt>
      <trkpt lat="44.2537" lon="5.64038">
        <ele>801.6</ele>
        <time>2021-09-08T12:08:17Z</time>
      </trkpt>
      <trkpt lat="44.25372" lon="5.64034">
        <ele>801.7</ele>
        <time>2021-09-08T12:08:18Z</time>
      </trkpt>
      <trkpt lat="44.25373" lon="5.64033">
        <ele>801.7</ele>
        <time>2021-09-08T12:08:19Z</time>
      </trkpt>
      <trkpt lat="44.25374" lon="5.64031">
        <ele>801.8</ele>
        <time>2021-09-08T12:08:21Z</time>
      </trkpt>
      <trkpt lat="44.25374" lon="5.64031">
        <ele>801.8</ele>
        <time>2021-09-08T12:08:22Z</time>
      </trkpt>
      <trkpt lat="44.25373" lon="5.64033">
        <ele>801.9</ele>
        <time>2021-09-08T12:08:24Z</time>
      </trkpt>
      <trkpt lat="44.25373" lon="5.64034">
        <ele>801.9</ele>
        <time>2021-09-08T12:08:25Z</time>
      </trkpt>
      <trkpt lat="44.25373" lon="5.64034">
        <ele>802</ele>
        <time>2021-09-08T12:08:27Z</time>
      </trkpt>
      <trkpt lat="44.25373" lon="5.64034">
        <ele>802</ele>
        <time>2021-09-08T12:08:29Z</time>
      </trkpt>
      <trkpt lat="44.25373" lon="5.64035">
        <ele>802</ele>
        <time>2021-09-08T12:08:30Z</time>
      </trkpt>
      <trkpt lat="44.25373" lon="5.64035">
        <ele>802</ele>
        <time>2021-09-08T12:08:32Z</time>
      </trkpt>
      <trkpt lat="44.25378" lon="5.64035">
        <ele>802.2</ele>
        <time>2021-09-08T12:08:34Z</time>
      </trkpt>
      <trkpt lat="44.2538" lon="5.64034">
        <ele>802.3</ele>
        <time>2021-09-08T12:08:36Z</time>
      </trkpt>
      <trkpt lat="44.25382" lon="5.64034">
        <ele>802.4</ele>
        <time>2021-09-08T12:08:38Z</time>
      </trkpt>
      <trkpt lat="44.25382" lon="5.64036">
        <ele>802.4</ele>
        <time>2021-09-08T12:08:39Z</time>
      </trkpt>
      <trkpt lat="44.25381" lon="5.64038">
        <ele>802.5</ele>
        <time>2021-09-08T12:08:41Z</time>
      </trkpt>
      <trkpt lat="44.25381" lon="5.6404">
        <ele>802.6</ele>
        <time>2021-09-08T12:08:42Z</time>
      </trkpt>
      <trkpt lat="44.25379" lon="5.64045">
        <ele>802.7</ele>
        <time>2021-09-08T12:08:43Z</time>
      </trkpt>
      <trkpt lat="44.25379" lon="5.64047">
        <ele>802.8</ele>
        <time>2021-09-08T12:08:44Z</time>
      </trkpt>
      <trkpt lat="44.25379" lon="5.64054">
        <ele>803</ele>
        <time>2021-09-08T12:08:46Z</time>
      </trkpt>
      <trkpt lat="44.25379" lon="5.64059">
        <ele>803.1</ele>
        <time>2021-09-08T12:08:47Z</time>
      </trkpt>
      <trkpt lat="44.25379" lon="5.64067">
        <ele>803.3</ele>
        <time>2021-09-08T12:08:49Z</time>
      </trkpt>
      <trkpt lat="44.25379" lon="5.6407">
        <ele>804.2</ele>
        <time>2021-09-08T12:08:54Z</time>
      </trkpt>
      <trkpt lat="44.25379" lon="5.6407">
        <ele>804.2</ele>
        <time>2021-09-08T12:08:59Z</time>
      </trkpt>
      <trkpt lat="44.25379" lon="5.6407">
        <ele>804.2</ele>
        <time>2021-09-08T12:09:00Z</time>
      </trkpt>
      <trkpt lat="44.25379" lon="5.6407">
        <ele>804.2</ele>
        <time>2021-09-08T12:09:05Z</time>
      </trkpt>
      <trkpt lat="44.25379" lon="5.64071">
        <ele>804.2</ele>
        <time>2021-09-08T12:09:06Z</time>
      </trkpt>
      <trkpt lat="44.25379" lon="5.64071">
        <ele>804.2</ele>
        <time>2021-09-08T12:09:11Z</time>
      </trkpt>
      <trkpt lat="44.25379" lon="5.64072">
        <ele>804.2</ele>
        <time>2021-09-08T12:09:12Z</time>
      </trkpt>
      <trkpt lat="44.25379" lon="5.64072">
        <ele>804.2</ele>
        <time>2021-09-08T12:09:17Z</time>
      </trkpt>
      <trkpt lat="44.25379" lon="5.64072">
        <ele>804.2</ele>
        <time>2021-09-08T12:09:19Z</time>
      </trkpt>
      <trkpt lat="44.25379" lon="5.64072">
        <ele>804.2</ele>
        <time>2021-09-08T12:09:24Z</time>
      </trkpt>
      <trkpt lat="44.25379" lon="5.64072">
        <ele>804.2</ele>
        <time>2021-09-08T12:09:30Z</time>
      </trkpt>
      <trkpt lat="44.25379" lon="5.64071">
        <ele>804.2</ele>
        <time>2021-09-08T12:09:36Z</time>
      </trkpt>
      <trkpt lat="44.2541" lon="5.64035">
        <ele>806.9</ele>
        <time>2021-09-08T12:09:45Z</time>
      </trkpt>
      <trkpt lat="44.2541" lon="5.64035">
        <ele>806.9</ele>
        <time>2021-09-08T12:09:47Z</time>
      </trkpt>
      <trkpt lat="44.2541" lon="5.64035">
        <ele>806.9</ele>
        <time>2021-09-08T12:09:48Z</time>
      </trkpt>
      <trkpt lat="44.2541" lon="5.64035">
        <ele>806.9</ele>
        <time>2021-09-08T12:09:50Z</time>
      </trkpt>
      <trkpt lat="44.2541" lon="5.64035">
        <ele>806.9</ele>
        <time>2021-09-08T12:09:51Z</time>
      </trkpt>
      <trkpt lat="44.2541" lon="5.64035">
        <ele>807</ele>
        <time>2021-09-08T12:09:53Z</time>
      </trkpt>
      <trkpt lat="44.25411" lon="5.64035">
        <ele>807</ele>
        <time>2021-09-08T12:09:55Z</time>
      </trkpt>
      <trkpt lat="44.25431" lon="5.64078">
        <ele>808.8</ele>
        <time>2021-09-08T12:41:46Z</time>
      </trkpt>
      <trkpt lat="44.25433" lon="5.64078">
        <ele>808.9</ele>
        <time>2021-09-08T12:41:47Z</time>
      </trkpt>
      <trkpt lat="44.25434" lon="5.64078">
        <ele>808.9</ele>
        <time>2021-09-08T12:41:48Z</time>
      </trkpt>
      <trkpt lat="44.25435" lon="5.64077">
        <ele>808.9</ele>
        <time>2021-09-08T12:41:49Z</time>
      </trkpt>
      <trkpt lat="44.25435" lon="5.64077">
        <ele>809</ele>
        <time>2021-09-08T12:41:51Z</time>
      </trkpt>
      <trkpt lat="44.25434" lon="5.64077">
        <ele>809</ele>
        <time>2021-09-08T12:41:52Z</time>
      </trkpt>
      <trkpt lat="44.25434" lon="5.64076">
        <ele>809</ele>
        <time>2021-09-08T12:41:53Z</time>
      </trkpt>
      <trkpt lat="44.25436" lon="5.64077">
        <ele>809.1</ele>
        <time>2021-09-08T12:41:54Z</time>
      </trkpt>
      <trkpt lat="44.25437" lon="5.64077">
        <ele>809.1</ele>
        <time>2021-09-08T12:41:55Z</time>
      </trkpt>
      <trkpt lat="44.25437" lon="5.64078">
        <ele>809.1</ele>
        <time>2021-09-08T12:41:57Z</time>
      </trkpt>
      <trkpt lat="44.25438" lon="5.64079">
        <ele>809.2</ele>
        <time>2021-09-08T12:41:58Z</time>
      </trkpt>
      <trkpt lat="44.25439" lon="5.6408">
        <ele>809.2</ele>
        <time>2021-09-08T12:41:59Z</time>
      </trkpt>
      <trkpt lat="44.25441" lon="5.64083">
        <ele>809.4</ele>
        <time>2021-09-08T12:42:01Z</time>
      </trkpt>
      <trkpt lat="44.25441" lon="5.64084">
        <ele>809.4</ele>
        <time>2021-09-08T12:42:02Z</time>
      </trkpt>
      <trkpt lat="44.25442" lon="5.64086">
        <ele>809.4</ele>
        <time>2021-09-08T12:42:03Z</time>
      </trkpt>
      <trkpt lat="44.25443" lon="5.64087">
        <ele>809.5</ele>
        <time>2021-09-08T12:42:04Z</time>
      </trkpt>
      <trkpt lat="44.25443" lon="5.64088">
        <ele>809.5</ele>
        <time>2021-09-08T12:42:06Z</time>
      </trkpt>
      <trkpt lat="44.25444" lon="5.64089">
        <ele>809.6</ele>
        <time>2021-09-08T12:42:07Z</time>
      </trkpt>
      <trkpt lat="44.25444" lon="5.64092">
        <ele>809.7</ele>
        <time>2021-09-08T12:42:08Z</time>
      </trkpt>
      <trkpt lat="44.25444" lon="5.64094">
        <ele>809.7</ele>
        <time>2021-09-08T12:42:09Z</time>
      </trkpt>
      <trkpt lat="44.25444" lon="5.64096">
        <ele>809.8</ele>
        <time>2021-09-08T12:42:11Z</time>
      </trkpt>
      <trkpt lat="44.25444" lon="5.64095">
        <ele>809.8</ele>
        <time>2021-09-08T12:42:12Z</time>
      </trkpt>
      <trkpt lat="44.25445" lon="5.64095">
        <ele>809.8</ele>
        <time>2021-09-08T12:42:13Z</time>
      </trkpt>
      <trkpt lat="44.25445" lon="5.64097">
        <ele>809.9</ele>
        <time>2021-09-08T12:42:15Z</time>
      </trkpt>
      <trkpt lat="44.25446" lon="5.64099">
        <ele>810</ele>
        <time>2021-09-08T12:42:16Z</time>
      </trkpt>
      <trkpt lat="44.25447" lon="5.64101">
        <ele>810</ele>
        <time>2021-09-08T12:42:17Z</time>
      </trkpt>
      <trkpt lat="44.25448" lon="5.64105">
        <ele>810.2</ele>
        <time>2021-09-08T12:42:19Z</time>
      </trkpt>
      <trkpt lat="44.25449" lon="5.64106">
        <ele>810.2</ele>
        <time>2021-09-08T12:42:20Z</time>
      </trkpt>
      <trkpt lat="44.2545" lon="5.64109">
        <ele>810.3</ele>
        <time>2021-09-08T12:42:22Z</time>
      </trkpt>
      <trkpt lat="44.2545" lon="5.64111">
        <ele>810.4</ele>
        <time>2021-09-08T12:42:24Z</time>
      </trkpt>
      <trkpt lat="44.2545" lon="5.64113">
        <ele>810.5</ele>
        <time>2021-09-08T12:42:25Z</time>
      </trkpt>
      <trkpt lat="44.25451" lon="5.64115">
        <ele>810.6</ele>
        <time>2021-09-08T12:42:26Z</time>
      </trkpt>
      <trkpt lat="44.25451" lon="5.64116">
        <ele>810.6</ele>
        <time>2021-09-08T12:42:27Z</time>
      </trkpt>
      <trkpt lat="44.25451" lon="5.64117">
        <ele>810.7</ele>
        <time>2021-09-08T12:42:28Z</time>
      </trkpt>
      <trkpt lat="44.25452" lon="5.64118">
        <ele>810.7</ele>
        <time>2021-09-08T12:42:29Z</time>
      </trkpt>
      <trkpt lat="44.25451" lon="5.6412">
        <ele>810.8</ele>
        <time>2021-09-08T12:42:31Z</time>
      </trkpt>
      <trkpt lat="44.25452" lon="5.64122">
        <ele>810.9</ele>
        <time>2021-09-08T12:42:32Z</time>
      </trkpt>
      <trkpt lat="44.25453" lon="5.64126">
        <ele>811.1</ele>
        <time>2021-09-08T12:42:34Z</time>
      </trkpt>
      <trkpt lat="44.25453" lon="5.64128">
        <ele>811.1</ele>
        <time>2021-09-08T12:42:35Z</time>
      </trkpt>
      <trkpt lat="44.25453" lon="5.64129">
        <ele>811.2</ele>
        <time>2021-09-08T12:42:37Z</time>
      </trkpt>
      <trkpt lat="44.25453" lon="5.6413">
        <ele>811.2</ele>
        <time>2021-09-08T12:42:38Z</time>
      </trkpt>
      <trkpt lat="44.25453" lon="5.6413">
        <ele>811.2</ele>
        <time>2021-09-08T12:42:39Z</time>
      </trkpt>
      <trkpt lat="44.25453" lon="5.6413">
        <ele>811.2</ele>
        <time>2021-09-08T12:42:40Z</time>
      </trkpt>
      <trkpt lat="44.25453" lon="5.6413">
        <ele>811.2</ele>
        <time>2021-09-08T12:42:42Z</time>
      </trkpt>
      <trkpt lat="44.25453" lon="5.6413">
        <ele>811.2</ele>
        <time>2021-09-08T12:42:43Z</time>
      </trkpt>
      <trkpt lat="44.25453" lon="5.6413">
        <ele>811.2</ele>
        <time>2021-09-08T12:42:44Z</time>
      </trkpt>
      <trkpt lat="44.25454" lon="5.64131">
        <ele>811.3</ele>
        <time>2021-09-08T12:42:45Z</time>
      </trkpt>
      <trkpt lat="44.25454" lon="5.64132">
        <ele>811.3</ele>
        <time>2021-09-08T12:42:46Z</time>
      </trkpt>
      <trkpt lat="44.25455" lon="5.64133">
        <ele>811.4</ele>
        <time>2021-09-08T12:42:47Z</time>
      </trkpt>
      <trkpt lat="44.25457" lon="5.64135">
        <ele>811.5</ele>
        <time>2021-09-08T12:42:49Z</time>
      </trkpt>
      <trkpt lat="44.25502" lon="5.64221">
        <ele>815.5</ele>
        <time>2021-09-08T12:43:44Z</time>
      </trkpt>
      <trkpt lat="44.25503" lon="5.64225">
        <ele>815.4</ele>
        <time>2021-09-08T12:43:45Z</time>
      </trkpt>
      <trkpt lat="44.25504" lon="5.64227">
        <ele>815.4</ele>
        <time>2021-09-08T12:43:46Z</time>
      </trkpt>
      <trkpt lat="44.25505" lon="5.64232">
        <ele>815.3</ele>
        <time>2021-09-08T12:43:47Z</time>
      </trkpt>
      <trkpt lat="44.25506" lon="5.64236">
        <ele>815.2</ele>
        <time>2021-09-08T12:43:48Z</time>
      </trkpt>
      <trkpt lat="44.25509" lon="5.64248">
        <ele>815</ele>
        <time>2021-09-08T12:43:49Z</time>
      </trkpt>
      <trkpt lat="44.25513" lon="5.64257">
        <ele>814.9</ele>
        <time>2021-09-08T12:43:51Z</time>
      </trkpt>
      <trkpt lat="44.25514" lon="5.64262">
        <ele>814.8</ele>
        <time>2021-09-08T12:43:52Z</time>
      </trkpt>
      <trkpt lat="44.25518" lon="5.64272">
        <ele>814.5</ele>
        <time>2021-09-08T12:43:54Z</time>
      </trkpt>
      <trkpt lat="44.25523" lon="5.64282">
        <ele>815.5</ele>
        <time>2021-09-08T12:43:56Z</time>
      </trkpt>
      <trkpt lat="44.25527" lon="5.64288">
        <ele>816.9</ele>
        <time>2021-09-08T12:43:57Z</time>
      </trkpt>
      <trkpt lat="44.25532" lon="5.64294">
        <ele>818.4</ele>
        <time>2021-09-08T12:43:59Z</time>
      </trkpt>
      <trkpt lat="44.25537" lon="5.64297">
        <ele>819.7</ele>
        <time>2021-09-08T12:44:01Z</time>
      </trkpt>
      <trkpt lat="44.2554" lon="5.64299">
        <ele>820.4</ele>
        <time>2021-09-08T12:44:02Z</time>
      </trkpt>
      <trkpt lat="44.25543" lon="5.64302">
        <ele>821.3</ele>
        <time>2021-09-08T12:44:03Z</time>
      </trkpt>
      <trkpt lat="44.25545" lon="5.64303">
        <ele>821.6</ele>
        <time>2021-09-08T12:44:04Z</time>
      </trkpt>
      <trkpt lat="44.25547" lon="5.64304">
        <ele>822.1</ele>
        <time>2021-09-08T12:44:05Z</time>
      </trkpt>
      <trkpt lat="44.25548" lon="5.64305">
        <ele>822.6</ele>
        <time>2021-09-08T12:44:07Z</time>
      </trkpt>
      <trkpt lat="44.2555" lon="5.64306">
        <ele>822.8</ele>
        <time>2021-09-08T12:44:08Z</time>
      </trkpt>
      <trkpt lat="44.25551" lon="5.64306">
        <ele>823.2</ele>
        <time>2021-09-08T12:44:09Z</time>
      </trkpt>
      <trkpt lat="44.25552" lon="5.64307">
        <ele>823.4</ele>
        <time>2021-09-08T12:44:10Z</time>
      </trkpt>
      <trkpt lat="44.25554" lon="5.6431">
        <ele>824.1</ele>
        <time>2021-09-08T12:44:11Z</time>
      </trkpt>
      <trkpt lat="44.25555" lon="5.64312">
        <ele>824.4</ele>
        <time>2021-09-08T12:44:13Z</time>
      </trkpt>
      <trkpt lat="44.25557" lon="5.64313">
        <ele>824.8</ele>
        <time>2021-09-08T12:44:15Z</time>
      </trkpt>
      <trkpt lat="44.25558" lon="5.64315">
        <ele>825.2</ele>
        <time>2021-09-08T12:44:16Z</time>
      </trkpt>
      <trkpt lat="44.25559" lon="5.64316">
        <ele>825.6</ele>
        <time>2021-09-08T12:44:17Z</time>
      </trkpt>
      <trkpt lat="44.25561" lon="5.64317">
        <ele>825.9</ele>
        <time>2021-09-08T12:44:18Z</time>
      </trkpt>
      <trkpt lat="44.25562" lon="5.64318">
        <ele>826.3</ele>
        <time>2021-09-08T12:44:19Z</time>
      </trkpt>
      <trkpt lat="44.25565" lon="5.6432">
        <ele>826.9</ele>
        <time>2021-09-08T12:44:21Z</time>
      </trkpt>
      <trkpt lat="44.25567" lon="5.64322">
        <ele>827.6</ele>
        <time>2021-09-08T12:44:22Z</time>
      </trkpt>
      <trkpt lat="44.25568" lon="5.64323">
        <ele>827.8</ele>
        <time>2021-09-08T12:44:23Z</time>
      </trkpt>
      <trkpt lat="44.25571" lon="5.64324">
        <ele>828.4</ele>
        <time>2021-09-08T12:44:25Z</time>
      </trkpt>
      <trkpt lat="44.25572" lon="5.64325">
        <ele>828.6</ele>
        <time>2021-09-08T12:44:26Z</time>
      </trkpt>
      <trkpt lat="44.25574" lon="5.64327">
        <ele>829.3</ele>
        <time>2021-09-08T12:44:27Z</time>
      </trkpt>
      <trkpt lat="44.25575" lon="5.64327">
        <ele>829.6</ele>
        <time>2021-09-08T12:44:28Z</time>
      </trkpt>
      <trkpt lat="44.25578" lon="5.64329">
        <ele>830.2</ele>
        <time>2021-09-08T12:44:29Z</time>
      </trkpt>
      <trkpt lat="44.2558" lon="5.6433">
        <ele>830.5</ele>
        <time>2021-09-08T12:44:31Z</time>
      </trkpt>
      <trkpt lat="44.25581" lon="5.64331">
        <ele>830.7</ele>
        <time>2021-09-08T12:44:32Z</time>
      </trkpt>
      <trkpt lat="44.25582" lon="5.64333">
        <ele>830.9</ele>
        <time>2021-09-08T12:44:33Z</time>
      </trkpt>
      <trkpt lat="44.25585" lon="5.64335">
        <ele>831.2</ele>
        <time>2021-09-08T12:44:34Z</time>
      </trkpt>
      <trkpt lat="44.25586" lon="5.64335">
        <ele>831.2</ele>
        <time>2021-09-08T12:44:35Z</time>
      </trkpt>
      <trkpt lat="44.25587" lon="5.64336">
        <ele>831.4</ele>
        <time>2021-09-08T12:44:36Z</time>
      </trkpt>
      <trkpt lat="44.25589" lon="5.64337">
        <ele>831.6</ele>
        <time>2021-09-08T12:44:37Z</time>
      </trkpt>
      <trkpt lat="44.25591" lon="5.6434">
        <ele>831.8</ele>
        <time>2021-09-08T12:44:38Z</time>
      </trkpt>
      <trkpt lat="44.25593" lon="5.6434">
        <ele>832</ele>
        <time>2021-09-08T12:44:40Z</time>
      </trkpt>
      <trkpt lat="44.25594" lon="5.64341">
        <ele>832.1</ele>
        <time>2021-09-08T12:44:42Z</time>
      </trkpt>
      <trkpt lat="44.25596" lon="5.64342">
        <ele>832.3</ele>
        <time>2021-09-08T12:44:43Z</time>
      </trkpt>
      <trkpt lat="44.25599" lon="5.64346">
        <ele>832.7</ele>
        <time>2021-09-08T12:44:45Z</time>
      </trkpt>
      <trkpt lat="44.256" lon="5.64347">
        <ele>832.8</ele>
        <time>2021-09-08T12:44:46Z</time>
      </trkpt>
      <trkpt lat="44.25601" lon="5.64348">
        <ele>833</ele>
        <time>2021-09-08T12:44:47Z</time>
      </trkpt>
      <trkpt lat="44.25604" lon="5.6435">
        <ele>833.3</ele>
        <time>2021-09-08T12:44:48Z</time>
      </trkpt>
      <trkpt lat="44.25606" lon="5.6435">
        <ele>833.4</ele>
        <time>2021-09-08T12:44:49Z</time>
      </trkpt>
      <trkpt lat="44.25608" lon="5.64353">
        <ele>833.6</ele>
        <time>2021-09-08T12:44:50Z</time>
      </trkpt>
      <trkpt lat="44.25609" lon="5.64354">
        <ele>833.7</ele>
        <time>2021-09-08T12:44:51Z</time>
      </trkpt>
      <trkpt lat="44.25612" lon="5.64357">
        <ele>833.9</ele>
        <time>2021-09-08T12:44:52Z</time>
      </trkpt>
      <trkpt lat="44.25613" lon="5.64358">
        <ele>833.9</ele>
        <time>2021-09-08T12:44:53Z</time>
      </trkpt>
      <trkpt lat="44.25616" lon="5.6436">
        <ele>834.1</ele>
        <time>2021-09-08T12:44:54Z</time>
      </trkpt>
      <trkpt lat="44.25616" lon="5.64361">
        <ele>834.1</ele>
        <time>2021-09-08T12:44:55Z</time>
      </trkpt>
      <trkpt lat="44.25621" lon="5.64365">
        <ele>834.3</ele>
        <time>2021-09-08T12:44:57Z</time>
      </trkpt>
      <trkpt lat="44.25623" lon="5.64366">
        <ele>834.4</ele>
        <time>2021-09-08T12:44:58Z</time>
      </trkpt>
      <trkpt lat="44.25627" lon="5.64369">
        <ele>834.6</ele>
        <time>2021-09-08T12:45:00Z</time>
      </trkpt>
      <trkpt lat="44.25629" lon="5.6437">
        <ele>834.7</ele>
        <time>2021-09-08T12:45:01Z</time>
      </trkpt>
      <trkpt lat="44.25634" lon="5.64373">
        <ele>834.9</ele>
        <time>2021-09-08T12:45:03Z</time>
      </trkpt>
      <trkpt lat="44.25638" lon="5.64375">
        <ele>835</ele>
        <time>2021-09-08T12:45:05Z</time>
      </trkpt>
      <trkpt lat="44.25642" lon="5.64376">
        <ele>835.2</ele>
        <time>2021-09-08T12:45:07Z</time>
      </trkpt>
      <trkpt lat="44.25643" lon="5.64376">
        <ele>835.3</ele>
        <time>2021-09-08T12:45:08Z</time>
      </trkpt>
      <trkpt lat="44.25645" lon="5.64377">
        <ele>835.4</ele>
        <time>2021-09-08T12:45:09Z</time>
      </trkpt>
      <trkpt lat="44.25646" lon="5.64379">
        <ele>835.5</ele>
        <time>2021-09-08T12:45:10Z</time>
      </trkpt>
      <trkpt lat="44.25647" lon="5.64382">
        <ele>835.6</ele>
        <time>2021-09-08T12:45:12Z</time>
      </trkpt>
      <trkpt lat="44.25649" lon="5.64386">
        <ele>835.7</ele>
        <time>2021-09-08T12:45:13Z</time>
      </trkpt>
      <trkpt lat="44.25651" lon="5.6439">
        <ele>836</ele>
        <time>2021-09-08T12:45:14Z</time>
      </trkpt>
      <trkpt lat="44.25652" lon="5.64392">
        <ele>836</ele>
        <time>2021-09-08T12:45:15Z</time>
      </trkpt>
      <trkpt lat="44.25653" lon="5.64396">
        <ele>836.2</ele>
        <time>2021-09-08T12:45:16Z</time>
      </trkpt>
      <trkpt lat="44.25654" lon="5.644">
        <ele>836.4</ele>
        <time>2021-09-08T12:45:17Z</time>
      </trkpt>
      <trkpt lat="44.25654" lon="5.64404">
        <ele>836.6</ele>
        <time>2021-09-08T12:45:18Z</time>
      </trkpt>
      <trkpt lat="44.25654" lon="5.64406">
        <ele>836.7</ele>
        <time>2021-09-08T12:45:19Z</time>
      </trkpt>
      <trkpt lat="44.25655" lon="5.64409">
        <ele>836.9</ele>
        <time>2021-09-08T12:45:20Z</time>
      </trkpt>
      <trkpt lat="44.25656" lon="5.64414">
        <ele>837.1</ele>
        <time>2021-09-08T12:45:21Z</time>
      </trkpt>
      <trkpt lat="44.25658" lon="5.64417">
        <ele>837.3</ele>
        <time>2021-09-08T12:45:22Z</time>
      </trkpt>
      <trkpt lat="44.25661" lon="5.64423">
        <ele>837.8</ele>
        <time>2021-09-08T12:45:24Z</time>
      </trkpt>
      <trkpt lat="44.25663" lon="5.64426">
        <ele>838.5</ele>
        <time>2021-09-08T12:45:25Z</time>
      </trkpt>
      <trkpt lat="44.25666" lon="5.6443">
        <ele>838.8</ele>
        <time>2021-09-08T12:45:27Z</time>
      </trkpt>
      <trkpt lat="44.25666" lon="5.64432">
        <ele>839</ele>
        <time>2021-09-08T12:45:28Z</time>
      </trkpt>
      <trkpt lat="44.25668" lon="5.64437">
        <ele>839.4</ele>
        <time>2021-09-08T12:45:30Z</time>
      </trkpt>
      <trkpt lat="44.25669" lon="5.6444">
        <ele>839.7</ele>
        <time>2021-09-08T12:45:32Z</time>
      </trkpt>
      <trkpt lat="44.25672" lon="5.64443">
        <ele>840.2</ele>
        <time>2021-09-08T12:45:34Z</time>
      </trkpt>
      <trkpt lat="44.25675" lon="5.64444">
        <ele>840.5</ele>
        <time>2021-09-08T12:45:35Z</time>
      </trkpt>
      <trkpt lat="44.25677" lon="5.64445">
        <ele>840.9</ele>
        <time>2021-09-08T12:45:37Z</time>
      </trkpt>
      <trkpt lat="44.25679" lon="5.64448">
        <ele>841.3</ele>
        <time>2021-09-08T12:45:38Z</time>
      </trkpt>
      <trkpt lat="44.2568" lon="5.6445">
        <ele>841.4</ele>
        <time>2021-09-08T12:45:39Z</time>
      </trkpt>
      <trkpt lat="44.25682" lon="5.64453">
        <ele>841.8</ele>
        <time>2021-09-08T12:45:40Z</time>
      </trkpt>
      <trkpt lat="44.25682" lon="5.64454">
        <ele>841.9</ele>
        <time>2021-09-08T12:45:41Z</time>
      </trkpt>
      <trkpt lat="44.25682" lon="5.64457">
        <ele>842.1</ele>
        <time>2021-09-08T12:45:42Z</time>
      </trkpt>
      <trkpt lat="44.25683" lon="5.64458">
        <ele>842.2</ele>
        <time>2021-09-08T12:45:43Z</time>
      </trkpt>
      <trkpt lat="44.25683" lon="5.64458">
        <ele>842.3</ele>
        <time>2021-09-08T12:45:45Z</time>
      </trkpt>
      <trkpt lat="44.25683" lon="5.64458">
        <ele>842.3</ele>
        <time>2021-09-08T12:45:46Z</time>
      </trkpt>
      <trkpt lat="44.25684" lon="5.64459">
        <ele>842.4</ele>
        <time>2021-09-08T12:45:47Z</time>
      </trkpt>
      <trkpt lat="44.25684" lon="5.64459">
        <ele>842.4</ele>
        <time>2021-09-08T12:45:48Z</time>
      </trkpt>
      <trkpt lat="44.25684" lon="5.64459">
        <ele>842.4</ele>
        <time>2021-09-08T12:45:49Z</time>
      </trkpt>
      <trkpt lat="44.25684" lon="5.6446">
        <ele>842.5</ele>
        <time>2021-09-08T12:45:50Z</time>
      </trkpt>
      <trkpt lat="44.25685" lon="5.64462">
        <ele>842.6</ele>
        <time>2021-09-08T12:45:51Z</time>
      </trkpt>
      <trkpt lat="44.25693" lon="5.64475">
        <ele>844</ele>
        <time>2021-09-08T12:46:01Z</time>
      </trkpt>
      <trkpt lat="44.25695" lon="5.64479">
        <ele>844.3</ele>
        <time>2021-09-08T12:46:02Z</time>
      </trkpt>
      <trkpt lat="44.25698" lon="5.64483">
        <ele>844.6</ele>
        <time>2021-09-08T12:46:04Z</time>
      </trkpt>
      <trkpt lat="44.25701" lon="5.64486">
        <ele>844.9</ele>
        <time>2021-09-08T12:46:05Z</time>
      </trkpt>
      <trkpt lat="44.25702" lon="5.64487">
        <ele>845</ele>
        <time>2021-09-08T12:46:06Z</time>
      </trkpt>
      <trkpt lat="44.25704" lon="5.64489">
        <ele>845.2</ele>
        <time>2021-09-08T12:46:07Z</time>
      </trkpt>
      <trkpt lat="44.25705" lon="5.64489">
        <ele>845.2</ele>
        <time>2021-09-08T12:46:08Z</time>
      </trkpt>
      <trkpt lat="44.25708" lon="5.64491">
        <ele>845.5</ele>
        <time>2021-09-08T12:46:10Z</time>
      </trkpt>
      <trkpt lat="44.25709" lon="5.64492">
        <ele>845.6</ele>
        <time>2021-09-08T12:46:11Z</time>
      </trkpt>
      <trkpt lat="44.2571" lon="5.64493">
        <ele>845.7</ele>
        <time>2021-09-08T12:46:12Z</time>
      </trkpt>
      <trkpt lat="44.25711" lon="5.64494">
        <ele>845.8</ele>
        <time>2021-09-08T12:46:13Z</time>
      </trkpt>
      <trkpt lat="44.25712" lon="5.64496">
        <ele>846</ele>
        <time>2021-09-08T12:46:14Z</time>
      </trkpt>
      <trkpt lat="44.25714" lon="5.64499">
        <ele>846.2</ele>
        <time>2021-09-08T12:46:16Z</time>
      </trkpt>
      <trkpt lat="44.25716" lon="5.64501">
        <ele>846.3</ele>
        <time>2021-09-08T12:46:17Z</time>
      </trkpt>
      <trkpt lat="44.25716" lon="5.64502">
        <ele>846.4</ele>
        <time>2021-09-08T12:46:18Z</time>
      </trkpt>
      <trkpt lat="44.25717" lon="5.64503">
        <ele>846.5</ele>
        <time>2021-09-08T12:46:20Z</time>
      </trkpt>
      <trkpt lat="44.25718" lon="5.64504">
        <ele>846.6</ele>
        <time>2021-09-08T12:46:22Z</time>
      </trkpt>
      <trkpt lat="44.2572" lon="5.64507">
        <ele>846.9</ele>
        <time>2021-09-08T12:46:24Z</time>
      </trkpt>
      <trkpt lat="44.25721" lon="5.64509">
        <ele>847</ele>
        <time>2021-09-08T12:46:25Z</time>
      </trkpt>
      <trkpt lat="44.25722" lon="5.64511">
        <ele>847.1</ele>
        <time>2021-09-08T12:46:26Z</time>
      </trkpt>
      <trkpt lat="44.25721" lon="5.64511">
        <ele>847.2</ele>
        <time>2021-09-08T12:46:28Z</time>
      </trkpt>
      <trkpt lat="44.25723" lon="5.64513">
        <ele>847.3</ele>
        <time>2021-09-08T12:46:30Z</time>
      </trkpt>
      <trkpt lat="44.25724" lon="5.64515">
        <ele>847.5</ele>
        <time>2021-09-08T12:46:32Z</time>
      </trkpt>
      <trkpt lat="44.25724" lon="5.64516">
        <ele>847.6</ele>
        <time>2021-09-08T12:46:33Z</time>
      </trkpt>
      <trkpt lat="44.25724" lon="5.64516">
        <ele>847.6</ele>
        <time>2021-09-08T12:46:34Z</time>
      </trkpt>
      <trkpt lat="44.25724" lon="5.64518">
        <ele>847.7</ele>
        <time>2021-09-08T12:46:35Z</time>
      </trkpt>
      <trkpt lat="44.25725" lon="5.64522">
        <ele>847.9</ele>
        <time>2021-09-08T12:46:37Z</time>
      </trkpt>
      <trkpt lat="44.25726" lon="5.64525">
        <ele>848.1</ele>
        <time>2021-09-08T12:46:39Z</time>
      </trkpt>
      <trkpt lat="44.25726" lon="5.64527">
        <ele>848.2</ele>
        <time>2021-09-08T12:46:40Z</time>
      </trkpt>
      <trkpt lat="44.25725" lon="5.64527">
        <ele>848.3</ele>
        <time>2021-09-08T12:46:42Z</time>
      </trkpt>
      <trkpt lat="44.25725" lon="5.64529">
        <ele>848.3</ele>
        <time>2021-09-08T12:46:43Z</time>
      </trkpt>
      <trkpt lat="44.25725" lon="5.64531">
        <ele>848.5</ele>
        <time>2021-09-08T12:46:45Z</time>
      </trkpt>
      <trkpt lat="44.25726" lon="5.64532">
        <ele>848.5</ele>
        <time>2021-09-08T12:46:46Z</time>
      </trkpt>
      <trkpt lat="44.25726" lon="5.64533">
        <ele>848.6</ele>
        <time>2021-09-08T12:46:47Z</time>
      </trkpt>
      <trkpt lat="44.25727" lon="5.64535">
        <ele>848.7</ele>
        <time>2021-09-08T12:46:49Z</time>
      </trkpt>
      <trkpt lat="44.25733" lon="5.64548">
        <ele>849.6</ele>
        <time>2021-09-08T12:46:57Z</time>
      </trkpt>
      <trkpt lat="44.25734" lon="5.6455">
        <ele>849.7</ele>
        <time>2021-09-08T12:46:58Z</time>
      </trkpt>
      <trkpt lat="44.25734" lon="5.64552">
        <ele>849.8</ele>
        <time>2021-09-08T12:46:59Z</time>
      </trkpt>
      <trkpt lat="44.25734" lon="5.64553">
        <ele>849.9</ele>
        <time>2021-09-08T12:47:00Z</time>
      </trkpt>
      <trkpt lat="44.25735" lon="5.64556">
        <ele>850.1</ele>
        <time>2021-09-08T12:47:01Z</time>
      </trkpt>
      <trkpt lat="44.25735" lon="5.64558">
        <ele>850.2</ele>
        <time>2021-09-08T12:47:02Z</time>
      </trkpt>
      <trkpt lat="44.25736" lon="5.64562">
        <ele>850.5</ele>
        <time>2021-09-08T12:47:04Z</time>
      </trkpt>
      <trkpt lat="44.25737" lon="5.64566">
        <ele>850.8</ele>
        <time>2021-09-08T12:47:05Z</time>
      </trkpt>
      <trkpt lat="44.25737" lon="5.64568">
        <ele>850.9</ele>
        <time>2021-09-08T12:47:06Z</time>
      </trkpt>
      <trkpt lat="44.25737" lon="5.6457">
        <ele>851</ele>
        <time>2021-09-08T12:47:07Z</time>
      </trkpt>
      <trkpt lat="44.25737" lon="5.64572">
        <ele>851.2</ele>
        <time>2021-09-08T12:47:08Z</time>
      </trkpt>
      <trkpt lat="44.25738" lon="5.64576">
        <ele>851.4</ele>
        <time>2021-09-08T12:47:10Z</time>
      </trkpt>
      <trkpt lat="44.25738" lon="5.64576">
        <ele>851.5</ele>
        <time>2021-09-08T12:47:12Z</time>
      </trkpt>
      <trkpt lat="44.25738" lon="5.64576">
        <ele>851.5</ele>
        <time>2021-09-08T12:47:13Z</time>
      </trkpt>
      <trkpt lat="44.25738" lon="5.64577">
        <ele>851.6</ele>
        <time>2021-09-08T12:47:14Z</time>
      </trkpt>
      <trkpt lat="44.25738" lon="5.64578">
        <ele>851.6</ele>
        <time>2021-09-08T12:47:15Z</time>
      </trkpt>
      <trkpt lat="44.25738" lon="5.64579">
        <ele>851.7</ele>
        <time>2021-09-08T12:47:16Z</time>
      </trkpt>
      <trkpt lat="44.25739" lon="5.6458">
        <ele>851.8</ele>
        <time>2021-09-08T12:47:18Z</time>
      </trkpt>
      <trkpt lat="44.25739" lon="5.64581">
        <ele>851.9</ele>
        <time>2021-09-08T12:47:19Z</time>
      </trkpt>
      <trkpt lat="44.25739" lon="5.64582">
        <ele>851.9</ele>
        <time>2021-09-08T12:47:20Z</time>
      </trkpt>
      <trkpt lat="44.25741" lon="5.64595">
        <ele>853</ele>
        <time>2021-09-08T12:47:30Z</time>
      </trkpt>
      <trkpt lat="44.25741" lon="5.64599">
        <ele>853.3</ele>
        <time>2021-09-08T12:47:31Z</time>
      </trkpt>
      <trkpt lat="44.25742" lon="5.64603">
        <ele>853.6</ele>
        <time>2021-09-08T12:47:32Z</time>
      </trkpt>
      <trkpt lat="44.25742" lon="5.64607">
        <ele>854</ele>
        <time>2021-09-08T12:47:33Z</time>
      </trkpt>
      <trkpt lat="44.25742" lon="5.64612">
        <ele>854.4</ele>
        <time>2021-09-08T12:47:34Z</time>
      </trkpt>
      <trkpt lat="44.25742" lon="5.64614">
        <ele>854.5</ele>
        <time>2021-09-08T12:47:36Z</time>
      </trkpt>
      <trkpt lat="44.25741" lon="5.64615">
        <ele>854.7</ele>
        <time>2021-09-08T12:47:37Z</time>
      </trkpt>
      <trkpt lat="44.25741" lon="5.64617">
        <ele>854.9</ele>
        <time>2021-09-08T12:47:38Z</time>
      </trkpt>
      <trkpt lat="44.25741" lon="5.64619">
        <ele>855</ele>
        <time>2021-09-08T12:47:39Z</time>
      </trkpt>
      <trkpt lat="44.2574" lon="5.6462">
        <ele>855.1</ele>
        <time>2021-09-08T12:47:40Z</time>
      </trkpt>
      <trkpt lat="44.2574" lon="5.64621">
        <ele>855.2</ele>
        <time>2021-09-08T12:47:41Z</time>
      </trkpt>
      <trkpt lat="44.2574" lon="5.64623">
        <ele>855.4</ele>
        <time>2021-09-08T12:47:42Z</time>
      </trkpt>
      <trkpt lat="44.2574" lon="5.64626">
        <ele>855.6</ele>
        <time>2021-09-08T12:47:43Z</time>
      </trkpt>
      <trkpt lat="44.25739" lon="5.64627">
        <ele>855.8</ele>
        <time>2021-09-08T12:47:44Z</time>
      </trkpt>
      <trkpt lat="44.25739" lon="5.6463">
        <ele>856</ele>
        <time>2021-09-08T12:47:45Z</time>
      </trkpt>
      <trkpt lat="44.25738" lon="5.64632">
        <ele>856.2</ele>
        <time>2021-09-08T12:47:46Z</time>
      </trkpt>
      <trkpt lat="44.25737" lon="5.64634">
        <ele>856.4</ele>
        <time>2021-09-08T12:47:47Z</time>
      </trkpt>
      <trkpt lat="44.25736" lon="5.64635">
        <ele>856.5</ele>
        <time>2021-09-08T12:47:48Z</time>
      </trkpt>
      <trkpt lat="44.25736" lon="5.64637">
        <ele>856.7</ele>
        <time>2021-09-08T12:47:49Z</time>
      </trkpt>
      <trkpt lat="44.25736" lon="5.6464">
        <ele>857</ele>
        <time>2021-09-08T12:47:51Z</time>
      </trkpt>
      <trkpt lat="44.25736" lon="5.64641">
        <ele>857</ele>
        <time>2021-09-08T12:47:53Z</time>
      </trkpt>
      <trkpt lat="44.25736" lon="5.64642">
        <ele>857.1</ele>
        <time>2021-09-08T12:47:54Z</time>
      </trkpt>
      <trkpt lat="44.25736" lon="5.64643">
        <ele>857.2</ele>
        <time>2021-09-08T12:47:55Z</time>
      </trkpt>
      <trkpt lat="44.25737" lon="5.64643">
        <ele>857.2</ele>
        <time>2021-09-08T12:47:57Z</time>
      </trkpt>
      <trkpt lat="44.25737" lon="5.64644">
        <ele>857.3</ele>
        <time>2021-09-08T12:47:58Z</time>
      </trkpt>
      <trkpt lat="44.25737" lon="5.64645">
        <ele>857.3</ele>
        <time>2021-09-08T12:47:59Z</time>
      </trkpt>
      <trkpt lat="44.25737" lon="5.64646">
        <ele>857.4</ele>
        <time>2021-09-08T12:48:00Z</time>
      </trkpt>
      <trkpt lat="44.25738" lon="5.64647">
        <ele>857.4</ele>
        <time>2021-09-08T12:48:01Z</time>
      </trkpt>
      <trkpt lat="44.25739" lon="5.64649">
        <ele>857.6</ele>
        <time>2021-09-08T12:48:03Z</time>
      </trkpt>
      <trkpt lat="44.25739" lon="5.64651">
        <ele>857.7</ele>
        <time>2021-09-08T12:48:04Z</time>
      </trkpt>
      <trkpt lat="44.2574" lon="5.64652">
        <ele>857.9</ele>
        <time>2021-09-08T12:48:05Z</time>
      </trkpt>
      <trkpt lat="44.25742" lon="5.64669">
        <ele>858.9</ele>
        <time>2021-09-08T12:48:14Z</time>
      </trkpt>
      <trkpt lat="44.25743" lon="5.64675">
        <ele>859.3</ele>
        <time>2021-09-08T12:48:16Z</time>
      </trkpt>
      <trkpt lat="44.25744" lon="5.64681">
        <ele>859.8</ele>
        <time>2021-09-08T12:48:18Z</time>
      </trkpt>
      <trkpt lat="44.25746" lon="5.64686">
        <ele>860.2</ele>
        <time>2021-09-08T12:48:20Z</time>
      </trkpt>
      <trkpt lat="44.25747" lon="5.64688">
        <ele>860.4</ele>
        <time>2021-09-08T12:48:21Z</time>
      </trkpt>
      <trkpt lat="44.25747" lon="5.64688">
        <ele>860.4</ele>
        <time>2021-09-08T12:48:22Z</time>
      </trkpt>
      <trkpt lat="44.25747" lon="5.6469">
        <ele>860.5</ele>
        <time>2021-09-08T12:48:24Z</time>
      </trkpt>
      <trkpt lat="44.25747" lon="5.64691">
        <ele>860.7</ele>
        <time>2021-09-08T12:48:26Z</time>
      </trkpt>
      <trkpt lat="44.25748" lon="5.64692">
        <ele>860.8</ele>
        <time>2021-09-08T12:48:27Z</time>
      </trkpt>
      <trkpt lat="44.25748" lon="5.64693">
        <ele>860.8</ele>
        <time>2021-09-08T12:48:28Z</time>
      </trkpt>
      <trkpt lat="44.25748" lon="5.64694">
        <ele>860.9</ele>
        <time>2021-09-08T12:48:29Z</time>
      </trkpt>
      <trkpt lat="44.25749" lon="5.64695">
        <ele>861</ele>
        <time>2021-09-08T12:48:30Z</time>
      </trkpt>
      <trkpt lat="44.25755" lon="5.64709">
        <ele>862.3</ele>
        <time>2021-09-08T12:48:41Z</time>
      </trkpt>
      <trkpt lat="44.25758" lon="5.64714">
        <ele>862.8</ele>
        <time>2021-09-08T12:48:43Z</time>
      </trkpt>
      <trkpt lat="44.2576" lon="5.64718">
        <ele>863.2</ele>
        <time>2021-09-08T12:48:45Z</time>
      </trkpt>
      <trkpt lat="44.2576" lon="5.6472">
        <ele>863.3</ele>
        <time>2021-09-08T12:48:46Z</time>
      </trkpt>
      <trkpt lat="44.25761" lon="5.64721">
        <ele>863.5</ele>
        <time>2021-09-08T12:48:47Z</time>
      </trkpt>
      <trkpt lat="44.25761" lon="5.64722">
        <ele>863.5</ele>
        <time>2021-09-08T12:48:49Z</time>
      </trkpt>
      <trkpt lat="44.25762" lon="5.64723">
        <ele>863.6</ele>
        <time>2021-09-08T12:48:50Z</time>
      </trkpt>
      <trkpt lat="44.25764" lon="5.64725">
        <ele>863.9</ele>
        <time>2021-09-08T12:48:51Z</time>
      </trkpt>
      <trkpt lat="44.25765" lon="5.64729">
        <ele>864.3</ele>
        <time>2021-09-08T12:48:53Z</time>
      </trkpt>
      <trkpt lat="44.25765" lon="5.6473">
        <ele>864.4</ele>
        <time>2021-09-08T12:48:54Z</time>
      </trkpt>
      <trkpt lat="44.25766" lon="5.64731">
        <ele>864.6</ele>
        <time>2021-09-08T12:48:55Z</time>
      </trkpt>
      <trkpt lat="44.25767" lon="5.64735">
        <ele>864.9</ele>
        <time>2021-09-08T12:48:57Z</time>
      </trkpt>
      <trkpt lat="44.25771" lon="5.64741">
        <ele>865.8</ele>
        <time>2021-09-08T12:48:59Z</time>
      </trkpt>
      <trkpt lat="44.25774" lon="5.64745">
        <ele>866.4</ele>
        <time>2021-09-08T12:49:01Z</time>
      </trkpt>
      <trkpt lat="44.25777" lon="5.64749">
        <ele>867</ele>
        <time>2021-09-08T12:49:02Z</time>
      </trkpt>
      <trkpt lat="44.2578" lon="5.64753">
        <ele>867.6</ele>
        <time>2021-09-08T12:49:03Z</time>
      </trkpt>
      <trkpt lat="44.25783" lon="5.64757">
        <ele>868.1</ele>
        <time>2021-09-08T12:49:04Z</time>
      </trkpt>
      <trkpt lat="44.25786" lon="5.64761">
        <ele>868.6</ele>
        <time>2021-09-08T12:49:05Z</time>
      </trkpt>
      <trkpt lat="44.25789" lon="5.64765">
        <ele>869.1</ele>
        <time>2021-09-08T12:49:06Z</time>
      </trkpt>
      <trkpt lat="44.25792" lon="5.64769">
        <ele>869.6</ele>
        <time>2021-09-08T12:49:07Z</time>
      </trkpt>
      <trkpt lat="44.25795" lon="5.64773">
        <ele>870</ele>
        <time>2021-09-08T12:49:41Z</time>
      </trkpt>
      <trkpt lat="44.25798" lon="5.64777">
        <ele>870.4</ele>
        <time>2021-09-08T12:49:42Z</time>
      </trkpt>
      <trkpt lat="44.25801" lon="5.64781">
        <ele>870.9</ele>
        <time>2021-09-08T12:49:43Z</time>
      </trkpt>
      <trkpt lat="44.25803" lon="5.64785">
        <ele>871.2</ele>
        <time>2021-09-08T12:49:45Z</time>
      </trkpt>
      <trkpt lat="44.25806" lon="5.64791">
        <ele>871.7</ele>
        <time>2021-09-08T12:49:47Z</time>
      </trkpt>
      <trkpt lat="44.25807" lon="5.64793">
        <ele>871.9</ele>
        <time>2021-09-08T12:49:49Z</time>
      </trkpt>
      <trkpt lat="44.25808" lon="5.64795">
        <ele>872.1</ele>
        <time>2021-09-08T12:49:51Z</time>
      </trkpt>
      <trkpt lat="44.25809" lon="5.64797">
        <ele>872.2</ele>
        <time>2021-09-08T12:49:52Z</time>
      </trkpt>
      <trkpt lat="44.2581" lon="5.64798">
        <ele>872.4</ele>
        <time>2021-09-08T12:49:53Z</time>
      </trkpt>
      <trkpt lat="44.25811" lon="5.648">
        <ele>872.5</ele>
        <time>2021-09-08T12:49:55Z</time>
      </trkpt>
      <trkpt lat="44.25811" lon="5.648">
        <ele>872.5</ele>
        <time>2021-09-08T12:49:56Z</time>
      </trkpt>
      <trkpt lat="44.25813" lon="5.64803">
        <ele>872.8</ele>
        <time>2021-09-08T12:49:58Z</time>
      </trkpt>
      <trkpt lat="44.25815" lon="5.64805">
        <ele>873.1</ele>
        <time>2021-09-08T12:50:00Z</time>
      </trkpt>
      <trkpt lat="44.25816" lon="5.64806">
        <ele>873.1</ele>
        <time>2021-09-08T12:50:01Z</time>
      </trkpt>
      <trkpt lat="44.25817" lon="5.64807">
        <ele>873.2</ele>
        <time>2021-09-08T12:50:02Z</time>
      </trkpt>
      <trkpt lat="44.25818" lon="5.64809">
        <ele>873.4</ele>
        <time>2021-09-08T12:50:03Z</time>
      </trkpt>
      <trkpt lat="44.25819" lon="5.6481">
        <ele>873.5</ele>
        <time>2021-09-08T12:50:04Z</time>
      </trkpt>
      <trkpt lat="44.25821" lon="5.64812">
        <ele>873.7</ele>
        <time>2021-09-08T12:50:06Z</time>
      </trkpt>
      <trkpt lat="44.25822" lon="5.64812">
        <ele>873.8</ele>
        <time>2021-09-08T12:50:07Z</time>
      </trkpt>
      <trkpt lat="44.25823" lon="5.64813">
        <ele>873.8</ele>
        <time>2021-09-08T12:50:08Z</time>
      </trkpt>
      <trkpt lat="44.25824" lon="5.64813">
        <ele>873.9</ele>
        <time>2021-09-08T12:50:09Z</time>
      </trkpt>
      <trkpt lat="44.25826" lon="5.64815">
        <ele>874.1</ele>
        <time>2021-09-08T12:50:10Z</time>
      </trkpt>
      <trkpt lat="44.25828" lon="5.64818">
        <ele>874.3</ele>
        <time>2021-09-08T12:50:12Z</time>
      </trkpt>
      <trkpt lat="44.25829" lon="5.64819">
        <ele>874.3</ele>
        <time>2021-09-08T12:50:13Z</time>
      </trkpt>
      <trkpt lat="44.25832" lon="5.64822">
        <ele>874.5</ele>
        <time>2021-09-08T12:50:15Z</time>
      </trkpt>
      <trkpt lat="44.25833" lon="5.64822">
        <ele>874.5</ele>
        <time>2021-09-08T12:50:16Z</time>
      </trkpt>
      <trkpt lat="44.25835" lon="5.64823">
        <ele>874.5</ele>
        <time>2021-09-08T12:50:17Z</time>
      </trkpt>
      <trkpt lat="44.25836" lon="5.64825">
        <ele>874.5</ele>
        <time>2021-09-08T12:50:18Z</time>
      </trkpt>
      <trkpt lat="44.25838" lon="5.64827">
        <ele>874.5</ele>
        <time>2021-09-08T12:50:20Z</time>
      </trkpt>
      <trkpt lat="44.25839" lon="5.64829">
        <ele>874.5</ele>
        <time>2021-09-08T12:50:21Z</time>
      </trkpt>
      <trkpt lat="44.2584" lon="5.6483">
        <ele>874.4</ele>
        <time>2021-09-08T12:50:22Z</time>
      </trkpt>
      <trkpt lat="44.25839" lon="5.64831">
        <ele>874.4</ele>
        <time>2021-09-08T12:50:24Z</time>
      </trkpt>
      <trkpt lat="44.25838" lon="5.64832">
        <ele>874.4</ele>
        <time>2021-09-08T12:50:25Z</time>
      </trkpt>
      <trkpt lat="44.25837" lon="5.64832">
        <ele>874.4</ele>
        <time>2021-09-08T12:50:27Z</time>
      </trkpt>
      <trkpt lat="44.25835" lon="5.64833">
        <ele>874.4</ele>
        <time>2021-09-08T12:50:28Z</time>
      </trkpt>
      <trkpt lat="44.25834" lon="5.64834">
        <ele>874.3</ele>
        <time>2021-09-08T12:50:29Z</time>
      </trkpt>
      <trkpt lat="44.25833" lon="5.64835">
        <ele>874.3</ele>
        <time>2021-09-08T12:50:31Z</time>
      </trkpt>
      <trkpt lat="44.25831" lon="5.64836">
        <ele>874.3</ele>
        <time>2021-09-08T12:50:32Z</time>
      </trkpt>
      <trkpt lat="44.2583" lon="5.64836">
        <ele>874.2</ele>
        <time>2021-09-08T12:51:55Z</time>
      </trkpt>
      <trkpt lat="44.25829" lon="5.64837">
        <ele>874.2</ele>
        <time>2021-09-08T12:51:56Z</time>
      </trkpt>
      <trkpt lat="44.25832" lon="5.64847">
        <ele>873.8</ele>
        <time>2021-09-08T12:51:58Z</time>
      </trkpt>
      <trkpt lat="44.25837" lon="5.64856">
        <ele>873.5</ele>
        <time>2021-09-08T12:51:59Z</time>
      </trkpt>
      <trkpt lat="44.2584" lon="5.64864">
        <ele>873.2</ele>
        <time>2021-09-08T12:52:01Z</time>
      </trkpt>
      <trkpt lat="44.25845" lon="5.64872">
        <ele>873.1</ele>
        <time>2021-09-08T12:52:02Z</time>
      </trkpt>
      <trkpt lat="44.2585" lon="5.64881">
        <ele>873.2</ele>
        <time>2021-09-08T12:52:04Z</time>
      </trkpt>
      <trkpt lat="44.25854" lon="5.64888">
        <ele>873.3</ele>
        <time>2021-09-08T12:52:05Z</time>
      </trkpt>
      <trkpt lat="44.25857" lon="5.64892">
        <ele>873.5</ele>
        <time>2021-09-08T12:52:06Z</time>
      </trkpt>
      <trkpt lat="44.25861" lon="5.64897">
        <ele>873.7</ele>
        <time>2021-09-08T12:52:07Z</time>
      </trkpt>
      <trkpt lat="44.25863" lon="5.64903">
        <ele>874</ele>
        <time>2021-09-08T12:52:09Z</time>
      </trkpt>
      <trkpt lat="44.25865" lon="5.64909">
        <ele>874.3</ele>
        <time>2021-09-08T12:52:10Z</time>
      </trkpt>
      <trkpt lat="44.25867" lon="5.64915">
        <ele>874.5</ele>
        <time>2021-09-08T12:52:12Z</time>
      </trkpt>
      <trkpt lat="44.25868" lon="5.64919">
        <ele>874.6</ele>
        <time>2021-09-08T12:52:13Z</time>
      </trkpt>
      <trkpt lat="44.2587" lon="5.64923">
        <ele>874.7</ele>
        <time>2021-09-08T12:52:14Z</time>
      </trkpt>
      <trkpt lat="44.25871" lon="5.64928">
        <ele>874.9</ele>
        <time>2021-09-08T12:52:16Z</time>
      </trkpt>
      <trkpt lat="44.25873" lon="5.64932">
        <ele>875</ele>
        <time>2021-09-08T12:52:17Z</time>
      </trkpt>
      <trkpt lat="44.25874" lon="5.64935">
        <ele>875</ele>
        <time>2021-09-08T12:52:19Z</time>
      </trkpt>
      <trkpt lat="44.25876" lon="5.64941">
        <ele>875.1</ele>
        <time>2021-09-08T12:52:20Z</time>
      </trkpt>
      <trkpt lat="44.25877" lon="5.64944">
        <ele>875.2</ele>
        <time>2021-09-08T12:52:21Z</time>
      </trkpt>
      <trkpt lat="44.25878" lon="5.64949">
        <ele>875.3</ele>
        <time>2021-09-08T12:52:23Z</time>
      </trkpt>
      <trkpt lat="44.25879" lon="5.64954">
        <ele>875.4</ele>
        <time>2021-09-08T12:52:24Z</time>
      </trkpt>
      <trkpt lat="44.25879" lon="5.64955">
        <ele>875.4</ele>
        <time>2021-09-08T12:52:25Z</time>
      </trkpt>
      <trkpt lat="44.25879" lon="5.64963">
        <ele>875.5</ele>
        <time>2021-09-08T12:52:27Z</time>
      </trkpt>
      <trkpt lat="44.25878" lon="5.64968">
        <ele>875.6</ele>
        <time>2021-09-08T12:52:28Z</time>
      </trkpt>
      <trkpt lat="44.25878" lon="5.64972">
        <ele>875.7</ele>
        <time>2021-09-08T12:52:29Z</time>
      </trkpt>
      <trkpt lat="44.25879" lon="5.64977">
        <ele>875.7</ele>
        <time>2021-09-08T12:52:30Z</time>
      </trkpt>
      <trkpt lat="44.25878" lon="5.64979">
        <ele>875.7</ele>
        <time>2021-09-08T12:52:31Z</time>
      </trkpt>
      <trkpt lat="44.25878" lon="5.64982">
        <ele>875.8</ele>
        <time>2021-09-08T12:52:32Z</time>
      </trkpt>
      <trkpt lat="44.25879" lon="5.64988">
        <ele>875.8</ele>
        <time>2021-09-08T12:52:34Z</time>
      </trkpt>
      <trkpt lat="44.25881" lon="5.64992">
        <ele>875.8</ele>
        <time>2021-09-08T12:52:35Z</time>
      </trkpt>
      <trkpt lat="44.25882" lon="5.64994">
        <ele>875.8</ele>
        <time>2021-09-08T12:52:36Z</time>
      </trkpt>
      <trkpt lat="44.25884" lon="5.64997">
        <ele>875.9</ele>
        <time>2021-09-08T12:52:37Z</time>
      </trkpt>
      <trkpt lat="44.25886" lon="5.65002">
        <ele>875.9</ele>
        <time>2021-09-08T12:52:39Z</time>
      </trkpt>
      <trkpt lat="44.25887" lon="5.65004">
        <ele>875.9</ele>
        <time>2021-09-08T12:52:40Z</time>
      </trkpt>
      <trkpt lat="44.25887" lon="5.65006">
        <ele>875.9</ele>
        <time>2021-09-08T12:52:41Z</time>
      </trkpt>
      <trkpt lat="44.25888" lon="5.65007">
        <ele>876</ele>
        <time>2021-09-08T12:52:42Z</time>
      </trkpt>
      <trkpt lat="44.2589" lon="5.65009">
        <ele>876</ele>
        <time>2021-09-08T12:52:43Z</time>
      </trkpt>
      <trkpt lat="44.25891" lon="5.65012">
        <ele>876</ele>
        <time>2021-09-08T12:52:44Z</time>
      </trkpt>
      <trkpt lat="44.25892" lon="5.65013">
        <ele>876</ele>
        <time>2021-09-08T12:52:45Z</time>
      </trkpt>
      <trkpt lat="44.25894" lon="5.65017">
        <ele>876.1</ele>
        <time>2021-09-08T12:52:47Z</time>
      </trkpt>
      <trkpt lat="44.25897" lon="5.65021">
        <ele>876.2</ele>
        <time>2021-09-08T12:52:49Z</time>
      </trkpt>
      <trkpt lat="44.25899" lon="5.65025">
        <ele>876.3</ele>
        <time>2021-09-08T12:52:50Z</time>
      </trkpt>
      <trkpt lat="44.25902" lon="5.65029">
        <ele>876.4</ele>
        <time>2021-09-08T12:52:52Z</time>
      </trkpt>
      <trkpt lat="44.25904" lon="5.65034">
        <ele>876.6</ele>
        <time>2021-09-08T12:52:53Z</time>
      </trkpt>
      <trkpt lat="44.25905" lon="5.65038">
        <ele>876.7</ele>
        <time>2021-09-08T12:52:54Z</time>
      </trkpt>
      <trkpt lat="44.25906" lon="5.65041">
        <ele>876.8</ele>
        <time>2021-09-08T12:52:56Z</time>
      </trkpt>
      <trkpt lat="44.25908" lon="5.65046">
        <ele>877</ele>
        <time>2021-09-08T12:52:57Z</time>
      </trkpt>
      <trkpt lat="44.25912" lon="5.65051">
        <ele>877.3</ele>
        <time>2021-09-08T12:52:59Z</time>
      </trkpt>
      <trkpt lat="44.25914" lon="5.65051">
        <ele>877.5</ele>
        <time>2021-09-08T12:53:00Z</time>
      </trkpt>
      <trkpt lat="44.25916" lon="5.65052">
        <ele>877.7</ele>
        <time>2021-09-08T12:53:01Z</time>
      </trkpt>
      <trkpt lat="44.25917" lon="5.65055">
        <ele>877.8</ele>
        <time>2021-09-08T12:53:03Z</time>
      </trkpt>
      <trkpt lat="44.25918" lon="5.65059">
        <ele>878.1</ele>
        <time>2021-09-08T12:53:04Z</time>
      </trkpt>
      <trkpt lat="44.2592" lon="5.65065">
        <ele>878.5</ele>
        <time>2021-09-08T12:53:06Z</time>
      </trkpt>
      <trkpt lat="44.25921" lon="5.65068">
        <ele>878.7</ele>
        <time>2021-09-08T12:53:07Z</time>
      </trkpt>
      <trkpt lat="44.25923" lon="5.65073">
        <ele>879</ele>
        <time>2021-09-08T12:53:09Z</time>
      </trkpt>
      <trkpt lat="44.25924" lon="5.65076">
        <ele>879.1</ele>
        <time>2021-09-08T12:53:10Z</time>
      </trkpt>
      <trkpt lat="44.25924" lon="5.65078">
        <ele>879.2</ele>
        <time>2021-09-08T12:53:11Z</time>
      </trkpt>
      <trkpt lat="44.25926" lon="5.6508">
        <ele>879.4</ele>
        <time>2021-09-08T12:53:13Z</time>
      </trkpt>
      <trkpt lat="44.25927" lon="5.65081">
        <ele>879.5</ele>
        <time>2021-09-08T12:53:14Z</time>
      </trkpt>
      <trkpt lat="44.25928" lon="5.65081">
        <ele>879.5</ele>
        <time>2021-09-08T12:53:15Z</time>
      </trkpt>
      <trkpt lat="44.25928" lon="5.65081">
        <ele>879.6</ele>
        <time>2021-09-08T12:53:16Z</time>
      </trkpt>
      <trkpt lat="44.25929" lon="5.65081">
        <ele>879.6</ele>
        <time>2021-09-08T12:53:18Z</time>
      </trkpt>
      <trkpt lat="44.2593" lon="5.65082">
        <ele>879.7</ele>
        <time>2021-09-08T12:53:20Z</time>
      </trkpt>
      <trkpt lat="44.2593" lon="5.65083">
        <ele>879.8</ele>
        <time>2021-09-08T12:53:21Z</time>
      </trkpt>
      <trkpt lat="44.25931" lon="5.65087">
        <ele>879.9</ele>
        <time>2021-09-08T12:53:23Z</time>
      </trkpt>
      <trkpt lat="44.25932" lon="5.65123">
        <ele>881.2</ele>
        <time>2021-09-08T12:53:39Z</time>
      </trkpt>
      <trkpt lat="44.25931" lon="5.65128">
        <ele>881.3</ele>
        <time>2021-09-08T12:53:40Z</time>
      </trkpt>
      <trkpt lat="44.25932" lon="5.65131">
        <ele>881.4</ele>
        <time>2021-09-08T12:53:41Z</time>
      </trkpt>
      <trkpt lat="44.25933" lon="5.65136">
        <ele>881.5</ele>
        <time>2021-09-08T12:53:43Z</time>
      </trkpt>
      <trkpt lat="44.25934" lon="5.65138">
        <ele>881.5</ele>
        <time>2021-09-08T12:53:44Z</time>
      </trkpt>
      <trkpt lat="44.25934" lon="5.65141">
        <ele>881.6</ele>
        <time>2021-09-08T12:53:45Z</time>
      </trkpt>
      <trkpt lat="44.25933" lon="5.65146">
        <ele>881.6</ele>
        <time>2021-09-08T12:53:47Z</time>
      </trkpt>
      <trkpt lat="44.25933" lon="5.65148">
        <ele>881.6</ele>
        <time>2021-09-08T12:53:48Z</time>
      </trkpt>
      <trkpt lat="44.25933" lon="5.6515">
        <ele>881.6</ele>
        <time>2021-09-08T12:53:49Z</time>
      </trkpt>
      <trkpt lat="44.25935" lon="5.65154">
        <ele>881.6</ele>
        <time>2021-09-08T12:53:51Z</time>
      </trkpt>
      <trkpt lat="44.25936" lon="5.65159">
        <ele>881.5</ele>
        <time>2021-09-08T12:53:52Z</time>
      </trkpt>
      <trkpt lat="44.25938" lon="5.65163">
        <ele>881.5</ele>
        <time>2021-09-08T12:53:53Z</time>
      </trkpt>
      <trkpt lat="44.2594" lon="5.65169">
        <ele>881.3</ele>
        <time>2021-09-08T12:53:55Z</time>
      </trkpt>
      <trkpt lat="44.2594" lon="5.65173">
        <ele>881.3</ele>
        <time>2021-09-08T12:53:56Z</time>
      </trkpt>
      <trkpt lat="44.25941" lon="5.65176">
        <ele>881.2</ele>
        <time>2021-09-08T12:53:57Z</time>
      </trkpt>
      <trkpt lat="44.25941" lon="5.65183">
        <ele>881</ele>
        <time>2021-09-08T12:53:59Z</time>
      </trkpt>
      <trkpt lat="44.25941" lon="5.65187">
        <ele>880.9</ele>
        <time>2021-09-08T12:54:00Z</time>
      </trkpt>
      <trkpt lat="44.25942" lon="5.65192">
        <ele>880.7</ele>
        <time>2021-09-08T12:54:01Z</time>
      </trkpt>
      <trkpt lat="44.25942" lon="5.65194">
        <ele>880.7</ele>
        <time>2021-09-08T12:54:02Z</time>
      </trkpt>
      <trkpt lat="44.25944" lon="5.65202">
        <ele>880.4</ele>
        <time>2021-09-08T12:54:03Z</time>
      </trkpt>
      <trkpt lat="44.25945" lon="5.65207">
        <ele>880.3</ele>
        <time>2021-09-08T12:54:04Z</time>
      </trkpt>
      <trkpt lat="44.25946" lon="5.65213">
        <ele>880.2</ele>
        <time>2021-09-08T12:54:05Z</time>
      </trkpt>
      <trkpt lat="44.25949" lon="5.65221">
        <ele>880</ele>
        <time>2021-09-08T12:54:07Z</time>
      </trkpt>
      <trkpt lat="44.25953" lon="5.65225">
        <ele>879.9</ele>
        <time>2021-09-08T12:54:08Z</time>
      </trkpt>
      <trkpt lat="44.2596" lon="5.65231">
        <ele>880</ele>
        <time>2021-09-08T12:54:10Z</time>
      </trkpt>
      <trkpt lat="44.25963" lon="5.65238">
        <ele>880</ele>
        <time>2021-09-08T12:54:11Z</time>
      </trkpt>
      <trkpt lat="44.25965" lon="5.65247">
        <ele>880.1</ele>
        <time>2021-09-08T12:54:13Z</time>
      </trkpt>
      <trkpt lat="44.25966" lon="5.65254">
        <ele>880.2</ele>
        <time>2021-09-08T12:54:14Z</time>
      </trkpt>
      <trkpt lat="44.25966" lon="5.65261">
        <ele>880.4</ele>
        <time>2021-09-08T12:54:16Z</time>
      </trkpt>
      <trkpt lat="44.25966" lon="5.65268">
        <ele>880.6</ele>
        <time>2021-09-08T12:54:17Z</time>
      </trkpt>
      <trkpt lat="44.25967" lon="5.65272">
        <ele>880.7</ele>
        <time>2021-09-08T12:54:18Z</time>
      </trkpt>
      <trkpt lat="44.25968" lon="5.65279">
        <ele>881</ele>
        <time>2021-09-08T12:54:20Z</time>
      </trkpt>
      <trkpt lat="44.25969" lon="5.65284">
        <ele>881.2</ele>
        <time>2021-09-08T12:54:22Z</time>
      </trkpt>
      <trkpt lat="44.25969" lon="5.65289">
        <ele>881.4</ele>
        <time>2021-09-08T12:54:23Z</time>
      </trkpt>
      <trkpt lat="44.2597" lon="5.65293">
        <ele>881.7</ele>
        <time>2021-09-08T12:54:24Z</time>
      </trkpt>
      <trkpt lat="44.2597" lon="5.65297">
        <ele>881.8</ele>
        <time>2021-09-08T12:54:25Z</time>
      </trkpt>
      <trkpt lat="44.2597" lon="5.65301">
        <ele>882.1</ele>
        <time>2021-09-08T12:54:27Z</time>
      </trkpt>
      <trkpt lat="44.25971" lon="5.65304">
        <ele>882.2</ele>
        <time>2021-09-08T12:54:28Z</time>
      </trkpt>
      <trkpt lat="44.25974" lon="5.65309">
        <ele>882.6</ele>
        <time>2021-09-08T12:54:30Z</time>
      </trkpt>
      <trkpt lat="44.25975" lon="5.65312">
        <ele>882.8</ele>
        <time>2021-09-08T12:54:31Z</time>
      </trkpt>
      <trkpt lat="44.25978" lon="5.65316">
        <ele>883.1</ele>
        <time>2021-09-08T12:54:33Z</time>
      </trkpt>
      <trkpt lat="44.2598" lon="5.65319">
        <ele>883.4</ele>
        <time>2021-09-08T12:54:34Z</time>
      </trkpt>
      <trkpt lat="44.25981" lon="5.65321">
        <ele>883.5</ele>
        <time>2021-09-08T12:54:35Z</time>
      </trkpt>
      <trkpt lat="44.25983" lon="5.65324">
        <ele>883.7</ele>
        <time>2021-09-08T12:54:36Z</time>
      </trkpt>
      <trkpt lat="44.25983" lon="5.65325">
        <ele>883.7</ele>
        <time>2021-09-08T12:54:37Z</time>
      </trkpt>
      <trkpt lat="44.25986" lon="5.65327">
        <ele>883.9</ele>
        <time>2021-09-08T12:54:38Z</time>
      </trkpt>
      <trkpt lat="44.2599" lon="5.65329">
        <ele>884.2</ele>
        <time>2021-09-08T12:54:40Z</time>
      </trkpt>
      <trkpt lat="44.25992" lon="5.6533">
        <ele>884.3</ele>
        <time>2021-09-08T12:54:41Z</time>
      </trkpt>
      <trkpt lat="44.25993" lon="5.65331">
        <ele>884.4</ele>
        <time>2021-09-08T12:54:42Z</time>
      </trkpt>
      <trkpt lat="44.25995" lon="5.65332">
        <ele>884.5</ele>
        <time>2021-09-08T12:54:44Z</time>
      </trkpt>
      <trkpt lat="44.25996" lon="5.65334">
        <ele>884.6</ele>
        <time>2021-09-08T12:54:45Z</time>
      </trkpt>
      <trkpt lat="44.25997" lon="5.65335">
        <ele>884.7</ele>
        <time>2021-09-08T12:54:46Z</time>
      </trkpt>
      <trkpt lat="44.25998" lon="5.65337">
        <ele>884.7</ele>
        <time>2021-09-08T12:54:48Z</time>
      </trkpt>
      <trkpt lat="44.25999" lon="5.6534">
        <ele>884.9</ele>
        <time>2021-09-08T12:54:49Z</time>
      </trkpt>
      <trkpt lat="44.26" lon="5.65342">
        <ele>885</ele>
        <time>2021-09-08T12:54:51Z</time>
      </trkpt>
      <trkpt lat="44.26001" lon="5.65344">
        <ele>885.1</ele>
        <time>2021-09-08T12:54:52Z</time>
      </trkpt>
      <trkpt lat="44.26002" lon="5.65346">
        <ele>885.2</ele>
        <time>2021-09-08T12:54:53Z</time>
      </trkpt>
      <trkpt lat="44.26002" lon="5.65348">
        <ele>885.3</ele>
        <time>2021-09-08T12:54:54Z</time>
      </trkpt>
      <trkpt lat="44.26003" lon="5.6535">
        <ele>885.4</ele>
        <time>2021-09-08T12:54:55Z</time>
      </trkpt>
      <trkpt lat="44.26004" lon="5.65354">
        <ele>885.5</ele>
        <time>2021-09-08T12:54:57Z</time>
      </trkpt>
      <trkpt lat="44.26004" lon="5.65355">
        <ele>885.6</ele>
        <time>2021-09-08T12:54:58Z</time>
      </trkpt>
      <trkpt lat="44.26005" lon="5.65356">
        <ele>885.7</ele>
        <time>2021-09-08T12:54:59Z</time>
      </trkpt>
      <trkpt lat="44.26007" lon="5.65358">
        <ele>885.8</ele>
        <time>2021-09-08T12:55:00Z</time>
      </trkpt>
      <trkpt lat="44.26009" lon="5.65359">
        <ele>886</ele>
        <time>2021-09-08T12:55:02Z</time>
      </trkpt>
      <trkpt lat="44.26011" lon="5.65362">
        <ele>886.1</ele>
        <time>2021-09-08T12:55:04Z</time>
      </trkpt>
      <trkpt lat="44.26014" lon="5.65365">
        <ele>886.3</ele>
        <time>2021-09-08T12:55:05Z</time>
      </trkpt>
      <trkpt lat="44.26014" lon="5.65365">
        <ele>886.4</ele>
        <time>2021-09-08T12:55:06Z</time>
      </trkpt>
      <trkpt lat="44.26016" lon="5.65367">
        <ele>886.5</ele>
        <time>2021-09-08T12:55:07Z</time>
      </trkpt>
      <trkpt lat="44.26017" lon="5.65368">
        <ele>886.6</ele>
        <time>2021-09-08T12:55:08Z</time>
      </trkpt>
      <trkpt lat="44.26017" lon="5.65368">
        <ele>886.6</ele>
        <time>2021-09-08T12:55:10Z</time>
      </trkpt>
      <trkpt lat="44.26018" lon="5.65369">
        <ele>886.7</ele>
        <time>2021-09-08T12:55:11Z</time>
      </trkpt>
      <trkpt lat="44.26018" lon="5.65369">
        <ele>886.7</ele>
        <time>2021-09-08T12:55:13Z</time>
      </trkpt>
      <trkpt lat="44.26019" lon="5.65369">
        <ele>886.7</ele>
        <time>2021-09-08T12:55:15Z</time>
      </trkpt>
      <trkpt lat="44.2602" lon="5.6537">
        <ele>886.8</ele>
        <time>2021-09-08T12:55:16Z</time>
      </trkpt>
      <trkpt lat="44.26022" lon="5.65371">
        <ele>886.9</ele>
        <time>2021-09-08T12:55:17Z</time>
      </trkpt>
      <trkpt lat="44.26023" lon="5.65372">
        <ele>887</ele>
        <time>2021-09-08T12:55:19Z</time>
      </trkpt>
      <trkpt lat="44.26025" lon="5.65374">
        <ele>887.2</ele>
        <time>2021-09-08T12:55:21Z</time>
      </trkpt>
      <trkpt lat="44.26028" lon="5.65376">
        <ele>887.3</ele>
        <time>2021-09-08T12:55:22Z</time>
      </trkpt>
      <trkpt lat="44.26032" lon="5.65378">
        <ele>887.5</ele>
        <time>2021-09-08T12:55:24Z</time>
      </trkpt>
      <trkpt lat="44.26034" lon="5.65379">
        <ele>887.6</ele>
        <time>2021-09-08T12:55:25Z</time>
      </trkpt>
      <trkpt lat="44.26036" lon="5.65379">
        <ele>887.8</ele>
        <time>2021-09-08T12:55:27Z</time>
      </trkpt>
      <trkpt lat="44.26039" lon="5.6538">
        <ele>887.9</ele>
        <time>2021-09-08T12:55:28Z</time>
      </trkpt>
      <trkpt lat="44.26044" lon="5.65381">
        <ele>888</ele>
        <time>2021-09-08T12:55:30Z</time>
      </trkpt>
      <trkpt lat="44.26045" lon="5.65381">
        <ele>888.1</ele>
        <time>2021-09-08T12:55:31Z</time>
      </trkpt>
      <trkpt lat="44.26048" lon="5.65383">
        <ele>888.1</ele>
        <time>2021-09-08T12:55:33Z</time>
      </trkpt>
      <trkpt lat="44.26052" lon="5.65385">
        <ele>888.2</ele>
        <time>2021-09-08T12:55:35Z</time>
      </trkpt>
      <trkpt lat="44.26055" lon="5.65387">
        <ele>888.3</ele>
        <time>2021-09-08T12:55:36Z</time>
      </trkpt>
      <trkpt lat="44.26057" lon="5.65388">
        <ele>888.3</ele>
        <time>2021-09-08T12:55:37Z</time>
      </trkpt>
      <trkpt lat="44.26059" lon="5.65391">
        <ele>888.3</ele>
        <time>2021-09-08T12:55:38Z</time>
      </trkpt>
      <trkpt lat="44.26062" lon="5.65397">
        <ele>888.3</ele>
        <time>2021-09-08T12:55:40Z</time>
      </trkpt>
      <trkpt lat="44.26064" lon="5.65399">
        <ele>888.3</ele>
        <time>2021-09-08T12:55:41Z</time>
      </trkpt>
      <trkpt lat="44.26065" lon="5.65402">
        <ele>888.2</ele>
        <time>2021-09-08T12:55:42Z</time>
      </trkpt>
      <trkpt lat="44.26067" lon="5.65405">
        <ele>888.2</ele>
        <time>2021-09-08T12:55:43Z</time>
      </trkpt>
      <trkpt lat="44.26071" lon="5.65409">
        <ele>888.1</ele>
        <time>2021-09-08T12:55:45Z</time>
      </trkpt>
      <trkpt lat="44.26077" lon="5.65411">
        <ele>887.9</ele>
        <time>2021-09-08T12:55:46Z</time>
      </trkpt>
      <trkpt lat="44.26081" lon="5.65414">
        <ele>887.8</ele>
        <time>2021-09-08T12:55:47Z</time>
      </trkpt>
      <trkpt lat="44.26092" lon="5.65421">
        <ele>887.4</ele>
        <time>2021-09-08T12:55:49Z</time>
      </trkpt>
      <trkpt lat="44.26101" lon="5.65428">
        <ele>887.1</ele>
        <time>2021-09-08T12:55:51Z</time>
      </trkpt>
      <trkpt lat="44.26104" lon="5.65431">
        <ele>887</ele>
        <time>2021-09-08T12:55:52Z</time>
      </trkpt>
      <trkpt lat="44.26106" lon="5.65436">
        <ele>886.8</ele>
        <time>2021-09-08T12:55:54Z</time>
      </trkpt>
      <trkpt lat="44.2611" lon="5.65443">
        <ele>886.6</ele>
        <time>2021-09-08T12:55:56Z</time>
      </trkpt>
      <trkpt lat="44.26109" lon="5.6545">
        <ele>886.3</ele>
        <time>2021-09-08T12:55:57Z</time>
      </trkpt>
      <trkpt lat="44.26102" lon="5.65465">
        <ele>885.7</ele>
        <time>2021-09-08T12:55:58Z</time>
      </trkpt>
      <trkpt lat="44.26099" lon="5.65474">
        <ele>885.5</ele>
        <time>2021-09-08T12:55:59Z</time>
      </trkpt>
      <trkpt lat="44.26097" lon="5.6549">
        <ele>885.4</ele>
        <time>2021-09-08T12:56:01Z</time>
      </trkpt>
      <trkpt lat="44.26097" lon="5.65505">
        <ele>885.5</ele>
        <time>2021-09-08T12:56:03Z</time>
      </trkpt>
      <trkpt lat="44.26101" lon="5.65515">
        <ele>885.6</ele>
        <time>2021-09-08T12:56:05Z</time>
      </trkpt>
      <trkpt lat="44.26104" lon="5.65518">
        <ele>885.7</ele>
        <time>2021-09-08T12:56:06Z</time>
      </trkpt>
      <trkpt lat="44.26108" lon="5.65524">
        <ele>885.8</ele>
        <time>2021-09-08T12:56:08Z</time>
      </trkpt>
      <trkpt lat="44.26111" lon="5.6553">
        <ele>886</ele>
        <time>2021-09-08T12:56:09Z</time>
      </trkpt>
      <trkpt lat="44.26117" lon="5.65535">
        <ele>886.2</ele>
        <time>2021-09-08T12:56:10Z</time>
      </trkpt>
      <trkpt lat="44.26123" lon="5.65547">
        <ele>886.6</ele>
        <time>2021-09-08T12:56:12Z</time>
      </trkpt>
      <trkpt lat="44.26126" lon="5.65552">
        <ele>886.8</ele>
        <time>2021-09-08T12:56:13Z</time>
      </trkpt>
      <trkpt lat="44.26127" lon="5.6556">
        <ele>887</ele>
        <time>2021-09-08T12:56:15Z</time>
      </trkpt>
      <trkpt lat="44.26131" lon="5.65564">
        <ele>887.3</ele>
        <time>2021-09-08T12:56:16Z</time>
      </trkpt>
      <trkpt lat="44.26133" lon="5.65568">
        <ele>887.5</ele>
        <time>2021-09-08T12:56:17Z</time>
      </trkpt>
      <trkpt lat="44.26138" lon="5.65576">
        <ele>887.8</ele>
        <time>2021-09-08T12:56:19Z</time>
      </trkpt>
      <trkpt lat="44.2614" lon="5.65584">
        <ele>888.2</ele>
        <time>2021-09-08T12:56:21Z</time>
      </trkpt>
      <trkpt lat="44.26142" lon="5.65589">
        <ele>888.5</ele>
        <time>2021-09-08T12:56:22Z</time>
      </trkpt>
      <trkpt lat="44.26144" lon="5.65593">
        <ele>888.8</ele>
        <time>2021-09-08T12:56:23Z</time>
      </trkpt>
      <trkpt lat="44.26146" lon="5.65599">
        <ele>889.2</ele>
        <time>2021-09-08T12:56:25Z</time>
      </trkpt>
      <trkpt lat="44.26148" lon="5.65605">
        <ele>889.5</ele>
        <time>2021-09-08T12:56:27Z</time>
      </trkpt>
      <trkpt lat="44.26149" lon="5.65609">
        <ele>889.8</ele>
        <time>2021-09-08T12:56:28Z</time>
      </trkpt>
      <trkpt lat="44.26149" lon="5.65615">
        <ele>890.1</ele>
        <time>2021-09-08T12:56:30Z</time>
      </trkpt>
      <trkpt lat="44.2615" lon="5.65616">
        <ele>890.2</ele>
        <time>2021-09-08T12:56:31Z</time>
      </trkpt>
      <trkpt lat="44.2615" lon="5.65618">
        <ele>890.3</ele>
        <time>2021-09-08T12:56:32Z</time>
      </trkpt>
      <trkpt lat="44.26152" lon="5.65623">
        <ele>890.7</ele>
        <time>2021-09-08T12:56:34Z</time>
      </trkpt>
      <trkpt lat="44.26152" lon="5.65624">
        <ele>890.8</ele>
        <time>2021-09-08T12:56:35Z</time>
      </trkpt>
      <trkpt lat="44.26154" lon="5.65627">
        <ele>891.1</ele>
        <time>2021-09-08T12:56:36Z</time>
      </trkpt>
      <trkpt lat="44.26155" lon="5.65628">
        <ele>891.2</ele>
        <time>2021-09-08T12:56:38Z</time>
      </trkpt>
      <trkpt lat="44.26156" lon="5.65629">
        <ele>891.4</ele>
        <time>2021-09-08T12:56:39Z</time>
      </trkpt>
      <trkpt lat="44.26158" lon="5.6563">
        <ele>891.6</ele>
        <time>2021-09-08T12:56:40Z</time>
      </trkpt>
      <trkpt lat="44.2616" lon="5.65632">
        <ele>891.9</ele>
        <time>2021-09-08T12:56:41Z</time>
      </trkpt>
      <trkpt lat="44.2616" lon="5.65634">
        <ele>892</ele>
        <time>2021-09-08T12:56:42Z</time>
      </trkpt>
      <trkpt lat="44.26161" lon="5.6564">
        <ele>892.6</ele>
        <time>2021-09-08T12:56:44Z</time>
      </trkpt>
      <trkpt lat="44.26161" lon="5.65642">
        <ele>892.8</ele>
        <time>2021-09-08T12:56:45Z</time>
      </trkpt>
      <trkpt lat="44.26161" lon="5.65644">
        <ele>893</ele>
        <time>2021-09-08T12:56:46Z</time>
      </trkpt>
      <trkpt lat="44.26162" lon="5.65648">
        <ele>893.3</ele>
        <time>2021-09-08T12:56:47Z</time>
      </trkpt>
      <trkpt lat="44.26163" lon="5.65649">
        <ele>893.4</ele>
        <time>2021-09-08T12:56:48Z</time>
      </trkpt>
      <trkpt lat="44.26166" lon="5.65652">
        <ele>893.8</ele>
        <time>2021-09-08T12:56:50Z</time>
      </trkpt>
      <trkpt lat="44.26166" lon="5.65653">
        <ele>893.9</ele>
        <time>2021-09-08T12:56:51Z</time>
      </trkpt>
      <trkpt lat="44.26168" lon="5.65653">
        <ele>894</ele>
        <time>2021-09-08T12:56:52Z</time>
      </trkpt>
      <trkpt lat="44.2617" lon="5.65657">
        <ele>894.4</ele>
        <time>2021-09-08T12:56:54Z</time>
      </trkpt>
      <trkpt lat="44.26173" lon="5.65661">
        <ele>894.8</ele>
        <time>2021-09-08T12:56:56Z</time>
      </trkpt>
      <trkpt lat="44.26175" lon="5.65663">
        <ele>895</ele>
        <time>2021-09-08T12:56:58Z</time>
      </trkpt>
      <trkpt lat="44.26176" lon="5.65664">
        <ele>895.1</ele>
        <time>2021-09-08T12:56:59Z</time>
      </trkpt>
      <trkpt lat="44.26177" lon="5.65664">
        <ele>895.2</ele>
        <time>2021-09-08T12:57:01Z</time>
      </trkpt>
      <trkpt lat="44.26177" lon="5.65665">
        <ele>895.3</ele>
        <time>2021-09-08T12:57:02Z</time>
      </trkpt>
      <trkpt lat="44.26178" lon="5.65666">
        <ele>895.3</ele>
        <time>2021-09-08T12:57:03Z</time>
      </trkpt>
      <trkpt lat="44.26179" lon="5.65667">
        <ele>895.4</ele>
        <time>2021-09-08T12:57:04Z</time>
      </trkpt>
      <trkpt lat="44.26179" lon="5.65669">
        <ele>895.5</ele>
        <time>2021-09-08T12:57:06Z</time>
      </trkpt>
      <trkpt lat="44.26185" lon="5.65684">
        <ele>896.5</ele>
        <time>2021-09-08T12:57:15Z</time>
      </trkpt>
      <trkpt lat="44.26186" lon="5.65692">
        <ele>896.9</ele>
        <time>2021-09-08T12:57:17Z</time>
      </trkpt>
      <trkpt lat="44.26188" lon="5.657">
        <ele>897.4</ele>
        <time>2021-09-08T12:57:19Z</time>
      </trkpt>
      <trkpt lat="44.26189" lon="5.65704">
        <ele>897.6</ele>
        <time>2021-09-08T12:57:20Z</time>
      </trkpt>
      <trkpt lat="44.26191" lon="5.65708">
        <ele>897.9</ele>
        <time>2021-09-08T12:57:21Z</time>
      </trkpt>
      <trkpt lat="44.26192" lon="5.65709">
        <ele>897.9</ele>
        <time>2021-09-08T12:57:22Z</time>
      </trkpt>
      <trkpt lat="44.26195" lon="5.65712">
        <ele>898.2</ele>
        <time>2021-09-08T12:57:24Z</time>
      </trkpt>
      <trkpt lat="44.26196" lon="5.65712">
        <ele>898.3</ele>
        <time>2021-09-08T12:57:25Z</time>
      </trkpt>
      <trkpt lat="44.26199" lon="5.65714">
        <ele>898.5</ele>
        <time>2021-09-08T12:57:26Z</time>
      </trkpt>
      <trkpt lat="44.262" lon="5.65714">
        <ele>898.6</ele>
        <time>2021-09-08T12:57:27Z</time>
      </trkpt>
      <trkpt lat="44.26201" lon="5.65714">
        <ele>898.7</ele>
        <time>2021-09-08T12:57:28Z</time>
      </trkpt>
      <trkpt lat="44.26203" lon="5.65713">
        <ele>898.8</ele>
        <time>2021-09-08T12:57:30Z</time>
      </trkpt>
      <trkpt lat="44.26204" lon="5.65713">
        <ele>898.9</ele>
        <time>2021-09-08T12:57:31Z</time>
      </trkpt>
      <trkpt lat="44.26206" lon="5.65713">
        <ele>899</ele>
        <time>2021-09-08T12:57:33Z</time>
      </trkpt>
      <trkpt lat="44.26207" lon="5.65713">
        <ele>899.1</ele>
        <time>2021-09-08T12:57:34Z</time>
      </trkpt>
      <trkpt lat="44.26209" lon="5.65713">
        <ele>899.3</ele>
        <time>2021-09-08T12:57:35Z</time>
      </trkpt>
      <trkpt lat="44.26213" lon="5.65713">
        <ele>899.5</ele>
        <time>2021-09-08T12:57:37Z</time>
      </trkpt>
      <trkpt lat="44.26214" lon="5.65714">
        <ele>899.6</ele>
        <time>2021-09-08T12:57:38Z</time>
      </trkpt>
      <trkpt lat="44.26217" lon="5.65715">
        <ele>899.8</ele>
        <time>2021-09-08T12:57:39Z</time>
      </trkpt>
      <trkpt lat="44.2622" lon="5.65717">
        <ele>900.1</ele>
        <time>2021-09-08T12:57:41Z</time>
      </trkpt>
      <trkpt lat="44.2622" lon="5.65718">
        <ele>900.2</ele>
        <time>2021-09-08T12:57:42Z</time>
      </trkpt>
      <trkpt lat="44.26221" lon="5.65719">
        <ele>900.3</ele>
        <time>2021-09-08T12:57:43Z</time>
      </trkpt>
      <trkpt lat="44.26223" lon="5.65721">
        <ele>900.4</ele>
        <time>2021-09-08T12:57:44Z</time>
      </trkpt>
      <trkpt lat="44.26224" lon="5.65722">
        <ele>900.6</ele>
        <time>2021-09-08T12:57:46Z</time>
      </trkpt>
      <trkpt lat="44.26225" lon="5.65723">
        <ele>900.7</ele>
        <time>2021-09-08T12:57:47Z</time>
      </trkpt>
      <trkpt lat="44.26225" lon="5.65723">
        <ele>900.7</ele>
        <time>2021-09-08T12:57:48Z</time>
      </trkpt>
      <trkpt lat="44.26226" lon="5.65726">
        <ele>900.9</ele>
        <time>2021-09-08T12:57:50Z</time>
      </trkpt>
      <trkpt lat="44.26226" lon="5.65728">
        <ele>901.1</ele>
        <time>2021-09-08T12:57:51Z</time>
      </trkpt>
      <trkpt lat="44.26226" lon="5.65728">
        <ele>901.1</ele>
        <time>2021-09-08T12:57:53Z</time>
      </trkpt>
      <trkpt lat="44.26227" lon="5.6573">
        <ele>901.2</ele>
        <time>2021-09-08T12:57:54Z</time>
      </trkpt>
      <trkpt lat="44.26227" lon="5.65734">
        <ele>901.5</ele>
        <time>2021-09-08T12:57:56Z</time>
      </trkpt>
      <trkpt lat="44.26228" lon="5.65735">
        <ele>901.5</ele>
        <time>2021-09-08T12:57:57Z</time>
      </trkpt>
      <trkpt lat="44.26227" lon="5.65737">
        <ele>901.7</ele>
        <time>2021-09-08T12:57:58Z</time>
      </trkpt>
      <trkpt lat="44.26227" lon="5.65738">
        <ele>901.7</ele>
        <time>2021-09-08T12:57:59Z</time>
      </trkpt>
      <trkpt lat="44.26227" lon="5.65739">
        <ele>901.8</ele>
        <time>2021-09-08T12:58:00Z</time>
      </trkpt>
      <trkpt lat="44.26226" lon="5.6574">
        <ele>901.8</ele>
        <time>2021-09-08T12:58:01Z</time>
      </trkpt>
      <trkpt lat="44.26227" lon="5.65747">
        <ele>902.1</ele>
        <time>2021-09-08T12:58:03Z</time>
      </trkpt>
      <trkpt lat="44.26226" lon="5.65755">
        <ele>902.3</ele>
        <time>2021-09-08T12:58:04Z</time>
      </trkpt>
      <trkpt lat="44.26224" lon="5.65777">
        <ele>902</ele>
        <time>2021-09-08T12:58:06Z</time>
      </trkpt>
      <trkpt lat="44.26223" lon="5.65787">
        <ele>901.7</ele>
        <time>2021-09-08T12:58:07Z</time>
      </trkpt>
      <trkpt lat="44.26222" lon="5.65797">
        <ele>901.3</ele>
        <time>2021-09-08T12:58:08Z</time>
      </trkpt>
      <trkpt lat="44.26222" lon="5.65815">
        <ele>900.8</ele>
        <time>2021-09-08T12:58:10Z</time>
      </trkpt>
      <trkpt lat="44.26226" lon="5.6583">
        <ele>900.7</ele>
        <time>2021-09-08T12:58:12Z</time>
      </trkpt>
      <trkpt lat="44.26229" lon="5.65844">
        <ele>900.8</ele>
        <time>2021-09-08T12:58:14Z</time>
      </trkpt>
      <trkpt lat="44.2623" lon="5.65855">
        <ele>901</ele>
        <time>2021-09-08T12:58:16Z</time>
      </trkpt>
      <trkpt lat="44.26234" lon="5.65864">
        <ele>901.2</ele>
        <time>2021-09-08T12:58:18Z</time>
      </trkpt>
      <trkpt lat="44.2624" lon="5.65871">
        <ele>901.5</ele>
        <time>2021-09-08T12:58:19Z</time>
      </trkpt>
      <trkpt lat="44.26244" lon="5.6588">
        <ele>901.9</ele>
        <time>2021-09-08T12:58:21Z</time>
      </trkpt>
      <trkpt lat="44.26246" lon="5.65882">
        <ele>902</ele>
        <time>2021-09-08T12:58:22Z</time>
      </trkpt>
      <trkpt lat="44.26251" lon="5.6589">
        <ele>902.4</ele>
        <time>2021-09-08T12:58:24Z</time>
      </trkpt>
      <trkpt lat="44.26255" lon="5.65895">
        <ele>902.6</ele>
        <time>2021-09-08T12:58:25Z</time>
      </trkpt>
      <trkpt lat="44.2626" lon="5.659">
        <ele>902.7</ele>
        <time>2021-09-08T12:58:26Z</time>
      </trkpt>
      <trkpt lat="44.26266" lon="5.65907">
        <ele>902.8</ele>
        <time>2021-09-08T12:58:28Z</time>
      </trkpt>
      <trkpt lat="44.26271" lon="5.65913">
        <ele>902.9</ele>
        <time>2021-09-08T12:58:30Z</time>
      </trkpt>
      <trkpt lat="44.26276" lon="5.65916">
        <ele>902.8</ele>
        <time>2021-09-08T12:58:31Z</time>
      </trkpt>
      <trkpt lat="44.2628" lon="5.65917">
        <ele>902.8</ele>
        <time>2021-09-08T12:58:32Z</time>
      </trkpt>
      <trkpt lat="44.26286" lon="5.65917">
        <ele>902.8</ele>
        <time>2021-09-08T12:58:33Z</time>
      </trkpt>
      <trkpt lat="44.26291" lon="5.65916">
        <ele>902.7</ele>
        <time>2021-09-08T12:58:35Z</time>
      </trkpt>
      <trkpt lat="44.26297" lon="5.65914">
        <ele>902.7</ele>
        <time>2021-09-08T12:58:36Z</time>
      </trkpt>
      <trkpt lat="44.26302" lon="5.6591">
        <ele>902.6</ele>
        <time>2021-09-08T12:58:37Z</time>
      </trkpt>
      <trkpt lat="44.26311" lon="5.65906">
        <ele>902.6</ele>
        <time>2021-09-08T12:58:39Z</time>
      </trkpt>
      <trkpt lat="44.26315" lon="5.65905">
        <ele>902.6</ele>
        <time>2021-09-08T12:58:40Z</time>
      </trkpt>
      <trkpt lat="44.26323" lon="5.65898">
        <ele>902.6</ele>
        <time>2021-09-08T12:58:42Z</time>
      </trkpt>
      <trkpt lat="44.26328" lon="5.65895">
        <ele>902.7</ele>
        <time>2021-09-08T12:58:44Z</time>
      </trkpt>
      <trkpt lat="44.26334" lon="5.65894">
        <ele>902.8</ele>
        <time>2021-09-08T12:58:45Z</time>
      </trkpt>
      <trkpt lat="44.26339" lon="5.65895">
        <ele>902.9</ele>
        <time>2021-09-08T12:58:46Z</time>
      </trkpt>
      <trkpt lat="44.26347" lon="5.65894">
        <ele>903.3</ele>
        <time>2021-09-08T12:58:48Z</time>
      </trkpt>
      <trkpt lat="44.26353" lon="5.65895">
        <ele>903.7</ele>
        <time>2021-09-08T12:58:50Z</time>
      </trkpt>
      <trkpt lat="44.26356" lon="5.65896">
        <ele>904</ele>
        <time>2021-09-08T12:58:51Z</time>
      </trkpt>
      <trkpt lat="44.26357" lon="5.65897">
        <ele>904.1</ele>
        <time>2021-09-08T12:58:52Z</time>
      </trkpt>
      <trkpt lat="44.26359" lon="5.65898">
        <ele>904.3</ele>
        <time>2021-09-08T12:58:53Z</time>
      </trkpt>
      <trkpt lat="44.26362" lon="5.65901">
        <ele>904.6</ele>
        <time>2021-09-08T12:58:55Z</time>
      </trkpt>
      <trkpt lat="44.26362" lon="5.65902">
        <ele>904.7</ele>
        <time>2021-09-08T12:58:56Z</time>
      </trkpt>
      <trkpt lat="44.26364" lon="5.65904">
        <ele>904.9</ele>
        <time>2021-09-08T12:58:57Z</time>
      </trkpt>
      <trkpt lat="44.26367" lon="5.65907">
        <ele>905.2</ele>
        <time>2021-09-08T12:58:59Z</time>
      </trkpt>
      <trkpt lat="44.26368" lon="5.65909">
        <ele>905.4</ele>
        <time>2021-09-08T12:59:00Z</time>
      </trkpt>
      <trkpt lat="44.26369" lon="5.6591">
        <ele>905.5</ele>
        <time>2021-09-08T12:59:01Z</time>
      </trkpt>
      <trkpt lat="44.2637" lon="5.65911">
        <ele>905.6</ele>
        <time>2021-09-08T12:59:02Z</time>
      </trkpt>
      <trkpt lat="44.26371" lon="5.65914">
        <ele>905.8</ele>
        <time>2021-09-08T12:59:03Z</time>
      </trkpt>
      <trkpt lat="44.26372" lon="5.65915">
        <ele>905.9</ele>
        <time>2021-09-08T12:59:04Z</time>
      </trkpt>
      <trkpt lat="44.26372" lon="5.65916">
        <ele>906</ele>
        <time>2021-09-08T12:59:06Z</time>
      </trkpt>
      <trkpt lat="44.26372" lon="5.65918">
        <ele>906.1</ele>
        <time>2021-09-08T12:59:07Z</time>
      </trkpt>
      <trkpt lat="44.26371" lon="5.65921">
        <ele>906.3</ele>
        <time>2021-09-08T12:59:08Z</time>
      </trkpt>
      <trkpt lat="44.2637" lon="5.65923">
        <ele>906.4</ele>
        <time>2021-09-08T12:59:09Z</time>
      </trkpt>
      <trkpt lat="44.2637" lon="5.65935">
        <ele>907.1</ele>
        <time>2021-09-08T12:59:10Z</time>
      </trkpt>
      <trkpt lat="44.26371" lon="5.65944">
        <ele>907.5</ele>
        <time>2021-09-08T12:59:20Z</time>
      </trkpt>
      <trkpt lat="44.26371" lon="5.65954">
        <ele>907.8</ele>
        <time>2021-09-08T12:59:21Z</time>
      </trkpt>
      <trkpt lat="44.26373" lon="5.65965">
        <ele>907.9</ele>
        <time>2021-09-08T12:59:23Z</time>
      </trkpt>
      <trkpt lat="44.26373" lon="5.65974">
        <ele>908</ele>
        <time>2021-09-08T12:59:24Z</time>
      </trkpt>
      <trkpt lat="44.26375" lon="5.65981">
        <ele>908.1</ele>
        <time>2021-09-08T12:59:25Z</time>
      </trkpt>
      <trkpt lat="44.26379" lon="5.65992">
        <ele>908.2</ele>
        <time>2021-09-08T12:59:27Z</time>
      </trkpt>
      <trkpt lat="44.26383" lon="5.66001">
        <ele>908.4</ele>
        <time>2021-09-08T12:59:28Z</time>
      </trkpt>
      <trkpt lat="44.26387" lon="5.66009">
        <ele>908.5</ele>
        <time>2021-09-08T12:59:30Z</time>
      </trkpt>
      <trkpt lat="44.26389" lon="5.66016">
        <ele>908.7</ele>
        <time>2021-09-08T12:59:31Z</time>
      </trkpt>
      <trkpt lat="44.26391" lon="5.66022">
        <ele>908.8</ele>
        <time>2021-09-08T12:59:32Z</time>
      </trkpt>
      <trkpt lat="44.26392" lon="5.66027">
        <ele>909</ele>
        <time>2021-09-08T12:59:33Z</time>
      </trkpt>
      <trkpt lat="44.26394" lon="5.66032">
        <ele>909.1</ele>
        <time>2021-09-08T12:59:34Z</time>
      </trkpt>
      <trkpt lat="44.26395" lon="5.6604">
        <ele>909.3</ele>
        <time>2021-09-08T12:59:36Z</time>
      </trkpt>
      <trkpt lat="44.26397" lon="5.66046">
        <ele>909.5</ele>
        <time>2021-09-08T12:59:37Z</time>
      </trkpt>
      <trkpt lat="44.26399" lon="5.66052">
        <ele>909.7</ele>
        <time>2021-09-08T12:59:39Z</time>
      </trkpt>
      <trkpt lat="44.26401" lon="5.66057">
        <ele>909.9</ele>
        <time>2021-09-08T12:59:40Z</time>
      </trkpt>
      <trkpt lat="44.26402" lon="5.66063">
        <ele>910.1</ele>
        <time>2021-09-08T12:59:42Z</time>
      </trkpt>
      <trkpt lat="44.26405" lon="5.6607">
        <ele>910.3</ele>
        <time>2021-09-08T12:59:44Z</time>
      </trkpt>
      <trkpt lat="44.26406" lon="5.66073">
        <ele>910.4</ele>
        <time>2021-09-08T12:59:45Z</time>
      </trkpt>
      <trkpt lat="44.26407" lon="5.66079">
        <ele>910.5</ele>
        <time>2021-09-08T12:59:47Z</time>
      </trkpt>
      <trkpt lat="44.26408" lon="5.66086">
        <ele>910.7</ele>
        <time>2021-09-08T12:59:49Z</time>
      </trkpt>
      <trkpt lat="44.26409" lon="5.66091">
        <ele>910.8</ele>
        <time>2021-09-08T12:59:51Z</time>
      </trkpt>
      <trkpt lat="44.2641" lon="5.66095">
        <ele>910.9</ele>
        <time>2021-09-08T12:59:52Z</time>
      </trkpt>
      <trkpt lat="44.26411" lon="5.66099">
        <ele>911</ele>
        <time>2021-09-08T12:59:53Z</time>
      </trkpt>
      <trkpt lat="44.26411" lon="5.66108">
        <ele>911.1</ele>
        <time>2021-09-08T12:59:55Z</time>
      </trkpt>
      <trkpt lat="44.26412" lon="5.66114">
        <ele>911.2</ele>
        <time>2021-09-08T12:59:57Z</time>
      </trkpt>
      <trkpt lat="44.26411" lon="5.66118">
        <ele>911.3</ele>
        <time>2021-09-08T12:59:58Z</time>
      </trkpt>
      <trkpt lat="44.2641" lon="5.66125">
        <ele>911.5</ele>
        <time>2021-09-08T13:00:00Z</time>
      </trkpt>
      <trkpt lat="44.2641" lon="5.66132">
        <ele>911.8</ele>
        <time>2021-09-08T13:00:02Z</time>
      </trkpt>
      <trkpt lat="44.2641" lon="5.66138">
        <ele>912</ele>
        <time>2021-09-08T13:00:03Z</time>
      </trkpt>
      <trkpt lat="44.26409" lon="5.66142">
        <ele>912.2</ele>
        <time>2021-09-08T13:00:04Z</time>
      </trkpt>
      <trkpt lat="44.2641" lon="5.66148">
        <ele>912.4</ele>
        <time>2021-09-08T13:00:06Z</time>
      </trkpt>
      <trkpt lat="44.26412" lon="5.66154">
        <ele>912.7</ele>
        <time>2021-09-08T13:00:07Z</time>
      </trkpt>
      <trkpt lat="44.26413" lon="5.66159">
        <ele>912.9</ele>
        <time>2021-09-08T13:00:08Z</time>
      </trkpt>
      <trkpt lat="44.26415" lon="5.66165">
        <ele>913.2</ele>
        <time>2021-09-08T13:00:10Z</time>
      </trkpt>
      <trkpt lat="44.26415" lon="5.66167">
        <ele>913.4</ele>
        <time>2021-09-08T13:00:11Z</time>
      </trkpt>
      <trkpt lat="44.26416" lon="5.66169">
        <ele>913.5</ele>
        <time>2021-09-08T13:00:12Z</time>
      </trkpt>
      <trkpt lat="44.26416" lon="5.66172">
        <ele>913.6</ele>
        <time>2021-09-08T13:00:13Z</time>
      </trkpt>
      <trkpt lat="44.26417" lon="5.66176">
        <ele>913.8</ele>
        <time>2021-09-08T13:00:15Z</time>
      </trkpt>
      <trkpt lat="44.26417" lon="5.6618">
        <ele>914</ele>
        <time>2021-09-08T13:00:16Z</time>
      </trkpt>
      <trkpt lat="44.26418" lon="5.66185">
        <ele>914.3</ele>
        <time>2021-09-08T13:00:17Z</time>
      </trkpt>
      <trkpt lat="44.26418" lon="5.66187">
        <ele>914.4</ele>
        <time>2021-09-08T13:00:18Z</time>
      </trkpt>
      <trkpt lat="44.26418" lon="5.6619">
        <ele>914.5</ele>
        <time>2021-09-08T13:00:19Z</time>
      </trkpt>
      <trkpt lat="44.26418" lon="5.66193">
        <ele>914.8</ele>
        <time>2021-09-08T13:00:21Z</time>
      </trkpt>
      <trkpt lat="44.26417" lon="5.66198">
        <ele>915.1</ele>
        <time>2021-09-08T13:00:22Z</time>
      </trkpt>
      <trkpt lat="44.26416" lon="5.662">
        <ele>915.2</ele>
        <time>2021-09-08T13:00:23Z</time>
      </trkpt>
      <trkpt lat="44.26414" lon="5.66204">
        <ele>915.4</ele>
        <time>2021-09-08T13:00:25Z</time>
      </trkpt>
      <trkpt lat="44.26414" lon="5.66205">
        <ele>915.5</ele>
        <time>2021-09-08T13:00:26Z</time>
      </trkpt>
      <trkpt lat="44.26413" lon="5.66209">
        <ele>915.8</ele>
        <time>2021-09-08T13:00:28Z</time>
      </trkpt>
      <trkpt lat="44.26412" lon="5.66214">
        <ele>916</ele>
        <time>2021-09-08T13:00:30Z</time>
      </trkpt>
      <trkpt lat="44.26412" lon="5.66216">
        <ele>916.1</ele>
        <time>2021-09-08T13:00:31Z</time>
      </trkpt>
      <trkpt lat="44.26413" lon="5.66218">
        <ele>916.2</ele>
        <time>2021-09-08T13:00:32Z</time>
      </trkpt>
      <trkpt lat="44.26413" lon="5.66219">
        <ele>916.3</ele>
        <time>2021-09-08T13:00:33Z</time>
      </trkpt>
      <trkpt lat="44.26413" lon="5.6622">
        <ele>916.4</ele>
        <time>2021-09-08T13:00:34Z</time>
      </trkpt>
      <trkpt lat="44.2641" lon="5.66225">
        <ele>916.6</ele>
        <time>2021-09-08T13:00:36Z</time>
      </trkpt>
      <trkpt lat="44.26411" lon="5.66228">
        <ele>916.8</ele>
        <time>2021-09-08T13:00:37Z</time>
      </trkpt>
      <trkpt lat="44.26411" lon="5.66232">
        <ele>917</ele>
        <time>2021-09-08T13:00:39Z</time>
      </trkpt>
      <trkpt lat="44.26412" lon="5.66237">
        <ele>917.3</ele>
        <time>2021-09-08T13:00:40Z</time>
      </trkpt>
      <trkpt lat="44.26413" lon="5.66242">
        <ele>917.6</ele>
        <time>2021-09-08T13:00:42Z</time>
      </trkpt>
      <trkpt lat="44.26415" lon="5.66247">
        <ele>917.8</ele>
        <time>2021-09-08T13:00:43Z</time>
      </trkpt>
      <trkpt lat="44.26415" lon="5.66248">
        <ele>917.9</ele>
        <time>2021-09-08T13:00:44Z</time>
      </trkpt>
      <trkpt lat="44.26416" lon="5.66253">
        <ele>918.1</ele>
        <time>2021-09-08T13:00:46Z</time>
      </trkpt>
      <trkpt lat="44.26416" lon="5.66256">
        <ele>918.3</ele>
        <time>2021-09-08T13:00:47Z</time>
      </trkpt>
      <trkpt lat="44.26416" lon="5.66259">
        <ele>918.5</ele>
        <time>2021-09-08T13:00:49Z</time>
      </trkpt>
      <trkpt lat="44.26416" lon="5.66263">
        <ele>918.7</ele>
        <time>2021-09-08T13:00:50Z</time>
      </trkpt>
      <trkpt lat="44.26416" lon="5.66264">
        <ele>918.8</ele>
        <time>2021-09-08T13:00:51Z</time>
      </trkpt>
      <trkpt lat="44.26416" lon="5.66269">
        <ele>919</ele>
        <time>2021-09-08T13:00:53Z</time>
      </trkpt>
      <trkpt lat="44.26416" lon="5.66271">
        <ele>919.1</ele>
        <time>2021-09-08T13:00:54Z</time>
      </trkpt>
      <trkpt lat="44.26418" lon="5.66277">
        <ele>919.3</ele>
        <time>2021-09-08T13:00:56Z</time>
      </trkpt>
      <trkpt lat="44.2642" lon="5.66281">
        <ele>919.6</ele>
        <time>2021-09-08T13:00:58Z</time>
      </trkpt>
      <trkpt lat="44.26421" lon="5.66282">
        <ele>919.7</ele>
        <time>2021-09-08T13:00:59Z</time>
      </trkpt>
      <trkpt lat="44.26423" lon="5.66285">
        <ele>919.8</ele>
        <time>2021-09-08T13:01:00Z</time>
      </trkpt>
      <trkpt lat="44.26426" lon="5.66289">
        <ele>920</ele>
        <time>2021-09-08T13:01:02Z</time>
      </trkpt>
      <trkpt lat="44.26427" lon="5.66294">
        <ele>920.2</ele>
        <time>2021-09-08T13:01:03Z</time>
      </trkpt>
      <trkpt lat="44.26428" lon="5.66296">
        <ele>920.3</ele>
        <time>2021-09-08T13:01:04Z</time>
      </trkpt>
      <trkpt lat="44.2643" lon="5.663">
        <ele>920.6</ele>
        <time>2021-09-08T13:01:06Z</time>
      </trkpt>
      <trkpt lat="44.26432" lon="5.66302">
        <ele>920.7</ele>
        <time>2021-09-08T13:01:07Z</time>
      </trkpt>
      <trkpt lat="44.26435" lon="5.66306">
        <ele>921</ele>
        <time>2021-09-08T13:01:09Z</time>
      </trkpt>
      <trkpt lat="44.26436" lon="5.66308">
        <ele>921.1</ele>
        <time>2021-09-08T13:01:10Z</time>
      </trkpt>
      <trkpt lat="44.26439" lon="5.66312">
        <ele>921.3</ele>
        <time>2021-09-08T13:01:12Z</time>
      </trkpt>
      <trkpt lat="44.26442" lon="5.66316">
        <ele>921.6</ele>
        <time>2021-09-08T13:01:13Z</time>
      </trkpt>
      <trkpt lat="44.26444" lon="5.66321">
        <ele>921.9</ele>
        <time>2021-09-08T13:01:15Z</time>
      </trkpt>
      <trkpt lat="44.26445" lon="5.66325">
        <ele>922.2</ele>
        <time>2021-09-08T13:01:17Z</time>
      </trkpt>
      <trkpt lat="44.26445" lon="5.66331">
        <ele>922.5</ele>
        <time>2021-09-08T13:01:18Z</time>
      </trkpt>
      <trkpt lat="44.26446" lon="5.66335">
        <ele>922.7</ele>
        <time>2021-09-08T13:01:19Z</time>
      </trkpt>
      <trkpt lat="44.26447" lon="5.6634">
        <ele>923</ele>
        <time>2021-09-08T13:01:21Z</time>
      </trkpt>
      <trkpt lat="44.26447" lon="5.66345">
        <ele>923.3</ele>
        <time>2021-09-08T13:01:22Z</time>
      </trkpt>
      <trkpt lat="44.26448" lon="5.66349">
        <ele>923.5</ele>
        <time>2021-09-08T13:01:24Z</time>
      </trkpt>
      <trkpt lat="44.26449" lon="5.66352">
        <ele>923.7</ele>
        <time>2021-09-08T13:01:25Z</time>
      </trkpt>
      <trkpt lat="44.26452" lon="5.66358">
        <ele>924.1</ele>
        <time>2021-09-08T13:01:27Z</time>
      </trkpt>
      <trkpt lat="44.26455" lon="5.66363">
        <ele>924.4</ele>
        <time>2021-09-08T13:01:28Z</time>
      </trkpt>
      <trkpt lat="44.26458" lon="5.66366">
        <ele>924.6</ele>
        <time>2021-09-08T13:01:30Z</time>
      </trkpt>
      <trkpt lat="44.26462" lon="5.66368">
        <ele>924.8</ele>
        <time>2021-09-08T13:01:31Z</time>
      </trkpt>
      <trkpt lat="44.26466" lon="5.66368">
        <ele>925</ele>
        <time>2021-09-08T13:01:33Z</time>
      </trkpt>
      <trkpt lat="44.2647" lon="5.66367">
        <ele>925.1</ele>
        <time>2021-09-08T13:01:35Z</time>
      </trkpt>
      <trkpt lat="44.26474" lon="5.66363">
        <ele>925.1</ele>
        <time>2021-09-08T13:01:36Z</time>
      </trkpt>
      <trkpt lat="44.2648" lon="5.66358">
        <ele>925.1</ele>
        <time>2021-09-08T13:01:38Z</time>
      </trkpt>
      <trkpt lat="44.26484" lon="5.66353">
        <ele>925.1</ele>
        <time>2021-09-08T13:01:39Z</time>
      </trkpt>
      <trkpt lat="44.26487" lon="5.6635">
        <ele>925.1</ele>
        <time>2021-09-08T13:01:40Z</time>
      </trkpt>
      <trkpt lat="44.26491" lon="5.66345">
        <ele>925</ele>
        <time>2021-09-08T13:01:42Z</time>
      </trkpt>
      <trkpt lat="44.26494" lon="5.66341">
        <ele>925</ele>
        <time>2021-09-08T13:01:44Z</time>
      </trkpt>
      <trkpt lat="44.26498" lon="5.66339">
        <ele>925</ele>
        <time>2021-09-08T13:01:45Z</time>
      </trkpt>
      <trkpt lat="44.26502" lon="5.66337">
        <ele>925.1</ele>
        <time>2021-09-08T13:01:47Z</time>
      </trkpt>
      <trkpt lat="44.26505" lon="5.66334">
        <ele>925.2</ele>
        <time>2021-09-08T13:01:48Z</time>
      </trkpt>
      <trkpt lat="44.26509" lon="5.66333">
        <ele>925.3</ele>
        <time>2021-09-08T13:01:50Z</time>
      </trkpt>
      <trkpt lat="44.2651" lon="5.66333">
        <ele>925.3</ele>
        <time>2021-09-08T13:01:51Z</time>
      </trkpt>
      <trkpt lat="44.26513" lon="5.66333">
        <ele>925.4</ele>
        <time>2021-09-08T13:01:52Z</time>
      </trkpt>
      <trkpt lat="44.26516" lon="5.66336">
        <ele>925.6</ele>
        <time>2021-09-08T13:01:54Z</time>
      </trkpt>
      <trkpt lat="44.26518" lon="5.66338">
        <ele>925.7</ele>
        <time>2021-09-08T13:01:55Z</time>
      </trkpt>
      <trkpt lat="44.2652" lon="5.6634">
        <ele>925.8</ele>
        <time>2021-09-08T13:01:56Z</time>
      </trkpt>
      <trkpt lat="44.26522" lon="5.66342">
        <ele>925.9</ele>
        <time>2021-09-08T13:01:58Z</time>
      </trkpt>
      <trkpt lat="44.26525" lon="5.66344">
        <ele>926.2</ele>
        <time>2021-09-08T13:01:59Z</time>
      </trkpt>
      <trkpt lat="44.26526" lon="5.66345">
        <ele>926.3</ele>
        <time>2021-09-08T13:02:00Z</time>
      </trkpt>
      <trkpt lat="44.26529" lon="5.66348">
        <ele>926.5</ele>
        <time>2021-09-08T13:02:02Z</time>
      </trkpt>
      <trkpt lat="44.26531" lon="5.66352">
        <ele>926.8</ele>
        <time>2021-09-08T13:02:03Z</time>
      </trkpt>
      <trkpt lat="44.26534" lon="5.66355">
        <ele>927.1</ele>
        <time>2021-09-08T13:02:04Z</time>
      </trkpt>
      <trkpt lat="44.26535" lon="5.66356">
        <ele>927.1</ele>
        <time>2021-09-08T13:02:05Z</time>
      </trkpt>
      <trkpt lat="44.26538" lon="5.6636">
        <ele>927.5</ele>
        <time>2021-09-08T13:02:07Z</time>
      </trkpt>
      <trkpt lat="44.26541" lon="5.66364">
        <ele>927.8</ele>
        <time>2021-09-08T13:02:08Z</time>
      </trkpt>
      <trkpt lat="44.26543" lon="5.66369">
        <ele>928.2</ele>
        <time>2021-09-08T13:02:10Z</time>
      </trkpt>
      <trkpt lat="44.26546" lon="5.66373">
        <ele>928.5</ele>
        <time>2021-09-08T13:02:11Z</time>
      </trkpt>
      <trkpt lat="44.26549" lon="5.66378">
        <ele>928.9</ele>
        <time>2021-09-08T13:02:13Z</time>
      </trkpt>
      <trkpt lat="44.26549" lon="5.6638">
        <ele>929</ele>
        <time>2021-09-08T13:02:14Z</time>
      </trkpt>
      <trkpt lat="44.2655" lon="5.66381">
        <ele>929.2</ele>
        <time>2021-09-08T13:02:15Z</time>
      </trkpt>
      <trkpt lat="44.26551" lon="5.66383">
        <ele>929.3</ele>
        <time>2021-09-08T13:02:16Z</time>
      </trkpt>
      <trkpt lat="44.26552" lon="5.66386">
        <ele>929.6</ele>
        <time>2021-09-08T13:02:18Z</time>
      </trkpt>
      <trkpt lat="44.26553" lon="5.66389">
        <ele>929.8</ele>
        <time>2021-09-08T13:02:19Z</time>
      </trkpt>
      <trkpt lat="44.26553" lon="5.6639">
        <ele>929.9</ele>
        <time>2021-09-08T13:02:20Z</time>
      </trkpt>
      <trkpt lat="44.26553" lon="5.66392">
        <ele>930.1</ele>
        <time>2021-09-08T13:02:21Z</time>
      </trkpt>
      <trkpt lat="44.26555" lon="5.66393">
        <ele>930.3</ele>
        <time>2021-09-08T13:02:22Z</time>
      </trkpt>
      <trkpt lat="44.26557" lon="5.66394">
        <ele>930.7</ele>
        <time>2021-09-08T13:02:24Z</time>
      </trkpt>
      <trkpt lat="44.26559" lon="5.66397">
        <ele>931</ele>
        <time>2021-09-08T13:02:25Z</time>
      </trkpt>
      <trkpt lat="44.26564" lon="5.66399">
        <ele>931.6</ele>
        <time>2021-09-08T13:02:27Z</time>
      </trkpt>
      <trkpt lat="44.26565" lon="5.664">
        <ele>931.7</ele>
        <time>2021-09-08T13:02:28Z</time>
      </trkpt>
      <trkpt lat="44.26566" lon="5.66401">
        <ele>931.9</ele>
        <time>2021-09-08T13:02:29Z</time>
      </trkpt>
      <trkpt lat="44.26568" lon="5.66403">
        <ele>932.1</ele>
        <time>2021-09-08T13:02:31Z</time>
      </trkpt>
      <trkpt lat="44.26569" lon="5.66404">
        <ele>932.2</ele>
        <time>2021-09-08T13:02:32Z</time>
      </trkpt>
      <trkpt lat="44.26571" lon="5.66406">
        <ele>932.5</ele>
        <time>2021-09-08T13:02:33Z</time>
      </trkpt>
      <trkpt lat="44.26572" lon="5.66408">
        <ele>932.7</ele>
        <time>2021-09-08T13:02:35Z</time>
      </trkpt>
      <trkpt lat="44.26574" lon="5.6641">
        <ele>932.9</ele>
        <time>2021-09-08T13:02:37Z</time>
      </trkpt>
      <trkpt lat="44.26576" lon="5.66413">
        <ele>933.1</ele>
        <time>2021-09-08T13:02:38Z</time>
      </trkpt>
      <trkpt lat="44.26577" lon="5.66414">
        <ele>933.2</ele>
        <time>2021-09-08T13:02:39Z</time>
      </trkpt>
      <trkpt lat="44.26578" lon="5.66415">
        <ele>933.3</ele>
        <time>2021-09-08T13:02:40Z</time>
      </trkpt>
      <trkpt lat="44.26579" lon="5.66417">
        <ele>933.4</ele>
        <time>2021-09-08T13:02:42Z</time>
      </trkpt>
      <trkpt lat="44.26579" lon="5.66421">
        <ele>933.6</ele>
        <time>2021-09-08T13:02:43Z</time>
      </trkpt>
      <trkpt lat="44.26578" lon="5.66426">
        <ele>933.8</ele>
        <time>2021-09-08T13:02:44Z</time>
      </trkpt>
      <trkpt lat="44.26578" lon="5.66431">
        <ele>934</ele>
        <time>2021-09-08T13:02:46Z</time>
      </trkpt>
      <trkpt lat="44.26578" lon="5.66432">
        <ele>934.1</ele>
        <time>2021-09-08T13:02:47Z</time>
      </trkpt>
      <trkpt lat="44.26577" lon="5.66438">
        <ele>934.3</ele>
        <time>2021-09-08T13:02:48Z</time>
      </trkpt>
      <trkpt lat="44.26576" lon="5.6644">
        <ele>934.4</ele>
        <time>2021-09-08T13:02:49Z</time>
      </trkpt>
      <trkpt lat="44.26575" lon="5.66444">
        <ele>934.5</ele>
        <time>2021-09-08T13:02:50Z</time>
      </trkpt>
      <trkpt lat="44.26576" lon="5.6645">
        <ele>934.7</ele>
        <time>2021-09-08T13:02:52Z</time>
      </trkpt>
      <trkpt lat="44.26576" lon="5.66452">
        <ele>934.8</ele>
        <time>2021-09-08T13:02:53Z</time>
      </trkpt>
      <trkpt lat="44.26577" lon="5.66458">
        <ele>935</ele>
        <time>2021-09-08T13:02:55Z</time>
      </trkpt>
      <trkpt lat="44.2658" lon="5.66463">
        <ele>935.2</ele>
        <time>2021-09-08T13:02:57Z</time>
      </trkpt>
      <trkpt lat="44.26581" lon="5.66464">
        <ele>935.3</ele>
        <time>2021-09-08T13:02:58Z</time>
      </trkpt>
      <trkpt lat="44.26582" lon="5.66466">
        <ele>935.4</ele>
        <time>2021-09-08T13:02:59Z</time>
      </trkpt>
      <trkpt lat="44.26584" lon="5.6647">
        <ele>935.6</ele>
        <time>2021-09-08T13:03:01Z</time>
      </trkpt>
      <trkpt lat="44.26585" lon="5.66471">
        <ele>935.6</ele>
        <time>2021-09-08T13:03:02Z</time>
      </trkpt>
      <trkpt lat="44.26585" lon="5.66473">
        <ele>935.7</ele>
        <time>2021-09-08T13:03:03Z</time>
      </trkpt>
      <trkpt lat="44.26586" lon="5.66475">
        <ele>935.8</ele>
        <time>2021-09-08T13:03:04Z</time>
      </trkpt>
      <trkpt lat="44.26587" lon="5.6648">
        <ele>936</ele>
        <time>2021-09-08T13:03:05Z</time>
      </trkpt>
      <trkpt lat="44.26587" lon="5.66481">
        <ele>936.1</ele>
        <time>2021-09-08T13:03:06Z</time>
      </trkpt>
      <trkpt lat="44.26587" lon="5.66484">
        <ele>936.2</ele>
        <time>2021-09-08T13:03:07Z</time>
      </trkpt>
      <trkpt lat="44.26587" lon="5.66489">
        <ele>936.4</ele>
        <time>2021-09-08T13:03:09Z</time>
      </trkpt>
      <trkpt lat="44.26585" lon="5.66493">
        <ele>936.4</ele>
        <time>2021-09-08T13:03:10Z</time>
      </trkpt>
      <trkpt lat="44.26584" lon="5.66497">
        <ele>936.4</ele>
        <time>2021-09-08T13:03:12Z</time>
      </trkpt>
      <trkpt lat="44.26583" lon="5.66501">
        <ele>936.3</ele>
        <time>2021-09-08T13:03:13Z</time>
      </trkpt>
      <trkpt lat="44.26582" lon="5.66506">
        <ele>936.3</ele>
        <time>2021-09-08T13:03:15Z</time>
      </trkpt>
      <trkpt lat="44.26581" lon="5.6651">
        <ele>936.3</ele>
        <time>2021-09-08T13:03:16Z</time>
      </trkpt>
      <trkpt lat="44.2658" lon="5.66515">
        <ele>936.2</ele>
        <time>2021-09-08T13:03:18Z</time>
      </trkpt>
      <trkpt lat="44.26579" lon="5.66519">
        <ele>936.2</ele>
        <time>2021-09-08T13:03:19Z</time>
      </trkpt>
      <trkpt lat="44.26579" lon="5.66522">
        <ele>936.2</ele>
        <time>2021-09-08T13:03:20Z</time>
      </trkpt>
      <trkpt lat="44.26577" lon="5.66527">
        <ele>936.3</ele>
        <time>2021-09-08T13:03:22Z</time>
      </trkpt>
      <trkpt lat="44.26576" lon="5.66531">
        <ele>936.3</ele>
        <time>2021-09-08T13:03:24Z</time>
      </trkpt>
      <trkpt lat="44.26575" lon="5.66536">
        <ele>936.4</ele>
        <time>2021-09-08T13:03:25Z</time>
      </trkpt>
      <trkpt lat="44.26575" lon="5.6654">
        <ele>936.5</ele>
        <time>2021-09-08T13:03:26Z</time>
      </trkpt>
      <trkpt lat="44.26576" lon="5.66544">
        <ele>936.6</ele>
        <time>2021-09-08T13:03:27Z</time>
      </trkpt>
      <trkpt lat="44.26577" lon="5.66546">
        <ele>936.6</ele>
        <time>2021-09-08T13:03:29Z</time>
      </trkpt>
      <trkpt lat="44.26577" lon="5.66547">
        <ele>936.7</ele>
        <time>2021-09-08T13:03:30Z</time>
      </trkpt>
      <trkpt lat="44.26578" lon="5.66549">
        <ele>936.7</ele>
        <time>2021-09-08T13:03:31Z</time>
      </trkpt>
      <trkpt lat="44.26577" lon="5.66554">
        <ele>936.8</ele>
        <time>2021-09-08T13:03:33Z</time>
      </trkpt>
      <trkpt lat="44.26577" lon="5.6656">
        <ele>937</ele>
        <time>2021-09-08T13:03:34Z</time>
      </trkpt>
      <trkpt lat="44.26579" lon="5.66566">
        <ele>937.2</ele>
        <time>2021-09-08T13:03:36Z</time>
      </trkpt>
      <trkpt lat="44.26581" lon="5.66567">
        <ele>937.3</ele>
        <time>2021-09-08T13:03:37Z</time>
      </trkpt>
      <trkpt lat="44.26583" lon="5.6657">
        <ele>937.5</ele>
        <time>2021-09-08T13:03:39Z</time>
      </trkpt>
      <trkpt lat="44.26585" lon="5.66574">
        <ele>937.6</ele>
        <time>2021-09-08T13:03:40Z</time>
      </trkpt>
      <trkpt lat="44.26587" lon="5.66579">
        <ele>937.8</ele>
        <time>2021-09-08T13:03:42Z</time>
      </trkpt>
      <trkpt lat="44.26588" lon="5.66582">
        <ele>937.9</ele>
        <time>2021-09-08T13:03:43Z</time>
      </trkpt>
      <trkpt lat="44.2659" lon="5.66588">
        <ele>938</ele>
        <time>2021-09-08T13:03:45Z</time>
      </trkpt>
      <trkpt lat="44.2659" lon="5.6659">
        <ele>938.1</ele>
        <time>2021-09-08T13:03:46Z</time>
      </trkpt>
      <trkpt lat="44.2659" lon="5.66595">
        <ele>938.2</ele>
        <time>2021-09-08T13:03:47Z</time>
      </trkpt>
      <trkpt lat="44.2659" lon="5.66597">
        <ele>938.3</ele>
        <time>2021-09-08T13:03:48Z</time>
      </trkpt>
      <trkpt lat="44.26592" lon="5.66601">
        <ele>938.4</ele>
        <time>2021-09-08T13:03:50Z</time>
      </trkpt>
      <trkpt lat="44.26592" lon="5.66602">
        <ele>938.4</ele>
        <time>2021-09-08T13:03:51Z</time>
      </trkpt>
      <trkpt lat="44.26592" lon="5.66606">
        <ele>938.5</ele>
        <time>2021-09-08T13:03:53Z</time>
      </trkpt>
      <trkpt lat="44.26592" lon="5.66609">
        <ele>938.6</ele>
        <time>2021-09-08T13:03:54Z</time>
      </trkpt>
      <trkpt lat="44.26592" lon="5.66608">
        <ele>938.6</ele>
        <time>2021-09-08T13:03:56Z</time>
      </trkpt>
      <trkpt lat="44.26593" lon="5.6661">
        <ele>938.6</ele>
        <time>2021-09-08T13:03:57Z</time>
      </trkpt>
      <trkpt lat="44.26593" lon="5.6661">
        <ele>938.7</ele>
        <time>2021-09-08T13:03:58Z</time>
      </trkpt>
      <trkpt lat="44.26593" lon="5.66614">
        <ele>938.7</ele>
        <time>2021-09-08T13:04:00Z</time>
      </trkpt>
      <trkpt lat="44.26594" lon="5.66618">
        <ele>938.8</ele>
        <time>2021-09-08T13:04:01Z</time>
      </trkpt>
      <trkpt lat="44.26595" lon="5.66621">
        <ele>938.9</ele>
        <time>2021-09-08T13:04:02Z</time>
      </trkpt>
      <trkpt lat="44.26595" lon="5.66622">
        <ele>938.9</ele>
        <time>2021-09-08T13:04:03Z</time>
      </trkpt>
      <trkpt lat="44.26596" lon="5.66623">
        <ele>938.9</ele>
        <time>2021-09-08T13:04:05Z</time>
      </trkpt>
      <trkpt lat="44.26596" lon="5.66624">
        <ele>938.9</ele>
        <time>2021-09-08T13:04:06Z</time>
      </trkpt>
      <trkpt lat="44.26597" lon="5.66624">
        <ele>938.9</ele>
        <time>2021-09-08T13:04:07Z</time>
      </trkpt>
      <trkpt lat="44.26598" lon="5.66625">
        <ele>938.9</ele>
        <time>2021-09-08T13:04:09Z</time>
      </trkpt>
      <trkpt lat="44.26598" lon="5.66625">
        <ele>939</ele>
        <time>2021-09-08T13:04:10Z</time>
      </trkpt>
      <trkpt lat="44.26599" lon="5.66626">
        <ele>939</ele>
        <time>2021-09-08T13:04:11Z</time>
      </trkpt>
      <trkpt lat="44.26599" lon="5.66627">
        <ele>939</ele>
        <time>2021-09-08T13:04:13Z</time>
      </trkpt>
      <trkpt lat="44.26603" lon="5.66638">
        <ele>939</ele>
        <time>2021-09-08T13:04:20Z</time>
      </trkpt>
      <trkpt lat="44.26605" lon="5.66642">
        <ele>939</ele>
        <time>2021-09-08T13:04:22Z</time>
      </trkpt>
      <trkpt lat="44.26606" lon="5.66645">
        <ele>939</ele>
        <time>2021-09-08T13:04:23Z</time>
      </trkpt>
      <trkpt lat="44.26608" lon="5.6665">
        <ele>938.9</ele>
        <time>2021-09-08T13:04:24Z</time>
      </trkpt>
      <trkpt lat="44.2661" lon="5.66652">
        <ele>938.9</ele>
        <time>2021-09-08T13:04:25Z</time>
      </trkpt>
      <trkpt lat="44.26613" lon="5.66657">
        <ele>938.8</ele>
        <time>2021-09-08T13:04:27Z</time>
      </trkpt>
      <trkpt lat="44.26615" lon="5.6666">
        <ele>938.7</ele>
        <time>2021-09-08T13:04:29Z</time>
      </trkpt>
      <trkpt lat="44.26617" lon="5.66663">
        <ele>938.7</ele>
        <time>2021-09-08T13:04:30Z</time>
      </trkpt>
      <trkpt lat="44.26617" lon="5.66668">
        <ele>938.6</ele>
        <time>2021-09-08T13:04:32Z</time>
      </trkpt>
      <trkpt lat="44.26617" lon="5.6667">
        <ele>938.6</ele>
        <time>2021-09-08T13:04:33Z</time>
      </trkpt>
      <trkpt lat="44.26618" lon="5.66672">
        <ele>938.6</ele>
        <time>2021-09-08T13:04:34Z</time>
      </trkpt>
      <trkpt lat="44.2662" lon="5.66676">
        <ele>938.5</ele>
        <time>2021-09-08T13:04:36Z</time>
      </trkpt>
      <trkpt lat="44.2662" lon="5.66677">
        <ele>938.5</ele>
        <time>2021-09-08T13:04:37Z</time>
      </trkpt>
      <trkpt lat="44.26622" lon="5.66677">
        <ele>938.5</ele>
        <time>2021-09-08T13:04:39Z</time>
      </trkpt>
      <trkpt lat="44.26623" lon="5.66679">
        <ele>938.5</ele>
        <time>2021-09-08T13:04:40Z</time>
      </trkpt>
      <trkpt lat="44.26624" lon="5.66681">
        <ele>938.5</ele>
        <time>2021-09-08T13:04:41Z</time>
      </trkpt>
      <trkpt lat="44.26625" lon="5.66686">
        <ele>938.5</ele>
        <time>2021-09-08T13:04:43Z</time>
      </trkpt>
      <trkpt lat="44.26626" lon="5.6669">
        <ele>938.5</ele>
        <time>2021-09-08T13:04:45Z</time>
      </trkpt>
      <trkpt lat="44.26626" lon="5.66692">
        <ele>938.5</ele>
        <time>2021-09-08T13:04:46Z</time>
      </trkpt>
      <trkpt lat="44.26627" lon="5.66694">
        <ele>938.5</ele>
        <time>2021-09-08T13:04:47Z</time>
      </trkpt>
      <trkpt lat="44.26628" lon="5.667">
        <ele>938.5</ele>
        <time>2021-09-08T13:04:49Z</time>
      </trkpt>
      <trkpt lat="44.26629" lon="5.66702">
        <ele>938.5</ele>
        <time>2021-09-08T13:04:51Z</time>
      </trkpt>
      <trkpt lat="44.26629" lon="5.66704">
        <ele>938.5</ele>
        <time>2021-09-08T13:04:52Z</time>
      </trkpt>
      <trkpt lat="44.26629" lon="5.66707">
        <ele>938.5</ele>
        <time>2021-09-08T13:04:53Z</time>
      </trkpt>
      <trkpt lat="44.2663" lon="5.66709">
        <ele>938.5</ele>
        <time>2021-09-08T13:04:54Z</time>
      </trkpt>
      <trkpt lat="44.26631" lon="5.66714">
        <ele>938.5</ele>
        <time>2021-09-08T13:04:56Z</time>
      </trkpt>
      <trkpt lat="44.26632" lon="5.66715">
        <ele>938.6</ele>
        <time>2021-09-08T13:04:57Z</time>
      </trkpt>
      <trkpt lat="44.26633" lon="5.66719">
        <ele>938.6</ele>
        <time>2021-09-08T13:04:58Z</time>
      </trkpt>
      <trkpt lat="44.26634" lon="5.6672">
        <ele>938.6</ele>
        <time>2021-09-08T13:04:59Z</time>
      </trkpt>
      <trkpt lat="44.26635" lon="5.66722">
        <ele>938.6</ele>
        <time>2021-09-08T13:05:00Z</time>
      </trkpt>
      <trkpt lat="44.26636" lon="5.66725">
        <ele>938.6</ele>
        <time>2021-09-08T13:05:02Z</time>
      </trkpt>
      <trkpt lat="44.26638" lon="5.66729">
        <ele>938.7</ele>
        <time>2021-09-08T13:05:03Z</time>
      </trkpt>
      <trkpt lat="44.26639" lon="5.6673">
        <ele>938.7</ele>
        <time>2021-09-08T13:05:04Z</time>
      </trkpt>
      <trkpt lat="44.26642" lon="5.66732">
        <ele>938.7</ele>
        <time>2021-09-08T13:05:06Z</time>
      </trkpt>
      <trkpt lat="44.26643" lon="5.66734">
        <ele>938.8</ele>
        <time>2021-09-08T13:05:07Z</time>
      </trkpt>
      <trkpt lat="44.26644" lon="5.66739">
        <ele>938.9</ele>
        <time>2021-09-08T13:05:09Z</time>
      </trkpt>
      <trkpt lat="44.26645" lon="5.66741">
        <ele>938.9</ele>
        <time>2021-09-08T13:05:10Z</time>
      </trkpt>
      <trkpt lat="44.26645" lon="5.66744">
        <ele>939</ele>
        <time>2021-09-08T13:05:12Z</time>
      </trkpt>
      <trkpt lat="44.26646" lon="5.66748">
        <ele>939</ele>
        <time>2021-09-08T13:05:13Z</time>
      </trkpt>
      <trkpt lat="44.26647" lon="5.6675">
        <ele>939.1</ele>
        <time>2021-09-08T13:05:15Z</time>
      </trkpt>
      <trkpt lat="44.2665" lon="5.66751">
        <ele>939.1</ele>
        <time>2021-09-08T13:05:16Z</time>
      </trkpt>
      <trkpt lat="44.26651" lon="5.66752">
        <ele>939.2</ele>
        <time>2021-09-08T13:05:17Z</time>
      </trkpt>
      <trkpt lat="44.26654" lon="5.66755">
        <ele>939.2</ele>
        <time>2021-09-08T13:05:18Z</time>
      </trkpt>
      <trkpt lat="44.26655" lon="5.66755">
        <ele>939.2</ele>
        <time>2021-09-08T13:05:19Z</time>
      </trkpt>
      <trkpt lat="44.26659" lon="5.66759">
        <ele>939.6</ele>
        <time>2021-09-08T13:05:21Z</time>
      </trkpt>
      <trkpt lat="44.26661" lon="5.66759">
        <ele>939.8</ele>
        <time>2021-09-08T13:05:22Z</time>
      </trkpt>
      <trkpt lat="44.26662" lon="5.6676">
        <ele>939.9</ele>
        <time>2021-09-08T13:05:23Z</time>
      </trkpt>
      <trkpt lat="44.26663" lon="5.66761">
        <ele>940</ele>
        <time>2021-09-08T13:05:24Z</time>
      </trkpt>
      <trkpt lat="44.26665" lon="5.66763">
        <ele>940.2</ele>
        <time>2021-09-08T13:05:26Z</time>
      </trkpt>
      <trkpt lat="44.26664" lon="5.66764">
        <ele>940.3</ele>
        <time>2021-09-08T13:05:27Z</time>
      </trkpt>
      <trkpt lat="44.26663" lon="5.66765">
        <ele>940.4</ele>
        <time>2021-09-08T13:05:28Z</time>
      </trkpt>
      <trkpt lat="44.26664" lon="5.66767">
        <ele>940.5</ele>
        <time>2021-09-08T13:05:29Z</time>
      </trkpt>
      <trkpt lat="44.26666" lon="5.66773">
        <ele>940.9</ele>
        <time>2021-09-08T13:05:31Z</time>
      </trkpt>
      <trkpt lat="44.26666" lon="5.66774">
        <ele>941</ele>
        <time>2021-09-08T13:05:32Z</time>
      </trkpt>
      <trkpt lat="44.26666" lon="5.66776">
        <ele>941.1</ele>
        <time>2021-09-08T13:05:33Z</time>
      </trkpt>
      <trkpt lat="44.26667" lon="5.66779">
        <ele>941.3</ele>
        <time>2021-09-08T13:05:35Z</time>
      </trkpt>
      <trkpt lat="44.26667" lon="5.66781">
        <ele>941.4</ele>
        <time>2021-09-08T13:05:36Z</time>
      </trkpt>
      <trkpt lat="44.26667" lon="5.66781">
        <ele>941.4</ele>
        <time>2021-09-08T13:05:37Z</time>
      </trkpt>
      <trkpt lat="44.26667" lon="5.66782">
        <ele>941.5</ele>
        <time>2021-09-08T13:05:38Z</time>
      </trkpt>
      <trkpt lat="44.26668" lon="5.66783">
        <ele>941.6</ele>
        <time>2021-09-08T13:05:40Z</time>
      </trkpt>
      <trkpt lat="44.26668" lon="5.66785">
        <ele>941.7</ele>
        <time>2021-09-08T13:05:41Z</time>
      </trkpt>
      <trkpt lat="44.26669" lon="5.66788">
        <ele>942</ele>
        <time>2021-09-08T13:05:43Z</time>
      </trkpt>
      <trkpt lat="44.2667" lon="5.66789">
        <ele>942.1</ele>
        <time>2021-09-08T13:05:44Z</time>
      </trkpt>
      <trkpt lat="44.2667" lon="5.66791">
        <ele>942.2</ele>
        <time>2021-09-08T13:05:45Z</time>
      </trkpt>
      <trkpt lat="44.26672" lon="5.66794">
        <ele>942.4</ele>
        <time>2021-09-08T13:05:48Z</time>
      </trkpt>
      <trkpt lat="44.26674" lon="5.66798">
        <ele>942.7</ele>
        <time>2021-09-08T13:05:49Z</time>
      </trkpt>
      <trkpt lat="44.26676" lon="5.66802">
        <ele>943</ele>
        <time>2021-09-08T13:05:51Z</time>
      </trkpt>
      <trkpt lat="44.26677" lon="5.66802">
        <ele>943.1</ele>
        <time>2021-09-08T13:05:52Z</time>
      </trkpt>
      <trkpt lat="44.26678" lon="5.66803">
        <ele>943.2</ele>
        <time>2021-09-08T13:05:53Z</time>
      </trkpt>
      <trkpt lat="44.26682" lon="5.66805">
        <ele>943.5</ele>
        <time>2021-09-08T13:05:55Z</time>
      </trkpt>
      <trkpt lat="44.26685" lon="5.66806">
        <ele>943.8</ele>
        <time>2021-09-08T13:05:56Z</time>
      </trkpt>
      <trkpt lat="44.26688" lon="5.66806">
        <ele>944</ele>
        <time>2021-09-08T13:05:57Z</time>
      </trkpt>
      <trkpt lat="44.26691" lon="5.66807">
        <ele>944.2</ele>
        <time>2021-09-08T13:05:59Z</time>
      </trkpt>
      <trkpt lat="44.26693" lon="5.66807">
        <ele>944.3</ele>
        <time>2021-09-08T13:06:00Z</time>
      </trkpt>
      <trkpt lat="44.26695" lon="5.66808">
        <ele>944.5</ele>
        <time>2021-09-08T13:06:01Z</time>
      </trkpt>
      <trkpt lat="44.26696" lon="5.66809">
        <ele>944.6</ele>
        <time>2021-09-08T13:06:02Z</time>
      </trkpt>
      <trkpt lat="44.26698" lon="5.66811">
        <ele>944.8</ele>
        <time>2021-09-08T13:06:04Z</time>
      </trkpt>
      <trkpt lat="44.26701" lon="5.66811">
        <ele>945</ele>
        <time>2021-09-08T13:06:05Z</time>
      </trkpt>
      <trkpt lat="44.26705" lon="5.66814">
        <ele>945.3</ele>
        <time>2021-09-08T13:06:07Z</time>
      </trkpt>
      <trkpt lat="44.26706" lon="5.66815">
        <ele>945.4</ele>
        <time>2021-09-08T13:06:08Z</time>
      </trkpt>
      <trkpt lat="44.26708" lon="5.66816">
        <ele>945.5</ele>
        <time>2021-09-08T13:06:09Z</time>
      </trkpt>
      <trkpt lat="44.26709" lon="5.66817">
        <ele>945.6</ele>
        <time>2021-09-08T13:06:10Z</time>
      </trkpt>
      <trkpt lat="44.26713" lon="5.6682">
        <ele>945.9</ele>
        <time>2021-09-08T13:06:12Z</time>
      </trkpt>
      <trkpt lat="44.26714" lon="5.66822">
        <ele>946.1</ele>
        <time>2021-09-08T13:06:13Z</time>
      </trkpt>
      <trkpt lat="44.26715" lon="5.66824">
        <ele>946.2</ele>
        <time>2021-09-08T13:06:15Z</time>
      </trkpt>
      <trkpt lat="44.26717" lon="5.66826">
        <ele>946.4</ele>
        <time>2021-09-08T13:06:16Z</time>
      </trkpt>
      <trkpt lat="44.26719" lon="5.66828">
        <ele>946.6</ele>
        <time>2021-09-08T13:06:18Z</time>
      </trkpt>
      <trkpt lat="44.26721" lon="5.66828">
        <ele>946.8</ele>
        <time>2021-09-08T13:06:19Z</time>
      </trkpt>
      <trkpt lat="44.26723" lon="5.66828">
        <ele>947</ele>
        <time>2021-09-08T13:06:21Z</time>
      </trkpt>
      <trkpt lat="44.26726" lon="5.66829">
        <ele>947.2</ele>
        <time>2021-09-08T13:06:22Z</time>
      </trkpt>
      <trkpt lat="44.26727" lon="5.66829">
        <ele>947.4</ele>
        <time>2021-09-08T13:06:23Z</time>
      </trkpt>
      <trkpt lat="44.2673" lon="5.6683">
        <ele>947.6</ele>
        <time>2021-09-08T13:06:25Z</time>
      </trkpt>
      <trkpt lat="44.26733" lon="5.6683">
        <ele>947.9</ele>
        <time>2021-09-08T13:06:27Z</time>
      </trkpt>
      <trkpt lat="44.26734" lon="5.6683">
        <ele>948</ele>
        <time>2021-09-08T13:06:28Z</time>
      </trkpt>
      <trkpt lat="44.26737" lon="5.66828">
        <ele>948.4</ele>
        <time>2021-09-08T13:06:30Z</time>
      </trkpt>
      <trkpt lat="44.26738" lon="5.66827">
        <ele>948.5</ele>
        <time>2021-09-08T13:06:31Z</time>
      </trkpt>
      <trkpt lat="44.26741" lon="5.66827">
        <ele>948.8</ele>
        <time>2021-09-08T13:06:32Z</time>
      </trkpt>
      <trkpt lat="44.26742" lon="5.66826">
        <ele>948.9</ele>
        <time>2021-09-08T13:06:34Z</time>
      </trkpt>
      <trkpt lat="44.26743" lon="5.66826">
        <ele>949</ele>
        <time>2021-09-08T13:06:36Z</time>
      </trkpt>
      <trkpt lat="44.26743" lon="5.66826">
        <ele>949</ele>
        <time>2021-09-08T13:06:37Z</time>
      </trkpt>
      <trkpt lat="44.26743" lon="5.66827">
        <ele>949.1</ele>
        <time>2021-09-08T13:06:38Z</time>
      </trkpt>
      <trkpt lat="44.26744" lon="5.66828">
        <ele>949.2</ele>
        <time>2021-09-08T13:06:40Z</time>
      </trkpt>
      <trkpt lat="44.26744" lon="5.66829">
        <ele>949.3</ele>
        <time>2021-09-08T13:06:41Z</time>
      </trkpt>
      <trkpt lat="44.26744" lon="5.6683">
        <ele>949.4</ele>
        <time>2021-09-08T13:06:43Z</time>
      </trkpt>
      <trkpt lat="44.26744" lon="5.66831">
        <ele>949.4</ele>
        <time>2021-09-08T13:06:44Z</time>
      </trkpt>
      <trkpt lat="44.26759" lon="5.66861">
        <ele>952.5</ele>
        <time>2021-09-08T13:07:02Z</time>
      </trkpt>
      <trkpt lat="44.26762" lon="5.66866">
        <ele>953.1</ele>
        <time>2021-09-08T13:07:03Z</time>
      </trkpt>
      <trkpt lat="44.26764" lon="5.66868">
        <ele>953.4</ele>
        <time>2021-09-08T13:07:04Z</time>
      </trkpt>
      <trkpt lat="44.26766" lon="5.66872">
        <ele>953.8</ele>
        <time>2021-09-08T13:07:06Z</time>
      </trkpt>
      <trkpt lat="44.26769" lon="5.66874">
        <ele>954.1</ele>
        <time>2021-09-08T13:07:08Z</time>
      </trkpt>
      <trkpt lat="44.26772" lon="5.66878">
        <ele>954.6</ele>
        <time>2021-09-08T13:07:09Z</time>
      </trkpt>
      <trkpt lat="44.26775" lon="5.66881">
        <ele>955</ele>
        <time>2021-09-08T13:07:11Z</time>
      </trkpt>
      <trkpt lat="44.26776" lon="5.66881">
        <ele>955.1</ele>
        <time>2021-09-08T13:07:12Z</time>
      </trkpt>
      <trkpt lat="44.26779" lon="5.66885">
        <ele>955.6</ele>
        <time>2021-09-08T13:07:14Z</time>
      </trkpt>
      <trkpt lat="44.26782" lon="5.66887">
        <ele>956</ele>
        <time>2021-09-08T13:07:15Z</time>
      </trkpt>
      <trkpt lat="44.26783" lon="5.66887">
        <ele>956.1</ele>
        <time>2021-09-08T13:07:16Z</time>
      </trkpt>
      <trkpt lat="44.26784" lon="5.66888">
        <ele>956.2</ele>
        <time>2021-09-08T13:07:17Z</time>
      </trkpt>
      <trkpt lat="44.26785" lon="5.66888">
        <ele>956.4</ele>
        <time>2021-09-08T13:07:18Z</time>
      </trkpt>
      <trkpt lat="44.26789" lon="5.6689">
        <ele>956.8</ele>
        <time>2021-09-08T13:07:20Z</time>
      </trkpt>
      <trkpt lat="44.2679" lon="5.6689">
        <ele>956.9</ele>
        <time>2021-09-08T13:07:21Z</time>
      </trkpt>
      <trkpt lat="44.26792" lon="5.66891">
        <ele>957.1</ele>
        <time>2021-09-08T13:07:22Z</time>
      </trkpt>
      <trkpt lat="44.26793" lon="5.66891">
        <ele>957.3</ele>
        <time>2021-09-08T13:07:23Z</time>
      </trkpt>
      <trkpt lat="44.26796" lon="5.66892">
        <ele>957.7</ele>
        <time>2021-09-08T13:07:25Z</time>
      </trkpt>
      <trkpt lat="44.26797" lon="5.66893">
        <ele>957.8</ele>
        <time>2021-09-08T13:07:26Z</time>
      </trkpt>
      <trkpt lat="44.26798" lon="5.66893">
        <ele>958</ele>
        <time>2021-09-08T13:07:27Z</time>
      </trkpt>
      <trkpt lat="44.268" lon="5.66893">
        <ele>958.2</ele>
        <time>2021-09-08T13:07:29Z</time>
      </trkpt>
      <trkpt lat="44.268" lon="5.66896">
        <ele>958.5</ele>
        <time>2021-09-08T13:07:30Z</time>
      </trkpt>
      <trkpt lat="44.26799" lon="5.66898">
        <ele>958.7</ele>
        <time>2021-09-08T13:07:31Z</time>
      </trkpt>
      <trkpt lat="44.26799" lon="5.66899">
        <ele>958.8</ele>
        <time>2021-09-08T13:07:32Z</time>
      </trkpt>
      <trkpt lat="44.26798" lon="5.66902">
        <ele>959.1</ele>
        <time>2021-09-08T13:07:33Z</time>
      </trkpt>
      <trkpt lat="44.26799" lon="5.66904">
        <ele>959.2</ele>
        <time>2021-09-08T13:07:34Z</time>
      </trkpt>
      <trkpt lat="44.26799" lon="5.66905">
        <ele>959.3</ele>
        <time>2021-09-08T13:07:36Z</time>
      </trkpt>
      <trkpt lat="44.26799" lon="5.66905">
        <ele>959.4</ele>
        <time>2021-09-08T13:07:38Z</time>
      </trkpt>
      <trkpt lat="44.26799" lon="5.66905">
        <ele>959.4</ele>
        <time>2021-09-08T13:07:39Z</time>
      </trkpt>
      <trkpt lat="44.26799" lon="5.66905">
        <ele>959.4</ele>
        <time>2021-09-08T13:07:41Z</time>
      </trkpt>
      <trkpt lat="44.26799" lon="5.66905">
        <ele>959.4</ele>
        <time>2021-09-08T13:07:42Z</time>
      </trkpt>
      <trkpt lat="44.26798" lon="5.66905">
        <ele>959.4</ele>
        <time>2021-09-08T13:07:44Z</time>
      </trkpt>
      <trkpt lat="44.26803" lon="5.66953">
        <ele>963.3</ele>
        <time>2021-09-08T13:08:28Z</time>
      </trkpt>
      <trkpt lat="44.26805" lon="5.66956">
        <ele>963.7</ele>
        <time>2021-09-08T13:08:29Z</time>
      </trkpt>
      <trkpt lat="44.26807" lon="5.66959">
        <ele>964.1</ele>
        <time>2021-09-08T13:08:31Z</time>
      </trkpt>
      <trkpt lat="44.26809" lon="5.66961">
        <ele>964.3</ele>
        <time>2021-09-08T13:08:32Z</time>
      </trkpt>
      <trkpt lat="44.26809" lon="5.66962">
        <ele>964.4</ele>
        <time>2021-09-08T13:08:34Z</time>
      </trkpt>
      <trkpt lat="44.2681" lon="5.66963">
        <ele>964.5</ele>
        <time>2021-09-08T13:08:35Z</time>
      </trkpt>
      <trkpt lat="44.26811" lon="5.66964">
        <ele>964.7</ele>
        <time>2021-09-08T13:08:36Z</time>
      </trkpt>
      <trkpt lat="44.26811" lon="5.66966">
        <ele>964.8</ele>
        <time>2021-09-08T13:08:37Z</time>
      </trkpt>
      <trkpt lat="44.26811" lon="5.66967">
        <ele>964.9</ele>
        <time>2021-09-08T13:08:39Z</time>
      </trkpt>
      <trkpt lat="44.26811" lon="5.66969">
        <ele>965.1</ele>
        <time>2021-09-08T13:08:40Z</time>
      </trkpt>
      <trkpt lat="44.26811" lon="5.6697">
        <ele>965.2</ele>
        <time>2021-09-08T13:08:41Z</time>
      </trkpt>
      <trkpt lat="44.26812" lon="5.66972">
        <ele>965.3</ele>
        <time>2021-09-08T13:08:42Z</time>
      </trkpt>
      <trkpt lat="44.26813" lon="5.66974">
        <ele>965.6</ele>
        <time>2021-09-08T13:08:44Z</time>
      </trkpt>
      <trkpt lat="44.26814" lon="5.66976">
        <ele>965.8</ele>
        <time>2021-09-08T13:08:45Z</time>
      </trkpt>
      <trkpt lat="44.26815" lon="5.66978">
        <ele>966</ele>
        <time>2021-09-08T13:08:46Z</time>
      </trkpt>
      <trkpt lat="44.26815" lon="5.66979">
        <ele>966.1</ele>
        <time>2021-09-08T13:08:47Z</time>
      </trkpt>
      <trkpt lat="44.26815" lon="5.6698">
        <ele>966.2</ele>
        <time>2021-09-08T13:08:48Z</time>
      </trkpt>
      <trkpt lat="44.26816" lon="5.6698">
        <ele>966.3</ele>
        <time>2021-09-08T13:08:50Z</time>
      </trkpt>
      <trkpt lat="44.26816" lon="5.66981">
        <ele>966.4</ele>
        <time>2021-09-08T13:08:51Z</time>
      </trkpt>
      <trkpt lat="44.26817" lon="5.66981">
        <ele>966.4</ele>
        <time>2021-09-08T13:08:52Z</time>
      </trkpt>
      <trkpt lat="44.26817" lon="5.66984">
        <ele>966.7</ele>
        <time>2021-09-08T13:08:54Z</time>
      </trkpt>
      <trkpt lat="44.26818" lon="5.66986">
        <ele>966.8</ele>
        <time>2021-09-08T13:08:55Z</time>
      </trkpt>
      <trkpt lat="44.26818" lon="5.67006">
        <ele>968.9</ele>
        <time>2021-09-08T13:09:09Z</time>
      </trkpt>
      <trkpt lat="44.26818" lon="5.67008">
        <ele>969</ele>
        <time>2021-09-08T13:09:10Z</time>
      </trkpt>
      <trkpt lat="44.26819" lon="5.67009">
        <ele>969.1</ele>
        <time>2021-09-08T13:09:11Z</time>
      </trkpt>
      <trkpt lat="44.26819" lon="5.6701">
        <ele>969.2</ele>
        <time>2021-09-08T13:09:13Z</time>
      </trkpt>
      <trkpt lat="44.26819" lon="5.67011">
        <ele>969.3</ele>
        <time>2021-09-08T13:09:14Z</time>
      </trkpt>
      <trkpt lat="44.26819" lon="5.67011">
        <ele>969.3</ele>
        <time>2021-09-08T13:09:15Z</time>
      </trkpt>
      <trkpt lat="44.26819" lon="5.67012">
        <ele>969.4</ele>
        <time>2021-09-08T13:09:17Z</time>
      </trkpt>
      <trkpt lat="44.2682" lon="5.67013">
        <ele>969.6</ele>
        <time>2021-09-08T13:09:18Z</time>
      </trkpt>
      <trkpt lat="44.2682" lon="5.67015">
        <ele>969.7</ele>
        <time>2021-09-08T13:09:19Z</time>
      </trkpt>
      <trkpt lat="44.26824" lon="5.67025">
        <ele>970.7</ele>
        <time>2021-09-08T13:09:21Z</time>
      </trkpt>
      <trkpt lat="44.26826" lon="5.67033">
        <ele>971.4</ele>
        <time>2021-09-08T13:09:40Z</time>
      </trkpt>
      <trkpt lat="44.26828" lon="5.67042">
        <ele>972.1</ele>
        <time>2021-09-08T13:09:42Z</time>
      </trkpt>
      <trkpt lat="44.26831" lon="5.6705">
        <ele>972.7</ele>
        <time>2021-09-08T13:09:43Z</time>
      </trkpt>
      <trkpt lat="44.26831" lon="5.67053">
        <ele>972.9</ele>
        <time>2021-09-08T13:09:44Z</time>
      </trkpt>
      <trkpt lat="44.26833" lon="5.67058">
        <ele>973.2</ele>
        <time>2021-09-08T13:09:46Z</time>
      </trkpt>
      <trkpt lat="44.26834" lon="5.6706">
        <ele>973.4</ele>
        <time>2021-09-08T13:09:47Z</time>
      </trkpt>
      <trkpt lat="44.26835" lon="5.67062">
        <ele>973.5</ele>
        <time>2021-09-08T13:09:49Z</time>
      </trkpt>
      <trkpt lat="44.26836" lon="5.67063">
        <ele>973.6</ele>
        <time>2021-09-08T13:09:50Z</time>
      </trkpt>
      <trkpt lat="44.26836" lon="5.67064">
        <ele>973.7</ele>
        <time>2021-09-08T13:09:51Z</time>
      </trkpt>
      <trkpt lat="44.26836" lon="5.67065">
        <ele>973.7</ele>
        <time>2021-09-08T13:09:52Z</time>
      </trkpt>
      <trkpt lat="44.26836" lon="5.67065">
        <ele>973.8</ele>
        <time>2021-09-08T13:09:54Z</time>
      </trkpt>
      <trkpt lat="44.26836" lon="5.67066">
        <ele>973.8</ele>
        <time>2021-09-08T13:09:55Z</time>
      </trkpt>
      <trkpt lat="44.26837" lon="5.67066">
        <ele>973.8</ele>
        <time>2021-09-08T13:09:57Z</time>
      </trkpt>
      <trkpt lat="44.26837" lon="5.67066">
        <ele>973.8</ele>
        <time>2021-09-08T13:09:58Z</time>
      </trkpt>
      <trkpt lat="44.26837" lon="5.67067">
        <ele>973.9</ele>
        <time>2021-09-08T13:09:59Z</time>
      </trkpt>
      <trkpt lat="44.26839" lon="5.67069">
        <ele>974.1</ele>
        <time>2021-09-08T13:10:01Z</time>
      </trkpt>
      <trkpt lat="44.2684" lon="5.67071">
        <ele>974.3</ele>
        <time>2021-09-08T13:10:02Z</time>
      </trkpt>
      <trkpt lat="44.26847" lon="5.67188">
        <ele>979.9</ele>
        <time>2021-09-08T13:11:25Z</time>
      </trkpt>
      <trkpt lat="44.26847" lon="5.6719">
        <ele>980</ele>
        <time>2021-09-08T13:11:26Z</time>
      </trkpt>
      <trkpt lat="44.26849" lon="5.67194">
        <ele>980.1</ele>
        <time>2021-09-08T13:11:28Z</time>
      </trkpt>
      <trkpt lat="44.26851" lon="5.67197">
        <ele>980.2</ele>
        <time>2021-09-08T13:11:29Z</time>
      </trkpt>
      <trkpt lat="44.26854" lon="5.67201">
        <ele>980.3</ele>
        <time>2021-09-08T13:11:31Z</time>
      </trkpt>
      <trkpt lat="44.26858" lon="5.67204">
        <ele>980.5</ele>
        <time>2021-09-08T13:11:33Z</time>
      </trkpt>
      <trkpt lat="44.26859" lon="5.67205">
        <ele>980.5</ele>
        <time>2021-09-08T13:11:35Z</time>
      </trkpt>
      <trkpt lat="44.2686" lon="5.67206">
        <ele>980.6</ele>
        <time>2021-09-08T13:11:36Z</time>
      </trkpt>
      <trkpt lat="44.26861" lon="5.67207">
        <ele>980.7</ele>
        <time>2021-09-08T13:11:37Z</time>
      </trkpt>
      <trkpt lat="44.26863" lon="5.67209">
        <ele>980.7</ele>
        <time>2021-09-08T13:11:39Z</time>
      </trkpt>
      <trkpt lat="44.26865" lon="5.67209">
        <ele>980.8</ele>
        <time>2021-09-08T13:11:40Z</time>
      </trkpt>
      <trkpt lat="44.26866" lon="5.67209">
        <ele>980.9</ele>
        <time>2021-09-08T13:11:41Z</time>
      </trkpt>
      <trkpt lat="44.26867" lon="5.67209">
        <ele>980.9</ele>
        <time>2021-09-08T13:11:42Z</time>
      </trkpt>
      <trkpt lat="44.26868" lon="5.67208">
        <ele>981</ele>
        <time>2021-09-08T13:11:43Z</time>
      </trkpt>
      <trkpt lat="44.2687" lon="5.67207">
        <ele>981.1</ele>
        <time>2021-09-08T13:11:45Z</time>
      </trkpt>
      <trkpt lat="44.2687" lon="5.67206">
        <ele>981.1</ele>
        <time>2021-09-08T13:11:46Z</time>
      </trkpt>
      <trkpt lat="44.2687" lon="5.67204">
        <ele>981.2</ele>
        <time>2021-09-08T13:11:47Z</time>
      </trkpt>
      <trkpt lat="44.2687" lon="5.672">
        <ele>981.4</ele>
        <time>2021-09-08T13:11:49Z</time>
      </trkpt>
      <trkpt lat="44.26869" lon="5.67199">
        <ele>981.4</ele>
        <time>2021-09-08T13:11:51Z</time>
      </trkpt>
      <trkpt lat="44.26869" lon="5.67199">
        <ele>981.5</ele>
        <time>2021-09-08T13:11:52Z</time>
      </trkpt>
      <trkpt lat="44.26869" lon="5.67196">
        <ele>981.6</ele>
        <time>2021-09-08T13:11:53Z</time>
      </trkpt>
      <trkpt lat="44.26868" lon="5.67193">
        <ele>981.7</ele>
        <time>2021-09-08T13:11:54Z</time>
      </trkpt>
      <trkpt lat="44.26869" lon="5.6719">
        <ele>981.9</ele>
        <time>2021-09-08T13:11:56Z</time>
      </trkpt>
      <trkpt lat="44.26869" lon="5.67188">
        <ele>982</ele>
        <time>2021-09-08T13:11:57Z</time>
      </trkpt>
      <trkpt lat="44.26869" lon="5.67185">
        <ele>982.2</ele>
        <time>2021-09-08T13:11:59Z</time>
      </trkpt>
      <trkpt lat="44.26868" lon="5.67184">
        <ele>982.2</ele>
        <time>2021-09-08T13:12:01Z</time>
      </trkpt>
      <trkpt lat="44.26868" lon="5.67183">
        <ele>982.3</ele>
        <time>2021-09-08T13:12:02Z</time>
      </trkpt>
      <trkpt lat="44.26868" lon="5.67181">
        <ele>982.4</ele>
        <time>2021-09-08T13:12:03Z</time>
      </trkpt>
      <trkpt lat="44.26868" lon="5.67176">
        <ele>982.7</ele>
        <time>2021-09-08T13:12:05Z</time>
      </trkpt>
      <trkpt lat="44.26868" lon="5.67174">
        <ele>982.8</ele>
        <time>2021-09-08T13:12:06Z</time>
      </trkpt>
      <trkpt lat="44.26868" lon="5.67172">
        <ele>982.9</ele>
        <time>2021-09-08T13:12:07Z</time>
      </trkpt>
      <trkpt lat="44.26869" lon="5.67169">
        <ele>983.1</ele>
        <time>2021-09-08T13:12:09Z</time>
      </trkpt>
      <trkpt lat="44.2687" lon="5.67168">
        <ele>983.2</ele>
        <time>2021-09-08T13:12:11Z</time>
      </trkpt>
      <trkpt lat="44.26871" lon="5.67167">
        <ele>983.2</ele>
        <time>2021-09-08T13:12:13Z</time>
      </trkpt>
      <trkpt lat="44.26871" lon="5.67166">
        <ele>983.3</ele>
        <time>2021-09-08T13:12:14Z</time>
      </trkpt>
      <trkpt lat="44.26871" lon="5.67166">
        <ele>983.3</ele>
        <time>2021-09-08T13:12:16Z</time>
      </trkpt>
      <trkpt lat="44.26871" lon="5.67166">
        <ele>983.3</ele>
        <time>2021-09-08T13:12:17Z</time>
      </trkpt>
      <trkpt lat="44.26872" lon="5.67165">
        <ele>983.4</ele>
        <time>2021-09-08T13:12:18Z</time>
      </trkpt>
      <trkpt lat="44.26872" lon="5.67163">
        <ele>983.5</ele>
        <time>2021-09-08T13:12:19Z</time>
      </trkpt>
      <trkpt lat="44.26889" lon="5.67147">
        <ele>984.7</ele>
        <time>2021-09-08T13:12:31Z</time>
      </trkpt>
      <trkpt lat="44.26892" lon="5.67145">
        <ele>984.9</ele>
        <time>2021-09-08T13:12:32Z</time>
      </trkpt>
      <trkpt lat="44.26896" lon="5.67143">
        <ele>985</ele>
        <time>2021-09-08T13:12:33Z</time>
      </trkpt>
      <trkpt lat="44.26899" lon="5.67141">
        <ele>985.1</ele>
        <time>2021-09-08T13:12:35Z</time>
      </trkpt>
      <trkpt lat="44.26903" lon="5.67139">
        <ele>985.4</ele>
        <time>2021-09-08T13:12:37Z</time>
      </trkpt>
      <trkpt lat="44.26904" lon="5.67137">
        <ele>985.6</ele>
        <time>2021-09-08T13:12:39Z</time>
      </trkpt>
      <trkpt lat="44.26905" lon="5.67136">
        <ele>985.7</ele>
        <time>2021-09-08T13:12:40Z</time>
      </trkpt>
      <trkpt lat="44.26905" lon="5.67136">
        <ele>985.7</ele>
        <time>2021-09-08T13:12:41Z</time>
      </trkpt>
      <trkpt lat="44.26907" lon="5.67133">
        <ele>985.9</ele>
        <time>2021-09-08T13:12:43Z</time>
      </trkpt>
      <trkpt lat="44.26908" lon="5.6713">
        <ele>986</ele>
        <time>2021-09-08T13:12:44Z</time>
      </trkpt>
      <trkpt lat="44.26909" lon="5.67126">
        <ele>986.2</ele>
        <time>2021-09-08T13:12:46Z</time>
      </trkpt>
      <trkpt lat="44.26908" lon="5.67126">
        <ele>986.2</ele>
        <time>2021-09-08T13:12:47Z</time>
      </trkpt>
      <trkpt lat="44.26909" lon="5.67124">
        <ele>986.3</ele>
        <time>2021-09-08T13:12:48Z</time>
      </trkpt>
      <trkpt lat="44.26909" lon="5.67121">
        <ele>986.4</ele>
        <time>2021-09-08T13:12:49Z</time>
      </trkpt>
      <trkpt lat="44.26909" lon="5.67119">
        <ele>986.5</ele>
        <time>2021-09-08T13:12:50Z</time>
      </trkpt>
      <trkpt lat="44.26909" lon="5.67115">
        <ele>986.7</ele>
        <time>2021-09-08T13:12:52Z</time>
      </trkpt>
      <trkpt lat="44.26908" lon="5.6711">
        <ele>986.9</ele>
        <time>2021-09-08T13:12:54Z</time>
      </trkpt>
      <trkpt lat="44.26908" lon="5.67109">
        <ele>987</ele>
        <time>2021-09-08T13:12:55Z</time>
      </trkpt>
      <trkpt lat="44.26907" lon="5.67109">
        <ele>987</ele>
        <time>2021-09-08T13:12:56Z</time>
      </trkpt>
      <trkpt lat="44.26907" lon="5.67108">
        <ele>987.1</ele>
        <time>2021-09-08T13:12:57Z</time>
      </trkpt>
      <trkpt lat="44.26906" lon="5.67107">
        <ele>987.1</ele>
        <time>2021-09-08T13:12:59Z</time>
      </trkpt>
      <trkpt lat="44.26906" lon="5.67107">
        <ele>987.1</ele>
        <time>2021-09-08T13:13:00Z</time>
      </trkpt>
      <trkpt lat="44.26906" lon="5.67107">
        <ele>987.2</ele>
        <time>2021-09-08T13:13:01Z</time>
      </trkpt>
      <trkpt lat="44.26906" lon="5.67105">
        <ele>987.3</ele>
        <time>2021-09-08T13:13:03Z</time>
      </trkpt>
      <trkpt lat="44.26906" lon="5.67102">
        <ele>987.4</ele>
        <time>2021-09-08T13:13:04Z</time>
      </trkpt>
      <trkpt lat="44.26907" lon="5.67097">
        <ele>987.6</ele>
        <time>2021-09-08T13:13:06Z</time>
      </trkpt>
      <trkpt lat="44.26907" lon="5.67095">
        <ele>987.7</ele>
        <time>2021-09-08T13:13:07Z</time>
      </trkpt>
      <trkpt lat="44.26906" lon="5.67089">
        <ele>988</ele>
        <time>2021-09-08T13:13:09Z</time>
      </trkpt>
      <trkpt lat="44.26906" lon="5.67083">
        <ele>988.2</ele>
        <time>2021-09-08T13:13:11Z</time>
      </trkpt>
      <trkpt lat="44.26906" lon="5.67078">
        <ele>988.5</ele>
        <time>2021-09-08T13:13:12Z</time>
      </trkpt>
      <trkpt lat="44.26906" lon="5.67075">
        <ele>988.6</ele>
        <time>2021-09-08T13:13:13Z</time>
      </trkpt>
      <trkpt lat="44.26906" lon="5.67072">
        <ele>988.8</ele>
        <time>2021-09-08T13:13:15Z</time>
      </trkpt>
      <trkpt lat="44.26907" lon="5.67068">
        <ele>989</ele>
        <time>2021-09-08T13:13:16Z</time>
      </trkpt>
      <trkpt lat="44.26907" lon="5.67065">
        <ele>989.2</ele>
        <time>2021-09-08T13:13:18Z</time>
      </trkpt>
      <trkpt lat="44.26906" lon="5.67062">
        <ele>989.3</ele>
        <time>2021-09-08T13:13:19Z</time>
      </trkpt>
      <trkpt lat="44.26906" lon="5.67058">
        <ele>989.6</ele>
        <time>2021-09-08T13:13:21Z</time>
      </trkpt>
      <trkpt lat="44.26906" lon="5.67054">
        <ele>989.8</ele>
        <time>2021-09-08T13:13:22Z</time>
      </trkpt>
      <trkpt lat="44.26906" lon="5.67052">
        <ele>989.8</ele>
        <time>2021-09-08T13:13:23Z</time>
      </trkpt>
      <trkpt lat="44.26906" lon="5.67051">
        <ele>989.9</ele>
        <time>2021-09-08T13:13:24Z</time>
      </trkpt>
      <trkpt lat="44.26906" lon="5.67049">
        <ele>990</ele>
        <time>2021-09-08T13:13:25Z</time>
      </trkpt>
      <trkpt lat="44.26906" lon="5.67045">
        <ele>990.3</ele>
        <time>2021-09-08T13:13:27Z</time>
      </trkpt>
      <trkpt lat="44.26907" lon="5.67042">
        <ele>990.4</ele>
        <time>2021-09-08T13:13:28Z</time>
      </trkpt>
      <trkpt lat="44.26907" lon="5.67038">
        <ele>990.6</ele>
        <time>2021-09-08T13:13:30Z</time>
      </trkpt>
      <trkpt lat="44.26907" lon="5.67035">
        <ele>990.7</ele>
        <time>2021-09-08T13:13:31Z</time>
      </trkpt>
      <trkpt lat="44.26907" lon="5.67034">
        <ele>990.8</ele>
        <time>2021-09-08T13:13:32Z</time>
      </trkpt>
      <trkpt lat="44.26907" lon="5.67031">
        <ele>990.9</ele>
        <time>2021-09-08T13:13:34Z</time>
      </trkpt>
      <trkpt lat="44.26907" lon="5.67031">
        <ele>990.9</ele>
        <time>2021-09-08T13:13:35Z</time>
      </trkpt>
      <trkpt lat="44.26907" lon="5.67031">
        <ele>990.9</ele>
        <time>2021-09-08T13:13:36Z</time>
      </trkpt>
      <trkpt lat="44.26907" lon="5.6703">
        <ele>991</ele>
        <time>2021-09-08T13:13:37Z</time>
      </trkpt>
      <trkpt lat="44.26907" lon="5.6703">
        <ele>991</ele>
        <time>2021-09-08T13:13:39Z</time>
      </trkpt>
      <trkpt lat="44.26906" lon="5.67029">
        <ele>991.1</ele>
        <time>2021-09-08T13:13:41Z</time>
      </trkpt>
      <trkpt lat="44.26905" lon="5.67028">
        <ele>991.1</ele>
        <time>2021-09-08T13:13:42Z</time>
      </trkpt>
      <trkpt lat="44.26899" lon="5.67019">
        <ele>991.8</ele>
        <time>2021-09-08T13:13:48Z</time>
      </trkpt>
      <trkpt lat="44.269" lon="5.67015">
        <ele>992</ele>
        <time>2021-09-08T13:13:49Z</time>
      </trkpt>
      <trkpt lat="44.26901" lon="5.67013">
        <ele>992.1</ele>
        <time>2021-09-08T13:13:50Z</time>
      </trkpt>
      <trkpt lat="44.26903" lon="5.67009">
        <ele>992.4</ele>
        <time>2021-09-08T13:13:52Z</time>
      </trkpt>
      <trkpt lat="44.26906" lon="5.67005">
        <ele>992.8</ele>
        <time>2021-09-08T13:13:53Z</time>
      </trkpt>
      <trkpt lat="44.2691" lon="5.67005">
        <ele>993.3</ele>
        <time>2021-09-08T13:13:55Z</time>
      </trkpt>
      <trkpt lat="44.26912" lon="5.67006">
        <ele>993.5</ele>
        <time>2021-09-08T13:13:56Z</time>
      </trkpt>
      <trkpt lat="44.26913" lon="5.67007">
        <ele>993.7</ele>
        <time>2021-09-08T13:13:57Z</time>
      </trkpt>
      <trkpt lat="44.26915" lon="5.67009">
        <ele>994</ele>
        <time>2021-09-08T13:13:58Z</time>
      </trkpt>
      <trkpt lat="44.26918" lon="5.67012">
        <ele>994.5</ele>
        <time>2021-09-08T13:14:00Z</time>
      </trkpt>
      <trkpt lat="44.26921" lon="5.67015">
        <ele>995</ele>
        <time>2021-09-08T13:14:01Z</time>
      </trkpt>
      <trkpt lat="44.26922" lon="5.67017">
        <ele>995.2</ele>
        <time>2021-09-08T13:14:02Z</time>
      </trkpt>
      <trkpt lat="44.26925" lon="5.67019">
        <ele>995.6</ele>
        <time>2021-09-08T13:14:04Z</time>
      </trkpt>
      <trkpt lat="44.26926" lon="5.67021">
        <ele>995.9</ele>
        <time>2021-09-08T13:14:05Z</time>
      </trkpt>
      <trkpt lat="44.26928" lon="5.67023">
        <ele>996.1</ele>
        <time>2021-09-08T13:14:07Z</time>
      </trkpt>
      <trkpt lat="44.26928" lon="5.67024">
        <ele>996.2</ele>
        <time>2021-09-08T13:14:08Z</time>
      </trkpt>
      <trkpt lat="44.26927" lon="5.67024">
        <ele>996.3</ele>
        <time>2021-09-08T13:14:10Z</time>
      </trkpt>
      <trkpt lat="44.26927" lon="5.67024">
        <ele>996.3</ele>
        <time>2021-09-08T13:14:11Z</time>
      </trkpt>
      <trkpt lat="44.26927" lon="5.67024">
        <ele>996.4</ele>
        <time>2021-09-08T13:14:12Z</time>
      </trkpt>
      <trkpt lat="44.26926" lon="5.67024">
        <ele>996.4</ele>
        <time>2021-09-08T13:14:13Z</time>
      </trkpt>
      <trkpt lat="44.26926" lon="5.67024">
        <ele>996.4</ele>
        <time>2021-09-08T13:14:14Z</time>
      </trkpt>
      <trkpt lat="44.26926" lon="5.67025">
        <ele>996.4</ele>
        <time>2021-09-08T13:14:15Z</time>
      </trkpt>
      <trkpt lat="44.26928" lon="5.67025">
        <ele>996.6</ele>
        <time>2021-09-08T13:14:17Z</time>
      </trkpt>
      <trkpt lat="44.26938" lon="5.67035">
        <ele>997.9</ele>
        <time>2021-09-08T13:14:25Z</time>
      </trkpt>
      <trkpt lat="44.26941" lon="5.67038">
        <ele>998.3</ele>
        <time>2021-09-08T13:14:26Z</time>
      </trkpt>
      <trkpt lat="44.26944" lon="5.67039">
        <ele>998.7</ele>
        <time>2021-09-08T13:14:28Z</time>
      </trkpt>
      <trkpt lat="44.26945" lon="5.67039">
        <ele>998.8</ele>
        <time>2021-09-08T13:14:29Z</time>
      </trkpt>
      <trkpt lat="44.26946" lon="5.6704">
        <ele>998.9</ele>
        <time>2021-09-08T13:14:31Z</time>
      </trkpt>
      <trkpt lat="44.26947" lon="5.6704">
        <ele>999.1</ele>
        <time>2021-09-08T13:14:32Z</time>
      </trkpt>
      <trkpt lat="44.26951" lon="5.67044">
        <ele>999.6</ele>
        <time>2021-09-08T13:14:34Z</time>
      </trkpt>
      <trkpt lat="44.26952" lon="5.67045">
        <ele>999.8</ele>
        <time>2021-09-08T13:14:35Z</time>
      </trkpt>
      <trkpt lat="44.26954" lon="5.67046">
        <ele>999.9</ele>
        <time>2021-09-08T13:14:36Z</time>
      </trkpt>
      <trkpt lat="44.26958" lon="5.67049">
        <ele>1000.4</ele>
        <time>2021-09-08T13:14:38Z</time>
      </trkpt>
      <trkpt lat="44.26959" lon="5.67049">
        <ele>1000.6</ele>
        <time>2021-09-08T13:14:39Z</time>
      </trkpt>
      <trkpt lat="44.26961" lon="5.6705">
        <ele>1000.8</ele>
        <time>2021-09-08T13:14:41Z</time>
      </trkpt>
      <trkpt lat="44.26963" lon="5.67051">
        <ele>1001</ele>
        <time>2021-09-08T13:14:42Z</time>
      </trkpt>
      <trkpt lat="44.26965" lon="5.67053">
        <ele>1001.3</ele>
        <time>2021-09-08T13:14:44Z</time>
      </trkpt>
      <trkpt lat="44.26967" lon="5.67055">
        <ele>1001.5</ele>
        <time>2021-09-08T13:14:45Z</time>
      </trkpt>
      <trkpt lat="44.26969" lon="5.67056">
        <ele>1001.7</ele>
        <time>2021-09-08T13:14:47Z</time>
      </trkpt>
      <trkpt lat="44.26968" lon="5.67057">
        <ele>1001.8</ele>
        <time>2021-09-08T13:14:48Z</time>
      </trkpt>
      <trkpt lat="44.26969" lon="5.67058">
        <ele>1001.9</ele>
        <time>2021-09-08T13:14:50Z</time>
      </trkpt>
      <trkpt lat="44.26971" lon="5.67059">
        <ele>1002.1</ele>
        <time>2021-09-08T13:14:51Z</time>
      </trkpt>
      <trkpt lat="44.26973" lon="5.67062">
        <ele>1002.4</ele>
        <time>2021-09-08T13:14:52Z</time>
      </trkpt>
      <trkpt lat="44.26973" lon="5.67063">
        <ele>1002.5</ele>
        <time>2021-09-08T13:14:53Z</time>
      </trkpt>
      <trkpt lat="44.26975" lon="5.67066">
        <ele>1002.8</ele>
        <time>2021-09-08T13:14:54Z</time>
      </trkpt>
      <trkpt lat="44.26977" lon="5.67068">
        <ele>1003</ele>
        <time>2021-09-08T13:14:56Z</time>
      </trkpt>
      <trkpt lat="44.26978" lon="5.67069">
        <ele>1003.1</ele>
        <time>2021-09-08T13:14:57Z</time>
      </trkpt>
      <trkpt lat="44.26979" lon="5.6707">
        <ele>1003.2</ele>
        <time>2021-09-08T13:14:58Z</time>
      </trkpt>
      <trkpt lat="44.2698" lon="5.67071">
        <ele>1003.4</ele>
        <time>2021-09-08T13:15:00Z</time>
      </trkpt>
      <trkpt lat="44.26981" lon="5.67071">
        <ele>1003.5</ele>
        <time>2021-09-08T13:15:01Z</time>
      </trkpt>
      <trkpt lat="44.26982" lon="5.67073">
        <ele>1003.6</ele>
        <time>2021-09-08T13:15:03Z</time>
      </trkpt>
      <trkpt lat="44.27001" lon="5.67138">
        <ele>1008.7</ele>
        <time>2021-09-08T13:15:46Z</time>
      </trkpt>
      <trkpt lat="44.27002" lon="5.67142">
        <ele>1009</ele>
        <time>2021-09-08T13:15:47Z</time>
      </trkpt>
      <trkpt lat="44.27002" lon="5.67148">
        <ele>1009.4</ele>
        <time>2021-09-08T13:15:49Z</time>
      </trkpt>
      <trkpt lat="44.27003" lon="5.67155">
        <ele>1009.9</ele>
        <time>2021-09-08T13:15:51Z</time>
      </trkpt>
      <trkpt lat="44.27002" lon="5.6716">
        <ele>1010.2</ele>
        <time>2021-09-08T13:15:53Z</time>
      </trkpt>
      <trkpt lat="44.27002" lon="5.67163">
        <ele>1010.5</ele>
        <time>2021-09-08T13:15:54Z</time>
      </trkpt>
      <trkpt lat="44.27002" lon="5.67166">
        <ele>1010.7</ele>
        <time>2021-09-08T13:15:56Z</time>
      </trkpt>
      <trkpt lat="44.27004" lon="5.67169">
        <ele>1011</ele>
        <time>2021-09-08T13:15:57Z</time>
      </trkpt>
      <trkpt lat="44.27005" lon="5.6717">
        <ele>1011.1</ele>
        <time>2021-09-08T13:15:58Z</time>
      </trkpt>
      <trkpt lat="44.27007" lon="5.67172">
        <ele>1011.3</ele>
        <time>2021-09-08T13:16:00Z</time>
      </trkpt>
      <trkpt lat="44.27008" lon="5.67173">
        <ele>1011.4</ele>
        <time>2021-09-08T13:16:01Z</time>
      </trkpt>
      <trkpt lat="44.2701" lon="5.67176">
        <ele>1011.7</ele>
        <time>2021-09-08T13:16:03Z</time>
      </trkpt>
      <trkpt lat="44.27012" lon="5.67178">
        <ele>1011.9</ele>
        <time>2021-09-08T13:16:05Z</time>
      </trkpt>
      <trkpt lat="44.27012" lon="5.67181">
        <ele>1012.1</ele>
        <time>2021-09-08T13:16:07Z</time>
      </trkpt>
      <trkpt lat="44.27014" lon="5.67184">
        <ele>1012.3</ele>
        <time>2021-09-08T13:16:09Z</time>
      </trkpt>
      <trkpt lat="44.27014" lon="5.67185">
        <ele>1012.4</ele>
        <time>2021-09-08T13:16:10Z</time>
      </trkpt>
      <trkpt lat="44.27015" lon="5.67185">
        <ele>1012.4</ele>
        <time>2021-09-08T13:16:12Z</time>
      </trkpt>
      <trkpt lat="44.27015" lon="5.67186">
        <ele>1012.5</ele>
        <time>2021-09-08T13:16:13Z</time>
      </trkpt>
      <trkpt lat="44.27015" lon="5.67187">
        <ele>1012.5</ele>
        <time>2021-09-08T13:16:15Z</time>
      </trkpt>
      <trkpt lat="44.27015" lon="5.67189">
        <ele>1012.6</ele>
        <time>2021-09-08T13:16:16Z</time>
      </trkpt>
      <trkpt lat="44.27015" lon="5.6719">
        <ele>1012.7</ele>
        <time>2021-09-08T13:16:18Z</time>
      </trkpt>
      <trkpt lat="44.27015" lon="5.67198">
        <ele>1013.3</ele>
        <time>2021-09-08T13:16:19Z</time>
      </trkpt>
      <trkpt lat="44.27016" lon="5.67205">
        <ele>1013.7</ele>
        <time>2021-09-08T13:16:20Z</time>
      </trkpt>
      <trkpt lat="44.27017" lon="5.67211">
        <ele>1014.1</ele>
        <time>2021-09-08T13:16:35Z</time>
      </trkpt>
      <trkpt lat="44.27018" lon="5.67218">
        <ele>1014.5</ele>
        <time>2021-09-08T13:16:36Z</time>
      </trkpt>
      <trkpt lat="44.27019" lon="5.67224">
        <ele>1014.9</ele>
        <time>2021-09-08T13:16:37Z</time>
      </trkpt>
      <trkpt lat="44.27019" lon="5.67226">
        <ele>1015.1</ele>
        <time>2021-09-08T13:16:38Z</time>
      </trkpt>
      <trkpt lat="44.27019" lon="5.67229">
        <ele>1015.3</ele>
        <time>2021-09-08T13:16:40Z</time>
      </trkpt>
      <trkpt lat="44.27019" lon="5.67234">
        <ele>1015.7</ele>
        <time>2021-09-08T13:16:42Z</time>
      </trkpt>
      <trkpt lat="44.27019" lon="5.67235">
        <ele>1015.8</ele>
        <time>2021-09-08T13:16:43Z</time>
      </trkpt>
      <trkpt lat="44.27017" lon="5.6724">
        <ele>1016.2</ele>
        <time>2021-09-08T13:16:45Z</time>
      </trkpt>
      <trkpt lat="44.27017" lon="5.67242">
        <ele>1016.5</ele>
        <time>2021-09-08T13:16:47Z</time>
      </trkpt>
      <trkpt lat="44.27017" lon="5.67244">
        <ele>1016.6</ele>
        <time>2021-09-08T13:16:49Z</time>
      </trkpt>
      <trkpt lat="44.27017" lon="5.67245">
        <ele>1016.7</ele>
        <time>2021-09-08T13:16:50Z</time>
      </trkpt>
      <trkpt lat="44.27032" lon="5.67279">
        <ele>1019.1</ele>
        <time>2021-09-08T13:17:52Z</time>
      </trkpt>
      <trkpt lat="44.27032" lon="5.6728">
        <ele>1019.2</ele>
        <time>2021-09-08T13:17:53Z</time>
      </trkpt>
      <trkpt lat="44.27032" lon="5.67281">
        <ele>1019.2</ele>
        <time>2021-09-08T13:17:54Z</time>
      </trkpt>
      <trkpt lat="44.27032" lon="5.67282">
        <ele>1019.3</ele>
        <time>2021-09-08T13:17:55Z</time>
      </trkpt>
      <trkpt lat="44.27032" lon="5.67283">
        <ele>1019.3</ele>
        <time>2021-09-08T13:17:56Z</time>
      </trkpt>
      <trkpt lat="44.27033" lon="5.67284">
        <ele>1019.4</ele>
        <time>2021-09-08T13:17:57Z</time>
      </trkpt>
      <trkpt lat="44.27033" lon="5.67285">
        <ele>1019.5</ele>
        <time>2021-09-08T13:17:59Z</time>
      </trkpt>
      <trkpt lat="44.27034" lon="5.67286">
        <ele>1019.5</ele>
        <time>2021-09-08T13:18:00Z</time>
      </trkpt>
      <trkpt lat="44.27035" lon="5.67289">
        <ele>1019.5</ele>
        <time>2021-09-08T13:18:03Z</time>
      </trkpt>
      <trkpt lat="44.27036" lon="5.6729">
        <ele>1019.7</ele>
        <time>2021-09-08T13:18:04Z</time>
      </trkpt>
      <trkpt lat="44.27037" lon="5.67291">
        <ele>1019.7</ele>
        <time>2021-09-08T13:18:05Z</time>
      </trkpt>
      <trkpt lat="44.27038" lon="5.67292">
        <ele>1019.8</ele>
        <time>2021-09-08T13:18:06Z</time>
      </trkpt>
      <trkpt lat="44.27039" lon="5.67294">
        <ele>1019.9</ele>
        <time>2021-09-08T13:18:08Z</time>
      </trkpt>
      <trkpt lat="44.27041" lon="5.67297">
        <ele>1020.2</ele>
        <time>2021-09-08T13:18:10Z</time>
      </trkpt>
      <trkpt lat="44.27042" lon="5.67298">
        <ele>1020.2</ele>
        <time>2021-09-08T13:18:11Z</time>
      </trkpt>
      <trkpt lat="44.27044" lon="5.67301">
        <ele>1020.4</ele>
        <time>2021-09-08T13:18:12Z</time>
      </trkpt>
      <trkpt lat="44.27045" lon="5.67302">
        <ele>1020.5</ele>
        <time>2021-09-08T13:18:14Z</time>
      </trkpt>
      <trkpt lat="44.27045" lon="5.67303">
        <ele>1020.5</ele>
        <time>2021-09-08T13:18:15Z</time>
      </trkpt>
      <trkpt lat="44.27046" lon="5.67304">
        <ele>1020.6</ele>
        <time>2021-09-08T13:18:16Z</time>
      </trkpt>
      <trkpt lat="44.27047" lon="5.67305">
        <ele>1020.7</ele>
        <time>2021-09-08T13:18:17Z</time>
      </trkpt>
      <trkpt lat="44.27047" lon="5.67305">
        <ele>1020.7</ele>
        <time>2021-09-08T13:18:18Z</time>
      </trkpt>
      <trkpt lat="44.27055" lon="5.67311">
        <ele>1021.3</ele>
        <time>2021-09-08T13:18:19Z</time>
      </trkpt>
      <trkpt lat="44.27061" lon="5.67315">
        <ele>1022.1</ele>
        <time>2021-09-08T13:18:21Z</time>
      </trkpt>
      <trkpt lat="44.27068" lon="5.6732">
        <ele>1023</ele>
        <time>2021-09-08T13:18:49Z</time>
      </trkpt>
      <trkpt lat="44.27075" lon="5.67325">
        <ele>1024</ele>
        <time>2021-09-08T13:18:50Z</time>
      </trkpt>
      <trkpt lat="44.27081" lon="5.67329">
        <ele>1024.8</ele>
        <time>2021-09-08T13:18:51Z</time>
      </trkpt>
      <trkpt lat="44.27084" lon="5.67332">
        <ele>1025</ele>
        <time>2021-09-08T13:18:52Z</time>
      </trkpt>
      <trkpt lat="44.27085" lon="5.67333">
        <ele>1025.1</ele>
        <time>2021-09-08T13:18:53Z</time>
      </trkpt>
      <trkpt lat="44.27088" lon="5.67335">
        <ele>1025.3</ele>
        <time>2021-09-08T13:18:55Z</time>
      </trkpt>
      <trkpt lat="44.27088" lon="5.67336">
        <ele>1025.4</ele>
        <time>2021-09-08T13:18:56Z</time>
      </trkpt>
      <trkpt lat="44.27091" lon="5.67339">
        <ele>1025.6</ele>
        <time>2021-09-08T13:18:57Z</time>
      </trkpt>
      <trkpt lat="44.27091" lon="5.67339">
        <ele>1025.6</ele>
        <time>2021-09-08T13:18:58Z</time>
      </trkpt>
      <trkpt lat="44.27092" lon="5.67341">
        <ele>1025.7</ele>
        <time>2021-09-08T13:18:59Z</time>
      </trkpt>
      <trkpt lat="44.27093" lon="5.67341">
        <ele>1025.8</ele>
        <time>2021-09-08T13:19:01Z</time>
      </trkpt>
      <trkpt lat="44.27093" lon="5.67341">
        <ele>1025.8</ele>
        <time>2021-09-08T13:19:02Z</time>
      </trkpt>
      <trkpt lat="44.27094" lon="5.67341">
        <ele>1025.8</ele>
        <time>2021-09-08T13:19:03Z</time>
      </trkpt>
      <trkpt lat="44.27094" lon="5.67342">
        <ele>1025.9</ele>
        <time>2021-09-08T13:19:04Z</time>
      </trkpt>
      <trkpt lat="44.27094" lon="5.67342">
        <ele>1025.9</ele>
        <time>2021-09-08T13:19:05Z</time>
      </trkpt>
      <trkpt lat="44.27095" lon="5.67343">
        <ele>1025.9</ele>
        <time>2021-09-08T13:19:07Z</time>
      </trkpt>
      <trkpt lat="44.27095" lon="5.67343">
        <ele>1026</ele>
        <time>2021-09-08T13:19:08Z</time>
      </trkpt>
      <trkpt lat="44.27095" lon="5.67344">
        <ele>1026</ele>
        <time>2021-09-08T13:19:09Z</time>
      </trkpt>
      <trkpt lat="44.27096" lon="5.67346">
        <ele>1026.1</ele>
        <time>2021-09-08T13:19:11Z</time>
      </trkpt>
      <trkpt lat="44.271" lon="5.67351">
        <ele>1026.4</ele>
        <time>2021-09-08T13:19:12Z</time>
      </trkpt>
      <trkpt lat="44.27103" lon="5.67356">
        <ele>1026.7</ele>
        <time>2021-09-08T13:19:13Z</time>
      </trkpt>
      <trkpt lat="44.27106" lon="5.6736">
        <ele>1026.9</ele>
        <time>2021-09-08T13:19:25Z</time>
      </trkpt>
      <trkpt lat="44.27109" lon="5.67365">
        <ele>1027.1</ele>
        <time>2021-09-08T13:19:27Z</time>
      </trkpt>
      <trkpt lat="44.27112" lon="5.67369">
        <ele>1027.2</ele>
        <time>2021-09-08T13:19:28Z</time>
      </trkpt>
      <trkpt lat="44.27113" lon="5.67369">
        <ele>1027.2</ele>
        <time>2021-09-08T13:19:29Z</time>
      </trkpt>
      <trkpt lat="44.27114" lon="5.6737">
        <ele>1027.2</ele>
        <time>2021-09-08T13:19:31Z</time>
      </trkpt>
      <trkpt lat="44.27115" lon="5.6737">
        <ele>1027.3</ele>
        <time>2021-09-08T13:19:32Z</time>
      </trkpt>
      <trkpt lat="44.27115" lon="5.6737">
        <ele>1027.3</ele>
        <time>2021-09-08T13:19:34Z</time>
      </trkpt>
      <trkpt lat="44.27116" lon="5.6737">
        <ele>1027.3</ele>
        <time>2021-09-08T13:19:36Z</time>
      </trkpt>
      <trkpt lat="44.27116" lon="5.6737">
        <ele>1027.3</ele>
        <time>2021-09-08T13:19:37Z</time>
      </trkpt>
      <trkpt lat="44.27116" lon="5.6737">
        <ele>1027.3</ele>
        <time>2021-09-08T13:19:39Z</time>
      </trkpt>
      <trkpt lat="44.27116" lon="5.6737">
        <ele>1027.3</ele>
        <time>2021-09-08T13:19:40Z</time>
      </trkpt>
      <trkpt lat="44.27116" lon="5.6737">
        <ele>1027.3</ele>
        <time>2021-09-08T13:19:42Z</time>
      </trkpt>
      <trkpt lat="44.2712" lon="5.67384">
        <ele>1027.4</ele>
        <time>2021-09-08T13:19:50Z</time>
      </trkpt>
      <trkpt lat="44.27124" lon="5.67389">
        <ele>1027.4</ele>
        <time>2021-09-08T13:19:52Z</time>
      </trkpt>
      <trkpt lat="44.2713" lon="5.67394">
        <ele>1027.5</ele>
        <time>2021-09-08T13:19:53Z</time>
      </trkpt>
      <trkpt lat="44.27135" lon="5.67399">
        <ele>1027.6</ele>
        <time>2021-09-08T13:19:55Z</time>
      </trkpt>
      <trkpt lat="44.27138" lon="5.67402">
        <ele>1027.6</ele>
        <time>2021-09-08T13:19:56Z</time>
      </trkpt>
      <trkpt lat="44.27142" lon="5.67406">
        <ele>1027.7</ele>
        <time>2021-09-08T13:19:58Z</time>
      </trkpt>
      <trkpt lat="44.27145" lon="5.67409">
        <ele>1027.8</ele>
        <time>2021-09-08T13:19:59Z</time>
      </trkpt>
      <trkpt lat="44.27148" lon="5.67411">
        <ele>1027.8</ele>
        <time>2021-09-08T13:20:00Z</time>
      </trkpt>
      <trkpt lat="44.27151" lon="5.67415">
        <ele>1027.9</ele>
        <time>2021-09-08T13:20:02Z</time>
      </trkpt>
      <trkpt lat="44.27153" lon="5.67418">
        <ele>1028</ele>
        <time>2021-09-08T13:20:03Z</time>
      </trkpt>
      <trkpt lat="44.27156" lon="5.6742">
        <ele>1028.1</ele>
        <time>2021-09-08T13:20:04Z</time>
      </trkpt>
      <trkpt lat="44.27157" lon="5.67421">
        <ele>1028.1</ele>
        <time>2021-09-08T13:20:05Z</time>
      </trkpt>
      <trkpt lat="44.27161" lon="5.67425">
        <ele>1028.2</ele>
        <time>2021-09-08T13:20:07Z</time>
      </trkpt>
      <trkpt lat="44.27162" lon="5.67426">
        <ele>1028.3</ele>
        <time>2021-09-08T13:20:08Z</time>
      </trkpt>
      <trkpt lat="44.27163" lon="5.67426">
        <ele>1028.3</ele>
        <time>2021-09-08T13:20:09Z</time>
      </trkpt>
      <trkpt lat="44.27166" lon="5.67427">
        <ele>1028.4</ele>
        <time>2021-09-08T13:20:10Z</time>
      </trkpt>
      <trkpt lat="44.2717" lon="5.67429">
        <ele>1028.5</ele>
        <time>2021-09-08T13:20:12Z</time>
      </trkpt>
      <trkpt lat="44.27173" lon="5.6743">
        <ele>1028.6</ele>
        <time>2021-09-08T13:20:13Z</time>
      </trkpt>
      <trkpt lat="44.27175" lon="5.67433">
        <ele>1028.8</ele>
        <time>2021-09-08T13:20:15Z</time>
      </trkpt>
      <trkpt lat="44.27178" lon="5.67436">
        <ele>1029</ele>
        <time>2021-09-08T13:20:17Z</time>
      </trkpt>
      <trkpt lat="44.27182" lon="5.67438">
        <ele>1029.2</ele>
        <time>2021-09-08T13:20:19Z</time>
      </trkpt>
      <trkpt lat="44.27185" lon="5.67439">
        <ele>1029.4</ele>
        <time>2021-09-08T13:20:20Z</time>
      </trkpt>
      <trkpt lat="44.27186" lon="5.67439">
        <ele>1029.5</ele>
        <time>2021-09-08T13:20:21Z</time>
      </trkpt>
      <trkpt lat="44.27188" lon="5.67438">
        <ele>1029.7</ele>
        <time>2021-09-08T13:20:22Z</time>
      </trkpt>
      <trkpt lat="44.27191" lon="5.67438">
        <ele>1030.1</ele>
        <time>2021-09-08T13:20:24Z</time>
      </trkpt>
      <trkpt lat="44.27192" lon="5.67438">
        <ele>1030.2</ele>
        <time>2021-09-08T13:20:25Z</time>
      </trkpt>
      <trkpt lat="44.27196" lon="5.67439">
        <ele>1030.5</ele>
        <time>2021-09-08T13:20:27Z</time>
      </trkpt>
      <trkpt lat="44.27198" lon="5.67441">
        <ele>1030.8</ele>
        <time>2021-09-08T13:20:28Z</time>
      </trkpt>
      <trkpt lat="44.27201" lon="5.67442">
        <ele>1031.1</ele>
        <time>2021-09-08T13:20:30Z</time>
      </trkpt>
      <trkpt lat="44.27204" lon="5.67445">
        <ele>1031.5</ele>
        <time>2021-09-08T13:20:31Z</time>
      </trkpt>
      <trkpt lat="44.27206" lon="5.67447">
        <ele>1031.7</ele>
        <time>2021-09-08T13:20:32Z</time>
      </trkpt>
      <trkpt lat="44.2721" lon="5.67449">
        <ele>1032.1</ele>
        <time>2021-09-08T13:20:34Z</time>
      </trkpt>
      <trkpt lat="44.27213" lon="5.67451">
        <ele>1032.4</ele>
        <time>2021-09-08T13:20:35Z</time>
      </trkpt>
      <trkpt lat="44.27215" lon="5.67453">
        <ele>1032.6</ele>
        <time>2021-09-08T13:20:36Z</time>
      </trkpt>
      <trkpt lat="44.27216" lon="5.67455">
        <ele>1032.8</ele>
        <time>2021-09-08T13:20:38Z</time>
      </trkpt>
      <trkpt lat="44.27218" lon="5.67457">
        <ele>1033</ele>
        <time>2021-09-08T13:20:39Z</time>
      </trkpt>
      <trkpt lat="44.2722" lon="5.67458">
        <ele>1033.2</ele>
        <time>2021-09-08T13:20:41Z</time>
      </trkpt>
      <trkpt lat="44.27221" lon="5.67462">
        <ele>1033.4</ele>
        <time>2021-09-08T13:20:42Z</time>
      </trkpt>
      <trkpt lat="44.27221" lon="5.67463">
        <ele>1033.5</ele>
        <time>2021-09-08T13:20:43Z</time>
      </trkpt>
      <trkpt lat="44.27225" lon="5.67465">
        <ele>1033.7</ele>
        <time>2021-09-08T13:20:45Z</time>
      </trkpt>
      <trkpt lat="44.27227" lon="5.67465">
        <ele>1033.8</ele>
        <time>2021-09-08T13:20:46Z</time>
      </trkpt>
      <trkpt lat="44.27229" lon="5.67467">
        <ele>1034</ele>
        <time>2021-09-08T13:20:47Z</time>
      </trkpt>
      <trkpt lat="44.27231" lon="5.67471">
        <ele>1034.2</ele>
        <time>2021-09-08T13:20:49Z</time>
      </trkpt>
      <trkpt lat="44.27233" lon="5.67474">
        <ele>1034.3</ele>
        <time>2021-09-08T13:20:50Z</time>
      </trkpt>
      <trkpt lat="44.27234" lon="5.67475">
        <ele>1034.3</ele>
        <time>2021-09-08T13:20:51Z</time>
      </trkpt>
      <trkpt lat="44.27235" lon="5.67474">
        <ele>1034.4</ele>
        <time>2021-09-08T13:20:53Z</time>
      </trkpt>
      <trkpt lat="44.27235" lon="5.67473">
        <ele>1034.4</ele>
        <time>2021-09-08T13:20:54Z</time>
      </trkpt>
      <trkpt lat="44.27236" lon="5.67473">
        <ele>1034.4</ele>
        <time>2021-09-08T13:20:56Z</time>
      </trkpt>
      <trkpt lat="44.27236" lon="5.67473">
        <ele>1034.4</ele>
        <time>2021-09-08T13:20:57Z</time>
      </trkpt>
      <trkpt lat="44.27236" lon="5.67473">
        <ele>1034.4</ele>
        <time>2021-09-08T13:20:58Z</time>
      </trkpt>
      <trkpt lat="44.27236" lon="5.67473">
        <ele>1034.4</ele>
        <time>2021-09-08T13:20:59Z</time>
      </trkpt>
      <trkpt lat="44.27236" lon="5.67473">
        <ele>1034.4</ele>
        <time>2021-09-08T13:21:01Z</time>
      </trkpt>
      <trkpt lat="44.27245" lon="5.67496">
        <ele>1034.3</ele>
        <time>2021-09-08T13:21:19Z</time>
      </trkpt>
      <trkpt lat="44.27247" lon="5.67503">
        <ele>1034.2</ele>
        <time>2021-09-08T13:21:21Z</time>
      </trkpt>
      <trkpt lat="44.2725" lon="5.67514">
        <ele>1033.8</ele>
        <time>2021-09-08T13:21:23Z</time>
      </trkpt>
      <trkpt lat="44.27253" lon="5.67521">
        <ele>1033.5</ele>
        <time>2021-09-08T13:21:24Z</time>
      </trkpt>
      <trkpt lat="44.27255" lon="5.6753">
        <ele>1033.1</ele>
        <time>2021-09-08T13:21:25Z</time>
      </trkpt>
      <trkpt lat="44.27258" lon="5.67542">
        <ele>1032.7</ele>
        <time>2021-09-08T13:21:26Z</time>
      </trkpt>
      <trkpt lat="44.27259" lon="5.67557">
        <ele>1032.2</ele>
        <time>2021-09-08T13:21:28Z</time>
      </trkpt>
      <trkpt lat="44.27261" lon="5.67574">
        <ele>1031.6</ele>
        <time>2021-09-08T13:21:30Z</time>
      </trkpt>
      <trkpt lat="44.27263" lon="5.67583">
        <ele>1031.3</ele>
        <time>2021-09-08T13:21:31Z</time>
      </trkpt>
      <trkpt lat="44.27265" lon="5.67592">
        <ele>1030.9</ele>
        <time>2021-09-08T13:21:32Z</time>
      </trkpt>
      <trkpt lat="44.2727" lon="5.67611">
        <ele>1030.2</ele>
        <time>2021-09-08T13:21:34Z</time>
      </trkpt>
      <trkpt lat="44.27274" lon="5.67621">
        <ele>1029.9</ele>
        <time>2021-09-08T13:21:35Z</time>
      </trkpt>
      <trkpt lat="44.27277" lon="5.67631">
        <ele>1029.7</ele>
        <time>2021-09-08T13:21:36Z</time>
      </trkpt>
      <trkpt lat="44.27286" lon="5.67652">
        <ele>1029.5</ele>
        <time>2021-09-08T13:21:38Z</time>
      </trkpt>
      <trkpt lat="44.2729" lon="5.67662">
        <ele>1029.4</ele>
        <time>2021-09-08T13:21:39Z</time>
      </trkpt>
      <trkpt lat="44.27294" lon="5.67671">
        <ele>1029.2</ele>
        <time>2021-09-08T13:21:40Z</time>
      </trkpt>
      <trkpt lat="44.27303" lon="5.67689">
        <ele>1029.1</ele>
        <time>2021-09-08T13:21:42Z</time>
      </trkpt>
      <trkpt lat="44.27314" lon="5.67703">
        <ele>1029.2</ele>
        <time>2021-09-08T13:21:44Z</time>
      </trkpt>
      <trkpt lat="44.2733" lon="5.67712">
        <ele>1029.8</ele>
        <time>2021-09-08T13:21:46Z</time>
      </trkpt>
      <trkpt lat="44.27342" lon="5.67718">
        <ele>1030.6</ele>
        <time>2021-09-08T13:21:48Z</time>
      </trkpt>
      <trkpt lat="44.27347" lon="5.67721">
        <ele>1031.1</ele>
        <time>2021-09-08T13:21:49Z</time>
      </trkpt>
      <trkpt lat="44.27351" lon="5.67723">
        <ele>1031.5</ele>
        <time>2021-09-08T13:21:50Z</time>
      </trkpt>
      <trkpt lat="44.27352" lon="5.67725">
        <ele>1031.6</ele>
        <time>2021-09-08T13:21:51Z</time>
      </trkpt>
      <trkpt lat="44.27351" lon="5.67734">
        <ele>1032.1</ele>
        <time>2021-09-08T13:21:53Z</time>
      </trkpt>
      <trkpt lat="44.2735" lon="5.67737">
        <ele>1032.2</ele>
        <time>2021-09-08T13:21:54Z</time>
      </trkpt>
      <trkpt lat="44.27349" lon="5.67743">
        <ele>1032.5</ele>
        <time>2021-09-08T13:21:56Z</time>
      </trkpt>
      <trkpt lat="44.27349" lon="5.67747">
        <ele>1032.7</ele>
        <time>2021-09-08T13:21:57Z</time>
      </trkpt>
      <trkpt lat="44.27348" lon="5.6775">
        <ele>1032.8</ele>
        <time>2021-09-08T13:21:59Z</time>
      </trkpt>
      <trkpt lat="44.27351" lon="5.67753">
        <ele>1033</ele>
        <time>2021-09-08T13:22:01Z</time>
      </trkpt>
      <trkpt lat="44.27355" lon="5.67753">
        <ele>1033.2</ele>
        <time>2021-09-08T13:22:02Z</time>
      </trkpt>
      <trkpt lat="44.27358" lon="5.67754">
        <ele>1033.3</ele>
        <time>2021-09-08T13:22:03Z</time>
      </trkpt>
      <trkpt lat="44.27361" lon="5.67755">
        <ele>1033.4</ele>
        <time>2021-09-08T13:22:05Z</time>
      </trkpt>
      <trkpt lat="44.27364" lon="5.67756">
        <ele>1033.5</ele>
        <time>2021-09-08T13:22:06Z</time>
      </trkpt>
      <trkpt lat="44.27365" lon="5.67756">
        <ele>1033.6</ele>
        <time>2021-09-08T13:22:07Z</time>
      </trkpt>
      <trkpt lat="44.27369" lon="5.6776">
        <ele>1033.8</ele>
        <time>2021-09-08T13:22:09Z</time>
      </trkpt>
      <trkpt lat="44.27371" lon="5.67762">
        <ele>1033.8</ele>
        <time>2021-09-08T13:22:11Z</time>
      </trkpt>
      <trkpt lat="44.27372" lon="5.67763">
        <ele>1033.9</ele>
        <time>2021-09-08T13:22:12Z</time>
      </trkpt>
      <trkpt lat="44.27373" lon="5.67765">
        <ele>1033.9</ele>
        <time>2021-09-08T13:22:13Z</time>
      </trkpt>
      <trkpt lat="44.27375" lon="5.67766">
        <ele>1034</ele>
        <time>2021-09-08T13:22:14Z</time>
      </trkpt>
      <trkpt lat="44.27376" lon="5.67769">
        <ele>1034.1</ele>
        <time>2021-09-08T13:22:16Z</time>
      </trkpt>
      <trkpt lat="44.27376" lon="5.67774">
        <ele>1034.2</ele>
        <time>2021-09-08T13:22:17Z</time>
      </trkpt>
      <trkpt lat="44.27377" lon="5.67775">
        <ele>1034.3</ele>
        <time>2021-09-08T13:22:18Z</time>
      </trkpt>
      <trkpt lat="44.27377" lon="5.67779">
        <ele>1034.4</ele>
        <time>2021-09-08T13:22:19Z</time>
      </trkpt>
      <trkpt lat="44.27379" lon="5.67782">
        <ele>1034.5</ele>
        <time>2021-09-08T13:22:21Z</time>
      </trkpt>
      <trkpt lat="44.2738" lon="5.67788">
        <ele>1034.6</ele>
        <time>2021-09-08T13:22:23Z</time>
      </trkpt>
      <trkpt lat="44.27381" lon="5.67791">
        <ele>1034.7</ele>
        <time>2021-09-08T13:22:24Z</time>
      </trkpt>
      <trkpt lat="44.27383" lon="5.67798">
        <ele>1034.8</ele>
        <time>2021-09-08T13:22:26Z</time>
      </trkpt>
      <trkpt lat="44.27384" lon="5.67803">
        <ele>1034.8</ele>
        <time>2021-09-08T13:22:27Z</time>
      </trkpt>
      <trkpt lat="44.27385" lon="5.67808">
        <ele>1034.9</ele>
        <time>2021-09-08T13:22:28Z</time>
      </trkpt>
      <trkpt lat="44.27387" lon="5.67813">
        <ele>1034.9</ele>
        <time>2021-09-08T13:22:29Z</time>
      </trkpt>
      <trkpt lat="44.27389" lon="5.67819">
        <ele>1035</ele>
        <time>2021-09-08T13:22:31Z</time>
      </trkpt>
      <trkpt lat="44.2739" lon="5.67822">
        <ele>1035</ele>
        <time>2021-09-08T13:22:32Z</time>
      </trkpt>
      <trkpt lat="44.2739" lon="5.67828">
        <ele>1035</ele>
        <time>2021-09-08T13:22:34Z</time>
      </trkpt>
      <trkpt lat="44.27389" lon="5.67832">
        <ele>1035</ele>
        <time>2021-09-08T13:22:35Z</time>
      </trkpt>
      <trkpt lat="44.27389" lon="5.67837">
        <ele>1035</ele>
        <time>2021-09-08T13:22:36Z</time>
      </trkpt>
      <trkpt lat="44.27389" lon="5.67842">
        <ele>1035</ele>
        <time>2021-09-08T13:22:37Z</time>
      </trkpt>
      <trkpt lat="44.2739" lon="5.67849">
        <ele>1035</ele>
        <time>2021-09-08T13:22:38Z</time>
      </trkpt>
      <trkpt lat="44.27391" lon="5.67857">
        <ele>1034.9</ele>
        <time>2021-09-08T13:22:40Z</time>
      </trkpt>
      <trkpt lat="44.27391" lon="5.67863">
        <ele>1034.9</ele>
        <time>2021-09-08T13:22:41Z</time>
      </trkpt>
      <trkpt lat="44.27392" lon="5.67868">
        <ele>1034.8</ele>
        <time>2021-09-08T13:22:42Z</time>
      </trkpt>
      <trkpt lat="44.27392" lon="5.67876">
        <ele>1034.6</ele>
        <time>2021-09-08T13:22:44Z</time>
      </trkpt>
      <trkpt lat="44.27392" lon="5.67884">
        <ele>1034.4</ele>
        <time>2021-09-08T13:22:45Z</time>
      </trkpt>
      <trkpt lat="44.27393" lon="5.67894">
        <ele>1034.2</ele>
        <time>2021-09-08T13:22:47Z</time>
      </trkpt>
      <trkpt lat="44.27393" lon="5.67903">
        <ele>1034</ele>
        <time>2021-09-08T13:22:48Z</time>
      </trkpt>
      <trkpt lat="44.27393" lon="5.67911">
        <ele>1033.8</ele>
        <time>2021-09-08T13:22:50Z</time>
      </trkpt>
      <trkpt lat="44.27393" lon="5.67917">
        <ele>1033.6</ele>
        <time>2021-09-08T13:22:51Z</time>
      </trkpt>
      <trkpt lat="44.27391" lon="5.67924">
        <ele>1033.3</ele>
        <time>2021-09-08T13:22:52Z</time>
      </trkpt>
      <trkpt lat="44.27391" lon="5.67931">
        <ele>1033.1</ele>
        <time>2021-09-08T13:22:53Z</time>
      </trkpt>
      <trkpt lat="44.27388" lon="5.67945">
        <ele>1032.6</ele>
        <time>2021-09-08T13:22:55Z</time>
      </trkpt>
      <trkpt lat="44.27386" lon="5.67953">
        <ele>1032.2</ele>
        <time>2021-09-08T13:22:56Z</time>
      </trkpt>
      <trkpt lat="44.27383" lon="5.6797">
        <ele>1031.5</ele>
        <time>2021-09-08T13:22:58Z</time>
      </trkpt>
      <trkpt lat="44.27381" lon="5.67979">
        <ele>1031.1</ele>
        <time>2021-09-08T13:22:59Z</time>
      </trkpt>
      <trkpt lat="44.2738" lon="5.67988">
        <ele>1030.8</ele>
        <time>2021-09-08T13:23:00Z</time>
      </trkpt>
      <trkpt lat="44.27381" lon="5.68006">
        <ele>1030.2</ele>
        <time>2021-09-08T13:23:02Z</time>
      </trkpt>
      <trkpt lat="44.27382" lon="5.68015">
        <ele>1029.9</ele>
        <time>2021-09-08T13:23:03Z</time>
      </trkpt>
      <trkpt lat="44.27383" lon="5.68033">
        <ele>1029.4</ele>
        <time>2021-09-08T13:23:05Z</time>
      </trkpt>
      <trkpt lat="44.27382" lon="5.68042">
        <ele>1029.1</ele>
        <time>2021-09-08T13:23:06Z</time>
      </trkpt>
      <trkpt lat="44.27381" lon="5.6806">
        <ele>1028.7</ele>
        <time>2021-09-08T13:23:08Z</time>
      </trkpt>
      <trkpt lat="44.27382" lon="5.68078">
        <ele>1028.3</ele>
        <time>2021-09-08T13:23:10Z</time>
      </trkpt>
      <trkpt lat="44.27383" lon="5.68088">
        <ele>1028.1</ele>
        <time>2021-09-08T13:23:11Z</time>
      </trkpt>
      <trkpt lat="44.27387" lon="5.68108">
        <ele>1027.8</ele>
        <time>2021-09-08T13:23:13Z</time>
      </trkpt>
      <trkpt lat="44.27393" lon="5.68127">
        <ele>1027.4</ele>
        <time>2021-09-08T13:23:15Z</time>
      </trkpt>
      <trkpt lat="44.27401" lon="5.68143">
        <ele>1027.1</ele>
        <time>2021-09-08T13:23:17Z</time>
      </trkpt>
      <trkpt lat="44.27404" lon="5.68151">
        <ele>1026.9</ele>
        <time>2021-09-08T13:23:18Z</time>
      </trkpt>
      <trkpt lat="44.27407" lon="5.68159">
        <ele>1026.7</ele>
        <time>2021-09-08T13:23:19Z</time>
      </trkpt>
      <trkpt lat="44.2741" lon="5.68167">
        <ele>1026.5</ele>
        <time>2021-09-08T13:23:20Z</time>
      </trkpt>
      <trkpt lat="44.27415" lon="5.68183">
        <ele>1026.1</ele>
        <time>2021-09-08T13:23:22Z</time>
      </trkpt>
      <trkpt lat="44.27417" lon="5.68192">
        <ele>1025.9</ele>
        <time>2021-09-08T13:23:23Z</time>
      </trkpt>
      <trkpt lat="44.27418" lon="5.682">
        <ele>1025.8</ele>
        <time>2021-09-08T13:23:24Z</time>
      </trkpt>
      <trkpt lat="44.27419" lon="5.68217">
        <ele>1025.5</ele>
        <time>2021-09-08T13:23:26Z</time>
      </trkpt>
      <trkpt lat="44.2742" lon="5.68226">
        <ele>1025.3</ele>
        <time>2021-09-08T13:23:27Z</time>
      </trkpt>
      <trkpt lat="44.27421" lon="5.68242">
        <ele>1025.1</ele>
        <time>2021-09-08T13:23:29Z</time>
      </trkpt>
      <trkpt lat="44.27422" lon="5.68257">
        <ele>1024.9</ele>
        <time>2021-09-08T13:23:31Z</time>
      </trkpt>
      <trkpt lat="44.27422" lon="5.68265">
        <ele>1024.7</ele>
        <time>2021-09-08T13:23:32Z</time>
      </trkpt>
      <trkpt lat="44.27422" lon="5.68273">
        <ele>1024.6</ele>
        <time>2021-09-08T13:23:33Z</time>
      </trkpt>
      <trkpt lat="44.27422" lon="5.68282">
        <ele>1024.5</ele>
        <time>2021-09-08T13:23:34Z</time>
      </trkpt>
      <trkpt lat="44.27424" lon="5.683">
        <ele>1024.2</ele>
        <time>2021-09-08T13:23:36Z</time>
      </trkpt>
      <trkpt lat="44.27425" lon="5.68321">
        <ele>1023.5</ele>
        <time>2021-09-08T13:23:38Z</time>
      </trkpt>
      <trkpt lat="44.27427" lon="5.6834">
        <ele>1022.8</ele>
        <time>2021-09-08T13:23:40Z</time>
      </trkpt>
      <trkpt lat="44.27428" lon="5.6835">
        <ele>1022.6</ele>
        <time>2021-09-08T13:23:41Z</time>
      </trkpt>
      <trkpt lat="44.27428" lon="5.6836">
        <ele>1022.4</ele>
        <time>2021-09-08T13:23:42Z</time>
      </trkpt>
      <trkpt lat="44.27426" lon="5.68378">
        <ele>1022.2</ele>
        <time>2021-09-08T13:23:44Z</time>
      </trkpt>
      <trkpt lat="44.27426" lon="5.68396">
        <ele>1022.1</ele>
        <time>2021-09-08T13:23:46Z</time>
      </trkpt>
      <trkpt lat="44.27425" lon="5.68414">
        <ele>1022</ele>
        <time>2021-09-08T13:23:48Z</time>
      </trkpt>
      <trkpt lat="44.27422" lon="5.68432">
        <ele>1021.9</ele>
        <time>2021-09-08T13:23:50Z</time>
      </trkpt>
      <trkpt lat="44.27419" lon="5.68449">
        <ele>1021.9</ele>
        <time>2021-09-08T13:23:52Z</time>
      </trkpt>
      <trkpt lat="44.27418" lon="5.68457">
        <ele>1021.9</ele>
        <time>2021-09-08T13:23:53Z</time>
      </trkpt>
      <trkpt lat="44.27415" lon="5.68474">
        <ele>1021.8</ele>
        <time>2021-09-08T13:23:55Z</time>
      </trkpt>
      <trkpt lat="44.27413" lon="5.68482">
        <ele>1021.8</ele>
        <time>2021-09-08T13:23:56Z</time>
      </trkpt>
      <trkpt lat="44.27411" lon="5.68499">
        <ele>1021.8</ele>
        <time>2021-09-08T13:23:58Z</time>
      </trkpt>
      <trkpt lat="44.27409" lon="5.68508">
        <ele>1021.7</ele>
        <time>2021-09-08T13:23:59Z</time>
      </trkpt>
      <trkpt lat="44.27408" lon="5.68517">
        <ele>1021.7</ele>
        <time>2021-09-08T13:24:00Z</time>
      </trkpt>
      <trkpt lat="44.27403" lon="5.68531">
        <ele>1021.8</ele>
        <time>2021-09-08T13:24:02Z</time>
      </trkpt>
      <trkpt lat="44.274" lon="5.68537">
        <ele>1021.8</ele>
        <time>2021-09-08T13:24:03Z</time>
      </trkpt>
      <trkpt lat="44.27396" lon="5.68544">
        <ele>1021.7</ele>
        <time>2021-09-08T13:24:04Z</time>
      </trkpt>
      <trkpt lat="44.27393" lon="5.68558">
        <ele>1021.5</ele>
        <time>2021-09-08T13:24:06Z</time>
      </trkpt>
      <trkpt lat="44.27393" lon="5.68566">
        <ele>1021.4</ele>
        <time>2021-09-08T13:24:07Z</time>
      </trkpt>
      <trkpt lat="44.27393" lon="5.68582">
        <ele>1020.9</ele>
        <time>2021-09-08T13:24:09Z</time>
      </trkpt>
      <trkpt lat="44.27393" lon="5.686">
        <ele>1020.4</ele>
        <time>2021-09-08T13:24:11Z</time>
      </trkpt>
      <trkpt lat="44.27392" lon="5.68609">
        <ele>1020.1</ele>
        <time>2021-09-08T13:24:12Z</time>
      </trkpt>
      <trkpt lat="44.27393" lon="5.68628">
        <ele>1019.8</ele>
        <time>2021-09-08T13:24:14Z</time>
      </trkpt>
      <trkpt lat="44.27393" lon="5.68638">
        <ele>1019.7</ele>
        <time>2021-09-08T13:24:15Z</time>
      </trkpt>
      <trkpt lat="44.27395" lon="5.68657">
        <ele>1019.5</ele>
        <time>2021-09-08T13:24:17Z</time>
      </trkpt>
      <trkpt lat="44.27396" lon="5.68666">
        <ele>1019.3</ele>
        <time>2021-09-08T13:24:18Z</time>
      </trkpt>
      <trkpt lat="44.27397" lon="5.68674">
        <ele>1019.1</ele>
        <time>2021-09-08T13:24:19Z</time>
      </trkpt>
      <trkpt lat="44.274" lon="5.68692">
        <ele>1018.8</ele>
        <time>2021-09-08T13:24:21Z</time>
      </trkpt>
      <trkpt lat="44.27403" lon="5.68701">
        <ele>1018.5</ele>
        <time>2021-09-08T13:24:22Z</time>
      </trkpt>
      <trkpt lat="44.27406" lon="5.68709">
        <ele>1018.2</ele>
        <time>2021-09-08T13:24:23Z</time>
      </trkpt>
      <trkpt lat="44.27415" lon="5.68722">
        <ele>1017.5</ele>
        <time>2021-09-08T13:24:25Z</time>
      </trkpt>
      <trkpt lat="44.2742" lon="5.68728">
        <ele>1017.2</ele>
        <time>2021-09-08T13:24:26Z</time>
      </trkpt>
      <trkpt lat="44.2743" lon="5.68738">
        <ele>1016.8</ele>
        <time>2021-09-08T13:24:28Z</time>
      </trkpt>
      <trkpt lat="44.27435" lon="5.68742">
        <ele>1016.6</ele>
        <time>2021-09-08T13:24:29Z</time>
      </trkpt>
      <trkpt lat="44.27447" lon="5.6875">
        <ele>1016.2</ele>
        <time>2021-09-08T13:24:31Z</time>
      </trkpt>
      <trkpt lat="44.27452" lon="5.68756">
        <ele>1016.1</ele>
        <time>2021-09-08T13:24:32Z</time>
      </trkpt>
      <trkpt lat="44.2746" lon="5.68769">
        <ele>1015.9</ele>
        <time>2021-09-08T13:24:34Z</time>
      </trkpt>
      <trkpt lat="44.27463" lon="5.68786">
        <ele>1015.7</ele>
        <time>2021-09-08T13:24:36Z</time>
      </trkpt>
      <trkpt lat="44.27466" lon="5.68803">
        <ele>1015.6</ele>
        <time>2021-09-08T13:24:38Z</time>
      </trkpt>
      <trkpt lat="44.27469" lon="5.68821">
        <ele>1015.3</ele>
        <time>2021-09-08T13:24:40Z</time>
      </trkpt>
      <trkpt lat="44.27471" lon="5.6883">
        <ele>1015</ele>
        <time>2021-09-08T13:24:41Z</time>
      </trkpt>
      <trkpt lat="44.27475" lon="5.68838">
        <ele>1014.6</ele>
        <time>2021-09-08T13:24:42Z</time>
      </trkpt>
      <trkpt lat="44.27479" lon="5.68847">
        <ele>1014.1</ele>
        <time>2021-09-08T13:24:43Z</time>
      </trkpt>
      <trkpt lat="44.27483" lon="5.68855">
        <ele>1013.8</ele>
        <time>2021-09-08T13:24:44Z</time>
      </trkpt>
      <trkpt lat="44.27492" lon="5.6887">
        <ele>1013.3</ele>
        <time>2021-09-08T13:24:46Z</time>
      </trkpt>
      <trkpt lat="44.27501" lon="5.68885">
        <ele>1013.1</ele>
        <time>2021-09-08T13:24:48Z</time>
      </trkpt>
      <trkpt lat="44.27509" lon="5.689">
        <ele>1012.8</ele>
        <time>2021-09-08T13:24:50Z</time>
      </trkpt>
      <trkpt lat="44.27517" lon="5.68918">
        <ele>1012.4</ele>
        <time>2021-09-08T13:24:52Z</time>
      </trkpt>
      <trkpt lat="44.27524" lon="5.68936">
        <ele>1012.1</ele>
        <time>2021-09-08T13:24:54Z</time>
      </trkpt>
      <trkpt lat="44.27526" lon="5.68956">
        <ele>1011.2</ele>
        <time>2021-09-08T13:24:56Z</time>
      </trkpt>
      <trkpt lat="44.27527" lon="5.68977">
        <ele>1010.1</ele>
        <time>2021-09-08T13:24:58Z</time>
      </trkpt>
      <trkpt lat="44.27529" lon="5.68998">
        <ele>1008.7</ele>
        <time>2021-09-08T13:25:00Z</time>
      </trkpt>
      <trkpt lat="44.27528" lon="5.69011">
        <ele>1007.9</ele>
        <time>2021-09-08T13:25:01Z</time>
      </trkpt>
      <trkpt lat="44.27526" lon="5.69036">
        <ele>1006.4</ele>
        <time>2021-09-08T13:25:03Z</time>
      </trkpt>
      <trkpt lat="44.27521" lon="5.69059">
        <ele>1005.5</ele>
        <time>2021-09-08T13:25:05Z</time>
      </trkpt>
      <trkpt lat="44.27517" lon="5.69069">
        <ele>1005.2</ele>
        <time>2021-09-08T13:25:06Z</time>
      </trkpt>
      <trkpt lat="44.27514" lon="5.6908">
        <ele>1004.9</ele>
        <time>2021-09-08T13:25:07Z</time>
      </trkpt>
      <trkpt lat="44.27512" lon="5.6909">
        <ele>1004.6</ele>
        <time>2021-09-08T13:25:08Z</time>
      </trkpt>
      <trkpt lat="44.27508" lon="5.69109">
        <ele>1003.6</ele>
        <time>2021-09-08T13:25:10Z</time>
      </trkpt>
      <trkpt lat="44.27509" lon="5.6912">
        <ele>1003.1</ele>
        <time>2021-09-08T13:25:11Z</time>
      </trkpt>
      <trkpt lat="44.27512" lon="5.69142">
        <ele>1001.7</ele>
        <time>2021-09-08T13:25:13Z</time>
      </trkpt>
      <trkpt lat="44.27514" lon="5.69152">
        <ele>1001</ele>
        <time>2021-09-08T13:25:14Z</time>
      </trkpt>
      <trkpt lat="44.27517" lon="5.69163">
        <ele>1000.2</ele>
        <time>2021-09-08T13:25:15Z</time>
      </trkpt>
      <trkpt lat="44.27521" lon="5.69184">
        <ele>998.7</ele>
        <time>2021-09-08T13:25:17Z</time>
      </trkpt>
      <trkpt lat="44.27522" lon="5.69195">
        <ele>998.1</ele>
        <time>2021-09-08T13:25:18Z</time>
      </trkpt>
      <trkpt lat="44.27521" lon="5.69217">
        <ele>996.8</ele>
        <time>2021-09-08T13:25:20Z</time>
      </trkpt>
      <trkpt lat="44.2752" lon="5.69239">
        <ele>995.2</ele>
        <time>2021-09-08T13:25:22Z</time>
      </trkpt>
      <trkpt lat="44.2752" lon="5.69251">
        <ele>994.2</ele>
        <time>2021-09-08T13:25:23Z</time>
      </trkpt>
      <trkpt lat="44.27522" lon="5.69261">
        <ele>993.2</ele>
        <time>2021-09-08T13:25:24Z</time>
      </trkpt>
      <trkpt lat="44.27529" lon="5.69282">
        <ele>990.9</ele>
        <time>2021-09-08T13:25:26Z</time>
      </trkpt>
      <trkpt lat="44.27531" lon="5.69293">
        <ele>989.8</ele>
        <time>2021-09-08T13:25:27Z</time>
      </trkpt>
      <trkpt lat="44.27532" lon="5.6932">
        <ele>987.2</ele>
        <time>2021-09-08T13:25:29Z</time>
      </trkpt>
      <trkpt lat="44.27531" lon="5.69348">
        <ele>984.7</ele>
        <time>2021-09-08T13:25:31Z</time>
      </trkpt>
      <trkpt lat="44.27527" lon="5.69375">
        <ele>982.4</ele>
        <time>2021-09-08T13:25:33Z</time>
      </trkpt>
      <trkpt lat="44.27525" lon="5.69388">
        <ele>981.3</ele>
        <time>2021-09-08T13:25:34Z</time>
      </trkpt>
      <trkpt lat="44.27523" lon="5.69401">
        <ele>980.3</ele>
        <time>2021-09-08T13:25:35Z</time>
      </trkpt>
      <trkpt lat="44.2752" lon="5.69424">
        <ele>978.5</ele>
        <time>2021-09-08T13:25:37Z</time>
      </trkpt>
      <trkpt lat="44.27519" lon="5.69436">
        <ele>977.7</ele>
        <time>2021-09-08T13:25:38Z</time>
      </trkpt>
      <trkpt lat="44.27515" lon="5.69459">
        <ele>975.7</ele>
        <time>2021-09-08T13:25:40Z</time>
      </trkpt>
      <trkpt lat="44.27511" lon="5.69484">
        <ele>973.2</ele>
        <time>2021-09-08T13:25:42Z</time>
      </trkpt>
      <trkpt lat="44.27509" lon="5.69508">
        <ele>970.8</ele>
        <time>2021-09-08T13:25:44Z</time>
      </trkpt>
      <trkpt lat="44.27509" lon="5.69519">
        <ele>969.7</ele>
        <time>2021-09-08T13:25:45Z</time>
      </trkpt>
      <trkpt lat="44.27507" lon="5.69531">
        <ele>968.7</ele>
        <time>2021-09-08T13:25:46Z</time>
      </trkpt>
      <trkpt lat="44.27503" lon="5.69554">
        <ele>966.5</ele>
        <time>2021-09-08T13:25:48Z</time>
      </trkpt>
      <trkpt lat="44.27502" lon="5.69576">
        <ele>964.6</ele>
        <time>2021-09-08T13:25:50Z</time>
      </trkpt>
      <trkpt lat="44.275" lon="5.69597">
        <ele>962.7</ele>
        <time>2021-09-08T13:25:52Z</time>
      </trkpt>
      <trkpt lat="44.27501" lon="5.69608">
        <ele>961.5</ele>
        <time>2021-09-08T13:25:53Z</time>
      </trkpt>
      <trkpt lat="44.27502" lon="5.69621">
        <ele>960</ele>
        <time>2021-09-08T13:25:54Z</time>
      </trkpt>
      <trkpt lat="44.275" lon="5.69646">
        <ele>956.4</ele>
        <time>2021-09-08T13:25:56Z</time>
      </trkpt>
      <trkpt lat="44.275" lon="5.69657">
        <ele>954.7</ele>
        <time>2021-09-08T13:25:57Z</time>
      </trkpt>
      <trkpt lat="44.27501" lon="5.69674">
        <ele>952.5</ele>
        <time>2021-09-08T13:25:59Z</time>
      </trkpt>
      <trkpt lat="44.27498" lon="5.69692">
        <ele>950.4</ele>
        <time>2021-09-08T13:26:01Z</time>
      </trkpt>
      <trkpt lat="44.27496" lon="5.6971">
        <ele>948.6</ele>
        <time>2021-09-08T13:26:03Z</time>
      </trkpt>
      <trkpt lat="44.27495" lon="5.69731">
        <ele>946.8</ele>
        <time>2021-09-08T13:26:05Z</time>
      </trkpt>
      <trkpt lat="44.27497" lon="5.69753">
        <ele>945.2</ele>
        <time>2021-09-08T13:26:07Z</time>
      </trkpt>
      <trkpt lat="44.27496" lon="5.69763">
        <ele>944.8</ele>
        <time>2021-09-08T13:26:08Z</time>
      </trkpt>
      <trkpt lat="44.27495" lon="5.69773">
        <ele>944.6</ele>
        <time>2021-09-08T13:26:09Z</time>
      </trkpt>
      <trkpt lat="44.27495" lon="5.69795">
        <ele>944.4</ele>
        <time>2021-09-08T13:26:11Z</time>
      </trkpt>
      <trkpt lat="44.27496" lon="5.69815">
        <ele>944.3</ele>
        <time>2021-09-08T13:26:13Z</time>
      </trkpt>
      <trkpt lat="44.27497" lon="5.69824">
        <ele>944.3</ele>
        <time>2021-09-08T13:26:14Z</time>
      </trkpt>
      <trkpt lat="44.27502" lon="5.6984">
        <ele>944.2</ele>
        <time>2021-09-08T13:26:16Z</time>
      </trkpt>
      <trkpt lat="44.27505" lon="5.69847">
        <ele>944.2</ele>
        <time>2021-09-08T13:26:17Z</time>
      </trkpt>
      <trkpt lat="44.27509" lon="5.69854">
        <ele>944.2</ele>
        <time>2021-09-08T13:26:18Z</time>
      </trkpt>
      <trkpt lat="44.27513" lon="5.69862">
        <ele>944.2</ele>
        <time>2021-09-08T13:26:19Z</time>
      </trkpt>
      <trkpt lat="44.27525" lon="5.69873">
        <ele>944</ele>
        <time>2021-09-08T13:26:21Z</time>
      </trkpt>
      <trkpt lat="44.27531" lon="5.6988">
        <ele>943.9</ele>
        <time>2021-09-08T13:26:22Z</time>
      </trkpt>
      <trkpt lat="44.27544" lon="5.69891">
        <ele>943.7</ele>
        <time>2021-09-08T13:26:24Z</time>
      </trkpt>
      <trkpt lat="44.27551" lon="5.69897">
        <ele>943.6</ele>
        <time>2021-09-08T13:26:25Z</time>
      </trkpt>
      <trkpt lat="44.27557" lon="5.69903">
        <ele>943.6</ele>
        <time>2021-09-08T13:26:26Z</time>
      </trkpt>
      <trkpt lat="44.27567" lon="5.69915">
        <ele>943.6</ele>
        <time>2021-09-08T13:26:28Z</time>
      </trkpt>
      <trkpt lat="44.27571" lon="5.69922">
        <ele>943.7</ele>
        <time>2021-09-08T13:26:29Z</time>
      </trkpt>
      <trkpt lat="44.27578" lon="5.69936">
        <ele>943.9</ele>
        <time>2021-09-08T13:26:31Z</time>
      </trkpt>
      <trkpt lat="44.27582" lon="5.69942">
        <ele>943.9</ele>
        <time>2021-09-08T13:26:32Z</time>
      </trkpt>
      <trkpt lat="44.27585" lon="5.69955">
        <ele>944</ele>
        <time>2021-09-08T13:26:34Z</time>
      </trkpt>
      <trkpt lat="44.27588" lon="5.69969">
        <ele>944</ele>
        <time>2021-09-08T13:26:36Z</time>
      </trkpt>
      <trkpt lat="44.27592" lon="5.69977">
        <ele>944</ele>
        <time>2021-09-08T13:26:37Z</time>
      </trkpt>
      <trkpt lat="44.27595" lon="5.69986">
        <ele>944</ele>
        <time>2021-09-08T13:26:38Z</time>
      </trkpt>
      <trkpt lat="44.27599" lon="5.70001">
        <ele>943.9</ele>
        <time>2021-09-08T13:26:40Z</time>
      </trkpt>
      <trkpt lat="44.27599" lon="5.70009">
        <ele>943.9</ele>
        <time>2021-09-08T13:26:41Z</time>
      </trkpt>
      <trkpt lat="44.27598" lon="5.70025">
        <ele>943.9</ele>
        <time>2021-09-08T13:26:43Z</time>
      </trkpt>
      <trkpt lat="44.27597" lon="5.70034">
        <ele>943.9</ele>
        <time>2021-09-08T13:26:44Z</time>
      </trkpt>
      <trkpt lat="44.27596" lon="5.7005">
        <ele>943.8</ele>
        <time>2021-09-08T13:26:46Z</time>
      </trkpt>
      <trkpt lat="44.27597" lon="5.70061">
        <ele>943.6</ele>
        <time>2021-09-08T13:26:48Z</time>
      </trkpt>
      <trkpt lat="44.27598" lon="5.70065">
        <ele>943.5</ele>
        <time>2021-09-08T13:26:49Z</time>
      </trkpt>
      <trkpt lat="44.27598" lon="5.70076">
        <ele>943.2</ele>
        <time>2021-09-08T13:26:51Z</time>
      </trkpt>
      <trkpt lat="44.27599" lon="5.70081">
        <ele>943.1</ele>
        <time>2021-09-08T13:26:52Z</time>
      </trkpt>
      <trkpt lat="44.27602" lon="5.70087">
        <ele>942.9</ele>
        <time>2021-09-08T13:26:53Z</time>
      </trkpt>
      <trkpt lat="44.27606" lon="5.70102">
        <ele>942.3</ele>
        <time>2021-09-08T13:26:55Z</time>
      </trkpt>
      <trkpt lat="44.27608" lon="5.7011">
        <ele>942</ele>
        <time>2021-09-08T13:26:56Z</time>
      </trkpt>
      <trkpt lat="44.27612" lon="5.70117">
        <ele>941.7</ele>
        <time>2021-09-08T13:26:57Z</time>
      </trkpt>
      <trkpt lat="44.27623" lon="5.70132">
        <ele>941.2</ele>
        <time>2021-09-08T13:26:59Z</time>
      </trkpt>
      <trkpt lat="44.27627" lon="5.7014">
        <ele>941</ele>
        <time>2021-09-08T13:27:00Z</time>
      </trkpt>
      <trkpt lat="44.27631" lon="5.70149">
        <ele>941.1</ele>
        <time>2021-09-08T13:27:01Z</time>
      </trkpt>
      <trkpt lat="44.27637" lon="5.70167">
        <ele>941.2</ele>
        <time>2021-09-08T13:27:03Z</time>
      </trkpt>
      <trkpt lat="44.27638" lon="5.70175">
        <ele>941.2</ele>
        <time>2021-09-08T13:27:04Z</time>
      </trkpt>
      <trkpt lat="44.27638" lon="5.70184">
        <ele>941.3</ele>
        <time>2021-09-08T13:27:05Z</time>
      </trkpt>
      <trkpt lat="44.27636" lon="5.70198">
        <ele>941.4</ele>
        <time>2021-09-08T13:27:07Z</time>
      </trkpt>
      <trkpt lat="44.27634" lon="5.70207">
        <ele>941.5</ele>
        <time>2021-09-08T13:27:09Z</time>
      </trkpt>
      <trkpt lat="44.27631" lon="5.70217">
        <ele>941.6</ele>
        <time>2021-09-08T13:27:11Z</time>
      </trkpt>
      <trkpt lat="44.27626" lon="5.70225">
        <ele>941.7</ele>
        <time>2021-09-08T13:27:13Z</time>
      </trkpt>
      <trkpt lat="44.27623" lon="5.70229">
        <ele>941.7</ele>
        <time>2021-09-08T13:27:14Z</time>
      </trkpt>
      <trkpt lat="44.27617" lon="5.70229">
        <ele>941.7</ele>
        <time>2021-09-08T13:27:16Z</time>
      </trkpt>
      <trkpt lat="44.27616" lon="5.70237">
        <ele>941.7</ele>
        <time>2021-09-08T13:27:17Z</time>
      </trkpt>
      <trkpt lat="44.27615" lon="5.70245">
        <ele>941.7</ele>
        <time>2021-09-08T13:27:19Z</time>
      </trkpt>
      <trkpt lat="44.27621" lon="5.70259">
        <ele>941.3</ele>
        <time>2021-09-08T13:27:20Z</time>
      </trkpt>
      <trkpt lat="44.27628" lon="5.70275">
        <ele>940.6</ele>
        <time>2021-09-08T13:27:22Z</time>
      </trkpt>
      <trkpt lat="44.27631" lon="5.70283">
        <ele>940.3</ele>
        <time>2021-09-08T13:27:23Z</time>
      </trkpt>
      <trkpt lat="44.27633" lon="5.70292">
        <ele>940</ele>
        <time>2021-09-08T13:27:24Z</time>
      </trkpt>
      <trkpt lat="44.27635" lon="5.70309">
        <ele>940</ele>
        <time>2021-09-08T13:27:26Z</time>
      </trkpt>
      <trkpt lat="44.27636" lon="5.70318">
        <ele>940</ele>
        <time>2021-09-08T13:27:27Z</time>
      </trkpt>
      <trkpt lat="44.27639" lon="5.70333">
        <ele>939.9</ele>
        <time>2021-09-08T13:27:29Z</time>
      </trkpt>
      <trkpt lat="44.27641" lon="5.70346">
        <ele>939.8</ele>
        <time>2021-09-08T13:27:31Z</time>
      </trkpt>
      <trkpt lat="44.27641" lon="5.7035">
        <ele>939.7</ele>
        <time>2021-09-08T13:27:32Z</time>
      </trkpt>
      <trkpt lat="44.27643" lon="5.70361">
        <ele>939.5</ele>
        <time>2021-09-08T13:27:34Z</time>
      </trkpt>
      <trkpt lat="44.27644" lon="5.70367">
        <ele>939.4</ele>
        <time>2021-09-08T13:27:35Z</time>
      </trkpt>
      <trkpt lat="44.27645" lon="5.70372">
        <ele>939.3</ele>
        <time>2021-09-08T13:27:36Z</time>
      </trkpt>
      <trkpt lat="44.27646" lon="5.70376">
        <ele>939.2</ele>
        <time>2021-09-08T13:27:37Z</time>
      </trkpt>
      <trkpt lat="44.27649" lon="5.70387">
        <ele>939</ele>
        <time>2021-09-08T13:27:38Z</time>
      </trkpt>
      <trkpt lat="44.27653" lon="5.70392">
        <ele>938.8</ele>
        <time>2021-09-08T13:27:40Z</time>
      </trkpt>
      <trkpt lat="44.27658" lon="5.70395">
        <ele>938.7</ele>
        <time>2021-09-08T13:27:41Z</time>
      </trkpt>
      <trkpt lat="44.27664" lon="5.70399">
        <ele>938.4</ele>
        <time>2021-09-08T13:27:42Z</time>
      </trkpt>
      <trkpt lat="44.27678" lon="5.70407">
        <ele>937.5</ele>
        <time>2021-09-08T13:27:44Z</time>
      </trkpt>
      <trkpt lat="44.27692" lon="5.70419">
        <ele>936.3</ele>
        <time>2021-09-08T13:27:46Z</time>
      </trkpt>
      <trkpt lat="44.27698" lon="5.70426">
        <ele>935.7</ele>
        <time>2021-09-08T13:27:47Z</time>
      </trkpt>
      <trkpt lat="44.27709" lon="5.70447">
        <ele>934.2</ele>
        <time>2021-09-08T13:27:49Z</time>
      </trkpt>
      <trkpt lat="44.27714" lon="5.70457">
        <ele>933.7</ele>
        <time>2021-09-08T13:27:50Z</time>
      </trkpt>
      <trkpt lat="44.27724" lon="5.70475">
        <ele>932.9</ele>
        <time>2021-09-08T13:27:52Z</time>
      </trkpt>
      <trkpt lat="44.2773" lon="5.70491">
        <ele>932.3</ele>
        <time>2021-09-08T13:27:54Z</time>
      </trkpt>
      <trkpt lat="44.27736" lon="5.70507">
        <ele>931.6</ele>
        <time>2021-09-08T13:27:56Z</time>
      </trkpt>
      <trkpt lat="44.27746" lon="5.70521">
        <ele>930.9</ele>
        <time>2021-09-08T13:27:58Z</time>
      </trkpt>
      <trkpt lat="44.27751" lon="5.70525">
        <ele>930.6</ele>
        <time>2021-09-08T13:27:59Z</time>
      </trkpt>
      <trkpt lat="44.27757" lon="5.7053">
        <ele>930.4</ele>
        <time>2021-09-08T13:28:00Z</time>
      </trkpt>
      <trkpt lat="44.27762" lon="5.70534">
        <ele>930.2</ele>
        <time>2021-09-08T13:28:01Z</time>
      </trkpt>
      <trkpt lat="44.27769" lon="5.70546">
        <ele>929.9</ele>
        <time>2021-09-08T13:28:03Z</time>
      </trkpt>
      <trkpt lat="44.27771" lon="5.70556">
        <ele>929.8</ele>
        <time>2021-09-08T13:28:05Z</time>
      </trkpt>
      <trkpt lat="44.2777" lon="5.70566">
        <ele>929.8</ele>
        <time>2021-09-08T13:28:07Z</time>
      </trkpt>
      <trkpt lat="44.27767" lon="5.7057">
        <ele>929.8</ele>
        <time>2021-09-08T13:28:08Z</time>
      </trkpt>
      <trkpt lat="44.27763" lon="5.70576">
        <ele>929.8</ele>
        <time>2021-09-08T13:28:09Z</time>
      </trkpt>
      <trkpt lat="44.27753" lon="5.70596">
        <ele>930</ele>
        <time>2021-09-08T13:28:11Z</time>
      </trkpt>
      <trkpt lat="44.27745" lon="5.70615">
        <ele>930</ele>
        <time>2021-09-08T13:28:13Z</time>
      </trkpt>
      <trkpt lat="44.27742" lon="5.70623">
        <ele>930</ele>
        <time>2021-09-08T13:28:14Z</time>
      </trkpt>
      <trkpt lat="44.27737" lon="5.7064">
        <ele>930.1</ele>
        <time>2021-09-08T13:28:16Z</time>
      </trkpt>
      <trkpt lat="44.27733" lon="5.70657">
        <ele>930.1</ele>
        <time>2021-09-08T13:28:18Z</time>
      </trkpt>
      <trkpt lat="44.2773" lon="5.70672">
        <ele>930</ele>
        <time>2021-09-08T13:28:20Z</time>
      </trkpt>
      <trkpt lat="44.2773" lon="5.70678">
        <ele>930</ele>
        <time>2021-09-08T13:28:21Z</time>
      </trkpt>
      <trkpt lat="44.27729" lon="5.70691">
        <ele>930</ele>
        <time>2021-09-08T13:28:23Z</time>
      </trkpt>
      <trkpt lat="44.27728" lon="5.70697">
        <ele>929.9</ele>
        <time>2021-09-08T13:28:25Z</time>
      </trkpt>
      <trkpt lat="44.27726" lon="5.70701">
        <ele>930</ele>
        <time>2021-09-08T13:28:26Z</time>
      </trkpt>
      <trkpt lat="44.2772" lon="5.70708">
        <ele>930</ele>
        <time>2021-09-08T13:28:28Z</time>
      </trkpt>
      <trkpt lat="44.27716" lon="5.70714">
        <ele>930.1</ele>
        <time>2021-09-08T13:28:29Z</time>
      </trkpt>
      <trkpt lat="44.27707" lon="5.70712">
        <ele>930.3</ele>
        <time>2021-09-08T13:28:31Z</time>
      </trkpt>
      <trkpt lat="44.27702" lon="5.7072">
        <ele>930.4</ele>
        <time>2021-09-08T13:28:32Z</time>
      </trkpt>
      <trkpt lat="44.27698" lon="5.70727">
        <ele>930.4</ele>
        <time>2021-09-08T13:28:34Z</time>
      </trkpt>
      <trkpt lat="44.27695" lon="5.70733">
        <ele>930.5</ele>
        <time>2021-09-08T13:28:35Z</time>
      </trkpt>
      <trkpt lat="44.2769" lon="5.7074">
        <ele>930.5</ele>
        <time>2021-09-08T13:28:36Z</time>
      </trkpt>
      <trkpt lat="44.27685" lon="5.70745">
        <ele>930.5</ele>
        <time>2021-09-08T13:28:38Z</time>
      </trkpt>
      <trkpt lat="44.27679" lon="5.70749">
        <ele>930.8</ele>
        <time>2021-09-08T13:28:39Z</time>
      </trkpt>
      <trkpt lat="44.27674" lon="5.70752">
        <ele>931</ele>
        <time>2021-09-08T13:28:41Z</time>
      </trkpt>
      <trkpt lat="44.27669" lon="5.70755">
        <ele>931.3</ele>
        <time>2021-09-08T13:28:42Z</time>
      </trkpt>
      <trkpt lat="44.27662" lon="5.70756">
        <ele>931.7</ele>
        <time>2021-09-08T13:28:44Z</time>
      </trkpt>
      <trkpt lat="44.27658" lon="5.70755">
        <ele>931.9</ele>
        <time>2021-09-08T13:28:45Z</time>
      </trkpt>
      <trkpt lat="44.27653" lon="5.70756">
        <ele>932.2</ele>
        <time>2021-09-08T13:28:46Z</time>
      </trkpt>
      <trkpt lat="44.27651" lon="5.70758">
        <ele>932.5</ele>
        <time>2021-09-08T13:28:47Z</time>
      </trkpt>
      <trkpt lat="44.27648" lon="5.7076">
        <ele>932.7</ele>
        <time>2021-09-08T13:28:49Z</time>
      </trkpt>
      <trkpt lat="44.27646" lon="5.70763">
        <ele>933.3</ele>
        <time>2021-09-08T13:28:50Z</time>
      </trkpt>
      <trkpt lat="44.27645" lon="5.70768">
        <ele>933.3</ele>
        <time>2021-09-08T13:28:51Z</time>
      </trkpt>
      <trkpt lat="44.27644" lon="5.70773">
        <ele>933.4</ele>
        <time>2021-09-08T13:28:52Z</time>
      </trkpt>
      <trkpt lat="44.27644" lon="5.70779">
        <ele>933.4</ele>
        <time>2021-09-08T13:28:53Z</time>
      </trkpt>
      <trkpt lat="44.27645" lon="5.70784">
        <ele>933.4</ele>
        <time>2021-09-08T13:28:55Z</time>
      </trkpt>
      <trkpt lat="44.27644" lon="5.70788">
        <ele>933.5</ele>
        <time>2021-09-08T13:28:56Z</time>
      </trkpt>
      <trkpt lat="44.27643" lon="5.70793">
        <ele>933.6</ele>
        <time>2021-09-08T13:28:57Z</time>
      </trkpt>
      <trkpt lat="44.27642" lon="5.70798">
        <ele>933.7</ele>
        <time>2021-09-08T13:28:58Z</time>
      </trkpt>
      <trkpt lat="44.27641" lon="5.70802">
        <ele>933.8</ele>
        <time>2021-09-08T13:28:59Z</time>
      </trkpt>
      <trkpt lat="44.2764" lon="5.70806">
        <ele>933.9</ele>
        <time>2021-09-08T13:29:00Z</time>
      </trkpt>
      <trkpt lat="44.27638" lon="5.70812">
        <ele>934.1</ele>
        <time>2021-09-08T13:29:02Z</time>
      </trkpt>
      <trkpt lat="44.27632" lon="5.70819">
        <ele>934.2</ele>
        <time>2021-09-08T13:29:04Z</time>
      </trkpt>
      <trkpt lat="44.27629" lon="5.70824">
        <ele>934.3</ele>
        <time>2021-09-08T13:29:05Z</time>
      </trkpt>
      <trkpt lat="44.27626" lon="5.70829">
        <ele>934.3</ele>
        <time>2021-09-08T13:29:06Z</time>
      </trkpt>
      <trkpt lat="44.27623" lon="5.70834">
        <ele>934.4</ele>
        <time>2021-09-08T13:29:07Z</time>
      </trkpt>
      <trkpt lat="44.2762" lon="5.70838">
        <ele>934.4</ele>
        <time>2021-09-08T13:29:09Z</time>
      </trkpt>
      <trkpt lat="44.27618" lon="5.70843">
        <ele>934.5</ele>
        <time>2021-09-08T13:29:10Z</time>
      </trkpt>
      <trkpt lat="44.27616" lon="5.70849">
        <ele>934.5</ele>
        <time>2021-09-08T13:29:11Z</time>
      </trkpt>
      <trkpt lat="44.27614" lon="5.70854">
        <ele>934.5</ele>
        <time>2021-09-08T13:29:12Z</time>
      </trkpt>
      <trkpt lat="44.27613" lon="5.70861">
        <ele>934.5</ele>
        <time>2021-09-08T13:29:13Z</time>
      </trkpt>
      <trkpt lat="44.27612" lon="5.70866">
        <ele>934.5</ele>
        <time>2021-09-08T13:29:14Z</time>
      </trkpt>
      <trkpt lat="44.27612" lon="5.70873">
        <ele>934.5</ele>
        <time>2021-09-08T13:29:15Z</time>
      </trkpt>
      <trkpt lat="44.27612" lon="5.7088">
        <ele>934.5</ele>
        <time>2021-09-08T13:29:17Z</time>
      </trkpt>
      <trkpt lat="44.27611" lon="5.70887">
        <ele>934.4</ele>
        <time>2021-09-08T13:29:18Z</time>
      </trkpt>
      <trkpt lat="44.27609" lon="5.70895">
        <ele>934.4</ele>
        <time>2021-09-08T13:29:20Z</time>
      </trkpt>
      <trkpt lat="44.27608" lon="5.70899">
        <ele>934.4</ele>
        <time>2021-09-08T13:29:21Z</time>
      </trkpt>
      <trkpt lat="44.27605" lon="5.70904">
        <ele>934.5</ele>
        <time>2021-09-08T13:29:22Z</time>
      </trkpt>
      <trkpt lat="44.27602" lon="5.70907">
        <ele>934.5</ele>
        <time>2021-09-08T13:29:23Z</time>
      </trkpt>
      <trkpt lat="44.27601" lon="5.70908">
        <ele>934.5</ele>
        <time>2021-09-08T13:29:24Z</time>
      </trkpt>
      <trkpt lat="44.27598" lon="5.7091">
        <ele>934.6</ele>
        <time>2021-09-08T13:29:26Z</time>
      </trkpt>
      <trkpt lat="44.27595" lon="5.70914">
        <ele>934.7</ele>
        <time>2021-09-08T13:29:27Z</time>
      </trkpt>
      <trkpt lat="44.27591" lon="5.70917">
        <ele>934.8</ele>
        <time>2021-09-08T13:29:29Z</time>
      </trkpt>
      <trkpt lat="44.27589" lon="5.70917">
        <ele>934.9</ele>
        <time>2021-09-08T13:29:30Z</time>
      </trkpt>
      <trkpt lat="44.27588" lon="5.70917">
        <ele>935</ele>
        <time>2021-09-08T13:29:31Z</time>
      </trkpt>
      <trkpt lat="44.27586" lon="5.70919">
        <ele>935</ele>
        <time>2021-09-08T13:29:32Z</time>
      </trkpt>
      <trkpt lat="44.27585" lon="5.70921">
        <ele>935.1</ele>
        <time>2021-09-08T13:29:34Z</time>
      </trkpt>
      <trkpt lat="44.27583" lon="5.70924">
        <ele>935.2</ele>
        <time>2021-09-08T13:29:35Z</time>
      </trkpt>
      <trkpt lat="44.2758" lon="5.70929">
        <ele>935.4</ele>
        <time>2021-09-08T13:29:37Z</time>
      </trkpt>
      <trkpt lat="44.27579" lon="5.70933">
        <ele>935.5</ele>
        <time>2021-09-08T13:29:38Z</time>
      </trkpt>
      <trkpt lat="44.27579" lon="5.70935">
        <ele>935.5</ele>
        <time>2021-09-08T13:29:39Z</time>
      </trkpt>
      <trkpt lat="44.27579" lon="5.70937">
        <ele>935.6</ele>
        <time>2021-09-08T13:29:40Z</time>
      </trkpt>
      <trkpt lat="44.27579" lon="5.70938">
        <ele>935.6</ele>
        <time>2021-09-08T13:29:41Z</time>
      </trkpt>
      <trkpt lat="44.27578" lon="5.70941">
        <ele>935.7</ele>
        <time>2021-09-08T13:29:43Z</time>
      </trkpt>
      <trkpt lat="44.27578" lon="5.70943">
        <ele>935.7</ele>
        <time>2021-09-08T13:29:44Z</time>
      </trkpt>
      <trkpt lat="44.27576" lon="5.70947">
        <ele>935.8</ele>
        <time>2021-09-08T13:29:46Z</time>
      </trkpt>
      <trkpt lat="44.27576" lon="5.70952">
        <ele>935.8</ele>
        <time>2021-09-08T13:29:47Z</time>
      </trkpt>
      <trkpt lat="44.27576" lon="5.70958">
        <ele>935.9</ele>
        <time>2021-09-08T13:29:49Z</time>
      </trkpt>
      <trkpt lat="44.27577" lon="5.70963">
        <ele>935.9</ele>
        <time>2021-09-08T13:29:50Z</time>
      </trkpt>
      <trkpt lat="44.27579" lon="5.70969">
        <ele>935.9</ele>
        <time>2021-09-08T13:29:51Z</time>
      </trkpt>
      <trkpt lat="44.27581" lon="5.70975">
        <ele>936</ele>
        <time>2021-09-08T13:29:53Z</time>
      </trkpt>
      <trkpt lat="44.27583" lon="5.70982">
        <ele>936</ele>
        <time>2021-09-08T13:29:55Z</time>
      </trkpt>
      <trkpt lat="44.27582" lon="5.7099">
        <ele>936.1</ele>
        <time>2021-09-08T13:29:57Z</time>
      </trkpt>
      <trkpt lat="44.2758" lon="5.70995">
        <ele>936.1</ele>
        <time>2021-09-08T13:29:58Z</time>
      </trkpt>
      <trkpt lat="44.27579" lon="5.71001">
        <ele>936.1</ele>
        <time>2021-09-08T13:29:59Z</time>
      </trkpt>
      <trkpt lat="44.27578" lon="5.71003">
        <ele>936.1</ele>
        <time>2021-09-08T13:30:00Z</time>
      </trkpt>
      <trkpt lat="44.27578" lon="5.71009">
        <ele>936.1</ele>
        <time>2021-09-08T13:30:01Z</time>
      </trkpt>
      <trkpt lat="44.27578" lon="5.71015">
        <ele>936.2</ele>
        <time>2021-09-08T13:30:03Z</time>
      </trkpt>
      <trkpt lat="44.27578" lon="5.71023">
        <ele>936.2</ele>
        <time>2021-09-08T13:30:05Z</time>
      </trkpt>
      <trkpt lat="44.27576" lon="5.71028">
        <ele>936.3</ele>
        <time>2021-09-08T13:30:06Z</time>
      </trkpt>
      <trkpt lat="44.27575" lon="5.71034">
        <ele>936.3</ele>
        <time>2021-09-08T13:30:08Z</time>
      </trkpt>
      <trkpt lat="44.27572" lon="5.71038">
        <ele>936.4</ele>
        <time>2021-09-08T13:30:09Z</time>
      </trkpt>
      <trkpt lat="44.27571" lon="5.71041">
        <ele>936.5</ele>
        <time>2021-09-08T13:30:10Z</time>
      </trkpt>
      <trkpt lat="44.27569" lon="5.71044">
        <ele>936.6</ele>
        <time>2021-09-08T13:30:11Z</time>
      </trkpt>
      <trkpt lat="44.27569" lon="5.71046">
        <ele>936.7</ele>
        <time>2021-09-08T13:30:12Z</time>
      </trkpt>
      <trkpt lat="44.27568" lon="5.71049">
        <ele>936.8</ele>
        <time>2021-09-08T13:30:14Z</time>
      </trkpt>
      <trkpt lat="44.27567" lon="5.71052">
        <ele>936.9</ele>
        <time>2021-09-08T13:30:16Z</time>
      </trkpt>
      <trkpt lat="44.27566" lon="5.71052">
        <ele>937</ele>
        <time>2021-09-08T13:30:17Z</time>
      </trkpt>
      <trkpt lat="44.27564" lon="5.71052">
        <ele>937.1</ele>
        <time>2021-09-08T13:30:19Z</time>
      </trkpt>
      <trkpt lat="44.27564" lon="5.71051">
        <ele>937.1</ele>
        <time>2021-09-08T13:30:20Z</time>
      </trkpt>
      <trkpt lat="44.27563" lon="5.71051">
        <ele>937.2</ele>
        <time>2021-09-08T13:30:21Z</time>
      </trkpt>
      <trkpt lat="44.2756" lon="5.71056">
        <ele>937.5</ele>
        <time>2021-09-08T13:30:23Z</time>
      </trkpt>
      <trkpt lat="44.27557" lon="5.71062">
        <ele>937.8</ele>
        <time>2021-09-08T13:30:25Z</time>
      </trkpt>
      <trkpt lat="44.27555" lon="5.71068">
        <ele>938.2</ele>
        <time>2021-09-08T13:30:27Z</time>
      </trkpt>
      <trkpt lat="44.27553" lon="5.71071">
        <ele>938.4</ele>
        <time>2021-09-08T13:30:28Z</time>
      </trkpt>
      <trkpt lat="44.27549" lon="5.71076">
        <ele>938.8</ele>
        <time>2021-09-08T13:30:30Z</time>
      </trkpt>
      <trkpt lat="44.27547" lon="5.71079">
        <ele>939</ele>
        <time>2021-09-08T13:30:31Z</time>
      </trkpt>
      <trkpt lat="44.27544" lon="5.71083">
        <ele>939.3</ele>
        <time>2021-09-08T13:30:33Z</time>
      </trkpt>
      <trkpt lat="44.27544" lon="5.71085">
        <ele>939.4</ele>
        <time>2021-09-08T13:30:34Z</time>
      </trkpt>
      <trkpt lat="44.27543" lon="5.71086">
        <ele>939.5</ele>
        <time>2021-09-08T13:30:35Z</time>
      </trkpt>
      <trkpt lat="44.27542" lon="5.7109">
        <ele>939.7</ele>
        <time>2021-09-08T13:30:36Z</time>
      </trkpt>
      <trkpt lat="44.27542" lon="5.71092">
        <ele>939.9</ele>
        <time>2021-09-08T13:30:38Z</time>
      </trkpt>
      <trkpt lat="44.27542" lon="5.71094">
        <ele>940</ele>
        <time>2021-09-08T13:30:39Z</time>
      </trkpt>
      <trkpt lat="44.27542" lon="5.71096">
        <ele>940.1</ele>
        <time>2021-09-08T13:30:41Z</time>
      </trkpt>
      <trkpt lat="44.27541" lon="5.71099">
        <ele>940.3</ele>
        <time>2021-09-08T13:30:42Z</time>
      </trkpt>
      <trkpt lat="44.2754" lon="5.71103">
        <ele>940.5</ele>
        <time>2021-09-08T13:30:44Z</time>
      </trkpt>
      <trkpt lat="44.2754" lon="5.71106">
        <ele>940.7</ele>
        <time>2021-09-08T13:30:45Z</time>
      </trkpt>
      <trkpt lat="44.27539" lon="5.71109">
        <ele>940.9</ele>
        <time>2021-09-08T13:30:47Z</time>
      </trkpt>
      <trkpt lat="44.27538" lon="5.71111">
        <ele>941.1</ele>
        <time>2021-09-08T13:30:48Z</time>
      </trkpt>
      <trkpt lat="44.27535" lon="5.71114">
        <ele>941.3</ele>
        <time>2021-09-08T13:30:50Z</time>
      </trkpt>
      <trkpt lat="44.27534" lon="5.71115">
        <ele>941.4</ele>
        <time>2021-09-08T13:30:51Z</time>
      </trkpt>
      <trkpt lat="44.27534" lon="5.71115">
        <ele>941.4</ele>
        <time>2021-09-08T13:30:52Z</time>
      </trkpt>
      <trkpt lat="44.27533" lon="5.71118">
        <ele>941.6</ele>
        <time>2021-09-08T13:30:54Z</time>
      </trkpt>
      <trkpt lat="44.27532" lon="5.71121">
        <ele>941.7</ele>
        <time>2021-09-08T13:30:55Z</time>
      </trkpt>
      <trkpt lat="44.27532" lon="5.71125">
        <ele>941.9</ele>
        <time>2021-09-08T13:30:57Z</time>
      </trkpt>
      <trkpt lat="44.27531" lon="5.7113">
        <ele>942.1</ele>
        <time>2021-09-08T13:30:59Z</time>
      </trkpt>
      <trkpt lat="44.27531" lon="5.71135">
        <ele>942.2</ele>
        <time>2021-09-08T13:31:00Z</time>
      </trkpt>
      <trkpt lat="44.27531" lon="5.71136">
        <ele>942.2</ele>
        <time>2021-09-08T13:31:01Z</time>
      </trkpt>
      <trkpt lat="44.27533" lon="5.71141">
        <ele>942.3</ele>
        <time>2021-09-08T13:31:03Z</time>
      </trkpt>
      <trkpt lat="44.27534" lon="5.71145">
        <ele>942.3</ele>
        <time>2021-09-08T13:31:04Z</time>
      </trkpt>
      <trkpt lat="44.27534" lon="5.71149">
        <ele>942.3</ele>
        <time>2021-09-08T13:31:05Z</time>
      </trkpt>
      <trkpt lat="44.27535" lon="5.71154">
        <ele>942.3</ele>
        <time>2021-09-08T13:31:07Z</time>
      </trkpt>
      <trkpt lat="44.27536" lon="5.71158">
        <ele>942.3</ele>
        <time>2021-09-08T13:31:08Z</time>
      </trkpt>
      <trkpt lat="44.27535" lon="5.71164">
        <ele>942.2</ele>
        <time>2021-09-08T13:31:10Z</time>
      </trkpt>
      <trkpt lat="44.27531" lon="5.71175">
        <ele>942</ele>
        <time>2021-09-08T13:31:12Z</time>
      </trkpt>
      <trkpt lat="44.27528" lon="5.71183">
        <ele>941.8</ele>
        <time>2021-09-08T13:31:13Z</time>
      </trkpt>
      <trkpt lat="44.27526" lon="5.71192">
        <ele>941.6</ele>
        <time>2021-09-08T13:31:15Z</time>
      </trkpt>
      <trkpt lat="44.27527" lon="5.71202">
        <ele>941.4</ele>
        <time>2021-09-08T13:31:16Z</time>
      </trkpt>
      <trkpt lat="44.27529" lon="5.71209">
        <ele>941.2</ele>
        <time>2021-09-08T13:31:18Z</time>
      </trkpt>
      <trkpt lat="44.27531" lon="5.71214">
        <ele>941</ele>
        <time>2021-09-08T13:31:19Z</time>
      </trkpt>
      <trkpt lat="44.27534" lon="5.71222">
        <ele>940.8</ele>
        <time>2021-09-08T13:31:20Z</time>
      </trkpt>
      <trkpt lat="44.27534" lon="5.71231">
        <ele>940.6</ele>
        <time>2021-09-08T13:31:22Z</time>
      </trkpt>
      <trkpt lat="44.27534" lon="5.71236">
        <ele>940.5</ele>
        <time>2021-09-08T13:31:23Z</time>
      </trkpt>
      <trkpt lat="44.27533" lon="5.71245">
        <ele>940.2</ele>
        <time>2021-09-08T13:31:24Z</time>
      </trkpt>
      <trkpt lat="44.27531" lon="5.71251">
        <ele>939.9</ele>
        <time>2021-09-08T13:31:25Z</time>
      </trkpt>
      <trkpt lat="44.27528" lon="5.71266">
        <ele>938.9</ele>
        <time>2021-09-08T13:31:27Z</time>
      </trkpt>
      <trkpt lat="44.27526" lon="5.71274">
        <ele>938.3</ele>
        <time>2021-09-08T13:31:28Z</time>
      </trkpt>
      <trkpt lat="44.27524" lon="5.7129">
        <ele>937.1</ele>
        <time>2021-09-08T13:31:30Z</time>
      </trkpt>
      <trkpt lat="44.27522" lon="5.71297">
        <ele>936.5</ele>
        <time>2021-09-08T13:31:31Z</time>
      </trkpt>
      <trkpt lat="44.27517" lon="5.71308">
        <ele>935.4</ele>
        <time>2021-09-08T13:31:33Z</time>
      </trkpt>
      <trkpt lat="44.27512" lon="5.71316">
        <ele>934.5</ele>
        <time>2021-09-08T13:31:35Z</time>
      </trkpt>
      <trkpt lat="44.27506" lon="5.71327">
        <ele>933.5</ele>
        <time>2021-09-08T13:31:37Z</time>
      </trkpt>
      <trkpt lat="44.27501" lon="5.71333">
        <ele>932.9</ele>
        <time>2021-09-08T13:31:38Z</time>
      </trkpt>
      <trkpt lat="44.27493" lon="5.71344">
        <ele>931.7</ele>
        <time>2021-09-08T13:31:40Z</time>
      </trkpt>
      <trkpt lat="44.2749" lon="5.7135">
        <ele>931.1</ele>
        <time>2021-09-08T13:31:41Z</time>
      </trkpt>
      <trkpt lat="44.27487" lon="5.71356">
        <ele>930.6</ele>
        <time>2021-09-08T13:31:42Z</time>
      </trkpt>
      <trkpt lat="44.27483" lon="5.71362">
        <ele>930</ele>
        <time>2021-09-08T13:31:43Z</time>
      </trkpt>
      <trkpt lat="44.27478" lon="5.71368">
        <ele>929.4</ele>
        <time>2021-09-08T13:31:44Z</time>
      </trkpt>
      <trkpt lat="44.2747" lon="5.71381">
        <ele>928.3</ele>
        <time>2021-09-08T13:31:46Z</time>
      </trkpt>
      <trkpt lat="44.27465" lon="5.71393">
        <ele>927.3</ele>
        <time>2021-09-08T13:31:48Z</time>
      </trkpt>
      <trkpt lat="44.27459" lon="5.71406">
        <ele>926.2</ele>
        <time>2021-09-08T13:31:50Z</time>
      </trkpt>
      <trkpt lat="44.27449" lon="5.71419">
        <ele>924.8</ele>
        <time>2021-09-08T13:31:52Z</time>
      </trkpt>
      <trkpt lat="44.27437" lon="5.71426">
        <ele>923.4</ele>
        <time>2021-09-08T13:31:54Z</time>
      </trkpt>
      <trkpt lat="44.27425" lon="5.71432">
        <ele>921.9</ele>
        <time>2021-09-08T13:31:56Z</time>
      </trkpt>
      <trkpt lat="44.27418" lon="5.71437">
        <ele>921.3</ele>
        <time>2021-09-08T13:31:57Z</time>
      </trkpt>
      <trkpt lat="44.27409" lon="5.71453">
        <ele>919.7</ele>
        <time>2021-09-08T13:31:59Z</time>
      </trkpt>
      <trkpt lat="44.27405" lon="5.71462">
        <ele>919</ele>
        <time>2021-09-08T13:32:00Z</time>
      </trkpt>
      <trkpt lat="44.27403" lon="5.71471">
        <ele>918.3</ele>
        <time>2021-09-08T13:32:01Z</time>
      </trkpt>
      <trkpt lat="44.27399" lon="5.71491">
        <ele>916.9</ele>
        <time>2021-09-08T13:32:03Z</time>
      </trkpt>
      <trkpt lat="44.27396" lon="5.71507">
        <ele>915.7</ele>
        <time>2021-09-08T13:32:05Z</time>
      </trkpt>
      <trkpt lat="44.27395" lon="5.71514">
        <ele>915.2</ele>
        <time>2021-09-08T13:32:06Z</time>
      </trkpt>
      <trkpt lat="44.27392" lon="5.71531">
        <ele>914</ele>
        <time>2021-09-08T13:32:08Z</time>
      </trkpt>
      <trkpt lat="44.27388" lon="5.71549">
        <ele>912.6</ele>
        <time>2021-09-08T13:32:10Z</time>
      </trkpt>
      <trkpt lat="44.27385" lon="5.71558">
        <ele>911.8</ele>
        <time>2021-09-08T13:32:11Z</time>
      </trkpt>
      <trkpt lat="44.27381" lon="5.71566">
        <ele>911</ele>
        <time>2021-09-08T13:32:12Z</time>
      </trkpt>
      <trkpt lat="44.27376" lon="5.71574">
        <ele>910.2</ele>
        <time>2021-09-08T13:32:13Z</time>
      </trkpt>
      <trkpt lat="44.2737" lon="5.71582">
        <ele>909.5</ele>
        <time>2021-09-08T13:32:14Z</time>
      </trkpt>
      <trkpt lat="44.27359" lon="5.71593">
        <ele>908.3</ele>
        <time>2021-09-08T13:32:16Z</time>
      </trkpt>
      <trkpt lat="44.2735" lon="5.71599">
        <ele>907.5</ele>
        <time>2021-09-08T13:32:18Z</time>
      </trkpt>
      <trkpt lat="44.27348" lon="5.716">
        <ele>907.2</ele>
        <time>2021-09-08T13:32:19Z</time>
      </trkpt>
      <trkpt lat="44.27347" lon="5.71601">
        <ele>907.2</ele>
        <time>2021-09-08T13:32:20Z</time>
      </trkpt>
      <trkpt lat="44.27344" lon="5.716">
        <ele>907</ele>
        <time>2021-09-08T13:32:22Z</time>
      </trkpt>
      <trkpt lat="44.27343" lon="5.71599">
        <ele>906.8</ele>
        <time>2021-09-08T13:32:24Z</time>
      </trkpt>
      <trkpt lat="44.27343" lon="5.71599">
        <ele>906.8</ele>
        <time>2021-09-08T13:32:25Z</time>
      </trkpt>
      <trkpt lat="44.27343" lon="5.71599">
        <ele>906.8</ele>
        <time>2021-09-08T13:32:26Z</time>
      </trkpt>
      <trkpt lat="44.27343" lon="5.71599">
        <ele>906.8</ele>
        <time>2021-09-08T13:32:28Z</time>
      </trkpt>
      <trkpt lat="44.27343" lon="5.71599">
        <ele>906.8</ele>
        <time>2021-09-08T13:32:29Z</time>
      </trkpt>
      <trkpt lat="44.27344" lon="5.71599">
        <ele>906.8</ele>
        <time>2021-09-08T13:32:30Z</time>
      </trkpt>
      <trkpt lat="44.27344" lon="5.71599">
        <ele>906.8</ele>
        <time>2021-09-08T13:32:32Z</time>
      </trkpt>
      <trkpt lat="44.27333" lon="5.7161">
        <ele>905.4</ele>
        <time>2021-09-08T13:32:46Z</time>
      </trkpt>
      <trkpt lat="44.2733" lon="5.71613">
        <ele>905.6</ele>
        <time>2021-09-08T13:32:47Z</time>
      </trkpt>
      <trkpt lat="44.27328" lon="5.71613">
        <ele>905.7</ele>
        <time>2021-09-08T13:32:48Z</time>
      </trkpt>
      <trkpt lat="44.27325" lon="5.71612">
        <ele>905.9</ele>
        <time>2021-09-08T13:32:50Z</time>
      </trkpt>
      <trkpt lat="44.27324" lon="5.7161">
        <ele>906</ele>
        <time>2021-09-08T13:32:51Z</time>
      </trkpt>
      <trkpt lat="44.27324" lon="5.71609">
        <ele>906.1</ele>
        <time>2021-09-08T13:32:52Z</time>
      </trkpt>
      <trkpt lat="44.27324" lon="5.71609">
        <ele>906.1</ele>
        <time>2021-09-08T13:32:53Z</time>
      </trkpt>
      <trkpt lat="44.27325" lon="5.71608">
        <ele>906.1</ele>
        <time>2021-09-08T13:32:55Z</time>
      </trkpt>
      <trkpt lat="44.27325" lon="5.71608">
        <ele>906.2</ele>
        <time>2021-09-08T13:32:56Z</time>
      </trkpt>
      <trkpt lat="44.27326" lon="5.71606">
        <ele>906.3</ele>
        <time>2021-09-08T13:32:57Z</time>
      </trkpt>
      <trkpt lat="44.27346" lon="5.71589">
        <ele>908.1</ele>
        <time>2021-09-08T13:33:02Z</time>
      </trkpt>
      <trkpt lat="44.27351" lon="5.71584">
        <ele>908.5</ele>
        <time>2021-09-08T13:33:03Z</time>
      </trkpt>
      <trkpt lat="44.27355" lon="5.7158">
        <ele>908.9</ele>
        <time>2021-09-08T13:33:05Z</time>
      </trkpt>
      <trkpt lat="44.27358" lon="5.71578">
        <ele>909.1</ele>
        <time>2021-09-08T13:33:06Z</time>
      </trkpt>
      <trkpt lat="44.27361" lon="5.71574">
        <ele>909.5</ele>
        <time>2021-09-08T13:33:07Z</time>
      </trkpt>
      <trkpt lat="44.27363" lon="5.7157">
        <ele>909.6</ele>
        <time>2021-09-08T13:33:08Z</time>
      </trkpt>
      <trkpt lat="44.27364" lon="5.71566">
        <ele>909.9</ele>
        <time>2021-09-08T13:33:10Z</time>
      </trkpt>
      <trkpt lat="44.27365" lon="5.71563">
        <ele>910.1</ele>
        <time>2021-09-08T13:33:11Z</time>
      </trkpt>
      <trkpt lat="44.27367" lon="5.71562">
        <ele>910.2</ele>
        <time>2021-09-08T13:33:13Z</time>
      </trkpt>
      <trkpt lat="44.27371" lon="5.71563">
        <ele>910.5</ele>
        <time>2021-09-08T13:33:15Z</time>
      </trkpt>
      <trkpt lat="44.27372" lon="5.71567">
        <ele>910.4</ele>
        <time>2021-09-08T13:33:16Z</time>
      </trkpt>
      <trkpt lat="44.27371" lon="5.71576">
        <ele>909.8</ele>
        <time>2021-09-08T13:33:18Z</time>
      </trkpt>
      <trkpt lat="44.2737" lon="5.71581">
        <ele>909.4</ele>
        <time>2021-09-08T13:33:19Z</time>
      </trkpt>
      <trkpt lat="44.27367" lon="5.71587">
        <ele>908.8</ele>
        <time>2021-09-08T13:33:20Z</time>
      </trkpt>
      <trkpt lat="44.27365" lon="5.71595">
        <ele>908.3</ele>
        <time>2021-09-08T13:33:21Z</time>
      </trkpt>
      <trkpt lat="44.27362" lon="5.71603">
        <ele>907.6</ele>
        <time>2021-09-08T13:33:23Z</time>
      </trkpt>
      <trkpt lat="44.27359" lon="5.71608">
        <ele>907.1</ele>
        <time>2021-09-08T13:33:24Z</time>
      </trkpt>
      <trkpt lat="44.27357" lon="5.71614">
        <ele>906.6</ele>
        <time>2021-09-08T13:33:25Z</time>
      </trkpt>
      <trkpt lat="44.27355" lon="5.71619">
        <ele>906.2</ele>
        <time>2021-09-08T13:33:27Z</time>
      </trkpt>
      <trkpt lat="44.27353" lon="5.71623">
        <ele>905.9</ele>
        <time>2021-09-08T13:33:28Z</time>
      </trkpt>
      <trkpt lat="44.27351" lon="5.71628">
        <ele>905.5</ele>
        <time>2021-09-08T13:33:29Z</time>
      </trkpt>
      <trkpt lat="44.27349" lon="5.71633">
        <ele>905.2</ele>
        <time>2021-09-08T13:33:30Z</time>
      </trkpt>
      <trkpt lat="44.27348" lon="5.71637">
        <ele>905</ele>
        <time>2021-09-08T13:33:32Z</time>
      </trkpt>
      <trkpt lat="44.27347" lon="5.71639">
        <ele>904.8</ele>
        <time>2021-09-08T13:33:33Z</time>
      </trkpt>
      <trkpt lat="44.27346" lon="5.71641">
        <ele>904.7</ele>
        <time>2021-09-08T13:33:34Z</time>
      </trkpt>
      <trkpt lat="44.27345" lon="5.71645">
        <ele>904.4</ele>
        <time>2021-09-08T13:33:36Z</time>
      </trkpt>
      <trkpt lat="44.27345" lon="5.71649">
        <ele>904.1</ele>
        <time>2021-09-08T13:33:37Z</time>
      </trkpt>
      <trkpt lat="44.27343" lon="5.71655">
        <ele>903.6</ele>
        <time>2021-09-08T13:33:39Z</time>
      </trkpt>
      <trkpt lat="44.27342" lon="5.71658">
        <ele>903.2</ele>
        <time>2021-09-08T13:33:40Z</time>
      </trkpt>
      <trkpt lat="44.27341" lon="5.71661">
        <ele>903</ele>
        <time>2021-09-08T13:33:41Z</time>
      </trkpt>
      <trkpt lat="44.27339" lon="5.71664">
        <ele>902.6</ele>
        <time>2021-09-08T13:33:43Z</time>
      </trkpt>
      <trkpt lat="44.27339" lon="5.71665">
        <ele>902.5</ele>
        <time>2021-09-08T13:33:44Z</time>
      </trkpt>
      <trkpt lat="44.27337" lon="5.71667">
        <ele>902.2</ele>
        <time>2021-09-08T13:33:45Z</time>
      </trkpt>
      <trkpt lat="44.27335" lon="5.71671">
        <ele>901.8</ele>
        <time>2021-09-08T13:33:46Z</time>
      </trkpt>
      <trkpt lat="44.27335" lon="5.71673">
        <ele>901.6</ele>
        <time>2021-09-08T13:33:47Z</time>
      </trkpt>
      <trkpt lat="44.27332" lon="5.71677">
        <ele>901.1</ele>
        <time>2021-09-08T13:33:49Z</time>
      </trkpt>
      <trkpt lat="44.27331" lon="5.71678">
        <ele>900.9</ele>
        <time>2021-09-08T13:33:50Z</time>
      </trkpt>
      <trkpt lat="44.27329" lon="5.71684">
        <ele>900.4</ele>
        <time>2021-09-08T13:33:51Z</time>
      </trkpt>
      <trkpt lat="44.27326" lon="5.71688">
        <ele>899.8</ele>
        <time>2021-09-08T13:33:52Z</time>
      </trkpt>
      <trkpt lat="44.27323" lon="5.71692">
        <ele>899.3</ele>
        <time>2021-09-08T13:33:53Z</time>
      </trkpt>
      <trkpt lat="44.2732" lon="5.71699">
        <ele>898.6</ele>
        <time>2021-09-08T13:33:55Z</time>
      </trkpt>
      <trkpt lat="44.27317" lon="5.71705">
        <ele>898.1</ele>
        <time>2021-09-08T13:33:56Z</time>
      </trkpt>
      <trkpt lat="44.27314" lon="5.71708">
        <ele>897.8</ele>
        <time>2021-09-08T13:33:57Z</time>
      </trkpt>
      <trkpt lat="44.2731" lon="5.71713">
        <ele>897.3</ele>
        <time>2021-09-08T13:33:58Z</time>
      </trkpt>
      <trkpt lat="44.27306" lon="5.71719">
        <ele>896.8</ele>
        <time>2021-09-08T13:34:00Z</time>
      </trkpt>
      <trkpt lat="44.27302" lon="5.71722">
        <ele>896.5</ele>
        <time>2021-09-08T13:34:01Z</time>
      </trkpt>
      <trkpt lat="44.27298" lon="5.71725">
        <ele>896.2</ele>
        <time>2021-09-08T13:34:02Z</time>
      </trkpt>
      <trkpt lat="44.27295" lon="5.71729">
        <ele>895.9</ele>
        <time>2021-09-08T13:34:03Z</time>
      </trkpt>
      <trkpt lat="44.27291" lon="5.71735">
        <ele>895.5</ele>
        <time>2021-09-08T13:34:04Z</time>
      </trkpt>
      <trkpt lat="44.27289" lon="5.7174">
        <ele>895.1</ele>
        <time>2021-09-08T13:34:06Z</time>
      </trkpt>
      <trkpt lat="44.27286" lon="5.71746">
        <ele>894.7</ele>
        <time>2021-09-08T13:34:07Z</time>
      </trkpt>
      <trkpt lat="44.27283" lon="5.71749">
        <ele>894.4</ele>
        <time>2021-09-08T13:34:08Z</time>
      </trkpt>
      <trkpt lat="44.27278" lon="5.71756">
        <ele>893.9</ele>
        <time>2021-09-08T13:34:09Z</time>
      </trkpt>
      <trkpt lat="44.27269" lon="5.71765">
        <ele>893</ele>
        <time>2021-09-08T13:34:11Z</time>
      </trkpt>
      <trkpt lat="44.27265" lon="5.71771">
        <ele>892.6</ele>
        <time>2021-09-08T13:34:12Z</time>
      </trkpt>
      <trkpt lat="44.27253" lon="5.7178">
        <ele>891.6</ele>
        <time>2021-09-08T13:34:14Z</time>
      </trkpt>
      <trkpt lat="44.27248" lon="5.71784">
        <ele>891.3</ele>
        <time>2021-09-08T13:34:15Z</time>
      </trkpt>
      <trkpt lat="44.27244" lon="5.71788">
        <ele>891</ele>
        <time>2021-09-08T13:34:16Z</time>
      </trkpt>
      <trkpt lat="44.27239" lon="5.71793">
        <ele>890.7</ele>
        <time>2021-09-08T13:34:17Z</time>
      </trkpt>
      <trkpt lat="44.27234" lon="5.71798">
        <ele>890.4</ele>
        <time>2021-09-08T13:34:19Z</time>
      </trkpt>
      <trkpt lat="44.27231" lon="5.718">
        <ele>890.2</ele>
        <time>2021-09-08T13:34:20Z</time>
      </trkpt>
      <trkpt lat="44.27227" lon="5.71804">
        <ele>890</ele>
        <time>2021-09-08T13:34:21Z</time>
      </trkpt>
      <trkpt lat="44.27223" lon="5.71807">
        <ele>889.8</ele>
        <time>2021-09-08T13:34:23Z</time>
      </trkpt>
      <trkpt lat="44.27219" lon="5.71809">
        <ele>889.6</ele>
        <time>2021-09-08T13:34:24Z</time>
      </trkpt>
      <trkpt lat="44.27217" lon="5.71811">
        <ele>889.4</ele>
        <time>2021-09-08T13:34:25Z</time>
      </trkpt>
      <trkpt lat="44.27213" lon="5.71812">
        <ele>889.2</ele>
        <time>2021-09-08T13:34:26Z</time>
      </trkpt>
      <trkpt lat="44.27208" lon="5.71814">
        <ele>888.9</ele>
        <time>2021-09-08T13:34:28Z</time>
      </trkpt>
      <trkpt lat="44.27202" lon="5.71818">
        <ele>888.4</ele>
        <time>2021-09-08T13:34:29Z</time>
      </trkpt>
      <trkpt lat="44.27196" lon="5.71821">
        <ele>887.8</ele>
        <time>2021-09-08T13:34:31Z</time>
      </trkpt>
      <trkpt lat="44.27192" lon="5.71824">
        <ele>887.4</ele>
        <time>2021-09-08T13:34:32Z</time>
      </trkpt>
      <trkpt lat="44.27189" lon="5.71827">
        <ele>887</ele>
        <time>2021-09-08T13:34:34Z</time>
      </trkpt>
      <trkpt lat="44.27186" lon="5.71829">
        <ele>886.6</ele>
        <time>2021-09-08T13:34:35Z</time>
      </trkpt>
      <trkpt lat="44.27185" lon="5.71829">
        <ele>886.4</ele>
        <time>2021-09-08T13:34:36Z</time>
      </trkpt>
      <trkpt lat="44.27181" lon="5.7183">
        <ele>886</ele>
        <time>2021-09-08T13:34:37Z</time>
      </trkpt>
      <trkpt lat="44.27177" lon="5.7183">
        <ele>885.6</ele>
        <time>2021-09-08T13:34:39Z</time>
      </trkpt>
      <trkpt lat="44.27172" lon="5.7183">
        <ele>885.1</ele>
        <time>2021-09-08T13:34:41Z</time>
      </trkpt>
      <trkpt lat="44.27168" lon="5.7183">
        <ele>884.7</ele>
        <time>2021-09-08T13:34:43Z</time>
      </trkpt>
      <trkpt lat="44.27166" lon="5.7183">
        <ele>884.4</ele>
        <time>2021-09-08T13:34:44Z</time>
      </trkpt>
      <trkpt lat="44.27162" lon="5.71834">
        <ele>883.9</ele>
        <time>2021-09-08T13:34:46Z</time>
      </trkpt>
      <trkpt lat="44.27158" lon="5.71835">
        <ele>883.5</ele>
        <time>2021-09-08T13:34:47Z</time>
      </trkpt>
      <trkpt lat="44.27155" lon="5.71835">
        <ele>883</ele>
        <time>2021-09-08T13:34:48Z</time>
      </trkpt>
      <trkpt lat="44.27151" lon="5.71835">
        <ele>882.5</ele>
        <time>2021-09-08T13:34:49Z</time>
      </trkpt>
      <trkpt lat="44.27148" lon="5.71834">
        <ele>882.1</ele>
        <time>2021-09-08T13:34:50Z</time>
      </trkpt>
      <trkpt lat="44.27143" lon="5.71834">
        <ele>881.5</ele>
        <time>2021-09-08T13:34:52Z</time>
      </trkpt>
      <trkpt lat="44.27142" lon="5.71834">
        <ele>881.4</ele>
        <time>2021-09-08T13:34:53Z</time>
      </trkpt>
      <trkpt lat="44.27141" lon="5.71834">
        <ele>881.2</ele>
        <time>2021-09-08T13:34:54Z</time>
      </trkpt>
      <trkpt lat="44.2714" lon="5.71834">
        <ele>881.1</ele>
        <time>2021-09-08T13:34:55Z</time>
      </trkpt>
      <trkpt lat="44.27138" lon="5.71834">
        <ele>880.9</ele>
        <time>2021-09-08T13:34:56Z</time>
      </trkpt>
      <trkpt lat="44.27135" lon="5.71836">
        <ele>880.5</ele>
        <time>2021-09-08T13:34:58Z</time>
      </trkpt>
      <trkpt lat="44.27133" lon="5.71837">
        <ele>880.4</ele>
        <time>2021-09-08T13:34:59Z</time>
      </trkpt>
      <trkpt lat="44.27131" lon="5.71837">
        <ele>880.1</ele>
        <time>2021-09-08T13:35:00Z</time>
      </trkpt>
      <trkpt lat="44.27127" lon="5.71837">
        <ele>879.7</ele>
        <time>2021-09-08T13:35:01Z</time>
      </trkpt>
      <trkpt lat="44.27123" lon="5.71837">
        <ele>879.3</ele>
        <time>2021-09-08T13:35:03Z</time>
      </trkpt>
      <trkpt lat="44.2712" lon="5.71834">
        <ele>879</ele>
        <time>2021-09-08T13:35:04Z</time>
      </trkpt>
      <trkpt lat="44.27119" lon="5.71833">
        <ele>878.9</ele>
        <time>2021-09-08T13:35:05Z</time>
      </trkpt>
      <trkpt lat="44.27118" lon="5.7183">
        <ele>878.6</ele>
        <time>2021-09-08T13:35:06Z</time>
      </trkpt>
      <trkpt lat="44.27113" lon="5.71827">
        <ele>878.1</ele>
        <time>2021-09-08T13:35:08Z</time>
      </trkpt>
      <trkpt lat="44.27108" lon="5.71828">
        <ele>877.6</ele>
        <time>2021-09-08T13:35:10Z</time>
      </trkpt>
      <trkpt lat="44.27105" lon="5.71831">
        <ele>877.2</ele>
        <time>2021-09-08T13:35:11Z</time>
      </trkpt>
      <trkpt lat="44.27104" lon="5.71832">
        <ele>877.1</ele>
        <time>2021-09-08T13:35:12Z</time>
      </trkpt>
      <trkpt lat="44.27103" lon="5.71835">
        <ele>876.9</ele>
        <time>2021-09-08T13:35:13Z</time>
      </trkpt>
      <trkpt lat="44.27098" lon="5.7184">
        <ele>876.4</ele>
        <time>2021-09-08T13:35:15Z</time>
      </trkpt>
      <trkpt lat="44.27092" lon="5.71845">
        <ele>876</ele>
        <time>2021-09-08T13:35:16Z</time>
      </trkpt>
      <trkpt lat="44.27083" lon="5.71852">
        <ele>875.4</ele>
        <time>2021-09-08T13:35:18Z</time>
      </trkpt>
      <trkpt lat="44.27078" lon="5.71853">
        <ele>874.9</ele>
        <time>2021-09-08T13:35:19Z</time>
      </trkpt>
      <trkpt lat="44.2707" lon="5.71858">
        <ele>873.7</ele>
        <time>2021-09-08T13:35:21Z</time>
      </trkpt>
      <trkpt lat="44.27067" lon="5.71863">
        <ele>872.7</ele>
        <time>2021-09-08T13:35:22Z</time>
      </trkpt>
      <trkpt lat="44.27063" lon="5.71868">
        <ele>871.5</ele>
        <time>2021-09-08T13:35:23Z</time>
      </trkpt>
      <trkpt lat="44.27059" lon="5.71873">
        <ele>870.1</ele>
        <time>2021-09-08T13:35:24Z</time>
      </trkpt>
      <trkpt lat="44.27057" lon="5.71878">
        <ele>869.1</ele>
        <time>2021-09-08T13:35:26Z</time>
      </trkpt>
      <trkpt lat="44.27054" lon="5.71882">
        <ele>868</ele>
        <time>2021-09-08T13:35:27Z</time>
      </trkpt>
      <trkpt lat="44.27051" lon="5.71884">
        <ele>867.3</ele>
        <time>2021-09-08T13:35:28Z</time>
      </trkpt>
      <trkpt lat="44.27047" lon="5.71885">
        <ele>866.3</ele>
        <time>2021-09-08T13:35:30Z</time>
      </trkpt>
      <trkpt lat="44.27044" lon="5.71886">
        <ele>865.7</ele>
        <time>2021-09-08T13:35:31Z</time>
      </trkpt>
      <trkpt lat="44.27042" lon="5.71885">
        <ele>864.9</ele>
        <time>2021-09-08T13:35:33Z</time>
      </trkpt>
      <trkpt lat="44.2704" lon="5.71885">
        <ele>864.5</ele>
        <time>2021-09-08T13:35:34Z</time>
      </trkpt>
      <trkpt lat="44.27039" lon="5.71886">
        <ele>864.1</ele>
        <time>2021-09-08T13:35:35Z</time>
      </trkpt>
      <trkpt lat="44.27036" lon="5.71887">
        <ele>863.4</ele>
        <time>2021-09-08T13:35:36Z</time>
      </trkpt>
      <trkpt lat="44.27035" lon="5.71887">
        <ele>863.2</ele>
        <time>2021-09-08T13:35:37Z</time>
      </trkpt>
      <trkpt lat="44.27031" lon="5.71888">
        <ele>862.4</ele>
        <time>2021-09-08T13:35:39Z</time>
      </trkpt>
      <trkpt lat="44.2703" lon="5.71888">
        <ele>862.1</ele>
        <time>2021-09-08T13:35:40Z</time>
      </trkpt>
      <trkpt lat="44.27028" lon="5.7189">
        <ele>861.5</ele>
        <time>2021-09-08T13:35:42Z</time>
      </trkpt>
      <trkpt lat="44.27027" lon="5.71892">
        <ele>861.1</ele>
        <time>2021-09-08T13:35:44Z</time>
      </trkpt>
      <trkpt lat="44.27027" lon="5.71893">
        <ele>861</ele>
        <time>2021-09-08T13:35:45Z</time>
      </trkpt>
      <trkpt lat="44.27027" lon="5.71893">
        <ele>861</ele>
        <time>2021-09-08T13:35:46Z</time>
      </trkpt>
      <trkpt lat="44.27024" lon="5.71896">
        <ele>860.3</ele>
        <time>2021-09-08T13:35:48Z</time>
      </trkpt>
      <trkpt lat="44.27021" lon="5.71898">
        <ele>859.7</ele>
        <time>2021-09-08T13:35:49Z</time>
      </trkpt>
      <trkpt lat="44.27016" lon="5.71902">
        <ele>858.7</ele>
        <time>2021-09-08T13:35:51Z</time>
      </trkpt>
      <trkpt lat="44.27012" lon="5.71905">
        <ele>858</ele>
        <time>2021-09-08T13:35:52Z</time>
      </trkpt>
      <trkpt lat="44.27" lon="5.71913">
        <ele>856</ele>
        <time>2021-09-08T13:35:53Z</time>
      </trkpt>
      <trkpt lat="44.26992" lon="5.71918">
        <ele>855.1</ele>
        <time>2021-09-08T13:35:54Z</time>
      </trkpt>
      <trkpt lat="44.26983" lon="5.71924">
        <ele>854.3</ele>
        <time>2021-09-08T13:35:55Z</time>
      </trkpt>
      <trkpt lat="44.26973" lon="5.71928">
        <ele>853.6</ele>
        <time>2021-09-08T13:35:56Z</time>
      </trkpt>
      <trkpt lat="44.26956" lon="5.71938">
        <ele>852.2</ele>
        <time>2021-09-08T13:35:58Z</time>
      </trkpt>
      <trkpt lat="44.26948" lon="5.71942">
        <ele>851.5</ele>
        <time>2021-09-08T13:35:59Z</time>
      </trkpt>
      <trkpt lat="44.26939" lon="5.71945">
        <ele>851</ele>
        <time>2021-09-08T13:36:00Z</time>
      </trkpt>
      <trkpt lat="44.2693" lon="5.71948">
        <ele>850.5</ele>
        <time>2021-09-08T13:36:01Z</time>
      </trkpt>
      <trkpt lat="44.26925" lon="5.71949">
        <ele>850.3</ele>
        <time>2021-09-08T13:36:02Z</time>
      </trkpt>
      <trkpt lat="44.26922" lon="5.7195">
        <ele>850.2</ele>
        <time>2021-09-08T13:36:03Z</time>
      </trkpt>
      <trkpt lat="44.26918" lon="5.71951">
        <ele>850.1</ele>
        <time>2021-09-08T13:36:04Z</time>
      </trkpt>
      <trkpt lat="44.26914" lon="5.71953">
        <ele>849.9</ele>
        <time>2021-09-08T13:36:06Z</time>
      </trkpt>
      <trkpt lat="44.26914" lon="5.71952">
        <ele>849.9</ele>
        <time>2021-09-08T13:36:07Z</time>
      </trkpt>
      <trkpt lat="44.26916" lon="5.7195">
        <ele>849.8</ele>
        <time>2021-09-08T13:36:09Z</time>
      </trkpt>
      <trkpt lat="44.26919" lon="5.71949">
        <ele>849.7</ele>
        <time>2021-09-08T13:36:11Z</time>
      </trkpt>
      <trkpt lat="44.26919" lon="5.71949">
        <ele>849.7</ele>
        <time>2021-09-08T13:36:12Z</time>
      </trkpt>
      <trkpt lat="44.26919" lon="5.71949">
        <ele>849.7</ele>
        <time>2021-09-08T13:36:14Z</time>
      </trkpt>
      <trkpt lat="44.26919" lon="5.71949">
        <ele>849.7</ele>
        <time>2021-09-08T13:36:15Z</time>
      </trkpt>
      <trkpt lat="44.26919" lon="5.71949">
        <ele>849.7</ele>
        <time>2021-09-08T13:36:16Z</time>
      </trkpt>
      <trkpt lat="44.2692" lon="5.71949">
        <ele>849.7</ele>
        <time>2021-09-08T13:36:18Z</time>
      </trkpt>
      <trkpt lat="44.26923" lon="5.71947">
        <ele>849.5</ele>
        <time>2021-09-08T13:36:32Z</time>
      </trkpt>
      <trkpt lat="44.2692" lon="5.71945">
        <ele>849.3</ele>
        <time>2021-09-08T13:36:33Z</time>
      </trkpt>
      <trkpt lat="44.26919" lon="5.71944">
        <ele>849.1</ele>
        <time>2021-09-08T13:36:34Z</time>
      </trkpt>
      <trkpt lat="44.26917" lon="5.71941">
        <ele>848.9</ele>
        <time>2021-09-08T13:36:36Z</time>
      </trkpt>
      <trkpt lat="44.26914" lon="5.71936">
        <ele>848.5</ele>
        <time>2021-09-08T13:36:38Z</time>
      </trkpt>
      <trkpt lat="44.26913" lon="5.71936">
        <ele>848.4</ele>
        <time>2021-09-08T13:36:40Z</time>
      </trkpt>
      <trkpt lat="44.26913" lon="5.71935">
        <ele>848.3</ele>
        <time>2021-09-08T13:36:42Z</time>
      </trkpt>
      <trkpt lat="44.26913" lon="5.71934">
        <ele>848.2</ele>
        <time>2021-09-08T13:36:44Z</time>
      </trkpt>
      <trkpt lat="44.26896" lon="5.71942">
        <ele>847.2</ele>
        <time>2021-09-08T13:36:54Z</time>
      </trkpt>
      <trkpt lat="44.26893" lon="5.71946">
        <ele>846.6</ele>
        <time>2021-09-08T13:36:55Z</time>
      </trkpt>
      <trkpt lat="44.26887" lon="5.71955">
        <ele>845.6</ele>
        <time>2021-09-08T13:36:56Z</time>
      </trkpt>
      <trkpt lat="44.26883" lon="5.71961">
        <ele>844.8</ele>
        <time>2021-09-08T13:36:58Z</time>
      </trkpt>
      <trkpt lat="44.2688" lon="5.71968">
        <ele>843.8</ele>
        <time>2021-09-08T13:36:59Z</time>
      </trkpt>
      <trkpt lat="44.2688" lon="5.71973">
        <ele>843</ele>
        <time>2021-09-08T13:37:00Z</time>
      </trkpt>
      <trkpt lat="44.2688" lon="5.7198">
        <ele>842.2</ele>
        <time>2021-09-08T13:37:01Z</time>
      </trkpt>
      <trkpt lat="44.2688" lon="5.71986">
        <ele>841.3</ele>
        <time>2021-09-08T13:37:02Z</time>
      </trkpt>
      <trkpt lat="44.26881" lon="5.71992">
        <ele>840.6</ele>
        <time>2021-09-08T13:37:03Z</time>
      </trkpt>
      <trkpt lat="44.2688" lon="5.71999">
        <ele>839.8</ele>
        <time>2021-09-08T13:37:05Z</time>
      </trkpt>
      <trkpt lat="44.26879" lon="5.72004">
        <ele>839.4</ele>
        <time>2021-09-08T13:37:06Z</time>
      </trkpt>
      <trkpt lat="44.2688" lon="5.72009">
        <ele>838.9</ele>
        <time>2021-09-08T13:37:07Z</time>
      </trkpt>
      <trkpt lat="44.26881" lon="5.72013">
        <ele>838.7</ele>
        <time>2021-09-08T13:37:08Z</time>
      </trkpt>
      <trkpt lat="44.26883" lon="5.72013">
        <ele>838.6</ele>
        <time>2021-09-08T13:37:09Z</time>
      </trkpt>
      <trkpt lat="44.26887" lon="5.7202">
        <ele>838.2</ele>
        <time>2021-09-08T13:37:11Z</time>
      </trkpt>
      <trkpt lat="44.26895" lon="5.72027">
        <ele>837.6</ele>
        <time>2021-09-08T13:37:13Z</time>
      </trkpt>
      <trkpt lat="44.26904" lon="5.72031">
        <ele>837</ele>
        <time>2021-09-08T13:37:15Z</time>
      </trkpt>
      <trkpt lat="44.26908" lon="5.72037">
        <ele>836.5</ele>
        <time>2021-09-08T13:37:16Z</time>
      </trkpt>
      <trkpt lat="44.26912" lon="5.72043">
        <ele>836.1</ele>
        <time>2021-09-08T13:37:17Z</time>
      </trkpt>
      <trkpt lat="44.26915" lon="5.72048">
        <ele>835.8</ele>
        <time>2021-09-08T13:37:18Z</time>
      </trkpt>
      <trkpt lat="44.26917" lon="5.72058">
        <ele>835.3</ele>
        <time>2021-09-08T13:37:19Z</time>
      </trkpt>
      <trkpt lat="44.26919" lon="5.72066">
        <ele>835</ele>
        <time>2021-09-08T13:37:21Z</time>
      </trkpt>
      <trkpt lat="44.2692" lon="5.72073">
        <ele>834.8</ele>
        <time>2021-09-08T13:37:22Z</time>
      </trkpt>
      <trkpt lat="44.26921" lon="5.72082">
        <ele>834.4</ele>
        <time>2021-09-08T13:37:24Z</time>
      </trkpt>
      <trkpt lat="44.26921" lon="5.72087">
        <ele>834.3</ele>
        <time>2021-09-08T13:37:25Z</time>
      </trkpt>
      <trkpt lat="44.26921" lon="5.72091">
        <ele>834.1</ele>
        <time>2021-09-08T13:37:26Z</time>
      </trkpt>
      <trkpt lat="44.26922" lon="5.72098">
        <ele>833.9</ele>
        <time>2021-09-08T13:37:27Z</time>
      </trkpt>
      <trkpt lat="44.26921" lon="5.72103">
        <ele>833.7</ele>
        <time>2021-09-08T13:37:28Z</time>
      </trkpt>
      <trkpt lat="44.2692" lon="5.72109">
        <ele>833.5</ele>
        <time>2021-09-08T13:37:30Z</time>
      </trkpt>
      <trkpt lat="44.26921" lon="5.72118">
        <ele>833.2</ele>
        <time>2021-09-08T13:37:32Z</time>
      </trkpt>
      <trkpt lat="44.2692" lon="5.72121">
        <ele>833</ele>
        <time>2021-09-08T13:37:33Z</time>
      </trkpt>
      <trkpt lat="44.2692" lon="5.72122">
        <ele>833</ele>
        <time>2021-09-08T13:37:34Z</time>
      </trkpt>
      <trkpt lat="44.26919" lon="5.72125">
        <ele>832.8</ele>
        <time>2021-09-08T13:37:36Z</time>
      </trkpt>
      <trkpt lat="44.2692" lon="5.72128">
        <ele>832.7</ele>
        <time>2021-09-08T13:37:37Z</time>
      </trkpt>
      <trkpt lat="44.26923" lon="5.72133">
        <ele>832.4</ele>
        <time>2021-09-08T13:37:39Z</time>
      </trkpt>
      <trkpt lat="44.26924" lon="5.72155">
        <ele>831</ele>
        <time>2021-09-08T13:37:41Z</time>
      </trkpt>
      <trkpt lat="44.26923" lon="5.72173">
        <ele>829.8</ele>
        <time>2021-09-08T13:37:42Z</time>
      </trkpt>
      <trkpt lat="44.26923" lon="5.72191">
        <ele>828.4</ele>
        <time>2021-09-08T13:37:43Z</time>
      </trkpt>
      <trkpt lat="44.26924" lon="5.72217">
        <ele>826.5</ele>
        <time>2021-09-08T13:37:45Z</time>
      </trkpt>
      <trkpt lat="44.26924" lon="5.72228">
        <ele>825.9</ele>
        <time>2021-09-08T13:37:46Z</time>
      </trkpt>
      <trkpt lat="44.26925" lon="5.72247">
        <ele>824.7</ele>
        <time>2021-09-08T13:37:48Z</time>
      </trkpt>
      <trkpt lat="44.26925" lon="5.72266">
        <ele>821.7</ele>
        <time>2021-09-08T13:37:50Z</time>
      </trkpt>
      <trkpt lat="44.26925" lon="5.72286">
        <ele>818.6</ele>
        <time>2021-09-08T13:37:52Z</time>
      </trkpt>
      <trkpt lat="44.26924" lon="5.72295">
        <ele>818.1</ele>
        <time>2021-09-08T13:37:53Z</time>
      </trkpt>
      <trkpt lat="44.26924" lon="5.7231">
        <ele>817.7</ele>
        <time>2021-09-08T13:37:55Z</time>
      </trkpt>
      <trkpt lat="44.26923" lon="5.72316">
        <ele>817.6</ele>
        <time>2021-09-08T13:37:56Z</time>
      </trkpt>
      <trkpt lat="44.26921" lon="5.7232">
        <ele>817.6</ele>
        <time>2021-09-08T13:37:57Z</time>
      </trkpt>
      <trkpt lat="44.26919" lon="5.72325">
        <ele>817.7</ele>
        <time>2021-09-08T13:37:58Z</time>
      </trkpt>
      <trkpt lat="44.26915" lon="5.72332">
        <ele>817.9</ele>
        <time>2021-09-08T13:38:00Z</time>
      </trkpt>
      <trkpt lat="44.26913" lon="5.72336">
        <ele>818</ele>
        <time>2021-09-08T13:38:01Z</time>
      </trkpt>
      <trkpt lat="44.26913" lon="5.72338">
        <ele>818</ele>
        <time>2021-09-08T13:38:03Z</time>
      </trkpt>
      <trkpt lat="44.26912" lon="5.72345">
        <ele>818.1</ele>
        <time>2021-09-08T13:38:05Z</time>
      </trkpt>
      <trkpt lat="44.26911" lon="5.72349">
        <ele>818.1</ele>
        <time>2021-09-08T13:38:06Z</time>
      </trkpt>
      <trkpt lat="44.26909" lon="5.72354">
        <ele>818</ele>
        <time>2021-09-08T13:38:08Z</time>
      </trkpt>
      <trkpt lat="44.26905" lon="5.72357">
        <ele>817.8</ele>
        <time>2021-09-08T13:38:10Z</time>
      </trkpt>
      <trkpt lat="44.26901" lon="5.72359">
        <ele>817.5</ele>
        <time>2021-09-08T13:38:11Z</time>
      </trkpt>
      <trkpt lat="44.26897" lon="5.72359">
        <ele>817.2</ele>
        <time>2021-09-08T13:38:13Z</time>
      </trkpt>
      <trkpt lat="44.26891" lon="5.72365">
        <ele>816.5</ele>
        <time>2021-09-08T13:38:14Z</time>
      </trkpt>
      <trkpt lat="44.26888" lon="5.7237">
        <ele>816</ele>
        <time>2021-09-08T13:38:16Z</time>
      </trkpt>
      <trkpt lat="44.26884" lon="5.72376">
        <ele>815.4</ele>
        <time>2021-09-08T13:38:17Z</time>
      </trkpt>
      <trkpt lat="44.2688" lon="5.72381">
        <ele>814.9</ele>
        <time>2021-09-08T13:38:19Z</time>
      </trkpt>
      <trkpt lat="44.26877" lon="5.72387">
        <ele>814.2</ele>
        <time>2021-09-08T13:38:21Z</time>
      </trkpt>
      <trkpt lat="44.26873" lon="5.72393">
        <ele>813.5</ele>
        <time>2021-09-08T13:39:09Z</time>
      </trkpt>
      <trkpt lat="44.2687" lon="5.72398">
        <ele>812.8</ele>
        <time>2021-09-08T13:39:11Z</time>
      </trkpt>
      <trkpt lat="44.26868" lon="5.72407">
        <ele>812</ele>
        <time>2021-09-08T13:39:12Z</time>
      </trkpt>
      <trkpt lat="44.26867" lon="5.72413">
        <ele>811.3</ele>
        <time>2021-09-08T13:39:13Z</time>
      </trkpt>
      <trkpt lat="44.26865" lon="5.72419">
        <ele>810.5</ele>
        <time>2021-09-08T13:39:15Z</time>
      </trkpt>
      <trkpt lat="44.26864" lon="5.72426">
        <ele>809.8</ele>
        <time>2021-09-08T13:39:16Z</time>
      </trkpt>
      <trkpt lat="44.26862" lon="5.72437">
        <ele>808.5</ele>
        <time>2021-09-08T13:39:17Z</time>
      </trkpt>
      <trkpt lat="44.26861" lon="5.72445">
        <ele>807.6</ele>
        <time>2021-09-08T13:39:18Z</time>
      </trkpt>
      <trkpt lat="44.26861" lon="5.7246">
        <ele>806.2</ele>
        <time>2021-09-08T13:39:20Z</time>
      </trkpt>
      <trkpt lat="44.26858" lon="5.72469">
        <ele>805.5</ele>
        <time>2021-09-08T13:39:22Z</time>
      </trkpt>
      <trkpt lat="44.26855" lon="5.72471">
        <ele>805.2</ele>
        <time>2021-09-08T13:39:23Z</time>
      </trkpt>
      <trkpt lat="44.26855" lon="5.72477">
        <ele>804.7</ele>
        <time>2021-09-08T13:39:24Z</time>
      </trkpt>
      <trkpt lat="44.26855" lon="5.72482">
        <ele>804.3</ele>
        <time>2021-09-08T13:39:25Z</time>
      </trkpt>
      <trkpt lat="44.26856" lon="5.72487">
        <ele>803.8</ele>
        <time>2021-09-08T13:39:27Z</time>
      </trkpt>
      <trkpt lat="44.26857" lon="5.72494">
        <ele>803</ele>
        <time>2021-09-08T13:39:28Z</time>
      </trkpt>
      <trkpt lat="44.26856" lon="5.72501">
        <ele>802.1</ele>
        <time>2021-09-08T13:39:30Z</time>
      </trkpt>
      <trkpt lat="44.26856" lon="5.72508">
        <ele>801.3</ele>
        <time>2021-09-08T13:39:31Z</time>
      </trkpt>
      <trkpt lat="44.26856" lon="5.72514">
        <ele>800.7</ele>
        <time>2021-09-08T13:39:32Z</time>
      </trkpt>
      <trkpt lat="44.26856" lon="5.7252">
        <ele>800</ele>
        <time>2021-09-08T13:39:34Z</time>
      </trkpt>
      <trkpt lat="44.26856" lon="5.72522">
        <ele>799.8</ele>
        <time>2021-09-08T13:39:35Z</time>
      </trkpt>
      <trkpt lat="44.26856" lon="5.72524">
        <ele>799.7</ele>
        <time>2021-09-08T13:39:36Z</time>
      </trkpt>
      <trkpt lat="44.26855" lon="5.72529">
        <ele>799.3</ele>
        <time>2021-09-08T13:39:37Z</time>
      </trkpt>
      <trkpt lat="44.26852" lon="5.72535">
        <ele>798.9</ele>
        <time>2021-09-08T13:39:39Z</time>
      </trkpt>
      <trkpt lat="44.26848" lon="5.72543">
        <ele>798.4</ele>
        <time>2021-09-08T13:39:41Z</time>
      </trkpt>
      <trkpt lat="44.26846" lon="5.72548">
        <ele>798.2</ele>
        <time>2021-09-08T13:39:42Z</time>
      </trkpt>
      <trkpt lat="44.26844" lon="5.7255">
        <ele>798</ele>
        <time>2021-09-08T13:39:43Z</time>
      </trkpt>
      <trkpt lat="44.26842" lon="5.72554">
        <ele>797.9</ele>
        <time>2021-09-08T13:39:44Z</time>
      </trkpt>
      <trkpt lat="44.2684" lon="5.72557">
        <ele>797.7</ele>
        <time>2021-09-08T13:39:45Z</time>
      </trkpt>
      <trkpt lat="44.26837" lon="5.7256">
        <ele>797.5</ele>
        <time>2021-09-08T13:39:47Z</time>
      </trkpt>
      <trkpt lat="44.26832" lon="5.72563">
        <ele>797.1</ele>
        <time>2021-09-08T13:39:49Z</time>
      </trkpt>
      <trkpt lat="44.26829" lon="5.72567">
        <ele>796.8</ele>
        <time>2021-09-08T13:39:50Z</time>
      </trkpt>
      <trkpt lat="44.26826" lon="5.72571">
        <ele>796.3</ele>
        <time>2021-09-08T13:39:51Z</time>
      </trkpt>
      <trkpt lat="44.26822" lon="5.72573">
        <ele>795.8</ele>
        <time>2021-09-08T13:39:53Z</time>
      </trkpt>
      <trkpt lat="44.26821" lon="5.72574">
        <ele>795.6</ele>
        <time>2021-09-08T13:39:54Z</time>
      </trkpt>
      <trkpt lat="44.2682" lon="5.72576">
        <ele>795.4</ele>
        <time>2021-09-08T13:39:56Z</time>
      </trkpt>
      <trkpt lat="44.2682" lon="5.72576">
        <ele>795.3</ele>
        <time>2021-09-08T13:39:57Z</time>
      </trkpt>
      <trkpt lat="44.26819" lon="5.72576">
        <ele>795.2</ele>
        <time>2021-09-08T13:39:58Z</time>
      </trkpt>
      <trkpt lat="44.26819" lon="5.72576">
        <ele>795.2</ele>
        <time>2021-09-08T13:39:59Z</time>
      </trkpt>
      <trkpt lat="44.26818" lon="5.72576">
        <ele>794.9</ele>
        <time>2021-09-08T13:40:01Z</time>
      </trkpt>
      <trkpt lat="44.26817" lon="5.72576">
        <ele>794.8</ele>
        <time>2021-09-08T13:40:02Z</time>
      </trkpt>
      <trkpt lat="44.26808" lon="5.72579">
        <ele>792.7</ele>
        <time>2021-09-08T13:40:04Z</time>
      </trkpt>
      <trkpt lat="44.26801" lon="5.72582">
        <ele>790.9</ele>
        <time>2021-09-08T13:41:16Z</time>
      </trkpt>
      <trkpt lat="44.26794" lon="5.72584">
        <ele>789</ele>
        <time>2021-09-08T13:41:17Z</time>
      </trkpt>
      <trkpt lat="44.26789" lon="5.72586">
        <ele>787.6</ele>
        <time>2021-09-08T13:41:19Z</time>
      </trkpt>
      <trkpt lat="44.26786" lon="5.72587">
        <ele>786.7</ele>
        <time>2021-09-08T13:41:20Z</time>
      </trkpt>
      <trkpt lat="44.26782" lon="5.72588">
        <ele>785.5</ele>
        <time>2021-09-08T13:41:21Z</time>
      </trkpt>
      <trkpt lat="44.26778" lon="5.7259">
        <ele>784.4</ele>
        <time>2021-09-08T13:41:22Z</time>
      </trkpt>
      <trkpt lat="44.26773" lon="5.72594">
        <ele>782.9</ele>
        <time>2021-09-08T13:41:24Z</time>
      </trkpt>
      <trkpt lat="44.26768" lon="5.72598">
        <ele>781.3</ele>
        <time>2021-09-08T13:41:26Z</time>
      </trkpt>
      <trkpt lat="44.26764" lon="5.72601">
        <ele>780.2</ele>
        <time>2021-09-08T13:41:27Z</time>
      </trkpt>
      <trkpt lat="44.26759" lon="5.72605">
        <ele>778.7</ele>
        <time>2021-09-08T13:41:29Z</time>
      </trkpt>
      <trkpt lat="44.26756" lon="5.72607">
        <ele>777.8</ele>
        <time>2021-09-08T13:41:30Z</time>
      </trkpt>
      <trkpt lat="44.26753" lon="5.7261">
        <ele>777</ele>
        <time>2021-09-08T13:41:31Z</time>
      </trkpt>
      <trkpt lat="44.26749" lon="5.72612">
        <ele>775.9</ele>
        <time>2021-09-08T13:41:33Z</time>
      </trkpt>
      <trkpt lat="44.26745" lon="5.72614">
        <ele>775</ele>
        <time>2021-09-08T13:41:34Z</time>
      </trkpt>
      <trkpt lat="44.26741" lon="5.72614">
        <ele>773.9</ele>
        <time>2021-09-08T13:41:35Z</time>
      </trkpt>
      <trkpt lat="44.26736" lon="5.72616">
        <ele>772.9</ele>
        <time>2021-09-08T13:41:36Z</time>
      </trkpt>
      <trkpt lat="44.26733" lon="5.72617">
        <ele>772.1</ele>
        <time>2021-09-08T13:41:37Z</time>
      </trkpt>
      <trkpt lat="44.26728" lon="5.72619">
        <ele>771</ele>
        <time>2021-09-08T13:41:39Z</time>
      </trkpt>
      <trkpt lat="44.26724" lon="5.7262">
        <ele>770.1</ele>
        <time>2021-09-08T13:41:40Z</time>
      </trkpt>
      <trkpt lat="44.26722" lon="5.7262">
        <ele>769.6</ele>
        <time>2021-09-08T13:41:41Z</time>
      </trkpt>
      <trkpt lat="44.26716" lon="5.72622">
        <ele>768.2</ele>
        <time>2021-09-08T13:41:43Z</time>
      </trkpt>
      <trkpt lat="44.2671" lon="5.72622">
        <ele>766.8</ele>
        <time>2021-09-08T13:41:44Z</time>
      </trkpt>
      <trkpt lat="44.26705" lon="5.72623">
        <ele>765.2</ele>
        <time>2021-09-08T13:41:46Z</time>
      </trkpt>
      <trkpt lat="44.26702" lon="5.72624">
        <ele>764.1</ele>
        <time>2021-09-08T13:41:47Z</time>
      </trkpt>
      <trkpt lat="44.267" lon="5.72625">
        <ele>763.5</ele>
        <time>2021-09-08T13:41:48Z</time>
      </trkpt>
      <trkpt lat="44.26694" lon="5.72627">
        <ele>761.7</ele>
        <time>2021-09-08T13:41:50Z</time>
      </trkpt>
      <trkpt lat="44.2669" lon="5.72627">
        <ele>760.6</ele>
        <time>2021-09-08T13:41:51Z</time>
      </trkpt>
      <trkpt lat="44.26685" lon="5.72628">
        <ele>759</ele>
        <time>2021-09-08T13:41:53Z</time>
      </trkpt>
      <trkpt lat="44.26682" lon="5.72628">
        <ele>758.2</ele>
        <time>2021-09-08T13:41:54Z</time>
      </trkpt>
      <trkpt lat="44.26678" lon="5.7263">
        <ele>757.1</ele>
        <time>2021-09-08T13:41:55Z</time>
      </trkpt>
      <trkpt lat="44.26671" lon="5.72632">
        <ele>755.3</ele>
        <time>2021-09-08T13:41:57Z</time>
      </trkpt>
      <trkpt lat="44.26667" lon="5.72633">
        <ele>754.2</ele>
        <time>2021-09-08T13:41:58Z</time>
      </trkpt>
      <trkpt lat="44.26663" lon="5.72635">
        <ele>753.1</ele>
        <time>2021-09-08T13:41:59Z</time>
      </trkpt>
      <trkpt lat="44.26659" lon="5.72636">
        <ele>752</ele>
        <time>2021-09-08T13:42:00Z</time>
      </trkpt>
      <trkpt lat="44.26654" lon="5.72638">
        <ele>750.7</ele>
        <time>2021-09-08T13:42:02Z</time>
      </trkpt>
      <trkpt lat="44.26651" lon="5.72639">
        <ele>750.1</ele>
        <time>2021-09-08T13:42:03Z</time>
      </trkpt>
      <trkpt lat="44.26648" lon="5.72639">
        <ele>749.2</ele>
        <time>2021-09-08T13:42:04Z</time>
      </trkpt>
      <trkpt lat="44.26643" lon="5.72637">
        <ele>748</ele>
        <time>2021-09-08T13:42:06Z</time>
      </trkpt>
      <trkpt lat="44.26639" lon="5.72636">
        <ele>747.1</ele>
        <time>2021-09-08T13:42:08Z</time>
      </trkpt>
      <trkpt lat="44.26637" lon="5.72634">
        <ele>746.4</ele>
        <time>2021-09-08T13:42:09Z</time>
      </trkpt>
      <trkpt lat="44.26634" lon="5.72633">
        <ele>745.7</ele>
        <time>2021-09-08T13:42:11Z</time>
      </trkpt>
      <trkpt lat="44.26631" lon="5.72631">
        <ele>745</ele>
        <time>2021-09-08T13:42:12Z</time>
      </trkpt>
      <trkpt lat="44.26628" lon="5.72629">
        <ele>744.2</ele>
        <time>2021-09-08T13:42:13Z</time>
      </trkpt>
      <trkpt lat="44.26622" lon="5.72625">
        <ele>743</ele>
        <time>2021-09-08T13:42:14Z</time>
      </trkpt>
      <trkpt lat="44.26612" lon="5.72619">
        <ele>740.9</ele>
        <time>2021-09-08T13:42:16Z</time>
      </trkpt>
      <trkpt lat="44.26607" lon="5.72616">
        <ele>740.2</ele>
        <time>2021-09-08T13:42:17Z</time>
      </trkpt>
      <trkpt lat="44.26601" lon="5.72612">
        <ele>739.2</ele>
        <time>2021-09-08T13:42:19Z</time>
      </trkpt>
      <trkpt lat="44.26594" lon="5.72609">
        <ele>738.2</ele>
        <time>2021-09-08T13:42:21Z</time>
      </trkpt>
      <trkpt lat="44.2659" lon="5.72609">
        <ele>737.6</ele>
        <time>2021-09-08T13:42:22Z</time>
      </trkpt>
      <trkpt lat="44.26585" lon="5.72608">
        <ele>737.2</ele>
        <time>2021-09-08T13:42:23Z</time>
      </trkpt>
      <trkpt lat="44.26582" lon="5.72606">
        <ele>736.8</ele>
        <time>2021-09-08T13:42:24Z</time>
      </trkpt>
      <trkpt lat="44.26579" lon="5.72605">
        <ele>736.6</ele>
        <time>2021-09-08T13:42:26Z</time>
      </trkpt>
      <trkpt lat="44.26576" lon="5.72607">
        <ele>736.4</ele>
        <time>2021-09-08T13:42:28Z</time>
      </trkpt>
      <trkpt lat="44.26575" lon="5.72616">
        <ele>736.1</ele>
        <time>2021-09-08T13:42:30Z</time>
      </trkpt>
      <trkpt lat="44.26573" lon="5.72624">
        <ele>735.9</ele>
        <time>2021-09-08T13:42:32Z</time>
      </trkpt>
      <trkpt lat="44.26572" lon="5.72628">
        <ele>735.8</ele>
        <time>2021-09-08T13:42:33Z</time>
      </trkpt>
      <trkpt lat="44.26571" lon="5.72632">
        <ele>735.7</ele>
        <time>2021-09-08T13:42:34Z</time>
      </trkpt>
      <trkpt lat="44.26571" lon="5.72635">
        <ele>735.7</ele>
        <time>2021-09-08T13:42:35Z</time>
      </trkpt>
      <trkpt lat="44.26572" lon="5.72638">
        <ele>735.6</ele>
        <time>2021-09-08T13:42:37Z</time>
      </trkpt>
      <trkpt lat="44.26573" lon="5.72642">
        <ele>735.5</ele>
        <time>2021-09-08T13:42:38Z</time>
      </trkpt>
      <trkpt lat="44.26575" lon="5.7265">
        <ele>735.3</ele>
        <time>2021-09-08T13:42:40Z</time>
      </trkpt>
      <trkpt lat="44.26577" lon="5.72659">
        <ele>735.1</ele>
        <time>2021-09-08T13:42:42Z</time>
      </trkpt>
      <trkpt lat="44.26577" lon="5.72665">
        <ele>735.1</ele>
        <time>2021-09-08T13:42:43Z</time>
      </trkpt>
      <trkpt lat="44.26577" lon="5.7267">
        <ele>735</ele>
        <time>2021-09-08T13:42:44Z</time>
      </trkpt>
      <trkpt lat="44.26575" lon="5.72677">
        <ele>735</ele>
        <time>2021-09-08T13:42:46Z</time>
      </trkpt>
      <trkpt lat="44.26574" lon="5.72682">
        <ele>735</ele>
        <time>2021-09-08T13:42:47Z</time>
      </trkpt>
      <trkpt lat="44.26574" lon="5.72683">
        <ele>735</ele>
        <time>2021-09-08T13:42:48Z</time>
      </trkpt>
      <trkpt lat="44.26574" lon="5.72686">
        <ele>735.1</ele>
        <time>2021-09-08T13:42:50Z</time>
      </trkpt>
      <trkpt lat="44.26573" lon="5.72688">
        <ele>735.1</ele>
        <time>2021-09-08T13:42:51Z</time>
      </trkpt>
      <trkpt lat="44.26573" lon="5.72689">
        <ele>735.1</ele>
        <time>2021-09-08T13:42:53Z</time>
      </trkpt>
      <trkpt lat="44.26573" lon="5.72691">
        <ele>735.1</ele>
        <time>2021-09-08T13:42:54Z</time>
      </trkpt>
      <trkpt lat="44.26573" lon="5.72692">
        <ele>735.1</ele>
        <time>2021-09-08T13:42:55Z</time>
      </trkpt>
      <trkpt lat="44.26573" lon="5.72693">
        <ele>735.1</ele>
        <time>2021-09-08T13:42:56Z</time>
      </trkpt>
      <trkpt lat="44.26573" lon="5.72692">
        <ele>735.1</ele>
        <time>2021-09-08T13:42:57Z</time>
      </trkpt>
      <trkpt lat="44.26573" lon="5.72693">
        <ele>735.1</ele>
        <time>2021-09-08T13:42:59Z</time>
      </trkpt>
      <trkpt lat="44.26573" lon="5.72693">
        <ele>735.1</ele>
        <time>2021-09-08T13:43:00Z</time>
      </trkpt>
      <trkpt lat="44.26573" lon="5.72693">
        <ele>735.1</ele>
        <time>2021-09-08T13:43:01Z</time>
      </trkpt>
      <trkpt lat="44.26573" lon="5.72693">
        <ele>735.1</ele>
        <time>2021-09-08T13:43:02Z</time>
      </trkpt>
      <trkpt lat="44.26573" lon="5.72693">
        <ele>735.1</ele>
        <time>2021-09-08T13:43:04Z</time>
      </trkpt>
      <trkpt lat="44.26573" lon="5.72694">
        <ele>735.1</ele>
        <time>2021-09-08T13:43:05Z</time>
      </trkpt>
      <trkpt lat="44.26572" lon="5.72716">
        <ele>735.3</ele>
        <time>2021-09-08T13:43:13Z</time>
      </trkpt>
      <trkpt lat="44.26571" lon="5.72721">
        <ele>735.3</ele>
        <time>2021-09-08T13:43:14Z</time>
      </trkpt>
      <trkpt lat="44.26569" lon="5.72729">
        <ele>735.3</ele>
        <time>2021-09-08T13:43:16Z</time>
      </trkpt>
      <trkpt lat="44.26566" lon="5.72734">
        <ele>735.2</ele>
        <time>2021-09-08T13:43:18Z</time>
      </trkpt>
      <trkpt lat="44.26564" lon="5.72739">
        <ele>735.2</ele>
        <time>2021-09-08T13:43:19Z</time>
      </trkpt>
      <trkpt lat="44.26563" lon="5.72742">
        <ele>735.1</ele>
        <time>2021-09-08T13:43:20Z</time>
      </trkpt>
      <trkpt lat="44.2656" lon="5.72746">
        <ele>735.1</ele>
        <time>2021-09-08T13:43:22Z</time>
      </trkpt>
      <trkpt lat="44.26558" lon="5.7275">
        <ele>735.1</ele>
        <time>2021-09-08T13:43:23Z</time>
      </trkpt>
      <trkpt lat="44.26557" lon="5.72752">
        <ele>735.1</ele>
        <time>2021-09-08T13:43:24Z</time>
      </trkpt>
      <trkpt lat="44.26556" lon="5.72754">
        <ele>735.1</ele>
        <time>2021-09-08T13:43:25Z</time>
      </trkpt>
      <trkpt lat="44.26556" lon="5.72754">
        <ele>735.1</ele>
        <time>2021-09-08T13:43:26Z</time>
      </trkpt>
      <trkpt lat="44.26557" lon="5.72754">
        <ele>735.1</ele>
        <time>2021-09-08T13:43:28Z</time>
      </trkpt>
      <trkpt lat="44.26557" lon="5.72755">
        <ele>735.1</ele>
        <time>2021-09-08T13:43:29Z</time>
      </trkpt>
      <trkpt lat="44.26557" lon="5.72755">
        <ele>735.2</ele>
        <time>2021-09-08T13:43:30Z</time>
      </trkpt>
      <trkpt lat="44.26557" lon="5.72755">
        <ele>735.2</ele>
        <time>2021-09-08T13:43:31Z</time>
      </trkpt>
      <trkpt lat="44.26557" lon="5.72755">
        <ele>735.2</ele>
        <time>2021-09-08T13:43:32Z</time>
      </trkpt>
      <trkpt lat="44.26557" lon="5.72755">
        <ele>735.2</ele>
        <time>2021-09-08T13:43:34Z</time>
      </trkpt>
      <trkpt lat="44.26563" lon="5.72819">
        <ele>739.9</ele>
        <time>2021-09-08T13:44:57Z</time>
      </trkpt>
      <trkpt lat="44.26565" lon="5.72823">
        <ele>739.8</ele>
        <time>2021-09-08T13:44:58Z</time>
      </trkpt>
      <trkpt lat="44.26568" lon="5.72827">
        <ele>739.6</ele>
        <time>2021-09-08T13:44:59Z</time>
      </trkpt>
      <trkpt lat="44.26572" lon="5.72835">
        <ele>739.3</ele>
        <time>2021-09-08T13:45:01Z</time>
      </trkpt>
      <trkpt lat="44.26576" lon="5.72843">
        <ele>739</ele>
        <time>2021-09-08T13:45:02Z</time>
      </trkpt>
      <trkpt lat="44.26577" lon="5.72854">
        <ele>738.7</ele>
        <time>2021-09-08T13:45:04Z</time>
      </trkpt>
      <trkpt lat="44.26577" lon="5.72859">
        <ele>738.6</ele>
        <time>2021-09-08T13:45:05Z</time>
      </trkpt>
      <trkpt lat="44.26575" lon="5.72863">
        <ele>738.5</ele>
        <time>2021-09-08T13:45:06Z</time>
      </trkpt>
      <trkpt lat="44.26566" lon="5.72875">
        <ele>738</ele>
        <time>2021-09-08T13:45:08Z</time>
      </trkpt>
      <trkpt lat="44.26561" lon="5.72882">
        <ele>737.8</ele>
        <time>2021-09-08T13:45:09Z</time>
      </trkpt>
      <trkpt lat="44.26553" lon="5.72894">
        <ele>737.4</ele>
        <time>2021-09-08T13:45:11Z</time>
      </trkpt>
      <trkpt lat="44.26548" lon="5.72899">
        <ele>737.2</ele>
        <time>2021-09-08T13:45:12Z</time>
      </trkpt>
      <trkpt lat="44.2654" lon="5.72908">
        <ele>736.8</ele>
        <time>2021-09-08T13:45:14Z</time>
      </trkpt>
      <trkpt lat="44.26534" lon="5.72917">
        <ele>736.4</ele>
        <time>2021-09-08T13:45:16Z</time>
      </trkpt>
      <trkpt lat="44.26531" lon="5.72922">
        <ele>736.2</ele>
        <time>2021-09-08T13:45:17Z</time>
      </trkpt>
      <trkpt lat="44.26527" lon="5.72928">
        <ele>735.9</ele>
        <time>2021-09-08T13:45:18Z</time>
      </trkpt>
      <trkpt lat="44.2652" lon="5.7294">
        <ele>735.5</ele>
        <time>2021-09-08T13:45:20Z</time>
      </trkpt>
      <trkpt lat="44.26516" lon="5.72946">
        <ele>735.4</ele>
        <time>2021-09-08T13:45:21Z</time>
      </trkpt>
      <trkpt lat="44.26513" lon="5.72952">
        <ele>735.3</ele>
        <time>2021-09-08T13:45:22Z</time>
      </trkpt>
      <trkpt lat="44.26511" lon="5.72958">
        <ele>735.2</ele>
        <time>2021-09-08T13:45:23Z</time>
      </trkpt>
      <trkpt lat="44.26505" lon="5.72969">
        <ele>734.9</ele>
        <time>2021-09-08T13:45:25Z</time>
      </trkpt>
      <trkpt lat="44.26501" lon="5.72978">
        <ele>734.6</ele>
        <time>2021-09-08T13:45:27Z</time>
      </trkpt>
      <trkpt lat="44.26495" lon="5.7299">
        <ele>734</ele>
        <time>2021-09-08T13:45:29Z</time>
      </trkpt>
      <trkpt lat="44.26492" lon="5.72995">
        <ele>733.8</ele>
        <time>2021-09-08T13:45:30Z</time>
      </trkpt>
      <trkpt lat="44.2649" lon="5.73001">
        <ele>733.6</ele>
        <time>2021-09-08T13:45:31Z</time>
      </trkpt>
      <trkpt lat="44.26489" lon="5.73004">
        <ele>733.4</ele>
        <time>2021-09-08T13:45:32Z</time>
      </trkpt>
      <trkpt lat="44.26485" lon="5.73016">
        <ele>733.1</ele>
        <time>2021-09-08T13:45:34Z</time>
      </trkpt>
      <trkpt lat="44.26484" lon="5.73022">
        <ele>732.9</ele>
        <time>2021-09-08T13:45:35Z</time>
      </trkpt>
      <trkpt lat="44.2648" lon="5.73026">
        <ele>732.8</ele>
        <time>2021-09-08T13:45:37Z</time>
      </trkpt>
      <trkpt lat="44.26478" lon="5.73028">
        <ele>732.7</ele>
        <time>2021-09-08T13:45:38Z</time>
      </trkpt>
      <trkpt lat="44.26474" lon="5.73032">
        <ele>732.6</ele>
        <time>2021-09-08T13:45:39Z</time>
      </trkpt>
      <trkpt lat="44.26468" lon="5.73037">
        <ele>732.5</ele>
        <time>2021-09-08T13:45:41Z</time>
      </trkpt>
      <trkpt lat="44.2646" lon="5.73042">
        <ele>732.3</ele>
        <time>2021-09-08T13:45:42Z</time>
      </trkpt>
      <trkpt lat="44.26456" lon="5.73045">
        <ele>732.1</ele>
        <time>2021-09-08T13:45:43Z</time>
      </trkpt>
      <trkpt lat="44.2645" lon="5.7305">
        <ele>731.7</ele>
        <time>2021-09-08T13:45:44Z</time>
      </trkpt>
      <trkpt lat="44.26445" lon="5.73057">
        <ele>731.4</ele>
        <time>2021-09-08T13:45:46Z</time>
      </trkpt>
      <trkpt lat="44.26441" lon="5.73067">
        <ele>731</ele>
        <time>2021-09-08T13:45:47Z</time>
      </trkpt>
      <trkpt lat="44.26439" lon="5.73074">
        <ele>730.6</ele>
        <time>2021-09-08T13:45:48Z</time>
      </trkpt>
      <trkpt lat="44.26436" lon="5.73084">
        <ele>730.2</ele>
        <time>2021-09-08T13:45:50Z</time>
      </trkpt>
      <trkpt lat="44.26435" lon="5.7309">
        <ele>729.8</ele>
        <time>2021-09-08T13:45:51Z</time>
      </trkpt>
      <trkpt lat="44.26437" lon="5.73096">
        <ele>729.4</ele>
        <time>2021-09-08T13:45:52Z</time>
      </trkpt>
      <trkpt lat="44.2644" lon="5.73103">
        <ele>729</ele>
        <time>2021-09-08T13:45:54Z</time>
      </trkpt>
      <trkpt lat="44.26443" lon="5.73107">
        <ele>728.7</ele>
        <time>2021-09-08T13:45:55Z</time>
      </trkpt>
      <trkpt lat="44.26445" lon="5.73113">
        <ele>728.3</ele>
        <time>2021-09-08T13:45:57Z</time>
      </trkpt>
      <trkpt lat="44.26447" lon="5.73117">
        <ele>728</ele>
        <time>2021-09-08T13:45:58Z</time>
      </trkpt>
      <trkpt lat="44.26451" lon="5.7312">
        <ele>727.6</ele>
        <time>2021-09-08T13:45:59Z</time>
      </trkpt>
      <trkpt lat="44.2646" lon="5.73121">
        <ele>726.6</ele>
        <time>2021-09-08T13:46:01Z</time>
      </trkpt>
      <trkpt lat="44.26466" lon="5.73121">
        <ele>726.1</ele>
        <time>2021-09-08T13:46:02Z</time>
      </trkpt>
      <trkpt lat="44.26472" lon="5.73118">
        <ele>725.5</ele>
        <time>2021-09-08T13:46:03Z</time>
      </trkpt>
      <trkpt lat="44.26479" lon="5.73113">
        <ele>724.9</ele>
        <time>2021-09-08T13:46:05Z</time>
      </trkpt>
      <trkpt lat="44.26488" lon="5.731">
        <ele>723.7</ele>
        <time>2021-09-08T13:46:06Z</time>
      </trkpt>
      <trkpt lat="44.26496" lon="5.73086">
        <ele>722.3</ele>
        <time>2021-09-08T13:46:08Z</time>
      </trkpt>
      <trkpt lat="44.26502" lon="5.73069">
        <ele>720.9</ele>
        <time>2021-09-08T13:46:10Z</time>
      </trkpt>
      <trkpt lat="44.26505" lon="5.7306">
        <ele>720.4</ele>
        <time>2021-09-08T13:46:11Z</time>
      </trkpt>
      <trkpt lat="44.26509" lon="5.7304">
        <ele>719.2</ele>
        <time>2021-09-08T13:46:13Z</time>
      </trkpt>
      <trkpt lat="44.26513" lon="5.73029">
        <ele>718.5</ele>
        <time>2021-09-08T13:46:14Z</time>
      </trkpt>
      <trkpt lat="44.26522" lon="5.7301">
        <ele>717.3</ele>
        <time>2021-09-08T13:46:16Z</time>
      </trkpt>
      <trkpt lat="44.26533" lon="5.72996">
        <ele>716.1</ele>
        <time>2021-09-08T13:46:18Z</time>
      </trkpt>
      <trkpt lat="44.26538" lon="5.72991">
        <ele>715.7</ele>
        <time>2021-09-08T13:46:19Z</time>
      </trkpt>
      <trkpt lat="44.26542" lon="5.72988">
        <ele>715.3</ele>
        <time>2021-09-08T13:46:20Z</time>
      </trkpt>
      <trkpt lat="44.26548" lon="5.72983">
        <ele>714.8</ele>
        <time>2021-09-08T13:46:22Z</time>
      </trkpt>
      <trkpt lat="44.26551" lon="5.72982">
        <ele>714.5</ele>
        <time>2021-09-08T13:46:23Z</time>
      </trkpt>
      <trkpt lat="44.26556" lon="5.72985">
        <ele>714.1</ele>
        <time>2021-09-08T13:46:25Z</time>
      </trkpt>
      <trkpt lat="44.26558" lon="5.72988">
        <ele>713.9</ele>
        <time>2021-09-08T13:46:26Z</time>
      </trkpt>
      <trkpt lat="44.26564" lon="5.72988">
        <ele>713.5</ele>
        <time>2021-09-08T13:46:28Z</time>
      </trkpt>
      <trkpt lat="44.26563" lon="5.72986">
        <ele>713.4</ele>
        <time>2021-09-08T13:46:29Z</time>
      </trkpt>
      <trkpt lat="44.26566" lon="5.72988">
        <ele>713.2</ele>
        <time>2021-09-08T13:46:30Z</time>
      </trkpt>
      <trkpt lat="44.26569" lon="5.72991">
        <ele>712.9</ele>
        <time>2021-09-08T13:46:32Z</time>
      </trkpt>
      <trkpt lat="44.26571" lon="5.72999">
        <ele>712.6</ele>
        <time>2021-09-08T13:46:34Z</time>
      </trkpt>
      <trkpt lat="44.26574" lon="5.72999">
        <ele>712.4</ele>
        <time>2021-09-08T13:46:35Z</time>
      </trkpt>
      <trkpt lat="44.26576" lon="5.73">
        <ele>712.3</ele>
        <time>2021-09-08T13:46:36Z</time>
      </trkpt>
      <trkpt lat="44.26578" lon="5.73">
        <ele>712.2</ele>
        <time>2021-09-08T13:46:38Z</time>
      </trkpt>
      <trkpt lat="44.26581" lon="5.73001">
        <ele>712.1</ele>
        <time>2021-09-08T13:46:39Z</time>
      </trkpt>
      <trkpt lat="44.26583" lon="5.73001">
        <ele>712</ele>
        <time>2021-09-08T13:46:41Z</time>
      </trkpt>
      <trkpt lat="44.26586" lon="5.73002">
        <ele>711.9</ele>
        <time>2021-09-08T13:46:55Z</time>
      </trkpt>
      <trkpt lat="44.26588" lon="5.73002">
        <ele>711.8</ele>
        <time>2021-09-08T13:46:56Z</time>
      </trkpt>
      <trkpt lat="44.26594" lon="5.73007">
        <ele>711.5</ele>
        <time>2021-09-08T13:46:58Z</time>
      </trkpt>
      <trkpt lat="44.26597" lon="5.73012">
        <ele>711.2</ele>
        <time>2021-09-08T13:46:59Z</time>
      </trkpt>
      <trkpt lat="44.26598" lon="5.73016">
        <ele>711</ele>
        <time>2021-09-08T13:47:00Z</time>
      </trkpt>
      <trkpt lat="44.26594" lon="5.73022">
        <ele>710.7</ele>
        <time>2021-09-08T13:47:01Z</time>
      </trkpt>
      <trkpt lat="44.2658" lon="5.73028">
        <ele>709.9</ele>
        <time>2021-09-08T13:47:03Z</time>
      </trkpt>
      <trkpt lat="44.26564" lon="5.73028">
        <ele>708.8</ele>
        <time>2021-09-08T13:47:05Z</time>
      </trkpt>
      <trkpt lat="44.26558" lon="5.73027">
        <ele>708.4</ele>
        <time>2021-09-08T13:47:06Z</time>
      </trkpt>
      <trkpt lat="44.26552" lon="5.73025">
        <ele>708.1</ele>
        <time>2021-09-08T13:47:07Z</time>
      </trkpt>
      <trkpt lat="44.26547" lon="5.73024">
        <ele>707.7</ele>
        <time>2021-09-08T13:47:08Z</time>
      </trkpt>
      <trkpt lat="44.26537" lon="5.73028">
        <ele>707.2</ele>
        <time>2021-09-08T13:47:10Z</time>
      </trkpt>
      <trkpt lat="44.26531" lon="5.73038">
        <ele>706.7</ele>
        <time>2021-09-08T13:47:12Z</time>
      </trkpt>
      <trkpt lat="44.26529" lon="5.73046">
        <ele>706.4</ele>
        <time>2021-09-08T13:47:13Z</time>
      </trkpt>
      <trkpt lat="44.2653" lon="5.73056">
        <ele>705.9</ele>
        <time>2021-09-08T13:47:14Z</time>
      </trkpt>
      <trkpt lat="44.26531" lon="5.73076">
        <ele>704.8</ele>
        <time>2021-09-08T13:47:16Z</time>
      </trkpt>
      <trkpt lat="44.26532" lon="5.73083">
        <ele>704.3</ele>
        <time>2021-09-08T13:47:17Z</time>
      </trkpt>
      <trkpt lat="44.26534" lon="5.73097">
        <ele>703.5</ele>
        <time>2021-09-08T13:47:19Z</time>
      </trkpt>
      <trkpt lat="44.26534" lon="5.73103">
        <ele>703.2</ele>
        <time>2021-09-08T13:47:20Z</time>
      </trkpt>
      <trkpt lat="44.26534" lon="5.73117">
        <ele>702.5</ele>
        <time>2021-09-08T13:47:22Z</time>
      </trkpt>
      <trkpt lat="44.26534" lon="5.73124">
        <ele>702.2</ele>
        <time>2021-09-08T13:47:23Z</time>
      </trkpt>
      <trkpt lat="44.26536" lon="5.73139">
        <ele>701.5</ele>
        <time>2021-09-08T13:47:25Z</time>
      </trkpt>
      <trkpt lat="44.26539" lon="5.73146">
        <ele>701.1</ele>
        <time>2021-09-08T13:47:26Z</time>
      </trkpt>
      <trkpt lat="44.26543" lon="5.73164">
        <ele>700</ele>
        <time>2021-09-08T13:47:28Z</time>
      </trkpt>
      <trkpt lat="44.26544" lon="5.73173">
        <ele>699.4</ele>
        <time>2021-09-08T13:47:29Z</time>
      </trkpt>
      <trkpt lat="44.26545" lon="5.73181">
        <ele>698.9</ele>
        <time>2021-09-08T13:47:30Z</time>
      </trkpt>
      <trkpt lat="44.2654" lon="5.73196">
        <ele>697.8</ele>
        <time>2021-09-08T13:47:32Z</time>
      </trkpt>
      <trkpt lat="44.26532" lon="5.73209">
        <ele>696.8</ele>
        <time>2021-09-08T13:47:34Z</time>
      </trkpt>
      <trkpt lat="44.26527" lon="5.73214">
        <ele>696.2</ele>
        <time>2021-09-08T13:47:35Z</time>
      </trkpt>
      <trkpt lat="44.26521" lon="5.73219">
        <ele>695.6</ele>
        <time>2021-09-08T13:47:36Z</time>
      </trkpt>
      <trkpt lat="44.26516" lon="5.73223">
        <ele>695.1</ele>
        <time>2021-09-08T13:47:37Z</time>
      </trkpt>
      <trkpt lat="44.2651" lon="5.73227">
        <ele>694.6</ele>
        <time>2021-09-08T13:47:38Z</time>
      </trkpt>
      <trkpt lat="44.26503" lon="5.7323">
        <ele>694.1</ele>
        <time>2021-09-08T13:47:39Z</time>
      </trkpt>
      <trkpt lat="44.26491" lon="5.73232">
        <ele>693.3</ele>
        <time>2021-09-08T13:47:41Z</time>
      </trkpt>
      <trkpt lat="44.26485" lon="5.73231">
        <ele>693</ele>
        <time>2021-09-08T13:47:42Z</time>
      </trkpt>
      <trkpt lat="44.26479" lon="5.73229">
        <ele>692.7</ele>
        <time>2021-09-08T13:47:43Z</time>
      </trkpt>
      <trkpt lat="44.26474" lon="5.73226">
        <ele>692.4</ele>
        <time>2021-09-08T13:47:44Z</time>
      </trkpt>
      <trkpt lat="44.2647" lon="5.73224">
        <ele>692.1</ele>
        <time>2021-09-08T13:47:45Z</time>
      </trkpt>
      <trkpt lat="44.26462" lon="5.73219">
        <ele>691.6</ele>
        <time>2021-09-08T13:47:47Z</time>
      </trkpt>
      <trkpt lat="44.26457" lon="5.7322">
        <ele>691.3</ele>
        <time>2021-09-08T13:47:48Z</time>
      </trkpt>
      <trkpt lat="44.26454" lon="5.73221">
        <ele>691.1</ele>
        <time>2021-09-08T13:47:49Z</time>
      </trkpt>
      <trkpt lat="44.2645" lon="5.73227">
        <ele>690.7</ele>
        <time>2021-09-08T13:47:51Z</time>
      </trkpt>
      <trkpt lat="44.26449" lon="5.73228">
        <ele>690.7</ele>
        <time>2021-09-08T13:47:52Z</time>
      </trkpt>
      <trkpt lat="44.2645" lon="5.73231">
        <ele>690.5</ele>
        <time>2021-09-08T13:47:53Z</time>
      </trkpt>
      <trkpt lat="44.26451" lon="5.73232">
        <ele>690.4</ele>
        <time>2021-09-08T13:47:55Z</time>
      </trkpt>
      <trkpt lat="44.26452" lon="5.73233">
        <ele>690.3</ele>
        <time>2021-09-08T13:47:57Z</time>
      </trkpt>
      <trkpt lat="44.26454" lon="5.73234">
        <ele>690.2</ele>
        <time>2021-09-08T13:47:58Z</time>
      </trkpt>
      <trkpt lat="44.26454" lon="5.73235">
        <ele>690.2</ele>
        <time>2021-09-08T13:47:59Z</time>
      </trkpt>
      <trkpt lat="44.26454" lon="5.73235">
        <ele>690.2</ele>
        <time>2021-09-08T13:48:01Z</time>
      </trkpt>
      <trkpt lat="44.26454" lon="5.73235">
        <ele>690.2</ele>
        <time>2021-09-08T13:48:02Z</time>
      </trkpt>
      <trkpt lat="44.26454" lon="5.73235">
        <ele>690.2</ele>
        <time>2021-09-08T13:48:03Z</time>
      </trkpt>
      <trkpt lat="44.26454" lon="5.73235">
        <ele>690.2</ele>
        <time>2021-09-08T13:48:05Z</time>
      </trkpt>
      <trkpt lat="44.26471" lon="5.73234">
        <ele>688.9</ele>
        <time>2021-09-08T13:48:41Z</time>
      </trkpt>
      <trkpt lat="44.26477" lon="5.73238">
        <ele>688.5</ele>
        <time>2021-09-08T13:48:43Z</time>
      </trkpt>
      <trkpt lat="44.26491" lon="5.73249">
        <ele>687.5</ele>
        <time>2021-09-08T13:48:44Z</time>
      </trkpt>
      <trkpt lat="44.26502" lon="5.73259">
        <ele>686.5</ele>
        <time>2021-09-08T13:48:46Z</time>
      </trkpt>
      <trkpt lat="44.26513" lon="5.73264">
        <ele>685.5</ele>
        <time>2021-09-08T13:48:48Z</time>
      </trkpt>
      <trkpt lat="44.26525" lon="5.73261">
        <ele>684.6</ele>
        <time>2021-09-08T13:48:50Z</time>
      </trkpt>
      <trkpt lat="44.26535" lon="5.7326">
        <ele>683.8</ele>
        <time>2021-09-08T13:48:52Z</time>
      </trkpt>
      <trkpt lat="44.26543" lon="5.7326">
        <ele>683.2</ele>
        <time>2021-09-08T13:48:54Z</time>
      </trkpt>
      <trkpt lat="44.26546" lon="5.73261">
        <ele>683</ele>
        <time>2021-09-08T13:48:55Z</time>
      </trkpt>
      <trkpt lat="44.2655" lon="5.73261">
        <ele>682.6</ele>
        <time>2021-09-08T13:48:56Z</time>
      </trkpt>
      <trkpt lat="44.26554" lon="5.73259">
        <ele>682.2</ele>
        <time>2021-09-08T13:48:57Z</time>
      </trkpt>
      <trkpt lat="44.26559" lon="5.73257">
        <ele>681.8</ele>
        <time>2021-09-08T13:48:58Z</time>
      </trkpt>
      <trkpt lat="44.26562" lon="5.73256">
        <ele>681.4</ele>
        <time>2021-09-08T13:49:00Z</time>
      </trkpt>
      <trkpt lat="44.26565" lon="5.73255">
        <ele>681.3</ele>
        <time>2021-09-08T13:49:02Z</time>
      </trkpt>
      <trkpt lat="44.26563" lon="5.73258">
        <ele>681.1</ele>
        <time>2021-09-08T13:49:04Z</time>
      </trkpt>
      <trkpt lat="44.26563" lon="5.73259">
        <ele>681.1</ele>
        <time>2021-09-08T13:49:05Z</time>
      </trkpt>
      <trkpt lat="44.26564" lon="5.73259">
        <ele>681</ele>
        <time>2021-09-08T13:49:07Z</time>
      </trkpt>
      <trkpt lat="44.26563" lon="5.73259">
        <ele>681</ele>
        <time>2021-09-08T13:49:08Z</time>
      </trkpt>
      <trkpt lat="44.26563" lon="5.73258">
        <ele>681</ele>
        <time>2021-09-08T13:49:09Z</time>
      </trkpt>
      <trkpt lat="44.26563" lon="5.73258">
        <ele>681</ele>
        <time>2021-09-08T13:49:10Z</time>
      </trkpt>
      <trkpt lat="44.26589" lon="5.73245">
        <ele>679.4</ele>
        <time>2021-09-08T13:49:46Z</time>
      </trkpt>
      <trkpt lat="44.26598" lon="5.73238">
        <ele>678.7</ele>
        <time>2021-09-08T13:49:48Z</time>
      </trkpt>
      <trkpt lat="44.26603" lon="5.73234">
        <ele>678.4</ele>
        <time>2021-09-08T13:49:49Z</time>
      </trkpt>
      <trkpt lat="44.26607" lon="5.73234">
        <ele>678.1</ele>
        <time>2021-09-08T13:49:50Z</time>
      </trkpt>
      <trkpt lat="44.26612" lon="5.73233">
        <ele>677.9</ele>
        <time>2021-09-08T13:49:51Z</time>
      </trkpt>
      <trkpt lat="44.26615" lon="5.73233">
        <ele>677.7</ele>
        <time>2021-09-08T13:49:52Z</time>
      </trkpt>
      <trkpt lat="44.2662" lon="5.73234">
        <ele>677.4</ele>
        <time>2021-09-08T13:49:53Z</time>
      </trkpt>
      <trkpt lat="44.26626" lon="5.73239">
        <ele>677.2</ele>
        <time>2021-09-08T13:49:55Z</time>
      </trkpt>
      <trkpt lat="44.26629" lon="5.73246">
        <ele>677</ele>
        <time>2021-09-08T13:49:57Z</time>
      </trkpt>
      <trkpt lat="44.26629" lon="5.73253">
        <ele>676.8</ele>
        <time>2021-09-08T13:49:59Z</time>
      </trkpt>
      <trkpt lat="44.26624" lon="5.73262">
        <ele>676.4</ele>
        <time>2021-09-08T13:50:01Z</time>
      </trkpt>
      <trkpt lat="44.26621" lon="5.73267">
        <ele>676.1</ele>
        <time>2021-09-08T13:50:02Z</time>
      </trkpt>
      <trkpt lat="44.26612" lon="5.73277">
        <ele>675.5</ele>
        <time>2021-09-08T13:50:03Z</time>
      </trkpt>
      <trkpt lat="44.26601" lon="5.7329">
        <ele>674.7</ele>
        <time>2021-09-08T13:50:05Z</time>
      </trkpt>
      <trkpt lat="44.26595" lon="5.73296">
        <ele>674.2</ele>
        <time>2021-09-08T13:50:06Z</time>
      </trkpt>
      <trkpt lat="44.26587" lon="5.73301">
        <ele>673.7</ele>
        <time>2021-09-08T13:50:07Z</time>
      </trkpt>
      <trkpt lat="44.26579" lon="5.73307">
        <ele>673</ele>
        <time>2021-09-08T13:50:08Z</time>
      </trkpt>
      <trkpt lat="44.26561" lon="5.73318">
        <ele>671.4</ele>
        <time>2021-09-08T13:50:10Z</time>
      </trkpt>
      <trkpt lat="44.26552" lon="5.73324">
        <ele>670.7</ele>
        <time>2021-09-08T13:50:11Z</time>
      </trkpt>
      <trkpt lat="44.26543" lon="5.73329">
        <ele>670</ele>
        <time>2021-09-08T13:50:12Z</time>
      </trkpt>
      <trkpt lat="44.26526" lon="5.73334">
        <ele>668.7</ele>
        <time>2021-09-08T13:50:14Z</time>
      </trkpt>
      <trkpt lat="44.2651" lon="5.73339">
        <ele>667.6</ele>
        <time>2021-09-08T13:50:16Z</time>
      </trkpt>
      <trkpt lat="44.26495" lon="5.73348">
        <ele>666.6</ele>
        <time>2021-09-08T13:50:18Z</time>
      </trkpt>
      <trkpt lat="44.2648" lon="5.7336">
        <ele>665.6</ele>
        <time>2021-09-08T13:50:20Z</time>
      </trkpt>
      <trkpt lat="44.26464" lon="5.7337">
        <ele>664.7</ele>
        <time>2021-09-08T13:50:22Z</time>
      </trkpt>
      <trkpt lat="44.26455" lon="5.73373">
        <ele>664.3</ele>
        <time>2021-09-08T13:50:23Z</time>
      </trkpt>
      <trkpt lat="44.26446" lon="5.73376">
        <ele>663.8</ele>
        <time>2021-09-08T13:50:24Z</time>
      </trkpt>
      <trkpt lat="44.26429" lon="5.73376">
        <ele>663.2</ele>
        <time>2021-09-08T13:50:26Z</time>
      </trkpt>
      <trkpt lat="44.26421" lon="5.73376">
        <ele>663</ele>
        <time>2021-09-08T13:50:27Z</time>
      </trkpt>
      <trkpt lat="44.26408" lon="5.73373">
        <ele>662.7</ele>
        <time>2021-09-08T13:50:29Z</time>
      </trkpt>
      <trkpt lat="44.26402" lon="5.73372">
        <ele>662.7</ele>
        <time>2021-09-08T13:50:30Z</time>
      </trkpt>
      <trkpt lat="44.26391" lon="5.73367">
        <ele>662.6</ele>
        <time>2021-09-08T13:50:32Z</time>
      </trkpt>
      <trkpt lat="44.26382" lon="5.73361">
        <ele>662.6</ele>
        <time>2021-09-08T13:50:34Z</time>
      </trkpt>
      <trkpt lat="44.26377" lon="5.73356">
        <ele>662.6</ele>
        <time>2021-09-08T13:50:35Z</time>
      </trkpt>
      <trkpt lat="44.26373" lon="5.73353">
        <ele>662.6</ele>
        <time>2021-09-08T13:50:36Z</time>
      </trkpt>
      <trkpt lat="44.26365" lon="5.73345">
        <ele>662.5</ele>
        <time>2021-09-08T13:50:38Z</time>
      </trkpt>
      <trkpt lat="44.26355" lon="5.73338">
        <ele>662.4</ele>
        <time>2021-09-08T13:50:40Z</time>
      </trkpt>
      <trkpt lat="44.2635" lon="5.73336">
        <ele>662.4</ele>
        <time>2021-09-08T13:50:41Z</time>
      </trkpt>
      <trkpt lat="44.26345" lon="5.73335">
        <ele>662.3</ele>
        <time>2021-09-08T13:50:42Z</time>
      </trkpt>
      <trkpt lat="44.26334" lon="5.73337">
        <ele>661.6</ele>
        <time>2021-09-08T13:50:44Z</time>
      </trkpt>
      <trkpt lat="44.26328" lon="5.73341">
        <ele>661</ele>
        <time>2021-09-08T13:50:45Z</time>
      </trkpt>
      <trkpt lat="44.26316" lon="5.7335">
        <ele>659.7</ele>
        <time>2021-09-08T13:50:47Z</time>
      </trkpt>
      <trkpt lat="44.26306" lon="5.73357">
        <ele>658.6</ele>
        <time>2021-09-08T13:50:49Z</time>
      </trkpt>
      <trkpt lat="44.26302" lon="5.7336">
        <ele>658.2</ele>
        <time>2021-09-08T13:50:50Z</time>
      </trkpt>
      <trkpt lat="44.26299" lon="5.73361">
        <ele>658</ele>
        <time>2021-09-08T13:50:51Z</time>
      </trkpt>
      <trkpt lat="44.26292" lon="5.73362">
        <ele>657.3</ele>
        <time>2021-09-08T13:50:53Z</time>
      </trkpt>
      <trkpt lat="44.26284" lon="5.7336">
        <ele>656.6</ele>
        <time>2021-09-08T13:50:55Z</time>
      </trkpt>
      <trkpt lat="44.26281" lon="5.7336">
        <ele>656.3</ele>
        <time>2021-09-08T13:50:56Z</time>
      </trkpt>
      <trkpt lat="44.26278" lon="5.7336">
        <ele>656</ele>
        <time>2021-09-08T13:50:57Z</time>
      </trkpt>
      <trkpt lat="44.26275" lon="5.73359">
        <ele>655.8</ele>
        <time>2021-09-08T13:50:59Z</time>
      </trkpt>
      <trkpt lat="44.26273" lon="5.73361">
        <ele>655.6</ele>
        <time>2021-09-08T13:51:00Z</time>
      </trkpt>
      <trkpt lat="44.26269" lon="5.73365">
        <ele>654.3</ele>
        <time>2021-09-08T13:51:01Z</time>
      </trkpt>
      <trkpt lat="44.26263" lon="5.73371">
        <ele>653.1</ele>
        <time>2021-09-08T13:51:03Z</time>
      </trkpt>
      <trkpt lat="44.26258" lon="5.73376">
        <ele>652.1</ele>
        <time>2021-09-08T13:51:05Z</time>
      </trkpt>
      <trkpt lat="44.26256" lon="5.73379">
        <ele>651.6</ele>
        <time>2021-09-08T13:51:06Z</time>
      </trkpt>
      <trkpt lat="44.26254" lon="5.73381">
        <ele>651.3</ele>
        <time>2021-09-08T13:51:08Z</time>
      </trkpt>
      <trkpt lat="44.26253" lon="5.7338">
        <ele>651.2</ele>
        <time>2021-09-08T13:51:09Z</time>
      </trkpt>
      <trkpt lat="44.26253" lon="5.73381">
        <ele>651.2</ele>
        <time>2021-09-08T13:51:11Z</time>
      </trkpt>
      <trkpt lat="44.26253" lon="5.73381">
        <ele>651.2</ele>
        <time>2021-09-08T13:51:12Z</time>
      </trkpt>
      <trkpt lat="44.26254" lon="5.73381">
        <ele>651.1</ele>
        <time>2021-09-08T13:51:14Z</time>
      </trkpt>
      <trkpt lat="44.26254" lon="5.73381">
        <ele>651.1</ele>
        <time>2021-09-08T13:51:16Z</time>
      </trkpt>
      <trkpt lat="44.26254" lon="5.73381">
        <ele>651.1</ele>
        <time>2021-09-08T13:51:17Z</time>
      </trkpt>
      <trkpt lat="44.26255" lon="5.73384">
        <ele>650.7</ele>
        <time>2021-09-08T13:52:19Z</time>
      </trkpt>
      <trkpt lat="44.26257" lon="5.73394">
        <ele>650.6</ele>
        <time>2021-09-08T13:52:21Z</time>
      </trkpt>
      <trkpt lat="44.26259" lon="5.73401">
        <ele>650.5</ele>
        <time>2021-09-08T13:52:22Z</time>
      </trkpt>
      <trkpt lat="44.26261" lon="5.73414">
        <ele>650.3</ele>
        <time>2021-09-08T13:52:23Z</time>
      </trkpt>
      <trkpt lat="44.26263" lon="5.73426">
        <ele>650.2</ele>
        <time>2021-09-08T13:52:25Z</time>
      </trkpt>
      <trkpt lat="44.26266" lon="5.73441">
        <ele>650</ele>
        <time>2021-09-08T13:52:27Z</time>
      </trkpt>
      <trkpt lat="44.26268" lon="5.73452">
        <ele>649.8</ele>
        <time>2021-09-08T13:52:28Z</time>
      </trkpt>
      <trkpt lat="44.26268" lon="5.73467">
        <ele>649.6</ele>
        <time>2021-09-08T13:52:30Z</time>
      </trkpt>
      <trkpt lat="44.2627" lon="5.73484">
        <ele>649.4</ele>
        <time>2021-09-08T13:52:32Z</time>
      </trkpt>
      <trkpt lat="44.26271" lon="5.73492">
        <ele>649.3</ele>
        <time>2021-09-08T13:52:33Z</time>
      </trkpt>
      <trkpt lat="44.26271" lon="5.7351">
        <ele>649.1</ele>
        <time>2021-09-08T13:52:35Z</time>
      </trkpt>
      <trkpt lat="44.26272" lon="5.73518">
        <ele>649</ele>
        <time>2021-09-08T13:52:36Z</time>
      </trkpt>
      <trkpt lat="44.26273" lon="5.73527">
        <ele>649</ele>
        <time>2021-09-08T13:52:37Z</time>
      </trkpt>
      <trkpt lat="44.26274" lon="5.73534">
        <ele>648.9</ele>
        <time>2021-09-08T13:52:38Z</time>
      </trkpt>
      <trkpt lat="44.26277" lon="5.73548">
        <ele>648.8</ele>
        <time>2021-09-08T13:52:40Z</time>
      </trkpt>
      <trkpt lat="44.26278" lon="5.73554">
        <ele>648.7</ele>
        <time>2021-09-08T13:52:41Z</time>
      </trkpt>
      <trkpt lat="44.26279" lon="5.73562">
        <ele>648.6</ele>
        <time>2021-09-08T13:52:42Z</time>
      </trkpt>
      <trkpt lat="44.26283" lon="5.73573">
        <ele>648.5</ele>
        <time>2021-09-08T13:52:44Z</time>
      </trkpt>
      <trkpt lat="44.26284" lon="5.73578">
        <ele>648.5</ele>
        <time>2021-09-08T13:52:45Z</time>
      </trkpt>
      <trkpt lat="44.26287" lon="5.73584">
        <ele>648.4</ele>
        <time>2021-09-08T13:52:46Z</time>
      </trkpt>
      <trkpt lat="44.26291" lon="5.73595">
        <ele>648.4</ele>
        <time>2021-09-08T13:52:48Z</time>
      </trkpt>
      <trkpt lat="44.26294" lon="5.73605">
        <ele>648.3</ele>
        <time>2021-09-08T13:52:50Z</time>
      </trkpt>
      <trkpt lat="44.26296" lon="5.73619">
        <ele>648.3</ele>
        <time>2021-09-08T13:52:52Z</time>
      </trkpt>
      <trkpt lat="44.26297" lon="5.73626">
        <ele>648.2</ele>
        <time>2021-09-08T13:52:53Z</time>
      </trkpt>
      <trkpt lat="44.26298" lon="5.73639">
        <ele>648.2</ele>
        <time>2021-09-08T13:52:55Z</time>
      </trkpt>
      <trkpt lat="44.263" lon="5.7365">
        <ele>648.1</ele>
        <time>2021-09-08T13:52:57Z</time>
      </trkpt>
      <trkpt lat="44.26301" lon="5.73656">
        <ele>648.1</ele>
        <time>2021-09-08T13:52:58Z</time>
      </trkpt>
      <trkpt lat="44.263" lon="5.73665">
        <ele>648.1</ele>
        <time>2021-09-08T13:53:00Z</time>
      </trkpt>
      <trkpt lat="44.263" lon="5.73671">
        <ele>648</ele>
        <time>2021-09-08T13:53:01Z</time>
      </trkpt>
      <trkpt lat="44.26302" lon="5.7368">
        <ele>648</ele>
        <time>2021-09-08T13:53:02Z</time>
      </trkpt>
      <trkpt lat="44.26305" lon="5.73691">
        <ele>648</ele>
        <time>2021-09-08T13:53:04Z</time>
      </trkpt>
      <trkpt lat="44.26306" lon="5.73696">
        <ele>648</ele>
        <time>2021-09-08T13:53:05Z</time>
      </trkpt>
      <trkpt lat="44.26307" lon="5.73702">
        <ele>648</ele>
        <time>2021-09-08T13:53:06Z</time>
      </trkpt>
      <trkpt lat="44.26308" lon="5.73708">
        <ele>648</ele>
        <time>2021-09-08T13:53:07Z</time>
      </trkpt>
      <trkpt lat="44.26308" lon="5.73714">
        <ele>648</ele>
        <time>2021-09-08T13:53:08Z</time>
      </trkpt>
      <trkpt lat="44.26309" lon="5.7372">
        <ele>648</ele>
        <time>2021-09-08T13:53:09Z</time>
      </trkpt>
      <trkpt lat="44.2631" lon="5.7373">
        <ele>648</ele>
        <time>2021-09-08T13:53:10Z</time>
      </trkpt>
      <trkpt lat="44.26309" lon="5.73737">
        <ele>648.1</ele>
        <time>2021-09-08T13:53:11Z</time>
      </trkpt>
      <trkpt lat="44.26307" lon="5.73737">
        <ele>648.1</ele>
        <time>2021-09-08T13:53:13Z</time>
      </trkpt>
      <trkpt lat="44.2631" lon="5.7375">
        <ele>648.1</ele>
        <time>2021-09-08T13:53:15Z</time>
      </trkpt>
      <trkpt lat="44.26313" lon="5.73766">
        <ele>648.1</ele>
        <time>2021-09-08T13:53:16Z</time>
      </trkpt>
      <trkpt lat="44.26314" lon="5.73775">
        <ele>648.2</ele>
        <time>2021-09-08T13:53:17Z</time>
      </trkpt>
      <trkpt lat="44.26316" lon="5.73781">
        <ele>648.3</ele>
        <time>2021-09-08T13:53:18Z</time>
      </trkpt>
      <trkpt lat="44.26318" lon="5.73795">
        <ele>648.4</ele>
        <time>2021-09-08T13:53:20Z</time>
      </trkpt>
      <trkpt lat="44.26322" lon="5.738">
        <ele>648.4</ele>
        <time>2021-09-08T13:53:22Z</time>
      </trkpt>
      <trkpt lat="44.26323" lon="5.7381">
        <ele>648.5</ele>
        <time>2021-09-08T13:53:24Z</time>
      </trkpt>
      <trkpt lat="44.26323" lon="5.73818">
        <ele>648.6</ele>
        <time>2021-09-08T13:53:25Z</time>
      </trkpt>
      <trkpt lat="44.26324" lon="5.73824">
        <ele>648.6</ele>
        <time>2021-09-08T13:53:26Z</time>
      </trkpt>
      <trkpt lat="44.26324" lon="5.7383">
        <ele>648.7</ele>
        <time>2021-09-08T13:53:27Z</time>
      </trkpt>
      <trkpt lat="44.26324" lon="5.73837">
        <ele>648.8</ele>
        <time>2021-09-08T13:53:28Z</time>
      </trkpt>
      <trkpt lat="44.26324" lon="5.73844">
        <ele>648.9</ele>
        <time>2021-09-08T13:53:29Z</time>
      </trkpt>
      <trkpt lat="44.26324" lon="5.73854">
        <ele>649.1</ele>
        <time>2021-09-08T13:53:31Z</time>
      </trkpt>
      <trkpt lat="44.26324" lon="5.7386">
        <ele>649.2</ele>
        <time>2021-09-08T13:53:32Z</time>
      </trkpt>
      <trkpt lat="44.26324" lon="5.73871">
        <ele>649.4</ele>
        <time>2021-09-08T13:53:34Z</time>
      </trkpt>
      <trkpt lat="44.26325" lon="5.73876">
        <ele>649.5</ele>
        <time>2021-09-08T13:53:35Z</time>
      </trkpt>
      <trkpt lat="44.26325" lon="5.73884">
        <ele>649.6</ele>
        <time>2021-09-08T13:53:36Z</time>
      </trkpt>
      <trkpt lat="44.26325" lon="5.73889">
        <ele>649.7</ele>
        <time>2021-09-08T13:53:37Z</time>
      </trkpt>
      <trkpt lat="44.26326" lon="5.73894">
        <ele>649.7</ele>
        <time>2021-09-08T13:53:39Z</time>
      </trkpt>
      <trkpt lat="44.26327" lon="5.73901">
        <ele>649.8</ele>
        <time>2021-09-08T13:53:40Z</time>
      </trkpt>
      <trkpt lat="44.26326" lon="5.73908">
        <ele>649.9</ele>
        <time>2021-09-08T13:53:42Z</time>
      </trkpt>
      <trkpt lat="44.26326" lon="5.73914">
        <ele>650</ele>
        <time>2021-09-08T13:53:43Z</time>
      </trkpt>
      <trkpt lat="44.26326" lon="5.73919">
        <ele>650.1</ele>
        <time>2021-09-08T13:53:44Z</time>
      </trkpt>
      <trkpt lat="44.26326" lon="5.73925">
        <ele>650.1</ele>
        <time>2021-09-08T13:53:45Z</time>
      </trkpt>
      <trkpt lat="44.26326" lon="5.73931">
        <ele>650.2</ele>
        <time>2021-09-08T13:53:46Z</time>
      </trkpt>
      <trkpt lat="44.26326" lon="5.73937">
        <ele>650.2</ele>
        <time>2021-09-08T13:53:48Z</time>
      </trkpt>
      <trkpt lat="44.26326" lon="5.73943">
        <ele>650.3</ele>
        <time>2021-09-08T13:53:49Z</time>
      </trkpt>
      <trkpt lat="44.26326" lon="5.73949">
        <ele>650.3</ele>
        <time>2021-09-08T13:53:50Z</time>
      </trkpt>
      <trkpt lat="44.26326" lon="5.73954">
        <ele>650.4</ele>
        <time>2021-09-08T13:53:51Z</time>
      </trkpt>
      <trkpt lat="44.26327" lon="5.73965">
        <ele>650.4</ele>
        <time>2021-09-08T13:53:53Z</time>
      </trkpt>
      <trkpt lat="44.26327" lon="5.7397">
        <ele>650.5</ele>
        <time>2021-09-08T13:53:54Z</time>
      </trkpt>
      <trkpt lat="44.26328" lon="5.73979">
        <ele>650.5</ele>
        <time>2021-09-08T13:53:55Z</time>
      </trkpt>
      <trkpt lat="44.26329" lon="5.73985">
        <ele>650.5</ele>
        <time>2021-09-08T13:53:56Z</time>
      </trkpt>
      <trkpt lat="44.2633" lon="5.73992">
        <ele>650.6</ele>
        <time>2021-09-08T13:53:57Z</time>
      </trkpt>
      <trkpt lat="44.26331" lon="5.74">
        <ele>650.5</ele>
        <time>2021-09-08T13:53:59Z</time>
      </trkpt>
      <trkpt lat="44.26331" lon="5.74005">
        <ele>650.5</ele>
        <time>2021-09-08T13:54:00Z</time>
      </trkpt>
      <trkpt lat="44.26333" lon="5.74013">
        <ele>650.5</ele>
        <time>2021-09-08T13:54:02Z</time>
      </trkpt>
      <trkpt lat="44.26333" lon="5.74019">
        <ele>650.5</ele>
        <time>2021-09-08T13:54:03Z</time>
      </trkpt>
      <trkpt lat="44.26334" lon="5.74027">
        <ele>650.4</ele>
        <time>2021-09-08T13:54:04Z</time>
      </trkpt>
      <trkpt lat="44.26335" lon="5.74034">
        <ele>650.3</ele>
        <time>2021-09-08T13:54:05Z</time>
      </trkpt>
      <trkpt lat="44.26336" lon="5.74041">
        <ele>650.3</ele>
        <time>2021-09-08T13:54:07Z</time>
      </trkpt>
      <trkpt lat="44.26336" lon="5.74048">
        <ele>650.2</ele>
        <time>2021-09-08T13:54:08Z</time>
      </trkpt>
      <trkpt lat="44.26336" lon="5.74054">
        <ele>650.1</ele>
        <time>2021-09-08T13:54:09Z</time>
      </trkpt>
      <trkpt lat="44.26338" lon="5.74066">
        <ele>650</ele>
        <time>2021-09-08T13:54:10Z</time>
      </trkpt>
      <trkpt lat="44.26338" lon="5.74072">
        <ele>650</ele>
        <time>2021-09-08T13:54:11Z</time>
      </trkpt>
      <trkpt lat="44.26338" lon="5.7408">
        <ele>649.9</ele>
        <time>2021-09-08T13:54:12Z</time>
      </trkpt>
      <trkpt lat="44.26339" lon="5.74096">
        <ele>649.8</ele>
        <time>2021-09-08T13:54:14Z</time>
      </trkpt>
      <trkpt lat="44.26341" lon="5.74111">
        <ele>649.8</ele>
        <time>2021-09-08T13:54:16Z</time>
      </trkpt>
      <trkpt lat="44.26341" lon="5.74118">
        <ele>649.7</ele>
        <time>2021-09-08T13:54:17Z</time>
      </trkpt>
      <trkpt lat="44.26342" lon="5.74126">
        <ele>649.7</ele>
        <time>2021-09-08T13:54:18Z</time>
      </trkpt>
      <trkpt lat="44.26343" lon="5.74142">
        <ele>649.6</ele>
        <time>2021-09-08T13:54:20Z</time>
      </trkpt>
      <trkpt lat="44.26344" lon="5.7415">
        <ele>649.5</ele>
        <time>2021-09-08T13:54:21Z</time>
      </trkpt>
      <trkpt lat="44.26344" lon="5.74159">
        <ele>649.5</ele>
        <time>2021-09-08T13:54:22Z</time>
      </trkpt>
      <trkpt lat="44.26345" lon="5.74174">
        <ele>649.4</ele>
        <time>2021-09-08T13:54:24Z</time>
      </trkpt>
      <trkpt lat="44.26345" lon="5.7419">
        <ele>649.3</ele>
        <time>2021-09-08T13:54:26Z</time>
      </trkpt>
      <trkpt lat="44.26345" lon="5.74198">
        <ele>649.3</ele>
        <time>2021-09-08T13:54:27Z</time>
      </trkpt>
      <trkpt lat="44.26345" lon="5.74206">
        <ele>649.2</ele>
        <time>2021-09-08T13:54:28Z</time>
      </trkpt>
      <trkpt lat="44.26345" lon="5.74214">
        <ele>649.2</ele>
        <time>2021-09-08T13:54:29Z</time>
      </trkpt>
      <trkpt lat="44.26345" lon="5.74231">
        <ele>649.1</ele>
        <time>2021-09-08T13:54:31Z</time>
      </trkpt>
      <trkpt lat="44.26346" lon="5.74249">
        <ele>649</ele>
        <time>2021-09-08T13:54:33Z</time>
      </trkpt>
      <trkpt lat="44.26347" lon="5.74257">
        <ele>648.9</ele>
        <time>2021-09-08T13:54:34Z</time>
      </trkpt>
      <trkpt lat="44.26347" lon="5.74274">
        <ele>648.7</ele>
        <time>2021-09-08T13:54:36Z</time>
      </trkpt>
      <trkpt lat="44.26348" lon="5.74291">
        <ele>648.5</ele>
        <time>2021-09-08T13:54:38Z</time>
      </trkpt>
      <trkpt lat="44.26348" lon="5.74299">
        <ele>648.4</ele>
        <time>2021-09-08T13:54:39Z</time>
      </trkpt>
      <trkpt lat="44.2635" lon="5.74316">
        <ele>648.1</ele>
        <time>2021-09-08T13:54:41Z</time>
      </trkpt>
      <trkpt lat="44.2635" lon="5.74333">
        <ele>647.7</ele>
        <time>2021-09-08T13:54:43Z</time>
      </trkpt>
      <trkpt lat="44.26351" lon="5.74343">
        <ele>647.4</ele>
        <time>2021-09-08T13:54:44Z</time>
      </trkpt>
      <trkpt lat="44.26353" lon="5.74363">
        <ele>646.7</ele>
        <time>2021-09-08T13:54:46Z</time>
      </trkpt>
      <trkpt lat="44.26356" lon="5.74384">
        <ele>645.9</ele>
        <time>2021-09-08T13:54:48Z</time>
      </trkpt>
      <trkpt lat="44.26358" lon="5.74395">
        <ele>645.6</ele>
        <time>2021-09-08T13:54:49Z</time>
      </trkpt>
      <trkpt lat="44.2636" lon="5.74407">
        <ele>645.3</ele>
        <time>2021-09-08T13:54:50Z</time>
      </trkpt>
      <trkpt lat="44.26363" lon="5.74432">
        <ele>644.5</ele>
        <time>2021-09-08T13:54:52Z</time>
      </trkpt>
      <trkpt lat="44.26364" lon="5.74444">
        <ele>644.1</ele>
        <time>2021-09-08T13:54:53Z</time>
      </trkpt>
      <trkpt lat="44.26365" lon="5.74456">
        <ele>643.8</ele>
        <time>2021-09-08T13:54:54Z</time>
      </trkpt>
      <trkpt lat="44.26365" lon="5.74476">
        <ele>643.3</ele>
        <time>2021-09-08T13:54:56Z</time>
      </trkpt>
      <trkpt lat="44.26364" lon="5.74483">
        <ele>643.2</ele>
        <time>2021-09-08T13:54:57Z</time>
      </trkpt>
      <trkpt lat="44.26362" lon="5.74489">
        <ele>643.1</ele>
        <time>2021-09-08T13:54:58Z</time>
      </trkpt>
      <trkpt lat="44.26358" lon="5.74496">
        <ele>643</ele>
        <time>2021-09-08T13:54:59Z</time>
      </trkpt>
      <trkpt lat="44.26352" lon="5.74503">
        <ele>642.9</ele>
        <time>2021-09-08T13:55:00Z</time>
      </trkpt>
      <trkpt lat="44.2634" lon="5.74521">
        <ele>642.7</ele>
        <time>2021-09-08T13:55:02Z</time>
      </trkpt>
      <trkpt lat="44.26328" lon="5.7454">
        <ele>642.5</ele>
        <time>2021-09-08T13:55:04Z</time>
      </trkpt>
      <trkpt lat="44.26318" lon="5.74556">
        <ele>642.3</ele>
        <time>2021-09-08T13:55:06Z</time>
      </trkpt>
      <trkpt lat="44.26307" lon="5.74574">
        <ele>642</ele>
        <time>2021-09-08T13:55:08Z</time>
      </trkpt>
      <trkpt lat="44.26296" lon="5.74593">
        <ele>641.7</ele>
        <time>2021-09-08T13:55:10Z</time>
      </trkpt>
      <trkpt lat="44.26291" lon="5.74602">
        <ele>641.5</ele>
        <time>2021-09-08T13:55:11Z</time>
      </trkpt>
      <trkpt lat="44.26286" lon="5.74621">
        <ele>641</ele>
        <time>2021-09-08T13:55:13Z</time>
      </trkpt>
      <trkpt lat="44.26284" lon="5.74632">
        <ele>640.8</ele>
        <time>2021-09-08T13:55:14Z</time>
      </trkpt>
      <trkpt lat="44.26285" lon="5.74655">
        <ele>640.1</ele>
        <time>2021-09-08T13:55:16Z</time>
      </trkpt>
      <trkpt lat="44.26288" lon="5.74666">
        <ele>639.8</ele>
        <time>2021-09-08T13:55:17Z</time>
      </trkpt>
      <trkpt lat="44.26295" lon="5.74687">
        <ele>639.1</ele>
        <time>2021-09-08T13:55:19Z</time>
      </trkpt>
      <trkpt lat="44.26302" lon="5.74706">
        <ele>638.4</ele>
        <time>2021-09-08T13:55:21Z</time>
      </trkpt>
      <trkpt lat="44.2631" lon="5.74727">
        <ele>637.7</ele>
        <time>2021-09-08T13:55:23Z</time>
      </trkpt>
      <trkpt lat="44.26314" lon="5.74738">
        <ele>637.4</ele>
        <time>2021-09-08T13:55:24Z</time>
      </trkpt>
      <trkpt lat="44.26321" lon="5.74761">
        <ele>636.7</ele>
        <time>2021-09-08T13:55:26Z</time>
      </trkpt>
      <trkpt lat="44.26324" lon="5.74773">
        <ele>636.3</ele>
        <time>2021-09-08T13:55:27Z</time>
      </trkpt>
      <trkpt lat="44.26334" lon="5.74795">
        <ele>635.6</ele>
        <time>2021-09-08T13:55:29Z</time>
      </trkpt>
      <trkpt lat="44.2634" lon="5.74806">
        <ele>635.2</ele>
        <time>2021-09-08T13:55:30Z</time>
      </trkpt>
      <trkpt lat="44.26352" lon="5.74827">
        <ele>634.3</ele>
        <time>2021-09-08T13:55:32Z</time>
      </trkpt>
      <trkpt lat="44.26367" lon="5.74848">
        <ele>633.5</ele>
        <time>2021-09-08T13:55:34Z</time>
      </trkpt>
      <trkpt lat="44.26373" lon="5.74858">
        <ele>633</ele>
        <time>2021-09-08T13:55:35Z</time>
      </trkpt>
      <trkpt lat="44.26379" lon="5.74869">
        <ele>632.6</ele>
        <time>2021-09-08T13:55:36Z</time>
      </trkpt>
      <trkpt lat="44.26391" lon="5.74888">
        <ele>631.9</ele>
        <time>2021-09-08T13:55:38Z</time>
      </trkpt>
      <trkpt lat="44.26398" lon="5.7491">
        <ele>631.2</ele>
        <time>2021-09-08T13:55:40Z</time>
      </trkpt>
      <trkpt lat="44.26404" lon="5.74933">
        <ele>630.7</ele>
        <time>2021-09-08T13:55:42Z</time>
      </trkpt>
      <trkpt lat="44.26413" lon="5.74955">
        <ele>630.2</ele>
        <time>2021-09-08T13:55:44Z</time>
      </trkpt>
      <trkpt lat="44.26422" lon="5.74977">
        <ele>629.8</ele>
        <time>2021-09-08T13:55:46Z</time>
      </trkpt>
      <trkpt lat="44.26432" lon="5.74996">
        <ele>629.5</ele>
        <time>2021-09-08T13:55:48Z</time>
      </trkpt>
      <trkpt lat="44.26443" lon="5.75013">
        <ele>629.4</ele>
        <time>2021-09-08T13:55:50Z</time>
      </trkpt>
      <trkpt lat="44.26454" lon="5.75028">
        <ele>629.4</ele>
        <time>2021-09-08T13:55:52Z</time>
      </trkpt>
      <trkpt lat="44.26459" lon="5.75036">
        <ele>629.4</ele>
        <time>2021-09-08T13:55:53Z</time>
      </trkpt>
      <trkpt lat="44.26464" lon="5.75045">
        <ele>629.4</ele>
        <time>2021-09-08T13:55:54Z</time>
      </trkpt>
      <trkpt lat="44.26473" lon="5.75063">
        <ele>629.4</ele>
        <time>2021-09-08T13:55:56Z</time>
      </trkpt>
      <trkpt lat="44.26478" lon="5.75072">
        <ele>629.4</ele>
        <time>2021-09-08T13:55:57Z</time>
      </trkpt>
      <trkpt lat="44.26483" lon="5.7508">
        <ele>629.4</ele>
        <time>2021-09-08T13:55:58Z</time>
      </trkpt>
      <trkpt lat="44.26493" lon="5.75095">
        <ele>629.4</ele>
        <time>2021-09-08T13:56:00Z</time>
      </trkpt>
      <trkpt lat="44.26503" lon="5.75112">
        <ele>629.4</ele>
        <time>2021-09-08T13:56:02Z</time>
      </trkpt>
      <trkpt lat="44.26508" lon="5.7512">
        <ele>629.3</ele>
        <time>2021-09-08T13:56:03Z</time>
      </trkpt>
      <trkpt lat="44.26519" lon="5.75136">
        <ele>629.2</ele>
        <time>2021-09-08T13:56:05Z</time>
      </trkpt>
      <trkpt lat="44.26524" lon="5.75144">
        <ele>629.1</ele>
        <time>2021-09-08T13:56:06Z</time>
      </trkpt>
      <trkpt lat="44.2653" lon="5.75151">
        <ele>629</ele>
        <time>2021-09-08T13:56:07Z</time>
      </trkpt>
      <trkpt lat="44.26535" lon="5.75159">
        <ele>628.9</ele>
        <time>2021-09-08T13:56:08Z</time>
      </trkpt>
      <trkpt lat="44.26541" lon="5.75166">
        <ele>628.8</ele>
        <time>2021-09-08T13:56:09Z</time>
      </trkpt>
      <trkpt lat="44.26551" lon="5.7518">
        <ele>628.5</ele>
        <time>2021-09-08T13:56:11Z</time>
      </trkpt>
      <trkpt lat="44.26556" lon="5.75187">
        <ele>628.4</ele>
        <time>2021-09-08T13:56:12Z</time>
      </trkpt>
      <trkpt lat="44.26567" lon="5.75203">
        <ele>628.1</ele>
        <time>2021-09-08T13:56:14Z</time>
      </trkpt>
      <trkpt lat="44.26572" lon="5.75211">
        <ele>628</ele>
        <time>2021-09-08T13:56:15Z</time>
      </trkpt>
      <trkpt lat="44.26577" lon="5.75219">
        <ele>627.8</ele>
        <time>2021-09-08T13:56:16Z</time>
      </trkpt>
      <trkpt lat="44.26582" lon="5.75227">
        <ele>627.7</ele>
        <time>2021-09-08T13:56:17Z</time>
      </trkpt>
      <trkpt lat="44.26586" lon="5.75235">
        <ele>627.6</ele>
        <time>2021-09-08T13:56:18Z</time>
      </trkpt>
      <trkpt lat="44.26594" lon="5.75251">
        <ele>627.3</ele>
        <time>2021-09-08T13:56:20Z</time>
      </trkpt>
      <trkpt lat="44.266" lon="5.75269">
        <ele>627.1</ele>
        <time>2021-09-08T13:56:22Z</time>
      </trkpt>
      <trkpt lat="44.26606" lon="5.75289">
        <ele>626.8</ele>
        <time>2021-09-08T13:56:24Z</time>
      </trkpt>
      <trkpt lat="44.26609" lon="5.753">
        <ele>626.7</ele>
        <time>2021-09-08T13:56:25Z</time>
      </trkpt>
      <trkpt lat="44.26612" lon="5.7531">
        <ele>626.6</ele>
        <time>2021-09-08T13:56:26Z</time>
      </trkpt>
      <trkpt lat="44.26614" lon="5.7532">
        <ele>626.5</ele>
        <time>2021-09-08T13:56:27Z</time>
      </trkpt>
      <trkpt lat="44.26617" lon="5.7533">
        <ele>626.4</ele>
        <time>2021-09-08T13:56:28Z</time>
      </trkpt>
      <trkpt lat="44.26625" lon="5.75349">
        <ele>626.2</ele>
        <time>2021-09-08T13:56:30Z</time>
      </trkpt>
      <trkpt lat="44.26628" lon="5.75358">
        <ele>626.1</ele>
        <time>2021-09-08T13:56:31Z</time>
      </trkpt>
      <trkpt lat="44.26631" lon="5.75368">
        <ele>626.1</ele>
        <time>2021-09-08T13:56:32Z</time>
      </trkpt>
      <trkpt lat="44.2664" lon="5.75385">
        <ele>625.9</ele>
        <time>2021-09-08T13:56:34Z</time>
      </trkpt>
      <trkpt lat="44.26645" lon="5.75392">
        <ele>625.8</ele>
        <time>2021-09-08T13:56:35Z</time>
      </trkpt>
      <trkpt lat="44.2665" lon="5.754">
        <ele>625.8</ele>
        <time>2021-09-08T13:56:36Z</time>
      </trkpt>
      <trkpt lat="44.26659" lon="5.75418">
        <ele>625.7</ele>
        <time>2021-09-08T13:56:38Z</time>
      </trkpt>
      <trkpt lat="44.26662" lon="5.75428">
        <ele>625.7</ele>
        <time>2021-09-08T13:56:39Z</time>
      </trkpt>
      <trkpt lat="44.26668" lon="5.75448">
        <ele>625.7</ele>
        <time>2021-09-08T13:56:41Z</time>
      </trkpt>
      <trkpt lat="44.26672" lon="5.75467">
        <ele>625.7</ele>
        <time>2021-09-08T13:56:43Z</time>
      </trkpt>
      <trkpt lat="44.26673" lon="5.75477">
        <ele>625.8</ele>
        <time>2021-09-08T13:56:44Z</time>
      </trkpt>
      <trkpt lat="44.26674" lon="5.75496">
        <ele>625.9</ele>
        <time>2021-09-08T13:56:46Z</time>
      </trkpt>
      <trkpt lat="44.26676" lon="5.75504">
        <ele>625.9</ele>
        <time>2021-09-08T13:56:47Z</time>
      </trkpt>
      <trkpt lat="44.26679" lon="5.75519">
        <ele>626.1</ele>
        <time>2021-09-08T13:56:49Z</time>
      </trkpt>
      <trkpt lat="44.2668" lon="5.75528">
        <ele>626.2</ele>
        <time>2021-09-08T13:56:50Z</time>
      </trkpt>
      <trkpt lat="44.26683" lon="5.75544">
        <ele>626.4</ele>
        <time>2021-09-08T13:56:52Z</time>
      </trkpt>
      <trkpt lat="44.26684" lon="5.75552">
        <ele>626.5</ele>
        <time>2021-09-08T13:56:53Z</time>
      </trkpt>
      <trkpt lat="44.26686" lon="5.75569">
        <ele>626.7</ele>
        <time>2021-09-08T13:56:55Z</time>
      </trkpt>
      <trkpt lat="44.26688" lon="5.75576">
        <ele>626.8</ele>
        <time>2021-09-08T13:56:56Z</time>
      </trkpt>
      <trkpt lat="44.2669" lon="5.75583">
        <ele>626.9</ele>
        <time>2021-09-08T13:56:57Z</time>
      </trkpt>
      <trkpt lat="44.26691" lon="5.7559">
        <ele>627</ele>
        <time>2021-09-08T13:56:58Z</time>
      </trkpt>
      <trkpt lat="44.26694" lon="5.75606">
        <ele>627.3</ele>
        <time>2021-09-08T13:57:00Z</time>
      </trkpt>
      <trkpt lat="44.26696" lon="5.7562">
        <ele>627.4</ele>
        <time>2021-09-08T13:57:02Z</time>
      </trkpt>
      <trkpt lat="44.26699" lon="5.7563">
        <ele>627.5</ele>
        <time>2021-09-08T13:57:04Z</time>
      </trkpt>
      <trkpt lat="44.26705" lon="5.7564">
        <ele>627.6</ele>
        <time>2021-09-08T13:57:06Z</time>
      </trkpt>
      <trkpt lat="44.26713" lon="5.75649">
        <ele>627.6</ele>
        <time>2021-09-08T13:57:08Z</time>
      </trkpt>
      <trkpt lat="44.2672" lon="5.75656">
        <ele>627.6</ele>
        <time>2021-09-08T13:57:10Z</time>
      </trkpt>
      <trkpt lat="44.26724" lon="5.75658">
        <ele>627.6</ele>
        <time>2021-09-08T13:57:12Z</time>
      </trkpt>
      <trkpt lat="44.26724" lon="5.75667">
        <ele>627.5</ele>
        <time>2021-09-08T13:57:13Z</time>
      </trkpt>
      <trkpt lat="44.26724" lon="5.75672">
        <ele>627.4</ele>
        <time>2021-09-08T13:57:14Z</time>
      </trkpt>
      <trkpt lat="44.26717" lon="5.75683">
        <ele>627.2</ele>
        <time>2021-09-08T13:57:15Z</time>
      </trkpt>
      <trkpt lat="44.26708" lon="5.75697">
        <ele>626.9</ele>
        <time>2021-09-08T13:57:17Z</time>
      </trkpt>
      <trkpt lat="44.26703" lon="5.75703">
        <ele>626.8</ele>
        <time>2021-09-08T13:57:18Z</time>
      </trkpt>
      <trkpt lat="44.26696" lon="5.75719">
        <ele>626.5</ele>
        <time>2021-09-08T13:57:20Z</time>
      </trkpt>
      <trkpt lat="44.26691" lon="5.75734">
        <ele>626.3</ele>
        <time>2021-09-08T13:57:22Z</time>
      </trkpt>
      <trkpt lat="44.26689" lon="5.75743">
        <ele>626.2</ele>
        <time>2021-09-08T13:57:23Z</time>
      </trkpt>
      <trkpt lat="44.26688" lon="5.75751">
        <ele>626.2</ele>
        <time>2021-09-08T13:57:24Z</time>
      </trkpt>
      <trkpt lat="44.26687" lon="5.75768">
        <ele>626.1</ele>
        <time>2021-09-08T13:57:26Z</time>
      </trkpt>
      <trkpt lat="44.26681" lon="5.75782">
        <ele>626.1</ele>
        <time>2021-09-08T13:57:28Z</time>
      </trkpt>
      <trkpt lat="44.26676" lon="5.75787">
        <ele>625.3</ele>
        <time>2021-09-08T13:57:29Z</time>
      </trkpt>
      <trkpt lat="44.2667" lon="5.7579">
        <ele>625.1</ele>
        <time>2021-09-08T13:57:30Z</time>
      </trkpt>
      <trkpt lat="44.26657" lon="5.75792">
        <ele>624.7</ele>
        <time>2021-09-08T13:57:32Z</time>
      </trkpt>
      <trkpt lat="44.26643" lon="5.75792">
        <ele>624.5</ele>
        <time>2021-09-08T13:57:34Z</time>
      </trkpt>
      <trkpt lat="44.26629" lon="5.75793">
        <ele>624.4</ele>
        <time>2021-09-08T13:57:36Z</time>
      </trkpt>
      <trkpt lat="44.26618" lon="5.75794">
        <ele>624.3</ele>
        <time>2021-09-08T13:57:38Z</time>
      </trkpt>
      <trkpt lat="44.26613" lon="5.75794">
        <ele>624.2</ele>
        <time>2021-09-08T13:57:39Z</time>
      </trkpt>
      <trkpt lat="44.26607" lon="5.75794">
        <ele>624.2</ele>
        <time>2021-09-08T13:57:41Z</time>
      </trkpt>
      <trkpt lat="44.26604" lon="5.75795">
        <ele>624.2</ele>
        <time>2021-09-08T13:57:42Z</time>
      </trkpt>
      <trkpt lat="44.26603" lon="5.75795">
        <ele>624.2</ele>
        <time>2021-09-08T13:57:43Z</time>
      </trkpt>
      <trkpt lat="44.26602" lon="5.75795">
        <ele>624.2</ele>
        <time>2021-09-08T13:57:44Z</time>
      </trkpt>
      <trkpt lat="44.266" lon="5.75795">
        <ele>624.2</ele>
        <time>2021-09-08T13:57:45Z</time>
      </trkpt>
      <trkpt lat="44.26599" lon="5.75795">
        <ele>624.2</ele>
        <time>2021-09-08T13:57:47Z</time>
      </trkpt>
      <trkpt lat="44.26599" lon="5.75795">
        <ele>624.2</ele>
        <time>2021-09-08T13:57:48Z</time>
      </trkpt>
      <trkpt lat="44.26602" lon="5.75796">
        <ele>624.2</ele>
        <time>2021-09-08T13:57:50Z</time>
      </trkpt>
      <trkpt lat="44.26602" lon="5.75797">
        <ele>624.2</ele>
        <time>2021-09-08T13:57:51Z</time>
      </trkpt>
      <trkpt lat="44.26602" lon="5.75797">
        <ele>624.2</ele>
        <time>2021-09-08T13:57:53Z</time>
      </trkpt>
      <trkpt lat="44.26602" lon="5.75797">
        <ele>624.2</ele>
        <time>2021-09-08T13:57:55Z</time>
      </trkpt>
      <trkpt lat="44.26624" lon="5.75789">
        <ele>624.3</ele>
        <time>2021-09-08T13:58:20Z</time>
      </trkpt>
      <trkpt lat="44.26631" lon="5.75786">
        <ele>624.4</ele>
        <time>2021-09-08T13:58:22Z</time>
      </trkpt>
      <trkpt lat="44.26638" lon="5.75785">
        <ele>624.5</ele>
        <time>2021-09-08T13:58:23Z</time>
      </trkpt>
      <trkpt lat="44.26642" lon="5.75784">
        <ele>624.5</ele>
        <time>2021-09-08T13:58:24Z</time>
      </trkpt>
      <trkpt lat="44.26653" lon="5.75785">
        <ele>624.6</ele>
        <time>2021-09-08T13:58:26Z</time>
      </trkpt>
      <trkpt lat="44.26662" lon="5.75786">
        <ele>624.8</ele>
        <time>2021-09-08T13:58:28Z</time>
      </trkpt>
      <trkpt lat="44.26669" lon="5.75786">
        <ele>625</ele>
        <time>2021-09-08T13:58:30Z</time>
      </trkpt>
      <trkpt lat="44.26675" lon="5.75784">
        <ele>625.3</ele>
        <time>2021-09-08T13:58:32Z</time>
      </trkpt>
      <trkpt lat="44.26678" lon="5.75783">
        <ele>625.4</ele>
        <time>2021-09-08T13:58:33Z</time>
      </trkpt>
      <trkpt lat="44.26679" lon="5.75782">
        <ele>625.5</ele>
        <time>2021-09-08T13:58:34Z</time>
      </trkpt>
      <trkpt lat="44.26684" lon="5.75782">
        <ele>625.7</ele>
        <time>2021-09-08T13:58:36Z</time>
      </trkpt>
      <trkpt lat="44.26686" lon="5.75783">
        <ele>625.8</ele>
        <time>2021-09-08T13:58:38Z</time>
      </trkpt>
      <trkpt lat="44.26687" lon="5.75784">
        <ele>625.8</ele>
        <time>2021-09-08T13:58:39Z</time>
      </trkpt>
      <trkpt lat="44.26688" lon="5.75784">
        <ele>625.9</ele>
        <time>2021-09-08T13:58:40Z</time>
      </trkpt>
      <trkpt lat="44.26688" lon="5.75783">
        <ele>626.1</ele>
        <time>2021-09-08T13:58:42Z</time>
      </trkpt>
      <trkpt lat="44.26688" lon="5.75783">
        <ele>626.1</ele>
        <time>2021-09-08T13:58:43Z</time>
      </trkpt>
      <trkpt lat="44.26688" lon="5.75783">
        <ele>626.1</ele>
        <time>2021-09-08T13:58:44Z</time>
      </trkpt>
      <trkpt lat="44.26689" lon="5.75783">
        <ele>626.1</ele>
        <time>2021-09-08T13:58:45Z</time>
      </trkpt>
      <trkpt lat="44.26689" lon="5.75783">
        <ele>626.1</ele>
        <time>2021-09-08T13:58:47Z</time>
      </trkpt>
      <trkpt lat="44.26689" lon="5.75782">
        <ele>626.1</ele>
        <time>2021-09-08T13:58:49Z</time>
      </trkpt>
      <trkpt lat="44.26689" lon="5.75782">
        <ele>626.1</ele>
        <time>2021-09-08T13:58:50Z</time>
      </trkpt>
      <trkpt lat="44.26704" lon="5.75812">
        <ele>626.1</ele>
        <time>2021-09-08T13:59:14Z</time>
      </trkpt>
      <trkpt lat="44.26703" lon="5.75822">
        <ele>626.1</ele>
        <time>2021-09-08T13:59:16Z</time>
      </trkpt>
      <trkpt lat="44.2671" lon="5.75847">
        <ele>626</ele>
        <time>2021-09-08T13:59:17Z</time>
      </trkpt>
      <trkpt lat="44.26712" lon="5.75851">
        <ele>626</ele>
        <time>2021-09-08T13:59:18Z</time>
      </trkpt>
      <trkpt lat="44.26714" lon="5.75859">
        <ele>626</ele>
        <time>2021-09-08T13:59:19Z</time>
      </trkpt>
      <trkpt lat="44.26715" lon="5.75867">
        <ele>625.9</ele>
        <time>2021-09-08T13:59:20Z</time>
      </trkpt>
      <trkpt lat="44.26719" lon="5.75879">
        <ele>625.9</ele>
        <time>2021-09-08T13:59:22Z</time>
      </trkpt>
      <trkpt lat="44.26723" lon="5.7589">
        <ele>625.9</ele>
        <time>2021-09-08T13:59:24Z</time>
      </trkpt>
      <trkpt lat="44.26725" lon="5.75896">
        <ele>625.9</ele>
        <time>2021-09-08T13:59:25Z</time>
      </trkpt>
      <trkpt lat="44.26727" lon="5.75902">
        <ele>625.9</ele>
        <time>2021-09-08T13:59:26Z</time>
      </trkpt>
      <trkpt lat="44.26732" lon="5.75913">
        <ele>625.9</ele>
        <time>2021-09-08T13:59:28Z</time>
      </trkpt>
      <trkpt lat="44.26736" lon="5.75924">
        <ele>625.9</ele>
        <time>2021-09-08T13:59:30Z</time>
      </trkpt>
      <trkpt lat="44.26742" lon="5.75936">
        <ele>626</ele>
        <time>2021-09-08T13:59:32Z</time>
      </trkpt>
      <trkpt lat="44.26748" lon="5.75946">
        <ele>626</ele>
        <time>2021-09-08T13:59:34Z</time>
      </trkpt>
      <trkpt lat="44.2675" lon="5.75951">
        <ele>626</ele>
        <time>2021-09-08T13:59:35Z</time>
      </trkpt>
      <trkpt lat="44.26753" lon="5.75957">
        <ele>626</ele>
        <time>2021-09-08T13:59:36Z</time>
      </trkpt>
      <trkpt lat="44.26755" lon="5.75963">
        <ele>626</ele>
        <time>2021-09-08T13:59:37Z</time>
      </trkpt>
      <trkpt lat="44.2676" lon="5.75975">
        <ele>626</ele>
        <time>2021-09-08T13:59:39Z</time>
      </trkpt>
      <trkpt lat="44.26763" lon="5.75979">
        <ele>626.1</ele>
        <time>2021-09-08T13:59:40Z</time>
      </trkpt>
      <trkpt lat="44.26766" lon="5.75989">
        <ele>626.1</ele>
        <time>2021-09-08T13:59:42Z</time>
      </trkpt>
      <trkpt lat="44.2677" lon="5.75996">
        <ele>626.1</ele>
        <time>2021-09-08T13:59:43Z</time>
      </trkpt>
      <trkpt lat="44.26773" lon="5.76001">
        <ele>626.1</ele>
        <time>2021-09-08T13:59:44Z</time>
      </trkpt>
      <trkpt lat="44.26776" lon="5.76005">
        <ele>626.1</ele>
        <time>2021-09-08T13:59:45Z</time>
      </trkpt>
      <trkpt lat="44.2678" lon="5.76011">
        <ele>626.1</ele>
        <time>2021-09-08T13:59:46Z</time>
      </trkpt>
      <trkpt lat="44.26787" lon="5.76017">
        <ele>626.1</ele>
        <time>2021-09-08T13:59:48Z</time>
      </trkpt>
      <trkpt lat="44.26792" lon="5.76021">
        <ele>626.1</ele>
        <time>2021-09-08T13:59:49Z</time>
      </trkpt>
      <trkpt lat="44.26797" lon="5.76026">
        <ele>626.1</ele>
        <time>2021-09-08T13:59:50Z</time>
      </trkpt>
      <trkpt lat="44.26802" lon="5.76031">
        <ele>626.1</ele>
        <time>2021-09-08T13:59:51Z</time>
      </trkpt>
      <trkpt lat="44.26811" lon="5.7604">
        <ele>626</ele>
        <time>2021-09-08T13:59:53Z</time>
      </trkpt>
      <trkpt lat="44.26816" lon="5.76045">
        <ele>626</ele>
        <time>2021-09-08T13:59:54Z</time>
      </trkpt>
      <trkpt lat="44.26824" lon="5.76054">
        <ele>626</ele>
        <time>2021-09-08T13:59:56Z</time>
      </trkpt>
      <trkpt lat="44.26829" lon="5.76063">
        <ele>626.1</ele>
        <time>2021-09-08T13:59:58Z</time>
      </trkpt>
      <trkpt lat="44.26835" lon="5.76071">
        <ele>626.1</ele>
        <time>2021-09-08T14:00:00Z</time>
      </trkpt>
      <trkpt lat="44.26843" lon="5.7608">
        <ele>626.1</ele>
        <time>2021-09-08T14:00:02Z</time>
      </trkpt>
      <trkpt lat="44.2685" lon="5.7609">
        <ele>626.1</ele>
        <time>2021-09-08T14:00:04Z</time>
      </trkpt>
      <trkpt lat="44.26853" lon="5.76095">
        <ele>626.1</ele>
        <time>2021-09-08T14:00:05Z</time>
      </trkpt>
      <trkpt lat="44.26858" lon="5.76104">
        <ele>626.1</ele>
        <time>2021-09-08T14:00:07Z</time>
      </trkpt>
      <trkpt lat="44.26862" lon="5.76115">
        <ele>626</ele>
        <time>2021-09-08T14:00:09Z</time>
      </trkpt>
      <trkpt lat="44.26865" lon="5.76126">
        <ele>626</ele>
        <time>2021-09-08T14:00:11Z</time>
      </trkpt>
      <trkpt lat="44.26867" lon="5.76134">
        <ele>626</ele>
        <time>2021-09-08T14:00:12Z</time>
      </trkpt>
      <trkpt lat="44.26868" lon="5.76142">
        <ele>626</ele>
        <time>2021-09-08T14:00:13Z</time>
      </trkpt>
      <trkpt lat="44.26869" lon="5.76149">
        <ele>626</ele>
        <time>2021-09-08T14:00:14Z</time>
      </trkpt>
      <trkpt lat="44.2687" lon="5.76163">
        <ele>625.9</ele>
        <time>2021-09-08T14:00:16Z</time>
      </trkpt>
      <trkpt lat="44.26872" lon="5.76167">
        <ele>625.9</ele>
        <time>2021-09-08T14:00:17Z</time>
      </trkpt>
      <trkpt lat="44.26871" lon="5.76174">
        <ele>625.9</ele>
        <time>2021-09-08T14:00:18Z</time>
      </trkpt>
      <trkpt lat="44.26872" lon="5.7618">
        <ele>625.9</ele>
        <time>2021-09-08T14:00:19Z</time>
      </trkpt>
      <trkpt lat="44.26872" lon="5.76186">
        <ele>625.9</ele>
        <time>2021-09-08T14:00:20Z</time>
      </trkpt>
      <trkpt lat="44.26872" lon="5.76191">
        <ele>625.9</ele>
        <time>2021-09-08T14:00:21Z</time>
      </trkpt>
      <trkpt lat="44.26868" lon="5.76205">
        <ele>625.9</ele>
        <time>2021-09-08T14:00:23Z</time>
      </trkpt>
      <trkpt lat="44.26867" lon="5.76211">
        <ele>625.9</ele>
        <time>2021-09-08T14:00:24Z</time>
      </trkpt>
      <trkpt lat="44.26862" lon="5.76225">
        <ele>625.9</ele>
        <time>2021-09-08T14:00:26Z</time>
      </trkpt>
      <trkpt lat="44.26859" lon="5.76239">
        <ele>625.9</ele>
        <time>2021-09-08T14:00:28Z</time>
      </trkpt>
      <trkpt lat="44.26858" lon="5.76244">
        <ele>625.9</ele>
        <time>2021-09-08T14:00:29Z</time>
      </trkpt>
      <trkpt lat="44.26855" lon="5.76251">
        <ele>625.9</ele>
        <time>2021-09-08T14:00:31Z</time>
      </trkpt>
      <trkpt lat="44.2685" lon="5.76257">
        <ele>625.9</ele>
        <time>2021-09-08T14:00:32Z</time>
      </trkpt>
      <trkpt lat="44.26841" lon="5.76265">
        <ele>625.9</ele>
        <time>2021-09-08T14:00:34Z</time>
      </trkpt>
      <trkpt lat="44.26832" lon="5.76273">
        <ele>625.9</ele>
        <time>2021-09-08T14:00:36Z</time>
      </trkpt>
      <trkpt lat="44.26822" lon="5.76279">
        <ele>625.9</ele>
        <time>2021-09-08T14:00:38Z</time>
      </trkpt>
      <trkpt lat="44.26818" lon="5.76281">
        <ele>625.9</ele>
        <time>2021-09-08T14:00:39Z</time>
      </trkpt>
      <trkpt lat="44.26813" lon="5.76283">
        <ele>625.9</ele>
        <time>2021-09-08T14:00:40Z</time>
      </trkpt>
      <trkpt lat="44.26805" lon="5.76286">
        <ele>625.9</ele>
        <time>2021-09-08T14:00:42Z</time>
      </trkpt>
      <trkpt lat="44.26795" lon="5.76288">
        <ele>625.8</ele>
        <time>2021-09-08T14:00:44Z</time>
      </trkpt>
      <trkpt lat="44.26792" lon="5.76292">
        <ele>625.8</ele>
        <time>2021-09-08T14:00:45Z</time>
      </trkpt>
      <trkpt lat="44.26785" lon="5.76294">
        <ele>625.8</ele>
        <time>2021-09-08T14:00:47Z</time>
      </trkpt>
      <trkpt lat="44.26781" lon="5.76294">
        <ele>625.8</ele>
        <time>2021-09-08T14:00:48Z</time>
      </trkpt>
      <trkpt lat="44.26774" lon="5.76297">
        <ele>625.8</ele>
        <time>2021-09-08T14:00:49Z</time>
      </trkpt>
      <trkpt lat="44.2677" lon="5.76299">
        <ele>625.8</ele>
        <time>2021-09-08T14:00:50Z</time>
      </trkpt>
      <trkpt lat="44.26759" lon="5.76301">
        <ele>625.8</ele>
        <time>2021-09-08T14:00:52Z</time>
      </trkpt>
      <trkpt lat="44.26747" lon="5.76303">
        <ele>625.7</ele>
        <time>2021-09-08T14:00:54Z</time>
      </trkpt>
      <trkpt lat="44.26742" lon="5.76305">
        <ele>625.7</ele>
        <time>2021-09-08T14:00:55Z</time>
      </trkpt>
      <trkpt lat="44.26732" lon="5.76308">
        <ele>625.7</ele>
        <time>2021-09-08T14:00:57Z</time>
      </trkpt>
      <trkpt lat="44.26727" lon="5.76308">
        <ele>625.7</ele>
        <time>2021-09-08T14:00:58Z</time>
      </trkpt>
      <trkpt lat="44.26721" lon="5.7631">
        <ele>625.7</ele>
        <time>2021-09-08T14:00:59Z</time>
      </trkpt>
      <trkpt lat="44.26711" lon="5.76314">
        <ele>625.7</ele>
        <time>2021-09-08T14:01:01Z</time>
      </trkpt>
      <trkpt lat="44.26701" lon="5.76317">
        <ele>625.7</ele>
        <time>2021-09-08T14:01:03Z</time>
      </trkpt>
      <trkpt lat="44.26691" lon="5.7632">
        <ele>625.8</ele>
        <time>2021-09-08T14:01:05Z</time>
      </trkpt>
      <trkpt lat="44.26685" lon="5.76322">
        <ele>625.8</ele>
        <time>2021-09-08T14:01:06Z</time>
      </trkpt>
      <trkpt lat="44.2668" lon="5.76325">
        <ele>625.8</ele>
        <time>2021-09-08T14:01:07Z</time>
      </trkpt>
      <trkpt lat="44.2667" lon="5.76333">
        <ele>625.9</ele>
        <time>2021-09-08T14:01:09Z</time>
      </trkpt>
      <trkpt lat="44.2666" lon="5.76337">
        <ele>625.9</ele>
        <time>2021-09-08T14:01:11Z</time>
      </trkpt>
      <trkpt lat="44.26648" lon="5.76339">
        <ele>625.8</ele>
        <time>2021-09-08T14:01:13Z</time>
      </trkpt>
      <trkpt lat="44.26642" lon="5.76339">
        <ele>625.8</ele>
        <time>2021-09-08T14:01:14Z</time>
      </trkpt>
      <trkpt lat="44.26631" lon="5.76342">
        <ele>625.7</ele>
        <time>2021-09-08T14:01:16Z</time>
      </trkpt>
      <trkpt lat="44.26625" lon="5.76345">
        <ele>625.7</ele>
        <time>2021-09-08T14:01:17Z</time>
      </trkpt>
      <trkpt lat="44.26619" lon="5.76347">
        <ele>625.6</ele>
        <time>2021-09-08T14:01:18Z</time>
      </trkpt>
      <trkpt lat="44.26607" lon="5.76349">
        <ele>625.6</ele>
        <time>2021-09-08T14:01:20Z</time>
      </trkpt>
      <trkpt lat="44.26595" lon="5.76353">
        <ele>625.5</ele>
        <time>2021-09-08T14:01:22Z</time>
      </trkpt>
      <trkpt lat="44.26589" lon="5.76356">
        <ele>625.5</ele>
        <time>2021-09-08T14:01:23Z</time>
      </trkpt>
      <trkpt lat="44.26584" lon="5.76361">
        <ele>625.5</ele>
        <time>2021-09-08T14:01:24Z</time>
      </trkpt>
      <trkpt lat="44.2658" lon="5.76366">
        <ele>625.5</ele>
        <time>2021-09-08T14:01:25Z</time>
      </trkpt>
      <trkpt lat="44.26572" lon="5.76377">
        <ele>625.6</ele>
        <time>2021-09-08T14:01:27Z</time>
      </trkpt>
      <trkpt lat="44.26567" lon="5.76383">
        <ele>625.6</ele>
        <time>2021-09-08T14:01:28Z</time>
      </trkpt>
      <trkpt lat="44.26563" lon="5.7639">
        <ele>625.7</ele>
        <time>2021-09-08T14:01:29Z</time>
      </trkpt>
      <trkpt lat="44.2656" lon="5.76397">
        <ele>625.7</ele>
        <time>2021-09-08T14:01:30Z</time>
      </trkpt>
      <trkpt lat="44.26554" lon="5.76411">
        <ele>625.7</ele>
        <time>2021-09-08T14:01:32Z</time>
      </trkpt>
      <trkpt lat="44.26549" lon="5.76424">
        <ele>625.7</ele>
        <time>2021-09-08T14:01:34Z</time>
      </trkpt>
      <trkpt lat="44.26547" lon="5.7643">
        <ele>625.7</ele>
        <time>2021-09-08T14:01:35Z</time>
      </trkpt>
      <trkpt lat="44.26546" lon="5.76436">
        <ele>625.7</ele>
        <time>2021-09-08T14:01:36Z</time>
      </trkpt>
      <trkpt lat="44.26542" lon="5.7645">
        <ele>625.6</ele>
        <time>2021-09-08T14:01:38Z</time>
      </trkpt>
      <trkpt lat="44.26541" lon="5.76458">
        <ele>625.5</ele>
        <time>2021-09-08T14:01:39Z</time>
      </trkpt>
      <trkpt lat="44.26544" lon="5.76472">
        <ele>625.2</ele>
        <time>2021-09-08T14:01:41Z</time>
      </trkpt>
      <trkpt lat="44.26551" lon="5.76484">
        <ele>625</ele>
        <time>2021-09-08T14:01:43Z</time>
      </trkpt>
      <trkpt lat="44.26555" lon="5.76489">
        <ele>624.8</ele>
        <time>2021-09-08T14:01:44Z</time>
      </trkpt>
      <trkpt lat="44.2656" lon="5.76493">
        <ele>624.7</ele>
        <time>2021-09-08T14:01:45Z</time>
      </trkpt>
      <trkpt lat="44.26572" lon="5.76501">
        <ele>624.3</ele>
        <time>2021-09-08T14:01:47Z</time>
      </trkpt>
      <trkpt lat="44.26583" lon="5.76509">
        <ele>624</ele>
        <time>2021-09-08T14:01:49Z</time>
      </trkpt>
      <trkpt lat="44.26588" lon="5.76513">
        <ele>623.9</ele>
        <time>2021-09-08T14:01:50Z</time>
      </trkpt>
      <trkpt lat="44.26596" lon="5.76524">
        <ele>623.6</ele>
        <time>2021-09-08T14:01:52Z</time>
      </trkpt>
      <trkpt lat="44.26605" lon="5.76537">
        <ele>623.3</ele>
        <time>2021-09-08T14:01:54Z</time>
      </trkpt>
      <trkpt lat="44.26609" lon="5.76544">
        <ele>623.2</ele>
        <time>2021-09-08T14:01:55Z</time>
      </trkpt>
      <trkpt lat="44.26615" lon="5.76559">
        <ele>623</ele>
        <time>2021-09-08T14:01:57Z</time>
      </trkpt>
      <trkpt lat="44.26622" lon="5.76575">
        <ele>622.8</ele>
        <time>2021-09-08T14:01:59Z</time>
      </trkpt>
      <trkpt lat="44.26629" lon="5.76589">
        <ele>622.6</ele>
        <time>2021-09-08T14:02:01Z</time>
      </trkpt>
      <trkpt lat="44.26633" lon="5.76602">
        <ele>622.4</ele>
        <time>2021-09-08T14:02:03Z</time>
      </trkpt>
      <trkpt lat="44.26633" lon="5.76617">
        <ele>622.2</ele>
        <time>2021-09-08T14:02:05Z</time>
      </trkpt>
      <trkpt lat="44.2663" lon="5.76633">
        <ele>621.8</ele>
        <time>2021-09-08T14:02:07Z</time>
      </trkpt>
      <trkpt lat="44.26628" lon="5.76641">
        <ele>621.6</ele>
        <time>2021-09-08T14:02:08Z</time>
      </trkpt>
      <trkpt lat="44.26626" lon="5.76649">
        <ele>621.4</ele>
        <time>2021-09-08T14:02:09Z</time>
      </trkpt>
      <trkpt lat="44.26621" lon="5.76666">
        <ele>620.9</ele>
        <time>2021-09-08T14:02:11Z</time>
      </trkpt>
      <trkpt lat="44.26615" lon="5.76684">
        <ele>620.3</ele>
        <time>2021-09-08T14:02:13Z</time>
      </trkpt>
      <trkpt lat="44.2661" lon="5.76693">
        <ele>619.9</ele>
        <time>2021-09-08T14:02:14Z</time>
      </trkpt>
      <trkpt lat="44.26598" lon="5.76705">
        <ele>619.1</ele>
        <time>2021-09-08T14:02:16Z</time>
      </trkpt>
      <trkpt lat="44.26583" lon="5.76715">
        <ele>618.5</ele>
        <time>2021-09-08T14:02:18Z</time>
      </trkpt>
      <trkpt lat="44.2657" lon="5.76729">
        <ele>617.7</ele>
        <time>2021-09-08T14:02:20Z</time>
      </trkpt>
      <trkpt lat="44.26564" lon="5.76737">
        <ele>617.3</ele>
        <time>2021-09-08T14:02:21Z</time>
      </trkpt>
      <trkpt lat="44.26552" lon="5.7675">
        <ele>616.7</ele>
        <time>2021-09-08T14:02:23Z</time>
      </trkpt>
      <trkpt lat="44.26548" lon="5.76758">
        <ele>616.5</ele>
        <time>2021-09-08T14:02:24Z</time>
      </trkpt>
      <trkpt lat="44.26544" lon="5.76768">
        <ele>616.2</ele>
        <time>2021-09-08T14:02:25Z</time>
      </trkpt>
      <trkpt lat="44.26538" lon="5.76792">
        <ele>615.4</ele>
        <time>2021-09-08T14:02:27Z</time>
      </trkpt>
      <trkpt lat="44.26534" lon="5.76803">
        <ele>615</ele>
        <time>2021-09-08T14:02:28Z</time>
      </trkpt>
      <trkpt lat="44.26529" lon="5.76814">
        <ele>614.7</ele>
        <time>2021-09-08T14:02:29Z</time>
      </trkpt>
      <trkpt lat="44.26524" lon="5.76823">
        <ele>614.4</ele>
        <time>2021-09-08T14:02:30Z</time>
      </trkpt>
      <trkpt lat="44.26511" lon="5.76839">
        <ele>613.9</ele>
        <time>2021-09-08T14:02:32Z</time>
      </trkpt>
      <trkpt lat="44.26497" lon="5.76855">
        <ele>613.3</ele>
        <time>2021-09-08T14:02:34Z</time>
      </trkpt>
      <trkpt lat="44.26491" lon="5.76863">
        <ele>612.9</ele>
        <time>2021-09-08T14:02:35Z</time>
      </trkpt>
      <trkpt lat="44.26479" lon="5.76883">
        <ele>612.1</ele>
        <time>2021-09-08T14:02:37Z</time>
      </trkpt>
      <trkpt lat="44.26473" lon="5.76893">
        <ele>611.7</ele>
        <time>2021-09-08T14:02:38Z</time>
      </trkpt>
      <trkpt lat="44.26463" lon="5.76916">
        <ele>610.6</ele>
        <time>2021-09-08T14:02:40Z</time>
      </trkpt>
      <trkpt lat="44.26454" lon="5.76932">
        <ele>609.8</ele>
        <time>2021-09-08T14:02:42Z</time>
      </trkpt>
      <trkpt lat="44.2645" lon="5.7694">
        <ele>609.4</ele>
        <time>2021-09-08T14:02:43Z</time>
      </trkpt>
      <trkpt lat="44.26448" lon="5.76948">
        <ele>609</ele>
        <time>2021-09-08T14:02:44Z</time>
      </trkpt>
      <trkpt lat="44.26446" lon="5.7696">
        <ele>608.5</ele>
        <time>2021-09-08T14:02:46Z</time>
      </trkpt>
      <trkpt lat="44.26447" lon="5.76966">
        <ele>608.4</ele>
        <time>2021-09-08T14:02:47Z</time>
      </trkpt>
      <trkpt lat="44.26448" lon="5.76971">
        <ele>608.2</ele>
        <time>2021-09-08T14:02:48Z</time>
      </trkpt>
      <trkpt lat="44.26456" lon="5.76969">
        <ele>607.9</ele>
        <time>2021-09-08T14:02:50Z</time>
      </trkpt>
      <trkpt lat="44.26463" lon="5.76965">
        <ele>607.6</ele>
        <time>2021-09-08T14:02:51Z</time>
      </trkpt>
      <trkpt lat="44.26472" lon="5.76967">
        <ele>607.2</ele>
        <time>2021-09-08T14:02:53Z</time>
      </trkpt>
      <trkpt lat="44.2648" lon="5.76967">
        <ele>606.9</ele>
        <time>2021-09-08T14:02:54Z</time>
      </trkpt>
      <trkpt lat="44.26496" lon="5.76967">
        <ele>606.3</ele>
        <time>2021-09-08T14:02:56Z</time>
      </trkpt>
      <trkpt lat="44.26497" lon="5.76967">
        <ele>606.2</ele>
        <time>2021-09-08T14:02:58Z</time>
      </trkpt>
      <trkpt lat="44.26695" lon="5.77035">
        <ele>604.7</ele>
        <time>2021-09-08T14:03:50Z</time>
      </trkpt>
      <trkpt lat="44.26692" lon="5.77032">
        <ele>604.7</ele>
        <time>2021-09-08T14:03:51Z</time>
      </trkpt>
      <trkpt lat="44.26689" lon="5.7703">
        <ele>604.8</ele>
        <time>2021-09-08T14:03:52Z</time>
      </trkpt>
      <trkpt lat="44.26686" lon="5.77027">
        <ele>604.8</ele>
        <time>2021-09-08T14:03:54Z</time>
      </trkpt>
      <trkpt lat="44.26683" lon="5.77024">
        <ele>604.8</ele>
        <time>2021-09-08T14:03:56Z</time>
      </trkpt>
      <trkpt lat="44.26687" lon="5.77027">
        <ele>604.9</ele>
        <time>2021-09-08T14:03:57Z</time>
      </trkpt>
      <trkpt lat="44.2669" lon="5.77029">
        <ele>604.9</ele>
        <time>2021-09-08T14:03:58Z</time>
      </trkpt>
      <trkpt lat="44.26686" lon="5.77027">
        <ele>604.9</ele>
        <time>2021-09-08T14:04:00Z</time>
      </trkpt>
      <trkpt lat="44.26686" lon="5.77028">
        <ele>604.9</ele>
        <time>2021-09-08T14:04:01Z</time>
      </trkpt>
      <trkpt lat="44.26694" lon="5.77035">
        <ele>605</ele>
        <time>2021-09-08T14:04:03Z</time>
      </trkpt>
      <trkpt lat="44.26709" lon="5.77085">
        <ele>605.2</ele>
        <time>2021-09-08T14:04:20Z</time>
      </trkpt>
      <trkpt lat="44.26703" lon="5.77096">
        <ele>605.2</ele>
        <time>2021-09-08T14:04:21Z</time>
      </trkpt>
      <trkpt lat="44.26693" lon="5.77109">
        <ele>605.2</ele>
        <time>2021-09-08T14:04:23Z</time>
      </trkpt>
      <trkpt lat="44.26683" lon="5.7712">
        <ele>605.3</ele>
        <time>2021-09-08T14:04:25Z</time>
      </trkpt>
      <trkpt lat="44.26677" lon="5.77125">
        <ele>605.3</ele>
        <time>2021-09-08T14:04:26Z</time>
      </trkpt>
      <trkpt lat="44.26667" lon="5.77135">
        <ele>605.3</ele>
        <time>2021-09-08T14:04:28Z</time>
      </trkpt>
      <trkpt lat="44.26661" lon="5.7714">
        <ele>605.3</ele>
        <time>2021-09-08T14:04:29Z</time>
      </trkpt>
      <trkpt lat="44.26657" lon="5.77145">
        <ele>605.4</ele>
        <time>2021-09-08T14:04:30Z</time>
      </trkpt>
      <trkpt lat="44.26648" lon="5.77155">
        <ele>605.4</ele>
        <time>2021-09-08T14:04:32Z</time>
      </trkpt>
      <trkpt lat="44.26644" lon="5.7716">
        <ele>605.4</ele>
        <time>2021-09-08T14:04:33Z</time>
      </trkpt>
      <trkpt lat="44.26639" lon="5.77169">
        <ele>605.4</ele>
        <time>2021-09-08T14:04:35Z</time>
      </trkpt>
      <trkpt lat="44.26636" lon="5.77173">
        <ele>605.4</ele>
        <time>2021-09-08T14:04:36Z</time>
      </trkpt>
      <trkpt lat="44.2663" lon="5.77181">
        <ele>605.4</ele>
        <time>2021-09-08T14:04:38Z</time>
      </trkpt>
      <trkpt lat="44.26627" lon="5.77184">
        <ele>605.4</ele>
        <time>2021-09-08T14:04:39Z</time>
      </trkpt>
      <trkpt lat="44.26626" lon="5.77188">
        <ele>605.4</ele>
        <time>2021-09-08T14:04:40Z</time>
      </trkpt>
      <trkpt lat="44.26627" lon="5.77189">
        <ele>605.4</ele>
        <time>2021-09-08T14:04:41Z</time>
      </trkpt>
      <trkpt lat="44.26622" lon="5.77195">
        <ele>605.4</ele>
        <time>2021-09-08T14:04:43Z</time>
      </trkpt>
      <trkpt lat="44.26616" lon="5.77197">
        <ele>605.4</ele>
        <time>2021-09-08T14:04:45Z</time>
      </trkpt>
      <trkpt lat="44.26607" lon="5.772">
        <ele>605.5</ele>
        <time>2021-09-08T14:04:46Z</time>
      </trkpt>
      <trkpt lat="44.26601" lon="5.77213">
        <ele>605.5</ele>
        <time>2021-09-08T14:04:48Z</time>
      </trkpt>
      <trkpt lat="44.26598" lon="5.77229">
        <ele>605.6</ele>
        <time>2021-09-08T14:04:50Z</time>
      </trkpt>
      <trkpt lat="44.26598" lon="5.77238">
        <ele>605.6</ele>
        <time>2021-09-08T14:04:51Z</time>
      </trkpt>
      <trkpt lat="44.26599" lon="5.77246">
        <ele>605.6</ele>
        <time>2021-09-08T14:04:52Z</time>
      </trkpt>
      <trkpt lat="44.26604" lon="5.77259">
        <ele>605.6</ele>
        <time>2021-09-08T14:04:54Z</time>
      </trkpt>
      <trkpt lat="44.26611" lon="5.77267">
        <ele>605.6</ele>
        <time>2021-09-08T14:04:56Z</time>
      </trkpt>
      <trkpt lat="44.26617" lon="5.77275">
        <ele>605.5</ele>
        <time>2021-09-08T14:04:58Z</time>
      </trkpt>
      <trkpt lat="44.26622" lon="5.77284">
        <ele>605.5</ele>
        <time>2021-09-08T14:05:00Z</time>
      </trkpt>
      <trkpt lat="44.26623" lon="5.77288">
        <ele>605.5</ele>
        <time>2021-09-08T14:05:01Z</time>
      </trkpt>
      <trkpt lat="44.26626" lon="5.77291">
        <ele>605.5</ele>
        <time>2021-09-08T14:05:02Z</time>
      </trkpt>
      <trkpt lat="44.26627" lon="5.77292">
        <ele>605.5</ele>
        <time>2021-09-08T14:05:03Z</time>
      </trkpt>
      <trkpt lat="44.2663" lon="5.77292">
        <ele>605.5</ele>
        <time>2021-09-08T14:05:05Z</time>
      </trkpt>
      <trkpt lat="44.26629" lon="5.77289">
        <ele>605.5</ele>
        <time>2021-09-08T14:05:07Z</time>
      </trkpt>
      <trkpt lat="44.26629" lon="5.77286">
        <ele>605.5</ele>
        <time>2021-09-08T14:05:09Z</time>
      </trkpt>
      <trkpt lat="44.26629" lon="5.77286">
        <ele>605.5</ele>
        <time>2021-09-08T14:05:10Z</time>
      </trkpt>
      <trkpt lat="44.26629" lon="5.77286">
        <ele>605.5</ele>
        <time>2021-09-08T14:05:12Z</time>
      </trkpt>
      <trkpt lat="44.26629" lon="5.77286">
        <ele>605.5</ele>
        <time>2021-09-08T14:05:13Z</time>
      </trkpt>
      <trkpt lat="44.26636" lon="5.77287">
        <ele>605.5</ele>
        <time>2021-09-08T14:05:19Z</time>
      </trkpt>
      <trkpt lat="44.2664" lon="5.77288">
        <ele>605.4</ele>
        <time>2021-09-08T14:05:20Z</time>
      </trkpt>
      <trkpt lat="44.26644" lon="5.7729">
        <ele>605.4</ele>
        <time>2021-09-08T14:05:21Z</time>
      </trkpt>
      <trkpt lat="44.26655" lon="5.77296">
        <ele>605.4</ele>
        <time>2021-09-08T14:05:22Z</time>
      </trkpt>
      <trkpt lat="44.26663" lon="5.77301">
        <ele>605.4</ele>
        <time>2021-09-08T14:05:24Z</time>
      </trkpt>
      <trkpt lat="44.26668" lon="5.77307">
        <ele>605.5</ele>
        <time>2021-09-08T14:05:26Z</time>
      </trkpt>
      <trkpt lat="44.2667" lon="5.77314">
        <ele>605.5</ele>
        <time>2021-09-08T14:05:27Z</time>
      </trkpt>
      <trkpt lat="44.26669" lon="5.77336">
        <ele>605.5</ele>
        <time>2021-09-08T14:05:28Z</time>
      </trkpt>
      <trkpt lat="44.26669" lon="5.77355">
        <ele>605.6</ele>
        <time>2021-09-08T14:05:30Z</time>
      </trkpt>
      <trkpt lat="44.2667" lon="5.77363">
        <ele>605.6</ele>
        <time>2021-09-08T14:05:31Z</time>
      </trkpt>
      <trkpt lat="44.26671" lon="5.77371">
        <ele>605.7</ele>
        <time>2021-09-08T14:05:32Z</time>
      </trkpt>
      <trkpt lat="44.26674" lon="5.77386">
        <ele>605.7</ele>
        <time>2021-09-08T14:05:34Z</time>
      </trkpt>
      <trkpt lat="44.26677" lon="5.77396">
        <ele>605.7</ele>
        <time>2021-09-08T14:05:36Z</time>
      </trkpt>
      <trkpt lat="44.26682" lon="5.77404">
        <ele>605.8</ele>
        <time>2021-09-08T14:05:38Z</time>
      </trkpt>
      <trkpt lat="44.26688" lon="5.77414">
        <ele>605.8</ele>
        <time>2021-09-08T14:05:39Z</time>
      </trkpt>
      <trkpt lat="44.26692" lon="5.7742">
        <ele>605.8</ele>
        <time>2021-09-08T14:05:40Z</time>
      </trkpt>
      <trkpt lat="44.26696" lon="5.77425">
        <ele>605.9</ele>
        <time>2021-09-08T14:05:41Z</time>
      </trkpt>
      <trkpt lat="44.267" lon="5.77433">
        <ele>605.9</ele>
        <time>2021-09-08T14:05:43Z</time>
      </trkpt>
      <trkpt lat="44.26704" lon="5.7744">
        <ele>605.9</ele>
        <time>2021-09-08T14:05:44Z</time>
      </trkpt>
      <trkpt lat="44.26706" lon="5.77445">
        <ele>605.9</ele>
        <time>2021-09-08T14:05:45Z</time>
      </trkpt>
      <trkpt lat="44.26708" lon="5.77452">
        <ele>605.9</ele>
        <time>2021-09-08T14:05:46Z</time>
      </trkpt>
      <trkpt lat="44.26712" lon="5.7746">
        <ele>605.9</ele>
        <time>2021-09-08T14:05:48Z</time>
      </trkpt>
      <trkpt lat="44.26715" lon="5.77465">
        <ele>605.9</ele>
        <time>2021-09-08T14:05:49Z</time>
      </trkpt>
      <trkpt lat="44.26718" lon="5.77471">
        <ele>605.9</ele>
        <time>2021-09-08T14:05:50Z</time>
      </trkpt>
      <trkpt lat="44.26721" lon="5.77476">
        <ele>605.9</ele>
        <time>2021-09-08T14:05:51Z</time>
      </trkpt>
      <trkpt lat="44.26725" lon="5.77482">
        <ele>605.9</ele>
        <time>2021-09-08T14:05:53Z</time>
      </trkpt>
      <trkpt lat="44.26727" lon="5.77485">
        <ele>605.9</ele>
        <time>2021-09-08T14:05:54Z</time>
      </trkpt>
      <trkpt lat="44.26728" lon="5.77487">
        <ele>606</ele>
        <time>2021-09-08T14:05:55Z</time>
      </trkpt>
      <trkpt lat="44.26729" lon="5.77485">
        <ele>606</ele>
        <time>2021-09-08T14:05:56Z</time>
      </trkpt>
      <trkpt lat="44.26729" lon="5.77483">
        <ele>606</ele>
        <time>2021-09-08T14:05:58Z</time>
      </trkpt>
      <trkpt lat="44.26728" lon="5.77482">
        <ele>606</ele>
        <time>2021-09-08T14:05:59Z</time>
      </trkpt>
      <trkpt lat="44.26728" lon="5.77482">
        <ele>606</ele>
        <time>2021-09-08T14:06:01Z</time>
      </trkpt>
      <trkpt lat="44.26728" lon="5.77482">
        <ele>606</ele>
        <time>2021-09-08T14:06:02Z</time>
      </trkpt>
      <trkpt lat="44.26727" lon="5.77482">
        <ele>606</ele>
        <time>2021-09-08T14:06:04Z</time>
      </trkpt>
      <trkpt lat="44.26727" lon="5.77482">
        <ele>606</ele>
        <time>2021-09-08T14:06:05Z</time>
      </trkpt>
      <trkpt lat="44.26727" lon="5.77482">
        <ele>606</ele>
        <time>2021-09-08T14:06:07Z</time>
      </trkpt>
      <trkpt lat="44.26735" lon="5.77477">
        <ele>606</ele>
        <time>2021-09-08T14:06:29Z</time>
      </trkpt>
      <trkpt lat="44.26737" lon="5.77482">
        <ele>606</ele>
        <time>2021-09-08T14:06:31Z</time>
      </trkpt>
      <trkpt lat="44.26738" lon="5.77488">
        <ele>606</ele>
        <time>2021-09-08T14:06:32Z</time>
      </trkpt>
      <trkpt lat="44.26741" lon="5.77492">
        <ele>606.1</ele>
        <time>2021-09-08T14:06:33Z</time>
      </trkpt>
      <trkpt lat="44.26743" lon="5.77496">
        <ele>606.1</ele>
        <time>2021-09-08T14:06:34Z</time>
      </trkpt>
      <trkpt lat="44.26747" lon="5.775">
        <ele>606.1</ele>
        <time>2021-09-08T14:06:35Z</time>
      </trkpt>
      <trkpt lat="44.26753" lon="5.77509">
        <ele>606.2</ele>
        <time>2021-09-08T14:06:37Z</time>
      </trkpt>
      <trkpt lat="44.26759" lon="5.77516">
        <ele>606.2</ele>
        <time>2021-09-08T14:06:39Z</time>
      </trkpt>
      <trkpt lat="44.26763" lon="5.77526">
        <ele>606.3</ele>
        <time>2021-09-08T14:06:40Z</time>
      </trkpt>
      <trkpt lat="44.26769" lon="5.77537">
        <ele>606.4</ele>
        <time>2021-09-08T14:06:42Z</time>
      </trkpt>
      <trkpt lat="44.26777" lon="5.77545">
        <ele>606.4</ele>
        <time>2021-09-08T14:06:44Z</time>
      </trkpt>
      <trkpt lat="44.2678" lon="5.77544">
        <ele>606.4</ele>
        <time>2021-09-08T14:06:45Z</time>
      </trkpt>
      <trkpt lat="44.26785" lon="5.77546">
        <ele>606.4</ele>
        <time>2021-09-08T14:06:47Z</time>
      </trkpt>
      <trkpt lat="44.2679" lon="5.77545">
        <ele>606.4</ele>
        <time>2021-09-08T14:06:48Z</time>
      </trkpt>
      <trkpt lat="44.26794" lon="5.77544">
        <ele>606.3</ele>
        <time>2021-09-08T14:06:49Z</time>
      </trkpt>
      <trkpt lat="44.26801" lon="5.77538">
        <ele>606.3</ele>
        <time>2021-09-08T14:06:51Z</time>
      </trkpt>
      <trkpt lat="44.26805" lon="5.77535">
        <ele>606.2</ele>
        <time>2021-09-08T14:06:52Z</time>
      </trkpt>
      <trkpt lat="44.26811" lon="5.77534">
        <ele>606.2</ele>
        <time>2021-09-08T14:06:54Z</time>
      </trkpt>
      <trkpt lat="44.26817" lon="5.77534">
        <ele>606.1</ele>
        <time>2021-09-08T14:06:55Z</time>
      </trkpt>
      <trkpt lat="44.26822" lon="5.77531">
        <ele>606.1</ele>
        <time>2021-09-08T14:06:56Z</time>
      </trkpt>
      <trkpt lat="44.26832" lon="5.77526">
        <ele>606.2</ele>
        <time>2021-09-08T14:06:58Z</time>
      </trkpt>
      <trkpt lat="44.26838" lon="5.77523">
        <ele>606.2</ele>
        <time>2021-09-08T14:06:59Z</time>
      </trkpt>
      <trkpt lat="44.26849" lon="5.77518">
        <ele>606.2</ele>
        <time>2021-09-08T14:07:01Z</time>
      </trkpt>
      <trkpt lat="44.26854" lon="5.77515">
        <ele>606.3</ele>
        <time>2021-09-08T14:07:02Z</time>
      </trkpt>
      <trkpt lat="44.26863" lon="5.77509">
        <ele>606.3</ele>
        <time>2021-09-08T14:07:04Z</time>
      </trkpt>
      <trkpt lat="44.26867" lon="5.77506">
        <ele>606.3</ele>
        <time>2021-09-08T14:07:05Z</time>
      </trkpt>
      <trkpt lat="44.2687" lon="5.77503">
        <ele>606.3</ele>
        <time>2021-09-08T14:07:06Z</time>
      </trkpt>
      <trkpt lat="44.26881" lon="5.77496">
        <ele>606.3</ele>
        <time>2021-09-08T14:07:08Z</time>
      </trkpt>
      <trkpt lat="44.26886" lon="5.77493">
        <ele>606.3</ele>
        <time>2021-09-08T14:07:09Z</time>
      </trkpt>
      <trkpt lat="44.26898" lon="5.77486">
        <ele>606.3</ele>
        <time>2021-09-08T14:07:11Z</time>
      </trkpt>
      <trkpt lat="44.26904" lon="5.77483">
        <ele>606.2</ele>
        <time>2021-09-08T14:07:12Z</time>
      </trkpt>
      <trkpt lat="44.26915" lon="5.77477">
        <ele>606.2</ele>
        <time>2021-09-08T14:07:14Z</time>
      </trkpt>
      <trkpt lat="44.2692" lon="5.77473">
        <ele>606.2</ele>
        <time>2021-09-08T14:07:15Z</time>
      </trkpt>
      <trkpt lat="44.26924" lon="5.7747">
        <ele>606.2</ele>
        <time>2021-09-08T14:07:16Z</time>
      </trkpt>
      <trkpt lat="44.26932" lon="5.77464">
        <ele>606.2</ele>
        <time>2021-09-08T14:07:18Z</time>
      </trkpt>
      <trkpt lat="44.26937" lon="5.77462">
        <ele>606.3</ele>
        <time>2021-09-08T14:07:19Z</time>
      </trkpt>
      <trkpt lat="44.26948" lon="5.77458">
        <ele>606.3</ele>
        <time>2021-09-08T14:07:21Z</time>
      </trkpt>
      <trkpt lat="44.26954" lon="5.77455">
        <ele>606.3</ele>
        <time>2021-09-08T14:07:22Z</time>
      </trkpt>
      <trkpt lat="44.26965" lon="5.7745">
        <ele>606.3</ele>
        <time>2021-09-08T14:07:24Z</time>
      </trkpt>
      <trkpt lat="44.2697" lon="5.77447">
        <ele>606.3</ele>
        <time>2021-09-08T14:07:25Z</time>
      </trkpt>
      <trkpt lat="44.26973" lon="5.77445">
        <ele>606.4</ele>
        <time>2021-09-08T14:07:26Z</time>
      </trkpt>
      <trkpt lat="44.26976" lon="5.77444">
        <ele>606.4</ele>
        <time>2021-09-08T14:07:27Z</time>
      </trkpt>
      <trkpt lat="44.26983" lon="5.77444">
        <ele>606.4</ele>
        <time>2021-09-08T14:07:29Z</time>
      </trkpt>
      <trkpt lat="44.26989" lon="5.77444">
        <ele>606.4</ele>
        <time>2021-09-08T14:07:31Z</time>
      </trkpt>
      <trkpt lat="44.26993" lon="5.77445">
        <ele>606.4</ele>
        <time>2021-09-08T14:07:32Z</time>
      </trkpt>
      <trkpt lat="44.26997" lon="5.77443">
        <ele>606.4</ele>
        <time>2021-09-08T14:07:33Z</time>
      </trkpt>
      <trkpt lat="44.27001" lon="5.77442">
        <ele>606.4</ele>
        <time>2021-09-08T14:07:35Z</time>
      </trkpt>
      <trkpt lat="44.27005" lon="5.77443">
        <ele>606.4</ele>
        <time>2021-09-08T14:07:36Z</time>
      </trkpt>
      <trkpt lat="44.27012" lon="5.77446">
        <ele>606.4</ele>
        <time>2021-09-08T14:07:37Z</time>
      </trkpt>
      <trkpt lat="44.27016" lon="5.77449">
        <ele>606.4</ele>
        <time>2021-09-08T14:07:39Z</time>
      </trkpt>
      <trkpt lat="44.27021" lon="5.77453">
        <ele>606.4</ele>
        <time>2021-09-08T14:07:40Z</time>
      </trkpt>
      <trkpt lat="44.27024" lon="5.77455">
        <ele>606.4</ele>
        <time>2021-09-08T14:07:41Z</time>
      </trkpt>
      <trkpt lat="44.27028" lon="5.77456">
        <ele>606.4</ele>
        <time>2021-09-08T14:07:42Z</time>
      </trkpt>
      <trkpt lat="44.27033" lon="5.77456">
        <ele>606.4</ele>
        <time>2021-09-08T14:07:43Z</time>
      </trkpt>
      <trkpt lat="44.27039" lon="5.77458">
        <ele>606.4</ele>
        <time>2021-09-08T14:07:45Z</time>
      </trkpt>
      <trkpt lat="44.27043" lon="5.77461">
        <ele>606.4</ele>
        <time>2021-09-08T14:07:46Z</time>
      </trkpt>
      <trkpt lat="44.27048" lon="5.77468">
        <ele>606.3</ele>
        <time>2021-09-08T14:07:48Z</time>
      </trkpt>
      <trkpt lat="44.27052" lon="5.77476">
        <ele>606.2</ele>
        <time>2021-09-08T14:07:49Z</time>
      </trkpt>
      <trkpt lat="44.27056" lon="5.77488">
        <ele>606</ele>
        <time>2021-09-08T14:07:51Z</time>
      </trkpt>
      <trkpt lat="44.27058" lon="5.77493">
        <ele>605.9</ele>
        <time>2021-09-08T14:07:52Z</time>
      </trkpt>
      <trkpt lat="44.2706" lon="5.77498">
        <ele>605.7</ele>
        <time>2021-09-08T14:07:53Z</time>
      </trkpt>
      <trkpt lat="44.27065" lon="5.77504">
        <ele>605.6</ele>
        <time>2021-09-08T14:07:55Z</time>
      </trkpt>
      <trkpt lat="44.27073" lon="5.77511">
        <ele>605.3</ele>
        <time>2021-09-08T14:07:56Z</time>
      </trkpt>
      <trkpt lat="44.27084" lon="5.77521">
        <ele>605</ele>
        <time>2021-09-08T14:07:58Z</time>
      </trkpt>
      <trkpt lat="44.27087" lon="5.77526">
        <ele>604.9</ele>
        <time>2021-09-08T14:07:59Z</time>
      </trkpt>
      <trkpt lat="44.27092" lon="5.77536">
        <ele>604.7</ele>
        <time>2021-09-08T14:08:01Z</time>
      </trkpt>
      <trkpt lat="44.27095" lon="5.77542">
        <ele>604.6</ele>
        <time>2021-09-08T14:08:02Z</time>
      </trkpt>
      <trkpt lat="44.27099" lon="5.77549">
        <ele>604.4</ele>
        <time>2021-09-08T14:08:04Z</time>
      </trkpt>
      <trkpt lat="44.27102" lon="5.77553">
        <ele>604.3</ele>
        <time>2021-09-08T14:08:05Z</time>
      </trkpt>
      <trkpt lat="44.27101" lon="5.77552">
        <ele>604.3</ele>
        <time>2021-09-08T14:08:07Z</time>
      </trkpt>
      <trkpt lat="44.271" lon="5.77551">
        <ele>604.3</ele>
        <time>2021-09-08T14:08:08Z</time>
      </trkpt>
      <trkpt lat="44.27099" lon="5.77549">
        <ele>604.3</ele>
        <time>2021-09-08T14:08:09Z</time>
      </trkpt>
      <trkpt lat="44.27099" lon="5.77549">
        <ele>604.2</ele>
        <time>2021-09-08T14:08:11Z</time>
      </trkpt>
      <trkpt lat="44.27099" lon="5.77549">
        <ele>604.2</ele>
        <time>2021-09-08T14:08:12Z</time>
      </trkpt>
      <trkpt lat="44.27099" lon="5.77549">
        <ele>604.2</ele>
        <time>2021-09-08T14:08:14Z</time>
      </trkpt>
      <trkpt lat="44.27098" lon="5.77549">
        <ele>604.2</ele>
        <time>2021-09-08T14:08:15Z</time>
      </trkpt>
      <trkpt lat="44.27098" lon="5.77549">
        <ele>604.2</ele>
        <time>2021-09-08T14:08:16Z</time>
      </trkpt>
      <trkpt lat="44.2711" lon="5.77583">
        <ele>603.6</ele>
        <time>2021-09-08T14:08:55Z</time>
      </trkpt>
      <trkpt lat="44.27114" lon="5.77603">
        <ele>603.2</ele>
        <time>2021-09-08T14:08:57Z</time>
      </trkpt>
      <trkpt lat="44.27118" lon="5.77619">
        <ele>603</ele>
        <time>2021-09-08T14:08:59Z</time>
      </trkpt>
      <trkpt lat="44.2712" lon="5.77627">
        <ele>602.8</ele>
        <time>2021-09-08T14:09:00Z</time>
      </trkpt>
      <trkpt lat="44.27122" lon="5.77635">
        <ele>602.7</ele>
        <time>2021-09-08T14:09:01Z</time>
      </trkpt>
      <trkpt lat="44.27127" lon="5.77648">
        <ele>602.5</ele>
        <time>2021-09-08T14:09:03Z</time>
      </trkpt>
      <trkpt lat="44.27129" lon="5.77655">
        <ele>602.3</ele>
        <time>2021-09-08T14:09:04Z</time>
      </trkpt>
      <trkpt lat="44.27134" lon="5.77671">
        <ele>602.1</ele>
        <time>2021-09-08T14:09:06Z</time>
      </trkpt>
      <trkpt lat="44.27143" lon="5.77686">
        <ele>601.7</ele>
        <time>2021-09-08T14:09:08Z</time>
      </trkpt>
      <trkpt lat="44.27148" lon="5.77692">
        <ele>601.5</ele>
        <time>2021-09-08T14:09:09Z</time>
      </trkpt>
      <trkpt lat="44.27158" lon="5.77703">
        <ele>601.2</ele>
        <time>2021-09-08T14:09:11Z</time>
      </trkpt>
      <trkpt lat="44.27164" lon="5.77709">
        <ele>601</ele>
        <time>2021-09-08T14:09:12Z</time>
      </trkpt>
      <trkpt lat="44.2717" lon="5.77714">
        <ele>600.8</ele>
        <time>2021-09-08T14:09:13Z</time>
      </trkpt>
      <trkpt lat="44.27176" lon="5.77718">
        <ele>600.7</ele>
        <time>2021-09-08T14:09:14Z</time>
      </trkpt>
      <trkpt lat="44.27188" lon="5.77728">
        <ele>600.4</ele>
        <time>2021-09-08T14:09:16Z</time>
      </trkpt>
      <trkpt lat="44.27201" lon="5.77736">
        <ele>600.1</ele>
        <time>2021-09-08T14:09:18Z</time>
      </trkpt>
      <trkpt lat="44.27207" lon="5.7774">
        <ele>599.9</ele>
        <time>2021-09-08T14:09:19Z</time>
      </trkpt>
      <trkpt lat="44.27219" lon="5.77747">
        <ele>599.7</ele>
        <time>2021-09-08T14:09:21Z</time>
      </trkpt>
      <trkpt lat="44.27231" lon="5.77753">
        <ele>599.5</ele>
        <time>2021-09-08T14:09:23Z</time>
      </trkpt>
      <trkpt lat="44.27237" lon="5.77756">
        <ele>599.3</ele>
        <time>2021-09-08T14:09:24Z</time>
      </trkpt>
      <trkpt lat="44.27249" lon="5.77755">
        <ele>599.1</ele>
        <time>2021-09-08T14:09:26Z</time>
      </trkpt>
      <trkpt lat="44.27255" lon="5.77752">
        <ele>598.9</ele>
        <time>2021-09-08T14:09:27Z</time>
      </trkpt>
      <trkpt lat="44.27267" lon="5.77748">
        <ele>598.7</ele>
        <time>2021-09-08T14:09:29Z</time>
      </trkpt>
      <trkpt lat="44.27273" lon="5.77746">
        <ele>598.7</ele>
        <time>2021-09-08T14:09:30Z</time>
      </trkpt>
      <trkpt lat="44.27286" lon="5.77741">
        <ele>598.6</ele>
        <time>2021-09-08T14:09:32Z</time>
      </trkpt>
      <trkpt lat="44.273" lon="5.77739">
        <ele>598.5</ele>
        <time>2021-09-08T14:09:34Z</time>
      </trkpt>
      <trkpt lat="44.27312" lon="5.77744">
        <ele>598.4</ele>
        <time>2021-09-08T14:09:36Z</time>
      </trkpt>
      <trkpt lat="44.27317" lon="5.77747">
        <ele>598.4</ele>
        <time>2021-09-08T14:09:37Z</time>
      </trkpt>
      <trkpt lat="44.2732" lon="5.77751">
        <ele>598.4</ele>
        <time>2021-09-08T14:09:38Z</time>
      </trkpt>
      <trkpt lat="44.27323" lon="5.77764">
        <ele>598.3</ele>
        <time>2021-09-08T14:09:40Z</time>
      </trkpt>
      <trkpt lat="44.27325" lon="5.77772">
        <ele>598.2</ele>
        <time>2021-09-08T14:09:41Z</time>
      </trkpt>
      <trkpt lat="44.27326" lon="5.77778">
        <ele>598.2</ele>
        <time>2021-09-08T14:09:42Z</time>
      </trkpt>
      <trkpt lat="44.27328" lon="5.77788">
        <ele>598.1</ele>
        <time>2021-09-08T14:09:44Z</time>
      </trkpt>
      <trkpt lat="44.27333" lon="5.77801">
        <ele>597.9</ele>
        <time>2021-09-08T14:09:46Z</time>
      </trkpt>
      <trkpt lat="44.27335" lon="5.77806">
        <ele>597.8</ele>
        <time>2021-09-08T14:09:47Z</time>
      </trkpt>
      <trkpt lat="44.27338" lon="5.77812">
        <ele>597.8</ele>
        <time>2021-09-08T14:09:48Z</time>
      </trkpt>
      <trkpt lat="44.27345" lon="5.77819">
        <ele>597.6</ele>
        <time>2021-09-08T14:09:50Z</time>
      </trkpt>
      <trkpt lat="44.27348" lon="5.77822">
        <ele>597.6</ele>
        <time>2021-09-08T14:09:51Z</time>
      </trkpt>
      <trkpt lat="44.27351" lon="5.77827">
        <ele>597.5</ele>
        <time>2021-09-08T14:09:52Z</time>
      </trkpt>
      <trkpt lat="44.27359" lon="5.77837">
        <ele>597.4</ele>
        <time>2021-09-08T14:09:54Z</time>
      </trkpt>
      <trkpt lat="44.27366" lon="5.77848">
        <ele>597.2</ele>
        <time>2021-09-08T14:09:56Z</time>
      </trkpt>
      <trkpt lat="44.27373" lon="5.7786">
        <ele>597.1</ele>
        <time>2021-09-08T14:09:58Z</time>
      </trkpt>
      <trkpt lat="44.27377" lon="5.77867">
        <ele>597</ele>
        <time>2021-09-08T14:09:59Z</time>
      </trkpt>
      <trkpt lat="44.27381" lon="5.77874">
        <ele>597</ele>
        <time>2021-09-08T14:10:00Z</time>
      </trkpt>
      <trkpt lat="44.2739" lon="5.77887">
        <ele>596.9</ele>
        <time>2021-09-08T14:10:02Z</time>
      </trkpt>
      <trkpt lat="44.27394" lon="5.77892">
        <ele>596.8</ele>
        <time>2021-09-08T14:10:03Z</time>
      </trkpt>
      <trkpt lat="44.27403" lon="5.77905">
        <ele>596.8</ele>
        <time>2021-09-08T14:10:05Z</time>
      </trkpt>
      <trkpt lat="44.27406" lon="5.77914">
        <ele>596.7</ele>
        <time>2021-09-08T14:10:06Z</time>
      </trkpt>
      <trkpt lat="44.27412" lon="5.77932">
        <ele>596.6</ele>
        <time>2021-09-08T14:10:08Z</time>
      </trkpt>
      <trkpt lat="44.27414" lon="5.7794">
        <ele>596.6</ele>
        <time>2021-09-08T14:10:09Z</time>
      </trkpt>
      <trkpt lat="44.27414" lon="5.7795">
        <ele>596.5</ele>
        <time>2021-09-08T14:10:10Z</time>
      </trkpt>
      <trkpt lat="44.27412" lon="5.77969">
        <ele>596.4</ele>
        <time>2021-09-08T14:10:12Z</time>
      </trkpt>
      <trkpt lat="44.27412" lon="5.77979">
        <ele>596.3</ele>
        <time>2021-09-08T14:10:13Z</time>
      </trkpt>
      <trkpt lat="44.27413" lon="5.77999">
        <ele>596.2</ele>
        <time>2021-09-08T14:10:15Z</time>
      </trkpt>
      <trkpt lat="44.27414" lon="5.78008">
        <ele>596.2</ele>
        <time>2021-09-08T14:10:16Z</time>
      </trkpt>
      <trkpt lat="44.27414" lon="5.78019">
        <ele>596.1</ele>
        <time>2021-09-08T14:10:17Z</time>
      </trkpt>
      <trkpt lat="44.2742" lon="5.78037">
        <ele>595.9</ele>
        <time>2021-09-08T14:10:19Z</time>
      </trkpt>
      <trkpt lat="44.27423" lon="5.78046">
        <ele>595.8</ele>
        <time>2021-09-08T14:10:20Z</time>
      </trkpt>
      <trkpt lat="44.27431" lon="5.78061">
        <ele>595.6</ele>
        <time>2021-09-08T14:10:22Z</time>
      </trkpt>
      <trkpt lat="44.27437" lon="5.78068">
        <ele>595.5</ele>
        <time>2021-09-08T14:10:23Z</time>
      </trkpt>
      <trkpt lat="44.27443" lon="5.78074">
        <ele>595.4</ele>
        <time>2021-09-08T14:10:24Z</time>
      </trkpt>
      <trkpt lat="44.27454" lon="5.78088">
        <ele>595.2</ele>
        <time>2021-09-08T14:10:26Z</time>
      </trkpt>
      <trkpt lat="44.27459" lon="5.78095">
        <ele>595.1</ele>
        <time>2021-09-08T14:10:27Z</time>
      </trkpt>
      <trkpt lat="44.27471" lon="5.78108">
        <ele>595</ele>
        <time>2021-09-08T14:10:29Z</time>
      </trkpt>
      <trkpt lat="44.27476" lon="5.78115">
        <ele>594.9</ele>
        <time>2021-09-08T14:10:30Z</time>
      </trkpt>
      <trkpt lat="44.27487" lon="5.7813">
        <ele>594.8</ele>
        <time>2021-09-08T14:10:32Z</time>
      </trkpt>
      <trkpt lat="44.27498" lon="5.78143">
        <ele>594.6</ele>
        <time>2021-09-08T14:10:34Z</time>
      </trkpt>
      <trkpt lat="44.27503" lon="5.7815">
        <ele>594.5</ele>
        <time>2021-09-08T14:10:35Z</time>
      </trkpt>
      <trkpt lat="44.27515" lon="5.78162">
        <ele>594.4</ele>
        <time>2021-09-08T14:10:37Z</time>
      </trkpt>
      <trkpt lat="44.2752" lon="5.78168">
        <ele>594.4</ele>
        <time>2021-09-08T14:10:38Z</time>
      </trkpt>
      <trkpt lat="44.27525" lon="5.78175">
        <ele>594.3</ele>
        <time>2021-09-08T14:10:39Z</time>
      </trkpt>
      <trkpt lat="44.27536" lon="5.78187">
        <ele>594.2</ele>
        <time>2021-09-08T14:10:41Z</time>
      </trkpt>
      <trkpt lat="44.27541" lon="5.78194">
        <ele>594.2</ele>
        <time>2021-09-08T14:10:42Z</time>
      </trkpt>
      <trkpt lat="44.27549" lon="5.78209">
        <ele>594.1</ele>
        <time>2021-09-08T14:10:44Z</time>
      </trkpt>
      <trkpt lat="44.27551" lon="5.78217">
        <ele>594.1</ele>
        <time>2021-09-08T14:10:45Z</time>
      </trkpt>
      <trkpt lat="44.27552" lon="5.78225">
        <ele>594</ele>
        <time>2021-09-08T14:10:46Z</time>
      </trkpt>
      <trkpt lat="44.27552" lon="5.78241">
        <ele>593.9</ele>
        <time>2021-09-08T14:10:48Z</time>
      </trkpt>
      <trkpt lat="44.27551" lon="5.7825">
        <ele>593.9</ele>
        <time>2021-09-08T14:10:49Z</time>
      </trkpt>
      <trkpt lat="44.27546" lon="5.78268">
        <ele>593.7</ele>
        <time>2021-09-08T14:10:51Z</time>
      </trkpt>
      <trkpt lat="44.27542" lon="5.78277">
        <ele>593.6</ele>
        <time>2021-09-08T14:10:52Z</time>
      </trkpt>
      <trkpt lat="44.27537" lon="5.78286">
        <ele>593.5</ele>
        <time>2021-09-08T14:10:53Z</time>
      </trkpt>
      <trkpt lat="44.27524" lon="5.78296">
        <ele>593.4</ele>
        <time>2021-09-08T14:10:55Z</time>
      </trkpt>
      <trkpt lat="44.27517" lon="5.78299">
        <ele>593.2</ele>
        <time>2021-09-08T14:10:56Z</time>
      </trkpt>
      <trkpt lat="44.27509" lon="5.78301">
        <ele>593.1</ele>
        <time>2021-09-08T14:10:57Z</time>
      </trkpt>
      <trkpt lat="44.27498" lon="5.78307">
        <ele>593</ele>
        <time>2021-09-08T14:10:59Z</time>
      </trkpt>
      <trkpt lat="44.27489" lon="5.78316">
        <ele>592.9</ele>
        <time>2021-09-08T14:11:01Z</time>
      </trkpt>
      <trkpt lat="44.27484" lon="5.78322">
        <ele>592.8</ele>
        <time>2021-09-08T14:11:02Z</time>
      </trkpt>
      <trkpt lat="44.27474" lon="5.78336">
        <ele>592.6</ele>
        <time>2021-09-08T14:11:04Z</time>
      </trkpt>
      <trkpt lat="44.2747" lon="5.78345">
        <ele>592.6</ele>
        <time>2021-09-08T14:11:05Z</time>
      </trkpt>
      <trkpt lat="44.27465" lon="5.78363">
        <ele>592.4</ele>
        <time>2021-09-08T14:11:07Z</time>
      </trkpt>
      <trkpt lat="44.27462" lon="5.78372">
        <ele>592.3</ele>
        <time>2021-09-08T14:11:08Z</time>
      </trkpt>
      <trkpt lat="44.27458" lon="5.78393">
        <ele>592</ele>
        <time>2021-09-08T14:11:10Z</time>
      </trkpt>
      <trkpt lat="44.27456" lon="5.78413">
        <ele>591.7</ele>
        <time>2021-09-08T14:11:12Z</time>
      </trkpt>
      <trkpt lat="44.27457" lon="5.78431">
        <ele>591.4</ele>
        <time>2021-09-08T14:11:14Z</time>
      </trkpt>
      <trkpt lat="44.27464" lon="5.78445">
        <ele>591.1</ele>
        <time>2021-09-08T14:11:16Z</time>
      </trkpt>
      <trkpt lat="44.27471" lon="5.78449">
        <ele>590.9</ele>
        <time>2021-09-08T14:11:17Z</time>
      </trkpt>
      <trkpt lat="44.27488" lon="5.7845">
        <ele>590.5</ele>
        <time>2021-09-08T14:11:19Z</time>
      </trkpt>
      <trkpt lat="44.27508" lon="5.78444">
        <ele>590.1</ele>
        <time>2021-09-08T14:11:21Z</time>
      </trkpt>
      <trkpt lat="44.27529" lon="5.78437">
        <ele>589.7</ele>
        <time>2021-09-08T14:11:23Z</time>
      </trkpt>
      <trkpt lat="44.27539" lon="5.78433">
        <ele>589.4</ele>
        <time>2021-09-08T14:11:24Z</time>
      </trkpt>
      <trkpt lat="44.2755" lon="5.78427">
        <ele>589.2</ele>
        <time>2021-09-08T14:11:25Z</time>
      </trkpt>
      <trkpt lat="44.27559" lon="5.78422">
        <ele>588.9</ele>
        <time>2021-09-08T14:11:26Z</time>
      </trkpt>
      <trkpt lat="44.27568" lon="5.78417">
        <ele>588.8</ele>
        <time>2021-09-08T14:11:27Z</time>
      </trkpt>
      <trkpt lat="44.27582" lon="5.78405">
        <ele>588.4</ele>
        <time>2021-09-08T14:11:29Z</time>
      </trkpt>
      <trkpt lat="44.27589" lon="5.78399">
        <ele>588.2</ele>
        <time>2021-09-08T14:11:30Z</time>
      </trkpt>
      <trkpt lat="44.27604" lon="5.78388">
        <ele>587.9</ele>
        <time>2021-09-08T14:11:32Z</time>
      </trkpt>
      <trkpt lat="44.27612" lon="5.78381">
        <ele>587.8</ele>
        <time>2021-09-08T14:11:33Z</time>
      </trkpt>
      <trkpt lat="44.27624" lon="5.78369">
        <ele>587.5</ele>
        <time>2021-09-08T14:11:35Z</time>
      </trkpt>
      <trkpt lat="44.27636" lon="5.78357">
        <ele>587.2</ele>
        <time>2021-09-08T14:11:37Z</time>
      </trkpt>
      <trkpt lat="44.27643" lon="5.78351">
        <ele>587</ele>
        <time>2021-09-08T14:11:38Z</time>
      </trkpt>
      <trkpt lat="44.2765" lon="5.78346">
        <ele>586.8</ele>
        <time>2021-09-08T14:11:39Z</time>
      </trkpt>
      <trkpt lat="44.27665" lon="5.78335">
        <ele>586.5</ele>
        <time>2021-09-08T14:11:41Z</time>
      </trkpt>
      <trkpt lat="44.27672" lon="5.78329">
        <ele>586.3</ele>
        <time>2021-09-08T14:11:42Z</time>
      </trkpt>
      <trkpt lat="44.27685" lon="5.78317">
        <ele>586</ele>
        <time>2021-09-08T14:11:44Z</time>
      </trkpt>
      <trkpt lat="44.27696" lon="5.78304">
        <ele>585.7</ele>
        <time>2021-09-08T14:11:46Z</time>
      </trkpt>
      <trkpt lat="44.27706" lon="5.78288">
        <ele>585.5</ele>
        <time>2021-09-08T14:11:48Z</time>
      </trkpt>
      <trkpt lat="44.27712" lon="5.78282">
        <ele>585.4</ele>
        <time>2021-09-08T14:11:49Z</time>
      </trkpt>
      <trkpt lat="44.27724" lon="5.7827">
        <ele>585.1</ele>
        <time>2021-09-08T14:11:51Z</time>
      </trkpt>
      <trkpt lat="44.2773" lon="5.78264">
        <ele>585</ele>
        <time>2021-09-08T14:11:52Z</time>
      </trkpt>
      <trkpt lat="44.27743" lon="5.78252">
        <ele>584.6</ele>
        <time>2021-09-08T14:11:54Z</time>
      </trkpt>
      <trkpt lat="44.27755" lon="5.7824">
        <ele>584.3</ele>
        <time>2021-09-08T14:11:56Z</time>
      </trkpt>
      <trkpt lat="44.27768" lon="5.78228">
        <ele>583.9</ele>
        <time>2021-09-08T14:11:58Z</time>
      </trkpt>
      <trkpt lat="44.27782" lon="5.78217">
        <ele>583.5</ele>
        <time>2021-09-08T14:12:00Z</time>
      </trkpt>
      <trkpt lat="44.27793" lon="5.78206">
        <ele>583.1</ele>
        <time>2021-09-08T14:12:02Z</time>
      </trkpt>
      <trkpt lat="44.27804" lon="5.78197">
        <ele>582.8</ele>
        <time>2021-09-08T14:12:04Z</time>
      </trkpt>
      <trkpt lat="44.27809" lon="5.78192">
        <ele>582.7</ele>
        <time>2021-09-08T14:12:05Z</time>
      </trkpt>
      <trkpt lat="44.27821" lon="5.78183">
        <ele>582.4</ele>
        <time>2021-09-08T14:12:07Z</time>
      </trkpt>
      <trkpt lat="44.27826" lon="5.7818">
        <ele>582.3</ele>
        <time>2021-09-08T14:12:08Z</time>
      </trkpt>
      <trkpt lat="44.27832" lon="5.78178">
        <ele>582.1</ele>
        <time>2021-09-08T14:12:09Z</time>
      </trkpt>
      <trkpt lat="44.27848" lon="5.78177">
        <ele>581.8</ele>
        <time>2021-09-08T14:12:11Z</time>
      </trkpt>
      <trkpt lat="44.27858" lon="5.7818">
        <ele>581.7</ele>
        <time>2021-09-08T14:12:12Z</time>
      </trkpt>
      <trkpt lat="44.27874" lon="5.7819">
        <ele>581.5</ele>
        <time>2021-09-08T14:12:14Z</time>
      </trkpt>
      <trkpt lat="44.27881" lon="5.78195">
        <ele>581.4</ele>
        <time>2021-09-08T14:12:15Z</time>
      </trkpt>
      <trkpt lat="44.27887" lon="5.782">
        <ele>581.3</ele>
        <time>2021-09-08T14:12:16Z</time>
      </trkpt>
      <trkpt lat="44.27896" lon="5.78212">
        <ele>581.1</ele>
        <time>2021-09-08T14:12:18Z</time>
      </trkpt>
      <trkpt lat="44.27905" lon="5.78227">
        <ele>580.9</ele>
        <time>2021-09-08T14:12:20Z</time>
      </trkpt>
      <trkpt lat="44.27909" lon="5.78235">
        <ele>580.8</ele>
        <time>2021-09-08T14:12:21Z</time>
      </trkpt>
      <trkpt lat="44.27917" lon="5.78252">
        <ele>580.6</ele>
        <time>2021-09-08T14:12:23Z</time>
      </trkpt>
      <trkpt lat="44.27921" lon="5.78261">
        <ele>580.5</ele>
        <time>2021-09-08T14:12:24Z</time>
      </trkpt>
      <trkpt lat="44.27928" lon="5.78276">
        <ele>580.3</ele>
        <time>2021-09-08T14:12:26Z</time>
      </trkpt>
      <trkpt lat="44.27932" lon="5.78292">
        <ele>580.2</ele>
        <time>2021-09-08T14:12:28Z</time>
      </trkpt>
      <trkpt lat="44.27935" lon="5.783">
        <ele>580.1</ele>
        <time>2021-09-08T14:12:29Z</time>
      </trkpt>
      <trkpt lat="44.27937" lon="5.7831">
        <ele>580.1</ele>
        <time>2021-09-08T14:12:30Z</time>
      </trkpt>
      <trkpt lat="44.2794" lon="5.78319">
        <ele>580</ele>
        <time>2021-09-08T14:12:31Z</time>
      </trkpt>
      <trkpt lat="44.27944" lon="5.78336">
        <ele>579.9</ele>
        <time>2021-09-08T14:12:33Z</time>
      </trkpt>
      <trkpt lat="44.27946" lon="5.78345">
        <ele>579.9</ele>
        <time>2021-09-08T14:12:34Z</time>
      </trkpt>
      <trkpt lat="44.27948" lon="5.78354">
        <ele>579.9</ele>
        <time>2021-09-08T14:12:35Z</time>
      </trkpt>
      <trkpt lat="44.2795" lon="5.78362">
        <ele>579.8</ele>
        <time>2021-09-08T14:12:36Z</time>
      </trkpt>
      <trkpt lat="44.27952" lon="5.78379">
        <ele>579.8</ele>
        <time>2021-09-08T14:12:38Z</time>
      </trkpt>
      <trkpt lat="44.27953" lon="5.78388">
        <ele>579.7</ele>
        <time>2021-09-08T14:12:39Z</time>
      </trkpt>
      <trkpt lat="44.27956" lon="5.78406">
        <ele>579.5</ele>
        <time>2021-09-08T14:12:41Z</time>
      </trkpt>
      <trkpt lat="44.27956" lon="5.78415">
        <ele>579.5</ele>
        <time>2021-09-08T14:12:42Z</time>
      </trkpt>
      <trkpt lat="44.27958" lon="5.78424">
        <ele>579.4</ele>
        <time>2021-09-08T14:12:43Z</time>
      </trkpt>
      <trkpt lat="44.27962" lon="5.78438">
        <ele>579.3</ele>
        <time>2021-09-08T14:12:45Z</time>
      </trkpt>
      <trkpt lat="44.27964" lon="5.78445">
        <ele>579.3</ele>
        <time>2021-09-08T14:12:46Z</time>
      </trkpt>
      <trkpt lat="44.27966" lon="5.78453">
        <ele>579.2</ele>
        <time>2021-09-08T14:12:47Z</time>
      </trkpt>
      <trkpt lat="44.27967" lon="5.7846">
        <ele>579.1</ele>
        <time>2021-09-08T14:12:48Z</time>
      </trkpt>
      <trkpt lat="44.27969" lon="5.78468">
        <ele>579</ele>
        <time>2021-09-08T14:12:49Z</time>
      </trkpt>
      <trkpt lat="44.27971" lon="5.78484">
        <ele>578.9</ele>
        <time>2021-09-08T14:12:51Z</time>
      </trkpt>
      <trkpt lat="44.27972" lon="5.78493">
        <ele>578.9</ele>
        <time>2021-09-08T14:12:52Z</time>
      </trkpt>
      <trkpt lat="44.27972" lon="5.78501">
        <ele>578.8</ele>
        <time>2021-09-08T14:12:53Z</time>
      </trkpt>
      <trkpt lat="44.27972" lon="5.78519">
        <ele>578.7</ele>
        <time>2021-09-08T14:12:55Z</time>
      </trkpt>
      <trkpt lat="44.27972" lon="5.78527">
        <ele>578.7</ele>
        <time>2021-09-08T14:12:56Z</time>
      </trkpt>
      <trkpt lat="44.2797" lon="5.78545">
        <ele>578.6</ele>
        <time>2021-09-08T14:12:58Z</time>
      </trkpt>
      <trkpt lat="44.2797" lon="5.78553">
        <ele>578.5</ele>
        <time>2021-09-08T14:12:59Z</time>
      </trkpt>
      <trkpt lat="44.2797" lon="5.78561">
        <ele>578.5</ele>
        <time>2021-09-08T14:13:00Z</time>
      </trkpt>
      <trkpt lat="44.27968" lon="5.78576">
        <ele>578.5</ele>
        <time>2021-09-08T14:13:02Z</time>
      </trkpt>
      <trkpt lat="44.27966" lon="5.78584">
        <ele>578.5</ele>
        <time>2021-09-08T14:13:03Z</time>
      </trkpt>
      <trkpt lat="44.27962" lon="5.78602">
        <ele>578.5</ele>
        <time>2021-09-08T14:13:05Z</time>
      </trkpt>
      <trkpt lat="44.2796" lon="5.7861">
        <ele>578.4</ele>
        <time>2021-09-08T14:13:06Z</time>
      </trkpt>
      <trkpt lat="44.27953" lon="5.78624">
        <ele>578.4</ele>
        <time>2021-09-08T14:13:08Z</time>
      </trkpt>
      <trkpt lat="44.2795" lon="5.7863">
        <ele>578.4</ele>
        <time>2021-09-08T14:13:09Z</time>
      </trkpt>
      <trkpt lat="44.27943" lon="5.78642">
        <ele>578.4</ele>
        <time>2021-09-08T14:13:11Z</time>
      </trkpt>
      <trkpt lat="44.2794" lon="5.78648">
        <ele>578.4</ele>
        <time>2021-09-08T14:13:12Z</time>
      </trkpt>
      <trkpt lat="44.27938" lon="5.78656">
        <ele>578.4</ele>
        <time>2021-09-08T14:13:13Z</time>
      </trkpt>
      <trkpt lat="44.27937" lon="5.78673">
        <ele>578.5</ele>
        <time>2021-09-08T14:13:15Z</time>
      </trkpt>
      <trkpt lat="44.27937" lon="5.78682">
        <ele>578.6</ele>
        <time>2021-09-08T14:13:16Z</time>
      </trkpt>
      <trkpt lat="44.27938" lon="5.787">
        <ele>578.7</ele>
        <time>2021-09-08T14:13:18Z</time>
      </trkpt>
      <trkpt lat="44.27937" lon="5.78712">
        <ele>578.7</ele>
        <time>2021-09-08T14:13:20Z</time>
      </trkpt>
      <trkpt lat="44.27936" lon="5.78725">
        <ele>578.8</ele>
        <time>2021-09-08T14:13:22Z</time>
      </trkpt>
      <trkpt lat="44.27935" lon="5.78731">
        <ele>578.8</ele>
        <time>2021-09-08T14:13:23Z</time>
      </trkpt>
      <trkpt lat="44.27936" lon="5.78736">
        <ele>578.9</ele>
        <time>2021-09-08T14:13:24Z</time>
      </trkpt>
      <trkpt lat="44.27937" lon="5.78747">
        <ele>579</ele>
        <time>2021-09-08T14:13:26Z</time>
      </trkpt>
      <trkpt lat="44.2794" lon="5.7876">
        <ele>579.1</ele>
        <time>2021-09-08T14:13:28Z</time>
      </trkpt>
      <trkpt lat="44.27943" lon="5.78768">
        <ele>579.1</ele>
        <time>2021-09-08T14:13:30Z</time>
      </trkpt>
      <trkpt lat="44.27944" lon="5.78772">
        <ele>579.2</ele>
        <time>2021-09-08T14:13:31Z</time>
      </trkpt>
      <trkpt lat="44.27945" lon="5.78782">
        <ele>579.2</ele>
        <time>2021-09-08T14:13:33Z</time>
      </trkpt>
      <trkpt lat="44.27948" lon="5.78787">
        <ele>579.3</ele>
        <time>2021-09-08T14:13:34Z</time>
      </trkpt>
      <trkpt lat="44.2795" lon="5.78792">
        <ele>579.3</ele>
        <time>2021-09-08T14:13:35Z</time>
      </trkpt>
      <trkpt lat="44.27953" lon="5.78798">
        <ele>579.4</ele>
        <time>2021-09-08T14:13:36Z</time>
      </trkpt>
      <trkpt lat="44.27957" lon="5.78809">
        <ele>579.4</ele>
        <time>2021-09-08T14:13:38Z</time>
      </trkpt>
      <trkpt lat="44.27958" lon="5.78815">
        <ele>579.5</ele>
        <time>2021-09-08T14:13:39Z</time>
      </trkpt>
      <trkpt lat="44.27961" lon="5.7882">
        <ele>579.5</ele>
        <time>2021-09-08T14:13:40Z</time>
      </trkpt>
      <trkpt lat="44.27963" lon="5.78829">
        <ele>579.5</ele>
        <time>2021-09-08T14:13:42Z</time>
      </trkpt>
      <trkpt lat="44.27965" lon="5.78834">
        <ele>579.6</ele>
        <time>2021-09-08T14:13:43Z</time>
      </trkpt>
      <trkpt lat="44.27966" lon="5.7884">
        <ele>579.6</ele>
        <time>2021-09-08T14:13:44Z</time>
      </trkpt>
      <trkpt lat="44.27966" lon="5.78846">
        <ele>579.7</ele>
        <time>2021-09-08T14:13:45Z</time>
      </trkpt>
      <trkpt lat="44.27967" lon="5.78856">
        <ele>579.8</ele>
        <time>2021-09-08T14:13:47Z</time>
      </trkpt>
      <trkpt lat="44.27967" lon="5.78865">
        <ele>579.8</ele>
        <time>2021-09-08T14:13:48Z</time>
      </trkpt>
      <trkpt lat="44.27968" lon="5.78872">
        <ele>579.9</ele>
        <time>2021-09-08T14:13:50Z</time>
      </trkpt>
      <trkpt lat="44.27969" lon="5.78883">
        <ele>580</ele>
        <time>2021-09-08T14:13:52Z</time>
      </trkpt>
      <trkpt lat="44.27969" lon="5.78892">
        <ele>580</ele>
        <time>2021-09-08T14:13:54Z</time>
      </trkpt>
      <trkpt lat="44.27968" lon="5.78899">
        <ele>580.1</ele>
        <time>2021-09-08T14:13:55Z</time>
      </trkpt>
      <trkpt lat="44.27968" lon="5.78906">
        <ele>580.2</ele>
        <time>2021-09-08T14:13:56Z</time>
      </trkpt>
      <trkpt lat="44.27967" lon="5.78915">
        <ele>580.2</ele>
        <time>2021-09-08T14:13:58Z</time>
      </trkpt>
      <trkpt lat="44.27966" lon="5.78921">
        <ele>580.3</ele>
        <time>2021-09-08T14:13:59Z</time>
      </trkpt>
      <trkpt lat="44.27964" lon="5.78927">
        <ele>580.4</ele>
        <time>2021-09-08T14:14:00Z</time>
      </trkpt>
      <trkpt lat="44.27963" lon="5.78936">
        <ele>580.4</ele>
        <time>2021-09-08T14:14:02Z</time>
      </trkpt>
      <trkpt lat="44.27961" lon="5.78947">
        <ele>580.6</ele>
        <time>2021-09-08T14:14:04Z</time>
      </trkpt>
      <trkpt lat="44.27959" lon="5.78953">
        <ele>580.6</ele>
        <time>2021-09-08T14:14:05Z</time>
      </trkpt>
      <trkpt lat="44.27957" lon="5.78958">
        <ele>580.7</ele>
        <time>2021-09-08T14:14:06Z</time>
      </trkpt>
      <trkpt lat="44.27952" lon="5.78966">
        <ele>580.8</ele>
        <time>2021-09-08T14:14:08Z</time>
      </trkpt>
      <trkpt lat="44.27946" lon="5.78974">
        <ele>580.9</ele>
        <time>2021-09-08T14:14:10Z</time>
      </trkpt>
      <trkpt lat="44.2794" lon="5.78981">
        <ele>581</ele>
        <time>2021-09-08T14:14:12Z</time>
      </trkpt>
      <trkpt lat="44.27935" lon="5.78983">
        <ele>581</ele>
        <time>2021-09-08T14:14:13Z</time>
      </trkpt>
      <trkpt lat="44.27932" lon="5.78985">
        <ele>581.1</ele>
        <time>2021-09-08T14:14:14Z</time>
      </trkpt>
      <trkpt lat="44.27928" lon="5.78987">
        <ele>581.1</ele>
        <time>2021-09-08T14:14:15Z</time>
      </trkpt>
      <trkpt lat="44.27922" lon="5.78989">
        <ele>581.2</ele>
        <time>2021-09-08T14:14:16Z</time>
      </trkpt>
      <trkpt lat="44.27914" lon="5.78991">
        <ele>581.3</ele>
        <time>2021-09-08T14:14:18Z</time>
      </trkpt>
      <trkpt lat="44.27909" lon="5.78994">
        <ele>581.3</ele>
        <time>2021-09-08T14:14:19Z</time>
      </trkpt>
      <trkpt lat="44.27903" lon="5.79">
        <ele>581.4</ele>
        <time>2021-09-08T14:14:21Z</time>
      </trkpt>
      <trkpt lat="44.27896" lon="5.79006">
        <ele>581.5</ele>
        <time>2021-09-08T14:14:23Z</time>
      </trkpt>
      <trkpt lat="44.27889" lon="5.79009">
        <ele>581.5</ele>
        <time>2021-09-08T14:14:25Z</time>
      </trkpt>
      <trkpt lat="44.27883" lon="5.79014">
        <ele>581.6</ele>
        <time>2021-09-08T14:14:27Z</time>
      </trkpt>
      <trkpt lat="44.27879" lon="5.79016">
        <ele>581.6</ele>
        <time>2021-09-08T14:14:28Z</time>
      </trkpt>
      <trkpt lat="44.27875" lon="5.79018">
        <ele>581.7</ele>
        <time>2021-09-08T14:14:30Z</time>
      </trkpt>
      <trkpt lat="44.27873" lon="5.79021">
        <ele>581.7</ele>
        <time>2021-09-08T14:14:32Z</time>
      </trkpt>
      <trkpt lat="44.27875" lon="5.79023">
        <ele>581.7</ele>
        <time>2021-09-08T14:14:34Z</time>
      </trkpt>
      <trkpt lat="44.27876" lon="5.79024">
        <ele>581.8</ele>
        <time>2021-09-08T14:14:36Z</time>
      </trkpt>
      <trkpt lat="44.27876" lon="5.79024">
        <ele>581.8</ele>
        <time>2021-09-08T14:14:38Z</time>
      </trkpt>
      <trkpt lat="44.27877" lon="5.79024">
        <ele>581.8</ele>
        <time>2021-09-08T14:14:40Z</time>
      </trkpt>
      <trkpt lat="44.27877" lon="5.79025">
        <ele>581.8</ele>
        <time>2021-09-08T14:14:42Z</time>
      </trkpt>
      <trkpt lat="44.27841" lon="5.79011">
        <ele>582.1</ele>
        <time>2021-09-08T14:15:16Z</time>
      </trkpt>
      <trkpt lat="44.27833" lon="5.79006">
        <ele>582.2</ele>
        <time>2021-09-08T14:15:18Z</time>
      </trkpt>
      <trkpt lat="44.27828" lon="5.79004">
        <ele>582.2</ele>
        <time>2021-09-08T14:15:19Z</time>
      </trkpt>
      <trkpt lat="44.27824" lon="5.79004">
        <ele>582.2</ele>
        <time>2021-09-08T14:15:20Z</time>
      </trkpt>
      <trkpt lat="44.27817" lon="5.79005">
        <ele>582.2</ele>
        <time>2021-09-08T14:15:21Z</time>
      </trkpt>
      <trkpt lat="44.27813" lon="5.79006">
        <ele>582.2</ele>
        <time>2021-09-08T14:15:23Z</time>
      </trkpt>
      <trkpt lat="44.27813" lon="5.79006">
        <ele>582.2</ele>
        <time>2021-09-08T14:15:25Z</time>
      </trkpt>
      <trkpt lat="44.27813" lon="5.79007">
        <ele>582.2</ele>
        <time>2021-09-08T14:15:26Z</time>
      </trkpt>
      <trkpt lat="44.27813" lon="5.79007">
        <ele>582.2</ele>
        <time>2021-09-08T14:15:30Z</time>
      </trkpt>
      <trkpt lat="44.27821" lon="5.79096">
        <ele>580.8</ele>
        <time>2021-09-08T14:15:46Z</time>
      </trkpt>
      <trkpt lat="44.2783" lon="5.79107">
        <ele>580.4</ele>
        <time>2021-09-08T14:15:47Z</time>
      </trkpt>
      <trkpt lat="44.27834" lon="5.79115">
        <ele>580.1</ele>
        <time>2021-09-08T14:15:48Z</time>
      </trkpt>
      <trkpt lat="44.27838" lon="5.79122">
        <ele>580</ele>
        <time>2021-09-08T14:15:49Z</time>
      </trkpt>
      <trkpt lat="44.27845" lon="5.79135">
        <ele>579.6</ele>
        <time>2021-09-08T14:15:51Z</time>
      </trkpt>
      <trkpt lat="44.2785" lon="5.79142">
        <ele>579.3</ele>
        <time>2021-09-08T14:15:52Z</time>
      </trkpt>
      <trkpt lat="44.27855" lon="5.79148">
        <ele>579.1</ele>
        <time>2021-09-08T14:15:53Z</time>
      </trkpt>
      <trkpt lat="44.2786" lon="5.79163">
        <ele>578.7</ele>
        <time>2021-09-08T14:15:55Z</time>
      </trkpt>
      <trkpt lat="44.27861" lon="5.79172">
        <ele>578.4</ele>
        <time>2021-09-08T14:15:56Z</time>
      </trkpt>
      <trkpt lat="44.27861" lon="5.79182">
        <ele>578.2</ele>
        <time>2021-09-08T14:15:57Z</time>
      </trkpt>
      <trkpt lat="44.2786" lon="5.79192">
        <ele>578</ele>
        <time>2021-09-08T14:15:58Z</time>
      </trkpt>
      <trkpt lat="44.27859" lon="5.79201">
        <ele>577.8</ele>
        <time>2021-09-08T14:15:59Z</time>
      </trkpt>
      <trkpt lat="44.27855" lon="5.7922">
        <ele>577.3</ele>
        <time>2021-09-08T14:16:01Z</time>
      </trkpt>
      <trkpt lat="44.27853" lon="5.79227">
        <ele>577.2</ele>
        <time>2021-09-08T14:16:02Z</time>
      </trkpt>
      <trkpt lat="44.27848" lon="5.79241">
        <ele>576.8</ele>
        <time>2021-09-08T14:16:04Z</time>
      </trkpt>
      <trkpt lat="44.27844" lon="5.79251">
        <ele>576.5</ele>
        <time>2021-09-08T14:16:06Z</time>
      </trkpt>
      <trkpt lat="44.27842" lon="5.79255">
        <ele>576.3</ele>
        <time>2021-09-08T14:16:07Z</time>
      </trkpt>
      <trkpt lat="44.27839" lon="5.7926">
        <ele>576.2</ele>
        <time>2021-09-08T14:16:08Z</time>
      </trkpt>
      <trkpt lat="44.27837" lon="5.79265">
        <ele>576</ele>
        <time>2021-09-08T14:16:09Z</time>
      </trkpt>
      <trkpt lat="44.27834" lon="5.79273">
        <ele>575.8</ele>
        <time>2021-09-08T14:16:11Z</time>
      </trkpt>
      <trkpt lat="44.27833" lon="5.79276">
        <ele>575.7</ele>
        <time>2021-09-08T14:16:12Z</time>
      </trkpt>
      <trkpt lat="44.2783" lon="5.79282">
        <ele>575.6</ele>
        <time>2021-09-08T14:16:14Z</time>
      </trkpt>
      <trkpt lat="44.27827" lon="5.79289">
        <ele>575.4</ele>
        <time>2021-09-08T14:16:16Z</time>
      </trkpt>
      <trkpt lat="44.27823" lon="5.79296">
        <ele>575.2</ele>
        <time>2021-09-08T14:16:18Z</time>
      </trkpt>
      <trkpt lat="44.27819" lon="5.79307">
        <ele>574.9</ele>
        <time>2021-09-08T14:16:20Z</time>
      </trkpt>
      <trkpt lat="44.27815" lon="5.79316">
        <ele>574.7</ele>
        <time>2021-09-08T14:16:22Z</time>
      </trkpt>
      <trkpt lat="44.27811" lon="5.79321">
        <ele>574.5</ele>
        <time>2021-09-08T14:16:23Z</time>
      </trkpt>
      <trkpt lat="44.27803" lon="5.79332">
        <ele>574.1</ele>
        <time>2021-09-08T14:16:25Z</time>
      </trkpt>
      <trkpt lat="44.27799" lon="5.79337">
        <ele>573.9</ele>
        <time>2021-09-08T14:16:26Z</time>
      </trkpt>
      <trkpt lat="44.2779" lon="5.79345">
        <ele>573.5</ele>
        <time>2021-09-08T14:16:28Z</time>
      </trkpt>
      <trkpt lat="44.27784" lon="5.79346">
        <ele>573.3</ele>
        <time>2021-09-08T14:16:29Z</time>
      </trkpt>
      <trkpt lat="44.27777" lon="5.79346">
        <ele>573.1</ele>
        <time>2021-09-08T14:16:30Z</time>
      </trkpt>
      <trkpt lat="44.27762" lon="5.79349">
        <ele>572.6</ele>
        <time>2021-09-08T14:16:32Z</time>
      </trkpt>
      <trkpt lat="44.27755" lon="5.79354">
        <ele>572.4</ele>
        <time>2021-09-08T14:16:33Z</time>
      </trkpt>
      <trkpt lat="44.27742" lon="5.79365">
        <ele>571.8</ele>
        <time>2021-09-08T14:16:35Z</time>
      </trkpt>
      <trkpt lat="44.27737" lon="5.79372">
        <ele>571.5</ele>
        <time>2021-09-08T14:16:36Z</time>
      </trkpt>
      <trkpt lat="44.27732" lon="5.79382">
        <ele>571.2</ele>
        <time>2021-09-08T14:16:37Z</time>
      </trkpt>
      <trkpt lat="44.27725" lon="5.79404">
        <ele>570.5</ele>
        <time>2021-09-08T14:16:39Z</time>
      </trkpt>
      <trkpt lat="44.27722" lon="5.79412">
        <ele>570.2</ele>
        <time>2021-09-08T14:16:40Z</time>
      </trkpt>
      <trkpt lat="44.27719" lon="5.79422">
        <ele>570</ele>
        <time>2021-09-08T14:16:41Z</time>
      </trkpt>
      <trkpt lat="44.27711" lon="5.79438">
        <ele>569.5</ele>
        <time>2021-09-08T14:16:43Z</time>
      </trkpt>
      <trkpt lat="44.27707" lon="5.79445">
        <ele>569.3</ele>
        <time>2021-09-08T14:16:44Z</time>
      </trkpt>
      <trkpt lat="44.27702" lon="5.79461">
        <ele>569</ele>
        <time>2021-09-08T14:16:46Z</time>
      </trkpt>
      <trkpt lat="44.27698" lon="5.79468">
        <ele>568.8</ele>
        <time>2021-09-08T14:16:47Z</time>
      </trkpt>
      <trkpt lat="44.27691" lon="5.79485">
        <ele>568.3</ele>
        <time>2021-09-08T14:16:49Z</time>
      </trkpt>
      <trkpt lat="44.27689" lon="5.79495">
        <ele>568.1</ele>
        <time>2021-09-08T14:16:50Z</time>
      </trkpt>
      <trkpt lat="44.27688" lon="5.79515">
        <ele>567.6</ele>
        <time>2021-09-08T14:16:52Z</time>
      </trkpt>
      <trkpt lat="44.27686" lon="5.79525">
        <ele>567.3</ele>
        <time>2021-09-08T14:16:53Z</time>
      </trkpt>
      <trkpt lat="44.27685" lon="5.79534">
        <ele>567.1</ele>
        <time>2021-09-08T14:16:54Z</time>
      </trkpt>
      <trkpt lat="44.27682" lon="5.79553">
        <ele>566.7</ele>
        <time>2021-09-08T14:16:56Z</time>
      </trkpt>
      <trkpt lat="44.2768" lon="5.79568">
        <ele>566.3</ele>
        <time>2021-09-08T14:16:58Z</time>
      </trkpt>
      <trkpt lat="44.2768" lon="5.79575">
        <ele>566.2</ele>
        <time>2021-09-08T14:17:00Z</time>
      </trkpt>
      <trkpt lat="44.27679" lon="5.79582">
        <ele>566</ele>
        <time>2021-09-08T14:17:02Z</time>
      </trkpt>
      <trkpt lat="44.27679" lon="5.79589">
        <ele>565.8</ele>
        <time>2021-09-08T14:17:04Z</time>
      </trkpt>
      <trkpt lat="44.27678" lon="5.79593">
        <ele>565.7</ele>
        <time>2021-09-08T14:17:05Z</time>
      </trkpt>
      <trkpt lat="44.27677" lon="5.79598">
        <ele>565.6</ele>
        <time>2021-09-08T14:17:06Z</time>
      </trkpt>
      <trkpt lat="44.27677" lon="5.79607">
        <ele>565.4</ele>
        <time>2021-09-08T14:17:08Z</time>
      </trkpt>
      <trkpt lat="44.27677" lon="5.79616">
        <ele>565.2</ele>
        <time>2021-09-08T14:17:10Z</time>
      </trkpt>
      <trkpt lat="44.27676" lon="5.79621">
        <ele>565.1</ele>
        <time>2021-09-08T14:17:12Z</time>
      </trkpt>
      <trkpt lat="44.27676" lon="5.79626">
        <ele>565</ele>
        <time>2021-09-08T14:17:14Z</time>
      </trkpt>
      <trkpt lat="44.27676" lon="5.7963">
        <ele>564.9</ele>
        <time>2021-09-08T14:17:15Z</time>
      </trkpt>
      <trkpt lat="44.27678" lon="5.79638">
        <ele>564.7</ele>
        <time>2021-09-08T14:17:17Z</time>
      </trkpt>
      <trkpt lat="44.27679" lon="5.79652">
        <ele>564.4</ele>
        <time>2021-09-08T14:17:19Z</time>
      </trkpt>
      <trkpt lat="44.27679" lon="5.79659">
        <ele>564.3</ele>
        <time>2021-09-08T14:17:20Z</time>
      </trkpt>
      <trkpt lat="44.2768" lon="5.79667">
        <ele>564.1</ele>
        <time>2021-09-08T14:17:21Z</time>
      </trkpt>
      <trkpt lat="44.27681" lon="5.79683">
        <ele>563.9</ele>
        <time>2021-09-08T14:17:23Z</time>
      </trkpt>
      <trkpt lat="44.27682" lon="5.79691">
        <ele>563.7</ele>
        <time>2021-09-08T14:17:24Z</time>
      </trkpt>
      <trkpt lat="44.27683" lon="5.79701">
        <ele>563.6</ele>
        <time>2021-09-08T14:17:25Z</time>
      </trkpt>
      <trkpt lat="44.27683" lon="5.7971">
        <ele>563.5</ele>
        <time>2021-09-08T14:17:26Z</time>
      </trkpt>
      <trkpt lat="44.27683" lon="5.79728">
        <ele>563.4</ele>
        <time>2021-09-08T14:17:28Z</time>
      </trkpt>
      <trkpt lat="44.27682" lon="5.79745">
        <ele>563.3</ele>
        <time>2021-09-08T14:17:30Z</time>
      </trkpt>
      <trkpt lat="44.27679" lon="5.7976">
        <ele>563.2</ele>
        <time>2021-09-08T14:17:32Z</time>
      </trkpt>
      <trkpt lat="44.27672" lon="5.79775">
        <ele>563.2</ele>
        <time>2021-09-08T14:17:34Z</time>
      </trkpt>
      <trkpt lat="44.27669" lon="5.79782">
        <ele>563.1</ele>
        <time>2021-09-08T14:17:35Z</time>
      </trkpt>
      <trkpt lat="44.27665" lon="5.7979">
        <ele>563.1</ele>
        <time>2021-09-08T14:17:36Z</time>
      </trkpt>
      <trkpt lat="44.27658" lon="5.79806">
        <ele>563</ele>
        <time>2021-09-08T14:17:38Z</time>
      </trkpt>
      <trkpt lat="44.27655" lon="5.79815">
        <ele>563</ele>
        <time>2021-09-08T14:17:39Z</time>
      </trkpt>
      <trkpt lat="44.27649" lon="5.79831">
        <ele>562.9</ele>
        <time>2021-09-08T14:17:41Z</time>
      </trkpt>
      <trkpt lat="44.27645" lon="5.79839">
        <ele>562.9</ele>
        <time>2021-09-08T14:17:42Z</time>
      </trkpt>
      <trkpt lat="44.27638" lon="5.79854">
        <ele>562.8</ele>
        <time>2021-09-08T14:17:44Z</time>
      </trkpt>
      <trkpt lat="44.27635" lon="5.79861">
        <ele>562.8</ele>
        <time>2021-09-08T14:17:45Z</time>
      </trkpt>
      <trkpt lat="44.27633" lon="5.79868">
        <ele>562.8</ele>
        <time>2021-09-08T14:17:46Z</time>
      </trkpt>
      <trkpt lat="44.27632" lon="5.79875">
        <ele>562.8</ele>
        <time>2021-09-08T14:17:47Z</time>
      </trkpt>
      <trkpt lat="44.2763" lon="5.79883">
        <ele>562.7</ele>
        <time>2021-09-08T14:17:48Z</time>
      </trkpt>
      <trkpt lat="44.27629" lon="5.79902">
        <ele>562.6</ele>
        <time>2021-09-08T14:17:50Z</time>
      </trkpt>
      <trkpt lat="44.27627" lon="5.79921">
        <ele>562.5</ele>
        <time>2021-09-08T14:17:52Z</time>
      </trkpt>
      <trkpt lat="44.27626" lon="5.7993">
        <ele>562.4</ele>
        <time>2021-09-08T14:17:53Z</time>
      </trkpt>
      <trkpt lat="44.27624" lon="5.7994">
        <ele>562.4</ele>
        <time>2021-09-08T14:17:54Z</time>
      </trkpt>
      <trkpt lat="44.2762" lon="5.79959">
        <ele>562.2</ele>
        <time>2021-09-08T14:17:56Z</time>
      </trkpt>
      <trkpt lat="44.27618" lon="5.79969">
        <ele>562.1</ele>
        <time>2021-09-08T14:17:57Z</time>
      </trkpt>
      <trkpt lat="44.27616" lon="5.79978">
        <ele>562</ele>
        <time>2021-09-08T14:17:58Z</time>
      </trkpt>
      <trkpt lat="44.27611" lon="5.79995">
        <ele>561.8</ele>
        <time>2021-09-08T14:18:00Z</time>
      </trkpt>
      <trkpt lat="44.27609" lon="5.80003">
        <ele>561.7</ele>
        <time>2021-09-08T14:18:01Z</time>
      </trkpt>
      <trkpt lat="44.27607" lon="5.8001">
        <ele>561.7</ele>
        <time>2021-09-08T14:18:02Z</time>
      </trkpt>
      <trkpt lat="44.276" lon="5.80024">
        <ele>561.6</ele>
        <time>2021-09-08T14:18:04Z</time>
      </trkpt>
      <trkpt lat="44.27595" lon="5.80032">
        <ele>561.5</ele>
        <time>2021-09-08T14:18:05Z</time>
      </trkpt>
      <trkpt lat="44.27586" lon="5.80046">
        <ele>561.4</ele>
        <time>2021-09-08T14:18:07Z</time>
      </trkpt>
      <trkpt lat="44.27579" lon="5.80059">
        <ele>561.3</ele>
        <time>2021-09-08T14:18:09Z</time>
      </trkpt>
      <trkpt lat="44.27576" lon="5.80065">
        <ele>561.2</ele>
        <time>2021-09-08T14:18:10Z</time>
      </trkpt>
      <trkpt lat="44.27573" lon="5.80073">
        <ele>561.1</ele>
        <time>2021-09-08T14:18:11Z</time>
      </trkpt>
      <trkpt lat="44.2757" lon="5.8008">
        <ele>561</ele>
        <time>2021-09-08T14:18:12Z</time>
      </trkpt>
      <trkpt lat="44.27565" lon="5.80095">
        <ele>560.8</ele>
        <time>2021-09-08T14:18:14Z</time>
      </trkpt>
      <trkpt lat="44.27562" lon="5.80103">
        <ele>560.7</ele>
        <time>2021-09-08T14:18:15Z</time>
      </trkpt>
      <trkpt lat="44.27555" lon="5.80118">
        <ele>560.4</ele>
        <time>2021-09-08T14:18:17Z</time>
      </trkpt>
      <trkpt lat="44.27546" lon="5.80131">
        <ele>560.2</ele>
        <time>2021-09-08T14:18:19Z</time>
      </trkpt>
      <trkpt lat="44.27536" lon="5.80145">
        <ele>559.9</ele>
        <time>2021-09-08T14:18:21Z</time>
      </trkpt>
      <trkpt lat="44.2753" lon="5.80152">
        <ele>559.7</ele>
        <time>2021-09-08T14:18:22Z</time>
      </trkpt>
      <trkpt lat="44.2752" lon="5.80168">
        <ele>559.4</ele>
        <time>2021-09-08T14:18:24Z</time>
      </trkpt>
      <trkpt lat="44.2751" lon="5.80184">
        <ele>559.1</ele>
        <time>2021-09-08T14:18:26Z</time>
      </trkpt>
      <trkpt lat="44.27505" lon="5.80191">
        <ele>558.9</ele>
        <time>2021-09-08T14:18:27Z</time>
      </trkpt>
      <trkpt lat="44.27495" lon="5.80208">
        <ele>558.5</ele>
        <time>2021-09-08T14:18:29Z</time>
      </trkpt>
      <trkpt lat="44.27491" lon="5.80216">
        <ele>558.3</ele>
        <time>2021-09-08T14:18:30Z</time>
      </trkpt>
      <trkpt lat="44.27487" lon="5.80224">
        <ele>558.1</ele>
        <time>2021-09-08T14:18:31Z</time>
      </trkpt>
      <trkpt lat="44.27483" lon="5.80232">
        <ele>557.9</ele>
        <time>2021-09-08T14:18:32Z</time>
      </trkpt>
      <trkpt lat="44.27475" lon="5.80248">
        <ele>557.5</ele>
        <time>2021-09-08T14:18:34Z</time>
      </trkpt>
      <trkpt lat="44.2747" lon="5.80256">
        <ele>557.2</ele>
        <time>2021-09-08T14:18:35Z</time>
      </trkpt>
      <trkpt lat="44.27462" lon="5.80271">
        <ele>556.6</ele>
        <time>2021-09-08T14:18:37Z</time>
      </trkpt>
      <trkpt lat="44.27458" lon="5.80279">
        <ele>556.3</ele>
        <time>2021-09-08T14:18:38Z</time>
      </trkpt>
      <trkpt lat="44.27453" lon="5.80287">
        <ele>555.9</ele>
        <time>2021-09-08T14:18:39Z</time>
      </trkpt>
      <trkpt lat="44.27447" lon="5.80307">
        <ele>555.2</ele>
        <time>2021-09-08T14:18:41Z</time>
      </trkpt>
      <trkpt lat="44.2744" lon="5.80327">
        <ele>554.5</ele>
        <time>2021-09-08T14:18:43Z</time>
      </trkpt>
      <trkpt lat="44.27434" lon="5.80346">
        <ele>554</ele>
        <time>2021-09-08T14:18:45Z</time>
      </trkpt>
      <trkpt lat="44.27428" lon="5.80363">
        <ele>553.7</ele>
        <time>2021-09-08T14:18:47Z</time>
      </trkpt>
      <trkpt lat="44.27425" lon="5.80371">
        <ele>553.6</ele>
        <time>2021-09-08T14:18:48Z</time>
      </trkpt>
      <trkpt lat="44.27423" lon="5.80379">
        <ele>553.4</ele>
        <time>2021-09-08T14:18:49Z</time>
      </trkpt>
      <trkpt lat="44.27421" lon="5.80387">
        <ele>553.3</ele>
        <time>2021-09-08T14:18:50Z</time>
      </trkpt>
      <trkpt lat="44.27416" lon="5.80404">
        <ele>553.1</ele>
        <time>2021-09-08T14:18:52Z</time>
      </trkpt>
      <trkpt lat="44.27413" lon="5.80413">
        <ele>553</ele>
        <time>2021-09-08T14:18:53Z</time>
      </trkpt>
      <trkpt lat="44.27408" lon="5.80431">
        <ele>553</ele>
        <time>2021-09-08T14:18:55Z</time>
      </trkpt>
      <trkpt lat="44.27403" lon="5.80447">
        <ele>552.9</ele>
        <time>2021-09-08T14:18:57Z</time>
      </trkpt>
      <trkpt lat="44.27397" lon="5.80462">
        <ele>552.9</ele>
        <time>2021-09-08T14:18:59Z</time>
      </trkpt>
      <trkpt lat="44.27394" lon="5.80469">
        <ele>552.8</ele>
        <time>2021-09-08T14:19:00Z</time>
      </trkpt>
      <trkpt lat="44.27389" lon="5.80482">
        <ele>552.8</ele>
        <time>2021-09-08T14:19:02Z</time>
      </trkpt>
      <trkpt lat="44.27382" lon="5.80494">
        <ele>552.7</ele>
        <time>2021-09-08T14:19:04Z</time>
      </trkpt>
      <trkpt lat="44.27374" lon="5.80505">
        <ele>552.6</ele>
        <time>2021-09-08T14:19:06Z</time>
      </trkpt>
      <trkpt lat="44.27371" lon="5.8051">
        <ele>552.6</ele>
        <time>2021-09-08T14:19:07Z</time>
      </trkpt>
      <trkpt lat="44.27365" lon="5.80519">
        <ele>552.5</ele>
        <time>2021-09-08T14:19:09Z</time>
      </trkpt>
      <trkpt lat="44.27361" lon="5.80524">
        <ele>552.5</ele>
        <time>2021-09-08T14:19:10Z</time>
      </trkpt>
      <trkpt lat="44.27355" lon="5.80533">
        <ele>552.4</ele>
        <time>2021-09-08T14:19:12Z</time>
      </trkpt>
      <trkpt lat="44.27353" lon="5.80537">
        <ele>552.4</ele>
        <time>2021-09-08T14:19:13Z</time>
      </trkpt>
      <trkpt lat="44.27351" lon="5.80541">
        <ele>552.4</ele>
        <time>2021-09-08T14:19:14Z</time>
      </trkpt>
      <trkpt lat="44.27349" lon="5.80546">
        <ele>552.4</ele>
        <time>2021-09-08T14:19:15Z</time>
      </trkpt>
      <trkpt lat="44.27347" lon="5.80552">
        <ele>552.3</ele>
        <time>2021-09-08T14:19:16Z</time>
      </trkpt>
      <trkpt lat="44.27343" lon="5.80562">
        <ele>552.3</ele>
        <time>2021-09-08T14:19:18Z</time>
      </trkpt>
      <trkpt lat="44.27341" lon="5.80566">
        <ele>552.2</ele>
        <time>2021-09-08T14:19:19Z</time>
      </trkpt>
      <trkpt lat="44.27335" lon="5.80575">
        <ele>552.1</ele>
        <time>2021-09-08T14:19:21Z</time>
      </trkpt>
      <trkpt lat="44.27336" lon="5.80575">
        <ele>552.1</ele>
        <time>2021-09-08T14:19:22Z</time>
      </trkpt>
      <trkpt lat="44.27334" lon="5.80584">
        <ele>552</ele>
        <time>2021-09-08T14:19:24Z</time>
      </trkpt>
      <trkpt lat="44.27333" lon="5.80589">
        <ele>552</ele>
        <time>2021-09-08T14:19:25Z</time>
      </trkpt>
      <trkpt lat="44.2733" lon="5.80598">
        <ele>551.8</ele>
        <time>2021-09-08T14:19:27Z</time>
      </trkpt>
      <trkpt lat="44.27329" lon="5.80606">
        <ele>551.8</ele>
        <time>2021-09-08T14:19:29Z</time>
      </trkpt>
      <trkpt lat="44.27328" lon="5.80613">
        <ele>551.7</ele>
        <time>2021-09-08T14:19:31Z</time>
      </trkpt>
      <trkpt lat="44.27328" lon="5.80617">
        <ele>551.6</ele>
        <time>2021-09-08T14:19:32Z</time>
      </trkpt>
      <trkpt lat="44.27328" lon="5.80619">
        <ele>551.6</ele>
        <time>2021-09-08T14:19:33Z</time>
      </trkpt>
      <trkpt lat="44.27328" lon="5.80622">
        <ele>551.6</ele>
        <time>2021-09-08T14:19:34Z</time>
      </trkpt>
      <trkpt lat="44.27327" lon="5.80629">
        <ele>551.5</ele>
        <time>2021-09-08T14:19:36Z</time>
      </trkpt>
      <trkpt lat="44.27326" lon="5.80632">
        <ele>551.4</ele>
        <time>2021-09-08T14:19:38Z</time>
      </trkpt>
      <trkpt lat="44.27326" lon="5.80633">
        <ele>551.4</ele>
        <time>2021-09-08T14:19:40Z</time>
      </trkpt>
      <trkpt lat="44.27327" lon="5.80632">
        <ele>551.4</ele>
        <time>2021-09-08T14:19:42Z</time>
      </trkpt>
      <trkpt lat="44.27327" lon="5.80632">
        <ele>551.4</ele>
        <time>2021-09-08T14:19:43Z</time>
      </trkpt>
      <trkpt lat="44.27327" lon="5.80632">
        <ele>551.4</ele>
        <time>2021-09-08T14:19:44Z</time>
      </trkpt>
      <trkpt lat="44.27327" lon="5.80632">
        <ele>551.4</ele>
        <time>2021-09-08T14:19:45Z</time>
      </trkpt>
      <trkpt lat="44.27327" lon="5.80632">
        <ele>551.4</ele>
        <time>2021-09-08T14:19:47Z</time>
      </trkpt>
      <trkpt lat="44.27327" lon="5.80633">
        <ele>551.4</ele>
        <time>2021-09-08T14:19:49Z</time>
      </trkpt>
      <trkpt lat="44.27334" lon="5.80656">
        <ele>551</ele>
        <time>2021-09-08T14:19:58Z</time>
      </trkpt>
      <trkpt lat="44.27333" lon="5.80678">
        <ele>550.4</ele>
        <time>2021-09-08T14:20:00Z</time>
      </trkpt>
      <trkpt lat="44.27331" lon="5.80686">
        <ele>550.1</ele>
        <time>2021-09-08T14:20:01Z</time>
      </trkpt>
      <trkpt lat="44.27325" lon="5.807">
        <ele>549.5</ele>
        <time>2021-09-08T14:20:03Z</time>
      </trkpt>
      <trkpt lat="44.2732" lon="5.80706">
        <ele>549.2</ele>
        <time>2021-09-08T14:20:04Z</time>
      </trkpt>
      <trkpt lat="44.27316" lon="5.80713">
        <ele>548.9</ele>
        <time>2021-09-08T14:20:05Z</time>
      </trkpt>
      <trkpt lat="44.27308" lon="5.80728">
        <ele>548.4</ele>
        <time>2021-09-08T14:20:07Z</time>
      </trkpt>
      <trkpt lat="44.27302" lon="5.80745">
        <ele>548</ele>
        <time>2021-09-08T14:20:09Z</time>
      </trkpt>
      <trkpt lat="44.27295" lon="5.80762">
        <ele>547.5</ele>
        <time>2021-09-08T14:20:11Z</time>
      </trkpt>
      <trkpt lat="44.2729" lon="5.8078">
        <ele>547.1</ele>
        <time>2021-09-08T14:20:13Z</time>
      </trkpt>
      <trkpt lat="44.27287" lon="5.8079">
        <ele>547.1</ele>
        <time>2021-09-08T14:20:14Z</time>
      </trkpt>
      <trkpt lat="44.27284" lon="5.80799">
        <ele>547</ele>
        <time>2021-09-08T14:20:15Z</time>
      </trkpt>
      <trkpt lat="44.27282" lon="5.80808">
        <ele>546.9</ele>
        <time>2021-09-08T14:20:16Z</time>
      </trkpt>
      <trkpt lat="44.27278" lon="5.80824">
        <ele>546.7</ele>
        <time>2021-09-08T14:20:18Z</time>
      </trkpt>
      <trkpt lat="44.27277" lon="5.80831">
        <ele>546.7</ele>
        <time>2021-09-08T14:20:19Z</time>
      </trkpt>
      <trkpt lat="44.27275" lon="5.80839">
        <ele>546.6</ele>
        <time>2021-09-08T14:20:20Z</time>
      </trkpt>
      <trkpt lat="44.27272" lon="5.80855">
        <ele>546.4</ele>
        <time>2021-09-08T14:20:22Z</time>
      </trkpt>
      <trkpt lat="44.2727" lon="5.80863">
        <ele>546.3</ele>
        <time>2021-09-08T14:20:23Z</time>
      </trkpt>
      <trkpt lat="44.27265" lon="5.80878">
        <ele>546.2</ele>
        <time>2021-09-08T14:20:25Z</time>
      </trkpt>
      <trkpt lat="44.27263" lon="5.80886">
        <ele>546.1</ele>
        <time>2021-09-08T14:20:26Z</time>
      </trkpt>
      <trkpt lat="44.27258" lon="5.80903">
        <ele>545.9</ele>
        <time>2021-09-08T14:20:28Z</time>
      </trkpt>
      <trkpt lat="44.27254" lon="5.80919">
        <ele>545.7</ele>
        <time>2021-09-08T14:20:30Z</time>
      </trkpt>
      <trkpt lat="44.27253" lon="5.80926">
        <ele>545.6</ele>
        <time>2021-09-08T14:20:31Z</time>
      </trkpt>
      <trkpt lat="44.2725" lon="5.80934">
        <ele>545.5</ele>
        <time>2021-09-08T14:20:32Z</time>
      </trkpt>
      <trkpt lat="44.27246" lon="5.8095">
        <ele>545.3</ele>
        <time>2021-09-08T14:20:34Z</time>
      </trkpt>
      <trkpt lat="44.27243" lon="5.80967">
        <ele>545.2</ele>
        <time>2021-09-08T14:20:36Z</time>
      </trkpt>
      <trkpt lat="44.27239" lon="5.80984">
        <ele>545.1</ele>
        <time>2021-09-08T14:20:38Z</time>
      </trkpt>
      <trkpt lat="44.27237" lon="5.80992">
        <ele>545.1</ele>
        <time>2021-09-08T14:20:39Z</time>
      </trkpt>
      <trkpt lat="44.27233" lon="5.81007">
        <ele>545</ele>
        <time>2021-09-08T14:20:41Z</time>
      </trkpt>
      <trkpt lat="44.2723" lon="5.81022">
        <ele>545</ele>
        <time>2021-09-08T14:20:43Z</time>
      </trkpt>
      <trkpt lat="44.27228" lon="5.8103">
        <ele>544.9</ele>
        <time>2021-09-08T14:20:44Z</time>
      </trkpt>
      <trkpt lat="44.27227" lon="5.81036">
        <ele>544.9</ele>
        <time>2021-09-08T14:20:45Z</time>
      </trkpt>
      <trkpt lat="44.27225" lon="5.81048">
        <ele>544.9</ele>
        <time>2021-09-08T14:20:47Z</time>
      </trkpt>
      <trkpt lat="44.27225" lon="5.81053">
        <ele>544.9</ele>
        <time>2021-09-08T14:20:48Z</time>
      </trkpt>
      <trkpt lat="44.27224" lon="5.81059">
        <ele>544.9</ele>
        <time>2021-09-08T14:20:49Z</time>
      </trkpt>
      <trkpt lat="44.27224" lon="5.81072">
        <ele>545</ele>
        <time>2021-09-08T14:20:51Z</time>
      </trkpt>
      <trkpt lat="44.27224" lon="5.81077">
        <ele>545</ele>
        <time>2021-09-08T14:20:52Z</time>
      </trkpt>
      <trkpt lat="44.27223" lon="5.81084">
        <ele>545</ele>
        <time>2021-09-08T14:20:53Z</time>
      </trkpt>
      <trkpt lat="44.27222" lon="5.81091">
        <ele>545</ele>
        <time>2021-09-08T14:20:54Z</time>
      </trkpt>
      <trkpt lat="44.27222" lon="5.81103">
        <ele>545</ele>
        <time>2021-09-08T14:20:56Z</time>
      </trkpt>
      <trkpt lat="44.27223" lon="5.81108">
        <ele>545.1</ele>
        <time>2021-09-08T14:20:57Z</time>
      </trkpt>
      <trkpt lat="44.27223" lon="5.81115">
        <ele>545.1</ele>
        <time>2021-09-08T14:20:58Z</time>
      </trkpt>
      <trkpt lat="44.27222" lon="5.81124">
        <ele>545.2</ele>
        <time>2021-09-08T14:21:00Z</time>
      </trkpt>
      <trkpt lat="44.27222" lon="5.81134">
        <ele>545.3</ele>
        <time>2021-09-08T14:21:01Z</time>
      </trkpt>
      <trkpt lat="44.27225" lon="5.81139">
        <ele>545.3</ele>
        <time>2021-09-08T14:21:02Z</time>
      </trkpt>
      <trkpt lat="44.27227" lon="5.81144">
        <ele>545.4</ele>
        <time>2021-09-08T14:21:04Z</time>
      </trkpt>
      <trkpt lat="44.27227" lon="5.8115">
        <ele>545.4</ele>
        <time>2021-09-08T14:21:05Z</time>
      </trkpt>
      <trkpt lat="44.27227" lon="5.81154">
        <ele>545.4</ele>
        <time>2021-09-08T14:21:06Z</time>
      </trkpt>
      <trkpt lat="44.27226" lon="5.81164">
        <ele>544.6</ele>
        <time>2021-09-08T14:21:08Z</time>
      </trkpt>
      <trkpt lat="44.27224" lon="5.81173">
        <ele>544.4</ele>
        <time>2021-09-08T14:21:10Z</time>
      </trkpt>
      <trkpt lat="44.27223" lon="5.81179">
        <ele>544.3</ele>
        <time>2021-09-08T14:21:11Z</time>
      </trkpt>
      <trkpt lat="44.27223" lon="5.81184">
        <ele>544.2</ele>
        <time>2021-09-08T14:21:12Z</time>
      </trkpt>
      <trkpt lat="44.27223" lon="5.81185">
        <ele>544.2</ele>
        <time>2021-09-08T14:21:13Z</time>
      </trkpt>
      <trkpt lat="44.27223" lon="5.81189">
        <ele>544.1</ele>
        <time>2021-09-08T14:21:15Z</time>
      </trkpt>
      <trkpt lat="44.27222" lon="5.8119">
        <ele>544.1</ele>
        <time>2021-09-08T14:21:16Z</time>
      </trkpt>
      <trkpt lat="44.27222" lon="5.8119">
        <ele>544.1</ele>
        <time>2021-09-08T14:21:17Z</time>
      </trkpt>
      <trkpt lat="44.27221" lon="5.81191">
        <ele>544</ele>
        <time>2021-09-08T14:21:18Z</time>
      </trkpt>
      <trkpt lat="44.27221" lon="5.81193">
        <ele>544</ele>
        <time>2021-09-08T14:21:19Z</time>
      </trkpt>
      <trkpt lat="44.2722" lon="5.81198">
        <ele>543.9</ele>
        <time>2021-09-08T14:21:21Z</time>
      </trkpt>
      <trkpt lat="44.2722" lon="5.81206">
        <ele>543.7</ele>
        <time>2021-09-08T14:21:23Z</time>
      </trkpt>
      <trkpt lat="44.27224" lon="5.81212">
        <ele>543.5</ele>
        <time>2021-09-08T14:21:25Z</time>
      </trkpt>
      <trkpt lat="44.2723" lon="5.81217">
        <ele>543.2</ele>
        <time>2021-09-08T14:21:27Z</time>
      </trkpt>
      <trkpt lat="44.27233" lon="5.8122">
        <ele>543</ele>
        <time>2021-09-08T14:21:29Z</time>
      </trkpt>
      <trkpt lat="44.27234" lon="5.81224">
        <ele>542.9</ele>
        <time>2021-09-08T14:21:30Z</time>
      </trkpt>
      <trkpt lat="44.27233" lon="5.81225">
        <ele>542.9</ele>
        <time>2021-09-08T14:21:31Z</time>
      </trkpt>
      <trkpt lat="44.27229" lon="5.8123">
        <ele>542.6</ele>
        <time>2021-09-08T14:21:33Z</time>
      </trkpt>
      <trkpt lat="44.27226" lon="5.81232">
        <ele>542.5</ele>
        <time>2021-09-08T14:21:35Z</time>
      </trkpt>
      <trkpt lat="44.27225" lon="5.81234">
        <ele>542.5</ele>
        <time>2021-09-08T14:21:36Z</time>
      </trkpt>
      <trkpt lat="44.27225" lon="5.81234">
        <ele>542.4</ele>
        <time>2021-09-08T14:21:37Z</time>
      </trkpt>
      <trkpt lat="44.27225" lon="5.81234">
        <ele>542.4</ele>
        <time>2021-09-08T14:21:39Z</time>
      </trkpt>
      <trkpt lat="44.27225" lon="5.81234">
        <ele>542.4</ele>
        <time>2021-09-08T14:21:40Z</time>
      </trkpt>
      <trkpt lat="44.27225" lon="5.81234">
        <ele>542.4</ele>
        <time>2021-09-08T14:21:41Z</time>
      </trkpt>
      <trkpt lat="44.27225" lon="5.81234">
        <ele>542.4</ele>
        <time>2021-09-08T14:21:43Z</time>
      </trkpt>
      <trkpt lat="44.27226" lon="5.81249">
        <ele>541.8</ele>
        <time>2021-09-08T14:22:07Z</time>
      </trkpt>
      <trkpt lat="44.27225" lon="5.81254">
        <ele>541.6</ele>
        <time>2021-09-08T14:22:08Z</time>
      </trkpt>
      <trkpt lat="44.27222" lon="5.81263">
        <ele>541.2</ele>
        <time>2021-09-08T14:22:10Z</time>
      </trkpt>
      <trkpt lat="44.27217" lon="5.81273">
        <ele>540.7</ele>
        <time>2021-09-08T14:22:12Z</time>
      </trkpt>
      <trkpt lat="44.27209" lon="5.81291">
        <ele>540.1</ele>
        <time>2021-09-08T14:22:13Z</time>
      </trkpt>
      <trkpt lat="44.27203" lon="5.81313">
        <ele>539.5</ele>
        <time>2021-09-08T14:22:15Z</time>
      </trkpt>
      <trkpt lat="44.27202" lon="5.81323">
        <ele>539.2</ele>
        <time>2021-09-08T14:22:16Z</time>
      </trkpt>
      <trkpt lat="44.27202" lon="5.81342">
        <ele>538.9</ele>
        <time>2021-09-08T14:22:18Z</time>
      </trkpt>
      <trkpt lat="44.27202" lon="5.8135">
        <ele>538.7</ele>
        <time>2021-09-08T14:22:19Z</time>
      </trkpt>
      <trkpt lat="44.27204" lon="5.81363">
        <ele>538.5</ele>
        <time>2021-09-08T14:22:21Z</time>
      </trkpt>
      <trkpt lat="44.27204" lon="5.81367">
        <ele>538.4</ele>
        <time>2021-09-08T14:22:22Z</time>
      </trkpt>
      <trkpt lat="44.27204" lon="5.8137">
        <ele>538.4</ele>
        <time>2021-09-08T14:22:24Z</time>
      </trkpt>
      <trkpt lat="44.27203" lon="5.8137">
        <ele>538.3</ele>
        <time>2021-09-08T14:22:26Z</time>
      </trkpt>
      <trkpt lat="44.27201" lon="5.8137">
        <ele>538.3</ele>
        <time>2021-09-08T14:22:28Z</time>
      </trkpt>
      <trkpt lat="44.272" lon="5.8137">
        <ele>538.3</ele>
        <time>2021-09-08T14:22:30Z</time>
      </trkpt>
      <trkpt lat="44.27199" lon="5.8137">
        <ele>538.3</ele>
        <time>2021-09-08T14:22:31Z</time>
      </trkpt>
      <trkpt lat="44.27198" lon="5.8137">
        <ele>538.2</ele>
        <time>2021-09-08T14:22:33Z</time>
      </trkpt>
      <trkpt lat="44.27196" lon="5.8137">
        <ele>538.2</ele>
        <time>2021-09-08T14:22:34Z</time>
      </trkpt>
      <trkpt lat="44.27195" lon="5.8137">
        <ele>538.2</ele>
        <time>2021-09-08T14:23:26Z</time>
      </trkpt>
      <trkpt lat="44.27194" lon="5.8137">
        <ele>538.1</ele>
        <time>2021-09-08T14:23:27Z</time>
      </trkpt>
      <trkpt lat="44.27186" lon="5.81376">
        <ele>538</ele>
        <time>2021-09-08T14:23:29Z</time>
      </trkpt>
      <trkpt lat="44.27178" lon="5.81387">
        <ele>537.9</ele>
        <time>2021-09-08T14:23:30Z</time>
      </trkpt>
      <trkpt lat="44.27175" lon="5.81394">
        <ele>537.8</ele>
        <time>2021-09-08T14:23:31Z</time>
      </trkpt>
      <trkpt lat="44.27172" lon="5.81408">
        <ele>537.7</ele>
        <time>2021-09-08T14:23:33Z</time>
      </trkpt>
      <trkpt lat="44.27168" lon="5.81423">
        <ele>537.6</ele>
        <time>2021-09-08T14:23:35Z</time>
      </trkpt>
      <trkpt lat="44.27166" lon="5.81438">
        <ele>537.5</ele>
        <time>2021-09-08T14:23:37Z</time>
      </trkpt>
      <trkpt lat="44.27163" lon="5.81453">
        <ele>537.3</ele>
        <time>2021-09-08T14:23:39Z</time>
      </trkpt>
      <trkpt lat="44.27162" lon="5.8146">
        <ele>537.3</ele>
        <time>2021-09-08T14:23:40Z</time>
      </trkpt>
      <trkpt lat="44.27159" lon="5.81474">
        <ele>537.2</ele>
        <time>2021-09-08T14:23:42Z</time>
      </trkpt>
      <trkpt lat="44.27158" lon="5.81481">
        <ele>537.2</ele>
        <time>2021-09-08T14:23:43Z</time>
      </trkpt>
      <trkpt lat="44.27156" lon="5.81493">
        <ele>537.1</ele>
        <time>2021-09-08T14:23:45Z</time>
      </trkpt>
      <trkpt lat="44.27153" lon="5.81502">
        <ele>537</ele>
        <time>2021-09-08T14:23:47Z</time>
      </trkpt>
      <trkpt lat="44.27149" lon="5.81509">
        <ele>537</ele>
        <time>2021-09-08T14:23:48Z</time>
      </trkpt>
      <trkpt lat="44.27145" lon="5.81515">
        <ele>537</ele>
        <time>2021-09-08T14:23:49Z</time>
      </trkpt>
      <trkpt lat="44.2714" lon="5.81521">
        <ele>537</ele>
        <time>2021-09-08T14:23:50Z</time>
      </trkpt>
      <trkpt lat="44.27136" lon="5.81526">
        <ele>536.9</ele>
        <time>2021-09-08T14:23:51Z</time>
      </trkpt>
      <trkpt lat="44.27132" lon="5.81532">
        <ele>536.9</ele>
        <time>2021-09-08T14:23:52Z</time>
      </trkpt>
      <trkpt lat="44.27125" lon="5.81543">
        <ele>536.9</ele>
        <time>2021-09-08T14:23:54Z</time>
      </trkpt>
      <trkpt lat="44.27118" lon="5.81551">
        <ele>536.9</ele>
        <time>2021-09-08T14:23:56Z</time>
      </trkpt>
      <trkpt lat="44.27109" lon="5.81558">
        <ele>536.8</ele>
        <time>2021-09-08T14:23:58Z</time>
      </trkpt>
      <trkpt lat="44.271" lon="5.81563">
        <ele>536.8</ele>
        <time>2021-09-08T14:24:00Z</time>
      </trkpt>
      <trkpt lat="44.27095" lon="5.81565">
        <ele>536.8</ele>
        <time>2021-09-08T14:24:01Z</time>
      </trkpt>
      <trkpt lat="44.2709" lon="5.81566">
        <ele>536.7</ele>
        <time>2021-09-08T14:24:02Z</time>
      </trkpt>
      <trkpt lat="44.27081" lon="5.81568">
        <ele>536.7</ele>
        <time>2021-09-08T14:24:04Z</time>
      </trkpt>
      <trkpt lat="44.27071" lon="5.81572">
        <ele>536.6</ele>
        <time>2021-09-08T14:24:06Z</time>
      </trkpt>
      <trkpt lat="44.27062" lon="5.81576">
        <ele>536.5</ele>
        <time>2021-09-08T14:24:08Z</time>
      </trkpt>
      <trkpt lat="44.27058" lon="5.81578">
        <ele>536.5</ele>
        <time>2021-09-08T14:24:09Z</time>
      </trkpt>
      <trkpt lat="44.27049" lon="5.81581">
        <ele>536.5</ele>
        <time>2021-09-08T14:24:11Z</time>
      </trkpt>
      <trkpt lat="44.27045" lon="5.81583">
        <ele>536.4</ele>
        <time>2021-09-08T14:24:12Z</time>
      </trkpt>
      <trkpt lat="44.27034" lon="5.81586">
        <ele>536.3</ele>
        <time>2021-09-08T14:24:14Z</time>
      </trkpt>
      <trkpt lat="44.27029" lon="5.81586">
        <ele>536.3</ele>
        <time>2021-09-08T14:24:15Z</time>
      </trkpt>
      <trkpt lat="44.27019" lon="5.81585">
        <ele>536.2</ele>
        <time>2021-09-08T14:24:17Z</time>
      </trkpt>
      <trkpt lat="44.27014" lon="5.81586">
        <ele>536.2</ele>
        <time>2021-09-08T14:24:18Z</time>
      </trkpt>
      <trkpt lat="44.27005" lon="5.81589">
        <ele>536.1</ele>
        <time>2021-09-08T14:24:20Z</time>
      </trkpt>
      <trkpt lat="44.27001" lon="5.8159">
        <ele>536</ele>
        <time>2021-09-08T14:24:21Z</time>
      </trkpt>
      <trkpt lat="44.26993" lon="5.81596">
        <ele>536</ele>
        <time>2021-09-08T14:24:23Z</time>
      </trkpt>
      <trkpt lat="44.26985" lon="5.81604">
        <ele>535.8</ele>
        <time>2021-09-08T14:24:25Z</time>
      </trkpt>
      <trkpt lat="44.26978" lon="5.81615">
        <ele>535.7</ele>
        <time>2021-09-08T14:24:27Z</time>
      </trkpt>
      <trkpt lat="44.26974" lon="5.81621">
        <ele>535.6</ele>
        <time>2021-09-08T14:24:28Z</time>
      </trkpt>
      <trkpt lat="44.26969" lon="5.81636">
        <ele>535.5</ele>
        <time>2021-09-08T14:24:30Z</time>
      </trkpt>
      <trkpt lat="44.26965" lon="5.81652">
        <ele>535.4</ele>
        <time>2021-09-08T14:24:32Z</time>
      </trkpt>
      <trkpt lat="44.26962" lon="5.81666">
        <ele>535.3</ele>
        <time>2021-09-08T14:24:34Z</time>
      </trkpt>
      <trkpt lat="44.26959" lon="5.81679">
        <ele>535.2</ele>
        <time>2021-09-08T14:24:36Z</time>
      </trkpt>
      <trkpt lat="44.26956" lon="5.81685">
        <ele>535.1</ele>
        <time>2021-09-08T14:24:37Z</time>
      </trkpt>
      <trkpt lat="44.26952" lon="5.81697">
        <ele>535</ele>
        <time>2021-09-08T14:24:39Z</time>
      </trkpt>
      <trkpt lat="44.2695" lon="5.81704">
        <ele>535</ele>
        <time>2021-09-08T14:24:40Z</time>
      </trkpt>
      <trkpt lat="44.26944" lon="5.81717">
        <ele>534.9</ele>
        <time>2021-09-08T14:24:42Z</time>
      </trkpt>
      <trkpt lat="44.26937" lon="5.81731">
        <ele>534.8</ele>
        <time>2021-09-08T14:24:44Z</time>
      </trkpt>
      <trkpt lat="44.26934" lon="5.81739">
        <ele>534.8</ele>
        <time>2021-09-08T14:24:45Z</time>
      </trkpt>
      <trkpt lat="44.26931" lon="5.81747">
        <ele>534.7</ele>
        <time>2021-09-08T14:24:46Z</time>
      </trkpt>
      <trkpt lat="44.26929" lon="5.81754">
        <ele>534.6</ele>
        <time>2021-09-08T14:24:47Z</time>
      </trkpt>
      <trkpt lat="44.26926" lon="5.81762">
        <ele>534.6</ele>
        <time>2021-09-08T14:24:48Z</time>
      </trkpt>
      <trkpt lat="44.26922" lon="5.81778">
        <ele>534.5</ele>
        <time>2021-09-08T14:24:50Z</time>
      </trkpt>
      <trkpt lat="44.2692" lon="5.81785">
        <ele>534.4</ele>
        <time>2021-09-08T14:24:51Z</time>
      </trkpt>
      <trkpt lat="44.26919" lon="5.81793">
        <ele>534.3</ele>
        <time>2021-09-08T14:24:52Z</time>
      </trkpt>
      <trkpt lat="44.26917" lon="5.8181">
        <ele>534.2</ele>
        <time>2021-09-08T14:24:54Z</time>
      </trkpt>
      <trkpt lat="44.26915" lon="5.81825">
        <ele>534</ele>
        <time>2021-09-08T14:24:56Z</time>
      </trkpt>
      <trkpt lat="44.26915" lon="5.81833">
        <ele>533.9</ele>
        <time>2021-09-08T14:24:57Z</time>
      </trkpt>
      <trkpt lat="44.26914" lon="5.81841">
        <ele>533.9</ele>
        <time>2021-09-08T14:24:58Z</time>
      </trkpt>
      <trkpt lat="44.26911" lon="5.81856">
        <ele>533.7</ele>
        <time>2021-09-08T14:25:00Z</time>
      </trkpt>
      <trkpt lat="44.26908" lon="5.8187">
        <ele>533.6</ele>
        <time>2021-09-08T14:25:02Z</time>
      </trkpt>
      <trkpt lat="44.26904" lon="5.81886">
        <ele>533.6</ele>
        <time>2021-09-08T14:25:04Z</time>
      </trkpt>
      <trkpt lat="44.26901" lon="5.81893">
        <ele>533.6</ele>
        <time>2021-09-08T14:25:05Z</time>
      </trkpt>
      <trkpt lat="44.26898" lon="5.819">
        <ele>533.6</ele>
        <time>2021-09-08T14:25:06Z</time>
      </trkpt>
      <trkpt lat="44.26895" lon="5.81906">
        <ele>533.6</ele>
        <time>2021-09-08T14:25:07Z</time>
      </trkpt>
      <trkpt lat="44.26888" lon="5.81917">
        <ele>533.7</ele>
        <time>2021-09-08T14:25:09Z</time>
      </trkpt>
      <trkpt lat="44.26883" lon="5.81922">
        <ele>533.7</ele>
        <time>2021-09-08T14:25:10Z</time>
      </trkpt>
      <trkpt lat="44.26875" lon="5.81931">
        <ele>533.8</ele>
        <time>2021-09-08T14:25:12Z</time>
      </trkpt>
      <trkpt lat="44.26869" lon="5.81942">
        <ele>533.9</ele>
        <time>2021-09-08T14:25:14Z</time>
      </trkpt>
      <trkpt lat="44.26867" lon="5.81947">
        <ele>533.9</ele>
        <time>2021-09-08T14:25:15Z</time>
      </trkpt>
      <trkpt lat="44.26864" lon="5.81952">
        <ele>533.9</ele>
        <time>2021-09-08T14:25:16Z</time>
      </trkpt>
      <trkpt lat="44.26863" lon="5.81957">
        <ele>533.9</ele>
        <time>2021-09-08T14:25:17Z</time>
      </trkpt>
      <trkpt lat="44.26862" lon="5.81963">
        <ele>533.9</ele>
        <time>2021-09-08T14:25:18Z</time>
      </trkpt>
      <trkpt lat="44.26861" lon="5.81972">
        <ele>534</ele>
        <time>2021-09-08T14:25:20Z</time>
      </trkpt>
      <trkpt lat="44.2686" lon="5.81977">
        <ele>534</ele>
        <time>2021-09-08T14:25:21Z</time>
      </trkpt>
      <trkpt lat="44.26858" lon="5.81982">
        <ele>534</ele>
        <time>2021-09-08T14:25:22Z</time>
      </trkpt>
      <trkpt lat="44.26855" lon="5.81986">
        <ele>533.9</ele>
        <time>2021-09-08T14:25:23Z</time>
      </trkpt>
      <trkpt lat="44.26851" lon="5.81991">
        <ele>533.9</ele>
        <time>2021-09-08T14:25:24Z</time>
      </trkpt>
      <trkpt lat="44.26848" lon="5.8199">
        <ele>533.8</ele>
        <time>2021-09-08T14:25:25Z</time>
      </trkpt>
      <trkpt lat="44.26841" lon="5.81996">
        <ele>533.7</ele>
        <time>2021-09-08T14:25:27Z</time>
      </trkpt>
      <trkpt lat="44.26836" lon="5.81999">
        <ele>533.7</ele>
        <time>2021-09-08T14:25:28Z</time>
      </trkpt>
      <trkpt lat="44.26831" lon="5.82002">
        <ele>533.6</ele>
        <time>2021-09-08T14:25:29Z</time>
      </trkpt>
      <trkpt lat="44.26826" lon="5.82005">
        <ele>533.6</ele>
        <time>2021-09-08T14:25:30Z</time>
      </trkpt>
      <trkpt lat="44.26817" lon="5.82011">
        <ele>533.5</ele>
        <time>2021-09-08T14:25:32Z</time>
      </trkpt>
      <trkpt lat="44.26807" lon="5.82018">
        <ele>533.4</ele>
        <time>2021-09-08T14:25:34Z</time>
      </trkpt>
      <trkpt lat="44.26803" lon="5.82021">
        <ele>533.3</ele>
        <time>2021-09-08T14:25:35Z</time>
      </trkpt>
      <trkpt lat="44.26798" lon="5.82025">
        <ele>533.3</ele>
        <time>2021-09-08T14:25:36Z</time>
      </trkpt>
      <trkpt lat="44.26794" lon="5.82028">
        <ele>533.3</ele>
        <time>2021-09-08T14:25:37Z</time>
      </trkpt>
      <trkpt lat="44.26789" lon="5.82031">
        <ele>533.3</ele>
        <time>2021-09-08T14:25:38Z</time>
      </trkpt>
      <trkpt lat="44.26778" lon="5.82038">
        <ele>533.2</ele>
        <time>2021-09-08T14:25:40Z</time>
      </trkpt>
      <trkpt lat="44.26766" lon="5.82043">
        <ele>533.1</ele>
        <time>2021-09-08T14:25:42Z</time>
      </trkpt>
      <trkpt lat="44.26755" lon="5.82044">
        <ele>533</ele>
        <time>2021-09-08T14:25:44Z</time>
      </trkpt>
      <trkpt lat="44.2675" lon="5.82044">
        <ele>532.9</ele>
        <time>2021-09-08T14:25:45Z</time>
      </trkpt>
      <trkpt lat="44.26745" lon="5.82045">
        <ele>532.9</ele>
        <time>2021-09-08T14:25:46Z</time>
      </trkpt>
      <trkpt lat="44.2674" lon="5.82047">
        <ele>532.8</ele>
        <time>2021-09-08T14:25:47Z</time>
      </trkpt>
      <trkpt lat="44.26729" lon="5.8205">
        <ele>532.8</ele>
        <time>2021-09-08T14:25:49Z</time>
      </trkpt>
      <trkpt lat="44.26724" lon="5.82052">
        <ele>532.7</ele>
        <time>2021-09-08T14:25:50Z</time>
      </trkpt>
      <trkpt lat="44.26719" lon="5.82053">
        <ele>532.7</ele>
        <time>2021-09-08T14:25:51Z</time>
      </trkpt>
      <trkpt lat="44.26713" lon="5.82055">
        <ele>532.6</ele>
        <time>2021-09-08T14:25:52Z</time>
      </trkpt>
      <trkpt lat="44.26703" lon="5.82063">
        <ele>532.5</ele>
        <time>2021-09-08T14:25:54Z</time>
      </trkpt>
      <trkpt lat="44.26695" lon="5.8207">
        <ele>532.4</ele>
        <time>2021-09-08T14:25:56Z</time>
      </trkpt>
      <trkpt lat="44.26686" lon="5.8208">
        <ele>532.2</ele>
        <time>2021-09-08T14:25:58Z</time>
      </trkpt>
      <trkpt lat="44.26681" lon="5.82082">
        <ele>532.2</ele>
        <time>2021-09-08T14:25:59Z</time>
      </trkpt>
      <trkpt lat="44.2667" lon="5.82084">
        <ele>532</ele>
        <time>2021-09-08T14:26:01Z</time>
      </trkpt>
      <trkpt lat="44.2666" lon="5.82084">
        <ele>531.9</ele>
        <time>2021-09-08T14:26:03Z</time>
      </trkpt>
      <trkpt lat="44.26655" lon="5.82085">
        <ele>531.9</ele>
        <time>2021-09-08T14:26:04Z</time>
      </trkpt>
      <trkpt lat="44.26648" lon="5.82085">
        <ele>531.8</ele>
        <time>2021-09-08T14:26:05Z</time>
      </trkpt>
      <trkpt lat="44.26637" lon="5.82086">
        <ele>531.6</ele>
        <time>2021-09-08T14:26:07Z</time>
      </trkpt>
      <trkpt lat="44.26631" lon="5.82088">
        <ele>531.5</ele>
        <time>2021-09-08T14:26:08Z</time>
      </trkpt>
      <trkpt lat="44.2662" lon="5.82092">
        <ele>531.3</ele>
        <time>2021-09-08T14:26:10Z</time>
      </trkpt>
      <trkpt lat="44.26607" lon="5.82096">
        <ele>531.1</ele>
        <time>2021-09-08T14:26:12Z</time>
      </trkpt>
      <trkpt lat="44.26595" lon="5.82099">
        <ele>530.8</ele>
        <time>2021-09-08T14:26:14Z</time>
      </trkpt>
      <trkpt lat="44.26583" lon="5.821">
        <ele>530.6</ele>
        <time>2021-09-08T14:26:16Z</time>
      </trkpt>
      <trkpt lat="44.26569" lon="5.82104">
        <ele>530.3</ele>
        <time>2021-09-08T14:26:18Z</time>
      </trkpt>
      <trkpt lat="44.26557" lon="5.82107">
        <ele>529.9</ele>
        <time>2021-09-08T14:26:20Z</time>
      </trkpt>
      <trkpt lat="44.26543" lon="5.82113">
        <ele>529.4</ele>
        <time>2021-09-08T14:26:22Z</time>
      </trkpt>
      <trkpt lat="44.2653" lon="5.82118">
        <ele>529</ele>
        <time>2021-09-08T14:26:24Z</time>
      </trkpt>
      <trkpt lat="44.26523" lon="5.8212">
        <ele>528.8</ele>
        <time>2021-09-08T14:26:25Z</time>
      </trkpt>
      <trkpt lat="44.26516" lon="5.82123">
        <ele>528.7</ele>
        <time>2021-09-08T14:26:26Z</time>
      </trkpt>
      <trkpt lat="44.26502" lon="5.82128">
        <ele>528.3</ele>
        <time>2021-09-08T14:26:28Z</time>
      </trkpt>
      <trkpt lat="44.26495" lon="5.82131">
        <ele>528.2</ele>
        <time>2021-09-08T14:26:29Z</time>
      </trkpt>
      <trkpt lat="44.26488" lon="5.82135">
        <ele>528</ele>
        <time>2021-09-08T14:26:30Z</time>
      </trkpt>
      <trkpt lat="44.26482" lon="5.82138">
        <ele>527.9</ele>
        <time>2021-09-08T14:26:31Z</time>
      </trkpt>
      <trkpt lat="44.2647" lon="5.82144">
        <ele>527.7</ele>
        <time>2021-09-08T14:26:33Z</time>
      </trkpt>
      <trkpt lat="44.2646" lon="5.82149">
        <ele>527.5</ele>
        <time>2021-09-08T14:26:35Z</time>
      </trkpt>
      <trkpt lat="44.26453" lon="5.82151">
        <ele>527.4</ele>
        <time>2021-09-08T14:26:36Z</time>
      </trkpt>
      <trkpt lat="44.26438" lon="5.8215">
        <ele>527.3</ele>
        <time>2021-09-08T14:26:38Z</time>
      </trkpt>
      <trkpt lat="44.26431" lon="5.82149">
        <ele>527.2</ele>
        <time>2021-09-08T14:26:39Z</time>
      </trkpt>
      <trkpt lat="44.26418" lon="5.82149">
        <ele>527.2</ele>
        <time>2021-09-08T14:26:41Z</time>
      </trkpt>
      <trkpt lat="44.26411" lon="5.8215">
        <ele>527.2</ele>
        <time>2021-09-08T14:26:42Z</time>
      </trkpt>
      <trkpt lat="44.26397" lon="5.82155">
        <ele>527.2</ele>
        <time>2021-09-08T14:26:44Z</time>
      </trkpt>
      <trkpt lat="44.26391" lon="5.8216">
        <ele>527.2</ele>
        <time>2021-09-08T14:26:45Z</time>
      </trkpt>
      <trkpt lat="44.26385" lon="5.82164">
        <ele>527.3</ele>
        <time>2021-09-08T14:26:46Z</time>
      </trkpt>
      <trkpt lat="44.26374" lon="5.82173">
        <ele>527.4</ele>
        <time>2021-09-08T14:26:48Z</time>
      </trkpt>
      <trkpt lat="44.26363" lon="5.82182">
        <ele>527.6</ele>
        <time>2021-09-08T14:26:50Z</time>
      </trkpt>
      <trkpt lat="44.26354" lon="5.82192">
        <ele>527.7</ele>
        <time>2021-09-08T14:26:52Z</time>
      </trkpt>
      <trkpt lat="44.26349" lon="5.82197">
        <ele>527.7</ele>
        <time>2021-09-08T14:26:53Z</time>
      </trkpt>
      <trkpt lat="44.26338" lon="5.82205">
        <ele>527.8</ele>
        <time>2021-09-08T14:26:55Z</time>
      </trkpt>
      <trkpt lat="44.26334" lon="5.82208">
        <ele>527.9</ele>
        <time>2021-09-08T14:26:56Z</time>
      </trkpt>
      <trkpt lat="44.26325" lon="5.82213">
        <ele>527.9</ele>
        <time>2021-09-08T14:26:58Z</time>
      </trkpt>
      <trkpt lat="44.26315" lon="5.82218">
        <ele>528</ele>
        <time>2021-09-08T14:27:00Z</time>
      </trkpt>
      <trkpt lat="44.26311" lon="5.82219">
        <ele>528</ele>
        <time>2021-09-08T14:27:01Z</time>
      </trkpt>
      <trkpt lat="44.26301" lon="5.8222">
        <ele>528.1</ele>
        <time>2021-09-08T14:27:03Z</time>
      </trkpt>
      <trkpt lat="44.26295" lon="5.82221">
        <ele>528.2</ele>
        <time>2021-09-08T14:27:04Z</time>
      </trkpt>
      <trkpt lat="44.26285" lon="5.82225">
        <ele>528.2</ele>
        <time>2021-09-08T14:27:06Z</time>
      </trkpt>
      <trkpt lat="44.26281" lon="5.82227">
        <ele>528.3</ele>
        <time>2021-09-08T14:27:07Z</time>
      </trkpt>
      <trkpt lat="44.26276" lon="5.82228">
        <ele>528.3</ele>
        <time>2021-09-08T14:27:08Z</time>
      </trkpt>
      <trkpt lat="44.26267" lon="5.82232">
        <ele>528.4</ele>
        <time>2021-09-08T14:27:10Z</time>
      </trkpt>
      <trkpt lat="44.26263" lon="5.82233">
        <ele>528.4</ele>
        <time>2021-09-08T14:27:11Z</time>
      </trkpt>
      <trkpt lat="44.26256" lon="5.82236">
        <ele>528.5</ele>
        <time>2021-09-08T14:27:13Z</time>
      </trkpt>
      <trkpt lat="44.26249" lon="5.8224">
        <ele>528.6</ele>
        <time>2021-09-08T14:27:15Z</time>
      </trkpt>
      <trkpt lat="44.26241" lon="5.82247">
        <ele>528.7</ele>
        <time>2021-09-08T14:27:17Z</time>
      </trkpt>
      <trkpt lat="44.26236" lon="5.8225">
        <ele>528.7</ele>
        <time>2021-09-08T14:27:18Z</time>
      </trkpt>
      <trkpt lat="44.26233" lon="5.82254">
        <ele>528.8</ele>
        <time>2021-09-08T14:27:20Z</time>
      </trkpt>
      <trkpt lat="44.2623" lon="5.82257">
        <ele>528.8</ele>
        <time>2021-09-08T14:27:21Z</time>
      </trkpt>
      <trkpt lat="44.26224" lon="5.82263">
        <ele>528.9</ele>
        <time>2021-09-08T14:27:23Z</time>
      </trkpt>
      <trkpt lat="44.26218" lon="5.82266">
        <ele>529</ele>
        <time>2021-09-08T14:27:24Z</time>
      </trkpt>
      <trkpt lat="44.26209" lon="5.82271">
        <ele>529.1</ele>
        <time>2021-09-08T14:27:26Z</time>
      </trkpt>
      <trkpt lat="44.26203" lon="5.82274">
        <ele>529.2</ele>
        <time>2021-09-08T14:27:28Z</time>
      </trkpt>
      <trkpt lat="44.26197" lon="5.82276">
        <ele>529.3</ele>
        <time>2021-09-08T14:27:29Z</time>
      </trkpt>
      <trkpt lat="44.2619" lon="5.82279">
        <ele>529.3</ele>
        <time>2021-09-08T14:27:31Z</time>
      </trkpt>
      <trkpt lat="44.26187" lon="5.82282">
        <ele>529.4</ele>
        <time>2021-09-08T14:27:32Z</time>
      </trkpt>
      <trkpt lat="44.26182" lon="5.82285">
        <ele>529.4</ele>
        <time>2021-09-08T14:27:33Z</time>
      </trkpt>
      <trkpt lat="44.26176" lon="5.8229">
        <ele>529.5</ele>
        <time>2021-09-08T14:27:35Z</time>
      </trkpt>
      <trkpt lat="44.26171" lon="5.82295">
        <ele>529.6</ele>
        <time>2021-09-08T14:27:37Z</time>
      </trkpt>
      <trkpt lat="44.26166" lon="5.823">
        <ele>529.7</ele>
        <time>2021-09-08T14:27:38Z</time>
      </trkpt>
      <trkpt lat="44.26163" lon="5.82304">
        <ele>529.7</ele>
        <time>2021-09-08T14:27:39Z</time>
      </trkpt>
      <trkpt lat="44.26156" lon="5.82308">
        <ele>529.8</ele>
        <time>2021-09-08T14:27:41Z</time>
      </trkpt>
      <trkpt lat="44.2615" lon="5.82309">
        <ele>529.9</ele>
        <time>2021-09-08T14:27:42Z</time>
      </trkpt>
      <trkpt lat="44.26142" lon="5.82312">
        <ele>530</ele>
        <time>2021-09-08T14:27:44Z</time>
      </trkpt>
      <trkpt lat="44.26135" lon="5.82315">
        <ele>530.1</ele>
        <time>2021-09-08T14:27:46Z</time>
      </trkpt>
      <trkpt lat="44.26128" lon="5.82318">
        <ele>530.2</ele>
        <time>2021-09-08T14:27:48Z</time>
      </trkpt>
      <trkpt lat="44.26123" lon="5.82321">
        <ele>530.3</ele>
        <time>2021-09-08T14:27:49Z</time>
      </trkpt>
      <trkpt lat="44.26114" lon="5.82325">
        <ele>530.4</ele>
        <time>2021-09-08T14:27:51Z</time>
      </trkpt>
      <trkpt lat="44.26109" lon="5.82328">
        <ele>530.4</ele>
        <time>2021-09-08T14:27:52Z</time>
      </trkpt>
      <trkpt lat="44.26101" lon="5.82332">
        <ele>530.5</ele>
        <time>2021-09-08T14:27:54Z</time>
      </trkpt>
      <trkpt lat="44.26096" lon="5.82334">
        <ele>530.6</ele>
        <time>2021-09-08T14:27:55Z</time>
      </trkpt>
      <trkpt lat="44.26091" lon="5.82335">
        <ele>530.6</ele>
        <time>2021-09-08T14:27:56Z</time>
      </trkpt>
      <trkpt lat="44.26081" lon="5.82336">
        <ele>530.8</ele>
        <time>2021-09-08T14:27:58Z</time>
      </trkpt>
      <trkpt lat="44.2607" lon="5.82336">
        <ele>530.9</ele>
        <time>2021-09-08T14:28:00Z</time>
      </trkpt>
      <trkpt lat="44.26065" lon="5.82336">
        <ele>531</ele>
        <time>2021-09-08T14:28:01Z</time>
      </trkpt>
      <trkpt lat="44.26057" lon="5.82338">
        <ele>531.1</ele>
        <time>2021-09-08T14:28:03Z</time>
      </trkpt>
      <trkpt lat="44.26055" lon="5.82337">
        <ele>531.1</ele>
        <time>2021-09-08T14:28:04Z</time>
      </trkpt>
      <trkpt lat="44.26047" lon="5.82337">
        <ele>531.2</ele>
        <time>2021-09-08T14:28:06Z</time>
      </trkpt>
      <trkpt lat="44.26042" lon="5.82337">
        <ele>531.3</ele>
        <time>2021-09-08T14:28:07Z</time>
      </trkpt>
      <trkpt lat="44.26036" lon="5.82337">
        <ele>531.4</ele>
        <time>2021-09-08T14:28:09Z</time>
      </trkpt>
      <trkpt lat="44.26031" lon="5.82337">
        <ele>531.4</ele>
        <time>2021-09-08T14:28:10Z</time>
      </trkpt>
      <trkpt lat="44.26021" lon="5.82339">
        <ele>531.5</ele>
        <time>2021-09-08T14:28:12Z</time>
      </trkpt>
      <trkpt lat="44.26017" lon="5.8234">
        <ele>531.6</ele>
        <time>2021-09-08T14:28:13Z</time>
      </trkpt>
      <trkpt lat="44.26013" lon="5.82343">
        <ele>531.7</ele>
        <time>2021-09-08T14:28:15Z</time>
      </trkpt>
      <trkpt lat="44.26007" lon="5.82346">
        <ele>531.7</ele>
        <time>2021-09-08T14:28:17Z</time>
      </trkpt>
      <trkpt lat="44.26003" lon="5.82345">
        <ele>531.8</ele>
        <time>2021-09-08T14:28:19Z</time>
      </trkpt>
      <trkpt lat="44.26001" lon="5.82345">
        <ele>531.8</ele>
        <time>2021-09-08T14:28:20Z</time>
      </trkpt>
      <trkpt lat="44.25997" lon="5.82345">
        <ele>531.9</ele>
        <time>2021-09-08T14:28:22Z</time>
      </trkpt>
      <trkpt lat="44.25995" lon="5.82345">
        <ele>531.9</ele>
        <time>2021-09-08T14:28:23Z</time>
      </trkpt>
      <trkpt lat="44.2599" lon="5.82345">
        <ele>531.9</ele>
        <time>2021-09-08T14:28:25Z</time>
      </trkpt>
      <trkpt lat="44.2598" lon="5.82345">
        <ele>532</ele>
        <time>2021-09-08T14:28:26Z</time>
      </trkpt>
      <trkpt lat="44.25973" lon="5.82345">
        <ele>532.1</ele>
        <time>2021-09-08T14:28:27Z</time>
      </trkpt>
      <trkpt lat="44.25973" lon="5.82345">
        <ele>532.1</ele>
        <time>2021-09-08T14:28:27Z</time>
      </trkpt>
      <trkpt lat="44.25963" lon="5.82345">
        <ele>532.1</ele>
        <time>2021-09-08T14:28:29Z</time>
      </trkpt>
      <trkpt lat="44.25952" lon="5.82346">
        <ele>532.1</ele>
        <time>2021-09-08T14:28:31Z</time>
      </trkpt>
      <trkpt lat="44.25942" lon="5.82345">
        <ele>532.2</ele>
        <time>2021-09-08T14:28:32Z</time>
      </trkpt>
      <trkpt lat="44.25931" lon="5.82346">
        <ele>532.2</ele>
        <time>2021-09-08T14:28:34Z</time>
      </trkpt>
      <trkpt lat="44.25925" lon="5.82349">
        <ele>532.2</ele>
        <time>2021-09-08T14:28:35Z</time>
      </trkpt>
      <trkpt lat="44.25915" lon="5.82351">
        <ele>532.1</ele>
        <time>2021-09-08T14:28:37Z</time>
      </trkpt>
      <trkpt lat="44.25909" lon="5.82349">
        <ele>532.1</ele>
        <time>2021-09-08T14:28:38Z</time>
      </trkpt>
      <trkpt lat="44.25898" lon="5.82344">
        <ele>532.1</ele>
        <time>2021-09-08T14:28:40Z</time>
      </trkpt>
      <trkpt lat="44.25895" lon="5.82344">
        <ele>532.1</ele>
        <time>2021-09-08T14:28:41Z</time>
      </trkpt>
      <trkpt lat="44.25892" lon="5.82345">
        <ele>532.1</ele>
        <time>2021-09-08T14:28:43Z</time>
      </trkpt>
      <trkpt lat="44.25886" lon="5.82345">
        <ele>532</ele>
        <time>2021-09-08T14:28:44Z</time>
      </trkpt>
      <trkpt lat="44.25884" lon="5.82344">
        <ele>532</ele>
        <time>2021-09-08T14:28:45Z</time>
      </trkpt>
      <trkpt lat="44.2588" lon="5.82343">
        <ele>532</ele>
        <time>2021-09-08T14:28:47Z</time>
      </trkpt>
      <trkpt lat="44.25871" lon="5.82342">
        <ele>531.8</ele>
        <time>2021-09-08T14:28:48Z</time>
      </trkpt>
      <trkpt lat="44.25864" lon="5.82341">
        <ele>531.7</ele>
        <time>2021-09-08T14:28:50Z</time>
      </trkpt>
      <trkpt lat="44.25832" lon="5.8234">
        <ele>531.3</ele>
        <time>2021-09-08T14:28:53Z</time>
      </trkpt>
      <trkpt lat="44.25824" lon="5.82345">
        <ele>531.2</ele>
        <time>2021-09-08T14:28:54Z</time>
      </trkpt>
      <trkpt lat="44.25811" lon="5.82356">
        <ele>531</ele>
        <time>2021-09-08T14:28:56Z</time>
      </trkpt>
      <trkpt lat="44.25801" lon="5.82368">
        <ele>530.9</ele>
        <time>2021-09-08T14:28:58Z</time>
      </trkpt>
      <trkpt lat="44.25796" lon="5.82373">
        <ele>530.8</ele>
        <time>2021-09-08T14:28:59Z</time>
      </trkpt>
      <trkpt lat="44.25792" lon="5.82384">
        <ele>530.7</ele>
        <time>2021-09-08T14:29:00Z</time>
      </trkpt>
      <trkpt lat="44.25788" lon="5.82393">
        <ele>530.6</ele>
        <time>2021-09-08T14:29:01Z</time>
      </trkpt>
      <trkpt lat="44.25783" lon="5.824">
        <ele>530.5</ele>
        <time>2021-09-08T14:29:02Z</time>
      </trkpt>
      <trkpt lat="44.25779" lon="5.82423">
        <ele>530.3</ele>
        <time>2021-09-08T14:29:04Z</time>
      </trkpt>
      <trkpt lat="44.25773" lon="5.82441">
        <ele>530</ele>
        <time>2021-09-08T14:29:06Z</time>
      </trkpt>
      <trkpt lat="44.25765" lon="5.82455">
        <ele>529.9</ele>
        <time>2021-09-08T14:29:08Z</time>
      </trkpt>
      <trkpt lat="44.25754" lon="5.82466">
        <ele>529.7</ele>
        <time>2021-09-08T14:29:10Z</time>
      </trkpt>
      <trkpt lat="44.25748" lon="5.82471">
        <ele>529.6</ele>
        <time>2021-09-08T14:29:11Z</time>
      </trkpt>
      <trkpt lat="44.25738" lon="5.82481">
        <ele>529.5</ele>
        <time>2021-09-08T14:29:13Z</time>
      </trkpt>
      <trkpt lat="44.25733" lon="5.82486">
        <ele>529.4</ele>
        <time>2021-09-08T14:29:14Z</time>
      </trkpt>
      <trkpt lat="44.25728" lon="5.82491">
        <ele>529.3</ele>
        <time>2021-09-08T14:29:15Z</time>
      </trkpt>
      <trkpt lat="44.25722" lon="5.82495">
        <ele>529.3</ele>
        <time>2021-09-08T14:29:16Z</time>
      </trkpt>
      <trkpt lat="44.25711" lon="5.82503">
        <ele>529.1</ele>
        <time>2021-09-08T14:29:18Z</time>
      </trkpt>
      <trkpt lat="44.25706" lon="5.82507">
        <ele>529</ele>
        <time>2021-09-08T14:29:19Z</time>
      </trkpt>
      <trkpt lat="44.25701" lon="5.8251">
        <ele>528.9</ele>
        <time>2021-09-08T14:29:20Z</time>
      </trkpt>
      <trkpt lat="44.25692" lon="5.82518">
        <ele>528.7</ele>
        <time>2021-09-08T14:29:22Z</time>
      </trkpt>
      <trkpt lat="44.25688" lon="5.82522">
        <ele>528.6</ele>
        <time>2021-09-08T14:29:23Z</time>
      </trkpt>
      <trkpt lat="44.25681" lon="5.82532">
        <ele>528.4</ele>
        <time>2021-09-08T14:29:25Z</time>
      </trkpt>
      <trkpt lat="44.25678" lon="5.82537">
        <ele>528.3</ele>
        <time>2021-09-08T14:29:26Z</time>
      </trkpt>
      <trkpt lat="44.25671" lon="5.82546">
        <ele>528</ele>
        <time>2021-09-08T14:29:28Z</time>
      </trkpt>
      <trkpt lat="44.25663" lon="5.82557">
        <ele>527.7</ele>
        <time>2021-09-08T14:29:30Z</time>
      </trkpt>
      <trkpt lat="44.25652" lon="5.82569">
        <ele>527.3</ele>
        <time>2021-09-08T14:29:32Z</time>
      </trkpt>
      <trkpt lat="44.25646" lon="5.82576">
        <ele>527.1</ele>
        <time>2021-09-08T14:29:33Z</time>
      </trkpt>
      <trkpt lat="44.2564" lon="5.82583">
        <ele>527</ele>
        <time>2021-09-08T14:29:34Z</time>
      </trkpt>
      <trkpt lat="44.25631" lon="5.82595">
        <ele>526.7</ele>
        <time>2021-09-08T14:29:36Z</time>
      </trkpt>
      <trkpt lat="44.25619" lon="5.82607">
        <ele>526.4</ele>
        <time>2021-09-08T14:29:38Z</time>
      </trkpt>
      <trkpt lat="44.2561" lon="5.82623">
        <ele>526.2</ele>
        <time>2021-09-08T14:29:40Z</time>
      </trkpt>
      <trkpt lat="44.25601" lon="5.82639">
        <ele>525.9</ele>
        <time>2021-09-08T14:29:42Z</time>
      </trkpt>
      <trkpt lat="44.25597" lon="5.82646">
        <ele>525.9</ele>
        <time>2021-09-08T14:29:43Z</time>
      </trkpt>
      <trkpt lat="44.25593" lon="5.82653">
        <ele>525.8</ele>
        <time>2021-09-08T14:29:44Z</time>
      </trkpt>
      <trkpt lat="44.2559" lon="5.8266">
        <ele>525.8</ele>
        <time>2021-09-08T14:29:45Z</time>
      </trkpt>
      <trkpt lat="44.25581" lon="5.82674">
        <ele>525.6</ele>
        <time>2021-09-08T14:29:47Z</time>
      </trkpt>
      <trkpt lat="44.25575" lon="5.82681">
        <ele>525.6</ele>
        <time>2021-09-08T14:29:48Z</time>
      </trkpt>
      <trkpt lat="44.25565" lon="5.82697">
        <ele>525.4</ele>
        <time>2021-09-08T14:29:50Z</time>
      </trkpt>
      <trkpt lat="44.2556" lon="5.82706">
        <ele>525.2</ele>
        <time>2021-09-08T14:29:51Z</time>
      </trkpt>
      <trkpt lat="44.25555" lon="5.82715">
        <ele>525.1</ele>
        <time>2021-09-08T14:29:52Z</time>
      </trkpt>
      <trkpt lat="44.25547" lon="5.82733">
        <ele>524.8</ele>
        <time>2021-09-08T14:29:54Z</time>
      </trkpt>
      <trkpt lat="44.25541" lon="5.82752">
        <ele>524.5</ele>
        <time>2021-09-08T14:29:56Z</time>
      </trkpt>
      <trkpt lat="44.25536" lon="5.82771">
        <ele>524.1</ele>
        <time>2021-09-08T14:29:58Z</time>
      </trkpt>
      <trkpt lat="44.25534" lon="5.82782">
        <ele>523.9</ele>
        <time>2021-09-08T14:29:59Z</time>
      </trkpt>
      <trkpt lat="44.25532" lon="5.82792">
        <ele>523.7</ele>
        <time>2021-09-08T14:30:00Z</time>
      </trkpt>
      <trkpt lat="44.2553" lon="5.82802">
        <ele>523.5</ele>
        <time>2021-09-08T14:30:01Z</time>
      </trkpt>
      <trkpt lat="44.25526" lon="5.82821">
        <ele>523.1</ele>
        <time>2021-09-08T14:30:03Z</time>
      </trkpt>
      <trkpt lat="44.25522" lon="5.8284">
        <ele>522.8</ele>
        <time>2021-09-08T14:30:05Z</time>
      </trkpt>
      <trkpt lat="44.25518" lon="5.8286">
        <ele>522.5</ele>
        <time>2021-09-08T14:30:07Z</time>
      </trkpt>
      <trkpt lat="44.25516" lon="5.8287">
        <ele>522.4</ele>
        <time>2021-09-08T14:30:08Z</time>
      </trkpt>
      <trkpt lat="44.25511" lon="5.82888">
        <ele>522.2</ele>
        <time>2021-09-08T14:30:10Z</time>
      </trkpt>
      <trkpt lat="44.25506" lon="5.82905">
        <ele>522</ele>
        <time>2021-09-08T14:30:12Z</time>
      </trkpt>
      <trkpt lat="44.25502" lon="5.82922">
        <ele>521.9</ele>
        <time>2021-09-08T14:30:14Z</time>
      </trkpt>
      <trkpt lat="44.25499" lon="5.82938">
        <ele>521.8</ele>
        <time>2021-09-08T14:30:16Z</time>
      </trkpt>
      <trkpt lat="44.25495" lon="5.82955">
        <ele>521.7</ele>
        <time>2021-09-08T14:30:18Z</time>
      </trkpt>
      <trkpt lat="44.25488" lon="5.82971">
        <ele>521.5</ele>
        <time>2021-09-08T14:30:20Z</time>
      </trkpt>
      <trkpt lat="44.25484" lon="5.82988">
        <ele>521.5</ele>
        <time>2021-09-08T14:30:22Z</time>
      </trkpt>
      <trkpt lat="44.25482" lon="5.82996">
        <ele>521.5</ele>
        <time>2021-09-08T14:30:23Z</time>
      </trkpt>
      <trkpt lat="44.25478" lon="5.83012">
        <ele>521.5</ele>
        <time>2021-09-08T14:30:25Z</time>
      </trkpt>
      <trkpt lat="44.25472" lon="5.83028">
        <ele>521.5</ele>
        <time>2021-09-08T14:30:27Z</time>
      </trkpt>
      <trkpt lat="44.25467" lon="5.83041">
        <ele>521.6</ele>
        <time>2021-09-08T14:30:29Z</time>
      </trkpt>
      <trkpt lat="44.25461" lon="5.83056">
        <ele>521.6</ele>
        <time>2021-09-08T14:30:31Z</time>
      </trkpt>
      <trkpt lat="44.25457" lon="5.83064">
        <ele>521.7</ele>
        <time>2021-09-08T14:30:32Z</time>
      </trkpt>
      <trkpt lat="44.25454" lon="5.83071">
        <ele>521.7</ele>
        <time>2021-09-08T14:30:33Z</time>
      </trkpt>
      <trkpt lat="44.25451" lon="5.83079">
        <ele>521.8</ele>
        <time>2021-09-08T14:30:34Z</time>
      </trkpt>
      <trkpt lat="44.25448" lon="5.83087">
        <ele>521.8</ele>
        <time>2021-09-08T14:30:35Z</time>
      </trkpt>
      <trkpt lat="44.25442" lon="5.83102">
        <ele>522</ele>
        <time>2021-09-08T14:30:37Z</time>
      </trkpt>
      <trkpt lat="44.25439" lon="5.83109">
        <ele>522</ele>
        <time>2021-09-08T14:30:38Z</time>
      </trkpt>
      <trkpt lat="44.25436" lon="5.83115">
        <ele>522.1</ele>
        <time>2021-09-08T14:30:39Z</time>
      </trkpt>
      <trkpt lat="44.2543" lon="5.83125">
        <ele>522.2</ele>
        <time>2021-09-08T14:30:41Z</time>
      </trkpt>
      <trkpt lat="44.25424" lon="5.83133">
        <ele>522.3</ele>
        <time>2021-09-08T14:30:43Z</time>
      </trkpt>
      <trkpt lat="44.25417" lon="5.83142">
        <ele>522.4</ele>
        <time>2021-09-08T14:30:45Z</time>
      </trkpt>
      <trkpt lat="44.25414" lon="5.83148">
        <ele>522.5</ele>
        <time>2021-09-08T14:30:46Z</time>
      </trkpt>
      <trkpt lat="44.25411" lon="5.83153">
        <ele>522.6</ele>
        <time>2021-09-08T14:30:47Z</time>
      </trkpt>
      <trkpt lat="44.25407" lon="5.83158">
        <ele>522.7</ele>
        <time>2021-09-08T14:30:48Z</time>
      </trkpt>
      <trkpt lat="44.25404" lon="5.83162">
        <ele>522.8</ele>
        <time>2021-09-08T14:30:49Z</time>
      </trkpt>
      <trkpt lat="44.25396" lon="5.83169">
        <ele>523</ele>
        <time>2021-09-08T14:30:51Z</time>
      </trkpt>
      <trkpt lat="44.25393" lon="5.83163">
        <ele>523.1</ele>
        <time>2021-09-08T14:30:52Z</time>
      </trkpt>
      <trkpt lat="44.25388" lon="5.83179">
        <ele>523.3</ele>
        <time>2021-09-08T14:30:54Z</time>
      </trkpt>
      <trkpt lat="44.25385" lon="5.83185">
        <ele>523.4</ele>
        <time>2021-09-08T14:30:55Z</time>
      </trkpt>
      <trkpt lat="44.25382" lon="5.83191">
        <ele>523.5</ele>
        <time>2021-09-08T14:30:56Z</time>
      </trkpt>
      <trkpt lat="44.25378" lon="5.83195">
        <ele>523.6</ele>
        <time>2021-09-08T14:30:57Z</time>
      </trkpt>
      <trkpt lat="44.25374" lon="5.832">
        <ele>523.7</ele>
        <time>2021-09-08T14:30:58Z</time>
      </trkpt>
      <trkpt lat="44.25368" lon="5.83205">
        <ele>523.9</ele>
        <time>2021-09-08T14:31:00Z</time>
      </trkpt>
      <trkpt lat="44.25362" lon="5.8321">
        <ele>524</ele>
        <time>2021-09-08T14:31:02Z</time>
      </trkpt>
      <trkpt lat="44.25356" lon="5.83215">
        <ele>524.2</ele>
        <time>2021-09-08T14:31:04Z</time>
      </trkpt>
      <trkpt lat="44.25351" lon="5.83218">
        <ele>524.4</ele>
        <time>2021-09-08T14:31:05Z</time>
      </trkpt>
      <trkpt lat="44.25345" lon="5.83224">
        <ele>524.6</ele>
        <time>2021-09-08T14:31:07Z</time>
      </trkpt>
      <trkpt lat="44.25341" lon="5.83227">
        <ele>524.7</ele>
        <time>2021-09-08T14:31:08Z</time>
      </trkpt>
      <trkpt lat="44.25338" lon="5.83229">
        <ele>524.8</ele>
        <time>2021-09-08T14:31:09Z</time>
      </trkpt>
      <trkpt lat="44.25331" lon="5.83238">
        <ele>525.1</ele>
        <time>2021-09-08T14:31:11Z</time>
      </trkpt>
      <trkpt lat="44.25324" lon="5.83248">
        <ele>525.4</ele>
        <time>2021-09-08T14:31:13Z</time>
      </trkpt>
      <trkpt lat="44.25319" lon="5.83256">
        <ele>525.7</ele>
        <time>2021-09-08T14:31:15Z</time>
      </trkpt>
      <trkpt lat="44.25314" lon="5.83264">
        <ele>526</ele>
        <time>2021-09-08T14:31:17Z</time>
      </trkpt>
      <trkpt lat="44.25309" lon="5.83269">
        <ele>526.2</ele>
        <time>2021-09-08T14:31:19Z</time>
      </trkpt>
      <trkpt lat="44.25305" lon="5.83273">
        <ele>526.4</ele>
        <time>2021-09-08T14:31:20Z</time>
      </trkpt>
      <trkpt lat="44.25302" lon="5.83276">
        <ele>526.5</ele>
        <time>2021-09-08T14:31:21Z</time>
      </trkpt>
      <trkpt lat="44.25299" lon="5.83279">
        <ele>526.7</ele>
        <time>2021-09-08T14:31:22Z</time>
      </trkpt>
      <trkpt lat="44.25295" lon="5.83284">
        <ele>526.9</ele>
        <time>2021-09-08T14:31:24Z</time>
      </trkpt>
      <trkpt lat="44.25291" lon="5.83288">
        <ele>527.1</ele>
        <time>2021-09-08T14:31:25Z</time>
      </trkpt>
      <trkpt lat="44.25289" lon="5.83291">
        <ele>527.2</ele>
        <time>2021-09-08T14:31:26Z</time>
      </trkpt>
      <trkpt lat="44.25285" lon="5.83295">
        <ele>527.4</ele>
        <time>2021-09-08T14:31:28Z</time>
      </trkpt>
      <trkpt lat="44.2528" lon="5.83299">
        <ele>527.7</ele>
        <time>2021-09-08T14:31:30Z</time>
      </trkpt>
      <trkpt lat="44.25277" lon="5.833">
        <ele>527.8</ele>
        <time>2021-09-08T14:31:31Z</time>
      </trkpt>
      <trkpt lat="44.25274" lon="5.83301">
        <ele>527.9</ele>
        <time>2021-09-08T14:31:32Z</time>
      </trkpt>
      <trkpt lat="44.2527" lon="5.83301">
        <ele>528.1</ele>
        <time>2021-09-08T14:31:33Z</time>
      </trkpt>
      <trkpt lat="44.25266" lon="5.83302">
        <ele>528.3</ele>
        <time>2021-09-08T14:31:35Z</time>
      </trkpt>
      <trkpt lat="44.25263" lon="5.83302">
        <ele>528.4</ele>
        <time>2021-09-08T14:31:36Z</time>
      </trkpt>
      <trkpt lat="44.25259" lon="5.83302">
        <ele>528.6</ele>
        <time>2021-09-08T14:31:38Z</time>
      </trkpt>
      <trkpt lat="44.25254" lon="5.83302">
        <ele>528.8</ele>
        <time>2021-09-08T14:31:40Z</time>
      </trkpt>
      <trkpt lat="44.25248" lon="5.83303">
        <ele>529</ele>
        <time>2021-09-08T14:31:42Z</time>
      </trkpt>
      <trkpt lat="44.25245" lon="5.83305">
        <ele>529.2</ele>
        <time>2021-09-08T14:31:44Z</time>
      </trkpt>
      <trkpt lat="44.25242" lon="5.83307">
        <ele>529.3</ele>
        <time>2021-09-08T14:31:45Z</time>
      </trkpt>
      <trkpt lat="44.2524" lon="5.83308">
        <ele>529.4</ele>
        <time>2021-09-08T14:31:46Z</time>
      </trkpt>
      <trkpt lat="44.25238" lon="5.8331">
        <ele>529.5</ele>
        <time>2021-09-08T14:31:48Z</time>
      </trkpt>
      <trkpt lat="44.25235" lon="5.83312">
        <ele>529.7</ele>
        <time>2021-09-08T14:31:49Z</time>
      </trkpt>
      <trkpt lat="44.25232" lon="5.83316">
        <ele>529.8</ele>
        <time>2021-09-08T14:31:50Z</time>
      </trkpt>
      <trkpt lat="44.25231" lon="5.83317">
        <ele>529.9</ele>
        <time>2021-09-08T14:31:51Z</time>
      </trkpt>
      <trkpt lat="44.25228" lon="5.83321">
        <ele>530</ele>
        <time>2021-09-08T14:31:53Z</time>
      </trkpt>
      <trkpt lat="44.25225" lon="5.83324">
        <ele>530.2</ele>
        <time>2021-09-08T14:31:54Z</time>
      </trkpt>
      <trkpt lat="44.25222" lon="5.83327">
        <ele>530.3</ele>
        <time>2021-09-08T14:31:56Z</time>
      </trkpt>
      <trkpt lat="44.25219" lon="5.8333">
        <ele>530.4</ele>
        <time>2021-09-08T14:31:58Z</time>
      </trkpt>
      <trkpt lat="44.25215" lon="5.83334">
        <ele>530.6</ele>
        <time>2021-09-08T14:32:00Z</time>
      </trkpt>
      <trkpt lat="44.25212" lon="5.83337">
        <ele>530.7</ele>
        <time>2021-09-08T14:32:01Z</time>
      </trkpt>
      <trkpt lat="44.2521" lon="5.83339">
        <ele>530.8</ele>
        <time>2021-09-08T14:32:02Z</time>
      </trkpt>
      <trkpt lat="44.25207" lon="5.83342">
        <ele>530.9</ele>
        <time>2021-09-08T14:32:03Z</time>
      </trkpt>
      <trkpt lat="44.25205" lon="5.83344">
        <ele>531</ele>
        <time>2021-09-08T14:32:04Z</time>
      </trkpt>
      <trkpt lat="44.25199" lon="5.83348">
        <ele>531.1</ele>
        <time>2021-09-08T14:32:06Z</time>
      </trkpt>
      <trkpt lat="44.25196" lon="5.83351">
        <ele>531.3</ele>
        <time>2021-09-08T14:32:07Z</time>
      </trkpt>
      <trkpt lat="44.2519" lon="5.83356">
        <ele>531.5</ele>
        <time>2021-09-08T14:32:09Z</time>
      </trkpt>
      <trkpt lat="44.25185" lon="5.83359">
        <ele>531.6</ele>
        <time>2021-09-08T14:32:10Z</time>
      </trkpt>
      <trkpt lat="44.25182" lon="5.83362">
        <ele>531.7</ele>
        <time>2021-09-08T14:32:11Z</time>
      </trkpt>
      <trkpt lat="44.25178" lon="5.83365">
        <ele>531.9</ele>
        <time>2021-09-08T14:32:12Z</time>
      </trkpt>
      <trkpt lat="44.25173" lon="5.83369">
        <ele>532</ele>
        <time>2021-09-08T14:32:14Z</time>
      </trkpt>
      <trkpt lat="44.2517" lon="5.83371">
        <ele>532.1</ele>
        <time>2021-09-08T14:32:15Z</time>
      </trkpt>
      <trkpt lat="44.25164" lon="5.83373">
        <ele>532.3</ele>
        <time>2021-09-08T14:32:17Z</time>
      </trkpt>
      <trkpt lat="44.25162" lon="5.83375">
        <ele>532.4</ele>
        <time>2021-09-08T14:32:18Z</time>
      </trkpt>
      <trkpt lat="44.25156" lon="5.83378">
        <ele>532.6</ele>
        <time>2021-09-08T14:32:20Z</time>
      </trkpt>
      <trkpt lat="44.25153" lon="5.83382">
        <ele>532.7</ele>
        <time>2021-09-08T14:32:21Z</time>
      </trkpt>
      <trkpt lat="44.25152" lon="5.83384">
        <ele>532.7</ele>
        <time>2021-09-08T14:32:22Z</time>
      </trkpt>
      <trkpt lat="44.25149" lon="5.8339">
        <ele>532.8</ele>
        <time>2021-09-08T14:32:24Z</time>
      </trkpt>
      <trkpt lat="44.25143" lon="5.83395">
        <ele>533</ele>
        <time>2021-09-08T14:32:26Z</time>
      </trkpt>
      <trkpt lat="44.2514" lon="5.83397">
        <ele>533.1</ele>
        <time>2021-09-08T14:32:27Z</time>
      </trkpt>
      <trkpt lat="44.25136" lon="5.83401">
        <ele>533.2</ele>
        <time>2021-09-08T14:32:29Z</time>
      </trkpt>
      <trkpt lat="44.25133" lon="5.83404">
        <ele>533.3</ele>
        <time>2021-09-08T14:32:30Z</time>
      </trkpt>
      <trkpt lat="44.2513" lon="5.83408">
        <ele>533.4</ele>
        <time>2021-09-08T14:32:31Z</time>
      </trkpt>
      <trkpt lat="44.25127" lon="5.83412">
        <ele>533.5</ele>
        <time>2021-09-08T14:32:33Z</time>
      </trkpt>
      <trkpt lat="44.25125" lon="5.83415">
        <ele>533.5</ele>
        <time>2021-09-08T14:32:34Z</time>
      </trkpt>
      <trkpt lat="44.25122" lon="5.83418">
        <ele>533.6</ele>
        <time>2021-09-08T14:32:35Z</time>
      </trkpt>
      <trkpt lat="44.25121" lon="5.83419">
        <ele>533.6</ele>
        <time>2021-09-08T14:32:36Z</time>
      </trkpt>
      <trkpt lat="44.25118" lon="5.83424">
        <ele>533.7</ele>
        <time>2021-09-08T14:32:37Z</time>
      </trkpt>
      <trkpt lat="44.25117" lon="5.83426">
        <ele>533.7</ele>
        <time>2021-09-08T14:32:38Z</time>
      </trkpt>
      <trkpt lat="44.25114" lon="5.8343">
        <ele>533.8</ele>
        <time>2021-09-08T14:32:40Z</time>
      </trkpt>
      <trkpt lat="44.25112" lon="5.83432">
        <ele>533.9</ele>
        <time>2021-09-08T14:32:41Z</time>
      </trkpt>
      <trkpt lat="44.2511" lon="5.83436">
        <ele>533.9</ele>
        <time>2021-09-08T14:32:42Z</time>
      </trkpt>
      <trkpt lat="44.2511" lon="5.83437">
        <ele>534</ele>
        <time>2021-09-08T14:32:43Z</time>
      </trkpt>
      <trkpt lat="44.25109" lon="5.83442">
        <ele>534</ele>
        <time>2021-09-08T14:32:44Z</time>
      </trkpt>
      <trkpt lat="44.25108" lon="5.83444">
        <ele>534</ele>
        <time>2021-09-08T14:32:46Z</time>
      </trkpt>
      <trkpt lat="44.25107" lon="5.83445">
        <ele>534.1</ele>
        <time>2021-09-08T14:32:47Z</time>
      </trkpt>
      <trkpt lat="44.25106" lon="5.83446">
        <ele>534.1</ele>
        <time>2021-09-08T14:32:49Z</time>
      </trkpt>
      <trkpt lat="44.25106" lon="5.83446">
        <ele>534.1</ele>
        <time>2021-09-08T14:32:50Z</time>
      </trkpt>
      <trkpt lat="44.25106" lon="5.83446">
        <ele>534.1</ele>
        <time>2021-09-08T14:32:51Z</time>
      </trkpt>
      <trkpt lat="44.25106" lon="5.83446">
        <ele>534.1</ele>
        <time>2021-09-08T14:32:53Z</time>
      </trkpt>
      <trkpt lat="44.25106" lon="5.83446">
        <ele>534.1</ele>
        <time>2021-09-08T14:32:55Z</time>
      </trkpt>
      <trkpt lat="44.25106" lon="5.83446">
        <ele>534.1</ele>
        <time>2021-09-08T14:32:57Z</time>
      </trkpt>
      <trkpt lat="44.25105" lon="5.83443">
        <ele>534.1</ele>
        <time>2021-09-08T14:33:20Z</time>
      </trkpt>
      <trkpt lat="44.25101" lon="5.83454">
        <ele>534.2</ele>
        <time>2021-09-08T14:33:22Z</time>
      </trkpt>
      <trkpt lat="44.25098" lon="5.83463">
        <ele>534.3</ele>
        <time>2021-09-08T14:33:23Z</time>
      </trkpt>
      <trkpt lat="44.25097" lon="5.83469">
        <ele>534.4</ele>
        <time>2021-09-08T14:33:24Z</time>
      </trkpt>
      <trkpt lat="44.25095" lon="5.83474">
        <ele>534.5</ele>
        <time>2021-09-08T14:33:25Z</time>
      </trkpt>
      <trkpt lat="44.25092" lon="5.83483">
        <ele>534.5</ele>
        <time>2021-09-08T14:33:27Z</time>
      </trkpt>
      <trkpt lat="44.25089" lon="5.8349">
        <ele>534.6</ele>
        <time>2021-09-08T14:33:28Z</time>
      </trkpt>
      <trkpt lat="44.25087" lon="5.83495">
        <ele>534.7</ele>
        <time>2021-09-08T14:33:29Z</time>
      </trkpt>
      <trkpt lat="44.25085" lon="5.83505">
        <ele>534.8</ele>
        <time>2021-09-08T14:33:31Z</time>
      </trkpt>
      <trkpt lat="44.25083" lon="5.83511">
        <ele>534.8</ele>
        <time>2021-09-08T14:33:32Z</time>
      </trkpt>
      <trkpt lat="44.2508" lon="5.83522">
        <ele>534.8</ele>
        <time>2021-09-08T14:33:34Z</time>
      </trkpt>
      <trkpt lat="44.25076" lon="5.83534">
        <ele>534.9</ele>
        <time>2021-09-08T14:33:36Z</time>
      </trkpt>
      <trkpt lat="44.25075" lon="5.83539">
        <ele>534.9</ele>
        <time>2021-09-08T14:33:37Z</time>
      </trkpt>
      <trkpt lat="44.25074" lon="5.83544">
        <ele>534.9</ele>
        <time>2021-09-08T14:33:38Z</time>
      </trkpt>
      <trkpt lat="44.25073" lon="5.83549">
        <ele>534.9</ele>
        <time>2021-09-08T14:33:39Z</time>
      </trkpt>
      <trkpt lat="44.25072" lon="5.83558">
        <ele>535</ele>
        <time>2021-09-08T14:33:41Z</time>
      </trkpt>
      <trkpt lat="44.2507" lon="5.83569">
        <ele>535</ele>
        <time>2021-09-08T14:33:43Z</time>
      </trkpt>
      <trkpt lat="44.25069" lon="5.83575">
        <ele>535</ele>
        <time>2021-09-08T14:33:44Z</time>
      </trkpt>
      <trkpt lat="44.25068" lon="5.83583">
        <ele>535.1</ele>
        <time>2021-09-08T14:33:46Z</time>
      </trkpt>
      <trkpt lat="44.25067" lon="5.83588">
        <ele>535.1</ele>
        <time>2021-09-08T14:33:47Z</time>
      </trkpt>
      <trkpt lat="44.25066" lon="5.83593">
        <ele>535.1</ele>
        <time>2021-09-08T14:33:48Z</time>
      </trkpt>
      <trkpt lat="44.25065" lon="5.83597">
        <ele>535.2</ele>
        <time>2021-09-08T14:33:49Z</time>
      </trkpt>
      <trkpt lat="44.25065" lon="5.83601">
        <ele>535.2</ele>
        <time>2021-09-08T14:33:50Z</time>
      </trkpt>
      <trkpt lat="44.25064" lon="5.83606">
        <ele>535.3</ele>
        <time>2021-09-08T14:33:51Z</time>
      </trkpt>
      <trkpt lat="44.25062" lon="5.83613">
        <ele>535.3</ele>
        <time>2021-09-08T14:33:53Z</time>
      </trkpt>
      <trkpt lat="44.2506" lon="5.83619">
        <ele>535.4</ele>
        <time>2021-09-08T14:33:54Z</time>
      </trkpt>
      <trkpt lat="44.25059" lon="5.83624">
        <ele>535.5</ele>
        <time>2021-09-08T14:33:55Z</time>
      </trkpt>
      <trkpt lat="44.25059" lon="5.83628">
        <ele>535.5</ele>
        <time>2021-09-08T14:33:56Z</time>
      </trkpt>
      <trkpt lat="44.25057" lon="5.83637">
        <ele>535.7</ele>
        <time>2021-09-08T14:33:58Z</time>
      </trkpt>
      <trkpt lat="44.25055" lon="5.83643">
        <ele>535.8</ele>
        <time>2021-09-08T14:33:59Z</time>
      </trkpt>
      <trkpt lat="44.25054" lon="5.83648">
        <ele>535.8</ele>
        <time>2021-09-08T14:34:00Z</time>
      </trkpt>
      <trkpt lat="44.25053" lon="5.83653">
        <ele>535.9</ele>
        <time>2021-09-08T14:34:01Z</time>
      </trkpt>
      <trkpt lat="44.25051" lon="5.8366">
        <ele>536</ele>
        <time>2021-09-08T14:34:03Z</time>
      </trkpt>
      <trkpt lat="44.25049" lon="5.83667">
        <ele>536.1</ele>
        <time>2021-09-08T14:34:04Z</time>
      </trkpt>
      <trkpt lat="44.25047" lon="5.83673">
        <ele>536.2</ele>
        <time>2021-09-08T14:34:05Z</time>
      </trkpt>
      <trkpt lat="44.25046" lon="5.83681">
        <ele>536.4</ele>
        <time>2021-09-08T14:34:07Z</time>
      </trkpt>
      <trkpt lat="44.25045" lon="5.83685">
        <ele>536.5</ele>
        <time>2021-09-08T14:34:08Z</time>
      </trkpt>
      <trkpt lat="44.25043" lon="5.83694">
        <ele>536.6</ele>
        <time>2021-09-08T14:34:10Z</time>
      </trkpt>
      <trkpt lat="44.25042" lon="5.83701">
        <ele>536.7</ele>
        <time>2021-09-08T14:34:11Z</time>
      </trkpt>
      <trkpt lat="44.25041" lon="5.83706">
        <ele>536.8</ele>
        <time>2021-09-08T14:34:12Z</time>
      </trkpt>
      <trkpt lat="44.2504" lon="5.83713">
        <ele>536.9</ele>
        <time>2021-09-08T14:34:14Z</time>
      </trkpt>
      <trkpt lat="44.25038" lon="5.83722">
        <ele>537.1</ele>
        <time>2021-09-08T14:34:16Z</time>
      </trkpt>
      <trkpt lat="44.25036" lon="5.8373">
        <ele>537.3</ele>
        <time>2021-09-08T14:34:18Z</time>
      </trkpt>
      <trkpt lat="44.25035" lon="5.83735">
        <ele>537.4</ele>
        <time>2021-09-08T14:34:19Z</time>
      </trkpt>
      <trkpt lat="44.25034" lon="5.83739">
        <ele>537.4</ele>
        <time>2021-09-08T14:34:20Z</time>
      </trkpt>
      <trkpt lat="44.25033" lon="5.83745">
        <ele>537.6</ele>
        <time>2021-09-08T14:34:22Z</time>
      </trkpt>
      <trkpt lat="44.25032" lon="5.83749">
        <ele>537.7</ele>
        <time>2021-09-08T14:34:23Z</time>
      </trkpt>
      <trkpt lat="44.25031" lon="5.83753">
        <ele>537.8</ele>
        <time>2021-09-08T14:34:24Z</time>
      </trkpt>
      <trkpt lat="44.2503" lon="5.83758">
        <ele>537.9</ele>
        <time>2021-09-08T14:34:26Z</time>
      </trkpt>
      <trkpt lat="44.25029" lon="5.83762">
        <ele>538</ele>
        <time>2021-09-08T14:34:27Z</time>
      </trkpt>
      <trkpt lat="44.25028" lon="5.83766">
        <ele>538.1</ele>
        <time>2021-09-08T14:34:28Z</time>
      </trkpt>
      <trkpt lat="44.25027" lon="5.83775">
        <ele>538.3</ele>
        <time>2021-09-08T14:34:30Z</time>
      </trkpt>
      <trkpt lat="44.25026" lon="5.83783">
        <ele>538.4</ele>
        <time>2021-09-08T14:34:32Z</time>
      </trkpt>
      <trkpt lat="44.25025" lon="5.83787">
        <ele>538.5</ele>
        <time>2021-09-08T14:34:33Z</time>
      </trkpt>
      <trkpt lat="44.25022" lon="5.83794">
        <ele>538.7</ele>
        <time>2021-09-08T14:34:35Z</time>
      </trkpt>
      <trkpt lat="44.2502" lon="5.83801">
        <ele>538.9</ele>
        <time>2021-09-08T14:34:37Z</time>
      </trkpt>
      <trkpt lat="44.25019" lon="5.8381">
        <ele>539.1</ele>
        <time>2021-09-08T14:34:39Z</time>
      </trkpt>
      <trkpt lat="44.25017" lon="5.8382">
        <ele>539.3</ele>
        <time>2021-09-08T14:34:41Z</time>
      </trkpt>
      <trkpt lat="44.25016" lon="5.83828">
        <ele>539.4</ele>
        <time>2021-09-08T14:34:43Z</time>
      </trkpt>
      <trkpt lat="44.25015" lon="5.83836">
        <ele>539.6</ele>
        <time>2021-09-08T14:34:45Z</time>
      </trkpt>
      <trkpt lat="44.25014" lon="5.83842">
        <ele>539.7</ele>
        <time>2021-09-08T14:34:46Z</time>
      </trkpt>
      <trkpt lat="44.25013" lon="5.83846">
        <ele>539.8</ele>
        <time>2021-09-08T14:34:47Z</time>
      </trkpt>
      <trkpt lat="44.25012" lon="5.83851">
        <ele>539.9</ele>
        <time>2021-09-08T14:34:48Z</time>
      </trkpt>
      <trkpt lat="44.25011" lon="5.83854">
        <ele>540</ele>
        <time>2021-09-08T14:34:49Z</time>
      </trkpt>
      <trkpt lat="44.2501" lon="5.83863">
        <ele>540.2</ele>
        <time>2021-09-08T14:34:51Z</time>
      </trkpt>
      <trkpt lat="44.25008" lon="5.8387">
        <ele>540.3</ele>
        <time>2021-09-08T14:34:53Z</time>
      </trkpt>
      <trkpt lat="44.25006" lon="5.83879">
        <ele>540.5</ele>
        <time>2021-09-08T14:34:55Z</time>
      </trkpt>
      <trkpt lat="44.25005" lon="5.83888">
        <ele>540.6</ele>
        <time>2021-09-08T14:34:57Z</time>
      </trkpt>
      <trkpt lat="44.25004" lon="5.83892">
        <ele>540.7</ele>
        <time>2021-09-08T14:34:58Z</time>
      </trkpt>
      <trkpt lat="44.25003" lon="5.83897">
        <ele>540.7</ele>
        <time>2021-09-08T14:34:59Z</time>
      </trkpt>
      <trkpt lat="44.25002" lon="5.83902">
        <ele>540.8</ele>
        <time>2021-09-08T14:35:00Z</time>
      </trkpt>
      <trkpt lat="44.25001" lon="5.83908">
        <ele>540.9</ele>
        <time>2021-09-08T14:35:01Z</time>
      </trkpt>
      <trkpt lat="44.25" lon="5.83916">
        <ele>541.1</ele>
        <time>2021-09-08T14:35:03Z</time>
      </trkpt>
      <trkpt lat="44.25" lon="5.83921">
        <ele>541.2</ele>
        <time>2021-09-08T14:35:04Z</time>
      </trkpt>
      <trkpt lat="44.24999" lon="5.83928">
        <ele>541.3</ele>
        <time>2021-09-08T14:35:05Z</time>
      </trkpt>
      <trkpt lat="44.24997" lon="5.83938">
        <ele>541.5</ele>
        <time>2021-09-08T14:35:07Z</time>
      </trkpt>
      <trkpt lat="44.24995" lon="5.8395">
        <ele>541.7</ele>
        <time>2021-09-08T14:35:09Z</time>
      </trkpt>
      <trkpt lat="44.24994" lon="5.83961">
        <ele>541.8</ele>
        <time>2021-09-08T14:35:11Z</time>
      </trkpt>
      <trkpt lat="44.24993" lon="5.83967">
        <ele>541.9</ele>
        <time>2021-09-08T14:35:12Z</time>
      </trkpt>
      <trkpt lat="44.24991" lon="5.83973">
        <ele>542.1</ele>
        <time>2021-09-08T14:35:14Z</time>
      </trkpt>
      <trkpt lat="44.24989" lon="5.83979">
        <ele>542.2</ele>
        <time>2021-09-08T14:35:15Z</time>
      </trkpt>
      <trkpt lat="44.24988" lon="5.83983">
        <ele>542.2</ele>
        <time>2021-09-08T14:35:16Z</time>
      </trkpt>
      <trkpt lat="44.24986" lon="5.83987">
        <ele>542.3</ele>
        <time>2021-09-08T14:35:17Z</time>
      </trkpt>
      <trkpt lat="44.24984" lon="5.83991">
        <ele>542.4</ele>
        <time>2021-09-08T14:35:18Z</time>
      </trkpt>
      <trkpt lat="44.2498" lon="5.83998">
        <ele>542.5</ele>
        <time>2021-09-08T14:35:20Z</time>
      </trkpt>
      <trkpt lat="44.24976" lon="5.84005">
        <ele>542.7</ele>
        <time>2021-09-08T14:35:22Z</time>
      </trkpt>
      <trkpt lat="44.24972" lon="5.84011">
        <ele>542.8</ele>
        <time>2021-09-08T14:35:24Z</time>
      </trkpt>
      <trkpt lat="44.24967" lon="5.84016">
        <ele>543</ele>
        <time>2021-09-08T14:35:26Z</time>
      </trkpt>
      <trkpt lat="44.24964" lon="5.84019">
        <ele>543.1</ele>
        <time>2021-09-08T14:35:27Z</time>
      </trkpt>
      <trkpt lat="44.24961" lon="5.84021">
        <ele>543.1</ele>
        <time>2021-09-08T14:35:28Z</time>
      </trkpt>
      <trkpt lat="44.24959" lon="5.84022">
        <ele>543.2</ele>
        <time>2021-09-08T14:35:29Z</time>
      </trkpt>
      <trkpt lat="44.24955" lon="5.84024">
        <ele>543.3</ele>
        <time>2021-09-08T14:35:31Z</time>
      </trkpt>
      <trkpt lat="44.24951" lon="5.84026">
        <ele>543.4</ele>
        <time>2021-09-08T14:35:32Z</time>
      </trkpt>
      <trkpt lat="44.24947" lon="5.84028">
        <ele>543.5</ele>
        <time>2021-09-08T14:35:34Z</time>
      </trkpt>
      <trkpt lat="44.24942" lon="5.84032">
        <ele>543.6</ele>
        <time>2021-09-08T14:35:36Z</time>
      </trkpt>
      <trkpt lat="44.24937" lon="5.84036">
        <ele>543.7</ele>
        <time>2021-09-08T14:35:38Z</time>
      </trkpt>
      <trkpt lat="44.24931" lon="5.8404">
        <ele>543.9</ele>
        <time>2021-09-08T14:35:40Z</time>
      </trkpt>
      <trkpt lat="44.24928" lon="5.84044">
        <ele>544</ele>
        <time>2021-09-08T14:35:41Z</time>
      </trkpt>
      <trkpt lat="44.24925" lon="5.84046">
        <ele>544.1</ele>
        <time>2021-09-08T14:35:42Z</time>
      </trkpt>
      <trkpt lat="44.24921" lon="5.84049">
        <ele>544.1</ele>
        <time>2021-09-08T14:35:43Z</time>
      </trkpt>
      <trkpt lat="44.24916" lon="5.84052">
        <ele>544.2</ele>
        <time>2021-09-08T14:35:45Z</time>
      </trkpt>
      <trkpt lat="44.24911" lon="5.84055">
        <ele>544.3</ele>
        <time>2021-09-08T14:35:47Z</time>
      </trkpt>
      <trkpt lat="44.24906" lon="5.84059">
        <ele>544.4</ele>
        <time>2021-09-08T14:35:49Z</time>
      </trkpt>
      <trkpt lat="44.24903" lon="5.84061">
        <ele>544.4</ele>
        <time>2021-09-08T14:35:50Z</time>
      </trkpt>
      <trkpt lat="44.249" lon="5.84064">
        <ele>544.5</ele>
        <time>2021-09-08T14:35:51Z</time>
      </trkpt>
      <trkpt lat="44.24898" lon="5.84066">
        <ele>544.5</ele>
        <time>2021-09-08T14:35:52Z</time>
      </trkpt>
      <trkpt lat="44.24893" lon="5.84069">
        <ele>544.5</ele>
        <time>2021-09-08T14:35:54Z</time>
      </trkpt>
      <trkpt lat="44.24888" lon="5.84073">
        <ele>544.6</ele>
        <time>2021-09-08T14:35:56Z</time>
      </trkpt>
      <trkpt lat="44.24885" lon="5.84076">
        <ele>544.7</ele>
        <time>2021-09-08T14:35:57Z</time>
      </trkpt>
      <trkpt lat="44.24882" lon="5.84078">
        <ele>544.7</ele>
        <time>2021-09-08T14:35:58Z</time>
      </trkpt>
      <trkpt lat="44.24879" lon="5.84081">
        <ele>544.7</ele>
        <time>2021-09-08T14:35:59Z</time>
      </trkpt>
      <trkpt lat="44.24873" lon="5.84085">
        <ele>544.8</ele>
        <time>2021-09-08T14:36:01Z</time>
      </trkpt>
      <trkpt lat="44.24869" lon="5.84088">
        <ele>544.8</ele>
        <time>2021-09-08T14:36:02Z</time>
      </trkpt>
      <trkpt lat="44.24865" lon="5.84091">
        <ele>544.9</ele>
        <time>2021-09-08T14:36:03Z</time>
      </trkpt>
      <trkpt lat="44.24859" lon="5.84094">
        <ele>544.9</ele>
        <time>2021-09-08T14:36:05Z</time>
      </trkpt>
      <trkpt lat="44.24854" lon="5.84097">
        <ele>545</ele>
        <time>2021-09-08T14:36:07Z</time>
      </trkpt>
      <trkpt lat="44.24847" lon="5.84102">
        <ele>545</ele>
        <time>2021-09-08T14:36:09Z</time>
      </trkpt>
      <trkpt lat="44.24844" lon="5.84106">
        <ele>545.1</ele>
        <time>2021-09-08T14:36:10Z</time>
      </trkpt>
      <trkpt lat="44.2484" lon="5.84114">
        <ele>545.1</ele>
        <time>2021-09-08T14:36:11Z</time>
      </trkpt>
      <trkpt lat="44.24834" lon="5.84122">
        <ele>545.2</ele>
        <time>2021-09-08T14:36:13Z</time>
      </trkpt>
      <trkpt lat="44.2483" lon="5.84126">
        <ele>545.2</ele>
        <time>2021-09-08T14:36:14Z</time>
      </trkpt>
      <trkpt lat="44.24824" lon="5.84132">
        <ele>545.2</ele>
        <time>2021-09-08T14:36:16Z</time>
      </trkpt>
      <trkpt lat="44.24819" lon="5.84137">
        <ele>545.2</ele>
        <time>2021-09-08T14:36:17Z</time>
      </trkpt>
      <trkpt lat="44.24816" lon="5.8414">
        <ele>545.2</ele>
        <time>2021-09-08T14:36:18Z</time>
      </trkpt>
      <trkpt lat="44.2481" lon="5.84145">
        <ele>545.2</ele>
        <time>2021-09-08T14:36:20Z</time>
      </trkpt>
      <trkpt lat="44.24805" lon="5.84147">
        <ele>545.1</ele>
        <time>2021-09-08T14:36:21Z</time>
      </trkpt>
      <trkpt lat="44.24799" lon="5.84152">
        <ele>545.1</ele>
        <time>2021-09-08T14:36:23Z</time>
      </trkpt>
      <trkpt lat="44.24795" lon="5.84155">
        <ele>545.1</ele>
        <time>2021-09-08T14:36:24Z</time>
      </trkpt>
      <trkpt lat="44.24791" lon="5.84159">
        <ele>545</ele>
        <time>2021-09-08T14:36:25Z</time>
      </trkpt>
      <trkpt lat="44.24787" lon="5.84165">
        <ele>545</ele>
        <time>2021-09-08T14:36:26Z</time>
      </trkpt>
      <trkpt lat="44.24779" lon="5.84174">
        <ele>544.9</ele>
        <time>2021-09-08T14:36:28Z</time>
      </trkpt>
      <trkpt lat="44.24774" lon="5.84179">
        <ele>544.8</ele>
        <time>2021-09-08T14:36:29Z</time>
      </trkpt>
      <trkpt lat="44.24766" lon="5.84189">
        <ele>544.7</ele>
        <time>2021-09-08T14:36:31Z</time>
      </trkpt>
      <trkpt lat="44.24762" lon="5.84193">
        <ele>544.7</ele>
        <time>2021-09-08T14:36:32Z</time>
      </trkpt>
      <trkpt lat="44.24753" lon="5.84202">
        <ele>544.6</ele>
        <time>2021-09-08T14:36:34Z</time>
      </trkpt>
      <trkpt lat="44.24748" lon="5.84205">
        <ele>544.5</ele>
        <time>2021-09-08T14:36:35Z</time>
      </trkpt>
      <trkpt lat="44.24743" lon="5.84209">
        <ele>544.5</ele>
        <time>2021-09-08T14:36:36Z</time>
      </trkpt>
      <trkpt lat="44.24733" lon="5.84216">
        <ele>544.4</ele>
        <time>2021-09-08T14:36:38Z</time>
      </trkpt>
      <trkpt lat="44.24724" lon="5.84223">
        <ele>544.3</ele>
        <time>2021-09-08T14:36:40Z</time>
      </trkpt>
      <trkpt lat="44.24714" lon="5.84229">
        <ele>544.1</ele>
        <time>2021-09-08T14:36:42Z</time>
      </trkpt>
      <trkpt lat="44.24704" lon="5.84236">
        <ele>544</ele>
        <time>2021-09-08T14:36:44Z</time>
      </trkpt>
      <trkpt lat="44.24695" lon="5.84243">
        <ele>543.9</ele>
        <time>2021-09-08T14:36:46Z</time>
      </trkpt>
      <trkpt lat="44.24686" lon="5.8425">
        <ele>543.8</ele>
        <time>2021-09-08T14:36:48Z</time>
      </trkpt>
      <trkpt lat="44.24677" lon="5.84258">
        <ele>543.8</ele>
        <time>2021-09-08T14:36:50Z</time>
      </trkpt>
      <trkpt lat="44.24673" lon="5.84261">
        <ele>543.7</ele>
        <time>2021-09-08T14:36:51Z</time>
      </trkpt>
      <trkpt lat="44.24669" lon="5.84265">
        <ele>543.7</ele>
        <time>2021-09-08T14:36:52Z</time>
      </trkpt>
      <trkpt lat="44.2466" lon="5.84271">
        <ele>543.6</ele>
        <time>2021-09-08T14:36:54Z</time>
      </trkpt>
      <trkpt lat="44.24656" lon="5.84275">
        <ele>543.6</ele>
        <time>2021-09-08T14:36:55Z</time>
      </trkpt>
      <trkpt lat="44.24652" lon="5.84279">
        <ele>543.6</ele>
        <time>2021-09-08T14:36:56Z</time>
      </trkpt>
      <trkpt lat="44.24644" lon="5.84287">
        <ele>543.5</ele>
        <time>2021-09-08T14:36:58Z</time>
      </trkpt>
      <trkpt lat="44.2464" lon="5.8429">
        <ele>543.4</ele>
        <time>2021-09-08T14:36:59Z</time>
      </trkpt>
      <trkpt lat="44.24636" lon="5.84293">
        <ele>543.4</ele>
        <time>2021-09-08T14:37:00Z</time>
      </trkpt>
      <trkpt lat="44.24628" lon="5.84299">
        <ele>543.4</ele>
        <time>2021-09-08T14:37:02Z</time>
      </trkpt>
      <trkpt lat="44.24623" lon="5.84302">
        <ele>543.3</ele>
        <time>2021-09-08T14:37:03Z</time>
      </trkpt>
      <trkpt lat="44.24614" lon="5.84309">
        <ele>543.3</ele>
        <time>2021-09-08T14:37:05Z</time>
      </trkpt>
      <trkpt lat="44.24609" lon="5.84312">
        <ele>543.2</ele>
        <time>2021-09-08T14:37:06Z</time>
      </trkpt>
      <trkpt lat="44.24605" lon="5.84315">
        <ele>543.1</ele>
        <time>2021-09-08T14:37:07Z</time>
      </trkpt>
      <trkpt lat="44.246" lon="5.84318">
        <ele>543.1</ele>
        <time>2021-09-08T14:37:08Z</time>
      </trkpt>
      <trkpt lat="44.24591" lon="5.84324">
        <ele>542.9</ele>
        <time>2021-09-08T14:37:10Z</time>
      </trkpt>
      <trkpt lat="44.24586" lon="5.84328">
        <ele>542.8</ele>
        <time>2021-09-08T14:37:11Z</time>
      </trkpt>
      <trkpt lat="44.24581" lon="5.84332">
        <ele>542.7</ele>
        <time>2021-09-08T14:37:12Z</time>
      </trkpt>
      <trkpt lat="44.24571" lon="5.8434">
        <ele>542.5</ele>
        <time>2021-09-08T14:37:14Z</time>
      </trkpt>
      <trkpt lat="44.24562" lon="5.84348">
        <ele>542.3</ele>
        <time>2021-09-08T14:37:16Z</time>
      </trkpt>
      <trkpt lat="44.24557" lon="5.84352">
        <ele>542.2</ele>
        <time>2021-09-08T14:37:17Z</time>
      </trkpt>
      <trkpt lat="44.24547" lon="5.84359">
        <ele>542</ele>
        <time>2021-09-08T14:37:19Z</time>
      </trkpt>
      <trkpt lat="44.24542" lon="5.84364">
        <ele>541.8</ele>
        <time>2021-09-08T14:37:20Z</time>
      </trkpt>
      <trkpt lat="44.24532" lon="5.84373">
        <ele>541.6</ele>
        <time>2021-09-08T14:37:22Z</time>
      </trkpt>
      <trkpt lat="44.24526" lon="5.84376">
        <ele>541.5</ele>
        <time>2021-09-08T14:37:23Z</time>
      </trkpt>
      <trkpt lat="44.24515" lon="5.84384">
        <ele>541.2</ele>
        <time>2021-09-08T14:37:25Z</time>
      </trkpt>
      <trkpt lat="44.2451" lon="5.84389">
        <ele>541.1</ele>
        <time>2021-09-08T14:37:26Z</time>
      </trkpt>
      <trkpt lat="44.24504" lon="5.84394">
        <ele>540.9</ele>
        <time>2021-09-08T14:37:27Z</time>
      </trkpt>
      <trkpt lat="44.24494" lon="5.84403">
        <ele>540.6</ele>
        <time>2021-09-08T14:37:29Z</time>
      </trkpt>
      <trkpt lat="44.24488" lon="5.84406">
        <ele>540.5</ele>
        <time>2021-09-08T14:37:30Z</time>
      </trkpt>
      <trkpt lat="44.24477" lon="5.84414">
        <ele>540.2</ele>
        <time>2021-09-08T14:37:32Z</time>
      </trkpt>
      <trkpt lat="44.24471" lon="5.84418">
        <ele>540</ele>
        <time>2021-09-08T14:37:33Z</time>
      </trkpt>
      <trkpt lat="44.2446" lon="5.84426">
        <ele>539.7</ele>
        <time>2021-09-08T14:37:35Z</time>
      </trkpt>
      <trkpt lat="44.24455" lon="5.84429">
        <ele>539.5</ele>
        <time>2021-09-08T14:37:36Z</time>
      </trkpt>
      <trkpt lat="44.2445" lon="5.84432">
        <ele>539.4</ele>
        <time>2021-09-08T14:37:37Z</time>
      </trkpt>
      <trkpt lat="44.24445" lon="5.84435">
        <ele>539.2</ele>
        <time>2021-09-08T14:37:38Z</time>
      </trkpt>
      <trkpt lat="44.24434" lon="5.84442">
        <ele>538.9</ele>
        <time>2021-09-08T14:37:40Z</time>
      </trkpt>
      <trkpt lat="44.24429" lon="5.84445">
        <ele>538.7</ele>
        <time>2021-09-08T14:37:41Z</time>
      </trkpt>
      <trkpt lat="44.24424" lon="5.84449">
        <ele>538.5</ele>
        <time>2021-09-08T14:37:42Z</time>
      </trkpt>
      <trkpt lat="44.24414" lon="5.84455">
        <ele>538.2</ele>
        <time>2021-09-08T14:37:44Z</time>
      </trkpt>
      <trkpt lat="44.24403" lon="5.84464">
        <ele>537.8</ele>
        <time>2021-09-08T14:37:46Z</time>
      </trkpt>
      <trkpt lat="44.24397" lon="5.84468">
        <ele>537.6</ele>
        <time>2021-09-08T14:37:47Z</time>
      </trkpt>
      <trkpt lat="44.24386" lon="5.84477">
        <ele>537.1</ele>
        <time>2021-09-08T14:37:49Z</time>
      </trkpt>
      <trkpt lat="44.2438" lon="5.84481">
        <ele>536.9</ele>
        <time>2021-09-08T14:37:50Z</time>
      </trkpt>
      <trkpt lat="44.24374" lon="5.84485">
        <ele>536.7</ele>
        <time>2021-09-08T14:37:51Z</time>
      </trkpt>
      <trkpt lat="44.24369" lon="5.84488">
        <ele>536.5</ele>
        <time>2021-09-08T14:37:52Z</time>
      </trkpt>
      <trkpt lat="44.24363" lon="5.84492">
        <ele>536.2</ele>
        <time>2021-09-08T14:37:53Z</time>
      </trkpt>
      <trkpt lat="44.24352" lon="5.84501">
        <ele>535.8</ele>
        <time>2021-09-08T14:37:55Z</time>
      </trkpt>
      <trkpt lat="44.2434" lon="5.84509">
        <ele>535.4</ele>
        <time>2021-09-08T14:37:57Z</time>
      </trkpt>
      <trkpt lat="44.2433" lon="5.84517">
        <ele>535.1</ele>
        <time>2021-09-08T14:37:59Z</time>
      </trkpt>
      <trkpt lat="44.24319" lon="5.84527">
        <ele>534.7</ele>
        <time>2021-09-08T14:38:01Z</time>
      </trkpt>
      <trkpt lat="44.24309" lon="5.84536">
        <ele>534.3</ele>
        <time>2021-09-08T14:38:03Z</time>
      </trkpt>
      <trkpt lat="44.24298" lon="5.84548">
        <ele>533.8</ele>
        <time>2021-09-08T14:38:05Z</time>
      </trkpt>
      <trkpt lat="44.24292" lon="5.84554">
        <ele>533.6</ele>
        <time>2021-09-08T14:38:06Z</time>
      </trkpt>
      <trkpt lat="44.24286" lon="5.8456">
        <ele>533.4</ele>
        <time>2021-09-08T14:38:07Z</time>
      </trkpt>
      <trkpt lat="44.24274" lon="5.8457">
        <ele>533</ele>
        <time>2021-09-08T14:38:09Z</time>
      </trkpt>
      <trkpt lat="44.24268" lon="5.84575">
        <ele>532.9</ele>
        <time>2021-09-08T14:38:10Z</time>
      </trkpt>
      <trkpt lat="44.24262" lon="5.8458">
        <ele>532.7</ele>
        <time>2021-09-08T14:38:11Z</time>
      </trkpt>
      <trkpt lat="44.2425" lon="5.84589">
        <ele>532.4</ele>
        <time>2021-09-08T14:38:13Z</time>
      </trkpt>
      <trkpt lat="44.24244" lon="5.84594">
        <ele>532.3</ele>
        <time>2021-09-08T14:38:14Z</time>
      </trkpt>
      <trkpt lat="44.24238" lon="5.84598">
        <ele>532.1</ele>
        <time>2021-09-08T14:38:15Z</time>
      </trkpt>
      <trkpt lat="44.24226" lon="5.84607">
        <ele>531.7</ele>
        <time>2021-09-08T14:38:17Z</time>
      </trkpt>
      <trkpt lat="44.24219" lon="5.84611">
        <ele>531.5</ele>
        <time>2021-09-08T14:38:18Z</time>
      </trkpt>
      <trkpt lat="44.24214" lon="5.84615">
        <ele>531.4</ele>
        <time>2021-09-08T14:38:19Z</time>
      </trkpt>
      <trkpt lat="44.24202" lon="5.84624">
        <ele>531</ele>
        <time>2021-09-08T14:38:21Z</time>
      </trkpt>
      <trkpt lat="44.2419" lon="5.84633">
        <ele>530.7</ele>
        <time>2021-09-08T14:38:23Z</time>
      </trkpt>
      <trkpt lat="44.24184" lon="5.84638">
        <ele>530.5</ele>
        <time>2021-09-08T14:38:24Z</time>
      </trkpt>
      <trkpt lat="44.24172" lon="5.84648">
        <ele>530.2</ele>
        <time>2021-09-08T14:38:26Z</time>
      </trkpt>
      <trkpt lat="44.24166" lon="5.84654">
        <ele>530.1</ele>
        <time>2021-09-08T14:38:27Z</time>
      </trkpt>
      <trkpt lat="44.2416" lon="5.84659">
        <ele>530</ele>
        <time>2021-09-08T14:38:28Z</time>
      </trkpt>
      <trkpt lat="44.24149" lon="5.84669">
        <ele>529.8</ele>
        <time>2021-09-08T14:38:30Z</time>
      </trkpt>
      <trkpt lat="44.24143" lon="5.84674">
        <ele>529.6</ele>
        <time>2021-09-08T14:38:31Z</time>
      </trkpt>
      <trkpt lat="44.24138" lon="5.84678">
        <ele>529.5</ele>
        <time>2021-09-08T14:38:32Z</time>
      </trkpt>
      <trkpt lat="44.24133" lon="5.84683">
        <ele>529.4</ele>
        <time>2021-09-08T14:38:33Z</time>
      </trkpt>
      <trkpt lat="44.24122" lon="5.8469">
        <ele>529.2</ele>
        <time>2021-09-08T14:38:35Z</time>
      </trkpt>
      <trkpt lat="44.24117" lon="5.84694">
        <ele>529.1</ele>
        <time>2021-09-08T14:38:36Z</time>
      </trkpt>
      <trkpt lat="44.24112" lon="5.84698">
        <ele>529</ele>
        <time>2021-09-08T14:38:37Z</time>
      </trkpt>
      <trkpt lat="44.24101" lon="5.84707">
        <ele>528.7</ele>
        <time>2021-09-08T14:38:39Z</time>
      </trkpt>
      <trkpt lat="44.24095" lon="5.84712">
        <ele>528.6</ele>
        <time>2021-09-08T14:38:40Z</time>
      </trkpt>
      <trkpt lat="44.24084" lon="5.84721">
        <ele>528.5</ele>
        <time>2021-09-08T14:38:42Z</time>
      </trkpt>
      <trkpt lat="44.24079" lon="5.84725">
        <ele>528.4</ele>
        <time>2021-09-08T14:38:43Z</time>
      </trkpt>
      <trkpt lat="44.24069" lon="5.84734">
        <ele>528.2</ele>
        <time>2021-09-08T14:38:45Z</time>
      </trkpt>
      <trkpt lat="44.24059" lon="5.84743">
        <ele>528.1</ele>
        <time>2021-09-08T14:38:47Z</time>
      </trkpt>
      <trkpt lat="44.24054" lon="5.84748">
        <ele>528</ele>
        <time>2021-09-08T14:38:48Z</time>
      </trkpt>
      <trkpt lat="44.24048" lon="5.84752">
        <ele>527.9</ele>
        <time>2021-09-08T14:38:49Z</time>
      </trkpt>
      <trkpt lat="44.24038" lon="5.8476">
        <ele>527.9</ele>
        <time>2021-09-08T14:38:51Z</time>
      </trkpt>
      <trkpt lat="44.24033" lon="5.84765">
        <ele>527.8</ele>
        <time>2021-09-08T14:38:52Z</time>
      </trkpt>
      <trkpt lat="44.24023" lon="5.84773">
        <ele>527.7</ele>
        <time>2021-09-08T14:38:54Z</time>
      </trkpt>
      <trkpt lat="44.24013" lon="5.84781">
        <ele>527.5</ele>
        <time>2021-09-08T14:38:56Z</time>
      </trkpt>
      <trkpt lat="44.24003" lon="5.84788">
        <ele>527.4</ele>
        <time>2021-09-08T14:38:58Z</time>
      </trkpt>
      <trkpt lat="44.23999" lon="5.84792">
        <ele>527.3</ele>
        <time>2021-09-08T14:38:59Z</time>
      </trkpt>
      <trkpt lat="44.23989" lon="5.84799">
        <ele>527.2</ele>
        <time>2021-09-08T14:39:01Z</time>
      </trkpt>
      <trkpt lat="44.23984" lon="5.84803">
        <ele>527.1</ele>
        <time>2021-09-08T14:39:02Z</time>
      </trkpt>
      <trkpt lat="44.23979" lon="5.84807">
        <ele>527</ele>
        <time>2021-09-08T14:39:03Z</time>
      </trkpt>
      <trkpt lat="44.2397" lon="5.84816">
        <ele>526.8</ele>
        <time>2021-09-08T14:39:05Z</time>
      </trkpt>
      <trkpt lat="44.23966" lon="5.8482">
        <ele>526.8</ele>
        <time>2021-09-08T14:39:06Z</time>
      </trkpt>
      <trkpt lat="44.23958" lon="5.84827">
        <ele>526.7</ele>
        <time>2021-09-08T14:39:08Z</time>
      </trkpt>
      <trkpt lat="44.2395" lon="5.84835">
        <ele>526.5</ele>
        <time>2021-09-08T14:39:10Z</time>
      </trkpt>
      <trkpt lat="44.23946" lon="5.84839">
        <ele>526.5</ele>
        <time>2021-09-08T14:39:11Z</time>
      </trkpt>
      <trkpt lat="44.23942" lon="5.84842">
        <ele>526.4</ele>
        <time>2021-09-08T14:39:12Z</time>
      </trkpt>
      <trkpt lat="44.23934" lon="5.84849">
        <ele>526.3</ele>
        <time>2021-09-08T14:39:14Z</time>
      </trkpt>
      <trkpt lat="44.23929" lon="5.84853">
        <ele>526.3</ele>
        <time>2021-09-08T14:39:15Z</time>
      </trkpt>
      <trkpt lat="44.23921" lon="5.8486">
        <ele>526.2</ele>
        <time>2021-09-08T14:39:17Z</time>
      </trkpt>
      <trkpt lat="44.23917" lon="5.84863">
        <ele>526.1</ele>
        <time>2021-09-08T14:39:18Z</time>
      </trkpt>
      <trkpt lat="44.23913" lon="5.84866">
        <ele>526.1</ele>
        <time>2021-09-08T14:39:19Z</time>
      </trkpt>
      <trkpt lat="44.2391" lon="5.84868">
        <ele>526.1</ele>
        <time>2021-09-08T14:39:20Z</time>
      </trkpt>
      <trkpt lat="44.23903" lon="5.84876">
        <ele>526</ele>
        <time>2021-09-08T14:39:22Z</time>
      </trkpt>
      <trkpt lat="44.239" lon="5.8488">
        <ele>526</ele>
        <time>2021-09-08T14:39:23Z</time>
      </trkpt>
      <trkpt lat="44.23892" lon="5.84888">
        <ele>525.9</ele>
        <time>2021-09-08T14:39:25Z</time>
      </trkpt>
      <trkpt lat="44.23884" lon="5.84895">
        <ele>525.8</ele>
        <time>2021-09-08T14:39:27Z</time>
      </trkpt>
      <trkpt lat="44.23881" lon="5.84897">
        <ele>525.7</ele>
        <time>2021-09-08T14:39:28Z</time>
      </trkpt>
      <trkpt lat="44.23877" lon="5.84901">
        <ele>525.7</ele>
        <time>2021-09-08T14:39:29Z</time>
      </trkpt>
      <trkpt lat="44.23874" lon="5.84903">
        <ele>525.6</ele>
        <time>2021-09-08T14:39:30Z</time>
      </trkpt>
      <trkpt lat="44.2387" lon="5.84908">
        <ele>525.6</ele>
        <time>2021-09-08T14:39:31Z</time>
      </trkpt>
      <trkpt lat="44.23864" lon="5.84914">
        <ele>525.5</ele>
        <time>2021-09-08T14:39:33Z</time>
      </trkpt>
      <trkpt lat="44.23859" lon="5.84918">
        <ele>525.4</ele>
        <time>2021-09-08T14:39:34Z</time>
      </trkpt>
      <trkpt lat="44.2385" lon="5.84924">
        <ele>525.3</ele>
        <time>2021-09-08T14:39:36Z</time>
      </trkpt>
      <trkpt lat="44.23845" lon="5.84924">
        <ele>525.3</ele>
        <time>2021-09-08T14:39:38Z</time>
      </trkpt>
      <trkpt lat="44.2384" lon="5.84928">
        <ele>525.3</ele>
        <time>2021-09-08T14:39:39Z</time>
      </trkpt>
      <trkpt lat="44.23835" lon="5.84933">
        <ele>525.2</ele>
        <time>2021-09-08T14:39:40Z</time>
      </trkpt>
      <trkpt lat="44.23831" lon="5.84936">
        <ele>525.2</ele>
        <time>2021-09-08T14:39:41Z</time>
      </trkpt>
      <trkpt lat="44.23827" lon="5.84939">
        <ele>525.2</ele>
        <time>2021-09-08T14:39:42Z</time>
      </trkpt>
      <trkpt lat="44.23823" lon="5.84942">
        <ele>525.2</ele>
        <time>2021-09-08T14:39:43Z</time>
      </trkpt>
      <trkpt lat="44.2382" lon="5.84944">
        <ele>525.2</ele>
        <time>2021-09-08T14:39:44Z</time>
      </trkpt>
      <trkpt lat="44.23815" lon="5.84949">
        <ele>525.1</ele>
        <time>2021-09-08T14:39:46Z</time>
      </trkpt>
      <trkpt lat="44.23811" lon="5.84952">
        <ele>525.1</ele>
        <time>2021-09-08T14:39:47Z</time>
      </trkpt>
      <trkpt lat="44.23804" lon="5.84958">
        <ele>525.1</ele>
        <time>2021-09-08T14:39:49Z</time>
      </trkpt>
      <trkpt lat="44.238" lon="5.84961">
        <ele>525.1</ele>
        <time>2021-09-08T14:39:50Z</time>
      </trkpt>
      <trkpt lat="44.23794" lon="5.84966">
        <ele>525.1</ele>
        <time>2021-09-08T14:39:52Z</time>
      </trkpt>
      <trkpt lat="44.23789" lon="5.84969">
        <ele>525</ele>
        <time>2021-09-08T14:39:53Z</time>
      </trkpt>
      <trkpt lat="44.23784" lon="5.84973">
        <ele>525</ele>
        <time>2021-09-08T14:39:54Z</time>
      </trkpt>
      <trkpt lat="44.23781" lon="5.84976">
        <ele>525</ele>
        <time>2021-09-08T14:39:55Z</time>
      </trkpt>
      <trkpt lat="44.23779" lon="5.84977">
        <ele>525</ele>
        <time>2021-09-08T14:39:56Z</time>
      </trkpt>
      <trkpt lat="44.23776" lon="5.84979">
        <ele>525</ele>
        <time>2021-09-08T14:39:58Z</time>
      </trkpt>
      <trkpt lat="44.23767" lon="5.84985">
        <ele>525</ele>
        <time>2021-09-08T14:40:00Z</time>
      </trkpt>
      <trkpt lat="44.23761" lon="5.84989">
        <ele>525</ele>
        <time>2021-09-08T14:40:01Z</time>
      </trkpt>
      <trkpt lat="44.23757" lon="5.84992">
        <ele>525</ele>
        <time>2021-09-08T14:40:02Z</time>
      </trkpt>
      <trkpt lat="44.23751" lon="5.84996">
        <ele>525</ele>
        <time>2021-09-08T14:40:03Z</time>
      </trkpt>
      <trkpt lat="44.23747" lon="5.84999">
        <ele>525</ele>
        <time>2021-09-08T14:40:04Z</time>
      </trkpt>
      <trkpt lat="44.2374" lon="5.85004">
        <ele>525</ele>
        <time>2021-09-08T14:40:06Z</time>
      </trkpt>
      <trkpt lat="44.23732" lon="5.85009">
        <ele>525.1</ele>
        <time>2021-09-08T14:40:08Z</time>
      </trkpt>
      <trkpt lat="44.23727" lon="5.85013">
        <ele>525.1</ele>
        <time>2021-09-08T14:40:09Z</time>
      </trkpt>
      <trkpt lat="44.23721" lon="5.85016">
        <ele>525.1</ele>
        <time>2021-09-08T14:40:11Z</time>
      </trkpt>
      <trkpt lat="44.23716" lon="5.8502">
        <ele>525.1</ele>
        <time>2021-09-08T14:40:12Z</time>
      </trkpt>
      <trkpt lat="44.23711" lon="5.85023">
        <ele>525.2</ele>
        <time>2021-09-08T14:40:13Z</time>
      </trkpt>
      <trkpt lat="44.23705" lon="5.85027">
        <ele>525.2</ele>
        <time>2021-09-08T14:40:15Z</time>
      </trkpt>
      <trkpt lat="44.237" lon="5.85033">
        <ele>525.2</ele>
        <time>2021-09-08T14:40:17Z</time>
      </trkpt>
      <trkpt lat="44.23697" lon="5.85036">
        <ele>525.3</ele>
        <time>2021-09-08T14:40:18Z</time>
      </trkpt>
      <trkpt lat="44.23691" lon="5.85042">
        <ele>525.3</ele>
        <time>2021-09-08T14:40:20Z</time>
      </trkpt>
      <trkpt lat="44.23685" lon="5.85047">
        <ele>525.3</ele>
        <time>2021-09-08T14:40:22Z</time>
      </trkpt>
      <trkpt lat="44.23679" lon="5.85051">
        <ele>525.4</ele>
        <time>2021-09-08T14:40:24Z</time>
      </trkpt>
      <trkpt lat="44.23675" lon="5.85054">
        <ele>525.4</ele>
        <time>2021-09-08T14:40:25Z</time>
      </trkpt>
      <trkpt lat="44.23671" lon="5.85056">
        <ele>525.4</ele>
        <time>2021-09-08T14:40:26Z</time>
      </trkpt>
      <trkpt lat="44.23667" lon="5.85059">
        <ele>525.4</ele>
        <time>2021-09-08T14:40:27Z</time>
      </trkpt>
      <trkpt lat="44.23662" lon="5.85064">
        <ele>525.5</ele>
        <time>2021-09-08T14:40:29Z</time>
      </trkpt>
      <trkpt lat="44.23658" lon="5.85069">
        <ele>525.5</ele>
        <time>2021-09-08T14:40:30Z</time>
      </trkpt>
      <trkpt lat="44.23653" lon="5.85074">
        <ele>525.5</ele>
        <time>2021-09-08T14:40:32Z</time>
      </trkpt>
      <trkpt lat="44.23647" lon="5.8508">
        <ele>525.5</ele>
        <time>2021-09-08T14:40:34Z</time>
      </trkpt>
      <trkpt lat="44.23641" lon="5.85087">
        <ele>525.5</ele>
        <time>2021-09-08T14:40:36Z</time>
      </trkpt>
      <trkpt lat="44.23636" lon="5.85095">
        <ele>525.6</ele>
        <time>2021-09-08T14:40:38Z</time>
      </trkpt>
      <trkpt lat="44.23633" lon="5.85099">
        <ele>525.6</ele>
        <time>2021-09-08T14:40:39Z</time>
      </trkpt>
      <trkpt lat="44.23631" lon="5.85104">
        <ele>525.6</ele>
        <time>2021-09-08T14:40:40Z</time>
      </trkpt>
      <trkpt lat="44.23628" lon="5.85109">
        <ele>525.6</ele>
        <time>2021-09-08T14:40:41Z</time>
      </trkpt>
      <trkpt lat="44.23626" lon="5.85113">
        <ele>525.6</ele>
        <time>2021-09-08T14:40:42Z</time>
      </trkpt>
      <trkpt lat="44.23623" lon="5.85117">
        <ele>525.6</ele>
        <time>2021-09-08T14:40:43Z</time>
      </trkpt>
      <trkpt lat="44.23618" lon="5.85119">
        <ele>525.5</ele>
        <time>2021-09-08T14:40:45Z</time>
      </trkpt>
      <trkpt lat="44.23613" lon="5.8512">
        <ele>525.5</ele>
        <time>2021-09-08T14:40:46Z</time>
      </trkpt>
      <trkpt lat="44.2361" lon="5.85121">
        <ele>525.5</ele>
        <time>2021-09-08T14:40:47Z</time>
      </trkpt>
      <trkpt lat="44.23605" lon="5.85122">
        <ele>525.4</ele>
        <time>2021-09-08T14:40:49Z</time>
      </trkpt>
      <trkpt lat="44.23602" lon="5.85124">
        <ele>525.4</ele>
        <time>2021-09-08T14:40:50Z</time>
      </trkpt>
      <trkpt lat="44.23601" lon="5.85125">
        <ele>525.4</ele>
        <time>2021-09-08T14:40:51Z</time>
      </trkpt>
      <trkpt lat="44.23601" lon="5.85127">
        <ele>525.4</ele>
        <time>2021-09-08T14:40:53Z</time>
      </trkpt>
      <trkpt lat="44.23603" lon="5.85128">
        <ele>525.3</ele>
        <time>2021-09-08T14:40:54Z</time>
      </trkpt>
      <trkpt lat="44.23603" lon="5.85128">
        <ele>525.3</ele>
        <time>2021-09-08T14:40:55Z</time>
      </trkpt>
      <trkpt lat="44.23604" lon="5.85127">
        <ele>525.3</ele>
        <time>2021-09-08T14:40:57Z</time>
      </trkpt>
      <trkpt lat="44.23606" lon="5.85125">
        <ele>525.3</ele>
        <time>2021-09-08T14:40:59Z</time>
      </trkpt>
      <trkpt lat="44.23607" lon="5.85122">
        <ele>525.3</ele>
        <time>2021-09-08T14:41:00Z</time>
      </trkpt>
      <trkpt lat="44.23608" lon="5.85119">
        <ele>525.3</ele>
        <time>2021-09-08T14:41:02Z</time>
      </trkpt>
      <trkpt lat="44.23608" lon="5.85117">
        <ele>525.3</ele>
        <time>2021-09-08T14:41:03Z</time>
      </trkpt>
      <trkpt lat="44.23608" lon="5.85115">
        <ele>525.3</ele>
        <time>2021-09-08T14:41:05Z</time>
      </trkpt>
      <trkpt lat="44.23609" lon="5.85112">
        <ele>525.3</ele>
        <time>2021-09-08T14:41:36Z</time>
      </trkpt>
      <trkpt lat="44.23609" lon="5.8511">
        <ele>525.3</ele>
        <time>2021-09-08T14:41:37Z</time>
      </trkpt>
      <trkpt lat="44.23604" lon="5.85112">
        <ele>525.3</ele>
        <time>2021-09-08T14:41:38Z</time>
      </trkpt>
      <trkpt lat="44.23596" lon="5.85114">
        <ele>525.4</ele>
        <time>2021-09-08T14:41:40Z</time>
      </trkpt>
      <trkpt lat="44.2359" lon="5.85116">
        <ele>525.5</ele>
        <time>2021-09-08T14:41:41Z</time>
      </trkpt>
      <trkpt lat="44.23582" lon="5.85118">
        <ele>525.6</ele>
        <time>2021-09-08T14:41:43Z</time>
      </trkpt>
      <trkpt lat="44.23578" lon="5.85121">
        <ele>525.6</ele>
        <time>2021-09-08T14:41:44Z</time>
      </trkpt>
      <trkpt lat="44.23575" lon="5.85124">
        <ele>525.7</ele>
        <time>2021-09-08T14:41:45Z</time>
      </trkpt>
      <trkpt lat="44.23568" lon="5.85129">
        <ele>525.7</ele>
        <time>2021-09-08T14:41:47Z</time>
      </trkpt>
      <trkpt lat="44.23564" lon="5.85132">
        <ele>525.7</ele>
        <time>2021-09-08T14:41:48Z</time>
      </trkpt>
      <trkpt lat="44.23559" lon="5.85134">
        <ele>525.8</ele>
        <time>2021-09-08T14:41:49Z</time>
      </trkpt>
      <trkpt lat="44.23554" lon="5.85138">
        <ele>525.8</ele>
        <time>2021-09-08T14:41:51Z</time>
      </trkpt>
      <trkpt lat="44.2355" lon="5.8514">
        <ele>525.8</ele>
        <time>2021-09-08T14:41:52Z</time>
      </trkpt>
      <trkpt lat="44.23545" lon="5.85144">
        <ele>525.9</ele>
        <time>2021-09-08T14:41:54Z</time>
      </trkpt>
      <trkpt lat="44.2354" lon="5.8515">
        <ele>526</ele>
        <time>2021-09-08T14:41:56Z</time>
      </trkpt>
      <trkpt lat="44.23536" lon="5.85154">
        <ele>526</ele>
        <time>2021-09-08T14:41:57Z</time>
      </trkpt>
      <trkpt lat="44.23534" lon="5.85157">
        <ele>526.1</ele>
        <time>2021-09-08T14:41:58Z</time>
      </trkpt>
      <trkpt lat="44.23531" lon="5.85161">
        <ele>526.2</ele>
        <time>2021-09-08T14:41:59Z</time>
      </trkpt>
      <trkpt lat="44.23528" lon="5.85165">
        <ele>526.3</ele>
        <time>2021-09-08T14:42:00Z</time>
      </trkpt>
      <trkpt lat="44.23525" lon="5.85168">
        <ele>526.4</ele>
        <time>2021-09-08T14:42:01Z</time>
      </trkpt>
      <trkpt lat="44.23522" lon="5.8517">
        <ele>526.4</ele>
        <time>2021-09-08T14:42:02Z</time>
      </trkpt>
      <trkpt lat="44.23516" lon="5.85174">
        <ele>526.6</ele>
        <time>2021-09-08T14:42:04Z</time>
      </trkpt>
      <trkpt lat="44.23511" lon="5.8518">
        <ele>526.7</ele>
        <time>2021-09-08T14:42:06Z</time>
      </trkpt>
      <trkpt lat="44.23506" lon="5.85186">
        <ele>526.8</ele>
        <time>2021-09-08T14:42:08Z</time>
      </trkpt>
      <trkpt lat="44.23501" lon="5.85191">
        <ele>526.9</ele>
        <time>2021-09-08T14:42:10Z</time>
      </trkpt>
      <trkpt lat="44.23499" lon="5.85193">
        <ele>526.9</ele>
        <time>2021-09-08T14:42:11Z</time>
      </trkpt>
      <trkpt lat="44.23494" lon="5.85198">
        <ele>527</ele>
        <time>2021-09-08T14:42:13Z</time>
      </trkpt>
      <trkpt lat="44.2349" lon="5.85202">
        <ele>527</ele>
        <time>2021-09-08T14:42:14Z</time>
      </trkpt>
      <trkpt lat="44.23487" lon="5.85205">
        <ele>527.1</ele>
        <time>2021-09-08T14:42:16Z</time>
      </trkpt>
      <trkpt lat="44.23483" lon="5.8521">
        <ele>527.2</ele>
        <time>2021-09-08T14:42:17Z</time>
      </trkpt>
      <trkpt lat="44.2348" lon="5.85213">
        <ele>527.2</ele>
        <time>2021-09-08T14:42:18Z</time>
      </trkpt>
      <trkpt lat="44.23477" lon="5.85216">
        <ele>527.3</ele>
        <time>2021-09-08T14:42:19Z</time>
      </trkpt>
      <trkpt lat="44.23471" lon="5.85221">
        <ele>527.4</ele>
        <time>2021-09-08T14:42:21Z</time>
      </trkpt>
      <trkpt lat="44.23466" lon="5.85225">
        <ele>527.5</ele>
        <time>2021-09-08T14:42:23Z</time>
      </trkpt>
      <trkpt lat="44.23461" lon="5.8523">
        <ele>527.4</ele>
        <time>2021-09-08T14:42:25Z</time>
      </trkpt>
      <trkpt lat="44.23458" lon="5.85234">
        <ele>527.4</ele>
        <time>2021-09-08T14:42:26Z</time>
      </trkpt>
      <trkpt lat="44.23454" lon="5.85237">
        <ele>527.4</ele>
        <time>2021-09-08T14:42:27Z</time>
      </trkpt>
      <trkpt lat="44.2345" lon="5.85242">
        <ele>527.3</ele>
        <time>2021-09-08T14:42:29Z</time>
      </trkpt>
      <trkpt lat="44.23446" lon="5.85247">
        <ele>527.3</ele>
        <time>2021-09-08T14:42:31Z</time>
      </trkpt>
      <trkpt lat="44.23442" lon="5.85251">
        <ele>527.3</ele>
        <time>2021-09-08T14:42:32Z</time>
      </trkpt>
      <trkpt lat="44.23437" lon="5.85254">
        <ele>527.2</ele>
        <time>2021-09-08T14:42:33Z</time>
      </trkpt>
      <trkpt lat="44.23432" lon="5.85257">
        <ele>527.2</ele>
        <time>2021-09-08T14:42:35Z</time>
      </trkpt>
      <trkpt lat="44.23429" lon="5.85259">
        <ele>527.2</ele>
        <time>2021-09-08T14:42:36Z</time>
      </trkpt>
      <trkpt lat="44.23426" lon="5.85262">
        <ele>527.1</ele>
        <time>2021-09-08T14:42:37Z</time>
      </trkpt>
      <trkpt lat="44.23422" lon="5.85267">
        <ele>527.1</ele>
        <time>2021-09-08T14:42:39Z</time>
      </trkpt>
      <trkpt lat="44.23419" lon="5.8527">
        <ele>527.1</ele>
        <time>2021-09-08T14:42:40Z</time>
      </trkpt>
      <trkpt lat="44.23417" lon="5.85273">
        <ele>527.1</ele>
        <time>2021-09-08T14:42:41Z</time>
      </trkpt>
      <trkpt lat="44.23413" lon="5.85277">
        <ele>527.1</ele>
        <time>2021-09-08T14:42:42Z</time>
      </trkpt>
      <trkpt lat="44.2341" lon="5.85279">
        <ele>527.1</ele>
        <time>2021-09-08T14:42:43Z</time>
      </trkpt>
      <trkpt lat="44.23406" lon="5.85282">
        <ele>527.1</ele>
        <time>2021-09-08T14:42:44Z</time>
      </trkpt>
      <trkpt lat="44.23402" lon="5.85284">
        <ele>527.1</ele>
        <time>2021-09-08T14:42:45Z</time>
      </trkpt>
      <trkpt lat="44.23394" lon="5.85289">
        <ele>527</ele>
        <time>2021-09-08T14:42:47Z</time>
      </trkpt>
      <trkpt lat="44.23387" lon="5.85294">
        <ele>526.9</ele>
        <time>2021-09-08T14:42:49Z</time>
      </trkpt>
      <trkpt lat="44.23383" lon="5.85296">
        <ele>526.9</ele>
        <time>2021-09-08T14:42:50Z</time>
      </trkpt>
      <trkpt lat="44.23374" lon="5.853">
        <ele>526.8</ele>
        <time>2021-09-08T14:42:52Z</time>
      </trkpt>
      <trkpt lat="44.23366" lon="5.85304">
        <ele>526.6</ele>
        <time>2021-09-08T14:42:54Z</time>
      </trkpt>
      <trkpt lat="44.23359" lon="5.85309">
        <ele>526.5</ele>
        <time>2021-09-08T14:42:56Z</time>
      </trkpt>
      <trkpt lat="44.23356" lon="5.85312">
        <ele>526.5</ele>
        <time>2021-09-08T14:42:57Z</time>
      </trkpt>
      <trkpt lat="44.23348" lon="5.85317">
        <ele>526.4</ele>
        <time>2021-09-08T14:42:59Z</time>
      </trkpt>
      <trkpt lat="44.23345" lon="5.8532">
        <ele>526.3</ele>
        <time>2021-09-08T14:43:00Z</time>
      </trkpt>
      <trkpt lat="44.23341" lon="5.85323">
        <ele>526.3</ele>
        <time>2021-09-08T14:43:01Z</time>
      </trkpt>
      <trkpt lat="44.23334" lon="5.8533">
        <ele>526.1</ele>
        <time>2021-09-08T14:43:03Z</time>
      </trkpt>
      <trkpt lat="44.2333" lon="5.85334">
        <ele>525.8</ele>
        <time>2021-09-08T14:43:04Z</time>
      </trkpt>
      <trkpt lat="44.23327" lon="5.8534">
        <ele>525.5</ele>
        <time>2021-09-08T14:43:05Z</time>
      </trkpt>
      <trkpt lat="44.23324" lon="5.85346">
        <ele>525.1</ele>
        <time>2021-09-08T14:43:06Z</time>
      </trkpt>
      <trkpt lat="44.23322" lon="5.85353">
        <ele>524.7</ele>
        <time>2021-09-08T14:43:07Z</time>
      </trkpt>
      <trkpt lat="44.23319" lon="5.85369">
        <ele>523.8</ele>
        <time>2021-09-08T14:43:09Z</time>
      </trkpt>
      <trkpt lat="44.23316" lon="5.85385">
        <ele>522.9</ele>
        <time>2021-09-08T14:43:11Z</time>
      </trkpt>
      <trkpt lat="44.23315" lon="5.85393">
        <ele>522.4</ele>
        <time>2021-09-08T14:43:12Z</time>
      </trkpt>
      <trkpt lat="44.23314" lon="5.85402">
        <ele>521.9</ele>
        <time>2021-09-08T14:43:13Z</time>
      </trkpt>
      <trkpt lat="44.23313" lon="5.85418">
        <ele>520.8</ele>
        <time>2021-09-08T14:43:15Z</time>
      </trkpt>
      <trkpt lat="44.23313" lon="5.85426">
        <ele>520.4</ele>
        <time>2021-09-08T14:43:16Z</time>
      </trkpt>
      <trkpt lat="44.23312" lon="5.85441">
        <ele>519.5</ele>
        <time>2021-09-08T14:43:18Z</time>
      </trkpt>
      <trkpt lat="44.23311" lon="5.85449">
        <ele>519</ele>
        <time>2021-09-08T14:43:19Z</time>
      </trkpt>
      <trkpt lat="44.23307" lon="5.85462">
        <ele>518.4</ele>
        <time>2021-09-08T14:43:21Z</time>
      </trkpt>
      <trkpt lat="44.23305" lon="5.85468">
        <ele>518.1</ele>
        <time>2021-09-08T14:43:22Z</time>
      </trkpt>
      <trkpt lat="44.23302" lon="5.85477">
        <ele>517.2</ele>
        <time>2021-09-08T14:43:24Z</time>
      </trkpt>
      <trkpt lat="44.233" lon="5.85481">
        <ele>517.1</ele>
        <time>2021-09-08T14:43:25Z</time>
      </trkpt>
      <trkpt lat="44.23294" lon="5.85486">
        <ele>517</ele>
        <time>2021-09-08T14:43:27Z</time>
      </trkpt>
      <trkpt lat="44.2329" lon="5.85488">
        <ele>516.9</ele>
        <time>2021-09-08T14:43:28Z</time>
      </trkpt>
      <trkpt lat="44.23286" lon="5.85487">
        <ele>516.8</ele>
        <time>2021-09-08T14:43:30Z</time>
      </trkpt>
      <trkpt lat="44.23282" lon="5.85485">
        <ele>516.8</ele>
        <time>2021-09-08T14:43:31Z</time>
      </trkpt>
      <trkpt lat="44.23278" lon="5.85487">
        <ele>516.7</ele>
        <time>2021-09-08T14:43:32Z</time>
      </trkpt>
      <trkpt lat="44.23271" lon="5.85491">
        <ele>516.6</ele>
        <time>2021-09-08T14:43:33Z</time>
      </trkpt>
      <trkpt lat="44.23265" lon="5.85494">
        <ele>516.5</ele>
        <time>2021-09-08T14:43:35Z</time>
      </trkpt>
      <trkpt lat="44.23257" lon="5.85497">
        <ele>516.5</ele>
        <time>2021-09-08T14:43:37Z</time>
      </trkpt>
      <trkpt lat="44.23247" lon="5.855">
        <ele>516.4</ele>
        <time>2021-09-08T14:43:38Z</time>
      </trkpt>
      <trkpt lat="44.23237" lon="5.85503">
        <ele>516.5</ele>
        <time>2021-09-08T14:43:40Z</time>
      </trkpt>
      <trkpt lat="44.23228" lon="5.85507">
        <ele>516.6</ele>
        <time>2021-09-08T14:43:42Z</time>
      </trkpt>
      <trkpt lat="44.23226" lon="5.85509">
        <ele>516.6</ele>
        <time>2021-09-08T14:43:43Z</time>
      </trkpt>
      <trkpt lat="44.23218" lon="5.85513">
        <ele>516.8</ele>
        <time>2021-09-08T14:43:45Z</time>
      </trkpt>
      <trkpt lat="44.23211" lon="5.85518">
        <ele>517.1</ele>
        <time>2021-09-08T14:43:47Z</time>
      </trkpt>
      <trkpt lat="44.23208" lon="5.85523">
        <ele>517.3</ele>
        <time>2021-09-08T14:43:48Z</time>
      </trkpt>
      <trkpt lat="44.23204" lon="5.85529">
        <ele>517.6</ele>
        <time>2021-09-08T14:43:50Z</time>
      </trkpt>
      <trkpt lat="44.23198" lon="5.85533">
        <ele>517.9</ele>
        <time>2021-09-08T14:43:52Z</time>
      </trkpt>
      <trkpt lat="44.23193" lon="5.85538">
        <ele>518.3</ele>
        <time>2021-09-08T14:43:54Z</time>
      </trkpt>
      <trkpt lat="44.23189" lon="5.85541">
        <ele>518.6</ele>
        <time>2021-09-08T14:43:55Z</time>
      </trkpt>
      <trkpt lat="44.23187" lon="5.85543">
        <ele>518.7</ele>
        <time>2021-09-08T14:43:56Z</time>
      </trkpt>
      <trkpt lat="44.23183" lon="5.85546">
        <ele>519</ele>
        <time>2021-09-08T14:43:58Z</time>
      </trkpt>
      <trkpt lat="44.2318" lon="5.85548">
        <ele>519.2</ele>
        <time>2021-09-08T14:43:59Z</time>
      </trkpt>
      <trkpt lat="44.23178" lon="5.85549">
        <ele>519.3</ele>
        <time>2021-09-08T14:44:00Z</time>
      </trkpt>
      <trkpt lat="44.23174" lon="5.85553">
        <ele>519.6</ele>
        <time>2021-09-08T14:44:02Z</time>
      </trkpt>
      <trkpt lat="44.23171" lon="5.85555">
        <ele>519.8</ele>
        <time>2021-09-08T14:44:03Z</time>
      </trkpt>
      <trkpt lat="44.23169" lon="5.85559">
        <ele>520</ele>
        <time>2021-09-08T14:44:05Z</time>
      </trkpt>
      <trkpt lat="44.23168" lon="5.85565">
        <ele>520.3</ele>
        <time>2021-09-08T14:44:07Z</time>
      </trkpt>
      <trkpt lat="44.23167" lon="5.85571">
        <ele>520.7</ele>
        <time>2021-09-08T14:44:09Z</time>
      </trkpt>
      <trkpt lat="44.23168" lon="5.85573">
        <ele>520.8</ele>
        <time>2021-09-08T14:44:10Z</time>
      </trkpt>
      <trkpt lat="44.23168" lon="5.85575">
        <ele>520.9</ele>
        <time>2021-09-08T14:44:11Z</time>
      </trkpt>
      <trkpt lat="44.23164" lon="5.85581">
        <ele>521.2</ele>
        <time>2021-09-08T14:44:13Z</time>
      </trkpt>
      <trkpt lat="44.23161" lon="5.85584">
        <ele>521.5</ele>
        <time>2021-09-08T14:44:15Z</time>
      </trkpt>
      <trkpt lat="44.23158" lon="5.85588">
        <ele>521.7</ele>
        <time>2021-09-08T14:44:16Z</time>
      </trkpt>
      <trkpt lat="44.23155" lon="5.85591">
        <ele>521.9</ele>
        <time>2021-09-08T14:44:18Z</time>
      </trkpt>
      <trkpt lat="44.23151" lon="5.85595">
        <ele>522.1</ele>
        <time>2021-09-08T14:44:19Z</time>
      </trkpt>
      <trkpt lat="44.23148" lon="5.85598">
        <ele>522.3</ele>
        <time>2021-09-08T14:44:37Z</time>
      </trkpt>
      <trkpt lat="44.23145" lon="5.85601">
        <ele>522.5</ele>
        <time>2021-09-08T14:44:38Z</time>
      </trkpt>
      <trkpt lat="44.23141" lon="5.85604">
        <ele>522.6</ele>
        <time>2021-09-08T14:44:39Z</time>
      </trkpt>
      <trkpt lat="44.23134" lon="5.85609">
        <ele>522.8</ele>
        <time>2021-09-08T14:44:40Z</time>
      </trkpt>
      <trkpt lat="44.23124" lon="5.85612">
        <ele>522.9</ele>
        <time>2021-09-08T14:44:41Z</time>
      </trkpt>
      <trkpt lat="44.23111" lon="5.85616">
        <ele>523.2</ele>
        <time>2021-09-08T14:44:43Z</time>
      </trkpt>
      <trkpt lat="44.23103" lon="5.85619">
        <ele>523.2</ele>
        <time>2021-09-08T14:44:44Z</time>
      </trkpt>
      <trkpt lat="44.23099" lon="5.8562">
        <ele>523.2</ele>
        <time>2021-09-08T14:44:45Z</time>
      </trkpt>
      <trkpt lat="44.23093" lon="5.85623">
        <ele>523.3</ele>
        <time>2021-09-08T14:44:46Z</time>
      </trkpt>
      <trkpt lat="44.2309" lon="5.85625">
        <ele>523.3</ele>
        <time>2021-09-08T14:44:48Z</time>
      </trkpt>
      <trkpt lat="44.23086" lon="5.85628">
        <ele>523.3</ele>
        <time>2021-09-08T14:44:49Z</time>
      </trkpt>
      <trkpt lat="44.23082" lon="5.85632">
        <ele>523.3</ele>
        <time>2021-09-08T14:44:50Z</time>
      </trkpt>
      <trkpt lat="44.23078" lon="5.85637">
        <ele>523.3</ele>
        <time>2021-09-08T14:44:52Z</time>
      </trkpt>
      <trkpt lat="44.23074" lon="5.8564">
        <ele>523.2</ele>
        <time>2021-09-08T14:44:53Z</time>
      </trkpt>
      <trkpt lat="44.23072" lon="5.85644">
        <ele>523.2</ele>
        <time>2021-09-08T14:44:55Z</time>
      </trkpt>
      <trkpt lat="44.23068" lon="5.85654">
        <ele>523.2</ele>
        <time>2021-09-08T14:44:57Z</time>
      </trkpt>
      <trkpt lat="44.23064" lon="5.85665">
        <ele>523.2</ele>
        <time>2021-09-08T14:44:59Z</time>
      </trkpt>
      <trkpt lat="44.23062" lon="5.8567">
        <ele>523.2</ele>
        <time>2021-09-08T14:45:00Z</time>
      </trkpt>
      <trkpt lat="44.23059" lon="5.85679">
        <ele>523.1</ele>
        <time>2021-09-08T14:45:02Z</time>
      </trkpt>
      <trkpt lat="44.23055" lon="5.85687">
        <ele>523.1</ele>
        <time>2021-09-08T14:45:03Z</time>
      </trkpt>
      <trkpt lat="44.23052" lon="5.85691">
        <ele>523.1</ele>
        <time>2021-09-08T14:45:04Z</time>
      </trkpt>
      <trkpt lat="44.23046" lon="5.85697">
        <ele>523.1</ele>
        <time>2021-09-08T14:45:06Z</time>
      </trkpt>
      <trkpt lat="44.23042" lon="5.857">
        <ele>523.1</ele>
        <time>2021-09-08T14:45:07Z</time>
      </trkpt>
      <trkpt lat="44.23034" lon="5.85704">
        <ele>523</ele>
        <time>2021-09-08T14:45:09Z</time>
      </trkpt>
      <trkpt lat="44.2303" lon="5.85707">
        <ele>523</ele>
        <time>2021-09-08T14:45:10Z</time>
      </trkpt>
      <trkpt lat="44.23023" lon="5.85712">
        <ele>523</ele>
        <time>2021-09-08T14:45:12Z</time>
      </trkpt>
      <trkpt lat="44.23014" lon="5.85719">
        <ele>523</ele>
        <time>2021-09-08T14:45:13Z</time>
      </trkpt>
      <trkpt lat="44.23009" lon="5.85722">
        <ele>523</ele>
        <time>2021-09-08T14:45:14Z</time>
      </trkpt>
      <trkpt lat="44.23002" lon="5.85725">
        <ele>523</ele>
        <time>2021-09-08T14:45:16Z</time>
      </trkpt>
      <trkpt lat="44.22995" lon="5.85728">
        <ele>523</ele>
        <time>2021-09-08T14:45:18Z</time>
      </trkpt>
      <trkpt lat="44.22987" lon="5.8573">
        <ele>522.9</ele>
        <time>2021-09-08T14:45:20Z</time>
      </trkpt>
      <trkpt lat="44.22983" lon="5.85732">
        <ele>522.9</ele>
        <time>2021-09-08T14:45:21Z</time>
      </trkpt>
      <trkpt lat="44.22979" lon="5.85735">
        <ele>522.9</ele>
        <time>2021-09-08T14:45:22Z</time>
      </trkpt>
      <trkpt lat="44.22974" lon="5.85738">
        <ele>522.9</ele>
        <time>2021-09-08T14:45:24Z</time>
      </trkpt>
      <trkpt lat="44.2297" lon="5.85741">
        <ele>522.9</ele>
        <time>2021-09-08T14:45:25Z</time>
      </trkpt>
      <trkpt lat="44.22966" lon="5.85745">
        <ele>522.9</ele>
        <time>2021-09-08T14:45:26Z</time>
      </trkpt>
      <trkpt lat="44.22961" lon="5.85749">
        <ele>522.8</ele>
        <time>2021-09-08T14:45:27Z</time>
      </trkpt>
      <trkpt lat="44.22957" lon="5.85752">
        <ele>522.8</ele>
        <time>2021-09-08T14:45:29Z</time>
      </trkpt>
      <trkpt lat="44.22953" lon="5.85755">
        <ele>522.8</ele>
        <time>2021-09-08T14:45:30Z</time>
      </trkpt>
      <trkpt lat="44.22946" lon="5.8576">
        <ele>522.7</ele>
        <time>2021-09-08T14:45:32Z</time>
      </trkpt>
      <trkpt lat="44.2294" lon="5.85763">
        <ele>522.7</ele>
        <time>2021-09-08T14:45:33Z</time>
      </trkpt>
      <trkpt lat="44.22935" lon="5.85766">
        <ele>522.6</ele>
        <time>2021-09-08T14:45:35Z</time>
      </trkpt>
      <trkpt lat="44.22932" lon="5.85769">
        <ele>522.6</ele>
        <time>2021-09-08T14:45:36Z</time>
      </trkpt>
      <trkpt lat="44.22926" lon="5.85776">
        <ele>522.6</ele>
        <time>2021-09-08T14:45:38Z</time>
      </trkpt>
      <trkpt lat="44.2292" lon="5.85779">
        <ele>522.5</ele>
        <time>2021-09-08T14:45:39Z</time>
      </trkpt>
      <trkpt lat="44.22916" lon="5.85782">
        <ele>522.5</ele>
        <time>2021-09-08T14:45:40Z</time>
      </trkpt>
      <trkpt lat="44.22912" lon="5.85785">
        <ele>522.5</ele>
        <time>2021-09-08T14:45:41Z</time>
      </trkpt>
      <trkpt lat="44.22904" lon="5.85789">
        <ele>522.4</ele>
        <time>2021-09-08T14:45:43Z</time>
      </trkpt>
      <trkpt lat="44.229" lon="5.85791">
        <ele>522.4</ele>
        <time>2021-09-08T14:45:44Z</time>
      </trkpt>
      <trkpt lat="44.2289" lon="5.85794">
        <ele>522.3</ele>
        <time>2021-09-08T14:45:46Z</time>
      </trkpt>
      <trkpt lat="44.22885" lon="5.85794">
        <ele>522.3</ele>
        <time>2021-09-08T14:45:47Z</time>
      </trkpt>
      <trkpt lat="44.22879" lon="5.85794">
        <ele>522.3</ele>
        <time>2021-09-08T14:45:49Z</time>
      </trkpt>
      <trkpt lat="44.22875" lon="5.85797">
        <ele>522.3</ele>
        <time>2021-09-08T14:45:50Z</time>
      </trkpt>
      <trkpt lat="44.22871" lon="5.85799">
        <ele>522.3</ele>
        <time>2021-09-08T14:45:51Z</time>
      </trkpt>
      <trkpt lat="44.22867" lon="5.85802">
        <ele>522.3</ele>
        <time>2021-09-08T14:45:52Z</time>
      </trkpt>
      <trkpt lat="44.22864" lon="5.85804">
        <ele>522.4</ele>
        <time>2021-09-08T14:45:53Z</time>
      </trkpt>
      <trkpt lat="44.22861" lon="5.85806">
        <ele>522.4</ele>
        <time>2021-09-08T14:45:54Z</time>
      </trkpt>
      <trkpt lat="44.22857" lon="5.85809">
        <ele>522.4</ele>
        <time>2021-09-08T14:45:55Z</time>
      </trkpt>
      <trkpt lat="44.22853" lon="5.85811">
        <ele>522.4</ele>
        <time>2021-09-08T14:45:56Z</time>
      </trkpt>
      <trkpt lat="44.2285" lon="5.85812">
        <ele>522.3</ele>
        <time>2021-09-08T14:45:57Z</time>
      </trkpt>
      <trkpt lat="44.22845" lon="5.85814">
        <ele>522.3</ele>
        <time>2021-09-08T14:45:59Z</time>
      </trkpt>
      <trkpt lat="44.22841" lon="5.85815">
        <ele>522.3</ele>
        <time>2021-09-08T14:46:00Z</time>
      </trkpt>
      <trkpt lat="44.22838" lon="5.85817">
        <ele>522.3</ele>
        <time>2021-09-08T14:46:01Z</time>
      </trkpt>
      <trkpt lat="44.22836" lon="5.85819">
        <ele>522.3</ele>
        <time>2021-09-08T14:46:02Z</time>
      </trkpt>
      <trkpt lat="44.2283" lon="5.85825">
        <ele>522.3</ele>
        <time>2021-09-08T14:46:04Z</time>
      </trkpt>
      <trkpt lat="44.22827" lon="5.85828">
        <ele>522.2</ele>
        <time>2021-09-08T14:46:05Z</time>
      </trkpt>
      <trkpt lat="44.22824" lon="5.85831">
        <ele>522.2</ele>
        <time>2021-09-08T14:46:06Z</time>
      </trkpt>
      <trkpt lat="44.22819" lon="5.85838">
        <ele>522.2</ele>
        <time>2021-09-08T14:46:08Z</time>
      </trkpt>
      <trkpt lat="44.22812" lon="5.85842">
        <ele>522.1</ele>
        <time>2021-09-08T14:46:10Z</time>
      </trkpt>
      <trkpt lat="44.22807" lon="5.85846">
        <ele>522.1</ele>
        <time>2021-09-08T14:46:11Z</time>
      </trkpt>
      <trkpt lat="44.22803" lon="5.85848">
        <ele>522.1</ele>
        <time>2021-09-08T14:46:12Z</time>
      </trkpt>
      <trkpt lat="44.22796" lon="5.8585">
        <ele>522</ele>
        <time>2021-09-08T14:46:13Z</time>
      </trkpt>
      <trkpt lat="44.22791" lon="5.85853">
        <ele>522</ele>
        <time>2021-09-08T14:46:14Z</time>
      </trkpt>
      <trkpt lat="44.22779" lon="5.85858">
        <ele>521.9</ele>
        <time>2021-09-08T14:46:16Z</time>
      </trkpt>
      <trkpt lat="44.22773" lon="5.8586">
        <ele>521.9</ele>
        <time>2021-09-08T14:46:17Z</time>
      </trkpt>
      <trkpt lat="44.22762" lon="5.85864">
        <ele>521.8</ele>
        <time>2021-09-08T14:46:19Z</time>
      </trkpt>
      <trkpt lat="44.22756" lon="5.85866">
        <ele>521.8</ele>
        <time>2021-09-08T14:46:20Z</time>
      </trkpt>
      <trkpt lat="44.22751" lon="5.85868">
        <ele>521.7</ele>
        <time>2021-09-08T14:46:21Z</time>
      </trkpt>
      <trkpt lat="44.2274" lon="5.85872">
        <ele>521.6</ele>
        <time>2021-09-08T14:46:23Z</time>
      </trkpt>
      <trkpt lat="44.22735" lon="5.85875">
        <ele>521.6</ele>
        <time>2021-09-08T14:46:24Z</time>
      </trkpt>
      <trkpt lat="44.22725" lon="5.85879">
        <ele>521.5</ele>
        <time>2021-09-08T14:46:26Z</time>
      </trkpt>
      <trkpt lat="44.22715" lon="5.85882">
        <ele>521.5</ele>
        <time>2021-09-08T14:46:28Z</time>
      </trkpt>
      <trkpt lat="44.2271" lon="5.85883">
        <ele>521.4</ele>
        <time>2021-09-08T14:46:29Z</time>
      </trkpt>
      <trkpt lat="44.22701" lon="5.85886">
        <ele>521.4</ele>
        <time>2021-09-08T14:46:31Z</time>
      </trkpt>
      <trkpt lat="44.22691" lon="5.85891">
        <ele>521.3</ele>
        <time>2021-09-08T14:46:33Z</time>
      </trkpt>
      <trkpt lat="44.22686" lon="5.85893">
        <ele>521.3</ele>
        <time>2021-09-08T14:46:34Z</time>
      </trkpt>
      <trkpt lat="44.22681" lon="5.85895">
        <ele>521.2</ele>
        <time>2021-09-08T14:46:35Z</time>
      </trkpt>
      <trkpt lat="44.22677" lon="5.85897">
        <ele>521.2</ele>
        <time>2021-09-08T14:46:36Z</time>
      </trkpt>
      <trkpt lat="44.22668" lon="5.859">
        <ele>521.2</ele>
        <time>2021-09-08T14:46:38Z</time>
      </trkpt>
      <trkpt lat="44.22663" lon="5.85902">
        <ele>521.1</ele>
        <time>2021-09-08T14:46:39Z</time>
      </trkpt>
      <trkpt lat="44.22659" lon="5.85905">
        <ele>521.1</ele>
        <time>2021-09-08T14:46:40Z</time>
      </trkpt>
      <trkpt lat="44.22648" lon="5.85911">
        <ele>521.1</ele>
        <time>2021-09-08T14:46:42Z</time>
      </trkpt>
      <trkpt lat="44.22638" lon="5.85917">
        <ele>521</ele>
        <time>2021-09-08T14:46:44Z</time>
      </trkpt>
      <trkpt lat="44.22627" lon="5.85922">
        <ele>521</ele>
        <time>2021-09-08T14:46:46Z</time>
      </trkpt>
      <trkpt lat="44.22617" lon="5.85927">
        <ele>520.9</ele>
        <time>2021-09-08T14:46:48Z</time>
      </trkpt>
      <trkpt lat="44.22611" lon="5.85929">
        <ele>520.9</ele>
        <time>2021-09-08T14:46:49Z</time>
      </trkpt>
      <trkpt lat="44.22606" lon="5.85932">
        <ele>520.9</ele>
        <time>2021-09-08T14:46:50Z</time>
      </trkpt>
      <trkpt lat="44.22594" lon="5.85937">
        <ele>520.8</ele>
        <time>2021-09-08T14:46:52Z</time>
      </trkpt>
      <trkpt lat="44.22588" lon="5.8594">
        <ele>520.8</ele>
        <time>2021-09-08T14:46:53Z</time>
      </trkpt>
      <trkpt lat="44.22578" lon="5.85946">
        <ele>520.7</ele>
        <time>2021-09-08T14:46:55Z</time>
      </trkpt>
      <trkpt lat="44.22573" lon="5.85948">
        <ele>520.7</ele>
        <time>2021-09-08T14:46:56Z</time>
      </trkpt>
      <trkpt lat="44.22564" lon="5.85953">
        <ele>520.6</ele>
        <time>2021-09-08T14:46:58Z</time>
      </trkpt>
      <trkpt lat="44.22559" lon="5.85956">
        <ele>520.6</ele>
        <time>2021-09-08T14:46:59Z</time>
      </trkpt>
      <trkpt lat="44.22554" lon="5.85958">
        <ele>520.6</ele>
        <time>2021-09-08T14:47:00Z</time>
      </trkpt>
      <trkpt lat="44.22545" lon="5.85963">
        <ele>520.6</ele>
        <time>2021-09-08T14:47:02Z</time>
      </trkpt>
      <trkpt lat="44.22536" lon="5.85967">
        <ele>520.6</ele>
        <time>2021-09-08T14:47:04Z</time>
      </trkpt>
      <trkpt lat="44.22531" lon="5.85969">
        <ele>520.6</ele>
        <time>2021-09-08T14:47:05Z</time>
      </trkpt>
      <trkpt lat="44.22522" lon="5.85972">
        <ele>520.6</ele>
        <time>2021-09-08T14:47:07Z</time>
      </trkpt>
      <trkpt lat="44.22516" lon="5.85975">
        <ele>520.6</ele>
        <time>2021-09-08T14:47:08Z</time>
      </trkpt>
      <trkpt lat="44.22506" lon="5.8598">
        <ele>520.5</ele>
        <time>2021-09-08T14:47:10Z</time>
      </trkpt>
      <trkpt lat="44.22502" lon="5.85983">
        <ele>520.5</ele>
        <time>2021-09-08T14:47:11Z</time>
      </trkpt>
      <trkpt lat="44.22498" lon="5.85985">
        <ele>520.5</ele>
        <time>2021-09-08T14:47:12Z</time>
      </trkpt>
      <trkpt lat="44.22493" lon="5.85988">
        <ele>520.4</ele>
        <time>2021-09-08T14:47:13Z</time>
      </trkpt>
      <trkpt lat="44.22486" lon="5.85991">
        <ele>520.4</ele>
        <time>2021-09-08T14:47:15Z</time>
      </trkpt>
      <trkpt lat="44.22477" lon="5.85995">
        <ele>520.3</ele>
        <time>2021-09-08T14:47:17Z</time>
      </trkpt>
      <trkpt lat="44.22472" lon="5.85998">
        <ele>520.3</ele>
        <time>2021-09-08T14:47:18Z</time>
      </trkpt>
      <trkpt lat="44.22468" lon="5.86001">
        <ele>520.3</ele>
        <time>2021-09-08T14:47:19Z</time>
      </trkpt>
      <trkpt lat="44.22464" lon="5.86004">
        <ele>520.3</ele>
        <time>2021-09-08T14:47:20Z</time>
      </trkpt>
      <trkpt lat="44.22462" lon="5.85999">
        <ele>520.3</ele>
        <time>2021-09-08T14:47:22Z</time>
      </trkpt>
      <trkpt lat="44.22453" lon="5.86008">
        <ele>520.2</ele>
        <time>2021-09-08T14:47:23Z</time>
      </trkpt>
      <trkpt lat="44.22447" lon="5.86013">
        <ele>520.2</ele>
        <time>2021-09-08T14:47:24Z</time>
      </trkpt>
      <trkpt lat="44.22441" lon="5.86016">
        <ele>520.2</ele>
        <time>2021-09-08T14:47:25Z</time>
      </trkpt>
      <trkpt lat="44.22436" lon="5.86018">
        <ele>520.2</ele>
        <time>2021-09-08T14:47:26Z</time>
      </trkpt>
      <trkpt lat="44.22426" lon="5.86024">
        <ele>520.1</ele>
        <time>2021-09-08T14:47:28Z</time>
      </trkpt>
      <trkpt lat="44.22416" lon="5.86031">
        <ele>520</ele>
        <time>2021-09-08T14:47:30Z</time>
      </trkpt>
      <trkpt lat="44.22412" lon="5.86034">
        <ele>520</ele>
        <time>2021-09-08T14:47:31Z</time>
      </trkpt>
      <trkpt lat="44.22403" lon="5.86039">
        <ele>519.9</ele>
        <time>2021-09-08T14:47:33Z</time>
      </trkpt>
      <trkpt lat="44.224" lon="5.86041">
        <ele>519.9</ele>
        <time>2021-09-08T14:47:34Z</time>
      </trkpt>
      <trkpt lat="44.22395" lon="5.86043">
        <ele>519.9</ele>
        <time>2021-09-08T14:47:35Z</time>
      </trkpt>
      <trkpt lat="44.22386" lon="5.86047">
        <ele>519.8</ele>
        <time>2021-09-08T14:47:37Z</time>
      </trkpt>
      <trkpt lat="44.22381" lon="5.86049">
        <ele>519.8</ele>
        <time>2021-09-08T14:47:38Z</time>
      </trkpt>
      <trkpt lat="44.2238" lon="5.86049">
        <ele>519.8</ele>
        <time>2021-09-08T14:47:39Z</time>
      </trkpt>
      <trkpt lat="44.22371" lon="5.86053">
        <ele>519.7</ele>
        <time>2021-09-08T14:47:41Z</time>
      </trkpt>
      <trkpt lat="44.22361" lon="5.86057">
        <ele>519.7</ele>
        <time>2021-09-08T14:47:43Z</time>
      </trkpt>
      <trkpt lat="44.22356" lon="5.86059">
        <ele>519.7</ele>
        <time>2021-09-08T14:47:44Z</time>
      </trkpt>
      <trkpt lat="44.22346" lon="5.86063">
        <ele>519.6</ele>
        <time>2021-09-08T14:47:46Z</time>
      </trkpt>
      <trkpt lat="44.22341" lon="5.86065">
        <ele>519.5</ele>
        <time>2021-09-08T14:47:47Z</time>
      </trkpt>
      <trkpt lat="44.22337" lon="5.86067">
        <ele>519.5</ele>
        <time>2021-09-08T14:47:48Z</time>
      </trkpt>
      <trkpt lat="44.22333" lon="5.86069">
        <ele>519.4</ele>
        <time>2021-09-08T14:47:49Z</time>
      </trkpt>
      <trkpt lat="44.22324" lon="5.86073">
        <ele>519.3</ele>
        <time>2021-09-08T14:47:51Z</time>
      </trkpt>
      <trkpt lat="44.2232" lon="5.86076">
        <ele>519.3</ele>
        <time>2021-09-08T14:47:52Z</time>
      </trkpt>
      <trkpt lat="44.22311" lon="5.86081">
        <ele>519.3</ele>
        <time>2021-09-08T14:47:54Z</time>
      </trkpt>
      <trkpt lat="44.22306" lon="5.86084">
        <ele>519.2</ele>
        <time>2021-09-08T14:47:55Z</time>
      </trkpt>
      <trkpt lat="44.22302" lon="5.86087">
        <ele>519.2</ele>
        <time>2021-09-08T14:47:56Z</time>
      </trkpt>
      <trkpt lat="44.22293" lon="5.86092">
        <ele>519.2</ele>
        <time>2021-09-08T14:47:58Z</time>
      </trkpt>
      <trkpt lat="44.22288" lon="5.86094">
        <ele>519.2</ele>
        <time>2021-09-08T14:47:59Z</time>
      </trkpt>
      <trkpt lat="44.22282" lon="5.86096">
        <ele>519.2</ele>
        <time>2021-09-08T14:48:01Z</time>
      </trkpt>
      <trkpt lat="44.22274" lon="5.86099">
        <ele>519.2</ele>
        <time>2021-09-08T14:48:03Z</time>
      </trkpt>
      <trkpt lat="44.22266" lon="5.86103">
        <ele>519.2</ele>
        <time>2021-09-08T14:48:05Z</time>
      </trkpt>
      <trkpt lat="44.22262" lon="5.86107">
        <ele>519.1</ele>
        <time>2021-09-08T14:48:06Z</time>
      </trkpt>
      <trkpt lat="44.2226" lon="5.86111">
        <ele>519</ele>
        <time>2021-09-08T14:48:07Z</time>
      </trkpt>
      <trkpt lat="44.2226" lon="5.86115">
        <ele>518.9</ele>
        <time>2021-09-08T14:48:08Z</time>
      </trkpt>
      <trkpt lat="44.2226" lon="5.8612">
        <ele>518.8</ele>
        <time>2021-09-08T14:48:10Z</time>
      </trkpt>
      <trkpt lat="44.22261" lon="5.86122">
        <ele>518.7</ele>
        <time>2021-09-08T14:48:11Z</time>
      </trkpt>
      <trkpt lat="44.2226" lon="5.86127">
        <ele>518.6</ele>
        <time>2021-09-08T14:48:12Z</time>
      </trkpt>
      <trkpt lat="44.22262" lon="5.86134">
        <ele>518.4</ele>
        <time>2021-09-08T14:48:14Z</time>
      </trkpt>
      <trkpt lat="44.22263" lon="5.8614">
        <ele>518.3</ele>
        <time>2021-09-08T14:48:15Z</time>
      </trkpt>
      <trkpt lat="44.22264" lon="5.86146">
        <ele>518.1</ele>
        <time>2021-09-08T14:48:16Z</time>
      </trkpt>
      <trkpt lat="44.22263" lon="5.86154">
        <ele>517.9</ele>
        <time>2021-09-08T14:48:18Z</time>
      </trkpt>
      <trkpt lat="44.22262" lon="5.86164">
        <ele>517.5</ele>
        <time>2021-09-08T14:48:20Z</time>
      </trkpt>
      <trkpt lat="44.22262" lon="5.86169">
        <ele>517.4</ele>
        <time>2021-09-08T14:48:21Z</time>
      </trkpt>
      <trkpt lat="44.22263" lon="5.86177">
        <ele>517.1</ele>
        <time>2021-09-08T14:48:23Z</time>
      </trkpt>
      <trkpt lat="44.22263" lon="5.8618">
        <ele>517</ele>
        <time>2021-09-08T14:48:24Z</time>
      </trkpt>
      <trkpt lat="44.22263" lon="5.86182">
        <ele>516.9</ele>
        <time>2021-09-08T14:48:26Z</time>
      </trkpt>
      <trkpt lat="44.22263" lon="5.86181">
        <ele>516.9</ele>
        <time>2021-09-08T14:48:27Z</time>
      </trkpt>
      <trkpt lat="44.2226" lon="5.86179">
        <ele>517.1</ele>
        <time>2021-09-08T14:48:28Z</time>
      </trkpt>
      <trkpt lat="44.22259" lon="5.86173">
        <ele>517.3</ele>
        <time>2021-09-08T14:48:30Z</time>
      </trkpt>
      <trkpt lat="44.22259" lon="5.86171">
        <ele>517.4</ele>
        <time>2021-09-08T14:48:31Z</time>
      </trkpt>
      <trkpt lat="44.22259" lon="5.86169">
        <ele>517.4</ele>
        <time>2021-09-08T14:48:32Z</time>
      </trkpt>
      <trkpt lat="44.22259" lon="5.86166">
        <ele>517.5</ele>
        <time>2021-09-08T14:48:34Z</time>
      </trkpt>
      <trkpt lat="44.2226" lon="5.86164">
        <ele>517.6</ele>
        <time>2021-09-08T14:48:35Z</time>
      </trkpt>
      <trkpt lat="44.2226" lon="5.86162">
        <ele>517.7</ele>
        <time>2021-09-08T14:48:36Z</time>
      </trkpt>
      <trkpt lat="44.2226" lon="5.8616">
        <ele>517.7</ele>
        <time>2021-09-08T14:48:37Z</time>
      </trkpt>
      <trkpt lat="44.2226" lon="5.86157">
        <ele>517.8</ele>
        <time>2021-09-08T14:48:39Z</time>
      </trkpt>
      <trkpt lat="44.2226" lon="5.86155">
        <ele>517.9</ele>
        <time>2021-09-08T14:48:40Z</time>
      </trkpt>
      <trkpt lat="44.2226" lon="5.86153">
        <ele>517.9</ele>
        <time>2021-09-08T14:48:58Z</time>
      </trkpt>
      <trkpt lat="44.2226" lon="5.8615">
        <ele>518</ele>
        <time>2021-09-08T14:48:59Z</time>
      </trkpt>
      <trkpt lat="44.22261" lon="5.86143">
        <ele>518.2</ele>
        <time>2021-09-08T14:49:01Z</time>
      </trkpt>
      <trkpt lat="44.22261" lon="5.86134">
        <ele>518.4</ele>
        <time>2021-09-08T14:49:02Z</time>
      </trkpt>
      <trkpt lat="44.22261" lon="5.86124">
        <ele>518.7</ele>
        <time>2021-09-08T14:49:04Z</time>
      </trkpt>
      <trkpt lat="44.22259" lon="5.86119">
        <ele>518.8</ele>
        <time>2021-09-08T14:49:05Z</time>
      </trkpt>
      <trkpt lat="44.22256" lon="5.86116">
        <ele>519.1</ele>
        <time>2021-09-08T14:49:06Z</time>
      </trkpt>
      <trkpt lat="44.22255" lon="5.86116">
        <ele>519.1</ele>
        <time>2021-09-08T14:49:07Z</time>
      </trkpt>
      <trkpt lat="44.2225" lon="5.86115">
        <ele>519</ele>
        <time>2021-09-08T14:49:08Z</time>
      </trkpt>
      <trkpt lat="44.22246" lon="5.86115">
        <ele>519</ele>
        <time>2021-09-08T14:49:09Z</time>
      </trkpt>
      <trkpt lat="44.22242" lon="5.86116">
        <ele>519</ele>
        <time>2021-09-08T14:49:11Z</time>
      </trkpt>
      <trkpt lat="44.22238" lon="5.86117">
        <ele>518.9</ele>
        <time>2021-09-08T14:49:12Z</time>
      </trkpt>
      <trkpt lat="44.22234" lon="5.86119">
        <ele>518.9</ele>
        <time>2021-09-08T14:49:13Z</time>
      </trkpt>
      <trkpt lat="44.22229" lon="5.8612">
        <ele>518.8</ele>
        <time>2021-09-08T14:49:14Z</time>
      </trkpt>
      <trkpt lat="44.22225" lon="5.86122">
        <ele>518.8</ele>
        <time>2021-09-08T14:49:15Z</time>
      </trkpt>
      <trkpt lat="44.2222" lon="5.86126">
        <ele>518.7</ele>
        <time>2021-09-08T14:49:16Z</time>
      </trkpt>
      <trkpt lat="44.22216" lon="5.86128">
        <ele>518.7</ele>
        <time>2021-09-08T14:49:17Z</time>
      </trkpt>
      <trkpt lat="44.22206" lon="5.86132">
        <ele>518.6</ele>
        <time>2021-09-08T14:49:19Z</time>
      </trkpt>
      <trkpt lat="44.22197" lon="5.86138">
        <ele>518.5</ele>
        <time>2021-09-08T14:49:21Z</time>
      </trkpt>
      <trkpt lat="44.22193" lon="5.86141">
        <ele>518.5</ele>
        <time>2021-09-08T14:49:22Z</time>
      </trkpt>
      <trkpt lat="44.22187" lon="5.86144">
        <ele>518.5</ele>
        <time>2021-09-08T14:49:24Z</time>
      </trkpt>
      <trkpt lat="44.22176" lon="5.8615">
        <ele>518.4</ele>
        <time>2021-09-08T14:49:26Z</time>
      </trkpt>
      <trkpt lat="44.22166" lon="5.86152">
        <ele>518.3</ele>
        <time>2021-09-08T14:49:28Z</time>
      </trkpt>
      <trkpt lat="44.22162" lon="5.86153">
        <ele>518.2</ele>
        <time>2021-09-08T14:49:29Z</time>
      </trkpt>
      <trkpt lat="44.22159" lon="5.86157">
        <ele>518.2</ele>
        <time>2021-09-08T14:49:30Z</time>
      </trkpt>
      <trkpt lat="44.22153" lon="5.86162">
        <ele>518.1</ele>
        <time>2021-09-08T14:49:32Z</time>
      </trkpt>
      <trkpt lat="44.22146" lon="5.86161">
        <ele>518.1</ele>
        <time>2021-09-08T14:49:33Z</time>
      </trkpt>
      <trkpt lat="44.22139" lon="5.86159">
        <ele>518.1</ele>
        <time>2021-09-08T14:49:35Z</time>
      </trkpt>
      <trkpt lat="44.22135" lon="5.86162">
        <ele>518</ele>
        <time>2021-09-08T14:49:36Z</time>
      </trkpt>
      <trkpt lat="44.22129" lon="5.86167">
        <ele>518</ele>
        <time>2021-09-08T14:49:37Z</time>
      </trkpt>
      <trkpt lat="44.22123" lon="5.8617">
        <ele>518</ele>
        <time>2021-09-08T14:49:39Z</time>
      </trkpt>
      <trkpt lat="44.22118" lon="5.86172">
        <ele>517.9</ele>
        <time>2021-09-08T14:49:40Z</time>
      </trkpt>
      <trkpt lat="44.22112" lon="5.86175">
        <ele>517.9</ele>
        <time>2021-09-08T14:49:41Z</time>
      </trkpt>
      <trkpt lat="44.22108" lon="5.86178">
        <ele>517.8</ele>
        <time>2021-09-08T14:49:42Z</time>
      </trkpt>
      <trkpt lat="44.22105" lon="5.86183">
        <ele>517.8</ele>
        <time>2021-09-08T14:49:43Z</time>
      </trkpt>
      <trkpt lat="44.22097" lon="5.86188">
        <ele>517.7</ele>
        <time>2021-09-08T14:49:45Z</time>
      </trkpt>
      <trkpt lat="44.22092" lon="5.86192">
        <ele>517.6</ele>
        <time>2021-09-08T14:49:46Z</time>
      </trkpt>
      <trkpt lat="44.22089" lon="5.86197">
        <ele>517.5</ele>
        <time>2021-09-08T14:49:48Z</time>
      </trkpt>
      <trkpt lat="44.22087" lon="5.86202">
        <ele>517.3</ele>
        <time>2021-09-08T14:49:49Z</time>
      </trkpt>
      <trkpt lat="44.22086" lon="5.86208">
        <ele>517.3</ele>
        <time>2021-09-08T14:49:50Z</time>
      </trkpt>
      <trkpt lat="44.22088" lon="5.86217">
        <ele>517.3</ele>
        <time>2021-09-08T14:49:52Z</time>
      </trkpt>
      <trkpt lat="44.22094" lon="5.86226">
        <ele>517.4</ele>
        <time>2021-09-08T14:49:53Z</time>
      </trkpt>
      <trkpt lat="44.22099" lon="5.86239">
        <ele>517.4</ele>
        <time>2021-09-08T14:49:55Z</time>
      </trkpt>
      <trkpt lat="44.221" lon="5.86246">
        <ele>517.4</ele>
        <time>2021-09-08T14:49:56Z</time>
      </trkpt>
      <trkpt lat="44.22099" lon="5.86252">
        <ele>517.3</ele>
        <time>2021-09-08T14:49:57Z</time>
      </trkpt>
      <trkpt lat="44.221" lon="5.86266">
        <ele>517.4</ele>
        <time>2021-09-08T14:49:59Z</time>
      </trkpt>
      <trkpt lat="44.22105" lon="5.86282">
        <ele>517.3</ele>
        <time>2021-09-08T14:50:01Z</time>
      </trkpt>
      <trkpt lat="44.22107" lon="5.86288">
        <ele>517.3</ele>
        <time>2021-09-08T14:50:02Z</time>
      </trkpt>
      <trkpt lat="44.22113" lon="5.863">
        <ele>517.3</ele>
        <time>2021-09-08T14:50:04Z</time>
      </trkpt>
      <trkpt lat="44.22116" lon="5.86306">
        <ele>517.2</ele>
        <time>2021-09-08T14:50:05Z</time>
      </trkpt>
      <trkpt lat="44.2212" lon="5.86312">
        <ele>517.2</ele>
        <time>2021-09-08T14:50:06Z</time>
      </trkpt>
      <trkpt lat="44.22125" lon="5.86324">
        <ele>517.1</ele>
        <time>2021-09-08T14:50:08Z</time>
      </trkpt>
      <trkpt lat="44.22127" lon="5.8633">
        <ele>517</ele>
        <time>2021-09-08T14:50:09Z</time>
      </trkpt>
      <trkpt lat="44.2213" lon="5.86339">
        <ele>516.9</ele>
        <time>2021-09-08T14:50:11Z</time>
      </trkpt>
      <trkpt lat="44.2213" lon="5.86342">
        <ele>516.8</ele>
        <time>2021-09-08T14:50:12Z</time>
      </trkpt>
      <trkpt lat="44.2213" lon="5.8635">
        <ele>516.6</ele>
        <time>2021-09-08T14:50:14Z</time>
      </trkpt>
      <trkpt lat="44.22128" lon="5.86354">
        <ele>516.5</ele>
        <time>2021-09-08T14:50:15Z</time>
      </trkpt>
      <trkpt lat="44.22128" lon="5.86355">
        <ele>516.5</ele>
        <time>2021-09-08T14:50:16Z</time>
      </trkpt>
      <trkpt lat="44.22127" lon="5.86359">
        <ele>516.3</ele>
        <time>2021-09-08T14:50:18Z</time>
      </trkpt>
      <trkpt lat="44.22126" lon="5.86363">
        <ele>516.2</ele>
        <time>2021-09-08T14:50:20Z</time>
      </trkpt>
      <trkpt lat="44.22125" lon="5.86362">
        <ele>516.2</ele>
        <time>2021-09-08T14:50:22Z</time>
      </trkpt>
      <trkpt lat="44.22125" lon="5.86362">
        <ele>516.2</ele>
        <time>2021-09-08T14:50:24Z</time>
      </trkpt>
      <trkpt lat="44.22125" lon="5.86362">
        <ele>516.2</ele>
        <time>2021-09-08T14:50:26Z</time>
      </trkpt>
      <trkpt lat="44.22125" lon="5.86363">
        <ele>516.2</ele>
        <time>2021-09-08T14:50:28Z</time>
      </trkpt>
      <trkpt lat="44.22114" lon="5.86373">
        <ele>515.8</ele>
        <time>2021-09-08T14:53:54Z</time>
      </trkpt>
      <trkpt lat="44.2211" lon="5.86364">
        <ele>516.1</ele>
        <time>2021-09-08T14:53:56Z</time>
      </trkpt>
      <trkpt lat="44.22105" lon="5.86354">
        <ele>516.3</ele>
        <time>2021-09-08T14:53:58Z</time>
      </trkpt>
      <trkpt lat="44.22102" lon="5.86348">
        <ele>516.4</ele>
        <time>2021-09-08T14:53:59Z</time>
      </trkpt>
      <trkpt lat="44.22098" lon="5.86341">
        <ele>516.4</ele>
        <time>2021-09-08T14:54:01Z</time>
      </trkpt>
      <trkpt lat="44.22096" lon="5.86339">
        <ele>516.4</ele>
        <time>2021-09-08T14:54:02Z</time>
      </trkpt>
      <trkpt lat="44.22094" lon="5.86336">
        <ele>516.3</ele>
        <time>2021-09-08T14:54:04Z</time>
      </trkpt>
      <trkpt lat="44.22093" lon="5.86335">
        <ele>516.4</ele>
        <time>2021-09-08T14:54:05Z</time>
      </trkpt>
      <trkpt lat="44.22094" lon="5.86333">
        <ele>516.4</ele>
        <time>2021-09-08T14:54:07Z</time>
      </trkpt>
      <trkpt lat="44.22094" lon="5.86333">
        <ele>516.4</ele>
        <time>2021-09-08T14:54:09Z</time>
      </trkpt>
      <trkpt lat="44.22105" lon="5.8638">
        <ele>515.6</ele>
        <time>2021-09-08T15:01:22Z</time>
      </trkpt>
      <trkpt lat="44.22103" lon="5.86382">
        <ele>515.6</ele>
        <time>2021-09-08T15:01:23Z</time>
      </trkpt>
      <trkpt lat="44.22099" lon="5.86386">
        <ele>515.5</ele>
        <time>2021-09-08T15:01:25Z</time>
      </trkpt>
      <trkpt lat="44.22095" lon="5.86389">
        <ele>515.3</ele>
        <time>2021-09-08T15:01:26Z</time>
      </trkpt>
      <trkpt lat="44.22091" lon="5.86395">
        <ele>515.2</ele>
        <time>2021-09-08T15:01:28Z</time>
      </trkpt>
      <trkpt lat="44.22089" lon="5.86398">
        <ele>515</ele>
        <time>2021-09-08T15:01:29Z</time>
      </trkpt>
      <trkpt lat="44.22085" lon="5.86401">
        <ele>514.8</ele>
        <time>2021-09-08T15:01:31Z</time>
      </trkpt>
      <trkpt lat="44.22082" lon="5.86404">
        <ele>514.6</ele>
        <time>2021-09-08T15:01:32Z</time>
      </trkpt>
      <trkpt lat="44.22079" lon="5.86409">
        <ele>514.4</ele>
        <time>2021-09-08T15:01:34Z</time>
      </trkpt>
      <trkpt lat="44.22078" lon="5.86414">
        <ele>514.2</ele>
        <time>2021-09-08T15:01:35Z</time>
      </trkpt>
      <trkpt lat="44.22078" lon="5.86419">
        <ele>513.9</ele>
        <time>2021-09-08T15:01:36Z</time>
      </trkpt>
      <trkpt lat="44.22079" lon="5.86425">
        <ele>513.4</ele>
        <time>2021-09-08T15:01:38Z</time>
      </trkpt>
      <trkpt lat="44.22082" lon="5.86429">
        <ele>513.3</ele>
        <time>2021-09-08T15:01:40Z</time>
      </trkpt>
      <trkpt lat="44.22083" lon="5.86431">
        <ele>513</ele>
        <time>2021-09-08T15:01:41Z</time>
      </trkpt>
      <trkpt lat="44.22084" lon="5.86433">
        <ele>513</ele>
        <time>2021-09-08T15:01:42Z</time>
      </trkpt>
      <trkpt lat="44.22084" lon="5.86435">
        <ele>512.7</ele>
        <time>2021-09-08T15:01:43Z</time>
      </trkpt>
      <trkpt lat="44.22086" lon="5.86438">
        <ele>512.6</ele>
        <time>2021-09-08T15:01:45Z</time>
      </trkpt>
      <trkpt lat="44.22087" lon="5.8644">
        <ele>512.3</ele>
        <time>2021-09-08T15:01:46Z</time>
      </trkpt>
      <trkpt lat="44.22087" lon="5.86442">
        <ele>512.3</ele>
        <time>2021-09-08T15:01:48Z</time>
      </trkpt>
      <trkpt lat="44.22087" lon="5.86444">
        <ele>511.9</ele>
        <time>2021-09-08T15:01:49Z</time>
      </trkpt>
      <trkpt lat="44.22087" lon="5.86445">
        <ele>511.9</ele>
        <time>2021-09-08T15:01:50Z</time>
      </trkpt>
      <trkpt lat="44.22087" lon="5.86442">
        <ele>512.3</ele>
        <time>2021-09-08T15:01:52Z</time>
      </trkpt>
      <trkpt lat="44.22088" lon="5.86441">
        <ele>512.2</ele>
        <time>2021-09-08T15:01:54Z</time>
      </trkpt>
      <trkpt lat="44.22088" lon="5.86441">
        <ele>512.2</ele>
        <time>2021-09-08T15:01:55Z</time>
      </trkpt>
      <trkpt lat="44.22088" lon="5.86442">
        <ele>512.2</ele>
        <time>2021-09-08T15:01:57Z</time>
      </trkpt>
      <trkpt lat="44.22088" lon="5.86442">
        <ele>512.2</ele>
        <time>2021-09-08T15:01:58Z</time>
      </trkpt>
      <trkpt lat="44.22088" lon="5.86442">
        <ele>512.2</ele>
        <time>2021-09-08T15:01:59Z</time>
      </trkpt>
      <trkpt lat="44.22211" lon="5.86234">
        <ele>516</ele>
        <time>2021-09-09T08:57:01Z</time>
      </trkpt>
      <trkpt lat="44.22211" lon="5.86234">
        <ele>516</ele>
        <time>2021-09-09T08:57:01Z</time>
      </trkpt>
      <trkpt lat="44.22212" lon="5.86234">
        <ele>516</ele>
        <time>2021-09-09T08:57:02Z</time>
      </trkpt>
      <trkpt lat="44.22208" lon="5.86244">
        <ele>516.2</ele>
        <time>2021-09-09T08:57:05Z</time>
      </trkpt>
      <trkpt lat="44.22225" lon="5.86202">
        <ele>517.1</ele>
        <time>2021-09-09T08:57:07Z</time>
      </trkpt>
      <trkpt lat="44.22253" lon="5.86146">
        <ele>518.3</ele>
        <time>2021-09-09T08:57:08Z</time>
      </trkpt>
      <trkpt lat="44.22261" lon="5.86132">
        <ele>518.6</ele>
        <time>2021-09-09T08:57:10Z</time>
      </trkpt>
      <trkpt lat="44.22265" lon="5.86126">
        <ele>518.7</ele>
        <time>2021-09-09T08:57:11Z</time>
      </trkpt>
      <trkpt lat="44.22264" lon="5.86126">
        <ele>518.7</ele>
        <time>2021-09-09T08:57:12Z</time>
      </trkpt>
      <trkpt lat="44.22264" lon="5.86126">
        <ele>518.7</ele>
        <time>2021-09-09T08:57:14Z</time>
      </trkpt>
      <trkpt lat="44.22266" lon="5.86124">
        <ele>518.7</ele>
        <time>2021-09-09T08:57:15Z</time>
      </trkpt>
      <trkpt lat="44.22268" lon="5.86124">
        <ele>518.8</ele>
        <time>2021-09-09T08:57:17Z</time>
      </trkpt>
      <trkpt lat="44.22269" lon="5.86122">
        <ele>518.8</ele>
        <time>2021-09-09T08:57:18Z</time>
      </trkpt>
      <trkpt lat="44.2227" lon="5.86121">
        <ele>518.8</ele>
        <time>2021-09-09T08:57:20Z</time>
      </trkpt>
      <trkpt lat="44.22272" lon="5.8612">
        <ele>518.9</ele>
        <time>2021-09-09T08:57:21Z</time>
      </trkpt>
      <trkpt lat="44.22273" lon="5.86119">
        <ele>518.9</ele>
        <time>2021-09-09T08:57:23Z</time>
      </trkpt>
      <trkpt lat="44.22275" lon="5.86119">
        <ele>518.9</ele>
        <time>2021-09-09T08:57:24Z</time>
      </trkpt>
      <trkpt lat="44.22275" lon="5.86118">
        <ele>518.9</ele>
        <time>2021-09-09T08:57:25Z</time>
      </trkpt>
      <trkpt lat="44.22274" lon="5.86112">
        <ele>519</ele>
        <time>2021-09-09T08:57:27Z</time>
      </trkpt>
      <trkpt lat="44.22273" lon="5.86109">
        <ele>519.1</ele>
        <time>2021-09-09T08:57:28Z</time>
      </trkpt>
      <trkpt lat="44.22271" lon="5.86104">
        <ele>519.1</ele>
        <time>2021-09-09T08:57:30Z</time>
      </trkpt>
      <trkpt lat="44.2227" lon="5.861">
        <ele>519.2</ele>
        <time>2021-09-09T08:57:31Z</time>
      </trkpt>
      <trkpt lat="44.22268" lon="5.86095">
        <ele>519.2</ele>
        <time>2021-09-09T08:57:32Z</time>
      </trkpt>
      <trkpt lat="44.22267" lon="5.86091">
        <ele>519.3</ele>
        <time>2021-09-09T08:57:33Z</time>
      </trkpt>
      <trkpt lat="44.22266" lon="5.86085">
        <ele>519.3</ele>
        <time>2021-09-09T08:57:35Z</time>
      </trkpt>
      <trkpt lat="44.22265" lon="5.8608">
        <ele>519.4</ele>
        <time>2021-09-09T08:57:36Z</time>
      </trkpt>
      <trkpt lat="44.22264" lon="5.86076">
        <ele>519.4</ele>
        <time>2021-09-09T08:57:37Z</time>
      </trkpt>
      <trkpt lat="44.22265" lon="5.86073">
        <ele>519.5</ele>
        <time>2021-09-09T08:57:39Z</time>
      </trkpt>
      <trkpt lat="44.22265" lon="5.86069">
        <ele>519.5</ele>
        <time>2021-09-09T08:57:40Z</time>
      </trkpt>
      <trkpt lat="44.22262" lon="5.86067">
        <ele>519.6</ele>
        <time>2021-09-09T08:57:42Z</time>
      </trkpt>
      <trkpt lat="44.22261" lon="5.86069">
        <ele>519.6</ele>
        <time>2021-09-09T08:57:44Z</time>
      </trkpt>
      <trkpt lat="44.22259" lon="5.86069">
        <ele>519.6</ele>
        <time>2021-09-09T08:57:45Z</time>
      </trkpt>
      <trkpt lat="44.22257" lon="5.86072">
        <ele>519.7</ele>
        <time>2021-09-09T08:57:47Z</time>
      </trkpt>
      <trkpt lat="44.22257" lon="5.86074">
        <ele>519.7</ele>
        <time>2021-09-09T08:57:48Z</time>
      </trkpt>
      <trkpt lat="44.22258" lon="5.86079">
        <ele>519.8</ele>
        <time>2021-09-09T08:57:49Z</time>
      </trkpt>
      <trkpt lat="44.22259" lon="5.86084">
        <ele>519.9</ele>
        <time>2021-09-09T08:57:51Z</time>
      </trkpt>
      <trkpt lat="44.22261" lon="5.8609">
        <ele>520</ele>
        <time>2021-09-09T08:57:52Z</time>
      </trkpt>
      <trkpt lat="44.22262" lon="5.86095">
        <ele>520.1</ele>
        <time>2021-09-09T08:57:53Z</time>
      </trkpt>
      <trkpt lat="44.22263" lon="5.86099">
        <ele>520.2</ele>
        <time>2021-09-09T08:57:54Z</time>
      </trkpt>
      <trkpt lat="44.22265" lon="5.86106">
        <ele>520.3</ele>
        <time>2021-09-09T08:57:56Z</time>
      </trkpt>
      <trkpt lat="44.22265" lon="5.86105">
        <ele>520.3</ele>
        <time>2021-09-09T08:57:58Z</time>
      </trkpt>
      <trkpt lat="44.22264" lon="5.86106">
        <ele>520.3</ele>
        <time>2021-09-09T08:58:00Z</time>
      </trkpt>
      <trkpt lat="44.22264" lon="5.86106">
        <ele>520.3</ele>
        <time>2021-09-09T08:58:01Z</time>
      </trkpt>
      <trkpt lat="44.22264" lon="5.86106">
        <ele>520.4</ele>
        <time>2021-09-09T08:58:02Z</time>
      </trkpt>
      <trkpt lat="44.22263" lon="5.86106">
        <ele>520.4</ele>
        <time>2021-09-09T08:58:04Z</time>
      </trkpt>
      <trkpt lat="44.2226" lon="5.86081">
        <ele>520.8</ele>
        <time>2021-09-09T08:59:04Z</time>
      </trkpt>
      <trkpt lat="44.22261" lon="5.86075">
        <ele>520.9</ele>
        <time>2021-09-09T08:59:06Z</time>
      </trkpt>
      <trkpt lat="44.22262" lon="5.86064">
        <ele>521.1</ele>
        <time>2021-09-09T08:59:07Z</time>
      </trkpt>
      <trkpt lat="44.22263" lon="5.86057">
        <ele>521.2</ele>
        <time>2021-09-09T08:59:08Z</time>
      </trkpt>
      <trkpt lat="44.22265" lon="5.86051">
        <ele>521.3</ele>
        <time>2021-09-09T08:59:09Z</time>
      </trkpt>
      <trkpt lat="44.22267" lon="5.86046">
        <ele>521.4</ele>
        <time>2021-09-09T08:59:10Z</time>
      </trkpt>
      <trkpt lat="44.2227" lon="5.86038">
        <ele>521.5</ele>
        <time>2021-09-09T08:59:12Z</time>
      </trkpt>
      <trkpt lat="44.22271" lon="5.86034">
        <ele>521.6</ele>
        <time>2021-09-09T08:59:13Z</time>
      </trkpt>
      <trkpt lat="44.22273" lon="5.8603">
        <ele>521.6</ele>
        <time>2021-09-09T08:59:14Z</time>
      </trkpt>
      <trkpt lat="44.22275" lon="5.86027">
        <ele>521.7</ele>
        <time>2021-09-09T08:59:15Z</time>
      </trkpt>
      <trkpt lat="44.22277" lon="5.86021">
        <ele>521.7</ele>
        <time>2021-09-09T08:59:17Z</time>
      </trkpt>
      <trkpt lat="44.22278" lon="5.86016">
        <ele>521.8</ele>
        <time>2021-09-09T08:59:18Z</time>
      </trkpt>
      <trkpt lat="44.22278" lon="5.86012">
        <ele>521.8</ele>
        <time>2021-09-09T08:59:19Z</time>
      </trkpt>
      <trkpt lat="44.22278" lon="5.86005">
        <ele>521.9</ele>
        <time>2021-09-09T08:59:21Z</time>
      </trkpt>
      <trkpt lat="44.22277" lon="5.85999">
        <ele>522</ele>
        <time>2021-09-09T08:59:23Z</time>
      </trkpt>
      <trkpt lat="44.22276" lon="5.85995">
        <ele>522</ele>
        <time>2021-09-09T08:59:24Z</time>
      </trkpt>
      <trkpt lat="44.22276" lon="5.85993">
        <ele>522</ele>
        <time>2021-09-09T08:59:25Z</time>
      </trkpt>
      <trkpt lat="44.22277" lon="5.8599">
        <ele>522</ele>
        <time>2021-09-09T08:59:26Z</time>
      </trkpt>
      <trkpt lat="44.22279" lon="5.85984">
        <ele>522.1</ele>
        <time>2021-09-09T08:59:28Z</time>
      </trkpt>
      <trkpt lat="44.2228" lon="5.85978">
        <ele>522.1</ele>
        <time>2021-09-09T08:59:30Z</time>
      </trkpt>
      <trkpt lat="44.22281" lon="5.85973">
        <ele>522.2</ele>
        <time>2021-09-09T08:59:31Z</time>
      </trkpt>
      <trkpt lat="44.22282" lon="5.8597">
        <ele>522.2</ele>
        <time>2021-09-09T08:59:32Z</time>
      </trkpt>
      <trkpt lat="44.22283" lon="5.85962">
        <ele>522.2</ele>
        <time>2021-09-09T08:59:34Z</time>
      </trkpt>
      <trkpt lat="44.22283" lon="5.85955">
        <ele>522.3</ele>
        <time>2021-09-09T08:59:36Z</time>
      </trkpt>
      <trkpt lat="44.22283" lon="5.85948">
        <ele>522.3</ele>
        <time>2021-09-09T08:59:38Z</time>
      </trkpt>
      <trkpt lat="44.22284" lon="5.85943">
        <ele>522.3</ele>
        <time>2021-09-09T08:59:39Z</time>
      </trkpt>
      <trkpt lat="44.22284" lon="5.85939">
        <ele>522.3</ele>
        <time>2021-09-09T08:59:40Z</time>
      </trkpt>
      <trkpt lat="44.22283" lon="5.85931">
        <ele>522.3</ele>
        <time>2021-09-09T08:59:42Z</time>
      </trkpt>
      <trkpt lat="44.22282" lon="5.85928">
        <ele>522.3</ele>
        <time>2021-09-09T08:59:43Z</time>
      </trkpt>
      <trkpt lat="44.22279" lon="5.85925">
        <ele>522.6</ele>
        <time>2021-09-09T08:59:45Z</time>
      </trkpt>
      <trkpt lat="44.22276" lon="5.85926">
        <ele>522.7</ele>
        <time>2021-09-09T08:59:46Z</time>
      </trkpt>
      <trkpt lat="44.22273" lon="5.85926">
        <ele>522.7</ele>
        <time>2021-09-09T08:59:47Z</time>
      </trkpt>
      <trkpt lat="44.2227" lon="5.85928">
        <ele>522.7</ele>
        <time>2021-09-09T08:59:48Z</time>
      </trkpt>
      <trkpt lat="44.22268" lon="5.85929">
        <ele>522.7</ele>
        <time>2021-09-09T08:59:49Z</time>
      </trkpt>
      <trkpt lat="44.22265" lon="5.8593">
        <ele>522.7</ele>
        <time>2021-09-09T08:59:50Z</time>
      </trkpt>
      <trkpt lat="44.22259" lon="5.8593">
        <ele>522.7</ele>
        <time>2021-09-09T08:59:52Z</time>
      </trkpt>
      <trkpt lat="44.22256" lon="5.8593">
        <ele>522.6</ele>
        <time>2021-09-09T08:59:53Z</time>
      </trkpt>
      <trkpt lat="44.2225" lon="5.8593">
        <ele>522.5</ele>
        <time>2021-09-09T08:59:55Z</time>
      </trkpt>
      <trkpt lat="44.22246" lon="5.8593">
        <ele>522.4</ele>
        <time>2021-09-09T08:59:56Z</time>
      </trkpt>
      <trkpt lat="44.22242" lon="5.8593">
        <ele>522.3</ele>
        <time>2021-09-09T08:59:57Z</time>
      </trkpt>
      <trkpt lat="44.22238" lon="5.85931">
        <ele>522.2</ele>
        <time>2021-09-09T08:59:58Z</time>
      </trkpt>
      <trkpt lat="44.22234" lon="5.85932">
        <ele>522.1</ele>
        <time>2021-09-09T08:59:59Z</time>
      </trkpt>
      <trkpt lat="44.22228" lon="5.85934">
        <ele>521.9</ele>
        <time>2021-09-09T09:00:01Z</time>
      </trkpt>
      <trkpt lat="44.22222" lon="5.85935">
        <ele>521.8</ele>
        <time>2021-09-09T09:00:02Z</time>
      </trkpt>
      <trkpt lat="44.22217" lon="5.85936">
        <ele>521.6</ele>
        <time>2021-09-09T09:00:03Z</time>
      </trkpt>
      <trkpt lat="44.22211" lon="5.85937">
        <ele>521.5</ele>
        <time>2021-09-09T09:00:04Z</time>
      </trkpt>
      <trkpt lat="44.22207" lon="5.85938">
        <ele>521.3</ele>
        <time>2021-09-09T09:00:05Z</time>
      </trkpt>
      <trkpt lat="44.22201" lon="5.8594">
        <ele>521.2</ele>
        <time>2021-09-09T09:00:06Z</time>
      </trkpt>
      <trkpt lat="44.22194" lon="5.85941">
        <ele>521.1</ele>
        <time>2021-09-09T09:00:08Z</time>
      </trkpt>
      <trkpt lat="44.22188" lon="5.85943">
        <ele>521</ele>
        <time>2021-09-09T09:00:09Z</time>
      </trkpt>
      <trkpt lat="44.22183" lon="5.85945">
        <ele>520.9</ele>
        <time>2021-09-09T09:00:10Z</time>
      </trkpt>
      <trkpt lat="44.22178" lon="5.85947">
        <ele>520.8</ele>
        <time>2021-09-09T09:00:11Z</time>
      </trkpt>
      <trkpt lat="44.22172" lon="5.8595">
        <ele>520.8</ele>
        <time>2021-09-09T09:00:13Z</time>
      </trkpt>
      <trkpt lat="44.22167" lon="5.85952">
        <ele>520.8</ele>
        <time>2021-09-09T09:00:14Z</time>
      </trkpt>
      <trkpt lat="44.22162" lon="5.85953">
        <ele>520.8</ele>
        <time>2021-09-09T09:00:15Z</time>
      </trkpt>
      <trkpt lat="44.22157" lon="5.85955">
        <ele>520.8</ele>
        <time>2021-09-09T09:00:16Z</time>
      </trkpt>
      <trkpt lat="44.22153" lon="5.85955">
        <ele>520.8</ele>
        <time>2021-09-09T09:00:17Z</time>
      </trkpt>
      <trkpt lat="44.22147" lon="5.85957">
        <ele>520.8</ele>
        <time>2021-09-09T09:00:19Z</time>
      </trkpt>
      <trkpt lat="44.22142" lon="5.85959">
        <ele>520.8</ele>
        <time>2021-09-09T09:00:20Z</time>
      </trkpt>
      <trkpt lat="44.22137" lon="5.85962">
        <ele>520.8</ele>
        <time>2021-09-09T09:00:22Z</time>
      </trkpt>
      <trkpt lat="44.22132" lon="5.85964">
        <ele>520.8</ele>
        <time>2021-09-09T09:00:23Z</time>
      </trkpt>
      <trkpt lat="44.22127" lon="5.85968">
        <ele>520.8</ele>
        <time>2021-09-09T09:00:25Z</time>
      </trkpt>
      <trkpt lat="44.22122" lon="5.85971">
        <ele>520.8</ele>
        <time>2021-09-09T09:00:26Z</time>
      </trkpt>
      <trkpt lat="44.22118" lon="5.85974">
        <ele>520.8</ele>
        <time>2021-09-09T09:00:27Z</time>
      </trkpt>
      <trkpt lat="44.22113" lon="5.85979">
        <ele>520.7</ele>
        <time>2021-09-09T09:00:29Z</time>
      </trkpt>
      <trkpt lat="44.22109" lon="5.85981">
        <ele>520.7</ele>
        <time>2021-09-09T09:00:30Z</time>
      </trkpt>
      <trkpt lat="44.22106" lon="5.85983">
        <ele>520.7</ele>
        <time>2021-09-09T09:00:31Z</time>
      </trkpt>
      <trkpt lat="44.22102" lon="5.85986">
        <ele>520.7</ele>
        <time>2021-09-09T09:00:33Z</time>
      </trkpt>
      <trkpt lat="44.22099" lon="5.85988">
        <ele>520.6</ele>
        <time>2021-09-09T09:00:34Z</time>
      </trkpt>
      <trkpt lat="44.22095" lon="5.85991">
        <ele>520.6</ele>
        <time>2021-09-09T09:00:35Z</time>
      </trkpt>
      <trkpt lat="44.22091" lon="5.85994">
        <ele>520.5</ele>
        <time>2021-09-09T09:00:36Z</time>
      </trkpt>
      <trkpt lat="44.22087" lon="5.85998">
        <ele>520.5</ele>
        <time>2021-09-09T09:00:38Z</time>
      </trkpt>
      <trkpt lat="44.22082" lon="5.86">
        <ele>520.4</ele>
        <time>2021-09-09T09:00:39Z</time>
      </trkpt>
      <trkpt lat="44.22079" lon="5.86002">
        <ele>520.3</ele>
        <time>2021-09-09T09:00:40Z</time>
      </trkpt>
      <trkpt lat="44.22074" lon="5.86006">
        <ele>520.3</ele>
        <time>2021-09-09T09:00:42Z</time>
      </trkpt>
      <trkpt lat="44.22071" lon="5.86009">
        <ele>520.2</ele>
        <time>2021-09-09T09:00:43Z</time>
      </trkpt>
      <trkpt lat="44.22067" lon="5.86012">
        <ele>520.1</ele>
        <time>2021-09-09T09:00:45Z</time>
      </trkpt>
      <trkpt lat="44.22063" lon="5.86015">
        <ele>520.1</ele>
        <time>2021-09-09T09:00:46Z</time>
      </trkpt>
      <trkpt lat="44.2206" lon="5.86017">
        <ele>520</ele>
        <time>2021-09-09T09:00:47Z</time>
      </trkpt>
      <trkpt lat="44.22056" lon="5.86021">
        <ele>519.9</ele>
        <time>2021-09-09T09:00:49Z</time>
      </trkpt>
      <trkpt lat="44.22052" lon="5.86025">
        <ele>519.8</ele>
        <time>2021-09-09T09:00:50Z</time>
      </trkpt>
      <trkpt lat="44.2205" lon="5.86029">
        <ele>519.8</ele>
        <time>2021-09-09T09:00:51Z</time>
      </trkpt>
      <trkpt lat="44.22047" lon="5.86034">
        <ele>519.7</ele>
        <time>2021-09-09T09:00:53Z</time>
      </trkpt>
      <trkpt lat="44.22043" lon="5.86038">
        <ele>519.6</ele>
        <time>2021-09-09T09:00:54Z</time>
      </trkpt>
      <trkpt lat="44.2204" lon="5.86042">
        <ele>519.6</ele>
        <time>2021-09-09T09:00:55Z</time>
      </trkpt>
      <trkpt lat="44.22036" lon="5.86046">
        <ele>519.5</ele>
        <time>2021-09-09T09:00:57Z</time>
      </trkpt>
      <trkpt lat="44.22032" lon="5.8605">
        <ele>519.4</ele>
        <time>2021-09-09T09:00:58Z</time>
      </trkpt>
      <trkpt lat="44.22028" lon="5.86055">
        <ele>519.3</ele>
        <time>2021-09-09T09:00:59Z</time>
      </trkpt>
      <trkpt lat="44.22025" lon="5.86059">
        <ele>519.2</ele>
        <time>2021-09-09T09:01:00Z</time>
      </trkpt>
      <trkpt lat="44.22019" lon="5.86065">
        <ele>519.1</ele>
        <time>2021-09-09T09:01:02Z</time>
      </trkpt>
      <trkpt lat="44.22015" lon="5.86069">
        <ele>518.9</ele>
        <time>2021-09-09T09:01:03Z</time>
      </trkpt>
      <trkpt lat="44.22009" lon="5.86074">
        <ele>518.8</ele>
        <time>2021-09-09T09:01:04Z</time>
      </trkpt>
      <trkpt lat="44.22005" lon="5.86077">
        <ele>518.7</ele>
        <time>2021-09-09T09:01:05Z</time>
      </trkpt>
      <trkpt lat="44.21999" lon="5.86082">
        <ele>518.6</ele>
        <time>2021-09-09T09:01:07Z</time>
      </trkpt>
      <trkpt lat="44.21994" lon="5.86085">
        <ele>518.5</ele>
        <time>2021-09-09T09:01:08Z</time>
      </trkpt>
      <trkpt lat="44.2199" lon="5.86091">
        <ele>518.5</ele>
        <time>2021-09-09T09:01:09Z</time>
      </trkpt>
      <trkpt lat="44.21987" lon="5.86094">
        <ele>518.4</ele>
        <time>2021-09-09T09:01:10Z</time>
      </trkpt>
      <trkpt lat="44.21982" lon="5.861">
        <ele>518.3</ele>
        <time>2021-09-09T09:01:12Z</time>
      </trkpt>
      <trkpt lat="44.21979" lon="5.86104">
        <ele>518.2</ele>
        <time>2021-09-09T09:01:13Z</time>
      </trkpt>
      <trkpt lat="44.21976" lon="5.86108">
        <ele>518.1</ele>
        <time>2021-09-09T09:01:14Z</time>
      </trkpt>
      <trkpt lat="44.21972" lon="5.86114">
        <ele>518</ele>
        <time>2021-09-09T09:01:15Z</time>
      </trkpt>
      <trkpt lat="44.21969" lon="5.86118">
        <ele>518</ele>
        <time>2021-09-09T09:01:16Z</time>
      </trkpt>
      <trkpt lat="44.21966" lon="5.86121">
        <ele>517.9</ele>
        <time>2021-09-09T09:01:17Z</time>
      </trkpt>
      <trkpt lat="44.21962" lon="5.86126">
        <ele>517.9</ele>
        <time>2021-09-09T09:01:19Z</time>
      </trkpt>
      <trkpt lat="44.21958" lon="5.8613">
        <ele>517.8</ele>
        <time>2021-09-09T09:01:20Z</time>
      </trkpt>
      <trkpt lat="44.21954" lon="5.86135">
        <ele>517.7</ele>
        <time>2021-09-09T09:01:21Z</time>
      </trkpt>
      <trkpt lat="44.2195" lon="5.86138">
        <ele>517.7</ele>
        <time>2021-09-09T09:01:22Z</time>
      </trkpt>
      <trkpt lat="44.21946" lon="5.86142">
        <ele>517.7</ele>
        <time>2021-09-09T09:01:23Z</time>
      </trkpt>
      <trkpt lat="44.21942" lon="5.86147">
        <ele>517.6</ele>
        <time>2021-09-09T09:01:25Z</time>
      </trkpt>
      <trkpt lat="44.21938" lon="5.86149">
        <ele>517.6</ele>
        <time>2021-09-09T09:01:26Z</time>
      </trkpt>
      <trkpt lat="44.21932" lon="5.86152">
        <ele>517.5</ele>
        <time>2021-09-09T09:01:27Z</time>
      </trkpt>
      <trkpt lat="44.21928" lon="5.86155">
        <ele>517.5</ele>
        <time>2021-09-09T09:01:28Z</time>
      </trkpt>
      <trkpt lat="44.21924" lon="5.86158">
        <ele>517.4</ele>
        <time>2021-09-09T09:01:29Z</time>
      </trkpt>
      <trkpt lat="44.21921" lon="5.86161">
        <ele>517.4</ele>
        <time>2021-09-09T09:01:30Z</time>
      </trkpt>
      <trkpt lat="44.21915" lon="5.86165">
        <ele>517.4</ele>
        <time>2021-09-09T09:01:32Z</time>
      </trkpt>
      <trkpt lat="44.21911" lon="5.86169">
        <ele>517.3</ele>
        <time>2021-09-09T09:01:34Z</time>
      </trkpt>
      <trkpt lat="44.21907" lon="5.86171">
        <ele>517.3</ele>
        <time>2021-09-09T09:01:35Z</time>
      </trkpt>
      <trkpt lat="44.21904" lon="5.86173">
        <ele>517.3</ele>
        <time>2021-09-09T09:01:36Z</time>
      </trkpt>
      <trkpt lat="44.21899" lon="5.86175">
        <ele>517.2</ele>
        <time>2021-09-09T09:01:37Z</time>
      </trkpt>
      <trkpt lat="44.21895" lon="5.86178">
        <ele>517.2</ele>
        <time>2021-09-09T09:01:38Z</time>
      </trkpt>
      <trkpt lat="44.21892" lon="5.8618">
        <ele>517.2</ele>
        <time>2021-09-09T09:01:39Z</time>
      </trkpt>
      <trkpt lat="44.21887" lon="5.86184">
        <ele>517.1</ele>
        <time>2021-09-09T09:01:41Z</time>
      </trkpt>
      <trkpt lat="44.21883" lon="5.86187">
        <ele>517.1</ele>
        <time>2021-09-09T09:01:42Z</time>
      </trkpt>
      <trkpt lat="44.2188" lon="5.8619">
        <ele>517.1</ele>
        <time>2021-09-09T09:01:43Z</time>
      </trkpt>
      <trkpt lat="44.21874" lon="5.86194">
        <ele>517.1</ele>
        <time>2021-09-09T09:01:45Z</time>
      </trkpt>
      <trkpt lat="44.2187" lon="5.86197">
        <ele>517</ele>
        <time>2021-09-09T09:01:46Z</time>
      </trkpt>
      <trkpt lat="44.21866" lon="5.862">
        <ele>517</ele>
        <time>2021-09-09T09:01:47Z</time>
      </trkpt>
      <trkpt lat="44.2186" lon="5.86204">
        <ele>516.9</ele>
        <time>2021-09-09T09:01:49Z</time>
      </trkpt>
      <trkpt lat="44.21857" lon="5.86207">
        <ele>516.8</ele>
        <time>2021-09-09T09:01:50Z</time>
      </trkpt>
      <trkpt lat="44.21852" lon="5.8621">
        <ele>516.6</ele>
        <time>2021-09-09T09:01:51Z</time>
      </trkpt>
      <trkpt lat="44.21848" lon="5.86213">
        <ele>516.5</ele>
        <time>2021-09-09T09:01:52Z</time>
      </trkpt>
      <trkpt lat="44.21841" lon="5.86217">
        <ele>516.3</ele>
        <time>2021-09-09T09:01:54Z</time>
      </trkpt>
      <trkpt lat="44.21838" lon="5.86218">
        <ele>516.1</ele>
        <time>2021-09-09T09:01:55Z</time>
      </trkpt>
      <trkpt lat="44.21834" lon="5.86219">
        <ele>516</ele>
        <time>2021-09-09T09:01:57Z</time>
      </trkpt>
      <trkpt lat="44.21834" lon="5.8622">
        <ele>515.9</ele>
        <time>2021-09-09T09:01:59Z</time>
      </trkpt>
      <trkpt lat="44.21834" lon="5.86219">
        <ele>515.9</ele>
        <time>2021-09-09T09:02:01Z</time>
      </trkpt>
      <trkpt lat="44.21835" lon="5.86217">
        <ele>515.8</ele>
        <time>2021-09-09T09:02:02Z</time>
      </trkpt>
      <trkpt lat="44.21836" lon="5.86216">
        <ele>515.8</ele>
        <time>2021-09-09T09:02:03Z</time>
      </trkpt>
      <trkpt lat="44.21836" lon="5.86215">
        <ele>515.7</ele>
        <time>2021-09-09T09:02:04Z</time>
      </trkpt>
      <trkpt lat="44.21835" lon="5.86211">
        <ele>515.5</ele>
        <time>2021-09-09T09:02:06Z</time>
      </trkpt>
      <trkpt lat="44.21834" lon="5.86211">
        <ele>515.5</ele>
        <time>2021-09-09T09:02:07Z</time>
      </trkpt>
      <trkpt lat="44.2183" lon="5.86208">
        <ele>515.2</ele>
        <time>2021-09-09T09:02:08Z</time>
      </trkpt>
      <trkpt lat="44.21829" lon="5.86207">
        <ele>515.1</ele>
        <time>2021-09-09T09:02:09Z</time>
      </trkpt>
      <trkpt lat="44.21826" lon="5.86206">
        <ele>514.9</ele>
        <time>2021-09-09T09:02:10Z</time>
      </trkpt>
      <trkpt lat="44.21821" lon="5.86206">
        <ele>514.6</ele>
        <time>2021-09-09T09:02:11Z</time>
      </trkpt>
      <trkpt lat="44.21814" lon="5.86205">
        <ele>514.1</ele>
        <time>2021-09-09T09:02:13Z</time>
      </trkpt>
      <trkpt lat="44.21807" lon="5.86204">
        <ele>513.5</ele>
        <time>2021-09-09T09:02:14Z</time>
      </trkpt>
      <trkpt lat="44.21799" lon="5.86203">
        <ele>512.9</ele>
        <time>2021-09-09T09:02:16Z</time>
      </trkpt>
      <trkpt lat="44.21793" lon="5.86202">
        <ele>512.3</ele>
        <time>2021-09-09T09:02:17Z</time>
      </trkpt>
      <trkpt lat="44.21788" lon="5.86203">
        <ele>511.8</ele>
        <time>2021-09-09T09:02:19Z</time>
      </trkpt>
      <trkpt lat="44.21784" lon="5.86204">
        <ele>511.5</ele>
        <time>2021-09-09T09:02:20Z</time>
      </trkpt>
      <trkpt lat="44.2178" lon="5.86205">
        <ele>511.2</ele>
        <time>2021-09-09T09:02:21Z</time>
      </trkpt>
      <trkpt lat="44.21775" lon="5.86206">
        <ele>510.8</ele>
        <time>2021-09-09T09:02:22Z</time>
      </trkpt>
      <trkpt lat="44.2177" lon="5.86206">
        <ele>510.6</ele>
        <time>2021-09-09T09:02:24Z</time>
      </trkpt>
      <trkpt lat="44.21763" lon="5.86206">
        <ele>511.1</ele>
        <time>2021-09-09T09:02:25Z</time>
      </trkpt>
      <trkpt lat="44.21759" lon="5.86206">
        <ele>511.5</ele>
        <time>2021-09-09T09:02:26Z</time>
      </trkpt>
      <trkpt lat="44.21756" lon="5.86206">
        <ele>511.8</ele>
        <time>2021-09-09T09:02:27Z</time>
      </trkpt>
      <trkpt lat="44.21755" lon="5.86206">
        <ele>511.9</ele>
        <time>2021-09-09T09:02:29Z</time>
      </trkpt>
      <trkpt lat="44.21753" lon="5.86204">
        <ele>512.2</ele>
        <time>2021-09-09T09:02:30Z</time>
      </trkpt>
      <trkpt lat="44.21754" lon="5.86206">
        <ele>512.4</ele>
        <time>2021-09-09T09:02:32Z</time>
      </trkpt>
      <trkpt lat="44.21753" lon="5.86208">
        <ele>512.5</ele>
        <time>2021-09-09T09:02:33Z</time>
      </trkpt>
      <trkpt lat="44.21755" lon="5.8621">
        <ele>512.8</ele>
        <time>2021-09-09T09:02:34Z</time>
      </trkpt>
      <trkpt lat="44.21757" lon="5.86211">
        <ele>513</ele>
        <time>2021-09-09T09:02:36Z</time>
      </trkpt>
      <trkpt lat="44.21758" lon="5.86211">
        <ele>513.1</ele>
        <time>2021-09-09T09:02:37Z</time>
      </trkpt>
      <trkpt lat="44.21758" lon="5.86212">
        <ele>513.2</ele>
        <time>2021-09-09T09:02:38Z</time>
      </trkpt>
      <trkpt lat="44.21758" lon="5.86212">
        <ele>513.2</ele>
        <time>2021-09-09T09:02:39Z</time>
      </trkpt>
      <trkpt lat="44.21757" lon="5.86212">
        <ele>513.3</ele>
        <time>2021-09-09T09:02:40Z</time>
      </trkpt>
      <trkpt lat="44.21756" lon="5.86212">
        <ele>513.4</ele>
        <time>2021-09-09T09:02:42Z</time>
      </trkpt>
      <trkpt lat="44.21756" lon="5.86212">
        <ele>513.4</ele>
        <time>2021-09-09T09:02:43Z</time>
      </trkpt>
      <trkpt lat="44.21755" lon="5.86212">
        <ele>513.5</ele>
        <time>2021-09-09T09:02:44Z</time>
      </trkpt>
      <trkpt lat="44.21755" lon="5.86213">
        <ele>513.6</ele>
        <time>2021-09-09T09:02:45Z</time>
      </trkpt>
      <trkpt lat="44.21754" lon="5.86214">
        <ele>513.7</ele>
        <time>2021-09-09T09:02:47Z</time>
      </trkpt>
      <trkpt lat="44.21753" lon="5.86214">
        <ele>513.8</ele>
        <time>2021-09-09T09:02:49Z</time>
      </trkpt>
      <trkpt lat="44.21745" lon="5.86218">
        <ele>514.6</ele>
        <time>2021-09-09T09:02:55Z</time>
      </trkpt>
      <trkpt lat="44.21743" lon="5.86219">
        <ele>514.9</ele>
        <time>2021-09-09T09:02:56Z</time>
      </trkpt>
      <trkpt lat="44.2174" lon="5.8622">
        <ele>515.1</ele>
        <time>2021-09-09T09:02:58Z</time>
      </trkpt>
      <trkpt lat="44.21739" lon="5.8622">
        <ele>515.2</ele>
        <time>2021-09-09T09:02:59Z</time>
      </trkpt>
      <trkpt lat="44.21737" lon="5.86221">
        <ele>515.3</ele>
        <time>2021-09-09T09:03:00Z</time>
      </trkpt>
      <trkpt lat="44.21735" lon="5.86222">
        <ele>515.5</ele>
        <time>2021-09-09T09:03:02Z</time>
      </trkpt>
      <trkpt lat="44.21734" lon="5.86223">
        <ele>515.6</ele>
        <time>2021-09-09T09:03:04Z</time>
      </trkpt>
      <trkpt lat="44.21732" lon="5.86224">
        <ele>515.7</ele>
        <time>2021-09-09T09:03:05Z</time>
      </trkpt>
      <trkpt lat="44.2173" lon="5.86225">
        <ele>515.9</ele>
        <time>2021-09-09T09:03:07Z</time>
      </trkpt>
      <trkpt lat="44.21729" lon="5.86226">
        <ele>516</ele>
        <time>2021-09-09T09:03:08Z</time>
      </trkpt>
      <trkpt lat="44.21727" lon="5.86227">
        <ele>516.1</ele>
        <time>2021-09-09T09:03:14Z</time>
      </trkpt>
      <trkpt lat="44.21725" lon="5.86228">
        <ele>516.2</ele>
        <time>2021-09-09T09:03:15Z</time>
      </trkpt>
      <trkpt lat="44.21724" lon="5.86229">
        <ele>516.4</ele>
        <time>2021-09-09T09:03:16Z</time>
      </trkpt>
      <trkpt lat="44.21719" lon="5.86232">
        <ele>516.7</ele>
        <time>2021-09-09T09:03:18Z</time>
      </trkpt>
      <trkpt lat="44.21716" lon="5.86234">
        <ele>516.9</ele>
        <time>2021-09-09T09:03:19Z</time>
      </trkpt>
      <trkpt lat="44.21714" lon="5.86235">
        <ele>517</ele>
        <time>2021-09-09T09:03:20Z</time>
      </trkpt>
      <trkpt lat="44.21709" lon="5.86235">
        <ele>517.3</ele>
        <time>2021-09-09T09:03:22Z</time>
      </trkpt>
      <trkpt lat="44.21706" lon="5.86235">
        <ele>517.5</ele>
        <time>2021-09-09T09:03:23Z</time>
      </trkpt>
      <trkpt lat="44.21704" lon="5.86235">
        <ele>517.5</ele>
        <time>2021-09-09T09:03:24Z</time>
      </trkpt>
      <trkpt lat="44.21702" lon="5.86235">
        <ele>517.6</ele>
        <time>2021-09-09T09:03:25Z</time>
      </trkpt>
      <trkpt lat="44.21699" lon="5.86235">
        <ele>517.8</ele>
        <time>2021-09-09T09:03:27Z</time>
      </trkpt>
      <trkpt lat="44.21695" lon="5.86235">
        <ele>518</ele>
        <time>2021-09-09T09:03:28Z</time>
      </trkpt>
      <trkpt lat="44.21694" lon="5.86235">
        <ele>518</ele>
        <time>2021-09-09T09:03:29Z</time>
      </trkpt>
      <trkpt lat="44.21692" lon="5.86235">
        <ele>518.1</ele>
        <time>2021-09-09T09:03:30Z</time>
      </trkpt>
      <trkpt lat="44.21688" lon="5.86236">
        <ele>518.2</ele>
        <time>2021-09-09T09:03:32Z</time>
      </trkpt>
      <trkpt lat="44.21685" lon="5.86238">
        <ele>518.3</ele>
        <time>2021-09-09T09:03:34Z</time>
      </trkpt>
      <trkpt lat="44.21683" lon="5.8624">
        <ele>518.4</ele>
        <time>2021-09-09T09:03:35Z</time>
      </trkpt>
      <trkpt lat="44.2168" lon="5.86242">
        <ele>518.4</ele>
        <time>2021-09-09T09:03:36Z</time>
      </trkpt>
      <trkpt lat="44.21679" lon="5.86243">
        <ele>518.5</ele>
        <time>2021-09-09T09:03:37Z</time>
      </trkpt>
      <trkpt lat="44.21676" lon="5.86247">
        <ele>518.5</ele>
        <time>2021-09-09T09:03:39Z</time>
      </trkpt>
      <trkpt lat="44.21673" lon="5.86251">
        <ele>518.6</ele>
        <time>2021-09-09T09:03:40Z</time>
      </trkpt>
      <trkpt lat="44.21672" lon="5.86252">
        <ele>518.6</ele>
        <time>2021-09-09T09:03:41Z</time>
      </trkpt>
      <trkpt lat="44.2167" lon="5.86256">
        <ele>518.6</ele>
        <time>2021-09-09T09:03:43Z</time>
      </trkpt>
      <trkpt lat="44.21667" lon="5.86259">
        <ele>518.6</ele>
        <time>2021-09-09T09:03:44Z</time>
      </trkpt>
      <trkpt lat="44.21666" lon="5.86262">
        <ele>518.6</ele>
        <time>2021-09-09T09:03:45Z</time>
      </trkpt>
      <trkpt lat="44.21662" lon="5.86266">
        <ele>518.7</ele>
        <time>2021-09-09T09:03:47Z</time>
      </trkpt>
      <trkpt lat="44.21658" lon="5.8627">
        <ele>518.7</ele>
        <time>2021-09-09T09:03:49Z</time>
      </trkpt>
      <trkpt lat="44.21655" lon="5.86273">
        <ele>518.7</ele>
        <time>2021-09-09T09:03:50Z</time>
      </trkpt>
      <trkpt lat="44.2165" lon="5.86276">
        <ele>518.7</ele>
        <time>2021-09-09T09:03:52Z</time>
      </trkpt>
      <trkpt lat="44.21647" lon="5.86278">
        <ele>518.7</ele>
        <time>2021-09-09T09:03:53Z</time>
      </trkpt>
      <trkpt lat="44.21644" lon="5.8628">
        <ele>518.6</ele>
        <time>2021-09-09T09:03:54Z</time>
      </trkpt>
      <trkpt lat="44.2164" lon="5.86282">
        <ele>518.6</ele>
        <time>2021-09-09T09:03:55Z</time>
      </trkpt>
      <trkpt lat="44.21633" lon="5.86287">
        <ele>518.6</ele>
        <time>2021-09-09T09:03:57Z</time>
      </trkpt>
      <trkpt lat="44.2163" lon="5.8629">
        <ele>518.6</ele>
        <time>2021-09-09T09:03:58Z</time>
      </trkpt>
      <trkpt lat="44.21624" lon="5.86296">
        <ele>518.6</ele>
        <time>2021-09-09T09:04:00Z</time>
      </trkpt>
      <trkpt lat="44.2162" lon="5.86299">
        <ele>518.6</ele>
        <time>2021-09-09T09:04:01Z</time>
      </trkpt>
      <trkpt lat="44.21617" lon="5.86301">
        <ele>518.6</ele>
        <time>2021-09-09T09:04:02Z</time>
      </trkpt>
      <trkpt lat="44.21614" lon="5.86304">
        <ele>518.6</ele>
        <time>2021-09-09T09:04:03Z</time>
      </trkpt>
      <trkpt lat="44.21608" lon="5.86308">
        <ele>518.6</ele>
        <time>2021-09-09T09:04:05Z</time>
      </trkpt>
      <trkpt lat="44.21604" lon="5.86311">
        <ele>518.6</ele>
        <time>2021-09-09T09:04:06Z</time>
      </trkpt>
      <trkpt lat="44.21597" lon="5.86315">
        <ele>518.5</ele>
        <time>2021-09-09T09:04:08Z</time>
      </trkpt>
      <trkpt lat="44.21589" lon="5.86318">
        <ele>518.3</ele>
        <time>2021-09-09T09:04:10Z</time>
      </trkpt>
      <trkpt lat="44.21582" lon="5.86323">
        <ele>518.2</ele>
        <time>2021-09-09T09:04:12Z</time>
      </trkpt>
      <trkpt lat="44.21577" lon="5.86326">
        <ele>518.1</ele>
        <time>2021-09-09T09:04:13Z</time>
      </trkpt>
      <trkpt lat="44.21568" lon="5.8633">
        <ele>518</ele>
        <time>2021-09-09T09:04:15Z</time>
      </trkpt>
      <trkpt lat="44.2156" lon="5.86335">
        <ele>517.9</ele>
        <time>2021-09-09T09:04:17Z</time>
      </trkpt>
      <trkpt lat="44.21556" lon="5.86336">
        <ele>517.8</ele>
        <time>2021-09-09T09:04:18Z</time>
      </trkpt>
      <trkpt lat="44.21549" lon="5.86339">
        <ele>517.7</ele>
        <time>2021-09-09T09:04:20Z</time>
      </trkpt>
      <trkpt lat="44.21544" lon="5.86341">
        <ele>517.6</ele>
        <time>2021-09-09T09:04:21Z</time>
      </trkpt>
      <trkpt lat="44.2154" lon="5.86343">
        <ele>517.5</ele>
        <time>2021-09-09T09:04:22Z</time>
      </trkpt>
      <trkpt lat="44.21536" lon="5.86345">
        <ele>517.5</ele>
        <time>2021-09-09T09:04:23Z</time>
      </trkpt>
      <trkpt lat="44.2153" lon="5.86346">
        <ele>517.4</ele>
        <time>2021-09-09T09:04:25Z</time>
      </trkpt>
      <trkpt lat="44.21525" lon="5.86347">
        <ele>517.3</ele>
        <time>2021-09-09T09:04:26Z</time>
      </trkpt>
      <trkpt lat="44.2152" lon="5.86347">
        <ele>517.3</ele>
        <time>2021-09-09T09:04:28Z</time>
      </trkpt>
      <trkpt lat="44.21513" lon="5.86348">
        <ele>517.2</ele>
        <time>2021-09-09T09:04:29Z</time>
      </trkpt>
      <trkpt lat="44.21507" lon="5.86349">
        <ele>517.1</ele>
        <time>2021-09-09T09:04:31Z</time>
      </trkpt>
      <trkpt lat="44.21502" lon="5.86351">
        <ele>516.9</ele>
        <time>2021-09-09T09:04:32Z</time>
      </trkpt>
      <trkpt lat="44.21497" lon="5.86354">
        <ele>516.8</ele>
        <time>2021-09-09T09:04:33Z</time>
      </trkpt>
      <trkpt lat="44.21494" lon="5.86357">
        <ele>516.7</ele>
        <time>2021-09-09T09:04:34Z</time>
      </trkpt>
      <trkpt lat="44.2149" lon="5.8636">
        <ele>516.5</ele>
        <time>2021-09-09T09:04:35Z</time>
      </trkpt>
      <trkpt lat="44.21484" lon="5.86365">
        <ele>516.3</ele>
        <time>2021-09-09T09:04:37Z</time>
      </trkpt>
      <trkpt lat="44.21479" lon="5.86366">
        <ele>516.1</ele>
        <time>2021-09-09T09:04:38Z</time>
      </trkpt>
      <trkpt lat="44.21474" lon="5.86367">
        <ele>516</ele>
        <time>2021-09-09T09:04:39Z</time>
      </trkpt>
      <trkpt lat="44.21467" lon="5.86367">
        <ele>515.9</ele>
        <time>2021-09-09T09:04:40Z</time>
      </trkpt>
      <trkpt lat="44.21456" lon="5.86366">
        <ele>515.7</ele>
        <time>2021-09-09T09:04:42Z</time>
      </trkpt>
      <trkpt lat="44.21444" lon="5.8637">
        <ele>515.9</ele>
        <time>2021-09-09T09:04:44Z</time>
      </trkpt>
      <trkpt lat="44.21439" lon="5.86373">
        <ele>516</ele>
        <time>2021-09-09T09:04:45Z</time>
      </trkpt>
      <trkpt lat="44.21436" lon="5.86378">
        <ele>516.1</ele>
        <time>2021-09-09T09:04:46Z</time>
      </trkpt>
      <trkpt lat="44.21429" lon="5.86386">
        <ele>516.4</ele>
        <time>2021-09-09T09:04:48Z</time>
      </trkpt>
      <trkpt lat="44.21425" lon="5.86388">
        <ele>516.5</ele>
        <time>2021-09-09T09:04:49Z</time>
      </trkpt>
      <trkpt lat="44.21421" lon="5.8639">
        <ele>516.6</ele>
        <time>2021-09-09T09:04:50Z</time>
      </trkpt>
      <trkpt lat="44.21414" lon="5.86392">
        <ele>516.8</ele>
        <time>2021-09-09T09:04:52Z</time>
      </trkpt>
      <trkpt lat="44.21408" lon="5.86395">
        <ele>517</ele>
        <time>2021-09-09T09:04:54Z</time>
      </trkpt>
      <trkpt lat="44.21405" lon="5.86396">
        <ele>517.1</ele>
        <time>2021-09-09T09:04:55Z</time>
      </trkpt>
      <trkpt lat="44.21398" lon="5.86398">
        <ele>517.2</ele>
        <time>2021-09-09T09:04:57Z</time>
      </trkpt>
      <trkpt lat="44.21394" lon="5.86399">
        <ele>517.4</ele>
        <time>2021-09-09T09:04:59Z</time>
      </trkpt>
      <trkpt lat="44.21392" lon="5.86405">
        <ele>517.5</ele>
        <time>2021-09-09T09:05:00Z</time>
      </trkpt>
      <trkpt lat="44.21386" lon="5.86406">
        <ele>517.7</ele>
        <time>2021-09-09T09:05:01Z</time>
      </trkpt>
      <trkpt lat="44.21382" lon="5.86404">
        <ele>517.8</ele>
        <time>2021-09-09T09:05:03Z</time>
      </trkpt>
      <trkpt lat="44.21375" lon="5.86405">
        <ele>518</ele>
        <time>2021-09-09T09:05:04Z</time>
      </trkpt>
      <trkpt lat="44.21371" lon="5.86405">
        <ele>518.1</ele>
        <time>2021-09-09T09:05:06Z</time>
      </trkpt>
      <trkpt lat="44.21368" lon="5.86405">
        <ele>518.2</ele>
        <time>2021-09-09T09:05:07Z</time>
      </trkpt>
      <trkpt lat="44.21365" lon="5.86406">
        <ele>518.3</ele>
        <time>2021-09-09T09:05:08Z</time>
      </trkpt>
      <trkpt lat="44.21361" lon="5.86406">
        <ele>518.4</ele>
        <time>2021-09-09T09:05:09Z</time>
      </trkpt>
      <trkpt lat="44.21357" lon="5.86408">
        <ele>518.6</ele>
        <time>2021-09-09T09:05:10Z</time>
      </trkpt>
      <trkpt lat="44.21353" lon="5.86409">
        <ele>518.7</ele>
        <time>2021-09-09T09:05:11Z</time>
      </trkpt>
      <trkpt lat="44.21348" lon="5.86411">
        <ele>518.9</ele>
        <time>2021-09-09T09:05:13Z</time>
      </trkpt>
      <trkpt lat="44.21344" lon="5.86412">
        <ele>519</ele>
        <time>2021-09-09T09:05:14Z</time>
      </trkpt>
      <trkpt lat="44.21341" lon="5.86412">
        <ele>519.2</ele>
        <time>2021-09-09T09:05:15Z</time>
      </trkpt>
      <trkpt lat="44.21338" lon="5.86413">
        <ele>519.3</ele>
        <time>2021-09-09T09:05:16Z</time>
      </trkpt>
      <trkpt lat="44.21333" lon="5.86414">
        <ele>519.4</ele>
        <time>2021-09-09T09:05:18Z</time>
      </trkpt>
      <trkpt lat="44.2133" lon="5.86415">
        <ele>519.5</ele>
        <time>2021-09-09T09:05:19Z</time>
      </trkpt>
      <trkpt lat="44.21327" lon="5.86416">
        <ele>519.6</ele>
        <time>2021-09-09T09:05:20Z</time>
      </trkpt>
      <trkpt lat="44.21324" lon="5.86418">
        <ele>519.7</ele>
        <time>2021-09-09T09:05:21Z</time>
      </trkpt>
      <trkpt lat="44.21321" lon="5.86419">
        <ele>519.8</ele>
        <time>2021-09-09T09:05:22Z</time>
      </trkpt>
      <trkpt lat="44.21317" lon="5.86421">
        <ele>519.9</ele>
        <time>2021-09-09T09:05:24Z</time>
      </trkpt>
      <trkpt lat="44.21313" lon="5.86423">
        <ele>520</ele>
        <time>2021-09-09T09:05:25Z</time>
      </trkpt>
      <trkpt lat="44.21309" lon="5.86426">
        <ele>520.1</ele>
        <time>2021-09-09T09:05:26Z</time>
      </trkpt>
      <trkpt lat="44.21306" lon="5.86428">
        <ele>520.2</ele>
        <time>2021-09-09T09:05:27Z</time>
      </trkpt>
      <trkpt lat="44.21304" lon="5.8643">
        <ele>520.2</ele>
        <time>2021-09-09T09:05:28Z</time>
      </trkpt>
      <trkpt lat="44.21298" lon="5.86434">
        <ele>520.4</ele>
        <time>2021-09-09T09:05:30Z</time>
      </trkpt>
      <trkpt lat="44.21295" lon="5.86437">
        <ele>520.5</ele>
        <time>2021-09-09T09:05:32Z</time>
      </trkpt>
      <trkpt lat="44.2129" lon="5.86439">
        <ele>520.6</ele>
        <time>2021-09-09T09:05:33Z</time>
      </trkpt>
      <trkpt lat="44.21287" lon="5.8644">
        <ele>520.6</ele>
        <time>2021-09-09T09:05:34Z</time>
      </trkpt>
      <trkpt lat="44.21284" lon="5.86442">
        <ele>520.7</ele>
        <time>2021-09-09T09:05:35Z</time>
      </trkpt>
      <trkpt lat="44.21281" lon="5.86444">
        <ele>520.8</ele>
        <time>2021-09-09T09:05:36Z</time>
      </trkpt>
      <trkpt lat="44.21275" lon="5.86446">
        <ele>520.9</ele>
        <time>2021-09-09T09:05:38Z</time>
      </trkpt>
      <trkpt lat="44.21271" lon="5.86447">
        <ele>521</ele>
        <time>2021-09-09T09:05:39Z</time>
      </trkpt>
      <trkpt lat="44.21266" lon="5.86449">
        <ele>521</ele>
        <time>2021-09-09T09:05:41Z</time>
      </trkpt>
      <trkpt lat="44.21262" lon="5.86451">
        <ele>521</ele>
        <time>2021-09-09T09:05:42Z</time>
      </trkpt>
      <trkpt lat="44.21258" lon="5.86453">
        <ele>521</ele>
        <time>2021-09-09T09:05:43Z</time>
      </trkpt>
      <trkpt lat="44.21255" lon="5.86454">
        <ele>521</ele>
        <time>2021-09-09T09:05:44Z</time>
      </trkpt>
      <trkpt lat="44.21252" lon="5.86456">
        <ele>521</ele>
        <time>2021-09-09T09:05:45Z</time>
      </trkpt>
      <trkpt lat="44.21248" lon="5.86457">
        <ele>520.9</ele>
        <time>2021-09-09T09:05:47Z</time>
      </trkpt>
      <trkpt lat="44.21243" lon="5.86456">
        <ele>520.9</ele>
        <time>2021-09-09T09:05:48Z</time>
      </trkpt>
      <trkpt lat="44.21239" lon="5.86458">
        <ele>520.8</ele>
        <time>2021-09-09T09:05:49Z</time>
      </trkpt>
      <trkpt lat="44.21233" lon="5.86459">
        <ele>520.7</ele>
        <time>2021-09-09T09:05:51Z</time>
      </trkpt>
      <trkpt lat="44.21228" lon="5.8646">
        <ele>520.6</ele>
        <time>2021-09-09T09:05:52Z</time>
      </trkpt>
      <trkpt lat="44.21225" lon="5.8646">
        <ele>520.6</ele>
        <time>2021-09-09T09:05:53Z</time>
      </trkpt>
      <trkpt lat="44.21221" lon="5.8646">
        <ele>520.6</ele>
        <time>2021-09-09T09:05:54Z</time>
      </trkpt>
      <trkpt lat="44.21214" lon="5.86462">
        <ele>520.5</ele>
        <time>2021-09-09T09:05:56Z</time>
      </trkpt>
      <trkpt lat="44.21209" lon="5.86463">
        <ele>520.5</ele>
        <time>2021-09-09T09:05:57Z</time>
      </trkpt>
      <trkpt lat="44.21204" lon="5.86465">
        <ele>520.5</ele>
        <time>2021-09-09T09:05:58Z</time>
      </trkpt>
      <trkpt lat="44.212" lon="5.86468">
        <ele>520.4</ele>
        <time>2021-09-09T09:05:59Z</time>
      </trkpt>
      <trkpt lat="44.21193" lon="5.86474">
        <ele>520.4</ele>
        <time>2021-09-09T09:06:01Z</time>
      </trkpt>
      <trkpt lat="44.2119" lon="5.86478">
        <ele>520.3</ele>
        <time>2021-09-09T09:06:02Z</time>
      </trkpt>
      <trkpt lat="44.21186" lon="5.86482">
        <ele>520.3</ele>
        <time>2021-09-09T09:06:03Z</time>
      </trkpt>
      <trkpt lat="44.2118" lon="5.86486">
        <ele>520.2</ele>
        <time>2021-09-09T09:06:05Z</time>
      </trkpt>
      <trkpt lat="44.21174" lon="5.86489">
        <ele>520.1</ele>
        <time>2021-09-09T09:06:06Z</time>
      </trkpt>
      <trkpt lat="44.21168" lon="5.86491">
        <ele>519.9</ele>
        <time>2021-09-09T09:06:08Z</time>
      </trkpt>
      <trkpt lat="44.21158" lon="5.86493">
        <ele>519.8</ele>
        <time>2021-09-09T09:06:09Z</time>
      </trkpt>
      <trkpt lat="44.21147" lon="5.86496">
        <ele>519.6</ele>
        <time>2021-09-09T09:06:11Z</time>
      </trkpt>
      <trkpt lat="44.21141" lon="5.86497">
        <ele>519.5</ele>
        <time>2021-09-09T09:06:12Z</time>
      </trkpt>
      <trkpt lat="44.21136" lon="5.86498">
        <ele>519.4</ele>
        <time>2021-09-09T09:06:13Z</time>
      </trkpt>
      <trkpt lat="44.21126" lon="5.86502">
        <ele>519.3</ele>
        <time>2021-09-09T09:06:15Z</time>
      </trkpt>
      <trkpt lat="44.21121" lon="5.86504">
        <ele>519.2</ele>
        <time>2021-09-09T09:06:16Z</time>
      </trkpt>
      <trkpt lat="44.21113" lon="5.8651">
        <ele>519.2</ele>
        <time>2021-09-09T09:06:18Z</time>
      </trkpt>
      <trkpt lat="44.21104" lon="5.86515">
        <ele>519.2</ele>
        <time>2021-09-09T09:06:20Z</time>
      </trkpt>
      <trkpt lat="44.211" lon="5.86517">
        <ele>519.2</ele>
        <time>2021-09-09T09:06:21Z</time>
      </trkpt>
      <trkpt lat="44.21096" lon="5.86519">
        <ele>519.1</ele>
        <time>2021-09-09T09:06:22Z</time>
      </trkpt>
      <trkpt lat="44.21092" lon="5.86521">
        <ele>519.1</ele>
        <time>2021-09-09T09:06:23Z</time>
      </trkpt>
      <trkpt lat="44.21084" lon="5.86526">
        <ele>519</ele>
        <time>2021-09-09T09:06:25Z</time>
      </trkpt>
      <trkpt lat="44.21074" lon="5.8653">
        <ele>518.9</ele>
        <time>2021-09-09T09:06:27Z</time>
      </trkpt>
      <trkpt lat="44.2107" lon="5.86532">
        <ele>518.9</ele>
        <time>2021-09-09T09:06:28Z</time>
      </trkpt>
      <trkpt lat="44.21065" lon="5.86534">
        <ele>518.8</ele>
        <time>2021-09-09T09:06:29Z</time>
      </trkpt>
      <trkpt lat="44.2106" lon="5.86535">
        <ele>518.8</ele>
        <time>2021-09-09T09:06:30Z</time>
      </trkpt>
      <trkpt lat="44.21051" lon="5.86539">
        <ele>518.6</ele>
        <time>2021-09-09T09:06:32Z</time>
      </trkpt>
      <trkpt lat="44.21046" lon="5.86541">
        <ele>518.5</ele>
        <time>2021-09-09T09:06:33Z</time>
      </trkpt>
      <trkpt lat="44.21038" lon="5.86545">
        <ele>518.3</ele>
        <time>2021-09-09T09:06:35Z</time>
      </trkpt>
      <trkpt lat="44.21034" lon="5.86547">
        <ele>518.2</ele>
        <time>2021-09-09T09:06:36Z</time>
      </trkpt>
      <trkpt lat="44.21025" lon="5.86552">
        <ele>518</ele>
        <time>2021-09-09T09:06:38Z</time>
      </trkpt>
      <trkpt lat="44.21021" lon="5.86554">
        <ele>517.9</ele>
        <time>2021-09-09T09:06:39Z</time>
      </trkpt>
      <trkpt lat="44.21016" lon="5.86555">
        <ele>517.8</ele>
        <time>2021-09-09T09:06:40Z</time>
      </trkpt>
      <trkpt lat="44.21006" lon="5.86558">
        <ele>517.5</ele>
        <time>2021-09-09T09:06:42Z</time>
      </trkpt>
      <trkpt lat="44.21001" lon="5.86559">
        <ele>517.4</ele>
        <time>2021-09-09T09:06:43Z</time>
      </trkpt>
      <trkpt lat="44.20992" lon="5.86562">
        <ele>517.2</ele>
        <time>2021-09-09T09:06:45Z</time>
      </trkpt>
      <trkpt lat="44.20987" lon="5.86563">
        <ele>517</ele>
        <time>2021-09-09T09:06:46Z</time>
      </trkpt>
      <trkpt lat="44.20976" lon="5.86567">
        <ele>516.9</ele>
        <time>2021-09-09T09:06:48Z</time>
      </trkpt>
      <trkpt lat="44.20967" lon="5.86571">
        <ele>516.8</ele>
        <time>2021-09-09T09:06:50Z</time>
      </trkpt>
      <trkpt lat="44.20963" lon="5.86573">
        <ele>516.9</ele>
        <time>2021-09-09T09:06:51Z</time>
      </trkpt>
      <trkpt lat="44.20959" lon="5.86574">
        <ele>516.9</ele>
        <time>2021-09-09T09:06:52Z</time>
      </trkpt>
      <trkpt lat="44.20953" lon="5.86575">
        <ele>517.1</ele>
        <time>2021-09-09T09:06:54Z</time>
      </trkpt>
      <trkpt lat="44.20949" lon="5.86574">
        <ele>517.2</ele>
        <time>2021-09-09T09:06:55Z</time>
      </trkpt>
      <trkpt lat="44.20948" lon="5.86574">
        <ele>517.2</ele>
        <time>2021-09-09T09:06:56Z</time>
      </trkpt>
      <trkpt lat="44.20943" lon="5.86576">
        <ele>517.4</ele>
        <time>2021-09-09T09:06:58Z</time>
      </trkpt>
      <trkpt lat="44.20937" lon="5.8658">
        <ele>517.6</ele>
        <time>2021-09-09T09:06:59Z</time>
      </trkpt>
      <trkpt lat="44.20934" lon="5.8658">
        <ele>517.7</ele>
        <time>2021-09-09T09:07:01Z</time>
      </trkpt>
      <trkpt lat="44.20933" lon="5.86581">
        <ele>517.7</ele>
        <time>2021-09-09T09:07:02Z</time>
      </trkpt>
      <trkpt lat="44.2093" lon="5.86581">
        <ele>517.8</ele>
        <time>2021-09-09T09:07:03Z</time>
      </trkpt>
      <trkpt lat="44.20926" lon="5.86582">
        <ele>517.9</ele>
        <time>2021-09-09T09:07:05Z</time>
      </trkpt>
      <trkpt lat="44.20923" lon="5.86584">
        <ele>518.1</ele>
        <time>2021-09-09T09:07:06Z</time>
      </trkpt>
      <trkpt lat="44.2092" lon="5.86585">
        <ele>518.2</ele>
        <time>2021-09-09T09:07:08Z</time>
      </trkpt>
      <trkpt lat="44.20915" lon="5.86587">
        <ele>518.4</ele>
        <time>2021-09-09T09:07:09Z</time>
      </trkpt>
      <trkpt lat="44.20912" lon="5.86588">
        <ele>518.5</ele>
        <time>2021-09-09T09:07:10Z</time>
      </trkpt>
      <trkpt lat="44.20909" lon="5.8659">
        <ele>518.6</ele>
        <time>2021-09-09T09:07:12Z</time>
      </trkpt>
      <trkpt lat="44.20905" lon="5.86594">
        <ele>518.7</ele>
        <time>2021-09-09T09:07:13Z</time>
      </trkpt>
      <trkpt lat="44.20902" lon="5.86596">
        <ele>518.8</ele>
        <time>2021-09-09T09:07:14Z</time>
      </trkpt>
      <trkpt lat="44.209" lon="5.866">
        <ele>518.8</ele>
        <time>2021-09-09T09:07:15Z</time>
      </trkpt>
      <trkpt lat="44.20896" lon="5.86603">
        <ele>518.9</ele>
        <time>2021-09-09T09:07:17Z</time>
      </trkpt>
      <trkpt lat="44.20894" lon="5.86606">
        <ele>519</ele>
        <time>2021-09-09T09:07:18Z</time>
      </trkpt>
      <trkpt lat="44.20889" lon="5.86608">
        <ele>519.1</ele>
        <time>2021-09-09T09:07:19Z</time>
      </trkpt>
      <trkpt lat="44.20887" lon="5.86611">
        <ele>519.1</ele>
        <time>2021-09-09T09:07:21Z</time>
      </trkpt>
      <trkpt lat="44.20883" lon="5.86615">
        <ele>519.2</ele>
        <time>2021-09-09T09:07:22Z</time>
      </trkpt>
      <trkpt lat="44.20881" lon="5.86617">
        <ele>519.3</ele>
        <time>2021-09-09T09:07:24Z</time>
      </trkpt>
      <trkpt lat="44.20877" lon="5.86619">
        <ele>519.3</ele>
        <time>2021-09-09T09:07:25Z</time>
      </trkpt>
      <trkpt lat="44.20874" lon="5.8662">
        <ele>519.3</ele>
        <time>2021-09-09T09:07:26Z</time>
      </trkpt>
      <trkpt lat="44.20871" lon="5.86621">
        <ele>519.3</ele>
        <time>2021-09-09T09:07:28Z</time>
      </trkpt>
      <trkpt lat="44.20867" lon="5.86623">
        <ele>519.4</ele>
        <time>2021-09-09T09:07:29Z</time>
      </trkpt>
      <trkpt lat="44.20864" lon="5.86625">
        <ele>519.4</ele>
        <time>2021-09-09T09:07:30Z</time>
      </trkpt>
      <trkpt lat="44.20861" lon="5.86628">
        <ele>519.4</ele>
        <time>2021-09-09T09:07:32Z</time>
      </trkpt>
      <trkpt lat="44.20856" lon="5.86634">
        <ele>519.5</ele>
        <time>2021-09-09T09:07:34Z</time>
      </trkpt>
      <trkpt lat="44.20851" lon="5.86639">
        <ele>519.6</ele>
        <time>2021-09-09T09:07:35Z</time>
      </trkpt>
      <trkpt lat="44.20848" lon="5.86644">
        <ele>519.6</ele>
        <time>2021-09-09T09:07:36Z</time>
      </trkpt>
      <trkpt lat="44.20846" lon="5.86648">
        <ele>519.7</ele>
        <time>2021-09-09T09:07:37Z</time>
      </trkpt>
      <trkpt lat="44.20842" lon="5.86656">
        <ele>519.8</ele>
        <time>2021-09-09T09:07:39Z</time>
      </trkpt>
      <trkpt lat="44.20838" lon="5.86662">
        <ele>520</ele>
        <time>2021-09-09T09:07:41Z</time>
      </trkpt>
      <trkpt lat="44.20836" lon="5.86665">
        <ele>520</ele>
        <time>2021-09-09T09:07:42Z</time>
      </trkpt>
      <trkpt lat="44.20833" lon="5.86668">
        <ele>520.1</ele>
        <time>2021-09-09T09:07:43Z</time>
      </trkpt>
      <trkpt lat="44.20829" lon="5.86674">
        <ele>520.2</ele>
        <time>2021-09-09T09:07:44Z</time>
      </trkpt>
      <trkpt lat="44.20828" lon="5.86678">
        <ele>520.3</ele>
        <time>2021-09-09T09:07:45Z</time>
      </trkpt>
      <trkpt lat="44.20826" lon="5.86683">
        <ele>520.4</ele>
        <time>2021-09-09T09:07:47Z</time>
      </trkpt>
      <trkpt lat="44.20824" lon="5.86687">
        <ele>520.4</ele>
        <time>2021-09-09T09:07:48Z</time>
      </trkpt>
      <trkpt lat="44.20822" lon="5.86691">
        <ele>520.5</ele>
        <time>2021-09-09T09:07:49Z</time>
      </trkpt>
      <trkpt lat="44.2082" lon="5.86696">
        <ele>520.6</ele>
        <time>2021-09-09T09:07:50Z</time>
      </trkpt>
      <trkpt lat="44.20818" lon="5.86701">
        <ele>520.6</ele>
        <time>2021-09-09T09:07:51Z</time>
      </trkpt>
      <trkpt lat="44.20815" lon="5.86707">
        <ele>520.7</ele>
        <time>2021-09-09T09:07:53Z</time>
      </trkpt>
      <trkpt lat="44.20812" lon="5.86711">
        <ele>520.7</ele>
        <time>2021-09-09T09:07:55Z</time>
      </trkpt>
      <trkpt lat="44.20809" lon="5.86716">
        <ele>520.8</ele>
        <time>2021-09-09T09:07:56Z</time>
      </trkpt>
      <trkpt lat="44.20807" lon="5.86719">
        <ele>520.8</ele>
        <time>2021-09-09T09:07:57Z</time>
      </trkpt>
      <trkpt lat="44.20804" lon="5.86722">
        <ele>520.9</ele>
        <time>2021-09-09T09:07:59Z</time>
      </trkpt>
      <trkpt lat="44.208" lon="5.86726">
        <ele>520.9</ele>
        <time>2021-09-09T09:08:00Z</time>
      </trkpt>
      <trkpt lat="44.20796" lon="5.86729">
        <ele>521</ele>
        <time>2021-09-09T09:08:02Z</time>
      </trkpt>
      <trkpt lat="44.20791" lon="5.86734">
        <ele>521</ele>
        <time>2021-09-09T09:08:03Z</time>
      </trkpt>
      <trkpt lat="44.20787" lon="5.86738">
        <ele>521.1</ele>
        <time>2021-09-09T09:08:05Z</time>
      </trkpt>
      <trkpt lat="44.20782" lon="5.86741">
        <ele>521.2</ele>
        <time>2021-09-09T09:08:06Z</time>
      </trkpt>
      <trkpt lat="44.20779" lon="5.86743">
        <ele>521.2</ele>
        <time>2021-09-09T09:08:07Z</time>
      </trkpt>
      <trkpt lat="44.20774" lon="5.86744">
        <ele>521.3</ele>
        <time>2021-09-09T09:08:08Z</time>
      </trkpt>
      <trkpt lat="44.20771" lon="5.86745">
        <ele>521.3</ele>
        <time>2021-09-09T09:08:09Z</time>
      </trkpt>
      <trkpt lat="44.20764" lon="5.86745">
        <ele>521.4</ele>
        <time>2021-09-09T09:08:11Z</time>
      </trkpt>
      <trkpt lat="44.20758" lon="5.86745">
        <ele>521.5</ele>
        <time>2021-09-09T09:08:13Z</time>
      </trkpt>
      <trkpt lat="44.20755" lon="5.86746">
        <ele>521.5</ele>
        <time>2021-09-09T09:08:14Z</time>
      </trkpt>
      <trkpt lat="44.20752" lon="5.86746">
        <ele>521.6</ele>
        <time>2021-09-09T09:08:16Z</time>
      </trkpt>
      <trkpt lat="44.20749" lon="5.86748">
        <ele>521.6</ele>
        <time>2021-09-09T09:08:17Z</time>
      </trkpt>
      <trkpt lat="44.20745" lon="5.8675">
        <ele>521.7</ele>
        <time>2021-09-09T09:08:18Z</time>
      </trkpt>
      <trkpt lat="44.2074" lon="5.86752">
        <ele>521.8</ele>
        <time>2021-09-09T09:08:20Z</time>
      </trkpt>
      <trkpt lat="44.20737" lon="5.86752">
        <ele>521.9</ele>
        <time>2021-09-09T09:08:21Z</time>
      </trkpt>
      <trkpt lat="44.20733" lon="5.86752">
        <ele>522</ele>
        <time>2021-09-09T09:08:23Z</time>
      </trkpt>
      <trkpt lat="44.20731" lon="5.86752">
        <ele>522</ele>
        <time>2021-09-09T09:08:24Z</time>
      </trkpt>
      <trkpt lat="44.20727" lon="5.86753">
        <ele>522.2</ele>
        <time>2021-09-09T09:08:26Z</time>
      </trkpt>
      <trkpt lat="44.20723" lon="5.86755">
        <ele>522.3</ele>
        <time>2021-09-09T09:08:27Z</time>
      </trkpt>
      <trkpt lat="44.20721" lon="5.86756">
        <ele>522.4</ele>
        <time>2021-09-09T09:08:28Z</time>
      </trkpt>
      <trkpt lat="44.20717" lon="5.86758">
        <ele>522.5</ele>
        <time>2021-09-09T09:08:30Z</time>
      </trkpt>
      <trkpt lat="44.20714" lon="5.86759">
        <ele>522.6</ele>
        <time>2021-09-09T09:08:31Z</time>
      </trkpt>
      <trkpt lat="44.20711" lon="5.86761">
        <ele>522.7</ele>
        <time>2021-09-09T09:08:32Z</time>
      </trkpt>
      <trkpt lat="44.20707" lon="5.86763">
        <ele>522.9</ele>
        <time>2021-09-09T09:08:33Z</time>
      </trkpt>
      <trkpt lat="44.20705" lon="5.86763">
        <ele>523</ele>
        <time>2021-09-09T09:08:34Z</time>
      </trkpt>
      <trkpt lat="44.207" lon="5.86765">
        <ele>523.2</ele>
        <time>2021-09-09T09:08:36Z</time>
      </trkpt>
      <trkpt lat="44.20697" lon="5.86767">
        <ele>523.3</ele>
        <time>2021-09-09T09:08:37Z</time>
      </trkpt>
      <trkpt lat="44.20695" lon="5.8677">
        <ele>523.4</ele>
        <time>2021-09-09T09:08:39Z</time>
      </trkpt>
      <trkpt lat="44.20691" lon="5.86771">
        <ele>523.6</ele>
        <time>2021-09-09T09:08:40Z</time>
      </trkpt>
      <trkpt lat="44.20688" lon="5.86773">
        <ele>523.7</ele>
        <time>2021-09-09T09:08:42Z</time>
      </trkpt>
      <trkpt lat="44.20685" lon="5.86775">
        <ele>523.8</ele>
        <time>2021-09-09T09:08:43Z</time>
      </trkpt>
      <trkpt lat="44.20681" lon="5.86776">
        <ele>524</ele>
        <time>2021-09-09T09:08:45Z</time>
      </trkpt>
      <trkpt lat="44.2068" lon="5.86776">
        <ele>524.1</ele>
        <time>2021-09-09T09:08:46Z</time>
      </trkpt>
      <trkpt lat="44.20677" lon="5.86778">
        <ele>524.3</ele>
        <time>2021-09-09T09:08:47Z</time>
      </trkpt>
      <trkpt lat="44.20677" lon="5.86779">
        <ele>524.3</ele>
        <time>2021-09-09T09:08:48Z</time>
      </trkpt>
      <trkpt lat="44.20675" lon="5.86781">
        <ele>524.4</ele>
        <time>2021-09-09T09:08:49Z</time>
      </trkpt>
      <trkpt lat="44.20674" lon="5.86782">
        <ele>524.5</ele>
        <time>2021-09-09T09:08:51Z</time>
      </trkpt>
      <trkpt lat="44.20671" lon="5.86784">
        <ele>524.6</ele>
        <time>2021-09-09T09:08:52Z</time>
      </trkpt>
      <trkpt lat="44.20669" lon="5.86786">
        <ele>524.8</ele>
        <time>2021-09-09T09:08:54Z</time>
      </trkpt>
      <trkpt lat="44.20666" lon="5.86788">
        <ele>525</ele>
        <time>2021-09-09T09:08:55Z</time>
      </trkpt>
      <trkpt lat="44.20665" lon="5.86789">
        <ele>525</ele>
        <time>2021-09-09T09:08:56Z</time>
      </trkpt>
      <trkpt lat="44.20661" lon="5.86789">
        <ele>525.2</ele>
        <time>2021-09-09T09:08:58Z</time>
      </trkpt>
      <trkpt lat="44.20659" lon="5.8679">
        <ele>525.3</ele>
        <time>2021-09-09T09:09:00Z</time>
      </trkpt>
      <trkpt lat="44.20656" lon="5.86791">
        <ele>525.5</ele>
        <time>2021-09-09T09:09:01Z</time>
      </trkpt>
      <trkpt lat="44.20653" lon="5.86792">
        <ele>525.6</ele>
        <time>2021-09-09T09:09:03Z</time>
      </trkpt>
      <trkpt lat="44.20651" lon="5.86794">
        <ele>525.7</ele>
        <time>2021-09-09T09:09:04Z</time>
      </trkpt>
      <trkpt lat="44.20648" lon="5.86796">
        <ele>525.8</ele>
        <time>2021-09-09T09:09:06Z</time>
      </trkpt>
      <trkpt lat="44.20645" lon="5.86797">
        <ele>525.9</ele>
        <time>2021-09-09T09:09:07Z</time>
      </trkpt>
      <trkpt lat="44.20643" lon="5.86797">
        <ele>526</ele>
        <time>2021-09-09T09:09:08Z</time>
      </trkpt>
      <trkpt lat="44.20638" lon="5.86799">
        <ele>526.2</ele>
        <time>2021-09-09T09:09:10Z</time>
      </trkpt>
      <trkpt lat="44.20633" lon="5.868">
        <ele>526.3</ele>
        <time>2021-09-09T09:09:12Z</time>
      </trkpt>
      <trkpt lat="44.20629" lon="5.86801">
        <ele>526.4</ele>
        <time>2021-09-09T09:09:14Z</time>
      </trkpt>
      <trkpt lat="44.20625" lon="5.86803">
        <ele>526.4</ele>
        <time>2021-09-09T09:09:15Z</time>
      </trkpt>
      <trkpt lat="44.2062" lon="5.86805">
        <ele>526.4</ele>
        <time>2021-09-09T09:09:16Z</time>
      </trkpt>
      <trkpt lat="44.20614" lon="5.86808">
        <ele>526.4</ele>
        <time>2021-09-09T09:09:18Z</time>
      </trkpt>
      <trkpt lat="44.20606" lon="5.86815">
        <ele>526.3</ele>
        <time>2021-09-09T09:09:20Z</time>
      </trkpt>
      <trkpt lat="44.20602" lon="5.86818">
        <ele>526.3</ele>
        <time>2021-09-09T09:09:21Z</time>
      </trkpt>
      <trkpt lat="44.20598" lon="5.8682">
        <ele>526.2</ele>
        <time>2021-09-09T09:09:22Z</time>
      </trkpt>
      <trkpt lat="44.20589" lon="5.86824">
        <ele>526.2</ele>
        <time>2021-09-09T09:09:24Z</time>
      </trkpt>
      <trkpt lat="44.20582" lon="5.86827">
        <ele>526.2</ele>
        <time>2021-09-09T09:09:26Z</time>
      </trkpt>
      <trkpt lat="44.20576" lon="5.8683">
        <ele>526.2</ele>
        <time>2021-09-09T09:09:27Z</time>
      </trkpt>
      <trkpt lat="44.20572" lon="5.86833">
        <ele>526.2</ele>
        <time>2021-09-09T09:09:28Z</time>
      </trkpt>
      <trkpt lat="44.20566" lon="5.86837">
        <ele>526.2</ele>
        <time>2021-09-09T09:09:30Z</time>
      </trkpt>
      <trkpt lat="44.20561" lon="5.8684">
        <ele>526.2</ele>
        <time>2021-09-09T09:09:31Z</time>
      </trkpt>
      <trkpt lat="44.20554" lon="5.86842">
        <ele>526.3</ele>
        <time>2021-09-09T09:09:33Z</time>
      </trkpt>
      <trkpt lat="44.20551" lon="5.86843">
        <ele>526.4</ele>
        <time>2021-09-09T09:09:34Z</time>
      </trkpt>
      <trkpt lat="44.20548" lon="5.86844">
        <ele>526.5</ele>
        <time>2021-09-09T09:09:35Z</time>
      </trkpt>
      <trkpt lat="44.20543" lon="5.86846">
        <ele>526.6</ele>
        <time>2021-09-09T09:09:37Z</time>
      </trkpt>
      <trkpt lat="44.20541" lon="5.86846">
        <ele>526.7</ele>
        <time>2021-09-09T09:09:38Z</time>
      </trkpt>
      <trkpt lat="44.20537" lon="5.86847">
        <ele>526.8</ele>
        <time>2021-09-09T09:09:40Z</time>
      </trkpt>
      <trkpt lat="44.20534" lon="5.86848">
        <ele>526.9</ele>
        <time>2021-09-09T09:09:41Z</time>
      </trkpt>
      <trkpt lat="44.20531" lon="5.8685">
        <ele>527</ele>
        <time>2021-09-09T09:09:42Z</time>
      </trkpt>
      <trkpt lat="44.20527" lon="5.86853">
        <ele>527.2</ele>
        <time>2021-09-09T09:09:44Z</time>
      </trkpt>
      <trkpt lat="44.20524" lon="5.86857">
        <ele>527.3</ele>
        <time>2021-09-09T09:09:45Z</time>
      </trkpt>
      <trkpt lat="44.20523" lon="5.8686">
        <ele>527.4</ele>
        <time>2021-09-09T09:09:46Z</time>
      </trkpt>
      <trkpt lat="44.20519" lon="5.86865">
        <ele>527.6</ele>
        <time>2021-09-09T09:09:48Z</time>
      </trkpt>
      <trkpt lat="44.20517" lon="5.86867">
        <ele>527.7</ele>
        <time>2021-09-09T09:09:49Z</time>
      </trkpt>
      <trkpt lat="44.20513" lon="5.86869">
        <ele>527.9</ele>
        <time>2021-09-09T09:09:51Z</time>
      </trkpt>
      <trkpt lat="44.2051" lon="5.86872">
        <ele>528</ele>
        <time>2021-09-09T09:09:52Z</time>
      </trkpt>
      <trkpt lat="44.20507" lon="5.86876">
        <ele>528.2</ele>
        <time>2021-09-09T09:09:54Z</time>
      </trkpt>
      <trkpt lat="44.20506" lon="5.86877">
        <ele>528.2</ele>
        <time>2021-09-09T09:09:55Z</time>
      </trkpt>
      <trkpt lat="44.20506" lon="5.86877">
        <ele>528.2</ele>
        <time>2021-09-09T09:09:56Z</time>
      </trkpt>
      <trkpt lat="44.20509" lon="5.86878">
        <ele>528.4</ele>
        <time>2021-09-09T09:09:58Z</time>
      </trkpt>
      <trkpt lat="44.20512" lon="5.86874">
        <ele>528.5</ele>
        <time>2021-09-09T09:09:59Z</time>
      </trkpt>
      <trkpt lat="44.20514" lon="5.86871">
        <ele>528.6</ele>
        <time>2021-09-09T09:10:00Z</time>
      </trkpt>
      <trkpt lat="44.20515" lon="5.86869">
        <ele>528.7</ele>
        <time>2021-09-09T09:10:02Z</time>
      </trkpt>
      <trkpt lat="44.20515" lon="5.8687">
        <ele>528.7</ele>
        <time>2021-09-09T09:10:04Z</time>
      </trkpt>
      <trkpt lat="44.20515" lon="5.8687">
        <ele>528.7</ele>
        <time>2021-09-09T09:10:05Z</time>
      </trkpt>
      <trkpt lat="44.20515" lon="5.8687">
        <ele>528.7</ele>
        <time>2021-09-09T09:10:06Z</time>
      </trkpt>
      <trkpt lat="44.20516" lon="5.8687">
        <ele>528.7</ele>
        <time>2021-09-09T09:10:07Z</time>
      </trkpt>
      <trkpt lat="44.20515" lon="5.8687">
        <ele>528.7</ele>
        <time>2021-09-09T09:10:09Z</time>
      </trkpt>
      <trkpt lat="44.20515" lon="5.8687">
        <ele>528.7</ele>
        <time>2021-09-09T09:10:10Z</time>
      </trkpt>
      <trkpt lat="44.20515" lon="5.8687">
        <ele>528.7</ele>
        <time>2021-09-09T09:10:11Z</time>
      </trkpt>
      <trkpt lat="44.20514" lon="5.8687">
        <ele>528.7</ele>
        <time>2021-09-09T09:10:12Z</time>
      </trkpt>
      <trkpt lat="44.20491" lon="5.86876">
        <ele>529.4</ele>
        <time>2021-09-09T09:10:20Z</time>
      </trkpt>
      <trkpt lat="44.20487" lon="5.86879">
        <ele>529.5</ele>
        <time>2021-09-09T09:10:21Z</time>
      </trkpt>
      <trkpt lat="44.20482" lon="5.86881">
        <ele>529.7</ele>
        <time>2021-09-09T09:10:22Z</time>
      </trkpt>
      <trkpt lat="44.20476" lon="5.86884">
        <ele>529.8</ele>
        <time>2021-09-09T09:10:24Z</time>
      </trkpt>
      <trkpt lat="44.20474" lon="5.86886">
        <ele>529.9</ele>
        <time>2021-09-09T09:10:25Z</time>
      </trkpt>
      <trkpt lat="44.20471" lon="5.86889">
        <ele>530</ele>
        <time>2021-09-09T09:10:27Z</time>
      </trkpt>
      <trkpt lat="44.20468" lon="5.8689">
        <ele>530.1</ele>
        <time>2021-09-09T09:10:28Z</time>
      </trkpt>
      <trkpt lat="44.20464" lon="5.86893">
        <ele>530.2</ele>
        <time>2021-09-09T09:10:30Z</time>
      </trkpt>
      <trkpt lat="44.2046" lon="5.86893">
        <ele>530.4</ele>
        <time>2021-09-09T09:10:31Z</time>
      </trkpt>
      <trkpt lat="44.20458" lon="5.86894">
        <ele>530.4</ele>
        <time>2021-09-09T09:10:32Z</time>
      </trkpt>
      <trkpt lat="44.20452" lon="5.86895">
        <ele>530.6</ele>
        <time>2021-09-09T09:10:34Z</time>
      </trkpt>
      <trkpt lat="44.20449" lon="5.86896">
        <ele>530.7</ele>
        <time>2021-09-09T09:10:35Z</time>
      </trkpt>
      <trkpt lat="44.20445" lon="5.86896">
        <ele>530.8</ele>
        <time>2021-09-09T09:10:37Z</time>
      </trkpt>
      <trkpt lat="44.20441" lon="5.86898">
        <ele>530.9</ele>
        <time>2021-09-09T09:10:38Z</time>
      </trkpt>
      <trkpt lat="44.20438" lon="5.86899">
        <ele>531</ele>
        <time>2021-09-09T09:10:39Z</time>
      </trkpt>
      <trkpt lat="44.20434" lon="5.869">
        <ele>531.1</ele>
        <time>2021-09-09T09:10:41Z</time>
      </trkpt>
      <trkpt lat="44.2043" lon="5.86903">
        <ele>531.3</ele>
        <time>2021-09-09T09:10:42Z</time>
      </trkpt>
      <trkpt lat="44.20428" lon="5.86904">
        <ele>531.4</ele>
        <time>2021-09-09T09:10:43Z</time>
      </trkpt>
      <trkpt lat="44.20424" lon="5.86906">
        <ele>531.5</ele>
        <time>2021-09-09T09:10:45Z</time>
      </trkpt>
      <trkpt lat="44.20422" lon="5.86908">
        <ele>531.6</ele>
        <time>2021-09-09T09:10:46Z</time>
      </trkpt>
      <trkpt lat="44.2042" lon="5.8691">
        <ele>531.7</ele>
        <time>2021-09-09T09:10:48Z</time>
      </trkpt>
      <trkpt lat="44.20417" lon="5.86912">
        <ele>531.8</ele>
        <time>2021-09-09T09:10:49Z</time>
      </trkpt>
      <trkpt lat="44.20415" lon="5.86914">
        <ele>531.9</ele>
        <time>2021-09-09T09:10:50Z</time>
      </trkpt>
      <trkpt lat="44.20412" lon="5.86915">
        <ele>532</ele>
        <time>2021-09-09T09:10:52Z</time>
      </trkpt>
      <trkpt lat="44.20411" lon="5.86921">
        <ele>532.2</ele>
        <time>2021-09-09T09:10:54Z</time>
      </trkpt>
      <trkpt lat="44.20408" lon="5.86923">
        <ele>532.4</ele>
        <time>2021-09-09T09:10:55Z</time>
      </trkpt>
      <trkpt lat="44.20406" lon="5.86926">
        <ele>532.5</ele>
        <time>2021-09-09T09:10:56Z</time>
      </trkpt>
      <trkpt lat="44.20405" lon="5.86926">
        <ele>532.6</ele>
        <time>2021-09-09T09:10:57Z</time>
      </trkpt>
      <trkpt lat="44.20401" lon="5.86929">
        <ele>532.9</ele>
        <time>2021-09-09T09:10:59Z</time>
      </trkpt>
      <trkpt lat="44.20399" lon="5.8693">
        <ele>533</ele>
        <time>2021-09-09T09:11:00Z</time>
      </trkpt>
      <trkpt lat="44.20397" lon="5.86932">
        <ele>533.2</ele>
        <time>2021-09-09T09:11:02Z</time>
      </trkpt>
      <trkpt lat="44.20395" lon="5.86931">
        <ele>533.3</ele>
        <time>2021-09-09T09:11:03Z</time>
      </trkpt>
      <trkpt lat="44.20393" lon="5.86931">
        <ele>533.4</ele>
        <time>2021-09-09T09:11:04Z</time>
      </trkpt>
      <trkpt lat="44.20392" lon="5.86931">
        <ele>533.4</ele>
        <time>2021-09-09T09:11:05Z</time>
      </trkpt>
      <trkpt lat="44.20389" lon="5.86929">
        <ele>533.6</ele>
        <time>2021-09-09T09:11:06Z</time>
      </trkpt>
      <trkpt lat="44.20386" lon="5.86928">
        <ele>533.8</ele>
        <time>2021-09-09T09:11:08Z</time>
      </trkpt>
      <trkpt lat="44.20383" lon="5.86928">
        <ele>533.9</ele>
        <time>2021-09-09T09:11:09Z</time>
      </trkpt>
      <trkpt lat="44.20382" lon="5.86927">
        <ele>533.9</ele>
        <time>2021-09-09T09:11:10Z</time>
      </trkpt>
      <trkpt lat="44.20381" lon="5.86928">
        <ele>534</ele>
        <time>2021-09-09T09:11:11Z</time>
      </trkpt>
      <trkpt lat="44.20379" lon="5.86928">
        <ele>534.1</ele>
        <time>2021-09-09T09:11:12Z</time>
      </trkpt>
      <trkpt lat="44.20378" lon="5.86929">
        <ele>534.1</ele>
        <time>2021-09-09T09:11:13Z</time>
      </trkpt>
      <trkpt lat="44.20377" lon="5.8693">
        <ele>534.2</ele>
        <time>2021-09-09T09:11:14Z</time>
      </trkpt>
      <trkpt lat="44.20374" lon="5.86933">
        <ele>534.3</ele>
        <time>2021-09-09T09:11:16Z</time>
      </trkpt>
      <trkpt lat="44.20371" lon="5.86935">
        <ele>534.4</ele>
        <time>2021-09-09T09:11:17Z</time>
      </trkpt>
      <trkpt lat="44.20371" lon="5.86936">
        <ele>534.5</ele>
        <time>2021-09-09T09:11:18Z</time>
      </trkpt>
      <trkpt lat="44.20368" lon="5.86937">
        <ele>534.6</ele>
        <time>2021-09-09T09:11:20Z</time>
      </trkpt>
      <trkpt lat="44.20366" lon="5.86937">
        <ele>534.7</ele>
        <time>2021-09-09T09:11:21Z</time>
      </trkpt>
      <trkpt lat="44.20361" lon="5.86937">
        <ele>534.8</ele>
        <time>2021-09-09T09:11:23Z</time>
      </trkpt>
      <trkpt lat="44.20357" lon="5.86939">
        <ele>535</ele>
        <time>2021-09-09T09:11:25Z</time>
      </trkpt>
      <trkpt lat="44.20354" lon="5.86941">
        <ele>535.1</ele>
        <time>2021-09-09T09:11:26Z</time>
      </trkpt>
      <trkpt lat="44.20352" lon="5.86942">
        <ele>535.2</ele>
        <time>2021-09-09T09:11:27Z</time>
      </trkpt>
      <trkpt lat="44.20349" lon="5.86944">
        <ele>535.2</ele>
        <time>2021-09-09T09:11:29Z</time>
      </trkpt>
      <trkpt lat="44.20346" lon="5.86944">
        <ele>535.3</ele>
        <time>2021-09-09T09:11:30Z</time>
      </trkpt>
      <trkpt lat="44.20343" lon="5.86945">
        <ele>535.3</ele>
        <time>2021-09-09T09:11:32Z</time>
      </trkpt>
      <trkpt lat="44.2034" lon="5.86946">
        <ele>535.4</ele>
        <time>2021-09-09T09:11:33Z</time>
      </trkpt>
      <trkpt lat="44.20339" lon="5.86946">
        <ele>535.4</ele>
        <time>2021-09-09T09:11:34Z</time>
      </trkpt>
      <trkpt lat="44.20337" lon="5.86947">
        <ele>535.4</ele>
        <time>2021-09-09T09:11:35Z</time>
      </trkpt>
      <trkpt lat="44.20335" lon="5.86947">
        <ele>535.4</ele>
        <time>2021-09-09T09:11:36Z</time>
      </trkpt>
      <trkpt lat="44.20332" lon="5.86948">
        <ele>535.4</ele>
        <time>2021-09-09T09:11:38Z</time>
      </trkpt>
      <trkpt lat="44.20329" lon="5.86949">
        <ele>535.3</ele>
        <time>2021-09-09T09:11:39Z</time>
      </trkpt>
      <trkpt lat="44.20324" lon="5.86949">
        <ele>535.3</ele>
        <time>2021-09-09T09:11:41Z</time>
      </trkpt>
      <trkpt lat="44.20322" lon="5.8695">
        <ele>535.3</ele>
        <time>2021-09-09T09:11:42Z</time>
      </trkpt>
      <trkpt lat="44.2032" lon="5.8695">
        <ele>535.3</ele>
        <time>2021-09-09T09:11:43Z</time>
      </trkpt>
      <trkpt lat="44.20318" lon="5.86951">
        <ele>535.3</ele>
        <time>2021-09-09T09:11:44Z</time>
      </trkpt>
      <trkpt lat="44.20315" lon="5.86952">
        <ele>535.3</ele>
        <time>2021-09-09T09:11:46Z</time>
      </trkpt>
      <trkpt lat="44.20312" lon="5.86954">
        <ele>535.3</ele>
        <time>2021-09-09T09:11:47Z</time>
      </trkpt>
      <trkpt lat="44.20309" lon="5.86956">
        <ele>535.4</ele>
        <time>2021-09-09T09:11:48Z</time>
      </trkpt>
      <trkpt lat="44.20305" lon="5.86959">
        <ele>535.6</ele>
        <time>2021-09-09T09:11:50Z</time>
      </trkpt>
      <trkpt lat="44.20302" lon="5.86961">
        <ele>535.9</ele>
        <time>2021-09-09T09:11:51Z</time>
      </trkpt>
      <trkpt lat="44.20297" lon="5.86963">
        <ele>536.3</ele>
        <time>2021-09-09T09:11:53Z</time>
      </trkpt>
      <trkpt lat="44.20293" lon="5.86963">
        <ele>536.6</ele>
        <time>2021-09-09T09:11:54Z</time>
      </trkpt>
      <trkpt lat="44.20289" lon="5.86961">
        <ele>537.1</ele>
        <time>2021-09-09T09:11:56Z</time>
      </trkpt>
      <trkpt lat="44.20288" lon="5.86959">
        <ele>537.2</ele>
        <time>2021-09-09T09:11:57Z</time>
      </trkpt>
      <trkpt lat="44.20287" lon="5.86958">
        <ele>537.3</ele>
        <time>2021-09-09T09:11:59Z</time>
      </trkpt>
      <trkpt lat="44.20286" lon="5.86956">
        <ele>537.5</ele>
        <time>2021-09-09T09:12:00Z</time>
      </trkpt>
      <trkpt lat="44.20285" lon="5.86953">
        <ele>537.7</ele>
        <time>2021-09-09T09:12:01Z</time>
      </trkpt>
      <trkpt lat="44.20284" lon="5.86952">
        <ele>537.8</ele>
        <time>2021-09-09T09:12:03Z</time>
      </trkpt>
      <trkpt lat="44.20284" lon="5.8695">
        <ele>537.9</ele>
        <time>2021-09-09T09:12:04Z</time>
      </trkpt>
      <trkpt lat="44.20283" lon="5.86949">
        <ele>537.9</ele>
        <time>2021-09-09T09:12:05Z</time>
      </trkpt>
      <trkpt lat="44.20283" lon="5.86948">
        <ele>538</ele>
        <time>2021-09-09T09:12:07Z</time>
      </trkpt>
      <trkpt lat="44.20282" lon="5.86947">
        <ele>538.1</ele>
        <time>2021-09-09T09:12:08Z</time>
      </trkpt>
      <trkpt lat="44.20282" lon="5.86946">
        <ele>538.2</ele>
        <time>2021-09-09T09:12:09Z</time>
      </trkpt>
      <trkpt lat="44.20281" lon="5.86945">
        <ele>538.3</ele>
        <time>2021-09-09T09:12:10Z</time>
      </trkpt>
      <trkpt lat="44.20279" lon="5.86943">
        <ele>538.5</ele>
        <time>2021-09-09T09:12:11Z</time>
      </trkpt>
      <trkpt lat="44.20278" lon="5.86942">
        <ele>538.6</ele>
        <time>2021-09-09T09:12:12Z</time>
      </trkpt>
      <trkpt lat="44.20275" lon="5.8694">
        <ele>538.8</ele>
        <time>2021-09-09T09:12:14Z</time>
      </trkpt>
      <trkpt lat="44.20274" lon="5.8694">
        <ele>538.8</ele>
        <time>2021-09-09T09:12:15Z</time>
      </trkpt>
      <trkpt lat="44.20272" lon="5.86937">
        <ele>539</ele>
        <time>2021-09-09T09:12:16Z</time>
      </trkpt>
      <trkpt lat="44.20271" lon="5.86936">
        <ele>539.1</ele>
        <time>2021-09-09T09:12:17Z</time>
      </trkpt>
      <trkpt lat="44.20269" lon="5.86933">
        <ele>539.3</ele>
        <time>2021-09-09T09:12:19Z</time>
      </trkpt>
      <trkpt lat="44.20268" lon="5.86931">
        <ele>539.3</ele>
        <time>2021-09-09T09:12:20Z</time>
      </trkpt>
      <trkpt lat="44.20265" lon="5.86928">
        <ele>539.6</ele>
        <time>2021-09-09T09:12:22Z</time>
      </trkpt>
      <trkpt lat="44.20264" lon="5.86927">
        <ele>539.7</ele>
        <time>2021-09-09T09:12:24Z</time>
      </trkpt>
      <trkpt lat="44.20262" lon="5.86926">
        <ele>539.7</ele>
        <time>2021-09-09T09:12:25Z</time>
      </trkpt>
      <trkpt lat="44.20259" lon="5.86924">
        <ele>539.9</ele>
        <time>2021-09-09T09:12:26Z</time>
      </trkpt>
      <trkpt lat="44.20258" lon="5.86923">
        <ele>540</ele>
        <time>2021-09-09T09:12:27Z</time>
      </trkpt>
      <trkpt lat="44.20253" lon="5.86921">
        <ele>540.3</ele>
        <time>2021-09-09T09:12:29Z</time>
      </trkpt>
      <trkpt lat="44.20251" lon="5.86921">
        <ele>540.4</ele>
        <time>2021-09-09T09:12:31Z</time>
      </trkpt>
      <trkpt lat="44.2025" lon="5.86921">
        <ele>540.5</ele>
        <time>2021-09-09T09:12:32Z</time>
      </trkpt>
      <trkpt lat="44.20248" lon="5.8692">
        <ele>540.6</ele>
        <time>2021-09-09T09:12:33Z</time>
      </trkpt>
      <trkpt lat="44.20244" lon="5.86919">
        <ele>540.8</ele>
        <time>2021-09-09T09:12:35Z</time>
      </trkpt>
      <trkpt lat="44.20243" lon="5.86919">
        <ele>540.9</ele>
        <time>2021-09-09T09:12:36Z</time>
      </trkpt>
      <trkpt lat="44.20241" lon="5.86919">
        <ele>541</ele>
        <time>2021-09-09T09:12:38Z</time>
      </trkpt>
      <trkpt lat="44.20239" lon="5.86919">
        <ele>541.1</ele>
        <time>2021-09-09T09:12:39Z</time>
      </trkpt>
      <trkpt lat="44.20236" lon="5.86918">
        <ele>541.3</ele>
        <time>2021-09-09T09:12:41Z</time>
      </trkpt>
      <trkpt lat="44.20234" lon="5.86918">
        <ele>541.4</ele>
        <time>2021-09-09T09:12:42Z</time>
      </trkpt>
      <trkpt lat="44.20232" lon="5.86917">
        <ele>541.5</ele>
        <time>2021-09-09T09:12:44Z</time>
      </trkpt>
      <trkpt lat="44.20231" lon="5.86916">
        <ele>541.6</ele>
        <time>2021-09-09T09:12:45Z</time>
      </trkpt>
      <trkpt lat="44.20229" lon="5.86916">
        <ele>541.7</ele>
        <time>2021-09-09T09:12:46Z</time>
      </trkpt>
      <trkpt lat="44.20226" lon="5.86916">
        <ele>541.9</ele>
        <time>2021-09-09T09:12:48Z</time>
      </trkpt>
      <trkpt lat="44.20225" lon="5.86917">
        <ele>542</ele>
        <time>2021-09-09T09:12:49Z</time>
      </trkpt>
      <trkpt lat="44.20222" lon="5.86916">
        <ele>542.2</ele>
        <time>2021-09-09T09:12:51Z</time>
      </trkpt>
      <trkpt lat="44.20221" lon="5.86916">
        <ele>542.3</ele>
        <time>2021-09-09T09:12:52Z</time>
      </trkpt>
      <trkpt lat="44.2022" lon="5.86915">
        <ele>542.3</ele>
        <time>2021-09-09T09:12:53Z</time>
      </trkpt>
      <trkpt lat="44.20219" lon="5.86914">
        <ele>542.5</ele>
        <time>2021-09-09T09:12:54Z</time>
      </trkpt>
      <trkpt lat="44.20218" lon="5.86914">
        <ele>542.5</ele>
        <time>2021-09-09T09:12:56Z</time>
      </trkpt>
      <trkpt lat="44.20218" lon="5.86914">
        <ele>542.6</ele>
        <time>2021-09-09T09:12:57Z</time>
      </trkpt>
      <trkpt lat="44.20216" lon="5.86913">
        <ele>542.7</ele>
        <time>2021-09-09T09:12:58Z</time>
      </trkpt>
      <trkpt lat="44.20216" lon="5.86912">
        <ele>542.8</ele>
        <time>2021-09-09T09:12:59Z</time>
      </trkpt>
      <trkpt lat="44.20214" lon="5.86911">
        <ele>542.9</ele>
        <time>2021-09-09T09:13:01Z</time>
      </trkpt>
      <trkpt lat="44.20212" lon="5.86911">
        <ele>543</ele>
        <time>2021-09-09T09:13:02Z</time>
      </trkpt>
      <trkpt lat="44.20211" lon="5.86912">
        <ele>543.2</ele>
        <time>2021-09-09T09:13:04Z</time>
      </trkpt>
      <trkpt lat="44.20209" lon="5.86912">
        <ele>543.3</ele>
        <time>2021-09-09T09:13:05Z</time>
      </trkpt>
      <trkpt lat="44.20208" lon="5.86911">
        <ele>543.5</ele>
        <time>2021-09-09T09:13:06Z</time>
      </trkpt>
      <trkpt lat="44.20206" lon="5.86912">
        <ele>543.6</ele>
        <time>2021-09-09T09:13:08Z</time>
      </trkpt>
      <trkpt lat="44.20204" lon="5.86912">
        <ele>543.8</ele>
        <time>2021-09-09T09:13:09Z</time>
      </trkpt>
      <trkpt lat="44.20203" lon="5.86912">
        <ele>543.9</ele>
        <time>2021-09-09T09:13:10Z</time>
      </trkpt>
      <trkpt lat="44.202" lon="5.86911">
        <ele>544.2</ele>
        <time>2021-09-09T09:13:12Z</time>
      </trkpt>
      <trkpt lat="44.20197" lon="5.86912">
        <ele>544.5</ele>
        <time>2021-09-09T09:13:14Z</time>
      </trkpt>
      <trkpt lat="44.20196" lon="5.86912">
        <ele>544.6</ele>
        <time>2021-09-09T09:13:15Z</time>
      </trkpt>
      <trkpt lat="44.20194" lon="5.86912">
        <ele>544.9</ele>
        <time>2021-09-09T09:13:17Z</time>
      </trkpt>
      <trkpt lat="44.20194" lon="5.86912">
        <ele>545</ele>
        <time>2021-09-09T09:13:18Z</time>
      </trkpt>
      <trkpt lat="44.20193" lon="5.86912">
        <ele>545</ele>
        <time>2021-09-09T09:13:19Z</time>
      </trkpt>
      <trkpt lat="44.20192" lon="5.86911">
        <ele>545.2</ele>
        <time>2021-09-09T09:13:20Z</time>
      </trkpt>
      <trkpt lat="44.20191" lon="5.86911">
        <ele>545.2</ele>
        <time>2021-09-09T09:13:21Z</time>
      </trkpt>
      <trkpt lat="44.20191" lon="5.8691">
        <ele>545.3</ele>
        <time>2021-09-09T09:13:22Z</time>
      </trkpt>
      <trkpt lat="44.20187" lon="5.8691">
        <ele>545.8</ele>
        <time>2021-09-09T09:13:24Z</time>
      </trkpt>
      <trkpt lat="44.20183" lon="5.86911">
        <ele>546.4</ele>
        <time>2021-09-09T09:13:26Z</time>
      </trkpt>
      <trkpt lat="44.20178" lon="5.86911">
        <ele>546.9</ele>
        <time>2021-09-09T09:13:27Z</time>
      </trkpt>
      <trkpt lat="44.20174" lon="5.86912">
        <ele>547.5</ele>
        <time>2021-09-09T09:13:28Z</time>
      </trkpt>
      <trkpt lat="44.2017" lon="5.86913">
        <ele>548.1</ele>
        <time>2021-09-09T09:13:30Z</time>
      </trkpt>
      <trkpt lat="44.20165" lon="5.86913">
        <ele>548.6</ele>
        <time>2021-09-09T09:13:32Z</time>
      </trkpt>
      <trkpt lat="44.20161" lon="5.86914">
        <ele>549.1</ele>
        <time>2021-09-09T09:13:33Z</time>
      </trkpt>
      <trkpt lat="44.20156" lon="5.86915">
        <ele>549.5</ele>
        <time>2021-09-09T09:14:26Z</time>
      </trkpt>
      <trkpt lat="44.20152" lon="5.86915">
        <ele>549.9</ele>
        <time>2021-09-09T09:14:27Z</time>
      </trkpt>
      <trkpt lat="44.20148" lon="5.86916">
        <ele>550.2</ele>
        <time>2021-09-09T09:14:28Z</time>
      </trkpt>
      <trkpt lat="44.20146" lon="5.86915">
        <ele>550.4</ele>
        <time>2021-09-09T09:14:29Z</time>
      </trkpt>
      <trkpt lat="44.20145" lon="5.86914">
        <ele>550.4</ele>
        <time>2021-09-09T09:14:31Z</time>
      </trkpt>
      <trkpt lat="44.20144" lon="5.86913">
        <ele>550.5</ele>
        <time>2021-09-09T09:14:32Z</time>
      </trkpt>
      <trkpt lat="44.20144" lon="5.86913">
        <ele>550.5</ele>
        <time>2021-09-09T09:14:33Z</time>
      </trkpt>
      <trkpt lat="44.20144" lon="5.86912">
        <ele>550.5</ele>
        <time>2021-09-09T09:14:34Z</time>
      </trkpt>
      <trkpt lat="44.20144" lon="5.86913">
        <ele>550.5</ele>
        <time>2021-09-09T09:14:36Z</time>
      </trkpt>
      <trkpt lat="44.20143" lon="5.86914">
        <ele>550.6</ele>
        <time>2021-09-09T09:14:37Z</time>
      </trkpt>
      <trkpt lat="44.20142" lon="5.86914">
        <ele>550.6</ele>
        <time>2021-09-09T09:14:39Z</time>
      </trkpt>
      <trkpt lat="44.20141" lon="5.86915">
        <ele>550.7</ele>
        <time>2021-09-09T09:14:40Z</time>
      </trkpt>
      <trkpt lat="44.2014" lon="5.86916">
        <ele>550.8</ele>
        <time>2021-09-09T09:14:42Z</time>
      </trkpt>
      <trkpt lat="44.20139" lon="5.86917">
        <ele>550.8</ele>
        <time>2021-09-09T09:14:43Z</time>
      </trkpt>
      <trkpt lat="44.20138" lon="5.86918">
        <ele>550.9</ele>
        <time>2021-09-09T09:14:44Z</time>
      </trkpt>
      <trkpt lat="44.20136" lon="5.86919">
        <ele>551</ele>
        <time>2021-09-09T09:14:46Z</time>
      </trkpt>
      <trkpt lat="44.20132" lon="5.86922">
        <ele>551.2</ele>
        <time>2021-09-09T09:14:49Z</time>
      </trkpt>
      <trkpt lat="44.2013" lon="5.86925">
        <ele>551.4</ele>
        <time>2021-09-09T09:14:50Z</time>
      </trkpt>
      <trkpt lat="44.20126" lon="5.8693">
        <ele>551.6</ele>
        <time>2021-09-09T09:14:52Z</time>
      </trkpt>
      <trkpt lat="44.20123" lon="5.86933">
        <ele>551.9</ele>
        <time>2021-09-09T09:14:54Z</time>
      </trkpt>
      <trkpt lat="44.2012" lon="5.86934">
        <ele>552.1</ele>
        <time>2021-09-09T09:14:55Z</time>
      </trkpt>
      <trkpt lat="44.20116" lon="5.86936">
        <ele>552.3</ele>
        <time>2021-09-09T09:14:57Z</time>
      </trkpt>
      <trkpt lat="44.20113" lon="5.86937">
        <ele>552.5</ele>
        <time>2021-09-09T09:14:58Z</time>
      </trkpt>
      <trkpt lat="44.2011" lon="5.86938">
        <ele>552.7</ele>
        <time>2021-09-09T09:14:59Z</time>
      </trkpt>
      <trkpt lat="44.20109" lon="5.86938">
        <ele>552.8</ele>
        <time>2021-09-09T09:15:00Z</time>
      </trkpt>
      <trkpt lat="44.20107" lon="5.86939">
        <ele>552.9</ele>
        <time>2021-09-09T09:15:01Z</time>
      </trkpt>
      <trkpt lat="44.20104" lon="5.86942">
        <ele>553.2</ele>
        <time>2021-09-09T09:15:03Z</time>
      </trkpt>
      <trkpt lat="44.20102" lon="5.86945">
        <ele>553.4</ele>
        <time>2021-09-09T09:15:05Z</time>
      </trkpt>
      <trkpt lat="44.20099" lon="5.86947">
        <ele>553.7</ele>
        <time>2021-09-09T09:15:07Z</time>
      </trkpt>
      <trkpt lat="44.20098" lon="5.86949">
        <ele>553.8</ele>
        <time>2021-09-09T09:15:08Z</time>
      </trkpt>
      <trkpt lat="44.20096" lon="5.86949">
        <ele>553.9</ele>
        <time>2021-09-09T09:15:09Z</time>
      </trkpt>
      <trkpt lat="44.20093" lon="5.86948">
        <ele>554.2</ele>
        <time>2021-09-09T09:15:11Z</time>
      </trkpt>
      <trkpt lat="44.20091" lon="5.86948">
        <ele>554.3</ele>
        <time>2021-09-09T09:15:12Z</time>
      </trkpt>
      <trkpt lat="44.2009" lon="5.86948">
        <ele>554.4</ele>
        <time>2021-09-09T09:15:13Z</time>
      </trkpt>
      <trkpt lat="44.20087" lon="5.86949">
        <ele>554.6</ele>
        <time>2021-09-09T09:15:15Z</time>
      </trkpt>
      <trkpt lat="44.20083" lon="5.86952">
        <ele>554.9</ele>
        <time>2021-09-09T09:15:17Z</time>
      </trkpt>
      <trkpt lat="44.20083" lon="5.86953">
        <ele>554.9</ele>
        <time>2021-09-09T09:15:18Z</time>
      </trkpt>
      <trkpt lat="44.20079" lon="5.86954">
        <ele>555.1</ele>
        <time>2021-09-09T09:15:19Z</time>
      </trkpt>
      <trkpt lat="44.20079" lon="5.86954">
        <ele>555.2</ele>
        <time>2021-09-09T09:15:20Z</time>
      </trkpt>
      <trkpt lat="44.20075" lon="5.86954">
        <ele>555.4</ele>
        <time>2021-09-09T09:15:22Z</time>
      </trkpt>
      <trkpt lat="44.20074" lon="5.86954">
        <ele>555.5</ele>
        <time>2021-09-09T09:15:23Z</time>
      </trkpt>
      <trkpt lat="44.20073" lon="5.86953">
        <ele>555.5</ele>
        <time>2021-09-09T09:15:24Z</time>
      </trkpt>
      <trkpt lat="44.2007" lon="5.86954">
        <ele>555.7</ele>
        <time>2021-09-09T09:15:26Z</time>
      </trkpt>
      <trkpt lat="44.20069" lon="5.86954">
        <ele>555.7</ele>
        <time>2021-09-09T09:15:27Z</time>
      </trkpt>
      <trkpt lat="44.20068" lon="5.86954">
        <ele>555.7</ele>
        <time>2021-09-09T09:15:28Z</time>
      </trkpt>
      <trkpt lat="44.20068" lon="5.86954">
        <ele>555.8</ele>
        <time>2021-09-09T09:15:29Z</time>
      </trkpt>
      <trkpt lat="44.20067" lon="5.86954">
        <ele>555.8</ele>
        <time>2021-09-09T09:15:30Z</time>
      </trkpt>
      <trkpt lat="44.20067" lon="5.86954">
        <ele>555.8</ele>
        <time>2021-09-09T09:15:32Z</time>
      </trkpt>
      <trkpt lat="44.20066" lon="5.86954">
        <ele>555.8</ele>
        <time>2021-09-09T09:15:33Z</time>
      </trkpt>
      <trkpt lat="44.20062" lon="5.86957">
        <ele>556</ele>
        <time>2021-09-09T09:15:35Z</time>
      </trkpt>
      <trkpt lat="44.2006" lon="5.86958">
        <ele>556</ele>
        <time>2021-09-09T09:15:36Z</time>
      </trkpt>
      <trkpt lat="44.20058" lon="5.8696">
        <ele>556.1</ele>
        <time>2021-09-09T09:15:38Z</time>
      </trkpt>
      <trkpt lat="44.20055" lon="5.86961">
        <ele>556.1</ele>
        <time>2021-09-09T09:15:39Z</time>
      </trkpt>
      <trkpt lat="44.20049" lon="5.86962">
        <ele>556.1</ele>
        <time>2021-09-09T09:15:41Z</time>
      </trkpt>
      <trkpt lat="44.20044" lon="5.86964">
        <ele>556</ele>
        <time>2021-09-09T09:15:42Z</time>
      </trkpt>
      <trkpt lat="44.20037" lon="5.86967">
        <ele>555.7</ele>
        <time>2021-09-09T09:15:44Z</time>
      </trkpt>
      <trkpt lat="44.20032" lon="5.86969">
        <ele>555.5</ele>
        <time>2021-09-09T09:15:45Z</time>
      </trkpt>
      <trkpt lat="44.20028" lon="5.8697">
        <ele>555.3</ele>
        <time>2021-09-09T09:15:46Z</time>
      </trkpt>
      <trkpt lat="44.20021" lon="5.86973">
        <ele>554.9</ele>
        <time>2021-09-09T09:15:48Z</time>
      </trkpt>
      <trkpt lat="44.20015" lon="5.86974">
        <ele>554.6</ele>
        <time>2021-09-09T09:15:49Z</time>
      </trkpt>
      <trkpt lat="44.20008" lon="5.86976">
        <ele>554.3</ele>
        <time>2021-09-09T09:15:51Z</time>
      </trkpt>
      <trkpt lat="44.20002" lon="5.86977">
        <ele>553.9</ele>
        <time>2021-09-09T09:15:52Z</time>
      </trkpt>
      <trkpt lat="44.19998" lon="5.86978">
        <ele>553.4</ele>
        <time>2021-09-09T09:15:53Z</time>
      </trkpt>
      <trkpt lat="44.19994" lon="5.8698">
        <ele>552.9</ele>
        <time>2021-09-09T09:15:54Z</time>
      </trkpt>
      <trkpt lat="44.1999" lon="5.8698">
        <ele>552.5</ele>
        <time>2021-09-09T09:15:55Z</time>
      </trkpt>
      <trkpt lat="44.19985" lon="5.86982">
        <ele>551.9</ele>
        <time>2021-09-09T09:15:57Z</time>
      </trkpt>
      <trkpt lat="44.1998" lon="5.86984">
        <ele>551.2</ele>
        <time>2021-09-09T09:15:58Z</time>
      </trkpt>
      <trkpt lat="44.19974" lon="5.86986">
        <ele>550.4</ele>
        <time>2021-09-09T09:16:00Z</time>
      </trkpt>
      <trkpt lat="44.19971" lon="5.86986">
        <ele>549.9</ele>
        <time>2021-09-09T09:16:01Z</time>
      </trkpt>
      <trkpt lat="44.19966" lon="5.86989">
        <ele>549.2</ele>
        <time>2021-09-09T09:16:03Z</time>
      </trkpt>
      <trkpt lat="44.19964" lon="5.8699">
        <ele>549</ele>
        <time>2021-09-09T09:16:04Z</time>
      </trkpt>
      <trkpt lat="44.19961" lon="5.86991">
        <ele>548.5</ele>
        <time>2021-09-09T09:16:07Z</time>
      </trkpt>
      <trkpt lat="44.19957" lon="5.86992">
        <ele>548.2</ele>
        <time>2021-09-09T09:16:08Z</time>
      </trkpt>
      <trkpt lat="44.19954" lon="5.86991">
        <ele>547.8</ele>
        <time>2021-09-09T09:16:10Z</time>
      </trkpt>
      <trkpt lat="44.1995" lon="5.86993">
        <ele>547.3</ele>
        <time>2021-09-09T09:16:12Z</time>
      </trkpt>
      <trkpt lat="44.19947" lon="5.86994">
        <ele>546.9</ele>
        <time>2021-09-09T09:16:14Z</time>
      </trkpt>
      <trkpt lat="44.19945" lon="5.86994">
        <ele>546.8</ele>
        <time>2021-09-09T09:16:15Z</time>
      </trkpt>
      <trkpt lat="44.19942" lon="5.86996">
        <ele>546.5</ele>
        <time>2021-09-09T09:16:17Z</time>
      </trkpt>
      <trkpt lat="44.19939" lon="5.87">
        <ele>546.1</ele>
        <time>2021-09-09T09:16:18Z</time>
      </trkpt>
      <trkpt lat="44.19938" lon="5.87004">
        <ele>545.9</ele>
        <time>2021-09-09T09:16:19Z</time>
      </trkpt>
      <trkpt lat="44.19938" lon="5.87008">
        <ele>545.6</ele>
        <time>2021-09-09T09:16:20Z</time>
      </trkpt>
      <trkpt lat="44.1994" lon="5.87011">
        <ele>545.4</ele>
        <time>2021-09-09T09:16:21Z</time>
      </trkpt>
      <trkpt lat="44.19946" lon="5.87014">
        <ele>545.4</ele>
        <time>2021-09-09T09:16:23Z</time>
      </trkpt>
      <trkpt lat="44.19949" lon="5.87016">
        <ele>545.1</ele>
        <time>2021-09-09T09:16:24Z</time>
      </trkpt>
      <trkpt lat="44.19953" lon="5.87018">
        <ele>544.8</ele>
        <time>2021-09-09T09:16:25Z</time>
      </trkpt>
      <trkpt lat="44.19958" lon="5.8702">
        <ele>544.5</ele>
        <time>2021-09-09T09:16:26Z</time>
      </trkpt>
      <trkpt lat="44.19962" lon="5.87021">
        <ele>544.2</ele>
        <time>2021-09-09T09:16:27Z</time>
      </trkpt>
      <trkpt lat="44.19968" lon="5.87023">
        <ele>543.8</ele>
        <time>2021-09-09T09:16:29Z</time>
      </trkpt>
      <trkpt lat="44.19975" lon="5.87025">
        <ele>543.5</ele>
        <time>2021-09-09T09:16:30Z</time>
      </trkpt>
      <trkpt lat="44.1998" lon="5.8703">
        <ele>543.1</ele>
        <time>2021-09-09T09:16:32Z</time>
      </trkpt>
      <trkpt lat="44.19981" lon="5.87037">
        <ele>542.8</ele>
        <time>2021-09-09T09:16:33Z</time>
      </trkpt>
      <trkpt lat="44.19981" lon="5.87043">
        <ele>542.6</ele>
        <time>2021-09-09T09:16:34Z</time>
      </trkpt>
      <trkpt lat="44.1998" lon="5.8705">
        <ele>542.3</ele>
        <time>2021-09-09T09:16:35Z</time>
      </trkpt>
      <trkpt lat="44.19979" lon="5.87061">
        <ele>541.9</ele>
        <time>2021-09-09T09:16:37Z</time>
      </trkpt>
      <trkpt lat="44.19978" lon="5.87083">
        <ele>541.1</ele>
        <time>2021-09-09T09:16:39Z</time>
      </trkpt>
      <trkpt lat="44.19979" lon="5.87092">
        <ele>540.7</ele>
        <time>2021-09-09T09:16:40Z</time>
      </trkpt>
      <trkpt lat="44.1998" lon="5.87108">
        <ele>540.2</ele>
        <time>2021-09-09T09:16:42Z</time>
      </trkpt>
      <trkpt lat="44.19982" lon="5.87114">
        <ele>539.9</ele>
        <time>2021-09-09T09:16:43Z</time>
      </trkpt>
      <trkpt lat="44.19983" lon="5.8712">
        <ele>539.7</ele>
        <time>2021-09-09T09:16:44Z</time>
      </trkpt>
      <trkpt lat="44.19984" lon="5.87134">
        <ele>539.2</ele>
        <time>2021-09-09T09:16:46Z</time>
      </trkpt>
      <trkpt lat="44.19984" lon="5.87148">
        <ele>538.8</ele>
        <time>2021-09-09T09:16:48Z</time>
      </trkpt>
      <trkpt lat="44.19985" lon="5.87155">
        <ele>538.5</ele>
        <time>2021-09-09T09:16:50Z</time>
      </trkpt>
      <trkpt lat="44.1999" lon="5.87169">
        <ele>538.1</ele>
        <time>2021-09-09T09:16:51Z</time>
      </trkpt>
      <trkpt lat="44.19994" lon="5.87174">
        <ele>537.9</ele>
        <time>2021-09-09T09:16:52Z</time>
      </trkpt>
      <trkpt lat="44.20002" lon="5.87184">
        <ele>537.6</ele>
        <time>2021-09-09T09:16:54Z</time>
      </trkpt>
      <trkpt lat="44.20013" lon="5.87188">
        <ele>537.2</ele>
        <time>2021-09-09T09:16:56Z</time>
      </trkpt>
      <trkpt lat="44.20017" lon="5.87192">
        <ele>537</ele>
        <time>2021-09-09T09:16:57Z</time>
      </trkpt>
      <trkpt lat="44.20022" lon="5.87195">
        <ele>536.8</ele>
        <time>2021-09-09T09:16:58Z</time>
      </trkpt>
      <trkpt lat="44.2003" lon="5.87202">
        <ele>536.5</ele>
        <time>2021-09-09T09:17:01Z</time>
      </trkpt>
      <trkpt lat="44.20038" lon="5.87209">
        <ele>536.2</ele>
        <time>2021-09-09T09:17:02Z</time>
      </trkpt>
      <trkpt lat="44.20042" lon="5.87213">
        <ele>535.9</ele>
        <time>2021-09-09T09:17:03Z</time>
      </trkpt>
      <trkpt lat="44.2005" lon="5.87223">
        <ele>535.4</ele>
        <time>2021-09-09T09:17:05Z</time>
      </trkpt>
      <trkpt lat="44.20053" lon="5.87228">
        <ele>535.2</ele>
        <time>2021-09-09T09:17:06Z</time>
      </trkpt>
      <trkpt lat="44.20059" lon="5.8724">
        <ele>534.6</ele>
        <time>2021-09-09T09:17:08Z</time>
      </trkpt>
      <trkpt lat="44.20064" lon="5.87252">
        <ele>534.1</ele>
        <time>2021-09-09T09:17:10Z</time>
      </trkpt>
      <trkpt lat="44.20067" lon="5.87258">
        <ele>533.7</ele>
        <time>2021-09-09T09:17:12Z</time>
      </trkpt>
      <trkpt lat="44.20072" lon="5.87274">
        <ele>533</ele>
        <time>2021-09-09T09:17:13Z</time>
      </trkpt>
      <trkpt lat="44.20077" lon="5.87293">
        <ele>532.1</ele>
        <time>2021-09-09T09:17:15Z</time>
      </trkpt>
      <trkpt lat="44.20079" lon="5.87304">
        <ele>531.7</ele>
        <time>2021-09-09T09:17:16Z</time>
      </trkpt>
      <trkpt lat="44.20082" lon="5.87315">
        <ele>531.2</ele>
        <time>2021-09-09T09:17:17Z</time>
      </trkpt>
      <trkpt lat="44.20089" lon="5.87335">
        <ele>530.4</ele>
        <time>2021-09-09T09:17:19Z</time>
      </trkpt>
      <trkpt lat="44.20094" lon="5.87343">
        <ele>530</ele>
        <time>2021-09-09T09:17:20Z</time>
      </trkpt>
      <trkpt lat="44.20099" lon="5.87351">
        <ele>529.7</ele>
        <time>2021-09-09T09:17:21Z</time>
      </trkpt>
      <trkpt lat="44.20105" lon="5.87359">
        <ele>529.3</ele>
        <time>2021-09-09T09:17:23Z</time>
      </trkpt>
      <trkpt lat="44.20116" lon="5.87373">
        <ele>528.7</ele>
        <time>2021-09-09T09:17:24Z</time>
      </trkpt>
      <trkpt lat="44.20129" lon="5.87382">
        <ele>528.2</ele>
        <time>2021-09-09T09:17:26Z</time>
      </trkpt>
      <trkpt lat="44.20136" lon="5.87385">
        <ele>528</ele>
        <time>2021-09-09T09:17:27Z</time>
      </trkpt>
      <trkpt lat="44.20143" lon="5.87388">
        <ele>527.7</ele>
        <time>2021-09-09T09:17:28Z</time>
      </trkpt>
      <trkpt lat="44.2015" lon="5.8739">
        <ele>527.5</ele>
        <time>2021-09-09T09:17:29Z</time>
      </trkpt>
      <trkpt lat="44.20163" lon="5.87399">
        <ele>527.1</ele>
        <time>2021-09-09T09:17:31Z</time>
      </trkpt>
      <trkpt lat="44.20174" lon="5.87412">
        <ele>526.5</ele>
        <time>2021-09-09T09:17:33Z</time>
      </trkpt>
      <trkpt lat="44.20179" lon="5.87418">
        <ele>526.3</ele>
        <time>2021-09-09T09:17:34Z</time>
      </trkpt>
      <trkpt lat="44.20188" lon="5.8743">
        <ele>525.7</ele>
        <time>2021-09-09T09:17:36Z</time>
      </trkpt>
      <trkpt lat="44.20193" lon="5.87436">
        <ele>525.4</ele>
        <time>2021-09-09T09:17:37Z</time>
      </trkpt>
      <trkpt lat="44.20204" lon="5.87446">
        <ele>524.9</ele>
        <time>2021-09-09T09:17:39Z</time>
      </trkpt>
      <trkpt lat="44.20209" lon="5.87451">
        <ele>524.7</ele>
        <time>2021-09-09T09:17:40Z</time>
      </trkpt>
      <trkpt lat="44.20215" lon="5.87455">
        <ele>524.5</ele>
        <time>2021-09-09T09:17:41Z</time>
      </trkpt>
      <trkpt lat="44.20227" lon="5.87464">
        <ele>523.9</ele>
        <time>2021-09-09T09:17:43Z</time>
      </trkpt>
      <trkpt lat="44.20233" lon="5.87469">
        <ele>523.7</ele>
        <time>2021-09-09T09:17:44Z</time>
      </trkpt>
      <trkpt lat="44.20244" lon="5.87477">
        <ele>523.2</ele>
        <time>2021-09-09T09:17:46Z</time>
      </trkpt>
      <trkpt lat="44.20256" lon="5.87485">
        <ele>522.7</ele>
        <time>2021-09-09T09:17:48Z</time>
      </trkpt>
      <trkpt lat="44.20267" lon="5.87492">
        <ele>522.2</ele>
        <time>2021-09-09T09:17:50Z</time>
      </trkpt>
      <trkpt lat="44.20279" lon="5.875">
        <ele>521.6</ele>
        <time>2021-09-09T09:17:52Z</time>
      </trkpt>
      <trkpt lat="44.2029" lon="5.87506">
        <ele>521</ele>
        <time>2021-09-09T09:17:54Z</time>
      </trkpt>
      <trkpt lat="44.20295" lon="5.87509">
        <ele>520.7</ele>
        <time>2021-09-09T09:17:55Z</time>
      </trkpt>
      <trkpt lat="44.20307" lon="5.87515">
        <ele>520.1</ele>
        <time>2021-09-09T09:17:57Z</time>
      </trkpt>
      <trkpt lat="44.20313" lon="5.87518">
        <ele>519.8</ele>
        <time>2021-09-09T09:17:58Z</time>
      </trkpt>
      <trkpt lat="44.20319" lon="5.8752">
        <ele>519.5</ele>
        <time>2021-09-09T09:17:59Z</time>
      </trkpt>
      <trkpt lat="44.2033" lon="5.87527">
        <ele>519</ele>
        <time>2021-09-09T09:18:02Z</time>
      </trkpt>
      <trkpt lat="44.20334" lon="5.87528">
        <ele>518.8</ele>
        <time>2021-09-09T09:18:03Z</time>
      </trkpt>
      <trkpt lat="44.20341" lon="5.87531">
        <ele>518.5</ele>
        <time>2021-09-09T09:18:05Z</time>
      </trkpt>
      <trkpt lat="44.20345" lon="5.87533">
        <ele>518.3</ele>
        <time>2021-09-09T09:18:06Z</time>
      </trkpt>
      <trkpt lat="44.20349" lon="5.87537">
        <ele>518.1</ele>
        <time>2021-09-09T09:18:07Z</time>
      </trkpt>
      <trkpt lat="44.20355" lon="5.8754">
        <ele>517.8</ele>
        <time>2021-09-09T09:18:08Z</time>
      </trkpt>
      <trkpt lat="44.20364" lon="5.87546">
        <ele>517.3</ele>
        <time>2021-09-09T09:18:10Z</time>
      </trkpt>
      <trkpt lat="44.20374" lon="5.87552">
        <ele>516.8</ele>
        <time>2021-09-09T09:18:12Z</time>
      </trkpt>
      <trkpt lat="44.20385" lon="5.87558">
        <ele>516.3</ele>
        <time>2021-09-09T09:18:14Z</time>
      </trkpt>
      <trkpt lat="44.2039" lon="5.87561">
        <ele>516</ele>
        <time>2021-09-09T09:18:15Z</time>
      </trkpt>
      <trkpt lat="44.20395" lon="5.87564">
        <ele>515.8</ele>
        <time>2021-09-09T09:18:16Z</time>
      </trkpt>
      <trkpt lat="44.20406" lon="5.8757">
        <ele>515.2</ele>
        <time>2021-09-09T09:18:18Z</time>
      </trkpt>
      <trkpt lat="44.20416" lon="5.87577">
        <ele>514.6</ele>
        <time>2021-09-09T09:18:20Z</time>
      </trkpt>
      <trkpt lat="44.20425" lon="5.87583">
        <ele>514.1</ele>
        <time>2021-09-09T09:18:22Z</time>
      </trkpt>
      <trkpt lat="44.20437" lon="5.8759">
        <ele>513.5</ele>
        <time>2021-09-09T09:18:24Z</time>
      </trkpt>
      <trkpt lat="44.20449" lon="5.87596">
        <ele>512.9</ele>
        <time>2021-09-09T09:18:26Z</time>
      </trkpt>
      <trkpt lat="44.20456" lon="5.876">
        <ele>512.6</ele>
        <time>2021-09-09T09:18:27Z</time>
      </trkpt>
      <trkpt lat="44.20462" lon="5.87603">
        <ele>512.4</ele>
        <time>2021-09-09T09:18:28Z</time>
      </trkpt>
      <trkpt lat="44.20474" lon="5.87609">
        <ele>512</ele>
        <time>2021-09-09T09:18:30Z</time>
      </trkpt>
      <trkpt lat="44.20482" lon="5.87613">
        <ele>511.7</ele>
        <time>2021-09-09T09:18:32Z</time>
      </trkpt>
      <trkpt lat="44.20486" lon="5.87614">
        <ele>511.6</ele>
        <time>2021-09-09T09:18:33Z</time>
      </trkpt>
      <trkpt lat="44.20488" lon="5.87617">
        <ele>511</ele>
        <time>2021-09-09T09:18:34Z</time>
      </trkpt>
      <trkpt lat="44.2049" lon="5.87623">
        <ele>510.8</ele>
        <time>2021-09-09T09:18:36Z</time>
      </trkpt>
      <trkpt lat="44.20489" lon="5.87629">
        <ele>510.6</ele>
        <time>2021-09-09T09:18:38Z</time>
      </trkpt>
      <trkpt lat="44.20486" lon="5.87636">
        <ele>510.4</ele>
        <time>2021-09-09T09:18:40Z</time>
      </trkpt>
      <trkpt lat="44.20484" lon="5.87639">
        <ele>510.3</ele>
        <time>2021-09-09T09:18:41Z</time>
      </trkpt>
      <trkpt lat="44.20478" lon="5.8765">
        <ele>510</ele>
        <time>2021-09-09T09:18:43Z</time>
      </trkpt>
      <trkpt lat="44.20471" lon="5.87662">
        <ele>509.7</ele>
        <time>2021-09-09T09:18:44Z</time>
      </trkpt>
      <trkpt lat="44.20467" lon="5.87669">
        <ele>509.5</ele>
        <time>2021-09-09T09:18:45Z</time>
      </trkpt>
      <trkpt lat="44.20464" lon="5.87677">
        <ele>509.3</ele>
        <time>2021-09-09T09:18:46Z</time>
      </trkpt>
      <trkpt lat="44.2046" lon="5.87683">
        <ele>509.1</ele>
        <time>2021-09-09T09:18:47Z</time>
      </trkpt>
      <trkpt lat="44.20455" lon="5.87695">
        <ele>508.8</ele>
        <time>2021-09-09T09:18:49Z</time>
      </trkpt>
      <trkpt lat="44.20453" lon="5.87701">
        <ele>508.7</ele>
        <time>2021-09-09T09:18:50Z</time>
      </trkpt>
      <trkpt lat="44.20448" lon="5.87713">
        <ele>508.5</ele>
        <time>2021-09-09T09:18:52Z</time>
      </trkpt>
      <trkpt lat="44.20442" lon="5.87726">
        <ele>508.3</ele>
        <time>2021-09-09T09:18:54Z</time>
      </trkpt>
      <trkpt lat="44.20437" lon="5.87738">
        <ele>508.1</ele>
        <time>2021-09-09T09:18:56Z</time>
      </trkpt>
      <trkpt lat="44.20435" lon="5.87745">
        <ele>507.9</ele>
        <time>2021-09-09T09:18:57Z</time>
      </trkpt>
      <trkpt lat="44.20431" lon="5.87758">
        <ele>507.7</ele>
        <time>2021-09-09T09:18:59Z</time>
      </trkpt>
      <trkpt lat="44.20428" lon="5.87764">
        <ele>507.6</ele>
        <time>2021-09-09T09:19:00Z</time>
      </trkpt>
      <trkpt lat="44.20423" lon="5.87777">
        <ele>507.4</ele>
        <time>2021-09-09T09:19:02Z</time>
      </trkpt>
      <trkpt lat="44.20418" lon="5.87789">
        <ele>507.1</ele>
        <time>2021-09-09T09:19:04Z</time>
      </trkpt>
      <trkpt lat="44.20415" lon="5.87795">
        <ele>507</ele>
        <time>2021-09-09T09:19:05Z</time>
      </trkpt>
      <trkpt lat="44.20411" lon="5.87807">
        <ele>506.8</ele>
        <time>2021-09-09T09:19:07Z</time>
      </trkpt>
      <trkpt lat="44.20409" lon="5.87813">
        <ele>506.7</ele>
        <time>2021-09-09T09:19:08Z</time>
      </trkpt>
      <trkpt lat="44.20405" lon="5.87826">
        <ele>506.5</ele>
        <time>2021-09-09T09:19:10Z</time>
      </trkpt>
      <trkpt lat="44.20403" lon="5.87832">
        <ele>506.3</ele>
        <time>2021-09-09T09:19:11Z</time>
      </trkpt>
      <trkpt lat="44.20401" lon="5.87839">
        <ele>506.2</ele>
        <time>2021-09-09T09:19:12Z</time>
      </trkpt>
      <trkpt lat="44.20397" lon="5.87853">
        <ele>506</ele>
        <time>2021-09-09T09:19:14Z</time>
      </trkpt>
      <trkpt lat="44.20392" lon="5.87866">
        <ele>505.8</ele>
        <time>2021-09-09T09:19:16Z</time>
      </trkpt>
      <trkpt lat="44.2039" lon="5.87872">
        <ele>505.7</ele>
        <time>2021-09-09T09:19:17Z</time>
      </trkpt>
      <trkpt lat="44.20384" lon="5.87884">
        <ele>505.6</ele>
        <time>2021-09-09T09:19:19Z</time>
      </trkpt>
      <trkpt lat="44.20378" lon="5.87895">
        <ele>505.4</ele>
        <time>2021-09-09T09:19:21Z</time>
      </trkpt>
      <trkpt lat="44.20372" lon="5.87908">
        <ele>505.1</ele>
        <time>2021-09-09T09:19:23Z</time>
      </trkpt>
      <trkpt lat="44.20369" lon="5.87915">
        <ele>504.9</ele>
        <time>2021-09-09T09:19:24Z</time>
      </trkpt>
      <trkpt lat="44.20364" lon="5.87929">
        <ele>504.5</ele>
        <time>2021-09-09T09:19:26Z</time>
      </trkpt>
      <trkpt lat="44.2036" lon="5.87941">
        <ele>504.1</ele>
        <time>2021-09-09T09:19:28Z</time>
      </trkpt>
      <trkpt lat="44.20357" lon="5.87947">
        <ele>503.9</ele>
        <time>2021-09-09T09:19:29Z</time>
      </trkpt>
      <trkpt lat="44.20355" lon="5.87953">
        <ele>503.8</ele>
        <time>2021-09-09T09:19:30Z</time>
      </trkpt>
      <trkpt lat="44.20349" lon="5.87966">
        <ele>503.4</ele>
        <time>2021-09-09T09:19:32Z</time>
      </trkpt>
      <trkpt lat="44.20347" lon="5.87972">
        <ele>503.2</ele>
        <time>2021-09-09T09:19:33Z</time>
      </trkpt>
      <trkpt lat="44.20345" lon="5.87979">
        <ele>503</ele>
        <time>2021-09-09T09:19:34Z</time>
      </trkpt>
      <trkpt lat="44.2034" lon="5.87994">
        <ele>502.6</ele>
        <time>2021-09-09T09:19:36Z</time>
      </trkpt>
      <trkpt lat="44.20336" lon="5.8801">
        <ele>502.2</ele>
        <time>2021-09-09T09:19:38Z</time>
      </trkpt>
      <trkpt lat="44.20332" lon="5.88027">
        <ele>501.9</ele>
        <time>2021-09-09T09:19:40Z</time>
      </trkpt>
      <trkpt lat="44.2033" lon="5.88035">
        <ele>501.9</ele>
        <time>2021-09-09T09:19:41Z</time>
      </trkpt>
      <trkpt lat="44.20327" lon="5.8805">
        <ele>502</ele>
        <time>2021-09-09T09:19:43Z</time>
      </trkpt>
      <trkpt lat="44.20326" lon="5.88056">
        <ele>502</ele>
        <time>2021-09-09T09:19:44Z</time>
      </trkpt>
      <trkpt lat="44.20324" lon="5.88062">
        <ele>502.1</ele>
        <time>2021-09-09T09:19:45Z</time>
      </trkpt>
      <trkpt lat="44.20322" lon="5.88069">
        <ele>502.1</ele>
        <time>2021-09-09T09:19:46Z</time>
      </trkpt>
      <trkpt lat="44.20317" lon="5.88082">
        <ele>502.1</ele>
        <time>2021-09-09T09:19:48Z</time>
      </trkpt>
      <trkpt lat="44.20313" lon="5.88088">
        <ele>502.1</ele>
        <time>2021-09-09T09:19:49Z</time>
      </trkpt>
      <trkpt lat="44.20305" lon="5.88097">
        <ele>502</ele>
        <time>2021-09-09T09:19:51Z</time>
      </trkpt>
      <trkpt lat="44.203" lon="5.88101">
        <ele>502</ele>
        <time>2021-09-09T09:19:52Z</time>
      </trkpt>
      <trkpt lat="44.20296" lon="5.88105">
        <ele>502</ele>
        <time>2021-09-09T09:19:53Z</time>
      </trkpt>
      <trkpt lat="44.20287" lon="5.8811">
        <ele>502.3</ele>
        <time>2021-09-09T09:19:55Z</time>
      </trkpt>
      <trkpt lat="44.20279" lon="5.88112">
        <ele>502.6</ele>
        <time>2021-09-09T09:19:57Z</time>
      </trkpt>
      <trkpt lat="44.20276" lon="5.88114">
        <ele>502.8</ele>
        <time>2021-09-09T09:19:58Z</time>
      </trkpt>
      <trkpt lat="44.20275" lon="5.88117">
        <ele>503</ele>
        <time>2021-09-09T09:19:59Z</time>
      </trkpt>
      <trkpt lat="44.20274" lon="5.88123">
        <ele>503</ele>
        <time>2021-09-09T09:20:01Z</time>
      </trkpt>
      <trkpt lat="44.20277" lon="5.88133">
        <ele>503.1</ele>
        <time>2021-09-09T09:20:03Z</time>
      </trkpt>
      <trkpt lat="44.20278" lon="5.88137">
        <ele>503.1</ele>
        <time>2021-09-09T09:20:04Z</time>
      </trkpt>
      <trkpt lat="44.2028" lon="5.88142">
        <ele>503.2</ele>
        <time>2021-09-09T09:20:06Z</time>
      </trkpt>
      <trkpt lat="44.20281" lon="5.88147">
        <ele>503.3</ele>
        <time>2021-09-09T09:20:07Z</time>
      </trkpt>
      <trkpt lat="44.20281" lon="5.88149">
        <ele>503.3</ele>
        <time>2021-09-09T09:20:08Z</time>
      </trkpt>
      <trkpt lat="44.20281" lon="5.88155">
        <ele>503.4</ele>
        <time>2021-09-09T09:20:10Z</time>
      </trkpt>
      <trkpt lat="44.2028" lon="5.88159">
        <ele>503.5</ele>
        <time>2021-09-09T09:20:12Z</time>
      </trkpt>
      <trkpt lat="44.20278" lon="5.88163">
        <ele>503.5</ele>
        <time>2021-09-09T09:20:13Z</time>
      </trkpt>
      <trkpt lat="44.20276" lon="5.88167">
        <ele>503.6</ele>
        <time>2021-09-09T09:20:14Z</time>
      </trkpt>
      <trkpt lat="44.20275" lon="5.88171">
        <ele>503.6</ele>
        <time>2021-09-09T09:20:15Z</time>
      </trkpt>
      <trkpt lat="44.20272" lon="5.88177">
        <ele>503.6</ele>
        <time>2021-09-09T09:20:17Z</time>
      </trkpt>
      <trkpt lat="44.20271" lon="5.8818">
        <ele>503.6</ele>
        <time>2021-09-09T09:20:18Z</time>
      </trkpt>
      <trkpt lat="44.20268" lon="5.88185">
        <ele>503.6</ele>
        <time>2021-09-09T09:20:20Z</time>
      </trkpt>
      <trkpt lat="44.20266" lon="5.88192">
        <ele>503.6</ele>
        <time>2021-09-09T09:20:21Z</time>
      </trkpt>
      <trkpt lat="44.20264" lon="5.88197">
        <ele>503.5</ele>
        <time>2021-09-09T09:20:22Z</time>
      </trkpt>
      <trkpt lat="44.20261" lon="5.88205">
        <ele>503.5</ele>
        <time>2021-09-09T09:20:24Z</time>
      </trkpt>
      <trkpt lat="44.20259" lon="5.88213">
        <ele>503.4</ele>
        <time>2021-09-09T09:20:26Z</time>
      </trkpt>
      <trkpt lat="44.20258" lon="5.8822">
        <ele>503.4</ele>
        <time>2021-09-09T09:20:27Z</time>
      </trkpt>
      <trkpt lat="44.20256" lon="5.88227">
        <ele>503.3</ele>
        <time>2021-09-09T09:20:28Z</time>
      </trkpt>
      <trkpt lat="44.20255" lon="5.88232">
        <ele>503.2</ele>
        <time>2021-09-09T09:20:29Z</time>
      </trkpt>
      <trkpt lat="44.20254" lon="5.88237">
        <ele>503.2</ele>
        <time>2021-09-09T09:20:30Z</time>
      </trkpt>
      <trkpt lat="44.20251" lon="5.88247">
        <ele>503</ele>
        <time>2021-09-09T09:20:32Z</time>
      </trkpt>
      <trkpt lat="44.2025" lon="5.88252">
        <ele>502.9</ele>
        <time>2021-09-09T09:20:33Z</time>
      </trkpt>
      <trkpt lat="44.20248" lon="5.88256">
        <ele>502.8</ele>
        <time>2021-09-09T09:20:34Z</time>
      </trkpt>
      <trkpt lat="44.20246" lon="5.88262">
        <ele>502.6</ele>
        <time>2021-09-09T09:20:36Z</time>
      </trkpt>
      <trkpt lat="44.20244" lon="5.88268">
        <ele>502.5</ele>
        <time>2021-09-09T09:20:37Z</time>
      </trkpt>
      <trkpt lat="44.20243" lon="5.88274">
        <ele>502.3</ele>
        <time>2021-09-09T09:20:38Z</time>
      </trkpt>
      <trkpt lat="44.20241" lon="5.88281">
        <ele>502.2</ele>
        <time>2021-09-09T09:20:39Z</time>
      </trkpt>
      <trkpt lat="44.2024" lon="5.88287">
        <ele>502</ele>
        <time>2021-09-09T09:20:40Z</time>
      </trkpt>
      <trkpt lat="44.20237" lon="5.88297">
        <ele>501.9</ele>
        <time>2021-09-09T09:20:42Z</time>
      </trkpt>
      <trkpt lat="44.20235" lon="5.88305">
        <ele>501.7</ele>
        <time>2021-09-09T09:20:44Z</time>
      </trkpt>
      <trkpt lat="44.20233" lon="5.88313">
        <ele>501.6</ele>
        <time>2021-09-09T09:20:45Z</time>
      </trkpt>
      <trkpt lat="44.20233" lon="5.8832">
        <ele>501.5</ele>
        <time>2021-09-09T09:20:46Z</time>
      </trkpt>
      <trkpt lat="44.20235" lon="5.88337">
        <ele>501.2</ele>
        <time>2021-09-09T09:20:48Z</time>
      </trkpt>
      <trkpt lat="44.20237" lon="5.88351">
        <ele>501</ele>
        <time>2021-09-09T09:20:50Z</time>
      </trkpt>
      <trkpt lat="44.20238" lon="5.88358">
        <ele>500.8</ele>
        <time>2021-09-09T09:20:51Z</time>
      </trkpt>
      <trkpt lat="44.20238" lon="5.88365">
        <ele>500.7</ele>
        <time>2021-09-09T09:20:52Z</time>
      </trkpt>
      <trkpt lat="44.20239" lon="5.88371">
        <ele>500.6</ele>
        <time>2021-09-09T09:20:53Z</time>
      </trkpt>
      <trkpt lat="44.2024" lon="5.88378">
        <ele>500.5</ele>
        <time>2021-09-09T09:20:55Z</time>
      </trkpt>
      <trkpt lat="44.20241" lon="5.88387">
        <ele>500.4</ele>
        <time>2021-09-09T09:20:56Z</time>
      </trkpt>
      <trkpt lat="44.20245" lon="5.88388">
        <ele>500.3</ele>
        <time>2021-09-09T09:20:57Z</time>
      </trkpt>
      <trkpt lat="44.20248" lon="5.88394">
        <ele>500.3</ele>
        <time>2021-09-09T09:20:59Z</time>
      </trkpt>
      <trkpt lat="44.20249" lon="5.884">
        <ele>500.3</ele>
        <time>2021-09-09T09:21:00Z</time>
      </trkpt>
      <trkpt lat="44.2025" lon="5.88407">
        <ele>500.3</ele>
        <time>2021-09-09T09:21:01Z</time>
      </trkpt>
      <trkpt lat="44.20252" lon="5.88414">
        <ele>500.3</ele>
        <time>2021-09-09T09:21:03Z</time>
      </trkpt>
      <trkpt lat="44.20254" lon="5.88421">
        <ele>500.3</ele>
        <time>2021-09-09T09:21:05Z</time>
      </trkpt>
      <trkpt lat="44.20254" lon="5.88424">
        <ele>500.3</ele>
        <time>2021-09-09T09:21:06Z</time>
      </trkpt>
      <trkpt lat="44.20255" lon="5.88429">
        <ele>500.3</ele>
        <time>2021-09-09T09:21:07Z</time>
      </trkpt>
      <trkpt lat="44.20255" lon="5.88435">
        <ele>500.4</ele>
        <time>2021-09-09T09:21:08Z</time>
      </trkpt>
      <trkpt lat="44.20255" lon="5.88437">
        <ele>500.4</ele>
        <time>2021-09-09T09:21:09Z</time>
      </trkpt>
      <trkpt lat="44.20254" lon="5.88443">
        <ele>500.5</ele>
        <time>2021-09-09T09:21:11Z</time>
      </trkpt>
      <trkpt lat="44.20253" lon="5.88448">
        <ele>500.6</ele>
        <time>2021-09-09T09:21:12Z</time>
      </trkpt>
      <trkpt lat="44.20251" lon="5.88452">
        <ele>500.6</ele>
        <time>2021-09-09T09:21:13Z</time>
      </trkpt>
      <trkpt lat="44.20246" lon="5.88461">
        <ele>500.7</ele>
        <time>2021-09-09T09:21:15Z</time>
      </trkpt>
      <trkpt lat="44.20245" lon="5.88465">
        <ele>500.7</ele>
        <time>2021-09-09T09:21:16Z</time>
      </trkpt>
      <trkpt lat="44.20243" lon="5.88474">
        <ele>500.8</ele>
        <time>2021-09-09T09:21:18Z</time>
      </trkpt>
      <trkpt lat="44.20242" lon="5.88482">
        <ele>500.9</ele>
        <time>2021-09-09T09:21:20Z</time>
      </trkpt>
      <trkpt lat="44.20244" lon="5.88488">
        <ele>500.9</ele>
        <time>2021-09-09T09:21:22Z</time>
      </trkpt>
      <trkpt lat="44.20245" lon="5.88489">
        <ele>500.9</ele>
        <time>2021-09-09T09:21:23Z</time>
      </trkpt>
      <trkpt lat="44.20245" lon="5.8849">
        <ele>500.9</ele>
        <time>2021-09-09T09:21:24Z</time>
      </trkpt>
      <trkpt lat="44.20248" lon="5.88497">
        <ele>501</ele>
        <time>2021-09-09T09:21:26Z</time>
      </trkpt>
      <trkpt lat="44.20249" lon="5.88501">
        <ele>501</ele>
        <time>2021-09-09T09:21:27Z</time>
      </trkpt>
      <trkpt lat="44.2025" lon="5.88508">
        <ele>501</ele>
        <time>2021-09-09T09:21:28Z</time>
      </trkpt>
      <trkpt lat="44.20251" lon="5.88513">
        <ele>501.1</ele>
        <time>2021-09-09T09:21:29Z</time>
      </trkpt>
      <trkpt lat="44.2025" lon="5.88518">
        <ele>501.1</ele>
        <time>2021-09-09T09:21:30Z</time>
      </trkpt>
      <trkpt lat="44.2025" lon="5.88524">
        <ele>501.1</ele>
        <time>2021-09-09T09:21:31Z</time>
      </trkpt>
      <trkpt lat="44.2025" lon="5.88531">
        <ele>501.2</ele>
        <time>2021-09-09T09:21:33Z</time>
      </trkpt>
      <trkpt lat="44.2025" lon="5.88541">
        <ele>501.2</ele>
        <time>2021-09-09T09:21:34Z</time>
      </trkpt>
      <trkpt lat="44.2025" lon="5.8855">
        <ele>501.2</ele>
        <time>2021-09-09T09:21:36Z</time>
      </trkpt>
      <trkpt lat="44.20251" lon="5.88558">
        <ele>501.2</ele>
        <time>2021-09-09T09:21:37Z</time>
      </trkpt>
      <trkpt lat="44.20253" lon="5.88565">
        <ele>501.2</ele>
        <time>2021-09-09T09:21:39Z</time>
      </trkpt>
      <trkpt lat="44.20255" lon="5.88569">
        <ele>501.2</ele>
        <time>2021-09-09T09:21:40Z</time>
      </trkpt>
      <trkpt lat="44.20258" lon="5.88576">
        <ele>501.2</ele>
        <time>2021-09-09T09:21:41Z</time>
      </trkpt>
      <trkpt lat="44.2026" lon="5.88583">
        <ele>501.2</ele>
        <time>2021-09-09T09:21:42Z</time>
      </trkpt>
      <trkpt lat="44.20263" lon="5.88592">
        <ele>501.2</ele>
        <time>2021-09-09T09:21:44Z</time>
      </trkpt>
      <trkpt lat="44.20264" lon="5.88599">
        <ele>501.2</ele>
        <time>2021-09-09T09:21:45Z</time>
      </trkpt>
      <trkpt lat="44.20265" lon="5.88607">
        <ele>501.3</ele>
        <time>2021-09-09T09:21:47Z</time>
      </trkpt>
      <trkpt lat="44.20264" lon="5.88614">
        <ele>501.3</ele>
        <time>2021-09-09T09:21:48Z</time>
      </trkpt>
      <trkpt lat="44.20264" lon="5.88623">
        <ele>501.4</ele>
        <time>2021-09-09T09:21:50Z</time>
      </trkpt>
      <trkpt lat="44.20264" lon="5.88629">
        <ele>501.5</ele>
        <time>2021-09-09T09:21:51Z</time>
      </trkpt>
      <trkpt lat="44.20264" lon="5.88634">
        <ele>501.6</ele>
        <time>2021-09-09T09:21:52Z</time>
      </trkpt>
      <trkpt lat="44.20263" lon="5.8864">
        <ele>501.7</ele>
        <time>2021-09-09T09:21:53Z</time>
      </trkpt>
      <trkpt lat="44.20262" lon="5.88648">
        <ele>501.8</ele>
        <time>2021-09-09T09:21:55Z</time>
      </trkpt>
      <trkpt lat="44.20261" lon="5.88654">
        <ele>502</ele>
        <time>2021-09-09T09:21:56Z</time>
      </trkpt>
      <trkpt lat="44.20261" lon="5.88663">
        <ele>502.1</ele>
        <time>2021-09-09T09:21:58Z</time>
      </trkpt>
      <trkpt lat="44.20261" lon="5.88667">
        <ele>502.2</ele>
        <time>2021-09-09T09:21:59Z</time>
      </trkpt>
      <trkpt lat="44.2026" lon="5.88671">
        <ele>502.3</ele>
        <time>2021-09-09T09:22:00Z</time>
      </trkpt>
      <trkpt lat="44.20259" lon="5.88677">
        <ele>502.5</ele>
        <time>2021-09-09T09:22:02Z</time>
      </trkpt>
      <trkpt lat="44.20259" lon="5.8868">
        <ele>502.5</ele>
        <time>2021-09-09T09:22:03Z</time>
      </trkpt>
      <trkpt lat="44.2026" lon="5.88686">
        <ele>502.6</ele>
        <time>2021-09-09T09:22:04Z</time>
      </trkpt>
      <trkpt lat="44.2026" lon="5.88688">
        <ele>502.7</ele>
        <time>2021-09-09T09:22:05Z</time>
      </trkpt>
      <trkpt lat="44.2026" lon="5.88693">
        <ele>502.7</ele>
        <time>2021-09-09T09:22:06Z</time>
      </trkpt>
      <trkpt lat="44.20259" lon="5.88699">
        <ele>502.7</ele>
        <time>2021-09-09T09:22:08Z</time>
      </trkpt>
      <trkpt lat="44.20258" lon="5.88703">
        <ele>502.7</ele>
        <time>2021-09-09T09:22:09Z</time>
      </trkpt>
      <trkpt lat="44.20258" lon="5.88709">
        <ele>502.7</ele>
        <time>2021-09-09T09:22:10Z</time>
      </trkpt>
      <trkpt lat="44.20257" lon="5.88716">
        <ele>502.7</ele>
        <time>2021-09-09T09:22:12Z</time>
      </trkpt>
      <trkpt lat="44.20258" lon="5.88722">
        <ele>502.6</ele>
        <time>2021-09-09T09:22:13Z</time>
      </trkpt>
      <trkpt lat="44.20257" lon="5.88727">
        <ele>502.6</ele>
        <time>2021-09-09T09:22:14Z</time>
      </trkpt>
      <trkpt lat="44.20256" lon="5.88735">
        <ele>502.5</ele>
        <time>2021-09-09T09:22:16Z</time>
      </trkpt>
      <trkpt lat="44.20256" lon="5.88745">
        <ele>502.4</ele>
        <time>2021-09-09T09:22:17Z</time>
      </trkpt>
      <trkpt lat="44.20255" lon="5.8875">
        <ele>502.3</ele>
        <time>2021-09-09T09:22:18Z</time>
      </trkpt>
      <trkpt lat="44.20253" lon="5.8876">
        <ele>502.3</ele>
        <time>2021-09-09T09:22:20Z</time>
      </trkpt>
      <trkpt lat="44.20252" lon="5.88767">
        <ele>502.3</ele>
        <time>2021-09-09T09:22:21Z</time>
      </trkpt>
      <trkpt lat="44.20251" lon="5.88775">
        <ele>502.3</ele>
        <time>2021-09-09T09:22:23Z</time>
      </trkpt>
      <trkpt lat="44.2025" lon="5.88781">
        <ele>502.3</ele>
        <time>2021-09-09T09:22:24Z</time>
      </trkpt>
      <trkpt lat="44.20249" lon="5.88785">
        <ele>502.4</ele>
        <time>2021-09-09T09:22:25Z</time>
      </trkpt>
      <trkpt lat="44.20249" lon="5.88791">
        <ele>502.4</ele>
        <time>2021-09-09T09:22:27Z</time>
      </trkpt>
      <trkpt lat="44.20248" lon="5.88798">
        <ele>502.5</ele>
        <time>2021-09-09T09:22:28Z</time>
      </trkpt>
      <trkpt lat="44.20247" lon="5.88802">
        <ele>502.6</ele>
        <time>2021-09-09T09:22:29Z</time>
      </trkpt>
      <trkpt lat="44.20246" lon="5.88805">
        <ele>502.6</ele>
        <time>2021-09-09T09:22:30Z</time>
      </trkpt>
      <trkpt lat="44.20246" lon="5.8881">
        <ele>502.7</ele>
        <time>2021-09-09T09:22:32Z</time>
      </trkpt>
      <trkpt lat="44.20245" lon="5.88815">
        <ele>502.7</ele>
        <time>2021-09-09T09:22:33Z</time>
      </trkpt>
      <trkpt lat="44.20245" lon="5.8882">
        <ele>502.8</ele>
        <time>2021-09-09T09:22:34Z</time>
      </trkpt>
      <trkpt lat="44.20245" lon="5.88825">
        <ele>502.8</ele>
        <time>2021-09-09T09:22:36Z</time>
      </trkpt>
      <trkpt lat="44.20244" lon="5.8883">
        <ele>502.9</ele>
        <time>2021-09-09T09:22:37Z</time>
      </trkpt>
      <trkpt lat="44.20243" lon="5.88834">
        <ele>503</ele>
        <time>2021-09-09T09:22:39Z</time>
      </trkpt>
      <trkpt lat="44.20241" lon="5.88838">
        <ele>503</ele>
        <time>2021-09-09T09:22:40Z</time>
      </trkpt>
      <trkpt lat="44.20235" lon="5.88842">
        <ele>503.1</ele>
        <time>2021-09-09T09:22:42Z</time>
      </trkpt>
      <trkpt lat="44.20229" lon="5.88848">
        <ele>503.2</ele>
        <time>2021-09-09T09:22:44Z</time>
      </trkpt>
      <trkpt lat="44.20224" lon="5.88854">
        <ele>503</ele>
        <time>2021-09-09T09:22:45Z</time>
      </trkpt>
      <trkpt lat="44.20218" lon="5.88864">
        <ele>502.8</ele>
        <time>2021-09-09T09:22:47Z</time>
      </trkpt>
      <trkpt lat="44.20213" lon="5.88876">
        <ele>502.6</ele>
        <time>2021-09-09T09:22:49Z</time>
      </trkpt>
      <trkpt lat="44.20207" lon="5.88892">
        <ele>502.5</ele>
        <time>2021-09-09T09:22:50Z</time>
      </trkpt>
      <trkpt lat="44.20204" lon="5.88898">
        <ele>502.5</ele>
        <time>2021-09-09T09:22:51Z</time>
      </trkpt>
      <trkpt lat="44.20201" lon="5.88905">
        <ele>502.6</ele>
        <time>2021-09-09T09:22:53Z</time>
      </trkpt>
      <trkpt lat="44.20203" lon="5.88906">
        <ele>502.6</ele>
        <time>2021-09-09T09:22:54Z</time>
      </trkpt>
      <trkpt lat="44.20203" lon="5.88909">
        <ele>502.6</ele>
        <time>2021-09-09T09:22:56Z</time>
      </trkpt>
      <trkpt lat="44.20204" lon="5.88912">
        <ele>502.6</ele>
        <time>2021-09-09T09:22:57Z</time>
      </trkpt>
      <trkpt lat="44.20203" lon="5.88918">
        <ele>502.6</ele>
        <time>2021-09-09T09:22:59Z</time>
      </trkpt>
      <trkpt lat="44.20204" lon="5.88923">
        <ele>502.6</ele>
        <time>2021-09-09T09:23:00Z</time>
      </trkpt>
      <trkpt lat="44.20204" lon="5.88928">
        <ele>502.6</ele>
        <time>2021-09-09T09:23:01Z</time>
      </trkpt>
      <trkpt lat="44.20205" lon="5.88934">
        <ele>502.7</ele>
        <time>2021-09-09T09:23:03Z</time>
      </trkpt>
      <trkpt lat="44.20205" lon="5.88941">
        <ele>502.7</ele>
        <time>2021-09-09T09:23:04Z</time>
      </trkpt>
      <trkpt lat="44.20206" lon="5.88949">
        <ele>502.7</ele>
        <time>2021-09-09T09:23:06Z</time>
      </trkpt>
      <trkpt lat="44.20207" lon="5.88953">
        <ele>502.7</ele>
        <time>2021-09-09T09:23:07Z</time>
      </trkpt>
      <trkpt lat="44.20207" lon="5.88959">
        <ele>502.7</ele>
        <time>2021-09-09T09:23:09Z</time>
      </trkpt>
      <trkpt lat="44.20207" lon="5.88964">
        <ele>502.8</ele>
        <time>2021-09-09T09:23:10Z</time>
      </trkpt>
      <trkpt lat="44.20207" lon="5.88969">
        <ele>502.8</ele>
        <time>2021-09-09T09:23:12Z</time>
      </trkpt>
      <trkpt lat="44.20207" lon="5.88973">
        <ele>502.8</ele>
        <time>2021-09-09T09:23:13Z</time>
      </trkpt>
      <trkpt lat="44.20208" lon="5.88978">
        <ele>502.8</ele>
        <time>2021-09-09T09:23:15Z</time>
      </trkpt>
      <trkpt lat="44.20208" lon="5.88985">
        <ele>502.8</ele>
        <time>2021-09-09T09:23:16Z</time>
      </trkpt>
      <trkpt lat="44.20207" lon="5.88989">
        <ele>502.8</ele>
        <time>2021-09-09T09:23:17Z</time>
      </trkpt>
      <trkpt lat="44.20204" lon="5.88996">
        <ele>502.9</ele>
        <time>2021-09-09T09:23:19Z</time>
      </trkpt>
      <trkpt lat="44.20201" lon="5.89004">
        <ele>502.9</ele>
        <time>2021-09-09T09:23:21Z</time>
      </trkpt>
      <trkpt lat="44.20198" lon="5.8901">
        <ele>502.9</ele>
        <time>2021-09-09T09:23:22Z</time>
      </trkpt>
      <trkpt lat="44.20196" lon="5.89016">
        <ele>502.9</ele>
        <time>2021-09-09T09:23:24Z</time>
      </trkpt>
      <trkpt lat="44.20194" lon="5.89022">
        <ele>503</ele>
        <time>2021-09-09T09:23:25Z</time>
      </trkpt>
      <trkpt lat="44.20192" lon="5.8903">
        <ele>503</ele>
        <time>2021-09-09T09:23:27Z</time>
      </trkpt>
      <trkpt lat="44.20192" lon="5.89036">
        <ele>503</ele>
        <time>2021-09-09T09:23:29Z</time>
      </trkpt>
      <trkpt lat="44.20191" lon="5.89041">
        <ele>503</ele>
        <time>2021-09-09T09:23:30Z</time>
      </trkpt>
      <trkpt lat="44.2019" lon="5.89048">
        <ele>503.1</ele>
        <time>2021-09-09T09:23:32Z</time>
      </trkpt>
      <trkpt lat="44.20188" lon="5.89054">
        <ele>503.1</ele>
        <time>2021-09-09T09:23:33Z</time>
      </trkpt>
      <trkpt lat="44.20187" lon="5.89058">
        <ele>503.1</ele>
        <time>2021-09-09T09:23:34Z</time>
      </trkpt>
      <trkpt lat="44.20186" lon="5.89064">
        <ele>503.2</ele>
        <time>2021-09-09T09:23:36Z</time>
      </trkpt>
      <trkpt lat="44.20185" lon="5.89071">
        <ele>503.2</ele>
        <time>2021-09-09T09:23:37Z</time>
      </trkpt>
      <trkpt lat="44.20183" lon="5.89079">
        <ele>503.3</ele>
        <time>2021-09-09T09:23:39Z</time>
      </trkpt>
      <trkpt lat="44.20181" lon="5.89085">
        <ele>503.3</ele>
        <time>2021-09-09T09:23:40Z</time>
      </trkpt>
      <trkpt lat="44.2018" lon="5.89089">
        <ele>503.3</ele>
        <time>2021-09-09T09:23:41Z</time>
      </trkpt>
      <trkpt lat="44.20179" lon="5.89093">
        <ele>503.4</ele>
        <time>2021-09-09T09:23:42Z</time>
      </trkpt>
      <trkpt lat="44.20176" lon="5.891">
        <ele>503.4</ele>
        <time>2021-09-09T09:23:44Z</time>
      </trkpt>
      <trkpt lat="44.20175" lon="5.89105">
        <ele>503.4</ele>
        <time>2021-09-09T09:23:46Z</time>
      </trkpt>
      <trkpt lat="44.20174" lon="5.8911">
        <ele>503.4</ele>
        <time>2021-09-09T09:23:47Z</time>
      </trkpt>
      <trkpt lat="44.20173" lon="5.89115">
        <ele>503.4</ele>
        <time>2021-09-09T09:23:48Z</time>
      </trkpt>
      <trkpt lat="44.20173" lon="5.89117">
        <ele>503.4</ele>
        <time>2021-09-09T09:23:49Z</time>
      </trkpt>
      <trkpt lat="44.20172" lon="5.89122">
        <ele>503.5</ele>
        <time>2021-09-09T09:23:51Z</time>
      </trkpt>
      <trkpt lat="44.20171" lon="5.89128">
        <ele>503.5</ele>
        <time>2021-09-09T09:23:52Z</time>
      </trkpt>
      <trkpt lat="44.2017" lon="5.89133">
        <ele>503.6</ele>
        <time>2021-09-09T09:23:54Z</time>
      </trkpt>
      <trkpt lat="44.20168" lon="5.89139">
        <ele>503.6</ele>
        <time>2021-09-09T09:23:55Z</time>
      </trkpt>
      <trkpt lat="44.20167" lon="5.89146">
        <ele>503.7</ele>
        <time>2021-09-09T09:23:57Z</time>
      </trkpt>
      <trkpt lat="44.20164" lon="5.89153">
        <ele>503.8</ele>
        <time>2021-09-09T09:23:59Z</time>
      </trkpt>
      <trkpt lat="44.20162" lon="5.89158">
        <ele>503.8</ele>
        <time>2021-09-09T09:24:00Z</time>
      </trkpt>
      <trkpt lat="44.2016" lon="5.89165">
        <ele>503.9</ele>
        <time>2021-09-09T09:24:02Z</time>
      </trkpt>
      <trkpt lat="44.20158" lon="5.89168">
        <ele>503.9</ele>
        <time>2021-09-09T09:24:03Z</time>
      </trkpt>
      <trkpt lat="44.20155" lon="5.89172">
        <ele>503.9</ele>
        <time>2021-09-09T09:24:04Z</time>
      </trkpt>
      <trkpt lat="44.20155" lon="5.89173">
        <ele>503.9</ele>
        <time>2021-09-09T09:24:05Z</time>
      </trkpt>
      <trkpt lat="44.20152" lon="5.89179">
        <ele>503.9</ele>
        <time>2021-09-09T09:24:07Z</time>
      </trkpt>
      <trkpt lat="44.2015" lon="5.89183">
        <ele>503.9</ele>
        <time>2021-09-09T09:24:08Z</time>
      </trkpt>
      <trkpt lat="44.20149" lon="5.89188">
        <ele>503.9</ele>
        <time>2021-09-09T09:24:09Z</time>
      </trkpt>
      <trkpt lat="44.20147" lon="5.89192">
        <ele>503.9</ele>
        <time>2021-09-09T09:24:10Z</time>
      </trkpt>
      <trkpt lat="44.20145" lon="5.89201">
        <ele>503.9</ele>
        <time>2021-09-09T09:24:12Z</time>
      </trkpt>
      <trkpt lat="44.20143" lon="5.89205">
        <ele>503.9</ele>
        <time>2021-09-09T09:24:13Z</time>
      </trkpt>
      <trkpt lat="44.20141" lon="5.89211">
        <ele>503.8</ele>
        <time>2021-09-09T09:24:15Z</time>
      </trkpt>
      <trkpt lat="44.20139" lon="5.89218">
        <ele>503.9</ele>
        <time>2021-09-09T09:24:16Z</time>
      </trkpt>
      <trkpt lat="44.20138" lon="5.89223">
        <ele>503.9</ele>
        <time>2021-09-09T09:24:17Z</time>
      </trkpt>
      <trkpt lat="44.20137" lon="5.89231">
        <ele>503.9</ele>
        <time>2021-09-09T09:24:19Z</time>
      </trkpt>
      <trkpt lat="44.20135" lon="5.89237">
        <ele>504</ele>
        <time>2021-09-09T09:24:20Z</time>
      </trkpt>
      <trkpt lat="44.20134" lon="5.89242">
        <ele>504</ele>
        <time>2021-09-09T09:24:21Z</time>
      </trkpt>
      <trkpt lat="44.20134" lon="5.89246">
        <ele>504</ele>
        <time>2021-09-09T09:24:22Z</time>
      </trkpt>
      <trkpt lat="44.20132" lon="5.89253">
        <ele>504.1</ele>
        <time>2021-09-09T09:24:24Z</time>
      </trkpt>
      <trkpt lat="44.20131" lon="5.89256">
        <ele>504.1</ele>
        <time>2021-09-09T09:24:25Z</time>
      </trkpt>
      <trkpt lat="44.20129" lon="5.89261">
        <ele>504.2</ele>
        <time>2021-09-09T09:24:27Z</time>
      </trkpt>
      <trkpt lat="44.20128" lon="5.89265">
        <ele>504.2</ele>
        <time>2021-09-09T09:24:28Z</time>
      </trkpt>
      <trkpt lat="44.20127" lon="5.89269">
        <ele>504.3</ele>
        <time>2021-09-09T09:24:30Z</time>
      </trkpt>
      <trkpt lat="44.20125" lon="5.89273">
        <ele>504.4</ele>
        <time>2021-09-09T09:24:31Z</time>
      </trkpt>
      <trkpt lat="44.20124" lon="5.89277">
        <ele>504.4</ele>
        <time>2021-09-09T09:24:32Z</time>
      </trkpt>
      <trkpt lat="44.20122" lon="5.89283">
        <ele>504.6</ele>
        <time>2021-09-09T09:24:34Z</time>
      </trkpt>
      <trkpt lat="44.20121" lon="5.89285">
        <ele>504.6</ele>
        <time>2021-09-09T09:24:35Z</time>
      </trkpt>
      <trkpt lat="44.20119" lon="5.8929">
        <ele>504.7</ele>
        <time>2021-09-09T09:24:37Z</time>
      </trkpt>
      <trkpt lat="44.20117" lon="5.89292">
        <ele>504.8</ele>
        <time>2021-09-09T09:24:38Z</time>
      </trkpt>
      <trkpt lat="44.20115" lon="5.89296">
        <ele>504.8</ele>
        <time>2021-09-09T09:24:40Z</time>
      </trkpt>
      <trkpt lat="44.20114" lon="5.893">
        <ele>504.9</ele>
        <time>2021-09-09T09:24:41Z</time>
      </trkpt>
      <trkpt lat="44.20113" lon="5.89302">
        <ele>504.9</ele>
        <time>2021-09-09T09:24:42Z</time>
      </trkpt>
      <trkpt lat="44.20112" lon="5.89304">
        <ele>504.9</ele>
        <time>2021-09-09T09:24:43Z</time>
      </trkpt>
      <trkpt lat="44.20111" lon="5.89309">
        <ele>504.9</ele>
        <time>2021-09-09T09:24:45Z</time>
      </trkpt>
      <trkpt lat="44.2011" lon="5.89315">
        <ele>504.9</ele>
        <time>2021-09-09T09:24:46Z</time>
      </trkpt>
      <trkpt lat="44.2011" lon="5.89321">
        <ele>504.9</ele>
        <time>2021-09-09T09:24:47Z</time>
      </trkpt>
      <trkpt lat="44.20109" lon="5.89326">
        <ele>504.9</ele>
        <time>2021-09-09T09:24:48Z</time>
      </trkpt>
      <trkpt lat="44.20108" lon="5.8933">
        <ele>504.8</ele>
        <time>2021-09-09T09:24:49Z</time>
      </trkpt>
      <trkpt lat="44.20107" lon="5.89341">
        <ele>504.8</ele>
        <time>2021-09-09T09:24:51Z</time>
      </trkpt>
      <trkpt lat="44.20106" lon="5.89347">
        <ele>504.7</ele>
        <time>2021-09-09T09:24:52Z</time>
      </trkpt>
      <trkpt lat="44.20105" lon="5.89356">
        <ele>504.7</ele>
        <time>2021-09-09T09:24:54Z</time>
      </trkpt>
      <trkpt lat="44.20104" lon="5.89363">
        <ele>504.7</ele>
        <time>2021-09-09T09:24:55Z</time>
      </trkpt>
      <trkpt lat="44.20104" lon="5.8937">
        <ele>504.6</ele>
        <time>2021-09-09T09:24:56Z</time>
      </trkpt>
      <trkpt lat="44.20104" lon="5.89379">
        <ele>504.6</ele>
        <time>2021-09-09T09:24:58Z</time>
      </trkpt>
      <trkpt lat="44.20104" lon="5.89387">
        <ele>504.6</ele>
        <time>2021-09-09T09:24:59Z</time>
      </trkpt>
      <trkpt lat="44.20104" lon="5.89391">
        <ele>504.6</ele>
        <time>2021-09-09T09:25:00Z</time>
      </trkpt>
      <trkpt lat="44.20104" lon="5.89395">
        <ele>504.6</ele>
        <time>2021-09-09T09:25:01Z</time>
      </trkpt>
      <trkpt lat="44.20104" lon="5.89402">
        <ele>504.6</ele>
        <time>2021-09-09T09:25:03Z</time>
      </trkpt>
      <trkpt lat="44.20105" lon="5.89407">
        <ele>504.7</ele>
        <time>2021-09-09T09:25:04Z</time>
      </trkpt>
      <trkpt lat="44.20105" lon="5.89411">
        <ele>504.7</ele>
        <time>2021-09-09T09:25:05Z</time>
      </trkpt>
      <trkpt lat="44.20105" lon="5.89416">
        <ele>504.7</ele>
        <time>2021-09-09T09:25:06Z</time>
      </trkpt>
      <trkpt lat="44.20106" lon="5.89422">
        <ele>504.7</ele>
        <time>2021-09-09T09:25:07Z</time>
      </trkpt>
      <trkpt lat="44.20106" lon="5.89428">
        <ele>504.8</ele>
        <time>2021-09-09T09:25:09Z</time>
      </trkpt>
      <trkpt lat="44.20106" lon="5.89433">
        <ele>504.8</ele>
        <time>2021-09-09T09:25:10Z</time>
      </trkpt>
      <trkpt lat="44.20106" lon="5.89435">
        <ele>504.9</ele>
        <time>2021-09-09T09:25:11Z</time>
      </trkpt>
      <trkpt lat="44.20106" lon="5.89439">
        <ele>504.9</ele>
        <time>2021-09-09T09:25:12Z</time>
      </trkpt>
      <trkpt lat="44.20106" lon="5.89443">
        <ele>505</ele>
        <time>2021-09-09T09:25:13Z</time>
      </trkpt>
      <trkpt lat="44.20106" lon="5.89448">
        <ele>505</ele>
        <time>2021-09-09T09:25:14Z</time>
      </trkpt>
      <trkpt lat="44.20105" lon="5.89452">
        <ele>505</ele>
        <time>2021-09-09T09:25:15Z</time>
      </trkpt>
      <trkpt lat="44.20105" lon="5.89456">
        <ele>505.1</ele>
        <time>2021-09-09T09:25:16Z</time>
      </trkpt>
      <trkpt lat="44.20107" lon="5.89461">
        <ele>505.1</ele>
        <time>2021-09-09T09:25:18Z</time>
      </trkpt>
      <trkpt lat="44.20108" lon="5.89466">
        <ele>505</ele>
        <time>2021-09-09T09:25:19Z</time>
      </trkpt>
      <trkpt lat="44.20108" lon="5.8947">
        <ele>505</ele>
        <time>2021-09-09T09:25:20Z</time>
      </trkpt>
      <trkpt lat="44.20108" lon="5.89474">
        <ele>504.9</ele>
        <time>2021-09-09T09:25:21Z</time>
      </trkpt>
      <trkpt lat="44.20108" lon="5.89478">
        <ele>504.6</ele>
        <time>2021-09-09T09:25:22Z</time>
      </trkpt>
      <trkpt lat="44.2011" lon="5.89486">
        <ele>504.6</ele>
        <time>2021-09-09T09:25:24Z</time>
      </trkpt>
      <trkpt lat="44.2011" lon="5.89495">
        <ele>504.4</ele>
        <time>2021-09-09T09:25:25Z</time>
      </trkpt>
      <trkpt lat="44.20109" lon="5.89504">
        <ele>504.3</ele>
        <time>2021-09-09T09:25:26Z</time>
      </trkpt>
      <trkpt lat="44.20109" lon="5.89511">
        <ele>504.2</ele>
        <time>2021-09-09T09:25:27Z</time>
      </trkpt>
      <trkpt lat="44.20108" lon="5.89517">
        <ele>504.2</ele>
        <time>2021-09-09T09:25:28Z</time>
      </trkpt>
      <trkpt lat="44.20107" lon="5.89523">
        <ele>504.2</ele>
        <time>2021-09-09T09:25:29Z</time>
      </trkpt>
      <trkpt lat="44.20107" lon="5.89528">
        <ele>504.1</ele>
        <time>2021-09-09T09:25:31Z</time>
      </trkpt>
      <trkpt lat="44.20107" lon="5.89537">
        <ele>504.1</ele>
        <time>2021-09-09T09:25:32Z</time>
      </trkpt>
      <trkpt lat="44.20106" lon="5.89543">
        <ele>504.1</ele>
        <time>2021-09-09T09:25:33Z</time>
      </trkpt>
      <trkpt lat="44.20106" lon="5.89547">
        <ele>504.1</ele>
        <time>2021-09-09T09:25:34Z</time>
      </trkpt>
      <trkpt lat="44.20105" lon="5.89556">
        <ele>504</ele>
        <time>2021-09-09T09:25:36Z</time>
      </trkpt>
      <trkpt lat="44.20105" lon="5.89562">
        <ele>504</ele>
        <time>2021-09-09T09:25:38Z</time>
      </trkpt>
      <trkpt lat="44.20105" lon="5.89566">
        <ele>504</ele>
        <time>2021-09-09T09:25:39Z</time>
      </trkpt>
      <trkpt lat="44.20101" lon="5.89566">
        <ele>504</ele>
        <time>2021-09-09T09:25:41Z</time>
      </trkpt>
      <trkpt lat="44.20098" lon="5.89566">
        <ele>503.9</ele>
        <time>2021-09-09T09:25:42Z</time>
      </trkpt>
      <trkpt lat="44.20094" lon="5.89565">
        <ele>503.9</ele>
        <time>2021-09-09T09:25:44Z</time>
      </trkpt>
      <trkpt lat="44.20091" lon="5.8956">
        <ele>503.8</ele>
        <time>2021-09-09T09:25:45Z</time>
      </trkpt>
      <trkpt lat="44.2009" lon="5.8956">
        <ele>503.8</ele>
        <time>2021-09-09T09:25:46Z</time>
      </trkpt>
      <trkpt lat="44.2009" lon="5.8956">
        <ele>503.8</ele>
        <time>2021-09-09T09:25:48Z</time>
      </trkpt>
      <trkpt lat="44.2009" lon="5.89561">
        <ele>503.8</ele>
        <time>2021-09-09T09:25:49Z</time>
      </trkpt>
      <trkpt lat="44.2009" lon="5.89563">
        <ele>503.7</ele>
        <time>2021-09-09T09:25:51Z</time>
      </trkpt>
      <trkpt lat="44.2009" lon="5.89565">
        <ele>503.7</ele>
        <time>2021-09-09T09:25:52Z</time>
      </trkpt>
      <trkpt lat="44.20089" lon="5.89572">
        <ele>503.6</ele>
        <time>2021-09-09T09:25:55Z</time>
      </trkpt>
      <trkpt lat="44.20094" lon="5.89594">
        <ele>503.2</ele>
        <time>2021-09-09T09:25:56Z</time>
      </trkpt>
      <trkpt lat="44.20096" lon="5.89602">
        <ele>503.1</ele>
        <time>2021-09-09T09:25:57Z</time>
      </trkpt>
      <trkpt lat="44.20098" lon="5.8961">
        <ele>503</ele>
        <time>2021-09-09T09:25:58Z</time>
      </trkpt>
      <trkpt lat="44.20104" lon="5.89621">
        <ele>502.8</ele>
        <time>2021-09-09T09:26:00Z</time>
      </trkpt>
      <trkpt lat="44.20106" lon="5.89633">
        <ele>502.6</ele>
        <time>2021-09-09T09:26:02Z</time>
      </trkpt>
      <trkpt lat="44.20106" lon="5.8964">
        <ele>502.5</ele>
        <time>2021-09-09T09:26:04Z</time>
      </trkpt>
      <trkpt lat="44.20108" lon="5.89647">
        <ele>502.4</ele>
        <time>2021-09-09T09:26:05Z</time>
      </trkpt>
      <trkpt lat="44.20107" lon="5.89664">
        <ele>502.1</ele>
        <time>2021-09-09T09:26:07Z</time>
      </trkpt>
      <trkpt lat="44.20106" lon="5.89671">
        <ele>502</ele>
        <time>2021-09-09T09:26:08Z</time>
      </trkpt>
      <trkpt lat="44.20108" lon="5.89687">
        <ele>501.9</ele>
        <time>2021-09-09T09:26:10Z</time>
      </trkpt>
      <trkpt lat="44.20108" lon="5.89695">
        <ele>501.8</ele>
        <time>2021-09-09T09:26:11Z</time>
      </trkpt>
      <trkpt lat="44.20108" lon="5.89703">
        <ele>501.7</ele>
        <time>2021-09-09T09:26:12Z</time>
      </trkpt>
      <trkpt lat="44.20108" lon="5.89719">
        <ele>501.6</ele>
        <time>2021-09-09T09:26:14Z</time>
      </trkpt>
      <trkpt lat="44.20108" lon="5.89727">
        <ele>501.5</ele>
        <time>2021-09-09T09:26:15Z</time>
      </trkpt>
      <trkpt lat="44.20108" lon="5.89736">
        <ele>501.5</ele>
        <time>2021-09-09T09:26:16Z</time>
      </trkpt>
      <trkpt lat="44.20109" lon="5.89753">
        <ele>501.6</ele>
        <time>2021-09-09T09:26:18Z</time>
      </trkpt>
      <trkpt lat="44.20111" lon="5.8977">
        <ele>501.6</ele>
        <time>2021-09-09T09:26:20Z</time>
      </trkpt>
      <trkpt lat="44.20112" lon="5.89779">
        <ele>501.7</ele>
        <time>2021-09-09T09:26:21Z</time>
      </trkpt>
      <trkpt lat="44.20113" lon="5.89796">
        <ele>501.8</ele>
        <time>2021-09-09T09:26:23Z</time>
      </trkpt>
      <trkpt lat="44.20113" lon="5.89805">
        <ele>502</ele>
        <time>2021-09-09T09:26:24Z</time>
      </trkpt>
      <trkpt lat="44.20114" lon="5.89814">
        <ele>502.1</ele>
        <time>2021-09-09T09:26:25Z</time>
      </trkpt>
      <trkpt lat="44.20115" lon="5.89822">
        <ele>502.3</ele>
        <time>2021-09-09T09:26:26Z</time>
      </trkpt>
      <trkpt lat="44.20116" lon="5.89829">
        <ele>502.6</ele>
        <time>2021-09-09T09:26:27Z</time>
      </trkpt>
      <trkpt lat="44.20117" lon="5.89836">
        <ele>502.8</ele>
        <time>2021-09-09T09:26:29Z</time>
      </trkpt>
      <trkpt lat="44.2012" lon="5.89849">
        <ele>503.2</ele>
        <time>2021-09-09T09:26:30Z</time>
      </trkpt>
      <trkpt lat="44.20121" lon="5.89855">
        <ele>503.5</ele>
        <time>2021-09-09T09:26:32Z</time>
      </trkpt>
      <trkpt lat="44.20123" lon="5.89859">
        <ele>503.6</ele>
        <time>2021-09-09T09:26:33Z</time>
      </trkpt>
      <trkpt lat="44.20123" lon="5.89861">
        <ele>503.6</ele>
        <time>2021-09-09T09:26:34Z</time>
      </trkpt>
      <trkpt lat="44.20123" lon="5.89866">
        <ele>503.7</ele>
        <time>2021-09-09T09:26:36Z</time>
      </trkpt>
      <trkpt lat="44.20123" lon="5.89868">
        <ele>503.7</ele>
        <time>2021-09-09T09:26:37Z</time>
      </trkpt>
      <trkpt lat="44.20122" lon="5.8987">
        <ele>503.8</ele>
        <time>2021-09-09T09:26:39Z</time>
      </trkpt>
      <trkpt lat="44.20121" lon="5.89873">
        <ele>503.8</ele>
        <time>2021-09-09T09:26:40Z</time>
      </trkpt>
      <trkpt lat="44.2012" lon="5.8988">
        <ele>503.7</ele>
        <time>2021-09-09T09:26:41Z</time>
      </trkpt>
      <trkpt lat="44.2012" lon="5.89886">
        <ele>503.6</ele>
        <time>2021-09-09T09:26:43Z</time>
      </trkpt>
      <trkpt lat="44.20119" lon="5.89893">
        <ele>503.4</ele>
        <time>2021-09-09T09:26:44Z</time>
      </trkpt>
      <trkpt lat="44.20118" lon="5.89899">
        <ele>503.2</ele>
        <time>2021-09-09T09:26:45Z</time>
      </trkpt>
      <trkpt lat="44.20118" lon="5.89905">
        <ele>503</ele>
        <time>2021-09-09T09:26:46Z</time>
      </trkpt>
      <trkpt lat="44.2012" lon="5.8992">
        <ele>502.5</ele>
        <time>2021-09-09T09:26:48Z</time>
      </trkpt>
      <trkpt lat="44.20121" lon="5.89936">
        <ele>502.1</ele>
        <time>2021-09-09T09:26:50Z</time>
      </trkpt>
      <trkpt lat="44.20122" lon="5.89951">
        <ele>501.9</ele>
        <time>2021-09-09T09:26:52Z</time>
      </trkpt>
      <trkpt lat="44.20121" lon="5.89968">
        <ele>501.7</ele>
        <time>2021-09-09T09:26:54Z</time>
      </trkpt>
      <trkpt lat="44.2012" lon="5.89976">
        <ele>501.6</ele>
        <time>2021-09-09T09:26:55Z</time>
      </trkpt>
      <trkpt lat="44.20118" lon="5.89993">
        <ele>501.6</ele>
        <time>2021-09-09T09:26:57Z</time>
      </trkpt>
      <trkpt lat="44.20118" lon="5.90001">
        <ele>501.5</ele>
        <time>2021-09-09T09:26:58Z</time>
      </trkpt>
      <trkpt lat="44.2012" lon="5.90009">
        <ele>501.5</ele>
        <time>2021-09-09T09:27:00Z</time>
      </trkpt>
      <trkpt lat="44.2012" lon="5.90018">
        <ele>501.5</ele>
        <time>2021-09-09T09:27:01Z</time>
      </trkpt>
      <trkpt lat="44.20117" lon="5.90033">
        <ele>501.5</ele>
        <time>2021-09-09T09:27:03Z</time>
      </trkpt>
      <trkpt lat="44.20116" lon="5.9004">
        <ele>501.5</ele>
        <time>2021-09-09T09:27:04Z</time>
      </trkpt>
      <trkpt lat="44.20114" lon="5.90048">
        <ele>501.6</ele>
        <time>2021-09-09T09:27:06Z</time>
      </trkpt>
      <trkpt lat="44.20111" lon="5.90053">
        <ele>501.6</ele>
        <time>2021-09-09T09:27:07Z</time>
      </trkpt>
      <trkpt lat="44.2011" lon="5.90061">
        <ele>501.7</ele>
        <time>2021-09-09T09:27:08Z</time>
      </trkpt>
      <trkpt lat="44.2011" lon="5.90067">
        <ele>501.7</ele>
        <time>2021-09-09T09:27:09Z</time>
      </trkpt>
      <trkpt lat="44.2011" lon="5.90072">
        <ele>501.7</ele>
        <time>2021-09-09T09:27:10Z</time>
      </trkpt>
      <trkpt lat="44.2011" lon="5.90076">
        <ele>501.7</ele>
        <time>2021-09-09T09:27:11Z</time>
      </trkpt>
      <trkpt lat="44.2011" lon="5.90087">
        <ele>501.6</ele>
        <time>2021-09-09T09:27:13Z</time>
      </trkpt>
      <trkpt lat="44.2011" lon="5.90094">
        <ele>501.6</ele>
        <time>2021-09-09T09:27:14Z</time>
      </trkpt>
      <trkpt lat="44.20112" lon="5.90101">
        <ele>501.5</ele>
        <time>2021-09-09T09:27:15Z</time>
      </trkpt>
      <trkpt lat="44.2011" lon="5.90117">
        <ele>501.5</ele>
        <time>2021-09-09T09:27:17Z</time>
      </trkpt>
      <trkpt lat="44.20109" lon="5.90124">
        <ele>501.5</ele>
        <time>2021-09-09T09:27:18Z</time>
      </trkpt>
      <trkpt lat="44.20106" lon="5.90139">
        <ele>501.6</ele>
        <time>2021-09-09T09:27:20Z</time>
      </trkpt>
      <trkpt lat="44.20105" lon="5.90154">
        <ele>501.8</ele>
        <time>2021-09-09T09:27:22Z</time>
      </trkpt>
      <trkpt lat="44.20103" lon="5.90168">
        <ele>502</ele>
        <time>2021-09-09T09:27:24Z</time>
      </trkpt>
      <trkpt lat="44.20102" lon="5.90175">
        <ele>502.1</ele>
        <time>2021-09-09T09:27:25Z</time>
      </trkpt>
      <trkpt lat="44.201" lon="5.90188">
        <ele>502.3</ele>
        <time>2021-09-09T09:27:27Z</time>
      </trkpt>
      <trkpt lat="44.201" lon="5.90195">
        <ele>502.4</ele>
        <time>2021-09-09T09:27:28Z</time>
      </trkpt>
      <trkpt lat="44.201" lon="5.90207">
        <ele>502.5</ele>
        <time>2021-09-09T09:27:30Z</time>
      </trkpt>
      <trkpt lat="44.201" lon="5.90213">
        <ele>502.6</ele>
        <time>2021-09-09T09:27:31Z</time>
      </trkpt>
      <trkpt lat="44.201" lon="5.90223">
        <ele>502.8</ele>
        <time>2021-09-09T09:27:33Z</time>
      </trkpt>
      <trkpt lat="44.201" lon="5.90228">
        <ele>503</ele>
        <time>2021-09-09T09:27:34Z</time>
      </trkpt>
      <trkpt lat="44.20098" lon="5.90232">
        <ele>503.1</ele>
        <time>2021-09-09T09:27:36Z</time>
      </trkpt>
      <trkpt lat="44.20097" lon="5.90235">
        <ele>503.2</ele>
        <time>2021-09-09T09:27:37Z</time>
      </trkpt>
      <trkpt lat="44.20098" lon="5.90246">
        <ele>503.5</ele>
        <time>2021-09-09T09:27:39Z</time>
      </trkpt>
      <trkpt lat="44.20099" lon="5.90253">
        <ele>503.7</ele>
        <time>2021-09-09T09:27:40Z</time>
      </trkpt>
      <trkpt lat="44.201" lon="5.9026">
        <ele>503.9</ele>
        <time>2021-09-09T09:27:41Z</time>
      </trkpt>
      <trkpt lat="44.20099" lon="5.9027">
        <ele>504.3</ele>
        <time>2021-09-09T09:27:42Z</time>
      </trkpt>
      <trkpt lat="44.20096" lon="5.90276">
        <ele>504.4</ele>
        <time>2021-09-09T09:27:44Z</time>
      </trkpt>
      <trkpt lat="44.20093" lon="5.90282">
        <ele>504.6</ele>
        <time>2021-09-09T09:27:46Z</time>
      </trkpt>
      <trkpt lat="44.2009" lon="5.90287">
        <ele>504.8</ele>
        <time>2021-09-09T09:27:48Z</time>
      </trkpt>
      <trkpt lat="44.20085" lon="5.90291">
        <ele>505</ele>
        <time>2021-09-09T09:27:50Z</time>
      </trkpt>
      <trkpt lat="44.20081" lon="5.90293">
        <ele>505.1</ele>
        <time>2021-09-09T09:27:51Z</time>
      </trkpt>
      <trkpt lat="44.20079" lon="5.90296">
        <ele>505.2</ele>
        <time>2021-09-09T09:27:52Z</time>
      </trkpt>
      <trkpt lat="44.20076" lon="5.90301">
        <ele>505.6</ele>
        <time>2021-09-09T09:27:54Z</time>
      </trkpt>
      <trkpt lat="44.20074" lon="5.90305">
        <ele>505.9</ele>
        <time>2021-09-09T09:27:56Z</time>
      </trkpt>
      <trkpt lat="44.20072" lon="5.90309">
        <ele>506.2</ele>
        <time>2021-09-09T09:27:58Z</time>
      </trkpt>
      <trkpt lat="44.20069" lon="5.90313">
        <ele>506.5</ele>
        <time>2021-09-09T09:28:00Z</time>
      </trkpt>
      <trkpt lat="44.20068" lon="5.90314">
        <ele>506.6</ele>
        <time>2021-09-09T09:28:01Z</time>
      </trkpt>
      <trkpt lat="44.20067" lon="5.90315">
        <ele>506.7</ele>
        <time>2021-09-09T09:28:02Z</time>
      </trkpt>
      <trkpt lat="44.20066" lon="5.90318">
        <ele>506.9</ele>
        <time>2021-09-09T09:28:04Z</time>
      </trkpt>
      <trkpt lat="44.20064" lon="5.90321">
        <ele>507</ele>
        <time>2021-09-09T09:28:06Z</time>
      </trkpt>
      <trkpt lat="44.20062" lon="5.90322">
        <ele>507.2</ele>
        <time>2021-09-09T09:28:07Z</time>
      </trkpt>
      <trkpt lat="44.20061" lon="5.90324">
        <ele>507.4</ele>
        <time>2021-09-09T09:28:09Z</time>
      </trkpt>
      <trkpt lat="44.20059" lon="5.90328">
        <ele>507.6</ele>
        <time>2021-09-09T09:28:10Z</time>
      </trkpt>
      <trkpt lat="44.20058" lon="5.9033">
        <ele>507.7</ele>
        <time>2021-09-09T09:28:11Z</time>
      </trkpt>
      <trkpt lat="44.20056" lon="5.90335">
        <ele>508</ele>
        <time>2021-09-09T09:28:13Z</time>
      </trkpt>
      <trkpt lat="44.20053" lon="5.90339">
        <ele>508.2</ele>
        <time>2021-09-09T09:28:15Z</time>
      </trkpt>
      <trkpt lat="44.20052" lon="5.90343">
        <ele>508.4</ele>
        <time>2021-09-09T09:28:16Z</time>
      </trkpt>
      <trkpt lat="44.20052" lon="5.90344">
        <ele>508.5</ele>
        <time>2021-09-09T09:28:17Z</time>
      </trkpt>
      <trkpt lat="44.2005" lon="5.90348">
        <ele>508.7</ele>
        <time>2021-09-09T09:28:19Z</time>
      </trkpt>
      <trkpt lat="44.20049" lon="5.9035">
        <ele>508.8</ele>
        <time>2021-09-09T09:28:20Z</time>
      </trkpt>
      <trkpt lat="44.20048" lon="5.90351">
        <ele>509</ele>
        <time>2021-09-09T09:28:21Z</time>
      </trkpt>
      <trkpt lat="44.20043" lon="5.90354">
        <ele>509.3</ele>
        <time>2021-09-09T09:28:23Z</time>
      </trkpt>
      <trkpt lat="44.20041" lon="5.90358">
        <ele>509.6</ele>
        <time>2021-09-09T09:28:25Z</time>
      </trkpt>
      <trkpt lat="44.20041" lon="5.90364">
        <ele>509.9</ele>
        <time>2021-09-09T09:28:27Z</time>
      </trkpt>
      <trkpt lat="44.20039" lon="5.90369">
        <ele>510.1</ele>
        <time>2021-09-09T09:28:29Z</time>
      </trkpt>
      <trkpt lat="44.20038" lon="5.90374">
        <ele>510.4</ele>
        <time>2021-09-09T09:28:31Z</time>
      </trkpt>
      <trkpt lat="44.20037" lon="5.90378">
        <ele>510.6</ele>
        <time>2021-09-09T09:28:32Z</time>
      </trkpt>
      <trkpt lat="44.20036" lon="5.90379">
        <ele>510.7</ele>
        <time>2021-09-09T09:28:33Z</time>
      </trkpt>
      <trkpt lat="44.20034" lon="5.90383">
        <ele>510.9</ele>
        <time>2021-09-09T09:28:34Z</time>
      </trkpt>
      <trkpt lat="44.20034" lon="5.90384">
        <ele>510.9</ele>
        <time>2021-09-09T09:28:35Z</time>
      </trkpt>
      <trkpt lat="44.20032" lon="5.90386">
        <ele>511.1</ele>
        <time>2021-09-09T09:28:36Z</time>
      </trkpt>
      <trkpt lat="44.20031" lon="5.90388">
        <ele>511.2</ele>
        <time>2021-09-09T09:28:38Z</time>
      </trkpt>
      <trkpt lat="44.2003" lon="5.90391">
        <ele>511.3</ele>
        <time>2021-09-09T09:28:39Z</time>
      </trkpt>
      <trkpt lat="44.2003" lon="5.90393">
        <ele>511.4</ele>
        <time>2021-09-09T09:28:41Z</time>
      </trkpt>
      <trkpt lat="44.20031" lon="5.90394">
        <ele>511.5</ele>
        <time>2021-09-09T09:28:42Z</time>
      </trkpt>
      <trkpt lat="44.20033" lon="5.90398">
        <ele>511.7</ele>
        <time>2021-09-09T09:28:44Z</time>
      </trkpt>
      <trkpt lat="44.20033" lon="5.904">
        <ele>511.7</ele>
        <time>2021-09-09T09:28:45Z</time>
      </trkpt>
      <trkpt lat="44.20034" lon="5.90402">
        <ele>511.8</ele>
        <time>2021-09-09T09:28:46Z</time>
      </trkpt>
      <trkpt lat="44.20035" lon="5.90406">
        <ele>512</ele>
        <time>2021-09-09T09:28:48Z</time>
      </trkpt>
      <trkpt lat="44.20035" lon="5.90411">
        <ele>512.2</ele>
        <time>2021-09-09T09:28:50Z</time>
      </trkpt>
      <trkpt lat="44.20034" lon="5.90415">
        <ele>512.3</ele>
        <time>2021-09-09T09:28:51Z</time>
      </trkpt>
      <trkpt lat="44.20034" lon="5.90418">
        <ele>512.4</ele>
        <time>2021-09-09T09:28:52Z</time>
      </trkpt>
      <trkpt lat="44.20032" lon="5.90421">
        <ele>512.6</ele>
        <time>2021-09-09T09:28:54Z</time>
      </trkpt>
      <trkpt lat="44.20031" lon="5.90424">
        <ele>512.7</ele>
        <time>2021-09-09T09:28:55Z</time>
      </trkpt>
      <trkpt lat="44.2003" lon="5.90425">
        <ele>512.7</ele>
        <time>2021-09-09T09:28:56Z</time>
      </trkpt>
      <trkpt lat="44.2003" lon="5.90428">
        <ele>512.9</ele>
        <time>2021-09-09T09:28:57Z</time>
      </trkpt>
      <trkpt lat="44.2003" lon="5.9043">
        <ele>512.9</ele>
        <time>2021-09-09T09:28:59Z</time>
      </trkpt>
      <trkpt lat="44.20029" lon="5.90432">
        <ele>513</ele>
        <time>2021-09-09T09:29:00Z</time>
      </trkpt>
      <trkpt lat="44.20029" lon="5.90435">
        <ele>513.1</ele>
        <time>2021-09-09T09:29:01Z</time>
      </trkpt>
      <trkpt lat="44.20028" lon="5.90438">
        <ele>513.3</ele>
        <time>2021-09-09T09:29:02Z</time>
      </trkpt>
      <trkpt lat="44.20027" lon="5.90439">
        <ele>513.3</ele>
        <time>2021-09-09T09:29:03Z</time>
      </trkpt>
      <trkpt lat="44.20026" lon="5.90443">
        <ele>513.5</ele>
        <time>2021-09-09T09:29:05Z</time>
      </trkpt>
      <trkpt lat="44.20025" lon="5.90445">
        <ele>513.6</ele>
        <time>2021-09-09T09:29:07Z</time>
      </trkpt>
      <trkpt lat="44.20024" lon="5.90447">
        <ele>513.7</ele>
        <time>2021-09-09T09:29:08Z</time>
      </trkpt>
      <trkpt lat="44.20023" lon="5.9045">
        <ele>513.9</ele>
        <time>2021-09-09T09:29:09Z</time>
      </trkpt>
      <trkpt lat="44.20023" lon="5.90454">
        <ele>514.1</ele>
        <time>2021-09-09T09:29:11Z</time>
      </trkpt>
      <trkpt lat="44.20023" lon="5.90456">
        <ele>514.2</ele>
        <time>2021-09-09T09:29:12Z</time>
      </trkpt>
      <trkpt lat="44.20022" lon="5.90459">
        <ele>514.3</ele>
        <time>2021-09-09T09:29:14Z</time>
      </trkpt>
      <trkpt lat="44.20022" lon="5.90462">
        <ele>514.5</ele>
        <time>2021-09-09T09:29:15Z</time>
      </trkpt>
      <trkpt lat="44.20022" lon="5.90464">
        <ele>514.6</ele>
        <time>2021-09-09T09:29:16Z</time>
      </trkpt>
      <trkpt lat="44.20021" lon="5.90467">
        <ele>514.8</ele>
        <time>2021-09-09T09:29:18Z</time>
      </trkpt>
      <trkpt lat="44.20019" lon="5.90471">
        <ele>515</ele>
        <time>2021-09-09T09:29:20Z</time>
      </trkpt>
      <trkpt lat="44.20018" lon="5.90472">
        <ele>515.1</ele>
        <time>2021-09-09T09:29:21Z</time>
      </trkpt>
      <trkpt lat="44.20017" lon="5.90472">
        <ele>515.2</ele>
        <time>2021-09-09T09:29:22Z</time>
      </trkpt>
      <trkpt lat="44.20016" lon="5.90473">
        <ele>515.3</ele>
        <time>2021-09-09T09:29:23Z</time>
      </trkpt>
      <trkpt lat="44.20014" lon="5.90477">
        <ele>515.5</ele>
        <time>2021-09-09T09:29:25Z</time>
      </trkpt>
      <trkpt lat="44.20012" lon="5.9048">
        <ele>515.8</ele>
        <time>2021-09-09T09:29:27Z</time>
      </trkpt>
      <trkpt lat="44.2001" lon="5.90482">
        <ele>516</ele>
        <time>2021-09-09T09:29:28Z</time>
      </trkpt>
      <trkpt lat="44.20009" lon="5.90484">
        <ele>516.1</ele>
        <time>2021-09-09T09:29:29Z</time>
      </trkpt>
      <trkpt lat="44.20009" lon="5.90486">
        <ele>516.2</ele>
        <time>2021-09-09T09:29:31Z</time>
      </trkpt>
      <trkpt lat="44.20009" lon="5.90486">
        <ele>516.2</ele>
        <time>2021-09-09T09:29:33Z</time>
      </trkpt>
      <trkpt lat="44.20009" lon="5.90487">
        <ele>516.2</ele>
        <time>2021-09-09T09:29:34Z</time>
      </trkpt>
      <trkpt lat="44.20009" lon="5.90488">
        <ele>516.3</ele>
        <time>2021-09-09T09:29:36Z</time>
      </trkpt>
      <trkpt lat="44.20009" lon="5.90491">
        <ele>516.5</ele>
        <time>2021-09-09T09:29:37Z</time>
      </trkpt>
      <trkpt lat="44.20009" lon="5.90493">
        <ele>516.6</ele>
        <time>2021-09-09T09:29:39Z</time>
      </trkpt>
      <trkpt lat="44.20009" lon="5.905">
        <ele>517</ele>
        <time>2021-09-09T09:29:43Z</time>
      </trkpt>
      <trkpt lat="44.20008" lon="5.90504">
        <ele>517.3</ele>
        <time>2021-09-09T09:29:44Z</time>
      </trkpt>
      <trkpt lat="44.20006" lon="5.90511">
        <ele>517.7</ele>
        <time>2021-09-09T09:29:46Z</time>
      </trkpt>
      <trkpt lat="44.20004" lon="5.90513">
        <ele>517.9</ele>
        <time>2021-09-09T09:29:48Z</time>
      </trkpt>
      <trkpt lat="44.20003" lon="5.90515">
        <ele>518.1</ele>
        <time>2021-09-09T09:29:49Z</time>
      </trkpt>
      <trkpt lat="44.20001" lon="5.90517">
        <ele>518.3</ele>
        <time>2021-09-09T09:29:50Z</time>
      </trkpt>
      <trkpt lat="44.19999" lon="5.9052">
        <ele>518.6</ele>
        <time>2021-09-09T09:29:51Z</time>
      </trkpt>
      <trkpt lat="44.19996" lon="5.90524">
        <ele>518.9</ele>
        <time>2021-09-09T09:29:53Z</time>
      </trkpt>
      <trkpt lat="44.19995" lon="5.90528">
        <ele>519.3</ele>
        <time>2021-09-09T09:29:54Z</time>
      </trkpt>
      <trkpt lat="44.19995" lon="5.90533">
        <ele>519.6</ele>
        <time>2021-09-09T09:29:55Z</time>
      </trkpt>
      <trkpt lat="44.19995" lon="5.90534">
        <ele>519.7</ele>
        <time>2021-09-09T09:29:56Z</time>
      </trkpt>
      <trkpt lat="44.19995" lon="5.90539">
        <ele>520.1</ele>
        <time>2021-09-09T09:29:58Z</time>
      </trkpt>
      <trkpt lat="44.19996" lon="5.90544">
        <ele>520.4</ele>
        <time>2021-09-09T09:29:59Z</time>
      </trkpt>
      <trkpt lat="44.19995" lon="5.90545">
        <ele>520.4</ele>
        <time>2021-09-09T09:30:00Z</time>
      </trkpt>
      <trkpt lat="44.19994" lon="5.90549">
        <ele>520.8</ele>
        <time>2021-09-09T09:30:02Z</time>
      </trkpt>
      <trkpt lat="44.19994" lon="5.90551">
        <ele>520.9</ele>
        <time>2021-09-09T09:30:03Z</time>
      </trkpt>
      <trkpt lat="44.19994" lon="5.90553">
        <ele>521</ele>
        <time>2021-09-09T09:30:05Z</time>
      </trkpt>
      <trkpt lat="44.19993" lon="5.90554">
        <ele>521.1</ele>
        <time>2021-09-09T09:30:06Z</time>
      </trkpt>
      <trkpt lat="44.19992" lon="5.90559">
        <ele>521.5</ele>
        <time>2021-09-09T09:30:08Z</time>
      </trkpt>
      <trkpt lat="44.19992" lon="5.90561">
        <ele>521.6</ele>
        <time>2021-09-09T09:30:09Z</time>
      </trkpt>
      <trkpt lat="44.1999" lon="5.90565">
        <ele>522</ele>
        <time>2021-09-09T09:30:11Z</time>
      </trkpt>
      <trkpt lat="44.19989" lon="5.90568">
        <ele>522.2</ele>
        <time>2021-09-09T09:30:12Z</time>
      </trkpt>
      <trkpt lat="44.19988" lon="5.9057">
        <ele>522.3</ele>
        <time>2021-09-09T09:30:13Z</time>
      </trkpt>
      <trkpt lat="44.19988" lon="5.90573">
        <ele>522.6</ele>
        <time>2021-09-09T09:30:15Z</time>
      </trkpt>
      <trkpt lat="44.19989" lon="5.90576">
        <ele>522.8</ele>
        <time>2021-09-09T09:30:17Z</time>
      </trkpt>
      <trkpt lat="44.19989" lon="5.90577">
        <ele>522.9</ele>
        <time>2021-09-09T09:30:18Z</time>
      </trkpt>
      <trkpt lat="44.1999" lon="5.9058">
        <ele>523.1</ele>
        <time>2021-09-09T09:30:20Z</time>
      </trkpt>
      <trkpt lat="44.19989" lon="5.90582">
        <ele>523.2</ele>
        <time>2021-09-09T09:30:21Z</time>
      </trkpt>
      <trkpt lat="44.19989" lon="5.90586">
        <ele>523.5</ele>
        <time>2021-09-09T09:30:23Z</time>
      </trkpt>
      <trkpt lat="44.19989" lon="5.90587">
        <ele>523.6</ele>
        <time>2021-09-09T09:30:24Z</time>
      </trkpt>
      <trkpt lat="44.19986" lon="5.90591">
        <ele>523.9</ele>
        <time>2021-09-09T09:30:26Z</time>
      </trkpt>
      <trkpt lat="44.19984" lon="5.90591">
        <ele>524.1</ele>
        <time>2021-09-09T09:30:27Z</time>
      </trkpt>
      <trkpt lat="44.19982" lon="5.90592">
        <ele>524.3</ele>
        <time>2021-09-09T09:30:28Z</time>
      </trkpt>
      <trkpt lat="44.1998" lon="5.90594">
        <ele>524.5</ele>
        <time>2021-09-09T09:30:30Z</time>
      </trkpt>
      <trkpt lat="44.19981" lon="5.90594">
        <ele>524.6</ele>
        <time>2021-09-09T09:30:32Z</time>
      </trkpt>
      <trkpt lat="44.19979" lon="5.90596">
        <ele>524.8</ele>
        <time>2021-09-09T09:30:34Z</time>
      </trkpt>
      <trkpt lat="44.19978" lon="5.90598">
        <ele>525</ele>
        <time>2021-09-09T09:30:36Z</time>
      </trkpt>
      <trkpt lat="44.19977" lon="5.906">
        <ele>525.2</ele>
        <time>2021-09-09T09:30:38Z</time>
      </trkpt>
      <trkpt lat="44.19976" lon="5.90602">
        <ele>525.3</ele>
        <time>2021-09-09T09:30:40Z</time>
      </trkpt>
      <trkpt lat="44.19975" lon="5.90603">
        <ele>525.5</ele>
        <time>2021-09-09T09:30:42Z</time>
      </trkpt>
      <trkpt lat="44.19975" lon="5.90604">
        <ele>525.6</ele>
        <time>2021-09-09T09:30:44Z</time>
      </trkpt>
      <trkpt lat="44.19965" lon="5.90632">
        <ele>527.6</ele>
        <time>2021-09-09T09:31:07Z</time>
      </trkpt>
      <trkpt lat="44.19964" lon="5.90635">
        <ele>527.9</ele>
        <time>2021-09-09T09:31:08Z</time>
      </trkpt>
      <trkpt lat="44.19963" lon="5.90641">
        <ele>528.3</ele>
        <time>2021-09-09T09:31:10Z</time>
      </trkpt>
      <trkpt lat="44.19964" lon="5.90643">
        <ele>528.4</ele>
        <time>2021-09-09T09:31:11Z</time>
      </trkpt>
      <trkpt lat="44.19964" lon="5.90645">
        <ele>528.6</ele>
        <time>2021-09-09T09:31:12Z</time>
      </trkpt>
      <trkpt lat="44.19965" lon="5.90647">
        <ele>528.7</ele>
        <time>2021-09-09T09:31:14Z</time>
      </trkpt>
      <trkpt lat="44.19965" lon="5.90649">
        <ele>528.8</ele>
        <time>2021-09-09T09:31:15Z</time>
      </trkpt>
      <trkpt lat="44.19965" lon="5.90651">
        <ele>529</ele>
        <time>2021-09-09T09:31:16Z</time>
      </trkpt>
      <trkpt lat="44.19965" lon="5.90652">
        <ele>529.1</ele>
        <time>2021-09-09T09:31:17Z</time>
      </trkpt>
      <trkpt lat="44.19965" lon="5.90654">
        <ele>529.1</ele>
        <time>2021-09-09T09:31:19Z</time>
      </trkpt>
      <trkpt lat="44.19966" lon="5.90655">
        <ele>529.2</ele>
        <time>2021-09-09T09:31:20Z</time>
      </trkpt>
      <trkpt lat="44.19966" lon="5.90659">
        <ele>529.5</ele>
        <time>2021-09-09T09:31:21Z</time>
      </trkpt>
      <trkpt lat="44.19965" lon="5.9066">
        <ele>529.6</ele>
        <time>2021-09-09T09:31:22Z</time>
      </trkpt>
      <trkpt lat="44.19965" lon="5.90661">
        <ele>529.6</ele>
        <time>2021-09-09T09:31:24Z</time>
      </trkpt>
      <trkpt lat="44.19965" lon="5.90662">
        <ele>529.7</ele>
        <time>2021-09-09T09:31:25Z</time>
      </trkpt>
      <trkpt lat="44.19965" lon="5.90664">
        <ele>529.8</ele>
        <time>2021-09-09T09:31:26Z</time>
      </trkpt>
      <trkpt lat="44.19964" lon="5.90665">
        <ele>529.9</ele>
        <time>2021-09-09T09:31:27Z</time>
      </trkpt>
      <trkpt lat="44.19962" lon="5.90668">
        <ele>530.1</ele>
        <time>2021-09-09T09:31:29Z</time>
      </trkpt>
      <trkpt lat="44.19962" lon="5.90669">
        <ele>530.2</ele>
        <time>2021-09-09T09:31:30Z</time>
      </trkpt>
      <trkpt lat="44.19961" lon="5.9067">
        <ele>530.3</ele>
        <time>2021-09-09T09:31:31Z</time>
      </trkpt>
      <trkpt lat="44.1996" lon="5.90671">
        <ele>530.4</ele>
        <time>2021-09-09T09:31:32Z</time>
      </trkpt>
      <trkpt lat="44.19959" lon="5.90673">
        <ele>530.6</ele>
        <time>2021-09-09T09:31:34Z</time>
      </trkpt>
      <trkpt lat="44.19958" lon="5.90675">
        <ele>530.7</ele>
        <time>2021-09-09T09:31:36Z</time>
      </trkpt>
      <trkpt lat="44.19958" lon="5.90677">
        <ele>530.8</ele>
        <time>2021-09-09T09:31:37Z</time>
      </trkpt>
      <trkpt lat="44.19957" lon="5.90678">
        <ele>530.9</ele>
        <time>2021-09-09T09:31:38Z</time>
      </trkpt>
      <trkpt lat="44.19957" lon="5.90681">
        <ele>531.1</ele>
        <time>2021-09-09T09:31:39Z</time>
      </trkpt>
      <trkpt lat="44.19956" lon="5.90684">
        <ele>531.3</ele>
        <time>2021-09-09T09:31:41Z</time>
      </trkpt>
      <trkpt lat="44.19956" lon="5.90684">
        <ele>531.3</ele>
        <time>2021-09-09T09:31:41Z</time>
      </trkpt>
      <trkpt lat="44.19955" lon="5.90686">
        <ele>531.5</ele>
        <time>2021-09-09T09:31:42Z</time>
      </trkpt>
      <trkpt lat="44.19955" lon="5.90688">
        <ele>531.6</ele>
        <time>2021-09-09T09:31:44Z</time>
      </trkpt>
      <trkpt lat="44.19955" lon="5.90688">
        <ele>531.6</ele>
        <time>2021-09-09T09:31:45Z</time>
      </trkpt>
      <trkpt lat="44.19955" lon="5.90689">
        <ele>531.7</ele>
        <time>2021-09-09T09:31:46Z</time>
      </trkpt>
      <trkpt lat="44.19954" lon="5.90691">
        <ele>531.8</ele>
        <time>2021-09-09T09:31:48Z</time>
      </trkpt>
      <trkpt lat="44.19953" lon="5.90692">
        <ele>531.9</ele>
        <time>2021-09-09T09:31:49Z</time>
      </trkpt>
      <trkpt lat="44.19953" lon="5.90694">
        <ele>532</ele>
        <time>2021-09-09T09:31:50Z</time>
      </trkpt>
      <trkpt lat="44.19952" lon="5.90695">
        <ele>532.1</ele>
        <time>2021-09-09T09:31:51Z</time>
      </trkpt>
      <trkpt lat="44.19952" lon="5.90696">
        <ele>532.1</ele>
        <time>2021-09-09T09:31:53Z</time>
      </trkpt>
      <trkpt lat="44.19952" lon="5.90696">
        <ele>532.2</ele>
        <time>2021-09-09T09:31:54Z</time>
      </trkpt>
      <trkpt lat="44.19952" lon="5.90697">
        <ele>532.2</ele>
        <time>2021-09-09T09:31:55Z</time>
      </trkpt>
      <trkpt lat="44.19952" lon="5.90697">
        <ele>532.2</ele>
        <time>2021-09-09T09:31:56Z</time>
      </trkpt>
      <trkpt lat="44.19951" lon="5.90698">
        <ele>532.3</ele>
        <time>2021-09-09T09:31:57Z</time>
      </trkpt>
      <trkpt lat="44.19951" lon="5.90699">
        <ele>532.4</ele>
        <time>2021-09-09T09:31:58Z</time>
      </trkpt>
      <trkpt lat="44.1995" lon="5.907">
        <ele>532.4</ele>
        <time>2021-09-09T09:31:59Z</time>
      </trkpt>
      <trkpt lat="44.19949" lon="5.90701">
        <ele>532.6</ele>
        <time>2021-09-09T09:32:00Z</time>
      </trkpt>
      <trkpt lat="44.19948" lon="5.90702">
        <ele>532.7</ele>
        <time>2021-09-09T09:32:02Z</time>
      </trkpt>
      <trkpt lat="44.19948" lon="5.90703">
        <ele>532.7</ele>
        <time>2021-09-09T09:32:03Z</time>
      </trkpt>
      <trkpt lat="44.19947" lon="5.90703">
        <ele>532.8</ele>
        <time>2021-09-09T09:32:04Z</time>
      </trkpt>
      <trkpt lat="44.19946" lon="5.90704">
        <ele>532.9</ele>
        <time>2021-09-09T09:32:06Z</time>
      </trkpt>
      <trkpt lat="44.19946" lon="5.90704">
        <ele>532.9</ele>
        <time>2021-09-09T09:32:07Z</time>
      </trkpt>
      <trkpt lat="44.19945" lon="5.90705">
        <ele>533</ele>
        <time>2021-09-09T09:32:08Z</time>
      </trkpt>
      <trkpt lat="44.19944" lon="5.90706">
        <ele>533.2</ele>
        <time>2021-09-09T09:32:09Z</time>
      </trkpt>
      <trkpt lat="44.1994" lon="5.90708">
        <ele>533.5</ele>
        <time>2021-09-09T09:32:11Z</time>
      </trkpt>
      <trkpt lat="44.19938" lon="5.90709">
        <ele>533.7</ele>
        <time>2021-09-09T09:32:12Z</time>
      </trkpt>
      <trkpt lat="44.19936" lon="5.9071">
        <ele>533.9</ele>
        <time>2021-09-09T09:32:13Z</time>
      </trkpt>
      <trkpt lat="44.19935" lon="5.90711">
        <ele>534.1</ele>
        <time>2021-09-09T09:32:14Z</time>
      </trkpt>
      <trkpt lat="44.19934" lon="5.90713">
        <ele>534.2</ele>
        <time>2021-09-09T09:32:15Z</time>
      </trkpt>
      <trkpt lat="44.19932" lon="5.90714">
        <ele>534.4</ele>
        <time>2021-09-09T09:32:17Z</time>
      </trkpt>
      <trkpt lat="44.19932" lon="5.90715">
        <ele>534.5</ele>
        <time>2021-09-09T09:32:18Z</time>
      </trkpt>
      <trkpt lat="44.19931" lon="5.90715">
        <ele>534.5</ele>
        <time>2021-09-09T09:32:19Z</time>
      </trkpt>
      <trkpt lat="44.19931" lon="5.90716">
        <ele>534.6</ele>
        <time>2021-09-09T09:32:20Z</time>
      </trkpt>
      <trkpt lat="44.1993" lon="5.90716">
        <ele>534.7</ele>
        <time>2021-09-09T09:32:21Z</time>
      </trkpt>
      <trkpt lat="44.19929" lon="5.90719">
        <ele>534.9</ele>
        <time>2021-09-09T09:32:23Z</time>
      </trkpt>
      <trkpt lat="44.19928" lon="5.9072">
        <ele>535</ele>
        <time>2021-09-09T09:32:24Z</time>
      </trkpt>
      <trkpt lat="44.19927" lon="5.90722">
        <ele>535.2</ele>
        <time>2021-09-09T09:32:25Z</time>
      </trkpt>
      <trkpt lat="44.19925" lon="5.90724">
        <ele>535.4</ele>
        <time>2021-09-09T09:32:27Z</time>
      </trkpt>
      <trkpt lat="44.19925" lon="5.90725">
        <ele>535.5</ele>
        <time>2021-09-09T09:32:28Z</time>
      </trkpt>
      <trkpt lat="44.19924" lon="5.90726">
        <ele>535.6</ele>
        <time>2021-09-09T09:32:29Z</time>
      </trkpt>
      <trkpt lat="44.19923" lon="5.90727">
        <ele>535.7</ele>
        <time>2021-09-09T09:32:30Z</time>
      </trkpt>
      <trkpt lat="44.19923" lon="5.90728">
        <ele>535.7</ele>
        <time>2021-09-09T09:32:32Z</time>
      </trkpt>
      <trkpt lat="44.19922" lon="5.90728">
        <ele>535.8</ele>
        <time>2021-09-09T09:32:33Z</time>
      </trkpt>
      <trkpt lat="44.19922" lon="5.90728">
        <ele>535.8</ele>
        <time>2021-09-09T09:32:34Z</time>
      </trkpt>
      <trkpt lat="44.19922" lon="5.90728">
        <ele>535.9</ele>
        <time>2021-09-09T09:32:35Z</time>
      </trkpt>
      <trkpt lat="44.19922" lon="5.90729">
        <ele>535.9</ele>
        <time>2021-09-09T09:32:37Z</time>
      </trkpt>
      <trkpt lat="44.19921" lon="5.90729">
        <ele>535.9</ele>
        <time>2021-09-09T09:32:38Z</time>
      </trkpt>
      <trkpt lat="44.19921" lon="5.90729">
        <ele>536</ele>
        <time>2021-09-09T09:32:39Z</time>
      </trkpt>
      <trkpt lat="44.19918" lon="5.9073">
        <ele>536.3</ele>
        <time>2021-09-09T09:32:41Z</time>
      </trkpt>
      <trkpt lat="44.19915" lon="5.90732">
        <ele>536.6</ele>
        <time>2021-09-09T09:32:42Z</time>
      </trkpt>
      <trkpt lat="44.19914" lon="5.90732">
        <ele>536.6</ele>
        <time>2021-09-09T09:32:43Z</time>
      </trkpt>
      <trkpt lat="44.19912" lon="5.90733">
        <ele>536.8</ele>
        <time>2021-09-09T09:32:45Z</time>
      </trkpt>
      <trkpt lat="44.1991" lon="5.90733">
        <ele>537</ele>
        <time>2021-09-09T09:32:47Z</time>
      </trkpt>
      <trkpt lat="44.19909" lon="5.90734">
        <ele>537.2</ele>
        <time>2021-09-09T09:32:48Z</time>
      </trkpt>
      <trkpt lat="44.19908" lon="5.90735">
        <ele>537.3</ele>
        <time>2021-09-09T09:32:49Z</time>
      </trkpt>
      <trkpt lat="44.19907" lon="5.90735">
        <ele>537.4</ele>
        <time>2021-09-09T09:32:50Z</time>
      </trkpt>
      <trkpt lat="44.19906" lon="5.90735">
        <ele>537.4</ele>
        <time>2021-09-09T09:32:51Z</time>
      </trkpt>
      <trkpt lat="44.19905" lon="5.90736">
        <ele>537.6</ele>
        <time>2021-09-09T09:32:53Z</time>
      </trkpt>
      <trkpt lat="44.19904" lon="5.90736">
        <ele>537.6</ele>
        <time>2021-09-09T09:32:54Z</time>
      </trkpt>
      <trkpt lat="44.19904" lon="5.90736">
        <ele>537.6</ele>
        <time>2021-09-09T09:32:55Z</time>
      </trkpt>
      <trkpt lat="44.19904" lon="5.90737">
        <ele>537.7</ele>
        <time>2021-09-09T09:32:57Z</time>
      </trkpt>
      <trkpt lat="44.19904" lon="5.90737">
        <ele>537.7</ele>
        <time>2021-09-09T09:32:58Z</time>
      </trkpt>
      <trkpt lat="44.19903" lon="5.90737">
        <ele>537.7</ele>
        <time>2021-09-09T09:33:00Z</time>
      </trkpt>
      <trkpt lat="44.19903" lon="5.90737">
        <ele>537.7</ele>
        <time>2021-09-09T09:33:01Z</time>
      </trkpt>
      <trkpt lat="44.19902" lon="5.90737">
        <ele>537.8</ele>
        <time>2021-09-09T09:33:02Z</time>
      </trkpt>
      <trkpt lat="44.19901" lon="5.90737">
        <ele>538</ele>
        <time>2021-09-09T09:33:03Z</time>
      </trkpt>
      <trkpt lat="44.19899" lon="5.90737">
        <ele>538.1</ele>
        <time>2021-09-09T09:33:04Z</time>
      </trkpt>
      <trkpt lat="44.19897" lon="5.90736">
        <ele>538.4</ele>
        <time>2021-09-09T09:33:06Z</time>
      </trkpt>
      <trkpt lat="44.19895" lon="5.90736">
        <ele>538.5</ele>
        <time>2021-09-09T09:33:07Z</time>
      </trkpt>
      <trkpt lat="44.19894" lon="5.90736">
        <ele>538.6</ele>
        <time>2021-09-09T09:33:08Z</time>
      </trkpt>
      <trkpt lat="44.19894" lon="5.90736">
        <ele>538.6</ele>
        <time>2021-09-09T09:33:09Z</time>
      </trkpt>
      <trkpt lat="44.19893" lon="5.90736">
        <ele>538.8</ele>
        <time>2021-09-09T09:33:10Z</time>
      </trkpt>
      <trkpt lat="44.19892" lon="5.90736">
        <ele>538.8</ele>
        <time>2021-09-09T09:33:12Z</time>
      </trkpt>
      <trkpt lat="44.19891" lon="5.90736">
        <ele>538.9</ele>
        <time>2021-09-09T09:33:14Z</time>
      </trkpt>
      <trkpt lat="44.1989" lon="5.90737">
        <ele>539</ele>
        <time>2021-09-09T09:33:15Z</time>
      </trkpt>
      <trkpt lat="44.19889" lon="5.90737">
        <ele>539.1</ele>
        <time>2021-09-09T09:33:16Z</time>
      </trkpt>
      <trkpt lat="44.19886" lon="5.90737">
        <ele>539.4</ele>
        <time>2021-09-09T09:33:17Z</time>
      </trkpt>
      <trkpt lat="44.19885" lon="5.90737">
        <ele>539.5</ele>
        <time>2021-09-09T09:33:18Z</time>
      </trkpt>
      <trkpt lat="44.19881" lon="5.90738">
        <ele>539.9</ele>
        <time>2021-09-09T09:33:20Z</time>
      </trkpt>
      <trkpt lat="44.1988" lon="5.90738">
        <ele>540</ele>
        <time>2021-09-09T09:33:21Z</time>
      </trkpt>
      <trkpt lat="44.19878" lon="5.90738">
        <ele>540.2</ele>
        <time>2021-09-09T09:33:22Z</time>
      </trkpt>
      <trkpt lat="44.19875" lon="5.90739">
        <ele>540.5</ele>
        <time>2021-09-09T09:33:24Z</time>
      </trkpt>
      <trkpt lat="44.19872" lon="5.90741">
        <ele>540.9</ele>
        <time>2021-09-09T09:33:25Z</time>
      </trkpt>
      <trkpt lat="44.19871" lon="5.90741">
        <ele>541</ele>
        <time>2021-09-09T09:33:26Z</time>
      </trkpt>
      <trkpt lat="44.19867" lon="5.90743">
        <ele>541.4</ele>
        <time>2021-09-09T09:33:28Z</time>
      </trkpt>
      <trkpt lat="44.19866" lon="5.90744">
        <ele>541.5</ele>
        <time>2021-09-09T09:33:29Z</time>
      </trkpt>
      <trkpt lat="44.19865" lon="5.90745">
        <ele>541.6</ele>
        <time>2021-09-09T09:33:30Z</time>
      </trkpt>
      <trkpt lat="44.19864" lon="5.90746">
        <ele>541.7</ele>
        <time>2021-09-09T09:33:31Z</time>
      </trkpt>
      <trkpt lat="44.19861" lon="5.90748">
        <ele>542.1</ele>
        <time>2021-09-09T09:33:33Z</time>
      </trkpt>
      <trkpt lat="44.1986" lon="5.90749">
        <ele>542.2</ele>
        <time>2021-09-09T09:33:34Z</time>
      </trkpt>
      <trkpt lat="44.19857" lon="5.90752">
        <ele>542.6</ele>
        <time>2021-09-09T09:33:36Z</time>
      </trkpt>
      <trkpt lat="44.19855" lon="5.90753">
        <ele>542.8</ele>
        <time>2021-09-09T09:33:37Z</time>
      </trkpt>
      <trkpt lat="44.19854" lon="5.90754">
        <ele>542.9</ele>
        <time>2021-09-09T09:33:38Z</time>
      </trkpt>
      <trkpt lat="44.19852" lon="5.90756">
        <ele>543.2</ele>
        <time>2021-09-09T09:33:40Z</time>
      </trkpt>
      <trkpt lat="44.1985" lon="5.90757">
        <ele>543.3</ele>
        <time>2021-09-09T09:33:42Z</time>
      </trkpt>
      <trkpt lat="44.1985" lon="5.90757">
        <ele>543.4</ele>
        <time>2021-09-09T09:33:43Z</time>
      </trkpt>
      <trkpt lat="44.1985" lon="5.90758">
        <ele>543.4</ele>
        <time>2021-09-09T09:33:45Z</time>
      </trkpt>
      <trkpt lat="44.1985" lon="5.90758">
        <ele>543.5</ele>
        <time>2021-09-09T09:33:46Z</time>
      </trkpt>
      <trkpt lat="44.1985" lon="5.90759">
        <ele>543.5</ele>
        <time>2021-09-09T09:33:48Z</time>
      </trkpt>
      <trkpt lat="44.1985" lon="5.90759">
        <ele>543.5</ele>
        <time>2021-09-09T09:33:49Z</time>
      </trkpt>
      <trkpt lat="44.1985" lon="5.90759">
        <ele>543.5</ele>
        <time>2021-09-09T09:33:51Z</time>
      </trkpt>
      <trkpt lat="44.19849" lon="5.90759">
        <ele>543.6</ele>
        <time>2021-09-09T09:33:52Z</time>
      </trkpt>
      <trkpt lat="44.19846" lon="5.90762">
        <ele>544</ele>
        <time>2021-09-09T09:33:54Z</time>
      </trkpt>
      <trkpt lat="44.19833" lon="5.90773">
        <ele>545.4</ele>
        <time>2021-09-09T09:34:01Z</time>
      </trkpt>
      <trkpt lat="44.1983" lon="5.90775">
        <ele>545.7</ele>
        <time>2021-09-09T09:34:02Z</time>
      </trkpt>
      <trkpt lat="44.19829" lon="5.90775">
        <ele>545.9</ele>
        <time>2021-09-09T09:34:03Z</time>
      </trkpt>
      <trkpt lat="44.19827" lon="5.90776">
        <ele>546</ele>
        <time>2021-09-09T09:34:04Z</time>
      </trkpt>
      <trkpt lat="44.19826" lon="5.90777">
        <ele>546.2</ele>
        <time>2021-09-09T09:34:06Z</time>
      </trkpt>
      <trkpt lat="44.19823" lon="5.9078">
        <ele>546.4</ele>
        <time>2021-09-09T09:34:08Z</time>
      </trkpt>
      <trkpt lat="44.19822" lon="5.90783">
        <ele>546.7</ele>
        <time>2021-09-09T09:34:09Z</time>
      </trkpt>
      <trkpt lat="44.19821" lon="5.90784">
        <ele>546.8</ele>
        <time>2021-09-09T09:34:10Z</time>
      </trkpt>
      <trkpt lat="44.19819" lon="5.90787">
        <ele>547</ele>
        <time>2021-09-09T09:34:12Z</time>
      </trkpt>
      <trkpt lat="44.19818" lon="5.90791">
        <ele>547.3</ele>
        <time>2021-09-09T09:34:14Z</time>
      </trkpt>
      <trkpt lat="44.19818" lon="5.90791">
        <ele>547.3</ele>
        <time>2021-09-09T09:34:15Z</time>
      </trkpt>
      <trkpt lat="44.19819" lon="5.90792">
        <ele>547.3</ele>
        <time>2021-09-09T09:34:16Z</time>
      </trkpt>
      <trkpt lat="44.19819" lon="5.90792">
        <ele>547.4</ele>
        <time>2021-09-09T09:34:18Z</time>
      </trkpt>
      <trkpt lat="44.19819" lon="5.90792">
        <ele>547.4</ele>
        <time>2021-09-09T09:34:19Z</time>
      </trkpt>
      <trkpt lat="44.19819" lon="5.90792">
        <ele>547.4</ele>
        <time>2021-09-09T09:34:20Z</time>
      </trkpt>
      <trkpt lat="44.19819" lon="5.90792">
        <ele>547.4</ele>
        <time>2021-09-09T09:34:21Z</time>
      </trkpt>
      <trkpt lat="44.19819" lon="5.90792">
        <ele>547.4</ele>
        <time>2021-09-09T09:34:22Z</time>
      </trkpt>
      <trkpt lat="44.19819" lon="5.90792">
        <ele>547.4</ele>
        <time>2021-09-09T09:34:23Z</time>
      </trkpt>
      <trkpt lat="44.1982" lon="5.90794">
        <ele>547.5</ele>
        <time>2021-09-09T09:34:25Z</time>
      </trkpt>
      <trkpt lat="44.1982" lon="5.90796">
        <ele>547.6</ele>
        <time>2021-09-09T09:34:26Z</time>
      </trkpt>
      <trkpt lat="44.1982" lon="5.90798">
        <ele>547.7</ele>
        <time>2021-09-09T09:34:28Z</time>
      </trkpt>
      <trkpt lat="44.19818" lon="5.90811">
        <ele>548.5</ele>
        <time>2021-09-09T09:34:34Z</time>
      </trkpt>
      <trkpt lat="44.19818" lon="5.90813">
        <ele>548.6</ele>
        <time>2021-09-09T09:34:35Z</time>
      </trkpt>
      <trkpt lat="44.19819" lon="5.90814">
        <ele>548.6</ele>
        <time>2021-09-09T09:34:37Z</time>
      </trkpt>
      <trkpt lat="44.19819" lon="5.90816">
        <ele>548.7</ele>
        <time>2021-09-09T09:34:38Z</time>
      </trkpt>
      <trkpt lat="44.19819" lon="5.90817">
        <ele>548.8</ele>
        <time>2021-09-09T09:34:39Z</time>
      </trkpt>
      <trkpt lat="44.19819" lon="5.90818">
        <ele>548.9</ele>
        <time>2021-09-09T09:34:40Z</time>
      </trkpt>
      <trkpt lat="44.19819" lon="5.9082">
        <ele>548.9</ele>
        <time>2021-09-09T09:34:41Z</time>
      </trkpt>
      <trkpt lat="44.19819" lon="5.90822">
        <ele>549.1</ele>
        <time>2021-09-09T09:34:43Z</time>
      </trkpt>
      <trkpt lat="44.1982" lon="5.90828">
        <ele>549.4</ele>
        <time>2021-09-09T09:34:45Z</time>
      </trkpt>
      <trkpt lat="44.1982" lon="5.90828">
        <ele>549.4</ele>
        <time>2021-09-09T09:34:45Z</time>
      </trkpt>
      <trkpt lat="44.19819" lon="5.90834">
        <ele>549.7</ele>
        <time>2021-09-09T09:34:47Z</time>
      </trkpt>
      <trkpt lat="44.1982" lon="5.90839">
        <ele>549.9</ele>
        <time>2021-09-09T09:34:48Z</time>
      </trkpt>
      <trkpt lat="44.19821" lon="5.90846">
        <ele>550.3</ele>
        <time>2021-09-09T09:34:50Z</time>
      </trkpt>
      <trkpt lat="44.19821" lon="5.90852">
        <ele>550.6</ele>
        <time>2021-09-09T09:34:52Z</time>
      </trkpt>
      <trkpt lat="44.19821" lon="5.90858">
        <ele>550.8</ele>
        <time>2021-09-09T09:34:53Z</time>
      </trkpt>
      <trkpt lat="44.19821" lon="5.90865">
        <ele>551.1</ele>
        <time>2021-09-09T09:34:55Z</time>
      </trkpt>
      <trkpt lat="44.19821" lon="5.90871">
        <ele>551.3</ele>
        <time>2021-09-09T09:34:56Z</time>
      </trkpt>
      <trkpt lat="44.1982" lon="5.90876">
        <ele>551.5</ele>
        <time>2021-09-09T09:34:58Z</time>
      </trkpt>
      <trkpt lat="44.19818" lon="5.90882">
        <ele>551.7</ele>
        <time>2021-09-09T09:34:59Z</time>
      </trkpt>
      <trkpt lat="44.19817" lon="5.90886">
        <ele>551.9</ele>
        <time>2021-09-09T09:35:00Z</time>
      </trkpt>
      <trkpt lat="44.19816" lon="5.90891">
        <ele>552.1</ele>
        <time>2021-09-09T09:35:02Z</time>
      </trkpt>
      <trkpt lat="44.19814" lon="5.90895">
        <ele>552.3</ele>
        <time>2021-09-09T09:35:03Z</time>
      </trkpt>
      <trkpt lat="44.19814" lon="5.90899">
        <ele>552.4</ele>
        <time>2021-09-09T09:35:04Z</time>
      </trkpt>
      <trkpt lat="44.19815" lon="5.90905">
        <ele>552.6</ele>
        <time>2021-09-09T09:35:06Z</time>
      </trkpt>
      <trkpt lat="44.19814" lon="5.90911">
        <ele>552.8</ele>
        <time>2021-09-09T09:35:08Z</time>
      </trkpt>
      <trkpt lat="44.19813" lon="5.90914">
        <ele>552.9</ele>
        <time>2021-09-09T09:35:09Z</time>
      </trkpt>
      <trkpt lat="44.19814" lon="5.90919">
        <ele>553.1</ele>
        <time>2021-09-09T09:35:11Z</time>
      </trkpt>
      <trkpt lat="44.19815" lon="5.90921">
        <ele>553.2</ele>
        <time>2021-09-09T09:35:12Z</time>
      </trkpt>
      <trkpt lat="44.19816" lon="5.90926">
        <ele>553.4</ele>
        <time>2021-09-09T09:35:14Z</time>
      </trkpt>
      <trkpt lat="44.19816" lon="5.9093">
        <ele>553.5</ele>
        <time>2021-09-09T09:35:16Z</time>
      </trkpt>
      <trkpt lat="44.19816" lon="5.90933">
        <ele>553.6</ele>
        <time>2021-09-09T09:35:17Z</time>
      </trkpt>
      <trkpt lat="44.19815" lon="5.90935">
        <ele>553.7</ele>
        <time>2021-09-09T09:35:19Z</time>
      </trkpt>
      <trkpt lat="44.19815" lon="5.9094">
        <ele>553.9</ele>
        <time>2021-09-09T09:35:20Z</time>
      </trkpt>
      <trkpt lat="44.19815" lon="5.90941">
        <ele>553.9</ele>
        <time>2021-09-09T09:35:21Z</time>
      </trkpt>
      <trkpt lat="44.19817" lon="5.90944">
        <ele>554.1</ele>
        <time>2021-09-09T09:35:23Z</time>
      </trkpt>
      <trkpt lat="44.19818" lon="5.90945">
        <ele>554.1</ele>
        <time>2021-09-09T09:35:25Z</time>
      </trkpt>
      <trkpt lat="44.19819" lon="5.90947">
        <ele>554.2</ele>
        <time>2021-09-09T09:35:26Z</time>
      </trkpt>
      <trkpt lat="44.1982" lon="5.90948">
        <ele>554.3</ele>
        <time>2021-09-09T09:35:27Z</time>
      </trkpt>
      <trkpt lat="44.19823" lon="5.9095">
        <ele>554.5</ele>
        <time>2021-09-09T09:35:28Z</time>
      </trkpt>
      <trkpt lat="44.19824" lon="5.9095">
        <ele>554.5</ele>
        <time>2021-09-09T09:35:29Z</time>
      </trkpt>
      <trkpt lat="44.19829" lon="5.9095">
        <ele>554.8</ele>
        <time>2021-09-09T09:35:30Z</time>
      </trkpt>
      <trkpt lat="44.19833" lon="5.90951">
        <ele>555</ele>
        <time>2021-09-09T09:35:32Z</time>
      </trkpt>
      <trkpt lat="44.19836" lon="5.90952">
        <ele>555.2</ele>
        <time>2021-09-09T09:35:33Z</time>
      </trkpt>
      <trkpt lat="44.19837" lon="5.90953">
        <ele>555.3</ele>
        <time>2021-09-09T09:35:34Z</time>
      </trkpt>
      <trkpt lat="44.1984" lon="5.90957">
        <ele>555.5</ele>
        <time>2021-09-09T09:35:36Z</time>
      </trkpt>
      <trkpt lat="44.19838" lon="5.90961">
        <ele>555.7</ele>
        <time>2021-09-09T09:35:38Z</time>
      </trkpt>
      <trkpt lat="44.19836" lon="5.90965">
        <ele>555.9</ele>
        <time>2021-09-09T09:35:39Z</time>
      </trkpt>
      <trkpt lat="44.19836" lon="5.90968">
        <ele>556</ele>
        <time>2021-09-09T09:35:40Z</time>
      </trkpt>
      <trkpt lat="44.19835" lon="5.90971">
        <ele>556.2</ele>
        <time>2021-09-09T09:35:42Z</time>
      </trkpt>
      <trkpt lat="44.19835" lon="5.90976">
        <ele>556.4</ele>
        <time>2021-09-09T09:35:43Z</time>
      </trkpt>
      <trkpt lat="44.19835" lon="5.90982">
        <ele>556.7</ele>
        <time>2021-09-09T09:35:45Z</time>
      </trkpt>
      <trkpt lat="44.19833" lon="5.90988">
        <ele>557</ele>
        <time>2021-09-09T09:35:47Z</time>
      </trkpt>
      <trkpt lat="44.1983" lon="5.90994">
        <ele>557.3</ele>
        <time>2021-09-09T09:35:49Z</time>
      </trkpt>
      <trkpt lat="44.19828" lon="5.90998">
        <ele>557.5</ele>
        <time>2021-09-09T09:35:50Z</time>
      </trkpt>
      <trkpt lat="44.19827" lon="5.91002">
        <ele>557.7</ele>
        <time>2021-09-09T09:35:52Z</time>
      </trkpt>
      <trkpt lat="44.19827" lon="5.91004">
        <ele>557.8</ele>
        <time>2021-09-09T09:35:53Z</time>
      </trkpt>
      <trkpt lat="44.19828" lon="5.91005">
        <ele>557.9</ele>
        <time>2021-09-09T09:35:54Z</time>
      </trkpt>
      <trkpt lat="44.19829" lon="5.91007">
        <ele>558.1</ele>
        <time>2021-09-09T09:35:56Z</time>
      </trkpt>
      <trkpt lat="44.19831" lon="5.9101">
        <ele>558.3</ele>
        <time>2021-09-09T09:35:57Z</time>
      </trkpt>
      <trkpt lat="44.19835" lon="5.91015">
        <ele>558.7</ele>
        <time>2021-09-09T09:35:59Z</time>
      </trkpt>
      <trkpt lat="44.19835" lon="5.91018">
        <ele>558.8</ele>
        <time>2021-09-09T09:36:00Z</time>
      </trkpt>
      <trkpt lat="44.19835" lon="5.91019">
        <ele>558.9</ele>
        <time>2021-09-09T09:36:01Z</time>
      </trkpt>
      <trkpt lat="44.19834" lon="5.9102">
        <ele>558.9</ele>
        <time>2021-09-09T09:36:03Z</time>
      </trkpt>
      <trkpt lat="44.19833" lon="5.91021">
        <ele>559</ele>
        <time>2021-09-09T09:36:04Z</time>
      </trkpt>
      <trkpt lat="44.19832" lon="5.91027">
        <ele>559.4</ele>
        <time>2021-09-09T09:36:06Z</time>
      </trkpt>
      <trkpt lat="44.19831" lon="5.91031">
        <ele>559.5</ele>
        <time>2021-09-09T09:36:07Z</time>
      </trkpt>
      <trkpt lat="44.1983" lon="5.91035">
        <ele>559.8</ele>
        <time>2021-09-09T09:36:09Z</time>
      </trkpt>
      <trkpt lat="44.19829" lon="5.9104">
        <ele>560</ele>
        <time>2021-09-09T09:36:10Z</time>
      </trkpt>
      <trkpt lat="44.19828" lon="5.91042">
        <ele>560.1</ele>
        <time>2021-09-09T09:36:11Z</time>
      </trkpt>
      <trkpt lat="44.19828" lon="5.91044">
        <ele>560.2</ele>
        <time>2021-09-09T09:36:12Z</time>
      </trkpt>
      <trkpt lat="44.19825" lon="5.91047">
        <ele>560.4</ele>
        <time>2021-09-09T09:36:14Z</time>
      </trkpt>
      <trkpt lat="44.19823" lon="5.91051">
        <ele>560.6</ele>
        <time>2021-09-09T09:36:15Z</time>
      </trkpt>
      <trkpt lat="44.19822" lon="5.91052">
        <ele>560.6</ele>
        <time>2021-09-09T09:36:16Z</time>
      </trkpt>
      <trkpt lat="44.1982" lon="5.91054">
        <ele>560.8</ele>
        <time>2021-09-09T09:36:18Z</time>
      </trkpt>
      <trkpt lat="44.1982" lon="5.91055">
        <ele>560.8</ele>
        <time>2021-09-09T09:36:19Z</time>
      </trkpt>
      <trkpt lat="44.19818" lon="5.91058">
        <ele>560.9</ele>
        <time>2021-09-09T09:36:20Z</time>
      </trkpt>
      <trkpt lat="44.19816" lon="5.9106">
        <ele>561.1</ele>
        <time>2021-09-09T09:36:22Z</time>
      </trkpt>
      <trkpt lat="44.19813" lon="5.91063">
        <ele>561.2</ele>
        <time>2021-09-09T09:36:24Z</time>
      </trkpt>
      <trkpt lat="44.19812" lon="5.91063">
        <ele>561.2</ele>
        <time>2021-09-09T09:36:25Z</time>
      </trkpt>
      <trkpt lat="44.19811" lon="5.91063">
        <ele>561.3</ele>
        <time>2021-09-09T09:36:26Z</time>
      </trkpt>
      <trkpt lat="44.1981" lon="5.91064">
        <ele>561.3</ele>
        <time>2021-09-09T09:36:27Z</time>
      </trkpt>
      <trkpt lat="44.19807" lon="5.91067">
        <ele>561.5</ele>
        <time>2021-09-09T09:36:29Z</time>
      </trkpt>
      <trkpt lat="44.19807" lon="5.9107">
        <ele>561.6</ele>
        <time>2021-09-09T09:36:30Z</time>
      </trkpt>
      <trkpt lat="44.19806" lon="5.91074">
        <ele>561.8</ele>
        <time>2021-09-09T09:36:32Z</time>
      </trkpt>
      <trkpt lat="44.19804" lon="5.91078">
        <ele>561.9</ele>
        <time>2021-09-09T09:36:33Z</time>
      </trkpt>
      <trkpt lat="44.19802" lon="5.91082">
        <ele>562.1</ele>
        <time>2021-09-09T09:36:34Z</time>
      </trkpt>
      <trkpt lat="44.19801" lon="5.91084">
        <ele>562.2</ele>
        <time>2021-09-09T09:36:35Z</time>
      </trkpt>
      <trkpt lat="44.19799" lon="5.91089">
        <ele>562.4</ele>
        <time>2021-09-09T09:36:37Z</time>
      </trkpt>
      <trkpt lat="44.19798" lon="5.91094">
        <ele>562.6</ele>
        <time>2021-09-09T09:36:38Z</time>
      </trkpt>
      <trkpt lat="44.19796" lon="5.91097">
        <ele>562.8</ele>
        <time>2021-09-09T09:36:39Z</time>
      </trkpt>
      <trkpt lat="44.19794" lon="5.91101">
        <ele>563</ele>
        <time>2021-09-09T09:36:40Z</time>
      </trkpt>
      <trkpt lat="44.19793" lon="5.91105">
        <ele>563.3</ele>
        <time>2021-09-09T09:36:41Z</time>
      </trkpt>
      <trkpt lat="44.19792" lon="5.91107">
        <ele>563.3</ele>
        <time>2021-09-09T09:36:42Z</time>
      </trkpt>
      <trkpt lat="44.19791" lon="5.91112">
        <ele>563.6</ele>
        <time>2021-09-09T09:36:44Z</time>
      </trkpt>
      <trkpt lat="44.1979" lon="5.91114">
        <ele>563.7</ele>
        <time>2021-09-09T09:36:46Z</time>
      </trkpt>
      <trkpt lat="44.1979" lon="5.91116">
        <ele>563.8</ele>
        <time>2021-09-09T09:36:47Z</time>
      </trkpt>
      <trkpt lat="44.1979" lon="5.91118">
        <ele>563.9</ele>
        <time>2021-09-09T09:36:48Z</time>
      </trkpt>
      <trkpt lat="44.19789" lon="5.91122">
        <ele>564.1</ele>
        <time>2021-09-09T09:36:50Z</time>
      </trkpt>
      <trkpt lat="44.19788" lon="5.91126">
        <ele>564.3</ele>
        <time>2021-09-09T09:36:51Z</time>
      </trkpt>
      <trkpt lat="44.19788" lon="5.91127">
        <ele>564.4</ele>
        <time>2021-09-09T09:36:52Z</time>
      </trkpt>
      <trkpt lat="44.19788" lon="5.9113">
        <ele>564.5</ele>
        <time>2021-09-09T09:36:53Z</time>
      </trkpt>
      <trkpt lat="44.19788" lon="5.91131">
        <ele>564.6</ele>
        <time>2021-09-09T09:36:56Z</time>
      </trkpt>
      <trkpt lat="44.19788" lon="5.91133">
        <ele>564.7</ele>
        <time>2021-09-09T09:36:57Z</time>
      </trkpt>
      <trkpt lat="44.19788" lon="5.9114">
        <ele>565.1</ele>
        <time>2021-09-09T09:36:59Z</time>
      </trkpt>
      <trkpt lat="44.19788" lon="5.91142">
        <ele>565.2</ele>
        <time>2021-09-09T09:37:01Z</time>
      </trkpt>
      <trkpt lat="44.19787" lon="5.91145">
        <ele>565.3</ele>
        <time>2021-09-09T09:37:02Z</time>
      </trkpt>
      <trkpt lat="44.19787" lon="5.91147">
        <ele>565.4</ele>
        <time>2021-09-09T09:37:03Z</time>
      </trkpt>
      <trkpt lat="44.19786" lon="5.91151">
        <ele>565.6</ele>
        <time>2021-09-09T09:37:05Z</time>
      </trkpt>
      <trkpt lat="44.19785" lon="5.91156">
        <ele>565.9</ele>
        <time>2021-09-09T09:37:06Z</time>
      </trkpt>
      <trkpt lat="44.19783" lon="5.91158">
        <ele>566</ele>
        <time>2021-09-09T09:37:07Z</time>
      </trkpt>
      <trkpt lat="44.19782" lon="5.91163">
        <ele>566.2</ele>
        <time>2021-09-09T09:37:09Z</time>
      </trkpt>
      <trkpt lat="44.19781" lon="5.91168">
        <ele>566.4</ele>
        <time>2021-09-09T09:37:10Z</time>
      </trkpt>
      <trkpt lat="44.19781" lon="5.9117">
        <ele>566.5</ele>
        <time>2021-09-09T09:37:11Z</time>
      </trkpt>
      <trkpt lat="44.19781" lon="5.91173">
        <ele>566.7</ele>
        <time>2021-09-09T09:37:12Z</time>
      </trkpt>
      <trkpt lat="44.19779" lon="5.91178">
        <ele>566.8</ele>
        <time>2021-09-09T09:37:14Z</time>
      </trkpt>
      <trkpt lat="44.1978" lon="5.91182">
        <ele>567</ele>
        <time>2021-09-09T09:37:15Z</time>
      </trkpt>
      <trkpt lat="44.1978" lon="5.91184">
        <ele>567.1</ele>
        <time>2021-09-09T09:37:16Z</time>
      </trkpt>
      <trkpt lat="44.1978" lon="5.91189">
        <ele>567.2</ele>
        <time>2021-09-09T09:37:18Z</time>
      </trkpt>
      <trkpt lat="44.19779" lon="5.91191">
        <ele>567.3</ele>
        <time>2021-09-09T09:37:19Z</time>
      </trkpt>
      <trkpt lat="44.19778" lon="5.91197">
        <ele>567.5</ele>
        <time>2021-09-09T09:37:21Z</time>
      </trkpt>
      <trkpt lat="44.19777" lon="5.912">
        <ele>567.6</ele>
        <time>2021-09-09T09:37:22Z</time>
      </trkpt>
      <trkpt lat="44.19774" lon="5.91206">
        <ele>567.8</ele>
        <time>2021-09-09T09:37:24Z</time>
      </trkpt>
      <trkpt lat="44.19774" lon="5.91209">
        <ele>567.9</ele>
        <time>2021-09-09T09:37:25Z</time>
      </trkpt>
      <trkpt lat="44.19773" lon="5.91211">
        <ele>568</ele>
        <time>2021-09-09T09:37:26Z</time>
      </trkpt>
      <trkpt lat="44.19772" lon="5.91215">
        <ele>568.1</ele>
        <time>2021-09-09T09:37:28Z</time>
      </trkpt>
      <trkpt lat="44.1977" lon="5.91219">
        <ele>568.2</ele>
        <time>2021-09-09T09:37:29Z</time>
      </trkpt>
      <trkpt lat="44.19769" lon="5.91222">
        <ele>568.3</ele>
        <time>2021-09-09T09:37:30Z</time>
      </trkpt>
      <trkpt lat="44.19766" lon="5.91228">
        <ele>568.5</ele>
        <time>2021-09-09T09:37:32Z</time>
      </trkpt>
      <trkpt lat="44.19765" lon="5.9123">
        <ele>568.6</ele>
        <time>2021-09-09T09:37:33Z</time>
      </trkpt>
      <trkpt lat="44.19764" lon="5.91233">
        <ele>568.7</ele>
        <time>2021-09-09T09:37:34Z</time>
      </trkpt>
      <trkpt lat="44.19764" lon="5.91237">
        <ele>568.8</ele>
        <time>2021-09-09T09:37:35Z</time>
      </trkpt>
      <trkpt lat="44.19764" lon="5.91239">
        <ele>568.8</ele>
        <time>2021-09-09T09:37:36Z</time>
      </trkpt>
      <trkpt lat="44.19762" lon="5.91246">
        <ele>569</ele>
        <time>2021-09-09T09:37:38Z</time>
      </trkpt>
      <trkpt lat="44.19761" lon="5.91249">
        <ele>569.1</ele>
        <time>2021-09-09T09:37:39Z</time>
      </trkpt>
      <trkpt lat="44.19759" lon="5.91253">
        <ele>569.3</ele>
        <time>2021-09-09T09:37:41Z</time>
      </trkpt>
      <trkpt lat="44.19757" lon="5.91256">
        <ele>569.4</ele>
        <time>2021-09-09T09:37:43Z</time>
      </trkpt>
      <trkpt lat="44.19756" lon="5.91258">
        <ele>569.5</ele>
        <time>2021-09-09T09:37:44Z</time>
      </trkpt>
      <trkpt lat="44.19755" lon="5.9126">
        <ele>569.6</ele>
        <time>2021-09-09T09:37:45Z</time>
      </trkpt>
      <trkpt lat="44.19755" lon="5.91262">
        <ele>569.6</ele>
        <time>2021-09-09T09:37:46Z</time>
      </trkpt>
      <trkpt lat="44.19754" lon="5.91264">
        <ele>569.7</ele>
        <time>2021-09-09T09:37:47Z</time>
      </trkpt>
      <trkpt lat="44.19754" lon="5.91269">
        <ele>569.8</ele>
        <time>2021-09-09T09:37:49Z</time>
      </trkpt>
      <trkpt lat="44.19752" lon="5.91274">
        <ele>570</ele>
        <time>2021-09-09T09:37:51Z</time>
      </trkpt>
      <trkpt lat="44.1975" lon="5.91278">
        <ele>570.2</ele>
        <time>2021-09-09T09:37:52Z</time>
      </trkpt>
      <trkpt lat="44.19749" lon="5.9128">
        <ele>570.2</ele>
        <time>2021-09-09T09:37:53Z</time>
      </trkpt>
      <trkpt lat="44.19746" lon="5.91284">
        <ele>570.4</ele>
        <time>2021-09-09T09:37:55Z</time>
      </trkpt>
      <trkpt lat="44.19744" lon="5.91287">
        <ele>570.6</ele>
        <time>2021-09-09T09:37:56Z</time>
      </trkpt>
      <trkpt lat="44.19743" lon="5.91291">
        <ele>570.7</ele>
        <time>2021-09-09T09:37:57Z</time>
      </trkpt>
      <trkpt lat="44.19741" lon="5.91295">
        <ele>570.9</ele>
        <time>2021-09-09T09:37:58Z</time>
      </trkpt>
      <trkpt lat="44.19737" lon="5.91301">
        <ele>571.1</ele>
        <time>2021-09-09T09:38:00Z</time>
      </trkpt>
      <trkpt lat="44.19736" lon="5.91304">
        <ele>571.2</ele>
        <time>2021-09-09T09:38:01Z</time>
      </trkpt>
      <trkpt lat="44.19734" lon="5.91309">
        <ele>571.5</ele>
        <time>2021-09-09T09:38:03Z</time>
      </trkpt>
      <trkpt lat="44.19734" lon="5.91312">
        <ele>571.5</ele>
        <time>2021-09-09T09:38:04Z</time>
      </trkpt>
      <trkpt lat="44.19733" lon="5.91315">
        <ele>571.7</ele>
        <time>2021-09-09T09:38:06Z</time>
      </trkpt>
      <trkpt lat="44.19731" lon="5.91319">
        <ele>571.9</ele>
        <time>2021-09-09T09:38:07Z</time>
      </trkpt>
      <trkpt lat="44.1973" lon="5.91321">
        <ele>571.9</ele>
        <time>2021-09-09T09:38:08Z</time>
      </trkpt>
      <trkpt lat="44.19729" lon="5.91326">
        <ele>572.1</ele>
        <time>2021-09-09T09:38:10Z</time>
      </trkpt>
      <trkpt lat="44.19728" lon="5.91328">
        <ele>572.2</ele>
        <time>2021-09-09T09:38:11Z</time>
      </trkpt>
      <trkpt lat="44.19727" lon="5.91334">
        <ele>572.5</ele>
        <time>2021-09-09T09:38:13Z</time>
      </trkpt>
      <trkpt lat="44.19726" lon="5.91338">
        <ele>572.7</ele>
        <time>2021-09-09T09:38:15Z</time>
      </trkpt>
      <trkpt lat="44.19724" lon="5.91345">
        <ele>573</ele>
        <time>2021-09-09T09:38:17Z</time>
      </trkpt>
      <trkpt lat="44.19723" lon="5.91348">
        <ele>573.2</ele>
        <time>2021-09-09T09:38:18Z</time>
      </trkpt>
      <trkpt lat="44.19723" lon="5.91354">
        <ele>573.5</ele>
        <time>2021-09-09T09:38:20Z</time>
      </trkpt>
      <trkpt lat="44.19723" lon="5.91357">
        <ele>573.7</ele>
        <time>2021-09-09T09:38:21Z</time>
      </trkpt>
      <trkpt lat="44.19723" lon="5.91362">
        <ele>573.9</ele>
        <time>2021-09-09T09:38:22Z</time>
      </trkpt>
      <trkpt lat="44.19723" lon="5.91365">
        <ele>574</ele>
        <time>2021-09-09T09:38:24Z</time>
      </trkpt>
      <trkpt lat="44.19723" lon="5.91366">
        <ele>574.1</ele>
        <time>2021-09-09T09:38:25Z</time>
      </trkpt>
      <trkpt lat="44.19723" lon="5.91365">
        <ele>574.1</ele>
        <time>2021-09-09T09:38:27Z</time>
      </trkpt>
      <trkpt lat="44.19723" lon="5.91364">
        <ele>574.2</ele>
        <time>2021-09-09T09:38:28Z</time>
      </trkpt>
      <trkpt lat="44.19724" lon="5.91364">
        <ele>574.2</ele>
        <time>2021-09-09T09:38:30Z</time>
      </trkpt>
      <trkpt lat="44.19724" lon="5.91363">
        <ele>574.3</ele>
        <time>2021-09-09T09:38:31Z</time>
      </trkpt>
      <trkpt lat="44.19725" lon="5.91362">
        <ele>574.4</ele>
        <time>2021-09-09T09:38:33Z</time>
      </trkpt>
      <trkpt lat="44.19725" lon="5.91362">
        <ele>574.4</ele>
        <time>2021-09-09T09:38:34Z</time>
      </trkpt>
      <trkpt lat="44.19727" lon="5.91362">
        <ele>574.5</ele>
        <time>2021-09-09T09:38:36Z</time>
      </trkpt>
      <trkpt lat="44.19793" lon="5.91408">
        <ele>581.2</ele>
        <time>2021-09-09T09:40:44Z</time>
      </trkpt>
      <trkpt lat="44.19794" lon="5.91412">
        <ele>581.6</ele>
        <time>2021-09-09T09:40:45Z</time>
      </trkpt>
      <trkpt lat="44.19795" lon="5.91413">
        <ele>581.8</ele>
        <time>2021-09-09T09:40:46Z</time>
      </trkpt>
      <trkpt lat="44.19796" lon="5.91416">
        <ele>582.1</ele>
        <time>2021-09-09T09:40:47Z</time>
      </trkpt>
      <trkpt lat="44.19797" lon="5.91418">
        <ele>582.3</ele>
        <time>2021-09-09T09:40:49Z</time>
      </trkpt>
      <trkpt lat="44.19797" lon="5.9142">
        <ele>582.5</ele>
        <time>2021-09-09T09:40:50Z</time>
      </trkpt>
      <trkpt lat="44.19798" lon="5.91422">
        <ele>582.7</ele>
        <time>2021-09-09T09:40:51Z</time>
      </trkpt>
      <trkpt lat="44.19798" lon="5.91423">
        <ele>582.8</ele>
        <time>2021-09-09T09:40:53Z</time>
      </trkpt>
      <trkpt lat="44.19798" lon="5.91424">
        <ele>582.9</ele>
        <time>2021-09-09T09:40:54Z</time>
      </trkpt>
      <trkpt lat="44.19799" lon="5.91425">
        <ele>583.2</ele>
        <time>2021-09-09T09:40:55Z</time>
      </trkpt>
      <trkpt lat="44.198" lon="5.91427">
        <ele>583.3</ele>
        <time>2021-09-09T09:40:56Z</time>
      </trkpt>
      <trkpt lat="44.198" lon="5.91427">
        <ele>583.4</ele>
        <time>2021-09-09T09:40:57Z</time>
      </trkpt>
      <trkpt lat="44.19801" lon="5.91428">
        <ele>583.5</ele>
        <time>2021-09-09T09:40:59Z</time>
      </trkpt>
      <trkpt lat="44.19801" lon="5.91428">
        <ele>583.5</ele>
        <time>2021-09-09T09:41:00Z</time>
      </trkpt>
      <trkpt lat="44.19801" lon="5.91428">
        <ele>583.6</ele>
        <time>2021-09-09T09:41:01Z</time>
      </trkpt>
      <trkpt lat="44.19802" lon="5.91429">
        <ele>583.7</ele>
        <time>2021-09-09T09:41:03Z</time>
      </trkpt>
      <trkpt lat="44.19803" lon="5.9143">
        <ele>583.8</ele>
        <time>2021-09-09T09:41:04Z</time>
      </trkpt>
      <trkpt lat="44.19803" lon="5.9143">
        <ele>584</ele>
        <time>2021-09-09T09:41:06Z</time>
      </trkpt>
      <trkpt lat="44.19804" lon="5.91431">
        <ele>584.1</ele>
        <time>2021-09-09T09:41:07Z</time>
      </trkpt>
      <trkpt lat="44.19805" lon="5.91433">
        <ele>584.3</ele>
        <time>2021-09-09T09:41:08Z</time>
      </trkpt>
      <trkpt lat="44.19822" lon="5.91523">
        <ele>589.3</ele>
        <time>2021-09-09T09:43:29Z</time>
      </trkpt>
      <trkpt lat="44.19823" lon="5.91527">
        <ele>589.1</ele>
        <time>2021-09-09T09:43:30Z</time>
      </trkpt>
      <trkpt lat="44.19825" lon="5.91533">
        <ele>588.6</ele>
        <time>2021-09-09T09:43:32Z</time>
      </trkpt>
      <trkpt lat="44.19826" lon="5.9154">
        <ele>588.1</ele>
        <time>2021-09-09T09:43:33Z</time>
      </trkpt>
      <trkpt lat="44.19827" lon="5.91543">
        <ele>587.8</ele>
        <time>2021-09-09T09:43:34Z</time>
      </trkpt>
      <trkpt lat="44.19827" lon="5.91551">
        <ele>587.2</ele>
        <time>2021-09-09T09:43:36Z</time>
      </trkpt>
      <trkpt lat="44.1983" lon="5.91558">
        <ele>586.5</ele>
        <time>2021-09-09T09:43:37Z</time>
      </trkpt>
      <trkpt lat="44.19831" lon="5.91573">
        <ele>585.5</ele>
        <time>2021-09-09T09:43:39Z</time>
      </trkpt>
      <trkpt lat="44.19831" lon="5.91581">
        <ele>585</ele>
        <time>2021-09-09T09:43:40Z</time>
      </trkpt>
      <trkpt lat="44.19834" lon="5.91597">
        <ele>584.4</ele>
        <time>2021-09-09T09:43:42Z</time>
      </trkpt>
      <trkpt lat="44.19836" lon="5.91615">
        <ele>584.2</ele>
        <time>2021-09-09T09:43:45Z</time>
      </trkpt>
      <trkpt lat="44.19836" lon="5.91623">
        <ele>584.2</ele>
        <time>2021-09-09T09:43:47Z</time>
      </trkpt>
      <trkpt lat="44.19838" lon="5.91631">
        <ele>584.2</ele>
        <time>2021-09-09T09:43:48Z</time>
      </trkpt>
      <trkpt lat="44.19842" lon="5.9164">
        <ele>584.2</ele>
        <time>2021-09-09T09:43:50Z</time>
      </trkpt>
      <trkpt lat="44.19844" lon="5.91647">
        <ele>584.2</ele>
        <time>2021-09-09T09:43:52Z</time>
      </trkpt>
      <trkpt lat="44.19846" lon="5.91656">
        <ele>584.2</ele>
        <time>2021-09-09T09:43:53Z</time>
      </trkpt>
      <trkpt lat="44.19847" lon="5.91664">
        <ele>584.3</ele>
        <time>2021-09-09T09:43:55Z</time>
      </trkpt>
      <trkpt lat="44.19848" lon="5.91671">
        <ele>584.4</ele>
        <time>2021-09-09T09:43:56Z</time>
      </trkpt>
      <trkpt lat="44.19849" lon="5.91675">
        <ele>584.5</ele>
        <time>2021-09-09T09:43:57Z</time>
      </trkpt>
      <trkpt lat="44.1985" lon="5.91679">
        <ele>584.6</ele>
        <time>2021-09-09T09:43:58Z</time>
      </trkpt>
      <trkpt lat="44.19853" lon="5.91686">
        <ele>584.7</ele>
        <time>2021-09-09T09:44:00Z</time>
      </trkpt>
      <trkpt lat="44.19855" lon="5.91691">
        <ele>584.8</ele>
        <time>2021-09-09T09:44:02Z</time>
      </trkpt>
      <trkpt lat="44.19856" lon="5.91696">
        <ele>584.9</ele>
        <time>2021-09-09T09:44:03Z</time>
      </trkpt>
      <trkpt lat="44.19857" lon="5.91702">
        <ele>584.9</ele>
        <time>2021-09-09T09:44:05Z</time>
      </trkpt>
      <trkpt lat="44.19859" lon="5.91707">
        <ele>584.9</ele>
        <time>2021-09-09T09:44:06Z</time>
      </trkpt>
      <trkpt lat="44.19859" lon="5.91709">
        <ele>584.9</ele>
        <time>2021-09-09T09:44:07Z</time>
      </trkpt>
      <trkpt lat="44.19861" lon="5.91714">
        <ele>584.9</ele>
        <time>2021-09-09T09:44:08Z</time>
      </trkpt>
      <trkpt lat="44.19862" lon="5.91717">
        <ele>584.9</ele>
        <time>2021-09-09T09:44:09Z</time>
      </trkpt>
      <trkpt lat="44.19864" lon="5.91722">
        <ele>584.9</ele>
        <time>2021-09-09T09:44:11Z</time>
      </trkpt>
      <trkpt lat="44.19865" lon="5.91726">
        <ele>584.9</ele>
        <time>2021-09-09T09:44:12Z</time>
      </trkpt>
      <trkpt lat="44.19867" lon="5.91732">
        <ele>584.8</ele>
        <time>2021-09-09T09:44:13Z</time>
      </trkpt>
      <trkpt lat="44.19869" lon="5.91738">
        <ele>584.8</ele>
        <time>2021-09-09T09:44:15Z</time>
      </trkpt>
      <trkpt lat="44.19871" lon="5.91743">
        <ele>584.8</ele>
        <time>2021-09-09T09:44:16Z</time>
      </trkpt>
      <trkpt lat="44.19872" lon="5.91747">
        <ele>584.9</ele>
        <time>2021-09-09T09:44:17Z</time>
      </trkpt>
      <trkpt lat="44.19873" lon="5.91751">
        <ele>584.9</ele>
        <time>2021-09-09T09:44:18Z</time>
      </trkpt>
      <trkpt lat="44.19874" lon="5.91756">
        <ele>584.9</ele>
        <time>2021-09-09T09:44:19Z</time>
      </trkpt>
      <trkpt lat="44.19875" lon="5.91764">
        <ele>585</ele>
        <time>2021-09-09T09:44:21Z</time>
      </trkpt>
      <trkpt lat="44.19877" lon="5.9177">
        <ele>585</ele>
        <time>2021-09-09T09:44:22Z</time>
      </trkpt>
      <trkpt lat="44.19877" lon="5.91777">
        <ele>585.1</ele>
        <time>2021-09-09T09:44:24Z</time>
      </trkpt>
      <trkpt lat="44.19877" lon="5.91782">
        <ele>585.1</ele>
        <time>2021-09-09T09:44:25Z</time>
      </trkpt>
      <trkpt lat="44.19877" lon="5.91784">
        <ele>585.1</ele>
        <time>2021-09-09T09:44:26Z</time>
      </trkpt>
      <trkpt lat="44.19876" lon="5.91791">
        <ele>585.1</ele>
        <time>2021-09-09T09:44:28Z</time>
      </trkpt>
      <trkpt lat="44.19875" lon="5.91796">
        <ele>585.2</ele>
        <time>2021-09-09T09:44:29Z</time>
      </trkpt>
      <trkpt lat="44.19874" lon="5.918">
        <ele>585.2</ele>
        <time>2021-09-09T09:44:30Z</time>
      </trkpt>
      <trkpt lat="44.19872" lon="5.91809">
        <ele>585.3</ele>
        <time>2021-09-09T09:44:32Z</time>
      </trkpt>
      <trkpt lat="44.19871" lon="5.91816">
        <ele>585.4</ele>
        <time>2021-09-09T09:44:33Z</time>
      </trkpt>
      <trkpt lat="44.1987" lon="5.91823">
        <ele>585.6</ele>
        <time>2021-09-09T09:44:35Z</time>
      </trkpt>
      <trkpt lat="44.1987" lon="5.91828">
        <ele>585.7</ele>
        <time>2021-09-09T09:44:36Z</time>
      </trkpt>
      <trkpt lat="44.19869" lon="5.91833">
        <ele>586</ele>
        <time>2021-09-09T09:44:37Z</time>
      </trkpt>
      <trkpt lat="44.19868" lon="5.91837">
        <ele>586.2</ele>
        <time>2021-09-09T09:44:39Z</time>
      </trkpt>
      <trkpt lat="44.19866" lon="5.9184">
        <ele>586.4</ele>
        <time>2021-09-09T09:44:40Z</time>
      </trkpt>
      <trkpt lat="44.19863" lon="5.91847">
        <ele>586.8</ele>
        <time>2021-09-09T09:44:41Z</time>
      </trkpt>
      <trkpt lat="44.19862" lon="5.91852">
        <ele>587.1</ele>
        <time>2021-09-09T09:44:42Z</time>
      </trkpt>
      <trkpt lat="44.19862" lon="5.91854">
        <ele>587.2</ele>
        <time>2021-09-09T09:44:43Z</time>
      </trkpt>
      <trkpt lat="44.1986" lon="5.91857">
        <ele>587.5</ele>
        <time>2021-09-09T09:44:45Z</time>
      </trkpt>
      <trkpt lat="44.19857" lon="5.91861">
        <ele>587.8</ele>
        <time>2021-09-09T09:44:46Z</time>
      </trkpt>
      <trkpt lat="44.19854" lon="5.91865">
        <ele>588.1</ele>
        <time>2021-09-09T09:44:48Z</time>
      </trkpt>
      <trkpt lat="44.19853" lon="5.91867">
        <ele>588.3</ele>
        <time>2021-09-09T09:44:49Z</time>
      </trkpt>
      <trkpt lat="44.19852" lon="5.91869">
        <ele>588.5</ele>
        <time>2021-09-09T09:44:50Z</time>
      </trkpt>
      <trkpt lat="44.19851" lon="5.91874">
        <ele>588.8</ele>
        <time>2021-09-09T09:44:52Z</time>
      </trkpt>
      <trkpt lat="44.19851" lon="5.91875">
        <ele>588.9</ele>
        <time>2021-09-09T09:44:54Z</time>
      </trkpt>
      <trkpt lat="44.19851" lon="5.91876">
        <ele>588.9</ele>
        <time>2021-09-09T09:44:55Z</time>
      </trkpt>
      <trkpt lat="44.19851" lon="5.91876">
        <ele>589</ele>
        <time>2021-09-09T09:44:56Z</time>
      </trkpt>
      <trkpt lat="44.19851" lon="5.91877">
        <ele>589</ele>
        <time>2021-09-09T09:44:58Z</time>
      </trkpt>
      <trkpt lat="44.19851" lon="5.91877">
        <ele>589</ele>
        <time>2021-09-09T09:44:59Z</time>
      </trkpt>
      <trkpt lat="44.19851" lon="5.91878">
        <ele>589.1</ele>
        <time>2021-09-09T09:45:00Z</time>
      </trkpt>
      <trkpt lat="44.19844" lon="5.91945">
        <ele>593.8</ele>
        <time>2021-09-09T09:46:06Z</time>
      </trkpt>
      <trkpt lat="44.19845" lon="5.91952">
        <ele>594.1</ele>
        <time>2021-09-09T09:46:08Z</time>
      </trkpt>
      <trkpt lat="44.19847" lon="5.91964">
        <ele>594.4</ele>
        <time>2021-09-09T09:46:10Z</time>
      </trkpt>
      <trkpt lat="44.19848" lon="5.91971">
        <ele>594.5</ele>
        <time>2021-09-09T09:46:11Z</time>
      </trkpt>
      <trkpt lat="44.19849" lon="5.91986">
        <ele>594.5</ele>
        <time>2021-09-09T09:46:13Z</time>
      </trkpt>
      <trkpt lat="44.1985" lon="5.91993">
        <ele>594.5</ele>
        <time>2021-09-09T09:46:14Z</time>
      </trkpt>
      <trkpt lat="44.19851" lon="5.91999">
        <ele>594.5</ele>
        <time>2021-09-09T09:46:15Z</time>
      </trkpt>
      <trkpt lat="44.19851" lon="5.92005">
        <ele>594.5</ele>
        <time>2021-09-09T09:46:16Z</time>
      </trkpt>
      <trkpt lat="44.19855" lon="5.92016">
        <ele>594.5</ele>
        <time>2021-09-09T09:46:18Z</time>
      </trkpt>
      <trkpt lat="44.19857" lon="5.9202">
        <ele>594.5</ele>
        <time>2021-09-09T09:46:19Z</time>
      </trkpt>
      <trkpt lat="44.19859" lon="5.92027">
        <ele>594.6</ele>
        <time>2021-09-09T09:46:21Z</time>
      </trkpt>
      <trkpt lat="44.1986" lon="5.92032">
        <ele>594.6</ele>
        <time>2021-09-09T09:46:22Z</time>
      </trkpt>
      <trkpt lat="44.19862" lon="5.92039">
        <ele>594.7</ele>
        <time>2021-09-09T09:46:23Z</time>
      </trkpt>
      <trkpt lat="44.19864" lon="5.92044">
        <ele>594.8</ele>
        <time>2021-09-09T09:46:24Z</time>
      </trkpt>
      <trkpt lat="44.19867" lon="5.92053">
        <ele>594.9</ele>
        <time>2021-09-09T09:46:26Z</time>
      </trkpt>
      <trkpt lat="44.19867" lon="5.92058">
        <ele>595</ele>
        <time>2021-09-09T09:46:27Z</time>
      </trkpt>
      <trkpt lat="44.19867" lon="5.9206">
        <ele>595.1</ele>
        <time>2021-09-09T09:46:28Z</time>
      </trkpt>
      <trkpt lat="44.19869" lon="5.92063">
        <ele>595.1</ele>
        <time>2021-09-09T09:46:30Z</time>
      </trkpt>
      <trkpt lat="44.19871" lon="5.92067">
        <ele>595.2</ele>
        <time>2021-09-09T09:46:31Z</time>
      </trkpt>
      <trkpt lat="44.19872" lon="5.92069">
        <ele>595.2</ele>
        <time>2021-09-09T09:46:32Z</time>
      </trkpt>
      <trkpt lat="44.19873" lon="5.92076">
        <ele>595.3</ele>
        <time>2021-09-09T09:46:33Z</time>
      </trkpt>
      <trkpt lat="44.19874" lon="5.92079">
        <ele>595.4</ele>
        <time>2021-09-09T09:46:34Z</time>
      </trkpt>
      <trkpt lat="44.19875" lon="5.92084">
        <ele>595.4</ele>
        <time>2021-09-09T09:46:36Z</time>
      </trkpt>
      <trkpt lat="44.19876" lon="5.92089">
        <ele>595.5</ele>
        <time>2021-09-09T09:46:37Z</time>
      </trkpt>
      <trkpt lat="44.19877" lon="5.92094">
        <ele>595.5</ele>
        <time>2021-09-09T09:46:38Z</time>
      </trkpt>
      <trkpt lat="44.19876" lon="5.92103">
        <ele>595.6</ele>
        <time>2021-09-09T09:46:40Z</time>
      </trkpt>
      <trkpt lat="44.19875" lon="5.92108">
        <ele>595.6</ele>
        <time>2021-09-09T09:46:41Z</time>
      </trkpt>
      <trkpt lat="44.19874" lon="5.92113">
        <ele>595.6</ele>
        <time>2021-09-09T09:46:42Z</time>
      </trkpt>
      <trkpt lat="44.19874" lon="5.92121">
        <ele>595.7</ele>
        <time>2021-09-09T09:46:44Z</time>
      </trkpt>
      <trkpt lat="44.19873" lon="5.9213">
        <ele>595.7</ele>
        <time>2021-09-09T09:46:45Z</time>
      </trkpt>
      <trkpt lat="44.19873" lon="5.9214">
        <ele>595.8</ele>
        <time>2021-09-09T09:46:47Z</time>
      </trkpt>
      <trkpt lat="44.19873" lon="5.92146">
        <ele>595.8</ele>
        <time>2021-09-09T09:46:48Z</time>
      </trkpt>
      <trkpt lat="44.19873" lon="5.92153">
        <ele>595.8</ele>
        <time>2021-09-09T09:46:50Z</time>
      </trkpt>
      <trkpt lat="44.19874" lon="5.92159">
        <ele>595.9</ele>
        <time>2021-09-09T09:46:51Z</time>
      </trkpt>
      <trkpt lat="44.19874" lon="5.92163">
        <ele>595.9</ele>
        <time>2021-09-09T09:46:52Z</time>
      </trkpt>
      <trkpt lat="44.19874" lon="5.92171">
        <ele>596</ele>
        <time>2021-09-09T09:46:54Z</time>
      </trkpt>
      <trkpt lat="44.19874" lon="5.92175">
        <ele>596</ele>
        <time>2021-09-09T09:46:55Z</time>
      </trkpt>
      <trkpt lat="44.19872" lon="5.92185">
        <ele>596.1</ele>
        <time>2021-09-09T09:46:57Z</time>
      </trkpt>
      <trkpt lat="44.19872" lon="5.9219">
        <ele>596.2</ele>
        <time>2021-09-09T09:46:58Z</time>
      </trkpt>
      <trkpt lat="44.19871" lon="5.92194">
        <ele>596.3</ele>
        <time>2021-09-09T09:46:59Z</time>
      </trkpt>
      <trkpt lat="44.19871" lon="5.92203">
        <ele>596.4</ele>
        <time>2021-09-09T09:47:01Z</time>
      </trkpt>
      <trkpt lat="44.19869" lon="5.92212">
        <ele>596.5</ele>
        <time>2021-09-09T09:47:03Z</time>
      </trkpt>
      <trkpt lat="44.19869" lon="5.92223">
        <ele>596.6</ele>
        <time>2021-09-09T09:47:05Z</time>
      </trkpt>
      <trkpt lat="44.19868" lon="5.92227">
        <ele>596.7</ele>
        <time>2021-09-09T09:47:06Z</time>
      </trkpt>
      <trkpt lat="44.19868" lon="5.92232">
        <ele>596.7</ele>
        <time>2021-09-09T09:47:08Z</time>
      </trkpt>
      <trkpt lat="44.19868" lon="5.92237">
        <ele>596.8</ele>
        <time>2021-09-09T09:47:09Z</time>
      </trkpt>
      <trkpt lat="44.19868" lon="5.9224">
        <ele>596.8</ele>
        <time>2021-09-09T09:47:10Z</time>
      </trkpt>
      <trkpt lat="44.19867" lon="5.92243">
        <ele>596.8</ele>
        <time>2021-09-09T09:47:12Z</time>
      </trkpt>
      <trkpt lat="44.19868" lon="5.92248">
        <ele>596.8</ele>
        <time>2021-09-09T09:47:13Z</time>
      </trkpt>
      <trkpt lat="44.19869" lon="5.92253">
        <ele>596.7</ele>
        <time>2021-09-09T09:47:15Z</time>
      </trkpt>
      <trkpt lat="44.1987" lon="5.92255">
        <ele>596.7</ele>
        <time>2021-09-09T09:47:16Z</time>
      </trkpt>
      <trkpt lat="44.1987" lon="5.92257">
        <ele>596.6</ele>
        <time>2021-09-09T09:47:17Z</time>
      </trkpt>
      <trkpt lat="44.19873" lon="5.92261">
        <ele>596.4</ele>
        <time>2021-09-09T09:47:18Z</time>
      </trkpt>
      <trkpt lat="44.19874" lon="5.92262">
        <ele>596.2</ele>
        <time>2021-09-09T09:47:19Z</time>
      </trkpt>
      <trkpt lat="44.19875" lon="5.92266">
        <ele>596</ele>
        <time>2021-09-09T09:47:20Z</time>
      </trkpt>
      <trkpt lat="44.19877" lon="5.92272">
        <ele>595.4</ele>
        <time>2021-09-09T09:47:22Z</time>
      </trkpt>
      <trkpt lat="44.19879" lon="5.92278">
        <ele>594.9</ele>
        <time>2021-09-09T09:47:23Z</time>
      </trkpt>
      <trkpt lat="44.19881" lon="5.92285">
        <ele>594.2</ele>
        <time>2021-09-09T09:47:25Z</time>
      </trkpt>
      <trkpt lat="44.19882" lon="5.92292">
        <ele>593.5</ele>
        <time>2021-09-09T09:47:26Z</time>
      </trkpt>
      <trkpt lat="44.19881" lon="5.92299">
        <ele>592.8</ele>
        <time>2021-09-09T09:47:27Z</time>
      </trkpt>
      <trkpt lat="44.19882" lon="5.92306">
        <ele>592.1</ele>
        <time>2021-09-09T09:47:29Z</time>
      </trkpt>
      <trkpt lat="44.19883" lon="5.92313">
        <ele>591.4</ele>
        <time>2021-09-09T09:47:30Z</time>
      </trkpt>
      <trkpt lat="44.19885" lon="5.92319">
        <ele>590.8</ele>
        <time>2021-09-09T09:47:32Z</time>
      </trkpt>
      <trkpt lat="44.19887" lon="5.92323">
        <ele>590.3</ele>
        <time>2021-09-09T09:47:33Z</time>
      </trkpt>
      <trkpt lat="44.19888" lon="5.92327">
        <ele>589.8</ele>
        <time>2021-09-09T09:47:34Z</time>
      </trkpt>
      <trkpt lat="44.19888" lon="5.92333">
        <ele>589.3</ele>
        <time>2021-09-09T09:47:36Z</time>
      </trkpt>
      <trkpt lat="44.19888" lon="5.92335">
        <ele>589</ele>
        <time>2021-09-09T09:47:37Z</time>
      </trkpt>
      <trkpt lat="44.19887" lon="5.92335">
        <ele>588.8</ele>
        <time>2021-09-09T09:47:39Z</time>
      </trkpt>
      <trkpt lat="44.19887" lon="5.92334">
        <ele>588.7</ele>
        <time>2021-09-09T09:47:41Z</time>
      </trkpt>
      <trkpt lat="44.19887" lon="5.92334">
        <ele>588.7</ele>
        <time>2021-09-09T09:47:42Z</time>
      </trkpt>
      <trkpt lat="44.19888" lon="5.92334">
        <ele>588.7</ele>
        <time>2021-09-09T09:47:44Z</time>
      </trkpt>
      <trkpt lat="44.19888" lon="5.92335">
        <ele>588.6</ele>
        <time>2021-09-09T09:47:45Z</time>
      </trkpt>
      <trkpt lat="44.19888" lon="5.92336">
        <ele>588.5</ele>
        <time>2021-09-09T09:47:46Z</time>
      </trkpt>
      <trkpt lat="44.19888" lon="5.92338">
        <ele>588.3</ele>
        <time>2021-09-09T09:47:47Z</time>
      </trkpt>
      <trkpt lat="44.19889" lon="5.92352">
        <ele>587</ele>
        <time>2021-09-09T09:47:51Z</time>
      </trkpt>
      <trkpt lat="44.19889" lon="5.92359">
        <ele>586.4</ele>
        <time>2021-09-09T09:47:52Z</time>
      </trkpt>
      <trkpt lat="44.19889" lon="5.92366">
        <ele>585.8</ele>
        <time>2021-09-09T09:47:53Z</time>
      </trkpt>
      <trkpt lat="44.19889" lon="5.92371">
        <ele>585.4</ele>
        <time>2021-09-09T09:47:54Z</time>
      </trkpt>
      <trkpt lat="44.1989" lon="5.92377">
        <ele>584.9</ele>
        <time>2021-09-09T09:47:56Z</time>
      </trkpt>
      <trkpt lat="44.1989" lon="5.92383">
        <ele>584.4</ele>
        <time>2021-09-09T09:47:58Z</time>
      </trkpt>
      <trkpt lat="44.19889" lon="5.92387">
        <ele>584.1</ele>
        <time>2021-09-09T09:47:59Z</time>
      </trkpt>
      <trkpt lat="44.19888" lon="5.92394">
        <ele>583.6</ele>
        <time>2021-09-09T09:48:01Z</time>
      </trkpt>
      <trkpt lat="44.19886" lon="5.92401">
        <ele>583.1</ele>
        <time>2021-09-09T09:48:02Z</time>
      </trkpt>
      <trkpt lat="44.19885" lon="5.92406">
        <ele>582.8</ele>
        <time>2021-09-09T09:48:03Z</time>
      </trkpt>
      <trkpt lat="44.19884" lon="5.92411">
        <ele>582.6</ele>
        <time>2021-09-09T09:48:04Z</time>
      </trkpt>
      <trkpt lat="44.19883" lon="5.92416">
        <ele>582.3</ele>
        <time>2021-09-09T09:48:05Z</time>
      </trkpt>
      <trkpt lat="44.19882" lon="5.92426">
        <ele>582</ele>
        <time>2021-09-09T09:48:07Z</time>
      </trkpt>
      <trkpt lat="44.1988" lon="5.92431">
        <ele>581.8</ele>
        <time>2021-09-09T09:48:08Z</time>
      </trkpt>
      <trkpt lat="44.19877" lon="5.92437">
        <ele>581.7</ele>
        <time>2021-09-09T09:48:10Z</time>
      </trkpt>
      <trkpt lat="44.19876" lon="5.92444">
        <ele>581.6</ele>
        <time>2021-09-09T09:48:11Z</time>
      </trkpt>
      <trkpt lat="44.19874" lon="5.92448">
        <ele>581.6</ele>
        <time>2021-09-09T09:48:12Z</time>
      </trkpt>
      <trkpt lat="44.19871" lon="5.92454">
        <ele>581.6</ele>
        <time>2021-09-09T09:48:14Z</time>
      </trkpt>
      <trkpt lat="44.19869" lon="5.92458">
        <ele>581.6</ele>
        <time>2021-09-09T09:48:15Z</time>
      </trkpt>
      <trkpt lat="44.19867" lon="5.92462">
        <ele>581.6</ele>
        <time>2021-09-09T09:48:16Z</time>
      </trkpt>
      <trkpt lat="44.19864" lon="5.92471">
        <ele>581.7</ele>
        <time>2021-09-09T09:48:18Z</time>
      </trkpt>
      <trkpt lat="44.19861" lon="5.9248">
        <ele>581.7</ele>
        <time>2021-09-09T09:48:19Z</time>
      </trkpt>
      <trkpt lat="44.19858" lon="5.9249">
        <ele>581.6</ele>
        <time>2021-09-09T09:48:21Z</time>
      </trkpt>
      <trkpt lat="44.19857" lon="5.92496">
        <ele>581.6</ele>
        <time>2021-09-09T09:48:22Z</time>
      </trkpt>
      <trkpt lat="44.19856" lon="5.92503">
        <ele>581.5</ele>
        <time>2021-09-09T09:48:24Z</time>
      </trkpt>
      <trkpt lat="44.19856" lon="5.92508">
        <ele>581.4</ele>
        <time>2021-09-09T09:48:25Z</time>
      </trkpt>
      <trkpt lat="44.19855" lon="5.92514">
        <ele>581.4</ele>
        <time>2021-09-09T09:48:26Z</time>
      </trkpt>
      <trkpt lat="44.19854" lon="5.92519">
        <ele>581.3</ele>
        <time>2021-09-09T09:48:27Z</time>
      </trkpt>
      <trkpt lat="44.19853" lon="5.92524">
        <ele>581.2</ele>
        <time>2021-09-09T09:48:28Z</time>
      </trkpt>
      <trkpt lat="44.19852" lon="5.92537">
        <ele>581.1</ele>
        <time>2021-09-09T09:48:30Z</time>
      </trkpt>
      <trkpt lat="44.19852" lon="5.92548">
        <ele>581.1</ele>
        <time>2021-09-09T09:48:32Z</time>
      </trkpt>
      <trkpt lat="44.19853" lon="5.92554">
        <ele>581.1</ele>
        <time>2021-09-09T09:48:33Z</time>
      </trkpt>
      <trkpt lat="44.19852" lon="5.9256">
        <ele>581.2</ele>
        <time>2021-09-09T09:48:34Z</time>
      </trkpt>
      <trkpt lat="44.19851" lon="5.92571">
        <ele>581.3</ele>
        <time>2021-09-09T09:48:36Z</time>
      </trkpt>
      <trkpt lat="44.1985" lon="5.92577">
        <ele>581.4</ele>
        <time>2021-09-09T09:48:37Z</time>
      </trkpt>
      <trkpt lat="44.19848" lon="5.92581">
        <ele>581.4</ele>
        <time>2021-09-09T09:48:38Z</time>
      </trkpt>
      <trkpt lat="44.19846" lon="5.92587">
        <ele>581.5</ele>
        <time>2021-09-09T09:48:40Z</time>
      </trkpt>
      <trkpt lat="44.19843" lon="5.92591">
        <ele>581.6</ele>
        <time>2021-09-09T09:48:41Z</time>
      </trkpt>
      <trkpt lat="44.19841" lon="5.92596">
        <ele>581.6</ele>
        <time>2021-09-09T09:48:42Z</time>
      </trkpt>
      <trkpt lat="44.19839" lon="5.92601">
        <ele>581.6</ele>
        <time>2021-09-09T09:48:43Z</time>
      </trkpt>
      <trkpt lat="44.19837" lon="5.92609">
        <ele>581.6</ele>
        <time>2021-09-09T09:48:45Z</time>
      </trkpt>
      <trkpt lat="44.19835" lon="5.92616">
        <ele>581.5</ele>
        <time>2021-09-09T09:48:46Z</time>
      </trkpt>
      <trkpt lat="44.19836" lon="5.92631">
        <ele>581.2</ele>
        <time>2021-09-09T09:48:48Z</time>
      </trkpt>
      <trkpt lat="44.19836" lon="5.92641">
        <ele>581</ele>
        <time>2021-09-09T09:48:50Z</time>
      </trkpt>
      <trkpt lat="44.19836" lon="5.92656">
        <ele>580.6</ele>
        <time>2021-09-09T09:48:51Z</time>
      </trkpt>
      <trkpt lat="44.19836" lon="5.92663">
        <ele>580.5</ele>
        <time>2021-09-09T09:48:52Z</time>
      </trkpt>
      <trkpt lat="44.19838" lon="5.92669">
        <ele>580.3</ele>
        <time>2021-09-09T09:48:54Z</time>
      </trkpt>
      <trkpt lat="44.19838" lon="5.92675">
        <ele>580.2</ele>
        <time>2021-09-09T09:48:55Z</time>
      </trkpt>
      <trkpt lat="44.19838" lon="5.92679">
        <ele>580.1</ele>
        <time>2021-09-09T09:48:56Z</time>
      </trkpt>
      <trkpt lat="44.19838" lon="5.92684">
        <ele>580</ele>
        <time>2021-09-09T09:48:58Z</time>
      </trkpt>
      <trkpt lat="44.19838" lon="5.92689">
        <ele>579.9</ele>
        <time>2021-09-09T09:48:59Z</time>
      </trkpt>
      <trkpt lat="44.19839" lon="5.92692">
        <ele>579.8</ele>
        <time>2021-09-09T09:49:00Z</time>
      </trkpt>
      <trkpt lat="44.1984" lon="5.92696">
        <ele>579.7</ele>
        <time>2021-09-09T09:49:02Z</time>
      </trkpt>
      <trkpt lat="44.19841" lon="5.927">
        <ele>579.7</ele>
        <time>2021-09-09T09:49:03Z</time>
      </trkpt>
      <trkpt lat="44.19842" lon="5.92703">
        <ele>579.6</ele>
        <time>2021-09-09T09:49:04Z</time>
      </trkpt>
      <trkpt lat="44.19843" lon="5.92704">
        <ele>579.6</ele>
        <time>2021-09-09T09:49:05Z</time>
      </trkpt>
      <trkpt lat="44.19843" lon="5.92706">
        <ele>579.5</ele>
        <time>2021-09-09T09:49:06Z</time>
      </trkpt>
      <trkpt lat="44.19843" lon="5.92711">
        <ele>579.4</ele>
        <time>2021-09-09T09:49:08Z</time>
      </trkpt>
      <trkpt lat="44.19844" lon="5.92714">
        <ele>579.4</ele>
        <time>2021-09-09T09:49:09Z</time>
      </trkpt>
      <trkpt lat="44.19845" lon="5.92717">
        <ele>579.3</ele>
        <time>2021-09-09T09:49:11Z</time>
      </trkpt>
      <trkpt lat="44.19846" lon="5.92721">
        <ele>579.2</ele>
        <time>2021-09-09T09:49:12Z</time>
      </trkpt>
      <trkpt lat="44.19847" lon="5.92726">
        <ele>579.1</ele>
        <time>2021-09-09T09:49:13Z</time>
      </trkpt>
      <trkpt lat="44.19848" lon="5.92728">
        <ele>579</ele>
        <time>2021-09-09T09:49:14Z</time>
      </trkpt>
      <trkpt lat="44.19847" lon="5.92735">
        <ele>578.9</ele>
        <time>2021-09-09T09:49:16Z</time>
      </trkpt>
      <trkpt lat="44.19848" lon="5.92737">
        <ele>578.9</ele>
        <time>2021-09-09T09:49:17Z</time>
      </trkpt>
      <trkpt lat="44.19848" lon="5.9274">
        <ele>578.9</ele>
        <time>2021-09-09T09:49:18Z</time>
      </trkpt>
      <trkpt lat="44.19849" lon="5.92745">
        <ele>578.8</ele>
        <time>2021-09-09T09:49:20Z</time>
      </trkpt>
      <trkpt lat="44.19849" lon="5.92748">
        <ele>578.8</ele>
        <time>2021-09-09T09:49:21Z</time>
      </trkpt>
      <trkpt lat="44.19849" lon="5.92751">
        <ele>578.8</ele>
        <time>2021-09-09T09:49:23Z</time>
      </trkpt>
      <trkpt lat="44.1985" lon="5.92755">
        <ele>578.8</ele>
        <time>2021-09-09T09:49:24Z</time>
      </trkpt>
      <trkpt lat="44.19851" lon="5.9276">
        <ele>578.8</ele>
        <time>2021-09-09T09:49:26Z</time>
      </trkpt>
      <trkpt lat="44.19852" lon="5.92765">
        <ele>578.9</ele>
        <time>2021-09-09T09:49:27Z</time>
      </trkpt>
      <trkpt lat="44.19853" lon="5.92768">
        <ele>578.9</ele>
        <time>2021-09-09T09:49:28Z</time>
      </trkpt>
      <trkpt lat="44.19854" lon="5.92772">
        <ele>579</ele>
        <time>2021-09-09T09:49:29Z</time>
      </trkpt>
      <trkpt lat="44.19855" lon="5.92774">
        <ele>579.1</ele>
        <time>2021-09-09T09:49:30Z</time>
      </trkpt>
      <trkpt lat="44.19855" lon="5.92777">
        <ele>579.2</ele>
        <time>2021-09-09T09:49:32Z</time>
      </trkpt>
      <trkpt lat="44.19854" lon="5.92781">
        <ele>579.3</ele>
        <time>2021-09-09T09:49:33Z</time>
      </trkpt>
      <trkpt lat="44.19854" lon="5.92782">
        <ele>579.3</ele>
        <time>2021-09-09T09:49:34Z</time>
      </trkpt>
      <trkpt lat="44.19854" lon="5.92787">
        <ele>579.4</ele>
        <time>2021-09-09T09:49:36Z</time>
      </trkpt>
      <trkpt lat="44.19854" lon="5.92792">
        <ele>579.6</ele>
        <time>2021-09-09T09:49:38Z</time>
      </trkpt>
      <trkpt lat="44.19854" lon="5.92797">
        <ele>579.7</ele>
        <time>2021-09-09T09:49:39Z</time>
      </trkpt>
      <trkpt lat="44.19853" lon="5.92801">
        <ele>579.8</ele>
        <time>2021-09-09T09:49:40Z</time>
      </trkpt>
      <trkpt lat="44.19853" lon="5.92806">
        <ele>579.9</ele>
        <time>2021-09-09T09:49:42Z</time>
      </trkpt>
      <trkpt lat="44.19853" lon="5.9281">
        <ele>579.9</ele>
        <time>2021-09-09T09:49:43Z</time>
      </trkpt>
      <trkpt lat="44.19853" lon="5.92815">
        <ele>580</ele>
        <time>2021-09-09T09:51:27Z</time>
      </trkpt>
      <trkpt lat="44.19853" lon="5.92819">
        <ele>580.1</ele>
        <time>2021-09-09T09:51:28Z</time>
      </trkpt>
      <trkpt lat="44.19852" lon="5.92824">
        <ele>580.1</ele>
        <time>2021-09-09T09:51:29Z</time>
      </trkpt>
      <trkpt lat="44.19853" lon="5.92827">
        <ele>580.1</ele>
        <time>2021-09-09T09:51:30Z</time>
      </trkpt>
      <trkpt lat="44.19855" lon="5.92831">
        <ele>580.2</ele>
        <time>2021-09-09T09:51:32Z</time>
      </trkpt>
      <trkpt lat="44.19856" lon="5.92835">
        <ele>580.2</ele>
        <time>2021-09-09T09:51:33Z</time>
      </trkpt>
      <trkpt lat="44.19858" lon="5.92842">
        <ele>580.3</ele>
        <time>2021-09-09T09:51:35Z</time>
      </trkpt>
      <trkpt lat="44.19858" lon="5.92845">
        <ele>580.3</ele>
        <time>2021-09-09T09:51:36Z</time>
      </trkpt>
      <trkpt lat="44.19859" lon="5.92848">
        <ele>580.4</ele>
        <time>2021-09-09T09:51:37Z</time>
      </trkpt>
      <trkpt lat="44.1986" lon="5.92853">
        <ele>580.5</ele>
        <time>2021-09-09T09:51:39Z</time>
      </trkpt>
      <trkpt lat="44.1986" lon="5.92854">
        <ele>580.5</ele>
        <time>2021-09-09T09:51:40Z</time>
      </trkpt>
      <trkpt lat="44.19859" lon="5.92855">
        <ele>580.6</ele>
        <time>2021-09-09T09:51:41Z</time>
      </trkpt>
      <trkpt lat="44.19859" lon="5.92855">
        <ele>580.6</ele>
        <time>2021-09-09T09:51:42Z</time>
      </trkpt>
      <trkpt lat="44.19858" lon="5.92856">
        <ele>580.6</ele>
        <time>2021-09-09T09:51:44Z</time>
      </trkpt>
      <trkpt lat="44.19858" lon="5.92856">
        <ele>580.6</ele>
        <time>2021-09-09T09:51:45Z</time>
      </trkpt>
      <trkpt lat="44.19858" lon="5.92856">
        <ele>580.6</ele>
        <time>2021-09-09T09:51:47Z</time>
      </trkpt>
      <trkpt lat="44.19858" lon="5.92856">
        <ele>580.6</ele>
        <time>2021-09-09T09:51:49Z</time>
      </trkpt>
      <trkpt lat="44.19858" lon="5.92884">
        <ele>581.1</ele>
        <time>2021-09-09T09:52:11Z</time>
      </trkpt>
      <trkpt lat="44.19858" lon="5.92896">
        <ele>581.3</ele>
        <time>2021-09-09T09:52:13Z</time>
      </trkpt>
      <trkpt lat="44.19858" lon="5.92902">
        <ele>581.4</ele>
        <time>2021-09-09T09:52:14Z</time>
      </trkpt>
      <trkpt lat="44.19858" lon="5.92908">
        <ele>581.5</ele>
        <time>2021-09-09T09:52:15Z</time>
      </trkpt>
      <trkpt lat="44.19858" lon="5.92914">
        <ele>581.6</ele>
        <time>2021-09-09T09:52:16Z</time>
      </trkpt>
      <trkpt lat="44.19857" lon="5.92918">
        <ele>581.7</ele>
        <time>2021-09-09T09:52:17Z</time>
      </trkpt>
      <trkpt lat="44.19857" lon="5.92923">
        <ele>581.9</ele>
        <time>2021-09-09T09:52:18Z</time>
      </trkpt>
      <trkpt lat="44.19858" lon="5.9293">
        <ele>582.1</ele>
        <time>2021-09-09T09:52:20Z</time>
      </trkpt>
      <trkpt lat="44.19859" lon="5.92933">
        <ele>582.3</ele>
        <time>2021-09-09T09:52:21Z</time>
      </trkpt>
      <trkpt lat="44.1986" lon="5.92938">
        <ele>582.4</ele>
        <time>2021-09-09T09:52:23Z</time>
      </trkpt>
      <trkpt lat="44.1986" lon="5.92942">
        <ele>582.5</ele>
        <time>2021-09-09T09:52:24Z</time>
      </trkpt>
      <trkpt lat="44.1986" lon="5.92946">
        <ele>582.7</ele>
        <time>2021-09-09T09:52:25Z</time>
      </trkpt>
      <trkpt lat="44.1986" lon="5.92947">
        <ele>582.7</ele>
        <time>2021-09-09T09:52:26Z</time>
      </trkpt>
      <trkpt lat="44.19861" lon="5.92953">
        <ele>582.8</ele>
        <time>2021-09-09T09:52:28Z</time>
      </trkpt>
      <trkpt lat="44.19861" lon="5.92955">
        <ele>582.9</ele>
        <time>2021-09-09T09:52:29Z</time>
      </trkpt>
      <trkpt lat="44.19861" lon="5.92957">
        <ele>582.9</ele>
        <time>2021-09-09T09:52:30Z</time>
      </trkpt>
      <trkpt lat="44.19861" lon="5.92964">
        <ele>583</ele>
        <time>2021-09-09T09:52:32Z</time>
      </trkpt>
      <trkpt lat="44.19861" lon="5.92966">
        <ele>583.1</ele>
        <time>2021-09-09T09:52:33Z</time>
      </trkpt>
      <trkpt lat="44.19861" lon="5.92968">
        <ele>583.1</ele>
        <time>2021-09-09T09:52:34Z</time>
      </trkpt>
      <trkpt lat="44.19861" lon="5.92973">
        <ele>583.1</ele>
        <time>2021-09-09T09:52:36Z</time>
      </trkpt>
      <trkpt lat="44.19862" lon="5.92975">
        <ele>583.2</ele>
        <time>2021-09-09T09:52:37Z</time>
      </trkpt>
      <trkpt lat="44.19864" lon="5.92978">
        <ele>583.2</ele>
        <time>2021-09-09T09:52:39Z</time>
      </trkpt>
      <trkpt lat="44.19865" lon="5.9298">
        <ele>583.2</ele>
        <time>2021-09-09T09:52:40Z</time>
      </trkpt>
      <trkpt lat="44.19866" lon="5.92984">
        <ele>583.2</ele>
        <time>2021-09-09T09:52:42Z</time>
      </trkpt>
      <trkpt lat="44.19867" lon="5.92987">
        <ele>583.1</ele>
        <time>2021-09-09T09:52:43Z</time>
      </trkpt>
      <trkpt lat="44.19867" lon="5.92989">
        <ele>583.1</ele>
        <time>2021-09-09T09:52:44Z</time>
      </trkpt>
      <trkpt lat="44.19869" lon="5.92992">
        <ele>583.1</ele>
        <time>2021-09-09T09:52:46Z</time>
      </trkpt>
      <trkpt lat="44.19871" lon="5.92993">
        <ele>583</ele>
        <time>2021-09-09T09:52:47Z</time>
      </trkpt>
      <trkpt lat="44.19874" lon="5.92996">
        <ele>582.9</ele>
        <time>2021-09-09T09:52:49Z</time>
      </trkpt>
      <trkpt lat="44.19876" lon="5.92999">
        <ele>582.8</ele>
        <time>2021-09-09T09:52:50Z</time>
      </trkpt>
      <trkpt lat="44.19878" lon="5.93003">
        <ele>582.7</ele>
        <time>2021-09-09T09:52:51Z</time>
      </trkpt>
      <trkpt lat="44.19878" lon="5.93004">
        <ele>582.6</ele>
        <time>2021-09-09T09:52:52Z</time>
      </trkpt>
      <trkpt lat="44.1988" lon="5.93009">
        <ele>582.5</ele>
        <time>2021-09-09T09:52:53Z</time>
      </trkpt>
      <trkpt lat="44.1988" lon="5.9301">
        <ele>582.4</ele>
        <time>2021-09-09T09:52:54Z</time>
      </trkpt>
      <trkpt lat="44.19883" lon="5.93016">
        <ele>582.3</ele>
        <time>2021-09-09T09:52:56Z</time>
      </trkpt>
      <trkpt lat="44.19884" lon="5.93017">
        <ele>582.2</ele>
        <time>2021-09-09T09:52:57Z</time>
      </trkpt>
      <trkpt lat="44.19885" lon="5.93018">
        <ele>582.2</ele>
        <time>2021-09-09T09:52:58Z</time>
      </trkpt>
      <trkpt lat="44.19886" lon="5.93021">
        <ele>582.1</ele>
        <time>2021-09-09T09:52:59Z</time>
      </trkpt>
      <trkpt lat="44.19888" lon="5.93025">
        <ele>581.9</ele>
        <time>2021-09-09T09:53:01Z</time>
      </trkpt>
      <trkpt lat="44.1989" lon="5.93031">
        <ele>581.8</ele>
        <time>2021-09-09T09:53:02Z</time>
      </trkpt>
      <trkpt lat="44.19892" lon="5.93035">
        <ele>581.7</ele>
        <time>2021-09-09T09:53:03Z</time>
      </trkpt>
      <trkpt lat="44.19893" lon="5.93041">
        <ele>581.6</ele>
        <time>2021-09-09T09:53:05Z</time>
      </trkpt>
      <trkpt lat="44.19894" lon="5.93046">
        <ele>581.5</ele>
        <time>2021-09-09T09:53:06Z</time>
      </trkpt>
      <trkpt lat="44.19895" lon="5.93051">
        <ele>581.5</ele>
        <time>2021-09-09T09:53:07Z</time>
      </trkpt>
      <trkpt lat="44.19896" lon="5.93056">
        <ele>581.4</ele>
        <time>2021-09-09T09:53:08Z</time>
      </trkpt>
      <trkpt lat="44.19896" lon="5.93063">
        <ele>581.4</ele>
        <time>2021-09-09T09:53:09Z</time>
      </trkpt>
      <trkpt lat="44.19898" lon="5.93072">
        <ele>581.3</ele>
        <time>2021-09-09T09:53:11Z</time>
      </trkpt>
      <trkpt lat="44.19899" lon="5.93076">
        <ele>581.3</ele>
        <time>2021-09-09T09:53:13Z</time>
      </trkpt>
      <trkpt lat="44.19899" lon="5.93082">
        <ele>581.2</ele>
        <time>2021-09-09T09:53:14Z</time>
      </trkpt>
      <trkpt lat="44.19899" lon="5.93088">
        <ele>581.2</ele>
        <time>2021-09-09T09:53:15Z</time>
      </trkpt>
      <trkpt lat="44.19901" lon="5.93098">
        <ele>581</ele>
        <time>2021-09-09T09:53:16Z</time>
      </trkpt>
      <trkpt lat="44.19902" lon="5.93107">
        <ele>580.8</ele>
        <time>2021-09-09T09:53:18Z</time>
      </trkpt>
      <trkpt lat="44.199" lon="5.93119">
        <ele>580.6</ele>
        <time>2021-09-09T09:53:20Z</time>
      </trkpt>
      <trkpt lat="44.19902" lon="5.93126">
        <ele>580.4</ele>
        <time>2021-09-09T09:53:22Z</time>
      </trkpt>
      <trkpt lat="44.19902" lon="5.93131">
        <ele>580.3</ele>
        <time>2021-09-09T09:53:23Z</time>
      </trkpt>
      <trkpt lat="44.19902" lon="5.93135">
        <ele>580.2</ele>
        <time>2021-09-09T09:53:24Z</time>
      </trkpt>
      <trkpt lat="44.19902" lon="5.93138">
        <ele>580.1</ele>
        <time>2021-09-09T09:53:26Z</time>
      </trkpt>
      <trkpt lat="44.19902" lon="5.93137">
        <ele>580</ele>
        <time>2021-09-09T09:53:27Z</time>
      </trkpt>
      <trkpt lat="44.19903" lon="5.93136">
        <ele>580</ele>
        <time>2021-09-09T09:53:28Z</time>
      </trkpt>
      <trkpt lat="44.19904" lon="5.93136">
        <ele>579.9</ele>
        <time>2021-09-09T09:53:30Z</time>
      </trkpt>
      <trkpt lat="44.19904" lon="5.93136">
        <ele>579.9</ele>
        <time>2021-09-09T09:53:32Z</time>
      </trkpt>
      <trkpt lat="44.19904" lon="5.93135">
        <ele>579.9</ele>
        <time>2021-09-09T09:53:34Z</time>
      </trkpt>
      <trkpt lat="44.19904" lon="5.93135">
        <ele>579.9</ele>
        <time>2021-09-09T09:53:35Z</time>
      </trkpt>
      <trkpt lat="44.19901" lon="5.93146">
        <ele>579.3</ele>
        <time>2021-09-09T09:54:22Z</time>
      </trkpt>
      <trkpt lat="44.199" lon="5.93156">
        <ele>578.7</ele>
        <time>2021-09-09T09:54:24Z</time>
      </trkpt>
      <trkpt lat="44.19901" lon="5.93164">
        <ele>578.2</ele>
        <time>2021-09-09T09:54:25Z</time>
      </trkpt>
      <trkpt lat="44.19901" lon="5.93175">
        <ele>577.4</ele>
        <time>2021-09-09T09:54:27Z</time>
      </trkpt>
      <trkpt lat="44.19902" lon="5.93182">
        <ele>576.7</ele>
        <time>2021-09-09T09:54:28Z</time>
      </trkpt>
      <trkpt lat="44.19902" lon="5.93188">
        <ele>576.2</ele>
        <time>2021-09-09T09:54:29Z</time>
      </trkpt>
      <trkpt lat="44.19902" lon="5.93193">
        <ele>575.8</ele>
        <time>2021-09-09T09:54:30Z</time>
      </trkpt>
      <trkpt lat="44.19902" lon="5.93199">
        <ele>575.1</ele>
        <time>2021-09-09T09:54:32Z</time>
      </trkpt>
      <trkpt lat="44.19903" lon="5.93204">
        <ele>574.5</ele>
        <time>2021-09-09T09:54:33Z</time>
      </trkpt>
      <trkpt lat="44.19903" lon="5.93211">
        <ele>573.9</ele>
        <time>2021-09-09T09:54:35Z</time>
      </trkpt>
      <trkpt lat="44.19903" lon="5.93213">
        <ele>573.6</ele>
        <time>2021-09-09T09:54:36Z</time>
      </trkpt>
      <trkpt lat="44.19902" lon="5.93218">
        <ele>573</ele>
        <time>2021-09-09T09:54:37Z</time>
      </trkpt>
      <trkpt lat="44.19901" lon="5.93223">
        <ele>572.4</ele>
        <time>2021-09-09T09:54:38Z</time>
      </trkpt>
      <trkpt lat="44.199" lon="5.93228">
        <ele>571.8</ele>
        <time>2021-09-09T09:54:39Z</time>
      </trkpt>
      <trkpt lat="44.19897" lon="5.93234">
        <ele>571</ele>
        <time>2021-09-09T09:54:41Z</time>
      </trkpt>
      <trkpt lat="44.19896" lon="5.93238">
        <ele>570.5</ele>
        <time>2021-09-09T09:54:43Z</time>
      </trkpt>
      <trkpt lat="44.19896" lon="5.93239">
        <ele>570.4</ele>
        <time>2021-09-09T09:54:44Z</time>
      </trkpt>
      <trkpt lat="44.19894" lon="5.93241">
        <ele>570.1</ele>
        <time>2021-09-09T09:54:45Z</time>
      </trkpt>
      <trkpt lat="44.19893" lon="5.93245">
        <ele>569.5</ele>
        <time>2021-09-09T09:54:47Z</time>
      </trkpt>
      <trkpt lat="44.19893" lon="5.93251">
        <ele>568.1</ele>
        <time>2021-09-09T09:54:48Z</time>
      </trkpt>
      <trkpt lat="44.19894" lon="5.93253">
        <ele>567.8</ele>
        <time>2021-09-09T09:54:49Z</time>
      </trkpt>
      <trkpt lat="44.19899" lon="5.93267">
        <ele>566.2</ele>
        <time>2021-09-09T09:54:51Z</time>
      </trkpt>
      <trkpt lat="44.19904" lon="5.93287">
        <ele>564.8</ele>
        <time>2021-09-09T09:54:53Z</time>
      </trkpt>
      <trkpt lat="44.19905" lon="5.93298">
        <ele>564.4</ele>
        <time>2021-09-09T09:54:54Z</time>
      </trkpt>
      <trkpt lat="44.19905" lon="5.93309">
        <ele>564</ele>
        <time>2021-09-09T09:54:55Z</time>
      </trkpt>
      <trkpt lat="44.19906" lon="5.93333">
        <ele>563.6</ele>
        <time>2021-09-09T09:54:58Z</time>
      </trkpt>
      <trkpt lat="44.19908" lon="5.93355">
        <ele>563.7</ele>
        <time>2021-09-09T09:54:59Z</time>
      </trkpt>
      <trkpt lat="44.19909" lon="5.93365">
        <ele>563.9</ele>
        <time>2021-09-09T09:55:00Z</time>
      </trkpt>
      <trkpt lat="44.19911" lon="5.93385">
        <ele>564.5</ele>
        <time>2021-09-09T09:55:02Z</time>
      </trkpt>
      <trkpt lat="44.19912" lon="5.93401">
        <ele>565.1</ele>
        <time>2021-09-09T09:55:04Z</time>
      </trkpt>
      <trkpt lat="44.19912" lon="5.93407">
        <ele>565.3</ele>
        <time>2021-09-09T09:55:05Z</time>
      </trkpt>
      <trkpt lat="44.19912" lon="5.9341">
        <ele>565.4</ele>
        <time>2021-09-09T09:55:06Z</time>
      </trkpt>
      <trkpt lat="44.1991" lon="5.93418">
        <ele>565.6</ele>
        <time>2021-09-09T09:55:08Z</time>
      </trkpt>
      <trkpt lat="44.1991" lon="5.93424">
        <ele>565.6</ele>
        <time>2021-09-09T09:55:09Z</time>
      </trkpt>
      <trkpt lat="44.1991" lon="5.93426">
        <ele>565.6</ele>
        <time>2021-09-09T09:55:10Z</time>
      </trkpt>
      <trkpt lat="44.19909" lon="5.93435">
        <ele>565.5</ele>
        <time>2021-09-09T09:55:12Z</time>
      </trkpt>
      <trkpt lat="44.19909" lon="5.93437">
        <ele>565.5</ele>
        <time>2021-09-09T09:55:13Z</time>
      </trkpt>
      <trkpt lat="44.19909" lon="5.93442">
        <ele>565.3</ele>
        <time>2021-09-09T09:55:15Z</time>
      </trkpt>
      <trkpt lat="44.1991" lon="5.93447">
        <ele>565.1</ele>
        <time>2021-09-09T09:55:16Z</time>
      </trkpt>
      <trkpt lat="44.19909" lon="5.93452">
        <ele>564.8</ele>
        <time>2021-09-09T09:55:17Z</time>
      </trkpt>
      <trkpt lat="44.19906" lon="5.93465">
        <ele>564.1</ele>
        <time>2021-09-09T09:55:18Z</time>
      </trkpt>
      <trkpt lat="44.19902" lon="5.93481">
        <ele>563.4</ele>
        <time>2021-09-09T09:55:20Z</time>
      </trkpt>
      <trkpt lat="44.199" lon="5.93491">
        <ele>563.1</ele>
        <time>2021-09-09T09:55:21Z</time>
      </trkpt>
      <trkpt lat="44.19899" lon="5.935">
        <ele>562.9</ele>
        <time>2021-09-09T09:55:22Z</time>
      </trkpt>
      <trkpt lat="44.199" lon="5.9351">
        <ele>562.7</ele>
        <time>2021-09-09T09:55:23Z</time>
      </trkpt>
      <trkpt lat="44.199" lon="5.93518">
        <ele>562.5</ele>
        <time>2021-09-09T09:55:24Z</time>
      </trkpt>
      <trkpt lat="44.19902" lon="5.93535">
        <ele>562.1</ele>
        <time>2021-09-09T09:55:26Z</time>
      </trkpt>
      <trkpt lat="44.19904" lon="5.93544">
        <ele>562</ele>
        <time>2021-09-09T09:55:27Z</time>
      </trkpt>
      <trkpt lat="44.19906" lon="5.93561">
        <ele>561.8</ele>
        <time>2021-09-09T09:55:29Z</time>
      </trkpt>
      <trkpt lat="44.19908" lon="5.93576">
        <ele>561.5</ele>
        <time>2021-09-09T09:55:31Z</time>
      </trkpt>
      <trkpt lat="44.1991" lon="5.93581">
        <ele>561.4</ele>
        <time>2021-09-09T09:55:32Z</time>
      </trkpt>
      <trkpt lat="44.1991" lon="5.93584">
        <ele>561.3</ele>
        <time>2021-09-09T09:55:33Z</time>
      </trkpt>
      <trkpt lat="44.19912" lon="5.93592">
        <ele>561.1</ele>
        <time>2021-09-09T09:55:35Z</time>
      </trkpt>
      <trkpt lat="44.19913" lon="5.93595">
        <ele>561</ele>
        <time>2021-09-09T09:55:36Z</time>
      </trkpt>
      <trkpt lat="44.19915" lon="5.93601">
        <ele>560.8</ele>
        <time>2021-09-09T09:55:38Z</time>
      </trkpt>
      <trkpt lat="44.1992" lon="5.93608">
        <ele>560.4</ele>
        <time>2021-09-09T09:55:40Z</time>
      </trkpt>
      <trkpt lat="44.19922" lon="5.93618">
        <ele>559.8</ele>
        <time>2021-09-09T09:55:41Z</time>
      </trkpt>
      <trkpt lat="44.19926" lon="5.93623">
        <ele>559.3</ele>
        <time>2021-09-09T09:55:42Z</time>
      </trkpt>
      <trkpt lat="44.19938" lon="5.93635">
        <ele>557.7</ele>
        <time>2021-09-09T09:55:44Z</time>
      </trkpt>
      <trkpt lat="44.19949" lon="5.9365">
        <ele>556.4</ele>
        <time>2021-09-09T09:55:46Z</time>
      </trkpt>
      <trkpt lat="44.19954" lon="5.93667">
        <ele>556</ele>
        <time>2021-09-09T09:55:48Z</time>
      </trkpt>
      <trkpt lat="44.19949" lon="5.93687">
        <ele>556.7</ele>
        <time>2021-09-09T09:55:50Z</time>
      </trkpt>
      <trkpt lat="44.19944" lon="5.93696">
        <ele>557.1</ele>
        <time>2021-09-09T09:55:51Z</time>
      </trkpt>
      <trkpt lat="44.19936" lon="5.93711">
        <ele>558</ele>
        <time>2021-09-09T09:55:53Z</time>
      </trkpt>
      <trkpt lat="44.19929" lon="5.93724">
        <ele>558.6</ele>
        <time>2021-09-09T09:55:55Z</time>
      </trkpt>
      <trkpt lat="44.19924" lon="5.93735">
        <ele>559.1</ele>
        <time>2021-09-09T09:55:57Z</time>
      </trkpt>
      <trkpt lat="44.19922" lon="5.93739">
        <ele>559.2</ele>
        <time>2021-09-09T09:55:58Z</time>
      </trkpt>
      <trkpt lat="44.1992" lon="5.93746">
        <ele>559.5</ele>
        <time>2021-09-09T09:56:00Z</time>
      </trkpt>
      <trkpt lat="44.1992" lon="5.93751">
        <ele>559.7</ele>
        <time>2021-09-09T09:56:02Z</time>
      </trkpt>
      <trkpt lat="44.1992" lon="5.93752">
        <ele>559.7</ele>
        <time>2021-09-09T09:56:03Z</time>
      </trkpt>
      <trkpt lat="44.19919" lon="5.93758">
        <ele>559.9</ele>
        <time>2021-09-09T09:56:05Z</time>
      </trkpt>
      <trkpt lat="44.19918" lon="5.93764">
        <ele>560</ele>
        <time>2021-09-09T09:56:06Z</time>
      </trkpt>
      <trkpt lat="44.19917" lon="5.93769">
        <ele>560.1</ele>
        <time>2021-09-09T09:56:08Z</time>
      </trkpt>
      <trkpt lat="44.19916" lon="5.93773">
        <ele>560.1</ele>
        <time>2021-09-09T09:56:09Z</time>
      </trkpt>
      <trkpt lat="44.19915" lon="5.9378">
        <ele>560</ele>
        <time>2021-09-09T09:56:11Z</time>
      </trkpt>
      <trkpt lat="44.19914" lon="5.93784">
        <ele>559.9</ele>
        <time>2021-09-09T09:56:12Z</time>
      </trkpt>
      <trkpt lat="44.19911" lon="5.93798">
        <ele>559.3</ele>
        <time>2021-09-09T09:56:14Z</time>
      </trkpt>
      <trkpt lat="44.19912" lon="5.93806">
        <ele>559</ele>
        <time>2021-09-09T09:56:15Z</time>
      </trkpt>
      <trkpt lat="44.19914" lon="5.93822">
        <ele>558.2</ele>
        <time>2021-09-09T09:56:17Z</time>
      </trkpt>
      <trkpt lat="44.19915" lon="5.93831">
        <ele>557.9</ele>
        <time>2021-09-09T09:56:18Z</time>
      </trkpt>
      <trkpt lat="44.19917" lon="5.93849">
        <ele>557.6</ele>
        <time>2021-09-09T09:56:20Z</time>
      </trkpt>
      <trkpt lat="44.19918" lon="5.93857">
        <ele>557.5</ele>
        <time>2021-09-09T09:56:21Z</time>
      </trkpt>
      <trkpt lat="44.19919" lon="5.93873">
        <ele>557.4</ele>
        <time>2021-09-09T09:56:23Z</time>
      </trkpt>
      <trkpt lat="44.1992" lon="5.9388">
        <ele>557.4</ele>
        <time>2021-09-09T09:56:24Z</time>
      </trkpt>
      <trkpt lat="44.19921" lon="5.93893">
        <ele>557.3</ele>
        <time>2021-09-09T09:56:26Z</time>
      </trkpt>
      <trkpt lat="44.19922" lon="5.93899">
        <ele>557.2</ele>
        <time>2021-09-09T09:56:27Z</time>
      </trkpt>
      <trkpt lat="44.19922" lon="5.93909">
        <ele>557.1</ele>
        <time>2021-09-09T09:56:29Z</time>
      </trkpt>
      <trkpt lat="44.19921" lon="5.93917">
        <ele>556.9</ele>
        <time>2021-09-09T09:56:30Z</time>
      </trkpt>
      <trkpt lat="44.1992" lon="5.9392">
        <ele>556.8</ele>
        <time>2021-09-09T09:56:31Z</time>
      </trkpt>
      <trkpt lat="44.19917" lon="5.93925">
        <ele>556.6</ele>
        <time>2021-09-09T09:56:33Z</time>
      </trkpt>
      <trkpt lat="44.19917" lon="5.93929">
        <ele>556.4</ele>
        <time>2021-09-09T09:56:34Z</time>
      </trkpt>
      <trkpt lat="44.19918" lon="5.93932">
        <ele>556.3</ele>
        <time>2021-09-09T09:56:36Z</time>
      </trkpt>
      <trkpt lat="44.19919" lon="5.93934">
        <ele>556.2</ele>
        <time>2021-09-09T09:56:38Z</time>
      </trkpt>
      <trkpt lat="44.1992" lon="5.93936">
        <ele>556.1</ele>
        <time>2021-09-09T09:56:39Z</time>
      </trkpt>
      <trkpt lat="44.19921" lon="5.93938">
        <ele>556</ele>
        <time>2021-09-09T09:56:40Z</time>
      </trkpt>
      <trkpt lat="44.19921" lon="5.93941">
        <ele>555.8</ele>
        <time>2021-09-09T09:56:41Z</time>
      </trkpt>
      <trkpt lat="44.19922" lon="5.93943">
        <ele>555.7</ele>
        <time>2021-09-09T09:56:43Z</time>
      </trkpt>
      <trkpt lat="44.19923" lon="5.93945">
        <ele>555.6</ele>
        <time>2021-09-09T09:56:44Z</time>
      </trkpt>
      <trkpt lat="44.19924" lon="5.93947">
        <ele>555.5</ele>
        <time>2021-09-09T09:57:18Z</time>
      </trkpt>
      <trkpt lat="44.19925" lon="5.9395">
        <ele>555.4</ele>
        <time>2021-09-09T09:57:19Z</time>
      </trkpt>
      <trkpt lat="44.19928" lon="5.93957">
        <ele>555</ele>
        <time>2021-09-09T09:57:21Z</time>
      </trkpt>
      <trkpt lat="44.19929" lon="5.93961">
        <ele>554.8</ele>
        <time>2021-09-09T09:57:22Z</time>
      </trkpt>
      <trkpt lat="44.1993" lon="5.93961">
        <ele>554.7</ele>
        <time>2021-09-09T09:57:23Z</time>
      </trkpt>
      <trkpt lat="44.19933" lon="5.93963">
        <ele>554.5</ele>
        <time>2021-09-09T09:57:25Z</time>
      </trkpt>
      <trkpt lat="44.19934" lon="5.93965">
        <ele>554.4</ele>
        <time>2021-09-09T09:57:26Z</time>
      </trkpt>
      <trkpt lat="44.19935" lon="5.93966">
        <ele>554.2</ele>
        <time>2021-09-09T09:57:28Z</time>
      </trkpt>
      <trkpt lat="44.19937" lon="5.93968">
        <ele>554.1</ele>
        <time>2021-09-09T09:57:29Z</time>
      </trkpt>
      <trkpt lat="44.19938" lon="5.9397">
        <ele>554</ele>
        <time>2021-09-09T09:57:30Z</time>
      </trkpt>
      <trkpt lat="44.19939" lon="5.93971">
        <ele>553.8</ele>
        <time>2021-09-09T09:57:32Z</time>
      </trkpt>
      <trkpt lat="44.1994" lon="5.93973">
        <ele>553.7</ele>
        <time>2021-09-09T09:57:58Z</time>
      </trkpt>
      <trkpt lat="44.19941" lon="5.93975">
        <ele>553.6</ele>
        <time>2021-09-09T09:57:59Z</time>
      </trkpt>
      <trkpt lat="44.19943" lon="5.93984">
        <ele>552.9</ele>
        <time>2021-09-09T09:58:00Z</time>
      </trkpt>
      <trkpt lat="44.19946" lon="5.94007">
        <ele>551.1</ele>
        <time>2021-09-09T09:58:02Z</time>
      </trkpt>
      <trkpt lat="44.19945" lon="5.94015">
        <ele>550.4</ele>
        <time>2021-09-09T09:58:04Z</time>
      </trkpt>
      <trkpt lat="44.19944" lon="5.94022">
        <ele>549.6</ele>
        <time>2021-09-09T09:58:05Z</time>
      </trkpt>
      <trkpt lat="44.19942" lon="5.94027">
        <ele>549</ele>
        <time>2021-09-09T09:58:06Z</time>
      </trkpt>
      <trkpt lat="44.19938" lon="5.94033">
        <ele>548.2</ele>
        <time>2021-09-09T09:58:07Z</time>
      </trkpt>
      <trkpt lat="44.19935" lon="5.94038">
        <ele>547.4</ele>
        <time>2021-09-09T09:58:09Z</time>
      </trkpt>
      <trkpt lat="44.19929" lon="5.94047">
        <ele>546.1</ele>
        <time>2021-09-09T09:58:11Z</time>
      </trkpt>
      <trkpt lat="44.19927" lon="5.94049">
        <ele>545.6</ele>
        <time>2021-09-09T09:58:12Z</time>
      </trkpt>
      <trkpt lat="44.19925" lon="5.94053">
        <ele>545.2</ele>
        <time>2021-09-09T09:58:14Z</time>
      </trkpt>
      <trkpt lat="44.19923" lon="5.94056">
        <ele>544.6</ele>
        <time>2021-09-09T09:58:15Z</time>
      </trkpt>
      <trkpt lat="44.1992" lon="5.9406">
        <ele>544</ele>
        <time>2021-09-09T09:58:16Z</time>
      </trkpt>
      <trkpt lat="44.19916" lon="5.94062">
        <ele>543.7</ele>
        <time>2021-09-09T09:58:17Z</time>
      </trkpt>
      <trkpt lat="44.19911" lon="5.94064">
        <ele>543.5</ele>
        <time>2021-09-09T09:58:19Z</time>
      </trkpt>
      <trkpt lat="44.19906" lon="5.94064">
        <ele>543.4</ele>
        <time>2021-09-09T09:58:20Z</time>
      </trkpt>
      <trkpt lat="44.19902" lon="5.94064">
        <ele>543.2</ele>
        <time>2021-09-09T09:58:21Z</time>
      </trkpt>
      <trkpt lat="44.19897" lon="5.94064">
        <ele>543</ele>
        <time>2021-09-09T09:58:23Z</time>
      </trkpt>
      <trkpt lat="44.19895" lon="5.94064">
        <ele>542.9</ele>
        <time>2021-09-09T09:58:24Z</time>
      </trkpt>
      <trkpt lat="44.19891" lon="5.94067">
        <ele>542.6</ele>
        <time>2021-09-09T09:58:26Z</time>
      </trkpt>
      <trkpt lat="44.19885" lon="5.94071">
        <ele>542.2</ele>
        <time>2021-09-09T09:58:28Z</time>
      </trkpt>
      <trkpt lat="44.19878" lon="5.94073">
        <ele>541.6</ele>
        <time>2021-09-09T09:58:30Z</time>
      </trkpt>
      <trkpt lat="44.19871" lon="5.94074">
        <ele>540.8</ele>
        <time>2021-09-09T09:58:31Z</time>
      </trkpt>
      <trkpt lat="44.19864" lon="5.9408">
        <ele>539.6</ele>
        <time>2021-09-09T09:58:33Z</time>
      </trkpt>
      <trkpt lat="44.19861" lon="5.94086">
        <ele>539</ele>
        <time>2021-09-09T09:58:35Z</time>
      </trkpt>
      <trkpt lat="44.19859" lon="5.94092">
        <ele>538.4</ele>
        <time>2021-09-09T09:58:36Z</time>
      </trkpt>
      <trkpt lat="44.19859" lon="5.94101">
        <ele>537.8</ele>
        <time>2021-09-09T09:58:38Z</time>
      </trkpt>
      <trkpt lat="44.1986" lon="5.94107">
        <ele>537.3</ele>
        <time>2021-09-09T09:58:39Z</time>
      </trkpt>
      <trkpt lat="44.19861" lon="5.94113">
        <ele>536.8</ele>
        <time>2021-09-09T09:58:41Z</time>
      </trkpt>
      <trkpt lat="44.1986" lon="5.94122">
        <ele>536.2</ele>
        <time>2021-09-09T09:58:42Z</time>
      </trkpt>
      <trkpt lat="44.19859" lon="5.94127">
        <ele>535.8</ele>
        <time>2021-09-09T09:58:43Z</time>
      </trkpt>
      <trkpt lat="44.19853" lon="5.94136">
        <ele>534.9</ele>
        <time>2021-09-09T09:58:45Z</time>
      </trkpt>
      <trkpt lat="44.19848" lon="5.94141">
        <ele>534.1</ele>
        <time>2021-09-09T09:58:46Z</time>
      </trkpt>
      <trkpt lat="44.19842" lon="5.94145">
        <ele>533.3</ele>
        <time>2021-09-09T09:58:48Z</time>
      </trkpt>
      <trkpt lat="44.19837" lon="5.94145">
        <ele>532.6</ele>
        <time>2021-09-09T09:58:49Z</time>
      </trkpt>
      <trkpt lat="44.19823" lon="5.94155">
        <ele>530.5</ele>
        <time>2021-09-09T09:58:52Z</time>
      </trkpt>
      <trkpt lat="44.19815" lon="5.94162">
        <ele>529.2</ele>
        <time>2021-09-09T09:58:54Z</time>
      </trkpt>
      <trkpt lat="44.19813" lon="5.94168">
        <ele>529.4</ele>
        <time>2021-09-09T09:58:56Z</time>
      </trkpt>
      <trkpt lat="44.19811" lon="5.94176">
        <ele>529.7</ele>
        <time>2021-09-09T09:58:57Z</time>
      </trkpt>
      <trkpt lat="44.19809" lon="5.94181">
        <ele>529.9</ele>
        <time>2021-09-09T09:58:58Z</time>
      </trkpt>
      <trkpt lat="44.19808" lon="5.94192">
        <ele>530.4</ele>
        <time>2021-09-09T09:59:00Z</time>
      </trkpt>
      <trkpt lat="44.19809" lon="5.94198">
        <ele>530.6</ele>
        <time>2021-09-09T09:59:02Z</time>
      </trkpt>
      <trkpt lat="44.19807" lon="5.94206">
        <ele>531</ele>
        <time>2021-09-09T09:59:03Z</time>
      </trkpt>
      <trkpt lat="44.19806" lon="5.94212">
        <ele>531.6</ele>
        <time>2021-09-09T09:59:05Z</time>
      </trkpt>
      <trkpt lat="44.19804" lon="5.94215">
        <ele>532</ele>
        <time>2021-09-09T09:59:06Z</time>
      </trkpt>
      <trkpt lat="44.19801" lon="5.9422">
        <ele>532.4</ele>
        <time>2021-09-09T09:59:07Z</time>
      </trkpt>
      <trkpt lat="44.19799" lon="5.94222">
        <ele>532.7</ele>
        <time>2021-09-09T09:59:08Z</time>
      </trkpt>
      <trkpt lat="44.19796" lon="5.94226">
        <ele>533.1</ele>
        <time>2021-09-09T09:59:09Z</time>
      </trkpt>
      <trkpt lat="44.19792" lon="5.94232">
        <ele>533.6</ele>
        <time>2021-09-09T09:59:11Z</time>
      </trkpt>
      <trkpt lat="44.19789" lon="5.94236">
        <ele>534</ele>
        <time>2021-09-09T09:59:13Z</time>
      </trkpt>
      <trkpt lat="44.19789" lon="5.94237">
        <ele>534.1</ele>
        <time>2021-09-09T09:59:14Z</time>
      </trkpt>
      <trkpt lat="44.19789" lon="5.94238">
        <ele>534.2</ele>
        <time>2021-09-09T09:59:15Z</time>
      </trkpt>
      <trkpt lat="44.19788" lon="5.9424">
        <ele>534.3</ele>
        <time>2021-09-09T09:59:16Z</time>
      </trkpt>
      <trkpt lat="44.19786" lon="5.94243">
        <ele>534.6</ele>
        <time>2021-09-09T09:59:18Z</time>
      </trkpt>
      <trkpt lat="44.19785" lon="5.94245">
        <ele>535.4</ele>
        <time>2021-09-09T09:59:19Z</time>
      </trkpt>
      <trkpt lat="44.19784" lon="5.94249">
        <ele>535.7</ele>
        <time>2021-09-09T09:59:21Z</time>
      </trkpt>
      <trkpt lat="44.19784" lon="5.94251">
        <ele>535.8</ele>
        <time>2021-09-09T09:59:23Z</time>
      </trkpt>
      <trkpt lat="44.19786" lon="5.9425">
        <ele>535.9</ele>
        <time>2021-09-09T09:59:24Z</time>
      </trkpt>
      <trkpt lat="44.19787" lon="5.9425">
        <ele>536</ele>
        <time>2021-09-09T09:59:26Z</time>
      </trkpt>
      <trkpt lat="44.19787" lon="5.9425">
        <ele>536</ele>
        <time>2021-09-09T09:59:27Z</time>
      </trkpt>
      <trkpt lat="44.19787" lon="5.9425">
        <ele>536.1</ele>
        <time>2021-09-09T09:59:29Z</time>
      </trkpt>
      <trkpt lat="44.19788" lon="5.94251">
        <ele>536.1</ele>
        <time>2021-09-09T09:59:30Z</time>
      </trkpt>
      <trkpt lat="44.19787" lon="5.94251">
        <ele>536.1</ele>
        <time>2021-09-09T09:59:32Z</time>
      </trkpt>
      <trkpt lat="44.19787" lon="5.94251">
        <ele>536.1</ele>
        <time>2021-09-09T09:59:33Z</time>
      </trkpt>
      <trkpt lat="44.19793" lon="5.94258">
        <ele>536.8</ele>
        <time>2021-09-09T10:00:02Z</time>
      </trkpt>
      <trkpt lat="44.19795" lon="5.94258">
        <ele>537</ele>
        <time>2021-09-09T10:00:03Z</time>
      </trkpt>
      <trkpt lat="44.19799" lon="5.94257">
        <ele>537.7</ele>
        <time>2021-09-09T10:00:04Z</time>
      </trkpt>
      <trkpt lat="44.198" lon="5.94256">
        <ele>537.8</ele>
        <time>2021-09-09T10:00:05Z</time>
      </trkpt>
      <trkpt lat="44.19803" lon="5.94256">
        <ele>538.2</ele>
        <time>2021-09-09T10:00:06Z</time>
      </trkpt>
      <trkpt lat="44.19804" lon="5.94256">
        <ele>538.3</ele>
        <time>2021-09-09T10:00:07Z</time>
      </trkpt>
      <trkpt lat="44.19806" lon="5.94257">
        <ele>538.6</ele>
        <time>2021-09-09T10:00:09Z</time>
      </trkpt>
      <trkpt lat="44.19806" lon="5.94259">
        <ele>538.8</ele>
        <time>2021-09-09T10:00:10Z</time>
      </trkpt>
      <trkpt lat="44.19808" lon="5.9426">
        <ele>539.1</ele>
        <time>2021-09-09T10:00:11Z</time>
      </trkpt>
      <trkpt lat="44.19812" lon="5.94261">
        <ele>539.6</ele>
        <time>2021-09-09T10:00:13Z</time>
      </trkpt>
      <trkpt lat="44.19814" lon="5.9426">
        <ele>539.9</ele>
        <time>2021-09-09T10:00:15Z</time>
      </trkpt>
      <trkpt lat="44.19815" lon="5.9426">
        <ele>540</ele>
        <time>2021-09-09T10:00:16Z</time>
      </trkpt>
      <trkpt lat="44.19816" lon="5.9426">
        <ele>540.1</ele>
        <time>2021-09-09T10:00:17Z</time>
      </trkpt>
      <trkpt lat="44.19818" lon="5.9426">
        <ele>540.4</ele>
        <time>2021-09-09T10:00:19Z</time>
      </trkpt>
      <trkpt lat="44.1982" lon="5.9426">
        <ele>540.7</ele>
        <time>2021-09-09T10:00:21Z</time>
      </trkpt>
      <trkpt lat="44.19823" lon="5.9426">
        <ele>541.1</ele>
        <time>2021-09-09T10:00:23Z</time>
      </trkpt>
      <trkpt lat="44.19826" lon="5.94259">
        <ele>541.5</ele>
        <time>2021-09-09T10:00:25Z</time>
      </trkpt>
      <trkpt lat="44.19828" lon="5.94257">
        <ele>541.8</ele>
        <time>2021-09-09T10:00:27Z</time>
      </trkpt>
      <trkpt lat="44.19829" lon="5.94256">
        <ele>541.9</ele>
        <time>2021-09-09T10:00:28Z</time>
      </trkpt>
      <trkpt lat="44.1983" lon="5.94255">
        <ele>542.1</ele>
        <time>2021-09-09T10:00:29Z</time>
      </trkpt>
      <trkpt lat="44.1983" lon="5.94255">
        <ele>542.1</ele>
        <time>2021-09-09T10:00:30Z</time>
      </trkpt>
      <trkpt lat="44.1983" lon="5.94253">
        <ele>542.4</ele>
        <time>2021-09-09T10:00:32Z</time>
      </trkpt>
      <trkpt lat="44.1983" lon="5.94252">
        <ele>542.5</ele>
        <time>2021-09-09T10:00:33Z</time>
      </trkpt>
      <trkpt lat="44.19831" lon="5.9425">
        <ele>542.7</ele>
        <time>2021-09-09T10:00:34Z</time>
      </trkpt>
      <trkpt lat="44.19832" lon="5.94249">
        <ele>542.8</ele>
        <time>2021-09-09T10:00:35Z</time>
      </trkpt>
      <trkpt lat="44.19832" lon="5.94248">
        <ele>542.9</ele>
        <time>2021-09-09T10:00:37Z</time>
      </trkpt>
      <trkpt lat="44.19833" lon="5.94248">
        <ele>543</ele>
        <time>2021-09-09T10:00:38Z</time>
      </trkpt>
      <trkpt lat="44.19838" lon="5.94248">
        <ele>543.7</ele>
        <time>2021-09-09T10:00:39Z</time>
      </trkpt>
      <trkpt lat="44.19843" lon="5.94248">
        <ele>544.2</ele>
        <time>2021-09-09T10:00:47Z</time>
      </trkpt>
      <trkpt lat="44.19847" lon="5.94248">
        <ele>544.8</ele>
        <time>2021-09-09T10:00:48Z</time>
      </trkpt>
      <trkpt lat="44.1985" lon="5.9425">
        <ele>545.1</ele>
        <time>2021-09-09T10:00:49Z</time>
      </trkpt>
      <trkpt lat="44.19855" lon="5.94255">
        <ele>546.2</ele>
        <time>2021-09-09T10:00:51Z</time>
      </trkpt>
      <trkpt lat="44.19856" lon="5.94256">
        <ele>546.2</ele>
        <time>2021-09-09T10:00:52Z</time>
      </trkpt>
      <trkpt lat="44.19856" lon="5.94256">
        <ele>546.2</ele>
        <time>2021-09-09T10:00:54Z</time>
      </trkpt>
      <trkpt lat="44.19856" lon="5.94256">
        <ele>546.2</ele>
        <time>2021-09-09T10:00:55Z</time>
      </trkpt>
      <trkpt lat="44.19856" lon="5.94257">
        <ele>546.2</ele>
        <time>2021-09-09T10:00:56Z</time>
      </trkpt>
      <trkpt lat="44.19858" lon="5.94257">
        <ele>546.3</ele>
        <time>2021-09-09T10:00:58Z</time>
      </trkpt>
      <trkpt lat="44.19858" lon="5.94258">
        <ele>546.3</ele>
        <time>2021-09-09T10:01:00Z</time>
      </trkpt>
      <trkpt lat="44.19827" lon="5.94287">
        <ele>547.1</ele>
        <time>2021-09-09T10:01:26Z</time>
      </trkpt>
      <trkpt lat="44.19826" lon="5.94292">
        <ele>545.6</ele>
        <time>2021-09-09T10:01:28Z</time>
      </trkpt>
      <trkpt lat="44.19828" lon="5.943">
        <ele>546.4</ele>
        <time>2021-09-09T10:01:29Z</time>
      </trkpt>
      <trkpt lat="44.19829" lon="5.94304">
        <ele>546</ele>
        <time>2021-09-09T10:01:30Z</time>
      </trkpt>
      <trkpt lat="44.19831" lon="5.94304">
        <ele>547</ele>
        <time>2021-09-09T10:01:31Z</time>
      </trkpt>
      <trkpt lat="44.19832" lon="5.94303">
        <ele>546.8</ele>
        <time>2021-09-09T10:01:32Z</time>
      </trkpt>
      <trkpt lat="44.19832" lon="5.94306">
        <ele>546.3</ele>
        <time>2021-09-09T10:01:34Z</time>
      </trkpt>
      <trkpt lat="44.19831" lon="5.94306">
        <ele>546.1</ele>
        <time>2021-09-09T10:01:35Z</time>
      </trkpt>
      <trkpt lat="44.19829" lon="5.94307">
        <ele>544.6</ele>
        <time>2021-09-09T10:01:36Z</time>
      </trkpt>
      <trkpt lat="44.19826" lon="5.94305">
        <ele>543.1</ele>
        <time>2021-09-09T10:01:38Z</time>
      </trkpt>
      <trkpt lat="44.19823" lon="5.94303">
        <ele>542</ele>
        <time>2021-09-09T10:01:39Z</time>
      </trkpt>
      <trkpt lat="44.19817" lon="5.94302">
        <ele>539.5</ele>
        <time>2021-09-09T10:01:40Z</time>
      </trkpt>
      <trkpt lat="44.19808" lon="5.94298">
        <ele>537</ele>
        <time>2021-09-09T10:01:42Z</time>
      </trkpt>
      <trkpt lat="44.19801" lon="5.94295">
        <ele>533.4</ele>
        <time>2021-09-09T10:01:43Z</time>
      </trkpt>
      <trkpt lat="44.19794" lon="5.94291">
        <ele>530.6</ele>
        <time>2021-09-09T10:01:44Z</time>
      </trkpt>
      <trkpt lat="44.1979" lon="5.94286">
        <ele>528.5</ele>
        <time>2021-09-09T10:01:45Z</time>
      </trkpt>
      <trkpt lat="44.19785" lon="5.94281">
        <ele>527.3</ele>
        <time>2021-09-09T10:01:46Z</time>
      </trkpt>
      <trkpt lat="44.19781" lon="5.94276">
        <ele>526.1</ele>
        <time>2021-09-09T10:01:48Z</time>
      </trkpt>
      <trkpt lat="44.19778" lon="5.94271">
        <ele>524.9</ele>
        <time>2021-09-09T10:01:49Z</time>
      </trkpt>
      <trkpt lat="44.19777" lon="5.94266">
        <ele>523.8</ele>
        <time>2021-09-09T10:01:50Z</time>
      </trkpt>
      <trkpt lat="44.19777" lon="5.94262">
        <ele>523.6</ele>
        <time>2021-09-09T10:01:51Z</time>
      </trkpt>
      <trkpt lat="44.19778" lon="5.94259">
        <ele>524.2</ele>
        <time>2021-09-09T10:01:52Z</time>
      </trkpt>
      <trkpt lat="44.19781" lon="5.94255">
        <ele>524.9</ele>
        <time>2021-09-09T10:01:54Z</time>
      </trkpt>
      <trkpt lat="44.19786" lon="5.9425">
        <ele>525.6</ele>
        <time>2021-09-09T10:01:55Z</time>
      </trkpt>
      <trkpt lat="44.19791" lon="5.94243">
        <ele>527.3</ele>
        <time>2021-09-09T10:01:56Z</time>
      </trkpt>
      <trkpt lat="44.19796" lon="5.94227">
        <ele>527.8</ele>
        <time>2021-09-09T10:01:57Z</time>
      </trkpt>
      <trkpt lat="44.19797" lon="5.94216">
        <ele>528.9</ele>
        <time>2021-09-09T10:01:59Z</time>
      </trkpt>
      <trkpt lat="44.19796" lon="5.9421">
        <ele>528.6</ele>
        <time>2021-09-09T10:02:00Z</time>
      </trkpt>
      <trkpt lat="44.198" lon="5.94194">
        <ele>529.3</ele>
        <time>2021-09-09T10:02:01Z</time>
      </trkpt>
      <trkpt lat="44.19798" lon="5.94185">
        <ele>528.2</ele>
        <time>2021-09-09T10:02:03Z</time>
      </trkpt>
      <trkpt lat="44.19798" lon="5.94177">
        <ele>528.1</ele>
        <time>2021-09-09T10:02:04Z</time>
      </trkpt>
      <trkpt lat="44.19796" lon="5.94171">
        <ele>528.1</ele>
        <time>2021-09-09T10:02:05Z</time>
      </trkpt>
      <trkpt lat="44.19791" lon="5.94165">
        <ele>525.9</ele>
        <time>2021-09-09T10:02:07Z</time>
      </trkpt>
      <trkpt lat="44.1978" lon="5.94174">
        <ele>524.1</ele>
        <time>2021-09-09T10:02:09Z</time>
      </trkpt>
      <trkpt lat="44.19775" lon="5.94175">
        <ele>523.4</ele>
        <time>2021-09-09T10:02:10Z</time>
      </trkpt>
      <trkpt lat="44.1977" lon="5.94175">
        <ele>522.8</ele>
        <time>2021-09-09T10:02:12Z</time>
      </trkpt>
      <trkpt lat="44.19766" lon="5.94174">
        <ele>522.1</ele>
        <time>2021-09-09T10:02:13Z</time>
      </trkpt>
      <trkpt lat="44.19759" lon="5.94177">
        <ele>521.2</ele>
        <time>2021-09-09T10:02:14Z</time>
      </trkpt>
      <trkpt lat="44.19752" lon="5.9418">
        <ele>520.2</ele>
        <time>2021-09-09T10:02:15Z</time>
      </trkpt>
      <trkpt lat="44.19748" lon="5.94181">
        <ele>519.5</ele>
        <time>2021-09-09T10:02:16Z</time>
      </trkpt>
      <trkpt lat="44.19742" lon="5.94177">
        <ele>519.4</ele>
        <time>2021-09-09T10:02:18Z</time>
      </trkpt>
      <trkpt lat="44.19738" lon="5.94178">
        <ele>519.2</ele>
        <time>2021-09-09T10:02:19Z</time>
      </trkpt>
      <trkpt lat="44.19731" lon="5.94181">
        <ele>518.3</ele>
        <time>2021-09-09T10:02:21Z</time>
      </trkpt>
      <trkpt lat="44.19728" lon="5.94183">
        <ele>517.9</ele>
        <time>2021-09-09T10:02:22Z</time>
      </trkpt>
      <trkpt lat="44.19724" lon="5.94184">
        <ele>517.5</ele>
        <time>2021-09-09T10:02:23Z</time>
      </trkpt>
      <trkpt lat="44.19717" lon="5.94183">
        <ele>516.4</ele>
        <time>2021-09-09T10:02:24Z</time>
      </trkpt>
      <trkpt lat="44.19705" lon="5.94181">
        <ele>514.4</ele>
        <time>2021-09-09T10:02:26Z</time>
      </trkpt>
      <trkpt lat="44.19691" lon="5.94179">
        <ele>512.3</ele>
        <time>2021-09-09T10:02:28Z</time>
      </trkpt>
      <trkpt lat="44.19685" lon="5.94178">
        <ele>511.3</ele>
        <time>2021-09-09T10:02:29Z</time>
      </trkpt>
      <trkpt lat="44.1968" lon="5.94177">
        <ele>510.4</ele>
        <time>2021-09-09T10:02:30Z</time>
      </trkpt>
      <trkpt lat="44.19669" lon="5.94178">
        <ele>508.7</ele>
        <time>2021-09-09T10:02:32Z</time>
      </trkpt>
      <trkpt lat="44.19659" lon="5.94179">
        <ele>507.1</ele>
        <time>2021-09-09T10:02:34Z</time>
      </trkpt>
      <trkpt lat="44.19651" lon="5.94177">
        <ele>505.9</ele>
        <time>2021-09-09T10:02:36Z</time>
      </trkpt>
      <trkpt lat="44.19646" lon="5.94176">
        <ele>505.3</ele>
        <time>2021-09-09T10:02:38Z</time>
      </trkpt>
      <trkpt lat="44.19641" lon="5.94176">
        <ele>505</ele>
        <time>2021-09-09T10:02:39Z</time>
      </trkpt>
      <trkpt lat="44.19637" lon="5.94178">
        <ele>504.8</ele>
        <time>2021-09-09T10:02:40Z</time>
      </trkpt>
      <trkpt lat="44.19633" lon="5.94182">
        <ele>504.4</ele>
        <time>2021-09-09T10:02:42Z</time>
      </trkpt>
      <trkpt lat="44.1963" lon="5.94187">
        <ele>504</ele>
        <time>2021-09-09T10:02:43Z</time>
      </trkpt>
      <trkpt lat="44.19629" lon="5.94191">
        <ele>503.7</ele>
        <time>2021-09-09T10:02:44Z</time>
      </trkpt>
      <trkpt lat="44.19626" lon="5.94197">
        <ele>503.2</ele>
        <time>2021-09-09T10:02:46Z</time>
      </trkpt>
      <trkpt lat="44.19623" lon="5.94202">
        <ele>502.8</ele>
        <time>2021-09-09T10:02:48Z</time>
      </trkpt>
      <trkpt lat="44.19621" lon="5.94206">
        <ele>502.7</ele>
        <time>2021-09-09T10:02:50Z</time>
      </trkpt>
      <trkpt lat="44.19621" lon="5.94207">
        <ele>502.7</ele>
        <time>2021-09-09T10:02:51Z</time>
      </trkpt>
      <trkpt lat="44.19618" lon="5.9421">
        <ele>502.7</ele>
        <time>2021-09-09T10:02:52Z</time>
      </trkpt>
      <trkpt lat="44.19618" lon="5.94209">
        <ele>502.7</ele>
        <time>2021-09-09T10:02:53Z</time>
      </trkpt>
      <trkpt lat="44.19616" lon="5.94207">
        <ele>502.7</ele>
        <time>2021-09-09T10:02:55Z</time>
      </trkpt>
      <trkpt lat="44.19611" lon="5.94207">
        <ele>502.6</ele>
        <time>2021-09-09T10:02:56Z</time>
      </trkpt>
      <trkpt lat="44.19608" lon="5.94207">
        <ele>502.6</ele>
        <time>2021-09-09T10:02:57Z</time>
      </trkpt>
      <trkpt lat="44.19602" lon="5.94207">
        <ele>502.6</ele>
        <time>2021-09-09T10:02:59Z</time>
      </trkpt>
      <trkpt lat="44.19598" lon="5.94205">
        <ele>502.6</ele>
        <time>2021-09-09T10:03:01Z</time>
      </trkpt>
      <trkpt lat="44.19595" lon="5.94202">
        <ele>502.6</ele>
        <time>2021-09-09T10:03:02Z</time>
      </trkpt>
      <trkpt lat="44.19593" lon="5.94201">
        <ele>502.6</ele>
        <time>2021-09-09T10:03:03Z</time>
      </trkpt>
      <trkpt lat="44.19592" lon="5.94199">
        <ele>502.6</ele>
        <time>2021-09-09T10:03:05Z</time>
      </trkpt>
      <trkpt lat="44.19589" lon="5.94198">
        <ele>502.6</ele>
        <time>2021-09-09T10:03:06Z</time>
      </trkpt>
      <trkpt lat="44.19586" lon="5.94196">
        <ele>502.7</ele>
        <time>2021-09-09T10:03:08Z</time>
      </trkpt>
      <trkpt lat="44.19583" lon="5.94195">
        <ele>502.7</ele>
        <time>2021-09-09T10:03:09Z</time>
      </trkpt>
      <trkpt lat="44.1958" lon="5.94193">
        <ele>502.8</ele>
        <time>2021-09-09T10:03:11Z</time>
      </trkpt>
      <trkpt lat="44.19578" lon="5.94193">
        <ele>502.8</ele>
        <time>2021-09-09T10:03:12Z</time>
      </trkpt>
      <trkpt lat="44.19573" lon="5.94193">
        <ele>502.9</ele>
        <time>2021-09-09T10:03:14Z</time>
      </trkpt>
      <trkpt lat="44.19568" lon="5.94195">
        <ele>503.1</ele>
        <time>2021-09-09T10:03:16Z</time>
      </trkpt>
      <trkpt lat="44.19565" lon="5.94191">
        <ele>503.2</ele>
        <time>2021-09-09T10:03:18Z</time>
      </trkpt>
      <trkpt lat="44.19562" lon="5.9419">
        <ele>503.3</ele>
        <time>2021-09-09T10:03:19Z</time>
      </trkpt>
      <trkpt lat="44.19559" lon="5.9419">
        <ele>503.4</ele>
        <time>2021-09-09T10:03:20Z</time>
      </trkpt>
      <trkpt lat="44.19554" lon="5.94188">
        <ele>503.6</ele>
        <time>2021-09-09T10:03:22Z</time>
      </trkpt>
      <trkpt lat="44.19553" lon="5.94188">
        <ele>503.7</ele>
        <time>2021-09-09T10:03:23Z</time>
      </trkpt>
      <trkpt lat="44.19551" lon="5.94187">
        <ele>503.7</ele>
        <time>2021-09-09T10:03:24Z</time>
      </trkpt>
      <trkpt lat="44.19548" lon="5.94184">
        <ele>503.7</ele>
        <time>2021-09-09T10:03:26Z</time>
      </trkpt>
      <trkpt lat="44.19544" lon="5.94181">
        <ele>503.7</ele>
        <time>2021-09-09T10:03:27Z</time>
      </trkpt>
      <trkpt lat="44.19541" lon="5.9418">
        <ele>503.7</ele>
        <time>2021-09-09T10:03:28Z</time>
      </trkpt>
      <trkpt lat="44.19539" lon="5.94177">
        <ele>503.7</ele>
        <time>2021-09-09T10:03:30Z</time>
      </trkpt>
      <trkpt lat="44.19536" lon="5.94175">
        <ele>503.7</ele>
        <time>2021-09-09T10:03:31Z</time>
      </trkpt>
      <trkpt lat="44.19534" lon="5.94173">
        <ele>503.7</ele>
        <time>2021-09-09T10:03:32Z</time>
      </trkpt>
      <trkpt lat="44.19533" lon="5.94172">
        <ele>503.7</ele>
        <time>2021-09-09T10:03:34Z</time>
      </trkpt>
      <trkpt lat="44.19533" lon="5.94172">
        <ele>503.8</ele>
        <time>2021-09-09T10:03:35Z</time>
      </trkpt>
      <trkpt lat="44.19533" lon="5.94172">
        <ele>503.8</ele>
        <time>2021-09-09T10:03:36Z</time>
      </trkpt>
      <trkpt lat="44.19533" lon="5.94172">
        <ele>503.8</ele>
        <time>2021-09-09T10:03:38Z</time>
      </trkpt>
      <trkpt lat="44.19532" lon="5.94172">
        <ele>503.8</ele>
        <time>2021-09-09T10:03:40Z</time>
      </trkpt>
      <trkpt lat="44.19532" lon="5.94172">
        <ele>503.8</ele>
        <time>2021-09-09T10:03:41Z</time>
      </trkpt>
      <trkpt lat="44.19532" lon="5.94172">
        <ele>503.8</ele>
        <time>2021-09-09T10:03:42Z</time>
      </trkpt>
      <trkpt lat="44.19516" lon="5.94212">
        <ele>501</ele>
        <time>2021-09-09T10:06:20Z</time>
      </trkpt>
      <trkpt lat="44.19509" lon="5.94222">
        <ele>500.7</ele>
        <time>2021-09-09T10:06:23Z</time>
      </trkpt>
      <trkpt lat="44.195" lon="5.94223">
        <ele>500.4</ele>
        <time>2021-09-09T10:06:24Z</time>
      </trkpt>
      <trkpt lat="44.19496" lon="5.94224">
        <ele>500.3</ele>
        <time>2021-09-09T10:06:25Z</time>
      </trkpt>
      <trkpt lat="44.19493" lon="5.94223">
        <ele>500.2</ele>
        <time>2021-09-09T10:06:26Z</time>
      </trkpt>
      <trkpt lat="44.19489" lon="5.94223">
        <ele>500.1</ele>
        <time>2021-09-09T10:06:27Z</time>
      </trkpt>
      <trkpt lat="44.1948" lon="5.94227">
        <ele>500</ele>
        <time>2021-09-09T10:06:29Z</time>
      </trkpt>
      <trkpt lat="44.19471" lon="5.94234">
        <ele>499.9</ele>
        <time>2021-09-09T10:06:31Z</time>
      </trkpt>
      <trkpt lat="44.19466" lon="5.94237">
        <ele>499.9</ele>
        <time>2021-09-09T10:06:32Z</time>
      </trkpt>
      <trkpt lat="44.19462" lon="5.9424">
        <ele>499.9</ele>
        <time>2021-09-09T10:06:33Z</time>
      </trkpt>
      <trkpt lat="44.19459" lon="5.94245">
        <ele>499.8</ele>
        <time>2021-09-09T10:06:35Z</time>
      </trkpt>
      <trkpt lat="44.19453" lon="5.94248">
        <ele>499.8</ele>
        <time>2021-09-09T10:06:36Z</time>
      </trkpt>
      <trkpt lat="44.19447" lon="5.9425">
        <ele>499.8</ele>
        <time>2021-09-09T10:06:38Z</time>
      </trkpt>
      <trkpt lat="44.19444" lon="5.94251">
        <ele>499.8</ele>
        <time>2021-09-09T10:06:39Z</time>
      </trkpt>
      <trkpt lat="44.1944" lon="5.94252">
        <ele>499.8</ele>
        <time>2021-09-09T10:06:41Z</time>
      </trkpt>
      <trkpt lat="44.19437" lon="5.94252">
        <ele>499.8</ele>
        <time>2021-09-09T10:06:42Z</time>
      </trkpt>
      <trkpt lat="44.19434" lon="5.94253">
        <ele>499.7</ele>
        <time>2021-09-09T10:06:44Z</time>
      </trkpt>
      <trkpt lat="44.19431" lon="5.94254">
        <ele>499.7</ele>
        <time>2021-09-09T10:06:45Z</time>
      </trkpt>
      <trkpt lat="44.19429" lon="5.94254">
        <ele>499.7</ele>
        <time>2021-09-09T10:06:46Z</time>
      </trkpt>
      <trkpt lat="44.19425" lon="5.94256">
        <ele>499.7</ele>
        <time>2021-09-09T10:06:48Z</time>
      </trkpt>
      <trkpt lat="44.19422" lon="5.94259">
        <ele>499.7</ele>
        <time>2021-09-09T10:06:49Z</time>
      </trkpt>
      <trkpt lat="44.19419" lon="5.94262">
        <ele>499.7</ele>
        <time>2021-09-09T10:06:50Z</time>
      </trkpt>
      <trkpt lat="44.19415" lon="5.94266">
        <ele>499.7</ele>
        <time>2021-09-09T10:06:51Z</time>
      </trkpt>
      <trkpt lat="44.19411" lon="5.94269">
        <ele>499.7</ele>
        <time>2021-09-09T10:06:52Z</time>
      </trkpt>
      <trkpt lat="44.19407" lon="5.94273">
        <ele>499.7</ele>
        <time>2021-09-09T10:06:53Z</time>
      </trkpt>
      <trkpt lat="44.19401" lon="5.94276">
        <ele>499.6</ele>
        <time>2021-09-09T10:06:55Z</time>
      </trkpt>
      <trkpt lat="44.19397" lon="5.94279">
        <ele>499.6</ele>
        <time>2021-09-09T10:06:56Z</time>
      </trkpt>
      <trkpt lat="44.19394" lon="5.94282">
        <ele>499.6</ele>
        <time>2021-09-09T10:06:57Z</time>
      </trkpt>
      <trkpt lat="44.19393" lon="5.94282">
        <ele>499.6</ele>
        <time>2021-09-09T10:06:58Z</time>
      </trkpt>
      <trkpt lat="44.1939" lon="5.94283">
        <ele>499.6</ele>
        <time>2021-09-09T10:07:00Z</time>
      </trkpt>
      <trkpt lat="44.19389" lon="5.94284">
        <ele>499.6</ele>
        <time>2021-09-09T10:07:01Z</time>
      </trkpt>
      <trkpt lat="44.19389" lon="5.94284">
        <ele>499.6</ele>
        <time>2021-09-09T10:07:03Z</time>
      </trkpt>
      <trkpt lat="44.19389" lon="5.94285">
        <ele>499.6</ele>
        <time>2021-09-09T10:07:04Z</time>
      </trkpt>
      <trkpt lat="44.19389" lon="5.94285">
        <ele>499.6</ele>
        <time>2021-09-09T10:07:06Z</time>
      </trkpt>
      <trkpt lat="44.19389" lon="5.94283">
        <ele>499.6</ele>
        <time>2021-09-09T10:07:07Z</time>
      </trkpt>
      <trkpt lat="44.19388" lon="5.94283">
        <ele>499.6</ele>
        <time>2021-09-09T10:07:09Z</time>
      </trkpt>
      <trkpt lat="44.19388" lon="5.94283">
        <ele>499.6</ele>
        <time>2021-09-09T10:07:10Z</time>
      </trkpt>
      <trkpt lat="44.19387" lon="5.94283">
        <ele>499.6</ele>
        <time>2021-09-09T10:07:12Z</time>
      </trkpt>
      <trkpt lat="44.19382" lon="5.94278">
        <ele>499.6</ele>
        <time>2021-09-09T10:07:21Z</time>
      </trkpt>
      <trkpt lat="44.19382" lon="5.94278">
        <ele>499.6</ele>
        <time>2021-09-09T10:07:26Z</time>
      </trkpt>
      <trkpt lat="44.19381" lon="5.94277">
        <ele>499.6</ele>
        <time>2021-09-09T10:07:27Z</time>
      </trkpt>
      <trkpt lat="44.1938" lon="5.94277">
        <ele>499.6</ele>
        <time>2021-09-09T10:07:29Z</time>
      </trkpt>
      <trkpt lat="44.1938" lon="5.94277">
        <ele>499.6</ele>
        <time>2021-09-09T10:07:30Z</time>
      </trkpt>
      <trkpt lat="44.1938" lon="5.94277">
        <ele>499.6</ele>
        <time>2021-09-09T10:07:32Z</time>
      </trkpt>
      <trkpt lat="44.19379" lon="5.94277">
        <ele>499.6</ele>
        <time>2021-09-09T10:07:33Z</time>
      </trkpt>
      <trkpt lat="44.19379" lon="5.94277">
        <ele>499.6</ele>
        <time>2021-09-09T10:07:34Z</time>
      </trkpt>
      <trkpt lat="44.19379" lon="5.94277">
        <ele>499.6</ele>
        <time>2021-09-09T10:07:36Z</time>
      </trkpt>
      <trkpt lat="44.19379" lon="5.94278">
        <ele>499.6</ele>
        <time>2021-09-09T10:07:38Z</time>
      </trkpt>
      <trkpt lat="44.19379" lon="5.94278">
        <ele>499.6</ele>
        <time>2021-09-09T10:07:39Z</time>
      </trkpt>
      <trkpt lat="44.1938" lon="5.94278">
        <ele>499.6</ele>
        <time>2021-09-09T10:07:40Z</time>
      </trkpt>
      <trkpt lat="44.1938" lon="5.94279">
        <ele>499.6</ele>
        <time>2021-09-09T10:07:41Z</time>
      </trkpt>
      <trkpt lat="44.19381" lon="5.94279">
        <ele>499.6</ele>
        <time>2021-09-09T10:07:43Z</time>
      </trkpt>
      <trkpt lat="44.19382" lon="5.9428">
        <ele>499.6</ele>
        <time>2021-09-09T10:07:45Z</time>
      </trkpt>
      <trkpt lat="44.19382" lon="5.9428">
        <ele>499.6</ele>
        <time>2021-09-09T10:07:46Z</time>
      </trkpt>
      <trkpt lat="44.19383" lon="5.9428">
        <ele>499.6</ele>
        <time>2021-09-09T10:07:47Z</time>
      </trkpt>
      <trkpt lat="44.19383" lon="5.9428">
        <ele>499.6</ele>
        <time>2021-09-09T10:07:48Z</time>
      </trkpt>
      <trkpt lat="44.19384" lon="5.94281">
        <ele>499.6</ele>
        <time>2021-09-09T10:07:49Z</time>
      </trkpt>
      <trkpt lat="44.19384" lon="5.94281">
        <ele>499.6</ele>
        <time>2021-09-09T10:07:51Z</time>
      </trkpt>
      <trkpt lat="44.19385" lon="5.94281">
        <ele>499.6</ele>
        <time>2021-09-09T10:07:52Z</time>
      </trkpt>
      <trkpt lat="44.19385" lon="5.94281">
        <ele>499.6</ele>
        <time>2021-09-09T10:07:54Z</time>
      </trkpt>
      <trkpt lat="44.19386" lon="5.94281">
        <ele>499.6</ele>
        <time>2021-09-09T10:07:56Z</time>
      </trkpt>
      <trkpt lat="44.19387" lon="5.94281">
        <ele>499.6</ele>
        <time>2021-09-09T10:07:57Z</time>
      </trkpt>
      <trkpt lat="44.19387" lon="5.94282">
        <ele>499.6</ele>
        <time>2021-09-09T10:07:58Z</time>
      </trkpt>
      <trkpt lat="44.19388" lon="5.94281">
        <ele>499.6</ele>
        <time>2021-09-09T10:07:59Z</time>
      </trkpt>
      <trkpt lat="44.19388" lon="5.94281">
        <ele>499.6</ele>
        <time>2021-09-09T10:08:01Z</time>
      </trkpt>
      <trkpt lat="44.19388" lon="5.94281">
        <ele>499.6</ele>
        <time>2021-09-09T10:08:02Z</time>
      </trkpt>
      <trkpt lat="44.19388" lon="5.94282">
        <ele>499.6</ele>
        <time>2021-09-09T10:08:03Z</time>
      </trkpt>
      <trkpt lat="44.19388" lon="5.94282">
        <ele>499.6</ele>
        <time>2021-09-09T10:08:04Z</time>
      </trkpt>
      <trkpt lat="44.19387" lon="5.94282">
        <ele>499.6</ele>
        <time>2021-09-09T10:08:06Z</time>
      </trkpt>
      <trkpt lat="44.19387" lon="5.94282">
        <ele>499.6</ele>
        <time>2021-09-09T10:08:07Z</time>
      </trkpt>
      <trkpt lat="44.19387" lon="5.94283">
        <ele>499.6</ele>
        <time>2021-09-09T10:08:09Z</time>
      </trkpt>
      <trkpt lat="44.19387" lon="5.94283">
        <ele>499.6</ele>
        <time>2021-09-09T10:08:11Z</time>
      </trkpt>
      <trkpt lat="44.19387" lon="5.94284">
        <ele>499.6</ele>
        <time>2021-09-09T10:08:12Z</time>
      </trkpt>
      <trkpt lat="44.19387" lon="5.94283">
        <ele>499.6</ele>
        <time>2021-09-09T10:08:14Z</time>
      </trkpt>
      <trkpt lat="44.19387" lon="5.94284">
        <ele>499.6</ele>
        <time>2021-09-09T10:08:15Z</time>
      </trkpt>
      <trkpt lat="44.19387" lon="5.94284">
        <ele>499.6</ele>
        <time>2021-09-09T10:08:17Z</time>
      </trkpt>
      <trkpt lat="44.19387" lon="5.94284">
        <ele>499.6</ele>
        <time>2021-09-09T10:08:19Z</time>
      </trkpt>
      <trkpt lat="44.19387" lon="5.94284">
        <ele>499.6</ele>
        <time>2021-09-09T10:08:21Z</time>
      </trkpt>
      <trkpt lat="44.19387" lon="5.94284">
        <ele>499.6</ele>
        <time>2021-09-09T10:08:22Z</time>
      </trkpt>
      <trkpt lat="44.19387" lon="5.94284">
        <ele>499.6</ele>
        <time>2021-09-09T10:08:23Z</time>
      </trkpt>
      <trkpt lat="44.19387" lon="5.94284">
        <ele>499.6</ele>
        <time>2021-09-09T10:08:25Z</time>
      </trkpt>
      <trkpt lat="44.19387" lon="5.94284">
        <ele>499.6</ele>
        <time>2021-09-09T10:08:26Z</time>
      </trkpt>
      <trkpt lat="44.19387" lon="5.94284">
        <ele>499.6</ele>
        <time>2021-09-09T10:08:27Z</time>
      </trkpt>
      <trkpt lat="44.19387" lon="5.94284">
        <ele>499.6</ele>
        <time>2021-09-09T10:08:28Z</time>
      </trkpt>
      <trkpt lat="44.19388" lon="5.94285">
        <ele>499.6</ele>
        <time>2021-09-09T10:08:30Z</time>
      </trkpt>
      <trkpt lat="44.19389" lon="5.94286">
        <ele>499.6</ele>
        <time>2021-09-09T10:08:31Z</time>
      </trkpt>
      <trkpt lat="44.19389" lon="5.94286">
        <ele>499.6</ele>
        <time>2021-09-09T10:08:32Z</time>
      </trkpt>
      <trkpt lat="44.19389" lon="5.94286">
        <ele>499.6</ele>
        <time>2021-09-09T10:08:33Z</time>
      </trkpt>
      <trkpt lat="44.19385" lon="5.94283">
        <ele>499.6</ele>
        <time>2021-09-09T10:08:35Z</time>
      </trkpt>
      <trkpt lat="44.19382" lon="5.94283">
        <ele>499.6</ele>
        <time>2021-09-09T10:08:36Z</time>
      </trkpt>
      <trkpt lat="44.1938" lon="5.94282">
        <ele>499.6</ele>
        <time>2021-09-09T10:08:38Z</time>
      </trkpt>
      <trkpt lat="44.19379" lon="5.94282">
        <ele>499.6</ele>
        <time>2021-09-09T10:08:39Z</time>
      </trkpt>
      <trkpt lat="44.19379" lon="5.94282">
        <ele>499.6</ele>
        <time>2021-09-09T10:08:41Z</time>
      </trkpt>
      <trkpt lat="44.19379" lon="5.94282">
        <ele>499.6</ele>
        <time>2021-09-09T10:08:43Z</time>
      </trkpt>
      <trkpt lat="44.19379" lon="5.94282">
        <ele>499.6</ele>
        <time>2021-09-09T10:08:45Z</time>
      </trkpt>
      <trkpt lat="44.19379" lon="5.94282">
        <ele>499.6</ele>
        <time>2021-09-09T10:08:46Z</time>
      </trkpt>
      <trkpt lat="44.19379" lon="5.94282">
        <ele>499.6</ele>
        <time>2021-09-09T10:08:48Z</time>
      </trkpt>
      <trkpt lat="44.19379" lon="5.94282">
        <ele>499.6</ele>
        <time>2021-09-09T10:08:50Z</time>
      </trkpt>
      <trkpt lat="44.19379" lon="5.94282">
        <ele>499.6</ele>
        <time>2021-09-09T10:08:52Z</time>
      </trkpt>
      <trkpt lat="44.19379" lon="5.94282">
        <ele>499.6</ele>
        <time>2021-09-09T10:08:53Z</time>
      </trkpt>
      <trkpt lat="44.19379" lon="5.94282">
        <ele>499.6</ele>
        <time>2021-09-09T10:08:54Z</time>
      </trkpt>
      <trkpt lat="44.19379" lon="5.94282">
        <ele>499.6</ele>
        <time>2021-09-09T10:08:56Z</time>
      </trkpt>
      <trkpt lat="44.19379" lon="5.94282">
        <ele>499.6</ele>
        <time>2021-09-09T10:08:58Z</time>
      </trkpt>
      <trkpt lat="44.19379" lon="5.94282">
        <ele>499.6</ele>
        <time>2021-09-09T10:08:59Z</time>
      </trkpt>
      <trkpt lat="44.19379" lon="5.94282">
        <ele>499.6</ele>
        <time>2021-09-09T10:09:00Z</time>
      </trkpt>
      <trkpt lat="44.19379" lon="5.94282">
        <ele>499.6</ele>
        <time>2021-09-09T10:09:02Z</time>
      </trkpt>
      <trkpt lat="44.19378" lon="5.94277">
        <ele>499.6</ele>
        <time>2021-09-09T10:09:04Z</time>
      </trkpt>
      <trkpt lat="44.19377" lon="5.94271">
        <ele>499.6</ele>
        <time>2021-09-09T10:09:05Z</time>
      </trkpt>
      <trkpt lat="44.19377" lon="5.94269">
        <ele>499.6</ele>
        <time>2021-09-09T10:09:06Z</time>
      </trkpt>
      <trkpt lat="44.19377" lon="5.94269">
        <ele>499.6</ele>
        <time>2021-09-09T10:09:08Z</time>
      </trkpt>
      <trkpt lat="44.19377" lon="5.94268">
        <ele>499.6</ele>
        <time>2021-09-09T10:09:09Z</time>
      </trkpt>
      <trkpt lat="44.19377" lon="5.94269">
        <ele>499.6</ele>
        <time>2021-09-09T10:09:11Z</time>
      </trkpt>
      <trkpt lat="44.19378" lon="5.94269">
        <ele>499.6</ele>
        <time>2021-09-09T10:09:12Z</time>
      </trkpt>
      <trkpt lat="44.19378" lon="5.9427">
        <ele>499.6</ele>
        <time>2021-09-09T10:09:13Z</time>
      </trkpt>
      <trkpt lat="44.19378" lon="5.9427">
        <ele>499.6</ele>
        <time>2021-09-09T10:09:14Z</time>
      </trkpt>
      <trkpt lat="44.19378" lon="5.9427">
        <ele>499.6</ele>
        <time>2021-09-09T10:09:15Z</time>
      </trkpt>
      <trkpt lat="44.19378" lon="5.9427">
        <ele>499.6</ele>
        <time>2021-09-09T10:09:16Z</time>
      </trkpt>
      <trkpt lat="44.19378" lon="5.9427">
        <ele>499.6</ele>
        <time>2021-09-09T10:09:18Z</time>
      </trkpt>
      <trkpt lat="44.19378" lon="5.9427">
        <ele>499.6</ele>
        <time>2021-09-09T10:09:19Z</time>
      </trkpt>
      <trkpt lat="44.19379" lon="5.94271">
        <ele>499.6</ele>
        <time>2021-09-09T10:09:21Z</time>
      </trkpt>
      <trkpt lat="44.1938" lon="5.94272">
        <ele>499.6</ele>
        <time>2021-09-09T10:09:23Z</time>
      </trkpt>
      <trkpt lat="44.1938" lon="5.94272">
        <ele>499.6</ele>
        <time>2021-09-09T10:09:24Z</time>
      </trkpt>
      <trkpt lat="44.1938" lon="5.94273">
        <ele>499.6</ele>
        <time>2021-09-09T10:09:25Z</time>
      </trkpt>
      <trkpt lat="44.19381" lon="5.94273">
        <ele>499.6</ele>
        <time>2021-09-09T10:09:27Z</time>
      </trkpt>
      <trkpt lat="44.19381" lon="5.94273">
        <ele>499.6</ele>
        <time>2021-09-09T10:09:28Z</time>
      </trkpt>
      <trkpt lat="44.19381" lon="5.94273">
        <ele>499.6</ele>
        <time>2021-09-09T10:09:29Z</time>
      </trkpt>
      <trkpt lat="44.19382" lon="5.94274">
        <ele>499.6</ele>
        <time>2021-09-09T10:09:31Z</time>
      </trkpt>
      <trkpt lat="44.19382" lon="5.94274">
        <ele>499.6</ele>
        <time>2021-09-09T10:09:32Z</time>
      </trkpt>
      <trkpt lat="44.19382" lon="5.94274">
        <ele>499.6</ele>
        <time>2021-09-09T10:09:33Z</time>
      </trkpt>
      <trkpt lat="44.19382" lon="5.94274">
        <ele>499.6</ele>
        <time>2021-09-09T10:09:34Z</time>
      </trkpt>
      <trkpt lat="44.19383" lon="5.94275">
        <ele>499.6</ele>
        <time>2021-09-09T10:09:36Z</time>
      </trkpt>
      <trkpt lat="44.19383" lon="5.94276">
        <ele>499.6</ele>
        <time>2021-09-09T10:09:37Z</time>
      </trkpt>
      <trkpt lat="44.19384" lon="5.94276">
        <ele>499.6</ele>
        <time>2021-09-09T10:09:38Z</time>
      </trkpt>
      <trkpt lat="44.19384" lon="5.94277">
        <ele>499.6</ele>
        <time>2021-09-09T10:09:40Z</time>
      </trkpt>
      <trkpt lat="44.19384" lon="5.94278">
        <ele>499.6</ele>
        <time>2021-09-09T10:09:41Z</time>
      </trkpt>
      <trkpt lat="44.19384" lon="5.94278">
        <ele>499.6</ele>
        <time>2021-09-09T10:09:42Z</time>
      </trkpt>
      <trkpt lat="44.19385" lon="5.94278">
        <ele>499.6</ele>
        <time>2021-09-09T10:09:44Z</time>
      </trkpt>
      <trkpt lat="44.19385" lon="5.94277">
        <ele>499.6</ele>
        <time>2021-09-09T10:09:46Z</time>
      </trkpt>
      <trkpt lat="44.19385" lon="5.94276">
        <ele>499.6</ele>
        <time>2021-09-09T10:09:47Z</time>
      </trkpt>
      <trkpt lat="44.19385" lon="5.94275">
        <ele>499.6</ele>
        <time>2021-09-09T10:09:49Z</time>
      </trkpt>
      <trkpt lat="44.19385" lon="5.94275">
        <ele>499.6</ele>
        <time>2021-09-09T10:09:51Z</time>
      </trkpt>
      <trkpt lat="44.19385" lon="5.94274">
        <ele>499.6</ele>
        <time>2021-09-09T10:09:52Z</time>
      </trkpt>
      <trkpt lat="44.19385" lon="5.94274">
        <ele>499.6</ele>
        <time>2021-09-09T10:09:54Z</time>
      </trkpt>
      <trkpt lat="44.19385" lon="5.94274">
        <ele>499.6</ele>
        <time>2021-09-09T10:09:56Z</time>
      </trkpt>
      <trkpt lat="44.19386" lon="5.94274">
        <ele>499.6</ele>
        <time>2021-09-09T10:09:57Z</time>
      </trkpt>
      <trkpt lat="44.19386" lon="5.94273">
        <ele>499.6</ele>
        <time>2021-09-09T10:09:59Z</time>
      </trkpt>
      <trkpt lat="44.19386" lon="5.94273">
        <ele>499.6</ele>
        <time>2021-09-09T10:10:00Z</time>
      </trkpt>
      <trkpt lat="44.19386" lon="5.94273">
        <ele>499.6</ele>
        <time>2021-09-09T10:10:02Z</time>
      </trkpt>
      <trkpt lat="44.19386" lon="5.94273">
        <ele>499.6</ele>
        <time>2021-09-09T10:10:03Z</time>
      </trkpt>
      <trkpt lat="44.19386" lon="5.94273">
        <ele>499.6</ele>
        <time>2021-09-09T10:10:05Z</time>
      </trkpt>
      <trkpt lat="44.19386" lon="5.94273">
        <ele>499.6</ele>
        <time>2021-09-09T10:10:06Z</time>
      </trkpt>
      <trkpt lat="44.19386" lon="5.94273">
        <ele>499.6</ele>
        <time>2021-09-09T10:10:08Z</time>
      </trkpt>
      <trkpt lat="44.19386" lon="5.94273">
        <ele>499.6</ele>
        <time>2021-09-09T10:10:10Z</time>
      </trkpt>
      <trkpt lat="44.19386" lon="5.94273">
        <ele>499.6</ele>
        <time>2021-09-09T10:10:11Z</time>
      </trkpt>
      <trkpt lat="44.19386" lon="5.94273">
        <ele>499.6</ele>
        <time>2021-09-09T10:10:12Z</time>
      </trkpt>
      <trkpt lat="44.19386" lon="5.94273">
        <ele>499.6</ele>
        <time>2021-09-09T10:10:13Z</time>
      </trkpt>
      <trkpt lat="44.19386" lon="5.94273">
        <ele>499.6</ele>
        <time>2021-09-09T10:10:15Z</time>
      </trkpt>
      <trkpt lat="44.19386" lon="5.94272">
        <ele>499.6</ele>
        <time>2021-09-09T10:10:17Z</time>
      </trkpt>
      <trkpt lat="44.19386" lon="5.94272">
        <ele>499.6</ele>
        <time>2021-09-09T10:10:18Z</time>
      </trkpt>
      <trkpt lat="44.19384" lon="5.94272">
        <ele>499.6</ele>
        <time>2021-09-09T10:10:24Z</time>
      </trkpt>
      <trkpt lat="44.19383" lon="5.94273">
        <ele>499.6</ele>
        <time>2021-09-09T10:10:30Z</time>
      </trkpt>
      <trkpt lat="44.19386" lon="5.94272">
        <ele>499.6</ele>
        <time>2021-09-09T10:10:36Z</time>
      </trkpt>
      <trkpt lat="44.19386" lon="5.94272">
        <ele>499.6</ele>
        <time>2021-09-09T10:10:37Z</time>
      </trkpt>
      <trkpt lat="44.19385" lon="5.94273">
        <ele>499.6</ele>
        <time>2021-09-09T10:10:39Z</time>
      </trkpt>
      <trkpt lat="44.19385" lon="5.94273">
        <ele>499.6</ele>
        <time>2021-09-09T10:10:40Z</time>
      </trkpt>
      <trkpt lat="44.19384" lon="5.94273">
        <ele>499.6</ele>
        <time>2021-09-09T10:10:42Z</time>
      </trkpt>
      <trkpt lat="44.19384" lon="5.94273">
        <ele>499.6</ele>
        <time>2021-09-09T10:10:43Z</time>
      </trkpt>
      <trkpt lat="44.19384" lon="5.94273">
        <ele>499.6</ele>
        <time>2021-09-09T10:10:45Z</time>
      </trkpt>
      <trkpt lat="44.19385" lon="5.94273">
        <ele>499.6</ele>
        <time>2021-09-09T10:10:47Z</time>
      </trkpt>
      <trkpt lat="44.19385" lon="5.94272">
        <ele>499.6</ele>
        <time>2021-09-09T10:10:49Z</time>
      </trkpt>
      <trkpt lat="44.19386" lon="5.94272">
        <ele>499.6</ele>
        <time>2021-09-09T10:10:51Z</time>
      </trkpt>
      <trkpt lat="44.19387" lon="5.94272">
        <ele>499.6</ele>
        <time>2021-09-09T10:10:52Z</time>
      </trkpt>
      <trkpt lat="44.19388" lon="5.94272">
        <ele>499.6</ele>
        <time>2021-09-09T10:10:53Z</time>
      </trkpt>
      <trkpt lat="44.19389" lon="5.94272">
        <ele>499.6</ele>
        <time>2021-09-09T10:10:55Z</time>
      </trkpt>
      <trkpt lat="44.19391" lon="5.94272">
        <ele>499.6</ele>
        <time>2021-09-09T10:10:57Z</time>
      </trkpt>
      <trkpt lat="44.19391" lon="5.94272">
        <ele>499.6</ele>
        <time>2021-09-09T10:10:58Z</time>
      </trkpt>
      <trkpt lat="44.19392" lon="5.94272">
        <ele>499.6</ele>
        <time>2021-09-09T10:11:00Z</time>
      </trkpt>
      <trkpt lat="44.19393" lon="5.94272">
        <ele>499.6</ele>
        <time>2021-09-09T10:11:01Z</time>
      </trkpt>
      <trkpt lat="44.19393" lon="5.94272">
        <ele>499.6</ele>
        <time>2021-09-09T10:11:02Z</time>
      </trkpt>
      <trkpt lat="44.19393" lon="5.94273">
        <ele>499.6</ele>
        <time>2021-09-09T10:11:03Z</time>
      </trkpt>
      <trkpt lat="44.19393" lon="5.94274">
        <ele>499.6</ele>
        <time>2021-09-09T10:11:05Z</time>
      </trkpt>
      <trkpt lat="44.19393" lon="5.94274">
        <ele>499.6</ele>
        <time>2021-09-09T10:11:06Z</time>
      </trkpt>
      <trkpt lat="44.19393" lon="5.94274">
        <ele>499.6</ele>
        <time>2021-09-09T10:11:07Z</time>
      </trkpt>
      <trkpt lat="44.19393" lon="5.94275">
        <ele>499.6</ele>
        <time>2021-09-09T10:11:09Z</time>
      </trkpt>
      <trkpt lat="44.19393" lon="5.94275">
        <ele>499.6</ele>
        <time>2021-09-09T10:11:10Z</time>
      </trkpt>
      <trkpt lat="44.19392" lon="5.94275">
        <ele>499.6</ele>
        <time>2021-09-09T10:11:12Z</time>
      </trkpt>
      <trkpt lat="44.19392" lon="5.94275">
        <ele>499.6</ele>
        <time>2021-09-09T10:11:13Z</time>
      </trkpt>
      <trkpt lat="44.19392" lon="5.94275">
        <ele>499.6</ele>
        <time>2021-09-09T10:11:14Z</time>
      </trkpt>
      <trkpt lat="44.19392" lon="5.94275">
        <ele>499.6</ele>
        <time>2021-09-09T10:11:16Z</time>
      </trkpt>
      <trkpt lat="44.19392" lon="5.94275">
        <ele>499.6</ele>
        <time>2021-09-09T10:11:17Z</time>
      </trkpt>
      <trkpt lat="44.19392" lon="5.94275">
        <ele>499.6</ele>
        <time>2021-09-09T10:11:18Z</time>
      </trkpt>
      <trkpt lat="44.19392" lon="5.94275">
        <ele>499.6</ele>
        <time>2021-09-09T10:11:20Z</time>
      </trkpt>
      <trkpt lat="44.19392" lon="5.94275">
        <ele>499.6</ele>
        <time>2021-09-09T10:11:21Z</time>
      </trkpt>
      <trkpt lat="44.19392" lon="5.94274">
        <ele>499.6</ele>
        <time>2021-09-09T10:11:23Z</time>
      </trkpt>
      <trkpt lat="44.19391" lon="5.94274">
        <ele>499.6</ele>
        <time>2021-09-09T10:11:24Z</time>
      </trkpt>
      <trkpt lat="44.19391" lon="5.94274">
        <ele>499.6</ele>
        <time>2021-09-09T10:11:26Z</time>
      </trkpt>
      <trkpt lat="44.1939" lon="5.94274">
        <ele>499.6</ele>
        <time>2021-09-09T10:11:27Z</time>
      </trkpt>
      <trkpt lat="44.1939" lon="5.94274">
        <ele>499.6</ele>
        <time>2021-09-09T10:11:29Z</time>
      </trkpt>
      <trkpt lat="44.19389" lon="5.94274">
        <ele>499.6</ele>
        <time>2021-09-09T10:11:30Z</time>
      </trkpt>
      <trkpt lat="44.19388" lon="5.94274">
        <ele>499.6</ele>
        <time>2021-09-09T10:11:31Z</time>
      </trkpt>
      <trkpt lat="44.19388" lon="5.94274">
        <ele>499.6</ele>
        <time>2021-09-09T10:11:32Z</time>
      </trkpt>
      <trkpt lat="44.19387" lon="5.94274">
        <ele>499.6</ele>
        <time>2021-09-09T10:11:34Z</time>
      </trkpt>
      <trkpt lat="44.19387" lon="5.94274">
        <ele>499.6</ele>
        <time>2021-09-09T10:11:35Z</time>
      </trkpt>
      <trkpt lat="44.19384" lon="5.94275">
        <ele>499.6</ele>
        <time>2021-09-09T10:11:37Z</time>
      </trkpt>
      <trkpt lat="44.19384" lon="5.94275">
        <ele>499.6</ele>
        <time>2021-09-09T10:11:38Z</time>
      </trkpt>
      <trkpt lat="44.19383" lon="5.94276">
        <ele>499.6</ele>
        <time>2021-09-09T10:11:40Z</time>
      </trkpt>
      <trkpt lat="44.19383" lon="5.94276">
        <ele>499.6</ele>
        <time>2021-09-09T10:11:42Z</time>
      </trkpt>
      <trkpt lat="44.19381" lon="5.94277">
        <ele>499.6</ele>
        <time>2021-09-09T10:11:43Z</time>
      </trkpt>
      <trkpt lat="44.1938" lon="5.94277">
        <ele>499.6</ele>
        <time>2021-09-09T10:11:45Z</time>
      </trkpt>
      <trkpt lat="44.1938" lon="5.94277">
        <ele>499.6</ele>
        <time>2021-09-09T10:11:46Z</time>
      </trkpt>
      <trkpt lat="44.1938" lon="5.94278">
        <ele>499.6</ele>
        <time>2021-09-09T10:11:47Z</time>
      </trkpt>
      <trkpt lat="44.1938" lon="5.94278">
        <ele>499.6</ele>
        <time>2021-09-09T10:11:49Z</time>
      </trkpt>
      <trkpt lat="44.1938" lon="5.94278">
        <ele>499.6</ele>
        <time>2021-09-09T10:11:50Z</time>
      </trkpt>
      <trkpt lat="44.1938" lon="5.94279">
        <ele>499.6</ele>
        <time>2021-09-09T10:11:51Z</time>
      </trkpt>
      <trkpt lat="44.1938" lon="5.9428">
        <ele>499.6</ele>
        <time>2021-09-09T10:11:53Z</time>
      </trkpt>
      <trkpt lat="44.1938" lon="5.9428">
        <ele>499.6</ele>
        <time>2021-09-09T10:11:55Z</time>
      </trkpt>
      <trkpt lat="44.19381" lon="5.9428">
        <ele>499.6</ele>
        <time>2021-09-09T10:11:56Z</time>
      </trkpt>
      <trkpt lat="44.19381" lon="5.9428">
        <ele>499.6</ele>
        <time>2021-09-09T10:11:58Z</time>
      </trkpt>
      <trkpt lat="44.19381" lon="5.9428">
        <ele>499.6</ele>
        <time>2021-09-09T10:11:59Z</time>
      </trkpt>
      <trkpt lat="44.19381" lon="5.9428">
        <ele>499.6</ele>
        <time>2021-09-09T10:12:00Z</time>
      </trkpt>
      <trkpt lat="44.19382" lon="5.9428">
        <ele>499.6</ele>
        <time>2021-09-09T10:12:01Z</time>
      </trkpt>
      <trkpt lat="44.19382" lon="5.94278">
        <ele>499.6</ele>
        <time>2021-09-09T10:12:03Z</time>
      </trkpt>
      <trkpt lat="44.19382" lon="5.94277">
        <ele>499.6</ele>
        <time>2021-09-09T10:12:05Z</time>
      </trkpt>
      <trkpt lat="44.19382" lon="5.94277">
        <ele>499.6</ele>
        <time>2021-09-09T10:12:07Z</time>
      </trkpt>
      <trkpt lat="44.19382" lon="5.94276">
        <ele>499.6</ele>
        <time>2021-09-09T10:12:09Z</time>
      </trkpt>
      <trkpt lat="44.19382" lon="5.94275">
        <ele>499.6</ele>
        <time>2021-09-09T10:12:10Z</time>
      </trkpt>
      <trkpt lat="44.19383" lon="5.94275">
        <ele>499.6</ele>
        <time>2021-09-09T10:12:12Z</time>
      </trkpt>
      <trkpt lat="44.19383" lon="5.94274">
        <ele>499.6</ele>
        <time>2021-09-09T10:12:13Z</time>
      </trkpt>
      <trkpt lat="44.19383" lon="5.94274">
        <ele>499.6</ele>
        <time>2021-09-09T10:12:15Z</time>
      </trkpt>
      <trkpt lat="44.19383" lon="5.94273">
        <ele>499.6</ele>
        <time>2021-09-09T10:12:16Z</time>
      </trkpt>
      <trkpt lat="44.19383" lon="5.94273">
        <ele>499.6</ele>
        <time>2021-09-09T10:12:17Z</time>
      </trkpt>
      <trkpt lat="44.19382" lon="5.94271">
        <ele>499.6</ele>
        <time>2021-09-09T10:12:19Z</time>
      </trkpt>
      <trkpt lat="44.19382" lon="5.9427">
        <ele>499.6</ele>
        <time>2021-09-09T10:12:21Z</time>
      </trkpt>
      <trkpt lat="44.19382" lon="5.9427">
        <ele>499.6</ele>
        <time>2021-09-09T10:12:22Z</time>
      </trkpt>
      <trkpt lat="44.19382" lon="5.9427">
        <ele>499.6</ele>
        <time>2021-09-09T10:12:24Z</time>
      </trkpt>
      <trkpt lat="44.19382" lon="5.9427">
        <ele>499.6</ele>
        <time>2021-09-09T10:12:26Z</time>
      </trkpt>
      <trkpt lat="44.19382" lon="5.9427">
        <ele>499.6</ele>
        <time>2021-09-09T10:12:28Z</time>
      </trkpt>
      <trkpt lat="44.19382" lon="5.9427">
        <ele>499.6</ele>
        <time>2021-09-09T10:12:29Z</time>
      </trkpt>
      <trkpt lat="44.19383" lon="5.94272">
        <ele>499.6</ele>
        <time>2021-09-09T10:12:31Z</time>
      </trkpt>
      <trkpt lat="44.19383" lon="5.94272">
        <ele>499.6</ele>
        <time>2021-09-09T10:12:33Z</time>
      </trkpt>
      <trkpt lat="44.19384" lon="5.94272">
        <ele>499.6</ele>
        <time>2021-09-09T10:12:34Z</time>
      </trkpt>
      <trkpt lat="44.19384" lon="5.94272">
        <ele>499.6</ele>
        <time>2021-09-09T10:12:35Z</time>
      </trkpt>
      <trkpt lat="44.19384" lon="5.94272">
        <ele>499.6</ele>
        <time>2021-09-09T10:12:37Z</time>
      </trkpt>
      <trkpt lat="44.19385" lon="5.94272">
        <ele>499.6</ele>
        <time>2021-09-09T10:12:38Z</time>
      </trkpt>
      <trkpt lat="44.19385" lon="5.94272">
        <ele>499.6</ele>
        <time>2021-09-09T10:12:40Z</time>
      </trkpt>
      <trkpt lat="44.19385" lon="5.94272">
        <ele>499.6</ele>
        <time>2021-09-09T10:12:42Z</time>
      </trkpt>
      <trkpt lat="44.19384" lon="5.94272">
        <ele>499.6</ele>
        <time>2021-09-09T10:12:43Z</time>
      </trkpt>
      <trkpt lat="44.19384" lon="5.94273">
        <ele>499.6</ele>
        <time>2021-09-09T10:12:44Z</time>
      </trkpt>
      <trkpt lat="44.19384" lon="5.94273">
        <ele>499.6</ele>
        <time>2021-09-09T10:12:46Z</time>
      </trkpt>
      <trkpt lat="44.19384" lon="5.94273">
        <ele>499.6</ele>
        <time>2021-09-09T10:12:48Z</time>
      </trkpt>
      <trkpt lat="44.19384" lon="5.94273">
        <ele>499.6</ele>
        <time>2021-09-09T10:12:49Z</time>
      </trkpt>
      <trkpt lat="44.19384" lon="5.94273">
        <ele>499.6</ele>
        <time>2021-09-09T10:12:50Z</time>
      </trkpt>
      <trkpt lat="44.19384" lon="5.94273">
        <ele>499.6</ele>
        <time>2021-09-09T10:12:52Z</time>
      </trkpt>
      <trkpt lat="44.19384" lon="5.94273">
        <ele>499.6</ele>
        <time>2021-09-09T10:12:54Z</time>
      </trkpt>
      <trkpt lat="44.19384" lon="5.94274">
        <ele>499.6</ele>
        <time>2021-09-09T10:12:56Z</time>
      </trkpt>
      <trkpt lat="44.19384" lon="5.94274">
        <ele>499.6</ele>
        <time>2021-09-09T10:12:58Z</time>
      </trkpt>
      <trkpt lat="44.19384" lon="5.94274">
        <ele>499.6</ele>
        <time>2021-09-09T10:13:00Z</time>
      </trkpt>
      <trkpt lat="44.19386" lon="5.94272">
        <ele>499.6</ele>
        <time>2021-09-09T10:13:01Z</time>
      </trkpt>
      <trkpt lat="44.19387" lon="5.94271">
        <ele>499.6</ele>
        <time>2021-09-09T10:13:02Z</time>
      </trkpt>
      <trkpt lat="44.19387" lon="5.94271">
        <ele>499.6</ele>
        <time>2021-09-09T10:13:04Z</time>
      </trkpt>
      <trkpt lat="44.19387" lon="5.9427">
        <ele>499.6</ele>
        <time>2021-09-09T10:13:06Z</time>
      </trkpt>
      <trkpt lat="44.19387" lon="5.9427">
        <ele>499.6</ele>
        <time>2021-09-09T10:13:08Z</time>
      </trkpt>
      <trkpt lat="44.19387" lon="5.9427">
        <ele>499.6</ele>
        <time>2021-09-09T10:13:09Z</time>
      </trkpt>
      <trkpt lat="44.19387" lon="5.9427">
        <ele>499.6</ele>
        <time>2021-09-09T10:13:10Z</time>
      </trkpt>
      <trkpt lat="44.19387" lon="5.9427">
        <ele>499.6</ele>
        <time>2021-09-09T10:13:12Z</time>
      </trkpt>
      <trkpt lat="44.19387" lon="5.9427">
        <ele>499.6</ele>
        <time>2021-09-09T10:13:14Z</time>
      </trkpt>
      <trkpt lat="44.19387" lon="5.9427">
        <ele>499.6</ele>
        <time>2021-09-09T10:13:15Z</time>
      </trkpt>
      <trkpt lat="44.19387" lon="5.9427">
        <ele>499.6</ele>
        <time>2021-09-09T10:13:16Z</time>
      </trkpt>
      <trkpt lat="44.19387" lon="5.94276">
        <ele>499.6</ele>
        <time>2021-09-09T10:13:18Z</time>
      </trkpt>
      <trkpt lat="44.19385" lon="5.94276">
        <ele>499.6</ele>
        <time>2021-09-09T10:13:19Z</time>
      </trkpt>
      <trkpt lat="44.19384" lon="5.94277">
        <ele>499.6</ele>
        <time>2021-09-09T10:13:21Z</time>
      </trkpt>
      <trkpt lat="44.19384" lon="5.94277">
        <ele>499.6</ele>
        <time>2021-09-09T10:13:22Z</time>
      </trkpt>
      <trkpt lat="44.19384" lon="5.94277">
        <ele>499.6</ele>
        <time>2021-09-09T10:13:24Z</time>
      </trkpt>
      <trkpt lat="44.19384" lon="5.94277">
        <ele>499.6</ele>
        <time>2021-09-09T10:13:25Z</time>
      </trkpt>
      <trkpt lat="44.19384" lon="5.94277">
        <ele>499.6</ele>
        <time>2021-09-09T10:13:26Z</time>
      </trkpt>
      <trkpt lat="44.19384" lon="5.94277">
        <ele>499.6</ele>
        <time>2021-09-09T10:13:28Z</time>
      </trkpt>
      <trkpt lat="44.19384" lon="5.94277">
        <ele>499.6</ele>
        <time>2021-09-09T10:13:29Z</time>
      </trkpt>
      <trkpt lat="44.19384" lon="5.94277">
        <ele>499.6</ele>
        <time>2021-09-09T10:13:31Z</time>
      </trkpt>
      <trkpt lat="44.19384" lon="5.94277">
        <ele>499.6</ele>
        <time>2021-09-09T10:13:33Z</time>
      </trkpt>
      <trkpt lat="44.19384" lon="5.94277">
        <ele>499.6</ele>
        <time>2021-09-09T10:13:34Z</time>
      </trkpt>
      <trkpt lat="44.19382" lon="5.94275">
        <ele>499.6</ele>
        <time>2021-09-09T10:13:35Z</time>
      </trkpt>
      <trkpt lat="44.19378" lon="5.94269">
        <ele>499.6</ele>
        <time>2021-09-09T10:13:37Z</time>
      </trkpt>
      <trkpt lat="44.19377" lon="5.94268">
        <ele>499.6</ele>
        <time>2021-09-09T10:13:39Z</time>
      </trkpt>
      <trkpt lat="44.19377" lon="5.94268">
        <ele>499.6</ele>
        <time>2021-09-09T10:13:41Z</time>
      </trkpt>
      <trkpt lat="44.19377" lon="5.94267">
        <ele>499.6</ele>
        <time>2021-09-09T10:13:42Z</time>
      </trkpt>
      <trkpt lat="44.19377" lon="5.94267">
        <ele>499.6</ele>
        <time>2021-09-09T10:13:44Z</time>
      </trkpt>
      <trkpt lat="44.19377" lon="5.94267">
        <ele>499.6</ele>
        <time>2021-09-09T10:13:45Z</time>
      </trkpt>
      <trkpt lat="44.19377" lon="5.94267">
        <ele>499.6</ele>
        <time>2021-09-09T10:13:47Z</time>
      </trkpt>
      <trkpt lat="44.19377" lon="5.94267">
        <ele>499.6</ele>
        <time>2021-09-09T10:13:48Z</time>
      </trkpt>
      <trkpt lat="44.19377" lon="5.94267">
        <ele>499.6</ele>
        <time>2021-09-09T10:13:49Z</time>
      </trkpt>
      <trkpt lat="44.19377" lon="5.94267">
        <ele>499.6</ele>
        <time>2021-09-09T10:13:51Z</time>
      </trkpt>
      <trkpt lat="44.19377" lon="5.94267">
        <ele>499.6</ele>
        <time>2021-09-09T10:13:53Z</time>
      </trkpt>
      <trkpt lat="44.19377" lon="5.94267">
        <ele>499.6</ele>
        <time>2021-09-09T10:13:55Z</time>
      </trkpt>
      <trkpt lat="44.19377" lon="5.94267">
        <ele>499.6</ele>
        <time>2021-09-09T10:13:56Z</time>
      </trkpt>
      <trkpt lat="44.19377" lon="5.94267">
        <ele>499.6</ele>
        <time>2021-09-09T10:13:57Z</time>
      </trkpt>
      <trkpt lat="44.19377" lon="5.94267">
        <ele>499.6</ele>
        <time>2021-09-09T10:13:59Z</time>
      </trkpt>
      <trkpt lat="44.19377" lon="5.94267">
        <ele>499.6</ele>
        <time>2021-09-09T10:14:01Z</time>
      </trkpt>
      <trkpt lat="44.19377" lon="5.94267">
        <ele>499.6</ele>
        <time>2021-09-09T10:14:02Z</time>
      </trkpt>
      <trkpt lat="44.19377" lon="5.94267">
        <ele>499.6</ele>
        <time>2021-09-09T10:14:03Z</time>
      </trkpt>
      <trkpt lat="44.19377" lon="5.94267">
        <ele>499.6</ele>
        <time>2021-09-09T10:14:05Z</time>
      </trkpt>
      <trkpt lat="44.19377" lon="5.94267">
        <ele>499.6</ele>
        <time>2021-09-09T10:14:07Z</time>
      </trkpt>
      <trkpt lat="44.19377" lon="5.94267">
        <ele>499.6</ele>
        <time>2021-09-09T10:14:08Z</time>
      </trkpt>
      <trkpt lat="44.19377" lon="5.94267">
        <ele>499.6</ele>
        <time>2021-09-09T10:14:09Z</time>
      </trkpt>
      <trkpt lat="44.19377" lon="5.94267">
        <ele>499.6</ele>
        <time>2021-09-09T10:14:11Z</time>
      </trkpt>
      <trkpt lat="44.19377" lon="5.94267">
        <ele>499.6</ele>
        <time>2021-09-09T10:14:12Z</time>
      </trkpt>
      <trkpt lat="44.19377" lon="5.94267">
        <ele>499.6</ele>
        <time>2021-09-09T10:14:14Z</time>
      </trkpt>
      <trkpt lat="44.19377" lon="5.94267">
        <ele>499.6</ele>
        <time>2021-09-09T10:14:15Z</time>
      </trkpt>
      <trkpt lat="44.19379" lon="5.94265">
        <ele>499.6</ele>
        <time>2021-09-09T10:14:17Z</time>
      </trkpt>
      <trkpt lat="44.1938" lon="5.94264">
        <ele>499.6</ele>
        <time>2021-09-09T10:14:19Z</time>
      </trkpt>
      <trkpt lat="44.19379" lon="5.94265">
        <ele>499.6</ele>
        <time>2021-09-09T10:14:20Z</time>
      </trkpt>
      <trkpt lat="44.19379" lon="5.94266">
        <ele>499.6</ele>
        <time>2021-09-09T10:14:21Z</time>
      </trkpt>
      <trkpt lat="44.19379" lon="5.94266">
        <ele>499.6</ele>
        <time>2021-09-09T10:14:22Z</time>
      </trkpt>
      <trkpt lat="44.1938" lon="5.94266">
        <ele>499.6</ele>
        <time>2021-09-09T10:14:24Z</time>
      </trkpt>
      <trkpt lat="44.19381" lon="5.94266">
        <ele>499.6</ele>
        <time>2021-09-09T10:14:25Z</time>
      </trkpt>
      <trkpt lat="44.19382" lon="5.94265">
        <ele>499.6</ele>
        <time>2021-09-09T10:14:26Z</time>
      </trkpt>
      <trkpt lat="44.19383" lon="5.94266">
        <ele>499.6</ele>
        <time>2021-09-09T10:14:28Z</time>
      </trkpt>
      <trkpt lat="44.19383" lon="5.94266">
        <ele>499.6</ele>
        <time>2021-09-09T10:14:29Z</time>
      </trkpt>
      <trkpt lat="44.19384" lon="5.94266">
        <ele>499.6</ele>
        <time>2021-09-09T10:14:30Z</time>
      </trkpt>
      <trkpt lat="44.19384" lon="5.94266">
        <ele>499.6</ele>
        <time>2021-09-09T10:14:31Z</time>
      </trkpt>
      <trkpt lat="44.19384" lon="5.94266">
        <ele>499.6</ele>
        <time>2021-09-09T10:14:33Z</time>
      </trkpt>
      <trkpt lat="44.19385" lon="5.94267">
        <ele>499.6</ele>
        <time>2021-09-09T10:14:34Z</time>
      </trkpt>
      <trkpt lat="44.19385" lon="5.94267">
        <ele>499.6</ele>
        <time>2021-09-09T10:14:35Z</time>
      </trkpt>
      <trkpt lat="44.19386" lon="5.94268">
        <ele>499.6</ele>
        <time>2021-09-09T10:14:37Z</time>
      </trkpt>
      <trkpt lat="44.19386" lon="5.94269">
        <ele>499.6</ele>
        <time>2021-09-09T10:14:38Z</time>
      </trkpt>
      <trkpt lat="44.19388" lon="5.9427">
        <ele>499.6</ele>
        <time>2021-09-09T10:14:41Z</time>
      </trkpt>
      <trkpt lat="44.19388" lon="5.9427">
        <ele>499.6</ele>
        <time>2021-09-09T10:14:42Z</time>
      </trkpt>
      <trkpt lat="44.19388" lon="5.94271">
        <ele>499.6</ele>
        <time>2021-09-09T10:14:43Z</time>
      </trkpt>
      <trkpt lat="44.19389" lon="5.94271">
        <ele>499.6</ele>
        <time>2021-09-09T10:14:44Z</time>
      </trkpt>
      <trkpt lat="44.19389" lon="5.94272">
        <ele>499.6</ele>
        <time>2021-09-09T10:14:46Z</time>
      </trkpt>
      <trkpt lat="44.19389" lon="5.94272">
        <ele>499.6</ele>
        <time>2021-09-09T10:14:47Z</time>
      </trkpt>
      <trkpt lat="44.1939" lon="5.94273">
        <ele>499.6</ele>
        <time>2021-09-09T10:14:49Z</time>
      </trkpt>
      <trkpt lat="44.1939" lon="5.94273">
        <ele>499.6</ele>
        <time>2021-09-09T10:14:50Z</time>
      </trkpt>
      <trkpt lat="44.19391" lon="5.94273">
        <ele>499.6</ele>
        <time>2021-09-09T10:14:51Z</time>
      </trkpt>
      <trkpt lat="44.19391" lon="5.94272">
        <ele>499.6</ele>
        <time>2021-09-09T10:14:53Z</time>
      </trkpt>
      <trkpt lat="44.19392" lon="5.94273">
        <ele>499.6</ele>
        <time>2021-09-09T10:14:56Z</time>
      </trkpt>
      <trkpt lat="44.19392" lon="5.94273">
        <ele>499.6</ele>
        <time>2021-09-09T10:14:57Z</time>
      </trkpt>
      <trkpt lat="44.19392" lon="5.94274">
        <ele>499.6</ele>
        <time>2021-09-09T10:14:58Z</time>
      </trkpt>
      <trkpt lat="44.19392" lon="5.94275">
        <ele>499.6</ele>
        <time>2021-09-09T10:15:00Z</time>
      </trkpt>
      <trkpt lat="44.19392" lon="5.94275">
        <ele>499.6</ele>
        <time>2021-09-09T10:15:01Z</time>
      </trkpt>
      <trkpt lat="44.19392" lon="5.94275">
        <ele>499.6</ele>
        <time>2021-09-09T10:15:02Z</time>
      </trkpt>
      <trkpt lat="44.19392" lon="5.94275">
        <ele>499.6</ele>
        <time>2021-09-09T10:15:04Z</time>
      </trkpt>
      <trkpt lat="44.19392" lon="5.94275">
        <ele>499.6</ele>
        <time>2021-09-09T10:15:06Z</time>
      </trkpt>
      <trkpt lat="44.19391" lon="5.94275">
        <ele>499.6</ele>
        <time>2021-09-09T10:15:08Z</time>
      </trkpt>
      <trkpt lat="44.19391" lon="5.94275">
        <ele>499.6</ele>
        <time>2021-09-09T10:15:09Z</time>
      </trkpt>
      <trkpt lat="44.19392" lon="5.94275">
        <ele>499.6</ele>
        <time>2021-09-09T10:15:10Z</time>
      </trkpt>
      <trkpt lat="44.19392" lon="5.94275">
        <ele>499.6</ele>
        <time>2021-09-09T10:15:11Z</time>
      </trkpt>
      <trkpt lat="44.19391" lon="5.94275">
        <ele>499.6</ele>
        <time>2021-09-09T10:15:13Z</time>
      </trkpt>
      <trkpt lat="44.19391" lon="5.94275">
        <ele>499.6</ele>
        <time>2021-09-09T10:15:14Z</time>
      </trkpt>
      <trkpt lat="44.19391" lon="5.94275">
        <ele>499.6</ele>
        <time>2021-09-09T10:15:15Z</time>
      </trkpt>
      <trkpt lat="44.19392" lon="5.94276">
        <ele>499.6</ele>
        <time>2021-09-09T10:15:17Z</time>
      </trkpt>
      <trkpt lat="44.19392" lon="5.94276">
        <ele>499.6</ele>
        <time>2021-09-09T10:15:18Z</time>
      </trkpt>
      <trkpt lat="44.19392" lon="5.94277">
        <ele>499.6</ele>
        <time>2021-09-09T10:15:20Z</time>
      </trkpt>
      <trkpt lat="44.19393" lon="5.94278">
        <ele>499.6</ele>
        <time>2021-09-09T10:15:22Z</time>
      </trkpt>
      <trkpt lat="44.19393" lon="5.94279">
        <ele>501.5</ele>
        <time>2021-09-09T10:15:23Z</time>
      </trkpt>
      <trkpt lat="44.19395" lon="5.94283">
        <ele>501.6</ele>
        <time>2021-09-09T10:15:25Z</time>
      </trkpt>
      <trkpt lat="44.19397" lon="5.94285">
        <ele>501.6</ele>
        <time>2021-09-09T10:15:26Z</time>
      </trkpt>
      <trkpt lat="44.19398" lon="5.94287">
        <ele>501.6</ele>
        <time>2021-09-09T10:15:27Z</time>
      </trkpt>
      <trkpt lat="44.19401" lon="5.94291">
        <ele>501.7</ele>
        <time>2021-09-09T10:15:29Z</time>
      </trkpt>
      <trkpt lat="44.19402" lon="5.94292">
        <ele>501.7</ele>
        <time>2021-09-09T10:15:31Z</time>
      </trkpt>
      <trkpt lat="44.19402" lon="5.94292">
        <ele>501.7</ele>
        <time>2021-09-09T10:15:32Z</time>
      </trkpt>
      <trkpt lat="44.19402" lon="5.94292">
        <ele>501.7</ele>
        <time>2021-09-09T10:15:33Z</time>
      </trkpt>
      <trkpt lat="44.19402" lon="5.94292">
        <ele>501.7</ele>
        <time>2021-09-09T10:15:35Z</time>
      </trkpt>
      <trkpt lat="44.19402" lon="5.94292">
        <ele>501.7</ele>
        <time>2021-09-09T10:15:36Z</time>
      </trkpt>
      <trkpt lat="44.19402" lon="5.94292">
        <ele>501.7</ele>
        <time>2021-09-09T10:15:38Z</time>
      </trkpt>
      <trkpt lat="44.19402" lon="5.94292">
        <ele>501.7</ele>
        <time>2021-09-09T10:15:39Z</time>
      </trkpt>
      <trkpt lat="44.19402" lon="5.94292">
        <ele>501.7</ele>
        <time>2021-09-09T10:15:40Z</time>
      </trkpt>
      <trkpt lat="44.19402" lon="5.94292">
        <ele>501.7</ele>
        <time>2021-09-09T10:15:42Z</time>
      </trkpt>
      <trkpt lat="44.19402" lon="5.94292">
        <ele>501.7</ele>
        <time>2021-09-09T10:15:43Z</time>
      </trkpt>
      <trkpt lat="44.19402" lon="5.94292">
        <ele>501.7</ele>
        <time>2021-09-09T10:15:45Z</time>
      </trkpt>
      <trkpt lat="44.19402" lon="5.94292">
        <ele>501.7</ele>
        <time>2021-09-09T10:15:46Z</time>
      </trkpt>
      <trkpt lat="44.19402" lon="5.94292">
        <ele>501.7</ele>
        <time>2021-09-09T10:15:48Z</time>
      </trkpt>
      <trkpt lat="44.19402" lon="5.94292">
        <ele>501.7</ele>
        <time>2021-09-09T10:15:49Z</time>
      </trkpt>
      <trkpt lat="44.19402" lon="5.94292">
        <ele>501.7</ele>
        <time>2021-09-09T10:15:51Z</time>
      </trkpt>
      <trkpt lat="44.19402" lon="5.94292">
        <ele>501.7</ele>
        <time>2021-09-09T10:15:53Z</time>
      </trkpt>
      <trkpt lat="44.19402" lon="5.94292">
        <ele>501.7</ele>
        <time>2021-09-09T10:15:55Z</time>
      </trkpt>
      <trkpt lat="44.19398" lon="5.94291">
        <ele>501.7</ele>
        <time>2021-09-09T10:15:57Z</time>
      </trkpt>
      <trkpt lat="44.19394" lon="5.9429">
        <ele>501.8</ele>
        <time>2021-09-09T10:15:58Z</time>
      </trkpt>
      <trkpt lat="44.19393" lon="5.94288">
        <ele>501.8</ele>
        <time>2021-09-09T10:15:59Z</time>
      </trkpt>
      <trkpt lat="44.19392" lon="5.94288">
        <ele>501.8</ele>
        <time>2021-09-09T10:16:00Z</time>
      </trkpt>
      <trkpt lat="44.19391" lon="5.94288">
        <ele>501.8</ele>
        <time>2021-09-09T10:16:01Z</time>
      </trkpt>
      <trkpt lat="44.1939" lon="5.94288">
        <ele>501.8</ele>
        <time>2021-09-09T10:16:02Z</time>
      </trkpt>
      <trkpt lat="44.1939" lon="5.94288">
        <ele>501.8</ele>
        <time>2021-09-09T10:16:04Z</time>
      </trkpt>
      <trkpt lat="44.1939" lon="5.94288">
        <ele>501.8</ele>
        <time>2021-09-09T10:16:05Z</time>
      </trkpt>
      <trkpt lat="44.1939" lon="5.94288">
        <ele>501.8</ele>
        <time>2021-09-09T10:16:06Z</time>
      </trkpt>
      <trkpt lat="44.19388" lon="5.94288">
        <ele>501.8</ele>
        <time>2021-09-09T10:16:08Z</time>
      </trkpt>
      <trkpt lat="44.19389" lon="5.94287">
        <ele>501.8</ele>
        <time>2021-09-09T10:16:09Z</time>
      </trkpt>
      <trkpt lat="44.19388" lon="5.94287">
        <ele>501.8</ele>
        <time>2021-09-09T10:16:10Z</time>
      </trkpt>
      <trkpt lat="44.19388" lon="5.94286">
        <ele>501.8</ele>
        <time>2021-09-09T10:16:11Z</time>
      </trkpt>
      <trkpt lat="44.19387" lon="5.94286">
        <ele>501.8</ele>
        <time>2021-09-09T10:16:12Z</time>
      </trkpt>
      <trkpt lat="44.19386" lon="5.94285">
        <ele>501.8</ele>
        <time>2021-09-09T10:16:14Z</time>
      </trkpt>
      <trkpt lat="44.19386" lon="5.94286">
        <ele>501.9</ele>
        <time>2021-09-09T10:16:15Z</time>
      </trkpt>
      <trkpt lat="44.19386" lon="5.94286">
        <ele>501.9</ele>
        <time>2021-09-09T10:16:17Z</time>
      </trkpt>
      <trkpt lat="44.19385" lon="5.94285">
        <ele>501.9</ele>
        <time>2021-09-09T10:16:18Z</time>
      </trkpt>
      <trkpt lat="44.19384" lon="5.94285">
        <ele>501.9</ele>
        <time>2021-09-09T10:16:19Z</time>
      </trkpt>
      <trkpt lat="44.19383" lon="5.94284">
        <ele>501.9</ele>
        <time>2021-09-09T10:16:20Z</time>
      </trkpt>
      <trkpt lat="44.19383" lon="5.94284">
        <ele>501.9</ele>
        <time>2021-09-09T10:16:22Z</time>
      </trkpt>
      <trkpt lat="44.19383" lon="5.94284">
        <ele>501.9</ele>
        <time>2021-09-09T10:16:24Z</time>
      </trkpt>
      <trkpt lat="44.19382" lon="5.94283">
        <ele>501.9</ele>
        <time>2021-09-09T10:16:25Z</time>
      </trkpt>
      <trkpt lat="44.19382" lon="5.94282">
        <ele>501.9</ele>
        <time>2021-09-09T10:16:27Z</time>
      </trkpt>
      <trkpt lat="44.19382" lon="5.94282">
        <ele>501.9</ele>
        <time>2021-09-09T10:16:28Z</time>
      </trkpt>
      <trkpt lat="44.19381" lon="5.94281">
        <ele>501.9</ele>
        <time>2021-09-09T10:16:31Z</time>
      </trkpt>
      <trkpt lat="44.19381" lon="5.94281">
        <ele>501.9</ele>
        <time>2021-09-09T10:16:32Z</time>
      </trkpt>
      <trkpt lat="44.19381" lon="5.94281">
        <ele>501.9</ele>
        <time>2021-09-09T10:16:34Z</time>
      </trkpt>
      <trkpt lat="44.19381" lon="5.94281">
        <ele>501.9</ele>
        <time>2021-09-09T10:16:36Z</time>
      </trkpt>
      <trkpt lat="44.1938" lon="5.94281">
        <ele>501.9</ele>
        <time>2021-09-09T10:16:37Z</time>
      </trkpt>
      <trkpt lat="44.1938" lon="5.9428">
        <ele>501.9</ele>
        <time>2021-09-09T10:16:38Z</time>
      </trkpt>
      <trkpt lat="44.1938" lon="5.9428">
        <ele>501.9</ele>
        <time>2021-09-09T10:16:39Z</time>
      </trkpt>
      <trkpt lat="44.1938" lon="5.9428">
        <ele>501.9</ele>
        <time>2021-09-09T10:16:40Z</time>
      </trkpt>
      <trkpt lat="44.1938" lon="5.9428">
        <ele>501.9</ele>
        <time>2021-09-09T10:16:42Z</time>
      </trkpt>
      <trkpt lat="44.19379" lon="5.9428">
        <ele>501.9</ele>
        <time>2021-09-09T10:16:43Z</time>
      </trkpt>
      <trkpt lat="44.19379" lon="5.9428">
        <ele>501.9</ele>
        <time>2021-09-09T10:16:44Z</time>
      </trkpt>
      <trkpt lat="44.19379" lon="5.9428">
        <ele>501.9</ele>
        <time>2021-09-09T10:16:45Z</time>
      </trkpt>
      <trkpt lat="44.19383" lon="5.94276">
        <ele>502</ele>
        <time>2021-09-09T10:16:47Z</time>
      </trkpt>
      <trkpt lat="44.19386" lon="5.94273">
        <ele>502</ele>
        <time>2021-09-09T10:16:49Z</time>
      </trkpt>
      <trkpt lat="44.19387" lon="5.94273">
        <ele>502</ele>
        <time>2021-09-09T10:16:51Z</time>
      </trkpt>
      <trkpt lat="44.19387" lon="5.94273">
        <ele>502</ele>
        <time>2021-09-09T10:16:52Z</time>
      </trkpt>
      <trkpt lat="44.19387" lon="5.94273">
        <ele>502</ele>
        <time>2021-09-09T10:16:53Z</time>
      </trkpt>
      <trkpt lat="44.19387" lon="5.94273">
        <ele>502</ele>
        <time>2021-09-09T10:16:55Z</time>
      </trkpt>
      <trkpt lat="44.19387" lon="5.94273">
        <ele>502</ele>
        <time>2021-09-09T10:16:57Z</time>
      </trkpt>
      <trkpt lat="44.19387" lon="5.94273">
        <ele>502</ele>
        <time>2021-09-09T10:16:58Z</time>
      </trkpt>
      <trkpt lat="44.19387" lon="5.94273">
        <ele>502</ele>
        <time>2021-09-09T10:17:00Z</time>
      </trkpt>
      <trkpt lat="44.19387" lon="5.94273">
        <ele>502</ele>
        <time>2021-09-09T10:17:01Z</time>
      </trkpt>
      <trkpt lat="44.19387" lon="5.94273">
        <ele>502</ele>
        <time>2021-09-09T10:17:03Z</time>
      </trkpt>
      <trkpt lat="44.19387" lon="5.94273">
        <ele>502</ele>
        <time>2021-09-09T10:17:04Z</time>
      </trkpt>
      <trkpt lat="44.19387" lon="5.94273">
        <ele>502</ele>
        <time>2021-09-09T10:17:05Z</time>
      </trkpt>
      <trkpt lat="44.19387" lon="5.94273">
        <ele>502</ele>
        <time>2021-09-09T10:17:06Z</time>
      </trkpt>
      <trkpt lat="44.19387" lon="5.94273">
        <ele>502</ele>
        <time>2021-09-09T10:17:08Z</time>
      </trkpt>
      <trkpt lat="44.19387" lon="5.94273">
        <ele>502</ele>
        <time>2021-09-09T10:17:10Z</time>
      </trkpt>
      <trkpt lat="44.19387" lon="5.94273">
        <ele>502</ele>
        <time>2021-09-09T10:17:11Z</time>
      </trkpt>
      <trkpt lat="44.19387" lon="5.94273">
        <ele>502</ele>
        <time>2021-09-09T10:17:12Z</time>
      </trkpt>
      <trkpt lat="44.19387" lon="5.94273">
        <ele>502</ele>
        <time>2021-09-09T10:17:14Z</time>
      </trkpt>
      <trkpt lat="44.19387" lon="5.94273">
        <ele>502</ele>
        <time>2021-09-09T10:17:15Z</time>
      </trkpt>
      <trkpt lat="44.19388" lon="5.94282">
        <ele>502.1</ele>
        <time>2021-09-09T10:17:17Z</time>
      </trkpt>
      <trkpt lat="44.19386" lon="5.94287">
        <ele>502.1</ele>
        <time>2021-09-09T10:17:18Z</time>
      </trkpt>
      <trkpt lat="44.19386" lon="5.94288">
        <ele>502.1</ele>
        <time>2021-09-09T10:17:19Z</time>
      </trkpt>
      <trkpt lat="44.19386" lon="5.94289">
        <ele>502.1</ele>
        <time>2021-09-09T10:17:21Z</time>
      </trkpt>
      <trkpt lat="44.19386" lon="5.94289">
        <ele>502.1</ele>
        <time>2021-09-09T10:17:23Z</time>
      </trkpt>
      <trkpt lat="44.19386" lon="5.94289">
        <ele>502.1</ele>
        <time>2021-09-09T10:17:24Z</time>
      </trkpt>
      <trkpt lat="44.19386" lon="5.94289">
        <ele>502.1</ele>
        <time>2021-09-09T10:17:26Z</time>
      </trkpt>
      <trkpt lat="44.19386" lon="5.94289">
        <ele>502.1</ele>
        <time>2021-09-09T10:17:28Z</time>
      </trkpt>
      <trkpt lat="44.19386" lon="5.94289">
        <ele>502.1</ele>
        <time>2021-09-09T10:17:30Z</time>
      </trkpt>
      <trkpt lat="44.19386" lon="5.94289">
        <ele>502.1</ele>
        <time>2021-09-09T10:17:31Z</time>
      </trkpt>
      <trkpt lat="44.19386" lon="5.94289">
        <ele>502.1</ele>
        <time>2021-09-09T10:17:32Z</time>
      </trkpt>
      <trkpt lat="44.19386" lon="5.94289">
        <ele>502.1</ele>
        <time>2021-09-09T10:17:34Z</time>
      </trkpt>
      <trkpt lat="44.19386" lon="5.94289">
        <ele>502.1</ele>
        <time>2021-09-09T10:17:36Z</time>
      </trkpt>
      <trkpt lat="44.19386" lon="5.94289">
        <ele>502.1</ele>
        <time>2021-09-09T10:17:37Z</time>
      </trkpt>
      <trkpt lat="44.19386" lon="5.94289">
        <ele>502.1</ele>
        <time>2021-09-09T10:17:39Z</time>
      </trkpt>
      <trkpt lat="44.19386" lon="5.94289">
        <ele>502.1</ele>
        <time>2021-09-09T10:17:40Z</time>
      </trkpt>
      <trkpt lat="44.19386" lon="5.94289">
        <ele>502.1</ele>
        <time>2021-09-09T10:17:41Z</time>
      </trkpt>
      <trkpt lat="44.19386" lon="5.94289">
        <ele>502.1</ele>
        <time>2021-09-09T10:17:43Z</time>
      </trkpt>
      <trkpt lat="44.19386" lon="5.94289">
        <ele>502.1</ele>
        <time>2021-09-09T10:17:44Z</time>
      </trkpt>
      <trkpt lat="44.19386" lon="5.94289">
        <ele>502.1</ele>
        <time>2021-09-09T10:17:45Z</time>
      </trkpt>
      <trkpt lat="44.19386" lon="5.94289">
        <ele>502.1</ele>
        <time>2021-09-09T10:17:46Z</time>
      </trkpt>
      <trkpt lat="44.19386" lon="5.94289">
        <ele>502.1</ele>
        <time>2021-09-09T10:17:48Z</time>
      </trkpt>
      <trkpt lat="44.19386" lon="5.94289">
        <ele>502.1</ele>
        <time>2021-09-09T10:17:50Z</time>
      </trkpt>
      <trkpt lat="44.19386" lon="5.94289">
        <ele>502.1</ele>
        <time>2021-09-09T10:17:51Z</time>
      </trkpt>
      <trkpt lat="44.19386" lon="5.94289">
        <ele>502.1</ele>
        <time>2021-09-09T10:17:53Z</time>
      </trkpt>
      <trkpt lat="44.19386" lon="5.94289">
        <ele>502.1</ele>
        <time>2021-09-09T10:17:54Z</time>
      </trkpt>
      <trkpt lat="44.19386" lon="5.94289">
        <ele>502.1</ele>
        <time>2021-09-09T10:17:56Z</time>
      </trkpt>
      <trkpt lat="44.19386" lon="5.94289">
        <ele>502.1</ele>
        <time>2021-09-09T10:17:57Z</time>
      </trkpt>
      <trkpt lat="44.19386" lon="5.94289">
        <ele>502.1</ele>
        <time>2021-09-09T10:17:59Z</time>
      </trkpt>
      <trkpt lat="44.19387" lon="5.94288">
        <ele>502.2</ele>
        <time>2021-09-09T10:18:01Z</time>
      </trkpt>
      <trkpt lat="44.19387" lon="5.94288">
        <ele>502.2</ele>
        <time>2021-09-09T10:18:03Z</time>
      </trkpt>
      <trkpt lat="44.19387" lon="5.94287">
        <ele>502.2</ele>
        <time>2021-09-09T10:18:04Z</time>
      </trkpt>
      <trkpt lat="44.19387" lon="5.94287">
        <ele>502.2</ele>
        <time>2021-09-09T10:18:05Z</time>
      </trkpt>
      <trkpt lat="44.19387" lon="5.94287">
        <ele>502.2</ele>
        <time>2021-09-09T10:18:07Z</time>
      </trkpt>
      <trkpt lat="44.19387" lon="5.94287">
        <ele>502.2</ele>
        <time>2021-09-09T10:18:08Z</time>
      </trkpt>
      <trkpt lat="44.19387" lon="5.94287">
        <ele>502.2</ele>
        <time>2021-09-09T10:18:10Z</time>
      </trkpt>
      <trkpt lat="44.19387" lon="5.94286">
        <ele>502.2</ele>
        <time>2021-09-09T10:18:11Z</time>
      </trkpt>
      <trkpt lat="44.19387" lon="5.94286">
        <ele>502.2</ele>
        <time>2021-09-09T10:18:12Z</time>
      </trkpt>
      <trkpt lat="44.19387" lon="5.94288">
        <ele>502.2</ele>
        <time>2021-09-09T10:18:13Z</time>
      </trkpt>
      <trkpt lat="44.19387" lon="5.94288">
        <ele>502.2</ele>
        <time>2021-09-09T10:18:14Z</time>
      </trkpt>
      <trkpt lat="44.19386" lon="5.94289">
        <ele>502.2</ele>
        <time>2021-09-09T10:18:16Z</time>
      </trkpt>
      <trkpt lat="44.19386" lon="5.94289">
        <ele>502.2</ele>
        <time>2021-09-09T10:18:17Z</time>
      </trkpt>
      <trkpt lat="44.19385" lon="5.94279">
        <ele>502.3</ele>
        <time>2021-09-09T10:18:19Z</time>
      </trkpt>
      <trkpt lat="44.19386" lon="5.94282">
        <ele>502.3</ele>
        <time>2021-09-09T10:18:21Z</time>
      </trkpt>
      <trkpt lat="44.19387" lon="5.94284">
        <ele>502.3</ele>
        <time>2021-09-09T10:18:22Z</time>
      </trkpt>
      <trkpt lat="44.19387" lon="5.94283">
        <ele>502.3</ele>
        <time>2021-09-09T10:18:23Z</time>
      </trkpt>
      <trkpt lat="44.19387" lon="5.94283">
        <ele>502.3</ele>
        <time>2021-09-09T10:18:24Z</time>
      </trkpt>
      <trkpt lat="44.19386" lon="5.94283">
        <ele>502.3</ele>
        <time>2021-09-09T10:18:26Z</time>
      </trkpt>
      <trkpt lat="44.19386" lon="5.94282">
        <ele>502.3</ele>
        <time>2021-09-09T10:18:28Z</time>
      </trkpt>
      <trkpt lat="44.19386" lon="5.94281">
        <ele>502.3</ele>
        <time>2021-09-09T10:18:30Z</time>
      </trkpt>
      <trkpt lat="44.19386" lon="5.94281">
        <ele>502.3</ele>
        <time>2021-09-09T10:18:32Z</time>
      </trkpt>
      <trkpt lat="44.19386" lon="5.9428">
        <ele>502.3</ele>
        <time>2021-09-09T10:18:33Z</time>
      </trkpt>
      <trkpt lat="44.19386" lon="5.9428">
        <ele>502.3</ele>
        <time>2021-09-09T10:18:35Z</time>
      </trkpt>
      <trkpt lat="44.19385" lon="5.9428">
        <ele>502.3</ele>
        <time>2021-09-09T10:18:36Z</time>
      </trkpt>
      <trkpt lat="44.19385" lon="5.94279">
        <ele>502.3</ele>
        <time>2021-09-09T10:18:37Z</time>
      </trkpt>
      <trkpt lat="44.19385" lon="5.94279">
        <ele>502.3</ele>
        <time>2021-09-09T10:18:39Z</time>
      </trkpt>
      <trkpt lat="44.19385" lon="5.94278">
        <ele>502.3</ele>
        <time>2021-09-09T10:18:41Z</time>
      </trkpt>
      <trkpt lat="44.19384" lon="5.94277">
        <ele>502.4</ele>
        <time>2021-09-09T10:18:42Z</time>
      </trkpt>
      <trkpt lat="44.19383" lon="5.94276">
        <ele>502.4</ele>
        <time>2021-09-09T10:18:43Z</time>
      </trkpt>
      <trkpt lat="44.19383" lon="5.94275">
        <ele>502.4</ele>
        <time>2021-09-09T10:18:45Z</time>
      </trkpt>
      <trkpt lat="44.19383" lon="5.94275">
        <ele>502.4</ele>
        <time>2021-09-09T10:18:47Z</time>
      </trkpt>
      <trkpt lat="44.19383" lon="5.94275">
        <ele>502.4</ele>
        <time>2021-09-09T10:18:49Z</time>
      </trkpt>
      <trkpt lat="44.19382" lon="5.9428">
        <ele>502.4</ele>
        <time>2021-09-09T10:18:50Z</time>
      </trkpt>
      <trkpt lat="44.19382" lon="5.94284">
        <ele>502.5</ele>
        <time>2021-09-09T10:18:51Z</time>
      </trkpt>
      <trkpt lat="44.19382" lon="5.94286">
        <ele>502.5</ele>
        <time>2021-09-09T10:18:53Z</time>
      </trkpt>
      <trkpt lat="44.19382" lon="5.94285">
        <ele>502.5</ele>
        <time>2021-09-09T10:18:55Z</time>
      </trkpt>
      <trkpt lat="44.19382" lon="5.94285">
        <ele>502.5</ele>
        <time>2021-09-09T10:18:57Z</time>
      </trkpt>
      <trkpt lat="44.19382" lon="5.94284">
        <ele>502.5</ele>
        <time>2021-09-09T10:18:58Z</time>
      </trkpt>
      <trkpt lat="44.19383" lon="5.94284">
        <ele>502.5</ele>
        <time>2021-09-09T10:19:00Z</time>
      </trkpt>
      <trkpt lat="44.19383" lon="5.94284">
        <ele>502.5</ele>
        <time>2021-09-09T10:19:01Z</time>
      </trkpt>
      <trkpt lat="44.19383" lon="5.94283">
        <ele>502.5</ele>
        <time>2021-09-09T10:19:03Z</time>
      </trkpt>
      <trkpt lat="44.19383" lon="5.94283">
        <ele>502.5</ele>
        <time>2021-09-09T10:19:04Z</time>
      </trkpt>
      <trkpt lat="44.19383" lon="5.94283">
        <ele>502.5</ele>
        <time>2021-09-09T10:19:05Z</time>
      </trkpt>
      <trkpt lat="44.19383" lon="5.94282">
        <ele>502.5</ele>
        <time>2021-09-09T10:19:07Z</time>
      </trkpt>
      <trkpt lat="44.19383" lon="5.94282">
        <ele>502.5</ele>
        <time>2021-09-09T10:19:08Z</time>
      </trkpt>
      <trkpt lat="44.19383" lon="5.94282">
        <ele>502.5</ele>
        <time>2021-09-09T10:19:09Z</time>
      </trkpt>
      <trkpt lat="44.19383" lon="5.94281">
        <ele>502.5</ele>
        <time>2021-09-09T10:19:10Z</time>
      </trkpt>
      <trkpt lat="44.19383" lon="5.94281">
        <ele>502.5</ele>
        <time>2021-09-09T10:19:12Z</time>
      </trkpt>
      <trkpt lat="44.19383" lon="5.9428">
        <ele>502.5</ele>
        <time>2021-09-09T10:19:14Z</time>
      </trkpt>
      <trkpt lat="44.19383" lon="5.9428">
        <ele>502.5</ele>
        <time>2021-09-09T10:19:15Z</time>
      </trkpt>
      <trkpt lat="44.19383" lon="5.9428">
        <ele>502.5</ele>
        <time>2021-09-09T10:19:17Z</time>
      </trkpt>
      <trkpt lat="44.19383" lon="5.94279">
        <ele>502.5</ele>
        <time>2021-09-09T10:19:19Z</time>
      </trkpt>
      <trkpt lat="44.19383" lon="5.94279">
        <ele>502.5</ele>
        <time>2021-09-09T10:19:20Z</time>
      </trkpt>
      <trkpt lat="44.19383" lon="5.94279">
        <ele>502.5</ele>
        <time>2021-09-09T10:19:21Z</time>
      </trkpt>
      <trkpt lat="44.19384" lon="5.94276">
        <ele>502.5</ele>
        <time>2021-09-09T10:19:23Z</time>
      </trkpt>
      <trkpt lat="44.19385" lon="5.94275">
        <ele>502.5</ele>
        <time>2021-09-09T10:19:25Z</time>
      </trkpt>
      <trkpt lat="44.19385" lon="5.94274">
        <ele>502.5</ele>
        <time>2021-09-09T10:19:26Z</time>
      </trkpt>
      <trkpt lat="44.19385" lon="5.94274">
        <ele>502.5</ele>
        <time>2021-09-09T10:19:28Z</time>
      </trkpt>
      <trkpt lat="44.19385" lon="5.94274">
        <ele>502.5</ele>
        <time>2021-09-09T10:19:29Z</time>
      </trkpt>
      <trkpt lat="44.19385" lon="5.94274">
        <ele>502.6</ele>
        <time>2021-09-09T10:19:30Z</time>
      </trkpt>
      <trkpt lat="44.19384" lon="5.94274">
        <ele>502.6</ele>
        <time>2021-09-09T10:19:31Z</time>
      </trkpt>
      <trkpt lat="44.19384" lon="5.94274">
        <ele>502.6</ele>
        <time>2021-09-09T10:19:32Z</time>
      </trkpt>
      <trkpt lat="44.19384" lon="5.94274">
        <ele>502.6</ele>
        <time>2021-09-09T10:19:34Z</time>
      </trkpt>
      <trkpt lat="44.19384" lon="5.94274">
        <ele>502.6</ele>
        <time>2021-09-09T10:19:35Z</time>
      </trkpt>
      <trkpt lat="44.19384" lon="5.94274">
        <ele>502.6</ele>
        <time>2021-09-09T10:19:37Z</time>
      </trkpt>
      <trkpt lat="44.19384" lon="5.94274">
        <ele>502.6</ele>
        <time>2021-09-09T10:19:38Z</time>
      </trkpt>
      <trkpt lat="44.19384" lon="5.94274">
        <ele>502.6</ele>
        <time>2021-09-09T10:19:40Z</time>
      </trkpt>
      <trkpt lat="44.19383" lon="5.94273">
        <ele>502.6</ele>
        <time>2021-09-09T10:19:41Z</time>
      </trkpt>
      <trkpt lat="44.19382" lon="5.94273">
        <ele>502.6</ele>
        <time>2021-09-09T10:19:42Z</time>
      </trkpt>
      <trkpt lat="44.19383" lon="5.94273">
        <ele>502.6</ele>
        <time>2021-09-09T10:19:44Z</time>
      </trkpt>
      <trkpt lat="44.19383" lon="5.94273">
        <ele>502.6</ele>
        <time>2021-09-09T10:19:45Z</time>
      </trkpt>
      <trkpt lat="44.19384" lon="5.94273">
        <ele>502.6</ele>
        <time>2021-09-09T10:19:47Z</time>
      </trkpt>
      <trkpt lat="44.19384" lon="5.94274">
        <ele>502.6</ele>
        <time>2021-09-09T10:19:48Z</time>
      </trkpt>
      <trkpt lat="44.19384" lon="5.94274">
        <ele>502.6</ele>
        <time>2021-09-09T10:19:50Z</time>
      </trkpt>
      <trkpt lat="44.19385" lon="5.94276">
        <ele>502.6</ele>
        <time>2021-09-09T10:19:52Z</time>
      </trkpt>
      <trkpt lat="44.19385" lon="5.94278">
        <ele>502.6</ele>
        <time>2021-09-09T10:19:54Z</time>
      </trkpt>
      <trkpt lat="44.19386" lon="5.94279">
        <ele>502.6</ele>
        <time>2021-09-09T10:19:55Z</time>
      </trkpt>
      <trkpt lat="44.19387" lon="5.94281">
        <ele>502.7</ele>
        <time>2021-09-09T10:19:56Z</time>
      </trkpt>
      <trkpt lat="44.19387" lon="5.94283">
        <ele>502.7</ele>
        <time>2021-09-09T10:19:58Z</time>
      </trkpt>
      <trkpt lat="44.19388" lon="5.94284">
        <ele>502.7</ele>
        <time>2021-09-09T10:19:59Z</time>
      </trkpt>
      <trkpt lat="44.19389" lon="5.94286">
        <ele>502.7</ele>
        <time>2021-09-09T10:20:01Z</time>
      </trkpt>
      <trkpt lat="44.1939" lon="5.94287">
        <ele>502.7</ele>
        <time>2021-09-09T10:20:02Z</time>
      </trkpt>
      <trkpt lat="44.1939" lon="5.94289">
        <ele>502.8</ele>
        <time>2021-09-09T10:20:03Z</time>
      </trkpt>
      <trkpt lat="44.19391" lon="5.9429">
        <ele>502.5</ele>
        <time>2021-09-09T10:20:05Z</time>
      </trkpt>
      <trkpt lat="44.19394" lon="5.94298">
        <ele>501.1</ele>
        <time>2021-09-09T10:20:07Z</time>
      </trkpt>
      <trkpt lat="44.19395" lon="5.94301">
        <ele>500.6</ele>
        <time>2021-09-09T10:20:08Z</time>
      </trkpt>
      <trkpt lat="44.19395" lon="5.94302">
        <ele>500.4</ele>
        <time>2021-09-09T10:20:09Z</time>
      </trkpt>
      <trkpt lat="44.19395" lon="5.94302">
        <ele>500.4</ele>
        <time>2021-09-09T10:20:11Z</time>
      </trkpt>
      <trkpt lat="44.19395" lon="5.94301">
        <ele>500.5</ele>
        <time>2021-09-09T10:20:13Z</time>
      </trkpt>
      <trkpt lat="44.19394" lon="5.943">
        <ele>500.7</ele>
        <time>2021-09-09T10:20:14Z</time>
      </trkpt>
      <trkpt lat="44.19394" lon="5.94299">
        <ele>500.9</ele>
        <time>2021-09-09T10:20:15Z</time>
      </trkpt>
      <trkpt lat="44.19394" lon="5.94298">
        <ele>501.1</ele>
        <time>2021-09-09T10:20:16Z</time>
      </trkpt>
      <trkpt lat="44.19393" lon="5.94297">
        <ele>501.2</ele>
        <time>2021-09-09T10:20:18Z</time>
      </trkpt>
      <trkpt lat="44.19393" lon="5.94296">
        <ele>501.4</ele>
        <time>2021-09-09T10:20:19Z</time>
      </trkpt>
      <trkpt lat="44.19393" lon="5.94296">
        <ele>501.6</ele>
        <time>2021-09-09T10:20:20Z</time>
      </trkpt>
      <trkpt lat="44.19392" lon="5.94295">
        <ele>501.8</ele>
        <time>2021-09-09T10:20:21Z</time>
      </trkpt>
      <trkpt lat="44.19391" lon="5.9429">
        <ele>502.5</ele>
        <time>2021-09-09T10:20:23Z</time>
      </trkpt>
      <trkpt lat="44.19391" lon="5.94289">
        <ele>502.8</ele>
        <time>2021-09-09T10:20:24Z</time>
      </trkpt>
      <trkpt lat="44.1939" lon="5.94287">
        <ele>502.6</ele>
        <time>2021-09-09T10:20:26Z</time>
      </trkpt>
      <trkpt lat="44.1939" lon="5.94284">
        <ele>502.1</ele>
        <time>2021-09-09T10:20:27Z</time>
      </trkpt>
      <trkpt lat="44.1939" lon="5.94282">
        <ele>501.8</ele>
        <time>2021-09-09T10:20:28Z</time>
      </trkpt>
      <trkpt lat="44.19389" lon="5.94281">
        <ele>501.6</ele>
        <time>2021-09-09T10:20:30Z</time>
      </trkpt>
      <trkpt lat="44.19389" lon="5.9428">
        <ele>501.4</ele>
        <time>2021-09-09T10:20:32Z</time>
      </trkpt>
      <trkpt lat="44.19389" lon="5.94279">
        <ele>501.2</ele>
        <time>2021-09-09T10:20:35Z</time>
      </trkpt>
      <trkpt lat="44.19389" lon="5.94278">
        <ele>501.1</ele>
        <time>2021-09-09T10:20:36Z</time>
      </trkpt>
      <trkpt lat="44.19389" lon="5.94278">
        <ele>501.1</ele>
        <time>2021-09-09T10:20:37Z</time>
      </trkpt>
      <trkpt lat="44.19387" lon="5.94277">
        <ele>500.7</ele>
        <time>2021-09-09T10:20:39Z</time>
      </trkpt>
      <trkpt lat="44.19387" lon="5.94277">
        <ele>500.6</ele>
        <time>2021-09-09T10:20:40Z</time>
      </trkpt>
      <trkpt lat="44.19386" lon="5.94277">
        <ele>500.5</ele>
        <time>2021-09-09T10:20:41Z</time>
      </trkpt>
      <trkpt lat="44.19386" lon="5.94277">
        <ele>500.5</ele>
        <time>2021-09-09T10:20:43Z</time>
      </trkpt>
      <trkpt lat="44.19386" lon="5.94277">
        <ele>500.5</ele>
        <time>2021-09-09T10:20:44Z</time>
      </trkpt>
      <trkpt lat="44.19383" lon="5.94268">
        <ele>499.6</ele>
        <time>2021-09-09T10:20:46Z</time>
      </trkpt>
      <trkpt lat="44.19382" lon="5.94265">
        <ele>499.6</ele>
        <time>2021-09-09T10:20:47Z</time>
      </trkpt>
      <trkpt lat="44.19382" lon="5.94264">
        <ele>499.6</ele>
        <time>2021-09-09T10:20:48Z</time>
      </trkpt>
      <trkpt lat="44.19381" lon="5.94263">
        <ele>499.6</ele>
        <time>2021-09-09T10:20:49Z</time>
      </trkpt>
      <trkpt lat="44.19381" lon="5.94262">
        <ele>499.6</ele>
        <time>2021-09-09T10:20:51Z</time>
      </trkpt>
      <trkpt lat="44.19381" lon="5.94262">
        <ele>499.6</ele>
        <time>2021-09-09T10:20:53Z</time>
      </trkpt>
      <trkpt lat="44.19381" lon="5.94262">
        <ele>499.6</ele>
        <time>2021-09-09T10:20:54Z</time>
      </trkpt>
      <trkpt lat="44.19381" lon="5.94262">
        <ele>499.6</ele>
        <time>2021-09-09T10:20:56Z</time>
      </trkpt>
      <trkpt lat="44.19381" lon="5.94262">
        <ele>499.6</ele>
        <time>2021-09-09T10:20:57Z</time>
      </trkpt>
      <trkpt lat="44.19381" lon="5.94262">
        <ele>499.6</ele>
        <time>2021-09-09T10:20:59Z</time>
      </trkpt>
      <trkpt lat="44.19381" lon="5.94262">
        <ele>499.6</ele>
        <time>2021-09-09T10:21:00Z</time>
      </trkpt>
      <trkpt lat="44.19381" lon="5.94262">
        <ele>499.6</ele>
        <time>2021-09-09T10:21:01Z</time>
      </trkpt>
      <trkpt lat="44.19381" lon="5.94262">
        <ele>499.6</ele>
        <time>2021-09-09T10:21:03Z</time>
      </trkpt>
      <trkpt lat="44.19381" lon="5.94262">
        <ele>499.6</ele>
        <time>2021-09-09T10:21:04Z</time>
      </trkpt>
      <trkpt lat="44.19381" lon="5.94262">
        <ele>499.6</ele>
        <time>2021-09-09T10:21:06Z</time>
      </trkpt>
      <trkpt lat="44.19381" lon="5.94262">
        <ele>499.6</ele>
        <time>2021-09-09T10:21:07Z</time>
      </trkpt>
      <trkpt lat="44.19381" lon="5.94262">
        <ele>499.6</ele>
        <time>2021-09-09T10:21:09Z</time>
      </trkpt>
      <trkpt lat="44.19381" lon="5.94262">
        <ele>499.6</ele>
        <time>2021-09-09T10:21:10Z</time>
      </trkpt>
      <trkpt lat="44.19381" lon="5.94262">
        <ele>499.6</ele>
        <time>2021-09-09T10:21:12Z</time>
      </trkpt>
      <trkpt lat="44.19381" lon="5.94262">
        <ele>499.6</ele>
        <time>2021-09-09T10:21:13Z</time>
      </trkpt>
      <trkpt lat="44.19381" lon="5.94262">
        <ele>499.6</ele>
        <time>2021-09-09T10:21:15Z</time>
      </trkpt>
      <trkpt lat="44.19381" lon="5.94262">
        <ele>499.6</ele>
        <time>2021-09-09T10:21:16Z</time>
      </trkpt>
      <trkpt lat="44.19381" lon="5.94262">
        <ele>499.6</ele>
        <time>2021-09-09T10:21:17Z</time>
      </trkpt>
      <trkpt lat="44.19381" lon="5.94262">
        <ele>499.6</ele>
        <time>2021-09-09T10:21:19Z</time>
      </trkpt>
      <trkpt lat="44.19381" lon="5.94262">
        <ele>499.6</ele>
        <time>2021-09-09T10:21:20Z</time>
      </trkpt>
      <trkpt lat="44.19381" lon="5.94262">
        <ele>499.6</ele>
        <time>2021-09-09T10:21:21Z</time>
      </trkpt>
      <trkpt lat="44.19381" lon="5.94262">
        <ele>499.6</ele>
        <time>2021-09-09T10:21:22Z</time>
      </trkpt>
      <trkpt lat="44.19381" lon="5.94262">
        <ele>499.6</ele>
        <time>2021-09-09T10:21:24Z</time>
      </trkpt>
      <trkpt lat="44.19381" lon="5.94262">
        <ele>499.6</ele>
        <time>2021-09-09T10:21:26Z</time>
      </trkpt>
      <trkpt lat="44.19381" lon="5.94262">
        <ele>499.6</ele>
        <time>2021-09-09T10:21:27Z</time>
      </trkpt>
      <trkpt lat="44.19381" lon="5.94262">
        <ele>499.6</ele>
        <time>2021-09-09T10:21:28Z</time>
      </trkpt>
      <trkpt lat="44.19381" lon="5.94262">
        <ele>499.6</ele>
        <time>2021-09-09T10:21:30Z</time>
      </trkpt>
      <trkpt lat="44.19381" lon="5.94262">
        <ele>499.6</ele>
        <time>2021-09-09T10:21:32Z</time>
      </trkpt>
      <trkpt lat="44.19381" lon="5.94262">
        <ele>499.6</ele>
        <time>2021-09-09T10:21:33Z</time>
      </trkpt>
      <trkpt lat="44.19381" lon="5.94262">
        <ele>499.6</ele>
        <time>2021-09-09T10:21:34Z</time>
      </trkpt>
      <trkpt lat="44.19381" lon="5.94262">
        <ele>499.6</ele>
        <time>2021-09-09T10:21:36Z</time>
      </trkpt>
      <trkpt lat="44.19381" lon="5.94262">
        <ele>499.6</ele>
        <time>2021-09-09T10:21:38Z</time>
      </trkpt>
      <trkpt lat="44.19381" lon="5.94262">
        <ele>499.6</ele>
        <time>2021-09-09T10:21:39Z</time>
      </trkpt>
      <trkpt lat="44.19381" lon="5.94262">
        <ele>499.6</ele>
        <time>2021-09-09T10:21:40Z</time>
      </trkpt>
      <trkpt lat="44.19381" lon="5.94262">
        <ele>499.6</ele>
        <time>2021-09-09T10:21:42Z</time>
      </trkpt>
      <trkpt lat="44.19381" lon="5.94262">
        <ele>499.6</ele>
        <time>2021-09-09T10:21:43Z</time>
      </trkpt>
      <trkpt lat="44.19381" lon="5.94262">
        <ele>499.6</ele>
        <time>2021-09-09T10:21:45Z</time>
      </trkpt>
      <trkpt lat="44.19381" lon="5.94262">
        <ele>499.6</ele>
        <time>2021-09-09T10:21:46Z</time>
      </trkpt>
      <trkpt lat="44.19381" lon="5.94263">
        <ele>499.6</ele>
        <time>2021-09-09T10:21:48Z</time>
      </trkpt>
      <trkpt lat="44.19381" lon="5.94263">
        <ele>499.6</ele>
        <time>2021-09-09T10:21:49Z</time>
      </trkpt>
      <trkpt lat="44.19381" lon="5.94263">
        <ele>499.6</ele>
        <time>2021-09-09T10:21:50Z</time>
      </trkpt>
      <trkpt lat="44.19381" lon="5.94263">
        <ele>499.6</ele>
        <time>2021-09-09T10:21:52Z</time>
      </trkpt>
      <trkpt lat="44.19381" lon="5.94263">
        <ele>499.6</ele>
        <time>2021-09-09T10:21:53Z</time>
      </trkpt>
      <trkpt lat="44.19381" lon="5.94264">
        <ele>499.6</ele>
        <time>2021-09-09T10:21:54Z</time>
      </trkpt>
      <trkpt lat="44.19381" lon="5.94264">
        <ele>499.6</ele>
        <time>2021-09-09T10:21:56Z</time>
      </trkpt>
      <trkpt lat="44.19381" lon="5.94264">
        <ele>499.6</ele>
        <time>2021-09-09T10:21:57Z</time>
      </trkpt>
      <trkpt lat="44.19381" lon="5.94264">
        <ele>499.6</ele>
        <time>2021-09-09T10:21:59Z</time>
      </trkpt>
      <trkpt lat="44.19381" lon="5.94264">
        <ele>499.6</ele>
        <time>2021-09-09T10:22:00Z</time>
      </trkpt>
      <trkpt lat="44.19381" lon="5.94264">
        <ele>499.6</ele>
        <time>2021-09-09T10:22:02Z</time>
      </trkpt>
      <trkpt lat="44.19381" lon="5.94264">
        <ele>499.6</ele>
        <time>2021-09-09T10:22:03Z</time>
      </trkpt>
      <trkpt lat="44.19381" lon="5.94264">
        <ele>499.6</ele>
        <time>2021-09-09T10:22:04Z</time>
      </trkpt>
      <trkpt lat="44.19381" lon="5.94265">
        <ele>499.6</ele>
        <time>2021-09-09T10:22:06Z</time>
      </trkpt>
      <trkpt lat="44.19381" lon="5.94266">
        <ele>499.6</ele>
        <time>2021-09-09T10:22:07Z</time>
      </trkpt>
      <trkpt lat="44.19381" lon="5.94267">
        <ele>499.6</ele>
        <time>2021-09-09T10:22:08Z</time>
      </trkpt>
      <trkpt lat="44.19381" lon="5.94268">
        <ele>499.6</ele>
        <time>2021-09-09T10:22:09Z</time>
      </trkpt>
      <trkpt lat="44.19382" lon="5.94269">
        <ele>499.6</ele>
        <time>2021-09-09T10:22:10Z</time>
      </trkpt>
      <trkpt lat="44.19382" lon="5.94269">
        <ele>499.6</ele>
        <time>2021-09-09T10:22:12Z</time>
      </trkpt>
      <trkpt lat="44.19382" lon="5.9427">
        <ele>499.6</ele>
        <time>2021-09-09T10:22:14Z</time>
      </trkpt>
      <trkpt lat="44.19383" lon="5.9427">
        <ele>499.6</ele>
        <time>2021-09-09T10:22:16Z</time>
      </trkpt>
      <trkpt lat="44.19383" lon="5.94271">
        <ele>499.6</ele>
        <time>2021-09-09T10:22:18Z</time>
      </trkpt>
      <trkpt lat="44.19384" lon="5.94271">
        <ele>499.6</ele>
        <time>2021-09-09T10:22:20Z</time>
      </trkpt>
      <trkpt lat="44.19384" lon="5.94272">
        <ele>499.6</ele>
        <time>2021-09-09T10:22:21Z</time>
      </trkpt>
      <trkpt lat="44.19385" lon="5.94273">
        <ele>499.6</ele>
        <time>2021-09-09T10:22:22Z</time>
      </trkpt>
      <trkpt lat="44.19385" lon="5.94273">
        <ele>499.6</ele>
        <time>2021-09-09T10:22:24Z</time>
      </trkpt>
      <trkpt lat="44.19385" lon="5.94273">
        <ele>499.6</ele>
        <time>2021-09-09T10:22:26Z</time>
      </trkpt>
      <trkpt lat="44.19386" lon="5.94273">
        <ele>499.6</ele>
        <time>2021-09-09T10:22:27Z</time>
      </trkpt>
      <trkpt lat="44.19386" lon="5.94273">
        <ele>499.6</ele>
        <time>2021-09-09T10:22:29Z</time>
      </trkpt>
      <trkpt lat="44.19386" lon="5.94273">
        <ele>499.6</ele>
        <time>2021-09-09T10:22:31Z</time>
      </trkpt>
      <trkpt lat="44.19386" lon="5.94273">
        <ele>499.6</ele>
        <time>2021-09-09T10:22:33Z</time>
      </trkpt>
      <trkpt lat="44.19386" lon="5.94273">
        <ele>499.6</ele>
        <time>2021-09-09T10:22:34Z</time>
      </trkpt>
      <trkpt lat="44.19386" lon="5.94273">
        <ele>499.6</ele>
        <time>2021-09-09T10:22:35Z</time>
      </trkpt>
      <trkpt lat="44.19386" lon="5.94273">
        <ele>499.6</ele>
        <time>2021-09-09T10:22:37Z</time>
      </trkpt>
      <trkpt lat="44.19386" lon="5.94273">
        <ele>499.6</ele>
        <time>2021-09-09T10:22:39Z</time>
      </trkpt>
      <trkpt lat="44.19386" lon="5.94273">
        <ele>499.6</ele>
        <time>2021-09-09T10:22:40Z</time>
      </trkpt>
      <trkpt lat="44.19386" lon="5.94273">
        <ele>499.6</ele>
        <time>2021-09-09T10:22:42Z</time>
      </trkpt>
      <trkpt lat="44.19386" lon="5.94273">
        <ele>499.6</ele>
        <time>2021-09-09T10:22:44Z</time>
      </trkpt>
      <trkpt lat="44.19386" lon="5.94273">
        <ele>499.6</ele>
        <time>2021-09-09T10:22:46Z</time>
      </trkpt>
      <trkpt lat="44.19386" lon="5.94273">
        <ele>499.6</ele>
        <time>2021-09-09T10:22:47Z</time>
      </trkpt>
      <trkpt lat="44.19386" lon="5.94273">
        <ele>499.6</ele>
        <time>2021-09-09T10:22:49Z</time>
      </trkpt>
      <trkpt lat="44.19386" lon="5.94273">
        <ele>499.6</ele>
        <time>2021-09-09T10:22:50Z</time>
      </trkpt>
      <trkpt lat="44.19386" lon="5.94273">
        <ele>499.6</ele>
        <time>2021-09-09T10:22:52Z</time>
      </trkpt>
      <trkpt lat="44.19386" lon="5.94273">
        <ele>499.6</ele>
        <time>2021-09-09T10:22:53Z</time>
      </trkpt>
      <trkpt lat="44.19386" lon="5.94273">
        <ele>499.6</ele>
        <time>2021-09-09T10:22:54Z</time>
      </trkpt>
      <trkpt lat="44.19386" lon="5.94273">
        <ele>499.6</ele>
        <time>2021-09-09T10:22:56Z</time>
      </trkpt>
      <trkpt lat="44.19386" lon="5.94273">
        <ele>499.6</ele>
        <time>2021-09-09T10:22:57Z</time>
      </trkpt>
      <trkpt lat="44.19386" lon="5.94273">
        <ele>499.6</ele>
        <time>2021-09-09T10:22:59Z</time>
      </trkpt>
      <trkpt lat="44.19386" lon="5.94273">
        <ele>499.6</ele>
        <time>2021-09-09T10:23:00Z</time>
      </trkpt>
      <trkpt lat="44.19386" lon="5.94273">
        <ele>499.6</ele>
        <time>2021-09-09T10:23:02Z</time>
      </trkpt>
      <trkpt lat="44.19386" lon="5.94273">
        <ele>499.6</ele>
        <time>2021-09-09T10:23:04Z</time>
      </trkpt>
      <trkpt lat="44.1938" lon="5.94269">
        <ele>499.6</ele>
        <time>2021-09-09T10:23:06Z</time>
      </trkpt>
      <trkpt lat="44.19378" lon="5.94267">
        <ele>499.6</ele>
        <time>2021-09-09T10:23:07Z</time>
      </trkpt>
      <trkpt lat="44.19377" lon="5.94266">
        <ele>499.6</ele>
        <time>2021-09-09T10:23:09Z</time>
      </trkpt>
      <trkpt lat="44.19377" lon="5.94265">
        <ele>499.6</ele>
        <time>2021-09-09T10:23:11Z</time>
      </trkpt>
      <trkpt lat="44.19377" lon="5.94265">
        <ele>499.6</ele>
        <time>2021-09-09T10:23:12Z</time>
      </trkpt>
      <trkpt lat="44.19377" lon="5.94265">
        <ele>499.6</ele>
        <time>2021-09-09T10:23:13Z</time>
      </trkpt>
      <trkpt lat="44.19377" lon="5.94265">
        <ele>499.6</ele>
        <time>2021-09-09T10:23:14Z</time>
      </trkpt>
      <trkpt lat="44.19378" lon="5.94267">
        <ele>499.6</ele>
        <time>2021-09-09T10:23:16Z</time>
      </trkpt>
      <trkpt lat="44.19378" lon="5.94267">
        <ele>499.6</ele>
        <time>2021-09-09T10:23:17Z</time>
      </trkpt>
      <trkpt lat="44.19379" lon="5.94267">
        <ele>499.6</ele>
        <time>2021-09-09T10:23:19Z</time>
      </trkpt>
      <trkpt lat="44.19379" lon="5.94268">
        <ele>499.6</ele>
        <time>2021-09-09T10:23:20Z</time>
      </trkpt>
      <trkpt lat="44.19379" lon="5.94268">
        <ele>499.6</ele>
        <time>2021-09-09T10:23:21Z</time>
      </trkpt>
      <trkpt lat="44.19379" lon="5.94268">
        <ele>499.6</ele>
        <time>2021-09-09T10:23:22Z</time>
      </trkpt>
      <trkpt lat="44.19378" lon="5.94266">
        <ele>499.6</ele>
        <time>2021-09-09T10:23:24Z</time>
      </trkpt>
      <trkpt lat="44.19378" lon="5.94266">
        <ele>499.7</ele>
        <time>2021-09-09T10:23:26Z</time>
      </trkpt>
      <trkpt lat="44.19377" lon="5.94265">
        <ele>499.7</ele>
        <time>2021-09-09T10:23:27Z</time>
      </trkpt>
      <trkpt lat="44.19377" lon="5.94265">
        <ele>499.7</ele>
        <time>2021-09-09T10:23:28Z</time>
      </trkpt>
      <trkpt lat="44.19377" lon="5.94265">
        <ele>499.7</ele>
        <time>2021-09-09T10:23:30Z</time>
      </trkpt>
      <trkpt lat="44.19377" lon="5.94265">
        <ele>499.7</ele>
        <time>2021-09-09T10:23:32Z</time>
      </trkpt>
      <trkpt lat="44.19377" lon="5.94265">
        <ele>499.7</ele>
        <time>2021-09-09T10:23:33Z</time>
      </trkpt>
      <trkpt lat="44.19377" lon="5.94265">
        <ele>499.7</ele>
        <time>2021-09-09T10:23:35Z</time>
      </trkpt>
      <trkpt lat="44.19377" lon="5.94265">
        <ele>499.7</ele>
        <time>2021-09-09T10:23:37Z</time>
      </trkpt>
      <trkpt lat="44.19378" lon="5.94266">
        <ele>499.7</ele>
        <time>2021-09-09T10:23:39Z</time>
      </trkpt>
      <trkpt lat="44.19378" lon="5.94267">
        <ele>499.7</ele>
        <time>2021-09-09T10:23:40Z</time>
      </trkpt>
      <trkpt lat="44.19378" lon="5.94267">
        <ele>499.7</ele>
        <time>2021-09-09T10:23:42Z</time>
      </trkpt>
      <trkpt lat="44.19378" lon="5.94266">
        <ele>499.7</ele>
        <time>2021-09-09T10:23:44Z</time>
      </trkpt>
      <trkpt lat="44.19379" lon="5.94268">
        <ele>499.7</ele>
        <time>2021-09-09T10:23:45Z</time>
      </trkpt>
      <trkpt lat="44.19379" lon="5.94269">
        <ele>499.7</ele>
        <time>2021-09-09T10:23:46Z</time>
      </trkpt>
      <trkpt lat="44.19379" lon="5.94269">
        <ele>499.7</ele>
        <time>2021-09-09T10:23:47Z</time>
      </trkpt>
      <trkpt lat="44.1938" lon="5.9427">
        <ele>499.7</ele>
        <time>2021-09-09T10:23:49Z</time>
      </trkpt>
      <trkpt lat="44.1938" lon="5.94272">
        <ele>499.7</ele>
        <time>2021-09-09T10:23:51Z</time>
      </trkpt>
      <trkpt lat="44.1938" lon="5.94272">
        <ele>499.7</ele>
        <time>2021-09-09T10:23:52Z</time>
      </trkpt>
      <trkpt lat="44.19381" lon="5.94273">
        <ele>499.7</ele>
        <time>2021-09-09T10:23:54Z</time>
      </trkpt>
      <trkpt lat="44.19381" lon="5.94273">
        <ele>499.7</ele>
        <time>2021-09-09T10:23:56Z</time>
      </trkpt>
      <trkpt lat="44.19381" lon="5.94273">
        <ele>499.7</ele>
        <time>2021-09-09T10:23:58Z</time>
      </trkpt>
      <trkpt lat="44.19381" lon="5.94273">
        <ele>499.7</ele>
        <time>2021-09-09T10:23:59Z</time>
      </trkpt>
      <trkpt lat="44.19381" lon="5.94272">
        <ele>499.7</ele>
        <time>2021-09-09T10:24:01Z</time>
      </trkpt>
      <trkpt lat="44.19381" lon="5.94271">
        <ele>499.7</ele>
        <time>2021-09-09T10:24:02Z</time>
      </trkpt>
      <trkpt lat="44.19383" lon="5.9427">
        <ele>499.7</ele>
        <time>2021-09-09T10:24:04Z</time>
      </trkpt>
      <trkpt lat="44.19386" lon="5.94272">
        <ele>499.7</ele>
        <time>2021-09-09T10:24:05Z</time>
      </trkpt>
      <trkpt lat="44.19389" lon="5.94275">
        <ele>499.7</ele>
        <time>2021-09-09T10:24:07Z</time>
      </trkpt>
      <trkpt lat="44.19389" lon="5.94275">
        <ele>499.7</ele>
        <time>2021-09-09T10:24:08Z</time>
      </trkpt>
      <trkpt lat="44.19389" lon="5.94275">
        <ele>499.7</ele>
        <time>2021-09-09T10:24:09Z</time>
      </trkpt>
      <trkpt lat="44.19389" lon="5.94276">
        <ele>499.7</ele>
        <time>2021-09-09T10:24:11Z</time>
      </trkpt>
      <trkpt lat="44.19389" lon="5.94276">
        <ele>499.7</ele>
        <time>2021-09-09T10:24:12Z</time>
      </trkpt>
      <trkpt lat="44.19389" lon="5.94276">
        <ele>499.7</ele>
        <time>2021-09-09T10:24:13Z</time>
      </trkpt>
      <trkpt lat="44.19389" lon="5.94276">
        <ele>499.7</ele>
        <time>2021-09-09T10:24:15Z</time>
      </trkpt>
      <trkpt lat="44.19389" lon="5.94276">
        <ele>499.7</ele>
        <time>2021-09-09T10:24:17Z</time>
      </trkpt>
      <trkpt lat="44.19389" lon="5.94276">
        <ele>499.7</ele>
        <time>2021-09-09T10:24:18Z</time>
      </trkpt>
      <trkpt lat="44.19388" lon="5.94276">
        <ele>499.7</ele>
        <time>2021-09-09T10:24:19Z</time>
      </trkpt>
      <trkpt lat="44.19388" lon="5.94276">
        <ele>499.7</ele>
        <time>2021-09-09T10:24:21Z</time>
      </trkpt>
      <trkpt lat="44.19388" lon="5.94276">
        <ele>499.7</ele>
        <time>2021-09-09T10:24:23Z</time>
      </trkpt>
      <trkpt lat="44.1939" lon="5.94278">
        <ele>499.7</ele>
        <time>2021-09-09T10:24:24Z</time>
      </trkpt>
      <trkpt lat="44.19391" lon="5.94279">
        <ele>499.7</ele>
        <time>2021-09-09T10:24:25Z</time>
      </trkpt>
      <trkpt lat="44.19392" lon="5.9428">
        <ele>499.7</ele>
        <time>2021-09-09T10:24:27Z</time>
      </trkpt>
      <trkpt lat="44.19392" lon="5.9428">
        <ele>499.7</ele>
        <time>2021-09-09T10:24:28Z</time>
      </trkpt>
      <trkpt lat="44.19392" lon="5.9428">
        <ele>499.7</ele>
        <time>2021-09-09T10:24:29Z</time>
      </trkpt>
      <trkpt lat="44.1939" lon="5.94277">
        <ele>499.7</ele>
        <time>2021-09-09T10:24:31Z</time>
      </trkpt>
      <trkpt lat="44.19389" lon="5.94276">
        <ele>499.7</ele>
        <time>2021-09-09T10:24:32Z</time>
      </trkpt>
      <trkpt lat="44.19389" lon="5.94276">
        <ele>499.7</ele>
        <time>2021-09-09T10:24:34Z</time>
      </trkpt>
      <trkpt lat="44.1939" lon="5.94277">
        <ele>499.7</ele>
        <time>2021-09-09T10:24:35Z</time>
      </trkpt>
      <trkpt lat="44.1939" lon="5.94277">
        <ele>499.7</ele>
        <time>2021-09-09T10:24:36Z</time>
      </trkpt>
      <trkpt lat="44.1939" lon="5.94278">
        <ele>499.7</ele>
        <time>2021-09-09T10:24:38Z</time>
      </trkpt>
      <trkpt lat="44.1939" lon="5.94278">
        <ele>499.7</ele>
        <time>2021-09-09T10:24:39Z</time>
      </trkpt>
      <trkpt lat="44.1939" lon="5.94278">
        <ele>499.7</ele>
        <time>2021-09-09T10:24:40Z</time>
      </trkpt>
      <trkpt lat="44.19391" lon="5.94278">
        <ele>499.7</ele>
        <time>2021-09-09T10:24:42Z</time>
      </trkpt>
      <trkpt lat="44.19391" lon="5.94278">
        <ele>499.7</ele>
        <time>2021-09-09T10:24:43Z</time>
      </trkpt>
      <trkpt lat="44.19391" lon="5.94279">
        <ele>499.7</ele>
        <time>2021-09-09T10:24:44Z</time>
      </trkpt>
      <trkpt lat="44.19392" lon="5.94278">
        <ele>499.7</ele>
        <time>2021-09-09T10:24:45Z</time>
      </trkpt>
      <trkpt lat="44.19392" lon="5.94279">
        <ele>499.7</ele>
        <time>2021-09-09T10:24:47Z</time>
      </trkpt>
      <trkpt lat="44.19392" lon="5.94279">
        <ele>499.7</ele>
        <time>2021-09-09T10:24:48Z</time>
      </trkpt>
      <trkpt lat="44.19392" lon="5.94279">
        <ele>499.7</ele>
        <time>2021-09-09T10:24:49Z</time>
      </trkpt>
      <trkpt lat="44.19393" lon="5.94279">
        <ele>499.7</ele>
        <time>2021-09-09T10:24:51Z</time>
      </trkpt>
      <trkpt lat="44.19394" lon="5.94278">
        <ele>499.7</ele>
        <time>2021-09-09T10:24:52Z</time>
      </trkpt>
      <trkpt lat="44.19394" lon="5.94278">
        <ele>499.7</ele>
        <time>2021-09-09T10:24:53Z</time>
      </trkpt>
      <trkpt lat="44.19395" lon="5.94278">
        <ele>499.7</ele>
        <time>2021-09-09T10:24:54Z</time>
      </trkpt>
      <trkpt lat="44.19395" lon="5.94278">
        <ele>499.7</ele>
        <time>2021-09-09T10:24:56Z</time>
      </trkpt>
      <trkpt lat="44.19396" lon="5.94278">
        <ele>499.7</ele>
        <time>2021-09-09T10:24:57Z</time>
      </trkpt>
      <trkpt lat="44.19397" lon="5.94277">
        <ele>499.7</ele>
        <time>2021-09-09T10:24:58Z</time>
      </trkpt>
      <trkpt lat="44.19398" lon="5.94277">
        <ele>499.7</ele>
        <time>2021-09-09T10:24:59Z</time>
      </trkpt>
      <trkpt lat="44.19398" lon="5.94277">
        <ele>499.7</ele>
        <time>2021-09-09T10:25:00Z</time>
      </trkpt>
      <trkpt lat="44.19399" lon="5.94277">
        <ele>499.7</ele>
        <time>2021-09-09T10:25:02Z</time>
      </trkpt>
      <trkpt lat="44.194" lon="5.94277">
        <ele>499.7</ele>
        <time>2021-09-09T10:25:03Z</time>
      </trkpt>
      <trkpt lat="44.194" lon="5.94276">
        <ele>499.7</ele>
        <time>2021-09-09T10:25:04Z</time>
      </trkpt>
      <trkpt lat="44.19402" lon="5.94276">
        <ele>499.7</ele>
        <time>2021-09-09T10:25:05Z</time>
      </trkpt>
      <trkpt lat="44.19403" lon="5.94275">
        <ele>499.7</ele>
        <time>2021-09-09T10:25:07Z</time>
      </trkpt>
      <trkpt lat="44.19404" lon="5.94274">
        <ele>499.7</ele>
        <time>2021-09-09T10:25:08Z</time>
      </trkpt>
      <trkpt lat="44.19404" lon="5.94274">
        <ele>499.7</ele>
        <time>2021-09-09T10:25:09Z</time>
      </trkpt>
      <trkpt lat="44.19406" lon="5.94274">
        <ele>499.7</ele>
        <time>2021-09-09T10:25:11Z</time>
      </trkpt>
      <trkpt lat="44.19407" lon="5.94274">
        <ele>499.7</ele>
        <time>2021-09-09T10:25:12Z</time>
      </trkpt>
      <trkpt lat="44.19408" lon="5.94273">
        <ele>499.7</ele>
        <time>2021-09-09T10:25:13Z</time>
      </trkpt>
      <trkpt lat="44.19409" lon="5.94272">
        <ele>499.7</ele>
        <time>2021-09-09T10:25:15Z</time>
      </trkpt>
      <trkpt lat="44.1941" lon="5.94272">
        <ele>499.7</ele>
        <time>2021-09-09T10:25:16Z</time>
      </trkpt>
      <trkpt lat="44.19411" lon="5.94271">
        <ele>499.7</ele>
        <time>2021-09-09T10:25:17Z</time>
      </trkpt>
      <trkpt lat="44.19412" lon="5.9427">
        <ele>499.7</ele>
        <time>2021-09-09T10:25:19Z</time>
      </trkpt>
      <trkpt lat="44.19413" lon="5.9427">
        <ele>499.7</ele>
        <time>2021-09-09T10:25:20Z</time>
      </trkpt>
      <trkpt lat="44.19413" lon="5.9427">
        <ele>499.7</ele>
        <time>2021-09-09T10:25:21Z</time>
      </trkpt>
      <trkpt lat="44.19414" lon="5.94269">
        <ele>499.7</ele>
        <time>2021-09-09T10:25:23Z</time>
      </trkpt>
      <trkpt lat="44.19415" lon="5.94269">
        <ele>499.7</ele>
        <time>2021-09-09T10:25:24Z</time>
      </trkpt>
      <trkpt lat="44.19416" lon="5.94269">
        <ele>499.7</ele>
        <time>2021-09-09T10:25:25Z</time>
      </trkpt>
      <trkpt lat="44.19417" lon="5.94268">
        <ele>499.7</ele>
        <time>2021-09-09T10:25:27Z</time>
      </trkpt>
      <trkpt lat="44.19417" lon="5.94268">
        <ele>499.7</ele>
        <time>2021-09-09T10:25:28Z</time>
      </trkpt>
      <trkpt lat="44.19418" lon="5.94267">
        <ele>499.7</ele>
        <time>2021-09-09T10:25:30Z</time>
      </trkpt>
      <trkpt lat="44.19418" lon="5.94266">
        <ele>499.7</ele>
        <time>2021-09-09T10:25:31Z</time>
      </trkpt>
      <trkpt lat="44.19419" lon="5.94266">
        <ele>499.7</ele>
        <time>2021-09-09T10:25:32Z</time>
      </trkpt>
      <trkpt lat="44.1942" lon="5.94265">
        <ele>499.7</ele>
        <time>2021-09-09T10:25:34Z</time>
      </trkpt>
      <trkpt lat="44.1942" lon="5.94264">
        <ele>499.7</ele>
        <time>2021-09-09T10:25:36Z</time>
      </trkpt>
      <trkpt lat="44.19421" lon="5.94264">
        <ele>499.7</ele>
        <time>2021-09-09T10:25:37Z</time>
      </trkpt>
      <trkpt lat="44.19421" lon="5.94263">
        <ele>499.7</ele>
        <time>2021-09-09T10:25:39Z</time>
      </trkpt>
      <trkpt lat="44.19421" lon="5.94263">
        <ele>499.7</ele>
        <time>2021-09-09T10:25:40Z</time>
      </trkpt>
      <trkpt lat="44.19422" lon="5.94262">
        <ele>499.7</ele>
        <time>2021-09-09T10:25:42Z</time>
      </trkpt>
      <trkpt lat="44.19423" lon="5.94262">
        <ele>499.7</ele>
        <time>2021-09-09T10:25:44Z</time>
      </trkpt>
      <trkpt lat="44.19423" lon="5.94262">
        <ele>499.7</ele>
        <time>2021-09-09T10:25:47Z</time>
      </trkpt>
      <trkpt lat="44.19423" lon="5.94262">
        <ele>499.7</ele>
        <time>2021-09-09T10:25:48Z</time>
      </trkpt>
      <trkpt lat="44.19423" lon="5.94261">
        <ele>499.7</ele>
        <time>2021-09-09T10:25:50Z</time>
      </trkpt>
      <trkpt lat="44.19424" lon="5.94261">
        <ele>499.7</ele>
        <time>2021-09-09T10:25:52Z</time>
      </trkpt>
      <trkpt lat="44.19424" lon="5.94261">
        <ele>499.7</ele>
        <time>2021-09-09T10:25:54Z</time>
      </trkpt>
      <trkpt lat="44.19424" lon="5.94261">
        <ele>499.7</ele>
        <time>2021-09-09T10:25:55Z</time>
      </trkpt>
      <trkpt lat="44.19424" lon="5.94261">
        <ele>499.7</ele>
        <time>2021-09-09T10:25:56Z</time>
      </trkpt>
      <trkpt lat="44.19425" lon="5.9426">
        <ele>499.7</ele>
        <time>2021-09-09T10:25:58Z</time>
      </trkpt>
      <trkpt lat="44.19425" lon="5.9426">
        <ele>499.7</ele>
        <time>2021-09-09T10:25:59Z</time>
      </trkpt>
      <trkpt lat="44.19425" lon="5.9426">
        <ele>499.7</ele>
        <time>2021-09-09T10:26:01Z</time>
      </trkpt>
      <trkpt lat="44.19425" lon="5.94261">
        <ele>499.7</ele>
        <time>2021-09-09T10:26:02Z</time>
      </trkpt>
      <trkpt lat="44.19425" lon="5.94261">
        <ele>499.7</ele>
        <time>2021-09-09T10:26:03Z</time>
      </trkpt>
      <trkpt lat="44.19425" lon="5.94261">
        <ele>499.7</ele>
        <time>2021-09-09T10:26:05Z</time>
      </trkpt>
      <trkpt lat="44.19425" lon="5.94261">
        <ele>499.7</ele>
        <time>2021-09-09T10:26:06Z</time>
      </trkpt>
      <trkpt lat="44.19425" lon="5.94261">
        <ele>499.7</ele>
        <time>2021-09-09T10:26:08Z</time>
      </trkpt>
      <trkpt lat="44.19425" lon="5.94261">
        <ele>499.7</ele>
        <time>2021-09-09T10:26:09Z</time>
      </trkpt>
      <trkpt lat="44.19425" lon="5.94261">
        <ele>499.7</ele>
        <time>2021-09-09T10:26:10Z</time>
      </trkpt>
      <trkpt lat="44.19425" lon="5.94261">
        <ele>499.7</ele>
        <time>2021-09-09T10:26:12Z</time>
      </trkpt>
      <trkpt lat="44.19426" lon="5.94261">
        <ele>499.7</ele>
        <time>2021-09-09T10:26:14Z</time>
      </trkpt>
      <trkpt lat="44.19426" lon="5.94261">
        <ele>499.7</ele>
        <time>2021-09-09T10:26:15Z</time>
      </trkpt>
      <trkpt lat="44.19427" lon="5.94258">
        <ele>499.7</ele>
        <time>2021-09-09T10:26:16Z</time>
      </trkpt>
      <trkpt lat="44.19427" lon="5.94258">
        <ele>499.7</ele>
        <time>2021-09-09T10:26:17Z</time>
      </trkpt>
      <trkpt lat="44.19426" lon="5.94258">
        <ele>499.7</ele>
        <time>2021-09-09T10:26:19Z</time>
      </trkpt>
      <trkpt lat="44.19426" lon="5.94257">
        <ele>499.7</ele>
        <time>2021-09-09T10:26:21Z</time>
      </trkpt>
      <trkpt lat="44.19426" lon="5.94255">
        <ele>499.7</ele>
        <time>2021-09-09T10:26:22Z</time>
      </trkpt>
      <trkpt lat="44.19426" lon="5.94254">
        <ele>499.7</ele>
        <time>2021-09-09T10:26:23Z</time>
      </trkpt>
      <trkpt lat="44.19426" lon="5.94254">
        <ele>499.7</ele>
        <time>2021-09-09T10:26:24Z</time>
      </trkpt>
      <trkpt lat="44.19425" lon="5.94254">
        <ele>499.7</ele>
        <time>2021-09-09T10:26:26Z</time>
      </trkpt>
      <trkpt lat="44.19425" lon="5.94254">
        <ele>499.7</ele>
        <time>2021-09-09T10:26:27Z</time>
      </trkpt>
      <trkpt lat="44.19425" lon="5.94254">
        <ele>499.7</ele>
        <time>2021-09-09T10:26:28Z</time>
      </trkpt>
      <trkpt lat="44.19425" lon="5.94254">
        <ele>499.7</ele>
        <time>2021-09-09T10:26:30Z</time>
      </trkpt>
      <trkpt lat="44.19425" lon="5.94254">
        <ele>499.7</ele>
        <time>2021-09-09T10:26:31Z</time>
      </trkpt>
      <trkpt lat="44.19425" lon="5.94254">
        <ele>499.7</ele>
        <time>2021-09-09T10:26:33Z</time>
      </trkpt>
      <trkpt lat="44.19425" lon="5.94254">
        <ele>499.7</ele>
        <time>2021-09-09T10:26:34Z</time>
      </trkpt>
      <trkpt lat="44.19425" lon="5.94254">
        <ele>499.7</ele>
        <time>2021-09-09T10:26:36Z</time>
      </trkpt>
      <trkpt lat="44.19425" lon="5.94254">
        <ele>499.7</ele>
        <time>2021-09-09T10:26:37Z</time>
      </trkpt>
      <trkpt lat="44.19425" lon="5.94254">
        <ele>499.7</ele>
        <time>2021-09-09T10:26:38Z</time>
      </trkpt>
      <trkpt lat="44.19425" lon="5.94254">
        <ele>499.7</ele>
        <time>2021-09-09T10:26:39Z</time>
      </trkpt>
      <trkpt lat="44.19425" lon="5.94254">
        <ele>499.7</ele>
        <time>2021-09-09T10:26:41Z</time>
      </trkpt>
      <trkpt lat="44.19425" lon="5.94254">
        <ele>499.7</ele>
        <time>2021-09-09T10:26:42Z</time>
      </trkpt>
      <trkpt lat="44.19425" lon="5.94254">
        <ele>499.7</ele>
        <time>2021-09-09T10:26:43Z</time>
      </trkpt>
      <trkpt lat="44.19425" lon="5.94254">
        <ele>499.7</ele>
        <time>2021-09-09T10:26:45Z</time>
      </trkpt>
      <trkpt lat="44.19425" lon="5.94254">
        <ele>499.7</ele>
        <time>2021-09-09T10:26:47Z</time>
      </trkpt>
      <trkpt lat="44.19425" lon="5.94254">
        <ele>499.7</ele>
        <time>2021-09-09T10:26:48Z</time>
      </trkpt>
      <trkpt lat="44.19424" lon="5.94255">
        <ele>499.7</ele>
        <time>2021-09-09T10:26:50Z</time>
      </trkpt>
      <trkpt lat="44.19424" lon="5.94255">
        <ele>499.7</ele>
        <time>2021-09-09T10:26:52Z</time>
      </trkpt>
      <trkpt lat="44.19424" lon="5.94255">
        <ele>499.7</ele>
        <time>2021-09-09T10:26:53Z</time>
      </trkpt>
      <trkpt lat="44.19424" lon="5.94256">
        <ele>499.7</ele>
        <time>2021-09-09T10:26:54Z</time>
      </trkpt>
      <trkpt lat="44.19424" lon="5.94256">
        <ele>499.7</ele>
        <time>2021-09-09T10:26:56Z</time>
      </trkpt>
      <trkpt lat="44.19425" lon="5.94255">
        <ele>499.7</ele>
        <time>2021-09-09T10:26:57Z</time>
      </trkpt>
      <trkpt lat="44.19426" lon="5.94254">
        <ele>499.7</ele>
        <time>2021-09-09T10:26:59Z</time>
      </trkpt>
      <trkpt lat="44.19426" lon="5.94253">
        <ele>499.7</ele>
        <time>2021-09-09T10:27:00Z</time>
      </trkpt>
      <trkpt lat="44.19427" lon="5.94252">
        <ele>499.7</ele>
        <time>2021-09-09T10:27:01Z</time>
      </trkpt>
      <trkpt lat="44.19427" lon="5.94251">
        <ele>499.7</ele>
        <time>2021-09-09T10:27:02Z</time>
      </trkpt>
      <trkpt lat="44.19428" lon="5.94251">
        <ele>499.7</ele>
        <time>2021-09-09T10:27:04Z</time>
      </trkpt>
      <trkpt lat="44.19429" lon="5.9425">
        <ele>499.7</ele>
        <time>2021-09-09T10:27:05Z</time>
      </trkpt>
      <trkpt lat="44.1943" lon="5.9425">
        <ele>499.7</ele>
        <time>2021-09-09T10:27:07Z</time>
      </trkpt>
      <trkpt lat="44.1943" lon="5.9425">
        <ele>499.7</ele>
        <time>2021-09-09T10:27:08Z</time>
      </trkpt>
      <trkpt lat="44.19431" lon="5.9425">
        <ele>499.7</ele>
        <time>2021-09-09T10:27:10Z</time>
      </trkpt>
      <trkpt lat="44.19431" lon="5.9425">
        <ele>499.7</ele>
        <time>2021-09-09T10:27:11Z</time>
      </trkpt>
      <trkpt lat="44.19431" lon="5.9425">
        <ele>499.7</ele>
        <time>2021-09-09T10:27:13Z</time>
      </trkpt>
      <trkpt lat="44.19414" lon="5.9427">
        <ele>499.8</ele>
        <time>2021-09-09T10:41:14Z</time>
      </trkpt>
      <trkpt lat="44.19416" lon="5.94279">
        <ele>499.8</ele>
        <time>2021-09-09T10:41:16Z</time>
      </trkpt>
      <trkpt lat="44.19418" lon="5.94281">
        <ele>499.8</ele>
        <time>2021-09-09T10:41:18Z</time>
      </trkpt>
      <trkpt lat="44.19418" lon="5.94282">
        <ele>499.8</ele>
        <time>2021-09-09T10:41:19Z</time>
      </trkpt>
      <trkpt lat="44.19418" lon="5.94282">
        <ele>499.8</ele>
        <time>2021-09-09T10:41:21Z</time>
      </trkpt>
      <trkpt lat="44.19419" lon="5.94282">
        <ele>499.8</ele>
        <time>2021-09-09T10:41:22Z</time>
      </trkpt>
      <trkpt lat="44.1942" lon="5.94284">
        <ele>499.8</ele>
        <time>2021-09-09T10:41:24Z</time>
      </trkpt>
      <trkpt lat="44.19421" lon="5.94285">
        <ele>499.8</ele>
        <time>2021-09-09T10:41:25Z</time>
      </trkpt>
      <trkpt lat="44.19423" lon="5.94277">
        <ele>499.8</ele>
        <time>2021-09-09T10:41:27Z</time>
      </trkpt>
      <trkpt lat="44.19424" lon="5.94269">
        <ele>499.8</ele>
        <time>2021-09-09T10:44:31Z</time>
      </trkpt>
      <trkpt lat="44.19426" lon="5.94261">
        <ele>499.8</ele>
        <time>2021-09-09T10:44:32Z</time>
      </trkpt>
      <trkpt lat="44.19436" lon="5.94251">
        <ele>499.8</ele>
        <time>2021-09-09T10:44:34Z</time>
      </trkpt>
      <trkpt lat="44.19447" lon="5.94242">
        <ele>499.8</ele>
        <time>2021-09-09T10:44:36Z</time>
      </trkpt>
      <trkpt lat="44.19453" lon="5.94238">
        <ele>499.9</ele>
        <time>2021-09-09T10:44:37Z</time>
      </trkpt>
      <trkpt lat="44.19459" lon="5.94235">
        <ele>499.9</ele>
        <time>2021-09-09T10:44:39Z</time>
      </trkpt>
      <trkpt lat="44.19463" lon="5.94232">
        <ele>499.9</ele>
        <time>2021-09-09T10:44:40Z</time>
      </trkpt>
      <trkpt lat="44.19466" lon="5.94229">
        <ele>499.9</ele>
        <time>2021-09-09T10:44:41Z</time>
      </trkpt>
      <trkpt lat="44.19471" lon="5.94227">
        <ele>499.9</ele>
        <time>2021-09-09T10:44:42Z</time>
      </trkpt>
      <trkpt lat="44.19475" lon="5.94226">
        <ele>500</ele>
        <time>2021-09-09T10:44:43Z</time>
      </trkpt>
      <trkpt lat="44.19478" lon="5.94226">
        <ele>500</ele>
        <time>2021-09-09T10:44:44Z</time>
      </trkpt>
      <trkpt lat="44.19481" lon="5.94225">
        <ele>500</ele>
        <time>2021-09-09T10:44:45Z</time>
      </trkpt>
      <trkpt lat="44.19485" lon="5.94225">
        <ele>500.1</ele>
        <time>2021-09-09T10:44:47Z</time>
      </trkpt>
      <trkpt lat="44.19488" lon="5.94225">
        <ele>500.1</ele>
        <time>2021-09-09T10:44:48Z</time>
      </trkpt>
      <trkpt lat="44.19493" lon="5.94224">
        <ele>500.2</ele>
        <time>2021-09-09T10:44:49Z</time>
      </trkpt>
      <trkpt lat="44.19496" lon="5.94225">
        <ele>500.3</ele>
        <time>2021-09-09T10:44:50Z</time>
      </trkpt>
      <trkpt lat="44.19499" lon="5.94225">
        <ele>500.4</ele>
        <time>2021-09-09T10:44:51Z</time>
      </trkpt>
      <trkpt lat="44.19502" lon="5.94225">
        <ele>500.5</ele>
        <time>2021-09-09T10:44:53Z</time>
      </trkpt>
      <trkpt lat="44.19506" lon="5.94228">
        <ele>500.6</ele>
        <time>2021-09-09T10:44:54Z</time>
      </trkpt>
      <trkpt lat="44.19509" lon="5.94229">
        <ele>500.7</ele>
        <time>2021-09-09T10:44:55Z</time>
      </trkpt>
      <trkpt lat="44.19515" lon="5.94231">
        <ele>500.9</ele>
        <time>2021-09-09T10:44:57Z</time>
      </trkpt>
      <trkpt lat="44.1952" lon="5.94233">
        <ele>500.5</ele>
        <time>2021-09-09T10:44:59Z</time>
      </trkpt>
      <trkpt lat="44.19523" lon="5.94233">
        <ele>500.4</ele>
        <time>2021-09-09T10:45:00Z</time>
      </trkpt>
      <trkpt lat="44.19532" lon="5.94231">
        <ele>499.6</ele>
        <time>2021-09-09T10:45:02Z</time>
      </trkpt>
      <trkpt lat="44.19539" lon="5.94227">
        <ele>499.6</ele>
        <time>2021-09-09T10:45:04Z</time>
      </trkpt>
      <trkpt lat="44.19544" lon="5.94223">
        <ele>500</ele>
        <time>2021-09-09T10:45:05Z</time>
      </trkpt>
      <trkpt lat="44.19548" lon="5.9422">
        <ele>500.2</ele>
        <time>2021-09-09T10:45:06Z</time>
      </trkpt>
      <trkpt lat="44.19551" lon="5.94214">
        <ele>500.5</ele>
        <time>2021-09-09T10:45:08Z</time>
      </trkpt>
      <trkpt lat="44.19553" lon="5.94211">
        <ele>500.6</ele>
        <time>2021-09-09T10:45:09Z</time>
      </trkpt>
      <trkpt lat="44.19555" lon="5.94208">
        <ele>500.8</ele>
        <time>2021-09-09T10:45:10Z</time>
      </trkpt>
      <trkpt lat="44.19558" lon="5.94203">
        <ele>501</ele>
        <time>2021-09-09T10:45:12Z</time>
      </trkpt>
      <trkpt lat="44.19559" lon="5.94201">
        <ele>501.1</ele>
        <time>2021-09-09T10:45:13Z</time>
      </trkpt>
      <trkpt lat="44.1956" lon="5.942">
        <ele>501.2</ele>
        <time>2021-09-09T10:45:14Z</time>
      </trkpt>
      <trkpt lat="44.19564" lon="5.94199">
        <ele>501.3</ele>
        <time>2021-09-09T10:45:15Z</time>
      </trkpt>
      <trkpt lat="44.19566" lon="5.942">
        <ele>501.4</ele>
        <time>2021-09-09T10:45:16Z</time>
      </trkpt>
      <trkpt lat="44.19569" lon="5.94201">
        <ele>501.5</ele>
        <time>2021-09-09T10:45:17Z</time>
      </trkpt>
      <trkpt lat="44.19571" lon="5.942">
        <ele>501.6</ele>
        <time>2021-09-09T10:45:18Z</time>
      </trkpt>
      <trkpt lat="44.19573" lon="5.94198">
        <ele>501.7</ele>
        <time>2021-09-09T10:45:20Z</time>
      </trkpt>
      <trkpt lat="44.19574" lon="5.94196">
        <ele>501.8</ele>
        <time>2021-09-09T10:45:21Z</time>
      </trkpt>
      <trkpt lat="44.19576" lon="5.9419">
        <ele>502</ele>
        <time>2021-09-09T10:45:23Z</time>
      </trkpt>
      <trkpt lat="44.19578" lon="5.94189">
        <ele>502</ele>
        <time>2021-09-09T10:45:24Z</time>
      </trkpt>
      <trkpt lat="44.19579" lon="5.9419">
        <ele>502.1</ele>
        <time>2021-09-09T10:45:26Z</time>
      </trkpt>
      <trkpt lat="44.1958" lon="5.94189">
        <ele>502.1</ele>
        <time>2021-09-09T10:45:27Z</time>
      </trkpt>
      <trkpt lat="44.1958" lon="5.94189">
        <ele>502.1</ele>
        <time>2021-09-09T10:45:28Z</time>
      </trkpt>
      <trkpt lat="44.19581" lon="5.94187">
        <ele>502.2</ele>
        <time>2021-09-09T10:45:30Z</time>
      </trkpt>
      <trkpt lat="44.19582" lon="5.94185">
        <ele>502.2</ele>
        <time>2021-09-09T10:45:31Z</time>
      </trkpt>
      <trkpt lat="44.19582" lon="5.94184">
        <ele>502.2</ele>
        <time>2021-09-09T10:45:32Z</time>
      </trkpt>
      <trkpt lat="44.19582" lon="5.94183">
        <ele>502.3</ele>
        <time>2021-09-09T10:45:33Z</time>
      </trkpt>
      <trkpt lat="44.19582" lon="5.94183">
        <ele>502.3</ele>
        <time>2021-09-09T10:45:34Z</time>
      </trkpt>
      <trkpt lat="44.19582" lon="5.94183">
        <ele>502.3</ele>
        <time>2021-09-09T10:45:36Z</time>
      </trkpt>
      <trkpt lat="44.19581" lon="5.94183">
        <ele>502.3</ele>
        <time>2021-09-09T10:45:37Z</time>
      </trkpt>
      <trkpt lat="44.19581" lon="5.94182">
        <ele>502.3</ele>
        <time>2021-09-09T10:45:38Z</time>
      </trkpt>
      <trkpt lat="44.19581" lon="5.94183">
        <ele>502.3</ele>
        <time>2021-09-09T10:45:39Z</time>
      </trkpt>
      <trkpt lat="44.19581" lon="5.94183">
        <ele>502.3</ele>
        <time>2021-09-09T10:45:40Z</time>
      </trkpt>
      <trkpt lat="44.19581" lon="5.94184">
        <ele>502.3</ele>
        <time>2021-09-09T10:45:42Z</time>
      </trkpt>
      <trkpt lat="44.19589" lon="5.9419">
        <ele>502.5</ele>
        <time>2021-09-09T10:46:58Z</time>
      </trkpt>
      <trkpt lat="44.19597" lon="5.942">
        <ele>502.6</ele>
        <time>2021-09-09T10:47:04Z</time>
      </trkpt>
      <trkpt lat="44.19596" lon="5.942">
        <ele>502.6</ele>
        <time>2021-09-09T10:47:06Z</time>
      </trkpt>
      <trkpt lat="44.19596" lon="5.94199">
        <ele>502.6</ele>
        <time>2021-09-09T10:47:07Z</time>
      </trkpt>
      <trkpt lat="44.19596" lon="5.942">
        <ele>502.6</ele>
        <time>2021-09-09T10:47:08Z</time>
      </trkpt>
      <trkpt lat="44.19596" lon="5.942">
        <ele>502.6</ele>
        <time>2021-09-09T10:47:10Z</time>
      </trkpt>
      <trkpt lat="44.19596" lon="5.942">
        <ele>502.6</ele>
        <time>2021-09-09T10:47:11Z</time>
      </trkpt>
      <trkpt lat="44.19597" lon="5.942">
        <ele>502.6</ele>
        <time>2021-09-09T10:47:12Z</time>
      </trkpt>
      <trkpt lat="44.19598" lon="5.942">
        <ele>502.6</ele>
        <time>2021-09-09T10:47:13Z</time>
      </trkpt>
      <trkpt lat="44.19599" lon="5.942">
        <ele>502.6</ele>
        <time>2021-09-09T10:47:15Z</time>
      </trkpt>
      <trkpt lat="44.19599" lon="5.942">
        <ele>502.6</ele>
        <time>2021-09-09T10:47:16Z</time>
      </trkpt>
      <trkpt lat="44.19606" lon="5.94189">
        <ele>502.6</ele>
        <time>2021-09-09T10:49:15Z</time>
      </trkpt>
      <trkpt lat="44.19605" lon="5.9419">
        <ele>502.6</ele>
        <time>2021-09-09T10:49:17Z</time>
      </trkpt>
      <trkpt lat="44.19605" lon="5.9419">
        <ele>502.6</ele>
        <time>2021-09-09T10:49:24Z</time>
      </trkpt>
      <trkpt lat="44.19605" lon="5.9419">
        <ele>502.6</ele>
        <time>2021-09-09T10:49:30Z</time>
      </trkpt>
      <trkpt lat="44.19608" lon="5.94189">
        <ele>502.6</ele>
        <time>2021-09-09T10:49:36Z</time>
      </trkpt>
      <trkpt lat="44.19608" lon="5.94189">
        <ele>502.6</ele>
        <time>2021-09-09T10:49:37Z</time>
      </trkpt>
      <trkpt lat="44.19607" lon="5.94189">
        <ele>502.6</ele>
        <time>2021-09-09T10:49:38Z</time>
      </trkpt>
      <trkpt lat="44.19607" lon="5.9419">
        <ele>502.6</ele>
        <time>2021-09-09T10:49:39Z</time>
      </trkpt>
      <trkpt lat="44.19606" lon="5.9419">
        <ele>502.6</ele>
        <time>2021-09-09T10:49:41Z</time>
      </trkpt>
      <trkpt lat="44.19606" lon="5.94189">
        <ele>502.6</ele>
        <time>2021-09-09T10:49:42Z</time>
      </trkpt>
      <trkpt lat="44.19605" lon="5.94188">
        <ele>502.6</ele>
        <time>2021-09-09T10:49:43Z</time>
      </trkpt>
      <trkpt lat="44.19605" lon="5.94187">
        <ele>502.6</ele>
        <time>2021-09-09T10:49:45Z</time>
      </trkpt>
      <trkpt lat="44.19605" lon="5.94187">
        <ele>502.6</ele>
        <time>2021-09-09T10:49:50Z</time>
      </trkpt>
      <trkpt lat="44.19604" lon="5.94188">
        <ele>502.6</ele>
        <time>2021-09-09T10:49:52Z</time>
      </trkpt>
      <trkpt lat="44.19604" lon="5.94188">
        <ele>502.6</ele>
        <time>2021-09-09T10:49:54Z</time>
      </trkpt>
      <trkpt lat="44.19602" lon="5.94191">
        <ele>502.6</ele>
        <time>2021-09-09T10:50:03Z</time>
      </trkpt>
      <trkpt lat="44.19594" lon="5.94196">
        <ele>502.6</ele>
        <time>2021-09-09T10:50:10Z</time>
      </trkpt>
      <trkpt lat="44.19593" lon="5.94199">
        <ele>502.6</ele>
        <time>2021-09-09T10:50:16Z</time>
      </trkpt>
      <trkpt lat="44.196" lon="5.94201">
        <ele>502.6</ele>
        <time>2021-09-09T10:50:23Z</time>
      </trkpt>
      <trkpt lat="44.196" lon="5.94199">
        <ele>502.6</ele>
        <time>2021-09-09T10:50:26Z</time>
      </trkpt>
      <trkpt lat="44.196" lon="5.94199">
        <ele>502.6</ele>
        <time>2021-09-09T10:50:27Z</time>
      </trkpt>
      <trkpt lat="44.196" lon="5.94199">
        <ele>502.6</ele>
        <time>2021-09-09T10:50:28Z</time>
      </trkpt>
      <trkpt lat="44.196" lon="5.94199">
        <ele>502.6</ele>
        <time>2021-09-09T10:50:30Z</time>
      </trkpt>
      <trkpt lat="44.19603" lon="5.94199">
        <ele>502.6</ele>
        <time>2021-09-09T10:50:31Z</time>
      </trkpt>
      <trkpt lat="44.19604" lon="5.94198">
        <ele>502.6</ele>
        <time>2021-09-09T10:50:32Z</time>
      </trkpt>
      <trkpt lat="44.19606" lon="5.94194">
        <ele>502.6</ele>
        <time>2021-09-09T10:50:34Z</time>
      </trkpt>
      <trkpt lat="44.19608" lon="5.9419">
        <ele>502.6</ele>
        <time>2021-09-09T10:50:35Z</time>
      </trkpt>
      <trkpt lat="44.1961" lon="5.94186">
        <ele>502.6</ele>
        <time>2021-09-09T10:50:36Z</time>
      </trkpt>
      <trkpt lat="44.19644" lon="5.94207">
        <ele>502.4</ele>
        <time>2021-09-09T10:51:27Z</time>
      </trkpt>
      <trkpt lat="44.19645" lon="5.94209">
        <ele>502.3</ele>
        <time>2021-09-09T10:51:28Z</time>
      </trkpt>
      <trkpt lat="44.19645" lon="5.94211">
        <ele>502.3</ele>
        <time>2021-09-09T10:51:29Z</time>
      </trkpt>
      <trkpt lat="44.19645" lon="5.94212">
        <ele>502.3</ele>
        <time>2021-09-09T10:51:30Z</time>
      </trkpt>
      <trkpt lat="44.19646" lon="5.94215">
        <ele>502.2</ele>
        <time>2021-09-09T10:51:31Z</time>
      </trkpt>
      <trkpt lat="44.19646" lon="5.94217">
        <ele>502.2</ele>
        <time>2021-09-09T10:51:32Z</time>
      </trkpt>
      <trkpt lat="44.19647" lon="5.94218">
        <ele>502.1</ele>
        <time>2021-09-09T10:51:33Z</time>
      </trkpt>
      <trkpt lat="44.19647" lon="5.94221">
        <ele>502.1</ele>
        <time>2021-09-09T10:51:35Z</time>
      </trkpt>
      <trkpt lat="44.19648" lon="5.94222">
        <ele>502</ele>
        <time>2021-09-09T10:51:36Z</time>
      </trkpt>
      <trkpt lat="44.19649" lon="5.94223">
        <ele>502</ele>
        <time>2021-09-09T10:51:37Z</time>
      </trkpt>
      <trkpt lat="44.19649" lon="5.94225">
        <ele>502</ele>
        <time>2021-09-09T10:51:39Z</time>
      </trkpt>
      <trkpt lat="44.1965" lon="5.94226">
        <ele>501.8</ele>
        <time>2021-09-09T10:51:40Z</time>
      </trkpt>
      <trkpt lat="44.19651" lon="5.94229">
        <ele>501.8</ele>
        <time>2021-09-09T10:51:41Z</time>
      </trkpt>
      <trkpt lat="44.19651" lon="5.9423">
        <ele>501.8</ele>
        <time>2021-09-09T10:51:42Z</time>
      </trkpt>
      <trkpt lat="44.19651" lon="5.94231">
        <ele>501.8</ele>
        <time>2021-09-09T10:51:43Z</time>
      </trkpt>
      <trkpt lat="44.19652" lon="5.94234">
        <ele>501.8</ele>
        <time>2021-09-09T10:51:44Z</time>
      </trkpt>
      <trkpt lat="44.19654" lon="5.94238">
        <ele>501.8</ele>
        <time>2021-09-09T10:51:46Z</time>
      </trkpt>
      <trkpt lat="44.19655" lon="5.94241">
        <ele>501.7</ele>
        <time>2021-09-09T10:51:47Z</time>
      </trkpt>
      <trkpt lat="44.19656" lon="5.94242">
        <ele>501.7</ele>
        <time>2021-09-09T10:51:48Z</time>
      </trkpt>
      <trkpt lat="44.19657" lon="5.94246">
        <ele>501.7</ele>
        <time>2021-09-09T10:51:49Z</time>
      </trkpt>
      <trkpt lat="44.19658" lon="5.94248">
        <ele>501.7</ele>
        <time>2021-09-09T10:51:50Z</time>
      </trkpt>
      <trkpt lat="44.19659" lon="5.9425">
        <ele>501.6</ele>
        <time>2021-09-09T10:51:52Z</time>
      </trkpt>
      <trkpt lat="44.19659" lon="5.94251">
        <ele>501.6</ele>
        <time>2021-09-09T10:51:53Z</time>
      </trkpt>
      <trkpt lat="44.1966" lon="5.94252">
        <ele>501.6</ele>
        <time>2021-09-09T10:51:54Z</time>
      </trkpt>
      <trkpt lat="44.19661" lon="5.94252">
        <ele>501.6</ele>
        <time>2021-09-09T10:51:55Z</time>
      </trkpt>
      <trkpt lat="44.19662" lon="5.94254">
        <ele>501.6</ele>
        <time>2021-09-09T10:51:57Z</time>
      </trkpt>
      <trkpt lat="44.19663" lon="5.94256">
        <ele>501.6</ele>
        <time>2021-09-09T10:51:58Z</time>
      </trkpt>
      <trkpt lat="44.19664" lon="5.94257">
        <ele>501.6</ele>
        <time>2021-09-09T10:51:59Z</time>
      </trkpt>
      <trkpt lat="44.19666" lon="5.94259">
        <ele>501.5</ele>
        <time>2021-09-09T10:52:01Z</time>
      </trkpt>
      <trkpt lat="44.19667" lon="5.9426">
        <ele>501.5</ele>
        <time>2021-09-09T10:52:02Z</time>
      </trkpt>
      <trkpt lat="44.19667" lon="5.9426">
        <ele>501.5</ele>
        <time>2021-09-09T10:52:03Z</time>
      </trkpt>
      <trkpt lat="44.19668" lon="5.94262">
        <ele>501.5</ele>
        <time>2021-09-09T10:52:04Z</time>
      </trkpt>
      <trkpt lat="44.19669" lon="5.94263">
        <ele>501.5</ele>
        <time>2021-09-09T10:52:06Z</time>
      </trkpt>
      <trkpt lat="44.1967" lon="5.94264">
        <ele>501.5</ele>
        <time>2021-09-09T10:52:07Z</time>
      </trkpt>
      <trkpt lat="44.19671" lon="5.94265">
        <ele>501.5</ele>
        <time>2021-09-09T10:52:09Z</time>
      </trkpt>
      <trkpt lat="44.19672" lon="5.94267">
        <ele>501.5</ele>
        <time>2021-09-09T10:52:10Z</time>
      </trkpt>
      <trkpt lat="44.19673" lon="5.94269">
        <ele>501.4</ele>
        <time>2021-09-09T10:52:11Z</time>
      </trkpt>
      <trkpt lat="44.19673" lon="5.9427">
        <ele>501.4</ele>
        <time>2021-09-09T10:52:12Z</time>
      </trkpt>
      <trkpt lat="44.19674" lon="5.94272">
        <ele>501.4</ele>
        <time>2021-09-09T10:52:14Z</time>
      </trkpt>
      <trkpt lat="44.19675" lon="5.94273">
        <ele>501.4</ele>
        <time>2021-09-09T10:52:16Z</time>
      </trkpt>
      <trkpt lat="44.19675" lon="5.94274">
        <ele>501.4</ele>
        <time>2021-09-09T10:52:17Z</time>
      </trkpt>
      <trkpt lat="44.19676" lon="5.94275">
        <ele>501.3</ele>
        <time>2021-09-09T10:52:19Z</time>
      </trkpt>
      <trkpt lat="44.19677" lon="5.94276">
        <ele>501.3</ele>
        <time>2021-09-09T10:52:20Z</time>
      </trkpt>
      <trkpt lat="44.19678" lon="5.94275">
        <ele>501.3</ele>
        <time>2021-09-09T10:52:22Z</time>
      </trkpt>
      <trkpt lat="44.19679" lon="5.94276">
        <ele>501.3</ele>
        <time>2021-09-09T10:52:23Z</time>
      </trkpt>
      <trkpt lat="44.1968" lon="5.94277">
        <ele>501.3</ele>
        <time>2021-09-09T10:52:25Z</time>
      </trkpt>
      <trkpt lat="44.19681" lon="5.94277">
        <ele>501.3</ele>
        <time>2021-09-09T10:52:26Z</time>
      </trkpt>
      <trkpt lat="44.19682" lon="5.94278">
        <ele>501.3</ele>
        <time>2021-09-09T10:52:28Z</time>
      </trkpt>
      <trkpt lat="44.19683" lon="5.94277">
        <ele>501.2</ele>
        <time>2021-09-09T10:52:30Z</time>
      </trkpt>
      <trkpt lat="44.19684" lon="5.94281">
        <ele>501.2</ele>
        <time>2021-09-09T10:52:31Z</time>
      </trkpt>
      <trkpt lat="44.19686" lon="5.94282">
        <ele>501.2</ele>
        <time>2021-09-09T10:52:33Z</time>
      </trkpt>
      <trkpt lat="44.19686" lon="5.94282">
        <ele>501.2</ele>
        <time>2021-09-09T10:52:34Z</time>
      </trkpt>
      <trkpt lat="44.19687" lon="5.94281">
        <ele>501.2</ele>
        <time>2021-09-09T10:52:36Z</time>
      </trkpt>
      <trkpt lat="44.19688" lon="5.94283">
        <ele>501.1</ele>
        <time>2021-09-09T10:52:37Z</time>
      </trkpt>
      <trkpt lat="44.19689" lon="5.94284">
        <ele>501.1</ele>
        <time>2021-09-09T10:52:39Z</time>
      </trkpt>
      <trkpt lat="44.19698" lon="5.9428">
        <ele>501</ele>
        <time>2021-09-09T10:52:41Z</time>
      </trkpt>
      <trkpt lat="44.19703" lon="5.94277">
        <ele>500.9</ele>
        <time>2021-09-09T10:52:42Z</time>
      </trkpt>
      <trkpt lat="44.19709" lon="5.94274">
        <ele>500.7</ele>
        <time>2021-09-09T10:52:44Z</time>
      </trkpt>
      <trkpt lat="44.1971" lon="5.94274">
        <ele>500.7</ele>
        <time>2021-09-09T10:52:45Z</time>
      </trkpt>
      <trkpt lat="44.19711" lon="5.94273">
        <ele>500.7</ele>
        <time>2021-09-09T10:52:46Z</time>
      </trkpt>
      <trkpt lat="44.19712" lon="5.94273">
        <ele>500.7</ele>
        <time>2021-09-09T10:52:47Z</time>
      </trkpt>
      <trkpt lat="44.19712" lon="5.94273">
        <ele>500.7</ele>
        <time>2021-09-09T10:52:49Z</time>
      </trkpt>
      <trkpt lat="44.19711" lon="5.94275">
        <ele>500.6</ele>
        <time>2021-09-09T10:52:50Z</time>
      </trkpt>
      <trkpt lat="44.19707" lon="5.9428">
        <ele>500.5</ele>
        <time>2021-09-09T10:52:52Z</time>
      </trkpt>
      <trkpt lat="44.19703" lon="5.94286">
        <ele>500.4</ele>
        <time>2021-09-09T10:52:54Z</time>
      </trkpt>
      <trkpt lat="44.19698" lon="5.9429">
        <ele>500.2</ele>
        <time>2021-09-09T10:52:56Z</time>
      </trkpt>
      <trkpt lat="44.19694" lon="5.94294">
        <ele>500.1</ele>
        <time>2021-09-09T10:52:57Z</time>
      </trkpt>
      <trkpt lat="44.19693" lon="5.94295">
        <ele>500.1</ele>
        <time>2021-09-09T10:52:58Z</time>
      </trkpt>
      <trkpt lat="44.19691" lon="5.94296">
        <ele>500</ele>
        <time>2021-09-09T10:52:59Z</time>
      </trkpt>
      <trkpt lat="44.1969" lon="5.94297">
        <ele>500</ele>
        <time>2021-09-09T10:53:00Z</time>
      </trkpt>
      <trkpt lat="44.19689" lon="5.94297">
        <ele>500</ele>
        <time>2021-09-09T10:53:02Z</time>
      </trkpt>
      <trkpt lat="44.19689" lon="5.94296">
        <ele>499.9</ele>
        <time>2021-09-09T10:53:03Z</time>
      </trkpt>
      <trkpt lat="44.19688" lon="5.94296">
        <ele>499.9</ele>
        <time>2021-09-09T10:53:04Z</time>
      </trkpt>
      <trkpt lat="44.19688" lon="5.94295">
        <ele>499.9</ele>
        <time>2021-09-09T10:53:06Z</time>
      </trkpt>
      <trkpt lat="44.19687" lon="5.94295">
        <ele>499.9</ele>
        <time>2021-09-09T10:53:09Z</time>
      </trkpt>
      <trkpt lat="44.19687" lon="5.94295">
        <ele>499.9</ele>
        <time>2021-09-09T10:53:14Z</time>
      </trkpt>
      <trkpt lat="44.19686" lon="5.94294">
        <ele>499.9</ele>
        <time>2021-09-09T10:53:16Z</time>
      </trkpt>
      <trkpt lat="44.19686" lon="5.94294">
        <ele>499.9</ele>
        <time>2021-09-09T10:53:23Z</time>
      </trkpt>
      <trkpt lat="44.19685" lon="5.94294">
        <ele>499.8</ele>
        <time>2021-09-09T10:53:24Z</time>
      </trkpt>
      <trkpt lat="44.19685" lon="5.94293">
        <ele>499.8</ele>
        <time>2021-09-09T10:53:27Z</time>
      </trkpt>
      <trkpt lat="44.19684" lon="5.94293">
        <ele>499.8</ele>
        <time>2021-09-09T10:53:29Z</time>
      </trkpt>
      <trkpt lat="44.19684" lon="5.94293">
        <ele>499.8</ele>
        <time>2021-09-09T10:53:30Z</time>
      </trkpt>
      <trkpt lat="44.19683" lon="5.94292">
        <ele>499.8</ele>
        <time>2021-09-09T10:53:33Z</time>
      </trkpt>
      <trkpt lat="44.19683" lon="5.94292">
        <ele>499.8</ele>
        <time>2021-09-09T10:53:36Z</time>
      </trkpt>
      <trkpt lat="44.19682" lon="5.94291">
        <ele>499.7</ele>
        <time>2021-09-09T10:53:37Z</time>
      </trkpt>
      <trkpt lat="44.19682" lon="5.94291">
        <ele>499.7</ele>
        <time>2021-09-09T10:53:38Z</time>
      </trkpt>
      <trkpt lat="44.19681" lon="5.94291">
        <ele>499.7</ele>
        <time>2021-09-09T10:53:46Z</time>
      </trkpt>
      <trkpt lat="44.19681" lon="5.9429">
        <ele>499.7</ele>
        <time>2021-09-09T10:53:48Z</time>
      </trkpt>
      <trkpt lat="44.1968" lon="5.9429">
        <ele>499.7</ele>
        <time>2021-09-09T10:53:49Z</time>
      </trkpt>
      <trkpt lat="44.1968" lon="5.9429">
        <ele>499.7</ele>
        <time>2021-09-09T10:53:50Z</time>
      </trkpt>
      <trkpt lat="44.19679" lon="5.94289">
        <ele>499.7</ele>
        <time>2021-09-09T10:53:51Z</time>
      </trkpt>
      <trkpt lat="44.19678" lon="5.94288">
        <ele>499.6</ele>
        <time>2021-09-09T10:53:53Z</time>
      </trkpt>
      <trkpt lat="44.19677" lon="5.94287">
        <ele>499.6</ele>
        <time>2021-09-09T10:53:54Z</time>
      </trkpt>
      <trkpt lat="44.19677" lon="5.94286">
        <ele>499.6</ele>
        <time>2021-09-09T10:53:55Z</time>
      </trkpt>
      <trkpt lat="44.19673" lon="5.94282">
        <ele>499.4</ele>
        <time>2021-09-09T10:53:56Z</time>
      </trkpt>
      <trkpt lat="44.19669" lon="5.94278">
        <ele>499.3</ele>
        <time>2021-09-09T10:53:58Z</time>
      </trkpt>
      <trkpt lat="44.19666" lon="5.94275">
        <ele>499.2</ele>
        <time>2021-09-09T10:53:59Z</time>
      </trkpt>
      <trkpt lat="44.19665" lon="5.94273">
        <ele>499.1</ele>
        <time>2021-09-09T10:54:00Z</time>
      </trkpt>
      <trkpt lat="44.19665" lon="5.94273">
        <ele>499.1</ele>
        <time>2021-09-09T10:54:02Z</time>
      </trkpt>
      <trkpt lat="44.19665" lon="5.94273">
        <ele>499.1</ele>
        <time>2021-09-09T10:54:09Z</time>
      </trkpt>
      <trkpt lat="44.19665" lon="5.94273">
        <ele>499.1</ele>
        <time>2021-09-09T10:54:14Z</time>
      </trkpt>
      <trkpt lat="44.19665" lon="5.94273">
        <ele>499.1</ele>
        <time>2021-09-09T10:54:21Z</time>
      </trkpt>
      <trkpt lat="44.19665" lon="5.94274">
        <ele>499.1</ele>
        <time>2021-09-09T10:54:23Z</time>
      </trkpt>
      <trkpt lat="44.19665" lon="5.94274">
        <ele>499.1</ele>
        <time>2021-09-09T10:54:24Z</time>
      </trkpt>
      <trkpt lat="44.19665" lon="5.94274">
        <ele>499.1</ele>
        <time>2021-09-09T10:54:25Z</time>
      </trkpt>
      <trkpt lat="44.19665" lon="5.94274">
        <ele>499.1</ele>
        <time>2021-09-09T10:54:27Z</time>
      </trkpt>
      <trkpt lat="44.19665" lon="5.94274">
        <ele>499.1</ele>
        <time>2021-09-09T10:54:29Z</time>
      </trkpt>
      <trkpt lat="44.19665" lon="5.94274">
        <ele>499.1</ele>
        <time>2021-09-09T10:54:34Z</time>
      </trkpt>
      <trkpt lat="44.19665" lon="5.94274">
        <ele>499.1</ele>
        <time>2021-09-09T10:54:42Z</time>
      </trkpt>
      <trkpt lat="44.19665" lon="5.94274">
        <ele>499.1</ele>
        <time>2021-09-09T10:54:49Z</time>
      </trkpt>
      <trkpt lat="44.19665" lon="5.94274">
        <ele>499.1</ele>
        <time>2021-09-09T10:54:55Z</time>
      </trkpt>
      <trkpt lat="44.19665" lon="5.94274">
        <ele>499.1</ele>
        <time>2021-09-09T10:55:02Z</time>
      </trkpt>
      <trkpt lat="44.19665" lon="5.94274">
        <ele>499.1</ele>
        <time>2021-09-09T10:55:08Z</time>
      </trkpt>
      <trkpt lat="44.19665" lon="5.94274">
        <ele>499.1</ele>
        <time>2021-09-09T10:55:15Z</time>
      </trkpt>
      <trkpt lat="44.19665" lon="5.94274">
        <ele>499.1</ele>
        <time>2021-09-09T10:55:15Z</time>
      </trkpt>
      <trkpt lat="44.19668" lon="5.94277">
        <ele>499</ele>
        <time>2021-09-09T10:55:21Z</time>
      </trkpt>
      <trkpt lat="44.19667" lon="5.94277">
        <ele>499</ele>
        <time>2021-09-09T10:55:27Z</time>
      </trkpt>
      <trkpt lat="44.19667" lon="5.94278">
        <ele>499</ele>
        <time>2021-09-09T10:55:29Z</time>
      </trkpt>
      <trkpt lat="44.19667" lon="5.94279">
        <ele>499</ele>
        <time>2021-09-09T10:55:30Z</time>
      </trkpt>
      <trkpt lat="44.19666" lon="5.9428">
        <ele>498.9</ele>
        <time>2021-09-09T10:55:32Z</time>
      </trkpt>
      <trkpt lat="44.19666" lon="5.94281">
        <ele>498.9</ele>
        <time>2021-09-09T10:55:35Z</time>
      </trkpt>
      <trkpt lat="44.19666" lon="5.94281">
        <ele>498.9</ele>
        <time>2021-09-09T10:55:41Z</time>
      </trkpt>
      <trkpt lat="44.19665" lon="5.94282">
        <ele>498.9</ele>
        <time>2021-09-09T10:56:08Z</time>
      </trkpt>
      <trkpt lat="44.19665" lon="5.94283">
        <ele>498.9</ele>
        <time>2021-09-09T10:56:15Z</time>
      </trkpt>
      <trkpt lat="44.19664" lon="5.94284">
        <ele>498.8</ele>
        <time>2021-09-09T10:56:22Z</time>
      </trkpt>
      <trkpt lat="44.19664" lon="5.94285">
        <ele>498.8</ele>
        <time>2021-09-09T10:56:27Z</time>
      </trkpt>
      <trkpt lat="44.19664" lon="5.94286">
        <ele>498.8</ele>
        <time>2021-09-09T10:56:28Z</time>
      </trkpt>
      <trkpt lat="44.19663" lon="5.94287">
        <ele>498.8</ele>
        <time>2021-09-09T10:56:29Z</time>
      </trkpt>
      <trkpt lat="44.19663" lon="5.94285">
        <ele>498.8</ele>
        <time>2021-09-09T10:56:31Z</time>
      </trkpt>
      <trkpt lat="44.19664" lon="5.94283">
        <ele>498.7</ele>
        <time>2021-09-09T10:56:32Z</time>
      </trkpt>
      <trkpt lat="44.19663" lon="5.94284">
        <ele>498.7</ele>
        <time>2021-09-09T10:56:34Z</time>
      </trkpt>
      <trkpt lat="44.19664" lon="5.94286">
        <ele>498.6</ele>
        <time>2021-09-09T10:56:35Z</time>
      </trkpt>
      <trkpt lat="44.19665" lon="5.94288">
        <ele>498.6</ele>
        <time>2021-09-09T10:56:36Z</time>
      </trkpt>
      <trkpt lat="44.19665" lon="5.9429">
        <ele>498.5</ele>
        <time>2021-09-09T10:56:38Z</time>
      </trkpt>
      <trkpt lat="44.19666" lon="5.94293">
        <ele>498.5</ele>
        <time>2021-09-09T10:56:39Z</time>
      </trkpt>
      <trkpt lat="44.19666" lon="5.94294">
        <ele>498.4</ele>
        <time>2021-09-09T10:56:41Z</time>
      </trkpt>
      <trkpt lat="44.19667" lon="5.94295">
        <ele>498.4</ele>
        <time>2021-09-09T10:56:42Z</time>
      </trkpt>
      <trkpt lat="44.19668" lon="5.94299">
        <ele>498.3</ele>
        <time>2021-09-09T10:56:44Z</time>
      </trkpt>
      <trkpt lat="44.1967" lon="5.94309">
        <ele>498.1</ele>
        <time>2021-09-09T10:56:46Z</time>
      </trkpt>
      <trkpt lat="44.19671" lon="5.94313">
        <ele>497.9</ele>
        <time>2021-09-09T10:56:47Z</time>
      </trkpt>
      <trkpt lat="44.19672" lon="5.94321">
        <ele>497.8</ele>
        <time>2021-09-09T10:56:49Z</time>
      </trkpt>
      <trkpt lat="44.19673" lon="5.94324">
        <ele>497.7</ele>
        <time>2021-09-09T10:56:50Z</time>
      </trkpt>
      <trkpt lat="44.19674" lon="5.94327">
        <ele>497.6</ele>
        <time>2021-09-09T10:56:52Z</time>
      </trkpt>
      <trkpt lat="44.19678" lon="5.94333">
        <ele>497.4</ele>
        <time>2021-09-09T10:56:54Z</time>
      </trkpt>
      <trkpt lat="44.19681" lon="5.94335">
        <ele>497.3</ele>
        <time>2021-09-09T10:56:55Z</time>
      </trkpt>
      <trkpt lat="44.19689" lon="5.94339">
        <ele>497</ele>
        <time>2021-09-09T10:56:56Z</time>
      </trkpt>
      <trkpt lat="44.19692" lon="5.94342">
        <ele>496.9</ele>
        <time>2021-09-09T10:56:57Z</time>
      </trkpt>
      <trkpt lat="44.19693" lon="5.94343">
        <ele>496.8</ele>
        <time>2021-09-09T10:56:58Z</time>
      </trkpt>
      <trkpt lat="44.19696" lon="5.94347">
        <ele>496.7</ele>
        <time>2021-09-09T10:57:00Z</time>
      </trkpt>
      <trkpt lat="44.19698" lon="5.94351">
        <ele>496.6</ele>
        <time>2021-09-09T10:57:02Z</time>
      </trkpt>
      <trkpt lat="44.19699" lon="5.94349">
        <ele>496.5</ele>
        <time>2021-09-09T10:57:04Z</time>
      </trkpt>
      <trkpt lat="44.19699" lon="5.94345">
        <ele>496.4</ele>
        <time>2021-09-09T10:57:06Z</time>
      </trkpt>
      <trkpt lat="44.19699" lon="5.94343">
        <ele>496.4</ele>
        <time>2021-09-09T10:57:08Z</time>
      </trkpt>
      <trkpt lat="44.19699" lon="5.94343">
        <ele>496.4</ele>
        <time>2021-09-09T10:57:09Z</time>
      </trkpt>
      <trkpt lat="44.19698" lon="5.94344">
        <ele>496.3</ele>
        <time>2021-09-09T10:57:11Z</time>
      </trkpt>
      <trkpt lat="44.19698" lon="5.94345">
        <ele>496.3</ele>
        <time>2021-09-09T10:57:12Z</time>
      </trkpt>
      <trkpt lat="44.19698" lon="5.94347">
        <ele>496.3</ele>
        <time>2021-09-09T10:57:14Z</time>
      </trkpt>
      <trkpt lat="44.19697" lon="5.94349">
        <ele>496.2</ele>
        <time>2021-09-09T10:57:15Z</time>
      </trkpt>
      <trkpt lat="44.19697" lon="5.94351">
        <ele>496.2</ele>
        <time>2021-09-09T10:57:16Z</time>
      </trkpt>
      <trkpt lat="44.19697" lon="5.94354">
        <ele>496.1</ele>
        <time>2021-09-09T10:57:18Z</time>
      </trkpt>
      <trkpt lat="44.19696" lon="5.94355">
        <ele>495.4</ele>
        <time>2021-09-09T10:57:19Z</time>
      </trkpt>
      <trkpt lat="44.19696" lon="5.94356">
        <ele>495.4</ele>
        <time>2021-09-09T10:57:20Z</time>
      </trkpt>
      <trkpt lat="44.19696" lon="5.94357">
        <ele>495.4</ele>
        <time>2021-09-09T10:57:22Z</time>
      </trkpt>
      <trkpt lat="44.19695" lon="5.94358">
        <ele>495.4</ele>
        <time>2021-09-09T10:57:24Z</time>
      </trkpt>
      <trkpt lat="44.19695" lon="5.94359">
        <ele>495.4</ele>
        <time>2021-09-09T10:57:25Z</time>
      </trkpt>
      <trkpt lat="44.19695" lon="5.94359">
        <ele>495.4</ele>
        <time>2021-09-09T10:57:26Z</time>
      </trkpt>
      <trkpt lat="44.19695" lon="5.94359">
        <ele>495.4</ele>
        <time>2021-09-09T10:57:27Z</time>
      </trkpt>
      <trkpt lat="44.19694" lon="5.9436">
        <ele>495.4</ele>
        <time>2021-09-09T10:57:29Z</time>
      </trkpt>
      <trkpt lat="44.19694" lon="5.9436">
        <ele>495.4</ele>
        <time>2021-09-09T10:57:30Z</time>
      </trkpt>
      <trkpt lat="44.19693" lon="5.94361">
        <ele>495.4</ele>
        <time>2021-09-09T10:57:31Z</time>
      </trkpt>
      <trkpt lat="44.19693" lon="5.94361">
        <ele>495.4</ele>
        <time>2021-09-09T10:57:32Z</time>
      </trkpt>
      <trkpt lat="44.19693" lon="5.94361">
        <ele>495.4</ele>
        <time>2021-09-09T10:57:34Z</time>
      </trkpt>
      <trkpt lat="44.19692" lon="5.9436">
        <ele>495.4</ele>
        <time>2021-09-09T10:57:35Z</time>
      </trkpt>
      <trkpt lat="44.19691" lon="5.94359">
        <ele>495.4</ele>
        <time>2021-09-09T10:57:37Z</time>
      </trkpt>
      <trkpt lat="44.1969" lon="5.94358">
        <ele>495.4</ele>
        <time>2021-09-09T10:57:38Z</time>
      </trkpt>
      <trkpt lat="44.1969" lon="5.94357">
        <ele>495.4</ele>
        <time>2021-09-09T10:57:39Z</time>
      </trkpt>
      <trkpt lat="44.19689" lon="5.94357">
        <ele>495.4</ele>
        <time>2021-09-09T10:57:40Z</time>
      </trkpt>
      <trkpt lat="44.19688" lon="5.94355">
        <ele>495.4</ele>
        <time>2021-09-09T10:57:42Z</time>
      </trkpt>
      <trkpt lat="44.19686" lon="5.94354">
        <ele>495.4</ele>
        <time>2021-09-09T10:57:43Z</time>
      </trkpt>
      <trkpt lat="44.19685" lon="5.94353">
        <ele>495.5</ele>
        <time>2021-09-09T10:57:44Z</time>
      </trkpt>
      <trkpt lat="44.19684" lon="5.94353">
        <ele>495.5</ele>
        <time>2021-09-09T10:57:45Z</time>
      </trkpt>
      <trkpt lat="44.19684" lon="5.94352">
        <ele>495.5</ele>
        <time>2021-09-09T10:57:47Z</time>
      </trkpt>
      <trkpt lat="44.19682" lon="5.94351">
        <ele>495.5</ele>
        <time>2021-09-09T10:57:48Z</time>
      </trkpt>
      <trkpt lat="44.1968" lon="5.9435">
        <ele>495.5</ele>
        <time>2021-09-09T10:57:50Z</time>
      </trkpt>
      <trkpt lat="44.1968" lon="5.94349">
        <ele>495.5</ele>
        <time>2021-09-09T10:57:51Z</time>
      </trkpt>
      <trkpt lat="44.1968" lon="5.94349">
        <ele>495.5</ele>
        <time>2021-09-09T10:57:52Z</time>
      </trkpt>
      <trkpt lat="44.19679" lon="5.94348">
        <ele>495.5</ele>
        <time>2021-09-09T10:57:54Z</time>
      </trkpt>
      <trkpt lat="44.19677" lon="5.94346">
        <ele>495.6</ele>
        <time>2021-09-09T10:57:55Z</time>
      </trkpt>
      <trkpt lat="44.19675" lon="5.94345">
        <ele>495.6</ele>
        <time>2021-09-09T10:57:56Z</time>
      </trkpt>
      <trkpt lat="44.19673" lon="5.94343">
        <ele>495.6</ele>
        <time>2021-09-09T10:57:57Z</time>
      </trkpt>
      <trkpt lat="44.19673" lon="5.94343">
        <ele>495.6</ele>
        <time>2021-09-09T10:57:58Z</time>
      </trkpt>
      <trkpt lat="44.19672" lon="5.94341">
        <ele>495.6</ele>
        <time>2021-09-09T10:58:00Z</time>
      </trkpt>
      <trkpt lat="44.19671" lon="5.94338">
        <ele>495.6</ele>
        <time>2021-09-09T10:58:01Z</time>
      </trkpt>
      <trkpt lat="44.19669" lon="5.94334">
        <ele>495.7</ele>
        <time>2021-09-09T10:58:03Z</time>
      </trkpt>
      <trkpt lat="44.19668" lon="5.94331">
        <ele>495.7</ele>
        <time>2021-09-09T10:58:04Z</time>
      </trkpt>
      <trkpt lat="44.19668" lon="5.9433">
        <ele>495.7</ele>
        <time>2021-09-09T10:58:05Z</time>
      </trkpt>
      <trkpt lat="44.19668" lon="5.9433">
        <ele>495.7</ele>
        <time>2021-09-09T10:58:06Z</time>
      </trkpt>
      <trkpt lat="44.19667" lon="5.94328">
        <ele>495.7</ele>
        <time>2021-09-09T10:58:08Z</time>
      </trkpt>
      <trkpt lat="44.19667" lon="5.94327">
        <ele>495.7</ele>
        <time>2021-09-09T10:58:09Z</time>
      </trkpt>
      <trkpt lat="44.19667" lon="5.94325">
        <ele>495.7</ele>
        <time>2021-09-09T10:58:10Z</time>
      </trkpt>
      <trkpt lat="44.19667" lon="5.94324">
        <ele>495.7</ele>
        <time>2021-09-09T10:58:11Z</time>
      </trkpt>
      <trkpt lat="44.19667" lon="5.94322">
        <ele>495.8</ele>
        <time>2021-09-09T10:58:13Z</time>
      </trkpt>
      <trkpt lat="44.19666" lon="5.94318">
        <ele>495.8</ele>
        <time>2021-09-09T10:58:14Z</time>
      </trkpt>
      <trkpt lat="44.19665" lon="5.94316">
        <ele>495.8</ele>
        <time>2021-09-09T10:58:15Z</time>
      </trkpt>
      <trkpt lat="44.19665" lon="5.94314">
        <ele>495.8</ele>
        <time>2021-09-09T10:58:17Z</time>
      </trkpt>
      <trkpt lat="44.19666" lon="5.94312">
        <ele>495.8</ele>
        <time>2021-09-09T10:58:18Z</time>
      </trkpt>
      <trkpt lat="44.19665" lon="5.9431">
        <ele>495.8</ele>
        <time>2021-09-09T10:58:20Z</time>
      </trkpt>
      <trkpt lat="44.19665" lon="5.94309">
        <ele>495.8</ele>
        <time>2021-09-09T10:58:21Z</time>
      </trkpt>
      <trkpt lat="44.19664" lon="5.94308">
        <ele>495.8</ele>
        <time>2021-09-09T10:58:22Z</time>
      </trkpt>
      <trkpt lat="44.19664" lon="5.94307">
        <ele>495.9</ele>
        <time>2021-09-09T10:58:23Z</time>
      </trkpt>
      <trkpt lat="44.19663" lon="5.94306">
        <ele>495.9</ele>
        <time>2021-09-09T10:58:25Z</time>
      </trkpt>
      <trkpt lat="44.19635" lon="5.94243">
        <ele>496.2</ele>
        <time>2021-09-09T11:08:41Z</time>
      </trkpt>
      <trkpt lat="44.19636" lon="5.94244">
        <ele>496.2</ele>
        <time>2021-09-09T11:08:42Z</time>
      </trkpt>
      <trkpt lat="44.19636" lon="5.94244">
        <ele>496.2</ele>
        <time>2021-09-09T11:08:44Z</time>
      </trkpt>
      <trkpt lat="44.19636" lon="5.94245">
        <ele>496.2</ele>
        <time>2021-09-09T11:08:46Z</time>
      </trkpt>
      <trkpt lat="44.19636" lon="5.94245">
        <ele>496.2</ele>
        <time>2021-09-09T11:08:47Z</time>
      </trkpt>
      <trkpt lat="44.19636" lon="5.94245">
        <ele>496.2</ele>
        <time>2021-09-09T11:08:48Z</time>
      </trkpt>
      <trkpt lat="44.19636" lon="5.94246">
        <ele>496.2</ele>
        <time>2021-09-09T11:08:50Z</time>
      </trkpt>
      <trkpt lat="44.19632" lon="5.94244">
        <ele>496.2</ele>
        <time>2021-09-09T11:08:52Z</time>
      </trkpt>
      <trkpt lat="44.19628" lon="5.94243">
        <ele>496.2</ele>
        <time>2021-09-09T11:08:53Z</time>
      </trkpt>
      <trkpt lat="44.19627" lon="5.94243">
        <ele>496.2</ele>
        <time>2021-09-09T11:08:54Z</time>
      </trkpt>
      <trkpt lat="44.19623" lon="5.94243">
        <ele>496.2</ele>
        <time>2021-09-09T11:08:56Z</time>
      </trkpt>
      <trkpt lat="44.19619" lon="5.94244">
        <ele>496.2</ele>
        <time>2021-09-09T11:08:58Z</time>
      </trkpt>
      <trkpt lat="44.19617" lon="5.94244">
        <ele>496.2</ele>
        <time>2021-09-09T11:09:00Z</time>
      </trkpt>
      <trkpt lat="44.19616" lon="5.94244">
        <ele>496.2</ele>
        <time>2021-09-09T11:09:01Z</time>
      </trkpt>
      <trkpt lat="44.19616" lon="5.94243">
        <ele>496.2</ele>
        <time>2021-09-09T11:09:03Z</time>
      </trkpt>
      <trkpt lat="44.19616" lon="5.94242">
        <ele>496.2</ele>
        <time>2021-09-09T11:09:04Z</time>
      </trkpt>
      <trkpt lat="44.19616" lon="5.94242">
        <ele>496.2</ele>
        <time>2021-09-09T11:09:06Z</time>
      </trkpt>
      <trkpt lat="44.19616" lon="5.94242">
        <ele>496.2</ele>
        <time>2021-09-09T11:09:07Z</time>
      </trkpt>
      <trkpt lat="44.19616" lon="5.94242">
        <ele>496.2</ele>
        <time>2021-09-09T11:09:09Z</time>
      </trkpt>
      <trkpt lat="44.19616" lon="5.94242">
        <ele>496.2</ele>
        <time>2021-09-09T11:09:10Z</time>
      </trkpt>
      <trkpt lat="44.19608" lon="5.94274">
        <ele>496.3</ele>
        <time>2021-09-09T11:10:59Z</time>
      </trkpt>
      <trkpt lat="44.19606" lon="5.94278">
        <ele>496.4</ele>
        <time>2021-09-09T11:11:00Z</time>
      </trkpt>
      <trkpt lat="44.19605" lon="5.94278">
        <ele>496.4</ele>
        <time>2021-09-09T11:11:02Z</time>
      </trkpt>
      <trkpt lat="44.19604" lon="5.94278">
        <ele>496.4</ele>
        <time>2021-09-09T11:11:04Z</time>
      </trkpt>
      <trkpt lat="44.19603" lon="5.94278">
        <ele>496.4</ele>
        <time>2021-09-09T11:11:05Z</time>
      </trkpt>
      <trkpt lat="44.19602" lon="5.94278">
        <ele>496.4</ele>
        <time>2021-09-09T11:11:06Z</time>
      </trkpt>
      <trkpt lat="44.19601" lon="5.94278">
        <ele>496.4</ele>
        <time>2021-09-09T11:11:08Z</time>
      </trkpt>
      <trkpt lat="44.196" lon="5.94278">
        <ele>496.4</ele>
        <time>2021-09-09T11:11:09Z</time>
      </trkpt>
      <trkpt lat="44.19599" lon="5.94278">
        <ele>496.4</ele>
        <time>2021-09-09T11:11:11Z</time>
      </trkpt>
      <trkpt lat="44.19598" lon="5.94279">
        <ele>496.4</ele>
        <time>2021-09-09T11:11:12Z</time>
      </trkpt>
      <trkpt lat="44.19597" lon="5.94279">
        <ele>496.4</ele>
        <time>2021-09-09T11:11:14Z</time>
      </trkpt>
      <trkpt lat="44.19596" lon="5.94279">
        <ele>496.4</ele>
        <time>2021-09-09T11:11:16Z</time>
      </trkpt>
      <trkpt lat="44.19595" lon="5.94279">
        <ele>496.4</ele>
        <time>2021-09-09T11:11:17Z</time>
      </trkpt>
      <trkpt lat="44.19592" lon="5.94278">
        <ele>496.4</ele>
        <time>2021-09-09T11:11:19Z</time>
      </trkpt>
      <trkpt lat="44.19591" lon="5.94278">
        <ele>496.4</ele>
        <time>2021-09-09T11:11:20Z</time>
      </trkpt>
      <trkpt lat="44.1959" lon="5.94278">
        <ele>496.4</ele>
        <time>2021-09-09T11:11:21Z</time>
      </trkpt>
      <trkpt lat="44.19582" lon="5.94275">
        <ele>496.5</ele>
        <time>2021-09-09T11:11:23Z</time>
      </trkpt>
      <trkpt lat="44.19577" lon="5.94273">
        <ele>496.5</ele>
        <time>2021-09-09T11:11:24Z</time>
      </trkpt>
      <trkpt lat="44.1957" lon="5.94269">
        <ele>496.5</ele>
        <time>2021-09-09T11:11:26Z</time>
      </trkpt>
      <trkpt lat="44.19563" lon="5.94268">
        <ele>496.5</ele>
        <time>2021-09-09T11:11:27Z</time>
      </trkpt>
      <trkpt lat="44.19558" lon="5.94267">
        <ele>496.7</ele>
        <time>2021-09-09T11:11:28Z</time>
      </trkpt>
      <trkpt lat="44.1955" lon="5.94266">
        <ele>496.9</ele>
        <time>2021-09-09T11:11:30Z</time>
      </trkpt>
      <trkpt lat="44.19546" lon="5.94264">
        <ele>496.9</ele>
        <time>2021-09-09T11:11:31Z</time>
      </trkpt>
      <trkpt lat="44.19544" lon="5.94262">
        <ele>497</ele>
        <time>2021-09-09T11:11:32Z</time>
      </trkpt>
      <trkpt lat="44.19542" lon="5.94261">
        <ele>497</ele>
        <time>2021-09-09T11:11:34Z</time>
      </trkpt>
      <trkpt lat="44.19539" lon="5.94259">
        <ele>497</ele>
        <time>2021-09-09T11:11:36Z</time>
      </trkpt>
      <trkpt lat="44.19538" lon="5.94259">
        <ele>497.9</ele>
        <time>2021-09-09T11:11:37Z</time>
      </trkpt>
      <trkpt lat="44.19537" lon="5.94258">
        <ele>498</ele>
        <time>2021-09-09T11:11:39Z</time>
      </trkpt>
      <trkpt lat="44.19536" lon="5.94258">
        <ele>498</ele>
        <time>2021-09-09T11:11:40Z</time>
      </trkpt>
      <trkpt lat="44.19536" lon="5.94258">
        <ele>498</ele>
        <time>2021-09-09T11:11:41Z</time>
      </trkpt>
      <trkpt lat="44.19536" lon="5.94258">
        <ele>498</ele>
        <time>2021-09-09T11:11:42Z</time>
      </trkpt>
      <trkpt lat="44.19535" lon="5.94257">
        <ele>498</ele>
        <time>2021-09-09T11:11:43Z</time>
      </trkpt>
      <trkpt lat="44.19535" lon="5.94257">
        <ele>498</ele>
        <time>2021-09-09T11:11:45Z</time>
      </trkpt>
      <trkpt lat="44.19535" lon="5.94257">
        <ele>498</ele>
        <time>2021-09-09T11:11:46Z</time>
      </trkpt>
      <trkpt lat="44.19521" lon="5.94249">
        <ele>498.1</ele>
        <time>2021-09-09T11:12:19Z</time>
      </trkpt>
      <trkpt lat="44.19523" lon="5.94242">
        <ele>498.8</ele>
        <time>2021-09-09T11:12:21Z</time>
      </trkpt>
      <trkpt lat="44.19524" lon="5.94238">
        <ele>499</ele>
        <time>2021-09-09T11:12:22Z</time>
      </trkpt>
      <trkpt lat="44.19527" lon="5.94233">
        <ele>499.4</ele>
        <time>2021-09-09T11:12:24Z</time>
      </trkpt>
      <trkpt lat="44.19529" lon="5.94229">
        <ele>500</ele>
        <time>2021-09-09T11:12:25Z</time>
      </trkpt>
      <trkpt lat="44.19531" lon="5.94228">
        <ele>500</ele>
        <time>2021-09-09T11:12:26Z</time>
      </trkpt>
      <trkpt lat="44.19532" lon="5.94227">
        <ele>500</ele>
        <time>2021-09-09T11:12:28Z</time>
      </trkpt>
      <trkpt lat="44.19532" lon="5.94226">
        <ele>499.9</ele>
        <time>2021-09-09T11:12:29Z</time>
      </trkpt>
      <trkpt lat="44.19532" lon="5.94226">
        <ele>499.9</ele>
        <time>2021-09-09T11:12:30Z</time>
      </trkpt>
      <trkpt lat="44.19532" lon="5.94225">
        <ele>499.9</ele>
        <time>2021-09-09T11:12:32Z</time>
      </trkpt>
      <trkpt lat="44.19532" lon="5.94225">
        <ele>499.9</ele>
        <time>2021-09-09T11:12:33Z</time>
      </trkpt>
      <trkpt lat="44.19532" lon="5.94225">
        <ele>499.9</ele>
        <time>2021-09-09T11:12:34Z</time>
      </trkpt>
      <trkpt lat="44.19532" lon="5.94225">
        <ele>499.9</ele>
        <time>2021-09-09T11:12:36Z</time>
      </trkpt>
      <trkpt lat="44.19536" lon="5.94219">
        <ele>500.6</ele>
        <time>2021-09-09T11:12:43Z</time>
      </trkpt>
      <trkpt lat="44.19537" lon="5.94214">
        <ele>500.9</ele>
        <time>2021-09-09T11:12:45Z</time>
      </trkpt>
      <trkpt lat="44.19538" lon="5.94208">
        <ele>501.2</ele>
        <time>2021-09-09T11:12:47Z</time>
      </trkpt>
      <trkpt lat="44.19538" lon="5.94203">
        <ele>501.4</ele>
        <time>2021-09-09T11:12:48Z</time>
      </trkpt>
      <trkpt lat="44.19539" lon="5.94196">
        <ele>501.8</ele>
        <time>2021-09-09T11:12:50Z</time>
      </trkpt>
      <trkpt lat="44.19539" lon="5.94191">
        <ele>502.1</ele>
        <time>2021-09-09T11:12:52Z</time>
      </trkpt>
      <trkpt lat="44.19539" lon="5.94188">
        <ele>502.2</ele>
        <time>2021-09-09T11:12:53Z</time>
      </trkpt>
      <trkpt lat="44.19538" lon="5.94186">
        <ele>502.3</ele>
        <time>2021-09-09T11:12:54Z</time>
      </trkpt>
      <trkpt lat="44.19537" lon="5.94182">
        <ele>502.6</ele>
        <time>2021-09-09T11:12:56Z</time>
      </trkpt>
      <trkpt lat="44.19536" lon="5.9418">
        <ele>502.7</ele>
        <time>2021-09-09T11:12:57Z</time>
      </trkpt>
      <trkpt lat="44.19536" lon="5.94178">
        <ele>502.8</ele>
        <time>2021-09-09T11:12:58Z</time>
      </trkpt>
      <trkpt lat="44.19536" lon="5.94174">
        <ele>503.1</ele>
        <time>2021-09-09T11:13:00Z</time>
      </trkpt>
      <trkpt lat="44.19534" lon="5.94171">
        <ele>503.3</ele>
        <time>2021-09-09T11:13:02Z</time>
      </trkpt>
      <trkpt lat="44.19532" lon="5.9417">
        <ele>503.5</ele>
        <time>2021-09-09T11:13:03Z</time>
      </trkpt>
      <trkpt lat="44.19528" lon="5.94169">
        <ele>503.8</ele>
        <time>2021-09-09T11:13:05Z</time>
      </trkpt>
      <trkpt lat="44.19525" lon="5.94169">
        <ele>503.9</ele>
        <time>2021-09-09T11:13:06Z</time>
      </trkpt>
      <trkpt lat="44.19522" lon="5.94169">
        <ele>504.1</ele>
        <time>2021-09-09T11:13:08Z</time>
      </trkpt>
      <trkpt lat="44.19517" lon="5.94168">
        <ele>504.4</ele>
        <time>2021-09-09T11:13:10Z</time>
      </trkpt>
      <trkpt lat="44.19513" lon="5.94165">
        <ele>504.8</ele>
        <time>2021-09-09T11:13:12Z</time>
      </trkpt>
      <trkpt lat="44.19509" lon="5.94163">
        <ele>505.1</ele>
        <time>2021-09-09T11:13:14Z</time>
      </trkpt>
      <trkpt lat="44.19506" lon="5.94162">
        <ele>505.3</ele>
        <time>2021-09-09T11:13:15Z</time>
      </trkpt>
      <trkpt lat="44.19502" lon="5.9416">
        <ele>505.6</ele>
        <time>2021-09-09T11:13:17Z</time>
      </trkpt>
      <trkpt lat="44.19499" lon="5.94158">
        <ele>505.8</ele>
        <time>2021-09-09T11:13:19Z</time>
      </trkpt>
      <trkpt lat="44.19496" lon="5.94157">
        <ele>506</ele>
        <time>2021-09-09T11:13:20Z</time>
      </trkpt>
      <trkpt lat="44.19494" lon="5.94156">
        <ele>506.1</ele>
        <time>2021-09-09T11:13:22Z</time>
      </trkpt>
      <trkpt lat="44.19492" lon="5.94155">
        <ele>506.3</ele>
        <time>2021-09-09T11:13:23Z</time>
      </trkpt>
      <trkpt lat="44.19492" lon="5.94154">
        <ele>506.3</ele>
        <time>2021-09-09T11:13:24Z</time>
      </trkpt>
      <trkpt lat="44.19491" lon="5.94153">
        <ele>506.4</ele>
        <time>2021-09-09T11:13:26Z</time>
      </trkpt>
      <trkpt lat="44.19488" lon="5.94151">
        <ele>506.6</ele>
        <time>2021-09-09T11:13:28Z</time>
      </trkpt>
      <trkpt lat="44.19485" lon="5.94148">
        <ele>506.8</ele>
        <time>2021-09-09T11:13:29Z</time>
      </trkpt>
      <trkpt lat="44.19484" lon="5.94148">
        <ele>506.8</ele>
        <time>2021-09-09T11:13:30Z</time>
      </trkpt>
      <trkpt lat="44.1948" lon="5.94148">
        <ele>507.1</ele>
        <time>2021-09-09T11:13:32Z</time>
      </trkpt>
      <trkpt lat="44.19479" lon="5.94149">
        <ele>507.1</ele>
        <time>2021-09-09T11:13:33Z</time>
      </trkpt>
      <trkpt lat="44.19478" lon="5.94149">
        <ele>507.1</ele>
        <time>2021-09-09T11:13:34Z</time>
      </trkpt>
      <trkpt lat="44.19474" lon="5.94151">
        <ele>507.1</ele>
        <time>2021-09-09T11:13:35Z</time>
      </trkpt>
      <trkpt lat="44.19472" lon="5.94151">
        <ele>507.1</ele>
        <time>2021-09-09T11:13:36Z</time>
      </trkpt>
      <trkpt lat="44.19469" lon="5.94152">
        <ele>507.2</ele>
        <time>2021-09-09T11:13:37Z</time>
      </trkpt>
      <trkpt lat="44.19467" lon="5.94153">
        <ele>507.2</ele>
        <time>2021-09-09T11:13:38Z</time>
      </trkpt>
      <trkpt lat="44.19465" lon="5.94155">
        <ele>507.4</ele>
        <time>2021-09-09T11:13:40Z</time>
      </trkpt>
      <trkpt lat="44.19462" lon="5.94157">
        <ele>507.5</ele>
        <time>2021-09-09T11:13:41Z</time>
      </trkpt>
      <trkpt lat="44.19462" lon="5.94157">
        <ele>507.6</ele>
        <time>2021-09-09T11:13:42Z</time>
      </trkpt>
      <trkpt lat="44.19461" lon="5.94159">
        <ele>507.6</ele>
        <time>2021-09-09T11:13:44Z</time>
      </trkpt>
      <trkpt lat="44.19461" lon="5.94159">
        <ele>507.7</ele>
        <time>2021-09-09T11:13:45Z</time>
      </trkpt>
      <trkpt lat="44.1946" lon="5.94159">
        <ele>507.7</ele>
        <time>2021-09-09T11:13:47Z</time>
      </trkpt>
      <trkpt lat="44.19458" lon="5.94158">
        <ele>507.8</ele>
        <time>2021-09-09T11:13:48Z</time>
      </trkpt>
      <trkpt lat="44.19456" lon="5.94159">
        <ele>508</ele>
        <time>2021-09-09T11:13:50Z</time>
      </trkpt>
      <trkpt lat="44.19452" lon="5.94159">
        <ele>508.1</ele>
        <time>2021-09-09T11:13:52Z</time>
      </trkpt>
      <trkpt lat="44.19346" lon="5.94194">
        <ele>514.6</ele>
        <time>2021-09-09T11:14:45Z</time>
      </trkpt>
      <trkpt lat="44.19339" lon="5.94197">
        <ele>515</ele>
        <time>2021-09-09T11:14:47Z</time>
      </trkpt>
      <trkpt lat="44.19336" lon="5.94199">
        <ele>515.2</ele>
        <time>2021-09-09T11:14:48Z</time>
      </trkpt>
      <trkpt lat="44.19333" lon="5.94201">
        <ele>515.4</ele>
        <time>2021-09-09T11:14:50Z</time>
      </trkpt>
      <trkpt lat="44.19332" lon="5.94201">
        <ele>515.5</ele>
        <time>2021-09-09T11:14:51Z</time>
      </trkpt>
      <trkpt lat="44.1933" lon="5.94201">
        <ele>515.6</ele>
        <time>2021-09-09T11:14:53Z</time>
      </trkpt>
      <trkpt lat="44.19329" lon="5.94201">
        <ele>515.7</ele>
        <time>2021-09-09T11:14:55Z</time>
      </trkpt>
      <trkpt lat="44.19329" lon="5.942">
        <ele>515.7</ele>
        <time>2021-09-09T11:14:56Z</time>
      </trkpt>
      <trkpt lat="44.19328" lon="5.942">
        <ele>515.8</ele>
        <time>2021-09-09T11:14:58Z</time>
      </trkpt>
      <trkpt lat="44.19327" lon="5.942">
        <ele>515.8</ele>
        <time>2021-09-09T11:14:59Z</time>
      </trkpt>
      <trkpt lat="44.19327" lon="5.942">
        <ele>515.8</ele>
        <time>2021-09-09T11:15:00Z</time>
      </trkpt>
      <trkpt lat="44.19321" lon="5.94197">
        <ele>516.2</ele>
        <time>2021-09-09T11:15:12Z</time>
      </trkpt>
      <trkpt lat="44.19318" lon="5.942">
        <ele>516.4</ele>
        <time>2021-09-09T11:15:14Z</time>
      </trkpt>
      <trkpt lat="44.19313" lon="5.94202">
        <ele>516.7</ele>
        <time>2021-09-09T11:15:16Z</time>
      </trkpt>
      <trkpt lat="44.1931" lon="5.94203">
        <ele>517</ele>
        <time>2021-09-09T11:15:17Z</time>
      </trkpt>
      <trkpt lat="44.19307" lon="5.94203">
        <ele>517.1</ele>
        <time>2021-09-09T11:15:18Z</time>
      </trkpt>
      <trkpt lat="44.19305" lon="5.94204">
        <ele>517.3</ele>
        <time>2021-09-09T11:15:19Z</time>
      </trkpt>
      <trkpt lat="44.19303" lon="5.94206">
        <ele>517.5</ele>
        <time>2021-09-09T11:15:21Z</time>
      </trkpt>
      <trkpt lat="44.19301" lon="5.94209">
        <ele>517.7</ele>
        <time>2021-09-09T11:15:22Z</time>
      </trkpt>
      <trkpt lat="44.19299" lon="5.94211">
        <ele>517.8</ele>
        <time>2021-09-09T11:15:23Z</time>
      </trkpt>
      <trkpt lat="44.19299" lon="5.94212">
        <ele>517.8</ele>
        <time>2021-09-09T11:15:25Z</time>
      </trkpt>
      <trkpt lat="44.19298" lon="5.94211">
        <ele>517.9</ele>
        <time>2021-09-09T11:15:27Z</time>
      </trkpt>
      <trkpt lat="44.19296" lon="5.94211">
        <ele>518</ele>
        <time>2021-09-09T11:15:28Z</time>
      </trkpt>
      <trkpt lat="44.19293" lon="5.94211">
        <ele>518.1</ele>
        <time>2021-09-09T11:15:30Z</time>
      </trkpt>
      <trkpt lat="44.1926" lon="5.94231">
        <ele>519.8</ele>
        <time>2021-09-09T11:15:52Z</time>
      </trkpt>
      <trkpt lat="44.19258" lon="5.94233">
        <ele>520</ele>
        <time>2021-09-09T11:15:53Z</time>
      </trkpt>
      <trkpt lat="44.19255" lon="5.94235">
        <ele>520.1</ele>
        <time>2021-09-09T11:15:54Z</time>
      </trkpt>
      <trkpt lat="44.19251" lon="5.94237">
        <ele>520.3</ele>
        <time>2021-09-09T11:15:56Z</time>
      </trkpt>
      <trkpt lat="44.19246" lon="5.9424">
        <ele>520.5</ele>
        <time>2021-09-09T11:15:57Z</time>
      </trkpt>
      <trkpt lat="44.19239" lon="5.94244">
        <ele>520.8</ele>
        <time>2021-09-09T11:15:59Z</time>
      </trkpt>
      <trkpt lat="44.19234" lon="5.94245">
        <ele>521</ele>
        <time>2021-09-09T11:16:01Z</time>
      </trkpt>
      <trkpt lat="44.1923" lon="5.94247">
        <ele>521.2</ele>
        <time>2021-09-09T11:16:02Z</time>
      </trkpt>
      <trkpt lat="44.19225" lon="5.9425">
        <ele>521.4</ele>
        <time>2021-09-09T11:16:04Z</time>
      </trkpt>
      <trkpt lat="44.1922" lon="5.94253">
        <ele>521.6</ele>
        <time>2021-09-09T11:16:06Z</time>
      </trkpt>
      <trkpt lat="44.19216" lon="5.94256">
        <ele>521.8</ele>
        <time>2021-09-09T11:16:07Z</time>
      </trkpt>
      <trkpt lat="44.19213" lon="5.94258">
        <ele>522</ele>
        <time>2021-09-09T11:16:08Z</time>
      </trkpt>
      <trkpt lat="44.1921" lon="5.94261">
        <ele>522.2</ele>
        <time>2021-09-09T11:16:10Z</time>
      </trkpt>
      <trkpt lat="44.19207" lon="5.94263">
        <ele>522.4</ele>
        <time>2021-09-09T11:16:11Z</time>
      </trkpt>
      <trkpt lat="44.19203" lon="5.94267">
        <ele>522.6</ele>
        <time>2021-09-09T11:16:13Z</time>
      </trkpt>
      <trkpt lat="44.19198" lon="5.9427">
        <ele>522.9</ele>
        <time>2021-09-09T11:16:15Z</time>
      </trkpt>
      <trkpt lat="44.19194" lon="5.94271">
        <ele>523.2</ele>
        <time>2021-09-09T11:16:17Z</time>
      </trkpt>
      <trkpt lat="44.19192" lon="5.94273">
        <ele>523.3</ele>
        <time>2021-09-09T11:16:18Z</time>
      </trkpt>
      <trkpt lat="44.19191" lon="5.94274">
        <ele>523.4</ele>
        <time>2021-09-09T11:16:20Z</time>
      </trkpt>
      <trkpt lat="44.1919" lon="5.94275">
        <ele>523.5</ele>
        <time>2021-09-09T11:16:21Z</time>
      </trkpt>
      <trkpt lat="44.19189" lon="5.94276">
        <ele>523.5</ele>
        <time>2021-09-09T11:16:23Z</time>
      </trkpt>
      <trkpt lat="44.19187" lon="5.94278">
        <ele>523.7</ele>
        <time>2021-09-09T11:16:25Z</time>
      </trkpt>
      <trkpt lat="44.19185" lon="5.9428">
        <ele>523.8</ele>
        <time>2021-09-09T11:16:26Z</time>
      </trkpt>
      <trkpt lat="44.19183" lon="5.94286">
        <ele>524</ele>
        <time>2021-09-09T11:16:28Z</time>
      </trkpt>
      <trkpt lat="44.1918" lon="5.94291">
        <ele>524.3</ele>
        <time>2021-09-09T11:16:30Z</time>
      </trkpt>
      <trkpt lat="44.19178" lon="5.94294">
        <ele>524.4</ele>
        <time>2021-09-09T11:16:31Z</time>
      </trkpt>
      <trkpt lat="44.19176" lon="5.94297">
        <ele>524.6</ele>
        <time>2021-09-09T11:16:32Z</time>
      </trkpt>
      <trkpt lat="44.19175" lon="5.94297">
        <ele>524.6</ele>
        <time>2021-09-09T11:16:33Z</time>
      </trkpt>
      <trkpt lat="44.19174" lon="5.94301">
        <ele>524.8</ele>
        <time>2021-09-09T11:16:35Z</time>
      </trkpt>
      <trkpt lat="44.19173" lon="5.94303">
        <ele>524.8</ele>
        <time>2021-09-09T11:16:36Z</time>
      </trkpt>
      <trkpt lat="44.19172" lon="5.94307">
        <ele>524.9</ele>
        <time>2021-09-09T11:16:37Z</time>
      </trkpt>
      <trkpt lat="44.19171" lon="5.94308">
        <ele>525</ele>
        <time>2021-09-09T11:16:38Z</time>
      </trkpt>
      <trkpt lat="44.19169" lon="5.94312">
        <ele>525.1</ele>
        <time>2021-09-09T11:16:39Z</time>
      </trkpt>
      <trkpt lat="44.19166" lon="5.94317">
        <ele>525.3</ele>
        <time>2021-09-09T11:16:41Z</time>
      </trkpt>
      <trkpt lat="44.19164" lon="5.94322">
        <ele>525.5</ele>
        <time>2021-09-09T11:16:42Z</time>
      </trkpt>
      <trkpt lat="44.19162" lon="5.94326">
        <ele>525.6</ele>
        <time>2021-09-09T11:16:44Z</time>
      </trkpt>
      <trkpt lat="44.19159" lon="5.94327">
        <ele>525.7</ele>
        <time>2021-09-09T11:16:45Z</time>
      </trkpt>
      <trkpt lat="44.19158" lon="5.94326">
        <ele>525.8</ele>
        <time>2021-09-09T11:16:46Z</time>
      </trkpt>
      <trkpt lat="44.19154" lon="5.94325">
        <ele>525.9</ele>
        <time>2021-09-09T11:16:48Z</time>
      </trkpt>
      <trkpt lat="44.19151" lon="5.94325">
        <ele>526</ele>
        <time>2021-09-09T11:16:49Z</time>
      </trkpt>
      <trkpt lat="44.1915" lon="5.94325">
        <ele>526</ele>
        <time>2021-09-09T11:16:50Z</time>
      </trkpt>
      <trkpt lat="44.19149" lon="5.94325">
        <ele>526.1</ele>
        <time>2021-09-09T11:16:51Z</time>
      </trkpt>
      <trkpt lat="44.19145" lon="5.94326">
        <ele>526.2</ele>
        <time>2021-09-09T11:16:53Z</time>
      </trkpt>
      <trkpt lat="44.19142" lon="5.94327">
        <ele>526.4</ele>
        <time>2021-09-09T11:16:54Z</time>
      </trkpt>
      <trkpt lat="44.19136" lon="5.94326">
        <ele>526.6</ele>
        <time>2021-09-09T11:16:56Z</time>
      </trkpt>
      <trkpt lat="44.19133" lon="5.94326">
        <ele>526.8</ele>
        <time>2021-09-09T11:16:57Z</time>
      </trkpt>
      <trkpt lat="44.19128" lon="5.94325">
        <ele>527.1</ele>
        <time>2021-09-09T11:16:59Z</time>
      </trkpt>
      <trkpt lat="44.19123" lon="5.94325">
        <ele>527.4</ele>
        <time>2021-09-09T11:17:00Z</time>
      </trkpt>
      <trkpt lat="44.19119" lon="5.94326">
        <ele>527.6</ele>
        <time>2021-09-09T11:17:02Z</time>
      </trkpt>
      <trkpt lat="44.19116" lon="5.94327">
        <ele>527.8</ele>
        <time>2021-09-09T11:17:03Z</time>
      </trkpt>
      <trkpt lat="44.19112" lon="5.94326">
        <ele>528.1</ele>
        <time>2021-09-09T11:17:04Z</time>
      </trkpt>
      <trkpt lat="44.1911" lon="5.94325">
        <ele>528.3</ele>
        <time>2021-09-09T11:17:05Z</time>
      </trkpt>
      <trkpt lat="44.19107" lon="5.94324">
        <ele>528.5</ele>
        <time>2021-09-09T11:17:06Z</time>
      </trkpt>
      <trkpt lat="44.19106" lon="5.94324">
        <ele>528.6</ele>
        <time>2021-09-09T11:17:07Z</time>
      </trkpt>
      <trkpt lat="44.19102" lon="5.94324">
        <ele>528.9</ele>
        <time>2021-09-09T11:17:09Z</time>
      </trkpt>
      <trkpt lat="44.19097" lon="5.94325">
        <ele>529.3</ele>
        <time>2021-09-09T11:17:11Z</time>
      </trkpt>
      <trkpt lat="44.19093" lon="5.94323">
        <ele>529.6</ele>
        <time>2021-09-09T11:17:13Z</time>
      </trkpt>
      <trkpt lat="44.19091" lon="5.94322">
        <ele>529.9</ele>
        <time>2021-09-09T11:17:14Z</time>
      </trkpt>
      <trkpt lat="44.1909" lon="5.94321">
        <ele>530</ele>
        <time>2021-09-09T11:17:15Z</time>
      </trkpt>
      <trkpt lat="44.19089" lon="5.94321">
        <ele>530.1</ele>
        <time>2021-09-09T11:17:16Z</time>
      </trkpt>
      <trkpt lat="44.19087" lon="5.94319">
        <ele>530.3</ele>
        <time>2021-09-09T11:17:18Z</time>
      </trkpt>
      <trkpt lat="44.19084" lon="5.94317">
        <ele>530.5</ele>
        <time>2021-09-09T11:17:19Z</time>
      </trkpt>
      <trkpt lat="44.19083" lon="5.94316">
        <ele>530.6</ele>
        <time>2021-09-09T11:17:20Z</time>
      </trkpt>
      <trkpt lat="44.1908" lon="5.94318">
        <ele>530.9</ele>
        <time>2021-09-09T11:17:22Z</time>
      </trkpt>
      <trkpt lat="44.19078" lon="5.94318">
        <ele>531</ele>
        <time>2021-09-09T11:17:23Z</time>
      </trkpt>
      <trkpt lat="44.19077" lon="5.94318">
        <ele>531.1</ele>
        <time>2021-09-09T11:17:24Z</time>
      </trkpt>
      <trkpt lat="44.19074" lon="5.9432">
        <ele>531.4</ele>
        <time>2021-09-09T11:17:26Z</time>
      </trkpt>
      <trkpt lat="44.19072" lon="5.94321">
        <ele>531.6</ele>
        <time>2021-09-09T11:17:27Z</time>
      </trkpt>
      <trkpt lat="44.1907" lon="5.94321">
        <ele>531.8</ele>
        <time>2021-09-09T11:17:29Z</time>
      </trkpt>
      <trkpt lat="44.19067" lon="5.94322">
        <ele>532</ele>
        <time>2021-09-09T11:17:30Z</time>
      </trkpt>
      <trkpt lat="44.19065" lon="5.94324">
        <ele>532.3</ele>
        <time>2021-09-09T11:17:31Z</time>
      </trkpt>
      <trkpt lat="44.19064" lon="5.94325">
        <ele>532.5</ele>
        <time>2021-09-09T11:17:32Z</time>
      </trkpt>
      <trkpt lat="44.19061" lon="5.94326">
        <ele>532.8</ele>
        <time>2021-09-09T11:17:34Z</time>
      </trkpt>
      <trkpt lat="44.1906" lon="5.94326">
        <ele>532.8</ele>
        <time>2021-09-09T11:17:35Z</time>
      </trkpt>
      <trkpt lat="44.19059" lon="5.94327">
        <ele>533</ele>
        <time>2021-09-09T11:17:36Z</time>
      </trkpt>
      <trkpt lat="44.19054" lon="5.94329">
        <ele>533.5</ele>
        <time>2021-09-09T11:17:38Z</time>
      </trkpt>
      <trkpt lat="44.1905" lon="5.94331">
        <ele>534</ele>
        <time>2021-09-09T11:17:40Z</time>
      </trkpt>
      <trkpt lat="44.19046" lon="5.94332">
        <ele>534.3</ele>
        <time>2021-09-09T11:17:41Z</time>
      </trkpt>
      <trkpt lat="44.19045" lon="5.94332">
        <ele>534.4</ele>
        <time>2021-09-09T11:17:42Z</time>
      </trkpt>
      <trkpt lat="44.19042" lon="5.94335">
        <ele>534.8</ele>
        <time>2021-09-09T11:17:43Z</time>
      </trkpt>
      <trkpt lat="44.19041" lon="5.94336">
        <ele>535</ele>
        <time>2021-09-09T11:17:44Z</time>
      </trkpt>
      <trkpt lat="44.19038" lon="5.94338">
        <ele>535.3</ele>
        <time>2021-09-09T11:17:46Z</time>
      </trkpt>
      <trkpt lat="44.19035" lon="5.9434">
        <ele>535.7</ele>
        <time>2021-09-09T11:17:47Z</time>
      </trkpt>
      <trkpt lat="44.19032" lon="5.94341">
        <ele>536</ele>
        <time>2021-09-09T11:17:48Z</time>
      </trkpt>
      <trkpt lat="44.19028" lon="5.94344">
        <ele>536.5</ele>
        <time>2021-09-09T11:17:50Z</time>
      </trkpt>
      <trkpt lat="44.19026" lon="5.94347">
        <ele>536.8</ele>
        <time>2021-09-09T11:17:51Z</time>
      </trkpt>
      <trkpt lat="44.19025" lon="5.94347">
        <ele>536.9</ele>
        <time>2021-09-09T11:17:52Z</time>
      </trkpt>
      <trkpt lat="44.19024" lon="5.94348">
        <ele>537.1</ele>
        <time>2021-09-09T11:17:53Z</time>
      </trkpt>
      <trkpt lat="44.19023" lon="5.94349">
        <ele>537.2</ele>
        <time>2021-09-09T11:17:54Z</time>
      </trkpt>
      <trkpt lat="44.19021" lon="5.94349">
        <ele>537.4</ele>
        <time>2021-09-09T11:17:56Z</time>
      </trkpt>
      <trkpt lat="44.19017" lon="5.94346">
        <ele>537.8</ele>
        <time>2021-09-09T11:17:58Z</time>
      </trkpt>
      <trkpt lat="44.19016" lon="5.94345">
        <ele>538</ele>
        <time>2021-09-09T11:17:59Z</time>
      </trkpt>
      <trkpt lat="44.19016" lon="5.94344">
        <ele>538.1</ele>
        <time>2021-09-09T11:18:01Z</time>
      </trkpt>
      <trkpt lat="44.19015" lon="5.94342">
        <ele>538.2</ele>
        <time>2021-09-09T11:18:02Z</time>
      </trkpt>
      <trkpt lat="44.19014" lon="5.94341">
        <ele>538.3</ele>
        <time>2021-09-09T11:18:03Z</time>
      </trkpt>
      <trkpt lat="44.19013" lon="5.94341">
        <ele>538.5</ele>
        <time>2021-09-09T11:18:05Z</time>
      </trkpt>
      <trkpt lat="44.19012" lon="5.94342">
        <ele>538.6</ele>
        <time>2021-09-09T11:18:06Z</time>
      </trkpt>
      <trkpt lat="44.19011" lon="5.94341">
        <ele>538.7</ele>
        <time>2021-09-09T11:18:08Z</time>
      </trkpt>
      <trkpt lat="44.19011" lon="5.94341">
        <ele>538.8</ele>
        <time>2021-09-09T11:18:09Z</time>
      </trkpt>
      <trkpt lat="44.1901" lon="5.94344">
        <ele>539</ele>
        <time>2021-09-09T11:18:11Z</time>
      </trkpt>
      <trkpt lat="44.19009" lon="5.94344">
        <ele>539.1</ele>
        <time>2021-09-09T11:18:12Z</time>
      </trkpt>
      <trkpt lat="44.19005" lon="5.94343">
        <ele>539.5</ele>
        <time>2021-09-09T11:18:14Z</time>
      </trkpt>
      <trkpt lat="44.19003" lon="5.94338">
        <ele>539.8</ele>
        <time>2021-09-09T11:18:16Z</time>
      </trkpt>
      <trkpt lat="44.19001" lon="5.94334">
        <ele>540.1</ele>
        <time>2021-09-09T11:18:17Z</time>
      </trkpt>
      <trkpt lat="44.19" lon="5.94332">
        <ele>540.3</ele>
        <time>2021-09-09T11:18:18Z</time>
      </trkpt>
      <trkpt lat="44.18998" lon="5.94329">
        <ele>540.6</ele>
        <time>2021-09-09T11:18:20Z</time>
      </trkpt>
      <trkpt lat="44.18997" lon="5.94326">
        <ele>540.8</ele>
        <time>2021-09-09T11:18:21Z</time>
      </trkpt>
      <trkpt lat="44.18995" lon="5.94324">
        <ele>541</ele>
        <time>2021-09-09T11:18:23Z</time>
      </trkpt>
      <trkpt lat="44.18994" lon="5.94321">
        <ele>541.2</ele>
        <time>2021-09-09T11:18:25Z</time>
      </trkpt>
      <trkpt lat="44.18994" lon="5.94319">
        <ele>541.3</ele>
        <time>2021-09-09T11:18:27Z</time>
      </trkpt>
      <trkpt lat="44.18994" lon="5.94317">
        <ele>541.5</ele>
        <time>2021-09-09T11:18:28Z</time>
      </trkpt>
      <trkpt lat="44.18993" lon="5.94315">
        <ele>541.6</ele>
        <time>2021-09-09T11:18:29Z</time>
      </trkpt>
      <trkpt lat="44.18993" lon="5.94313">
        <ele>541.8</ele>
        <time>2021-09-09T11:18:30Z</time>
      </trkpt>
      <trkpt lat="44.18993" lon="5.9431">
        <ele>541.9</ele>
        <time>2021-09-09T11:18:32Z</time>
      </trkpt>
      <trkpt lat="44.18993" lon="5.94308">
        <ele>542.1</ele>
        <time>2021-09-09T11:18:33Z</time>
      </trkpt>
      <trkpt lat="44.18993" lon="5.94305">
        <ele>542.3</ele>
        <time>2021-09-09T11:18:35Z</time>
      </trkpt>
      <trkpt lat="44.18993" lon="5.94304">
        <ele>542.4</ele>
        <time>2021-09-09T11:18:36Z</time>
      </trkpt>
      <trkpt lat="44.18993" lon="5.94301">
        <ele>542.6</ele>
        <time>2021-09-09T11:18:37Z</time>
      </trkpt>
      <trkpt lat="44.18992" lon="5.94299">
        <ele>542.7</ele>
        <time>2021-09-09T11:18:38Z</time>
      </trkpt>
      <trkpt lat="44.18991" lon="5.94297">
        <ele>542.8</ele>
        <time>2021-09-09T11:18:40Z</time>
      </trkpt>
      <trkpt lat="44.18989" lon="5.94293">
        <ele>543.2</ele>
        <time>2021-09-09T11:18:41Z</time>
      </trkpt>
      <trkpt lat="44.18987" lon="5.94289">
        <ele>543.5</ele>
        <time>2021-09-09T11:18:42Z</time>
      </trkpt>
      <trkpt lat="44.18986" lon="5.94288">
        <ele>543.6</ele>
        <time>2021-09-09T11:18:43Z</time>
      </trkpt>
      <trkpt lat="44.18984" lon="5.94286">
        <ele>543.8</ele>
        <time>2021-09-09T11:18:44Z</time>
      </trkpt>
      <trkpt lat="44.18982" lon="5.94285">
        <ele>543.9</ele>
        <time>2021-09-09T11:18:46Z</time>
      </trkpt>
      <trkpt lat="44.18981" lon="5.94284">
        <ele>544</ele>
        <time>2021-09-09T11:18:47Z</time>
      </trkpt>
      <trkpt lat="44.1898" lon="5.94284">
        <ele>544.2</ele>
        <time>2021-09-09T11:18:48Z</time>
      </trkpt>
      <trkpt lat="44.18978" lon="5.94281">
        <ele>544.4</ele>
        <time>2021-09-09T11:18:50Z</time>
      </trkpt>
      <trkpt lat="44.18977" lon="5.9428">
        <ele>544.5</ele>
        <time>2021-09-09T11:18:51Z</time>
      </trkpt>
      <trkpt lat="44.18974" lon="5.94277">
        <ele>544.8</ele>
        <time>2021-09-09T11:18:53Z</time>
      </trkpt>
      <trkpt lat="44.18973" lon="5.94275">
        <ele>545</ele>
        <time>2021-09-09T11:18:54Z</time>
      </trkpt>
      <trkpt lat="44.18971" lon="5.94275">
        <ele>545.2</ele>
        <time>2021-09-09T11:18:56Z</time>
      </trkpt>
      <trkpt lat="44.18969" lon="5.94275">
        <ele>545.4</ele>
        <time>2021-09-09T11:18:58Z</time>
      </trkpt>
      <trkpt lat="44.18966" lon="5.94275">
        <ele>545.6</ele>
        <time>2021-09-09T11:19:00Z</time>
      </trkpt>
      <trkpt lat="44.18965" lon="5.94274">
        <ele>545.7</ele>
        <time>2021-09-09T11:19:01Z</time>
      </trkpt>
      <trkpt lat="44.18965" lon="5.94273">
        <ele>545.8</ele>
        <time>2021-09-09T11:19:02Z</time>
      </trkpt>
      <trkpt lat="44.18965" lon="5.94272">
        <ele>545.8</ele>
        <time>2021-09-09T11:19:04Z</time>
      </trkpt>
      <trkpt lat="44.18965" lon="5.94272">
        <ele>545.9</ele>
        <time>2021-09-09T11:19:05Z</time>
      </trkpt>
      <trkpt lat="44.18965" lon="5.94272">
        <ele>545.9</ele>
        <time>2021-09-09T11:19:07Z</time>
      </trkpt>
      <trkpt lat="44.18965" lon="5.94272">
        <ele>545.9</ele>
        <time>2021-09-09T11:19:09Z</time>
      </trkpt>
      <trkpt lat="44.18965" lon="5.94272">
        <ele>545.9</ele>
        <time>2021-09-09T11:19:10Z</time>
      </trkpt>
      <trkpt lat="44.18965" lon="5.94272">
        <ele>545.9</ele>
        <time>2021-09-09T11:19:11Z</time>
      </trkpt>
      <trkpt lat="44.18965" lon="5.94272">
        <ele>545.9</ele>
        <time>2021-09-09T11:19:12Z</time>
      </trkpt>
      <trkpt lat="44.18953" lon="5.94266">
        <ele>547</ele>
        <time>2021-09-09T11:19:22Z</time>
      </trkpt>
      <trkpt lat="44.18948" lon="5.94262">
        <ele>547.5</ele>
        <time>2021-09-09T11:19:24Z</time>
      </trkpt>
      <trkpt lat="44.18947" lon="5.94258">
        <ele>547.8</ele>
        <time>2021-09-09T11:19:25Z</time>
      </trkpt>
      <trkpt lat="44.18945" lon="5.94255">
        <ele>548</ele>
        <time>2021-09-09T11:19:26Z</time>
      </trkpt>
      <trkpt lat="44.18944" lon="5.9425">
        <ele>548.4</ele>
        <time>2021-09-09T11:19:28Z</time>
      </trkpt>
      <trkpt lat="44.18942" lon="5.94244">
        <ele>548.8</ele>
        <time>2021-09-09T11:19:30Z</time>
      </trkpt>
      <trkpt lat="44.18941" lon="5.94239">
        <ele>549.1</ele>
        <time>2021-09-09T11:19:31Z</time>
      </trkpt>
      <trkpt lat="44.18939" lon="5.94235">
        <ele>549.4</ele>
        <time>2021-09-09T11:19:33Z</time>
      </trkpt>
      <trkpt lat="44.18936" lon="5.9423">
        <ele>549.8</ele>
        <time>2021-09-09T11:19:34Z</time>
      </trkpt>
      <trkpt lat="44.18933" lon="5.94223">
        <ele>550.3</ele>
        <time>2021-09-09T11:19:36Z</time>
      </trkpt>
      <trkpt lat="44.18931" lon="5.94217">
        <ele>550.7</ele>
        <time>2021-09-09T11:19:38Z</time>
      </trkpt>
      <trkpt lat="44.1893" lon="5.94212">
        <ele>551</ele>
        <time>2021-09-09T11:19:39Z</time>
      </trkpt>
      <trkpt lat="44.18929" lon="5.9421">
        <ele>551.2</ele>
        <time>2021-09-09T11:19:40Z</time>
      </trkpt>
      <trkpt lat="44.18928" lon="5.94209">
        <ele>551.2</ele>
        <time>2021-09-09T11:19:41Z</time>
      </trkpt>
      <trkpt lat="44.18928" lon="5.94208">
        <ele>551.3</ele>
        <time>2021-09-09T11:19:42Z</time>
      </trkpt>
      <trkpt lat="44.18928" lon="5.94207">
        <ele>551.3</ele>
        <time>2021-09-09T11:19:43Z</time>
      </trkpt>
      <trkpt lat="44.18927" lon="5.94206">
        <ele>551.4</ele>
        <time>2021-09-09T11:19:44Z</time>
      </trkpt>
      <trkpt lat="44.18925" lon="5.94206">
        <ele>551.6</ele>
        <time>2021-09-09T11:19:46Z</time>
      </trkpt>
      <trkpt lat="44.18924" lon="5.94205">
        <ele>551.7</ele>
        <time>2021-09-09T11:19:48Z</time>
      </trkpt>
      <trkpt lat="44.18922" lon="5.94203">
        <ele>551.9</ele>
        <time>2021-09-09T11:19:50Z</time>
      </trkpt>
      <trkpt lat="44.18921" lon="5.94202">
        <ele>552</ele>
        <time>2021-09-09T11:19:52Z</time>
      </trkpt>
      <trkpt lat="44.1892" lon="5.94201">
        <ele>552.1</ele>
        <time>2021-09-09T11:19:53Z</time>
      </trkpt>
      <trkpt lat="44.18918" lon="5.94201">
        <ele>552.3</ele>
        <time>2021-09-09T11:19:54Z</time>
      </trkpt>
      <trkpt lat="44.18916" lon="5.942">
        <ele>552.3</ele>
        <time>2021-09-09T11:19:56Z</time>
      </trkpt>
      <trkpt lat="44.18915" lon="5.942">
        <ele>552.4</ele>
        <time>2021-09-09T11:19:57Z</time>
      </trkpt>
      <trkpt lat="44.18914" lon="5.942">
        <ele>552.6</ele>
        <time>2021-09-09T11:19:58Z</time>
      </trkpt>
      <trkpt lat="44.18911" lon="5.94199">
        <ele>552.8</ele>
        <time>2021-09-09T11:20:00Z</time>
      </trkpt>
      <trkpt lat="44.18909" lon="5.94198">
        <ele>552.9</ele>
        <time>2021-09-09T11:20:01Z</time>
      </trkpt>
      <trkpt lat="44.18908" lon="5.94198">
        <ele>553</ele>
        <time>2021-09-09T11:20:02Z</time>
      </trkpt>
      <trkpt lat="44.18906" lon="5.94196">
        <ele>553.1</ele>
        <time>2021-09-09T11:20:03Z</time>
      </trkpt>
      <trkpt lat="44.18905" lon="5.94196">
        <ele>553.2</ele>
        <time>2021-09-09T11:20:05Z</time>
      </trkpt>
      <trkpt lat="44.18904" lon="5.94195">
        <ele>553.3</ele>
        <time>2021-09-09T11:20:06Z</time>
      </trkpt>
      <trkpt lat="44.18903" lon="5.94195">
        <ele>553.4</ele>
        <time>2021-09-09T11:20:08Z</time>
      </trkpt>
      <trkpt lat="44.18901" lon="5.94194">
        <ele>553.5</ele>
        <time>2021-09-09T11:20:09Z</time>
      </trkpt>
      <trkpt lat="44.18898" lon="5.94195">
        <ele>553.7</ele>
        <time>2021-09-09T11:20:11Z</time>
      </trkpt>
      <trkpt lat="44.18897" lon="5.94196">
        <ele>553.8</ele>
        <time>2021-09-09T11:20:12Z</time>
      </trkpt>
      <trkpt lat="44.18894" lon="5.94199">
        <ele>554</ele>
        <time>2021-09-09T11:20:13Z</time>
      </trkpt>
      <trkpt lat="44.18891" lon="5.94202">
        <ele>554.2</ele>
        <time>2021-09-09T11:20:15Z</time>
      </trkpt>
      <trkpt lat="44.18888" lon="5.94204">
        <ele>554.4</ele>
        <time>2021-09-09T11:20:16Z</time>
      </trkpt>
      <trkpt lat="44.18887" lon="5.94204">
        <ele>554.5</ele>
        <time>2021-09-09T11:20:17Z</time>
      </trkpt>
      <trkpt lat="44.18884" lon="5.94205">
        <ele>554.7</ele>
        <time>2021-09-09T11:20:19Z</time>
      </trkpt>
      <trkpt lat="44.18882" lon="5.94205">
        <ele>554.7</ele>
        <time>2021-09-09T11:20:20Z</time>
      </trkpt>
      <trkpt lat="44.18878" lon="5.94204">
        <ele>554.9</ele>
        <time>2021-09-09T11:20:22Z</time>
      </trkpt>
      <trkpt lat="44.18876" lon="5.94203">
        <ele>555</ele>
        <time>2021-09-09T11:20:23Z</time>
      </trkpt>
      <trkpt lat="44.18873" lon="5.94201">
        <ele>555.2</ele>
        <time>2021-09-09T11:20:24Z</time>
      </trkpt>
      <trkpt lat="44.18869" lon="5.94199">
        <ele>555.3</ele>
        <time>2021-09-09T11:20:26Z</time>
      </trkpt>
      <trkpt lat="44.18866" lon="5.94196">
        <ele>555.5</ele>
        <time>2021-09-09T11:20:27Z</time>
      </trkpt>
      <trkpt lat="44.1886" lon="5.94192">
        <ele>555.7</ele>
        <time>2021-09-09T11:20:29Z</time>
      </trkpt>
      <trkpt lat="44.18855" lon="5.94189">
        <ele>555.9</ele>
        <time>2021-09-09T11:20:31Z</time>
      </trkpt>
      <trkpt lat="44.18854" lon="5.94188">
        <ele>556</ele>
        <time>2021-09-09T11:20:32Z</time>
      </trkpt>
      <trkpt lat="44.18851" lon="5.94187">
        <ele>556.1</ele>
        <time>2021-09-09T11:20:34Z</time>
      </trkpt>
      <trkpt lat="44.18848" lon="5.94186">
        <ele>556.3</ele>
        <time>2021-09-09T11:20:35Z</time>
      </trkpt>
      <trkpt lat="44.18847" lon="5.94186">
        <ele>556.3</ele>
        <time>2021-09-09T11:20:36Z</time>
      </trkpt>
      <trkpt lat="44.18846" lon="5.94185">
        <ele>556.3</ele>
        <time>2021-09-09T11:20:37Z</time>
      </trkpt>
      <trkpt lat="44.18844" lon="5.94184">
        <ele>556.4</ele>
        <time>2021-09-09T11:20:38Z</time>
      </trkpt>
      <trkpt lat="44.18842" lon="5.94183">
        <ele>556.5</ele>
        <time>2021-09-09T11:20:39Z</time>
      </trkpt>
      <trkpt lat="44.18838" lon="5.9418">
        <ele>556.6</ele>
        <time>2021-09-09T11:20:41Z</time>
      </trkpt>
      <trkpt lat="44.18834" lon="5.94176">
        <ele>556.7</ele>
        <time>2021-09-09T11:20:42Z</time>
      </trkpt>
      <trkpt lat="44.1883" lon="5.94174">
        <ele>556.8</ele>
        <time>2021-09-09T11:20:44Z</time>
      </trkpt>
      <trkpt lat="44.18828" lon="5.94172">
        <ele>556.9</ele>
        <time>2021-09-09T11:20:45Z</time>
      </trkpt>
      <trkpt lat="44.18823" lon="5.9417">
        <ele>557</ele>
        <time>2021-09-09T11:20:47Z</time>
      </trkpt>
      <trkpt lat="44.18821" lon="5.94169">
        <ele>557.1</ele>
        <time>2021-09-09T11:20:48Z</time>
      </trkpt>
      <trkpt lat="44.18817" lon="5.94166">
        <ele>557.1</ele>
        <time>2021-09-09T11:20:50Z</time>
      </trkpt>
      <trkpt lat="44.18815" lon="5.94163">
        <ele>557.1</ele>
        <time>2021-09-09T11:20:51Z</time>
      </trkpt>
      <trkpt lat="44.18813" lon="5.94161">
        <ele>557.2</ele>
        <time>2021-09-09T11:20:52Z</time>
      </trkpt>
      <trkpt lat="44.1881" lon="5.94158">
        <ele>557.2</ele>
        <time>2021-09-09T11:20:54Z</time>
      </trkpt>
      <trkpt lat="44.18808" lon="5.94155">
        <ele>557.2</ele>
        <time>2021-09-09T11:20:55Z</time>
      </trkpt>
      <trkpt lat="44.18805" lon="5.94153">
        <ele>557.3</ele>
        <time>2021-09-09T11:20:56Z</time>
      </trkpt>
      <trkpt lat="44.18802" lon="5.94151">
        <ele>557.3</ele>
        <time>2021-09-09T11:20:58Z</time>
      </trkpt>
      <trkpt lat="44.18797" lon="5.9415">
        <ele>557.3</ele>
        <time>2021-09-09T11:20:59Z</time>
      </trkpt>
      <trkpt lat="44.18794" lon="5.94149">
        <ele>557.4</ele>
        <time>2021-09-09T11:21:00Z</time>
      </trkpt>
      <trkpt lat="44.18788" lon="5.94148">
        <ele>557.4</ele>
        <time>2021-09-09T11:21:02Z</time>
      </trkpt>
      <trkpt lat="44.18784" lon="5.94147">
        <ele>557.4</ele>
        <time>2021-09-09T11:21:04Z</time>
      </trkpt>
      <trkpt lat="44.18781" lon="5.94147">
        <ele>557.4</ele>
        <time>2021-09-09T11:21:05Z</time>
      </trkpt>
      <trkpt lat="44.18778" lon="5.94147">
        <ele>557.4</ele>
        <time>2021-09-09T11:21:06Z</time>
      </trkpt>
      <trkpt lat="44.18775" lon="5.94145">
        <ele>557.5</ele>
        <time>2021-09-09T11:21:08Z</time>
      </trkpt>
      <trkpt lat="44.18772" lon="5.94141">
        <ele>557.5</ele>
        <time>2021-09-09T11:21:09Z</time>
      </trkpt>
      <trkpt lat="44.18771" lon="5.94141">
        <ele>557.5</ele>
        <time>2021-09-09T11:21:10Z</time>
      </trkpt>
      <trkpt lat="44.18769" lon="5.94137">
        <ele>557.5</ele>
        <time>2021-09-09T11:21:12Z</time>
      </trkpt>
      <trkpt lat="44.18768" lon="5.94133">
        <ele>557.5</ele>
        <time>2021-09-09T11:21:13Z</time>
      </trkpt>
      <trkpt lat="44.18767" lon="5.94129">
        <ele>557.5</ele>
        <time>2021-09-09T11:21:15Z</time>
      </trkpt>
      <trkpt lat="44.18766" lon="5.94127">
        <ele>557.5</ele>
        <time>2021-09-09T11:21:16Z</time>
      </trkpt>
      <trkpt lat="44.18765" lon="5.94127">
        <ele>557.6</ele>
        <time>2021-09-09T11:21:17Z</time>
      </trkpt>
      <trkpt lat="44.18764" lon="5.94127">
        <ele>557.6</ele>
        <time>2021-09-09T11:21:18Z</time>
      </trkpt>
      <trkpt lat="44.18764" lon="5.94127">
        <ele>557.6</ele>
        <time>2021-09-09T11:21:20Z</time>
      </trkpt>
      <trkpt lat="44.18764" lon="5.94127">
        <ele>557.6</ele>
        <time>2021-09-09T11:21:21Z</time>
      </trkpt>
      <trkpt lat="44.18763" lon="5.94127">
        <ele>557.6</ele>
        <time>2021-09-09T11:21:23Z</time>
      </trkpt>
      <trkpt lat="44.18762" lon="5.94127">
        <ele>557.6</ele>
        <time>2021-09-09T11:21:24Z</time>
      </trkpt>
      <trkpt lat="44.18761" lon="5.94127">
        <ele>557.6</ele>
        <time>2021-09-09T11:21:26Z</time>
      </trkpt>
      <trkpt lat="44.18753" lon="5.94117">
        <ele>557.6</ele>
        <time>2021-09-09T11:21:35Z</time>
      </trkpt>
      <trkpt lat="44.18751" lon="5.94112">
        <ele>557.6</ele>
        <time>2021-09-09T11:21:36Z</time>
      </trkpt>
      <trkpt lat="44.18747" lon="5.94107">
        <ele>557.7</ele>
        <time>2021-09-09T11:21:37Z</time>
      </trkpt>
      <trkpt lat="44.18744" lon="5.94102">
        <ele>557.7</ele>
        <time>2021-09-09T11:21:38Z</time>
      </trkpt>
      <trkpt lat="44.18735" lon="5.94091">
        <ele>557.7</ele>
        <time>2021-09-09T11:21:40Z</time>
      </trkpt>
      <trkpt lat="44.18727" lon="5.94081">
        <ele>557.8</ele>
        <time>2021-09-09T11:21:42Z</time>
      </trkpt>
      <trkpt lat="44.18722" lon="5.94074">
        <ele>557.8</ele>
        <time>2021-09-09T11:21:43Z</time>
      </trkpt>
      <trkpt lat="44.18718" lon="5.9407">
        <ele>557.9</ele>
        <time>2021-09-09T11:21:44Z</time>
      </trkpt>
      <trkpt lat="44.18711" lon="5.94061">
        <ele>557.9</ele>
        <time>2021-09-09T11:21:46Z</time>
      </trkpt>
      <trkpt lat="44.18706" lon="5.94054">
        <ele>558</ele>
        <time>2021-09-09T11:21:48Z</time>
      </trkpt>
      <trkpt lat="44.18703" lon="5.94049">
        <ele>558</ele>
        <time>2021-09-09T11:21:49Z</time>
      </trkpt>
      <trkpt lat="44.187" lon="5.94044">
        <ele>558</ele>
        <time>2021-09-09T11:21:50Z</time>
      </trkpt>
      <trkpt lat="44.18697" lon="5.94036">
        <ele>558</ele>
        <time>2021-09-09T11:21:51Z</time>
      </trkpt>
      <trkpt lat="44.18691" lon="5.94026">
        <ele>558.1</ele>
        <time>2021-09-09T11:21:53Z</time>
      </trkpt>
      <trkpt lat="44.18687" lon="5.9402">
        <ele>558.1</ele>
        <time>2021-09-09T11:21:54Z</time>
      </trkpt>
      <trkpt lat="44.1868" lon="5.9401">
        <ele>558.1</ele>
        <time>2021-09-09T11:21:56Z</time>
      </trkpt>
      <trkpt lat="44.18678" lon="5.94008">
        <ele>558.2</ele>
        <time>2021-09-09T11:21:57Z</time>
      </trkpt>
      <trkpt lat="44.18674" lon="5.94004">
        <ele>558.2</ele>
        <time>2021-09-09T11:21:58Z</time>
      </trkpt>
      <trkpt lat="44.18671" lon="5.93999">
        <ele>558.2</ele>
        <time>2021-09-09T11:21:59Z</time>
      </trkpt>
      <trkpt lat="44.18665" lon="5.93995">
        <ele>558.2</ele>
        <time>2021-09-09T11:22:01Z</time>
      </trkpt>
      <trkpt lat="44.1866" lon="5.9399">
        <ele>558.2</ele>
        <time>2021-09-09T11:22:02Z</time>
      </trkpt>
      <trkpt lat="44.18656" lon="5.93985">
        <ele>558.2</ele>
        <time>2021-09-09T11:22:04Z</time>
      </trkpt>
      <trkpt lat="44.18652" lon="5.93982">
        <ele>558.2</ele>
        <time>2021-09-09T11:22:05Z</time>
      </trkpt>
      <trkpt lat="44.18648" lon="5.9398">
        <ele>558.3</ele>
        <time>2021-09-09T11:22:06Z</time>
      </trkpt>
      <trkpt lat="44.18644" lon="5.9398">
        <ele>558.3</ele>
        <time>2021-09-09T11:22:08Z</time>
      </trkpt>
      <trkpt lat="44.18637" lon="5.93976">
        <ele>558.3</ele>
        <time>2021-09-09T11:22:09Z</time>
      </trkpt>
      <trkpt lat="44.18631" lon="5.93968">
        <ele>558.4</ele>
        <time>2021-09-09T11:22:11Z</time>
      </trkpt>
      <trkpt lat="44.18625" lon="5.93962">
        <ele>558.4</ele>
        <time>2021-09-09T11:22:13Z</time>
      </trkpt>
      <trkpt lat="44.18618" lon="5.93959">
        <ele>558.4</ele>
        <time>2021-09-09T11:22:14Z</time>
      </trkpt>
      <trkpt lat="44.1861" lon="5.93954">
        <ele>558.5</ele>
        <time>2021-09-09T11:22:16Z</time>
      </trkpt>
      <trkpt lat="44.18602" lon="5.93946">
        <ele>558.6</ele>
        <time>2021-09-09T11:22:18Z</time>
      </trkpt>
      <trkpt lat="44.18595" lon="5.93942">
        <ele>558.6</ele>
        <time>2021-09-09T11:22:19Z</time>
      </trkpt>
      <trkpt lat="44.18589" lon="5.93939">
        <ele>558.7</ele>
        <time>2021-09-09T11:22:20Z</time>
      </trkpt>
      <trkpt lat="44.18583" lon="5.93932">
        <ele>558.7</ele>
        <time>2021-09-09T11:22:22Z</time>
      </trkpt>
      <trkpt lat="44.18576" lon="5.93924">
        <ele>558.8</ele>
        <time>2021-09-09T11:22:24Z</time>
      </trkpt>
      <trkpt lat="44.18571" lon="5.93917">
        <ele>558.9</ele>
        <time>2021-09-09T11:22:26Z</time>
      </trkpt>
      <trkpt lat="44.18568" lon="5.93911">
        <ele>558.9</ele>
        <time>2021-09-09T11:22:28Z</time>
      </trkpt>
      <trkpt lat="44.18563" lon="5.93897">
        <ele>559</ele>
        <time>2021-09-09T11:22:30Z</time>
      </trkpt>
      <trkpt lat="44.18559" lon="5.93885">
        <ele>559.1</ele>
        <time>2021-09-09T11:22:32Z</time>
      </trkpt>
      <trkpt lat="44.18553" lon="5.93876">
        <ele>559.2</ele>
        <time>2021-09-09T11:22:34Z</time>
      </trkpt>
      <trkpt lat="44.18547" lon="5.93873">
        <ele>559.3</ele>
        <time>2021-09-09T11:22:36Z</time>
      </trkpt>
      <trkpt lat="44.18545" lon="5.93867">
        <ele>559.4</ele>
        <time>2021-09-09T11:22:37Z</time>
      </trkpt>
      <trkpt lat="44.18541" lon="5.9386">
        <ele>559.5</ele>
        <time>2021-09-09T11:22:38Z</time>
      </trkpt>
      <trkpt lat="44.18536" lon="5.93851">
        <ele>559.6</ele>
        <time>2021-09-09T11:22:40Z</time>
      </trkpt>
      <trkpt lat="44.18535" lon="5.93846">
        <ele>559.7</ele>
        <time>2021-09-09T11:22:41Z</time>
      </trkpt>
      <trkpt lat="44.18531" lon="5.93843">
        <ele>559.7</ele>
        <time>2021-09-09T11:22:42Z</time>
      </trkpt>
      <trkpt lat="44.18527" lon="5.9384">
        <ele>559.8</ele>
        <time>2021-09-09T11:22:43Z</time>
      </trkpt>
      <trkpt lat="44.18524" lon="5.93836">
        <ele>559.9</ele>
        <time>2021-09-09T11:22:44Z</time>
      </trkpt>
      <trkpt lat="44.1852" lon="5.9383">
        <ele>559.9</ele>
        <time>2021-09-09T11:22:46Z</time>
      </trkpt>
      <trkpt lat="44.18517" lon="5.93825">
        <ele>560</ele>
        <time>2021-09-09T11:22:47Z</time>
      </trkpt>
      <trkpt lat="44.18512" lon="5.93814">
        <ele>560.2</ele>
        <time>2021-09-09T11:22:48Z</time>
      </trkpt>
      <trkpt lat="44.18509" lon="5.93809">
        <ele>560.3</ele>
        <time>2021-09-09T11:22:50Z</time>
      </trkpt>
      <trkpt lat="44.18505" lon="5.93804">
        <ele>560.3</ele>
        <time>2021-09-09T11:22:51Z</time>
      </trkpt>
      <trkpt lat="44.18502" lon="5.93801">
        <ele>560.4</ele>
        <time>2021-09-09T11:22:52Z</time>
      </trkpt>
      <trkpt lat="44.185" lon="5.93797">
        <ele>560.5</ele>
        <time>2021-09-09T11:22:53Z</time>
      </trkpt>
      <trkpt lat="44.18497" lon="5.93791">
        <ele>560.5</ele>
        <time>2021-09-09T11:22:55Z</time>
      </trkpt>
      <trkpt lat="44.18495" lon="5.93787">
        <ele>560.6</ele>
        <time>2021-09-09T11:22:56Z</time>
      </trkpt>
      <trkpt lat="44.18492" lon="5.9378">
        <ele>560.6</ele>
        <time>2021-09-09T11:22:57Z</time>
      </trkpt>
      <trkpt lat="44.18489" lon="5.93775">
        <ele>560.7</ele>
        <time>2021-09-09T11:22:59Z</time>
      </trkpt>
      <trkpt lat="44.18486" lon="5.9377">
        <ele>560.7</ele>
        <time>2021-09-09T11:23:00Z</time>
      </trkpt>
      <trkpt lat="44.18481" lon="5.93764">
        <ele>560.9</ele>
        <time>2021-09-09T11:23:01Z</time>
      </trkpt>
      <trkpt lat="44.18477" lon="5.93759">
        <ele>561</ele>
        <time>2021-09-09T11:23:02Z</time>
      </trkpt>
      <trkpt lat="44.18473" lon="5.93751">
        <ele>561.1</ele>
        <time>2021-09-09T11:23:04Z</time>
      </trkpt>
      <trkpt lat="44.1847" lon="5.93743">
        <ele>561.2</ele>
        <time>2021-09-09T11:23:06Z</time>
      </trkpt>
      <trkpt lat="44.18468" lon="5.93739">
        <ele>561.3</ele>
        <time>2021-09-09T11:23:07Z</time>
      </trkpt>
      <trkpt lat="44.18465" lon="5.93735">
        <ele>561.4</ele>
        <time>2021-09-09T11:23:08Z</time>
      </trkpt>
      <trkpt lat="44.18461" lon="5.93731">
        <ele>561.4</ele>
        <time>2021-09-09T11:23:09Z</time>
      </trkpt>
      <trkpt lat="44.18457" lon="5.93727">
        <ele>561.5</ele>
        <time>2021-09-09T11:23:11Z</time>
      </trkpt>
      <trkpt lat="44.18451" lon="5.93722">
        <ele>561.7</ele>
        <time>2021-09-09T11:23:12Z</time>
      </trkpt>
      <trkpt lat="44.18445" lon="5.93713">
        <ele>561.8</ele>
        <time>2021-09-09T11:23:14Z</time>
      </trkpt>
      <trkpt lat="44.1844" lon="5.93705">
        <ele>562</ele>
        <time>2021-09-09T11:23:16Z</time>
      </trkpt>
      <trkpt lat="44.18438" lon="5.937">
        <ele>562.1</ele>
        <time>2021-09-09T11:23:17Z</time>
      </trkpt>
      <trkpt lat="44.18433" lon="5.93689">
        <ele>562.2</ele>
        <time>2021-09-09T11:23:19Z</time>
      </trkpt>
      <trkpt lat="44.18429" lon="5.9368">
        <ele>562.3</ele>
        <time>2021-09-09T11:23:21Z</time>
      </trkpt>
      <trkpt lat="44.18427" lon="5.93669">
        <ele>562.4</ele>
        <time>2021-09-09T11:23:22Z</time>
      </trkpt>
      <trkpt lat="44.18424" lon="5.93665">
        <ele>562.5</ele>
        <time>2021-09-09T11:23:23Z</time>
      </trkpt>
      <trkpt lat="44.18424" lon="5.93659">
        <ele>562.6</ele>
        <time>2021-09-09T11:23:25Z</time>
      </trkpt>
      <trkpt lat="44.18418" lon="5.93651">
        <ele>562.7</ele>
        <time>2021-09-09T11:23:27Z</time>
      </trkpt>
      <trkpt lat="44.18415" lon="5.93646">
        <ele>562.8</ele>
        <time>2021-09-09T11:23:28Z</time>
      </trkpt>
      <trkpt lat="44.18409" lon="5.93638">
        <ele>562.9</ele>
        <time>2021-09-09T11:23:30Z</time>
      </trkpt>
      <trkpt lat="44.18404" lon="5.9363">
        <ele>563</ele>
        <time>2021-09-09T11:23:32Z</time>
      </trkpt>
      <trkpt lat="44.18398" lon="5.93621">
        <ele>563.1</ele>
        <time>2021-09-09T11:23:34Z</time>
      </trkpt>
      <trkpt lat="44.18391" lon="5.93613">
        <ele>563.3</ele>
        <time>2021-09-09T11:23:36Z</time>
      </trkpt>
      <trkpt lat="44.18386" lon="5.93607">
        <ele>563.4</ele>
        <time>2021-09-09T11:23:38Z</time>
      </trkpt>
      <trkpt lat="44.18382" lon="5.93601">
        <ele>563.5</ele>
        <time>2021-09-09T11:23:40Z</time>
      </trkpt>
      <trkpt lat="44.18377" lon="5.93593">
        <ele>563.6</ele>
        <time>2021-09-09T11:23:42Z</time>
      </trkpt>
      <trkpt lat="44.18374" lon="5.9359">
        <ele>563.7</ele>
        <time>2021-09-09T11:23:43Z</time>
      </trkpt>
      <trkpt lat="44.1837" lon="5.93584">
        <ele>563.7</ele>
        <time>2021-09-09T11:23:44Z</time>
      </trkpt>
      <trkpt lat="44.18366" lon="5.93579">
        <ele>563.8</ele>
        <time>2021-09-09T11:23:46Z</time>
      </trkpt>
      <trkpt lat="44.18362" lon="5.93572">
        <ele>563.9</ele>
        <time>2021-09-09T11:23:47Z</time>
      </trkpt>
      <trkpt lat="44.18358" lon="5.93566">
        <ele>564</ele>
        <time>2021-09-09T11:23:49Z</time>
      </trkpt>
      <trkpt lat="44.18355" lon="5.93562">
        <ele>564</ele>
        <time>2021-09-09T11:23:50Z</time>
      </trkpt>
      <trkpt lat="44.18351" lon="5.93555">
        <ele>564.1</ele>
        <time>2021-09-09T11:23:51Z</time>
      </trkpt>
      <trkpt lat="44.18348" lon="5.93549">
        <ele>564.2</ele>
        <time>2021-09-09T11:23:53Z</time>
      </trkpt>
      <trkpt lat="44.18345" lon="5.93542">
        <ele>564.3</ele>
        <time>2021-09-09T11:23:54Z</time>
      </trkpt>
      <trkpt lat="44.18342" lon="5.93538">
        <ele>564.3</ele>
        <time>2021-09-09T11:23:56Z</time>
      </trkpt>
      <trkpt lat="44.1834" lon="5.93534">
        <ele>564.4</ele>
        <time>2021-09-09T11:23:57Z</time>
      </trkpt>
      <trkpt lat="44.18337" lon="5.93525">
        <ele>564.5</ele>
        <time>2021-09-09T11:23:58Z</time>
      </trkpt>
      <trkpt lat="44.18333" lon="5.93516">
        <ele>564.6</ele>
        <time>2021-09-09T11:24:00Z</time>
      </trkpt>
      <trkpt lat="44.18331" lon="5.93509">
        <ele>564.6</ele>
        <time>2021-09-09T11:24:01Z</time>
      </trkpt>
      <trkpt lat="44.1833" lon="5.93503">
        <ele>564.7</ele>
        <time>2021-09-09T11:24:02Z</time>
      </trkpt>
      <trkpt lat="44.18327" lon="5.93495">
        <ele>564.7</ele>
        <time>2021-09-09T11:24:04Z</time>
      </trkpt>
      <trkpt lat="44.18325" lon="5.9349">
        <ele>564.7</ele>
        <time>2021-09-09T11:24:05Z</time>
      </trkpt>
      <trkpt lat="44.18321" lon="5.93481">
        <ele>564.8</ele>
        <time>2021-09-09T11:24:07Z</time>
      </trkpt>
      <trkpt lat="44.18319" lon="5.93476">
        <ele>564.9</ele>
        <time>2021-09-09T11:24:08Z</time>
      </trkpt>
      <trkpt lat="44.18316" lon="5.93471">
        <ele>564.9</ele>
        <time>2021-09-09T11:24:09Z</time>
      </trkpt>
      <trkpt lat="44.18312" lon="5.9346">
        <ele>565</ele>
        <time>2021-09-09T11:24:11Z</time>
      </trkpt>
      <trkpt lat="44.1831" lon="5.93455">
        <ele>565.1</ele>
        <time>2021-09-09T11:24:12Z</time>
      </trkpt>
      <trkpt lat="44.18307" lon="5.93445">
        <ele>565.1</ele>
        <time>2021-09-09T11:24:14Z</time>
      </trkpt>
      <trkpt lat="44.18307" lon="5.9344">
        <ele>565.2</ele>
        <time>2021-09-09T11:24:15Z</time>
      </trkpt>
      <trkpt lat="44.18306" lon="5.93435">
        <ele>565.2</ele>
        <time>2021-09-09T11:24:16Z</time>
      </trkpt>
      <trkpt lat="44.18305" lon="5.93429">
        <ele>565.2</ele>
        <time>2021-09-09T11:24:17Z</time>
      </trkpt>
      <trkpt lat="44.18304" lon="5.93423">
        <ele>565.2</ele>
        <time>2021-09-09T11:24:18Z</time>
      </trkpt>
      <trkpt lat="44.18302" lon="5.93412">
        <ele>565.3</ele>
        <time>2021-09-09T11:24:20Z</time>
      </trkpt>
      <trkpt lat="44.18301" lon="5.93406">
        <ele>565.3</ele>
        <time>2021-09-09T11:24:21Z</time>
      </trkpt>
      <trkpt lat="44.18298" lon="5.93396">
        <ele>565.2</ele>
        <time>2021-09-09T11:24:23Z</time>
      </trkpt>
      <trkpt lat="44.18295" lon="5.93387">
        <ele>565.2</ele>
        <time>2021-09-09T11:24:25Z</time>
      </trkpt>
      <trkpt lat="44.18293" lon="5.93382">
        <ele>565.1</ele>
        <time>2021-09-09T11:24:26Z</time>
      </trkpt>
      <trkpt lat="44.18289" lon="5.93373">
        <ele>565</ele>
        <time>2021-09-09T11:24:27Z</time>
      </trkpt>
      <trkpt lat="44.18285" lon="5.93361">
        <ele>564.9</ele>
        <time>2021-09-09T11:24:29Z</time>
      </trkpt>
      <trkpt lat="44.18282" lon="5.93354">
        <ele>564.8</ele>
        <time>2021-09-09T11:24:30Z</time>
      </trkpt>
      <trkpt lat="44.18281" lon="5.93347">
        <ele>564.6</ele>
        <time>2021-09-09T11:24:31Z</time>
      </trkpt>
      <trkpt lat="44.18277" lon="5.93334">
        <ele>564.3</ele>
        <time>2021-09-09T11:24:33Z</time>
      </trkpt>
      <trkpt lat="44.18275" lon="5.93327">
        <ele>564.2</ele>
        <time>2021-09-09T11:24:34Z</time>
      </trkpt>
      <trkpt lat="44.1827" lon="5.93311">
        <ele>563.9</ele>
        <time>2021-09-09T11:24:36Z</time>
      </trkpt>
      <trkpt lat="44.18265" lon="5.93292">
        <ele>563.6</ele>
        <time>2021-09-09T11:24:38Z</time>
      </trkpt>
      <trkpt lat="44.18259" lon="5.93272">
        <ele>563.5</ele>
        <time>2021-09-09T11:24:40Z</time>
      </trkpt>
      <trkpt lat="44.18253" lon="5.93255">
        <ele>563.5</ele>
        <time>2021-09-09T11:24:42Z</time>
      </trkpt>
      <trkpt lat="44.1825" lon="5.93247">
        <ele>563.5</ele>
        <time>2021-09-09T11:24:43Z</time>
      </trkpt>
      <trkpt lat="44.18247" lon="5.93239">
        <ele>563.5</ele>
        <time>2021-09-09T11:24:44Z</time>
      </trkpt>
      <trkpt lat="44.18239" lon="5.93227">
        <ele>563.6</ele>
        <time>2021-09-09T11:24:46Z</time>
      </trkpt>
      <trkpt lat="44.18234" lon="5.93223">
        <ele>563.6</ele>
        <time>2021-09-09T11:24:47Z</time>
      </trkpt>
      <trkpt lat="44.18229" lon="5.93219">
        <ele>563.7</ele>
        <time>2021-09-09T11:24:48Z</time>
      </trkpt>
      <trkpt lat="44.18223" lon="5.93216">
        <ele>563.7</ele>
        <time>2021-09-09T11:24:49Z</time>
      </trkpt>
      <trkpt lat="44.18212" lon="5.93211">
        <ele>563.7</ele>
        <time>2021-09-09T11:24:51Z</time>
      </trkpt>
      <trkpt lat="44.18206" lon="5.9321">
        <ele>563.7</ele>
        <time>2021-09-09T11:24:52Z</time>
      </trkpt>
      <trkpt lat="44.18195" lon="5.93208">
        <ele>563.5</ele>
        <time>2021-09-09T11:24:54Z</time>
      </trkpt>
      <trkpt lat="44.18184" lon="5.93207">
        <ele>563.2</ele>
        <time>2021-09-09T11:24:56Z</time>
      </trkpt>
      <trkpt lat="44.18173" lon="5.93206">
        <ele>562.7</ele>
        <time>2021-09-09T11:24:58Z</time>
      </trkpt>
      <trkpt lat="44.18166" lon="5.93206">
        <ele>562.5</ele>
        <time>2021-09-09T11:24:59Z</time>
      </trkpt>
      <trkpt lat="44.1816" lon="5.93205">
        <ele>562.2</ele>
        <time>2021-09-09T11:25:00Z</time>
      </trkpt>
      <trkpt lat="44.18147" lon="5.93203">
        <ele>561.4</ele>
        <time>2021-09-09T11:25:02Z</time>
      </trkpt>
      <trkpt lat="44.1814" lon="5.93202">
        <ele>561</ele>
        <time>2021-09-09T11:25:03Z</time>
      </trkpt>
      <trkpt lat="44.18133" lon="5.932">
        <ele>560.5</ele>
        <time>2021-09-09T11:25:04Z</time>
      </trkpt>
      <trkpt lat="44.18125" lon="5.93199">
        <ele>560</ele>
        <time>2021-09-09T11:25:05Z</time>
      </trkpt>
      <trkpt lat="44.18118" lon="5.93197">
        <ele>559.5</ele>
        <time>2021-09-09T11:25:06Z</time>
      </trkpt>
      <trkpt lat="44.18103" lon="5.93192">
        <ele>558.2</ele>
        <time>2021-09-09T11:25:08Z</time>
      </trkpt>
      <trkpt lat="44.18088" lon="5.93189">
        <ele>556.8</ele>
        <time>2021-09-09T11:25:10Z</time>
      </trkpt>
      <trkpt lat="44.18081" lon="5.93189">
        <ele>556</ele>
        <time>2021-09-09T11:25:11Z</time>
      </trkpt>
      <trkpt lat="44.18073" lon="5.93188">
        <ele>555.3</ele>
        <time>2021-09-09T11:25:12Z</time>
      </trkpt>
      <trkpt lat="44.18065" lon="5.93188">
        <ele>554.5</ele>
        <time>2021-09-09T11:25:13Z</time>
      </trkpt>
      <trkpt lat="44.18049" lon="5.93185">
        <ele>552.8</ele>
        <time>2021-09-09T11:25:15Z</time>
      </trkpt>
      <trkpt lat="44.18041" lon="5.93184">
        <ele>552.1</ele>
        <time>2021-09-09T11:25:16Z</time>
      </trkpt>
      <trkpt lat="44.18026" lon="5.93183">
        <ele>551.6</ele>
        <time>2021-09-09T11:25:18Z</time>
      </trkpt>
      <trkpt lat="44.18009" lon="5.93185">
        <ele>550.2</ele>
        <time>2021-09-09T11:25:20Z</time>
      </trkpt>
      <trkpt lat="44.18" lon="5.93183">
        <ele>549.5</ele>
        <time>2021-09-09T11:25:21Z</time>
      </trkpt>
      <trkpt lat="44.17982" lon="5.93177">
        <ele>548.1</ele>
        <time>2021-09-09T11:25:23Z</time>
      </trkpt>
      <trkpt lat="44.17973" lon="5.93173">
        <ele>547.3</ele>
        <time>2021-09-09T11:25:24Z</time>
      </trkpt>
      <trkpt lat="44.17956" lon="5.93162">
        <ele>545.8</ele>
        <time>2021-09-09T11:25:26Z</time>
      </trkpt>
      <trkpt lat="44.1794" lon="5.9315">
        <ele>544.3</ele>
        <time>2021-09-09T11:25:28Z</time>
      </trkpt>
      <trkpt lat="44.17932" lon="5.93144">
        <ele>543.6</ele>
        <time>2021-09-09T11:25:29Z</time>
      </trkpt>
      <trkpt lat="44.17916" lon="5.93132">
        <ele>542.1</ele>
        <time>2021-09-09T11:25:31Z</time>
      </trkpt>
      <trkpt lat="44.17909" lon="5.93125">
        <ele>541.3</ele>
        <time>2021-09-09T11:25:32Z</time>
      </trkpt>
      <trkpt lat="44.17896" lon="5.9311">
        <ele>539.8</ele>
        <time>2021-09-09T11:25:34Z</time>
      </trkpt>
      <trkpt lat="44.17885" lon="5.93092">
        <ele>538.3</ele>
        <time>2021-09-09T11:25:36Z</time>
      </trkpt>
      <trkpt lat="44.17878" lon="5.93075">
        <ele>537.1</ele>
        <time>2021-09-09T11:25:38Z</time>
      </trkpt>
      <trkpt lat="44.17874" lon="5.9306">
        <ele>536.2</ele>
        <time>2021-09-09T11:25:40Z</time>
      </trkpt>
      <trkpt lat="44.1787" lon="5.93048">
        <ele>535.6</ele>
        <time>2021-09-09T11:25:42Z</time>
      </trkpt>
      <trkpt lat="44.17864" lon="5.93043">
        <ele>535.3</ele>
        <time>2021-09-09T11:25:44Z</time>
      </trkpt>
      <trkpt lat="44.17853" lon="5.93033">
        <ele>533.9</ele>
        <time>2021-09-09T11:25:46Z</time>
      </trkpt>
      <trkpt lat="44.1784" lon="5.93024">
        <ele>532.1</ele>
        <time>2021-09-09T11:25:48Z</time>
      </trkpt>
      <trkpt lat="44.17825" lon="5.93017">
        <ele>530.1</ele>
        <time>2021-09-09T11:25:50Z</time>
      </trkpt>
      <trkpt lat="44.17807" lon="5.93011">
        <ele>528</ele>
        <time>2021-09-09T11:25:52Z</time>
      </trkpt>
      <trkpt lat="44.17788" lon="5.93003">
        <ele>525.7</ele>
        <time>2021-09-09T11:25:54Z</time>
      </trkpt>
      <trkpt lat="44.17777" lon="5.92999">
        <ele>524.4</ele>
        <time>2021-09-09T11:25:55Z</time>
      </trkpt>
      <trkpt lat="44.17756" lon="5.9299">
        <ele>522</ele>
        <time>2021-09-09T11:25:57Z</time>
      </trkpt>
      <trkpt lat="44.17733" lon="5.92979">
        <ele>519.8</ele>
        <time>2021-09-09T11:25:59Z</time>
      </trkpt>
      <trkpt lat="44.1771" lon="5.92968">
        <ele>518</ele>
        <time>2021-09-09T11:26:01Z</time>
      </trkpt>
      <trkpt lat="44.17699" lon="5.92963">
        <ele>517.2</ele>
        <time>2021-09-09T11:26:02Z</time>
      </trkpt>
      <trkpt lat="44.17678" lon="5.92953">
        <ele>515.8</ele>
        <time>2021-09-09T11:26:04Z</time>
      </trkpt>
      <trkpt lat="44.17657" lon="5.92943">
        <ele>514.6</ele>
        <time>2021-09-09T11:26:06Z</time>
      </trkpt>
      <trkpt lat="44.17647" lon="5.92938">
        <ele>514</ele>
        <time>2021-09-09T11:26:07Z</time>
      </trkpt>
      <trkpt lat="44.17637" lon="5.92933">
        <ele>513.4</ele>
        <time>2021-09-09T11:26:08Z</time>
      </trkpt>
      <trkpt lat="44.17617" lon="5.92926">
        <ele>512.4</ele>
        <time>2021-09-09T11:26:10Z</time>
      </trkpt>
      <trkpt lat="44.17607" lon="5.92926">
        <ele>511.9</ele>
        <time>2021-09-09T11:26:11Z</time>
      </trkpt>
      <trkpt lat="44.17596" lon="5.92927">
        <ele>511.4</ele>
        <time>2021-09-09T11:26:12Z</time>
      </trkpt>
      <trkpt lat="44.17576" lon="5.92933">
        <ele>510.3</ele>
        <time>2021-09-09T11:26:14Z</time>
      </trkpt>
      <trkpt lat="44.17557" lon="5.92939">
        <ele>509.1</ele>
        <time>2021-09-09T11:26:16Z</time>
      </trkpt>
      <trkpt lat="44.17537" lon="5.9294">
        <ele>507.8</ele>
        <time>2021-09-09T11:26:18Z</time>
      </trkpt>
      <trkpt lat="44.17517" lon="5.92935">
        <ele>506.5</ele>
        <time>2021-09-09T11:26:20Z</time>
      </trkpt>
      <trkpt lat="44.17499" lon="5.92924">
        <ele>505.1</ele>
        <time>2021-09-09T11:26:22Z</time>
      </trkpt>
      <trkpt lat="44.17484" lon="5.92912">
        <ele>503.6</ele>
        <time>2021-09-09T11:26:24Z</time>
      </trkpt>
      <trkpt lat="44.17477" lon="5.92905">
        <ele>502.8</ele>
        <time>2021-09-09T11:26:25Z</time>
      </trkpt>
      <trkpt lat="44.1747" lon="5.92898">
        <ele>502</ele>
        <time>2021-09-09T11:26:26Z</time>
      </trkpt>
      <trkpt lat="44.17455" lon="5.92885">
        <ele>500.4</ele>
        <time>2021-09-09T11:26:28Z</time>
      </trkpt>
      <trkpt lat="44.17439" lon="5.92874">
        <ele>498.6</ele>
        <time>2021-09-09T11:26:30Z</time>
      </trkpt>
      <trkpt lat="44.17431" lon="5.92871">
        <ele>497.7</ele>
        <time>2021-09-09T11:26:31Z</time>
      </trkpt>
      <trkpt lat="44.17422" lon="5.92871">
        <ele>496.8</ele>
        <time>2021-09-09T11:26:32Z</time>
      </trkpt>
      <trkpt lat="44.17413" lon="5.9287">
        <ele>495.9</ele>
        <time>2021-09-09T11:26:33Z</time>
      </trkpt>
      <trkpt lat="44.17393" lon="5.92864">
        <ele>494</ele>
        <time>2021-09-09T11:26:35Z</time>
      </trkpt>
      <trkpt lat="44.17384" lon="5.92859">
        <ele>493.3</ele>
        <time>2021-09-09T11:26:36Z</time>
      </trkpt>
      <trkpt lat="44.17375" lon="5.92852">
        <ele>492.8</ele>
        <time>2021-09-09T11:26:37Z</time>
      </trkpt>
      <trkpt lat="44.17368" lon="5.92845">
        <ele>492.4</ele>
        <time>2021-09-09T11:26:38Z</time>
      </trkpt>
      <trkpt lat="44.17353" lon="5.92831">
        <ele>492</ele>
        <time>2021-09-09T11:26:40Z</time>
      </trkpt>
      <trkpt lat="44.17346" lon="5.92824">
        <ele>491.9</ele>
        <time>2021-09-09T11:26:41Z</time>
      </trkpt>
      <trkpt lat="44.1734" lon="5.92818">
        <ele>491.8</ele>
        <time>2021-09-09T11:26:42Z</time>
      </trkpt>
      <trkpt lat="44.1733" lon="5.92804">
        <ele>491.8</ele>
        <time>2021-09-09T11:26:44Z</time>
      </trkpt>
      <trkpt lat="44.1732" lon="5.9279">
        <ele>491.9</ele>
        <time>2021-09-09T11:26:46Z</time>
      </trkpt>
      <trkpt lat="44.17315" lon="5.92784">
        <ele>492</ele>
        <time>2021-09-09T11:26:47Z</time>
      </trkpt>
      <trkpt lat="44.17309" lon="5.9278">
        <ele>492.1</ele>
        <time>2021-09-09T11:26:48Z</time>
      </trkpt>
      <trkpt lat="44.17298" lon="5.92775">
        <ele>492.5</ele>
        <time>2021-09-09T11:26:50Z</time>
      </trkpt>
      <trkpt lat="44.17289" lon="5.92771">
        <ele>493.1</ele>
        <time>2021-09-09T11:26:52Z</time>
      </trkpt>
      <trkpt lat="44.17279" lon="5.92769">
        <ele>493.8</ele>
        <time>2021-09-09T11:26:54Z</time>
      </trkpt>
      <trkpt lat="44.17269" lon="5.92763">
        <ele>494.5</ele>
        <time>2021-09-09T11:26:56Z</time>
      </trkpt>
      <trkpt lat="44.17266" lon="5.92758">
        <ele>494.8</ele>
        <time>2021-09-09T11:26:58Z</time>
      </trkpt>
      <trkpt lat="44.17263" lon="5.92755">
        <ele>494.9</ele>
        <time>2021-09-09T11:26:59Z</time>
      </trkpt>
      <trkpt lat="44.17261" lon="5.92753">
        <ele>495</ele>
        <time>2021-09-09T11:27:00Z</time>
      </trkpt>
      <trkpt lat="44.17254" lon="5.92747">
        <ele>495.3</ele>
        <time>2021-09-09T11:27:02Z</time>
      </trkpt>
      <trkpt lat="44.17248" lon="5.92743">
        <ele>495.4</ele>
        <time>2021-09-09T11:27:04Z</time>
      </trkpt>
      <trkpt lat="44.17248" lon="5.92741">
        <ele>495.4</ele>
        <time>2021-09-09T11:27:05Z</time>
      </trkpt>
      <trkpt lat="44.17245" lon="5.92739">
        <ele>495.5</ele>
        <time>2021-09-09T11:27:07Z</time>
      </trkpt>
      <trkpt lat="44.17242" lon="5.9274">
        <ele>495.5</ele>
        <time>2021-09-09T11:27:08Z</time>
      </trkpt>
      <trkpt lat="44.17239" lon="5.92741">
        <ele>495.5</ele>
        <time>2021-09-09T11:27:09Z</time>
      </trkpt>
      <trkpt lat="44.17235" lon="5.92742">
        <ele>495.5</ele>
        <time>2021-09-09T11:27:10Z</time>
      </trkpt>
      <trkpt lat="44.17228" lon="5.92744">
        <ele>495.5</ele>
        <time>2021-09-09T11:27:12Z</time>
      </trkpt>
      <trkpt lat="44.17225" lon="5.92745">
        <ele>495.5</ele>
        <time>2021-09-09T11:27:13Z</time>
      </trkpt>
      <trkpt lat="44.17221" lon="5.92746">
        <ele>495.5</ele>
        <time>2021-09-09T11:27:14Z</time>
      </trkpt>
      <trkpt lat="44.17215" lon="5.92746">
        <ele>495.4</ele>
        <time>2021-09-09T11:27:16Z</time>
      </trkpt>
      <trkpt lat="44.17212" lon="5.92748">
        <ele>495.4</ele>
        <time>2021-09-09T11:27:17Z</time>
      </trkpt>
      <trkpt lat="44.1721" lon="5.92748">
        <ele>495.4</ele>
        <time>2021-09-09T11:27:18Z</time>
      </trkpt>
      <trkpt lat="44.17204" lon="5.92746">
        <ele>495.3</ele>
        <time>2021-09-09T11:27:20Z</time>
      </trkpt>
      <trkpt lat="44.17198" lon="5.92745">
        <ele>495.2</ele>
        <time>2021-09-09T11:27:22Z</time>
      </trkpt>
      <trkpt lat="44.17194" lon="5.92743">
        <ele>495.1</ele>
        <time>2021-09-09T11:27:23Z</time>
      </trkpt>
      <trkpt lat="44.1719" lon="5.92742">
        <ele>495</ele>
        <time>2021-09-09T11:27:24Z</time>
      </trkpt>
      <trkpt lat="44.17187" lon="5.92742">
        <ele>494.9</ele>
        <time>2021-09-09T11:27:25Z</time>
      </trkpt>
      <trkpt lat="44.1718" lon="5.92741">
        <ele>494.7</ele>
        <time>2021-09-09T11:27:27Z</time>
      </trkpt>
      <trkpt lat="44.17174" lon="5.9274">
        <ele>494.5</ele>
        <time>2021-09-09T11:27:28Z</time>
      </trkpt>
      <trkpt lat="44.1717" lon="5.92739">
        <ele>494.4</ele>
        <time>2021-09-09T11:27:29Z</time>
      </trkpt>
      <trkpt lat="44.17165" lon="5.92737">
        <ele>494.1</ele>
        <time>2021-09-09T11:27:30Z</time>
      </trkpt>
      <trkpt lat="44.17156" lon="5.92732">
        <ele>493.5</ele>
        <time>2021-09-09T11:27:32Z</time>
      </trkpt>
      <trkpt lat="44.17147" lon="5.92727">
        <ele>492.9</ele>
        <time>2021-09-09T11:27:34Z</time>
      </trkpt>
      <trkpt lat="44.17138" lon="5.92721">
        <ele>492.3</ele>
        <time>2021-09-09T11:27:36Z</time>
      </trkpt>
      <trkpt lat="44.17128" lon="5.92716">
        <ele>491.7</ele>
        <time>2021-09-09T11:27:38Z</time>
      </trkpt>
      <trkpt lat="44.17115" lon="5.92714">
        <ele>491</ele>
        <time>2021-09-09T11:27:40Z</time>
      </trkpt>
      <trkpt lat="44.17108" lon="5.92713">
        <ele>490.8</ele>
        <time>2021-09-09T11:27:41Z</time>
      </trkpt>
      <trkpt lat="44.17102" lon="5.92713">
        <ele>490.6</ele>
        <time>2021-09-09T11:27:42Z</time>
      </trkpt>
      <trkpt lat="44.17096" lon="5.92711">
        <ele>490.5</ele>
        <time>2021-09-09T11:27:43Z</time>
      </trkpt>
      <trkpt lat="44.17085" lon="5.92707">
        <ele>490.4</ele>
        <time>2021-09-09T11:27:45Z</time>
      </trkpt>
      <trkpt lat="44.17074" lon="5.92705">
        <ele>490.4</ele>
        <time>2021-09-09T11:27:47Z</time>
      </trkpt>
      <trkpt lat="44.17069" lon="5.92704">
        <ele>490.3</ele>
        <time>2021-09-09T11:27:48Z</time>
      </trkpt>
      <trkpt lat="44.17059" lon="5.92702">
        <ele>490.2</ele>
        <time>2021-09-09T11:27:50Z</time>
      </trkpt>
      <trkpt lat="44.17054" lon="5.927">
        <ele>490.2</ele>
        <time>2021-09-09T11:27:51Z</time>
      </trkpt>
      <trkpt lat="44.17044" lon="5.92698">
        <ele>490.2</ele>
        <time>2021-09-09T11:27:53Z</time>
      </trkpt>
      <trkpt lat="44.1704" lon="5.92698">
        <ele>490.2</ele>
        <time>2021-09-09T11:27:54Z</time>
      </trkpt>
      <trkpt lat="44.17036" lon="5.92697">
        <ele>490.2</ele>
        <time>2021-09-09T11:27:55Z</time>
      </trkpt>
      <trkpt lat="44.17029" lon="5.92695">
        <ele>490.2</ele>
        <time>2021-09-09T11:27:57Z</time>
      </trkpt>
      <trkpt lat="44.17024" lon="5.92693">
        <ele>490.3</ele>
        <time>2021-09-09T11:27:58Z</time>
      </trkpt>
      <trkpt lat="44.17021" lon="5.92691">
        <ele>490.3</ele>
        <time>2021-09-09T11:27:59Z</time>
      </trkpt>
      <trkpt lat="44.17016" lon="5.92688">
        <ele>490.3</ele>
        <time>2021-09-09T11:28:00Z</time>
      </trkpt>
      <trkpt lat="44.17008" lon="5.92683">
        <ele>490.2</ele>
        <time>2021-09-09T11:28:02Z</time>
      </trkpt>
      <trkpt lat="44.17" lon="5.92678">
        <ele>490</ele>
        <time>2021-09-09T11:28:04Z</time>
      </trkpt>
      <trkpt lat="44.16997" lon="5.92678">
        <ele>490</ele>
        <time>2021-09-09T11:28:05Z</time>
      </trkpt>
      <trkpt lat="44.16986" lon="5.92672">
        <ele>489.4</ele>
        <time>2021-09-09T11:28:07Z</time>
      </trkpt>
      <trkpt lat="44.1698" lon="5.92669">
        <ele>488.9</ele>
        <time>2021-09-09T11:28:08Z</time>
      </trkpt>
      <trkpt lat="44.16968" lon="5.92663">
        <ele>488</ele>
        <time>2021-09-09T11:28:10Z</time>
      </trkpt>
      <trkpt lat="44.16955" lon="5.92657">
        <ele>487.3</ele>
        <time>2021-09-09T11:28:12Z</time>
      </trkpt>
      <trkpt lat="44.1695" lon="5.92653">
        <ele>487</ele>
        <time>2021-09-09T11:28:13Z</time>
      </trkpt>
      <trkpt lat="44.16939" lon="5.92646">
        <ele>486.7</ele>
        <time>2021-09-09T11:28:15Z</time>
      </trkpt>
      <trkpt lat="44.16927" lon="5.9264">
        <ele>486.3</ele>
        <time>2021-09-09T11:28:17Z</time>
      </trkpt>
      <trkpt lat="44.16921" lon="5.92638">
        <ele>486.2</ele>
        <time>2021-09-09T11:28:18Z</time>
      </trkpt>
      <trkpt lat="44.16914" lon="5.92636">
        <ele>486</ele>
        <time>2021-09-09T11:28:19Z</time>
      </trkpt>
      <trkpt lat="44.16909" lon="5.92635">
        <ele>485.9</ele>
        <time>2021-09-09T11:28:20Z</time>
      </trkpt>
      <trkpt lat="44.16897" lon="5.92632">
        <ele>485.7</ele>
        <time>2021-09-09T11:28:22Z</time>
      </trkpt>
      <trkpt lat="44.16891" lon="5.92631">
        <ele>485.6</ele>
        <time>2021-09-09T11:28:23Z</time>
      </trkpt>
      <trkpt lat="44.16887" lon="5.92629">
        <ele>485.4</ele>
        <time>2021-09-09T11:28:24Z</time>
      </trkpt>
      <trkpt lat="44.16878" lon="5.92626">
        <ele>485.3</ele>
        <time>2021-09-09T11:28:26Z</time>
      </trkpt>
      <trkpt lat="44.16874" lon="5.92624">
        <ele>485.2</ele>
        <time>2021-09-09T11:28:27Z</time>
      </trkpt>
      <trkpt lat="44.16866" lon="5.92625">
        <ele>485</ele>
        <time>2021-09-09T11:28:29Z</time>
      </trkpt>
      <trkpt lat="44.1686" lon="5.92626">
        <ele>484.9</ele>
        <time>2021-09-09T11:28:30Z</time>
      </trkpt>
      <trkpt lat="44.1685" lon="5.92629">
        <ele>484.8</ele>
        <time>2021-09-09T11:28:32Z</time>
      </trkpt>
      <trkpt lat="44.16841" lon="5.92632">
        <ele>484.6</ele>
        <time>2021-09-09T11:28:34Z</time>
      </trkpt>
      <trkpt lat="44.16835" lon="5.92632">
        <ele>484.6</ele>
        <time>2021-09-09T11:28:35Z</time>
      </trkpt>
      <trkpt lat="44.1683" lon="5.92631">
        <ele>484.5</ele>
        <time>2021-09-09T11:28:36Z</time>
      </trkpt>
      <trkpt lat="44.16821" lon="5.92629">
        <ele>484.4</ele>
        <time>2021-09-09T11:28:38Z</time>
      </trkpt>
      <trkpt lat="44.16813" lon="5.92624">
        <ele>484.4</ele>
        <time>2021-09-09T11:28:40Z</time>
      </trkpt>
      <trkpt lat="44.16812" lon="5.92622">
        <ele>484.4</ele>
        <time>2021-09-09T11:28:41Z</time>
      </trkpt>
      <trkpt lat="44.16806" lon="5.9262">
        <ele>484.4</ele>
        <time>2021-09-09T11:28:43Z</time>
      </trkpt>
      <trkpt lat="44.16803" lon="5.92617">
        <ele>484.4</ele>
        <time>2021-09-09T11:28:44Z</time>
      </trkpt>
      <trkpt lat="44.16798" lon="5.9261">
        <ele>484.3</ele>
        <time>2021-09-09T11:28:46Z</time>
      </trkpt>
      <trkpt lat="44.16796" lon="5.92607">
        <ele>484.3</ele>
        <time>2021-09-09T11:28:47Z</time>
      </trkpt>
      <trkpt lat="44.16791" lon="5.92601">
        <ele>484</ele>
        <time>2021-09-09T11:28:49Z</time>
      </trkpt>
      <trkpt lat="44.16788" lon="5.92598">
        <ele>483.8</ele>
        <time>2021-09-09T11:28:51Z</time>
      </trkpt>
      <trkpt lat="44.16787" lon="5.92597">
        <ele>483.8</ele>
        <time>2021-09-09T11:28:52Z</time>
      </trkpt>
      <trkpt lat="44.16782" lon="5.92594">
        <ele>483.4</ele>
        <time>2021-09-09T11:28:54Z</time>
      </trkpt>
      <trkpt lat="44.16774" lon="5.92586">
        <ele>482.4</ele>
        <time>2021-09-09T11:28:55Z</time>
      </trkpt>
      <trkpt lat="44.16771" lon="5.9258">
        <ele>481.9</ele>
        <time>2021-09-09T11:28:56Z</time>
      </trkpt>
      <trkpt lat="44.16769" lon="5.92576">
        <ele>481.5</ele>
        <time>2021-09-09T11:28:58Z</time>
      </trkpt>
      <trkpt lat="44.16766" lon="5.9257">
        <ele>480.9</ele>
        <time>2021-09-09T11:28:59Z</time>
      </trkpt>
      <trkpt lat="44.16758" lon="5.92554">
        <ele>479.2</ele>
        <time>2021-09-09T11:29:00Z</time>
      </trkpt>
      <trkpt lat="44.1675" lon="5.92533">
        <ele>477.2</ele>
        <time>2021-09-09T11:29:02Z</time>
      </trkpt>
      <trkpt lat="44.16744" lon="5.9252">
        <ele>475.9</ele>
        <time>2021-09-09T11:29:04Z</time>
      </trkpt>
      <trkpt lat="44.16741" lon="5.92515">
        <ele>475.6</ele>
        <time>2021-09-09T11:29:05Z</time>
      </trkpt>
      <trkpt lat="44.1674" lon="5.92516">
        <ele>475.4</ele>
        <time>2021-09-09T11:29:06Z</time>
      </trkpt>
      <trkpt lat="44.16738" lon="5.92513">
        <ele>475.2</ele>
        <time>2021-09-09T11:29:07Z</time>
      </trkpt>
      <trkpt lat="44.16736" lon="5.92513">
        <ele>475.1</ele>
        <time>2021-09-09T11:29:08Z</time>
      </trkpt>
      <trkpt lat="44.16735" lon="5.92514">
        <ele>475.1</ele>
        <time>2021-09-09T11:29:10Z</time>
      </trkpt>
      <trkpt lat="44.16733" lon="5.92515">
        <ele>475.1</ele>
        <time>2021-09-09T11:29:12Z</time>
      </trkpt>
      <trkpt lat="44.16733" lon="5.9252">
        <ele>475.1</ele>
        <time>2021-09-09T11:29:14Z</time>
      </trkpt>
      <trkpt lat="44.1673" lon="5.92526">
        <ele>475.2</ele>
        <time>2021-09-09T11:29:16Z</time>
      </trkpt>
      <trkpt lat="44.16727" lon="5.92532">
        <ele>475.3</ele>
        <time>2021-09-09T11:29:17Z</time>
      </trkpt>
      <trkpt lat="44.16724" lon="5.92537">
        <ele>475.3</ele>
        <time>2021-09-09T11:29:18Z</time>
      </trkpt>
      <trkpt lat="44.16721" lon="5.92543">
        <ele>475.4</ele>
        <time>2021-09-09T11:29:20Z</time>
      </trkpt>
      <trkpt lat="44.16718" lon="5.92548">
        <ele>475.5</ele>
        <time>2021-09-09T11:30:30Z</time>
      </trkpt>
      <trkpt lat="44.16716" lon="5.92554">
        <ele>475.5</ele>
        <time>2021-09-09T11:30:31Z</time>
      </trkpt>
      <trkpt lat="44.16713" lon="5.92559">
        <ele>475.6</ele>
        <time>2021-09-09T11:30:32Z</time>
      </trkpt>
      <trkpt lat="44.16706" lon="5.92561">
        <ele>475.7</ele>
        <time>2021-09-09T11:30:34Z</time>
      </trkpt>
      <trkpt lat="44.16702" lon="5.92563">
        <ele>475.7</ele>
        <time>2021-09-09T11:30:35Z</time>
      </trkpt>
      <trkpt lat="44.16699" lon="5.92565">
        <ele>475.8</ele>
        <time>2021-09-09T11:30:36Z</time>
      </trkpt>
      <trkpt lat="44.16696" lon="5.9257">
        <ele>475.8</ele>
        <time>2021-09-09T11:30:38Z</time>
      </trkpt>
      <trkpt lat="44.16691" lon="5.92577">
        <ele>475.9</ele>
        <time>2021-09-09T11:30:40Z</time>
      </trkpt>
      <trkpt lat="44.16689" lon="5.92581">
        <ele>475.9</ele>
        <time>2021-09-09T11:30:41Z</time>
      </trkpt>
      <trkpt lat="44.16687" lon="5.92585">
        <ele>476</ele>
        <time>2021-09-09T11:30:42Z</time>
      </trkpt>
      <trkpt lat="44.16684" lon="5.92592">
        <ele>476</ele>
        <time>2021-09-09T11:30:44Z</time>
      </trkpt>
      <trkpt lat="44.16682" lon="5.92599">
        <ele>476</ele>
        <time>2021-09-09T11:30:46Z</time>
      </trkpt>
      <trkpt lat="44.16682" lon="5.92602">
        <ele>476.1</ele>
        <time>2021-09-09T11:30:48Z</time>
      </trkpt>
      <trkpt lat="44.16682" lon="5.92603">
        <ele>476.1</ele>
        <time>2021-09-09T11:30:49Z</time>
      </trkpt>
      <trkpt lat="44.1668" lon="5.92609">
        <ele>476.1</ele>
        <time>2021-09-09T11:30:51Z</time>
      </trkpt>
      <trkpt lat="44.16679" lon="5.92616">
        <ele>476.1</ele>
        <time>2021-09-09T11:30:53Z</time>
      </trkpt>
      <trkpt lat="44.16678" lon="5.9262">
        <ele>476.1</ele>
        <time>2021-09-09T11:30:54Z</time>
      </trkpt>
      <trkpt lat="44.16675" lon="5.92628">
        <ele>476.1</ele>
        <time>2021-09-09T11:30:56Z</time>
      </trkpt>
      <trkpt lat="44.16671" lon="5.92636">
        <ele>476.1</ele>
        <time>2021-09-09T11:30:57Z</time>
      </trkpt>
      <trkpt lat="44.1667" lon="5.92641">
        <ele>476.1</ele>
        <time>2021-09-09T11:30:58Z</time>
      </trkpt>
      <trkpt lat="44.16663" lon="5.92654">
        <ele>476</ele>
        <time>2021-09-09T11:31:00Z</time>
      </trkpt>
      <trkpt lat="44.1666" lon="5.92659">
        <ele>475.9</ele>
        <time>2021-09-09T11:31:01Z</time>
      </trkpt>
      <trkpt lat="44.16655" lon="5.92669">
        <ele>475.8</ele>
        <time>2021-09-09T11:31:03Z</time>
      </trkpt>
      <trkpt lat="44.16652" lon="5.92677">
        <ele>475.8</ele>
        <time>2021-09-09T11:31:05Z</time>
      </trkpt>
      <trkpt lat="44.1665" lon="5.92684">
        <ele>475.7</ele>
        <time>2021-09-09T11:31:06Z</time>
      </trkpt>
      <trkpt lat="44.16649" lon="5.92698">
        <ele>475.6</ele>
        <time>2021-09-09T11:31:08Z</time>
      </trkpt>
      <trkpt lat="44.16648" lon="5.92702">
        <ele>475.6</ele>
        <time>2021-09-09T11:31:09Z</time>
      </trkpt>
      <trkpt lat="44.16645" lon="5.92711">
        <ele>475.5</ele>
        <time>2021-09-09T11:31:11Z</time>
      </trkpt>
      <trkpt lat="44.16644" lon="5.92715">
        <ele>475.5</ele>
        <time>2021-09-09T11:31:12Z</time>
      </trkpt>
      <trkpt lat="44.16644" lon="5.92715">
        <ele>475.5</ele>
        <time>2021-09-09T11:31:13Z</time>
      </trkpt>
      <trkpt lat="44.16643" lon="5.92716">
        <ele>475.5</ele>
        <time>2021-09-09T11:31:15Z</time>
      </trkpt>
      <trkpt lat="44.16643" lon="5.92719">
        <ele>475.5</ele>
        <time>2021-09-09T11:31:16Z</time>
      </trkpt>
      <trkpt lat="44.16642" lon="5.9272">
        <ele>475.5</ele>
        <time>2021-09-09T11:31:17Z</time>
      </trkpt>
      <trkpt lat="44.16642" lon="5.92724">
        <ele>475.4</ele>
        <time>2021-09-09T11:31:18Z</time>
      </trkpt>
      <trkpt lat="44.16592" lon="5.9284">
        <ele>474.6</ele>
        <time>2021-09-09T11:31:30Z</time>
      </trkpt>
      <trkpt lat="44.16588" lon="5.92849">
        <ele>474.6</ele>
        <time>2021-09-09T11:31:31Z</time>
      </trkpt>
      <trkpt lat="44.16585" lon="5.92854">
        <ele>474.6</ele>
        <time>2021-09-09T11:31:32Z</time>
      </trkpt>
      <trkpt lat="44.16583" lon="5.92858">
        <ele>474.7</ele>
        <time>2021-09-09T11:31:34Z</time>
      </trkpt>
      <trkpt lat="44.16578" lon="5.92866">
        <ele>474.7</ele>
        <time>2021-09-09T11:31:36Z</time>
      </trkpt>
      <trkpt lat="44.16574" lon="5.9288">
        <ele>474.8</ele>
        <time>2021-09-09T11:31:37Z</time>
      </trkpt>
      <trkpt lat="44.16572" lon="5.92882">
        <ele>474.9</ele>
        <time>2021-09-09T11:31:38Z</time>
      </trkpt>
      <trkpt lat="44.16565" lon="5.92895">
        <ele>475</ele>
        <time>2021-09-09T11:31:40Z</time>
      </trkpt>
      <trkpt lat="44.16562" lon="5.92902">
        <ele>475.1</ele>
        <time>2021-09-09T11:31:41Z</time>
      </trkpt>
      <trkpt lat="44.1656" lon="5.92907">
        <ele>475.2</ele>
        <time>2021-09-09T11:31:43Z</time>
      </trkpt>
      <trkpt lat="44.16493" lon="5.93104">
        <ele>477.7</ele>
        <time>2021-09-09T11:32:21Z</time>
      </trkpt>
      <trkpt lat="44.16479" lon="5.93119">
        <ele>477.1</ele>
        <time>2021-09-09T11:32:23Z</time>
      </trkpt>
      <trkpt lat="44.16472" lon="5.93125">
        <ele>476.7</ele>
        <time>2021-09-09T11:32:24Z</time>
      </trkpt>
      <trkpt lat="44.1646" lon="5.93135">
        <ele>476.1</ele>
        <time>2021-09-09T11:32:26Z</time>
      </trkpt>
      <trkpt lat="44.16449" lon="5.93145">
        <ele>475.6</ele>
        <time>2021-09-09T11:32:28Z</time>
      </trkpt>
      <trkpt lat="44.16443" lon="5.9315">
        <ele>475.3</ele>
        <time>2021-09-09T11:32:29Z</time>
      </trkpt>
      <trkpt lat="44.16434" lon="5.93158">
        <ele>474.8</ele>
        <time>2021-09-09T11:32:30Z</time>
      </trkpt>
      <trkpt lat="44.16416" lon="5.93175">
        <ele>473.9</ele>
        <time>2021-09-09T11:32:32Z</time>
      </trkpt>
      <trkpt lat="44.16409" lon="5.93181">
        <ele>473.5</ele>
        <time>2021-09-09T11:32:33Z</time>
      </trkpt>
      <trkpt lat="44.16398" lon="5.93194">
        <ele>472.9</ele>
        <time>2021-09-09T11:32:35Z</time>
      </trkpt>
      <trkpt lat="44.16387" lon="5.93206">
        <ele>472.3</ele>
        <time>2021-09-09T11:32:37Z</time>
      </trkpt>
      <trkpt lat="44.16382" lon="5.93212">
        <ele>472</ele>
        <time>2021-09-09T11:32:38Z</time>
      </trkpt>
      <trkpt lat="44.16371" lon="5.93223">
        <ele>471.4</ele>
        <time>2021-09-09T11:32:40Z</time>
      </trkpt>
      <trkpt lat="44.16366" lon="5.93229">
        <ele>471.1</ele>
        <time>2021-09-09T11:32:41Z</time>
      </trkpt>
      <trkpt lat="44.16356" lon="5.9324">
        <ele>470.5</ele>
        <time>2021-09-09T11:32:43Z</time>
      </trkpt>
      <trkpt lat="44.16351" lon="5.93245">
        <ele>470.1</ele>
        <time>2021-09-09T11:32:44Z</time>
      </trkpt>
      <trkpt lat="44.16342" lon="5.93256">
        <ele>469.6</ele>
        <time>2021-09-09T11:32:46Z</time>
      </trkpt>
      <trkpt lat="44.16337" lon="5.93262">
        <ele>469.3</ele>
        <time>2021-09-09T11:32:47Z</time>
      </trkpt>
      <trkpt lat="44.16327" lon="5.93275">
        <ele>468.6</ele>
        <time>2021-09-09T11:32:49Z</time>
      </trkpt>
      <trkpt lat="44.16322" lon="5.93282">
        <ele>468.3</ele>
        <time>2021-09-09T11:32:50Z</time>
      </trkpt>
      <trkpt lat="44.16313" lon="5.93293">
        <ele>467.8</ele>
        <time>2021-09-09T11:32:52Z</time>
      </trkpt>
      <trkpt lat="44.16309" lon="5.93298">
        <ele>467.5</ele>
        <time>2021-09-09T11:32:53Z</time>
      </trkpt>
      <trkpt lat="44.16306" lon="5.93306">
        <ele>467.2</ele>
        <time>2021-09-09T11:32:54Z</time>
      </trkpt>
      <trkpt lat="44.163" lon="5.93323">
        <ele>466.8</ele>
        <time>2021-09-09T11:32:56Z</time>
      </trkpt>
      <trkpt lat="44.16298" lon="5.93344">
        <ele>466.4</ele>
        <time>2021-09-09T11:32:58Z</time>
      </trkpt>
      <trkpt lat="44.16299" lon="5.93367">
        <ele>465.9</ele>
        <time>2021-09-09T11:33:00Z</time>
      </trkpt>
      <trkpt lat="44.16302" lon="5.9339">
        <ele>465.5</ele>
        <time>2021-09-09T11:33:02Z</time>
      </trkpt>
      <trkpt lat="44.16303" lon="5.93402">
        <ele>465.4</ele>
        <time>2021-09-09T11:33:03Z</time>
      </trkpt>
      <trkpt lat="44.16305" lon="5.93424">
        <ele>465.2</ele>
        <time>2021-09-09T11:33:05Z</time>
      </trkpt>
      <trkpt lat="44.16309" lon="5.93444">
        <ele>465.1</ele>
        <time>2021-09-09T11:33:07Z</time>
      </trkpt>
      <trkpt lat="44.16311" lon="5.93454">
        <ele>465.1</ele>
        <time>2021-09-09T11:33:08Z</time>
      </trkpt>
      <trkpt lat="44.16312" lon="5.93473">
        <ele>465.1</ele>
        <time>2021-09-09T11:33:10Z</time>
      </trkpt>
      <trkpt lat="44.16312" lon="5.93484">
        <ele>465.1</ele>
        <time>2021-09-09T11:33:11Z</time>
      </trkpt>
      <trkpt lat="44.16313" lon="5.93494">
        <ele>465.1</ele>
        <time>2021-09-09T11:33:12Z</time>
      </trkpt>
      <trkpt lat="44.16316" lon="5.93512">
        <ele>465.2</ele>
        <time>2021-09-09T11:33:14Z</time>
      </trkpt>
      <trkpt lat="44.16319" lon="5.93529">
        <ele>465.4</ele>
        <time>2021-09-09T11:33:16Z</time>
      </trkpt>
      <trkpt lat="44.1632" lon="5.93537">
        <ele>465.4</ele>
        <time>2021-09-09T11:33:17Z</time>
      </trkpt>
      <trkpt lat="44.16323" lon="5.93551">
        <ele>465.6</ele>
        <time>2021-09-09T11:33:19Z</time>
      </trkpt>
      <trkpt lat="44.16323" lon="5.93566">
        <ele>465.7</ele>
        <time>2021-09-09T11:33:21Z</time>
      </trkpt>
      <trkpt lat="44.16322" lon="5.93574">
        <ele>465.8</ele>
        <time>2021-09-09T11:33:22Z</time>
      </trkpt>
      <trkpt lat="44.16322" lon="5.93587">
        <ele>465.9</ele>
        <time>2021-09-09T11:33:24Z</time>
      </trkpt>
      <trkpt lat="44.16321" lon="5.93593">
        <ele>465.9</ele>
        <time>2021-09-09T11:33:25Z</time>
      </trkpt>
      <trkpt lat="44.1632" lon="5.93601">
        <ele>466</ele>
        <time>2021-09-09T11:33:26Z</time>
      </trkpt>
      <trkpt lat="44.16316" lon="5.93617">
        <ele>466.2</ele>
        <time>2021-09-09T11:33:28Z</time>
      </trkpt>
      <trkpt lat="44.16314" lon="5.93625">
        <ele>466.4</ele>
        <time>2021-09-09T11:33:29Z</time>
      </trkpt>
      <trkpt lat="44.16311" lon="5.93633">
        <ele>466.5</ele>
        <time>2021-09-09T11:33:30Z</time>
      </trkpt>
      <trkpt lat="44.16305" lon="5.93649">
        <ele>466.7</ele>
        <time>2021-09-09T11:33:32Z</time>
      </trkpt>
      <trkpt lat="44.163" lon="5.93662">
        <ele>466.9</ele>
        <time>2021-09-09T11:33:34Z</time>
      </trkpt>
      <trkpt lat="44.16297" lon="5.93671">
        <ele>467</ele>
        <time>2021-09-09T11:33:36Z</time>
      </trkpt>
      <trkpt lat="44.16294" lon="5.93679">
        <ele>467.1</ele>
        <time>2021-09-09T11:33:38Z</time>
      </trkpt>
      <trkpt lat="44.16291" lon="5.93687">
        <ele>467.1</ele>
        <time>2021-09-09T11:33:40Z</time>
      </trkpt>
      <trkpt lat="44.16288" lon="5.93691">
        <ele>467.1</ele>
        <time>2021-09-09T11:33:41Z</time>
      </trkpt>
      <trkpt lat="44.16286" lon="5.93694">
        <ele>467.1</ele>
        <time>2021-09-09T11:33:42Z</time>
      </trkpt>
      <trkpt lat="44.16284" lon="5.93702">
        <ele>467.2</ele>
        <time>2021-09-09T11:33:44Z</time>
      </trkpt>
      <trkpt lat="44.16282" lon="5.93709">
        <ele>467.2</ele>
        <time>2021-09-09T11:33:45Z</time>
      </trkpt>
      <trkpt lat="44.16281" lon="5.93711">
        <ele>467.2</ele>
        <time>2021-09-09T11:33:46Z</time>
      </trkpt>
      <trkpt lat="44.1628" lon="5.93715">
        <ele>467.2</ele>
        <time>2021-09-09T11:33:48Z</time>
      </trkpt>
      <trkpt lat="44.16277" lon="5.93721">
        <ele>467.2</ele>
        <time>2021-09-09T11:33:49Z</time>
      </trkpt>
      <trkpt lat="44.16275" lon="5.93727">
        <ele>467.2</ele>
        <time>2021-09-09T11:33:50Z</time>
      </trkpt>
      <trkpt lat="44.16272" lon="5.93733">
        <ele>467.2</ele>
        <time>2021-09-09T11:33:52Z</time>
      </trkpt>
      <trkpt lat="44.16268" lon="5.93746">
        <ele>467.2</ele>
        <time>2021-09-09T11:33:53Z</time>
      </trkpt>
      <trkpt lat="44.16266" lon="5.93752">
        <ele>467.2</ele>
        <time>2021-09-09T11:33:54Z</time>
      </trkpt>
      <trkpt lat="44.16266" lon="5.93755">
        <ele>467.2</ele>
        <time>2021-09-09T11:33:56Z</time>
      </trkpt>
      <trkpt lat="44.16262" lon="5.93764">
        <ele>467.2</ele>
        <time>2021-09-09T11:33:58Z</time>
      </trkpt>
      <trkpt lat="44.16259" lon="5.93769">
        <ele>467.2</ele>
        <time>2021-09-09T11:34:00Z</time>
      </trkpt>
      <trkpt lat="44.16258" lon="5.93773">
        <ele>467.2</ele>
        <time>2021-09-09T11:34:01Z</time>
      </trkpt>
      <trkpt lat="44.16252" lon="5.93789">
        <ele>467.2</ele>
        <time>2021-09-09T11:34:02Z</time>
      </trkpt>
      <trkpt lat="44.16245" lon="5.93803">
        <ele>467.3</ele>
        <time>2021-09-09T11:34:04Z</time>
      </trkpt>
      <trkpt lat="44.16236" lon="5.93822">
        <ele>467.4</ele>
        <time>2021-09-09T11:34:06Z</time>
      </trkpt>
      <trkpt lat="44.16234" lon="5.93827">
        <ele>467.5</ele>
        <time>2021-09-09T11:34:08Z</time>
      </trkpt>
      <trkpt lat="44.16236" lon="5.93836">
        <ele>467.5</ele>
        <time>2021-09-09T11:34:10Z</time>
      </trkpt>
      <trkpt lat="44.16228" lon="5.93849">
        <ele>467.7</ele>
        <time>2021-09-09T11:34:11Z</time>
      </trkpt>
      <trkpt lat="44.16224" lon="5.93857">
        <ele>467.7</ele>
        <time>2021-09-09T11:34:12Z</time>
      </trkpt>
      <trkpt lat="44.16221" lon="5.93862">
        <ele>467.8</ele>
        <time>2021-09-09T11:34:13Z</time>
      </trkpt>
      <trkpt lat="44.16218" lon="5.93875">
        <ele>467.9</ele>
        <time>2021-09-09T11:34:15Z</time>
      </trkpt>
      <trkpt lat="44.16216" lon="5.93881">
        <ele>467.9</ele>
        <time>2021-09-09T11:34:16Z</time>
      </trkpt>
      <trkpt lat="44.16214" lon="5.9389">
        <ele>468</ele>
        <time>2021-09-09T11:34:18Z</time>
      </trkpt>
      <trkpt lat="44.16211" lon="5.93901">
        <ele>468.1</ele>
        <time>2021-09-09T11:34:19Z</time>
      </trkpt>
      <trkpt lat="44.1621" lon="5.93907">
        <ele>468.1</ele>
        <time>2021-09-09T11:34:20Z</time>
      </trkpt>
      <trkpt lat="44.1621" lon="5.93919">
        <ele>468.1</ele>
        <time>2021-09-09T11:34:22Z</time>
      </trkpt>
      <trkpt lat="44.16209" lon="5.93925">
        <ele>468.1</ele>
        <time>2021-09-09T11:34:23Z</time>
      </trkpt>
      <trkpt lat="44.16208" lon="5.93931">
        <ele>468.2</ele>
        <time>2021-09-09T11:34:24Z</time>
      </trkpt>
      <trkpt lat="44.16206" lon="5.93944">
        <ele>468.2</ele>
        <time>2021-09-09T11:34:26Z</time>
      </trkpt>
      <trkpt lat="44.16205" lon="5.93951">
        <ele>468.2</ele>
        <time>2021-09-09T11:34:27Z</time>
      </trkpt>
      <trkpt lat="44.16204" lon="5.93958">
        <ele>468.2</ele>
        <time>2021-09-09T11:34:28Z</time>
      </trkpt>
      <trkpt lat="44.16203" lon="5.93962">
        <ele>468.2</ele>
        <time>2021-09-09T11:34:29Z</time>
      </trkpt>
      <trkpt lat="44.16202" lon="5.93977">
        <ele>468.2</ele>
        <time>2021-09-09T11:34:31Z</time>
      </trkpt>
      <trkpt lat="44.16202" lon="5.93984">
        <ele>468.2</ele>
        <time>2021-09-09T11:34:32Z</time>
      </trkpt>
      <trkpt lat="44.16202" lon="5.93991">
        <ele>468.2</ele>
        <time>2021-09-09T11:34:33Z</time>
      </trkpt>
      <trkpt lat="44.16202" lon="5.93998">
        <ele>468.2</ele>
        <time>2021-09-09T11:34:34Z</time>
      </trkpt>
      <trkpt lat="44.16201" lon="5.94006">
        <ele>468.1</ele>
        <time>2021-09-09T11:34:35Z</time>
      </trkpt>
      <trkpt lat="44.16202" lon="5.94013">
        <ele>468.1</ele>
        <time>2021-09-09T11:34:36Z</time>
      </trkpt>
      <trkpt lat="44.16202" lon="5.9403">
        <ele>468.1</ele>
        <time>2021-09-09T11:34:38Z</time>
      </trkpt>
      <trkpt lat="44.16202" lon="5.94045">
        <ele>468.1</ele>
        <time>2021-09-09T11:34:40Z</time>
      </trkpt>
      <trkpt lat="44.16203" lon="5.94052">
        <ele>468</ele>
        <time>2021-09-09T11:34:41Z</time>
      </trkpt>
      <trkpt lat="44.16203" lon="5.94059">
        <ele>468</ele>
        <time>2021-09-09T11:34:42Z</time>
      </trkpt>
      <trkpt lat="44.16204" lon="5.94066">
        <ele>468</ele>
        <time>2021-09-09T11:34:43Z</time>
      </trkpt>
      <trkpt lat="44.16204" lon="5.94074">
        <ele>467.9</ele>
        <time>2021-09-09T11:34:44Z</time>
      </trkpt>
      <trkpt lat="44.16204" lon="5.9409">
        <ele>467.7</ele>
        <time>2021-09-09T11:34:46Z</time>
      </trkpt>
      <trkpt lat="44.16204" lon="5.94098">
        <ele>467.6</ele>
        <time>2021-09-09T11:34:47Z</time>
      </trkpt>
      <trkpt lat="44.16203" lon="5.94107">
        <ele>467.5</ele>
        <time>2021-09-09T11:34:48Z</time>
      </trkpt>
      <trkpt lat="44.16203" lon="5.94124">
        <ele>467.3</ele>
        <time>2021-09-09T11:34:50Z</time>
      </trkpt>
      <trkpt lat="44.16203" lon="5.94139">
        <ele>467.1</ele>
        <time>2021-09-09T11:34:52Z</time>
      </trkpt>
      <trkpt lat="44.16202" lon="5.94147">
        <ele>467</ele>
        <time>2021-09-09T11:34:53Z</time>
      </trkpt>
      <trkpt lat="44.16202" lon="5.94154">
        <ele>466.9</ele>
        <time>2021-09-09T11:34:54Z</time>
      </trkpt>
      <trkpt lat="44.16199" lon="5.94171">
        <ele>466.6</ele>
        <time>2021-09-09T11:34:56Z</time>
      </trkpt>
      <trkpt lat="44.16196" lon="5.94187">
        <ele>466.3</ele>
        <time>2021-09-09T11:34:58Z</time>
      </trkpt>
      <trkpt lat="44.16195" lon="5.94195">
        <ele>466.2</ele>
        <time>2021-09-09T11:34:59Z</time>
      </trkpt>
      <trkpt lat="44.16194" lon="5.94203">
        <ele>466</ele>
        <time>2021-09-09T11:35:00Z</time>
      </trkpt>
      <trkpt lat="44.16194" lon="5.94221">
        <ele>465.4</ele>
        <time>2021-09-09T11:35:02Z</time>
      </trkpt>
      <trkpt lat="44.16196" lon="5.94239">
        <ele>464.9</ele>
        <time>2021-09-09T11:35:04Z</time>
      </trkpt>
      <trkpt lat="44.16199" lon="5.94255">
        <ele>464.3</ele>
        <time>2021-09-09T11:35:06Z</time>
      </trkpt>
      <trkpt lat="44.162" lon="5.94264">
        <ele>464.1</ele>
        <time>2021-09-09T11:35:07Z</time>
      </trkpt>
      <trkpt lat="44.16201" lon="5.94272">
        <ele>463.8</ele>
        <time>2021-09-09T11:35:08Z</time>
      </trkpt>
      <trkpt lat="44.16201" lon="5.94289">
        <ele>463.2</ele>
        <time>2021-09-09T11:35:10Z</time>
      </trkpt>
      <trkpt lat="44.162" lon="5.94298">
        <ele>462.8</ele>
        <time>2021-09-09T11:35:11Z</time>
      </trkpt>
      <trkpt lat="44.16198" lon="5.94308">
        <ele>462.5</ele>
        <time>2021-09-09T11:35:12Z</time>
      </trkpt>
      <trkpt lat="44.16192" lon="5.94332">
        <ele>461.6</ele>
        <time>2021-09-09T11:35:14Z</time>
      </trkpt>
      <trkpt lat="44.16186" lon="5.9436">
        <ele>460.7</ele>
        <time>2021-09-09T11:35:16Z</time>
      </trkpt>
      <trkpt lat="44.16185" lon="5.94372">
        <ele>460.3</ele>
        <time>2021-09-09T11:35:17Z</time>
      </trkpt>
      <trkpt lat="44.16185" lon="5.94384">
        <ele>459.9</ele>
        <time>2021-09-09T11:35:18Z</time>
      </trkpt>
      <trkpt lat="44.16188" lon="5.94404">
        <ele>459.3</ele>
        <time>2021-09-09T11:35:20Z</time>
      </trkpt>
      <trkpt lat="44.1619" lon="5.94413">
        <ele>459</ele>
        <time>2021-09-09T11:35:21Z</time>
      </trkpt>
      <trkpt lat="44.16192" lon="5.94423">
        <ele>458.8</ele>
        <time>2021-09-09T11:35:22Z</time>
      </trkpt>
      <trkpt lat="44.16195" lon="5.94444">
        <ele>458.5</ele>
        <time>2021-09-09T11:35:24Z</time>
      </trkpt>
      <trkpt lat="44.16201" lon="5.94462">
        <ele>458.4</ele>
        <time>2021-09-09T11:35:26Z</time>
      </trkpt>
      <trkpt lat="44.1621" lon="5.94476">
        <ele>458.3</ele>
        <time>2021-09-09T11:35:28Z</time>
      </trkpt>
      <trkpt lat="44.16214" lon="5.94497">
        <ele>458.3</ele>
        <time>2021-09-09T11:35:30Z</time>
      </trkpt>
      <trkpt lat="44.16216" lon="5.94507">
        <ele>458.4</ele>
        <time>2021-09-09T11:35:31Z</time>
      </trkpt>
      <trkpt lat="44.16219" lon="5.94516">
        <ele>458.5</ele>
        <time>2021-09-09T11:35:32Z</time>
      </trkpt>
      <trkpt lat="44.16221" lon="5.94525">
        <ele>458.6</ele>
        <time>2021-09-09T11:35:33Z</time>
      </trkpt>
      <trkpt lat="44.16225" lon="5.94539">
        <ele>458.6</ele>
        <time>2021-09-09T11:35:35Z</time>
      </trkpt>
      <trkpt lat="44.16226" lon="5.94549">
        <ele>458.6</ele>
        <time>2021-09-09T11:35:37Z</time>
      </trkpt>
      <trkpt lat="44.16225" lon="5.9455">
        <ele>458.6</ele>
        <time>2021-09-09T11:35:38Z</time>
      </trkpt>
      <trkpt lat="44.16225" lon="5.94545">
        <ele>458.7</ele>
        <time>2021-09-09T11:35:40Z</time>
      </trkpt>
      <trkpt lat="44.16225" lon="5.94542">
        <ele>458.7</ele>
        <time>2021-09-09T11:35:41Z</time>
      </trkpt>
      <trkpt lat="44.16224" lon="5.9454">
        <ele>458.7</ele>
        <time>2021-09-09T11:35:43Z</time>
      </trkpt>
      <trkpt lat="44.16222" lon="5.94539">
        <ele>458.7</ele>
        <time>2021-09-09T11:35:44Z</time>
      </trkpt>
      <trkpt lat="44.16217" lon="5.94537">
        <ele>458.7</ele>
        <time>2021-09-09T11:35:46Z</time>
      </trkpt>
      <trkpt lat="44.16216" lon="5.94537">
        <ele>458.7</ele>
        <time>2021-09-09T11:35:47Z</time>
      </trkpt>
      <trkpt lat="44.16214" lon="5.94536">
        <ele>458.7</ele>
        <time>2021-09-09T11:35:48Z</time>
      </trkpt>
      <trkpt lat="44.16194" lon="5.94523">
        <ele>465.2</ele>
        <time>2021-09-09T11:35:59Z</time>
      </trkpt>
      <trkpt lat="44.16191" lon="5.94526">
        <ele>465.4</ele>
        <time>2021-09-09T11:36:00Z</time>
      </trkpt>
      <trkpt lat="44.16188" lon="5.94529">
        <ele>465.1</ele>
        <time>2021-09-09T11:36:02Z</time>
      </trkpt>
      <trkpt lat="44.16187" lon="5.9453">
        <ele>465.1</ele>
        <time>2021-09-09T11:36:03Z</time>
      </trkpt>
      <trkpt lat="44.16186" lon="5.94531">
        <ele>465</ele>
        <time>2021-09-09T11:36:05Z</time>
      </trkpt>
      <trkpt lat="44.16185" lon="5.94532">
        <ele>464.9</ele>
        <time>2021-09-09T11:36:06Z</time>
      </trkpt>
      <trkpt lat="44.16184" lon="5.94533">
        <ele>464.9</ele>
        <time>2021-09-09T11:36:07Z</time>
      </trkpt>
      <trkpt lat="44.16184" lon="5.94534">
        <ele>464.8</ele>
        <time>2021-09-09T11:36:08Z</time>
      </trkpt>
      <trkpt lat="44.16183" lon="5.94535">
        <ele>464.8</ele>
        <time>2021-09-09T11:36:09Z</time>
      </trkpt>
      <trkpt lat="44.16182" lon="5.94536">
        <ele>464.7</ele>
        <time>2021-09-09T11:36:10Z</time>
      </trkpt>
      <trkpt lat="44.16181" lon="5.94537">
        <ele>464.7</ele>
        <time>2021-09-09T11:37:07Z</time>
      </trkpt>
      <trkpt lat="44.1618" lon="5.94538">
        <ele>464.6</ele>
        <time>2021-09-09T11:37:08Z</time>
      </trkpt>
      <trkpt lat="44.16179" lon="5.94548">
        <ele>464</ele>
        <time>2021-09-09T11:37:10Z</time>
      </trkpt>
      <trkpt lat="44.1618" lon="5.94554">
        <ele>464.1</ele>
        <time>2021-09-09T11:37:11Z</time>
      </trkpt>
      <trkpt lat="44.16181" lon="5.94559">
        <ele>464.2</ele>
        <time>2021-09-09T11:37:12Z</time>
      </trkpt>
      <trkpt lat="44.16181" lon="5.94566">
        <ele>464.3</ele>
        <time>2021-09-09T11:37:14Z</time>
      </trkpt>
      <trkpt lat="44.16182" lon="5.94572">
        <ele>464.3</ele>
        <time>2021-09-09T11:37:15Z</time>
      </trkpt>
      <trkpt lat="44.16184" lon="5.94577">
        <ele>464.4</ele>
        <time>2021-09-09T11:37:16Z</time>
      </trkpt>
      <trkpt lat="44.16186" lon="5.94582">
        <ele>464.4</ele>
        <time>2021-09-09T11:37:17Z</time>
      </trkpt>
      <trkpt lat="44.16188" lon="5.94587">
        <ele>464.5</ele>
        <time>2021-09-09T11:37:18Z</time>
      </trkpt>
      <trkpt lat="44.1619" lon="5.94593">
        <ele>464.6</ele>
        <time>2021-09-09T11:37:19Z</time>
      </trkpt>
      <trkpt lat="44.16191" lon="5.94597">
        <ele>464.7</ele>
        <time>2021-09-09T11:37:20Z</time>
      </trkpt>
      <trkpt lat="44.16191" lon="5.94604">
        <ele>464.8</ele>
        <time>2021-09-09T11:37:22Z</time>
      </trkpt>
      <trkpt lat="44.16191" lon="5.94608">
        <ele>464.9</ele>
        <time>2021-09-09T11:37:23Z</time>
      </trkpt>
      <trkpt lat="44.16191" lon="5.94613">
        <ele>464.9</ele>
        <time>2021-09-09T11:37:24Z</time>
      </trkpt>
      <trkpt lat="44.16192" lon="5.94618">
        <ele>465</ele>
        <time>2021-09-09T11:37:25Z</time>
      </trkpt>
      <trkpt lat="44.16194" lon="5.94623">
        <ele>465.1</ele>
        <time>2021-09-09T11:37:26Z</time>
      </trkpt>
      <trkpt lat="44.16195" lon="5.94627">
        <ele>465.1</ele>
        <time>2021-09-09T11:37:27Z</time>
      </trkpt>
      <trkpt lat="44.16195" lon="5.94631">
        <ele>465.1</ele>
        <time>2021-09-09T11:37:28Z</time>
      </trkpt>
      <trkpt lat="44.16196" lon="5.94636">
        <ele>465.1</ele>
        <time>2021-09-09T11:37:29Z</time>
      </trkpt>
      <trkpt lat="44.16196" lon="5.94637">
        <ele>465.1</ele>
        <time>2021-09-09T11:37:30Z</time>
      </trkpt>
      <trkpt lat="44.16196" lon="5.94644">
        <ele>465.2</ele>
        <time>2021-09-09T11:37:32Z</time>
      </trkpt>
      <trkpt lat="44.16197" lon="5.94649">
        <ele>465.2</ele>
        <time>2021-09-09T11:37:33Z</time>
      </trkpt>
      <trkpt lat="44.16198" lon="5.94655">
        <ele>465.2</ele>
        <time>2021-09-09T11:37:34Z</time>
      </trkpt>
      <trkpt lat="44.16198" lon="5.94659">
        <ele>465.2</ele>
        <time>2021-09-09T11:37:35Z</time>
      </trkpt>
      <trkpt lat="44.16198" lon="5.94663">
        <ele>465.1</ele>
        <time>2021-09-09T11:37:36Z</time>
      </trkpt>
      <trkpt lat="44.16198" lon="5.9467">
        <ele>465.1</ele>
        <time>2021-09-09T11:37:38Z</time>
      </trkpt>
      <trkpt lat="44.16199" lon="5.94677">
        <ele>465.1</ele>
        <time>2021-09-09T11:37:39Z</time>
      </trkpt>
      <trkpt lat="44.16199" lon="5.94682">
        <ele>465.1</ele>
        <time>2021-09-09T11:37:40Z</time>
      </trkpt>
      <trkpt lat="44.162" lon="5.9469">
        <ele>465.1</ele>
        <time>2021-09-09T11:37:42Z</time>
      </trkpt>
      <trkpt lat="44.16201" lon="5.94695">
        <ele>465</ele>
        <time>2021-09-09T11:37:43Z</time>
      </trkpt>
      <trkpt lat="44.16202" lon="5.947">
        <ele>465</ele>
        <time>2021-09-09T11:37:44Z</time>
      </trkpt>
      <trkpt lat="44.16203" lon="5.94705">
        <ele>465</ele>
        <time>2021-09-09T11:37:45Z</time>
      </trkpt>
      <trkpt lat="44.16206" lon="5.94714">
        <ele>464.9</ele>
        <time>2021-09-09T11:37:47Z</time>
      </trkpt>
      <trkpt lat="44.16208" lon="5.94721">
        <ele>464.8</ele>
        <time>2021-09-09T11:37:48Z</time>
      </trkpt>
      <trkpt lat="44.1621" lon="5.94731">
        <ele>464.7</ele>
        <time>2021-09-09T11:37:50Z</time>
      </trkpt>
      <trkpt lat="44.16211" lon="5.94737">
        <ele>464.6</ele>
        <time>2021-09-09T11:37:51Z</time>
      </trkpt>
      <trkpt lat="44.16212" lon="5.94744">
        <ele>464.5</ele>
        <time>2021-09-09T11:37:52Z</time>
      </trkpt>
      <trkpt lat="44.16213" lon="5.9475">
        <ele>464.4</ele>
        <time>2021-09-09T11:37:53Z</time>
      </trkpt>
      <trkpt lat="44.16213" lon="5.94756">
        <ele>464.3</ele>
        <time>2021-09-09T11:37:54Z</time>
      </trkpt>
      <trkpt lat="44.16213" lon="5.94761">
        <ele>464.2</ele>
        <time>2021-09-09T11:37:55Z</time>
      </trkpt>
      <trkpt lat="44.16212" lon="5.94767">
        <ele>464.2</ele>
        <time>2021-09-09T11:37:56Z</time>
      </trkpt>
      <trkpt lat="44.16212" lon="5.94777">
        <ele>464.1</ele>
        <time>2021-09-09T11:37:58Z</time>
      </trkpt>
      <trkpt lat="44.16213" lon="5.94782">
        <ele>464</ele>
        <time>2021-09-09T11:37:59Z</time>
      </trkpt>
      <trkpt lat="44.16213" lon="5.94787">
        <ele>464</ele>
        <time>2021-09-09T11:38:00Z</time>
      </trkpt>
      <trkpt lat="44.16212" lon="5.94798">
        <ele>463.9</ele>
        <time>2021-09-09T11:38:02Z</time>
      </trkpt>
      <trkpt lat="44.16212" lon="5.94805">
        <ele>463.8</ele>
        <time>2021-09-09T11:38:03Z</time>
      </trkpt>
      <trkpt lat="44.16212" lon="5.94812">
        <ele>463.7</ele>
        <time>2021-09-09T11:38:04Z</time>
      </trkpt>
      <trkpt lat="44.16212" lon="5.94818">
        <ele>463.5</ele>
        <time>2021-09-09T11:38:05Z</time>
      </trkpt>
      <trkpt lat="44.16212" lon="5.94823">
        <ele>463.3</ele>
        <time>2021-09-09T11:38:06Z</time>
      </trkpt>
      <trkpt lat="44.16213" lon="5.94829">
        <ele>463.1</ele>
        <time>2021-09-09T11:38:07Z</time>
      </trkpt>
      <trkpt lat="44.16216" lon="5.94837">
        <ele>462.7</ele>
        <time>2021-09-09T11:38:09Z</time>
      </trkpt>
      <trkpt lat="44.16217" lon="5.94842">
        <ele>462.5</ele>
        <time>2021-09-09T11:38:10Z</time>
      </trkpt>
      <trkpt lat="44.16219" lon="5.94847">
        <ele>462.3</ele>
        <time>2021-09-09T11:38:11Z</time>
      </trkpt>
      <trkpt lat="44.16221" lon="5.94857">
        <ele>461.9</ele>
        <time>2021-09-09T11:38:13Z</time>
      </trkpt>
      <trkpt lat="44.16221" lon="5.94862">
        <ele>461.6</ele>
        <time>2021-09-09T11:38:14Z</time>
      </trkpt>
      <trkpt lat="44.1622" lon="5.94873">
        <ele>461.2</ele>
        <time>2021-09-09T11:38:16Z</time>
      </trkpt>
      <trkpt lat="44.16219" lon="5.94882">
        <ele>460.8</ele>
        <time>2021-09-09T11:38:18Z</time>
      </trkpt>
      <trkpt lat="44.16215" lon="5.94891">
        <ele>460.8</ele>
        <time>2021-09-09T11:38:19Z</time>
      </trkpt>
      <trkpt lat="44.16213" lon="5.94895">
        <ele>460.7</ele>
        <time>2021-09-09T11:38:20Z</time>
      </trkpt>
      <trkpt lat="44.16213" lon="5.94909">
        <ele>460.6</ele>
        <time>2021-09-09T11:38:22Z</time>
      </trkpt>
      <trkpt lat="44.16212" lon="5.94919">
        <ele>460.6</ele>
        <time>2021-09-09T11:38:24Z</time>
      </trkpt>
      <trkpt lat="44.1621" lon="5.94929">
        <ele>460.5</ele>
        <time>2021-09-09T11:38:26Z</time>
      </trkpt>
      <trkpt lat="44.1621" lon="5.94935">
        <ele>460.4</ele>
        <time>2021-09-09T11:38:27Z</time>
      </trkpt>
      <trkpt lat="44.16207" lon="5.94938">
        <ele>460.4</ele>
        <time>2021-09-09T11:38:28Z</time>
      </trkpt>
      <trkpt lat="44.16202" lon="5.94942">
        <ele>460.3</ele>
        <time>2021-09-09T11:38:30Z</time>
      </trkpt>
      <trkpt lat="44.16199" lon="5.9495">
        <ele>460.3</ele>
        <time>2021-09-09T11:38:32Z</time>
      </trkpt>
      <trkpt lat="44.16198" lon="5.94954">
        <ele>460.3</ele>
        <time>2021-09-09T11:38:33Z</time>
      </trkpt>
      <trkpt lat="44.16197" lon="5.9496">
        <ele>460.3</ele>
        <time>2021-09-09T11:38:34Z</time>
      </trkpt>
      <trkpt lat="44.16196" lon="5.94966">
        <ele>460.2</ele>
        <time>2021-09-09T11:38:35Z</time>
      </trkpt>
      <trkpt lat="44.16191" lon="5.94977">
        <ele>460.2</ele>
        <time>2021-09-09T11:38:37Z</time>
      </trkpt>
      <trkpt lat="44.16189" lon="5.94982">
        <ele>460.2</ele>
        <time>2021-09-09T11:38:38Z</time>
      </trkpt>
      <trkpt lat="44.16184" lon="5.94988">
        <ele>460.2</ele>
        <time>2021-09-09T11:38:40Z</time>
      </trkpt>
      <trkpt lat="44.16179" lon="5.94995">
        <ele>460.3</ele>
        <time>2021-09-09T11:38:41Z</time>
      </trkpt>
      <trkpt lat="44.16177" lon="5.94999">
        <ele>460.3</ele>
        <time>2021-09-09T11:38:42Z</time>
      </trkpt>
      <trkpt lat="44.16173" lon="5.95006">
        <ele>460.3</ele>
        <time>2021-09-09T11:38:44Z</time>
      </trkpt>
      <trkpt lat="44.16174" lon="5.95007">
        <ele>460.3</ele>
        <time>2021-09-09T11:38:45Z</time>
      </trkpt>
      <trkpt lat="44.16172" lon="5.95011">
        <ele>460.4</ele>
        <time>2021-09-09T11:38:47Z</time>
      </trkpt>
      <trkpt lat="44.16169" lon="5.95015">
        <ele>460.4</ele>
        <time>2021-09-09T11:38:48Z</time>
      </trkpt>
      <trkpt lat="44.16169" lon="5.95015">
        <ele>460.4</ele>
        <time>2021-09-09T11:38:49Z</time>
      </trkpt>
      <trkpt lat="44.16166" lon="5.95018">
        <ele>460.4</ele>
        <time>2021-09-09T11:38:51Z</time>
      </trkpt>
      <trkpt lat="44.16162" lon="5.9502">
        <ele>460.6</ele>
        <time>2021-09-09T11:38:52Z</time>
      </trkpt>
      <trkpt lat="44.16156" lon="5.95019">
        <ele>460.8</ele>
        <time>2021-09-09T11:38:53Z</time>
      </trkpt>
      <trkpt lat="44.16146" lon="5.95016">
        <ele>461.2</ele>
        <time>2021-09-09T11:38:55Z</time>
      </trkpt>
      <trkpt lat="44.16142" lon="5.95012">
        <ele>461.4</ele>
        <time>2021-09-09T11:38:57Z</time>
      </trkpt>
      <trkpt lat="44.1614" lon="5.9501">
        <ele>461.5</ele>
        <time>2021-09-09T11:38:58Z</time>
      </trkpt>
      <trkpt lat="44.16139" lon="5.95009">
        <ele>461.5</ele>
        <time>2021-09-09T11:39:00Z</time>
      </trkpt>
      <trkpt lat="44.16139" lon="5.95008">
        <ele>461.5</ele>
        <time>2021-09-09T11:39:01Z</time>
      </trkpt>
      <trkpt lat="44.16139" lon="5.95007">
        <ele>461.6</ele>
        <time>2021-09-09T11:39:03Z</time>
      </trkpt>
      <trkpt lat="44.1614" lon="5.95006">
        <ele>461.6</ele>
        <time>2021-09-09T11:39:05Z</time>
      </trkpt>
      <trkpt lat="44.16147" lon="5.94989">
        <ele>462.2</ele>
        <time>2021-09-09T11:41:20Z</time>
      </trkpt>
      <trkpt lat="44.16144" lon="5.94988">
        <ele>462.3</ele>
        <time>2021-09-09T11:41:21Z</time>
      </trkpt>
      <trkpt lat="44.1614" lon="5.94989">
        <ele>462.4</ele>
        <time>2021-09-09T11:41:22Z</time>
      </trkpt>
      <trkpt lat="44.16133" lon="5.94992">
        <ele>462.7</ele>
        <time>2021-09-09T11:41:24Z</time>
      </trkpt>
      <trkpt lat="44.16132" lon="5.94992">
        <ele>462.8</ele>
        <time>2021-09-09T11:41:25Z</time>
      </trkpt>
      <trkpt lat="44.16129" lon="5.94993">
        <ele>462.9</ele>
        <time>2021-09-09T11:41:27Z</time>
      </trkpt>
      <trkpt lat="44.16127" lon="5.94995">
        <ele>463</ele>
        <time>2021-09-09T11:41:28Z</time>
      </trkpt>
      <trkpt lat="44.16126" lon="5.94998">
        <ele>463.1</ele>
        <time>2021-09-09T11:41:30Z</time>
      </trkpt>
      <trkpt lat="44.16125" lon="5.95">
        <ele>463.1</ele>
        <time>2021-09-09T11:41:31Z</time>
      </trkpt>
      <trkpt lat="44.16124" lon="5.95002">
        <ele>463.2</ele>
        <time>2021-09-09T11:41:32Z</time>
      </trkpt>
      <trkpt lat="44.16122" lon="5.95005">
        <ele>463.4</ele>
        <time>2021-09-09T11:41:33Z</time>
      </trkpt>
      <trkpt lat="44.16121" lon="5.95007">
        <ele>463.4</ele>
        <time>2021-09-09T11:41:35Z</time>
      </trkpt>
      <trkpt lat="44.1612" lon="5.95009">
        <ele>463.5</ele>
        <time>2021-09-09T11:41:36Z</time>
      </trkpt>
      <trkpt lat="44.16116" lon="5.95015">
        <ele>463.7</ele>
        <time>2021-09-09T11:41:38Z</time>
      </trkpt>
      <trkpt lat="44.16111" lon="5.95021">
        <ele>463.9</ele>
        <time>2021-09-09T11:41:39Z</time>
      </trkpt>
      <trkpt lat="44.16107" lon="5.95024">
        <ele>464.1</ele>
        <time>2021-09-09T11:41:40Z</time>
      </trkpt>
      <trkpt lat="44.16103" lon="5.95027">
        <ele>464.3</ele>
        <time>2021-09-09T11:41:41Z</time>
      </trkpt>
      <trkpt lat="44.16096" lon="5.95033">
        <ele>464.5</ele>
        <time>2021-09-09T11:41:43Z</time>
      </trkpt>
      <trkpt lat="44.16092" lon="5.95037">
        <ele>464.7</ele>
        <time>2021-09-09T11:41:44Z</time>
      </trkpt>
      <trkpt lat="44.16085" lon="5.9504">
        <ele>464.9</ele>
        <time>2021-09-09T11:41:46Z</time>
      </trkpt>
      <trkpt lat="44.1608" lon="5.95041">
        <ele>465.1</ele>
        <time>2021-09-09T11:41:47Z</time>
      </trkpt>
      <trkpt lat="44.16072" lon="5.95043">
        <ele>465.3</ele>
        <time>2021-09-09T11:41:49Z</time>
      </trkpt>
      <trkpt lat="44.16066" lon="5.95046">
        <ele>465.5</ele>
        <time>2021-09-09T11:41:51Z</time>
      </trkpt>
      <trkpt lat="44.16063" lon="5.95048">
        <ele>465.6</ele>
        <time>2021-09-09T11:41:52Z</time>
      </trkpt>
      <trkpt lat="44.16059" lon="5.9505">
        <ele>465.8</ele>
        <time>2021-09-09T11:41:54Z</time>
      </trkpt>
      <trkpt lat="44.16057" lon="5.95051">
        <ele>465.8</ele>
        <time>2021-09-09T11:41:55Z</time>
      </trkpt>
      <trkpt lat="44.16056" lon="5.95052">
        <ele>465.9</ele>
        <time>2021-09-09T11:41:56Z</time>
      </trkpt>
      <trkpt lat="44.16054" lon="5.95052">
        <ele>465.9</ele>
        <time>2021-09-09T11:41:57Z</time>
      </trkpt>
      <trkpt lat="44.16049" lon="5.95052">
        <ele>466.1</ele>
        <time>2021-09-09T11:41:59Z</time>
      </trkpt>
      <trkpt lat="44.16045" lon="5.95054">
        <ele>466.2</ele>
        <time>2021-09-09T11:42:01Z</time>
      </trkpt>
      <trkpt lat="44.16041" lon="5.95054">
        <ele>466.3</ele>
        <time>2021-09-09T11:42:03Z</time>
      </trkpt>
      <trkpt lat="44.16038" lon="5.95055">
        <ele>466.4</ele>
        <time>2021-09-09T11:42:04Z</time>
      </trkpt>
      <trkpt lat="44.16035" lon="5.95055">
        <ele>466.5</ele>
        <time>2021-09-09T11:42:05Z</time>
      </trkpt>
      <trkpt lat="44.16031" lon="5.95055">
        <ele>466.6</ele>
        <time>2021-09-09T11:42:06Z</time>
      </trkpt>
      <trkpt lat="44.16028" lon="5.95056">
        <ele>466.7</ele>
        <time>2021-09-09T11:42:08Z</time>
      </trkpt>
      <trkpt lat="44.16025" lon="5.95056">
        <ele>466.8</ele>
        <time>2021-09-09T11:42:09Z</time>
      </trkpt>
      <trkpt lat="44.16021" lon="5.95057">
        <ele>466.9</ele>
        <time>2021-09-09T11:42:11Z</time>
      </trkpt>
      <trkpt lat="44.16019" lon="5.95057">
        <ele>467</ele>
        <time>2021-09-09T11:42:12Z</time>
      </trkpt>
      <trkpt lat="44.16018" lon="5.95057">
        <ele>467</ele>
        <time>2021-09-09T11:42:13Z</time>
      </trkpt>
      <trkpt lat="44.16014" lon="5.95057">
        <ele>467.1</ele>
        <time>2021-09-09T11:42:14Z</time>
      </trkpt>
      <trkpt lat="44.16013" lon="5.95057">
        <ele>467.2</ele>
        <time>2021-09-09T11:42:15Z</time>
      </trkpt>
      <trkpt lat="44.16009" lon="5.95059">
        <ele>467.3</ele>
        <time>2021-09-09T11:42:17Z</time>
      </trkpt>
      <trkpt lat="44.16007" lon="5.9506">
        <ele>467.3</ele>
        <time>2021-09-09T11:42:18Z</time>
      </trkpt>
      <trkpt lat="44.16003" lon="5.9506">
        <ele>467.4</ele>
        <time>2021-09-09T11:42:20Z</time>
      </trkpt>
      <trkpt lat="44.15999" lon="5.95061">
        <ele>467.5</ele>
        <time>2021-09-09T11:42:21Z</time>
      </trkpt>
      <trkpt lat="44.15995" lon="5.95061">
        <ele>467.7</ele>
        <time>2021-09-09T11:42:23Z</time>
      </trkpt>
      <trkpt lat="44.15992" lon="5.95061">
        <ele>467.7</ele>
        <time>2021-09-09T11:42:24Z</time>
      </trkpt>
      <trkpt lat="44.15988" lon="5.9506">
        <ele>467.8</ele>
        <time>2021-09-09T11:42:25Z</time>
      </trkpt>
      <trkpt lat="44.15987" lon="5.95059">
        <ele>467.8</ele>
        <time>2021-09-09T11:42:26Z</time>
      </trkpt>
      <trkpt lat="44.15982" lon="5.9506">
        <ele>467.9</ele>
        <time>2021-09-09T11:42:28Z</time>
      </trkpt>
      <trkpt lat="44.15976" lon="5.95059">
        <ele>468.1</ele>
        <time>2021-09-09T11:42:30Z</time>
      </trkpt>
      <trkpt lat="44.15972" lon="5.95057">
        <ele>468.2</ele>
        <time>2021-09-09T11:42:32Z</time>
      </trkpt>
      <trkpt lat="44.15968" lon="5.95056">
        <ele>468.2</ele>
        <time>2021-09-09T11:42:33Z</time>
      </trkpt>
      <trkpt lat="44.15965" lon="5.95057">
        <ele>468.3</ele>
        <time>2021-09-09T11:42:34Z</time>
      </trkpt>
      <trkpt lat="44.1596" lon="5.95057">
        <ele>468.3</ele>
        <time>2021-09-09T11:42:35Z</time>
      </trkpt>
      <trkpt lat="44.15956" lon="5.95057">
        <ele>468.4</ele>
        <time>2021-09-09T11:42:36Z</time>
      </trkpt>
      <trkpt lat="44.15951" lon="5.95056">
        <ele>468.4</ele>
        <time>2021-09-09T11:42:38Z</time>
      </trkpt>
      <trkpt lat="44.15948" lon="5.95056">
        <ele>468.5</ele>
        <time>2021-09-09T11:42:39Z</time>
      </trkpt>
      <trkpt lat="44.15944" lon="5.95056">
        <ele>468.5</ele>
        <time>2021-09-09T11:42:40Z</time>
      </trkpt>
      <trkpt lat="44.15941" lon="5.95057">
        <ele>468.6</ele>
        <time>2021-09-09T11:42:41Z</time>
      </trkpt>
      <trkpt lat="44.15935" lon="5.95059">
        <ele>468.7</ele>
        <time>2021-09-09T11:42:43Z</time>
      </trkpt>
      <trkpt lat="44.15929" lon="5.9506">
        <ele>468.7</ele>
        <time>2021-09-09T11:42:44Z</time>
      </trkpt>
      <trkpt lat="44.15925" lon="5.95061">
        <ele>468.8</ele>
        <time>2021-09-09T11:42:45Z</time>
      </trkpt>
      <trkpt lat="44.15919" lon="5.95061">
        <ele>468.9</ele>
        <time>2021-09-09T11:42:47Z</time>
      </trkpt>
      <trkpt lat="44.15914" lon="5.9506">
        <ele>468.9</ele>
        <time>2021-09-09T11:42:48Z</time>
      </trkpt>
      <trkpt lat="44.15909" lon="5.9506">
        <ele>469</ele>
        <time>2021-09-09T11:42:50Z</time>
      </trkpt>
      <trkpt lat="44.15905" lon="5.9506">
        <ele>469</ele>
        <time>2021-09-09T11:42:51Z</time>
      </trkpt>
      <trkpt lat="44.15901" lon="5.95058">
        <ele>469.1</ele>
        <time>2021-09-09T11:42:53Z</time>
      </trkpt>
      <trkpt lat="44.15899" lon="5.95057">
        <ele>469.1</ele>
        <time>2021-09-09T11:42:54Z</time>
      </trkpt>
      <trkpt lat="44.15898" lon="5.95056">
        <ele>469.1</ele>
        <time>2021-09-09T11:42:55Z</time>
      </trkpt>
      <trkpt lat="44.15897" lon="5.95056">
        <ele>469.1</ele>
        <time>2021-09-09T11:42:56Z</time>
      </trkpt>
      <trkpt lat="44.15898" lon="5.95056">
        <ele>469.1</ele>
        <time>2021-09-09T11:42:57Z</time>
      </trkpt>
      <trkpt lat="44.15899" lon="5.95055">
        <ele>469.1</ele>
        <time>2021-09-09T11:42:59Z</time>
      </trkpt>
      <trkpt lat="44.15899" lon="5.95053">
        <ele>469.1</ele>
        <time>2021-09-09T11:43:01Z</time>
      </trkpt>
      <trkpt lat="44.15899" lon="5.95053">
        <ele>469.1</ele>
        <time>2021-09-09T11:43:02Z</time>
      </trkpt>
      <trkpt lat="44.15899" lon="5.95051">
        <ele>469.1</ele>
        <time>2021-09-09T11:43:04Z</time>
      </trkpt>
      <trkpt lat="44.15899" lon="5.9505">
        <ele>469.1</ele>
        <time>2021-09-09T11:43:05Z</time>
      </trkpt>
      <trkpt lat="44.15875" lon="5.9504">
        <ele>469.3</ele>
        <time>2021-09-09T11:43:32Z</time>
      </trkpt>
      <trkpt lat="44.15862" lon="5.95044">
        <ele>469.3</ele>
        <time>2021-09-09T11:43:34Z</time>
      </trkpt>
      <trkpt lat="44.15855" lon="5.95047">
        <ele>469.3</ele>
        <time>2021-09-09T11:43:35Z</time>
      </trkpt>
      <trkpt lat="44.15849" lon="5.9505">
        <ele>469.3</ele>
        <time>2021-09-09T11:43:36Z</time>
      </trkpt>
      <trkpt lat="44.15837" lon="5.95053">
        <ele>469.3</ele>
        <time>2021-09-09T11:43:38Z</time>
      </trkpt>
      <trkpt lat="44.1583" lon="5.95054">
        <ele>469.4</ele>
        <time>2021-09-09T11:43:39Z</time>
      </trkpt>
      <trkpt lat="44.15818" lon="5.95056">
        <ele>469.4</ele>
        <time>2021-09-09T11:43:41Z</time>
      </trkpt>
      <trkpt lat="44.15808" lon="5.9506">
        <ele>469.3</ele>
        <time>2021-09-09T11:43:43Z</time>
      </trkpt>
      <trkpt lat="44.15803" lon="5.95062">
        <ele>469.3</ele>
        <time>2021-09-09T11:43:44Z</time>
      </trkpt>
      <trkpt lat="44.15796" lon="5.95064">
        <ele>469.3</ele>
        <time>2021-09-09T11:43:46Z</time>
      </trkpt>
      <trkpt lat="44.15794" lon="5.95068">
        <ele>469.3</ele>
        <time>2021-09-09T11:43:48Z</time>
      </trkpt>
      <trkpt lat="44.15789" lon="5.9507">
        <ele>469.3</ele>
        <time>2021-09-09T11:43:49Z</time>
      </trkpt>
      <trkpt lat="44.1578" lon="5.95074">
        <ele>469.2</ele>
        <time>2021-09-09T11:43:51Z</time>
      </trkpt>
      <trkpt lat="44.15774" lon="5.95077">
        <ele>469.2</ele>
        <time>2021-09-09T11:43:52Z</time>
      </trkpt>
      <trkpt lat="44.15764" lon="5.9508">
        <ele>469.2</ele>
        <time>2021-09-09T11:43:54Z</time>
      </trkpt>
      <trkpt lat="44.15759" lon="5.95081">
        <ele>469.2</ele>
        <time>2021-09-09T11:43:55Z</time>
      </trkpt>
      <trkpt lat="44.15754" lon="5.95083">
        <ele>469.1</ele>
        <time>2021-09-09T11:43:56Z</time>
      </trkpt>
      <trkpt lat="44.15745" lon="5.95086">
        <ele>469.1</ele>
        <time>2021-09-09T11:43:58Z</time>
      </trkpt>
      <trkpt lat="44.1574" lon="5.95088">
        <ele>469.1</ele>
        <time>2021-09-09T11:43:59Z</time>
      </trkpt>
      <trkpt lat="44.1573" lon="5.95092">
        <ele>469</ele>
        <time>2021-09-09T11:44:01Z</time>
      </trkpt>
      <trkpt lat="44.15726" lon="5.95094">
        <ele>469</ele>
        <time>2021-09-09T11:44:02Z</time>
      </trkpt>
      <trkpt lat="44.15717" lon="5.95099">
        <ele>469</ele>
        <time>2021-09-09T11:44:04Z</time>
      </trkpt>
      <trkpt lat="44.15713" lon="5.95103">
        <ele>469</ele>
        <time>2021-09-09T11:44:05Z</time>
      </trkpt>
      <trkpt lat="44.15709" lon="5.95106">
        <ele>469</ele>
        <time>2021-09-09T11:44:06Z</time>
      </trkpt>
      <trkpt lat="44.15702" lon="5.95112">
        <ele>468.9</ele>
        <time>2021-09-09T11:44:08Z</time>
      </trkpt>
      <trkpt lat="44.15696" lon="5.95116">
        <ele>468.9</ele>
        <time>2021-09-09T11:44:10Z</time>
      </trkpt>
      <trkpt lat="44.15692" lon="5.95118">
        <ele>468.9</ele>
        <time>2021-09-09T11:44:11Z</time>
      </trkpt>
      <trkpt lat="44.15689" lon="5.9512">
        <ele>468.9</ele>
        <time>2021-09-09T11:44:12Z</time>
      </trkpt>
      <trkpt lat="44.15681" lon="5.95125">
        <ele>468.9</ele>
        <time>2021-09-09T11:44:14Z</time>
      </trkpt>
      <trkpt lat="44.15678" lon="5.95131">
        <ele>468.9</ele>
        <time>2021-09-09T11:44:16Z</time>
      </trkpt>
      <trkpt lat="44.15672" lon="5.95134">
        <ele>468.9</ele>
        <time>2021-09-09T11:44:17Z</time>
      </trkpt>
      <trkpt lat="44.15668" lon="5.95135">
        <ele>468.9</ele>
        <time>2021-09-09T11:44:18Z</time>
      </trkpt>
      <trkpt lat="44.15661" lon="5.95135">
        <ele>468.9</ele>
        <time>2021-09-09T11:44:20Z</time>
      </trkpt>
      <trkpt lat="44.15654" lon="5.95136">
        <ele>468.9</ele>
        <time>2021-09-09T11:44:21Z</time>
      </trkpt>
      <trkpt lat="44.1565" lon="5.95138">
        <ele>468.9</ele>
        <time>2021-09-09T11:44:22Z</time>
      </trkpt>
      <trkpt lat="44.15642" lon="5.95142">
        <ele>469</ele>
        <time>2021-09-09T11:44:24Z</time>
      </trkpt>
      <trkpt lat="44.15634" lon="5.95141">
        <ele>469</ele>
        <time>2021-09-09T11:44:25Z</time>
      </trkpt>
      <trkpt lat="44.15629" lon="5.95142">
        <ele>469</ele>
        <time>2021-09-09T11:44:26Z</time>
      </trkpt>
      <trkpt lat="44.15625" lon="5.95148">
        <ele>469</ele>
        <time>2021-09-09T11:44:28Z</time>
      </trkpt>
      <trkpt lat="44.15623" lon="5.95148">
        <ele>469</ele>
        <time>2021-09-09T11:44:29Z</time>
      </trkpt>
      <trkpt lat="44.15616" lon="5.95148">
        <ele>469</ele>
        <time>2021-09-09T11:44:31Z</time>
      </trkpt>
      <trkpt lat="44.1561" lon="5.95149">
        <ele>469</ele>
        <time>2021-09-09T11:44:32Z</time>
      </trkpt>
      <trkpt lat="44.15605" lon="5.95151">
        <ele>469.1</ele>
        <time>2021-09-09T11:44:33Z</time>
      </trkpt>
      <trkpt lat="44.15601" lon="5.95152">
        <ele>469.1</ele>
        <time>2021-09-09T11:44:34Z</time>
      </trkpt>
      <trkpt lat="44.15597" lon="5.95153">
        <ele>469.1</ele>
        <time>2021-09-09T11:44:35Z</time>
      </trkpt>
      <trkpt lat="44.15591" lon="5.95154">
        <ele>469.1</ele>
        <time>2021-09-09T11:44:37Z</time>
      </trkpt>
      <trkpt lat="44.15586" lon="5.95154">
        <ele>469.1</ele>
        <time>2021-09-09T11:44:38Z</time>
      </trkpt>
      <trkpt lat="44.15578" lon="5.95156">
        <ele>469.1</ele>
        <time>2021-09-09T11:44:40Z</time>
      </trkpt>
      <trkpt lat="44.15573" lon="5.95157">
        <ele>469.1</ele>
        <time>2021-09-09T11:44:41Z</time>
      </trkpt>
      <trkpt lat="44.15564" lon="5.95158">
        <ele>469.2</ele>
        <time>2021-09-09T11:44:43Z</time>
      </trkpt>
      <trkpt lat="44.1556" lon="5.95158">
        <ele>469.2</ele>
        <time>2021-09-09T11:44:44Z</time>
      </trkpt>
      <trkpt lat="44.15552" lon="5.95159">
        <ele>469.3</ele>
        <time>2021-09-09T11:44:46Z</time>
      </trkpt>
      <trkpt lat="44.15549" lon="5.95159">
        <ele>469.3</ele>
        <time>2021-09-09T11:44:47Z</time>
      </trkpt>
      <trkpt lat="44.15545" lon="5.95159">
        <ele>469.3</ele>
        <time>2021-09-09T11:44:48Z</time>
      </trkpt>
      <trkpt lat="44.15542" lon="5.9516">
        <ele>469.3</ele>
        <time>2021-09-09T11:44:49Z</time>
      </trkpt>
      <trkpt lat="44.15535" lon="5.95162">
        <ele>469.4</ele>
        <time>2021-09-09T11:44:51Z</time>
      </trkpt>
      <trkpt lat="44.15532" lon="5.95164">
        <ele>469.4</ele>
        <time>2021-09-09T11:44:52Z</time>
      </trkpt>
      <trkpt lat="44.15529" lon="5.95167">
        <ele>469.4</ele>
        <time>2021-09-09T11:44:53Z</time>
      </trkpt>
      <trkpt lat="44.15526" lon="5.9517">
        <ele>469.4</ele>
        <time>2021-09-09T11:44:55Z</time>
      </trkpt>
      <trkpt lat="44.15522" lon="5.95173">
        <ele>469.5</ele>
        <time>2021-09-09T11:44:56Z</time>
      </trkpt>
      <trkpt lat="44.15518" lon="5.95176">
        <ele>469.5</ele>
        <time>2021-09-09T11:44:58Z</time>
      </trkpt>
      <trkpt lat="44.15514" lon="5.95179">
        <ele>469.5</ele>
        <time>2021-09-09T11:44:59Z</time>
      </trkpt>
      <trkpt lat="44.15512" lon="5.95181">
        <ele>469.5</ele>
        <time>2021-09-09T11:45:00Z</time>
      </trkpt>
      <trkpt lat="44.15507" lon="5.95185">
        <ele>469.5</ele>
        <time>2021-09-09T11:45:02Z</time>
      </trkpt>
      <trkpt lat="44.15502" lon="5.95191">
        <ele>469.5</ele>
        <time>2021-09-09T11:45:04Z</time>
      </trkpt>
      <trkpt lat="44.15499" lon="5.95197">
        <ele>469.5</ele>
        <time>2021-09-09T11:45:06Z</time>
      </trkpt>
      <trkpt lat="44.15498" lon="5.952">
        <ele>469.5</ele>
        <time>2021-09-09T11:45:07Z</time>
      </trkpt>
      <trkpt lat="44.15497" lon="5.95204">
        <ele>469.5</ele>
        <time>2021-09-09T11:45:08Z</time>
      </trkpt>
      <trkpt lat="44.15495" lon="5.95208">
        <ele>469.5</ele>
        <time>2021-09-09T11:45:10Z</time>
      </trkpt>
      <trkpt lat="44.15493" lon="5.95212">
        <ele>469.5</ele>
        <time>2021-09-09T11:45:11Z</time>
      </trkpt>
      <trkpt lat="44.15491" lon="5.95216">
        <ele>469.5</ele>
        <time>2021-09-09T11:45:12Z</time>
      </trkpt>
      <trkpt lat="44.15489" lon="5.9522">
        <ele>469.5</ele>
        <time>2021-09-09T11:45:13Z</time>
      </trkpt>
      <trkpt lat="44.15487" lon="5.95223">
        <ele>469.5</ele>
        <time>2021-09-09T11:45:14Z</time>
      </trkpt>
      <trkpt lat="44.15485" lon="5.95228">
        <ele>469.5</ele>
        <time>2021-09-09T11:45:16Z</time>
      </trkpt>
      <trkpt lat="44.15484" lon="5.95231">
        <ele>469.5</ele>
        <time>2021-09-09T11:45:18Z</time>
      </trkpt>
      <trkpt lat="44.15483" lon="5.95233">
        <ele>469.5</ele>
        <time>2021-09-09T11:45:19Z</time>
      </trkpt>
      <trkpt lat="44.15483" lon="5.95235">
        <ele>469.5</ele>
        <time>2021-09-09T11:45:20Z</time>
      </trkpt>
      <trkpt lat="44.15483" lon="5.95236">
        <ele>469.5</ele>
        <time>2021-09-09T11:45:22Z</time>
      </trkpt>
      <trkpt lat="44.15484" lon="5.95233">
        <ele>469.5</ele>
        <time>2021-09-09T11:45:24Z</time>
      </trkpt>
      <trkpt lat="44.15484" lon="5.95233">
        <ele>469.5</ele>
        <time>2021-09-09T11:45:25Z</time>
      </trkpt>
      <trkpt lat="44.15484" lon="5.95233">
        <ele>469.5</ele>
        <time>2021-09-09T11:45:26Z</time>
      </trkpt>
      <trkpt lat="44.15484" lon="5.95233">
        <ele>469.5</ele>
        <time>2021-09-09T11:45:28Z</time>
      </trkpt>
      <trkpt lat="44.15484" lon="5.95233">
        <ele>469.5</ele>
        <time>2021-09-09T11:45:29Z</time>
      </trkpt>
      <trkpt lat="44.15484" lon="5.95232">
        <ele>469.5</ele>
        <time>2021-09-09T11:45:30Z</time>
      </trkpt>
      <trkpt lat="44.1549" lon="5.95213">
        <ele>469.5</ele>
        <time>2021-09-09T11:45:35Z</time>
      </trkpt>
      <trkpt lat="44.15492" lon="5.95208">
        <ele>469.5</ele>
        <time>2021-09-09T11:45:36Z</time>
      </trkpt>
      <trkpt lat="44.15496" lon="5.952">
        <ele>469.5</ele>
        <time>2021-09-09T11:45:38Z</time>
      </trkpt>
      <trkpt lat="44.15497" lon="5.95198">
        <ele>469.5</ele>
        <time>2021-09-09T11:45:39Z</time>
      </trkpt>
      <trkpt lat="44.15499" lon="5.95194">
        <ele>469.5</ele>
        <time>2021-09-09T11:45:41Z</time>
      </trkpt>
      <trkpt lat="44.15495" lon="5.952">
        <ele>469.5</ele>
        <time>2021-09-09T11:45:42Z</time>
      </trkpt>
      <trkpt lat="44.15492" lon="5.95207">
        <ele>469.5</ele>
        <time>2021-09-09T11:45:43Z</time>
      </trkpt>
      <trkpt lat="44.15488" lon="5.95214">
        <ele>469.4</ele>
        <time>2021-09-09T11:45:45Z</time>
      </trkpt>
      <trkpt lat="44.15485" lon="5.9522">
        <ele>469.4</ele>
        <time>2021-09-09T11:45:47Z</time>
      </trkpt>
      <trkpt lat="44.15481" lon="5.95227">
        <ele>469.4</ele>
        <time>2021-09-09T11:46:14Z</time>
      </trkpt>
      <trkpt lat="44.15477" lon="5.95234">
        <ele>469.4</ele>
        <time>2021-09-09T11:46:15Z</time>
      </trkpt>
      <trkpt lat="44.15472" lon="5.95242">
        <ele>469.4</ele>
        <time>2021-09-09T11:46:17Z</time>
      </trkpt>
      <trkpt lat="44.15468" lon="5.95252">
        <ele>469.4</ele>
        <time>2021-09-09T11:46:18Z</time>
      </trkpt>
      <trkpt lat="44.15463" lon="5.9526">
        <ele>469.4</ele>
        <time>2021-09-09T11:46:20Z</time>
      </trkpt>
      <trkpt lat="44.15458" lon="5.9527">
        <ele>469.3</ele>
        <time>2021-09-09T11:46:22Z</time>
      </trkpt>
      <trkpt lat="44.15453" lon="5.95281">
        <ele>469.3</ele>
        <time>2021-09-09T11:46:23Z</time>
      </trkpt>
      <trkpt lat="44.1545" lon="5.95285">
        <ele>469.3</ele>
        <time>2021-09-09T11:46:24Z</time>
      </trkpt>
      <trkpt lat="44.15447" lon="5.95291">
        <ele>469.2</ele>
        <time>2021-09-09T11:46:26Z</time>
      </trkpt>
      <trkpt lat="44.15441" lon="5.95299">
        <ele>469.2</ele>
        <time>2021-09-09T11:46:27Z</time>
      </trkpt>
      <trkpt lat="44.15438" lon="5.95304">
        <ele>469.2</ele>
        <time>2021-09-09T11:46:28Z</time>
      </trkpt>
      <trkpt lat="44.1543" lon="5.95312">
        <ele>469.2</ele>
        <time>2021-09-09T11:46:30Z</time>
      </trkpt>
      <trkpt lat="44.15427" lon="5.95316">
        <ele>469.2</ele>
        <time>2021-09-09T11:46:31Z</time>
      </trkpt>
      <trkpt lat="44.15425" lon="5.9532">
        <ele>469.3</ele>
        <time>2021-09-09T11:46:32Z</time>
      </trkpt>
      <trkpt lat="44.1542" lon="5.95328">
        <ele>469.3</ele>
        <time>2021-09-09T11:46:34Z</time>
      </trkpt>
      <trkpt lat="44.15415" lon="5.95335">
        <ele>469.4</ele>
        <time>2021-09-09T11:46:36Z</time>
      </trkpt>
      <trkpt lat="44.15412" lon="5.95338">
        <ele>469.4</ele>
        <time>2021-09-09T11:46:37Z</time>
      </trkpt>
      <trkpt lat="44.1541" lon="5.95342">
        <ele>469.4</ele>
        <time>2021-09-09T11:46:38Z</time>
      </trkpt>
      <trkpt lat="44.15406" lon="5.95347">
        <ele>469.5</ele>
        <time>2021-09-09T11:46:40Z</time>
      </trkpt>
      <trkpt lat="44.154" lon="5.95353">
        <ele>469.6</ele>
        <time>2021-09-09T11:46:42Z</time>
      </trkpt>
      <trkpt lat="44.15396" lon="5.95359">
        <ele>469.6</ele>
        <time>2021-09-09T11:46:43Z</time>
      </trkpt>
      <trkpt lat="44.15392" lon="5.95364">
        <ele>469.7</ele>
        <time>2021-09-09T11:46:45Z</time>
      </trkpt>
      <trkpt lat="44.15387" lon="5.9537">
        <ele>469.8</ele>
        <time>2021-09-09T11:46:46Z</time>
      </trkpt>
      <trkpt lat="44.15381" lon="5.95377">
        <ele>469.9</ele>
        <time>2021-09-09T11:46:48Z</time>
      </trkpt>
      <trkpt lat="44.15376" lon="5.95386">
        <ele>470.1</ele>
        <time>2021-09-09T11:46:50Z</time>
      </trkpt>
      <trkpt lat="44.15373" lon="5.95393">
        <ele>470.2</ele>
        <time>2021-09-09T11:46:52Z</time>
      </trkpt>
      <trkpt lat="44.15371" lon="5.95397">
        <ele>470.3</ele>
        <time>2021-09-09T11:46:53Z</time>
      </trkpt>
      <trkpt lat="44.15368" lon="5.95403">
        <ele>470.4</ele>
        <time>2021-09-09T11:46:55Z</time>
      </trkpt>
      <trkpt lat="44.15366" lon="5.95412">
        <ele>470.6</ele>
        <time>2021-09-09T11:46:56Z</time>
      </trkpt>
      <trkpt lat="44.15363" lon="5.95417">
        <ele>470.7</ele>
        <time>2021-09-09T11:46:57Z</time>
      </trkpt>
      <trkpt lat="44.15366" lon="5.9542">
        <ele>470.7</ele>
        <time>2021-09-09T11:46:59Z</time>
      </trkpt>
      <trkpt lat="44.15366" lon="5.95424">
        <ele>471.2</ele>
        <time>2021-09-09T11:47:00Z</time>
      </trkpt>
      <trkpt lat="44.15367" lon="5.95429">
        <ele>471.2</ele>
        <time>2021-09-09T11:47:02Z</time>
      </trkpt>
      <trkpt lat="44.15369" lon="5.95432">
        <ele>471.2</ele>
        <time>2021-09-09T11:47:03Z</time>
      </trkpt>
      <trkpt lat="44.15372" lon="5.95434">
        <ele>471.2</ele>
        <time>2021-09-09T11:47:05Z</time>
      </trkpt>
      <trkpt lat="44.15375" lon="5.95437">
        <ele>462.1</ele>
        <time>2021-09-09T11:47:06Z</time>
      </trkpt>
      <trkpt lat="44.15378" lon="5.9544">
        <ele>462.1</ele>
        <time>2021-09-09T11:47:07Z</time>
      </trkpt>
      <trkpt lat="44.15381" lon="5.95443">
        <ele>462.1</ele>
        <time>2021-09-09T11:47:09Z</time>
      </trkpt>
      <trkpt lat="44.15384" lon="5.95446">
        <ele>458.9</ele>
        <time>2021-09-09T11:47:10Z</time>
      </trkpt>
      <trkpt lat="44.15387" lon="5.95448">
        <ele>458.9</ele>
        <time>2021-09-09T11:47:11Z</time>
      </trkpt>
      <trkpt lat="44.15391" lon="5.95453">
        <ele>458.9</ele>
        <time>2021-09-09T11:47:13Z</time>
      </trkpt>
      <trkpt lat="44.15394" lon="5.95459">
        <ele>458.9</ele>
        <time>2021-09-09T11:47:15Z</time>
      </trkpt>
      <trkpt lat="44.15393" lon="5.95465">
        <ele>459.1</ele>
        <time>2021-09-09T11:47:16Z</time>
      </trkpt>
      <trkpt lat="44.15392" lon="5.95468">
        <ele>459.2</ele>
        <time>2021-09-09T11:47:17Z</time>
      </trkpt>
      <trkpt lat="44.1539" lon="5.95472">
        <ele>459.3</ele>
        <time>2021-09-09T11:47:18Z</time>
      </trkpt>
      <trkpt lat="44.15386" lon="5.95479">
        <ele>459.7</ele>
        <time>2021-09-09T11:47:20Z</time>
      </trkpt>
      <trkpt lat="44.15379" lon="5.95489">
        <ele>460.1</ele>
        <time>2021-09-09T11:47:21Z</time>
      </trkpt>
      <trkpt lat="44.15371" lon="5.95502">
        <ele>460.7</ele>
        <time>2021-09-09T11:47:23Z</time>
      </trkpt>
      <trkpt lat="44.15368" lon="5.95507">
        <ele>461</ele>
        <time>2021-09-09T11:47:24Z</time>
      </trkpt>
      <trkpt lat="44.15361" lon="5.95517">
        <ele>461.7</ele>
        <time>2021-09-09T11:47:26Z</time>
      </trkpt>
      <trkpt lat="44.15355" lon="5.95528">
        <ele>462.5</ele>
        <time>2021-09-09T11:47:28Z</time>
      </trkpt>
      <trkpt lat="44.15352" lon="5.95538">
        <ele>463.2</ele>
        <time>2021-09-09T11:47:30Z</time>
      </trkpt>
      <trkpt lat="44.15349" lon="5.95545">
        <ele>464</ele>
        <time>2021-09-09T11:47:32Z</time>
      </trkpt>
      <trkpt lat="44.15346" lon="5.9555">
        <ele>464.7</ele>
        <time>2021-09-09T11:47:34Z</time>
      </trkpt>
      <trkpt lat="44.15345" lon="5.95555">
        <ele>465.3</ele>
        <time>2021-09-09T11:47:35Z</time>
      </trkpt>
      <trkpt lat="44.15344" lon="5.95557">
        <ele>465.5</ele>
        <time>2021-09-09T11:47:36Z</time>
      </trkpt>
      <trkpt lat="44.15342" lon="5.95562">
        <ele>466.1</ele>
        <time>2021-09-09T11:47:37Z</time>
      </trkpt>
      <trkpt lat="44.15338" lon="5.95564">
        <ele>466.5</ele>
        <time>2021-09-09T11:47:39Z</time>
      </trkpt>
      <trkpt lat="44.15335" lon="5.9557">
        <ele>466.9</ele>
        <time>2021-09-09T11:47:40Z</time>
      </trkpt>
      <trkpt lat="44.15333" lon="5.95574">
        <ele>467.1</ele>
        <time>2021-09-09T11:47:41Z</time>
      </trkpt>
      <trkpt lat="44.15328" lon="5.95585">
        <ele>467.4</ele>
        <time>2021-09-09T11:47:43Z</time>
      </trkpt>
      <trkpt lat="44.15323" lon="5.95596">
        <ele>467.5</ele>
        <time>2021-09-09T11:47:45Z</time>
      </trkpt>
      <trkpt lat="44.15318" lon="5.95607">
        <ele>467.6</ele>
        <time>2021-09-09T11:47:46Z</time>
      </trkpt>
      <trkpt lat="44.15315" lon="5.95612">
        <ele>467.6</ele>
        <time>2021-09-09T11:47:47Z</time>
      </trkpt>
      <trkpt lat="44.15314" lon="5.95616">
        <ele>467.6</ele>
        <time>2021-09-09T11:47:48Z</time>
      </trkpt>
      <trkpt lat="44.15311" lon="5.95621">
        <ele>467.7</ele>
        <time>2021-09-09T11:47:50Z</time>
      </trkpt>
      <trkpt lat="44.15309" lon="5.95627">
        <ele>467.8</ele>
        <time>2021-09-09T11:47:51Z</time>
      </trkpt>
      <trkpt lat="44.15306" lon="5.95633">
        <ele>467.9</ele>
        <time>2021-09-09T11:47:52Z</time>
      </trkpt>
      <trkpt lat="44.15303" lon="5.9564">
        <ele>468.1</ele>
        <time>2021-09-09T11:47:53Z</time>
      </trkpt>
      <trkpt lat="44.15301" lon="5.95646">
        <ele>468.1</ele>
        <time>2021-09-09T11:47:54Z</time>
      </trkpt>
      <trkpt lat="44.15297" lon="5.95655">
        <ele>468.2</ele>
        <time>2021-09-09T11:47:55Z</time>
      </trkpt>
      <trkpt lat="44.15294" lon="5.95662">
        <ele>468.1</ele>
        <time>2021-09-09T11:47:56Z</time>
      </trkpt>
      <trkpt lat="44.15289" lon="5.9567">
        <ele>468</ele>
        <time>2021-09-09T11:47:58Z</time>
      </trkpt>
      <trkpt lat="44.15286" lon="5.95676">
        <ele>468</ele>
        <time>2021-09-09T11:47:59Z</time>
      </trkpt>
      <trkpt lat="44.15279" lon="5.95687">
        <ele>468</ele>
        <time>2021-09-09T11:48:00Z</time>
      </trkpt>
      <trkpt lat="44.15275" lon="5.95693">
        <ele>468</ele>
        <time>2021-09-09T11:48:01Z</time>
      </trkpt>
      <trkpt lat="44.15272" lon="5.95698">
        <ele>468</ele>
        <time>2021-09-09T11:48:02Z</time>
      </trkpt>
      <trkpt lat="44.15269" lon="5.95703">
        <ele>468.1</ele>
        <time>2021-09-09T11:48:04Z</time>
      </trkpt>
      <trkpt lat="44.15267" lon="5.95708">
        <ele>468.1</ele>
        <time>2021-09-09T11:48:05Z</time>
      </trkpt>
      <trkpt lat="44.15265" lon="5.95713">
        <ele>468.1</ele>
        <time>2021-09-09T11:48:06Z</time>
      </trkpt>
      <trkpt lat="44.15262" lon="5.95719">
        <ele>468.1</ele>
        <time>2021-09-09T11:48:07Z</time>
      </trkpt>
      <trkpt lat="44.1526" lon="5.95723">
        <ele>468.1</ele>
        <time>2021-09-09T11:48:08Z</time>
      </trkpt>
      <trkpt lat="44.15258" lon="5.95726">
        <ele>468.1</ele>
        <time>2021-09-09T11:48:09Z</time>
      </trkpt>
      <trkpt lat="44.15255" lon="5.9573">
        <ele>468.1</ele>
        <time>2021-09-09T11:48:10Z</time>
      </trkpt>
      <trkpt lat="44.15252" lon="5.95736">
        <ele>468.1</ele>
        <time>2021-09-09T11:48:11Z</time>
      </trkpt>
      <trkpt lat="44.15247" lon="5.95747">
        <ele>468.2</ele>
        <time>2021-09-09T11:48:13Z</time>
      </trkpt>
      <trkpt lat="44.1524" lon="5.95762">
        <ele>468.3</ele>
        <time>2021-09-09T11:48:15Z</time>
      </trkpt>
      <trkpt lat="44.15235" lon="5.95773">
        <ele>468.4</ele>
        <time>2021-09-09T11:48:16Z</time>
      </trkpt>
      <trkpt lat="44.15232" lon="5.9578">
        <ele>468.5</ele>
        <time>2021-09-09T11:48:17Z</time>
      </trkpt>
      <trkpt lat="44.1523" lon="5.95785">
        <ele>468.5</ele>
        <time>2021-09-09T11:48:18Z</time>
      </trkpt>
      <trkpt lat="44.15226" lon="5.95789">
        <ele>468.6</ele>
        <time>2021-09-09T11:48:20Z</time>
      </trkpt>
      <trkpt lat="44.15223" lon="5.95795">
        <ele>468.6</ele>
        <time>2021-09-09T11:48:21Z</time>
      </trkpt>
      <trkpt lat="44.15222" lon="5.95801">
        <ele>468.5</ele>
        <time>2021-09-09T11:48:22Z</time>
      </trkpt>
      <trkpt lat="44.1522" lon="5.95806">
        <ele>468.5</ele>
        <time>2021-09-09T11:48:23Z</time>
      </trkpt>
      <trkpt lat="44.15218" lon="5.95811">
        <ele>468.4</ele>
        <time>2021-09-09T11:48:24Z</time>
      </trkpt>
      <trkpt lat="44.15216" lon="5.95816">
        <ele>468.4</ele>
        <time>2021-09-09T11:48:25Z</time>
      </trkpt>
      <trkpt lat="44.15214" lon="5.9582">
        <ele>468.4</ele>
        <time>2021-09-09T11:48:26Z</time>
      </trkpt>
      <trkpt lat="44.15212" lon="5.95824">
        <ele>468.3</ele>
        <time>2021-09-09T11:48:28Z</time>
      </trkpt>
      <trkpt lat="44.1521" lon="5.95828">
        <ele>468.3</ele>
        <time>2021-09-09T11:48:29Z</time>
      </trkpt>
      <trkpt lat="44.15208" lon="5.95834">
        <ele>468.2</ele>
        <time>2021-09-09T11:48:30Z</time>
      </trkpt>
      <trkpt lat="44.15206" lon="5.95838">
        <ele>468.1</ele>
        <time>2021-09-09T11:48:31Z</time>
      </trkpt>
      <trkpt lat="44.15204" lon="5.95845">
        <ele>467.8</ele>
        <time>2021-09-09T11:48:33Z</time>
      </trkpt>
      <trkpt lat="44.15202" lon="5.95848">
        <ele>467.7</ele>
        <time>2021-09-09T11:48:34Z</time>
      </trkpt>
      <trkpt lat="44.15201" lon="5.95853">
        <ele>467.6</ele>
        <time>2021-09-09T11:48:35Z</time>
      </trkpt>
      <trkpt lat="44.15198" lon="5.95858">
        <ele>467.4</ele>
        <time>2021-09-09T11:48:36Z</time>
      </trkpt>
      <trkpt lat="44.15194" lon="5.95868">
        <ele>467.2</ele>
        <time>2021-09-09T11:48:38Z</time>
      </trkpt>
      <trkpt lat="44.15192" lon="5.95874">
        <ele>467.1</ele>
        <time>2021-09-09T11:48:40Z</time>
      </trkpt>
      <trkpt lat="44.15189" lon="5.95878">
        <ele>467</ele>
        <time>2021-09-09T11:48:41Z</time>
      </trkpt>
      <trkpt lat="44.15187" lon="5.95882">
        <ele>467</ele>
        <time>2021-09-09T11:48:42Z</time>
      </trkpt>
      <trkpt lat="44.15185" lon="5.95886">
        <ele>466.9</ele>
        <time>2021-09-09T11:48:43Z</time>
      </trkpt>
      <trkpt lat="44.15183" lon="5.95891">
        <ele>466.8</ele>
        <time>2021-09-09T11:48:44Z</time>
      </trkpt>
      <trkpt lat="44.15179" lon="5.95895">
        <ele>466.6</ele>
        <time>2021-09-09T11:48:45Z</time>
      </trkpt>
      <trkpt lat="44.15178" lon="5.95899">
        <ele>466.5</ele>
        <time>2021-09-09T11:48:47Z</time>
      </trkpt>
      <trkpt lat="44.15177" lon="5.95904">
        <ele>466.3</ele>
        <time>2021-09-09T11:48:48Z</time>
      </trkpt>
      <trkpt lat="44.15174" lon="5.95908">
        <ele>466.1</ele>
        <time>2021-09-09T11:48:49Z</time>
      </trkpt>
      <trkpt lat="44.15172" lon="5.95913">
        <ele>465.9</ele>
        <time>2021-09-09T11:48:50Z</time>
      </trkpt>
      <trkpt lat="44.15169" lon="5.95918">
        <ele>465.8</ele>
        <time>2021-09-09T11:48:51Z</time>
      </trkpt>
      <trkpt lat="44.15166" lon="5.95923">
        <ele>465.6</ele>
        <time>2021-09-09T11:48:52Z</time>
      </trkpt>
      <trkpt lat="44.15161" lon="5.95933">
        <ele>465.3</ele>
        <time>2021-09-09T11:48:53Z</time>
      </trkpt>
      <trkpt lat="44.15158" lon="5.95939">
        <ele>465.2</ele>
        <time>2021-09-09T11:48:54Z</time>
      </trkpt>
      <trkpt lat="44.15152" lon="5.95951">
        <ele>465</ele>
        <time>2021-09-09T11:48:56Z</time>
      </trkpt>
      <trkpt lat="44.15148" lon="5.95963">
        <ele>464.8</ele>
        <time>2021-09-09T11:48:58Z</time>
      </trkpt>
      <trkpt lat="44.15149" lon="5.95966">
        <ele>464.7</ele>
        <time>2021-09-09T11:49:00Z</time>
      </trkpt>
      <trkpt lat="44.15148" lon="5.95971">
        <ele>464.6</ele>
        <time>2021-09-09T11:49:01Z</time>
      </trkpt>
      <trkpt lat="44.15144" lon="5.95977">
        <ele>464.4</ele>
        <time>2021-09-09T11:49:02Z</time>
      </trkpt>
      <trkpt lat="44.15141" lon="5.95983">
        <ele>464.3</ele>
        <time>2021-09-09T11:49:03Z</time>
      </trkpt>
      <trkpt lat="44.15138" lon="5.95988">
        <ele>464.3</ele>
        <time>2021-09-09T11:49:04Z</time>
      </trkpt>
      <trkpt lat="44.15135" lon="5.95994">
        <ele>464.2</ele>
        <time>2021-09-09T11:49:06Z</time>
      </trkpt>
      <trkpt lat="44.15133" lon="5.96001">
        <ele>464.1</ele>
        <time>2021-09-09T11:49:07Z</time>
      </trkpt>
      <trkpt lat="44.15129" lon="5.96009">
        <ele>464</ele>
        <time>2021-09-09T11:49:08Z</time>
      </trkpt>
      <trkpt lat="44.15125" lon="5.96017">
        <ele>463.8</ele>
        <time>2021-09-09T11:49:10Z</time>
      </trkpt>
      <trkpt lat="44.15123" lon="5.96023">
        <ele>463.6</ele>
        <time>2021-09-09T11:49:11Z</time>
      </trkpt>
      <trkpt lat="44.1512" lon="5.96031">
        <ele>463.5</ele>
        <time>2021-09-09T11:49:12Z</time>
      </trkpt>
      <trkpt lat="44.15114" lon="5.96042">
        <ele>463.3</ele>
        <time>2021-09-09T11:49:14Z</time>
      </trkpt>
      <trkpt lat="44.15109" lon="5.96053">
        <ele>463</ele>
        <time>2021-09-09T11:49:16Z</time>
      </trkpt>
      <trkpt lat="44.15106" lon="5.96059">
        <ele>462.8</ele>
        <time>2021-09-09T11:49:17Z</time>
      </trkpt>
      <trkpt lat="44.15103" lon="5.96065">
        <ele>462.6</ele>
        <time>2021-09-09T11:49:18Z</time>
      </trkpt>
      <trkpt lat="44.15098" lon="5.96079">
        <ele>462.1</ele>
        <time>2021-09-09T11:49:20Z</time>
      </trkpt>
      <trkpt lat="44.15092" lon="5.96092">
        <ele>461.6</ele>
        <time>2021-09-09T11:49:22Z</time>
      </trkpt>
      <trkpt lat="44.15087" lon="5.96105">
        <ele>461.2</ele>
        <time>2021-09-09T11:49:24Z</time>
      </trkpt>
      <trkpt lat="44.15082" lon="5.96115">
        <ele>461.2</ele>
        <time>2021-09-09T11:49:26Z</time>
      </trkpt>
      <trkpt lat="44.15079" lon="5.96119">
        <ele>461.1</ele>
        <time>2021-09-09T11:49:27Z</time>
      </trkpt>
      <trkpt lat="44.15072" lon="5.9613">
        <ele>460.9</ele>
        <time>2021-09-09T11:49:29Z</time>
      </trkpt>
      <trkpt lat="44.1507" lon="5.96133">
        <ele>460.9</ele>
        <time>2021-09-09T11:49:30Z</time>
      </trkpt>
      <trkpt lat="44.15067" lon="5.96139">
        <ele>460.8</ele>
        <time>2021-09-09T11:49:32Z</time>
      </trkpt>
      <trkpt lat="44.15068" lon="5.96138">
        <ele>460.8</ele>
        <time>2021-09-09T11:49:34Z</time>
      </trkpt>
      <trkpt lat="44.15065" lon="5.96143">
        <ele>460.7</ele>
        <time>2021-09-09T11:49:35Z</time>
      </trkpt>
      <trkpt lat="44.1506" lon="5.96149">
        <ele>460.6</ele>
        <time>2021-09-09T11:49:36Z</time>
      </trkpt>
      <trkpt lat="44.15056" lon="5.96158">
        <ele>460.5</ele>
        <time>2021-09-09T11:49:37Z</time>
      </trkpt>
      <trkpt lat="44.1505" lon="5.96167">
        <ele>460.4</ele>
        <time>2021-09-09T11:49:38Z</time>
      </trkpt>
      <trkpt lat="44.15046" lon="5.96174">
        <ele>460.4</ele>
        <time>2021-09-09T11:49:39Z</time>
      </trkpt>
      <trkpt lat="44.1504" lon="5.96184">
        <ele>460.3</ele>
        <time>2021-09-09T11:49:41Z</time>
      </trkpt>
      <trkpt lat="44.15039" lon="5.96185">
        <ele>460.2</ele>
        <time>2021-09-09T11:49:42Z</time>
      </trkpt>
      <trkpt lat="44.15035" lon="5.9619">
        <ele>460.1</ele>
        <time>2021-09-09T11:49:44Z</time>
      </trkpt>
      <trkpt lat="44.15034" lon="5.96197">
        <ele>459.9</ele>
        <time>2021-09-09T11:49:45Z</time>
      </trkpt>
      <trkpt lat="44.15032" lon="5.96204">
        <ele>459.7</ele>
        <time>2021-09-09T11:49:46Z</time>
      </trkpt>
      <trkpt lat="44.15029" lon="5.96212">
        <ele>459.5</ele>
        <time>2021-09-09T11:49:47Z</time>
      </trkpt>
      <trkpt lat="44.15026" lon="5.9622">
        <ele>459.3</ele>
        <time>2021-09-09T11:49:48Z</time>
      </trkpt>
      <trkpt lat="44.15021" lon="5.96232">
        <ele>458.8</ele>
        <time>2021-09-09T11:49:50Z</time>
      </trkpt>
      <trkpt lat="44.15015" lon="5.96243">
        <ele>458.3</ele>
        <time>2021-09-09T11:49:52Z</time>
      </trkpt>
      <trkpt lat="44.15012" lon="5.96249">
        <ele>458.1</ele>
        <time>2021-09-09T11:49:53Z</time>
      </trkpt>
      <trkpt lat="44.1501" lon="5.96252">
        <ele>458</ele>
        <time>2021-09-09T11:49:54Z</time>
      </trkpt>
      <trkpt lat="44.15003" lon="5.9626">
        <ele>457.8</ele>
        <time>2021-09-09T11:49:56Z</time>
      </trkpt>
      <trkpt lat="44.15002" lon="5.96263">
        <ele>457.7</ele>
        <time>2021-09-09T11:49:57Z</time>
      </trkpt>
      <trkpt lat="44.14997" lon="5.96273">
        <ele>457.5</ele>
        <time>2021-09-09T11:49:59Z</time>
      </trkpt>
      <trkpt lat="44.14994" lon="5.96282">
        <ele>457.5</ele>
        <time>2021-09-09T11:50:01Z</time>
      </trkpt>
      <trkpt lat="44.14991" lon="5.96287">
        <ele>457.4</ele>
        <time>2021-09-09T11:50:03Z</time>
      </trkpt>
      <trkpt lat="44.14985" lon="5.96294">
        <ele>457.3</ele>
        <time>2021-09-09T11:50:04Z</time>
      </trkpt>
      <trkpt lat="44.14981" lon="5.96298">
        <ele>457.2</ele>
        <time>2021-09-09T11:50:05Z</time>
      </trkpt>
      <trkpt lat="44.14978" lon="5.963">
        <ele>457.2</ele>
        <time>2021-09-09T11:50:06Z</time>
      </trkpt>
      <trkpt lat="44.14975" lon="5.96303">
        <ele>457.1</ele>
        <time>2021-09-09T11:50:07Z</time>
      </trkpt>
      <trkpt lat="44.14972" lon="5.96304">
        <ele>457</ele>
        <time>2021-09-09T11:50:08Z</time>
      </trkpt>
      <trkpt lat="44.14968" lon="5.96307">
        <ele>456.9</ele>
        <time>2021-09-09T11:50:10Z</time>
      </trkpt>
      <trkpt lat="44.14964" lon="5.96308">
        <ele>456.8</ele>
        <time>2021-09-09T11:50:11Z</time>
      </trkpt>
      <trkpt lat="44.14961" lon="5.9631">
        <ele>456.8</ele>
        <time>2021-09-09T11:50:12Z</time>
      </trkpt>
      <trkpt lat="44.14956" lon="5.96313">
        <ele>456.7</ele>
        <time>2021-09-09T11:50:13Z</time>
      </trkpt>
      <trkpt lat="44.14953" lon="5.96316">
        <ele>456.7</ele>
        <time>2021-09-09T11:50:15Z</time>
      </trkpt>
      <trkpt lat="44.14949" lon="5.9632">
        <ele>456.7</ele>
        <time>2021-09-09T11:50:16Z</time>
      </trkpt>
      <trkpt lat="44.14946" lon="5.96324">
        <ele>456.6</ele>
        <time>2021-09-09T11:50:18Z</time>
      </trkpt>
      <trkpt lat="44.14942" lon="5.96329">
        <ele>456.6</ele>
        <time>2021-09-09T11:50:19Z</time>
      </trkpt>
      <trkpt lat="44.1494" lon="5.96332">
        <ele>456.6</ele>
        <time>2021-09-09T11:50:20Z</time>
      </trkpt>
      <trkpt lat="44.14938" lon="5.96337">
        <ele>456.6</ele>
        <time>2021-09-09T11:50:22Z</time>
      </trkpt>
      <trkpt lat="44.14937" lon="5.96341">
        <ele>456.6</ele>
        <time>2021-09-09T11:50:23Z</time>
      </trkpt>
      <trkpt lat="44.14935" lon="5.96344">
        <ele>456.5</ele>
        <time>2021-09-09T11:50:24Z</time>
      </trkpt>
      <trkpt lat="44.14933" lon="5.96349">
        <ele>456.5</ele>
        <time>2021-09-09T11:50:25Z</time>
      </trkpt>
      <trkpt lat="44.14931" lon="5.96353">
        <ele>456.6</ele>
        <time>2021-09-09T11:50:26Z</time>
      </trkpt>
      <trkpt lat="44.14929" lon="5.96356">
        <ele>456.6</ele>
        <time>2021-09-09T11:50:27Z</time>
      </trkpt>
      <trkpt lat="44.14927" lon="5.9636">
        <ele>456.6</ele>
        <time>2021-09-09T11:50:28Z</time>
      </trkpt>
      <trkpt lat="44.14926" lon="5.96361">
        <ele>456.7</ele>
        <time>2021-09-09T11:50:29Z</time>
      </trkpt>
      <trkpt lat="44.14925" lon="5.96365">
        <ele>456.7</ele>
        <time>2021-09-09T11:50:31Z</time>
      </trkpt>
      <trkpt lat="44.14923" lon="5.96369">
        <ele>456.8</ele>
        <time>2021-09-09T11:50:32Z</time>
      </trkpt>
      <trkpt lat="44.1492" lon="5.96372">
        <ele>456.8</ele>
        <time>2021-09-09T11:50:33Z</time>
      </trkpt>
      <trkpt lat="44.14917" lon="5.96376">
        <ele>456.9</ele>
        <time>2021-09-09T11:50:34Z</time>
      </trkpt>
      <trkpt lat="44.14913" lon="5.9638">
        <ele>456.9</ele>
        <time>2021-09-09T11:50:35Z</time>
      </trkpt>
      <trkpt lat="44.14909" lon="5.96385">
        <ele>456.9</ele>
        <time>2021-09-09T11:50:37Z</time>
      </trkpt>
      <trkpt lat="44.14899" lon="5.96395">
        <ele>456.7</ele>
        <time>2021-09-09T11:50:38Z</time>
      </trkpt>
      <trkpt lat="44.1489" lon="5.96405">
        <ele>456.5</ele>
        <time>2021-09-09T11:50:40Z</time>
      </trkpt>
      <trkpt lat="44.14882" lon="5.96413">
        <ele>456.4</ele>
        <time>2021-09-09T11:50:42Z</time>
      </trkpt>
      <trkpt lat="44.14878" lon="5.96419">
        <ele>456.5</ele>
        <time>2021-09-09T11:50:44Z</time>
      </trkpt>
      <trkpt lat="44.14876" lon="5.96422">
        <ele>456.5</ele>
        <time>2021-09-09T11:50:45Z</time>
      </trkpt>
      <trkpt lat="44.1487" lon="5.96424">
        <ele>456.5</ele>
        <time>2021-09-09T11:50:47Z</time>
      </trkpt>
      <trkpt lat="44.14865" lon="5.96426">
        <ele>456.6</ele>
        <time>2021-09-09T11:50:48Z</time>
      </trkpt>
      <trkpt lat="44.14861" lon="5.96428">
        <ele>456.7</ele>
        <time>2021-09-09T11:50:50Z</time>
      </trkpt>
      <trkpt lat="44.14858" lon="5.9643">
        <ele>456.8</ele>
        <time>2021-09-09T11:50:51Z</time>
      </trkpt>
      <trkpt lat="44.14855" lon="5.96434">
        <ele>456.8</ele>
        <time>2021-09-09T11:50:52Z</time>
      </trkpt>
      <trkpt lat="44.14851" lon="5.96438">
        <ele>456.9</ele>
        <time>2021-09-09T11:50:53Z</time>
      </trkpt>
      <trkpt lat="44.14848" lon="5.9644">
        <ele>456.9</ele>
        <time>2021-09-09T11:50:54Z</time>
      </trkpt>
      <trkpt lat="44.14844" lon="5.96443">
        <ele>456.8</ele>
        <time>2021-09-09T11:50:56Z</time>
      </trkpt>
      <trkpt lat="44.1484" lon="5.96445">
        <ele>456.8</ele>
        <time>2021-09-09T11:50:57Z</time>
      </trkpt>
      <trkpt lat="44.14836" lon="5.96447">
        <ele>456.7</ele>
        <time>2021-09-09T11:50:58Z</time>
      </trkpt>
      <trkpt lat="44.14831" lon="5.96451">
        <ele>456.7</ele>
        <time>2021-09-09T11:50:59Z</time>
      </trkpt>
      <trkpt lat="44.14823" lon="5.96457">
        <ele>456.5</ele>
        <time>2021-09-09T11:51:01Z</time>
      </trkpt>
      <trkpt lat="44.14819" lon="5.96461">
        <ele>456.5</ele>
        <time>2021-09-09T11:51:02Z</time>
      </trkpt>
      <trkpt lat="44.14812" lon="5.96466">
        <ele>456.4</ele>
        <time>2021-09-09T11:51:04Z</time>
      </trkpt>
      <trkpt lat="44.14803" lon="5.96472">
        <ele>456.2</ele>
        <time>2021-09-09T11:51:05Z</time>
      </trkpt>
      <trkpt lat="44.14798" lon="5.96476">
        <ele>456.2</ele>
        <time>2021-09-09T11:51:06Z</time>
      </trkpt>
      <trkpt lat="44.14793" lon="5.96479">
        <ele>456.2</ele>
        <time>2021-09-09T11:51:07Z</time>
      </trkpt>
      <trkpt lat="44.14789" lon="5.96482">
        <ele>456.4</ele>
        <time>2021-09-09T11:51:08Z</time>
      </trkpt>
      <trkpt lat="44.1478" lon="5.96484">
        <ele>456.6</ele>
        <time>2021-09-09T11:51:10Z</time>
      </trkpt>
      <trkpt lat="44.14776" lon="5.96482">
        <ele>456.7</ele>
        <time>2021-09-09T11:51:12Z</time>
      </trkpt>
      <trkpt lat="44.14771" lon="5.96486">
        <ele>456.8</ele>
        <time>2021-09-09T11:51:13Z</time>
      </trkpt>
      <trkpt lat="44.14763" lon="5.96493">
        <ele>457</ele>
        <time>2021-09-09T11:51:15Z</time>
      </trkpt>
      <trkpt lat="44.14758" lon="5.96498">
        <ele>457.2</ele>
        <time>2021-09-09T11:51:17Z</time>
      </trkpt>
      <trkpt lat="44.14755" lon="5.96501">
        <ele>457.3</ele>
        <time>2021-09-09T11:51:18Z</time>
      </trkpt>
      <trkpt lat="44.14751" lon="5.96503">
        <ele>457.4</ele>
        <time>2021-09-09T11:51:19Z</time>
      </trkpt>
      <trkpt lat="44.14748" lon="5.96505">
        <ele>457.5</ele>
        <time>2021-09-09T11:51:20Z</time>
      </trkpt>
      <trkpt lat="44.14742" lon="5.96509">
        <ele>457.6</ele>
        <time>2021-09-09T11:51:22Z</time>
      </trkpt>
      <trkpt lat="44.14737" lon="5.96512">
        <ele>457.6</ele>
        <time>2021-09-09T11:51:23Z</time>
      </trkpt>
      <trkpt lat="44.14732" lon="5.96516">
        <ele>457.4</ele>
        <time>2021-09-09T11:51:25Z</time>
      </trkpt>
      <trkpt lat="44.14727" lon="5.9652">
        <ele>457.2</ele>
        <time>2021-09-09T11:51:26Z</time>
      </trkpt>
      <trkpt lat="44.14722" lon="5.96524">
        <ele>457</ele>
        <time>2021-09-09T11:51:28Z</time>
      </trkpt>
      <trkpt lat="44.14718" lon="5.96526">
        <ele>456.9</ele>
        <time>2021-09-09T11:51:29Z</time>
      </trkpt>
      <trkpt lat="44.14714" lon="5.96528">
        <ele>456.9</ele>
        <time>2021-09-09T11:51:30Z</time>
      </trkpt>
      <trkpt lat="44.1471" lon="5.9653">
        <ele>456.8</ele>
        <time>2021-09-09T11:51:31Z</time>
      </trkpt>
      <trkpt lat="44.14705" lon="5.96533">
        <ele>456.9</ele>
        <time>2021-09-09T11:51:32Z</time>
      </trkpt>
      <trkpt lat="44.147" lon="5.96535">
        <ele>456.9</ele>
        <time>2021-09-09T11:51:33Z</time>
      </trkpt>
      <trkpt lat="44.14692" lon="5.9654">
        <ele>456.8</ele>
        <time>2021-09-09T11:51:35Z</time>
      </trkpt>
      <trkpt lat="44.14688" lon="5.96542">
        <ele>456.6</ele>
        <time>2021-09-09T11:51:36Z</time>
      </trkpt>
      <trkpt lat="44.14684" lon="5.96544">
        <ele>456.4</ele>
        <time>2021-09-09T11:51:37Z</time>
      </trkpt>
      <trkpt lat="44.1468" lon="5.96546">
        <ele>456.3</ele>
        <time>2021-09-09T11:51:38Z</time>
      </trkpt>
      <trkpt lat="44.14672" lon="5.9655">
        <ele>456</ele>
        <time>2021-09-09T11:51:40Z</time>
      </trkpt>
      <trkpt lat="44.14666" lon="5.96553">
        <ele>456</ele>
        <time>2021-09-09T11:51:41Z</time>
      </trkpt>
      <trkpt lat="44.14661" lon="5.96556">
        <ele>456</ele>
        <time>2021-09-09T11:51:42Z</time>
      </trkpt>
      <trkpt lat="44.14652" lon="5.96563">
        <ele>456.1</ele>
        <time>2021-09-09T11:51:44Z</time>
      </trkpt>
      <trkpt lat="44.14644" lon="5.96569">
        <ele>456</ele>
        <time>2021-09-09T11:51:46Z</time>
      </trkpt>
      <trkpt lat="44.14634" lon="5.96575">
        <ele>455.8</ele>
        <time>2021-09-09T11:51:48Z</time>
      </trkpt>
      <trkpt lat="44.14629" lon="5.96579">
        <ele>455.7</ele>
        <time>2021-09-09T11:51:49Z</time>
      </trkpt>
      <trkpt lat="44.14625" lon="5.96583">
        <ele>455.6</ele>
        <time>2021-09-09T11:51:50Z</time>
      </trkpt>
      <trkpt lat="44.1462" lon="5.96587">
        <ele>455.6</ele>
        <time>2021-09-09T11:51:51Z</time>
      </trkpt>
      <trkpt lat="44.1461" lon="5.96593">
        <ele>455.5</ele>
        <time>2021-09-09T11:51:53Z</time>
      </trkpt>
      <trkpt lat="44.14605" lon="5.96597">
        <ele>455.5</ele>
        <time>2021-09-09T11:51:54Z</time>
      </trkpt>
      <trkpt lat="44.14594" lon="5.96604">
        <ele>455.4</ele>
        <time>2021-09-09T11:51:56Z</time>
      </trkpt>
      <trkpt lat="44.14589" lon="5.96608">
        <ele>455.4</ele>
        <time>2021-09-09T11:51:57Z</time>
      </trkpt>
      <trkpt lat="44.14579" lon="5.96616">
        <ele>455.1</ele>
        <time>2021-09-09T11:51:59Z</time>
      </trkpt>
      <trkpt lat="44.14573" lon="5.9662">
        <ele>455</ele>
        <time>2021-09-09T11:52:00Z</time>
      </trkpt>
      <trkpt lat="44.14561" lon="5.96628">
        <ele>454.9</ele>
        <time>2021-09-09T11:52:02Z</time>
      </trkpt>
      <trkpt lat="44.1455" lon="5.96636">
        <ele>454.8</ele>
        <time>2021-09-09T11:52:04Z</time>
      </trkpt>
      <trkpt lat="44.14544" lon="5.9664">
        <ele>454.7</ele>
        <time>2021-09-09T11:52:05Z</time>
      </trkpt>
      <trkpt lat="44.14539" lon="5.96644">
        <ele>454.7</ele>
        <time>2021-09-09T11:52:06Z</time>
      </trkpt>
      <trkpt lat="44.14527" lon="5.96652">
        <ele>454.8</ele>
        <time>2021-09-09T11:52:08Z</time>
      </trkpt>
      <trkpt lat="44.1452" lon="5.96655">
        <ele>454.9</ele>
        <time>2021-09-09T11:52:09Z</time>
      </trkpt>
      <trkpt lat="44.14508" lon="5.96662">
        <ele>454.9</ele>
        <time>2021-09-09T11:52:11Z</time>
      </trkpt>
      <trkpt lat="44.14503" lon="5.96665">
        <ele>454.8</ele>
        <time>2021-09-09T11:52:12Z</time>
      </trkpt>
      <trkpt lat="44.14492" lon="5.96673">
        <ele>454.8</ele>
        <time>2021-09-09T11:52:14Z</time>
      </trkpt>
      <trkpt lat="44.14481" lon="5.96681">
        <ele>454.9</ele>
        <time>2021-09-09T11:52:16Z</time>
      </trkpt>
      <trkpt lat="44.14471" lon="5.96689">
        <ele>455.1</ele>
        <time>2021-09-09T11:52:18Z</time>
      </trkpt>
      <trkpt lat="44.1446" lon="5.96698">
        <ele>455.1</ele>
        <time>2021-09-09T11:52:20Z</time>
      </trkpt>
      <trkpt lat="44.14455" lon="5.96701">
        <ele>455.1</ele>
        <time>2021-09-09T11:52:21Z</time>
      </trkpt>
      <trkpt lat="44.14445" lon="5.96707">
        <ele>455</ele>
        <time>2021-09-09T11:52:23Z</time>
      </trkpt>
      <trkpt lat="44.1444" lon="5.96711">
        <ele>455.1</ele>
        <time>2021-09-09T11:52:24Z</time>
      </trkpt>
      <trkpt lat="44.14431" lon="5.96718">
        <ele>455.2</ele>
        <time>2021-09-09T11:52:26Z</time>
      </trkpt>
      <trkpt lat="44.14426" lon="5.96721">
        <ele>455.2</ele>
        <time>2021-09-09T11:52:27Z</time>
      </trkpt>
      <trkpt lat="44.14417" lon="5.96728">
        <ele>455.2</ele>
        <time>2021-09-09T11:52:29Z</time>
      </trkpt>
      <trkpt lat="44.14413" lon="5.96731">
        <ele>455.2</ele>
        <time>2021-09-09T11:52:30Z</time>
      </trkpt>
      <trkpt lat="44.14404" lon="5.96736">
        <ele>455.1</ele>
        <time>2021-09-09T11:52:32Z</time>
      </trkpt>
      <trkpt lat="44.14399" lon="5.96739">
        <ele>455.1</ele>
        <time>2021-09-09T11:52:33Z</time>
      </trkpt>
      <trkpt lat="44.1439" lon="5.96747">
        <ele>455.2</ele>
        <time>2021-09-09T11:52:35Z</time>
      </trkpt>
      <trkpt lat="44.14381" lon="5.96755">
        <ele>455.1</ele>
        <time>2021-09-09T11:52:37Z</time>
      </trkpt>
      <trkpt lat="44.14376" lon="5.96759">
        <ele>455.1</ele>
        <time>2021-09-09T11:52:38Z</time>
      </trkpt>
      <trkpt lat="44.14367" lon="5.96765">
        <ele>455</ele>
        <time>2021-09-09T11:52:40Z</time>
      </trkpt>
      <trkpt lat="44.14359" lon="5.96769">
        <ele>454.9</ele>
        <time>2021-09-09T11:52:42Z</time>
      </trkpt>
      <trkpt lat="44.1435" lon="5.96773">
        <ele>454.9</ele>
        <time>2021-09-09T11:52:44Z</time>
      </trkpt>
      <trkpt lat="44.1434" lon="5.96779">
        <ele>454.9</ele>
        <time>2021-09-09T11:52:46Z</time>
      </trkpt>
      <trkpt lat="44.14336" lon="5.96783">
        <ele>454.8</ele>
        <time>2021-09-09T11:52:47Z</time>
      </trkpt>
      <trkpt lat="44.14331" lon="5.96787">
        <ele>454.6</ele>
        <time>2021-09-09T11:52:48Z</time>
      </trkpt>
      <trkpt lat="44.14323" lon="5.96794">
        <ele>454.4</ele>
        <time>2021-09-09T11:52:50Z</time>
      </trkpt>
      <trkpt lat="44.14314" lon="5.96804">
        <ele>454.3</ele>
        <time>2021-09-09T11:52:52Z</time>
      </trkpt>
      <trkpt lat="44.1431" lon="5.9681">
        <ele>454.2</ele>
        <time>2021-09-09T11:52:53Z</time>
      </trkpt>
      <trkpt lat="44.14306" lon="5.96816">
        <ele>454.2</ele>
        <time>2021-09-09T11:52:54Z</time>
      </trkpt>
      <trkpt lat="44.14299" lon="5.96826">
        <ele>454.1</ele>
        <time>2021-09-09T11:52:56Z</time>
      </trkpt>
      <trkpt lat="44.14295" lon="5.96831">
        <ele>454</ele>
        <time>2021-09-09T11:52:57Z</time>
      </trkpt>
      <trkpt lat="44.14291" lon="5.96836">
        <ele>454</ele>
        <time>2021-09-09T11:52:58Z</time>
      </trkpt>
      <trkpt lat="44.14288" lon="5.96842">
        <ele>453.9</ele>
        <time>2021-09-09T11:52:59Z</time>
      </trkpt>
      <trkpt lat="44.14285" lon="5.96848">
        <ele>453.9</ele>
        <time>2021-09-09T11:53:00Z</time>
      </trkpt>
      <trkpt lat="44.14283" lon="5.96854">
        <ele>454</ele>
        <time>2021-09-09T11:53:01Z</time>
      </trkpt>
      <trkpt lat="44.1428" lon="5.96864">
        <ele>454</ele>
        <time>2021-09-09T11:53:03Z</time>
      </trkpt>
      <trkpt lat="44.14276" lon="5.96871">
        <ele>454.1</ele>
        <time>2021-09-09T11:53:05Z</time>
      </trkpt>
      <trkpt lat="44.1427" lon="5.96877">
        <ele>454.1</ele>
        <time>2021-09-09T11:53:07Z</time>
      </trkpt>
      <trkpt lat="44.14265" lon="5.96877">
        <ele>454.1</ele>
        <time>2021-09-09T11:53:09Z</time>
      </trkpt>
      <trkpt lat="44.14263" lon="5.96882">
        <ele>454.1</ele>
        <time>2021-09-09T11:53:10Z</time>
      </trkpt>
      <trkpt lat="44.1426" lon="5.96887">
        <ele>454.1</ele>
        <time>2021-09-09T11:53:11Z</time>
      </trkpt>
      <trkpt lat="44.14255" lon="5.96892">
        <ele>454</ele>
        <time>2021-09-09T11:53:13Z</time>
      </trkpt>
      <trkpt lat="44.14249" lon="5.96895">
        <ele>453.9</ele>
        <time>2021-09-09T11:53:14Z</time>
      </trkpt>
      <trkpt lat="44.14245" lon="5.96901">
        <ele>453.9</ele>
        <time>2021-09-09T11:53:16Z</time>
      </trkpt>
      <trkpt lat="44.14236" lon="5.96906">
        <ele>453.8</ele>
        <time>2021-09-09T11:53:17Z</time>
      </trkpt>
      <trkpt lat="44.14226" lon="5.9691">
        <ele>453.9</ele>
        <time>2021-09-09T11:53:19Z</time>
      </trkpt>
      <trkpt lat="44.14221" lon="5.96913">
        <ele>453.9</ele>
        <time>2021-09-09T11:53:21Z</time>
      </trkpt>
      <trkpt lat="44.14216" lon="5.96913">
        <ele>453.9</ele>
        <time>2021-09-09T11:53:22Z</time>
      </trkpt>
      <trkpt lat="44.14208" lon="5.9692">
        <ele>454</ele>
        <time>2021-09-09T11:53:24Z</time>
      </trkpt>
      <trkpt lat="44.14203" lon="5.96926">
        <ele>453.9</ele>
        <time>2021-09-09T11:53:25Z</time>
      </trkpt>
      <trkpt lat="44.14193" lon="5.96933">
        <ele>453.8</ele>
        <time>2021-09-09T11:53:27Z</time>
      </trkpt>
      <trkpt lat="44.14189" lon="5.96936">
        <ele>453.8</ele>
        <time>2021-09-09T11:53:28Z</time>
      </trkpt>
      <trkpt lat="44.14182" lon="5.9694">
        <ele>453.8</ele>
        <time>2021-09-09T11:53:30Z</time>
      </trkpt>
      <trkpt lat="44.14176" lon="5.96944">
        <ele>453.8</ele>
        <time>2021-09-09T11:53:32Z</time>
      </trkpt>
      <trkpt lat="44.1417" lon="5.96947">
        <ele>453.8</ele>
        <time>2021-09-09T11:53:33Z</time>
      </trkpt>
      <trkpt lat="44.14161" lon="5.9695">
        <ele>454</ele>
        <time>2021-09-09T11:53:35Z</time>
      </trkpt>
      <trkpt lat="44.14157" lon="5.96951">
        <ele>454</ele>
        <time>2021-09-09T11:53:36Z</time>
      </trkpt>
      <trkpt lat="44.14154" lon="5.96953">
        <ele>454.1</ele>
        <time>2021-09-09T11:53:37Z</time>
      </trkpt>
      <trkpt lat="44.1415" lon="5.96955">
        <ele>454.1</ele>
        <time>2021-09-09T11:53:38Z</time>
      </trkpt>
      <trkpt lat="44.14146" lon="5.96958">
        <ele>454.1</ele>
        <time>2021-09-09T11:53:39Z</time>
      </trkpt>
      <trkpt lat="44.14142" lon="5.9696">
        <ele>454.2</ele>
        <time>2021-09-09T11:53:41Z</time>
      </trkpt>
      <trkpt lat="44.14137" lon="5.96961">
        <ele>454.3</ele>
        <time>2021-09-09T11:53:42Z</time>
      </trkpt>
      <trkpt lat="44.14129" lon="5.96964">
        <ele>454.3</ele>
        <time>2021-09-09T11:53:43Z</time>
      </trkpt>
      <trkpt lat="44.14126" lon="5.96965">
        <ele>454.3</ele>
        <time>2021-09-09T11:53:44Z</time>
      </trkpt>
      <trkpt lat="44.14122" lon="5.96966">
        <ele>454.4</ele>
        <time>2021-09-09T11:53:46Z</time>
      </trkpt>
      <trkpt lat="44.14118" lon="5.96966">
        <ele>454.4</ele>
        <time>2021-09-09T11:53:47Z</time>
      </trkpt>
      <trkpt lat="44.14114" lon="5.96966">
        <ele>454.4</ele>
        <time>2021-09-09T11:53:48Z</time>
      </trkpt>
      <trkpt lat="44.14111" lon="5.96966">
        <ele>454.5</ele>
        <time>2021-09-09T11:53:49Z</time>
      </trkpt>
      <trkpt lat="44.14107" lon="5.96966">
        <ele>454.6</ele>
        <time>2021-09-09T11:53:50Z</time>
      </trkpt>
      <trkpt lat="44.14104" lon="5.96965">
        <ele>454.6</ele>
        <time>2021-09-09T11:53:51Z</time>
      </trkpt>
      <trkpt lat="44.14101" lon="5.96962">
        <ele>454.7</ele>
        <time>2021-09-09T11:53:52Z</time>
      </trkpt>
      <trkpt lat="44.14098" lon="5.96959">
        <ele>454.8</ele>
        <time>2021-09-09T11:53:53Z</time>
      </trkpt>
      <trkpt lat="44.14097" lon="5.96955">
        <ele>454.9</ele>
        <time>2021-09-09T11:53:54Z</time>
      </trkpt>
      <trkpt lat="44.14094" lon="5.9695">
        <ele>455.1</ele>
        <time>2021-09-09T11:53:56Z</time>
      </trkpt>
      <trkpt lat="44.14092" lon="5.96946">
        <ele>455.2</ele>
        <time>2021-09-09T11:53:57Z</time>
      </trkpt>
      <trkpt lat="44.14089" lon="5.96942">
        <ele>455.3</ele>
        <time>2021-09-09T11:53:58Z</time>
      </trkpt>
      <trkpt lat="44.14088" lon="5.96942">
        <ele>455.4</ele>
        <time>2021-09-09T11:53:59Z</time>
      </trkpt>
      <trkpt lat="44.14086" lon="5.96942">
        <ele>455.4</ele>
        <time>2021-09-09T11:54:00Z</time>
      </trkpt>
      <trkpt lat="44.14083" lon="5.96948">
        <ele>455.6</ele>
        <time>2021-09-09T11:54:02Z</time>
      </trkpt>
      <trkpt lat="44.14079" lon="5.96952">
        <ele>455.7</ele>
        <time>2021-09-09T11:54:03Z</time>
      </trkpt>
      <trkpt lat="44.14075" lon="5.96956">
        <ele>455.7</ele>
        <time>2021-09-09T11:54:05Z</time>
      </trkpt>
      <trkpt lat="44.14071" lon="5.96961">
        <ele>455.7</ele>
        <time>2021-09-09T11:54:06Z</time>
      </trkpt>
      <trkpt lat="44.14067" lon="5.96965">
        <ele>455.6</ele>
        <time>2021-09-09T11:54:08Z</time>
      </trkpt>
      <trkpt lat="44.14063" lon="5.96969">
        <ele>455.6</ele>
        <time>2021-09-09T11:54:09Z</time>
      </trkpt>
      <trkpt lat="44.14058" lon="5.96974">
        <ele>455.6</ele>
        <time>2021-09-09T11:55:34Z</time>
      </trkpt>
      <trkpt lat="44.14054" lon="5.96978">
        <ele>455.6</ele>
        <time>2021-09-09T11:55:35Z</time>
      </trkpt>
      <trkpt lat="44.14046" lon="5.96981">
        <ele>455.6</ele>
        <time>2021-09-09T11:55:36Z</time>
      </trkpt>
      <trkpt lat="44.14039" lon="5.96983">
        <ele>455.6</ele>
        <time>2021-09-09T11:55:38Z</time>
      </trkpt>
      <trkpt lat="44.14033" lon="5.96985">
        <ele>455.6</ele>
        <time>2021-09-09T11:55:39Z</time>
      </trkpt>
      <trkpt lat="44.1402" lon="5.96989">
        <ele>455.6</ele>
        <time>2021-09-09T11:55:40Z</time>
      </trkpt>
      <trkpt lat="44.14015" lon="5.96991">
        <ele>455.6</ele>
        <time>2021-09-09T11:55:41Z</time>
      </trkpt>
      <trkpt lat="44.14005" lon="5.96997">
        <ele>455.6</ele>
        <time>2021-09-09T11:55:43Z</time>
      </trkpt>
      <trkpt lat="44.14" lon="5.97">
        <ele>455.5</ele>
        <time>2021-09-09T11:55:44Z</time>
      </trkpt>
      <trkpt lat="44.13993" lon="5.97005">
        <ele>455.4</ele>
        <time>2021-09-09T11:55:46Z</time>
      </trkpt>
      <trkpt lat="44.13989" lon="5.97008">
        <ele>455.4</ele>
        <time>2021-09-09T11:55:47Z</time>
      </trkpt>
      <trkpt lat="44.13984" lon="5.97011">
        <ele>455.3</ele>
        <time>2021-09-09T11:55:48Z</time>
      </trkpt>
      <trkpt lat="44.13975" lon="5.97017">
        <ele>455.2</ele>
        <time>2021-09-09T11:55:50Z</time>
      </trkpt>
      <trkpt lat="44.13966" lon="5.97023">
        <ele>455.2</ele>
        <time>2021-09-09T11:55:52Z</time>
      </trkpt>
      <trkpt lat="44.13961" lon="5.97026">
        <ele>455.1</ele>
        <time>2021-09-09T11:55:53Z</time>
      </trkpt>
      <trkpt lat="44.13957" lon="5.97028">
        <ele>455.1</ele>
        <time>2021-09-09T11:55:54Z</time>
      </trkpt>
      <trkpt lat="44.13952" lon="5.9703">
        <ele>455.1</ele>
        <time>2021-09-09T11:55:55Z</time>
      </trkpt>
      <trkpt lat="44.13948" lon="5.97034">
        <ele>455.1</ele>
        <time>2021-09-09T11:55:56Z</time>
      </trkpt>
      <trkpt lat="44.13943" lon="5.97039">
        <ele>455</ele>
        <time>2021-09-09T11:55:57Z</time>
      </trkpt>
      <trkpt lat="44.13935" lon="5.97049">
        <ele>454.8</ele>
        <time>2021-09-09T11:55:59Z</time>
      </trkpt>
      <trkpt lat="44.13929" lon="5.97053">
        <ele>454.6</ele>
        <time>2021-09-09T11:56:00Z</time>
      </trkpt>
      <trkpt lat="44.13919" lon="5.9706">
        <ele>454.3</ele>
        <time>2021-09-09T11:56:02Z</time>
      </trkpt>
      <trkpt lat="44.13913" lon="5.97064">
        <ele>454.2</ele>
        <time>2021-09-09T11:56:03Z</time>
      </trkpt>
      <trkpt lat="44.13902" lon="5.97072">
        <ele>454.3</ele>
        <time>2021-09-09T11:56:05Z</time>
      </trkpt>
      <trkpt lat="44.13896" lon="5.97076">
        <ele>454.3</ele>
        <time>2021-09-09T11:56:06Z</time>
      </trkpt>
      <trkpt lat="44.13886" lon="5.97085">
        <ele>454</ele>
        <time>2021-09-09T11:56:08Z</time>
      </trkpt>
      <trkpt lat="44.13875" lon="5.97094">
        <ele>453.9</ele>
        <time>2021-09-09T11:56:10Z</time>
      </trkpt>
      <trkpt lat="44.13865" lon="5.97102">
        <ele>453.8</ele>
        <time>2021-09-09T11:56:12Z</time>
      </trkpt>
      <trkpt lat="44.13861" lon="5.97107">
        <ele>453.8</ele>
        <time>2021-09-09T11:56:13Z</time>
      </trkpt>
      <trkpt lat="44.13853" lon="5.97117">
        <ele>453.8</ele>
        <time>2021-09-09T11:56:15Z</time>
      </trkpt>
      <trkpt lat="44.13849" lon="5.97122">
        <ele>453.7</ele>
        <time>2021-09-09T11:56:16Z</time>
      </trkpt>
      <trkpt lat="44.13842" lon="5.97129">
        <ele>453.7</ele>
        <time>2021-09-09T11:56:18Z</time>
      </trkpt>
      <trkpt lat="44.13838" lon="5.97132">
        <ele>453.7</ele>
        <time>2021-09-09T11:56:19Z</time>
      </trkpt>
      <trkpt lat="44.13835" lon="5.97134">
        <ele>453.7</ele>
        <time>2021-09-09T11:56:20Z</time>
      </trkpt>
      <trkpt lat="44.1383" lon="5.97135">
        <ele>453.7</ele>
        <time>2021-09-09T11:56:22Z</time>
      </trkpt>
      <trkpt lat="44.13827" lon="5.97136">
        <ele>453.7</ele>
        <time>2021-09-09T11:56:23Z</time>
      </trkpt>
      <trkpt lat="44.13825" lon="5.97137">
        <ele>453.8</ele>
        <time>2021-09-09T11:56:24Z</time>
      </trkpt>
      <trkpt lat="44.13821" lon="5.97137">
        <ele>453.8</ele>
        <time>2021-09-09T11:56:26Z</time>
      </trkpt>
      <trkpt lat="44.13818" lon="5.97138">
        <ele>453.8</ele>
        <time>2021-09-09T11:56:27Z</time>
      </trkpt>
      <trkpt lat="44.13816" lon="5.97139">
        <ele>453.9</ele>
        <time>2021-09-09T11:56:29Z</time>
      </trkpt>
      <trkpt lat="44.13814" lon="5.9714">
        <ele>453.9</ele>
        <time>2021-09-09T11:56:30Z</time>
      </trkpt>
      <trkpt lat="44.13812" lon="5.9714">
        <ele>453.9</ele>
        <time>2021-09-09T11:56:31Z</time>
      </trkpt>
      <trkpt lat="44.1381" lon="5.97142">
        <ele>454</ele>
        <time>2021-09-09T11:56:32Z</time>
      </trkpt>
      <trkpt lat="44.13808" lon="5.97144">
        <ele>454.1</ele>
        <time>2021-09-09T11:56:34Z</time>
      </trkpt>
      <trkpt lat="44.13805" lon="5.97148">
        <ele>454.2</ele>
        <time>2021-09-09T11:56:35Z</time>
      </trkpt>
      <trkpt lat="44.13804" lon="5.97152">
        <ele>454.4</ele>
        <time>2021-09-09T11:56:36Z</time>
      </trkpt>
      <trkpt lat="44.13803" lon="5.97156">
        <ele>454.5</ele>
        <time>2021-09-09T11:56:38Z</time>
      </trkpt>
      <trkpt lat="44.13801" lon="5.9716">
        <ele>454.6</ele>
        <time>2021-09-09T11:56:39Z</time>
      </trkpt>
      <trkpt lat="44.13798" lon="5.97162">
        <ele>454.7</ele>
        <time>2021-09-09T11:56:40Z</time>
      </trkpt>
      <trkpt lat="44.13794" lon="5.97166">
        <ele>454.9</ele>
        <time>2021-09-09T11:56:41Z</time>
      </trkpt>
      <trkpt lat="44.13792" lon="5.97167">
        <ele>454.9</ele>
        <time>2021-09-09T11:56:42Z</time>
      </trkpt>
      <trkpt lat="44.13789" lon="5.97168">
        <ele>455</ele>
        <time>2021-09-09T11:56:44Z</time>
      </trkpt>
      <trkpt lat="44.13787" lon="5.97169">
        <ele>455.1</ele>
        <time>2021-09-09T11:56:45Z</time>
      </trkpt>
      <trkpt lat="44.13786" lon="5.97169">
        <ele>455.1</ele>
        <time>2021-09-09T11:56:46Z</time>
      </trkpt>
      <trkpt lat="44.13783" lon="5.97172">
        <ele>455.2</ele>
        <time>2021-09-09T11:56:48Z</time>
      </trkpt>
      <trkpt lat="44.13782" lon="5.97173">
        <ele>455.3</ele>
        <time>2021-09-09T11:56:49Z</time>
      </trkpt>
      <trkpt lat="44.1378" lon="5.97177">
        <ele>455.3</ele>
        <time>2021-09-09T11:56:50Z</time>
      </trkpt>
      <trkpt lat="44.1378" lon="5.97178">
        <ele>455.4</ele>
        <time>2021-09-09T11:56:51Z</time>
      </trkpt>
      <trkpt lat="44.13779" lon="5.9718">
        <ele>455.4</ele>
        <time>2021-09-09T11:56:52Z</time>
      </trkpt>
      <trkpt lat="44.13777" lon="5.97181">
        <ele>455.5</ele>
        <time>2021-09-09T11:56:54Z</time>
      </trkpt>
      <trkpt lat="44.13775" lon="5.97184">
        <ele>455.5</ele>
        <time>2021-09-09T11:56:55Z</time>
      </trkpt>
      <trkpt lat="44.13774" lon="5.97186">
        <ele>455.6</ele>
        <time>2021-09-09T11:56:56Z</time>
      </trkpt>
      <trkpt lat="44.13772" lon="5.9719">
        <ele>455.6</ele>
        <time>2021-09-09T11:56:57Z</time>
      </trkpt>
      <trkpt lat="44.13772" lon="5.97194">
        <ele>455.7</ele>
        <time>2021-09-09T11:56:58Z</time>
      </trkpt>
      <trkpt lat="44.13771" lon="5.97201">
        <ele>455.8</ele>
        <time>2021-09-09T11:57:00Z</time>
      </trkpt>
      <trkpt lat="44.1377" lon="5.97206">
        <ele>455.8</ele>
        <time>2021-09-09T11:57:01Z</time>
      </trkpt>
      <trkpt lat="44.1377" lon="5.97207">
        <ele>455.8</ele>
        <time>2021-09-09T11:57:02Z</time>
      </trkpt>
      <trkpt lat="44.13769" lon="5.97211">
        <ele>455.8</ele>
        <time>2021-09-09T11:57:03Z</time>
      </trkpt>
      <trkpt lat="44.13769" lon="5.97212">
        <ele>455.8</ele>
        <time>2021-09-09T11:57:04Z</time>
      </trkpt>
      <trkpt lat="44.13769" lon="5.97217">
        <ele>455.7</ele>
        <time>2021-09-09T11:57:06Z</time>
      </trkpt>
      <trkpt lat="44.13768" lon="5.97221">
        <ele>455.7</ele>
        <time>2021-09-09T11:57:07Z</time>
      </trkpt>
      <trkpt lat="44.13767" lon="5.97228">
        <ele>455.6</ele>
        <time>2021-09-09T11:57:09Z</time>
      </trkpt>
      <trkpt lat="44.13766" lon="5.97235">
        <ele>455.5</ele>
        <time>2021-09-09T11:57:11Z</time>
      </trkpt>
      <trkpt lat="44.13764" lon="5.97242">
        <ele>455.4</ele>
        <time>2021-09-09T11:57:12Z</time>
      </trkpt>
      <trkpt lat="44.13761" lon="5.97249">
        <ele>455.3</ele>
        <time>2021-09-09T11:57:14Z</time>
      </trkpt>
      <trkpt lat="44.13759" lon="5.97256">
        <ele>455.2</ele>
        <time>2021-09-09T11:57:15Z</time>
      </trkpt>
      <trkpt lat="44.13757" lon="5.9726">
        <ele>455.2</ele>
        <time>2021-09-09T11:57:16Z</time>
      </trkpt>
      <trkpt lat="44.13753" lon="5.97267">
        <ele>455.3</ele>
        <time>2021-09-09T11:57:18Z</time>
      </trkpt>
      <trkpt lat="44.1375" lon="5.97273">
        <ele>455.4</ele>
        <time>2021-09-09T11:57:20Z</time>
      </trkpt>
      <trkpt lat="44.13747" lon="5.97279">
        <ele>455.6</ele>
        <time>2021-09-09T11:57:22Z</time>
      </trkpt>
      <trkpt lat="44.13746" lon="5.97282">
        <ele>455.7</ele>
        <time>2021-09-09T11:57:23Z</time>
      </trkpt>
      <trkpt lat="44.13744" lon="5.97284">
        <ele>455.7</ele>
        <time>2021-09-09T11:57:25Z</time>
      </trkpt>
      <trkpt lat="44.13742" lon="5.97287">
        <ele>455.8</ele>
        <time>2021-09-09T11:57:26Z</time>
      </trkpt>
      <trkpt lat="44.1374" lon="5.97289">
        <ele>455.9</ele>
        <time>2021-09-09T11:57:27Z</time>
      </trkpt>
      <trkpt lat="44.13738" lon="5.9729">
        <ele>456</ele>
        <time>2021-09-09T11:57:28Z</time>
      </trkpt>
      <trkpt lat="44.13735" lon="5.97291">
        <ele>456.1</ele>
        <time>2021-09-09T11:57:29Z</time>
      </trkpt>
      <trkpt lat="44.13734" lon="5.97292">
        <ele>456.2</ele>
        <time>2021-09-09T11:57:30Z</time>
      </trkpt>
      <trkpt lat="44.13729" lon="5.97295">
        <ele>456.4</ele>
        <time>2021-09-09T11:57:32Z</time>
      </trkpt>
      <trkpt lat="44.13727" lon="5.97295">
        <ele>456.5</ele>
        <time>2021-09-09T11:57:33Z</time>
      </trkpt>
      <trkpt lat="44.13724" lon="5.97296">
        <ele>456.7</ele>
        <time>2021-09-09T11:57:35Z</time>
      </trkpt>
      <trkpt lat="44.13723" lon="5.97295">
        <ele>456.8</ele>
        <time>2021-09-09T11:57:36Z</time>
      </trkpt>
      <trkpt lat="44.13721" lon="5.97295">
        <ele>456.9</ele>
        <time>2021-09-09T11:57:37Z</time>
      </trkpt>
      <trkpt lat="44.13717" lon="5.97297">
        <ele>457.1</ele>
        <time>2021-09-09T11:57:39Z</time>
      </trkpt>
      <trkpt lat="44.13714" lon="5.97302">
        <ele>457.2</ele>
        <time>2021-09-09T11:57:41Z</time>
      </trkpt>
      <trkpt lat="44.13709" lon="5.97305">
        <ele>457.4</ele>
        <time>2021-09-09T11:57:43Z</time>
      </trkpt>
      <trkpt lat="44.13707" lon="5.97307">
        <ele>457.4</ele>
        <time>2021-09-09T11:57:44Z</time>
      </trkpt>
      <trkpt lat="44.13704" lon="5.9731">
        <ele>457.4</ele>
        <time>2021-09-09T11:57:46Z</time>
      </trkpt>
      <trkpt lat="44.137" lon="5.97316">
        <ele>457.4</ele>
        <time>2021-09-09T11:57:47Z</time>
      </trkpt>
      <trkpt lat="44.13695" lon="5.97322">
        <ele>457.4</ele>
        <time>2021-09-09T11:57:49Z</time>
      </trkpt>
      <trkpt lat="44.13692" lon="5.97325">
        <ele>457.4</ele>
        <time>2021-09-09T11:57:50Z</time>
      </trkpt>
      <trkpt lat="44.1369" lon="5.97328">
        <ele>457.4</ele>
        <time>2021-09-09T11:57:51Z</time>
      </trkpt>
      <trkpt lat="44.13685" lon="5.97337">
        <ele>457.4</ele>
        <time>2021-09-09T11:57:53Z</time>
      </trkpt>
      <trkpt lat="44.13681" lon="5.97344">
        <ele>457.3</ele>
        <time>2021-09-09T11:57:54Z</time>
      </trkpt>
      <trkpt lat="44.13675" lon="5.97352">
        <ele>457.2</ele>
        <time>2021-09-09T11:57:56Z</time>
      </trkpt>
      <trkpt lat="44.13673" lon="5.97356">
        <ele>457.2</ele>
        <time>2021-09-09T11:57:58Z</time>
      </trkpt>
      <trkpt lat="44.13669" lon="5.97362">
        <ele>457.1</ele>
        <time>2021-09-09T11:58:00Z</time>
      </trkpt>
      <trkpt lat="44.13665" lon="5.97368">
        <ele>457</ele>
        <time>2021-09-09T11:58:01Z</time>
      </trkpt>
      <trkpt lat="44.13663" lon="5.97372">
        <ele>457</ele>
        <time>2021-09-09T11:58:02Z</time>
      </trkpt>
      <trkpt lat="44.13659" lon="5.97381">
        <ele>456.9</ele>
        <time>2021-09-09T11:58:04Z</time>
      </trkpt>
      <trkpt lat="44.13655" lon="5.97387">
        <ele>456.9</ele>
        <time>2021-09-09T11:58:06Z</time>
      </trkpt>
      <trkpt lat="44.13649" lon="5.97394">
        <ele>456.8</ele>
        <time>2021-09-09T11:58:08Z</time>
      </trkpt>
      <trkpt lat="44.13645" lon="5.97401">
        <ele>456.8</ele>
        <time>2021-09-09T11:58:09Z</time>
      </trkpt>
      <trkpt lat="44.13642" lon="5.97406">
        <ele>456.7</ele>
        <time>2021-09-09T11:58:10Z</time>
      </trkpt>
      <trkpt lat="44.13638" lon="5.97412">
        <ele>456.7</ele>
        <time>2021-09-09T11:58:12Z</time>
      </trkpt>
      <trkpt lat="44.13633" lon="5.9742">
        <ele>456.6</ele>
        <time>2021-09-09T11:58:13Z</time>
      </trkpt>
      <trkpt lat="44.13631" lon="5.97425">
        <ele>456.5</ele>
        <time>2021-09-09T11:58:14Z</time>
      </trkpt>
      <trkpt lat="44.13628" lon="5.97432">
        <ele>456.5</ele>
        <time>2021-09-09T11:58:16Z</time>
      </trkpt>
      <trkpt lat="44.13626" lon="5.97437">
        <ele>456.4</ele>
        <time>2021-09-09T11:58:17Z</time>
      </trkpt>
      <trkpt lat="44.13624" lon="5.97443">
        <ele>456.4</ele>
        <time>2021-09-09T11:58:18Z</time>
      </trkpt>
      <trkpt lat="44.13622" lon="5.9745">
        <ele>456.4</ele>
        <time>2021-09-09T11:58:20Z</time>
      </trkpt>
      <trkpt lat="44.13621" lon="5.97455">
        <ele>456.3</ele>
        <time>2021-09-09T11:58:21Z</time>
      </trkpt>
      <trkpt lat="44.13618" lon="5.97462">
        <ele>456.2</ele>
        <time>2021-09-09T11:58:22Z</time>
      </trkpt>
      <trkpt lat="44.13617" lon="5.97467">
        <ele>456.2</ele>
        <time>2021-09-09T11:58:23Z</time>
      </trkpt>
      <trkpt lat="44.13617" lon="5.97471">
        <ele>456.1</ele>
        <time>2021-09-09T11:58:24Z</time>
      </trkpt>
      <trkpt lat="44.13616" lon="5.97476">
        <ele>456</ele>
        <time>2021-09-09T11:58:26Z</time>
      </trkpt>
      <trkpt lat="44.13615" lon="5.97482">
        <ele>455.8</ele>
        <time>2021-09-09T11:58:27Z</time>
      </trkpt>
      <trkpt lat="44.13612" lon="5.97487">
        <ele>455.7</ele>
        <time>2021-09-09T11:58:28Z</time>
      </trkpt>
      <trkpt lat="44.1361" lon="5.97492">
        <ele>455.5</ele>
        <time>2021-09-09T11:58:29Z</time>
      </trkpt>
      <trkpt lat="44.13608" lon="5.97497">
        <ele>455.3</ele>
        <time>2021-09-09T11:58:30Z</time>
      </trkpt>
      <trkpt lat="44.13604" lon="5.97503">
        <ele>454.9</ele>
        <time>2021-09-09T11:58:32Z</time>
      </trkpt>
      <trkpt lat="44.136" lon="5.97509">
        <ele>454.6</ele>
        <time>2021-09-09T11:58:33Z</time>
      </trkpt>
      <trkpt lat="44.13596" lon="5.97515">
        <ele>454.1</ele>
        <time>2021-09-09T11:58:34Z</time>
      </trkpt>
      <trkpt lat="44.13587" lon="5.97525">
        <ele>453.2</ele>
        <time>2021-09-09T11:58:35Z</time>
      </trkpt>
      <trkpt lat="44.13583" lon="5.97533">
        <ele>452.4</ele>
        <time>2021-09-09T11:58:36Z</time>
      </trkpt>
      <trkpt lat="44.13578" lon="5.97548">
        <ele>451</ele>
        <time>2021-09-09T11:58:38Z</time>
      </trkpt>
      <trkpt lat="44.13573" lon="5.97564">
        <ele>449.8</ele>
        <time>2021-09-09T11:58:40Z</time>
      </trkpt>
      <trkpt lat="44.13568" lon="5.97579">
        <ele>449</ele>
        <time>2021-09-09T11:58:42Z</time>
      </trkpt>
      <trkpt lat="44.13567" lon="5.97587">
        <ele>448.8</ele>
        <time>2021-09-09T11:58:44Z</time>
      </trkpt>
      <trkpt lat="44.13566" lon="5.97592">
        <ele>448.8</ele>
        <time>2021-09-09T11:58:45Z</time>
      </trkpt>
      <trkpt lat="44.13564" lon="5.97597">
        <ele>448.8</ele>
        <time>2021-09-09T11:58:46Z</time>
      </trkpt>
      <trkpt lat="44.13563" lon="5.97602">
        <ele>448.7</ele>
        <time>2021-09-09T11:58:48Z</time>
      </trkpt>
      <trkpt lat="44.13562" lon="5.97606">
        <ele>448.7</ele>
        <time>2021-09-09T11:58:49Z</time>
      </trkpt>
      <trkpt lat="44.13559" lon="5.97613">
        <ele>448.5</ele>
        <time>2021-09-09T11:58:50Z</time>
      </trkpt>
      <trkpt lat="44.13554" lon="5.97618">
        <ele>448.3</ele>
        <time>2021-09-09T11:58:52Z</time>
      </trkpt>
      <trkpt lat="44.1355" lon="5.9762">
        <ele>448.1</ele>
        <time>2021-09-09T11:58:53Z</time>
      </trkpt>
      <trkpt lat="44.13545" lon="5.97621">
        <ele>446.6</ele>
        <time>2021-09-09T11:58:54Z</time>
      </trkpt>
      <trkpt lat="44.1354" lon="5.97622">
        <ele>446.4</ele>
        <time>2021-09-09T11:58:55Z</time>
      </trkpt>
      <trkpt lat="44.13534" lon="5.97619">
        <ele>446</ele>
        <time>2021-09-09T11:58:57Z</time>
      </trkpt>
      <trkpt lat="44.13526" lon="5.97615">
        <ele>445.5</ele>
        <time>2021-09-09T11:58:58Z</time>
      </trkpt>
      <trkpt lat="44.13518" lon="5.97605">
        <ele>445</ele>
        <time>2021-09-09T11:58:59Z</time>
      </trkpt>
      <trkpt lat="44.13513" lon="5.97603">
        <ele>444.9</ele>
        <time>2021-09-09T11:59:00Z</time>
      </trkpt>
      <trkpt lat="44.13509" lon="5.97601">
        <ele>445</ele>
        <time>2021-09-09T11:59:01Z</time>
      </trkpt>
      <trkpt lat="44.13506" lon="5.97601">
        <ele>445</ele>
        <time>2021-09-09T11:59:02Z</time>
      </trkpt>
      <trkpt lat="44.1351" lon="5.97601">
        <ele>445.2</ele>
        <time>2021-09-09T11:59:04Z</time>
      </trkpt>
      <trkpt lat="44.13504" lon="5.97607">
        <ele>445.7</ele>
        <time>2021-09-09T11:59:06Z</time>
      </trkpt>
      <trkpt lat="44.13497" lon="5.97615">
        <ele>446.3</ele>
        <time>2021-09-09T11:59:08Z</time>
      </trkpt>
      <trkpt lat="44.13493" lon="5.9762">
        <ele>446.4</ele>
        <time>2021-09-09T11:59:09Z</time>
      </trkpt>
      <trkpt lat="44.1349" lon="5.97623">
        <ele>446.3</ele>
        <time>2021-09-09T11:59:10Z</time>
      </trkpt>
      <trkpt lat="44.13489" lon="5.97624">
        <ele>446.3</ele>
        <time>2021-09-09T11:59:11Z</time>
      </trkpt>
      <trkpt lat="44.13487" lon="5.97626">
        <ele>446.2</ele>
        <time>2021-09-09T11:59:12Z</time>
      </trkpt>
      <trkpt lat="44.13484" lon="5.97626">
        <ele>446.1</ele>
        <time>2021-09-09T11:59:14Z</time>
      </trkpt>
      <trkpt lat="44.1348" lon="5.97627">
        <ele>445.9</ele>
        <time>2021-09-09T11:59:16Z</time>
      </trkpt>
      <trkpt lat="44.13479" lon="5.97626">
        <ele>445.8</ele>
        <time>2021-09-09T11:59:18Z</time>
      </trkpt>
      <trkpt lat="44.13478" lon="5.97626">
        <ele>446</ele>
        <time>2021-09-09T11:59:19Z</time>
      </trkpt>
      <trkpt lat="44.13477" lon="5.97625">
        <ele>446.1</ele>
        <time>2021-09-09T11:59:20Z</time>
      </trkpt>
      <trkpt lat="44.13476" lon="5.97624">
        <ele>446.2</ele>
        <time>2021-09-09T11:59:21Z</time>
      </trkpt>
      <trkpt lat="44.13474" lon="5.97623">
        <ele>446.3</ele>
        <time>2021-09-09T11:59:22Z</time>
      </trkpt>
      <trkpt lat="44.13444" lon="5.97599">
        <ele>448.1</ele>
        <time>2021-09-09T12:01:23Z</time>
      </trkpt>
      <trkpt lat="44.13444" lon="5.97597">
        <ele>448.1</ele>
        <time>2021-09-09T12:01:24Z</time>
      </trkpt>
      <trkpt lat="44.13443" lon="5.97593">
        <ele>448.3</ele>
        <time>2021-09-09T12:01:26Z</time>
      </trkpt>
      <trkpt lat="44.13443" lon="5.97591">
        <ele>448.4</ele>
        <time>2021-09-09T12:01:27Z</time>
      </trkpt>
      <trkpt lat="44.13442" lon="5.9759">
        <ele>448.5</ele>
        <time>2021-09-09T12:01:28Z</time>
      </trkpt>
      <trkpt lat="44.13443" lon="5.9759">
        <ele>448.5</ele>
        <time>2021-09-09T12:01:30Z</time>
      </trkpt>
      <trkpt lat="44.13443" lon="5.9759">
        <ele>448.6</ele>
        <time>2021-09-09T12:01:31Z</time>
      </trkpt>
      <trkpt lat="44.13443" lon="5.9759">
        <ele>448.6</ele>
        <time>2021-09-09T12:01:32Z</time>
      </trkpt>
      <trkpt lat="44.13443" lon="5.97589">
        <ele>448.6</ele>
        <time>2021-09-09T12:01:33Z</time>
      </trkpt>
      <trkpt lat="44.13442" lon="5.97589">
        <ele>448.7</ele>
        <time>2021-09-09T12:01:35Z</time>
      </trkpt>
      <trkpt lat="44.13441" lon="5.97588">
        <ele>448.8</ele>
        <time>2021-09-09T12:01:36Z</time>
      </trkpt>
      <trkpt lat="44.1344" lon="5.97587">
        <ele>448.9</ele>
        <time>2021-09-09T12:01:38Z</time>
      </trkpt>
      <trkpt lat="44.13439" lon="5.97586">
        <ele>449</ele>
        <time>2021-09-09T12:01:39Z</time>
      </trkpt>
      <trkpt lat="44.13438" lon="5.97585">
        <ele>449.1</ele>
        <time>2021-09-09T12:01:40Z</time>
      </trkpt>
      <trkpt lat="44.13438" lon="5.97585">
        <ele>449.1</ele>
        <time>2021-09-09T12:01:41Z</time>
      </trkpt>
      <trkpt lat="44.13433" lon="5.9758">
        <ele>449.3</ele>
        <time>2021-09-09T12:01:45Z</time>
      </trkpt>
      <trkpt lat="44.13432" lon="5.9758">
        <ele>449.4</ele>
        <time>2021-09-09T12:01:46Z</time>
      </trkpt>
      <trkpt lat="44.1343" lon="5.9758">
        <ele>449.5</ele>
        <time>2021-09-09T12:01:47Z</time>
      </trkpt>
      <trkpt lat="44.13429" lon="5.9758">
        <ele>449.6</ele>
        <time>2021-09-09T12:01:48Z</time>
      </trkpt>
      <trkpt lat="44.13428" lon="5.97579">
        <ele>449.7</ele>
        <time>2021-09-09T12:01:50Z</time>
      </trkpt>
      <trkpt lat="44.13427" lon="5.97578">
        <ele>449.8</ele>
        <time>2021-09-09T12:01:51Z</time>
      </trkpt>
      <trkpt lat="44.13426" lon="5.97577">
        <ele>449.8</ele>
        <time>2021-09-09T12:01:53Z</time>
      </trkpt>
      <trkpt lat="44.13426" lon="5.97577">
        <ele>449.9</ele>
        <time>2021-09-09T12:01:54Z</time>
      </trkpt>
      <trkpt lat="44.13426" lon="5.97577">
        <ele>449.9</ele>
        <time>2021-09-09T12:01:55Z</time>
      </trkpt>
      <trkpt lat="44.13426" lon="5.97576">
        <ele>449.9</ele>
        <time>2021-09-09T12:01:57Z</time>
      </trkpt>
      <trkpt lat="44.13426" lon="5.97576">
        <ele>450</ele>
        <time>2021-09-09T12:01:58Z</time>
      </trkpt>
      <trkpt lat="44.13426" lon="5.97576">
        <ele>450</ele>
        <time>2021-09-09T12:01:59Z</time>
      </trkpt>
      <trkpt lat="44.13426" lon="5.97576">
        <ele>450</ele>
        <time>2021-09-09T12:02:00Z</time>
      </trkpt>
      <trkpt lat="44.13426" lon="5.97576">
        <ele>450.1</ele>
        <time>2021-09-09T12:02:02Z</time>
      </trkpt>
      <trkpt lat="44.13426" lon="5.97576">
        <ele>450.1</ele>
        <time>2021-09-09T12:02:04Z</time>
      </trkpt>
      <trkpt lat="44.13428" lon="5.97583">
        <ele>450</ele>
        <time>2021-09-09T12:03:32Z</time>
      </trkpt>
      <trkpt lat="44.13432" lon="5.97591">
        <ele>449.7</ele>
        <time>2021-09-09T12:03:34Z</time>
      </trkpt>
      <trkpt lat="44.13433" lon="5.97596">
        <ele>449.6</ele>
        <time>2021-09-09T12:03:35Z</time>
      </trkpt>
      <trkpt lat="44.13435" lon="5.976">
        <ele>449.5</ele>
        <time>2021-09-09T12:03:36Z</time>
      </trkpt>
      <trkpt lat="44.13436" lon="5.97604">
        <ele>449.4</ele>
        <time>2021-09-09T12:03:37Z</time>
      </trkpt>
      <trkpt lat="44.13438" lon="5.97611">
        <ele>449.2</ele>
        <time>2021-09-09T12:03:39Z</time>
      </trkpt>
      <trkpt lat="44.13439" lon="5.97614">
        <ele>449</ele>
        <time>2021-09-09T12:03:40Z</time>
      </trkpt>
      <trkpt lat="44.13441" lon="5.97616">
        <ele>449.1</ele>
        <time>2021-09-09T12:03:42Z</time>
      </trkpt>
      <trkpt lat="44.13444" lon="5.97619">
        <ele>448.9</ele>
        <time>2021-09-09T12:03:43Z</time>
      </trkpt>
      <trkpt lat="44.13445" lon="5.9762">
        <ele>448.9</ele>
        <time>2021-09-09T12:03:44Z</time>
      </trkpt>
      <trkpt lat="44.13446" lon="5.97621">
        <ele>448.9</ele>
        <time>2021-09-09T12:03:45Z</time>
      </trkpt>
      <trkpt lat="44.13449" lon="5.97624">
        <ele>448.7</ele>
        <time>2021-09-09T12:03:47Z</time>
      </trkpt>
      <trkpt lat="44.1345" lon="5.9763">
        <ele>448.6</ele>
        <time>2021-09-09T12:03:48Z</time>
      </trkpt>
      <trkpt lat="44.1345" lon="5.97632">
        <ele>448.6</ele>
        <time>2021-09-09T12:03:49Z</time>
      </trkpt>
      <trkpt lat="44.13451" lon="5.97637">
        <ele>448.5</ele>
        <time>2021-09-09T12:03:50Z</time>
      </trkpt>
      <trkpt lat="44.13451" lon="5.97638">
        <ele>448.5</ele>
        <time>2021-09-09T12:03:51Z</time>
      </trkpt>
      <trkpt lat="44.13452" lon="5.97645">
        <ele>448.2</ele>
        <time>2021-09-09T12:03:53Z</time>
      </trkpt>
      <trkpt lat="44.13452" lon="5.97646">
        <ele>448.2</ele>
        <time>2021-09-09T12:03:54Z</time>
      </trkpt>
      <trkpt lat="44.13453" lon="5.97648">
        <ele>448.1</ele>
        <time>2021-09-09T12:03:55Z</time>
      </trkpt>
      <trkpt lat="44.13454" lon="5.97651">
        <ele>448.2</ele>
        <time>2021-09-09T12:03:56Z</time>
      </trkpt>
      <trkpt lat="44.13454" lon="5.97653">
        <ele>448.1</ele>
        <time>2021-09-09T12:03:57Z</time>
      </trkpt>
      <trkpt lat="44.13456" lon="5.97656">
        <ele>448</ele>
        <time>2021-09-09T12:03:59Z</time>
      </trkpt>
      <trkpt lat="44.13456" lon="5.9766">
        <ele>447.9</ele>
        <time>2021-09-09T12:04:00Z</time>
      </trkpt>
      <trkpt lat="44.13455" lon="5.97665">
        <ele>447.9</ele>
        <time>2021-09-09T12:04:02Z</time>
      </trkpt>
      <trkpt lat="44.13455" lon="5.97666">
        <ele>447.9</ele>
        <time>2021-09-09T12:04:03Z</time>
      </trkpt>
      <trkpt lat="44.13454" lon="5.97666">
        <ele>448</ele>
        <time>2021-09-09T12:04:04Z</time>
      </trkpt>
      <trkpt lat="44.13454" lon="5.97666">
        <ele>448.1</ele>
        <time>2021-09-09T12:04:06Z</time>
      </trkpt>
      <trkpt lat="44.13454" lon="5.97666">
        <ele>448.1</ele>
        <time>2021-09-09T12:04:08Z</time>
      </trkpt>
      <trkpt lat="44.13454" lon="5.97667">
        <ele>448.1</ele>
        <time>2021-09-09T12:04:09Z</time>
      </trkpt>
      <trkpt lat="44.13453" lon="5.97667">
        <ele>448.2</ele>
        <time>2021-09-09T12:04:11Z</time>
      </trkpt>
      <trkpt lat="44.13453" lon="5.97666">
        <ele>448.2</ele>
        <time>2021-09-09T12:04:12Z</time>
      </trkpt>
      <trkpt lat="44.13438" lon="5.97668">
        <ele>448.9</ele>
        <time>2021-09-09T12:04:29Z</time>
      </trkpt>
      <trkpt lat="44.13435" lon="5.97665">
        <ele>449</ele>
        <time>2021-09-09T12:04:31Z</time>
      </trkpt>
      <trkpt lat="44.13432" lon="5.97661">
        <ele>449.2</ele>
        <time>2021-09-09T12:04:33Z</time>
      </trkpt>
      <trkpt lat="44.13428" lon="5.9766">
        <ele>449.4</ele>
        <time>2021-09-09T12:04:34Z</time>
      </trkpt>
      <trkpt lat="44.13426" lon="5.97659">
        <ele>449.6</ele>
        <time>2021-09-09T12:04:35Z</time>
      </trkpt>
      <trkpt lat="44.13426" lon="5.97666">
        <ele>449.5</ele>
        <time>2021-09-09T12:04:37Z</time>
      </trkpt>
      <trkpt lat="44.13425" lon="5.97672">
        <ele>449.5</ele>
        <time>2021-09-09T12:04:39Z</time>
      </trkpt>
      <trkpt lat="44.13423" lon="5.97675">
        <ele>449.6</ele>
        <time>2021-09-09T12:04:40Z</time>
      </trkpt>
      <trkpt lat="44.1342" lon="5.97679">
        <ele>449.8</ele>
        <time>2021-09-09T12:04:42Z</time>
      </trkpt>
      <trkpt lat="44.13418" lon="5.97679">
        <ele>449.8</ele>
        <time>2021-09-09T12:04:43Z</time>
      </trkpt>
      <trkpt lat="44.13415" lon="5.97676">
        <ele>450</ele>
        <time>2021-09-09T12:04:45Z</time>
      </trkpt>
      <trkpt lat="44.13416" lon="5.97676">
        <ele>450</ele>
        <time>2021-09-09T12:04:46Z</time>
      </trkpt>
      <trkpt lat="44.13418" lon="5.97675">
        <ele>449.9</ele>
        <time>2021-09-09T12:04:48Z</time>
      </trkpt>
      <trkpt lat="44.13418" lon="5.97674">
        <ele>450</ele>
        <time>2021-09-09T12:04:49Z</time>
      </trkpt>
      <trkpt lat="44.13418" lon="5.97674">
        <ele>450</ele>
        <time>2021-09-09T12:04:51Z</time>
      </trkpt>
      <trkpt lat="44.13418" lon="5.97674">
        <ele>450</ele>
        <time>2021-09-09T12:04:52Z</time>
      </trkpt>
      <trkpt lat="44.13418" lon="5.97674">
        <ele>450.1</ele>
        <time>2021-09-09T12:04:53Z</time>
      </trkpt>
      <trkpt lat="44.13416" lon="5.97626">
        <ele>450.7</ele>
        <time>2021-09-09T12:09:17Z</time>
      </trkpt>
      <trkpt lat="44.13415" lon="5.97622">
        <ele>450.9</ele>
        <time>2021-09-09T12:09:18Z</time>
      </trkpt>
      <trkpt lat="44.13415" lon="5.97621">
        <ele>450.9</ele>
        <time>2021-09-09T12:09:19Z</time>
      </trkpt>
      <trkpt lat="44.13415" lon="5.97621">
        <ele>450.9</ele>
        <time>2021-09-09T12:09:20Z</time>
      </trkpt>
      <trkpt lat="44.13414" lon="5.97623">
        <ele>450.9</ele>
        <time>2021-09-09T12:09:21Z</time>
      </trkpt>
      <trkpt lat="44.13414" lon="5.97623">
        <ele>450.9</ele>
        <time>2021-09-09T12:09:23Z</time>
      </trkpt>
      <trkpt lat="44.13414" lon="5.97623">
        <ele>451</ele>
        <time>2021-09-09T12:09:24Z</time>
      </trkpt>
      <trkpt lat="44.13414" lon="5.97623">
        <ele>451</ele>
        <time>2021-09-09T12:09:25Z</time>
      </trkpt>
      <trkpt lat="44.13414" lon="5.97623">
        <ele>451</ele>
        <time>2021-09-09T12:09:26Z</time>
      </trkpt>
      <trkpt lat="44.13413" lon="5.97621">
        <ele>451.2</ele>
        <time>2021-09-09T12:09:28Z</time>
      </trkpt>
      <trkpt lat="44.13426" lon="5.97649">
        <ele>450.5</ele>
        <time>2021-09-09T12:13:03Z</time>
      </trkpt>
      <trkpt lat="44.13429" lon="5.97652">
        <ele>450.5</ele>
        <time>2021-09-09T12:13:05Z</time>
      </trkpt>
      <trkpt lat="44.1343" lon="5.97654">
        <ele>450.4</ele>
        <time>2021-09-09T12:13:06Z</time>
      </trkpt>
      <trkpt lat="44.13431" lon="5.97655">
        <ele>450.4</ele>
        <time>2021-09-09T12:13:07Z</time>
      </trkpt>
      <trkpt lat="44.13431" lon="5.97655">
        <ele>450.5</ele>
        <time>2021-09-09T12:13:08Z</time>
      </trkpt>
      <trkpt lat="44.13432" lon="5.97656">
        <ele>450.5</ele>
        <time>2021-09-09T12:13:10Z</time>
      </trkpt>
      <trkpt lat="44.13432" lon="5.97656">
        <ele>450.5</ele>
        <time>2021-09-09T12:13:11Z</time>
      </trkpt>
      <trkpt lat="44.13432" lon="5.97657">
        <ele>450.4</ele>
        <time>2021-09-09T12:13:12Z</time>
      </trkpt>
      <trkpt lat="44.13432" lon="5.97658">
        <ele>450.5</ele>
        <time>2021-09-09T12:13:13Z</time>
      </trkpt>
      <trkpt lat="44.13433" lon="5.97659">
        <ele>450.4</ele>
        <time>2021-09-09T12:13:15Z</time>
      </trkpt>
      <trkpt lat="44.13433" lon="5.97661">
        <ele>450.5</ele>
        <time>2021-09-09T12:13:17Z</time>
      </trkpt>
      <trkpt lat="44.13434" lon="5.97661">
        <ele>450.4</ele>
        <time>2021-09-09T12:13:19Z</time>
      </trkpt>
      <trkpt lat="44.13456" lon="5.97648">
        <ele>449.9</ele>
        <time>2021-09-09T12:14:49Z</time>
      </trkpt>
      <trkpt lat="44.13457" lon="5.97647">
        <ele>449.6</ele>
        <time>2021-09-09T12:14:50Z</time>
      </trkpt>
      <trkpt lat="44.13458" lon="5.97645">
        <ele>449.3</ele>
        <time>2021-09-09T12:14:51Z</time>
      </trkpt>
      <trkpt lat="44.13458" lon="5.97644">
        <ele>449.2</ele>
        <time>2021-09-09T12:14:53Z</time>
      </trkpt>
      <trkpt lat="44.13458" lon="5.97643">
        <ele>449</ele>
        <time>2021-09-09T12:14:54Z</time>
      </trkpt>
      <trkpt lat="44.13458" lon="5.97643">
        <ele>448.9</ele>
        <time>2021-09-09T12:14:56Z</time>
      </trkpt>
      <trkpt lat="44.13457" lon="5.97643">
        <ele>448.9</ele>
        <time>2021-09-09T12:14:57Z</time>
      </trkpt>
      <trkpt lat="44.13457" lon="5.97643">
        <ele>448.9</ele>
        <time>2021-09-09T12:15:00Z</time>
      </trkpt>
      <trkpt lat="44.13457" lon="5.97643">
        <ele>448.9</ele>
        <time>2021-09-09T12:15:01Z</time>
      </trkpt>
      <trkpt lat="44.13458" lon="5.97642">
        <ele>448.8</ele>
        <time>2021-09-09T12:15:02Z</time>
      </trkpt>
      <trkpt lat="44.13457" lon="5.97642">
        <ele>448.7</ele>
        <time>2021-09-09T12:15:04Z</time>
      </trkpt>
      <trkpt lat="44.13457" lon="5.9764">
        <ele>448.5</ele>
        <time>2021-09-09T12:15:05Z</time>
      </trkpt>
      <trkpt lat="44.13457" lon="5.97638">
        <ele>448.1</ele>
        <time>2021-09-09T12:15:07Z</time>
      </trkpt>
      <trkpt lat="44.13462" lon="5.97632">
        <ele>446.9</ele>
        <time>2021-09-09T12:15:09Z</time>
      </trkpt>
      <trkpt lat="44.13465" lon="5.97628">
        <ele>446.3</ele>
        <time>2021-09-09T12:15:10Z</time>
      </trkpt>
      <trkpt lat="44.1347" lon="5.97624">
        <ele>445.8</ele>
        <time>2021-09-09T12:15:11Z</time>
      </trkpt>
      <trkpt lat="44.13484" lon="5.97619">
        <ele>446.4</ele>
        <time>2021-09-09T12:15:12Z</time>
      </trkpt>
      <trkpt lat="44.13493" lon="5.97618">
        <ele>446.2</ele>
        <time>2021-09-09T12:15:13Z</time>
      </trkpt>
      <trkpt lat="44.13506" lon="5.97621">
        <ele>445.1</ele>
        <time>2021-09-09T12:15:15Z</time>
      </trkpt>
      <trkpt lat="44.13513" lon="5.97624">
        <ele>444.9</ele>
        <time>2021-09-09T12:15:17Z</time>
      </trkpt>
      <trkpt lat="44.13518" lon="5.97627">
        <ele>445.1</ele>
        <time>2021-09-09T12:15:18Z</time>
      </trkpt>
      <trkpt lat="44.13523" lon="5.97629">
        <ele>445.4</ele>
        <time>2021-09-09T12:15:20Z</time>
      </trkpt>
      <trkpt lat="44.13526" lon="5.97631">
        <ele>445.6</ele>
        <time>2021-09-09T12:15:21Z</time>
      </trkpt>
      <trkpt lat="44.13527" lon="5.97632">
        <ele>445.7</ele>
        <time>2021-09-09T12:15:22Z</time>
      </trkpt>
      <trkpt lat="44.13529" lon="5.97633">
        <ele>445.8</ele>
        <time>2021-09-09T12:15:24Z</time>
      </trkpt>
      <trkpt lat="44.13533" lon="5.97634">
        <ele>446.1</ele>
        <time>2021-09-09T12:15:25Z</time>
      </trkpt>
      <trkpt lat="44.13534" lon="5.97635">
        <ele>446.2</ele>
        <time>2021-09-09T12:15:26Z</time>
      </trkpt>
      <trkpt lat="44.13537" lon="5.97634">
        <ele>446.7</ele>
        <time>2021-09-09T12:15:28Z</time>
      </trkpt>
      <trkpt lat="44.13538" lon="5.97633">
        <ele>446.8</ele>
        <time>2021-09-09T12:15:29Z</time>
      </trkpt>
      <trkpt lat="44.13541" lon="5.97628">
        <ele>447.1</ele>
        <time>2021-09-09T12:15:31Z</time>
      </trkpt>
      <trkpt lat="44.13543" lon="5.97626">
        <ele>447.2</ele>
        <time>2021-09-09T12:15:32Z</time>
      </trkpt>
      <trkpt lat="44.13546" lon="5.97625">
        <ele>447.5</ele>
        <time>2021-09-09T12:15:34Z</time>
      </trkpt>
      <trkpt lat="44.13549" lon="5.97623">
        <ele>447.7</ele>
        <time>2021-09-09T12:15:36Z</time>
      </trkpt>
      <trkpt lat="44.13551" lon="5.9762">
        <ele>448</ele>
        <time>2021-09-09T12:15:37Z</time>
      </trkpt>
      <trkpt lat="44.13553" lon="5.97615">
        <ele>448.2</ele>
        <time>2021-09-09T12:15:39Z</time>
      </trkpt>
      <trkpt lat="44.13554" lon="5.97611">
        <ele>448.3</ele>
        <time>2021-09-09T12:15:40Z</time>
      </trkpt>
      <trkpt lat="44.13554" lon="5.97608">
        <ele>448.4</ele>
        <time>2021-09-09T12:15:41Z</time>
      </trkpt>
      <trkpt lat="44.13554" lon="5.97606">
        <ele>448.5</ele>
        <time>2021-09-09T12:15:42Z</time>
      </trkpt>
      <trkpt lat="44.13556" lon="5.97601">
        <ele>448.6</ele>
        <time>2021-09-09T12:15:44Z</time>
      </trkpt>
      <trkpt lat="44.13557" lon="5.97598">
        <ele>448.6</ele>
        <time>2021-09-09T12:15:45Z</time>
      </trkpt>
      <trkpt lat="44.13557" lon="5.97594">
        <ele>448.7</ele>
        <time>2021-09-09T12:15:47Z</time>
      </trkpt>
      <trkpt lat="44.13558" lon="5.97591">
        <ele>448.7</ele>
        <time>2021-09-09T12:15:48Z</time>
      </trkpt>
      <trkpt lat="44.13559" lon="5.97587">
        <ele>448.8</ele>
        <time>2021-09-09T12:15:50Z</time>
      </trkpt>
      <trkpt lat="44.1356" lon="5.97582">
        <ele>448.8</ele>
        <time>2021-09-09T12:15:51Z</time>
      </trkpt>
      <trkpt lat="44.13562" lon="5.97577">
        <ele>448.8</ele>
        <time>2021-09-09T12:15:53Z</time>
      </trkpt>
      <trkpt lat="44.13563" lon="5.97571">
        <ele>448.9</ele>
        <time>2021-09-09T12:15:54Z</time>
      </trkpt>
      <trkpt lat="44.13565" lon="5.97565">
        <ele>449.1</ele>
        <time>2021-09-09T12:15:56Z</time>
      </trkpt>
      <trkpt lat="44.13567" lon="5.97561">
        <ele>449.3</ele>
        <time>2021-09-09T12:15:57Z</time>
      </trkpt>
      <trkpt lat="44.13568" lon="5.97557">
        <ele>449.5</ele>
        <time>2021-09-09T12:15:58Z</time>
      </trkpt>
      <trkpt lat="44.13569" lon="5.97551">
        <ele>449.9</ele>
        <time>2021-09-09T12:16:00Z</time>
      </trkpt>
      <trkpt lat="44.1357" lon="5.97548">
        <ele>450.2</ele>
        <time>2021-09-09T12:16:01Z</time>
      </trkpt>
      <trkpt lat="44.1357" lon="5.97545">
        <ele>450.4</ele>
        <time>2021-09-09T12:16:03Z</time>
      </trkpt>
      <trkpt lat="44.13571" lon="5.97543">
        <ele>450.5</ele>
        <time>2021-09-09T12:16:04Z</time>
      </trkpt>
      <trkpt lat="44.13573" lon="5.9754">
        <ele>450.8</ele>
        <time>2021-09-09T12:16:06Z</time>
      </trkpt>
      <trkpt lat="44.13574" lon="5.97538">
        <ele>451</ele>
        <time>2021-09-09T12:16:07Z</time>
      </trkpt>
      <trkpt lat="44.13574" lon="5.97536">
        <ele>451.1</ele>
        <time>2021-09-09T12:16:08Z</time>
      </trkpt>
      <trkpt lat="44.13575" lon="5.9753">
        <ele>451.6</ele>
        <time>2021-09-09T12:16:10Z</time>
      </trkpt>
      <trkpt lat="44.13576" lon="5.97529">
        <ele>451.8</ele>
        <time>2021-09-09T12:16:12Z</time>
      </trkpt>
      <trkpt lat="44.13577" lon="5.97527">
        <ele>451.9</ele>
        <time>2021-09-09T12:16:13Z</time>
      </trkpt>
      <trkpt lat="44.13578" lon="5.97525">
        <ele>452.1</ele>
        <time>2021-09-09T12:16:14Z</time>
      </trkpt>
      <trkpt lat="44.1358" lon="5.97521">
        <ele>452.5</ele>
        <time>2021-09-09T12:16:16Z</time>
      </trkpt>
      <trkpt lat="44.13581" lon="5.97517">
        <ele>452.9</ele>
        <time>2021-09-09T12:16:18Z</time>
      </trkpt>
      <trkpt lat="44.13581" lon="5.97516">
        <ele>453</ele>
        <time>2021-09-09T12:16:19Z</time>
      </trkpt>
      <trkpt lat="44.13581" lon="5.97513">
        <ele>453.2</ele>
        <time>2021-09-09T12:16:20Z</time>
      </trkpt>
      <trkpt lat="44.13581" lon="5.9751">
        <ele>453.4</ele>
        <time>2021-09-09T12:16:22Z</time>
      </trkpt>
      <trkpt lat="44.13581" lon="5.97509">
        <ele>453.5</ele>
        <time>2021-09-09T12:16:23Z</time>
      </trkpt>
      <trkpt lat="44.13579" lon="5.97508">
        <ele>453.6</ele>
        <time>2021-09-09T12:16:24Z</time>
      </trkpt>
      <trkpt lat="44.13579" lon="5.97504">
        <ele>453.9</ele>
        <time>2021-09-09T12:16:26Z</time>
      </trkpt>
      <trkpt lat="44.13578" lon="5.97502">
        <ele>454</ele>
        <time>2021-09-09T12:16:28Z</time>
      </trkpt>
      <trkpt lat="44.13578" lon="5.97501">
        <ele>454</ele>
        <time>2021-09-09T12:16:29Z</time>
      </trkpt>
      <trkpt lat="44.13577" lon="5.975">
        <ele>454.1</ele>
        <time>2021-09-09T12:16:31Z</time>
      </trkpt>
      <trkpt lat="44.13577" lon="5.975">
        <ele>454.1</ele>
        <time>2021-09-09T12:16:32Z</time>
      </trkpt>
      <trkpt lat="44.13576" lon="5.97498">
        <ele>454.3</ele>
        <time>2021-09-09T12:16:33Z</time>
      </trkpt>
      <trkpt lat="44.13575" lon="5.97495">
        <ele>454.4</ele>
        <time>2021-09-09T12:16:35Z</time>
      </trkpt>
      <trkpt lat="44.13576" lon="5.97491">
        <ele>454.6</ele>
        <time>2021-09-09T12:16:36Z</time>
      </trkpt>
      <trkpt lat="44.13576" lon="5.9749">
        <ele>454.7</ele>
        <time>2021-09-09T12:16:37Z</time>
      </trkpt>
      <trkpt lat="44.13578" lon="5.97485">
        <ele>455</ele>
        <time>2021-09-09T12:16:39Z</time>
      </trkpt>
      <trkpt lat="44.1358" lon="5.97482">
        <ele>455.1</ele>
        <time>2021-09-09T12:16:40Z</time>
      </trkpt>
      <trkpt lat="44.13582" lon="5.9748">
        <ele>455.3</ele>
        <time>2021-09-09T12:16:41Z</time>
      </trkpt>
      <trkpt lat="44.13584" lon="5.97474">
        <ele>455.5</ele>
        <time>2021-09-09T12:16:43Z</time>
      </trkpt>
      <trkpt lat="44.13584" lon="5.97471">
        <ele>455.6</ele>
        <time>2021-09-09T12:16:44Z</time>
      </trkpt>
      <trkpt lat="44.13585" lon="5.97467">
        <ele>455.7</ele>
        <time>2021-09-09T12:16:46Z</time>
      </trkpt>
      <trkpt lat="44.13586" lon="5.97463">
        <ele>455.8</ele>
        <time>2021-09-09T12:16:47Z</time>
      </trkpt>
      <trkpt lat="44.13588" lon="5.9746">
        <ele>455.9</ele>
        <time>2021-09-09T12:16:49Z</time>
      </trkpt>
      <trkpt lat="44.13591" lon="5.97454">
        <ele>456.1</ele>
        <time>2021-09-09T12:16:51Z</time>
      </trkpt>
      <trkpt lat="44.13592" lon="5.9745">
        <ele>456.2</ele>
        <time>2021-09-09T12:16:52Z</time>
      </trkpt>
      <trkpt lat="44.13595" lon="5.97447">
        <ele>456.2</ele>
        <time>2021-09-09T12:16:53Z</time>
      </trkpt>
      <trkpt lat="44.13598" lon="5.97444">
        <ele>456.3</ele>
        <time>2021-09-09T12:16:54Z</time>
      </trkpt>
      <trkpt lat="44.13601" lon="5.9744">
        <ele>456.3</ele>
        <time>2021-09-09T12:16:56Z</time>
      </trkpt>
      <trkpt lat="44.13602" lon="5.97438">
        <ele>456.4</ele>
        <time>2021-09-09T12:16:57Z</time>
      </trkpt>
      <trkpt lat="44.13602" lon="5.97433">
        <ele>456.4</ele>
        <time>2021-09-09T12:16:59Z</time>
      </trkpt>
      <trkpt lat="44.13604" lon="5.97432">
        <ele>456.4</ele>
        <time>2021-09-09T12:17:00Z</time>
      </trkpt>
      <trkpt lat="44.13605" lon="5.9743">
        <ele>456.4</ele>
        <time>2021-09-09T12:17:01Z</time>
      </trkpt>
      <trkpt lat="44.13606" lon="5.97426">
        <ele>456.4</ele>
        <time>2021-09-09T12:17:03Z</time>
      </trkpt>
      <trkpt lat="44.13606" lon="5.97424">
        <ele>456.4</ele>
        <time>2021-09-09T12:17:04Z</time>
      </trkpt>
      <trkpt lat="44.13606" lon="5.97423">
        <ele>456.5</ele>
        <time>2021-09-09T12:17:05Z</time>
      </trkpt>
      <trkpt lat="44.13608" lon="5.97418">
        <ele>456.5</ele>
        <time>2021-09-09T12:17:07Z</time>
      </trkpt>
      <trkpt lat="44.1361" lon="5.97411">
        <ele>456.5</ele>
        <time>2021-09-09T12:17:08Z</time>
      </trkpt>
      <trkpt lat="44.13614" lon="5.97407">
        <ele>456.6</ele>
        <time>2021-09-09T12:17:09Z</time>
      </trkpt>
      <trkpt lat="44.13619" lon="5.974">
        <ele>456.7</ele>
        <time>2021-09-09T12:17:11Z</time>
      </trkpt>
      <trkpt lat="44.13626" lon="5.97393">
        <ele>456.7</ele>
        <time>2021-09-09T12:17:13Z</time>
      </trkpt>
      <trkpt lat="44.13633" lon="5.97386">
        <ele>456.8</ele>
        <time>2021-09-09T12:17:15Z</time>
      </trkpt>
      <trkpt lat="44.13638" lon="5.97381">
        <ele>456.9</ele>
        <time>2021-09-09T12:17:16Z</time>
      </trkpt>
      <trkpt lat="44.13645" lon="5.97374">
        <ele>456.9</ele>
        <time>2021-09-09T12:17:18Z</time>
      </trkpt>
      <trkpt lat="44.1365" lon="5.97368">
        <ele>457</ele>
        <time>2021-09-09T12:17:19Z</time>
      </trkpt>
      <trkpt lat="44.13653" lon="5.97365">
        <ele>457</ele>
        <time>2021-09-09T12:17:20Z</time>
      </trkpt>
      <trkpt lat="44.1366" lon="5.97358">
        <ele>457.1</ele>
        <time>2021-09-09T12:17:22Z</time>
      </trkpt>
      <trkpt lat="44.13665" lon="5.97353">
        <ele>457.2</ele>
        <time>2021-09-09T12:17:24Z</time>
      </trkpt>
      <trkpt lat="44.13669" lon="5.97349">
        <ele>457.3</ele>
        <time>2021-09-09T12:17:25Z</time>
      </trkpt>
      <trkpt lat="44.13671" lon="5.97345">
        <ele>457.3</ele>
        <time>2021-09-09T12:17:26Z</time>
      </trkpt>
      <trkpt lat="44.13674" lon="5.97342">
        <ele>457.4</ele>
        <time>2021-09-09T12:17:28Z</time>
      </trkpt>
      <trkpt lat="44.1368" lon="5.97337">
        <ele>457.4</ele>
        <time>2021-09-09T12:17:29Z</time>
      </trkpt>
      <trkpt lat="44.13685" lon="5.97332">
        <ele>457.4</ele>
        <time>2021-09-09T12:17:31Z</time>
      </trkpt>
      <trkpt lat="44.13689" lon="5.97327">
        <ele>457.4</ele>
        <time>2021-09-09T12:17:33Z</time>
      </trkpt>
      <trkpt lat="44.13692" lon="5.97323">
        <ele>457.4</ele>
        <time>2021-09-09T12:17:34Z</time>
      </trkpt>
      <trkpt lat="44.13695" lon="5.97319">
        <ele>457.4</ele>
        <time>2021-09-09T12:17:36Z</time>
      </trkpt>
      <trkpt lat="44.13696" lon="5.97315">
        <ele>457.4</ele>
        <time>2021-09-09T12:17:37Z</time>
      </trkpt>
      <trkpt lat="44.13698" lon="5.97313">
        <ele>457.4</ele>
        <time>2021-09-09T12:17:38Z</time>
      </trkpt>
      <trkpt lat="44.13701" lon="5.9731">
        <ele>457.4</ele>
        <time>2021-09-09T12:17:40Z</time>
      </trkpt>
      <trkpt lat="44.13702" lon="5.97306">
        <ele>457.3</ele>
        <time>2021-09-09T12:17:41Z</time>
      </trkpt>
      <trkpt lat="44.13705" lon="5.97304">
        <ele>457.3</ele>
        <time>2021-09-09T12:17:42Z</time>
      </trkpt>
      <trkpt lat="44.13707" lon="5.97303">
        <ele>457.2</ele>
        <time>2021-09-09T12:17:43Z</time>
      </trkpt>
      <trkpt lat="44.13711" lon="5.97303">
        <ele>457</ele>
        <time>2021-09-09T12:17:45Z</time>
      </trkpt>
      <trkpt lat="44.13715" lon="5.97301">
        <ele>456.8</ele>
        <time>2021-09-09T12:17:46Z</time>
      </trkpt>
      <trkpt lat="44.1372" lon="5.97298">
        <ele>456.5</ele>
        <time>2021-09-09T12:17:48Z</time>
      </trkpt>
      <trkpt lat="44.13724" lon="5.97295">
        <ele>456.3</ele>
        <time>2021-09-09T12:17:49Z</time>
      </trkpt>
      <trkpt lat="44.13728" lon="5.97289">
        <ele>456</ele>
        <time>2021-09-09T12:17:50Z</time>
      </trkpt>
      <trkpt lat="44.13733" lon="5.97283">
        <ele>455.8</ele>
        <time>2021-09-09T12:17:52Z</time>
      </trkpt>
      <trkpt lat="44.13738" lon="5.97275">
        <ele>455.6</ele>
        <time>2021-09-09T12:17:53Z</time>
      </trkpt>
      <trkpt lat="44.13742" lon="5.97263">
        <ele>455.3</ele>
        <time>2021-09-09T12:17:55Z</time>
      </trkpt>
      <trkpt lat="44.13744" lon="5.9725">
        <ele>455.2</ele>
        <time>2021-09-09T12:17:57Z</time>
      </trkpt>
      <trkpt lat="44.13747" lon="5.97245">
        <ele>455.2</ele>
        <time>2021-09-09T12:17:59Z</time>
      </trkpt>
      <trkpt lat="44.13749" lon="5.97238">
        <ele>455.3</ele>
        <time>2021-09-09T12:18:00Z</time>
      </trkpt>
      <trkpt lat="44.1375" lon="5.97228">
        <ele>455.5</ele>
        <time>2021-09-09T12:18:02Z</time>
      </trkpt>
      <trkpt lat="44.13751" lon="5.97223">
        <ele>455.6</ele>
        <time>2021-09-09T12:18:03Z</time>
      </trkpt>
      <trkpt lat="44.13752" lon="5.97218">
        <ele>455.6</ele>
        <time>2021-09-09T12:18:04Z</time>
      </trkpt>
      <trkpt lat="44.13753" lon="5.97214">
        <ele>455.7</ele>
        <time>2021-09-09T12:18:05Z</time>
      </trkpt>
      <trkpt lat="44.13756" lon="5.9721">
        <ele>455.7</ele>
        <time>2021-09-09T12:18:07Z</time>
      </trkpt>
      <trkpt lat="44.13758" lon="5.97205">
        <ele>455.8</ele>
        <time>2021-09-09T12:18:08Z</time>
      </trkpt>
      <trkpt lat="44.13759" lon="5.97199">
        <ele>455.8</ele>
        <time>2021-09-09T12:18:09Z</time>
      </trkpt>
      <trkpt lat="44.13761" lon="5.97195">
        <ele>455.8</ele>
        <time>2021-09-09T12:18:10Z</time>
      </trkpt>
      <trkpt lat="44.13763" lon="5.97191">
        <ele>455.7</ele>
        <time>2021-09-09T12:18:11Z</time>
      </trkpt>
      <trkpt lat="44.13765" lon="5.97187">
        <ele>455.7</ele>
        <time>2021-09-09T12:18:12Z</time>
      </trkpt>
      <trkpt lat="44.13767" lon="5.97184">
        <ele>455.6</ele>
        <time>2021-09-09T12:18:13Z</time>
      </trkpt>
      <trkpt lat="44.1377" lon="5.9718">
        <ele>455.5</ele>
        <time>2021-09-09T12:18:14Z</time>
      </trkpt>
      <trkpt lat="44.13774" lon="5.97177">
        <ele>455.4</ele>
        <time>2021-09-09T12:18:16Z</time>
      </trkpt>
      <trkpt lat="44.13778" lon="5.97173">
        <ele>455.2</ele>
        <time>2021-09-09T12:18:17Z</time>
      </trkpt>
      <trkpt lat="44.13783" lon="5.97168">
        <ele>455.1</ele>
        <time>2021-09-09T12:18:19Z</time>
      </trkpt>
      <trkpt lat="44.13788" lon="5.97161">
        <ele>454.9</ele>
        <time>2021-09-09T12:18:20Z</time>
      </trkpt>
      <trkpt lat="44.13792" lon="5.97157">
        <ele>454.8</ele>
        <time>2021-09-09T12:18:21Z</time>
      </trkpt>
      <trkpt lat="44.13798" lon="5.97152">
        <ele>454.5</ele>
        <time>2021-09-09T12:18:23Z</time>
      </trkpt>
      <trkpt lat="44.13803" lon="5.97147">
        <ele>454.2</ele>
        <time>2021-09-09T12:18:24Z</time>
      </trkpt>
      <trkpt lat="44.13806" lon="5.97143">
        <ele>454.1</ele>
        <time>2021-09-09T12:18:25Z</time>
      </trkpt>
      <trkpt lat="44.13812" lon="5.97138">
        <ele>453.9</ele>
        <time>2021-09-09T12:18:27Z</time>
      </trkpt>
      <trkpt lat="44.13816" lon="5.97134">
        <ele>453.8</ele>
        <time>2021-09-09T12:18:29Z</time>
      </trkpt>
      <trkpt lat="44.13819" lon="5.97132">
        <ele>453.8</ele>
        <time>2021-09-09T12:18:30Z</time>
      </trkpt>
      <trkpt lat="44.13822" lon="5.9713">
        <ele>453.8</ele>
        <time>2021-09-09T12:18:31Z</time>
      </trkpt>
      <trkpt lat="44.13824" lon="5.97127">
        <ele>453.7</ele>
        <time>2021-09-09T12:18:32Z</time>
      </trkpt>
      <trkpt lat="44.13829" lon="5.97124">
        <ele>453.7</ele>
        <time>2021-09-09T12:18:34Z</time>
      </trkpt>
      <trkpt lat="44.13832" lon="5.97121">
        <ele>453.7</ele>
        <time>2021-09-09T12:18:35Z</time>
      </trkpt>
      <trkpt lat="44.13836" lon="5.97119">
        <ele>453.7</ele>
        <time>2021-09-09T12:18:36Z</time>
      </trkpt>
      <trkpt lat="44.13842" lon="5.97115">
        <ele>453.7</ele>
        <time>2021-09-09T12:18:38Z</time>
      </trkpt>
      <trkpt lat="44.13844" lon="5.97113">
        <ele>453.7</ele>
        <time>2021-09-09T12:18:39Z</time>
      </trkpt>
      <trkpt lat="44.13849" lon="5.97109">
        <ele>453.7</ele>
        <time>2021-09-09T12:18:41Z</time>
      </trkpt>
      <trkpt lat="44.13852" lon="5.97108">
        <ele>453.8</ele>
        <time>2021-09-09T12:18:42Z</time>
      </trkpt>
      <trkpt lat="44.13855" lon="5.97106">
        <ele>453.8</ele>
        <time>2021-09-09T12:18:43Z</time>
      </trkpt>
      <trkpt lat="44.13859" lon="5.97103">
        <ele>453.8</ele>
        <time>2021-09-09T12:18:44Z</time>
      </trkpt>
      <trkpt lat="44.13864" lon="5.97099">
        <ele>453.8</ele>
        <time>2021-09-09T12:18:46Z</time>
      </trkpt>
      <trkpt lat="44.13869" lon="5.97094">
        <ele>453.9</ele>
        <time>2021-09-09T12:18:47Z</time>
      </trkpt>
      <trkpt lat="44.13874" lon="5.97088">
        <ele>453.9</ele>
        <time>2021-09-09T12:18:48Z</time>
      </trkpt>
      <trkpt lat="44.13881" lon="5.97083">
        <ele>453.9</ele>
        <time>2021-09-09T12:18:50Z</time>
      </trkpt>
      <trkpt lat="44.13887" lon="5.97078">
        <ele>454.1</ele>
        <time>2021-09-09T12:18:52Z</time>
      </trkpt>
      <trkpt lat="44.13891" lon="5.97071">
        <ele>454.2</ele>
        <time>2021-09-09T12:18:54Z</time>
      </trkpt>
      <trkpt lat="44.13895" lon="5.97066">
        <ele>454.3</ele>
        <time>2021-09-09T12:18:55Z</time>
      </trkpt>
      <trkpt lat="44.139" lon="5.97058">
        <ele>454.3</ele>
        <time>2021-09-09T12:18:57Z</time>
      </trkpt>
      <trkpt lat="44.13906" lon="5.97054">
        <ele>454.2</ele>
        <time>2021-09-09T12:18:59Z</time>
      </trkpt>
      <trkpt lat="44.13913" lon="5.97045">
        <ele>454.3</ele>
        <time>2021-09-09T12:19:00Z</time>
      </trkpt>
      <trkpt lat="44.13919" lon="5.97039">
        <ele>454.5</ele>
        <time>2021-09-09T12:19:02Z</time>
      </trkpt>
      <trkpt lat="44.13924" lon="5.97035">
        <ele>454.7</ele>
        <time>2021-09-09T12:19:03Z</time>
      </trkpt>
      <trkpt lat="44.13932" lon="5.97031">
        <ele>454.9</ele>
        <time>2021-09-09T12:19:05Z</time>
      </trkpt>
      <trkpt lat="44.13935" lon="5.97032">
        <ele>454.9</ele>
        <time>2021-09-09T12:19:06Z</time>
      </trkpt>
      <trkpt lat="44.13939" lon="5.97029">
        <ele>455</ele>
        <time>2021-09-09T12:19:08Z</time>
      </trkpt>
      <trkpt lat="44.13941" lon="5.97028">
        <ele>455.1</ele>
        <time>2021-09-09T12:19:09Z</time>
      </trkpt>
      <trkpt lat="44.13949" lon="5.97022">
        <ele>455.1</ele>
        <time>2021-09-09T12:19:11Z</time>
      </trkpt>
      <trkpt lat="44.13955" lon="5.97019">
        <ele>455.1</ele>
        <time>2021-09-09T12:19:13Z</time>
      </trkpt>
      <trkpt lat="44.1396" lon="5.97016">
        <ele>455.1</ele>
        <time>2021-09-09T12:19:15Z</time>
      </trkpt>
      <trkpt lat="44.13965" lon="5.97013">
        <ele>455.2</ele>
        <time>2021-09-09T12:19:16Z</time>
      </trkpt>
      <trkpt lat="44.1397" lon="5.97011">
        <ele>455.2</ele>
        <time>2021-09-09T12:19:17Z</time>
      </trkpt>
      <trkpt lat="44.13974" lon="5.97008">
        <ele>455.3</ele>
        <time>2021-09-09T12:19:19Z</time>
      </trkpt>
      <trkpt lat="44.1398" lon="5.97004">
        <ele>455.3</ele>
        <time>2021-09-09T12:19:20Z</time>
      </trkpt>
      <trkpt lat="44.13986" lon="5.97">
        <ele>455.4</ele>
        <time>2021-09-09T12:19:22Z</time>
      </trkpt>
      <trkpt lat="44.13991" lon="5.96995">
        <ele>455.4</ele>
        <time>2021-09-09T12:19:24Z</time>
      </trkpt>
      <trkpt lat="44.13996" lon="5.96991">
        <ele>455.5</ele>
        <time>2021-09-09T12:19:26Z</time>
      </trkpt>
      <trkpt lat="44.14002" lon="5.96987">
        <ele>455.6</ele>
        <time>2021-09-09T12:19:27Z</time>
      </trkpt>
      <trkpt lat="44.14005" lon="5.96986">
        <ele>455.6</ele>
        <time>2021-09-09T12:19:28Z</time>
      </trkpt>
      <trkpt lat="44.14009" lon="5.96984">
        <ele>455.6</ele>
        <time>2021-09-09T12:19:29Z</time>
      </trkpt>
      <trkpt lat="44.14016" lon="5.96979">
        <ele>455.6</ele>
        <time>2021-09-09T12:19:31Z</time>
      </trkpt>
      <trkpt lat="44.14023" lon="5.96975">
        <ele>455.6</ele>
        <time>2021-09-09T12:19:33Z</time>
      </trkpt>
      <trkpt lat="44.1403" lon="5.96971">
        <ele>455.6</ele>
        <time>2021-09-09T12:19:35Z</time>
      </trkpt>
      <trkpt lat="44.14035" lon="5.96968">
        <ele>455.6</ele>
        <time>2021-09-09T12:19:36Z</time>
      </trkpt>
      <trkpt lat="44.14038" lon="5.96965">
        <ele>455.6</ele>
        <time>2021-09-09T12:19:37Z</time>
      </trkpt>
      <trkpt lat="44.14044" lon="5.96963">
        <ele>455.6</ele>
        <time>2021-09-09T12:19:39Z</time>
      </trkpt>
      <trkpt lat="44.14053" lon="5.96958">
        <ele>455.6</ele>
        <time>2021-09-09T12:19:40Z</time>
      </trkpt>
      <trkpt lat="44.14057" lon="5.96956">
        <ele>455.6</ele>
        <time>2021-09-09T12:19:41Z</time>
      </trkpt>
      <trkpt lat="44.14062" lon="5.96954">
        <ele>455.6</ele>
        <time>2021-09-09T12:19:43Z</time>
      </trkpt>
      <trkpt lat="44.14066" lon="5.96953">
        <ele>455.7</ele>
        <time>2021-09-09T12:19:44Z</time>
      </trkpt>
      <trkpt lat="44.14069" lon="5.96947">
        <ele>455.7</ele>
        <time>2021-09-09T12:19:45Z</time>
      </trkpt>
      <trkpt lat="44.14071" lon="5.96942">
        <ele>455.7</ele>
        <time>2021-09-09T12:19:46Z</time>
      </trkpt>
      <trkpt lat="44.14071" lon="5.96937">
        <ele>455.8</ele>
        <time>2021-09-09T12:19:47Z</time>
      </trkpt>
      <trkpt lat="44.1407" lon="5.96932">
        <ele>455.8</ele>
        <time>2021-09-09T12:19:48Z</time>
      </trkpt>
      <trkpt lat="44.14068" lon="5.96928">
        <ele>455.9</ele>
        <time>2021-09-09T12:19:50Z</time>
      </trkpt>
      <trkpt lat="44.14065" lon="5.9692">
        <ele>455.9</ele>
        <time>2021-09-09T12:19:51Z</time>
      </trkpt>
      <trkpt lat="44.14063" lon="5.96916">
        <ele>456</ele>
        <time>2021-09-09T12:19:52Z</time>
      </trkpt>
      <trkpt lat="44.14062" lon="5.96912">
        <ele>456</ele>
        <time>2021-09-09T12:19:53Z</time>
      </trkpt>
      <trkpt lat="44.14061" lon="5.96908">
        <ele>456</ele>
        <time>2021-09-09T12:19:54Z</time>
      </trkpt>
      <trkpt lat="44.1406" lon="5.96905">
        <ele>456.1</ele>
        <time>2021-09-09T12:19:55Z</time>
      </trkpt>
      <trkpt lat="44.14059" lon="5.96901">
        <ele>456.1</ele>
        <time>2021-09-09T12:19:56Z</time>
      </trkpt>
      <trkpt lat="44.14058" lon="5.96894">
        <ele>456.2</ele>
        <time>2021-09-09T12:19:58Z</time>
      </trkpt>
      <trkpt lat="44.14056" lon="5.96888">
        <ele>456.2</ele>
        <time>2021-09-09T12:19:59Z</time>
      </trkpt>
      <trkpt lat="44.14054" lon="5.96883">
        <ele>456.3</ele>
        <time>2021-09-09T12:20:01Z</time>
      </trkpt>
      <trkpt lat="44.14052" lon="5.96875">
        <ele>456.3</ele>
        <time>2021-09-09T12:20:02Z</time>
      </trkpt>
      <trkpt lat="44.1405" lon="5.96871">
        <ele>456.3</ele>
        <time>2021-09-09T12:20:03Z</time>
      </trkpt>
      <trkpt lat="44.14049" lon="5.96866">
        <ele>456.4</ele>
        <time>2021-09-09T12:20:05Z</time>
      </trkpt>
      <trkpt lat="44.14048" lon="5.96858">
        <ele>456.5</ele>
        <time>2021-09-09T12:20:06Z</time>
      </trkpt>
      <trkpt lat="44.14046" lon="5.96849">
        <ele>456.6</ele>
        <time>2021-09-09T12:20:08Z</time>
      </trkpt>
      <trkpt lat="44.14044" lon="5.96843">
        <ele>456.7</ele>
        <time>2021-09-09T12:20:10Z</time>
      </trkpt>
      <trkpt lat="44.14043" lon="5.96835">
        <ele>456.9</ele>
        <time>2021-09-09T12:20:11Z</time>
      </trkpt>
      <trkpt lat="44.1404" lon="5.96824">
        <ele>457.1</ele>
        <time>2021-09-09T12:20:13Z</time>
      </trkpt>
      <trkpt lat="44.14039" lon="5.9682">
        <ele>457.2</ele>
        <time>2021-09-09T12:20:14Z</time>
      </trkpt>
      <trkpt lat="44.14036" lon="5.96813">
        <ele>457.4</ele>
        <time>2021-09-09T12:20:16Z</time>
      </trkpt>
      <trkpt lat="44.14034" lon="5.96804">
        <ele>457.8</ele>
        <time>2021-09-09T12:20:17Z</time>
      </trkpt>
      <trkpt lat="44.14032" lon="5.96798">
        <ele>458.1</ele>
        <time>2021-09-09T12:20:19Z</time>
      </trkpt>
      <trkpt lat="44.1403" lon="5.96792">
        <ele>458.5</ele>
        <time>2021-09-09T12:20:20Z</time>
      </trkpt>
      <trkpt lat="44.14029" lon="5.96786">
        <ele>458.8</ele>
        <time>2021-09-09T12:20:22Z</time>
      </trkpt>
      <trkpt lat="44.14025" lon="5.96777">
        <ele>459.2</ele>
        <time>2021-09-09T12:20:24Z</time>
      </trkpt>
      <trkpt lat="44.14023" lon="5.96771">
        <ele>459.7</ele>
        <time>2021-09-09T12:20:25Z</time>
      </trkpt>
      <trkpt lat="44.14021" lon="5.96766">
        <ele>460</ele>
        <time>2021-09-09T12:20:26Z</time>
      </trkpt>
      <trkpt lat="44.14019" lon="5.96761">
        <ele>460.3</ele>
        <time>2021-09-09T12:20:27Z</time>
      </trkpt>
      <trkpt lat="44.14018" lon="5.96756">
        <ele>460.6</ele>
        <time>2021-09-09T12:20:28Z</time>
      </trkpt>
      <trkpt lat="44.14017" lon="5.96753">
        <ele>460.8</ele>
        <time>2021-09-09T12:20:29Z</time>
      </trkpt>
      <trkpt lat="44.14016" lon="5.96749">
        <ele>461.1</ele>
        <time>2021-09-09T12:20:31Z</time>
      </trkpt>
      <trkpt lat="44.14016" lon="5.96747">
        <ele>461.2</ele>
        <time>2021-09-09T12:20:32Z</time>
      </trkpt>
      <trkpt lat="44.14016" lon="5.96745">
        <ele>461.4</ele>
        <time>2021-09-09T12:20:34Z</time>
      </trkpt>
      <trkpt lat="44.14015" lon="5.96743">
        <ele>461.5</ele>
        <time>2021-09-09T12:20:36Z</time>
      </trkpt>
      <trkpt lat="44.14015" lon="5.96741">
        <ele>461.5</ele>
        <time>2021-09-09T12:20:37Z</time>
      </trkpt>
      <trkpt lat="44.14015" lon="5.96739">
        <ele>461.5</ele>
        <time>2021-09-09T12:20:39Z</time>
      </trkpt>
      <trkpt lat="44.14015" lon="5.96737">
        <ele>461.4</ele>
        <time>2021-09-09T12:20:40Z</time>
      </trkpt>
      <trkpt lat="44.14015" lon="5.96735">
        <ele>461.4</ele>
        <time>2021-09-09T12:20:42Z</time>
      </trkpt>
      <trkpt lat="44.14015" lon="5.96733">
        <ele>461.4</ele>
        <time>2021-09-09T12:20:50Z</time>
      </trkpt>
      <trkpt lat="44.14015" lon="5.96731">
        <ele>461.4</ele>
        <time>2021-09-09T12:20:51Z</time>
      </trkpt>
      <trkpt lat="44.14013" lon="5.96724">
        <ele>461.4</ele>
        <time>2021-09-09T12:20:52Z</time>
      </trkpt>
      <trkpt lat="44.14007" lon="5.96714">
        <ele>461.7</ele>
        <time>2021-09-09T12:20:54Z</time>
      </trkpt>
      <trkpt lat="44.14003" lon="5.9671">
        <ele>461.9</ele>
        <time>2021-09-09T12:20:55Z</time>
      </trkpt>
      <trkpt lat="44.13999" lon="5.96707">
        <ele>462</ele>
        <time>2021-09-09T12:20:56Z</time>
      </trkpt>
      <trkpt lat="44.13993" lon="5.96699">
        <ele>462.2</ele>
        <time>2021-09-09T12:20:58Z</time>
      </trkpt>
      <trkpt lat="44.1399" lon="5.96696">
        <ele>462.3</ele>
        <time>2021-09-09T12:20:59Z</time>
      </trkpt>
      <trkpt lat="44.13985" lon="5.96688">
        <ele>462.5</ele>
        <time>2021-09-09T12:21:01Z</time>
      </trkpt>
      <trkpt lat="44.13983" lon="5.96684">
        <ele>463.1</ele>
        <time>2021-09-09T12:21:02Z</time>
      </trkpt>
      <trkpt lat="44.1398" lon="5.96678">
        <ele>463.5</ele>
        <time>2021-09-09T12:21:04Z</time>
      </trkpt>
      <trkpt lat="44.13977" lon="5.96672">
        <ele>463.6</ele>
        <time>2021-09-09T12:21:05Z</time>
      </trkpt>
      <trkpt lat="44.13976" lon="5.96668">
        <ele>463.7</ele>
        <time>2021-09-09T12:21:06Z</time>
      </trkpt>
      <trkpt lat="44.13973" lon="5.96661">
        <ele>463.8</ele>
        <time>2021-09-09T12:21:08Z</time>
      </trkpt>
      <trkpt lat="44.13971" lon="5.96656">
        <ele>463.9</ele>
        <time>2021-09-09T12:21:09Z</time>
      </trkpt>
      <trkpt lat="44.13967" lon="5.96648">
        <ele>464.1</ele>
        <time>2021-09-09T12:21:11Z</time>
      </trkpt>
      <trkpt lat="44.13965" lon="5.96645">
        <ele>464.2</ele>
        <time>2021-09-09T12:21:12Z</time>
      </trkpt>
      <trkpt lat="44.1396" lon="5.96642">
        <ele>464.3</ele>
        <time>2021-09-09T12:21:14Z</time>
      </trkpt>
      <trkpt lat="44.13957" lon="5.96642">
        <ele>464.3</ele>
        <time>2021-09-09T12:21:15Z</time>
      </trkpt>
      <trkpt lat="44.13954" lon="5.96642">
        <ele>464.4</ele>
        <time>2021-09-09T12:21:16Z</time>
      </trkpt>
      <trkpt lat="44.13951" lon="5.96649">
        <ele>464.5</ele>
        <time>2021-09-09T12:21:18Z</time>
      </trkpt>
      <trkpt lat="44.13952" lon="5.96657">
        <ele>464.3</ele>
        <time>2021-09-09T12:21:20Z</time>
      </trkpt>
      <trkpt lat="44.13955" lon="5.96662">
        <ele>464.1</ele>
        <time>2021-09-09T12:21:21Z</time>
      </trkpt>
      <trkpt lat="44.13962" lon="5.96671">
        <ele>463.9</ele>
        <time>2021-09-09T12:21:23Z</time>
      </trkpt>
      <trkpt lat="44.13966" lon="5.96678">
        <ele>463.7</ele>
        <time>2021-09-09T12:21:25Z</time>
      </trkpt>
      <trkpt lat="44.13968" lon="5.9668">
        <ele>463.7</ele>
        <time>2021-09-09T12:21:26Z</time>
      </trkpt>
      <trkpt lat="44.1397" lon="5.96684">
        <ele>463.8</ele>
        <time>2021-09-09T12:21:28Z</time>
      </trkpt>
      <trkpt lat="44.13971" lon="5.96689">
        <ele>463.8</ele>
        <time>2021-09-09T12:21:30Z</time>
      </trkpt>
      <trkpt lat="44.13971" lon="5.9669">
        <ele>463.8</ele>
        <time>2021-09-09T12:21:31Z</time>
      </trkpt>
      <trkpt lat="44.13972" lon="5.96691">
        <ele>463.8</ele>
        <time>2021-09-09T12:21:32Z</time>
      </trkpt>
      <trkpt lat="44.13972" lon="5.96692">
        <ele>463.8</ele>
        <time>2021-09-09T12:21:33Z</time>
      </trkpt>
      <trkpt lat="44.13971" lon="5.96695">
        <ele>463.8</ele>
        <time>2021-09-09T12:21:35Z</time>
      </trkpt>
      <trkpt lat="44.1397" lon="5.96693">
        <ele>463.8</ele>
        <time>2021-09-09T12:21:36Z</time>
      </trkpt>
      <trkpt lat="44.13969" lon="5.96691">
        <ele>463.8</ele>
        <time>2021-09-09T12:21:38Z</time>
      </trkpt>
      <trkpt lat="44.13969" lon="5.9669">
        <ele>463.8</ele>
        <time>2021-09-09T12:21:39Z</time>
      </trkpt>
      <trkpt lat="44.13967" lon="5.96682">
        <ele>463.9</ele>
        <time>2021-09-09T12:21:41Z</time>
      </trkpt>
      <trkpt lat="44.13966" lon="5.96677">
        <ele>463.9</ele>
        <time>2021-09-09T12:21:42Z</time>
      </trkpt>
      <trkpt lat="44.13965" lon="5.96669">
        <ele>464</ele>
        <time>2021-09-09T12:21:44Z</time>
      </trkpt>
      <trkpt lat="44.13965" lon="5.96663">
        <ele>464</ele>
        <time>2021-09-09T12:21:45Z</time>
      </trkpt>
      <trkpt lat="44.13966" lon="5.96659">
        <ele>464</ele>
        <time>2021-09-09T12:21:46Z</time>
      </trkpt>
      <trkpt lat="44.13966" lon="5.96658">
        <ele>464</ele>
        <time>2021-09-09T12:21:47Z</time>
      </trkpt>
      <trkpt lat="44.13965" lon="5.96657">
        <ele>464</ele>
        <time>2021-09-09T12:21:49Z</time>
      </trkpt>
      <trkpt lat="44.13965" lon="5.96656">
        <ele>464</ele>
        <time>2021-09-09T12:21:50Z</time>
      </trkpt>
      <trkpt lat="44.13965" lon="5.96655">
        <ele>464</ele>
        <time>2021-09-09T12:21:51Z</time>
      </trkpt>
      <trkpt lat="44.13965" lon="5.96653">
        <ele>464</ele>
        <time>2021-09-09T12:21:53Z</time>
      </trkpt>
      <trkpt lat="44.13965" lon="5.96652">
        <ele>464.1</ele>
        <time>2021-09-09T12:21:55Z</time>
      </trkpt>
      <trkpt lat="44.13965" lon="5.96651">
        <ele>464.1</ele>
        <time>2021-09-09T12:21:57Z</time>
      </trkpt>
      <trkpt lat="44.13965" lon="5.9665">
        <ele>464.1</ele>
        <time>2021-09-09T12:22:23Z</time>
      </trkpt>
      <trkpt lat="44.13965" lon="5.96649">
        <ele>464.2</ele>
        <time>2021-09-09T12:22:24Z</time>
      </trkpt>
      <trkpt lat="44.13958" lon="5.96634">
        <ele>464.6</ele>
        <time>2021-09-09T12:22:26Z</time>
      </trkpt>
      <trkpt lat="44.13951" lon="5.96622">
        <ele>465.1</ele>
        <time>2021-09-09T12:22:28Z</time>
      </trkpt>
      <trkpt lat="44.13946" lon="5.96614">
        <ele>465.3</ele>
        <time>2021-09-09T12:22:29Z</time>
      </trkpt>
      <trkpt lat="44.13943" lon="5.96609">
        <ele>465.5</ele>
        <time>2021-09-09T12:22:30Z</time>
      </trkpt>
      <trkpt lat="44.1394" lon="5.96601">
        <ele>465.8</ele>
        <time>2021-09-09T12:22:32Z</time>
      </trkpt>
      <trkpt lat="44.13937" lon="5.96596">
        <ele>465.9</ele>
        <time>2021-09-09T12:22:33Z</time>
      </trkpt>
      <trkpt lat="44.13935" lon="5.96592">
        <ele>466</ele>
        <time>2021-09-09T12:22:34Z</time>
      </trkpt>
      <trkpt lat="44.13932" lon="5.96586">
        <ele>466.1</ele>
        <time>2021-09-09T12:22:35Z</time>
      </trkpt>
      <trkpt lat="44.13929" lon="5.96582">
        <ele>466.2</ele>
        <time>2021-09-09T12:22:36Z</time>
      </trkpt>
      <trkpt lat="44.13924" lon="5.96576">
        <ele>466.4</ele>
        <time>2021-09-09T12:22:38Z</time>
      </trkpt>
      <trkpt lat="44.13923" lon="5.96573">
        <ele>466.5</ele>
        <time>2021-09-09T12:22:39Z</time>
      </trkpt>
      <trkpt lat="44.13921" lon="5.96569">
        <ele>466.7</ele>
        <time>2021-09-09T12:22:40Z</time>
      </trkpt>
      <trkpt lat="44.1392" lon="5.96566">
        <ele>466.8</ele>
        <time>2021-09-09T12:22:41Z</time>
      </trkpt>
      <trkpt lat="44.13918" lon="5.96562">
        <ele>466.9</ele>
        <time>2021-09-09T12:22:42Z</time>
      </trkpt>
      <trkpt lat="44.13914" lon="5.96555">
        <ele>467.3</ele>
        <time>2021-09-09T12:22:44Z</time>
      </trkpt>
      <trkpt lat="44.13912" lon="5.96551">
        <ele>467.4</ele>
        <time>2021-09-09T12:22:45Z</time>
      </trkpt>
      <trkpt lat="44.13908" lon="5.96545">
        <ele>467.7</ele>
        <time>2021-09-09T12:22:47Z</time>
      </trkpt>
      <trkpt lat="44.13906" lon="5.96538">
        <ele>468</ele>
        <time>2021-09-09T12:22:49Z</time>
      </trkpt>
      <trkpt lat="44.13903" lon="5.96532">
        <ele>468.2</ele>
        <time>2021-09-09T12:22:51Z</time>
      </trkpt>
      <trkpt lat="44.13901" lon="5.96527">
        <ele>468.4</ele>
        <time>2021-09-09T12:22:53Z</time>
      </trkpt>
      <trkpt lat="44.139" lon="5.96522">
        <ele>468.6</ele>
        <time>2021-09-09T12:22:54Z</time>
      </trkpt>
      <trkpt lat="44.13899" lon="5.96521">
        <ele>468.6</ele>
        <time>2021-09-09T12:22:55Z</time>
      </trkpt>
      <trkpt lat="44.13897" lon="5.96516">
        <ele>468.8</ele>
        <time>2021-09-09T12:22:57Z</time>
      </trkpt>
      <trkpt lat="44.13895" lon="5.96512">
        <ele>469</ele>
        <time>2021-09-09T12:22:58Z</time>
      </trkpt>
      <trkpt lat="44.13895" lon="5.9651">
        <ele>469.1</ele>
        <time>2021-09-09T12:22:59Z</time>
      </trkpt>
      <trkpt lat="44.13895" lon="5.96508">
        <ele>469.2</ele>
        <time>2021-09-09T12:23:00Z</time>
      </trkpt>
      <trkpt lat="44.13896" lon="5.96506">
        <ele>469.3</ele>
        <time>2021-09-09T12:23:02Z</time>
      </trkpt>
      <trkpt lat="44.13896" lon="5.96505">
        <ele>469.3</ele>
        <time>2021-09-09T12:23:03Z</time>
      </trkpt>
      <trkpt lat="44.13896" lon="5.96505">
        <ele>469.3</ele>
        <time>2021-09-09T12:23:04Z</time>
      </trkpt>
      <trkpt lat="44.13897" lon="5.96505">
        <ele>469.3</ele>
        <time>2021-09-09T12:23:06Z</time>
      </trkpt>
      <trkpt lat="44.13897" lon="5.96505">
        <ele>469.3</ele>
        <time>2021-09-09T12:23:07Z</time>
      </trkpt>
      <trkpt lat="44.13897" lon="5.96505">
        <ele>469.3</ele>
        <time>2021-09-09T12:23:09Z</time>
      </trkpt>
      <trkpt lat="44.13897" lon="5.96505">
        <ele>469.3</ele>
        <time>2021-09-09T12:23:10Z</time>
      </trkpt>
      <trkpt lat="44.13897" lon="5.96504">
        <ele>469.4</ele>
        <time>2021-09-09T12:23:12Z</time>
      </trkpt>
      <trkpt lat="44.13893" lon="5.96493">
        <ele>469.8</ele>
        <time>2021-09-09T12:23:16Z</time>
      </trkpt>
      <trkpt lat="44.1389" lon="5.96484">
        <ele>470</ele>
        <time>2021-09-09T12:23:18Z</time>
      </trkpt>
      <trkpt lat="44.13888" lon="5.96479">
        <ele>470</ele>
        <time>2021-09-09T12:23:19Z</time>
      </trkpt>
      <trkpt lat="44.13884" lon="5.96471">
        <ele>470.2</ele>
        <time>2021-09-09T12:23:21Z</time>
      </trkpt>
      <trkpt lat="44.13882" lon="5.96466">
        <ele>470.3</ele>
        <time>2021-09-09T12:23:22Z</time>
      </trkpt>
      <trkpt lat="44.13879" lon="5.96459">
        <ele>470.5</ele>
        <time>2021-09-09T12:23:24Z</time>
      </trkpt>
      <trkpt lat="44.13876" lon="5.96453">
        <ele>470.7</ele>
        <time>2021-09-09T12:23:26Z</time>
      </trkpt>
      <trkpt lat="44.13874" lon="5.96445">
        <ele>470.9</ele>
        <time>2021-09-09T12:23:28Z</time>
      </trkpt>
      <trkpt lat="44.13872" lon="5.96442">
        <ele>471</ele>
        <time>2021-09-09T12:23:29Z</time>
      </trkpt>
      <trkpt lat="44.1387" lon="5.96436">
        <ele>471.2</ele>
        <time>2021-09-09T12:23:31Z</time>
      </trkpt>
      <trkpt lat="44.13867" lon="5.96429">
        <ele>471.4</ele>
        <time>2021-09-09T12:23:33Z</time>
      </trkpt>
      <trkpt lat="44.13863" lon="5.96422">
        <ele>471.7</ele>
        <time>2021-09-09T12:23:35Z</time>
      </trkpt>
      <trkpt lat="44.13861" lon="5.96416">
        <ele>471.8</ele>
        <time>2021-09-09T12:23:36Z</time>
      </trkpt>
      <trkpt lat="44.13859" lon="5.96412">
        <ele>471.9</ele>
        <time>2021-09-09T12:23:37Z</time>
      </trkpt>
      <trkpt lat="44.13857" lon="5.96408">
        <ele>472</ele>
        <time>2021-09-09T12:23:38Z</time>
      </trkpt>
      <trkpt lat="44.13856" lon="5.96405">
        <ele>472.1</ele>
        <time>2021-09-09T12:23:39Z</time>
      </trkpt>
      <trkpt lat="44.13854" lon="5.96401">
        <ele>472.1</ele>
        <time>2021-09-09T12:23:40Z</time>
      </trkpt>
      <trkpt lat="44.13853" lon="5.96397">
        <ele>472.2</ele>
        <time>2021-09-09T12:23:42Z</time>
      </trkpt>
      <trkpt lat="44.13851" lon="5.96393">
        <ele>472.3</ele>
        <time>2021-09-09T12:23:43Z</time>
      </trkpt>
      <trkpt lat="44.1385" lon="5.96389">
        <ele>472.3</ele>
        <time>2021-09-09T12:23:44Z</time>
      </trkpt>
      <trkpt lat="44.13847" lon="5.96383">
        <ele>472.4</ele>
        <time>2021-09-09T12:23:45Z</time>
      </trkpt>
      <trkpt lat="44.13845" lon="5.96377">
        <ele>472.5</ele>
        <time>2021-09-09T12:23:46Z</time>
      </trkpt>
      <trkpt lat="44.13843" lon="5.96372">
        <ele>472.5</ele>
        <time>2021-09-09T12:23:48Z</time>
      </trkpt>
      <trkpt lat="44.13841" lon="5.96364">
        <ele>472.6</ele>
        <time>2021-09-09T12:23:49Z</time>
      </trkpt>
      <trkpt lat="44.13839" lon="5.96359">
        <ele>472.6</ele>
        <time>2021-09-09T12:23:50Z</time>
      </trkpt>
      <trkpt lat="44.13835" lon="5.96351">
        <ele>472.7</ele>
        <time>2021-09-09T12:23:52Z</time>
      </trkpt>
      <trkpt lat="44.13832" lon="5.96341">
        <ele>472.8</ele>
        <time>2021-09-09T12:23:54Z</time>
      </trkpt>
      <trkpt lat="44.13829" lon="5.96333">
        <ele>472.9</ele>
        <time>2021-09-09T12:23:56Z</time>
      </trkpt>
      <trkpt lat="44.13827" lon="5.96327">
        <ele>472.9</ele>
        <time>2021-09-09T12:23:57Z</time>
      </trkpt>
      <trkpt lat="44.13825" lon="5.96322">
        <ele>473</ele>
        <time>2021-09-09T12:23:58Z</time>
      </trkpt>
      <trkpt lat="44.13824" lon="5.96316">
        <ele>473</ele>
        <time>2021-09-09T12:24:00Z</time>
      </trkpt>
      <trkpt lat="44.13821" lon="5.96306">
        <ele>473.1</ele>
        <time>2021-09-09T12:24:01Z</time>
      </trkpt>
      <trkpt lat="44.13819" lon="5.96295">
        <ele>473.2</ele>
        <time>2021-09-09T12:24:03Z</time>
      </trkpt>
      <trkpt lat="44.13817" lon="5.96286">
        <ele>473.3</ele>
        <time>2021-09-09T12:24:05Z</time>
      </trkpt>
      <trkpt lat="44.13816" lon="5.96279">
        <ele>473.4</ele>
        <time>2021-09-09T12:24:06Z</time>
      </trkpt>
      <trkpt lat="44.13815" lon="5.96274">
        <ele>473.4</ele>
        <time>2021-09-09T12:24:07Z</time>
      </trkpt>
      <trkpt lat="44.13815" lon="5.96269">
        <ele>473.5</ele>
        <time>2021-09-09T12:24:08Z</time>
      </trkpt>
      <trkpt lat="44.13814" lon="5.96258">
        <ele>473.6</ele>
        <time>2021-09-09T12:24:10Z</time>
      </trkpt>
      <trkpt lat="44.13813" lon="5.96253">
        <ele>473.6</ele>
        <time>2021-09-09T12:24:11Z</time>
      </trkpt>
      <trkpt lat="44.13812" lon="5.96248">
        <ele>473.7</ele>
        <time>2021-09-09T12:24:12Z</time>
      </trkpt>
      <trkpt lat="44.1381" lon="5.96237">
        <ele>473.8</ele>
        <time>2021-09-09T12:24:14Z</time>
      </trkpt>
      <trkpt lat="44.13809" lon="5.96228">
        <ele>473.9</ele>
        <time>2021-09-09T12:24:16Z</time>
      </trkpt>
      <trkpt lat="44.13809" lon="5.96219">
        <ele>474</ele>
        <time>2021-09-09T12:24:18Z</time>
      </trkpt>
      <trkpt lat="44.13808" lon="5.96214">
        <ele>474.1</ele>
        <time>2021-09-09T12:24:19Z</time>
      </trkpt>
      <trkpt lat="44.13808" lon="5.96207">
        <ele>474.2</ele>
        <time>2021-09-09T12:24:21Z</time>
      </trkpt>
      <trkpt lat="44.13807" lon="5.96199">
        <ele>474.3</ele>
        <time>2021-09-09T12:24:22Z</time>
      </trkpt>
      <trkpt lat="44.13807" lon="5.96189">
        <ele>474.6</ele>
        <time>2021-09-09T12:24:24Z</time>
      </trkpt>
      <trkpt lat="44.13807" lon="5.96183">
        <ele>474.7</ele>
        <time>2021-09-09T12:24:25Z</time>
      </trkpt>
      <trkpt lat="44.13808" lon="5.96179">
        <ele>474.8</ele>
        <time>2021-09-09T12:24:26Z</time>
      </trkpt>
      <trkpt lat="44.13808" lon="5.96174">
        <ele>474.9</ele>
        <time>2021-09-09T12:24:27Z</time>
      </trkpt>
      <trkpt lat="44.13809" lon="5.9617">
        <ele>475.1</ele>
        <time>2021-09-09T12:24:28Z</time>
      </trkpt>
      <trkpt lat="44.13808" lon="5.96162">
        <ele>475.3</ele>
        <time>2021-09-09T12:24:30Z</time>
      </trkpt>
      <trkpt lat="44.13808" lon="5.96158">
        <ele>475.4</ele>
        <time>2021-09-09T12:24:31Z</time>
      </trkpt>
      <trkpt lat="44.13809" lon="5.96152">
        <ele>475.6</ele>
        <time>2021-09-09T12:24:33Z</time>
      </trkpt>
      <trkpt lat="44.13809" lon="5.96146">
        <ele>475.8</ele>
        <time>2021-09-09T12:24:34Z</time>
      </trkpt>
      <trkpt lat="44.13808" lon="5.96142">
        <ele>476</ele>
        <time>2021-09-09T12:24:35Z</time>
      </trkpt>
      <trkpt lat="44.13807" lon="5.9614">
        <ele>476.1</ele>
        <time>2021-09-09T12:24:36Z</time>
      </trkpt>
      <trkpt lat="44.13804" lon="5.96137">
        <ele>476.3</ele>
        <time>2021-09-09T12:24:37Z</time>
      </trkpt>
      <trkpt lat="44.13802" lon="5.96137">
        <ele>476.3</ele>
        <time>2021-09-09T12:24:38Z</time>
      </trkpt>
      <trkpt lat="44.13798" lon="5.96135">
        <ele>476.2</ele>
        <time>2021-09-09T12:24:40Z</time>
      </trkpt>
      <trkpt lat="44.13795" lon="5.96136">
        <ele>476.2</ele>
        <time>2021-09-09T12:24:41Z</time>
      </trkpt>
      <trkpt lat="44.13791" lon="5.96135">
        <ele>476.2</ele>
        <time>2021-09-09T12:24:42Z</time>
      </trkpt>
      <trkpt lat="44.1379" lon="5.96135">
        <ele>476.2</ele>
        <time>2021-09-09T12:24:43Z</time>
      </trkpt>
      <trkpt lat="44.13786" lon="5.96133">
        <ele>476.1</ele>
        <time>2021-09-09T12:24:44Z</time>
      </trkpt>
      <trkpt lat="44.13781" lon="5.9613">
        <ele>476.1</ele>
        <time>2021-09-09T12:24:46Z</time>
      </trkpt>
      <trkpt lat="44.13777" lon="5.96129">
        <ele>476</ele>
        <time>2021-09-09T12:24:48Z</time>
      </trkpt>
      <trkpt lat="44.13775" lon="5.96129">
        <ele>476</ele>
        <time>2021-09-09T12:24:49Z</time>
      </trkpt>
      <trkpt lat="44.13774" lon="5.96129">
        <ele>476</ele>
        <time>2021-09-09T12:24:50Z</time>
      </trkpt>
      <trkpt lat="44.13772" lon="5.96129">
        <ele>475.9</ele>
        <time>2021-09-09T12:24:51Z</time>
      </trkpt>
      <trkpt lat="44.13768" lon="5.96129">
        <ele>475.9</ele>
        <time>2021-09-09T12:24:53Z</time>
      </trkpt>
      <trkpt lat="44.13765" lon="5.96131">
        <ele>475.9</ele>
        <time>2021-09-09T12:24:54Z</time>
      </trkpt>
      <trkpt lat="44.13764" lon="5.96131">
        <ele>475.8</ele>
        <time>2021-09-09T12:24:55Z</time>
      </trkpt>
      <trkpt lat="44.13763" lon="5.96131">
        <ele>475.8</ele>
        <time>2021-09-09T12:24:56Z</time>
      </trkpt>
      <trkpt lat="44.13759" lon="5.96132">
        <ele>475.8</ele>
        <time>2021-09-09T12:24:58Z</time>
      </trkpt>
      <trkpt lat="44.13758" lon="5.96132">
        <ele>475.8</ele>
        <time>2021-09-09T12:24:59Z</time>
      </trkpt>
      <trkpt lat="44.13755" lon="5.96132">
        <ele>475.7</ele>
        <time>2021-09-09T12:25:01Z</time>
      </trkpt>
      <trkpt lat="44.13753" lon="5.96133">
        <ele>475.7</ele>
        <time>2021-09-09T12:25:02Z</time>
      </trkpt>
      <trkpt lat="44.13751" lon="5.96135">
        <ele>475.7</ele>
        <time>2021-09-09T12:25:04Z</time>
      </trkpt>
      <trkpt lat="44.13749" lon="5.96136">
        <ele>475.6</ele>
        <time>2021-09-09T12:25:06Z</time>
      </trkpt>
      <trkpt lat="44.13749" lon="5.96136">
        <ele>475.6</ele>
        <time>2021-09-09T12:25:08Z</time>
      </trkpt>
      <trkpt lat="44.13749" lon="5.96135">
        <ele>475.6</ele>
        <time>2021-09-09T12:25:09Z</time>
      </trkpt>
      <trkpt lat="44.13749" lon="5.96135">
        <ele>475.6</ele>
        <time>2021-09-09T12:25:11Z</time>
      </trkpt>
      <trkpt lat="44.13749" lon="5.96135">
        <ele>475.6</ele>
        <time>2021-09-09T12:25:12Z</time>
      </trkpt>
      <trkpt lat="44.13748" lon="5.96134">
        <ele>475.6</ele>
        <time>2021-09-09T12:25:13Z</time>
      </trkpt>
      <trkpt lat="44.13746" lon="5.96135">
        <ele>475.6</ele>
        <time>2021-09-09T12:25:15Z</time>
      </trkpt>
      <trkpt lat="44.13744" lon="5.96135">
        <ele>475.6</ele>
        <time>2021-09-09T12:25:17Z</time>
      </trkpt>
      <trkpt lat="44.13742" lon="5.96135">
        <ele>475.6</ele>
        <time>2021-09-09T12:25:18Z</time>
      </trkpt>
      <trkpt lat="44.1374" lon="5.96136">
        <ele>475.5</ele>
        <time>2021-09-09T12:25:19Z</time>
      </trkpt>
      <trkpt lat="44.13738" lon="5.96136">
        <ele>475.5</ele>
        <time>2021-09-09T12:25:21Z</time>
      </trkpt>
      <trkpt lat="44.13736" lon="5.96137">
        <ele>475.5</ele>
        <time>2021-09-09T12:25:23Z</time>
      </trkpt>
      <trkpt lat="44.13734" lon="5.96138">
        <ele>475.5</ele>
        <time>2021-09-09T12:29:16Z</time>
      </trkpt>
      <trkpt lat="44.13732" lon="5.96138">
        <ele>475.5</ele>
        <time>2021-09-09T12:29:17Z</time>
      </trkpt>
      <trkpt lat="44.13722" lon="5.96153">
        <ele>475.4</ele>
        <time>2021-09-09T12:29:18Z</time>
      </trkpt>
      <trkpt lat="44.13706" lon="5.9617">
        <ele>475.2</ele>
        <time>2021-09-09T12:29:20Z</time>
      </trkpt>
      <trkpt lat="44.13702" lon="5.96176">
        <ele>475.3</ele>
        <time>2021-09-09T12:29:21Z</time>
      </trkpt>
      <trkpt lat="44.13703" lon="5.96175">
        <ele>475.3</ele>
        <time>2021-09-09T12:29:23Z</time>
      </trkpt>
      <trkpt lat="44.13703" lon="5.96177">
        <ele>475.3</ele>
        <time>2021-09-09T12:29:25Z</time>
      </trkpt>
      <trkpt lat="44.13702" lon="5.96179">
        <ele>475.3</ele>
        <time>2021-09-09T12:29:26Z</time>
      </trkpt>
      <trkpt lat="44.137" lon="5.96182">
        <ele>475.3</ele>
        <time>2021-09-09T12:29:27Z</time>
      </trkpt>
      <trkpt lat="44.13699" lon="5.96186">
        <ele>475.3</ele>
        <time>2021-09-09T12:29:29Z</time>
      </trkpt>
      <trkpt lat="44.13701" lon="5.96186">
        <ele>475.3</ele>
        <time>2021-09-09T12:29:30Z</time>
      </trkpt>
      <trkpt lat="44.13702" lon="5.96185">
        <ele>475.3</ele>
        <time>2021-09-09T12:29:31Z</time>
      </trkpt>
      <trkpt lat="44.13772" lon="5.96109">
        <ele>475.4</ele>
        <time>2021-09-09T12:56:39Z</time>
      </trkpt>
      <trkpt lat="44.13763" lon="5.96115">
        <ele>475.4</ele>
        <time>2021-09-09T12:56:41Z</time>
      </trkpt>
      <trkpt lat="44.13758" lon="5.96121">
        <ele>475.4</ele>
        <time>2021-09-09T12:56:42Z</time>
      </trkpt>
      <trkpt lat="44.13753" lon="5.96127">
        <ele>475.4</ele>
        <time>2021-09-09T12:56:43Z</time>
      </trkpt>
      <trkpt lat="44.13746" lon="5.96133">
        <ele>475.4</ele>
        <time>2021-09-09T12:56:44Z</time>
      </trkpt>
      <trkpt lat="44.13741" lon="5.96137">
        <ele>475.4</ele>
        <time>2021-09-09T12:56:45Z</time>
      </trkpt>
      <trkpt lat="44.13735" lon="5.96143">
        <ele>475.4</ele>
        <time>2021-09-09T12:56:46Z</time>
      </trkpt>
      <trkpt lat="44.1373" lon="5.96147">
        <ele>475.4</ele>
        <time>2021-09-09T12:56:48Z</time>
      </trkpt>
      <trkpt lat="44.13725" lon="5.9615">
        <ele>475.4</ele>
        <time>2021-09-09T12:56:49Z</time>
      </trkpt>
      <trkpt lat="44.13719" lon="5.96155">
        <ele>475.4</ele>
        <time>2021-09-09T12:56:50Z</time>
      </trkpt>
      <trkpt lat="44.13713" lon="5.96158">
        <ele>475.4</ele>
        <time>2021-09-09T12:56:52Z</time>
      </trkpt>
      <trkpt lat="44.13709" lon="5.96162">
        <ele>475.4</ele>
        <time>2021-09-09T12:56:54Z</time>
      </trkpt>
      <trkpt lat="44.13705" lon="5.96165">
        <ele>475.4</ele>
        <time>2021-09-09T12:56:55Z</time>
      </trkpt>
      <trkpt lat="44.13702" lon="5.96168">
        <ele>475.4</ele>
        <time>2021-09-09T12:56:56Z</time>
      </trkpt>
      <trkpt lat="44.13699" lon="5.9617">
        <ele>475.4</ele>
        <time>2021-09-09T12:56:57Z</time>
      </trkpt>
      <trkpt lat="44.13695" lon="5.96176">
        <ele>475.4</ele>
        <time>2021-09-09T12:56:59Z</time>
      </trkpt>
      <trkpt lat="44.13693" lon="5.96179">
        <ele>475.4</ele>
        <time>2021-09-09T12:57:00Z</time>
      </trkpt>
      <trkpt lat="44.1369" lon="5.96183">
        <ele>475.4</ele>
        <time>2021-09-09T12:57:02Z</time>
      </trkpt>
      <trkpt lat="44.13687" lon="5.96188">
        <ele>475.4</ele>
        <time>2021-09-09T12:57:03Z</time>
      </trkpt>
      <trkpt lat="44.13681" lon="5.96194">
        <ele>475.5</ele>
        <time>2021-09-09T12:57:05Z</time>
      </trkpt>
      <trkpt lat="44.13676" lon="5.96199">
        <ele>475.4</ele>
        <time>2021-09-09T12:57:06Z</time>
      </trkpt>
      <trkpt lat="44.13671" lon="5.96201">
        <ele>475.4</ele>
        <time>2021-09-09T12:57:08Z</time>
      </trkpt>
      <trkpt lat="44.13664" lon="5.96205">
        <ele>475.4</ele>
        <time>2021-09-09T12:57:09Z</time>
      </trkpt>
      <trkpt lat="44.13657" lon="5.96209">
        <ele>475.3</ele>
        <time>2021-09-09T12:57:11Z</time>
      </trkpt>
      <trkpt lat="44.13649" lon="5.96211">
        <ele>475.2</ele>
        <time>2021-09-09T12:57:13Z</time>
      </trkpt>
      <trkpt lat="44.13641" lon="5.96213">
        <ele>475.2</ele>
        <time>2021-09-09T12:57:14Z</time>
      </trkpt>
      <trkpt lat="44.13636" lon="5.96218">
        <ele>475.1</ele>
        <time>2021-09-09T12:57:15Z</time>
      </trkpt>
      <trkpt lat="44.13626" lon="5.96225">
        <ele>475</ele>
        <time>2021-09-09T12:57:17Z</time>
      </trkpt>
      <trkpt lat="44.13618" lon="5.96228">
        <ele>474.9</ele>
        <time>2021-09-09T12:57:19Z</time>
      </trkpt>
      <trkpt lat="44.13609" lon="5.96232">
        <ele>474.9</ele>
        <time>2021-09-09T12:57:21Z</time>
      </trkpt>
      <trkpt lat="44.13604" lon="5.96235">
        <ele>474.8</ele>
        <time>2021-09-09T12:57:22Z</time>
      </trkpt>
      <trkpt lat="44.13599" lon="5.96237">
        <ele>474.7</ele>
        <time>2021-09-09T12:57:23Z</time>
      </trkpt>
      <trkpt lat="44.13594" lon="5.9624">
        <ele>474.7</ele>
        <time>2021-09-09T12:57:24Z</time>
      </trkpt>
      <trkpt lat="44.1359" lon="5.96242">
        <ele>474.6</ele>
        <time>2021-09-09T12:57:25Z</time>
      </trkpt>
      <trkpt lat="44.13586" lon="5.96244">
        <ele>474.6</ele>
        <time>2021-09-09T12:57:26Z</time>
      </trkpt>
      <trkpt lat="44.13576" lon="5.96249">
        <ele>474.5</ele>
        <time>2021-09-09T12:57:28Z</time>
      </trkpt>
      <trkpt lat="44.13571" lon="5.96252">
        <ele>474.4</ele>
        <time>2021-09-09T12:57:29Z</time>
      </trkpt>
      <trkpt lat="44.13566" lon="5.96255">
        <ele>474.4</ele>
        <time>2021-09-09T12:57:30Z</time>
      </trkpt>
      <trkpt lat="44.13556" lon="5.9626">
        <ele>474.3</ele>
        <time>2021-09-09T12:57:32Z</time>
      </trkpt>
      <trkpt lat="44.13547" lon="5.96265">
        <ele>474.2</ele>
        <time>2021-09-09T12:57:34Z</time>
      </trkpt>
      <trkpt lat="44.13542" lon="5.96267">
        <ele>474.2</ele>
        <time>2021-09-09T12:57:35Z</time>
      </trkpt>
      <trkpt lat="44.13534" lon="5.96272">
        <ele>474.1</ele>
        <time>2021-09-09T12:57:37Z</time>
      </trkpt>
      <trkpt lat="44.1353" lon="5.96275">
        <ele>474.1</ele>
        <time>2021-09-09T12:57:38Z</time>
      </trkpt>
      <trkpt lat="44.13521" lon="5.9628">
        <ele>474</ele>
        <time>2021-09-09T12:57:40Z</time>
      </trkpt>
      <trkpt lat="44.13512" lon="5.96286">
        <ele>473.9</ele>
        <time>2021-09-09T12:57:42Z</time>
      </trkpt>
      <trkpt lat="44.13507" lon="5.96289">
        <ele>473.9</ele>
        <time>2021-09-09T12:57:43Z</time>
      </trkpt>
      <trkpt lat="44.13502" lon="5.96292">
        <ele>473.9</ele>
        <time>2021-09-09T12:57:44Z</time>
      </trkpt>
      <trkpt lat="44.13492" lon="5.963">
        <ele>473.8</ele>
        <time>2021-09-09T12:57:46Z</time>
      </trkpt>
      <trkpt lat="44.13487" lon="5.96304">
        <ele>473.8</ele>
        <time>2021-09-09T12:57:47Z</time>
      </trkpt>
      <trkpt lat="44.13476" lon="5.96311">
        <ele>473.7</ele>
        <time>2021-09-09T12:57:49Z</time>
      </trkpt>
      <trkpt lat="44.13467" lon="5.96317">
        <ele>473.6</ele>
        <time>2021-09-09T12:57:51Z</time>
      </trkpt>
      <trkpt lat="44.13459" lon="5.96321">
        <ele>473.6</ele>
        <time>2021-09-09T12:57:53Z</time>
      </trkpt>
      <trkpt lat="44.13456" lon="5.96322">
        <ele>473.6</ele>
        <time>2021-09-09T12:57:54Z</time>
      </trkpt>
      <trkpt lat="44.13445" lon="5.96329">
        <ele>473.6</ele>
        <time>2021-09-09T12:57:56Z</time>
      </trkpt>
      <trkpt lat="44.1344" lon="5.96332">
        <ele>473.4</ele>
        <time>2021-09-09T12:57:57Z</time>
      </trkpt>
      <trkpt lat="44.13431" lon="5.96338">
        <ele>473.2</ele>
        <time>2021-09-09T12:57:59Z</time>
      </trkpt>
      <trkpt lat="44.13426" lon="5.96341">
        <ele>473.2</ele>
        <time>2021-09-09T12:58:00Z</time>
      </trkpt>
      <trkpt lat="44.13421" lon="5.96344">
        <ele>473.1</ele>
        <time>2021-09-09T12:58:01Z</time>
      </trkpt>
      <trkpt lat="44.13417" lon="5.96347">
        <ele>473</ele>
        <time>2021-09-09T12:58:02Z</time>
      </trkpt>
      <trkpt lat="44.13408" lon="5.96354">
        <ele>472.8</ele>
        <time>2021-09-09T12:58:04Z</time>
      </trkpt>
      <trkpt lat="44.13403" lon="5.96357">
        <ele>472.8</ele>
        <time>2021-09-09T12:58:05Z</time>
      </trkpt>
      <trkpt lat="44.13399" lon="5.9636">
        <ele>472.7</ele>
        <time>2021-09-09T12:58:06Z</time>
      </trkpt>
      <trkpt lat="44.13391" lon="5.96368">
        <ele>472.5</ele>
        <time>2021-09-09T12:58:08Z</time>
      </trkpt>
      <trkpt lat="44.13387" lon="5.96372">
        <ele>472.4</ele>
        <time>2021-09-09T12:58:09Z</time>
      </trkpt>
      <trkpt lat="44.13383" lon="5.96376">
        <ele>472.4</ele>
        <time>2021-09-09T12:58:10Z</time>
      </trkpt>
      <trkpt lat="44.13377" lon="5.96384">
        <ele>472.2</ele>
        <time>2021-09-09T12:58:12Z</time>
      </trkpt>
      <trkpt lat="44.13369" lon="5.96391">
        <ele>471.9</ele>
        <time>2021-09-09T12:58:14Z</time>
      </trkpt>
      <trkpt lat="44.13365" lon="5.96395">
        <ele>471.8</ele>
        <time>2021-09-09T12:58:15Z</time>
      </trkpt>
      <trkpt lat="44.13361" lon="5.96399">
        <ele>471.7</ele>
        <time>2021-09-09T12:58:16Z</time>
      </trkpt>
      <trkpt lat="44.13357" lon="5.96403">
        <ele>471.6</ele>
        <time>2021-09-09T12:58:17Z</time>
      </trkpt>
      <trkpt lat="44.13348" lon="5.96412">
        <ele>471.5</ele>
        <time>2021-09-09T12:58:19Z</time>
      </trkpt>
      <trkpt lat="44.13343" lon="5.96416">
        <ele>471.2</ele>
        <time>2021-09-09T12:58:20Z</time>
      </trkpt>
      <trkpt lat="44.13332" lon="5.96422">
        <ele>470.7</ele>
        <time>2021-09-09T12:58:22Z</time>
      </trkpt>
      <trkpt lat="44.13327" lon="5.96426">
        <ele>470.5</ele>
        <time>2021-09-09T12:58:23Z</time>
      </trkpt>
      <trkpt lat="44.13321" lon="5.96429">
        <ele>470.4</ele>
        <time>2021-09-09T12:58:24Z</time>
      </trkpt>
      <trkpt lat="44.13316" lon="5.96434">
        <ele>470.3</ele>
        <time>2021-09-09T12:58:25Z</time>
      </trkpt>
      <trkpt lat="44.13304" lon="5.96443">
        <ele>470.6</ele>
        <time>2021-09-09T12:58:27Z</time>
      </trkpt>
      <trkpt lat="44.13293" lon="5.9645">
        <ele>471.4</ele>
        <time>2021-09-09T12:58:29Z</time>
      </trkpt>
      <trkpt lat="44.13285" lon="5.96455">
        <ele>471.6</ele>
        <time>2021-09-09T12:58:31Z</time>
      </trkpt>
      <trkpt lat="44.13281" lon="5.96459">
        <ele>471.9</ele>
        <time>2021-09-09T12:58:33Z</time>
      </trkpt>
      <trkpt lat="44.13278" lon="5.96461">
        <ele>472</ele>
        <time>2021-09-09T12:58:34Z</time>
      </trkpt>
      <trkpt lat="44.13275" lon="5.96465">
        <ele>472.2</ele>
        <time>2021-09-09T12:58:36Z</time>
      </trkpt>
      <trkpt lat="44.13272" lon="5.96469">
        <ele>472.3</ele>
        <time>2021-09-09T12:58:37Z</time>
      </trkpt>
      <trkpt lat="44.13272" lon="5.96469">
        <ele>472.4</ele>
        <time>2021-09-09T12:58:38Z</time>
      </trkpt>
      <trkpt lat="44.13272" lon="5.9647">
        <ele>472.4</ele>
        <time>2021-09-09T12:58:39Z</time>
      </trkpt>
      <trkpt lat="44.13268" lon="5.96474">
        <ele>472.6</ele>
        <time>2021-09-09T12:58:41Z</time>
      </trkpt>
      <trkpt lat="44.13265" lon="5.96476">
        <ele>472.7</ele>
        <time>2021-09-09T12:58:42Z</time>
      </trkpt>
      <trkpt lat="44.1326" lon="5.9648">
        <ele>472.8</ele>
        <time>2021-09-09T12:58:44Z</time>
      </trkpt>
      <trkpt lat="44.13255" lon="5.96485">
        <ele>473</ele>
        <time>2021-09-09T12:58:46Z</time>
      </trkpt>
      <trkpt lat="44.13253" lon="5.96487">
        <ele>473.1</ele>
        <time>2021-09-09T12:58:47Z</time>
      </trkpt>
      <trkpt lat="44.13248" lon="5.96491">
        <ele>473.2</ele>
        <time>2021-09-09T12:58:49Z</time>
      </trkpt>
      <trkpt lat="44.13244" lon="5.96494">
        <ele>473.3</ele>
        <time>2021-09-09T12:58:51Z</time>
      </trkpt>
      <trkpt lat="44.1324" lon="5.96499">
        <ele>473.4</ele>
        <time>2021-09-09T12:58:52Z</time>
      </trkpt>
      <trkpt lat="44.13234" lon="5.96502">
        <ele>473.6</ele>
        <time>2021-09-09T12:58:54Z</time>
      </trkpt>
      <trkpt lat="44.13231" lon="5.96504">
        <ele>473.6</ele>
        <time>2021-09-09T12:58:56Z</time>
      </trkpt>
      <trkpt lat="44.13228" lon="5.96505">
        <ele>473.7</ele>
        <time>2021-09-09T12:58:57Z</time>
      </trkpt>
      <trkpt lat="44.13224" lon="5.96506">
        <ele>473.8</ele>
        <time>2021-09-09T12:58:58Z</time>
      </trkpt>
      <trkpt lat="44.13219" lon="5.96508">
        <ele>473.9</ele>
        <time>2021-09-09T12:59:00Z</time>
      </trkpt>
      <trkpt lat="44.13214" lon="5.96511">
        <ele>474.1</ele>
        <time>2021-09-09T12:59:01Z</time>
      </trkpt>
      <trkpt lat="44.13209" lon="5.96515">
        <ele>474.2</ele>
        <time>2021-09-09T12:59:03Z</time>
      </trkpt>
      <trkpt lat="44.13206" lon="5.96517">
        <ele>474.3</ele>
        <time>2021-09-09T12:59:05Z</time>
      </trkpt>
      <trkpt lat="44.13203" lon="5.96519">
        <ele>474.4</ele>
        <time>2021-09-09T12:59:06Z</time>
      </trkpt>
      <trkpt lat="44.13198" lon="5.96522">
        <ele>474.6</ele>
        <time>2021-09-09T12:59:08Z</time>
      </trkpt>
      <trkpt lat="44.13194" lon="5.96525">
        <ele>474.7</ele>
        <time>2021-09-09T12:59:09Z</time>
      </trkpt>
      <trkpt lat="44.13188" lon="5.96527">
        <ele>474.9</ele>
        <time>2021-09-09T12:59:11Z</time>
      </trkpt>
      <trkpt lat="44.13186" lon="5.96528">
        <ele>475</ele>
        <time>2021-09-09T12:59:12Z</time>
      </trkpt>
      <trkpt lat="44.1318" lon="5.96531">
        <ele>475.2</ele>
        <time>2021-09-09T12:59:14Z</time>
      </trkpt>
      <trkpt lat="44.13177" lon="5.96534">
        <ele>475.4</ele>
        <time>2021-09-09T12:59:15Z</time>
      </trkpt>
      <trkpt lat="44.13174" lon="5.96536">
        <ele>475.5</ele>
        <time>2021-09-09T12:59:17Z</time>
      </trkpt>
      <trkpt lat="44.13173" lon="5.96536">
        <ele>475.5</ele>
        <time>2021-09-09T12:59:18Z</time>
      </trkpt>
      <trkpt lat="44.13168" lon="5.96535">
        <ele>475.8</ele>
        <time>2021-09-09T12:59:20Z</time>
      </trkpt>
      <trkpt lat="44.13164" lon="5.96535">
        <ele>475.9</ele>
        <time>2021-09-09T12:59:21Z</time>
      </trkpt>
      <trkpt lat="44.1316" lon="5.96536">
        <ele>476.2</ele>
        <time>2021-09-09T12:59:23Z</time>
      </trkpt>
      <trkpt lat="44.13156" lon="5.96535">
        <ele>476.4</ele>
        <time>2021-09-09T12:59:25Z</time>
      </trkpt>
      <trkpt lat="44.13154" lon="5.96535">
        <ele>476.5</ele>
        <time>2021-09-09T12:59:26Z</time>
      </trkpt>
      <trkpt lat="44.13153" lon="5.96534">
        <ele>476.5</ele>
        <time>2021-09-09T12:59:27Z</time>
      </trkpt>
      <trkpt lat="44.13148" lon="5.96533">
        <ele>476.8</ele>
        <time>2021-09-09T12:59:28Z</time>
      </trkpt>
      <trkpt lat="44.13146" lon="5.96532">
        <ele>476.9</ele>
        <time>2021-09-09T12:59:30Z</time>
      </trkpt>
      <trkpt lat="44.13143" lon="5.96532">
        <ele>477.1</ele>
        <time>2021-09-09T12:59:31Z</time>
      </trkpt>
      <trkpt lat="44.1314" lon="5.96532">
        <ele>477.2</ele>
        <time>2021-09-09T12:59:32Z</time>
      </trkpt>
      <trkpt lat="44.13137" lon="5.96532">
        <ele>477.4</ele>
        <time>2021-09-09T12:59:33Z</time>
      </trkpt>
      <trkpt lat="44.13134" lon="5.96533">
        <ele>477.6</ele>
        <time>2021-09-09T12:59:35Z</time>
      </trkpt>
      <trkpt lat="44.13129" lon="5.96536">
        <ele>477.9</ele>
        <time>2021-09-09T12:59:36Z</time>
      </trkpt>
      <trkpt lat="44.13126" lon="5.96537">
        <ele>478</ele>
        <time>2021-09-09T12:59:38Z</time>
      </trkpt>
      <trkpt lat="44.13125" lon="5.96538">
        <ele>478.2</ele>
        <time>2021-09-09T12:59:39Z</time>
      </trkpt>
      <trkpt lat="44.13121" lon="5.96538">
        <ele>478.4</ele>
        <time>2021-09-09T12:59:41Z</time>
      </trkpt>
      <trkpt lat="44.13118" lon="5.9654">
        <ele>478.6</ele>
        <time>2021-09-09T12:59:43Z</time>
      </trkpt>
      <trkpt lat="44.13114" lon="5.96542">
        <ele>478.9</ele>
        <time>2021-09-09T12:59:44Z</time>
      </trkpt>
      <trkpt lat="44.13111" lon="5.96544">
        <ele>479.2</ele>
        <time>2021-09-09T12:59:46Z</time>
      </trkpt>
      <trkpt lat="44.1311" lon="5.96544">
        <ele>479.3</ele>
        <time>2021-09-09T12:59:47Z</time>
      </trkpt>
      <trkpt lat="44.13107" lon="5.96546">
        <ele>479.5</ele>
        <time>2021-09-09T12:59:48Z</time>
      </trkpt>
      <trkpt lat="44.13106" lon="5.96546">
        <ele>479.7</ele>
        <time>2021-09-09T12:59:49Z</time>
      </trkpt>
      <trkpt lat="44.13103" lon="5.96547">
        <ele>479.9</ele>
        <time>2021-09-09T12:59:51Z</time>
      </trkpt>
      <trkpt lat="44.131" lon="5.9655">
        <ele>480.2</ele>
        <time>2021-09-09T12:59:53Z</time>
      </trkpt>
      <trkpt lat="44.13097" lon="5.96552">
        <ele>480.5</ele>
        <time>2021-09-09T12:59:54Z</time>
      </trkpt>
      <trkpt lat="44.13095" lon="5.96554">
        <ele>480.6</ele>
        <time>2021-09-09T12:59:55Z</time>
      </trkpt>
      <trkpt lat="44.13093" lon="5.96556">
        <ele>480.8</ele>
        <time>2021-09-09T12:59:57Z</time>
      </trkpt>
      <trkpt lat="44.13093" lon="5.96557">
        <ele>480.9</ele>
        <time>2021-09-09T12:59:58Z</time>
      </trkpt>
      <trkpt lat="44.13092" lon="5.9656">
        <ele>481.1</ele>
        <time>2021-09-09T12:59:59Z</time>
      </trkpt>
      <trkpt lat="44.13092" lon="5.96562">
        <ele>481.1</ele>
        <time>2021-09-09T13:00:01Z</time>
      </trkpt>
      <trkpt lat="44.13092" lon="5.96563">
        <ele>481.2</ele>
        <time>2021-09-09T13:00:02Z</time>
      </trkpt>
      <trkpt lat="44.13092" lon="5.96566">
        <ele>481.8</ele>
        <time>2021-09-09T13:00:03Z</time>
      </trkpt>
      <trkpt lat="44.13092" lon="5.96571">
        <ele>481.8</ele>
        <time>2021-09-09T13:00:05Z</time>
      </trkpt>
      <trkpt lat="44.13092" lon="5.96576">
        <ele>481.9</ele>
        <time>2021-09-09T13:00:07Z</time>
      </trkpt>
      <trkpt lat="44.13091" lon="5.96581">
        <ele>481.9</ele>
        <time>2021-09-09T13:00:08Z</time>
      </trkpt>
      <trkpt lat="44.13091" lon="5.96583">
        <ele>481.9</ele>
        <time>2021-09-09T13:00:09Z</time>
      </trkpt>
      <trkpt lat="44.1309" lon="5.96587">
        <ele>481.9</ele>
        <time>2021-09-09T13:00:10Z</time>
      </trkpt>
      <trkpt lat="44.13091" lon="5.96594">
        <ele>481.9</ele>
        <time>2021-09-09T13:00:11Z</time>
      </trkpt>
      <trkpt lat="44.13092" lon="5.96602">
        <ele>481.9</ele>
        <time>2021-09-09T13:00:13Z</time>
      </trkpt>
      <trkpt lat="44.13093" lon="5.96607">
        <ele>481.9</ele>
        <time>2021-09-09T13:00:15Z</time>
      </trkpt>
      <trkpt lat="44.13093" lon="5.96614">
        <ele>481.9</ele>
        <time>2021-09-09T13:00:16Z</time>
      </trkpt>
      <trkpt lat="44.13092" lon="5.96622">
        <ele>481.9</ele>
        <time>2021-09-09T13:00:18Z</time>
      </trkpt>
      <trkpt lat="44.13088" lon="5.96633">
        <ele>481.8</ele>
        <time>2021-09-09T13:00:19Z</time>
      </trkpt>
      <trkpt lat="44.13086" lon="5.96639">
        <ele>481.7</ele>
        <time>2021-09-09T13:00:21Z</time>
      </trkpt>
      <trkpt lat="44.13085" lon="5.96646">
        <ele>481.7</ele>
        <time>2021-09-09T13:00:22Z</time>
      </trkpt>
      <trkpt lat="44.13083" lon="5.96651">
        <ele>481.7</ele>
        <time>2021-09-09T13:00:24Z</time>
      </trkpt>
      <trkpt lat="44.13081" lon="5.96658">
        <ele>481.6</ele>
        <time>2021-09-09T13:00:25Z</time>
      </trkpt>
      <trkpt lat="44.13081" lon="5.96661">
        <ele>481.6</ele>
        <time>2021-09-09T13:00:26Z</time>
      </trkpt>
      <trkpt lat="44.13079" lon="5.96666">
        <ele>481.6</ele>
        <time>2021-09-09T13:00:28Z</time>
      </trkpt>
      <trkpt lat="44.13079" lon="5.96669">
        <ele>481.6</ele>
        <time>2021-09-09T13:00:29Z</time>
      </trkpt>
      <trkpt lat="44.13078" lon="5.96675">
        <ele>481.6</ele>
        <time>2021-09-09T13:00:30Z</time>
      </trkpt>
      <trkpt lat="44.13076" lon="5.96683">
        <ele>481.6</ele>
        <time>2021-09-09T13:00:32Z</time>
      </trkpt>
      <trkpt lat="44.13075" lon="5.96688">
        <ele>481.6</ele>
        <time>2021-09-09T13:00:33Z</time>
      </trkpt>
      <trkpt lat="44.13074" lon="5.96692">
        <ele>481.6</ele>
        <time>2021-09-09T13:00:34Z</time>
      </trkpt>
      <trkpt lat="44.13073" lon="5.967">
        <ele>481.6</ele>
        <time>2021-09-09T13:00:35Z</time>
      </trkpt>
      <trkpt lat="44.13071" lon="5.96704">
        <ele>481.6</ele>
        <time>2021-09-09T13:00:36Z</time>
      </trkpt>
      <trkpt lat="44.1307" lon="5.96709">
        <ele>481.6</ele>
        <time>2021-09-09T13:00:37Z</time>
      </trkpt>
      <trkpt lat="44.13067" lon="5.96718">
        <ele>481.5</ele>
        <time>2021-09-09T13:00:39Z</time>
      </trkpt>
      <trkpt lat="44.13066" lon="5.96724">
        <ele>481.5</ele>
        <time>2021-09-09T13:00:40Z</time>
      </trkpt>
      <trkpt lat="44.13063" lon="5.96734">
        <ele>481.5</ele>
        <time>2021-09-09T13:00:42Z</time>
      </trkpt>
      <trkpt lat="44.13062" lon="5.96744">
        <ele>481.5</ele>
        <time>2021-09-09T13:00:44Z</time>
      </trkpt>
      <trkpt lat="44.1306" lon="5.96751">
        <ele>481.5</ele>
        <time>2021-09-09T13:00:46Z</time>
      </trkpt>
      <trkpt lat="44.13057" lon="5.96758">
        <ele>481.5</ele>
        <time>2021-09-09T13:00:47Z</time>
      </trkpt>
      <trkpt lat="44.13055" lon="5.96767">
        <ele>481.5</ele>
        <time>2021-09-09T13:00:49Z</time>
      </trkpt>
      <trkpt lat="44.13053" lon="5.96773">
        <ele>481.5</ele>
        <time>2021-09-09T13:00:50Z</time>
      </trkpt>
      <trkpt lat="44.1305" lon="5.96783">
        <ele>481.5</ele>
        <time>2021-09-09T13:00:51Z</time>
      </trkpt>
      <trkpt lat="44.13046" lon="5.96793">
        <ele>481.4</ele>
        <time>2021-09-09T13:00:53Z</time>
      </trkpt>
      <trkpt lat="44.13045" lon="5.96799">
        <ele>481.4</ele>
        <time>2021-09-09T13:00:54Z</time>
      </trkpt>
      <trkpt lat="44.13044" lon="5.96803">
        <ele>481.4</ele>
        <time>2021-09-09T13:00:55Z</time>
      </trkpt>
      <trkpt lat="44.13042" lon="5.9681">
        <ele>481.4</ele>
        <time>2021-09-09T13:00:56Z</time>
      </trkpt>
      <trkpt lat="44.13041" lon="5.96816">
        <ele>481.3</ele>
        <time>2021-09-09T13:00:57Z</time>
      </trkpt>
      <trkpt lat="44.13041" lon="5.96829">
        <ele>481.2</ele>
        <time>2021-09-09T13:00:59Z</time>
      </trkpt>
      <trkpt lat="44.13038" lon="5.96836">
        <ele>481.1</ele>
        <time>2021-09-09T13:01:00Z</time>
      </trkpt>
      <trkpt lat="44.13034" lon="5.96849">
        <ele>481.1</ele>
        <time>2021-09-09T13:01:02Z</time>
      </trkpt>
      <trkpt lat="44.13034" lon="5.96855">
        <ele>481</ele>
        <time>2021-09-09T13:01:03Z</time>
      </trkpt>
      <trkpt lat="44.13033" lon="5.9686">
        <ele>481</ele>
        <time>2021-09-09T13:01:04Z</time>
      </trkpt>
      <trkpt lat="44.13033" lon="5.96871">
        <ele>481</ele>
        <time>2021-09-09T13:01:06Z</time>
      </trkpt>
      <trkpt lat="44.13031" lon="5.96878">
        <ele>481</ele>
        <time>2021-09-09T13:01:07Z</time>
      </trkpt>
      <trkpt lat="44.1303" lon="5.96884">
        <ele>481</ele>
        <time>2021-09-09T13:01:08Z</time>
      </trkpt>
      <trkpt lat="44.13028" lon="5.96888">
        <ele>481</ele>
        <time>2021-09-09T13:01:09Z</time>
      </trkpt>
      <trkpt lat="44.13023" lon="5.96894">
        <ele>481</ele>
        <time>2021-09-09T13:01:10Z</time>
      </trkpt>
      <trkpt lat="44.13016" lon="5.96904">
        <ele>481</ele>
        <time>2021-09-09T13:01:12Z</time>
      </trkpt>
      <trkpt lat="44.13008" lon="5.96913">
        <ele>481</ele>
        <time>2021-09-09T13:01:14Z</time>
      </trkpt>
      <trkpt lat="44.13002" lon="5.96923">
        <ele>481.1</ele>
        <time>2021-09-09T13:01:16Z</time>
      </trkpt>
      <trkpt lat="44.12998" lon="5.96929">
        <ele>481.1</ele>
        <time>2021-09-09T13:01:17Z</time>
      </trkpt>
      <trkpt lat="44.12995" lon="5.96934">
        <ele>481.2</ele>
        <time>2021-09-09T13:01:18Z</time>
      </trkpt>
      <trkpt lat="44.12987" lon="5.96939">
        <ele>481.2</ele>
        <time>2021-09-09T13:01:20Z</time>
      </trkpt>
      <trkpt lat="44.12984" lon="5.96943">
        <ele>481.3</ele>
        <time>2021-09-09T13:01:21Z</time>
      </trkpt>
      <trkpt lat="44.12978" lon="5.96947">
        <ele>482.5</ele>
        <time>2021-09-09T13:01:22Z</time>
      </trkpt>
      <trkpt lat="44.12974" lon="5.96951">
        <ele>482.7</ele>
        <time>2021-09-09T13:01:24Z</time>
      </trkpt>
      <trkpt lat="44.12973" lon="5.96957">
        <ele>482.9</ele>
        <time>2021-09-09T13:01:26Z</time>
      </trkpt>
      <trkpt lat="44.12971" lon="5.96956">
        <ele>483</ele>
        <time>2021-09-09T13:01:27Z</time>
      </trkpt>
      <trkpt lat="44.12969" lon="5.96954">
        <ele>483.1</ele>
        <time>2021-09-09T13:01:29Z</time>
      </trkpt>
      <trkpt lat="44.12968" lon="5.9695">
        <ele>483.3</ele>
        <time>2021-09-09T13:01:30Z</time>
      </trkpt>
      <trkpt lat="44.12968" lon="5.96948">
        <ele>483.4</ele>
        <time>2021-09-09T13:01:31Z</time>
      </trkpt>
      <trkpt lat="44.12966" lon="5.96942">
        <ele>483.6</ele>
        <time>2021-09-09T13:01:33Z</time>
      </trkpt>
      <trkpt lat="44.12964" lon="5.9694">
        <ele>483.8</ele>
        <time>2021-09-09T13:01:34Z</time>
      </trkpt>
      <trkpt lat="44.1296" lon="5.9694">
        <ele>483.7</ele>
        <time>2021-09-09T13:01:36Z</time>
      </trkpt>
      <trkpt lat="44.12958" lon="5.96945">
        <ele>483.6</ele>
        <time>2021-09-09T13:01:37Z</time>
      </trkpt>
      <trkpt lat="44.12956" lon="5.96951">
        <ele>483.5</ele>
        <time>2021-09-09T13:01:39Z</time>
      </trkpt>
      <trkpt lat="44.12954" lon="5.96957">
        <ele>483.5</ele>
        <time>2021-09-09T13:01:41Z</time>
      </trkpt>
      <trkpt lat="44.12949" lon="5.96964">
        <ele>483.6</ele>
        <time>2021-09-09T13:01:42Z</time>
      </trkpt>
      <trkpt lat="44.12944" lon="5.96971">
        <ele>483.7</ele>
        <time>2021-09-09T13:01:44Z</time>
      </trkpt>
      <trkpt lat="44.1294" lon="5.96977">
        <ele>483.8</ele>
        <time>2021-09-09T13:01:46Z</time>
      </trkpt>
      <trkpt lat="44.12938" lon="5.96981">
        <ele>483.8</ele>
        <time>2021-09-09T13:01:47Z</time>
      </trkpt>
      <trkpt lat="44.12937" lon="5.96987">
        <ele>483.9</ele>
        <time>2021-09-09T13:01:48Z</time>
      </trkpt>
      <trkpt lat="44.12936" lon="5.96989">
        <ele>484</ele>
        <time>2021-09-09T13:01:49Z</time>
      </trkpt>
      <trkpt lat="44.12933" lon="5.96992">
        <ele>484.1</ele>
        <time>2021-09-09T13:01:51Z</time>
      </trkpt>
      <trkpt lat="44.1293" lon="5.96994">
        <ele>484.2</ele>
        <time>2021-09-09T13:01:53Z</time>
      </trkpt>
      <trkpt lat="44.12927" lon="5.96997">
        <ele>484.2</ele>
        <time>2021-09-09T13:01:54Z</time>
      </trkpt>
      <trkpt lat="44.12926" lon="5.97001">
        <ele>484.3</ele>
        <time>2021-09-09T13:01:56Z</time>
      </trkpt>
      <trkpt lat="44.12925" lon="5.97004">
        <ele>484.4</ele>
        <time>2021-09-09T13:01:57Z</time>
      </trkpt>
      <trkpt lat="44.12915" lon="5.97016">
        <ele>484.7</ele>
        <time>2021-09-09T13:02:01Z</time>
      </trkpt>
      <trkpt lat="44.1291" lon="5.97022">
        <ele>484.8</ele>
        <time>2021-09-09T13:02:02Z</time>
      </trkpt>
      <trkpt lat="44.12907" lon="5.97026">
        <ele>484.9</ele>
        <time>2021-09-09T13:02:03Z</time>
      </trkpt>
      <trkpt lat="44.12904" lon="5.97031">
        <ele>485</ele>
        <time>2021-09-09T13:02:04Z</time>
      </trkpt>
      <trkpt lat="44.129" lon="5.97036">
        <ele>485.1</ele>
        <time>2021-09-09T13:02:06Z</time>
      </trkpt>
      <trkpt lat="44.12897" lon="5.9704">
        <ele>485.1</ele>
        <time>2021-09-09T13:02:07Z</time>
      </trkpt>
      <trkpt lat="44.12895" lon="5.97043">
        <ele>485.1</ele>
        <time>2021-09-09T13:02:08Z</time>
      </trkpt>
      <trkpt lat="44.12892" lon="5.97046">
        <ele>485.1</ele>
        <time>2021-09-09T13:02:09Z</time>
      </trkpt>
      <trkpt lat="44.1289" lon="5.97048">
        <ele>485.2</ele>
        <time>2021-09-09T13:02:10Z</time>
      </trkpt>
      <trkpt lat="44.12886" lon="5.97049">
        <ele>485.2</ele>
        <time>2021-09-09T13:02:11Z</time>
      </trkpt>
      <trkpt lat="44.12882" lon="5.9705">
        <ele>485.2</ele>
        <time>2021-09-09T13:02:13Z</time>
      </trkpt>
      <trkpt lat="44.12876" lon="5.97054">
        <ele>485.3</ele>
        <time>2021-09-09T13:02:15Z</time>
      </trkpt>
      <trkpt lat="44.12874" lon="5.97055">
        <ele>485.3</ele>
        <time>2021-09-09T13:02:16Z</time>
      </trkpt>
      <trkpt lat="44.12871" lon="5.97058">
        <ele>485.4</ele>
        <time>2021-09-09T13:02:17Z</time>
      </trkpt>
      <trkpt lat="44.12869" lon="5.97064">
        <ele>485.4</ele>
        <time>2021-09-09T13:02:19Z</time>
      </trkpt>
      <trkpt lat="44.12869" lon="5.97069">
        <ele>485.5</ele>
        <time>2021-09-09T13:02:20Z</time>
      </trkpt>
      <trkpt lat="44.12869" lon="5.97071">
        <ele>485.5</ele>
        <time>2021-09-09T13:02:21Z</time>
      </trkpt>
      <trkpt lat="44.12868" lon="5.97075">
        <ele>485.5</ele>
        <time>2021-09-09T13:02:22Z</time>
      </trkpt>
      <trkpt lat="44.12867" lon="5.97079">
        <ele>485.6</ele>
        <time>2021-09-09T13:02:23Z</time>
      </trkpt>
      <trkpt lat="44.12865" lon="5.97086">
        <ele>485.6</ele>
        <time>2021-09-09T13:02:24Z</time>
      </trkpt>
      <trkpt lat="44.12863" lon="5.97092">
        <ele>485.7</ele>
        <time>2021-09-09T13:02:26Z</time>
      </trkpt>
      <trkpt lat="44.12861" lon="5.97095">
        <ele>485.7</ele>
        <time>2021-09-09T13:02:27Z</time>
      </trkpt>
      <trkpt lat="44.12856" lon="5.97102">
        <ele>485.8</ele>
        <time>2021-09-09T13:02:28Z</time>
      </trkpt>
      <trkpt lat="44.12849" lon="5.97109">
        <ele>485.8</ele>
        <time>2021-09-09T13:02:30Z</time>
      </trkpt>
      <trkpt lat="44.12845" lon="5.97115">
        <ele>485.8</ele>
        <time>2021-09-09T13:02:32Z</time>
      </trkpt>
      <trkpt lat="44.12843" lon="5.9712">
        <ele>485.8</ele>
        <time>2021-09-09T13:02:34Z</time>
      </trkpt>
      <trkpt lat="44.12841" lon="5.97125">
        <ele>485.8</ele>
        <time>2021-09-09T13:02:35Z</time>
      </trkpt>
      <trkpt lat="44.1284" lon="5.97129">
        <ele>485.9</ele>
        <time>2021-09-09T13:02:37Z</time>
      </trkpt>
      <trkpt lat="44.12839" lon="5.97133">
        <ele>485.9</ele>
        <time>2021-09-09T13:02:38Z</time>
      </trkpt>
      <trkpt lat="44.12837" lon="5.97137">
        <ele>486</ele>
        <time>2021-09-09T13:02:39Z</time>
      </trkpt>
      <trkpt lat="44.12835" lon="5.97143">
        <ele>486.1</ele>
        <time>2021-09-09T13:02:40Z</time>
      </trkpt>
      <trkpt lat="44.12831" lon="5.9715">
        <ele>486.1</ele>
        <time>2021-09-09T13:02:42Z</time>
      </trkpt>
      <trkpt lat="44.12828" lon="5.97156">
        <ele>486.2</ele>
        <time>2021-09-09T13:02:44Z</time>
      </trkpt>
      <trkpt lat="44.12825" lon="5.97159">
        <ele>486.2</ele>
        <time>2021-09-09T13:02:45Z</time>
      </trkpt>
      <trkpt lat="44.1282" lon="5.97165">
        <ele>486.2</ele>
        <time>2021-09-09T13:02:46Z</time>
      </trkpt>
      <trkpt lat="44.12815" lon="5.9717">
        <ele>486.1</ele>
        <time>2021-09-09T13:02:48Z</time>
      </trkpt>
      <trkpt lat="44.1281" lon="5.97175">
        <ele>486</ele>
        <time>2021-09-09T13:02:49Z</time>
      </trkpt>
      <trkpt lat="44.12806" lon="5.97177">
        <ele>485.8</ele>
        <time>2021-09-09T13:02:50Z</time>
      </trkpt>
      <trkpt lat="44.12803" lon="5.97179">
        <ele>485.6</ele>
        <time>2021-09-09T13:02:51Z</time>
      </trkpt>
      <trkpt lat="44.128" lon="5.97183">
        <ele>485.4</ele>
        <time>2021-09-09T13:02:53Z</time>
      </trkpt>
      <trkpt lat="44.12798" lon="5.97186">
        <ele>485.2</ele>
        <time>2021-09-09T13:02:54Z</time>
      </trkpt>
      <trkpt lat="44.12794" lon="5.97191">
        <ele>484.8</ele>
        <time>2021-09-09T13:02:55Z</time>
      </trkpt>
      <trkpt lat="44.12789" lon="5.97195">
        <ele>484.2</ele>
        <time>2021-09-09T13:02:57Z</time>
      </trkpt>
      <trkpt lat="44.12784" lon="5.972">
        <ele>483.7</ele>
        <time>2021-09-09T13:02:58Z</time>
      </trkpt>
      <trkpt lat="44.12774" lon="5.97214">
        <ele>482.4</ele>
        <time>2021-09-09T13:03:00Z</time>
      </trkpt>
      <trkpt lat="44.12769" lon="5.97223">
        <ele>481.7</ele>
        <time>2021-09-09T13:03:01Z</time>
      </trkpt>
      <trkpt lat="44.12765" lon="5.97233">
        <ele>480.9</ele>
        <time>2021-09-09T13:03:02Z</time>
      </trkpt>
      <trkpt lat="44.12759" lon="5.97256">
        <ele>479.3</ele>
        <time>2021-09-09T13:03:04Z</time>
      </trkpt>
      <trkpt lat="44.12756" lon="5.97269">
        <ele>478.5</ele>
        <time>2021-09-09T13:03:05Z</time>
      </trkpt>
      <trkpt lat="44.12753" lon="5.9728">
        <ele>477.8</ele>
        <time>2021-09-09T13:03:06Z</time>
      </trkpt>
      <trkpt lat="44.12746" lon="5.97304">
        <ele>476.7</ele>
        <time>2021-09-09T13:03:08Z</time>
      </trkpt>
      <trkpt lat="44.12742" lon="5.97316">
        <ele>476.2</ele>
        <time>2021-09-09T13:03:09Z</time>
      </trkpt>
      <trkpt lat="44.12734" lon="5.97339">
        <ele>475.4</ele>
        <time>2021-09-09T13:03:11Z</time>
      </trkpt>
      <trkpt lat="44.1273" lon="5.97349">
        <ele>475</ele>
        <time>2021-09-09T13:03:12Z</time>
      </trkpt>
      <trkpt lat="44.12726" lon="5.97359">
        <ele>474.7</ele>
        <time>2021-09-09T13:03:13Z</time>
      </trkpt>
      <trkpt lat="44.12719" lon="5.97377">
        <ele>474.2</ele>
        <time>2021-09-09T13:03:15Z</time>
      </trkpt>
      <trkpt lat="44.12716" lon="5.97387">
        <ele>473.9</ele>
        <time>2021-09-09T13:03:16Z</time>
      </trkpt>
      <trkpt lat="44.12712" lon="5.97395">
        <ele>473.7</ele>
        <time>2021-09-09T13:03:17Z</time>
      </trkpt>
      <trkpt lat="44.12708" lon="5.97404">
        <ele>473.4</ele>
        <time>2021-09-09T13:03:18Z</time>
      </trkpt>
      <trkpt lat="44.12704" lon="5.97412">
        <ele>473.3</ele>
        <time>2021-09-09T13:03:19Z</time>
      </trkpt>
      <trkpt lat="44.12696" lon="5.97427">
        <ele>473</ele>
        <time>2021-09-09T13:03:21Z</time>
      </trkpt>
      <trkpt lat="44.12689" lon="5.97441">
        <ele>472.9</ele>
        <time>2021-09-09T13:03:23Z</time>
      </trkpt>
      <trkpt lat="44.12686" lon="5.97447">
        <ele>472.8</ele>
        <time>2021-09-09T13:03:24Z</time>
      </trkpt>
      <trkpt lat="44.1268" lon="5.9746">
        <ele>472.8</ele>
        <time>2021-09-09T13:03:26Z</time>
      </trkpt>
      <trkpt lat="44.12673" lon="5.97472">
        <ele>472.8</ele>
        <time>2021-09-09T13:03:28Z</time>
      </trkpt>
      <trkpt lat="44.12671" lon="5.97477">
        <ele>472.8</ele>
        <time>2021-09-09T13:03:29Z</time>
      </trkpt>
      <trkpt lat="44.12668" lon="5.97483">
        <ele>472.8</ele>
        <time>2021-09-09T13:03:30Z</time>
      </trkpt>
      <trkpt lat="44.12666" lon="5.97486">
        <ele>472.8</ele>
        <time>2021-09-09T13:03:31Z</time>
      </trkpt>
      <trkpt lat="44.12661" lon="5.97499">
        <ele>472.8</ele>
        <time>2021-09-09T13:03:33Z</time>
      </trkpt>
      <trkpt lat="44.12658" lon="5.97504">
        <ele>472.7</ele>
        <time>2021-09-09T13:03:34Z</time>
      </trkpt>
      <trkpt lat="44.12655" lon="5.9751">
        <ele>472.7</ele>
        <time>2021-09-09T13:03:35Z</time>
      </trkpt>
      <trkpt lat="44.12652" lon="5.97516">
        <ele>472.6</ele>
        <time>2021-09-09T13:03:36Z</time>
      </trkpt>
      <trkpt lat="44.12645" lon="5.97528">
        <ele>472.4</ele>
        <time>2021-09-09T13:03:38Z</time>
      </trkpt>
      <trkpt lat="44.12641" lon="5.97541">
        <ele>472.2</ele>
        <time>2021-09-09T13:03:40Z</time>
      </trkpt>
      <trkpt lat="44.1264" lon="5.97551">
        <ele>472</ele>
        <time>2021-09-09T13:03:42Z</time>
      </trkpt>
      <trkpt lat="44.12637" lon="5.97556">
        <ele>471.8</ele>
        <time>2021-09-09T13:03:43Z</time>
      </trkpt>
      <trkpt lat="44.12634" lon="5.97562">
        <ele>471.7</ele>
        <time>2021-09-09T13:03:44Z</time>
      </trkpt>
      <trkpt lat="44.12631" lon="5.97566">
        <ele>471.5</ele>
        <time>2021-09-09T13:03:45Z</time>
      </trkpt>
      <trkpt lat="44.12624" lon="5.97576">
        <ele>471</ele>
        <time>2021-09-09T13:03:47Z</time>
      </trkpt>
      <trkpt lat="44.12614" lon="5.97586">
        <ele>470.3</ele>
        <time>2021-09-09T13:03:49Z</time>
      </trkpt>
      <trkpt lat="44.12602" lon="5.97597">
        <ele>469.6</ele>
        <time>2021-09-09T13:03:51Z</time>
      </trkpt>
      <trkpt lat="44.1259" lon="5.9761">
        <ele>468.8</ele>
        <time>2021-09-09T13:03:53Z</time>
      </trkpt>
      <trkpt lat="44.12578" lon="5.97625">
        <ele>468.1</ele>
        <time>2021-09-09T13:03:55Z</time>
      </trkpt>
      <trkpt lat="44.12572" lon="5.97632">
        <ele>467.7</ele>
        <time>2021-09-09T13:03:56Z</time>
      </trkpt>
      <trkpt lat="44.12562" lon="5.9765">
        <ele>466.9</ele>
        <time>2021-09-09T13:03:58Z</time>
      </trkpt>
      <trkpt lat="44.12558" lon="5.9766">
        <ele>466.6</ele>
        <time>2021-09-09T13:03:59Z</time>
      </trkpt>
      <trkpt lat="44.12554" lon="5.9767">
        <ele>466.3</ele>
        <time>2021-09-09T13:04:00Z</time>
      </trkpt>
      <trkpt lat="44.1255" lon="5.97689">
        <ele>465.7</ele>
        <time>2021-09-09T13:04:02Z</time>
      </trkpt>
      <trkpt lat="44.12552" lon="5.97708">
        <ele>465.2</ele>
        <time>2021-09-09T13:04:04Z</time>
      </trkpt>
      <trkpt lat="44.12555" lon="5.97717">
        <ele>465</ele>
        <time>2021-09-09T13:04:05Z</time>
      </trkpt>
      <trkpt lat="44.12566" lon="5.97736">
        <ele>464.4</ele>
        <time>2021-09-09T13:04:07Z</time>
      </trkpt>
      <trkpt lat="44.12576" lon="5.97754">
        <ele>464</ele>
        <time>2021-09-09T13:04:09Z</time>
      </trkpt>
      <trkpt lat="44.12583" lon="5.97766">
        <ele>463.7</ele>
        <time>2021-09-09T13:04:11Z</time>
      </trkpt>
      <trkpt lat="44.12587" lon="5.97771">
        <ele>463.6</ele>
        <time>2021-09-09T13:04:12Z</time>
      </trkpt>
      <trkpt lat="44.1259" lon="5.97776">
        <ele>463.5</ele>
        <time>2021-09-09T13:04:13Z</time>
      </trkpt>
      <trkpt lat="44.12591" lon="5.9779">
        <ele>463.4</ele>
        <time>2021-09-09T13:04:15Z</time>
      </trkpt>
      <trkpt lat="44.12587" lon="5.97807">
        <ele>463.1</ele>
        <time>2021-09-09T13:04:17Z</time>
      </trkpt>
      <trkpt lat="44.12582" lon="5.97826">
        <ele>462.7</ele>
        <time>2021-09-09T13:04:19Z</time>
      </trkpt>
      <trkpt lat="44.12579" lon="5.97835">
        <ele>462.6</ele>
        <time>2021-09-09T13:04:20Z</time>
      </trkpt>
      <trkpt lat="44.12576" lon="5.97845">
        <ele>462.4</ele>
        <time>2021-09-09T13:04:21Z</time>
      </trkpt>
      <trkpt lat="44.12571" lon="5.97863">
        <ele>462</ele>
        <time>2021-09-09T13:04:23Z</time>
      </trkpt>
      <trkpt lat="44.12568" lon="5.97872">
        <ele>461.8</ele>
        <time>2021-09-09T13:04:24Z</time>
      </trkpt>
      <trkpt lat="44.12562" lon="5.9789">
        <ele>461.4</ele>
        <time>2021-09-09T13:04:26Z</time>
      </trkpt>
      <trkpt lat="44.12556" lon="5.97909">
        <ele>461.1</ele>
        <time>2021-09-09T13:04:28Z</time>
      </trkpt>
      <trkpt lat="44.12552" lon="5.97917">
        <ele>460.9</ele>
        <time>2021-09-09T13:04:29Z</time>
      </trkpt>
      <trkpt lat="44.12544" lon="5.97933">
        <ele>460.6</ele>
        <time>2021-09-09T13:04:31Z</time>
      </trkpt>
      <trkpt lat="44.12539" lon="5.9794">
        <ele>460.4</ele>
        <time>2021-09-09T13:04:32Z</time>
      </trkpt>
      <trkpt lat="44.12531" lon="5.97955">
        <ele>460</ele>
        <time>2021-09-09T13:04:34Z</time>
      </trkpt>
      <trkpt lat="44.12525" lon="5.97972">
        <ele>459.6</ele>
        <time>2021-09-09T13:04:36Z</time>
      </trkpt>
      <trkpt lat="44.12525" lon="5.97981">
        <ele>459.4</ele>
        <time>2021-09-09T13:04:37Z</time>
      </trkpt>
      <trkpt lat="44.12527" lon="5.97999">
        <ele>458.9</ele>
        <time>2021-09-09T13:04:39Z</time>
      </trkpt>
      <trkpt lat="44.12534" lon="5.98015">
        <ele>458.5</ele>
        <time>2021-09-09T13:04:41Z</time>
      </trkpt>
      <trkpt lat="44.1254" lon="5.98021">
        <ele>458.4</ele>
        <time>2021-09-09T13:04:42Z</time>
      </trkpt>
      <trkpt lat="44.12547" lon="5.98026">
        <ele>458.2</ele>
        <time>2021-09-09T13:04:43Z</time>
      </trkpt>
      <trkpt lat="44.12553" lon="5.98031">
        <ele>458</ele>
        <time>2021-09-09T13:04:44Z</time>
      </trkpt>
      <trkpt lat="44.12564" lon="5.98043">
        <ele>457.6</ele>
        <time>2021-09-09T13:04:46Z</time>
      </trkpt>
      <trkpt lat="44.12567" lon="5.98051">
        <ele>457.4</ele>
        <time>2021-09-09T13:04:47Z</time>
      </trkpt>
      <trkpt lat="44.12569" lon="5.98067">
        <ele>456.9</ele>
        <time>2021-09-09T13:04:49Z</time>
      </trkpt>
      <trkpt lat="44.12563" lon="5.98086">
        <ele>456.5</ele>
        <time>2021-09-09T13:04:51Z</time>
      </trkpt>
      <trkpt lat="44.12557" lon="5.98104">
        <ele>456</ele>
        <time>2021-09-09T13:04:53Z</time>
      </trkpt>
      <trkpt lat="44.12555" lon="5.98113">
        <ele>455.7</ele>
        <time>2021-09-09T13:04:54Z</time>
      </trkpt>
      <trkpt lat="44.12551" lon="5.98121">
        <ele>455.5</ele>
        <time>2021-09-09T13:04:55Z</time>
      </trkpt>
      <trkpt lat="44.1254" lon="5.98135">
        <ele>455.2</ele>
        <time>2021-09-09T13:04:57Z</time>
      </trkpt>
      <trkpt lat="44.1253" lon="5.98139">
        <ele>455</ele>
        <time>2021-09-09T13:04:58Z</time>
      </trkpt>
      <trkpt lat="44.12519" lon="5.98142">
        <ele>454.8</ele>
        <time>2021-09-09T13:04:59Z</time>
      </trkpt>
      <trkpt lat="44.12506" lon="5.98143">
        <ele>454.5</ele>
        <time>2021-09-09T13:05:00Z</time>
      </trkpt>
      <trkpt lat="44.12484" lon="5.98143">
        <ele>454.1</ele>
        <time>2021-09-09T13:05:02Z</time>
      </trkpt>
      <trkpt lat="44.12467" lon="5.98143">
        <ele>453.8</ele>
        <time>2021-09-09T13:05:04Z</time>
      </trkpt>
      <trkpt lat="44.12459" lon="5.98144">
        <ele>453.7</ele>
        <time>2021-09-09T13:05:05Z</time>
      </trkpt>
      <trkpt lat="44.12451" lon="5.98144">
        <ele>453.6</ele>
        <time>2021-09-09T13:05:06Z</time>
      </trkpt>
      <trkpt lat="44.12435" lon="5.98148">
        <ele>453.6</ele>
        <time>2021-09-09T13:05:08Z</time>
      </trkpt>
      <trkpt lat="44.12429" lon="5.98152">
        <ele>453.5</ele>
        <time>2021-09-09T13:05:09Z</time>
      </trkpt>
      <trkpt lat="44.12418" lon="5.98164">
        <ele>453.5</ele>
        <time>2021-09-09T13:05:11Z</time>
      </trkpt>
      <trkpt lat="44.12414" lon="5.98172">
        <ele>453.6</ele>
        <time>2021-09-09T13:05:12Z</time>
      </trkpt>
      <trkpt lat="44.12405" lon="5.98188">
        <ele>453.9</ele>
        <time>2021-09-09T13:05:14Z</time>
      </trkpt>
      <trkpt lat="44.12402" lon="5.98195">
        <ele>454.2</ele>
        <time>2021-09-09T13:05:15Z</time>
      </trkpt>
      <trkpt lat="44.124" lon="5.98202">
        <ele>454.4</ele>
        <time>2021-09-09T13:05:16Z</time>
      </trkpt>
      <trkpt lat="44.12399" lon="5.98213">
        <ele>454.7</ele>
        <time>2021-09-09T13:05:18Z</time>
      </trkpt>
      <trkpt lat="44.12399" lon="5.98217">
        <ele>454.9</ele>
        <time>2021-09-09T13:05:19Z</time>
      </trkpt>
      <trkpt lat="44.12399" lon="5.98221">
        <ele>455.9</ele>
        <time>2021-09-09T13:05:21Z</time>
      </trkpt>
      <trkpt lat="44.12398" lon="5.98226">
        <ele>456.2</ele>
        <time>2021-09-09T13:05:23Z</time>
      </trkpt>
      <trkpt lat="44.12398" lon="5.98229">
        <ele>456.5</ele>
        <time>2021-09-09T13:05:24Z</time>
      </trkpt>
      <trkpt lat="44.12397" lon="5.9823">
        <ele>456.6</ele>
        <time>2021-09-09T13:05:26Z</time>
      </trkpt>
      <trkpt lat="44.12395" lon="5.98233">
        <ele>456.9</ele>
        <time>2021-09-09T13:05:28Z</time>
      </trkpt>
      <trkpt lat="44.12393" lon="5.98234">
        <ele>457.1</ele>
        <time>2021-09-09T13:05:29Z</time>
      </trkpt>
      <trkpt lat="44.12392" lon="5.98238">
        <ele>457.4</ele>
        <time>2021-09-09T13:05:31Z</time>
      </trkpt>
      <trkpt lat="44.1239" lon="5.9824">
        <ele>457.7</ele>
        <time>2021-09-09T13:05:32Z</time>
      </trkpt>
      <trkpt lat="44.12387" lon="5.98245">
        <ele>458.3</ele>
        <time>2021-09-09T13:05:34Z</time>
      </trkpt>
      <trkpt lat="44.12385" lon="5.98248">
        <ele>458.7</ele>
        <time>2021-09-09T13:05:35Z</time>
      </trkpt>
      <trkpt lat="44.12384" lon="5.98249">
        <ele>458.8</ele>
        <time>2021-09-09T13:05:36Z</time>
      </trkpt>
      <trkpt lat="44.12382" lon="5.98253">
        <ele>459.2</ele>
        <time>2021-09-09T13:05:38Z</time>
      </trkpt>
      <trkpt lat="44.12381" lon="5.98256">
        <ele>459.5</ele>
        <time>2021-09-09T13:05:39Z</time>
      </trkpt>
      <trkpt lat="44.12381" lon="5.98257">
        <ele>459.5</ele>
        <time>2021-09-09T13:05:41Z</time>
      </trkpt>
      <trkpt lat="44.1238" lon="5.98258">
        <ele>459.7</ele>
        <time>2021-09-09T13:05:43Z</time>
      </trkpt>
      <trkpt lat="44.12379" lon="5.98262">
        <ele>460.1</ele>
        <time>2021-09-09T13:05:44Z</time>
      </trkpt>
      <trkpt lat="44.12378" lon="5.98264">
        <ele>460.4</ele>
        <time>2021-09-09T13:05:46Z</time>
      </trkpt>
      <trkpt lat="44.12377" lon="5.98266">
        <ele>460.6</ele>
        <time>2021-09-09T13:05:47Z</time>
      </trkpt>
      <trkpt lat="44.12375" lon="5.9827">
        <ele>460.9</ele>
        <time>2021-09-09T13:05:49Z</time>
      </trkpt>
      <trkpt lat="44.12376" lon="5.98271">
        <ele>461</ele>
        <time>2021-09-09T13:05:50Z</time>
      </trkpt>
      <trkpt lat="44.12377" lon="5.98272">
        <ele>461.2</ele>
        <time>2021-09-09T13:05:52Z</time>
      </trkpt>
      <trkpt lat="44.12377" lon="5.98272">
        <ele>461.2</ele>
        <time>2021-09-09T13:05:54Z</time>
      </trkpt>
      <trkpt lat="44.12377" lon="5.98272">
        <ele>461.3</ele>
        <time>2021-09-09T13:05:55Z</time>
      </trkpt>
      <trkpt lat="44.12377" lon="5.98273">
        <ele>461.3</ele>
        <time>2021-09-09T13:05:56Z</time>
      </trkpt>
      <trkpt lat="44.12377" lon="5.98273">
        <ele>461.4</ele>
        <time>2021-09-09T13:05:58Z</time>
      </trkpt>
      <trkpt lat="44.12377" lon="5.98274">
        <ele>461.5</ele>
        <time>2021-09-09T13:05:59Z</time>
      </trkpt>
      <trkpt lat="44.12367" lon="5.98287">
        <ele>463.3</ele>
        <time>2021-09-09T13:06:09Z</time>
      </trkpt>
      <trkpt lat="44.12365" lon="5.9829">
        <ele>463.7</ele>
        <time>2021-09-09T13:06:10Z</time>
      </trkpt>
      <trkpt lat="44.12363" lon="5.98294">
        <ele>464.2</ele>
        <time>2021-09-09T13:06:11Z</time>
      </trkpt>
      <trkpt lat="44.12359" lon="5.983">
        <ele>464.9</ele>
        <time>2021-09-09T13:06:13Z</time>
      </trkpt>
      <trkpt lat="44.12358" lon="5.98301">
        <ele>465.1</ele>
        <time>2021-09-09T13:06:14Z</time>
      </trkpt>
      <trkpt lat="44.12357" lon="5.98303">
        <ele>465.3</ele>
        <time>2021-09-09T13:06:15Z</time>
      </trkpt>
      <trkpt lat="44.12357" lon="5.98302">
        <ele>465.4</ele>
        <time>2021-09-09T13:06:16Z</time>
      </trkpt>
      <trkpt lat="44.12356" lon="5.98302">
        <ele>465.4</ele>
        <time>2021-09-09T13:06:18Z</time>
      </trkpt>
      <trkpt lat="44.12356" lon="5.98303">
        <ele>465.4</ele>
        <time>2021-09-09T13:06:19Z</time>
      </trkpt>
      <trkpt lat="44.12357" lon="5.98304">
        <ele>465.5</ele>
        <time>2021-09-09T13:06:20Z</time>
      </trkpt>
      <trkpt lat="44.12357" lon="5.98305">
        <ele>465.7</ele>
        <time>2021-09-09T13:06:21Z</time>
      </trkpt>
      <trkpt lat="44.12357" lon="5.98306">
        <ele>465.8</ele>
        <time>2021-09-09T13:06:22Z</time>
      </trkpt>
      <trkpt lat="44.12357" lon="5.98308">
        <ele>465.9</ele>
        <time>2021-09-09T13:06:24Z</time>
      </trkpt>
      <trkpt lat="44.12358" lon="5.98327">
        <ele>467.5</ele>
        <time>2021-09-09T13:06:37Z</time>
      </trkpt>
      <trkpt lat="44.12357" lon="5.98331">
        <ele>467.8</ele>
        <time>2021-09-09T13:06:38Z</time>
      </trkpt>
      <trkpt lat="44.12356" lon="5.98334">
        <ele>468.1</ele>
        <time>2021-09-09T13:06:40Z</time>
      </trkpt>
      <trkpt lat="44.12355" lon="5.98335">
        <ele>468.2</ele>
        <time>2021-09-09T13:06:41Z</time>
      </trkpt>
      <trkpt lat="44.12355" lon="5.98336">
        <ele>468.3</ele>
        <time>2021-09-09T13:06:42Z</time>
      </trkpt>
      <trkpt lat="44.12354" lon="5.98337">
        <ele>468.4</ele>
        <time>2021-09-09T13:06:43Z</time>
      </trkpt>
      <trkpt lat="44.12353" lon="5.98339">
        <ele>468.6</ele>
        <time>2021-09-09T13:06:45Z</time>
      </trkpt>
      <trkpt lat="44.12352" lon="5.9834">
        <ele>468.7</ele>
        <time>2021-09-09T13:06:46Z</time>
      </trkpt>
      <trkpt lat="44.12351" lon="5.98341">
        <ele>468.8</ele>
        <time>2021-09-09T13:06:47Z</time>
      </trkpt>
      <trkpt lat="44.1235" lon="5.98342">
        <ele>469</ele>
        <time>2021-09-09T13:06:49Z</time>
      </trkpt>
      <trkpt lat="44.12343" lon="5.98363">
        <ele>470.8</ele>
        <time>2021-09-09T13:07:00Z</time>
      </trkpt>
      <trkpt lat="44.12342" lon="5.98365">
        <ele>471</ele>
        <time>2021-09-09T13:07:02Z</time>
      </trkpt>
      <trkpt lat="44.12341" lon="5.98369">
        <ele>471.4</ele>
        <time>2021-09-09T13:07:04Z</time>
      </trkpt>
      <trkpt lat="44.12339" lon="5.98373">
        <ele>471.8</ele>
        <time>2021-09-09T13:07:05Z</time>
      </trkpt>
      <trkpt lat="44.12339" lon="5.98375">
        <ele>472</ele>
        <time>2021-09-09T13:07:06Z</time>
      </trkpt>
      <trkpt lat="44.12338" lon="5.98377">
        <ele>472.2</ele>
        <time>2021-09-09T13:07:07Z</time>
      </trkpt>
      <trkpt lat="44.12336" lon="5.98381">
        <ele>472.7</ele>
        <time>2021-09-09T13:07:08Z</time>
      </trkpt>
      <trkpt lat="44.12335" lon="5.98384">
        <ele>473</ele>
        <time>2021-09-09T13:07:09Z</time>
      </trkpt>
      <trkpt lat="44.12332" lon="5.98389">
        <ele>473.7</ele>
        <time>2021-09-09T13:07:11Z</time>
      </trkpt>
      <trkpt lat="44.12331" lon="5.9839">
        <ele>473.9</ele>
        <time>2021-09-09T13:07:12Z</time>
      </trkpt>
      <trkpt lat="44.12328" lon="5.98395">
        <ele>474.6</ele>
        <time>2021-09-09T13:07:14Z</time>
      </trkpt>
      <trkpt lat="44.12327" lon="5.98396">
        <ele>474.7</ele>
        <time>2021-09-09T13:07:15Z</time>
      </trkpt>
      <trkpt lat="44.12327" lon="5.98396">
        <ele>474.8</ele>
        <time>2021-09-09T13:07:16Z</time>
      </trkpt>
      <trkpt lat="44.12327" lon="5.98396">
        <ele>474.8</ele>
        <time>2021-09-09T13:07:18Z</time>
      </trkpt>
      <trkpt lat="44.12327" lon="5.98396">
        <ele>474.9</ele>
        <time>2021-09-09T13:07:19Z</time>
      </trkpt>
      <trkpt lat="44.12328" lon="5.98396">
        <ele>474.9</ele>
        <time>2021-09-09T13:07:20Z</time>
      </trkpt>
      <trkpt lat="44.12327" lon="5.98396">
        <ele>475</ele>
        <time>2021-09-09T13:07:22Z</time>
      </trkpt>
      <trkpt lat="44.12325" lon="5.98397">
        <ele>475.3</ele>
        <time>2021-09-09T13:07:24Z</time>
      </trkpt>
      <trkpt lat="44.12324" lon="5.98398">
        <ele>475.5</ele>
        <time>2021-09-09T13:07:26Z</time>
      </trkpt>
      <trkpt lat="44.12308" lon="5.98407">
        <ele>477.7</ele>
        <time>2021-09-09T13:07:40Z</time>
      </trkpt>
      <trkpt lat="44.12307" lon="5.98408">
        <ele>477.8</ele>
        <time>2021-09-09T13:07:41Z</time>
      </trkpt>
      <trkpt lat="44.12307" lon="5.98408">
        <ele>477.9</ele>
        <time>2021-09-09T13:07:42Z</time>
      </trkpt>
      <trkpt lat="44.12305" lon="5.9841">
        <ele>478.1</ele>
        <time>2021-09-09T13:07:43Z</time>
      </trkpt>
      <trkpt lat="44.12304" lon="5.98411">
        <ele>478.2</ele>
        <time>2021-09-09T13:07:44Z</time>
      </trkpt>
      <trkpt lat="44.12303" lon="5.98412">
        <ele>478.4</ele>
        <time>2021-09-09T13:07:45Z</time>
      </trkpt>
      <trkpt lat="44.12302" lon="5.98412">
        <ele>478.5</ele>
        <time>2021-09-09T13:07:46Z</time>
      </trkpt>
      <trkpt lat="44.12301" lon="5.98413">
        <ele>478.6</ele>
        <time>2021-09-09T13:07:48Z</time>
      </trkpt>
      <trkpt lat="44.123" lon="5.98414">
        <ele>478.8</ele>
        <time>2021-09-09T13:07:49Z</time>
      </trkpt>
      <trkpt lat="44.12299" lon="5.98415">
        <ele>478.9</ele>
        <time>2021-09-09T13:07:50Z</time>
      </trkpt>
      <trkpt lat="44.12298" lon="5.98416">
        <ele>479</ele>
        <time>2021-09-09T13:07:51Z</time>
      </trkpt>
      <trkpt lat="44.12297" lon="5.98417">
        <ele>479.2</ele>
        <time>2021-09-09T13:07:52Z</time>
      </trkpt>
      <trkpt lat="44.12294" lon="5.98419">
        <ele>479.5</ele>
        <time>2021-09-09T13:07:54Z</time>
      </trkpt>
      <trkpt lat="44.12293" lon="5.9842">
        <ele>479.7</ele>
        <time>2021-09-09T13:07:55Z</time>
      </trkpt>
      <trkpt lat="44.12292" lon="5.98421">
        <ele>479.8</ele>
        <time>2021-09-09T13:07:57Z</time>
      </trkpt>
      <trkpt lat="44.12291" lon="5.98422">
        <ele>480</ele>
        <time>2021-09-09T13:07:58Z</time>
      </trkpt>
      <trkpt lat="44.1229" lon="5.98423">
        <ele>480.1</ele>
        <time>2021-09-09T13:07:59Z</time>
      </trkpt>
      <trkpt lat="44.12289" lon="5.98424">
        <ele>480.2</ele>
        <time>2021-09-09T13:08:00Z</time>
      </trkpt>
      <trkpt lat="44.12288" lon="5.98425">
        <ele>480.4</ele>
        <time>2021-09-09T13:08:01Z</time>
      </trkpt>
      <trkpt lat="44.12287" lon="5.98427">
        <ele>480.6</ele>
        <time>2021-09-09T13:08:03Z</time>
      </trkpt>
      <trkpt lat="44.12285" lon="5.98429">
        <ele>480.9</ele>
        <time>2021-09-09T13:08:05Z</time>
      </trkpt>
      <trkpt lat="44.12283" lon="5.98432">
        <ele>481.2</ele>
        <time>2021-09-09T13:08:06Z</time>
      </trkpt>
      <trkpt lat="44.12282" lon="5.98433">
        <ele>481.3</ele>
        <time>2021-09-09T13:08:07Z</time>
      </trkpt>
      <trkpt lat="44.12281" lon="5.98434">
        <ele>481.5</ele>
        <time>2021-09-09T13:08:09Z</time>
      </trkpt>
      <trkpt lat="44.1228" lon="5.98435">
        <ele>481.5</ele>
        <time>2021-09-09T13:08:10Z</time>
      </trkpt>
      <trkpt lat="44.12279" lon="5.98436">
        <ele>481.7</ele>
        <time>2021-09-09T13:08:12Z</time>
      </trkpt>
      <trkpt lat="44.12279" lon="5.98436">
        <ele>481.8</ele>
        <time>2021-09-09T13:08:13Z</time>
      </trkpt>
      <trkpt lat="44.12277" lon="5.98437">
        <ele>482</ele>
        <time>2021-09-09T13:08:14Z</time>
      </trkpt>
      <trkpt lat="44.12275" lon="5.98439">
        <ele>482.2</ele>
        <time>2021-09-09T13:08:16Z</time>
      </trkpt>
      <trkpt lat="44.12274" lon="5.98439">
        <ele>482.3</ele>
        <time>2021-09-09T13:08:17Z</time>
      </trkpt>
      <trkpt lat="44.12271" lon="5.98442">
        <ele>482.7</ele>
        <time>2021-09-09T13:08:19Z</time>
      </trkpt>
      <trkpt lat="44.1227" lon="5.98442">
        <ele>482.8</ele>
        <time>2021-09-09T13:08:20Z</time>
      </trkpt>
      <trkpt lat="44.12268" lon="5.98443">
        <ele>483.1</ele>
        <time>2021-09-09T13:08:21Z</time>
      </trkpt>
      <trkpt lat="44.12264" lon="5.98446">
        <ele>483.6</ele>
        <time>2021-09-09T13:08:23Z</time>
      </trkpt>
      <trkpt lat="44.12262" lon="5.98447">
        <ele>483.8</ele>
        <time>2021-09-09T13:08:24Z</time>
      </trkpt>
      <trkpt lat="44.12259" lon="5.9845">
        <ele>484.2</ele>
        <time>2021-09-09T13:08:26Z</time>
      </trkpt>
      <trkpt lat="44.12258" lon="5.98451">
        <ele>484.4</ele>
        <time>2021-09-09T13:08:27Z</time>
      </trkpt>
      <trkpt lat="44.12256" lon="5.98453">
        <ele>484.5</ele>
        <time>2021-09-09T13:08:29Z</time>
      </trkpt>
      <trkpt lat="44.12256" lon="5.98456">
        <ele>484.8</ele>
        <time>2021-09-09T13:08:30Z</time>
      </trkpt>
      <trkpt lat="44.12255" lon="5.98459">
        <ele>485.1</ele>
        <time>2021-09-09T13:08:32Z</time>
      </trkpt>
      <trkpt lat="44.12257" lon="5.9846">
        <ele>485.2</ele>
        <time>2021-09-09T13:08:34Z</time>
      </trkpt>
      <trkpt lat="44.12257" lon="5.98461">
        <ele>485.3</ele>
        <time>2021-09-09T13:08:35Z</time>
      </trkpt>
      <trkpt lat="44.12257" lon="5.98461">
        <ele>485.3</ele>
        <time>2021-09-09T13:08:36Z</time>
      </trkpt>
      <trkpt lat="44.12257" lon="5.98461">
        <ele>485.3</ele>
        <time>2021-09-09T13:08:38Z</time>
      </trkpt>
      <trkpt lat="44.12257" lon="5.98461">
        <ele>485.3</ele>
        <time>2021-09-09T13:08:39Z</time>
      </trkpt>
      <trkpt lat="44.12256" lon="5.98461">
        <ele>485.3</ele>
        <time>2021-09-09T13:08:40Z</time>
      </trkpt>
      <trkpt lat="44.12242" lon="5.98482">
        <ele>487.3</ele>
        <time>2021-09-09T13:08:55Z</time>
      </trkpt>
      <trkpt lat="44.12239" lon="5.98485">
        <ele>487.5</ele>
        <time>2021-09-09T13:08:56Z</time>
      </trkpt>
      <trkpt lat="44.12235" lon="5.98487">
        <ele>487.9</ele>
        <time>2021-09-09T13:08:57Z</time>
      </trkpt>
      <trkpt lat="44.12232" lon="5.98489">
        <ele>488.3</ele>
        <time>2021-09-09T13:08:58Z</time>
      </trkpt>
      <trkpt lat="44.12228" lon="5.98492">
        <ele>488.6</ele>
        <time>2021-09-09T13:09:00Z</time>
      </trkpt>
      <trkpt lat="44.12228" lon="5.98494">
        <ele>488.7</ele>
        <time>2021-09-09T13:09:02Z</time>
      </trkpt>
      <trkpt lat="44.12226" lon="5.98496">
        <ele>488.9</ele>
        <time>2021-09-09T13:09:03Z</time>
      </trkpt>
      <trkpt lat="44.12225" lon="5.98498">
        <ele>489</ele>
        <time>2021-09-09T13:09:04Z</time>
      </trkpt>
      <trkpt lat="44.12224" lon="5.985">
        <ele>489.2</ele>
        <time>2021-09-09T13:09:06Z</time>
      </trkpt>
      <trkpt lat="44.12224" lon="5.98501">
        <ele>489.2</ele>
        <time>2021-09-09T13:09:07Z</time>
      </trkpt>
      <trkpt lat="44.12224" lon="5.98502">
        <ele>489.3</ele>
        <time>2021-09-09T13:09:08Z</time>
      </trkpt>
      <trkpt lat="44.12223" lon="5.98503">
        <ele>489.4</ele>
        <time>2021-09-09T13:09:09Z</time>
      </trkpt>
      <trkpt lat="44.12221" lon="5.98506">
        <ele>489.6</ele>
        <time>2021-09-09T13:09:11Z</time>
      </trkpt>
      <trkpt lat="44.12218" lon="5.9851">
        <ele>489.8</ele>
        <time>2021-09-09T13:09:12Z</time>
      </trkpt>
      <trkpt lat="44.12217" lon="5.98511">
        <ele>489.9</ele>
        <time>2021-09-09T13:09:13Z</time>
      </trkpt>
      <trkpt lat="44.12214" lon="5.98515">
        <ele>490.1</ele>
        <time>2021-09-09T13:09:14Z</time>
      </trkpt>
      <trkpt lat="44.12213" lon="5.98516">
        <ele>490.2</ele>
        <time>2021-09-09T13:09:15Z</time>
      </trkpt>
      <trkpt lat="44.12209" lon="5.98519">
        <ele>490.4</ele>
        <time>2021-09-09T13:09:17Z</time>
      </trkpt>
      <trkpt lat="44.12208" lon="5.98519">
        <ele>490.4</ele>
        <time>2021-09-09T13:09:18Z</time>
      </trkpt>
      <trkpt lat="44.12206" lon="5.9852">
        <ele>490.5</ele>
        <time>2021-09-09T13:09:19Z</time>
      </trkpt>
      <trkpt lat="44.12202" lon="5.98523">
        <ele>490.6</ele>
        <time>2021-09-09T13:09:20Z</time>
      </trkpt>
      <trkpt lat="44.12201" lon="5.98523">
        <ele>490.7</ele>
        <time>2021-09-09T13:09:21Z</time>
      </trkpt>
      <trkpt lat="44.12197" lon="5.98528">
        <ele>490.8</ele>
        <time>2021-09-09T13:09:23Z</time>
      </trkpt>
      <trkpt lat="44.12193" lon="5.98534">
        <ele>491</ele>
        <time>2021-09-09T13:09:25Z</time>
      </trkpt>
      <trkpt lat="44.12188" lon="5.98538">
        <ele>491.1</ele>
        <time>2021-09-09T13:09:26Z</time>
      </trkpt>
      <trkpt lat="44.12184" lon="5.98542">
        <ele>491.2</ele>
        <time>2021-09-09T13:09:28Z</time>
      </trkpt>
      <trkpt lat="44.12183" lon="5.98544">
        <ele>491.2</ele>
        <time>2021-09-09T13:09:29Z</time>
      </trkpt>
      <trkpt lat="44.12181" lon="5.98545">
        <ele>491.2</ele>
        <time>2021-09-09T13:09:30Z</time>
      </trkpt>
      <trkpt lat="44.12177" lon="5.98549">
        <ele>491.3</ele>
        <time>2021-09-09T13:09:32Z</time>
      </trkpt>
      <trkpt lat="44.12175" lon="5.98551">
        <ele>491.3</ele>
        <time>2021-09-09T13:09:33Z</time>
      </trkpt>
      <trkpt lat="44.12172" lon="5.98554">
        <ele>491.4</ele>
        <time>2021-09-09T13:09:35Z</time>
      </trkpt>
      <trkpt lat="44.1217" lon="5.98555">
        <ele>491.4</ele>
        <time>2021-09-09T13:09:36Z</time>
      </trkpt>
      <trkpt lat="44.12168" lon="5.98556">
        <ele>491.4</ele>
        <time>2021-09-09T13:09:37Z</time>
      </trkpt>
      <trkpt lat="44.12167" lon="5.98557">
        <ele>491.4</ele>
        <time>2021-09-09T13:09:38Z</time>
      </trkpt>
      <trkpt lat="44.12166" lon="5.98558">
        <ele>491.4</ele>
        <time>2021-09-09T13:09:39Z</time>
      </trkpt>
      <trkpt lat="44.12162" lon="5.98562">
        <ele>491.4</ele>
        <time>2021-09-09T13:09:41Z</time>
      </trkpt>
      <trkpt lat="44.1216" lon="5.98563">
        <ele>491.4</ele>
        <time>2021-09-09T13:09:42Z</time>
      </trkpt>
      <trkpt lat="44.12156" lon="5.98567">
        <ele>491.3</ele>
        <time>2021-09-09T13:09:44Z</time>
      </trkpt>
      <trkpt lat="44.12154" lon="5.9857">
        <ele>491.3</ele>
        <time>2021-09-09T13:09:45Z</time>
      </trkpt>
      <trkpt lat="44.12149" lon="5.98577">
        <ele>491.2</ele>
        <time>2021-09-09T13:09:47Z</time>
      </trkpt>
      <trkpt lat="44.12146" lon="5.98583">
        <ele>491.1</ele>
        <time>2021-09-09T13:09:49Z</time>
      </trkpt>
      <trkpt lat="44.12143" lon="5.98588">
        <ele>491.1</ele>
        <time>2021-09-09T13:09:50Z</time>
      </trkpt>
      <trkpt lat="44.1214" lon="5.98591">
        <ele>491</ele>
        <time>2021-09-09T13:09:52Z</time>
      </trkpt>
      <trkpt lat="44.12135" lon="5.98593">
        <ele>491</ele>
        <time>2021-09-09T13:09:53Z</time>
      </trkpt>
      <trkpt lat="44.12132" lon="5.98595">
        <ele>490.9</ele>
        <time>2021-09-09T13:09:55Z</time>
      </trkpt>
      <trkpt lat="44.12126" lon="5.98597">
        <ele>490.8</ele>
        <time>2021-09-09T13:09:56Z</time>
      </trkpt>
      <trkpt lat="44.12124" lon="5.98598">
        <ele>490.8</ele>
        <time>2021-09-09T13:09:57Z</time>
      </trkpt>
      <trkpt lat="44.1212" lon="5.986">
        <ele>490.7</ele>
        <time>2021-09-09T13:09:59Z</time>
      </trkpt>
      <trkpt lat="44.12116" lon="5.98601">
        <ele>490.7</ele>
        <time>2021-09-09T13:10:00Z</time>
      </trkpt>
      <trkpt lat="44.12108" lon="5.98605">
        <ele>490.6</ele>
        <time>2021-09-09T13:10:02Z</time>
      </trkpt>
      <trkpt lat="44.12105" lon="5.98607">
        <ele>490.6</ele>
        <time>2021-09-09T13:10:03Z</time>
      </trkpt>
      <trkpt lat="44.12099" lon="5.98612">
        <ele>490.5</ele>
        <time>2021-09-09T13:10:04Z</time>
      </trkpt>
      <trkpt lat="44.12094" lon="5.98618">
        <ele>490.5</ele>
        <time>2021-09-09T13:10:06Z</time>
      </trkpt>
      <trkpt lat="44.12092" lon="5.98622">
        <ele>490.5</ele>
        <time>2021-09-09T13:10:07Z</time>
      </trkpt>
      <trkpt lat="44.12087" lon="5.98629">
        <ele>490.5</ele>
        <time>2021-09-09T13:10:08Z</time>
      </trkpt>
      <trkpt lat="44.12083" lon="5.98634">
        <ele>490.5</ele>
        <time>2021-09-09T13:10:10Z</time>
      </trkpt>
      <trkpt lat="44.1208" lon="5.98638">
        <ele>490.5</ele>
        <time>2021-09-09T13:10:11Z</time>
      </trkpt>
      <trkpt lat="44.12074" lon="5.98644">
        <ele>490.6</ele>
        <time>2021-09-09T13:10:12Z</time>
      </trkpt>
      <trkpt lat="44.12071" lon="5.98647">
        <ele>490.6</ele>
        <time>2021-09-09T13:10:14Z</time>
      </trkpt>
      <trkpt lat="44.12065" lon="5.98653">
        <ele>490.6</ele>
        <time>2021-09-09T13:10:15Z</time>
      </trkpt>
      <trkpt lat="44.12059" lon="5.98658">
        <ele>490.7</ele>
        <time>2021-09-09T13:10:17Z</time>
      </trkpt>
      <trkpt lat="44.12052" lon="5.98662">
        <ele>490.8</ele>
        <time>2021-09-09T13:10:19Z</time>
      </trkpt>
      <trkpt lat="44.12049" lon="5.98664">
        <ele>490.8</ele>
        <time>2021-09-09T13:10:20Z</time>
      </trkpt>
      <trkpt lat="44.12046" lon="5.98665">
        <ele>490.8</ele>
        <time>2021-09-09T13:10:21Z</time>
      </trkpt>
      <trkpt lat="44.12042" lon="5.98667">
        <ele>490.9</ele>
        <time>2021-09-09T13:10:22Z</time>
      </trkpt>
      <trkpt lat="44.12039" lon="5.9867">
        <ele>490.9</ele>
        <time>2021-09-09T13:10:24Z</time>
      </trkpt>
      <trkpt lat="44.12036" lon="5.98673">
        <ele>491</ele>
        <time>2021-09-09T13:10:25Z</time>
      </trkpt>
      <trkpt lat="44.1203" lon="5.98679">
        <ele>491.1</ele>
        <time>2021-09-09T13:10:26Z</time>
      </trkpt>
      <trkpt lat="44.12027" lon="5.98681">
        <ele>491.1</ele>
        <time>2021-09-09T13:10:28Z</time>
      </trkpt>
      <trkpt lat="44.1202" lon="5.98683">
        <ele>491.2</ele>
        <time>2021-09-09T13:10:30Z</time>
      </trkpt>
      <trkpt lat="44.12017" lon="5.98685">
        <ele>491.3</ele>
        <time>2021-09-09T13:10:31Z</time>
      </trkpt>
      <trkpt lat="44.12012" lon="5.98689">
        <ele>491.4</ele>
        <time>2021-09-09T13:10:33Z</time>
      </trkpt>
      <trkpt lat="44.12008" lon="5.98691">
        <ele>491.4</ele>
        <time>2021-09-09T13:10:34Z</time>
      </trkpt>
      <trkpt lat="44.12006" lon="5.98691">
        <ele>491.4</ele>
        <time>2021-09-09T13:10:35Z</time>
      </trkpt>
      <trkpt lat="44.12003" lon="5.98694">
        <ele>491.5</ele>
        <time>2021-09-09T13:10:36Z</time>
      </trkpt>
      <trkpt lat="44.12002" lon="5.98694">
        <ele>491.5</ele>
        <time>2021-09-09T13:10:37Z</time>
      </trkpt>
      <trkpt lat="44.11999" lon="5.98696">
        <ele>491.5</ele>
        <time>2021-09-09T13:10:39Z</time>
      </trkpt>
      <trkpt lat="44.11998" lon="5.98697">
        <ele>491.5</ele>
        <time>2021-09-09T13:10:41Z</time>
      </trkpt>
      <trkpt lat="44.11995" lon="5.98701">
        <ele>491.5</ele>
        <time>2021-09-09T13:10:43Z</time>
      </trkpt>
      <trkpt lat="44.11992" lon="5.98703">
        <ele>491.5</ele>
        <time>2021-09-09T13:10:45Z</time>
      </trkpt>
      <trkpt lat="44.11987" lon="5.98704">
        <ele>491.5</ele>
        <time>2021-09-09T13:10:46Z</time>
      </trkpt>
      <trkpt lat="44.11981" lon="5.98706">
        <ele>491.5</ele>
        <time>2021-09-09T13:10:48Z</time>
      </trkpt>
      <trkpt lat="44.11976" lon="5.98708">
        <ele>491.4</ele>
        <time>2021-09-09T13:10:50Z</time>
      </trkpt>
      <trkpt lat="44.1197" lon="5.98711">
        <ele>491.4</ele>
        <time>2021-09-09T13:10:51Z</time>
      </trkpt>
      <trkpt lat="44.1196" lon="5.98715">
        <ele>491.2</ele>
        <time>2021-09-09T13:10:53Z</time>
      </trkpt>
      <trkpt lat="44.11956" lon="5.98718">
        <ele>491.2</ele>
        <time>2021-09-09T13:10:54Z</time>
      </trkpt>
      <trkpt lat="44.11943" lon="5.98723">
        <ele>491.1</ele>
        <time>2021-09-09T13:10:56Z</time>
      </trkpt>
      <trkpt lat="44.1193" lon="5.98726">
        <ele>491.1</ele>
        <time>2021-09-09T13:10:58Z</time>
      </trkpt>
      <trkpt lat="44.1192" lon="5.98735">
        <ele>491.1</ele>
        <time>2021-09-09T13:11:00Z</time>
      </trkpt>
      <trkpt lat="44.11913" lon="5.98746">
        <ele>491.2</ele>
        <time>2021-09-09T13:11:02Z</time>
      </trkpt>
      <trkpt lat="44.11911" lon="5.98749">
        <ele>491.2</ele>
        <time>2021-09-09T13:11:03Z</time>
      </trkpt>
      <trkpt lat="44.11909" lon="5.98751">
        <ele>491.2</ele>
        <time>2021-09-09T13:11:04Z</time>
      </trkpt>
      <trkpt lat="44.11896" lon="5.98753">
        <ele>491.2</ele>
        <time>2021-09-09T13:11:07Z</time>
      </trkpt>
      <trkpt lat="44.11891" lon="5.98754">
        <ele>491.2</ele>
        <time>2021-09-09T13:11:08Z</time>
      </trkpt>
      <trkpt lat="44.11886" lon="5.98754">
        <ele>491.1</ele>
        <time>2021-09-09T13:11:09Z</time>
      </trkpt>
      <trkpt lat="44.11878" lon="5.98754">
        <ele>491</ele>
        <time>2021-09-09T13:11:10Z</time>
      </trkpt>
      <trkpt lat="44.11872" lon="5.98752">
        <ele>490.8</ele>
        <time>2021-09-09T13:11:12Z</time>
      </trkpt>
      <trkpt lat="44.11868" lon="5.98752">
        <ele>490.7</ele>
        <time>2021-09-09T13:11:13Z</time>
      </trkpt>
      <trkpt lat="44.1186" lon="5.98753">
        <ele>490.5</ele>
        <time>2021-09-09T13:11:14Z</time>
      </trkpt>
      <trkpt lat="44.11856" lon="5.98755">
        <ele>490.3</ele>
        <time>2021-09-09T13:11:16Z</time>
      </trkpt>
      <trkpt lat="44.11853" lon="5.98756">
        <ele>490.3</ele>
        <time>2021-09-09T13:11:17Z</time>
      </trkpt>
      <trkpt lat="44.11845" lon="5.98756">
        <ele>490.1</ele>
        <time>2021-09-09T13:11:19Z</time>
      </trkpt>
      <trkpt lat="44.11835" lon="5.98757">
        <ele>489.9</ele>
        <time>2021-09-09T13:11:21Z</time>
      </trkpt>
      <trkpt lat="44.11823" lon="5.98768">
        <ele>489.9</ele>
        <time>2021-09-09T13:11:23Z</time>
      </trkpt>
      <trkpt lat="44.11818" lon="5.98776">
        <ele>489.9</ele>
        <time>2021-09-09T13:11:24Z</time>
      </trkpt>
      <trkpt lat="44.11813" lon="5.98794">
        <ele>490.4</ele>
        <time>2021-09-09T13:11:26Z</time>
      </trkpt>
      <trkpt lat="44.11815" lon="5.9881">
        <ele>491.1</ele>
        <time>2021-09-09T13:11:28Z</time>
      </trkpt>
      <trkpt lat="44.11816" lon="5.98818">
        <ele>491.5</ele>
        <time>2021-09-09T13:11:29Z</time>
      </trkpt>
      <trkpt lat="44.11818" lon="5.98828">
        <ele>492</ele>
        <time>2021-09-09T13:11:31Z</time>
      </trkpt>
      <trkpt lat="44.11816" lon="5.98825">
        <ele>492.2</ele>
        <time>2021-09-09T13:11:32Z</time>
      </trkpt>
      <trkpt lat="44.11818" lon="5.98837">
        <ele>492.9</ele>
        <time>2021-09-09T13:11:34Z</time>
      </trkpt>
      <trkpt lat="44.11818" lon="5.98848">
        <ele>493.8</ele>
        <time>2021-09-09T13:11:35Z</time>
      </trkpt>
      <trkpt lat="44.11816" lon="5.98855">
        <ele>494.3</ele>
        <time>2021-09-09T13:11:37Z</time>
      </trkpt>
      <trkpt lat="44.11815" lon="5.98859">
        <ele>494.6</ele>
        <time>2021-09-09T13:11:38Z</time>
      </trkpt>
      <trkpt lat="44.11813" lon="5.98864">
        <ele>495.1</ele>
        <time>2021-09-09T13:11:39Z</time>
      </trkpt>
      <trkpt lat="44.1181" lon="5.98865">
        <ele>495.4</ele>
        <time>2021-09-09T13:11:41Z</time>
      </trkpt>
      <trkpt lat="44.1181" lon="5.98864">
        <ele>495.4</ele>
        <time>2021-09-09T13:11:43Z</time>
      </trkpt>
      <trkpt lat="44.1181" lon="5.98863">
        <ele>495.5</ele>
        <time>2021-09-09T13:11:44Z</time>
      </trkpt>
      <trkpt lat="44.1181" lon="5.98863">
        <ele>495.5</ele>
        <time>2021-09-09T13:11:45Z</time>
      </trkpt>
      <trkpt lat="44.11809" lon="5.98864">
        <ele>495.6</ele>
        <time>2021-09-09T13:11:46Z</time>
      </trkpt>
      <trkpt lat="44.11806" lon="5.98867">
        <ele>496</ele>
        <time>2021-09-09T13:11:48Z</time>
      </trkpt>
      <trkpt lat="44.11802" lon="5.98868">
        <ele>496.3</ele>
        <time>2021-09-09T13:11:50Z</time>
      </trkpt>
      <trkpt lat="44.118" lon="5.98868">
        <ele>496.6</ele>
        <time>2021-09-09T13:11:51Z</time>
      </trkpt>
      <trkpt lat="44.11795" lon="5.98869">
        <ele>496.9</ele>
        <time>2021-09-09T13:11:52Z</time>
      </trkpt>
      <trkpt lat="44.11795" lon="5.9887">
        <ele>496.9</ele>
        <time>2021-09-09T13:11:54Z</time>
      </trkpt>
      <trkpt lat="44.11792" lon="5.9887">
        <ele>497.1</ele>
        <time>2021-09-09T13:11:55Z</time>
      </trkpt>
      <trkpt lat="44.1179" lon="5.9887">
        <ele>497.3</ele>
        <time>2021-09-09T13:11:56Z</time>
      </trkpt>
      <trkpt lat="44.11787" lon="5.9887">
        <ele>497.5</ele>
        <time>2021-09-09T13:11:58Z</time>
      </trkpt>
      <trkpt lat="44.11784" lon="5.98869">
        <ele>497.7</ele>
        <time>2021-09-09T13:11:59Z</time>
      </trkpt>
      <trkpt lat="44.11782" lon="5.98868">
        <ele>497.8</ele>
        <time>2021-09-09T13:12:00Z</time>
      </trkpt>
      <trkpt lat="44.11778" lon="5.98867">
        <ele>498.1</ele>
        <time>2021-09-09T13:12:01Z</time>
      </trkpt>
      <trkpt lat="44.11775" lon="5.98868">
        <ele>498.3</ele>
        <time>2021-09-09T13:12:03Z</time>
      </trkpt>
      <trkpt lat="44.11774" lon="5.98869">
        <ele>498.3</ele>
        <time>2021-09-09T13:12:04Z</time>
      </trkpt>
      <trkpt lat="44.11772" lon="5.98869">
        <ele>498.5</ele>
        <time>2021-09-09T13:12:05Z</time>
      </trkpt>
      <trkpt lat="44.1177" lon="5.98871">
        <ele>498.6</ele>
        <time>2021-09-09T13:12:07Z</time>
      </trkpt>
      <trkpt lat="44.11769" lon="5.98873">
        <ele>498.7</ele>
        <time>2021-09-09T13:12:08Z</time>
      </trkpt>
      <trkpt lat="44.11767" lon="5.98873">
        <ele>498.7</ele>
        <time>2021-09-09T13:12:10Z</time>
      </trkpt>
      <trkpt lat="44.11765" lon="5.98876">
        <ele>498.9</ele>
        <time>2021-09-09T13:12:12Z</time>
      </trkpt>
      <trkpt lat="44.11762" lon="5.98882">
        <ele>499.1</ele>
        <time>2021-09-09T13:12:13Z</time>
      </trkpt>
      <trkpt lat="44.11759" lon="5.98884">
        <ele>499.2</ele>
        <time>2021-09-09T13:12:15Z</time>
      </trkpt>
      <trkpt lat="44.11757" lon="5.98886">
        <ele>499.3</ele>
        <time>2021-09-09T13:12:17Z</time>
      </trkpt>
      <trkpt lat="44.11755" lon="5.98887">
        <ele>499.4</ele>
        <time>2021-09-09T13:12:18Z</time>
      </trkpt>
      <trkpt lat="44.11754" lon="5.98889">
        <ele>499.5</ele>
        <time>2021-09-09T13:12:19Z</time>
      </trkpt>
      <trkpt lat="44.11753" lon="5.98891">
        <ele>499.6</ele>
        <time>2021-09-09T13:12:21Z</time>
      </trkpt>
      <trkpt lat="44.11752" lon="5.98889">
        <ele>499.6</ele>
        <time>2021-09-09T13:12:22Z</time>
      </trkpt>
      <trkpt lat="44.11752" lon="5.98889">
        <ele>499.6</ele>
        <time>2021-09-09T13:12:23Z</time>
      </trkpt>
      <trkpt lat="44.11752" lon="5.98889">
        <ele>499.6</ele>
        <time>2021-09-09T13:12:25Z</time>
      </trkpt>
      <trkpt lat="44.11752" lon="5.98889">
        <ele>499.6</ele>
        <time>2021-09-09T13:12:26Z</time>
      </trkpt>
      <trkpt lat="44.11752" lon="5.98889">
        <ele>499.6</ele>
        <time>2021-09-09T13:12:27Z</time>
      </trkpt>
      <trkpt lat="44.11752" lon="5.9889">
        <ele>499.6</ele>
        <time>2021-09-09T13:12:28Z</time>
      </trkpt>
      <trkpt lat="44.11752" lon="5.9889">
        <ele>499.6</ele>
        <time>2021-09-09T13:12:30Z</time>
      </trkpt>
      <trkpt lat="44.11714" lon="5.98891">
        <ele>500.8</ele>
        <time>2021-09-09T13:12:43Z</time>
      </trkpt>
      <trkpt lat="44.11712" lon="5.98894">
        <ele>500.9</ele>
        <time>2021-09-09T13:12:44Z</time>
      </trkpt>
      <trkpt lat="44.11708" lon="5.98899">
        <ele>501</ele>
        <time>2021-09-09T13:12:45Z</time>
      </trkpt>
      <trkpt lat="44.11702" lon="5.98906">
        <ele>501</ele>
        <time>2021-09-09T13:12:47Z</time>
      </trkpt>
      <trkpt lat="44.11699" lon="5.98908">
        <ele>501</ele>
        <time>2021-09-09T13:12:48Z</time>
      </trkpt>
      <trkpt lat="44.11693" lon="5.98915">
        <ele>501</ele>
        <time>2021-09-09T13:12:49Z</time>
      </trkpt>
      <trkpt lat="44.11689" lon="5.98919">
        <ele>501</ele>
        <time>2021-09-09T13:12:51Z</time>
      </trkpt>
      <trkpt lat="44.11685" lon="5.98922">
        <ele>501</ele>
        <time>2021-09-09T13:12:52Z</time>
      </trkpt>
      <trkpt lat="44.11678" lon="5.98926">
        <ele>501</ele>
        <time>2021-09-09T13:12:54Z</time>
      </trkpt>
      <trkpt lat="44.11669" lon="5.9893">
        <ele>501</ele>
        <time>2021-09-09T13:12:56Z</time>
      </trkpt>
      <trkpt lat="44.11665" lon="5.98932">
        <ele>501</ele>
        <time>2021-09-09T13:12:57Z</time>
      </trkpt>
      <trkpt lat="44.11662" lon="5.98936">
        <ele>501</ele>
        <time>2021-09-09T13:12:58Z</time>
      </trkpt>
      <trkpt lat="44.11657" lon="5.9894">
        <ele>501</ele>
        <time>2021-09-09T13:12:59Z</time>
      </trkpt>
      <trkpt lat="44.1165" lon="5.98942">
        <ele>501</ele>
        <time>2021-09-09T13:13:01Z</time>
      </trkpt>
      <trkpt lat="44.11647" lon="5.98944">
        <ele>501</ele>
        <time>2021-09-09T13:13:02Z</time>
      </trkpt>
      <trkpt lat="44.11642" lon="5.98946">
        <ele>501</ele>
        <time>2021-09-09T13:13:03Z</time>
      </trkpt>
      <trkpt lat="44.11636" lon="5.9895">
        <ele>500.9</ele>
        <time>2021-09-09T13:13:05Z</time>
      </trkpt>
      <trkpt lat="44.11633" lon="5.98952">
        <ele>500.9</ele>
        <time>2021-09-09T13:13:06Z</time>
      </trkpt>
      <trkpt lat="44.11629" lon="5.98954">
        <ele>500.9</ele>
        <time>2021-09-09T13:13:07Z</time>
      </trkpt>
      <trkpt lat="44.11624" lon="5.98958">
        <ele>500.9</ele>
        <time>2021-09-09T13:13:08Z</time>
      </trkpt>
      <trkpt lat="44.1162" lon="5.98961">
        <ele>500.8</ele>
        <time>2021-09-09T13:13:10Z</time>
      </trkpt>
      <trkpt lat="44.11614" lon="5.98965">
        <ele>500.8</ele>
        <time>2021-09-09T13:13:11Z</time>
      </trkpt>
      <trkpt lat="44.11611" lon="5.98968">
        <ele>500.7</ele>
        <time>2021-09-09T13:13:12Z</time>
      </trkpt>
      <trkpt lat="44.11606" lon="5.98972">
        <ele>500.6</ele>
        <time>2021-09-09T13:13:14Z</time>
      </trkpt>
      <trkpt lat="44.11598" lon="5.98976">
        <ele>500.5</ele>
        <time>2021-09-09T13:13:16Z</time>
      </trkpt>
      <trkpt lat="44.11594" lon="5.98979">
        <ele>500.4</ele>
        <time>2021-09-09T13:13:17Z</time>
      </trkpt>
      <trkpt lat="44.1159" lon="5.98981">
        <ele>500.3</ele>
        <time>2021-09-09T13:13:18Z</time>
      </trkpt>
      <trkpt lat="44.11586" lon="5.98983">
        <ele>500.3</ele>
        <time>2021-09-09T13:13:19Z</time>
      </trkpt>
      <trkpt lat="44.11579" lon="5.98983">
        <ele>500.2</ele>
        <time>2021-09-09T13:13:21Z</time>
      </trkpt>
      <trkpt lat="44.11572" lon="5.98985">
        <ele>500.1</ele>
        <time>2021-09-09T13:13:23Z</time>
      </trkpt>
      <trkpt lat="44.11565" lon="5.98986">
        <ele>500</ele>
        <time>2021-09-09T13:13:25Z</time>
      </trkpt>
      <trkpt lat="44.11559" lon="5.98987">
        <ele>500</ele>
        <time>2021-09-09T13:13:26Z</time>
      </trkpt>
      <trkpt lat="44.11554" lon="5.98988">
        <ele>499.9</ele>
        <time>2021-09-09T13:13:28Z</time>
      </trkpt>
      <trkpt lat="44.1155" lon="5.9899">
        <ele>499.8</ele>
        <time>2021-09-09T13:13:29Z</time>
      </trkpt>
      <trkpt lat="44.11546" lon="5.98992">
        <ele>499.8</ele>
        <time>2021-09-09T13:13:30Z</time>
      </trkpt>
      <trkpt lat="44.11543" lon="5.98994">
        <ele>499.7</ele>
        <time>2021-09-09T13:13:31Z</time>
      </trkpt>
      <trkpt lat="44.11539" lon="5.98996">
        <ele>499.6</ele>
        <time>2021-09-09T13:13:32Z</time>
      </trkpt>
      <trkpt lat="44.11532" lon="5.99001">
        <ele>499.5</ele>
        <time>2021-09-09T13:13:34Z</time>
      </trkpt>
      <trkpt lat="44.11525" lon="5.99005">
        <ele>499.4</ele>
        <time>2021-09-09T13:13:35Z</time>
      </trkpt>
      <trkpt lat="44.1152" lon="5.99007">
        <ele>499.3</ele>
        <time>2021-09-09T13:13:37Z</time>
      </trkpt>
      <trkpt lat="44.11514" lon="5.9901">
        <ele>499.2</ele>
        <time>2021-09-09T13:13:38Z</time>
      </trkpt>
      <trkpt lat="44.11509" lon="5.99011">
        <ele>499.2</ele>
        <time>2021-09-09T13:13:39Z</time>
      </trkpt>
      <trkpt lat="44.11503" lon="5.99015">
        <ele>499.1</ele>
        <time>2021-09-09T13:13:40Z</time>
      </trkpt>
      <trkpt lat="44.11497" lon="5.99019">
        <ele>499.1</ele>
        <time>2021-09-09T13:13:42Z</time>
      </trkpt>
      <trkpt lat="44.11492" lon="5.99021">
        <ele>499</ele>
        <time>2021-09-09T13:13:43Z</time>
      </trkpt>
      <trkpt lat="44.11483" lon="5.99024">
        <ele>499</ele>
        <time>2021-09-09T13:13:45Z</time>
      </trkpt>
      <trkpt lat="44.11473" lon="5.99026">
        <ele>499</ele>
        <time>2021-09-09T13:13:47Z</time>
      </trkpt>
      <trkpt lat="44.11465" lon="5.99029">
        <ele>499</ele>
        <time>2021-09-09T13:13:49Z</time>
      </trkpt>
      <trkpt lat="44.11461" lon="5.99032">
        <ele>499</ele>
        <time>2021-09-09T13:13:50Z</time>
      </trkpt>
      <trkpt lat="44.11457" lon="5.99034">
        <ele>499</ele>
        <time>2021-09-09T13:13:51Z</time>
      </trkpt>
      <trkpt lat="44.11448" lon="5.9904">
        <ele>499</ele>
        <time>2021-09-09T13:13:53Z</time>
      </trkpt>
      <trkpt lat="44.1144" lon="5.99047">
        <ele>499</ele>
        <time>2021-09-09T13:13:55Z</time>
      </trkpt>
      <trkpt lat="44.11435" lon="5.9905">
        <ele>499</ele>
        <time>2021-09-09T13:13:56Z</time>
      </trkpt>
      <trkpt lat="44.11429" lon="5.99054">
        <ele>499</ele>
        <time>2021-09-09T13:13:58Z</time>
      </trkpt>
      <trkpt lat="44.11425" lon="5.99056">
        <ele>499</ele>
        <time>2021-09-09T13:13:59Z</time>
      </trkpt>
      <trkpt lat="44.1142" lon="5.99059">
        <ele>499</ele>
        <time>2021-09-09T13:14:00Z</time>
      </trkpt>
      <trkpt lat="44.11412" lon="5.99066">
        <ele>499</ele>
        <time>2021-09-09T13:14:02Z</time>
      </trkpt>
      <trkpt lat="44.11408" lon="5.9907">
        <ele>499</ele>
        <time>2021-09-09T13:14:03Z</time>
      </trkpt>
      <trkpt lat="44.11407" lon="5.99074">
        <ele>499</ele>
        <time>2021-09-09T13:14:04Z</time>
      </trkpt>
      <trkpt lat="44.11404" lon="5.99078">
        <ele>499</ele>
        <time>2021-09-09T13:14:05Z</time>
      </trkpt>
      <trkpt lat="44.11396" lon="5.99085">
        <ele>499</ele>
        <time>2021-09-09T13:14:07Z</time>
      </trkpt>
      <trkpt lat="44.11391" lon="5.99089">
        <ele>499</ele>
        <time>2021-09-09T13:14:08Z</time>
      </trkpt>
      <trkpt lat="44.11383" lon="5.99098">
        <ele>499.1</ele>
        <time>2021-09-09T13:14:10Z</time>
      </trkpt>
      <trkpt lat="44.1138" lon="5.99104">
        <ele>499.1</ele>
        <time>2021-09-09T13:14:11Z</time>
      </trkpt>
      <trkpt lat="44.11377" lon="5.99109">
        <ele>499.1</ele>
        <time>2021-09-09T13:14:12Z</time>
      </trkpt>
      <trkpt lat="44.11371" lon="5.99112">
        <ele>499.2</ele>
        <time>2021-09-09T13:14:13Z</time>
      </trkpt>
      <trkpt lat="44.11366" lon="5.9912">
        <ele>499.2</ele>
        <time>2021-09-09T13:14:15Z</time>
      </trkpt>
      <trkpt lat="44.11363" lon="5.99124">
        <ele>499.2</ele>
        <time>2021-09-09T13:14:17Z</time>
      </trkpt>
      <trkpt lat="44.11359" lon="5.99127">
        <ele>499.2</ele>
        <time>2021-09-09T13:14:18Z</time>
      </trkpt>
      <trkpt lat="44.11355" lon="5.99129">
        <ele>499.2</ele>
        <time>2021-09-09T13:14:19Z</time>
      </trkpt>
      <trkpt lat="44.11348" lon="5.9913">
        <ele>499.3</ele>
        <time>2021-09-09T13:14:21Z</time>
      </trkpt>
      <trkpt lat="44.11341" lon="5.99133">
        <ele>499.3</ele>
        <time>2021-09-09T13:14:23Z</time>
      </trkpt>
      <trkpt lat="44.11333" lon="5.99135">
        <ele>499.4</ele>
        <time>2021-09-09T13:14:25Z</time>
      </trkpt>
      <trkpt lat="44.11326" lon="5.99138">
        <ele>499.4</ele>
        <time>2021-09-09T13:14:26Z</time>
      </trkpt>
      <trkpt lat="44.1132" lon="5.99146">
        <ele>499.5</ele>
        <time>2021-09-09T13:14:28Z</time>
      </trkpt>
      <trkpt lat="44.11316" lon="5.99154">
        <ele>499.6</ele>
        <time>2021-09-09T13:14:30Z</time>
      </trkpt>
      <trkpt lat="44.11313" lon="5.99158">
        <ele>499.7</ele>
        <time>2021-09-09T13:14:31Z</time>
      </trkpt>
      <trkpt lat="44.11311" lon="5.99163">
        <ele>499.7</ele>
        <time>2021-09-09T13:14:32Z</time>
      </trkpt>
      <trkpt lat="44.11309" lon="5.99169">
        <ele>499.8</ele>
        <time>2021-09-09T13:14:34Z</time>
      </trkpt>
      <trkpt lat="44.11307" lon="5.99173">
        <ele>499.8</ele>
        <time>2021-09-09T13:14:35Z</time>
      </trkpt>
      <trkpt lat="44.11306" lon="5.99177">
        <ele>499.9</ele>
        <time>2021-09-09T13:14:36Z</time>
      </trkpt>
      <trkpt lat="44.11303" lon="5.99183">
        <ele>499.9</ele>
        <time>2021-09-09T13:14:37Z</time>
      </trkpt>
      <trkpt lat="44.11302" lon="5.99187">
        <ele>500</ele>
        <time>2021-09-09T13:14:38Z</time>
      </trkpt>
      <trkpt lat="44.11299" lon="5.99191">
        <ele>500</ele>
        <time>2021-09-09T13:14:40Z</time>
      </trkpt>
      <trkpt lat="44.11297" lon="5.99194">
        <ele>500.1</ele>
        <time>2021-09-09T13:14:41Z</time>
      </trkpt>
      <trkpt lat="44.11293" lon="5.992">
        <ele>500.2</ele>
        <time>2021-09-09T13:14:42Z</time>
      </trkpt>
      <trkpt lat="44.1129" lon="5.9921">
        <ele>500.3</ele>
        <time>2021-09-09T13:14:44Z</time>
      </trkpt>
      <trkpt lat="44.11289" lon="5.99215">
        <ele>500.4</ele>
        <time>2021-09-09T13:14:46Z</time>
      </trkpt>
      <trkpt lat="44.11287" lon="5.9922">
        <ele>500.5</ele>
        <time>2021-09-09T13:14:48Z</time>
      </trkpt>
      <trkpt lat="44.11286" lon="5.99223">
        <ele>500.6</ele>
        <time>2021-09-09T13:14:49Z</time>
      </trkpt>
      <trkpt lat="44.11285" lon="5.99227">
        <ele>500.6</ele>
        <time>2021-09-09T13:14:50Z</time>
      </trkpt>
      <trkpt lat="44.11283" lon="5.99232">
        <ele>500.7</ele>
        <time>2021-09-09T13:14:51Z</time>
      </trkpt>
      <trkpt lat="44.1128" lon="5.99235">
        <ele>500.8</ele>
        <time>2021-09-09T13:14:53Z</time>
      </trkpt>
      <trkpt lat="44.11277" lon="5.99238">
        <ele>500.8</ele>
        <time>2021-09-09T13:14:54Z</time>
      </trkpt>
      <trkpt lat="44.11273" lon="5.99241">
        <ele>500.9</ele>
        <time>2021-09-09T13:14:56Z</time>
      </trkpt>
      <trkpt lat="44.11269" lon="5.99241">
        <ele>500.9</ele>
        <time>2021-09-09T13:14:57Z</time>
      </trkpt>
      <trkpt lat="44.11264" lon="5.99243">
        <ele>501</ele>
        <time>2021-09-09T13:14:58Z</time>
      </trkpt>
      <trkpt lat="44.1126" lon="5.99245">
        <ele>501</ele>
        <time>2021-09-09T13:14:59Z</time>
      </trkpt>
      <trkpt lat="44.11256" lon="5.99247">
        <ele>501</ele>
        <time>2021-09-09T13:15:01Z</time>
      </trkpt>
      <trkpt lat="44.11253" lon="5.99249">
        <ele>501</ele>
        <time>2021-09-09T13:15:02Z</time>
      </trkpt>
      <trkpt lat="44.11247" lon="5.99252">
        <ele>501</ele>
        <time>2021-09-09T13:15:03Z</time>
      </trkpt>
      <trkpt lat="44.11242" lon="5.99255">
        <ele>501</ele>
        <time>2021-09-09T13:15:05Z</time>
      </trkpt>
      <trkpt lat="44.11238" lon="5.99258">
        <ele>500.9</ele>
        <time>2021-09-09T13:15:06Z</time>
      </trkpt>
      <trkpt lat="44.11233" lon="5.99261">
        <ele>500.8</ele>
        <time>2021-09-09T13:15:07Z</time>
      </trkpt>
      <trkpt lat="44.11229" lon="5.99265">
        <ele>500.7</ele>
        <time>2021-09-09T13:15:08Z</time>
      </trkpt>
      <trkpt lat="44.11223" lon="5.9927">
        <ele>500.5</ele>
        <time>2021-09-09T13:15:10Z</time>
      </trkpt>
      <trkpt lat="44.11216" lon="5.9928">
        <ele>500.2</ele>
        <time>2021-09-09T13:15:12Z</time>
      </trkpt>
      <trkpt lat="44.11212" lon="5.99285">
        <ele>500</ele>
        <time>2021-09-09T13:15:13Z</time>
      </trkpt>
      <trkpt lat="44.11204" lon="5.99295">
        <ele>499.5</ele>
        <time>2021-09-09T13:15:15Z</time>
      </trkpt>
      <trkpt lat="44.112" lon="5.993">
        <ele>499.3</ele>
        <time>2021-09-09T13:15:16Z</time>
      </trkpt>
      <trkpt lat="44.11192" lon="5.99309">
        <ele>498.8</ele>
        <time>2021-09-09T13:15:18Z</time>
      </trkpt>
      <trkpt lat="44.11185" lon="5.99318">
        <ele>498.3</ele>
        <time>2021-09-09T13:15:20Z</time>
      </trkpt>
      <trkpt lat="44.11181" lon="5.99322">
        <ele>498</ele>
        <time>2021-09-09T13:15:21Z</time>
      </trkpt>
      <trkpt lat="44.11177" lon="5.99326">
        <ele>497.7</ele>
        <time>2021-09-09T13:15:22Z</time>
      </trkpt>
      <trkpt lat="44.11173" lon="5.99331">
        <ele>497.3</ele>
        <time>2021-09-09T13:15:23Z</time>
      </trkpt>
      <trkpt lat="44.11168" lon="5.99335">
        <ele>496.9</ele>
        <time>2021-09-09T13:15:24Z</time>
      </trkpt>
      <trkpt lat="44.11158" lon="5.99344">
        <ele>496.1</ele>
        <time>2021-09-09T13:15:26Z</time>
      </trkpt>
      <trkpt lat="44.11154" lon="5.99349">
        <ele>495.7</ele>
        <time>2021-09-09T13:15:27Z</time>
      </trkpt>
      <trkpt lat="44.11143" lon="5.9936">
        <ele>494.7</ele>
        <time>2021-09-09T13:15:29Z</time>
      </trkpt>
      <trkpt lat="44.11137" lon="5.99367">
        <ele>494.2</ele>
        <time>2021-09-09T13:15:30Z</time>
      </trkpt>
      <trkpt lat="44.11131" lon="5.99374">
        <ele>493.7</ele>
        <time>2021-09-09T13:15:31Z</time>
      </trkpt>
      <trkpt lat="44.11125" lon="5.99381">
        <ele>493.2</ele>
        <time>2021-09-09T13:15:32Z</time>
      </trkpt>
      <trkpt lat="44.11119" lon="5.99389">
        <ele>492.6</ele>
        <time>2021-09-09T13:15:33Z</time>
      </trkpt>
      <trkpt lat="44.11106" lon="5.99402">
        <ele>491.4</ele>
        <time>2021-09-09T13:15:35Z</time>
      </trkpt>
      <trkpt lat="44.111" lon="5.99407">
        <ele>491.1</ele>
        <time>2021-09-09T13:15:36Z</time>
      </trkpt>
      <trkpt lat="44.11088" lon="5.99416">
        <ele>491</ele>
        <time>2021-09-09T13:15:38Z</time>
      </trkpt>
      <trkpt lat="44.11082" lon="5.99418">
        <ele>490.9</ele>
        <time>2021-09-09T13:15:39Z</time>
      </trkpt>
      <trkpt lat="44.11071" lon="5.9942">
        <ele>490.9</ele>
        <time>2021-09-09T13:15:41Z</time>
      </trkpt>
      <trkpt lat="44.11057" lon="5.99425">
        <ele>490.9</ele>
        <time>2021-09-09T13:15:43Z</time>
      </trkpt>
      <trkpt lat="44.11046" lon="5.99431">
        <ele>492</ele>
        <time>2021-09-09T13:15:45Z</time>
      </trkpt>
      <trkpt lat="44.11042" lon="5.99437">
        <ele>492.4</ele>
        <time>2021-09-09T13:15:46Z</time>
      </trkpt>
      <trkpt lat="44.11038" lon="5.99442">
        <ele>492.8</ele>
        <time>2021-09-09T13:15:47Z</time>
      </trkpt>
      <trkpt lat="44.11033" lon="5.99452">
        <ele>493.5</ele>
        <time>2021-09-09T13:15:49Z</time>
      </trkpt>
      <trkpt lat="44.11031" lon="5.99454">
        <ele>493.7</ele>
        <time>2021-09-09T13:15:50Z</time>
      </trkpt>
      <trkpt lat="44.11028" lon="5.99457">
        <ele>494</ele>
        <time>2021-09-09T13:15:51Z</time>
      </trkpt>
      <trkpt lat="44.11024" lon="5.99459">
        <ele>494.4</ele>
        <time>2021-09-09T13:15:53Z</time>
      </trkpt>
      <trkpt lat="44.11022" lon="5.99461">
        <ele>494.7</ele>
        <time>2021-09-09T13:15:54Z</time>
      </trkpt>
      <trkpt lat="44.11021" lon="5.99461">
        <ele>494.7</ele>
        <time>2021-09-09T13:15:55Z</time>
      </trkpt>
      <trkpt lat="44.11021" lon="5.99462">
        <ele>494.8</ele>
        <time>2021-09-09T13:15:57Z</time>
      </trkpt>
      <trkpt lat="44.11021" lon="5.99463">
        <ele>494.8</ele>
        <time>2021-09-09T13:15:58Z</time>
      </trkpt>
      <trkpt lat="44.1102" lon="5.99467">
        <ele>495.1</ele>
        <time>2021-09-09T13:16:00Z</time>
      </trkpt>
      <trkpt lat="44.11019" lon="5.99469">
        <ele>495.2</ele>
        <time>2021-09-09T13:16:01Z</time>
      </trkpt>
      <trkpt lat="44.11018" lon="5.99471">
        <ele>495.4</ele>
        <time>2021-09-09T13:16:02Z</time>
      </trkpt>
      <trkpt lat="44.11015" lon="5.99482">
        <ele>496.1</ele>
        <time>2021-09-09T13:16:03Z</time>
      </trkpt>
      <trkpt lat="44.10975" lon="5.99522">
        <ele>498.7</ele>
        <time>2021-09-09T13:16:25Z</time>
      </trkpt>
      <trkpt lat="44.10974" lon="5.99522">
        <ele>498.8</ele>
        <time>2021-09-09T13:16:26Z</time>
      </trkpt>
      <trkpt lat="44.10971" lon="5.99522">
        <ele>498.8</ele>
        <time>2021-09-09T13:16:28Z</time>
      </trkpt>
      <trkpt lat="44.10967" lon="5.99526">
        <ele>498.9</ele>
        <time>2021-09-09T13:16:30Z</time>
      </trkpt>
      <trkpt lat="44.10966" lon="5.9953">
        <ele>498.9</ele>
        <time>2021-09-09T13:16:31Z</time>
      </trkpt>
      <trkpt lat="44.10965" lon="5.99531">
        <ele>498.9</ele>
        <time>2021-09-09T13:16:32Z</time>
      </trkpt>
      <trkpt lat="44.10964" lon="5.99534">
        <ele>498.9</ele>
        <time>2021-09-09T13:16:33Z</time>
      </trkpt>
      <trkpt lat="44.10965" lon="5.99533">
        <ele>498.9</ele>
        <time>2021-09-09T13:16:35Z</time>
      </trkpt>
      <trkpt lat="44.10966" lon="5.99532">
        <ele>498.9</ele>
        <time>2021-09-09T13:16:36Z</time>
      </trkpt>
      <trkpt lat="44.10965" lon="5.99533">
        <ele>498.9</ele>
        <time>2021-09-09T13:16:38Z</time>
      </trkpt>
      <trkpt lat="44.10965" lon="5.99533">
        <ele>498.9</ele>
        <time>2021-09-09T13:16:39Z</time>
      </trkpt>
      <trkpt lat="44.10961" lon="5.99538">
        <ele>498.9</ele>
        <time>2021-09-09T13:16:41Z</time>
      </trkpt>
      <trkpt lat="44.10957" lon="5.99543">
        <ele>498.9</ele>
        <time>2021-09-09T13:16:42Z</time>
      </trkpt>
      <trkpt lat="44.10949" lon="5.99557">
        <ele>498.7</ele>
        <time>2021-09-09T13:16:44Z</time>
      </trkpt>
      <trkpt lat="44.10946" lon="5.99562">
        <ele>498.5</ele>
        <time>2021-09-09T13:16:45Z</time>
      </trkpt>
      <trkpt lat="44.10939" lon="5.99579">
        <ele>498.2</ele>
        <time>2021-09-09T13:16:47Z</time>
      </trkpt>
      <trkpt lat="44.10936" lon="5.99586">
        <ele>498.1</ele>
        <time>2021-09-09T13:16:48Z</time>
      </trkpt>
      <trkpt lat="44.10933" lon="5.99593">
        <ele>498</ele>
        <time>2021-09-09T13:16:49Z</time>
      </trkpt>
      <trkpt lat="44.10929" lon="5.99607">
        <ele>497.7</ele>
        <time>2021-09-09T13:16:51Z</time>
      </trkpt>
      <trkpt lat="44.10927" lon="5.99612">
        <ele>497.7</ele>
        <time>2021-09-09T13:16:52Z</time>
      </trkpt>
      <trkpt lat="44.10925" lon="5.99617">
        <ele>497.6</ele>
        <time>2021-09-09T13:16:53Z</time>
      </trkpt>
      <trkpt lat="44.10921" lon="5.99627">
        <ele>497.4</ele>
        <time>2021-09-09T13:16:55Z</time>
      </trkpt>
      <trkpt lat="44.10917" lon="5.99636">
        <ele>497.2</ele>
        <time>2021-09-09T13:16:57Z</time>
      </trkpt>
      <trkpt lat="44.10914" lon="5.99645">
        <ele>497.1</ele>
        <time>2021-09-09T13:16:59Z</time>
      </trkpt>
      <trkpt lat="44.10912" lon="5.99649">
        <ele>497.1</ele>
        <time>2021-09-09T13:17:00Z</time>
      </trkpt>
      <trkpt lat="44.1091" lon="5.99655">
        <ele>497</ele>
        <time>2021-09-09T13:17:01Z</time>
      </trkpt>
      <trkpt lat="44.10907" lon="5.9966">
        <ele>496.9</ele>
        <time>2021-09-09T13:17:02Z</time>
      </trkpt>
      <trkpt lat="44.10903" lon="5.99666">
        <ele>496.8</ele>
        <time>2021-09-09T13:17:03Z</time>
      </trkpt>
      <trkpt lat="44.10901" lon="5.99672">
        <ele>496.7</ele>
        <time>2021-09-09T13:17:05Z</time>
      </trkpt>
      <trkpt lat="44.10898" lon="5.99676">
        <ele>496.7</ele>
        <time>2021-09-09T13:17:06Z</time>
      </trkpt>
      <trkpt lat="44.10896" lon="5.99681">
        <ele>496.6</ele>
        <time>2021-09-09T13:17:07Z</time>
      </trkpt>
      <trkpt lat="44.10885" lon="5.99692">
        <ele>496.4</ele>
        <time>2021-09-09T13:17:09Z</time>
      </trkpt>
      <trkpt lat="44.10881" lon="5.99697">
        <ele>496.3</ele>
        <time>2021-09-09T13:17:10Z</time>
      </trkpt>
      <trkpt lat="44.10877" lon="5.99703">
        <ele>496.2</ele>
        <time>2021-09-09T13:17:11Z</time>
      </trkpt>
      <trkpt lat="44.10871" lon="5.99716">
        <ele>496.1</ele>
        <time>2021-09-09T13:17:13Z</time>
      </trkpt>
      <trkpt lat="44.10867" lon="5.99722">
        <ele>496</ele>
        <time>2021-09-09T13:17:14Z</time>
      </trkpt>
      <trkpt lat="44.10861" lon="5.99734">
        <ele>495.9</ele>
        <time>2021-09-09T13:17:16Z</time>
      </trkpt>
      <trkpt lat="44.10857" lon="5.9974">
        <ele>495.8</ele>
        <time>2021-09-09T13:17:17Z</time>
      </trkpt>
      <trkpt lat="44.10854" lon="5.99747">
        <ele>495.8</ele>
        <time>2021-09-09T13:17:18Z</time>
      </trkpt>
      <trkpt lat="44.10849" lon="5.99759">
        <ele>495.7</ele>
        <time>2021-09-09T13:17:20Z</time>
      </trkpt>
      <trkpt lat="44.10847" lon="5.99766">
        <ele>495.7</ele>
        <time>2021-09-09T13:17:21Z</time>
      </trkpt>
      <trkpt lat="44.10841" lon="5.99779">
        <ele>495.6</ele>
        <time>2021-09-09T13:17:23Z</time>
      </trkpt>
      <trkpt lat="44.10839" lon="5.99786">
        <ele>495.5</ele>
        <time>2021-09-09T13:17:24Z</time>
      </trkpt>
      <trkpt lat="44.10834" lon="5.99799">
        <ele>495.4</ele>
        <time>2021-09-09T13:17:26Z</time>
      </trkpt>
      <trkpt lat="44.10832" lon="5.99807">
        <ele>495.3</ele>
        <time>2021-09-09T13:17:27Z</time>
      </trkpt>
      <trkpt lat="44.10827" lon="5.99822">
        <ele>495.2</ele>
        <time>2021-09-09T13:17:29Z</time>
      </trkpt>
      <trkpt lat="44.10824" lon="5.9983">
        <ele>495.1</ele>
        <time>2021-09-09T13:17:30Z</time>
      </trkpt>
      <trkpt lat="44.10821" lon="5.99845">
        <ele>495</ele>
        <time>2021-09-09T13:17:32Z</time>
      </trkpt>
      <trkpt lat="44.10818" lon="5.99861">
        <ele>494.9</ele>
        <time>2021-09-09T13:17:34Z</time>
      </trkpt>
      <trkpt lat="44.10816" lon="5.99869">
        <ele>494.8</ele>
        <time>2021-09-09T13:17:35Z</time>
      </trkpt>
      <trkpt lat="44.10814" lon="5.99876">
        <ele>494.8</ele>
        <time>2021-09-09T13:17:36Z</time>
      </trkpt>
      <trkpt lat="44.10811" lon="5.9989">
        <ele>494.6</ele>
        <time>2021-09-09T13:17:38Z</time>
      </trkpt>
      <trkpt lat="44.10807" lon="5.99902">
        <ele>494.5</ele>
        <time>2021-09-09T13:17:40Z</time>
      </trkpt>
      <trkpt lat="44.10804" lon="5.99915">
        <ele>494.4</ele>
        <time>2021-09-09T13:17:42Z</time>
      </trkpt>
      <trkpt lat="44.10801" lon="5.99918">
        <ele>494.4</ele>
        <time>2021-09-09T13:17:43Z</time>
      </trkpt>
      <trkpt lat="44.10795" lon="5.99922">
        <ele>494.4</ele>
        <time>2021-09-09T13:17:44Z</time>
      </trkpt>
      <trkpt lat="44.10782" lon="5.99928">
        <ele>494.2</ele>
        <time>2021-09-09T13:17:46Z</time>
      </trkpt>
      <trkpt lat="44.10777" lon="5.99932">
        <ele>494.2</ele>
        <time>2021-09-09T13:17:47Z</time>
      </trkpt>
      <trkpt lat="44.10773" lon="5.99936">
        <ele>494.2</ele>
        <time>2021-09-09T13:17:48Z</time>
      </trkpt>
      <trkpt lat="44.10769" lon="5.99941">
        <ele>494.1</ele>
        <time>2021-09-09T13:17:49Z</time>
      </trkpt>
      <trkpt lat="44.10762" lon="5.99952">
        <ele>494</ele>
        <time>2021-09-09T13:17:51Z</time>
      </trkpt>
      <trkpt lat="44.10759" lon="5.99958">
        <ele>493.9</ele>
        <time>2021-09-09T13:17:52Z</time>
      </trkpt>
      <trkpt lat="44.10751" lon="5.99971">
        <ele>493.7</ele>
        <time>2021-09-09T13:17:54Z</time>
      </trkpt>
      <trkpt lat="44.10747" lon="5.99977">
        <ele>493.6</ele>
        <time>2021-09-09T13:17:55Z</time>
      </trkpt>
      <trkpt lat="44.10742" lon="5.99982">
        <ele>493.6</ele>
        <time>2021-09-09T13:17:56Z</time>
      </trkpt>
      <trkpt lat="44.10738" lon="5.99986">
        <ele>493.5</ele>
        <time>2021-09-09T13:17:57Z</time>
      </trkpt>
      <trkpt lat="44.10733" lon="5.99991">
        <ele>493.5</ele>
        <time>2021-09-09T13:17:58Z</time>
      </trkpt>
      <trkpt lat="44.10723" lon="5.99998">
        <ele>493.3</ele>
        <time>2021-09-09T13:18:00Z</time>
      </trkpt>
      <trkpt lat="44.10714" lon="6.00006">
        <ele>493.3</ele>
        <time>2021-09-09T13:18:02Z</time>
      </trkpt>
      <trkpt lat="44.10705" lon="6.00013">
        <ele>493.2</ele>
        <time>2021-09-09T13:18:04Z</time>
      </trkpt>
      <trkpt lat="44.107" lon="6.00016">
        <ele>493.2</ele>
        <time>2021-09-09T13:18:05Z</time>
      </trkpt>
      <trkpt lat="44.10696" lon="6.0002">
        <ele>493.1</ele>
        <time>2021-09-09T13:18:06Z</time>
      </trkpt>
      <trkpt lat="44.10688" lon="6.00029">
        <ele>493.1</ele>
        <time>2021-09-09T13:18:08Z</time>
      </trkpt>
      <trkpt lat="44.10681" lon="6.00042">
        <ele>493</ele>
        <time>2021-09-09T13:18:10Z</time>
      </trkpt>
      <trkpt lat="44.10673" lon="6.00053">
        <ele>492.9</ele>
        <time>2021-09-09T13:18:12Z</time>
      </trkpt>
      <trkpt lat="44.1067" lon="6.00057">
        <ele>492.9</ele>
        <time>2021-09-09T13:18:13Z</time>
      </trkpt>
      <trkpt lat="44.10665" lon="6.00061">
        <ele>492.9</ele>
        <time>2021-09-09T13:18:14Z</time>
      </trkpt>
      <trkpt lat="44.10657" lon="6.00068">
        <ele>492.8</ele>
        <time>2021-09-09T13:18:16Z</time>
      </trkpt>
      <trkpt lat="44.10648" lon="6.00076">
        <ele>492.8</ele>
        <time>2021-09-09T13:18:18Z</time>
      </trkpt>
      <trkpt lat="44.10644" lon="6.0008">
        <ele>492.8</ele>
        <time>2021-09-09T13:18:19Z</time>
      </trkpt>
      <trkpt lat="44.1064" lon="6.00083">
        <ele>492.7</ele>
        <time>2021-09-09T13:18:20Z</time>
      </trkpt>
      <trkpt lat="44.10636" lon="6.00088">
        <ele>492.7</ele>
        <time>2021-09-09T13:18:21Z</time>
      </trkpt>
      <trkpt lat="44.10632" lon="6.00091">
        <ele>492.6</ele>
        <time>2021-09-09T13:18:22Z</time>
      </trkpt>
      <trkpt lat="44.10628" lon="6.00095">
        <ele>492.6</ele>
        <time>2021-09-09T13:18:23Z</time>
      </trkpt>
      <trkpt lat="44.10619" lon="6.00102">
        <ele>492.6</ele>
        <time>2021-09-09T13:18:25Z</time>
      </trkpt>
      <trkpt lat="44.10615" lon="6.00106">
        <ele>492.6</ele>
        <time>2021-09-09T13:18:26Z</time>
      </trkpt>
      <trkpt lat="44.10607" lon="6.00114">
        <ele>492.5</ele>
        <time>2021-09-09T13:18:28Z</time>
      </trkpt>
      <trkpt lat="44.10602" lon="6.00118">
        <ele>492.5</ele>
        <time>2021-09-09T13:18:29Z</time>
      </trkpt>
      <trkpt lat="44.10593" lon="6.00122">
        <ele>492.5</ele>
        <time>2021-09-09T13:18:31Z</time>
      </trkpt>
      <trkpt lat="44.10589" lon="6.00127">
        <ele>492.5</ele>
        <time>2021-09-09T13:18:32Z</time>
      </trkpt>
      <trkpt lat="44.1058" lon="6.00134">
        <ele>492.4</ele>
        <time>2021-09-09T13:18:34Z</time>
      </trkpt>
      <trkpt lat="44.10575" lon="6.00137">
        <ele>492.4</ele>
        <time>2021-09-09T13:18:35Z</time>
      </trkpt>
      <trkpt lat="44.10571" lon="6.0014">
        <ele>492.4</ele>
        <time>2021-09-09T13:18:36Z</time>
      </trkpt>
      <trkpt lat="44.10561" lon="6.00146">
        <ele>492.3</ele>
        <time>2021-09-09T13:18:38Z</time>
      </trkpt>
      <trkpt lat="44.10557" lon="6.0015">
        <ele>492.3</ele>
        <time>2021-09-09T13:18:39Z</time>
      </trkpt>
      <trkpt lat="44.10552" lon="6.00153">
        <ele>492.3</ele>
        <time>2021-09-09T13:18:40Z</time>
      </trkpt>
      <trkpt lat="44.10547" lon="6.00156">
        <ele>492.2</ele>
        <time>2021-09-09T13:18:41Z</time>
      </trkpt>
      <trkpt lat="44.10542" lon="6.00158">
        <ele>492.2</ele>
        <time>2021-09-09T13:18:42Z</time>
      </trkpt>
      <trkpt lat="44.10533" lon="6.00164">
        <ele>492.1</ele>
        <time>2021-09-09T13:18:44Z</time>
      </trkpt>
      <trkpt lat="44.10528" lon="6.00167">
        <ele>492.1</ele>
        <time>2021-09-09T13:18:45Z</time>
      </trkpt>
      <trkpt lat="44.10518" lon="6.00172">
        <ele>492</ele>
        <time>2021-09-09T13:18:47Z</time>
      </trkpt>
      <trkpt lat="44.10508" lon="6.00177">
        <ele>491.9</ele>
        <time>2021-09-09T13:18:49Z</time>
      </trkpt>
      <trkpt lat="44.10502" lon="6.00179">
        <ele>491.9</ele>
        <time>2021-09-09T13:18:50Z</time>
      </trkpt>
      <trkpt lat="44.10497" lon="6.0018">
        <ele>491.8</ele>
        <time>2021-09-09T13:18:51Z</time>
      </trkpt>
      <trkpt lat="44.10487" lon="6.00185">
        <ele>491.7</ele>
        <time>2021-09-09T13:18:53Z</time>
      </trkpt>
      <trkpt lat="44.10482" lon="6.00188">
        <ele>491.7</ele>
        <time>2021-09-09T13:18:54Z</time>
      </trkpt>
      <trkpt lat="44.10477" lon="6.0019">
        <ele>491.7</ele>
        <time>2021-09-09T13:18:55Z</time>
      </trkpt>
      <trkpt lat="44.10472" lon="6.00193">
        <ele>491.6</ele>
        <time>2021-09-09T13:18:56Z</time>
      </trkpt>
      <trkpt lat="44.10467" lon="6.00195">
        <ele>491.6</ele>
        <time>2021-09-09T13:18:57Z</time>
      </trkpt>
      <trkpt lat="44.10456" lon="6.00197">
        <ele>491.5</ele>
        <time>2021-09-09T13:18:59Z</time>
      </trkpt>
      <trkpt lat="44.10451" lon="6.00198">
        <ele>491.5</ele>
        <time>2021-09-09T13:19:00Z</time>
      </trkpt>
      <trkpt lat="44.10441" lon="6.00202">
        <ele>491.4</ele>
        <time>2021-09-09T13:19:02Z</time>
      </trkpt>
      <trkpt lat="44.10436" lon="6.00204">
        <ele>491.4</ele>
        <time>2021-09-09T13:19:03Z</time>
      </trkpt>
      <trkpt lat="44.10431" lon="6.00207">
        <ele>491.3</ele>
        <time>2021-09-09T13:19:04Z</time>
      </trkpt>
      <trkpt lat="44.1042" lon="6.00205">
        <ele>491.1</ele>
        <time>2021-09-09T13:19:06Z</time>
      </trkpt>
      <trkpt lat="44.10414" lon="6.00205">
        <ele>491</ele>
        <time>2021-09-09T13:19:07Z</time>
      </trkpt>
      <trkpt lat="44.10403" lon="6.00204">
        <ele>490.8</ele>
        <time>2021-09-09T13:19:09Z</time>
      </trkpt>
      <trkpt lat="44.10397" lon="6.00205">
        <ele>490.7</ele>
        <time>2021-09-09T13:19:10Z</time>
      </trkpt>
      <trkpt lat="44.10385" lon="6.00207">
        <ele>490.5</ele>
        <time>2021-09-09T13:19:12Z</time>
      </trkpt>
      <trkpt lat="44.10379" lon="6.00208">
        <ele>490.4</ele>
        <time>2021-09-09T13:19:13Z</time>
      </trkpt>
      <trkpt lat="44.10367" lon="6.00205">
        <ele>490.3</ele>
        <time>2021-09-09T13:19:15Z</time>
      </trkpt>
      <trkpt lat="44.10354" lon="6.00202">
        <ele>490.1</ele>
        <time>2021-09-09T13:19:17Z</time>
      </trkpt>
      <trkpt lat="44.10341" lon="6.002">
        <ele>490</ele>
        <time>2021-09-09T13:19:19Z</time>
      </trkpt>
      <trkpt lat="44.10328" lon="6.00201">
        <ele>489.8</ele>
        <time>2021-09-09T13:19:21Z</time>
      </trkpt>
      <trkpt lat="44.10316" lon="6.00202">
        <ele>489.7</ele>
        <time>2021-09-09T13:19:23Z</time>
      </trkpt>
      <trkpt lat="44.1031" lon="6.00202">
        <ele>489.6</ele>
        <time>2021-09-09T13:19:24Z</time>
      </trkpt>
      <trkpt lat="44.10304" lon="6.00202">
        <ele>489.6</ele>
        <time>2021-09-09T13:19:25Z</time>
      </trkpt>
      <trkpt lat="44.10294" lon="6.002">
        <ele>489.5</ele>
        <time>2021-09-09T13:19:27Z</time>
      </trkpt>
      <trkpt lat="44.10288" lon="6.002">
        <ele>489.5</ele>
        <time>2021-09-09T13:19:28Z</time>
      </trkpt>
      <trkpt lat="44.10282" lon="6.002">
        <ele>489.5</ele>
        <time>2021-09-09T13:19:29Z</time>
      </trkpt>
      <trkpt lat="44.10276" lon="6.00201">
        <ele>489.4</ele>
        <time>2021-09-09T13:19:30Z</time>
      </trkpt>
      <trkpt lat="44.1027" lon="6.00202">
        <ele>489.4</ele>
        <time>2021-09-09T13:19:31Z</time>
      </trkpt>
      <trkpt lat="44.10259" lon="6.00204">
        <ele>489.3</ele>
        <time>2021-09-09T13:19:33Z</time>
      </trkpt>
      <trkpt lat="44.10247" lon="6.00205">
        <ele>489.3</ele>
        <time>2021-09-09T13:19:35Z</time>
      </trkpt>
      <trkpt lat="44.10242" lon="6.00204">
        <ele>489.3</ele>
        <time>2021-09-09T13:19:36Z</time>
      </trkpt>
      <trkpt lat="44.1023" lon="6.00204">
        <ele>489.2</ele>
        <time>2021-09-09T13:19:38Z</time>
      </trkpt>
      <trkpt lat="44.10225" lon="6.00203">
        <ele>489.2</ele>
        <time>2021-09-09T13:19:39Z</time>
      </trkpt>
      <trkpt lat="44.10213" lon="6.00201">
        <ele>489.2</ele>
        <time>2021-09-09T13:19:41Z</time>
      </trkpt>
      <trkpt lat="44.10202" lon="6.00201">
        <ele>489.2</ele>
        <time>2021-09-09T13:19:43Z</time>
      </trkpt>
      <trkpt lat="44.10191" lon="6.00201">
        <ele>489.2</ele>
        <time>2021-09-09T13:19:45Z</time>
      </trkpt>
      <trkpt lat="44.10185" lon="6.00202">
        <ele>489.1</ele>
        <time>2021-09-09T13:19:46Z</time>
      </trkpt>
      <trkpt lat="44.1018" lon="6.00203">
        <ele>489.1</ele>
        <time>2021-09-09T13:19:47Z</time>
      </trkpt>
      <trkpt lat="44.10175" lon="6.00205">
        <ele>489.1</ele>
        <time>2021-09-09T13:19:48Z</time>
      </trkpt>
      <trkpt lat="44.10165" lon="6.00208">
        <ele>489.1</ele>
        <time>2021-09-09T13:19:50Z</time>
      </trkpt>
      <trkpt lat="44.1016" lon="6.00209">
        <ele>489</ele>
        <time>2021-09-09T13:19:51Z</time>
      </trkpt>
      <trkpt lat="44.10155" lon="6.0021">
        <ele>489</ele>
        <time>2021-09-09T13:19:52Z</time>
      </trkpt>
      <trkpt lat="44.1015" lon="6.00212">
        <ele>489</ele>
        <time>2021-09-09T13:19:53Z</time>
      </trkpt>
      <trkpt lat="44.10139" lon="6.00214">
        <ele>489</ele>
        <time>2021-09-09T13:19:55Z</time>
      </trkpt>
      <trkpt lat="44.10129" lon="6.00218">
        <ele>489</ele>
        <time>2021-09-09T13:19:57Z</time>
      </trkpt>
      <trkpt lat="44.10124" lon="6.00219">
        <ele>489</ele>
        <time>2021-09-09T13:19:58Z</time>
      </trkpt>
      <trkpt lat="44.10118" lon="6.00221">
        <ele>489</ele>
        <time>2021-09-09T13:19:59Z</time>
      </trkpt>
      <trkpt lat="44.10113" lon="6.00224">
        <ele>489</ele>
        <time>2021-09-09T13:20:00Z</time>
      </trkpt>
      <trkpt lat="44.10103" lon="6.00229">
        <ele>489</ele>
        <time>2021-09-09T13:20:02Z</time>
      </trkpt>
      <trkpt lat="44.10097" lon="6.00232">
        <ele>489</ele>
        <time>2021-09-09T13:20:03Z</time>
      </trkpt>
      <trkpt lat="44.10086" lon="6.00237">
        <ele>488.9</ele>
        <time>2021-09-09T13:20:05Z</time>
      </trkpt>
      <trkpt lat="44.10081" lon="6.0024">
        <ele>488.9</ele>
        <time>2021-09-09T13:20:06Z</time>
      </trkpt>
      <trkpt lat="44.10071" lon="6.00245">
        <ele>488.9</ele>
        <time>2021-09-09T13:20:08Z</time>
      </trkpt>
      <trkpt lat="44.10066" lon="6.00249">
        <ele>488.9</ele>
        <time>2021-09-09T13:20:09Z</time>
      </trkpt>
      <trkpt lat="44.10055" lon="6.00255">
        <ele>488.8</ele>
        <time>2021-09-09T13:20:11Z</time>
      </trkpt>
      <trkpt lat="44.1005" lon="6.00258">
        <ele>488.7</ele>
        <time>2021-09-09T13:20:12Z</time>
      </trkpt>
      <trkpt lat="44.1004" lon="6.00262">
        <ele>488.6</ele>
        <time>2021-09-09T13:20:14Z</time>
      </trkpt>
      <trkpt lat="44.10035" lon="6.00265">
        <ele>488.5</ele>
        <time>2021-09-09T13:20:15Z</time>
      </trkpt>
      <trkpt lat="44.10025" lon="6.00274">
        <ele>488.4</ele>
        <time>2021-09-09T13:20:17Z</time>
      </trkpt>
      <trkpt lat="44.10021" lon="6.00279">
        <ele>488.2</ele>
        <time>2021-09-09T13:20:18Z</time>
      </trkpt>
      <trkpt lat="44.10011" lon="6.00289">
        <ele>487.9</ele>
        <time>2021-09-09T13:20:20Z</time>
      </trkpt>
      <trkpt lat="44.10002" lon="6.003">
        <ele>487.7</ele>
        <time>2021-09-09T13:20:22Z</time>
      </trkpt>
      <trkpt lat="44.09992" lon="6.0031">
        <ele>487.4</ele>
        <time>2021-09-09T13:20:24Z</time>
      </trkpt>
      <trkpt lat="44.09987" lon="6.00315">
        <ele>487.2</ele>
        <time>2021-09-09T13:20:25Z</time>
      </trkpt>
      <trkpt lat="44.09982" lon="6.0032">
        <ele>487.1</ele>
        <time>2021-09-09T13:20:26Z</time>
      </trkpt>
      <trkpt lat="44.09971" lon="6.00327">
        <ele>486.8</ele>
        <time>2021-09-09T13:20:28Z</time>
      </trkpt>
      <trkpt lat="44.09965" lon="6.0033">
        <ele>486.7</ele>
        <time>2021-09-09T13:20:29Z</time>
      </trkpt>
      <trkpt lat="44.09955" lon="6.00336">
        <ele>486.5</ele>
        <time>2021-09-09T13:20:31Z</time>
      </trkpt>
      <trkpt lat="44.09949" lon="6.0034">
        <ele>486.4</ele>
        <time>2021-09-09T13:20:32Z</time>
      </trkpt>
      <trkpt lat="44.09938" lon="6.00346">
        <ele>486.2</ele>
        <time>2021-09-09T13:20:34Z</time>
      </trkpt>
      <trkpt lat="44.09925" lon="6.0035">
        <ele>485.9</ele>
        <time>2021-09-09T13:20:36Z</time>
      </trkpt>
      <trkpt lat="44.09913" lon="6.00355">
        <ele>485.7</ele>
        <time>2021-09-09T13:20:38Z</time>
      </trkpt>
      <trkpt lat="44.09901" lon="6.0036">
        <ele>485.4</ele>
        <time>2021-09-09T13:20:40Z</time>
      </trkpt>
      <trkpt lat="44.09895" lon="6.00364">
        <ele>485.3</ele>
        <time>2021-09-09T13:20:41Z</time>
      </trkpt>
      <trkpt lat="44.09889" lon="6.00367">
        <ele>485.2</ele>
        <time>2021-09-09T13:20:42Z</time>
      </trkpt>
      <trkpt lat="44.09883" lon="6.00371">
        <ele>485</ele>
        <time>2021-09-09T13:20:43Z</time>
      </trkpt>
      <trkpt lat="44.09871" lon="6.00376">
        <ele>484.8</ele>
        <time>2021-09-09T13:20:45Z</time>
      </trkpt>
      <trkpt lat="44.0986" lon="6.00381">
        <ele>484.6</ele>
        <time>2021-09-09T13:20:47Z</time>
      </trkpt>
      <trkpt lat="44.09855" lon="6.00384">
        <ele>484.5</ele>
        <time>2021-09-09T13:20:48Z</time>
      </trkpt>
      <trkpt lat="44.09844" lon="6.0039">
        <ele>484.3</ele>
        <time>2021-09-09T13:20:50Z</time>
      </trkpt>
      <trkpt lat="44.09838" lon="6.00391">
        <ele>484.2</ele>
        <time>2021-09-09T13:20:51Z</time>
      </trkpt>
      <trkpt lat="44.09827" lon="6.00394">
        <ele>484</ele>
        <time>2021-09-09T13:20:53Z</time>
      </trkpt>
      <trkpt lat="44.09815" lon="6.00398">
        <ele>483.8</ele>
        <time>2021-09-09T13:20:55Z</time>
      </trkpt>
      <trkpt lat="44.0981" lon="6.004">
        <ele>483.7</ele>
        <time>2021-09-09T13:20:56Z</time>
      </trkpt>
      <trkpt lat="44.09804" lon="6.00403">
        <ele>483.6</ele>
        <time>2021-09-09T13:20:57Z</time>
      </trkpt>
      <trkpt lat="44.09793" lon="6.00408">
        <ele>483.4</ele>
        <time>2021-09-09T13:20:59Z</time>
      </trkpt>
      <trkpt lat="44.09781" lon="6.00413">
        <ele>483.3</ele>
        <time>2021-09-09T13:21:01Z</time>
      </trkpt>
      <trkpt lat="44.09775" lon="6.00416">
        <ele>483.3</ele>
        <time>2021-09-09T13:21:02Z</time>
      </trkpt>
      <trkpt lat="44.09764" lon="6.00423">
        <ele>483.2</ele>
        <time>2021-09-09T13:21:04Z</time>
      </trkpt>
      <trkpt lat="44.09759" lon="6.00427">
        <ele>483.2</ele>
        <time>2021-09-09T13:21:05Z</time>
      </trkpt>
      <trkpt lat="44.09748" lon="6.00435">
        <ele>483.1</ele>
        <time>2021-09-09T13:21:07Z</time>
      </trkpt>
      <trkpt lat="44.09738" lon="6.00445">
        <ele>482.9</ele>
        <time>2021-09-09T13:21:09Z</time>
      </trkpt>
      <trkpt lat="44.0973" lon="6.00454">
        <ele>482.8</ele>
        <time>2021-09-09T13:21:11Z</time>
      </trkpt>
      <trkpt lat="44.09723" lon="6.00461">
        <ele>482.6</ele>
        <time>2021-09-09T13:21:13Z</time>
      </trkpt>
      <trkpt lat="44.0972" lon="6.00465">
        <ele>482.6</ele>
        <time>2021-09-09T13:21:14Z</time>
      </trkpt>
      <trkpt lat="44.09713" lon="6.00471">
        <ele>482.5</ele>
        <time>2021-09-09T13:21:16Z</time>
      </trkpt>
      <trkpt lat="44.09709" lon="6.00475">
        <ele>482.4</ele>
        <time>2021-09-09T13:21:17Z</time>
      </trkpt>
      <trkpt lat="44.09702" lon="6.00484">
        <ele>482.3</ele>
        <time>2021-09-09T13:21:19Z</time>
      </trkpt>
      <trkpt lat="44.09698" lon="6.00488">
        <ele>482.3</ele>
        <time>2021-09-09T13:21:20Z</time>
      </trkpt>
      <trkpt lat="44.09693" lon="6.00492">
        <ele>482.3</ele>
        <time>2021-09-09T13:21:21Z</time>
      </trkpt>
      <trkpt lat="44.09686" lon="6.00497">
        <ele>482.2</ele>
        <time>2021-09-09T13:21:23Z</time>
      </trkpt>
      <trkpt lat="44.09683" lon="6.00499">
        <ele>482.2</ele>
        <time>2021-09-09T13:21:24Z</time>
      </trkpt>
      <trkpt lat="44.09672" lon="6.00503">
        <ele>482.1</ele>
        <time>2021-09-09T13:21:26Z</time>
      </trkpt>
      <trkpt lat="44.09667" lon="6.00505">
        <ele>482.1</ele>
        <time>2021-09-09T13:21:27Z</time>
      </trkpt>
      <trkpt lat="44.09657" lon="6.00509">
        <ele>482</ele>
        <time>2021-09-09T13:21:29Z</time>
      </trkpt>
      <trkpt lat="44.09652" lon="6.0051">
        <ele>481.8</ele>
        <time>2021-09-09T13:21:30Z</time>
      </trkpt>
      <trkpt lat="44.09641" lon="6.00514">
        <ele>481.6</ele>
        <time>2021-09-09T13:21:32Z</time>
      </trkpt>
      <trkpt lat="44.09632" lon="6.00519">
        <ele>481.3</ele>
        <time>2021-09-09T13:21:34Z</time>
      </trkpt>
      <trkpt lat="44.09628" lon="6.00522">
        <ele>481.2</ele>
        <time>2021-09-09T13:21:35Z</time>
      </trkpt>
      <trkpt lat="44.0962" lon="6.00525">
        <ele>481</ele>
        <time>2021-09-09T13:21:37Z</time>
      </trkpt>
      <trkpt lat="44.09617" lon="6.00525">
        <ele>480.9</ele>
        <time>2021-09-09T13:21:38Z</time>
      </trkpt>
      <trkpt lat="44.09611" lon="6.00525">
        <ele>480.8</ele>
        <time>2021-09-09T13:21:39Z</time>
      </trkpt>
      <trkpt lat="44.09597" lon="6.00525">
        <ele>480.5</ele>
        <time>2021-09-09T13:21:41Z</time>
      </trkpt>
      <trkpt lat="44.09591" lon="6.00527">
        <ele>480.4</ele>
        <time>2021-09-09T13:21:42Z</time>
      </trkpt>
      <trkpt lat="44.0958" lon="6.00534">
        <ele>480.2</ele>
        <time>2021-09-09T13:21:44Z</time>
      </trkpt>
      <trkpt lat="44.09569" lon="6.00541">
        <ele>480</ele>
        <time>2021-09-09T13:21:46Z</time>
      </trkpt>
      <trkpt lat="44.09564" lon="6.00544">
        <ele>479.9</ele>
        <time>2021-09-09T13:21:47Z</time>
      </trkpt>
      <trkpt lat="44.09556" lon="6.00549">
        <ele>479.7</ele>
        <time>2021-09-09T13:21:49Z</time>
      </trkpt>
      <trkpt lat="44.09551" lon="6.00551">
        <ele>479.6</ele>
        <time>2021-09-09T13:21:50Z</time>
      </trkpt>
      <trkpt lat="44.0955" lon="6.00552">
        <ele>479.5</ele>
        <time>2021-09-09T13:21:51Z</time>
      </trkpt>
      <trkpt lat="44.09546" lon="6.00554">
        <ele>479.5</ele>
        <time>2021-09-09T13:21:52Z</time>
      </trkpt>
      <trkpt lat="44.09544" lon="6.00557">
        <ele>479.4</ele>
        <time>2021-09-09T13:21:54Z</time>
      </trkpt>
      <trkpt lat="44.09544" lon="6.0056">
        <ele>479.3</ele>
        <time>2021-09-09T13:21:56Z</time>
      </trkpt>
      <trkpt lat="44.09545" lon="6.00562">
        <ele>479.3</ele>
        <time>2021-09-09T13:21:58Z</time>
      </trkpt>
      <trkpt lat="44.09546" lon="6.00562">
        <ele>479.2</ele>
        <time>2021-09-09T13:22:00Z</time>
      </trkpt>
      <trkpt lat="44.09546" lon="6.00562">
        <ele>479.2</ele>
        <time>2021-09-09T13:22:02Z</time>
      </trkpt>
      <trkpt lat="44.09546" lon="6.00564">
        <ele>479.2</ele>
        <time>2021-09-09T13:22:03Z</time>
      </trkpt>
      <trkpt lat="44.09546" lon="6.00565">
        <ele>479.2</ele>
        <time>2021-09-09T13:22:04Z</time>
      </trkpt>
      <trkpt lat="44.09545" lon="6.00567">
        <ele>479.1</ele>
        <time>2021-09-09T13:22:06Z</time>
      </trkpt>
      <trkpt lat="44.09542" lon="6.0057">
        <ele>479</ele>
        <time>2021-09-09T13:22:07Z</time>
      </trkpt>
      <trkpt lat="44.09533" lon="6.00575">
        <ele>478.6</ele>
        <time>2021-09-09T13:22:08Z</time>
      </trkpt>
      <trkpt lat="44.09528" lon="6.00579">
        <ele>478.4</ele>
        <time>2021-09-09T13:22:10Z</time>
      </trkpt>
      <trkpt lat="44.09523" lon="6.00581">
        <ele>478.1</ele>
        <time>2021-09-09T13:22:11Z</time>
      </trkpt>
      <trkpt lat="44.09514" lon="6.00585">
        <ele>477.7</ele>
        <time>2021-09-09T13:22:12Z</time>
      </trkpt>
      <trkpt lat="44.09509" lon="6.00591">
        <ele>477.8</ele>
        <time>2021-09-09T13:22:14Z</time>
      </trkpt>
      <trkpt lat="44.09502" lon="6.00599">
        <ele>477.4</ele>
        <time>2021-09-09T13:22:16Z</time>
      </trkpt>
      <trkpt lat="44.09499" lon="6.00603">
        <ele>477.2</ele>
        <time>2021-09-09T13:22:17Z</time>
      </trkpt>
      <trkpt lat="44.09494" lon="6.00607">
        <ele>476.9</ele>
        <time>2021-09-09T13:22:18Z</time>
      </trkpt>
      <trkpt lat="44.0949" lon="6.00612">
        <ele>476.6</ele>
        <time>2021-09-09T13:22:19Z</time>
      </trkpt>
      <trkpt lat="44.09486" lon="6.00617">
        <ele>476.3</ele>
        <time>2021-09-09T13:22:21Z</time>
      </trkpt>
      <trkpt lat="44.09484" lon="6.00621">
        <ele>476.1</ele>
        <time>2021-09-09T13:22:22Z</time>
      </trkpt>
      <trkpt lat="44.09483" lon="6.00623">
        <ele>476</ele>
        <time>2021-09-09T13:22:23Z</time>
      </trkpt>
      <trkpt lat="44.09479" lon="6.00628">
        <ele>475.8</ele>
        <time>2021-09-09T13:22:25Z</time>
      </trkpt>
      <trkpt lat="44.09471" lon="6.00635">
        <ele>475.4</ele>
        <time>2021-09-09T13:22:26Z</time>
      </trkpt>
      <trkpt lat="44.09464" lon="6.00642">
        <ele>475</ele>
        <time>2021-09-09T13:22:28Z</time>
      </trkpt>
      <trkpt lat="44.09463" lon="6.00641">
        <ele>474.9</ele>
        <time>2021-09-09T13:22:29Z</time>
      </trkpt>
      <trkpt lat="44.09461" lon="6.00642">
        <ele>474.8</ele>
        <time>2021-09-09T13:22:30Z</time>
      </trkpt>
      <trkpt lat="44.0946" lon="6.00644">
        <ele>474.6</ele>
        <time>2021-09-09T13:22:31Z</time>
      </trkpt>
      <trkpt lat="44.09459" lon="6.00645">
        <ele>474.6</ele>
        <time>2021-09-09T13:22:33Z</time>
      </trkpt>
      <trkpt lat="44.09459" lon="6.00647">
        <ele>474.6</ele>
        <time>2021-09-09T13:22:34Z</time>
      </trkpt>
      <trkpt lat="44.09458" lon="6.00648">
        <ele>474.6</ele>
        <time>2021-09-09T13:22:36Z</time>
      </trkpt>
      <trkpt lat="44.09444" lon="6.00682">
        <ele>474.3</ele>
        <time>2021-09-09T13:22:46Z</time>
      </trkpt>
      <trkpt lat="44.09442" lon="6.00695">
        <ele>474.1</ele>
        <time>2021-09-09T13:22:47Z</time>
      </trkpt>
      <trkpt lat="44.09441" lon="6.00716">
        <ele>474</ele>
        <time>2021-09-09T13:22:49Z</time>
      </trkpt>
      <trkpt lat="44.0944" lon="6.00723">
        <ele>474</ele>
        <time>2021-09-09T13:22:50Z</time>
      </trkpt>
      <trkpt lat="44.0944" lon="6.0073">
        <ele>474</ele>
        <time>2021-09-09T13:22:51Z</time>
      </trkpt>
      <trkpt lat="44.09439" lon="6.00744">
        <ele>474.1</ele>
        <time>2021-09-09T13:22:52Z</time>
      </trkpt>
      <trkpt lat="44.09437" lon="6.00749">
        <ele>474.1</ele>
        <time>2021-09-09T13:22:53Z</time>
      </trkpt>
      <trkpt lat="44.09434" lon="6.00754">
        <ele>474.2</ele>
        <time>2021-09-09T13:22:55Z</time>
      </trkpt>
      <trkpt lat="44.09432" lon="6.00758">
        <ele>474.1</ele>
        <time>2021-09-09T13:22:56Z</time>
      </trkpt>
      <trkpt lat="44.0943" lon="6.00762">
        <ele>474.1</ele>
        <time>2021-09-09T13:22:57Z</time>
      </trkpt>
      <trkpt lat="44.09428" lon="6.00765">
        <ele>474</ele>
        <time>2021-09-09T13:22:59Z</time>
      </trkpt>
      <trkpt lat="44.09427" lon="6.00768">
        <ele>474</ele>
        <time>2021-09-09T13:23:00Z</time>
      </trkpt>
      <trkpt lat="44.09425" lon="6.00771">
        <ele>473.9</ele>
        <time>2021-09-09T13:23:01Z</time>
      </trkpt>
      <trkpt lat="44.09424" lon="6.00774">
        <ele>473.9</ele>
        <time>2021-09-09T13:23:03Z</time>
      </trkpt>
      <trkpt lat="44.09422" lon="6.00778">
        <ele>473.8</ele>
        <time>2021-09-09T13:23:48Z</time>
      </trkpt>
      <trkpt lat="44.09421" lon="6.00781">
        <ele>473.8</ele>
        <time>2021-09-09T13:23:49Z</time>
      </trkpt>
      <trkpt lat="44.09413" lon="6.00789">
        <ele>473.6</ele>
        <time>2021-09-09T13:23:51Z</time>
      </trkpt>
      <trkpt lat="44.09406" lon="6.00796">
        <ele>473.4</ele>
        <time>2021-09-09T13:23:52Z</time>
      </trkpt>
      <trkpt lat="44.09404" lon="6.00798">
        <ele>473.4</ele>
        <time>2021-09-09T13:23:53Z</time>
      </trkpt>
      <trkpt lat="44.09401" lon="6.00801">
        <ele>473.3</ele>
        <time>2021-09-09T13:23:55Z</time>
      </trkpt>
      <trkpt lat="44.09399" lon="6.00802">
        <ele>473.3</ele>
        <time>2021-09-09T13:23:56Z</time>
      </trkpt>
      <trkpt lat="44.09394" lon="6.00807">
        <ele>473.2</ele>
        <time>2021-09-09T13:23:58Z</time>
      </trkpt>
      <trkpt lat="44.09388" lon="6.0082">
        <ele>473</ele>
        <time>2021-09-09T13:23:59Z</time>
      </trkpt>
      <trkpt lat="44.09383" lon="6.00829">
        <ele>472.7</ele>
        <time>2021-09-09T13:24:00Z</time>
      </trkpt>
      <trkpt lat="44.09376" lon="6.00846">
        <ele>472.1</ele>
        <time>2021-09-09T13:24:02Z</time>
      </trkpt>
      <trkpt lat="44.09373" lon="6.00854">
        <ele>471.8</ele>
        <time>2021-09-09T13:24:04Z</time>
      </trkpt>
      <trkpt lat="44.09373" lon="6.00862">
        <ele>471.5</ele>
        <time>2021-09-09T13:24:05Z</time>
      </trkpt>
      <trkpt lat="44.09373" lon="6.00866">
        <ele>471.3</ele>
        <time>2021-09-09T13:24:07Z</time>
      </trkpt>
      <trkpt lat="44.09319" lon="6.0091">
        <ele>454.5</ele>
        <time>2021-09-09T13:26:53Z</time>
      </trkpt>
      <trkpt lat="44.09319" lon="6.00911">
        <ele>454.3</ele>
        <time>2021-09-09T13:26:54Z</time>
      </trkpt>
      <trkpt lat="44.09319" lon="6.00914">
        <ele>454.1</ele>
        <time>2021-09-09T13:26:56Z</time>
      </trkpt>
      <trkpt lat="44.09319" lon="6.00914">
        <ele>453.8</ele>
        <time>2021-09-09T13:26:57Z</time>
      </trkpt>
      <trkpt lat="44.09319" lon="6.00915">
        <ele>453.8</ele>
        <time>2021-09-09T13:26:58Z</time>
      </trkpt>
      <trkpt lat="44.09318" lon="6.00915">
        <ele>453.8</ele>
        <time>2021-09-09T13:27:00Z</time>
      </trkpt>
      <trkpt lat="44.09318" lon="6.00915">
        <ele>453.7</ele>
        <time>2021-09-09T13:27:01Z</time>
      </trkpt>
      <trkpt lat="44.09319" lon="6.00918">
        <ele>453.6</ele>
        <time>2021-09-09T13:27:03Z</time>
      </trkpt>
      <trkpt lat="44.09319" lon="6.00919">
        <ele>453.5</ele>
        <time>2021-09-09T13:27:04Z</time>
      </trkpt>
      <trkpt lat="44.0932" lon="6.0092">
        <ele>453.5</ele>
        <time>2021-09-09T13:27:06Z</time>
      </trkpt>
      <trkpt lat="44.0932" lon="6.0092">
        <ele>453.5</ele>
        <time>2021-09-09T13:27:08Z</time>
      </trkpt>
      <trkpt lat="44.0932" lon="6.0092">
        <ele>453.5</ele>
        <time>2021-09-09T13:27:10Z</time>
      </trkpt>
      <trkpt lat="44.0932" lon="6.0092">
        <ele>453.5</ele>
        <time>2021-09-09T13:27:11Z</time>
      </trkpt>
      <trkpt lat="44.0932" lon="6.0092">
        <ele>453.5</ele>
        <time>2021-09-09T13:27:12Z</time>
      </trkpt>
      <trkpt lat="44.0932" lon="6.0092">
        <ele>453.5</ele>
        <time>2021-09-09T13:27:14Z</time>
      </trkpt>
      <trkpt lat="44.0932" lon="6.0092">
        <ele>453.5</ele>
        <time>2021-09-09T13:27:15Z</time>
      </trkpt>
      <trkpt lat="44.0932" lon="6.0092">
        <ele>453.5</ele>
        <time>2021-09-09T13:27:16Z</time>
      </trkpt>
      <trkpt lat="44.0932" lon="6.0092">
        <ele>453.5</ele>
        <time>2021-09-09T13:27:17Z</time>
      </trkpt>
      <trkpt lat="44.09321" lon="6.0092">
        <ele>453.4</ele>
        <time>2021-09-09T13:27:18Z</time>
      </trkpt>
      <trkpt lat="44.09319" lon="6.00919">
        <ele>453.3</ele>
        <time>2021-09-09T13:27:20Z</time>
      </trkpt>
      <trkpt lat="44.09316" lon="6.00919">
        <ele>452.8</ele>
        <time>2021-09-09T13:27:21Z</time>
      </trkpt>
      <trkpt lat="44.09316" lon="6.00917">
        <ele>452.8</ele>
        <time>2021-09-09T13:27:22Z</time>
      </trkpt>
      <trkpt lat="44.09315" lon="6.00915">
        <ele>452.8</ele>
        <time>2021-09-09T13:27:24Z</time>
      </trkpt>
      <trkpt lat="44.09314" lon="6.00914">
        <ele>452.7</ele>
        <time>2021-09-09T13:27:25Z</time>
      </trkpt>
      <trkpt lat="44.09309" lon="6.00912">
        <ele>452.6</ele>
        <time>2021-09-09T13:27:26Z</time>
      </trkpt>
      <trkpt lat="44.09298" lon="6.00911">
        <ele>450.5</ele>
        <time>2021-09-09T13:27:27Z</time>
      </trkpt>
      <trkpt lat="44.09291" lon="6.00913">
        <ele>451</ele>
        <time>2021-09-09T13:27:29Z</time>
      </trkpt>
      <trkpt lat="44.09284" lon="6.00916">
        <ele>451</ele>
        <time>2021-09-09T13:27:31Z</time>
      </trkpt>
      <trkpt lat="44.09282" lon="6.00918">
        <ele>451</ele>
        <time>2021-09-09T13:27:32Z</time>
      </trkpt>
      <trkpt lat="44.09279" lon="6.00922">
        <ele>451</ele>
        <time>2021-09-09T13:27:34Z</time>
      </trkpt>
      <trkpt lat="44.0928" lon="6.00925">
        <ele>451</ele>
        <time>2021-09-09T13:27:36Z</time>
      </trkpt>
      <trkpt lat="44.09285" lon="6.00927">
        <ele>450.9</ele>
        <time>2021-09-09T13:27:37Z</time>
      </trkpt>
      <trkpt lat="44.09293" lon="6.00933">
        <ele>450.9</ele>
        <time>2021-09-09T13:27:39Z</time>
      </trkpt>
      <trkpt lat="44.09301" lon="6.00936">
        <ele>450.9</ele>
        <time>2021-09-09T13:27:41Z</time>
      </trkpt>
      <trkpt lat="44.09306" lon="6.00937">
        <ele>450.8</ele>
        <time>2021-09-09T13:27:42Z</time>
      </trkpt>
      <trkpt lat="44.09309" lon="6.00936">
        <ele>450.8</ele>
        <time>2021-09-09T13:27:44Z</time>
      </trkpt>
      <trkpt lat="44.09309" lon="6.00935">
        <ele>450.8</ele>
        <time>2021-09-09T13:27:45Z</time>
      </trkpt>
      <trkpt lat="44.09311" lon="6.00935">
        <ele>450.8</ele>
        <time>2021-09-09T13:27:46Z</time>
      </trkpt>
      <trkpt lat="44.09311" lon="6.00935">
        <ele>450.8</ele>
        <time>2021-09-09T13:27:48Z</time>
      </trkpt>
      <trkpt lat="44.09311" lon="6.00935">
        <ele>450.8</ele>
        <time>2021-09-09T13:27:49Z</time>
      </trkpt>
      <trkpt lat="44.09311" lon="6.00935">
        <ele>450.8</ele>
        <time>2021-09-09T13:27:51Z</time>
      </trkpt>
      <trkpt lat="44.09311" lon="6.00935">
        <ele>450.8</ele>
        <time>2021-09-09T13:27:52Z</time>
      </trkpt>
      <trkpt lat="44.09311" lon="6.00935">
        <ele>450.8</ele>
        <time>2021-09-09T13:27:54Z</time>
      </trkpt>
      <trkpt lat="44.09311" lon="6.00935">
        <ele>450.8</ele>
        <time>2021-09-09T13:27:56Z</time>
      </trkpt>
      <trkpt lat="44.0931" lon="6.0093">
        <ele>450.8</ele>
        <time>2021-09-09T13:28:14Z</time>
      </trkpt>
      <trkpt lat="44.09308" lon="6.00926">
        <ele>450.8</ele>
        <time>2021-09-09T13:28:16Z</time>
      </trkpt>
      <trkpt lat="44.09305" lon="6.00921">
        <ele>450.8</ele>
        <time>2021-09-09T13:28:17Z</time>
      </trkpt>
      <trkpt lat="44.09302" lon="6.00917">
        <ele>450.7</ele>
        <time>2021-09-09T13:28:18Z</time>
      </trkpt>
      <trkpt lat="44.09297" lon="6.00912">
        <ele>451</ele>
        <time>2021-09-09T13:28:19Z</time>
      </trkpt>
      <trkpt lat="44.09293" lon="6.00908">
        <ele>451.3</ele>
        <time>2021-09-09T13:28:20Z</time>
      </trkpt>
      <trkpt lat="44.0929" lon="6.00905">
        <ele>451.5</ele>
        <time>2021-09-09T13:28:22Z</time>
      </trkpt>
      <trkpt lat="44.09287" lon="6.00903">
        <ele>451.7</ele>
        <time>2021-09-09T13:28:23Z</time>
      </trkpt>
      <trkpt lat="44.09284" lon="6.00901">
        <ele>451.9</ele>
        <time>2021-09-09T13:28:24Z</time>
      </trkpt>
      <trkpt lat="44.09279" lon="6.00899">
        <ele>452</ele>
        <time>2021-09-09T13:28:26Z</time>
      </trkpt>
      <trkpt lat="44.09276" lon="6.00898">
        <ele>452.1</ele>
        <time>2021-09-09T13:28:27Z</time>
      </trkpt>
      <trkpt lat="44.09273" lon="6.00898">
        <ele>452.2</ele>
        <time>2021-09-09T13:28:28Z</time>
      </trkpt>
      <trkpt lat="44.0927" lon="6.00897">
        <ele>452.2</ele>
        <time>2021-09-09T13:28:29Z</time>
      </trkpt>
      <trkpt lat="44.09268" lon="6.00896">
        <ele>452.3</ele>
        <time>2021-09-09T13:28:30Z</time>
      </trkpt>
      <trkpt lat="44.09266" lon="6.00894">
        <ele>453.2</ele>
        <time>2021-09-09T13:28:32Z</time>
      </trkpt>
      <trkpt lat="44.09266" lon="6.00892">
        <ele>453.4</ele>
        <time>2021-09-09T13:28:33Z</time>
      </trkpt>
      <trkpt lat="44.09264" lon="6.0089">
        <ele>453.7</ele>
        <time>2021-09-09T13:28:34Z</time>
      </trkpt>
      <trkpt lat="44.09261" lon="6.0089">
        <ele>454.1</ele>
        <time>2021-09-09T13:28:36Z</time>
      </trkpt>
      <trkpt lat="44.09258" lon="6.00891">
        <ele>454.4</ele>
        <time>2021-09-09T13:28:37Z</time>
      </trkpt>
      <trkpt lat="44.09253" lon="6.00892">
        <ele>455.2</ele>
        <time>2021-09-09T13:28:38Z</time>
      </trkpt>
      <trkpt lat="44.0925" lon="6.00892">
        <ele>455.4</ele>
        <time>2021-09-09T13:28:40Z</time>
      </trkpt>
      <trkpt lat="44.09249" lon="6.00892">
        <ele>455.4</ele>
        <time>2021-09-09T13:28:41Z</time>
      </trkpt>
      <trkpt lat="44.09247" lon="6.00892">
        <ele>455.5</ele>
        <time>2021-09-09T13:28:42Z</time>
      </trkpt>
      <trkpt lat="44.09246" lon="6.0089">
        <ele>455.6</ele>
        <time>2021-09-09T13:28:44Z</time>
      </trkpt>
      <trkpt lat="44.09245" lon="6.00889">
        <ele>455.7</ele>
        <time>2021-09-09T13:28:45Z</time>
      </trkpt>
      <trkpt lat="44.09244" lon="6.00889">
        <ele>455.7</ele>
        <time>2021-09-09T13:28:46Z</time>
      </trkpt>
      <trkpt lat="44.09242" lon="6.0089">
        <ele>455.8</ele>
        <time>2021-09-09T13:28:47Z</time>
      </trkpt>
      <trkpt lat="44.09239" lon="6.0089">
        <ele>456</ele>
        <time>2021-09-09T13:28:49Z</time>
      </trkpt>
      <trkpt lat="44.09238" lon="6.00891">
        <ele>456</ele>
        <time>2021-09-09T13:28:50Z</time>
      </trkpt>
      <trkpt lat="44.09237" lon="6.00892">
        <ele>456.1</ele>
        <time>2021-09-09T13:28:51Z</time>
      </trkpt>
      <trkpt lat="44.09234" lon="6.00893">
        <ele>456.3</ele>
        <time>2021-09-09T13:28:53Z</time>
      </trkpt>
      <trkpt lat="44.09232" lon="6.00893">
        <ele>456.4</ele>
        <time>2021-09-09T13:28:54Z</time>
      </trkpt>
      <trkpt lat="44.0923" lon="6.00892">
        <ele>456.5</ele>
        <time>2021-09-09T13:28:56Z</time>
      </trkpt>
      <trkpt lat="44.09231" lon="6.00891">
        <ele>456.5</ele>
        <time>2021-09-09T13:28:57Z</time>
      </trkpt>
      <trkpt lat="44.09231" lon="6.00891">
        <ele>456.5</ele>
        <time>2021-09-09T13:28:59Z</time>
      </trkpt>
      <trkpt lat="44.09231" lon="6.0089">
        <ele>456.6</ele>
        <time>2021-09-09T13:29:01Z</time>
      </trkpt>
      <trkpt lat="44.0923" lon="6.0089">
        <ele>456.6</ele>
        <time>2021-09-09T13:29:02Z</time>
      </trkpt>
      <trkpt lat="44.0923" lon="6.00888">
        <ele>456.7</ele>
        <time>2021-09-09T13:29:04Z</time>
      </trkpt>
      <trkpt lat="44.0923" lon="6.00878">
        <ele>457</ele>
        <time>2021-09-09T13:29:06Z</time>
      </trkpt>
      <trkpt lat="44.09232" lon="6.00869">
        <ele>457.4</ele>
        <time>2021-09-09T13:29:08Z</time>
      </trkpt>
      <trkpt lat="44.09236" lon="6.00859">
        <ele>457.8</ele>
        <time>2021-09-09T13:29:09Z</time>
      </trkpt>
      <trkpt lat="44.09237" lon="6.00853">
        <ele>458</ele>
        <time>2021-09-09T13:29:10Z</time>
      </trkpt>
      <trkpt lat="44.09235" lon="6.00852">
        <ele>458.1</ele>
        <time>2021-09-09T13:29:12Z</time>
      </trkpt>
      <trkpt lat="44.09234" lon="6.00852">
        <ele>458.2</ele>
        <time>2021-09-09T13:29:13Z</time>
      </trkpt>
      <trkpt lat="44.09232" lon="6.00853">
        <ele>458.2</ele>
        <time>2021-09-09T13:29:14Z</time>
      </trkpt>
      <trkpt lat="44.09227" lon="6.00856">
        <ele>458.5</ele>
        <time>2021-09-09T13:29:16Z</time>
      </trkpt>
      <trkpt lat="44.09222" lon="6.00859">
        <ele>458.7</ele>
        <time>2021-09-09T13:29:17Z</time>
      </trkpt>
      <trkpt lat="44.0922" lon="6.0086">
        <ele>458.9</ele>
        <time>2021-09-09T13:29:18Z</time>
      </trkpt>
      <trkpt lat="44.09217" lon="6.00862">
        <ele>459</ele>
        <time>2021-09-09T13:29:19Z</time>
      </trkpt>
      <trkpt lat="44.09211" lon="6.00866">
        <ele>459.3</ele>
        <time>2021-09-09T13:29:21Z</time>
      </trkpt>
      <trkpt lat="44.09207" lon="6.00869">
        <ele>459.8</ele>
        <time>2021-09-09T13:29:22Z</time>
      </trkpt>
      <trkpt lat="44.092" lon="6.00874">
        <ele>460.6</ele>
        <time>2021-09-09T13:29:23Z</time>
      </trkpt>
      <trkpt lat="44.09195" lon="6.00877">
        <ele>461.2</ele>
        <time>2021-09-09T13:29:25Z</time>
      </trkpt>
      <trkpt lat="44.09192" lon="6.00879">
        <ele>461.6</ele>
        <time>2021-09-09T13:29:26Z</time>
      </trkpt>
      <trkpt lat="44.09189" lon="6.00879">
        <ele>462</ele>
        <time>2021-09-09T13:29:27Z</time>
      </trkpt>
      <trkpt lat="44.09188" lon="6.00878">
        <ele>462.2</ele>
        <time>2021-09-09T13:29:28Z</time>
      </trkpt>
      <trkpt lat="44.09186" lon="6.00877">
        <ele>462.4</ele>
        <time>2021-09-09T13:29:30Z</time>
      </trkpt>
      <trkpt lat="44.09185" lon="6.00876">
        <ele>462.5</ele>
        <time>2021-09-09T13:29:31Z</time>
      </trkpt>
      <trkpt lat="44.09183" lon="6.00875">
        <ele>462.8</ele>
        <time>2021-09-09T13:29:32Z</time>
      </trkpt>
      <trkpt lat="44.09182" lon="6.00874">
        <ele>462.9</ele>
        <time>2021-09-09T13:29:34Z</time>
      </trkpt>
      <trkpt lat="44.09158" lon="6.0086">
        <ele>465.7</ele>
        <time>2021-09-09T13:29:57Z</time>
      </trkpt>
      <trkpt lat="44.09154" lon="6.0086">
        <ele>466</ele>
        <time>2021-09-09T13:29:58Z</time>
      </trkpt>
      <trkpt lat="44.09149" lon="6.00861">
        <ele>466.4</ele>
        <time>2021-09-09T13:29:59Z</time>
      </trkpt>
      <trkpt lat="44.09147" lon="6.00861">
        <ele>466.5</ele>
        <time>2021-09-09T13:30:00Z</time>
      </trkpt>
      <trkpt lat="44.09143" lon="6.00861">
        <ele>466.9</ele>
        <time>2021-09-09T13:30:02Z</time>
      </trkpt>
      <trkpt lat="44.09141" lon="6.00861">
        <ele>467</ele>
        <time>2021-09-09T13:30:03Z</time>
      </trkpt>
      <trkpt lat="44.09138" lon="6.00861">
        <ele>467.3</ele>
        <time>2021-09-09T13:30:05Z</time>
      </trkpt>
      <trkpt lat="44.09135" lon="6.0086">
        <ele>467.5</ele>
        <time>2021-09-09T13:30:06Z</time>
      </trkpt>
      <trkpt lat="44.09132" lon="6.0086">
        <ele>467.8</ele>
        <time>2021-09-09T13:30:08Z</time>
      </trkpt>
      <trkpt lat="44.0913" lon="6.0086">
        <ele>468</ele>
        <time>2021-09-09T13:30:10Z</time>
      </trkpt>
      <trkpt lat="44.0913" lon="6.0086">
        <ele>468</ele>
        <time>2021-09-09T13:30:11Z</time>
      </trkpt>
      <trkpt lat="44.09129" lon="6.00861">
        <ele>468.1</ele>
        <time>2021-09-09T13:30:12Z</time>
      </trkpt>
      <trkpt lat="44.09128" lon="6.00861">
        <ele>468.2</ele>
        <time>2021-09-09T13:30:13Z</time>
      </trkpt>
      <trkpt lat="44.09127" lon="6.00862">
        <ele>468.3</ele>
        <time>2021-09-09T13:30:15Z</time>
      </trkpt>
      <trkpt lat="44.09126" lon="6.00862">
        <ele>468.4</ele>
        <time>2021-09-09T13:30:16Z</time>
      </trkpt>
      <trkpt lat="44.09124" lon="6.00863">
        <ele>468.6</ele>
        <time>2021-09-09T13:30:17Z</time>
      </trkpt>
      <trkpt lat="44.09122" lon="6.00864">
        <ele>468.7</ele>
        <time>2021-09-09T13:30:19Z</time>
      </trkpt>
      <trkpt lat="44.09122" lon="6.00864">
        <ele>468.7</ele>
        <time>2021-09-09T13:30:20Z</time>
      </trkpt>
      <trkpt lat="44.09121" lon="6.00865">
        <ele>468.8</ele>
        <time>2021-09-09T13:30:22Z</time>
      </trkpt>
      <trkpt lat="44.0912" lon="6.00866">
        <ele>468.9</ele>
        <time>2021-09-09T13:30:23Z</time>
      </trkpt>
      <trkpt lat="44.09119" lon="6.00866">
        <ele>469</ele>
        <time>2021-09-09T13:30:25Z</time>
      </trkpt>
      <trkpt lat="44.09119" lon="6.00867">
        <ele>469.1</ele>
        <time>2021-09-09T13:30:26Z</time>
      </trkpt>
      <trkpt lat="44.09118" lon="6.00868">
        <ele>469.1</ele>
        <time>2021-09-09T13:30:27Z</time>
      </trkpt>
      <trkpt lat="44.09103" lon="6.00867">
        <ele>470.4</ele>
        <time>2021-09-09T13:30:37Z</time>
      </trkpt>
      <trkpt lat="44.09098" lon="6.00866">
        <ele>470.8</ele>
        <time>2021-09-09T13:30:39Z</time>
      </trkpt>
      <trkpt lat="44.09095" lon="6.00866">
        <ele>471</ele>
        <time>2021-09-09T13:30:41Z</time>
      </trkpt>
      <trkpt lat="44.09094" lon="6.00866">
        <ele>471.1</ele>
        <time>2021-09-09T13:30:42Z</time>
      </trkpt>
      <trkpt lat="44.09091" lon="6.00866">
        <ele>471.4</ele>
        <time>2021-09-09T13:30:43Z</time>
      </trkpt>
      <trkpt lat="44.0909" lon="6.00866">
        <ele>471.5</ele>
        <time>2021-09-09T13:30:44Z</time>
      </trkpt>
      <trkpt lat="44.09087" lon="6.00865">
        <ele>471.8</ele>
        <time>2021-09-09T13:30:46Z</time>
      </trkpt>
      <trkpt lat="44.09086" lon="6.00864">
        <ele>471.9</ele>
        <time>2021-09-09T13:30:47Z</time>
      </trkpt>
      <trkpt lat="44.09084" lon="6.00864">
        <ele>472.2</ele>
        <time>2021-09-09T13:30:49Z</time>
      </trkpt>
      <trkpt lat="44.09083" lon="6.00865">
        <ele>472.3</ele>
        <time>2021-09-09T13:30:50Z</time>
      </trkpt>
      <trkpt lat="44.09084" lon="6.00865">
        <ele>472.3</ele>
        <time>2021-09-09T13:30:51Z</time>
      </trkpt>
      <trkpt lat="44.09083" lon="6.00866">
        <ele>472.4</ele>
        <time>2021-09-09T13:30:53Z</time>
      </trkpt>
      <trkpt lat="44.09083" lon="6.00866">
        <ele>472.5</ele>
        <time>2021-09-09T13:30:55Z</time>
      </trkpt>
      <trkpt lat="44.09083" lon="6.00867">
        <ele>472.5</ele>
        <time>2021-09-09T13:30:57Z</time>
      </trkpt>
      <trkpt lat="44.09083" lon="6.00867">
        <ele>472.5</ele>
        <time>2021-09-09T13:30:58Z</time>
      </trkpt>
      <trkpt lat="44.09082" lon="6.00867">
        <ele>472.5</ele>
        <time>2021-09-09T13:31:00Z</time>
      </trkpt>
      <trkpt lat="44.09082" lon="6.00867">
        <ele>472.6</ele>
        <time>2021-09-09T13:31:01Z</time>
      </trkpt>
      <trkpt lat="44.09074" lon="6.00869">
        <ele>473.5</ele>
        <time>2021-09-09T13:31:32Z</time>
      </trkpt>
      <trkpt lat="44.09069" lon="6.00867">
        <ele>474</ele>
        <time>2021-09-09T13:31:34Z</time>
      </trkpt>
      <trkpt lat="44.09066" lon="6.00864">
        <ele>474.5</ele>
        <time>2021-09-09T13:31:36Z</time>
      </trkpt>
      <trkpt lat="44.09065" lon="6.00863">
        <ele>474.6</ele>
        <time>2021-09-09T13:31:38Z</time>
      </trkpt>
      <trkpt lat="44.09064" lon="6.00863">
        <ele>474.7</ele>
        <time>2021-09-09T13:31:39Z</time>
      </trkpt>
      <trkpt lat="44.09062" lon="6.00863">
        <ele>474.9</ele>
        <time>2021-09-09T13:31:41Z</time>
      </trkpt>
      <trkpt lat="44.09061" lon="6.00864">
        <ele>475</ele>
        <time>2021-09-09T13:31:42Z</time>
      </trkpt>
      <trkpt lat="44.09059" lon="6.00865">
        <ele>475.3</ele>
        <time>2021-09-09T13:31:44Z</time>
      </trkpt>
      <trkpt lat="44.09056" lon="6.00868">
        <ele>475.7</ele>
        <time>2021-09-09T13:31:46Z</time>
      </trkpt>
      <trkpt lat="44.09054" lon="6.00869">
        <ele>475.8</ele>
        <time>2021-09-09T13:31:47Z</time>
      </trkpt>
      <trkpt lat="44.09053" lon="6.00869">
        <ele>475.9</ele>
        <time>2021-09-09T13:31:48Z</time>
      </trkpt>
      <trkpt lat="44.09053" lon="6.00868">
        <ele>476</ele>
        <time>2021-09-09T13:31:49Z</time>
      </trkpt>
      <trkpt lat="44.09053" lon="6.00868">
        <ele>476</ele>
        <time>2021-09-09T13:31:51Z</time>
      </trkpt>
      <trkpt lat="44.09052" lon="6.00867">
        <ele>476.1</ele>
        <time>2021-09-09T13:31:52Z</time>
      </trkpt>
      <trkpt lat="44.09052" lon="6.00867">
        <ele>476.2</ele>
        <time>2021-09-09T13:31:53Z</time>
      </trkpt>
      <trkpt lat="44.09051" lon="6.00867">
        <ele>476.2</ele>
        <time>2021-09-09T13:31:55Z</time>
      </trkpt>
      <trkpt lat="44.0905" lon="6.00866">
        <ele>476.4</ele>
        <time>2021-09-09T13:31:57Z</time>
      </trkpt>
      <trkpt lat="44.0904" lon="6.00861">
        <ele>477.5</ele>
        <time>2021-09-09T13:32:06Z</time>
      </trkpt>
      <trkpt lat="44.09037" lon="6.00859">
        <ele>477.8</ele>
        <time>2021-09-09T13:32:08Z</time>
      </trkpt>
      <trkpt lat="44.09033" lon="6.00856">
        <ele>478.3</ele>
        <time>2021-09-09T13:32:09Z</time>
      </trkpt>
      <trkpt lat="44.09029" lon="6.00854">
        <ele>478.7</ele>
        <time>2021-09-09T13:32:11Z</time>
      </trkpt>
      <trkpt lat="44.09028" lon="6.00854">
        <ele>478.9</ele>
        <time>2021-09-09T13:32:12Z</time>
      </trkpt>
      <trkpt lat="44.09024" lon="6.00853">
        <ele>479.3</ele>
        <time>2021-09-09T13:32:14Z</time>
      </trkpt>
      <trkpt lat="44.09023" lon="6.00853">
        <ele>479.4</ele>
        <time>2021-09-09T13:32:15Z</time>
      </trkpt>
      <trkpt lat="44.0902" lon="6.00852">
        <ele>479.8</ele>
        <time>2021-09-09T13:32:16Z</time>
      </trkpt>
      <trkpt lat="44.09017" lon="6.00851">
        <ele>480.1</ele>
        <time>2021-09-09T13:32:18Z</time>
      </trkpt>
      <trkpt lat="44.09014" lon="6.0085">
        <ele>480.3</ele>
        <time>2021-09-09T13:32:19Z</time>
      </trkpt>
      <trkpt lat="44.09011" lon="6.00847">
        <ele>480.8</ele>
        <time>2021-09-09T13:32:21Z</time>
      </trkpt>
      <trkpt lat="44.09007" lon="6.00846">
        <ele>481.1</ele>
        <time>2021-09-09T13:32:22Z</time>
      </trkpt>
      <trkpt lat="44.09003" lon="6.00846">
        <ele>481.5</ele>
        <time>2021-09-09T13:32:24Z</time>
      </trkpt>
      <trkpt lat="44.09002" lon="6.00846">
        <ele>481.6</ele>
        <time>2021-09-09T13:32:25Z</time>
      </trkpt>
      <trkpt lat="44.08999" lon="6.00846">
        <ele>481.9</ele>
        <time>2021-09-09T13:32:27Z</time>
      </trkpt>
      <trkpt lat="44.08995" lon="6.00846">
        <ele>482.2</ele>
        <time>2021-09-09T13:32:28Z</time>
      </trkpt>
      <trkpt lat="44.08993" lon="6.00847">
        <ele>482.3</ele>
        <time>2021-09-09T13:32:29Z</time>
      </trkpt>
      <trkpt lat="44.0899" lon="6.00849">
        <ele>482.5</ele>
        <time>2021-09-09T13:32:31Z</time>
      </trkpt>
      <trkpt lat="44.08986" lon="6.00849">
        <ele>482.5</ele>
        <time>2021-09-09T13:32:32Z</time>
      </trkpt>
      <trkpt lat="44.08985" lon="6.00849">
        <ele>482.6</ele>
        <time>2021-09-09T13:32:33Z</time>
      </trkpt>
      <trkpt lat="44.08981" lon="6.00847">
        <ele>482.6</ele>
        <time>2021-09-09T13:32:35Z</time>
      </trkpt>
      <trkpt lat="44.08979" lon="6.00847">
        <ele>482.7</ele>
        <time>2021-09-09T13:32:36Z</time>
      </trkpt>
      <trkpt lat="44.08975" lon="6.00847">
        <ele>482.8</ele>
        <time>2021-09-09T13:32:38Z</time>
      </trkpt>
      <trkpt lat="44.08971" lon="6.00846">
        <ele>482.8</ele>
        <time>2021-09-09T13:32:39Z</time>
      </trkpt>
      <trkpt lat="44.08968" lon="6.00846">
        <ele>482.9</ele>
        <time>2021-09-09T13:32:41Z</time>
      </trkpt>
      <trkpt lat="44.08964" lon="6.00846">
        <ele>483</ele>
        <time>2021-09-09T13:32:43Z</time>
      </trkpt>
      <trkpt lat="44.08962" lon="6.00845">
        <ele>483</ele>
        <time>2021-09-09T13:32:44Z</time>
      </trkpt>
      <trkpt lat="44.08959" lon="6.00842">
        <ele>483.1</ele>
        <time>2021-09-09T13:32:46Z</time>
      </trkpt>
      <trkpt lat="44.08955" lon="6.0084">
        <ele>483.2</ele>
        <time>2021-09-09T13:32:47Z</time>
      </trkpt>
      <trkpt lat="44.08952" lon="6.00839">
        <ele>483.2</ele>
        <time>2021-09-09T13:32:49Z</time>
      </trkpt>
      <trkpt lat="44.08948" lon="6.00837">
        <ele>483.3</ele>
        <time>2021-09-09T13:32:51Z</time>
      </trkpt>
      <trkpt lat="44.08943" lon="6.00836">
        <ele>483.4</ele>
        <time>2021-09-09T13:32:52Z</time>
      </trkpt>
      <trkpt lat="44.08942" lon="6.00835">
        <ele>483.4</ele>
        <time>2021-09-09T13:32:53Z</time>
      </trkpt>
      <trkpt lat="44.0894" lon="6.00834">
        <ele>483.4</ele>
        <time>2021-09-09T13:32:54Z</time>
      </trkpt>
      <trkpt lat="44.08936" lon="6.00832">
        <ele>483.5</ele>
        <time>2021-09-09T13:32:56Z</time>
      </trkpt>
      <trkpt lat="44.08932" lon="6.0083">
        <ele>483.5</ele>
        <time>2021-09-09T13:32:57Z</time>
      </trkpt>
      <trkpt lat="44.08928" lon="6.00829">
        <ele>483.6</ele>
        <time>2021-09-09T13:32:59Z</time>
      </trkpt>
      <trkpt lat="44.08926" lon="6.00827">
        <ele>483.6</ele>
        <time>2021-09-09T13:33:00Z</time>
      </trkpt>
      <trkpt lat="44.08923" lon="6.00827">
        <ele>483.6</ele>
        <time>2021-09-09T13:33:01Z</time>
      </trkpt>
      <trkpt lat="44.08918" lon="6.00826">
        <ele>483.6</ele>
        <time>2021-09-09T13:33:02Z</time>
      </trkpt>
      <trkpt lat="44.08914" lon="6.00824">
        <ele>483.7</ele>
        <time>2021-09-09T13:33:04Z</time>
      </trkpt>
      <trkpt lat="44.08911" lon="6.00823">
        <ele>483.7</ele>
        <time>2021-09-09T13:33:05Z</time>
      </trkpt>
      <trkpt lat="44.08907" lon="6.00822">
        <ele>483.7</ele>
        <time>2021-09-09T13:33:06Z</time>
      </trkpt>
      <trkpt lat="44.08903" lon="6.0082">
        <ele>483.7</ele>
        <time>2021-09-09T13:33:07Z</time>
      </trkpt>
      <trkpt lat="44.08897" lon="6.00818">
        <ele>483.8</ele>
        <time>2021-09-09T13:33:09Z</time>
      </trkpt>
      <trkpt lat="44.08893" lon="6.00816">
        <ele>483.8</ele>
        <time>2021-09-09T13:33:11Z</time>
      </trkpt>
      <trkpt lat="44.0889" lon="6.00815">
        <ele>483.8</ele>
        <time>2021-09-09T13:33:12Z</time>
      </trkpt>
      <trkpt lat="44.08887" lon="6.00814">
        <ele>483.8</ele>
        <time>2021-09-09T13:33:13Z</time>
      </trkpt>
      <trkpt lat="44.08883" lon="6.00813">
        <ele>483.9</ele>
        <time>2021-09-09T13:33:14Z</time>
      </trkpt>
      <trkpt lat="44.08879" lon="6.00812">
        <ele>483.9</ele>
        <time>2021-09-09T13:33:15Z</time>
      </trkpt>
      <trkpt lat="44.08875" lon="6.0081">
        <ele>483.9</ele>
        <time>2021-09-09T13:33:17Z</time>
      </trkpt>
      <trkpt lat="44.08869" lon="6.0081">
        <ele>484</ele>
        <time>2021-09-09T13:33:18Z</time>
      </trkpt>
      <trkpt lat="44.08866" lon="6.0081">
        <ele>484</ele>
        <time>2021-09-09T13:33:19Z</time>
      </trkpt>
      <trkpt lat="44.08858" lon="6.00808">
        <ele>484</ele>
        <time>2021-09-09T13:33:21Z</time>
      </trkpt>
      <trkpt lat="44.0885" lon="6.00807">
        <ele>484</ele>
        <time>2021-09-09T13:33:23Z</time>
      </trkpt>
      <trkpt lat="44.08843" lon="6.00804">
        <ele>484</ele>
        <time>2021-09-09T13:33:25Z</time>
      </trkpt>
      <trkpt lat="44.08838" lon="6.00802">
        <ele>484</ele>
        <time>2021-09-09T13:33:27Z</time>
      </trkpt>
      <trkpt lat="44.08832" lon="6.00801">
        <ele>483.9</ele>
        <time>2021-09-09T13:33:28Z</time>
      </trkpt>
      <trkpt lat="44.08828" lon="6.008">
        <ele>483.9</ele>
        <time>2021-09-09T13:33:29Z</time>
      </trkpt>
      <trkpt lat="44.0882" lon="6.00797">
        <ele>483.9</ele>
        <time>2021-09-09T13:33:31Z</time>
      </trkpt>
      <trkpt lat="44.08816" lon="6.00794">
        <ele>483.9</ele>
        <time>2021-09-09T13:33:32Z</time>
      </trkpt>
      <trkpt lat="44.08806" lon="6.0079">
        <ele>483.8</ele>
        <time>2021-09-09T13:33:34Z</time>
      </trkpt>
      <trkpt lat="44.08801" lon="6.00787">
        <ele>483.8</ele>
        <time>2021-09-09T13:33:35Z</time>
      </trkpt>
      <trkpt lat="44.08791" lon="6.00783">
        <ele>483.7</ele>
        <time>2021-09-09T13:33:37Z</time>
      </trkpt>
      <trkpt lat="44.08786" lon="6.00781">
        <ele>483.6</ele>
        <time>2021-09-09T13:33:38Z</time>
      </trkpt>
      <trkpt lat="44.08781" lon="6.0078">
        <ele>483.6</ele>
        <time>2021-09-09T13:33:39Z</time>
      </trkpt>
      <trkpt lat="44.08769" lon="6.00775">
        <ele>483.5</ele>
        <time>2021-09-09T13:33:41Z</time>
      </trkpt>
      <trkpt lat="44.08764" lon="6.00772">
        <ele>483.5</ele>
        <time>2021-09-09T13:33:42Z</time>
      </trkpt>
      <trkpt lat="44.08753" lon="6.00769">
        <ele>483.5</ele>
        <time>2021-09-09T13:33:44Z</time>
      </trkpt>
      <trkpt lat="44.08748" lon="6.00767">
        <ele>483.5</ele>
        <time>2021-09-09T13:33:45Z</time>
      </trkpt>
      <trkpt lat="44.08743" lon="6.00766">
        <ele>483.5</ele>
        <time>2021-09-09T13:33:46Z</time>
      </trkpt>
      <trkpt lat="44.08738" lon="6.00765">
        <ele>483.4</ele>
        <time>2021-09-09T13:33:47Z</time>
      </trkpt>
      <trkpt lat="44.08734" lon="6.00765">
        <ele>483.4</ele>
        <time>2021-09-09T13:33:48Z</time>
      </trkpt>
      <trkpt lat="44.08729" lon="6.00764">
        <ele>483.4</ele>
        <time>2021-09-09T13:33:49Z</time>
      </trkpt>
      <trkpt lat="44.0872" lon="6.00763">
        <ele>483.4</ele>
        <time>2021-09-09T13:33:51Z</time>
      </trkpt>
      <trkpt lat="44.0871" lon="6.00761">
        <ele>483.4</ele>
        <time>2021-09-09T13:33:53Z</time>
      </trkpt>
      <trkpt lat="44.08704" lon="6.0076">
        <ele>483.4</ele>
        <time>2021-09-09T13:33:54Z</time>
      </trkpt>
      <trkpt lat="44.087" lon="6.00759">
        <ele>483.4</ele>
        <time>2021-09-09T13:33:55Z</time>
      </trkpt>
      <trkpt lat="44.08693" lon="6.00758">
        <ele>483.4</ele>
        <time>2021-09-09T13:33:57Z</time>
      </trkpt>
      <trkpt lat="44.08684" lon="6.00755">
        <ele>483.4</ele>
        <time>2021-09-09T13:33:59Z</time>
      </trkpt>
      <trkpt lat="44.08679" lon="6.00755">
        <ele>483.4</ele>
        <time>2021-09-09T13:34:00Z</time>
      </trkpt>
      <trkpt lat="44.08674" lon="6.00754">
        <ele>483.4</ele>
        <time>2021-09-09T13:34:01Z</time>
      </trkpt>
      <trkpt lat="44.0867" lon="6.00753">
        <ele>483.5</ele>
        <time>2021-09-09T13:34:02Z</time>
      </trkpt>
      <trkpt lat="44.08661" lon="6.00751">
        <ele>483.5</ele>
        <time>2021-09-09T13:34:04Z</time>
      </trkpt>
      <trkpt lat="44.08656" lon="6.00751">
        <ele>483.5</ele>
        <time>2021-09-09T13:34:05Z</time>
      </trkpt>
      <trkpt lat="44.0865" lon="6.0075">
        <ele>483.6</ele>
        <time>2021-09-09T13:34:06Z</time>
      </trkpt>
      <trkpt lat="44.08646" lon="6.00749">
        <ele>483.6</ele>
        <time>2021-09-09T13:34:07Z</time>
      </trkpt>
      <trkpt lat="44.0864" lon="6.00747">
        <ele>483.6</ele>
        <time>2021-09-09T13:34:09Z</time>
      </trkpt>
      <trkpt lat="44.08631" lon="6.00743">
        <ele>483.6</ele>
        <time>2021-09-09T13:34:11Z</time>
      </trkpt>
      <trkpt lat="44.08624" lon="6.00741">
        <ele>483.6</ele>
        <time>2021-09-09T13:34:12Z</time>
      </trkpt>
      <trkpt lat="44.08617" lon="6.00738">
        <ele>483.7</ele>
        <time>2021-09-09T13:34:14Z</time>
      </trkpt>
      <trkpt lat="44.08613" lon="6.00737">
        <ele>483.7</ele>
        <time>2021-09-09T13:34:15Z</time>
      </trkpt>
      <trkpt lat="44.08604" lon="6.00732">
        <ele>483.9</ele>
        <time>2021-09-09T13:34:17Z</time>
      </trkpt>
      <trkpt lat="44.08599" lon="6.0073">
        <ele>483.9</ele>
        <time>2021-09-09T13:34:18Z</time>
      </trkpt>
      <trkpt lat="44.08596" lon="6.00726">
        <ele>484</ele>
        <time>2021-09-09T13:34:19Z</time>
      </trkpt>
      <trkpt lat="44.08593" lon="6.00722">
        <ele>484.1</ele>
        <time>2021-09-09T13:34:20Z</time>
      </trkpt>
      <trkpt lat="44.08589" lon="6.00717">
        <ele>484.2</ele>
        <time>2021-09-09T13:34:21Z</time>
      </trkpt>
      <trkpt lat="44.08586" lon="6.00713">
        <ele>484.2</ele>
        <time>2021-09-09T13:34:22Z</time>
      </trkpt>
      <trkpt lat="44.08583" lon="6.0071">
        <ele>484.2</ele>
        <time>2021-09-09T13:34:23Z</time>
      </trkpt>
      <trkpt lat="44.08581" lon="6.00706">
        <ele>484.3</ele>
        <time>2021-09-09T13:34:24Z</time>
      </trkpt>
      <trkpt lat="44.08578" lon="6.00702">
        <ele>484.3</ele>
        <time>2021-09-09T13:34:25Z</time>
      </trkpt>
      <trkpt lat="44.08576" lon="6.00698">
        <ele>484.5</ele>
        <time>2021-09-09T13:34:26Z</time>
      </trkpt>
      <trkpt lat="44.08574" lon="6.00694">
        <ele>484.5</ele>
        <time>2021-09-09T13:34:28Z</time>
      </trkpt>
      <trkpt lat="44.08572" lon="6.00691">
        <ele>484.6</ele>
        <time>2021-09-09T13:34:29Z</time>
      </trkpt>
      <trkpt lat="44.0857" lon="6.00689">
        <ele>484.6</ele>
        <time>2021-09-09T13:34:31Z</time>
      </trkpt>
      <trkpt lat="44.08567" lon="6.00689">
        <ele>484.6</ele>
        <time>2021-09-09T13:34:32Z</time>
      </trkpt>
      <trkpt lat="44.08565" lon="6.00689">
        <ele>484.6</ele>
        <time>2021-09-09T13:34:33Z</time>
      </trkpt>
      <trkpt lat="44.08561" lon="6.00689">
        <ele>484.6</ele>
        <time>2021-09-09T13:34:34Z</time>
      </trkpt>
      <trkpt lat="44.08558" lon="6.00688">
        <ele>484.7</ele>
        <time>2021-09-09T13:34:35Z</time>
      </trkpt>
      <trkpt lat="44.08554" lon="6.00686">
        <ele>484.7</ele>
        <time>2021-09-09T13:34:36Z</time>
      </trkpt>
      <trkpt lat="44.08546" lon="6.00683">
        <ele>484.8</ele>
        <time>2021-09-09T13:34:38Z</time>
      </trkpt>
      <trkpt lat="44.08536" lon="6.00675">
        <ele>484.9</ele>
        <time>2021-09-09T13:34:40Z</time>
      </trkpt>
      <trkpt lat="44.08532" lon="6.0067">
        <ele>484.9</ele>
        <time>2021-09-09T13:34:41Z</time>
      </trkpt>
      <trkpt lat="44.08528" lon="6.00666">
        <ele>485</ele>
        <time>2021-09-09T13:34:42Z</time>
      </trkpt>
      <trkpt lat="44.0852" lon="6.00654">
        <ele>485</ele>
        <time>2021-09-09T13:34:44Z</time>
      </trkpt>
      <trkpt lat="44.08515" lon="6.00649">
        <ele>485.1</ele>
        <time>2021-09-09T13:34:45Z</time>
      </trkpt>
      <trkpt lat="44.08507" lon="6.00639">
        <ele>485</ele>
        <time>2021-09-09T13:34:47Z</time>
      </trkpt>
      <trkpt lat="44.08499" lon="6.00629">
        <ele>484.9</ele>
        <time>2021-09-09T13:34:49Z</time>
      </trkpt>
      <trkpt lat="44.08495" lon="6.00624">
        <ele>484.8</ele>
        <time>2021-09-09T13:34:50Z</time>
      </trkpt>
      <trkpt lat="44.08485" lon="6.00613">
        <ele>484.7</ele>
        <time>2021-09-09T13:34:52Z</time>
      </trkpt>
      <trkpt lat="44.08476" lon="6.00602">
        <ele>484.5</ele>
        <time>2021-09-09T13:34:54Z</time>
      </trkpt>
      <trkpt lat="44.08468" lon="6.0059">
        <ele>484.2</ele>
        <time>2021-09-09T13:34:56Z</time>
      </trkpt>
      <trkpt lat="44.08464" lon="6.00583">
        <ele>484.1</ele>
        <time>2021-09-09T13:34:57Z</time>
      </trkpt>
      <trkpt lat="44.08459" lon="6.00578">
        <ele>484</ele>
        <time>2021-09-09T13:34:58Z</time>
      </trkpt>
      <trkpt lat="44.08451" lon="6.00567">
        <ele>483.8</ele>
        <time>2021-09-09T13:35:00Z</time>
      </trkpt>
      <trkpt lat="44.08443" lon="6.00556">
        <ele>483.6</ele>
        <time>2021-09-09T13:35:02Z</time>
      </trkpt>
      <trkpt lat="44.08439" lon="6.00551">
        <ele>483.5</ele>
        <time>2021-09-09T13:35:03Z</time>
      </trkpt>
      <trkpt lat="44.08435" lon="6.00545">
        <ele>483.5</ele>
        <time>2021-09-09T13:35:04Z</time>
      </trkpt>
      <trkpt lat="44.08431" lon="6.00538">
        <ele>483.4</ele>
        <time>2021-09-09T13:35:05Z</time>
      </trkpt>
      <trkpt lat="44.08423" lon="6.00526">
        <ele>483.2</ele>
        <time>2021-09-09T13:35:07Z</time>
      </trkpt>
      <trkpt lat="44.08414" lon="6.00515">
        <ele>483.2</ele>
        <time>2021-09-09T13:35:09Z</time>
      </trkpt>
      <trkpt lat="44.0841" lon="6.0051">
        <ele>483.2</ele>
        <time>2021-09-09T13:35:10Z</time>
      </trkpt>
      <trkpt lat="44.08405" lon="6.00504">
        <ele>483.2</ele>
        <time>2021-09-09T13:35:11Z</time>
      </trkpt>
      <trkpt lat="44.08397" lon="6.00493">
        <ele>483.1</ele>
        <time>2021-09-09T13:35:13Z</time>
      </trkpt>
      <trkpt lat="44.08393" lon="6.00487">
        <ele>483.1</ele>
        <time>2021-09-09T13:35:14Z</time>
      </trkpt>
      <trkpt lat="44.0839" lon="6.00482">
        <ele>483</ele>
        <time>2021-09-09T13:35:15Z</time>
      </trkpt>
      <trkpt lat="44.08382" lon="6.00472">
        <ele>482.9</ele>
        <time>2021-09-09T13:35:17Z</time>
      </trkpt>
      <trkpt lat="44.08374" lon="6.00462">
        <ele>482.8</ele>
        <time>2021-09-09T13:35:19Z</time>
      </trkpt>
      <trkpt lat="44.0837" lon="6.00457">
        <ele>482.8</ele>
        <time>2021-09-09T13:35:20Z</time>
      </trkpt>
      <trkpt lat="44.08362" lon="6.00447">
        <ele>482.6</ele>
        <time>2021-09-09T13:35:22Z</time>
      </trkpt>
      <trkpt lat="44.08358" lon="6.00442">
        <ele>482.6</ele>
        <time>2021-09-09T13:35:23Z</time>
      </trkpt>
      <trkpt lat="44.08354" lon="6.00437">
        <ele>482.5</ele>
        <time>2021-09-09T13:35:24Z</time>
      </trkpt>
      <trkpt lat="44.08346" lon="6.00426">
        <ele>482.5</ele>
        <time>2021-09-09T13:35:26Z</time>
      </trkpt>
      <trkpt lat="44.08337" lon="6.00414">
        <ele>482.5</ele>
        <time>2021-09-09T13:35:28Z</time>
      </trkpt>
      <trkpt lat="44.08329" lon="6.00404">
        <ele>482.4</ele>
        <time>2021-09-09T13:35:30Z</time>
      </trkpt>
      <trkpt lat="44.08325" lon="6.00398">
        <ele>482.3</ele>
        <time>2021-09-09T13:35:31Z</time>
      </trkpt>
      <trkpt lat="44.08321" lon="6.00393">
        <ele>482.3</ele>
        <time>2021-09-09T13:35:32Z</time>
      </trkpt>
      <trkpt lat="44.08313" lon="6.00381">
        <ele>482.2</ele>
        <time>2021-09-09T13:35:34Z</time>
      </trkpt>
      <trkpt lat="44.08305" lon="6.00369">
        <ele>482.1</ele>
        <time>2021-09-09T13:35:36Z</time>
      </trkpt>
      <trkpt lat="44.08301" lon="6.00364">
        <ele>482.1</ele>
        <time>2021-09-09T13:35:37Z</time>
      </trkpt>
      <trkpt lat="44.08297" lon="6.00359">
        <ele>482.1</ele>
        <time>2021-09-09T13:35:38Z</time>
      </trkpt>
      <trkpt lat="44.08288" lon="6.00347">
        <ele>482</ele>
        <time>2021-09-09T13:35:40Z</time>
      </trkpt>
      <trkpt lat="44.0828" lon="6.00336">
        <ele>481.8</ele>
        <time>2021-09-09T13:35:42Z</time>
      </trkpt>
      <trkpt lat="44.08272" lon="6.00323">
        <ele>481.6</ele>
        <time>2021-09-09T13:35:44Z</time>
      </trkpt>
      <trkpt lat="44.08268" lon="6.00317">
        <ele>481.5</ele>
        <time>2021-09-09T13:35:45Z</time>
      </trkpt>
      <trkpt lat="44.08259" lon="6.00307">
        <ele>481.4</ele>
        <time>2021-09-09T13:35:47Z</time>
      </trkpt>
      <trkpt lat="44.08254" lon="6.00301">
        <ele>481.4</ele>
        <time>2021-09-09T13:35:48Z</time>
      </trkpt>
      <trkpt lat="44.08248" lon="6.0029">
        <ele>481.4</ele>
        <time>2021-09-09T13:35:50Z</time>
      </trkpt>
      <trkpt lat="44.08242" lon="6.00278">
        <ele>481.4</ele>
        <time>2021-09-09T13:35:52Z</time>
      </trkpt>
      <trkpt lat="44.08239" lon="6.00271">
        <ele>481.4</ele>
        <time>2021-09-09T13:35:53Z</time>
      </trkpt>
      <trkpt lat="44.08236" lon="6.00266">
        <ele>481.4</ele>
        <time>2021-09-09T13:35:54Z</time>
      </trkpt>
      <trkpt lat="44.08227" lon="6.00256">
        <ele>481.3</ele>
        <time>2021-09-09T13:35:56Z</time>
      </trkpt>
      <trkpt lat="44.08223" lon="6.00252">
        <ele>481.3</ele>
        <time>2021-09-09T13:35:57Z</time>
      </trkpt>
      <trkpt lat="44.08216" lon="6.00244">
        <ele>481.2</ele>
        <time>2021-09-09T13:35:59Z</time>
      </trkpt>
      <trkpt lat="44.08212" lon="6.0024">
        <ele>481.1</ele>
        <time>2021-09-09T13:36:00Z</time>
      </trkpt>
      <trkpt lat="44.08208" lon="6.00235">
        <ele>481.1</ele>
        <time>2021-09-09T13:36:01Z</time>
      </trkpt>
      <trkpt lat="44.082" lon="6.00227">
        <ele>481.1</ele>
        <time>2021-09-09T13:36:03Z</time>
      </trkpt>
      <trkpt lat="44.08195" lon="6.00223">
        <ele>481.1</ele>
        <time>2021-09-09T13:36:04Z</time>
      </trkpt>
      <trkpt lat="44.08187" lon="6.00215">
        <ele>481</ele>
        <time>2021-09-09T13:36:06Z</time>
      </trkpt>
      <trkpt lat="44.08183" lon="6.0021">
        <ele>481</ele>
        <time>2021-09-09T13:36:07Z</time>
      </trkpt>
      <trkpt lat="44.08176" lon="6.00202">
        <ele>481</ele>
        <time>2021-09-09T13:36:09Z</time>
      </trkpt>
      <trkpt lat="44.08172" lon="6.00197">
        <ele>481</ele>
        <time>2021-09-09T13:36:10Z</time>
      </trkpt>
      <trkpt lat="44.08165" lon="6.00187">
        <ele>481</ele>
        <time>2021-09-09T13:36:12Z</time>
      </trkpt>
      <trkpt lat="44.08161" lon="6.00182">
        <ele>481.1</ele>
        <time>2021-09-09T13:36:13Z</time>
      </trkpt>
      <trkpt lat="44.08157" lon="6.00178">
        <ele>481.1</ele>
        <time>2021-09-09T13:36:14Z</time>
      </trkpt>
      <trkpt lat="44.08149" lon="6.00168">
        <ele>481.1</ele>
        <time>2021-09-09T13:36:16Z</time>
      </trkpt>
      <trkpt lat="44.08146" lon="6.00163">
        <ele>481.1</ele>
        <time>2021-09-09T13:36:17Z</time>
      </trkpt>
      <trkpt lat="44.08139" lon="6.00154">
        <ele>481.1</ele>
        <time>2021-09-09T13:36:19Z</time>
      </trkpt>
      <trkpt lat="44.08132" lon="6.00146">
        <ele>481.1</ele>
        <time>2021-09-09T13:36:21Z</time>
      </trkpt>
      <trkpt lat="44.08125" lon="6.00136">
        <ele>481.2</ele>
        <time>2021-09-09T13:36:23Z</time>
      </trkpt>
      <trkpt lat="44.08117" lon="6.00125">
        <ele>481.2</ele>
        <time>2021-09-09T13:36:25Z</time>
      </trkpt>
      <trkpt lat="44.08114" lon="6.0012">
        <ele>481.2</ele>
        <time>2021-09-09T13:36:26Z</time>
      </trkpt>
      <trkpt lat="44.08108" lon="6.00112">
        <ele>481.2</ele>
        <time>2021-09-09T13:36:28Z</time>
      </trkpt>
      <trkpt lat="44.08104" lon="6.00108">
        <ele>481.2</ele>
        <time>2021-09-09T13:36:29Z</time>
      </trkpt>
      <trkpt lat="44.08101" lon="6.00103">
        <ele>481.2</ele>
        <time>2021-09-09T13:36:30Z</time>
      </trkpt>
      <trkpt lat="44.08095" lon="6.00096">
        <ele>481.2</ele>
        <time>2021-09-09T13:36:32Z</time>
      </trkpt>
      <trkpt lat="44.08091" lon="6.0009">
        <ele>481.2</ele>
        <time>2021-09-09T13:36:33Z</time>
      </trkpt>
      <trkpt lat="44.08084" lon="6.00081">
        <ele>481.2</ele>
        <time>2021-09-09T13:36:35Z</time>
      </trkpt>
      <trkpt lat="44.0808" lon="6.00076">
        <ele>481.3</ele>
        <time>2021-09-09T13:36:36Z</time>
      </trkpt>
      <trkpt lat="44.08076" lon="6.00072">
        <ele>481.3</ele>
        <time>2021-09-09T13:36:37Z</time>
      </trkpt>
      <trkpt lat="44.08068" lon="6.00064">
        <ele>481.3</ele>
        <time>2021-09-09T13:36:39Z</time>
      </trkpt>
      <trkpt lat="44.08064" lon="6.0006">
        <ele>481.3</ele>
        <time>2021-09-09T13:36:40Z</time>
      </trkpt>
      <trkpt lat="44.0806" lon="6.00056">
        <ele>481.3</ele>
        <time>2021-09-09T13:36:41Z</time>
      </trkpt>
      <trkpt lat="44.08057" lon="6.00051">
        <ele>481.3</ele>
        <time>2021-09-09T13:36:42Z</time>
      </trkpt>
      <trkpt lat="44.0805" lon="6.00042">
        <ele>481.4</ele>
        <time>2021-09-09T13:36:44Z</time>
      </trkpt>
      <trkpt lat="44.08047" lon="6.00033">
        <ele>481.4</ele>
        <time>2021-09-09T13:36:46Z</time>
      </trkpt>
      <trkpt lat="44.08041" lon="6.00027">
        <ele>481.4</ele>
        <time>2021-09-09T13:36:48Z</time>
      </trkpt>
      <trkpt lat="44.08038" lon="6.00022">
        <ele>481.4</ele>
        <time>2021-09-09T13:36:49Z</time>
      </trkpt>
      <trkpt lat="44.08035" lon="6.00015">
        <ele>481.4</ele>
        <time>2021-09-09T13:36:50Z</time>
      </trkpt>
      <trkpt lat="44.08029" lon="6.00002">
        <ele>481.4</ele>
        <time>2021-09-09T13:36:52Z</time>
      </trkpt>
      <trkpt lat="44.08021" lon="5.99992">
        <ele>481.4</ele>
        <time>2021-09-09T13:36:54Z</time>
      </trkpt>
      <trkpt lat="44.08017" lon="5.99988">
        <ele>481.4</ele>
        <time>2021-09-09T13:36:55Z</time>
      </trkpt>
      <trkpt lat="44.08012" lon="5.99983">
        <ele>481.3</ele>
        <time>2021-09-09T13:36:56Z</time>
      </trkpt>
      <trkpt lat="44.08008" lon="5.9998">
        <ele>481.3</ele>
        <time>2021-09-09T13:36:57Z</time>
      </trkpt>
      <trkpt lat="44.08007" lon="5.99975">
        <ele>481.2</ele>
        <time>2021-09-09T13:36:58Z</time>
      </trkpt>
      <trkpt lat="44.08" lon="5.99966">
        <ele>481.2</ele>
        <time>2021-09-09T13:37:00Z</time>
      </trkpt>
      <trkpt lat="44.07997" lon="5.99962">
        <ele>481.1</ele>
        <time>2021-09-09T13:37:01Z</time>
      </trkpt>
      <trkpt lat="44.07994" lon="5.99961">
        <ele>481.1</ele>
        <time>2021-09-09T13:37:02Z</time>
      </trkpt>
      <trkpt lat="44.0799" lon="5.99958">
        <ele>480.9</ele>
        <time>2021-09-09T13:37:03Z</time>
      </trkpt>
      <trkpt lat="44.07986" lon="5.99951">
        <ele>480.9</ele>
        <time>2021-09-09T13:37:05Z</time>
      </trkpt>
      <trkpt lat="44.07981" lon="5.99941">
        <ele>480.9</ele>
        <time>2021-09-09T13:37:06Z</time>
      </trkpt>
      <trkpt lat="44.07975" lon="5.99932">
        <ele>480.9</ele>
        <time>2021-09-09T13:37:08Z</time>
      </trkpt>
      <trkpt lat="44.07973" lon="5.99929">
        <ele>480.9</ele>
        <time>2021-09-09T13:37:09Z</time>
      </trkpt>
      <trkpt lat="44.07972" lon="5.99928">
        <ele>480.9</ele>
        <time>2021-09-09T13:37:10Z</time>
      </trkpt>
      <trkpt lat="44.07968" lon="5.99924">
        <ele>480.9</ele>
        <time>2021-09-09T13:37:11Z</time>
      </trkpt>
      <trkpt lat="44.07965" lon="5.99921">
        <ele>480.9</ele>
        <time>2021-09-09T13:37:12Z</time>
      </trkpt>
      <trkpt lat="44.07962" lon="5.99918">
        <ele>480.9</ele>
        <time>2021-09-09T13:37:13Z</time>
      </trkpt>
      <trkpt lat="44.07958" lon="5.99914">
        <ele>480.8</ele>
        <time>2021-09-09T13:37:15Z</time>
      </trkpt>
      <trkpt lat="44.07955" lon="5.99912">
        <ele>480.8</ele>
        <time>2021-09-09T13:37:16Z</time>
      </trkpt>
      <trkpt lat="44.07949" lon="5.99907">
        <ele>480.8</ele>
        <time>2021-09-09T13:37:18Z</time>
      </trkpt>
      <trkpt lat="44.07946" lon="5.99906">
        <ele>480.7</ele>
        <time>2021-09-09T13:37:19Z</time>
      </trkpt>
      <trkpt lat="44.07942" lon="5.99903">
        <ele>480.7</ele>
        <time>2021-09-09T13:37:20Z</time>
      </trkpt>
      <trkpt lat="44.07938" lon="5.99902">
        <ele>480.7</ele>
        <time>2021-09-09T13:37:22Z</time>
      </trkpt>
      <trkpt lat="44.07937" lon="5.99902">
        <ele>480.7</ele>
        <time>2021-09-09T13:37:23Z</time>
      </trkpt>
      <trkpt lat="44.07936" lon="5.99902">
        <ele>480.7</ele>
        <time>2021-09-09T13:37:25Z</time>
      </trkpt>
      <trkpt lat="44.07935" lon="5.99902">
        <ele>480.6</ele>
        <time>2021-09-09T13:37:27Z</time>
      </trkpt>
      <trkpt lat="44.07935" lon="5.99902">
        <ele>480.6</ele>
        <time>2021-09-09T13:37:29Z</time>
      </trkpt>
      <trkpt lat="44.07934" lon="5.99903">
        <ele>480.6</ele>
        <time>2021-09-09T13:37:31Z</time>
      </trkpt>
      <trkpt lat="44.07933" lon="5.99903">
        <ele>480.6</ele>
        <time>2021-09-09T13:37:32Z</time>
      </trkpt>
      <trkpt lat="44.07932" lon="5.99903">
        <ele>480.6</ele>
        <time>2021-09-09T13:37:34Z</time>
      </trkpt>
      <trkpt lat="44.07931" lon="5.99903">
        <ele>480.6</ele>
        <time>2021-09-09T13:37:35Z</time>
      </trkpt>
      <trkpt lat="44.0793" lon="5.99904">
        <ele>480.6</ele>
        <time>2021-09-09T13:37:46Z</time>
      </trkpt>
      <trkpt lat="44.07929" lon="5.99904">
        <ele>480.6</ele>
        <time>2021-09-09T13:37:47Z</time>
      </trkpt>
      <trkpt lat="44.0791" lon="5.999">
        <ele>480.3</ele>
        <time>2021-09-09T13:37:49Z</time>
      </trkpt>
      <trkpt lat="44.07895" lon="5.99894">
        <ele>480.1</ele>
        <time>2021-09-09T13:37:51Z</time>
      </trkpt>
      <trkpt lat="44.07881" lon="5.99887">
        <ele>479.9</ele>
        <time>2021-09-09T13:37:53Z</time>
      </trkpt>
      <trkpt lat="44.07874" lon="5.99883">
        <ele>479.8</ele>
        <time>2021-09-09T13:37:54Z</time>
      </trkpt>
      <trkpt lat="44.07867" lon="5.99879">
        <ele>479.7</ele>
        <time>2021-09-09T13:37:55Z</time>
      </trkpt>
      <trkpt lat="44.07854" lon="5.9987">
        <ele>479.5</ele>
        <time>2021-09-09T13:37:57Z</time>
      </trkpt>
      <trkpt lat="44.07843" lon="5.99861">
        <ele>479.3</ele>
        <time>2021-09-09T13:37:59Z</time>
      </trkpt>
      <trkpt lat="44.07838" lon="5.99856">
        <ele>479.2</ele>
        <time>2021-09-09T13:38:00Z</time>
      </trkpt>
      <trkpt lat="44.07829" lon="5.99844">
        <ele>479.1</ele>
        <time>2021-09-09T13:38:02Z</time>
      </trkpt>
      <trkpt lat="44.07821" lon="5.9983">
        <ele>479</ele>
        <time>2021-09-09T13:38:04Z</time>
      </trkpt>
      <trkpt lat="44.07818" lon="5.99822">
        <ele>478.9</ele>
        <time>2021-09-09T13:38:05Z</time>
      </trkpt>
      <trkpt lat="44.07815" lon="5.99814">
        <ele>478.9</ele>
        <time>2021-09-09T13:38:06Z</time>
      </trkpt>
      <trkpt lat="44.07811" lon="5.99799">
        <ele>478.7</ele>
        <time>2021-09-09T13:38:08Z</time>
      </trkpt>
      <trkpt lat="44.07809" lon="5.99791">
        <ele>478.7</ele>
        <time>2021-09-09T13:38:09Z</time>
      </trkpt>
      <trkpt lat="44.07805" lon="5.99773">
        <ele>478.5</ele>
        <time>2021-09-09T13:38:11Z</time>
      </trkpt>
      <trkpt lat="44.07803" lon="5.99756">
        <ele>478.4</ele>
        <time>2021-09-09T13:38:13Z</time>
      </trkpt>
      <trkpt lat="44.07802" lon="5.99747">
        <ele>478.4</ele>
        <time>2021-09-09T13:38:14Z</time>
      </trkpt>
      <trkpt lat="44.07802" lon="5.99739">
        <ele>478.3</ele>
        <time>2021-09-09T13:38:15Z</time>
      </trkpt>
      <trkpt lat="44.07804" lon="5.99723">
        <ele>478.2</ele>
        <time>2021-09-09T13:38:17Z</time>
      </trkpt>
      <trkpt lat="44.07808" lon="5.99707">
        <ele>478</ele>
        <time>2021-09-09T13:38:19Z</time>
      </trkpt>
      <trkpt lat="44.07811" lon="5.99699">
        <ele>477.8</ele>
        <time>2021-09-09T13:38:20Z</time>
      </trkpt>
      <trkpt lat="44.07815" lon="5.9969">
        <ele>477.6</ele>
        <time>2021-09-09T13:38:21Z</time>
      </trkpt>
      <trkpt lat="44.07826" lon="5.99675">
        <ele>477.2</ele>
        <time>2021-09-09T13:38:23Z</time>
      </trkpt>
      <trkpt lat="44.07831" lon="5.99668">
        <ele>476.9</ele>
        <time>2021-09-09T13:38:24Z</time>
      </trkpt>
      <trkpt lat="44.07836" lon="5.99662">
        <ele>476.7</ele>
        <time>2021-09-09T13:38:25Z</time>
      </trkpt>
      <trkpt lat="44.0784" lon="5.99657">
        <ele>476.5</ele>
        <time>2021-09-09T13:38:26Z</time>
      </trkpt>
      <trkpt lat="44.07845" lon="5.99653">
        <ele>476.4</ele>
        <time>2021-09-09T13:38:27Z</time>
      </trkpt>
      <trkpt lat="44.07849" lon="5.99649">
        <ele>476.2</ele>
        <time>2021-09-09T13:38:28Z</time>
      </trkpt>
      <trkpt lat="44.07858" lon="5.99639">
        <ele>475.8</ele>
        <time>2021-09-09T13:38:30Z</time>
      </trkpt>
      <trkpt lat="44.07867" lon="5.99627">
        <ele>475.3</ele>
        <time>2021-09-09T13:38:32Z</time>
      </trkpt>
      <trkpt lat="44.07872" lon="5.9962">
        <ele>475</ele>
        <time>2021-09-09T13:38:33Z</time>
      </trkpt>
      <trkpt lat="44.07883" lon="5.99606">
        <ele>474.4</ele>
        <time>2021-09-09T13:38:35Z</time>
      </trkpt>
      <trkpt lat="44.07888" lon="5.99599">
        <ele>474.1</ele>
        <time>2021-09-09T13:38:36Z</time>
      </trkpt>
      <trkpt lat="44.07894" lon="5.99592">
        <ele>473.8</ele>
        <time>2021-09-09T13:38:37Z</time>
      </trkpt>
      <trkpt lat="44.07905" lon="5.99579">
        <ele>473.2</ele>
        <time>2021-09-09T13:38:39Z</time>
      </trkpt>
      <trkpt lat="44.07917" lon="5.99568">
        <ele>472.6</ele>
        <time>2021-09-09T13:38:41Z</time>
      </trkpt>
      <trkpt lat="44.07923" lon="5.99561">
        <ele>472.2</ele>
        <time>2021-09-09T13:38:42Z</time>
      </trkpt>
      <trkpt lat="44.07929" lon="5.99552">
        <ele>471.8</ele>
        <time>2021-09-09T13:38:43Z</time>
      </trkpt>
      <trkpt lat="44.07935" lon="5.99544">
        <ele>471.4</ele>
        <time>2021-09-09T13:38:44Z</time>
      </trkpt>
      <trkpt lat="44.07941" lon="5.99535">
        <ele>471</ele>
        <time>2021-09-09T13:38:45Z</time>
      </trkpt>
      <trkpt lat="44.07952" lon="5.99519">
        <ele>470.3</ele>
        <time>2021-09-09T13:38:47Z</time>
      </trkpt>
      <trkpt lat="44.07957" lon="5.99511">
        <ele>470</ele>
        <time>2021-09-09T13:38:48Z</time>
      </trkpt>
      <trkpt lat="44.07969" lon="5.99494">
        <ele>469.3</ele>
        <time>2021-09-09T13:38:50Z</time>
      </trkpt>
      <trkpt lat="44.07974" lon="5.99484">
        <ele>468.9</ele>
        <time>2021-09-09T13:38:51Z</time>
      </trkpt>
      <trkpt lat="44.07978" lon="5.99474">
        <ele>468.5</ele>
        <time>2021-09-09T13:38:52Z</time>
      </trkpt>
      <trkpt lat="44.07982" lon="5.99453">
        <ele>467.9</ele>
        <time>2021-09-09T13:38:54Z</time>
      </trkpt>
      <trkpt lat="44.07982" lon="5.99441">
        <ele>467.6</ele>
        <time>2021-09-09T13:38:55Z</time>
      </trkpt>
      <trkpt lat="44.07979" lon="5.9942">
        <ele>467</ele>
        <time>2021-09-09T13:38:57Z</time>
      </trkpt>
      <trkpt lat="44.07974" lon="5.99396">
        <ele>466.5</ele>
        <time>2021-09-09T13:38:59Z</time>
      </trkpt>
      <trkpt lat="44.07969" lon="5.9938">
        <ele>466.5</ele>
        <time>2021-09-09T13:39:01Z</time>
      </trkpt>
      <trkpt lat="44.07965" lon="5.99375">
        <ele>466.4</ele>
        <time>2021-09-09T13:39:03Z</time>
      </trkpt>
      <trkpt lat="44.07961" lon="5.99376">
        <ele>466.4</ele>
        <time>2021-09-09T13:39:05Z</time>
      </trkpt>
      <trkpt lat="44.0796" lon="5.99375">
        <ele>466.4</ele>
        <time>2021-09-09T13:39:06Z</time>
      </trkpt>
      <trkpt lat="44.07954" lon="5.99373">
        <ele>466.4</ele>
        <time>2021-09-09T13:39:08Z</time>
      </trkpt>
      <trkpt lat="44.07949" lon="5.99372">
        <ele>466.4</ele>
        <time>2021-09-09T13:39:09Z</time>
      </trkpt>
      <trkpt lat="44.07938" lon="5.99369">
        <ele>466.4</ele>
        <time>2021-09-09T13:39:11Z</time>
      </trkpt>
      <trkpt lat="44.07932" lon="5.99369">
        <ele>466.5</ele>
        <time>2021-09-09T13:39:12Z</time>
      </trkpt>
      <trkpt lat="44.07921" lon="5.99374">
        <ele>466.4</ele>
        <time>2021-09-09T13:39:14Z</time>
      </trkpt>
      <trkpt lat="44.07916" lon="5.99379">
        <ele>466.4</ele>
        <time>2021-09-09T13:39:15Z</time>
      </trkpt>
      <trkpt lat="44.07912" lon="5.99378">
        <ele>466.4</ele>
        <time>2021-09-09T13:39:16Z</time>
      </trkpt>
      <trkpt lat="44.0791" lon="5.99377">
        <ele>466.4</ele>
        <time>2021-09-09T13:39:17Z</time>
      </trkpt>
      <trkpt lat="44.07905" lon="5.99385">
        <ele>466.4</ele>
        <time>2021-09-09T13:39:19Z</time>
      </trkpt>
      <trkpt lat="44.07899" lon="5.99391">
        <ele>466.6</ele>
        <time>2021-09-09T13:39:21Z</time>
      </trkpt>
      <trkpt lat="44.07892" lon="5.99399">
        <ele>466.7</ele>
        <time>2021-09-09T13:39:22Z</time>
      </trkpt>
      <trkpt lat="44.07888" lon="5.99402">
        <ele>466.9</ele>
        <time>2021-09-09T13:39:24Z</time>
      </trkpt>
      <trkpt lat="44.07882" lon="5.99405">
        <ele>467</ele>
        <time>2021-09-09T13:39:25Z</time>
      </trkpt>
      <trkpt lat="44.07878" lon="5.99408">
        <ele>467.2</ele>
        <time>2021-09-09T13:39:27Z</time>
      </trkpt>
      <trkpt lat="44.07872" lon="5.99411">
        <ele>467.4</ele>
        <time>2021-09-09T13:39:28Z</time>
      </trkpt>
      <trkpt lat="44.07869" lon="5.99414">
        <ele>467.5</ele>
        <time>2021-09-09T13:39:30Z</time>
      </trkpt>
      <trkpt lat="44.07864" lon="5.99418">
        <ele>467.8</ele>
        <time>2021-09-09T13:39:31Z</time>
      </trkpt>
      <trkpt lat="44.0786" lon="5.99418">
        <ele>468</ele>
        <time>2021-09-09T13:39:33Z</time>
      </trkpt>
      <trkpt lat="44.07856" lon="5.99417">
        <ele>468.1</ele>
        <time>2021-09-09T13:39:34Z</time>
      </trkpt>
      <trkpt lat="44.0785" lon="5.99415">
        <ele>468.4</ele>
        <time>2021-09-09T13:39:35Z</time>
      </trkpt>
      <trkpt lat="44.07845" lon="5.99411">
        <ele>468.6</ele>
        <time>2021-09-09T13:39:37Z</time>
      </trkpt>
      <trkpt lat="44.07842" lon="5.99407">
        <ele>468.9</ele>
        <time>2021-09-09T13:39:38Z</time>
      </trkpt>
      <trkpt lat="44.07839" lon="5.99406">
        <ele>469</ele>
        <time>2021-09-09T13:39:40Z</time>
      </trkpt>
      <trkpt lat="44.07838" lon="5.99406">
        <ele>469</ele>
        <time>2021-09-09T13:39:41Z</time>
      </trkpt>
      <trkpt lat="44.07835" lon="5.99406">
        <ele>469.2</ele>
        <time>2021-09-09T13:39:43Z</time>
      </trkpt>
      <trkpt lat="44.07834" lon="5.99406">
        <ele>469.2</ele>
        <time>2021-09-09T13:39:44Z</time>
      </trkpt>
      <trkpt lat="44.07832" lon="5.99404">
        <ele>469.4</ele>
        <time>2021-09-09T13:39:45Z</time>
      </trkpt>
      <trkpt lat="44.0783" lon="5.99403">
        <ele>469.5</ele>
        <time>2021-09-09T13:39:46Z</time>
      </trkpt>
      <trkpt lat="44.07826" lon="5.99401">
        <ele>469.7</ele>
        <time>2021-09-09T13:39:48Z</time>
      </trkpt>
      <trkpt lat="44.07823" lon="5.99401">
        <ele>469.8</ele>
        <time>2021-09-09T13:39:49Z</time>
      </trkpt>
      <trkpt lat="44.07822" lon="5.994">
        <ele>469.9</ele>
        <time>2021-09-09T13:39:50Z</time>
      </trkpt>
      <trkpt lat="44.07817" lon="5.99399">
        <ele>470.2</ele>
        <time>2021-09-09T13:39:52Z</time>
      </trkpt>
      <trkpt lat="44.07815" lon="5.99398">
        <ele>470.3</ele>
        <time>2021-09-09T13:39:53Z</time>
      </trkpt>
      <trkpt lat="44.07813" lon="5.99398">
        <ele>470.4</ele>
        <time>2021-09-09T13:39:54Z</time>
      </trkpt>
      <trkpt lat="44.0781" lon="5.994">
        <ele>470.6</ele>
        <time>2021-09-09T13:39:56Z</time>
      </trkpt>
      <trkpt lat="44.0781" lon="5.99401">
        <ele>470.7</ele>
        <time>2021-09-09T13:39:57Z</time>
      </trkpt>
      <trkpt lat="44.07809" lon="5.99404">
        <ele>470.8</ele>
        <time>2021-09-09T13:39:58Z</time>
      </trkpt>
      <trkpt lat="44.07807" lon="5.99412">
        <ele>471.2</ele>
        <time>2021-09-09T13:40:00Z</time>
      </trkpt>
      <trkpt lat="44.07805" lon="5.99415">
        <ele>471.4</ele>
        <time>2021-09-09T13:40:01Z</time>
      </trkpt>
      <trkpt lat="44.078" lon="5.99423">
        <ele>471.9</ele>
        <time>2021-09-09T13:40:02Z</time>
      </trkpt>
      <trkpt lat="44.07796" lon="5.99429">
        <ele>472.2</ele>
        <time>2021-09-09T13:40:04Z</time>
      </trkpt>
      <trkpt lat="44.0779" lon="5.99434">
        <ele>472.7</ele>
        <time>2021-09-09T13:40:05Z</time>
      </trkpt>
      <trkpt lat="44.07785" lon="5.99435">
        <ele>473</ele>
        <time>2021-09-09T13:40:06Z</time>
      </trkpt>
      <trkpt lat="44.07784" lon="5.99433">
        <ele>473.1</ele>
        <time>2021-09-09T13:40:08Z</time>
      </trkpt>
      <trkpt lat="44.0778" lon="5.99428">
        <ele>473.4</ele>
        <time>2021-09-09T13:40:10Z</time>
      </trkpt>
      <trkpt lat="44.07779" lon="5.9943">
        <ele>473.5</ele>
        <time>2021-09-09T13:40:11Z</time>
      </trkpt>
      <trkpt lat="44.07777" lon="5.99431">
        <ele>473.6</ele>
        <time>2021-09-09T13:40:12Z</time>
      </trkpt>
      <trkpt lat="44.07774" lon="5.99434">
        <ele>473.8</ele>
        <time>2021-09-09T13:40:14Z</time>
      </trkpt>
      <trkpt lat="44.07773" lon="5.99435">
        <ele>473.9</ele>
        <time>2021-09-09T13:40:15Z</time>
      </trkpt>
      <trkpt lat="44.07767" lon="5.99436">
        <ele>474.2</ele>
        <time>2021-09-09T13:40:16Z</time>
      </trkpt>
      <trkpt lat="44.07762" lon="5.99436">
        <ele>474.4</ele>
        <time>2021-09-09T13:40:17Z</time>
      </trkpt>
      <trkpt lat="44.07759" lon="5.99434">
        <ele>474.6</ele>
        <time>2021-09-09T13:40:19Z</time>
      </trkpt>
      <trkpt lat="44.07754" lon="5.99432">
        <ele>474.9</ele>
        <time>2021-09-09T13:40:20Z</time>
      </trkpt>
      <trkpt lat="44.07749" lon="5.99432">
        <ele>475.1</ele>
        <time>2021-09-09T13:40:22Z</time>
      </trkpt>
      <trkpt lat="44.07743" lon="5.99435">
        <ele>475.4</ele>
        <time>2021-09-09T13:40:24Z</time>
      </trkpt>
      <trkpt lat="44.07739" lon="5.99438">
        <ele>475.6</ele>
        <time>2021-09-09T13:40:25Z</time>
      </trkpt>
      <trkpt lat="44.07737" lon="5.99441">
        <ele>475.8</ele>
        <time>2021-09-09T13:40:26Z</time>
      </trkpt>
      <trkpt lat="44.07736" lon="5.99444">
        <ele>475.9</ele>
        <time>2021-09-09T13:40:28Z</time>
      </trkpt>
      <trkpt lat="44.07736" lon="5.99446">
        <ele>476</ele>
        <time>2021-09-09T13:40:29Z</time>
      </trkpt>
      <trkpt lat="44.07736" lon="5.99448">
        <ele>476.1</ele>
        <time>2021-09-09T13:40:30Z</time>
      </trkpt>
      <trkpt lat="44.07735" lon="5.99451">
        <ele>476.2</ele>
        <time>2021-09-09T13:40:31Z</time>
      </trkpt>
      <trkpt lat="44.07734" lon="5.99453">
        <ele>476.3</ele>
        <time>2021-09-09T13:40:32Z</time>
      </trkpt>
      <trkpt lat="44.0773" lon="5.99456">
        <ele>476.5</ele>
        <time>2021-09-09T13:40:34Z</time>
      </trkpt>
      <trkpt lat="44.07728" lon="5.99456">
        <ele>476.6</ele>
        <time>2021-09-09T13:40:35Z</time>
      </trkpt>
      <trkpt lat="44.07726" lon="5.99456">
        <ele>476.7</ele>
        <time>2021-09-09T13:40:36Z</time>
      </trkpt>
      <trkpt lat="44.07721" lon="5.99458">
        <ele>477</ele>
        <time>2021-09-09T13:40:38Z</time>
      </trkpt>
      <trkpt lat="44.07716" lon="5.9946">
        <ele>477.3</ele>
        <time>2021-09-09T13:40:39Z</time>
      </trkpt>
      <trkpt lat="44.07714" lon="5.99462">
        <ele>477.4</ele>
        <time>2021-09-09T13:40:41Z</time>
      </trkpt>
      <trkpt lat="44.07713" lon="5.99463">
        <ele>477.5</ele>
        <time>2021-09-09T13:40:42Z</time>
      </trkpt>
      <trkpt lat="44.07709" lon="5.99464">
        <ele>477.7</ele>
        <time>2021-09-09T13:40:44Z</time>
      </trkpt>
      <trkpt lat="44.07707" lon="5.99464">
        <ele>477.7</ele>
        <time>2021-09-09T13:40:45Z</time>
      </trkpt>
      <trkpt lat="44.07705" lon="5.99464">
        <ele>477.8</ele>
        <time>2021-09-09T13:40:46Z</time>
      </trkpt>
      <trkpt lat="44.07703" lon="5.99465">
        <ele>477.9</ele>
        <time>2021-09-09T13:40:47Z</time>
      </trkpt>
      <trkpt lat="44.07702" lon="5.99465">
        <ele>478</ele>
        <time>2021-09-09T13:40:48Z</time>
      </trkpt>
      <trkpt lat="44.07697" lon="5.99465">
        <ele>478.2</ele>
        <time>2021-09-09T13:40:50Z</time>
      </trkpt>
      <trkpt lat="44.07687" lon="5.99467">
        <ele>478.6</ele>
        <time>2021-09-09T13:40:52Z</time>
      </trkpt>
      <trkpt lat="44.07681" lon="5.99466">
        <ele>478.8</ele>
        <time>2021-09-09T13:40:53Z</time>
      </trkpt>
      <trkpt lat="44.07675" lon="5.99465">
        <ele>479</ele>
        <time>2021-09-09T13:40:54Z</time>
      </trkpt>
      <trkpt lat="44.07662" lon="5.99462">
        <ele>479.3</ele>
        <time>2021-09-09T13:40:56Z</time>
      </trkpt>
      <trkpt lat="44.07657" lon="5.99461">
        <ele>479.4</ele>
        <time>2021-09-09T13:40:57Z</time>
      </trkpt>
      <trkpt lat="44.07648" lon="5.99458">
        <ele>479.5</ele>
        <time>2021-09-09T13:40:59Z</time>
      </trkpt>
      <trkpt lat="44.07641" lon="5.99457">
        <ele>479.5</ele>
        <time>2021-09-09T13:41:00Z</time>
      </trkpt>
      <trkpt lat="44.07635" lon="5.99453">
        <ele>479.6</ele>
        <time>2021-09-09T13:41:02Z</time>
      </trkpt>
      <trkpt lat="44.07632" lon="5.99449">
        <ele>479.6</ele>
        <time>2021-09-09T13:41:04Z</time>
      </trkpt>
      <trkpt lat="44.07628" lon="5.99445">
        <ele>479.6</ele>
        <time>2021-09-09T13:41:05Z</time>
      </trkpt>
      <trkpt lat="44.07622" lon="5.99439">
        <ele>479.6</ele>
        <time>2021-09-09T13:41:07Z</time>
      </trkpt>
      <trkpt lat="44.07617" lon="5.99435">
        <ele>479.6</ele>
        <time>2021-09-09T13:41:08Z</time>
      </trkpt>
      <trkpt lat="44.07613" lon="5.99438">
        <ele>479.6</ele>
        <time>2021-09-09T13:41:09Z</time>
      </trkpt>
      <trkpt lat="44.07609" lon="5.99434">
        <ele>479.6</ele>
        <time>2021-09-09T13:41:10Z</time>
      </trkpt>
      <trkpt lat="44.07606" lon="5.99429">
        <ele>479.6</ele>
        <time>2021-09-09T13:41:12Z</time>
      </trkpt>
      <trkpt lat="44.07603" lon="5.99425">
        <ele>479.6</ele>
        <time>2021-09-09T13:41:13Z</time>
      </trkpt>
      <trkpt lat="44.07598" lon="5.99419">
        <ele>479.6</ele>
        <time>2021-09-09T13:41:15Z</time>
      </trkpt>
      <trkpt lat="44.07591" lon="5.9941">
        <ele>479.5</ele>
        <time>2021-09-09T13:41:17Z</time>
      </trkpt>
      <trkpt lat="44.07588" lon="5.99407">
        <ele>479.5</ele>
        <time>2021-09-09T13:41:18Z</time>
      </trkpt>
      <trkpt lat="44.07584" lon="5.99403">
        <ele>479.5</ele>
        <time>2021-09-09T13:41:19Z</time>
      </trkpt>
      <trkpt lat="44.07578" lon="5.99396">
        <ele>479.4</ele>
        <time>2021-09-09T13:41:21Z</time>
      </trkpt>
      <trkpt lat="44.07575" lon="5.99393">
        <ele>479.4</ele>
        <time>2021-09-09T13:41:22Z</time>
      </trkpt>
      <trkpt lat="44.07571" lon="5.99389">
        <ele>479.3</ele>
        <time>2021-09-09T13:41:23Z</time>
      </trkpt>
      <trkpt lat="44.07567" lon="5.99385">
        <ele>479.3</ele>
        <time>2021-09-09T13:41:24Z</time>
      </trkpt>
      <trkpt lat="44.07561" lon="5.99379">
        <ele>479.2</ele>
        <time>2021-09-09T13:41:26Z</time>
      </trkpt>
      <trkpt lat="44.07558" lon="5.99375">
        <ele>479.1</ele>
        <time>2021-09-09T13:41:27Z</time>
      </trkpt>
      <trkpt lat="44.07554" lon="5.9937">
        <ele>479.1</ele>
        <time>2021-09-09T13:41:28Z</time>
      </trkpt>
      <trkpt lat="44.07549" lon="5.99365">
        <ele>479</ele>
        <time>2021-09-09T13:41:30Z</time>
      </trkpt>
      <trkpt lat="44.07542" lon="5.99361">
        <ele>478.8</ele>
        <time>2021-09-09T13:41:31Z</time>
      </trkpt>
      <trkpt lat="44.07535" lon="5.99357">
        <ele>478.7</ele>
        <time>2021-09-09T13:41:33Z</time>
      </trkpt>
      <trkpt lat="44.07526" lon="5.99355">
        <ele>478.5</ele>
        <time>2021-09-09T13:41:35Z</time>
      </trkpt>
      <trkpt lat="44.07522" lon="5.99354">
        <ele>478.4</ele>
        <time>2021-09-09T13:41:36Z</time>
      </trkpt>
      <trkpt lat="44.07514" lon="5.99349">
        <ele>478.2</ele>
        <time>2021-09-09T13:41:38Z</time>
      </trkpt>
      <trkpt lat="44.0751" lon="5.99342">
        <ele>478.1</ele>
        <time>2021-09-09T13:41:39Z</time>
      </trkpt>
      <trkpt lat="44.07504" lon="5.99338">
        <ele>477.9</ele>
        <time>2021-09-09T13:41:40Z</time>
      </trkpt>
      <trkpt lat="44.07501" lon="5.9933">
        <ele>477.8</ele>
        <time>2021-09-09T13:41:42Z</time>
      </trkpt>
      <trkpt lat="44.07495" lon="5.99327">
        <ele>477.6</ele>
        <time>2021-09-09T13:41:43Z</time>
      </trkpt>
      <trkpt lat="44.0749" lon="5.99324">
        <ele>477.5</ele>
        <time>2021-09-09T13:41:45Z</time>
      </trkpt>
      <trkpt lat="44.07486" lon="5.99322">
        <ele>477.4</ele>
        <time>2021-09-09T13:41:46Z</time>
      </trkpt>
      <trkpt lat="44.07483" lon="5.9932">
        <ele>477.4</ele>
        <time>2021-09-09T13:41:47Z</time>
      </trkpt>
      <trkpt lat="44.0748" lon="5.99318">
        <ele>477.3</ele>
        <time>2021-09-09T13:41:48Z</time>
      </trkpt>
      <trkpt lat="44.07474" lon="5.99314">
        <ele>477.2</ele>
        <time>2021-09-09T13:41:49Z</time>
      </trkpt>
      <trkpt lat="44.0747" lon="5.99312">
        <ele>477.2</ele>
        <time>2021-09-09T13:41:51Z</time>
      </trkpt>
      <trkpt lat="44.07467" lon="5.99308">
        <ele>477.1</ele>
        <time>2021-09-09T13:41:52Z</time>
      </trkpt>
      <trkpt lat="44.07464" lon="5.99306">
        <ele>477.1</ele>
        <time>2021-09-09T13:41:53Z</time>
      </trkpt>
      <trkpt lat="44.07461" lon="5.99299">
        <ele>477</ele>
        <time>2021-09-09T13:41:55Z</time>
      </trkpt>
      <trkpt lat="44.07457" lon="5.99283">
        <ele>476.8</ele>
        <time>2021-09-09T13:41:57Z</time>
      </trkpt>
      <trkpt lat="44.07454" lon="5.99276">
        <ele>476.7</ele>
        <time>2021-09-09T13:41:58Z</time>
      </trkpt>
      <trkpt lat="44.07447" lon="5.99263">
        <ele>476.6</ele>
        <time>2021-09-09T13:42:00Z</time>
      </trkpt>
      <trkpt lat="44.07441" lon="5.99252">
        <ele>476.4</ele>
        <time>2021-09-09T13:42:02Z</time>
      </trkpt>
      <trkpt lat="44.07438" lon="5.99248">
        <ele>476.3</ele>
        <time>2021-09-09T13:42:03Z</time>
      </trkpt>
      <trkpt lat="44.07433" lon="5.99236">
        <ele>476.2</ele>
        <time>2021-09-09T13:42:05Z</time>
      </trkpt>
      <trkpt lat="44.07429" lon="5.99231">
        <ele>476.1</ele>
        <time>2021-09-09T13:42:06Z</time>
      </trkpt>
      <trkpt lat="44.07422" lon="5.99219">
        <ele>475.9</ele>
        <time>2021-09-09T13:42:08Z</time>
      </trkpt>
      <trkpt lat="44.07418" lon="5.99215">
        <ele>475.7</ele>
        <time>2021-09-09T13:42:09Z</time>
      </trkpt>
      <trkpt lat="44.07414" lon="5.9921">
        <ele>475.6</ele>
        <time>2021-09-09T13:42:10Z</time>
      </trkpt>
      <trkpt lat="44.0741" lon="5.99205">
        <ele>475.5</ele>
        <time>2021-09-09T13:42:11Z</time>
      </trkpt>
      <trkpt lat="44.07406" lon="5.992">
        <ele>475.3</ele>
        <time>2021-09-09T13:42:12Z</time>
      </trkpt>
      <trkpt lat="44.07397" lon="5.9919">
        <ele>475.1</ele>
        <time>2021-09-09T13:42:14Z</time>
      </trkpt>
      <trkpt lat="44.07389" lon="5.99179">
        <ele>474.9</ele>
        <time>2021-09-09T13:42:16Z</time>
      </trkpt>
      <trkpt lat="44.0738" lon="5.99166">
        <ele>474.7</ele>
        <time>2021-09-09T13:42:18Z</time>
      </trkpt>
      <trkpt lat="44.07376" lon="5.99157">
        <ele>474.6</ele>
        <time>2021-09-09T13:42:19Z</time>
      </trkpt>
      <trkpt lat="44.07368" lon="5.99145">
        <ele>474.4</ele>
        <time>2021-09-09T13:42:21Z</time>
      </trkpt>
      <trkpt lat="44.07365" lon="5.99142">
        <ele>474.4</ele>
        <time>2021-09-09T13:42:22Z</time>
      </trkpt>
      <trkpt lat="44.07362" lon="5.99141">
        <ele>474.3</ele>
        <time>2021-09-09T13:42:23Z</time>
      </trkpt>
      <trkpt lat="44.07359" lon="5.99138">
        <ele>474.3</ele>
        <time>2021-09-09T13:42:24Z</time>
      </trkpt>
      <trkpt lat="44.07357" lon="5.99136">
        <ele>474.3</ele>
        <time>2021-09-09T13:42:25Z</time>
      </trkpt>
      <trkpt lat="44.07351" lon="5.99134">
        <ele>474.2</ele>
        <time>2021-09-09T13:42:27Z</time>
      </trkpt>
      <trkpt lat="44.07347" lon="5.99133">
        <ele>474.2</ele>
        <time>2021-09-09T13:42:28Z</time>
      </trkpt>
      <trkpt lat="44.07344" lon="5.99132">
        <ele>474.1</ele>
        <time>2021-09-09T13:42:29Z</time>
      </trkpt>
      <trkpt lat="44.07341" lon="5.99129">
        <ele>474.1</ele>
        <time>2021-09-09T13:42:31Z</time>
      </trkpt>
      <trkpt lat="44.07341" lon="5.99128">
        <ele>474.1</ele>
        <time>2021-09-09T13:42:32Z</time>
      </trkpt>
      <trkpt lat="44.07341" lon="5.99128">
        <ele>474.1</ele>
        <time>2021-09-09T13:42:34Z</time>
      </trkpt>
      <trkpt lat="44.0734" lon="5.99128">
        <ele>474.1</ele>
        <time>2021-09-09T13:42:35Z</time>
      </trkpt>
      <trkpt lat="44.0734" lon="5.99128">
        <ele>474.1</ele>
        <time>2021-09-09T13:42:37Z</time>
      </trkpt>
      <trkpt lat="44.07339" lon="5.99127">
        <ele>474.1</ele>
        <time>2021-09-09T13:42:38Z</time>
      </trkpt>
      <trkpt lat="44.07338" lon="5.99124">
        <ele>474.1</ele>
        <time>2021-09-09T13:42:40Z</time>
      </trkpt>
      <trkpt lat="44.07329" lon="5.99094">
        <ele>473.9</ele>
        <time>2021-09-09T13:42:41Z</time>
      </trkpt>
      <trkpt lat="44.07326" lon="5.99087">
        <ele>473.8</ele>
        <time>2021-09-09T13:42:42Z</time>
      </trkpt>
      <trkpt lat="44.07323" lon="5.99076">
        <ele>473.8</ele>
        <time>2021-09-09T13:42:44Z</time>
      </trkpt>
      <trkpt lat="44.0732" lon="5.9906">
        <ele>473.8</ele>
        <time>2021-09-09T13:42:45Z</time>
      </trkpt>
      <trkpt lat="44.07315" lon="5.99047">
        <ele>473.7</ele>
        <time>2021-09-09T13:42:46Z</time>
      </trkpt>
      <trkpt lat="44.07309" lon="5.99037">
        <ele>473.8</ele>
        <time>2021-09-09T13:42:48Z</time>
      </trkpt>
      <trkpt lat="44.07303" lon="5.9902">
        <ele>473.8</ele>
        <time>2021-09-09T13:42:50Z</time>
      </trkpt>
      <trkpt lat="44.07301" lon="5.99013">
        <ele>473.8</ele>
        <time>2021-09-09T13:42:51Z</time>
      </trkpt>
      <trkpt lat="44.07298" lon="5.99006">
        <ele>473.8</ele>
        <time>2021-09-09T13:42:52Z</time>
      </trkpt>
      <trkpt lat="44.07292" lon="5.98994">
        <ele>473.8</ele>
        <time>2021-09-09T13:42:54Z</time>
      </trkpt>
      <trkpt lat="44.07287" lon="5.98987">
        <ele>473.7</ele>
        <time>2021-09-09T13:42:56Z</time>
      </trkpt>
      <trkpt lat="44.07285" lon="5.98984">
        <ele>473.7</ele>
        <time>2021-09-09T13:42:57Z</time>
      </trkpt>
      <trkpt lat="44.07279" lon="5.98977">
        <ele>473.7</ele>
        <time>2021-09-09T13:42:59Z</time>
      </trkpt>
      <trkpt lat="44.07276" lon="5.98971">
        <ele>473.6</ele>
        <time>2021-09-09T13:43:01Z</time>
      </trkpt>
      <trkpt lat="44.07274" lon="5.98968">
        <ele>473.6</ele>
        <time>2021-09-09T13:43:02Z</time>
      </trkpt>
      <trkpt lat="44.07271" lon="5.98963">
        <ele>473.6</ele>
        <time>2021-09-09T13:43:04Z</time>
      </trkpt>
      <trkpt lat="44.07268" lon="5.98958">
        <ele>473.6</ele>
        <time>2021-09-09T13:43:05Z</time>
      </trkpt>
      <trkpt lat="44.07265" lon="5.9895">
        <ele>473.6</ele>
        <time>2021-09-09T13:43:06Z</time>
      </trkpt>
      <trkpt lat="44.07261" lon="5.98945">
        <ele>473.5</ele>
        <time>2021-09-09T13:43:07Z</time>
      </trkpt>
      <trkpt lat="44.07258" lon="5.9894">
        <ele>473.5</ele>
        <time>2021-09-09T13:43:08Z</time>
      </trkpt>
      <trkpt lat="44.07254" lon="5.98934">
        <ele>473.5</ele>
        <time>2021-09-09T13:43:10Z</time>
      </trkpt>
      <trkpt lat="44.07249" lon="5.98928">
        <ele>473.5</ele>
        <time>2021-09-09T13:43:11Z</time>
      </trkpt>
      <trkpt lat="44.07244" lon="5.98922">
        <ele>473.5</ele>
        <time>2021-09-09T13:43:13Z</time>
      </trkpt>
      <trkpt lat="44.07241" lon="5.98917">
        <ele>473.4</ele>
        <time>2021-09-09T13:43:14Z</time>
      </trkpt>
      <trkpt lat="44.07238" lon="5.98915">
        <ele>473.4</ele>
        <time>2021-09-09T13:43:15Z</time>
      </trkpt>
      <trkpt lat="44.07235" lon="5.98911">
        <ele>473.4</ele>
        <time>2021-09-09T13:43:16Z</time>
      </trkpt>
      <trkpt lat="44.07234" lon="5.98909">
        <ele>473.4</ele>
        <time>2021-09-09T13:43:17Z</time>
      </trkpt>
      <trkpt lat="44.07231" lon="5.98905">
        <ele>473.4</ele>
        <time>2021-09-09T13:43:19Z</time>
      </trkpt>
      <trkpt lat="44.07228" lon="5.98902">
        <ele>473.3</ele>
        <time>2021-09-09T13:43:20Z</time>
      </trkpt>
      <trkpt lat="44.07224" lon="5.98899">
        <ele>473.3</ele>
        <time>2021-09-09T13:43:21Z</time>
      </trkpt>
      <trkpt lat="44.07217" lon="5.98892">
        <ele>473.2</ele>
        <time>2021-09-09T13:43:22Z</time>
      </trkpt>
      <trkpt lat="44.07208" lon="5.98886">
        <ele>473.1</ele>
        <time>2021-09-09T13:43:24Z</time>
      </trkpt>
      <trkpt lat="44.07203" lon="5.98882">
        <ele>473</ele>
        <time>2021-09-09T13:43:25Z</time>
      </trkpt>
      <trkpt lat="44.07193" lon="5.98871">
        <ele>472.8</ele>
        <time>2021-09-09T13:43:27Z</time>
      </trkpt>
      <trkpt lat="44.07183" lon="5.98857">
        <ele>472.6</ele>
        <time>2021-09-09T13:43:29Z</time>
      </trkpt>
      <trkpt lat="44.07175" lon="5.98849">
        <ele>472.5</ele>
        <time>2021-09-09T13:43:30Z</time>
      </trkpt>
      <trkpt lat="44.07169" lon="5.98841">
        <ele>472.4</ele>
        <time>2021-09-09T13:43:31Z</time>
      </trkpt>
      <trkpt lat="44.07164" lon="5.98833">
        <ele>472.3</ele>
        <time>2021-09-09T13:43:32Z</time>
      </trkpt>
      <trkpt lat="44.07153" lon="5.98818">
        <ele>472</ele>
        <time>2021-09-09T13:43:34Z</time>
      </trkpt>
      <trkpt lat="44.07148" lon="5.9881">
        <ele>471.9</ele>
        <time>2021-09-09T13:43:35Z</time>
      </trkpt>
      <trkpt lat="44.07137" lon="5.98796">
        <ele>471.7</ele>
        <time>2021-09-09T13:43:37Z</time>
      </trkpt>
      <trkpt lat="44.07132" lon="5.98789">
        <ele>471.6</ele>
        <time>2021-09-09T13:43:38Z</time>
      </trkpt>
      <trkpt lat="44.07121" lon="5.98777">
        <ele>471.4</ele>
        <time>2021-09-09T13:43:40Z</time>
      </trkpt>
      <trkpt lat="44.07116" lon="5.98771">
        <ele>471.3</ele>
        <time>2021-09-09T13:43:41Z</time>
      </trkpt>
      <trkpt lat="44.07106" lon="5.98758">
        <ele>471.1</ele>
        <time>2021-09-09T13:43:43Z</time>
      </trkpt>
      <trkpt lat="44.07101" lon="5.9875">
        <ele>471</ele>
        <time>2021-09-09T13:43:44Z</time>
      </trkpt>
      <trkpt lat="44.07095" lon="5.98743">
        <ele>471</ele>
        <time>2021-09-09T13:43:45Z</time>
      </trkpt>
      <trkpt lat="44.07091" lon="5.98738">
        <ele>470.9</ele>
        <time>2021-09-09T13:43:46Z</time>
      </trkpt>
      <trkpt lat="44.07081" lon="5.98728">
        <ele>470.9</ele>
        <time>2021-09-09T13:43:48Z</time>
      </trkpt>
      <trkpt lat="44.07077" lon="5.98723">
        <ele>470.8</ele>
        <time>2021-09-09T13:43:49Z</time>
      </trkpt>
      <trkpt lat="44.07068" lon="5.98713">
        <ele>470.8</ele>
        <time>2021-09-09T13:43:51Z</time>
      </trkpt>
      <trkpt lat="44.07062" lon="5.98708">
        <ele>470.8</ele>
        <time>2021-09-09T13:43:52Z</time>
      </trkpt>
      <trkpt lat="44.07057" lon="5.98704">
        <ele>470.8</ele>
        <time>2021-09-09T13:43:53Z</time>
      </trkpt>
      <trkpt lat="44.07045" lon="5.98692">
        <ele>470.8</ele>
        <time>2021-09-09T13:43:55Z</time>
      </trkpt>
      <trkpt lat="44.0704" lon="5.98686">
        <ele>470.8</ele>
        <time>2021-09-09T13:43:56Z</time>
      </trkpt>
      <trkpt lat="44.07031" lon="5.98675">
        <ele>470.7</ele>
        <time>2021-09-09T13:43:58Z</time>
      </trkpt>
      <trkpt lat="44.07024" lon="5.98671">
        <ele>470.7</ele>
        <time>2021-09-09T13:44:00Z</time>
      </trkpt>
      <trkpt lat="44.07019" lon="5.9867">
        <ele>470.7</ele>
        <time>2021-09-09T13:44:02Z</time>
      </trkpt>
      <trkpt lat="44.07012" lon="5.98667">
        <ele>470.6</ele>
        <time>2021-09-09T13:44:04Z</time>
      </trkpt>
      <trkpt lat="44.07009" lon="5.98665">
        <ele>470.6</ele>
        <time>2021-09-09T13:44:05Z</time>
      </trkpt>
      <trkpt lat="44.07006" lon="5.98662">
        <ele>470.6</ele>
        <time>2021-09-09T13:44:06Z</time>
      </trkpt>
      <trkpt lat="44.07003" lon="5.98658">
        <ele>470.6</ele>
        <time>2021-09-09T13:44:07Z</time>
      </trkpt>
      <trkpt lat="44.06999" lon="5.98649">
        <ele>470.6</ele>
        <time>2021-09-09T13:44:09Z</time>
      </trkpt>
      <trkpt lat="44.06997" lon="5.98645">
        <ele>470.6</ele>
        <time>2021-09-09T13:44:10Z</time>
      </trkpt>
      <trkpt lat="44.06995" lon="5.98641">
        <ele>470.6</ele>
        <time>2021-09-09T13:44:11Z</time>
      </trkpt>
      <trkpt lat="44.06989" lon="5.98631">
        <ele>470.6</ele>
        <time>2021-09-09T13:44:13Z</time>
      </trkpt>
      <trkpt lat="44.06986" lon="5.98624">
        <ele>470.6</ele>
        <time>2021-09-09T13:44:14Z</time>
      </trkpt>
      <trkpt lat="44.06982" lon="5.98617">
        <ele>470.6</ele>
        <time>2021-09-09T13:44:15Z</time>
      </trkpt>
      <trkpt lat="44.06979" lon="5.98611">
        <ele>470.6</ele>
        <time>2021-09-09T13:44:16Z</time>
      </trkpt>
      <trkpt lat="44.06972" lon="5.98598">
        <ele>470.7</ele>
        <time>2021-09-09T13:44:18Z</time>
      </trkpt>
      <trkpt lat="44.06964" lon="5.98587">
        <ele>470.7</ele>
        <time>2021-09-09T13:44:20Z</time>
      </trkpt>
      <trkpt lat="44.06961" lon="5.98581">
        <ele>470.7</ele>
        <time>2021-09-09T13:44:21Z</time>
      </trkpt>
      <trkpt lat="44.06954" lon="5.98569">
        <ele>470.7</ele>
        <time>2021-09-09T13:44:23Z</time>
      </trkpt>
      <trkpt lat="44.06948" lon="5.98557">
        <ele>470.7</ele>
        <time>2021-09-09T13:44:25Z</time>
      </trkpt>
      <trkpt lat="44.06944" lon="5.98549">
        <ele>470.7</ele>
        <time>2021-09-09T13:44:27Z</time>
      </trkpt>
      <trkpt lat="44.0694" lon="5.98542">
        <ele>470.6</ele>
        <time>2021-09-09T13:44:29Z</time>
      </trkpt>
      <trkpt lat="44.06933" lon="5.98532">
        <ele>470.6</ele>
        <time>2021-09-09T13:44:31Z</time>
      </trkpt>
      <trkpt lat="44.0693" lon="5.98525">
        <ele>470.5</ele>
        <time>2021-09-09T13:44:32Z</time>
      </trkpt>
      <trkpt lat="44.06926" lon="5.98518">
        <ele>470.5</ele>
        <time>2021-09-09T13:44:33Z</time>
      </trkpt>
      <trkpt lat="44.06918" lon="5.98507">
        <ele>470.5</ele>
        <time>2021-09-09T13:44:35Z</time>
      </trkpt>
      <trkpt lat="44.06911" lon="5.98497">
        <ele>470.5</ele>
        <time>2021-09-09T13:44:37Z</time>
      </trkpt>
      <trkpt lat="44.06908" lon="5.98492">
        <ele>470.5</ele>
        <time>2021-09-09T13:44:38Z</time>
      </trkpt>
      <trkpt lat="44.06904" lon="5.98487">
        <ele>470.4</ele>
        <time>2021-09-09T13:44:39Z</time>
      </trkpt>
      <trkpt lat="44.06899" lon="5.98478">
        <ele>470.3</ele>
        <time>2021-09-09T13:44:41Z</time>
      </trkpt>
      <trkpt lat="44.06897" lon="5.98474">
        <ele>470.3</ele>
        <time>2021-09-09T13:44:42Z</time>
      </trkpt>
      <trkpt lat="44.0689" lon="5.98462">
        <ele>470.2</ele>
        <time>2021-09-09T13:44:44Z</time>
      </trkpt>
      <trkpt lat="44.06883" lon="5.98451">
        <ele>470.1</ele>
        <time>2021-09-09T13:44:46Z</time>
      </trkpt>
      <trkpt lat="44.06879" lon="5.98445">
        <ele>470.1</ele>
        <time>2021-09-09T13:44:47Z</time>
      </trkpt>
      <trkpt lat="44.06872" lon="5.98433">
        <ele>470</ele>
        <time>2021-09-09T13:44:49Z</time>
      </trkpt>
      <trkpt lat="44.06869" lon="5.98428">
        <ele>470</ele>
        <time>2021-09-09T13:44:50Z</time>
      </trkpt>
      <trkpt lat="44.06863" lon="5.98419">
        <ele>469.9</ele>
        <time>2021-09-09T13:44:52Z</time>
      </trkpt>
      <trkpt lat="44.06859" lon="5.9841">
        <ele>469.9</ele>
        <time>2021-09-09T13:44:54Z</time>
      </trkpt>
      <trkpt lat="44.06851" lon="5.98399">
        <ele>469.9</ele>
        <time>2021-09-09T13:44:56Z</time>
      </trkpt>
      <trkpt lat="44.06843" lon="5.9839">
        <ele>469.8</ele>
        <time>2021-09-09T13:44:58Z</time>
      </trkpt>
      <trkpt lat="44.06839" lon="5.98382">
        <ele>469.8</ele>
        <time>2021-09-09T13:45:00Z</time>
      </trkpt>
      <trkpt lat="44.06837" lon="5.98379">
        <ele>469.8</ele>
        <time>2021-09-09T13:45:01Z</time>
      </trkpt>
      <trkpt lat="44.06835" lon="5.98376">
        <ele>469.8</ele>
        <time>2021-09-09T13:45:02Z</time>
      </trkpt>
      <trkpt lat="44.06832" lon="5.9837">
        <ele>469.7</ele>
        <time>2021-09-09T13:45:03Z</time>
      </trkpt>
      <trkpt lat="44.06827" lon="5.98362">
        <ele>469.7</ele>
        <time>2021-09-09T13:45:05Z</time>
      </trkpt>
      <trkpt lat="44.06822" lon="5.98355">
        <ele>469.6</ele>
        <time>2021-09-09T13:45:06Z</time>
      </trkpt>
      <trkpt lat="44.06818" lon="5.9835">
        <ele>469.6</ele>
        <time>2021-09-09T13:45:08Z</time>
      </trkpt>
      <trkpt lat="44.06815" lon="5.98346">
        <ele>469.6</ele>
        <time>2021-09-09T13:45:09Z</time>
      </trkpt>
      <trkpt lat="44.06813" lon="5.98338">
        <ele>469.5</ele>
        <time>2021-09-09T13:45:11Z</time>
      </trkpt>
      <trkpt lat="44.06809" lon="5.98334">
        <ele>469.5</ele>
        <time>2021-09-09T13:45:12Z</time>
      </trkpt>
      <trkpt lat="44.06806" lon="5.9833">
        <ele>469.5</ele>
        <time>2021-09-09T13:45:13Z</time>
      </trkpt>
      <trkpt lat="44.06803" lon="5.98325">
        <ele>469.4</ele>
        <time>2021-09-09T13:45:14Z</time>
      </trkpt>
      <trkpt lat="44.06801" lon="5.98322">
        <ele>469.4</ele>
        <time>2021-09-09T13:45:15Z</time>
      </trkpt>
      <trkpt lat="44.06798" lon="5.98319">
        <ele>469.4</ele>
        <time>2021-09-09T13:45:17Z</time>
      </trkpt>
      <trkpt lat="44.06796" lon="5.98318">
        <ele>469.4</ele>
        <time>2021-09-09T13:45:18Z</time>
      </trkpt>
      <trkpt lat="44.06794" lon="5.98316">
        <ele>469.4</ele>
        <time>2021-09-09T13:45:20Z</time>
      </trkpt>
      <trkpt lat="44.06791" lon="5.98313">
        <ele>469.3</ele>
        <time>2021-09-09T13:45:22Z</time>
      </trkpt>
      <trkpt lat="44.0679" lon="5.98312">
        <ele>469.3</ele>
        <time>2021-09-09T13:45:23Z</time>
      </trkpt>
      <trkpt lat="44.06788" lon="5.9831">
        <ele>469.3</ele>
        <time>2021-09-09T13:45:24Z</time>
      </trkpt>
      <trkpt lat="44.06785" lon="5.98307">
        <ele>469.3</ele>
        <time>2021-09-09T13:45:26Z</time>
      </trkpt>
      <trkpt lat="44.06784" lon="5.98306">
        <ele>469.3</ele>
        <time>2021-09-09T13:45:27Z</time>
      </trkpt>
      <trkpt lat="44.06782" lon="5.98303">
        <ele>469.2</ele>
        <time>2021-09-09T13:45:28Z</time>
      </trkpt>
      <trkpt lat="44.0678" lon="5.98299">
        <ele>469.2</ele>
        <time>2021-09-09T13:45:30Z</time>
      </trkpt>
      <trkpt lat="44.06778" lon="5.98297">
        <ele>469.2</ele>
        <time>2021-09-09T13:45:31Z</time>
      </trkpt>
      <trkpt lat="44.06777" lon="5.98292">
        <ele>469.1</ele>
        <time>2021-09-09T13:45:33Z</time>
      </trkpt>
      <trkpt lat="44.06774" lon="5.98287">
        <ele>469.1</ele>
        <time>2021-09-09T13:45:35Z</time>
      </trkpt>
      <trkpt lat="44.06774" lon="5.98281">
        <ele>469.1</ele>
        <time>2021-09-09T13:45:36Z</time>
      </trkpt>
      <trkpt lat="44.06774" lon="5.98279">
        <ele>469.1</ele>
        <time>2021-09-09T13:45:37Z</time>
      </trkpt>
      <trkpt lat="44.06771" lon="5.98276">
        <ele>469</ele>
        <time>2021-09-09T13:45:39Z</time>
      </trkpt>
      <trkpt lat="44.06771" lon="5.98278">
        <ele>469</ele>
        <time>2021-09-09T13:45:41Z</time>
      </trkpt>
      <trkpt lat="44.06771" lon="5.98284">
        <ele>469</ele>
        <time>2021-09-09T13:45:43Z</time>
      </trkpt>
      <trkpt lat="44.06771" lon="5.98285">
        <ele>469</ele>
        <time>2021-09-09T13:45:44Z</time>
      </trkpt>
      <trkpt lat="44.0677" lon="5.98287">
        <ele>469</ele>
        <time>2021-09-09T13:45:46Z</time>
      </trkpt>
      <trkpt lat="44.0677" lon="5.98288">
        <ele>469</ele>
        <time>2021-09-09T13:45:47Z</time>
      </trkpt>
      <trkpt lat="44.0677" lon="5.98289">
        <ele>469</ele>
        <time>2021-09-09T13:45:48Z</time>
      </trkpt>
      <trkpt lat="44.0677" lon="5.98289">
        <ele>469</ele>
        <time>2021-09-09T13:45:49Z</time>
      </trkpt>
      <trkpt lat="44.06761" lon="5.98268">
        <ele>468.8</ele>
        <time>2021-09-09T13:47:10Z</time>
      </trkpt>
      <trkpt lat="44.06761" lon="5.98263">
        <ele>468.8</ele>
        <time>2021-09-09T13:47:11Z</time>
      </trkpt>
      <trkpt lat="44.06758" lon="5.98256">
        <ele>468.8</ele>
        <time>2021-09-09T13:47:12Z</time>
      </trkpt>
      <trkpt lat="44.06749" lon="5.98237">
        <ele>468.5</ele>
        <time>2021-09-09T13:47:14Z</time>
      </trkpt>
      <trkpt lat="44.06747" lon="5.98231">
        <ele>468.5</ele>
        <time>2021-09-09T13:47:15Z</time>
      </trkpt>
      <trkpt lat="44.06744" lon="5.98223">
        <ele>468.3</ele>
        <time>2021-09-09T13:47:16Z</time>
      </trkpt>
      <trkpt lat="44.06742" lon="5.98215">
        <ele>468.2</ele>
        <time>2021-09-09T13:47:18Z</time>
      </trkpt>
      <trkpt lat="44.06739" lon="5.98208">
        <ele>468.1</ele>
        <time>2021-09-09T13:47:19Z</time>
      </trkpt>
      <trkpt lat="44.06737" lon="5.98194">
        <ele>467.7</ele>
        <time>2021-09-09T13:47:21Z</time>
      </trkpt>
      <trkpt lat="44.06736" lon="5.98181">
        <ele>467.3</ele>
        <time>2021-09-09T13:47:23Z</time>
      </trkpt>
      <trkpt lat="44.06736" lon="5.98175">
        <ele>467.1</ele>
        <time>2021-09-09T13:47:24Z</time>
      </trkpt>
      <trkpt lat="44.06735" lon="5.98163">
        <ele>466.7</ele>
        <time>2021-09-09T13:47:26Z</time>
      </trkpt>
      <trkpt lat="44.06735" lon="5.9815">
        <ele>466.2</ele>
        <time>2021-09-09T13:47:28Z</time>
      </trkpt>
      <trkpt lat="44.06736" lon="5.98142">
        <ele>465.9</ele>
        <time>2021-09-09T13:47:29Z</time>
      </trkpt>
      <trkpt lat="44.06737" lon="5.98133">
        <ele>465.6</ele>
        <time>2021-09-09T13:47:30Z</time>
      </trkpt>
      <trkpt lat="44.06741" lon="5.98115">
        <ele>464.8</ele>
        <time>2021-09-09T13:47:32Z</time>
      </trkpt>
      <trkpt lat="44.06743" lon="5.98105">
        <ele>464.4</ele>
        <time>2021-09-09T13:47:33Z</time>
      </trkpt>
      <trkpt lat="44.06745" lon="5.98095">
        <ele>464</ele>
        <time>2021-09-09T13:47:34Z</time>
      </trkpt>
      <trkpt lat="44.06748" lon="5.98084">
        <ele>463.6</ele>
        <time>2021-09-09T13:47:35Z</time>
      </trkpt>
      <trkpt lat="44.06751" lon="5.98073">
        <ele>463.2</ele>
        <time>2021-09-09T13:47:36Z</time>
      </trkpt>
      <trkpt lat="44.06756" lon="5.98052">
        <ele>462.4</ele>
        <time>2021-09-09T13:47:38Z</time>
      </trkpt>
      <trkpt lat="44.06759" lon="5.98041">
        <ele>462</ele>
        <time>2021-09-09T13:47:39Z</time>
      </trkpt>
      <trkpt lat="44.06761" lon="5.9803">
        <ele>461.7</ele>
        <time>2021-09-09T13:47:40Z</time>
      </trkpt>
      <trkpt lat="44.06765" lon="5.98007">
        <ele>461.2</ele>
        <time>2021-09-09T13:47:42Z</time>
      </trkpt>
      <trkpt lat="44.06765" lon="5.97984">
        <ele>460.9</ele>
        <time>2021-09-09T13:47:44Z</time>
      </trkpt>
      <trkpt lat="44.06764" lon="5.97973">
        <ele>460.8</ele>
        <time>2021-09-09T13:47:45Z</time>
      </trkpt>
      <trkpt lat="44.06759" lon="5.97951">
        <ele>460.7</ele>
        <time>2021-09-09T13:47:47Z</time>
      </trkpt>
      <trkpt lat="44.06756" lon="5.97941">
        <ele>460.7</ele>
        <time>2021-09-09T13:47:48Z</time>
      </trkpt>
      <trkpt lat="44.06752" lon="5.97931">
        <ele>460.8</ele>
        <time>2021-09-09T13:47:49Z</time>
      </trkpt>
      <trkpt lat="44.06747" lon="5.97921">
        <ele>460.8</ele>
        <time>2021-09-09T13:47:50Z</time>
      </trkpt>
      <trkpt lat="44.06736" lon="5.97904">
        <ele>461</ele>
        <time>2021-09-09T13:47:52Z</time>
      </trkpt>
      <trkpt lat="44.06725" lon="5.9789">
        <ele>461.3</ele>
        <time>2021-09-09T13:47:54Z</time>
      </trkpt>
      <trkpt lat="44.06714" lon="5.9788">
        <ele>461.7</ele>
        <time>2021-09-09T13:47:56Z</time>
      </trkpt>
      <trkpt lat="44.06703" lon="5.97869">
        <ele>462.2</ele>
        <time>2021-09-09T13:47:58Z</time>
      </trkpt>
      <trkpt lat="44.06697" lon="5.97865">
        <ele>462.4</ele>
        <time>2021-09-09T13:47:59Z</time>
      </trkpt>
      <trkpt lat="44.06691" lon="5.97864">
        <ele>462.6</ele>
        <time>2021-09-09T13:48:00Z</time>
      </trkpt>
      <trkpt lat="44.06681" lon="5.97865">
        <ele>463.1</ele>
        <time>2021-09-09T13:48:02Z</time>
      </trkpt>
      <trkpt lat="44.06676" lon="5.97866">
        <ele>463.3</ele>
        <time>2021-09-09T13:48:03Z</time>
      </trkpt>
      <trkpt lat="44.0667" lon="5.97869">
        <ele>463.6</ele>
        <time>2021-09-09T13:48:05Z</time>
      </trkpt>
      <trkpt lat="44.06663" lon="5.97872">
        <ele>463.9</ele>
        <time>2021-09-09T13:48:07Z</time>
      </trkpt>
      <trkpt lat="44.06656" lon="5.97873">
        <ele>464.2</ele>
        <time>2021-09-09T13:48:09Z</time>
      </trkpt>
      <trkpt lat="44.06651" lon="5.97873">
        <ele>464.4</ele>
        <time>2021-09-09T13:48:10Z</time>
      </trkpt>
      <trkpt lat="44.06648" lon="5.97876">
        <ele>464.6</ele>
        <time>2021-09-09T13:48:12Z</time>
      </trkpt>
      <trkpt lat="44.06646" lon="5.97879">
        <ele>464.8</ele>
        <time>2021-09-09T13:48:13Z</time>
      </trkpt>
      <trkpt lat="44.06641" lon="5.97885">
        <ele>465.1</ele>
        <time>2021-09-09T13:48:14Z</time>
      </trkpt>
      <trkpt lat="44.06637" lon="5.9789">
        <ele>465.3</ele>
        <time>2021-09-09T13:48:16Z</time>
      </trkpt>
      <trkpt lat="44.06633" lon="5.97892">
        <ele>465.6</ele>
        <time>2021-09-09T13:48:18Z</time>
      </trkpt>
      <trkpt lat="44.06628" lon="5.97894">
        <ele>465.8</ele>
        <time>2021-09-09T13:48:19Z</time>
      </trkpt>
      <trkpt lat="44.06624" lon="5.97898">
        <ele>466</ele>
        <time>2021-09-09T13:48:21Z</time>
      </trkpt>
      <trkpt lat="44.06623" lon="5.979">
        <ele>466.1</ele>
        <time>2021-09-09T13:48:22Z</time>
      </trkpt>
      <trkpt lat="44.06621" lon="5.97901">
        <ele>466.2</ele>
        <time>2021-09-09T13:48:23Z</time>
      </trkpt>
      <trkpt lat="44.06617" lon="5.97902">
        <ele>466.4</ele>
        <time>2021-09-09T13:48:25Z</time>
      </trkpt>
      <trkpt lat="44.06616" lon="5.97902">
        <ele>466.4</ele>
        <time>2021-09-09T13:48:26Z</time>
      </trkpt>
      <trkpt lat="44.06615" lon="5.979">
        <ele>466.5</ele>
        <time>2021-09-09T13:48:28Z</time>
      </trkpt>
      <trkpt lat="44.06612" lon="5.97902">
        <ele>466.6</ele>
        <time>2021-09-09T13:48:29Z</time>
      </trkpt>
      <trkpt lat="44.06612" lon="5.97904">
        <ele>466.7</ele>
        <time>2021-09-09T13:48:31Z</time>
      </trkpt>
      <trkpt lat="44.0661" lon="5.97906">
        <ele>466.8</ele>
        <time>2021-09-09T13:48:32Z</time>
      </trkpt>
      <trkpt lat="44.06608" lon="5.97906">
        <ele>466.9</ele>
        <time>2021-09-09T13:48:34Z</time>
      </trkpt>
      <trkpt lat="44.06605" lon="5.97905">
        <ele>467</ele>
        <time>2021-09-09T13:48:35Z</time>
      </trkpt>
      <trkpt lat="44.06542" lon="5.97879">
        <ele>469.6</ele>
        <time>2021-09-09T13:48:55Z</time>
      </trkpt>
      <trkpt lat="44.06537" lon="5.97873">
        <ele>469.8</ele>
        <time>2021-09-09T13:48:57Z</time>
      </trkpt>
      <trkpt lat="44.06533" lon="5.9787">
        <ele>470</ele>
        <time>2021-09-09T13:48:58Z</time>
      </trkpt>
      <trkpt lat="44.0653" lon="5.97868">
        <ele>470.1</ele>
        <time>2021-09-09T13:48:59Z</time>
      </trkpt>
      <trkpt lat="44.06525" lon="5.97864">
        <ele>470.2</ele>
        <time>2021-09-09T13:49:00Z</time>
      </trkpt>
      <trkpt lat="44.06522" lon="5.97863">
        <ele>470.3</ele>
        <time>2021-09-09T13:49:02Z</time>
      </trkpt>
      <trkpt lat="44.06518" lon="5.97861">
        <ele>470.4</ele>
        <time>2021-09-09T13:49:03Z</time>
      </trkpt>
      <trkpt lat="44.06515" lon="5.9786">
        <ele>470.5</ele>
        <time>2021-09-09T13:49:04Z</time>
      </trkpt>
      <trkpt lat="44.06513" lon="5.9786">
        <ele>470.5</ele>
        <time>2021-09-09T13:49:05Z</time>
      </trkpt>
      <trkpt lat="44.0651" lon="5.97859">
        <ele>470.6</ele>
        <time>2021-09-09T13:49:06Z</time>
      </trkpt>
      <trkpt lat="44.06507" lon="5.97858">
        <ele>470.6</ele>
        <time>2021-09-09T13:49:07Z</time>
      </trkpt>
      <trkpt lat="44.06503" lon="5.97858">
        <ele>470.7</ele>
        <time>2021-09-09T13:49:08Z</time>
      </trkpt>
      <trkpt lat="44.065" lon="5.97859">
        <ele>470.7</ele>
        <time>2021-09-09T13:49:09Z</time>
      </trkpt>
      <trkpt lat="44.06496" lon="5.97859">
        <ele>470.7</ele>
        <time>2021-09-09T13:49:11Z</time>
      </trkpt>
      <trkpt lat="44.06493" lon="5.97859">
        <ele>470.8</ele>
        <time>2021-09-09T13:49:12Z</time>
      </trkpt>
      <trkpt lat="44.0649" lon="5.97858">
        <ele>470.8</ele>
        <time>2021-09-09T13:49:13Z</time>
      </trkpt>
      <trkpt lat="44.06485" lon="5.97856">
        <ele>470.9</ele>
        <time>2021-09-09T13:49:15Z</time>
      </trkpt>
      <trkpt lat="44.0648" lon="5.97855">
        <ele>470.9</ele>
        <time>2021-09-09T13:49:16Z</time>
      </trkpt>
      <trkpt lat="44.06477" lon="5.97856">
        <ele>470.8</ele>
        <time>2021-09-09T13:49:17Z</time>
      </trkpt>
      <trkpt lat="44.06473" lon="5.97857">
        <ele>470.8</ele>
        <time>2021-09-09T13:49:19Z</time>
      </trkpt>
      <trkpt lat="44.06469" lon="5.97856">
        <ele>470.8</ele>
        <time>2021-09-09T13:49:20Z</time>
      </trkpt>
      <trkpt lat="44.06468" lon="5.97856">
        <ele>470.9</ele>
        <time>2021-09-09T13:49:21Z</time>
      </trkpt>
      <trkpt lat="44.06465" lon="5.97857">
        <ele>470.9</ele>
        <time>2021-09-09T13:49:23Z</time>
      </trkpt>
      <trkpt lat="44.06459" lon="5.97855">
        <ele>470.9</ele>
        <time>2021-09-09T13:49:25Z</time>
      </trkpt>
      <trkpt lat="44.06455" lon="5.97851">
        <ele>471</ele>
        <time>2021-09-09T13:49:26Z</time>
      </trkpt>
      <trkpt lat="44.06449" lon="5.97845">
        <ele>471.1</ele>
        <time>2021-09-09T13:49:27Z</time>
      </trkpt>
      <trkpt lat="44.06446" lon="5.97842">
        <ele>471.1</ele>
        <time>2021-09-09T13:49:28Z</time>
      </trkpt>
      <trkpt lat="44.06443" lon="5.97837">
        <ele>471.1</ele>
        <time>2021-09-09T13:49:30Z</time>
      </trkpt>
      <trkpt lat="44.06437" lon="5.9783">
        <ele>471.1</ele>
        <time>2021-09-09T13:49:31Z</time>
      </trkpt>
      <trkpt lat="44.06432" lon="5.97823">
        <ele>471</ele>
        <time>2021-09-09T13:49:33Z</time>
      </trkpt>
      <trkpt lat="44.06426" lon="5.97817">
        <ele>471</ele>
        <time>2021-09-09T13:49:35Z</time>
      </trkpt>
      <trkpt lat="44.06421" lon="5.97816">
        <ele>471</ele>
        <time>2021-09-09T13:49:36Z</time>
      </trkpt>
      <trkpt lat="44.0641" lon="5.97812">
        <ele>470.9</ele>
        <time>2021-09-09T13:49:38Z</time>
      </trkpt>
      <trkpt lat="44.06399" lon="5.97805">
        <ele>470.8</ele>
        <time>2021-09-09T13:49:40Z</time>
      </trkpt>
      <trkpt lat="44.06394" lon="5.97801">
        <ele>470.8</ele>
        <time>2021-09-09T13:49:41Z</time>
      </trkpt>
      <trkpt lat="44.06389" lon="5.97798">
        <ele>470.8</ele>
        <time>2021-09-09T13:49:42Z</time>
      </trkpt>
      <trkpt lat="44.06379" lon="5.97793">
        <ele>470.7</ele>
        <time>2021-09-09T13:49:44Z</time>
      </trkpt>
      <trkpt lat="44.06374" lon="5.9779">
        <ele>470.6</ele>
        <time>2021-09-09T13:49:45Z</time>
      </trkpt>
      <trkpt lat="44.06369" lon="5.97787">
        <ele>470.6</ele>
        <time>2021-09-09T13:49:46Z</time>
      </trkpt>
      <trkpt lat="44.06359" lon="5.97781">
        <ele>470.4</ele>
        <time>2021-09-09T13:49:48Z</time>
      </trkpt>
      <trkpt lat="44.06349" lon="5.97774">
        <ele>470.2</ele>
        <time>2021-09-09T13:49:50Z</time>
      </trkpt>
      <trkpt lat="44.06343" lon="5.9777">
        <ele>470</ele>
        <time>2021-09-09T13:49:51Z</time>
      </trkpt>
      <trkpt lat="44.06332" lon="5.97761">
        <ele>469.8</ele>
        <time>2021-09-09T13:49:53Z</time>
      </trkpt>
      <trkpt lat="44.06323" lon="5.97754">
        <ele>469.6</ele>
        <time>2021-09-09T13:49:55Z</time>
      </trkpt>
      <trkpt lat="44.0632" lon="5.97752">
        <ele>469.6</ele>
        <time>2021-09-09T13:49:56Z</time>
      </trkpt>
      <trkpt lat="44.06317" lon="5.9775">
        <ele>469.5</ele>
        <time>2021-09-09T13:49:57Z</time>
      </trkpt>
      <trkpt lat="44.0631" lon="5.97747">
        <ele>469.4</ele>
        <time>2021-09-09T13:49:59Z</time>
      </trkpt>
      <trkpt lat="44.06303" lon="5.97742">
        <ele>469.2</ele>
        <time>2021-09-09T13:50:01Z</time>
      </trkpt>
      <trkpt lat="44.06302" lon="5.9774">
        <ele>469.2</ele>
        <time>2021-09-09T13:50:02Z</time>
      </trkpt>
      <trkpt lat="44.06299" lon="5.97733">
        <ele>469.1</ele>
        <time>2021-09-09T13:50:04Z</time>
      </trkpt>
      <trkpt lat="44.06298" lon="5.97734">
        <ele>469.1</ele>
        <time>2021-09-09T13:50:05Z</time>
      </trkpt>
      <trkpt lat="44.06298" lon="5.97731">
        <ele>469.1</ele>
        <time>2021-09-09T13:50:06Z</time>
      </trkpt>
      <trkpt lat="44.063" lon="5.97725">
        <ele>469</ele>
        <time>2021-09-09T13:50:08Z</time>
      </trkpt>
      <trkpt lat="44.06302" lon="5.97722">
        <ele>469</ele>
        <time>2021-09-09T13:50:09Z</time>
      </trkpt>
      <trkpt lat="44.06301" lon="5.9772">
        <ele>469</ele>
        <time>2021-09-09T13:50:10Z</time>
      </trkpt>
      <trkpt lat="44.06301" lon="5.97719">
        <ele>469</ele>
        <time>2021-09-09T13:50:12Z</time>
      </trkpt>
      <trkpt lat="44.06295" lon="5.97721">
        <ele>469</ele>
        <time>2021-09-09T13:50:14Z</time>
      </trkpt>
      <trkpt lat="44.06288" lon="5.97724">
        <ele>468.9</ele>
        <time>2021-09-09T13:50:15Z</time>
      </trkpt>
      <trkpt lat="44.06284" lon="5.97726">
        <ele>468.9</ele>
        <time>2021-09-09T13:50:17Z</time>
      </trkpt>
      <trkpt lat="44.06281" lon="5.97726">
        <ele>468.8</ele>
        <time>2021-09-09T13:50:18Z</time>
      </trkpt>
      <trkpt lat="44.06278" lon="5.97725">
        <ele>468.8</ele>
        <time>2021-09-09T13:50:19Z</time>
      </trkpt>
      <trkpt lat="44.06273" lon="5.97722">
        <ele>468.7</ele>
        <time>2021-09-09T13:50:20Z</time>
      </trkpt>
      <trkpt lat="44.06269" lon="5.97719">
        <ele>468.7</ele>
        <time>2021-09-09T13:50:21Z</time>
      </trkpt>
      <trkpt lat="44.06262" lon="5.97712">
        <ele>468.6</ele>
        <time>2021-09-09T13:50:23Z</time>
      </trkpt>
      <trkpt lat="44.06258" lon="5.97708">
        <ele>468.5</ele>
        <time>2021-09-09T13:50:24Z</time>
      </trkpt>
      <trkpt lat="44.06254" lon="5.97703">
        <ele>468.4</ele>
        <time>2021-09-09T13:50:25Z</time>
      </trkpt>
      <trkpt lat="44.06246" lon="5.97694">
        <ele>468.3</ele>
        <time>2021-09-09T13:50:27Z</time>
      </trkpt>
      <trkpt lat="44.06242" lon="5.97689">
        <ele>468.2</ele>
        <time>2021-09-09T13:50:28Z</time>
      </trkpt>
      <trkpt lat="44.06234" lon="5.97679">
        <ele>468</ele>
        <time>2021-09-09T13:50:30Z</time>
      </trkpt>
      <trkpt lat="44.06226" lon="5.97667">
        <ele>467.8</ele>
        <time>2021-09-09T13:50:32Z</time>
      </trkpt>
      <trkpt lat="44.06217" lon="5.97655">
        <ele>467.6</ele>
        <time>2021-09-09T13:50:34Z</time>
      </trkpt>
      <trkpt lat="44.06209" lon="5.97646">
        <ele>467.4</ele>
        <time>2021-09-09T13:50:36Z</time>
      </trkpt>
      <trkpt lat="44.06201" lon="5.97636">
        <ele>467.2</ele>
        <time>2021-09-09T13:50:38Z</time>
      </trkpt>
      <trkpt lat="44.06196" lon="5.9763">
        <ele>467</ele>
        <time>2021-09-09T13:50:39Z</time>
      </trkpt>
      <trkpt lat="44.06191" lon="5.97624">
        <ele>466.9</ele>
        <time>2021-09-09T13:50:40Z</time>
      </trkpt>
      <trkpt lat="44.06186" lon="5.97617">
        <ele>466.8</ele>
        <time>2021-09-09T13:50:41Z</time>
      </trkpt>
      <trkpt lat="44.06178" lon="5.97604">
        <ele>466.6</ele>
        <time>2021-09-09T13:50:43Z</time>
      </trkpt>
      <trkpt lat="44.0617" lon="5.97592">
        <ele>466.2</ele>
        <time>2021-09-09T13:50:45Z</time>
      </trkpt>
      <trkpt lat="44.06166" lon="5.97587">
        <ele>466.1</ele>
        <time>2021-09-09T13:50:46Z</time>
      </trkpt>
      <trkpt lat="44.06163" lon="5.97582">
        <ele>465.9</ele>
        <time>2021-09-09T13:50:47Z</time>
      </trkpt>
      <trkpt lat="44.06155" lon="5.9757">
        <ele>465.6</ele>
        <time>2021-09-09T13:50:49Z</time>
      </trkpt>
      <trkpt lat="44.06151" lon="5.97564">
        <ele>465.6</ele>
        <time>2021-09-09T13:50:50Z</time>
      </trkpt>
      <trkpt lat="44.06147" lon="5.97558">
        <ele>465.5</ele>
        <time>2021-09-09T13:50:51Z</time>
      </trkpt>
      <trkpt lat="44.0614" lon="5.97547">
        <ele>465.4</ele>
        <time>2021-09-09T13:50:53Z</time>
      </trkpt>
      <trkpt lat="44.06137" lon="5.97541">
        <ele>465.3</ele>
        <time>2021-09-09T13:50:54Z</time>
      </trkpt>
      <trkpt lat="44.06128" lon="5.97531">
        <ele>465.1</ele>
        <time>2021-09-09T13:50:56Z</time>
      </trkpt>
      <trkpt lat="44.06119" lon="5.9752">
        <ele>464.9</ele>
        <time>2021-09-09T13:50:58Z</time>
      </trkpt>
      <trkpt lat="44.06114" lon="5.97515">
        <ele>464.9</ele>
        <time>2021-09-09T13:50:59Z</time>
      </trkpt>
      <trkpt lat="44.0611" lon="5.9751">
        <ele>464.8</ele>
        <time>2021-09-09T13:51:00Z</time>
      </trkpt>
      <trkpt lat="44.06105" lon="5.97505">
        <ele>464.7</ele>
        <time>2021-09-09T13:51:01Z</time>
      </trkpt>
      <trkpt lat="44.06095" lon="5.97494">
        <ele>464.5</ele>
        <time>2021-09-09T13:51:03Z</time>
      </trkpt>
      <trkpt lat="44.06085" lon="5.97484">
        <ele>464.4</ele>
        <time>2021-09-09T13:51:05Z</time>
      </trkpt>
      <trkpt lat="44.06074" lon="5.97475">
        <ele>464.2</ele>
        <time>2021-09-09T13:51:07Z</time>
      </trkpt>
      <trkpt lat="44.06068" lon="5.9747">
        <ele>464.2</ele>
        <time>2021-09-09T13:51:08Z</time>
      </trkpt>
      <trkpt lat="44.06056" lon="5.97457">
        <ele>464</ele>
        <time>2021-09-09T13:51:10Z</time>
      </trkpt>
      <trkpt lat="44.06051" lon="5.97451">
        <ele>463.9</ele>
        <time>2021-09-09T13:51:11Z</time>
      </trkpt>
      <trkpt lat="44.06046" lon="5.97445">
        <ele>463.8</ele>
        <time>2021-09-09T13:51:12Z</time>
      </trkpt>
      <trkpt lat="44.06036" lon="5.97432">
        <ele>463.6</ele>
        <time>2021-09-09T13:51:14Z</time>
      </trkpt>
      <trkpt lat="44.06026" lon="5.97419">
        <ele>463.4</ele>
        <time>2021-09-09T13:51:16Z</time>
      </trkpt>
      <trkpt lat="44.06014" lon="5.97407">
        <ele>463.3</ele>
        <time>2021-09-09T13:51:18Z</time>
      </trkpt>
      <trkpt lat="44.06008" lon="5.97401">
        <ele>463.2</ele>
        <time>2021-09-09T13:51:19Z</time>
      </trkpt>
      <trkpt lat="44.06002" lon="5.97393">
        <ele>463.1</ele>
        <time>2021-09-09T13:51:20Z</time>
      </trkpt>
      <trkpt lat="44.05993" lon="5.97376">
        <ele>463</ele>
        <time>2021-09-09T13:51:22Z</time>
      </trkpt>
      <trkpt lat="44.05982" lon="5.97362">
        <ele>462.8</ele>
        <time>2021-09-09T13:51:24Z</time>
      </trkpt>
      <trkpt lat="44.05977" lon="5.97356">
        <ele>462.7</ele>
        <time>2021-09-09T13:51:25Z</time>
      </trkpt>
      <trkpt lat="44.05973" lon="5.9735">
        <ele>462.7</ele>
        <time>2021-09-09T13:51:26Z</time>
      </trkpt>
      <trkpt lat="44.05969" lon="5.97344">
        <ele>462.6</ele>
        <time>2021-09-09T13:51:27Z</time>
      </trkpt>
      <trkpt lat="44.0596" lon="5.97331">
        <ele>462.5</ele>
        <time>2021-09-09T13:51:29Z</time>
      </trkpt>
      <trkpt lat="44.05955" lon="5.97324">
        <ele>462.4</ele>
        <time>2021-09-09T13:51:30Z</time>
      </trkpt>
      <trkpt lat="44.05949" lon="5.97317">
        <ele>462.4</ele>
        <time>2021-09-09T13:51:31Z</time>
      </trkpt>
      <trkpt lat="44.05944" lon="5.97311">
        <ele>462.3</ele>
        <time>2021-09-09T13:51:32Z</time>
      </trkpt>
      <trkpt lat="44.05937" lon="5.97301">
        <ele>462.3</ele>
        <time>2021-09-09T13:51:34Z</time>
      </trkpt>
      <trkpt lat="44.05933" lon="5.97296">
        <ele>462.2</ele>
        <time>2021-09-09T13:51:35Z</time>
      </trkpt>
      <trkpt lat="44.05929" lon="5.97292">
        <ele>462.2</ele>
        <time>2021-09-09T13:51:36Z</time>
      </trkpt>
      <trkpt lat="44.0592" lon="5.97282">
        <ele>462.2</ele>
        <time>2021-09-09T13:51:38Z</time>
      </trkpt>
      <trkpt lat="44.05914" lon="5.97277">
        <ele>462.1</ele>
        <time>2021-09-09T13:51:39Z</time>
      </trkpt>
      <trkpt lat="44.05908" lon="5.97272">
        <ele>462.1</ele>
        <time>2021-09-09T13:51:40Z</time>
      </trkpt>
      <trkpt lat="44.05903" lon="5.97267">
        <ele>462.1</ele>
        <time>2021-09-09T13:51:41Z</time>
      </trkpt>
      <trkpt lat="44.05899" lon="5.97262">
        <ele>462</ele>
        <time>2021-09-09T13:51:42Z</time>
      </trkpt>
      <trkpt lat="44.0589" lon="5.97251">
        <ele>461.8</ele>
        <time>2021-09-09T13:51:44Z</time>
      </trkpt>
      <trkpt lat="44.05885" lon="5.97245">
        <ele>461.7</ele>
        <time>2021-09-09T13:51:45Z</time>
      </trkpt>
      <trkpt lat="44.05874" lon="5.97233">
        <ele>461.6</ele>
        <time>2021-09-09T13:51:47Z</time>
      </trkpt>
      <trkpt lat="44.05869" lon="5.97228">
        <ele>461.5</ele>
        <time>2021-09-09T13:51:48Z</time>
      </trkpt>
      <trkpt lat="44.05858" lon="5.97217">
        <ele>461.3</ele>
        <time>2021-09-09T13:51:50Z</time>
      </trkpt>
      <trkpt lat="44.0585" lon="5.97206">
        <ele>461.2</ele>
        <time>2021-09-09T13:51:52Z</time>
      </trkpt>
      <trkpt lat="44.05841" lon="5.97197">
        <ele>461.1</ele>
        <time>2021-09-09T13:51:54Z</time>
      </trkpt>
      <trkpt lat="44.05831" lon="5.97187">
        <ele>461</ele>
        <time>2021-09-09T13:51:56Z</time>
      </trkpt>
      <trkpt lat="44.0582" lon="5.97178">
        <ele>460.9</ele>
        <time>2021-09-09T13:51:58Z</time>
      </trkpt>
      <trkpt lat="44.05814" lon="5.97173">
        <ele>460.9</ele>
        <time>2021-09-09T13:51:59Z</time>
      </trkpt>
      <trkpt lat="44.05808" lon="5.97169">
        <ele>460.9</ele>
        <time>2021-09-09T13:52:00Z</time>
      </trkpt>
      <trkpt lat="44.05799" lon="5.97159">
        <ele>460.8</ele>
        <time>2021-09-09T13:52:02Z</time>
      </trkpt>
      <trkpt lat="44.05795" lon="5.97154">
        <ele>460.8</ele>
        <time>2021-09-09T13:52:03Z</time>
      </trkpt>
      <trkpt lat="44.05791" lon="5.9715">
        <ele>460.8</ele>
        <time>2021-09-09T13:52:04Z</time>
      </trkpt>
      <trkpt lat="44.05783" lon="5.97139">
        <ele>460.8</ele>
        <time>2021-09-09T13:52:06Z</time>
      </trkpt>
      <trkpt lat="44.05775" lon="5.97129">
        <ele>460.7</ele>
        <time>2021-09-09T13:52:08Z</time>
      </trkpt>
      <trkpt lat="44.05771" lon="5.97124">
        <ele>460.7</ele>
        <time>2021-09-09T13:52:09Z</time>
      </trkpt>
      <trkpt lat="44.05763" lon="5.97113">
        <ele>460.6</ele>
        <time>2021-09-09T13:52:11Z</time>
      </trkpt>
      <trkpt lat="44.05756" lon="5.97102">
        <ele>460.5</ele>
        <time>2021-09-09T13:52:13Z</time>
      </trkpt>
      <trkpt lat="44.05752" lon="5.97097">
        <ele>460.5</ele>
        <time>2021-09-09T13:52:14Z</time>
      </trkpt>
      <trkpt lat="44.05748" lon="5.97092">
        <ele>460.4</ele>
        <time>2021-09-09T13:52:15Z</time>
      </trkpt>
      <trkpt lat="44.0574" lon="5.97082">
        <ele>460.3</ele>
        <time>2021-09-09T13:52:17Z</time>
      </trkpt>
      <trkpt lat="44.05735" lon="5.97076">
        <ele>460.3</ele>
        <time>2021-09-09T13:52:18Z</time>
      </trkpt>
      <trkpt lat="44.0573" lon="5.97071">
        <ele>460.2</ele>
        <time>2021-09-09T13:52:19Z</time>
      </trkpt>
      <trkpt lat="44.05725" lon="5.97066">
        <ele>460.2</ele>
        <time>2021-09-09T13:52:20Z</time>
      </trkpt>
      <trkpt lat="44.05716" lon="5.97056">
        <ele>460</ele>
        <time>2021-09-09T13:52:22Z</time>
      </trkpt>
      <trkpt lat="44.05707" lon="5.97045">
        <ele>459.9</ele>
        <time>2021-09-09T13:52:24Z</time>
      </trkpt>
      <trkpt lat="44.05702" lon="5.9704">
        <ele>459.9</ele>
        <time>2021-09-09T13:52:25Z</time>
      </trkpt>
      <trkpt lat="44.05691" lon="5.97028">
        <ele>459.8</ele>
        <time>2021-09-09T13:52:27Z</time>
      </trkpt>
      <trkpt lat="44.05687" lon="5.97023">
        <ele>459.7</ele>
        <time>2021-09-09T13:52:28Z</time>
      </trkpt>
      <trkpt lat="44.05678" lon="5.97011">
        <ele>459.6</ele>
        <time>2021-09-09T13:52:30Z</time>
      </trkpt>
      <trkpt lat="44.05675" lon="5.97005">
        <ele>459.6</ele>
        <time>2021-09-09T13:52:31Z</time>
      </trkpt>
      <trkpt lat="44.05667" lon="5.96992">
        <ele>459.5</ele>
        <time>2021-09-09T13:52:33Z</time>
      </trkpt>
      <trkpt lat="44.05663" lon="5.96986">
        <ele>459.4</ele>
        <time>2021-09-09T13:52:34Z</time>
      </trkpt>
      <trkpt lat="44.05659" lon="5.96979">
        <ele>459.4</ele>
        <time>2021-09-09T13:52:35Z</time>
      </trkpt>
      <trkpt lat="44.05653" lon="5.96974">
        <ele>459.3</ele>
        <time>2021-09-09T13:52:36Z</time>
      </trkpt>
      <trkpt lat="44.05643" lon="5.96965">
        <ele>459.1</ele>
        <time>2021-09-09T13:52:38Z</time>
      </trkpt>
      <trkpt lat="44.05638" lon="5.9696">
        <ele>459.1</ele>
        <time>2021-09-09T13:52:39Z</time>
      </trkpt>
      <trkpt lat="44.05628" lon="5.96949">
        <ele>458.9</ele>
        <time>2021-09-09T13:52:41Z</time>
      </trkpt>
      <trkpt lat="44.05623" lon="5.96943">
        <ele>458.9</ele>
        <time>2021-09-09T13:52:42Z</time>
      </trkpt>
      <trkpt lat="44.05614" lon="5.96932">
        <ele>458.8</ele>
        <time>2021-09-09T13:52:44Z</time>
      </trkpt>
      <trkpt lat="44.05609" lon="5.96926">
        <ele>458.7</ele>
        <time>2021-09-09T13:52:45Z</time>
      </trkpt>
      <trkpt lat="44.05604" lon="5.96921">
        <ele>458.7</ele>
        <time>2021-09-09T13:52:46Z</time>
      </trkpt>
      <trkpt lat="44.056" lon="5.96915">
        <ele>458.7</ele>
        <time>2021-09-09T13:52:47Z</time>
      </trkpt>
      <trkpt lat="44.05591" lon="5.96903">
        <ele>458.6</ele>
        <time>2021-09-09T13:52:49Z</time>
      </trkpt>
      <trkpt lat="44.05582" lon="5.96891">
        <ele>458.6</ele>
        <time>2021-09-09T13:52:51Z</time>
      </trkpt>
      <trkpt lat="44.05573" lon="5.96881">
        <ele>458.5</ele>
        <time>2021-09-09T13:52:53Z</time>
      </trkpt>
      <trkpt lat="44.05569" lon="5.96875">
        <ele>458.5</ele>
        <time>2021-09-09T13:52:54Z</time>
      </trkpt>
      <trkpt lat="44.05559" lon="5.96865">
        <ele>458.4</ele>
        <time>2021-09-09T13:52:56Z</time>
      </trkpt>
      <trkpt lat="44.05549" lon="5.96851">
        <ele>458.3</ele>
        <time>2021-09-09T13:52:58Z</time>
      </trkpt>
      <trkpt lat="44.05544" lon="5.96845">
        <ele>458.3</ele>
        <time>2021-09-09T13:52:59Z</time>
      </trkpt>
      <trkpt lat="44.05535" lon="5.96833">
        <ele>458.2</ele>
        <time>2021-09-09T13:53:01Z</time>
      </trkpt>
      <trkpt lat="44.05531" lon="5.96828">
        <ele>458.2</ele>
        <time>2021-09-09T13:53:02Z</time>
      </trkpt>
      <trkpt lat="44.05523" lon="5.96817">
        <ele>458.1</ele>
        <time>2021-09-09T13:53:04Z</time>
      </trkpt>
      <trkpt lat="44.05518" lon="5.9681">
        <ele>458.1</ele>
        <time>2021-09-09T13:53:05Z</time>
      </trkpt>
      <trkpt lat="44.05514" lon="5.96805">
        <ele>458</ele>
        <time>2021-09-09T13:53:06Z</time>
      </trkpt>
      <trkpt lat="44.05509" lon="5.96801">
        <ele>458</ele>
        <time>2021-09-09T13:53:07Z</time>
      </trkpt>
      <trkpt lat="44.05502" lon="5.9679">
        <ele>457.9</ele>
        <time>2021-09-09T13:53:09Z</time>
      </trkpt>
      <trkpt lat="44.05498" lon="5.96785">
        <ele>457.8</ele>
        <time>2021-09-09T13:53:10Z</time>
      </trkpt>
      <trkpt lat="44.05493" lon="5.96779">
        <ele>457.8</ele>
        <time>2021-09-09T13:53:11Z</time>
      </trkpt>
      <trkpt lat="44.05483" lon="5.96768">
        <ele>457.7</ele>
        <time>2021-09-09T13:53:13Z</time>
      </trkpt>
      <trkpt lat="44.05471" lon="5.96756">
        <ele>457.7</ele>
        <time>2021-09-09T13:53:15Z</time>
      </trkpt>
      <trkpt lat="44.05461" lon="5.96745">
        <ele>457.6</ele>
        <time>2021-09-09T13:53:17Z</time>
      </trkpt>
      <trkpt lat="44.05456" lon="5.96739">
        <ele>457.6</ele>
        <time>2021-09-09T13:53:18Z</time>
      </trkpt>
      <trkpt lat="44.05452" lon="5.96733">
        <ele>457.5</ele>
        <time>2021-09-09T13:53:19Z</time>
      </trkpt>
      <trkpt lat="44.05444" lon="5.9672">
        <ele>457.4</ele>
        <time>2021-09-09T13:53:21Z</time>
      </trkpt>
      <trkpt lat="44.05433" lon="5.96712">
        <ele>457.3</ele>
        <time>2021-09-09T13:53:23Z</time>
      </trkpt>
      <trkpt lat="44.05429" lon="5.96708">
        <ele>457.3</ele>
        <time>2021-09-09T13:53:24Z</time>
      </trkpt>
      <trkpt lat="44.05424" lon="5.96704">
        <ele>457.2</ele>
        <time>2021-09-09T13:53:25Z</time>
      </trkpt>
      <trkpt lat="44.05418" lon="5.96695">
        <ele>457.1</ele>
        <time>2021-09-09T13:53:27Z</time>
      </trkpt>
      <trkpt lat="44.05415" lon="5.9669">
        <ele>457.1</ele>
        <time>2021-09-09T13:53:28Z</time>
      </trkpt>
      <trkpt lat="44.05409" lon="5.96682">
        <ele>456.9</ele>
        <time>2021-09-09T13:53:30Z</time>
      </trkpt>
      <trkpt lat="44.05401" lon="5.96673">
        <ele>456.8</ele>
        <time>2021-09-09T13:53:32Z</time>
      </trkpt>
      <trkpt lat="44.05398" lon="5.96669">
        <ele>456.7</ele>
        <time>2021-09-09T13:53:33Z</time>
      </trkpt>
      <trkpt lat="44.05389" lon="5.96663">
        <ele>456.5</ele>
        <time>2021-09-09T13:53:35Z</time>
      </trkpt>
      <trkpt lat="44.05385" lon="5.96665">
        <ele>456.4</ele>
        <time>2021-09-09T13:53:36Z</time>
      </trkpt>
      <trkpt lat="44.05381" lon="5.96663">
        <ele>456.3</ele>
        <time>2021-09-09T13:53:37Z</time>
      </trkpt>
      <trkpt lat="44.05376" lon="5.96659">
        <ele>456.2</ele>
        <time>2021-09-09T13:53:38Z</time>
      </trkpt>
      <trkpt lat="44.05372" lon="5.96655">
        <ele>456.1</ele>
        <time>2021-09-09T13:53:39Z</time>
      </trkpt>
      <trkpt lat="44.05368" lon="5.96651">
        <ele>456</ele>
        <time>2021-09-09T13:53:41Z</time>
      </trkpt>
      <trkpt lat="44.05361" lon="5.96641">
        <ele>455.8</ele>
        <time>2021-09-09T13:53:43Z</time>
      </trkpt>
      <trkpt lat="44.05354" lon="5.96631">
        <ele>455.6</ele>
        <time>2021-09-09T13:53:45Z</time>
      </trkpt>
      <trkpt lat="44.0535" lon="5.96626">
        <ele>455.5</ele>
        <time>2021-09-09T13:53:46Z</time>
      </trkpt>
      <trkpt lat="44.05347" lon="5.9662">
        <ele>455.4</ele>
        <time>2021-09-09T13:53:47Z</time>
      </trkpt>
      <trkpt lat="44.0534" lon="5.96607">
        <ele>455.2</ele>
        <time>2021-09-09T13:53:49Z</time>
      </trkpt>
      <trkpt lat="44.05336" lon="5.96601">
        <ele>455</ele>
        <time>2021-09-09T13:53:50Z</time>
      </trkpt>
      <trkpt lat="44.05327" lon="5.96588">
        <ele>454.8</ele>
        <time>2021-09-09T13:53:52Z</time>
      </trkpt>
      <trkpt lat="44.05319" lon="5.96574">
        <ele>454.6</ele>
        <time>2021-09-09T13:53:54Z</time>
      </trkpt>
      <trkpt lat="44.0531" lon="5.96558">
        <ele>454.3</ele>
        <time>2021-09-09T13:53:56Z</time>
      </trkpt>
      <trkpt lat="44.05306" lon="5.96551">
        <ele>454.1</ele>
        <time>2021-09-09T13:53:57Z</time>
      </trkpt>
      <trkpt lat="44.05301" lon="5.96544">
        <ele>454</ele>
        <time>2021-09-09T13:53:58Z</time>
      </trkpt>
      <trkpt lat="44.05291" lon="5.9653">
        <ele>453.7</ele>
        <time>2021-09-09T13:54:00Z</time>
      </trkpt>
      <trkpt lat="44.05286" lon="5.96523">
        <ele>453.6</ele>
        <time>2021-09-09T13:54:01Z</time>
      </trkpt>
      <trkpt lat="44.05274" lon="5.96511">
        <ele>453.2</ele>
        <time>2021-09-09T13:54:03Z</time>
      </trkpt>
      <trkpt lat="44.05262" lon="5.96497">
        <ele>452.9</ele>
        <time>2021-09-09T13:54:05Z</time>
      </trkpt>
      <trkpt lat="44.05257" lon="5.96491">
        <ele>452.7</ele>
        <time>2021-09-09T13:54:06Z</time>
      </trkpt>
      <trkpt lat="44.05245" lon="5.96478">
        <ele>452.4</ele>
        <time>2021-09-09T13:54:08Z</time>
      </trkpt>
      <trkpt lat="44.05234" lon="5.96465">
        <ele>452.1</ele>
        <time>2021-09-09T13:54:10Z</time>
      </trkpt>
      <trkpt lat="44.05228" lon="5.96458">
        <ele>452</ele>
        <time>2021-09-09T13:54:11Z</time>
      </trkpt>
      <trkpt lat="44.05219" lon="5.96446">
        <ele>451.8</ele>
        <time>2021-09-09T13:54:13Z</time>
      </trkpt>
      <trkpt lat="44.05214" lon="5.96439">
        <ele>451.7</ele>
        <time>2021-09-09T13:54:14Z</time>
      </trkpt>
      <trkpt lat="44.05204" lon="5.96427">
        <ele>451.6</ele>
        <time>2021-09-09T13:54:16Z</time>
      </trkpt>
      <trkpt lat="44.05198" lon="5.96421">
        <ele>451.6</ele>
        <time>2021-09-09T13:54:17Z</time>
      </trkpt>
      <trkpt lat="44.05193" lon="5.96416">
        <ele>451.5</ele>
        <time>2021-09-09T13:54:18Z</time>
      </trkpt>
      <trkpt lat="44.05185" lon="5.96403">
        <ele>451.5</ele>
        <time>2021-09-09T13:54:20Z</time>
      </trkpt>
      <trkpt lat="44.05178" lon="5.96388">
        <ele>451.5</ele>
        <time>2021-09-09T13:54:22Z</time>
      </trkpt>
      <trkpt lat="44.05175" lon="5.96381">
        <ele>451.5</ele>
        <time>2021-09-09T13:54:23Z</time>
      </trkpt>
      <trkpt lat="44.0517" lon="5.96375">
        <ele>451.4</ele>
        <time>2021-09-09T13:54:24Z</time>
      </trkpt>
      <trkpt lat="44.05158" lon="5.96365">
        <ele>451</ele>
        <time>2021-09-09T13:54:26Z</time>
      </trkpt>
      <trkpt lat="44.05152" lon="5.96359">
        <ele>450.8</ele>
        <time>2021-09-09T13:54:27Z</time>
      </trkpt>
      <trkpt lat="44.05142" lon="5.96345">
        <ele>450.3</ele>
        <time>2021-09-09T13:54:29Z</time>
      </trkpt>
      <trkpt lat="44.05137" lon="5.96338">
        <ele>450.1</ele>
        <time>2021-09-09T13:54:30Z</time>
      </trkpt>
      <trkpt lat="44.05126" lon="5.96323">
        <ele>449.6</ele>
        <time>2021-09-09T13:54:32Z</time>
      </trkpt>
      <trkpt lat="44.05114" lon="5.96309">
        <ele>449.2</ele>
        <time>2021-09-09T13:54:34Z</time>
      </trkpt>
      <trkpt lat="44.05102" lon="5.96295">
        <ele>448.8</ele>
        <time>2021-09-09T13:54:36Z</time>
      </trkpt>
      <trkpt lat="44.05091" lon="5.96281">
        <ele>448.5</ele>
        <time>2021-09-09T13:54:38Z</time>
      </trkpt>
      <trkpt lat="44.05086" lon="5.96274">
        <ele>448.3</ele>
        <time>2021-09-09T13:54:39Z</time>
      </trkpt>
      <trkpt lat="44.05075" lon="5.96262">
        <ele>448</ele>
        <time>2021-09-09T13:54:41Z</time>
      </trkpt>
      <trkpt lat="44.05063" lon="5.96253">
        <ele>447.6</ele>
        <time>2021-09-09T13:54:43Z</time>
      </trkpt>
      <trkpt lat="44.05051" lon="5.96243">
        <ele>447.1</ele>
        <time>2021-09-09T13:54:45Z</time>
      </trkpt>
      <trkpt lat="44.05038" lon="5.96233">
        <ele>446.6</ele>
        <time>2021-09-09T13:54:47Z</time>
      </trkpt>
      <trkpt lat="44.05026" lon="5.96223">
        <ele>446.2</ele>
        <time>2021-09-09T13:54:49Z</time>
      </trkpt>
      <trkpt lat="44.05014" lon="5.96212">
        <ele>445.7</ele>
        <time>2021-09-09T13:54:51Z</time>
      </trkpt>
      <trkpt lat="44.05008" lon="5.96206">
        <ele>445.5</ele>
        <time>2021-09-09T13:54:52Z</time>
      </trkpt>
      <trkpt lat="44.04996" lon="5.96194">
        <ele>444.9</ele>
        <time>2021-09-09T13:54:54Z</time>
      </trkpt>
      <trkpt lat="44.0499" lon="5.96188">
        <ele>444.6</ele>
        <time>2021-09-09T13:54:55Z</time>
      </trkpt>
      <trkpt lat="44.04977" lon="5.96174">
        <ele>444.1</ele>
        <time>2021-09-09T13:54:57Z</time>
      </trkpt>
      <trkpt lat="44.04971" lon="5.96168">
        <ele>443.8</ele>
        <time>2021-09-09T13:54:58Z</time>
      </trkpt>
      <trkpt lat="44.04958" lon="5.96155">
        <ele>443.3</ele>
        <time>2021-09-09T13:55:00Z</time>
      </trkpt>
      <trkpt lat="44.04952" lon="5.9615">
        <ele>443.1</ele>
        <time>2021-09-09T13:55:01Z</time>
      </trkpt>
      <trkpt lat="44.04946" lon="5.96145">
        <ele>442.9</ele>
        <time>2021-09-09T13:55:02Z</time>
      </trkpt>
      <trkpt lat="44.0494" lon="5.96141">
        <ele>442.6</ele>
        <time>2021-09-09T13:55:03Z</time>
      </trkpt>
      <trkpt lat="44.04934" lon="5.96136">
        <ele>442.4</ele>
        <time>2021-09-09T13:55:04Z</time>
      </trkpt>
      <trkpt lat="44.04922" lon="5.96123">
        <ele>441.9</ele>
        <time>2021-09-09T13:55:06Z</time>
      </trkpt>
      <trkpt lat="44.04911" lon="5.96109">
        <ele>441.5</ele>
        <time>2021-09-09T13:55:08Z</time>
      </trkpt>
      <trkpt lat="44.04907" lon="5.96102">
        <ele>441.4</ele>
        <time>2021-09-09T13:55:09Z</time>
      </trkpt>
      <trkpt lat="44.04901" lon="5.96097">
        <ele>441.2</ele>
        <time>2021-09-09T13:55:10Z</time>
      </trkpt>
      <trkpt lat="44.04889" lon="5.96089">
        <ele>440.9</ele>
        <time>2021-09-09T13:55:12Z</time>
      </trkpt>
      <trkpt lat="44.04874" lon="5.96081">
        <ele>440.7</ele>
        <time>2021-09-09T13:55:14Z</time>
      </trkpt>
      <trkpt lat="44.04866" lon="5.96076">
        <ele>440.6</ele>
        <time>2021-09-09T13:55:15Z</time>
      </trkpt>
      <trkpt lat="44.0485" lon="5.9607">
        <ele>440.5</ele>
        <time>2021-09-09T13:55:17Z</time>
      </trkpt>
      <trkpt lat="44.04837" lon="5.96065">
        <ele>440.4</ele>
        <time>2021-09-09T13:55:19Z</time>
      </trkpt>
      <trkpt lat="44.04831" lon="5.96062">
        <ele>440.4</ele>
        <time>2021-09-09T13:55:20Z</time>
      </trkpt>
      <trkpt lat="44.04825" lon="5.96058">
        <ele>440.4</ele>
        <time>2021-09-09T13:55:21Z</time>
      </trkpt>
      <trkpt lat="44.04812" lon="5.96054">
        <ele>440.3</ele>
        <time>2021-09-09T13:55:23Z</time>
      </trkpt>
      <trkpt lat="44.04806" lon="5.9605">
        <ele>440.3</ele>
        <time>2021-09-09T13:55:24Z</time>
      </trkpt>
      <trkpt lat="44.04801" lon="5.96045">
        <ele>440.3</ele>
        <time>2021-09-09T13:55:25Z</time>
      </trkpt>
      <trkpt lat="44.04796" lon="5.96042">
        <ele>440.3</ele>
        <time>2021-09-09T13:55:26Z</time>
      </trkpt>
      <trkpt lat="44.04786" lon="5.96034">
        <ele>440.2</ele>
        <time>2021-09-09T13:55:28Z</time>
      </trkpt>
      <trkpt lat="44.0478" lon="5.96029">
        <ele>440.2</ele>
        <time>2021-09-09T13:55:29Z</time>
      </trkpt>
      <trkpt lat="44.04771" lon="5.96021">
        <ele>440</ele>
        <time>2021-09-09T13:55:31Z</time>
      </trkpt>
      <trkpt lat="44.04766" lon="5.96017">
        <ele>439.9</ele>
        <time>2021-09-09T13:55:32Z</time>
      </trkpt>
      <trkpt lat="44.04756" lon="5.96009">
        <ele>439.6</ele>
        <time>2021-09-09T13:55:34Z</time>
      </trkpt>
      <trkpt lat="44.04751" lon="5.96005">
        <ele>439.5</ele>
        <time>2021-09-09T13:55:35Z</time>
      </trkpt>
      <trkpt lat="44.04747" lon="5.96001">
        <ele>439.3</ele>
        <time>2021-09-09T13:55:36Z</time>
      </trkpt>
      <trkpt lat="44.04738" lon="5.95991">
        <ele>439</ele>
        <time>2021-09-09T13:55:38Z</time>
      </trkpt>
      <trkpt lat="44.0473" lon="5.95979">
        <ele>438.6</ele>
        <time>2021-09-09T13:55:40Z</time>
      </trkpt>
      <trkpt lat="44.04723" lon="5.95967">
        <ele>438.2</ele>
        <time>2021-09-09T13:55:42Z</time>
      </trkpt>
      <trkpt lat="44.04715" lon="5.95956">
        <ele>437.8</ele>
        <time>2021-09-09T13:55:44Z</time>
      </trkpt>
      <trkpt lat="44.04708" lon="5.95945">
        <ele>437.4</ele>
        <time>2021-09-09T13:55:46Z</time>
      </trkpt>
      <trkpt lat="44.04704" lon="5.95938">
        <ele>437.2</ele>
        <time>2021-09-09T13:55:47Z</time>
      </trkpt>
      <trkpt lat="44.04698" lon="5.95924">
        <ele>436.8</ele>
        <time>2021-09-09T13:55:49Z</time>
      </trkpt>
      <trkpt lat="44.04694" lon="5.95916">
        <ele>436.6</ele>
        <time>2021-09-09T13:55:50Z</time>
      </trkpt>
      <trkpt lat="44.04686" lon="5.95902">
        <ele>436.1</ele>
        <time>2021-09-09T13:55:52Z</time>
      </trkpt>
      <trkpt lat="44.04677" lon="5.95888">
        <ele>435.7</ele>
        <time>2021-09-09T13:55:54Z</time>
      </trkpt>
      <trkpt lat="44.04672" lon="5.9588">
        <ele>435.4</ele>
        <time>2021-09-09T13:55:55Z</time>
      </trkpt>
      <trkpt lat="44.04668" lon="5.95871">
        <ele>435.1</ele>
        <time>2021-09-09T13:55:56Z</time>
      </trkpt>
      <trkpt lat="44.04659" lon="5.95854">
        <ele>434.5</ele>
        <time>2021-09-09T13:55:58Z</time>
      </trkpt>
      <trkpt lat="44.04655" lon="5.95846">
        <ele>434.3</ele>
        <time>2021-09-09T13:55:59Z</time>
      </trkpt>
      <trkpt lat="44.04646" lon="5.95829">
        <ele>433.8</ele>
        <time>2021-09-09T13:56:01Z</time>
      </trkpt>
      <trkpt lat="44.04637" lon="5.95812">
        <ele>433.3</ele>
        <time>2021-09-09T13:56:03Z</time>
      </trkpt>
      <trkpt lat="44.04633" lon="5.95803">
        <ele>433.1</ele>
        <time>2021-09-09T13:56:04Z</time>
      </trkpt>
      <trkpt lat="44.04628" lon="5.95795">
        <ele>432.8</ele>
        <time>2021-09-09T13:56:05Z</time>
      </trkpt>
      <trkpt lat="44.04624" lon="5.95787">
        <ele>432.6</ele>
        <time>2021-09-09T13:56:06Z</time>
      </trkpt>
      <trkpt lat="44.04616" lon="5.95775">
        <ele>432.2</ele>
        <time>2021-09-09T13:56:08Z</time>
      </trkpt>
      <trkpt lat="44.04613" lon="5.95769">
        <ele>432</ele>
        <time>2021-09-09T13:56:09Z</time>
      </trkpt>
      <trkpt lat="44.04606" lon="5.95759">
        <ele>431.6</ele>
        <time>2021-09-09T13:56:11Z</time>
      </trkpt>
      <trkpt lat="44.04602" lon="5.95753">
        <ele>431.3</ele>
        <time>2021-09-09T13:56:12Z</time>
      </trkpt>
      <trkpt lat="44.04595" lon="5.95742">
        <ele>430.9</ele>
        <time>2021-09-09T13:56:14Z</time>
      </trkpt>
      <trkpt lat="44.04591" lon="5.95736">
        <ele>430.7</ele>
        <time>2021-09-09T13:56:15Z</time>
      </trkpt>
      <trkpt lat="44.04587" lon="5.9573">
        <ele>430.5</ele>
        <time>2021-09-09T13:56:16Z</time>
      </trkpt>
      <trkpt lat="44.04579" lon="5.95717">
        <ele>430</ele>
        <time>2021-09-09T13:56:18Z</time>
      </trkpt>
      <trkpt lat="44.04575" lon="5.9571">
        <ele>429.7</ele>
        <time>2021-09-09T13:56:19Z</time>
      </trkpt>
      <trkpt lat="44.04567" lon="5.95697">
        <ele>429.2</ele>
        <time>2021-09-09T13:56:21Z</time>
      </trkpt>
      <trkpt lat="44.04559" lon="5.95683">
        <ele>428.8</ele>
        <time>2021-09-09T13:56:23Z</time>
      </trkpt>
      <trkpt lat="44.04555" lon="5.95677">
        <ele>428.5</ele>
        <time>2021-09-09T13:56:24Z</time>
      </trkpt>
      <trkpt lat="44.04547" lon="5.95663">
        <ele>428</ele>
        <time>2021-09-09T13:56:26Z</time>
      </trkpt>
      <trkpt lat="44.04543" lon="5.95656">
        <ele>427.7</ele>
        <time>2021-09-09T13:56:27Z</time>
      </trkpt>
      <trkpt lat="44.04535" lon="5.95642">
        <ele>427.1</ele>
        <time>2021-09-09T13:56:29Z</time>
      </trkpt>
      <trkpt lat="44.04532" lon="5.95635">
        <ele>426.9</ele>
        <time>2021-09-09T13:56:30Z</time>
      </trkpt>
      <trkpt lat="44.04525" lon="5.95619">
        <ele>426.3</ele>
        <time>2021-09-09T13:56:32Z</time>
      </trkpt>
      <trkpt lat="44.04519" lon="5.95602">
        <ele>425.6</ele>
        <time>2021-09-09T13:56:34Z</time>
      </trkpt>
      <trkpt lat="44.04515" lon="5.95593">
        <ele>425.3</ele>
        <time>2021-09-09T13:56:35Z</time>
      </trkpt>
      <trkpt lat="44.04511" lon="5.95586">
        <ele>425</ele>
        <time>2021-09-09T13:56:36Z</time>
      </trkpt>
      <trkpt lat="44.04507" lon="5.95578">
        <ele>424.7</ele>
        <time>2021-09-09T13:56:37Z</time>
      </trkpt>
      <trkpt lat="44.04504" lon="5.95571">
        <ele>424.4</ele>
        <time>2021-09-09T13:56:38Z</time>
      </trkpt>
      <trkpt lat="44.04496" lon="5.95554">
        <ele>423.5</ele>
        <time>2021-09-09T13:56:40Z</time>
      </trkpt>
      <trkpt lat="44.04489" lon="5.95534">
        <ele>422.4</ele>
        <time>2021-09-09T13:56:42Z</time>
      </trkpt>
      <trkpt lat="44.04482" lon="5.95514">
        <ele>421.5</ele>
        <time>2021-09-09T13:56:44Z</time>
      </trkpt>
      <trkpt lat="44.04478" lon="5.95504">
        <ele>421.1</ele>
        <time>2021-09-09T13:56:45Z</time>
      </trkpt>
      <trkpt lat="44.0447" lon="5.95487">
        <ele>420.3</ele>
        <time>2021-09-09T13:56:47Z</time>
      </trkpt>
      <trkpt lat="44.04467" lon="5.9548">
        <ele>420</ele>
        <time>2021-09-09T13:56:48Z</time>
      </trkpt>
      <trkpt lat="44.04457" lon="5.9547">
        <ele>419.4</ele>
        <time>2021-09-09T13:56:50Z</time>
      </trkpt>
      <trkpt lat="44.04452" lon="5.95466">
        <ele>419.7</ele>
        <time>2021-09-09T13:56:51Z</time>
      </trkpt>
      <trkpt lat="44.04439" lon="5.95464">
        <ele>419.7</ele>
        <time>2021-09-09T13:56:53Z</time>
      </trkpt>
      <trkpt lat="44.04432" lon="5.95468">
        <ele>419.4</ele>
        <time>2021-09-09T13:56:54Z</time>
      </trkpt>
      <trkpt lat="44.04421" lon="5.95482">
        <ele>418.4</ele>
        <time>2021-09-09T13:56:56Z</time>
      </trkpt>
      <trkpt lat="44.04406" lon="5.95497">
        <ele>416.1</ele>
        <time>2021-09-09T13:56:58Z</time>
      </trkpt>
      <trkpt lat="44.04393" lon="5.95511">
        <ele>415.6</ele>
        <time>2021-09-09T13:57:00Z</time>
      </trkpt>
      <trkpt lat="44.04388" lon="5.95518">
        <ele>415.4</ele>
        <time>2021-09-09T13:57:01Z</time>
      </trkpt>
      <trkpt lat="44.04376" lon="5.95534">
        <ele>414.8</ele>
        <time>2021-09-09T13:57:03Z</time>
      </trkpt>
      <trkpt lat="44.04369" lon="5.95542">
        <ele>414.3</ele>
        <time>2021-09-09T13:57:04Z</time>
      </trkpt>
      <trkpt lat="44.04364" lon="5.95551">
        <ele>413.9</ele>
        <time>2021-09-09T13:57:05Z</time>
      </trkpt>
      <trkpt lat="44.04358" lon="5.9556">
        <ele>413.4</ele>
        <time>2021-09-09T13:57:06Z</time>
      </trkpt>
      <trkpt lat="44.04352" lon="5.95569">
        <ele>413.2</ele>
        <time>2021-09-09T13:57:07Z</time>
      </trkpt>
      <trkpt lat="44.04339" lon="5.95584">
        <ele>412.5</ele>
        <time>2021-09-09T13:57:09Z</time>
      </trkpt>
      <trkpt lat="44.04327" lon="5.95598">
        <ele>411.8</ele>
        <time>2021-09-09T13:57:11Z</time>
      </trkpt>
      <trkpt lat="44.04321" lon="5.95604">
        <ele>411.5</ele>
        <time>2021-09-09T13:57:12Z</time>
      </trkpt>
      <trkpt lat="44.04314" lon="5.9561">
        <ele>411.3</ele>
        <time>2021-09-09T13:57:13Z</time>
      </trkpt>
      <trkpt lat="44.04308" lon="5.95616">
        <ele>411.1</ele>
        <time>2021-09-09T13:57:14Z</time>
      </trkpt>
      <trkpt lat="44.04297" lon="5.95629">
        <ele>410.8</ele>
        <time>2021-09-09T13:57:16Z</time>
      </trkpt>
      <trkpt lat="44.04285" lon="5.9564">
        <ele>410.5</ele>
        <time>2021-09-09T13:57:18Z</time>
      </trkpt>
      <trkpt lat="44.04279" lon="5.95645">
        <ele>410.3</ele>
        <time>2021-09-09T13:57:19Z</time>
      </trkpt>
      <trkpt lat="44.04269" lon="5.95655">
        <ele>410.1</ele>
        <time>2021-09-09T13:57:21Z</time>
      </trkpt>
      <trkpt lat="44.04265" lon="5.9566">
        <ele>410</ele>
        <time>2021-09-09T13:57:22Z</time>
      </trkpt>
      <trkpt lat="44.04257" lon="5.95671">
        <ele>409.8</ele>
        <time>2021-09-09T13:57:24Z</time>
      </trkpt>
      <trkpt lat="44.04252" lon="5.95677">
        <ele>409.7</ele>
        <time>2021-09-09T13:57:25Z</time>
      </trkpt>
      <trkpt lat="44.04241" lon="5.95687">
        <ele>409.4</ele>
        <time>2021-09-09T13:57:27Z</time>
      </trkpt>
      <trkpt lat="44.0423" lon="5.95698">
        <ele>409.1</ele>
        <time>2021-09-09T13:57:29Z</time>
      </trkpt>
      <trkpt lat="44.04225" lon="5.95703">
        <ele>409</ele>
        <time>2021-09-09T13:57:30Z</time>
      </trkpt>
      <trkpt lat="44.04217" lon="5.95711">
        <ele>408.8</ele>
        <time>2021-09-09T13:57:32Z</time>
      </trkpt>
      <trkpt lat="44.04214" lon="5.95716">
        <ele>408.7</ele>
        <time>2021-09-09T13:57:33Z</time>
      </trkpt>
      <trkpt lat="44.0421" lon="5.9572">
        <ele>408.6</ele>
        <time>2021-09-09T13:57:34Z</time>
      </trkpt>
      <trkpt lat="44.04206" lon="5.95725">
        <ele>408.5</ele>
        <time>2021-09-09T13:57:35Z</time>
      </trkpt>
      <trkpt lat="44.04201" lon="5.9573">
        <ele>408.4</ele>
        <time>2021-09-09T13:57:36Z</time>
      </trkpt>
      <trkpt lat="44.04196" lon="5.95736">
        <ele>408.3</ele>
        <time>2021-09-09T13:57:37Z</time>
      </trkpt>
      <trkpt lat="44.04185" lon="5.95748">
        <ele>408.1</ele>
        <time>2021-09-09T13:57:39Z</time>
      </trkpt>
      <trkpt lat="44.04173" lon="5.95759">
        <ele>407.8</ele>
        <time>2021-09-09T13:57:41Z</time>
      </trkpt>
      <trkpt lat="44.04161" lon="5.9577">
        <ele>407.5</ele>
        <time>2021-09-09T13:57:43Z</time>
      </trkpt>
      <trkpt lat="44.04151" lon="5.95781">
        <ele>407.2</ele>
        <time>2021-09-09T13:57:45Z</time>
      </trkpt>
      <trkpt lat="44.04145" lon="5.95788">
        <ele>407.1</ele>
        <time>2021-09-09T13:57:46Z</time>
      </trkpt>
      <trkpt lat="44.0414" lon="5.95795">
        <ele>406.9</ele>
        <time>2021-09-09T13:57:47Z</time>
      </trkpt>
      <trkpt lat="44.04134" lon="5.95803">
        <ele>406.8</ele>
        <time>2021-09-09T13:57:48Z</time>
      </trkpt>
      <trkpt lat="44.04122" lon="5.95814">
        <ele>406.6</ele>
        <time>2021-09-09T13:57:50Z</time>
      </trkpt>
      <trkpt lat="44.04117" lon="5.95819">
        <ele>406.5</ele>
        <time>2021-09-09T13:57:51Z</time>
      </trkpt>
      <trkpt lat="44.04107" lon="5.9583">
        <ele>406.3</ele>
        <time>2021-09-09T13:57:53Z</time>
      </trkpt>
      <trkpt lat="44.04101" lon="5.95836">
        <ele>406.2</ele>
        <time>2021-09-09T13:57:54Z</time>
      </trkpt>
      <trkpt lat="44.04096" lon="5.95841">
        <ele>406.1</ele>
        <time>2021-09-09T13:57:55Z</time>
      </trkpt>
      <trkpt lat="44.04085" lon="5.95853">
        <ele>406</ele>
        <time>2021-09-09T13:57:57Z</time>
      </trkpt>
      <trkpt lat="44.0408" lon="5.95859">
        <ele>405.9</ele>
        <time>2021-09-09T13:57:58Z</time>
      </trkpt>
      <trkpt lat="44.04069" lon="5.95869">
        <ele>405.9</ele>
        <time>2021-09-09T13:58:00Z</time>
      </trkpt>
      <trkpt lat="44.04063" lon="5.95873">
        <ele>405.9</ele>
        <time>2021-09-09T13:58:01Z</time>
      </trkpt>
      <trkpt lat="44.0405" lon="5.95877">
        <ele>405.9</ele>
        <time>2021-09-09T13:58:03Z</time>
      </trkpt>
      <trkpt lat="44.04042" lon="5.95879">
        <ele>405.8</ele>
        <time>2021-09-09T13:58:04Z</time>
      </trkpt>
      <trkpt lat="44.04035" lon="5.95882">
        <ele>405.8</ele>
        <time>2021-09-09T13:58:05Z</time>
      </trkpt>
      <trkpt lat="44.04027" lon="5.95888">
        <ele>405.7</ele>
        <time>2021-09-09T13:58:06Z</time>
      </trkpt>
      <trkpt lat="44.04015" lon="5.95905">
        <ele>405.4</ele>
        <time>2021-09-09T13:58:08Z</time>
      </trkpt>
      <trkpt lat="44.04011" lon="5.95915">
        <ele>405.1</ele>
        <time>2021-09-09T13:58:09Z</time>
      </trkpt>
      <trkpt lat="44.04002" lon="5.95931">
        <ele>404.6</ele>
        <time>2021-09-09T13:58:11Z</time>
      </trkpt>
      <trkpt lat="44.03996" lon="5.95939">
        <ele>404.3</ele>
        <time>2021-09-09T13:58:12Z</time>
      </trkpt>
      <trkpt lat="44.0399" lon="5.95946">
        <ele>404.3</ele>
        <time>2021-09-09T13:58:13Z</time>
      </trkpt>
      <trkpt lat="44.03979" lon="5.95958">
        <ele>404.1</ele>
        <time>2021-09-09T13:58:15Z</time>
      </trkpt>
      <trkpt lat="44.03967" lon="5.95968">
        <ele>404</ele>
        <time>2021-09-09T13:58:17Z</time>
      </trkpt>
      <trkpt lat="44.03959" lon="5.95976">
        <ele>403.8</ele>
        <time>2021-09-09T13:58:19Z</time>
      </trkpt>
      <trkpt lat="44.03954" lon="5.95983">
        <ele>403.7</ele>
        <time>2021-09-09T13:58:21Z</time>
      </trkpt>
      <trkpt lat="44.03948" lon="5.95989">
        <ele>403.6</ele>
        <time>2021-09-09T13:58:23Z</time>
      </trkpt>
      <trkpt lat="44.03946" lon="5.95993">
        <ele>403.6</ele>
        <time>2021-09-09T13:58:24Z</time>
      </trkpt>
      <trkpt lat="44.03941" lon="5.95999">
        <ele>403.5</ele>
        <time>2021-09-09T13:58:26Z</time>
      </trkpt>
      <trkpt lat="44.03942" lon="5.96002">
        <ele>403.5</ele>
        <time>2021-09-09T13:58:27Z</time>
      </trkpt>
      <trkpt lat="44.0394" lon="5.96005">
        <ele>403.4</ele>
        <time>2021-09-09T13:58:28Z</time>
      </trkpt>
      <trkpt lat="44.03937" lon="5.96007">
        <ele>403.4</ele>
        <time>2021-09-09T13:58:30Z</time>
      </trkpt>
      <trkpt lat="44.03936" lon="5.96009">
        <ele>403.4</ele>
        <time>2021-09-09T13:58:31Z</time>
      </trkpt>
      <trkpt lat="44.03937" lon="5.96005">
        <ele>403.3</ele>
        <time>2021-09-09T13:58:32Z</time>
      </trkpt>
      <trkpt lat="44.03937" lon="5.96004">
        <ele>403.3</ele>
        <time>2021-09-09T13:58:34Z</time>
      </trkpt>
      <trkpt lat="44.03937" lon="5.96004">
        <ele>403.3</ele>
        <time>2021-09-09T13:58:35Z</time>
      </trkpt>
      <trkpt lat="44.03937" lon="5.96004">
        <ele>403.3</ele>
        <time>2021-09-09T13:58:36Z</time>
      </trkpt>
      <trkpt lat="44.03937" lon="5.96004">
        <ele>403.3</ele>
        <time>2021-09-09T13:58:37Z</time>
      </trkpt>
      <trkpt lat="44.03937" lon="5.96003">
        <ele>403.3</ele>
        <time>2021-09-09T13:58:38Z</time>
      </trkpt>
      <trkpt lat="44.03937" lon="5.96003">
        <ele>403.3</ele>
        <time>2021-09-09T13:58:40Z</time>
      </trkpt>
      <trkpt lat="44.03911" lon="5.9604">
        <ele>402.9</ele>
        <time>2021-09-09T13:58:55Z</time>
      </trkpt>
      <trkpt lat="44.039" lon="5.96052">
        <ele>402.7</ele>
        <time>2021-09-09T13:58:56Z</time>
      </trkpt>
      <trkpt lat="44.03885" lon="5.96066">
        <ele>402.5</ele>
        <time>2021-09-09T13:58:58Z</time>
      </trkpt>
      <trkpt lat="44.03872" lon="5.96077">
        <ele>402.4</ele>
        <time>2021-09-09T13:59:00Z</time>
      </trkpt>
      <trkpt lat="44.0386" lon="5.96086">
        <ele>402.3</ele>
        <time>2021-09-09T13:59:02Z</time>
      </trkpt>
      <trkpt lat="44.03855" lon="5.9609">
        <ele>402.2</ele>
        <time>2021-09-09T13:59:03Z</time>
      </trkpt>
      <trkpt lat="44.0385" lon="5.96095">
        <ele>402.1</ele>
        <time>2021-09-09T13:59:04Z</time>
      </trkpt>
      <trkpt lat="44.0384" lon="5.96104">
        <ele>402</ele>
        <time>2021-09-09T13:59:06Z</time>
      </trkpt>
      <trkpt lat="44.03835" lon="5.96108">
        <ele>402</ele>
        <time>2021-09-09T13:59:07Z</time>
      </trkpt>
      <trkpt lat="44.03823" lon="5.96117">
        <ele>401.9</ele>
        <time>2021-09-09T13:59:09Z</time>
      </trkpt>
      <trkpt lat="44.03812" lon="5.96126">
        <ele>401.9</ele>
        <time>2021-09-09T13:59:11Z</time>
      </trkpt>
      <trkpt lat="44.03806" lon="5.96128">
        <ele>401.9</ele>
        <time>2021-09-09T13:59:12Z</time>
      </trkpt>
      <trkpt lat="44.038" lon="5.96129">
        <ele>401.9</ele>
        <time>2021-09-09T13:59:13Z</time>
      </trkpt>
      <trkpt lat="44.03788" lon="5.96129">
        <ele>401.8</ele>
        <time>2021-09-09T13:59:15Z</time>
      </trkpt>
      <trkpt lat="44.03776" lon="5.96134">
        <ele>401.7</ele>
        <time>2021-09-09T13:59:17Z</time>
      </trkpt>
      <trkpt lat="44.0377" lon="5.96138">
        <ele>401.7</ele>
        <time>2021-09-09T13:59:18Z</time>
      </trkpt>
      <trkpt lat="44.03764" lon="5.96142">
        <ele>401.7</ele>
        <time>2021-09-09T13:59:19Z</time>
      </trkpt>
      <trkpt lat="44.03759" lon="5.96148">
        <ele>401.7</ele>
        <time>2021-09-09T13:59:20Z</time>
      </trkpt>
      <trkpt lat="44.03755" lon="5.96154">
        <ele>401.6</ele>
        <time>2021-09-09T13:59:21Z</time>
      </trkpt>
      <trkpt lat="44.0375" lon="5.96169">
        <ele>401.6</ele>
        <time>2021-09-09T13:59:23Z</time>
      </trkpt>
      <trkpt lat="44.03746" lon="5.96187">
        <ele>401.5</ele>
        <time>2021-09-09T13:59:25Z</time>
      </trkpt>
      <trkpt lat="44.03742" lon="5.96206">
        <ele>401.3</ele>
        <time>2021-09-09T13:59:27Z</time>
      </trkpt>
      <trkpt lat="44.03737" lon="5.96223">
        <ele>401.2</ele>
        <time>2021-09-09T13:59:29Z</time>
      </trkpt>
      <trkpt lat="44.03731" lon="5.96238">
        <ele>401.1</ele>
        <time>2021-09-09T13:59:31Z</time>
      </trkpt>
      <trkpt lat="44.03728" lon="5.96245">
        <ele>401.1</ele>
        <time>2021-09-09T13:59:32Z</time>
      </trkpt>
      <trkpt lat="44.03722" lon="5.96256">
        <ele>401.1</ele>
        <time>2021-09-09T13:59:34Z</time>
      </trkpt>
      <trkpt lat="44.03719" lon="5.96262">
        <ele>401.1</ele>
        <time>2021-09-09T13:59:35Z</time>
      </trkpt>
      <trkpt lat="44.03713" lon="5.96273">
        <ele>401.1</ele>
        <time>2021-09-09T13:59:37Z</time>
      </trkpt>
      <trkpt lat="44.03709" lon="5.96278">
        <ele>401.1</ele>
        <time>2021-09-09T13:59:38Z</time>
      </trkpt>
      <trkpt lat="44.03702" lon="5.96289">
        <ele>401.1</ele>
        <time>2021-09-09T13:59:40Z</time>
      </trkpt>
      <trkpt lat="44.03695" lon="5.96299">
        <ele>401.2</ele>
        <time>2021-09-09T13:59:42Z</time>
      </trkpt>
      <trkpt lat="44.03691" lon="5.96304">
        <ele>401.2</ele>
        <time>2021-09-09T13:59:43Z</time>
      </trkpt>
      <trkpt lat="44.03683" lon="5.96314">
        <ele>401.2</ele>
        <time>2021-09-09T13:59:45Z</time>
      </trkpt>
      <trkpt lat="44.03678" lon="5.96318">
        <ele>401.2</ele>
        <time>2021-09-09T13:59:46Z</time>
      </trkpt>
      <trkpt lat="44.03673" lon="5.96321">
        <ele>401.2</ele>
        <time>2021-09-09T13:59:47Z</time>
      </trkpt>
      <trkpt lat="44.03663" lon="5.96331">
        <ele>401.2</ele>
        <time>2021-09-09T13:59:49Z</time>
      </trkpt>
      <trkpt lat="44.0366" lon="5.96336">
        <ele>401.2</ele>
        <time>2021-09-09T13:59:50Z</time>
      </trkpt>
      <trkpt lat="44.03655" lon="5.96348">
        <ele>401.2</ele>
        <time>2021-09-09T13:59:52Z</time>
      </trkpt>
      <trkpt lat="44.03653" lon="5.96353">
        <ele>401.2</ele>
        <time>2021-09-09T13:59:53Z</time>
      </trkpt>
      <trkpt lat="44.03652" lon="5.96357">
        <ele>401.2</ele>
        <time>2021-09-09T13:59:54Z</time>
      </trkpt>
      <trkpt lat="44.03646" lon="5.96366">
        <ele>401.2</ele>
        <time>2021-09-09T13:59:56Z</time>
      </trkpt>
      <trkpt lat="44.03638" lon="5.96375">
        <ele>401.2</ele>
        <time>2021-09-09T13:59:58Z</time>
      </trkpt>
      <trkpt lat="44.03632" lon="5.9638">
        <ele>401.2</ele>
        <time>2021-09-09T13:59:59Z</time>
      </trkpt>
      <trkpt lat="44.03623" lon="5.96391">
        <ele>401.3</ele>
        <time>2021-09-09T14:00:01Z</time>
      </trkpt>
      <trkpt lat="44.0362" lon="5.96393">
        <ele>401.3</ele>
        <time>2021-09-09T14:00:02Z</time>
      </trkpt>
      <trkpt lat="44.03617" lon="5.96401">
        <ele>401.3</ele>
        <time>2021-09-09T14:00:04Z</time>
      </trkpt>
      <trkpt lat="44.03613" lon="5.96407">
        <ele>401.3</ele>
        <time>2021-09-09T14:00:05Z</time>
      </trkpt>
      <trkpt lat="44.03608" lon="5.96413">
        <ele>401.4</ele>
        <time>2021-09-09T14:00:06Z</time>
      </trkpt>
      <trkpt lat="44.03601" lon="5.9642">
        <ele>401.5</ele>
        <time>2021-09-09T14:00:08Z</time>
      </trkpt>
      <trkpt lat="44.03596" lon="5.96432">
        <ele>401.6</ele>
        <time>2021-09-09T14:00:10Z</time>
      </trkpt>
      <trkpt lat="44.03593" lon="5.96436">
        <ele>401.6</ele>
        <time>2021-09-09T14:00:11Z</time>
      </trkpt>
      <trkpt lat="44.03589" lon="5.96443">
        <ele>401.6</ele>
        <time>2021-09-09T14:00:12Z</time>
      </trkpt>
      <trkpt lat="44.03586" lon="5.96449">
        <ele>401.6</ele>
        <time>2021-09-09T14:00:14Z</time>
      </trkpt>
      <trkpt lat="44.03584" lon="5.96453">
        <ele>401.7</ele>
        <time>2021-09-09T14:00:15Z</time>
      </trkpt>
      <trkpt lat="44.03581" lon="5.9646">
        <ele>401.7</ele>
        <time>2021-09-09T14:00:16Z</time>
      </trkpt>
      <trkpt lat="44.03578" lon="5.96468">
        <ele>401.7</ele>
        <time>2021-09-09T14:00:18Z</time>
      </trkpt>
      <trkpt lat="44.03575" lon="5.96474">
        <ele>401.7</ele>
        <time>2021-09-09T14:00:19Z</time>
      </trkpt>
      <trkpt lat="44.03572" lon="5.96478">
        <ele>401.7</ele>
        <time>2021-09-09T14:00:20Z</time>
      </trkpt>
      <trkpt lat="44.03568" lon="5.96483">
        <ele>401.7</ele>
        <time>2021-09-09T14:00:21Z</time>
      </trkpt>
      <trkpt lat="44.03564" lon="5.9649">
        <ele>401.7</ele>
        <time>2021-09-09T14:00:23Z</time>
      </trkpt>
      <trkpt lat="44.0356" lon="5.96497">
        <ele>401.6</ele>
        <time>2021-09-09T14:00:24Z</time>
      </trkpt>
      <trkpt lat="44.03556" lon="5.96503">
        <ele>401.6</ele>
        <time>2021-09-09T14:00:26Z</time>
      </trkpt>
      <trkpt lat="44.0355" lon="5.96512">
        <ele>401.6</ele>
        <time>2021-09-09T14:00:28Z</time>
      </trkpt>
      <trkpt lat="44.03543" lon="5.96523">
        <ele>401.5</ele>
        <time>2021-09-09T14:00:30Z</time>
      </trkpt>
      <trkpt lat="44.03539" lon="5.96528">
        <ele>401.5</ele>
        <time>2021-09-09T14:00:31Z</time>
      </trkpt>
      <trkpt lat="44.03533" lon="5.96536">
        <ele>401.4</ele>
        <time>2021-09-09T14:00:33Z</time>
      </trkpt>
      <trkpt lat="44.03529" lon="5.9654">
        <ele>401.4</ele>
        <time>2021-09-09T14:00:34Z</time>
      </trkpt>
      <trkpt lat="44.03527" lon="5.96544">
        <ele>401.4</ele>
        <time>2021-09-09T14:00:35Z</time>
      </trkpt>
      <trkpt lat="44.03523" lon="5.96551">
        <ele>401.3</ele>
        <time>2021-09-09T14:00:36Z</time>
      </trkpt>
      <trkpt lat="44.03516" lon="5.96563">
        <ele>401.2</ele>
        <time>2021-09-09T14:00:38Z</time>
      </trkpt>
      <trkpt lat="44.03513" lon="5.96568">
        <ele>401.2</ele>
        <time>2021-09-09T14:00:39Z</time>
      </trkpt>
      <trkpt lat="44.03512" lon="5.96572">
        <ele>401.2</ele>
        <time>2021-09-09T14:00:40Z</time>
      </trkpt>
      <trkpt lat="44.03508" lon="5.96579">
        <ele>401.1</ele>
        <time>2021-09-09T14:00:41Z</time>
      </trkpt>
      <trkpt lat="44.03504" lon="5.96582">
        <ele>401.1</ele>
        <time>2021-09-09T14:00:42Z</time>
      </trkpt>
      <trkpt lat="44.03495" lon="5.96593">
        <ele>401.1</ele>
        <time>2021-09-09T14:00:44Z</time>
      </trkpt>
      <trkpt lat="44.03486" lon="5.96605">
        <ele>401</ele>
        <time>2021-09-09T14:00:46Z</time>
      </trkpt>
      <trkpt lat="44.03478" lon="5.96617">
        <ele>401</ele>
        <time>2021-09-09T14:00:48Z</time>
      </trkpt>
      <trkpt lat="44.03474" lon="5.96623">
        <ele>401</ele>
        <time>2021-09-09T14:00:49Z</time>
      </trkpt>
      <trkpt lat="44.03466" lon="5.96634">
        <ele>401</ele>
        <time>2021-09-09T14:00:51Z</time>
      </trkpt>
      <trkpt lat="44.03459" lon="5.96645">
        <ele>400.9</ele>
        <time>2021-09-09T14:00:53Z</time>
      </trkpt>
      <trkpt lat="44.03456" lon="5.9665">
        <ele>400.9</ele>
        <time>2021-09-09T14:00:54Z</time>
      </trkpt>
      <trkpt lat="44.03449" lon="5.96661">
        <ele>400.9</ele>
        <time>2021-09-09T14:00:56Z</time>
      </trkpt>
      <trkpt lat="44.03442" lon="5.96672">
        <ele>400.9</ele>
        <time>2021-09-09T14:00:58Z</time>
      </trkpt>
      <trkpt lat="44.03436" lon="5.96682">
        <ele>400.9</ele>
        <time>2021-09-09T14:01:00Z</time>
      </trkpt>
      <trkpt lat="44.03429" lon="5.96691">
        <ele>401</ele>
        <time>2021-09-09T14:01:02Z</time>
      </trkpt>
      <trkpt lat="44.03423" lon="5.967">
        <ele>401</ele>
        <time>2021-09-09T14:01:04Z</time>
      </trkpt>
      <trkpt lat="44.0342" lon="5.96705">
        <ele>401</ele>
        <time>2021-09-09T14:01:05Z</time>
      </trkpt>
      <trkpt lat="44.03415" lon="5.96714">
        <ele>400.9</ele>
        <time>2021-09-09T14:01:07Z</time>
      </trkpt>
      <trkpt lat="44.03412" lon="5.96717">
        <ele>400.9</ele>
        <time>2021-09-09T14:01:08Z</time>
      </trkpt>
      <trkpt lat="44.03405" lon="5.96718">
        <ele>400.9</ele>
        <time>2021-09-09T14:01:10Z</time>
      </trkpt>
      <trkpt lat="44.03402" lon="5.96724">
        <ele>400.9</ele>
        <time>2021-09-09T14:01:11Z</time>
      </trkpt>
      <trkpt lat="44.034" lon="5.96729">
        <ele>400.9</ele>
        <time>2021-09-09T14:01:12Z</time>
      </trkpt>
      <trkpt lat="44.03397" lon="5.96733">
        <ele>400.9</ele>
        <time>2021-09-09T14:01:14Z</time>
      </trkpt>
      <trkpt lat="44.03395" lon="5.96735">
        <ele>400.9</ele>
        <time>2021-09-09T14:01:15Z</time>
      </trkpt>
      <trkpt lat="44.03393" lon="5.96737">
        <ele>400.9</ele>
        <time>2021-09-09T14:01:17Z</time>
      </trkpt>
      <trkpt lat="44.03394" lon="5.96735">
        <ele>400.9</ele>
        <time>2021-09-09T14:01:19Z</time>
      </trkpt>
      <trkpt lat="44.03394" lon="5.96734">
        <ele>400.9</ele>
        <time>2021-09-09T14:01:20Z</time>
      </trkpt>
      <trkpt lat="44.03395" lon="5.96734">
        <ele>400.9</ele>
        <time>2021-09-09T14:01:21Z</time>
      </trkpt>
      <trkpt lat="44.03392" lon="5.96739">
        <ele>400.9</ele>
        <time>2021-09-09T14:01:22Z</time>
      </trkpt>
      <trkpt lat="44.03388" lon="5.96744">
        <ele>400.9</ele>
        <time>2021-09-09T14:01:23Z</time>
      </trkpt>
      <trkpt lat="44.03385" lon="5.96749">
        <ele>400.9</ele>
        <time>2021-09-09T14:01:24Z</time>
      </trkpt>
      <trkpt lat="44.03382" lon="5.96754">
        <ele>400.9</ele>
        <time>2021-09-09T14:01:26Z</time>
      </trkpt>
      <trkpt lat="44.03379" lon="5.96759">
        <ele>400.9</ele>
        <time>2021-09-09T14:02:57Z</time>
      </trkpt>
      <trkpt lat="44.03376" lon="5.96764">
        <ele>400.9</ele>
        <time>2021-09-09T14:02:58Z</time>
      </trkpt>
      <trkpt lat="44.03372" lon="5.9677">
        <ele>400.9</ele>
        <time>2021-09-09T14:02:59Z</time>
      </trkpt>
      <trkpt lat="44.03369" lon="5.96776">
        <ele>400.9</ele>
        <time>2021-09-09T14:03:01Z</time>
      </trkpt>
      <trkpt lat="44.03366" lon="5.9678">
        <ele>401</ele>
        <time>2021-09-09T14:03:02Z</time>
      </trkpt>
      <trkpt lat="44.03363" lon="5.96786">
        <ele>401</ele>
        <time>2021-09-09T14:03:03Z</time>
      </trkpt>
      <trkpt lat="44.03359" lon="5.96793">
        <ele>401</ele>
        <time>2021-09-09T14:03:04Z</time>
      </trkpt>
      <trkpt lat="44.03355" lon="5.96799">
        <ele>401</ele>
        <time>2021-09-09T14:03:05Z</time>
      </trkpt>
      <trkpt lat="44.03351" lon="5.96803">
        <ele>401</ele>
        <time>2021-09-09T14:03:07Z</time>
      </trkpt>
      <trkpt lat="44.03347" lon="5.96808">
        <ele>401</ele>
        <time>2021-09-09T14:03:08Z</time>
      </trkpt>
      <trkpt lat="44.03345" lon="5.96812">
        <ele>401</ele>
        <time>2021-09-09T14:03:09Z</time>
      </trkpt>
      <trkpt lat="44.03342" lon="5.96816">
        <ele>401</ele>
        <time>2021-09-09T14:03:10Z</time>
      </trkpt>
      <trkpt lat="44.03338" lon="5.9682">
        <ele>400.9</ele>
        <time>2021-09-09T14:03:12Z</time>
      </trkpt>
      <trkpt lat="44.03336" lon="5.96824">
        <ele>400.9</ele>
        <time>2021-09-09T14:03:13Z</time>
      </trkpt>
      <trkpt lat="44.03331" lon="5.96829">
        <ele>400.9</ele>
        <time>2021-09-09T14:03:14Z</time>
      </trkpt>
      <trkpt lat="44.03327" lon="5.96833">
        <ele>400.9</ele>
        <time>2021-09-09T14:03:16Z</time>
      </trkpt>
      <trkpt lat="44.03325" lon="5.96837">
        <ele>400.9</ele>
        <time>2021-09-09T14:03:17Z</time>
      </trkpt>
      <trkpt lat="44.03321" lon="5.96842">
        <ele>400.9</ele>
        <time>2021-09-09T14:03:18Z</time>
      </trkpt>
      <trkpt lat="44.03318" lon="5.96846">
        <ele>400.9</ele>
        <time>2021-09-09T14:03:19Z</time>
      </trkpt>
      <trkpt lat="44.03315" lon="5.96851">
        <ele>400.9</ele>
        <time>2021-09-09T14:03:21Z</time>
      </trkpt>
      <trkpt lat="44.03312" lon="5.96857">
        <ele>400.9</ele>
        <time>2021-09-09T14:03:22Z</time>
      </trkpt>
      <trkpt lat="44.03309" lon="5.96862">
        <ele>400.9</ele>
        <time>2021-09-09T14:03:24Z</time>
      </trkpt>
      <trkpt lat="44.03306" lon="5.96866">
        <ele>400.9</ele>
        <time>2021-09-09T14:03:25Z</time>
      </trkpt>
      <trkpt lat="44.03302" lon="5.96872">
        <ele>400.9</ele>
        <time>2021-09-09T14:03:27Z</time>
      </trkpt>
      <trkpt lat="44.03298" lon="5.96877">
        <ele>400.9</ele>
        <time>2021-09-09T14:03:28Z</time>
      </trkpt>
      <trkpt lat="44.03294" lon="5.96882">
        <ele>400.9</ele>
        <time>2021-09-09T14:03:30Z</time>
      </trkpt>
      <trkpt lat="44.0329" lon="5.96887">
        <ele>400.9</ele>
        <time>2021-09-09T14:03:31Z</time>
      </trkpt>
      <trkpt lat="44.03286" lon="5.96892">
        <ele>400.9</ele>
        <time>2021-09-09T14:03:33Z</time>
      </trkpt>
      <trkpt lat="44.03281" lon="5.96898">
        <ele>400.9</ele>
        <time>2021-09-09T14:03:34Z</time>
      </trkpt>
      <trkpt lat="44.03277" lon="5.96904">
        <ele>400.9</ele>
        <time>2021-09-09T14:03:36Z</time>
      </trkpt>
      <trkpt lat="44.03274" lon="5.96907">
        <ele>400.9</ele>
        <time>2021-09-09T14:03:37Z</time>
      </trkpt>
      <trkpt lat="44.03271" lon="5.96911">
        <ele>400.9</ele>
        <time>2021-09-09T14:03:38Z</time>
      </trkpt>
      <trkpt lat="44.03266" lon="5.96924">
        <ele>400.9</ele>
        <time>2021-09-09T14:03:40Z</time>
      </trkpt>
      <trkpt lat="44.03264" lon="5.9693">
        <ele>400.9</ele>
        <time>2021-09-09T14:03:41Z</time>
      </trkpt>
      <trkpt lat="44.0326" lon="5.96938">
        <ele>400.9</ele>
        <time>2021-09-09T14:03:42Z</time>
      </trkpt>
      <trkpt lat="44.03257" lon="5.96943">
        <ele>400.9</ele>
        <time>2021-09-09T14:03:43Z</time>
      </trkpt>
      <trkpt lat="44.03251" lon="5.9695">
        <ele>400.9</ele>
        <time>2021-09-09T14:03:45Z</time>
      </trkpt>
      <trkpt lat="44.03246" lon="5.96956">
        <ele>400.9</ele>
        <time>2021-09-09T14:03:47Z</time>
      </trkpt>
      <trkpt lat="44.03243" lon="5.9696">
        <ele>400.9</ele>
        <time>2021-09-09T14:03:48Z</time>
      </trkpt>
      <trkpt lat="44.03241" lon="5.96968">
        <ele>400.9</ele>
        <time>2021-09-09T14:03:49Z</time>
      </trkpt>
      <trkpt lat="44.03236" lon="5.96978">
        <ele>400.9</ele>
        <time>2021-09-09T14:03:52Z</time>
      </trkpt>
      <trkpt lat="44.03231" lon="5.96986">
        <ele>400.9</ele>
        <time>2021-09-09T14:03:54Z</time>
      </trkpt>
      <trkpt lat="44.03225" lon="5.96993">
        <ele>400.9</ele>
        <time>2021-09-09T14:03:56Z</time>
      </trkpt>
      <trkpt lat="44.0322" lon="5.97">
        <ele>400.9</ele>
        <time>2021-09-09T14:03:58Z</time>
      </trkpt>
      <trkpt lat="44.03218" lon="5.97004">
        <ele>400.9</ele>
        <time>2021-09-09T14:03:59Z</time>
      </trkpt>
      <trkpt lat="44.03214" lon="5.97013">
        <ele>400.9</ele>
        <time>2021-09-09T14:04:00Z</time>
      </trkpt>
      <trkpt lat="44.03211" lon="5.97018">
        <ele>400.9</ele>
        <time>2021-09-09T14:04:02Z</time>
      </trkpt>
      <trkpt lat="44.03209" lon="5.97021">
        <ele>400.9</ele>
        <time>2021-09-09T14:04:03Z</time>
      </trkpt>
      <trkpt lat="44.03206" lon="5.97024">
        <ele>400.9</ele>
        <time>2021-09-09T14:04:04Z</time>
      </trkpt>
      <trkpt lat="44.03204" lon="5.97027">
        <ele>400.9</ele>
        <time>2021-09-09T14:04:05Z</time>
      </trkpt>
      <trkpt lat="44.03199" lon="5.97032">
        <ele>400.9</ele>
        <time>2021-09-09T14:04:07Z</time>
      </trkpt>
      <trkpt lat="44.03197" lon="5.97034">
        <ele>400.9</ele>
        <time>2021-09-09T14:04:08Z</time>
      </trkpt>
      <trkpt lat="44.03194" lon="5.97037">
        <ele>400.9</ele>
        <time>2021-09-09T14:04:09Z</time>
      </trkpt>
      <trkpt lat="44.03188" lon="5.97044">
        <ele>400.9</ele>
        <time>2021-09-09T14:04:11Z</time>
      </trkpt>
      <trkpt lat="44.03185" lon="5.97047">
        <ele>400.9</ele>
        <time>2021-09-09T14:04:12Z</time>
      </trkpt>
      <trkpt lat="44.03182" lon="5.97051">
        <ele>400.9</ele>
        <time>2021-09-09T14:04:14Z</time>
      </trkpt>
      <trkpt lat="44.03178" lon="5.9705">
        <ele>400.9</ele>
        <time>2021-09-09T14:04:15Z</time>
      </trkpt>
      <trkpt lat="44.03174" lon="5.97049">
        <ele>400.8</ele>
        <time>2021-09-09T14:04:17Z</time>
      </trkpt>
      <trkpt lat="44.03171" lon="5.9705">
        <ele>400.8</ele>
        <time>2021-09-09T14:04:19Z</time>
      </trkpt>
      <trkpt lat="44.03167" lon="5.97054">
        <ele>400.8</ele>
        <time>2021-09-09T14:04:20Z</time>
      </trkpt>
      <trkpt lat="44.0316" lon="5.97065">
        <ele>400.8</ele>
        <time>2021-09-09T14:04:22Z</time>
      </trkpt>
      <trkpt lat="44.03157" lon="5.97071">
        <ele>400.8</ele>
        <time>2021-09-09T14:04:23Z</time>
      </trkpt>
      <trkpt lat="44.03153" lon="5.97084">
        <ele>400.8</ele>
        <time>2021-09-09T14:04:25Z</time>
      </trkpt>
      <trkpt lat="44.03149" lon="5.97093">
        <ele>400.8</ele>
        <time>2021-09-09T14:04:26Z</time>
      </trkpt>
      <trkpt lat="44.03146" lon="5.97099">
        <ele>400.9</ele>
        <time>2021-09-09T14:04:28Z</time>
      </trkpt>
      <trkpt lat="44.03145" lon="5.97104">
        <ele>400.9</ele>
        <time>2021-09-09T14:04:29Z</time>
      </trkpt>
      <trkpt lat="44.03145" lon="5.97107">
        <ele>400.9</ele>
        <time>2021-09-09T14:04:30Z</time>
      </trkpt>
      <trkpt lat="44.03145" lon="5.9711">
        <ele>400.9</ele>
        <time>2021-09-09T14:04:32Z</time>
      </trkpt>
      <trkpt lat="44.03145" lon="5.97116">
        <ele>400.9</ele>
        <time>2021-09-09T14:04:34Z</time>
      </trkpt>
      <trkpt lat="44.03144" lon="5.97121">
        <ele>400.9</ele>
        <time>2021-09-09T14:04:35Z</time>
      </trkpt>
      <trkpt lat="44.03142" lon="5.97128">
        <ele>401</ele>
        <time>2021-09-09T14:04:36Z</time>
      </trkpt>
      <trkpt lat="44.03136" lon="5.97141">
        <ele>401.1</ele>
        <time>2021-09-09T14:04:37Z</time>
      </trkpt>
      <trkpt lat="44.03131" lon="5.97151">
        <ele>401.1</ele>
        <time>2021-09-09T14:04:39Z</time>
      </trkpt>
      <trkpt lat="44.03125" lon="5.97165">
        <ele>401.2</ele>
        <time>2021-09-09T14:04:41Z</time>
      </trkpt>
      <trkpt lat="44.03122" lon="5.9717">
        <ele>401.2</ele>
        <time>2021-09-09T14:04:42Z</time>
      </trkpt>
      <trkpt lat="44.03119" lon="5.97175">
        <ele>401.2</ele>
        <time>2021-09-09T14:04:43Z</time>
      </trkpt>
      <trkpt lat="44.03116" lon="5.97179">
        <ele>401.3</ele>
        <time>2021-09-09T14:04:44Z</time>
      </trkpt>
      <trkpt lat="44.0311" lon="5.97184">
        <ele>401.3</ele>
        <time>2021-09-09T14:04:46Z</time>
      </trkpt>
      <trkpt lat="44.03105" lon="5.97186">
        <ele>401.4</ele>
        <time>2021-09-09T14:04:47Z</time>
      </trkpt>
      <trkpt lat="44.03102" lon="5.9719">
        <ele>401.4</ele>
        <time>2021-09-09T14:04:48Z</time>
      </trkpt>
      <trkpt lat="44.03099" lon="5.97194">
        <ele>401.5</ele>
        <time>2021-09-09T14:04:49Z</time>
      </trkpt>
      <trkpt lat="44.03095" lon="5.97205">
        <ele>401.6</ele>
        <time>2021-09-09T14:04:51Z</time>
      </trkpt>
      <trkpt lat="44.03094" lon="5.9721">
        <ele>401.7</ele>
        <time>2021-09-09T14:04:52Z</time>
      </trkpt>
      <trkpt lat="44.0309" lon="5.97215">
        <ele>401.9</ele>
        <time>2021-09-09T14:04:53Z</time>
      </trkpt>
      <trkpt lat="44.03087" lon="5.97216">
        <ele>401.9</ele>
        <time>2021-09-09T14:04:55Z</time>
      </trkpt>
      <trkpt lat="44.03085" lon="5.97218">
        <ele>402</ele>
        <time>2021-09-09T14:04:56Z</time>
      </trkpt>
      <trkpt lat="44.03082" lon="5.9722">
        <ele>402.1</ele>
        <time>2021-09-09T14:04:57Z</time>
      </trkpt>
      <trkpt lat="44.0308" lon="5.97222">
        <ele>402.1</ele>
        <time>2021-09-09T14:04:58Z</time>
      </trkpt>
      <trkpt lat="44.03079" lon="5.97224">
        <ele>402.2</ele>
        <time>2021-09-09T14:05:00Z</time>
      </trkpt>
      <trkpt lat="44.03076" lon="5.97228">
        <ele>402.3</ele>
        <time>2021-09-09T14:05:01Z</time>
      </trkpt>
      <trkpt lat="44.03073" lon="5.97233">
        <ele>402.5</ele>
        <time>2021-09-09T14:05:03Z</time>
      </trkpt>
      <trkpt lat="44.03052" lon="5.97256">
        <ele>403.4</ele>
        <time>2021-09-09T14:05:10Z</time>
      </trkpt>
      <trkpt lat="44.0305" lon="5.9726">
        <ele>403.5</ele>
        <time>2021-09-09T14:05:11Z</time>
      </trkpt>
      <trkpt lat="44.03049" lon="5.97262">
        <ele>403.5</ele>
        <time>2021-09-09T14:05:12Z</time>
      </trkpt>
      <trkpt lat="44.03047" lon="5.97265">
        <ele>403.6</ele>
        <time>2021-09-09T14:05:14Z</time>
      </trkpt>
      <trkpt lat="44.03047" lon="5.97267">
        <ele>403.7</ele>
        <time>2021-09-09T14:05:15Z</time>
      </trkpt>
      <trkpt lat="44.03046" lon="5.9727">
        <ele>403.8</ele>
        <time>2021-09-09T14:05:16Z</time>
      </trkpt>
      <trkpt lat="44.03046" lon="5.97274">
        <ele>403.9</ele>
        <time>2021-09-09T14:05:18Z</time>
      </trkpt>
      <trkpt lat="44.03046" lon="5.9728">
        <ele>404</ele>
        <time>2021-09-09T14:05:20Z</time>
      </trkpt>
      <trkpt lat="44.03046" lon="5.97283">
        <ele>404.1</ele>
        <time>2021-09-09T14:05:21Z</time>
      </trkpt>
      <trkpt lat="44.03046" lon="5.97289">
        <ele>404.3</ele>
        <time>2021-09-09T14:05:23Z</time>
      </trkpt>
      <trkpt lat="44.03045" lon="5.97292">
        <ele>404.4</ele>
        <time>2021-09-09T14:05:24Z</time>
      </trkpt>
      <trkpt lat="44.03045" lon="5.97293">
        <ele>404.4</ele>
        <time>2021-09-09T14:05:26Z</time>
      </trkpt>
      <trkpt lat="44.03045" lon="5.97294">
        <ele>404.4</ele>
        <time>2021-09-09T14:05:27Z</time>
      </trkpt>
      <trkpt lat="44.03036" lon="5.97305">
        <ele>404.8</ele>
        <time>2021-09-09T14:05:29Z</time>
      </trkpt>
      <trkpt lat="44.03033" lon="5.97317">
        <ele>405.2</ele>
        <time>2021-09-09T14:05:30Z</time>
      </trkpt>
      <trkpt lat="44.0303" lon="5.97324">
        <ele>405.4</ele>
        <time>2021-09-09T14:05:32Z</time>
      </trkpt>
      <trkpt lat="44.03029" lon="5.97328">
        <ele>405.6</ele>
        <time>2021-09-09T14:05:33Z</time>
      </trkpt>
      <trkpt lat="44.03028" lon="5.97331">
        <ele>405.7</ele>
        <time>2021-09-09T14:05:34Z</time>
      </trkpt>
      <trkpt lat="44.03027" lon="5.97335">
        <ele>405.8</ele>
        <time>2021-09-09T14:05:36Z</time>
      </trkpt>
      <trkpt lat="44.03025" lon="5.97341">
        <ele>406</ele>
        <time>2021-09-09T14:05:38Z</time>
      </trkpt>
      <trkpt lat="44.03024" lon="5.97342">
        <ele>406</ele>
        <time>2021-09-09T14:05:39Z</time>
      </trkpt>
      <trkpt lat="44.03024" lon="5.97344">
        <ele>406.1</ele>
        <time>2021-09-09T14:05:41Z</time>
      </trkpt>
      <trkpt lat="44.03023" lon="5.97346">
        <ele>406.2</ele>
        <time>2021-09-09T14:05:42Z</time>
      </trkpt>
      <trkpt lat="44.03022" lon="5.97348">
        <ele>406.2</ele>
        <time>2021-09-09T14:05:43Z</time>
      </trkpt>
      <trkpt lat="44.03021" lon="5.97352">
        <ele>406.3</ele>
        <time>2021-09-09T14:05:45Z</time>
      </trkpt>
      <trkpt lat="44.03019" lon="5.97355">
        <ele>406.5</ele>
        <time>2021-09-09T14:05:46Z</time>
      </trkpt>
      <trkpt lat="44.03017" lon="5.97359">
        <ele>406.6</ele>
        <time>2021-09-09T14:05:48Z</time>
      </trkpt>
      <trkpt lat="44.03015" lon="5.97361">
        <ele>406.7</ele>
        <time>2021-09-09T14:05:49Z</time>
      </trkpt>
      <trkpt lat="44.03008" lon="5.9737">
        <ele>407.1</ele>
        <time>2021-09-09T14:05:51Z</time>
      </trkpt>
      <trkpt lat="44.03002" lon="5.97377">
        <ele>407.3</ele>
        <time>2021-09-09T14:05:52Z</time>
      </trkpt>
      <trkpt lat="44.02996" lon="5.97384">
        <ele>407.4</ele>
        <time>2021-09-09T14:05:54Z</time>
      </trkpt>
      <trkpt lat="44.0299" lon="5.97391">
        <ele>407.5</ele>
        <time>2021-09-09T14:05:56Z</time>
      </trkpt>
      <trkpt lat="44.02984" lon="5.97398">
        <ele>407.4</ele>
        <time>2021-09-09T14:06:39Z</time>
      </trkpt>
      <trkpt lat="44.02978" lon="5.97405">
        <ele>407.5</ele>
        <time>2021-09-09T14:06:40Z</time>
      </trkpt>
      <trkpt lat="44.02976" lon="5.97411">
        <ele>408.2</ele>
        <time>2021-09-09T14:06:42Z</time>
      </trkpt>
      <trkpt lat="44.02975" lon="5.97417">
        <ele>408.6</ele>
        <time>2021-09-09T14:06:43Z</time>
      </trkpt>
      <trkpt lat="44.02974" lon="5.97424">
        <ele>408.9</ele>
        <time>2021-09-09T14:06:44Z</time>
      </trkpt>
      <trkpt lat="44.02974" lon="5.97431">
        <ele>409.1</ele>
        <time>2021-09-09T14:06:46Z</time>
      </trkpt>
      <trkpt lat="44.02973" lon="5.97436">
        <ele>409.3</ele>
        <time>2021-09-09T14:06:48Z</time>
      </trkpt>
      <trkpt lat="44.0297" lon="5.97443">
        <ele>409.5</ele>
        <time>2021-09-09T14:06:50Z</time>
      </trkpt>
      <trkpt lat="44.02968" lon="5.97448">
        <ele>409.7</ele>
        <time>2021-09-09T14:06:51Z</time>
      </trkpt>
      <trkpt lat="44.02968" lon="5.97449">
        <ele>409.7</ele>
        <time>2021-09-09T14:06:53Z</time>
      </trkpt>
      <trkpt lat="44.02969" lon="5.97452">
        <ele>409.8</ele>
        <time>2021-09-09T14:06:54Z</time>
      </trkpt>
      <trkpt lat="44.0297" lon="5.97455">
        <ele>410</ele>
        <time>2021-09-09T14:06:55Z</time>
      </trkpt>
      <trkpt lat="44.0297" lon="5.97457">
        <ele>410</ele>
        <time>2021-09-09T14:06:56Z</time>
      </trkpt>
      <trkpt lat="44.02969" lon="5.9746">
        <ele>410.1</ele>
        <time>2021-09-09T14:06:58Z</time>
      </trkpt>
      <trkpt lat="44.02969" lon="5.97461">
        <ele>410.2</ele>
        <time>2021-09-09T14:06:59Z</time>
      </trkpt>
      <trkpt lat="44.02969" lon="5.97465">
        <ele>410.4</ele>
        <time>2021-09-09T14:07:00Z</time>
      </trkpt>
      <trkpt lat="44.02945" lon="5.97496">
        <ele>412.7</ele>
        <time>2021-09-09T14:07:24Z</time>
      </trkpt>
      <trkpt lat="44.02942" lon="5.97499">
        <ele>413</ele>
        <time>2021-09-09T14:07:26Z</time>
      </trkpt>
      <trkpt lat="44.0294" lon="5.97502">
        <ele>413.1</ele>
        <time>2021-09-09T14:07:27Z</time>
      </trkpt>
      <trkpt lat="44.02939" lon="5.97506">
        <ele>413.3</ele>
        <time>2021-09-09T14:07:29Z</time>
      </trkpt>
      <trkpt lat="44.02937" lon="5.97511">
        <ele>413.5</ele>
        <time>2021-09-09T14:07:30Z</time>
      </trkpt>
      <trkpt lat="44.02936" lon="5.97512">
        <ele>413.6</ele>
        <time>2021-09-09T14:07:31Z</time>
      </trkpt>
      <trkpt lat="44.02935" lon="5.97514">
        <ele>413.7</ele>
        <time>2021-09-09T14:07:33Z</time>
      </trkpt>
      <trkpt lat="44.02933" lon="5.97516">
        <ele>413.8</ele>
        <time>2021-09-09T14:07:34Z</time>
      </trkpt>
      <trkpt lat="44.02931" lon="5.97522">
        <ele>414.1</ele>
        <time>2021-09-09T14:07:35Z</time>
      </trkpt>
      <trkpt lat="44.02929" lon="5.97535">
        <ele>414.7</ele>
        <time>2021-09-09T14:07:37Z</time>
      </trkpt>
      <trkpt lat="44.02927" lon="5.97546">
        <ele>415.4</ele>
        <time>2021-09-09T14:07:38Z</time>
      </trkpt>
      <trkpt lat="44.02926" lon="5.97553">
        <ele>415.7</ele>
        <time>2021-09-09T14:07:40Z</time>
      </trkpt>
      <trkpt lat="44.02923" lon="5.9756">
        <ele>416.4</ele>
        <time>2021-09-09T14:07:42Z</time>
      </trkpt>
      <trkpt lat="44.0292" lon="5.97566">
        <ele>416.5</ele>
        <time>2021-09-09T14:07:44Z</time>
      </trkpt>
      <trkpt lat="44.02919" lon="5.97571">
        <ele>416.6</ele>
        <time>2021-09-09T14:07:45Z</time>
      </trkpt>
      <trkpt lat="44.02919" lon="5.97576">
        <ele>416.7</ele>
        <time>2021-09-09T14:07:47Z</time>
      </trkpt>
      <trkpt lat="44.02919" lon="5.97578">
        <ele>416.8</ele>
        <time>2021-09-09T14:07:48Z</time>
      </trkpt>
      <trkpt lat="44.02917" lon="5.97581">
        <ele>416.9</ele>
        <time>2021-09-09T14:07:49Z</time>
      </trkpt>
      <trkpt lat="44.02916" lon="5.97583">
        <ele>416.9</ele>
        <time>2021-09-09T14:07:51Z</time>
      </trkpt>
      <trkpt lat="44.02916" lon="5.97586">
        <ele>417</ele>
        <time>2021-09-09T14:07:52Z</time>
      </trkpt>
      <trkpt lat="44.02917" lon="5.97588">
        <ele>417.4</ele>
        <time>2021-09-09T14:07:53Z</time>
      </trkpt>
      <trkpt lat="44.02919" lon="5.97592">
        <ele>417.4</ele>
        <time>2021-09-09T14:07:55Z</time>
      </trkpt>
      <trkpt lat="44.0292" lon="5.97594">
        <ele>417.5</ele>
        <time>2021-09-09T14:07:56Z</time>
      </trkpt>
      <trkpt lat="44.02919" lon="5.97598">
        <ele>417.5</ele>
        <time>2021-09-09T14:07:58Z</time>
      </trkpt>
      <trkpt lat="44.0292" lon="5.97599">
        <ele>417.5</ele>
        <time>2021-09-09T14:07:59Z</time>
      </trkpt>
      <trkpt lat="44.02921" lon="5.97602">
        <ele>417.6</ele>
        <time>2021-09-09T14:08:01Z</time>
      </trkpt>
      <trkpt lat="44.02921" lon="5.97605">
        <ele>417.6</ele>
        <time>2021-09-09T14:08:02Z</time>
      </trkpt>
      <trkpt lat="44.02922" lon="5.97606">
        <ele>417.6</ele>
        <time>2021-09-09T14:08:03Z</time>
      </trkpt>
      <trkpt lat="44.02921" lon="5.97607">
        <ele>417.7</ele>
        <time>2021-09-09T14:08:05Z</time>
      </trkpt>
      <trkpt lat="44.02921" lon="5.97608">
        <ele>417.7</ele>
        <time>2021-09-09T14:08:06Z</time>
      </trkpt>
      <trkpt lat="44.0292" lon="5.97609">
        <ele>417.7</ele>
        <time>2021-09-09T14:08:07Z</time>
      </trkpt>
      <trkpt lat="44.0292" lon="5.97611">
        <ele>417.7</ele>
        <time>2021-09-09T14:08:08Z</time>
      </trkpt>
      <trkpt lat="44.02912" lon="5.97618">
        <ele>418.8</ele>
        <time>2021-09-09T14:08:20Z</time>
      </trkpt>
      <trkpt lat="44.02909" lon="5.9762">
        <ele>419.1</ele>
        <time>2021-09-09T14:08:22Z</time>
      </trkpt>
      <trkpt lat="44.02905" lon="5.97623">
        <ele>419.3</ele>
        <time>2021-09-09T14:08:23Z</time>
      </trkpt>
      <trkpt lat="44.02901" lon="5.97626">
        <ele>419.6</ele>
        <time>2021-09-09T14:08:25Z</time>
      </trkpt>
      <trkpt lat="44.02896" lon="5.97634">
        <ele>420.1</ele>
        <time>2021-09-09T14:08:26Z</time>
      </trkpt>
      <trkpt lat="44.02893" lon="5.97642">
        <ele>420.5</ele>
        <time>2021-09-09T14:08:28Z</time>
      </trkpt>
      <trkpt lat="44.02891" lon="5.9765">
        <ele>420.9</ele>
        <time>2021-09-09T14:08:29Z</time>
      </trkpt>
      <trkpt lat="44.0289" lon="5.97652">
        <ele>421.1</ele>
        <time>2021-09-09T14:08:31Z</time>
      </trkpt>
      <trkpt lat="44.02889" lon="5.97655">
        <ele>421.2</ele>
        <time>2021-09-09T14:08:33Z</time>
      </trkpt>
      <trkpt lat="44.02872" lon="5.97776">
        <ele>428.9</ele>
        <time>2021-09-09T14:10:09Z</time>
      </trkpt>
      <trkpt lat="44.02866" lon="5.97785">
        <ele>429.3</ele>
        <time>2021-09-09T14:10:11Z</time>
      </trkpt>
      <trkpt lat="44.02863" lon="5.97791">
        <ele>429.6</ele>
        <time>2021-09-09T14:10:12Z</time>
      </trkpt>
      <trkpt lat="44.02861" lon="5.97795">
        <ele>429.8</ele>
        <time>2021-09-09T14:10:13Z</time>
      </trkpt>
      <trkpt lat="44.0286" lon="5.97804">
        <ele>430.2</ele>
        <time>2021-09-09T14:10:15Z</time>
      </trkpt>
      <trkpt lat="44.0286" lon="5.9781">
        <ele>430.5</ele>
        <time>2021-09-09T14:10:16Z</time>
      </trkpt>
      <trkpt lat="44.0286" lon="5.97816">
        <ele>430.8</ele>
        <time>2021-09-09T14:10:18Z</time>
      </trkpt>
      <trkpt lat="44.02859" lon="5.97818">
        <ele>430.9</ele>
        <time>2021-09-09T14:10:19Z</time>
      </trkpt>
      <trkpt lat="44.0286" lon="5.9782">
        <ele>431.1</ele>
        <time>2021-09-09T14:10:21Z</time>
      </trkpt>
      <trkpt lat="44.0286" lon="5.97824">
        <ele>431.2</ele>
        <time>2021-09-09T14:10:22Z</time>
      </trkpt>
      <trkpt lat="44.0286" lon="5.97825">
        <ele>431.3</ele>
        <time>2021-09-09T14:10:23Z</time>
      </trkpt>
      <trkpt lat="44.0286" lon="5.97827">
        <ele>431.5</ele>
        <time>2021-09-09T14:10:25Z</time>
      </trkpt>
      <trkpt lat="44.0286" lon="5.9783">
        <ele>431.6</ele>
        <time>2021-09-09T14:10:26Z</time>
      </trkpt>
      <trkpt lat="44.02859" lon="5.97834">
        <ele>431.8</ele>
        <time>2021-09-09T14:10:27Z</time>
      </trkpt>
      <trkpt lat="44.02858" lon="5.97836">
        <ele>432</ele>
        <time>2021-09-09T14:10:28Z</time>
      </trkpt>
      <trkpt lat="44.02857" lon="5.97841">
        <ele>432.3</ele>
        <time>2021-09-09T14:10:30Z</time>
      </trkpt>
      <trkpt lat="44.02856" lon="5.97848">
        <ele>432.9</ele>
        <time>2021-09-09T14:10:31Z</time>
      </trkpt>
      <trkpt lat="44.02857" lon="5.97855">
        <ele>433.4</ele>
        <time>2021-09-09T14:10:33Z</time>
      </trkpt>
      <trkpt lat="44.02857" lon="5.97861">
        <ele>433.7</ele>
        <time>2021-09-09T14:10:35Z</time>
      </trkpt>
      <trkpt lat="44.02856" lon="5.97865">
        <ele>433.9</ele>
        <time>2021-09-09T14:10:36Z</time>
      </trkpt>
      <trkpt lat="44.02855" lon="5.97869">
        <ele>434.2</ele>
        <time>2021-09-09T14:10:38Z</time>
      </trkpt>
      <trkpt lat="44.02855" lon="5.97875">
        <ele>434.5</ele>
        <time>2021-09-09T14:10:39Z</time>
      </trkpt>
      <trkpt lat="44.02856" lon="5.97878">
        <ele>434.7</ele>
        <time>2021-09-09T14:10:41Z</time>
      </trkpt>
      <trkpt lat="44.02855" lon="5.97878">
        <ele>434.8</ele>
        <time>2021-09-09T14:10:43Z</time>
      </trkpt>
      <trkpt lat="44.02855" lon="5.97878">
        <ele>434.8</ele>
        <time>2021-09-09T14:10:45Z</time>
      </trkpt>
      <trkpt lat="44.02855" lon="5.9788">
        <ele>434.9</ele>
        <time>2021-09-09T14:10:46Z</time>
      </trkpt>
      <trkpt lat="44.02855" lon="5.97881">
        <ele>434.9</ele>
        <time>2021-09-09T14:10:47Z</time>
      </trkpt>
      <trkpt lat="44.02855" lon="5.97883">
        <ele>435.1</ele>
        <time>2021-09-09T14:10:49Z</time>
      </trkpt>
      <trkpt lat="44.02856" lon="5.97886">
        <ele>435.2</ele>
        <time>2021-09-09T14:10:50Z</time>
      </trkpt>
      <trkpt lat="44.02856" lon="5.97887">
        <ele>435.3</ele>
        <time>2021-09-09T14:10:52Z</time>
      </trkpt>
      <trkpt lat="44.02853" lon="5.97896">
        <ele>435.9</ele>
        <time>2021-09-09T14:11:02Z</time>
      </trkpt>
      <trkpt lat="44.02853" lon="5.97897">
        <ele>436</ele>
        <time>2021-09-09T14:11:04Z</time>
      </trkpt>
      <trkpt lat="44.02852" lon="5.97898">
        <ele>436.1</ele>
        <time>2021-09-09T14:11:05Z</time>
      </trkpt>
      <trkpt lat="44.02852" lon="5.97901">
        <ele>436.2</ele>
        <time>2021-09-09T14:11:07Z</time>
      </trkpt>
      <trkpt lat="44.02851" lon="5.97908">
        <ele>436.6</ele>
        <time>2021-09-09T14:11:08Z</time>
      </trkpt>
      <trkpt lat="44.02852" lon="5.97915">
        <ele>437</ele>
        <time>2021-09-09T14:11:10Z</time>
      </trkpt>
      <trkpt lat="44.02852" lon="5.97919">
        <ele>437.3</ele>
        <time>2021-09-09T14:11:12Z</time>
      </trkpt>
      <trkpt lat="44.02853" lon="5.97922">
        <ele>437.4</ele>
        <time>2021-09-09T14:11:13Z</time>
      </trkpt>
      <trkpt lat="44.02854" lon="5.97924">
        <ele>437.5</ele>
        <time>2021-09-09T14:11:14Z</time>
      </trkpt>
      <trkpt lat="44.02854" lon="5.97928">
        <ele>437.8</ele>
        <time>2021-09-09T14:11:15Z</time>
      </trkpt>
      <trkpt lat="44.02853" lon="5.9793">
        <ele>437.9</ele>
        <time>2021-09-09T14:11:16Z</time>
      </trkpt>
      <trkpt lat="44.02852" lon="5.97933">
        <ele>438</ele>
        <time>2021-09-09T14:11:17Z</time>
      </trkpt>
      <trkpt lat="44.02851" lon="5.97939">
        <ele>438.3</ele>
        <time>2021-09-09T14:11:19Z</time>
      </trkpt>
      <trkpt lat="44.0285" lon="5.97942">
        <ele>438.4</ele>
        <time>2021-09-09T14:11:21Z</time>
      </trkpt>
      <trkpt lat="44.02849" lon="5.97943">
        <ele>438.6</ele>
        <time>2021-09-09T14:11:22Z</time>
      </trkpt>
      <trkpt lat="44.02848" lon="5.97946">
        <ele>438.7</ele>
        <time>2021-09-09T14:11:23Z</time>
      </trkpt>
      <trkpt lat="44.02847" lon="5.97951">
        <ele>438.8</ele>
        <time>2021-09-09T14:11:24Z</time>
      </trkpt>
      <trkpt lat="44.02846" lon="5.97955">
        <ele>439</ele>
        <time>2021-09-09T14:11:26Z</time>
      </trkpt>
      <trkpt lat="44.02846" lon="5.97956">
        <ele>439</ele>
        <time>2021-09-09T14:11:27Z</time>
      </trkpt>
      <trkpt lat="44.02846" lon="5.97965">
        <ele>439.3</ele>
        <time>2021-09-09T14:11:28Z</time>
      </trkpt>
      <trkpt lat="44.02846" lon="5.9797">
        <ele>439.4</ele>
        <time>2021-09-09T14:11:30Z</time>
      </trkpt>
      <trkpt lat="44.02846" lon="5.97975">
        <ele>439.6</ele>
        <time>2021-09-09T14:11:40Z</time>
      </trkpt>
      <trkpt lat="44.02845" lon="5.9798">
        <ele>439.8</ele>
        <time>2021-09-09T14:11:41Z</time>
      </trkpt>
      <trkpt lat="44.02844" lon="5.97987">
        <ele>440.1</ele>
        <time>2021-09-09T14:11:42Z</time>
      </trkpt>
      <trkpt lat="44.02844" lon="5.97993">
        <ele>440.4</ele>
        <time>2021-09-09T14:11:43Z</time>
      </trkpt>
      <trkpt lat="44.02844" lon="5.97999">
        <ele>440.7</ele>
        <time>2021-09-09T14:11:45Z</time>
      </trkpt>
      <trkpt lat="44.02843" lon="5.98004">
        <ele>440.9</ele>
        <time>2021-09-09T14:11:46Z</time>
      </trkpt>
      <trkpt lat="44.02843" lon="5.98009">
        <ele>441.2</ele>
        <time>2021-09-09T14:11:48Z</time>
      </trkpt>
      <trkpt lat="44.02843" lon="5.98014">
        <ele>441.4</ele>
        <time>2021-09-09T14:11:50Z</time>
      </trkpt>
      <trkpt lat="44.02841" lon="5.98018">
        <ele>441.6</ele>
        <time>2021-09-09T14:11:52Z</time>
      </trkpt>
      <trkpt lat="44.0284" lon="5.98019">
        <ele>441.7</ele>
        <time>2021-09-09T14:11:53Z</time>
      </trkpt>
      <trkpt lat="44.0284" lon="5.98022">
        <ele>441.9</ele>
        <time>2021-09-09T14:11:54Z</time>
      </trkpt>
      <trkpt lat="44.0284" lon="5.98024">
        <ele>442</ele>
        <time>2021-09-09T14:11:56Z</time>
      </trkpt>
      <trkpt lat="44.02841" lon="5.98027">
        <ele>442.2</ele>
        <time>2021-09-09T14:11:58Z</time>
      </trkpt>
      <trkpt lat="44.02841" lon="5.98029">
        <ele>442.3</ele>
        <time>2021-09-09T14:11:59Z</time>
      </trkpt>
      <trkpt lat="44.0284" lon="5.98031">
        <ele>442.4</ele>
        <time>2021-09-09T14:12:00Z</time>
      </trkpt>
      <trkpt lat="44.0284" lon="5.9803">
        <ele>442.5</ele>
        <time>2021-09-09T14:12:01Z</time>
      </trkpt>
      <trkpt lat="44.02842" lon="5.98032">
        <ele>442.6</ele>
        <time>2021-09-09T14:12:02Z</time>
      </trkpt>
      <trkpt lat="44.02842" lon="5.98035">
        <ele>442.8</ele>
        <time>2021-09-09T14:12:04Z</time>
      </trkpt>
      <trkpt lat="44.02843" lon="5.98039">
        <ele>443</ele>
        <time>2021-09-09T14:12:05Z</time>
      </trkpt>
      <trkpt lat="44.02842" lon="5.98042">
        <ele>443.2</ele>
        <time>2021-09-09T14:12:07Z</time>
      </trkpt>
      <trkpt lat="44.02843" lon="5.98043">
        <ele>443.3</ele>
        <time>2021-09-09T14:12:08Z</time>
      </trkpt>
      <trkpt lat="44.02843" lon="5.98044">
        <ele>443.3</ele>
        <time>2021-09-09T14:12:09Z</time>
      </trkpt>
      <trkpt lat="44.02844" lon="5.98048">
        <ele>443.2</ele>
        <time>2021-09-09T14:12:11Z</time>
      </trkpt>
      <trkpt lat="44.02845" lon="5.98049">
        <ele>443.1</ele>
        <time>2021-09-09T14:12:12Z</time>
      </trkpt>
      <trkpt lat="44.02846" lon="5.98052">
        <ele>443</ele>
        <time>2021-09-09T14:12:14Z</time>
      </trkpt>
      <trkpt lat="44.02847" lon="5.98053">
        <ele>442.9</ele>
        <time>2021-09-09T14:12:16Z</time>
      </trkpt>
      <trkpt lat="44.02849" lon="5.98054">
        <ele>442.9</ele>
        <time>2021-09-09T14:12:18Z</time>
      </trkpt>
      <trkpt lat="44.02849" lon="5.98054">
        <ele>442.9</ele>
        <time>2021-09-09T14:12:19Z</time>
      </trkpt>
      <trkpt lat="44.0285" lon="5.98037">
        <ele>442.3</ele>
        <time>2021-09-09T14:12:20Z</time>
      </trkpt>
      <trkpt lat="44.02852" lon="5.9802">
        <ele>441.7</ele>
        <time>2021-09-09T14:12:22Z</time>
      </trkpt>
      <trkpt lat="44.02853" lon="5.98004">
        <ele>440.9</ele>
        <time>2021-09-09T14:16:11Z</time>
      </trkpt>
      <trkpt lat="44.02854" lon="5.97987">
        <ele>440.2</ele>
        <time>2021-09-09T14:16:13Z</time>
      </trkpt>
      <trkpt lat="44.02854" lon="5.97977">
        <ele>439.8</ele>
        <time>2021-09-09T14:16:14Z</time>
      </trkpt>
      <trkpt lat="44.02853" lon="5.97959">
        <ele>439.1</ele>
        <time>2021-09-09T14:16:16Z</time>
      </trkpt>
      <trkpt lat="44.02853" lon="5.9795">
        <ele>438.8</ele>
        <time>2021-09-09T14:16:17Z</time>
      </trkpt>
      <trkpt lat="44.02853" lon="5.97941">
        <ele>438.4</ele>
        <time>2021-09-09T14:16:18Z</time>
      </trkpt>
      <trkpt lat="44.02853" lon="5.97924">
        <ele>437.6</ele>
        <time>2021-09-09T14:16:20Z</time>
      </trkpt>
      <trkpt lat="44.02853" lon="5.97918">
        <ele>437.2</ele>
        <time>2021-09-09T14:16:21Z</time>
      </trkpt>
      <trkpt lat="44.02853" lon="5.97914">
        <ele>436.9</ele>
        <time>2021-09-09T14:16:22Z</time>
      </trkpt>
      <trkpt lat="44.02851" lon="5.979">
        <ele>436.2</ele>
        <time>2021-09-09T14:16:24Z</time>
      </trkpt>
      <trkpt lat="44.02851" lon="5.97893">
        <ele>435.7</ele>
        <time>2021-09-09T14:16:25Z</time>
      </trkpt>
      <trkpt lat="44.02851" lon="5.97885">
        <ele>435.2</ele>
        <time>2021-09-09T14:16:26Z</time>
      </trkpt>
      <trkpt lat="44.0285" lon="5.9787">
        <ele>434.3</ele>
        <time>2021-09-09T14:16:28Z</time>
      </trkpt>
      <trkpt lat="44.02848" lon="5.97859">
        <ele>433.6</ele>
        <time>2021-09-09T14:16:30Z</time>
      </trkpt>
      <trkpt lat="44.02849" lon="5.97852">
        <ele>433.2</ele>
        <time>2021-09-09T14:16:31Z</time>
      </trkpt>
      <trkpt lat="44.02853" lon="5.9784">
        <ele>432.3</ele>
        <time>2021-09-09T14:16:33Z</time>
      </trkpt>
      <trkpt lat="44.02857" lon="5.97829">
        <ele>431.6</ele>
        <time>2021-09-09T14:16:35Z</time>
      </trkpt>
      <trkpt lat="44.0286" lon="5.97818">
        <ele>430.9</ele>
        <time>2021-09-09T14:16:37Z</time>
      </trkpt>
      <trkpt lat="44.02861" lon="5.97807">
        <ele>430.4</ele>
        <time>2021-09-09T14:16:39Z</time>
      </trkpt>
      <trkpt lat="44.02863" lon="5.97801">
        <ele>429.2</ele>
        <time>2021-09-09T14:16:40Z</time>
      </trkpt>
      <trkpt lat="44.02863" lon="5.97797">
        <ele>428.8</ele>
        <time>2021-09-09T14:16:41Z</time>
      </trkpt>
      <trkpt lat="44.02864" lon="5.97791">
        <ele>428.3</ele>
        <time>2021-09-09T14:16:42Z</time>
      </trkpt>
      <trkpt lat="44.02864" lon="5.97788">
        <ele>427.9</ele>
        <time>2021-09-09T14:16:43Z</time>
      </trkpt>
      <trkpt lat="44.02863" lon="5.97784">
        <ele>427.5</ele>
        <time>2021-09-09T14:16:44Z</time>
      </trkpt>
      <trkpt lat="44.02862" lon="5.97782">
        <ele>427.5</ele>
        <time>2021-09-09T14:16:45Z</time>
      </trkpt>
      <trkpt lat="44.02862" lon="5.97784">
        <ele>427.5</ele>
        <time>2021-09-09T14:16:47Z</time>
      </trkpt>
      <trkpt lat="44.02864" lon="5.97782">
        <ele>427.5</ele>
        <time>2021-09-09T14:16:49Z</time>
      </trkpt>
      <trkpt lat="44.02863" lon="5.97783">
        <ele>427.5</ele>
        <time>2021-09-09T14:16:50Z</time>
      </trkpt>
      <trkpt lat="44.02862" lon="5.97784">
        <ele>427.5</ele>
        <time>2021-09-09T14:16:52Z</time>
      </trkpt>
      <trkpt lat="44.02863" lon="5.97783">
        <ele>427.5</ele>
        <time>2021-09-09T14:16:53Z</time>
      </trkpt>
      <trkpt lat="44.02863" lon="5.97782">
        <ele>427.6</ele>
        <time>2021-09-09T14:16:55Z</time>
      </trkpt>
      <trkpt lat="44.02881" lon="5.97609">
        <ele>411.3</ele>
        <time>2021-09-09T14:22:24Z</time>
      </trkpt>
      <trkpt lat="44.02882" lon="5.97607">
        <ele>411.1</ele>
        <time>2021-09-09T14:22:26Z</time>
      </trkpt>
      <trkpt lat="44.02881" lon="5.97605">
        <ele>411.1</ele>
        <time>2021-09-09T14:22:27Z</time>
      </trkpt>
      <trkpt lat="44.02881" lon="5.97604">
        <ele>410.9</ele>
        <time>2021-09-09T14:22:29Z</time>
      </trkpt>
      <trkpt lat="44.0288" lon="5.97603">
        <ele>410.9</ele>
        <time>2021-09-09T14:22:31Z</time>
      </trkpt>
      <trkpt lat="44.0288" lon="5.97603">
        <ele>411</ele>
        <time>2021-09-09T14:22:32Z</time>
      </trkpt>
      <trkpt lat="44.0288" lon="5.97602">
        <ele>411</ele>
        <time>2021-09-09T14:22:34Z</time>
      </trkpt>
      <trkpt lat="44.0288" lon="5.97601">
        <ele>411</ele>
        <time>2021-09-09T14:22:36Z</time>
      </trkpt>
      <trkpt lat="44.0288" lon="5.97601">
        <ele>411</ele>
        <time>2021-09-09T14:22:38Z</time>
      </trkpt>
      <trkpt lat="44.02879" lon="5.976">
        <ele>410.7</ele>
        <time>2021-09-09T14:22:39Z</time>
      </trkpt>
      <trkpt lat="44.0287" lon="5.97595">
        <ele>410.6</ele>
        <time>2021-09-09T14:22:41Z</time>
      </trkpt>
      <trkpt lat="44.0286" lon="5.9759">
        <ele>410.9</ele>
        <time>2021-09-09T14:22:43Z</time>
      </trkpt>
      <trkpt lat="44.02857" lon="5.97588">
        <ele>411.1</ele>
        <time>2021-09-09T14:22:44Z</time>
      </trkpt>
      <trkpt lat="44.02855" lon="5.97588">
        <ele>411.3</ele>
        <time>2021-09-09T14:22:45Z</time>
      </trkpt>
      <trkpt lat="44.02853" lon="5.97587">
        <ele>410.9</ele>
        <time>2021-09-09T14:22:47Z</time>
      </trkpt>
      <trkpt lat="44.02853" lon="5.97588">
        <ele>411.3</ele>
        <time>2021-09-09T14:22:49Z</time>
      </trkpt>
      <trkpt lat="44.02853" lon="5.97588">
        <ele>411.5</ele>
        <time>2021-09-09T14:22:50Z</time>
      </trkpt>
      <trkpt lat="44.02852" lon="5.97588">
        <ele>411.6</ele>
        <time>2021-09-09T14:22:52Z</time>
      </trkpt>
      <trkpt lat="44.02852" lon="5.97588">
        <ele>411.6</ele>
        <time>2021-09-09T14:22:54Z</time>
      </trkpt>
      <trkpt lat="44.02852" lon="5.97589">
        <ele>411.6</ele>
        <time>2021-09-09T14:22:55Z</time>
      </trkpt>
      <trkpt lat="44.02851" lon="5.97589">
        <ele>411.6</ele>
        <time>2021-09-09T14:22:57Z</time>
      </trkpt>
      <trkpt lat="44.02851" lon="5.97589">
        <ele>411.6</ele>
        <time>2021-09-09T14:22:58Z</time>
      </trkpt>
      <trkpt lat="44.02851" lon="5.97589">
        <ele>411.6</ele>
        <time>2021-09-09T14:23:00Z</time>
      </trkpt>
      <trkpt lat="44.0285" lon="5.9759">
        <ele>411.6</ele>
        <time>2021-09-09T14:23:02Z</time>
      </trkpt>
      <trkpt lat="44.0285" lon="5.9759">
        <ele>411.6</ele>
        <time>2021-09-09T14:23:03Z</time>
      </trkpt>
      <trkpt lat="44.0285" lon="5.9759">
        <ele>411.7</ele>
        <time>2021-09-09T14:23:05Z</time>
      </trkpt>
      <trkpt lat="44.02849" lon="5.9759">
        <ele>411.9</ele>
        <time>2021-09-09T14:23:07Z</time>
      </trkpt>
      <trkpt lat="44.02849" lon="5.97591">
        <ele>411.9</ele>
        <time>2021-09-09T14:23:08Z</time>
      </trkpt>
      <trkpt lat="44.02849" lon="5.97591">
        <ele>411.9</ele>
        <time>2021-09-09T14:23:10Z</time>
      </trkpt>
      <trkpt lat="44.02849" lon="5.97591">
        <ele>411.9</ele>
        <time>2021-09-09T14:23:11Z</time>
      </trkpt>
      <trkpt lat="44.02848" lon="5.97591">
        <ele>411.9</ele>
        <time>2021-09-09T14:23:13Z</time>
      </trkpt>
      <trkpt lat="44.02848" lon="5.97592">
        <ele>411.9</ele>
        <time>2021-09-09T14:23:15Z</time>
      </trkpt>
      <trkpt lat="44.02848" lon="5.97592">
        <ele>412</ele>
        <time>2021-09-09T14:23:16Z</time>
      </trkpt>
      <trkpt lat="44.02847" lon="5.97592">
        <ele>412.3</ele>
        <time>2021-09-09T14:23:18Z</time>
      </trkpt>
      <trkpt lat="44.02847" lon="5.97592">
        <ele>412.4</ele>
        <time>2021-09-09T14:23:19Z</time>
      </trkpt>
      <trkpt lat="44.02844" lon="5.97593">
        <ele>412.6</ele>
        <time>2021-09-09T14:23:20Z</time>
      </trkpt>
      <trkpt lat="44.02843" lon="5.97593">
        <ele>413</ele>
        <time>2021-09-09T14:23:21Z</time>
      </trkpt>
      <trkpt lat="44.02842" lon="5.97595">
        <ele>413</ele>
        <time>2021-09-09T14:23:23Z</time>
      </trkpt>
      <trkpt lat="44.02842" lon="5.97595">
        <ele>413</ele>
        <time>2021-09-09T14:23:24Z</time>
      </trkpt>
      <trkpt lat="44.02842" lon="5.97595">
        <ele>413</ele>
        <time>2021-09-09T14:23:26Z</time>
      </trkpt>
      <trkpt lat="44.02842" lon="5.97595">
        <ele>413</ele>
        <time>2021-09-09T14:23:28Z</time>
      </trkpt>
      <trkpt lat="44.02842" lon="5.97595">
        <ele>413</ele>
        <time>2021-09-09T14:23:30Z</time>
      </trkpt>
      <trkpt lat="44.02842" lon="5.97595">
        <ele>413.1</ele>
        <time>2021-09-09T14:23:31Z</time>
      </trkpt>
      <trkpt lat="44.02842" lon="5.97595">
        <ele>413.1</ele>
        <time>2021-09-09T14:23:33Z</time>
      </trkpt>
      <trkpt lat="44.02842" lon="5.97595">
        <ele>413.1</ele>
        <time>2021-09-09T14:23:34Z</time>
      </trkpt>
      <trkpt lat="44.02842" lon="5.97595">
        <ele>413.1</ele>
        <time>2021-09-09T14:23:35Z</time>
      </trkpt>
      <trkpt lat="44.02842" lon="5.97595">
        <ele>413.1</ele>
        <time>2021-09-09T14:23:36Z</time>
      </trkpt>
      <trkpt lat="44.02842" lon="5.97595">
        <ele>413.1</ele>
        <time>2021-09-09T14:23:37Z</time>
      </trkpt>
      <trkpt lat="44.02842" lon="5.97595">
        <ele>413.1</ele>
        <time>2021-09-09T14:23:39Z</time>
      </trkpt>
      <trkpt lat="44.02842" lon="5.97595">
        <ele>413.2</ele>
        <time>2021-09-09T14:23:40Z</time>
      </trkpt>
      <trkpt lat="44.02842" lon="5.97595">
        <ele>413.2</ele>
        <time>2021-09-09T14:23:42Z</time>
      </trkpt>
      <trkpt lat="44.02842" lon="5.97595">
        <ele>413.2</ele>
        <time>2021-09-09T14:23:43Z</time>
      </trkpt>
      <trkpt lat="44.02842" lon="5.97595">
        <ele>413.2</ele>
        <time>2021-09-09T14:23:45Z</time>
      </trkpt>
      <trkpt lat="44.02842" lon="5.97595">
        <ele>413.2</ele>
        <time>2021-09-09T14:23:46Z</time>
      </trkpt>
      <trkpt lat="44.02842" lon="5.97595">
        <ele>413.2</ele>
        <time>2021-09-09T14:23:47Z</time>
      </trkpt>
      <trkpt lat="44.02842" lon="5.97595">
        <ele>413.2</ele>
        <time>2021-09-09T14:23:49Z</time>
      </trkpt>
      <trkpt lat="44.02842" lon="5.97595">
        <ele>413.2</ele>
        <time>2021-09-09T14:23:50Z</time>
      </trkpt>
      <trkpt lat="44.02842" lon="5.97595">
        <ele>413.3</ele>
        <time>2021-09-09T14:23:52Z</time>
      </trkpt>
      <trkpt lat="44.02842" lon="5.97595">
        <ele>413.3</ele>
        <time>2021-09-09T14:23:54Z</time>
      </trkpt>
      <trkpt lat="44.02842" lon="5.97595">
        <ele>413.3</ele>
        <time>2021-09-09T14:23:56Z</time>
      </trkpt>
      <trkpt lat="44.02842" lon="5.97595">
        <ele>413.3</ele>
        <time>2021-09-09T14:23:58Z</time>
      </trkpt>
      <trkpt lat="44.02842" lon="5.97595">
        <ele>413.3</ele>
        <time>2021-09-09T14:24:00Z</time>
      </trkpt>
      <trkpt lat="44.02842" lon="5.97594">
        <ele>413.3</ele>
        <time>2021-09-09T14:24:02Z</time>
      </trkpt>
      <trkpt lat="44.02842" lon="5.97594">
        <ele>413.3</ele>
        <time>2021-09-09T14:24:03Z</time>
      </trkpt>
      <trkpt lat="44.02842" lon="5.97594">
        <ele>413.3</ele>
        <time>2021-09-09T14:24:05Z</time>
      </trkpt>
      <trkpt lat="44.02842" lon="5.97594">
        <ele>413.4</ele>
        <time>2021-09-09T14:24:06Z</time>
      </trkpt>
      <trkpt lat="44.02843" lon="5.97592">
        <ele>413.4</ele>
        <time>2021-09-09T14:24:08Z</time>
      </trkpt>
      <trkpt lat="44.02843" lon="5.97592">
        <ele>413.4</ele>
        <time>2021-09-09T14:24:09Z</time>
      </trkpt>
      <trkpt lat="44.02843" lon="5.97592">
        <ele>413.4</ele>
        <time>2021-09-09T14:24:11Z</time>
      </trkpt>
      <trkpt lat="44.02843" lon="5.97592">
        <ele>413.4</ele>
        <time>2021-09-09T14:24:13Z</time>
      </trkpt>
      <trkpt lat="44.02843" lon="5.97592">
        <ele>413.1</ele>
        <time>2021-09-09T14:24:14Z</time>
      </trkpt>
      <trkpt lat="44.02843" lon="5.97592">
        <ele>413.1</ele>
        <time>2021-09-09T14:24:15Z</time>
      </trkpt>
      <trkpt lat="44.02843" lon="5.97592">
        <ele>413.1</ele>
        <time>2021-09-09T14:24:17Z</time>
      </trkpt>
      <trkpt lat="44.02852" lon="5.97591">
        <ele>412.3</ele>
        <time>2021-09-09T14:24:19Z</time>
      </trkpt>
      <trkpt lat="44.02853" lon="5.97588">
        <ele>412.1</ele>
        <time>2021-09-09T14:24:20Z</time>
      </trkpt>
      <trkpt lat="44.02854" lon="5.97588">
        <ele>412.1</ele>
        <time>2021-09-09T14:24:21Z</time>
      </trkpt>
      <trkpt lat="44.02853" lon="5.97583">
        <ele>411.4</ele>
        <time>2021-09-09T14:24:23Z</time>
      </trkpt>
      <trkpt lat="44.02853" lon="5.97582">
        <ele>411.4</ele>
        <time>2021-09-09T14:24:24Z</time>
      </trkpt>
      <trkpt lat="44.02851" lon="5.97579">
        <ele>411.3</ele>
        <time>2021-09-09T14:24:26Z</time>
      </trkpt>
      <trkpt lat="44.0285" lon="5.97577">
        <ele>411.3</ele>
        <time>2021-09-09T14:24:27Z</time>
      </trkpt>
      <trkpt lat="44.02849" lon="5.97575">
        <ele>411.5</ele>
        <time>2021-09-09T14:24:28Z</time>
      </trkpt>
      <trkpt lat="44.02848" lon="5.97574">
        <ele>411.2</ele>
        <time>2021-09-09T14:24:30Z</time>
      </trkpt>
      <trkpt lat="44.02846" lon="5.97572">
        <ele>411.2</ele>
        <time>2021-09-09T14:24:32Z</time>
      </trkpt>
      <trkpt lat="44.02845" lon="5.9757">
        <ele>411.2</ele>
        <time>2021-09-09T14:24:33Z</time>
      </trkpt>
      <trkpt lat="44.02847" lon="5.97573">
        <ele>411.2</ele>
        <time>2021-09-09T14:24:34Z</time>
      </trkpt>
      <trkpt lat="44.02849" lon="5.97575">
        <ele>411.6</ele>
        <time>2021-09-09T14:24:35Z</time>
      </trkpt>
      <trkpt lat="44.0285" lon="5.97578">
        <ele>411.4</ele>
        <time>2021-09-09T14:24:37Z</time>
      </trkpt>
      <trkpt lat="44.02851" lon="5.97579">
        <ele>411.7</ele>
        <time>2021-09-09T14:24:39Z</time>
      </trkpt>
      <trkpt lat="44.02854" lon="5.97583">
        <ele>411.5</ele>
        <time>2021-09-09T14:24:41Z</time>
      </trkpt>
      <trkpt lat="44.02856" lon="5.97585">
        <ele>411.7</ele>
        <time>2021-09-09T14:24:42Z</time>
      </trkpt>
      <trkpt lat="44.02859" lon="5.97587">
        <ele>411.5</ele>
        <time>2021-09-09T14:24:44Z</time>
      </trkpt>
      <trkpt lat="44.02859" lon="5.97588">
        <ele>411.5</ele>
        <time>2021-09-09T14:24:45Z</time>
      </trkpt>
      <trkpt lat="44.0286" lon="5.97588">
        <ele>411.9</ele>
        <time>2021-09-09T14:24:46Z</time>
      </trkpt>
      <trkpt lat="44.02862" lon="5.97588">
        <ele>411.7</ele>
        <time>2021-09-09T14:24:48Z</time>
      </trkpt>
      <trkpt lat="44.02863" lon="5.97588">
        <ele>411.7</ele>
        <time>2021-09-09T14:24:49Z</time>
      </trkpt>
      <trkpt lat="44.02864" lon="5.97588">
        <ele>411.7</ele>
        <time>2021-09-09T14:24:51Z</time>
      </trkpt>
      <trkpt lat="44.02863" lon="5.97589">
        <ele>411.7</ele>
        <time>2021-09-09T14:24:53Z</time>
      </trkpt>
      <trkpt lat="44.02862" lon="5.97591">
        <ele>412</ele>
        <time>2021-09-09T14:24:54Z</time>
      </trkpt>
      <trkpt lat="44.02861" lon="5.97593">
        <ele>412.3</ele>
        <time>2021-09-09T14:24:56Z</time>
      </trkpt>
      <trkpt lat="44.0286" lon="5.97593">
        <ele>412.3</ele>
        <time>2021-09-09T14:24:57Z</time>
      </trkpt>
      <trkpt lat="44.0286" lon="5.97594">
        <ele>412.4</ele>
        <time>2021-09-09T14:24:58Z</time>
      </trkpt>
      <trkpt lat="44.0286" lon="5.97596">
        <ele>412.4</ele>
        <time>2021-09-09T14:25:00Z</time>
      </trkpt>
      <trkpt lat="44.0286" lon="5.97597">
        <ele>412.7</ele>
        <time>2021-09-09T14:25:01Z</time>
      </trkpt>
      <trkpt lat="44.0286" lon="5.97598">
        <ele>412.7</ele>
        <time>2021-09-09T14:25:03Z</time>
      </trkpt>
      <trkpt lat="44.02861" lon="5.97598">
        <ele>412.8</ele>
        <time>2021-09-09T14:25:04Z</time>
      </trkpt>
      <trkpt lat="44.02861" lon="5.97599">
        <ele>412.8</ele>
        <time>2021-09-09T14:25:05Z</time>
      </trkpt>
      <trkpt lat="44.02861" lon="5.976">
        <ele>412.8</ele>
        <time>2021-09-09T14:25:06Z</time>
      </trkpt>
      <trkpt lat="44.02862" lon="5.976">
        <ele>412.6</ele>
        <time>2021-09-09T14:25:08Z</time>
      </trkpt>
      <trkpt lat="44.02863" lon="5.97601">
        <ele>412.9</ele>
        <time>2021-09-09T14:25:09Z</time>
      </trkpt>
      <trkpt lat="44.0287" lon="5.976">
        <ele>412.2</ele>
        <time>2021-09-09T14:25:11Z</time>
      </trkpt>
      <trkpt lat="44.02874" lon="5.976">
        <ele>412.1</ele>
        <time>2021-09-09T14:25:12Z</time>
      </trkpt>
      <trkpt lat="44.02878" lon="5.97601">
        <ele>412.3</ele>
        <time>2021-09-09T14:25:14Z</time>
      </trkpt>
      <trkpt lat="44.02875" lon="5.97607">
        <ele>412.7</ele>
        <time>2021-09-09T14:25:16Z</time>
      </trkpt>
      <trkpt lat="44.02871" lon="5.97611">
        <ele>413</ele>
        <time>2021-09-09T14:25:18Z</time>
      </trkpt>
      <trkpt lat="44.0287" lon="5.97612">
        <ele>413.2</ele>
        <time>2021-09-09T14:25:19Z</time>
      </trkpt>
      <trkpt lat="44.02871" lon="5.97613">
        <ele>413.2</ele>
        <time>2021-09-09T14:25:21Z</time>
      </trkpt>
      <trkpt lat="44.02871" lon="5.97613">
        <ele>413.2</ele>
        <time>2021-09-09T14:25:22Z</time>
      </trkpt>
      <trkpt lat="44.02871" lon="5.97613">
        <ele>413.2</ele>
        <time>2021-09-09T14:25:23Z</time>
      </trkpt>
      <trkpt lat="44.02871" lon="5.97613">
        <ele>413.2</ele>
        <time>2021-09-09T14:25:25Z</time>
      </trkpt>
      <trkpt lat="44.02871" lon="5.97613">
        <ele>413.2</ele>
        <time>2021-09-09T14:25:26Z</time>
      </trkpt>
      <trkpt lat="44.02879" lon="5.97614">
        <ele>413.2</ele>
        <time>2021-09-09T14:25:28Z</time>
      </trkpt>
      <trkpt lat="44.02882" lon="5.97614">
        <ele>413.1</ele>
        <time>2021-09-09T14:25:29Z</time>
      </trkpt>
      <trkpt lat="44.02884" lon="5.97614">
        <ele>412.9</ele>
        <time>2021-09-09T14:25:30Z</time>
      </trkpt>
      <trkpt lat="44.02886" lon="5.97615">
        <ele>413</ele>
        <time>2021-09-09T14:25:32Z</time>
      </trkpt>
      <trkpt lat="44.02887" lon="5.97615">
        <ele>412.8</ele>
        <time>2021-09-09T14:25:34Z</time>
      </trkpt>
      <trkpt lat="44.02887" lon="5.97615">
        <ele>412.8</ele>
        <time>2021-09-09T14:25:36Z</time>
      </trkpt>
      <trkpt lat="44.02887" lon="5.97615">
        <ele>412.8</ele>
        <time>2021-09-09T14:25:37Z</time>
      </trkpt>
      <trkpt lat="44.02887" lon="5.97615">
        <ele>412.8</ele>
        <time>2021-09-09T14:25:38Z</time>
      </trkpt>
      <trkpt lat="44.02887" lon="5.97615">
        <ele>412.9</ele>
        <time>2021-09-09T14:25:40Z</time>
      </trkpt>
      <trkpt lat="44.02887" lon="5.97615">
        <ele>412.9</ele>
        <time>2021-09-09T14:25:41Z</time>
      </trkpt>
      <trkpt lat="44.02887" lon="5.97615">
        <ele>412.9</ele>
        <time>2021-09-09T14:25:43Z</time>
      </trkpt>
      <trkpt lat="44.02887" lon="5.97615">
        <ele>412.9</ele>
        <time>2021-09-09T14:25:44Z</time>
      </trkpt>
      <trkpt lat="44.02887" lon="5.97615">
        <ele>412.9</ele>
        <time>2021-09-09T14:25:46Z</time>
      </trkpt>
      <trkpt lat="44.02887" lon="5.97615">
        <ele>412.9</ele>
        <time>2021-09-09T14:25:48Z</time>
      </trkpt>
      <trkpt lat="44.02887" lon="5.97615">
        <ele>412.9</ele>
        <time>2021-09-09T14:25:50Z</time>
      </trkpt>
      <trkpt lat="44.02887" lon="5.97615">
        <ele>412.9</ele>
        <time>2021-09-09T14:25:51Z</time>
      </trkpt>
      <trkpt lat="44.02887" lon="5.97615">
        <ele>413</ele>
        <time>2021-09-09T14:25:53Z</time>
      </trkpt>
      <trkpt lat="44.02887" lon="5.97615">
        <ele>413</ele>
        <time>2021-09-09T14:25:54Z</time>
      </trkpt>
      <trkpt lat="44.02887" lon="5.97615">
        <ele>413</ele>
        <time>2021-09-09T14:25:56Z</time>
      </trkpt>
      <trkpt lat="44.02887" lon="5.97615">
        <ele>413</ele>
        <time>2021-09-09T14:25:57Z</time>
      </trkpt>
      <trkpt lat="44.02887" lon="5.97615">
        <ele>413</ele>
        <time>2021-09-09T14:25:59Z</time>
      </trkpt>
      <trkpt lat="44.02887" lon="5.97615">
        <ele>413</ele>
        <time>2021-09-09T14:26:01Z</time>
      </trkpt>
      <trkpt lat="44.02887" lon="5.97615">
        <ele>413</ele>
        <time>2021-09-09T14:26:02Z</time>
      </trkpt>
      <trkpt lat="44.02887" lon="5.97615">
        <ele>413</ele>
        <time>2021-09-09T14:26:04Z</time>
      </trkpt>
      <trkpt lat="44.0289" lon="5.97614">
        <ele>413.1</ele>
        <time>2021-09-09T14:26:05Z</time>
      </trkpt>
      <trkpt lat="44.02892" lon="5.97614">
        <ele>412.9</ele>
        <time>2021-09-09T14:26:06Z</time>
      </trkpt>
      <trkpt lat="44.02894" lon="5.97611">
        <ele>412.6</ele>
        <time>2021-09-09T14:26:08Z</time>
      </trkpt>
      <trkpt lat="44.02895" lon="5.9761">
        <ele>412.6</ele>
        <time>2021-09-09T14:26:10Z</time>
      </trkpt>
      <trkpt lat="44.02895" lon="5.9761">
        <ele>412.6</ele>
        <time>2021-09-09T14:26:11Z</time>
      </trkpt>
      <trkpt lat="44.02896" lon="5.97611">
        <ele>412.6</ele>
        <time>2021-09-09T14:26:13Z</time>
      </trkpt>
      <trkpt lat="44.02896" lon="5.97611">
        <ele>412.5</ele>
        <time>2021-09-09T14:26:14Z</time>
      </trkpt>
      <trkpt lat="44.02896" lon="5.97611">
        <ele>412.5</ele>
        <time>2021-09-09T14:26:15Z</time>
      </trkpt>
      <trkpt lat="44.02896" lon="5.97611">
        <ele>412.5</ele>
        <time>2021-09-09T14:26:16Z</time>
      </trkpt>
      <trkpt lat="44.02896" lon="5.97611">
        <ele>412.5</ele>
        <time>2021-09-09T14:26:18Z</time>
      </trkpt>
      <trkpt lat="44.02896" lon="5.97611">
        <ele>412.6</ele>
        <time>2021-09-09T14:26:20Z</time>
      </trkpt>
      <trkpt lat="44.02896" lon="5.97611">
        <ele>412.6</ele>
        <time>2021-09-09T14:26:22Z</time>
      </trkpt>
      <trkpt lat="44.02896" lon="5.97611">
        <ele>412.6</ele>
        <time>2021-09-09T14:26:23Z</time>
      </trkpt>
      <trkpt lat="44.02896" lon="5.97611">
        <ele>412.6</ele>
        <time>2021-09-09T14:26:25Z</time>
      </trkpt>
      <trkpt lat="44.02896" lon="5.97611">
        <ele>412.6</ele>
        <time>2021-09-09T14:26:26Z</time>
      </trkpt>
      <trkpt lat="44.02888" lon="5.97609">
        <ele>412.8</ele>
        <time>2021-09-09T14:26:28Z</time>
      </trkpt>
      <trkpt lat="44.02884" lon="5.97608">
        <ele>413</ele>
        <time>2021-09-09T14:26:29Z</time>
      </trkpt>
      <trkpt lat="44.02881" lon="5.97608">
        <ele>413.1</ele>
        <time>2021-09-09T14:26:31Z</time>
      </trkpt>
      <trkpt lat="44.02881" lon="5.97608">
        <ele>413.1</ele>
        <time>2021-09-09T14:26:32Z</time>
      </trkpt>
      <trkpt lat="44.02881" lon="5.97608">
        <ele>413.2</ele>
        <time>2021-09-09T14:26:34Z</time>
      </trkpt>
      <trkpt lat="44.0288" lon="5.97608">
        <ele>413.2</ele>
        <time>2021-09-09T14:26:35Z</time>
      </trkpt>
      <trkpt lat="44.0288" lon="5.97608">
        <ele>413.3</ele>
        <time>2021-09-09T14:26:36Z</time>
      </trkpt>
      <trkpt lat="44.0288" lon="5.97607">
        <ele>413.3</ele>
        <time>2021-09-09T14:26:38Z</time>
      </trkpt>
      <trkpt lat="44.0288" lon="5.97607">
        <ele>413.3</ele>
        <time>2021-09-09T14:26:39Z</time>
      </trkpt>
      <trkpt lat="44.0288" lon="5.97607">
        <ele>413.3</ele>
        <time>2021-09-09T14:26:41Z</time>
      </trkpt>
      <trkpt lat="44.0288" lon="5.97607">
        <ele>413.3</ele>
        <time>2021-09-09T14:26:42Z</time>
      </trkpt>
      <trkpt lat="44.0288" lon="5.97607">
        <ele>413.3</ele>
        <time>2021-09-09T14:26:44Z</time>
      </trkpt>
      <trkpt lat="44.02879" lon="5.97607">
        <ele>413.4</ele>
        <time>2021-09-09T14:26:46Z</time>
      </trkpt>
      <trkpt lat="44.02879" lon="5.97607">
        <ele>413.4</ele>
        <time>2021-09-09T14:26:48Z</time>
      </trkpt>
      <trkpt lat="44.02879" lon="5.97607">
        <ele>413.4</ele>
        <time>2021-09-09T14:26:49Z</time>
      </trkpt>
      <trkpt lat="44.02879" lon="5.97607">
        <ele>413.4</ele>
        <time>2021-09-09T14:26:50Z</time>
      </trkpt>
      <trkpt lat="44.02879" lon="5.97607">
        <ele>413.4</ele>
        <time>2021-09-09T14:26:52Z</time>
      </trkpt>
      <trkpt lat="44.02879" lon="5.97606">
        <ele>413.4</ele>
        <time>2021-09-09T14:26:54Z</time>
      </trkpt>
      <trkpt lat="44.02879" lon="5.97606">
        <ele>413.4</ele>
        <time>2021-09-09T14:26:55Z</time>
      </trkpt>
      <trkpt lat="44.02878" lon="5.97606">
        <ele>413.4</ele>
        <time>2021-09-09T14:26:57Z</time>
      </trkpt>
      <trkpt lat="44.02878" lon="5.97606">
        <ele>413.5</ele>
        <time>2021-09-09T14:26:58Z</time>
      </trkpt>
      <trkpt lat="44.02878" lon="5.97606">
        <ele>413.5</ele>
        <time>2021-09-09T14:26:59Z</time>
      </trkpt>
      <trkpt lat="44.02878" lon="5.97606">
        <ele>413.5</ele>
        <time>2021-09-09T14:27:00Z</time>
      </trkpt>
      <trkpt lat="44.02878" lon="5.97606">
        <ele>413.5</ele>
        <time>2021-09-09T14:27:02Z</time>
      </trkpt>
      <trkpt lat="44.02878" lon="5.97606">
        <ele>413.5</ele>
        <time>2021-09-09T14:27:03Z</time>
      </trkpt>
      <trkpt lat="44.02878" lon="5.97606">
        <ele>413.5</ele>
        <time>2021-09-09T14:27:05Z</time>
      </trkpt>
      <trkpt lat="44.02877" lon="5.97605">
        <ele>413.5</ele>
        <time>2021-09-09T14:27:06Z</time>
      </trkpt>
      <trkpt lat="44.02877" lon="5.97605">
        <ele>413.5</ele>
        <time>2021-09-09T14:27:08Z</time>
      </trkpt>
      <trkpt lat="44.02877" lon="5.97605">
        <ele>413.6</ele>
        <time>2021-09-09T14:27:09Z</time>
      </trkpt>
      <trkpt lat="44.02877" lon="5.97605">
        <ele>413.6</ele>
        <time>2021-09-09T14:27:11Z</time>
      </trkpt>
      <trkpt lat="44.02877" lon="5.97605">
        <ele>413.7</ele>
        <time>2021-09-09T14:27:13Z</time>
      </trkpt>
      <trkpt lat="44.02877" lon="5.97605">
        <ele>413.7</ele>
        <time>2021-09-09T14:27:14Z</time>
      </trkpt>
      <trkpt lat="44.02877" lon="5.97605">
        <ele>413.4</ele>
        <time>2021-09-09T14:27:15Z</time>
      </trkpt>
      <trkpt lat="44.02876" lon="5.97605">
        <ele>413.4</ele>
        <time>2021-09-09T14:27:17Z</time>
      </trkpt>
      <trkpt lat="44.02876" lon="5.97605">
        <ele>413.4</ele>
        <time>2021-09-09T14:27:18Z</time>
      </trkpt>
      <trkpt lat="44.02875" lon="5.97602">
        <ele>413.4</ele>
        <time>2021-09-09T14:27:19Z</time>
      </trkpt>
      <trkpt lat="44.02873" lon="5.97601">
        <ele>413.5</ele>
        <time>2021-09-09T14:27:21Z</time>
      </trkpt>
      <trkpt lat="44.02873" lon="5.97601">
        <ele>413.5</ele>
        <time>2021-09-09T14:27:22Z</time>
      </trkpt>
      <trkpt lat="44.02873" lon="5.97601">
        <ele>413.6</ele>
        <time>2021-09-09T14:27:24Z</time>
      </trkpt>
      <trkpt lat="44.02873" lon="5.97601">
        <ele>413.6</ele>
        <time>2021-09-09T14:27:25Z</time>
      </trkpt>
      <trkpt lat="44.02873" lon="5.97601">
        <ele>413.6</ele>
        <time>2021-09-09T14:27:26Z</time>
      </trkpt>
      <trkpt lat="44.02873" lon="5.97601">
        <ele>413.6</ele>
        <time>2021-09-09T14:27:27Z</time>
      </trkpt>
      <trkpt lat="44.02873" lon="5.97601">
        <ele>413.6</ele>
        <time>2021-09-09T14:27:29Z</time>
      </trkpt>
      <trkpt lat="44.02873" lon="5.97601">
        <ele>413.6</ele>
        <time>2021-09-09T14:27:30Z</time>
      </trkpt>
      <trkpt lat="44.02873" lon="5.976">
        <ele>413.3</ele>
        <time>2021-09-09T14:27:32Z</time>
      </trkpt>
      <trkpt lat="44.02873" lon="5.976">
        <ele>413.3</ele>
        <time>2021-09-09T14:27:34Z</time>
      </trkpt>
      <trkpt lat="44.02873" lon="5.976">
        <ele>413.4</ele>
        <time>2021-09-09T14:27:35Z</time>
      </trkpt>
      <trkpt lat="44.02873" lon="5.976">
        <ele>413.4</ele>
        <time>2021-09-09T14:27:36Z</time>
      </trkpt>
      <trkpt lat="44.02873" lon="5.976">
        <ele>413.4</ele>
        <time>2021-09-09T14:27:38Z</time>
      </trkpt>
      <trkpt lat="44.02873" lon="5.976">
        <ele>413.4</ele>
        <time>2021-09-09T14:27:40Z</time>
      </trkpt>
      <trkpt lat="44.02873" lon="5.976">
        <ele>413.4</ele>
        <time>2021-09-09T14:27:42Z</time>
      </trkpt>
      <trkpt lat="44.02873" lon="5.976">
        <ele>413.4</ele>
        <time>2021-09-09T14:27:43Z</time>
      </trkpt>
      <trkpt lat="44.02873" lon="5.976">
        <ele>413.4</ele>
        <time>2021-09-09T14:27:44Z</time>
      </trkpt>
      <trkpt lat="44.02873" lon="5.976">
        <ele>413.4</ele>
        <time>2021-09-09T14:27:46Z</time>
      </trkpt>
      <trkpt lat="44.02873" lon="5.97599">
        <ele>413.5</ele>
        <time>2021-09-09T14:27:47Z</time>
      </trkpt>
      <trkpt lat="44.02873" lon="5.97599">
        <ele>413.5</ele>
        <time>2021-09-09T14:27:49Z</time>
      </trkpt>
      <trkpt lat="44.02873" lon="5.97599">
        <ele>413.5</ele>
        <time>2021-09-09T14:27:50Z</time>
      </trkpt>
      <trkpt lat="44.02873" lon="5.97599">
        <ele>413.5</ele>
        <time>2021-09-09T14:27:52Z</time>
      </trkpt>
      <trkpt lat="44.02873" lon="5.97599">
        <ele>413.5</ele>
        <time>2021-09-09T14:27:54Z</time>
      </trkpt>
      <trkpt lat="44.02873" lon="5.97599">
        <ele>413.5</ele>
        <time>2021-09-09T14:27:55Z</time>
      </trkpt>
      <trkpt lat="44.02873" lon="5.97599">
        <ele>413.5</ele>
        <time>2021-09-09T14:27:56Z</time>
      </trkpt>
      <trkpt lat="44.02873" lon="5.97599">
        <ele>413.6</ele>
        <time>2021-09-09T14:27:57Z</time>
      </trkpt>
      <trkpt lat="44.02873" lon="5.97599">
        <ele>413.6</ele>
        <time>2021-09-09T14:27:58Z</time>
      </trkpt>
      <trkpt lat="44.02873" lon="5.97598">
        <ele>413.6</ele>
        <time>2021-09-09T14:28:00Z</time>
      </trkpt>
      <trkpt lat="44.02873" lon="5.97598">
        <ele>413.6</ele>
        <time>2021-09-09T14:28:01Z</time>
      </trkpt>
      <trkpt lat="44.02873" lon="5.97598">
        <ele>413.6</ele>
        <time>2021-09-09T14:28:03Z</time>
      </trkpt>
      <trkpt lat="44.02873" lon="5.97598">
        <ele>413.6</ele>
        <time>2021-09-09T14:28:04Z</time>
      </trkpt>
      <trkpt lat="44.02873" lon="5.97598">
        <ele>413.6</ele>
        <time>2021-09-09T14:28:05Z</time>
      </trkpt>
      <trkpt lat="44.02873" lon="5.97598">
        <ele>413.6</ele>
        <time>2021-09-09T14:28:07Z</time>
      </trkpt>
      <trkpt lat="44.02873" lon="5.97598">
        <ele>413.7</ele>
        <time>2021-09-09T14:28:08Z</time>
      </trkpt>
      <trkpt lat="44.02873" lon="5.97598">
        <ele>413.7</ele>
        <time>2021-09-09T14:28:09Z</time>
      </trkpt>
      <trkpt lat="44.02873" lon="5.97598">
        <ele>413.7</ele>
        <time>2021-09-09T14:28:11Z</time>
      </trkpt>
      <trkpt lat="44.02873" lon="5.97598">
        <ele>413.7</ele>
        <time>2021-09-09T14:28:12Z</time>
      </trkpt>
      <trkpt lat="44.02873" lon="5.97597">
        <ele>413.7</ele>
        <time>2021-09-09T14:28:13Z</time>
      </trkpt>
      <trkpt lat="44.02873" lon="5.97597">
        <ele>413.7</ele>
        <time>2021-09-09T14:28:14Z</time>
      </trkpt>
      <trkpt lat="44.02873" lon="5.97597">
        <ele>413.7</ele>
        <time>2021-09-09T14:28:16Z</time>
      </trkpt>
      <trkpt lat="44.02873" lon="5.97597">
        <ele>413.7</ele>
        <time>2021-09-09T14:28:18Z</time>
      </trkpt>
      <trkpt lat="44.02873" lon="5.97597">
        <ele>413.8</ele>
        <time>2021-09-09T14:28:20Z</time>
      </trkpt>
      <trkpt lat="44.02873" lon="5.97597">
        <ele>413.8</ele>
        <time>2021-09-09T14:28:22Z</time>
      </trkpt>
      <trkpt lat="44.02873" lon="5.97597">
        <ele>413.8</ele>
        <time>2021-09-09T14:28:23Z</time>
      </trkpt>
      <trkpt lat="44.02873" lon="5.97597">
        <ele>413.8</ele>
        <time>2021-09-09T14:28:24Z</time>
      </trkpt>
      <trkpt lat="44.02873" lon="5.97597">
        <ele>413.8</ele>
        <time>2021-09-09T14:28:26Z</time>
      </trkpt>
      <trkpt lat="44.02873" lon="5.97597">
        <ele>413.8</ele>
        <time>2021-09-09T14:28:28Z</time>
      </trkpt>
      <trkpt lat="44.02873" lon="5.97596">
        <ele>413.8</ele>
        <time>2021-09-09T14:28:30Z</time>
      </trkpt>
      <trkpt lat="44.02873" lon="5.97596">
        <ele>413.8</ele>
        <time>2021-09-09T14:28:31Z</time>
      </trkpt>
      <trkpt lat="44.02872" lon="5.97596">
        <ele>413.5</ele>
        <time>2021-09-09T14:28:33Z</time>
      </trkpt>
      <trkpt lat="44.02872" lon="5.97596">
        <ele>413.6</ele>
        <time>2021-09-09T14:28:35Z</time>
      </trkpt>
      <trkpt lat="44.02871" lon="5.97596">
        <ele>413.9</ele>
        <time>2021-09-09T14:28:36Z</time>
      </trkpt>
      <trkpt lat="44.02871" lon="5.97596">
        <ele>413.9</ele>
        <time>2021-09-09T14:28:37Z</time>
      </trkpt>
      <trkpt lat="44.02871" lon="5.97596">
        <ele>413.9</ele>
        <time>2021-09-09T14:28:39Z</time>
      </trkpt>
      <trkpt lat="44.02871" lon="5.97596">
        <ele>413.9</ele>
        <time>2021-09-09T14:28:40Z</time>
      </trkpt>
      <trkpt lat="44.02871" lon="5.97596">
        <ele>413.9</ele>
        <time>2021-09-09T14:28:41Z</time>
      </trkpt>
      <trkpt lat="44.02871" lon="5.97596">
        <ele>413.9</ele>
        <time>2021-09-09T14:28:43Z</time>
      </trkpt>
      <trkpt lat="44.02871" lon="5.97596">
        <ele>414</ele>
        <time>2021-09-09T14:28:44Z</time>
      </trkpt>
      <trkpt lat="44.02871" lon="5.97596">
        <ele>414</ele>
        <time>2021-09-09T14:28:45Z</time>
      </trkpt>
      <trkpt lat="44.02871" lon="5.97596">
        <ele>414</ele>
        <time>2021-09-09T14:28:46Z</time>
      </trkpt>
      <trkpt lat="44.02871" lon="5.97596">
        <ele>414</ele>
        <time>2021-09-09T14:28:48Z</time>
      </trkpt>
      <trkpt lat="44.02871" lon="5.97596">
        <ele>414</ele>
        <time>2021-09-09T14:28:50Z</time>
      </trkpt>
      <trkpt lat="44.02871" lon="5.97596">
        <ele>414</ele>
        <time>2021-09-09T14:28:51Z</time>
      </trkpt>
      <trkpt lat="44.02871" lon="5.97596">
        <ele>414</ele>
        <time>2021-09-09T14:28:53Z</time>
      </trkpt>
      <trkpt lat="44.02871" lon="5.97596">
        <ele>414</ele>
        <time>2021-09-09T14:28:54Z</time>
      </trkpt>
      <trkpt lat="44.02871" lon="5.97596">
        <ele>414.1</ele>
        <time>2021-09-09T14:28:56Z</time>
      </trkpt>
      <trkpt lat="44.02871" lon="5.97596">
        <ele>414.1</ele>
        <time>2021-09-09T14:28:57Z</time>
      </trkpt>
      <trkpt lat="44.02871" lon="5.97596">
        <ele>414.1</ele>
        <time>2021-09-09T14:28:58Z</time>
      </trkpt>
      <trkpt lat="44.02871" lon="5.97596">
        <ele>414.1</ele>
        <time>2021-09-09T14:29:00Z</time>
      </trkpt>
      <trkpt lat="44.02871" lon="5.97596">
        <ele>414.1</ele>
        <time>2021-09-09T14:29:01Z</time>
      </trkpt>
      <trkpt lat="44.02871" lon="5.97596">
        <ele>414.1</ele>
        <time>2021-09-09T14:29:02Z</time>
      </trkpt>
      <trkpt lat="44.02871" lon="5.97596">
        <ele>414.1</ele>
        <time>2021-09-09T14:29:03Z</time>
      </trkpt>
      <trkpt lat="44.02872" lon="5.97597">
        <ele>414.2</ele>
        <time>2021-09-09T14:29:05Z</time>
      </trkpt>
      <trkpt lat="44.02872" lon="5.97597">
        <ele>414.2</ele>
        <time>2021-09-09T14:29:06Z</time>
      </trkpt>
      <trkpt lat="44.02872" lon="5.97597">
        <ele>414.2</ele>
        <time>2021-09-09T14:29:08Z</time>
      </trkpt>
      <trkpt lat="44.02872" lon="5.97597">
        <ele>414.2</ele>
        <time>2021-09-09T14:29:09Z</time>
      </trkpt>
      <trkpt lat="44.02872" lon="5.97597">
        <ele>414.2</ele>
        <time>2021-09-09T14:29:11Z</time>
      </trkpt>
      <trkpt lat="44.02872" lon="5.97597">
        <ele>414.2</ele>
        <time>2021-09-09T14:29:12Z</time>
      </trkpt>
      <trkpt lat="44.02872" lon="5.97597">
        <ele>414.2</ele>
        <time>2021-09-09T14:29:13Z</time>
      </trkpt>
      <trkpt lat="44.02872" lon="5.97597">
        <ele>414.2</ele>
        <time>2021-09-09T14:29:14Z</time>
      </trkpt>
      <trkpt lat="44.02872" lon="5.97597">
        <ele>414.3</ele>
        <time>2021-09-09T14:29:15Z</time>
      </trkpt>
      <trkpt lat="44.02872" lon="5.97597">
        <ele>414.3</ele>
        <time>2021-09-09T14:29:16Z</time>
      </trkpt>
      <trkpt lat="44.02872" lon="5.97597">
        <ele>414.3</ele>
        <time>2021-09-09T14:29:18Z</time>
      </trkpt>
      <trkpt lat="44.02872" lon="5.97597">
        <ele>414.3</ele>
        <time>2021-09-09T14:29:19Z</time>
      </trkpt>
      <trkpt lat="44.02872" lon="5.97597">
        <ele>414.3</ele>
        <time>2021-09-09T14:29:21Z</time>
      </trkpt>
      <trkpt lat="44.02872" lon="5.97597">
        <ele>414.3</ele>
        <time>2021-09-09T14:29:22Z</time>
      </trkpt>
      <trkpt lat="44.02872" lon="5.97597">
        <ele>414.3</ele>
        <time>2021-09-09T14:29:24Z</time>
      </trkpt>
      <trkpt lat="44.02872" lon="5.97597">
        <ele>414.3</ele>
        <time>2021-09-09T14:29:26Z</time>
      </trkpt>
      <trkpt lat="44.02872" lon="5.97597">
        <ele>414.4</ele>
        <time>2021-09-09T14:29:28Z</time>
      </trkpt>
      <trkpt lat="44.02872" lon="5.97597">
        <ele>414.4</ele>
        <time>2021-09-09T14:29:29Z</time>
      </trkpt>
      <trkpt lat="44.02872" lon="5.97597">
        <ele>414.4</ele>
        <time>2021-09-09T14:29:31Z</time>
      </trkpt>
      <trkpt lat="44.02872" lon="5.97597">
        <ele>414.4</ele>
        <time>2021-09-09T14:29:32Z</time>
      </trkpt>
      <trkpt lat="44.02872" lon="5.97597">
        <ele>414.4</ele>
        <time>2021-09-09T14:29:33Z</time>
      </trkpt>
      <trkpt lat="44.02872" lon="5.97597">
        <ele>414.4</ele>
        <time>2021-09-09T14:29:35Z</time>
      </trkpt>
      <trkpt lat="44.02872" lon="5.97597">
        <ele>414.4</ele>
        <time>2021-09-09T14:29:37Z</time>
      </trkpt>
      <trkpt lat="44.02872" lon="5.97597">
        <ele>414.4</ele>
        <time>2021-09-09T14:29:38Z</time>
      </trkpt>
      <trkpt lat="44.02872" lon="5.97597">
        <ele>414.5</ele>
        <time>2021-09-09T14:29:39Z</time>
      </trkpt>
      <trkpt lat="44.02872" lon="5.97597">
        <ele>414.5</ele>
        <time>2021-09-09T14:29:40Z</time>
      </trkpt>
      <trkpt lat="44.02872" lon="5.97597">
        <ele>414.5</ele>
        <time>2021-09-09T14:29:42Z</time>
      </trkpt>
      <trkpt lat="44.02872" lon="5.97597">
        <ele>414.5</ele>
        <time>2021-09-09T14:29:43Z</time>
      </trkpt>
      <trkpt lat="44.02872" lon="5.97597">
        <ele>414.5</ele>
        <time>2021-09-09T14:29:45Z</time>
      </trkpt>
      <trkpt lat="44.02872" lon="5.97596">
        <ele>414.2</ele>
        <time>2021-09-09T14:29:46Z</time>
      </trkpt>
      <trkpt lat="44.02873" lon="5.97596">
        <ele>414.2</ele>
        <time>2021-09-09T14:29:48Z</time>
      </trkpt>
      <trkpt lat="44.02873" lon="5.97596">
        <ele>414.2</ele>
        <time>2021-09-09T14:29:50Z</time>
      </trkpt>
      <trkpt lat="44.02873" lon="5.97596">
        <ele>414.2</ele>
        <time>2021-09-09T14:29:51Z</time>
      </trkpt>
      <trkpt lat="44.02873" lon="5.97596">
        <ele>414.3</ele>
        <time>2021-09-09T14:29:52Z</time>
      </trkpt>
      <trkpt lat="44.02873" lon="5.97596">
        <ele>414.3</ele>
        <time>2021-09-09T14:29:54Z</time>
      </trkpt>
      <trkpt lat="44.02873" lon="5.97596">
        <ele>414.3</ele>
        <time>2021-09-09T14:29:56Z</time>
      </trkpt>
      <trkpt lat="44.02873" lon="5.97596">
        <ele>414.3</ele>
        <time>2021-09-09T14:29:58Z</time>
      </trkpt>
      <trkpt lat="44.02873" lon="5.97596">
        <ele>414.3</ele>
        <time>2021-09-09T14:29:59Z</time>
      </trkpt>
      <trkpt lat="44.02873" lon="5.97596">
        <ele>414.3</ele>
        <time>2021-09-09T14:30:00Z</time>
      </trkpt>
      <trkpt lat="44.02873" lon="5.97596">
        <ele>414.3</ele>
        <time>2021-09-09T14:30:01Z</time>
      </trkpt>
      <trkpt lat="44.02873" lon="5.97596">
        <ele>414.3</ele>
        <time>2021-09-09T14:30:03Z</time>
      </trkpt>
      <trkpt lat="44.02873" lon="5.97596">
        <ele>414.4</ele>
        <time>2021-09-09T14:30:05Z</time>
      </trkpt>
      <trkpt lat="44.02873" lon="5.97596">
        <ele>414.4</ele>
        <time>2021-09-09T14:30:06Z</time>
      </trkpt>
      <trkpt lat="44.02873" lon="5.97596">
        <ele>414.4</ele>
        <time>2021-09-09T14:30:07Z</time>
      </trkpt>
      <trkpt lat="44.02873" lon="5.97596">
        <ele>414.4</ele>
        <time>2021-09-09T14:30:08Z</time>
      </trkpt>
      <trkpt lat="44.02873" lon="5.97596">
        <ele>414.4</ele>
        <time>2021-09-09T14:30:10Z</time>
      </trkpt>
      <trkpt lat="44.02873" lon="5.97596">
        <ele>414.4</ele>
        <time>2021-09-09T14:30:12Z</time>
      </trkpt>
      <trkpt lat="44.02873" lon="5.97596">
        <ele>414.4</ele>
        <time>2021-09-09T14:30:14Z</time>
      </trkpt>
      <trkpt lat="44.02873" lon="5.97596">
        <ele>414.5</ele>
        <time>2021-09-09T14:30:15Z</time>
      </trkpt>
      <trkpt lat="44.02873" lon="5.97596">
        <ele>414.5</ele>
        <time>2021-09-09T14:30:16Z</time>
      </trkpt>
      <trkpt lat="44.02873" lon="5.97596">
        <ele>414.5</ele>
        <time>2021-09-09T14:30:18Z</time>
      </trkpt>
      <trkpt lat="44.02873" lon="5.97596">
        <ele>414.5</ele>
        <time>2021-09-09T14:30:19Z</time>
      </trkpt>
      <trkpt lat="44.02873" lon="5.97596">
        <ele>414.5</ele>
        <time>2021-09-09T14:30:20Z</time>
      </trkpt>
      <trkpt lat="44.02873" lon="5.97596">
        <ele>414.5</ele>
        <time>2021-09-09T14:30:22Z</time>
      </trkpt>
      <trkpt lat="44.02873" lon="5.97596">
        <ele>414.5</ele>
        <time>2021-09-09T14:30:24Z</time>
      </trkpt>
      <trkpt lat="44.02873" lon="5.97596">
        <ele>414.5</ele>
        <time>2021-09-09T14:30:25Z</time>
      </trkpt>
      <trkpt lat="44.02873" lon="5.97596">
        <ele>414.6</ele>
        <time>2021-09-09T14:30:26Z</time>
      </trkpt>
      <trkpt lat="44.02873" lon="5.97596">
        <ele>414.6</ele>
        <time>2021-09-09T14:30:28Z</time>
      </trkpt>
      <trkpt lat="44.02873" lon="5.97596">
        <ele>414.6</ele>
        <time>2021-09-09T14:30:29Z</time>
      </trkpt>
      <trkpt lat="44.02873" lon="5.97596">
        <ele>414.6</ele>
        <time>2021-09-09T14:30:31Z</time>
      </trkpt>
      <trkpt lat="44.02873" lon="5.97596">
        <ele>414.6</ele>
        <time>2021-09-09T14:30:32Z</time>
      </trkpt>
      <trkpt lat="44.02873" lon="5.97596">
        <ele>414.6</ele>
        <time>2021-09-09T14:30:33Z</time>
      </trkpt>
      <trkpt lat="44.02873" lon="5.97596">
        <ele>414.6</ele>
        <time>2021-09-09T14:30:35Z</time>
      </trkpt>
      <trkpt lat="44.02873" lon="5.97596">
        <ele>414.6</ele>
        <time>2021-09-09T14:30:37Z</time>
      </trkpt>
      <trkpt lat="44.02873" lon="5.97596">
        <ele>414.7</ele>
        <time>2021-09-09T14:30:38Z</time>
      </trkpt>
      <trkpt lat="44.02873" lon="5.97596">
        <ele>414.7</ele>
        <time>2021-09-09T14:30:39Z</time>
      </trkpt>
      <trkpt lat="44.02873" lon="5.97596">
        <ele>414.7</ele>
        <time>2021-09-09T14:30:40Z</time>
      </trkpt>
      <trkpt lat="44.02873" lon="5.97596">
        <ele>414.7</ele>
        <time>2021-09-09T14:30:42Z</time>
      </trkpt>
      <trkpt lat="44.02873" lon="5.97596">
        <ele>414.7</ele>
        <time>2021-09-09T14:30:43Z</time>
      </trkpt>
      <trkpt lat="44.02873" lon="5.97596">
        <ele>414.7</ele>
        <time>2021-09-09T14:30:45Z</time>
      </trkpt>
      <trkpt lat="44.02873" lon="5.97596">
        <ele>414.7</ele>
        <time>2021-09-09T14:30:46Z</time>
      </trkpt>
      <trkpt lat="44.02873" lon="5.97596">
        <ele>414.7</ele>
        <time>2021-09-09T14:30:48Z</time>
      </trkpt>
      <trkpt lat="44.02873" lon="5.97596">
        <ele>414.8</ele>
        <time>2021-09-09T14:30:49Z</time>
      </trkpt>
      <trkpt lat="44.02873" lon="5.97596">
        <ele>414.8</ele>
        <time>2021-09-09T14:30:51Z</time>
      </trkpt>
      <trkpt lat="44.02873" lon="5.97596">
        <ele>414.8</ele>
        <time>2021-09-09T14:30:52Z</time>
      </trkpt>
      <trkpt lat="44.02873" lon="5.97596">
        <ele>414.8</ele>
        <time>2021-09-09T14:30:53Z</time>
      </trkpt>
      <trkpt lat="44.02873" lon="5.97596">
        <ele>414.8</ele>
        <time>2021-09-09T14:30:54Z</time>
      </trkpt>
      <trkpt lat="44.02873" lon="5.97596">
        <ele>414.8</ele>
        <time>2021-09-09T14:30:56Z</time>
      </trkpt>
      <trkpt lat="44.02873" lon="5.97596">
        <ele>414.8</ele>
        <time>2021-09-09T14:30:57Z</time>
      </trkpt>
      <trkpt lat="44.02873" lon="5.97596">
        <ele>414.8</ele>
        <time>2021-09-09T14:30:59Z</time>
      </trkpt>
      <trkpt lat="44.02873" lon="5.97596">
        <ele>414.9</ele>
        <time>2021-09-09T14:31:00Z</time>
      </trkpt>
      <trkpt lat="44.02873" lon="5.97596">
        <ele>414.9</ele>
        <time>2021-09-09T14:31:02Z</time>
      </trkpt>
      <trkpt lat="44.02873" lon="5.97596">
        <ele>414.9</ele>
        <time>2021-09-09T14:31:03Z</time>
      </trkpt>
      <trkpt lat="44.02873" lon="5.97596">
        <ele>414.9</ele>
        <time>2021-09-09T14:31:04Z</time>
      </trkpt>
      <trkpt lat="44.02873" lon="5.97596">
        <ele>414.9</ele>
        <time>2021-09-09T14:31:06Z</time>
      </trkpt>
      <trkpt lat="44.02873" lon="5.97596">
        <ele>414.9</ele>
        <time>2021-09-09T14:31:07Z</time>
      </trkpt>
      <trkpt lat="44.02873" lon="5.97596">
        <ele>414.9</ele>
        <time>2021-09-09T14:31:09Z</time>
      </trkpt>
      <trkpt lat="44.02873" lon="5.97596">
        <ele>414.9</ele>
        <time>2021-09-09T14:31:10Z</time>
      </trkpt>
      <trkpt lat="44.02873" lon="5.97596">
        <ele>415</ele>
        <time>2021-09-09T14:31:11Z</time>
      </trkpt>
      <trkpt lat="44.02873" lon="5.97596">
        <ele>415</ele>
        <time>2021-09-09T14:31:13Z</time>
      </trkpt>
      <trkpt lat="44.02873" lon="5.97596">
        <ele>415</ele>
        <time>2021-09-09T14:31:14Z</time>
      </trkpt>
      <trkpt lat="44.02873" lon="5.97596">
        <ele>415</ele>
        <time>2021-09-09T14:31:16Z</time>
      </trkpt>
      <trkpt lat="44.02871" lon="5.97593">
        <ele>415.1</ele>
        <time>2021-09-09T14:31:17Z</time>
      </trkpt>
      <trkpt lat="44.02868" lon="5.9759">
        <ele>414.8</ele>
        <time>2021-09-09T14:31:19Z</time>
      </trkpt>
      <trkpt lat="44.02867" lon="5.97588">
        <ele>414.9</ele>
        <time>2021-09-09T14:31:21Z</time>
      </trkpt>
      <trkpt lat="44.02867" lon="5.97588">
        <ele>414.9</ele>
        <time>2021-09-09T14:31:22Z</time>
      </trkpt>
      <trkpt lat="44.02867" lon="5.97586">
        <ele>414.6</ele>
        <time>2021-09-09T14:31:23Z</time>
      </trkpt>
      <trkpt lat="44.02867" lon="5.97586">
        <ele>414.6</ele>
        <time>2021-09-09T14:31:24Z</time>
      </trkpt>
      <trkpt lat="44.02867" lon="5.97586">
        <ele>414.6</ele>
        <time>2021-09-09T14:31:26Z</time>
      </trkpt>
      <trkpt lat="44.02867" lon="5.97587">
        <ele>414.6</ele>
        <time>2021-09-09T14:31:28Z</time>
      </trkpt>
      <trkpt lat="44.02867" lon="5.97588">
        <ele>415</ele>
        <time>2021-09-09T14:31:29Z</time>
      </trkpt>
      <trkpt lat="44.02867" lon="5.97588">
        <ele>415</ele>
        <time>2021-09-09T14:31:31Z</time>
      </trkpt>
      <trkpt lat="44.02867" lon="5.97588">
        <ele>415</ele>
        <time>2021-09-09T14:31:32Z</time>
      </trkpt>
      <trkpt lat="44.02867" lon="5.97588">
        <ele>415</ele>
        <time>2021-09-09T14:31:34Z</time>
      </trkpt>
      <trkpt lat="44.02868" lon="5.97588">
        <ele>415</ele>
        <time>2021-09-09T14:31:35Z</time>
      </trkpt>
      <trkpt lat="44.02868" lon="5.97588">
        <ele>415.1</ele>
        <time>2021-09-09T14:31:37Z</time>
      </trkpt>
      <trkpt lat="44.02867" lon="5.97587">
        <ele>414.7</ele>
        <time>2021-09-09T14:31:38Z</time>
      </trkpt>
      <trkpt lat="44.02867" lon="5.97586">
        <ele>414.7</ele>
        <time>2021-09-09T14:31:39Z</time>
      </trkpt>
      <trkpt lat="44.02867" lon="5.97586">
        <ele>414.7</ele>
        <time>2021-09-09T14:31:40Z</time>
      </trkpt>
      <trkpt lat="44.02867" lon="5.97586">
        <ele>414.8</ele>
        <time>2021-09-09T14:31:42Z</time>
      </trkpt>
      <trkpt lat="44.02867" lon="5.97586">
        <ele>414.8</ele>
        <time>2021-09-09T14:31:44Z</time>
      </trkpt>
      <trkpt lat="44.02867" lon="5.97586">
        <ele>414.8</ele>
        <time>2021-09-09T14:31:46Z</time>
      </trkpt>
      <trkpt lat="44.02867" lon="5.97586">
        <ele>414.8</ele>
        <time>2021-09-09T14:31:47Z</time>
      </trkpt>
      <trkpt lat="44.02867" lon="5.97586">
        <ele>414.8</ele>
        <time>2021-09-09T14:31:48Z</time>
      </trkpt>
      <trkpt lat="44.02867" lon="5.97586">
        <ele>414.8</ele>
        <time>2021-09-09T14:31:50Z</time>
      </trkpt>
      <trkpt lat="44.02868" lon="5.97586">
        <ele>414.8</ele>
        <time>2021-09-09T14:31:51Z</time>
      </trkpt>
      <trkpt lat="44.02868" lon="5.97586">
        <ele>414.9</ele>
        <time>2021-09-09T14:31:52Z</time>
      </trkpt>
      <trkpt lat="44.02877" lon="5.97591">
        <ele>415</ele>
        <time>2021-09-09T14:31:54Z</time>
      </trkpt>
      <trkpt lat="44.02876" lon="5.97591">
        <ele>415</ele>
        <time>2021-09-09T14:31:56Z</time>
      </trkpt>
      <trkpt lat="44.02875" lon="5.97591">
        <ele>415</ele>
        <time>2021-09-09T14:31:58Z</time>
      </trkpt>
      <trkpt lat="44.02873" lon="5.9759">
        <ele>415</ele>
        <time>2021-09-09T14:31:59Z</time>
      </trkpt>
      <trkpt lat="44.02871" lon="5.9759">
        <ele>415.1</ele>
        <time>2021-09-09T14:32:00Z</time>
      </trkpt>
      <trkpt lat="44.02871" lon="5.97591">
        <ele>415.1</ele>
        <time>2021-09-09T14:32:01Z</time>
      </trkpt>
      <trkpt lat="44.02871" lon="5.97591">
        <ele>415.2</ele>
        <time>2021-09-09T14:32:02Z</time>
      </trkpt>
      <trkpt lat="44.02871" lon="5.97591">
        <ele>415.2</ele>
        <time>2021-09-09T14:32:04Z</time>
      </trkpt>
      <trkpt lat="44.02871" lon="5.9759">
        <ele>415.2</ele>
        <time>2021-09-09T14:32:05Z</time>
      </trkpt>
      <trkpt lat="44.02872" lon="5.9759">
        <ele>415.1</ele>
        <time>2021-09-09T14:32:07Z</time>
      </trkpt>
      <trkpt lat="44.02872" lon="5.9759">
        <ele>415.1</ele>
        <time>2021-09-09T14:32:09Z</time>
      </trkpt>
      <trkpt lat="44.02873" lon="5.9759">
        <ele>415.1</ele>
        <time>2021-09-09T14:32:11Z</time>
      </trkpt>
      <trkpt lat="44.02873" lon="5.97591">
        <ele>415.2</ele>
        <time>2021-09-09T14:32:12Z</time>
      </trkpt>
      <trkpt lat="44.02873" lon="5.97593">
        <ele>415.5</ele>
        <time>2021-09-09T14:32:13Z</time>
      </trkpt>
      <trkpt lat="44.02873" lon="5.97594">
        <ele>415.5</ele>
        <time>2021-09-09T14:32:14Z</time>
      </trkpt>
      <trkpt lat="44.02873" lon="5.97596">
        <ele>415.5</ele>
        <time>2021-09-09T14:32:16Z</time>
      </trkpt>
      <trkpt lat="44.02874" lon="5.97597">
        <ele>415.9</ele>
        <time>2021-09-09T14:32:17Z</time>
      </trkpt>
      <trkpt lat="44.02874" lon="5.97598">
        <ele>415.9</ele>
        <time>2021-09-09T14:32:18Z</time>
      </trkpt>
      <trkpt lat="44.02874" lon="5.97599">
        <ele>415.9</ele>
        <time>2021-09-09T14:32:20Z</time>
      </trkpt>
      <trkpt lat="44.02874" lon="5.976">
        <ele>415.9</ele>
        <time>2021-09-09T14:32:21Z</time>
      </trkpt>
      <trkpt lat="44.02874" lon="5.97601">
        <ele>416.2</ele>
        <time>2021-09-09T14:32:23Z</time>
      </trkpt>
      <trkpt lat="44.02874" lon="5.97601">
        <ele>416.1</ele>
        <time>2021-09-09T14:32:24Z</time>
      </trkpt>
      <trkpt lat="44.02875" lon="5.97601">
        <ele>416.2</ele>
        <time>2021-09-09T14:32:26Z</time>
      </trkpt>
      <trkpt lat="44.02876" lon="5.97604">
        <ele>416.2</ele>
        <time>2021-09-09T14:32:28Z</time>
      </trkpt>
      <trkpt lat="44.02877" lon="5.97606">
        <ele>416.4</ele>
        <time>2021-09-09T14:32:29Z</time>
      </trkpt>
      <trkpt lat="44.02878" lon="5.97607">
        <ele>416.4</ele>
        <time>2021-09-09T14:32:30Z</time>
      </trkpt>
      <trkpt lat="44.02878" lon="5.97607">
        <ele>416.4</ele>
        <time>2021-09-09T14:32:31Z</time>
      </trkpt>
      <trkpt lat="44.02878" lon="5.97607">
        <ele>416.4</ele>
        <time>2021-09-09T14:32:33Z</time>
      </trkpt>
      <trkpt lat="44.02878" lon="5.97607">
        <ele>416.4</ele>
        <time>2021-09-09T14:32:35Z</time>
      </trkpt>
      <trkpt lat="44.02878" lon="5.97607">
        <ele>416.4</ele>
        <time>2021-09-09T14:32:36Z</time>
      </trkpt>
      <trkpt lat="44.02878" lon="5.97607">
        <ele>416.5</ele>
        <time>2021-09-09T14:32:38Z</time>
      </trkpt>
      <trkpt lat="44.02878" lon="5.97607">
        <ele>416.5</ele>
        <time>2021-09-09T14:32:39Z</time>
      </trkpt>
      <trkpt lat="44.02878" lon="5.97607">
        <ele>416.5</ele>
        <time>2021-09-09T14:32:41Z</time>
      </trkpt>
      <trkpt lat="44.02878" lon="5.97607">
        <ele>416.5</ele>
        <time>2021-09-09T14:32:42Z</time>
      </trkpt>
      <trkpt lat="44.02878" lon="5.97607">
        <ele>416.5</ele>
        <time>2021-09-09T14:32:44Z</time>
      </trkpt>
      <trkpt lat="44.02878" lon="5.97607">
        <ele>416.5</ele>
        <time>2021-09-09T14:32:46Z</time>
      </trkpt>
      <trkpt lat="44.02883" lon="5.97614">
        <ele>416.9</ele>
        <time>2021-09-09T14:32:48Z</time>
      </trkpt>
      <trkpt lat="44.02884" lon="5.97615">
        <ele>416.8</ele>
        <time>2021-09-09T14:32:49Z</time>
      </trkpt>
      <trkpt lat="44.02885" lon="5.97616">
        <ele>416.8</ele>
        <time>2021-09-09T14:32:50Z</time>
      </trkpt>
      <trkpt lat="44.02885" lon="5.97617">
        <ele>416.8</ele>
        <time>2021-09-09T14:32:51Z</time>
      </trkpt>
      <trkpt lat="44.02885" lon="5.97617">
        <ele>416.8</ele>
        <time>2021-09-09T14:32:52Z</time>
      </trkpt>
      <trkpt lat="44.02885" lon="5.97617">
        <ele>416.8</ele>
        <time>2021-09-09T14:32:53Z</time>
      </trkpt>
      <trkpt lat="44.02885" lon="5.97617">
        <ele>416.8</ele>
        <time>2021-09-09T14:32:55Z</time>
      </trkpt>
      <trkpt lat="44.02885" lon="5.97617">
        <ele>416.8</ele>
        <time>2021-09-09T14:32:57Z</time>
      </trkpt>
      <trkpt lat="44.02886" lon="5.97617">
        <ele>416.9</ele>
        <time>2021-09-09T14:32:58Z</time>
      </trkpt>
      <trkpt lat="44.02887" lon="5.97614">
        <ele>416.7</ele>
        <time>2021-09-09T14:33:00Z</time>
      </trkpt>
      <trkpt lat="44.02889" lon="5.97612">
        <ele>416.5</ele>
        <time>2021-09-09T14:33:02Z</time>
      </trkpt>
      <trkpt lat="44.0289" lon="5.97612">
        <ele>416.4</ele>
        <time>2021-09-09T14:33:03Z</time>
      </trkpt>
      <trkpt lat="44.02891" lon="5.97611">
        <ele>416.4</ele>
        <time>2021-09-09T14:33:05Z</time>
      </trkpt>
      <trkpt lat="44.02891" lon="5.97611">
        <ele>416.4</ele>
        <time>2021-09-09T14:33:06Z</time>
      </trkpt>
      <trkpt lat="44.02891" lon="5.9761">
        <ele>416.4</ele>
        <time>2021-09-09T14:33:07Z</time>
      </trkpt>
      <trkpt lat="44.02891" lon="5.9761">
        <ele>416.4</ele>
        <time>2021-09-09T14:33:09Z</time>
      </trkpt>
      <trkpt lat="44.02891" lon="5.9761">
        <ele>416.4</ele>
        <time>2021-09-09T14:33:11Z</time>
      </trkpt>
      <trkpt lat="44.02891" lon="5.9761">
        <ele>416.5</ele>
        <time>2021-09-09T14:33:13Z</time>
      </trkpt>
      <trkpt lat="44.0289" lon="5.97609">
        <ele>416.3</ele>
        <time>2021-09-09T14:33:14Z</time>
      </trkpt>
      <trkpt lat="44.0289" lon="5.97609">
        <ele>416.3</ele>
        <time>2021-09-09T14:33:15Z</time>
      </trkpt>
      <trkpt lat="44.0289" lon="5.97609">
        <ele>416.3</ele>
        <time>2021-09-09T14:33:16Z</time>
      </trkpt>
      <trkpt lat="44.0289" lon="5.97608">
        <ele>416.3</ele>
        <time>2021-09-09T14:33:18Z</time>
      </trkpt>
      <trkpt lat="44.0289" lon="5.97608">
        <ele>416.3</ele>
        <time>2021-09-09T14:33:19Z</time>
      </trkpt>
      <trkpt lat="44.0289" lon="5.97608">
        <ele>416.3</ele>
        <time>2021-09-09T14:33:21Z</time>
      </trkpt>
      <trkpt lat="44.0289" lon="5.97608">
        <ele>416.3</ele>
        <time>2021-09-09T14:33:22Z</time>
      </trkpt>
      <trkpt lat="44.0289" lon="5.97608">
        <ele>416.4</ele>
        <time>2021-09-09T14:33:24Z</time>
      </trkpt>
      <trkpt lat="44.0289" lon="5.97608">
        <ele>416.4</ele>
        <time>2021-09-09T14:33:25Z</time>
      </trkpt>
      <trkpt lat="44.0289" lon="5.97608">
        <ele>416.4</ele>
        <time>2021-09-09T14:33:27Z</time>
      </trkpt>
      <trkpt lat="44.0289" lon="5.97608">
        <ele>416.4</ele>
        <time>2021-09-09T14:33:28Z</time>
      </trkpt>
      <trkpt lat="44.0289" lon="5.97608">
        <ele>416.4</ele>
        <time>2021-09-09T14:33:30Z</time>
      </trkpt>
      <trkpt lat="44.0289" lon="5.97608">
        <ele>416.4</ele>
        <time>2021-09-09T14:33:31Z</time>
      </trkpt>
      <trkpt lat="44.0289" lon="5.97608">
        <ele>416.4</ele>
        <time>2021-09-09T14:33:33Z</time>
      </trkpt>
      <trkpt lat="44.0289" lon="5.97608">
        <ele>416.4</ele>
        <time>2021-09-09T14:33:35Z</time>
      </trkpt>
      <trkpt lat="44.0289" lon="5.97608">
        <ele>416.5</ele>
        <time>2021-09-09T14:33:36Z</time>
      </trkpt>
      <trkpt lat="44.0289" lon="5.97608">
        <ele>416.5</ele>
        <time>2021-09-09T14:33:38Z</time>
      </trkpt>
      <trkpt lat="44.0289" lon="5.97608">
        <ele>416.5</ele>
        <time>2021-09-09T14:33:39Z</time>
      </trkpt>
      <trkpt lat="44.0289" lon="5.97608">
        <ele>416.5</ele>
        <time>2021-09-09T14:33:40Z</time>
      </trkpt>
      <trkpt lat="44.0289" lon="5.97608">
        <ele>416.5</ele>
        <time>2021-09-09T14:33:41Z</time>
      </trkpt>
      <trkpt lat="44.0289" lon="5.97608">
        <ele>416.5</ele>
        <time>2021-09-09T14:33:42Z</time>
      </trkpt>
      <trkpt lat="44.0289" lon="5.97608">
        <ele>416.5</ele>
        <time>2021-09-09T14:33:44Z</time>
      </trkpt>
      <trkpt lat="44.0289" lon="5.97608">
        <ele>416.6</ele>
        <time>2021-09-09T14:33:45Z</time>
      </trkpt>
      <trkpt lat="44.0289" lon="5.97608">
        <ele>416.6</ele>
        <time>2021-09-09T14:33:46Z</time>
      </trkpt>
      <trkpt lat="44.0289" lon="5.97608">
        <ele>416.6</ele>
        <time>2021-09-09T14:33:48Z</time>
      </trkpt>
      <trkpt lat="44.0289" lon="5.97608">
        <ele>416.6</ele>
        <time>2021-09-09T14:33:49Z</time>
      </trkpt>
      <trkpt lat="44.0289" lon="5.97608">
        <ele>416.6</ele>
        <time>2021-09-09T14:33:50Z</time>
      </trkpt>
      <trkpt lat="44.0289" lon="5.97608">
        <ele>416.6</ele>
        <time>2021-09-09T14:33:52Z</time>
      </trkpt>
      <trkpt lat="44.0289" lon="5.97608">
        <ele>416.6</ele>
        <time>2021-09-09T14:33:53Z</time>
      </trkpt>
      <trkpt lat="44.0289" lon="5.97608">
        <ele>416.6</ele>
        <time>2021-09-09T14:33:54Z</time>
      </trkpt>
      <trkpt lat="44.0289" lon="5.97608">
        <ele>416.7</ele>
        <time>2021-09-09T14:33:55Z</time>
      </trkpt>
      <trkpt lat="44.0289" lon="5.97608">
        <ele>416.7</ele>
        <time>2021-09-09T14:33:57Z</time>
      </trkpt>
      <trkpt lat="44.0289" lon="5.97608">
        <ele>416.7</ele>
        <time>2021-09-09T14:33:58Z</time>
      </trkpt>
      <trkpt lat="44.0289" lon="5.97608">
        <ele>416.7</ele>
        <time>2021-09-09T14:33:59Z</time>
      </trkpt>
      <trkpt lat="44.0289" lon="5.97608">
        <ele>416.7</ele>
        <time>2021-09-09T14:34:00Z</time>
      </trkpt>
      <trkpt lat="44.0289" lon="5.97608">
        <ele>416.7</ele>
        <time>2021-09-09T14:34:02Z</time>
      </trkpt>
      <trkpt lat="44.02886" lon="5.97609">
        <ele>417</ele>
        <time>2021-09-09T14:34:04Z</time>
      </trkpt>
      <trkpt lat="44.02887" lon="5.9761">
        <ele>417.1</ele>
        <time>2021-09-09T14:34:06Z</time>
      </trkpt>
      <trkpt lat="44.0289" lon="5.9761">
        <ele>417.1</ele>
        <time>2021-09-09T14:34:08Z</time>
      </trkpt>
      <trkpt lat="44.0289" lon="5.97611">
        <ele>417</ele>
        <time>2021-09-09T14:34:09Z</time>
      </trkpt>
      <trkpt lat="44.02892" lon="5.97612">
        <ele>417</ele>
        <time>2021-09-09T14:34:10Z</time>
      </trkpt>
      <trkpt lat="44.02893" lon="5.97612">
        <ele>416.8</ele>
        <time>2021-09-09T14:34:12Z</time>
      </trkpt>
      <trkpt lat="44.02894" lon="5.97612">
        <ele>416.9</ele>
        <time>2021-09-09T14:34:14Z</time>
      </trkpt>
      <trkpt lat="44.02895" lon="5.97612">
        <ele>416.9</ele>
        <time>2021-09-09T14:34:15Z</time>
      </trkpt>
      <trkpt lat="44.02895" lon="5.97612">
        <ele>416.9</ele>
        <time>2021-09-09T14:34:17Z</time>
      </trkpt>
      <trkpt lat="44.02895" lon="5.97612">
        <ele>416.9</ele>
        <time>2021-09-09T14:34:18Z</time>
      </trkpt>
      <trkpt lat="44.02895" lon="5.97612">
        <ele>416.9</ele>
        <time>2021-09-09T14:34:20Z</time>
      </trkpt>
      <trkpt lat="44.02895" lon="5.97612">
        <ele>416.9</ele>
        <time>2021-09-09T14:34:21Z</time>
      </trkpt>
      <trkpt lat="44.02895" lon="5.97612">
        <ele>416.9</ele>
        <time>2021-09-09T14:34:22Z</time>
      </trkpt>
      <trkpt lat="44.02895" lon="5.97612">
        <ele>416.9</ele>
        <time>2021-09-09T14:34:24Z</time>
      </trkpt>
      <trkpt lat="44.02895" lon="5.97612">
        <ele>417</ele>
        <time>2021-09-09T14:34:26Z</time>
      </trkpt>
      <trkpt lat="44.02894" lon="5.97615">
        <ele>417.1</ele>
        <time>2021-09-09T14:34:27Z</time>
      </trkpt>
      <trkpt lat="44.02893" lon="5.97613">
        <ele>417</ele>
        <time>2021-09-09T14:34:29Z</time>
      </trkpt>
      <trkpt lat="44.02893" lon="5.97613">
        <ele>417.1</ele>
        <time>2021-09-09T14:34:30Z</time>
      </trkpt>
      <trkpt lat="44.02892" lon="5.97614">
        <ele>417.3</ele>
        <time>2021-09-09T14:34:31Z</time>
      </trkpt>
      <trkpt lat="44.02892" lon="5.97614">
        <ele>417.3</ele>
        <time>2021-09-09T14:34:32Z</time>
      </trkpt>
      <trkpt lat="44.02892" lon="5.97615">
        <ele>417.4</ele>
        <time>2021-09-09T14:34:33Z</time>
      </trkpt>
      <trkpt lat="44.02892" lon="5.97615">
        <ele>417.4</ele>
        <time>2021-09-09T14:34:34Z</time>
      </trkpt>
      <trkpt lat="44.02892" lon="5.97617">
        <ele>417.4</ele>
        <time>2021-09-09T14:34:36Z</time>
      </trkpt>
      <trkpt lat="44.02891" lon="5.97618">
        <ele>417.6</ele>
        <time>2021-09-09T14:34:38Z</time>
      </trkpt>
      <trkpt lat="44.02891" lon="5.97619">
        <ele>417.6</ele>
        <time>2021-09-09T14:34:40Z</time>
      </trkpt>
      <trkpt lat="44.0289" lon="5.9762">
        <ele>417.6</ele>
        <time>2021-09-09T14:34:42Z</time>
      </trkpt>
      <trkpt lat="44.02888" lon="5.9762">
        <ele>417.8</ele>
        <time>2021-09-09T14:34:43Z</time>
      </trkpt>
      <trkpt lat="44.02886" lon="5.97623">
        <ele>418.2</ele>
        <time>2021-09-09T14:34:44Z</time>
      </trkpt>
      <trkpt lat="44.02885" lon="5.97625">
        <ele>418.2</ele>
        <time>2021-09-09T14:34:46Z</time>
      </trkpt>
      <trkpt lat="44.02884" lon="5.97627">
        <ele>418.4</ele>
        <time>2021-09-09T14:34:48Z</time>
      </trkpt>
      <trkpt lat="44.02883" lon="5.97629">
        <ele>418.6</ele>
        <time>2021-09-09T14:34:49Z</time>
      </trkpt>
      <trkpt lat="44.02881" lon="5.97633">
        <ele>418.8</ele>
        <time>2021-09-09T14:34:50Z</time>
      </trkpt>
      <trkpt lat="44.0288" lon="5.97635">
        <ele>419.3</ele>
        <time>2021-09-09T14:34:52Z</time>
      </trkpt>
      <trkpt lat="44.0288" lon="5.97635">
        <ele>419.3</ele>
        <time>2021-09-09T14:34:53Z</time>
      </trkpt>
      <trkpt lat="44.0288" lon="5.97636">
        <ele>419.3</ele>
        <time>2021-09-09T14:34:55Z</time>
      </trkpt>
      <trkpt lat="44.0288" lon="5.97636">
        <ele>419.3</ele>
        <time>2021-09-09T14:34:56Z</time>
      </trkpt>
      <trkpt lat="44.0288" lon="5.97636">
        <ele>419.3</ele>
        <time>2021-09-09T14:34:57Z</time>
      </trkpt>
      <trkpt lat="44.0288" lon="5.97636">
        <ele>419.3</ele>
        <time>2021-09-09T14:34:59Z</time>
      </trkpt>
      <trkpt lat="44.0288" lon="5.97636">
        <ele>419.3</ele>
        <time>2021-09-09T14:35:00Z</time>
      </trkpt>
      <trkpt lat="44.0288" lon="5.97636">
        <ele>419.4</ele>
        <time>2021-09-09T14:35:02Z</time>
      </trkpt>
      <trkpt lat="44.0288" lon="5.97636">
        <ele>419.4</ele>
        <time>2021-09-09T14:35:04Z</time>
      </trkpt>
      <trkpt lat="44.0288" lon="5.97636">
        <ele>419.4</ele>
        <time>2021-09-09T14:35:05Z</time>
      </trkpt>
      <trkpt lat="44.0288" lon="5.97636">
        <ele>419.4</ele>
        <time>2021-09-09T14:35:06Z</time>
      </trkpt>
      <trkpt lat="44.0288" lon="5.97636">
        <ele>419.4</ele>
        <time>2021-09-09T14:35:08Z</time>
      </trkpt>
      <trkpt lat="44.0288" lon="5.97636">
        <ele>419.4</ele>
        <time>2021-09-09T14:35:10Z</time>
      </trkpt>
      <trkpt lat="44.02875" lon="5.97629">
        <ele>419.1</ele>
        <time>2021-09-09T14:35:12Z</time>
      </trkpt>
      <trkpt lat="44.02874" lon="5.97627">
        <ele>419.2</ele>
        <time>2021-09-09T14:35:14Z</time>
      </trkpt>
      <trkpt lat="44.02874" lon="5.97626">
        <ele>419.2</ele>
        <time>2021-09-09T14:35:15Z</time>
      </trkpt>
      <trkpt lat="44.02873" lon="5.97626">
        <ele>419</ele>
        <time>2021-09-09T14:35:16Z</time>
      </trkpt>
      <trkpt lat="44.02873" lon="5.97626">
        <ele>419</ele>
        <time>2021-09-09T14:35:18Z</time>
      </trkpt>
      <trkpt lat="44.02873" lon="5.97626">
        <ele>419</ele>
        <time>2021-09-09T14:35:19Z</time>
      </trkpt>
      <trkpt lat="44.02873" lon="5.97626">
        <ele>419</ele>
        <time>2021-09-09T14:35:20Z</time>
      </trkpt>
      <trkpt lat="44.02873" lon="5.97623">
        <ele>419</ele>
        <time>2021-09-09T14:35:21Z</time>
      </trkpt>
      <trkpt lat="44.02872" lon="5.9762">
        <ele>418.8</ele>
        <time>2021-09-09T14:35:23Z</time>
      </trkpt>
      <trkpt lat="44.02871" lon="5.97618">
        <ele>418.8</ele>
        <time>2021-09-09T14:35:25Z</time>
      </trkpt>
      <trkpt lat="44.02871" lon="5.97618">
        <ele>418.6</ele>
        <time>2021-09-09T14:35:26Z</time>
      </trkpt>
      <trkpt lat="44.02871" lon="5.97617">
        <ele>418.6</ele>
        <time>2021-09-09T14:35:27Z</time>
      </trkpt>
      <trkpt lat="44.02871" lon="5.97617">
        <ele>418.6</ele>
        <time>2021-09-09T14:35:28Z</time>
      </trkpt>
      <trkpt lat="44.02871" lon="5.97617">
        <ele>418.7</ele>
        <time>2021-09-09T14:35:30Z</time>
      </trkpt>
      <trkpt lat="44.02871" lon="5.97618">
        <ele>419</ele>
        <time>2021-09-09T14:35:31Z</time>
      </trkpt>
      <trkpt lat="44.02871" lon="5.97618">
        <ele>419.1</ele>
        <time>2021-09-09T14:35:32Z</time>
      </trkpt>
      <trkpt lat="44.02871" lon="5.97619">
        <ele>419.1</ele>
        <time>2021-09-09T14:35:34Z</time>
      </trkpt>
      <trkpt lat="44.02871" lon="5.97619">
        <ele>419.1</ele>
        <time>2021-09-09T14:35:35Z</time>
      </trkpt>
      <trkpt lat="44.02871" lon="5.97619">
        <ele>419</ele>
        <time>2021-09-09T14:35:37Z</time>
      </trkpt>
      <trkpt lat="44.02871" lon="5.97619">
        <ele>419</ele>
        <time>2021-09-09T14:35:39Z</time>
      </trkpt>
      <trkpt lat="44.02871" lon="5.97621">
        <ele>419</ele>
        <time>2021-09-09T14:35:41Z</time>
      </trkpt>
      <trkpt lat="44.02871" lon="5.97622">
        <ele>419.2</ele>
        <time>2021-09-09T14:35:43Z</time>
      </trkpt>
      <trkpt lat="44.02872" lon="5.97624">
        <ele>419.2</ele>
        <time>2021-09-09T14:35:44Z</time>
      </trkpt>
      <trkpt lat="44.02872" lon="5.97627">
        <ele>419.5</ele>
        <time>2021-09-09T14:35:46Z</time>
      </trkpt>
      <trkpt lat="44.02873" lon="5.97628">
        <ele>419.5</ele>
        <time>2021-09-09T14:35:47Z</time>
      </trkpt>
      <trkpt lat="44.02873" lon="5.97629">
        <ele>419.5</ele>
        <time>2021-09-09T14:35:48Z</time>
      </trkpt>
      <trkpt lat="44.02873" lon="5.97629">
        <ele>419.5</ele>
        <time>2021-09-09T14:35:49Z</time>
      </trkpt>
      <trkpt lat="44.02873" lon="5.9763">
        <ele>419.5</ele>
        <time>2021-09-09T14:35:51Z</time>
      </trkpt>
      <trkpt lat="44.02873" lon="5.9763">
        <ele>419.6</ele>
        <time>2021-09-09T14:35:53Z</time>
      </trkpt>
      <trkpt lat="44.02873" lon="5.9763">
        <ele>419.6</ele>
        <time>2021-09-09T14:35:54Z</time>
      </trkpt>
      <trkpt lat="44.02873" lon="5.9763">
        <ele>419.6</ele>
        <time>2021-09-09T14:35:56Z</time>
      </trkpt>
      <trkpt lat="44.02873" lon="5.9763">
        <ele>419.6</ele>
        <time>2021-09-09T14:35:57Z</time>
      </trkpt>
      <trkpt lat="44.02873" lon="5.97631">
        <ele>419.6</ele>
        <time>2021-09-09T14:35:59Z</time>
      </trkpt>
      <trkpt lat="44.02873" lon="5.97631">
        <ele>419.9</ele>
        <time>2021-09-09T14:36:00Z</time>
      </trkpt>
      <trkpt lat="44.02873" lon="5.97631">
        <ele>419.9</ele>
        <time>2021-09-09T14:36:01Z</time>
      </trkpt>
      <trkpt lat="44.02873" lon="5.97631">
        <ele>419.9</ele>
        <time>2021-09-09T14:36:03Z</time>
      </trkpt>
      <trkpt lat="44.02873" lon="5.97632">
        <ele>419.9</ele>
        <time>2021-09-09T14:36:04Z</time>
      </trkpt>
      <trkpt lat="44.02873" lon="5.97632">
        <ele>419.9</ele>
        <time>2021-09-09T14:36:05Z</time>
      </trkpt>
      <trkpt lat="44.02873" lon="5.97632">
        <ele>419.9</ele>
        <time>2021-09-09T14:36:07Z</time>
      </trkpt>
      <trkpt lat="44.02873" lon="5.97632">
        <ele>420</ele>
        <time>2021-09-09T14:36:08Z</time>
      </trkpt>
      <trkpt lat="44.02873" lon="5.97632">
        <ele>420</ele>
        <time>2021-09-09T14:36:10Z</time>
      </trkpt>
      <trkpt lat="44.02873" lon="5.97632">
        <ele>420</ele>
        <time>2021-09-09T14:36:12Z</time>
      </trkpt>
      <trkpt lat="44.02873" lon="5.97632">
        <ele>420</ele>
        <time>2021-09-09T14:36:14Z</time>
      </trkpt>
      <trkpt lat="44.02873" lon="5.97632">
        <ele>420</ele>
        <time>2021-09-09T14:36:16Z</time>
      </trkpt>
      <trkpt lat="44.02872" lon="5.97632">
        <ele>420</ele>
        <time>2021-09-09T14:36:18Z</time>
      </trkpt>
      <trkpt lat="44.02874" lon="5.97639">
        <ele>420.3</ele>
        <time>2021-09-09T14:36:20Z</time>
      </trkpt>
      <trkpt lat="44.02875" lon="5.97644">
        <ele>420.8</ele>
        <time>2021-09-09T14:36:22Z</time>
      </trkpt>
      <trkpt lat="44.02875" lon="5.97645">
        <ele>420.8</ele>
        <time>2021-09-09T14:36:23Z</time>
      </trkpt>
      <trkpt lat="44.02875" lon="5.97646">
        <ele>420.8</ele>
        <time>2021-09-09T14:36:24Z</time>
      </trkpt>
      <trkpt lat="44.02875" lon="5.97646">
        <ele>420.8</ele>
        <time>2021-09-09T14:36:26Z</time>
      </trkpt>
      <trkpt lat="44.02875" lon="5.97646">
        <ele>420.8</ele>
        <time>2021-09-09T14:36:28Z</time>
      </trkpt>
      <trkpt lat="44.02875" lon="5.97646">
        <ele>420.8</ele>
        <time>2021-09-09T14:36:29Z</time>
      </trkpt>
      <trkpt lat="44.02875" lon="5.97646">
        <ele>420.8</ele>
        <time>2021-09-09T14:36:31Z</time>
      </trkpt>
      <trkpt lat="44.02875" lon="5.97646">
        <ele>420.9</ele>
        <time>2021-09-09T14:36:33Z</time>
      </trkpt>
      <trkpt lat="44.02875" lon="5.97646">
        <ele>420.9</ele>
        <time>2021-09-09T14:36:34Z</time>
      </trkpt>
      <trkpt lat="44.02875" lon="5.97646">
        <ele>420.9</ele>
        <time>2021-09-09T14:36:36Z</time>
      </trkpt>
      <trkpt lat="44.02875" lon="5.97646">
        <ele>420.9</ele>
        <time>2021-09-09T14:36:37Z</time>
      </trkpt>
      <trkpt lat="44.02875" lon="5.97646">
        <ele>420.9</ele>
        <time>2021-09-09T14:36:38Z</time>
      </trkpt>
      <trkpt lat="44.02875" lon="5.97646">
        <ele>420.9</ele>
        <time>2021-09-09T14:36:39Z</time>
      </trkpt>
      <trkpt lat="44.02875" lon="5.97646">
        <ele>420.9</ele>
        <time>2021-09-09T14:36:40Z</time>
      </trkpt>
      <trkpt lat="44.02875" lon="5.97646">
        <ele>420.9</ele>
        <time>2021-09-09T14:36:42Z</time>
      </trkpt>
      <trkpt lat="44.02875" lon="5.97646">
        <ele>421</ele>
        <time>2021-09-09T14:36:44Z</time>
      </trkpt>
      <trkpt lat="44.02875" lon="5.97646">
        <ele>421</ele>
        <time>2021-09-09T14:36:45Z</time>
      </trkpt>
      <trkpt lat="44.02876" lon="5.97647">
        <ele>421</ele>
        <time>2021-09-09T14:36:47Z</time>
      </trkpt>
      <trkpt lat="44.02878" lon="5.9765">
        <ele>421.1</ele>
        <time>2021-09-09T14:36:49Z</time>
      </trkpt>
      <trkpt lat="44.02878" lon="5.9765">
        <ele>421.1</ele>
        <time>2021-09-09T14:36:50Z</time>
      </trkpt>
      <trkpt lat="44.02878" lon="5.97651">
        <ele>421.1</ele>
        <time>2021-09-09T14:36:51Z</time>
      </trkpt>
      <trkpt lat="44.02879" lon="5.97653">
        <ele>421.4</ele>
        <time>2021-09-09T14:36:53Z</time>
      </trkpt>
      <trkpt lat="44.02879" lon="5.97654">
        <ele>421.5</ele>
        <time>2021-09-09T14:36:54Z</time>
      </trkpt>
      <trkpt lat="44.0288" lon="5.97656">
        <ele>421.5</ele>
        <time>2021-09-09T14:36:56Z</time>
      </trkpt>
      <trkpt lat="44.0288" lon="5.97656">
        <ele>421.5</ele>
        <time>2021-09-09T14:36:57Z</time>
      </trkpt>
      <trkpt lat="44.0288" lon="5.97657">
        <ele>422</ele>
        <time>2021-09-09T14:36:59Z</time>
      </trkpt>
      <trkpt lat="44.0288" lon="5.97659">
        <ele>422</ele>
        <time>2021-09-09T14:37:01Z</time>
      </trkpt>
      <trkpt lat="44.0288" lon="5.97659">
        <ele>422</ele>
        <time>2021-09-09T14:37:02Z</time>
      </trkpt>
      <trkpt lat="44.0288" lon="5.97659">
        <ele>422</ele>
        <time>2021-09-09T14:37:04Z</time>
      </trkpt>
      <trkpt lat="44.02882" lon="5.97666">
        <ele>422.5</ele>
        <time>2021-09-09T14:37:06Z</time>
      </trkpt>
      <trkpt lat="44.02881" lon="5.97663">
        <ele>422.1</ele>
        <time>2021-09-09T14:37:08Z</time>
      </trkpt>
      <trkpt lat="44.02881" lon="5.97662">
        <ele>422.2</ele>
        <time>2021-09-09T14:37:09Z</time>
      </trkpt>
      <trkpt lat="44.02881" lon="5.97662">
        <ele>422.2</ele>
        <time>2021-09-09T14:37:10Z</time>
      </trkpt>
      <trkpt lat="44.02881" lon="5.97662">
        <ele>422.2</ele>
        <time>2021-09-09T14:37:12Z</time>
      </trkpt>
      <trkpt lat="44.02882" lon="5.97663">
        <ele>422.2</ele>
        <time>2021-09-09T14:37:13Z</time>
      </trkpt>
      <trkpt lat="44.02882" lon="5.97663">
        <ele>422.2</ele>
        <time>2021-09-09T14:37:14Z</time>
      </trkpt>
      <trkpt lat="44.02882" lon="5.97664">
        <ele>422.2</ele>
        <time>2021-09-09T14:37:16Z</time>
      </trkpt>
      <trkpt lat="44.02882" lon="5.97664">
        <ele>422.2</ele>
        <time>2021-09-09T14:37:17Z</time>
      </trkpt>
      <trkpt lat="44.02881" lon="5.97664">
        <ele>422.2</ele>
        <time>2021-09-09T14:37:19Z</time>
      </trkpt>
      <trkpt lat="44.02881" lon="5.97663">
        <ele>422.3</ele>
        <time>2021-09-09T14:37:20Z</time>
      </trkpt>
      <trkpt lat="44.02881" lon="5.97662">
        <ele>422.3</ele>
        <time>2021-09-09T14:37:22Z</time>
      </trkpt>
      <trkpt lat="44.02881" lon="5.9766">
        <ele>422</ele>
        <time>2021-09-09T14:37:24Z</time>
      </trkpt>
      <trkpt lat="44.02881" lon="5.97659">
        <ele>422</ele>
        <time>2021-09-09T14:37:25Z</time>
      </trkpt>
      <trkpt lat="44.02881" lon="5.97657">
        <ele>422</ele>
        <time>2021-09-09T14:37:27Z</time>
      </trkpt>
      <trkpt lat="44.02882" lon="5.97657">
        <ele>422</ele>
        <time>2021-09-09T14:37:28Z</time>
      </trkpt>
      <trkpt lat="44.02882" lon="5.97656">
        <ele>421.5</ele>
        <time>2021-09-09T14:37:29Z</time>
      </trkpt>
      <trkpt lat="44.02883" lon="5.97655">
        <ele>421.6</ele>
        <time>2021-09-09T14:37:31Z</time>
      </trkpt>
      <trkpt lat="44.02884" lon="5.97654">
        <ele>421.3</ele>
        <time>2021-09-09T14:37:33Z</time>
      </trkpt>
      <trkpt lat="44.02885" lon="5.97653">
        <ele>421.3</ele>
        <time>2021-09-09T14:37:34Z</time>
      </trkpt>
      <trkpt lat="44.02885" lon="5.97653">
        <ele>421.3</ele>
        <time>2021-09-09T14:37:35Z</time>
      </trkpt>
      <trkpt lat="44.0289" lon="5.97643">
        <ele>420</ele>
        <time>2021-09-09T14:37:37Z</time>
      </trkpt>
      <trkpt lat="44.02893" lon="5.9764">
        <ele>419.8</ele>
        <time>2021-09-09T14:37:39Z</time>
      </trkpt>
      <trkpt lat="44.02894" lon="5.97638">
        <ele>419.6</ele>
        <time>2021-09-09T14:37:40Z</time>
      </trkpt>
      <trkpt lat="44.02894" lon="5.97637">
        <ele>419.6</ele>
        <time>2021-09-09T14:37:41Z</time>
      </trkpt>
      <trkpt lat="44.02894" lon="5.97634">
        <ele>419.4</ele>
        <time>2021-09-09T14:37:43Z</time>
      </trkpt>
      <trkpt lat="44.02895" lon="5.97632">
        <ele>419.5</ele>
        <time>2021-09-09T14:37:45Z</time>
      </trkpt>
      <trkpt lat="44.02896" lon="5.9763">
        <ele>419.3</ele>
        <time>2021-09-09T14:37:47Z</time>
      </trkpt>
      <trkpt lat="44.02897" lon="5.97628">
        <ele>419.1</ele>
        <time>2021-09-09T14:37:49Z</time>
      </trkpt>
      <trkpt lat="44.02898" lon="5.97627">
        <ele>419.1</ele>
        <time>2021-09-09T14:37:50Z</time>
      </trkpt>
      <trkpt lat="44.02901" lon="5.97623">
        <ele>418.8</ele>
        <time>2021-09-09T14:37:52Z</time>
      </trkpt>
      <trkpt lat="44.02903" lon="5.97621">
        <ele>418.6</ele>
        <time>2021-09-09T14:37:53Z</time>
      </trkpt>
      <trkpt lat="44.02906" lon="5.97621">
        <ele>418.4</ele>
        <time>2021-09-09T14:37:55Z</time>
      </trkpt>
      <trkpt lat="44.02908" lon="5.9762">
        <ele>418.2</ele>
        <time>2021-09-09T14:37:57Z</time>
      </trkpt>
      <trkpt lat="44.02908" lon="5.97621">
        <ele>418.4</ele>
        <time>2021-09-09T14:37:58Z</time>
      </trkpt>
      <trkpt lat="44.02906" lon="5.97622">
        <ele>418.4</ele>
        <time>2021-09-09T14:38:00Z</time>
      </trkpt>
      <trkpt lat="44.02904" lon="5.97622">
        <ele>418.7</ele>
        <time>2021-09-09T14:38:01Z</time>
      </trkpt>
      <trkpt lat="44.02903" lon="5.97622">
        <ele>418.8</ele>
        <time>2021-09-09T14:38:02Z</time>
      </trkpt>
      <trkpt lat="44.02902" lon="5.97622">
        <ele>418.6</ele>
        <time>2021-09-09T14:38:04Z</time>
      </trkpt>
      <trkpt lat="44.02902" lon="5.97622">
        <ele>418.8</ele>
        <time>2021-09-09T14:38:05Z</time>
      </trkpt>
      <trkpt lat="44.02901" lon="5.97621">
        <ele>418.8</ele>
        <time>2021-09-09T14:38:07Z</time>
      </trkpt>
      <trkpt lat="44.02901" lon="5.97621">
        <ele>418.8</ele>
        <time>2021-09-09T14:38:09Z</time>
      </trkpt>
      <trkpt lat="44.029" lon="5.97621">
        <ele>418.9</ele>
        <time>2021-09-09T14:38:10Z</time>
      </trkpt>
      <trkpt lat="44.029" lon="5.97621">
        <ele>418.9</ele>
        <time>2021-09-09T14:38:11Z</time>
      </trkpt>
      <trkpt lat="44.029" lon="5.9762">
        <ele>418.9</ele>
        <time>2021-09-09T14:38:13Z</time>
      </trkpt>
      <trkpt lat="44.02899" lon="5.9762">
        <ele>418.9</ele>
        <time>2021-09-09T14:38:15Z</time>
      </trkpt>
      <trkpt lat="44.02899" lon="5.9762">
        <ele>419.1</ele>
        <time>2021-09-09T14:38:17Z</time>
      </trkpt>
      <trkpt lat="44.02898" lon="5.97619">
        <ele>419.1</ele>
        <time>2021-09-09T14:38:18Z</time>
      </trkpt>
      <trkpt lat="44.02893" lon="5.97617">
        <ele>419.1</ele>
        <time>2021-09-09T14:38:20Z</time>
      </trkpt>
      <trkpt lat="44.02891" lon="5.97616">
        <ele>419.3</ele>
        <time>2021-09-09T14:38:22Z</time>
      </trkpt>
      <trkpt lat="44.02891" lon="5.97616">
        <ele>419.3</ele>
        <time>2021-09-09T14:38:24Z</time>
      </trkpt>
      <trkpt lat="44.02889" lon="5.97618">
        <ele>419.6</ele>
        <time>2021-09-09T14:38:26Z</time>
      </trkpt>
      <trkpt lat="44.02886" lon="5.97619">
        <ele>419.8</ele>
        <time>2021-09-09T14:38:28Z</time>
      </trkpt>
      <trkpt lat="44.02886" lon="5.97619">
        <ele>419.8</ele>
        <time>2021-09-09T14:38:29Z</time>
      </trkpt>
      <trkpt lat="44.02886" lon="5.97619">
        <ele>419.9</ele>
        <time>2021-09-09T14:38:30Z</time>
      </trkpt>
      <trkpt lat="44.02886" lon="5.97619">
        <ele>419.9</ele>
        <time>2021-09-09T14:38:31Z</time>
      </trkpt>
      <trkpt lat="44.02885" lon="5.97619">
        <ele>419.9</ele>
        <time>2021-09-09T14:38:33Z</time>
      </trkpt>
      <trkpt lat="44.02885" lon="5.97619">
        <ele>419.9</ele>
        <time>2021-09-09T14:38:35Z</time>
      </trkpt>
      <trkpt lat="44.02885" lon="5.97619">
        <ele>419.9</ele>
        <time>2021-09-09T14:38:37Z</time>
      </trkpt>
      <trkpt lat="44.02885" lon="5.97619">
        <ele>419.9</ele>
        <time>2021-09-09T14:38:39Z</time>
      </trkpt>
      <trkpt lat="44.02885" lon="5.97619">
        <ele>419.9</ele>
        <time>2021-09-09T14:38:40Z</time>
      </trkpt>
      <trkpt lat="44.02885" lon="5.97619">
        <ele>419.9</ele>
        <time>2021-09-09T14:38:41Z</time>
      </trkpt>
      <trkpt lat="44.02885" lon="5.97619">
        <ele>420</ele>
        <time>2021-09-09T14:38:43Z</time>
      </trkpt>
      <trkpt lat="44.02885" lon="5.97619">
        <ele>420</ele>
        <time>2021-09-09T14:38:45Z</time>
      </trkpt>
      <trkpt lat="44.02884" lon="5.97618">
        <ele>420</ele>
        <time>2021-09-09T14:38:47Z</time>
      </trkpt>
      <trkpt lat="44.02889" lon="5.97617">
        <ele>419.6</ele>
        <time>2021-09-09T14:38:48Z</time>
      </trkpt>
      <trkpt lat="44.02894" lon="5.97616">
        <ele>419.3</ele>
        <time>2021-09-09T14:38:49Z</time>
      </trkpt>
      <trkpt lat="44.02897" lon="5.97616">
        <ele>419.2</ele>
        <time>2021-09-09T14:38:51Z</time>
      </trkpt>
      <trkpt lat="44.02896" lon="5.97617">
        <ele>419.3</ele>
        <time>2021-09-09T14:38:53Z</time>
      </trkpt>
      <trkpt lat="44.02896" lon="5.97617">
        <ele>419.4</ele>
        <time>2021-09-09T14:38:54Z</time>
      </trkpt>
      <trkpt lat="44.02896" lon="5.97617">
        <ele>419.2</ele>
        <time>2021-09-09T14:38:55Z</time>
      </trkpt>
      <trkpt lat="44.02896" lon="5.97617">
        <ele>419.2</ele>
        <time>2021-09-09T14:38:56Z</time>
      </trkpt>
      <trkpt lat="44.02895" lon="5.97619">
        <ele>419.5</ele>
        <time>2021-09-09T14:38:57Z</time>
      </trkpt>
      <trkpt lat="44.02892" lon="5.97619">
        <ele>419.7</ele>
        <time>2021-09-09T14:38:59Z</time>
      </trkpt>
      <trkpt lat="44.02892" lon="5.97619">
        <ele>419.8</ele>
        <time>2021-09-09T14:39:00Z</time>
      </trkpt>
      <trkpt lat="44.02892" lon="5.9762">
        <ele>419.8</ele>
        <time>2021-09-09T14:39:02Z</time>
      </trkpt>
      <trkpt lat="44.02892" lon="5.9762">
        <ele>419.8</ele>
        <time>2021-09-09T14:39:03Z</time>
      </trkpt>
      <trkpt lat="44.02891" lon="5.97621">
        <ele>419.8</ele>
        <time>2021-09-09T14:39:05Z</time>
      </trkpt>
      <trkpt lat="44.02891" lon="5.97621">
        <ele>419.8</ele>
        <time>2021-09-09T14:39:07Z</time>
      </trkpt>
      <trkpt lat="44.02891" lon="5.97621">
        <ele>419.8</ele>
        <time>2021-09-09T14:39:09Z</time>
      </trkpt>
      <trkpt lat="44.02891" lon="5.97622">
        <ele>419.8</ele>
        <time>2021-09-09T14:39:11Z</time>
      </trkpt>
      <trkpt lat="44.02891" lon="5.97622">
        <ele>419.8</ele>
        <time>2021-09-09T14:39:12Z</time>
      </trkpt>
      <trkpt lat="44.02891" lon="5.97622">
        <ele>420</ele>
        <time>2021-09-09T14:39:14Z</time>
      </trkpt>
      <trkpt lat="44.02891" lon="5.97622">
        <ele>420</ele>
        <time>2021-09-09T14:39:20Z</time>
      </trkpt>
      <trkpt lat="44.02889" lon="5.97623">
        <ele>420.2</ele>
        <time>2021-09-09T14:39:26Z</time>
      </trkpt>
      <trkpt lat="44.02874" lon="5.97623">
        <ele>421</ele>
        <time>2021-09-09T14:39:32Z</time>
      </trkpt>
      <trkpt lat="44.02866" lon="5.97624">
        <ele>421.4</ele>
        <time>2021-09-09T14:39:39Z</time>
      </trkpt>
      <trkpt lat="44.02864" lon="5.97624">
        <ele>421.6</ele>
        <time>2021-09-09T14:39:45Z</time>
      </trkpt>
      <trkpt lat="44.02866" lon="5.97624">
        <ele>421.4</ele>
        <time>2021-09-09T14:39:51Z</time>
      </trkpt>
      <trkpt lat="44.02867" lon="5.97624">
        <ele>421.4</ele>
        <time>2021-09-09T14:39:58Z</time>
      </trkpt>
      <trkpt lat="44.02878" lon="5.97639">
        <ele>421.5</ele>
        <time>2021-09-09T14:52:45Z</time>
      </trkpt>
      <trkpt lat="44.02877" lon="5.97637">
        <ele>421.7</ele>
        <time>2021-09-09T14:52:46Z</time>
      </trkpt>
      <trkpt lat="44.02875" lon="5.97636">
        <ele>421.7</ele>
        <time>2021-09-09T14:52:49Z</time>
      </trkpt>
      <trkpt lat="44.02875" lon="5.97636">
        <ele>421.7</ele>
        <time>2021-09-09T14:52:50Z</time>
      </trkpt>
      <trkpt lat="44.02875" lon="5.97636">
        <ele>421.7</ele>
        <time>2021-09-09T14:52:53Z</time>
      </trkpt>
      <trkpt lat="44.02875" lon="5.97635">
        <ele>421.8</ele>
        <time>2021-09-09T14:52:54Z</time>
      </trkpt>
      <trkpt lat="44.02874" lon="5.97634">
        <ele>421.5</ele>
        <time>2021-09-09T14:52:59Z</time>
      </trkpt>
      <trkpt lat="44.02874" lon="5.97634">
        <ele>421.5</ele>
        <time>2021-09-09T14:53:00Z</time>
      </trkpt>
      <trkpt lat="44.02875" lon="5.97632">
        <ele>421.5</ele>
        <time>2021-09-09T14:53:02Z</time>
      </trkpt>
      <trkpt lat="44.02875" lon="5.97631">
        <ele>421.3</ele>
        <time>2021-09-09T14:53:04Z</time>
      </trkpt>
      <trkpt lat="44.02879" lon="5.97628">
        <ele>421.2</ele>
        <time>2021-09-09T14:53:30Z</time>
      </trkpt>
      <trkpt lat="44.02888" lon="5.97617">
        <ele>420.1</ele>
        <time>2021-09-09T14:53:32Z</time>
      </trkpt>
      <trkpt lat="44.02894" lon="5.97613">
        <ele>419.6</ele>
        <time>2021-09-09T14:53:33Z</time>
      </trkpt>
      <trkpt lat="44.02902" lon="5.97609">
        <ele>419.4</ele>
        <time>2021-09-09T14:53:34Z</time>
      </trkpt>
      <trkpt lat="44.0291" lon="5.97608">
        <ele>418.8</ele>
        <time>2021-09-09T14:53:36Z</time>
      </trkpt>
      <trkpt lat="44.02914" lon="5.97608">
        <ele>418.6</ele>
        <time>2021-09-09T14:53:37Z</time>
      </trkpt>
      <trkpt lat="44.02916" lon="5.97608">
        <ele>418.4</ele>
        <time>2021-09-09T14:53:38Z</time>
      </trkpt>
      <trkpt lat="44.0292" lon="5.97607">
        <ele>418.2</ele>
        <time>2021-09-09T14:53:40Z</time>
      </trkpt>
      <trkpt lat="44.02924" lon="5.97608">
        <ele>417.8</ele>
        <time>2021-09-09T14:53:41Z</time>
      </trkpt>
      <trkpt lat="44.02928" lon="5.97609">
        <ele>417.7</ele>
        <time>2021-09-09T14:53:43Z</time>
      </trkpt>
      <trkpt lat="44.02931" lon="5.9761">
        <ele>417.6</ele>
        <time>2021-09-09T14:53:44Z</time>
      </trkpt>
      <trkpt lat="44.02936" lon="5.97611">
        <ele>417.4</ele>
        <time>2021-09-09T14:53:46Z</time>
      </trkpt>
      <trkpt lat="44.02939" lon="5.97614">
        <ele>417.5</ele>
        <time>2021-09-09T14:53:47Z</time>
      </trkpt>
      <trkpt lat="44.02944" lon="5.97619">
        <ele>417.6</ele>
        <time>2021-09-09T14:53:49Z</time>
      </trkpt>
      <trkpt lat="44.02947" lon="5.97621">
        <ele>417.6</ele>
        <time>2021-09-09T14:53:50Z</time>
      </trkpt>
      <trkpt lat="44.02948" lon="5.97622">
        <ele>417.6</ele>
        <time>2021-09-09T14:53:51Z</time>
      </trkpt>
      <trkpt lat="44.0295" lon="5.97623">
        <ele>417.7</ele>
        <time>2021-09-09T14:53:52Z</time>
      </trkpt>
      <trkpt lat="44.02953" lon="5.97626">
        <ele>417.7</ele>
        <time>2021-09-09T14:53:54Z</time>
      </trkpt>
      <trkpt lat="44.02958" lon="5.9763">
        <ele>417.8</ele>
        <time>2021-09-09T14:53:55Z</time>
      </trkpt>
      <trkpt lat="44.02964" lon="5.97633">
        <ele>417.9</ele>
        <time>2021-09-09T14:53:57Z</time>
      </trkpt>
      <trkpt lat="44.02966" lon="5.97634">
        <ele>417.9</ele>
        <time>2021-09-09T14:53:58Z</time>
      </trkpt>
      <trkpt lat="44.02975" lon="5.97635">
        <ele>416.8</ele>
        <time>2021-09-09T14:54:00Z</time>
      </trkpt>
      <trkpt lat="44.02985" lon="5.97628">
        <ele>414.4</ele>
        <time>2021-09-09T14:54:02Z</time>
      </trkpt>
      <trkpt lat="44.02994" lon="5.97619">
        <ele>413.6</ele>
        <time>2021-09-09T14:54:04Z</time>
      </trkpt>
      <trkpt lat="44.02998" lon="5.97617">
        <ele>413.4</ele>
        <time>2021-09-09T14:54:05Z</time>
      </trkpt>
      <trkpt lat="44.02998" lon="5.97617">
        <ele>413.4</ele>
        <time>2021-09-09T14:54:06Z</time>
      </trkpt>
      <trkpt lat="44.02997" lon="5.97612">
        <ele>413.3</ele>
        <time>2021-09-09T14:54:08Z</time>
      </trkpt>
      <trkpt lat="44.03002" lon="5.97608">
        <ele>413</ele>
        <time>2021-09-09T14:54:09Z</time>
      </trkpt>
      <trkpt lat="44.03009" lon="5.97602">
        <ele>412.3</ele>
        <time>2021-09-09T14:54:11Z</time>
      </trkpt>
      <trkpt lat="44.03014" lon="5.97596">
        <ele>412</ele>
        <time>2021-09-09T14:54:13Z</time>
      </trkpt>
      <trkpt lat="44.03016" lon="5.97593">
        <ele>411.4</ele>
        <time>2021-09-09T14:54:14Z</time>
      </trkpt>
      <trkpt lat="44.03017" lon="5.97593">
        <ele>411.4</ele>
        <time>2021-09-09T14:54:15Z</time>
      </trkpt>
      <trkpt lat="44.03021" lon="5.9759">
        <ele>411.2</ele>
        <time>2021-09-09T14:54:17Z</time>
      </trkpt>
      <trkpt lat="44.03022" lon="5.97588">
        <ele>411.1</ele>
        <time>2021-09-09T14:54:18Z</time>
      </trkpt>
      <trkpt lat="44.03023" lon="5.97588">
        <ele>411.1</ele>
        <time>2021-09-09T14:54:20Z</time>
      </trkpt>
      <trkpt lat="44.03025" lon="5.9759">
        <ele>411.1</ele>
        <time>2021-09-09T14:54:21Z</time>
      </trkpt>
      <trkpt lat="44.03025" lon="5.97591">
        <ele>411.1</ele>
        <time>2021-09-09T14:54:22Z</time>
      </trkpt>
      <trkpt lat="44.0303" lon="5.97616">
        <ele>411.1</ele>
        <time>2021-09-09T14:54:24Z</time>
      </trkpt>
      <trkpt lat="44.03029" lon="5.97628">
        <ele>411.1</ele>
        <time>2021-09-09T14:54:25Z</time>
      </trkpt>
      <trkpt lat="44.03029" lon="5.97644">
        <ele>411.1</ele>
        <time>2021-09-09T14:54:27Z</time>
      </trkpt>
      <trkpt lat="44.03032" lon="5.97652">
        <ele>411.1</ele>
        <time>2021-09-09T14:54:28Z</time>
      </trkpt>
      <trkpt lat="44.03034" lon="5.97661">
        <ele>411.1</ele>
        <time>2021-09-09T14:54:30Z</time>
      </trkpt>
      <trkpt lat="44.03035" lon="5.97672">
        <ele>411</ele>
        <time>2021-09-09T14:54:31Z</time>
      </trkpt>
      <trkpt lat="44.03035" lon="5.97682">
        <ele>411</ele>
        <time>2021-09-09T14:54:33Z</time>
      </trkpt>
      <trkpt lat="44.03035" lon="5.97688">
        <ele>411</ele>
        <time>2021-09-09T14:54:34Z</time>
      </trkpt>
      <trkpt lat="44.03036" lon="5.97696">
        <ele>411</ele>
        <time>2021-09-09T14:54:35Z</time>
      </trkpt>
      <trkpt lat="44.03036" lon="5.97704">
        <ele>410.9</ele>
        <time>2021-09-09T14:54:37Z</time>
      </trkpt>
      <trkpt lat="44.03037" lon="5.97708">
        <ele>410.9</ele>
        <time>2021-09-09T14:54:38Z</time>
      </trkpt>
      <trkpt lat="44.03037" lon="5.9771">
        <ele>410.9</ele>
        <time>2021-09-09T14:54:39Z</time>
      </trkpt>
      <trkpt lat="44.03039" lon="5.97714">
        <ele>410.8</ele>
        <time>2021-09-09T14:54:41Z</time>
      </trkpt>
      <trkpt lat="44.0304" lon="5.97719">
        <ele>410.8</ele>
        <time>2021-09-09T14:54:42Z</time>
      </trkpt>
      <trkpt lat="44.03042" lon="5.97726">
        <ele>410.8</ele>
        <time>2021-09-09T14:54:44Z</time>
      </trkpt>
      <trkpt lat="44.03043" lon="5.97734">
        <ele>410.7</ele>
        <time>2021-09-09T14:54:45Z</time>
      </trkpt>
      <trkpt lat="44.03044" lon="5.97739">
        <ele>410.7</ele>
        <time>2021-09-09T14:54:46Z</time>
      </trkpt>
      <trkpt lat="44.03045" lon="5.97745">
        <ele>410.7</ele>
        <time>2021-09-09T14:54:47Z</time>
      </trkpt>
      <trkpt lat="44.03045" lon="5.9775">
        <ele>410.6</ele>
        <time>2021-09-09T14:54:48Z</time>
      </trkpt>
      <trkpt lat="44.03046" lon="5.97758">
        <ele>410.6</ele>
        <time>2021-09-09T14:54:49Z</time>
      </trkpt>
      <trkpt lat="44.03046" lon="5.97765">
        <ele>410.5</ele>
        <time>2021-09-09T14:54:50Z</time>
      </trkpt>
      <trkpt lat="44.03048" lon="5.97778">
        <ele>410.4</ele>
        <time>2021-09-09T14:54:52Z</time>
      </trkpt>
      <trkpt lat="44.03049" lon="5.97785">
        <ele>410.4</ele>
        <time>2021-09-09T14:54:53Z</time>
      </trkpt>
      <trkpt lat="44.03053" lon="5.97795">
        <ele>410.2</ele>
        <time>2021-09-09T14:54:55Z</time>
      </trkpt>
      <trkpt lat="44.03055" lon="5.97803">
        <ele>410.1</ele>
        <time>2021-09-09T14:54:56Z</time>
      </trkpt>
      <trkpt lat="44.03056" lon="5.97814">
        <ele>410</ele>
        <time>2021-09-09T14:54:58Z</time>
      </trkpt>
      <trkpt lat="44.03056" lon="5.97822">
        <ele>409.9</ele>
        <time>2021-09-09T14:54:59Z</time>
      </trkpt>
      <trkpt lat="44.03056" lon="5.9783">
        <ele>409.8</ele>
        <time>2021-09-09T14:55:00Z</time>
      </trkpt>
      <trkpt lat="44.03058" lon="5.97837">
        <ele>409.7</ele>
        <time>2021-09-09T14:55:01Z</time>
      </trkpt>
      <trkpt lat="44.03059" lon="5.97844">
        <ele>409.6</ele>
        <time>2021-09-09T14:55:02Z</time>
      </trkpt>
      <trkpt lat="44.03062" lon="5.97858">
        <ele>409.4</ele>
        <time>2021-09-09T14:55:04Z</time>
      </trkpt>
      <trkpt lat="44.03063" lon="5.97872">
        <ele>409.1</ele>
        <time>2021-09-09T14:55:06Z</time>
      </trkpt>
      <trkpt lat="44.03061" lon="5.9788">
        <ele>409</ele>
        <time>2021-09-09T14:55:07Z</time>
      </trkpt>
      <trkpt lat="44.03059" lon="5.97897">
        <ele>408.7</ele>
        <time>2021-09-09T14:55:09Z</time>
      </trkpt>
      <trkpt lat="44.03059" lon="5.97914">
        <ele>408.4</ele>
        <time>2021-09-09T14:55:11Z</time>
      </trkpt>
      <trkpt lat="44.03059" lon="5.97922">
        <ele>408.3</ele>
        <time>2021-09-09T14:55:12Z</time>
      </trkpt>
      <trkpt lat="44.0306" lon="5.97939">
        <ele>408</ele>
        <time>2021-09-09T14:55:14Z</time>
      </trkpt>
      <trkpt lat="44.03061" lon="5.97948">
        <ele>407.9</ele>
        <time>2021-09-09T14:55:15Z</time>
      </trkpt>
      <trkpt lat="44.03064" lon="5.97964">
        <ele>407.6</ele>
        <time>2021-09-09T14:55:17Z</time>
      </trkpt>
      <trkpt lat="44.03068" lon="5.97982">
        <ele>407.3</ele>
        <time>2021-09-09T14:55:19Z</time>
      </trkpt>
      <trkpt lat="44.03068" lon="5.97993">
        <ele>407.1</ele>
        <time>2021-09-09T14:55:20Z</time>
      </trkpt>
      <trkpt lat="44.0307" lon="5.98013">
        <ele>406.7</ele>
        <time>2021-09-09T14:55:22Z</time>
      </trkpt>
      <trkpt lat="44.03072" lon="5.98023">
        <ele>406.6</ele>
        <time>2021-09-09T14:55:23Z</time>
      </trkpt>
      <trkpt lat="44.03074" lon="5.98033">
        <ele>406.4</ele>
        <time>2021-09-09T14:55:24Z</time>
      </trkpt>
      <trkpt lat="44.0308" lon="5.98052">
        <ele>406.2</ele>
        <time>2021-09-09T14:55:26Z</time>
      </trkpt>
      <trkpt lat="44.03087" lon="5.98072">
        <ele>405.9</ele>
        <time>2021-09-09T14:55:28Z</time>
      </trkpt>
      <trkpt lat="44.0309" lon="5.98082">
        <ele>405.8</ele>
        <time>2021-09-09T14:55:29Z</time>
      </trkpt>
      <trkpt lat="44.03095" lon="5.98091">
        <ele>405.8</ele>
        <time>2021-09-09T14:55:30Z</time>
      </trkpt>
      <trkpt lat="44.031" lon="5.981">
        <ele>405.8</ele>
        <time>2021-09-09T14:55:31Z</time>
      </trkpt>
      <trkpt lat="44.03109" lon="5.98119">
        <ele>405.8</ele>
        <time>2021-09-09T14:55:33Z</time>
      </trkpt>
      <trkpt lat="44.03116" lon="5.98137">
        <ele>405.8</ele>
        <time>2021-09-09T14:55:35Z</time>
      </trkpt>
      <trkpt lat="44.03121" lon="5.98145">
        <ele>405.8</ele>
        <time>2021-09-09T14:55:36Z</time>
      </trkpt>
      <trkpt lat="44.03125" lon="5.98153">
        <ele>405.8</ele>
        <time>2021-09-09T14:55:37Z</time>
      </trkpt>
      <trkpt lat="44.03133" lon="5.98168">
        <ele>405.9</ele>
        <time>2021-09-09T14:55:39Z</time>
      </trkpt>
      <trkpt lat="44.03138" lon="5.98182">
        <ele>405.9</ele>
        <time>2021-09-09T14:55:41Z</time>
      </trkpt>
      <trkpt lat="44.03141" lon="5.98189">
        <ele>406</ele>
        <time>2021-09-09T14:55:42Z</time>
      </trkpt>
      <trkpt lat="44.03147" lon="5.98202">
        <ele>406</ele>
        <time>2021-09-09T14:55:44Z</time>
      </trkpt>
      <trkpt lat="44.0315" lon="5.98209">
        <ele>406.1</ele>
        <time>2021-09-09T14:55:45Z</time>
      </trkpt>
      <trkpt lat="44.03155" lon="5.98224">
        <ele>406.2</ele>
        <time>2021-09-09T14:55:47Z</time>
      </trkpt>
      <trkpt lat="44.03158" lon="5.98231">
        <ele>406.2</ele>
        <time>2021-09-09T14:55:48Z</time>
      </trkpt>
      <trkpt lat="44.03164" lon="5.98243">
        <ele>406.3</ele>
        <time>2021-09-09T14:55:50Z</time>
      </trkpt>
      <trkpt lat="44.03167" lon="5.98249">
        <ele>406.3</ele>
        <time>2021-09-09T14:55:51Z</time>
      </trkpt>
      <trkpt lat="44.0317" lon="5.98261">
        <ele>406.4</ele>
        <time>2021-09-09T14:55:53Z</time>
      </trkpt>
      <trkpt lat="44.03172" lon="5.98266">
        <ele>406.5</ele>
        <time>2021-09-09T14:55:54Z</time>
      </trkpt>
      <trkpt lat="44.03174" lon="5.98272">
        <ele>406.5</ele>
        <time>2021-09-09T14:55:55Z</time>
      </trkpt>
      <trkpt lat="44.03178" lon="5.98283">
        <ele>406.6</ele>
        <time>2021-09-09T14:55:57Z</time>
      </trkpt>
      <trkpt lat="44.03184" lon="5.98296">
        <ele>406.8</ele>
        <time>2021-09-09T14:55:59Z</time>
      </trkpt>
      <trkpt lat="44.03188" lon="5.98307">
        <ele>407</ele>
        <time>2021-09-09T14:56:01Z</time>
      </trkpt>
      <trkpt lat="44.0319" lon="5.98313">
        <ele>407.1</ele>
        <time>2021-09-09T14:56:02Z</time>
      </trkpt>
      <trkpt lat="44.03192" lon="5.98318">
        <ele>407.2</ele>
        <time>2021-09-09T14:56:03Z</time>
      </trkpt>
      <trkpt lat="44.03194" lon="5.98322">
        <ele>407.2</ele>
        <time>2021-09-09T14:56:04Z</time>
      </trkpt>
      <trkpt lat="44.03196" lon="5.98331">
        <ele>407.4</ele>
        <time>2021-09-09T14:56:06Z</time>
      </trkpt>
      <trkpt lat="44.03197" lon="5.98336">
        <ele>407.5</ele>
        <time>2021-09-09T14:56:07Z</time>
      </trkpt>
      <trkpt lat="44.032" lon="5.98346">
        <ele>407.6</ele>
        <time>2021-09-09T14:56:09Z</time>
      </trkpt>
      <trkpt lat="44.03203" lon="5.98353">
        <ele>407.7</ele>
        <time>2021-09-09T14:56:10Z</time>
      </trkpt>
      <trkpt lat="44.03206" lon="5.9836">
        <ele>407.8</ele>
        <time>2021-09-09T14:56:11Z</time>
      </trkpt>
      <trkpt lat="44.03205" lon="5.98366">
        <ele>407.9</ele>
        <time>2021-09-09T14:56:13Z</time>
      </trkpt>
      <trkpt lat="44.03208" lon="5.98376">
        <ele>408</ele>
        <time>2021-09-09T14:56:14Z</time>
      </trkpt>
      <trkpt lat="44.03212" lon="5.98383">
        <ele>408.1</ele>
        <time>2021-09-09T14:56:16Z</time>
      </trkpt>
      <trkpt lat="44.03215" lon="5.98392">
        <ele>408.2</ele>
        <time>2021-09-09T14:56:17Z</time>
      </trkpt>
      <trkpt lat="44.03218" lon="5.98403">
        <ele>408.3</ele>
        <time>2021-09-09T14:56:19Z</time>
      </trkpt>
      <trkpt lat="44.0322" lon="5.98409">
        <ele>408.4</ele>
        <time>2021-09-09T14:56:20Z</time>
      </trkpt>
      <trkpt lat="44.03223" lon="5.98416">
        <ele>408.5</ele>
        <time>2021-09-09T14:56:22Z</time>
      </trkpt>
      <trkpt lat="44.03227" lon="5.98426">
        <ele>408.6</ele>
        <time>2021-09-09T14:56:24Z</time>
      </trkpt>
      <trkpt lat="44.03233" lon="5.9844">
        <ele>408.8</ele>
        <time>2021-09-09T14:56:26Z</time>
      </trkpt>
      <trkpt lat="44.03239" lon="5.98452">
        <ele>408.9</ele>
        <time>2021-09-09T14:56:28Z</time>
      </trkpt>
      <trkpt lat="44.03242" lon="5.98458">
        <ele>409</ele>
        <time>2021-09-09T14:56:29Z</time>
      </trkpt>
      <trkpt lat="44.03244" lon="5.98464">
        <ele>409.1</ele>
        <time>2021-09-09T14:56:30Z</time>
      </trkpt>
      <trkpt lat="44.03245" lon="5.98468">
        <ele>409.1</ele>
        <time>2021-09-09T14:56:31Z</time>
      </trkpt>
      <trkpt lat="44.03247" lon="5.98474">
        <ele>409.1</ele>
        <time>2021-09-09T14:56:32Z</time>
      </trkpt>
      <trkpt lat="44.0325" lon="5.98479">
        <ele>409.2</ele>
        <time>2021-09-09T14:56:34Z</time>
      </trkpt>
      <trkpt lat="44.03256" lon="5.98488">
        <ele>409.2</ele>
        <time>2021-09-09T14:56:35Z</time>
      </trkpt>
      <trkpt lat="44.03265" lon="5.98501">
        <ele>409.3</ele>
        <time>2021-09-09T14:56:37Z</time>
      </trkpt>
      <trkpt lat="44.03267" lon="5.98506">
        <ele>409.3</ele>
        <time>2021-09-09T14:56:38Z</time>
      </trkpt>
      <trkpt lat="44.03275" lon="5.98518">
        <ele>409.4</ele>
        <time>2021-09-09T14:56:40Z</time>
      </trkpt>
      <trkpt lat="44.03284" lon="5.98532">
        <ele>409.4</ele>
        <time>2021-09-09T14:56:42Z</time>
      </trkpt>
      <trkpt lat="44.03292" lon="5.98544">
        <ele>409.4</ele>
        <time>2021-09-09T14:56:44Z</time>
      </trkpt>
      <trkpt lat="44.03299" lon="5.98556">
        <ele>409.3</ele>
        <time>2021-09-09T14:56:46Z</time>
      </trkpt>
      <trkpt lat="44.03306" lon="5.98566">
        <ele>409.3</ele>
        <time>2021-09-09T14:56:48Z</time>
      </trkpt>
      <trkpt lat="44.03312" lon="5.98578">
        <ele>409.3</ele>
        <time>2021-09-09T14:56:50Z</time>
      </trkpt>
      <trkpt lat="44.03318" lon="5.9859">
        <ele>409.3</ele>
        <time>2021-09-09T14:56:52Z</time>
      </trkpt>
      <trkpt lat="44.03324" lon="5.98601">
        <ele>409.2</ele>
        <time>2021-09-09T14:56:54Z</time>
      </trkpt>
      <trkpt lat="44.03328" lon="5.98606">
        <ele>409.2</ele>
        <time>2021-09-09T14:56:55Z</time>
      </trkpt>
      <trkpt lat="44.03331" lon="5.98611">
        <ele>409.2</ele>
        <time>2021-09-09T14:56:56Z</time>
      </trkpt>
      <trkpt lat="44.03334" lon="5.98617">
        <ele>409.2</ele>
        <time>2021-09-09T14:56:57Z</time>
      </trkpt>
      <trkpt lat="44.03341" lon="5.98628">
        <ele>409.1</ele>
        <time>2021-09-09T14:56:59Z</time>
      </trkpt>
      <trkpt lat="44.03347" lon="5.98639">
        <ele>409.1</ele>
        <time>2021-09-09T14:57:01Z</time>
      </trkpt>
      <trkpt lat="44.03354" lon="5.98652">
        <ele>409</ele>
        <time>2021-09-09T14:57:03Z</time>
      </trkpt>
      <trkpt lat="44.03361" lon="5.98664">
        <ele>409.1</ele>
        <time>2021-09-09T14:57:05Z</time>
      </trkpt>
      <trkpt lat="44.03364" lon="5.9867">
        <ele>409.1</ele>
        <time>2021-09-09T14:57:06Z</time>
      </trkpt>
      <trkpt lat="44.03367" lon="5.98676">
        <ele>409.1</ele>
        <time>2021-09-09T14:57:07Z</time>
      </trkpt>
      <trkpt lat="44.03374" lon="5.98685">
        <ele>409.1</ele>
        <time>2021-09-09T14:57:09Z</time>
      </trkpt>
      <trkpt lat="44.03378" lon="5.9869">
        <ele>409.1</ele>
        <time>2021-09-09T14:57:10Z</time>
      </trkpt>
      <trkpt lat="44.03381" lon="5.98695">
        <ele>409.1</ele>
        <time>2021-09-09T14:57:11Z</time>
      </trkpt>
      <trkpt lat="44.03389" lon="5.98705">
        <ele>409</ele>
        <time>2021-09-09T14:57:13Z</time>
      </trkpt>
      <trkpt lat="44.03392" lon="5.9871">
        <ele>409</ele>
        <time>2021-09-09T14:57:14Z</time>
      </trkpt>
      <trkpt lat="44.03396" lon="5.98715">
        <ele>409</ele>
        <time>2021-09-09T14:57:15Z</time>
      </trkpt>
      <trkpt lat="44.03403" lon="5.98725">
        <ele>409</ele>
        <time>2021-09-09T14:57:17Z</time>
      </trkpt>
      <trkpt lat="44.03407" lon="5.9873">
        <ele>409</ele>
        <time>2021-09-09T14:57:18Z</time>
      </trkpt>
      <trkpt lat="44.03415" lon="5.9874">
        <ele>409</ele>
        <time>2021-09-09T14:57:20Z</time>
      </trkpt>
      <trkpt lat="44.03419" lon="5.98745">
        <ele>409</ele>
        <time>2021-09-09T14:57:21Z</time>
      </trkpt>
      <trkpt lat="44.03423" lon="5.98749">
        <ele>409</ele>
        <time>2021-09-09T14:57:22Z</time>
      </trkpt>
      <trkpt lat="44.03431" lon="5.98758">
        <ele>409</ele>
        <time>2021-09-09T14:57:24Z</time>
      </trkpt>
      <trkpt lat="44.03436" lon="5.98762">
        <ele>409</ele>
        <time>2021-09-09T14:57:25Z</time>
      </trkpt>
      <trkpt lat="44.0344" lon="5.98767">
        <ele>409</ele>
        <time>2021-09-09T14:57:26Z</time>
      </trkpt>
      <trkpt lat="44.03445" lon="5.98771">
        <ele>409</ele>
        <time>2021-09-09T14:57:27Z</time>
      </trkpt>
      <trkpt lat="44.03454" lon="5.98781">
        <ele>409</ele>
        <time>2021-09-09T14:57:29Z</time>
      </trkpt>
      <trkpt lat="44.03463" lon="5.9879">
        <ele>409</ele>
        <time>2021-09-09T14:57:31Z</time>
      </trkpt>
      <trkpt lat="44.03467" lon="5.98794">
        <ele>409.1</ele>
        <time>2021-09-09T14:57:32Z</time>
      </trkpt>
      <trkpt lat="44.03477" lon="5.98804">
        <ele>409.1</ele>
        <time>2021-09-09T14:57:34Z</time>
      </trkpt>
      <trkpt lat="44.03481" lon="5.98809">
        <ele>409.1</ele>
        <time>2021-09-09T14:57:35Z</time>
      </trkpt>
      <trkpt lat="44.03485" lon="5.98813">
        <ele>409.1</ele>
        <time>2021-09-09T14:57:36Z</time>
      </trkpt>
      <trkpt lat="44.03487" lon="5.9882">
        <ele>409.1</ele>
        <time>2021-09-09T14:57:38Z</time>
      </trkpt>
      <trkpt lat="44.0349" lon="5.98826">
        <ele>409.1</ele>
        <time>2021-09-09T14:57:40Z</time>
      </trkpt>
      <trkpt lat="44.03491" lon="5.98828">
        <ele>409.1</ele>
        <time>2021-09-09T14:57:41Z</time>
      </trkpt>
      <trkpt lat="44.03492" lon="5.9883">
        <ele>409.1</ele>
        <time>2021-09-09T14:57:43Z</time>
      </trkpt>
      <trkpt lat="44.03493" lon="5.98832">
        <ele>409.1</ele>
        <time>2021-09-09T14:57:44Z</time>
      </trkpt>
      <trkpt lat="44.03493" lon="5.98834">
        <ele>409.1</ele>
        <time>2021-09-09T14:57:46Z</time>
      </trkpt>
      <trkpt lat="44.03494" lon="5.98836">
        <ele>409.1</ele>
        <time>2021-09-09T14:57:48Z</time>
      </trkpt>
      <trkpt lat="44.03495" lon="5.98838">
        <ele>409.1</ele>
        <time>2021-09-09T14:57:49Z</time>
      </trkpt>
      <trkpt lat="44.03496" lon="5.9884">
        <ele>409.1</ele>
        <time>2021-09-09T14:57:51Z</time>
      </trkpt>
      <trkpt lat="44.03497" lon="5.98842">
        <ele>409.1</ele>
        <time>2021-09-09T14:58:14Z</time>
      </trkpt>
      <trkpt lat="44.03498" lon="5.98844">
        <ele>409.1</ele>
        <time>2021-09-09T14:58:15Z</time>
      </trkpt>
      <trkpt lat="44.03503" lon="5.98848">
        <ele>409.1</ele>
        <time>2021-09-09T14:58:16Z</time>
      </trkpt>
      <trkpt lat="44.03511" lon="5.98855">
        <ele>409.2</ele>
        <time>2021-09-09T14:58:17Z</time>
      </trkpt>
      <trkpt lat="44.03522" lon="5.98863">
        <ele>409.2</ele>
        <time>2021-09-09T14:58:18Z</time>
      </trkpt>
      <trkpt lat="44.03528" lon="5.98869">
        <ele>409.2</ele>
        <time>2021-09-09T14:58:20Z</time>
      </trkpt>
      <trkpt lat="44.03531" lon="5.98874">
        <ele>409.2</ele>
        <time>2021-09-09T14:58:21Z</time>
      </trkpt>
      <trkpt lat="44.03536" lon="5.98878">
        <ele>409.2</ele>
        <time>2021-09-09T14:58:22Z</time>
      </trkpt>
      <trkpt lat="44.03541" lon="5.98883">
        <ele>409.2</ele>
        <time>2021-09-09T14:58:23Z</time>
      </trkpt>
      <trkpt lat="44.03545" lon="5.98887">
        <ele>409.2</ele>
        <time>2021-09-09T14:58:24Z</time>
      </trkpt>
      <trkpt lat="44.03551" lon="5.9889">
        <ele>409.3</ele>
        <time>2021-09-09T14:58:26Z</time>
      </trkpt>
      <trkpt lat="44.03556" lon="5.98899">
        <ele>409.3</ele>
        <time>2021-09-09T14:58:27Z</time>
      </trkpt>
      <trkpt lat="44.0356" lon="5.98906">
        <ele>409.3</ele>
        <time>2021-09-09T14:58:28Z</time>
      </trkpt>
      <trkpt lat="44.03564" lon="5.98912">
        <ele>409.3</ele>
        <time>2021-09-09T14:58:29Z</time>
      </trkpt>
      <trkpt lat="44.03567" lon="5.98917">
        <ele>409.3</ele>
        <time>2021-09-09T14:58:30Z</time>
      </trkpt>
      <trkpt lat="44.03573" lon="5.98926">
        <ele>409.4</ele>
        <time>2021-09-09T14:58:32Z</time>
      </trkpt>
      <trkpt lat="44.03575" lon="5.98932">
        <ele>409.4</ele>
        <time>2021-09-09T14:58:33Z</time>
      </trkpt>
      <trkpt lat="44.03578" lon="5.98937">
        <ele>409.4</ele>
        <time>2021-09-09T14:58:34Z</time>
      </trkpt>
      <trkpt lat="44.03583" lon="5.98946">
        <ele>409.5</ele>
        <time>2021-09-09T14:58:36Z</time>
      </trkpt>
      <trkpt lat="44.03588" lon="5.98952">
        <ele>409.5</ele>
        <time>2021-09-09T14:58:37Z</time>
      </trkpt>
      <trkpt lat="44.03592" lon="5.98952">
        <ele>409.5</ele>
        <time>2021-09-09T14:58:39Z</time>
      </trkpt>
      <trkpt lat="44.03598" lon="5.98965">
        <ele>409.5</ele>
        <time>2021-09-09T14:58:40Z</time>
      </trkpt>
      <trkpt lat="44.03601" lon="5.98971">
        <ele>409.5</ele>
        <time>2021-09-09T14:58:41Z</time>
      </trkpt>
      <trkpt lat="44.03604" lon="5.98975">
        <ele>409.5</ele>
        <time>2021-09-09T14:58:42Z</time>
      </trkpt>
      <trkpt lat="44.03607" lon="5.98976">
        <ele>409.5</ele>
        <time>2021-09-09T14:58:43Z</time>
      </trkpt>
      <trkpt lat="44.03616" lon="5.98987">
        <ele>409.6</ele>
        <time>2021-09-09T14:58:45Z</time>
      </trkpt>
      <trkpt lat="44.03623" lon="5.99002">
        <ele>409.6</ele>
        <time>2021-09-09T14:58:47Z</time>
      </trkpt>
      <trkpt lat="44.03626" lon="5.99009">
        <ele>409.6</ele>
        <time>2021-09-09T14:58:48Z</time>
      </trkpt>
      <trkpt lat="44.03629" lon="5.99014">
        <ele>409.6</ele>
        <time>2021-09-09T14:58:49Z</time>
      </trkpt>
      <trkpt lat="44.03632" lon="5.9902">
        <ele>409.6</ele>
        <time>2021-09-09T14:58:50Z</time>
      </trkpt>
      <trkpt lat="44.03638" lon="5.99033">
        <ele>409.6</ele>
        <time>2021-09-09T14:58:52Z</time>
      </trkpt>
      <trkpt lat="44.03641" lon="5.99039">
        <ele>409.6</ele>
        <time>2021-09-09T14:58:53Z</time>
      </trkpt>
      <trkpt lat="44.03644" lon="5.99045">
        <ele>409.6</ele>
        <time>2021-09-09T14:58:54Z</time>
      </trkpt>
      <trkpt lat="44.03647" lon="5.99051">
        <ele>409.6</ele>
        <time>2021-09-09T14:58:55Z</time>
      </trkpt>
      <trkpt lat="44.03645" lon="5.99057">
        <ele>409.6</ele>
        <time>2021-09-09T14:58:57Z</time>
      </trkpt>
      <trkpt lat="44.03651" lon="5.99063">
        <ele>409.7</ele>
        <time>2021-09-09T14:58:58Z</time>
      </trkpt>
      <trkpt lat="44.03653" lon="5.99069">
        <ele>409.7</ele>
        <time>2021-09-09T14:59:00Z</time>
      </trkpt>
      <trkpt lat="44.03662" lon="5.99076">
        <ele>409.7</ele>
        <time>2021-09-09T14:59:01Z</time>
      </trkpt>
      <trkpt lat="44.03665" lon="5.99081">
        <ele>409.7</ele>
        <time>2021-09-09T14:59:02Z</time>
      </trkpt>
      <trkpt lat="44.03671" lon="5.99086">
        <ele>409.7</ele>
        <time>2021-09-09T14:59:04Z</time>
      </trkpt>
      <trkpt lat="44.03677" lon="5.99095">
        <ele>409.7</ele>
        <time>2021-09-09T14:59:05Z</time>
      </trkpt>
      <trkpt lat="44.0368" lon="5.991">
        <ele>409.8</ele>
        <time>2021-09-09T14:59:06Z</time>
      </trkpt>
      <trkpt lat="44.03687" lon="5.9911">
        <ele>409.8</ele>
        <time>2021-09-09T14:59:08Z</time>
      </trkpt>
      <trkpt lat="44.03694" lon="5.9912">
        <ele>409.8</ele>
        <time>2021-09-09T14:59:10Z</time>
      </trkpt>
      <trkpt lat="44.037" lon="5.99131">
        <ele>409.9</ele>
        <time>2021-09-09T14:59:12Z</time>
      </trkpt>
      <trkpt lat="44.03706" lon="5.99143">
        <ele>409.9</ele>
        <time>2021-09-09T14:59:14Z</time>
      </trkpt>
      <trkpt lat="44.03708" lon="5.9915">
        <ele>410</ele>
        <time>2021-09-09T14:59:15Z</time>
      </trkpt>
      <trkpt lat="44.0371" lon="5.99156">
        <ele>410</ele>
        <time>2021-09-09T14:59:16Z</time>
      </trkpt>
      <trkpt lat="44.03712" lon="5.99162">
        <ele>410</ele>
        <time>2021-09-09T14:59:17Z</time>
      </trkpt>
      <trkpt lat="44.03717" lon="5.99174">
        <ele>410</ele>
        <time>2021-09-09T14:59:19Z</time>
      </trkpt>
      <trkpt lat="44.03719" lon="5.99181">
        <ele>410</ele>
        <time>2021-09-09T14:59:20Z</time>
      </trkpt>
      <trkpt lat="44.03724" lon="5.99195">
        <ele>410</ele>
        <time>2021-09-09T14:59:22Z</time>
      </trkpt>
      <trkpt lat="44.03725" lon="5.99209">
        <ele>410</ele>
        <time>2021-09-09T14:59:24Z</time>
      </trkpt>
      <trkpt lat="44.03729" lon="5.99221">
        <ele>410</ele>
        <time>2021-09-09T14:59:26Z</time>
      </trkpt>
      <trkpt lat="44.0373" lon="5.99228">
        <ele>410.1</ele>
        <time>2021-09-09T14:59:27Z</time>
      </trkpt>
      <trkpt lat="44.03731" lon="5.99235">
        <ele>410.1</ele>
        <time>2021-09-09T14:59:28Z</time>
      </trkpt>
      <trkpt lat="44.03731" lon="5.99243">
        <ele>410.1</ele>
        <time>2021-09-09T14:59:29Z</time>
      </trkpt>
      <trkpt lat="44.03732" lon="5.9925">
        <ele>410.1</ele>
        <time>2021-09-09T14:59:30Z</time>
      </trkpt>
      <trkpt lat="44.03734" lon="5.99263">
        <ele>410.1</ele>
        <time>2021-09-09T14:59:32Z</time>
      </trkpt>
      <trkpt lat="44.03737" lon="5.99276">
        <ele>410.2</ele>
        <time>2021-09-09T14:59:34Z</time>
      </trkpt>
      <trkpt lat="44.03741" lon="5.99289">
        <ele>410.2</ele>
        <time>2021-09-09T14:59:36Z</time>
      </trkpt>
      <trkpt lat="44.03742" lon="5.99296">
        <ele>410.2</ele>
        <time>2021-09-09T14:59:37Z</time>
      </trkpt>
      <trkpt lat="44.03744" lon="5.99302">
        <ele>410.2</ele>
        <time>2021-09-09T14:59:38Z</time>
      </trkpt>
      <trkpt lat="44.03748" lon="5.99315">
        <ele>410.3</ele>
        <time>2021-09-09T14:59:40Z</time>
      </trkpt>
      <trkpt lat="44.0375" lon="5.99322">
        <ele>410.3</ele>
        <time>2021-09-09T14:59:41Z</time>
      </trkpt>
      <trkpt lat="44.03754" lon="5.99334">
        <ele>410.4</ele>
        <time>2021-09-09T14:59:43Z</time>
      </trkpt>
      <trkpt lat="44.03754" lon="5.9934">
        <ele>410.4</ele>
        <time>2021-09-09T14:59:44Z</time>
      </trkpt>
      <trkpt lat="44.03755" lon="5.99347">
        <ele>410.5</ele>
        <time>2021-09-09T14:59:45Z</time>
      </trkpt>
      <trkpt lat="44.03756" lon="5.9936">
        <ele>410.5</ele>
        <time>2021-09-09T14:59:47Z</time>
      </trkpt>
      <trkpt lat="44.03758" lon="5.99364">
        <ele>410.5</ele>
        <time>2021-09-09T14:59:48Z</time>
      </trkpt>
      <trkpt lat="44.03759" lon="5.9937">
        <ele>410.5</ele>
        <time>2021-09-09T14:59:49Z</time>
      </trkpt>
      <trkpt lat="44.0376" lon="5.99375">
        <ele>410.5</ele>
        <time>2021-09-09T14:59:50Z</time>
      </trkpt>
      <trkpt lat="44.03761" lon="5.99377">
        <ele>410.6</ele>
        <time>2021-09-09T14:59:51Z</time>
      </trkpt>
      <trkpt lat="44.03764" lon="5.99389">
        <ele>410.6</ele>
        <time>2021-09-09T14:59:53Z</time>
      </trkpt>
      <trkpt lat="44.03766" lon="5.99401">
        <ele>410.6</ele>
        <time>2021-09-09T14:59:55Z</time>
      </trkpt>
      <trkpt lat="44.03768" lon="5.99407">
        <ele>410.6</ele>
        <time>2021-09-09T14:59:56Z</time>
      </trkpt>
      <trkpt lat="44.0377" lon="5.99414">
        <ele>410.6</ele>
        <time>2021-09-09T14:59:57Z</time>
      </trkpt>
      <trkpt lat="44.03773" lon="5.99426">
        <ele>410.7</ele>
        <time>2021-09-09T14:59:59Z</time>
      </trkpt>
      <trkpt lat="44.03775" lon="5.99432">
        <ele>410.7</ele>
        <time>2021-09-09T15:00:00Z</time>
      </trkpt>
      <trkpt lat="44.03776" lon="5.99439">
        <ele>410.7</ele>
        <time>2021-09-09T15:00:01Z</time>
      </trkpt>
      <trkpt lat="44.03778" lon="5.99446">
        <ele>410.7</ele>
        <time>2021-09-09T15:00:02Z</time>
      </trkpt>
      <trkpt lat="44.03781" lon="5.99459">
        <ele>410.8</ele>
        <time>2021-09-09T15:00:04Z</time>
      </trkpt>
      <trkpt lat="44.03782" lon="5.99465">
        <ele>410.8</ele>
        <time>2021-09-09T15:00:05Z</time>
      </trkpt>
      <trkpt lat="44.03783" lon="5.99472">
        <ele>410.8</ele>
        <time>2021-09-09T15:00:06Z</time>
      </trkpt>
      <trkpt lat="44.03785" lon="5.99479">
        <ele>410.8</ele>
        <time>2021-09-09T15:00:07Z</time>
      </trkpt>
      <trkpt lat="44.03786" lon="5.99485">
        <ele>410.8</ele>
        <time>2021-09-09T15:00:08Z</time>
      </trkpt>
      <trkpt lat="44.03788" lon="5.99492">
        <ele>410.9</ele>
        <time>2021-09-09T15:00:10Z</time>
      </trkpt>
      <trkpt lat="44.03793" lon="5.99502">
        <ele>410.9</ele>
        <time>2021-09-09T15:00:11Z</time>
      </trkpt>
      <trkpt lat="44.03795" lon="5.99508">
        <ele>410.9</ele>
        <time>2021-09-09T15:00:12Z</time>
      </trkpt>
      <trkpt lat="44.03797" lon="5.99514">
        <ele>410.9</ele>
        <time>2021-09-09T15:00:13Z</time>
      </trkpt>
      <trkpt lat="44.038" lon="5.99521">
        <ele>410.9</ele>
        <time>2021-09-09T15:00:14Z</time>
      </trkpt>
      <trkpt lat="44.03804" lon="5.99533">
        <ele>411</ele>
        <time>2021-09-09T15:00:16Z</time>
      </trkpt>
      <trkpt lat="44.03805" lon="5.99537">
        <ele>411</ele>
        <time>2021-09-09T15:00:17Z</time>
      </trkpt>
      <trkpt lat="44.03809" lon="5.9955">
        <ele>411</ele>
        <time>2021-09-09T15:00:19Z</time>
      </trkpt>
      <trkpt lat="44.03811" lon="5.99557">
        <ele>411</ele>
        <time>2021-09-09T15:00:20Z</time>
      </trkpt>
      <trkpt lat="44.03816" lon="5.9957">
        <ele>411.1</ele>
        <time>2021-09-09T15:00:22Z</time>
      </trkpt>
      <trkpt lat="44.03819" lon="5.99584">
        <ele>411.2</ele>
        <time>2021-09-09T15:00:24Z</time>
      </trkpt>
      <trkpt lat="44.03823" lon="5.99598">
        <ele>411.3</ele>
        <time>2021-09-09T15:00:26Z</time>
      </trkpt>
      <trkpt lat="44.03827" lon="5.99611">
        <ele>411.4</ele>
        <time>2021-09-09T15:00:28Z</time>
      </trkpt>
      <trkpt lat="44.03829" lon="5.99617">
        <ele>411.4</ele>
        <time>2021-09-09T15:00:29Z</time>
      </trkpt>
      <trkpt lat="44.03833" lon="5.9963">
        <ele>411.4</ele>
        <time>2021-09-09T15:00:31Z</time>
      </trkpt>
      <trkpt lat="44.03836" lon="5.99637">
        <ele>411.5</ele>
        <time>2021-09-09T15:00:32Z</time>
      </trkpt>
      <trkpt lat="44.0384" lon="5.9965">
        <ele>411.5</ele>
        <time>2021-09-09T15:00:34Z</time>
      </trkpt>
      <trkpt lat="44.03841" lon="5.99656">
        <ele>411.6</ele>
        <time>2021-09-09T15:00:35Z</time>
      </trkpt>
      <trkpt lat="44.03844" lon="5.99671">
        <ele>411.6</ele>
        <time>2021-09-09T15:00:37Z</time>
      </trkpt>
      <trkpt lat="44.03845" lon="5.99677">
        <ele>411.7</ele>
        <time>2021-09-09T15:00:38Z</time>
      </trkpt>
      <trkpt lat="44.03846" lon="5.99684">
        <ele>411.7</ele>
        <time>2021-09-09T15:00:39Z</time>
      </trkpt>
      <trkpt lat="44.03849" lon="5.99697">
        <ele>411.8</ele>
        <time>2021-09-09T15:00:41Z</time>
      </trkpt>
      <trkpt lat="44.03852" lon="5.99708">
        <ele>411.9</ele>
        <time>2021-09-09T15:00:43Z</time>
      </trkpt>
      <trkpt lat="44.03856" lon="5.9972">
        <ele>411.9</ele>
        <time>2021-09-09T15:00:45Z</time>
      </trkpt>
      <trkpt lat="44.0386" lon="5.99731">
        <ele>412</ele>
        <time>2021-09-09T15:00:47Z</time>
      </trkpt>
      <trkpt lat="44.03862" lon="5.99745">
        <ele>412.1</ele>
        <time>2021-09-09T15:00:49Z</time>
      </trkpt>
      <trkpt lat="44.03864" lon="5.99751">
        <ele>412.2</ele>
        <time>2021-09-09T15:00:50Z</time>
      </trkpt>
      <trkpt lat="44.03866" lon="5.99763">
        <ele>412.3</ele>
        <time>2021-09-09T15:00:52Z</time>
      </trkpt>
      <trkpt lat="44.03862" lon="5.99765">
        <ele>412.3</ele>
        <time>2021-09-09T15:00:54Z</time>
      </trkpt>
      <trkpt lat="44.03869" lon="5.99778">
        <ele>412.5</ele>
        <time>2021-09-09T15:00:55Z</time>
      </trkpt>
      <trkpt lat="44.03871" lon="5.99783">
        <ele>412.5</ele>
        <time>2021-09-09T15:00:56Z</time>
      </trkpt>
      <trkpt lat="44.03874" lon="5.9979">
        <ele>412.6</ele>
        <time>2021-09-09T15:00:57Z</time>
      </trkpt>
      <trkpt lat="44.03878" lon="5.99802">
        <ele>412.6</ele>
        <time>2021-09-09T15:00:59Z</time>
      </trkpt>
      <trkpt lat="44.0388" lon="5.99811">
        <ele>412.7</ele>
        <time>2021-09-09T15:01:01Z</time>
      </trkpt>
      <trkpt lat="44.03878" lon="5.99818">
        <ele>412.7</ele>
        <time>2021-09-09T15:01:02Z</time>
      </trkpt>
      <trkpt lat="44.03883" lon="5.99824">
        <ele>412.8</ele>
        <time>2021-09-09T15:01:04Z</time>
      </trkpt>
      <trkpt lat="44.03888" lon="5.9983">
        <ele>412.8</ele>
        <time>2021-09-09T15:01:05Z</time>
      </trkpt>
      <trkpt lat="44.03892" lon="5.99836">
        <ele>412.9</ele>
        <time>2021-09-09T15:01:07Z</time>
      </trkpt>
      <trkpt lat="44.03896" lon="5.99843">
        <ele>412.9</ele>
        <time>2021-09-09T15:01:08Z</time>
      </trkpt>
      <trkpt lat="44.039" lon="5.9985">
        <ele>413</ele>
        <time>2021-09-09T15:01:10Z</time>
      </trkpt>
      <trkpt lat="44.03905" lon="5.9986">
        <ele>413</ele>
        <time>2021-09-09T15:01:11Z</time>
      </trkpt>
      <trkpt lat="44.03908" lon="5.99866">
        <ele>413.1</ele>
        <time>2021-09-09T15:01:12Z</time>
      </trkpt>
      <trkpt lat="44.0391" lon="5.99872">
        <ele>413.1</ele>
        <time>2021-09-09T15:01:13Z</time>
      </trkpt>
      <trkpt lat="44.03916" lon="5.99884">
        <ele>413.2</ele>
        <time>2021-09-09T15:01:15Z</time>
      </trkpt>
      <trkpt lat="44.03922" lon="5.99897">
        <ele>413.3</ele>
        <time>2021-09-09T15:01:17Z</time>
      </trkpt>
      <trkpt lat="44.03927" lon="5.99903">
        <ele>413.3</ele>
        <time>2021-09-09T15:01:18Z</time>
      </trkpt>
      <trkpt lat="44.03933" lon="5.99916">
        <ele>413.4</ele>
        <time>2021-09-09T15:01:20Z</time>
      </trkpt>
      <trkpt lat="44.03936" lon="5.99923">
        <ele>413.5</ele>
        <time>2021-09-09T15:01:21Z</time>
      </trkpt>
      <trkpt lat="44.03943" lon="5.99935">
        <ele>413.6</ele>
        <time>2021-09-09T15:01:23Z</time>
      </trkpt>
      <trkpt lat="44.03946" lon="5.9994">
        <ele>413.7</ele>
        <time>2021-09-09T15:01:24Z</time>
      </trkpt>
      <trkpt lat="44.03952" lon="5.99951">
        <ele>413.8</ele>
        <time>2021-09-09T15:01:26Z</time>
      </trkpt>
      <trkpt lat="44.03956" lon="5.99964">
        <ele>413.9</ele>
        <time>2021-09-09T15:01:28Z</time>
      </trkpt>
      <trkpt lat="44.03959" lon="5.9997">
        <ele>413.9</ele>
        <time>2021-09-09T15:01:29Z</time>
      </trkpt>
      <trkpt lat="44.03965" lon="5.99983">
        <ele>414</ele>
        <time>2021-09-09T15:01:31Z</time>
      </trkpt>
      <trkpt lat="44.03971" lon="5.99993">
        <ele>414.2</ele>
        <time>2021-09-09T15:01:33Z</time>
      </trkpt>
      <trkpt lat="44.03973" lon="5.99996">
        <ele>414.2</ele>
        <time>2021-09-09T15:01:34Z</time>
      </trkpt>
      <trkpt lat="44.03975" lon="6.00001">
        <ele>414.2</ele>
        <time>2021-09-09T15:01:35Z</time>
      </trkpt>
      <trkpt lat="44.0398" lon="6.00014">
        <ele>414.4</ele>
        <time>2021-09-09T15:01:37Z</time>
      </trkpt>
      <trkpt lat="44.03983" lon="6.00021">
        <ele>414.4</ele>
        <time>2021-09-09T15:01:38Z</time>
      </trkpt>
      <trkpt lat="44.03985" lon="6.00026">
        <ele>414.5</ele>
        <time>2021-09-09T15:01:39Z</time>
      </trkpt>
      <trkpt lat="44.03986" lon="6.00032">
        <ele>414.5</ele>
        <time>2021-09-09T15:01:40Z</time>
      </trkpt>
      <trkpt lat="44.03988" lon="6.00037">
        <ele>414.6</ele>
        <time>2021-09-09T15:01:41Z</time>
      </trkpt>
      <trkpt lat="44.03993" lon="6.0005">
        <ele>414.7</ele>
        <time>2021-09-09T15:01:43Z</time>
      </trkpt>
      <trkpt lat="44.03997" lon="6.00062">
        <ele>414.8</ele>
        <time>2021-09-09T15:01:45Z</time>
      </trkpt>
      <trkpt lat="44.03999" lon="6.00069">
        <ele>414.9</ele>
        <time>2021-09-09T15:01:46Z</time>
      </trkpt>
      <trkpt lat="44.04005" lon="6.00084">
        <ele>415.1</ele>
        <time>2021-09-09T15:01:48Z</time>
      </trkpt>
      <trkpt lat="44.04007" lon="6.0009">
        <ele>415.1</ele>
        <time>2021-09-09T15:01:49Z</time>
      </trkpt>
      <trkpt lat="44.04007" lon="6.00096">
        <ele>415.2</ele>
        <time>2021-09-09T15:01:50Z</time>
      </trkpt>
      <trkpt lat="44.04009" lon="6.00105">
        <ele>415.3</ele>
        <time>2021-09-09T15:01:52Z</time>
      </trkpt>
      <trkpt lat="44.0401" lon="6.00114">
        <ele>415.4</ele>
        <time>2021-09-09T15:01:53Z</time>
      </trkpt>
      <trkpt lat="44.04013" lon="6.00127">
        <ele>415.5</ele>
        <time>2021-09-09T15:01:55Z</time>
      </trkpt>
      <trkpt lat="44.04014" lon="6.00132">
        <ele>415.5</ele>
        <time>2021-09-09T15:01:56Z</time>
      </trkpt>
      <trkpt lat="44.04015" lon="6.0014">
        <ele>415.6</ele>
        <time>2021-09-09T15:01:58Z</time>
      </trkpt>
      <trkpt lat="44.04018" lon="6.00149">
        <ele>415.7</ele>
        <time>2021-09-09T15:01:59Z</time>
      </trkpt>
      <trkpt lat="44.0402" lon="6.00161">
        <ele>415.8</ele>
        <time>2021-09-09T15:02:01Z</time>
      </trkpt>
      <trkpt lat="44.0402" lon="6.00168">
        <ele>415.9</ele>
        <time>2021-09-09T15:02:02Z</time>
      </trkpt>
      <trkpt lat="44.0402" lon="6.0018">
        <ele>416</ele>
        <time>2021-09-09T15:02:04Z</time>
      </trkpt>
      <trkpt lat="44.04019" lon="6.00184">
        <ele>416</ele>
        <time>2021-09-09T15:02:05Z</time>
      </trkpt>
      <trkpt lat="44.04021" lon="6.00189">
        <ele>416.1</ele>
        <time>2021-09-09T15:02:06Z</time>
      </trkpt>
      <trkpt lat="44.04023" lon="6.00194">
        <ele>416.2</ele>
        <time>2021-09-09T15:02:07Z</time>
      </trkpt>
      <trkpt lat="44.04026" lon="6.002">
        <ele>416.2</ele>
        <time>2021-09-09T15:02:08Z</time>
      </trkpt>
      <trkpt lat="44.04031" lon="6.00208">
        <ele>416.3</ele>
        <time>2021-09-09T15:02:10Z</time>
      </trkpt>
      <trkpt lat="44.04034" lon="6.00214">
        <ele>416.4</ele>
        <time>2021-09-09T15:02:11Z</time>
      </trkpt>
      <trkpt lat="44.04043" lon="6.00224">
        <ele>416.6</ele>
        <time>2021-09-09T15:02:13Z</time>
      </trkpt>
      <trkpt lat="44.04047" lon="6.00229">
        <ele>416.7</ele>
        <time>2021-09-09T15:02:14Z</time>
      </trkpt>
      <trkpt lat="44.04051" lon="6.00237">
        <ele>416.8</ele>
        <time>2021-09-09T15:02:16Z</time>
      </trkpt>
      <trkpt lat="44.04053" lon="6.00242">
        <ele>416.9</ele>
        <time>2021-09-09T15:02:17Z</time>
      </trkpt>
      <trkpt lat="44.04055" lon="6.00248">
        <ele>417</ele>
        <time>2021-09-09T15:02:19Z</time>
      </trkpt>
      <trkpt lat="44.04059" lon="6.00258">
        <ele>417.1</ele>
        <time>2021-09-09T15:02:20Z</time>
      </trkpt>
      <trkpt lat="44.04061" lon="6.00264">
        <ele>417.2</ele>
        <time>2021-09-09T15:02:21Z</time>
      </trkpt>
      <trkpt lat="44.04067" lon="6.00275">
        <ele>417.3</ele>
        <time>2021-09-09T15:02:23Z</time>
      </trkpt>
      <trkpt lat="44.04067" lon="6.00285">
        <ele>417.5</ele>
        <time>2021-09-09T15:02:25Z</time>
      </trkpt>
      <trkpt lat="44.04069" lon="6.0029">
        <ele>417.5</ele>
        <time>2021-09-09T15:02:26Z</time>
      </trkpt>
      <trkpt lat="44.04072" lon="6.00297">
        <ele>417.6</ele>
        <time>2021-09-09T15:02:27Z</time>
      </trkpt>
      <trkpt lat="44.04075" lon="6.00306">
        <ele>417.8</ele>
        <time>2021-09-09T15:02:29Z</time>
      </trkpt>
      <trkpt lat="44.04078" lon="6.00313">
        <ele>417.9</ele>
        <time>2021-09-09T15:02:30Z</time>
      </trkpt>
      <trkpt lat="44.04081" lon="6.00328">
        <ele>418</ele>
        <time>2021-09-09T15:02:32Z</time>
      </trkpt>
      <trkpt lat="44.0408" lon="6.00336">
        <ele>418</ele>
        <time>2021-09-09T15:02:34Z</time>
      </trkpt>
      <trkpt lat="44.04087" lon="6.00345">
        <ele>418.1</ele>
        <time>2021-09-09T15:02:35Z</time>
      </trkpt>
      <trkpt lat="44.04091" lon="6.00352">
        <ele>418.2</ele>
        <time>2021-09-09T15:02:36Z</time>
      </trkpt>
      <trkpt lat="44.04095" lon="6.00365">
        <ele>418.3</ele>
        <time>2021-09-09T15:02:38Z</time>
      </trkpt>
      <trkpt lat="44.04099" lon="6.00375">
        <ele>418.3</ele>
        <time>2021-09-09T15:02:40Z</time>
      </trkpt>
      <trkpt lat="44.04103" lon="6.00384">
        <ele>418.4</ele>
        <time>2021-09-09T15:02:42Z</time>
      </trkpt>
      <trkpt lat="44.04105" lon="6.00392">
        <ele>418.4</ele>
        <time>2021-09-09T15:02:43Z</time>
      </trkpt>
      <trkpt lat="44.04107" lon="6.00403">
        <ele>418.5</ele>
        <time>2021-09-09T15:02:45Z</time>
      </trkpt>
      <trkpt lat="44.04107" lon="6.00414">
        <ele>418.5</ele>
        <time>2021-09-09T15:02:47Z</time>
      </trkpt>
      <trkpt lat="44.04108" lon="6.00422">
        <ele>418.6</ele>
        <time>2021-09-09T15:02:48Z</time>
      </trkpt>
      <trkpt lat="44.04109" lon="6.00429">
        <ele>418.6</ele>
        <time>2021-09-09T15:02:49Z</time>
      </trkpt>
      <trkpt lat="44.0411" lon="6.00436">
        <ele>418.7</ele>
        <time>2021-09-09T15:02:50Z</time>
      </trkpt>
      <trkpt lat="44.04115" lon="6.00447">
        <ele>418.8</ele>
        <time>2021-09-09T15:02:52Z</time>
      </trkpt>
      <trkpt lat="44.0412" lon="6.00457">
        <ele>418.9</ele>
        <time>2021-09-09T15:02:54Z</time>
      </trkpt>
      <trkpt lat="44.04122" lon="6.00462">
        <ele>418.9</ele>
        <time>2021-09-09T15:02:55Z</time>
      </trkpt>
      <trkpt lat="44.04124" lon="6.00467">
        <ele>419</ele>
        <time>2021-09-09T15:02:56Z</time>
      </trkpt>
      <trkpt lat="44.04128" lon="6.00477">
        <ele>419.1</ele>
        <time>2021-09-09T15:02:58Z</time>
      </trkpt>
      <trkpt lat="44.0413" lon="6.00483">
        <ele>419.1</ele>
        <time>2021-09-09T15:02:59Z</time>
      </trkpt>
      <trkpt lat="44.04135" lon="6.00491">
        <ele>419.2</ele>
        <time>2021-09-09T15:03:01Z</time>
      </trkpt>
      <trkpt lat="44.04139" lon="6.00493">
        <ele>419.3</ele>
        <time>2021-09-09T15:03:02Z</time>
      </trkpt>
      <trkpt lat="44.04147" lon="6.005">
        <ele>419.4</ele>
        <time>2021-09-09T15:03:04Z</time>
      </trkpt>
      <trkpt lat="44.0415" lon="6.00503">
        <ele>419.5</ele>
        <time>2021-09-09T15:03:05Z</time>
      </trkpt>
      <trkpt lat="44.04153" lon="6.00508">
        <ele>419.6</ele>
        <time>2021-09-09T15:03:06Z</time>
      </trkpt>
      <trkpt lat="44.04158" lon="6.00511">
        <ele>419.7</ele>
        <time>2021-09-09T15:03:08Z</time>
      </trkpt>
      <trkpt lat="44.04165" lon="6.00518">
        <ele>419.8</ele>
        <time>2021-09-09T15:03:09Z</time>
      </trkpt>
      <trkpt lat="44.04169" lon="6.00525">
        <ele>420</ele>
        <time>2021-09-09T15:03:11Z</time>
      </trkpt>
      <trkpt lat="44.04173" lon="6.00533">
        <ele>420.1</ele>
        <time>2021-09-09T15:03:13Z</time>
      </trkpt>
      <trkpt lat="44.04179" lon="6.00541">
        <ele>420.3</ele>
        <time>2021-09-09T15:03:14Z</time>
      </trkpt>
      <trkpt lat="44.04181" lon="6.00546">
        <ele>420.4</ele>
        <time>2021-09-09T15:03:15Z</time>
      </trkpt>
      <trkpt lat="44.04184" lon="6.00554">
        <ele>420.5</ele>
        <time>2021-09-09T15:03:17Z</time>
      </trkpt>
      <trkpt lat="44.04188" lon="6.0056">
        <ele>420.7</ele>
        <time>2021-09-09T15:03:18Z</time>
      </trkpt>
      <trkpt lat="44.04191" lon="6.00565">
        <ele>420.8</ele>
        <time>2021-09-09T15:03:19Z</time>
      </trkpt>
      <trkpt lat="44.04194" lon="6.00569">
        <ele>420.9</ele>
        <time>2021-09-09T15:03:20Z</time>
      </trkpt>
      <trkpt lat="44.04196" lon="6.00574">
        <ele>421</ele>
        <time>2021-09-09T15:03:21Z</time>
      </trkpt>
      <trkpt lat="44.04202" lon="6.00586">
        <ele>421.2</ele>
        <time>2021-09-09T15:03:23Z</time>
      </trkpt>
      <trkpt lat="44.04202" lon="6.00592">
        <ele>421.3</ele>
        <time>2021-09-09T15:03:25Z</time>
      </trkpt>
      <trkpt lat="44.04206" lon="6.00597">
        <ele>421.4</ele>
        <time>2021-09-09T15:03:26Z</time>
      </trkpt>
      <trkpt lat="44.04212" lon="6.00602">
        <ele>421.6</ele>
        <time>2021-09-09T15:03:27Z</time>
      </trkpt>
      <trkpt lat="44.04216" lon="6.00606">
        <ele>421.7</ele>
        <time>2021-09-09T15:03:28Z</time>
      </trkpt>
      <trkpt lat="44.0422" lon="6.00614">
        <ele>421.9</ele>
        <time>2021-09-09T15:03:30Z</time>
      </trkpt>
      <trkpt lat="44.04225" lon="6.00622">
        <ele>422.1</ele>
        <time>2021-09-09T15:03:31Z</time>
      </trkpt>
      <trkpt lat="44.04228" lon="6.00631">
        <ele>422.3</ele>
        <time>2021-09-09T15:03:33Z</time>
      </trkpt>
      <trkpt lat="44.04231" lon="6.00639">
        <ele>422.4</ele>
        <time>2021-09-09T15:03:34Z</time>
      </trkpt>
      <trkpt lat="44.04235" lon="6.00645">
        <ele>422.6</ele>
        <time>2021-09-09T15:03:36Z</time>
      </trkpt>
      <trkpt lat="44.0424" lon="6.00652">
        <ele>422.8</ele>
        <time>2021-09-09T15:03:37Z</time>
      </trkpt>
      <trkpt lat="44.04245" lon="6.0066">
        <ele>423</ele>
        <time>2021-09-09T15:03:39Z</time>
      </trkpt>
      <trkpt lat="44.04251" lon="6.00667">
        <ele>423.1</ele>
        <time>2021-09-09T15:03:41Z</time>
      </trkpt>
      <trkpt lat="44.04256" lon="6.00671">
        <ele>423.3</ele>
        <time>2021-09-09T15:03:42Z</time>
      </trkpt>
      <trkpt lat="44.0426" lon="6.00674">
        <ele>423.3</ele>
        <time>2021-09-09T15:03:43Z</time>
      </trkpt>
      <trkpt lat="44.04265" lon="6.00677">
        <ele>423.5</ele>
        <time>2021-09-09T15:03:45Z</time>
      </trkpt>
      <trkpt lat="44.0427" lon="6.00682">
        <ele>423.6</ele>
        <time>2021-09-09T15:03:46Z</time>
      </trkpt>
      <trkpt lat="44.04275" lon="6.00688">
        <ele>423.7</ele>
        <time>2021-09-09T15:03:48Z</time>
      </trkpt>
      <trkpt lat="44.04279" lon="6.00694">
        <ele>423.8</ele>
        <time>2021-09-09T15:03:50Z</time>
      </trkpt>
      <trkpt lat="44.04282" lon="6.00699">
        <ele>423.9</ele>
        <time>2021-09-09T15:03:51Z</time>
      </trkpt>
      <trkpt lat="44.04285" lon="6.00702">
        <ele>424</ele>
        <time>2021-09-09T15:03:52Z</time>
      </trkpt>
      <trkpt lat="44.04289" lon="6.00705">
        <ele>424</ele>
        <time>2021-09-09T15:03:53Z</time>
      </trkpt>
      <trkpt lat="44.04294" lon="6.00711">
        <ele>424.1</ele>
        <time>2021-09-09T15:03:55Z</time>
      </trkpt>
      <trkpt lat="44.04297" lon="6.00715">
        <ele>424.2</ele>
        <time>2021-09-09T15:03:56Z</time>
      </trkpt>
      <trkpt lat="44.043" lon="6.00719">
        <ele>424.3</ele>
        <time>2021-09-09T15:03:57Z</time>
      </trkpt>
      <trkpt lat="44.04305" lon="6.00724">
        <ele>424.3</ele>
        <time>2021-09-09T15:03:59Z</time>
      </trkpt>
      <trkpt lat="44.04309" lon="6.00728">
        <ele>424.4</ele>
        <time>2021-09-09T15:04:00Z</time>
      </trkpt>
      <trkpt lat="44.04313" lon="6.00732">
        <ele>424.4</ele>
        <time>2021-09-09T15:04:01Z</time>
      </trkpt>
      <trkpt lat="44.04322" lon="6.0074">
        <ele>424.5</ele>
        <time>2021-09-09T15:04:03Z</time>
      </trkpt>
      <trkpt lat="44.04325" lon="6.00746">
        <ele>424.5</ele>
        <time>2021-09-09T15:04:05Z</time>
      </trkpt>
      <trkpt lat="44.04329" lon="6.00751">
        <ele>424.6</ele>
        <time>2021-09-09T15:04:06Z</time>
      </trkpt>
      <trkpt lat="44.04333" lon="6.00758">
        <ele>424.6</ele>
        <time>2021-09-09T15:04:07Z</time>
      </trkpt>
      <trkpt lat="44.04337" lon="6.00765">
        <ele>424.7</ele>
        <time>2021-09-09T15:04:09Z</time>
      </trkpt>
      <trkpt lat="44.0434" lon="6.00771">
        <ele>424.7</ele>
        <time>2021-09-09T15:04:10Z</time>
      </trkpt>
      <trkpt lat="44.04344" lon="6.00779">
        <ele>424.7</ele>
        <time>2021-09-09T15:04:12Z</time>
      </trkpt>
      <trkpt lat="44.04348" lon="6.00786">
        <ele>424.7</ele>
        <time>2021-09-09T15:04:13Z</time>
      </trkpt>
      <trkpt lat="44.04349" lon="6.00789">
        <ele>424.7</ele>
        <time>2021-09-09T15:04:14Z</time>
      </trkpt>
      <trkpt lat="44.04352" lon="6.00797">
        <ele>424.7</ele>
        <time>2021-09-09T15:04:16Z</time>
      </trkpt>
      <trkpt lat="44.04355" lon="6.00807">
        <ele>424.8</ele>
        <time>2021-09-09T15:04:18Z</time>
      </trkpt>
      <trkpt lat="44.04358" lon="6.00819">
        <ele>424.8</ele>
        <time>2021-09-09T15:04:19Z</time>
      </trkpt>
      <trkpt lat="44.04361" lon="6.00825">
        <ele>424.8</ele>
        <time>2021-09-09T15:04:20Z</time>
      </trkpt>
      <trkpt lat="44.04364" lon="6.00838">
        <ele>424.9</ele>
        <time>2021-09-09T15:04:22Z</time>
      </trkpt>
      <trkpt lat="44.04366" lon="6.00844">
        <ele>424.9</ele>
        <time>2021-09-09T15:04:23Z</time>
      </trkpt>
      <trkpt lat="44.04369" lon="6.00849">
        <ele>424.9</ele>
        <time>2021-09-09T15:04:24Z</time>
      </trkpt>
      <trkpt lat="44.04368" lon="6.00854">
        <ele>424.9</ele>
        <time>2021-09-09T15:04:25Z</time>
      </trkpt>
      <trkpt lat="44.04367" lon="6.00863">
        <ele>425</ele>
        <time>2021-09-09T15:04:27Z</time>
      </trkpt>
      <trkpt lat="44.04372" lon="6.00875">
        <ele>425.1</ele>
        <time>2021-09-09T15:04:28Z</time>
      </trkpt>
      <trkpt lat="44.04374" lon="6.00881">
        <ele>425.1</ele>
        <time>2021-09-09T15:04:29Z</time>
      </trkpt>
      <trkpt lat="44.04373" lon="6.00885">
        <ele>425.1</ele>
        <time>2021-09-09T15:04:30Z</time>
      </trkpt>
      <trkpt lat="44.04375" lon="6.00892">
        <ele>425.2</ele>
        <time>2021-09-09T15:04:32Z</time>
      </trkpt>
      <trkpt lat="44.04383" lon="6.009">
        <ele>425.2</ele>
        <time>2021-09-09T15:04:33Z</time>
      </trkpt>
      <trkpt lat="44.04385" lon="6.00906">
        <ele>425.2</ele>
        <time>2021-09-09T15:04:34Z</time>
      </trkpt>
      <trkpt lat="44.04385" lon="6.00912">
        <ele>425.2</ele>
        <time>2021-09-09T15:04:35Z</time>
      </trkpt>
      <trkpt lat="44.04389" lon="6.00918">
        <ele>425.3</ele>
        <time>2021-09-09T15:04:36Z</time>
      </trkpt>
      <trkpt lat="44.04394" lon="6.0093">
        <ele>425.3</ele>
        <time>2021-09-09T15:04:38Z</time>
      </trkpt>
      <trkpt lat="44.04395" lon="6.00936">
        <ele>425.3</ele>
        <time>2021-09-09T15:04:39Z</time>
      </trkpt>
      <trkpt lat="44.04395" lon="6.00941">
        <ele>425.4</ele>
        <time>2021-09-09T15:04:40Z</time>
      </trkpt>
      <trkpt lat="44.04394" lon="6.00948">
        <ele>425.4</ele>
        <time>2021-09-09T15:04:42Z</time>
      </trkpt>
      <trkpt lat="44.04397" lon="6.00957">
        <ele>425.5</ele>
        <time>2021-09-09T15:04:43Z</time>
      </trkpt>
      <trkpt lat="44.04399" lon="6.00965">
        <ele>425.6</ele>
        <time>2021-09-09T15:04:45Z</time>
      </trkpt>
      <trkpt lat="44.04402" lon="6.00973">
        <ele>425.6</ele>
        <time>2021-09-09T15:04:47Z</time>
      </trkpt>
      <trkpt lat="44.04406" lon="6.00979">
        <ele>425.6</ele>
        <time>2021-09-09T15:04:48Z</time>
      </trkpt>
      <trkpt lat="44.04408" lon="6.00983">
        <ele>425.6</ele>
        <time>2021-09-09T15:04:49Z</time>
      </trkpt>
      <trkpt lat="44.0441" lon="6.00989">
        <ele>425.6</ele>
        <time>2021-09-09T15:04:51Z</time>
      </trkpt>
      <trkpt lat="44.04412" lon="6.00994">
        <ele>425.6</ele>
        <time>2021-09-09T15:04:52Z</time>
      </trkpt>
      <trkpt lat="44.04415" lon="6.01">
        <ele>425.6</ele>
        <time>2021-09-09T15:04:53Z</time>
      </trkpt>
      <trkpt lat="44.04419" lon="6.0101">
        <ele>425.6</ele>
        <time>2021-09-09T15:04:55Z</time>
      </trkpt>
      <trkpt lat="44.04422" lon="6.01016">
        <ele>425.7</ele>
        <time>2021-09-09T15:04:56Z</time>
      </trkpt>
      <trkpt lat="44.04425" lon="6.01021">
        <ele>425.7</ele>
        <time>2021-09-09T15:04:57Z</time>
      </trkpt>
      <trkpt lat="44.04427" lon="6.01026">
        <ele>425.7</ele>
        <time>2021-09-09T15:04:59Z</time>
      </trkpt>
      <trkpt lat="44.0443" lon="6.01033">
        <ele>425.7</ele>
        <time>2021-09-09T15:05:00Z</time>
      </trkpt>
      <trkpt lat="44.04432" lon="6.01037">
        <ele>425.7</ele>
        <time>2021-09-09T15:05:01Z</time>
      </trkpt>
      <trkpt lat="44.04434" lon="6.01043">
        <ele>425.7</ele>
        <time>2021-09-09T15:05:02Z</time>
      </trkpt>
      <trkpt lat="44.04437" lon="6.01051">
        <ele>425.8</ele>
        <time>2021-09-09T15:05:04Z</time>
      </trkpt>
      <trkpt lat="44.0444" lon="6.01066">
        <ele>425.8</ele>
        <time>2021-09-09T15:05:06Z</time>
      </trkpt>
      <trkpt lat="44.04445" lon="6.01082">
        <ele>425.8</ele>
        <time>2021-09-09T15:05:08Z</time>
      </trkpt>
      <trkpt lat="44.04449" lon="6.011">
        <ele>425.8</ele>
        <time>2021-09-09T15:05:10Z</time>
      </trkpt>
      <trkpt lat="44.04451" lon="6.01109">
        <ele>425.8</ele>
        <time>2021-09-09T15:05:11Z</time>
      </trkpt>
      <trkpt lat="44.04453" lon="6.01118">
        <ele>425.8</ele>
        <time>2021-09-09T15:05:12Z</time>
      </trkpt>
      <trkpt lat="44.04455" lon="6.01126">
        <ele>425.9</ele>
        <time>2021-09-09T15:05:13Z</time>
      </trkpt>
      <trkpt lat="44.0446" lon="6.01141">
        <ele>426</ele>
        <time>2021-09-09T15:05:15Z</time>
      </trkpt>
      <trkpt lat="44.04462" lon="6.01147">
        <ele>426.1</ele>
        <time>2021-09-09T15:05:16Z</time>
      </trkpt>
      <trkpt lat="44.04468" lon="6.0116">
        <ele>426.2</ele>
        <time>2021-09-09T15:05:18Z</time>
      </trkpt>
      <trkpt lat="44.04471" lon="6.01166">
        <ele>426.3</ele>
        <time>2021-09-09T15:05:19Z</time>
      </trkpt>
      <trkpt lat="44.04474" lon="6.01172">
        <ele>426.4</ele>
        <time>2021-09-09T15:05:20Z</time>
      </trkpt>
      <trkpt lat="44.04479" lon="6.01177">
        <ele>426.5</ele>
        <time>2021-09-09T15:05:21Z</time>
      </trkpt>
      <trkpt lat="44.04486" lon="6.01186">
        <ele>426.7</ele>
        <time>2021-09-09T15:05:23Z</time>
      </trkpt>
      <trkpt lat="44.0449" lon="6.01191">
        <ele>426.8</ele>
        <time>2021-09-09T15:05:24Z</time>
      </trkpt>
      <trkpt lat="44.04494" lon="6.01199">
        <ele>427.1</ele>
        <time>2021-09-09T15:05:26Z</time>
      </trkpt>
      <trkpt lat="44.04499" lon="6.01208">
        <ele>427.3</ele>
        <time>2021-09-09T15:05:28Z</time>
      </trkpt>
      <trkpt lat="44.04504" lon="6.01216">
        <ele>427.6</ele>
        <time>2021-09-09T15:05:30Z</time>
      </trkpt>
      <trkpt lat="44.04505" lon="6.0122">
        <ele>427.7</ele>
        <time>2021-09-09T15:05:31Z</time>
      </trkpt>
      <trkpt lat="44.04502" lon="6.01223">
        <ele>427.8</ele>
        <time>2021-09-09T15:05:32Z</time>
      </trkpt>
      <trkpt lat="44.04506" lon="6.0123">
        <ele>428.1</ele>
        <time>2021-09-09T15:05:34Z</time>
      </trkpt>
      <trkpt lat="44.0451" lon="6.01236">
        <ele>428.3</ele>
        <time>2021-09-09T15:05:35Z</time>
      </trkpt>
      <trkpt lat="44.04515" lon="6.01245">
        <ele>428.7</ele>
        <time>2021-09-09T15:05:37Z</time>
      </trkpt>
      <trkpt lat="44.04519" lon="6.01252">
        <ele>429.1</ele>
        <time>2021-09-09T15:05:38Z</time>
      </trkpt>
      <trkpt lat="44.04525" lon="6.0126">
        <ele>429.5</ele>
        <time>2021-09-09T15:05:40Z</time>
      </trkpt>
      <trkpt lat="44.04529" lon="6.01266">
        <ele>429.9</ele>
        <time>2021-09-09T15:05:42Z</time>
      </trkpt>
      <trkpt lat="44.04532" lon="6.01271">
        <ele>430.1</ele>
        <time>2021-09-09T15:05:43Z</time>
      </trkpt>
      <trkpt lat="44.04534" lon="6.01273">
        <ele>430.3</ele>
        <time>2021-09-09T15:05:44Z</time>
      </trkpt>
      <trkpt lat="44.04537" lon="6.01279">
        <ele>430.5</ele>
        <time>2021-09-09T15:05:46Z</time>
      </trkpt>
      <trkpt lat="44.04538" lon="6.01283">
        <ele>430.7</ele>
        <time>2021-09-09T15:05:47Z</time>
      </trkpt>
      <trkpt lat="44.04539" lon="6.01289">
        <ele>431</ele>
        <time>2021-09-09T15:05:49Z</time>
      </trkpt>
      <trkpt lat="44.04541" lon="6.01294">
        <ele>431.2</ele>
        <time>2021-09-09T15:05:50Z</time>
      </trkpt>
      <trkpt lat="44.04543" lon="6.013">
        <ele>431.5</ele>
        <time>2021-09-09T15:05:52Z</time>
      </trkpt>
      <trkpt lat="44.04546" lon="6.01305">
        <ele>431.7</ele>
        <time>2021-09-09T15:05:54Z</time>
      </trkpt>
      <trkpt lat="44.04548" lon="6.01309">
        <ele>431.9</ele>
        <time>2021-09-09T15:05:55Z</time>
      </trkpt>
      <trkpt lat="44.04551" lon="6.01315">
        <ele>432.1</ele>
        <time>2021-09-09T15:05:57Z</time>
      </trkpt>
      <trkpt lat="44.04552" lon="6.01319">
        <ele>432.3</ele>
        <time>2021-09-09T15:05:58Z</time>
      </trkpt>
      <trkpt lat="44.04553" lon="6.01322">
        <ele>432.4</ele>
        <time>2021-09-09T15:05:59Z</time>
      </trkpt>
      <trkpt lat="44.04556" lon="6.01328">
        <ele>432.6</ele>
        <time>2021-09-09T15:06:01Z</time>
      </trkpt>
      <trkpt lat="44.04558" lon="6.01331">
        <ele>432.7</ele>
        <time>2021-09-09T15:06:02Z</time>
      </trkpt>
      <trkpt lat="44.04558" lon="6.01333">
        <ele>432.8</ele>
        <time>2021-09-09T15:06:04Z</time>
      </trkpt>
      <trkpt lat="44.04559" lon="6.01335">
        <ele>432.8</ele>
        <time>2021-09-09T15:06:05Z</time>
      </trkpt>
      <trkpt lat="44.04561" lon="6.01342">
        <ele>433.1</ele>
        <time>2021-09-09T15:06:07Z</time>
      </trkpt>
      <trkpt lat="44.04562" lon="6.01346">
        <ele>433.2</ele>
        <time>2021-09-09T15:06:08Z</time>
      </trkpt>
      <trkpt lat="44.04561" lon="6.01353">
        <ele>433.4</ele>
        <time>2021-09-09T15:06:10Z</time>
      </trkpt>
      <trkpt lat="44.04562" lon="6.01358">
        <ele>433.5</ele>
        <time>2021-09-09T15:06:11Z</time>
      </trkpt>
      <trkpt lat="44.04562" lon="6.01365">
        <ele>433.7</ele>
        <time>2021-09-09T15:06:12Z</time>
      </trkpt>
      <trkpt lat="44.04563" lon="6.0137">
        <ele>433.8</ele>
        <time>2021-09-09T15:06:13Z</time>
      </trkpt>
      <trkpt lat="44.04562" lon="6.0138">
        <ele>434</ele>
        <time>2021-09-09T15:06:15Z</time>
      </trkpt>
      <trkpt lat="44.04562" lon="6.01384">
        <ele>434.1</ele>
        <time>2021-09-09T15:06:16Z</time>
      </trkpt>
      <trkpt lat="44.04563" lon="6.01389">
        <ele>434.1</ele>
        <time>2021-09-09T15:06:17Z</time>
      </trkpt>
      <trkpt lat="44.04563" lon="6.01393">
        <ele>434.2</ele>
        <time>2021-09-09T15:06:18Z</time>
      </trkpt>
      <trkpt lat="44.04563" lon="6.01399">
        <ele>434.3</ele>
        <time>2021-09-09T15:06:20Z</time>
      </trkpt>
      <trkpt lat="44.04564" lon="6.01406">
        <ele>434.3</ele>
        <time>2021-09-09T15:06:21Z</time>
      </trkpt>
      <trkpt lat="44.04564" lon="6.01411">
        <ele>434.4</ele>
        <time>2021-09-09T15:06:22Z</time>
      </trkpt>
      <trkpt lat="44.04564" lon="6.01416">
        <ele>434.4</ele>
        <time>2021-09-09T15:06:24Z</time>
      </trkpt>
      <trkpt lat="44.04564" lon="6.01421">
        <ele>434.4</ele>
        <time>2021-09-09T15:06:25Z</time>
      </trkpt>
      <trkpt lat="44.04564" lon="6.01422">
        <ele>434.4</ele>
        <time>2021-09-09T15:06:26Z</time>
      </trkpt>
      <trkpt lat="44.04563" lon="6.01423">
        <ele>434.4</ele>
        <time>2021-09-09T15:06:27Z</time>
      </trkpt>
      <trkpt lat="44.04564" lon="6.01422">
        <ele>434.4</ele>
        <time>2021-09-09T15:06:28Z</time>
      </trkpt>
      <trkpt lat="44.04563" lon="6.01423">
        <ele>434.5</ele>
        <time>2021-09-09T15:06:29Z</time>
      </trkpt>
      <trkpt lat="44.04563" lon="6.01424">
        <ele>434.5</ele>
        <time>2021-09-09T15:06:30Z</time>
      </trkpt>
      <trkpt lat="44.04561" lon="6.01427">
        <ele>434.5</ele>
        <time>2021-09-09T15:06:32Z</time>
      </trkpt>
      <trkpt lat="44.04559" lon="6.01431">
        <ele>434.5</ele>
        <time>2021-09-09T15:06:33Z</time>
      </trkpt>
      <trkpt lat="44.04559" lon="6.01434">
        <ele>434.5</ele>
        <time>2021-09-09T15:06:34Z</time>
      </trkpt>
      <trkpt lat="44.0456" lon="6.01437">
        <ele>434.5</ele>
        <time>2021-09-09T15:06:36Z</time>
      </trkpt>
      <trkpt lat="44.04563" lon="6.01437">
        <ele>434.5</ele>
        <time>2021-09-09T15:06:37Z</time>
      </trkpt>
      <trkpt lat="44.04564" lon="6.01438">
        <ele>434.5</ele>
        <time>2021-09-09T15:06:38Z</time>
      </trkpt>
      <trkpt lat="44.04565" lon="6.01439">
        <ele>434.5</ele>
        <time>2021-09-09T15:06:39Z</time>
      </trkpt>
      <trkpt lat="44.04567" lon="6.01439">
        <ele>434.5</ele>
        <time>2021-09-09T15:06:40Z</time>
      </trkpt>
      <trkpt lat="44.04568" lon="6.01439">
        <ele>434.5</ele>
        <time>2021-09-09T15:06:41Z</time>
      </trkpt>
      <trkpt lat="44.04568" lon="6.01438">
        <ele>434.5</ele>
        <time>2021-09-09T15:06:43Z</time>
      </trkpt>
      <trkpt lat="44.04568" lon="6.01437">
        <ele>434.5</ele>
        <time>2021-09-09T15:06:44Z</time>
      </trkpt>
      <trkpt lat="44.04569" lon="6.01437">
        <ele>434.5</ele>
        <time>2021-09-09T15:06:46Z</time>
      </trkpt>
      <trkpt lat="44.04569" lon="6.01437">
        <ele>434.5</ele>
        <time>2021-09-09T15:06:47Z</time>
      </trkpt>
      <trkpt lat="44.04569" lon="6.01437">
        <ele>434.5</ele>
        <time>2021-09-09T15:06:49Z</time>
      </trkpt>
      <trkpt lat="44.04569" lon="6.01437">
        <ele>434.5</ele>
        <time>2021-09-09T15:06:50Z</time>
      </trkpt>
      <trkpt lat="44.04569" lon="6.01437">
        <ele>434.5</ele>
        <time>2021-09-09T15:06:51Z</time>
      </trkpt>
      <trkpt lat="44.04572" lon="6.01448">
        <ele>434.6</ele>
        <time>2021-09-09T15:07:09Z</time>
      </trkpt>
      <trkpt lat="44.04572" lon="6.01454">
        <ele>434.6</ele>
        <time>2021-09-09T15:07:10Z</time>
      </trkpt>
      <trkpt lat="44.04573" lon="6.01461">
        <ele>434.6</ele>
        <time>2021-09-09T15:07:11Z</time>
      </trkpt>
      <trkpt lat="44.04573" lon="6.01467">
        <ele>434.6</ele>
        <time>2021-09-09T15:07:12Z</time>
      </trkpt>
      <trkpt lat="44.04574" lon="6.01478">
        <ele>434.6</ele>
        <time>2021-09-09T15:07:14Z</time>
      </trkpt>
      <trkpt lat="44.04575" lon="6.01484">
        <ele>434.6</ele>
        <time>2021-09-09T15:07:15Z</time>
      </trkpt>
      <trkpt lat="44.04575" lon="6.01492">
        <ele>434.6</ele>
        <time>2021-09-09T15:07:16Z</time>
      </trkpt>
      <trkpt lat="44.04576" lon="6.01497">
        <ele>434.6</ele>
        <time>2021-09-09T15:07:17Z</time>
      </trkpt>
      <trkpt lat="44.04576" lon="6.01507">
        <ele>434.6</ele>
        <time>2021-09-09T15:07:19Z</time>
      </trkpt>
      <trkpt lat="44.04574" lon="6.01511">
        <ele>434.6</ele>
        <time>2021-09-09T15:07:20Z</time>
      </trkpt>
      <trkpt lat="44.04573" lon="6.01521">
        <ele>434.6</ele>
        <time>2021-09-09T15:07:22Z</time>
      </trkpt>
      <trkpt lat="44.04572" lon="6.01529">
        <ele>434.6</ele>
        <time>2021-09-09T15:07:24Z</time>
      </trkpt>
      <trkpt lat="44.0457" lon="6.01534">
        <ele>434.6</ele>
        <time>2021-09-09T15:07:25Z</time>
      </trkpt>
      <trkpt lat="44.04569" lon="6.01542">
        <ele>434.6</ele>
        <time>2021-09-09T15:07:27Z</time>
      </trkpt>
      <trkpt lat="44.04569" lon="6.01547">
        <ele>434.5</ele>
        <time>2021-09-09T15:07:28Z</time>
      </trkpt>
      <trkpt lat="44.04569" lon="6.0155">
        <ele>434.5</ele>
        <time>2021-09-09T15:07:29Z</time>
      </trkpt>
      <trkpt lat="44.04569" lon="6.01548">
        <ele>434.5</ele>
        <time>2021-09-09T15:07:30Z</time>
      </trkpt>
      <trkpt lat="44.04572" lon="6.01538">
        <ele>434.4</ele>
        <time>2021-09-09T15:07:32Z</time>
      </trkpt>
      <trkpt lat="44.04572" lon="6.01541">
        <ele>434.4</ele>
        <time>2021-09-09T15:07:34Z</time>
      </trkpt>
      <trkpt lat="44.04572" lon="6.01545">
        <ele>434.4</ele>
        <time>2021-09-09T15:07:36Z</time>
      </trkpt>
      <trkpt lat="44.04571" lon="6.01549">
        <ele>434.3</ele>
        <time>2021-09-09T15:07:38Z</time>
      </trkpt>
      <trkpt lat="44.0457" lon="6.01554">
        <ele>434.3</ele>
        <time>2021-09-09T15:07:40Z</time>
      </trkpt>
      <trkpt lat="44.0457" lon="6.01558">
        <ele>434.3</ele>
        <time>2021-09-09T15:08:27Z</time>
      </trkpt>
      <trkpt lat="44.04569" lon="6.01563">
        <ele>434.2</ele>
        <time>2021-09-09T15:08:28Z</time>
      </trkpt>
      <trkpt lat="44.04567" lon="6.01583">
        <ele>433.9</ele>
        <time>2021-09-09T15:08:30Z</time>
      </trkpt>
      <trkpt lat="44.04566" lon="6.016">
        <ele>433.5</ele>
        <time>2021-09-09T15:08:32Z</time>
      </trkpt>
      <trkpt lat="44.04565" lon="6.01616">
        <ele>433.1</ele>
        <time>2021-09-09T15:08:34Z</time>
      </trkpt>
      <trkpt lat="44.04565" lon="6.01623">
        <ele>432.9</ele>
        <time>2021-09-09T15:08:35Z</time>
      </trkpt>
      <trkpt lat="44.04564" lon="6.01631">
        <ele>432.7</ele>
        <time>2021-09-09T15:08:36Z</time>
      </trkpt>
      <trkpt lat="44.04562" lon="6.01646">
        <ele>432.2</ele>
        <time>2021-09-09T15:08:38Z</time>
      </trkpt>
      <trkpt lat="44.04562" lon="6.01663">
        <ele>431.7</ele>
        <time>2021-09-09T15:08:40Z</time>
      </trkpt>
      <trkpt lat="44.04562" lon="6.01671">
        <ele>431.4</ele>
        <time>2021-09-09T15:08:41Z</time>
      </trkpt>
      <trkpt lat="44.04563" lon="6.0168">
        <ele>431.1</ele>
        <time>2021-09-09T15:08:42Z</time>
      </trkpt>
      <trkpt lat="44.04565" lon="6.01701">
        <ele>430.3</ele>
        <time>2021-09-09T15:08:44Z</time>
      </trkpt>
      <trkpt lat="44.04567" lon="6.01723">
        <ele>429.5</ele>
        <time>2021-09-09T15:08:46Z</time>
      </trkpt>
      <trkpt lat="44.04568" lon="6.01734">
        <ele>429.1</ele>
        <time>2021-09-09T15:08:47Z</time>
      </trkpt>
      <trkpt lat="44.04569" lon="6.01745">
        <ele>428.7</ele>
        <time>2021-09-09T15:08:48Z</time>
      </trkpt>
      <trkpt lat="44.04573" lon="6.01769">
        <ele>427.9</ele>
        <time>2021-09-09T15:08:50Z</time>
      </trkpt>
      <trkpt lat="44.04575" lon="6.01782">
        <ele>427.5</ele>
        <time>2021-09-09T15:08:51Z</time>
      </trkpt>
      <trkpt lat="44.04577" lon="6.01795">
        <ele>427.1</ele>
        <time>2021-09-09T15:08:52Z</time>
      </trkpt>
      <trkpt lat="44.04583" lon="6.01822">
        <ele>426.4</ele>
        <time>2021-09-09T15:08:54Z</time>
      </trkpt>
      <trkpt lat="44.04586" lon="6.01835">
        <ele>426.1</ele>
        <time>2021-09-09T15:08:55Z</time>
      </trkpt>
      <trkpt lat="44.04589" lon="6.01848">
        <ele>425.9</ele>
        <time>2021-09-09T15:08:56Z</time>
      </trkpt>
      <trkpt lat="44.04597" lon="6.01874">
        <ele>425.5</ele>
        <time>2021-09-09T15:08:58Z</time>
      </trkpt>
      <trkpt lat="44.04606" lon="6.01898">
        <ele>425.3</ele>
        <time>2021-09-09T15:09:00Z</time>
      </trkpt>
      <trkpt lat="44.04616" lon="6.0192">
        <ele>425.3</ele>
        <time>2021-09-09T15:09:02Z</time>
      </trkpt>
      <trkpt lat="44.04626" lon="6.0194">
        <ele>425.3</ele>
        <time>2021-09-09T15:09:04Z</time>
      </trkpt>
      <trkpt lat="44.04635" lon="6.01959">
        <ele>425.1</ele>
        <time>2021-09-09T15:09:06Z</time>
      </trkpt>
      <trkpt lat="44.04639" lon="6.01968">
        <ele>425.1</ele>
        <time>2021-09-09T15:09:07Z</time>
      </trkpt>
      <trkpt lat="44.04646" lon="6.01988">
        <ele>425</ele>
        <time>2021-09-09T15:09:09Z</time>
      </trkpt>
      <trkpt lat="44.0465" lon="6.01997">
        <ele>425</ele>
        <time>2021-09-09T15:09:10Z</time>
      </trkpt>
      <trkpt lat="44.04657" lon="6.02016">
        <ele>425</ele>
        <time>2021-09-09T15:09:12Z</time>
      </trkpt>
      <trkpt lat="44.0466" lon="6.02026">
        <ele>425</ele>
        <time>2021-09-09T15:09:13Z</time>
      </trkpt>
      <trkpt lat="44.04667" lon="6.02043">
        <ele>425</ele>
        <time>2021-09-09T15:09:15Z</time>
      </trkpt>
      <trkpt lat="44.0467" lon="6.02052">
        <ele>425</ele>
        <time>2021-09-09T15:09:16Z</time>
      </trkpt>
      <trkpt lat="44.04672" lon="6.0206">
        <ele>425.1</ele>
        <time>2021-09-09T15:09:17Z</time>
      </trkpt>
      <trkpt lat="44.04676" lon="6.02067">
        <ele>425.1</ele>
        <time>2021-09-09T15:09:18Z</time>
      </trkpt>
      <trkpt lat="44.04678" lon="6.02074">
        <ele>425.1</ele>
        <time>2021-09-09T15:09:19Z</time>
      </trkpt>
      <trkpt lat="44.04681" lon="6.02081">
        <ele>425.2</ele>
        <time>2021-09-09T15:09:20Z</time>
      </trkpt>
      <trkpt lat="44.04687" lon="6.02095">
        <ele>425.2</ele>
        <time>2021-09-09T15:09:22Z</time>
      </trkpt>
      <trkpt lat="44.0469" lon="6.02101">
        <ele>425.3</ele>
        <time>2021-09-09T15:09:23Z</time>
      </trkpt>
      <trkpt lat="44.04695" lon="6.02113">
        <ele>425.3</ele>
        <time>2021-09-09T15:09:25Z</time>
      </trkpt>
      <trkpt lat="44.047" lon="6.02126">
        <ele>425.4</ele>
        <time>2021-09-09T15:09:27Z</time>
      </trkpt>
      <trkpt lat="44.04704" lon="6.0214">
        <ele>425.4</ele>
        <time>2021-09-09T15:09:29Z</time>
      </trkpt>
      <trkpt lat="44.04708" lon="6.02156">
        <ele>425.4</ele>
        <time>2021-09-09T15:09:31Z</time>
      </trkpt>
      <trkpt lat="44.0471" lon="6.02164">
        <ele>425.5</ele>
        <time>2021-09-09T15:09:32Z</time>
      </trkpt>
      <trkpt lat="44.04713" lon="6.02179">
        <ele>425.5</ele>
        <time>2021-09-09T15:09:34Z</time>
      </trkpt>
      <trkpt lat="44.04715" lon="6.02185">
        <ele>425.5</ele>
        <time>2021-09-09T15:09:35Z</time>
      </trkpt>
      <trkpt lat="44.04717" lon="6.02192">
        <ele>425.5</ele>
        <time>2021-09-09T15:09:36Z</time>
      </trkpt>
      <trkpt lat="44.04719" lon="6.02199">
        <ele>425.5</ele>
        <time>2021-09-09T15:09:37Z</time>
      </trkpt>
      <trkpt lat="44.0472" lon="6.02205">
        <ele>425.6</ele>
        <time>2021-09-09T15:09:38Z</time>
      </trkpt>
      <trkpt lat="44.04723" lon="6.02219">
        <ele>425.6</ele>
        <time>2021-09-09T15:09:40Z</time>
      </trkpt>
      <trkpt lat="44.04725" lon="6.02226">
        <ele>425.6</ele>
        <time>2021-09-09T15:09:41Z</time>
      </trkpt>
      <trkpt lat="44.04726" lon="6.02241">
        <ele>425.7</ele>
        <time>2021-09-09T15:09:43Z</time>
      </trkpt>
      <trkpt lat="44.04726" lon="6.02255">
        <ele>425.7</ele>
        <time>2021-09-09T15:09:45Z</time>
      </trkpt>
      <trkpt lat="44.04725" lon="6.02261">
        <ele>425.7</ele>
        <time>2021-09-09T15:09:46Z</time>
      </trkpt>
      <trkpt lat="44.04725" lon="6.02273">
        <ele>425.8</ele>
        <time>2021-09-09T15:09:48Z</time>
      </trkpt>
      <trkpt lat="44.04725" lon="6.0228">
        <ele>425.8</ele>
        <time>2021-09-09T15:09:49Z</time>
      </trkpt>
      <trkpt lat="44.04724" lon="6.02287">
        <ele>425.8</ele>
        <time>2021-09-09T15:09:50Z</time>
      </trkpt>
      <trkpt lat="44.04722" lon="6.02304">
        <ele>425.8</ele>
        <time>2021-09-09T15:09:52Z</time>
      </trkpt>
      <trkpt lat="44.04721" lon="6.02312">
        <ele>425.9</ele>
        <time>2021-09-09T15:09:53Z</time>
      </trkpt>
      <trkpt lat="44.0472" lon="6.02329">
        <ele>425.9</ele>
        <time>2021-09-09T15:09:55Z</time>
      </trkpt>
      <trkpt lat="44.04719" lon="6.02337">
        <ele>425.9</ele>
        <time>2021-09-09T15:09:56Z</time>
      </trkpt>
      <trkpt lat="44.04718" lon="6.02346">
        <ele>426</ele>
        <time>2021-09-09T15:09:57Z</time>
      </trkpt>
      <trkpt lat="44.04717" lon="6.02354">
        <ele>426</ele>
        <time>2021-09-09T15:09:58Z</time>
      </trkpt>
      <trkpt lat="44.04714" lon="6.02371">
        <ele>426</ele>
        <time>2021-09-09T15:10:00Z</time>
      </trkpt>
      <trkpt lat="44.04712" lon="6.02379">
        <ele>426.1</ele>
        <time>2021-09-09T15:10:01Z</time>
      </trkpt>
      <trkpt lat="44.0471" lon="6.02387">
        <ele>426.1</ele>
        <time>2021-09-09T15:10:02Z</time>
      </trkpt>
      <trkpt lat="44.04707" lon="6.02402">
        <ele>426.2</ele>
        <time>2021-09-09T15:10:04Z</time>
      </trkpt>
      <trkpt lat="44.04704" lon="6.02417">
        <ele>426.2</ele>
        <time>2021-09-09T15:10:06Z</time>
      </trkpt>
      <trkpt lat="44.04702" lon="6.02431">
        <ele>426.3</ele>
        <time>2021-09-09T15:10:08Z</time>
      </trkpt>
      <trkpt lat="44.04698" lon="6.02443">
        <ele>426.3</ele>
        <time>2021-09-09T15:10:10Z</time>
      </trkpt>
      <trkpt lat="44.04696" lon="6.02447">
        <ele>426.3</ele>
        <time>2021-09-09T15:10:11Z</time>
      </trkpt>
      <trkpt lat="44.04692" lon="6.02455">
        <ele>426.2</ele>
        <time>2021-09-09T15:10:12Z</time>
      </trkpt>
      <trkpt lat="44.04688" lon="6.02463">
        <ele>426.2</ele>
        <time>2021-09-09T15:10:13Z</time>
      </trkpt>
      <trkpt lat="44.04684" lon="6.02471">
        <ele>426.3</ele>
        <time>2021-09-09T15:10:14Z</time>
      </trkpt>
      <trkpt lat="44.04678" lon="6.02487">
        <ele>426.4</ele>
        <time>2021-09-09T15:10:16Z</time>
      </trkpt>
      <trkpt lat="44.04674" lon="6.02501">
        <ele>426.5</ele>
        <time>2021-09-09T15:10:18Z</time>
      </trkpt>
      <trkpt lat="44.04668" lon="6.02514">
        <ele>426.5</ele>
        <time>2021-09-09T15:10:20Z</time>
      </trkpt>
      <trkpt lat="44.04665" lon="6.0252">
        <ele>426.6</ele>
        <time>2021-09-09T15:10:21Z</time>
      </trkpt>
      <trkpt lat="44.0466" lon="6.02532">
        <ele>426.6</ele>
        <time>2021-09-09T15:10:23Z</time>
      </trkpt>
      <trkpt lat="44.04656" lon="6.02538">
        <ele>426.6</ele>
        <time>2021-09-09T15:10:24Z</time>
      </trkpt>
      <trkpt lat="44.04649" lon="6.0255">
        <ele>426.7</ele>
        <time>2021-09-09T15:10:26Z</time>
      </trkpt>
      <trkpt lat="44.04644" lon="6.02561">
        <ele>426.7</ele>
        <time>2021-09-09T15:10:28Z</time>
      </trkpt>
      <trkpt lat="44.04636" lon="6.02574">
        <ele>426.7</ele>
        <time>2021-09-09T15:10:30Z</time>
      </trkpt>
      <trkpt lat="44.0463" lon="6.02586">
        <ele>426.8</ele>
        <time>2021-09-09T15:10:32Z</time>
      </trkpt>
      <trkpt lat="44.04622" lon="6.02597">
        <ele>426.9</ele>
        <time>2021-09-09T15:10:34Z</time>
      </trkpt>
      <trkpt lat="44.04615" lon="6.02606">
        <ele>426.9</ele>
        <time>2021-09-09T15:10:36Z</time>
      </trkpt>
      <trkpt lat="44.0461" lon="6.02611">
        <ele>427</ele>
        <time>2021-09-09T15:10:37Z</time>
      </trkpt>
      <trkpt lat="44.04602" lon="6.02624">
        <ele>427.1</ele>
        <time>2021-09-09T15:10:39Z</time>
      </trkpt>
      <trkpt lat="44.04597" lon="6.0263">
        <ele>427.2</ele>
        <time>2021-09-09T15:10:40Z</time>
      </trkpt>
      <trkpt lat="44.04588" lon="6.02639">
        <ele>427.3</ele>
        <time>2021-09-09T15:10:42Z</time>
      </trkpt>
      <trkpt lat="44.0458" lon="6.02648">
        <ele>427.5</ele>
        <time>2021-09-09T15:10:44Z</time>
      </trkpt>
      <trkpt lat="44.04572" lon="6.02657">
        <ele>427.6</ele>
        <time>2021-09-09T15:10:46Z</time>
      </trkpt>
      <trkpt lat="44.04568" lon="6.02661">
        <ele>427.6</ele>
        <time>2021-09-09T15:10:48Z</time>
      </trkpt>
      <trkpt lat="44.04563" lon="6.0267">
        <ele>427.8</ele>
        <time>2021-09-09T15:10:49Z</time>
      </trkpt>
      <trkpt lat="44.0456" lon="6.02674">
        <ele>427.8</ele>
        <time>2021-09-09T15:10:50Z</time>
      </trkpt>
      <trkpt lat="44.04557" lon="6.02678">
        <ele>427.9</ele>
        <time>2021-09-09T15:10:51Z</time>
      </trkpt>
      <trkpt lat="44.04555" lon="6.02681">
        <ele>427.9</ele>
        <time>2021-09-09T15:10:52Z</time>
      </trkpt>
      <trkpt lat="44.04549" lon="6.02691">
        <ele>428.1</ele>
        <time>2021-09-09T15:10:54Z</time>
      </trkpt>
      <trkpt lat="44.04543" lon="6.02698">
        <ele>428.3</ele>
        <time>2021-09-09T15:10:56Z</time>
      </trkpt>
      <trkpt lat="44.04539" lon="6.02702">
        <ele>428.4</ele>
        <time>2021-09-09T15:10:57Z</time>
      </trkpt>
      <trkpt lat="44.04532" lon="6.02711">
        <ele>428.6</ele>
        <time>2021-09-09T15:10:59Z</time>
      </trkpt>
      <trkpt lat="44.0453" lon="6.02714">
        <ele>428.6</ele>
        <time>2021-09-09T15:11:00Z</time>
      </trkpt>
      <trkpt lat="44.04529" lon="6.02719">
        <ele>428.7</ele>
        <time>2021-09-09T15:11:01Z</time>
      </trkpt>
      <trkpt lat="44.04527" lon="6.02725">
        <ele>428.8</ele>
        <time>2021-09-09T15:11:03Z</time>
      </trkpt>
      <trkpt lat="44.04521" lon="6.02731">
        <ele>428.9</ele>
        <time>2021-09-09T15:11:04Z</time>
      </trkpt>
      <trkpt lat="44.04518" lon="6.02736">
        <ele>429</ele>
        <time>2021-09-09T15:11:05Z</time>
      </trkpt>
      <trkpt lat="44.04516" lon="6.02739">
        <ele>429</ele>
        <time>2021-09-09T15:11:06Z</time>
      </trkpt>
      <trkpt lat="44.04512" lon="6.02742">
        <ele>429.1</ele>
        <time>2021-09-09T15:11:08Z</time>
      </trkpt>
      <trkpt lat="44.04501" lon="6.02748">
        <ele>429.3</ele>
        <time>2021-09-09T15:11:09Z</time>
      </trkpt>
      <trkpt lat="44.04496" lon="6.02746">
        <ele>429.4</ele>
        <time>2021-09-09T15:11:11Z</time>
      </trkpt>
      <trkpt lat="44.04492" lon="6.02752">
        <ele>429.5</ele>
        <time>2021-09-09T15:11:12Z</time>
      </trkpt>
      <trkpt lat="44.04486" lon="6.0276">
        <ele>429.6</ele>
        <time>2021-09-09T15:11:14Z</time>
      </trkpt>
      <trkpt lat="44.04482" lon="6.02766">
        <ele>429.7</ele>
        <time>2021-09-09T15:11:15Z</time>
      </trkpt>
      <trkpt lat="44.0448" lon="6.0277">
        <ele>429.8</ele>
        <time>2021-09-09T15:11:16Z</time>
      </trkpt>
      <trkpt lat="44.04479" lon="6.02777">
        <ele>429.9</ele>
        <time>2021-09-09T15:11:17Z</time>
      </trkpt>
      <trkpt lat="44.04476" lon="6.02782">
        <ele>430</ele>
        <time>2021-09-09T15:11:18Z</time>
      </trkpt>
      <trkpt lat="44.04474" lon="6.02785">
        <ele>430.1</ele>
        <time>2021-09-09T15:11:20Z</time>
      </trkpt>
      <trkpt lat="44.04473" lon="6.02786">
        <ele>430.1</ele>
        <time>2021-09-09T15:11:21Z</time>
      </trkpt>
      <trkpt lat="44.04465" lon="6.02793">
        <ele>430.3</ele>
        <time>2021-09-09T15:11:23Z</time>
      </trkpt>
      <trkpt lat="44.04458" lon="6.028">
        <ele>430.4</ele>
        <time>2021-09-09T15:11:25Z</time>
      </trkpt>
      <trkpt lat="44.04452" lon="6.02807">
        <ele>430.5</ele>
        <time>2021-09-09T15:11:26Z</time>
      </trkpt>
      <trkpt lat="44.04447" lon="6.02814">
        <ele>430.7</ele>
        <time>2021-09-09T15:11:28Z</time>
      </trkpt>
      <trkpt lat="44.04442" lon="6.02822">
        <ele>430.9</ele>
        <time>2021-09-09T15:11:29Z</time>
      </trkpt>
      <trkpt lat="44.04439" lon="6.02827">
        <ele>431</ele>
        <time>2021-09-09T15:11:30Z</time>
      </trkpt>
      <trkpt lat="44.04433" lon="6.02834">
        <ele>431.2</ele>
        <time>2021-09-09T15:11:32Z</time>
      </trkpt>
      <trkpt lat="44.04426" lon="6.0284">
        <ele>431.4</ele>
        <time>2021-09-09T15:11:34Z</time>
      </trkpt>
      <trkpt lat="44.04421" lon="6.02846">
        <ele>431.5</ele>
        <time>2021-09-09T15:11:35Z</time>
      </trkpt>
      <trkpt lat="44.04416" lon="6.02851">
        <ele>431.7</ele>
        <time>2021-09-09T15:11:37Z</time>
      </trkpt>
      <trkpt lat="44.04413" lon="6.02855">
        <ele>431.8</ele>
        <time>2021-09-09T15:11:38Z</time>
      </trkpt>
      <trkpt lat="44.0441" lon="6.02858">
        <ele>431.9</ele>
        <time>2021-09-09T15:11:39Z</time>
      </trkpt>
      <trkpt lat="44.04406" lon="6.02862">
        <ele>431.9</ele>
        <time>2021-09-09T15:11:41Z</time>
      </trkpt>
      <trkpt lat="44.04402" lon="6.02867">
        <ele>432</ele>
        <time>2021-09-09T15:11:42Z</time>
      </trkpt>
      <trkpt lat="44.04396" lon="6.02873">
        <ele>432</ele>
        <time>2021-09-09T15:11:44Z</time>
      </trkpt>
      <trkpt lat="44.04392" lon="6.02877">
        <ele>432</ele>
        <time>2021-09-09T15:11:45Z</time>
      </trkpt>
      <trkpt lat="44.0439" lon="6.02881">
        <ele>432</ele>
        <time>2021-09-09T15:11:46Z</time>
      </trkpt>
      <trkpt lat="44.04387" lon="6.02884">
        <ele>432.1</ele>
        <time>2021-09-09T15:11:47Z</time>
      </trkpt>
      <trkpt lat="44.04385" lon="6.02887">
        <ele>432.1</ele>
        <time>2021-09-09T15:11:48Z</time>
      </trkpt>
      <trkpt lat="44.04381" lon="6.02895">
        <ele>432.2</ele>
        <time>2021-09-09T15:11:50Z</time>
      </trkpt>
      <trkpt lat="44.04377" lon="6.02904">
        <ele>432.2</ele>
        <time>2021-09-09T15:11:52Z</time>
      </trkpt>
      <trkpt lat="44.04375" lon="6.0291">
        <ele>432.3</ele>
        <time>2021-09-09T15:11:53Z</time>
      </trkpt>
      <trkpt lat="44.04373" lon="6.02915">
        <ele>432.3</ele>
        <time>2021-09-09T15:11:54Z</time>
      </trkpt>
      <trkpt lat="44.04371" lon="6.02921">
        <ele>432.4</ele>
        <time>2021-09-09T15:11:55Z</time>
      </trkpt>
      <trkpt lat="44.04366" lon="6.0293">
        <ele>432.5</ele>
        <time>2021-09-09T15:11:57Z</time>
      </trkpt>
      <trkpt lat="44.04363" lon="6.02934">
        <ele>432.5</ele>
        <time>2021-09-09T15:11:58Z</time>
      </trkpt>
      <trkpt lat="44.0436" lon="6.02941">
        <ele>432.7</ele>
        <time>2021-09-09T15:12:00Z</time>
      </trkpt>
      <trkpt lat="44.04354" lon="6.02946">
        <ele>432.8</ele>
        <time>2021-09-09T15:12:02Z</time>
      </trkpt>
      <trkpt lat="44.04351" lon="6.0295">
        <ele>432.9</ele>
        <time>2021-09-09T15:12:03Z</time>
      </trkpt>
      <trkpt lat="44.04349" lon="6.02955">
        <ele>433</ele>
        <time>2021-09-09T15:12:04Z</time>
      </trkpt>
      <trkpt lat="44.04345" lon="6.02962">
        <ele>433.1</ele>
        <time>2021-09-09T15:12:06Z</time>
      </trkpt>
      <trkpt lat="44.04343" lon="6.02967">
        <ele>433.3</ele>
        <time>2021-09-09T15:12:07Z</time>
      </trkpt>
      <trkpt lat="44.04342" lon="6.02972">
        <ele>433.4</ele>
        <time>2021-09-09T15:12:08Z</time>
      </trkpt>
      <trkpt lat="44.04341" lon="6.02979">
        <ele>433.6</ele>
        <time>2021-09-09T15:12:10Z</time>
      </trkpt>
      <trkpt lat="44.04339" lon="6.02984">
        <ele>433.7</ele>
        <time>2021-09-09T15:12:11Z</time>
      </trkpt>
      <trkpt lat="44.04337" lon="6.02988">
        <ele>433.8</ele>
        <time>2021-09-09T15:12:13Z</time>
      </trkpt>
      <trkpt lat="44.04333" lon="6.02989">
        <ele>434.8</ele>
        <time>2021-09-09T15:12:15Z</time>
      </trkpt>
      <trkpt lat="44.0433" lon="6.02989">
        <ele>434.8</ele>
        <time>2021-09-09T15:12:17Z</time>
      </trkpt>
      <trkpt lat="44.04327" lon="6.02987">
        <ele>434.8</ele>
        <time>2021-09-09T15:12:18Z</time>
      </trkpt>
      <trkpt lat="44.04323" lon="6.02984">
        <ele>435.3</ele>
        <time>2021-09-09T15:12:20Z</time>
      </trkpt>
      <trkpt lat="44.04319" lon="6.0298">
        <ele>435.3</ele>
        <time>2021-09-09T15:12:22Z</time>
      </trkpt>
      <trkpt lat="44.04318" lon="6.02977">
        <ele>435.3</ele>
        <time>2021-09-09T15:12:23Z</time>
      </trkpt>
      <trkpt lat="44.04315" lon="6.02971">
        <ele>435.4</ele>
        <time>2021-09-09T15:12:25Z</time>
      </trkpt>
      <trkpt lat="44.04312" lon="6.02969">
        <ele>435.5</ele>
        <time>2021-09-09T15:12:26Z</time>
      </trkpt>
      <trkpt lat="44.04308" lon="6.02968">
        <ele>435.5</ele>
        <time>2021-09-09T15:12:28Z</time>
      </trkpt>
      <trkpt lat="44.04307" lon="6.02971">
        <ele>435.6</ele>
        <time>2021-09-09T15:12:30Z</time>
      </trkpt>
      <trkpt lat="44.04306" lon="6.02976">
        <ele>435.6</ele>
        <time>2021-09-09T15:12:32Z</time>
      </trkpt>
      <trkpt lat="44.04309" lon="6.02978">
        <ele>435.7</ele>
        <time>2021-09-09T15:12:33Z</time>
      </trkpt>
      <trkpt lat="44.04316" lon="6.02981">
        <ele>435.4</ele>
        <time>2021-09-09T15:12:35Z</time>
      </trkpt>
      <trkpt lat="44.0432" lon="6.02985">
        <ele>435.3</ele>
        <time>2021-09-09T15:12:36Z</time>
      </trkpt>
      <trkpt lat="44.04323" lon="6.02991">
        <ele>435.2</ele>
        <time>2021-09-09T15:12:38Z</time>
      </trkpt>
      <trkpt lat="44.04325" lon="6.02996">
        <ele>435</ele>
        <time>2021-09-09T15:12:39Z</time>
      </trkpt>
      <trkpt lat="44.04327" lon="6.03">
        <ele>434.9</ele>
        <time>2021-09-09T15:12:40Z</time>
      </trkpt>
      <trkpt lat="44.0433" lon="6.03009">
        <ele>435</ele>
        <time>2021-09-09T15:12:41Z</time>
      </trkpt>
      <trkpt lat="44.04333" lon="6.03016">
        <ele>435.4</ele>
        <time>2021-09-09T15:12:42Z</time>
      </trkpt>
      <trkpt lat="44.04338" lon="6.03022">
        <ele>435.5</ele>
        <time>2021-09-09T15:12:43Z</time>
      </trkpt>
      <trkpt lat="44.04347" lon="6.03032">
        <ele>435.6</ele>
        <time>2021-09-09T15:12:45Z</time>
      </trkpt>
      <trkpt lat="44.04359" lon="6.03038">
        <ele>435.6</ele>
        <time>2021-09-09T15:12:47Z</time>
      </trkpt>
      <trkpt lat="44.04371" lon="6.03043">
        <ele>435.4</ele>
        <time>2021-09-09T15:12:49Z</time>
      </trkpt>
      <trkpt lat="44.04385" lon="6.03045">
        <ele>435</ele>
        <time>2021-09-09T15:12:51Z</time>
      </trkpt>
      <trkpt lat="44.04392" lon="6.03043">
        <ele>434.7</ele>
        <time>2021-09-09T15:12:52Z</time>
      </trkpt>
      <trkpt lat="44.04399" lon="6.03043">
        <ele>434.5</ele>
        <time>2021-09-09T15:12:53Z</time>
      </trkpt>
      <trkpt lat="44.04406" lon="6.03043">
        <ele>434.3</ele>
        <time>2021-09-09T15:12:54Z</time>
      </trkpt>
      <trkpt lat="44.04418" lon="6.0304">
        <ele>433.8</ele>
        <time>2021-09-09T15:12:56Z</time>
      </trkpt>
      <trkpt lat="44.0443" lon="6.03039">
        <ele>433.4</ele>
        <time>2021-09-09T15:12:58Z</time>
      </trkpt>
      <trkpt lat="44.04442" lon="6.0304">
        <ele>432.6</ele>
        <time>2021-09-09T15:13:00Z</time>
      </trkpt>
      <trkpt lat="44.04455" lon="6.03042">
        <ele>432.3</ele>
        <time>2021-09-09T15:13:02Z</time>
      </trkpt>
      <trkpt lat="44.0446" lon="6.03043">
        <ele>432.2</ele>
        <time>2021-09-09T15:13:03Z</time>
      </trkpt>
      <trkpt lat="44.04475" lon="6.03046">
        <ele>432</ele>
        <time>2021-09-09T15:13:05Z</time>
      </trkpt>
      <trkpt lat="44.0449" lon="6.03052">
        <ele>432</ele>
        <time>2021-09-09T15:13:07Z</time>
      </trkpt>
      <trkpt lat="44.04496" lon="6.03055">
        <ele>432</ele>
        <time>2021-09-09T15:13:09Z</time>
      </trkpt>
      <trkpt lat="44.04494" lon="6.03055">
        <ele>432</ele>
        <time>2021-09-09T15:13:10Z</time>
      </trkpt>
      <trkpt lat="44.04492" lon="6.03056">
        <ele>432</ele>
        <time>2021-09-09T15:13:12Z</time>
      </trkpt>
      <trkpt lat="44.04489" lon="6.03062">
        <ele>431.9</ele>
        <time>2021-09-09T15:13:14Z</time>
      </trkpt>
      <trkpt lat="44.04489" lon="6.03067">
        <ele>431.9</ele>
        <time>2021-09-09T15:13:15Z</time>
      </trkpt>
      <trkpt lat="44.04488" lon="6.03072">
        <ele>431.9</ele>
        <time>2021-09-09T15:13:16Z</time>
      </trkpt>
      <trkpt lat="44.04488" lon="6.03077">
        <ele>431.8</ele>
        <time>2021-09-09T15:13:18Z</time>
      </trkpt>
      <trkpt lat="44.04488" lon="6.03082">
        <ele>431.8</ele>
        <time>2021-09-09T15:13:19Z</time>
      </trkpt>
      <trkpt lat="44.04487" lon="6.03086">
        <ele>431.8</ele>
        <time>2021-09-09T15:13:43Z</time>
      </trkpt>
      <trkpt lat="44.04487" lon="6.03091">
        <ele>431.8</ele>
        <time>2021-09-09T15:13:44Z</time>
      </trkpt>
      <trkpt lat="44.04493" lon="6.03099">
        <ele>431.8</ele>
        <time>2021-09-09T15:13:46Z</time>
      </trkpt>
      <trkpt lat="44.04496" lon="6.03103">
        <ele>431.8</ele>
        <time>2021-09-09T15:13:47Z</time>
      </trkpt>
      <trkpt lat="44.045" lon="6.03107">
        <ele>431.9</ele>
        <time>2021-09-09T15:13:48Z</time>
      </trkpt>
      <trkpt lat="44.04503" lon="6.03113">
        <ele>431.8</ele>
        <time>2021-09-09T15:13:49Z</time>
      </trkpt>
      <trkpt lat="44.04505" lon="6.03117">
        <ele>431.8</ele>
        <time>2021-09-09T15:13:50Z</time>
      </trkpt>
      <trkpt lat="44.04512" lon="6.03121">
        <ele>431.8</ele>
        <time>2021-09-09T15:13:52Z</time>
      </trkpt>
      <trkpt lat="44.04517" lon="6.03124">
        <ele>431.8</ele>
        <time>2021-09-09T15:13:54Z</time>
      </trkpt>
      <trkpt lat="44.04521" lon="6.03126">
        <ele>431.9</ele>
        <time>2021-09-09T15:13:56Z</time>
      </trkpt>
      <trkpt lat="44.04522" lon="6.03128">
        <ele>431.9</ele>
        <time>2021-09-09T15:13:57Z</time>
      </trkpt>
      <trkpt lat="44.04524" lon="6.03129">
        <ele>431.9</ele>
        <time>2021-09-09T15:13:59Z</time>
      </trkpt>
      <trkpt lat="44.04601" lon="6.03224">
        <ele>433.2</ele>
        <time>2021-09-09T15:14:28Z</time>
      </trkpt>
      <trkpt lat="44.04609" lon="6.03229">
        <ele>433.2</ele>
        <time>2021-09-09T15:14:30Z</time>
      </trkpt>
      <trkpt lat="44.04611" lon="6.03229">
        <ele>433.2</ele>
        <time>2021-09-09T15:14:31Z</time>
      </trkpt>
      <trkpt lat="44.0461" lon="6.03227">
        <ele>433.2</ele>
        <time>2021-09-09T15:14:32Z</time>
      </trkpt>
      <trkpt lat="44.04617" lon="6.03231">
        <ele>433.1</ele>
        <time>2021-09-09T15:14:34Z</time>
      </trkpt>
      <trkpt lat="44.04629" lon="6.03243">
        <ele>433</ele>
        <time>2021-09-09T15:14:35Z</time>
      </trkpt>
      <trkpt lat="44.04641" lon="6.03262">
        <ele>433.8</ele>
        <time>2021-09-09T15:14:37Z</time>
      </trkpt>
      <trkpt lat="44.04645" lon="6.0327">
        <ele>434</ele>
        <time>2021-09-09T15:14:38Z</time>
      </trkpt>
      <trkpt lat="44.04645" lon="6.03266">
        <ele>433.9</ele>
        <time>2021-09-09T15:14:39Z</time>
      </trkpt>
      <trkpt lat="44.04644" lon="6.0326">
        <ele>433.7</ele>
        <time>2021-09-09T15:14:41Z</time>
      </trkpt>
      <trkpt lat="44.04643" lon="6.03254">
        <ele>433.6</ele>
        <time>2021-09-09T15:14:42Z</time>
      </trkpt>
      <trkpt lat="44.04642" lon="6.03247">
        <ele>433.4</ele>
        <time>2021-09-09T15:14:43Z</time>
      </trkpt>
      <trkpt lat="44.04641" lon="6.03241">
        <ele>433.4</ele>
        <time>2021-09-09T15:14:45Z</time>
      </trkpt>
      <trkpt lat="44.0464" lon="6.03235">
        <ele>433.4</ele>
        <time>2021-09-09T15:15:04Z</time>
      </trkpt>
      <trkpt lat="44.04639" lon="6.03229">
        <ele>433.4</ele>
        <time>2021-09-09T15:15:06Z</time>
      </trkpt>
      <trkpt lat="44.04639" lon="6.03232">
        <ele>433.3</ele>
        <time>2021-09-09T15:15:08Z</time>
      </trkpt>
      <trkpt lat="44.04637" lon="6.03215">
        <ele>433.3</ele>
        <time>2021-09-09T15:15:10Z</time>
      </trkpt>
      <trkpt lat="44.04636" lon="6.03198">
        <ele>433.1</ele>
        <time>2021-09-09T15:15:11Z</time>
      </trkpt>
      <trkpt lat="44.04638" lon="6.03172">
        <ele>432.9</ele>
        <time>2021-09-09T15:15:13Z</time>
      </trkpt>
      <trkpt lat="44.04639" lon="6.03161">
        <ele>432.8</ele>
        <time>2021-09-09T15:15:14Z</time>
      </trkpt>
      <trkpt lat="44.0464" lon="6.03152">
        <ele>432.7</ele>
        <time>2021-09-09T15:15:15Z</time>
      </trkpt>
      <trkpt lat="44.04643" lon="6.03136">
        <ele>432.6</ele>
        <time>2021-09-09T15:15:17Z</time>
      </trkpt>
      <trkpt lat="44.04648" lon="6.03122">
        <ele>432.5</ele>
        <time>2021-09-09T15:15:19Z</time>
      </trkpt>
      <trkpt lat="44.04652" lon="6.03115">
        <ele>432.4</ele>
        <time>2021-09-09T15:15:20Z</time>
      </trkpt>
      <trkpt lat="44.04659" lon="6.03101">
        <ele>432.3</ele>
        <time>2021-09-09T15:15:22Z</time>
      </trkpt>
      <trkpt lat="44.0466" lon="6.03095">
        <ele>432.3</ele>
        <time>2021-09-09T15:15:23Z</time>
      </trkpt>
      <trkpt lat="44.04661" lon="6.0309">
        <ele>432.3</ele>
        <time>2021-09-09T15:15:24Z</time>
      </trkpt>
      <trkpt lat="44.04662" lon="6.03078">
        <ele>432.2</ele>
        <time>2021-09-09T15:15:26Z</time>
      </trkpt>
      <trkpt lat="44.04669" lon="6.03061">
        <ele>432.2</ele>
        <time>2021-09-09T15:15:28Z</time>
      </trkpt>
      <trkpt lat="44.04672" lon="6.03054">
        <ele>432.2</ele>
        <time>2021-09-09T15:15:29Z</time>
      </trkpt>
      <trkpt lat="44.04679" lon="6.03037">
        <ele>432.2</ele>
        <time>2021-09-09T15:15:31Z</time>
      </trkpt>
      <trkpt lat="44.04682" lon="6.0303">
        <ele>432.2</ele>
        <time>2021-09-09T15:15:32Z</time>
      </trkpt>
      <trkpt lat="44.04681" lon="6.03024">
        <ele>432.1</ele>
        <time>2021-09-09T15:15:33Z</time>
      </trkpt>
      <trkpt lat="44.04682" lon="6.03016">
        <ele>432.1</ele>
        <time>2021-09-09T15:15:34Z</time>
      </trkpt>
      <trkpt lat="44.04678" lon="6.03003">
        <ele>432</ele>
        <time>2021-09-09T15:15:36Z</time>
      </trkpt>
      <trkpt lat="44.04677" lon="6.02989">
        <ele>431.9</ele>
        <time>2021-09-09T15:15:38Z</time>
      </trkpt>
      <trkpt lat="44.04677" lon="6.0298">
        <ele>431.8</ele>
        <time>2021-09-09T15:15:39Z</time>
      </trkpt>
      <trkpt lat="44.04675" lon="6.02963">
        <ele>431.6</ele>
        <time>2021-09-09T15:15:41Z</time>
      </trkpt>
      <trkpt lat="44.04675" lon="6.02945">
        <ele>431.4</ele>
        <time>2021-09-09T15:15:43Z</time>
      </trkpt>
      <trkpt lat="44.04677" lon="6.02926">
        <ele>431.2</ele>
        <time>2021-09-09T15:15:45Z</time>
      </trkpt>
      <trkpt lat="44.04679" lon="6.02907">
        <ele>431</ele>
        <time>2021-09-09T15:15:47Z</time>
      </trkpt>
      <trkpt lat="44.0468" lon="6.02897">
        <ele>430.9</ele>
        <time>2021-09-09T15:15:48Z</time>
      </trkpt>
      <trkpt lat="44.04682" lon="6.02878">
        <ele>430.6</ele>
        <time>2021-09-09T15:15:50Z</time>
      </trkpt>
      <trkpt lat="44.04682" lon="6.02859">
        <ele>430.3</ele>
        <time>2021-09-09T15:15:52Z</time>
      </trkpt>
      <trkpt lat="44.04683" lon="6.02849">
        <ele>430.2</ele>
        <time>2021-09-09T15:15:53Z</time>
      </trkpt>
      <trkpt lat="44.04688" lon="6.02828">
        <ele>430</ele>
        <time>2021-09-09T15:15:55Z</time>
      </trkpt>
      <trkpt lat="44.04691" lon="6.02818">
        <ele>429.9</ele>
        <time>2021-09-09T15:15:56Z</time>
      </trkpt>
      <trkpt lat="44.04695" lon="6.02798">
        <ele>429.7</ele>
        <time>2021-09-09T15:15:58Z</time>
      </trkpt>
      <trkpt lat="44.04698" lon="6.0278">
        <ele>429.6</ele>
        <time>2021-09-09T15:16:00Z</time>
      </trkpt>
      <trkpt lat="44.04705" lon="6.02762">
        <ele>429.4</ele>
        <time>2021-09-09T15:16:02Z</time>
      </trkpt>
      <trkpt lat="44.04714" lon="6.02744">
        <ele>429.3</ele>
        <time>2021-09-09T15:16:04Z</time>
      </trkpt>
      <trkpt lat="44.04719" lon="6.02736">
        <ele>429.2</ele>
        <time>2021-09-09T15:16:05Z</time>
      </trkpt>
      <trkpt lat="44.04728" lon="6.0272">
        <ele>429.1</ele>
        <time>2021-09-09T15:16:07Z</time>
      </trkpt>
      <trkpt lat="44.04734" lon="6.02712">
        <ele>429</ele>
        <time>2021-09-09T15:16:08Z</time>
      </trkpt>
      <trkpt lat="44.0474" lon="6.02705">
        <ele>428.9</ele>
        <time>2021-09-09T15:16:09Z</time>
      </trkpt>
      <trkpt lat="44.04752" lon="6.02689">
        <ele>428.7</ele>
        <time>2021-09-09T15:16:11Z</time>
      </trkpt>
      <trkpt lat="44.04757" lon="6.02682">
        <ele>428.6</ele>
        <time>2021-09-09T15:16:12Z</time>
      </trkpt>
      <trkpt lat="44.04769" lon="6.02667">
        <ele>428.4</ele>
        <time>2021-09-09T15:16:14Z</time>
      </trkpt>
      <trkpt lat="44.04779" lon="6.02653">
        <ele>428.1</ele>
        <time>2021-09-09T15:16:16Z</time>
      </trkpt>
      <trkpt lat="44.04784" lon="6.02646">
        <ele>428</ele>
        <time>2021-09-09T15:16:17Z</time>
      </trkpt>
      <trkpt lat="44.04789" lon="6.0264">
        <ele>427.9</ele>
        <time>2021-09-09T15:16:18Z</time>
      </trkpt>
      <trkpt lat="44.04794" lon="6.02633">
        <ele>427.7</ele>
        <time>2021-09-09T15:16:19Z</time>
      </trkpt>
      <trkpt lat="44.04804" lon="6.0262">
        <ele>427.5</ele>
        <time>2021-09-09T15:16:21Z</time>
      </trkpt>
      <trkpt lat="44.04817" lon="6.0261">
        <ele>427.2</ele>
        <time>2021-09-09T15:16:23Z</time>
      </trkpt>
      <trkpt lat="44.04824" lon="6.02605">
        <ele>427.2</ele>
        <time>2021-09-09T15:16:24Z</time>
      </trkpt>
      <trkpt lat="44.04831" lon="6.02601">
        <ele>427.1</ele>
        <time>2021-09-09T15:16:25Z</time>
      </trkpt>
      <trkpt lat="44.04846" lon="6.02592">
        <ele>427</ele>
        <time>2021-09-09T15:16:27Z</time>
      </trkpt>
      <trkpt lat="44.0486" lon="6.02584">
        <ele>426.9</ele>
        <time>2021-09-09T15:16:29Z</time>
      </trkpt>
      <trkpt lat="44.04867" lon="6.0258">
        <ele>426.8</ele>
        <time>2021-09-09T15:16:30Z</time>
      </trkpt>
      <trkpt lat="44.04877" lon="6.02576">
        <ele>426.7</ele>
        <time>2021-09-09T15:16:31Z</time>
      </trkpt>
      <trkpt lat="44.04885" lon="6.02571">
        <ele>426.6</ele>
        <time>2021-09-09T15:16:32Z</time>
      </trkpt>
      <trkpt lat="44.04892" lon="6.02566">
        <ele>426.5</ele>
        <time>2021-09-09T15:16:33Z</time>
      </trkpt>
      <trkpt lat="44.04906" lon="6.02558">
        <ele>426.4</ele>
        <time>2021-09-09T15:16:35Z</time>
      </trkpt>
      <trkpt lat="44.04912" lon="6.02554">
        <ele>426.3</ele>
        <time>2021-09-09T15:16:36Z</time>
      </trkpt>
      <trkpt lat="44.04918" lon="6.0255">
        <ele>426.3</ele>
        <time>2021-09-09T15:16:37Z</time>
      </trkpt>
      <trkpt lat="44.04929" lon="6.02542">
        <ele>426.2</ele>
        <time>2021-09-09T15:16:39Z</time>
      </trkpt>
      <trkpt lat="44.04936" lon="6.02538">
        <ele>426.2</ele>
        <time>2021-09-09T15:16:40Z</time>
      </trkpt>
      <trkpt lat="44.04947" lon="6.0253">
        <ele>426.1</ele>
        <time>2021-09-09T15:16:42Z</time>
      </trkpt>
      <trkpt lat="44.04953" lon="6.02526">
        <ele>426.1</ele>
        <time>2021-09-09T15:16:43Z</time>
      </trkpt>
      <trkpt lat="44.04958" lon="6.02522">
        <ele>426.1</ele>
        <time>2021-09-09T15:16:44Z</time>
      </trkpt>
      <trkpt lat="44.04968" lon="6.02513">
        <ele>426</ele>
        <time>2021-09-09T15:16:46Z</time>
      </trkpt>
      <trkpt lat="44.0498" lon="6.02505">
        <ele>425.9</ele>
        <time>2021-09-09T15:16:48Z</time>
      </trkpt>
      <trkpt lat="44.04992" lon="6.02498">
        <ele>425.8</ele>
        <time>2021-09-09T15:16:50Z</time>
      </trkpt>
      <trkpt lat="44.05005" lon="6.02492">
        <ele>425.8</ele>
        <time>2021-09-09T15:16:52Z</time>
      </trkpt>
      <trkpt lat="44.05011" lon="6.02489">
        <ele>425.8</ele>
        <time>2021-09-09T15:16:53Z</time>
      </trkpt>
      <trkpt lat="44.05023" lon="6.02482">
        <ele>425.8</ele>
        <time>2021-09-09T15:16:55Z</time>
      </trkpt>
      <trkpt lat="44.05037" lon="6.02475">
        <ele>425.8</ele>
        <time>2021-09-09T15:16:57Z</time>
      </trkpt>
      <trkpt lat="44.05049" lon="6.02466">
        <ele>425.7</ele>
        <time>2021-09-09T15:16:59Z</time>
      </trkpt>
      <trkpt lat="44.05062" lon="6.02457">
        <ele>425.7</ele>
        <time>2021-09-09T15:17:01Z</time>
      </trkpt>
      <trkpt lat="44.05076" lon="6.02448">
        <ele>425.7</ele>
        <time>2021-09-09T15:17:03Z</time>
      </trkpt>
      <trkpt lat="44.05082" lon="6.02444">
        <ele>425.6</ele>
        <time>2021-09-09T15:17:04Z</time>
      </trkpt>
      <trkpt lat="44.05088" lon="6.02439">
        <ele>425.6</ele>
        <time>2021-09-09T15:17:05Z</time>
      </trkpt>
      <trkpt lat="44.05099" lon="6.02429">
        <ele>425.5</ele>
        <time>2021-09-09T15:17:07Z</time>
      </trkpt>
      <trkpt lat="44.05104" lon="6.02423">
        <ele>425.5</ele>
        <time>2021-09-09T15:17:08Z</time>
      </trkpt>
      <trkpt lat="44.05109" lon="6.02418">
        <ele>425.5</ele>
        <time>2021-09-09T15:17:09Z</time>
      </trkpt>
      <trkpt lat="44.05119" lon="6.02406">
        <ele>425.5</ele>
        <time>2021-09-09T15:17:11Z</time>
      </trkpt>
      <trkpt lat="44.0513" lon="6.02396">
        <ele>425.4</ele>
        <time>2021-09-09T15:17:13Z</time>
      </trkpt>
      <trkpt lat="44.05135" lon="6.0239">
        <ele>425.4</ele>
        <time>2021-09-09T15:17:14Z</time>
      </trkpt>
      <trkpt lat="44.05145" lon="6.02378">
        <ele>425.5</ele>
        <time>2021-09-09T15:17:16Z</time>
      </trkpt>
      <trkpt lat="44.0515" lon="6.02372">
        <ele>425.5</ele>
        <time>2021-09-09T15:17:17Z</time>
      </trkpt>
      <trkpt lat="44.05154" lon="6.02366">
        <ele>425.5</ele>
        <time>2021-09-09T15:17:18Z</time>
      </trkpt>
      <trkpt lat="44.05161" lon="6.02354">
        <ele>425.5</ele>
        <time>2021-09-09T15:17:20Z</time>
      </trkpt>
      <trkpt lat="44.05169" lon="6.02341">
        <ele>425.5</ele>
        <time>2021-09-09T15:17:22Z</time>
      </trkpt>
      <trkpt lat="44.05173" lon="6.02334">
        <ele>425.5</ele>
        <time>2021-09-09T15:17:23Z</time>
      </trkpt>
      <trkpt lat="44.05177" lon="6.02327">
        <ele>425.6</ele>
        <time>2021-09-09T15:17:24Z</time>
      </trkpt>
      <trkpt lat="44.05185" lon="6.02314">
        <ele>425.7</ele>
        <time>2021-09-09T15:17:26Z</time>
      </trkpt>
      <trkpt lat="44.05192" lon="6.02301">
        <ele>425.8</ele>
        <time>2021-09-09T15:17:28Z</time>
      </trkpt>
      <trkpt lat="44.052" lon="6.02289">
        <ele>426</ele>
        <time>2021-09-09T15:17:30Z</time>
      </trkpt>
      <trkpt lat="44.05207" lon="6.02277">
        <ele>426.2</ele>
        <time>2021-09-09T15:17:32Z</time>
      </trkpt>
      <trkpt lat="44.05215" lon="6.02266">
        <ele>426.4</ele>
        <time>2021-09-09T15:17:34Z</time>
      </trkpt>
      <trkpt lat="44.05224" lon="6.02257">
        <ele>426.7</ele>
        <time>2021-09-09T15:17:36Z</time>
      </trkpt>
      <trkpt lat="44.05228" lon="6.02252">
        <ele>426.8</ele>
        <time>2021-09-09T15:17:37Z</time>
      </trkpt>
      <trkpt lat="44.05233" lon="6.02247">
        <ele>426.9</ele>
        <time>2021-09-09T15:17:38Z</time>
      </trkpt>
      <trkpt lat="44.0524" lon="6.02238">
        <ele>427.2</ele>
        <time>2021-09-09T15:17:40Z</time>
      </trkpt>
      <trkpt lat="44.05247" lon="6.02229">
        <ele>427.5</ele>
        <time>2021-09-09T15:17:42Z</time>
      </trkpt>
      <trkpt lat="44.05249" lon="6.02226">
        <ele>427.6</ele>
        <time>2021-09-09T15:17:43Z</time>
      </trkpt>
      <trkpt lat="44.05253" lon="6.02221">
        <ele>427.8</ele>
        <time>2021-09-09T15:17:44Z</time>
      </trkpt>
      <trkpt lat="44.05257" lon="6.02216">
        <ele>428</ele>
        <time>2021-09-09T15:17:45Z</time>
      </trkpt>
      <trkpt lat="44.05263" lon="6.02207">
        <ele>428.3</ele>
        <time>2021-09-09T15:17:47Z</time>
      </trkpt>
      <trkpt lat="44.05266" lon="6.02203">
        <ele>428.5</ele>
        <time>2021-09-09T15:17:48Z</time>
      </trkpt>
      <trkpt lat="44.05272" lon="6.02196">
        <ele>428.8</ele>
        <time>2021-09-09T15:17:50Z</time>
      </trkpt>
      <trkpt lat="44.05277" lon="6.02189">
        <ele>429.1</ele>
        <time>2021-09-09T15:17:52Z</time>
      </trkpt>
      <trkpt lat="44.05282" lon="6.02184">
        <ele>429.4</ele>
        <time>2021-09-09T15:17:54Z</time>
      </trkpt>
      <trkpt lat="44.05286" lon="6.0218">
        <ele>429.6</ele>
        <time>2021-09-09T15:17:55Z</time>
      </trkpt>
      <trkpt lat="44.05291" lon="6.02175">
        <ele>429.8</ele>
        <time>2021-09-09T15:17:57Z</time>
      </trkpt>
      <trkpt lat="44.05294" lon="6.02171">
        <ele>430</ele>
        <time>2021-09-09T15:17:58Z</time>
      </trkpt>
      <trkpt lat="44.05297" lon="6.02168">
        <ele>430.2</ele>
        <time>2021-09-09T15:17:59Z</time>
      </trkpt>
      <trkpt lat="44.05302" lon="6.02162">
        <ele>430.5</ele>
        <time>2021-09-09T15:18:01Z</time>
      </trkpt>
      <trkpt lat="44.05306" lon="6.02158">
        <ele>430.7</ele>
        <time>2021-09-09T15:18:03Z</time>
      </trkpt>
      <trkpt lat="44.05309" lon="6.02156">
        <ele>430.8</ele>
        <time>2021-09-09T15:18:04Z</time>
      </trkpt>
      <trkpt lat="44.05312" lon="6.02152">
        <ele>431</ele>
        <time>2021-09-09T15:18:05Z</time>
      </trkpt>
      <trkpt lat="44.05316" lon="6.02148">
        <ele>431.2</ele>
        <time>2021-09-09T15:18:07Z</time>
      </trkpt>
      <trkpt lat="44.05319" lon="6.02145">
        <ele>431.4</ele>
        <time>2021-09-09T15:18:08Z</time>
      </trkpt>
      <trkpt lat="44.05323" lon="6.02141">
        <ele>431.6</ele>
        <time>2021-09-09T15:18:10Z</time>
      </trkpt>
      <trkpt lat="44.05326" lon="6.02137">
        <ele>431.8</ele>
        <time>2021-09-09T15:18:11Z</time>
      </trkpt>
      <trkpt lat="44.05328" lon="6.02134">
        <ele>431.9</ele>
        <time>2021-09-09T15:18:13Z</time>
      </trkpt>
      <trkpt lat="44.05331" lon="6.02129">
        <ele>432.1</ele>
        <time>2021-09-09T15:18:14Z</time>
      </trkpt>
      <trkpt lat="44.05334" lon="6.02124">
        <ele>432.3</ele>
        <time>2021-09-09T15:18:16Z</time>
      </trkpt>
      <trkpt lat="44.05336" lon="6.02121">
        <ele>432.5</ele>
        <time>2021-09-09T15:18:17Z</time>
      </trkpt>
      <trkpt lat="44.05338" lon="6.02119">
        <ele>432.6</ele>
        <time>2021-09-09T15:18:18Z</time>
      </trkpt>
      <trkpt lat="44.05341" lon="6.02116">
        <ele>432.7</ele>
        <time>2021-09-09T15:18:20Z</time>
      </trkpt>
      <trkpt lat="44.05343" lon="6.02113">
        <ele>432.9</ele>
        <time>2021-09-09T15:18:21Z</time>
      </trkpt>
      <trkpt lat="44.05346" lon="6.0211">
        <ele>433</ele>
        <time>2021-09-09T15:18:23Z</time>
      </trkpt>
      <trkpt lat="44.05349" lon="6.02106">
        <ele>433.2</ele>
        <time>2021-09-09T15:18:24Z</time>
      </trkpt>
      <trkpt lat="44.0535" lon="6.02104">
        <ele>433.3</ele>
        <time>2021-09-09T15:18:25Z</time>
      </trkpt>
      <trkpt lat="44.05355" lon="6.021">
        <ele>433.5</ele>
        <time>2021-09-09T15:18:27Z</time>
      </trkpt>
      <trkpt lat="44.05357" lon="6.02098">
        <ele>433.6</ele>
        <time>2021-09-09T15:18:29Z</time>
      </trkpt>
      <trkpt lat="44.0536" lon="6.02094">
        <ele>433.8</ele>
        <time>2021-09-09T15:18:30Z</time>
      </trkpt>
      <trkpt lat="44.05362" lon="6.02091">
        <ele>433.9</ele>
        <time>2021-09-09T15:18:32Z</time>
      </trkpt>
      <trkpt lat="44.05365" lon="6.02087">
        <ele>434.1</ele>
        <time>2021-09-09T15:18:33Z</time>
      </trkpt>
      <trkpt lat="44.05369" lon="6.02085">
        <ele>434.3</ele>
        <time>2021-09-09T15:18:35Z</time>
      </trkpt>
      <trkpt lat="44.05372" lon="6.02083">
        <ele>434.4</ele>
        <time>2021-09-09T15:18:36Z</time>
      </trkpt>
      <trkpt lat="44.05375" lon="6.02079">
        <ele>434.6</ele>
        <time>2021-09-09T15:18:38Z</time>
      </trkpt>
      <trkpt lat="44.05379" lon="6.02075">
        <ele>434.8</ele>
        <time>2021-09-09T15:18:39Z</time>
      </trkpt>
      <trkpt lat="44.0538" lon="6.02073">
        <ele>434.9</ele>
        <time>2021-09-09T15:18:40Z</time>
      </trkpt>
      <trkpt lat="44.05382" lon="6.02071">
        <ele>435</ele>
        <time>2021-09-09T15:18:41Z</time>
      </trkpt>
      <trkpt lat="44.05386" lon="6.02068">
        <ele>435.1</ele>
        <time>2021-09-09T15:18:43Z</time>
      </trkpt>
      <trkpt lat="44.05389" lon="6.02065">
        <ele>435.2</ele>
        <time>2021-09-09T15:18:44Z</time>
      </trkpt>
      <trkpt lat="44.05392" lon="6.02061">
        <ele>435.4</ele>
        <time>2021-09-09T15:18:46Z</time>
      </trkpt>
      <trkpt lat="44.05394" lon="6.02059">
        <ele>435.4</ele>
        <time>2021-09-09T15:18:47Z</time>
      </trkpt>
      <trkpt lat="44.05397" lon="6.02055">
        <ele>435.5</ele>
        <time>2021-09-09T15:18:49Z</time>
      </trkpt>
      <trkpt lat="44.054" lon="6.02053">
        <ele>435.6</ele>
        <time>2021-09-09T15:18:50Z</time>
      </trkpt>
      <trkpt lat="44.05404" lon="6.02048">
        <ele>435.8</ele>
        <time>2021-09-09T15:18:52Z</time>
      </trkpt>
      <trkpt lat="44.05406" lon="6.02046">
        <ele>435.8</ele>
        <time>2021-09-09T15:18:53Z</time>
      </trkpt>
      <trkpt lat="44.05407" lon="6.02045">
        <ele>435.9</ele>
        <time>2021-09-09T15:18:54Z</time>
      </trkpt>
      <trkpt lat="44.05412" lon="6.02041">
        <ele>436</ele>
        <time>2021-09-09T15:18:56Z</time>
      </trkpt>
      <trkpt lat="44.05415" lon="6.02039">
        <ele>436.1</ele>
        <time>2021-09-09T15:18:57Z</time>
      </trkpt>
      <trkpt lat="44.05417" lon="6.02038">
        <ele>436.1</ele>
        <time>2021-09-09T15:18:59Z</time>
      </trkpt>
      <trkpt lat="44.0542" lon="6.02035">
        <ele>436.2</ele>
        <time>2021-09-09T15:19:00Z</time>
      </trkpt>
      <trkpt lat="44.05423" lon="6.02031">
        <ele>436.2</ele>
        <time>2021-09-09T15:19:02Z</time>
      </trkpt>
      <trkpt lat="44.05426" lon="6.02028">
        <ele>436.3</ele>
        <time>2021-09-09T15:19:03Z</time>
      </trkpt>
      <trkpt lat="44.05428" lon="6.02026">
        <ele>436.3</ele>
        <time>2021-09-09T15:19:05Z</time>
      </trkpt>
      <trkpt lat="44.05431" lon="6.02023">
        <ele>436.3</ele>
        <time>2021-09-09T15:19:06Z</time>
      </trkpt>
      <trkpt lat="44.05433" lon="6.02021">
        <ele>436.3</ele>
        <time>2021-09-09T15:19:07Z</time>
      </trkpt>
      <trkpt lat="44.05437" lon="6.02016">
        <ele>436.4</ele>
        <time>2021-09-09T15:19:09Z</time>
      </trkpt>
      <trkpt lat="44.05442" lon="6.02014">
        <ele>436.4</ele>
        <time>2021-09-09T15:19:11Z</time>
      </trkpt>
      <trkpt lat="44.05445" lon="6.02011">
        <ele>436.4</ele>
        <time>2021-09-09T15:19:12Z</time>
      </trkpt>
      <trkpt lat="44.05448" lon="6.02009">
        <ele>436.4</ele>
        <time>2021-09-09T15:19:13Z</time>
      </trkpt>
      <trkpt lat="44.05453" lon="6.02005">
        <ele>436.5</ele>
        <time>2021-09-09T15:19:15Z</time>
      </trkpt>
      <trkpt lat="44.05459" lon="6.02001">
        <ele>436.5</ele>
        <time>2021-09-09T15:19:17Z</time>
      </trkpt>
      <trkpt lat="44.05463" lon="6.01998">
        <ele>436.5</ele>
        <time>2021-09-09T15:19:18Z</time>
      </trkpt>
      <trkpt lat="44.05468" lon="6.01995">
        <ele>436.5</ele>
        <time>2021-09-09T15:19:20Z</time>
      </trkpt>
      <trkpt lat="44.05473" lon="6.01993">
        <ele>436.5</ele>
        <time>2021-09-09T15:19:21Z</time>
      </trkpt>
      <trkpt lat="44.05478" lon="6.0199">
        <ele>436.5</ele>
        <time>2021-09-09T15:19:22Z</time>
      </trkpt>
      <trkpt lat="44.05484" lon="6.01988">
        <ele>436.4</ele>
        <time>2021-09-09T15:19:23Z</time>
      </trkpt>
      <trkpt lat="44.05493" lon="6.01984">
        <ele>436.3</ele>
        <time>2021-09-09T15:19:25Z</time>
      </trkpt>
      <trkpt lat="44.05498" lon="6.01982">
        <ele>436.2</ele>
        <time>2021-09-09T15:19:26Z</time>
      </trkpt>
      <trkpt lat="44.05509" lon="6.01976">
        <ele>436</ele>
        <time>2021-09-09T15:19:28Z</time>
      </trkpt>
      <trkpt lat="44.05519" lon="6.01972">
        <ele>435.7</ele>
        <time>2021-09-09T15:19:30Z</time>
      </trkpt>
      <trkpt lat="44.05531" lon="6.01967">
        <ele>435.4</ele>
        <time>2021-09-09T15:19:32Z</time>
      </trkpt>
      <trkpt lat="44.05541" lon="6.01963">
        <ele>435</ele>
        <time>2021-09-09T15:19:34Z</time>
      </trkpt>
      <trkpt lat="44.05547" lon="6.01961">
        <ele>434.8</ele>
        <time>2021-09-09T15:19:35Z</time>
      </trkpt>
      <trkpt lat="44.05557" lon="6.01958">
        <ele>434.5</ele>
        <time>2021-09-09T15:19:37Z</time>
      </trkpt>
      <trkpt lat="44.05562" lon="6.01957">
        <ele>434.3</ele>
        <time>2021-09-09T15:19:38Z</time>
      </trkpt>
      <trkpt lat="44.05572" lon="6.01955">
        <ele>434</ele>
        <time>2021-09-09T15:19:40Z</time>
      </trkpt>
      <trkpt lat="44.05583" lon="6.01953">
        <ele>433.7</ele>
        <time>2021-09-09T15:19:42Z</time>
      </trkpt>
      <trkpt lat="44.05588" lon="6.01952">
        <ele>433.5</ele>
        <time>2021-09-09T15:19:43Z</time>
      </trkpt>
      <trkpt lat="44.05594" lon="6.01952">
        <ele>433.3</ele>
        <time>2021-09-09T15:19:44Z</time>
      </trkpt>
      <trkpt lat="44.056" lon="6.01951">
        <ele>433.1</ele>
        <time>2021-09-09T15:19:45Z</time>
      </trkpt>
      <trkpt lat="44.05612" lon="6.0195">
        <ele>432.7</ele>
        <time>2021-09-09T15:19:47Z</time>
      </trkpt>
      <trkpt lat="44.05624" lon="6.0195">
        <ele>432.2</ele>
        <time>2021-09-09T15:19:49Z</time>
      </trkpt>
      <trkpt lat="44.05629" lon="6.01949">
        <ele>432</ele>
        <time>2021-09-09T15:19:50Z</time>
      </trkpt>
      <trkpt lat="44.05634" lon="6.01949">
        <ele>431.9</ele>
        <time>2021-09-09T15:19:51Z</time>
      </trkpt>
      <trkpt lat="44.0564" lon="6.01947">
        <ele>431.6</ele>
        <time>2021-09-09T15:19:53Z</time>
      </trkpt>
      <trkpt lat="44.0565" lon="6.01945">
        <ele>431.3</ele>
        <time>2021-09-09T15:19:55Z</time>
      </trkpt>
      <trkpt lat="44.05656" lon="6.01945">
        <ele>431.2</ele>
        <time>2021-09-09T15:19:56Z</time>
      </trkpt>
      <trkpt lat="44.05669" lon="6.01947">
        <ele>430.8</ele>
        <time>2021-09-09T15:19:58Z</time>
      </trkpt>
      <trkpt lat="44.05676" lon="6.01948">
        <ele>430.7</ele>
        <time>2021-09-09T15:19:59Z</time>
      </trkpt>
      <trkpt lat="44.05684" lon="6.0195">
        <ele>430.5</ele>
        <time>2021-09-09T15:20:00Z</time>
      </trkpt>
      <trkpt lat="44.05691" lon="6.01951">
        <ele>430.2</ele>
        <time>2021-09-09T15:20:01Z</time>
      </trkpt>
      <trkpt lat="44.05699" lon="6.01953">
        <ele>430.1</ele>
        <time>2021-09-09T15:20:02Z</time>
      </trkpt>
      <trkpt lat="44.05714" lon="6.01959">
        <ele>429.7</ele>
        <time>2021-09-09T15:20:04Z</time>
      </trkpt>
      <trkpt lat="44.0573" lon="6.01964">
        <ele>429.3</ele>
        <time>2021-09-09T15:20:06Z</time>
      </trkpt>
      <trkpt lat="44.05738" lon="6.01966">
        <ele>429.1</ele>
        <time>2021-09-09T15:20:07Z</time>
      </trkpt>
      <trkpt lat="44.05754" lon="6.0197">
        <ele>429</ele>
        <time>2021-09-09T15:20:09Z</time>
      </trkpt>
      <trkpt lat="44.05762" lon="6.01972">
        <ele>428.9</ele>
        <time>2021-09-09T15:20:10Z</time>
      </trkpt>
      <trkpt lat="44.0577" lon="6.01976">
        <ele>428.8</ele>
        <time>2021-09-09T15:20:11Z</time>
      </trkpt>
      <trkpt lat="44.05786" lon="6.0198">
        <ele>428.8</ele>
        <time>2021-09-09T15:20:13Z</time>
      </trkpt>
      <trkpt lat="44.05795" lon="6.01982">
        <ele>428.7</ele>
        <time>2021-09-09T15:20:14Z</time>
      </trkpt>
      <trkpt lat="44.05812" lon="6.01986">
        <ele>428.7</ele>
        <time>2021-09-09T15:20:16Z</time>
      </trkpt>
      <trkpt lat="44.05826" lon="6.01991">
        <ele>428.7</ele>
        <time>2021-09-09T15:20:18Z</time>
      </trkpt>
      <trkpt lat="44.05833" lon="6.01995">
        <ele>428.7</ele>
        <time>2021-09-09T15:20:19Z</time>
      </trkpt>
      <trkpt lat="44.05845" lon="6.02">
        <ele>428.7</ele>
        <time>2021-09-09T15:20:21Z</time>
      </trkpt>
      <trkpt lat="44.05851" lon="6.02001">
        <ele>428.7</ele>
        <time>2021-09-09T15:20:22Z</time>
      </trkpt>
      <trkpt lat="44.05856" lon="6.02002">
        <ele>428.7</ele>
        <time>2021-09-09T15:20:23Z</time>
      </trkpt>
      <trkpt lat="44.05867" lon="6.02006">
        <ele>428.7</ele>
        <time>2021-09-09T15:20:25Z</time>
      </trkpt>
      <trkpt lat="44.05878" lon="6.02012">
        <ele>428.6</ele>
        <time>2021-09-09T15:20:27Z</time>
      </trkpt>
      <trkpt lat="44.05886" lon="6.02018">
        <ele>428.6</ele>
        <time>2021-09-09T15:20:29Z</time>
      </trkpt>
      <trkpt lat="44.0589" lon="6.0202">
        <ele>428.6</ele>
        <time>2021-09-09T15:20:30Z</time>
      </trkpt>
      <trkpt lat="44.05894" lon="6.02021">
        <ele>428.6</ele>
        <time>2021-09-09T15:20:31Z</time>
      </trkpt>
      <trkpt lat="44.05899" lon="6.02023">
        <ele>428.6</ele>
        <time>2021-09-09T15:20:32Z</time>
      </trkpt>
      <trkpt lat="44.05904" lon="6.02024">
        <ele>428.6</ele>
        <time>2021-09-09T15:20:33Z</time>
      </trkpt>
      <trkpt lat="44.05914" lon="6.02027">
        <ele>428.6</ele>
        <time>2021-09-09T15:20:35Z</time>
      </trkpt>
      <trkpt lat="44.05923" lon="6.0203">
        <ele>428.6</ele>
        <time>2021-09-09T15:20:37Z</time>
      </trkpt>
      <trkpt lat="44.05928" lon="6.02032">
        <ele>428.6</ele>
        <time>2021-09-09T15:20:38Z</time>
      </trkpt>
      <trkpt lat="44.05936" lon="6.02038">
        <ele>428.6</ele>
        <time>2021-09-09T15:20:40Z</time>
      </trkpt>
      <trkpt lat="44.0594" lon="6.02042">
        <ele>428.6</ele>
        <time>2021-09-09T15:20:41Z</time>
      </trkpt>
      <trkpt lat="44.05945" lon="6.02046">
        <ele>428.6</ele>
        <time>2021-09-09T15:20:42Z</time>
      </trkpt>
      <trkpt lat="44.05949" lon="6.02049">
        <ele>428.6</ele>
        <time>2021-09-09T15:20:43Z</time>
      </trkpt>
      <trkpt lat="44.05953" lon="6.02052">
        <ele>428.6</ele>
        <time>2021-09-09T15:20:44Z</time>
      </trkpt>
      <trkpt lat="44.05957" lon="6.02055">
        <ele>428.6</ele>
        <time>2021-09-09T15:20:45Z</time>
      </trkpt>
      <trkpt lat="44.05965" lon="6.02063">
        <ele>428.6</ele>
        <time>2021-09-09T15:20:47Z</time>
      </trkpt>
      <trkpt lat="44.05969" lon="6.02066">
        <ele>428.6</ele>
        <time>2021-09-09T15:20:48Z</time>
      </trkpt>
      <trkpt lat="44.05977" lon="6.02072">
        <ele>428.5</ele>
        <time>2021-09-09T15:20:50Z</time>
      </trkpt>
      <trkpt lat="44.05987" lon="6.02076">
        <ele>428.5</ele>
        <time>2021-09-09T15:20:52Z</time>
      </trkpt>
      <trkpt lat="44.05992" lon="6.02079">
        <ele>428.5</ele>
        <time>2021-09-09T15:20:53Z</time>
      </trkpt>
      <trkpt lat="44.06" lon="6.02084">
        <ele>428.5</ele>
        <time>2021-09-09T15:20:55Z</time>
      </trkpt>
      <trkpt lat="44.06009" lon="6.02089">
        <ele>428.5</ele>
        <time>2021-09-09T15:20:57Z</time>
      </trkpt>
      <trkpt lat="44.06013" lon="6.02091">
        <ele>428.6</ele>
        <time>2021-09-09T15:20:58Z</time>
      </trkpt>
      <trkpt lat="44.06018" lon="6.02092">
        <ele>428.6</ele>
        <time>2021-09-09T15:20:59Z</time>
      </trkpt>
      <trkpt lat="44.06026" lon="6.02095">
        <ele>428.6</ele>
        <time>2021-09-09T15:21:01Z</time>
      </trkpt>
      <trkpt lat="44.06031" lon="6.02097">
        <ele>428.6</ele>
        <time>2021-09-09T15:21:02Z</time>
      </trkpt>
      <trkpt lat="44.06036" lon="6.02099">
        <ele>428.6</ele>
        <time>2021-09-09T15:21:03Z</time>
      </trkpt>
      <trkpt lat="44.06046" lon="6.021">
        <ele>428.7</ele>
        <time>2021-09-09T15:21:05Z</time>
      </trkpt>
      <trkpt lat="44.06056" lon="6.021">
        <ele>428.7</ele>
        <time>2021-09-09T15:21:07Z</time>
      </trkpt>
      <trkpt lat="44.0606" lon="6.02101">
        <ele>428.7</ele>
        <time>2021-09-09T15:21:08Z</time>
      </trkpt>
      <trkpt lat="44.06064" lon="6.02103">
        <ele>428.7</ele>
        <time>2021-09-09T15:21:09Z</time>
      </trkpt>
      <trkpt lat="44.06073" lon="6.02106">
        <ele>428.7</ele>
        <time>2021-09-09T15:21:11Z</time>
      </trkpt>
      <trkpt lat="44.06081" lon="6.02109">
        <ele>428.7</ele>
        <time>2021-09-09T15:21:13Z</time>
      </trkpt>
      <trkpt lat="44.06085" lon="6.0211">
        <ele>428.7</ele>
        <time>2021-09-09T15:21:14Z</time>
      </trkpt>
      <trkpt lat="44.06094" lon="6.02108">
        <ele>428.7</ele>
        <time>2021-09-09T15:21:16Z</time>
      </trkpt>
      <trkpt lat="44.06097" lon="6.02107">
        <ele>428.7</ele>
        <time>2021-09-09T15:21:18Z</time>
      </trkpt>
      <trkpt lat="44.061" lon="6.02111">
        <ele>428.7</ele>
        <time>2021-09-09T15:21:19Z</time>
      </trkpt>
      <trkpt lat="44.06108" lon="6.02108">
        <ele>428.7</ele>
        <time>2021-09-09T15:21:20Z</time>
      </trkpt>
      <trkpt lat="44.06117" lon="6.02106">
        <ele>428.7</ele>
        <time>2021-09-09T15:21:21Z</time>
      </trkpt>
      <trkpt lat="44.06123" lon="6.02106">
        <ele>428.7</ele>
        <time>2021-09-09T15:21:22Z</time>
      </trkpt>
      <trkpt lat="44.06128" lon="6.02106">
        <ele>428.7</ele>
        <time>2021-09-09T15:21:23Z</time>
      </trkpt>
      <trkpt lat="44.06133" lon="6.02105">
        <ele>428.7</ele>
        <time>2021-09-09T15:21:25Z</time>
      </trkpt>
      <trkpt lat="44.0614" lon="6.02104">
        <ele>428.7</ele>
        <time>2021-09-09T15:21:26Z</time>
      </trkpt>
      <trkpt lat="44.06148" lon="6.02103">
        <ele>428.7</ele>
        <time>2021-09-09T15:21:28Z</time>
      </trkpt>
      <trkpt lat="44.06155" lon="6.02105">
        <ele>428.7</ele>
        <time>2021-09-09T15:21:29Z</time>
      </trkpt>
      <trkpt lat="44.06161" lon="6.02105">
        <ele>428.7</ele>
        <time>2021-09-09T15:21:30Z</time>
      </trkpt>
      <trkpt lat="44.06166" lon="6.02106">
        <ele>428.7</ele>
        <time>2021-09-09T15:21:31Z</time>
      </trkpt>
      <trkpt lat="44.06175" lon="6.02106">
        <ele>428.7</ele>
        <time>2021-09-09T15:21:33Z</time>
      </trkpt>
      <trkpt lat="44.06184" lon="6.02108">
        <ele>428.7</ele>
        <time>2021-09-09T15:21:35Z</time>
      </trkpt>
      <trkpt lat="44.06194" lon="6.02111">
        <ele>428.8</ele>
        <time>2021-09-09T15:21:37Z</time>
      </trkpt>
      <trkpt lat="44.06206" lon="6.02113">
        <ele>428.8</ele>
        <time>2021-09-09T15:21:39Z</time>
      </trkpt>
      <trkpt lat="44.06218" lon="6.02114">
        <ele>428.8</ele>
        <time>2021-09-09T15:21:41Z</time>
      </trkpt>
      <trkpt lat="44.06232" lon="6.0211">
        <ele>428.9</ele>
        <time>2021-09-09T15:21:43Z</time>
      </trkpt>
      <trkpt lat="44.06241" lon="6.0211">
        <ele>428.9</ele>
        <time>2021-09-09T15:21:45Z</time>
      </trkpt>
      <trkpt lat="44.06247" lon="6.0211">
        <ele>429</ele>
        <time>2021-09-09T15:21:46Z</time>
      </trkpt>
      <trkpt lat="44.06252" lon="6.0211">
        <ele>429</ele>
        <time>2021-09-09T15:21:47Z</time>
      </trkpt>
      <trkpt lat="44.06257" lon="6.02109">
        <ele>429</ele>
        <time>2021-09-09T15:21:48Z</time>
      </trkpt>
      <trkpt lat="44.06261" lon="6.02109">
        <ele>429.1</ele>
        <time>2021-09-09T15:21:49Z</time>
      </trkpt>
      <trkpt lat="44.06267" lon="6.02108">
        <ele>429.1</ele>
        <time>2021-09-09T15:21:50Z</time>
      </trkpt>
      <trkpt lat="44.06276" lon="6.0211">
        <ele>429.2</ele>
        <time>2021-09-09T15:21:52Z</time>
      </trkpt>
      <trkpt lat="44.06282" lon="6.0211">
        <ele>429.2</ele>
        <time>2021-09-09T15:21:53Z</time>
      </trkpt>
      <trkpt lat="44.06289" lon="6.02111">
        <ele>429.2</ele>
        <time>2021-09-09T15:21:54Z</time>
      </trkpt>
      <trkpt lat="44.06294" lon="6.02111">
        <ele>429.2</ele>
        <time>2021-09-09T15:21:55Z</time>
      </trkpt>
      <trkpt lat="44.06302" lon="6.02115">
        <ele>429.3</ele>
        <time>2021-09-09T15:21:57Z</time>
      </trkpt>
      <trkpt lat="44.06308" lon="6.02118">
        <ele>429.3</ele>
        <time>2021-09-09T15:21:59Z</time>
      </trkpt>
      <trkpt lat="44.06312" lon="6.0212">
        <ele>429.4</ele>
        <time>2021-09-09T15:22:00Z</time>
      </trkpt>
      <trkpt lat="44.06317" lon="6.02121">
        <ele>429.4</ele>
        <time>2021-09-09T15:22:01Z</time>
      </trkpt>
      <trkpt lat="44.06324" lon="6.02126">
        <ele>429.4</ele>
        <time>2021-09-09T15:22:03Z</time>
      </trkpt>
      <trkpt lat="44.06331" lon="6.02126">
        <ele>429.5</ele>
        <time>2021-09-09T15:22:04Z</time>
      </trkpt>
      <trkpt lat="44.06336" lon="6.02125">
        <ele>429.5</ele>
        <time>2021-09-09T15:22:05Z</time>
      </trkpt>
      <trkpt lat="44.06346" lon="6.02125">
        <ele>429.6</ele>
        <time>2021-09-09T15:22:07Z</time>
      </trkpt>
      <trkpt lat="44.06351" lon="6.02126">
        <ele>429.7</ele>
        <time>2021-09-09T15:22:08Z</time>
      </trkpt>
      <trkpt lat="44.06361" lon="6.02126">
        <ele>429.8</ele>
        <time>2021-09-09T15:22:10Z</time>
      </trkpt>
      <trkpt lat="44.06364" lon="6.02126">
        <ele>429.8</ele>
        <time>2021-09-09T15:22:11Z</time>
      </trkpt>
      <trkpt lat="44.06372" lon="6.02124">
        <ele>429.9</ele>
        <time>2021-09-09T15:22:13Z</time>
      </trkpt>
      <trkpt lat="44.06376" lon="6.02123">
        <ele>429.9</ele>
        <time>2021-09-09T15:22:14Z</time>
      </trkpt>
      <trkpt lat="44.06379" lon="6.0212">
        <ele>429.9</ele>
        <time>2021-09-09T15:22:16Z</time>
      </trkpt>
      <trkpt lat="44.06387" lon="6.0212">
        <ele>430</ele>
        <time>2021-09-09T15:22:18Z</time>
      </trkpt>
      <trkpt lat="44.06397" lon="6.02121">
        <ele>430</ele>
        <time>2021-09-09T15:22:19Z</time>
      </trkpt>
      <trkpt lat="44.06401" lon="6.02122">
        <ele>430.1</ele>
        <time>2021-09-09T15:22:20Z</time>
      </trkpt>
      <trkpt lat="44.06407" lon="6.02122">
        <ele>430.1</ele>
        <time>2021-09-09T15:22:21Z</time>
      </trkpt>
      <trkpt lat="44.06415" lon="6.02124">
        <ele>430.2</ele>
        <time>2021-09-09T15:22:23Z</time>
      </trkpt>
      <trkpt lat="44.0642" lon="6.02124">
        <ele>430.2</ele>
        <time>2021-09-09T15:22:25Z</time>
      </trkpt>
      <trkpt lat="44.06426" lon="6.02125">
        <ele>430.2</ele>
        <time>2021-09-09T15:22:26Z</time>
      </trkpt>
      <trkpt lat="44.06432" lon="6.02126">
        <ele>430.2</ele>
        <time>2021-09-09T15:22:28Z</time>
      </trkpt>
      <trkpt lat="44.06442" lon="6.02127">
        <ele>430.3</ele>
        <time>2021-09-09T15:22:29Z</time>
      </trkpt>
      <trkpt lat="44.06447" lon="6.02127">
        <ele>430.3</ele>
        <time>2021-09-09T15:22:30Z</time>
      </trkpt>
      <trkpt lat="44.06453" lon="6.02128">
        <ele>430.3</ele>
        <time>2021-09-09T15:22:31Z</time>
      </trkpt>
      <trkpt lat="44.06459" lon="6.02129">
        <ele>430.4</ele>
        <time>2021-09-09T15:22:32Z</time>
      </trkpt>
      <trkpt lat="44.0647" lon="6.02131">
        <ele>430.4</ele>
        <time>2021-09-09T15:22:34Z</time>
      </trkpt>
      <trkpt lat="44.06476" lon="6.02133">
        <ele>430.4</ele>
        <time>2021-09-09T15:22:35Z</time>
      </trkpt>
      <trkpt lat="44.06486" lon="6.02136">
        <ele>430.5</ele>
        <time>2021-09-09T15:22:37Z</time>
      </trkpt>
      <trkpt lat="44.06491" lon="6.02137">
        <ele>430.5</ele>
        <time>2021-09-09T15:22:38Z</time>
      </trkpt>
      <trkpt lat="44.06495" lon="6.02138">
        <ele>430.5</ele>
        <time>2021-09-09T15:22:39Z</time>
      </trkpt>
      <trkpt lat="44.06501" lon="6.02138">
        <ele>430.5</ele>
        <time>2021-09-09T15:22:41Z</time>
      </trkpt>
      <trkpt lat="44.06506" lon="6.02139">
        <ele>430.6</ele>
        <time>2021-09-09T15:22:42Z</time>
      </trkpt>
      <trkpt lat="44.0651" lon="6.02141">
        <ele>430.6</ele>
        <time>2021-09-09T15:22:43Z</time>
      </trkpt>
      <trkpt lat="44.06517" lon="6.02144">
        <ele>430.6</ele>
        <time>2021-09-09T15:22:45Z</time>
      </trkpt>
      <trkpt lat="44.06523" lon="6.02147">
        <ele>430.6</ele>
        <time>2021-09-09T15:22:46Z</time>
      </trkpt>
      <trkpt lat="44.06527" lon="6.02148">
        <ele>430.7</ele>
        <time>2021-09-09T15:22:47Z</time>
      </trkpt>
      <trkpt lat="44.06534" lon="6.02149">
        <ele>430.7</ele>
        <time>2021-09-09T15:22:49Z</time>
      </trkpt>
      <trkpt lat="44.06538" lon="6.02149">
        <ele>430.7</ele>
        <time>2021-09-09T15:22:50Z</time>
      </trkpt>
      <trkpt lat="44.06543" lon="6.02149">
        <ele>430.7</ele>
        <time>2021-09-09T15:22:51Z</time>
      </trkpt>
      <trkpt lat="44.06547" lon="6.02149">
        <ele>430.8</ele>
        <time>2021-09-09T15:22:52Z</time>
      </trkpt>
      <trkpt lat="44.06554" lon="6.02152">
        <ele>430.8</ele>
        <time>2021-09-09T15:22:54Z</time>
      </trkpt>
      <trkpt lat="44.06561" lon="6.02154">
        <ele>430.8</ele>
        <time>2021-09-09T15:22:56Z</time>
      </trkpt>
      <trkpt lat="44.06566" lon="6.02155">
        <ele>430.8</ele>
        <time>2021-09-09T15:22:57Z</time>
      </trkpt>
      <trkpt lat="44.0657" lon="6.02156">
        <ele>430.9</ele>
        <time>2021-09-09T15:22:58Z</time>
      </trkpt>
      <trkpt lat="44.06577" lon="6.02157">
        <ele>430.9</ele>
        <time>2021-09-09T15:23:00Z</time>
      </trkpt>
      <trkpt lat="44.06584" lon="6.02158">
        <ele>431</ele>
        <time>2021-09-09T15:23:02Z</time>
      </trkpt>
      <trkpt lat="44.0659" lon="6.02159">
        <ele>431</ele>
        <time>2021-09-09T15:23:03Z</time>
      </trkpt>
      <trkpt lat="44.06594" lon="6.0216">
        <ele>431.1</ele>
        <time>2021-09-09T15:23:04Z</time>
      </trkpt>
      <trkpt lat="44.06603" lon="6.0216">
        <ele>431.1</ele>
        <time>2021-09-09T15:23:06Z</time>
      </trkpt>
      <trkpt lat="44.06613" lon="6.02163">
        <ele>431.2</ele>
        <time>2021-09-09T15:23:08Z</time>
      </trkpt>
      <trkpt lat="44.06618" lon="6.02164">
        <ele>431.3</ele>
        <time>2021-09-09T15:23:09Z</time>
      </trkpt>
      <trkpt lat="44.06622" lon="6.02165">
        <ele>431.3</ele>
        <time>2021-09-09T15:23:10Z</time>
      </trkpt>
      <trkpt lat="44.06627" lon="6.02166">
        <ele>431.4</ele>
        <time>2021-09-09T15:23:11Z</time>
      </trkpt>
      <trkpt lat="44.0664" lon="6.02169">
        <ele>431.5</ele>
        <time>2021-09-09T15:23:13Z</time>
      </trkpt>
      <trkpt lat="44.06645" lon="6.02169">
        <ele>431.5</ele>
        <time>2021-09-09T15:23:14Z</time>
      </trkpt>
      <trkpt lat="44.06649" lon="6.02168">
        <ele>431.5</ele>
        <time>2021-09-09T15:23:15Z</time>
      </trkpt>
      <trkpt lat="44.06654" lon="6.02167">
        <ele>431.5</ele>
        <time>2021-09-09T15:23:17Z</time>
      </trkpt>
      <trkpt lat="44.0666" lon="6.02166">
        <ele>431.6</ele>
        <time>2021-09-09T15:23:18Z</time>
      </trkpt>
      <trkpt lat="44.06665" lon="6.02165">
        <ele>431.6</ele>
        <time>2021-09-09T15:23:19Z</time>
      </trkpt>
      <trkpt lat="44.0667" lon="6.02166">
        <ele>431.6</ele>
        <time>2021-09-09T15:23:20Z</time>
      </trkpt>
      <trkpt lat="44.06677" lon="6.02167">
        <ele>431.7</ele>
        <time>2021-09-09T15:23:22Z</time>
      </trkpt>
      <trkpt lat="44.0668" lon="6.0217">
        <ele>431.7</ele>
        <time>2021-09-09T15:23:23Z</time>
      </trkpt>
      <trkpt lat="44.06687" lon="6.02169">
        <ele>431.7</ele>
        <time>2021-09-09T15:23:24Z</time>
      </trkpt>
      <trkpt lat="44.06694" lon="6.02169">
        <ele>431.7</ele>
        <time>2021-09-09T15:23:26Z</time>
      </trkpt>
      <trkpt lat="44.06704" lon="6.02172">
        <ele>431.7</ele>
        <time>2021-09-09T15:23:28Z</time>
      </trkpt>
      <trkpt lat="44.06712" lon="6.02172">
        <ele>431.8</ele>
        <time>2021-09-09T15:23:30Z</time>
      </trkpt>
      <trkpt lat="44.06717" lon="6.02173">
        <ele>431.8</ele>
        <time>2021-09-09T15:23:31Z</time>
      </trkpt>
      <trkpt lat="44.06722" lon="6.02177">
        <ele>431.8</ele>
        <time>2021-09-09T15:23:32Z</time>
      </trkpt>
      <trkpt lat="44.06731" lon="6.02179">
        <ele>431.9</ele>
        <time>2021-09-09T15:23:34Z</time>
      </trkpt>
      <trkpt lat="44.06734" lon="6.02184">
        <ele>431.9</ele>
        <time>2021-09-09T15:23:36Z</time>
      </trkpt>
      <trkpt lat="44.06739" lon="6.02185">
        <ele>432</ele>
        <time>2021-09-09T15:23:37Z</time>
      </trkpt>
      <trkpt lat="44.06743" lon="6.02187">
        <ele>432</ele>
        <time>2021-09-09T15:23:38Z</time>
      </trkpt>
      <trkpt lat="44.06751" lon="6.02192">
        <ele>432</ele>
        <time>2021-09-09T15:23:40Z</time>
      </trkpt>
      <trkpt lat="44.06765" lon="6.02196">
        <ele>432.1</ele>
        <time>2021-09-09T15:23:42Z</time>
      </trkpt>
      <trkpt lat="44.06769" lon="6.02197">
        <ele>432.2</ele>
        <time>2021-09-09T15:23:43Z</time>
      </trkpt>
      <trkpt lat="44.06772" lon="6.02201">
        <ele>432.2</ele>
        <time>2021-09-09T15:23:45Z</time>
      </trkpt>
      <trkpt lat="44.06779" lon="6.02204">
        <ele>432.2</ele>
        <time>2021-09-09T15:23:46Z</time>
      </trkpt>
      <trkpt lat="44.06784" lon="6.02205">
        <ele>432.2</ele>
        <time>2021-09-09T15:23:47Z</time>
      </trkpt>
      <trkpt lat="44.06792" lon="6.02205">
        <ele>432.3</ele>
        <time>2021-09-09T15:23:49Z</time>
      </trkpt>
      <trkpt lat="44.06799" lon="6.02204">
        <ele>432.3</ele>
        <time>2021-09-09T15:23:50Z</time>
      </trkpt>
      <trkpt lat="44.06804" lon="6.02204">
        <ele>432.3</ele>
        <time>2021-09-09T15:23:51Z</time>
      </trkpt>
      <trkpt lat="44.06812" lon="6.02204">
        <ele>432.4</ele>
        <time>2021-09-09T15:23:53Z</time>
      </trkpt>
      <trkpt lat="44.0682" lon="6.02202">
        <ele>432.4</ele>
        <time>2021-09-09T15:23:55Z</time>
      </trkpt>
      <trkpt lat="44.06823" lon="6.02202">
        <ele>432.4</ele>
        <time>2021-09-09T15:23:56Z</time>
      </trkpt>
      <trkpt lat="44.06828" lon="6.02202">
        <ele>432.5</ele>
        <time>2021-09-09T15:23:57Z</time>
      </trkpt>
      <trkpt lat="44.06832" lon="6.02201">
        <ele>432.5</ele>
        <time>2021-09-09T15:23:58Z</time>
      </trkpt>
      <trkpt lat="44.06838" lon="6.02201">
        <ele>432.5</ele>
        <time>2021-09-09T15:24:00Z</time>
      </trkpt>
      <trkpt lat="44.06845" lon="6.02202">
        <ele>432.6</ele>
        <time>2021-09-09T15:24:02Z</time>
      </trkpt>
      <trkpt lat="44.06851" lon="6.02205">
        <ele>432.6</ele>
        <time>2021-09-09T15:24:03Z</time>
      </trkpt>
      <trkpt lat="44.06861" lon="6.02207">
        <ele>432.7</ele>
        <time>2021-09-09T15:24:05Z</time>
      </trkpt>
      <trkpt lat="44.06869" lon="6.02208">
        <ele>432.8</ele>
        <time>2021-09-09T15:24:07Z</time>
      </trkpt>
      <trkpt lat="44.06875" lon="6.0221">
        <ele>432.8</ele>
        <time>2021-09-09T15:24:09Z</time>
      </trkpt>
      <trkpt lat="44.06879" lon="6.0221">
        <ele>432.9</ele>
        <time>2021-09-09T15:24:10Z</time>
      </trkpt>
      <trkpt lat="44.06883" lon="6.02211">
        <ele>432.9</ele>
        <time>2021-09-09T15:24:11Z</time>
      </trkpt>
      <trkpt lat="44.06889" lon="6.02212">
        <ele>432.9</ele>
        <time>2021-09-09T15:24:12Z</time>
      </trkpt>
      <trkpt lat="44.06897" lon="6.02214">
        <ele>433</ele>
        <time>2021-09-09T15:24:14Z</time>
      </trkpt>
      <trkpt lat="44.06904" lon="6.02216">
        <ele>433</ele>
        <time>2021-09-09T15:24:16Z</time>
      </trkpt>
      <trkpt lat="44.06908" lon="6.02217">
        <ele>433</ele>
        <time>2021-09-09T15:24:17Z</time>
      </trkpt>
      <trkpt lat="44.06913" lon="6.02217">
        <ele>433.1</ele>
        <time>2021-09-09T15:24:19Z</time>
      </trkpt>
      <trkpt lat="44.06918" lon="6.02217">
        <ele>433.1</ele>
        <time>2021-09-09T15:24:20Z</time>
      </trkpt>
      <trkpt lat="44.06925" lon="6.02216">
        <ele>433.2</ele>
        <time>2021-09-09T15:24:22Z</time>
      </trkpt>
      <trkpt lat="44.06929" lon="6.02215">
        <ele>433.2</ele>
        <time>2021-09-09T15:24:23Z</time>
      </trkpt>
      <trkpt lat="44.06936" lon="6.02215">
        <ele>433.2</ele>
        <time>2021-09-09T15:24:25Z</time>
      </trkpt>
      <trkpt lat="44.06941" lon="6.02217">
        <ele>433.3</ele>
        <time>2021-09-09T15:24:27Z</time>
      </trkpt>
      <trkpt lat="44.06947" lon="6.02216">
        <ele>433.4</ele>
        <time>2021-09-09T15:24:28Z</time>
      </trkpt>
      <trkpt lat="44.06954" lon="6.02218">
        <ele>433.4</ele>
        <time>2021-09-09T15:24:29Z</time>
      </trkpt>
      <trkpt lat="44.06965" lon="6.0222">
        <ele>433.6</ele>
        <time>2021-09-09T15:24:31Z</time>
      </trkpt>
      <trkpt lat="44.0697" lon="6.02221">
        <ele>433.6</ele>
        <time>2021-09-09T15:24:32Z</time>
      </trkpt>
      <trkpt lat="44.06976" lon="6.02221">
        <ele>433.7</ele>
        <time>2021-09-09T15:24:34Z</time>
      </trkpt>
      <trkpt lat="44.06981" lon="6.02218">
        <ele>433.8</ele>
        <time>2021-09-09T15:24:35Z</time>
      </trkpt>
      <trkpt lat="44.06984" lon="6.02219">
        <ele>433.8</ele>
        <time>2021-09-09T15:24:36Z</time>
      </trkpt>
      <trkpt lat="44.06989" lon="6.02218">
        <ele>433.8</ele>
        <time>2021-09-09T15:24:38Z</time>
      </trkpt>
      <trkpt lat="44.06994" lon="6.02218">
        <ele>433.9</ele>
        <time>2021-09-09T15:24:39Z</time>
      </trkpt>
      <trkpt lat="44.07" lon="6.02221">
        <ele>434</ele>
        <time>2021-09-09T15:24:41Z</time>
      </trkpt>
      <trkpt lat="44.07007" lon="6.02222">
        <ele>434</ele>
        <time>2021-09-09T15:24:43Z</time>
      </trkpt>
      <trkpt lat="44.07013" lon="6.02223">
        <ele>434.1</ele>
        <time>2021-09-09T15:24:44Z</time>
      </trkpt>
      <trkpt lat="44.07016" lon="6.02226">
        <ele>434.1</ele>
        <time>2021-09-09T15:24:45Z</time>
      </trkpt>
      <trkpt lat="44.07021" lon="6.02227">
        <ele>434.2</ele>
        <time>2021-09-09T15:24:47Z</time>
      </trkpt>
      <trkpt lat="44.07026" lon="6.02228">
        <ele>434.2</ele>
        <time>2021-09-09T15:24:48Z</time>
      </trkpt>
      <trkpt lat="44.07031" lon="6.02228">
        <ele>434.2</ele>
        <time>2021-09-09T15:24:50Z</time>
      </trkpt>
      <trkpt lat="44.07036" lon="6.02228">
        <ele>434.3</ele>
        <time>2021-09-09T15:24:51Z</time>
      </trkpt>
      <trkpt lat="44.07042" lon="6.02229">
        <ele>434.3</ele>
        <time>2021-09-09T15:24:52Z</time>
      </trkpt>
      <trkpt lat="44.07048" lon="6.02228">
        <ele>434.3</ele>
        <time>2021-09-09T15:24:54Z</time>
      </trkpt>
      <trkpt lat="44.07056" lon="6.02226">
        <ele>434.4</ele>
        <time>2021-09-09T15:24:55Z</time>
      </trkpt>
      <trkpt lat="44.07061" lon="6.02226">
        <ele>434.4</ele>
        <time>2021-09-09T15:24:56Z</time>
      </trkpt>
      <trkpt lat="44.07063" lon="6.02226">
        <ele>434.4</ele>
        <time>2021-09-09T15:24:58Z</time>
      </trkpt>
      <trkpt lat="44.07065" lon="6.02226">
        <ele>434.4</ele>
        <time>2021-09-09T15:24:59Z</time>
      </trkpt>
      <trkpt lat="44.07077" lon="6.02225">
        <ele>434.5</ele>
        <time>2021-09-09T15:25:00Z</time>
      </trkpt>
      <trkpt lat="44.07083" lon="6.02225">
        <ele>434.5</ele>
        <time>2021-09-09T15:25:01Z</time>
      </trkpt>
      <trkpt lat="44.07093" lon="6.02227">
        <ele>434.6</ele>
        <time>2021-09-09T15:25:03Z</time>
      </trkpt>
      <trkpt lat="44.07103" lon="6.02228">
        <ele>434.7</ele>
        <time>2021-09-09T15:25:05Z</time>
      </trkpt>
      <trkpt lat="44.07105" lon="6.0223">
        <ele>434.7</ele>
        <time>2021-09-09T15:25:07Z</time>
      </trkpt>
      <trkpt lat="44.07107" lon="6.0223">
        <ele>434.7</ele>
        <time>2021-09-09T15:25:08Z</time>
      </trkpt>
      <trkpt lat="44.07112" lon="6.02233">
        <ele>434.7</ele>
        <time>2021-09-09T15:25:09Z</time>
      </trkpt>
      <trkpt lat="44.07117" lon="6.02234">
        <ele>434.7</ele>
        <time>2021-09-09T15:25:11Z</time>
      </trkpt>
      <trkpt lat="44.07122" lon="6.02233">
        <ele>434.8</ele>
        <time>2021-09-09T15:25:12Z</time>
      </trkpt>
      <trkpt lat="44.07126" lon="6.02232">
        <ele>434.8</ele>
        <time>2021-09-09T15:25:13Z</time>
      </trkpt>
      <trkpt lat="44.07133" lon="6.0223">
        <ele>434.8</ele>
        <time>2021-09-09T15:25:15Z</time>
      </trkpt>
      <trkpt lat="44.07138" lon="6.02228">
        <ele>434.9</ele>
        <time>2021-09-09T15:25:16Z</time>
      </trkpt>
      <trkpt lat="44.07144" lon="6.02227">
        <ele>434.9</ele>
        <time>2021-09-09T15:25:18Z</time>
      </trkpt>
      <trkpt lat="44.07152" lon="6.02226">
        <ele>435</ele>
        <time>2021-09-09T15:25:20Z</time>
      </trkpt>
      <trkpt lat="44.07157" lon="6.02225">
        <ele>435</ele>
        <time>2021-09-09T15:25:21Z</time>
      </trkpt>
      <trkpt lat="44.07165" lon="6.02223">
        <ele>435</ele>
        <time>2021-09-09T15:25:23Z</time>
      </trkpt>
      <trkpt lat="44.07175" lon="6.02222">
        <ele>435</ele>
        <time>2021-09-09T15:25:24Z</time>
      </trkpt>
      <trkpt lat="44.07181" lon="6.02223">
        <ele>435</ele>
        <time>2021-09-09T15:25:25Z</time>
      </trkpt>
      <trkpt lat="44.07193" lon="6.02222">
        <ele>435.1</ele>
        <time>2021-09-09T15:25:27Z</time>
      </trkpt>
      <trkpt lat="44.07201" lon="6.02222">
        <ele>435.1</ele>
        <time>2021-09-09T15:25:29Z</time>
      </trkpt>
      <trkpt lat="44.07207" lon="6.02222">
        <ele>435.1</ele>
        <time>2021-09-09T15:25:30Z</time>
      </trkpt>
      <trkpt lat="44.07212" lon="6.02221">
        <ele>435.1</ele>
        <time>2021-09-09T15:25:31Z</time>
      </trkpt>
      <trkpt lat="44.07223" lon="6.02219">
        <ele>435.2</ele>
        <time>2021-09-09T15:25:33Z</time>
      </trkpt>
      <trkpt lat="44.07227" lon="6.02217">
        <ele>435.2</ele>
        <time>2021-09-09T15:25:34Z</time>
      </trkpt>
      <trkpt lat="44.07233" lon="6.02214">
        <ele>435.2</ele>
        <time>2021-09-09T15:25:36Z</time>
      </trkpt>
      <trkpt lat="44.07237" lon="6.02215">
        <ele>435.2</ele>
        <time>2021-09-09T15:25:37Z</time>
      </trkpt>
      <trkpt lat="44.07242" lon="6.02214">
        <ele>435.3</ele>
        <time>2021-09-09T15:25:38Z</time>
      </trkpt>
      <trkpt lat="44.07245" lon="6.02214">
        <ele>435.3</ele>
        <time>2021-09-09T15:25:39Z</time>
      </trkpt>
      <trkpt lat="44.07248" lon="6.02214">
        <ele>435.3</ele>
        <time>2021-09-09T15:25:40Z</time>
      </trkpt>
      <trkpt lat="44.07252" lon="6.02213">
        <ele>435.3</ele>
        <time>2021-09-09T15:25:42Z</time>
      </trkpt>
      <trkpt lat="44.07255" lon="6.02213">
        <ele>435.3</ele>
        <time>2021-09-09T15:25:43Z</time>
      </trkpt>
      <trkpt lat="44.07261" lon="6.02213">
        <ele>435.4</ele>
        <time>2021-09-09T15:25:44Z</time>
      </trkpt>
      <trkpt lat="44.07265" lon="6.02213">
        <ele>435.4</ele>
        <time>2021-09-09T15:25:45Z</time>
      </trkpt>
      <trkpt lat="44.07269" lon="6.02212">
        <ele>435.4</ele>
        <time>2021-09-09T15:25:46Z</time>
      </trkpt>
      <trkpt lat="44.07276" lon="6.02211">
        <ele>435.5</ele>
        <time>2021-09-09T15:25:48Z</time>
      </trkpt>
      <trkpt lat="44.0728" lon="6.02211">
        <ele>435.5</ele>
        <time>2021-09-09T15:25:49Z</time>
      </trkpt>
      <trkpt lat="44.07287" lon="6.0221">
        <ele>435.5</ele>
        <time>2021-09-09T15:25:51Z</time>
      </trkpt>
      <trkpt lat="44.07291" lon="6.02209">
        <ele>435.6</ele>
        <time>2021-09-09T15:25:52Z</time>
      </trkpt>
      <trkpt lat="44.07296" lon="6.02208">
        <ele>435.6</ele>
        <time>2021-09-09T15:25:53Z</time>
      </trkpt>
      <trkpt lat="44.07303" lon="6.02206">
        <ele>435.7</ele>
        <time>2021-09-09T15:25:55Z</time>
      </trkpt>
      <trkpt lat="44.07306" lon="6.02204">
        <ele>435.7</ele>
        <time>2021-09-09T15:25:56Z</time>
      </trkpt>
      <trkpt lat="44.07314" lon="6.02201">
        <ele>435.7</ele>
        <time>2021-09-09T15:25:58Z</time>
      </trkpt>
      <trkpt lat="44.07319" lon="6.022">
        <ele>435.8</ele>
        <time>2021-09-09T15:25:59Z</time>
      </trkpt>
      <trkpt lat="44.07327" lon="6.02197">
        <ele>435.8</ele>
        <time>2021-09-09T15:26:00Z</time>
      </trkpt>
      <trkpt lat="44.07332" lon="6.02195">
        <ele>435.9</ele>
        <time>2021-09-09T15:26:01Z</time>
      </trkpt>
      <trkpt lat="44.0734" lon="6.02189">
        <ele>436</ele>
        <time>2021-09-09T15:26:03Z</time>
      </trkpt>
      <trkpt lat="44.07343" lon="6.02186">
        <ele>436</ele>
        <time>2021-09-09T15:26:04Z</time>
      </trkpt>
      <trkpt lat="44.0735" lon="6.0218">
        <ele>436.1</ele>
        <time>2021-09-09T15:26:06Z</time>
      </trkpt>
      <trkpt lat="44.07355" lon="6.02182">
        <ele>436.1</ele>
        <time>2021-09-09T15:26:08Z</time>
      </trkpt>
      <trkpt lat="44.07359" lon="6.02179">
        <ele>436.1</ele>
        <time>2021-09-09T15:26:09Z</time>
      </trkpt>
      <trkpt lat="44.07363" lon="6.02176">
        <ele>436.2</ele>
        <time>2021-09-09T15:26:10Z</time>
      </trkpt>
      <trkpt lat="44.07369" lon="6.02165">
        <ele>436.2</ele>
        <time>2021-09-09T15:26:11Z</time>
      </trkpt>
      <trkpt lat="44.07375" lon="6.0216">
        <ele>436.3</ele>
        <time>2021-09-09T15:26:13Z</time>
      </trkpt>
      <trkpt lat="44.07378" lon="6.02156">
        <ele>436.3</ele>
        <time>2021-09-09T15:26:14Z</time>
      </trkpt>
      <trkpt lat="44.07381" lon="6.02154">
        <ele>436.4</ele>
        <time>2021-09-09T15:26:15Z</time>
      </trkpt>
      <trkpt lat="44.07386" lon="6.0215">
        <ele>436.4</ele>
        <time>2021-09-09T15:26:17Z</time>
      </trkpt>
      <trkpt lat="44.07392" lon="6.02145">
        <ele>436.5</ele>
        <time>2021-09-09T15:26:19Z</time>
      </trkpt>
      <trkpt lat="44.07394" lon="6.02143">
        <ele>436.5</ele>
        <time>2021-09-09T15:26:20Z</time>
      </trkpt>
      <trkpt lat="44.07399" lon="6.02139">
        <ele>436.6</ele>
        <time>2021-09-09T15:26:22Z</time>
      </trkpt>
      <trkpt lat="44.07401" lon="6.02137">
        <ele>436.6</ele>
        <time>2021-09-09T15:26:23Z</time>
      </trkpt>
      <trkpt lat="44.07405" lon="6.02135">
        <ele>436.6</ele>
        <time>2021-09-09T15:26:24Z</time>
      </trkpt>
      <trkpt lat="44.07408" lon="6.02132">
        <ele>436.7</ele>
        <time>2021-09-09T15:26:25Z</time>
      </trkpt>
      <trkpt lat="44.07412" lon="6.0213">
        <ele>436.7</ele>
        <time>2021-09-09T15:26:26Z</time>
      </trkpt>
      <trkpt lat="44.07418" lon="6.02126">
        <ele>436.8</ele>
        <time>2021-09-09T15:26:28Z</time>
      </trkpt>
      <trkpt lat="44.07426" lon="6.02121">
        <ele>436.9</ele>
        <time>2021-09-09T15:26:30Z</time>
      </trkpt>
      <trkpt lat="44.0743" lon="6.02117">
        <ele>437</ele>
        <time>2021-09-09T15:26:31Z</time>
      </trkpt>
      <trkpt lat="44.0744" lon="6.02112">
        <ele>437.1</ele>
        <time>2021-09-09T15:26:33Z</time>
      </trkpt>
      <trkpt lat="44.07445" lon="6.02109">
        <ele>437.1</ele>
        <time>2021-09-09T15:26:34Z</time>
      </trkpt>
      <trkpt lat="44.07454" lon="6.02103">
        <ele>437.2</ele>
        <time>2021-09-09T15:26:36Z</time>
      </trkpt>
      <trkpt lat="44.07457" lon="6.02101">
        <ele>437.2</ele>
        <time>2021-09-09T15:26:37Z</time>
      </trkpt>
      <trkpt lat="44.07457" lon="6.02099">
        <ele>437.3</ele>
        <time>2021-09-09T15:26:38Z</time>
      </trkpt>
      <trkpt lat="44.07466" lon="6.02093">
        <ele>437.3</ele>
        <time>2021-09-09T15:26:40Z</time>
      </trkpt>
      <trkpt lat="44.0747" lon="6.0209">
        <ele>437.3</ele>
        <time>2021-09-09T15:26:41Z</time>
      </trkpt>
      <trkpt lat="44.07477" lon="6.02083">
        <ele>437.4</ele>
        <time>2021-09-09T15:26:43Z</time>
      </trkpt>
      <trkpt lat="44.07481" lon="6.02081">
        <ele>437.4</ele>
        <time>2021-09-09T15:26:44Z</time>
      </trkpt>
      <trkpt lat="44.07486" lon="6.02078">
        <ele>437.4</ele>
        <time>2021-09-09T15:26:45Z</time>
      </trkpt>
      <trkpt lat="44.0749" lon="6.02075">
        <ele>437.5</ele>
        <time>2021-09-09T15:26:46Z</time>
      </trkpt>
      <trkpt lat="44.07494" lon="6.02073">
        <ele>437.5</ele>
        <time>2021-09-09T15:26:47Z</time>
      </trkpt>
      <trkpt lat="44.07501" lon="6.02069">
        <ele>437.5</ele>
        <time>2021-09-09T15:26:49Z</time>
      </trkpt>
      <trkpt lat="44.07506" lon="6.02065">
        <ele>437.6</ele>
        <time>2021-09-09T15:26:50Z</time>
      </trkpt>
      <trkpt lat="44.07511" lon="6.02062">
        <ele>437.6</ele>
        <time>2021-09-09T15:26:51Z</time>
      </trkpt>
      <trkpt lat="44.0752" lon="6.02056">
        <ele>437.6</ele>
        <time>2021-09-09T15:26:53Z</time>
      </trkpt>
      <trkpt lat="44.07529" lon="6.0205">
        <ele>437.7</ele>
        <time>2021-09-09T15:26:55Z</time>
      </trkpt>
      <trkpt lat="44.07534" lon="6.02047">
        <ele>437.7</ele>
        <time>2021-09-09T15:26:56Z</time>
      </trkpt>
      <trkpt lat="44.07542" lon="6.02042">
        <ele>437.8</ele>
        <time>2021-09-09T15:26:58Z</time>
      </trkpt>
      <trkpt lat="44.07546" lon="6.02039">
        <ele>437.8</ele>
        <time>2021-09-09T15:26:59Z</time>
      </trkpt>
      <trkpt lat="44.07549" lon="6.02037">
        <ele>437.8</ele>
        <time>2021-09-09T15:27:00Z</time>
      </trkpt>
      <trkpt lat="44.07557" lon="6.02031">
        <ele>437.8</ele>
        <time>2021-09-09T15:27:02Z</time>
      </trkpt>
      <trkpt lat="44.07566" lon="6.02024">
        <ele>437.9</ele>
        <time>2021-09-09T15:27:04Z</time>
      </trkpt>
      <trkpt lat="44.0757" lon="6.02021">
        <ele>437.9</ele>
        <time>2021-09-09T15:27:05Z</time>
      </trkpt>
      <trkpt lat="44.07577" lon="6.02015">
        <ele>438</ele>
        <time>2021-09-09T15:27:07Z</time>
      </trkpt>
      <trkpt lat="44.07583" lon="6.0201">
        <ele>438.1</ele>
        <time>2021-09-09T15:27:09Z</time>
      </trkpt>
      <trkpt lat="44.07588" lon="6.02005">
        <ele>438.1</ele>
        <time>2021-09-09T15:27:10Z</time>
      </trkpt>
      <trkpt lat="44.07592" lon="6.02004">
        <ele>438.2</ele>
        <time>2021-09-09T15:27:11Z</time>
      </trkpt>
      <trkpt lat="44.07597" lon="6.02002">
        <ele>438.2</ele>
        <time>2021-09-09T15:27:13Z</time>
      </trkpt>
      <trkpt lat="44.07604" lon="6.01995">
        <ele>438.2</ele>
        <time>2021-09-09T15:27:14Z</time>
      </trkpt>
      <trkpt lat="44.07608" lon="6.01993">
        <ele>438.2</ele>
        <time>2021-09-09T15:27:16Z</time>
      </trkpt>
      <trkpt lat="44.07614" lon="6.01986">
        <ele>438.2</ele>
        <time>2021-09-09T15:27:17Z</time>
      </trkpt>
      <trkpt lat="44.07623" lon="6.0198">
        <ele>438.2</ele>
        <time>2021-09-09T15:27:19Z</time>
      </trkpt>
      <trkpt lat="44.07628" lon="6.01977">
        <ele>438.2</ele>
        <time>2021-09-09T15:27:20Z</time>
      </trkpt>
      <trkpt lat="44.07633" lon="6.01974">
        <ele>438.2</ele>
        <time>2021-09-09T15:27:22Z</time>
      </trkpt>
      <trkpt lat="44.07639" lon="6.0197">
        <ele>438.2</ele>
        <time>2021-09-09T15:27:23Z</time>
      </trkpt>
      <trkpt lat="44.07646" lon="6.01966">
        <ele>438.2</ele>
        <time>2021-09-09T15:27:25Z</time>
      </trkpt>
      <trkpt lat="44.07653" lon="6.01962">
        <ele>438.2</ele>
        <time>2021-09-09T15:27:26Z</time>
      </trkpt>
      <trkpt lat="44.07662" lon="6.01956">
        <ele>438.2</ele>
        <time>2021-09-09T15:27:28Z</time>
      </trkpt>
      <trkpt lat="44.07667" lon="6.01951">
        <ele>438.2</ele>
        <time>2021-09-09T15:27:30Z</time>
      </trkpt>
      <trkpt lat="44.07671" lon="6.01948">
        <ele>438.1</ele>
        <time>2021-09-09T15:27:31Z</time>
      </trkpt>
      <trkpt lat="44.07677" lon="6.01942">
        <ele>438.1</ele>
        <time>2021-09-09T15:27:33Z</time>
      </trkpt>
      <trkpt lat="44.07684" lon="6.01939">
        <ele>438</ele>
        <time>2021-09-09T15:27:34Z</time>
      </trkpt>
      <trkpt lat="44.07688" lon="6.01936">
        <ele>438</ele>
        <time>2021-09-09T15:27:35Z</time>
      </trkpt>
      <trkpt lat="44.07694" lon="6.01934">
        <ele>438</ele>
        <time>2021-09-09T15:27:37Z</time>
      </trkpt>
      <trkpt lat="44.077" lon="6.01929">
        <ele>437.9</ele>
        <time>2021-09-09T15:27:38Z</time>
      </trkpt>
      <trkpt lat="44.07703" lon="6.01927">
        <ele>437.9</ele>
        <time>2021-09-09T15:27:39Z</time>
      </trkpt>
      <trkpt lat="44.07709" lon="6.01923">
        <ele>437.8</ele>
        <time>2021-09-09T15:27:41Z</time>
      </trkpt>
      <trkpt lat="44.07715" lon="6.01918">
        <ele>437.8</ele>
        <time>2021-09-09T15:27:42Z</time>
      </trkpt>
      <trkpt lat="44.07721" lon="6.01914">
        <ele>437.7</ele>
        <time>2021-09-09T15:27:44Z</time>
      </trkpt>
      <trkpt lat="44.07726" lon="6.01911">
        <ele>437.6</ele>
        <time>2021-09-09T15:27:45Z</time>
      </trkpt>
      <trkpt lat="44.07735" lon="6.01906">
        <ele>437.6</ele>
        <time>2021-09-09T15:27:47Z</time>
      </trkpt>
      <trkpt lat="44.07743" lon="6.019">
        <ele>437.5</ele>
        <time>2021-09-09T15:27:49Z</time>
      </trkpt>
      <trkpt lat="44.07747" lon="6.01897">
        <ele>437.5</ele>
        <time>2021-09-09T15:27:50Z</time>
      </trkpt>
      <trkpt lat="44.07751" lon="6.01895">
        <ele>437.4</ele>
        <time>2021-09-09T15:27:51Z</time>
      </trkpt>
      <trkpt lat="44.07754" lon="6.01898">
        <ele>437.4</ele>
        <time>2021-09-09T15:27:53Z</time>
      </trkpt>
      <trkpt lat="44.07755" lon="6.01891">
        <ele>437.3</ele>
        <time>2021-09-09T15:27:54Z</time>
      </trkpt>
      <trkpt lat="44.07759" lon="6.01887">
        <ele>437.3</ele>
        <time>2021-09-09T15:27:55Z</time>
      </trkpt>
      <trkpt lat="44.07766" lon="6.01879">
        <ele>437.2</ele>
        <time>2021-09-09T15:27:56Z</time>
      </trkpt>
      <trkpt lat="44.07775" lon="6.01871">
        <ele>437.1</ele>
        <time>2021-09-09T15:27:58Z</time>
      </trkpt>
      <trkpt lat="44.07779" lon="6.01868">
        <ele>437.1</ele>
        <time>2021-09-09T15:27:59Z</time>
      </trkpt>
      <trkpt lat="44.07783" lon="6.01865">
        <ele>437.1</ele>
        <time>2021-09-09T15:28:00Z</time>
      </trkpt>
      <trkpt lat="44.07786" lon="6.01866">
        <ele>437</ele>
        <time>2021-09-09T15:28:01Z</time>
      </trkpt>
      <trkpt lat="44.07789" lon="6.01861">
        <ele>437</ele>
        <time>2021-09-09T15:28:02Z</time>
      </trkpt>
      <trkpt lat="44.07793" lon="6.01858">
        <ele>437</ele>
        <time>2021-09-09T15:28:04Z</time>
      </trkpt>
      <trkpt lat="44.07799" lon="6.01848">
        <ele>436.9</ele>
        <time>2021-09-09T15:28:05Z</time>
      </trkpt>
      <trkpt lat="44.07803" lon="6.01845">
        <ele>436.9</ele>
        <time>2021-09-09T15:28:06Z</time>
      </trkpt>
      <trkpt lat="44.07804" lon="6.01839">
        <ele>436.8</ele>
        <time>2021-09-09T15:28:08Z</time>
      </trkpt>
      <trkpt lat="44.07809" lon="6.01834">
        <ele>436.8</ele>
        <time>2021-09-09T15:28:09Z</time>
      </trkpt>
      <trkpt lat="44.07812" lon="6.01832">
        <ele>436.8</ele>
        <time>2021-09-09T15:28:10Z</time>
      </trkpt>
      <trkpt lat="44.07817" lon="6.01828">
        <ele>436.7</ele>
        <time>2021-09-09T15:28:12Z</time>
      </trkpt>
      <trkpt lat="44.0782" lon="6.01825">
        <ele>436.7</ele>
        <time>2021-09-09T15:28:13Z</time>
      </trkpt>
      <trkpt lat="44.07826" lon="6.01822">
        <ele>436.7</ele>
        <time>2021-09-09T15:28:14Z</time>
      </trkpt>
      <trkpt lat="44.0783" lon="6.0182">
        <ele>436.6</ele>
        <time>2021-09-09T15:28:15Z</time>
      </trkpt>
      <trkpt lat="44.07835" lon="6.01816">
        <ele>436.6</ele>
        <time>2021-09-09T15:28:17Z</time>
      </trkpt>
      <trkpt lat="44.0784" lon="6.01814">
        <ele>436.6</ele>
        <time>2021-09-09T15:28:18Z</time>
      </trkpt>
      <trkpt lat="44.07845" lon="6.0181">
        <ele>436.5</ele>
        <time>2021-09-09T15:28:20Z</time>
      </trkpt>
      <trkpt lat="44.07848" lon="6.01807">
        <ele>436.5</ele>
        <time>2021-09-09T15:28:21Z</time>
      </trkpt>
      <trkpt lat="44.07853" lon="6.01803">
        <ele>436.5</ele>
        <time>2021-09-09T15:28:22Z</time>
      </trkpt>
      <trkpt lat="44.07859" lon="6.01798">
        <ele>436.5</ele>
        <time>2021-09-09T15:28:24Z</time>
      </trkpt>
      <trkpt lat="44.07866" lon="6.01794">
        <ele>436.5</ele>
        <time>2021-09-09T15:28:26Z</time>
      </trkpt>
      <trkpt lat="44.07871" lon="6.0179">
        <ele>436.4</ele>
        <time>2021-09-09T15:28:28Z</time>
      </trkpt>
      <trkpt lat="44.07873" lon="6.01788">
        <ele>436.4</ele>
        <time>2021-09-09T15:28:29Z</time>
      </trkpt>
      <trkpt lat="44.07876" lon="6.01785">
        <ele>436.4</ele>
        <time>2021-09-09T15:28:30Z</time>
      </trkpt>
      <trkpt lat="44.07879" lon="6.01782">
        <ele>436.4</ele>
        <time>2021-09-09T15:28:31Z</time>
      </trkpt>
      <trkpt lat="44.07882" lon="6.0178">
        <ele>436.4</ele>
        <time>2021-09-09T15:28:32Z</time>
      </trkpt>
      <trkpt lat="44.07886" lon="6.01776">
        <ele>436.4</ele>
        <time>2021-09-09T15:28:34Z</time>
      </trkpt>
      <trkpt lat="44.0789" lon="6.01773">
        <ele>436.4</ele>
        <time>2021-09-09T15:28:35Z</time>
      </trkpt>
      <trkpt lat="44.07896" lon="6.0177">
        <ele>436.4</ele>
        <time>2021-09-09T15:28:37Z</time>
      </trkpt>
      <trkpt lat="44.07899" lon="6.01769">
        <ele>436.4</ele>
        <time>2021-09-09T15:28:38Z</time>
      </trkpt>
      <trkpt lat="44.07907" lon="6.01765">
        <ele>436.4</ele>
        <time>2021-09-09T15:28:40Z</time>
      </trkpt>
      <trkpt lat="44.07911" lon="6.01764">
        <ele>436.4</ele>
        <time>2021-09-09T15:28:41Z</time>
      </trkpt>
      <trkpt lat="44.07914" lon="6.01762">
        <ele>436.4</ele>
        <time>2021-09-09T15:28:42Z</time>
      </trkpt>
      <trkpt lat="44.07918" lon="6.01761">
        <ele>436.4</ele>
        <time>2021-09-09T15:28:43Z</time>
      </trkpt>
      <trkpt lat="44.07921" lon="6.0176">
        <ele>436.4</ele>
        <time>2021-09-09T15:28:44Z</time>
      </trkpt>
      <trkpt lat="44.07928" lon="6.01758">
        <ele>436.4</ele>
        <time>2021-09-09T15:28:46Z</time>
      </trkpt>
      <trkpt lat="44.07933" lon="6.01756">
        <ele>436.4</ele>
        <time>2021-09-09T15:28:47Z</time>
      </trkpt>
      <trkpt lat="44.07937" lon="6.01755">
        <ele>436.4</ele>
        <time>2021-09-09T15:28:48Z</time>
      </trkpt>
      <trkpt lat="44.07941" lon="6.01754">
        <ele>436.4</ele>
        <time>2021-09-09T15:28:49Z</time>
      </trkpt>
      <trkpt lat="44.07944" lon="6.01752">
        <ele>436.4</ele>
        <time>2021-09-09T15:28:50Z</time>
      </trkpt>
      <trkpt lat="44.07951" lon="6.01747">
        <ele>436.4</ele>
        <time>2021-09-09T15:28:52Z</time>
      </trkpt>
      <trkpt lat="44.07956" lon="6.01745">
        <ele>436.4</ele>
        <time>2021-09-09T15:28:54Z</time>
      </trkpt>
      <trkpt lat="44.07961" lon="6.01744">
        <ele>436.4</ele>
        <time>2021-09-09T15:28:55Z</time>
      </trkpt>
      <trkpt lat="44.07968" lon="6.01742">
        <ele>436.4</ele>
        <time>2021-09-09T15:28:57Z</time>
      </trkpt>
      <trkpt lat="44.07974" lon="6.0174">
        <ele>436.4</ele>
        <time>2021-09-09T15:28:58Z</time>
      </trkpt>
      <trkpt lat="44.07979" lon="6.01738">
        <ele>436.4</ele>
        <time>2021-09-09T15:29:00Z</time>
      </trkpt>
      <trkpt lat="44.07985" lon="6.01735">
        <ele>436.4</ele>
        <time>2021-09-09T15:29:01Z</time>
      </trkpt>
      <trkpt lat="44.07989" lon="6.01734">
        <ele>436.4</ele>
        <time>2021-09-09T15:29:02Z</time>
      </trkpt>
      <trkpt lat="44.07996" lon="6.01733">
        <ele>436.4</ele>
        <time>2021-09-09T15:29:04Z</time>
      </trkpt>
      <trkpt lat="44.08001" lon="6.01733">
        <ele>436.4</ele>
        <time>2021-09-09T15:29:05Z</time>
      </trkpt>
      <trkpt lat="44.08009" lon="6.01731">
        <ele>436.4</ele>
        <time>2021-09-09T15:29:07Z</time>
      </trkpt>
      <trkpt lat="44.08017" lon="6.01729">
        <ele>436.4</ele>
        <time>2021-09-09T15:29:09Z</time>
      </trkpt>
      <trkpt lat="44.08022" lon="6.01726">
        <ele>436.3</ele>
        <time>2021-09-09T15:29:11Z</time>
      </trkpt>
      <trkpt lat="44.08025" lon="6.01724">
        <ele>436.3</ele>
        <time>2021-09-09T15:29:12Z</time>
      </trkpt>
      <trkpt lat="44.08029" lon="6.01722">
        <ele>436.3</ele>
        <time>2021-09-09T15:29:13Z</time>
      </trkpt>
      <trkpt lat="44.08032" lon="6.01719">
        <ele>436.3</ele>
        <time>2021-09-09T15:29:15Z</time>
      </trkpt>
      <trkpt lat="44.08036" lon="6.01716">
        <ele>436.3</ele>
        <time>2021-09-09T15:29:16Z</time>
      </trkpt>
      <trkpt lat="44.08042" lon="6.01714">
        <ele>436.3</ele>
        <time>2021-09-09T15:29:18Z</time>
      </trkpt>
      <trkpt lat="44.08052" lon="6.01715">
        <ele>436.3</ele>
        <time>2021-09-09T15:29:20Z</time>
      </trkpt>
      <trkpt lat="44.08057" lon="6.01715">
        <ele>436.3</ele>
        <time>2021-09-09T15:29:21Z</time>
      </trkpt>
      <trkpt lat="44.08064" lon="6.01717">
        <ele>436.3</ele>
        <time>2021-09-09T15:29:23Z</time>
      </trkpt>
      <trkpt lat="44.0807" lon="6.01716">
        <ele>436.3</ele>
        <time>2021-09-09T15:29:24Z</time>
      </trkpt>
      <trkpt lat="44.08076" lon="6.01716">
        <ele>436.3</ele>
        <time>2021-09-09T15:29:25Z</time>
      </trkpt>
      <trkpt lat="44.08087" lon="6.01717">
        <ele>436.3</ele>
        <time>2021-09-09T15:29:27Z</time>
      </trkpt>
      <trkpt lat="44.08093" lon="6.01716">
        <ele>436.3</ele>
        <time>2021-09-09T15:29:28Z</time>
      </trkpt>
      <trkpt lat="44.08098" lon="6.01715">
        <ele>436.3</ele>
        <time>2021-09-09T15:29:29Z</time>
      </trkpt>
      <trkpt lat="44.08106" lon="6.01715">
        <ele>436.2</ele>
        <time>2021-09-09T15:29:31Z</time>
      </trkpt>
      <trkpt lat="44.0811" lon="6.01717">
        <ele>436.2</ele>
        <time>2021-09-09T15:29:32Z</time>
      </trkpt>
      <trkpt lat="44.08122" lon="6.01714">
        <ele>436.2</ele>
        <time>2021-09-09T15:29:34Z</time>
      </trkpt>
      <trkpt lat="44.08128" lon="6.01714">
        <ele>436.3</ele>
        <time>2021-09-09T15:29:35Z</time>
      </trkpt>
      <trkpt lat="44.08136" lon="6.01716">
        <ele>436.3</ele>
        <time>2021-09-09T15:29:37Z</time>
      </trkpt>
      <trkpt lat="44.08142" lon="6.01715">
        <ele>436.3</ele>
        <time>2021-09-09T15:29:38Z</time>
      </trkpt>
      <trkpt lat="44.0815" lon="6.01713">
        <ele>436.3</ele>
        <time>2021-09-09T15:29:40Z</time>
      </trkpt>
      <trkpt lat="44.08154" lon="6.01712">
        <ele>436.3</ele>
        <time>2021-09-09T15:29:42Z</time>
      </trkpt>
      <trkpt lat="44.08161" lon="6.01709">
        <ele>436.3</ele>
        <time>2021-09-09T15:29:43Z</time>
      </trkpt>
      <trkpt lat="44.08171" lon="6.01706">
        <ele>436.3</ele>
        <time>2021-09-09T15:29:45Z</time>
      </trkpt>
      <trkpt lat="44.08176" lon="6.01705">
        <ele>436.4</ele>
        <time>2021-09-09T15:29:46Z</time>
      </trkpt>
      <trkpt lat="44.08183" lon="6.01706">
        <ele>436.4</ele>
        <time>2021-09-09T15:29:48Z</time>
      </trkpt>
      <trkpt lat="44.08188" lon="6.01704">
        <ele>436.4</ele>
        <time>2021-09-09T15:29:49Z</time>
      </trkpt>
      <trkpt lat="44.08192" lon="6.01703">
        <ele>436.4</ele>
        <time>2021-09-09T15:29:50Z</time>
      </trkpt>
      <trkpt lat="44.08202" lon="6.017">
        <ele>436.4</ele>
        <time>2021-09-09T15:29:52Z</time>
      </trkpt>
      <trkpt lat="44.08211" lon="6.01697">
        <ele>436.5</ele>
        <time>2021-09-09T15:29:54Z</time>
      </trkpt>
      <trkpt lat="44.08216" lon="6.01695">
        <ele>436.5</ele>
        <time>2021-09-09T15:29:55Z</time>
      </trkpt>
      <trkpt lat="44.08221" lon="6.01694">
        <ele>436.5</ele>
        <time>2021-09-09T15:29:56Z</time>
      </trkpt>
      <trkpt lat="44.0823" lon="6.01689">
        <ele>436.6</ele>
        <time>2021-09-09T15:29:58Z</time>
      </trkpt>
      <trkpt lat="44.08235" lon="6.01687">
        <ele>436.7</ele>
        <time>2021-09-09T15:29:59Z</time>
      </trkpt>
      <trkpt lat="44.08241" lon="6.01685">
        <ele>436.8</ele>
        <time>2021-09-09T15:30:00Z</time>
      </trkpt>
      <trkpt lat="44.08246" lon="6.01684">
        <ele>436.9</ele>
        <time>2021-09-09T15:30:01Z</time>
      </trkpt>
      <trkpt lat="44.0825" lon="6.01682">
        <ele>437</ele>
        <time>2021-09-09T15:30:02Z</time>
      </trkpt>
      <trkpt lat="44.08258" lon="6.01677">
        <ele>436.9</ele>
        <time>2021-09-09T15:30:04Z</time>
      </trkpt>
      <trkpt lat="44.0826" lon="6.01675">
        <ele>436.9</ele>
        <time>2021-09-09T15:30:05Z</time>
      </trkpt>
      <trkpt lat="44.08265" lon="6.01673">
        <ele>436.8</ele>
        <time>2021-09-09T15:30:07Z</time>
      </trkpt>
      <trkpt lat="44.08266" lon="6.01672">
        <ele>436.8</ele>
        <time>2021-09-09T15:30:08Z</time>
      </trkpt>
      <trkpt lat="44.08265" lon="6.01671">
        <ele>436.8</ele>
        <time>2021-09-09T15:30:10Z</time>
      </trkpt>
      <trkpt lat="44.08267" lon="6.01671">
        <ele>436.8</ele>
        <time>2021-09-09T15:30:11Z</time>
      </trkpt>
      <trkpt lat="44.0827" lon="6.01669">
        <ele>436.8</ele>
        <time>2021-09-09T15:30:13Z</time>
      </trkpt>
      <trkpt lat="44.08271" lon="6.01669">
        <ele>436.8</ele>
        <time>2021-09-09T15:30:14Z</time>
      </trkpt>
      <trkpt lat="44.08273" lon="6.0167">
        <ele>436.7</ele>
        <time>2021-09-09T15:30:16Z</time>
      </trkpt>
      <trkpt lat="44.08274" lon="6.0167">
        <ele>436.7</ele>
        <time>2021-09-09T15:30:17Z</time>
      </trkpt>
      <trkpt lat="44.08274" lon="6.0167">
        <ele>436.7</ele>
        <time>2021-09-09T15:30:18Z</time>
      </trkpt>
      <trkpt lat="44.08274" lon="6.01671">
        <ele>436.7</ele>
        <time>2021-09-09T15:30:20Z</time>
      </trkpt>
      <trkpt lat="44.08274" lon="6.0167">
        <ele>436.7</ele>
        <time>2021-09-09T15:30:22Z</time>
      </trkpt>
      <trkpt lat="44.08276" lon="6.0167">
        <ele>436.7</ele>
        <time>2021-09-09T15:30:23Z</time>
      </trkpt>
      <trkpt lat="44.08279" lon="6.0167">
        <ele>436.7</ele>
        <time>2021-09-09T15:30:24Z</time>
      </trkpt>
      <trkpt lat="44.08284" lon="6.01668">
        <ele>436.6</ele>
        <time>2021-09-09T15:30:26Z</time>
      </trkpt>
      <trkpt lat="44.08287" lon="6.01665">
        <ele>436.6</ele>
        <time>2021-09-09T15:30:27Z</time>
      </trkpt>
      <trkpt lat="44.0829" lon="6.01662">
        <ele>436.6</ele>
        <time>2021-09-09T15:30:28Z</time>
      </trkpt>
      <trkpt lat="44.08294" lon="6.01658">
        <ele>436.6</ele>
        <time>2021-09-09T15:30:30Z</time>
      </trkpt>
      <trkpt lat="44.08296" lon="6.01657">
        <ele>436.5</ele>
        <time>2021-09-09T15:30:31Z</time>
      </trkpt>
      <trkpt lat="44.08299" lon="6.01654">
        <ele>436.5</ele>
        <time>2021-09-09T15:30:33Z</time>
      </trkpt>
      <trkpt lat="44.08303" lon="6.01652">
        <ele>436.5</ele>
        <time>2021-09-09T15:30:34Z</time>
      </trkpt>
      <trkpt lat="44.08304" lon="6.01652">
        <ele>436.5</ele>
        <time>2021-09-09T15:30:35Z</time>
      </trkpt>
      <trkpt lat="44.08308" lon="6.01648">
        <ele>436.5</ele>
        <time>2021-09-09T15:30:37Z</time>
      </trkpt>
      <trkpt lat="44.08311" lon="6.01642">
        <ele>436.4</ele>
        <time>2021-09-09T15:30:39Z</time>
      </trkpt>
      <trkpt lat="44.08315" lon="6.01638">
        <ele>436.4</ele>
        <time>2021-09-09T15:30:41Z</time>
      </trkpt>
      <trkpt lat="44.08318" lon="6.01635">
        <ele>436.4</ele>
        <time>2021-09-09T15:30:42Z</time>
      </trkpt>
      <trkpt lat="44.0832" lon="6.01625">
        <ele>436.4</ele>
        <time>2021-09-09T15:30:44Z</time>
      </trkpt>
      <trkpt lat="44.08326" lon="6.01617">
        <ele>436.4</ele>
        <time>2021-09-09T15:30:46Z</time>
      </trkpt>
      <trkpt lat="44.08329" lon="6.01613">
        <ele>436.3</ele>
        <time>2021-09-09T15:30:48Z</time>
      </trkpt>
      <trkpt lat="44.0833" lon="6.01613">
        <ele>436.3</ele>
        <time>2021-09-09T15:30:50Z</time>
      </trkpt>
      <trkpt lat="44.0833" lon="6.01613">
        <ele>436.3</ele>
        <time>2021-09-09T15:30:51Z</time>
      </trkpt>
      <trkpt lat="44.08331" lon="6.01614">
        <ele>436.3</ele>
        <time>2021-09-09T15:30:52Z</time>
      </trkpt>
      <trkpt lat="44.08331" lon="6.01614">
        <ele>436.3</ele>
        <time>2021-09-09T15:30:54Z</time>
      </trkpt>
      <trkpt lat="44.08332" lon="6.01614">
        <ele>436.3</ele>
        <time>2021-09-09T15:30:56Z</time>
      </trkpt>
      <trkpt lat="44.08332" lon="6.01614">
        <ele>436.3</ele>
        <time>2021-09-09T15:30:58Z</time>
      </trkpt>
      <trkpt lat="44.08332" lon="6.01615">
        <ele>436.3</ele>
        <time>2021-09-09T15:30:59Z</time>
      </trkpt>
      <trkpt lat="44.08335" lon="6.01613">
        <ele>436.3</ele>
        <time>2021-09-09T15:31:01Z</time>
      </trkpt>
      <trkpt lat="44.08336" lon="6.01612">
        <ele>436.3</ele>
        <time>2021-09-09T15:31:02Z</time>
      </trkpt>
      <trkpt lat="44.08336" lon="6.0161">
        <ele>436.3</ele>
        <time>2021-09-09T15:31:03Z</time>
      </trkpt>
      <trkpt lat="44.08336" lon="6.01608">
        <ele>436.3</ele>
        <time>2021-09-09T15:31:05Z</time>
      </trkpt>
      <trkpt lat="44.08337" lon="6.01607">
        <ele>436.3</ele>
        <time>2021-09-09T15:31:06Z</time>
      </trkpt>
      <trkpt lat="44.08338" lon="6.01607">
        <ele>436.3</ele>
        <time>2021-09-09T15:31:07Z</time>
      </trkpt>
      <trkpt lat="44.08339" lon="6.01609">
        <ele>436.3</ele>
        <time>2021-09-09T15:31:08Z</time>
      </trkpt>
      <trkpt lat="44.08339" lon="6.0161">
        <ele>436.3</ele>
        <time>2021-09-09T15:31:09Z</time>
      </trkpt>
      <trkpt lat="44.08339" lon="6.01611">
        <ele>436.3</ele>
        <time>2021-09-09T15:31:11Z</time>
      </trkpt>
      <trkpt lat="44.08339" lon="6.01612">
        <ele>436.3</ele>
        <time>2021-09-09T15:31:12Z</time>
      </trkpt>
      <trkpt lat="44.08339" lon="6.01613">
        <ele>436.3</ele>
        <time>2021-09-09T15:31:14Z</time>
      </trkpt>
      <trkpt lat="44.08338" lon="6.01614">
        <ele>436.3</ele>
        <time>2021-09-09T15:31:15Z</time>
      </trkpt>
      <trkpt lat="44.08337" lon="6.01616">
        <ele>436.3</ele>
        <time>2021-09-09T15:31:17Z</time>
      </trkpt>
      <trkpt lat="44.08332" lon="6.01622">
        <ele>436.3</ele>
        <time>2021-09-09T15:31:20Z</time>
      </trkpt>
      <trkpt lat="44.08329" lon="6.01626">
        <ele>436.3</ele>
        <time>2021-09-09T15:31:22Z</time>
      </trkpt>
      <trkpt lat="44.08326" lon="6.0163">
        <ele>436.3</ele>
        <time>2021-09-09T15:31:23Z</time>
      </trkpt>
      <trkpt lat="44.08324" lon="6.01633">
        <ele>436.3</ele>
        <time>2021-09-09T15:31:24Z</time>
      </trkpt>
      <trkpt lat="44.08323" lon="6.01634">
        <ele>436.3</ele>
        <time>2021-09-09T15:31:25Z</time>
      </trkpt>
      <trkpt lat="44.08323" lon="6.01635">
        <ele>436.3</ele>
        <time>2021-09-09T15:31:27Z</time>
      </trkpt>
      <trkpt lat="44.08323" lon="6.01635">
        <ele>436.3</ele>
        <time>2021-09-09T15:31:29Z</time>
      </trkpt>
      <trkpt lat="44.08322" lon="6.01635">
        <ele>436.3</ele>
        <time>2021-09-09T15:31:30Z</time>
      </trkpt>
      <trkpt lat="44.08322" lon="6.01635">
        <ele>436.3</ele>
        <time>2021-09-09T15:31:32Z</time>
      </trkpt>
      <trkpt lat="44.0834" lon="6.01615">
        <ele>436.3</ele>
        <time>2021-09-09T15:31:52Z</time>
      </trkpt>
      <trkpt lat="44.08337" lon="6.01617">
        <ele>436.3</ele>
        <time>2021-09-09T15:31:53Z</time>
      </trkpt>
      <trkpt lat="44.08328" lon="6.01627">
        <ele>436.3</ele>
        <time>2021-09-09T15:31:55Z</time>
      </trkpt>
      <trkpt lat="44.08318" lon="6.01637">
        <ele>436.3</ele>
        <time>2021-09-09T15:31:57Z</time>
      </trkpt>
      <trkpt lat="44.08301" lon="6.01653">
        <ele>436.4</ele>
        <time>2021-09-09T15:31:59Z</time>
      </trkpt>
      <trkpt lat="44.08294" lon="6.01658">
        <ele>436.4</ele>
        <time>2021-09-09T15:32:00Z</time>
      </trkpt>
      <trkpt lat="44.0829" lon="6.01661">
        <ele>436.5</ele>
        <time>2021-09-09T15:32:01Z</time>
      </trkpt>
      <trkpt lat="44.08286" lon="6.01663">
        <ele>436.5</ele>
        <time>2021-09-09T15:32:02Z</time>
      </trkpt>
      <trkpt lat="44.08279" lon="6.01667">
        <ele>436.6</ele>
        <time>2021-09-09T15:32:04Z</time>
      </trkpt>
      <trkpt lat="44.08278" lon="6.01669">
        <ele>436.6</ele>
        <time>2021-09-09T15:32:05Z</time>
      </trkpt>
      <trkpt lat="44.08276" lon="6.01672">
        <ele>436.6</ele>
        <time>2021-09-09T15:32:07Z</time>
      </trkpt>
      <trkpt lat="44.08275" lon="6.01674">
        <ele>436.6</ele>
        <time>2021-09-09T15:32:09Z</time>
      </trkpt>
      <trkpt lat="44.08275" lon="6.01674">
        <ele>436.6</ele>
        <time>2021-09-09T15:32:10Z</time>
      </trkpt>
      <trkpt lat="44.08273" lon="6.01675">
        <ele>436.6</ele>
        <time>2021-09-09T15:32:11Z</time>
      </trkpt>
      <trkpt lat="44.08272" lon="6.01675">
        <ele>436.7</ele>
        <time>2021-09-09T15:32:12Z</time>
      </trkpt>
      <trkpt lat="44.0827" lon="6.01676">
        <ele>436.7</ele>
        <time>2021-09-09T15:32:13Z</time>
      </trkpt>
      <trkpt lat="44.08269" lon="6.01679">
        <ele>436.7</ele>
        <time>2021-09-09T15:32:15Z</time>
      </trkpt>
      <trkpt lat="44.08266" lon="6.01689">
        <ele>437</ele>
        <time>2021-09-09T15:32:18Z</time>
      </trkpt>
      <trkpt lat="44.08265" lon="6.01705">
        <ele>436.5</ele>
        <time>2021-09-09T15:32:19Z</time>
      </trkpt>
      <trkpt lat="44.08265" lon="6.01725">
        <ele>436.3</ele>
        <time>2021-09-09T15:32:21Z</time>
      </trkpt>
      <trkpt lat="44.08265" lon="6.01736">
        <ele>436.1</ele>
        <time>2021-09-09T15:32:22Z</time>
      </trkpt>
      <trkpt lat="44.08264" lon="6.01753">
        <ele>435.9</ele>
        <time>2021-09-09T15:32:24Z</time>
      </trkpt>
      <trkpt lat="44.08265" lon="6.0176">
        <ele>435.7</ele>
        <time>2021-09-09T15:32:25Z</time>
      </trkpt>
      <trkpt lat="44.08268" lon="6.01769">
        <ele>435.5</ele>
        <time>2021-09-09T15:32:27Z</time>
      </trkpt>
      <trkpt lat="44.0827" lon="6.01774">
        <ele>435.4</ele>
        <time>2021-09-09T15:32:28Z</time>
      </trkpt>
      <trkpt lat="44.08276" lon="6.01784">
        <ele>435.1</ele>
        <time>2021-09-09T15:32:30Z</time>
      </trkpt>
      <trkpt lat="44.08284" lon="6.01794">
        <ele>434.7</ele>
        <time>2021-09-09T15:32:32Z</time>
      </trkpt>
      <trkpt lat="44.08288" lon="6.018">
        <ele>434.6</ele>
        <time>2021-09-09T15:32:33Z</time>
      </trkpt>
      <trkpt lat="44.08297" lon="6.0181">
        <ele>434.3</ele>
        <time>2021-09-09T15:32:35Z</time>
      </trkpt>
      <trkpt lat="44.08303" lon="6.01813">
        <ele>434.1</ele>
        <time>2021-09-09T15:32:36Z</time>
      </trkpt>
      <trkpt lat="44.08318" lon="6.01815">
        <ele>433.7</ele>
        <time>2021-09-09T15:32:38Z</time>
      </trkpt>
      <trkpt lat="44.08325" lon="6.01817">
        <ele>433.5</ele>
        <time>2021-09-09T15:32:39Z</time>
      </trkpt>
      <trkpt lat="44.08338" lon="6.01823">
        <ele>433.2</ele>
        <time>2021-09-09T15:32:41Z</time>
      </trkpt>
      <trkpt lat="44.08344" lon="6.01826">
        <ele>433.1</ele>
        <time>2021-09-09T15:32:42Z</time>
      </trkpt>
      <trkpt lat="44.08356" lon="6.01831">
        <ele>433</ele>
        <time>2021-09-09T15:32:44Z</time>
      </trkpt>
      <trkpt lat="44.0837" lon="6.01838">
        <ele>432.9</ele>
        <time>2021-09-09T15:32:46Z</time>
      </trkpt>
      <trkpt lat="44.08383" lon="6.01845">
        <ele>432.9</ele>
        <time>2021-09-09T15:32:48Z</time>
      </trkpt>
      <trkpt lat="44.08388" lon="6.01847">
        <ele>433</ele>
        <time>2021-09-09T15:32:49Z</time>
      </trkpt>
      <trkpt lat="44.08401" lon="6.01853">
        <ele>433.2</ele>
        <time>2021-09-09T15:32:51Z</time>
      </trkpt>
      <trkpt lat="44.08422" lon="6.0185">
        <ele>433.6</ele>
        <time>2021-09-09T15:32:53Z</time>
      </trkpt>
      <trkpt lat="44.08438" lon="6.01857">
        <ele>433.8</ele>
        <time>2021-09-09T15:32:55Z</time>
      </trkpt>
      <trkpt lat="44.08451" lon="6.01861">
        <ele>433.8</ele>
        <time>2021-09-09T15:32:57Z</time>
      </trkpt>
      <trkpt lat="44.08461" lon="6.01863">
        <ele>433.8</ele>
        <time>2021-09-09T15:32:59Z</time>
      </trkpt>
      <trkpt lat="44.08471" lon="6.01863">
        <ele>433.8</ele>
        <time>2021-09-09T15:33:01Z</time>
      </trkpt>
      <trkpt lat="44.08473" lon="6.01864">
        <ele>433.8</ele>
        <time>2021-09-09T15:33:02Z</time>
      </trkpt>
      <trkpt lat="44.08477" lon="6.01866">
        <ele>433.9</ele>
        <time>2021-09-09T15:33:04Z</time>
      </trkpt>
      <trkpt lat="44.08479" lon="6.01868">
        <ele>433.9</ele>
        <time>2021-09-09T15:33:05Z</time>
      </trkpt>
      <trkpt lat="44.08484" lon="6.01873">
        <ele>433.9</ele>
        <time>2021-09-09T15:33:07Z</time>
      </trkpt>
      <trkpt lat="44.08487" lon="6.01878">
        <ele>433.9</ele>
        <time>2021-09-09T15:33:09Z</time>
      </trkpt>
      <trkpt lat="44.08488" lon="6.01879">
        <ele>434</ele>
        <time>2021-09-09T15:33:11Z</time>
      </trkpt>
      <trkpt lat="44.08498" lon="6.01901">
        <ele>434.1</ele>
        <time>2021-09-09T15:33:16Z</time>
      </trkpt>
      <trkpt lat="44.08501" lon="6.01907">
        <ele>434.2</ele>
        <time>2021-09-09T15:33:17Z</time>
      </trkpt>
      <trkpt lat="44.08504" lon="6.01911">
        <ele>434.2</ele>
        <time>2021-09-09T15:33:18Z</time>
      </trkpt>
      <trkpt lat="44.08508" lon="6.01918">
        <ele>434.2</ele>
        <time>2021-09-09T15:33:19Z</time>
      </trkpt>
      <trkpt lat="44.08511" lon="6.01923">
        <ele>434.3</ele>
        <time>2021-09-09T15:33:20Z</time>
      </trkpt>
      <trkpt lat="44.08516" lon="6.01931">
        <ele>434.3</ele>
        <time>2021-09-09T15:33:22Z</time>
      </trkpt>
      <trkpt lat="44.0852" lon="6.01935">
        <ele>434.3</ele>
        <time>2021-09-09T15:33:23Z</time>
      </trkpt>
      <trkpt lat="44.0853" lon="6.01944">
        <ele>434.4</ele>
        <time>2021-09-09T15:33:24Z</time>
      </trkpt>
      <trkpt lat="44.08544" lon="6.01953">
        <ele>434.2</ele>
        <time>2021-09-09T15:33:26Z</time>
      </trkpt>
      <trkpt lat="44.0855" lon="6.01956">
        <ele>434.2</ele>
        <time>2021-09-09T15:33:27Z</time>
      </trkpt>
      <trkpt lat="44.08555" lon="6.01959">
        <ele>434.1</ele>
        <time>2021-09-09T15:33:28Z</time>
      </trkpt>
      <trkpt lat="44.0856" lon="6.01962">
        <ele>434.1</ele>
        <time>2021-09-09T15:33:30Z</time>
      </trkpt>
      <trkpt lat="44.08567" lon="6.01967">
        <ele>434.1</ele>
        <time>2021-09-09T15:33:31Z</time>
      </trkpt>
      <trkpt lat="44.08579" lon="6.01975">
        <ele>434.1</ele>
        <time>2021-09-09T15:33:33Z</time>
      </trkpt>
      <trkpt lat="44.08589" lon="6.01982">
        <ele>434.1</ele>
        <time>2021-09-09T15:33:35Z</time>
      </trkpt>
      <trkpt lat="44.08599" lon="6.01989">
        <ele>434.3</ele>
        <time>2021-09-09T15:33:37Z</time>
      </trkpt>
      <trkpt lat="44.08604" lon="6.01992">
        <ele>434.3</ele>
        <time>2021-09-09T15:33:38Z</time>
      </trkpt>
      <trkpt lat="44.08614" lon="6.01996">
        <ele>434.5</ele>
        <time>2021-09-09T15:33:40Z</time>
      </trkpt>
      <trkpt lat="44.08624" lon="6.02">
        <ele>434.6</ele>
        <time>2021-09-09T15:33:42Z</time>
      </trkpt>
      <trkpt lat="44.08629" lon="6.02002">
        <ele>434.7</ele>
        <time>2021-09-09T15:33:43Z</time>
      </trkpt>
      <trkpt lat="44.08633" lon="6.02003">
        <ele>434.7</ele>
        <time>2021-09-09T15:33:44Z</time>
      </trkpt>
      <trkpt lat="44.08642" lon="6.02008">
        <ele>434.8</ele>
        <time>2021-09-09T15:33:46Z</time>
      </trkpt>
      <trkpt lat="44.08646" lon="6.0201">
        <ele>434.9</ele>
        <time>2021-09-09T15:33:47Z</time>
      </trkpt>
      <trkpt lat="44.08654" lon="6.02015">
        <ele>435</ele>
        <time>2021-09-09T15:33:49Z</time>
      </trkpt>
      <trkpt lat="44.08658" lon="6.02018">
        <ele>435</ele>
        <time>2021-09-09T15:33:50Z</time>
      </trkpt>
      <trkpt lat="44.08661" lon="6.0202">
        <ele>435.1</ele>
        <time>2021-09-09T15:33:51Z</time>
      </trkpt>
      <trkpt lat="44.08666" lon="6.02025">
        <ele>435.2</ele>
        <time>2021-09-09T15:33:53Z</time>
      </trkpt>
      <trkpt lat="44.08669" lon="6.02028">
        <ele>435.2</ele>
        <time>2021-09-09T15:33:54Z</time>
      </trkpt>
      <trkpt lat="44.08674" lon="6.02035">
        <ele>435.2</ele>
        <time>2021-09-09T15:33:56Z</time>
      </trkpt>
      <trkpt lat="44.08678" lon="6.02042">
        <ele>435.3</ele>
        <time>2021-09-09T15:33:58Z</time>
      </trkpt>
      <trkpt lat="44.08681" lon="6.02045">
        <ele>435.3</ele>
        <time>2021-09-09T15:33:59Z</time>
      </trkpt>
      <trkpt lat="44.08685" lon="6.02047">
        <ele>435.4</ele>
        <time>2021-09-09T15:34:01Z</time>
      </trkpt>
      <trkpt lat="44.08691" lon="6.02052">
        <ele>435.4</ele>
        <time>2021-09-09T15:34:02Z</time>
      </trkpt>
      <trkpt lat="44.08699" lon="6.02059">
        <ele>435.4</ele>
        <time>2021-09-09T15:34:04Z</time>
      </trkpt>
      <trkpt lat="44.08705" lon="6.02064">
        <ele>435.5</ele>
        <time>2021-09-09T15:34:06Z</time>
      </trkpt>
      <trkpt lat="44.08709" lon="6.02068">
        <ele>435.5</ele>
        <time>2021-09-09T15:34:07Z</time>
      </trkpt>
      <trkpt lat="44.08714" lon="6.02071">
        <ele>435.6</ele>
        <time>2021-09-09T15:34:08Z</time>
      </trkpt>
      <trkpt lat="44.08718" lon="6.02073">
        <ele>435.6</ele>
        <time>2021-09-09T15:34:09Z</time>
      </trkpt>
      <trkpt lat="44.08724" lon="6.02076">
        <ele>435.7</ele>
        <time>2021-09-09T15:34:10Z</time>
      </trkpt>
      <trkpt lat="44.08728" lon="6.02078">
        <ele>435.8</ele>
        <time>2021-09-09T15:34:11Z</time>
      </trkpt>
      <trkpt lat="44.08734" lon="6.02079">
        <ele>435.9</ele>
        <time>2021-09-09T15:34:13Z</time>
      </trkpt>
      <trkpt lat="44.0874" lon="6.02076">
        <ele>435.9</ele>
        <time>2021-09-09T15:34:14Z</time>
      </trkpt>
      <trkpt lat="44.08744" lon="6.02074">
        <ele>436</ele>
        <time>2021-09-09T15:34:15Z</time>
      </trkpt>
      <trkpt lat="44.08748" lon="6.02072">
        <ele>436</ele>
        <time>2021-09-09T15:34:16Z</time>
      </trkpt>
      <trkpt lat="44.08754" lon="6.02068">
        <ele>436.1</ele>
        <time>2021-09-09T15:34:18Z</time>
      </trkpt>
      <trkpt lat="44.08759" lon="6.02069">
        <ele>436.1</ele>
        <time>2021-09-09T15:34:20Z</time>
      </trkpt>
      <trkpt lat="44.08763" lon="6.02069">
        <ele>436.1</ele>
        <time>2021-09-09T15:34:21Z</time>
      </trkpt>
      <trkpt lat="44.08767" lon="6.0207">
        <ele>436.1</ele>
        <time>2021-09-09T15:34:22Z</time>
      </trkpt>
      <trkpt lat="44.08771" lon="6.02071">
        <ele>436.1</ele>
        <time>2021-09-09T15:34:23Z</time>
      </trkpt>
      <trkpt lat="44.08777" lon="6.02073">
        <ele>436.1</ele>
        <time>2021-09-09T15:34:25Z</time>
      </trkpt>
      <trkpt lat="44.08781" lon="6.02074">
        <ele>436.1</ele>
        <time>2021-09-09T15:34:26Z</time>
      </trkpt>
      <trkpt lat="44.08787" lon="6.02076">
        <ele>436.1</ele>
        <time>2021-09-09T15:34:27Z</time>
      </trkpt>
      <trkpt lat="44.08791" lon="6.02078">
        <ele>436</ele>
        <time>2021-09-09T15:34:28Z</time>
      </trkpt>
      <trkpt lat="44.08792" lon="6.02083">
        <ele>436</ele>
        <time>2021-09-09T15:34:30Z</time>
      </trkpt>
      <trkpt lat="44.08801" lon="6.02085">
        <ele>436</ele>
        <time>2021-09-09T15:34:32Z</time>
      </trkpt>
      <trkpt lat="44.08811" lon="6.02086">
        <ele>435.9</ele>
        <time>2021-09-09T15:34:34Z</time>
      </trkpt>
      <trkpt lat="44.08818" lon="6.02087">
        <ele>435.9</ele>
        <time>2021-09-09T15:34:36Z</time>
      </trkpt>
      <trkpt lat="44.08822" lon="6.02088">
        <ele>435.9</ele>
        <time>2021-09-09T15:34:37Z</time>
      </trkpt>
      <trkpt lat="44.08826" lon="6.0209">
        <ele>435.9</ele>
        <time>2021-09-09T15:34:38Z</time>
      </trkpt>
      <trkpt lat="44.08834" lon="6.02096">
        <ele>435.8</ele>
        <time>2021-09-09T15:34:40Z</time>
      </trkpt>
      <trkpt lat="44.08841" lon="6.021">
        <ele>435.2</ele>
        <time>2021-09-09T15:34:42Z</time>
      </trkpt>
      <trkpt lat="44.08849" lon="6.02106">
        <ele>434.8</ele>
        <time>2021-09-09T15:34:44Z</time>
      </trkpt>
      <trkpt lat="44.08854" lon="6.02108">
        <ele>434.6</ele>
        <time>2021-09-09T15:34:45Z</time>
      </trkpt>
      <trkpt lat="44.08863" lon="6.02115">
        <ele>434.2</ele>
        <time>2021-09-09T15:34:47Z</time>
      </trkpt>
      <trkpt lat="44.08873" lon="6.02122">
        <ele>434.1</ele>
        <time>2021-09-09T15:34:49Z</time>
      </trkpt>
      <trkpt lat="44.08882" lon="6.02128">
        <ele>434</ele>
        <time>2021-09-09T15:34:51Z</time>
      </trkpt>
      <trkpt lat="44.08887" lon="6.02129">
        <ele>433.9</ele>
        <time>2021-09-09T15:34:52Z</time>
      </trkpt>
      <trkpt lat="44.08891" lon="6.02128">
        <ele>433.9</ele>
        <time>2021-09-09T15:34:53Z</time>
      </trkpt>
      <trkpt lat="44.08894" lon="6.02127">
        <ele>433.8</ele>
        <time>2021-09-09T15:34:54Z</time>
      </trkpt>
      <trkpt lat="44.08899" lon="6.02126">
        <ele>433.8</ele>
        <time>2021-09-09T15:34:55Z</time>
      </trkpt>
      <trkpt lat="44.08911" lon="6.02125">
        <ele>433.8</ele>
        <time>2021-09-09T15:34:57Z</time>
      </trkpt>
      <trkpt lat="44.08925" lon="6.02124">
        <ele>433.8</ele>
        <time>2021-09-09T15:34:59Z</time>
      </trkpt>
      <trkpt lat="44.08932" lon="6.02124">
        <ele>433.8</ele>
        <time>2021-09-09T15:35:00Z</time>
      </trkpt>
      <trkpt lat="44.08944" lon="6.02124">
        <ele>433.8</ele>
        <time>2021-09-09T15:35:02Z</time>
      </trkpt>
      <trkpt lat="44.08949" lon="6.02125">
        <ele>433.8</ele>
        <time>2021-09-09T15:35:03Z</time>
      </trkpt>
      <trkpt lat="44.08961" lon="6.02129">
        <ele>433.8</ele>
        <time>2021-09-09T15:35:05Z</time>
      </trkpt>
      <trkpt lat="44.08966" lon="6.02132">
        <ele>433.8</ele>
        <time>2021-09-09T15:35:06Z</time>
      </trkpt>
      <trkpt lat="44.08975" lon="6.02138">
        <ele>433.8</ele>
        <time>2021-09-09T15:35:08Z</time>
      </trkpt>
      <trkpt lat="44.08978" lon="6.0214">
        <ele>433.9</ele>
        <time>2021-09-09T15:35:09Z</time>
      </trkpt>
      <trkpt lat="44.08985" lon="6.02143">
        <ele>433.9</ele>
        <time>2021-09-09T15:35:11Z</time>
      </trkpt>
      <trkpt lat="44.08992" lon="6.02146">
        <ele>433.9</ele>
        <time>2021-09-09T15:35:13Z</time>
      </trkpt>
      <trkpt lat="44.08996" lon="6.02147">
        <ele>433.9</ele>
        <time>2021-09-09T15:35:14Z</time>
      </trkpt>
      <trkpt lat="44.09001" lon="6.02149">
        <ele>433.9</ele>
        <time>2021-09-09T15:35:16Z</time>
      </trkpt>
      <trkpt lat="44.09005" lon="6.0215">
        <ele>433.9</ele>
        <time>2021-09-09T15:35:17Z</time>
      </trkpt>
      <trkpt lat="44.09009" lon="6.02151">
        <ele>433.9</ele>
        <time>2021-09-09T15:35:18Z</time>
      </trkpt>
      <trkpt lat="44.09013" lon="6.02152">
        <ele>433.9</ele>
        <time>2021-09-09T15:35:19Z</time>
      </trkpt>
      <trkpt lat="44.09015" lon="6.02155">
        <ele>433.9</ele>
        <time>2021-09-09T15:35:20Z</time>
      </trkpt>
      <trkpt lat="44.09017" lon="6.0216">
        <ele>433.9</ele>
        <time>2021-09-09T15:35:22Z</time>
      </trkpt>
      <trkpt lat="44.09021" lon="6.02162">
        <ele>433.9</ele>
        <time>2021-09-09T15:35:23Z</time>
      </trkpt>
      <trkpt lat="44.09026" lon="6.02164">
        <ele>433.9</ele>
        <time>2021-09-09T15:35:25Z</time>
      </trkpt>
      <trkpt lat="44.09039" lon="6.02165">
        <ele>433.9</ele>
        <time>2021-09-09T15:35:26Z</time>
      </trkpt>
      <trkpt lat="44.09046" lon="6.02164">
        <ele>433.9</ele>
        <time>2021-09-09T15:35:27Z</time>
      </trkpt>
      <trkpt lat="44.09056" lon="6.02168">
        <ele>434</ele>
        <time>2021-09-09T15:35:29Z</time>
      </trkpt>
      <trkpt lat="44.0906" lon="6.02166">
        <ele>434</ele>
        <time>2021-09-09T15:35:30Z</time>
      </trkpt>
      <trkpt lat="44.09064" lon="6.02166">
        <ele>434</ele>
        <time>2021-09-09T15:35:31Z</time>
      </trkpt>
      <trkpt lat="44.09068" lon="6.02167">
        <ele>434</ele>
        <time>2021-09-09T15:35:32Z</time>
      </trkpt>
      <trkpt lat="44.09072" lon="6.0217">
        <ele>434</ele>
        <time>2021-09-09T15:35:34Z</time>
      </trkpt>
      <trkpt lat="44.09079" lon="6.02172">
        <ele>433.9</ele>
        <time>2021-09-09T15:35:35Z</time>
      </trkpt>
      <trkpt lat="44.09086" lon="6.02175">
        <ele>433.9</ele>
        <time>2021-09-09T15:35:36Z</time>
      </trkpt>
      <trkpt lat="44.09096" lon="6.02178">
        <ele>434</ele>
        <time>2021-09-09T15:35:38Z</time>
      </trkpt>
      <trkpt lat="44.09102" lon="6.0218">
        <ele>434</ele>
        <time>2021-09-09T15:35:39Z</time>
      </trkpt>
      <trkpt lat="44.09112" lon="6.02181">
        <ele>434.2</ele>
        <time>2021-09-09T15:35:41Z</time>
      </trkpt>
      <trkpt lat="44.09117" lon="6.02181">
        <ele>434.2</ele>
        <time>2021-09-09T15:35:42Z</time>
      </trkpt>
      <trkpt lat="44.0912" lon="6.02181">
        <ele>434.3</ele>
        <time>2021-09-09T15:35:43Z</time>
      </trkpt>
      <trkpt lat="44.09124" lon="6.02181">
        <ele>434.4</ele>
        <time>2021-09-09T15:35:44Z</time>
      </trkpt>
      <trkpt lat="44.09128" lon="6.02181">
        <ele>434.5</ele>
        <time>2021-09-09T15:35:45Z</time>
      </trkpt>
      <trkpt lat="44.09135" lon="6.02181">
        <ele>434.7</ele>
        <time>2021-09-09T15:35:47Z</time>
      </trkpt>
      <trkpt lat="44.0914" lon="6.02181">
        <ele>434.8</ele>
        <time>2021-09-09T15:35:49Z</time>
      </trkpt>
      <trkpt lat="44.09144" lon="6.02181">
        <ele>434.9</ele>
        <time>2021-09-09T15:35:50Z</time>
      </trkpt>
      <trkpt lat="44.09151" lon="6.02183">
        <ele>435.1</ele>
        <time>2021-09-09T15:35:52Z</time>
      </trkpt>
      <trkpt lat="44.09154" lon="6.02184">
        <ele>435.3</ele>
        <time>2021-09-09T15:35:53Z</time>
      </trkpt>
      <trkpt lat="44.09157" lon="6.02184">
        <ele>435.3</ele>
        <time>2021-09-09T15:35:54Z</time>
      </trkpt>
      <trkpt lat="44.09158" lon="6.02184">
        <ele>435.4</ele>
        <time>2021-09-09T15:35:55Z</time>
      </trkpt>
      <trkpt lat="44.0916" lon="6.02185">
        <ele>435.4</ele>
        <time>2021-09-09T15:35:56Z</time>
      </trkpt>
      <trkpt lat="44.09163" lon="6.02185">
        <ele>435.5</ele>
        <time>2021-09-09T15:35:58Z</time>
      </trkpt>
      <trkpt lat="44.09167" lon="6.02183">
        <ele>435.6</ele>
        <time>2021-09-09T15:36:00Z</time>
      </trkpt>
      <trkpt lat="44.09169" lon="6.02183">
        <ele>435.6</ele>
        <time>2021-09-09T15:36:01Z</time>
      </trkpt>
      <trkpt lat="44.0917" lon="6.02183">
        <ele>435.7</ele>
        <time>2021-09-09T15:36:02Z</time>
      </trkpt>
      <trkpt lat="44.09174" lon="6.02181">
        <ele>435.7</ele>
        <time>2021-09-09T15:36:04Z</time>
      </trkpt>
      <trkpt lat="44.09177" lon="6.0218">
        <ele>435.8</ele>
        <time>2021-09-09T15:36:05Z</time>
      </trkpt>
      <trkpt lat="44.09182" lon="6.02181">
        <ele>435.8</ele>
        <time>2021-09-09T15:36:07Z</time>
      </trkpt>
      <trkpt lat="44.09184" lon="6.02182">
        <ele>435.8</ele>
        <time>2021-09-09T15:36:08Z</time>
      </trkpt>
      <trkpt lat="44.09188" lon="6.02182">
        <ele>435.9</ele>
        <time>2021-09-09T15:36:09Z</time>
      </trkpt>
      <trkpt lat="44.09192" lon="6.0218">
        <ele>435.9</ele>
        <time>2021-09-09T15:36:11Z</time>
      </trkpt>
      <trkpt lat="44.09196" lon="6.02179">
        <ele>435.8</ele>
        <time>2021-09-09T15:36:12Z</time>
      </trkpt>
      <trkpt lat="44.09202" lon="6.02177">
        <ele>435.8</ele>
        <time>2021-09-09T15:36:13Z</time>
      </trkpt>
      <trkpt lat="44.09206" lon="6.02174">
        <ele>435.7</ele>
        <time>2021-09-09T15:36:14Z</time>
      </trkpt>
      <trkpt lat="44.09214" lon="6.02167">
        <ele>435.4</ele>
        <time>2021-09-09T15:36:15Z</time>
      </trkpt>
      <trkpt lat="44.09219" lon="6.02162">
        <ele>435.3</ele>
        <time>2021-09-09T15:36:16Z</time>
      </trkpt>
      <trkpt lat="44.09227" lon="6.02151">
        <ele>435</ele>
        <time>2021-09-09T15:36:18Z</time>
      </trkpt>
      <trkpt lat="44.0923" lon="6.02146">
        <ele>434.9</ele>
        <time>2021-09-09T15:36:19Z</time>
      </trkpt>
      <trkpt lat="44.09233" lon="6.02142">
        <ele>434.9</ele>
        <time>2021-09-09T15:36:20Z</time>
      </trkpt>
      <trkpt lat="44.09238" lon="6.02138">
        <ele>434.8</ele>
        <time>2021-09-09T15:36:22Z</time>
      </trkpt>
      <trkpt lat="44.09248" lon="6.02138">
        <ele>434.8</ele>
        <time>2021-09-09T15:36:23Z</time>
      </trkpt>
      <trkpt lat="44.09254" lon="6.02138">
        <ele>434.8</ele>
        <time>2021-09-09T15:36:24Z</time>
      </trkpt>
      <trkpt lat="44.09259" lon="6.02138">
        <ele>434.8</ele>
        <time>2021-09-09T15:36:25Z</time>
      </trkpt>
      <trkpt lat="44.09263" lon="6.02139">
        <ele>434.8</ele>
        <time>2021-09-09T15:36:26Z</time>
      </trkpt>
      <trkpt lat="44.09267" lon="6.0214">
        <ele>434.7</ele>
        <time>2021-09-09T15:36:27Z</time>
      </trkpt>
      <trkpt lat="44.09271" lon="6.02142">
        <ele>434.7</ele>
        <time>2021-09-09T15:36:29Z</time>
      </trkpt>
      <trkpt lat="44.09277" lon="6.02144">
        <ele>434.6</ele>
        <time>2021-09-09T15:36:30Z</time>
      </trkpt>
      <trkpt lat="44.09283" lon="6.02148">
        <ele>434.6</ele>
        <time>2021-09-09T15:36:32Z</time>
      </trkpt>
      <trkpt lat="44.09292" lon="6.02153">
        <ele>434.4</ele>
        <time>2021-09-09T15:36:33Z</time>
      </trkpt>
      <trkpt lat="44.09299" lon="6.0216">
        <ele>434.4</ele>
        <time>2021-09-09T15:36:35Z</time>
      </trkpt>
      <trkpt lat="44.09303" lon="6.02165">
        <ele>434.4</ele>
        <time>2021-09-09T15:36:37Z</time>
      </trkpt>
      <trkpt lat="44.09307" lon="6.02172">
        <ele>434.4</ele>
        <time>2021-09-09T15:36:38Z</time>
      </trkpt>
      <trkpt lat="44.09311" lon="6.02179">
        <ele>434.5</ele>
        <time>2021-09-09T15:36:40Z</time>
      </trkpt>
      <trkpt lat="44.09314" lon="6.02185">
        <ele>434.6</ele>
        <time>2021-09-09T15:36:41Z</time>
      </trkpt>
      <trkpt lat="44.09318" lon="6.02192">
        <ele>434.8</ele>
        <time>2021-09-09T15:36:43Z</time>
      </trkpt>
      <trkpt lat="44.09321" lon="6.022">
        <ele>435</ele>
        <time>2021-09-09T15:36:45Z</time>
      </trkpt>
      <trkpt lat="44.09324" lon="6.02206">
        <ele>435.2</ele>
        <time>2021-09-09T15:36:46Z</time>
      </trkpt>
      <trkpt lat="44.09328" lon="6.02209">
        <ele>435.4</ele>
        <time>2021-09-09T15:36:48Z</time>
      </trkpt>
      <trkpt lat="44.09331" lon="6.02208">
        <ele>435.6</ele>
        <time>2021-09-09T15:36:49Z</time>
      </trkpt>
      <trkpt lat="44.09333" lon="6.02208">
        <ele>435.7</ele>
        <time>2021-09-09T15:36:50Z</time>
      </trkpt>
      <trkpt lat="44.09335" lon="6.02208">
        <ele>435.7</ele>
        <time>2021-09-09T15:36:52Z</time>
      </trkpt>
      <trkpt lat="44.09336" lon="6.0221">
        <ele>435.8</ele>
        <time>2021-09-09T15:36:53Z</time>
      </trkpt>
      <trkpt lat="44.09339" lon="6.02213">
        <ele>436</ele>
        <time>2021-09-09T15:36:54Z</time>
      </trkpt>
      <trkpt lat="44.09341" lon="6.02215">
        <ele>436.1</ele>
        <time>2021-09-09T15:36:56Z</time>
      </trkpt>
      <trkpt lat="44.09342" lon="6.02217">
        <ele>436.2</ele>
        <time>2021-09-09T15:36:57Z</time>
      </trkpt>
      <trkpt lat="44.09344" lon="6.02221">
        <ele>436.4</ele>
        <time>2021-09-09T15:36:58Z</time>
      </trkpt>
      <trkpt lat="44.09345" lon="6.02222">
        <ele>436.4</ele>
        <time>2021-09-09T15:36:59Z</time>
      </trkpt>
      <trkpt lat="44.09346" lon="6.02223">
        <ele>436.5</ele>
        <time>2021-09-09T15:37:00Z</time>
      </trkpt>
      <trkpt lat="44.09348" lon="6.0223">
        <ele>436.7</ele>
        <time>2021-09-09T15:37:02Z</time>
      </trkpt>
      <trkpt lat="44.0935" lon="6.02245">
        <ele>436.9</ele>
        <time>2021-09-09T15:37:04Z</time>
      </trkpt>
      <trkpt lat="44.09351" lon="6.02257">
        <ele>436.9</ele>
        <time>2021-09-09T15:37:05Z</time>
      </trkpt>
      <trkpt lat="44.09352" lon="6.02265">
        <ele>436.8</ele>
        <time>2021-09-09T15:37:06Z</time>
      </trkpt>
      <trkpt lat="44.09352" lon="6.02269">
        <ele>436.8</ele>
        <time>2021-09-09T15:37:07Z</time>
      </trkpt>
      <trkpt lat="44.09357" lon="6.02277">
        <ele>436.7</ele>
        <time>2021-09-09T15:37:09Z</time>
      </trkpt>
      <trkpt lat="44.09363" lon="6.02289">
        <ele>436.6</ele>
        <time>2021-09-09T15:37:11Z</time>
      </trkpt>
      <trkpt lat="44.09368" lon="6.02293">
        <ele>436.6</ele>
        <time>2021-09-09T15:37:12Z</time>
      </trkpt>
      <trkpt lat="44.09373" lon="6.02294">
        <ele>436.6</ele>
        <time>2021-09-09T15:37:13Z</time>
      </trkpt>
      <trkpt lat="44.09391" lon="6.02286">
        <ele>436.6</ele>
        <time>2021-09-09T15:37:15Z</time>
      </trkpt>
      <trkpt lat="44.09395" lon="6.02287">
        <ele>436.6</ele>
        <time>2021-09-09T15:37:16Z</time>
      </trkpt>
      <trkpt lat="44.09403" lon="6.02291">
        <ele>436.6</ele>
        <time>2021-09-09T15:37:18Z</time>
      </trkpt>
      <trkpt lat="44.09409" lon="6.02291">
        <ele>436.6</ele>
        <time>2021-09-09T15:37:19Z</time>
      </trkpt>
      <trkpt lat="44.09413" lon="6.02292">
        <ele>436.6</ele>
        <time>2021-09-09T15:37:20Z</time>
      </trkpt>
      <trkpt lat="44.09419" lon="6.02293">
        <ele>436.6</ele>
        <time>2021-09-09T15:37:22Z</time>
      </trkpt>
      <trkpt lat="44.09426" lon="6.02294">
        <ele>436.5</ele>
        <time>2021-09-09T15:37:23Z</time>
      </trkpt>
      <trkpt lat="44.09434" lon="6.02297">
        <ele>436.5</ele>
        <time>2021-09-09T15:37:24Z</time>
      </trkpt>
      <trkpt lat="44.09439" lon="6.023">
        <ele>436.5</ele>
        <time>2021-09-09T15:37:25Z</time>
      </trkpt>
      <trkpt lat="44.09443" lon="6.02302">
        <ele>436.5</ele>
        <time>2021-09-09T15:37:26Z</time>
      </trkpt>
      <trkpt lat="44.09452" lon="6.02306">
        <ele>436.5</ele>
        <time>2021-09-09T15:37:28Z</time>
      </trkpt>
      <trkpt lat="44.09457" lon="6.02308">
        <ele>436.5</ele>
        <time>2021-09-09T15:37:29Z</time>
      </trkpt>
      <trkpt lat="44.09463" lon="6.02312">
        <ele>436.6</ele>
        <time>2021-09-09T15:37:31Z</time>
      </trkpt>
      <trkpt lat="44.0947" lon="6.02315">
        <ele>436.7</ele>
        <time>2021-09-09T15:37:33Z</time>
      </trkpt>
      <trkpt lat="44.09475" lon="6.02314">
        <ele>436.8</ele>
        <time>2021-09-09T15:37:34Z</time>
      </trkpt>
      <trkpt lat="44.0948" lon="6.02314">
        <ele>436.8</ele>
        <time>2021-09-09T15:37:36Z</time>
      </trkpt>
      <trkpt lat="44.09483" lon="6.02314">
        <ele>436.9</ele>
        <time>2021-09-09T15:37:37Z</time>
      </trkpt>
      <trkpt lat="44.09487" lon="6.02314">
        <ele>436.9</ele>
        <time>2021-09-09T15:37:38Z</time>
      </trkpt>
      <trkpt lat="44.0949" lon="6.02316">
        <ele>436.9</ele>
        <time>2021-09-09T15:37:39Z</time>
      </trkpt>
      <trkpt lat="44.09495" lon="6.02318">
        <ele>437</ele>
        <time>2021-09-09T15:37:40Z</time>
      </trkpt>
      <trkpt lat="44.09498" lon="6.0232">
        <ele>437</ele>
        <time>2021-09-09T15:37:41Z</time>
      </trkpt>
      <trkpt lat="44.09502" lon="6.02322">
        <ele>437</ele>
        <time>2021-09-09T15:37:43Z</time>
      </trkpt>
      <trkpt lat="44.09508" lon="6.02323">
        <ele>437</ele>
        <time>2021-09-09T15:37:44Z</time>
      </trkpt>
      <trkpt lat="44.09514" lon="6.02324">
        <ele>436.9</ele>
        <time>2021-09-09T15:37:45Z</time>
      </trkpt>
      <trkpt lat="44.0952" lon="6.02326">
        <ele>436.9</ele>
        <time>2021-09-09T15:37:47Z</time>
      </trkpt>
      <trkpt lat="44.09526" lon="6.02328">
        <ele>436.9</ele>
        <time>2021-09-09T15:37:49Z</time>
      </trkpt>
      <trkpt lat="44.0953" lon="6.02329">
        <ele>436.9</ele>
        <time>2021-09-09T15:37:50Z</time>
      </trkpt>
      <trkpt lat="44.09536" lon="6.02331">
        <ele>436.8</ele>
        <time>2021-09-09T15:37:52Z</time>
      </trkpt>
      <trkpt lat="44.09541" lon="6.02332">
        <ele>436.8</ele>
        <time>2021-09-09T15:37:53Z</time>
      </trkpt>
      <trkpt lat="44.0955" lon="6.02336">
        <ele>436.7</ele>
        <time>2021-09-09T15:37:54Z</time>
      </trkpt>
      <trkpt lat="44.09559" lon="6.02339">
        <ele>436.6</ele>
        <time>2021-09-09T15:37:56Z</time>
      </trkpt>
      <trkpt lat="44.09569" lon="6.02342">
        <ele>436.5</ele>
        <time>2021-09-09T15:37:57Z</time>
      </trkpt>
      <trkpt lat="44.09579" lon="6.02346">
        <ele>436.4</ele>
        <time>2021-09-09T15:37:59Z</time>
      </trkpt>
      <trkpt lat="44.09584" lon="6.02348">
        <ele>436.4</ele>
        <time>2021-09-09T15:38:00Z</time>
      </trkpt>
      <trkpt lat="44.09593" lon="6.02352">
        <ele>436.3</ele>
        <time>2021-09-09T15:38:02Z</time>
      </trkpt>
      <trkpt lat="44.09597" lon="6.02354">
        <ele>436.2</ele>
        <time>2021-09-09T15:38:04Z</time>
      </trkpt>
      <trkpt lat="44.09604" lon="6.02358">
        <ele>436.1</ele>
        <time>2021-09-09T15:38:05Z</time>
      </trkpt>
      <trkpt lat="44.09611" lon="6.02362">
        <ele>435.9</ele>
        <time>2021-09-09T15:38:07Z</time>
      </trkpt>
      <trkpt lat="44.09619" lon="6.02366">
        <ele>435.7</ele>
        <time>2021-09-09T15:38:08Z</time>
      </trkpt>
      <trkpt lat="44.09629" lon="6.02371">
        <ele>435.5</ele>
        <time>2021-09-09T15:38:10Z</time>
      </trkpt>
      <trkpt lat="44.09635" lon="6.02375">
        <ele>435.4</ele>
        <time>2021-09-09T15:38:11Z</time>
      </trkpt>
      <trkpt lat="44.09641" lon="6.02379">
        <ele>435.3</ele>
        <time>2021-09-09T15:38:12Z</time>
      </trkpt>
      <trkpt lat="44.09651" lon="6.02387">
        <ele>435.1</ele>
        <time>2021-09-09T15:38:14Z</time>
      </trkpt>
      <trkpt lat="44.09656" lon="6.02392">
        <ele>435.1</ele>
        <time>2021-09-09T15:38:15Z</time>
      </trkpt>
      <trkpt lat="44.09664" lon="6.02403">
        <ele>435</ele>
        <time>2021-09-09T15:38:17Z</time>
      </trkpt>
      <trkpt lat="44.09673" lon="6.0241">
        <ele>434.9</ele>
        <time>2021-09-09T15:38:19Z</time>
      </trkpt>
      <trkpt lat="44.09681" lon="6.02415">
        <ele>434.9</ele>
        <time>2021-09-09T15:38:21Z</time>
      </trkpt>
      <trkpt lat="44.09685" lon="6.02417">
        <ele>434.9</ele>
        <time>2021-09-09T15:38:22Z</time>
      </trkpt>
      <trkpt lat="44.09692" lon="6.02418">
        <ele>435</ele>
        <time>2021-09-09T15:38:24Z</time>
      </trkpt>
      <trkpt lat="44.09696" lon="6.02417">
        <ele>435</ele>
        <time>2021-09-09T15:38:25Z</time>
      </trkpt>
      <trkpt lat="44.097" lon="6.02417">
        <ele>435.1</ele>
        <time>2021-09-09T15:38:26Z</time>
      </trkpt>
      <trkpt lat="44.09705" lon="6.02416">
        <ele>435.2</ele>
        <time>2021-09-09T15:38:27Z</time>
      </trkpt>
      <trkpt lat="44.09708" lon="6.02416">
        <ele>435.2</ele>
        <time>2021-09-09T15:38:28Z</time>
      </trkpt>
      <trkpt lat="44.09716" lon="6.02415">
        <ele>435.3</ele>
        <time>2021-09-09T15:38:30Z</time>
      </trkpt>
      <trkpt lat="44.0972" lon="6.02414">
        <ele>435.3</ele>
        <time>2021-09-09T15:38:31Z</time>
      </trkpt>
      <trkpt lat="44.09723" lon="6.02413">
        <ele>435.4</ele>
        <time>2021-09-09T15:38:32Z</time>
      </trkpt>
      <trkpt lat="44.09727" lon="6.02412">
        <ele>435.4</ele>
        <time>2021-09-09T15:38:33Z</time>
      </trkpt>
      <trkpt lat="44.09732" lon="6.02412">
        <ele>435.4</ele>
        <time>2021-09-09T15:38:35Z</time>
      </trkpt>
      <trkpt lat="44.09737" lon="6.02412">
        <ele>435.4</ele>
        <time>2021-09-09T15:38:36Z</time>
      </trkpt>
      <trkpt lat="44.09742" lon="6.02408">
        <ele>435.3</ele>
        <time>2021-09-09T15:38:38Z</time>
      </trkpt>
      <trkpt lat="44.09739" lon="6.02408">
        <ele>435.3</ele>
        <time>2021-09-09T15:38:40Z</time>
      </trkpt>
      <trkpt lat="44.09737" lon="6.02408">
        <ele>435.3</ele>
        <time>2021-09-09T15:38:41Z</time>
      </trkpt>
      <trkpt lat="44.0974" lon="6.02409">
        <ele>435.3</ele>
        <time>2021-09-09T15:38:42Z</time>
      </trkpt>
      <trkpt lat="44.09746" lon="6.02411">
        <ele>435.3</ele>
        <time>2021-09-09T15:38:43Z</time>
      </trkpt>
      <trkpt lat="44.09751" lon="6.02412">
        <ele>435.2</ele>
        <time>2021-09-09T15:38:44Z</time>
      </trkpt>
      <trkpt lat="44.09756" lon="6.02414">
        <ele>435.2</ele>
        <time>2021-09-09T15:38:46Z</time>
      </trkpt>
      <trkpt lat="44.09761" lon="6.02415">
        <ele>435.1</ele>
        <time>2021-09-09T15:38:48Z</time>
      </trkpt>
      <trkpt lat="44.09767" lon="6.02417">
        <ele>435.1</ele>
        <time>2021-09-09T15:39:42Z</time>
      </trkpt>
      <trkpt lat="44.09772" lon="6.02418">
        <ele>435.1</ele>
        <time>2021-09-09T15:39:43Z</time>
      </trkpt>
      <trkpt lat="44.0978" lon="6.02422">
        <ele>435</ele>
        <time>2021-09-09T15:39:45Z</time>
      </trkpt>
      <trkpt lat="44.09784" lon="6.02425">
        <ele>434.9</ele>
        <time>2021-09-09T15:39:46Z</time>
      </trkpt>
      <trkpt lat="44.09794" lon="6.0243">
        <ele>434.8</ele>
        <time>2021-09-09T15:39:48Z</time>
      </trkpt>
      <trkpt lat="44.09806" lon="6.02431">
        <ele>434.8</ele>
        <time>2021-09-09T15:39:50Z</time>
      </trkpt>
      <trkpt lat="44.09823" lon="6.02423">
        <ele>434.8</ele>
        <time>2021-09-09T15:39:51Z</time>
      </trkpt>
      <trkpt lat="44.09832" lon="6.02421">
        <ele>434.8</ele>
        <time>2021-09-09T15:39:52Z</time>
      </trkpt>
      <trkpt lat="44.09857" lon="6.02413">
        <ele>434.9</ele>
        <time>2021-09-09T15:39:54Z</time>
      </trkpt>
      <trkpt lat="44.0987" lon="6.02411">
        <ele>435</ele>
        <time>2021-09-09T15:39:55Z</time>
      </trkpt>
      <trkpt lat="44.09881" lon="6.02411">
        <ele>435.1</ele>
        <time>2021-09-09T15:39:56Z</time>
      </trkpt>
      <trkpt lat="44.09893" lon="6.02412">
        <ele>435.1</ele>
        <time>2021-09-09T15:39:58Z</time>
      </trkpt>
      <trkpt lat="44.09898" lon="6.02413">
        <ele>435.1</ele>
        <time>2021-09-09T15:39:59Z</time>
      </trkpt>
      <trkpt lat="44.09905" lon="6.02415">
        <ele>435.2</ele>
        <time>2021-09-09T15:40:01Z</time>
      </trkpt>
      <trkpt lat="44.09908" lon="6.02416">
        <ele>435.2</ele>
        <time>2021-09-09T15:40:02Z</time>
      </trkpt>
      <trkpt lat="44.0991" lon="6.02417">
        <ele>435.2</ele>
        <time>2021-09-09T15:40:03Z</time>
      </trkpt>
      <trkpt lat="44.09911" lon="6.02417">
        <ele>435.2</ele>
        <time>2021-09-09T15:40:05Z</time>
      </trkpt>
      <trkpt lat="44.09916" lon="6.02416">
        <ele>435.3</ele>
        <time>2021-09-09T15:40:07Z</time>
      </trkpt>
      <trkpt lat="44.0992" lon="6.02416">
        <ele>435.4</ele>
        <time>2021-09-09T15:40:08Z</time>
      </trkpt>
      <trkpt lat="44.0993" lon="6.02413">
        <ele>435.7</ele>
        <time>2021-09-09T15:40:10Z</time>
      </trkpt>
      <trkpt lat="44.09936" lon="6.02411">
        <ele>435.8</ele>
        <time>2021-09-09T15:40:11Z</time>
      </trkpt>
      <trkpt lat="44.09941" lon="6.02409">
        <ele>436</ele>
        <time>2021-09-09T15:40:12Z</time>
      </trkpt>
      <trkpt lat="44.09949" lon="6.02406">
        <ele>436.4</ele>
        <time>2021-09-09T15:40:14Z</time>
      </trkpt>
      <trkpt lat="44.09954" lon="6.02404">
        <ele>436.5</ele>
        <time>2021-09-09T15:40:15Z</time>
      </trkpt>
      <trkpt lat="44.09955" lon="6.02401">
        <ele>436.6</ele>
        <time>2021-09-09T15:40:17Z</time>
      </trkpt>
      <trkpt lat="44.09957" lon="6.024">
        <ele>436.7</ele>
        <time>2021-09-09T15:40:18Z</time>
      </trkpt>
      <trkpt lat="44.09961" lon="6.02397">
        <ele>436.9</ele>
        <time>2021-09-09T15:40:20Z</time>
      </trkpt>
      <trkpt lat="44.09967" lon="6.02394">
        <ele>437</ele>
        <time>2021-09-09T15:40:21Z</time>
      </trkpt>
      <trkpt lat="44.09973" lon="6.0239">
        <ele>437.2</ele>
        <time>2021-09-09T15:40:23Z</time>
      </trkpt>
      <trkpt lat="44.09978" lon="6.02388">
        <ele>437.4</ele>
        <time>2021-09-09T15:40:24Z</time>
      </trkpt>
      <trkpt lat="44.09982" lon="6.02386">
        <ele>437.5</ele>
        <time>2021-09-09T15:40:25Z</time>
      </trkpt>
      <trkpt lat="44.09986" lon="6.02385">
        <ele>437.6</ele>
        <time>2021-09-09T15:40:26Z</time>
      </trkpt>
      <trkpt lat="44.09989" lon="6.02384">
        <ele>437.7</ele>
        <time>2021-09-09T15:40:27Z</time>
      </trkpt>
      <trkpt lat="44.09995" lon="6.02382">
        <ele>437.8</ele>
        <time>2021-09-09T15:40:29Z</time>
      </trkpt>
      <trkpt lat="44.09999" lon="6.02379">
        <ele>438</ele>
        <time>2021-09-09T15:40:30Z</time>
      </trkpt>
      <trkpt lat="44.1" lon="6.02379">
        <ele>438</ele>
        <time>2021-09-09T15:40:31Z</time>
      </trkpt>
      <trkpt lat="44.10003" lon="6.02378">
        <ele>438.1</ele>
        <time>2021-09-09T15:40:33Z</time>
      </trkpt>
      <trkpt lat="44.10006" lon="6.02374">
        <ele>438.3</ele>
        <time>2021-09-09T15:40:34Z</time>
      </trkpt>
      <trkpt lat="44.1001" lon="6.02368">
        <ele>438.5</ele>
        <time>2021-09-09T15:40:36Z</time>
      </trkpt>
      <trkpt lat="44.10012" lon="6.02365">
        <ele>438.7</ele>
        <time>2021-09-09T15:40:37Z</time>
      </trkpt>
      <trkpt lat="44.10013" lon="6.0236">
        <ele>438.9</ele>
        <time>2021-09-09T15:40:39Z</time>
      </trkpt>
      <trkpt lat="44.10015" lon="6.02358">
        <ele>438.9</ele>
        <time>2021-09-09T15:40:40Z</time>
      </trkpt>
      <trkpt lat="44.10018" lon="6.02352">
        <ele>439.2</ele>
        <time>2021-09-09T15:40:42Z</time>
      </trkpt>
      <trkpt lat="44.10022" lon="6.02346">
        <ele>439.4</ele>
        <time>2021-09-09T15:40:44Z</time>
      </trkpt>
      <trkpt lat="44.10025" lon="6.02341">
        <ele>439.6</ele>
        <time>2021-09-09T15:40:45Z</time>
      </trkpt>
      <trkpt lat="44.10029" lon="6.02338">
        <ele>439.7</ele>
        <time>2021-09-09T15:40:47Z</time>
      </trkpt>
      <trkpt lat="44.10031" lon="6.02336">
        <ele>439.8</ele>
        <time>2021-09-09T15:40:48Z</time>
      </trkpt>
      <trkpt lat="44.10034" lon="6.02333">
        <ele>439.8</ele>
        <time>2021-09-09T15:40:49Z</time>
      </trkpt>
      <trkpt lat="44.10036" lon="6.02331">
        <ele>439.9</ele>
        <time>2021-09-09T15:40:50Z</time>
      </trkpt>
      <trkpt lat="44.10039" lon="6.02331">
        <ele>439.9</ele>
        <time>2021-09-09T15:40:52Z</time>
      </trkpt>
      <trkpt lat="44.10042" lon="6.0233">
        <ele>439.9</ele>
        <time>2021-09-09T15:40:53Z</time>
      </trkpt>
      <trkpt lat="44.10046" lon="6.0233">
        <ele>439.9</ele>
        <time>2021-09-09T15:40:54Z</time>
      </trkpt>
      <trkpt lat="44.1005" lon="6.02334">
        <ele>439.9</ele>
        <time>2021-09-09T15:40:56Z</time>
      </trkpt>
      <trkpt lat="44.10054" lon="6.02337">
        <ele>439.9</ele>
        <time>2021-09-09T15:40:57Z</time>
      </trkpt>
      <trkpt lat="44.10058" lon="6.0234">
        <ele>439.8</ele>
        <time>2021-09-09T15:40:58Z</time>
      </trkpt>
      <trkpt lat="44.10061" lon="6.02344">
        <ele>439.8</ele>
        <time>2021-09-09T15:40:59Z</time>
      </trkpt>
      <trkpt lat="44.10064" lon="6.02346">
        <ele>439.7</ele>
        <time>2021-09-09T15:41:00Z</time>
      </trkpt>
      <trkpt lat="44.1007" lon="6.02352">
        <ele>439.5</ele>
        <time>2021-09-09T15:41:02Z</time>
      </trkpt>
      <trkpt lat="44.10073" lon="6.02354">
        <ele>439.5</ele>
        <time>2021-09-09T15:41:03Z</time>
      </trkpt>
      <trkpt lat="44.10081" lon="6.02358">
        <ele>439.3</ele>
        <time>2021-09-09T15:41:05Z</time>
      </trkpt>
      <trkpt lat="44.10088" lon="6.0236">
        <ele>439.1</ele>
        <time>2021-09-09T15:41:07Z</time>
      </trkpt>
      <trkpt lat="44.10093" lon="6.02362">
        <ele>439</ele>
        <time>2021-09-09T15:41:08Z</time>
      </trkpt>
      <trkpt lat="44.10097" lon="6.02361">
        <ele>438.9</ele>
        <time>2021-09-09T15:41:10Z</time>
      </trkpt>
      <trkpt lat="44.10103" lon="6.02363">
        <ele>438.8</ele>
        <time>2021-09-09T15:41:11Z</time>
      </trkpt>
      <trkpt lat="44.10107" lon="6.02364">
        <ele>438.7</ele>
        <time>2021-09-09T15:41:13Z</time>
      </trkpt>
      <trkpt lat="44.10111" lon="6.02364">
        <ele>438.6</ele>
        <time>2021-09-09T15:41:14Z</time>
      </trkpt>
      <trkpt lat="44.10116" lon="6.02365">
        <ele>438.5</ele>
        <time>2021-09-09T15:41:15Z</time>
      </trkpt>
      <trkpt lat="44.10121" lon="6.02367">
        <ele>438.4</ele>
        <time>2021-09-09T15:41:16Z</time>
      </trkpt>
      <trkpt lat="44.10125" lon="6.0237">
        <ele>438.3</ele>
        <time>2021-09-09T15:41:17Z</time>
      </trkpt>
      <trkpt lat="44.10129" lon="6.02372">
        <ele>438.2</ele>
        <time>2021-09-09T15:41:18Z</time>
      </trkpt>
      <trkpt lat="44.10134" lon="6.02376">
        <ele>438.1</ele>
        <time>2021-09-09T15:41:20Z</time>
      </trkpt>
      <trkpt lat="44.10141" lon="6.02383">
        <ele>438</ele>
        <time>2021-09-09T15:41:21Z</time>
      </trkpt>
      <trkpt lat="44.10147" lon="6.02391">
        <ele>437.8</ele>
        <time>2021-09-09T15:41:23Z</time>
      </trkpt>
      <trkpt lat="44.10151" lon="6.02395">
        <ele>437.7</ele>
        <time>2021-09-09T15:41:24Z</time>
      </trkpt>
      <trkpt lat="44.10153" lon="6.024">
        <ele>437.6</ele>
        <time>2021-09-09T15:41:25Z</time>
      </trkpt>
      <trkpt lat="44.10156" lon="6.02404">
        <ele>437.6</ele>
        <time>2021-09-09T15:41:26Z</time>
      </trkpt>
      <trkpt lat="44.10158" lon="6.02408">
        <ele>437.5</ele>
        <time>2021-09-09T15:41:27Z</time>
      </trkpt>
      <trkpt lat="44.10162" lon="6.02416">
        <ele>437.5</ele>
        <time>2021-09-09T15:41:29Z</time>
      </trkpt>
      <trkpt lat="44.10167" lon="6.02421">
        <ele>437.5</ele>
        <time>2021-09-09T15:41:30Z</time>
      </trkpt>
      <trkpt lat="44.10173" lon="6.02426">
        <ele>437.5</ele>
        <time>2021-09-09T15:41:32Z</time>
      </trkpt>
      <trkpt lat="44.10178" lon="6.02431">
        <ele>437.5</ele>
        <time>2021-09-09T15:41:33Z</time>
      </trkpt>
      <trkpt lat="44.10182" lon="6.02435">
        <ele>437.5</ele>
        <time>2021-09-09T15:41:34Z</time>
      </trkpt>
      <trkpt lat="44.10186" lon="6.02437">
        <ele>437.5</ele>
        <time>2021-09-09T15:41:35Z</time>
      </trkpt>
      <trkpt lat="44.1019" lon="6.02439">
        <ele>437.4</ele>
        <time>2021-09-09T15:41:36Z</time>
      </trkpt>
      <trkpt lat="44.10194" lon="6.02444">
        <ele>437.4</ele>
        <time>2021-09-09T15:41:38Z</time>
      </trkpt>
      <trkpt lat="44.10202" lon="6.02452">
        <ele>437.3</ele>
        <time>2021-09-09T15:41:39Z</time>
      </trkpt>
      <trkpt lat="44.10206" lon="6.02458">
        <ele>437.2</ele>
        <time>2021-09-09T15:41:41Z</time>
      </trkpt>
      <trkpt lat="44.10211" lon="6.02464">
        <ele>437.1</ele>
        <time>2021-09-09T15:41:43Z</time>
      </trkpt>
      <trkpt lat="44.10214" lon="6.02465">
        <ele>437</ele>
        <time>2021-09-09T15:41:44Z</time>
      </trkpt>
      <trkpt lat="44.10219" lon="6.02466">
        <ele>436.9</ele>
        <time>2021-09-09T15:41:45Z</time>
      </trkpt>
      <trkpt lat="44.10222" lon="6.02465">
        <ele>436.8</ele>
        <time>2021-09-09T15:41:46Z</time>
      </trkpt>
      <trkpt lat="44.10224" lon="6.02462">
        <ele>436.4</ele>
        <time>2021-09-09T15:41:48Z</time>
      </trkpt>
      <trkpt lat="44.10223" lon="6.02459">
        <ele>436.6</ele>
        <time>2021-09-09T15:41:49Z</time>
      </trkpt>
      <trkpt lat="44.10223" lon="6.02458">
        <ele>436.5</ele>
        <time>2021-09-09T15:41:50Z</time>
      </trkpt>
      <trkpt lat="44.1022" lon="6.02452">
        <ele>436.6</ele>
        <time>2021-09-09T15:41:52Z</time>
      </trkpt>
      <trkpt lat="44.10219" lon="6.02451">
        <ele>437</ele>
        <time>2021-09-09T15:41:53Z</time>
      </trkpt>
      <trkpt lat="44.10218" lon="6.02449">
        <ele>436.8</ele>
        <time>2021-09-09T15:41:54Z</time>
      </trkpt>
      <trkpt lat="44.10202" lon="6.02434">
        <ele>436</ele>
        <time>2021-09-09T15:41:56Z</time>
      </trkpt>
      <trkpt lat="44.10192" lon="6.02423">
        <ele>434.6</ele>
        <time>2021-09-09T15:41:57Z</time>
      </trkpt>
      <trkpt lat="44.10177" lon="6.02406">
        <ele>434.4</ele>
        <time>2021-09-09T15:41:59Z</time>
      </trkpt>
      <trkpt lat="44.1017" lon="6.02397">
        <ele>434.3</ele>
        <time>2021-09-09T15:42:00Z</time>
      </trkpt>
      <trkpt lat="44.10164" lon="6.02389">
        <ele>434.2</ele>
        <time>2021-09-09T15:42:01Z</time>
      </trkpt>
      <trkpt lat="44.10158" lon="6.02381">
        <ele>434.2</ele>
        <time>2021-09-09T15:42:02Z</time>
      </trkpt>
      <trkpt lat="44.10154" lon="6.0237">
        <ele>434.2</ele>
        <time>2021-09-09T15:42:03Z</time>
      </trkpt>
      <trkpt lat="44.10145" lon="6.0235">
        <ele>434.1</ele>
        <time>2021-09-09T15:42:05Z</time>
      </trkpt>
      <trkpt lat="44.1014" lon="6.02344">
        <ele>434.1</ele>
        <time>2021-09-09T15:42:06Z</time>
      </trkpt>
      <trkpt lat="44.10134" lon="6.02341">
        <ele>434.1</ele>
        <time>2021-09-09T15:42:07Z</time>
      </trkpt>
      <trkpt lat="44.10128" lon="6.02337">
        <ele>434.1</ele>
        <time>2021-09-09T15:42:08Z</time>
      </trkpt>
      <trkpt lat="44.10119" lon="6.02325">
        <ele>434.1</ele>
        <time>2021-09-09T15:42:10Z</time>
      </trkpt>
      <trkpt lat="44.10116" lon="6.02319">
        <ele>434.1</ele>
        <time>2021-09-09T15:42:11Z</time>
      </trkpt>
      <trkpt lat="44.10111" lon="6.02306">
        <ele>434.1</ele>
        <time>2021-09-09T15:42:13Z</time>
      </trkpt>
      <trkpt lat="44.10109" lon="6.023">
        <ele>434</ele>
        <time>2021-09-09T15:42:14Z</time>
      </trkpt>
      <trkpt lat="44.10106" lon="6.02292">
        <ele>434</ele>
        <time>2021-09-09T15:42:16Z</time>
      </trkpt>
      <trkpt lat="44.10107" lon="6.02282">
        <ele>434</ele>
        <time>2021-09-09T15:42:18Z</time>
      </trkpt>
      <trkpt lat="44.10109" lon="6.02279">
        <ele>434</ele>
        <time>2021-09-09T15:42:19Z</time>
      </trkpt>
      <trkpt lat="44.10112" lon="6.02276">
        <ele>433.9</ele>
        <time>2021-09-09T15:42:20Z</time>
      </trkpt>
      <trkpt lat="44.10117" lon="6.0227">
        <ele>433.9</ele>
        <time>2021-09-09T15:42:22Z</time>
      </trkpt>
      <trkpt lat="44.10121" lon="6.0227">
        <ele>433.9</ele>
        <time>2021-09-09T15:42:23Z</time>
      </trkpt>
      <trkpt lat="44.10133" lon="6.02273">
        <ele>433.9</ele>
        <time>2021-09-09T15:42:24Z</time>
      </trkpt>
      <trkpt lat="44.10138" lon="6.02273">
        <ele>433.9</ele>
        <time>2021-09-09T15:42:25Z</time>
      </trkpt>
      <trkpt lat="44.10147" lon="6.02277">
        <ele>433.9</ele>
        <time>2021-09-09T15:42:26Z</time>
      </trkpt>
      <trkpt lat="44.10161" lon="6.02284">
        <ele>433.9</ele>
        <time>2021-09-09T15:42:28Z</time>
      </trkpt>
      <trkpt lat="44.10173" lon="6.0229">
        <ele>433.9</ele>
        <time>2021-09-09T15:42:30Z</time>
      </trkpt>
      <trkpt lat="44.10179" lon="6.02292">
        <ele>433.9</ele>
        <time>2021-09-09T15:42:31Z</time>
      </trkpt>
      <trkpt lat="44.10186" lon="6.02295">
        <ele>433.9</ele>
        <time>2021-09-09T15:42:32Z</time>
      </trkpt>
      <trkpt lat="44.10199" lon="6.02297">
        <ele>433.9</ele>
        <time>2021-09-09T15:42:34Z</time>
      </trkpt>
      <trkpt lat="44.10206" lon="6.02296">
        <ele>433.8</ele>
        <time>2021-09-09T15:42:35Z</time>
      </trkpt>
      <trkpt lat="44.10217" lon="6.02288">
        <ele>433.8</ele>
        <time>2021-09-09T15:42:37Z</time>
      </trkpt>
      <trkpt lat="44.1022" lon="6.02281">
        <ele>433.8</ele>
        <time>2021-09-09T15:42:38Z</time>
      </trkpt>
      <trkpt lat="44.10223" lon="6.02274">
        <ele>433.8</ele>
        <time>2021-09-09T15:42:39Z</time>
      </trkpt>
      <trkpt lat="44.10227" lon="6.0226">
        <ele>433.8</ele>
        <time>2021-09-09T15:42:41Z</time>
      </trkpt>
      <trkpt lat="44.10229" lon="6.02253">
        <ele>433.8</ele>
        <time>2021-09-09T15:42:42Z</time>
      </trkpt>
      <trkpt lat="44.10234" lon="6.02238">
        <ele>433.8</ele>
        <time>2021-09-09T15:42:44Z</time>
      </trkpt>
      <trkpt lat="44.10237" lon="6.02224">
        <ele>433.8</ele>
        <time>2021-09-09T15:42:46Z</time>
      </trkpt>
      <trkpt lat="44.10238" lon="6.02218">
        <ele>433.8</ele>
        <time>2021-09-09T15:42:47Z</time>
      </trkpt>
      <trkpt lat="44.10239" lon="6.02212">
        <ele>433.8</ele>
        <time>2021-09-09T15:42:48Z</time>
      </trkpt>
      <trkpt lat="44.10244" lon="6.02201">
        <ele>433.8</ele>
        <time>2021-09-09T15:42:50Z</time>
      </trkpt>
      <trkpt lat="44.1025" lon="6.0219">
        <ele>433.8</ele>
        <time>2021-09-09T15:42:52Z</time>
      </trkpt>
      <trkpt lat="44.10253" lon="6.02186">
        <ele>433.8</ele>
        <time>2021-09-09T15:42:53Z</time>
      </trkpt>
      <trkpt lat="44.10258" lon="6.02174">
        <ele>433.8</ele>
        <time>2021-09-09T15:42:55Z</time>
      </trkpt>
      <trkpt lat="44.10258" lon="6.02168">
        <ele>433.8</ele>
        <time>2021-09-09T15:42:56Z</time>
      </trkpt>
      <trkpt lat="44.1026" lon="6.02155">
        <ele>433.8</ele>
        <time>2021-09-09T15:42:58Z</time>
      </trkpt>
      <trkpt lat="44.10263" lon="6.02141">
        <ele>433.8</ele>
        <time>2021-09-09T15:43:00Z</time>
      </trkpt>
      <trkpt lat="44.10264" lon="6.02133">
        <ele>433.8</ele>
        <time>2021-09-09T15:43:01Z</time>
      </trkpt>
      <trkpt lat="44.10262" lon="6.02118">
        <ele>433.8</ele>
        <time>2021-09-09T15:43:03Z</time>
      </trkpt>
      <trkpt lat="44.10261" lon="6.02111">
        <ele>433.8</ele>
        <time>2021-09-09T15:43:04Z</time>
      </trkpt>
      <trkpt lat="44.10258" lon="6.02098">
        <ele>433.9</ele>
        <time>2021-09-09T15:43:06Z</time>
      </trkpt>
      <trkpt lat="44.10256" lon="6.02088">
        <ele>433.9</ele>
        <time>2021-09-09T15:43:08Z</time>
      </trkpt>
      <trkpt lat="44.10254" lon="6.0208">
        <ele>433.9</ele>
        <time>2021-09-09T15:43:10Z</time>
      </trkpt>
      <trkpt lat="44.1025" lon="6.02079">
        <ele>433.9</ele>
        <time>2021-09-09T15:43:12Z</time>
      </trkpt>
      <trkpt lat="44.10248" lon="6.02078">
        <ele>433.9</ele>
        <time>2021-09-09T15:43:13Z</time>
      </trkpt>
      <trkpt lat="44.10248" lon="6.02078">
        <ele>433.9</ele>
        <time>2021-09-09T15:43:15Z</time>
      </trkpt>
      <trkpt lat="44.10248" lon="6.02077">
        <ele>433.9</ele>
        <time>2021-09-09T15:43:16Z</time>
      </trkpt>
      <trkpt lat="44.10248" lon="6.02076">
        <ele>433.9</ele>
        <time>2021-09-09T15:43:17Z</time>
      </trkpt>
      <trkpt lat="44.10248" lon="6.02076">
        <ele>433.9</ele>
        <time>2021-09-09T15:43:18Z</time>
      </trkpt>
      <trkpt lat="44.10248" lon="6.02075">
        <ele>433.9</ele>
        <time>2021-09-09T15:43:20Z</time>
      </trkpt>
      <trkpt lat="44.10248" lon="6.02075">
        <ele>433.9</ele>
        <time>2021-09-09T15:43:21Z</time>
      </trkpt>
      <trkpt lat="44.10248" lon="6.02074">
        <ele>433.9</ele>
        <time>2021-09-09T15:43:22Z</time>
      </trkpt>
      <trkpt lat="44.10248" lon="6.02074">
        <ele>433.9</ele>
        <time>2021-09-09T15:43:24Z</time>
      </trkpt>
      <trkpt lat="44.10248" lon="6.02073">
        <ele>433.9</ele>
        <time>2021-09-09T15:43:39Z</time>
      </trkpt>
      <trkpt lat="44.10248" lon="6.02072">
        <ele>433.9</ele>
        <time>2021-09-09T15:43:40Z</time>
      </trkpt>
      <trkpt lat="44.10248" lon="6.02065">
        <ele>433.9</ele>
        <time>2021-09-09T15:43:41Z</time>
      </trkpt>
      <trkpt lat="44.1025" lon="6.02053">
        <ele>433.9</ele>
        <time>2021-09-09T15:43:43Z</time>
      </trkpt>
      <trkpt lat="44.10253" lon="6.02043">
        <ele>433.9</ele>
        <time>2021-09-09T15:43:44Z</time>
      </trkpt>
      <trkpt lat="44.10256" lon="6.02033">
        <ele>433.9</ele>
        <time>2021-09-09T15:43:45Z</time>
      </trkpt>
      <trkpt lat="44.1026" lon="6.02024">
        <ele>433.9</ele>
        <time>2021-09-09T15:43:46Z</time>
      </trkpt>
      <trkpt lat="44.10266" lon="6.02013">
        <ele>434</ele>
        <time>2021-09-09T15:43:48Z</time>
      </trkpt>
      <trkpt lat="44.10268" lon="6.02004">
        <ele>434</ele>
        <time>2021-09-09T15:43:49Z</time>
      </trkpt>
      <trkpt lat="44.10269" lon="6.01991">
        <ele>434</ele>
        <time>2021-09-09T15:43:51Z</time>
      </trkpt>
      <trkpt lat="44.1027" lon="6.01985">
        <ele>434</ele>
        <time>2021-09-09T15:43:52Z</time>
      </trkpt>
      <trkpt lat="44.10271" lon="6.0198">
        <ele>434</ele>
        <time>2021-09-09T15:43:53Z</time>
      </trkpt>
      <trkpt lat="44.10273" lon="6.01976">
        <ele>434</ele>
        <time>2021-09-09T15:43:54Z</time>
      </trkpt>
      <trkpt lat="44.10272" lon="6.01968">
        <ele>434</ele>
        <time>2021-09-09T15:43:55Z</time>
      </trkpt>
      <trkpt lat="44.10274" lon="6.01962">
        <ele>434.1</ele>
        <time>2021-09-09T15:43:56Z</time>
      </trkpt>
      <trkpt lat="44.10275" lon="6.01958">
        <ele>434.1</ele>
        <time>2021-09-09T15:43:57Z</time>
      </trkpt>
      <trkpt lat="44.10277" lon="6.01954">
        <ele>434.1</ele>
        <time>2021-09-09T15:43:59Z</time>
      </trkpt>
      <trkpt lat="44.1028" lon="6.01941">
        <ele>434</ele>
        <time>2021-09-09T15:44:01Z</time>
      </trkpt>
      <trkpt lat="44.10284" lon="6.01928">
        <ele>434</ele>
        <time>2021-09-09T15:44:03Z</time>
      </trkpt>
      <trkpt lat="44.10286" lon="6.01922">
        <ele>434</ele>
        <time>2021-09-09T15:44:04Z</time>
      </trkpt>
      <trkpt lat="44.10288" lon="6.01919">
        <ele>434</ele>
        <time>2021-09-09T15:44:05Z</time>
      </trkpt>
      <trkpt lat="44.1029" lon="6.01913">
        <ele>434</ele>
        <time>2021-09-09T15:44:07Z</time>
      </trkpt>
      <trkpt lat="44.10293" lon="6.01904">
        <ele>434</ele>
        <time>2021-09-09T15:44:08Z</time>
      </trkpt>
      <trkpt lat="44.10295" lon="6.01898">
        <ele>434</ele>
        <time>2021-09-09T15:44:10Z</time>
      </trkpt>
      <trkpt lat="44.10297" lon="6.01889">
        <ele>434</ele>
        <time>2021-09-09T15:44:11Z</time>
      </trkpt>
      <trkpt lat="44.10298" lon="6.01885">
        <ele>434</ele>
        <time>2021-09-09T15:44:13Z</time>
      </trkpt>
      <trkpt lat="44.10298" lon="6.01877">
        <ele>434</ele>
        <time>2021-09-09T15:44:15Z</time>
      </trkpt>
      <trkpt lat="44.10296" lon="6.01869">
        <ele>434.1</ele>
        <time>2021-09-09T15:44:17Z</time>
      </trkpt>
      <trkpt lat="44.10288" lon="6.01855">
        <ele>434.1</ele>
        <time>2021-09-09T15:44:19Z</time>
      </trkpt>
      <trkpt lat="44.10284" lon="6.01848">
        <ele>434.1</ele>
        <time>2021-09-09T15:44:20Z</time>
      </trkpt>
      <trkpt lat="44.10281" lon="6.01843">
        <ele>434.1</ele>
        <time>2021-09-09T15:44:22Z</time>
      </trkpt>
      <trkpt lat="44.1028" lon="6.01837">
        <ele>434.2</ele>
        <time>2021-09-09T15:44:23Z</time>
      </trkpt>
      <trkpt lat="44.1028" lon="6.01828">
        <ele>434.2</ele>
        <time>2021-09-09T15:44:25Z</time>
      </trkpt>
      <trkpt lat="44.1028" lon="6.01822">
        <ele>434.2</ele>
        <time>2021-09-09T15:44:26Z</time>
      </trkpt>
      <trkpt lat="44.1028" lon="6.01815">
        <ele>434.3</ele>
        <time>2021-09-09T15:44:27Z</time>
      </trkpt>
      <trkpt lat="44.10279" lon="6.01811">
        <ele>434.3</ele>
        <time>2021-09-09T15:44:28Z</time>
      </trkpt>
      <trkpt lat="44.10279" lon="6.01804">
        <ele>434.3</ele>
        <time>2021-09-09T15:44:29Z</time>
      </trkpt>
      <trkpt lat="44.10279" lon="6.018">
        <ele>434.3</ele>
        <time>2021-09-09T15:44:30Z</time>
      </trkpt>
      <trkpt lat="44.1028" lon="6.01791">
        <ele>434.3</ele>
        <time>2021-09-09T15:44:32Z</time>
      </trkpt>
      <trkpt lat="44.1028" lon="6.01785">
        <ele>434.3</ele>
        <time>2021-09-09T15:44:33Z</time>
      </trkpt>
      <trkpt lat="44.10281" lon="6.0178">
        <ele>434.3</ele>
        <time>2021-09-09T15:44:34Z</time>
      </trkpt>
      <trkpt lat="44.10282" lon="6.01774">
        <ele>434.3</ele>
        <time>2021-09-09T15:44:36Z</time>
      </trkpt>
      <trkpt lat="44.10283" lon="6.0177">
        <ele>434.3</ele>
        <time>2021-09-09T15:44:37Z</time>
      </trkpt>
      <trkpt lat="44.10285" lon="6.01766">
        <ele>434.3</ele>
        <time>2021-09-09T15:44:38Z</time>
      </trkpt>
      <trkpt lat="44.10286" lon="6.01765">
        <ele>434.3</ele>
        <time>2021-09-09T15:44:39Z</time>
      </trkpt>
      <trkpt lat="44.10292" lon="6.01761">
        <ele>434.2</ele>
        <time>2021-09-09T15:44:41Z</time>
      </trkpt>
      <trkpt lat="44.10298" lon="6.01758">
        <ele>434.2</ele>
        <time>2021-09-09T15:44:42Z</time>
      </trkpt>
      <trkpt lat="44.10301" lon="6.01755">
        <ele>434.2</ele>
        <time>2021-09-09T15:44:43Z</time>
      </trkpt>
      <trkpt lat="44.10305" lon="6.01753">
        <ele>434.2</ele>
        <time>2021-09-09T15:44:44Z</time>
      </trkpt>
      <trkpt lat="44.10314" lon="6.01751">
        <ele>434.2</ele>
        <time>2021-09-09T15:44:46Z</time>
      </trkpt>
      <trkpt lat="44.10319" lon="6.0175">
        <ele>434.3</ele>
        <time>2021-09-09T15:44:47Z</time>
      </trkpt>
      <trkpt lat="44.10325" lon="6.01747">
        <ele>434.4</ele>
        <time>2021-09-09T15:44:49Z</time>
      </trkpt>
      <trkpt lat="44.10329" lon="6.01742">
        <ele>434.6</ele>
        <time>2021-09-09T15:44:50Z</time>
      </trkpt>
      <trkpt lat="44.10332" lon="6.01738">
        <ele>434.6</ele>
        <time>2021-09-09T15:44:51Z</time>
      </trkpt>
      <trkpt lat="44.10335" lon="6.01729">
        <ele>434.7</ele>
        <time>2021-09-09T15:44:53Z</time>
      </trkpt>
      <trkpt lat="44.10336" lon="6.01722">
        <ele>434.8</ele>
        <time>2021-09-09T15:44:54Z</time>
      </trkpt>
      <trkpt lat="44.10339" lon="6.01714">
        <ele>434.9</ele>
        <time>2021-09-09T15:44:55Z</time>
      </trkpt>
      <trkpt lat="44.10341" lon="6.01704">
        <ele>435</ele>
        <time>2021-09-09T15:44:57Z</time>
      </trkpt>
      <trkpt lat="44.10342" lon="6.01697">
        <ele>435.1</ele>
        <time>2021-09-09T15:44:58Z</time>
      </trkpt>
      <trkpt lat="44.10342" lon="6.0169">
        <ele>435.1</ele>
        <time>2021-09-09T15:44:59Z</time>
      </trkpt>
      <trkpt lat="44.10343" lon="6.01684">
        <ele>435.2</ele>
        <time>2021-09-09T15:45:00Z</time>
      </trkpt>
      <trkpt lat="44.10344" lon="6.01679">
        <ele>435.2</ele>
        <time>2021-09-09T15:45:01Z</time>
      </trkpt>
      <trkpt lat="44.10344" lon="6.01674">
        <ele>435.2</ele>
        <time>2021-09-09T15:45:02Z</time>
      </trkpt>
      <trkpt lat="44.10346" lon="6.0167">
        <ele>434.9</ele>
        <time>2021-09-09T15:45:03Z</time>
      </trkpt>
      <trkpt lat="44.10349" lon="6.01667">
        <ele>434.9</ele>
        <time>2021-09-09T15:45:04Z</time>
      </trkpt>
      <trkpt lat="44.10351" lon="6.01663">
        <ele>434.9</ele>
        <time>2021-09-09T15:45:05Z</time>
      </trkpt>
      <trkpt lat="44.10353" lon="6.01662">
        <ele>434.9</ele>
        <time>2021-09-09T15:45:06Z</time>
      </trkpt>
      <trkpt lat="44.10358" lon="6.01663">
        <ele>434.8</ele>
        <time>2021-09-09T15:45:08Z</time>
      </trkpt>
      <trkpt lat="44.10361" lon="6.01661">
        <ele>434.8</ele>
        <time>2021-09-09T15:45:09Z</time>
      </trkpt>
      <trkpt lat="44.10364" lon="6.01657">
        <ele>434.8</ele>
        <time>2021-09-09T15:45:11Z</time>
      </trkpt>
      <trkpt lat="44.10367" lon="6.01654">
        <ele>434.7</ele>
        <time>2021-09-09T15:45:12Z</time>
      </trkpt>
      <trkpt lat="44.1037" lon="6.01653">
        <ele>434.8</ele>
        <time>2021-09-09T15:45:13Z</time>
      </trkpt>
      <trkpt lat="44.10374" lon="6.01651">
        <ele>434.8</ele>
        <time>2021-09-09T15:45:14Z</time>
      </trkpt>
      <trkpt lat="44.10376" lon="6.01651">
        <ele>434.8</ele>
        <time>2021-09-09T15:45:15Z</time>
      </trkpt>
      <trkpt lat="44.10381" lon="6.01651">
        <ele>434.8</ele>
        <time>2021-09-09T15:45:17Z</time>
      </trkpt>
      <trkpt lat="44.10385" lon="6.01651">
        <ele>434.9</ele>
        <time>2021-09-09T15:45:18Z</time>
      </trkpt>
      <trkpt lat="44.10388" lon="6.01653">
        <ele>434.9</ele>
        <time>2021-09-09T15:45:19Z</time>
      </trkpt>
      <trkpt lat="44.10391" lon="6.01654">
        <ele>434.9</ele>
        <time>2021-09-09T15:45:20Z</time>
      </trkpt>
      <trkpt lat="44.10395" lon="6.01653">
        <ele>435</ele>
        <time>2021-09-09T15:45:22Z</time>
      </trkpt>
      <trkpt lat="44.10399" lon="6.01653">
        <ele>435</ele>
        <time>2021-09-09T15:45:23Z</time>
      </trkpt>
      <trkpt lat="44.104" lon="6.01653">
        <ele>435</ele>
        <time>2021-09-09T15:45:24Z</time>
      </trkpt>
      <trkpt lat="44.10402" lon="6.01652">
        <ele>435.1</ele>
        <time>2021-09-09T15:45:25Z</time>
      </trkpt>
      <trkpt lat="44.10406" lon="6.01653">
        <ele>435.1</ele>
        <time>2021-09-09T15:45:27Z</time>
      </trkpt>
      <trkpt lat="44.1041" lon="6.01651">
        <ele>435.2</ele>
        <time>2021-09-09T15:45:29Z</time>
      </trkpt>
      <trkpt lat="44.10412" lon="6.01647">
        <ele>435.2</ele>
        <time>2021-09-09T15:45:30Z</time>
      </trkpt>
      <trkpt lat="44.10417" lon="6.01642">
        <ele>435.3</ele>
        <time>2021-09-09T15:45:32Z</time>
      </trkpt>
      <trkpt lat="44.10419" lon="6.01637">
        <ele>435.3</ele>
        <time>2021-09-09T15:45:33Z</time>
      </trkpt>
      <trkpt lat="44.10421" lon="6.01627">
        <ele>435.4</ele>
        <time>2021-09-09T15:45:35Z</time>
      </trkpt>
      <trkpt lat="44.10422" lon="6.01622">
        <ele>435.5</ele>
        <time>2021-09-09T15:45:36Z</time>
      </trkpt>
      <trkpt lat="44.10424" lon="6.01616">
        <ele>435.5</ele>
        <time>2021-09-09T15:45:37Z</time>
      </trkpt>
      <trkpt lat="44.10425" lon="6.0161">
        <ele>435.6</ele>
        <time>2021-09-09T15:45:38Z</time>
      </trkpt>
      <trkpt lat="44.10428" lon="6.01601">
        <ele>435.7</ele>
        <time>2021-09-09T15:45:40Z</time>
      </trkpt>
      <trkpt lat="44.10429" lon="6.01593">
        <ele>435.8</ele>
        <time>2021-09-09T15:45:42Z</time>
      </trkpt>
      <trkpt lat="44.10428" lon="6.01589">
        <ele>435.9</ele>
        <time>2021-09-09T15:45:43Z</time>
      </trkpt>
      <trkpt lat="44.1043" lon="6.01586">
        <ele>435.9</ele>
        <time>2021-09-09T15:45:44Z</time>
      </trkpt>
      <trkpt lat="44.10431" lon="6.01581">
        <ele>435.9</ele>
        <time>2021-09-09T15:45:46Z</time>
      </trkpt>
      <trkpt lat="44.10432" lon="6.01582">
        <ele>435.9</ele>
        <time>2021-09-09T15:45:48Z</time>
      </trkpt>
      <trkpt lat="44.10434" lon="6.01584">
        <ele>436</ele>
        <time>2021-09-09T15:45:49Z</time>
      </trkpt>
      <trkpt lat="44.10435" lon="6.01585">
        <ele>436</ele>
        <time>2021-09-09T15:45:51Z</time>
      </trkpt>
      <trkpt lat="44.10436" lon="6.01587">
        <ele>436</ele>
        <time>2021-09-09T15:45:53Z</time>
      </trkpt>
      <trkpt lat="44.10437" lon="6.01588">
        <ele>436</ele>
        <time>2021-09-09T15:45:54Z</time>
      </trkpt>
      <trkpt lat="44.1044" lon="6.01596">
        <ele>436.1</ele>
        <time>2021-09-09T15:45:56Z</time>
      </trkpt>
      <trkpt lat="44.10444" lon="6.01602">
        <ele>436.2</ele>
        <time>2021-09-09T15:45:57Z</time>
      </trkpt>
      <trkpt lat="44.10447" lon="6.01607">
        <ele>436.3</ele>
        <time>2021-09-09T15:45:58Z</time>
      </trkpt>
      <trkpt lat="44.10452" lon="6.01613">
        <ele>436.4</ele>
        <time>2021-09-09T15:46:00Z</time>
      </trkpt>
      <trkpt lat="44.10456" lon="6.01617">
        <ele>436.5</ele>
        <time>2021-09-09T15:46:01Z</time>
      </trkpt>
      <trkpt lat="44.1046" lon="6.01621">
        <ele>436.6</ele>
        <time>2021-09-09T15:46:02Z</time>
      </trkpt>
      <trkpt lat="44.10463" lon="6.01624">
        <ele>436.7</ele>
        <time>2021-09-09T15:46:03Z</time>
      </trkpt>
      <trkpt lat="44.10467" lon="6.01628">
        <ele>436.8</ele>
        <time>2021-09-09T15:46:04Z</time>
      </trkpt>
      <trkpt lat="44.1047" lon="6.01632">
        <ele>437</ele>
        <time>2021-09-09T15:46:05Z</time>
      </trkpt>
      <trkpt lat="44.10472" lon="6.01635">
        <ele>437.1</ele>
        <time>2021-09-09T15:46:06Z</time>
      </trkpt>
      <trkpt lat="44.10476" lon="6.01639">
        <ele>437.3</ele>
        <time>2021-09-09T15:46:08Z</time>
      </trkpt>
      <trkpt lat="44.10477" lon="6.01641">
        <ele>437.4</ele>
        <time>2021-09-09T15:46:09Z</time>
      </trkpt>
      <trkpt lat="44.10478" lon="6.01643">
        <ele>437.5</ele>
        <time>2021-09-09T15:46:10Z</time>
      </trkpt>
      <trkpt lat="44.10481" lon="6.01646">
        <ele>437.6</ele>
        <time>2021-09-09T15:46:11Z</time>
      </trkpt>
      <trkpt lat="44.10483" lon="6.01648">
        <ele>437.7</ele>
        <time>2021-09-09T15:46:12Z</time>
      </trkpt>
      <trkpt lat="44.10486" lon="6.01651">
        <ele>438</ele>
        <time>2021-09-09T15:46:14Z</time>
      </trkpt>
      <trkpt lat="44.10489" lon="6.01654">
        <ele>438.2</ele>
        <time>2021-09-09T15:46:15Z</time>
      </trkpt>
      <trkpt lat="44.10492" lon="6.01657">
        <ele>438.5</ele>
        <time>2021-09-09T15:46:17Z</time>
      </trkpt>
      <trkpt lat="44.10493" lon="6.01659">
        <ele>438.6</ele>
        <time>2021-09-09T15:46:18Z</time>
      </trkpt>
      <trkpt lat="44.10493" lon="6.01662">
        <ele>438.7</ele>
        <time>2021-09-09T15:46:20Z</time>
      </trkpt>
      <trkpt lat="44.10494" lon="6.01665">
        <ele>438.8</ele>
        <time>2021-09-09T15:46:21Z</time>
      </trkpt>
      <trkpt lat="44.10493" lon="6.01669">
        <ele>438.8</ele>
        <time>2021-09-09T15:46:23Z</time>
      </trkpt>
      <trkpt lat="44.10494" lon="6.01676">
        <ele>438.8</ele>
        <time>2021-09-09T15:46:25Z</time>
      </trkpt>
      <trkpt lat="44.10492" lon="6.01678">
        <ele>438.8</ele>
        <time>2021-09-09T15:46:26Z</time>
      </trkpt>
      <trkpt lat="44.1049" lon="6.01677">
        <ele>438.8</ele>
        <time>2021-09-09T15:46:28Z</time>
      </trkpt>
      <trkpt lat="44.10489" lon="6.01676">
        <ele>438.8</ele>
        <time>2021-09-09T15:46:29Z</time>
      </trkpt>
      <trkpt lat="44.10485" lon="6.01673">
        <ele>438.8</ele>
        <time>2021-09-09T15:46:31Z</time>
      </trkpt>
      <trkpt lat="44.10483" lon="6.01673">
        <ele>438.8</ele>
        <time>2021-09-09T15:46:33Z</time>
      </trkpt>
      <trkpt lat="44.10483" lon="6.01673">
        <ele>438.8</ele>
        <time>2021-09-09T15:46:34Z</time>
      </trkpt>
      <trkpt lat="44.10483" lon="6.01673">
        <ele>438.8</ele>
        <time>2021-09-09T15:46:35Z</time>
      </trkpt>
      <trkpt lat="44.10483" lon="6.01673">
        <ele>438.8</ele>
        <time>2021-09-09T15:46:36Z</time>
      </trkpt>
      <trkpt lat="44.10483" lon="6.01673">
        <ele>438.8</ele>
        <time>2021-09-09T15:46:38Z</time>
      </trkpt>
      <trkpt lat="44.10483" lon="6.01673">
        <ele>438.8</ele>
        <time>2021-09-09T15:46:39Z</time>
      </trkpt>
      <trkpt lat="44.10483" lon="6.01673">
        <ele>438.8</ele>
        <time>2021-09-09T15:46:40Z</time>
      </trkpt>
      <trkpt lat="44.10483" lon="6.01673">
        <ele>438.8</ele>
        <time>2021-09-09T15:46:42Z</time>
      </trkpt>
      <trkpt lat="44.1047" lon="6.0168">
        <ele>438.8</ele>
        <time>2021-09-09T15:47:48Z</time>
      </trkpt>
      <trkpt lat="44.1047" lon="6.01686">
        <ele>439</ele>
        <time>2021-09-09T15:47:50Z</time>
      </trkpt>
      <trkpt lat="44.10471" lon="6.01689">
        <ele>439</ele>
        <time>2021-09-09T15:47:51Z</time>
      </trkpt>
      <trkpt lat="44.1047" lon="6.01696">
        <ele>439</ele>
        <time>2021-09-09T15:47:53Z</time>
      </trkpt>
      <trkpt lat="44.10469" lon="6.01701">
        <ele>439.1</ele>
        <time>2021-09-09T15:47:54Z</time>
      </trkpt>
      <trkpt lat="44.10469" lon="6.01704">
        <ele>439.1</ele>
        <time>2021-09-09T15:47:56Z</time>
      </trkpt>
      <trkpt lat="44.10469" lon="6.01706">
        <ele>439.1</ele>
        <time>2021-09-09T15:47:58Z</time>
      </trkpt>
      <trkpt lat="44.10469" lon="6.01706">
        <ele>439.1</ele>
        <time>2021-09-09T15:48:00Z</time>
      </trkpt>
      <trkpt lat="44.10469" lon="6.01706">
        <ele>439.1</ele>
        <time>2021-09-09T15:48:01Z</time>
      </trkpt>
      <trkpt lat="44.1047" lon="6.01706">
        <ele>439.1</ele>
        <time>2021-09-09T15:48:02Z</time>
      </trkpt>
      <trkpt lat="44.1047" lon="6.01707">
        <ele>439.1</ele>
        <time>2021-09-09T15:48:03Z</time>
      </trkpt>
      <trkpt lat="44.1047" lon="6.01707">
        <ele>439.1</ele>
        <time>2021-09-09T15:48:05Z</time>
      </trkpt>
      <trkpt lat="44.10487" lon="6.01665">
        <ele>438.4</ele>
        <time>2021-09-09T15:57:15Z</time>
      </trkpt>
      <trkpt lat="44.10482" lon="6.0166">
        <ele>438</ele>
        <time>2021-09-09T15:57:17Z</time>
      </trkpt>
      <trkpt lat="44.1048" lon="6.01658">
        <ele>437.8</ele>
        <time>2021-09-09T15:57:19Z</time>
      </trkpt>
      <trkpt lat="44.10477" lon="6.01656">
        <ele>437.6</ele>
        <time>2021-09-09T15:57:21Z</time>
      </trkpt>
      <trkpt lat="44.10473" lon="6.01652">
        <ele>437.4</ele>
        <time>2021-09-09T15:57:23Z</time>
      </trkpt>
      <trkpt lat="44.10471" lon="6.0165">
        <ele>437.3</ele>
        <time>2021-09-09T15:57:24Z</time>
      </trkpt>
      <trkpt lat="44.10467" lon="6.01646">
        <ele>437.1</ele>
        <time>2021-09-09T15:57:26Z</time>
      </trkpt>
      <trkpt lat="44.10463" lon="6.01643">
        <ele>436.9</ele>
        <time>2021-09-09T15:57:27Z</time>
      </trkpt>
      <trkpt lat="44.10458" lon="6.01637">
        <ele>436.7</ele>
        <time>2021-09-09T15:57:29Z</time>
      </trkpt>
      <trkpt lat="44.10454" lon="6.01634">
        <ele>436.5</ele>
        <time>2021-09-09T15:57:30Z</time>
      </trkpt>
      <trkpt lat="44.10447" lon="6.01629">
        <ele>436.4</ele>
        <time>2021-09-09T15:57:32Z</time>
      </trkpt>
      <trkpt lat="44.10443" lon="6.01625">
        <ele>436.3</ele>
        <time>2021-09-09T15:57:33Z</time>
      </trkpt>
      <trkpt lat="44.1044" lon="6.01621">
        <ele>436.2</ele>
        <time>2021-09-09T15:57:34Z</time>
      </trkpt>
      <trkpt lat="44.10434" lon="6.01613">
        <ele>436.1</ele>
        <time>2021-09-09T15:57:36Z</time>
      </trkpt>
      <trkpt lat="44.10429" lon="6.01604">
        <ele>435.9</ele>
        <time>2021-09-09T15:57:38Z</time>
      </trkpt>
      <trkpt lat="44.10428" lon="6.01598">
        <ele>436</ele>
        <time>2021-09-09T15:57:39Z</time>
      </trkpt>
      <trkpt lat="44.10429" lon="6.01587">
        <ele>436</ele>
        <time>2021-09-09T15:57:41Z</time>
      </trkpt>
      <trkpt lat="44.10433" lon="6.0158">
        <ele>436.1</ele>
        <time>2021-09-09T15:57:43Z</time>
      </trkpt>
      <trkpt lat="44.10434" lon="6.01576">
        <ele>436.1</ele>
        <time>2021-09-09T15:57:44Z</time>
      </trkpt>
      <trkpt lat="44.10434" lon="6.01569">
        <ele>436.1</ele>
        <time>2021-09-09T15:57:46Z</time>
      </trkpt>
      <trkpt lat="44.10433" lon="6.01565">
        <ele>436.1</ele>
        <time>2021-09-09T15:57:47Z</time>
      </trkpt>
      <trkpt lat="44.10432" lon="6.01564">
        <ele>436.1</ele>
        <time>2021-09-09T15:57:48Z</time>
      </trkpt>
      <trkpt lat="44.10432" lon="6.01558">
        <ele>436.1</ele>
        <time>2021-09-09T15:57:50Z</time>
      </trkpt>
      <trkpt lat="44.10432" lon="6.01555">
        <ele>436.1</ele>
        <time>2021-09-09T15:57:51Z</time>
      </trkpt>
      <trkpt lat="44.10433" lon="6.01547">
        <ele>436.2</ele>
        <time>2021-09-09T15:57:53Z</time>
      </trkpt>
      <trkpt lat="44.10434" lon="6.01541">
        <ele>436.2</ele>
        <time>2021-09-09T15:57:55Z</time>
      </trkpt>
      <trkpt lat="44.10434" lon="6.01536">
        <ele>436.2</ele>
        <time>2021-09-09T15:57:56Z</time>
      </trkpt>
      <trkpt lat="44.10434" lon="6.01532">
        <ele>436.2</ele>
        <time>2021-09-09T15:57:57Z</time>
      </trkpt>
      <trkpt lat="44.10435" lon="6.01528">
        <ele>436.2</ele>
        <time>2021-09-09T15:57:59Z</time>
      </trkpt>
      <trkpt lat="44.10437" lon="6.01522">
        <ele>436.1</ele>
        <time>2021-09-09T15:58:00Z</time>
      </trkpt>
      <trkpt lat="44.10438" lon="6.01518">
        <ele>436.1</ele>
        <time>2021-09-09T15:58:01Z</time>
      </trkpt>
      <trkpt lat="44.10437" lon="6.0151">
        <ele>436</ele>
        <time>2021-09-09T15:58:03Z</time>
      </trkpt>
      <trkpt lat="44.10437" lon="6.01504">
        <ele>436</ele>
        <time>2021-09-09T15:58:05Z</time>
      </trkpt>
      <trkpt lat="44.10439" lon="6.015">
        <ele>435.9</ele>
        <time>2021-09-09T15:58:06Z</time>
      </trkpt>
      <trkpt lat="44.10439" lon="6.015">
        <ele>435.9</ele>
        <time>2021-09-09T15:58:07Z</time>
      </trkpt>
      <trkpt lat="44.10441" lon="6.01499">
        <ele>435.9</ele>
        <time>2021-09-09T15:58:08Z</time>
      </trkpt>
      <trkpt lat="44.10443" lon="6.01498">
        <ele>435.8</ele>
        <time>2021-09-09T15:58:10Z</time>
      </trkpt>
      <trkpt lat="44.10446" lon="6.01497">
        <ele>435.8</ele>
        <time>2021-09-09T15:58:11Z</time>
      </trkpt>
      <trkpt lat="44.10447" lon="6.01496">
        <ele>435.8</ele>
        <time>2021-09-09T15:58:12Z</time>
      </trkpt>
      <trkpt lat="44.10448" lon="6.01493">
        <ele>435.8</ele>
        <time>2021-09-09T15:58:13Z</time>
      </trkpt>
      <trkpt lat="44.10448" lon="6.01491">
        <ele>435.8</ele>
        <time>2021-09-09T15:58:14Z</time>
      </trkpt>
      <trkpt lat="44.1045" lon="6.01489">
        <ele>435.8</ele>
        <time>2021-09-09T15:58:16Z</time>
      </trkpt>
      <trkpt lat="44.10451" lon="6.01488">
        <ele>435.8</ele>
        <time>2021-09-09T15:58:17Z</time>
      </trkpt>
      <trkpt lat="44.10452" lon="6.01487">
        <ele>435.9</ele>
        <time>2021-09-09T15:58:18Z</time>
      </trkpt>
      <trkpt lat="44.10454" lon="6.01487">
        <ele>435.9</ele>
        <time>2021-09-09T15:58:19Z</time>
      </trkpt>
      <trkpt lat="44.10454" lon="6.01488">
        <ele>435.9</ele>
        <time>2021-09-09T15:58:20Z</time>
      </trkpt>
      <trkpt lat="44.10455" lon="6.01489">
        <ele>435.9</ele>
        <time>2021-09-09T15:58:21Z</time>
      </trkpt>
      <trkpt lat="44.10456" lon="6.01489">
        <ele>436</ele>
        <time>2021-09-09T15:58:22Z</time>
      </trkpt>
      <trkpt lat="44.10459" lon="6.01494">
        <ele>436.1</ele>
        <time>2021-09-09T15:58:24Z</time>
      </trkpt>
      <trkpt lat="44.10463" lon="6.01498">
        <ele>436.2</ele>
        <time>2021-09-09T15:58:26Z</time>
      </trkpt>
      <trkpt lat="44.10466" lon="6.01501">
        <ele>436.3</ele>
        <time>2021-09-09T15:58:28Z</time>
      </trkpt>
      <trkpt lat="44.10468" lon="6.01504">
        <ele>436.4</ele>
        <time>2021-09-09T15:58:29Z</time>
      </trkpt>
      <trkpt lat="44.1047" lon="6.01506">
        <ele>436.5</ele>
        <time>2021-09-09T15:58:30Z</time>
      </trkpt>
      <trkpt lat="44.10473" lon="6.0151">
        <ele>436.6</ele>
        <time>2021-09-09T15:58:32Z</time>
      </trkpt>
      <trkpt lat="44.10475" lon="6.01514">
        <ele>436.7</ele>
        <time>2021-09-09T15:58:33Z</time>
      </trkpt>
      <trkpt lat="44.10475" lon="6.01515">
        <ele>436.7</ele>
        <time>2021-09-09T15:58:34Z</time>
      </trkpt>
      <trkpt lat="44.10477" lon="6.01519">
        <ele>436.8</ele>
        <time>2021-09-09T15:58:36Z</time>
      </trkpt>
      <trkpt lat="44.10478" lon="6.01522">
        <ele>436.8</ele>
        <time>2021-09-09T15:58:37Z</time>
      </trkpt>
      <trkpt lat="44.10482" lon="6.01526">
        <ele>436.9</ele>
        <time>2021-09-09T15:58:39Z</time>
      </trkpt>
      <trkpt lat="44.10484" lon="6.01529">
        <ele>437</ele>
        <time>2021-09-09T15:58:40Z</time>
      </trkpt>
      <trkpt lat="44.10485" lon="6.0153">
        <ele>437</ele>
        <time>2021-09-09T15:58:41Z</time>
      </trkpt>
      <trkpt lat="44.10487" lon="6.01534">
        <ele>437.1</ele>
        <time>2021-09-09T15:58:43Z</time>
      </trkpt>
      <trkpt lat="44.10489" lon="6.01537">
        <ele>437.2</ele>
        <time>2021-09-09T15:58:44Z</time>
      </trkpt>
      <trkpt lat="44.10492" lon="6.0154">
        <ele>437.2</ele>
        <time>2021-09-09T15:58:45Z</time>
      </trkpt>
      <trkpt lat="44.10493" lon="6.01541">
        <ele>437.3</ele>
        <time>2021-09-09T15:58:46Z</time>
      </trkpt>
      <trkpt lat="44.10496" lon="6.01544">
        <ele>437.4</ele>
        <time>2021-09-09T15:58:47Z</time>
      </trkpt>
      <trkpt lat="44.10497" lon="6.01545">
        <ele>437.4</ele>
        <time>2021-09-09T15:58:48Z</time>
      </trkpt>
      <trkpt lat="44.10499" lon="6.01549">
        <ele>437.5</ele>
        <time>2021-09-09T15:58:49Z</time>
      </trkpt>
      <trkpt lat="44.105" lon="6.0155">
        <ele>437.5</ele>
        <time>2021-09-09T15:58:50Z</time>
      </trkpt>
      <trkpt lat="44.10503" lon="6.01555">
        <ele>437.6</ele>
        <time>2021-09-09T15:58:52Z</time>
      </trkpt>
      <trkpt lat="44.10504" lon="6.01557">
        <ele>437.6</ele>
        <time>2021-09-09T15:58:53Z</time>
      </trkpt>
      <trkpt lat="44.10505" lon="6.01559">
        <ele>437.6</ele>
        <time>2021-09-09T15:58:54Z</time>
      </trkpt>
      <trkpt lat="44.10508" lon="6.01563">
        <ele>437.7</ele>
        <time>2021-09-09T15:58:56Z</time>
      </trkpt>
      <trkpt lat="44.10508" lon="6.01564">
        <ele>437.7</ele>
        <time>2021-09-09T15:58:57Z</time>
      </trkpt>
      <trkpt lat="44.1051" lon="6.01567">
        <ele>437.8</ele>
        <time>2021-09-09T15:58:58Z</time>
      </trkpt>
      <trkpt lat="44.10511" lon="6.01568">
        <ele>437.8</ele>
        <time>2021-09-09T15:58:59Z</time>
      </trkpt>
      <trkpt lat="44.10514" lon="6.01572">
        <ele>437.9</ele>
        <time>2021-09-09T15:59:01Z</time>
      </trkpt>
      <trkpt lat="44.10516" lon="6.01576">
        <ele>438</ele>
        <time>2021-09-09T15:59:02Z</time>
      </trkpt>
      <trkpt lat="44.1052" lon="6.01579">
        <ele>438.2</ele>
        <time>2021-09-09T15:59:04Z</time>
      </trkpt>
      <trkpt lat="44.10523" lon="6.01583">
        <ele>438.3</ele>
        <time>2021-09-09T15:59:05Z</time>
      </trkpt>
      <trkpt lat="44.10527" lon="6.01586">
        <ele>438.5</ele>
        <time>2021-09-09T15:59:07Z</time>
      </trkpt>
      <trkpt lat="44.1053" lon="6.0159">
        <ele>438.6</ele>
        <time>2021-09-09T15:59:08Z</time>
      </trkpt>
      <trkpt lat="44.10532" lon="6.01593">
        <ele>438.8</ele>
        <time>2021-09-09T15:59:09Z</time>
      </trkpt>
      <trkpt lat="44.10535" lon="6.01598">
        <ele>439</ele>
        <time>2021-09-09T15:59:11Z</time>
      </trkpt>
      <trkpt lat="44.10536" lon="6.01603">
        <ele>439.4</ele>
        <time>2021-09-09T15:59:12Z</time>
      </trkpt>
      <trkpt lat="44.10536" lon="6.01604">
        <ele>439.4</ele>
        <time>2021-09-09T15:59:13Z</time>
      </trkpt>
      <trkpt lat="44.10535" lon="6.01609">
        <ele>439.4</ele>
        <time>2021-09-09T15:59:15Z</time>
      </trkpt>
      <trkpt lat="44.10533" lon="6.01612">
        <ele>439.4</ele>
        <time>2021-09-09T15:59:16Z</time>
      </trkpt>
      <trkpt lat="44.10532" lon="6.01613">
        <ele>439.4</ele>
        <time>2021-09-09T15:59:17Z</time>
      </trkpt>
      <trkpt lat="44.10529" lon="6.01613">
        <ele>439.4</ele>
        <time>2021-09-09T15:59:19Z</time>
      </trkpt>
      <trkpt lat="44.10527" lon="6.01612">
        <ele>439.7</ele>
        <time>2021-09-09T15:59:20Z</time>
      </trkpt>
      <trkpt lat="44.10525" lon="6.01609">
        <ele>439.7</ele>
        <time>2021-09-09T15:59:21Z</time>
      </trkpt>
      <trkpt lat="44.10523" lon="6.01605">
        <ele>439.7</ele>
        <time>2021-09-09T15:59:22Z</time>
      </trkpt>
      <trkpt lat="44.1052" lon="6.01602">
        <ele>439.7</ele>
        <time>2021-09-09T15:59:23Z</time>
      </trkpt>
      <trkpt lat="44.1052" lon="6.01601">
        <ele>439.7</ele>
        <time>2021-09-09T15:59:24Z</time>
      </trkpt>
      <trkpt lat="44.10517" lon="6.01597">
        <ele>439.6</ele>
        <time>2021-09-09T15:59:26Z</time>
      </trkpt>
      <trkpt lat="44.10516" lon="6.01594">
        <ele>439.6</ele>
        <time>2021-09-09T15:59:27Z</time>
      </trkpt>
      <trkpt lat="44.10513" lon="6.01592">
        <ele>439.5</ele>
        <time>2021-09-09T15:59:29Z</time>
      </trkpt>
      <trkpt lat="44.10511" lon="6.01587">
        <ele>439.4</ele>
        <time>2021-09-09T15:59:31Z</time>
      </trkpt>
      <trkpt lat="44.1051" lon="6.01584">
        <ele>439.4</ele>
        <time>2021-09-09T15:59:32Z</time>
      </trkpt>
      <trkpt lat="44.1051" lon="6.01582">
        <ele>439.4</ele>
        <time>2021-09-09T15:59:33Z</time>
      </trkpt>
      <trkpt lat="44.10509" lon="6.0158">
        <ele>439.3</ele>
        <time>2021-09-09T15:59:34Z</time>
      </trkpt>
      <trkpt lat="44.10507" lon="6.01578">
        <ele>439.3</ele>
        <time>2021-09-09T15:59:36Z</time>
      </trkpt>
      <trkpt lat="44.10506" lon="6.01577">
        <ele>439.2</ele>
        <time>2021-09-09T15:59:37Z</time>
      </trkpt>
      <trkpt lat="44.10505" lon="6.01574">
        <ele>439.1</ele>
        <time>2021-09-09T15:59:38Z</time>
      </trkpt>
      <trkpt lat="44.10504" lon="6.01573">
        <ele>439.1</ele>
        <time>2021-09-09T15:59:39Z</time>
      </trkpt>
      <trkpt lat="44.10502" lon="6.01571">
        <ele>439</ele>
        <time>2021-09-09T15:59:41Z</time>
      </trkpt>
      <trkpt lat="44.10499" lon="6.01569">
        <ele>438.9</ele>
        <time>2021-09-09T15:59:42Z</time>
      </trkpt>
      <trkpt lat="44.10499" lon="6.01568">
        <ele>438.9</ele>
        <time>2021-09-09T15:59:43Z</time>
      </trkpt>
      <trkpt lat="44.10496" lon="6.01566">
        <ele>438.8</ele>
        <time>2021-09-09T15:59:44Z</time>
      </trkpt>
      <trkpt lat="44.10495" lon="6.01565">
        <ele>438.7</ele>
        <time>2021-09-09T15:59:45Z</time>
      </trkpt>
      <trkpt lat="44.10492" lon="6.01563">
        <ele>438.6</ele>
        <time>2021-09-09T15:59:47Z</time>
      </trkpt>
      <trkpt lat="44.10489" lon="6.0156">
        <ele>438.5</ele>
        <time>2021-09-09T15:59:48Z</time>
      </trkpt>
      <trkpt lat="44.10487" lon="6.01558">
        <ele>438.4</ele>
        <time>2021-09-09T15:59:49Z</time>
      </trkpt>
      <trkpt lat="44.10484" lon="6.01556">
        <ele>438.3</ele>
        <time>2021-09-09T15:59:50Z</time>
      </trkpt>
      <trkpt lat="44.10481" lon="6.01552">
        <ele>438.1</ele>
        <time>2021-09-09T15:59:52Z</time>
      </trkpt>
      <trkpt lat="44.10479" lon="6.01549">
        <ele>437.9</ele>
        <time>2021-09-09T15:59:53Z</time>
      </trkpt>
      <trkpt lat="44.10478" lon="6.01548">
        <ele>437.9</ele>
        <time>2021-09-09T15:59:54Z</time>
      </trkpt>
      <trkpt lat="44.10476" lon="6.01545">
        <ele>437.8</ele>
        <time>2021-09-09T15:59:55Z</time>
      </trkpt>
      <trkpt lat="44.10475" lon="6.01545">
        <ele>437.7</ele>
        <time>2021-09-09T15:59:56Z</time>
      </trkpt>
      <trkpt lat="44.10473" lon="6.01542">
        <ele>437.6</ele>
        <time>2021-09-09T15:59:58Z</time>
      </trkpt>
      <trkpt lat="44.10472" lon="6.0154">
        <ele>437.5</ele>
        <time>2021-09-09T15:59:59Z</time>
      </trkpt>
      <trkpt lat="44.1047" lon="6.01539">
        <ele>437.4</ele>
        <time>2021-09-09T16:00:00Z</time>
      </trkpt>
      <trkpt lat="44.10468" lon="6.01538">
        <ele>437.3</ele>
        <time>2021-09-09T16:00:01Z</time>
      </trkpt>
      <trkpt lat="44.10466" lon="6.01534">
        <ele>437.1</ele>
        <time>2021-09-09T16:00:03Z</time>
      </trkpt>
      <trkpt lat="44.10464" lon="6.01533">
        <ele>437</ele>
        <time>2021-09-09T16:00:04Z</time>
      </trkpt>
      <trkpt lat="44.10462" lon="6.0153">
        <ele>436.8</ele>
        <time>2021-09-09T16:00:06Z</time>
      </trkpt>
      <trkpt lat="44.1046" lon="6.01527">
        <ele>436.7</ele>
        <time>2021-09-09T16:00:08Z</time>
      </trkpt>
      <trkpt lat="44.10459" lon="6.01525">
        <ele>436.6</ele>
        <time>2021-09-09T16:00:09Z</time>
      </trkpt>
      <trkpt lat="44.10456" lon="6.01526">
        <ele>436.6</ele>
        <time>2021-09-09T16:00:11Z</time>
      </trkpt>
      <trkpt lat="44.10454" lon="6.0153">
        <ele>436.7</ele>
        <time>2021-09-09T16:00:13Z</time>
      </trkpt>
      <trkpt lat="44.10454" lon="6.01531">
        <ele>436.7</ele>
        <time>2021-09-09T16:00:14Z</time>
      </trkpt>
      <trkpt lat="44.10456" lon="6.01535">
        <ele>436.8</ele>
        <time>2021-09-09T16:00:16Z</time>
      </trkpt>
      <trkpt lat="44.10456" lon="6.01536">
        <ele>436.9</ele>
        <time>2021-09-09T16:00:17Z</time>
      </trkpt>
      <trkpt lat="44.1046" lon="6.01536">
        <ele>437.1</ele>
        <time>2021-09-09T16:00:19Z</time>
      </trkpt>
      <trkpt lat="44.10464" lon="6.01536">
        <ele>437.2</ele>
        <time>2021-09-09T16:00:21Z</time>
      </trkpt>
      <trkpt lat="44.10467" lon="6.01537">
        <ele>437.4</ele>
        <time>2021-09-09T16:00:22Z</time>
      </trkpt>
      <trkpt lat="44.10468" lon="6.01538">
        <ele>437.4</ele>
        <time>2021-09-09T16:00:23Z</time>
      </trkpt>
      <trkpt lat="44.1047" lon="6.01543">
        <ele>437.7</ele>
        <time>2021-09-09T16:00:25Z</time>
      </trkpt>
      <trkpt lat="44.1047" lon="6.01545">
        <ele>437.7</ele>
        <time>2021-09-09T16:00:26Z</time>
      </trkpt>
      <trkpt lat="44.10471" lon="6.01546">
        <ele>437.8</ele>
        <time>2021-09-09T16:00:27Z</time>
      </trkpt>
      <trkpt lat="44.1047" lon="6.01549">
        <ele>437.8</ele>
        <time>2021-09-09T16:00:29Z</time>
      </trkpt>
      <trkpt lat="44.1047" lon="6.01549">
        <ele>437.8</ele>
        <time>2021-09-09T16:00:30Z</time>
      </trkpt>
      <trkpt lat="44.1047" lon="6.01548">
        <ele>437.9</ele>
        <time>2021-09-09T16:00:32Z</time>
      </trkpt>
      <trkpt lat="44.1047" lon="6.01548">
        <ele>437.9</ele>
        <time>2021-09-09T16:00:34Z</time>
      </trkpt>
      <trkpt lat="44.1047" lon="6.01548">
        <ele>437.9</ele>
        <time>2021-09-09T16:00:35Z</time>
      </trkpt>
      <trkpt lat="44.10471" lon="6.01547">
        <ele>437.9</ele>
        <time>2021-09-09T16:00:37Z</time>
      </trkpt>
      <trkpt lat="44.1047" lon="6.01554">
        <ele>438.1</ele>
        <time>2021-09-09T16:02:01Z</time>
      </trkpt>
      <trkpt lat="44.10477" lon="6.01559">
        <ele>438.4</ele>
        <time>2021-09-09T16:02:03Z</time>
      </trkpt>
      <trkpt lat="44.10482" lon="6.01563">
        <ele>438.6</ele>
        <time>2021-09-09T16:02:04Z</time>
      </trkpt>
      <trkpt lat="44.10486" lon="6.01565">
        <ele>438.7</ele>
        <time>2021-09-09T16:02:05Z</time>
      </trkpt>
      <trkpt lat="44.1049" lon="6.01569">
        <ele>438.8</ele>
        <time>2021-09-09T16:02:07Z</time>
      </trkpt>
      <trkpt lat="44.10496" lon="6.01573">
        <ele>439</ele>
        <time>2021-09-09T16:02:08Z</time>
      </trkpt>
      <trkpt lat="44.10498" lon="6.01574">
        <ele>439.1</ele>
        <time>2021-09-09T16:02:09Z</time>
      </trkpt>
      <trkpt lat="44.10503" lon="6.01576">
        <ele>439.3</ele>
        <time>2021-09-09T16:02:11Z</time>
      </trkpt>
      <trkpt lat="44.10505" lon="6.01579">
        <ele>439.3</ele>
        <time>2021-09-09T16:02:12Z</time>
      </trkpt>
      <trkpt lat="44.10508" lon="6.01584">
        <ele>439.4</ele>
        <time>2021-09-09T16:02:14Z</time>
      </trkpt>
      <trkpt lat="44.10513" lon="6.01588">
        <ele>439.5</ele>
        <time>2021-09-09T16:02:16Z</time>
      </trkpt>
      <trkpt lat="44.10516" lon="6.01592">
        <ele>439.6</ele>
        <time>2021-09-09T16:02:18Z</time>
      </trkpt>
      <trkpt lat="44.10517" lon="6.01596">
        <ele>439.7</ele>
        <time>2021-09-09T16:02:19Z</time>
      </trkpt>
      <trkpt lat="44.10518" lon="6.01598">
        <ele>439.7</ele>
        <time>2021-09-09T16:02:20Z</time>
      </trkpt>
      <trkpt lat="44.1052" lon="6.016">
        <ele>439.7</ele>
        <time>2021-09-09T16:02:21Z</time>
      </trkpt>
      <trkpt lat="44.10523" lon="6.01603">
        <ele>439.7</ele>
        <time>2021-09-09T16:02:23Z</time>
      </trkpt>
      <trkpt lat="44.10526" lon="6.01607">
        <ele>439.7</ele>
        <time>2021-09-09T16:02:24Z</time>
      </trkpt>
      <trkpt lat="44.10529" lon="6.0161">
        <ele>439.6</ele>
        <time>2021-09-09T16:02:26Z</time>
      </trkpt>
      <trkpt lat="44.10531" lon="6.01614">
        <ele>439.5</ele>
        <time>2021-09-09T16:02:27Z</time>
      </trkpt>
      <trkpt lat="44.1053" lon="6.0162">
        <ele>439.4</ele>
        <time>2021-09-09T16:02:29Z</time>
      </trkpt>
      <trkpt lat="44.10526" lon="6.01624">
        <ele>439.4</ele>
        <time>2021-09-09T16:02:31Z</time>
      </trkpt>
      <trkpt lat="44.10522" lon="6.01628">
        <ele>439.4</ele>
        <time>2021-09-09T16:02:32Z</time>
      </trkpt>
      <trkpt lat="44.1052" lon="6.01632">
        <ele>439.4</ele>
        <time>2021-09-09T16:02:33Z</time>
      </trkpt>
      <trkpt lat="44.10515" lon="6.01639">
        <ele>439.3</ele>
        <time>2021-09-09T16:02:35Z</time>
      </trkpt>
      <trkpt lat="44.10512" lon="6.01643">
        <ele>439.2</ele>
        <time>2021-09-09T16:02:36Z</time>
      </trkpt>
      <trkpt lat="44.1051" lon="6.01647">
        <ele>439.1</ele>
        <time>2021-09-09T16:02:37Z</time>
      </trkpt>
      <trkpt lat="44.10508" lon="6.0165">
        <ele>439</ele>
        <time>2021-09-09T16:02:38Z</time>
      </trkpt>
      <trkpt lat="44.10505" lon="6.01653">
        <ele>439</ele>
        <time>2021-09-09T16:02:39Z</time>
      </trkpt>
      <trkpt lat="44.10501" lon="6.01658">
        <ele>439</ele>
        <time>2021-09-09T16:02:41Z</time>
      </trkpt>
      <trkpt lat="44.10499" lon="6.01661">
        <ele>438.9</ele>
        <time>2021-09-09T16:02:42Z</time>
      </trkpt>
      <trkpt lat="44.10496" lon="6.01665">
        <ele>438.9</ele>
        <time>2021-09-09T16:02:43Z</time>
      </trkpt>
      <trkpt lat="44.10493" lon="6.01671">
        <ele>438.9</ele>
        <time>2021-09-09T16:02:45Z</time>
      </trkpt>
      <trkpt lat="44.10491" lon="6.01676">
        <ele>438.8</ele>
        <time>2021-09-09T16:02:46Z</time>
      </trkpt>
      <trkpt lat="44.10486" lon="6.0168">
        <ele>438.8</ele>
        <time>2021-09-09T16:02:48Z</time>
      </trkpt>
      <trkpt lat="44.10484" lon="6.01681">
        <ele>438.7</ele>
        <time>2021-09-09T16:02:49Z</time>
      </trkpt>
      <trkpt lat="44.1048" lon="6.01681">
        <ele>438.6</ele>
        <time>2021-09-09T16:02:51Z</time>
      </trkpt>
      <trkpt lat="44.10477" lon="6.01682">
        <ele>438.5</ele>
        <time>2021-09-09T16:02:52Z</time>
      </trkpt>
      <trkpt lat="44.10475" lon="6.01685">
        <ele>438.4</ele>
        <time>2021-09-09T16:02:53Z</time>
      </trkpt>
      <trkpt lat="44.10473" lon="6.01689">
        <ele>438.3</ele>
        <time>2021-09-09T16:02:55Z</time>
      </trkpt>
      <trkpt lat="44.10473" lon="6.01692">
        <ele>438.3</ele>
        <time>2021-09-09T16:02:56Z</time>
      </trkpt>
      <trkpt lat="44.10472" lon="6.01693">
        <ele>438.3</ele>
        <time>2021-09-09T16:02:57Z</time>
      </trkpt>
      <trkpt lat="44.10471" lon="6.01693">
        <ele>438.2</ele>
        <time>2021-09-09T16:02:59Z</time>
      </trkpt>
      <trkpt lat="44.1047" lon="6.01693">
        <ele>438.2</ele>
        <time>2021-09-09T16:03:01Z</time>
      </trkpt>
      <trkpt lat="44.1047" lon="6.01693">
        <ele>438.2</ele>
        <time>2021-09-09T16:03:03Z</time>
      </trkpt>
      <trkpt lat="44.1047" lon="6.01693">
        <ele>438.2</ele>
        <time>2021-09-09T16:03:04Z</time>
      </trkpt>
      <trkpt lat="44.1047" lon="6.01693">
        <ele>438.2</ele>
        <time>2021-09-09T16:03:06Z</time>
      </trkpt>
      <trkpt lat="44.1047" lon="6.01693">
        <ele>438.2</ele>
        <time>2021-09-09T16:03:08Z</time>
      </trkpt>
      <trkpt lat="44.10461" lon="6.01634">
        <ele>436.7</ele>
        <time>2021-09-09T16:05:20Z</time>
      </trkpt>
      <trkpt lat="44.10459" lon="6.01646">
        <ele>436.8</ele>
        <time>2021-09-09T16:05:22Z</time>
      </trkpt>
      <trkpt lat="44.10458" lon="6.01655">
        <ele>436.9</ele>
        <time>2021-09-09T16:05:24Z</time>
      </trkpt>
      <trkpt lat="44.10457" lon="6.01664">
        <ele>437</ele>
        <time>2021-09-09T16:05:25Z</time>
      </trkpt>
      <trkpt lat="44.10456" lon="6.01673">
        <ele>437.1</ele>
        <time>2021-09-09T16:05:26Z</time>
      </trkpt>
      <trkpt lat="44.10455" lon="6.01681">
        <ele>437.2</ele>
        <time>2021-09-09T16:05:27Z</time>
      </trkpt>
      <trkpt lat="44.10452" lon="6.01696">
        <ele>437.4</ele>
        <time>2021-09-09T16:05:29Z</time>
      </trkpt>
      <trkpt lat="44.10451" lon="6.01702">
        <ele>437.5</ele>
        <time>2021-09-09T16:05:31Z</time>
      </trkpt>
      <trkpt lat="44.1045" lon="6.01703">
        <ele>437.5</ele>
        <time>2021-09-09T16:05:32Z</time>
      </trkpt>
      <trkpt lat="44.10449" lon="6.01706">
        <ele>437.5</ele>
        <time>2021-09-09T16:05:34Z</time>
      </trkpt>
      <trkpt lat="44.10449" lon="6.01706">
        <ele>437.5</ele>
        <time>2021-09-09T16:05:35Z</time>
      </trkpt>
      <trkpt lat="44.10449" lon="6.01706">
        <ele>437.5</ele>
        <time>2021-09-09T16:05:36Z</time>
      </trkpt>
      <trkpt lat="44.10449" lon="6.01706">
        <ele>437.5</ele>
        <time>2021-09-09T16:05:38Z</time>
      </trkpt>
      <trkpt lat="44.10449" lon="6.01706">
        <ele>437.5</ele>
        <time>2021-09-09T16:05:40Z</time>
      </trkpt>
      <trkpt lat="44.10449" lon="6.01706">
        <ele>437.5</ele>
        <time>2021-09-09T16:05:41Z</time>
      </trkpt>
      <trkpt lat="44.10449" lon="6.01706">
        <ele>437.5</ele>
        <time>2021-09-09T16:05:42Z</time>
      </trkpt>
      <trkpt lat="44.10448" lon="6.01707">
        <ele>437.6</ele>
        <time>2021-09-09T16:05:44Z</time>
      </trkpt>
      <trkpt lat="44.10448" lon="6.01707">
        <ele>437.6</ele>
        <time>2021-09-09T16:05:46Z</time>
      </trkpt>
      <trkpt lat="44.10448" lon="6.01708">
        <ele>437.6</ele>
        <time>2021-09-09T16:05:47Z</time>
      </trkpt>
      <trkpt lat="44.10448" lon="6.01708">
        <ele>437.6</ele>
        <time>2021-09-09T16:05:49Z</time>
      </trkpt>
      <trkpt lat="44.10447" lon="6.01709">
        <ele>437.6</ele>
        <time>2021-09-09T16:05:50Z</time>
      </trkpt>
      <trkpt lat="44.10447" lon="6.01709">
        <ele>437.6</ele>
        <time>2021-09-09T16:05:51Z</time>
      </trkpt>
      <trkpt lat="44.10448" lon="6.01709">
        <ele>437.6</ele>
        <time>2021-09-09T16:05:52Z</time>
      </trkpt>
      <trkpt lat="44.10448" lon="6.0171">
        <ele>437.6</ele>
        <time>2021-09-09T16:05:54Z</time>
      </trkpt>
      <trkpt lat="44.10449" lon="6.0171">
        <ele>437.6</ele>
        <time>2021-09-09T16:05:55Z</time>
      </trkpt>
      <trkpt lat="44.1045" lon="6.01711">
        <ele>437.6</ele>
        <time>2021-09-09T16:05:56Z</time>
      </trkpt>
      <trkpt lat="44.10451" lon="6.01711">
        <ele>437.7</ele>
        <time>2021-09-09T16:05:58Z</time>
      </trkpt>
      <trkpt lat="44.10452" lon="6.01712">
        <ele>437.7</ele>
        <time>2021-09-09T16:06:02Z</time>
      </trkpt>
      <trkpt lat="44.10471" lon="6.01694">
        <ele>438.3</ele>
        <time>2021-09-09T16:06:08Z</time>
      </trkpt>
      <trkpt lat="44.10474" lon="6.01691">
        <ele>439.1</ele>
        <time>2021-09-09T16:06:15Z</time>
      </trkpt>
      <trkpt lat="44.10474" lon="6.01691">
        <ele>439.1</ele>
        <time>2021-09-09T16:06:21Z</time>
      </trkpt>
      <trkpt lat="44.10473" lon="6.01692">
        <ele>439.1</ele>
        <time>2021-09-09T16:06:27Z</time>
      </trkpt>
      <trkpt lat="44.10486" lon="6.01736">
        <ele>440.2</ele>
        <time>2021-09-09T16:07:21Z</time>
      </trkpt>
      <trkpt lat="44.10484" lon="6.01727">
        <ele>440.1</ele>
        <time>2021-09-09T16:07:24Z</time>
      </trkpt>
      <trkpt lat="44.10481" lon="6.01715">
        <ele>439.9</ele>
        <time>2021-09-09T16:07:26Z</time>
      </trkpt>
      <trkpt lat="44.1048" lon="6.01711">
        <ele>439.9</ele>
        <time>2021-09-09T16:07:27Z</time>
      </trkpt>
      <trkpt lat="44.1048" lon="6.0171">
        <ele>439.9</ele>
        <time>2021-09-09T16:07:28Z</time>
      </trkpt>
      <trkpt lat="44.1048" lon="6.01708">
        <ele>439.9</ele>
        <time>2021-09-09T16:07:30Z</time>
      </trkpt>
      <trkpt lat="44.10481" lon="6.01705">
        <ele>439.8</ele>
        <time>2021-09-09T16:07:37Z</time>
      </trkpt>
      <trkpt lat="44.10476" lon="6.01691">
        <ele>439.1</ele>
        <time>2021-09-09T16:07:43Z</time>
      </trkpt>
      <trkpt lat="44.10475" lon="6.01689">
        <ele>439.1</ele>
        <time>2021-09-09T16:07:49Z</time>
      </trkpt>
      <trkpt lat="44.10476" lon="6.01689">
        <ele>439.1</ele>
        <time>2021-09-09T16:07:56Z</time>
      </trkpt>
      <trkpt lat="44.10477" lon="6.01689">
        <ele>439.1</ele>
        <time>2021-09-09T16:08:02Z</time>
      </trkpt>
      <trkpt lat="44.10478" lon="6.01689">
        <ele>439.1</ele>
        <time>2021-09-09T16:11:00Z</time>
      </trkpt>
      <trkpt lat="44.10479" lon="6.01689">
        <ele>439.1</ele>
        <time>2021-09-09T16:11:01Z</time>
      </trkpt>
      <trkpt lat="44.10487" lon="6.01677">
        <ele>438.8</ele>
        <time>2021-09-09T16:11:03Z</time>
      </trkpt>
      <trkpt lat="44.10496" lon="6.01664">
        <ele>438.9</ele>
        <time>2021-09-09T16:11:05Z</time>
      </trkpt>
      <trkpt lat="44.105" lon="6.01658">
        <ele>438.9</ele>
        <time>2021-09-09T16:11:06Z</time>
      </trkpt>
      <trkpt lat="44.10503" lon="6.01652">
        <ele>439</ele>
        <time>2021-09-09T16:11:07Z</time>
      </trkpt>
      <trkpt lat="44.10506" lon="6.01646">
        <ele>439</ele>
        <time>2021-09-09T16:11:08Z</time>
      </trkpt>
      <trkpt lat="44.10508" lon="6.01641">
        <ele>439.1</ele>
        <time>2021-09-09T16:11:09Z</time>
      </trkpt>
      <trkpt lat="44.10511" lon="6.01637">
        <ele>439.2</ele>
        <time>2021-09-09T16:11:10Z</time>
      </trkpt>
      <trkpt lat="44.10513" lon="6.01633">
        <ele>439.3</ele>
        <time>2021-09-09T16:11:11Z</time>
      </trkpt>
      <trkpt lat="44.10517" lon="6.01626">
        <ele>439.4</ele>
        <time>2021-09-09T16:11:13Z</time>
      </trkpt>
      <trkpt lat="44.10518" lon="6.01621">
        <ele>439.1</ele>
        <time>2021-09-09T16:11:15Z</time>
      </trkpt>
      <trkpt lat="44.10517" lon="6.01617">
        <ele>439</ele>
        <time>2021-09-09T16:11:16Z</time>
      </trkpt>
      <trkpt lat="44.10512" lon="6.01612">
        <ele>438.8</ele>
        <time>2021-09-09T16:11:17Z</time>
      </trkpt>
      <trkpt lat="44.10505" lon="6.01606">
        <ele>438.5</ele>
        <time>2021-09-09T16:11:19Z</time>
      </trkpt>
      <trkpt lat="44.10499" lon="6.01599">
        <ele>438.2</ele>
        <time>2021-09-09T16:11:20Z</time>
      </trkpt>
      <trkpt lat="44.10491" lon="6.01589">
        <ele>437.8</ele>
        <time>2021-09-09T16:11:22Z</time>
      </trkpt>
      <trkpt lat="44.10488" lon="6.01585">
        <ele>437.7</ele>
        <time>2021-09-09T16:11:23Z</time>
      </trkpt>
      <trkpt lat="44.10481" lon="6.01578">
        <ele>437.4</ele>
        <time>2021-09-09T16:11:25Z</time>
      </trkpt>
      <trkpt lat="44.10479" lon="6.01575">
        <ele>437.4</ele>
        <time>2021-09-09T16:11:26Z</time>
      </trkpt>
      <trkpt lat="44.10476" lon="6.01572">
        <ele>437.2</ele>
        <time>2021-09-09T16:11:27Z</time>
      </trkpt>
      <trkpt lat="44.10469" lon="6.01564">
        <ele>437</ele>
        <time>2021-09-09T16:11:29Z</time>
      </trkpt>
      <trkpt lat="44.10461" lon="6.01554">
        <ele>436.8</ele>
        <time>2021-09-09T16:11:31Z</time>
      </trkpt>
      <trkpt lat="44.10454" lon="6.01548">
        <ele>436.6</ele>
        <time>2021-09-09T16:11:33Z</time>
      </trkpt>
      <trkpt lat="44.1045" lon="6.01544">
        <ele>436.5</ele>
        <time>2021-09-09T16:11:35Z</time>
      </trkpt>
      <trkpt lat="44.10447" lon="6.0154">
        <ele>436.4</ele>
        <time>2021-09-09T16:11:36Z</time>
      </trkpt>
      <trkpt lat="44.10442" lon="6.01534">
        <ele>436.3</ele>
        <time>2021-09-09T16:11:37Z</time>
      </trkpt>
      <trkpt lat="44.10439" lon="6.0153">
        <ele>436.3</ele>
        <time>2021-09-09T16:11:39Z</time>
      </trkpt>
      <trkpt lat="44.10435" lon="6.01524">
        <ele>436.1</ele>
        <time>2021-09-09T16:11:40Z</time>
      </trkpt>
      <trkpt lat="44.10435" lon="6.01519">
        <ele>436.1</ele>
        <time>2021-09-09T16:11:42Z</time>
      </trkpt>
      <trkpt lat="44.10436" lon="6.01513">
        <ele>436</ele>
        <time>2021-09-09T16:11:43Z</time>
      </trkpt>
      <trkpt lat="44.10436" lon="6.0151">
        <ele>435.9</ele>
        <time>2021-09-09T16:11:44Z</time>
      </trkpt>
      <trkpt lat="44.10437" lon="6.01512">
        <ele>436</ele>
        <time>2021-09-09T16:11:45Z</time>
      </trkpt>
      <trkpt lat="44.10439" lon="6.01515">
        <ele>436.1</ele>
        <time>2021-09-09T16:11:47Z</time>
      </trkpt>
      <trkpt lat="44.10444" lon="6.01517">
        <ele>436.2</ele>
        <time>2021-09-09T16:11:48Z</time>
      </trkpt>
      <trkpt lat="44.10448" lon="6.01521">
        <ele>436.3</ele>
        <time>2021-09-09T16:11:49Z</time>
      </trkpt>
      <trkpt lat="44.1045" lon="6.01522">
        <ele>436.4</ele>
        <time>2021-09-09T16:11:50Z</time>
      </trkpt>
      <trkpt lat="44.10454" lon="6.01526">
        <ele>436.5</ele>
        <time>2021-09-09T16:11:51Z</time>
      </trkpt>
      <trkpt lat="44.10461" lon="6.01531">
        <ele>436.8</ele>
        <time>2021-09-09T16:11:53Z</time>
      </trkpt>
      <trkpt lat="44.10466" lon="6.01538">
        <ele>437.2</ele>
        <time>2021-09-09T16:11:55Z</time>
      </trkpt>
      <trkpt lat="44.10466" lon="6.01541">
        <ele>437.3</ele>
        <time>2021-09-09T16:11:56Z</time>
      </trkpt>
      <trkpt lat="44.10466" lon="6.01543">
        <ele>437.4</ele>
        <time>2021-09-09T16:11:57Z</time>
      </trkpt>
      <trkpt lat="44.10468" lon="6.01545">
        <ele>437.5</ele>
        <time>2021-09-09T16:11:58Z</time>
      </trkpt>
      <trkpt lat="44.10469" lon="6.01549">
        <ele>437.6</ele>
        <time>2021-09-09T16:12:00Z</time>
      </trkpt>
      <trkpt lat="44.10471" lon="6.01551">
        <ele>437.7</ele>
        <time>2021-09-09T16:12:01Z</time>
      </trkpt>
      <trkpt lat="44.10474" lon="6.01554">
        <ele>437.9</ele>
        <time>2021-09-09T16:12:03Z</time>
      </trkpt>
      <trkpt lat="44.10477" lon="6.01557">
        <ele>438.1</ele>
        <time>2021-09-09T16:12:04Z</time>
      </trkpt>
      <trkpt lat="44.10478" lon="6.01558">
        <ele>438.1</ele>
        <time>2021-09-09T16:12:05Z</time>
      </trkpt>
      <trkpt lat="44.10481" lon="6.01562">
        <ele>438.3</ele>
        <time>2021-09-09T16:12:07Z</time>
      </trkpt>
      <trkpt lat="44.10477" lon="6.01559">
        <ele>438.1</ele>
        <time>2021-09-09T16:12:09Z</time>
      </trkpt>
      <trkpt lat="44.10472" lon="6.01555">
        <ele>437.8</ele>
        <time>2021-09-09T16:12:10Z</time>
      </trkpt>
      <trkpt lat="44.10469" lon="6.01553">
        <ele>437.7</ele>
        <time>2021-09-09T16:12:11Z</time>
      </trkpt>
      <trkpt lat="44.10464" lon="6.01548">
        <ele>437.4</ele>
        <time>2021-09-09T16:12:12Z</time>
      </trkpt>
      <trkpt lat="44.10459" lon="6.01545">
        <ele>437.2</ele>
        <time>2021-09-09T16:12:14Z</time>
      </trkpt>
      <trkpt lat="44.10457" lon="6.01544">
        <ele>437.1</ele>
        <time>2021-09-09T16:12:16Z</time>
      </trkpt>
      <trkpt lat="44.10457" lon="6.01543">
        <ele>437</ele>
        <time>2021-09-09T16:12:17Z</time>
      </trkpt>
      <trkpt lat="44.10457" lon="6.01542">
        <ele>437</ele>
        <time>2021-09-09T16:12:19Z</time>
      </trkpt>
      <trkpt lat="44.10457" lon="6.01542">
        <ele>437</ele>
        <time>2021-09-09T16:12:21Z</time>
      </trkpt>
      <trkpt lat="44.10457" lon="6.01542">
        <ele>437</ele>
        <time>2021-09-09T16:12:22Z</time>
      </trkpt>
      <trkpt lat="44.10457" lon="6.01542">
        <ele>437</ele>
        <time>2021-09-09T16:12:23Z</time>
      </trkpt>
      <trkpt lat="44.10457" lon="6.01542">
        <ele>437</ele>
        <time>2021-09-09T16:12:24Z</time>
      </trkpt>
      <trkpt lat="44.10458" lon="6.01542">
        <ele>436.9</ele>
        <time>2021-09-09T16:12:26Z</time>
      </trkpt>
      <trkpt lat="44.10376" lon="6.01878">
        <ele>434.7</ele>
        <time>2021-09-10T08:47:20Z</time>
      </trkpt>
      <trkpt lat="44.10376" lon="6.01878">
        <ele>434.7</ele>
        <time>2021-09-10T08:47:20Z</time>
      </trkpt>
      <trkpt lat="44.10376" lon="6.01877">
        <ele>434.7</ele>
        <time>2021-09-10T08:47:21Z</time>
      </trkpt>
      <trkpt lat="44.10375" lon="6.01877">
        <ele>434.7</ele>
        <time>2021-09-10T08:47:27Z</time>
      </trkpt>
      <trkpt lat="44.10292" lon="6.01783">
        <ele>434.2</ele>
        <time>2021-09-10T08:47:39Z</time>
      </trkpt>
      <trkpt lat="44.10283" lon="6.01774">
        <ele>434.3</ele>
        <time>2021-09-10T08:47:40Z</time>
      </trkpt>
      <trkpt lat="44.10276" lon="6.01768">
        <ele>431.7</ele>
        <time>2021-09-10T08:47:42Z</time>
      </trkpt>
      <trkpt lat="44.10252" lon="6.0175">
        <ele>427.2</ele>
        <time>2021-09-10T08:47:44Z</time>
      </trkpt>
      <trkpt lat="44.10242" lon="6.01742">
        <ele>427.3</ele>
        <time>2021-09-10T08:47:45Z</time>
      </trkpt>
      <trkpt lat="44.10238" lon="6.01738">
        <ele>427.3</ele>
        <time>2021-09-10T08:47:46Z</time>
      </trkpt>
      <trkpt lat="44.10231" lon="6.01743">
        <ele>427.2</ele>
        <time>2021-09-10T08:47:48Z</time>
      </trkpt>
      <trkpt lat="44.10226" lon="6.01751">
        <ele>426.9</ele>
        <time>2021-09-10T08:47:49Z</time>
      </trkpt>
      <trkpt lat="44.10222" lon="6.01759">
        <ele>426.5</ele>
        <time>2021-09-10T08:47:50Z</time>
      </trkpt>
      <trkpt lat="44.10188" lon="6.01846">
        <ele>426.3</ele>
        <time>2021-09-10T08:47:52Z</time>
      </trkpt>
      <trkpt lat="44.10174" lon="6.01881">
        <ele>425.2</ele>
        <time>2021-09-10T08:47:53Z</time>
      </trkpt>
      <trkpt lat="44.10161" lon="6.01912">
        <ele>425.7</ele>
        <time>2021-09-10T08:47:55Z</time>
      </trkpt>
      <trkpt lat="44.10158" lon="6.0192">
        <ele>425.2</ele>
        <time>2021-09-10T08:47:56Z</time>
      </trkpt>
      <trkpt lat="44.10154" lon="6.01938">
        <ele>424.6</ele>
        <time>2021-09-10T08:47:57Z</time>
      </trkpt>
      <trkpt lat="44.10154" lon="6.01972">
        <ele>424.3</ele>
        <time>2021-09-10T08:47:59Z</time>
      </trkpt>
      <trkpt lat="44.10156" lon="6.02">
        <ele>424</ele>
        <time>2021-09-10T08:48:00Z</time>
      </trkpt>
      <trkpt lat="44.10158" lon="6.02009">
        <ele>423.7</ele>
        <time>2021-09-10T08:48:01Z</time>
      </trkpt>
      <trkpt lat="44.10159" lon="6.02014">
        <ele>423.4</ele>
        <time>2021-09-10T08:48:03Z</time>
      </trkpt>
      <trkpt lat="44.10161" lon="6.0202">
        <ele>423</ele>
        <time>2021-09-10T08:48:04Z</time>
      </trkpt>
      <trkpt lat="44.10164" lon="6.02034">
        <ele>422.2</ele>
        <time>2021-09-10T08:48:06Z</time>
      </trkpt>
      <trkpt lat="44.10165" lon="6.02041">
        <ele>421.7</ele>
        <time>2021-09-10T08:48:07Z</time>
      </trkpt>
      <trkpt lat="44.10167" lon="6.02049">
        <ele>421</ele>
        <time>2021-09-10T08:48:08Z</time>
      </trkpt>
      <trkpt lat="44.1017" lon="6.02062">
        <ele>420.6</ele>
        <time>2021-09-10T08:48:09Z</time>
      </trkpt>
      <trkpt lat="44.10174" lon="6.02075">
        <ele>421.5</ele>
        <time>2021-09-10T08:48:11Z</time>
      </trkpt>
      <trkpt lat="44.10179" lon="6.02087">
        <ele>424.2</ele>
        <time>2021-09-10T08:48:13Z</time>
      </trkpt>
      <trkpt lat="44.10182" lon="6.02097">
        <ele>425.9</ele>
        <time>2021-09-10T08:48:15Z</time>
      </trkpt>
      <trkpt lat="44.10184" lon="6.02104">
        <ele>426.5</ele>
        <time>2021-09-10T08:48:16Z</time>
      </trkpt>
      <trkpt lat="44.10189" lon="6.02118">
        <ele>426.1</ele>
        <time>2021-09-10T08:48:18Z</time>
      </trkpt>
      <trkpt lat="44.10193" lon="6.0213">
        <ele>425.5</ele>
        <time>2021-09-10T08:48:19Z</time>
      </trkpt>
      <trkpt lat="44.10195" lon="6.02145">
        <ele>425.7</ele>
        <time>2021-09-10T08:48:21Z</time>
      </trkpt>
      <trkpt lat="44.102" lon="6.02158">
        <ele>425.6</ele>
        <time>2021-09-10T08:48:23Z</time>
      </trkpt>
      <trkpt lat="44.10207" lon="6.02168">
        <ele>425.9</ele>
        <time>2021-09-10T08:48:24Z</time>
      </trkpt>
      <trkpt lat="44.10219" lon="6.02193">
        <ele>427.9</ele>
        <time>2021-09-10T08:48:26Z</time>
      </trkpt>
      <trkpt lat="44.1023" lon="6.02219">
        <ele>432.9</ele>
        <time>2021-09-10T08:48:27Z</time>
      </trkpt>
      <trkpt lat="44.10236" lon="6.02246">
        <ele>437.5</ele>
        <time>2021-09-10T08:48:29Z</time>
      </trkpt>
      <trkpt lat="44.1024" lon="6.02268">
        <ele>440.8</ele>
        <time>2021-09-10T08:48:31Z</time>
      </trkpt>
      <trkpt lat="44.10244" lon="6.02287">
        <ele>444.9</ele>
        <time>2021-09-10T08:48:32Z</time>
      </trkpt>
      <trkpt lat="44.10249" lon="6.02311">
        <ele>447.5</ele>
        <time>2021-09-10T08:48:33Z</time>
      </trkpt>
      <trkpt lat="44.10252" lon="6.02326">
        <ele>449.2</ele>
        <time>2021-09-10T08:48:35Z</time>
      </trkpt>
      <trkpt lat="44.10259" lon="6.02376">
        <ele>451</ele>
        <time>2021-09-10T08:48:37Z</time>
      </trkpt>
      <trkpt lat="44.10257" lon="6.02449">
        <ele>445.4</ele>
        <time>2021-09-10T08:48:38Z</time>
      </trkpt>
      <trkpt lat="44.10253" lon="6.02459">
        <ele>443.4</ele>
        <time>2021-09-10T08:48:40Z</time>
      </trkpt>
      <trkpt lat="44.10249" lon="6.0246">
        <ele>442.7</ele>
        <time>2021-09-10T08:48:41Z</time>
      </trkpt>
      <trkpt lat="44.10237" lon="6.02461">
        <ele>441.9</ele>
        <time>2021-09-10T08:48:43Z</time>
      </trkpt>
      <trkpt lat="44.10233" lon="6.0246">
        <ele>441.8</ele>
        <time>2021-09-10T08:48:45Z</time>
      </trkpt>
      <trkpt lat="44.10228" lon="6.02456">
        <ele>441.7</ele>
        <time>2021-09-10T08:48:46Z</time>
      </trkpt>
      <trkpt lat="44.1022" lon="6.02448">
        <ele>441.4</ele>
        <time>2021-09-10T08:48:48Z</time>
      </trkpt>
      <trkpt lat="44.10215" lon="6.02443">
        <ele>441.3</ele>
        <time>2021-09-10T08:48:49Z</time>
      </trkpt>
      <trkpt lat="44.10205" lon="6.02434">
        <ele>441</ele>
        <time>2021-09-10T08:48:50Z</time>
      </trkpt>
      <trkpt lat="44.10199" lon="6.02428">
        <ele>440.9</ele>
        <time>2021-09-10T08:48:52Z</time>
      </trkpt>
      <trkpt lat="44.10197" lon="6.02427">
        <ele>440.8</ele>
        <time>2021-09-10T08:48:53Z</time>
      </trkpt>
      <trkpt lat="44.10193" lon="6.02428">
        <ele>440.8</ele>
        <time>2021-09-10T08:48:55Z</time>
      </trkpt>
      <trkpt lat="44.10189" lon="6.02432">
        <ele>440.7</ele>
        <time>2021-09-10T08:48:57Z</time>
      </trkpt>
      <trkpt lat="44.10184" lon="6.02439">
        <ele>440.6</ele>
        <time>2021-09-10T08:48:58Z</time>
      </trkpt>
      <trkpt lat="44.10183" lon="6.02443">
        <ele>440.6</ele>
        <time>2021-09-10T08:48:59Z</time>
      </trkpt>
      <trkpt lat="44.10181" lon="6.02444">
        <ele>440.5</ele>
        <time>2021-09-10T08:49:00Z</time>
      </trkpt>
      <trkpt lat="44.10179" lon="6.02441">
        <ele>440.5</ele>
        <time>2021-09-10T08:49:01Z</time>
      </trkpt>
      <trkpt lat="44.10173" lon="6.02425">
        <ele>440.4</ele>
        <time>2021-09-10T08:49:02Z</time>
      </trkpt>
      <trkpt lat="44.10146" lon="6.02359">
        <ele>440.1</ele>
        <time>2021-09-10T08:49:04Z</time>
      </trkpt>
      <trkpt lat="44.1014" lon="6.02348">
        <ele>440.1</ele>
        <time>2021-09-10T08:49:06Z</time>
      </trkpt>
      <trkpt lat="44.10138" lon="6.02345">
        <ele>440.1</ele>
        <time>2021-09-10T08:49:07Z</time>
      </trkpt>
      <trkpt lat="44.10136" lon="6.02343">
        <ele>440.1</ele>
        <time>2021-09-10T08:49:09Z</time>
      </trkpt>
      <trkpt lat="44.10135" lon="6.02342">
        <ele>440.1</ele>
        <time>2021-09-10T08:49:11Z</time>
      </trkpt>
      <trkpt lat="44.10137" lon="6.02352">
        <ele>440.1</ele>
        <time>2021-09-10T08:49:19Z</time>
      </trkpt>
      <trkpt lat="44.10141" lon="6.02355">
        <ele>440.1</ele>
        <time>2021-09-10T08:49:20Z</time>
      </trkpt>
      <trkpt lat="44.10144" lon="6.02358">
        <ele>440.1</ele>
        <time>2021-09-10T08:49:21Z</time>
      </trkpt>
      <trkpt lat="44.10147" lon="6.0236">
        <ele>440.1</ele>
        <time>2021-09-10T08:49:22Z</time>
      </trkpt>
      <trkpt lat="44.1015" lon="6.02365">
        <ele>440.1</ele>
        <time>2021-09-10T08:49:24Z</time>
      </trkpt>
      <trkpt lat="44.10152" lon="6.02372">
        <ele>440.1</ele>
        <time>2021-09-10T08:49:25Z</time>
      </trkpt>
      <trkpt lat="44.10153" lon="6.02377">
        <ele>440.1</ele>
        <time>2021-09-10T08:49:27Z</time>
      </trkpt>
      <trkpt lat="44.10153" lon="6.02378">
        <ele>440.1</ele>
        <time>2021-09-10T08:49:28Z</time>
      </trkpt>
      <trkpt lat="44.10155" lon="6.02383">
        <ele>440.1</ele>
        <time>2021-09-10T08:49:30Z</time>
      </trkpt>
      <trkpt lat="44.10155" lon="6.02384">
        <ele>440.1</ele>
        <time>2021-09-10T08:49:31Z</time>
      </trkpt>
      <trkpt lat="44.10157" lon="6.02389">
        <ele>440.1</ele>
        <time>2021-09-10T08:49:32Z</time>
      </trkpt>
      <trkpt lat="44.1016" lon="6.02394">
        <ele>440.2</ele>
        <time>2021-09-10T08:49:34Z</time>
      </trkpt>
      <trkpt lat="44.10163" lon="6.02399">
        <ele>440.2</ele>
        <time>2021-09-10T08:49:36Z</time>
      </trkpt>
      <trkpt lat="44.10165" lon="6.02403">
        <ele>440.2</ele>
        <time>2021-09-10T08:49:37Z</time>
      </trkpt>
      <trkpt lat="44.10167" lon="6.02404">
        <ele>440.2</ele>
        <time>2021-09-10T08:49:39Z</time>
      </trkpt>
      <trkpt lat="44.10171" lon="6.02408">
        <ele>440.2</ele>
        <time>2021-09-10T08:49:41Z</time>
      </trkpt>
      <trkpt lat="44.10172" lon="6.02411">
        <ele>440.3</ele>
        <time>2021-09-10T08:49:42Z</time>
      </trkpt>
      <trkpt lat="44.10176" lon="6.02414">
        <ele>440.3</ele>
        <time>2021-09-10T08:49:43Z</time>
      </trkpt>
      <trkpt lat="44.10178" lon="6.02415">
        <ele>440.3</ele>
        <time>2021-09-10T08:49:44Z</time>
      </trkpt>
      <trkpt lat="44.1018" lon="6.02417">
        <ele>440.3</ele>
        <time>2021-09-10T08:49:46Z</time>
      </trkpt>
      <trkpt lat="44.10184" lon="6.0242">
        <ele>440.4</ele>
        <time>2021-09-10T08:49:47Z</time>
      </trkpt>
      <trkpt lat="44.10186" lon="6.02422">
        <ele>440.4</ele>
        <time>2021-09-10T08:49:48Z</time>
      </trkpt>
      <trkpt lat="44.10189" lon="6.02425">
        <ele>440.4</ele>
        <time>2021-09-10T08:49:49Z</time>
      </trkpt>
      <trkpt lat="44.10192" lon="6.02427">
        <ele>440.5</ele>
        <time>2021-09-10T08:49:50Z</time>
      </trkpt>
      <trkpt lat="44.10195" lon="6.02428">
        <ele>440.5</ele>
        <time>2021-09-10T08:49:51Z</time>
      </trkpt>
      <trkpt lat="44.10199" lon="6.02432">
        <ele>440.6</ele>
        <time>2021-09-10T08:49:52Z</time>
      </trkpt>
      <trkpt lat="44.10203" lon="6.02439">
        <ele>440.7</ele>
        <time>2021-09-10T08:49:54Z</time>
      </trkpt>
      <trkpt lat="44.10203" lon="6.02439">
        <ele>440.7</ele>
        <time>2021-09-10T08:49:56Z</time>
      </trkpt>
      <trkpt lat="44.10203" lon="6.02441">
        <ele>440.7</ele>
        <time>2021-09-10T08:49:57Z</time>
      </trkpt>
      <trkpt lat="44.10203" lon="6.02442">
        <ele>440.7</ele>
        <time>2021-09-10T08:49:58Z</time>
      </trkpt>
      <trkpt lat="44.10203" lon="6.02443">
        <ele>440.7</ele>
        <time>2021-09-10T08:50:00Z</time>
      </trkpt>
      <trkpt lat="44.10203" lon="6.02444">
        <ele>440.7</ele>
        <time>2021-09-10T08:50:01Z</time>
      </trkpt>
      <trkpt lat="44.10204" lon="6.02444">
        <ele>440.7</ele>
        <time>2021-09-10T08:50:03Z</time>
      </trkpt>
      <trkpt lat="44.10192" lon="6.02441">
        <ele>440.5</ele>
        <time>2021-09-10T08:50:19Z</time>
      </trkpt>
      <trkpt lat="44.10188" lon="6.02435">
        <ele>440.4</ele>
        <time>2021-09-10T08:50:21Z</time>
      </trkpt>
      <trkpt lat="44.10181" lon="6.02424">
        <ele>440.3</ele>
        <time>2021-09-10T08:50:22Z</time>
      </trkpt>
      <trkpt lat="44.10174" lon="6.02412">
        <ele>440.2</ele>
        <time>2021-09-10T08:50:23Z</time>
      </trkpt>
      <trkpt lat="44.1017" lon="6.02408">
        <ele>440.2</ele>
        <time>2021-09-10T08:50:25Z</time>
      </trkpt>
      <trkpt lat="44.10167" lon="6.02404">
        <ele>440.2</ele>
        <time>2021-09-10T08:50:26Z</time>
      </trkpt>
      <trkpt lat="44.10164" lon="6.02402">
        <ele>440.2</ele>
        <time>2021-09-10T08:50:27Z</time>
      </trkpt>
      <trkpt lat="44.10159" lon="6.02399">
        <ele>440.1</ele>
        <time>2021-09-10T08:50:29Z</time>
      </trkpt>
      <trkpt lat="44.10155" lon="6.02398">
        <ele>440.1</ele>
        <time>2021-09-10T08:50:30Z</time>
      </trkpt>
      <trkpt lat="44.10148" lon="6.02391">
        <ele>440.1</ele>
        <time>2021-09-10T08:50:31Z</time>
      </trkpt>
      <trkpt lat="44.10143" lon="6.02384">
        <ele>440.1</ele>
        <time>2021-09-10T08:50:33Z</time>
      </trkpt>
      <trkpt lat="44.10139" lon="6.02381">
        <ele>440.1</ele>
        <time>2021-09-10T08:50:34Z</time>
      </trkpt>
      <trkpt lat="44.10132" lon="6.02376">
        <ele>440.1</ele>
        <time>2021-09-10T08:50:35Z</time>
      </trkpt>
      <trkpt lat="44.10128" lon="6.02373">
        <ele>440.1</ele>
        <time>2021-09-10T08:50:37Z</time>
      </trkpt>
      <trkpt lat="44.10125" lon="6.02371">
        <ele>440.1</ele>
        <time>2021-09-10T08:50:38Z</time>
      </trkpt>
      <trkpt lat="44.10119" lon="6.02367">
        <ele>440.1</ele>
        <time>2021-09-10T08:50:40Z</time>
      </trkpt>
      <trkpt lat="44.10114" lon="6.02363">
        <ele>440.1</ele>
        <time>2021-09-10T08:50:41Z</time>
      </trkpt>
      <trkpt lat="44.10109" lon="6.0236">
        <ele>440.1</ele>
        <time>2021-09-10T08:50:43Z</time>
      </trkpt>
      <trkpt lat="44.10105" lon="6.02357">
        <ele>440.1</ele>
        <time>2021-09-10T08:50:45Z</time>
      </trkpt>
      <trkpt lat="44.10101" lon="6.02357">
        <ele>440.1</ele>
        <time>2021-09-10T08:50:46Z</time>
      </trkpt>
      <trkpt lat="44.10097" lon="6.02356">
        <ele>440.1</ele>
        <time>2021-09-10T08:50:48Z</time>
      </trkpt>
      <trkpt lat="44.10096" lon="6.02355">
        <ele>440.1</ele>
        <time>2021-09-10T08:50:49Z</time>
      </trkpt>
      <trkpt lat="44.10094" lon="6.02354">
        <ele>440.1</ele>
        <time>2021-09-10T08:50:50Z</time>
      </trkpt>
      <trkpt lat="44.10091" lon="6.02353">
        <ele>440.1</ele>
        <time>2021-09-10T08:50:51Z</time>
      </trkpt>
      <trkpt lat="44.10088" lon="6.02353">
        <ele>440.1</ele>
        <time>2021-09-10T08:50:53Z</time>
      </trkpt>
      <trkpt lat="44.10085" lon="6.02353">
        <ele>440.1</ele>
        <time>2021-09-10T08:50:54Z</time>
      </trkpt>
      <trkpt lat="44.1008" lon="6.02354">
        <ele>440.1</ele>
        <time>2021-09-10T08:50:55Z</time>
      </trkpt>
      <trkpt lat="44.10076" lon="6.02355">
        <ele>440</ele>
        <time>2021-09-10T08:50:56Z</time>
      </trkpt>
      <trkpt lat="44.10072" lon="6.02356">
        <ele>440</ele>
        <time>2021-09-10T08:50:57Z</time>
      </trkpt>
      <trkpt lat="44.10066" lon="6.02359">
        <ele>440</ele>
        <time>2021-09-10T08:50:59Z</time>
      </trkpt>
      <trkpt lat="44.10062" lon="6.02362">
        <ele>440</ele>
        <time>2021-09-10T08:51:01Z</time>
      </trkpt>
      <trkpt lat="44.10058" lon="6.02368">
        <ele>440</ele>
        <time>2021-09-10T08:51:02Z</time>
      </trkpt>
      <trkpt lat="44.10055" lon="6.02373">
        <ele>439.9</ele>
        <time>2021-09-10T08:51:04Z</time>
      </trkpt>
      <trkpt lat="44.10049" lon="6.02379">
        <ele>439.9</ele>
        <time>2021-09-10T08:51:05Z</time>
      </trkpt>
      <trkpt lat="44.10042" lon="6.02387">
        <ele>439.6</ele>
        <time>2021-09-10T08:51:07Z</time>
      </trkpt>
      <trkpt lat="44.10035" lon="6.0239">
        <ele>439.4</ele>
        <time>2021-09-10T08:51:08Z</time>
      </trkpt>
      <trkpt lat="44.10025" lon="6.02395">
        <ele>438.9</ele>
        <time>2021-09-10T08:51:09Z</time>
      </trkpt>
      <trkpt lat="44.1" lon="6.02395">
        <ele>437.9</ele>
        <time>2021-09-10T08:51:11Z</time>
      </trkpt>
      <trkpt lat="44.09987" lon="6.02394">
        <ele>437.5</ele>
        <time>2021-09-10T08:51:13Z</time>
      </trkpt>
      <trkpt lat="44.09978" lon="6.02397">
        <ele>437.3</ele>
        <time>2021-09-10T08:51:15Z</time>
      </trkpt>
      <trkpt lat="44.09978" lon="6.02398">
        <ele>437.2</ele>
        <time>2021-09-10T08:51:17Z</time>
      </trkpt>
      <trkpt lat="44.09968" lon="6.02405">
        <ele>436.9</ele>
        <time>2021-09-10T08:51:19Z</time>
      </trkpt>
      <trkpt lat="44.09956" lon="6.02405">
        <ele>436.4</ele>
        <time>2021-09-10T08:51:20Z</time>
      </trkpt>
      <trkpt lat="44.09931" lon="6.02412">
        <ele>435.5</ele>
        <time>2021-09-10T08:51:22Z</time>
      </trkpt>
      <trkpt lat="44.09921" lon="6.02412">
        <ele>435.3</ele>
        <time>2021-09-10T08:51:23Z</time>
      </trkpt>
      <trkpt lat="44.09911" lon="6.02411">
        <ele>435.2</ele>
        <time>2021-09-10T08:51:24Z</time>
      </trkpt>
      <trkpt lat="44.09897" lon="6.0241">
        <ele>435.2</ele>
        <time>2021-09-10T08:51:26Z</time>
      </trkpt>
      <trkpt lat="44.09891" lon="6.02412">
        <ele>435.2</ele>
        <time>2021-09-10T08:51:27Z</time>
      </trkpt>
      <trkpt lat="44.09886" lon="6.02412">
        <ele>435.2</ele>
        <time>2021-09-10T08:51:28Z</time>
      </trkpt>
      <trkpt lat="44.09877" lon="6.02412">
        <ele>435.2</ele>
        <time>2021-09-10T08:51:30Z</time>
      </trkpt>
      <trkpt lat="44.09871" lon="6.02412">
        <ele>435.2</ele>
        <time>2021-09-10T08:51:31Z</time>
      </trkpt>
      <trkpt lat="44.09866" lon="6.02412">
        <ele>435.2</ele>
        <time>2021-09-10T08:51:32Z</time>
      </trkpt>
      <trkpt lat="44.09861" lon="6.02412">
        <ele>435.2</ele>
        <time>2021-09-10T08:51:33Z</time>
      </trkpt>
      <trkpt lat="44.09857" lon="6.02412">
        <ele>435.2</ele>
        <time>2021-09-10T08:51:34Z</time>
      </trkpt>
      <trkpt lat="44.09854" lon="6.02411">
        <ele>435.2</ele>
        <time>2021-09-10T08:51:35Z</time>
      </trkpt>
      <trkpt lat="44.09849" lon="6.0241">
        <ele>435.2</ele>
        <time>2021-09-10T08:51:36Z</time>
      </trkpt>
      <trkpt lat="44.0984" lon="6.02409">
        <ele>435.2</ele>
        <time>2021-09-10T08:51:38Z</time>
      </trkpt>
      <trkpt lat="44.09835" lon="6.02408">
        <ele>435.3</ele>
        <time>2021-09-10T08:51:39Z</time>
      </trkpt>
      <trkpt lat="44.09832" lon="6.02409">
        <ele>435.3</ele>
        <time>2021-09-10T08:51:40Z</time>
      </trkpt>
      <trkpt lat="44.09828" lon="6.02411">
        <ele>435.3</ele>
        <time>2021-09-10T08:51:42Z</time>
      </trkpt>
      <trkpt lat="44.09828" lon="6.02409">
        <ele>435.3</ele>
        <time>2021-09-10T08:51:43Z</time>
      </trkpt>
      <trkpt lat="44.09827" lon="6.02407">
        <ele>435.3</ele>
        <time>2021-09-10T08:51:45Z</time>
      </trkpt>
      <trkpt lat="44.09826" lon="6.02406">
        <ele>435.3</ele>
        <time>2021-09-10T08:51:46Z</time>
      </trkpt>
      <trkpt lat="44.09825" lon="6.02405">
        <ele>435.3</ele>
        <time>2021-09-10T08:51:47Z</time>
      </trkpt>
      <trkpt lat="44.09823" lon="6.02404">
        <ele>435.3</ele>
        <time>2021-09-10T08:51:49Z</time>
      </trkpt>
      <trkpt lat="44.0982" lon="6.02402">
        <ele>435.3</ele>
        <time>2021-09-10T08:51:50Z</time>
      </trkpt>
      <trkpt lat="44.0981" lon="6.02402">
        <ele>435.3</ele>
        <time>2021-09-10T08:51:52Z</time>
      </trkpt>
      <trkpt lat="44.09802" lon="6.024">
        <ele>435.3</ele>
        <time>2021-09-10T08:51:53Z</time>
      </trkpt>
      <trkpt lat="44.09797" lon="6.02399">
        <ele>435.3</ele>
        <time>2021-09-10T08:51:54Z</time>
      </trkpt>
      <trkpt lat="44.0979" lon="6.02398">
        <ele>435.3</ele>
        <time>2021-09-10T08:51:55Z</time>
      </trkpt>
      <trkpt lat="44.09784" lon="6.02398">
        <ele>435.3</ele>
        <time>2021-09-10T08:51:56Z</time>
      </trkpt>
      <trkpt lat="44.09778" lon="6.02396">
        <ele>435.3</ele>
        <time>2021-09-10T08:51:57Z</time>
      </trkpt>
      <trkpt lat="44.09773" lon="6.02394">
        <ele>435.3</ele>
        <time>2021-09-10T08:51:59Z</time>
      </trkpt>
      <trkpt lat="44.09763" lon="6.02393">
        <ele>435.2</ele>
        <time>2021-09-10T08:52:01Z</time>
      </trkpt>
      <trkpt lat="44.09757" lon="6.02394">
        <ele>435.3</ele>
        <time>2021-09-10T08:52:02Z</time>
      </trkpt>
      <trkpt lat="44.09746" lon="6.02394">
        <ele>435.3</ele>
        <time>2021-09-10T08:52:04Z</time>
      </trkpt>
      <trkpt lat="44.09735" lon="6.02401">
        <ele>435.4</ele>
        <time>2021-09-10T08:52:05Z</time>
      </trkpt>
      <trkpt lat="44.09727" lon="6.02405">
        <ele>435.4</ele>
        <time>2021-09-10T08:52:06Z</time>
      </trkpt>
      <trkpt lat="44.09716" lon="6.02409">
        <ele>435.4</ele>
        <time>2021-09-10T08:52:08Z</time>
      </trkpt>
      <trkpt lat="44.09712" lon="6.02409">
        <ele>435.4</ele>
        <time>2021-09-10T08:52:09Z</time>
      </trkpt>
      <trkpt lat="44.09705" lon="6.02412">
        <ele>435.4</ele>
        <time>2021-09-10T08:52:10Z</time>
      </trkpt>
      <trkpt lat="44.09701" lon="6.02413">
        <ele>435.5</ele>
        <time>2021-09-10T08:52:11Z</time>
      </trkpt>
      <trkpt lat="44.09694" lon="6.02418">
        <ele>435.5</ele>
        <time>2021-09-10T08:52:12Z</time>
      </trkpt>
      <trkpt lat="44.09687" lon="6.02415">
        <ele>435.5</ele>
        <time>2021-09-10T08:52:14Z</time>
      </trkpt>
      <trkpt lat="44.09683" lon="6.02412">
        <ele>435.5</ele>
        <time>2021-09-10T08:52:16Z</time>
      </trkpt>
      <trkpt lat="44.09679" lon="6.02408">
        <ele>435.5</ele>
        <time>2021-09-10T08:52:17Z</time>
      </trkpt>
      <trkpt lat="44.09675" lon="6.02405">
        <ele>435.6</ele>
        <time>2021-09-10T08:52:19Z</time>
      </trkpt>
      <trkpt lat="44.09674" lon="6.024">
        <ele>435.6</ele>
        <time>2021-09-10T08:52:20Z</time>
      </trkpt>
      <trkpt lat="44.09672" lon="6.02397">
        <ele>435.6</ele>
        <time>2021-09-10T08:52:21Z</time>
      </trkpt>
      <trkpt lat="44.09666" lon="6.02392">
        <ele>435.6</ele>
        <time>2021-09-10T08:52:22Z</time>
      </trkpt>
      <trkpt lat="44.09662" lon="6.02387">
        <ele>435.7</ele>
        <time>2021-09-10T08:52:24Z</time>
      </trkpt>
      <trkpt lat="44.09658" lon="6.02383">
        <ele>435.7</ele>
        <time>2021-09-10T08:52:25Z</time>
      </trkpt>
      <trkpt lat="44.09655" lon="6.02378">
        <ele>435.8</ele>
        <time>2021-09-10T08:52:26Z</time>
      </trkpt>
      <trkpt lat="44.0965" lon="6.02373">
        <ele>435.8</ele>
        <time>2021-09-10T08:52:28Z</time>
      </trkpt>
      <trkpt lat="44.09647" lon="6.02369">
        <ele>435.9</ele>
        <time>2021-09-10T08:52:30Z</time>
      </trkpt>
      <trkpt lat="44.09645" lon="6.02367">
        <ele>435.9</ele>
        <time>2021-09-10T08:52:31Z</time>
      </trkpt>
      <trkpt lat="44.09641" lon="6.02364">
        <ele>436</ele>
        <time>2021-09-10T08:52:32Z</time>
      </trkpt>
      <trkpt lat="44.09638" lon="6.02361">
        <ele>436</ele>
        <time>2021-09-10T08:52:34Z</time>
      </trkpt>
      <trkpt lat="44.09633" lon="6.02355">
        <ele>436.1</ele>
        <time>2021-09-10T08:52:36Z</time>
      </trkpt>
      <trkpt lat="44.09631" lon="6.02352">
        <ele>436.2</ele>
        <time>2021-09-10T08:52:37Z</time>
      </trkpt>
      <trkpt lat="44.09627" lon="6.02349">
        <ele>436.2</ele>
        <time>2021-09-10T08:52:38Z</time>
      </trkpt>
      <trkpt lat="44.09623" lon="6.02347">
        <ele>436.3</ele>
        <time>2021-09-10T08:52:39Z</time>
      </trkpt>
      <trkpt lat="44.0962" lon="6.02344">
        <ele>436.4</ele>
        <time>2021-09-10T08:52:40Z</time>
      </trkpt>
      <trkpt lat="44.09616" lon="6.02341">
        <ele>436.4</ele>
        <time>2021-09-10T08:52:42Z</time>
      </trkpt>
      <trkpt lat="44.09613" lon="6.02337">
        <ele>436.5</ele>
        <time>2021-09-10T08:52:43Z</time>
      </trkpt>
      <trkpt lat="44.09612" lon="6.02333">
        <ele>436.5</ele>
        <time>2021-09-10T08:52:45Z</time>
      </trkpt>
      <trkpt lat="44.09609" lon="6.02329">
        <ele>436.6</ele>
        <time>2021-09-10T08:52:46Z</time>
      </trkpt>
      <trkpt lat="44.09608" lon="6.02326">
        <ele>436.6</ele>
        <time>2021-09-10T08:52:47Z</time>
      </trkpt>
      <trkpt lat="44.09607" lon="6.02322">
        <ele>436.7</ele>
        <time>2021-09-10T08:52:48Z</time>
      </trkpt>
      <trkpt lat="44.09606" lon="6.02321">
        <ele>436.7</ele>
        <time>2021-09-10T08:52:49Z</time>
      </trkpt>
      <trkpt lat="44.09607" lon="6.02318">
        <ele>436.7</ele>
        <time>2021-09-10T08:52:50Z</time>
      </trkpt>
      <trkpt lat="44.09607" lon="6.02313">
        <ele>436.8</ele>
        <time>2021-09-10T08:52:52Z</time>
      </trkpt>
      <trkpt lat="44.09605" lon="6.02309">
        <ele>436.8</ele>
        <time>2021-09-10T08:52:53Z</time>
      </trkpt>
      <trkpt lat="44.09601" lon="6.02305">
        <ele>436.9</ele>
        <time>2021-09-10T08:52:55Z</time>
      </trkpt>
      <trkpt lat="44.09598" lon="6.02304">
        <ele>436.9</ele>
        <time>2021-09-10T08:52:56Z</time>
      </trkpt>
      <trkpt lat="44.09595" lon="6.02302">
        <ele>436.9</ele>
        <time>2021-09-10T08:52:57Z</time>
      </trkpt>
      <trkpt lat="44.09592" lon="6.02301">
        <ele>437</ele>
        <time>2021-09-10T08:52:58Z</time>
      </trkpt>
      <trkpt lat="44.09589" lon="6.02299">
        <ele>437</ele>
        <time>2021-09-10T08:52:59Z</time>
      </trkpt>
      <trkpt lat="44.09584" lon="6.02297">
        <ele>437.1</ele>
        <time>2021-09-10T08:53:00Z</time>
      </trkpt>
      <trkpt lat="44.09579" lon="6.02295">
        <ele>437.2</ele>
        <time>2021-09-10T08:53:02Z</time>
      </trkpt>
      <trkpt lat="44.09572" lon="6.02295">
        <ele>437.2</ele>
        <time>2021-09-10T08:53:03Z</time>
      </trkpt>
      <trkpt lat="44.09568" lon="6.02294">
        <ele>437.3</ele>
        <time>2021-09-10T08:53:04Z</time>
      </trkpt>
      <trkpt lat="44.09563" lon="6.02293">
        <ele>437.3</ele>
        <time>2021-09-10T08:53:05Z</time>
      </trkpt>
      <trkpt lat="44.09559" lon="6.02291">
        <ele>437.3</ele>
        <time>2021-09-10T08:53:06Z</time>
      </trkpt>
      <trkpt lat="44.09554" lon="6.02289">
        <ele>437.4</ele>
        <time>2021-09-10T08:53:08Z</time>
      </trkpt>
      <trkpt lat="44.0955" lon="6.02287">
        <ele>437.4</ele>
        <time>2021-09-10T08:53:09Z</time>
      </trkpt>
      <trkpt lat="44.09546" lon="6.02287">
        <ele>437.4</ele>
        <time>2021-09-10T08:53:10Z</time>
      </trkpt>
      <trkpt lat="44.09543" lon="6.02286">
        <ele>437.4</ele>
        <time>2021-09-10T08:53:12Z</time>
      </trkpt>
      <trkpt lat="44.09543" lon="6.02286">
        <ele>437.4</ele>
        <time>2021-09-10T08:53:13Z</time>
      </trkpt>
      <trkpt lat="44.09542" lon="6.02285">
        <ele>437.4</ele>
        <time>2021-09-10T08:53:14Z</time>
      </trkpt>
      <trkpt lat="44.09541" lon="6.02285">
        <ele>437.4</ele>
        <time>2021-09-10T08:53:16Z</time>
      </trkpt>
      <trkpt lat="44.0954" lon="6.02284">
        <ele>437.4</ele>
        <time>2021-09-10T08:53:17Z</time>
      </trkpt>
      <trkpt lat="44.09533" lon="6.02285">
        <ele>437.5</ele>
        <time>2021-09-10T08:53:19Z</time>
      </trkpt>
      <trkpt lat="44.09528" lon="6.02284">
        <ele>437.5</ele>
        <time>2021-09-10T08:53:20Z</time>
      </trkpt>
      <trkpt lat="44.09521" lon="6.02283">
        <ele>437.5</ele>
        <time>2021-09-10T08:53:22Z</time>
      </trkpt>
      <trkpt lat="44.09516" lon="6.02281">
        <ele>437.5</ele>
        <time>2021-09-10T08:53:23Z</time>
      </trkpt>
      <trkpt lat="44.09511" lon="6.02278">
        <ele>437.5</ele>
        <time>2021-09-10T08:53:24Z</time>
      </trkpt>
      <trkpt lat="44.09503" lon="6.02273">
        <ele>437.5</ele>
        <time>2021-09-10T08:53:26Z</time>
      </trkpt>
      <trkpt lat="44.09498" lon="6.0227">
        <ele>437.5</ele>
        <time>2021-09-10T08:53:28Z</time>
      </trkpt>
      <trkpt lat="44.09494" lon="6.02267">
        <ele>437.5</ele>
        <time>2021-09-10T08:53:29Z</time>
      </trkpt>
      <trkpt lat="44.0949" lon="6.02264">
        <ele>437.4</ele>
        <time>2021-09-10T08:53:30Z</time>
      </trkpt>
      <trkpt lat="44.09486" lon="6.02262">
        <ele>437.4</ele>
        <time>2021-09-10T08:53:31Z</time>
      </trkpt>
      <trkpt lat="44.09478" lon="6.02256">
        <ele>437.4</ele>
        <time>2021-09-10T08:53:33Z</time>
      </trkpt>
      <trkpt lat="44.09471" lon="6.02251">
        <ele>437.4</ele>
        <time>2021-09-10T08:53:34Z</time>
      </trkpt>
      <trkpt lat="44.09462" lon="6.02245">
        <ele>437.4</ele>
        <time>2021-09-10T08:53:36Z</time>
      </trkpt>
      <trkpt lat="44.09454" lon="6.02244">
        <ele>437.4</ele>
        <time>2021-09-10T08:53:38Z</time>
      </trkpt>
      <trkpt lat="44.09448" lon="6.02243">
        <ele>437.4</ele>
        <time>2021-09-10T08:53:39Z</time>
      </trkpt>
      <trkpt lat="44.09438" lon="6.02244">
        <ele>437.5</ele>
        <time>2021-09-10T08:53:40Z</time>
      </trkpt>
      <trkpt lat="44.0942" lon="6.02246">
        <ele>437.5</ele>
        <time>2021-09-10T08:53:42Z</time>
      </trkpt>
      <trkpt lat="44.09409" lon="6.02247">
        <ele>437.5</ele>
        <time>2021-09-10T08:53:43Z</time>
      </trkpt>
      <trkpt lat="44.0939" lon="6.02247">
        <ele>437.6</ele>
        <time>2021-09-10T08:53:45Z</time>
      </trkpt>
      <trkpt lat="44.09385" lon="6.02246">
        <ele>437.6</ele>
        <time>2021-09-10T08:53:46Z</time>
      </trkpt>
      <trkpt lat="44.09379" lon="6.02243">
        <ele>437.6</ele>
        <time>2021-09-10T08:53:47Z</time>
      </trkpt>
      <trkpt lat="44.09375" lon="6.0224">
        <ele>437.7</ele>
        <time>2021-09-10T08:53:48Z</time>
      </trkpt>
      <trkpt lat="44.09371" lon="6.02236">
        <ele>437.7</ele>
        <time>2021-09-10T08:53:49Z</time>
      </trkpt>
      <trkpt lat="44.09362" lon="6.02227">
        <ele>437.9</ele>
        <time>2021-09-10T08:53:51Z</time>
      </trkpt>
      <trkpt lat="44.09356" lon="6.02222">
        <ele>438</ele>
        <time>2021-09-10T08:53:52Z</time>
      </trkpt>
      <trkpt lat="44.09351" lon="6.02217">
        <ele>438.1</ele>
        <time>2021-09-10T08:53:53Z</time>
      </trkpt>
      <trkpt lat="44.09341" lon="6.02209">
        <ele>438.3</ele>
        <time>2021-09-10T08:53:55Z</time>
      </trkpt>
      <trkpt lat="44.09336" lon="6.02207">
        <ele>438.4</ele>
        <time>2021-09-10T08:53:56Z</time>
      </trkpt>
      <trkpt lat="44.09333" lon="6.02202">
        <ele>438.5</ele>
        <time>2021-09-10T08:53:57Z</time>
      </trkpt>
      <trkpt lat="44.09327" lon="6.022">
        <ele>438.5</ele>
        <time>2021-09-10T08:53:59Z</time>
      </trkpt>
      <trkpt lat="44.09323" lon="6.02199">
        <ele>438.6</ele>
        <time>2021-09-10T08:54:00Z</time>
      </trkpt>
      <trkpt lat="44.09316" lon="6.02197">
        <ele>438.7</ele>
        <time>2021-09-10T08:54:02Z</time>
      </trkpt>
      <trkpt lat="44.09308" lon="6.02196">
        <ele>438.8</ele>
        <time>2021-09-10T08:54:03Z</time>
      </trkpt>
      <trkpt lat="44.09301" lon="6.02195">
        <ele>438.9</ele>
        <time>2021-09-10T08:54:05Z</time>
      </trkpt>
      <trkpt lat="44.09296" lon="6.02193">
        <ele>439</ele>
        <time>2021-09-10T08:54:06Z</time>
      </trkpt>
      <trkpt lat="44.09293" lon="6.02191">
        <ele>439</ele>
        <time>2021-09-10T08:54:08Z</time>
      </trkpt>
      <trkpt lat="44.09289" lon="6.02188">
        <ele>439.1</ele>
        <time>2021-09-10T08:54:10Z</time>
      </trkpt>
      <trkpt lat="44.09288" lon="6.02184">
        <ele>439.1</ele>
        <time>2021-09-10T08:54:12Z</time>
      </trkpt>
      <trkpt lat="44.09287" lon="6.02185">
        <ele>439.1</ele>
        <time>2021-09-10T08:54:13Z</time>
      </trkpt>
      <trkpt lat="44.09285" lon="6.02185">
        <ele>439.2</ele>
        <time>2021-09-10T08:54:14Z</time>
      </trkpt>
      <trkpt lat="44.09281" lon="6.02184">
        <ele>439.2</ele>
        <time>2021-09-10T08:54:16Z</time>
      </trkpt>
      <trkpt lat="44.09278" lon="6.02183">
        <ele>439.3</ele>
        <time>2021-09-10T08:54:17Z</time>
      </trkpt>
      <trkpt lat="44.09276" lon="6.02182">
        <ele>439.3</ele>
        <time>2021-09-10T08:54:18Z</time>
      </trkpt>
      <trkpt lat="44.09276" lon="6.02182">
        <ele>439.3</ele>
        <time>2021-09-10T08:54:19Z</time>
      </trkpt>
      <trkpt lat="44.09275" lon="6.02182">
        <ele>439.3</ele>
        <time>2021-09-10T08:54:20Z</time>
      </trkpt>
      <trkpt lat="44.09275" lon="6.02182">
        <ele>439.3</ele>
        <time>2021-09-10T08:54:22Z</time>
      </trkpt>
      <trkpt lat="44.09275" lon="6.02181">
        <ele>439.3</ele>
        <time>2021-09-10T08:54:23Z</time>
      </trkpt>
      <trkpt lat="44.09275" lon="6.02181">
        <ele>439.3</ele>
        <time>2021-09-10T08:54:25Z</time>
      </trkpt>
      <trkpt lat="44.09274" lon="6.02181">
        <ele>439.3</ele>
        <time>2021-09-10T08:54:26Z</time>
      </trkpt>
      <trkpt lat="44.0928" lon="6.02213">
        <ele>439.6</ele>
        <time>2021-09-10T08:55:42Z</time>
      </trkpt>
      <trkpt lat="44.09281" lon="6.02213">
        <ele>439.7</ele>
        <time>2021-09-10T08:55:43Z</time>
      </trkpt>
      <trkpt lat="44.09282" lon="6.02213">
        <ele>439.7</ele>
        <time>2021-09-10T08:55:44Z</time>
      </trkpt>
      <trkpt lat="44.09282" lon="6.02214">
        <ele>439.7</ele>
        <time>2021-09-10T08:55:45Z</time>
      </trkpt>
      <trkpt lat="44.09282" lon="6.02215">
        <ele>439.7</ele>
        <time>2021-09-10T08:55:47Z</time>
      </trkpt>
      <trkpt lat="44.09283" lon="6.02215">
        <ele>439.7</ele>
        <time>2021-09-10T08:55:49Z</time>
      </trkpt>
      <trkpt lat="44.09282" lon="6.02214">
        <ele>439.7</ele>
        <time>2021-09-10T08:55:50Z</time>
      </trkpt>
      <trkpt lat="44.09282" lon="6.02213">
        <ele>439.7</ele>
        <time>2021-09-10T08:55:51Z</time>
      </trkpt>
      <trkpt lat="44.09281" lon="6.0221">
        <ele>439.7</ele>
        <time>2021-09-10T08:55:53Z</time>
      </trkpt>
      <trkpt lat="44.09281" lon="6.02209">
        <ele>439.7</ele>
        <time>2021-09-10T08:55:55Z</time>
      </trkpt>
      <trkpt lat="44.09267" lon="6.02189">
        <ele>439.7</ele>
        <time>2021-09-10T09:21:58Z</time>
      </trkpt>
      <trkpt lat="44.09266" lon="6.02186">
        <ele>439.7</ele>
        <time>2021-09-10T09:21:59Z</time>
      </trkpt>
      <trkpt lat="44.09264" lon="6.02181">
        <ele>439.7</ele>
        <time>2021-09-10T09:22:00Z</time>
      </trkpt>
      <trkpt lat="44.09262" lon="6.02177">
        <ele>439.7</ele>
        <time>2021-09-10T09:22:01Z</time>
      </trkpt>
      <trkpt lat="44.09256" lon="6.02174">
        <ele>439.6</ele>
        <time>2021-09-10T09:22:02Z</time>
      </trkpt>
      <trkpt lat="44.09252" lon="6.02173">
        <ele>439.5</ele>
        <time>2021-09-10T09:22:04Z</time>
      </trkpt>
      <trkpt lat="44.09249" lon="6.02172">
        <ele>439.4</ele>
        <time>2021-09-10T09:22:05Z</time>
      </trkpt>
      <trkpt lat="44.09246" lon="6.02172">
        <ele>439.4</ele>
        <time>2021-09-10T09:22:06Z</time>
      </trkpt>
      <trkpt lat="44.09243" lon="6.02173">
        <ele>439.3</ele>
        <time>2021-09-10T09:22:07Z</time>
      </trkpt>
      <trkpt lat="44.09239" lon="6.02173">
        <ele>439.2</ele>
        <time>2021-09-10T09:22:08Z</time>
      </trkpt>
      <trkpt lat="44.09234" lon="6.02174">
        <ele>439</ele>
        <time>2021-09-10T09:22:10Z</time>
      </trkpt>
      <trkpt lat="44.0923" lon="6.02174">
        <ele>438.9</ele>
        <time>2021-09-10T09:22:11Z</time>
      </trkpt>
      <trkpt lat="44.09227" lon="6.02175">
        <ele>438.8</ele>
        <time>2021-09-10T09:22:12Z</time>
      </trkpt>
      <trkpt lat="44.09222" lon="6.02176">
        <ele>438.6</ele>
        <time>2021-09-10T09:22:13Z</time>
      </trkpt>
      <trkpt lat="44.09217" lon="6.02178">
        <ele>438.4</ele>
        <time>2021-09-10T09:22:15Z</time>
      </trkpt>
      <trkpt lat="44.09212" lon="6.0218">
        <ele>438.3</ele>
        <time>2021-09-10T09:22:16Z</time>
      </trkpt>
      <trkpt lat="44.09209" lon="6.02181">
        <ele>438.2</ele>
        <time>2021-09-10T09:22:17Z</time>
      </trkpt>
      <trkpt lat="44.09206" lon="6.02181">
        <ele>438.1</ele>
        <time>2021-09-10T09:22:19Z</time>
      </trkpt>
      <trkpt lat="44.09203" lon="6.02181">
        <ele>437.9</ele>
        <time>2021-09-10T09:22:20Z</time>
      </trkpt>
      <trkpt lat="44.092" lon="6.02182">
        <ele>437.8</ele>
        <time>2021-09-10T09:22:21Z</time>
      </trkpt>
      <trkpt lat="44.09196" lon="6.02184">
        <ele>437.7</ele>
        <time>2021-09-10T09:22:22Z</time>
      </trkpt>
      <trkpt lat="44.09193" lon="6.02185">
        <ele>437.6</ele>
        <time>2021-09-10T09:22:23Z</time>
      </trkpt>
      <trkpt lat="44.0919" lon="6.02186">
        <ele>437.5</ele>
        <time>2021-09-10T09:22:25Z</time>
      </trkpt>
      <trkpt lat="44.09187" lon="6.02187">
        <ele>437.4</ele>
        <time>2021-09-10T09:22:26Z</time>
      </trkpt>
      <trkpt lat="44.09182" lon="6.02189">
        <ele>437.2</ele>
        <time>2021-09-10T09:22:27Z</time>
      </trkpt>
      <trkpt lat="44.09179" lon="6.02191">
        <ele>437.1</ele>
        <time>2021-09-10T09:22:28Z</time>
      </trkpt>
      <trkpt lat="44.09175" lon="6.02193">
        <ele>437</ele>
        <time>2021-09-10T09:22:30Z</time>
      </trkpt>
      <trkpt lat="44.0917" lon="6.02194">
        <ele>436.8</ele>
        <time>2021-09-10T09:22:31Z</time>
      </trkpt>
      <trkpt lat="44.09165" lon="6.02194">
        <ele>436.7</ele>
        <time>2021-09-10T09:22:33Z</time>
      </trkpt>
      <trkpt lat="44.0916" lon="6.02191">
        <ele>436.5</ele>
        <time>2021-09-10T09:22:34Z</time>
      </trkpt>
      <trkpt lat="44.09155" lon="6.02189">
        <ele>436.3</ele>
        <time>2021-09-10T09:22:35Z</time>
      </trkpt>
      <trkpt lat="44.09148" lon="6.02187">
        <ele>436.2</ele>
        <time>2021-09-10T09:22:36Z</time>
      </trkpt>
      <trkpt lat="44.09136" lon="6.02186">
        <ele>435.9</ele>
        <time>2021-09-10T09:22:38Z</time>
      </trkpt>
      <trkpt lat="44.09124" lon="6.02186">
        <ele>435.7</ele>
        <time>2021-09-10T09:22:40Z</time>
      </trkpt>
      <trkpt lat="44.09119" lon="6.02186">
        <ele>435.6</ele>
        <time>2021-09-10T09:22:41Z</time>
      </trkpt>
      <trkpt lat="44.09116" lon="6.02185">
        <ele>435.6</ele>
        <time>2021-09-10T09:22:42Z</time>
      </trkpt>
      <trkpt lat="44.09106" lon="6.02184">
        <ele>435.5</ele>
        <time>2021-09-10T09:22:44Z</time>
      </trkpt>
      <trkpt lat="44.09096" lon="6.02184">
        <ele>435.4</ele>
        <time>2021-09-10T09:22:46Z</time>
      </trkpt>
      <trkpt lat="44.09091" lon="6.02184">
        <ele>435.4</ele>
        <time>2021-09-10T09:22:47Z</time>
      </trkpt>
      <trkpt lat="44.09086" lon="6.02183">
        <ele>435.3</ele>
        <time>2021-09-10T09:22:48Z</time>
      </trkpt>
      <trkpt lat="44.09082" lon="6.02185">
        <ele>435.3</ele>
        <time>2021-09-10T09:22:49Z</time>
      </trkpt>
      <trkpt lat="44.09077" lon="6.02185">
        <ele>435.3</ele>
        <time>2021-09-10T09:22:50Z</time>
      </trkpt>
      <trkpt lat="44.09071" lon="6.02182">
        <ele>435.3</ele>
        <time>2021-09-10T09:22:52Z</time>
      </trkpt>
      <trkpt lat="44.09068" lon="6.02181">
        <ele>435.3</ele>
        <time>2021-09-10T09:22:53Z</time>
      </trkpt>
      <trkpt lat="44.09064" lon="6.02178">
        <ele>435.3</ele>
        <time>2021-09-10T09:22:54Z</time>
      </trkpt>
      <trkpt lat="44.0906" lon="6.02176">
        <ele>435.3</ele>
        <time>2021-09-10T09:22:55Z</time>
      </trkpt>
      <trkpt lat="44.09054" lon="6.02173">
        <ele>435.3</ele>
        <time>2021-09-10T09:22:56Z</time>
      </trkpt>
      <trkpt lat="44.09047" lon="6.0217">
        <ele>435.3</ele>
        <time>2021-09-10T09:22:57Z</time>
      </trkpt>
      <trkpt lat="44.09041" lon="6.02167">
        <ele>435.3</ele>
        <time>2021-09-10T09:22:59Z</time>
      </trkpt>
      <trkpt lat="44.09035" lon="6.02165">
        <ele>435.3</ele>
        <time>2021-09-10T09:23:00Z</time>
      </trkpt>
      <trkpt lat="44.09029" lon="6.02163">
        <ele>435.3</ele>
        <time>2021-09-10T09:23:01Z</time>
      </trkpt>
      <trkpt lat="44.09023" lon="6.02162">
        <ele>435.3</ele>
        <time>2021-09-10T09:23:02Z</time>
      </trkpt>
      <trkpt lat="44.09016" lon="6.02161">
        <ele>435.4</ele>
        <time>2021-09-10T09:23:04Z</time>
      </trkpt>
      <trkpt lat="44.09012" lon="6.02161">
        <ele>435.4</ele>
        <time>2021-09-10T09:23:05Z</time>
      </trkpt>
      <trkpt lat="44.09005" lon="6.02158">
        <ele>435.4</ele>
        <time>2021-09-10T09:23:07Z</time>
      </trkpt>
      <trkpt lat="44.09" lon="6.02156">
        <ele>435.5</ele>
        <time>2021-09-10T09:23:08Z</time>
      </trkpt>
      <trkpt lat="44.08995" lon="6.02153">
        <ele>435.5</ele>
        <time>2021-09-10T09:23:09Z</time>
      </trkpt>
      <trkpt lat="44.08991" lon="6.02151">
        <ele>435.6</ele>
        <time>2021-09-10T09:23:10Z</time>
      </trkpt>
      <trkpt lat="44.08985" lon="6.02149">
        <ele>435.6</ele>
        <time>2021-09-10T09:23:12Z</time>
      </trkpt>
      <trkpt lat="44.0898" lon="6.02147">
        <ele>435.7</ele>
        <time>2021-09-10T09:23:13Z</time>
      </trkpt>
      <trkpt lat="44.08976" lon="6.02145">
        <ele>435.7</ele>
        <time>2021-09-10T09:23:14Z</time>
      </trkpt>
      <trkpt lat="44.08972" lon="6.02144">
        <ele>435.7</ele>
        <time>2021-09-10T09:23:15Z</time>
      </trkpt>
      <trkpt lat="44.08967" lon="6.02142">
        <ele>435.8</ele>
        <time>2021-09-10T09:23:17Z</time>
      </trkpt>
      <trkpt lat="44.0896" lon="6.02137">
        <ele>435.8</ele>
        <time>2021-09-10T09:23:19Z</time>
      </trkpt>
      <trkpt lat="44.08953" lon="6.02132">
        <ele>435.8</ele>
        <time>2021-09-10T09:23:21Z</time>
      </trkpt>
      <trkpt lat="44.08949" lon="6.0213">
        <ele>435.8</ele>
        <time>2021-09-10T09:23:22Z</time>
      </trkpt>
      <trkpt lat="44.08945" lon="6.02128">
        <ele>435.7</ele>
        <time>2021-09-10T09:23:23Z</time>
      </trkpt>
      <trkpt lat="44.08941" lon="6.02127">
        <ele>435.7</ele>
        <time>2021-09-10T09:23:24Z</time>
      </trkpt>
      <trkpt lat="44.08936" lon="6.02126">
        <ele>435.7</ele>
        <time>2021-09-10T09:23:25Z</time>
      </trkpt>
      <trkpt lat="44.08929" lon="6.02125">
        <ele>435.7</ele>
        <time>2021-09-10T09:23:26Z</time>
      </trkpt>
      <trkpt lat="44.08923" lon="6.0212">
        <ele>435.7</ele>
        <time>2021-09-10T09:23:28Z</time>
      </trkpt>
      <trkpt lat="44.08915" lon="6.02122">
        <ele>435.7</ele>
        <time>2021-09-10T09:23:29Z</time>
      </trkpt>
      <trkpt lat="44.08907" lon="6.02124">
        <ele>435.7</ele>
        <time>2021-09-10T09:23:31Z</time>
      </trkpt>
      <trkpt lat="44.08901" lon="6.02124">
        <ele>435.7</ele>
        <time>2021-09-10T09:23:32Z</time>
      </trkpt>
      <trkpt lat="44.08896" lon="6.02122">
        <ele>435.7</ele>
        <time>2021-09-10T09:23:33Z</time>
      </trkpt>
      <trkpt lat="44.08889" lon="6.02118">
        <ele>435.7</ele>
        <time>2021-09-10T09:23:34Z</time>
      </trkpt>
      <trkpt lat="44.08885" lon="6.02117">
        <ele>435.7</ele>
        <time>2021-09-10T09:23:36Z</time>
      </trkpt>
      <trkpt lat="44.08881" lon="6.02116">
        <ele>435.7</ele>
        <time>2021-09-10T09:23:37Z</time>
      </trkpt>
      <trkpt lat="44.08877" lon="6.02114">
        <ele>435.7</ele>
        <time>2021-09-10T09:23:38Z</time>
      </trkpt>
      <trkpt lat="44.08873" lon="6.02113">
        <ele>435.7</ele>
        <time>2021-09-10T09:23:39Z</time>
      </trkpt>
      <trkpt lat="44.08868" lon="6.02112">
        <ele>435.8</ele>
        <time>2021-09-10T09:23:40Z</time>
      </trkpt>
      <trkpt lat="44.08864" lon="6.02112">
        <ele>435.8</ele>
        <time>2021-09-10T09:23:42Z</time>
      </trkpt>
      <trkpt lat="44.08859" lon="6.02113">
        <ele>435.8</ele>
        <time>2021-09-10T09:23:43Z</time>
      </trkpt>
      <trkpt lat="44.08854" lon="6.02113">
        <ele>435.8</ele>
        <time>2021-09-10T09:23:44Z</time>
      </trkpt>
      <trkpt lat="44.08851" lon="6.02113">
        <ele>435.8</ele>
        <time>2021-09-10T09:23:46Z</time>
      </trkpt>
      <trkpt lat="44.08846" lon="6.02114">
        <ele>435.8</ele>
        <time>2021-09-10T09:23:48Z</time>
      </trkpt>
      <trkpt lat="44.08843" lon="6.02115">
        <ele>435.8</ele>
        <time>2021-09-10T09:23:49Z</time>
      </trkpt>
      <trkpt lat="44.0884" lon="6.02116">
        <ele>435.8</ele>
        <time>2021-09-10T09:23:50Z</time>
      </trkpt>
      <trkpt lat="44.08837" lon="6.02116">
        <ele>435.8</ele>
        <time>2021-09-10T09:23:51Z</time>
      </trkpt>
      <trkpt lat="44.08831" lon="6.02115">
        <ele>435.8</ele>
        <time>2021-09-10T09:23:53Z</time>
      </trkpt>
      <trkpt lat="44.08825" lon="6.02116">
        <ele>436</ele>
        <time>2021-09-10T09:23:54Z</time>
      </trkpt>
      <trkpt lat="44.0882" lon="6.02116">
        <ele>436.1</ele>
        <time>2021-09-10T09:23:56Z</time>
      </trkpt>
      <trkpt lat="44.08813" lon="6.02118">
        <ele>436.4</ele>
        <time>2021-09-10T09:23:57Z</time>
      </trkpt>
      <trkpt lat="44.08809" lon="6.0212">
        <ele>436.6</ele>
        <time>2021-09-10T09:23:59Z</time>
      </trkpt>
      <trkpt lat="44.08806" lon="6.02121">
        <ele>436.7</ele>
        <time>2021-09-10T09:24:00Z</time>
      </trkpt>
      <trkpt lat="44.08802" lon="6.02123">
        <ele>436.9</ele>
        <time>2021-09-10T09:24:02Z</time>
      </trkpt>
      <trkpt lat="44.08798" lon="6.02124">
        <ele>437.1</ele>
        <time>2021-09-10T09:24:03Z</time>
      </trkpt>
      <trkpt lat="44.08795" lon="6.02125">
        <ele>437.3</ele>
        <time>2021-09-10T09:24:05Z</time>
      </trkpt>
      <trkpt lat="44.08793" lon="6.02125">
        <ele>437.4</ele>
        <time>2021-09-10T09:24:06Z</time>
      </trkpt>
      <trkpt lat="44.0879" lon="6.02125">
        <ele>437.6</ele>
        <time>2021-09-10T09:24:08Z</time>
      </trkpt>
      <trkpt lat="44.08788" lon="6.02126">
        <ele>437.7</ele>
        <time>2021-09-10T09:24:09Z</time>
      </trkpt>
      <trkpt lat="44.08784" lon="6.02126">
        <ele>437.9</ele>
        <time>2021-09-10T09:24:11Z</time>
      </trkpt>
      <trkpt lat="44.08782" lon="6.02126">
        <ele>438</ele>
        <time>2021-09-10T09:24:12Z</time>
      </trkpt>
      <trkpt lat="44.08778" lon="6.02126">
        <ele>438.2</ele>
        <time>2021-09-10T09:24:14Z</time>
      </trkpt>
      <trkpt lat="44.08774" lon="6.02126">
        <ele>438.5</ele>
        <time>2021-09-10T09:24:16Z</time>
      </trkpt>
      <trkpt lat="44.08772" lon="6.02126">
        <ele>438.5</ele>
        <time>2021-09-10T09:24:17Z</time>
      </trkpt>
      <trkpt lat="44.08771" lon="6.02126">
        <ele>438.6</ele>
        <time>2021-09-10T09:24:18Z</time>
      </trkpt>
      <trkpt lat="44.08768" lon="6.02126">
        <ele>438.7</ele>
        <time>2021-09-10T09:24:19Z</time>
      </trkpt>
      <trkpt lat="44.08765" lon="6.02127">
        <ele>438.9</ele>
        <time>2021-09-10T09:24:21Z</time>
      </trkpt>
      <trkpt lat="44.08764" lon="6.02127">
        <ele>439</ele>
        <time>2021-09-10T09:24:22Z</time>
      </trkpt>
      <trkpt lat="44.0876" lon="6.02126">
        <ele>439.1</ele>
        <time>2021-09-10T09:24:24Z</time>
      </trkpt>
      <trkpt lat="44.08759" lon="6.02125">
        <ele>439.2</ele>
        <time>2021-09-10T09:24:25Z</time>
      </trkpt>
      <trkpt lat="44.08757" lon="6.02125">
        <ele>439.2</ele>
        <time>2021-09-10T09:24:26Z</time>
      </trkpt>
      <trkpt lat="44.08755" lon="6.02125">
        <ele>439.3</ele>
        <time>2021-09-10T09:24:27Z</time>
      </trkpt>
      <trkpt lat="44.08752" lon="6.02124">
        <ele>439.4</ele>
        <time>2021-09-10T09:24:28Z</time>
      </trkpt>
      <trkpt lat="44.08751" lon="6.02124">
        <ele>439.5</ele>
        <time>2021-09-10T09:24:29Z</time>
      </trkpt>
      <trkpt lat="44.08749" lon="6.02123">
        <ele>439.5</ele>
        <time>2021-09-10T09:24:30Z</time>
      </trkpt>
      <trkpt lat="44.08747" lon="6.02123">
        <ele>439.6</ele>
        <time>2021-09-10T09:24:32Z</time>
      </trkpt>
      <trkpt lat="44.08744" lon="6.02123">
        <ele>439.7</ele>
        <time>2021-09-10T09:24:33Z</time>
      </trkpt>
      <trkpt lat="44.08742" lon="6.02124">
        <ele>439.7</ele>
        <time>2021-09-10T09:24:34Z</time>
      </trkpt>
      <trkpt lat="44.0874" lon="6.02124">
        <ele>439.8</ele>
        <time>2021-09-10T09:24:36Z</time>
      </trkpt>
      <trkpt lat="44.08736" lon="6.02125">
        <ele>439.9</ele>
        <time>2021-09-10T09:24:37Z</time>
      </trkpt>
      <trkpt lat="44.08734" lon="6.02125">
        <ele>440</ele>
        <time>2021-09-10T09:24:38Z</time>
      </trkpt>
      <trkpt lat="44.08731" lon="6.02126">
        <ele>440.1</ele>
        <time>2021-09-10T09:24:40Z</time>
      </trkpt>
      <trkpt lat="44.08728" lon="6.02126">
        <ele>440.1</ele>
        <time>2021-09-10T09:24:41Z</time>
      </trkpt>
      <trkpt lat="44.08727" lon="6.02126">
        <ele>440.2</ele>
        <time>2021-09-10T09:24:42Z</time>
      </trkpt>
      <trkpt lat="44.08724" lon="6.02126">
        <ele>440.3</ele>
        <time>2021-09-10T09:24:43Z</time>
      </trkpt>
      <trkpt lat="44.0872" lon="6.02128">
        <ele>440.4</ele>
        <time>2021-09-10T09:24:45Z</time>
      </trkpt>
      <trkpt lat="44.08716" lon="6.02129">
        <ele>440.5</ele>
        <time>2021-09-10T09:24:46Z</time>
      </trkpt>
      <trkpt lat="44.08713" lon="6.02128">
        <ele>440.6</ele>
        <time>2021-09-10T09:24:48Z</time>
      </trkpt>
      <trkpt lat="44.08709" lon="6.02128">
        <ele>440.7</ele>
        <time>2021-09-10T09:24:49Z</time>
      </trkpt>
      <trkpt lat="44.08706" lon="6.02128">
        <ele>440.8</ele>
        <time>2021-09-10T09:24:51Z</time>
      </trkpt>
      <trkpt lat="44.08701" lon="6.02128">
        <ele>440.9</ele>
        <time>2021-09-10T09:24:53Z</time>
      </trkpt>
      <trkpt lat="44.08696" lon="6.02129">
        <ele>440.9</ele>
        <time>2021-09-10T09:24:55Z</time>
      </trkpt>
      <trkpt lat="44.08691" lon="6.0213">
        <ele>441</ele>
        <time>2021-09-10T09:24:57Z</time>
      </trkpt>
      <trkpt lat="44.08688" lon="6.02131">
        <ele>441.1</ele>
        <time>2021-09-10T09:24:58Z</time>
      </trkpt>
      <trkpt lat="44.08684" lon="6.02131">
        <ele>441.1</ele>
        <time>2021-09-10T09:24:59Z</time>
      </trkpt>
      <trkpt lat="44.08683" lon="6.02131">
        <ele>441.1</ele>
        <time>2021-09-10T09:25:00Z</time>
      </trkpt>
      <trkpt lat="44.08679" lon="6.02131">
        <ele>441.2</ele>
        <time>2021-09-10T09:25:01Z</time>
      </trkpt>
      <trkpt lat="44.08675" lon="6.02132">
        <ele>441.2</ele>
        <time>2021-09-10T09:25:03Z</time>
      </trkpt>
      <trkpt lat="44.08672" lon="6.02132">
        <ele>441.2</ele>
        <time>2021-09-10T09:25:04Z</time>
      </trkpt>
      <trkpt lat="44.08665" lon="6.02134">
        <ele>441.3</ele>
        <time>2021-09-10T09:25:06Z</time>
      </trkpt>
      <trkpt lat="44.08661" lon="6.02133">
        <ele>441.3</ele>
        <time>2021-09-10T09:25:07Z</time>
      </trkpt>
      <trkpt lat="44.08658" lon="6.02133">
        <ele>441.4</ele>
        <time>2021-09-10T09:25:08Z</time>
      </trkpt>
      <trkpt lat="44.08652" lon="6.02132">
        <ele>441.4</ele>
        <time>2021-09-10T09:25:09Z</time>
      </trkpt>
      <trkpt lat="44.08647" lon="6.02131">
        <ele>441.4</ele>
        <time>2021-09-10T09:25:11Z</time>
      </trkpt>
      <trkpt lat="44.08642" lon="6.02131">
        <ele>441.4</ele>
        <time>2021-09-10T09:25:12Z</time>
      </trkpt>
      <trkpt lat="44.08638" lon="6.02131">
        <ele>441.3</ele>
        <time>2021-09-10T09:25:13Z</time>
      </trkpt>
      <trkpt lat="44.08633" lon="6.02131">
        <ele>441.3</ele>
        <time>2021-09-10T09:25:14Z</time>
      </trkpt>
      <trkpt lat="44.08626" lon="6.02131">
        <ele>441.2</ele>
        <time>2021-09-10T09:25:15Z</time>
      </trkpt>
      <trkpt lat="44.08622" lon="6.02131">
        <ele>441.1</ele>
        <time>2021-09-10T09:25:17Z</time>
      </trkpt>
      <trkpt lat="44.08617" lon="6.02133">
        <ele>441.1</ele>
        <time>2021-09-10T09:25:18Z</time>
      </trkpt>
      <trkpt lat="44.08611" lon="6.02133">
        <ele>441</ele>
        <time>2021-09-10T09:25:19Z</time>
      </trkpt>
      <trkpt lat="44.08605" lon="6.02133">
        <ele>440.9</ele>
        <time>2021-09-10T09:25:21Z</time>
      </trkpt>
      <trkpt lat="44.08599" lon="6.02132">
        <ele>440.8</ele>
        <time>2021-09-10T09:25:22Z</time>
      </trkpt>
      <trkpt lat="44.08591" lon="6.02132">
        <ele>440.8</ele>
        <time>2021-09-10T09:25:23Z</time>
      </trkpt>
      <trkpt lat="44.08582" lon="6.02133">
        <ele>440.7</ele>
        <time>2021-09-10T09:25:25Z</time>
      </trkpt>
      <trkpt lat="44.08576" lon="6.02134">
        <ele>440.7</ele>
        <time>2021-09-10T09:25:26Z</time>
      </trkpt>
      <trkpt lat="44.08569" lon="6.02137">
        <ele>440.7</ele>
        <time>2021-09-10T09:25:28Z</time>
      </trkpt>
      <trkpt lat="44.08565" lon="6.02138">
        <ele>440.7</ele>
        <time>2021-09-10T09:25:29Z</time>
      </trkpt>
      <trkpt lat="44.08562" lon="6.02138">
        <ele>440.8</ele>
        <time>2021-09-10T09:25:30Z</time>
      </trkpt>
      <trkpt lat="44.08558" lon="6.02138">
        <ele>440.8</ele>
        <time>2021-09-10T09:25:31Z</time>
      </trkpt>
      <trkpt lat="44.08554" lon="6.02138">
        <ele>440.9</ele>
        <time>2021-09-10T09:25:32Z</time>
      </trkpt>
      <trkpt lat="44.0855" lon="6.02138">
        <ele>440.9</ele>
        <time>2021-09-10T09:25:33Z</time>
      </trkpt>
      <trkpt lat="44.08546" lon="6.02139">
        <ele>441</ele>
        <time>2021-09-10T09:25:34Z</time>
      </trkpt>
      <trkpt lat="44.08542" lon="6.02139">
        <ele>441.1</ele>
        <time>2021-09-10T09:25:35Z</time>
      </trkpt>
      <trkpt lat="44.08537" lon="6.02139">
        <ele>441.2</ele>
        <time>2021-09-10T09:25:37Z</time>
      </trkpt>
      <trkpt lat="44.08532" lon="6.02137">
        <ele>441.4</ele>
        <time>2021-09-10T09:25:38Z</time>
      </trkpt>
      <trkpt lat="44.08528" lon="6.02135">
        <ele>441.5</ele>
        <time>2021-09-10T09:25:40Z</time>
      </trkpt>
      <trkpt lat="44.08525" lon="6.02134">
        <ele>441.6</ele>
        <time>2021-09-10T09:25:42Z</time>
      </trkpt>
      <trkpt lat="44.08524" lon="6.02134">
        <ele>441.6</ele>
        <time>2021-09-10T09:25:43Z</time>
      </trkpt>
      <trkpt lat="44.08523" lon="6.02134">
        <ele>441.7</ele>
        <time>2021-09-10T09:25:44Z</time>
      </trkpt>
      <trkpt lat="44.08523" lon="6.02134">
        <ele>441.7</ele>
        <time>2021-09-10T09:25:46Z</time>
      </trkpt>
      <trkpt lat="44.08522" lon="6.02134">
        <ele>441.7</ele>
        <time>2021-09-10T09:25:47Z</time>
      </trkpt>
      <trkpt lat="44.08521" lon="6.02134">
        <ele>441.7</ele>
        <time>2021-09-10T09:25:48Z</time>
      </trkpt>
      <trkpt lat="44.08521" lon="6.02134">
        <ele>441.7</ele>
        <time>2021-09-10T09:25:49Z</time>
      </trkpt>
      <trkpt lat="44.0852" lon="6.02134">
        <ele>441.8</ele>
        <time>2021-09-10T09:25:51Z</time>
      </trkpt>
      <trkpt lat="44.08519" lon="6.02134">
        <ele>441.8</ele>
        <time>2021-09-10T09:25:52Z</time>
      </trkpt>
      <trkpt lat="44.08519" lon="6.02133">
        <ele>441.8</ele>
        <time>2021-09-10T09:25:54Z</time>
      </trkpt>
      <trkpt lat="44.08518" lon="6.02133">
        <ele>441.8</ele>
        <time>2021-09-10T09:25:55Z</time>
      </trkpt>
      <trkpt lat="44.08513" lon="6.02134">
        <ele>441.7</ele>
        <time>2021-09-10T09:25:56Z</time>
      </trkpt>
      <trkpt lat="44.0851" lon="6.02134">
        <ele>441.7</ele>
        <time>2021-09-10T09:25:57Z</time>
      </trkpt>
      <trkpt lat="44.08505" lon="6.02134">
        <ele>441.6</ele>
        <time>2021-09-10T09:25:58Z</time>
      </trkpt>
      <trkpt lat="44.08499" lon="6.02135">
        <ele>441.6</ele>
        <time>2021-09-10T09:26:00Z</time>
      </trkpt>
      <trkpt lat="44.08494" lon="6.02136">
        <ele>441.5</ele>
        <time>2021-09-10T09:26:01Z</time>
      </trkpt>
      <trkpt lat="44.0849" lon="6.02137">
        <ele>441.5</ele>
        <time>2021-09-10T09:26:02Z</time>
      </trkpt>
      <trkpt lat="44.08486" lon="6.02138">
        <ele>441.5</ele>
        <time>2021-09-10T09:26:03Z</time>
      </trkpt>
      <trkpt lat="44.08481" lon="6.02139">
        <ele>441.4</ele>
        <time>2021-09-10T09:26:04Z</time>
      </trkpt>
      <trkpt lat="44.08474" lon="6.02138">
        <ele>441.3</ele>
        <time>2021-09-10T09:26:06Z</time>
      </trkpt>
      <trkpt lat="44.08468" lon="6.02138">
        <ele>441.2</ele>
        <time>2021-09-10T09:26:07Z</time>
      </trkpt>
      <trkpt lat="44.08459" lon="6.0214">
        <ele>441</ele>
        <time>2021-09-10T09:26:09Z</time>
      </trkpt>
      <trkpt lat="44.08454" lon="6.02142">
        <ele>440.9</ele>
        <time>2021-09-10T09:26:10Z</time>
      </trkpt>
      <trkpt lat="44.08446" lon="6.02146">
        <ele>440.8</ele>
        <time>2021-09-10T09:26:11Z</time>
      </trkpt>
      <trkpt lat="44.08442" lon="6.02148">
        <ele>440.7</ele>
        <time>2021-09-10T09:26:12Z</time>
      </trkpt>
      <trkpt lat="44.08437" lon="6.02153">
        <ele>440.6</ele>
        <time>2021-09-10T09:26:13Z</time>
      </trkpt>
      <trkpt lat="44.08431" lon="6.02156">
        <ele>440.6</ele>
        <time>2021-09-10T09:26:15Z</time>
      </trkpt>
      <trkpt lat="44.08426" lon="6.02156">
        <ele>440.5</ele>
        <time>2021-09-10T09:26:16Z</time>
      </trkpt>
      <trkpt lat="44.08418" lon="6.02155">
        <ele>440.4</ele>
        <time>2021-09-10T09:26:18Z</time>
      </trkpt>
      <trkpt lat="44.08411" lon="6.02158">
        <ele>440.4</ele>
        <time>2021-09-10T09:26:19Z</time>
      </trkpt>
      <trkpt lat="44.08406" lon="6.02163">
        <ele>440.4</ele>
        <time>2021-09-10T09:26:20Z</time>
      </trkpt>
      <trkpt lat="44.08397" lon="6.02164">
        <ele>440.4</ele>
        <time>2021-09-10T09:26:22Z</time>
      </trkpt>
      <trkpt lat="44.08391" lon="6.02165">
        <ele>440.4</ele>
        <time>2021-09-10T09:26:23Z</time>
      </trkpt>
      <trkpt lat="44.08384" lon="6.02165">
        <ele>440.4</ele>
        <time>2021-09-10T09:26:25Z</time>
      </trkpt>
      <trkpt lat="44.0838" lon="6.02163">
        <ele>440.5</ele>
        <time>2021-09-10T09:26:26Z</time>
      </trkpt>
      <trkpt lat="44.08373" lon="6.0216">
        <ele>440.5</ele>
        <time>2021-09-10T09:26:27Z</time>
      </trkpt>
      <trkpt lat="44.08368" lon="6.02158">
        <ele>440.5</ele>
        <time>2021-09-10T09:26:29Z</time>
      </trkpt>
      <trkpt lat="44.08363" lon="6.02157">
        <ele>440.6</ele>
        <time>2021-09-10T09:26:30Z</time>
      </trkpt>
      <trkpt lat="44.08359" lon="6.02157">
        <ele>440.6</ele>
        <time>2021-09-10T09:26:31Z</time>
      </trkpt>
      <trkpt lat="44.08354" lon="6.02158">
        <ele>440.7</ele>
        <time>2021-09-10T09:26:33Z</time>
      </trkpt>
      <trkpt lat="44.08348" lon="6.02156">
        <ele>440.8</ele>
        <time>2021-09-10T09:26:35Z</time>
      </trkpt>
      <trkpt lat="44.08345" lon="6.02155">
        <ele>440.9</ele>
        <time>2021-09-10T09:26:36Z</time>
      </trkpt>
      <trkpt lat="44.08339" lon="6.02156">
        <ele>441</ele>
        <time>2021-09-10T09:26:37Z</time>
      </trkpt>
      <trkpt lat="44.08335" lon="6.02157">
        <ele>441</ele>
        <time>2021-09-10T09:26:39Z</time>
      </trkpt>
      <trkpt lat="44.08331" lon="6.02158">
        <ele>441.1</ele>
        <time>2021-09-10T09:26:40Z</time>
      </trkpt>
      <trkpt lat="44.08325" lon="6.02158">
        <ele>441.3</ele>
        <time>2021-09-10T09:26:42Z</time>
      </trkpt>
      <trkpt lat="44.08319" lon="6.02159">
        <ele>441.4</ele>
        <time>2021-09-10T09:26:44Z</time>
      </trkpt>
      <trkpt lat="44.08313" lon="6.02158">
        <ele>441.6</ele>
        <time>2021-09-10T09:26:45Z</time>
      </trkpt>
      <trkpt lat="44.08307" lon="6.02158">
        <ele>441.7</ele>
        <time>2021-09-10T09:26:47Z</time>
      </trkpt>
      <trkpt lat="44.08302" lon="6.02158">
        <ele>441.9</ele>
        <time>2021-09-10T09:26:49Z</time>
      </trkpt>
      <trkpt lat="44.083" lon="6.02158">
        <ele>441.9</ele>
        <time>2021-09-10T09:26:50Z</time>
      </trkpt>
      <trkpt lat="44.08298" lon="6.02158">
        <ele>441.9</ele>
        <time>2021-09-10T09:26:51Z</time>
      </trkpt>
      <trkpt lat="44.08294" lon="6.02158">
        <ele>442</ele>
        <time>2021-09-10T09:26:53Z</time>
      </trkpt>
      <trkpt lat="44.08291" lon="6.02157">
        <ele>442.1</ele>
        <time>2021-09-10T09:26:54Z</time>
      </trkpt>
      <trkpt lat="44.08287" lon="6.02155">
        <ele>442.1</ele>
        <time>2021-09-10T09:26:56Z</time>
      </trkpt>
      <trkpt lat="44.08283" lon="6.02154">
        <ele>442.2</ele>
        <time>2021-09-10T09:26:57Z</time>
      </trkpt>
      <trkpt lat="44.08281" lon="6.02153">
        <ele>442.2</ele>
        <time>2021-09-10T09:26:58Z</time>
      </trkpt>
      <trkpt lat="44.08278" lon="6.02152">
        <ele>442.3</ele>
        <time>2021-09-10T09:27:00Z</time>
      </trkpt>
      <trkpt lat="44.08274" lon="6.0215">
        <ele>442.3</ele>
        <time>2021-09-10T09:27:01Z</time>
      </trkpt>
      <trkpt lat="44.08271" lon="6.02149">
        <ele>442.3</ele>
        <time>2021-09-10T09:27:02Z</time>
      </trkpt>
      <trkpt lat="44.08267" lon="6.02148">
        <ele>442.2</ele>
        <time>2021-09-10T09:27:04Z</time>
      </trkpt>
      <trkpt lat="44.08264" lon="6.02147">
        <ele>442.2</ele>
        <time>2021-09-10T09:27:05Z</time>
      </trkpt>
      <trkpt lat="44.08257" lon="6.02145">
        <ele>442.1</ele>
        <time>2021-09-10T09:27:06Z</time>
      </trkpt>
      <trkpt lat="44.08246" lon="6.02142">
        <ele>442.1</ele>
        <time>2021-09-10T09:27:08Z</time>
      </trkpt>
      <trkpt lat="44.08234" lon="6.02141">
        <ele>442.2</ele>
        <time>2021-09-10T09:27:10Z</time>
      </trkpt>
      <trkpt lat="44.08228" lon="6.02141">
        <ele>442.3</ele>
        <time>2021-09-10T09:27:11Z</time>
      </trkpt>
      <trkpt lat="44.08216" lon="6.0214">
        <ele>442.5</ele>
        <time>2021-09-10T09:27:13Z</time>
      </trkpt>
      <trkpt lat="44.08211" lon="6.0214">
        <ele>442.7</ele>
        <time>2021-09-10T09:27:14Z</time>
      </trkpt>
      <trkpt lat="44.08206" lon="6.02139">
        <ele>442.8</ele>
        <time>2021-09-10T09:27:15Z</time>
      </trkpt>
      <trkpt lat="44.08196" lon="6.02137">
        <ele>443.2</ele>
        <time>2021-09-10T09:27:17Z</time>
      </trkpt>
      <trkpt lat="44.0819" lon="6.02136">
        <ele>443.4</ele>
        <time>2021-09-10T09:27:18Z</time>
      </trkpt>
      <trkpt lat="44.08187" lon="6.02137">
        <ele>443.5</ele>
        <time>2021-09-10T09:27:19Z</time>
      </trkpt>
      <trkpt lat="44.08182" lon="6.02138">
        <ele>443.7</ele>
        <time>2021-09-10T09:27:20Z</time>
      </trkpt>
      <trkpt lat="44.08176" lon="6.0214">
        <ele>444</ele>
        <time>2021-09-10T09:27:22Z</time>
      </trkpt>
      <trkpt lat="44.08173" lon="6.02141">
        <ele>444.1</ele>
        <time>2021-09-10T09:27:23Z</time>
      </trkpt>
      <trkpt lat="44.08169" lon="6.02143">
        <ele>444.3</ele>
        <time>2021-09-10T09:27:24Z</time>
      </trkpt>
      <trkpt lat="44.08167" lon="6.02146">
        <ele>444.4</ele>
        <time>2021-09-10T09:27:25Z</time>
      </trkpt>
      <trkpt lat="44.08162" lon="6.02146">
        <ele>444.6</ele>
        <time>2021-09-10T09:27:27Z</time>
      </trkpt>
      <trkpt lat="44.08157" lon="6.02145">
        <ele>444.9</ele>
        <time>2021-09-10T09:27:28Z</time>
      </trkpt>
      <trkpt lat="44.08153" lon="6.02145">
        <ele>445.1</ele>
        <time>2021-09-10T09:27:30Z</time>
      </trkpt>
      <trkpt lat="44.08148" lon="6.02145">
        <ele>445.4</ele>
        <time>2021-09-10T09:27:31Z</time>
      </trkpt>
      <trkpt lat="44.08145" lon="6.02145">
        <ele>445.6</ele>
        <time>2021-09-10T09:27:33Z</time>
      </trkpt>
      <trkpt lat="44.08141" lon="6.02145">
        <ele>445.8</ele>
        <time>2021-09-10T09:27:34Z</time>
      </trkpt>
      <trkpt lat="44.08139" lon="6.02144">
        <ele>445.9</ele>
        <time>2021-09-10T09:27:35Z</time>
      </trkpt>
      <trkpt lat="44.08136" lon="6.02144">
        <ele>446.1</ele>
        <time>2021-09-10T09:27:37Z</time>
      </trkpt>
      <trkpt lat="44.08131" lon="6.02144">
        <ele>446.4</ele>
        <time>2021-09-10T09:27:38Z</time>
      </trkpt>
      <trkpt lat="44.08128" lon="6.02144">
        <ele>446.6</ele>
        <time>2021-09-10T09:27:40Z</time>
      </trkpt>
      <trkpt lat="44.08124" lon="6.02144">
        <ele>446.8</ele>
        <time>2021-09-10T09:27:42Z</time>
      </trkpt>
      <trkpt lat="44.08119" lon="6.02146">
        <ele>447.1</ele>
        <time>2021-09-10T09:27:44Z</time>
      </trkpt>
      <trkpt lat="44.08116" lon="6.02146">
        <ele>447.3</ele>
        <time>2021-09-10T09:27:45Z</time>
      </trkpt>
      <trkpt lat="44.08111" lon="6.02148">
        <ele>447.6</ele>
        <time>2021-09-10T09:27:47Z</time>
      </trkpt>
      <trkpt lat="44.0811" lon="6.02148">
        <ele>447.7</ele>
        <time>2021-09-10T09:27:48Z</time>
      </trkpt>
      <trkpt lat="44.08108" lon="6.02148">
        <ele>447.7</ele>
        <time>2021-09-10T09:27:49Z</time>
      </trkpt>
      <trkpt lat="44.08106" lon="6.02148">
        <ele>447.9</ele>
        <time>2021-09-10T09:27:50Z</time>
      </trkpt>
      <trkpt lat="44.08103" lon="6.02149">
        <ele>448</ele>
        <time>2021-09-10T09:27:52Z</time>
      </trkpt>
      <trkpt lat="44.08099" lon="6.02149">
        <ele>448.2</ele>
        <time>2021-09-10T09:27:54Z</time>
      </trkpt>
      <trkpt lat="44.08097" lon="6.0215">
        <ele>448.3</ele>
        <time>2021-09-10T09:27:55Z</time>
      </trkpt>
      <trkpt lat="44.08096" lon="6.0215">
        <ele>448.4</ele>
        <time>2021-09-10T09:27:56Z</time>
      </trkpt>
      <trkpt lat="44.08094" lon="6.02151">
        <ele>448.5</ele>
        <time>2021-09-10T09:27:57Z</time>
      </trkpt>
      <trkpt lat="44.0809" lon="6.02151">
        <ele>448.6</ele>
        <time>2021-09-10T09:27:59Z</time>
      </trkpt>
      <trkpt lat="44.08086" lon="6.02152">
        <ele>448.8</ele>
        <time>2021-09-10T09:28:01Z</time>
      </trkpt>
      <trkpt lat="44.08081" lon="6.02152">
        <ele>449</ele>
        <time>2021-09-10T09:28:02Z</time>
      </trkpt>
      <trkpt lat="44.08078" lon="6.02152">
        <ele>449.1</ele>
        <time>2021-09-10T09:28:04Z</time>
      </trkpt>
      <trkpt lat="44.08074" lon="6.02151">
        <ele>449.3</ele>
        <time>2021-09-10T09:28:05Z</time>
      </trkpt>
      <trkpt lat="44.08073" lon="6.02151">
        <ele>449.3</ele>
        <time>2021-09-10T09:28:06Z</time>
      </trkpt>
      <trkpt lat="44.08068" lon="6.02152">
        <ele>449.5</ele>
        <time>2021-09-10T09:28:08Z</time>
      </trkpt>
      <trkpt lat="44.08066" lon="6.02153">
        <ele>449.5</ele>
        <time>2021-09-10T09:28:09Z</time>
      </trkpt>
      <trkpt lat="44.08065" lon="6.02153">
        <ele>449.6</ele>
        <time>2021-09-10T09:28:10Z</time>
      </trkpt>
      <trkpt lat="44.08061" lon="6.02155">
        <ele>449.8</ele>
        <time>2021-09-10T09:28:11Z</time>
      </trkpt>
      <trkpt lat="44.0806" lon="6.02156">
        <ele>449.9</ele>
        <time>2021-09-10T09:28:12Z</time>
      </trkpt>
      <trkpt lat="44.08057" lon="6.02159">
        <ele>450.1</ele>
        <time>2021-09-10T09:28:13Z</time>
      </trkpt>
      <trkpt lat="44.08056" lon="6.02161">
        <ele>450.2</ele>
        <time>2021-09-10T09:28:14Z</time>
      </trkpt>
      <trkpt lat="44.08054" lon="6.02163">
        <ele>450.4</ele>
        <time>2021-09-10T09:28:15Z</time>
      </trkpt>
      <trkpt lat="44.08053" lon="6.02164">
        <ele>450.4</ele>
        <time>2021-09-10T09:28:16Z</time>
      </trkpt>
      <trkpt lat="44.08051" lon="6.02167">
        <ele>450.6</ele>
        <time>2021-09-10T09:28:18Z</time>
      </trkpt>
      <trkpt lat="44.08051" lon="6.02168">
        <ele>450.7</ele>
        <time>2021-09-10T09:28:19Z</time>
      </trkpt>
      <trkpt lat="44.08049" lon="6.02171">
        <ele>450.8</ele>
        <time>2021-09-10T09:28:21Z</time>
      </trkpt>
      <trkpt lat="44.08047" lon="6.02174">
        <ele>451</ele>
        <time>2021-09-10T09:28:22Z</time>
      </trkpt>
      <trkpt lat="44.08045" lon="6.02178">
        <ele>451.2</ele>
        <time>2021-09-10T09:28:24Z</time>
      </trkpt>
      <trkpt lat="44.08045" lon="6.02179">
        <ele>451.2</ele>
        <time>2021-09-10T09:28:25Z</time>
      </trkpt>
      <trkpt lat="44.08042" lon="6.02182">
        <ele>451.4</ele>
        <time>2021-09-10T09:28:27Z</time>
      </trkpt>
      <trkpt lat="44.08042" lon="6.02183">
        <ele>451.5</ele>
        <time>2021-09-10T09:28:28Z</time>
      </trkpt>
      <trkpt lat="44.0804" lon="6.02186">
        <ele>451.6</ele>
        <time>2021-09-10T09:28:29Z</time>
      </trkpt>
      <trkpt lat="44.08039" lon="6.02188">
        <ele>451.7</ele>
        <time>2021-09-10T09:28:31Z</time>
      </trkpt>
      <trkpt lat="44.08038" lon="6.0219">
        <ele>451.8</ele>
        <time>2021-09-10T09:28:32Z</time>
      </trkpt>
      <trkpt lat="44.08038" lon="6.02191">
        <ele>451.8</ele>
        <time>2021-09-10T09:28:33Z</time>
      </trkpt>
      <trkpt lat="44.08037" lon="6.02192">
        <ele>451.9</ele>
        <time>2021-09-10T09:28:35Z</time>
      </trkpt>
      <trkpt lat="44.08037" lon="6.02193">
        <ele>451.9</ele>
        <time>2021-09-10T09:28:36Z</time>
      </trkpt>
      <trkpt lat="44.08035" lon="6.02195">
        <ele>452.1</ele>
        <time>2021-09-10T09:28:37Z</time>
      </trkpt>
      <trkpt lat="44.08033" lon="6.02198">
        <ele>452.2</ele>
        <time>2021-09-10T09:28:39Z</time>
      </trkpt>
      <trkpt lat="44.08031" lon="6.02201">
        <ele>452.4</ele>
        <time>2021-09-10T09:28:40Z</time>
      </trkpt>
      <trkpt lat="44.0803" lon="6.02203">
        <ele>452.5</ele>
        <time>2021-09-10T09:28:41Z</time>
      </trkpt>
      <trkpt lat="44.08028" lon="6.02204">
        <ele>452.6</ele>
        <time>2021-09-10T09:28:43Z</time>
      </trkpt>
      <trkpt lat="44.08026" lon="6.02208">
        <ele>452.8</ele>
        <time>2021-09-10T09:28:44Z</time>
      </trkpt>
      <trkpt lat="44.08025" lon="6.02209">
        <ele>452.9</ele>
        <time>2021-09-10T09:28:45Z</time>
      </trkpt>
      <trkpt lat="44.08023" lon="6.02213">
        <ele>453.1</ele>
        <time>2021-09-10T09:28:47Z</time>
      </trkpt>
      <trkpt lat="44.08022" lon="6.02215">
        <ele>453.2</ele>
        <time>2021-09-10T09:28:48Z</time>
      </trkpt>
      <trkpt lat="44.08021" lon="6.02219">
        <ele>453.4</ele>
        <time>2021-09-10T09:28:50Z</time>
      </trkpt>
      <trkpt lat="44.08019" lon="6.02224">
        <ele>453.6</ele>
        <time>2021-09-10T09:28:52Z</time>
      </trkpt>
      <trkpt lat="44.08017" lon="6.02227">
        <ele>453.8</ele>
        <time>2021-09-10T09:28:53Z</time>
      </trkpt>
      <trkpt lat="44.08015" lon="6.02229">
        <ele>453.9</ele>
        <time>2021-09-10T09:28:55Z</time>
      </trkpt>
      <trkpt lat="44.08014" lon="6.0223">
        <ele>454</ele>
        <time>2021-09-10T09:28:56Z</time>
      </trkpt>
      <trkpt lat="44.08014" lon="6.02231">
        <ele>454.1</ele>
        <time>2021-09-10T09:28:57Z</time>
      </trkpt>
      <trkpt lat="44.08012" lon="6.02233">
        <ele>454.3</ele>
        <time>2021-09-10T09:28:59Z</time>
      </trkpt>
      <trkpt lat="44.0801" lon="6.02236">
        <ele>454.4</ele>
        <time>2021-09-10T09:29:00Z</time>
      </trkpt>
      <trkpt lat="44.08009" lon="6.02238">
        <ele>454.5</ele>
        <time>2021-09-10T09:29:01Z</time>
      </trkpt>
      <trkpt lat="44.08009" lon="6.02239">
        <ele>454.6</ele>
        <time>2021-09-10T09:29:03Z</time>
      </trkpt>
      <trkpt lat="44.08007" lon="6.02241">
        <ele>454.8</ele>
        <time>2021-09-10T09:29:04Z</time>
      </trkpt>
      <trkpt lat="44.08006" lon="6.02243">
        <ele>454.9</ele>
        <time>2021-09-10T09:29:05Z</time>
      </trkpt>
      <trkpt lat="44.08005" lon="6.02246">
        <ele>455</ele>
        <time>2021-09-10T09:29:06Z</time>
      </trkpt>
      <trkpt lat="44.08004" lon="6.02248">
        <ele>455.2</ele>
        <time>2021-09-10T09:29:08Z</time>
      </trkpt>
      <trkpt lat="44.08003" lon="6.02252">
        <ele>455.4</ele>
        <time>2021-09-10T09:29:10Z</time>
      </trkpt>
      <trkpt lat="44.08001" lon="6.02255">
        <ele>455.5</ele>
        <time>2021-09-10T09:29:12Z</time>
      </trkpt>
      <trkpt lat="44.08001" lon="6.02256">
        <ele>455.6</ele>
        <time>2021-09-10T09:29:13Z</time>
      </trkpt>
      <trkpt lat="44.08001" lon="6.02258">
        <ele>455.7</ele>
        <time>2021-09-10T09:29:14Z</time>
      </trkpt>
      <trkpt lat="44.08" lon="6.02259">
        <ele>455.8</ele>
        <time>2021-09-10T09:29:16Z</time>
      </trkpt>
      <trkpt lat="44.08" lon="6.0226">
        <ele>455.8</ele>
        <time>2021-09-10T09:29:17Z</time>
      </trkpt>
      <trkpt lat="44.07999" lon="6.02261">
        <ele>455.9</ele>
        <time>2021-09-10T09:29:18Z</time>
      </trkpt>
      <trkpt lat="44.07997" lon="6.02266">
        <ele>456.2</ele>
        <time>2021-09-10T09:29:20Z</time>
      </trkpt>
      <trkpt lat="44.07996" lon="6.02267">
        <ele>456.3</ele>
        <time>2021-09-10T09:29:21Z</time>
      </trkpt>
      <trkpt lat="44.07993" lon="6.0227">
        <ele>456.5</ele>
        <time>2021-09-10T09:29:23Z</time>
      </trkpt>
      <trkpt lat="44.07993" lon="6.02271">
        <ele>456.5</ele>
        <time>2021-09-10T09:29:24Z</time>
      </trkpt>
      <trkpt lat="44.0799" lon="6.02275">
        <ele>456.8</ele>
        <time>2021-09-10T09:29:26Z</time>
      </trkpt>
      <trkpt lat="44.0799" lon="6.02276">
        <ele>456.9</ele>
        <time>2021-09-10T09:29:27Z</time>
      </trkpt>
      <trkpt lat="44.07988" lon="6.02278">
        <ele>457</ele>
        <time>2021-09-10T09:29:28Z</time>
      </trkpt>
      <trkpt lat="44.07986" lon="6.0228">
        <ele>457.2</ele>
        <time>2021-09-10T09:29:30Z</time>
      </trkpt>
      <trkpt lat="44.07984" lon="6.02282">
        <ele>457.4</ele>
        <time>2021-09-10T09:29:31Z</time>
      </trkpt>
      <trkpt lat="44.07983" lon="6.02284">
        <ele>457.5</ele>
        <time>2021-09-10T09:29:32Z</time>
      </trkpt>
      <trkpt lat="44.07981" lon="6.02286">
        <ele>457.6</ele>
        <time>2021-09-10T09:29:34Z</time>
      </trkpt>
      <trkpt lat="44.0798" lon="6.02288">
        <ele>457.8</ele>
        <time>2021-09-10T09:29:35Z</time>
      </trkpt>
      <trkpt lat="44.07979" lon="6.0229">
        <ele>457.9</ele>
        <time>2021-09-10T09:29:36Z</time>
      </trkpt>
      <trkpt lat="44.07978" lon="6.02294">
        <ele>458.1</ele>
        <time>2021-09-10T09:29:37Z</time>
      </trkpt>
      <trkpt lat="44.07978" lon="6.02296">
        <ele>458.2</ele>
        <time>2021-09-10T09:29:39Z</time>
      </trkpt>
      <trkpt lat="44.07977" lon="6.02297">
        <ele>458.3</ele>
        <time>2021-09-10T09:29:40Z</time>
      </trkpt>
      <trkpt lat="44.07975" lon="6.02299">
        <ele>458.4</ele>
        <time>2021-09-10T09:29:41Z</time>
      </trkpt>
      <trkpt lat="44.07973" lon="6.02301">
        <ele>458.6</ele>
        <time>2021-09-10T09:29:43Z</time>
      </trkpt>
      <trkpt lat="44.07971" lon="6.02305">
        <ele>458.8</ele>
        <time>2021-09-10T09:29:44Z</time>
      </trkpt>
      <trkpt lat="44.07969" lon="6.02307">
        <ele>459</ele>
        <time>2021-09-10T09:29:46Z</time>
      </trkpt>
      <trkpt lat="44.07969" lon="6.02308">
        <ele>459</ele>
        <time>2021-09-10T09:29:47Z</time>
      </trkpt>
      <trkpt lat="44.07967" lon="6.02311">
        <ele>459.2</ele>
        <time>2021-09-10T09:29:49Z</time>
      </trkpt>
      <trkpt lat="44.07966" lon="6.02312">
        <ele>459.3</ele>
        <time>2021-09-10T09:29:50Z</time>
      </trkpt>
      <trkpt lat="44.07964" lon="6.02316">
        <ele>459.6</ele>
        <time>2021-09-10T09:29:52Z</time>
      </trkpt>
      <trkpt lat="44.07962" lon="6.02319">
        <ele>459.8</ele>
        <time>2021-09-10T09:29:54Z</time>
      </trkpt>
      <trkpt lat="44.0796" lon="6.02321">
        <ele>459.9</ele>
        <time>2021-09-10T09:29:55Z</time>
      </trkpt>
      <trkpt lat="44.07959" lon="6.02323">
        <ele>460.1</ele>
        <time>2021-09-10T09:29:56Z</time>
      </trkpt>
      <trkpt lat="44.07958" lon="6.02327">
        <ele>460.3</ele>
        <time>2021-09-10T09:29:58Z</time>
      </trkpt>
      <trkpt lat="44.07956" lon="6.02329">
        <ele>460.5</ele>
        <time>2021-09-10T09:29:59Z</time>
      </trkpt>
      <trkpt lat="44.07955" lon="6.0233">
        <ele>460.6</ele>
        <time>2021-09-10T09:30:00Z</time>
      </trkpt>
      <trkpt lat="44.07953" lon="6.02333">
        <ele>460.8</ele>
        <time>2021-09-10T09:30:01Z</time>
      </trkpt>
      <trkpt lat="44.07951" lon="6.02335">
        <ele>461</ele>
        <time>2021-09-10T09:30:03Z</time>
      </trkpt>
      <trkpt lat="44.0795" lon="6.02336">
        <ele>461.1</ele>
        <time>2021-09-10T09:30:04Z</time>
      </trkpt>
      <trkpt lat="44.0795" lon="6.02337">
        <ele>461.1</ele>
        <time>2021-09-10T09:30:05Z</time>
      </trkpt>
      <trkpt lat="44.07948" lon="6.02338">
        <ele>461.3</ele>
        <time>2021-09-10T09:30:06Z</time>
      </trkpt>
      <trkpt lat="44.07946" lon="6.02339">
        <ele>461.4</ele>
        <time>2021-09-10T09:30:08Z</time>
      </trkpt>
      <trkpt lat="44.07943" lon="6.0234">
        <ele>461.7</ele>
        <time>2021-09-10T09:30:09Z</time>
      </trkpt>
      <trkpt lat="44.0794" lon="6.02341">
        <ele>461.9</ele>
        <time>2021-09-10T09:30:11Z</time>
      </trkpt>
      <trkpt lat="44.07939" lon="6.02342">
        <ele>461.9</ele>
        <time>2021-09-10T09:30:12Z</time>
      </trkpt>
      <trkpt lat="44.07936" lon="6.02344">
        <ele>462.2</ele>
        <time>2021-09-10T09:30:14Z</time>
      </trkpt>
      <trkpt lat="44.07935" lon="6.02346">
        <ele>462.3</ele>
        <time>2021-09-10T09:30:15Z</time>
      </trkpt>
      <trkpt lat="44.07934" lon="6.02349">
        <ele>462.4</ele>
        <time>2021-09-10T09:30:17Z</time>
      </trkpt>
      <trkpt lat="44.07932" lon="6.02352">
        <ele>462.6</ele>
        <time>2021-09-10T09:30:18Z</time>
      </trkpt>
      <trkpt lat="44.07932" lon="6.02353">
        <ele>462.6</ele>
        <time>2021-09-10T09:30:19Z</time>
      </trkpt>
      <trkpt lat="44.07931" lon="6.02356">
        <ele>462.7</ele>
        <time>2021-09-10T09:30:21Z</time>
      </trkpt>
      <trkpt lat="44.07931" lon="6.0236">
        <ele>462.9</ele>
        <time>2021-09-10T09:30:23Z</time>
      </trkpt>
      <trkpt lat="44.0793" lon="6.02364">
        <ele>463</ele>
        <time>2021-09-10T09:30:24Z</time>
      </trkpt>
      <trkpt lat="44.0793" lon="6.02379">
        <ele>463.4</ele>
        <time>2021-09-10T09:30:30Z</time>
      </trkpt>
      <trkpt lat="44.07929" lon="6.02385">
        <ele>463.6</ele>
        <time>2021-09-10T09:30:31Z</time>
      </trkpt>
      <trkpt lat="44.07929" lon="6.0239">
        <ele>463.7</ele>
        <time>2021-09-10T09:30:33Z</time>
      </trkpt>
      <trkpt lat="44.0793" lon="6.02394">
        <ele>463.9</ele>
        <time>2021-09-10T09:30:34Z</time>
      </trkpt>
      <trkpt lat="44.07929" lon="6.02399">
        <ele>464.1</ele>
        <time>2021-09-10T09:30:36Z</time>
      </trkpt>
      <trkpt lat="44.07928" lon="6.02406">
        <ele>464.4</ele>
        <time>2021-09-10T09:30:37Z</time>
      </trkpt>
      <trkpt lat="44.07927" lon="6.02409">
        <ele>464.5</ele>
        <time>2021-09-10T09:30:38Z</time>
      </trkpt>
      <trkpt lat="44.07926" lon="6.02412">
        <ele>464.6</ele>
        <time>2021-09-10T09:30:40Z</time>
      </trkpt>
      <trkpt lat="44.07925" lon="6.02414">
        <ele>464.7</ele>
        <time>2021-09-10T09:30:41Z</time>
      </trkpt>
      <trkpt lat="44.07923" lon="6.02418">
        <ele>464.9</ele>
        <time>2021-09-10T09:30:43Z</time>
      </trkpt>
      <trkpt lat="44.07923" lon="6.0242">
        <ele>465</ele>
        <time>2021-09-10T09:30:44Z</time>
      </trkpt>
      <trkpt lat="44.07923" lon="6.02424">
        <ele>465.2</ele>
        <time>2021-09-10T09:30:46Z</time>
      </trkpt>
      <trkpt lat="44.07922" lon="6.02426">
        <ele>465.3</ele>
        <time>2021-09-10T09:30:47Z</time>
      </trkpt>
      <trkpt lat="44.07921" lon="6.02428">
        <ele>465.4</ele>
        <time>2021-09-10T09:30:48Z</time>
      </trkpt>
      <trkpt lat="44.07918" lon="6.02433">
        <ele>465.6</ele>
        <time>2021-09-10T09:30:50Z</time>
      </trkpt>
      <trkpt lat="44.07917" lon="6.02437">
        <ele>465.8</ele>
        <time>2021-09-10T09:30:51Z</time>
      </trkpt>
      <trkpt lat="44.07916" lon="6.02439">
        <ele>465.9</ele>
        <time>2021-09-10T09:30:52Z</time>
      </trkpt>
      <trkpt lat="44.07915" lon="6.02441">
        <ele>466</ele>
        <time>2021-09-10T09:30:53Z</time>
      </trkpt>
      <trkpt lat="44.07913" lon="6.02445">
        <ele>466.2</ele>
        <time>2021-09-10T09:30:55Z</time>
      </trkpt>
      <trkpt lat="44.07912" lon="6.02446">
        <ele>466.2</ele>
        <time>2021-09-10T09:30:56Z</time>
      </trkpt>
      <trkpt lat="44.0791" lon="6.0245">
        <ele>466.3</ele>
        <time>2021-09-10T09:30:58Z</time>
      </trkpt>
      <trkpt lat="44.07908" lon="6.02454">
        <ele>466.4</ele>
        <time>2021-09-10T09:31:00Z</time>
      </trkpt>
      <trkpt lat="44.07906" lon="6.02457">
        <ele>466.5</ele>
        <time>2021-09-10T09:31:02Z</time>
      </trkpt>
      <trkpt lat="44.07905" lon="6.02459">
        <ele>466.6</ele>
        <time>2021-09-10T09:31:03Z</time>
      </trkpt>
      <trkpt lat="44.07903" lon="6.02462">
        <ele>466.7</ele>
        <time>2021-09-10T09:31:05Z</time>
      </trkpt>
      <trkpt lat="44.079" lon="6.02465">
        <ele>466.8</ele>
        <time>2021-09-10T09:31:06Z</time>
      </trkpt>
      <trkpt lat="44.07899" lon="6.02469">
        <ele>466.9</ele>
        <time>2021-09-10T09:31:08Z</time>
      </trkpt>
      <trkpt lat="44.07898" lon="6.0247">
        <ele>466.9</ele>
        <time>2021-09-10T09:31:09Z</time>
      </trkpt>
      <trkpt lat="44.07896" lon="6.02473">
        <ele>467</ele>
        <time>2021-09-10T09:31:11Z</time>
      </trkpt>
      <trkpt lat="44.07894" lon="6.02478">
        <ele>467.1</ele>
        <time>2021-09-10T09:31:13Z</time>
      </trkpt>
      <trkpt lat="44.07893" lon="6.0248">
        <ele>467.2</ele>
        <time>2021-09-10T09:31:14Z</time>
      </trkpt>
      <trkpt lat="44.07892" lon="6.02485">
        <ele>467.3</ele>
        <time>2021-09-10T09:31:16Z</time>
      </trkpt>
      <trkpt lat="44.07891" lon="6.02488">
        <ele>467.4</ele>
        <time>2021-09-10T09:31:17Z</time>
      </trkpt>
      <trkpt lat="44.0789" lon="6.02489">
        <ele>467.4</ele>
        <time>2021-09-10T09:31:18Z</time>
      </trkpt>
      <trkpt lat="44.07888" lon="6.02493">
        <ele>467.5</ele>
        <time>2021-09-10T09:31:19Z</time>
      </trkpt>
      <trkpt lat="44.07886" lon="6.02494">
        <ele>467.6</ele>
        <time>2021-09-10T09:31:20Z</time>
      </trkpt>
      <trkpt lat="44.07883" lon="6.025">
        <ele>467.7</ele>
        <time>2021-09-10T09:31:22Z</time>
      </trkpt>
      <trkpt lat="44.07882" lon="6.02502">
        <ele>467.7</ele>
        <time>2021-09-10T09:31:23Z</time>
      </trkpt>
      <trkpt lat="44.07881" lon="6.02504">
        <ele>467.8</ele>
        <time>2021-09-10T09:31:24Z</time>
      </trkpt>
      <trkpt lat="44.07878" lon="6.02509">
        <ele>467.9</ele>
        <time>2021-09-10T09:31:26Z</time>
      </trkpt>
      <trkpt lat="44.07876" lon="6.02515">
        <ele>468</ele>
        <time>2021-09-10T09:31:28Z</time>
      </trkpt>
      <trkpt lat="44.07873" lon="6.02519">
        <ele>468.2</ele>
        <time>2021-09-10T09:31:29Z</time>
      </trkpt>
      <trkpt lat="44.07871" lon="6.02523">
        <ele>468.3</ele>
        <time>2021-09-10T09:31:31Z</time>
      </trkpt>
      <trkpt lat="44.0787" lon="6.02524">
        <ele>468.3</ele>
        <time>2021-09-10T09:31:32Z</time>
      </trkpt>
      <trkpt lat="44.07868" lon="6.02527">
        <ele>468.4</ele>
        <time>2021-09-10T09:31:33Z</time>
      </trkpt>
      <trkpt lat="44.07866" lon="6.0253">
        <ele>468.5</ele>
        <time>2021-09-10T09:31:35Z</time>
      </trkpt>
      <trkpt lat="44.07864" lon="6.02535">
        <ele>468.7</ele>
        <time>2021-09-10T09:31:36Z</time>
      </trkpt>
      <trkpt lat="44.07862" lon="6.02539">
        <ele>468.8</ele>
        <time>2021-09-10T09:31:38Z</time>
      </trkpt>
      <trkpt lat="44.0786" lon="6.02542">
        <ele>468.9</ele>
        <time>2021-09-10T09:31:39Z</time>
      </trkpt>
      <trkpt lat="44.07857" lon="6.02546">
        <ele>469.1</ele>
        <time>2021-09-10T09:31:41Z</time>
      </trkpt>
      <trkpt lat="44.07855" lon="6.0255">
        <ele>469.2</ele>
        <time>2021-09-10T09:31:42Z</time>
      </trkpt>
      <trkpt lat="44.07854" lon="6.02551">
        <ele>469.2</ele>
        <time>2021-09-10T09:31:43Z</time>
      </trkpt>
      <trkpt lat="44.07852" lon="6.02554">
        <ele>469.3</ele>
        <time>2021-09-10T09:31:44Z</time>
      </trkpt>
      <trkpt lat="44.07851" lon="6.02557">
        <ele>469.4</ele>
        <time>2021-09-10T09:31:46Z</time>
      </trkpt>
      <trkpt lat="44.07849" lon="6.02562">
        <ele>469.6</ele>
        <time>2021-09-10T09:31:47Z</time>
      </trkpt>
      <trkpt lat="44.07849" lon="6.02564">
        <ele>469.6</ele>
        <time>2021-09-10T09:31:48Z</time>
      </trkpt>
      <trkpt lat="44.07847" lon="6.02567">
        <ele>469.7</ele>
        <time>2021-09-10T09:31:49Z</time>
      </trkpt>
      <trkpt lat="44.07845" lon="6.0257">
        <ele>469.8</ele>
        <time>2021-09-10T09:31:51Z</time>
      </trkpt>
      <trkpt lat="44.07844" lon="6.02574">
        <ele>469.9</ele>
        <time>2021-09-10T09:31:52Z</time>
      </trkpt>
      <trkpt lat="44.07843" lon="6.02578">
        <ele>470</ele>
        <time>2021-09-10T09:31:53Z</time>
      </trkpt>
      <trkpt lat="44.07841" lon="6.02582">
        <ele>470.2</ele>
        <time>2021-09-10T09:31:55Z</time>
      </trkpt>
      <trkpt lat="44.0784" lon="6.02588">
        <ele>470.3</ele>
        <time>2021-09-10T09:31:57Z</time>
      </trkpt>
      <trkpt lat="44.07839" lon="6.02593">
        <ele>470.4</ele>
        <time>2021-09-10T09:31:58Z</time>
      </trkpt>
      <trkpt lat="44.07839" lon="6.02594">
        <ele>470.7</ele>
        <time>2021-09-10T09:31:59Z</time>
      </trkpt>
      <trkpt lat="44.07839" lon="6.026">
        <ele>470.8</ele>
        <time>2021-09-10T09:32:01Z</time>
      </trkpt>
      <trkpt lat="44.07839" lon="6.02604">
        <ele>470.9</ele>
        <time>2021-09-10T09:32:02Z</time>
      </trkpt>
      <trkpt lat="44.07839" lon="6.02608">
        <ele>470.9</ele>
        <time>2021-09-10T09:32:03Z</time>
      </trkpt>
      <trkpt lat="44.07839" lon="6.02611">
        <ele>471.2</ele>
        <time>2021-09-10T09:32:05Z</time>
      </trkpt>
      <trkpt lat="44.07841" lon="6.02615">
        <ele>471.3</ele>
        <time>2021-09-10T09:32:06Z</time>
      </trkpt>
      <trkpt lat="44.07842" lon="6.02617">
        <ele>471.4</ele>
        <time>2021-09-10T09:32:07Z</time>
      </trkpt>
      <trkpt lat="44.07843" lon="6.02621">
        <ele>471.6</ele>
        <time>2021-09-10T09:32:08Z</time>
      </trkpt>
      <trkpt lat="44.07844" lon="6.02623">
        <ele>471.6</ele>
        <time>2021-09-10T09:32:09Z</time>
      </trkpt>
      <trkpt lat="44.07845" lon="6.02628">
        <ele>471.8</ele>
        <time>2021-09-10T09:32:11Z</time>
      </trkpt>
      <trkpt lat="44.07846" lon="6.02629">
        <ele>471.9</ele>
        <time>2021-09-10T09:32:12Z</time>
      </trkpt>
      <trkpt lat="44.07847" lon="6.02634">
        <ele>472</ele>
        <time>2021-09-10T09:32:14Z</time>
      </trkpt>
      <trkpt lat="44.0785" lon="6.02638">
        <ele>472.2</ele>
        <time>2021-09-10T09:32:15Z</time>
      </trkpt>
      <trkpt lat="44.0785" lon="6.0264">
        <ele>472.3</ele>
        <time>2021-09-10T09:32:17Z</time>
      </trkpt>
      <trkpt lat="44.07851" lon="6.02642">
        <ele>472.4</ele>
        <time>2021-09-10T09:32:18Z</time>
      </trkpt>
      <trkpt lat="44.07852" lon="6.02644">
        <ele>472.5</ele>
        <time>2021-09-10T09:32:20Z</time>
      </trkpt>
      <trkpt lat="44.07852" lon="6.02646">
        <ele>472.6</ele>
        <time>2021-09-10T09:32:21Z</time>
      </trkpt>
      <trkpt lat="44.07853" lon="6.02647">
        <ele>472.7</ele>
        <time>2021-09-10T09:32:22Z</time>
      </trkpt>
      <trkpt lat="44.07855" lon="6.02651">
        <ele>472.9</ele>
        <time>2021-09-10T09:32:24Z</time>
      </trkpt>
      <trkpt lat="44.07856" lon="6.02652">
        <ele>472.9</ele>
        <time>2021-09-10T09:32:25Z</time>
      </trkpt>
      <trkpt lat="44.07857" lon="6.02655">
        <ele>473</ele>
        <time>2021-09-10T09:32:26Z</time>
      </trkpt>
      <trkpt lat="44.07859" lon="6.02661">
        <ele>473.4</ele>
        <time>2021-09-10T09:32:28Z</time>
      </trkpt>
      <trkpt lat="44.0786" lon="6.02666">
        <ele>473.6</ele>
        <time>2021-09-10T09:32:29Z</time>
      </trkpt>
      <trkpt lat="44.07863" lon="6.02671">
        <ele>473.8</ele>
        <time>2021-09-10T09:32:31Z</time>
      </trkpt>
      <trkpt lat="44.07863" lon="6.02673">
        <ele>473.9</ele>
        <time>2021-09-10T09:32:32Z</time>
      </trkpt>
      <trkpt lat="44.07864" lon="6.0268">
        <ele>474.3</ele>
        <time>2021-09-10T09:32:34Z</time>
      </trkpt>
      <trkpt lat="44.07864" lon="6.02683">
        <ele>474.4</ele>
        <time>2021-09-10T09:32:35Z</time>
      </trkpt>
      <trkpt lat="44.07864" lon="6.02686">
        <ele>474.5</ele>
        <time>2021-09-10T09:32:36Z</time>
      </trkpt>
      <trkpt lat="44.07866" lon="6.0269">
        <ele>474.7</ele>
        <time>2021-09-10T09:32:38Z</time>
      </trkpt>
      <trkpt lat="44.07867" lon="6.02692">
        <ele>474.8</ele>
        <time>2021-09-10T09:32:39Z</time>
      </trkpt>
      <trkpt lat="44.07867" lon="6.02697">
        <ele>475</ele>
        <time>2021-09-10T09:32:41Z</time>
      </trkpt>
      <trkpt lat="44.07867" lon="6.027">
        <ele>475.2</ele>
        <time>2021-09-10T09:32:42Z</time>
      </trkpt>
      <trkpt lat="44.07867" lon="6.02703">
        <ele>475.3</ele>
        <time>2021-09-10T09:32:44Z</time>
      </trkpt>
      <trkpt lat="44.07867" lon="6.02708">
        <ele>475.5</ele>
        <time>2021-09-10T09:32:46Z</time>
      </trkpt>
      <trkpt lat="44.07868" lon="6.02712">
        <ele>475.8</ele>
        <time>2021-09-10T09:32:48Z</time>
      </trkpt>
      <trkpt lat="44.07868" lon="6.02715">
        <ele>475.9</ele>
        <time>2021-09-10T09:32:49Z</time>
      </trkpt>
      <trkpt lat="44.07867" lon="6.02719">
        <ele>476</ele>
        <time>2021-09-10T09:32:51Z</time>
      </trkpt>
      <trkpt lat="44.07867" lon="6.02723">
        <ele>476.2</ele>
        <time>2021-09-10T09:32:53Z</time>
      </trkpt>
      <trkpt lat="44.07868" lon="6.02724">
        <ele>476.3</ele>
        <time>2021-09-10T09:32:54Z</time>
      </trkpt>
      <trkpt lat="44.07868" lon="6.02728">
        <ele>476.5</ele>
        <time>2021-09-10T09:32:56Z</time>
      </trkpt>
      <trkpt lat="44.07868" lon="6.02729">
        <ele>476.6</ele>
        <time>2021-09-10T09:32:57Z</time>
      </trkpt>
      <trkpt lat="44.07869" lon="6.02731">
        <ele>476.6</ele>
        <time>2021-09-10T09:32:58Z</time>
      </trkpt>
      <trkpt lat="44.07869" lon="6.02733">
        <ele>476.7</ele>
        <time>2021-09-10T09:32:59Z</time>
      </trkpt>
      <trkpt lat="44.07869" lon="6.02738">
        <ele>477</ele>
        <time>2021-09-10T09:33:01Z</time>
      </trkpt>
      <trkpt lat="44.0787" lon="6.02743">
        <ele>477.2</ele>
        <time>2021-09-10T09:33:02Z</time>
      </trkpt>
      <trkpt lat="44.07871" lon="6.02744">
        <ele>477.3</ele>
        <time>2021-09-10T09:33:03Z</time>
      </trkpt>
      <trkpt lat="44.07872" lon="6.02748">
        <ele>477.6</ele>
        <time>2021-09-10T09:33:05Z</time>
      </trkpt>
      <trkpt lat="44.07872" lon="6.02749">
        <ele>477.6</ele>
        <time>2021-09-10T09:33:06Z</time>
      </trkpt>
      <trkpt lat="44.07872" lon="6.02751">
        <ele>477.7</ele>
        <time>2021-09-10T09:33:07Z</time>
      </trkpt>
      <trkpt lat="44.07873" lon="6.02756">
        <ele>478</ele>
        <time>2021-09-10T09:33:09Z</time>
      </trkpt>
      <trkpt lat="44.07874" lon="6.02759">
        <ele>478.1</ele>
        <time>2021-09-10T09:33:10Z</time>
      </trkpt>
      <trkpt lat="44.07875" lon="6.0276">
        <ele>478.2</ele>
        <time>2021-09-10T09:33:11Z</time>
      </trkpt>
      <trkpt lat="44.07875" lon="6.02762">
        <ele>478.3</ele>
        <time>2021-09-10T09:33:12Z</time>
      </trkpt>
      <trkpt lat="44.07876" lon="6.02766">
        <ele>478.6</ele>
        <time>2021-09-10T09:33:14Z</time>
      </trkpt>
      <trkpt lat="44.07877" lon="6.02771">
        <ele>478.9</ele>
        <time>2021-09-10T09:33:16Z</time>
      </trkpt>
      <trkpt lat="44.07882" lon="6.02775">
        <ele>479.2</ele>
        <time>2021-09-10T09:33:18Z</time>
      </trkpt>
      <trkpt lat="44.07883" lon="6.02776">
        <ele>479.4</ele>
        <time>2021-09-10T09:33:19Z</time>
      </trkpt>
      <trkpt lat="44.07885" lon="6.02777">
        <ele>479.5</ele>
        <time>2021-09-10T09:33:20Z</time>
      </trkpt>
      <trkpt lat="44.07887" lon="6.02779">
        <ele>479.7</ele>
        <time>2021-09-10T09:33:22Z</time>
      </trkpt>
      <trkpt lat="44.07887" lon="6.02783">
        <ele>479.9</ele>
        <time>2021-09-10T09:33:24Z</time>
      </trkpt>
      <trkpt lat="44.07887" lon="6.02788">
        <ele>480.2</ele>
        <time>2021-09-10T09:33:26Z</time>
      </trkpt>
      <trkpt lat="44.07886" lon="6.02793">
        <ele>480.5</ele>
        <time>2021-09-10T09:33:28Z</time>
      </trkpt>
      <trkpt lat="44.07885" lon="6.02798">
        <ele>480.8</ele>
        <time>2021-09-10T09:33:29Z</time>
      </trkpt>
      <trkpt lat="44.07885" lon="6.02799">
        <ele>480.9</ele>
        <time>2021-09-10T09:33:30Z</time>
      </trkpt>
      <trkpt lat="44.07884" lon="6.02802">
        <ele>481.1</ele>
        <time>2021-09-10T09:33:31Z</time>
      </trkpt>
      <trkpt lat="44.07882" lon="6.02805">
        <ele>481.3</ele>
        <time>2021-09-10T09:33:33Z</time>
      </trkpt>
      <trkpt lat="44.07881" lon="6.02808">
        <ele>481.5</ele>
        <time>2021-09-10T09:33:34Z</time>
      </trkpt>
      <trkpt lat="44.07881" lon="6.02809">
        <ele>481.6</ele>
        <time>2021-09-10T09:33:35Z</time>
      </trkpt>
      <trkpt lat="44.07879" lon="6.02812">
        <ele>481.8</ele>
        <time>2021-09-10T09:33:37Z</time>
      </trkpt>
      <trkpt lat="44.07878" lon="6.02812">
        <ele>481.8</ele>
        <time>2021-09-10T09:33:38Z</time>
      </trkpt>
      <trkpt lat="44.07878" lon="6.02814">
        <ele>481.9</ele>
        <time>2021-09-10T09:33:39Z</time>
      </trkpt>
      <trkpt lat="44.07878" lon="6.02817">
        <ele>482.1</ele>
        <time>2021-09-10T09:33:40Z</time>
      </trkpt>
      <trkpt lat="44.07879" lon="6.02822">
        <ele>482.4</ele>
        <time>2021-09-10T09:33:42Z</time>
      </trkpt>
      <trkpt lat="44.07881" lon="6.02823">
        <ele>482.5</ele>
        <time>2021-09-10T09:33:43Z</time>
      </trkpt>
      <trkpt lat="44.07883" lon="6.02826">
        <ele>482.7</ele>
        <time>2021-09-10T09:33:44Z</time>
      </trkpt>
      <trkpt lat="44.07884" lon="6.02832">
        <ele>483.1</ele>
        <time>2021-09-10T09:33:45Z</time>
      </trkpt>
      <trkpt lat="44.07885" lon="6.02837">
        <ele>483.3</ele>
        <time>2021-09-10T09:33:47Z</time>
      </trkpt>
      <trkpt lat="44.07886" lon="6.02843">
        <ele>483.6</ele>
        <time>2021-09-10T09:33:49Z</time>
      </trkpt>
      <trkpt lat="44.07888" lon="6.02847">
        <ele>483.8</ele>
        <time>2021-09-10T09:33:50Z</time>
      </trkpt>
      <trkpt lat="44.07888" lon="6.02847">
        <ele>483.8</ele>
        <time>2021-09-10T09:33:51Z</time>
      </trkpt>
      <trkpt lat="44.07891" lon="6.02849">
        <ele>484</ele>
        <time>2021-09-10T09:33:53Z</time>
      </trkpt>
      <trkpt lat="44.07891" lon="6.0285">
        <ele>484</ele>
        <time>2021-09-10T09:33:54Z</time>
      </trkpt>
      <trkpt lat="44.07894" lon="6.02855">
        <ele>484.2</ele>
        <time>2021-09-10T09:33:55Z</time>
      </trkpt>
      <trkpt lat="44.07896" lon="6.0286">
        <ele>484.4</ele>
        <time>2021-09-10T09:33:57Z</time>
      </trkpt>
      <trkpt lat="44.07896" lon="6.02864">
        <ele>484.5</ele>
        <time>2021-09-10T09:33:58Z</time>
      </trkpt>
      <trkpt lat="44.07897" lon="6.02869">
        <ele>484.8</ele>
        <time>2021-09-10T09:33:59Z</time>
      </trkpt>
      <trkpt lat="44.07897" lon="6.02871">
        <ele>484.9</ele>
        <time>2021-09-10T09:34:00Z</time>
      </trkpt>
      <trkpt lat="44.07896" lon="6.02876">
        <ele>485.1</ele>
        <time>2021-09-10T09:34:02Z</time>
      </trkpt>
      <trkpt lat="44.07894" lon="6.02882">
        <ele>485.3</ele>
        <time>2021-09-10T09:34:03Z</time>
      </trkpt>
      <trkpt lat="44.07893" lon="6.02886">
        <ele>485.5</ele>
        <time>2021-09-10T09:34:04Z</time>
      </trkpt>
      <trkpt lat="44.0789" lon="6.02893">
        <ele>485.9</ele>
        <time>2021-09-10T09:34:06Z</time>
      </trkpt>
      <trkpt lat="44.07888" lon="6.02896">
        <ele>486</ele>
        <time>2021-09-10T09:34:08Z</time>
      </trkpt>
      <trkpt lat="44.07887" lon="6.029">
        <ele>486.2</ele>
        <time>2021-09-10T09:34:09Z</time>
      </trkpt>
      <trkpt lat="44.07885" lon="6.02903">
        <ele>486.4</ele>
        <time>2021-09-10T09:34:10Z</time>
      </trkpt>
      <trkpt lat="44.07884" lon="6.02907">
        <ele>486.6</ele>
        <time>2021-09-10T09:34:12Z</time>
      </trkpt>
      <trkpt lat="44.07884" lon="6.02911">
        <ele>486.8</ele>
        <time>2021-09-10T09:34:13Z</time>
      </trkpt>
      <trkpt lat="44.07884" lon="6.02914">
        <ele>487.1</ele>
        <time>2021-09-10T09:34:14Z</time>
      </trkpt>
      <trkpt lat="44.07884" lon="6.02918">
        <ele>487.3</ele>
        <time>2021-09-10T09:34:16Z</time>
      </trkpt>
      <trkpt lat="44.07885" lon="6.02921">
        <ele>487.5</ele>
        <time>2021-09-10T09:34:18Z</time>
      </trkpt>
      <trkpt lat="44.07885" lon="6.02922">
        <ele>487.6</ele>
        <time>2021-09-10T09:34:19Z</time>
      </trkpt>
      <trkpt lat="44.07885" lon="6.02923">
        <ele>487.6</ele>
        <time>2021-09-10T09:34:20Z</time>
      </trkpt>
      <trkpt lat="44.07885" lon="6.02925">
        <ele>487.7</ele>
        <time>2021-09-10T09:34:21Z</time>
      </trkpt>
      <trkpt lat="44.07884" lon="6.02926">
        <ele>487.8</ele>
        <time>2021-09-10T09:34:22Z</time>
      </trkpt>
      <trkpt lat="44.07884" lon="6.02928">
        <ele>488</ele>
        <time>2021-09-10T09:34:23Z</time>
      </trkpt>
      <trkpt lat="44.07883" lon="6.02932">
        <ele>488.3</ele>
        <time>2021-09-10T09:34:25Z</time>
      </trkpt>
      <trkpt lat="44.07883" lon="6.02933">
        <ele>488.4</ele>
        <time>2021-09-10T09:34:26Z</time>
      </trkpt>
      <trkpt lat="44.07882" lon="6.02935">
        <ele>488.5</ele>
        <time>2021-09-10T09:34:27Z</time>
      </trkpt>
      <trkpt lat="44.07882" lon="6.02935">
        <ele>488.6</ele>
        <time>2021-09-10T09:34:28Z</time>
      </trkpt>
      <trkpt lat="44.07882" lon="6.02935">
        <ele>488.6</ele>
        <time>2021-09-10T09:34:30Z</time>
      </trkpt>
      <trkpt lat="44.07881" lon="6.02934">
        <ele>488.7</ele>
        <time>2021-09-10T09:34:31Z</time>
      </trkpt>
      <trkpt lat="44.07882" lon="6.02934">
        <ele>488.7</ele>
        <time>2021-09-10T09:34:32Z</time>
      </trkpt>
      <trkpt lat="44.07882" lon="6.02934">
        <ele>488.7</ele>
        <time>2021-09-10T09:34:34Z</time>
      </trkpt>
      <trkpt lat="44.07882" lon="6.02934">
        <ele>488.7</ele>
        <time>2021-09-10T09:34:35Z</time>
      </trkpt>
      <trkpt lat="44.07882" lon="6.02935">
        <ele>488.7</ele>
        <time>2021-09-10T09:34:36Z</time>
      </trkpt>
      <trkpt lat="44.07882" lon="6.02935">
        <ele>488.7</ele>
        <time>2021-09-10T09:34:38Z</time>
      </trkpt>
      <trkpt lat="44.07863" lon="6.02985">
        <ele>492.7</ele>
        <time>2021-09-10T09:35:32Z</time>
      </trkpt>
      <trkpt lat="44.07864" lon="6.02988">
        <ele>492.9</ele>
        <time>2021-09-10T09:35:34Z</time>
      </trkpt>
      <trkpt lat="44.07867" lon="6.02993">
        <ele>493.3</ele>
        <time>2021-09-10T09:35:36Z</time>
      </trkpt>
      <trkpt lat="44.07871" lon="6.02996">
        <ele>493.6</ele>
        <time>2021-09-10T09:35:37Z</time>
      </trkpt>
      <trkpt lat="44.07872" lon="6.03001">
        <ele>493.8</ele>
        <time>2021-09-10T09:35:39Z</time>
      </trkpt>
      <trkpt lat="44.07871" lon="6.03003">
        <ele>493.9</ele>
        <time>2021-09-10T09:35:40Z</time>
      </trkpt>
      <trkpt lat="44.07871" lon="6.03005">
        <ele>494</ele>
        <time>2021-09-10T09:35:41Z</time>
      </trkpt>
      <trkpt lat="44.07868" lon="6.03011">
        <ele>494.2</ele>
        <time>2021-09-10T09:35:42Z</time>
      </trkpt>
      <trkpt lat="44.07866" lon="6.03015">
        <ele>494.3</ele>
        <time>2021-09-10T09:35:44Z</time>
      </trkpt>
      <trkpt lat="44.07864" lon="6.0302">
        <ele>494.3</ele>
        <time>2021-09-10T09:35:45Z</time>
      </trkpt>
      <trkpt lat="44.07863" lon="6.03024">
        <ele>494.3</ele>
        <time>2021-09-10T09:35:46Z</time>
      </trkpt>
      <trkpt lat="44.07861" lon="6.03029">
        <ele>494.4</ele>
        <time>2021-09-10T09:35:47Z</time>
      </trkpt>
      <trkpt lat="44.07859" lon="6.03033">
        <ele>494.5</ele>
        <time>2021-09-10T09:35:49Z</time>
      </trkpt>
      <trkpt lat="44.07857" lon="6.03038">
        <ele>494.7</ele>
        <time>2021-09-10T09:35:51Z</time>
      </trkpt>
      <trkpt lat="44.07855" lon="6.03042">
        <ele>495</ele>
        <time>2021-09-10T09:36:08Z</time>
      </trkpt>
      <trkpt lat="44.07853" lon="6.03047">
        <ele>495.3</ele>
        <time>2021-09-10T09:36:10Z</time>
      </trkpt>
      <trkpt lat="44.07851" lon="6.03051">
        <ele>495.6</ele>
        <time>2021-09-10T09:36:12Z</time>
      </trkpt>
      <trkpt lat="44.0785" lon="6.03056">
        <ele>495.9</ele>
        <time>2021-09-10T09:36:13Z</time>
      </trkpt>
      <trkpt lat="44.07849" lon="6.03057">
        <ele>496</ele>
        <time>2021-09-10T09:36:14Z</time>
      </trkpt>
      <trkpt lat="44.07848" lon="6.03058">
        <ele>496.1</ele>
        <time>2021-09-10T09:36:16Z</time>
      </trkpt>
      <trkpt lat="44.07848" lon="6.03058">
        <ele>496.1</ele>
        <time>2021-09-10T09:36:17Z</time>
      </trkpt>
      <trkpt lat="44.07848" lon="6.03059">
        <ele>496.2</ele>
        <time>2021-09-10T09:36:18Z</time>
      </trkpt>
      <trkpt lat="44.07847" lon="6.03059">
        <ele>496.2</ele>
        <time>2021-09-10T09:36:19Z</time>
      </trkpt>
      <trkpt lat="44.07847" lon="6.0306">
        <ele>496.2</ele>
        <time>2021-09-10T09:36:21Z</time>
      </trkpt>
      <trkpt lat="44.07847" lon="6.0306">
        <ele>496.2</ele>
        <time>2021-09-10T09:36:22Z</time>
      </trkpt>
      <trkpt lat="44.07847" lon="6.0306">
        <ele>496.3</ele>
        <time>2021-09-10T09:36:24Z</time>
      </trkpt>
      <trkpt lat="44.07847" lon="6.0306">
        <ele>496.3</ele>
        <time>2021-09-10T09:36:25Z</time>
      </trkpt>
      <trkpt lat="44.07847" lon="6.0306">
        <ele>496.3</ele>
        <time>2021-09-10T09:36:26Z</time>
      </trkpt>
      <trkpt lat="44.07847" lon="6.0306">
        <ele>496.3</ele>
        <time>2021-09-10T09:36:27Z</time>
      </trkpt>
      <trkpt lat="44.07847" lon="6.0306">
        <ele>496.3</ele>
        <time>2021-09-10T09:36:29Z</time>
      </trkpt>
      <trkpt lat="44.07847" lon="6.0306">
        <ele>496.3</ele>
        <time>2021-09-10T09:36:30Z</time>
      </trkpt>
      <trkpt lat="44.07847" lon="6.03061">
        <ele>496.3</ele>
        <time>2021-09-10T09:36:31Z</time>
      </trkpt>
      <trkpt lat="44.07847" lon="6.03063">
        <ele>496.4</ele>
        <time>2021-09-10T09:36:32Z</time>
      </trkpt>
      <trkpt lat="44.07847" lon="6.03065">
        <ele>496.5</ele>
        <time>2021-09-10T09:36:34Z</time>
      </trkpt>
      <trkpt lat="44.07846" lon="6.03066">
        <ele>496.6</ele>
        <time>2021-09-10T09:36:35Z</time>
      </trkpt>
      <trkpt lat="44.07846" lon="6.03068">
        <ele>496.7</ele>
        <time>2021-09-10T09:36:37Z</time>
      </trkpt>
      <trkpt lat="44.07846" lon="6.03069">
        <ele>496.8</ele>
        <time>2021-09-10T09:36:38Z</time>
      </trkpt>
      <trkpt lat="44.07846" lon="6.0307">
        <ele>496.8</ele>
        <time>2021-09-10T09:36:39Z</time>
      </trkpt>
      <trkpt lat="44.07846" lon="6.0307">
        <ele>496.9</ele>
        <time>2021-09-10T09:36:41Z</time>
      </trkpt>
      <trkpt lat="44.07846" lon="6.03071">
        <ele>496.9</ele>
        <time>2021-09-10T09:36:42Z</time>
      </trkpt>
      <trkpt lat="44.07846" lon="6.03071">
        <ele>496.9</ele>
        <time>2021-09-10T09:36:43Z</time>
      </trkpt>
      <trkpt lat="44.07846" lon="6.03071">
        <ele>496.9</ele>
        <time>2021-09-10T09:36:45Z</time>
      </trkpt>
      <trkpt lat="44.07846" lon="6.03072">
        <ele>497</ele>
        <time>2021-09-10T09:36:47Z</time>
      </trkpt>
      <trkpt lat="44.07847" lon="6.03074">
        <ele>497.1</ele>
        <time>2021-09-10T09:36:48Z</time>
      </trkpt>
      <trkpt lat="44.07848" lon="6.03076">
        <ele>497.3</ele>
        <time>2021-09-10T09:36:50Z</time>
      </trkpt>
      <trkpt lat="44.0785" lon="6.03077">
        <ele>497.5</ele>
        <time>2021-09-10T09:36:51Z</time>
      </trkpt>
      <trkpt lat="44.07851" lon="6.03079">
        <ele>497.5</ele>
        <time>2021-09-10T09:36:52Z</time>
      </trkpt>
      <trkpt lat="44.07852" lon="6.03082">
        <ele>497.6</ele>
        <time>2021-09-10T09:36:54Z</time>
      </trkpt>
      <trkpt lat="44.07854" lon="6.03084">
        <ele>497.6</ele>
        <time>2021-09-10T09:36:56Z</time>
      </trkpt>
      <trkpt lat="44.07857" lon="6.03088">
        <ele>497.8</ele>
        <time>2021-09-10T09:36:57Z</time>
      </trkpt>
      <trkpt lat="44.07858" lon="6.03089">
        <ele>497.8</ele>
        <time>2021-09-10T09:36:58Z</time>
      </trkpt>
      <trkpt lat="44.07861" lon="6.03094">
        <ele>498.3</ele>
        <time>2021-09-10T09:37:00Z</time>
      </trkpt>
      <trkpt lat="44.07864" lon="6.03098">
        <ele>498.1</ele>
        <time>2021-09-10T09:37:02Z</time>
      </trkpt>
      <trkpt lat="44.07866" lon="6.03101">
        <ele>498.4</ele>
        <time>2021-09-10T09:37:03Z</time>
      </trkpt>
      <trkpt lat="44.07868" lon="6.03107">
        <ele>499</ele>
        <time>2021-09-10T09:37:04Z</time>
      </trkpt>
      <trkpt lat="44.07868" lon="6.0311">
        <ele>499</ele>
        <time>2021-09-10T09:37:06Z</time>
      </trkpt>
      <trkpt lat="44.07868" lon="6.03112">
        <ele>499.3</ele>
        <time>2021-09-10T09:37:07Z</time>
      </trkpt>
      <trkpt lat="44.07868" lon="6.03114">
        <ele>499.3</ele>
        <time>2021-09-10T09:37:08Z</time>
      </trkpt>
      <trkpt lat="44.07868" lon="6.03116">
        <ele>499.7</ele>
        <time>2021-09-10T09:37:09Z</time>
      </trkpt>
      <trkpt lat="44.07869" lon="6.03119">
        <ele>500</ele>
        <time>2021-09-10T09:37:11Z</time>
      </trkpt>
      <trkpt lat="44.0787" lon="6.03125">
        <ele>500.4</ele>
        <time>2021-09-10T09:37:13Z</time>
      </trkpt>
      <trkpt lat="44.0787" lon="6.03132">
        <ele>501</ele>
        <time>2021-09-10T09:37:15Z</time>
      </trkpt>
      <trkpt lat="44.07872" lon="6.03136">
        <ele>500.9</ele>
        <time>2021-09-10T09:37:16Z</time>
      </trkpt>
      <trkpt lat="44.07872" lon="6.0314">
        <ele>501.2</ele>
        <time>2021-09-10T09:37:17Z</time>
      </trkpt>
      <trkpt lat="44.07872" lon="6.03144">
        <ele>501.4</ele>
        <time>2021-09-10T09:37:19Z</time>
      </trkpt>
      <trkpt lat="44.07872" lon="6.03145">
        <ele>501.6</ele>
        <time>2021-09-10T09:37:20Z</time>
      </trkpt>
      <trkpt lat="44.07871" lon="6.03151">
        <ele>502</ele>
        <time>2021-09-10T09:37:22Z</time>
      </trkpt>
      <trkpt lat="44.07871" lon="6.03152">
        <ele>502</ele>
        <time>2021-09-10T09:37:23Z</time>
      </trkpt>
      <trkpt lat="44.0787" lon="6.03157">
        <ele>502.2</ele>
        <time>2021-09-10T09:37:25Z</time>
      </trkpt>
      <trkpt lat="44.07869" lon="6.03159">
        <ele>502.4</ele>
        <time>2021-09-10T09:37:26Z</time>
      </trkpt>
      <trkpt lat="44.07867" lon="6.03164">
        <ele>502.7</ele>
        <time>2021-09-10T09:37:28Z</time>
      </trkpt>
      <trkpt lat="44.07866" lon="6.03167">
        <ele>502.9</ele>
        <time>2021-09-10T09:37:29Z</time>
      </trkpt>
      <trkpt lat="44.07865" lon="6.0317">
        <ele>503.1</ele>
        <time>2021-09-10T09:37:31Z</time>
      </trkpt>
      <trkpt lat="44.07864" lon="6.03171">
        <ele>503.1</ele>
        <time>2021-09-10T09:37:32Z</time>
      </trkpt>
      <trkpt lat="44.07863" lon="6.03173">
        <ele>503.2</ele>
        <time>2021-09-10T09:37:33Z</time>
      </trkpt>
      <trkpt lat="44.07862" lon="6.03174">
        <ele>503.3</ele>
        <time>2021-09-10T09:37:34Z</time>
      </trkpt>
      <trkpt lat="44.07863" lon="6.03176">
        <ele>503.4</ele>
        <time>2021-09-10T09:37:36Z</time>
      </trkpt>
      <trkpt lat="44.0786" lon="6.03177">
        <ele>503.6</ele>
        <time>2021-09-10T09:37:37Z</time>
      </trkpt>
      <trkpt lat="44.07858" lon="6.03178">
        <ele>503.7</ele>
        <time>2021-09-10T09:37:39Z</time>
      </trkpt>
      <trkpt lat="44.07856" lon="6.0318">
        <ele>503.8</ele>
        <time>2021-09-10T09:37:41Z</time>
      </trkpt>
      <trkpt lat="44.07853" lon="6.03181">
        <ele>503.9</ele>
        <time>2021-09-10T09:37:42Z</time>
      </trkpt>
      <trkpt lat="44.07852" lon="6.03182">
        <ele>504</ele>
        <time>2021-09-10T09:37:43Z</time>
      </trkpt>
      <trkpt lat="44.0785" lon="6.03183">
        <ele>504.1</ele>
        <time>2021-09-10T09:37:44Z</time>
      </trkpt>
      <trkpt lat="44.07849" lon="6.03184">
        <ele>504.2</ele>
        <time>2021-09-10T09:37:45Z</time>
      </trkpt>
      <trkpt lat="44.07846" lon="6.03185">
        <ele>504.3</ele>
        <time>2021-09-10T09:37:47Z</time>
      </trkpt>
      <trkpt lat="44.07844" lon="6.03185">
        <ele>504.4</ele>
        <time>2021-09-10T09:37:48Z</time>
      </trkpt>
      <trkpt lat="44.07841" lon="6.03186">
        <ele>504.6</ele>
        <time>2021-09-10T09:37:50Z</time>
      </trkpt>
      <trkpt lat="44.07838" lon="6.03187">
        <ele>504.7</ele>
        <time>2021-09-10T09:37:51Z</time>
      </trkpt>
      <trkpt lat="44.07836" lon="6.03188">
        <ele>504.8</ele>
        <time>2021-09-10T09:37:52Z</time>
      </trkpt>
      <trkpt lat="44.07832" lon="6.0319">
        <ele>504.9</ele>
        <time>2021-09-10T09:37:54Z</time>
      </trkpt>
      <trkpt lat="44.07829" lon="6.03193">
        <ele>505.1</ele>
        <time>2021-09-10T09:37:56Z</time>
      </trkpt>
      <trkpt lat="44.07825" lon="6.03195">
        <ele>505.3</ele>
        <time>2021-09-10T09:37:57Z</time>
      </trkpt>
      <trkpt lat="44.07822" lon="6.03196">
        <ele>505.4</ele>
        <time>2021-09-10T09:37:58Z</time>
      </trkpt>
      <trkpt lat="44.07819" lon="6.03198">
        <ele>505.5</ele>
        <time>2021-09-10T09:38:00Z</time>
      </trkpt>
      <trkpt lat="44.07815" lon="6.03202">
        <ele>505.7</ele>
        <time>2021-09-10T09:38:01Z</time>
      </trkpt>
      <trkpt lat="44.07813" lon="6.03205">
        <ele>505.8</ele>
        <time>2021-09-10T09:38:03Z</time>
      </trkpt>
      <trkpt lat="44.0781" lon="6.03206">
        <ele>505.9</ele>
        <time>2021-09-10T09:38:04Z</time>
      </trkpt>
      <trkpt lat="44.07806" lon="6.03208">
        <ele>506.1</ele>
        <time>2021-09-10T09:38:06Z</time>
      </trkpt>
      <trkpt lat="44.07803" lon="6.0321">
        <ele>506.4</ele>
        <time>2021-09-10T09:38:08Z</time>
      </trkpt>
      <trkpt lat="44.07801" lon="6.03211">
        <ele>506.7</ele>
        <time>2021-09-10T09:38:09Z</time>
      </trkpt>
      <trkpt lat="44.07799" lon="6.03212">
        <ele>506.8</ele>
        <time>2021-09-10T09:38:11Z</time>
      </trkpt>
      <trkpt lat="44.07799" lon="6.03213">
        <ele>506.9</ele>
        <time>2021-09-10T09:38:12Z</time>
      </trkpt>
      <trkpt lat="44.07798" lon="6.03214">
        <ele>506.9</ele>
        <time>2021-09-10T09:38:14Z</time>
      </trkpt>
      <trkpt lat="44.07797" lon="6.03215">
        <ele>507</ele>
        <time>2021-09-10T09:38:16Z</time>
      </trkpt>
      <trkpt lat="44.07796" lon="6.03217">
        <ele>507.2</ele>
        <time>2021-09-10T09:38:18Z</time>
      </trkpt>
      <trkpt lat="44.07796" lon="6.03218">
        <ele>507.3</ele>
        <time>2021-09-10T09:38:19Z</time>
      </trkpt>
      <trkpt lat="44.07792" lon="6.03226">
        <ele>507.9</ele>
        <time>2021-09-10T09:38:25Z</time>
      </trkpt>
      <trkpt lat="44.07791" lon="6.03229">
        <ele>508.2</ele>
        <time>2021-09-10T09:38:26Z</time>
      </trkpt>
      <trkpt lat="44.07789" lon="6.03233">
        <ele>508.5</ele>
        <time>2021-09-10T09:38:28Z</time>
      </trkpt>
      <trkpt lat="44.07785" lon="6.03235">
        <ele>509</ele>
        <time>2021-09-10T09:38:29Z</time>
      </trkpt>
      <trkpt lat="44.07781" lon="6.03237">
        <ele>509.3</ele>
        <time>2021-09-10T09:38:31Z</time>
      </trkpt>
      <trkpt lat="44.07781" lon="6.03238">
        <ele>509.3</ele>
        <time>2021-09-10T09:38:32Z</time>
      </trkpt>
      <trkpt lat="44.07781" lon="6.03238">
        <ele>509.3</ele>
        <time>2021-09-10T09:38:33Z</time>
      </trkpt>
      <trkpt lat="44.07782" lon="6.03238">
        <ele>509.4</ele>
        <time>2021-09-10T09:38:35Z</time>
      </trkpt>
      <trkpt lat="44.07782" lon="6.03239">
        <ele>509.4</ele>
        <time>2021-09-10T09:38:36Z</time>
      </trkpt>
      <trkpt lat="44.07781" lon="6.03239">
        <ele>509.4</ele>
        <time>2021-09-10T09:38:38Z</time>
      </trkpt>
      <trkpt lat="44.07781" lon="6.0324">
        <ele>509.4</ele>
        <time>2021-09-10T09:38:40Z</time>
      </trkpt>
      <trkpt lat="44.07781" lon="6.0324">
        <ele>509.5</ele>
        <time>2021-09-10T09:38:41Z</time>
      </trkpt>
      <trkpt lat="44.07746" lon="6.03243">
        <ele>512.6</ele>
        <time>2021-09-10T09:38:58Z</time>
      </trkpt>
      <trkpt lat="44.07744" lon="6.03243">
        <ele>512.8</ele>
        <time>2021-09-10T09:39:00Z</time>
      </trkpt>
      <trkpt lat="44.07742" lon="6.03243">
        <ele>513</ele>
        <time>2021-09-10T09:39:02Z</time>
      </trkpt>
      <trkpt lat="44.0774" lon="6.03243">
        <ele>513.1</ele>
        <time>2021-09-10T09:39:03Z</time>
      </trkpt>
      <trkpt lat="44.07739" lon="6.03243">
        <ele>513.2</ele>
        <time>2021-09-10T09:39:04Z</time>
      </trkpt>
      <trkpt lat="44.07738" lon="6.03243">
        <ele>513.3</ele>
        <time>2021-09-10T09:39:05Z</time>
      </trkpt>
      <trkpt lat="44.07737" lon="6.03243">
        <ele>513.4</ele>
        <time>2021-09-10T09:39:07Z</time>
      </trkpt>
      <trkpt lat="44.07735" lon="6.03244">
        <ele>513.6</ele>
        <time>2021-09-10T09:39:09Z</time>
      </trkpt>
      <trkpt lat="44.07734" lon="6.03246">
        <ele>513.7</ele>
        <time>2021-09-10T09:39:10Z</time>
      </trkpt>
      <trkpt lat="44.07734" lon="6.03246">
        <ele>513.8</ele>
        <time>2021-09-10T09:39:11Z</time>
      </trkpt>
      <trkpt lat="44.07732" lon="6.03247">
        <ele>514</ele>
        <time>2021-09-10T09:39:13Z</time>
      </trkpt>
      <trkpt lat="44.07729" lon="6.0325">
        <ele>514.3</ele>
        <time>2021-09-10T09:39:15Z</time>
      </trkpt>
      <trkpt lat="44.07728" lon="6.03251">
        <ele>514.5</ele>
        <time>2021-09-10T09:39:16Z</time>
      </trkpt>
      <trkpt lat="44.07725" lon="6.03256">
        <ele>514.9</ele>
        <time>2021-09-10T09:39:18Z</time>
      </trkpt>
      <trkpt lat="44.07725" lon="6.03262">
        <ele>515.2</ele>
        <time>2021-09-10T09:39:20Z</time>
      </trkpt>
      <trkpt lat="44.07724" lon="6.03266">
        <ele>515.6</ele>
        <time>2021-09-10T09:39:21Z</time>
      </trkpt>
      <trkpt lat="44.07722" lon="6.0327">
        <ele>515.9</ele>
        <time>2021-09-10T09:39:23Z</time>
      </trkpt>
      <trkpt lat="44.07722" lon="6.03272">
        <ele>516</ele>
        <time>2021-09-10T09:39:25Z</time>
      </trkpt>
      <trkpt lat="44.07722" lon="6.03272">
        <ele>516.1</ele>
        <time>2021-09-10T09:39:26Z</time>
      </trkpt>
      <trkpt lat="44.07722" lon="6.03273">
        <ele>516.1</ele>
        <time>2021-09-10T09:39:27Z</time>
      </trkpt>
      <trkpt lat="44.0772" lon="6.03275">
        <ele>516.3</ele>
        <time>2021-09-10T09:39:29Z</time>
      </trkpt>
      <trkpt lat="44.07719" lon="6.03276">
        <ele>516.5</ele>
        <time>2021-09-10T09:39:30Z</time>
      </trkpt>
      <trkpt lat="44.07717" lon="6.03277">
        <ele>516.6</ele>
        <time>2021-09-10T09:39:31Z</time>
      </trkpt>
      <trkpt lat="44.0771" lon="6.03282">
        <ele>517.4</ele>
        <time>2021-09-10T09:39:34Z</time>
      </trkpt>
      <trkpt lat="44.07705" lon="6.03283">
        <ele>517.9</ele>
        <time>2021-09-10T09:39:36Z</time>
      </trkpt>
      <trkpt lat="44.07701" lon="6.03283">
        <ele>518.3</ele>
        <time>2021-09-10T09:39:37Z</time>
      </trkpt>
      <trkpt lat="44.07699" lon="6.03283">
        <ele>518.5</ele>
        <time>2021-09-10T09:39:38Z</time>
      </trkpt>
      <trkpt lat="44.07696" lon="6.03281">
        <ele>518.8</ele>
        <time>2021-09-10T09:39:40Z</time>
      </trkpt>
      <trkpt lat="44.07692" lon="6.03281">
        <ele>519.1</ele>
        <time>2021-09-10T09:39:41Z</time>
      </trkpt>
      <trkpt lat="44.07687" lon="6.03282">
        <ele>519.6</ele>
        <time>2021-09-10T09:39:43Z</time>
      </trkpt>
      <trkpt lat="44.07683" lon="6.03284">
        <ele>520</ele>
        <time>2021-09-10T09:39:45Z</time>
      </trkpt>
      <trkpt lat="44.07681" lon="6.03286">
        <ele>520.2</ele>
        <time>2021-09-10T09:39:46Z</time>
      </trkpt>
      <trkpt lat="44.0768" lon="6.03287">
        <ele>520.3</ele>
        <time>2021-09-10T09:39:47Z</time>
      </trkpt>
      <trkpt lat="44.0768" lon="6.03288">
        <ele>520.4</ele>
        <time>2021-09-10T09:39:48Z</time>
      </trkpt>
      <trkpt lat="44.07676" lon="6.0329">
        <ele>520.8</ele>
        <time>2021-09-10T09:39:49Z</time>
      </trkpt>
      <trkpt lat="44.07674" lon="6.0329">
        <ele>521</ele>
        <time>2021-09-10T09:39:50Z</time>
      </trkpt>
      <trkpt lat="44.07671" lon="6.03293">
        <ele>521.3</ele>
        <time>2021-09-10T09:39:52Z</time>
      </trkpt>
      <trkpt lat="44.07667" lon="6.03295">
        <ele>521.8</ele>
        <time>2021-09-10T09:39:54Z</time>
      </trkpt>
      <trkpt lat="44.07664" lon="6.03298">
        <ele>522.1</ele>
        <time>2021-09-10T09:39:55Z</time>
      </trkpt>
      <trkpt lat="44.07663" lon="6.03299">
        <ele>522.2</ele>
        <time>2021-09-10T09:39:56Z</time>
      </trkpt>
      <trkpt lat="44.07661" lon="6.03302">
        <ele>522.5</ele>
        <time>2021-09-10T09:39:57Z</time>
      </trkpt>
      <trkpt lat="44.0766" lon="6.03304">
        <ele>522.8</ele>
        <time>2021-09-10T09:39:59Z</time>
      </trkpt>
      <trkpt lat="44.07659" lon="6.03304">
        <ele>522.8</ele>
        <time>2021-09-10T09:40:00Z</time>
      </trkpt>
      <trkpt lat="44.07658" lon="6.03305">
        <ele>522.9</ele>
        <time>2021-09-10T09:40:02Z</time>
      </trkpt>
      <trkpt lat="44.07658" lon="6.03305">
        <ele>523</ele>
        <time>2021-09-10T09:40:03Z</time>
      </trkpt>
      <trkpt lat="44.07658" lon="6.03305">
        <ele>523</ele>
        <time>2021-09-10T09:40:05Z</time>
      </trkpt>
      <trkpt lat="44.07657" lon="6.03305">
        <ele>523</ele>
        <time>2021-09-10T09:40:06Z</time>
      </trkpt>
      <trkpt lat="44.07657" lon="6.03305">
        <ele>523</ele>
        <time>2021-09-10T09:40:08Z</time>
      </trkpt>
      <trkpt lat="44.07645" lon="6.03304">
        <ele>524.2</ele>
        <time>2021-09-10T09:40:14Z</time>
      </trkpt>
      <trkpt lat="44.07641" lon="6.03303">
        <ele>524.7</ele>
        <time>2021-09-10T09:40:15Z</time>
      </trkpt>
      <trkpt lat="44.07637" lon="6.03301">
        <ele>525.1</ele>
        <time>2021-09-10T09:40:17Z</time>
      </trkpt>
      <trkpt lat="44.07634" lon="6.03297">
        <ele>525.5</ele>
        <time>2021-09-10T09:40:18Z</time>
      </trkpt>
      <trkpt lat="44.07633" lon="6.03295">
        <ele>525.7</ele>
        <time>2021-09-10T09:40:19Z</time>
      </trkpt>
      <trkpt lat="44.0763" lon="6.03292">
        <ele>526.1</ele>
        <time>2021-09-10T09:40:21Z</time>
      </trkpt>
      <trkpt lat="44.0763" lon="6.03291">
        <ele>526.2</ele>
        <time>2021-09-10T09:40:22Z</time>
      </trkpt>
      <trkpt lat="44.07629" lon="6.03291">
        <ele>526.2</ele>
        <time>2021-09-10T09:40:24Z</time>
      </trkpt>
      <trkpt lat="44.07629" lon="6.03291">
        <ele>526.3</ele>
        <time>2021-09-10T09:40:25Z</time>
      </trkpt>
      <trkpt lat="44.07629" lon="6.03291">
        <ele>526.3</ele>
        <time>2021-09-10T09:40:26Z</time>
      </trkpt>
      <trkpt lat="44.07629" lon="6.03291">
        <ele>526.3</ele>
        <time>2021-09-10T09:40:28Z</time>
      </trkpt>
      <trkpt lat="44.07629" lon="6.03291">
        <ele>526.3</ele>
        <time>2021-09-10T09:40:30Z</time>
      </trkpt>
      <trkpt lat="44.07629" lon="6.03291">
        <ele>526.3</ele>
        <time>2021-09-10T09:40:31Z</time>
      </trkpt>
      <trkpt lat="44.07628" lon="6.03291">
        <ele>526.4</ele>
        <time>2021-09-10T09:40:32Z</time>
      </trkpt>
      <trkpt lat="44.0757" lon="6.03292">
        <ele>533</ele>
        <time>2021-09-10T09:41:24Z</time>
      </trkpt>
      <trkpt lat="44.07566" lon="6.03292">
        <ele>533.3</ele>
        <time>2021-09-10T09:41:26Z</time>
      </trkpt>
      <trkpt lat="44.07565" lon="6.03292">
        <ele>533.4</ele>
        <time>2021-09-10T09:41:28Z</time>
      </trkpt>
      <trkpt lat="44.07565" lon="6.03292">
        <ele>533.5</ele>
        <time>2021-09-10T09:41:29Z</time>
      </trkpt>
      <trkpt lat="44.07564" lon="6.03292">
        <ele>533.6</ele>
        <time>2021-09-10T09:41:31Z</time>
      </trkpt>
      <trkpt lat="44.07563" lon="6.03292">
        <ele>533.7</ele>
        <time>2021-09-10T09:41:32Z</time>
      </trkpt>
      <trkpt lat="44.07561" lon="6.03292">
        <ele>533.9</ele>
        <time>2021-09-10T09:41:34Z</time>
      </trkpt>
      <trkpt lat="44.07559" lon="6.03292">
        <ele>534.1</ele>
        <time>2021-09-10T09:41:36Z</time>
      </trkpt>
      <trkpt lat="44.07557" lon="6.03293">
        <ele>534.3</ele>
        <time>2021-09-10T09:41:37Z</time>
      </trkpt>
      <trkpt lat="44.07556" lon="6.03295">
        <ele>534.5</ele>
        <time>2021-09-10T09:41:39Z</time>
      </trkpt>
      <trkpt lat="44.07555" lon="6.03297">
        <ele>534.7</ele>
        <time>2021-09-10T09:41:41Z</time>
      </trkpt>
      <trkpt lat="44.07551" lon="6.03302">
        <ele>535.2</ele>
        <time>2021-09-10T09:41:43Z</time>
      </trkpt>
      <trkpt lat="44.07548" lon="6.03309">
        <ele>535.8</ele>
        <time>2021-09-10T09:41:44Z</time>
      </trkpt>
      <trkpt lat="44.07546" lon="6.03314">
        <ele>536.2</ele>
        <time>2021-09-10T09:41:45Z</time>
      </trkpt>
      <trkpt lat="44.07544" lon="6.03319">
        <ele>536.6</ele>
        <time>2021-09-10T09:41:47Z</time>
      </trkpt>
      <trkpt lat="44.07542" lon="6.03325">
        <ele>537</ele>
        <time>2021-09-10T09:41:48Z</time>
      </trkpt>
      <trkpt lat="44.07541" lon="6.03329">
        <ele>537.3</ele>
        <time>2021-09-10T09:41:50Z</time>
      </trkpt>
      <trkpt lat="44.07541" lon="6.0333">
        <ele>537.4</ele>
        <time>2021-09-10T09:41:51Z</time>
      </trkpt>
      <trkpt lat="44.0754" lon="6.03332">
        <ele>537.5</ele>
        <time>2021-09-10T09:41:52Z</time>
      </trkpt>
      <trkpt lat="44.07539" lon="6.03333">
        <ele>537.6</ele>
        <time>2021-09-10T09:41:53Z</time>
      </trkpt>
      <trkpt lat="44.07538" lon="6.03335">
        <ele>537.8</ele>
        <time>2021-09-10T09:41:55Z</time>
      </trkpt>
      <trkpt lat="44.07538" lon="6.03336">
        <ele>537.9</ele>
        <time>2021-09-10T09:41:56Z</time>
      </trkpt>
      <trkpt lat="44.07537" lon="6.03337">
        <ele>538</ele>
        <time>2021-09-10T09:41:57Z</time>
      </trkpt>
      <trkpt lat="44.07537" lon="6.03339">
        <ele>538.1</ele>
        <time>2021-09-10T09:41:59Z</time>
      </trkpt>
      <trkpt lat="44.07537" lon="6.03339">
        <ele>538.1</ele>
        <time>2021-09-10T09:42:00Z</time>
      </trkpt>
      <trkpt lat="44.07537" lon="6.0334">
        <ele>538.1</ele>
        <time>2021-09-10T09:42:01Z</time>
      </trkpt>
      <trkpt lat="44.07536" lon="6.0334">
        <ele>538.2</ele>
        <time>2021-09-10T09:42:03Z</time>
      </trkpt>
      <trkpt lat="44.07521" lon="6.03355">
        <ele>540</ele>
        <time>2021-09-10T09:42:09Z</time>
      </trkpt>
      <trkpt lat="44.07514" lon="6.03363">
        <ele>540.9</ele>
        <time>2021-09-10T09:42:10Z</time>
      </trkpt>
      <trkpt lat="44.07512" lon="6.03367">
        <ele>541.3</ele>
        <time>2021-09-10T09:42:12Z</time>
      </trkpt>
      <trkpt lat="44.07511" lon="6.03368">
        <ele>541.4</ele>
        <time>2021-09-10T09:42:13Z</time>
      </trkpt>
      <trkpt lat="44.07508" lon="6.03372">
        <ele>541.8</ele>
        <time>2021-09-10T09:42:14Z</time>
      </trkpt>
      <trkpt lat="44.07507" lon="6.03373">
        <ele>541.9</ele>
        <time>2021-09-10T09:42:15Z</time>
      </trkpt>
      <trkpt lat="44.07506" lon="6.03374">
        <ele>542.1</ele>
        <time>2021-09-10T09:42:17Z</time>
      </trkpt>
      <trkpt lat="44.07505" lon="6.03376">
        <ele>542.2</ele>
        <time>2021-09-10T09:42:18Z</time>
      </trkpt>
      <trkpt lat="44.07503" lon="6.03378">
        <ele>542.4</ele>
        <time>2021-09-10T09:42:20Z</time>
      </trkpt>
      <trkpt lat="44.07503" lon="6.03379">
        <ele>542.5</ele>
        <time>2021-09-10T09:42:21Z</time>
      </trkpt>
      <trkpt lat="44.07502" lon="6.03382">
        <ele>542.7</ele>
        <time>2021-09-10T09:42:23Z</time>
      </trkpt>
      <trkpt lat="44.07502" lon="6.03382">
        <ele>542.7</ele>
        <time>2021-09-10T09:42:24Z</time>
      </trkpt>
      <trkpt lat="44.07503" lon="6.03382">
        <ele>542.8</ele>
        <time>2021-09-10T09:42:25Z</time>
      </trkpt>
      <trkpt lat="44.07503" lon="6.03382">
        <ele>542.8</ele>
        <time>2021-09-10T09:42:26Z</time>
      </trkpt>
      <trkpt lat="44.07503" lon="6.03383">
        <ele>542.8</ele>
        <time>2021-09-10T09:42:28Z</time>
      </trkpt>
      <trkpt lat="44.07503" lon="6.03383">
        <ele>542.8</ele>
        <time>2021-09-10T09:42:29Z</time>
      </trkpt>
      <trkpt lat="44.07499" lon="6.03391">
        <ele>543.5</ele>
        <time>2021-09-10T09:42:30Z</time>
      </trkpt>
      <trkpt lat="44.07495" lon="6.034">
        <ele>544.3</ele>
        <time>2021-09-10T09:42:31Z</time>
      </trkpt>
      <trkpt lat="44.07491" lon="6.03408">
        <ele>545</ele>
        <time>2021-09-10T09:42:32Z</time>
      </trkpt>
      <trkpt lat="44.07487" lon="6.03416">
        <ele>545.8</ele>
        <time>2021-09-10T09:42:34Z</time>
      </trkpt>
      <trkpt lat="44.07483" lon="6.03425">
        <ele>546.5</ele>
        <time>2021-09-10T09:43:24Z</time>
      </trkpt>
      <trkpt lat="44.07479" lon="6.03433">
        <ele>547.3</ele>
        <time>2021-09-10T09:43:25Z</time>
      </trkpt>
      <trkpt lat="44.07475" lon="6.03441">
        <ele>548</ele>
        <time>2021-09-10T09:43:26Z</time>
      </trkpt>
      <trkpt lat="44.07474" lon="6.03443">
        <ele>548.2</ele>
        <time>2021-09-10T09:43:27Z</time>
      </trkpt>
      <trkpt lat="44.07474" lon="6.03444">
        <ele>548.3</ele>
        <time>2021-09-10T09:43:28Z</time>
      </trkpt>
      <trkpt lat="44.07473" lon="6.03446">
        <ele>548.4</ele>
        <time>2021-09-10T09:43:30Z</time>
      </trkpt>
      <trkpt lat="44.07473" lon="6.03446">
        <ele>548.4</ele>
        <time>2021-09-10T09:43:31Z</time>
      </trkpt>
      <trkpt lat="44.07473" lon="6.03446">
        <ele>548.4</ele>
        <time>2021-09-10T09:43:33Z</time>
      </trkpt>
      <trkpt lat="44.07473" lon="6.03446">
        <ele>548.4</ele>
        <time>2021-09-10T09:43:34Z</time>
      </trkpt>
      <trkpt lat="44.07473" lon="6.03447">
        <ele>548.5</ele>
        <time>2021-09-10T09:43:35Z</time>
      </trkpt>
      <trkpt lat="44.07473" lon="6.03447">
        <ele>548.5</ele>
        <time>2021-09-10T09:43:36Z</time>
      </trkpt>
      <trkpt lat="44.07473" lon="6.03447">
        <ele>548.5</ele>
        <time>2021-09-10T09:43:38Z</time>
      </trkpt>
      <trkpt lat="44.07472" lon="6.0351">
        <ele>553.1</ele>
        <time>2021-09-10T09:44:12Z</time>
      </trkpt>
      <trkpt lat="44.07471" lon="6.03512">
        <ele>553.3</ele>
        <time>2021-09-10T09:44:13Z</time>
      </trkpt>
      <trkpt lat="44.07471" lon="6.03513">
        <ele>553.4</ele>
        <time>2021-09-10T09:44:15Z</time>
      </trkpt>
      <trkpt lat="44.07471" lon="6.03514">
        <ele>553.5</ele>
        <time>2021-09-10T09:44:16Z</time>
      </trkpt>
      <trkpt lat="44.07471" lon="6.03516">
        <ele>553.6</ele>
        <time>2021-09-10T09:44:17Z</time>
      </trkpt>
      <trkpt lat="44.0747" lon="6.03516">
        <ele>553.7</ele>
        <time>2021-09-10T09:44:18Z</time>
      </trkpt>
      <trkpt lat="44.0747" lon="6.03517">
        <ele>553.7</ele>
        <time>2021-09-10T09:44:20Z</time>
      </trkpt>
      <trkpt lat="44.0747" lon="6.03518">
        <ele>553.8</ele>
        <time>2021-09-10T09:44:21Z</time>
      </trkpt>
      <trkpt lat="44.07469" lon="6.03518">
        <ele>553.9</ele>
        <time>2021-09-10T09:44:23Z</time>
      </trkpt>
      <trkpt lat="44.07469" lon="6.03519">
        <ele>553.9</ele>
        <time>2021-09-10T09:44:24Z</time>
      </trkpt>
      <trkpt lat="44.07469" lon="6.03519">
        <ele>554</ele>
        <time>2021-09-10T09:44:25Z</time>
      </trkpt>
      <trkpt lat="44.07468" lon="6.0352">
        <ele>554</ele>
        <time>2021-09-10T09:44:26Z</time>
      </trkpt>
      <trkpt lat="44.07467" lon="6.03522">
        <ele>554.2</ele>
        <time>2021-09-10T09:44:28Z</time>
      </trkpt>
      <trkpt lat="44.07466" lon="6.03523">
        <ele>554.4</ele>
        <time>2021-09-10T09:44:29Z</time>
      </trkpt>
      <trkpt lat="44.07465" lon="6.03524">
        <ele>554.6</ele>
        <time>2021-09-10T09:44:30Z</time>
      </trkpt>
      <trkpt lat="44.07464" lon="6.03525">
        <ele>554.7</ele>
        <time>2021-09-10T09:44:31Z</time>
      </trkpt>
      <trkpt lat="44.07464" lon="6.03526">
        <ele>554.8</ele>
        <time>2021-09-10T09:44:32Z</time>
      </trkpt>
      <trkpt lat="44.07462" lon="6.03529">
        <ele>555.1</ele>
        <time>2021-09-10T09:44:34Z</time>
      </trkpt>
      <trkpt lat="44.07461" lon="6.0353">
        <ele>555.3</ele>
        <time>2021-09-10T09:44:35Z</time>
      </trkpt>
      <trkpt lat="44.0746" lon="6.03532">
        <ele>555.5</ele>
        <time>2021-09-10T09:44:36Z</time>
      </trkpt>
      <trkpt lat="44.07459" lon="6.03534">
        <ele>555.7</ele>
        <time>2021-09-10T09:44:37Z</time>
      </trkpt>
      <trkpt lat="44.07459" lon="6.03535">
        <ele>555.8</ele>
        <time>2021-09-10T09:44:39Z</time>
      </trkpt>
      <trkpt lat="44.07458" lon="6.03536">
        <ele>556</ele>
        <time>2021-09-10T09:44:40Z</time>
      </trkpt>
      <trkpt lat="44.07458" lon="6.03538">
        <ele>556.1</ele>
        <time>2021-09-10T09:44:41Z</time>
      </trkpt>
      <trkpt lat="44.07457" lon="6.03539">
        <ele>556.2</ele>
        <time>2021-09-10T09:44:43Z</time>
      </trkpt>
      <trkpt lat="44.07457" lon="6.03539">
        <ele>556.2</ele>
        <time>2021-09-10T09:44:44Z</time>
      </trkpt>
      <trkpt lat="44.07457" lon="6.0354">
        <ele>556.3</ele>
        <time>2021-09-10T09:44:45Z</time>
      </trkpt>
      <trkpt lat="44.07457" lon="6.0354">
        <ele>556.3</ele>
        <time>2021-09-10T09:44:46Z</time>
      </trkpt>
      <trkpt lat="44.07457" lon="6.0354">
        <ele>556.3</ele>
        <time>2021-09-10T09:44:48Z</time>
      </trkpt>
      <trkpt lat="44.07457" lon="6.03541">
        <ele>556.5</ele>
        <time>2021-09-10T09:44:49Z</time>
      </trkpt>
      <trkpt lat="44.07455" lon="6.03545">
        <ele>556.8</ele>
        <time>2021-09-10T09:44:50Z</time>
      </trkpt>
      <trkpt lat="44.07454" lon="6.03546">
        <ele>557</ele>
        <time>2021-09-10T09:44:51Z</time>
      </trkpt>
      <trkpt lat="44.07453" lon="6.03547">
        <ele>557.2</ele>
        <time>2021-09-10T09:44:53Z</time>
      </trkpt>
      <trkpt lat="44.07453" lon="6.03549">
        <ele>557.3</ele>
        <time>2021-09-10T09:44:54Z</time>
      </trkpt>
      <trkpt lat="44.07452" lon="6.0355">
        <ele>557.5</ele>
        <time>2021-09-10T09:44:55Z</time>
      </trkpt>
      <trkpt lat="44.07451" lon="6.03551">
        <ele>557.6</ele>
        <time>2021-09-10T09:44:56Z</time>
      </trkpt>
      <trkpt lat="44.07451" lon="6.03551">
        <ele>557.7</ele>
        <time>2021-09-10T09:44:58Z</time>
      </trkpt>
      <trkpt lat="44.07451" lon="6.03552">
        <ele>557.7</ele>
        <time>2021-09-10T09:44:59Z</time>
      </trkpt>
      <trkpt lat="44.0745" lon="6.03552">
        <ele>557.8</ele>
        <time>2021-09-10T09:45:00Z</time>
      </trkpt>
      <trkpt lat="44.0745" lon="6.03553">
        <ele>557.9</ele>
        <time>2021-09-10T09:45:01Z</time>
      </trkpt>
      <trkpt lat="44.07449" lon="6.03556">
        <ele>558.2</ele>
        <time>2021-09-10T09:45:02Z</time>
      </trkpt>
      <trkpt lat="44.07447" lon="6.03559">
        <ele>558.6</ele>
        <time>2021-09-10T09:45:04Z</time>
      </trkpt>
      <trkpt lat="44.07447" lon="6.0356">
        <ele>558.7</ele>
        <time>2021-09-10T09:45:05Z</time>
      </trkpt>
      <trkpt lat="44.07446" lon="6.03561">
        <ele>558.9</ele>
        <time>2021-09-10T09:45:06Z</time>
      </trkpt>
      <trkpt lat="44.07445" lon="6.03563">
        <ele>559.1</ele>
        <time>2021-09-10T09:45:07Z</time>
      </trkpt>
      <trkpt lat="44.07445" lon="6.03564">
        <ele>559.2</ele>
        <time>2021-09-10T09:45:09Z</time>
      </trkpt>
      <trkpt lat="44.07444" lon="6.03565">
        <ele>559.3</ele>
        <time>2021-09-10T09:45:11Z</time>
      </trkpt>
      <trkpt lat="44.07444" lon="6.03565">
        <ele>559.4</ele>
        <time>2021-09-10T09:45:12Z</time>
      </trkpt>
      <trkpt lat="44.07444" lon="6.03566">
        <ele>559.4</ele>
        <time>2021-09-10T09:45:13Z</time>
      </trkpt>
      <trkpt lat="44.07443" lon="6.03566">
        <ele>559.5</ele>
        <time>2021-09-10T09:45:14Z</time>
      </trkpt>
      <trkpt lat="44.07443" lon="6.03567">
        <ele>559.6</ele>
        <time>2021-09-10T09:45:16Z</time>
      </trkpt>
      <trkpt lat="44.07441" lon="6.03569">
        <ele>559.9</ele>
        <time>2021-09-10T09:45:17Z</time>
      </trkpt>
      <trkpt lat="44.0744" lon="6.03571">
        <ele>560.1</ele>
        <time>2021-09-10T09:45:18Z</time>
      </trkpt>
      <trkpt lat="44.07439" lon="6.03574">
        <ele>560.5</ele>
        <time>2021-09-10T09:45:20Z</time>
      </trkpt>
      <trkpt lat="44.07438" lon="6.03579">
        <ele>561</ele>
        <time>2021-09-10T09:45:21Z</time>
      </trkpt>
      <trkpt lat="44.07437" lon="6.03581">
        <ele>561.2</ele>
        <time>2021-09-10T09:45:23Z</time>
      </trkpt>
      <trkpt lat="44.07437" lon="6.03583">
        <ele>561.5</ele>
        <time>2021-09-10T09:45:24Z</time>
      </trkpt>
      <trkpt lat="44.07436" lon="6.03584">
        <ele>561.6</ele>
        <time>2021-09-10T09:45:25Z</time>
      </trkpt>
      <trkpt lat="44.07436" lon="6.03588">
        <ele>562</ele>
        <time>2021-09-10T09:45:27Z</time>
      </trkpt>
      <trkpt lat="44.07436" lon="6.03591">
        <ele>562.3</ele>
        <time>2021-09-10T09:45:28Z</time>
      </trkpt>
      <trkpt lat="44.07436" lon="6.03593">
        <ele>562.5</ele>
        <time>2021-09-10T09:45:29Z</time>
      </trkpt>
      <trkpt lat="44.07436" lon="6.03596">
        <ele>562.8</ele>
        <time>2021-09-10T09:45:31Z</time>
      </trkpt>
      <trkpt lat="44.07436" lon="6.03597">
        <ele>562.9</ele>
        <time>2021-09-10T09:45:32Z</time>
      </trkpt>
      <trkpt lat="44.07436" lon="6.03598">
        <ele>563</ele>
        <time>2021-09-10T09:45:33Z</time>
      </trkpt>
      <trkpt lat="44.07436" lon="6.03602">
        <ele>563.4</ele>
        <time>2021-09-10T09:45:34Z</time>
      </trkpt>
      <trkpt lat="44.07435" lon="6.03603">
        <ele>563.5</ele>
        <time>2021-09-10T09:45:36Z</time>
      </trkpt>
      <trkpt lat="44.07435" lon="6.03605">
        <ele>563.7</ele>
        <time>2021-09-10T09:45:37Z</time>
      </trkpt>
      <trkpt lat="44.07435" lon="6.03606">
        <ele>563.8</ele>
        <time>2021-09-10T09:45:39Z</time>
      </trkpt>
      <trkpt lat="44.07434" lon="6.03608">
        <ele>564</ele>
        <time>2021-09-10T09:45:41Z</time>
      </trkpt>
      <trkpt lat="44.07434" lon="6.03609">
        <ele>564.1</ele>
        <time>2021-09-10T09:45:42Z</time>
      </trkpt>
      <trkpt lat="44.07434" lon="6.03611">
        <ele>564.3</ele>
        <time>2021-09-10T09:45:44Z</time>
      </trkpt>
      <trkpt lat="44.07433" lon="6.03612">
        <ele>564.4</ele>
        <time>2021-09-10T09:45:45Z</time>
      </trkpt>
      <trkpt lat="44.07433" lon="6.03614">
        <ele>564.6</ele>
        <time>2021-09-10T09:45:46Z</time>
      </trkpt>
      <trkpt lat="44.07432" lon="6.03615">
        <ele>564.7</ele>
        <time>2021-09-10T09:45:48Z</time>
      </trkpt>
      <trkpt lat="44.07432" lon="6.03616">
        <ele>564.8</ele>
        <time>2021-09-10T09:45:49Z</time>
      </trkpt>
      <trkpt lat="44.07432" lon="6.03618">
        <ele>565</ele>
        <time>2021-09-10T09:45:51Z</time>
      </trkpt>
      <trkpt lat="44.07432" lon="6.03618">
        <ele>565</ele>
        <time>2021-09-10T09:45:52Z</time>
      </trkpt>
      <trkpt lat="44.07432" lon="6.03619">
        <ele>565.1</ele>
        <time>2021-09-10T09:45:54Z</time>
      </trkpt>
      <trkpt lat="44.07432" lon="6.03619">
        <ele>565.1</ele>
        <time>2021-09-10T09:45:55Z</time>
      </trkpt>
      <trkpt lat="44.07432" lon="6.0362">
        <ele>565.1</ele>
        <time>2021-09-10T09:45:56Z</time>
      </trkpt>
      <trkpt lat="44.07432" lon="6.0362">
        <ele>565.1</ele>
        <time>2021-09-10T09:45:57Z</time>
      </trkpt>
      <trkpt lat="44.07432" lon="6.0362">
        <ele>565.2</ele>
        <time>2021-09-10T09:45:58Z</time>
      </trkpt>
      <trkpt lat="44.07433" lon="6.03622">
        <ele>565.4</ele>
        <time>2021-09-10T09:46:00Z</time>
      </trkpt>
      <trkpt lat="44.07434" lon="6.03624">
        <ele>565.6</ele>
        <time>2021-09-10T09:46:01Z</time>
      </trkpt>
      <trkpt lat="44.07435" lon="6.03626">
        <ele>565.9</ele>
        <time>2021-09-10T09:46:02Z</time>
      </trkpt>
      <trkpt lat="44.07436" lon="6.03627">
        <ele>566</ele>
        <time>2021-09-10T09:46:04Z</time>
      </trkpt>
      <trkpt lat="44.07437" lon="6.03628">
        <ele>566.1</ele>
        <time>2021-09-10T09:46:05Z</time>
      </trkpt>
      <trkpt lat="44.07438" lon="6.03629">
        <ele>566.3</ele>
        <time>2021-09-10T09:46:07Z</time>
      </trkpt>
      <trkpt lat="44.07439" lon="6.0363">
        <ele>566.4</ele>
        <time>2021-09-10T09:46:08Z</time>
      </trkpt>
      <trkpt lat="44.0744" lon="6.03631">
        <ele>566.5</ele>
        <time>2021-09-10T09:46:10Z</time>
      </trkpt>
      <trkpt lat="44.07441" lon="6.03632">
        <ele>566.7</ele>
        <time>2021-09-10T09:46:11Z</time>
      </trkpt>
      <trkpt lat="44.07442" lon="6.03633">
        <ele>566.8</ele>
        <time>2021-09-10T09:46:12Z</time>
      </trkpt>
      <trkpt lat="44.07444" lon="6.03633">
        <ele>567</ele>
        <time>2021-09-10T09:46:13Z</time>
      </trkpt>
      <trkpt lat="44.07446" lon="6.03634">
        <ele>567.2</ele>
        <time>2021-09-10T09:46:15Z</time>
      </trkpt>
      <trkpt lat="44.07448" lon="6.03635">
        <ele>567.5</ele>
        <time>2021-09-10T09:46:16Z</time>
      </trkpt>
      <trkpt lat="44.07451" lon="6.03637">
        <ele>567.9</ele>
        <time>2021-09-10T09:46:17Z</time>
      </trkpt>
      <trkpt lat="44.07454" lon="6.0364">
        <ele>568.3</ele>
        <time>2021-09-10T09:46:19Z</time>
      </trkpt>
      <trkpt lat="44.07456" lon="6.03641">
        <ele>568.5</ele>
        <time>2021-09-10T09:46:20Z</time>
      </trkpt>
      <trkpt lat="44.07459" lon="6.03642">
        <ele>568.7</ele>
        <time>2021-09-10T09:46:22Z</time>
      </trkpt>
      <trkpt lat="44.07461" lon="6.03643">
        <ele>569</ele>
        <time>2021-09-10T09:46:23Z</time>
      </trkpt>
      <trkpt lat="44.07462" lon="6.03643">
        <ele>569</ele>
        <time>2021-09-10T09:46:24Z</time>
      </trkpt>
      <trkpt lat="44.07463" lon="6.03643">
        <ele>569.1</ele>
        <time>2021-09-10T09:46:25Z</time>
      </trkpt>
      <trkpt lat="44.07464" lon="6.03642">
        <ele>569.3</ele>
        <time>2021-09-10T09:46:27Z</time>
      </trkpt>
      <trkpt lat="44.07466" lon="6.03641">
        <ele>569.5</ele>
        <time>2021-09-10T09:46:28Z</time>
      </trkpt>
      <trkpt lat="44.07467" lon="6.0364">
        <ele>569.6</ele>
        <time>2021-09-10T09:46:29Z</time>
      </trkpt>
      <trkpt lat="44.07468" lon="6.03637">
        <ele>569.8</ele>
        <time>2021-09-10T09:46:30Z</time>
      </trkpt>
      <trkpt lat="44.07469" lon="6.03635">
        <ele>569.9</ele>
        <time>2021-09-10T09:46:32Z</time>
      </trkpt>
      <trkpt lat="44.0747" lon="6.03633">
        <ele>570.1</ele>
        <time>2021-09-10T09:46:33Z</time>
      </trkpt>
      <trkpt lat="44.0747" lon="6.03632">
        <ele>570.2</ele>
        <time>2021-09-10T09:46:34Z</time>
      </trkpt>
      <trkpt lat="44.07471" lon="6.0363">
        <ele>570.3</ele>
        <time>2021-09-10T09:46:35Z</time>
      </trkpt>
      <trkpt lat="44.07473" lon="6.03629">
        <ele>570.5</ele>
        <time>2021-09-10T09:46:37Z</time>
      </trkpt>
      <trkpt lat="44.07473" lon="6.03628">
        <ele>570.5</ele>
        <time>2021-09-10T09:46:38Z</time>
      </trkpt>
      <trkpt lat="44.07473" lon="6.03627">
        <ele>570.6</ele>
        <time>2021-09-10T09:46:39Z</time>
      </trkpt>
      <trkpt lat="44.07474" lon="6.03626">
        <ele>570.7</ele>
        <time>2021-09-10T09:46:41Z</time>
      </trkpt>
      <trkpt lat="44.07476" lon="6.03624">
        <ele>570.8</ele>
        <time>2021-09-10T09:46:42Z</time>
      </trkpt>
      <trkpt lat="44.07478" lon="6.03622">
        <ele>571.1</ele>
        <time>2021-09-10T09:46:43Z</time>
      </trkpt>
      <trkpt lat="44.07479" lon="6.03621">
        <ele>571.1</ele>
        <time>2021-09-10T09:46:44Z</time>
      </trkpt>
      <trkpt lat="44.07481" lon="6.0362">
        <ele>571.3</ele>
        <time>2021-09-10T09:46:45Z</time>
      </trkpt>
      <trkpt lat="44.07483" lon="6.03619">
        <ele>571.4</ele>
        <time>2021-09-10T09:46:47Z</time>
      </trkpt>
      <trkpt lat="44.07484" lon="6.03618">
        <ele>571.6</ele>
        <time>2021-09-10T09:46:48Z</time>
      </trkpt>
      <trkpt lat="44.07486" lon="6.03617">
        <ele>571.7</ele>
        <time>2021-09-10T09:46:49Z</time>
      </trkpt>
      <trkpt lat="44.07487" lon="6.03616">
        <ele>571.8</ele>
        <time>2021-09-10T09:46:50Z</time>
      </trkpt>
      <trkpt lat="44.07488" lon="6.03615">
        <ele>571.9</ele>
        <time>2021-09-10T09:46:52Z</time>
      </trkpt>
      <trkpt lat="44.07489" lon="6.03615">
        <ele>572</ele>
        <time>2021-09-10T09:46:53Z</time>
      </trkpt>
      <trkpt lat="44.07489" lon="6.03614">
        <ele>572</ele>
        <time>2021-09-10T09:46:54Z</time>
      </trkpt>
      <trkpt lat="44.0749" lon="6.03613">
        <ele>572.1</ele>
        <time>2021-09-10T09:46:55Z</time>
      </trkpt>
      <trkpt lat="44.0749" lon="6.03613">
        <ele>572.1</ele>
        <time>2021-09-10T09:46:56Z</time>
      </trkpt>
      <trkpt lat="44.07491" lon="6.03612">
        <ele>572.2</ele>
        <time>2021-09-10T09:46:58Z</time>
      </trkpt>
      <trkpt lat="44.07492" lon="6.03612">
        <ele>572.3</ele>
        <time>2021-09-10T09:46:59Z</time>
      </trkpt>
      <trkpt lat="44.07494" lon="6.03611">
        <ele>572.5</ele>
        <time>2021-09-10T09:47:00Z</time>
      </trkpt>
      <trkpt lat="44.07496" lon="6.0361">
        <ele>572.6</ele>
        <time>2021-09-10T09:47:01Z</time>
      </trkpt>
      <trkpt lat="44.07497" lon="6.0361">
        <ele>572.7</ele>
        <time>2021-09-10T09:47:03Z</time>
      </trkpt>
      <trkpt lat="44.07498" lon="6.0361">
        <ele>572.8</ele>
        <time>2021-09-10T09:47:04Z</time>
      </trkpt>
      <trkpt lat="44.075" lon="6.03609">
        <ele>573</ele>
        <time>2021-09-10T09:47:05Z</time>
      </trkpt>
      <trkpt lat="44.07501" lon="6.03609">
        <ele>573.1</ele>
        <time>2021-09-10T09:47:07Z</time>
      </trkpt>
      <trkpt lat="44.07503" lon="6.03608">
        <ele>573.2</ele>
        <time>2021-09-10T09:47:08Z</time>
      </trkpt>
      <trkpt lat="44.07504" lon="6.03607">
        <ele>573.4</ele>
        <time>2021-09-10T09:47:09Z</time>
      </trkpt>
      <trkpt lat="44.07506" lon="6.03606">
        <ele>573.5</ele>
        <time>2021-09-10T09:47:11Z</time>
      </trkpt>
      <trkpt lat="44.07506" lon="6.03606">
        <ele>573.5</ele>
        <time>2021-09-10T09:47:12Z</time>
      </trkpt>
      <trkpt lat="44.07506" lon="6.03604">
        <ele>573.6</ele>
        <time>2021-09-10T09:47:14Z</time>
      </trkpt>
      <trkpt lat="44.07508" lon="6.03601">
        <ele>573.8</ele>
        <time>2021-09-10T09:47:15Z</time>
      </trkpt>
      <trkpt lat="44.07509" lon="6.036">
        <ele>574</ele>
        <time>2021-09-10T09:47:17Z</time>
      </trkpt>
      <trkpt lat="44.07511" lon="6.03597">
        <ele>574.2</ele>
        <time>2021-09-10T09:47:18Z</time>
      </trkpt>
      <trkpt lat="44.07512" lon="6.03597">
        <ele>574.2</ele>
        <time>2021-09-10T09:47:19Z</time>
      </trkpt>
      <trkpt lat="44.07514" lon="6.03596">
        <ele>574.4</ele>
        <time>2021-09-10T09:47:20Z</time>
      </trkpt>
      <trkpt lat="44.07515" lon="6.03596">
        <ele>574.5</ele>
        <time>2021-09-10T09:47:21Z</time>
      </trkpt>
      <trkpt lat="44.07516" lon="6.03596">
        <ele>574.5</ele>
        <time>2021-09-10T09:47:23Z</time>
      </trkpt>
      <trkpt lat="44.07517" lon="6.03596">
        <ele>574.6</ele>
        <time>2021-09-10T09:47:24Z</time>
      </trkpt>
      <trkpt lat="44.07517" lon="6.03596">
        <ele>574.6</ele>
        <time>2021-09-10T09:47:25Z</time>
      </trkpt>
      <trkpt lat="44.07517" lon="6.03596">
        <ele>574.6</ele>
        <time>2021-09-10T09:47:26Z</time>
      </trkpt>
      <trkpt lat="44.07518" lon="6.03596">
        <ele>574.7</ele>
        <time>2021-09-10T09:47:28Z</time>
      </trkpt>
      <trkpt lat="44.07519" lon="6.03595">
        <ele>574.8</ele>
        <time>2021-09-10T09:47:29Z</time>
      </trkpt>
      <trkpt lat="44.0752" lon="6.03594">
        <ele>574.9</ele>
        <time>2021-09-10T09:47:30Z</time>
      </trkpt>
      <trkpt lat="44.07523" lon="6.03586">
        <ele>575.2</ele>
        <time>2021-09-10T09:47:34Z</time>
      </trkpt>
      <trkpt lat="44.07525" lon="6.03582">
        <ele>575.5</ele>
        <time>2021-09-10T09:47:35Z</time>
      </trkpt>
      <trkpt lat="44.07526" lon="6.03581">
        <ele>575.5</ele>
        <time>2021-09-10T09:47:36Z</time>
      </trkpt>
      <trkpt lat="44.07526" lon="6.03576">
        <ele>575.7</ele>
        <time>2021-09-10T09:47:37Z</time>
      </trkpt>
      <trkpt lat="44.07526" lon="6.03575">
        <ele>575.8</ele>
        <time>2021-09-10T09:47:38Z</time>
      </trkpt>
      <trkpt lat="44.07526" lon="6.03572">
        <ele>575.9</ele>
        <time>2021-09-10T09:47:40Z</time>
      </trkpt>
      <trkpt lat="44.07526" lon="6.03571">
        <ele>576</ele>
        <time>2021-09-10T09:47:41Z</time>
      </trkpt>
      <trkpt lat="44.07525" lon="6.0357">
        <ele>576</ele>
        <time>2021-09-10T09:47:42Z</time>
      </trkpt>
      <trkpt lat="44.07525" lon="6.03568">
        <ele>576.1</ele>
        <time>2021-09-10T09:47:43Z</time>
      </trkpt>
      <trkpt lat="44.07526" lon="6.03565">
        <ele>576.2</ele>
        <time>2021-09-10T09:47:44Z</time>
      </trkpt>
      <trkpt lat="44.07527" lon="6.03561">
        <ele>576.5</ele>
        <time>2021-09-10T09:47:46Z</time>
      </trkpt>
      <trkpt lat="44.07527" lon="6.0356">
        <ele>576.5</ele>
        <time>2021-09-10T09:47:47Z</time>
      </trkpt>
      <trkpt lat="44.07528" lon="6.03555">
        <ele>576.8</ele>
        <time>2021-09-10T09:47:49Z</time>
      </trkpt>
      <trkpt lat="44.07528" lon="6.03553">
        <ele>576.8</ele>
        <time>2021-09-10T09:47:50Z</time>
      </trkpt>
      <trkpt lat="44.07529" lon="6.03551">
        <ele>576.9</ele>
        <time>2021-09-10T09:47:51Z</time>
      </trkpt>
      <trkpt lat="44.07529" lon="6.0355">
        <ele>577</ele>
        <time>2021-09-10T09:47:52Z</time>
      </trkpt>
      <trkpt lat="44.07529" lon="6.0355">
        <ele>577</ele>
        <time>2021-09-10T09:47:54Z</time>
      </trkpt>
      <trkpt lat="44.07529" lon="6.03549">
        <ele>577</ele>
        <time>2021-09-10T09:47:55Z</time>
      </trkpt>
      <trkpt lat="44.07529" lon="6.0355">
        <ele>577</ele>
        <time>2021-09-10T09:47:56Z</time>
      </trkpt>
      <trkpt lat="44.07529" lon="6.0355">
        <ele>577</ele>
        <time>2021-09-10T09:47:57Z</time>
      </trkpt>
      <trkpt lat="44.07529" lon="6.03549">
        <ele>577.1</ele>
        <time>2021-09-10T09:47:59Z</time>
      </trkpt>
      <trkpt lat="44.0753" lon="6.03547">
        <ele>577.2</ele>
        <time>2021-09-10T09:48:00Z</time>
      </trkpt>
      <trkpt lat="44.07532" lon="6.03544">
        <ele>577.4</ele>
        <time>2021-09-10T09:48:01Z</time>
      </trkpt>
      <trkpt lat="44.07533" lon="6.03543">
        <ele>577.4</ele>
        <time>2021-09-10T09:48:03Z</time>
      </trkpt>
      <trkpt lat="44.07534" lon="6.03542">
        <ele>577.5</ele>
        <time>2021-09-10T09:48:04Z</time>
      </trkpt>
      <trkpt lat="44.07536" lon="6.0354">
        <ele>577.7</ele>
        <time>2021-09-10T09:48:06Z</time>
      </trkpt>
      <trkpt lat="44.07536" lon="6.0354">
        <ele>577.7</ele>
        <time>2021-09-10T09:48:06Z</time>
      </trkpt>
      <trkpt lat="44.07538" lon="6.03536">
        <ele>578</ele>
        <time>2021-09-10T09:48:07Z</time>
      </trkpt>
      <trkpt lat="44.0754" lon="6.03534">
        <ele>578.1</ele>
        <time>2021-09-10T09:48:09Z</time>
      </trkpt>
      <trkpt lat="44.07541" lon="6.03533">
        <ele>578.2</ele>
        <time>2021-09-10T09:48:10Z</time>
      </trkpt>
      <trkpt lat="44.07544" lon="6.03532">
        <ele>578.5</ele>
        <time>2021-09-10T09:48:11Z</time>
      </trkpt>
      <trkpt lat="44.07545" lon="6.03531">
        <ele>578.6</ele>
        <time>2021-09-10T09:48:12Z</time>
      </trkpt>
      <trkpt lat="44.07547" lon="6.03531">
        <ele>578.7</ele>
        <time>2021-09-10T09:48:14Z</time>
      </trkpt>
      <trkpt lat="44.07548" lon="6.03531">
        <ele>578.8</ele>
        <time>2021-09-10T09:48:15Z</time>
      </trkpt>
      <trkpt lat="44.07549" lon="6.03531">
        <ele>578.9</ele>
        <time>2021-09-10T09:48:16Z</time>
      </trkpt>
      <trkpt lat="44.07551" lon="6.0353">
        <ele>579</ele>
        <time>2021-09-10T09:48:17Z</time>
      </trkpt>
      <trkpt lat="44.07551" lon="6.0353">
        <ele>579.1</ele>
        <time>2021-09-10T09:48:18Z</time>
      </trkpt>
      <trkpt lat="44.07553" lon="6.0353">
        <ele>579.2</ele>
        <time>2021-09-10T09:48:20Z</time>
      </trkpt>
      <trkpt lat="44.07553" lon="6.03529">
        <ele>579.3</ele>
        <time>2021-09-10T09:48:21Z</time>
      </trkpt>
      <trkpt lat="44.07554" lon="6.03529">
        <ele>579.3</ele>
        <time>2021-09-10T09:48:22Z</time>
      </trkpt>
      <trkpt lat="44.07554" lon="6.03529">
        <ele>579.4</ele>
        <time>2021-09-10T09:48:23Z</time>
      </trkpt>
      <trkpt lat="44.07555" lon="6.03528">
        <ele>579.4</ele>
        <time>2021-09-10T09:48:24Z</time>
      </trkpt>
      <trkpt lat="44.07557" lon="6.03527">
        <ele>579.6</ele>
        <time>2021-09-10T09:48:26Z</time>
      </trkpt>
      <trkpt lat="44.07558" lon="6.03527">
        <ele>579.7</ele>
        <time>2021-09-10T09:48:27Z</time>
      </trkpt>
      <trkpt lat="44.0756" lon="6.03527">
        <ele>579.9</ele>
        <time>2021-09-10T09:48:28Z</time>
      </trkpt>
      <trkpt lat="44.07562" lon="6.03527">
        <ele>580</ele>
        <time>2021-09-10T09:48:30Z</time>
      </trkpt>
      <trkpt lat="44.07563" lon="6.03526">
        <ele>580.1</ele>
        <time>2021-09-10T09:48:31Z</time>
      </trkpt>
      <trkpt lat="44.07565" lon="6.03526">
        <ele>580.3</ele>
        <time>2021-09-10T09:48:32Z</time>
      </trkpt>
      <trkpt lat="44.07567" lon="6.03527">
        <ele>580.4</ele>
        <time>2021-09-10T09:48:33Z</time>
      </trkpt>
      <trkpt lat="44.07568" lon="6.03527">
        <ele>580.5</ele>
        <time>2021-09-10T09:48:34Z</time>
      </trkpt>
      <trkpt lat="44.0757" lon="6.03526">
        <ele>580.6</ele>
        <time>2021-09-10T09:48:36Z</time>
      </trkpt>
      <trkpt lat="44.07571" lon="6.03526">
        <ele>580.7</ele>
        <time>2021-09-10T09:48:37Z</time>
      </trkpt>
      <trkpt lat="44.07572" lon="6.03526">
        <ele>580.9</ele>
        <time>2021-09-10T09:48:38Z</time>
      </trkpt>
      <trkpt lat="44.07574" lon="6.03524">
        <ele>581</ele>
        <time>2021-09-10T09:48:39Z</time>
      </trkpt>
      <trkpt lat="44.07575" lon="6.03523">
        <ele>581.1</ele>
        <time>2021-09-10T09:48:41Z</time>
      </trkpt>
      <trkpt lat="44.07576" lon="6.03521">
        <ele>581.2</ele>
        <time>2021-09-10T09:48:42Z</time>
      </trkpt>
      <trkpt lat="44.07578" lon="6.0352">
        <ele>581.4</ele>
        <time>2021-09-10T09:48:43Z</time>
      </trkpt>
      <trkpt lat="44.07579" lon="6.03519">
        <ele>581.5</ele>
        <time>2021-09-10T09:48:45Z</time>
      </trkpt>
      <trkpt lat="44.07579" lon="6.03519">
        <ele>581.5</ele>
        <time>2021-09-10T09:48:47Z</time>
      </trkpt>
      <trkpt lat="44.0758" lon="6.03518">
        <ele>581.6</ele>
        <time>2021-09-10T09:48:48Z</time>
      </trkpt>
      <trkpt lat="44.07581" lon="6.03518">
        <ele>581.6</ele>
        <time>2021-09-10T09:48:49Z</time>
      </trkpt>
      <trkpt lat="44.07581" lon="6.03517">
        <ele>581.7</ele>
        <time>2021-09-10T09:48:50Z</time>
      </trkpt>
      <trkpt lat="44.07582" lon="6.03517">
        <ele>581.7</ele>
        <time>2021-09-10T09:48:51Z</time>
      </trkpt>
      <trkpt lat="44.07584" lon="6.03515">
        <ele>582</ele>
        <time>2021-09-10T09:48:52Z</time>
      </trkpt>
      <trkpt lat="44.07585" lon="6.03514">
        <ele>582</ele>
        <time>2021-09-10T09:48:54Z</time>
      </trkpt>
      <trkpt lat="44.07586" lon="6.03513">
        <ele>582.1</ele>
        <time>2021-09-10T09:48:55Z</time>
      </trkpt>
      <trkpt lat="44.07586" lon="6.03513">
        <ele>582.2</ele>
        <time>2021-09-10T09:48:56Z</time>
      </trkpt>
      <trkpt lat="44.07587" lon="6.03512">
        <ele>582.2</ele>
        <time>2021-09-10T09:48:58Z</time>
      </trkpt>
      <trkpt lat="44.07588" lon="6.03511">
        <ele>582.3</ele>
        <time>2021-09-10T09:48:59Z</time>
      </trkpt>
      <trkpt lat="44.07588" lon="6.0351">
        <ele>582.4</ele>
        <time>2021-09-10T09:49:00Z</time>
      </trkpt>
      <trkpt lat="44.07589" lon="6.03509">
        <ele>582.4</ele>
        <time>2021-09-10T09:49:02Z</time>
      </trkpt>
      <trkpt lat="44.0759" lon="6.03508">
        <ele>582.5</ele>
        <time>2021-09-10T09:49:03Z</time>
      </trkpt>
      <trkpt lat="44.0759" lon="6.03508">
        <ele>582.6</ele>
        <time>2021-09-10T09:49:04Z</time>
      </trkpt>
      <trkpt lat="44.07592" lon="6.03506">
        <ele>582.7</ele>
        <time>2021-09-10T09:49:05Z</time>
      </trkpt>
      <trkpt lat="44.07593" lon="6.03505">
        <ele>582.9</ele>
        <time>2021-09-10T09:49:07Z</time>
      </trkpt>
      <trkpt lat="44.07595" lon="6.03504">
        <ele>583</ele>
        <time>2021-09-10T09:49:08Z</time>
      </trkpt>
      <trkpt lat="44.07596" lon="6.03503">
        <ele>583.2</ele>
        <time>2021-09-10T09:49:09Z</time>
      </trkpt>
      <trkpt lat="44.07598" lon="6.03502">
        <ele>583.3</ele>
        <time>2021-09-10T09:49:10Z</time>
      </trkpt>
      <trkpt lat="44.07599" lon="6.03501">
        <ele>583.5</ele>
        <time>2021-09-10T09:49:11Z</time>
      </trkpt>
      <trkpt lat="44.07601" lon="6.035">
        <ele>583.6</ele>
        <time>2021-09-10T09:49:13Z</time>
      </trkpt>
      <trkpt lat="44.07602" lon="6.035">
        <ele>583.7</ele>
        <time>2021-09-10T09:49:14Z</time>
      </trkpt>
      <trkpt lat="44.07604" lon="6.035">
        <ele>583.9</ele>
        <time>2021-09-10T09:49:15Z</time>
      </trkpt>
      <trkpt lat="44.07606" lon="6.035">
        <ele>584</ele>
        <time>2021-09-10T09:49:16Z</time>
      </trkpt>
      <trkpt lat="44.07608" lon="6.035">
        <ele>584.2</ele>
        <time>2021-09-10T09:49:18Z</time>
      </trkpt>
      <trkpt lat="44.07608" lon="6.035">
        <ele>584.2</ele>
        <time>2021-09-10T09:49:20Z</time>
      </trkpt>
      <trkpt lat="44.07609" lon="6.035">
        <ele>584.3</ele>
        <time>2021-09-10T09:49:21Z</time>
      </trkpt>
      <trkpt lat="44.0761" lon="6.035">
        <ele>584.4</ele>
        <time>2021-09-10T09:49:22Z</time>
      </trkpt>
      <trkpt lat="44.07612" lon="6.03504">
        <ele>584.6</ele>
        <time>2021-09-10T09:49:23Z</time>
      </trkpt>
      <trkpt lat="44.07612" lon="6.03507">
        <ele>584.8</ele>
        <time>2021-09-10T09:49:25Z</time>
      </trkpt>
      <trkpt lat="44.07612" lon="6.0351">
        <ele>585</ele>
        <time>2021-09-10T09:49:26Z</time>
      </trkpt>
      <trkpt lat="44.07613" lon="6.03513">
        <ele>585.2</ele>
        <time>2021-09-10T09:49:27Z</time>
      </trkpt>
      <trkpt lat="44.07613" lon="6.03516">
        <ele>585.4</ele>
        <time>2021-09-10T09:49:29Z</time>
      </trkpt>
      <trkpt lat="44.07613" lon="6.03519">
        <ele>585.6</ele>
        <time>2021-09-10T09:49:30Z</time>
      </trkpt>
      <trkpt lat="44.07614" lon="6.03522">
        <ele>585.8</ele>
        <time>2021-09-10T09:49:31Z</time>
      </trkpt>
      <trkpt lat="44.07614" lon="6.03525">
        <ele>586</ele>
        <time>2021-09-10T09:49:33Z</time>
      </trkpt>
      <trkpt lat="44.07614" lon="6.03528">
        <ele>586.2</ele>
        <time>2021-09-10T09:51:27Z</time>
      </trkpt>
      <trkpt lat="44.07615" lon="6.03531">
        <ele>586.4</ele>
        <time>2021-09-10T09:51:28Z</time>
      </trkpt>
      <trkpt lat="44.07615" lon="6.03534">
        <ele>586.6</ele>
        <time>2021-09-10T09:51:30Z</time>
      </trkpt>
      <trkpt lat="44.07615" lon="6.03538">
        <ele>586.8</ele>
        <time>2021-09-10T09:51:31Z</time>
      </trkpt>
      <trkpt lat="44.07615" lon="6.03539">
        <ele>586.9</ele>
        <time>2021-09-10T09:51:32Z</time>
      </trkpt>
      <trkpt lat="44.07615" lon="6.0354">
        <ele>586.9</ele>
        <time>2021-09-10T09:51:33Z</time>
      </trkpt>
      <trkpt lat="44.07614" lon="6.03541">
        <ele>587</ele>
        <time>2021-09-10T09:51:34Z</time>
      </trkpt>
      <trkpt lat="44.07614" lon="6.03542">
        <ele>587</ele>
        <time>2021-09-10T09:51:36Z</time>
      </trkpt>
      <trkpt lat="44.07614" lon="6.03542">
        <ele>587.1</ele>
        <time>2021-09-10T09:51:37Z</time>
      </trkpt>
      <trkpt lat="44.07614" lon="6.03543">
        <ele>587.1</ele>
        <time>2021-09-10T09:51:38Z</time>
      </trkpt>
      <trkpt lat="44.07613" lon="6.03546">
        <ele>587.3</ele>
        <time>2021-09-10T09:51:39Z</time>
      </trkpt>
      <trkpt lat="44.07613" lon="6.03547">
        <ele>587.4</ele>
        <time>2021-09-10T09:51:41Z</time>
      </trkpt>
      <trkpt lat="44.07612" lon="6.03548">
        <ele>587.4</ele>
        <time>2021-09-10T09:51:42Z</time>
      </trkpt>
      <trkpt lat="44.07611" lon="6.03552">
        <ele>587.6</ele>
        <time>2021-09-10T09:51:43Z</time>
      </trkpt>
      <trkpt lat="44.0761" lon="6.03555">
        <ele>587.8</ele>
        <time>2021-09-10T09:51:44Z</time>
      </trkpt>
      <trkpt lat="44.07609" lon="6.03558">
        <ele>588</ele>
        <time>2021-09-10T09:51:46Z</time>
      </trkpt>
      <trkpt lat="44.07607" lon="6.03561">
        <ele>588.2</ele>
        <time>2021-09-10T09:51:47Z</time>
      </trkpt>
      <trkpt lat="44.07607" lon="6.03563">
        <ele>588.3</ele>
        <time>2021-09-10T09:51:48Z</time>
      </trkpt>
      <trkpt lat="44.07606" lon="6.03565">
        <ele>588.4</ele>
        <time>2021-09-10T09:51:49Z</time>
      </trkpt>
      <trkpt lat="44.07604" lon="6.03568">
        <ele>588.5</ele>
        <time>2021-09-10T09:51:51Z</time>
      </trkpt>
      <trkpt lat="44.07603" lon="6.0357">
        <ele>588.7</ele>
        <time>2021-09-10T09:51:52Z</time>
      </trkpt>
      <trkpt lat="44.07602" lon="6.03571">
        <ele>588.7</ele>
        <time>2021-09-10T09:51:53Z</time>
      </trkpt>
      <trkpt lat="44.07602" lon="6.03571">
        <ele>588.7</ele>
        <time>2021-09-10T09:51:54Z</time>
      </trkpt>
      <trkpt lat="44.07599" lon="6.03574">
        <ele>589</ele>
        <time>2021-09-10T09:51:56Z</time>
      </trkpt>
      <trkpt lat="44.07598" lon="6.03575">
        <ele>589</ele>
        <time>2021-09-10T09:51:57Z</time>
      </trkpt>
      <trkpt lat="44.07597" lon="6.03575">
        <ele>589.1</ele>
        <time>2021-09-10T09:51:58Z</time>
      </trkpt>
      <trkpt lat="44.07596" lon="6.03576">
        <ele>589.2</ele>
        <time>2021-09-10T09:52:00Z</time>
      </trkpt>
      <trkpt lat="44.07595" lon="6.03577">
        <ele>589.3</ele>
        <time>2021-09-10T09:52:01Z</time>
      </trkpt>
      <trkpt lat="44.07594" lon="6.03578">
        <ele>589.4</ele>
        <time>2021-09-10T09:52:03Z</time>
      </trkpt>
      <trkpt lat="44.07592" lon="6.0358">
        <ele>589.6</ele>
        <time>2021-09-10T09:52:05Z</time>
      </trkpt>
      <trkpt lat="44.07591" lon="6.03581">
        <ele>589.7</ele>
        <time>2021-09-10T09:52:06Z</time>
      </trkpt>
      <trkpt lat="44.0759" lon="6.03582">
        <ele>589.8</ele>
        <time>2021-09-10T09:52:07Z</time>
      </trkpt>
      <trkpt lat="44.07589" lon="6.03584">
        <ele>589.9</ele>
        <time>2021-09-10T09:52:08Z</time>
      </trkpt>
      <trkpt lat="44.07588" lon="6.03586">
        <ele>590</ele>
        <time>2021-09-10T09:52:09Z</time>
      </trkpt>
      <trkpt lat="44.07587" lon="6.03588">
        <ele>590.2</ele>
        <time>2021-09-10T09:52:11Z</time>
      </trkpt>
      <trkpt lat="44.07586" lon="6.03589">
        <ele>590.3</ele>
        <time>2021-09-10T09:52:12Z</time>
      </trkpt>
      <trkpt lat="44.07584" lon="6.03593">
        <ele>590.5</ele>
        <time>2021-09-10T09:52:14Z</time>
      </trkpt>
      <trkpt lat="44.07583" lon="6.03593">
        <ele>590.6</ele>
        <time>2021-09-10T09:52:15Z</time>
      </trkpt>
      <trkpt lat="44.07582" lon="6.03594">
        <ele>590.6</ele>
        <time>2021-09-10T09:52:16Z</time>
      </trkpt>
      <trkpt lat="44.07582" lon="6.03594">
        <ele>590.7</ele>
        <time>2021-09-10T09:52:17Z</time>
      </trkpt>
      <trkpt lat="44.07582" lon="6.03594">
        <ele>590.7</ele>
        <time>2021-09-10T09:52:18Z</time>
      </trkpt>
      <trkpt lat="44.07581" lon="6.03594">
        <ele>590.7</ele>
        <time>2021-09-10T09:52:20Z</time>
      </trkpt>
      <trkpt lat="44.07581" lon="6.03594">
        <ele>590.7</ele>
        <time>2021-09-10T09:52:21Z</time>
      </trkpt>
      <trkpt lat="44.07581" lon="6.03594">
        <ele>590.7</ele>
        <time>2021-09-10T09:52:23Z</time>
      </trkpt>
      <trkpt lat="44.07581" lon="6.03594">
        <ele>590.7</ele>
        <time>2021-09-10T09:52:24Z</time>
      </trkpt>
      <trkpt lat="44.07581" lon="6.03594">
        <ele>590.8</ele>
        <time>2021-09-10T09:52:25Z</time>
      </trkpt>
      <trkpt lat="44.07581" lon="6.03594">
        <ele>590.8</ele>
        <time>2021-09-10T09:52:26Z</time>
      </trkpt>
      <trkpt lat="44.07563" lon="6.03605">
        <ele>592.1</ele>
        <time>2021-09-10T09:52:45Z</time>
      </trkpt>
      <trkpt lat="44.07557" lon="6.03608">
        <ele>592.4</ele>
        <time>2021-09-10T09:52:47Z</time>
      </trkpt>
      <trkpt lat="44.07554" lon="6.03609">
        <ele>592.6</ele>
        <time>2021-09-10T09:52:48Z</time>
      </trkpt>
      <trkpt lat="44.07551" lon="6.03611">
        <ele>592.7</ele>
        <time>2021-09-10T09:52:49Z</time>
      </trkpt>
      <trkpt lat="44.07549" lon="6.03613">
        <ele>592.8</ele>
        <time>2021-09-10T09:52:51Z</time>
      </trkpt>
      <trkpt lat="44.07548" lon="6.03613">
        <ele>592.9</ele>
        <time>2021-09-10T09:52:52Z</time>
      </trkpt>
      <trkpt lat="44.07548" lon="6.03613">
        <ele>592.9</ele>
        <time>2021-09-10T09:52:53Z</time>
      </trkpt>
      <trkpt lat="44.07547" lon="6.03614">
        <ele>593</ele>
        <time>2021-09-10T09:52:54Z</time>
      </trkpt>
      <trkpt lat="44.07544" lon="6.03616">
        <ele>593.1</ele>
        <time>2021-09-10T09:52:56Z</time>
      </trkpt>
      <trkpt lat="44.07542" lon="6.03618">
        <ele>593.2</ele>
        <time>2021-09-10T09:52:58Z</time>
      </trkpt>
      <trkpt lat="44.0754" lon="6.03621">
        <ele>593.3</ele>
        <time>2021-09-10T09:52:59Z</time>
      </trkpt>
      <trkpt lat="44.07538" lon="6.03624">
        <ele>593.5</ele>
        <time>2021-09-10T09:53:00Z</time>
      </trkpt>
      <trkpt lat="44.07535" lon="6.03625">
        <ele>593.6</ele>
        <time>2021-09-10T09:53:02Z</time>
      </trkpt>
      <trkpt lat="44.07531" lon="6.03628">
        <ele>593.8</ele>
        <time>2021-09-10T09:53:04Z</time>
      </trkpt>
      <trkpt lat="44.07528" lon="6.0363">
        <ele>594</ele>
        <time>2021-09-10T09:53:05Z</time>
      </trkpt>
      <trkpt lat="44.07527" lon="6.03631">
        <ele>594</ele>
        <time>2021-09-10T09:53:06Z</time>
      </trkpt>
      <trkpt lat="44.07524" lon="6.03636">
        <ele>594.3</ele>
        <time>2021-09-10T09:53:08Z</time>
      </trkpt>
      <trkpt lat="44.07523" lon="6.03637">
        <ele>594.3</ele>
        <time>2021-09-10T09:53:09Z</time>
      </trkpt>
      <trkpt lat="44.07522" lon="6.03638">
        <ele>594.4</ele>
        <time>2021-09-10T09:53:10Z</time>
      </trkpt>
      <trkpt lat="44.07519" lon="6.0364">
        <ele>594.6</ele>
        <time>2021-09-10T09:53:11Z</time>
      </trkpt>
      <trkpt lat="44.07518" lon="6.0364">
        <ele>594.6</ele>
        <time>2021-09-10T09:53:12Z</time>
      </trkpt>
      <trkpt lat="44.07515" lon="6.03643">
        <ele>594.8</ele>
        <time>2021-09-10T09:53:14Z</time>
      </trkpt>
      <trkpt lat="44.07512" lon="6.03645">
        <ele>595</ele>
        <time>2021-09-10T09:53:15Z</time>
      </trkpt>
      <trkpt lat="44.0751" lon="6.03646">
        <ele>595.2</ele>
        <time>2021-09-10T09:53:16Z</time>
      </trkpt>
      <trkpt lat="44.07509" lon="6.03647">
        <ele>595.2</ele>
        <time>2021-09-10T09:53:17Z</time>
      </trkpt>
      <trkpt lat="44.07507" lon="6.03649">
        <ele>595.3</ele>
        <time>2021-09-10T09:53:18Z</time>
      </trkpt>
      <trkpt lat="44.07506" lon="6.0365">
        <ele>595.4</ele>
        <time>2021-09-10T09:53:19Z</time>
      </trkpt>
      <trkpt lat="44.07505" lon="6.03651">
        <ele>595.5</ele>
        <time>2021-09-10T09:53:20Z</time>
      </trkpt>
      <trkpt lat="44.07504" lon="6.03652">
        <ele>595.6</ele>
        <time>2021-09-10T09:53:21Z</time>
      </trkpt>
      <trkpt lat="44.07503" lon="6.03653">
        <ele>595.7</ele>
        <time>2021-09-10T09:53:23Z</time>
      </trkpt>
      <trkpt lat="44.07502" lon="6.03655">
        <ele>595.8</ele>
        <time>2021-09-10T09:53:24Z</time>
      </trkpt>
      <trkpt lat="44.07498" lon="6.03657">
        <ele>596</ele>
        <time>2021-09-10T09:53:26Z</time>
      </trkpt>
      <trkpt lat="44.07494" lon="6.03659">
        <ele>596.3</ele>
        <time>2021-09-10T09:53:28Z</time>
      </trkpt>
      <trkpt lat="44.07491" lon="6.0366">
        <ele>596.6</ele>
        <time>2021-09-10T09:53:29Z</time>
      </trkpt>
      <trkpt lat="44.0749" lon="6.03661">
        <ele>596.6</ele>
        <time>2021-09-10T09:53:30Z</time>
      </trkpt>
      <trkpt lat="44.07489" lon="6.03662">
        <ele>596.7</ele>
        <time>2021-09-10T09:53:31Z</time>
      </trkpt>
      <trkpt lat="44.07487" lon="6.03666">
        <ele>596.9</ele>
        <time>2021-09-10T09:53:33Z</time>
      </trkpt>
      <trkpt lat="44.07486" lon="6.03669">
        <ele>597.1</ele>
        <time>2021-09-10T09:53:34Z</time>
      </trkpt>
      <trkpt lat="44.07486" lon="6.03671">
        <ele>597.2</ele>
        <time>2021-09-10T09:53:35Z</time>
      </trkpt>
      <trkpt lat="44.07484" lon="6.03675">
        <ele>597.4</ele>
        <time>2021-09-10T09:53:37Z</time>
      </trkpt>
      <trkpt lat="44.07483" lon="6.03677">
        <ele>597.6</ele>
        <time>2021-09-10T09:53:38Z</time>
      </trkpt>
      <trkpt lat="44.07482" lon="6.03679">
        <ele>597.8</ele>
        <time>2021-09-10T09:53:40Z</time>
      </trkpt>
      <trkpt lat="44.0748" lon="6.0368">
        <ele>597.9</ele>
        <time>2021-09-10T09:53:41Z</time>
      </trkpt>
      <trkpt lat="44.07479" lon="6.03682">
        <ele>598</ele>
        <time>2021-09-10T09:53:42Z</time>
      </trkpt>
      <trkpt lat="44.07476" lon="6.03684">
        <ele>598.3</ele>
        <time>2021-09-10T09:53:43Z</time>
      </trkpt>
      <trkpt lat="44.07475" lon="6.03685">
        <ele>598.4</ele>
        <time>2021-09-10T09:53:44Z</time>
      </trkpt>
      <trkpt lat="44.07472" lon="6.0369">
        <ele>598.7</ele>
        <time>2021-09-10T09:53:46Z</time>
      </trkpt>
      <trkpt lat="44.07469" lon="6.03691">
        <ele>599</ele>
        <time>2021-09-10T09:53:47Z</time>
      </trkpt>
      <trkpt lat="44.07468" lon="6.03691">
        <ele>599</ele>
        <time>2021-09-10T09:53:48Z</time>
      </trkpt>
      <trkpt lat="44.07466" lon="6.03692">
        <ele>599.2</ele>
        <time>2021-09-10T09:53:49Z</time>
      </trkpt>
      <trkpt lat="44.07463" lon="6.03695">
        <ele>599.5</ele>
        <time>2021-09-10T09:53:51Z</time>
      </trkpt>
      <trkpt lat="44.07462" lon="6.03696">
        <ele>599.7</ele>
        <time>2021-09-10T09:53:52Z</time>
      </trkpt>
      <trkpt lat="44.0746" lon="6.03697">
        <ele>599.8</ele>
        <time>2021-09-10T09:53:53Z</time>
      </trkpt>
      <trkpt lat="44.07458" lon="6.03699">
        <ele>600.1</ele>
        <time>2021-09-10T09:53:54Z</time>
      </trkpt>
      <trkpt lat="44.07457" lon="6.03701">
        <ele>600.3</ele>
        <time>2021-09-10T09:53:56Z</time>
      </trkpt>
      <trkpt lat="44.07456" lon="6.03703">
        <ele>600.5</ele>
        <time>2021-09-10T09:53:57Z</time>
      </trkpt>
      <trkpt lat="44.07456" lon="6.03705">
        <ele>600.6</ele>
        <time>2021-09-10T09:53:59Z</time>
      </trkpt>
      <trkpt lat="44.07455" lon="6.03706">
        <ele>600.8</ele>
        <time>2021-09-10T09:54:00Z</time>
      </trkpt>
      <trkpt lat="44.07455" lon="6.03706">
        <ele>600.8</ele>
        <time>2021-09-10T09:54:02Z</time>
      </trkpt>
      <trkpt lat="44.07456" lon="6.03706">
        <ele>600.9</ele>
        <time>2021-09-10T09:54:04Z</time>
      </trkpt>
      <trkpt lat="44.07456" lon="6.03706">
        <ele>600.9</ele>
        <time>2021-09-10T09:54:05Z</time>
      </trkpt>
      <trkpt lat="44.07456" lon="6.03706">
        <ele>600.9</ele>
        <time>2021-09-10T09:54:06Z</time>
      </trkpt>
      <trkpt lat="44.07456" lon="6.03706">
        <ele>600.9</ele>
        <time>2021-09-10T09:54:08Z</time>
      </trkpt>
      <trkpt lat="44.07456" lon="6.03706">
        <ele>600.9</ele>
        <time>2021-09-10T09:54:09Z</time>
      </trkpt>
      <trkpt lat="44.07456" lon="6.03707">
        <ele>600.9</ele>
        <time>2021-09-10T09:54:11Z</time>
      </trkpt>
      <trkpt lat="44.07374" lon="6.03817">
        <ele>618.4</ele>
        <time>2021-09-10T09:57:02Z</time>
      </trkpt>
      <trkpt lat="44.07371" lon="6.0382">
        <ele>618.8</ele>
        <time>2021-09-10T09:57:03Z</time>
      </trkpt>
      <trkpt lat="44.0737" lon="6.03823">
        <ele>619</ele>
        <time>2021-09-10T09:57:04Z</time>
      </trkpt>
      <trkpt lat="44.07369" lon="6.03824">
        <ele>619.2</ele>
        <time>2021-09-10T09:57:06Z</time>
      </trkpt>
      <trkpt lat="44.07368" lon="6.03825">
        <ele>619.3</ele>
        <time>2021-09-10T09:57:07Z</time>
      </trkpt>
      <trkpt lat="44.07368" lon="6.03825">
        <ele>619.3</ele>
        <time>2021-09-10T09:57:08Z</time>
      </trkpt>
      <trkpt lat="44.07367" lon="6.03826">
        <ele>619.4</ele>
        <time>2021-09-10T09:57:10Z</time>
      </trkpt>
      <trkpt lat="44.07367" lon="6.03826">
        <ele>619.4</ele>
        <time>2021-09-10T09:57:11Z</time>
      </trkpt>
      <trkpt lat="44.07367" lon="6.03826">
        <ele>619.5</ele>
        <time>2021-09-10T09:57:12Z</time>
      </trkpt>
      <trkpt lat="44.07367" lon="6.03826">
        <ele>619.5</ele>
        <time>2021-09-10T09:57:13Z</time>
      </trkpt>
      <trkpt lat="44.07367" lon="6.03827">
        <ele>619.5</ele>
        <time>2021-09-10T09:57:15Z</time>
      </trkpt>
      <trkpt lat="44.07366" lon="6.03827">
        <ele>619.5</ele>
        <time>2021-09-10T09:57:16Z</time>
      </trkpt>
      <trkpt lat="44.07366" lon="6.03827">
        <ele>619.6</ele>
        <time>2021-09-10T09:57:17Z</time>
      </trkpt>
      <trkpt lat="44.07327" lon="6.03874">
        <ele>624.6</ele>
        <time>2021-09-10T09:58:04Z</time>
      </trkpt>
      <trkpt lat="44.07325" lon="6.03876">
        <ele>624.8</ele>
        <time>2021-09-10T09:58:06Z</time>
      </trkpt>
      <trkpt lat="44.07324" lon="6.03876">
        <ele>624.9</ele>
        <time>2021-09-10T09:58:07Z</time>
      </trkpt>
      <trkpt lat="44.07323" lon="6.03877">
        <ele>625</ele>
        <time>2021-09-10T09:58:08Z</time>
      </trkpt>
      <trkpt lat="44.0732" lon="6.03877">
        <ele>625.2</ele>
        <time>2021-09-10T09:58:09Z</time>
      </trkpt>
      <trkpt lat="44.0732" lon="6.03877">
        <ele>625.3</ele>
        <time>2021-09-10T09:58:10Z</time>
      </trkpt>
      <trkpt lat="44.07319" lon="6.03877">
        <ele>625.3</ele>
        <time>2021-09-10T09:58:12Z</time>
      </trkpt>
      <trkpt lat="44.07319" lon="6.03878">
        <ele>625.4</ele>
        <time>2021-09-10T09:58:13Z</time>
      </trkpt>
      <trkpt lat="44.07318" lon="6.03878">
        <ele>625.4</ele>
        <time>2021-09-10T09:58:14Z</time>
      </trkpt>
      <trkpt lat="44.07318" lon="6.03878">
        <ele>625.5</ele>
        <time>2021-09-10T09:58:15Z</time>
      </trkpt>
      <trkpt lat="44.07318" lon="6.03878">
        <ele>625.5</ele>
        <time>2021-09-10T09:58:17Z</time>
      </trkpt>
      <trkpt lat="44.07318" lon="6.03878">
        <ele>625.5</ele>
        <time>2021-09-10T09:58:18Z</time>
      </trkpt>
      <trkpt lat="44.07318" lon="6.03878">
        <ele>625.5</ele>
        <time>2021-09-10T09:58:19Z</time>
      </trkpt>
      <trkpt lat="44.07297" lon="6.03892">
        <ele>627.6</ele>
        <time>2021-09-10T09:58:40Z</time>
      </trkpt>
      <trkpt lat="44.07295" lon="6.03894">
        <ele>627.8</ele>
        <time>2021-09-10T09:58:41Z</time>
      </trkpt>
      <trkpt lat="44.07294" lon="6.03895">
        <ele>628</ele>
        <time>2021-09-10T09:58:42Z</time>
      </trkpt>
      <trkpt lat="44.07293" lon="6.03896">
        <ele>628.1</ele>
        <time>2021-09-10T09:58:44Z</time>
      </trkpt>
      <trkpt lat="44.07292" lon="6.03897">
        <ele>628.1</ele>
        <time>2021-09-10T09:58:45Z</time>
      </trkpt>
      <trkpt lat="44.07291" lon="6.03898">
        <ele>628.2</ele>
        <time>2021-09-10T09:58:46Z</time>
      </trkpt>
      <trkpt lat="44.07291" lon="6.03899">
        <ele>628.3</ele>
        <time>2021-09-10T09:58:47Z</time>
      </trkpt>
      <trkpt lat="44.07291" lon="6.03899">
        <ele>628.3</ele>
        <time>2021-09-10T09:58:48Z</time>
      </trkpt>
      <trkpt lat="44.0729" lon="6.03899">
        <ele>628.3</ele>
        <time>2021-09-10T09:58:50Z</time>
      </trkpt>
      <trkpt lat="44.07288" lon="6.03902">
        <ele>628.5</ele>
        <time>2021-09-10T09:58:51Z</time>
      </trkpt>
      <trkpt lat="44.07281" lon="6.03912">
        <ele>629.3</ele>
        <time>2021-09-10T09:58:58Z</time>
      </trkpt>
      <trkpt lat="44.07279" lon="6.03915">
        <ele>629.5</ele>
        <time>2021-09-10T09:59:00Z</time>
      </trkpt>
      <trkpt lat="44.07277" lon="6.03917">
        <ele>629.7</ele>
        <time>2021-09-10T09:59:01Z</time>
      </trkpt>
      <trkpt lat="44.07277" lon="6.03919">
        <ele>629.8</ele>
        <time>2021-09-10T09:59:02Z</time>
      </trkpt>
      <trkpt lat="44.07275" lon="6.03922">
        <ele>630</ele>
        <time>2021-09-10T09:59:03Z</time>
      </trkpt>
      <trkpt lat="44.07274" lon="6.03924">
        <ele>630</ele>
        <time>2021-09-10T09:59:04Z</time>
      </trkpt>
      <trkpt lat="44.07274" lon="6.03925">
        <ele>630.1</ele>
        <time>2021-09-10T09:59:06Z</time>
      </trkpt>
      <trkpt lat="44.07273" lon="6.03927">
        <ele>630.2</ele>
        <time>2021-09-10T09:59:07Z</time>
      </trkpt>
      <trkpt lat="44.07272" lon="6.03928">
        <ele>630.3</ele>
        <time>2021-09-10T09:59:08Z</time>
      </trkpt>
      <trkpt lat="44.07271" lon="6.0393">
        <ele>630.4</ele>
        <time>2021-09-10T09:59:09Z</time>
      </trkpt>
      <trkpt lat="44.0727" lon="6.03931">
        <ele>630.5</ele>
        <time>2021-09-10T09:59:10Z</time>
      </trkpt>
      <trkpt lat="44.0727" lon="6.03933">
        <ele>630.6</ele>
        <time>2021-09-10T09:59:12Z</time>
      </trkpt>
      <trkpt lat="44.07269" lon="6.03934">
        <ele>630.7</ele>
        <time>2021-09-10T09:59:23Z</time>
      </trkpt>
      <trkpt lat="44.07268" lon="6.03936">
        <ele>630.7</ele>
        <time>2021-09-10T09:59:24Z</time>
      </trkpt>
      <trkpt lat="44.07266" lon="6.0394">
        <ele>631</ele>
        <time>2021-09-10T09:59:26Z</time>
      </trkpt>
      <trkpt lat="44.07265" lon="6.03943">
        <ele>631.2</ele>
        <time>2021-09-10T09:59:27Z</time>
      </trkpt>
      <trkpt lat="44.07262" lon="6.03945">
        <ele>631.4</ele>
        <time>2021-09-10T09:59:29Z</time>
      </trkpt>
      <trkpt lat="44.07261" lon="6.03946">
        <ele>631.5</ele>
        <time>2021-09-10T09:59:30Z</time>
      </trkpt>
      <trkpt lat="44.07259" lon="6.03947">
        <ele>631.6</ele>
        <time>2021-09-10T09:59:32Z</time>
      </trkpt>
      <trkpt lat="44.07258" lon="6.03947">
        <ele>631.7</ele>
        <time>2021-09-10T09:59:33Z</time>
      </trkpt>
      <trkpt lat="44.07258" lon="6.03949">
        <ele>631.8</ele>
        <time>2021-09-10T09:59:34Z</time>
      </trkpt>
      <trkpt lat="44.07258" lon="6.03951">
        <ele>631.9</ele>
        <time>2021-09-10T09:59:36Z</time>
      </trkpt>
      <trkpt lat="44.07257" lon="6.03954">
        <ele>632.1</ele>
        <time>2021-09-10T09:59:37Z</time>
      </trkpt>
      <trkpt lat="44.07256" lon="6.03956">
        <ele>632.2</ele>
        <time>2021-09-10T09:59:39Z</time>
      </trkpt>
      <trkpt lat="44.07253" lon="6.03958">
        <ele>632.5</ele>
        <time>2021-09-10T09:59:40Z</time>
      </trkpt>
      <trkpt lat="44.07251" lon="6.03961">
        <ele>632.6</ele>
        <time>2021-09-10T09:59:42Z</time>
      </trkpt>
      <trkpt lat="44.07248" lon="6.03963">
        <ele>632.8</ele>
        <time>2021-09-10T09:59:43Z</time>
      </trkpt>
      <trkpt lat="44.07247" lon="6.03965">
        <ele>633</ele>
        <time>2021-09-10T09:59:44Z</time>
      </trkpt>
      <trkpt lat="44.07246" lon="6.03966">
        <ele>633.1</ele>
        <time>2021-09-10T09:59:45Z</time>
      </trkpt>
      <trkpt lat="44.07245" lon="6.03968">
        <ele>633.2</ele>
        <time>2021-09-10T09:59:46Z</time>
      </trkpt>
      <trkpt lat="44.07245" lon="6.03971">
        <ele>633.4</ele>
        <time>2021-09-10T09:59:48Z</time>
      </trkpt>
      <trkpt lat="44.07245" lon="6.03975">
        <ele>633.6</ele>
        <time>2021-09-10T09:59:50Z</time>
      </trkpt>
      <trkpt lat="44.07245" lon="6.03981">
        <ele>633.8</ele>
        <time>2021-09-10T09:59:51Z</time>
      </trkpt>
      <trkpt lat="44.07244" lon="6.03984">
        <ele>634</ele>
        <time>2021-09-10T09:59:53Z</time>
      </trkpt>
      <trkpt lat="44.07244" lon="6.03985">
        <ele>634.1</ele>
        <time>2021-09-10T09:59:54Z</time>
      </trkpt>
      <trkpt lat="44.07243" lon="6.03986">
        <ele>634.2</ele>
        <time>2021-09-10T09:59:55Z</time>
      </trkpt>
      <trkpt lat="44.07242" lon="6.0399">
        <ele>634.3</ele>
        <time>2021-09-10T09:59:57Z</time>
      </trkpt>
      <trkpt lat="44.0724" lon="6.03993">
        <ele>634.6</ele>
        <time>2021-09-10T09:59:58Z</time>
      </trkpt>
      <trkpt lat="44.07239" lon="6.03996">
        <ele>634.7</ele>
        <time>2021-09-10T09:59:59Z</time>
      </trkpt>
      <trkpt lat="44.07238" lon="6.03998">
        <ele>634.8</ele>
        <time>2021-09-10T10:00:01Z</time>
      </trkpt>
      <trkpt lat="44.07238" lon="6.04001">
        <ele>635</ele>
        <time>2021-09-10T10:00:02Z</time>
      </trkpt>
      <trkpt lat="44.07236" lon="6.04003">
        <ele>635.1</ele>
        <time>2021-09-10T10:00:04Z</time>
      </trkpt>
      <trkpt lat="44.07234" lon="6.04005">
        <ele>635.3</ele>
        <time>2021-09-10T10:00:06Z</time>
      </trkpt>
      <trkpt lat="44.07231" lon="6.04008">
        <ele>635.4</ele>
        <time>2021-09-10T10:00:07Z</time>
      </trkpt>
      <trkpt lat="44.07228" lon="6.04012">
        <ele>635.7</ele>
        <time>2021-09-10T10:00:09Z</time>
      </trkpt>
      <trkpt lat="44.07227" lon="6.04013">
        <ele>635.7</ele>
        <time>2021-09-10T10:00:10Z</time>
      </trkpt>
      <trkpt lat="44.07226" lon="6.04015">
        <ele>635.8</ele>
        <time>2021-09-10T10:00:11Z</time>
      </trkpt>
      <trkpt lat="44.07223" lon="6.04018">
        <ele>636</ele>
        <time>2021-09-10T10:00:13Z</time>
      </trkpt>
      <trkpt lat="44.07221" lon="6.04019">
        <ele>636</ele>
        <time>2021-09-10T10:00:14Z</time>
      </trkpt>
      <trkpt lat="44.07221" lon="6.04024">
        <ele>636.2</ele>
        <time>2021-09-10T10:00:16Z</time>
      </trkpt>
      <trkpt lat="44.07221" lon="6.04026">
        <ele>636.2</ele>
        <time>2021-09-10T10:00:17Z</time>
      </trkpt>
      <trkpt lat="44.07221" lon="6.0403">
        <ele>636.3</ele>
        <time>2021-09-10T10:00:18Z</time>
      </trkpt>
      <trkpt lat="44.07219" lon="6.04034">
        <ele>636.4</ele>
        <time>2021-09-10T10:00:20Z</time>
      </trkpt>
      <trkpt lat="44.07218" lon="6.04036">
        <ele>636.5</ele>
        <time>2021-09-10T10:00:21Z</time>
      </trkpt>
      <trkpt lat="44.07217" lon="6.0404">
        <ele>636.6</ele>
        <time>2021-09-10T10:00:23Z</time>
      </trkpt>
      <trkpt lat="44.07216" lon="6.04046">
        <ele>636.7</ele>
        <time>2021-09-10T10:00:25Z</time>
      </trkpt>
      <trkpt lat="44.07215" lon="6.04052">
        <ele>636.8</ele>
        <time>2021-09-10T10:00:26Z</time>
      </trkpt>
      <trkpt lat="44.07215" lon="6.04055">
        <ele>636.9</ele>
        <time>2021-09-10T10:00:27Z</time>
      </trkpt>
      <trkpt lat="44.07215" lon="6.0406">
        <ele>637</ele>
        <time>2021-09-10T10:00:29Z</time>
      </trkpt>
      <trkpt lat="44.07216" lon="6.04062">
        <ele>637</ele>
        <time>2021-09-10T10:00:30Z</time>
      </trkpt>
      <trkpt lat="44.07216" lon="6.04066">
        <ele>637.1</ele>
        <time>2021-09-10T10:00:31Z</time>
      </trkpt>
      <trkpt lat="44.07217" lon="6.04068">
        <ele>637.2</ele>
        <time>2021-09-10T10:00:33Z</time>
      </trkpt>
      <trkpt lat="44.07218" lon="6.0407">
        <ele>637.2</ele>
        <time>2021-09-10T10:00:34Z</time>
      </trkpt>
      <trkpt lat="44.07219" lon="6.04072">
        <ele>637.3</ele>
        <time>2021-09-10T10:00:36Z</time>
      </trkpt>
      <trkpt lat="44.07219" lon="6.04074">
        <ele>637.3</ele>
        <time>2021-09-10T10:00:37Z</time>
      </trkpt>
      <trkpt lat="44.07221" lon="6.04074">
        <ele>637.4</ele>
        <time>2021-09-10T10:00:38Z</time>
      </trkpt>
      <trkpt lat="44.07222" lon="6.04076">
        <ele>637.5</ele>
        <time>2021-09-10T10:00:40Z</time>
      </trkpt>
      <trkpt lat="44.07221" lon="6.0408">
        <ele>637.6</ele>
        <time>2021-09-10T10:00:41Z</time>
      </trkpt>
      <trkpt lat="44.07221" lon="6.04082">
        <ele>637.6</ele>
        <time>2021-09-10T10:00:42Z</time>
      </trkpt>
      <trkpt lat="44.0722" lon="6.04084">
        <ele>637.7</ele>
        <time>2021-09-10T10:00:43Z</time>
      </trkpt>
      <trkpt lat="44.07218" lon="6.0409">
        <ele>637.9</ele>
        <time>2021-09-10T10:00:45Z</time>
      </trkpt>
      <trkpt lat="44.07218" lon="6.04093">
        <ele>637.9</ele>
        <time>2021-09-10T10:00:46Z</time>
      </trkpt>
      <trkpt lat="44.07217" lon="6.04095">
        <ele>638</ele>
        <time>2021-09-10T10:00:47Z</time>
      </trkpt>
      <trkpt lat="44.07218" lon="6.04098">
        <ele>638.1</ele>
        <time>2021-09-10T10:00:49Z</time>
      </trkpt>
      <trkpt lat="44.07217" lon="6.04103">
        <ele>638.2</ele>
        <time>2021-09-10T10:00:51Z</time>
      </trkpt>
      <trkpt lat="44.07216" lon="6.04105">
        <ele>638.3</ele>
        <time>2021-09-10T10:00:52Z</time>
      </trkpt>
      <trkpt lat="44.07215" lon="6.04107">
        <ele>638.4</ele>
        <time>2021-09-10T10:00:54Z</time>
      </trkpt>
      <trkpt lat="44.07214" lon="6.04112">
        <ele>638.6</ele>
        <time>2021-09-10T10:00:55Z</time>
      </trkpt>
      <trkpt lat="44.07213" lon="6.04113">
        <ele>638.6</ele>
        <time>2021-09-10T10:00:56Z</time>
      </trkpt>
      <trkpt lat="44.0721" lon="6.04117">
        <ele>638.8</ele>
        <time>2021-09-10T10:00:58Z</time>
      </trkpt>
      <trkpt lat="44.07208" lon="6.04121">
        <ele>638.9</ele>
        <time>2021-09-10T10:00:59Z</time>
      </trkpt>
      <trkpt lat="44.07205" lon="6.04126">
        <ele>639.1</ele>
        <time>2021-09-10T10:01:01Z</time>
      </trkpt>
      <trkpt lat="44.07203" lon="6.0413">
        <ele>639.2</ele>
        <time>2021-09-10T10:01:02Z</time>
      </trkpt>
      <trkpt lat="44.07201" lon="6.04133">
        <ele>639.3</ele>
        <time>2021-09-10T10:01:03Z</time>
      </trkpt>
      <trkpt lat="44.07199" lon="6.04139">
        <ele>639.5</ele>
        <time>2021-09-10T10:01:05Z</time>
      </trkpt>
      <trkpt lat="44.07196" lon="6.04145">
        <ele>639.6</ele>
        <time>2021-09-10T10:01:06Z</time>
      </trkpt>
      <trkpt lat="44.07195" lon="6.0415">
        <ele>639.7</ele>
        <time>2021-09-10T10:01:08Z</time>
      </trkpt>
      <trkpt lat="44.07194" lon="6.04153">
        <ele>639.8</ele>
        <time>2021-09-10T10:01:09Z</time>
      </trkpt>
      <trkpt lat="44.07191" lon="6.04163">
        <ele>639.9</ele>
        <time>2021-09-10T10:01:11Z</time>
      </trkpt>
      <trkpt lat="44.07188" lon="6.04171">
        <ele>640</ele>
        <time>2021-09-10T10:01:13Z</time>
      </trkpt>
      <trkpt lat="44.07186" lon="6.04178">
        <ele>640.1</ele>
        <time>2021-09-10T10:01:14Z</time>
      </trkpt>
      <trkpt lat="44.07185" lon="6.04183">
        <ele>640.2</ele>
        <time>2021-09-10T10:01:16Z</time>
      </trkpt>
      <trkpt lat="44.07184" lon="6.04188">
        <ele>640.2</ele>
        <time>2021-09-10T10:01:17Z</time>
      </trkpt>
      <trkpt lat="44.07184" lon="6.04193">
        <ele>640.3</ele>
        <time>2021-09-10T10:01:19Z</time>
      </trkpt>
      <trkpt lat="44.07184" lon="6.04197">
        <ele>640.3</ele>
        <time>2021-09-10T10:01:20Z</time>
      </trkpt>
      <trkpt lat="44.07184" lon="6.04204">
        <ele>640.4</ele>
        <time>2021-09-10T10:01:22Z</time>
      </trkpt>
      <trkpt lat="44.07183" lon="6.04213">
        <ele>640.4</ele>
        <time>2021-09-10T10:01:23Z</time>
      </trkpt>
      <trkpt lat="44.07182" lon="6.0422">
        <ele>640.5</ele>
        <time>2021-09-10T10:01:25Z</time>
      </trkpt>
      <trkpt lat="44.07181" lon="6.04226">
        <ele>640.5</ele>
        <time>2021-09-10T10:01:26Z</time>
      </trkpt>
      <trkpt lat="44.0718" lon="6.04234">
        <ele>640.6</ele>
        <time>2021-09-10T10:01:27Z</time>
      </trkpt>
      <trkpt lat="44.07179" lon="6.04249">
        <ele>640.6</ele>
        <time>2021-09-10T10:01:29Z</time>
      </trkpt>
      <trkpt lat="44.0718" lon="6.04257">
        <ele>640.6</ele>
        <time>2021-09-10T10:01:30Z</time>
      </trkpt>
      <trkpt lat="44.07183" lon="6.04271">
        <ele>640.5</ele>
        <time>2021-09-10T10:01:32Z</time>
      </trkpt>
      <trkpt lat="44.07186" lon="6.0428">
        <ele>640.4</ele>
        <time>2021-09-10T10:01:33Z</time>
      </trkpt>
      <trkpt lat="44.07189" lon="6.04285">
        <ele>640.3</ele>
        <time>2021-09-10T10:01:35Z</time>
      </trkpt>
      <trkpt lat="44.07194" lon="6.04293">
        <ele>640.2</ele>
        <time>2021-09-10T10:01:37Z</time>
      </trkpt>
      <trkpt lat="44.07198" lon="6.04295">
        <ele>640.1</ele>
        <time>2021-09-10T10:01:38Z</time>
      </trkpt>
      <trkpt lat="44.07211" lon="6.04295">
        <ele>640</ele>
        <time>2021-09-10T10:01:40Z</time>
      </trkpt>
      <trkpt lat="44.07224" lon="6.04294">
        <ele>640</ele>
        <time>2021-09-10T10:01:42Z</time>
      </trkpt>
      <trkpt lat="44.07237" lon="6.04295">
        <ele>640</ele>
        <time>2021-09-10T10:01:44Z</time>
      </trkpt>
      <trkpt lat="44.07247" lon="6.04297">
        <ele>640.1</ele>
        <time>2021-09-10T10:01:46Z</time>
      </trkpt>
      <trkpt lat="44.07251" lon="6.04298">
        <ele>640.1</ele>
        <time>2021-09-10T10:01:47Z</time>
      </trkpt>
      <trkpt lat="44.07253" lon="6.04299">
        <ele>640.2</ele>
        <time>2021-09-10T10:01:48Z</time>
      </trkpt>
      <trkpt lat="44.07259" lon="6.04296">
        <ele>640.3</ele>
        <time>2021-09-10T10:01:50Z</time>
      </trkpt>
      <trkpt lat="44.07263" lon="6.04293">
        <ele>640.4</ele>
        <time>2021-09-10T10:01:51Z</time>
      </trkpt>
      <trkpt lat="44.07266" lon="6.04289">
        <ele>640.6</ele>
        <time>2021-09-10T10:01:52Z</time>
      </trkpt>
      <trkpt lat="44.07273" lon="6.04284">
        <ele>640.9</ele>
        <time>2021-09-10T10:01:53Z</time>
      </trkpt>
      <trkpt lat="44.07277" lon="6.04281">
        <ele>641</ele>
        <time>2021-09-10T10:01:55Z</time>
      </trkpt>
      <trkpt lat="44.07281" lon="6.04277">
        <ele>641.2</ele>
        <time>2021-09-10T10:01:56Z</time>
      </trkpt>
      <trkpt lat="44.07285" lon="6.0427">
        <ele>641.4</ele>
        <time>2021-09-10T10:01:58Z</time>
      </trkpt>
      <trkpt lat="44.07288" lon="6.04266">
        <ele>641.5</ele>
        <time>2021-09-10T10:01:59Z</time>
      </trkpt>
      <trkpt lat="44.07294" lon="6.04249">
        <ele>641.9</ele>
        <time>2021-09-10T10:02:01Z</time>
      </trkpt>
      <trkpt lat="44.07298" lon="6.04243">
        <ele>642</ele>
        <time>2021-09-10T10:02:02Z</time>
      </trkpt>
      <trkpt lat="44.07304" lon="6.04232">
        <ele>642.1</ele>
        <time>2021-09-10T10:02:04Z</time>
      </trkpt>
      <trkpt lat="44.07308" lon="6.04218">
        <ele>642.1</ele>
        <time>2021-09-10T10:02:06Z</time>
      </trkpt>
      <trkpt lat="44.0731" lon="6.04212">
        <ele>642</ele>
        <time>2021-09-10T10:02:07Z</time>
      </trkpt>
      <trkpt lat="44.07313" lon="6.04205">
        <ele>642</ele>
        <time>2021-09-10T10:02:08Z</time>
      </trkpt>
      <trkpt lat="44.07318" lon="6.04191">
        <ele>641.8</ele>
        <time>2021-09-10T10:02:10Z</time>
      </trkpt>
      <trkpt lat="44.07323" lon="6.04177">
        <ele>641.6</ele>
        <time>2021-09-10T10:02:12Z</time>
      </trkpt>
      <trkpt lat="44.07328" lon="6.04167">
        <ele>641.5</ele>
        <time>2021-09-10T10:02:14Z</time>
      </trkpt>
      <trkpt lat="44.07333" lon="6.04161">
        <ele>641.3</ele>
        <time>2021-09-10T10:02:16Z</time>
      </trkpt>
      <trkpt lat="44.07336" lon="6.04157">
        <ele>641.3</ele>
        <time>2021-09-10T10:02:17Z</time>
      </trkpt>
      <trkpt lat="44.07344" lon="6.04152">
        <ele>641.3</ele>
        <time>2021-09-10T10:02:19Z</time>
      </trkpt>
      <trkpt lat="44.07347" lon="6.04151">
        <ele>641.3</ele>
        <time>2021-09-10T10:02:20Z</time>
      </trkpt>
      <trkpt lat="44.07354" lon="6.04151">
        <ele>641.3</ele>
        <time>2021-09-10T10:02:21Z</time>
      </trkpt>
      <trkpt lat="44.07362" lon="6.04154">
        <ele>641.4</ele>
        <time>2021-09-10T10:02:23Z</time>
      </trkpt>
      <trkpt lat="44.07366" lon="6.04157">
        <ele>641.5</ele>
        <time>2021-09-10T10:02:24Z</time>
      </trkpt>
      <trkpt lat="44.07371" lon="6.0416">
        <ele>641.7</ele>
        <time>2021-09-10T10:02:26Z</time>
      </trkpt>
      <trkpt lat="44.07375" lon="6.04162">
        <ele>641.8</ele>
        <time>2021-09-10T10:02:27Z</time>
      </trkpt>
      <trkpt lat="44.07379" lon="6.04163">
        <ele>642</ele>
        <time>2021-09-10T10:02:28Z</time>
      </trkpt>
      <trkpt lat="44.07384" lon="6.04167">
        <ele>642.2</ele>
        <time>2021-09-10T10:02:30Z</time>
      </trkpt>
      <trkpt lat="44.07389" lon="6.04171">
        <ele>642.4</ele>
        <time>2021-09-10T10:02:32Z</time>
      </trkpt>
      <trkpt lat="44.07391" lon="6.04175">
        <ele>642.5</ele>
        <time>2021-09-10T10:02:33Z</time>
      </trkpt>
      <trkpt lat="44.07393" lon="6.04181">
        <ele>642.7</ele>
        <time>2021-09-10T10:02:34Z</time>
      </trkpt>
      <trkpt lat="44.07396" lon="6.04191">
        <ele>642.9</ele>
        <time>2021-09-10T10:02:36Z</time>
      </trkpt>
      <trkpt lat="44.07397" lon="6.04201">
        <ele>643.3</ele>
        <time>2021-09-10T10:02:38Z</time>
      </trkpt>
      <trkpt lat="44.07397" lon="6.04207">
        <ele>643.4</ele>
        <time>2021-09-10T10:02:39Z</time>
      </trkpt>
      <trkpt lat="44.07396" lon="6.04217">
        <ele>643.8</ele>
        <time>2021-09-10T10:02:40Z</time>
      </trkpt>
      <trkpt lat="44.07397" lon="6.04227">
        <ele>644.1</ele>
        <time>2021-09-10T10:02:42Z</time>
      </trkpt>
      <trkpt lat="44.07398" lon="6.04232">
        <ele>644.4</ele>
        <time>2021-09-10T10:02:44Z</time>
      </trkpt>
      <trkpt lat="44.074" lon="6.04237">
        <ele>644.6</ele>
        <time>2021-09-10T10:02:45Z</time>
      </trkpt>
      <trkpt lat="44.074" lon="6.04239">
        <ele>644.7</ele>
        <time>2021-09-10T10:02:46Z</time>
      </trkpt>
      <trkpt lat="44.07401" lon="6.04244">
        <ele>644.9</ele>
        <time>2021-09-10T10:02:47Z</time>
      </trkpt>
      <trkpt lat="44.07403" lon="6.04248">
        <ele>645.2</ele>
        <time>2021-09-10T10:02:49Z</time>
      </trkpt>
      <trkpt lat="44.07404" lon="6.0425">
        <ele>645.4</ele>
        <time>2021-09-10T10:02:50Z</time>
      </trkpt>
      <trkpt lat="44.07406" lon="6.04252">
        <ele>645.5</ele>
        <time>2021-09-10T10:02:52Z</time>
      </trkpt>
      <trkpt lat="44.07407" lon="6.04254">
        <ele>645.7</ele>
        <time>2021-09-10T10:02:53Z</time>
      </trkpt>
      <trkpt lat="44.07408" lon="6.04255">
        <ele>645.8</ele>
        <time>2021-09-10T10:02:55Z</time>
      </trkpt>
      <trkpt lat="44.07408" lon="6.04256">
        <ele>645.8</ele>
        <time>2021-09-10T10:02:56Z</time>
      </trkpt>
      <trkpt lat="44.07409" lon="6.04256">
        <ele>645.9</ele>
        <time>2021-09-10T10:02:58Z</time>
      </trkpt>
      <trkpt lat="44.0741" lon="6.04257">
        <ele>646</ele>
        <time>2021-09-10T10:02:59Z</time>
      </trkpt>
      <trkpt lat="44.0741" lon="6.04258">
        <ele>646.1</ele>
        <time>2021-09-10T10:03:01Z</time>
      </trkpt>
      <trkpt lat="44.07411" lon="6.04258">
        <ele>646.1</ele>
        <time>2021-09-10T10:03:03Z</time>
      </trkpt>
      <trkpt lat="44.07412" lon="6.04259">
        <ele>648.3</ele>
        <time>2021-09-10T10:03:18Z</time>
      </trkpt>
      <trkpt lat="44.07413" lon="6.04259">
        <ele>648.4</ele>
        <time>2021-09-10T10:03:19Z</time>
      </trkpt>
      <trkpt lat="44.07413" lon="6.0426">
        <ele>648.4</ele>
        <time>2021-09-10T10:03:20Z</time>
      </trkpt>
      <trkpt lat="44.07415" lon="6.04262">
        <ele>648.6</ele>
        <time>2021-09-10T10:03:22Z</time>
      </trkpt>
      <trkpt lat="44.07416" lon="6.04263">
        <ele>648.7</ele>
        <time>2021-09-10T10:03:23Z</time>
      </trkpt>
      <trkpt lat="44.07416" lon="6.04264">
        <ele>648.7</ele>
        <time>2021-09-10T10:03:24Z</time>
      </trkpt>
      <trkpt lat="44.07416" lon="6.04265">
        <ele>648.8</ele>
        <time>2021-09-10T10:03:26Z</time>
      </trkpt>
      <trkpt lat="44.07416" lon="6.04266">
        <ele>648.8</ele>
        <time>2021-09-10T10:03:27Z</time>
      </trkpt>
      <trkpt lat="44.07416" lon="6.04266">
        <ele>648.8</ele>
        <time>2021-09-10T10:03:28Z</time>
      </trkpt>
      <trkpt lat="44.07416" lon="6.04267">
        <ele>648.9</ele>
        <time>2021-09-10T10:03:30Z</time>
      </trkpt>
      <trkpt lat="44.07416" lon="6.04267">
        <ele>648.9</ele>
        <time>2021-09-10T10:03:31Z</time>
      </trkpt>
      <trkpt lat="44.07416" lon="6.04267">
        <ele>648.9</ele>
        <time>2021-09-10T10:03:32Z</time>
      </trkpt>
      <trkpt lat="44.0739" lon="6.04288">
        <ele>650.9</ele>
        <time>2021-09-10T10:04:09Z</time>
      </trkpt>
      <trkpt lat="44.07388" lon="6.04289">
        <ele>651</ele>
        <time>2021-09-10T10:04:10Z</time>
      </trkpt>
      <trkpt lat="44.07384" lon="6.04289">
        <ele>651.2</ele>
        <time>2021-09-10T10:04:11Z</time>
      </trkpt>
      <trkpt lat="44.07383" lon="6.04289">
        <ele>651.3</ele>
        <time>2021-09-10T10:04:12Z</time>
      </trkpt>
      <trkpt lat="44.0738" lon="6.04289">
        <ele>651.4</ele>
        <time>2021-09-10T10:04:13Z</time>
      </trkpt>
      <trkpt lat="44.07377" lon="6.04288">
        <ele>651.6</ele>
        <time>2021-09-10T10:04:15Z</time>
      </trkpt>
      <trkpt lat="44.07372" lon="6.04287">
        <ele>651.8</ele>
        <time>2021-09-10T10:04:16Z</time>
      </trkpt>
      <trkpt lat="44.07368" lon="6.04287">
        <ele>651.9</ele>
        <time>2021-09-10T10:04:18Z</time>
      </trkpt>
      <trkpt lat="44.07367" lon="6.04287">
        <ele>651.9</ele>
        <time>2021-09-10T10:04:19Z</time>
      </trkpt>
      <trkpt lat="44.07364" lon="6.04286">
        <ele>652</ele>
        <time>2021-09-10T10:04:20Z</time>
      </trkpt>
      <trkpt lat="44.0736" lon="6.04285">
        <ele>652.1</ele>
        <time>2021-09-10T10:04:22Z</time>
      </trkpt>
      <trkpt lat="44.07357" lon="6.04285">
        <ele>652.2</ele>
        <time>2021-09-10T10:04:23Z</time>
      </trkpt>
      <trkpt lat="44.07352" lon="6.04283">
        <ele>652.3</ele>
        <time>2021-09-10T10:04:24Z</time>
      </trkpt>
      <trkpt lat="44.07348" lon="6.04283">
        <ele>652.4</ele>
        <time>2021-09-10T10:04:26Z</time>
      </trkpt>
      <trkpt lat="44.07343" lon="6.04282">
        <ele>652.5</ele>
        <time>2021-09-10T10:04:28Z</time>
      </trkpt>
      <trkpt lat="44.07337" lon="6.0428">
        <ele>652.6</ele>
        <time>2021-09-10T10:04:29Z</time>
      </trkpt>
      <trkpt lat="44.07334" lon="6.04277">
        <ele>652.6</ele>
        <time>2021-09-10T10:04:31Z</time>
      </trkpt>
      <trkpt lat="44.07331" lon="6.04275">
        <ele>652.6</ele>
        <time>2021-09-10T10:04:32Z</time>
      </trkpt>
      <trkpt lat="44.07326" lon="6.0427">
        <ele>652.6</ele>
        <time>2021-09-10T10:04:34Z</time>
      </trkpt>
      <trkpt lat="44.0732" lon="6.04266">
        <ele>652.6</ele>
        <time>2021-09-10T10:04:35Z</time>
      </trkpt>
      <trkpt lat="44.07317" lon="6.04263">
        <ele>652.5</ele>
        <time>2021-09-10T10:04:37Z</time>
      </trkpt>
      <trkpt lat="44.07314" lon="6.04259">
        <ele>652.5</ele>
        <time>2021-09-10T10:04:38Z</time>
      </trkpt>
      <trkpt lat="44.07313" lon="6.04256">
        <ele>652.5</ele>
        <time>2021-09-10T10:04:39Z</time>
      </trkpt>
      <trkpt lat="44.0731" lon="6.0425">
        <ele>652.4</ele>
        <time>2021-09-10T10:04:40Z</time>
      </trkpt>
      <trkpt lat="44.07307" lon="6.04245">
        <ele>652.3</ele>
        <time>2021-09-10T10:04:41Z</time>
      </trkpt>
      <trkpt lat="44.07303" lon="6.04239">
        <ele>652.2</ele>
        <time>2021-09-10T10:04:43Z</time>
      </trkpt>
      <trkpt lat="44.07301" lon="6.04235">
        <ele>652.1</ele>
        <time>2021-09-10T10:04:44Z</time>
      </trkpt>
      <trkpt lat="44.07297" lon="6.04232">
        <ele>652</ele>
        <time>2021-09-10T10:04:45Z</time>
      </trkpt>
      <trkpt lat="44.07291" lon="6.04229">
        <ele>651.9</ele>
        <time>2021-09-10T10:04:46Z</time>
      </trkpt>
      <trkpt lat="44.07282" lon="6.04228">
        <ele>651.7</ele>
        <time>2021-09-10T10:04:48Z</time>
      </trkpt>
      <trkpt lat="44.07277" lon="6.04229">
        <ele>651.6</ele>
        <time>2021-09-10T10:04:49Z</time>
      </trkpt>
      <trkpt lat="44.07268" lon="6.04233">
        <ele>651.4</ele>
        <time>2021-09-10T10:04:51Z</time>
      </trkpt>
      <trkpt lat="44.07259" lon="6.04238">
        <ele>651.2</ele>
        <time>2021-09-10T10:04:53Z</time>
      </trkpt>
      <trkpt lat="44.07254" lon="6.04241">
        <ele>651.2</ele>
        <time>2021-09-10T10:04:54Z</time>
      </trkpt>
      <trkpt lat="44.0725" lon="6.04244">
        <ele>651.1</ele>
        <time>2021-09-10T10:04:55Z</time>
      </trkpt>
      <trkpt lat="44.07246" lon="6.04247">
        <ele>651</ele>
        <time>2021-09-10T10:04:56Z</time>
      </trkpt>
      <trkpt lat="44.07241" lon="6.04251">
        <ele>651</ele>
        <time>2021-09-10T10:04:57Z</time>
      </trkpt>
      <trkpt lat="44.07233" lon="6.0426">
        <ele>650.9</ele>
        <time>2021-09-10T10:04:59Z</time>
      </trkpt>
      <trkpt lat="44.0723" lon="6.04266">
        <ele>650.8</ele>
        <time>2021-09-10T10:05:00Z</time>
      </trkpt>
      <trkpt lat="44.07224" lon="6.04275">
        <ele>650.8</ele>
        <time>2021-09-10T10:05:02Z</time>
      </trkpt>
      <trkpt lat="44.07216" lon="6.04284">
        <ele>650.8</ele>
        <time>2021-09-10T10:05:04Z</time>
      </trkpt>
      <trkpt lat="44.07212" lon="6.04288">
        <ele>650.8</ele>
        <time>2021-09-10T10:05:05Z</time>
      </trkpt>
      <trkpt lat="44.07209" lon="6.04292">
        <ele>650.8</ele>
        <time>2021-09-10T10:05:06Z</time>
      </trkpt>
      <trkpt lat="44.07202" lon="6.04295">
        <ele>650.9</ele>
        <time>2021-09-10T10:05:08Z</time>
      </trkpt>
      <trkpt lat="44.07198" lon="6.04296">
        <ele>650.9</ele>
        <time>2021-09-10T10:05:09Z</time>
      </trkpt>
      <trkpt lat="44.07194" lon="6.04298">
        <ele>651</ele>
        <time>2021-09-10T10:05:10Z</time>
      </trkpt>
      <trkpt lat="44.07184" lon="6.04298">
        <ele>651.2</ele>
        <time>2021-09-10T10:05:12Z</time>
      </trkpt>
      <trkpt lat="44.07178" lon="6.043">
        <ele>651.4</ele>
        <time>2021-09-10T10:05:13Z</time>
      </trkpt>
      <trkpt lat="44.07177" lon="6.043">
        <ele>651.4</ele>
        <time>2021-09-10T10:05:15Z</time>
      </trkpt>
      <trkpt lat="44.0717" lon="6.04303">
        <ele>651.7</ele>
        <time>2021-09-10T10:05:17Z</time>
      </trkpt>
      <trkpt lat="44.07164" lon="6.04307">
        <ele>652</ele>
        <time>2021-09-10T10:05:18Z</time>
      </trkpt>
      <trkpt lat="44.0716" lon="6.04311">
        <ele>652.2</ele>
        <time>2021-09-10T10:05:20Z</time>
      </trkpt>
      <trkpt lat="44.07157" lon="6.04314">
        <ele>652.4</ele>
        <time>2021-09-10T10:05:22Z</time>
      </trkpt>
      <trkpt lat="44.07154" lon="6.04315">
        <ele>652.6</ele>
        <time>2021-09-10T10:05:23Z</time>
      </trkpt>
      <trkpt lat="44.0715" lon="6.04318">
        <ele>652.8</ele>
        <time>2021-09-10T10:05:25Z</time>
      </trkpt>
      <trkpt lat="44.07148" lon="6.04321">
        <ele>653</ele>
        <time>2021-09-10T10:05:26Z</time>
      </trkpt>
      <trkpt lat="44.07147" lon="6.04321">
        <ele>653.1</ele>
        <time>2021-09-10T10:05:27Z</time>
      </trkpt>
      <trkpt lat="44.07146" lon="6.04322">
        <ele>653.2</ele>
        <time>2021-09-10T10:05:28Z</time>
      </trkpt>
      <trkpt lat="44.07143" lon="6.04323">
        <ele>653.3</ele>
        <time>2021-09-10T10:05:30Z</time>
      </trkpt>
      <trkpt lat="44.07142" lon="6.04324">
        <ele>653.4</ele>
        <time>2021-09-10T10:05:31Z</time>
      </trkpt>
      <trkpt lat="44.07138" lon="6.04326">
        <ele>653.7</ele>
        <time>2021-09-10T10:05:33Z</time>
      </trkpt>
      <trkpt lat="44.07135" lon="6.04327">
        <ele>653.9</ele>
        <time>2021-09-10T10:05:34Z</time>
      </trkpt>
      <trkpt lat="44.07133" lon="6.04327">
        <ele>654.1</ele>
        <time>2021-09-10T10:05:35Z</time>
      </trkpt>
      <trkpt lat="44.07129" lon="6.04328">
        <ele>654.4</ele>
        <time>2021-09-10T10:05:37Z</time>
      </trkpt>
      <trkpt lat="44.07127" lon="6.04329">
        <ele>654.5</ele>
        <time>2021-09-10T10:05:38Z</time>
      </trkpt>
      <trkpt lat="44.07124" lon="6.0433">
        <ele>654.7</ele>
        <time>2021-09-10T10:05:40Z</time>
      </trkpt>
      <trkpt lat="44.07123" lon="6.0433">
        <ele>654.8</ele>
        <time>2021-09-10T10:05:41Z</time>
      </trkpt>
      <trkpt lat="44.07119" lon="6.04329">
        <ele>655.1</ele>
        <time>2021-09-10T10:05:43Z</time>
      </trkpt>
      <trkpt lat="44.07116" lon="6.04331">
        <ele>655.3</ele>
        <time>2021-09-10T10:05:44Z</time>
      </trkpt>
      <trkpt lat="44.07115" lon="6.04331">
        <ele>655.4</ele>
        <time>2021-09-10T10:05:45Z</time>
      </trkpt>
      <trkpt lat="44.07113" lon="6.04332">
        <ele>655.6</ele>
        <time>2021-09-10T10:05:46Z</time>
      </trkpt>
      <trkpt lat="44.07111" lon="6.04333">
        <ele>655.7</ele>
        <time>2021-09-10T10:05:47Z</time>
      </trkpt>
      <trkpt lat="44.07109" lon="6.04333">
        <ele>655.9</ele>
        <time>2021-09-10T10:05:49Z</time>
      </trkpt>
      <trkpt lat="44.07107" lon="6.04333">
        <ele>656</ele>
        <time>2021-09-10T10:05:50Z</time>
      </trkpt>
      <trkpt lat="44.07105" lon="6.04333">
        <ele>656.1</ele>
        <time>2021-09-10T10:05:51Z</time>
      </trkpt>
      <trkpt lat="44.07104" lon="6.04335">
        <ele>656.2</ele>
        <time>2021-09-10T10:05:52Z</time>
      </trkpt>
      <trkpt lat="44.07103" lon="6.04337">
        <ele>656.4</ele>
        <time>2021-09-10T10:05:53Z</time>
      </trkpt>
      <trkpt lat="44.07102" lon="6.0434">
        <ele>656.6</ele>
        <time>2021-09-10T10:05:54Z</time>
      </trkpt>
      <trkpt lat="44.07102" lon="6.04341">
        <ele>656.6</ele>
        <time>2021-09-10T10:05:56Z</time>
      </trkpt>
      <trkpt lat="44.07103" lon="6.04342">
        <ele>656.7</ele>
        <time>2021-09-10T10:05:57Z</time>
      </trkpt>
      <trkpt lat="44.07102" lon="6.04341">
        <ele>656.7</ele>
        <time>2021-09-10T10:05:58Z</time>
      </trkpt>
      <trkpt lat="44.07101" lon="6.04341">
        <ele>656.8</ele>
        <time>2021-09-10T10:06:00Z</time>
      </trkpt>
      <trkpt lat="44.071" lon="6.0434">
        <ele>656.9</ele>
        <time>2021-09-10T10:06:01Z</time>
      </trkpt>
      <trkpt lat="44.07099" lon="6.0434">
        <ele>657</ele>
        <time>2021-09-10T10:06:02Z</time>
      </trkpt>
      <trkpt lat="44.07098" lon="6.04339">
        <ele>657.1</ele>
        <time>2021-09-10T10:06:03Z</time>
      </trkpt>
      <trkpt lat="44.07091" lon="6.04322">
        <ele>658.3</ele>
        <time>2021-09-10T10:06:11Z</time>
      </trkpt>
      <trkpt lat="44.07091" lon="6.04315">
        <ele>658.8</ele>
        <time>2021-09-10T10:06:13Z</time>
      </trkpt>
      <trkpt lat="44.07091" lon="6.0431">
        <ele>659.2</ele>
        <time>2021-09-10T10:06:15Z</time>
      </trkpt>
      <trkpt lat="44.07092" lon="6.04308">
        <ele>659.3</ele>
        <time>2021-09-10T10:06:16Z</time>
      </trkpt>
      <trkpt lat="44.07092" lon="6.04307">
        <ele>659.4</ele>
        <time>2021-09-10T10:06:17Z</time>
      </trkpt>
      <trkpt lat="44.07094" lon="6.04302">
        <ele>659.8</ele>
        <time>2021-09-10T10:06:19Z</time>
      </trkpt>
      <trkpt lat="44.07095" lon="6.04299">
        <ele>660.1</ele>
        <time>2021-09-10T10:06:20Z</time>
      </trkpt>
      <trkpt lat="44.07097" lon="6.04296">
        <ele>660.3</ele>
        <time>2021-09-10T10:06:22Z</time>
      </trkpt>
      <trkpt lat="44.07098" lon="6.04292">
        <ele>660.6</ele>
        <time>2021-09-10T10:06:23Z</time>
      </trkpt>
      <trkpt lat="44.071" lon="6.04287">
        <ele>661</ele>
        <time>2021-09-10T10:06:24Z</time>
      </trkpt>
      <trkpt lat="44.07101" lon="6.04286">
        <ele>661.2</ele>
        <time>2021-09-10T10:06:25Z</time>
      </trkpt>
      <trkpt lat="44.07103" lon="6.04284">
        <ele>661.4</ele>
        <time>2021-09-10T10:06:26Z</time>
      </trkpt>
      <trkpt lat="44.07106" lon="6.04281">
        <ele>661.8</ele>
        <time>2021-09-10T10:06:27Z</time>
      </trkpt>
      <trkpt lat="44.07111" lon="6.0428">
        <ele>662.2</ele>
        <time>2021-09-10T10:06:29Z</time>
      </trkpt>
      <trkpt lat="44.07112" lon="6.04279">
        <ele>662.3</ele>
        <time>2021-09-10T10:06:30Z</time>
      </trkpt>
      <trkpt lat="44.07113" lon="6.04279">
        <ele>662.5</ele>
        <time>2021-09-10T10:06:31Z</time>
      </trkpt>
      <trkpt lat="44.07116" lon="6.04277">
        <ele>662.7</ele>
        <time>2021-09-10T10:06:32Z</time>
      </trkpt>
      <trkpt lat="44.07117" lon="6.04275">
        <ele>662.9</ele>
        <time>2021-09-10T10:06:34Z</time>
      </trkpt>
      <trkpt lat="44.0712" lon="6.04271">
        <ele>663.3</ele>
        <time>2021-09-10T10:06:36Z</time>
      </trkpt>
      <trkpt lat="44.07121" lon="6.04267">
        <ele>663.6</ele>
        <time>2021-09-10T10:06:37Z</time>
      </trkpt>
      <trkpt lat="44.07121" lon="6.04266">
        <ele>663.7</ele>
        <time>2021-09-10T10:06:38Z</time>
      </trkpt>
      <trkpt lat="44.07123" lon="6.04264">
        <ele>663.9</ele>
        <time>2021-09-10T10:06:39Z</time>
      </trkpt>
      <trkpt lat="44.07124" lon="6.04261">
        <ele>664.1</ele>
        <time>2021-09-10T10:06:41Z</time>
      </trkpt>
      <trkpt lat="44.07125" lon="6.0426">
        <ele>664.2</ele>
        <time>2021-09-10T10:06:43Z</time>
      </trkpt>
      <trkpt lat="44.07125" lon="6.04259">
        <ele>664.2</ele>
        <time>2021-09-10T10:06:44Z</time>
      </trkpt>
      <trkpt lat="44.07125" lon="6.04259">
        <ele>664.3</ele>
        <time>2021-09-10T10:06:45Z</time>
      </trkpt>
      <trkpt lat="44.07125" lon="6.04259">
        <ele>664.3</ele>
        <time>2021-09-10T10:06:47Z</time>
      </trkpt>
      <trkpt lat="44.07125" lon="6.04259">
        <ele>664.3</ele>
        <time>2021-09-10T10:06:48Z</time>
      </trkpt>
      <trkpt lat="44.07128" lon="6.04134">
        <ele>672.3</ele>
        <time>2021-09-10T10:09:53Z</time>
      </trkpt>
      <trkpt lat="44.07128" lon="6.04132">
        <ele>672.4</ele>
        <time>2021-09-10T10:09:55Z</time>
      </trkpt>
      <trkpt lat="44.07128" lon="6.04129">
        <ele>672.6</ele>
        <time>2021-09-10T10:09:56Z</time>
      </trkpt>
      <trkpt lat="44.07129" lon="6.04125">
        <ele>672.8</ele>
        <time>2021-09-10T10:09:57Z</time>
      </trkpt>
      <trkpt lat="44.07129" lon="6.04123">
        <ele>672.9</ele>
        <time>2021-09-10T10:09:58Z</time>
      </trkpt>
      <trkpt lat="44.0713" lon="6.0412">
        <ele>673.1</ele>
        <time>2021-09-10T10:09:59Z</time>
      </trkpt>
      <trkpt lat="44.07131" lon="6.04118">
        <ele>673.2</ele>
        <time>2021-09-10T10:10:01Z</time>
      </trkpt>
      <trkpt lat="44.07133" lon="6.04114">
        <ele>673.4</ele>
        <time>2021-09-10T10:10:03Z</time>
      </trkpt>
      <trkpt lat="44.07133" lon="6.04112">
        <ele>673.5</ele>
        <time>2021-09-10T10:10:04Z</time>
      </trkpt>
      <trkpt lat="44.07134" lon="6.04111">
        <ele>673.6</ele>
        <time>2021-09-10T10:10:05Z</time>
      </trkpt>
      <trkpt lat="44.07135" lon="6.0411">
        <ele>673.7</ele>
        <time>2021-09-10T10:10:06Z</time>
      </trkpt>
      <trkpt lat="44.07135" lon="6.0411">
        <ele>673.7</ele>
        <time>2021-09-10T10:10:08Z</time>
      </trkpt>
      <trkpt lat="44.07135" lon="6.04109">
        <ele>673.7</ele>
        <time>2021-09-10T10:10:10Z</time>
      </trkpt>
      <trkpt lat="44.07136" lon="6.04109">
        <ele>673.7</ele>
        <time>2021-09-10T10:10:11Z</time>
      </trkpt>
      <trkpt lat="44.07136" lon="6.04109">
        <ele>673.8</ele>
        <time>2021-09-10T10:10:13Z</time>
      </trkpt>
      <trkpt lat="44.07136" lon="6.04108">
        <ele>673.8</ele>
        <time>2021-09-10T10:10:15Z</time>
      </trkpt>
      <trkpt lat="44.07137" lon="6.04108">
        <ele>673.8</ele>
        <time>2021-09-10T10:10:16Z</time>
      </trkpt>
      <trkpt lat="44.07137" lon="6.04108">
        <ele>673.8</ele>
        <time>2021-09-10T10:10:17Z</time>
      </trkpt>
      <trkpt lat="44.07138" lon="6.04106">
        <ele>673.9</ele>
        <time>2021-09-10T10:10:19Z</time>
      </trkpt>
      <trkpt lat="44.07138" lon="6.04098">
        <ele>674.2</ele>
        <time>2021-09-10T10:10:22Z</time>
      </trkpt>
      <trkpt lat="44.07139" lon="6.04091">
        <ele>674.5</ele>
        <time>2021-09-10T10:10:24Z</time>
      </trkpt>
      <trkpt lat="44.07139" lon="6.04085">
        <ele>674.6</ele>
        <time>2021-09-10T10:10:26Z</time>
      </trkpt>
      <trkpt lat="44.07138" lon="6.0408">
        <ele>674.8</ele>
        <time>2021-09-10T10:10:27Z</time>
      </trkpt>
      <trkpt lat="44.07138" lon="6.04074">
        <ele>674.9</ele>
        <time>2021-09-10T10:10:28Z</time>
      </trkpt>
      <trkpt lat="44.07138" lon="6.0407">
        <ele>675</ele>
        <time>2021-09-10T10:10:30Z</time>
      </trkpt>
      <trkpt lat="44.07136" lon="6.04064">
        <ele>675.2</ele>
        <time>2021-09-10T10:10:31Z</time>
      </trkpt>
      <trkpt lat="44.07135" lon="6.04059">
        <ele>675.3</ele>
        <time>2021-09-10T10:10:32Z</time>
      </trkpt>
      <trkpt lat="44.07135" lon="6.04054">
        <ele>675.4</ele>
        <time>2021-09-10T10:10:34Z</time>
      </trkpt>
      <trkpt lat="44.07134" lon="6.0405">
        <ele>675.4</ele>
        <time>2021-09-10T10:10:35Z</time>
      </trkpt>
      <trkpt lat="44.07134" lon="6.04044">
        <ele>675.5</ele>
        <time>2021-09-10T10:10:37Z</time>
      </trkpt>
      <trkpt lat="44.07133" lon="6.04039">
        <ele>675.6</ele>
        <time>2021-09-10T10:10:38Z</time>
      </trkpt>
      <trkpt lat="44.07133" lon="6.04035">
        <ele>675.7</ele>
        <time>2021-09-10T10:10:40Z</time>
      </trkpt>
      <trkpt lat="44.07133" lon="6.04032">
        <ele>675.7</ele>
        <time>2021-09-10T10:10:41Z</time>
      </trkpt>
      <trkpt lat="44.07133" lon="6.04027">
        <ele>675.8</ele>
        <time>2021-09-10T10:10:43Z</time>
      </trkpt>
      <trkpt lat="44.07131" lon="6.04021">
        <ele>675.9</ele>
        <time>2021-09-10T10:10:44Z</time>
      </trkpt>
      <trkpt lat="44.07129" lon="6.04015">
        <ele>676</ele>
        <time>2021-09-10T10:10:46Z</time>
      </trkpt>
      <trkpt lat="44.07129" lon="6.04013">
        <ele>676</ele>
        <time>2021-09-10T10:10:47Z</time>
      </trkpt>
      <trkpt lat="44.07129" lon="6.04012">
        <ele>676</ele>
        <time>2021-09-10T10:10:48Z</time>
      </trkpt>
      <trkpt lat="44.07129" lon="6.04009">
        <ele>676.1</ele>
        <time>2021-09-10T10:10:49Z</time>
      </trkpt>
      <trkpt lat="44.0713" lon="6.04005">
        <ele>676.2</ele>
        <time>2021-09-10T10:10:51Z</time>
      </trkpt>
      <trkpt lat="44.0713" lon="6.04001">
        <ele>676.3</ele>
        <time>2021-09-10T10:10:52Z</time>
      </trkpt>
      <trkpt lat="44.07131" lon="6.03999">
        <ele>676.3</ele>
        <time>2021-09-10T10:10:53Z</time>
      </trkpt>
      <trkpt lat="44.07132" lon="6.03996">
        <ele>676.4</ele>
        <time>2021-09-10T10:10:54Z</time>
      </trkpt>
      <trkpt lat="44.07133" lon="6.03992">
        <ele>676.5</ele>
        <time>2021-09-10T10:10:55Z</time>
      </trkpt>
      <trkpt lat="44.07134" lon="6.03988">
        <ele>676.5</ele>
        <time>2021-09-10T10:10:57Z</time>
      </trkpt>
      <trkpt lat="44.07135" lon="6.03985">
        <ele>676.6</ele>
        <time>2021-09-10T10:10:58Z</time>
      </trkpt>
      <trkpt lat="44.07137" lon="6.03979">
        <ele>676.8</ele>
        <time>2021-09-10T10:11:00Z</time>
      </trkpt>
      <trkpt lat="44.07138" lon="6.03977">
        <ele>676.8</ele>
        <time>2021-09-10T10:11:01Z</time>
      </trkpt>
      <trkpt lat="44.07139" lon="6.03975">
        <ele>676.9</ele>
        <time>2021-09-10T10:11:02Z</time>
      </trkpt>
      <trkpt lat="44.07141" lon="6.03971">
        <ele>677</ele>
        <time>2021-09-10T10:11:03Z</time>
      </trkpt>
      <trkpt lat="44.07141" lon="6.03967">
        <ele>677.1</ele>
        <time>2021-09-10T10:11:05Z</time>
      </trkpt>
      <trkpt lat="44.0714" lon="6.03963">
        <ele>677.2</ele>
        <time>2021-09-10T10:11:06Z</time>
      </trkpt>
      <trkpt lat="44.0714" lon="6.03962">
        <ele>677.2</ele>
        <time>2021-09-10T10:11:07Z</time>
      </trkpt>
      <trkpt lat="44.07139" lon="6.03956">
        <ele>677.4</ele>
        <time>2021-09-10T10:11:09Z</time>
      </trkpt>
      <trkpt lat="44.07138" lon="6.03954">
        <ele>677.5</ele>
        <time>2021-09-10T10:11:10Z</time>
      </trkpt>
      <trkpt lat="44.07138" lon="6.03952">
        <ele>677.6</ele>
        <time>2021-09-10T10:11:11Z</time>
      </trkpt>
      <trkpt lat="44.07135" lon="6.03949">
        <ele>677.8</ele>
        <time>2021-09-10T10:11:13Z</time>
      </trkpt>
      <trkpt lat="44.07134" lon="6.03947">
        <ele>677.9</ele>
        <time>2021-09-10T10:11:14Z</time>
      </trkpt>
      <trkpt lat="44.07132" lon="6.03945">
        <ele>678</ele>
        <time>2021-09-10T10:11:16Z</time>
      </trkpt>
      <trkpt lat="44.0713" lon="6.03944">
        <ele>678.2</ele>
        <time>2021-09-10T10:11:17Z</time>
      </trkpt>
      <trkpt lat="44.07129" lon="6.03944">
        <ele>678.3</ele>
        <time>2021-09-10T10:11:18Z</time>
      </trkpt>
      <trkpt lat="44.07127" lon="6.03944">
        <ele>678.4</ele>
        <time>2021-09-10T10:11:19Z</time>
      </trkpt>
      <trkpt lat="44.07126" lon="6.03943">
        <ele>678.5</ele>
        <time>2021-09-10T10:11:21Z</time>
      </trkpt>
      <trkpt lat="44.07125" lon="6.03942">
        <ele>678.6</ele>
        <time>2021-09-10T10:11:22Z</time>
      </trkpt>
      <trkpt lat="44.07124" lon="6.03942">
        <ele>678.6</ele>
        <time>2021-09-10T10:11:23Z</time>
      </trkpt>
      <trkpt lat="44.07125" lon="6.03942">
        <ele>678.6</ele>
        <time>2021-09-10T10:11:24Z</time>
      </trkpt>
      <trkpt lat="44.07124" lon="6.03941">
        <ele>678.7</ele>
        <time>2021-09-10T10:11:25Z</time>
      </trkpt>
      <trkpt lat="44.07122" lon="6.03939">
        <ele>678.9</ele>
        <time>2021-09-10T10:11:27Z</time>
      </trkpt>
      <trkpt lat="44.0712" lon="6.03939">
        <ele>679</ele>
        <time>2021-09-10T10:11:28Z</time>
      </trkpt>
      <trkpt lat="44.07119" lon="6.03938">
        <ele>679.1</ele>
        <time>2021-09-10T10:11:29Z</time>
      </trkpt>
      <trkpt lat="44.07116" lon="6.03938">
        <ele>679.3</ele>
        <time>2021-09-10T10:11:31Z</time>
      </trkpt>
      <trkpt lat="44.07114" lon="6.03938">
        <ele>679.4</ele>
        <time>2021-09-10T10:11:32Z</time>
      </trkpt>
      <trkpt lat="44.07115" lon="6.03939">
        <ele>679.4</ele>
        <time>2021-09-10T10:11:34Z</time>
      </trkpt>
      <trkpt lat="44.07114" lon="6.03939">
        <ele>679.5</ele>
        <time>2021-09-10T10:11:35Z</time>
      </trkpt>
      <trkpt lat="44.07114" lon="6.03939">
        <ele>679.5</ele>
        <time>2021-09-10T10:11:36Z</time>
      </trkpt>
      <trkpt lat="44.07112" lon="6.0394">
        <ele>679.7</ele>
        <time>2021-09-10T10:11:38Z</time>
      </trkpt>
      <trkpt lat="44.07111" lon="6.03939">
        <ele>679.7</ele>
        <time>2021-09-10T10:11:39Z</time>
      </trkpt>
      <trkpt lat="44.07111" lon="6.03939">
        <ele>679.8</ele>
        <time>2021-09-10T10:11:40Z</time>
      </trkpt>
      <trkpt lat="44.0711" lon="6.03939">
        <ele>679.8</ele>
        <time>2021-09-10T10:11:41Z</time>
      </trkpt>
      <trkpt lat="44.071" lon="6.03927">
        <ele>680.8</ele>
        <time>2021-09-10T10:11:49Z</time>
      </trkpt>
      <trkpt lat="44.07099" lon="6.03922">
        <ele>681.1</ele>
        <time>2021-09-10T10:11:51Z</time>
      </trkpt>
      <trkpt lat="44.07098" lon="6.03918">
        <ele>681.3</ele>
        <time>2021-09-10T10:11:52Z</time>
      </trkpt>
      <trkpt lat="44.07097" lon="6.03912">
        <ele>681.6</ele>
        <time>2021-09-10T10:11:53Z</time>
      </trkpt>
      <trkpt lat="44.07096" lon="6.03905">
        <ele>681.9</ele>
        <time>2021-09-10T10:11:55Z</time>
      </trkpt>
      <trkpt lat="44.07095" lon="6.03901">
        <ele>682.1</ele>
        <time>2021-09-10T10:11:56Z</time>
      </trkpt>
      <trkpt lat="44.07093" lon="6.03898">
        <ele>682.3</ele>
        <time>2021-09-10T10:11:57Z</time>
      </trkpt>
      <trkpt lat="44.0709" lon="6.03896">
        <ele>682.5</ele>
        <time>2021-09-10T10:11:58Z</time>
      </trkpt>
      <trkpt lat="44.07087" lon="6.03894">
        <ele>682.7</ele>
        <time>2021-09-10T10:11:59Z</time>
      </trkpt>
      <trkpt lat="44.07083" lon="6.03892">
        <ele>683</ele>
        <time>2021-09-10T10:12:01Z</time>
      </trkpt>
      <trkpt lat="44.0708" lon="6.03892">
        <ele>683.2</ele>
        <time>2021-09-10T10:12:02Z</time>
      </trkpt>
      <trkpt lat="44.07079" lon="6.03892">
        <ele>683.2</ele>
        <time>2021-09-10T10:12:03Z</time>
      </trkpt>
      <trkpt lat="44.07077" lon="6.03893">
        <ele>683.4</ele>
        <time>2021-09-10T10:12:04Z</time>
      </trkpt>
      <trkpt lat="44.07075" lon="6.03895">
        <ele>683.6</ele>
        <time>2021-09-10T10:12:06Z</time>
      </trkpt>
      <trkpt lat="44.07073" lon="6.03898">
        <ele>683.8</ele>
        <time>2021-09-10T10:12:07Z</time>
      </trkpt>
      <trkpt lat="44.07073" lon="6.03902">
        <ele>684.1</ele>
        <time>2021-09-10T10:12:09Z</time>
      </trkpt>
      <trkpt lat="44.07073" lon="6.03903">
        <ele>684.1</ele>
        <time>2021-09-10T10:12:10Z</time>
      </trkpt>
      <trkpt lat="44.07073" lon="6.03907">
        <ele>684.3</ele>
        <time>2021-09-10T10:12:12Z</time>
      </trkpt>
      <trkpt lat="44.07073" lon="6.03907">
        <ele>684.4</ele>
        <time>2021-09-10T10:12:13Z</time>
      </trkpt>
      <trkpt lat="44.07073" lon="6.03908">
        <ele>684.4</ele>
        <time>2021-09-10T10:12:14Z</time>
      </trkpt>
      <trkpt lat="44.07073" lon="6.03909">
        <ele>684.5</ele>
        <time>2021-09-10T10:12:15Z</time>
      </trkpt>
      <trkpt lat="44.07074" lon="6.03912">
        <ele>684.7</ele>
        <time>2021-09-10T10:12:17Z</time>
      </trkpt>
      <trkpt lat="44.07074" lon="6.03915">
        <ele>684.9</ele>
        <time>2021-09-10T10:12:18Z</time>
      </trkpt>
      <trkpt lat="44.07073" lon="6.03916">
        <ele>684.9</ele>
        <time>2021-09-10T10:12:20Z</time>
      </trkpt>
      <trkpt lat="44.07073" lon="6.03918">
        <ele>685</ele>
        <time>2021-09-10T10:12:21Z</time>
      </trkpt>
      <trkpt lat="44.07073" lon="6.03919">
        <ele>685.1</ele>
        <time>2021-09-10T10:12:23Z</time>
      </trkpt>
      <trkpt lat="44.07073" lon="6.0392">
        <ele>685.2</ele>
        <time>2021-09-10T10:12:24Z</time>
      </trkpt>
      <trkpt lat="44.07074" lon="6.03925">
        <ele>685.4</ele>
        <time>2021-09-10T10:12:25Z</time>
      </trkpt>
      <trkpt lat="44.07076" lon="6.03929">
        <ele>685.7</ele>
        <time>2021-09-10T10:12:26Z</time>
      </trkpt>
      <trkpt lat="44.07077" lon="6.0393">
        <ele>685.8</ele>
        <time>2021-09-10T10:12:27Z</time>
      </trkpt>
      <trkpt lat="44.07077" lon="6.03935">
        <ele>686</ele>
        <time>2021-09-10T10:12:29Z</time>
      </trkpt>
      <trkpt lat="44.07078" lon="6.03937">
        <ele>686.1</ele>
        <time>2021-09-10T10:12:30Z</time>
      </trkpt>
      <trkpt lat="44.07079" lon="6.03939">
        <ele>686.2</ele>
        <time>2021-09-10T10:12:31Z</time>
      </trkpt>
      <trkpt lat="44.07081" lon="6.0394">
        <ele>686.3</ele>
        <time>2021-09-10T10:12:33Z</time>
      </trkpt>
      <trkpt lat="44.07081" lon="6.0394">
        <ele>686.4</ele>
        <time>2021-09-10T10:12:34Z</time>
      </trkpt>
      <trkpt lat="44.07082" lon="6.0394">
        <ele>686.4</ele>
        <time>2021-09-10T10:12:35Z</time>
      </trkpt>
      <trkpt lat="44.07083" lon="6.0394">
        <ele>686.5</ele>
        <time>2021-09-10T10:12:37Z</time>
      </trkpt>
      <trkpt lat="44.07084" lon="6.03941">
        <ele>686.6</ele>
        <time>2021-09-10T10:12:38Z</time>
      </trkpt>
      <trkpt lat="44.07088" lon="6.03943">
        <ele>686.8</ele>
        <time>2021-09-10T10:12:40Z</time>
      </trkpt>
      <trkpt lat="44.07091" lon="6.03946">
        <ele>687</ele>
        <time>2021-09-10T10:12:42Z</time>
      </trkpt>
      <trkpt lat="44.07092" lon="6.03948">
        <ele>687.1</ele>
        <time>2021-09-10T10:12:43Z</time>
      </trkpt>
      <trkpt lat="44.07093" lon="6.0395">
        <ele>687.2</ele>
        <time>2021-09-10T10:12:44Z</time>
      </trkpt>
      <trkpt lat="44.07094" lon="6.03952">
        <ele>687.3</ele>
        <time>2021-09-10T10:12:45Z</time>
      </trkpt>
      <trkpt lat="44.07094" lon="6.03953">
        <ele>687.4</ele>
        <time>2021-09-10T10:12:46Z</time>
      </trkpt>
      <trkpt lat="44.07095" lon="6.03954">
        <ele>687.4</ele>
        <time>2021-09-10T10:12:48Z</time>
      </trkpt>
      <trkpt lat="44.07097" lon="6.03957">
        <ele>687.6</ele>
        <time>2021-09-10T10:12:49Z</time>
      </trkpt>
      <trkpt lat="44.07098" lon="6.0396">
        <ele>687.7</ele>
        <time>2021-09-10T10:12:51Z</time>
      </trkpt>
      <trkpt lat="44.071" lon="6.03963">
        <ele>687.9</ele>
        <time>2021-09-10T10:12:53Z</time>
      </trkpt>
      <trkpt lat="44.07103" lon="6.03965">
        <ele>688.1</ele>
        <time>2021-09-10T10:12:54Z</time>
      </trkpt>
      <trkpt lat="44.07104" lon="6.03967">
        <ele>688.2</ele>
        <time>2021-09-10T10:12:55Z</time>
      </trkpt>
      <trkpt lat="44.07105" lon="6.03967">
        <ele>688.2</ele>
        <time>2021-09-10T10:12:56Z</time>
      </trkpt>
      <trkpt lat="44.07105" lon="6.03966">
        <ele>688.2</ele>
        <time>2021-09-10T10:12:58Z</time>
      </trkpt>
      <trkpt lat="44.07105" lon="6.03966">
        <ele>688.2</ele>
        <time>2021-09-10T10:12:59Z</time>
      </trkpt>
      <trkpt lat="44.07106" lon="6.03967">
        <ele>688.3</ele>
        <time>2021-09-10T10:13:00Z</time>
      </trkpt>
      <trkpt lat="44.07106" lon="6.03967">
        <ele>688.3</ele>
        <time>2021-09-10T10:13:02Z</time>
      </trkpt>
      <trkpt lat="44.07106" lon="6.03967">
        <ele>688.3</ele>
        <time>2021-09-10T10:13:03Z</time>
      </trkpt>
      <trkpt lat="44.07106" lon="6.03967">
        <ele>688.3</ele>
        <time>2021-09-10T10:13:05Z</time>
      </trkpt>
      <trkpt lat="44.07096" lon="6.04029">
        <ele>694.7</ele>
        <time>2021-09-10T10:19:24Z</time>
      </trkpt>
      <trkpt lat="44.07093" lon="6.04033">
        <ele>695.2</ele>
        <time>2021-09-10T10:19:26Z</time>
      </trkpt>
      <trkpt lat="44.07091" lon="6.04034">
        <ele>695.4</ele>
        <time>2021-09-10T10:19:27Z</time>
      </trkpt>
      <trkpt lat="44.07089" lon="6.04037">
        <ele>695.8</ele>
        <time>2021-09-10T10:19:29Z</time>
      </trkpt>
      <trkpt lat="44.07089" lon="6.04038">
        <ele>695.8</ele>
        <time>2021-09-10T10:19:30Z</time>
      </trkpt>
      <trkpt lat="44.07088" lon="6.04038">
        <ele>695.9</ele>
        <time>2021-09-10T10:19:32Z</time>
      </trkpt>
      <trkpt lat="44.07088" lon="6.04039">
        <ele>695.9</ele>
        <time>2021-09-10T10:19:33Z</time>
      </trkpt>
      <trkpt lat="44.07087" lon="6.04039">
        <ele>696</ele>
        <time>2021-09-10T10:19:34Z</time>
      </trkpt>
      <trkpt lat="44.07087" lon="6.04039">
        <ele>696.1</ele>
        <time>2021-09-10T10:19:36Z</time>
      </trkpt>
      <trkpt lat="44.07086" lon="6.0404">
        <ele>696.1</ele>
        <time>2021-09-10T10:19:37Z</time>
      </trkpt>
      <trkpt lat="44.07063" lon="6.04157">
        <ele>705.2</ele>
        <time>2021-09-10T10:23:49Z</time>
      </trkpt>
      <trkpt lat="44.07061" lon="6.0416">
        <ele>705.6</ele>
        <time>2021-09-10T10:23:50Z</time>
      </trkpt>
      <trkpt lat="44.07059" lon="6.04166">
        <ele>706</ele>
        <time>2021-09-10T10:23:52Z</time>
      </trkpt>
      <trkpt lat="44.07058" lon="6.04168">
        <ele>706.2</ele>
        <time>2021-09-10T10:23:53Z</time>
      </trkpt>
      <trkpt lat="44.07058" lon="6.0417">
        <ele>706.4</ele>
        <time>2021-09-10T10:23:54Z</time>
      </trkpt>
      <trkpt lat="44.07056" lon="6.04173">
        <ele>706.7</ele>
        <time>2021-09-10T10:23:55Z</time>
      </trkpt>
      <trkpt lat="44.07055" lon="6.04174">
        <ele>706.8</ele>
        <time>2021-09-10T10:23:56Z</time>
      </trkpt>
      <trkpt lat="44.07053" lon="6.04178">
        <ele>707.1</ele>
        <time>2021-09-10T10:23:58Z</time>
      </trkpt>
      <trkpt lat="44.07053" lon="6.04179">
        <ele>707.3</ele>
        <time>2021-09-10T10:23:59Z</time>
      </trkpt>
      <trkpt lat="44.07052" lon="6.04181">
        <ele>707.4</ele>
        <time>2021-09-10T10:24:00Z</time>
      </trkpt>
      <trkpt lat="44.07051" lon="6.04183">
        <ele>707.6</ele>
        <time>2021-09-10T10:24:01Z</time>
      </trkpt>
      <trkpt lat="44.0705" lon="6.04185">
        <ele>707.7</ele>
        <time>2021-09-10T10:24:03Z</time>
      </trkpt>
      <trkpt lat="44.0705" lon="6.04186">
        <ele>707.8</ele>
        <time>2021-09-10T10:24:04Z</time>
      </trkpt>
      <trkpt lat="44.07049" lon="6.04187">
        <ele>707.9</ele>
        <time>2021-09-10T10:24:05Z</time>
      </trkpt>
      <trkpt lat="44.07048" lon="6.04188">
        <ele>708.1</ele>
        <time>2021-09-10T10:24:06Z</time>
      </trkpt>
      <trkpt lat="44.07047" lon="6.04191">
        <ele>708.3</ele>
        <time>2021-09-10T10:24:08Z</time>
      </trkpt>
      <trkpt lat="44.07046" lon="6.04192">
        <ele>708.4</ele>
        <time>2021-09-10T10:24:09Z</time>
      </trkpt>
      <trkpt lat="44.07046" lon="6.04193">
        <ele>708.6</ele>
        <time>2021-09-10T10:24:10Z</time>
      </trkpt>
      <trkpt lat="44.07045" lon="6.04194">
        <ele>708.6</ele>
        <time>2021-09-10T10:24:11Z</time>
      </trkpt>
      <trkpt lat="44.07044" lon="6.04195">
        <ele>708.8</ele>
        <time>2021-09-10T10:24:12Z</time>
      </trkpt>
      <trkpt lat="44.07043" lon="6.04195">
        <ele>708.9</ele>
        <time>2021-09-10T10:24:13Z</time>
      </trkpt>
      <trkpt lat="44.07042" lon="6.04194">
        <ele>709</ele>
        <time>2021-09-10T10:24:14Z</time>
      </trkpt>
      <trkpt lat="44.07042" lon="6.04193">
        <ele>709.1</ele>
        <time>2021-09-10T10:24:15Z</time>
      </trkpt>
      <trkpt lat="44.07041" lon="6.04194">
        <ele>709.2</ele>
        <time>2021-09-10T10:24:17Z</time>
      </trkpt>
      <trkpt lat="44.0704" lon="6.04195">
        <ele>709.3</ele>
        <time>2021-09-10T10:24:18Z</time>
      </trkpt>
      <trkpt lat="44.0704" lon="6.04196">
        <ele>709.4</ele>
        <time>2021-09-10T10:24:19Z</time>
      </trkpt>
      <trkpt lat="44.0704" lon="6.04196">
        <ele>709.5</ele>
        <time>2021-09-10T10:24:20Z</time>
      </trkpt>
      <trkpt lat="44.0704" lon="6.04197">
        <ele>709.5</ele>
        <time>2021-09-10T10:24:21Z</time>
      </trkpt>
      <trkpt lat="44.0704" lon="6.04198">
        <ele>709.6</ele>
        <time>2021-09-10T10:24:23Z</time>
      </trkpt>
      <trkpt lat="44.0704" lon="6.04198">
        <ele>709.6</ele>
        <time>2021-09-10T10:24:24Z</time>
      </trkpt>
      <trkpt lat="44.07039" lon="6.04198">
        <ele>709.6</ele>
        <time>2021-09-10T10:24:26Z</time>
      </trkpt>
      <trkpt lat="44.07039" lon="6.04198">
        <ele>709.6</ele>
        <time>2021-09-10T10:24:28Z</time>
      </trkpt>
      <trkpt lat="44.0703" lon="6.04214">
        <ele>711.3</ele>
        <time>2021-09-10T10:24:45Z</time>
      </trkpt>
      <trkpt lat="44.07027" lon="6.04217">
        <ele>711.8</ele>
        <time>2021-09-10T10:24:47Z</time>
      </trkpt>
      <trkpt lat="44.07025" lon="6.04218">
        <ele>712</ele>
        <time>2021-09-10T10:24:48Z</time>
      </trkpt>
      <trkpt lat="44.07021" lon="6.04219">
        <ele>712.5</ele>
        <time>2021-09-10T10:24:50Z</time>
      </trkpt>
      <trkpt lat="44.0702" lon="6.04219">
        <ele>712.6</ele>
        <time>2021-09-10T10:24:51Z</time>
      </trkpt>
      <trkpt lat="44.07018" lon="6.0422">
        <ele>712.8</ele>
        <time>2021-09-10T10:24:52Z</time>
      </trkpt>
      <trkpt lat="44.07015" lon="6.04221">
        <ele>713.2</ele>
        <time>2021-09-10T10:24:54Z</time>
      </trkpt>
      <trkpt lat="44.07014" lon="6.04221">
        <ele>713.4</ele>
        <time>2021-09-10T10:24:55Z</time>
      </trkpt>
      <trkpt lat="44.07012" lon="6.04222">
        <ele>713.6</ele>
        <time>2021-09-10T10:24:56Z</time>
      </trkpt>
      <trkpt lat="44.0701" lon="6.04224">
        <ele>713.9</ele>
        <time>2021-09-10T10:24:58Z</time>
      </trkpt>
      <trkpt lat="44.07008" lon="6.04225">
        <ele>714.1</ele>
        <time>2021-09-10T10:24:59Z</time>
      </trkpt>
      <trkpt lat="44.07006" lon="6.04227">
        <ele>714.5</ele>
        <time>2021-09-10T10:25:01Z</time>
      </trkpt>
      <trkpt lat="44.07003" lon="6.04229">
        <ele>714.8</ele>
        <time>2021-09-10T10:25:02Z</time>
      </trkpt>
      <trkpt lat="44.07002" lon="6.0423">
        <ele>714.9</ele>
        <time>2021-09-10T10:25:03Z</time>
      </trkpt>
      <trkpt lat="44.07001" lon="6.04231">
        <ele>715.2</ele>
        <time>2021-09-10T10:25:04Z</time>
      </trkpt>
      <trkpt lat="44.07" lon="6.04232">
        <ele>715.2</ele>
        <time>2021-09-10T10:25:05Z</time>
      </trkpt>
      <trkpt lat="44.07" lon="6.04232">
        <ele>715.3</ele>
        <time>2021-09-10T10:25:06Z</time>
      </trkpt>
      <trkpt lat="44.06999" lon="6.04232">
        <ele>715.3</ele>
        <time>2021-09-10T10:25:08Z</time>
      </trkpt>
      <trkpt lat="44.06999" lon="6.04233">
        <ele>715.4</ele>
        <time>2021-09-10T10:25:09Z</time>
      </trkpt>
      <trkpt lat="44.06998" lon="6.04232">
        <ele>715.5</ele>
        <time>2021-09-10T10:25:10Z</time>
      </trkpt>
      <trkpt lat="44.06996" lon="6.04232">
        <ele>715.7</ele>
        <time>2021-09-10T10:25:12Z</time>
      </trkpt>
      <trkpt lat="44.06994" lon="6.04233">
        <ele>716</ele>
        <time>2021-09-10T10:25:13Z</time>
      </trkpt>
      <trkpt lat="44.06993" lon="6.04233">
        <ele>716.1</ele>
        <time>2021-09-10T10:25:14Z</time>
      </trkpt>
      <trkpt lat="44.06992" lon="6.04233">
        <ele>716.2</ele>
        <time>2021-09-10T10:25:16Z</time>
      </trkpt>
      <trkpt lat="44.06988" lon="6.04235">
        <ele>716.8</ele>
        <time>2021-09-10T10:25:18Z</time>
      </trkpt>
      <trkpt lat="44.06985" lon="6.04236">
        <ele>717.2</ele>
        <time>2021-09-10T10:25:20Z</time>
      </trkpt>
      <trkpt lat="44.06981" lon="6.04237">
        <ele>717.6</ele>
        <time>2021-09-10T10:25:22Z</time>
      </trkpt>
      <trkpt lat="44.0698" lon="6.04237">
        <ele>717.7</ele>
        <time>2021-09-10T10:25:23Z</time>
      </trkpt>
      <trkpt lat="44.06978" lon="6.04237">
        <ele>718</ele>
        <time>2021-09-10T10:25:25Z</time>
      </trkpt>
      <trkpt lat="44.06978" lon="6.04237">
        <ele>718</ele>
        <time>2021-09-10T10:25:26Z</time>
      </trkpt>
      <trkpt lat="44.06977" lon="6.04237">
        <ele>718</ele>
        <time>2021-09-10T10:25:28Z</time>
      </trkpt>
      <trkpt lat="44.06977" lon="6.04237">
        <ele>718.1</ele>
        <time>2021-09-10T10:25:29Z</time>
      </trkpt>
      <trkpt lat="44.06976" lon="6.04238">
        <ele>718.2</ele>
        <time>2021-09-10T10:25:30Z</time>
      </trkpt>
      <trkpt lat="44.06969" lon="6.04245">
        <ele>719.2</ele>
        <time>2021-09-10T10:25:35Z</time>
      </trkpt>
      <trkpt lat="44.06966" lon="6.04249">
        <ele>719.7</ele>
        <time>2021-09-10T10:25:37Z</time>
      </trkpt>
      <trkpt lat="44.06965" lon="6.04252">
        <ele>720</ele>
        <time>2021-09-10T10:25:38Z</time>
      </trkpt>
      <trkpt lat="44.06963" lon="6.04255">
        <ele>720.2</ele>
        <time>2021-09-10T10:25:40Z</time>
      </trkpt>
      <trkpt lat="44.06963" lon="6.04256">
        <ele>720.3</ele>
        <time>2021-09-10T10:25:41Z</time>
      </trkpt>
      <trkpt lat="44.06963" lon="6.04257">
        <ele>720.4</ele>
        <time>2021-09-10T10:25:43Z</time>
      </trkpt>
      <trkpt lat="44.06963" lon="6.04257">
        <ele>720.4</ele>
        <time>2021-09-10T10:25:44Z</time>
      </trkpt>
      <trkpt lat="44.06963" lon="6.04258">
        <ele>720.5</ele>
        <time>2021-09-10T10:25:46Z</time>
      </trkpt>
      <trkpt lat="44.06962" lon="6.0426">
        <ele>720.7</ele>
        <time>2021-09-10T10:25:47Z</time>
      </trkpt>
      <trkpt lat="44.06961" lon="6.04276">
        <ele>721.9</ele>
        <time>2021-09-10T10:25:55Z</time>
      </trkpt>
      <trkpt lat="44.06962" lon="6.04279">
        <ele>722.1</ele>
        <time>2021-09-10T10:25:56Z</time>
      </trkpt>
      <trkpt lat="44.06962" lon="6.04284">
        <ele>722.6</ele>
        <time>2021-09-10T10:25:58Z</time>
      </trkpt>
      <trkpt lat="44.06962" lon="6.04289">
        <ele>722.9</ele>
        <time>2021-09-10T10:25:59Z</time>
      </trkpt>
      <trkpt lat="44.06963" lon="6.04294">
        <ele>723.4</ele>
        <time>2021-09-10T10:26:01Z</time>
      </trkpt>
      <trkpt lat="44.06965" lon="6.043">
        <ele>723.9</ele>
        <time>2021-09-10T10:26:03Z</time>
      </trkpt>
      <trkpt lat="44.06965" lon="6.04301">
        <ele>724</ele>
        <time>2021-09-10T10:26:04Z</time>
      </trkpt>
      <trkpt lat="44.06966" lon="6.04303">
        <ele>724.1</ele>
        <time>2021-09-10T10:26:05Z</time>
      </trkpt>
      <trkpt lat="44.06966" lon="6.04308">
        <ele>724.5</ele>
        <time>2021-09-10T10:26:07Z</time>
      </trkpt>
      <trkpt lat="44.06967" lon="6.04311">
        <ele>724.7</ele>
        <time>2021-09-10T10:26:09Z</time>
      </trkpt>
      <trkpt lat="44.06968" lon="6.04312">
        <ele>724.8</ele>
        <time>2021-09-10T10:26:11Z</time>
      </trkpt>
      <trkpt lat="44.06967" lon="6.04313">
        <ele>724.9</ele>
        <time>2021-09-10T10:26:12Z</time>
      </trkpt>
      <trkpt lat="44.06967" lon="6.04314">
        <ele>724.9</ele>
        <time>2021-09-10T10:26:13Z</time>
      </trkpt>
      <trkpt lat="44.06968" lon="6.04316">
        <ele>725.1</ele>
        <time>2021-09-10T10:26:15Z</time>
      </trkpt>
      <trkpt lat="44.06967" lon="6.04318">
        <ele>725.2</ele>
        <time>2021-09-10T10:26:17Z</time>
      </trkpt>
      <trkpt lat="44.06967" lon="6.04319">
        <ele>725.3</ele>
        <time>2021-09-10T10:26:18Z</time>
      </trkpt>
      <trkpt lat="44.06967" lon="6.0432">
        <ele>725.4</ele>
        <time>2021-09-10T10:26:20Z</time>
      </trkpt>
      <trkpt lat="44.06967" lon="6.04322">
        <ele>725.5</ele>
        <time>2021-09-10T10:26:22Z</time>
      </trkpt>
      <trkpt lat="44.06968" lon="6.04324">
        <ele>725.7</ele>
        <time>2021-09-10T10:26:24Z</time>
      </trkpt>
      <trkpt lat="44.06972" lon="6.0438">
        <ele>729.8</ele>
        <time>2021-09-10T10:26:59Z</time>
      </trkpt>
      <trkpt lat="44.06971" lon="6.04386">
        <ele>730.3</ele>
        <time>2021-09-10T10:27:01Z</time>
      </trkpt>
      <trkpt lat="44.0697" lon="6.04389">
        <ele>730.6</ele>
        <time>2021-09-10T10:27:02Z</time>
      </trkpt>
      <trkpt lat="44.06969" lon="6.04392">
        <ele>730.9</ele>
        <time>2021-09-10T10:27:04Z</time>
      </trkpt>
      <trkpt lat="44.06968" lon="6.04397">
        <ele>731.3</ele>
        <time>2021-09-10T10:27:05Z</time>
      </trkpt>
      <trkpt lat="44.06967" lon="6.04402">
        <ele>731.7</ele>
        <time>2021-09-10T10:27:07Z</time>
      </trkpt>
      <trkpt lat="44.06966" lon="6.04405">
        <ele>731.9</ele>
        <time>2021-09-10T10:27:08Z</time>
      </trkpt>
      <trkpt lat="44.06965" lon="6.0441">
        <ele>732.3</ele>
        <time>2021-09-10T10:27:10Z</time>
      </trkpt>
      <trkpt lat="44.06964" lon="6.04414">
        <ele>732.6</ele>
        <time>2021-09-10T10:27:11Z</time>
      </trkpt>
      <trkpt lat="44.06963" lon="6.04415">
        <ele>732.7</ele>
        <time>2021-09-10T10:27:13Z</time>
      </trkpt>
      <trkpt lat="44.06961" lon="6.04419">
        <ele>733</ele>
        <time>2021-09-10T10:27:14Z</time>
      </trkpt>
      <trkpt lat="44.06961" lon="6.0442">
        <ele>733.1</ele>
        <time>2021-09-10T10:27:15Z</time>
      </trkpt>
      <trkpt lat="44.0696" lon="6.04422">
        <ele>733.3</ele>
        <time>2021-09-10T10:27:16Z</time>
      </trkpt>
      <trkpt lat="44.06957" lon="6.04425">
        <ele>733.6</ele>
        <time>2021-09-10T10:27:18Z</time>
      </trkpt>
      <trkpt lat="44.06955" lon="6.04428">
        <ele>733.9</ele>
        <time>2021-09-10T10:27:20Z</time>
      </trkpt>
      <trkpt lat="44.06954" lon="6.04429">
        <ele>734</ele>
        <time>2021-09-10T10:27:21Z</time>
      </trkpt>
      <trkpt lat="44.06953" lon="6.04429">
        <ele>734.1</ele>
        <time>2021-09-10T10:27:22Z</time>
      </trkpt>
      <trkpt lat="44.06952" lon="6.0443">
        <ele>734.2</ele>
        <time>2021-09-10T10:27:23Z</time>
      </trkpt>
      <trkpt lat="44.06949" lon="6.04431">
        <ele>734.4</ele>
        <time>2021-09-10T10:27:25Z</time>
      </trkpt>
      <trkpt lat="44.06947" lon="6.04433">
        <ele>734.6</ele>
        <time>2021-09-10T10:27:26Z</time>
      </trkpt>
      <trkpt lat="44.06947" lon="6.04434">
        <ele>734.7</ele>
        <time>2021-09-10T10:27:27Z</time>
      </trkpt>
      <trkpt lat="44.06945" lon="6.04436">
        <ele>734.8</ele>
        <time>2021-09-10T10:27:28Z</time>
      </trkpt>
      <trkpt lat="44.06944" lon="6.04438">
        <ele>735</ele>
        <time>2021-09-10T10:27:30Z</time>
      </trkpt>
      <trkpt lat="44.06942" lon="6.04439">
        <ele>735.1</ele>
        <time>2021-09-10T10:27:31Z</time>
      </trkpt>
      <trkpt lat="44.0694" lon="6.0444">
        <ele>735.2</ele>
        <time>2021-09-10T10:27:32Z</time>
      </trkpt>
      <trkpt lat="44.06937" lon="6.04443">
        <ele>735.4</ele>
        <time>2021-09-10T10:27:34Z</time>
      </trkpt>
      <trkpt lat="44.06934" lon="6.04446">
        <ele>735.6</ele>
        <time>2021-09-10T10:27:35Z</time>
      </trkpt>
      <trkpt lat="44.06933" lon="6.04447">
        <ele>735.7</ele>
        <time>2021-09-10T10:27:36Z</time>
      </trkpt>
      <trkpt lat="44.06931" lon="6.04449">
        <ele>735.8</ele>
        <time>2021-09-10T10:27:38Z</time>
      </trkpt>
      <trkpt lat="44.06928" lon="6.04452">
        <ele>735.9</ele>
        <time>2021-09-10T10:27:39Z</time>
      </trkpt>
      <trkpt lat="44.06925" lon="6.04454">
        <ele>736</ele>
        <time>2021-09-10T10:27:40Z</time>
      </trkpt>
      <trkpt lat="44.06922" lon="6.04458">
        <ele>736.1</ele>
        <time>2021-09-10T10:27:41Z</time>
      </trkpt>
      <trkpt lat="44.06921" lon="6.0446">
        <ele>736.1</ele>
        <time>2021-09-10T10:27:42Z</time>
      </trkpt>
      <trkpt lat="44.0692" lon="6.04464">
        <ele>736.2</ele>
        <time>2021-09-10T10:27:43Z</time>
      </trkpt>
      <trkpt lat="44.06919" lon="6.04467">
        <ele>736.2</ele>
        <time>2021-09-10T10:27:44Z</time>
      </trkpt>
      <trkpt lat="44.06918" lon="6.04473">
        <ele>736.2</ele>
        <time>2021-09-10T10:27:46Z</time>
      </trkpt>
      <trkpt lat="44.06917" lon="6.0448">
        <ele>736.2</ele>
        <time>2021-09-10T10:27:47Z</time>
      </trkpt>
      <trkpt lat="44.06918" lon="6.04484">
        <ele>736.2</ele>
        <time>2021-09-10T10:27:48Z</time>
      </trkpt>
      <trkpt lat="44.0692" lon="6.04493">
        <ele>736.2</ele>
        <time>2021-09-10T10:27:50Z</time>
      </trkpt>
      <trkpt lat="44.0692" lon="6.04499">
        <ele>736.2</ele>
        <time>2021-09-10T10:27:51Z</time>
      </trkpt>
      <trkpt lat="44.06919" lon="6.04504">
        <ele>736.2</ele>
        <time>2021-09-10T10:27:52Z</time>
      </trkpt>
      <trkpt lat="44.06919" lon="6.04514">
        <ele>736.2</ele>
        <time>2021-09-10T10:27:54Z</time>
      </trkpt>
      <trkpt lat="44.0692" lon="6.04521">
        <ele>736.2</ele>
        <time>2021-09-10T10:27:56Z</time>
      </trkpt>
      <trkpt lat="44.06921" lon="6.04525">
        <ele>736.3</ele>
        <time>2021-09-10T10:27:57Z</time>
      </trkpt>
      <trkpt lat="44.06922" lon="6.04529">
        <ele>736.3</ele>
        <time>2021-09-10T10:27:58Z</time>
      </trkpt>
      <trkpt lat="44.06922" lon="6.04534">
        <ele>736.3</ele>
        <time>2021-09-10T10:27:59Z</time>
      </trkpt>
      <trkpt lat="44.06923" lon="6.0454">
        <ele>736.2</ele>
        <time>2021-09-10T10:28:00Z</time>
      </trkpt>
      <trkpt lat="44.06924" lon="6.04547">
        <ele>736.2</ele>
        <time>2021-09-10T10:28:01Z</time>
      </trkpt>
      <trkpt lat="44.06926" lon="6.04555">
        <ele>736</ele>
        <time>2021-09-10T10:28:03Z</time>
      </trkpt>
      <trkpt lat="44.06928" lon="6.04563">
        <ele>735.9</ele>
        <time>2021-09-10T10:28:04Z</time>
      </trkpt>
      <trkpt lat="44.06932" lon="6.04572">
        <ele>735.7</ele>
        <time>2021-09-10T10:28:05Z</time>
      </trkpt>
      <trkpt lat="44.06935" lon="6.04575">
        <ele>735.5</ele>
        <time>2021-09-10T10:28:06Z</time>
      </trkpt>
      <trkpt lat="44.06942" lon="6.04586">
        <ele>735.2</ele>
        <time>2021-09-10T10:28:08Z</time>
      </trkpt>
      <trkpt lat="44.06946" lon="6.04599">
        <ele>734.9</ele>
        <time>2021-09-10T10:28:10Z</time>
      </trkpt>
      <trkpt lat="44.06948" lon="6.04607">
        <ele>734.6</ele>
        <time>2021-09-10T10:28:11Z</time>
      </trkpt>
      <trkpt lat="44.06949" lon="6.04616">
        <ele>734.4</ele>
        <time>2021-09-10T10:28:12Z</time>
      </trkpt>
      <trkpt lat="44.06951" lon="6.04635">
        <ele>733.9</ele>
        <time>2021-09-10T10:28:14Z</time>
      </trkpt>
      <trkpt lat="44.06952" lon="6.04656">
        <ele>733.3</ele>
        <time>2021-09-10T10:28:16Z</time>
      </trkpt>
      <trkpt lat="44.06955" lon="6.04674">
        <ele>732.8</ele>
        <time>2021-09-10T10:28:18Z</time>
      </trkpt>
      <trkpt lat="44.0696" lon="6.04688">
        <ele>732.2</ele>
        <time>2021-09-10T10:28:20Z</time>
      </trkpt>
      <trkpt lat="44.06967" lon="6.04702">
        <ele>731.4</ele>
        <time>2021-09-10T10:28:22Z</time>
      </trkpt>
      <trkpt lat="44.06971" lon="6.04709">
        <ele>731.2</ele>
        <time>2021-09-10T10:28:23Z</time>
      </trkpt>
      <trkpt lat="44.0698" lon="6.04719">
        <ele>731.1</ele>
        <time>2021-09-10T10:28:25Z</time>
      </trkpt>
      <trkpt lat="44.06984" lon="6.04724">
        <ele>731.1</ele>
        <time>2021-09-10T10:28:26Z</time>
      </trkpt>
      <trkpt lat="44.06991" lon="6.04734">
        <ele>731.2</ele>
        <time>2021-09-10T10:28:28Z</time>
      </trkpt>
      <trkpt lat="44.06994" lon="6.04738">
        <ele>731.3</ele>
        <time>2021-09-10T10:28:29Z</time>
      </trkpt>
      <trkpt lat="44.06996" lon="6.0474">
        <ele>731.3</ele>
        <time>2021-09-10T10:28:30Z</time>
      </trkpt>
      <trkpt lat="44.07" lon="6.04747">
        <ele>731.4</ele>
        <time>2021-09-10T10:28:32Z</time>
      </trkpt>
      <trkpt lat="44.07003" lon="6.04753">
        <ele>731.4</ele>
        <time>2021-09-10T10:28:34Z</time>
      </trkpt>
      <trkpt lat="44.07008" lon="6.04762">
        <ele>731.3</ele>
        <time>2021-09-10T10:28:36Z</time>
      </trkpt>
      <trkpt lat="44.07006" lon="6.04767">
        <ele>731.3</ele>
        <time>2021-09-10T10:28:38Z</time>
      </trkpt>
      <trkpt lat="44.07008" lon="6.04775">
        <ele>731.1</ele>
        <time>2021-09-10T10:28:39Z</time>
      </trkpt>
      <trkpt lat="44.07011" lon="6.04781">
        <ele>731</ele>
        <time>2021-09-10T10:28:40Z</time>
      </trkpt>
      <trkpt lat="44.07014" lon="6.04787">
        <ele>730.7</ele>
        <time>2021-09-10T10:28:42Z</time>
      </trkpt>
      <trkpt lat="44.07018" lon="6.04801">
        <ele>730.1</ele>
        <time>2021-09-10T10:28:43Z</time>
      </trkpt>
      <trkpt lat="44.0702" lon="6.0481">
        <ele>729.7</ele>
        <time>2021-09-10T10:28:44Z</time>
      </trkpt>
      <trkpt lat="44.07022" lon="6.04829">
        <ele>728.7</ele>
        <time>2021-09-10T10:28:46Z</time>
      </trkpt>
      <trkpt lat="44.07023" lon="6.04838">
        <ele>728.2</ele>
        <time>2021-09-10T10:28:47Z</time>
      </trkpt>
      <trkpt lat="44.07025" lon="6.04855">
        <ele>727.1</ele>
        <time>2021-09-10T10:28:49Z</time>
      </trkpt>
      <trkpt lat="44.07026" lon="6.04864">
        <ele>726.6</ele>
        <time>2021-09-10T10:28:50Z</time>
      </trkpt>
      <trkpt lat="44.07029" lon="6.04885">
        <ele>725.3</ele>
        <time>2021-09-10T10:28:52Z</time>
      </trkpt>
      <trkpt lat="44.07033" lon="6.04907">
        <ele>723.9</ele>
        <time>2021-09-10T10:28:54Z</time>
      </trkpt>
      <trkpt lat="44.07038" lon="6.04927">
        <ele>722.9</ele>
        <time>2021-09-10T10:28:56Z</time>
      </trkpt>
      <trkpt lat="44.07044" lon="6.04946">
        <ele>721.9</ele>
        <time>2021-09-10T10:28:58Z</time>
      </trkpt>
      <trkpt lat="44.07052" lon="6.04963">
        <ele>721</ele>
        <time>2021-09-10T10:29:00Z</time>
      </trkpt>
      <trkpt lat="44.07062" lon="6.04979">
        <ele>720</ele>
        <time>2021-09-10T10:29:02Z</time>
      </trkpt>
      <trkpt lat="44.07071" lon="6.04993">
        <ele>719</ele>
        <time>2021-09-10T10:29:04Z</time>
      </trkpt>
      <trkpt lat="44.07074" lon="6.05002">
        <ele>718.5</ele>
        <time>2021-09-10T10:29:05Z</time>
      </trkpt>
      <trkpt lat="44.07076" lon="6.05013">
        <ele>717.8</ele>
        <time>2021-09-10T10:29:06Z</time>
      </trkpt>
      <trkpt lat="44.07078" lon="6.05035">
        <ele>716.6</ele>
        <time>2021-09-10T10:29:08Z</time>
      </trkpt>
      <trkpt lat="44.07081" lon="6.05058">
        <ele>715.5</ele>
        <time>2021-09-10T10:29:10Z</time>
      </trkpt>
      <trkpt lat="44.07085" lon="6.05069">
        <ele>715</ele>
        <time>2021-09-10T10:29:11Z</time>
      </trkpt>
      <trkpt lat="44.0709" lon="6.05079">
        <ele>714.5</ele>
        <time>2021-09-10T10:29:12Z</time>
      </trkpt>
      <trkpt lat="44.07096" lon="6.05088">
        <ele>713.9</ele>
        <time>2021-09-10T10:29:13Z</time>
      </trkpt>
      <trkpt lat="44.07102" lon="6.05096">
        <ele>713.4</ele>
        <time>2021-09-10T10:29:14Z</time>
      </trkpt>
      <trkpt lat="44.07112" lon="6.05114">
        <ele>712.1</ele>
        <time>2021-09-10T10:29:16Z</time>
      </trkpt>
      <trkpt lat="44.07124" lon="6.05132">
        <ele>710.8</ele>
        <time>2021-09-10T10:29:18Z</time>
      </trkpt>
      <trkpt lat="44.07137" lon="6.05144">
        <ele>709.6</ele>
        <time>2021-09-10T10:29:20Z</time>
      </trkpt>
      <trkpt lat="44.07146" lon="6.05153">
        <ele>708.6</ele>
        <time>2021-09-10T10:29:22Z</time>
      </trkpt>
      <trkpt lat="44.0715" lon="6.05166">
        <ele>707.8</ele>
        <time>2021-09-10T10:29:24Z</time>
      </trkpt>
      <trkpt lat="44.07151" lon="6.05184">
        <ele>706.6</ele>
        <time>2021-09-10T10:29:26Z</time>
      </trkpt>
      <trkpt lat="44.07149" lon="6.05205">
        <ele>705</ele>
        <time>2021-09-10T10:29:28Z</time>
      </trkpt>
      <trkpt lat="44.07146" lon="6.05216">
        <ele>704.3</ele>
        <time>2021-09-10T10:29:29Z</time>
      </trkpt>
      <trkpt lat="44.07139" lon="6.05238">
        <ele>702.7</ele>
        <time>2021-09-10T10:29:31Z</time>
      </trkpt>
      <trkpt lat="44.07137" lon="6.05249">
        <ele>702</ele>
        <time>2021-09-10T10:29:32Z</time>
      </trkpt>
      <trkpt lat="44.07134" lon="6.05274">
        <ele>700.5</ele>
        <time>2021-09-10T10:29:34Z</time>
      </trkpt>
      <trkpt lat="44.07129" lon="6.05297">
        <ele>699.3</ele>
        <time>2021-09-10T10:29:36Z</time>
      </trkpt>
      <trkpt lat="44.07126" lon="6.05308">
        <ele>698.6</ele>
        <time>2021-09-10T10:29:37Z</time>
      </trkpt>
      <trkpt lat="44.07123" lon="6.05319">
        <ele>698</ele>
        <time>2021-09-10T10:29:38Z</time>
      </trkpt>
      <trkpt lat="44.07117" lon="6.05342">
        <ele>696.5</ele>
        <time>2021-09-10T10:29:40Z</time>
      </trkpt>
      <trkpt lat="44.07113" lon="6.05352">
        <ele>695.8</ele>
        <time>2021-09-10T10:29:41Z</time>
      </trkpt>
      <trkpt lat="44.07106" lon="6.05372">
        <ele>694.6</ele>
        <time>2021-09-10T10:29:43Z</time>
      </trkpt>
      <trkpt lat="44.07104" lon="6.05393">
        <ele>693.4</ele>
        <time>2021-09-10T10:29:45Z</time>
      </trkpt>
      <trkpt lat="44.07106" lon="6.05411">
        <ele>692.5</ele>
        <time>2021-09-10T10:29:47Z</time>
      </trkpt>
      <trkpt lat="44.07112" lon="6.05428">
        <ele>691.7</ele>
        <time>2021-09-10T10:29:49Z</time>
      </trkpt>
      <trkpt lat="44.07116" lon="6.05436">
        <ele>691.3</ele>
        <time>2021-09-10T10:29:50Z</time>
      </trkpt>
      <trkpt lat="44.07125" lon="6.05449">
        <ele>690.8</ele>
        <time>2021-09-10T10:29:52Z</time>
      </trkpt>
      <trkpt lat="44.0713" lon="6.05455">
        <ele>690.6</ele>
        <time>2021-09-10T10:29:53Z</time>
      </trkpt>
      <trkpt lat="44.07136" lon="6.0546">
        <ele>690.3</ele>
        <time>2021-09-10T10:29:54Z</time>
      </trkpt>
      <trkpt lat="44.0714" lon="6.05466">
        <ele>690.2</ele>
        <time>2021-09-10T10:29:55Z</time>
      </trkpt>
      <trkpt lat="44.07144" lon="6.05472">
        <ele>690.1</ele>
        <time>2021-09-10T10:29:56Z</time>
      </trkpt>
      <trkpt lat="44.07147" lon="6.05479">
        <ele>690</ele>
        <time>2021-09-10T10:29:57Z</time>
      </trkpt>
      <trkpt lat="44.07154" lon="6.05491">
        <ele>689.9</ele>
        <time>2021-09-10T10:29:59Z</time>
      </trkpt>
      <trkpt lat="44.07161" lon="6.05503">
        <ele>690</ele>
        <time>2021-09-10T10:30:01Z</time>
      </trkpt>
      <trkpt lat="44.07164" lon="6.05511">
        <ele>690</ele>
        <time>2021-09-10T10:30:02Z</time>
      </trkpt>
      <trkpt lat="44.07166" lon="6.05519">
        <ele>690.2</ele>
        <time>2021-09-10T10:30:03Z</time>
      </trkpt>
      <trkpt lat="44.07167" lon="6.05537">
        <ele>690.5</ele>
        <time>2021-09-10T10:30:05Z</time>
      </trkpt>
      <trkpt lat="44.07165" lon="6.05545">
        <ele>690.8</ele>
        <time>2021-09-10T10:30:06Z</time>
      </trkpt>
      <trkpt lat="44.07163" lon="6.0555">
        <ele>691</ele>
        <time>2021-09-10T10:30:07Z</time>
      </trkpt>
      <trkpt lat="44.07158" lon="6.05552">
        <ele>691.2</ele>
        <time>2021-09-10T10:30:08Z</time>
      </trkpt>
      <trkpt lat="44.07148" lon="6.0555">
        <ele>691.9</ele>
        <time>2021-09-10T10:30:10Z</time>
      </trkpt>
      <trkpt lat="44.07137" lon="6.0555">
        <ele>692.3</ele>
        <time>2021-09-10T10:30:12Z</time>
      </trkpt>
      <trkpt lat="44.07128" lon="6.0555">
        <ele>692.6</ele>
        <time>2021-09-10T10:30:14Z</time>
      </trkpt>
      <trkpt lat="44.07124" lon="6.05554">
        <ele>692.7</ele>
        <time>2021-09-10T10:30:16Z</time>
      </trkpt>
      <trkpt lat="44.07122" lon="6.05554">
        <ele>692.7</ele>
        <time>2021-09-10T10:30:17Z</time>
      </trkpt>
      <trkpt lat="44.07116" lon="6.05557">
        <ele>692.8</ele>
        <time>2021-09-10T10:30:19Z</time>
      </trkpt>
      <trkpt lat="44.0711" lon="6.0556">
        <ele>692.9</ele>
        <time>2021-09-10T10:30:21Z</time>
      </trkpt>
      <trkpt lat="44.07106" lon="6.05564">
        <ele>693</ele>
        <time>2021-09-10T10:30:22Z</time>
      </trkpt>
      <trkpt lat="44.07103" lon="6.05567">
        <ele>693.1</ele>
        <time>2021-09-10T10:30:23Z</time>
      </trkpt>
      <trkpt lat="44.071" lon="6.05571">
        <ele>693.1</ele>
        <time>2021-09-10T10:30:25Z</time>
      </trkpt>
      <trkpt lat="44.07098" lon="6.05577">
        <ele>693.2</ele>
        <time>2021-09-10T10:30:26Z</time>
      </trkpt>
      <trkpt lat="44.07096" lon="6.05586">
        <ele>693.2</ele>
        <time>2021-09-10T10:30:28Z</time>
      </trkpt>
      <trkpt lat="44.07095" lon="6.05593">
        <ele>693.2</ele>
        <time>2021-09-10T10:30:30Z</time>
      </trkpt>
      <trkpt lat="44.07094" lon="6.05601">
        <ele>693.3</ele>
        <time>2021-09-10T10:30:31Z</time>
      </trkpt>
      <trkpt lat="44.07095" lon="6.05608">
        <ele>693.3</ele>
        <time>2021-09-10T10:30:32Z</time>
      </trkpt>
      <trkpt lat="44.07095" lon="6.05613">
        <ele>693.3</ele>
        <time>2021-09-10T10:30:34Z</time>
      </trkpt>
      <trkpt lat="44.07094" lon="6.0562">
        <ele>693.3</ele>
        <time>2021-09-10T10:30:35Z</time>
      </trkpt>
      <trkpt lat="44.07093" lon="6.05626">
        <ele>693.4</ele>
        <time>2021-09-10T10:30:36Z</time>
      </trkpt>
      <trkpt lat="44.07091" lon="6.05632">
        <ele>693.4</ele>
        <time>2021-09-10T10:30:38Z</time>
      </trkpt>
      <trkpt lat="44.0709" lon="6.05636">
        <ele>693.5</ele>
        <time>2021-09-10T10:30:39Z</time>
      </trkpt>
      <trkpt lat="44.07087" lon="6.05642">
        <ele>693.6</ele>
        <time>2021-09-10T10:30:40Z</time>
      </trkpt>
      <trkpt lat="44.07085" lon="6.05647">
        <ele>693.7</ele>
        <time>2021-09-10T10:30:41Z</time>
      </trkpt>
      <trkpt lat="44.07082" lon="6.05652">
        <ele>693.7</ele>
        <time>2021-09-10T10:30:42Z</time>
      </trkpt>
      <trkpt lat="44.0708" lon="6.05657">
        <ele>693.8</ele>
        <time>2021-09-10T10:30:43Z</time>
      </trkpt>
      <trkpt lat="44.07076" lon="6.05661">
        <ele>693.9</ele>
        <time>2021-09-10T10:30:44Z</time>
      </trkpt>
      <trkpt lat="44.07071" lon="6.05669">
        <ele>693.8</ele>
        <time>2021-09-10T10:30:46Z</time>
      </trkpt>
      <trkpt lat="44.07068" lon="6.05672">
        <ele>693.8</ele>
        <time>2021-09-10T10:30:47Z</time>
      </trkpt>
      <trkpt lat="44.07065" lon="6.05674">
        <ele>693.7</ele>
        <time>2021-09-10T10:30:48Z</time>
      </trkpt>
      <trkpt lat="44.07059" lon="6.05678">
        <ele>693.5</ele>
        <time>2021-09-10T10:30:50Z</time>
      </trkpt>
      <trkpt lat="44.07056" lon="6.05681">
        <ele>693.4</ele>
        <time>2021-09-10T10:30:51Z</time>
      </trkpt>
      <trkpt lat="44.07051" lon="6.05686">
        <ele>693.1</ele>
        <time>2021-09-10T10:30:53Z</time>
      </trkpt>
      <trkpt lat="44.07046" lon="6.05695">
        <ele>692.8</ele>
        <time>2021-09-10T10:30:54Z</time>
      </trkpt>
      <trkpt lat="44.07042" lon="6.05711">
        <ele>692.3</ele>
        <time>2021-09-10T10:30:56Z</time>
      </trkpt>
      <trkpt lat="44.07042" lon="6.05729">
        <ele>692</ele>
        <time>2021-09-10T10:30:58Z</time>
      </trkpt>
      <trkpt lat="44.07042" lon="6.05744">
        <ele>691.7</ele>
        <time>2021-09-10T10:31:00Z</time>
      </trkpt>
      <trkpt lat="44.07042" lon="6.05758">
        <ele>691.4</ele>
        <time>2021-09-10T10:31:02Z</time>
      </trkpt>
      <trkpt lat="44.07041" lon="6.05767">
        <ele>691.2</ele>
        <time>2021-09-10T10:31:04Z</time>
      </trkpt>
      <trkpt lat="44.07042" lon="6.05775">
        <ele>691</ele>
        <time>2021-09-10T10:31:05Z</time>
      </trkpt>
      <trkpt lat="44.07043" lon="6.05782">
        <ele>690.9</ele>
        <time>2021-09-10T10:31:06Z</time>
      </trkpt>
      <trkpt lat="44.07047" lon="6.05795">
        <ele>690.4</ele>
        <time>2021-09-10T10:31:08Z</time>
      </trkpt>
      <trkpt lat="44.0705" lon="6.05809">
        <ele>689.9</ele>
        <time>2021-09-10T10:31:10Z</time>
      </trkpt>
      <trkpt lat="44.0705" lon="6.05816">
        <ele>689.7</ele>
        <time>2021-09-10T10:31:11Z</time>
      </trkpt>
      <trkpt lat="44.07048" lon="6.05824">
        <ele>689.3</ele>
        <time>2021-09-10T10:31:12Z</time>
      </trkpt>
      <trkpt lat="44.07041" lon="6.05838">
        <ele>688.4</ele>
        <time>2021-09-10T10:31:14Z</time>
      </trkpt>
      <trkpt lat="44.07037" lon="6.05846">
        <ele>687.8</ele>
        <time>2021-09-10T10:31:15Z</time>
      </trkpt>
      <trkpt lat="44.07033" lon="6.05863">
        <ele>686.7</ele>
        <time>2021-09-10T10:31:17Z</time>
      </trkpt>
      <trkpt lat="44.07033" lon="6.05871">
        <ele>686.1</ele>
        <time>2021-09-10T10:31:18Z</time>
      </trkpt>
      <trkpt lat="44.07035" lon="6.05888">
        <ele>685</ele>
        <time>2021-09-10T10:31:20Z</time>
      </trkpt>
      <trkpt lat="44.07035" lon="6.05903">
        <ele>683.8</ele>
        <time>2021-09-10T10:31:22Z</time>
      </trkpt>
      <trkpt lat="44.07035" lon="6.0591">
        <ele>683.1</ele>
        <time>2021-09-10T10:31:23Z</time>
      </trkpt>
      <trkpt lat="44.07035" lon="6.05917">
        <ele>682.5</ele>
        <time>2021-09-10T10:31:24Z</time>
      </trkpt>
      <trkpt lat="44.07036" lon="6.05925">
        <ele>681.9</ele>
        <time>2021-09-10T10:31:25Z</time>
      </trkpt>
      <trkpt lat="44.07041" lon="6.0594">
        <ele>680.6</ele>
        <time>2021-09-10T10:31:27Z</time>
      </trkpt>
      <trkpt lat="44.07047" lon="6.05952">
        <ele>679.4</ele>
        <time>2021-09-10T10:31:29Z</time>
      </trkpt>
      <trkpt lat="44.07049" lon="6.05959">
        <ele>678.8</ele>
        <time>2021-09-10T10:31:30Z</time>
      </trkpt>
      <trkpt lat="44.07051" lon="6.05974">
        <ele>677.5</ele>
        <time>2021-09-10T10:31:32Z</time>
      </trkpt>
      <trkpt lat="44.07048" lon="6.05992">
        <ele>676.2</ele>
        <time>2021-09-10T10:31:34Z</time>
      </trkpt>
      <trkpt lat="44.07045" lon="6.0601">
        <ele>674.8</ele>
        <time>2021-09-10T10:31:36Z</time>
      </trkpt>
      <trkpt lat="44.07044" lon="6.06024">
        <ele>673.7</ele>
        <time>2021-09-10T10:31:38Z</time>
      </trkpt>
      <trkpt lat="44.07042" lon="6.06034">
        <ele>672.9</ele>
        <time>2021-09-10T10:31:40Z</time>
      </trkpt>
      <trkpt lat="44.07042" lon="6.0604">
        <ele>672.4</ele>
        <time>2021-09-10T10:31:41Z</time>
      </trkpt>
      <trkpt lat="44.07042" lon="6.06048">
        <ele>671.8</ele>
        <time>2021-09-10T10:31:42Z</time>
      </trkpt>
      <trkpt lat="44.07042" lon="6.06062">
        <ele>670.6</ele>
        <time>2021-09-10T10:31:44Z</time>
      </trkpt>
      <trkpt lat="44.07039" lon="6.06076">
        <ele>669.3</ele>
        <time>2021-09-10T10:31:46Z</time>
      </trkpt>
      <trkpt lat="44.07036" lon="6.06083">
        <ele>668.6</ele>
        <time>2021-09-10T10:31:47Z</time>
      </trkpt>
      <trkpt lat="44.07031" lon="6.0609">
        <ele>667.8</ele>
        <time>2021-09-10T10:31:48Z</time>
      </trkpt>
      <trkpt lat="44.07026" lon="6.06093">
        <ele>667.1</ele>
        <time>2021-09-10T10:31:49Z</time>
      </trkpt>
      <trkpt lat="44.0702" lon="6.06096">
        <ele>666.4</ele>
        <time>2021-09-10T10:31:50Z</time>
      </trkpt>
      <trkpt lat="44.07007" lon="6.06104">
        <ele>664.6</ele>
        <time>2021-09-10T10:31:52Z</time>
      </trkpt>
      <trkpt lat="44.07001" lon="6.0611">
        <ele>663.6</ele>
        <time>2021-09-10T10:31:53Z</time>
      </trkpt>
      <trkpt lat="44.06996" lon="6.06118">
        <ele>662.8</ele>
        <time>2021-09-10T10:31:54Z</time>
      </trkpt>
      <trkpt lat="44.06986" lon="6.06132">
        <ele>661.3</ele>
        <time>2021-09-10T10:31:56Z</time>
      </trkpt>
      <trkpt lat="44.06975" lon="6.06142">
        <ele>660.1</ele>
        <time>2021-09-10T10:31:58Z</time>
      </trkpt>
      <trkpt lat="44.0697" lon="6.06145">
        <ele>659.6</ele>
        <time>2021-09-10T10:31:59Z</time>
      </trkpt>
      <trkpt lat="44.0696" lon="6.06145">
        <ele>658.5</ele>
        <time>2021-09-10T10:32:01Z</time>
      </trkpt>
      <trkpt lat="44.06957" lon="6.06143">
        <ele>658.1</ele>
        <time>2021-09-10T10:32:02Z</time>
      </trkpt>
      <trkpt lat="44.06949" lon="6.06138">
        <ele>657</ele>
        <time>2021-09-10T10:32:04Z</time>
      </trkpt>
      <trkpt lat="44.06945" lon="6.06135">
        <ele>656.4</ele>
        <time>2021-09-10T10:32:05Z</time>
      </trkpt>
      <trkpt lat="44.06941" lon="6.06132">
        <ele>655.9</ele>
        <time>2021-09-10T10:32:06Z</time>
      </trkpt>
      <trkpt lat="44.06941" lon="6.06129">
        <ele>655.6</ele>
        <time>2021-09-10T10:32:07Z</time>
      </trkpt>
      <trkpt lat="44.06937" lon="6.06128">
        <ele>655</ele>
        <time>2021-09-10T10:32:09Z</time>
      </trkpt>
      <trkpt lat="44.06932" lon="6.06129">
        <ele>654.4</ele>
        <time>2021-09-10T10:32:10Z</time>
      </trkpt>
      <trkpt lat="44.06929" lon="6.06131">
        <ele>654</ele>
        <time>2021-09-10T10:32:11Z</time>
      </trkpt>
      <trkpt lat="44.06924" lon="6.06132">
        <ele>653.5</ele>
        <time>2021-09-10T10:32:13Z</time>
      </trkpt>
      <trkpt lat="44.0692" lon="6.06133">
        <ele>653.1</ele>
        <time>2021-09-10T10:32:14Z</time>
      </trkpt>
      <trkpt lat="44.06912" lon="6.06136">
        <ele>652.4</ele>
        <time>2021-09-10T10:32:15Z</time>
      </trkpt>
      <trkpt lat="44.06901" lon="6.0614">
        <ele>651.6</ele>
        <time>2021-09-10T10:32:17Z</time>
      </trkpt>
      <trkpt lat="44.06896" lon="6.06143">
        <ele>651.3</ele>
        <time>2021-09-10T10:32:18Z</time>
      </trkpt>
      <trkpt lat="44.06886" lon="6.0615">
        <ele>650.9</ele>
        <time>2021-09-10T10:32:20Z</time>
      </trkpt>
      <trkpt lat="44.06879" lon="6.06158">
        <ele>650.6</ele>
        <time>2021-09-10T10:32:22Z</time>
      </trkpt>
      <trkpt lat="44.06875" lon="6.06163">
        <ele>650.5</ele>
        <time>2021-09-10T10:32:23Z</time>
      </trkpt>
      <trkpt lat="44.06872" lon="6.06163">
        <ele>650.4</ele>
        <time>2021-09-10T10:32:24Z</time>
      </trkpt>
      <trkpt lat="44.06871" lon="6.06164">
        <ele>650.3</ele>
        <time>2021-09-10T10:32:25Z</time>
      </trkpt>
      <trkpt lat="44.06866" lon="6.0617">
        <ele>650.1</ele>
        <time>2021-09-10T10:32:27Z</time>
      </trkpt>
      <trkpt lat="44.06863" lon="6.06175">
        <ele>649.8</ele>
        <time>2021-09-10T10:32:29Z</time>
      </trkpt>
      <trkpt lat="44.06862" lon="6.06179">
        <ele>649.6</ele>
        <time>2021-09-10T10:32:30Z</time>
      </trkpt>
      <trkpt lat="44.06861" lon="6.06185">
        <ele>649.3</ele>
        <time>2021-09-10T10:32:31Z</time>
      </trkpt>
      <trkpt lat="44.0686" lon="6.0619">
        <ele>648.9</ele>
        <time>2021-09-10T10:32:32Z</time>
      </trkpt>
      <trkpt lat="44.06859" lon="6.06204">
        <ele>648</ele>
        <time>2021-09-10T10:32:34Z</time>
      </trkpt>
      <trkpt lat="44.0686" lon="6.0621">
        <ele>647.5</ele>
        <time>2021-09-10T10:32:35Z</time>
      </trkpt>
      <trkpt lat="44.0686" lon="6.06217">
        <ele>647</ele>
        <time>2021-09-10T10:32:36Z</time>
      </trkpt>
      <trkpt lat="44.0686" lon="6.06223">
        <ele>646.5</ele>
        <time>2021-09-10T10:32:37Z</time>
      </trkpt>
      <trkpt lat="44.06859" lon="6.0623">
        <ele>645.9</ele>
        <time>2021-09-10T10:32:38Z</time>
      </trkpt>
      <trkpt lat="44.06858" lon="6.06236">
        <ele>645.4</ele>
        <time>2021-09-10T10:32:39Z</time>
      </trkpt>
      <trkpt lat="44.06854" lon="6.06244">
        <ele>644.5</ele>
        <time>2021-09-10T10:32:41Z</time>
      </trkpt>
      <trkpt lat="44.06851" lon="6.06248">
        <ele>644.1</ele>
        <time>2021-09-10T10:32:42Z</time>
      </trkpt>
      <trkpt lat="44.06847" lon="6.0626">
        <ele>642.9</ele>
        <time>2021-09-10T10:32:44Z</time>
      </trkpt>
      <trkpt lat="44.06841" lon="6.06274">
        <ele>641.1</ele>
        <time>2021-09-10T10:32:46Z</time>
      </trkpt>
      <trkpt lat="44.06837" lon="6.0628">
        <ele>640.2</ele>
        <time>2021-09-10T10:32:47Z</time>
      </trkpt>
      <trkpt lat="44.06834" lon="6.06286">
        <ele>639.4</ele>
        <time>2021-09-10T10:32:48Z</time>
      </trkpt>
      <trkpt lat="44.06828" lon="6.063">
        <ele>638</ele>
        <time>2021-09-10T10:32:50Z</time>
      </trkpt>
      <trkpt lat="44.06828" lon="6.06317">
        <ele>636.7</ele>
        <time>2021-09-10T10:32:52Z</time>
      </trkpt>
      <trkpt lat="44.06831" lon="6.0633">
        <ele>635.5</ele>
        <time>2021-09-10T10:32:54Z</time>
      </trkpt>
      <trkpt lat="44.0684" lon="6.06338">
        <ele>634.5</ele>
        <time>2021-09-10T10:32:56Z</time>
      </trkpt>
      <trkpt lat="44.06851" lon="6.06338">
        <ele>633.7</ele>
        <time>2021-09-10T10:32:58Z</time>
      </trkpt>
      <trkpt lat="44.06865" lon="6.06336">
        <ele>633.1</ele>
        <time>2021-09-10T10:33:00Z</time>
      </trkpt>
      <trkpt lat="44.06879" lon="6.06334">
        <ele>632.8</ele>
        <time>2021-09-10T10:33:02Z</time>
      </trkpt>
      <trkpt lat="44.06892" lon="6.06332">
        <ele>632.6</ele>
        <time>2021-09-10T10:33:04Z</time>
      </trkpt>
      <trkpt lat="44.06897" lon="6.06331">
        <ele>632.5</ele>
        <time>2021-09-10T10:33:05Z</time>
      </trkpt>
      <trkpt lat="44.06902" lon="6.06329">
        <ele>632.4</ele>
        <time>2021-09-10T10:33:06Z</time>
      </trkpt>
      <trkpt lat="44.06905" lon="6.06324">
        <ele>632.3</ele>
        <time>2021-09-10T10:33:07Z</time>
      </trkpt>
      <trkpt lat="44.0691" lon="6.06317">
        <ele>632.1</ele>
        <time>2021-09-10T10:33:09Z</time>
      </trkpt>
      <trkpt lat="44.06916" lon="6.06311">
        <ele>631.9</ele>
        <time>2021-09-10T10:33:11Z</time>
      </trkpt>
      <trkpt lat="44.06922" lon="6.06313">
        <ele>631.7</ele>
        <time>2021-09-10T10:33:13Z</time>
      </trkpt>
      <trkpt lat="44.06923" lon="6.06315">
        <ele>631.6</ele>
        <time>2021-09-10T10:33:14Z</time>
      </trkpt>
      <trkpt lat="44.06924" lon="6.06317">
        <ele>631.5</ele>
        <time>2021-09-10T10:33:15Z</time>
      </trkpt>
      <trkpt lat="44.06924" lon="6.0632">
        <ele>631.5</ele>
        <time>2021-09-10T10:33:16Z</time>
      </trkpt>
      <trkpt lat="44.06924" lon="6.06323">
        <ele>631.4</ele>
        <time>2021-09-10T10:33:18Z</time>
      </trkpt>
      <trkpt lat="44.06925" lon="6.06325">
        <ele>631.4</ele>
        <time>2021-09-10T10:33:19Z</time>
      </trkpt>
      <trkpt lat="44.06925" lon="6.06329">
        <ele>631.3</ele>
        <time>2021-09-10T10:33:21Z</time>
      </trkpt>
      <trkpt lat="44.06925" lon="6.06334">
        <ele>631.3</ele>
        <time>2021-09-10T10:33:22Z</time>
      </trkpt>
      <trkpt lat="44.06923" lon="6.06339">
        <ele>631.2</ele>
        <time>2021-09-10T10:33:24Z</time>
      </trkpt>
      <trkpt lat="44.0692" lon="6.06345">
        <ele>631.2</ele>
        <time>2021-09-10T10:33:25Z</time>
      </trkpt>
      <trkpt lat="44.06916" lon="6.06353">
        <ele>631.3</ele>
        <time>2021-09-10T10:33:26Z</time>
      </trkpt>
      <trkpt lat="44.06908" lon="6.06363">
        <ele>631.5</ele>
        <time>2021-09-10T10:33:27Z</time>
      </trkpt>
      <trkpt lat="44.0689" lon="6.06381">
        <ele>631.3</ele>
        <time>2021-09-10T10:33:29Z</time>
      </trkpt>
      <trkpt lat="44.06878" lon="6.06393">
        <ele>631.2</ele>
        <time>2021-09-10T10:33:31Z</time>
      </trkpt>
      <trkpt lat="44.06873" lon="6.06402">
        <ele>631.2</ele>
        <time>2021-09-10T10:33:32Z</time>
      </trkpt>
      <trkpt lat="44.06865" lon="6.06417">
        <ele>631.3</ele>
        <time>2021-09-10T10:33:34Z</time>
      </trkpt>
      <trkpt lat="44.06857" lon="6.06427">
        <ele>631.2</ele>
        <time>2021-09-10T10:33:36Z</time>
      </trkpt>
      <trkpt lat="44.06853" lon="6.0643">
        <ele>631.2</ele>
        <time>2021-09-10T10:33:37Z</time>
      </trkpt>
      <trkpt lat="44.06851" lon="6.06439">
        <ele>631.1</ele>
        <time>2021-09-10T10:33:39Z</time>
      </trkpt>
      <trkpt lat="44.06851" lon="6.06448">
        <ele>631</ele>
        <time>2021-09-10T10:33:40Z</time>
      </trkpt>
      <trkpt lat="44.06853" lon="6.06457">
        <ele>630.9</ele>
        <time>2021-09-10T10:33:42Z</time>
      </trkpt>
      <trkpt lat="44.06855" lon="6.06466">
        <ele>631</ele>
        <time>2021-09-10T10:33:43Z</time>
      </trkpt>
      <trkpt lat="44.06854" lon="6.06477">
        <ele>631.2</ele>
        <time>2021-09-10T10:33:45Z</time>
      </trkpt>
      <trkpt lat="44.06855" lon="6.06491">
        <ele>631.7</ele>
        <time>2021-09-10T10:33:47Z</time>
      </trkpt>
      <trkpt lat="44.06853" lon="6.06494">
        <ele>631.9</ele>
        <time>2021-09-10T10:33:48Z</time>
      </trkpt>
      <trkpt lat="44.06852" lon="6.06499">
        <ele>632.2</ele>
        <time>2021-09-10T10:33:49Z</time>
      </trkpt>
      <trkpt lat="44.06852" lon="6.06503">
        <ele>632.4</ele>
        <time>2021-09-10T10:33:50Z</time>
      </trkpt>
      <trkpt lat="44.06851" lon="6.06507">
        <ele>632.7</ele>
        <time>2021-09-10T10:33:51Z</time>
      </trkpt>
      <trkpt lat="44.0685" lon="6.06512">
        <ele>633</ele>
        <time>2021-09-10T10:33:53Z</time>
      </trkpt>
      <trkpt lat="44.06849" lon="6.06515">
        <ele>633.2</ele>
        <time>2021-09-10T10:33:54Z</time>
      </trkpt>
      <trkpt lat="44.06846" lon="6.06518">
        <ele>633.4</ele>
        <time>2021-09-10T10:33:56Z</time>
      </trkpt>
      <trkpt lat="44.06845" lon="6.0652">
        <ele>633.6</ele>
        <time>2021-09-10T10:33:57Z</time>
      </trkpt>
      <trkpt lat="44.06844" lon="6.06523">
        <ele>633.8</ele>
        <time>2021-09-10T10:33:59Z</time>
      </trkpt>
      <trkpt lat="44.06841" lon="6.06527">
        <ele>634.1</ele>
        <time>2021-09-10T10:34:00Z</time>
      </trkpt>
      <trkpt lat="44.0684" lon="6.06529">
        <ele>634.2</ele>
        <time>2021-09-10T10:34:01Z</time>
      </trkpt>
      <trkpt lat="44.06837" lon="6.0653">
        <ele>634.4</ele>
        <time>2021-09-10T10:34:03Z</time>
      </trkpt>
      <trkpt lat="44.06835" lon="6.06531">
        <ele>634.6</ele>
        <time>2021-09-10T10:34:04Z</time>
      </trkpt>
      <trkpt lat="44.06832" lon="6.06534">
        <ele>634.8</ele>
        <time>2021-09-10T10:34:06Z</time>
      </trkpt>
      <trkpt lat="44.06827" lon="6.06536">
        <ele>635.1</ele>
        <time>2021-09-10T10:34:07Z</time>
      </trkpt>
      <trkpt lat="44.06825" lon="6.06537">
        <ele>635.2</ele>
        <time>2021-09-10T10:34:08Z</time>
      </trkpt>
      <trkpt lat="44.06822" lon="6.0654">
        <ele>635.3</ele>
        <time>2021-09-10T10:34:10Z</time>
      </trkpt>
      <trkpt lat="44.06819" lon="6.06542">
        <ele>635.4</ele>
        <time>2021-09-10T10:34:11Z</time>
      </trkpt>
      <trkpt lat="44.06813" lon="6.06546">
        <ele>635.5</ele>
        <time>2021-09-10T10:34:13Z</time>
      </trkpt>
      <trkpt lat="44.0681" lon="6.06548">
        <ele>635.5</ele>
        <time>2021-09-10T10:34:14Z</time>
      </trkpt>
      <trkpt lat="44.06806" lon="6.06551">
        <ele>635.3</ele>
        <time>2021-09-10T10:34:15Z</time>
      </trkpt>
      <trkpt lat="44.06803" lon="6.06553">
        <ele>635.2</ele>
        <time>2021-09-10T10:34:16Z</time>
      </trkpt>
      <trkpt lat="44.06798" lon="6.06557">
        <ele>634.8</ele>
        <time>2021-09-10T10:34:17Z</time>
      </trkpt>
      <trkpt lat="44.06795" lon="6.0656">
        <ele>634.5</ele>
        <time>2021-09-10T10:34:19Z</time>
      </trkpt>
      <trkpt lat="44.06792" lon="6.06562">
        <ele>634.3</ele>
        <time>2021-09-10T10:34:20Z</time>
      </trkpt>
      <trkpt lat="44.06789" lon="6.06566">
        <ele>633.9</ele>
        <time>2021-09-10T10:34:21Z</time>
      </trkpt>
      <trkpt lat="44.06786" lon="6.06571">
        <ele>633.6</ele>
        <time>2021-09-10T10:34:22Z</time>
      </trkpt>
      <trkpt lat="44.06781" lon="6.06579">
        <ele>633</ele>
        <time>2021-09-10T10:34:23Z</time>
      </trkpt>
      <trkpt lat="44.06778" lon="6.06586">
        <ele>632.7</ele>
        <time>2021-09-10T10:34:24Z</time>
      </trkpt>
      <trkpt lat="44.06776" lon="6.06594">
        <ele>632.5</ele>
        <time>2021-09-10T10:34:25Z</time>
      </trkpt>
      <trkpt lat="44.06775" lon="6.06602">
        <ele>632.3</ele>
        <time>2021-09-10T10:34:26Z</time>
      </trkpt>
      <trkpt lat="44.06772" lon="6.06617">
        <ele>632</ele>
        <time>2021-09-10T10:34:28Z</time>
      </trkpt>
      <trkpt lat="44.06769" lon="6.06625">
        <ele>631.9</ele>
        <time>2021-09-10T10:34:29Z</time>
      </trkpt>
      <trkpt lat="44.06767" lon="6.06631">
        <ele>631.8</ele>
        <time>2021-09-10T10:34:30Z</time>
      </trkpt>
      <trkpt lat="44.0676" lon="6.06639">
        <ele>631.7</ele>
        <time>2021-09-10T10:34:32Z</time>
      </trkpt>
      <trkpt lat="44.06754" lon="6.06641">
        <ele>631.7</ele>
        <time>2021-09-10T10:34:33Z</time>
      </trkpt>
      <trkpt lat="44.06743" lon="6.06646">
        <ele>631.7</ele>
        <time>2021-09-10T10:34:35Z</time>
      </trkpt>
      <trkpt lat="44.06738" lon="6.0665">
        <ele>631.8</ele>
        <time>2021-09-10T10:34:36Z</time>
      </trkpt>
      <trkpt lat="44.06729" lon="6.06656">
        <ele>631.9</ele>
        <time>2021-09-10T10:34:38Z</time>
      </trkpt>
      <trkpt lat="44.0672" lon="6.0666">
        <ele>632.1</ele>
        <time>2021-09-10T10:34:40Z</time>
      </trkpt>
      <trkpt lat="44.06715" lon="6.06661">
        <ele>632.2</ele>
        <time>2021-09-10T10:34:41Z</time>
      </trkpt>
      <trkpt lat="44.06711" lon="6.06663">
        <ele>632.3</ele>
        <time>2021-09-10T10:34:42Z</time>
      </trkpt>
      <trkpt lat="44.06704" lon="6.06666">
        <ele>632.5</ele>
        <time>2021-09-10T10:34:44Z</time>
      </trkpt>
      <trkpt lat="44.067" lon="6.06667">
        <ele>632.6</ele>
        <time>2021-09-10T10:34:45Z</time>
      </trkpt>
      <trkpt lat="44.06702" lon="6.06668">
        <ele>632.6</ele>
        <time>2021-09-10T10:34:46Z</time>
      </trkpt>
      <trkpt lat="44.06696" lon="6.06669">
        <ele>632.8</ele>
        <time>2021-09-10T10:34:48Z</time>
      </trkpt>
      <trkpt lat="44.06687" lon="6.06671">
        <ele>633</ele>
        <time>2021-09-10T10:34:49Z</time>
      </trkpt>
      <trkpt lat="44.0668" lon="6.06673">
        <ele>633.2</ele>
        <time>2021-09-10T10:34:51Z</time>
      </trkpt>
      <trkpt lat="44.06672" lon="6.06674">
        <ele>633.5</ele>
        <time>2021-09-10T10:34:53Z</time>
      </trkpt>
      <trkpt lat="44.06667" lon="6.06676">
        <ele>633.7</ele>
        <time>2021-09-10T10:34:54Z</time>
      </trkpt>
      <trkpt lat="44.06661" lon="6.06679">
        <ele>634.1</ele>
        <time>2021-09-10T10:34:56Z</time>
      </trkpt>
      <trkpt lat="44.06656" lon="6.06681">
        <ele>634.5</ele>
        <time>2021-09-10T10:34:57Z</time>
      </trkpt>
      <trkpt lat="44.06652" lon="6.06683">
        <ele>634.7</ele>
        <time>2021-09-10T10:34:59Z</time>
      </trkpt>
      <trkpt lat="44.06648" lon="6.06683">
        <ele>635</ele>
        <time>2021-09-10T10:35:00Z</time>
      </trkpt>
      <trkpt lat="44.06645" lon="6.06682">
        <ele>635.3</ele>
        <time>2021-09-10T10:35:01Z</time>
      </trkpt>
      <trkpt lat="44.06642" lon="6.06683">
        <ele>635.7</ele>
        <time>2021-09-10T10:35:03Z</time>
      </trkpt>
      <trkpt lat="44.06639" lon="6.06683">
        <ele>635.9</ele>
        <time>2021-09-10T10:35:04Z</time>
      </trkpt>
      <trkpt lat="44.06635" lon="6.06684">
        <ele>636.3</ele>
        <time>2021-09-10T10:35:06Z</time>
      </trkpt>
      <trkpt lat="44.06633" lon="6.06686">
        <ele>636.6</ele>
        <time>2021-09-10T10:35:07Z</time>
      </trkpt>
      <trkpt lat="44.06629" lon="6.06689">
        <ele>637</ele>
        <time>2021-09-10T10:35:09Z</time>
      </trkpt>
      <trkpt lat="44.06626" lon="6.06693">
        <ele>637.4</ele>
        <time>2021-09-10T10:35:10Z</time>
      </trkpt>
      <trkpt lat="44.06623" lon="6.06697">
        <ele>637.8</ele>
        <time>2021-09-10T10:35:11Z</time>
      </trkpt>
      <trkpt lat="44.06622" lon="6.06699">
        <ele>638</ele>
        <time>2021-09-10T10:35:12Z</time>
      </trkpt>
      <trkpt lat="44.0662" lon="6.06703">
        <ele>638.4</ele>
        <time>2021-09-10T10:35:13Z</time>
      </trkpt>
      <trkpt lat="44.06618" lon="6.06706">
        <ele>638.7</ele>
        <time>2021-09-10T10:35:15Z</time>
      </trkpt>
      <trkpt lat="44.06615" lon="6.06708">
        <ele>639</ele>
        <time>2021-09-10T10:35:16Z</time>
      </trkpt>
      <trkpt lat="44.06613" lon="6.0671">
        <ele>639.3</ele>
        <time>2021-09-10T10:35:17Z</time>
      </trkpt>
      <trkpt lat="44.06611" lon="6.06714">
        <ele>639.6</ele>
        <time>2021-09-10T10:35:19Z</time>
      </trkpt>
      <trkpt lat="44.06611" lon="6.06715">
        <ele>639.7</ele>
        <time>2021-09-10T10:35:20Z</time>
      </trkpt>
      <trkpt lat="44.0661" lon="6.0672">
        <ele>640</ele>
        <time>2021-09-10T10:35:21Z</time>
      </trkpt>
      <trkpt lat="44.0661" lon="6.06721">
        <ele>640.1</ele>
        <time>2021-09-10T10:35:22Z</time>
      </trkpt>
      <trkpt lat="44.06609" lon="6.06723">
        <ele>640.3</ele>
        <time>2021-09-10T10:35:24Z</time>
      </trkpt>
      <trkpt lat="44.06608" lon="6.06729">
        <ele>640.7</ele>
        <time>2021-09-10T10:35:26Z</time>
      </trkpt>
      <trkpt lat="44.06608" lon="6.06733">
        <ele>640.9</ele>
        <time>2021-09-10T10:35:27Z</time>
      </trkpt>
      <trkpt lat="44.06608" lon="6.06736">
        <ele>641.1</ele>
        <time>2021-09-10T10:35:29Z</time>
      </trkpt>
      <trkpt lat="44.06606" lon="6.06741">
        <ele>641.4</ele>
        <time>2021-09-10T10:35:30Z</time>
      </trkpt>
      <trkpt lat="44.06605" lon="6.06744">
        <ele>641.6</ele>
        <time>2021-09-10T10:35:31Z</time>
      </trkpt>
      <trkpt lat="44.06603" lon="6.06748">
        <ele>641.8</ele>
        <time>2021-09-10T10:35:33Z</time>
      </trkpt>
      <trkpt lat="44.06603" lon="6.06749">
        <ele>641.8</ele>
        <time>2021-09-10T10:35:34Z</time>
      </trkpt>
      <trkpt lat="44.06602" lon="6.06751">
        <ele>641.9</ele>
        <time>2021-09-10T10:35:36Z</time>
      </trkpt>
      <trkpt lat="44.06602" lon="6.06752">
        <ele>642</ele>
        <time>2021-09-10T10:35:37Z</time>
      </trkpt>
      <trkpt lat="44.06602" lon="6.06751">
        <ele>642</ele>
        <time>2021-09-10T10:35:38Z</time>
      </trkpt>
      <trkpt lat="44.06601" lon="6.06751">
        <ele>642</ele>
        <time>2021-09-10T10:35:39Z</time>
      </trkpt>
      <trkpt lat="44.066" lon="6.06751">
        <ele>642</ele>
        <time>2021-09-10T10:35:40Z</time>
      </trkpt>
      <trkpt lat="44.06599" lon="6.06752">
        <ele>642.1</ele>
        <time>2021-09-10T10:35:42Z</time>
      </trkpt>
      <trkpt lat="44.06598" lon="6.06752">
        <ele>642.2</ele>
        <time>2021-09-10T10:35:43Z</time>
      </trkpt>
      <trkpt lat="44.06597" lon="6.06754">
        <ele>642.2</ele>
        <time>2021-09-10T10:35:45Z</time>
      </trkpt>
      <trkpt lat="44.06595" lon="6.06755">
        <ele>642.3</ele>
        <time>2021-09-10T10:35:46Z</time>
      </trkpt>
      <trkpt lat="44.06588" lon="6.06763">
        <ele>642.5</ele>
        <time>2021-09-10T10:35:51Z</time>
      </trkpt>
      <trkpt lat="44.06584" lon="6.06767">
        <ele>642.6</ele>
        <time>2021-09-10T10:35:53Z</time>
      </trkpt>
      <trkpt lat="44.0658" lon="6.06773">
        <ele>642.6</ele>
        <time>2021-09-10T10:35:55Z</time>
      </trkpt>
      <trkpt lat="44.06578" lon="6.06776">
        <ele>642.6</ele>
        <time>2021-09-10T10:35:56Z</time>
      </trkpt>
      <trkpt lat="44.06576" lon="6.06779">
        <ele>642.6</ele>
        <time>2021-09-10T10:35:57Z</time>
      </trkpt>
      <trkpt lat="44.06574" lon="6.06783">
        <ele>642.5</ele>
        <time>2021-09-10T10:35:58Z</time>
      </trkpt>
      <trkpt lat="44.06574" lon="6.06783">
        <ele>642.5</ele>
        <time>2021-09-10T10:35:59Z</time>
      </trkpt>
      <trkpt lat="44.06571" lon="6.06786">
        <ele>642.4</ele>
        <time>2021-09-10T10:36:01Z</time>
      </trkpt>
      <trkpt lat="44.0657" lon="6.06787">
        <ele>642.4</ele>
        <time>2021-09-10T10:36:02Z</time>
      </trkpt>
      <trkpt lat="44.0657" lon="6.06787">
        <ele>642.4</ele>
        <time>2021-09-10T10:36:04Z</time>
      </trkpt>
      <trkpt lat="44.06569" lon="6.06788">
        <ele>642.3</ele>
        <time>2021-09-10T10:36:05Z</time>
      </trkpt>
      <trkpt lat="44.06569" lon="6.06789">
        <ele>642.3</ele>
        <time>2021-09-10T10:36:06Z</time>
      </trkpt>
      <trkpt lat="44.06567" lon="6.06795">
        <ele>642.1</ele>
        <time>2021-09-10T10:36:08Z</time>
      </trkpt>
      <trkpt lat="44.06566" lon="6.06798">
        <ele>642</ele>
        <time>2021-09-10T10:36:09Z</time>
      </trkpt>
      <trkpt lat="44.06564" lon="6.0681">
        <ele>641.4</ele>
        <time>2021-09-10T10:36:10Z</time>
      </trkpt>
      <trkpt lat="44.0656" lon="6.06832">
        <ele>640.2</ele>
        <time>2021-09-10T10:36:12Z</time>
      </trkpt>
      <trkpt lat="44.06559" lon="6.06842">
        <ele>639.6</ele>
        <time>2021-09-10T10:36:13Z</time>
      </trkpt>
      <trkpt lat="44.06558" lon="6.06852">
        <ele>639.1</ele>
        <time>2021-09-10T10:36:14Z</time>
      </trkpt>
      <trkpt lat="44.06556" lon="6.06872">
        <ele>638.3</ele>
        <time>2021-09-10T10:36:16Z</time>
      </trkpt>
      <trkpt lat="44.06554" lon="6.06882">
        <ele>638</ele>
        <time>2021-09-10T10:36:17Z</time>
      </trkpt>
      <trkpt lat="44.06553" lon="6.06893">
        <ele>637.6</ele>
        <time>2021-09-10T10:36:18Z</time>
      </trkpt>
      <trkpt lat="44.0655" lon="6.06913">
        <ele>636.7</ele>
        <time>2021-09-10T10:36:20Z</time>
      </trkpt>
      <trkpt lat="44.0655" lon="6.06931">
        <ele>635.7</ele>
        <time>2021-09-10T10:36:22Z</time>
      </trkpt>
      <trkpt lat="44.06551" lon="6.06939">
        <ele>635.2</ele>
        <time>2021-09-10T10:36:23Z</time>
      </trkpt>
      <trkpt lat="44.06553" lon="6.06946">
        <ele>634.8</ele>
        <time>2021-09-10T10:36:24Z</time>
      </trkpt>
      <trkpt lat="44.06556" lon="6.06952">
        <ele>634.4</ele>
        <time>2021-09-10T10:36:25Z</time>
      </trkpt>
      <trkpt lat="44.06559" lon="6.06957">
        <ele>634.1</ele>
        <time>2021-09-10T10:36:26Z</time>
      </trkpt>
      <trkpt lat="44.06567" lon="6.06968">
        <ele>633.7</ele>
        <time>2021-09-10T10:36:28Z</time>
      </trkpt>
      <trkpt lat="44.06569" lon="6.06975">
        <ele>633.6</ele>
        <time>2021-09-10T10:36:29Z</time>
      </trkpt>
      <trkpt lat="44.0657" lon="6.0698">
        <ele>633.6</ele>
        <time>2021-09-10T10:36:30Z</time>
      </trkpt>
      <trkpt lat="44.0657" lon="6.06991">
        <ele>633.6</ele>
        <time>2021-09-10T10:36:32Z</time>
      </trkpt>
      <trkpt lat="44.06569" lon="6.06995">
        <ele>633.6</ele>
        <time>2021-09-10T10:36:34Z</time>
      </trkpt>
      <trkpt lat="44.06567" lon="6.07003">
        <ele>633.8</ele>
        <time>2021-09-10T10:36:36Z</time>
      </trkpt>
      <trkpt lat="44.06567" lon="6.0701">
        <ele>634</ele>
        <time>2021-09-10T10:36:38Z</time>
      </trkpt>
      <trkpt lat="44.06566" lon="6.07016">
        <ele>634.1</ele>
        <time>2021-09-10T10:36:39Z</time>
      </trkpt>
      <trkpt lat="44.06566" lon="6.07025">
        <ele>634.5</ele>
        <time>2021-09-10T10:36:41Z</time>
      </trkpt>
      <trkpt lat="44.06565" lon="6.07031">
        <ele>634.7</ele>
        <time>2021-09-10T10:36:42Z</time>
      </trkpt>
      <trkpt lat="44.06564" lon="6.07036">
        <ele>634.9</ele>
        <time>2021-09-10T10:36:43Z</time>
      </trkpt>
      <trkpt lat="44.06562" lon="6.07041">
        <ele>635.1</ele>
        <time>2021-09-10T10:36:45Z</time>
      </trkpt>
      <trkpt lat="44.0656" lon="6.07044">
        <ele>635.2</ele>
        <time>2021-09-10T10:36:46Z</time>
      </trkpt>
      <trkpt lat="44.0656" lon="6.07049">
        <ele>635.2</ele>
        <time>2021-09-10T10:36:47Z</time>
      </trkpt>
      <trkpt lat="44.06561" lon="6.07053">
        <ele>635.3</ele>
        <time>2021-09-10T10:36:48Z</time>
      </trkpt>
      <trkpt lat="44.0656" lon="6.07058">
        <ele>635.3</ele>
        <time>2021-09-10T10:36:49Z</time>
      </trkpt>
      <trkpt lat="44.0656" lon="6.07064">
        <ele>635.2</ele>
        <time>2021-09-10T10:36:51Z</time>
      </trkpt>
      <trkpt lat="44.06559" lon="6.07069">
        <ele>635.1</ele>
        <time>2021-09-10T10:36:52Z</time>
      </trkpt>
      <trkpt lat="44.06558" lon="6.07074">
        <ele>634.9</ele>
        <time>2021-09-10T10:36:54Z</time>
      </trkpt>
      <trkpt lat="44.06556" lon="6.07079">
        <ele>634.7</ele>
        <time>2021-09-10T10:36:55Z</time>
      </trkpt>
      <trkpt lat="44.06555" lon="6.07084">
        <ele>634.5</ele>
        <time>2021-09-10T10:36:56Z</time>
      </trkpt>
      <trkpt lat="44.06553" lon="6.07099">
        <ele>633.7</ele>
        <time>2021-09-10T10:36:58Z</time>
      </trkpt>
      <trkpt lat="44.06553" lon="6.07106">
        <ele>633.3</ele>
        <time>2021-09-10T10:36:59Z</time>
      </trkpt>
      <trkpt lat="44.06552" lon="6.07113">
        <ele>632.8</ele>
        <time>2021-09-10T10:37:00Z</time>
      </trkpt>
      <trkpt lat="44.06552" lon="6.0713">
        <ele>631.6</ele>
        <time>2021-09-10T10:37:02Z</time>
      </trkpt>
      <trkpt lat="44.06556" lon="6.07149">
        <ele>630.1</ele>
        <time>2021-09-10T10:37:04Z</time>
      </trkpt>
      <trkpt lat="44.06559" lon="6.07158">
        <ele>629.4</ele>
        <time>2021-09-10T10:37:05Z</time>
      </trkpt>
      <trkpt lat="44.06564" lon="6.07178">
        <ele>627.8</ele>
        <time>2021-09-10T10:37:07Z</time>
      </trkpt>
      <trkpt lat="44.06567" lon="6.0719">
        <ele>627</ele>
        <time>2021-09-10T10:37:08Z</time>
      </trkpt>
      <trkpt lat="44.06574" lon="6.07208">
        <ele>625.9</ele>
        <time>2021-09-10T10:37:10Z</time>
      </trkpt>
      <trkpt lat="44.06578" lon="6.07215">
        <ele>625.7</ele>
        <time>2021-09-10T10:37:11Z</time>
      </trkpt>
      <trkpt lat="44.06581" lon="6.07221">
        <ele>625.5</ele>
        <time>2021-09-10T10:37:12Z</time>
      </trkpt>
      <trkpt lat="44.06586" lon="6.07236">
        <ele>625.5</ele>
        <time>2021-09-10T10:37:14Z</time>
      </trkpt>
      <trkpt lat="44.06588" lon="6.07252">
        <ele>625.9</ele>
        <time>2021-09-10T10:37:16Z</time>
      </trkpt>
      <trkpt lat="44.06584" lon="6.07262">
        <ele>626.3</ele>
        <time>2021-09-10T10:37:18Z</time>
      </trkpt>
      <trkpt lat="44.06578" lon="6.07267">
        <ele>626.8</ele>
        <time>2021-09-10T10:37:20Z</time>
      </trkpt>
      <trkpt lat="44.06569" lon="6.07272">
        <ele>627.3</ele>
        <time>2021-09-10T10:37:22Z</time>
      </trkpt>
      <trkpt lat="44.06564" lon="6.07274">
        <ele>627.7</ele>
        <time>2021-09-10T10:37:24Z</time>
      </trkpt>
      <trkpt lat="44.0656" lon="6.07276">
        <ele>628</ele>
        <time>2021-09-10T10:37:25Z</time>
      </trkpt>
      <trkpt lat="44.06558" lon="6.07278">
        <ele>628.2</ele>
        <time>2021-09-10T10:37:26Z</time>
      </trkpt>
      <trkpt lat="44.06555" lon="6.07279">
        <ele>628.4</ele>
        <time>2021-09-10T10:37:28Z</time>
      </trkpt>
      <trkpt lat="44.06553" lon="6.0728">
        <ele>628.6</ele>
        <time>2021-09-10T10:37:29Z</time>
      </trkpt>
      <trkpt lat="44.06549" lon="6.0728">
        <ele>628.8</ele>
        <time>2021-09-10T10:37:31Z</time>
      </trkpt>
      <trkpt lat="44.06545" lon="6.07282">
        <ele>629.1</ele>
        <time>2021-09-10T10:37:33Z</time>
      </trkpt>
      <trkpt lat="44.06542" lon="6.07282">
        <ele>629.3</ele>
        <time>2021-09-10T10:37:34Z</time>
      </trkpt>
      <trkpt lat="44.06539" lon="6.07282">
        <ele>629.4</ele>
        <time>2021-09-10T10:37:36Z</time>
      </trkpt>
      <trkpt lat="44.06535" lon="6.07279">
        <ele>629.6</ele>
        <time>2021-09-10T10:37:37Z</time>
      </trkpt>
      <trkpt lat="44.06532" lon="6.07278">
        <ele>629.6</ele>
        <time>2021-09-10T10:37:38Z</time>
      </trkpt>
      <trkpt lat="44.06528" lon="6.07277">
        <ele>629.6</ele>
        <time>2021-09-10T10:37:40Z</time>
      </trkpt>
      <trkpt lat="44.06526" lon="6.07277">
        <ele>629.6</ele>
        <time>2021-09-10T10:37:41Z</time>
      </trkpt>
      <trkpt lat="44.06524" lon="6.07278">
        <ele>629.6</ele>
        <time>2021-09-10T10:37:43Z</time>
      </trkpt>
      <trkpt lat="44.06523" lon="6.07282">
        <ele>629.5</ele>
        <time>2021-09-10T10:37:45Z</time>
      </trkpt>
      <trkpt lat="44.06522" lon="6.07283">
        <ele>629.5</ele>
        <time>2021-09-10T10:37:46Z</time>
      </trkpt>
      <trkpt lat="44.06521" lon="6.07284">
        <ele>629.4</ele>
        <time>2021-09-10T10:37:47Z</time>
      </trkpt>
      <trkpt lat="44.06517" lon="6.07285">
        <ele>629.3</ele>
        <time>2021-09-10T10:37:49Z</time>
      </trkpt>
      <trkpt lat="44.06516" lon="6.07286">
        <ele>629.2</ele>
        <time>2021-09-10T10:37:50Z</time>
      </trkpt>
      <trkpt lat="44.06515" lon="6.07287">
        <ele>629.2</ele>
        <time>2021-09-10T10:37:52Z</time>
      </trkpt>
      <trkpt lat="44.06515" lon="6.07287">
        <ele>629.2</ele>
        <time>2021-09-10T10:37:54Z</time>
      </trkpt>
      <trkpt lat="44.06515" lon="6.07287">
        <ele>629.2</ele>
        <time>2021-09-10T10:37:56Z</time>
      </trkpt>
      <trkpt lat="44.06515" lon="6.07287">
        <ele>629.2</ele>
        <time>2021-09-10T10:37:58Z</time>
      </trkpt>
      <trkpt lat="44.06515" lon="6.07287">
        <ele>629.2</ele>
        <time>2021-09-10T10:37:59Z</time>
      </trkpt>
      <trkpt lat="44.06515" lon="6.07287">
        <ele>629.2</ele>
        <time>2021-09-10T10:38:00Z</time>
      </trkpt>
      <trkpt lat="44.06529" lon="6.07308">
        <ele>627.8</ele>
        <time>2021-09-10T10:38:55Z</time>
      </trkpt>
      <trkpt lat="44.06533" lon="6.07329">
        <ele>626.6</ele>
        <time>2021-09-10T10:38:57Z</time>
      </trkpt>
      <trkpt lat="44.06533" lon="6.07341">
        <ele>625.9</ele>
        <time>2021-09-10T10:38:58Z</time>
      </trkpt>
      <trkpt lat="44.06534" lon="6.0736">
        <ele>624.9</ele>
        <time>2021-09-10T10:39:00Z</time>
      </trkpt>
      <trkpt lat="44.06534" lon="6.07368">
        <ele>624.6</ele>
        <time>2021-09-10T10:39:01Z</time>
      </trkpt>
      <trkpt lat="44.06535" lon="6.07374">
        <ele>624.4</ele>
        <time>2021-09-10T10:39:02Z</time>
      </trkpt>
      <trkpt lat="44.06535" lon="6.0738">
        <ele>624.2</ele>
        <time>2021-09-10T10:39:03Z</time>
      </trkpt>
      <trkpt lat="44.06532" lon="6.07377">
        <ele>624.1</ele>
        <time>2021-09-10T10:39:05Z</time>
      </trkpt>
      <trkpt lat="44.06531" lon="6.07375">
        <ele>624.1</ele>
        <time>2021-09-10T10:39:06Z</time>
      </trkpt>
      <trkpt lat="44.06527" lon="6.07371">
        <ele>624</ele>
        <time>2021-09-10T10:39:07Z</time>
      </trkpt>
      <trkpt lat="44.06522" lon="6.07369">
        <ele>623.9</ele>
        <time>2021-09-10T10:39:08Z</time>
      </trkpt>
      <trkpt lat="44.06514" lon="6.07366">
        <ele>623.8</ele>
        <time>2021-09-10T10:39:10Z</time>
      </trkpt>
      <trkpt lat="44.06509" lon="6.07364">
        <ele>623.8</ele>
        <time>2021-09-10T10:39:11Z</time>
      </trkpt>
      <trkpt lat="44.06497" lon="6.07362">
        <ele>623.7</ele>
        <time>2021-09-10T10:39:13Z</time>
      </trkpt>
      <trkpt lat="44.06492" lon="6.07364">
        <ele>623.6</ele>
        <time>2021-09-10T10:39:14Z</time>
      </trkpt>
      <trkpt lat="44.06482" lon="6.07366">
        <ele>623.3</ele>
        <time>2021-09-10T10:39:16Z</time>
      </trkpt>
      <trkpt lat="44.06475" lon="6.07369">
        <ele>623.1</ele>
        <time>2021-09-10T10:39:17Z</time>
      </trkpt>
      <trkpt lat="44.06472" lon="6.07374">
        <ele>623</ele>
        <time>2021-09-10T10:39:18Z</time>
      </trkpt>
      <trkpt lat="44.06466" lon="6.07379">
        <ele>622.8</ele>
        <time>2021-09-10T10:39:20Z</time>
      </trkpt>
      <trkpt lat="44.06461" lon="6.07394">
        <ele>622.5</ele>
        <time>2021-09-10T10:39:22Z</time>
      </trkpt>
      <trkpt lat="44.06456" lon="6.07404">
        <ele>622.6</ele>
        <time>2021-09-10T10:39:24Z</time>
      </trkpt>
      <trkpt lat="44.06453" lon="6.07409">
        <ele>622.7</ele>
        <time>2021-09-10T10:39:25Z</time>
      </trkpt>
      <trkpt lat="44.06453" lon="6.07416">
        <ele>622.8</ele>
        <time>2021-09-10T10:39:26Z</time>
      </trkpt>
      <trkpt lat="44.06449" lon="6.07421">
        <ele>623</ele>
        <time>2021-09-10T10:39:28Z</time>
      </trkpt>
      <trkpt lat="44.06446" lon="6.07424">
        <ele>623.2</ele>
        <time>2021-09-10T10:39:29Z</time>
      </trkpt>
      <trkpt lat="44.06443" lon="6.07426">
        <ele>623.3</ele>
        <time>2021-09-10T10:39:30Z</time>
      </trkpt>
      <trkpt lat="44.06441" lon="6.07432">
        <ele>623.6</ele>
        <time>2021-09-10T10:39:32Z</time>
      </trkpt>
      <trkpt lat="44.06439" lon="6.07433">
        <ele>623.7</ele>
        <time>2021-09-10T10:39:34Z</time>
      </trkpt>
      <trkpt lat="44.06439" lon="6.07432">
        <ele>623.7</ele>
        <time>2021-09-10T10:39:35Z</time>
      </trkpt>
      <trkpt lat="44.06439" lon="6.07433">
        <ele>623.7</ele>
        <time>2021-09-10T10:39:36Z</time>
      </trkpt>
      <trkpt lat="44.0644" lon="6.07434">
        <ele>623.8</ele>
        <time>2021-09-10T10:39:37Z</time>
      </trkpt>
      <trkpt lat="44.0644" lon="6.07434">
        <ele>623.8</ele>
        <time>2021-09-10T10:39:38Z</time>
      </trkpt>
      <trkpt lat="44.06439" lon="6.07435">
        <ele>623.9</ele>
        <time>2021-09-10T10:39:40Z</time>
      </trkpt>
      <trkpt lat="44.0644" lon="6.07433">
        <ele>623.9</ele>
        <time>2021-09-10T10:39:42Z</time>
      </trkpt>
      <trkpt lat="44.0644" lon="6.07434">
        <ele>624</ele>
        <time>2021-09-10T10:39:43Z</time>
      </trkpt>
      <trkpt lat="44.0644" lon="6.07438">
        <ele>624.2</ele>
        <time>2021-09-10T10:39:45Z</time>
      </trkpt>
      <trkpt lat="44.06437" lon="6.07446">
        <ele>624.6</ele>
        <time>2021-09-10T10:39:47Z</time>
      </trkpt>
      <trkpt lat="44.06436" lon="6.0745">
        <ele>624.8</ele>
        <time>2021-09-10T10:39:48Z</time>
      </trkpt>
      <trkpt lat="44.06434" lon="6.07454">
        <ele>625</ele>
        <time>2021-09-10T10:39:50Z</time>
      </trkpt>
      <trkpt lat="44.06431" lon="6.07459">
        <ele>625.4</ele>
        <time>2021-09-10T10:39:52Z</time>
      </trkpt>
      <trkpt lat="44.0643" lon="6.07464">
        <ele>625.6</ele>
        <time>2021-09-10T10:39:53Z</time>
      </trkpt>
      <trkpt lat="44.0643" lon="6.07468">
        <ele>625.9</ele>
        <time>2021-09-10T10:39:55Z</time>
      </trkpt>
      <trkpt lat="44.0643" lon="6.07475">
        <ele>626.3</ele>
        <time>2021-09-10T10:39:57Z</time>
      </trkpt>
      <trkpt lat="44.0643" lon="6.07481">
        <ele>626.6</ele>
        <time>2021-09-10T10:39:58Z</time>
      </trkpt>
      <trkpt lat="44.0643" lon="6.07484">
        <ele>626.7</ele>
        <time>2021-09-10T10:39:59Z</time>
      </trkpt>
      <trkpt lat="44.0643" lon="6.07489">
        <ele>627</ele>
        <time>2021-09-10T10:40:01Z</time>
      </trkpt>
      <trkpt lat="44.0643" lon="6.07491">
        <ele>627.1</ele>
        <time>2021-09-10T10:40:02Z</time>
      </trkpt>
      <trkpt lat="44.0643" lon="6.07496">
        <ele>627.4</ele>
        <time>2021-09-10T10:40:03Z</time>
      </trkpt>
      <trkpt lat="44.06431" lon="6.07503">
        <ele>627.8</ele>
        <time>2021-09-10T10:40:05Z</time>
      </trkpt>
      <trkpt lat="44.06431" lon="6.07511">
        <ele>628.2</ele>
        <time>2021-09-10T10:40:07Z</time>
      </trkpt>
      <trkpt lat="44.0643" lon="6.07516">
        <ele>628.4</ele>
        <time>2021-09-10T10:40:09Z</time>
      </trkpt>
      <trkpt lat="44.0643" lon="6.0752">
        <ele>628.6</ele>
        <time>2021-09-10T10:40:10Z</time>
      </trkpt>
      <trkpt lat="44.0643" lon="6.07522">
        <ele>628.7</ele>
        <time>2021-09-10T10:40:11Z</time>
      </trkpt>
      <trkpt lat="44.0643" lon="6.07524">
        <ele>628.8</ele>
        <time>2021-09-10T10:40:12Z</time>
      </trkpt>
      <trkpt lat="44.0643" lon="6.07529">
        <ele>629</ele>
        <time>2021-09-10T10:40:14Z</time>
      </trkpt>
      <trkpt lat="44.06429" lon="6.07537">
        <ele>629.3</ele>
        <time>2021-09-10T10:40:16Z</time>
      </trkpt>
      <trkpt lat="44.06429" lon="6.07541">
        <ele>629.5</ele>
        <time>2021-09-10T10:40:17Z</time>
      </trkpt>
      <trkpt lat="44.06427" lon="6.07546">
        <ele>629.7</ele>
        <time>2021-09-10T10:40:19Z</time>
      </trkpt>
      <trkpt lat="44.06427" lon="6.07547">
        <ele>629.8</ele>
        <time>2021-09-10T10:40:20Z</time>
      </trkpt>
      <trkpt lat="44.06426" lon="6.07553">
        <ele>630</ele>
        <time>2021-09-10T10:40:22Z</time>
      </trkpt>
      <trkpt lat="44.06424" lon="6.0756">
        <ele>630.3</ele>
        <time>2021-09-10T10:40:24Z</time>
      </trkpt>
      <trkpt lat="44.06424" lon="6.07564">
        <ele>630.5</ele>
        <time>2021-09-10T10:40:25Z</time>
      </trkpt>
      <trkpt lat="44.06424" lon="6.07572">
        <ele>630.8</ele>
        <time>2021-09-10T10:40:27Z</time>
      </trkpt>
      <trkpt lat="44.06424" lon="6.07574">
        <ele>630.9</ele>
        <time>2021-09-10T10:40:28Z</time>
      </trkpt>
      <trkpt lat="44.06424" lon="6.07577">
        <ele>631</ele>
        <time>2021-09-10T10:40:29Z</time>
      </trkpt>
      <trkpt lat="44.06423" lon="6.07582">
        <ele>631.2</ele>
        <time>2021-09-10T10:40:31Z</time>
      </trkpt>
      <trkpt lat="44.06422" lon="6.07585">
        <ele>631.4</ele>
        <time>2021-09-10T10:40:32Z</time>
      </trkpt>
      <trkpt lat="44.06421" lon="6.07591">
        <ele>631.6</ele>
        <time>2021-09-10T10:40:34Z</time>
      </trkpt>
      <trkpt lat="44.06422" lon="6.07594">
        <ele>631.8</ele>
        <time>2021-09-10T10:40:35Z</time>
      </trkpt>
      <trkpt lat="44.06422" lon="6.07599">
        <ele>632</ele>
        <time>2021-09-10T10:40:36Z</time>
      </trkpt>
      <trkpt lat="44.06422" lon="6.07602">
        <ele>632</ele>
        <time>2021-09-10T10:40:38Z</time>
      </trkpt>
      <trkpt lat="44.06422" lon="6.07603">
        <ele>632.1</ele>
        <time>2021-09-10T10:40:39Z</time>
      </trkpt>
      <trkpt lat="44.06421" lon="6.07608">
        <ele>632.1</ele>
        <time>2021-09-10T10:40:40Z</time>
      </trkpt>
      <trkpt lat="44.0642" lon="6.07611">
        <ele>632.2</ele>
        <time>2021-09-10T10:40:41Z</time>
      </trkpt>
      <trkpt lat="44.06417" lon="6.07615">
        <ele>632.2</ele>
        <time>2021-09-10T10:40:43Z</time>
      </trkpt>
      <trkpt lat="44.06414" lon="6.07622">
        <ele>632.3</ele>
        <time>2021-09-10T10:40:45Z</time>
      </trkpt>
      <trkpt lat="44.06412" lon="6.0763">
        <ele>632.3</ele>
        <time>2021-09-10T10:40:47Z</time>
      </trkpt>
      <trkpt lat="44.06412" lon="6.07636">
        <ele>632.4</ele>
        <time>2021-09-10T10:40:48Z</time>
      </trkpt>
      <trkpt lat="44.06411" lon="6.07645">
        <ele>632.4</ele>
        <time>2021-09-10T10:40:49Z</time>
      </trkpt>
      <trkpt lat="44.06412" lon="6.07654">
        <ele>632.5</ele>
        <time>2021-09-10T10:40:51Z</time>
      </trkpt>
      <trkpt lat="44.06414" lon="6.07668">
        <ele>632.6</ele>
        <time>2021-09-10T10:40:53Z</time>
      </trkpt>
      <trkpt lat="44.06414" lon="6.07681">
        <ele>632.6</ele>
        <time>2021-09-10T10:40:55Z</time>
      </trkpt>
      <trkpt lat="44.06413" lon="6.0769">
        <ele>632.7</ele>
        <time>2021-09-10T10:40:56Z</time>
      </trkpt>
      <trkpt lat="44.06412" lon="6.07699">
        <ele>632.7</ele>
        <time>2021-09-10T10:40:57Z</time>
      </trkpt>
      <trkpt lat="44.06412" lon="6.07706">
        <ele>632.8</ele>
        <time>2021-09-10T10:40:59Z</time>
      </trkpt>
      <trkpt lat="44.06412" lon="6.07711">
        <ele>632.8</ele>
        <time>2021-09-10T10:41:00Z</time>
      </trkpt>
      <trkpt lat="44.06412" lon="6.07718">
        <ele>632.8</ele>
        <time>2021-09-10T10:41:02Z</time>
      </trkpt>
      <trkpt lat="44.06411" lon="6.07721">
        <ele>632.8</ele>
        <time>2021-09-10T10:41:03Z</time>
      </trkpt>
      <trkpt lat="44.06408" lon="6.07722">
        <ele>632.9</ele>
        <time>2021-09-10T10:41:04Z</time>
      </trkpt>
      <trkpt lat="44.06404" lon="6.07722">
        <ele>632.9</ele>
        <time>2021-09-10T10:41:06Z</time>
      </trkpt>
      <trkpt lat="44.06404" lon="6.07723">
        <ele>632.9</ele>
        <time>2021-09-10T10:41:07Z</time>
      </trkpt>
      <trkpt lat="44.06402" lon="6.07729">
        <ele>632.9</ele>
        <time>2021-09-10T10:41:08Z</time>
      </trkpt>
      <trkpt lat="44.06401" lon="6.07734">
        <ele>632.9</ele>
        <time>2021-09-10T10:41:09Z</time>
      </trkpt>
      <trkpt lat="44.06401" lon="6.07741">
        <ele>633</ele>
        <time>2021-09-10T10:41:10Z</time>
      </trkpt>
      <trkpt lat="44.064" lon="6.07751">
        <ele>633</ele>
        <time>2021-09-10T10:41:12Z</time>
      </trkpt>
      <trkpt lat="44.06399" lon="6.07758">
        <ele>633</ele>
        <time>2021-09-10T10:41:13Z</time>
      </trkpt>
      <trkpt lat="44.06398" lon="6.07767">
        <ele>633.1</ele>
        <time>2021-09-10T10:41:15Z</time>
      </trkpt>
      <trkpt lat="44.06396" lon="6.07772">
        <ele>633.1</ele>
        <time>2021-09-10T10:41:16Z</time>
      </trkpt>
      <trkpt lat="44.06393" lon="6.0778">
        <ele>633.2</ele>
        <time>2021-09-10T10:41:17Z</time>
      </trkpt>
      <trkpt lat="44.06392" lon="6.07787">
        <ele>633.2</ele>
        <time>2021-09-10T10:41:19Z</time>
      </trkpt>
      <trkpt lat="44.06391" lon="6.07792">
        <ele>633.3</ele>
        <time>2021-09-10T10:41:20Z</time>
      </trkpt>
      <trkpt lat="44.0639" lon="6.07801">
        <ele>633.4</ele>
        <time>2021-09-10T10:41:22Z</time>
      </trkpt>
      <trkpt lat="44.06389" lon="6.07807">
        <ele>633.5</ele>
        <time>2021-09-10T10:41:23Z</time>
      </trkpt>
      <trkpt lat="44.06388" lon="6.07817">
        <ele>633.6</ele>
        <time>2021-09-10T10:41:25Z</time>
      </trkpt>
      <trkpt lat="44.06387" lon="6.07822">
        <ele>633.7</ele>
        <time>2021-09-10T10:41:26Z</time>
      </trkpt>
      <trkpt lat="44.06386" lon="6.0783">
        <ele>633.8</ele>
        <time>2021-09-10T10:41:27Z</time>
      </trkpt>
      <trkpt lat="44.06385" lon="6.07836">
        <ele>633.9</ele>
        <time>2021-09-10T10:41:29Z</time>
      </trkpt>
      <trkpt lat="44.06383" lon="6.07843">
        <ele>634</ele>
        <time>2021-09-10T10:41:31Z</time>
      </trkpt>
      <trkpt lat="44.06381" lon="6.07849">
        <ele>634.1</ele>
        <time>2021-09-10T10:41:32Z</time>
      </trkpt>
      <trkpt lat="44.06381" lon="6.07859">
        <ele>634.3</ele>
        <time>2021-09-10T10:41:34Z</time>
      </trkpt>
      <trkpt lat="44.06381" lon="6.07869">
        <ele>634.5</ele>
        <time>2021-09-10T10:41:36Z</time>
      </trkpt>
      <trkpt lat="44.06382" lon="6.07873">
        <ele>634.6</ele>
        <time>2021-09-10T10:41:37Z</time>
      </trkpt>
      <trkpt lat="44.06383" lon="6.07878">
        <ele>634.7</ele>
        <time>2021-09-10T10:41:38Z</time>
      </trkpt>
      <trkpt lat="44.06385" lon="6.07885">
        <ele>634.9</ele>
        <time>2021-09-10T10:41:39Z</time>
      </trkpt>
      <trkpt lat="44.06387" lon="6.07889">
        <ele>635</ele>
        <time>2021-09-10T10:41:41Z</time>
      </trkpt>
      <trkpt lat="44.06388" lon="6.07894">
        <ele>635.2</ele>
        <time>2021-09-10T10:41:42Z</time>
      </trkpt>
      <trkpt lat="44.06389" lon="6.07904">
        <ele>635.5</ele>
        <time>2021-09-10T10:41:44Z</time>
      </trkpt>
      <trkpt lat="44.06388" lon="6.0791">
        <ele>635.7</ele>
        <time>2021-09-10T10:41:45Z</time>
      </trkpt>
      <trkpt lat="44.06388" lon="6.07915">
        <ele>635.9</ele>
        <time>2021-09-10T10:41:46Z</time>
      </trkpt>
      <trkpt lat="44.06387" lon="6.07923">
        <ele>636.2</ele>
        <time>2021-09-10T10:41:48Z</time>
      </trkpt>
      <trkpt lat="44.06387" lon="6.07927">
        <ele>636.4</ele>
        <time>2021-09-10T10:41:49Z</time>
      </trkpt>
      <trkpt lat="44.06387" lon="6.07936">
        <ele>636.7</ele>
        <time>2021-09-10T10:41:51Z</time>
      </trkpt>
      <trkpt lat="44.06388" lon="6.0794">
        <ele>636.9</ele>
        <time>2021-09-10T10:41:52Z</time>
      </trkpt>
      <trkpt lat="44.06388" lon="6.07944">
        <ele>637.1</ele>
        <time>2021-09-10T10:41:53Z</time>
      </trkpt>
      <trkpt lat="44.06387" lon="6.0795">
        <ele>637.3</ele>
        <time>2021-09-10T10:41:54Z</time>
      </trkpt>
      <trkpt lat="44.06387" lon="6.07956">
        <ele>637.6</ele>
        <time>2021-09-10T10:41:56Z</time>
      </trkpt>
      <trkpt lat="44.06385" lon="6.07965">
        <ele>638</ele>
        <time>2021-09-10T10:41:58Z</time>
      </trkpt>
      <trkpt lat="44.06384" lon="6.07969">
        <ele>638.2</ele>
        <time>2021-09-10T10:41:59Z</time>
      </trkpt>
      <trkpt lat="44.06383" lon="6.07973">
        <ele>638.4</ele>
        <time>2021-09-10T10:42:00Z</time>
      </trkpt>
      <trkpt lat="44.06383" lon="6.07974">
        <ele>638.5</ele>
        <time>2021-09-10T10:42:01Z</time>
      </trkpt>
      <trkpt lat="44.06382" lon="6.07977">
        <ele>638.6</ele>
        <time>2021-09-10T10:42:02Z</time>
      </trkpt>
      <trkpt lat="44.0638" lon="6.07981">
        <ele>638.9</ele>
        <time>2021-09-10T10:42:04Z</time>
      </trkpt>
      <trkpt lat="44.06379" lon="6.07984">
        <ele>639.1</ele>
        <time>2021-09-10T10:42:06Z</time>
      </trkpt>
      <trkpt lat="44.06378" lon="6.07985">
        <ele>639.2</ele>
        <time>2021-09-10T10:42:07Z</time>
      </trkpt>
      <trkpt lat="44.06377" lon="6.07987">
        <ele>639.3</ele>
        <time>2021-09-10T10:42:08Z</time>
      </trkpt>
      <trkpt lat="44.06376" lon="6.07988">
        <ele>639.4</ele>
        <time>2021-09-10T10:42:09Z</time>
      </trkpt>
      <trkpt lat="44.06375" lon="6.0799">
        <ele>639.5</ele>
        <time>2021-09-10T10:42:11Z</time>
      </trkpt>
      <trkpt lat="44.06373" lon="6.07994">
        <ele>639.7</ele>
        <time>2021-09-10T10:42:13Z</time>
      </trkpt>
      <trkpt lat="44.06373" lon="6.07996">
        <ele>639.9</ele>
        <time>2021-09-10T10:42:14Z</time>
      </trkpt>
      <trkpt lat="44.0637" lon="6.08">
        <ele>640.2</ele>
        <time>2021-09-10T10:42:16Z</time>
      </trkpt>
      <trkpt lat="44.06368" lon="6.08004">
        <ele>640.4</ele>
        <time>2021-09-10T10:42:17Z</time>
      </trkpt>
      <trkpt lat="44.06366" lon="6.08009">
        <ele>640.7</ele>
        <time>2021-09-10T10:42:18Z</time>
      </trkpt>
      <trkpt lat="44.06365" lon="6.0801">
        <ele>640.8</ele>
        <time>2021-09-10T10:42:19Z</time>
      </trkpt>
      <trkpt lat="44.06362" lon="6.08015">
        <ele>641.2</ele>
        <time>2021-09-10T10:42:20Z</time>
      </trkpt>
      <trkpt lat="44.06361" lon="6.08017">
        <ele>641.3</ele>
        <time>2021-09-10T10:42:21Z</time>
      </trkpt>
      <trkpt lat="44.0636" lon="6.08019">
        <ele>641.5</ele>
        <time>2021-09-10T10:42:22Z</time>
      </trkpt>
      <trkpt lat="44.06359" lon="6.08021">
        <ele>641.7</ele>
        <time>2021-09-10T10:42:24Z</time>
      </trkpt>
      <trkpt lat="44.06357" lon="6.08025">
        <ele>642</ele>
        <time>2021-09-10T10:42:26Z</time>
      </trkpt>
      <trkpt lat="44.06356" lon="6.08029">
        <ele>642.3</ele>
        <time>2021-09-10T10:42:28Z</time>
      </trkpt>
      <trkpt lat="44.06354" lon="6.08033">
        <ele>642.6</ele>
        <time>2021-09-10T10:42:30Z</time>
      </trkpt>
      <trkpt lat="44.06353" lon="6.08034">
        <ele>642.7</ele>
        <time>2021-09-10T10:42:31Z</time>
      </trkpt>
      <trkpt lat="44.06352" lon="6.08036">
        <ele>642.8</ele>
        <time>2021-09-10T10:42:32Z</time>
      </trkpt>
      <trkpt lat="44.06351" lon="6.08039">
        <ele>643.1</ele>
        <time>2021-09-10T10:42:34Z</time>
      </trkpt>
      <trkpt lat="44.0635" lon="6.08042">
        <ele>643.2</ele>
        <time>2021-09-10T10:42:35Z</time>
      </trkpt>
      <trkpt lat="44.0635" lon="6.08044">
        <ele>643.4</ele>
        <time>2021-09-10T10:42:36Z</time>
      </trkpt>
      <trkpt lat="44.06348" lon="6.08048">
        <ele>643.7</ele>
        <time>2021-09-10T10:42:38Z</time>
      </trkpt>
      <trkpt lat="44.06347" lon="6.08048">
        <ele>643.7</ele>
        <time>2021-09-10T10:42:39Z</time>
      </trkpt>
      <trkpt lat="44.06346" lon="6.08051">
        <ele>643.9</ele>
        <time>2021-09-10T10:42:40Z</time>
      </trkpt>
      <trkpt lat="44.06346" lon="6.08055">
        <ele>644.1</ele>
        <time>2021-09-10T10:42:42Z</time>
      </trkpt>
      <trkpt lat="44.06347" lon="6.08061">
        <ele>644.5</ele>
        <time>2021-09-10T10:42:44Z</time>
      </trkpt>
      <trkpt lat="44.06348" lon="6.08066">
        <ele>644.9</ele>
        <time>2021-09-10T10:42:46Z</time>
      </trkpt>
      <trkpt lat="44.06348" lon="6.0807">
        <ele>645.1</ele>
        <time>2021-09-10T10:42:47Z</time>
      </trkpt>
      <trkpt lat="44.06347" lon="6.08072">
        <ele>645.2</ele>
        <time>2021-09-10T10:42:49Z</time>
      </trkpt>
      <trkpt lat="44.06347" lon="6.08075">
        <ele>645.4</ele>
        <time>2021-09-10T10:42:50Z</time>
      </trkpt>
      <trkpt lat="44.06348" lon="6.08079">
        <ele>645.6</ele>
        <time>2021-09-10T10:42:52Z</time>
      </trkpt>
      <trkpt lat="44.06349" lon="6.08082">
        <ele>645.8</ele>
        <time>2021-09-10T10:42:53Z</time>
      </trkpt>
      <trkpt lat="44.06349" lon="6.08085">
        <ele>645.9</ele>
        <time>2021-09-10T10:42:55Z</time>
      </trkpt>
      <trkpt lat="44.06349" lon="6.08089">
        <ele>646.2</ele>
        <time>2021-09-10T10:42:57Z</time>
      </trkpt>
      <trkpt lat="44.06349" lon="6.08091">
        <ele>646.3</ele>
        <time>2021-09-10T10:42:58Z</time>
      </trkpt>
      <trkpt lat="44.06348" lon="6.08096">
        <ele>646.6</ele>
        <time>2021-09-10T10:43:00Z</time>
      </trkpt>
      <trkpt lat="44.06348" lon="6.08097">
        <ele>646.7</ele>
        <time>2021-09-10T10:43:01Z</time>
      </trkpt>
      <trkpt lat="44.06349" lon="6.081">
        <ele>646.8</ele>
        <time>2021-09-10T10:43:02Z</time>
      </trkpt>
      <trkpt lat="44.0635" lon="6.08103">
        <ele>647</ele>
        <time>2021-09-10T10:43:04Z</time>
      </trkpt>
      <trkpt lat="44.06351" lon="6.08108">
        <ele>647.2</ele>
        <time>2021-09-10T10:43:05Z</time>
      </trkpt>
      <trkpt lat="44.06352" lon="6.08112">
        <ele>647.5</ele>
        <time>2021-09-10T10:43:07Z</time>
      </trkpt>
      <trkpt lat="44.06354" lon="6.08115">
        <ele>647.7</ele>
        <time>2021-09-10T10:43:08Z</time>
      </trkpt>
      <trkpt lat="44.06356" lon="6.0812">
        <ele>647.9</ele>
        <time>2021-09-10T10:43:09Z</time>
      </trkpt>
      <trkpt lat="44.06359" lon="6.08124">
        <ele>648.2</ele>
        <time>2021-09-10T10:43:11Z</time>
      </trkpt>
      <trkpt lat="44.06362" lon="6.08129">
        <ele>648.5</ele>
        <time>2021-09-10T10:43:13Z</time>
      </trkpt>
      <trkpt lat="44.06363" lon="6.08133">
        <ele>648.7</ele>
        <time>2021-09-10T10:43:14Z</time>
      </trkpt>
      <trkpt lat="44.06363" lon="6.08135">
        <ele>648.7</ele>
        <time>2021-09-10T10:43:15Z</time>
      </trkpt>
      <trkpt lat="44.06363" lon="6.08139">
        <ele>648.9</ele>
        <time>2021-09-10T10:43:17Z</time>
      </trkpt>
      <trkpt lat="44.06364" lon="6.08144">
        <ele>649.1</ele>
        <time>2021-09-10T10:43:18Z</time>
      </trkpt>
      <trkpt lat="44.06364" lon="6.08146">
        <ele>649.2</ele>
        <time>2021-09-10T10:43:20Z</time>
      </trkpt>
      <trkpt lat="44.06364" lon="6.08148">
        <ele>649.3</ele>
        <time>2021-09-10T10:43:21Z</time>
      </trkpt>
      <trkpt lat="44.06364" lon="6.08149">
        <ele>649.3</ele>
        <time>2021-09-10T10:43:23Z</time>
      </trkpt>
      <trkpt lat="44.06364" lon="6.0815">
        <ele>649.3</ele>
        <time>2021-09-10T10:43:25Z</time>
      </trkpt>
      <trkpt lat="44.06365" lon="6.08152">
        <ele>649.4</ele>
        <time>2021-09-10T10:43:26Z</time>
      </trkpt>
      <trkpt lat="44.06365" lon="6.08154">
        <ele>649.5</ele>
        <time>2021-09-10T10:43:28Z</time>
      </trkpt>
      <trkpt lat="44.06366" lon="6.08157">
        <ele>649.6</ele>
        <time>2021-09-10T10:43:29Z</time>
      </trkpt>
      <trkpt lat="44.06366" lon="6.0816">
        <ele>649.8</ele>
        <time>2021-09-10T10:43:31Z</time>
      </trkpt>
      <trkpt lat="44.06366" lon="6.08167">
        <ele>649.3</ele>
        <time>2021-09-10T10:43:33Z</time>
      </trkpt>
      <trkpt lat="44.06365" lon="6.08181">
        <ele>648.4</ele>
        <time>2021-09-10T10:43:34Z</time>
      </trkpt>
      <trkpt lat="44.06363" lon="6.08194">
        <ele>647.4</ele>
        <time>2021-09-10T10:43:35Z</time>
      </trkpt>
      <trkpt lat="44.06361" lon="6.08206">
        <ele>646.6</ele>
        <time>2021-09-10T10:43:36Z</time>
      </trkpt>
      <trkpt lat="44.06359" lon="6.08228">
        <ele>645.1</ele>
        <time>2021-09-10T10:43:38Z</time>
      </trkpt>
      <trkpt lat="44.06358" lon="6.08252">
        <ele>643.7</ele>
        <time>2021-09-10T10:43:40Z</time>
      </trkpt>
      <trkpt lat="44.06358" lon="6.08265">
        <ele>643</ele>
        <time>2021-09-10T10:43:41Z</time>
      </trkpt>
      <trkpt lat="44.06356" lon="6.08289">
        <ele>641.9</ele>
        <time>2021-09-10T10:43:43Z</time>
      </trkpt>
      <trkpt lat="44.06355" lon="6.08299">
        <ele>641.5</ele>
        <time>2021-09-10T10:43:44Z</time>
      </trkpt>
      <trkpt lat="44.06351" lon="6.08317">
        <ele>640.9</ele>
        <time>2021-09-10T10:43:46Z</time>
      </trkpt>
      <trkpt lat="44.0635" lon="6.08325">
        <ele>640.6</ele>
        <time>2021-09-10T10:43:47Z</time>
      </trkpt>
      <trkpt lat="44.06352" lon="6.08342">
        <ele>639.9</ele>
        <time>2021-09-10T10:43:49Z</time>
      </trkpt>
      <trkpt lat="44.06356" lon="6.08351">
        <ele>639.5</ele>
        <time>2021-09-10T10:43:50Z</time>
      </trkpt>
      <trkpt lat="44.06368" lon="6.08365">
        <ele>638.2</ele>
        <time>2021-09-10T10:43:52Z</time>
      </trkpt>
      <trkpt lat="44.06376" lon="6.08368">
        <ele>637.5</ele>
        <time>2021-09-10T10:43:53Z</time>
      </trkpt>
      <trkpt lat="44.06384" lon="6.08368">
        <ele>637</ele>
        <time>2021-09-10T10:43:54Z</time>
      </trkpt>
      <trkpt lat="44.06398" lon="6.08367">
        <ele>635.3</ele>
        <time>2021-09-10T10:43:56Z</time>
      </trkpt>
      <trkpt lat="44.06414" lon="6.08369">
        <ele>633.8</ele>
        <time>2021-09-10T10:43:58Z</time>
      </trkpt>
      <trkpt lat="44.06421" lon="6.08372">
        <ele>633.2</ele>
        <time>2021-09-10T10:43:59Z</time>
      </trkpt>
      <trkpt lat="44.06428" lon="6.08377">
        <ele>632.6</ele>
        <time>2021-09-10T10:44:00Z</time>
      </trkpt>
      <trkpt lat="44.0644" lon="6.08391">
        <ele>631.7</ele>
        <time>2021-09-10T10:44:02Z</time>
      </trkpt>
      <trkpt lat="44.06448" lon="6.08405">
        <ele>631.1</ele>
        <time>2021-09-10T10:44:04Z</time>
      </trkpt>
      <trkpt lat="44.06451" lon="6.08412">
        <ele>631</ele>
        <time>2021-09-10T10:44:05Z</time>
      </trkpt>
      <trkpt lat="44.06453" lon="6.08419">
        <ele>631</ele>
        <time>2021-09-10T10:44:06Z</time>
      </trkpt>
      <trkpt lat="44.06455" lon="6.08426">
        <ele>630.9</ele>
        <time>2021-09-10T10:44:07Z</time>
      </trkpt>
      <trkpt lat="44.06455" lon="6.08431">
        <ele>630.9</ele>
        <time>2021-09-10T10:44:08Z</time>
      </trkpt>
      <trkpt lat="44.06456" lon="6.08441">
        <ele>630.8</ele>
        <time>2021-09-10T10:44:10Z</time>
      </trkpt>
      <trkpt lat="44.06454" lon="6.08447">
        <ele>630.8</ele>
        <time>2021-09-10T10:44:11Z</time>
      </trkpt>
      <trkpt lat="44.06451" lon="6.08453">
        <ele>630.3</ele>
        <time>2021-09-10T10:44:12Z</time>
      </trkpt>
      <trkpt lat="44.06441" lon="6.08464">
        <ele>629.4</ele>
        <time>2021-09-10T10:44:14Z</time>
      </trkpt>
      <trkpt lat="44.0643" lon="6.08477">
        <ele>628.7</ele>
        <time>2021-09-10T10:44:16Z</time>
      </trkpt>
      <trkpt lat="44.06426" lon="6.08485">
        <ele>628.5</ele>
        <time>2021-09-10T10:44:17Z</time>
      </trkpt>
      <trkpt lat="44.06421" lon="6.08499">
        <ele>628.1</ele>
        <time>2021-09-10T10:44:19Z</time>
      </trkpt>
      <trkpt lat="44.06419" lon="6.08506">
        <ele>628</ele>
        <time>2021-09-10T10:44:20Z</time>
      </trkpt>
      <trkpt lat="44.06417" lon="6.08518">
        <ele>627.8</ele>
        <time>2021-09-10T10:44:22Z</time>
      </trkpt>
      <trkpt lat="44.06417" lon="6.08523">
        <ele>627.7</ele>
        <time>2021-09-10T10:44:23Z</time>
      </trkpt>
      <trkpt lat="44.06417" lon="6.08531">
        <ele>627.7</ele>
        <time>2021-09-10T10:44:24Z</time>
      </trkpt>
      <trkpt lat="44.06415" lon="6.08548">
        <ele>627.6</ele>
        <time>2021-09-10T10:44:26Z</time>
      </trkpt>
      <trkpt lat="44.06412" lon="6.08565">
        <ele>627.4</ele>
        <time>2021-09-10T10:44:28Z</time>
      </trkpt>
      <trkpt lat="44.06411" lon="6.08574">
        <ele>627.3</ele>
        <time>2021-09-10T10:44:29Z</time>
      </trkpt>
      <trkpt lat="44.06409" lon="6.08583">
        <ele>627.1</ele>
        <time>2021-09-10T10:44:30Z</time>
      </trkpt>
      <trkpt lat="44.06406" lon="6.08601">
        <ele>626.8</ele>
        <time>2021-09-10T10:44:32Z</time>
      </trkpt>
      <trkpt lat="44.06403" lon="6.08619">
        <ele>626.5</ele>
        <time>2021-09-10T10:44:34Z</time>
      </trkpt>
      <trkpt lat="44.06403" lon="6.08628">
        <ele>626.4</ele>
        <time>2021-09-10T10:44:35Z</time>
      </trkpt>
      <trkpt lat="44.06402" lon="6.08638">
        <ele>626.2</ele>
        <time>2021-09-10T10:44:36Z</time>
      </trkpt>
      <trkpt lat="44.06399" lon="6.08658">
        <ele>626</ele>
        <time>2021-09-10T10:44:38Z</time>
      </trkpt>
      <trkpt lat="44.06396" lon="6.08676">
        <ele>625.9</ele>
        <time>2021-09-10T10:44:40Z</time>
      </trkpt>
      <trkpt lat="44.06393" lon="6.08694">
        <ele>625.7</ele>
        <time>2021-09-10T10:44:42Z</time>
      </trkpt>
      <trkpt lat="44.06392" lon="6.08711">
        <ele>625.6</ele>
        <time>2021-09-10T10:44:44Z</time>
      </trkpt>
      <trkpt lat="44.06391" lon="6.08719">
        <ele>625.5</ele>
        <time>2021-09-10T10:44:45Z</time>
      </trkpt>
      <trkpt lat="44.06389" lon="6.08736">
        <ele>625.4</ele>
        <time>2021-09-10T10:44:47Z</time>
      </trkpt>
      <trkpt lat="44.06388" lon="6.08745">
        <ele>625.3</ele>
        <time>2021-09-10T10:44:48Z</time>
      </trkpt>
      <trkpt lat="44.06385" lon="6.0876">
        <ele>625.1</ele>
        <time>2021-09-10T10:44:50Z</time>
      </trkpt>
      <trkpt lat="44.06381" lon="6.08774">
        <ele>625</ele>
        <time>2021-09-10T10:44:52Z</time>
      </trkpt>
      <trkpt lat="44.06379" lon="6.0878">
        <ele>624.9</ele>
        <time>2021-09-10T10:44:53Z</time>
      </trkpt>
      <trkpt lat="44.06372" lon="6.08792">
        <ele>624.7</ele>
        <time>2021-09-10T10:44:55Z</time>
      </trkpt>
      <trkpt lat="44.06369" lon="6.08797">
        <ele>624.7</ele>
        <time>2021-09-10T10:44:56Z</time>
      </trkpt>
      <trkpt lat="44.06363" lon="6.08809">
        <ele>624.5</ele>
        <time>2021-09-10T10:44:58Z</time>
      </trkpt>
      <trkpt lat="44.0636" lon="6.08815">
        <ele>624.5</ele>
        <time>2021-09-10T10:44:59Z</time>
      </trkpt>
      <trkpt lat="44.06358" lon="6.08822">
        <ele>624.4</ele>
        <time>2021-09-10T10:45:00Z</time>
      </trkpt>
      <trkpt lat="44.06352" lon="6.08834">
        <ele>624.2</ele>
        <time>2021-09-10T10:45:02Z</time>
      </trkpt>
      <trkpt lat="44.06349" lon="6.08839">
        <ele>624.1</ele>
        <time>2021-09-10T10:45:03Z</time>
      </trkpt>
      <trkpt lat="44.06343" lon="6.08852">
        <ele>623.9</ele>
        <time>2021-09-10T10:45:05Z</time>
      </trkpt>
      <trkpt lat="44.06341" lon="6.08858">
        <ele>623.8</ele>
        <time>2021-09-10T10:45:06Z</time>
      </trkpt>
      <trkpt lat="44.06338" lon="6.08863">
        <ele>623.7</ele>
        <time>2021-09-10T10:45:07Z</time>
      </trkpt>
      <trkpt lat="44.06336" lon="6.08866">
        <ele>623.6</ele>
        <time>2021-09-10T10:45:08Z</time>
      </trkpt>
      <trkpt lat="44.06334" lon="6.0887">
        <ele>623.6</ele>
        <time>2021-09-10T10:45:09Z</time>
      </trkpt>
      <trkpt lat="44.06332" lon="6.08877">
        <ele>623.4</ele>
        <time>2021-09-10T10:45:11Z</time>
      </trkpt>
      <trkpt lat="44.06327" lon="6.08884">
        <ele>623.2</ele>
        <time>2021-09-10T10:45:13Z</time>
      </trkpt>
      <trkpt lat="44.06325" lon="6.08889">
        <ele>623.1</ele>
        <time>2021-09-10T10:45:14Z</time>
      </trkpt>
      <trkpt lat="44.06323" lon="6.08893">
        <ele>622.9</ele>
        <time>2021-09-10T10:45:15Z</time>
      </trkpt>
      <trkpt lat="44.06321" lon="6.08897">
        <ele>622.8</ele>
        <time>2021-09-10T10:45:16Z</time>
      </trkpt>
      <trkpt lat="44.06318" lon="6.08902">
        <ele>622.6</ele>
        <time>2021-09-10T10:45:17Z</time>
      </trkpt>
      <trkpt lat="44.06317" lon="6.08908">
        <ele>622.5</ele>
        <time>2021-09-10T10:45:18Z</time>
      </trkpt>
      <trkpt lat="44.06316" lon="6.08913">
        <ele>622.3</ele>
        <time>2021-09-10T10:45:20Z</time>
      </trkpt>
      <trkpt lat="44.06315" lon="6.08914">
        <ele>622.3</ele>
        <time>2021-09-10T10:45:21Z</time>
      </trkpt>
      <trkpt lat="44.06315" lon="6.08915">
        <ele>622.3</ele>
        <time>2021-09-10T10:45:22Z</time>
      </trkpt>
      <trkpt lat="44.06314" lon="6.08918">
        <ele>622.2</ele>
        <time>2021-09-10T10:45:23Z</time>
      </trkpt>
      <trkpt lat="44.06313" lon="6.08923">
        <ele>622.1</ele>
        <time>2021-09-10T10:45:25Z</time>
      </trkpt>
      <trkpt lat="44.06313" lon="6.08923">
        <ele>622.1</ele>
        <time>2021-09-10T10:45:26Z</time>
      </trkpt>
      <trkpt lat="44.06315" lon="6.08926">
        <ele>622</ele>
        <time>2021-09-10T10:45:27Z</time>
      </trkpt>
      <trkpt lat="44.06316" lon="6.08928">
        <ele>621.9</ele>
        <time>2021-09-10T10:45:28Z</time>
      </trkpt>
      <trkpt lat="44.06316" lon="6.08931">
        <ele>621.8</ele>
        <time>2021-09-10T10:45:29Z</time>
      </trkpt>
      <trkpt lat="44.06315" lon="6.08934">
        <ele>621.8</ele>
        <time>2021-09-10T10:45:31Z</time>
      </trkpt>
      <trkpt lat="44.06313" lon="6.08937">
        <ele>621.7</ele>
        <time>2021-09-10T10:45:32Z</time>
      </trkpt>
      <trkpt lat="44.06311" lon="6.08942">
        <ele>621.6</ele>
        <time>2021-09-10T10:45:34Z</time>
      </trkpt>
      <trkpt lat="44.0631" lon="6.08947">
        <ele>621.6</ele>
        <time>2021-09-10T10:45:36Z</time>
      </trkpt>
      <trkpt lat="44.06309" lon="6.08952">
        <ele>621.5</ele>
        <time>2021-09-10T10:45:37Z</time>
      </trkpt>
      <trkpt lat="44.06309" lon="6.08954">
        <ele>621.5</ele>
        <time>2021-09-10T10:45:38Z</time>
      </trkpt>
      <trkpt lat="44.06308" lon="6.08956">
        <ele>621.4</ele>
        <time>2021-09-10T10:45:39Z</time>
      </trkpt>
      <trkpt lat="44.06306" lon="6.08959">
        <ele>621.4</ele>
        <time>2021-09-10T10:45:41Z</time>
      </trkpt>
      <trkpt lat="44.06307" lon="6.08961">
        <ele>621.4</ele>
        <time>2021-09-10T10:45:42Z</time>
      </trkpt>
      <trkpt lat="44.06306" lon="6.08962">
        <ele>621.4</ele>
        <time>2021-09-10T10:45:43Z</time>
      </trkpt>
      <trkpt lat="44.06306" lon="6.08962">
        <ele>621.4</ele>
        <time>2021-09-10T10:45:44Z</time>
      </trkpt>
      <trkpt lat="44.06305" lon="6.08961">
        <ele>621.3</ele>
        <time>2021-09-10T10:45:46Z</time>
      </trkpt>
      <trkpt lat="44.06304" lon="6.08962">
        <ele>621.3</ele>
        <time>2021-09-10T10:45:47Z</time>
      </trkpt>
      <trkpt lat="44.063" lon="6.08966">
        <ele>621.2</ele>
        <time>2021-09-10T10:45:49Z</time>
      </trkpt>
      <trkpt lat="44.06299" lon="6.08967">
        <ele>621.2</ele>
        <time>2021-09-10T10:45:50Z</time>
      </trkpt>
      <trkpt lat="44.06295" lon="6.08972">
        <ele>621.1</ele>
        <time>2021-09-10T10:45:52Z</time>
      </trkpt>
      <trkpt lat="44.06293" lon="6.08975">
        <ele>621.1</ele>
        <time>2021-09-10T10:45:53Z</time>
      </trkpt>
      <trkpt lat="44.06291" lon="6.08979">
        <ele>621</ele>
        <time>2021-09-10T10:45:55Z</time>
      </trkpt>
      <trkpt lat="44.06292" lon="6.08979">
        <ele>621</ele>
        <time>2021-09-10T10:45:56Z</time>
      </trkpt>
      <trkpt lat="44.06292" lon="6.08979">
        <ele>621</ele>
        <time>2021-09-10T10:45:58Z</time>
      </trkpt>
      <trkpt lat="44.06292" lon="6.0898">
        <ele>621</ele>
        <time>2021-09-10T10:45:59Z</time>
      </trkpt>
      <trkpt lat="44.06292" lon="6.0898">
        <ele>621</ele>
        <time>2021-09-10T10:46:01Z</time>
      </trkpt>
      <trkpt lat="44.06292" lon="6.08981">
        <ele>621</ele>
        <time>2021-09-10T10:46:03Z</time>
      </trkpt>
      <trkpt lat="44.06292" lon="6.08981">
        <ele>621</ele>
        <time>2021-09-10T10:47:52Z</time>
      </trkpt>
      <trkpt lat="44.06292" lon="6.08981">
        <ele>621</ele>
        <time>2021-09-10T10:47:54Z</time>
      </trkpt>
      <trkpt lat="44.06292" lon="6.08982">
        <ele>621</ele>
        <time>2021-09-10T10:47:55Z</time>
      </trkpt>
      <trkpt lat="44.06292" lon="6.08982">
        <ele>621</ele>
        <time>2021-09-10T10:47:56Z</time>
      </trkpt>
      <trkpt lat="44.06293" lon="6.08986">
        <ele>620.9</ele>
        <time>2021-09-10T10:47:58Z</time>
      </trkpt>
      <trkpt lat="44.06293" lon="6.08987">
        <ele>620.9</ele>
        <time>2021-09-10T10:47:59Z</time>
      </trkpt>
      <trkpt lat="44.06294" lon="6.08989">
        <ele>620.9</ele>
        <time>2021-09-10T10:48:01Z</time>
      </trkpt>
      <trkpt lat="44.06294" lon="6.08989">
        <ele>620.9</ele>
        <time>2021-09-10T10:48:02Z</time>
      </trkpt>
      <trkpt lat="44.06294" lon="6.08989">
        <ele>620.9</ele>
        <time>2021-09-10T10:48:04Z</time>
      </trkpt>
      <trkpt lat="44.06293" lon="6.08989">
        <ele>620.9</ele>
        <time>2021-09-10T10:48:06Z</time>
      </trkpt>
      <trkpt lat="44.06293" lon="6.08988">
        <ele>620.9</ele>
        <time>2021-09-10T10:48:08Z</time>
      </trkpt>
      <trkpt lat="44.06292" lon="6.08987">
        <ele>620.9</ele>
        <time>2021-09-10T10:48:09Z</time>
      </trkpt>
      <trkpt lat="44.06294" lon="6.08974">
        <ele>620.9</ele>
        <time>2021-09-10T10:48:17Z</time>
      </trkpt>
      <trkpt lat="44.06295" lon="6.08968">
        <ele>620.9</ele>
        <time>2021-09-10T10:48:18Z</time>
      </trkpt>
      <trkpt lat="44.06296" lon="6.08963">
        <ele>620.9</ele>
        <time>2021-09-10T10:48:20Z</time>
      </trkpt>
      <trkpt lat="44.06297" lon="6.08954">
        <ele>620.9</ele>
        <time>2021-09-10T10:48:21Z</time>
      </trkpt>
      <trkpt lat="44.06297" lon="6.08952">
        <ele>620.9</ele>
        <time>2021-09-10T10:48:22Z</time>
      </trkpt>
      <trkpt lat="44.06296" lon="6.0895">
        <ele>620.9</ele>
        <time>2021-09-10T10:48:24Z</time>
      </trkpt>
      <trkpt lat="44.06296" lon="6.08949">
        <ele>620.9</ele>
        <time>2021-09-10T10:48:25Z</time>
      </trkpt>
      <trkpt lat="44.06295" lon="6.08947">
        <ele>620.9</ele>
        <time>2021-09-10T10:48:26Z</time>
      </trkpt>
      <trkpt lat="44.06291" lon="6.08944">
        <ele>620.3</ele>
        <time>2021-09-10T10:48:28Z</time>
      </trkpt>
      <trkpt lat="44.06287" lon="6.08942">
        <ele>620.3</ele>
        <time>2021-09-10T10:48:29Z</time>
      </trkpt>
      <trkpt lat="44.0628" lon="6.08936">
        <ele>620.3</ele>
        <time>2021-09-10T10:48:31Z</time>
      </trkpt>
      <trkpt lat="44.06276" lon="6.08931">
        <ele>620.2</ele>
        <time>2021-09-10T10:48:32Z</time>
      </trkpt>
      <trkpt lat="44.0627" lon="6.08922">
        <ele>620.2</ele>
        <time>2021-09-10T10:48:33Z</time>
      </trkpt>
      <trkpt lat="44.06266" lon="6.08913">
        <ele>619.3</ele>
        <time>2021-09-10T10:48:35Z</time>
      </trkpt>
      <trkpt lat="44.06256" lon="6.08893">
        <ele>618.1</ele>
        <time>2021-09-10T10:48:36Z</time>
      </trkpt>
      <trkpt lat="44.06249" lon="6.08875">
        <ele>617.4</ele>
        <time>2021-09-10T10:48:38Z</time>
      </trkpt>
      <trkpt lat="44.06243" lon="6.08863">
        <ele>617.2</ele>
        <time>2021-09-10T10:48:40Z</time>
      </trkpt>
      <trkpt lat="44.06241" lon="6.08859">
        <ele>617.1</ele>
        <time>2021-09-10T10:48:41Z</time>
      </trkpt>
      <trkpt lat="44.06238" lon="6.08854">
        <ele>617</ele>
        <time>2021-09-10T10:48:42Z</time>
      </trkpt>
      <trkpt lat="44.06237" lon="6.08843">
        <ele>616.9</ele>
        <time>2021-09-10T10:48:44Z</time>
      </trkpt>
      <trkpt lat="44.06237" lon="6.08837">
        <ele>616.9</ele>
        <time>2021-09-10T10:48:45Z</time>
      </trkpt>
      <trkpt lat="44.06237" lon="6.08831">
        <ele>616.9</ele>
        <time>2021-09-10T10:48:46Z</time>
      </trkpt>
      <trkpt lat="44.06236" lon="6.08824">
        <ele>616.9</ele>
        <time>2021-09-10T10:48:48Z</time>
      </trkpt>
      <trkpt lat="44.06235" lon="6.08823">
        <ele>616.9</ele>
        <time>2021-09-10T10:48:49Z</time>
      </trkpt>
      <trkpt lat="44.06234" lon="6.08822">
        <ele>616.9</ele>
        <time>2021-09-10T10:48:50Z</time>
      </trkpt>
      <trkpt lat="44.06231" lon="6.08816">
        <ele>616.9</ele>
        <time>2021-09-10T10:48:52Z</time>
      </trkpt>
      <trkpt lat="44.0623" lon="6.08811">
        <ele>616.9</ele>
        <time>2021-09-10T10:48:53Z</time>
      </trkpt>
      <trkpt lat="44.0623" lon="6.08807">
        <ele>616.7</ele>
        <time>2021-09-10T10:48:54Z</time>
      </trkpt>
      <trkpt lat="44.06229" lon="6.08799">
        <ele>616.4</ele>
        <time>2021-09-10T10:48:56Z</time>
      </trkpt>
      <trkpt lat="44.06227" lon="6.08798">
        <ele>616.2</ele>
        <time>2021-09-10T10:48:57Z</time>
      </trkpt>
      <trkpt lat="44.06225" lon="6.08797">
        <ele>616.1</ele>
        <time>2021-09-10T10:48:59Z</time>
      </trkpt>
      <trkpt lat="44.06222" lon="6.08798">
        <ele>615.9</ele>
        <time>2021-09-10T10:49:00Z</time>
      </trkpt>
      <trkpt lat="44.06216" lon="6.08803">
        <ele>614.5</ele>
        <time>2021-09-10T10:49:01Z</time>
      </trkpt>
      <trkpt lat="44.0621" lon="6.0881">
        <ele>614.5</ele>
        <time>2021-09-10T10:49:03Z</time>
      </trkpt>
      <trkpt lat="44.06202" lon="6.08819">
        <ele>614.3</ele>
        <time>2021-09-10T10:49:04Z</time>
      </trkpt>
      <trkpt lat="44.06195" lon="6.08826">
        <ele>614</ele>
        <time>2021-09-10T10:49:06Z</time>
      </trkpt>
      <trkpt lat="44.06191" lon="6.08831">
        <ele>613.9</ele>
        <time>2021-09-10T10:49:07Z</time>
      </trkpt>
      <trkpt lat="44.06189" lon="6.08837">
        <ele>613.7</ele>
        <time>2021-09-10T10:49:08Z</time>
      </trkpt>
      <trkpt lat="44.06186" lon="6.08847">
        <ele>613.2</ele>
        <time>2021-09-10T10:49:10Z</time>
      </trkpt>
      <trkpt lat="44.06184" lon="6.08854">
        <ele>612.8</ele>
        <time>2021-09-10T10:49:11Z</time>
      </trkpt>
      <trkpt lat="44.06182" lon="6.08861">
        <ele>612.5</ele>
        <time>2021-09-10T10:49:12Z</time>
      </trkpt>
      <trkpt lat="44.06178" lon="6.08871">
        <ele>612</ele>
        <time>2021-09-10T10:49:13Z</time>
      </trkpt>
      <trkpt lat="44.06173" lon="6.08884">
        <ele>611.4</ele>
        <time>2021-09-10T10:49:15Z</time>
      </trkpt>
      <trkpt lat="44.0617" lon="6.08891">
        <ele>611.1</ele>
        <time>2021-09-10T10:49:16Z</time>
      </trkpt>
      <trkpt lat="44.06165" lon="6.08905">
        <ele>610.7</ele>
        <time>2021-09-10T10:49:18Z</time>
      </trkpt>
      <trkpt lat="44.06163" lon="6.0891">
        <ele>610.5</ele>
        <time>2021-09-10T10:49:19Z</time>
      </trkpt>
      <trkpt lat="44.0616" lon="6.08917">
        <ele>610.4</ele>
        <time>2021-09-10T10:49:20Z</time>
      </trkpt>
      <trkpt lat="44.06154" lon="6.0893">
        <ele>610.2</ele>
        <time>2021-09-10T10:49:22Z</time>
      </trkpt>
      <trkpt lat="44.06152" lon="6.08937">
        <ele>610</ele>
        <time>2021-09-10T10:49:23Z</time>
      </trkpt>
      <trkpt lat="44.0615" lon="6.08943">
        <ele>609.9</ele>
        <time>2021-09-10T10:49:24Z</time>
      </trkpt>
      <trkpt lat="44.06149" lon="6.08953">
        <ele>609.8</ele>
        <time>2021-09-10T10:49:26Z</time>
      </trkpt>
      <trkpt lat="44.06147" lon="6.08959">
        <ele>609.6</ele>
        <time>2021-09-10T10:49:27Z</time>
      </trkpt>
      <trkpt lat="44.06146" lon="6.08962">
        <ele>609.6</ele>
        <time>2021-09-10T10:49:28Z</time>
      </trkpt>
      <trkpt lat="44.06141" lon="6.08967">
        <ele>609.3</ele>
        <time>2021-09-10T10:49:30Z</time>
      </trkpt>
      <trkpt lat="44.06136" lon="6.08969">
        <ele>609.1</ele>
        <time>2021-09-10T10:49:31Z</time>
      </trkpt>
      <trkpt lat="44.06133" lon="6.08971">
        <ele>609</ele>
        <time>2021-09-10T10:49:33Z</time>
      </trkpt>
      <trkpt lat="44.06131" lon="6.08974">
        <ele>608.8</ele>
        <time>2021-09-10T10:49:34Z</time>
      </trkpt>
      <trkpt lat="44.06128" lon="6.08979">
        <ele>608.5</ele>
        <time>2021-09-10T10:49:36Z</time>
      </trkpt>
      <trkpt lat="44.06124" lon="6.08984">
        <ele>608.2</ele>
        <time>2021-09-10T10:49:37Z</time>
      </trkpt>
      <trkpt lat="44.06122" lon="6.08988">
        <ele>608</ele>
        <time>2021-09-10T10:49:38Z</time>
      </trkpt>
      <trkpt lat="44.0612" lon="6.08995">
        <ele>607.7</ele>
        <time>2021-09-10T10:49:40Z</time>
      </trkpt>
      <trkpt lat="44.0612" lon="6.09001">
        <ele>607.5</ele>
        <time>2021-09-10T10:49:41Z</time>
      </trkpt>
      <trkpt lat="44.06119" lon="6.09006">
        <ele>607.3</ele>
        <time>2021-09-10T10:49:42Z</time>
      </trkpt>
      <trkpt lat="44.06117" lon="6.09016">
        <ele>606.9</ele>
        <time>2021-09-10T10:49:43Z</time>
      </trkpt>
      <trkpt lat="44.06114" lon="6.09021">
        <ele>606.7</ele>
        <time>2021-09-10T10:49:44Z</time>
      </trkpt>
      <trkpt lat="44.06111" lon="6.09025">
        <ele>606.4</ele>
        <time>2021-09-10T10:49:46Z</time>
      </trkpt>
      <trkpt lat="44.06109" lon="6.09031">
        <ele>606.2</ele>
        <time>2021-09-10T10:49:47Z</time>
      </trkpt>
      <trkpt lat="44.06108" lon="6.09038">
        <ele>605.9</ele>
        <time>2021-09-10T10:49:48Z</time>
      </trkpt>
      <trkpt lat="44.06105" lon="6.09045">
        <ele>605.5</ele>
        <time>2021-09-10T10:49:49Z</time>
      </trkpt>
      <trkpt lat="44.06098" lon="6.09059">
        <ele>604.8</ele>
        <time>2021-09-10T10:49:51Z</time>
      </trkpt>
      <trkpt lat="44.06095" lon="6.09067">
        <ele>604.4</ele>
        <time>2021-09-10T10:49:52Z</time>
      </trkpt>
      <trkpt lat="44.06088" lon="6.09081">
        <ele>603.7</ele>
        <time>2021-09-10T10:49:54Z</time>
      </trkpt>
      <trkpt lat="44.06083" lon="6.09093">
        <ele>603.1</ele>
        <time>2021-09-10T10:49:56Z</time>
      </trkpt>
      <trkpt lat="44.06077" lon="6.09106">
        <ele>602.4</ele>
        <time>2021-09-10T10:49:58Z</time>
      </trkpt>
      <trkpt lat="44.06075" lon="6.09113">
        <ele>602.1</ele>
        <time>2021-09-10T10:49:59Z</time>
      </trkpt>
      <trkpt lat="44.06073" lon="6.09117">
        <ele>601.9</ele>
        <time>2021-09-10T10:50:01Z</time>
      </trkpt>
      <trkpt lat="44.06071" lon="6.09122">
        <ele>601.7</ele>
        <time>2021-09-10T10:50:02Z</time>
      </trkpt>
      <trkpt lat="44.06067" lon="6.0913">
        <ele>601.3</ele>
        <time>2021-09-10T10:50:03Z</time>
      </trkpt>
      <trkpt lat="44.06065" lon="6.09137">
        <ele>601</ele>
        <time>2021-09-10T10:50:05Z</time>
      </trkpt>
      <trkpt lat="44.06063" lon="6.09145">
        <ele>600.6</ele>
        <time>2021-09-10T10:50:06Z</time>
      </trkpt>
      <trkpt lat="44.06062" lon="6.0915">
        <ele>600.4</ele>
        <time>2021-09-10T10:50:07Z</time>
      </trkpt>
      <trkpt lat="44.06059" lon="6.09164">
        <ele>599.8</ele>
        <time>2021-09-10T10:50:08Z</time>
      </trkpt>
      <trkpt lat="44.06052" lon="6.09206">
        <ele>598</ele>
        <time>2021-09-10T10:50:10Z</time>
      </trkpt>
      <trkpt lat="44.06052" lon="6.09206">
        <ele>598</ele>
        <time>2021-09-10T10:50:10Z</time>
      </trkpt>
      <trkpt lat="44.06045" lon="6.09224">
        <ele>597.1</ele>
        <time>2021-09-10T10:50:11Z</time>
      </trkpt>
      <trkpt lat="44.06038" lon="6.09237">
        <ele>596.5</ele>
        <time>2021-09-10T10:50:12Z</time>
      </trkpt>
      <trkpt lat="44.06033" lon="6.09246">
        <ele>596</ele>
        <time>2021-09-10T10:50:13Z</time>
      </trkpt>
      <trkpt lat="44.06027" lon="6.09255">
        <ele>595.5</ele>
        <time>2021-09-10T10:50:14Z</time>
      </trkpt>
      <trkpt lat="44.06019" lon="6.09274">
        <ele>594.7</ele>
        <time>2021-09-10T10:50:16Z</time>
      </trkpt>
      <trkpt lat="44.06016" lon="6.09283">
        <ele>594.3</ele>
        <time>2021-09-10T10:50:17Z</time>
      </trkpt>
      <trkpt lat="44.06013" lon="6.09293">
        <ele>593.9</ele>
        <time>2021-09-10T10:50:18Z</time>
      </trkpt>
      <trkpt lat="44.06007" lon="6.09313">
        <ele>593.4</ele>
        <time>2021-09-10T10:50:20Z</time>
      </trkpt>
      <trkpt lat="44.06002" lon="6.09335">
        <ele>593.1</ele>
        <time>2021-09-10T10:50:22Z</time>
      </trkpt>
      <trkpt lat="44.06001" lon="6.09347">
        <ele>592.5</ele>
        <time>2021-09-10T10:50:23Z</time>
      </trkpt>
      <trkpt lat="44.06" lon="6.0937">
        <ele>591.3</ele>
        <time>2021-09-10T10:50:25Z</time>
      </trkpt>
      <trkpt lat="44.06001" lon="6.0938">
        <ele>590.7</ele>
        <time>2021-09-10T10:50:26Z</time>
      </trkpt>
      <trkpt lat="44.06003" lon="6.09403">
        <ele>589.6</ele>
        <time>2021-09-10T10:50:28Z</time>
      </trkpt>
      <trkpt lat="44.06003" lon="6.09414">
        <ele>589</ele>
        <time>2021-09-10T10:50:29Z</time>
      </trkpt>
      <trkpt lat="44.06003" lon="6.09426">
        <ele>588.4</ele>
        <time>2021-09-10T10:50:30Z</time>
      </trkpt>
      <trkpt lat="44.06002" lon="6.09436">
        <ele>587.9</ele>
        <time>2021-09-10T10:50:31Z</time>
      </trkpt>
      <trkpt lat="44.06" lon="6.09446">
        <ele>587.4</ele>
        <time>2021-09-10T10:50:32Z</time>
      </trkpt>
      <trkpt lat="44.05998" lon="6.09464">
        <ele>586.4</ele>
        <time>2021-09-10T10:50:34Z</time>
      </trkpt>
      <trkpt lat="44.05997" lon="6.09473">
        <ele>586</ele>
        <time>2021-09-10T10:50:35Z</time>
      </trkpt>
      <trkpt lat="44.05997" lon="6.09483">
        <ele>585.5</ele>
        <time>2021-09-10T10:50:36Z</time>
      </trkpt>
      <trkpt lat="44.05997" lon="6.09503">
        <ele>584.5</ele>
        <time>2021-09-10T10:50:38Z</time>
      </trkpt>
      <trkpt lat="44.05996" lon="6.09513">
        <ele>584.1</ele>
        <time>2021-09-10T10:50:39Z</time>
      </trkpt>
      <trkpt lat="44.05995" lon="6.09532">
        <ele>583.2</ele>
        <time>2021-09-10T10:50:41Z</time>
      </trkpt>
      <trkpt lat="44.05995" lon="6.09554">
        <ele>582.3</ele>
        <time>2021-09-10T10:50:43Z</time>
      </trkpt>
      <trkpt lat="44.05995" lon="6.09563">
        <ele>581.9</ele>
        <time>2021-09-10T10:50:44Z</time>
      </trkpt>
      <trkpt lat="44.05993" lon="6.09582">
        <ele>581.2</ele>
        <time>2021-09-10T10:50:46Z</time>
      </trkpt>
      <trkpt lat="44.05991" lon="6.09589">
        <ele>580.9</ele>
        <time>2021-09-10T10:50:47Z</time>
      </trkpt>
      <trkpt lat="44.0599" lon="6.09598">
        <ele>580.6</ele>
        <time>2021-09-10T10:50:48Z</time>
      </trkpt>
      <trkpt lat="44.05986" lon="6.09616">
        <ele>579.8</ele>
        <time>2021-09-10T10:50:50Z</time>
      </trkpt>
      <trkpt lat="44.05985" lon="6.09625">
        <ele>579.4</ele>
        <time>2021-09-10T10:50:51Z</time>
      </trkpt>
      <trkpt lat="44.05981" lon="6.09642">
        <ele>578.6</ele>
        <time>2021-09-10T10:50:53Z</time>
      </trkpt>
      <trkpt lat="44.05979" lon="6.09661">
        <ele>577.8</ele>
        <time>2021-09-10T10:50:55Z</time>
      </trkpt>
      <trkpt lat="44.05978" lon="6.09672">
        <ele>577.3</ele>
        <time>2021-09-10T10:50:56Z</time>
      </trkpt>
      <trkpt lat="44.05974" lon="6.09692">
        <ele>576.5</ele>
        <time>2021-09-10T10:50:58Z</time>
      </trkpt>
      <trkpt lat="44.05972" lon="6.09702">
        <ele>576.1</ele>
        <time>2021-09-10T10:50:59Z</time>
      </trkpt>
      <trkpt lat="44.05971" lon="6.09712">
        <ele>575.7</ele>
        <time>2021-09-10T10:51:00Z</time>
      </trkpt>
      <trkpt lat="44.05968" lon="6.09732">
        <ele>574.8</ele>
        <time>2021-09-10T10:51:02Z</time>
      </trkpt>
      <trkpt lat="44.05968" lon="6.09753">
        <ele>574</ele>
        <time>2021-09-10T10:51:04Z</time>
      </trkpt>
      <trkpt lat="44.05968" lon="6.09762">
        <ele>573.6</ele>
        <time>2021-09-10T10:51:05Z</time>
      </trkpt>
      <trkpt lat="44.05968" lon="6.09783">
        <ele>572.8</ele>
        <time>2021-09-10T10:51:07Z</time>
      </trkpt>
      <trkpt lat="44.05968" lon="6.09793">
        <ele>572.5</ele>
        <time>2021-09-10T10:51:08Z</time>
      </trkpt>
      <trkpt lat="44.0597" lon="6.09814">
        <ele>572</ele>
        <time>2021-09-10T10:51:10Z</time>
      </trkpt>
      <trkpt lat="44.05972" lon="6.09825">
        <ele>571.8</ele>
        <time>2021-09-10T10:51:11Z</time>
      </trkpt>
      <trkpt lat="44.05975" lon="6.09843">
        <ele>571.5</ele>
        <time>2021-09-10T10:51:13Z</time>
      </trkpt>
      <trkpt lat="44.05977" lon="6.09852">
        <ele>571.4</ele>
        <time>2021-09-10T10:51:14Z</time>
      </trkpt>
      <trkpt lat="44.05978" lon="6.09866">
        <ele>571.3</ele>
        <time>2021-09-10T10:51:16Z</time>
      </trkpt>
      <trkpt lat="44.05979" lon="6.09876">
        <ele>571.2</ele>
        <time>2021-09-10T10:51:18Z</time>
      </trkpt>
      <trkpt lat="44.05977" lon="6.09879">
        <ele>571.1</ele>
        <time>2021-09-10T10:51:20Z</time>
      </trkpt>
      <trkpt lat="44.05973" lon="6.09875">
        <ele>571</ele>
        <time>2021-09-10T10:51:22Z</time>
      </trkpt>
      <trkpt lat="44.05964" lon="6.09871">
        <ele>571</ele>
        <time>2021-09-10T10:51:24Z</time>
      </trkpt>
      <trkpt lat="44.05964" lon="6.0987">
        <ele>571</ele>
        <time>2021-09-10T10:51:25Z</time>
      </trkpt>
      <trkpt lat="44.0596" lon="6.09868">
        <ele>571.1</ele>
        <time>2021-09-10T10:51:27Z</time>
      </trkpt>
      <trkpt lat="44.05952" lon="6.09863">
        <ele>571.3</ele>
        <time>2021-09-10T10:51:28Z</time>
      </trkpt>
      <trkpt lat="44.05947" lon="6.09861">
        <ele>571.4</ele>
        <time>2021-09-10T10:51:29Z</time>
      </trkpt>
      <trkpt lat="44.05943" lon="6.09858">
        <ele>571.5</ele>
        <time>2021-09-10T10:51:31Z</time>
      </trkpt>
      <trkpt lat="44.05935" lon="6.09853">
        <ele>571.7</ele>
        <time>2021-09-10T10:51:32Z</time>
      </trkpt>
      <trkpt lat="44.0593" lon="6.0985">
        <ele>571.9</ele>
        <time>2021-09-10T10:51:33Z</time>
      </trkpt>
      <trkpt lat="44.05925" lon="6.09848">
        <ele>571.9</ele>
        <time>2021-09-10T10:51:35Z</time>
      </trkpt>
      <trkpt lat="44.05921" lon="6.09846">
        <ele>572</ele>
        <time>2021-09-10T10:51:36Z</time>
      </trkpt>
      <trkpt lat="44.05916" lon="6.09842">
        <ele>572.1</ele>
        <time>2021-09-10T10:51:37Z</time>
      </trkpt>
      <trkpt lat="44.05913" lon="6.09839">
        <ele>572.1</ele>
        <time>2021-09-10T10:51:39Z</time>
      </trkpt>
      <trkpt lat="44.05911" lon="6.09836">
        <ele>572.1</ele>
        <time>2021-09-10T10:51:40Z</time>
      </trkpt>
      <trkpt lat="44.05907" lon="6.09833">
        <ele>572.2</ele>
        <time>2021-09-10T10:51:42Z</time>
      </trkpt>
      <trkpt lat="44.05905" lon="6.09828">
        <ele>572.4</ele>
        <time>2021-09-10T10:51:44Z</time>
      </trkpt>
      <trkpt lat="44.05902" lon="6.09822">
        <ele>572.7</ele>
        <time>2021-09-10T10:51:46Z</time>
      </trkpt>
      <trkpt lat="44.05899" lon="6.09818">
        <ele>573.1</ele>
        <time>2021-09-10T10:51:47Z</time>
      </trkpt>
      <trkpt lat="44.05896" lon="6.09815">
        <ele>573.3</ele>
        <time>2021-09-10T10:51:49Z</time>
      </trkpt>
      <trkpt lat="44.05895" lon="6.09815">
        <ele>573.3</ele>
        <time>2021-09-10T10:51:50Z</time>
      </trkpt>
      <trkpt lat="44.05893" lon="6.09813">
        <ele>573.6</ele>
        <time>2021-09-10T10:51:52Z</time>
      </trkpt>
      <trkpt lat="44.05889" lon="6.0981">
        <ele>573.8</ele>
        <time>2021-09-10T10:51:53Z</time>
      </trkpt>
      <trkpt lat="44.05886" lon="6.09809">
        <ele>574.1</ele>
        <time>2021-09-10T10:51:55Z</time>
      </trkpt>
      <trkpt lat="44.05884" lon="6.09809">
        <ele>574.2</ele>
        <time>2021-09-10T10:51:56Z</time>
      </trkpt>
      <trkpt lat="44.05881" lon="6.09807">
        <ele>574.5</ele>
        <time>2021-09-10T10:51:58Z</time>
      </trkpt>
      <trkpt lat="44.05879" lon="6.09807">
        <ele>574.6</ele>
        <time>2021-09-10T10:51:59Z</time>
      </trkpt>
      <trkpt lat="44.05878" lon="6.09807">
        <ele>574.7</ele>
        <time>2021-09-10T10:52:00Z</time>
      </trkpt>
      <trkpt lat="44.05875" lon="6.09806">
        <ele>574.9</ele>
        <time>2021-09-10T10:52:02Z</time>
      </trkpt>
      <trkpt lat="44.05875" lon="6.09806">
        <ele>575</ele>
        <time>2021-09-10T10:52:03Z</time>
      </trkpt>
      <trkpt lat="44.05875" lon="6.09807">
        <ele>575</ele>
        <time>2021-09-10T10:52:05Z</time>
      </trkpt>
      <trkpt lat="44.05874" lon="6.09807">
        <ele>575</ele>
        <time>2021-09-10T10:52:07Z</time>
      </trkpt>
      <trkpt lat="44.05874" lon="6.09808">
        <ele>575</ele>
        <time>2021-09-10T10:52:08Z</time>
      </trkpt>
      <trkpt lat="44.05874" lon="6.09808">
        <ele>575.1</ele>
        <time>2021-09-10T10:52:09Z</time>
      </trkpt>
      <trkpt lat="44.05874" lon="6.09808">
        <ele>575.1</ele>
        <time>2021-09-10T10:52:11Z</time>
      </trkpt>
      <trkpt lat="44.05874" lon="6.09809">
        <ele>575.1</ele>
        <time>2021-09-10T10:52:12Z</time>
      </trkpt>
      <trkpt lat="44.05808" lon="6.09773">
        <ele>579.9</ele>
        <time>2021-09-10T10:53:48Z</time>
      </trkpt>
      <trkpt lat="44.05803" lon="6.09767">
        <ele>579.8</ele>
        <time>2021-09-10T10:53:50Z</time>
      </trkpt>
      <trkpt lat="44.058" lon="6.09762">
        <ele>579.8</ele>
        <time>2021-09-10T10:53:51Z</time>
      </trkpt>
      <trkpt lat="44.05795" lon="6.09758">
        <ele>579.7</ele>
        <time>2021-09-10T10:53:53Z</time>
      </trkpt>
      <trkpt lat="44.05792" lon="6.09756">
        <ele>579.6</ele>
        <time>2021-09-10T10:53:54Z</time>
      </trkpt>
      <trkpt lat="44.05788" lon="6.09754">
        <ele>579.5</ele>
        <time>2021-09-10T10:53:55Z</time>
      </trkpt>
      <trkpt lat="44.05783" lon="6.09753">
        <ele>579.3</ele>
        <time>2021-09-10T10:53:57Z</time>
      </trkpt>
      <trkpt lat="44.0578" lon="6.09752">
        <ele>579.2</ele>
        <time>2021-09-10T10:53:58Z</time>
      </trkpt>
      <trkpt lat="44.05776" lon="6.09752">
        <ele>579</ele>
        <time>2021-09-10T10:53:59Z</time>
      </trkpt>
      <trkpt lat="44.05772" lon="6.09752">
        <ele>578.8</ele>
        <time>2021-09-10T10:54:00Z</time>
      </trkpt>
      <trkpt lat="44.0577" lon="6.09752">
        <ele>578.7</ele>
        <time>2021-09-10T10:54:01Z</time>
      </trkpt>
      <trkpt lat="44.05766" lon="6.09752">
        <ele>578.5</ele>
        <time>2021-09-10T10:54:03Z</time>
      </trkpt>
      <trkpt lat="44.05762" lon="6.09752">
        <ele>578.4</ele>
        <time>2021-09-10T10:54:04Z</time>
      </trkpt>
      <trkpt lat="44.05758" lon="6.09751">
        <ele>578.3</ele>
        <time>2021-09-10T10:54:05Z</time>
      </trkpt>
      <trkpt lat="44.05754" lon="6.09752">
        <ele>578</ele>
        <time>2021-09-10T10:54:06Z</time>
      </trkpt>
      <trkpt lat="44.05751" lon="6.09753">
        <ele>577.7</ele>
        <time>2021-09-10T10:54:08Z</time>
      </trkpt>
      <trkpt lat="44.05747" lon="6.09755">
        <ele>577.4</ele>
        <time>2021-09-10T10:54:09Z</time>
      </trkpt>
      <trkpt lat="44.05746" lon="6.09755">
        <ele>577.3</ele>
        <time>2021-09-10T10:54:10Z</time>
      </trkpt>
      <trkpt lat="44.05743" lon="6.09757">
        <ele>577</ele>
        <time>2021-09-10T10:54:11Z</time>
      </trkpt>
      <trkpt lat="44.05739" lon="6.09758">
        <ele>576.7</ele>
        <time>2021-09-10T10:54:12Z</time>
      </trkpt>
      <trkpt lat="44.05735" lon="6.09759">
        <ele>576.4</ele>
        <time>2021-09-10T10:54:13Z</time>
      </trkpt>
      <trkpt lat="44.05728" lon="6.09764">
        <ele>575.8</ele>
        <time>2021-09-10T10:54:15Z</time>
      </trkpt>
      <trkpt lat="44.05724" lon="6.09766">
        <ele>575.4</ele>
        <time>2021-09-10T10:54:16Z</time>
      </trkpt>
      <trkpt lat="44.05719" lon="6.09769">
        <ele>575.1</ele>
        <time>2021-09-10T10:54:17Z</time>
      </trkpt>
      <trkpt lat="44.05714" lon="6.09773">
        <ele>574.7</ele>
        <time>2021-09-10T10:54:18Z</time>
      </trkpt>
      <trkpt lat="44.05704" lon="6.09779">
        <ele>574</ele>
        <time>2021-09-10T10:54:20Z</time>
      </trkpt>
      <trkpt lat="44.05694" lon="6.09785">
        <ele>573.3</ele>
        <time>2021-09-10T10:54:22Z</time>
      </trkpt>
      <trkpt lat="44.05689" lon="6.09789">
        <ele>572.9</ele>
        <time>2021-09-10T10:54:23Z</time>
      </trkpt>
      <trkpt lat="44.05684" lon="6.09793">
        <ele>572.5</ele>
        <time>2021-09-10T10:54:24Z</time>
      </trkpt>
      <trkpt lat="44.05673" lon="6.09802">
        <ele>571.6</ele>
        <time>2021-09-10T10:54:26Z</time>
      </trkpt>
      <trkpt lat="44.05662" lon="6.0981">
        <ele>570.7</ele>
        <time>2021-09-10T10:54:28Z</time>
      </trkpt>
      <trkpt lat="44.05656" lon="6.09814">
        <ele>570.3</ele>
        <time>2021-09-10T10:54:29Z</time>
      </trkpt>
      <trkpt lat="44.05649" lon="6.09818">
        <ele>569.8</ele>
        <time>2021-09-10T10:54:30Z</time>
      </trkpt>
      <trkpt lat="44.05637" lon="6.09824">
        <ele>569</ele>
        <time>2021-09-10T10:54:32Z</time>
      </trkpt>
      <trkpt lat="44.05626" lon="6.09833">
        <ele>568.3</ele>
        <time>2021-09-10T10:54:34Z</time>
      </trkpt>
      <trkpt lat="44.05621" lon="6.09837">
        <ele>567.8</ele>
        <time>2021-09-10T10:54:35Z</time>
      </trkpt>
      <trkpt lat="44.05615" lon="6.09841">
        <ele>567.4</ele>
        <time>2021-09-10T10:54:36Z</time>
      </trkpt>
      <trkpt lat="44.05602" lon="6.09848">
        <ele>566.5</ele>
        <time>2021-09-10T10:54:38Z</time>
      </trkpt>
      <trkpt lat="44.05591" lon="6.09857">
        <ele>565.7</ele>
        <time>2021-09-10T10:54:40Z</time>
      </trkpt>
      <trkpt lat="44.05585" lon="6.09861">
        <ele>565.2</ele>
        <time>2021-09-10T10:54:41Z</time>
      </trkpt>
      <trkpt lat="44.05579" lon="6.09865">
        <ele>564.8</ele>
        <time>2021-09-10T10:54:42Z</time>
      </trkpt>
      <trkpt lat="44.05567" lon="6.09873">
        <ele>563.8</ele>
        <time>2021-09-10T10:54:44Z</time>
      </trkpt>
      <trkpt lat="44.05555" lon="6.09882">
        <ele>562.9</ele>
        <time>2021-09-10T10:54:46Z</time>
      </trkpt>
      <trkpt lat="44.05549" lon="6.09887">
        <ele>562.4</ele>
        <time>2021-09-10T10:54:47Z</time>
      </trkpt>
      <trkpt lat="44.05543" lon="6.09891">
        <ele>562</ele>
        <time>2021-09-10T10:54:48Z</time>
      </trkpt>
      <trkpt lat="44.05531" lon="6.09902">
        <ele>561.1</ele>
        <time>2021-09-10T10:54:50Z</time>
      </trkpt>
      <trkpt lat="44.05519" lon="6.09912">
        <ele>560.2</ele>
        <time>2021-09-10T10:54:52Z</time>
      </trkpt>
      <trkpt lat="44.05513" lon="6.09917">
        <ele>559.7</ele>
        <time>2021-09-10T10:54:53Z</time>
      </trkpt>
      <trkpt lat="44.05507" lon="6.09921">
        <ele>559.3</ele>
        <time>2021-09-10T10:54:54Z</time>
      </trkpt>
      <trkpt lat="44.05494" lon="6.09929">
        <ele>558.4</ele>
        <time>2021-09-10T10:54:56Z</time>
      </trkpt>
      <trkpt lat="44.0548" lon="6.09939">
        <ele>557.4</ele>
        <time>2021-09-10T10:54:58Z</time>
      </trkpt>
      <trkpt lat="44.05473" lon="6.09944">
        <ele>556.9</ele>
        <time>2021-09-10T10:54:59Z</time>
      </trkpt>
      <trkpt lat="44.05466" lon="6.09949">
        <ele>556.4</ele>
        <time>2021-09-10T10:55:00Z</time>
      </trkpt>
      <trkpt lat="44.05453" lon="6.09959">
        <ele>555.4</ele>
        <time>2021-09-10T10:55:02Z</time>
      </trkpt>
      <trkpt lat="44.05439" lon="6.09968">
        <ele>554.3</ele>
        <time>2021-09-10T10:55:04Z</time>
      </trkpt>
      <trkpt lat="44.05431" lon="6.09973">
        <ele>553.7</ele>
        <time>2021-09-10T10:55:05Z</time>
      </trkpt>
      <trkpt lat="44.05424" lon="6.09977">
        <ele>553.2</ele>
        <time>2021-09-10T10:55:06Z</time>
      </trkpt>
      <trkpt lat="44.0541" lon="6.09987">
        <ele>552.2</ele>
        <time>2021-09-10T10:55:08Z</time>
      </trkpt>
      <trkpt lat="44.05396" lon="6.09996">
        <ele>551.3</ele>
        <time>2021-09-10T10:55:10Z</time>
      </trkpt>
      <trkpt lat="44.05381" lon="6.10005">
        <ele>550.2</ele>
        <time>2021-09-10T10:55:12Z</time>
      </trkpt>
      <trkpt lat="44.05367" lon="6.10014">
        <ele>549.1</ele>
        <time>2021-09-10T10:55:14Z</time>
      </trkpt>
      <trkpt lat="44.05353" lon="6.10025">
        <ele>548</ele>
        <time>2021-09-10T10:55:16Z</time>
      </trkpt>
      <trkpt lat="44.05345" lon="6.1003">
        <ele>547.5</ele>
        <time>2021-09-10T10:55:17Z</time>
      </trkpt>
      <trkpt lat="44.05338" lon="6.10035">
        <ele>547.1</ele>
        <time>2021-09-10T10:55:18Z</time>
      </trkpt>
      <trkpt lat="44.05331" lon="6.1004">
        <ele>546.7</ele>
        <time>2021-09-10T10:55:19Z</time>
      </trkpt>
      <trkpt lat="44.05324" lon="6.10045">
        <ele>546.2</ele>
        <time>2021-09-10T10:55:20Z</time>
      </trkpt>
      <trkpt lat="44.05309" lon="6.10057">
        <ele>545.2</ele>
        <time>2021-09-10T10:55:22Z</time>
      </trkpt>
      <trkpt lat="44.05302" lon="6.10062">
        <ele>544.8</ele>
        <time>2021-09-10T10:55:23Z</time>
      </trkpt>
      <trkpt lat="44.05294" lon="6.10067">
        <ele>544.3</ele>
        <time>2021-09-10T10:55:24Z</time>
      </trkpt>
      <trkpt lat="44.0528" lon="6.10075">
        <ele>543.4</ele>
        <time>2021-09-10T10:55:26Z</time>
      </trkpt>
      <trkpt lat="44.05267" lon="6.10083">
        <ele>542.5</ele>
        <time>2021-09-10T10:55:28Z</time>
      </trkpt>
      <trkpt lat="44.05261" lon="6.10087">
        <ele>542.4</ele>
        <time>2021-09-10T10:55:29Z</time>
      </trkpt>
      <trkpt lat="44.05254" lon="6.10091">
        <ele>541.8</ele>
        <time>2021-09-10T10:55:30Z</time>
      </trkpt>
      <trkpt lat="44.05247" lon="6.10096">
        <ele>541.1</ele>
        <time>2021-09-10T10:55:31Z</time>
      </trkpt>
      <trkpt lat="44.05241" lon="6.10101">
        <ele>540.3</ele>
        <time>2021-09-10T10:55:32Z</time>
      </trkpt>
      <trkpt lat="44.05228" lon="6.1011">
        <ele>538.7</ele>
        <time>2021-09-10T10:55:34Z</time>
      </trkpt>
      <trkpt lat="44.05223" lon="6.10113">
        <ele>538.4</ele>
        <time>2021-09-10T10:55:35Z</time>
      </trkpt>
      <trkpt lat="44.05213" lon="6.10121">
        <ele>537.7</ele>
        <time>2021-09-10T10:55:37Z</time>
      </trkpt>
      <trkpt lat="44.05203" lon="6.10126">
        <ele>536.9</ele>
        <time>2021-09-10T10:55:39Z</time>
      </trkpt>
      <trkpt lat="44.05193" lon="6.10134">
        <ele>535.5</ele>
        <time>2021-09-10T10:55:41Z</time>
      </trkpt>
      <trkpt lat="44.05188" lon="6.1014">
        <ele>534.8</ele>
        <time>2021-09-10T10:55:42Z</time>
      </trkpt>
      <trkpt lat="44.05178" lon="6.10153">
        <ele>533.4</ele>
        <time>2021-09-10T10:55:44Z</time>
      </trkpt>
      <trkpt lat="44.05167" lon="6.10171">
        <ele>531.8</ele>
        <time>2021-09-10T10:55:46Z</time>
      </trkpt>
      <trkpt lat="44.05162" lon="6.1018">
        <ele>531</ele>
        <time>2021-09-10T10:55:47Z</time>
      </trkpt>
      <trkpt lat="44.05157" lon="6.10188">
        <ele>530.8</ele>
        <time>2021-09-10T10:55:48Z</time>
      </trkpt>
      <trkpt lat="44.05148" lon="6.10203">
        <ele>530.1</ele>
        <time>2021-09-10T10:55:50Z</time>
      </trkpt>
      <trkpt lat="44.05144" lon="6.10209">
        <ele>529.9</ele>
        <time>2021-09-10T10:55:51Z</time>
      </trkpt>
      <trkpt lat="44.05138" lon="6.10217">
        <ele>529.6</ele>
        <time>2021-09-10T10:55:53Z</time>
      </trkpt>
      <trkpt lat="44.05136" lon="6.10218">
        <ele>529.6</ele>
        <time>2021-09-10T10:55:54Z</time>
      </trkpt>
      <trkpt lat="44.05134" lon="6.10223">
        <ele>529.4</ele>
        <time>2021-09-10T10:55:56Z</time>
      </trkpt>
      <trkpt lat="44.0513" lon="6.10228">
        <ele>528.8</ele>
        <time>2021-09-10T10:55:58Z</time>
      </trkpt>
      <trkpt lat="44.05128" lon="6.10237">
        <ele>528</ele>
        <time>2021-09-10T10:56:00Z</time>
      </trkpt>
      <trkpt lat="44.05127" lon="6.10242">
        <ele>527.6</ele>
        <time>2021-09-10T10:56:01Z</time>
      </trkpt>
      <trkpt lat="44.05123" lon="6.10254">
        <ele>526.6</ele>
        <time>2021-09-10T10:56:03Z</time>
      </trkpt>
      <trkpt lat="44.0512" lon="6.10262">
        <ele>526</ele>
        <time>2021-09-10T10:56:04Z</time>
      </trkpt>
      <trkpt lat="44.05113" lon="6.10279">
        <ele>525</ele>
        <time>2021-09-10T10:56:06Z</time>
      </trkpt>
      <trkpt lat="44.05111" lon="6.10289">
        <ele>524.5</ele>
        <time>2021-09-10T10:56:07Z</time>
      </trkpt>
      <trkpt lat="44.05105" lon="6.10306">
        <ele>523.7</ele>
        <time>2021-09-10T10:56:09Z</time>
      </trkpt>
      <trkpt lat="44.05099" lon="6.10323">
        <ele>523</ele>
        <time>2021-09-10T10:56:11Z</time>
      </trkpt>
      <trkpt lat="44.05096" lon="6.10331">
        <ele>522.5</ele>
        <time>2021-09-10T10:56:12Z</time>
      </trkpt>
      <trkpt lat="44.05091" lon="6.10347">
        <ele>521.4</ele>
        <time>2021-09-10T10:56:14Z</time>
      </trkpt>
      <trkpt lat="44.05086" lon="6.10363">
        <ele>520</ele>
        <time>2021-09-10T10:56:16Z</time>
      </trkpt>
      <trkpt lat="44.05082" lon="6.10372">
        <ele>519.3</ele>
        <time>2021-09-10T10:56:17Z</time>
      </trkpt>
      <trkpt lat="44.05079" lon="6.10381">
        <ele>518.5</ele>
        <time>2021-09-10T10:56:18Z</time>
      </trkpt>
      <trkpt lat="44.05072" lon="6.10401">
        <ele>517</ele>
        <time>2021-09-10T10:56:20Z</time>
      </trkpt>
      <trkpt lat="44.05064" lon="6.10422">
        <ele>516.1</ele>
        <time>2021-09-10T10:56:22Z</time>
      </trkpt>
      <trkpt lat="44.0506" lon="6.10434">
        <ele>515.8</ele>
        <time>2021-09-10T10:56:23Z</time>
      </trkpt>
      <trkpt lat="44.05053" lon="6.10455">
        <ele>515.5</ele>
        <time>2021-09-10T10:56:25Z</time>
      </trkpt>
      <trkpt lat="44.0505" lon="6.10464">
        <ele>515.4</ele>
        <time>2021-09-10T10:56:26Z</time>
      </trkpt>
      <trkpt lat="44.05045" lon="6.1048">
        <ele>515.4</ele>
        <time>2021-09-10T10:56:28Z</time>
      </trkpt>
      <trkpt lat="44.05043" lon="6.10494">
        <ele>515.5</ele>
        <time>2021-09-10T10:56:30Z</time>
      </trkpt>
      <trkpt lat="44.05042" lon="6.10499">
        <ele>515.5</ele>
        <time>2021-09-10T10:56:31Z</time>
      </trkpt>
      <trkpt lat="44.05041" lon="6.10502">
        <ele>515.5</ele>
        <time>2021-09-10T10:56:32Z</time>
      </trkpt>
      <trkpt lat="44.05042" lon="6.10503">
        <ele>515.5</ele>
        <time>2021-09-10T10:56:34Z</time>
      </trkpt>
      <trkpt lat="44.05042" lon="6.10501">
        <ele>515.5</ele>
        <time>2021-09-10T10:56:35Z</time>
      </trkpt>
      <trkpt lat="44.05042" lon="6.10501">
        <ele>515.5</ele>
        <time>2021-09-10T10:56:37Z</time>
      </trkpt>
      <trkpt lat="44.05042" lon="6.10501">
        <ele>515.5</ele>
        <time>2021-09-10T10:56:38Z</time>
      </trkpt>
      <trkpt lat="44.05042" lon="6.10501">
        <ele>515.5</ele>
        <time>2021-09-10T10:56:39Z</time>
      </trkpt>
      <trkpt lat="44.05042" lon="6.10501">
        <ele>515.5</ele>
        <time>2021-09-10T10:56:40Z</time>
      </trkpt>
      <trkpt lat="44.05041" lon="6.10502">
        <ele>515.5</ele>
        <time>2021-09-10T10:56:42Z</time>
      </trkpt>
      <trkpt lat="44.05041" lon="6.10512">
        <ele>515.5</ele>
        <time>2021-09-10T10:57:11Z</time>
      </trkpt>
      <trkpt lat="44.05039" lon="6.10519">
        <ele>515.5</ele>
        <time>2021-09-10T10:57:13Z</time>
      </trkpt>
      <trkpt lat="44.05038" lon="6.10527">
        <ele>515.5</ele>
        <time>2021-09-10T10:57:15Z</time>
      </trkpt>
      <trkpt lat="44.05038" lon="6.10531">
        <ele>515.5</ele>
        <time>2021-09-10T10:57:16Z</time>
      </trkpt>
      <trkpt lat="44.05037" lon="6.10538">
        <ele>515.6</ele>
        <time>2021-09-10T10:57:18Z</time>
      </trkpt>
      <trkpt lat="44.05037" lon="6.10543">
        <ele>515.6</ele>
        <time>2021-09-10T10:57:19Z</time>
      </trkpt>
      <trkpt lat="44.05037" lon="6.10545">
        <ele>515.6</ele>
        <time>2021-09-10T10:57:20Z</time>
      </trkpt>
      <trkpt lat="44.05037" lon="6.1055">
        <ele>515.7</ele>
        <time>2021-09-10T10:57:21Z</time>
      </trkpt>
      <trkpt lat="44.05037" lon="6.10555">
        <ele>515.7</ele>
        <time>2021-09-10T10:57:23Z</time>
      </trkpt>
      <trkpt lat="44.05037" lon="6.10557">
        <ele>515.8</ele>
        <time>2021-09-10T10:57:24Z</time>
      </trkpt>
      <trkpt lat="44.05036" lon="6.10562">
        <ele>515.8</ele>
        <time>2021-09-10T10:57:25Z</time>
      </trkpt>
      <trkpt lat="44.05035" lon="6.10563">
        <ele>515.8</ele>
        <time>2021-09-10T10:57:26Z</time>
      </trkpt>
      <trkpt lat="44.05033" lon="6.10568">
        <ele>515.9</ele>
        <time>2021-09-10T10:57:28Z</time>
      </trkpt>
      <trkpt lat="44.05032" lon="6.10571">
        <ele>516</ele>
        <time>2021-09-10T10:57:29Z</time>
      </trkpt>
      <trkpt lat="44.05031" lon="6.10572">
        <ele>516</ele>
        <time>2021-09-10T10:57:30Z</time>
      </trkpt>
      <trkpt lat="44.05031" lon="6.10574">
        <ele>516</ele>
        <time>2021-09-10T10:57:31Z</time>
      </trkpt>
      <trkpt lat="44.05031" lon="6.10575">
        <ele>516</ele>
        <time>2021-09-10T10:57:33Z</time>
      </trkpt>
      <trkpt lat="44.05032" lon="6.10577">
        <ele>516</ele>
        <time>2021-09-10T10:57:34Z</time>
      </trkpt>
      <trkpt lat="44.05032" lon="6.10578">
        <ele>516.1</ele>
        <time>2021-09-10T10:57:35Z</time>
      </trkpt>
      <trkpt lat="44.05031" lon="6.10581">
        <ele>516.1</ele>
        <time>2021-09-10T10:57:36Z</time>
      </trkpt>
      <trkpt lat="44.05032" lon="6.10583">
        <ele>516.1</ele>
        <time>2021-09-10T10:57:38Z</time>
      </trkpt>
      <trkpt lat="44.05032" lon="6.10585">
        <ele>516.1</ele>
        <time>2021-09-10T10:57:39Z</time>
      </trkpt>
      <trkpt lat="44.05032" lon="6.10589">
        <ele>516.2</ele>
        <time>2021-09-10T10:57:40Z</time>
      </trkpt>
      <trkpt lat="44.05032" lon="6.10591">
        <ele>516.2</ele>
        <time>2021-09-10T10:57:41Z</time>
      </trkpt>
      <trkpt lat="44.05033" lon="6.10595">
        <ele>516.3</ele>
        <time>2021-09-10T10:57:43Z</time>
      </trkpt>
      <trkpt lat="44.05032" lon="6.10597">
        <ele>516.3</ele>
        <time>2021-09-10T10:57:44Z</time>
      </trkpt>
      <trkpt lat="44.05032" lon="6.10605">
        <ele>516.4</ele>
        <time>2021-09-10T10:57:46Z</time>
      </trkpt>
      <trkpt lat="44.05032" lon="6.1061">
        <ele>516.5</ele>
        <time>2021-09-10T10:57:47Z</time>
      </trkpt>
      <trkpt lat="44.0503" lon="6.10614">
        <ele>516.6</ele>
        <time>2021-09-10T10:57:48Z</time>
      </trkpt>
      <trkpt lat="44.0503" lon="6.10619">
        <ele>516.7</ele>
        <time>2021-09-10T10:57:49Z</time>
      </trkpt>
      <trkpt lat="44.05031" lon="6.10621">
        <ele>516.7</ele>
        <time>2021-09-10T10:57:51Z</time>
      </trkpt>
      <trkpt lat="44.05031" lon="6.10621">
        <ele>516.8</ele>
        <time>2021-09-10T10:57:52Z</time>
      </trkpt>
      <trkpt lat="44.05031" lon="6.10622">
        <ele>516.8</ele>
        <time>2021-09-10T10:57:53Z</time>
      </trkpt>
      <trkpt lat="44.05031" lon="6.10623">
        <ele>516.8</ele>
        <time>2021-09-10T10:57:54Z</time>
      </trkpt>
      <trkpt lat="44.05032" lon="6.10624">
        <ele>516.8</ele>
        <time>2021-09-10T10:57:55Z</time>
      </trkpt>
      <trkpt lat="44.05033" lon="6.10628">
        <ele>516.9</ele>
        <time>2021-09-10T10:57:56Z</time>
      </trkpt>
      <trkpt lat="44.05033" lon="6.10633">
        <ele>517</ele>
        <time>2021-09-10T10:57:58Z</time>
      </trkpt>
      <trkpt lat="44.05034" lon="6.10634">
        <ele>517</ele>
        <time>2021-09-10T10:57:59Z</time>
      </trkpt>
      <trkpt lat="44.05034" lon="6.10638">
        <ele>517.1</ele>
        <time>2021-09-10T10:58:00Z</time>
      </trkpt>
      <trkpt lat="44.05035" lon="6.10644">
        <ele>517.2</ele>
        <time>2021-09-10T10:58:01Z</time>
      </trkpt>
      <trkpt lat="44.05037" lon="6.10648">
        <ele>517.3</ele>
        <time>2021-09-10T10:58:02Z</time>
      </trkpt>
      <trkpt lat="44.05037" lon="6.10653">
        <ele>517.3</ele>
        <time>2021-09-10T10:58:04Z</time>
      </trkpt>
      <trkpt lat="44.05038" lon="6.10657">
        <ele>517.4</ele>
        <time>2021-09-10T10:58:05Z</time>
      </trkpt>
      <trkpt lat="44.0504" lon="6.1066">
        <ele>517.4</ele>
        <time>2021-09-10T10:58:06Z</time>
      </trkpt>
      <trkpt lat="44.05043" lon="6.10668">
        <ele>517.5</ele>
        <time>2021-09-10T10:58:08Z</time>
      </trkpt>
      <trkpt lat="44.05045" lon="6.10676">
        <ele>517.5</ele>
        <time>2021-09-10T10:58:10Z</time>
      </trkpt>
      <trkpt lat="44.05046" lon="6.10681">
        <ele>517.6</ele>
        <time>2021-09-10T10:58:11Z</time>
      </trkpt>
      <trkpt lat="44.05048" lon="6.10684">
        <ele>517.6</ele>
        <time>2021-09-10T10:58:12Z</time>
      </trkpt>
      <trkpt lat="44.05051" lon="6.10692">
        <ele>517.6</ele>
        <time>2021-09-10T10:58:14Z</time>
      </trkpt>
      <trkpt lat="44.05054" lon="6.10696">
        <ele>517.6</ele>
        <time>2021-09-10T10:58:15Z</time>
      </trkpt>
      <trkpt lat="44.05056" lon="6.107">
        <ele>517.7</ele>
        <time>2021-09-10T10:58:16Z</time>
      </trkpt>
      <trkpt lat="44.05058" lon="6.10704">
        <ele>517.7</ele>
        <time>2021-09-10T10:58:17Z</time>
      </trkpt>
      <trkpt lat="44.05059" lon="6.10708">
        <ele>517.7</ele>
        <time>2021-09-10T10:58:18Z</time>
      </trkpt>
      <trkpt lat="44.0506" lon="6.10714">
        <ele>517.8</ele>
        <time>2021-09-10T10:58:20Z</time>
      </trkpt>
      <trkpt lat="44.05063" lon="6.10719">
        <ele>517.9</ele>
        <time>2021-09-10T10:58:21Z</time>
      </trkpt>
      <trkpt lat="44.05065" lon="6.10723">
        <ele>517.9</ele>
        <time>2021-09-10T10:58:23Z</time>
      </trkpt>
      <trkpt lat="44.05067" lon="6.10727">
        <ele>518</ele>
        <time>2021-09-10T10:58:24Z</time>
      </trkpt>
      <trkpt lat="44.05069" lon="6.10732">
        <ele>518.1</ele>
        <time>2021-09-10T10:58:25Z</time>
      </trkpt>
      <trkpt lat="44.0507" lon="6.10734">
        <ele>518.2</ele>
        <time>2021-09-10T10:58:26Z</time>
      </trkpt>
      <trkpt lat="44.05074" lon="6.10741">
        <ele>518.3</ele>
        <time>2021-09-10T10:58:28Z</time>
      </trkpt>
      <trkpt lat="44.05076" lon="6.10745">
        <ele>518.4</ele>
        <time>2021-09-10T10:58:29Z</time>
      </trkpt>
      <trkpt lat="44.05079" lon="6.10751">
        <ele>518.4</ele>
        <time>2021-09-10T10:58:31Z</time>
      </trkpt>
      <trkpt lat="44.05081" lon="6.10755">
        <ele>518.5</ele>
        <time>2021-09-10T10:58:32Z</time>
      </trkpt>
      <trkpt lat="44.05082" lon="6.10757">
        <ele>518.5</ele>
        <time>2021-09-10T10:58:33Z</time>
      </trkpt>
      <trkpt lat="44.05084" lon="6.1076">
        <ele>518.6</ele>
        <time>2021-09-10T10:58:34Z</time>
      </trkpt>
      <trkpt lat="44.05085" lon="6.10763">
        <ele>518.6</ele>
        <time>2021-09-10T10:58:35Z</time>
      </trkpt>
      <trkpt lat="44.05088" lon="6.10767">
        <ele>518.7</ele>
        <time>2021-09-10T10:58:37Z</time>
      </trkpt>
      <trkpt lat="44.05092" lon="6.1077">
        <ele>518.8</ele>
        <time>2021-09-10T10:58:38Z</time>
      </trkpt>
      <trkpt lat="44.05094" lon="6.10772">
        <ele>518.8</ele>
        <time>2021-09-10T10:58:39Z</time>
      </trkpt>
      <trkpt lat="44.051" lon="6.10778">
        <ele>519</ele>
        <time>2021-09-10T10:58:42Z</time>
      </trkpt>
      <trkpt lat="44.05102" lon="6.1078">
        <ele>519.1</ele>
        <time>2021-09-10T10:58:43Z</time>
      </trkpt>
      <trkpt lat="44.05105" lon="6.10783">
        <ele>519.1</ele>
        <time>2021-09-10T10:58:45Z</time>
      </trkpt>
      <trkpt lat="44.05108" lon="6.10786">
        <ele>519.2</ele>
        <time>2021-09-10T10:58:46Z</time>
      </trkpt>
      <trkpt lat="44.05108" lon="6.10787">
        <ele>519.2</ele>
        <time>2021-09-10T10:58:47Z</time>
      </trkpt>
      <trkpt lat="44.0511" lon="6.1079">
        <ele>519.3</ele>
        <time>2021-09-10T10:58:49Z</time>
      </trkpt>
      <trkpt lat="44.05112" lon="6.10794">
        <ele>519.4</ele>
        <time>2021-09-10T10:58:50Z</time>
      </trkpt>
      <trkpt lat="44.05115" lon="6.10799">
        <ele>519.5</ele>
        <time>2021-09-10T10:58:52Z</time>
      </trkpt>
      <trkpt lat="44.05116" lon="6.108">
        <ele>519.5</ele>
        <time>2021-09-10T10:58:54Z</time>
      </trkpt>
      <trkpt lat="44.05117" lon="6.10802">
        <ele>519.6</ele>
        <time>2021-09-10T10:58:55Z</time>
      </trkpt>
      <trkpt lat="44.05118" lon="6.10803">
        <ele>519.6</ele>
        <time>2021-09-10T10:58:56Z</time>
      </trkpt>
      <trkpt lat="44.0512" lon="6.10804">
        <ele>519.6</ele>
        <time>2021-09-10T10:58:57Z</time>
      </trkpt>
      <trkpt lat="44.05123" lon="6.10806">
        <ele>519.7</ele>
        <time>2021-09-10T10:58:58Z</time>
      </trkpt>
      <trkpt lat="44.05126" lon="6.10807">
        <ele>519.7</ele>
        <time>2021-09-10T10:59:00Z</time>
      </trkpt>
      <trkpt lat="44.05131" lon="6.10806">
        <ele>519.8</ele>
        <time>2021-09-10T10:59:02Z</time>
      </trkpt>
      <trkpt lat="44.05134" lon="6.10807">
        <ele>519.9</ele>
        <time>2021-09-10T10:59:03Z</time>
      </trkpt>
      <trkpt lat="44.05136" lon="6.10807">
        <ele>519.9</ele>
        <time>2021-09-10T10:59:04Z</time>
      </trkpt>
      <trkpt lat="44.05138" lon="6.10809">
        <ele>520</ele>
        <time>2021-09-10T10:59:06Z</time>
      </trkpt>
      <trkpt lat="44.05141" lon="6.1081">
        <ele>520.1</ele>
        <time>2021-09-10T10:59:07Z</time>
      </trkpt>
      <trkpt lat="44.05143" lon="6.10811">
        <ele>520.1</ele>
        <time>2021-09-10T10:59:09Z</time>
      </trkpt>
      <trkpt lat="44.05144" lon="6.10812">
        <ele>520.1</ele>
        <time>2021-09-10T10:59:10Z</time>
      </trkpt>
      <trkpt lat="44.05145" lon="6.10812">
        <ele>520.2</ele>
        <time>2021-09-10T10:59:11Z</time>
      </trkpt>
      <trkpt lat="44.05147" lon="6.1081">
        <ele>520.2</ele>
        <time>2021-09-10T10:59:13Z</time>
      </trkpt>
      <trkpt lat="44.0515" lon="6.10808">
        <ele>520.3</ele>
        <time>2021-09-10T10:59:15Z</time>
      </trkpt>
      <trkpt lat="44.05151" lon="6.10808">
        <ele>520.3</ele>
        <time>2021-09-10T10:59:16Z</time>
      </trkpt>
      <trkpt lat="44.05154" lon="6.1081">
        <ele>520.4</ele>
        <time>2021-09-10T10:59:18Z</time>
      </trkpt>
      <trkpt lat="44.05157" lon="6.10812">
        <ele>520.5</ele>
        <time>2021-09-10T10:59:19Z</time>
      </trkpt>
      <trkpt lat="44.05161" lon="6.10813">
        <ele>520.6</ele>
        <time>2021-09-10T10:59:21Z</time>
      </trkpt>
      <trkpt lat="44.05164" lon="6.10813">
        <ele>520.6</ele>
        <time>2021-09-10T10:59:22Z</time>
      </trkpt>
      <trkpt lat="44.05169" lon="6.10812">
        <ele>520.7</ele>
        <time>2021-09-10T10:59:23Z</time>
      </trkpt>
      <trkpt lat="44.05171" lon="6.10809">
        <ele>520.8</ele>
        <time>2021-09-10T10:59:25Z</time>
      </trkpt>
      <trkpt lat="44.05172" lon="6.10808">
        <ele>520.8</ele>
        <time>2021-09-10T10:59:26Z</time>
      </trkpt>
      <trkpt lat="44.05177" lon="6.10808">
        <ele>520.9</ele>
        <time>2021-09-10T10:59:28Z</time>
      </trkpt>
      <trkpt lat="44.05178" lon="6.10807">
        <ele>520.9</ele>
        <time>2021-09-10T10:59:29Z</time>
      </trkpt>
      <trkpt lat="44.0518" lon="6.10806">
        <ele>521</ele>
        <time>2021-09-10T10:59:30Z</time>
      </trkpt>
      <trkpt lat="44.05183" lon="6.10804">
        <ele>521.1</ele>
        <time>2021-09-10T10:59:32Z</time>
      </trkpt>
      <trkpt lat="44.05185" lon="6.10804">
        <ele>521.1</ele>
        <time>2021-09-10T10:59:33Z</time>
      </trkpt>
      <trkpt lat="44.05186" lon="6.10805">
        <ele>521.1</ele>
        <time>2021-09-10T10:59:34Z</time>
      </trkpt>
      <trkpt lat="44.05187" lon="6.10807">
        <ele>521.2</ele>
        <time>2021-09-10T10:59:35Z</time>
      </trkpt>
      <trkpt lat="44.05188" lon="6.10808">
        <ele>521.2</ele>
        <time>2021-09-10T10:59:37Z</time>
      </trkpt>
      <trkpt lat="44.05189" lon="6.10809">
        <ele>521.2</ele>
        <time>2021-09-10T10:59:38Z</time>
      </trkpt>
      <trkpt lat="44.05191" lon="6.10813">
        <ele>521.3</ele>
        <time>2021-09-10T10:59:39Z</time>
      </trkpt>
      <trkpt lat="44.05191" lon="6.10814">
        <ele>521.3</ele>
        <time>2021-09-10T10:59:40Z</time>
      </trkpt>
      <trkpt lat="44.05196" lon="6.10819">
        <ele>521.5</ele>
        <time>2021-09-10T10:59:42Z</time>
      </trkpt>
      <trkpt lat="44.05201" lon="6.10825">
        <ele>521.6</ele>
        <time>2021-09-10T10:59:43Z</time>
      </trkpt>
      <trkpt lat="44.05205" lon="6.1083">
        <ele>521.8</ele>
        <time>2021-09-10T10:59:44Z</time>
      </trkpt>
      <trkpt lat="44.05211" lon="6.10836">
        <ele>522</ele>
        <time>2021-09-10T10:59:45Z</time>
      </trkpt>
      <trkpt lat="44.05217" lon="6.10841">
        <ele>522.1</ele>
        <time>2021-09-10T10:59:47Z</time>
      </trkpt>
      <trkpt lat="44.05223" lon="6.10849">
        <ele>522.3</ele>
        <time>2021-09-10T10:59:49Z</time>
      </trkpt>
      <trkpt lat="44.05226" lon="6.10854">
        <ele>522.4</ele>
        <time>2021-09-10T10:59:50Z</time>
      </trkpt>
      <trkpt lat="44.05229" lon="6.10857">
        <ele>522.5</ele>
        <time>2021-09-10T10:59:51Z</time>
      </trkpt>
      <trkpt lat="44.05231" lon="6.10861">
        <ele>522.5</ele>
        <time>2021-09-10T10:59:52Z</time>
      </trkpt>
      <trkpt lat="44.05234" lon="6.10866">
        <ele>522.6</ele>
        <time>2021-09-10T10:59:53Z</time>
      </trkpt>
      <trkpt lat="44.05238" lon="6.10872">
        <ele>522.7</ele>
        <time>2021-09-10T10:59:55Z</time>
      </trkpt>
      <trkpt lat="44.0524" lon="6.10875">
        <ele>522.7</ele>
        <time>2021-09-10T10:59:56Z</time>
      </trkpt>
      <trkpt lat="44.05245" lon="6.10883">
        <ele>522.8</ele>
        <time>2021-09-10T10:59:58Z</time>
      </trkpt>
      <trkpt lat="44.05247" lon="6.10889">
        <ele>522.9</ele>
        <time>2021-09-10T10:59:59Z</time>
      </trkpt>
      <trkpt lat="44.05249" lon="6.10894">
        <ele>523</ele>
        <time>2021-09-10T11:00:00Z</time>
      </trkpt>
      <trkpt lat="44.05254" lon="6.10901">
        <ele>523.1</ele>
        <time>2021-09-10T11:00:02Z</time>
      </trkpt>
      <trkpt lat="44.05258" lon="6.10906">
        <ele>523.3</ele>
        <time>2021-09-10T11:00:03Z</time>
      </trkpt>
      <trkpt lat="44.05262" lon="6.10911">
        <ele>523.4</ele>
        <time>2021-09-10T11:00:05Z</time>
      </trkpt>
      <trkpt lat="44.05266" lon="6.10913">
        <ele>523.5</ele>
        <time>2021-09-10T11:00:06Z</time>
      </trkpt>
      <trkpt lat="44.05269" lon="6.10916">
        <ele>523.5</ele>
        <time>2021-09-10T11:00:07Z</time>
      </trkpt>
      <trkpt lat="44.05272" lon="6.10918">
        <ele>523.6</ele>
        <time>2021-09-10T11:00:08Z</time>
      </trkpt>
      <trkpt lat="44.05276" lon="6.10921">
        <ele>523.7</ele>
        <time>2021-09-10T11:00:10Z</time>
      </trkpt>
      <trkpt lat="44.05277" lon="6.10922">
        <ele>523.7</ele>
        <time>2021-09-10T11:00:11Z</time>
      </trkpt>
      <trkpt lat="44.0528" lon="6.10925">
        <ele>523.8</ele>
        <time>2021-09-10T11:00:13Z</time>
      </trkpt>
      <trkpt lat="44.05284" lon="6.10928">
        <ele>523.9</ele>
        <time>2021-09-10T11:00:14Z</time>
      </trkpt>
      <trkpt lat="44.05285" lon="6.1093">
        <ele>524</ele>
        <time>2021-09-10T11:00:15Z</time>
      </trkpt>
      <trkpt lat="44.05288" lon="6.10935">
        <ele>524.1</ele>
        <time>2021-09-10T11:00:17Z</time>
      </trkpt>
      <trkpt lat="44.05289" lon="6.10937">
        <ele>524.1</ele>
        <time>2021-09-10T11:00:18Z</time>
      </trkpt>
      <trkpt lat="44.05289" lon="6.10939">
        <ele>524.1</ele>
        <time>2021-09-10T11:00:19Z</time>
      </trkpt>
      <trkpt lat="44.05291" lon="6.10943">
        <ele>524.2</ele>
        <time>2021-09-10T11:00:20Z</time>
      </trkpt>
      <trkpt lat="44.05292" lon="6.10944">
        <ele>524.3</ele>
        <time>2021-09-10T11:00:21Z</time>
      </trkpt>
      <trkpt lat="44.05294" lon="6.10946">
        <ele>524.3</ele>
        <time>2021-09-10T11:00:22Z</time>
      </trkpt>
      <trkpt lat="44.05296" lon="6.10948">
        <ele>524.4</ele>
        <time>2021-09-10T11:00:24Z</time>
      </trkpt>
      <trkpt lat="44.05298" lon="6.1095">
        <ele>524.5</ele>
        <time>2021-09-10T11:00:25Z</time>
      </trkpt>
      <trkpt lat="44.05299" lon="6.10951">
        <ele>524.5</ele>
        <time>2021-09-10T11:00:26Z</time>
      </trkpt>
      <trkpt lat="44.05301" lon="6.10954">
        <ele>524.6</ele>
        <time>2021-09-10T11:00:28Z</time>
      </trkpt>
      <trkpt lat="44.05302" lon="6.10955">
        <ele>524.6</ele>
        <time>2021-09-10T11:00:29Z</time>
      </trkpt>
      <trkpt lat="44.05304" lon="6.10959">
        <ele>524.7</ele>
        <time>2021-09-10T11:00:30Z</time>
      </trkpt>
      <trkpt lat="44.05307" lon="6.10966">
        <ele>524.8</ele>
        <time>2021-09-10T11:00:32Z</time>
      </trkpt>
      <trkpt lat="44.05308" lon="6.10969">
        <ele>524.9</ele>
        <time>2021-09-10T11:00:33Z</time>
      </trkpt>
      <trkpt lat="44.05311" lon="6.10972">
        <ele>524.9</ele>
        <time>2021-09-10T11:00:35Z</time>
      </trkpt>
      <trkpt lat="44.05313" lon="6.10976">
        <ele>525</ele>
        <time>2021-09-10T11:00:36Z</time>
      </trkpt>
      <trkpt lat="44.05313" lon="6.10977">
        <ele>525</ele>
        <time>2021-09-10T11:00:37Z</time>
      </trkpt>
      <trkpt lat="44.05314" lon="6.10981">
        <ele>525.1</ele>
        <time>2021-09-10T11:00:38Z</time>
      </trkpt>
      <trkpt lat="44.05314" lon="6.10985">
        <ele>525.2</ele>
        <time>2021-09-10T11:00:40Z</time>
      </trkpt>
      <trkpt lat="44.05314" lon="6.10989">
        <ele>525.2</ele>
        <time>2021-09-10T11:00:41Z</time>
      </trkpt>
      <trkpt lat="44.05316" lon="6.10999">
        <ele>525.4</ele>
        <time>2021-09-10T11:00:43Z</time>
      </trkpt>
      <trkpt lat="44.05319" lon="6.11004">
        <ele>525.5</ele>
        <time>2021-09-10T11:00:44Z</time>
      </trkpt>
      <trkpt lat="44.05323" lon="6.11012">
        <ele>525.6</ele>
        <time>2021-09-10T11:00:46Z</time>
      </trkpt>
      <trkpt lat="44.05329" lon="6.11017">
        <ele>525.8</ele>
        <time>2021-09-10T11:00:47Z</time>
      </trkpt>
      <trkpt lat="44.05333" lon="6.11022">
        <ele>525.9</ele>
        <time>2021-09-10T11:00:49Z</time>
      </trkpt>
      <trkpt lat="44.05339" lon="6.11026">
        <ele>526</ele>
        <time>2021-09-10T11:00:51Z</time>
      </trkpt>
      <trkpt lat="44.05345" lon="6.1103">
        <ele>526.1</ele>
        <time>2021-09-10T11:00:53Z</time>
      </trkpt>
      <trkpt lat="44.05349" lon="6.11032">
        <ele>526.2</ele>
        <time>2021-09-10T11:00:54Z</time>
      </trkpt>
      <trkpt lat="44.05353" lon="6.11033">
        <ele>526.3</ele>
        <time>2021-09-10T11:00:55Z</time>
      </trkpt>
      <trkpt lat="44.05357" lon="6.11033">
        <ele>526.4</ele>
        <time>2021-09-10T11:00:56Z</time>
      </trkpt>
      <trkpt lat="44.05364" lon="6.11032">
        <ele>526.6</ele>
        <time>2021-09-10T11:00:58Z</time>
      </trkpt>
      <trkpt lat="44.05368" lon="6.11031">
        <ele>526.7</ele>
        <time>2021-09-10T11:00:59Z</time>
      </trkpt>
      <trkpt lat="44.05371" lon="6.11031">
        <ele>526.8</ele>
        <time>2021-09-10T11:01:00Z</time>
      </trkpt>
      <trkpt lat="44.05376" lon="6.11028">
        <ele>527</ele>
        <time>2021-09-10T11:01:01Z</time>
      </trkpt>
      <trkpt lat="44.05378" lon="6.11026">
        <ele>527</ele>
        <time>2021-09-10T11:01:03Z</time>
      </trkpt>
      <trkpt lat="44.05381" lon="6.11022">
        <ele>527.1</ele>
        <time>2021-09-10T11:01:04Z</time>
      </trkpt>
      <trkpt lat="44.05386" lon="6.11017">
        <ele>527.2</ele>
        <time>2021-09-10T11:01:06Z</time>
      </trkpt>
      <trkpt lat="44.05389" lon="6.11014">
        <ele>527.3</ele>
        <time>2021-09-10T11:01:07Z</time>
      </trkpt>
      <trkpt lat="44.05393" lon="6.11011">
        <ele>527.3</ele>
        <time>2021-09-10T11:01:08Z</time>
      </trkpt>
      <trkpt lat="44.05395" lon="6.11006">
        <ele>527.4</ele>
        <time>2021-09-10T11:01:09Z</time>
      </trkpt>
      <trkpt lat="44.05398" lon="6.11002">
        <ele>527.5</ele>
        <time>2021-09-10T11:01:11Z</time>
      </trkpt>
      <trkpt lat="44.05402" lon="6.10998">
        <ele>527.6</ele>
        <time>2021-09-10T11:01:13Z</time>
      </trkpt>
      <trkpt lat="44.05404" lon="6.10996">
        <ele>527.6</ele>
        <time>2021-09-10T11:01:14Z</time>
      </trkpt>
      <trkpt lat="44.0541" lon="6.10994">
        <ele>527.7</ele>
        <time>2021-09-10T11:01:16Z</time>
      </trkpt>
      <trkpt lat="44.05415" lon="6.10989">
        <ele>527.9</ele>
        <time>2021-09-10T11:01:18Z</time>
      </trkpt>
      <trkpt lat="44.0542" lon="6.10985">
        <ele>528</ele>
        <time>2021-09-10T11:01:20Z</time>
      </trkpt>
      <trkpt lat="44.05422" lon="6.10984">
        <ele>528.1</ele>
        <time>2021-09-10T11:01:21Z</time>
      </trkpt>
      <trkpt lat="44.05425" lon="6.10982">
        <ele>528.1</ele>
        <time>2021-09-10T11:01:22Z</time>
      </trkpt>
      <trkpt lat="44.05427" lon="6.10979">
        <ele>528.2</ele>
        <time>2021-09-10T11:01:23Z</time>
      </trkpt>
      <trkpt lat="44.0543" lon="6.10975">
        <ele>528.3</ele>
        <time>2021-09-10T11:01:25Z</time>
      </trkpt>
      <trkpt lat="44.05432" lon="6.10973">
        <ele>528.4</ele>
        <time>2021-09-10T11:01:26Z</time>
      </trkpt>
      <trkpt lat="44.05436" lon="6.1097">
        <ele>528.5</ele>
        <time>2021-09-10T11:01:27Z</time>
      </trkpt>
      <trkpt lat="44.05439" lon="6.10969">
        <ele>528.6</ele>
        <time>2021-09-10T11:01:29Z</time>
      </trkpt>
      <trkpt lat="44.0544" lon="6.10967">
        <ele>528.7</ele>
        <time>2021-09-10T11:01:30Z</time>
      </trkpt>
      <trkpt lat="44.05443" lon="6.10963">
        <ele>528.8</ele>
        <time>2021-09-10T11:01:32Z</time>
      </trkpt>
      <trkpt lat="44.05446" lon="6.10963">
        <ele>528.9</ele>
        <time>2021-09-10T11:01:33Z</time>
      </trkpt>
      <trkpt lat="44.05447" lon="6.10963">
        <ele>528.9</ele>
        <time>2021-09-10T11:01:34Z</time>
      </trkpt>
      <trkpt lat="44.0545" lon="6.10963">
        <ele>529</ele>
        <time>2021-09-10T11:01:36Z</time>
      </trkpt>
      <trkpt lat="44.05451" lon="6.10963">
        <ele>529.1</ele>
        <time>2021-09-10T11:01:37Z</time>
      </trkpt>
      <trkpt lat="44.05451" lon="6.10963">
        <ele>529.1</ele>
        <time>2021-09-10T11:01:38Z</time>
      </trkpt>
      <trkpt lat="44.0545" lon="6.10967">
        <ele>529.2</ele>
        <time>2021-09-10T11:01:39Z</time>
      </trkpt>
      <trkpt lat="44.0545" lon="6.10969">
        <ele>529.2</ele>
        <time>2021-09-10T11:01:41Z</time>
      </trkpt>
      <trkpt lat="44.0545" lon="6.10971">
        <ele>529.3</ele>
        <time>2021-09-10T11:01:43Z</time>
      </trkpt>
      <trkpt lat="44.0545" lon="6.10975">
        <ele>529.4</ele>
        <time>2021-09-10T11:01:45Z</time>
      </trkpt>
      <trkpt lat="44.05449" lon="6.10976">
        <ele>529.6</ele>
        <time>2021-09-10T11:01:46Z</time>
      </trkpt>
      <trkpt lat="44.05444" lon="6.10985">
        <ele>529.6</ele>
        <time>2021-09-10T11:01:50Z</time>
      </trkpt>
      <trkpt lat="44.05439" lon="6.10988">
        <ele>529.5</ele>
        <time>2021-09-10T11:01:51Z</time>
      </trkpt>
      <trkpt lat="44.05434" lon="6.10991">
        <ele>529.5</ele>
        <time>2021-09-10T11:01:52Z</time>
      </trkpt>
      <trkpt lat="44.05428" lon="6.10994">
        <ele>529.4</ele>
        <time>2021-09-10T11:01:53Z</time>
      </trkpt>
      <trkpt lat="44.05416" lon="6.10997">
        <ele>529.3</ele>
        <time>2021-09-10T11:01:54Z</time>
      </trkpt>
      <trkpt lat="44.05409" lon="6.11">
        <ele>529.3</ele>
        <time>2021-09-10T11:01:55Z</time>
      </trkpt>
      <trkpt lat="44.05402" lon="6.11006">
        <ele>529.3</ele>
        <time>2021-09-10T11:01:57Z</time>
      </trkpt>
      <trkpt lat="44.05394" lon="6.11011">
        <ele>529.4</ele>
        <time>2021-09-10T11:01:59Z</time>
      </trkpt>
      <trkpt lat="44.05389" lon="6.11017">
        <ele>529.4</ele>
        <time>2021-09-10T11:02:00Z</time>
      </trkpt>
      <trkpt lat="44.05382" lon="6.11026">
        <ele>529.5</ele>
        <time>2021-09-10T11:02:02Z</time>
      </trkpt>
      <trkpt lat="44.05375" lon="6.11035">
        <ele>529.6</ele>
        <time>2021-09-10T11:02:04Z</time>
      </trkpt>
      <trkpt lat="44.05373" lon="6.11042">
        <ele>529.7</ele>
        <time>2021-09-10T11:02:05Z</time>
      </trkpt>
      <trkpt lat="44.05371" lon="6.11047">
        <ele>529.7</ele>
        <time>2021-09-10T11:02:06Z</time>
      </trkpt>
      <trkpt lat="44.05367" lon="6.11054">
        <ele>529.8</ele>
        <time>2021-09-10T11:02:07Z</time>
      </trkpt>
      <trkpt lat="44.05363" lon="6.11062">
        <ele>529.9</ele>
        <time>2021-09-10T11:02:09Z</time>
      </trkpt>
      <trkpt lat="44.0536" lon="6.11069">
        <ele>530</ele>
        <time>2021-09-10T11:02:11Z</time>
      </trkpt>
      <trkpt lat="44.05358" lon="6.11073">
        <ele>530.1</ele>
        <time>2021-09-10T11:02:12Z</time>
      </trkpt>
      <trkpt lat="44.05355" lon="6.11083">
        <ele>530.2</ele>
        <time>2021-09-10T11:02:14Z</time>
      </trkpt>
      <trkpt lat="44.05354" lon="6.11093">
        <ele>530.4</ele>
        <time>2021-09-10T11:02:15Z</time>
      </trkpt>
      <trkpt lat="44.05354" lon="6.11103">
        <ele>530.5</ele>
        <time>2021-09-10T11:02:17Z</time>
      </trkpt>
      <trkpt lat="44.05353" lon="6.1111">
        <ele>530.5</ele>
        <time>2021-09-10T11:02:18Z</time>
      </trkpt>
      <trkpt lat="44.05351" lon="6.1112">
        <ele>530.6</ele>
        <time>2021-09-10T11:02:20Z</time>
      </trkpt>
      <trkpt lat="44.05348" lon="6.11129">
        <ele>530.7</ele>
        <time>2021-09-10T11:02:22Z</time>
      </trkpt>
      <trkpt lat="44.05347" lon="6.11135">
        <ele>530.8</ele>
        <time>2021-09-10T11:02:23Z</time>
      </trkpt>
      <trkpt lat="44.05345" lon="6.11146">
        <ele>530.9</ele>
        <time>2021-09-10T11:02:24Z</time>
      </trkpt>
      <trkpt lat="44.05344" lon="6.11156">
        <ele>531</ele>
        <time>2021-09-10T11:02:26Z</time>
      </trkpt>
      <trkpt lat="44.05343" lon="6.11162">
        <ele>531.1</ele>
        <time>2021-09-10T11:02:27Z</time>
      </trkpt>
      <trkpt lat="44.05341" lon="6.11171">
        <ele>531.3</ele>
        <time>2021-09-10T11:02:28Z</time>
      </trkpt>
      <trkpt lat="44.05339" lon="6.11181">
        <ele>531.4</ele>
        <time>2021-09-10T11:02:30Z</time>
      </trkpt>
      <trkpt lat="44.05337" lon="6.11189">
        <ele>531.6</ele>
        <time>2021-09-10T11:02:31Z</time>
      </trkpt>
      <trkpt lat="44.05334" lon="6.11198">
        <ele>531.8</ele>
        <time>2021-09-10T11:02:33Z</time>
      </trkpt>
      <trkpt lat="44.05332" lon="6.11203">
        <ele>531.9</ele>
        <time>2021-09-10T11:02:34Z</time>
      </trkpt>
      <trkpt lat="44.05329" lon="6.1121">
        <ele>532.2</ele>
        <time>2021-09-10T11:02:36Z</time>
      </trkpt>
      <trkpt lat="44.05328" lon="6.11215">
        <ele>532.2</ele>
        <time>2021-09-10T11:02:37Z</time>
      </trkpt>
      <trkpt lat="44.05327" lon="6.11218">
        <ele>532.3</ele>
        <time>2021-09-10T11:02:38Z</time>
      </trkpt>
      <trkpt lat="44.05325" lon="6.11225">
        <ele>532.5</ele>
        <time>2021-09-10T11:02:40Z</time>
      </trkpt>
      <trkpt lat="44.05324" lon="6.11229">
        <ele>532.6</ele>
        <time>2021-09-10T11:02:41Z</time>
      </trkpt>
      <trkpt lat="44.05322" lon="6.11235">
        <ele>532.7</ele>
        <time>2021-09-10T11:02:43Z</time>
      </trkpt>
      <trkpt lat="44.0532" lon="6.11241">
        <ele>532.9</ele>
        <time>2021-09-10T11:02:44Z</time>
      </trkpt>
      <trkpt lat="44.05319" lon="6.11244">
        <ele>533.2</ele>
        <time>2021-09-10T11:02:45Z</time>
      </trkpt>
      <trkpt lat="44.05318" lon="6.11248">
        <ele>533.4</ele>
        <time>2021-09-10T11:02:47Z</time>
      </trkpt>
      <trkpt lat="44.05319" lon="6.11255">
        <ele>533.6</ele>
        <time>2021-09-10T11:02:49Z</time>
      </trkpt>
      <trkpt lat="44.05319" lon="6.11257">
        <ele>533.7</ele>
        <time>2021-09-10T11:02:50Z</time>
      </trkpt>
      <trkpt lat="44.0532" lon="6.11263">
        <ele>533.9</ele>
        <time>2021-09-10T11:02:52Z</time>
      </trkpt>
      <trkpt lat="44.05319" lon="6.11268">
        <ele>534.1</ele>
        <time>2021-09-10T11:02:54Z</time>
      </trkpt>
      <trkpt lat="44.05319" lon="6.1127">
        <ele>534.2</ele>
        <time>2021-09-10T11:02:55Z</time>
      </trkpt>
      <trkpt lat="44.0532" lon="6.11272">
        <ele>534.2</ele>
        <time>2021-09-10T11:02:56Z</time>
      </trkpt>
      <trkpt lat="44.05319" lon="6.11276">
        <ele>534.4</ele>
        <time>2021-09-10T11:02:57Z</time>
      </trkpt>
      <trkpt lat="44.05318" lon="6.11278">
        <ele>534.5</ele>
        <time>2021-09-10T11:02:58Z</time>
      </trkpt>
      <trkpt lat="44.05316" lon="6.1128">
        <ele>534.6</ele>
        <time>2021-09-10T11:02:59Z</time>
      </trkpt>
      <trkpt lat="44.05315" lon="6.11281">
        <ele>534.7</ele>
        <time>2021-09-10T11:03:00Z</time>
      </trkpt>
      <trkpt lat="44.05312" lon="6.11281">
        <ele>534.8</ele>
        <time>2021-09-10T11:03:02Z</time>
      </trkpt>
      <trkpt lat="44.0531" lon="6.11282">
        <ele>535</ele>
        <time>2021-09-10T11:03:03Z</time>
      </trkpt>
      <trkpt lat="44.05308" lon="6.11284">
        <ele>535.1</ele>
        <time>2021-09-10T11:03:04Z</time>
      </trkpt>
      <trkpt lat="44.05305" lon="6.11287">
        <ele>535.3</ele>
        <time>2021-09-10T11:03:06Z</time>
      </trkpt>
      <trkpt lat="44.05303" lon="6.1129">
        <ele>535.5</ele>
        <time>2021-09-10T11:03:08Z</time>
      </trkpt>
      <trkpt lat="44.05302" lon="6.11297">
        <ele>535.8</ele>
        <time>2021-09-10T11:03:10Z</time>
      </trkpt>
      <trkpt lat="44.05302" lon="6.11301">
        <ele>536</ele>
        <time>2021-09-10T11:03:11Z</time>
      </trkpt>
      <trkpt lat="44.05302" lon="6.11304">
        <ele>536.2</ele>
        <time>2021-09-10T11:03:12Z</time>
      </trkpt>
      <trkpt lat="44.05302" lon="6.11308">
        <ele>536.3</ele>
        <time>2021-09-10T11:03:14Z</time>
      </trkpt>
      <trkpt lat="44.05299" lon="6.11316">
        <ele>536.7</ele>
        <time>2021-09-10T11:03:16Z</time>
      </trkpt>
      <trkpt lat="44.05297" lon="6.11323">
        <ele>537</ele>
        <time>2021-09-10T11:03:17Z</time>
      </trkpt>
      <trkpt lat="44.05294" lon="6.1133">
        <ele>537.3</ele>
        <time>2021-09-10T11:03:19Z</time>
      </trkpt>
      <trkpt lat="44.05292" lon="6.11337">
        <ele>537.6</ele>
        <time>2021-09-10T11:03:21Z</time>
      </trkpt>
      <trkpt lat="44.0529" lon="6.11344">
        <ele>537.9</ele>
        <time>2021-09-10T11:03:23Z</time>
      </trkpt>
      <trkpt lat="44.05287" lon="6.11352">
        <ele>538.2</ele>
        <time>2021-09-10T11:04:43Z</time>
      </trkpt>
      <trkpt lat="44.05285" lon="6.11359">
        <ele>538.4</ele>
        <time>2021-09-10T11:04:45Z</time>
      </trkpt>
      <trkpt lat="44.05282" lon="6.11366">
        <ele>538.7</ele>
        <time>2021-09-10T11:04:46Z</time>
      </trkpt>
      <trkpt lat="44.05281" lon="6.11368">
        <ele>538.8</ele>
        <time>2021-09-10T11:04:47Z</time>
      </trkpt>
      <trkpt lat="44.05279" lon="6.11369">
        <ele>538.9</ele>
        <time>2021-09-10T11:04:49Z</time>
      </trkpt>
      <trkpt lat="44.05278" lon="6.1137">
        <ele>538.9</ele>
        <time>2021-09-10T11:04:50Z</time>
      </trkpt>
      <trkpt lat="44.05278" lon="6.1137">
        <ele>538.9</ele>
        <time>2021-09-10T11:04:51Z</time>
      </trkpt>
      <trkpt lat="44.05278" lon="6.11371">
        <ele>538.9</ele>
        <time>2021-09-10T11:04:52Z</time>
      </trkpt>
      <trkpt lat="44.05278" lon="6.11371">
        <ele>539</ele>
        <time>2021-09-10T11:04:54Z</time>
      </trkpt>
      <trkpt lat="44.05278" lon="6.11371">
        <ele>539</ele>
        <time>2021-09-10T11:04:55Z</time>
      </trkpt>
      <trkpt lat="44.05279" lon="6.11371">
        <ele>539</ele>
        <time>2021-09-10T11:04:56Z</time>
      </trkpt>
      <trkpt lat="44.05279" lon="6.11371">
        <ele>539</ele>
        <time>2021-09-10T11:04:57Z</time>
      </trkpt>
      <trkpt lat="44.05279" lon="6.11371">
        <ele>539</ele>
        <time>2021-09-10T11:04:58Z</time>
      </trkpt>
      <trkpt lat="44.05279" lon="6.11371">
        <ele>539</ele>
        <time>2021-09-10T11:04:59Z</time>
      </trkpt>
      <trkpt lat="44.05279" lon="6.11371">
        <ele>539</ele>
        <time>2021-09-10T11:05:01Z</time>
      </trkpt>
      <trkpt lat="44.05279" lon="6.11372">
        <ele>539</ele>
        <time>2021-09-10T11:05:02Z</time>
      </trkpt>
      <trkpt lat="44.05279" lon="6.11377">
        <ele>539.2</ele>
        <time>2021-09-10T11:05:04Z</time>
      </trkpt>
      <trkpt lat="44.05275" lon="6.11389">
        <ele>539.6</ele>
        <time>2021-09-10T11:05:09Z</time>
      </trkpt>
      <trkpt lat="44.05273" lon="6.11393">
        <ele>539.7</ele>
        <time>2021-09-10T11:05:10Z</time>
      </trkpt>
      <trkpt lat="44.05271" lon="6.11396">
        <ele>539.9</ele>
        <time>2021-09-10T11:05:11Z</time>
      </trkpt>
      <trkpt lat="44.05267" lon="6.11404">
        <ele>540.1</ele>
        <time>2021-09-10T11:05:13Z</time>
      </trkpt>
      <trkpt lat="44.05265" lon="6.1141">
        <ele>540.3</ele>
        <time>2021-09-10T11:05:14Z</time>
      </trkpt>
      <trkpt lat="44.05263" lon="6.11417">
        <ele>540.5</ele>
        <time>2021-09-10T11:05:15Z</time>
      </trkpt>
      <trkpt lat="44.05261" lon="6.11421">
        <ele>540.7</ele>
        <time>2021-09-10T11:05:17Z</time>
      </trkpt>
      <trkpt lat="44.05257" lon="6.11428">
        <ele>541</ele>
        <time>2021-09-10T11:05:18Z</time>
      </trkpt>
      <trkpt lat="44.05256" lon="6.11433">
        <ele>541.1</ele>
        <time>2021-09-10T11:05:20Z</time>
      </trkpt>
      <trkpt lat="44.05254" lon="6.11438">
        <ele>541.3</ele>
        <time>2021-09-10T11:05:21Z</time>
      </trkpt>
      <trkpt lat="44.0525" lon="6.11444">
        <ele>541.6</ele>
        <time>2021-09-10T11:05:23Z</time>
      </trkpt>
      <trkpt lat="44.05248" lon="6.11447">
        <ele>541.7</ele>
        <time>2021-09-10T11:05:24Z</time>
      </trkpt>
      <trkpt lat="44.05246" lon="6.11452">
        <ele>541.9</ele>
        <time>2021-09-10T11:05:25Z</time>
      </trkpt>
      <trkpt lat="44.05246" lon="6.11454">
        <ele>542</ele>
        <time>2021-09-10T11:05:26Z</time>
      </trkpt>
      <trkpt lat="44.05244" lon="6.11459">
        <ele>542.1</ele>
        <time>2021-09-10T11:05:27Z</time>
      </trkpt>
      <trkpt lat="44.05243" lon="6.1146">
        <ele>542.2</ele>
        <time>2021-09-10T11:05:28Z</time>
      </trkpt>
      <trkpt lat="44.0524" lon="6.11465">
        <ele>542.4</ele>
        <time>2021-09-10T11:05:30Z</time>
      </trkpt>
      <trkpt lat="44.05239" lon="6.11466">
        <ele>542.5</ele>
        <time>2021-09-10T11:05:31Z</time>
      </trkpt>
      <trkpt lat="44.05238" lon="6.11468">
        <ele>542.5</ele>
        <time>2021-09-10T11:05:32Z</time>
      </trkpt>
      <trkpt lat="44.05236" lon="6.11472">
        <ele>542.7</ele>
        <time>2021-09-10T11:05:33Z</time>
      </trkpt>
      <trkpt lat="44.05234" lon="6.11475">
        <ele>542.8</ele>
        <time>2021-09-10T11:05:35Z</time>
      </trkpt>
      <trkpt lat="44.0523" lon="6.1148">
        <ele>543</ele>
        <time>2021-09-10T11:05:37Z</time>
      </trkpt>
      <trkpt lat="44.05227" lon="6.11482">
        <ele>543.2</ele>
        <time>2021-09-10T11:05:38Z</time>
      </trkpt>
      <trkpt lat="44.05223" lon="6.11486">
        <ele>543.4</ele>
        <time>2021-09-10T11:05:40Z</time>
      </trkpt>
      <trkpt lat="44.05221" lon="6.11489">
        <ele>543.6</ele>
        <time>2021-09-10T11:05:41Z</time>
      </trkpt>
      <trkpt lat="44.05218" lon="6.11495">
        <ele>543.8</ele>
        <time>2021-09-10T11:05:43Z</time>
      </trkpt>
      <trkpt lat="44.05215" lon="6.115">
        <ele>543.9</ele>
        <time>2021-09-10T11:05:44Z</time>
      </trkpt>
      <trkpt lat="44.05213" lon="6.11504">
        <ele>544</ele>
        <time>2021-09-10T11:05:45Z</time>
      </trkpt>
      <trkpt lat="44.05211" lon="6.11508">
        <ele>544.1</ele>
        <time>2021-09-10T11:05:47Z</time>
      </trkpt>
      <trkpt lat="44.05209" lon="6.1151">
        <ele>544.2</ele>
        <time>2021-09-10T11:05:48Z</time>
      </trkpt>
      <trkpt lat="44.05205" lon="6.11514">
        <ele>544.4</ele>
        <time>2021-09-10T11:05:50Z</time>
      </trkpt>
      <trkpt lat="44.05202" lon="6.11517">
        <ele>544.5</ele>
        <time>2021-09-10T11:05:51Z</time>
      </trkpt>
      <trkpt lat="44.052" lon="6.11519">
        <ele>544.6</ele>
        <time>2021-09-10T11:05:52Z</time>
      </trkpt>
      <trkpt lat="44.05197" lon="6.11522">
        <ele>544.7</ele>
        <time>2021-09-10T11:05:53Z</time>
      </trkpt>
      <trkpt lat="44.05195" lon="6.11527">
        <ele>544.8</ele>
        <time>2021-09-10T11:05:54Z</time>
      </trkpt>
      <trkpt lat="44.05192" lon="6.11532">
        <ele>544.9</ele>
        <time>2021-09-10T11:05:56Z</time>
      </trkpt>
      <trkpt lat="44.05191" lon="6.11533">
        <ele>545</ele>
        <time>2021-09-10T11:05:57Z</time>
      </trkpt>
      <trkpt lat="44.05191" lon="6.11535">
        <ele>545</ele>
        <time>2021-09-10T11:05:58Z</time>
      </trkpt>
      <trkpt lat="44.05189" lon="6.11537">
        <ele>545.1</ele>
        <time>2021-09-10T11:05:59Z</time>
      </trkpt>
      <trkpt lat="44.05187" lon="6.1154">
        <ele>545.1</ele>
        <time>2021-09-10T11:06:01Z</time>
      </trkpt>
      <trkpt lat="44.05184" lon="6.11544">
        <ele>545.2</ele>
        <time>2021-09-10T11:06:02Z</time>
      </trkpt>
      <trkpt lat="44.05182" lon="6.11545">
        <ele>545.2</ele>
        <time>2021-09-10T11:06:03Z</time>
      </trkpt>
      <trkpt lat="44.0518" lon="6.11549">
        <ele>545.3</ele>
        <time>2021-09-10T11:06:05Z</time>
      </trkpt>
      <trkpt lat="44.0518" lon="6.1155">
        <ele>545.3</ele>
        <time>2021-09-10T11:06:06Z</time>
      </trkpt>
      <trkpt lat="44.05177" lon="6.11555">
        <ele>545.4</ele>
        <time>2021-09-10T11:06:08Z</time>
      </trkpt>
      <trkpt lat="44.05175" lon="6.11558">
        <ele>545.4</ele>
        <time>2021-09-10T11:06:09Z</time>
      </trkpt>
      <trkpt lat="44.05174" lon="6.11559">
        <ele>545.4</ele>
        <time>2021-09-10T11:06:10Z</time>
      </trkpt>
      <trkpt lat="44.05172" lon="6.11562">
        <ele>545.4</ele>
        <time>2021-09-10T11:06:11Z</time>
      </trkpt>
      <trkpt lat="44.05171" lon="6.11567">
        <ele>545.5</ele>
        <time>2021-09-10T11:06:13Z</time>
      </trkpt>
      <trkpt lat="44.05169" lon="6.1157">
        <ele>545.6</ele>
        <time>2021-09-10T11:06:14Z</time>
      </trkpt>
      <trkpt lat="44.05167" lon="6.11575">
        <ele>545.7</ele>
        <time>2021-09-10T11:06:16Z</time>
      </trkpt>
      <trkpt lat="44.05166" lon="6.11576">
        <ele>545.7</ele>
        <time>2021-09-10T11:06:17Z</time>
      </trkpt>
      <trkpt lat="44.05166" lon="6.11578">
        <ele>545.8</ele>
        <time>2021-09-10T11:06:18Z</time>
      </trkpt>
      <trkpt lat="44.05164" lon="6.11584">
        <ele>545.9</ele>
        <time>2021-09-10T11:06:20Z</time>
      </trkpt>
      <trkpt lat="44.05162" lon="6.11588">
        <ele>546</ele>
        <time>2021-09-10T11:06:21Z</time>
      </trkpt>
      <trkpt lat="44.05159" lon="6.11593">
        <ele>546.2</ele>
        <time>2021-09-10T11:06:22Z</time>
      </trkpt>
      <trkpt lat="44.05158" lon="6.11595">
        <ele>546.3</ele>
        <time>2021-09-10T11:06:23Z</time>
      </trkpt>
      <trkpt lat="44.05156" lon="6.11598">
        <ele>546.4</ele>
        <time>2021-09-10T11:06:25Z</time>
      </trkpt>
      <trkpt lat="44.05155" lon="6.116">
        <ele>546.5</ele>
        <time>2021-09-10T11:06:26Z</time>
      </trkpt>
      <trkpt lat="44.05154" lon="6.11601">
        <ele>546.5</ele>
        <time>2021-09-10T11:06:27Z</time>
      </trkpt>
      <trkpt lat="44.05151" lon="6.11601">
        <ele>546.6</ele>
        <time>2021-09-10T11:06:29Z</time>
      </trkpt>
      <trkpt lat="44.0515" lon="6.11601">
        <ele>546.7</ele>
        <time>2021-09-10T11:06:30Z</time>
      </trkpt>
      <trkpt lat="44.05148" lon="6.11598">
        <ele>546.8</ele>
        <time>2021-09-10T11:06:31Z</time>
      </trkpt>
      <trkpt lat="44.05147" lon="6.11596">
        <ele>546.8</ele>
        <time>2021-09-10T11:06:32Z</time>
      </trkpt>
      <trkpt lat="44.05147" lon="6.11593">
        <ele>546.9</ele>
        <time>2021-09-10T11:06:34Z</time>
      </trkpt>
      <trkpt lat="44.05146" lon="6.11592">
        <ele>547</ele>
        <time>2021-09-10T11:06:35Z</time>
      </trkpt>
      <trkpt lat="44.05143" lon="6.11592">
        <ele>547</ele>
        <time>2021-09-10T11:06:37Z</time>
      </trkpt>
      <trkpt lat="44.05142" lon="6.11593">
        <ele>547.1</ele>
        <time>2021-09-10T11:06:39Z</time>
      </trkpt>
      <trkpt lat="44.05141" lon="6.11594">
        <ele>547.1</ele>
        <time>2021-09-10T11:06:40Z</time>
      </trkpt>
      <trkpt lat="44.0514" lon="6.11595">
        <ele>547.2</ele>
        <time>2021-09-10T11:06:41Z</time>
      </trkpt>
      <trkpt lat="44.05136" lon="6.11601">
        <ele>547.3</ele>
        <time>2021-09-10T11:06:42Z</time>
      </trkpt>
      <trkpt lat="44.05133" lon="6.11607">
        <ele>547.5</ele>
        <time>2021-09-10T11:06:44Z</time>
      </trkpt>
      <trkpt lat="44.0513" lon="6.11615">
        <ele>547.7</ele>
        <time>2021-09-10T11:06:45Z</time>
      </trkpt>
      <trkpt lat="44.05126" lon="6.11625">
        <ele>547.9</ele>
        <time>2021-09-10T11:06:46Z</time>
      </trkpt>
      <trkpt lat="44.05124" lon="6.11633">
        <ele>548.1</ele>
        <time>2021-09-10T11:06:48Z</time>
      </trkpt>
      <trkpt lat="44.0512" lon="6.11643">
        <ele>548.3</ele>
        <time>2021-09-10T11:06:50Z</time>
      </trkpt>
      <trkpt lat="44.05117" lon="6.11649">
        <ele>548.4</ele>
        <time>2021-09-10T11:06:51Z</time>
      </trkpt>
      <trkpt lat="44.05114" lon="6.1166">
        <ele>548.6</ele>
        <time>2021-09-10T11:06:53Z</time>
      </trkpt>
      <trkpt lat="44.05113" lon="6.11665">
        <ele>548.7</ele>
        <time>2021-09-10T11:06:54Z</time>
      </trkpt>
      <trkpt lat="44.0511" lon="6.11675">
        <ele>548.9</ele>
        <time>2021-09-10T11:06:56Z</time>
      </trkpt>
      <trkpt lat="44.05109" lon="6.11682">
        <ele>549</ele>
        <time>2021-09-10T11:06:57Z</time>
      </trkpt>
      <trkpt lat="44.05106" lon="6.11686">
        <ele>549.1</ele>
        <time>2021-09-10T11:06:59Z</time>
      </trkpt>
      <trkpt lat="44.05104" lon="6.11691">
        <ele>549.2</ele>
        <time>2021-09-10T11:07:00Z</time>
      </trkpt>
      <trkpt lat="44.05101" lon="6.11697">
        <ele>549.3</ele>
        <time>2021-09-10T11:07:01Z</time>
      </trkpt>
      <trkpt lat="44.05098" lon="6.11703">
        <ele>549.4</ele>
        <time>2021-09-10T11:07:03Z</time>
      </trkpt>
      <trkpt lat="44.05097" lon="6.11707">
        <ele>549.5</ele>
        <time>2021-09-10T11:07:04Z</time>
      </trkpt>
      <trkpt lat="44.05093" lon="6.11714">
        <ele>549.6</ele>
        <time>2021-09-10T11:07:05Z</time>
      </trkpt>
      <trkpt lat="44.0509" lon="6.1172">
        <ele>549.7</ele>
        <time>2021-09-10T11:07:07Z</time>
      </trkpt>
      <trkpt lat="44.05086" lon="6.11727">
        <ele>549.8</ele>
        <time>2021-09-10T11:07:09Z</time>
      </trkpt>
      <trkpt lat="44.05084" lon="6.11731">
        <ele>549.9</ele>
        <time>2021-09-10T11:07:10Z</time>
      </trkpt>
      <trkpt lat="44.05082" lon="6.11735">
        <ele>549.9</ele>
        <time>2021-09-10T11:07:11Z</time>
      </trkpt>
      <trkpt lat="44.0508" lon="6.11739">
        <ele>550</ele>
        <time>2021-09-10T11:07:12Z</time>
      </trkpt>
      <trkpt lat="44.05076" lon="6.11746">
        <ele>550</ele>
        <time>2021-09-10T11:07:14Z</time>
      </trkpt>
      <trkpt lat="44.05071" lon="6.11753">
        <ele>550.1</ele>
        <time>2021-09-10T11:07:16Z</time>
      </trkpt>
      <trkpt lat="44.05068" lon="6.11755">
        <ele>550.2</ele>
        <time>2021-09-10T11:07:17Z</time>
      </trkpt>
      <trkpt lat="44.05065" lon="6.11758">
        <ele>550.3</ele>
        <time>2021-09-10T11:07:18Z</time>
      </trkpt>
      <trkpt lat="44.05062" lon="6.11761">
        <ele>550.4</ele>
        <time>2021-09-10T11:07:19Z</time>
      </trkpt>
      <trkpt lat="44.0506" lon="6.11766">
        <ele>550.6</ele>
        <time>2021-09-10T11:07:21Z</time>
      </trkpt>
      <trkpt lat="44.05058" lon="6.1177">
        <ele>550.7</ele>
        <time>2021-09-10T11:07:22Z</time>
      </trkpt>
      <trkpt lat="44.05056" lon="6.11775">
        <ele>550.9</ele>
        <time>2021-09-10T11:07:23Z</time>
      </trkpt>
      <trkpt lat="44.05054" lon="6.1178">
        <ele>551</ele>
        <time>2021-09-10T11:07:25Z</time>
      </trkpt>
      <trkpt lat="44.05051" lon="6.11787">
        <ele>551.2</ele>
        <time>2021-09-10T11:07:27Z</time>
      </trkpt>
      <trkpt lat="44.05049" lon="6.11792">
        <ele>551.4</ele>
        <time>2021-09-10T11:07:28Z</time>
      </trkpt>
      <trkpt lat="44.05047" lon="6.11797">
        <ele>551.5</ele>
        <time>2021-09-10T11:07:29Z</time>
      </trkpt>
      <trkpt lat="44.05045" lon="6.118">
        <ele>551.6</ele>
        <time>2021-09-10T11:07:31Z</time>
      </trkpt>
      <trkpt lat="44.05042" lon="6.11804">
        <ele>551.8</ele>
        <time>2021-09-10T11:07:32Z</time>
      </trkpt>
      <trkpt lat="44.05039" lon="6.11808">
        <ele>551.9</ele>
        <time>2021-09-10T11:07:34Z</time>
      </trkpt>
      <trkpt lat="44.05037" lon="6.11811">
        <ele>552</ele>
        <time>2021-09-10T11:07:35Z</time>
      </trkpt>
      <trkpt lat="44.05034" lon="6.11815">
        <ele>552.2</ele>
        <time>2021-09-10T11:07:37Z</time>
      </trkpt>
      <trkpt lat="44.05032" lon="6.11818">
        <ele>552.3</ele>
        <time>2021-09-10T11:07:38Z</time>
      </trkpt>
      <trkpt lat="44.05029" lon="6.11823">
        <ele>552.4</ele>
        <time>2021-09-10T11:07:40Z</time>
      </trkpt>
      <trkpt lat="44.05023" lon="6.11827">
        <ele>552.6</ele>
        <time>2021-09-10T11:07:42Z</time>
      </trkpt>
      <trkpt lat="44.0502" lon="6.11832">
        <ele>552.7</ele>
        <time>2021-09-10T11:07:44Z</time>
      </trkpt>
      <trkpt lat="44.05017" lon="6.11836">
        <ele>552.8</ele>
        <time>2021-09-10T11:07:45Z</time>
      </trkpt>
      <trkpt lat="44.05014" lon="6.11843">
        <ele>553</ele>
        <time>2021-09-10T11:07:47Z</time>
      </trkpt>
      <trkpt lat="44.0501" lon="6.11849">
        <ele>553.1</ele>
        <time>2021-09-10T11:07:48Z</time>
      </trkpt>
      <trkpt lat="44.05006" lon="6.11855">
        <ele>553.2</ele>
        <time>2021-09-10T11:07:50Z</time>
      </trkpt>
      <trkpt lat="44.05003" lon="6.1186">
        <ele>553.3</ele>
        <time>2021-09-10T11:07:51Z</time>
      </trkpt>
      <trkpt lat="44.04999" lon="6.11866">
        <ele>553.3</ele>
        <time>2021-09-10T11:07:53Z</time>
      </trkpt>
      <trkpt lat="44.04996" lon="6.11871">
        <ele>553.3</ele>
        <time>2021-09-10T11:07:54Z</time>
      </trkpt>
      <trkpt lat="44.04993" lon="6.1188">
        <ele>553.4</ele>
        <time>2021-09-10T11:07:56Z</time>
      </trkpt>
      <trkpt lat="44.04989" lon="6.11887">
        <ele>553.4</ele>
        <time>2021-09-10T11:07:57Z</time>
      </trkpt>
      <trkpt lat="44.04986" lon="6.11893">
        <ele>553.4</ele>
        <time>2021-09-10T11:07:58Z</time>
      </trkpt>
      <trkpt lat="44.04984" lon="6.11898">
        <ele>553.4</ele>
        <time>2021-09-10T11:07:59Z</time>
      </trkpt>
      <trkpt lat="44.04982" lon="6.11902">
        <ele>553.4</ele>
        <time>2021-09-10T11:08:01Z</time>
      </trkpt>
      <trkpt lat="44.0498" lon="6.11906">
        <ele>553.4</ele>
        <time>2021-09-10T11:08:02Z</time>
      </trkpt>
      <trkpt lat="44.04978" lon="6.11912">
        <ele>553.4</ele>
        <time>2021-09-10T11:08:04Z</time>
      </trkpt>
      <trkpt lat="44.04976" lon="6.11919">
        <ele>553.3</ele>
        <time>2021-09-10T11:08:05Z</time>
      </trkpt>
      <trkpt lat="44.04975" lon="6.11933">
        <ele>553.2</ele>
        <time>2021-09-10T11:08:07Z</time>
      </trkpt>
      <trkpt lat="44.04974" lon="6.11939">
        <ele>553.1</ele>
        <time>2021-09-10T11:08:08Z</time>
      </trkpt>
      <trkpt lat="44.04974" lon="6.11946">
        <ele>553.1</ele>
        <time>2021-09-10T11:08:09Z</time>
      </trkpt>
      <trkpt lat="44.04973" lon="6.1196">
        <ele>552.9</ele>
        <time>2021-09-10T11:08:11Z</time>
      </trkpt>
      <trkpt lat="44.04972" lon="6.11968">
        <ele>552.8</ele>
        <time>2021-09-10T11:08:12Z</time>
      </trkpt>
      <trkpt lat="44.0497" lon="6.11984">
        <ele>552.6</ele>
        <time>2021-09-10T11:08:14Z</time>
      </trkpt>
      <trkpt lat="44.04969" lon="6.11999">
        <ele>552.3</ele>
        <time>2021-09-10T11:08:16Z</time>
      </trkpt>
      <trkpt lat="44.04968" lon="6.12005">
        <ele>552.1</ele>
        <time>2021-09-10T11:08:17Z</time>
      </trkpt>
      <trkpt lat="44.04969" lon="6.12012">
        <ele>551.9</ele>
        <time>2021-09-10T11:08:18Z</time>
      </trkpt>
      <trkpt lat="44.04967" lon="6.12028">
        <ele>551.6</ele>
        <time>2021-09-10T11:08:20Z</time>
      </trkpt>
      <trkpt lat="44.04967" lon="6.12045">
        <ele>551.3</ele>
        <time>2021-09-10T11:08:22Z</time>
      </trkpt>
      <trkpt lat="44.04969" lon="6.12062">
        <ele>551.2</ele>
        <time>2021-09-10T11:08:24Z</time>
      </trkpt>
      <trkpt lat="44.04971" lon="6.12075">
        <ele>551.2</ele>
        <time>2021-09-10T11:08:26Z</time>
      </trkpt>
      <trkpt lat="44.04974" lon="6.12083">
        <ele>551.2</ele>
        <time>2021-09-10T11:08:28Z</time>
      </trkpt>
      <trkpt lat="44.04978" lon="6.12084">
        <ele>551.2</ele>
        <time>2021-09-10T11:08:29Z</time>
      </trkpt>
      <trkpt lat="44.04979" lon="6.12084">
        <ele>551.3</ele>
        <time>2021-09-10T11:08:30Z</time>
      </trkpt>
      <trkpt lat="44.04989" lon="6.12086">
        <ele>551.4</ele>
        <time>2021-09-10T11:08:32Z</time>
      </trkpt>
      <trkpt lat="44.05" lon="6.1209">
        <ele>551.7</ele>
        <time>2021-09-10T11:08:34Z</time>
      </trkpt>
      <trkpt lat="44.05002" lon="6.12091">
        <ele>551.8</ele>
        <time>2021-09-10T11:08:35Z</time>
      </trkpt>
      <trkpt lat="44.0501" lon="6.12093">
        <ele>552.1</ele>
        <time>2021-09-10T11:08:37Z</time>
      </trkpt>
      <trkpt lat="44.05015" lon="6.12094">
        <ele>552.3</ele>
        <time>2021-09-10T11:08:38Z</time>
      </trkpt>
      <trkpt lat="44.05022" lon="6.12096">
        <ele>552.6</ele>
        <time>2021-09-10T11:08:39Z</time>
      </trkpt>
      <trkpt lat="44.05029" lon="6.12099">
        <ele>553</ele>
        <time>2021-09-10T11:08:40Z</time>
      </trkpt>
      <trkpt lat="44.05035" lon="6.12101">
        <ele>553.3</ele>
        <time>2021-09-10T11:08:42Z</time>
      </trkpt>
      <trkpt lat="44.05039" lon="6.12103">
        <ele>553.5</ele>
        <time>2021-09-10T11:08:43Z</time>
      </trkpt>
      <trkpt lat="44.05044" lon="6.12105">
        <ele>553.8</ele>
        <time>2021-09-10T11:08:44Z</time>
      </trkpt>
      <trkpt lat="44.05049" lon="6.12107">
        <ele>554.1</ele>
        <time>2021-09-10T11:08:45Z</time>
      </trkpt>
      <trkpt lat="44.05056" lon="6.1211">
        <ele>554.4</ele>
        <time>2021-09-10T11:08:47Z</time>
      </trkpt>
      <trkpt lat="44.05062" lon="6.12113">
        <ele>554.8</ele>
        <time>2021-09-10T11:08:49Z</time>
      </trkpt>
      <trkpt lat="44.05067" lon="6.12118">
        <ele>555</ele>
        <time>2021-09-10T11:08:50Z</time>
      </trkpt>
      <trkpt lat="44.0507" lon="6.12124">
        <ele>555.2</ele>
        <time>2021-09-10T11:08:52Z</time>
      </trkpt>
      <trkpt lat="44.05073" lon="6.12128">
        <ele>555.4</ele>
        <time>2021-09-10T11:08:53Z</time>
      </trkpt>
      <trkpt lat="44.05079" lon="6.12138">
        <ele>556.2</ele>
        <time>2021-09-10T11:08:55Z</time>
      </trkpt>
      <trkpt lat="44.05084" lon="6.1215">
        <ele>556.7</ele>
        <time>2021-09-10T11:08:57Z</time>
      </trkpt>
      <trkpt lat="44.05085" lon="6.12159">
        <ele>557</ele>
        <time>2021-09-10T11:08:58Z</time>
      </trkpt>
      <trkpt lat="44.05085" lon="6.12165">
        <ele>557.3</ele>
        <time>2021-09-10T11:09:00Z</time>
      </trkpt>
      <trkpt lat="44.05083" lon="6.12171">
        <ele>558.1</ele>
        <time>2021-09-10T11:09:01Z</time>
      </trkpt>
      <trkpt lat="44.05082" lon="6.12178">
        <ele>558.1</ele>
        <time>2021-09-10T11:09:03Z</time>
      </trkpt>
      <trkpt lat="44.0508" lon="6.12182">
        <ele>558.1</ele>
        <time>2021-09-10T11:09:04Z</time>
      </trkpt>
      <trkpt lat="44.05077" lon="6.12182">
        <ele>558.2</ele>
        <time>2021-09-10T11:09:06Z</time>
      </trkpt>
      <trkpt lat="44.05072" lon="6.1218">
        <ele>558.8</ele>
        <time>2021-09-10T11:09:07Z</time>
      </trkpt>
      <trkpt lat="44.05068" lon="6.12178">
        <ele>559.2</ele>
        <time>2021-09-10T11:09:09Z</time>
      </trkpt>
      <trkpt lat="44.05065" lon="6.12177">
        <ele>559.5</ele>
        <time>2021-09-10T11:09:10Z</time>
      </trkpt>
      <trkpt lat="44.05061" lon="6.12177">
        <ele>560</ele>
        <time>2021-09-10T11:09:12Z</time>
      </trkpt>
      <trkpt lat="44.05058" lon="6.12176">
        <ele>560.3</ele>
        <time>2021-09-10T11:09:13Z</time>
      </trkpt>
      <trkpt lat="44.05055" lon="6.12178">
        <ele>560.7</ele>
        <time>2021-09-10T11:09:15Z</time>
      </trkpt>
      <trkpt lat="44.05051" lon="6.12177">
        <ele>561.1</ele>
        <time>2021-09-10T11:09:16Z</time>
      </trkpt>
      <trkpt lat="44.0505" lon="6.12177">
        <ele>561.7</ele>
        <time>2021-09-10T11:09:17Z</time>
      </trkpt>
      <trkpt lat="44.05047" lon="6.12175">
        <ele>561.9</ele>
        <time>2021-09-10T11:09:18Z</time>
      </trkpt>
      <trkpt lat="44.05047" lon="6.12174">
        <ele>561.9</ele>
        <time>2021-09-10T11:09:19Z</time>
      </trkpt>
      <trkpt lat="44.05045" lon="6.12173">
        <ele>562.1</ele>
        <time>2021-09-10T11:09:20Z</time>
      </trkpt>
      <trkpt lat="44.05044" lon="6.12172">
        <ele>562.2</ele>
        <time>2021-09-10T11:09:21Z</time>
      </trkpt>
      <trkpt lat="44.05043" lon="6.1217">
        <ele>562.2</ele>
        <time>2021-09-10T11:09:22Z</time>
      </trkpt>
      <trkpt lat="44.05041" lon="6.12169">
        <ele>562.4</ele>
        <time>2021-09-10T11:09:23Z</time>
      </trkpt>
      <trkpt lat="44.05039" lon="6.12169">
        <ele>562.5</ele>
        <time>2021-09-10T11:09:25Z</time>
      </trkpt>
      <trkpt lat="44.05039" lon="6.1217">
        <ele>562.5</ele>
        <time>2021-09-10T11:09:26Z</time>
      </trkpt>
      <trkpt lat="44.05038" lon="6.1217">
        <ele>562.6</ele>
        <time>2021-09-10T11:09:28Z</time>
      </trkpt>
      <trkpt lat="44.05038" lon="6.12171">
        <ele>562.6</ele>
        <time>2021-09-10T11:09:29Z</time>
      </trkpt>
      <trkpt lat="44.05039" lon="6.12171">
        <ele>562.6</ele>
        <time>2021-09-10T11:09:30Z</time>
      </trkpt>
      <trkpt lat="44.05038" lon="6.12171">
        <ele>562.6</ele>
        <time>2021-09-10T11:09:32Z</time>
      </trkpt>
      <trkpt lat="44.05038" lon="6.12172">
        <ele>562.7</ele>
        <time>2021-09-10T11:09:33Z</time>
      </trkpt>
      <trkpt lat="44.05038" lon="6.12172">
        <ele>562.7</ele>
        <time>2021-09-10T11:09:34Z</time>
      </trkpt>
      <trkpt lat="44.05037" lon="6.12173">
        <ele>562.7</ele>
        <time>2021-09-10T11:09:35Z</time>
      </trkpt>
      <trkpt lat="44.05036" lon="6.12175">
        <ele>562.9</ele>
        <time>2021-09-10T11:09:37Z</time>
      </trkpt>
      <trkpt lat="44.05035" lon="6.12179">
        <ele>563.1</ele>
        <time>2021-09-10T11:09:39Z</time>
      </trkpt>
      <trkpt lat="44.05028" lon="6.12194">
        <ele>563.9</ele>
        <time>2021-09-10T11:09:46Z</time>
      </trkpt>
      <trkpt lat="44.05026" lon="6.12198">
        <ele>564.1</ele>
        <time>2021-09-10T11:09:47Z</time>
      </trkpt>
      <trkpt lat="44.05024" lon="6.12204">
        <ele>564.4</ele>
        <time>2021-09-10T11:09:49Z</time>
      </trkpt>
      <trkpt lat="44.05022" lon="6.12208">
        <ele>564.6</ele>
        <time>2021-09-10T11:09:50Z</time>
      </trkpt>
      <trkpt lat="44.05022" lon="6.12214">
        <ele>564.9</ele>
        <time>2021-09-10T11:09:52Z</time>
      </trkpt>
      <trkpt lat="44.05021" lon="6.12217">
        <ele>565</ele>
        <time>2021-09-10T11:09:53Z</time>
      </trkpt>
      <trkpt lat="44.05021" lon="6.12222">
        <ele>565.2</ele>
        <time>2021-09-10T11:09:54Z</time>
      </trkpt>
      <trkpt lat="44.05019" lon="6.12227">
        <ele>565.4</ele>
        <time>2021-09-10T11:09:55Z</time>
      </trkpt>
      <trkpt lat="44.05018" lon="6.1223">
        <ele>565.6</ele>
        <time>2021-09-10T11:09:57Z</time>
      </trkpt>
      <trkpt lat="44.05019" lon="6.12234">
        <ele>565.7</ele>
        <time>2021-09-10T11:09:58Z</time>
      </trkpt>
      <trkpt lat="44.05021" lon="6.12239">
        <ele>566</ele>
        <time>2021-09-10T11:09:59Z</time>
      </trkpt>
      <trkpt lat="44.05023" lon="6.12245">
        <ele>566.2</ele>
        <time>2021-09-10T11:10:01Z</time>
      </trkpt>
      <trkpt lat="44.05024" lon="6.12252">
        <ele>566.4</ele>
        <time>2021-09-10T11:10:03Z</time>
      </trkpt>
      <trkpt lat="44.05025" lon="6.12256">
        <ele>566.5</ele>
        <time>2021-09-10T11:10:04Z</time>
      </trkpt>
      <trkpt lat="44.05026" lon="6.12261">
        <ele>566.6</ele>
        <time>2021-09-10T11:10:05Z</time>
      </trkpt>
      <trkpt lat="44.05026" lon="6.12262">
        <ele>566.7</ele>
        <time>2021-09-10T11:10:06Z</time>
      </trkpt>
      <trkpt lat="44.05026" lon="6.12268">
        <ele>566.8</ele>
        <time>2021-09-10T11:10:08Z</time>
      </trkpt>
      <trkpt lat="44.05027" lon="6.12272">
        <ele>566.9</ele>
        <time>2021-09-10T11:10:09Z</time>
      </trkpt>
      <trkpt lat="44.05026" lon="6.12276">
        <ele>567</ele>
        <time>2021-09-10T11:10:10Z</time>
      </trkpt>
      <trkpt lat="44.05026" lon="6.12277">
        <ele>567</ele>
        <time>2021-09-10T11:10:11Z</time>
      </trkpt>
      <trkpt lat="44.05025" lon="6.12279">
        <ele>567.1</ele>
        <time>2021-09-10T11:10:12Z</time>
      </trkpt>
      <trkpt lat="44.05025" lon="6.1228">
        <ele>567.1</ele>
        <time>2021-09-10T11:10:13Z</time>
      </trkpt>
      <trkpt lat="44.05022" lon="6.12282">
        <ele>567.2</ele>
        <time>2021-09-10T11:10:15Z</time>
      </trkpt>
      <trkpt lat="44.05017" lon="6.12283">
        <ele>567.4</ele>
        <time>2021-09-10T11:10:16Z</time>
      </trkpt>
      <trkpt lat="44.05014" lon="6.12284">
        <ele>567.5</ele>
        <time>2021-09-10T11:10:18Z</time>
      </trkpt>
      <trkpt lat="44.05007" lon="6.12284">
        <ele>567.8</ele>
        <time>2021-09-10T11:10:20Z</time>
      </trkpt>
      <trkpt lat="44.05004" lon="6.12283">
        <ele>567.9</ele>
        <time>2021-09-10T11:10:21Z</time>
      </trkpt>
      <trkpt lat="44.05" lon="6.12285">
        <ele>568</ele>
        <time>2021-09-10T11:10:22Z</time>
      </trkpt>
      <trkpt lat="44.04997" lon="6.12288">
        <ele>568.1</ele>
        <time>2021-09-10T11:10:23Z</time>
      </trkpt>
      <trkpt lat="44.04995" lon="6.1229">
        <ele>568.1</ele>
        <time>2021-09-10T11:10:25Z</time>
      </trkpt>
      <trkpt lat="44.04994" lon="6.12291">
        <ele>568.1</ele>
        <time>2021-09-10T11:10:26Z</time>
      </trkpt>
      <trkpt lat="44.04993" lon="6.12294">
        <ele>568.1</ele>
        <time>2021-09-10T11:10:27Z</time>
      </trkpt>
      <trkpt lat="44.04992" lon="6.12297">
        <ele>568.1</ele>
        <time>2021-09-10T11:10:29Z</time>
      </trkpt>
      <trkpt lat="44.04992" lon="6.12298">
        <ele>568.1</ele>
        <time>2021-09-10T11:10:30Z</time>
      </trkpt>
      <trkpt lat="44.04991" lon="6.12299">
        <ele>568.1</ele>
        <time>2021-09-10T11:10:31Z</time>
      </trkpt>
      <trkpt lat="44.04991" lon="6.12301">
        <ele>568.1</ele>
        <time>2021-09-10T11:10:32Z</time>
      </trkpt>
      <trkpt lat="44.04989" lon="6.12301">
        <ele>568.1</ele>
        <time>2021-09-10T11:10:34Z</time>
      </trkpt>
      <trkpt lat="44.04984" lon="6.12301">
        <ele>568</ele>
        <time>2021-09-10T11:10:36Z</time>
      </trkpt>
      <trkpt lat="44.04983" lon="6.12304">
        <ele>567.7</ele>
        <time>2021-09-10T11:10:37Z</time>
      </trkpt>
      <trkpt lat="44.04982" lon="6.12307">
        <ele>567.6</ele>
        <time>2021-09-10T11:10:38Z</time>
      </trkpt>
      <trkpt lat="44.04982" lon="6.12309">
        <ele>567.6</ele>
        <time>2021-09-10T11:10:39Z</time>
      </trkpt>
      <trkpt lat="44.04978" lon="6.1232">
        <ele>567.4</ele>
        <time>2021-09-10T11:10:41Z</time>
      </trkpt>
      <trkpt lat="44.04976" lon="6.12326">
        <ele>567.3</ele>
        <time>2021-09-10T11:10:42Z</time>
      </trkpt>
      <trkpt lat="44.04972" lon="6.1233">
        <ele>567.4</ele>
        <time>2021-09-10T11:10:44Z</time>
      </trkpt>
      <trkpt lat="44.04968" lon="6.12339">
        <ele>567.4</ele>
        <time>2021-09-10T11:10:45Z</time>
      </trkpt>
      <trkpt lat="44.04967" lon="6.12345">
        <ele>567.5</ele>
        <time>2021-09-10T11:10:47Z</time>
      </trkpt>
      <trkpt lat="44.04966" lon="6.12354">
        <ele>567.6</ele>
        <time>2021-09-10T11:10:48Z</time>
      </trkpt>
      <trkpt lat="44.04965" lon="6.12364">
        <ele>567.6</ele>
        <time>2021-09-10T11:10:50Z</time>
      </trkpt>
      <trkpt lat="44.04965" lon="6.12369">
        <ele>567.6</ele>
        <time>2021-09-10T11:10:51Z</time>
      </trkpt>
      <trkpt lat="44.04963" lon="6.12375">
        <ele>567.6</ele>
        <time>2021-09-10T11:10:52Z</time>
      </trkpt>
      <trkpt lat="44.04962" lon="6.12378">
        <ele>567.6</ele>
        <time>2021-09-10T11:10:53Z</time>
      </trkpt>
      <trkpt lat="44.0496" lon="6.12383">
        <ele>567.6</ele>
        <time>2021-09-10T11:10:55Z</time>
      </trkpt>
      <trkpt lat="44.04958" lon="6.12389">
        <ele>567.5</ele>
        <time>2021-09-10T11:10:56Z</time>
      </trkpt>
      <trkpt lat="44.04956" lon="6.12397">
        <ele>567.5</ele>
        <time>2021-09-10T11:10:58Z</time>
      </trkpt>
      <trkpt lat="44.04954" lon="6.12401">
        <ele>567.5</ele>
        <time>2021-09-10T11:10:59Z</time>
      </trkpt>
      <trkpt lat="44.04952" lon="6.12407">
        <ele>567.4</ele>
        <time>2021-09-10T11:11:00Z</time>
      </trkpt>
      <trkpt lat="44.04951" lon="6.1241">
        <ele>567.4</ele>
        <time>2021-09-10T11:11:01Z</time>
      </trkpt>
      <trkpt lat="44.0495" lon="6.12415">
        <ele>567.4</ele>
        <time>2021-09-10T11:11:02Z</time>
      </trkpt>
      <trkpt lat="44.04948" lon="6.12429">
        <ele>567.3</ele>
        <time>2021-09-10T11:11:04Z</time>
      </trkpt>
      <trkpt lat="44.04947" lon="6.12438">
        <ele>567.3</ele>
        <time>2021-09-10T11:11:05Z</time>
      </trkpt>
      <trkpt lat="44.04946" lon="6.12456">
        <ele>566.8</ele>
        <time>2021-09-10T11:11:07Z</time>
      </trkpt>
      <trkpt lat="44.04944" lon="6.12467">
        <ele>566.2</ele>
        <time>2021-09-10T11:11:09Z</time>
      </trkpt>
      <trkpt lat="44.04943" lon="6.12472">
        <ele>565.9</ele>
        <time>2021-09-10T11:11:10Z</time>
      </trkpt>
      <trkpt lat="44.04941" lon="6.12478">
        <ele>565.3</ele>
        <time>2021-09-10T11:11:11Z</time>
      </trkpt>
      <trkpt lat="44.04938" lon="6.12485">
        <ele>564.7</ele>
        <time>2021-09-10T11:11:12Z</time>
      </trkpt>
      <trkpt lat="44.04935" lon="6.125">
        <ele>563.6</ele>
        <time>2021-09-10T11:11:14Z</time>
      </trkpt>
      <trkpt lat="44.04934" lon="6.1251">
        <ele>563</ele>
        <time>2021-09-10T11:11:15Z</time>
      </trkpt>
      <trkpt lat="44.04931" lon="6.12531">
        <ele>561.9</ele>
        <time>2021-09-10T11:11:17Z</time>
      </trkpt>
      <trkpt lat="44.04927" lon="6.12552">
        <ele>561.1</ele>
        <time>2021-09-10T11:11:19Z</time>
      </trkpt>
      <trkpt lat="44.04925" lon="6.12562">
        <ele>560.7</ele>
        <time>2021-09-10T11:11:20Z</time>
      </trkpt>
      <trkpt lat="44.04924" lon="6.12571">
        <ele>560.5</ele>
        <time>2021-09-10T11:11:21Z</time>
      </trkpt>
      <trkpt lat="44.04921" lon="6.12589">
        <ele>560.1</ele>
        <time>2021-09-10T11:11:23Z</time>
      </trkpt>
      <trkpt lat="44.04917" lon="6.12604">
        <ele>560</ele>
        <time>2021-09-10T11:11:25Z</time>
      </trkpt>
      <trkpt lat="44.04914" lon="6.1261">
        <ele>560</ele>
        <time>2021-09-10T11:11:26Z</time>
      </trkpt>
      <trkpt lat="44.04906" lon="6.12621">
        <ele>560.4</ele>
        <time>2021-09-10T11:11:28Z</time>
      </trkpt>
      <trkpt lat="44.04902" lon="6.12625">
        <ele>560.7</ele>
        <time>2021-09-10T11:11:29Z</time>
      </trkpt>
      <trkpt lat="44.04896" lon="6.12631">
        <ele>561.2</ele>
        <time>2021-09-10T11:11:31Z</time>
      </trkpt>
      <trkpt lat="44.04893" lon="6.12635">
        <ele>561.5</ele>
        <time>2021-09-10T11:11:32Z</time>
      </trkpt>
      <trkpt lat="44.0489" lon="6.12641">
        <ele>561.9</ele>
        <time>2021-09-10T11:11:34Z</time>
      </trkpt>
      <trkpt lat="44.04888" lon="6.12646">
        <ele>562.3</ele>
        <time>2021-09-10T11:11:35Z</time>
      </trkpt>
      <trkpt lat="44.0489" lon="6.12649">
        <ele>562.6</ele>
        <time>2021-09-10T11:11:37Z</time>
      </trkpt>
      <trkpt lat="44.04887" lon="6.12655">
        <ele>563</ele>
        <time>2021-09-10T11:11:39Z</time>
      </trkpt>
      <trkpt lat="44.04885" lon="6.12659">
        <ele>563.3</ele>
        <time>2021-09-10T11:11:40Z</time>
      </trkpt>
      <trkpt lat="44.04882" lon="6.12662">
        <ele>563.6</ele>
        <time>2021-09-10T11:11:41Z</time>
      </trkpt>
      <trkpt lat="44.0488" lon="6.12666">
        <ele>563.9</ele>
        <time>2021-09-10T11:11:43Z</time>
      </trkpt>
      <trkpt lat="44.04879" lon="6.12667">
        <ele>563.9</ele>
        <time>2021-09-10T11:11:44Z</time>
      </trkpt>
      <trkpt lat="44.04878" lon="6.12669">
        <ele>564.1</ele>
        <time>2021-09-10T11:11:46Z</time>
      </trkpt>
      <trkpt lat="44.04875" lon="6.12673">
        <ele>564.3</ele>
        <time>2021-09-10T11:11:48Z</time>
      </trkpt>
      <trkpt lat="44.04873" lon="6.12675">
        <ele>564.5</ele>
        <time>2021-09-10T11:11:49Z</time>
      </trkpt>
      <trkpt lat="44.04872" lon="6.12676">
        <ele>564.5</ele>
        <time>2021-09-10T11:11:50Z</time>
      </trkpt>
      <trkpt lat="44.0487" lon="6.1268">
        <ele>564.7</ele>
        <time>2021-09-10T11:11:52Z</time>
      </trkpt>
      <trkpt lat="44.04869" lon="6.12681">
        <ele>564.8</ele>
        <time>2021-09-10T11:11:53Z</time>
      </trkpt>
      <trkpt lat="44.04867" lon="6.12686">
        <ele>565</ele>
        <time>2021-09-10T11:11:55Z</time>
      </trkpt>
      <trkpt lat="44.04867" lon="6.12688">
        <ele>565</ele>
        <time>2021-09-10T11:11:56Z</time>
      </trkpt>
      <trkpt lat="44.04867" lon="6.1269">
        <ele>565.1</ele>
        <time>2021-09-10T11:11:57Z</time>
      </trkpt>
      <trkpt lat="44.04865" lon="6.12696">
        <ele>565.3</ele>
        <time>2021-09-10T11:11:59Z</time>
      </trkpt>
      <trkpt lat="44.04864" lon="6.12698">
        <ele>565.4</ele>
        <time>2021-09-10T11:12:00Z</time>
      </trkpt>
      <trkpt lat="44.04863" lon="6.127">
        <ele>565.5</ele>
        <time>2021-09-10T11:12:01Z</time>
      </trkpt>
      <trkpt lat="44.04861" lon="6.12703">
        <ele>565.6</ele>
        <time>2021-09-10T11:12:02Z</time>
      </trkpt>
      <trkpt lat="44.04859" lon="6.12707">
        <ele>565.7</ele>
        <time>2021-09-10T11:12:04Z</time>
      </trkpt>
      <trkpt lat="44.04857" lon="6.12711">
        <ele>565.8</ele>
        <time>2021-09-10T11:12:05Z</time>
      </trkpt>
      <trkpt lat="44.04856" lon="6.12713">
        <ele>565.9</ele>
        <time>2021-09-10T11:12:06Z</time>
      </trkpt>
      <trkpt lat="44.04854" lon="6.12718">
        <ele>566</ele>
        <time>2021-09-10T11:12:08Z</time>
      </trkpt>
      <trkpt lat="44.04853" lon="6.1272">
        <ele>566</ele>
        <time>2021-09-10T11:12:09Z</time>
      </trkpt>
      <trkpt lat="44.04851" lon="6.12723">
        <ele>566.1</ele>
        <time>2021-09-10T11:12:11Z</time>
      </trkpt>
      <trkpt lat="44.0485" lon="6.12729">
        <ele>566.2</ele>
        <time>2021-09-10T11:12:12Z</time>
      </trkpt>
      <trkpt lat="44.0485" lon="6.12734">
        <ele>566.3</ele>
        <time>2021-09-10T11:12:14Z</time>
      </trkpt>
      <trkpt lat="44.04848" lon="6.1274">
        <ele>566.4</ele>
        <time>2021-09-10T11:12:15Z</time>
      </trkpt>
      <trkpt lat="44.04847" lon="6.12745">
        <ele>566.5</ele>
        <time>2021-09-10T11:12:16Z</time>
      </trkpt>
      <trkpt lat="44.04846" lon="6.1275">
        <ele>566.6</ele>
        <time>2021-09-10T11:12:18Z</time>
      </trkpt>
      <trkpt lat="44.04845" lon="6.12755">
        <ele>566.7</ele>
        <time>2021-09-10T11:12:19Z</time>
      </trkpt>
      <trkpt lat="44.04845" lon="6.12757">
        <ele>566.7</ele>
        <time>2021-09-10T11:12:20Z</time>
      </trkpt>
      <trkpt lat="44.04844" lon="6.12761">
        <ele>566.8</ele>
        <time>2021-09-10T11:12:21Z</time>
      </trkpt>
      <trkpt lat="44.04844" lon="6.12765">
        <ele>566.8</ele>
        <time>2021-09-10T11:12:22Z</time>
      </trkpt>
      <trkpt lat="44.04843" lon="6.1277">
        <ele>566.9</ele>
        <time>2021-09-10T11:12:24Z</time>
      </trkpt>
      <trkpt lat="44.04842" lon="6.12771">
        <ele>567</ele>
        <time>2021-09-10T11:12:25Z</time>
      </trkpt>
      <trkpt lat="44.04841" lon="6.12775">
        <ele>567</ele>
        <time>2021-09-10T11:12:27Z</time>
      </trkpt>
      <trkpt lat="44.0484" lon="6.12778">
        <ele>567.1</ele>
        <time>2021-09-10T11:12:28Z</time>
      </trkpt>
      <trkpt lat="44.04839" lon="6.12784">
        <ele>567.2</ele>
        <time>2021-09-10T11:12:30Z</time>
      </trkpt>
      <trkpt lat="44.04837" lon="6.12788">
        <ele>567.2</ele>
        <time>2021-09-10T11:12:31Z</time>
      </trkpt>
      <trkpt lat="44.04836" lon="6.12794">
        <ele>567.3</ele>
        <time>2021-09-10T11:12:32Z</time>
      </trkpt>
      <trkpt lat="44.04836" lon="6.12799">
        <ele>567.3</ele>
        <time>2021-09-10T11:12:34Z</time>
      </trkpt>
      <trkpt lat="44.04836" lon="6.12801">
        <ele>567.3</ele>
        <time>2021-09-10T11:12:35Z</time>
      </trkpt>
      <trkpt lat="44.04836" lon="6.12804">
        <ele>567.3</ele>
        <time>2021-09-10T11:12:37Z</time>
      </trkpt>
      <trkpt lat="44.04837" lon="6.12808">
        <ele>567.2</ele>
        <time>2021-09-10T11:12:38Z</time>
      </trkpt>
      <trkpt lat="44.04837" lon="6.12809">
        <ele>567.2</ele>
        <time>2021-09-10T11:12:39Z</time>
      </trkpt>
      <trkpt lat="44.04837" lon="6.12813">
        <ele>567</ele>
        <time>2021-09-10T11:12:40Z</time>
      </trkpt>
      <trkpt lat="44.04837" lon="6.12815">
        <ele>567</ele>
        <time>2021-09-10T11:12:41Z</time>
      </trkpt>
      <trkpt lat="44.04837" lon="6.12817">
        <ele>566.9</ele>
        <time>2021-09-10T11:12:43Z</time>
      </trkpt>
      <trkpt lat="44.04836" lon="6.12819">
        <ele>566.8</ele>
        <time>2021-09-10T11:12:44Z</time>
      </trkpt>
      <trkpt lat="44.04836" lon="6.12821">
        <ele>566.7</ele>
        <time>2021-09-10T11:12:45Z</time>
      </trkpt>
      <trkpt lat="44.04836" lon="6.12826">
        <ele>566.4</ele>
        <time>2021-09-10T11:12:47Z</time>
      </trkpt>
      <trkpt lat="44.04835" lon="6.12832">
        <ele>566.1</ele>
        <time>2021-09-10T11:12:48Z</time>
      </trkpt>
      <trkpt lat="44.04831" lon="6.12841">
        <ele>565.4</ele>
        <time>2021-09-10T11:12:49Z</time>
      </trkpt>
      <trkpt lat="44.04829" lon="6.12849">
        <ele>565.1</ele>
        <time>2021-09-10T11:12:50Z</time>
      </trkpt>
      <trkpt lat="44.04823" lon="6.12864">
        <ele>564.9</ele>
        <time>2021-09-10T11:12:52Z</time>
      </trkpt>
      <trkpt lat="44.04822" lon="6.12871">
        <ele>564.8</ele>
        <time>2021-09-10T11:12:53Z</time>
      </trkpt>
      <trkpt lat="44.04819" lon="6.12879">
        <ele>564.7</ele>
        <time>2021-09-10T11:12:54Z</time>
      </trkpt>
      <trkpt lat="44.04816" lon="6.12883">
        <ele>564.6</ele>
        <time>2021-09-10T11:12:56Z</time>
      </trkpt>
      <trkpt lat="44.04814" lon="6.12888">
        <ele>564.4</ele>
        <time>2021-09-10T11:12:57Z</time>
      </trkpt>
      <trkpt lat="44.04812" lon="6.12896">
        <ele>564.2</ele>
        <time>2021-09-10T11:12:58Z</time>
      </trkpt>
      <trkpt lat="44.0481" lon="6.12903">
        <ele>564</ele>
        <time>2021-09-10T11:12:59Z</time>
      </trkpt>
      <trkpt lat="44.04806" lon="6.12913">
        <ele>563.5</ele>
        <time>2021-09-10T11:13:01Z</time>
      </trkpt>
      <trkpt lat="44.04803" lon="6.12919">
        <ele>563</ele>
        <time>2021-09-10T11:13:02Z</time>
      </trkpt>
      <trkpt lat="44.04797" lon="6.12933">
        <ele>562.2</ele>
        <time>2021-09-10T11:13:04Z</time>
      </trkpt>
      <trkpt lat="44.04793" lon="6.12939">
        <ele>561.8</ele>
        <time>2021-09-10T11:13:05Z</time>
      </trkpt>
      <trkpt lat="44.04786" lon="6.12953">
        <ele>561</ele>
        <time>2021-09-10T11:13:07Z</time>
      </trkpt>
      <trkpt lat="44.04782" lon="6.12961">
        <ele>560.5</ele>
        <time>2021-09-10T11:13:08Z</time>
      </trkpt>
      <trkpt lat="44.04774" lon="6.12975">
        <ele>559.7</ele>
        <time>2021-09-10T11:13:10Z</time>
      </trkpt>
      <trkpt lat="44.04769" lon="6.12983">
        <ele>559.2</ele>
        <time>2021-09-10T11:13:11Z</time>
      </trkpt>
      <trkpt lat="44.04765" lon="6.1299">
        <ele>558.8</ele>
        <time>2021-09-10T11:13:12Z</time>
      </trkpt>
      <trkpt lat="44.04757" lon="6.13002">
        <ele>558.2</ele>
        <time>2021-09-10T11:13:14Z</time>
      </trkpt>
      <trkpt lat="44.04749" lon="6.13015">
        <ele>557.4</ele>
        <time>2021-09-10T11:13:16Z</time>
      </trkpt>
      <trkpt lat="44.04744" lon="6.13021">
        <ele>557</ele>
        <time>2021-09-10T11:13:17Z</time>
      </trkpt>
      <trkpt lat="44.04739" lon="6.13026">
        <ele>556.5</ele>
        <time>2021-09-10T11:13:18Z</time>
      </trkpt>
      <trkpt lat="44.04733" lon="6.13032">
        <ele>556</ele>
        <time>2021-09-10T11:13:19Z</time>
      </trkpt>
      <trkpt lat="44.04726" lon="6.13039">
        <ele>555.4</ele>
        <time>2021-09-10T11:13:20Z</time>
      </trkpt>
      <trkpt lat="44.04713" lon="6.1305">
        <ele>554.3</ele>
        <time>2021-09-10T11:13:22Z</time>
      </trkpt>
      <trkpt lat="44.04701" lon="6.1306">
        <ele>553.2</ele>
        <time>2021-09-10T11:13:24Z</time>
      </trkpt>
      <trkpt lat="44.04694" lon="6.13065">
        <ele>552.5</ele>
        <time>2021-09-10T11:13:25Z</time>
      </trkpt>
      <trkpt lat="44.04688" lon="6.13069">
        <ele>551.9</ele>
        <time>2021-09-10T11:13:26Z</time>
      </trkpt>
      <trkpt lat="44.04675" lon="6.13076">
        <ele>550.6</ele>
        <time>2021-09-10T11:13:28Z</time>
      </trkpt>
      <trkpt lat="44.0467" lon="6.1308">
        <ele>550</ele>
        <time>2021-09-10T11:13:29Z</time>
      </trkpt>
      <trkpt lat="44.04659" lon="6.13089">
        <ele>548.7</ele>
        <time>2021-09-10T11:13:31Z</time>
      </trkpt>
      <trkpt lat="44.04654" lon="6.13093">
        <ele>548.1</ele>
        <time>2021-09-10T11:13:32Z</time>
      </trkpt>
      <trkpt lat="44.04646" lon="6.131">
        <ele>547.1</ele>
        <time>2021-09-10T11:13:34Z</time>
      </trkpt>
      <trkpt lat="44.04641" lon="6.13103">
        <ele>545.6</ele>
        <time>2021-09-10T11:13:35Z</time>
      </trkpt>
      <trkpt lat="44.04637" lon="6.13106">
        <ele>545</ele>
        <time>2021-09-10T11:13:36Z</time>
      </trkpt>
      <trkpt lat="44.04631" lon="6.13107">
        <ele>544.1</ele>
        <time>2021-09-10T11:13:38Z</time>
      </trkpt>
      <trkpt lat="44.04631" lon="6.13108">
        <ele>544.1</ele>
        <time>2021-09-10T11:13:40Z</time>
      </trkpt>
      <trkpt lat="44.04631" lon="6.13108">
        <ele>544</ele>
        <time>2021-09-10T11:13:42Z</time>
      </trkpt>
      <trkpt lat="44.04632" lon="6.13107">
        <ele>543.8</ele>
        <time>2021-09-10T11:13:43Z</time>
      </trkpt>
      <trkpt lat="44.04632" lon="6.13106">
        <ele>543.7</ele>
        <time>2021-09-10T11:13:44Z</time>
      </trkpt>
      <trkpt lat="44.04632" lon="6.13106">
        <ele>543.7</ele>
        <time>2021-09-10T11:13:46Z</time>
      </trkpt>
      <trkpt lat="44.04632" lon="6.13106">
        <ele>543.7</ele>
        <time>2021-09-10T11:13:47Z</time>
      </trkpt>
      <trkpt lat="44.04633" lon="6.13105">
        <ele>543.5</ele>
        <time>2021-09-10T11:13:48Z</time>
      </trkpt>
      <trkpt lat="44.04635" lon="6.13106">
        <ele>543.2</ele>
        <time>2021-09-10T11:13:50Z</time>
      </trkpt>
      <trkpt lat="44.0464" lon="6.13127">
        <ele>540.7</ele>
        <time>2021-09-10T11:13:55Z</time>
      </trkpt>
      <trkpt lat="44.04645" lon="6.1314">
        <ele>539.1</ele>
        <time>2021-09-10T11:13:56Z</time>
      </trkpt>
      <trkpt lat="44.04649" lon="6.13159">
        <ele>536.9</ele>
        <time>2021-09-10T11:13:58Z</time>
      </trkpt>
      <trkpt lat="44.04649" lon="6.13167">
        <ele>536</ele>
        <time>2021-09-10T11:13:59Z</time>
      </trkpt>
      <trkpt lat="44.04643" lon="6.13186">
        <ele>534.1</ele>
        <time>2021-09-10T11:14:01Z</time>
      </trkpt>
      <trkpt lat="44.04638" lon="6.13196">
        <ele>533</ele>
        <time>2021-09-10T11:14:02Z</time>
      </trkpt>
      <trkpt lat="44.04636" lon="6.13204">
        <ele>532.3</ele>
        <time>2021-09-10T11:14:03Z</time>
      </trkpt>
      <trkpt lat="44.04634" lon="6.13213">
        <ele>531.5</ele>
        <time>2021-09-10T11:14:05Z</time>
      </trkpt>
      <trkpt lat="44.04631" lon="6.13216">
        <ele>531.1</ele>
        <time>2021-09-10T11:14:06Z</time>
      </trkpt>
      <trkpt lat="44.04623" lon="6.13221">
        <ele>530.1</ele>
        <time>2021-09-10T11:14:08Z</time>
      </trkpt>
      <trkpt lat="44.04617" lon="6.13225">
        <ele>529.5</ele>
        <time>2021-09-10T11:14:10Z</time>
      </trkpt>
      <trkpt lat="44.04614" lon="6.13226">
        <ele>529.2</ele>
        <time>2021-09-10T11:14:11Z</time>
      </trkpt>
      <trkpt lat="44.04607" lon="6.13225">
        <ele>528.6</ele>
        <time>2021-09-10T11:14:13Z</time>
      </trkpt>
      <trkpt lat="44.04605" lon="6.13225">
        <ele>528.4</ele>
        <time>2021-09-10T11:14:14Z</time>
      </trkpt>
      <trkpt lat="44.04598" lon="6.13227">
        <ele>527.7</ele>
        <time>2021-09-10T11:14:16Z</time>
      </trkpt>
      <trkpt lat="44.04594" lon="6.13229">
        <ele>527.7</ele>
        <time>2021-09-10T11:14:17Z</time>
      </trkpt>
      <trkpt lat="44.0459" lon="6.13231">
        <ele>527.5</ele>
        <time>2021-09-10T11:14:18Z</time>
      </trkpt>
      <trkpt lat="44.04583" lon="6.13239">
        <ele>527.2</ele>
        <time>2021-09-10T11:14:20Z</time>
      </trkpt>
      <trkpt lat="44.04577" lon="6.13257">
        <ele>525</ele>
        <time>2021-09-10T11:14:22Z</time>
      </trkpt>
      <trkpt lat="44.04571" lon="6.13274">
        <ele>524.4</ele>
        <time>2021-09-10T11:14:24Z</time>
      </trkpt>
      <trkpt lat="44.04566" lon="6.1329">
        <ele>523.8</ele>
        <time>2021-09-10T11:14:26Z</time>
      </trkpt>
      <trkpt lat="44.04563" lon="6.13297">
        <ele>523.5</ele>
        <time>2021-09-10T11:14:27Z</time>
      </trkpt>
      <trkpt lat="44.04558" lon="6.1331">
        <ele>523.1</ele>
        <time>2021-09-10T11:14:29Z</time>
      </trkpt>
      <trkpt lat="44.04554" lon="6.13315">
        <ele>522.9</ele>
        <time>2021-09-10T11:14:30Z</time>
      </trkpt>
      <trkpt lat="44.04547" lon="6.13319">
        <ele>522.6</ele>
        <time>2021-09-10T11:14:32Z</time>
      </trkpt>
      <trkpt lat="44.04541" lon="6.13323">
        <ele>522.3</ele>
        <time>2021-09-10T11:14:34Z</time>
      </trkpt>
      <trkpt lat="44.04538" lon="6.13324">
        <ele>522.2</ele>
        <time>2021-09-10T11:14:35Z</time>
      </trkpt>
      <trkpt lat="44.04534" lon="6.13326">
        <ele>522</ele>
        <time>2021-09-10T11:14:36Z</time>
      </trkpt>
      <trkpt lat="44.04527" lon="6.1333">
        <ele>521.7</ele>
        <time>2021-09-10T11:14:38Z</time>
      </trkpt>
      <trkpt lat="44.0452" lon="6.13335">
        <ele>521.3</ele>
        <time>2021-09-10T11:14:40Z</time>
      </trkpt>
      <trkpt lat="44.04515" lon="6.13337">
        <ele>521.1</ele>
        <time>2021-09-10T11:14:42Z</time>
      </trkpt>
      <trkpt lat="44.04514" lon="6.13337">
        <ele>521</ele>
        <time>2021-09-10T11:14:43Z</time>
      </trkpt>
      <trkpt lat="44.04513" lon="6.13338">
        <ele>521</ele>
        <time>2021-09-10T11:14:44Z</time>
      </trkpt>
      <trkpt lat="44.04512" lon="6.13336">
        <ele>520.9</ele>
        <time>2021-09-10T11:14:46Z</time>
      </trkpt>
      <trkpt lat="44.04512" lon="6.13336">
        <ele>520.9</ele>
        <time>2021-09-10T11:14:48Z</time>
      </trkpt>
      <trkpt lat="44.04512" lon="6.13335">
        <ele>520.9</ele>
        <time>2021-09-10T11:14:49Z</time>
      </trkpt>
      <trkpt lat="44.04512" lon="6.13335">
        <ele>520.9</ele>
        <time>2021-09-10T11:14:51Z</time>
      </trkpt>
      <trkpt lat="44.04512" lon="6.13335">
        <ele>520.9</ele>
        <time>2021-09-10T11:14:53Z</time>
      </trkpt>
      <trkpt lat="44.04503" lon="6.1334">
        <ele>520.4</ele>
        <time>2021-09-10T11:15:03Z</time>
      </trkpt>
      <trkpt lat="44.04501" lon="6.13344">
        <ele>520.2</ele>
        <time>2021-09-10T11:15:05Z</time>
      </trkpt>
      <trkpt lat="44.04498" lon="6.13348">
        <ele>520.1</ele>
        <time>2021-09-10T11:15:06Z</time>
      </trkpt>
      <trkpt lat="44.04495" lon="6.13352">
        <ele>519.9</ele>
        <time>2021-09-10T11:15:07Z</time>
      </trkpt>
      <trkpt lat="44.04491" lon="6.13357">
        <ele>519.6</ele>
        <time>2021-09-10T11:15:08Z</time>
      </trkpt>
      <trkpt lat="44.04486" lon="6.13362">
        <ele>519.3</ele>
        <time>2021-09-10T11:15:09Z</time>
      </trkpt>
      <trkpt lat="44.0448" lon="6.13367">
        <ele>519.1</ele>
        <time>2021-09-10T11:15:11Z</time>
      </trkpt>
      <trkpt lat="44.04476" lon="6.13371">
        <ele>518.9</ele>
        <time>2021-09-10T11:15:12Z</time>
      </trkpt>
      <trkpt lat="44.04472" lon="6.13374">
        <ele>518.7</ele>
        <time>2021-09-10T11:15:13Z</time>
      </trkpt>
      <trkpt lat="44.04469" lon="6.13378">
        <ele>518.5</ele>
        <time>2021-09-10T11:15:14Z</time>
      </trkpt>
      <trkpt lat="44.04464" lon="6.13381">
        <ele>518.3</ele>
        <time>2021-09-10T11:15:15Z</time>
      </trkpt>
      <trkpt lat="44.0446" lon="6.13384">
        <ele>518.1</ele>
        <time>2021-09-10T11:15:16Z</time>
      </trkpt>
      <trkpt lat="44.04454" lon="6.13387">
        <ele>517.8</ele>
        <time>2021-09-10T11:15:18Z</time>
      </trkpt>
      <trkpt lat="44.04451" lon="6.13388">
        <ele>517.7</ele>
        <time>2021-09-10T11:15:19Z</time>
      </trkpt>
      <trkpt lat="44.04449" lon="6.13389">
        <ele>517.7</ele>
        <time>2021-09-10T11:15:20Z</time>
      </trkpt>
      <trkpt lat="44.04446" lon="6.1339">
        <ele>517.6</ele>
        <time>2021-09-10T11:15:22Z</time>
      </trkpt>
      <trkpt lat="44.04446" lon="6.13393">
        <ele>517.5</ele>
        <time>2021-09-10T11:15:24Z</time>
      </trkpt>
      <trkpt lat="44.04447" lon="6.13397">
        <ele>517.4</ele>
        <time>2021-09-10T11:15:26Z</time>
      </trkpt>
      <trkpt lat="44.04447" lon="6.134">
        <ele>517.4</ele>
        <time>2021-09-10T11:15:27Z</time>
      </trkpt>
      <trkpt lat="44.04446" lon="6.13405">
        <ele>517.3</ele>
        <time>2021-09-10T11:15:29Z</time>
      </trkpt>
      <trkpt lat="44.04446" lon="6.13408">
        <ele>517.2</ele>
        <time>2021-09-10T11:15:30Z</time>
      </trkpt>
      <trkpt lat="44.04446" lon="6.13413">
        <ele>517.1</ele>
        <time>2021-09-10T11:15:32Z</time>
      </trkpt>
      <trkpt lat="44.04446" lon="6.1342">
        <ele>516.9</ele>
        <time>2021-09-10T11:15:34Z</time>
      </trkpt>
      <trkpt lat="44.04445" lon="6.13421">
        <ele>516.9</ele>
        <time>2021-09-10T11:15:36Z</time>
      </trkpt>
      <trkpt lat="44.04445" lon="6.13422">
        <ele>516.9</ele>
        <time>2021-09-10T11:15:37Z</time>
      </trkpt>
      <trkpt lat="44.04444" lon="6.13423">
        <ele>516.8</ele>
        <time>2021-09-10T11:15:38Z</time>
      </trkpt>
      <trkpt lat="44.04443" lon="6.13424">
        <ele>516.8</ele>
        <time>2021-09-10T11:15:40Z</time>
      </trkpt>
      <trkpt lat="44.0443" lon="6.13432">
        <ele>516.4</ele>
        <time>2021-09-10T11:15:49Z</time>
      </trkpt>
      <trkpt lat="44.04426" lon="6.13431">
        <ele>516.3</ele>
        <time>2021-09-10T11:15:50Z</time>
      </trkpt>
      <trkpt lat="44.04422" lon="6.13428">
        <ele>516.2</ele>
        <time>2021-09-10T11:15:51Z</time>
      </trkpt>
      <trkpt lat="44.04417" lon="6.13425">
        <ele>516</ele>
        <time>2021-09-10T11:15:53Z</time>
      </trkpt>
      <trkpt lat="44.04415" lon="6.13423">
        <ele>516</ele>
        <time>2021-09-10T11:15:54Z</time>
      </trkpt>
      <trkpt lat="44.04413" lon="6.1342">
        <ele>515.9</ele>
        <time>2021-09-10T11:15:56Z</time>
      </trkpt>
      <trkpt lat="44.0441" lon="6.1342">
        <ele>515.8</ele>
        <time>2021-09-10T11:15:57Z</time>
      </trkpt>
      <trkpt lat="44.04406" lon="6.13421">
        <ele>515.7</ele>
        <time>2021-09-10T11:15:58Z</time>
      </trkpt>
      <trkpt lat="44.04401" lon="6.13423">
        <ele>515.6</ele>
        <time>2021-09-10T11:16:00Z</time>
      </trkpt>
      <trkpt lat="44.04395" lon="6.13425">
        <ele>515.4</ele>
        <time>2021-09-10T11:16:01Z</time>
      </trkpt>
      <trkpt lat="44.04391" lon="6.13428">
        <ele>515.3</ele>
        <time>2021-09-10T11:16:03Z</time>
      </trkpt>
      <trkpt lat="44.04389" lon="6.13431">
        <ele>515.2</ele>
        <time>2021-09-10T11:16:04Z</time>
      </trkpt>
      <trkpt lat="44.04386" lon="6.13433">
        <ele>515.1</ele>
        <time>2021-09-10T11:16:05Z</time>
      </trkpt>
      <trkpt lat="44.04382" lon="6.13436">
        <ele>515</ele>
        <time>2021-09-10T11:16:06Z</time>
      </trkpt>
      <trkpt lat="44.04378" lon="6.13438">
        <ele>514.8</ele>
        <time>2021-09-10T11:16:07Z</time>
      </trkpt>
      <trkpt lat="44.04373" lon="6.13439">
        <ele>514.6</ele>
        <time>2021-09-10T11:16:09Z</time>
      </trkpt>
      <trkpt lat="44.04369" lon="6.13443">
        <ele>514.4</ele>
        <time>2021-09-10T11:16:10Z</time>
      </trkpt>
      <trkpt lat="44.04363" lon="6.13447">
        <ele>514.2</ele>
        <time>2021-09-10T11:16:12Z</time>
      </trkpt>
      <trkpt lat="44.04358" lon="6.13449">
        <ele>513.9</ele>
        <time>2021-09-10T11:16:13Z</time>
      </trkpt>
      <trkpt lat="44.04355" lon="6.13452">
        <ele>513.8</ele>
        <time>2021-09-10T11:16:14Z</time>
      </trkpt>
      <trkpt lat="44.04353" lon="6.13454">
        <ele>513.7</ele>
        <time>2021-09-10T11:16:15Z</time>
      </trkpt>
      <trkpt lat="44.04351" lon="6.13456">
        <ele>513.6</ele>
        <time>2021-09-10T11:16:17Z</time>
      </trkpt>
      <trkpt lat="44.04348" lon="6.13459">
        <ele>513.4</ele>
        <time>2021-09-10T11:16:18Z</time>
      </trkpt>
      <trkpt lat="44.04346" lon="6.13459">
        <ele>513.3</ele>
        <time>2021-09-10T11:16:19Z</time>
      </trkpt>
      <trkpt lat="44.04342" lon="6.13461">
        <ele>513.2</ele>
        <time>2021-09-10T11:16:21Z</time>
      </trkpt>
      <trkpt lat="44.04339" lon="6.13461">
        <ele>513</ele>
        <time>2021-09-10T11:16:22Z</time>
      </trkpt>
      <trkpt lat="44.04334" lon="6.13464">
        <ele>512.8</ele>
        <time>2021-09-10T11:16:24Z</time>
      </trkpt>
      <trkpt lat="44.04328" lon="6.13468">
        <ele>512.6</ele>
        <time>2021-09-10T11:16:25Z</time>
      </trkpt>
      <trkpt lat="44.04324" lon="6.1347">
        <ele>512.4</ele>
        <time>2021-09-10T11:16:27Z</time>
      </trkpt>
      <trkpt lat="44.0432" lon="6.13471">
        <ele>512.3</ele>
        <time>2021-09-10T11:16:28Z</time>
      </trkpt>
      <trkpt lat="44.04315" lon="6.13475">
        <ele>512.1</ele>
        <time>2021-09-10T11:16:29Z</time>
      </trkpt>
      <trkpt lat="44.04311" lon="6.13478">
        <ele>511.9</ele>
        <time>2021-09-10T11:16:31Z</time>
      </trkpt>
      <trkpt lat="44.04308" lon="6.1348">
        <ele>511.8</ele>
        <time>2021-09-10T11:16:32Z</time>
      </trkpt>
      <trkpt lat="44.04304" lon="6.13482">
        <ele>511.7</ele>
        <time>2021-09-10T11:16:33Z</time>
      </trkpt>
      <trkpt lat="44.04302" lon="6.13484">
        <ele>511.6</ele>
        <time>2021-09-10T11:16:34Z</time>
      </trkpt>
      <trkpt lat="44.04297" lon="6.13487">
        <ele>511.5</ele>
        <time>2021-09-10T11:16:35Z</time>
      </trkpt>
      <trkpt lat="44.04292" lon="6.13488">
        <ele>511.4</ele>
        <time>2021-09-10T11:16:36Z</time>
      </trkpt>
      <trkpt lat="44.04288" lon="6.13489">
        <ele>511.3</ele>
        <time>2021-09-10T11:16:37Z</time>
      </trkpt>
      <trkpt lat="44.04283" lon="6.13491">
        <ele>511.1</ele>
        <time>2021-09-10T11:16:39Z</time>
      </trkpt>
      <trkpt lat="44.04276" lon="6.13496">
        <ele>511</ele>
        <time>2021-09-10T11:16:41Z</time>
      </trkpt>
      <trkpt lat="44.04274" lon="6.135">
        <ele>511</ele>
        <time>2021-09-10T11:16:42Z</time>
      </trkpt>
      <trkpt lat="44.04273" lon="6.13508">
        <ele>511</ele>
        <time>2021-09-10T11:16:43Z</time>
      </trkpt>
      <trkpt lat="44.04272" lon="6.13513">
        <ele>510.6</ele>
        <time>2021-09-10T11:16:44Z</time>
      </trkpt>
      <trkpt lat="44.04271" lon="6.1352">
        <ele>510.3</ele>
        <time>2021-09-10T11:16:46Z</time>
      </trkpt>
      <trkpt lat="44.04268" lon="6.13528">
        <ele>510</ele>
        <time>2021-09-10T11:16:47Z</time>
      </trkpt>
      <trkpt lat="44.04267" lon="6.13536">
        <ele>509.7</ele>
        <time>2021-09-10T11:16:49Z</time>
      </trkpt>
      <trkpt lat="44.04265" lon="6.1354">
        <ele>509.6</ele>
        <time>2021-09-10T11:16:50Z</time>
      </trkpt>
      <trkpt lat="44.04262" lon="6.13544">
        <ele>509.4</ele>
        <time>2021-09-10T11:16:51Z</time>
      </trkpt>
      <trkpt lat="44.04257" lon="6.1355">
        <ele>509.2</ele>
        <time>2021-09-10T11:16:52Z</time>
      </trkpt>
      <trkpt lat="44.04252" lon="6.13555">
        <ele>509</ele>
        <time>2021-09-10T11:16:54Z</time>
      </trkpt>
      <trkpt lat="44.04246" lon="6.1356">
        <ele>508.8</ele>
        <time>2021-09-10T11:16:55Z</time>
      </trkpt>
      <trkpt lat="44.04236" lon="6.13561">
        <ele>508.4</ele>
        <time>2021-09-10T11:16:57Z</time>
      </trkpt>
      <trkpt lat="44.04225" lon="6.13566">
        <ele>508</ele>
        <time>2021-09-10T11:16:59Z</time>
      </trkpt>
      <trkpt lat="44.04212" lon="6.13574">
        <ele>507.5</ele>
        <time>2021-09-10T11:17:01Z</time>
      </trkpt>
      <trkpt lat="44.04206" lon="6.13577">
        <ele>507.3</ele>
        <time>2021-09-10T11:17:02Z</time>
      </trkpt>
      <trkpt lat="44.04192" lon="6.13581">
        <ele>506.9</ele>
        <time>2021-09-10T11:17:04Z</time>
      </trkpt>
      <trkpt lat="44.04185" lon="6.13583">
        <ele>506.8</ele>
        <time>2021-09-10T11:17:05Z</time>
      </trkpt>
      <trkpt lat="44.04179" lon="6.13586">
        <ele>506.7</ele>
        <time>2021-09-10T11:17:06Z</time>
      </trkpt>
      <trkpt lat="44.04168" lon="6.13591">
        <ele>506.5</ele>
        <time>2021-09-10T11:17:08Z</time>
      </trkpt>
      <trkpt lat="44.04157" lon="6.13596">
        <ele>506.4</ele>
        <time>2021-09-10T11:17:10Z</time>
      </trkpt>
      <trkpt lat="44.04152" lon="6.13598">
        <ele>506.4</ele>
        <time>2021-09-10T11:17:11Z</time>
      </trkpt>
      <trkpt lat="44.04146" lon="6.13599">
        <ele>506.3</ele>
        <time>2021-09-10T11:17:12Z</time>
      </trkpt>
      <trkpt lat="44.04141" lon="6.13601">
        <ele>506.3</ele>
        <time>2021-09-10T11:17:13Z</time>
      </trkpt>
      <trkpt lat="44.04138" lon="6.13606">
        <ele>506.2</ele>
        <time>2021-09-10T11:17:14Z</time>
      </trkpt>
      <trkpt lat="44.04131" lon="6.13614">
        <ele>506.2</ele>
        <time>2021-09-10T11:17:16Z</time>
      </trkpt>
      <trkpt lat="44.04126" lon="6.13617">
        <ele>506.2</ele>
        <time>2021-09-10T11:17:17Z</time>
      </trkpt>
      <trkpt lat="44.04122" lon="6.13619">
        <ele>506.2</ele>
        <time>2021-09-10T11:17:18Z</time>
      </trkpt>
      <trkpt lat="44.04115" lon="6.13623">
        <ele>506.2</ele>
        <time>2021-09-10T11:17:20Z</time>
      </trkpt>
      <trkpt lat="44.0411" lon="6.13626">
        <ele>506.2</ele>
        <time>2021-09-10T11:17:21Z</time>
      </trkpt>
      <trkpt lat="44.04101" lon="6.1363">
        <ele>506.2</ele>
        <time>2021-09-10T11:17:23Z</time>
      </trkpt>
      <trkpt lat="44.04091" lon="6.13632">
        <ele>506.2</ele>
        <time>2021-09-10T11:17:25Z</time>
      </trkpt>
      <trkpt lat="44.04087" lon="6.13633">
        <ele>506.2</ele>
        <time>2021-09-10T11:17:26Z</time>
      </trkpt>
      <trkpt lat="44.04083" lon="6.13635">
        <ele>506.2</ele>
        <time>2021-09-10T11:17:27Z</time>
      </trkpt>
      <trkpt lat="44.04078" lon="6.13635">
        <ele>506.2</ele>
        <time>2021-09-10T11:17:28Z</time>
      </trkpt>
      <trkpt lat="44.04077" lon="6.13635">
        <ele>506.2</ele>
        <time>2021-09-10T11:17:29Z</time>
      </trkpt>
      <trkpt lat="44.04073" lon="6.13633">
        <ele>506.2</ele>
        <time>2021-09-10T11:17:31Z</time>
      </trkpt>
      <trkpt lat="44.0407" lon="6.1363">
        <ele>506.2</ele>
        <time>2021-09-10T11:17:33Z</time>
      </trkpt>
      <trkpt lat="44.0407" lon="6.13626">
        <ele>506.2</ele>
        <time>2021-09-10T11:17:34Z</time>
      </trkpt>
      <trkpt lat="44.0407" lon="6.13621">
        <ele>506.2</ele>
        <time>2021-09-10T11:17:36Z</time>
      </trkpt>
      <trkpt lat="44.0407" lon="6.13617">
        <ele>506.1</ele>
        <time>2021-09-10T11:17:37Z</time>
      </trkpt>
      <trkpt lat="44.04069" lon="6.13608">
        <ele>506.1</ele>
        <time>2021-09-10T11:17:39Z</time>
      </trkpt>
      <trkpt lat="44.04067" lon="6.13603">
        <ele>506.1</ele>
        <time>2021-09-10T11:17:40Z</time>
      </trkpt>
      <trkpt lat="44.04065" lon="6.13601">
        <ele>506</ele>
        <time>2021-09-10T11:17:41Z</time>
      </trkpt>
      <trkpt lat="44.04062" lon="6.13599">
        <ele>506</ele>
        <time>2021-09-10T11:17:42Z</time>
      </trkpt>
      <trkpt lat="44.04059" lon="6.13599">
        <ele>506</ele>
        <time>2021-09-10T11:17:44Z</time>
      </trkpt>
      <trkpt lat="44.04057" lon="6.13601">
        <ele>506</ele>
        <time>2021-09-10T11:17:45Z</time>
      </trkpt>
      <trkpt lat="44.04056" lon="6.13602">
        <ele>506</ele>
        <time>2021-09-10T11:17:46Z</time>
      </trkpt>
      <trkpt lat="44.04053" lon="6.13604">
        <ele>506</ele>
        <time>2021-09-10T11:17:47Z</time>
      </trkpt>
      <trkpt lat="44.04051" lon="6.13609">
        <ele>506</ele>
        <time>2021-09-10T11:17:49Z</time>
      </trkpt>
      <trkpt lat="44.04047" lon="6.13614">
        <ele>506</ele>
        <time>2021-09-10T11:17:50Z</time>
      </trkpt>
      <trkpt lat="44.04045" lon="6.13618">
        <ele>506</ele>
        <time>2021-09-10T11:17:51Z</time>
      </trkpt>
      <trkpt lat="44.04043" lon="6.13622">
        <ele>506</ele>
        <time>2021-09-10T11:17:52Z</time>
      </trkpt>
      <trkpt lat="44.04039" lon="6.13627">
        <ele>506</ele>
        <time>2021-09-10T11:17:54Z</time>
      </trkpt>
      <trkpt lat="44.04032" lon="6.13636">
        <ele>505.9</ele>
        <time>2021-09-10T11:17:55Z</time>
      </trkpt>
      <trkpt lat="44.04028" lon="6.1364">
        <ele>505.9</ele>
        <time>2021-09-10T11:17:56Z</time>
      </trkpt>
      <trkpt lat="44.04024" lon="6.1364">
        <ele>505.8</ele>
        <time>2021-09-10T11:17:57Z</time>
      </trkpt>
      <trkpt lat="44.04017" lon="6.13643">
        <ele>505.8</ele>
        <time>2021-09-10T11:17:59Z</time>
      </trkpt>
      <trkpt lat="44.04012" lon="6.13646">
        <ele>505.8</ele>
        <time>2021-09-10T11:18:00Z</time>
      </trkpt>
      <trkpt lat="44.04007" lon="6.13647">
        <ele>505.7</ele>
        <time>2021-09-10T11:18:01Z</time>
      </trkpt>
      <trkpt lat="44.04" lon="6.1365">
        <ele>505.7</ele>
        <time>2021-09-10T11:18:02Z</time>
      </trkpt>
      <trkpt lat="44.03994" lon="6.13654">
        <ele>505.7</ele>
        <time>2021-09-10T11:18:04Z</time>
      </trkpt>
      <trkpt lat="44.03988" lon="6.13657">
        <ele>505.8</ele>
        <time>2021-09-10T11:18:05Z</time>
      </trkpt>
      <trkpt lat="44.03983" lon="6.13659">
        <ele>505.8</ele>
        <time>2021-09-10T11:18:06Z</time>
      </trkpt>
      <trkpt lat="44.03979" lon="6.13663">
        <ele>505.8</ele>
        <time>2021-09-10T11:18:08Z</time>
      </trkpt>
      <trkpt lat="44.03977" lon="6.13668">
        <ele>505.9</ele>
        <time>2021-09-10T11:18:09Z</time>
      </trkpt>
      <trkpt lat="44.03976" lon="6.13674">
        <ele>505.9</ele>
        <time>2021-09-10T11:18:10Z</time>
      </trkpt>
      <trkpt lat="44.03975" lon="6.13679">
        <ele>506.1</ele>
        <time>2021-09-10T11:18:11Z</time>
      </trkpt>
      <trkpt lat="44.03974" lon="6.1368">
        <ele>506.1</ele>
        <time>2021-09-10T11:18:12Z</time>
      </trkpt>
      <trkpt lat="44.03973" lon="6.13687">
        <ele>506.2</ele>
        <time>2021-09-10T11:18:14Z</time>
      </trkpt>
      <trkpt lat="44.03972" lon="6.13695">
        <ele>506.2</ele>
        <time>2021-09-10T11:18:16Z</time>
      </trkpt>
      <trkpt lat="44.03972" lon="6.13703">
        <ele>506.3</ele>
        <time>2021-09-10T11:18:18Z</time>
      </trkpt>
      <trkpt lat="44.03976" lon="6.13713">
        <ele>506.3</ele>
        <time>2021-09-10T11:18:19Z</time>
      </trkpt>
      <trkpt lat="44.0398" lon="6.13722">
        <ele>506.4</ele>
        <time>2021-09-10T11:18:21Z</time>
      </trkpt>
      <trkpt lat="44.03986" lon="6.13731">
        <ele>506.4</ele>
        <time>2021-09-10T11:18:22Z</time>
      </trkpt>
      <trkpt lat="44.03991" lon="6.13742">
        <ele>506.5</ele>
        <time>2021-09-10T11:18:24Z</time>
      </trkpt>
      <trkpt lat="44.03995" lon="6.13752">
        <ele>506.5</ele>
        <time>2021-09-10T11:18:25Z</time>
      </trkpt>
      <trkpt lat="44.03999" lon="6.13762">
        <ele>506.6</ele>
        <time>2021-09-10T11:18:27Z</time>
      </trkpt>
      <trkpt lat="44.04001" lon="6.13769">
        <ele>506.6</ele>
        <time>2021-09-10T11:18:28Z</time>
      </trkpt>
      <trkpt lat="44.04002" lon="6.13774">
        <ele>506.6</ele>
        <time>2021-09-10T11:18:29Z</time>
      </trkpt>
      <trkpt lat="44.04004" lon="6.13782">
        <ele>506.7</ele>
        <time>2021-09-10T11:18:30Z</time>
      </trkpt>
      <trkpt lat="44.04006" lon="6.13789">
        <ele>506.7</ele>
        <time>2021-09-10T11:18:31Z</time>
      </trkpt>
      <trkpt lat="44.04008" lon="6.13796">
        <ele>506.8</ele>
        <time>2021-09-10T11:18:32Z</time>
      </trkpt>
      <trkpt lat="44.04012" lon="6.13804">
        <ele>506.8</ele>
        <time>2021-09-10T11:18:34Z</time>
      </trkpt>
      <trkpt lat="44.04014" lon="6.13809">
        <ele>506.9</ele>
        <time>2021-09-10T11:18:35Z</time>
      </trkpt>
      <trkpt lat="44.04017" lon="6.13817">
        <ele>506.9</ele>
        <time>2021-09-10T11:18:37Z</time>
      </trkpt>
      <trkpt lat="44.04018" lon="6.13822">
        <ele>506.9</ele>
        <time>2021-09-10T11:18:38Z</time>
      </trkpt>
      <trkpt lat="44.04019" lon="6.13829">
        <ele>506.9</ele>
        <time>2021-09-10T11:18:40Z</time>
      </trkpt>
      <trkpt lat="44.04021" lon="6.13833">
        <ele>506.9</ele>
        <time>2021-09-10T11:18:41Z</time>
      </trkpt>
      <trkpt lat="44.04023" lon="6.1384">
        <ele>506.9</ele>
        <time>2021-09-10T11:18:42Z</time>
      </trkpt>
      <trkpt lat="44.04025" lon="6.13848">
        <ele>506.9</ele>
        <time>2021-09-10T11:18:44Z</time>
      </trkpt>
      <trkpt lat="44.04026" lon="6.13854">
        <ele>506.9</ele>
        <time>2021-09-10T11:18:45Z</time>
      </trkpt>
      <trkpt lat="44.04027" lon="6.13865">
        <ele>507</ele>
        <time>2021-09-10T11:18:47Z</time>
      </trkpt>
      <trkpt lat="44.04029" lon="6.13875">
        <ele>507.1</ele>
        <time>2021-09-10T11:18:48Z</time>
      </trkpt>
      <trkpt lat="44.04033" lon="6.13881">
        <ele>507.1</ele>
        <time>2021-09-10T11:18:50Z</time>
      </trkpt>
      <trkpt lat="44.04036" lon="6.13889">
        <ele>507.2</ele>
        <time>2021-09-10T11:18:52Z</time>
      </trkpt>
      <trkpt lat="44.04039" lon="6.13893">
        <ele>507.3</ele>
        <time>2021-09-10T11:18:53Z</time>
      </trkpt>
      <trkpt lat="44.04041" lon="6.13896">
        <ele>507.3</ele>
        <time>2021-09-10T11:18:54Z</time>
      </trkpt>
      <trkpt lat="44.04045" lon="6.13901">
        <ele>507.4</ele>
        <time>2021-09-10T11:18:55Z</time>
      </trkpt>
      <trkpt lat="44.04047" lon="6.13907">
        <ele>507.4</ele>
        <time>2021-09-10T11:18:57Z</time>
      </trkpt>
      <trkpt lat="44.04048" lon="6.13912">
        <ele>507.5</ele>
        <time>2021-09-10T11:18:58Z</time>
      </trkpt>
      <trkpt lat="44.04049" lon="6.13916">
        <ele>507.5</ele>
        <time>2021-09-10T11:18:59Z</time>
      </trkpt>
      <trkpt lat="44.0405" lon="6.13918">
        <ele>507.5</ele>
        <time>2021-09-10T11:19:00Z</time>
      </trkpt>
      <trkpt lat="44.04053" lon="6.13923">
        <ele>507.5</ele>
        <time>2021-09-10T11:19:02Z</time>
      </trkpt>
      <trkpt lat="44.04057" lon="6.13925">
        <ele>507.6</ele>
        <time>2021-09-10T11:19:03Z</time>
      </trkpt>
      <trkpt lat="44.04058" lon="6.13926">
        <ele>507.6</ele>
        <time>2021-09-10T11:19:04Z</time>
      </trkpt>
      <trkpt lat="44.04061" lon="6.13927">
        <ele>507.6</ele>
        <time>2021-09-10T11:19:05Z</time>
      </trkpt>
      <trkpt lat="44.04064" lon="6.13929">
        <ele>507.6</ele>
        <time>2021-09-10T11:19:06Z</time>
      </trkpt>
      <trkpt lat="44.0407" lon="6.13936">
        <ele>507.7</ele>
        <time>2021-09-10T11:19:08Z</time>
      </trkpt>
      <trkpt lat="44.04073" lon="6.13939">
        <ele>507.7</ele>
        <time>2021-09-10T11:19:09Z</time>
      </trkpt>
      <trkpt lat="44.04079" lon="6.13946">
        <ele>507.8</ele>
        <time>2021-09-10T11:19:11Z</time>
      </trkpt>
      <trkpt lat="44.04083" lon="6.13951">
        <ele>507.8</ele>
        <time>2021-09-10T11:19:12Z</time>
      </trkpt>
      <trkpt lat="44.04085" lon="6.13955">
        <ele>507.8</ele>
        <time>2021-09-10T11:19:14Z</time>
      </trkpt>
      <trkpt lat="44.04087" lon="6.13959">
        <ele>507.8</ele>
        <time>2021-09-10T11:19:16Z</time>
      </trkpt>
      <trkpt lat="44.04088" lon="6.1396">
        <ele>507.8</ele>
        <time>2021-09-10T11:19:17Z</time>
      </trkpt>
      <trkpt lat="44.04087" lon="6.13959">
        <ele>507.9</ele>
        <time>2021-09-10T11:19:18Z</time>
      </trkpt>
      <trkpt lat="44.04085" lon="6.13958">
        <ele>507.9</ele>
        <time>2021-09-10T11:19:19Z</time>
      </trkpt>
      <trkpt lat="44.04083" lon="6.13957">
        <ele>507.9</ele>
        <time>2021-09-10T11:19:21Z</time>
      </trkpt>
      <trkpt lat="44.04083" lon="6.13958">
        <ele>507.9</ele>
        <time>2021-09-10T11:19:22Z</time>
      </trkpt>
      <trkpt lat="44.04082" lon="6.1396">
        <ele>507.9</ele>
        <time>2021-09-10T11:19:23Z</time>
      </trkpt>
      <trkpt lat="44.0408" lon="6.13963">
        <ele>508</ele>
        <time>2021-09-10T11:19:25Z</time>
      </trkpt>
      <trkpt lat="44.04077" lon="6.13965">
        <ele>508</ele>
        <time>2021-09-10T11:19:27Z</time>
      </trkpt>
      <trkpt lat="44.04064" lon="6.13968">
        <ele>508.1</ele>
        <time>2021-09-10T11:19:33Z</time>
      </trkpt>
      <trkpt lat="44.04059" lon="6.1397">
        <ele>508.1</ele>
        <time>2021-09-10T11:19:34Z</time>
      </trkpt>
      <trkpt lat="44.04051" lon="6.13972">
        <ele>508.1</ele>
        <time>2021-09-10T11:19:36Z</time>
      </trkpt>
      <trkpt lat="44.04052" lon="6.13974">
        <ele>508.1</ele>
        <time>2021-09-10T11:19:38Z</time>
      </trkpt>
      <trkpt lat="44.04052" lon="6.13975">
        <ele>508.1</ele>
        <time>2021-09-10T11:19:39Z</time>
      </trkpt>
      <trkpt lat="44.04052" lon="6.13975">
        <ele>508.1</ele>
        <time>2021-09-10T11:19:40Z</time>
      </trkpt>
      <trkpt lat="44.04053" lon="6.13975">
        <ele>508.1</ele>
        <time>2021-09-10T11:19:42Z</time>
      </trkpt>
      <trkpt lat="44.04055" lon="6.13976">
        <ele>508.1</ele>
        <time>2021-09-10T11:19:44Z</time>
      </trkpt>
      <trkpt lat="44.04075" lon="6.13975">
        <ele>508</ele>
        <time>2021-09-10T11:20:09Z</time>
      </trkpt>
      <trkpt lat="44.04071" lon="6.13979">
        <ele>508</ele>
        <time>2021-09-10T11:20:11Z</time>
      </trkpt>
      <trkpt lat="44.04065" lon="6.13982">
        <ele>508</ele>
        <time>2021-09-10T11:20:13Z</time>
      </trkpt>
      <trkpt lat="44.04062" lon="6.13984">
        <ele>508.1</ele>
        <time>2021-09-10T11:20:14Z</time>
      </trkpt>
      <trkpt lat="44.04059" lon="6.13984">
        <ele>508.1</ele>
        <time>2021-09-10T11:20:15Z</time>
      </trkpt>
      <trkpt lat="44.04057" lon="6.13985">
        <ele>508.1</ele>
        <time>2021-09-10T11:20:16Z</time>
      </trkpt>
      <trkpt lat="44.04052" lon="6.13987">
        <ele>508.1</ele>
        <time>2021-09-10T11:20:18Z</time>
      </trkpt>
      <trkpt lat="44.04044" lon="6.13988">
        <ele>508.1</ele>
        <time>2021-09-10T11:20:20Z</time>
      </trkpt>
      <trkpt lat="44.04038" lon="6.13995">
        <ele>508.1</ele>
        <time>2021-09-10T11:20:22Z</time>
      </trkpt>
      <trkpt lat="44.04035" lon="6.13998">
        <ele>508.1</ele>
        <time>2021-09-10T11:20:23Z</time>
      </trkpt>
      <trkpt lat="44.04032" lon="6.13999">
        <ele>508.1</ele>
        <time>2021-09-10T11:20:24Z</time>
      </trkpt>
      <trkpt lat="44.04028" lon="6.14002">
        <ele>508.1</ele>
        <time>2021-09-10T11:20:26Z</time>
      </trkpt>
      <trkpt lat="44.04025" lon="6.14003">
        <ele>508.1</ele>
        <time>2021-09-10T11:20:27Z</time>
      </trkpt>
      <trkpt lat="44.04025" lon="6.14004">
        <ele>508.1</ele>
        <time>2021-09-10T11:20:28Z</time>
      </trkpt>
      <trkpt lat="44.04024" lon="6.14008">
        <ele>508.1</ele>
        <time>2021-09-10T11:20:29Z</time>
      </trkpt>
      <trkpt lat="44.04023" lon="6.14009">
        <ele>508.1</ele>
        <time>2021-09-10T11:20:30Z</time>
      </trkpt>
      <trkpt lat="44.04023" lon="6.14013">
        <ele>508.1</ele>
        <time>2021-09-10T11:20:31Z</time>
      </trkpt>
      <trkpt lat="44.04023" lon="6.14015">
        <ele>508.1</ele>
        <time>2021-09-10T11:20:32Z</time>
      </trkpt>
      <trkpt lat="44.04023" lon="6.14016">
        <ele>508.2</ele>
        <time>2021-09-10T11:20:33Z</time>
      </trkpt>
      <trkpt lat="44.04018" lon="6.14027">
        <ele>508.2</ele>
        <time>2021-09-10T11:20:35Z</time>
      </trkpt>
      <trkpt lat="44.04019" lon="6.14036">
        <ele>508.2</ele>
        <time>2021-09-10T11:20:37Z</time>
      </trkpt>
      <trkpt lat="44.04021" lon="6.14044">
        <ele>508.5</ele>
        <time>2021-09-10T11:20:38Z</time>
      </trkpt>
      <trkpt lat="44.04023" lon="6.14054">
        <ele>508.5</ele>
        <time>2021-09-10T11:20:39Z</time>
      </trkpt>
      <trkpt lat="44.04026" lon="6.1406">
        <ele>508.6</ele>
        <time>2021-09-10T11:20:41Z</time>
      </trkpt>
      <trkpt lat="44.0403" lon="6.14067">
        <ele>508.6</ele>
        <time>2021-09-10T11:20:42Z</time>
      </trkpt>
      <trkpt lat="44.04033" lon="6.14072">
        <ele>508.7</ele>
        <time>2021-09-10T11:20:44Z</time>
      </trkpt>
      <trkpt lat="44.04035" lon="6.14075">
        <ele>508.7</ele>
        <time>2021-09-10T11:20:45Z</time>
      </trkpt>
      <trkpt lat="44.04039" lon="6.14083">
        <ele>508.8</ele>
        <time>2021-09-10T11:20:46Z</time>
      </trkpt>
      <trkpt lat="44.04043" lon="6.14089">
        <ele>508.8</ele>
        <time>2021-09-10T11:20:47Z</time>
      </trkpt>
      <trkpt lat="44.04049" lon="6.14096">
        <ele>509</ele>
        <time>2021-09-10T11:20:49Z</time>
      </trkpt>
      <trkpt lat="44.04052" lon="6.14099">
        <ele>509.1</ele>
        <time>2021-09-10T11:20:50Z</time>
      </trkpt>
      <trkpt lat="44.04052" lon="6.141">
        <ele>509.1</ele>
        <time>2021-09-10T11:20:51Z</time>
      </trkpt>
      <trkpt lat="44.0405" lon="6.14099">
        <ele>509.1</ele>
        <time>2021-09-10T11:20:53Z</time>
      </trkpt>
      <trkpt lat="44.04047" lon="6.14097">
        <ele>509.2</ele>
        <time>2021-09-10T11:20:54Z</time>
      </trkpt>
      <trkpt lat="44.04047" lon="6.14097">
        <ele>509.2</ele>
        <time>2021-09-10T11:20:55Z</time>
      </trkpt>
      <trkpt lat="44.04046" lon="6.14096">
        <ele>509.2</ele>
        <time>2021-09-10T11:20:57Z</time>
      </trkpt>
      <trkpt lat="44.04045" lon="6.14096">
        <ele>509.2</ele>
        <time>2021-09-10T11:20:59Z</time>
      </trkpt>
      <trkpt lat="44.04045" lon="6.14096">
        <ele>509.2</ele>
        <time>2021-09-10T11:21:00Z</time>
      </trkpt>
      <trkpt lat="44.04045" lon="6.14096">
        <ele>509.2</ele>
        <time>2021-09-10T11:21:02Z</time>
      </trkpt>
      <trkpt lat="44.04064" lon="6.14128">
        <ele>509.9</ele>
        <time>2021-09-10T11:21:11Z</time>
      </trkpt>
      <trkpt lat="44.04066" lon="6.14135">
        <ele>510.1</ele>
        <time>2021-09-10T11:21:12Z</time>
      </trkpt>
      <trkpt lat="44.04068" lon="6.14143">
        <ele>510.4</ele>
        <time>2021-09-10T11:21:13Z</time>
      </trkpt>
      <trkpt lat="44.0407" lon="6.14149">
        <ele>510.6</ele>
        <time>2021-09-10T11:21:15Z</time>
      </trkpt>
      <trkpt lat="44.04074" lon="6.14159">
        <ele>511.1</ele>
        <time>2021-09-10T11:21:16Z</time>
      </trkpt>
      <trkpt lat="44.04075" lon="6.14163">
        <ele>511.3</ele>
        <time>2021-09-10T11:21:17Z</time>
      </trkpt>
      <trkpt lat="44.04074" lon="6.14167">
        <ele>511.5</ele>
        <time>2021-09-10T11:21:19Z</time>
      </trkpt>
      <trkpt lat="44.04072" lon="6.14172">
        <ele>511.8</ele>
        <time>2021-09-10T11:21:20Z</time>
      </trkpt>
      <trkpt lat="44.04071" lon="6.14175">
        <ele>512</ele>
        <time>2021-09-10T11:21:21Z</time>
      </trkpt>
      <trkpt lat="44.04066" lon="6.14181">
        <ele>512.4</ele>
        <time>2021-09-10T11:21:23Z</time>
      </trkpt>
      <trkpt lat="44.04064" lon="6.14185">
        <ele>513.2</ele>
        <time>2021-09-10T11:21:24Z</time>
      </trkpt>
      <trkpt lat="44.04061" lon="6.1419">
        <ele>513.2</ele>
        <time>2021-09-10T11:21:25Z</time>
      </trkpt>
      <trkpt lat="44.04058" lon="6.14193">
        <ele>513.2</ele>
        <time>2021-09-10T11:21:26Z</time>
      </trkpt>
      <trkpt lat="44.04054" lon="6.14198">
        <ele>513.2</ele>
        <time>2021-09-10T11:21:28Z</time>
      </trkpt>
      <trkpt lat="44.04051" lon="6.14201">
        <ele>513.3</ele>
        <time>2021-09-10T11:21:29Z</time>
      </trkpt>
      <trkpt lat="44.04047" lon="6.14207">
        <ele>513.4</ele>
        <time>2021-09-10T11:21:30Z</time>
      </trkpt>
      <trkpt lat="44.04044" lon="6.14213">
        <ele>513.4</ele>
        <time>2021-09-10T11:21:32Z</time>
      </trkpt>
      <trkpt lat="44.04041" lon="6.14221">
        <ele>513.5</ele>
        <time>2021-09-10T11:21:34Z</time>
      </trkpt>
      <trkpt lat="44.04038" lon="6.14224">
        <ele>513.6</ele>
        <time>2021-09-10T11:21:35Z</time>
      </trkpt>
      <trkpt lat="44.04037" lon="6.14225">
        <ele>513.6</ele>
        <time>2021-09-10T11:21:36Z</time>
      </trkpt>
      <trkpt lat="44.04035" lon="6.14226">
        <ele>513.6</ele>
        <time>2021-09-10T11:21:37Z</time>
      </trkpt>
      <trkpt lat="44.04036" lon="6.14228">
        <ele>513.6</ele>
        <time>2021-09-10T11:21:39Z</time>
      </trkpt>
      <trkpt lat="44.04036" lon="6.14228">
        <ele>513.6</ele>
        <time>2021-09-10T11:21:40Z</time>
      </trkpt>
      <trkpt lat="44.04036" lon="6.14228">
        <ele>513.6</ele>
        <time>2021-09-10T11:21:42Z</time>
      </trkpt>
      <trkpt lat="44.04036" lon="6.14228">
        <ele>513.6</ele>
        <time>2021-09-10T11:21:43Z</time>
      </trkpt>
      <trkpt lat="44.04036" lon="6.14228">
        <ele>513.6</ele>
        <time>2021-09-10T11:21:45Z</time>
      </trkpt>
      <trkpt lat="44.04036" lon="6.14228">
        <ele>513.6</ele>
        <time>2021-09-10T11:21:47Z</time>
      </trkpt>
      <trkpt lat="44.04024" lon="6.14254">
        <ele>513.8</ele>
        <time>2021-09-10T11:22:40Z</time>
      </trkpt>
      <trkpt lat="44.04022" lon="6.14256">
        <ele>513.8</ele>
        <time>2021-09-10T11:22:41Z</time>
      </trkpt>
      <trkpt lat="44.04015" lon="6.1426">
        <ele>513.8</ele>
        <time>2021-09-10T11:22:43Z</time>
      </trkpt>
      <trkpt lat="44.04009" lon="6.14264">
        <ele>513.8</ele>
        <time>2021-09-10T11:22:45Z</time>
      </trkpt>
      <trkpt lat="44.04004" lon="6.14267">
        <ele>513.8</ele>
        <time>2021-09-10T11:22:46Z</time>
      </trkpt>
      <trkpt lat="44.03999" lon="6.14271">
        <ele>513.8</ele>
        <time>2021-09-10T11:22:47Z</time>
      </trkpt>
      <trkpt lat="44.03995" lon="6.14274">
        <ele>513.8</ele>
        <time>2021-09-10T11:22:48Z</time>
      </trkpt>
      <trkpt lat="44.03992" lon="6.14278">
        <ele>513.8</ele>
        <time>2021-09-10T11:22:49Z</time>
      </trkpt>
      <trkpt lat="44.03989" lon="6.14282">
        <ele>513.7</ele>
        <time>2021-09-10T11:22:50Z</time>
      </trkpt>
      <trkpt lat="44.03984" lon="6.14287">
        <ele>513.7</ele>
        <time>2021-09-10T11:22:51Z</time>
      </trkpt>
      <trkpt lat="44.03978" lon="6.14293">
        <ele>513.6</ele>
        <time>2021-09-10T11:22:53Z</time>
      </trkpt>
      <trkpt lat="44.03975" lon="6.14299">
        <ele>513.6</ele>
        <time>2021-09-10T11:22:54Z</time>
      </trkpt>
      <trkpt lat="44.03969" lon="6.14309">
        <ele>513.5</ele>
        <time>2021-09-10T11:22:56Z</time>
      </trkpt>
      <trkpt lat="44.03961" lon="6.14322">
        <ele>513.4</ele>
        <time>2021-09-10T11:22:58Z</time>
      </trkpt>
      <trkpt lat="44.03952" lon="6.14332">
        <ele>513.3</ele>
        <time>2021-09-10T11:23:00Z</time>
      </trkpt>
      <trkpt lat="44.03943" lon="6.1434">
        <ele>513.2</ele>
        <time>2021-09-10T11:23:02Z</time>
      </trkpt>
      <trkpt lat="44.03935" lon="6.14348">
        <ele>513.1</ele>
        <time>2021-09-10T11:23:04Z</time>
      </trkpt>
      <trkpt lat="44.03929" lon="6.14355">
        <ele>513</ele>
        <time>2021-09-10T11:23:06Z</time>
      </trkpt>
      <trkpt lat="44.03926" lon="6.1436">
        <ele>513</ele>
        <time>2021-09-10T11:23:07Z</time>
      </trkpt>
      <trkpt lat="44.03925" lon="6.14366">
        <ele>513</ele>
        <time>2021-09-10T11:23:09Z</time>
      </trkpt>
      <trkpt lat="44.03926" lon="6.1437">
        <ele>512.9</ele>
        <time>2021-09-10T11:23:10Z</time>
      </trkpt>
      <trkpt lat="44.03928" lon="6.14376">
        <ele>512.8</ele>
        <time>2021-09-10T11:23:12Z</time>
      </trkpt>
      <trkpt lat="44.03929" lon="6.14382">
        <ele>512.8</ele>
        <time>2021-09-10T11:23:13Z</time>
      </trkpt>
      <trkpt lat="44.03931" lon="6.14387">
        <ele>512.8</ele>
        <time>2021-09-10T11:23:14Z</time>
      </trkpt>
      <trkpt lat="44.03939" lon="6.14401">
        <ele>512.3</ele>
        <time>2021-09-10T11:23:16Z</time>
      </trkpt>
      <trkpt lat="44.03942" lon="6.14407">
        <ele>512.1</ele>
        <time>2021-09-10T11:23:17Z</time>
      </trkpt>
      <trkpt lat="44.03945" lon="6.14414">
        <ele>512</ele>
        <time>2021-09-10T11:23:18Z</time>
      </trkpt>
      <trkpt lat="44.03954" lon="6.14425">
        <ele>511.9</ele>
        <time>2021-09-10T11:23:20Z</time>
      </trkpt>
      <trkpt lat="44.03958" lon="6.14431">
        <ele>511.8</ele>
        <time>2021-09-10T11:23:21Z</time>
      </trkpt>
      <trkpt lat="44.0397" lon="6.14441">
        <ele>511.6</ele>
        <time>2021-09-10T11:23:23Z</time>
      </trkpt>
      <trkpt lat="44.03975" lon="6.14447">
        <ele>511.5</ele>
        <time>2021-09-10T11:23:24Z</time>
      </trkpt>
      <trkpt lat="44.0398" lon="6.14452">
        <ele>511.5</ele>
        <time>2021-09-10T11:23:25Z</time>
      </trkpt>
      <trkpt lat="44.03987" lon="6.14459">
        <ele>511.4</ele>
        <time>2021-09-10T11:23:27Z</time>
      </trkpt>
      <trkpt lat="44.0399" lon="6.14462">
        <ele>511.4</ele>
        <time>2021-09-10T11:23:28Z</time>
      </trkpt>
      <trkpt lat="44.03994" lon="6.14465">
        <ele>511.5</ele>
        <time>2021-09-10T11:23:30Z</time>
      </trkpt>
      <trkpt lat="44.03997" lon="6.14466">
        <ele>511.5</ele>
        <time>2021-09-10T11:23:31Z</time>
      </trkpt>
      <trkpt lat="44.03999" lon="6.14466">
        <ele>511.5</ele>
        <time>2021-09-10T11:23:33Z</time>
      </trkpt>
      <trkpt lat="44.04" lon="6.14465">
        <ele>511.5</ele>
        <time>2021-09-10T11:23:34Z</time>
      </trkpt>
      <trkpt lat="44.04004" lon="6.14468">
        <ele>511.6</ele>
        <time>2021-09-10T11:23:36Z</time>
      </trkpt>
      <trkpt lat="44.04007" lon="6.14471">
        <ele>511.6</ele>
        <time>2021-09-10T11:23:37Z</time>
      </trkpt>
      <trkpt lat="44.04011" lon="6.14473">
        <ele>511.6</ele>
        <time>2021-09-10T11:23:38Z</time>
      </trkpt>
      <trkpt lat="44.04017" lon="6.14476">
        <ele>511.6</ele>
        <time>2021-09-10T11:23:39Z</time>
      </trkpt>
      <trkpt lat="44.04019" lon="6.14479">
        <ele>511.7</ele>
        <time>2021-09-10T11:23:41Z</time>
      </trkpt>
      <trkpt lat="44.04015" lon="6.14475">
        <ele>511.7</ele>
        <time>2021-09-10T11:23:42Z</time>
      </trkpt>
      <trkpt lat="44.04014" lon="6.14474">
        <ele>511.7</ele>
        <time>2021-09-10T11:23:44Z</time>
      </trkpt>
      <trkpt lat="44.04014" lon="6.14474">
        <ele>511.7</ele>
        <time>2021-09-10T11:23:45Z</time>
      </trkpt>
      <trkpt lat="44.04014" lon="6.14473">
        <ele>511.7</ele>
        <time>2021-09-10T11:23:46Z</time>
      </trkpt>
      <trkpt lat="44.04015" lon="6.14472">
        <ele>511.7</ele>
        <time>2021-09-10T11:23:47Z</time>
      </trkpt>
      <trkpt lat="44.04016" lon="6.14471">
        <ele>511.7</ele>
        <time>2021-09-10T11:23:48Z</time>
      </trkpt>
      <trkpt lat="44.04016" lon="6.1447">
        <ele>511.7</ele>
        <time>2021-09-10T11:23:50Z</time>
      </trkpt>
      <trkpt lat="44.04017" lon="6.14469">
        <ele>511.7</ele>
        <time>2021-09-10T11:23:51Z</time>
      </trkpt>
      <trkpt lat="44.04018" lon="6.14469">
        <ele>511.7</ele>
        <time>2021-09-10T11:23:52Z</time>
      </trkpt>
      <trkpt lat="44.04019" lon="6.14468">
        <ele>511.8</ele>
        <time>2021-09-10T11:23:53Z</time>
      </trkpt>
      <trkpt lat="44.0402" lon="6.14468">
        <ele>511.8</ele>
        <time>2021-09-10T11:23:54Z</time>
      </trkpt>
      <trkpt lat="44.04047" lon="6.14506">
        <ele>512</ele>
        <time>2021-09-10T11:24:06Z</time>
      </trkpt>
      <trkpt lat="44.0405" lon="6.14513">
        <ele>512.1</ele>
        <time>2021-09-10T11:24:08Z</time>
      </trkpt>
      <trkpt lat="44.04054" lon="6.14521">
        <ele>512.1</ele>
        <time>2021-09-10T11:24:09Z</time>
      </trkpt>
      <trkpt lat="44.04057" lon="6.14527">
        <ele>512.1</ele>
        <time>2021-09-10T11:24:10Z</time>
      </trkpt>
      <trkpt lat="44.04059" lon="6.14532">
        <ele>512.2</ele>
        <time>2021-09-10T11:24:12Z</time>
      </trkpt>
      <trkpt lat="44.04072" lon="6.14552">
        <ele>512.4</ele>
        <time>2021-09-10T11:24:13Z</time>
      </trkpt>
      <trkpt lat="44.04076" lon="6.14559">
        <ele>512.5</ele>
        <time>2021-09-10T11:24:15Z</time>
      </trkpt>
      <trkpt lat="44.04077" lon="6.14563">
        <ele>512.5</ele>
        <time>2021-09-10T11:24:16Z</time>
      </trkpt>
      <trkpt lat="44.0408" lon="6.14569">
        <ele>512.6</ele>
        <time>2021-09-10T11:24:17Z</time>
      </trkpt>
      <trkpt lat="44.04083" lon="6.14577">
        <ele>512.7</ele>
        <time>2021-09-10T11:24:19Z</time>
      </trkpt>
      <trkpt lat="44.04085" lon="6.14582">
        <ele>512.7</ele>
        <time>2021-09-10T11:24:20Z</time>
      </trkpt>
      <trkpt lat="44.04087" lon="6.14588">
        <ele>512.8</ele>
        <time>2021-09-10T11:24:21Z</time>
      </trkpt>
      <trkpt lat="44.04089" lon="6.14595">
        <ele>512.9</ele>
        <time>2021-09-10T11:24:22Z</time>
      </trkpt>
      <trkpt lat="44.04091" lon="6.14603">
        <ele>513</ele>
        <time>2021-09-10T11:24:24Z</time>
      </trkpt>
      <trkpt lat="44.04094" lon="6.14611">
        <ele>513</ele>
        <time>2021-09-10T11:24:26Z</time>
      </trkpt>
      <trkpt lat="44.04099" lon="6.1462">
        <ele>513.1</ele>
        <time>2021-09-10T11:24:27Z</time>
      </trkpt>
      <trkpt lat="44.04102" lon="6.14625">
        <ele>513.1</ele>
        <time>2021-09-10T11:24:28Z</time>
      </trkpt>
      <trkpt lat="44.04103" lon="6.14629">
        <ele>513.1</ele>
        <time>2021-09-10T11:24:29Z</time>
      </trkpt>
      <trkpt lat="44.04104" lon="6.14633">
        <ele>513.2</ele>
        <time>2021-09-10T11:24:31Z</time>
      </trkpt>
      <trkpt lat="44.04105" lon="6.14636">
        <ele>513.2</ele>
        <time>2021-09-10T11:24:32Z</time>
      </trkpt>
      <trkpt lat="44.04107" lon="6.14643">
        <ele>513.2</ele>
        <time>2021-09-10T11:24:34Z</time>
      </trkpt>
      <trkpt lat="44.04107" lon="6.14643">
        <ele>513.2</ele>
        <time>2021-09-10T11:24:34Z</time>
      </trkpt>
      <trkpt lat="44.04108" lon="6.1465">
        <ele>513.3</ele>
        <time>2021-09-10T11:24:36Z</time>
      </trkpt>
      <trkpt lat="44.0411" lon="6.14659">
        <ele>513.3</ele>
        <time>2021-09-10T11:24:38Z</time>
      </trkpt>
      <trkpt lat="44.04114" lon="6.14664">
        <ele>513.4</ele>
        <time>2021-09-10T11:24:39Z</time>
      </trkpt>
      <trkpt lat="44.04116" lon="6.14668">
        <ele>513.4</ele>
        <time>2021-09-10T11:24:40Z</time>
      </trkpt>
      <trkpt lat="44.04118" lon="6.14672">
        <ele>513.4</ele>
        <time>2021-09-10T11:24:41Z</time>
      </trkpt>
      <trkpt lat="44.04122" lon="6.14678">
        <ele>513.5</ele>
        <time>2021-09-10T11:24:43Z</time>
      </trkpt>
      <trkpt lat="44.04125" lon="6.14682">
        <ele>513.5</ele>
        <time>2021-09-10T11:24:44Z</time>
      </trkpt>
      <trkpt lat="44.04126" lon="6.14684">
        <ele>513.5</ele>
        <time>2021-09-10T11:24:45Z</time>
      </trkpt>
      <trkpt lat="44.04129" lon="6.14689">
        <ele>513.6</ele>
        <time>2021-09-10T11:24:46Z</time>
      </trkpt>
      <trkpt lat="44.04131" lon="6.14692">
        <ele>513.6</ele>
        <time>2021-09-10T11:24:48Z</time>
      </trkpt>
      <trkpt lat="44.04132" lon="6.14693">
        <ele>513.6</ele>
        <time>2021-09-10T11:24:49Z</time>
      </trkpt>
      <trkpt lat="44.04193" lon="6.14878">
        <ele>515.5</ele>
        <time>2021-09-10T11:25:25Z</time>
      </trkpt>
      <trkpt lat="44.04193" lon="6.14885">
        <ele>515.6</ele>
        <time>2021-09-10T11:25:27Z</time>
      </trkpt>
      <trkpt lat="44.04193" lon="6.14886">
        <ele>515.7</ele>
        <time>2021-09-10T11:25:29Z</time>
      </trkpt>
      <trkpt lat="44.04192" lon="6.14888">
        <ele>515.7</ele>
        <time>2021-09-10T11:25:30Z</time>
      </trkpt>
      <trkpt lat="44.04192" lon="6.14894">
        <ele>515.8</ele>
        <time>2021-09-10T11:25:32Z</time>
      </trkpt>
      <trkpt lat="44.04191" lon="6.14896">
        <ele>515.9</ele>
        <time>2021-09-10T11:25:33Z</time>
      </trkpt>
      <trkpt lat="44.04191" lon="6.14898">
        <ele>515.9</ele>
        <time>2021-09-10T11:25:34Z</time>
      </trkpt>
      <trkpt lat="44.04191" lon="6.149">
        <ele>516</ele>
        <time>2021-09-10T11:25:36Z</time>
      </trkpt>
      <trkpt lat="44.04189" lon="6.14902">
        <ele>516</ele>
        <time>2021-09-10T11:25:37Z</time>
      </trkpt>
      <trkpt lat="44.04186" lon="6.14907">
        <ele>516.2</ele>
        <time>2021-09-10T11:25:39Z</time>
      </trkpt>
      <trkpt lat="44.04182" lon="6.1491">
        <ele>516.3</ele>
        <time>2021-09-10T11:25:40Z</time>
      </trkpt>
      <trkpt lat="44.04177" lon="6.14914">
        <ele>516.6</ele>
        <time>2021-09-10T11:25:41Z</time>
      </trkpt>
      <trkpt lat="44.04172" lon="6.14919">
        <ele>516.8</ele>
        <time>2021-09-10T11:25:43Z</time>
      </trkpt>
      <trkpt lat="44.04169" lon="6.1492">
        <ele>516.9</ele>
        <time>2021-09-10T11:25:44Z</time>
      </trkpt>
      <trkpt lat="44.04166" lon="6.14922">
        <ele>517</ele>
        <time>2021-09-10T11:25:45Z</time>
      </trkpt>
      <trkpt lat="44.04163" lon="6.14927">
        <ele>517.2</ele>
        <time>2021-09-10T11:25:47Z</time>
      </trkpt>
      <trkpt lat="44.04161" lon="6.14932">
        <ele>517.4</ele>
        <time>2021-09-10T11:25:48Z</time>
      </trkpt>
      <trkpt lat="44.0416" lon="6.14935">
        <ele>517.5</ele>
        <time>2021-09-10T11:25:50Z</time>
      </trkpt>
      <trkpt lat="44.04156" lon="6.1494">
        <ele>517.7</ele>
        <time>2021-09-10T11:25:52Z</time>
      </trkpt>
      <trkpt lat="44.04152" lon="6.14943">
        <ele>517.8</ele>
        <time>2021-09-10T11:25:54Z</time>
      </trkpt>
      <trkpt lat="44.04149" lon="6.14945">
        <ele>517.9</ele>
        <time>2021-09-10T11:25:55Z</time>
      </trkpt>
      <trkpt lat="44.04147" lon="6.14948">
        <ele>518</ele>
        <time>2021-09-10T11:25:56Z</time>
      </trkpt>
      <trkpt lat="44.04145" lon="6.14953">
        <ele>518.1</ele>
        <time>2021-09-10T11:25:57Z</time>
      </trkpt>
      <trkpt lat="44.04144" lon="6.14956">
        <ele>518.2</ele>
        <time>2021-09-10T11:25:58Z</time>
      </trkpt>
      <trkpt lat="44.04143" lon="6.1496">
        <ele>518.3</ele>
        <time>2021-09-10T11:26:00Z</time>
      </trkpt>
      <trkpt lat="44.04141" lon="6.14963">
        <ele>518.3</ele>
        <time>2021-09-10T11:26:01Z</time>
      </trkpt>
      <trkpt lat="44.04139" lon="6.14966">
        <ele>518.4</ele>
        <time>2021-09-10T11:26:02Z</time>
      </trkpt>
      <trkpt lat="44.04136" lon="6.1497">
        <ele>518.5</ele>
        <time>2021-09-10T11:26:03Z</time>
      </trkpt>
      <trkpt lat="44.04133" lon="6.14974">
        <ele>518.6</ele>
        <time>2021-09-10T11:26:05Z</time>
      </trkpt>
      <trkpt lat="44.04132" lon="6.14977">
        <ele>518.7</ele>
        <time>2021-09-10T11:26:06Z</time>
      </trkpt>
      <trkpt lat="44.04127" lon="6.14981">
        <ele>518.9</ele>
        <time>2021-09-10T11:26:08Z</time>
      </trkpt>
      <trkpt lat="44.04122" lon="6.14984">
        <ele>519.1</ele>
        <time>2021-09-10T11:26:10Z</time>
      </trkpt>
      <trkpt lat="44.04121" lon="6.14986">
        <ele>519.1</ele>
        <time>2021-09-10T11:26:11Z</time>
      </trkpt>
      <trkpt lat="44.0412" lon="6.14987">
        <ele>519.2</ele>
        <time>2021-09-10T11:26:12Z</time>
      </trkpt>
      <trkpt lat="44.0412" lon="6.14988">
        <ele>519.2</ele>
        <time>2021-09-10T11:26:13Z</time>
      </trkpt>
      <trkpt lat="44.04118" lon="6.1499">
        <ele>519.3</ele>
        <time>2021-09-10T11:26:14Z</time>
      </trkpt>
      <trkpt lat="44.04117" lon="6.14992">
        <ele>519.3</ele>
        <time>2021-09-10T11:26:15Z</time>
      </trkpt>
      <trkpt lat="44.04113" lon="6.14996">
        <ele>519.5</ele>
        <time>2021-09-10T11:26:17Z</time>
      </trkpt>
      <trkpt lat="44.04112" lon="6.14997">
        <ele>519.6</ele>
        <time>2021-09-10T11:26:18Z</time>
      </trkpt>
      <trkpt lat="44.0411" lon="6.14998">
        <ele>519.6</ele>
        <time>2021-09-10T11:26:19Z</time>
      </trkpt>
      <trkpt lat="44.04108" lon="6.15">
        <ele>519.7</ele>
        <time>2021-09-10T11:26:20Z</time>
      </trkpt>
      <trkpt lat="44.04106" lon="6.15001">
        <ele>519.8</ele>
        <time>2021-09-10T11:26:22Z</time>
      </trkpt>
      <trkpt lat="44.04105" lon="6.15002">
        <ele>519.9</ele>
        <time>2021-09-10T11:26:23Z</time>
      </trkpt>
      <trkpt lat="44.04103" lon="6.15002">
        <ele>519.9</ele>
        <time>2021-09-10T11:26:24Z</time>
      </trkpt>
      <trkpt lat="44.04102" lon="6.15002">
        <ele>520</ele>
        <time>2021-09-10T11:26:25Z</time>
      </trkpt>
      <trkpt lat="44.04098" lon="6.15003">
        <ele>520.1</ele>
        <time>2021-09-10T11:26:27Z</time>
      </trkpt>
      <trkpt lat="44.04094" lon="6.15004">
        <ele>520.2</ele>
        <time>2021-09-10T11:26:28Z</time>
      </trkpt>
      <trkpt lat="44.04093" lon="6.15005">
        <ele>520.2</ele>
        <time>2021-09-10T11:26:29Z</time>
      </trkpt>
      <trkpt lat="44.0409" lon="6.15006">
        <ele>520.3</ele>
        <time>2021-09-10T11:26:30Z</time>
      </trkpt>
      <trkpt lat="44.04088" lon="6.15007">
        <ele>520.4</ele>
        <time>2021-09-10T11:26:31Z</time>
      </trkpt>
      <trkpt lat="44.04083" lon="6.15009">
        <ele>520.5</ele>
        <time>2021-09-10T11:26:32Z</time>
      </trkpt>
      <trkpt lat="44.04081" lon="6.1501">
        <ele>520.5</ele>
        <time>2021-09-10T11:26:33Z</time>
      </trkpt>
      <trkpt lat="44.04078" lon="6.15014">
        <ele>520.6</ele>
        <time>2021-09-10T11:26:35Z</time>
      </trkpt>
      <trkpt lat="44.04077" lon="6.15016">
        <ele>520.6</ele>
        <time>2021-09-10T11:26:36Z</time>
      </trkpt>
      <trkpt lat="44.04075" lon="6.15017">
        <ele>520.7</ele>
        <time>2021-09-10T11:26:37Z</time>
      </trkpt>
      <trkpt lat="44.04071" lon="6.15018">
        <ele>520.7</ele>
        <time>2021-09-10T11:26:39Z</time>
      </trkpt>
      <trkpt lat="44.04066" lon="6.15019">
        <ele>520.8</ele>
        <time>2021-09-10T11:26:40Z</time>
      </trkpt>
      <trkpt lat="44.04063" lon="6.15021">
        <ele>520.9</ele>
        <time>2021-09-10T11:26:41Z</time>
      </trkpt>
      <trkpt lat="44.04059" lon="6.15024">
        <ele>521</ele>
        <time>2021-09-10T11:26:43Z</time>
      </trkpt>
      <trkpt lat="44.04056" lon="6.15026">
        <ele>521.1</ele>
        <time>2021-09-10T11:26:44Z</time>
      </trkpt>
      <trkpt lat="44.04053" lon="6.15028">
        <ele>521.2</ele>
        <time>2021-09-10T11:26:45Z</time>
      </trkpt>
      <trkpt lat="44.04048" lon="6.15031">
        <ele>521.3</ele>
        <time>2021-09-10T11:26:47Z</time>
      </trkpt>
      <trkpt lat="44.04045" lon="6.15033">
        <ele>521.4</ele>
        <time>2021-09-10T11:26:48Z</time>
      </trkpt>
      <trkpt lat="44.04042" lon="6.15034">
        <ele>521.5</ele>
        <time>2021-09-10T11:26:49Z</time>
      </trkpt>
      <trkpt lat="44.04038" lon="6.15036">
        <ele>521.6</ele>
        <time>2021-09-10T11:26:50Z</time>
      </trkpt>
      <trkpt lat="44.04036" lon="6.15038">
        <ele>521.7</ele>
        <time>2021-09-10T11:26:52Z</time>
      </trkpt>
      <trkpt lat="44.04033" lon="6.15041">
        <ele>521.8</ele>
        <time>2021-09-10T11:26:53Z</time>
      </trkpt>
      <trkpt lat="44.0403" lon="6.15043">
        <ele>521.9</ele>
        <time>2021-09-10T11:26:54Z</time>
      </trkpt>
      <trkpt lat="44.04029" lon="6.15044">
        <ele>521.9</ele>
        <time>2021-09-10T11:26:55Z</time>
      </trkpt>
      <trkpt lat="44.04027" lon="6.15047">
        <ele>522</ele>
        <time>2021-09-10T11:26:57Z</time>
      </trkpt>
      <trkpt lat="44.04023" lon="6.15049">
        <ele>522.1</ele>
        <time>2021-09-10T11:26:59Z</time>
      </trkpt>
      <trkpt lat="44.0402" lon="6.15049">
        <ele>522.2</ele>
        <time>2021-09-10T11:27:00Z</time>
      </trkpt>
      <trkpt lat="44.04017" lon="6.15052">
        <ele>522.3</ele>
        <time>2021-09-10T11:27:02Z</time>
      </trkpt>
      <trkpt lat="44.04016" lon="6.15053">
        <ele>522.3</ele>
        <time>2021-09-10T11:27:03Z</time>
      </trkpt>
      <trkpt lat="44.04012" lon="6.15057">
        <ele>522.5</ele>
        <time>2021-09-10T11:27:05Z</time>
      </trkpt>
      <trkpt lat="44.0401" lon="6.15058">
        <ele>522.5</ele>
        <time>2021-09-10T11:27:06Z</time>
      </trkpt>
      <trkpt lat="44.04008" lon="6.1506">
        <ele>522.6</ele>
        <time>2021-09-10T11:27:07Z</time>
      </trkpt>
      <trkpt lat="44.04005" lon="6.15063">
        <ele>522.7</ele>
        <time>2021-09-10T11:27:08Z</time>
      </trkpt>
      <trkpt lat="44.04001" lon="6.15068">
        <ele>522.9</ele>
        <time>2021-09-10T11:27:10Z</time>
      </trkpt>
      <trkpt lat="44.03997" lon="6.15072">
        <ele>523.1</ele>
        <time>2021-09-10T11:27:11Z</time>
      </trkpt>
      <trkpt lat="44.03993" lon="6.15075">
        <ele>523.3</ele>
        <time>2021-09-10T11:27:13Z</time>
      </trkpt>
      <trkpt lat="44.0399" lon="6.15076">
        <ele>523.4</ele>
        <time>2021-09-10T11:27:14Z</time>
      </trkpt>
      <trkpt lat="44.03986" lon="6.15079">
        <ele>523.7</ele>
        <time>2021-09-10T11:27:16Z</time>
      </trkpt>
      <trkpt lat="44.03982" lon="6.15084">
        <ele>524.1</ele>
        <time>2021-09-10T11:27:18Z</time>
      </trkpt>
      <trkpt lat="44.03978" lon="6.15086">
        <ele>524.4</ele>
        <time>2021-09-10T11:27:19Z</time>
      </trkpt>
      <trkpt lat="44.03977" lon="6.15087">
        <ele>524.5</ele>
        <time>2021-09-10T11:27:20Z</time>
      </trkpt>
      <trkpt lat="44.03975" lon="6.15088">
        <ele>524.7</ele>
        <time>2021-09-10T11:27:22Z</time>
      </trkpt>
      <trkpt lat="44.03974" lon="6.15088">
        <ele>524.8</ele>
        <time>2021-09-10T11:27:23Z</time>
      </trkpt>
      <trkpt lat="44.03973" lon="6.15088">
        <ele>524.8</ele>
        <time>2021-09-10T11:27:24Z</time>
      </trkpt>
      <trkpt lat="44.0397" lon="6.15087">
        <ele>525.1</ele>
        <time>2021-09-10T11:27:25Z</time>
      </trkpt>
      <trkpt lat="44.03969" lon="6.15086">
        <ele>525.2</ele>
        <time>2021-09-10T11:27:26Z</time>
      </trkpt>
      <trkpt lat="44.03967" lon="6.15087">
        <ele>525.4</ele>
        <time>2021-09-10T11:27:28Z</time>
      </trkpt>
      <trkpt lat="44.03966" lon="6.15087">
        <ele>525.5</ele>
        <time>2021-09-10T11:27:29Z</time>
      </trkpt>
      <trkpt lat="44.03967" lon="6.15088">
        <ele>525.6</ele>
        <time>2021-09-10T11:27:30Z</time>
      </trkpt>
      <trkpt lat="44.03966" lon="6.15088">
        <ele>525.7</ele>
        <time>2021-09-10T11:27:31Z</time>
      </trkpt>
      <trkpt lat="44.03964" lon="6.15087">
        <ele>525.8</ele>
        <time>2021-09-10T11:27:33Z</time>
      </trkpt>
      <trkpt lat="44.03963" lon="6.15088">
        <ele>525.9</ele>
        <time>2021-09-10T11:27:34Z</time>
      </trkpt>
      <trkpt lat="44.03962" lon="6.1509">
        <ele>526.1</ele>
        <time>2021-09-10T11:27:35Z</time>
      </trkpt>
      <trkpt lat="44.0396" lon="6.15093">
        <ele>526.3</ele>
        <time>2021-09-10T11:27:37Z</time>
      </trkpt>
      <trkpt lat="44.03959" lon="6.15095">
        <ele>526.4</ele>
        <time>2021-09-10T11:27:38Z</time>
      </trkpt>
      <trkpt lat="44.03958" lon="6.15099">
        <ele>526.8</ele>
        <time>2021-09-10T11:27:40Z</time>
      </trkpt>
      <trkpt lat="44.03957" lon="6.15104">
        <ele>527</ele>
        <time>2021-09-10T11:27:41Z</time>
      </trkpt>
      <trkpt lat="44.03956" lon="6.15105">
        <ele>527.1</ele>
        <time>2021-09-10T11:27:42Z</time>
      </trkpt>
      <trkpt lat="44.03954" lon="6.15111">
        <ele>527.1</ele>
        <time>2021-09-10T11:27:44Z</time>
      </trkpt>
      <trkpt lat="44.03953" lon="6.15113">
        <ele>527.1</ele>
        <time>2021-09-10T11:27:45Z</time>
      </trkpt>
      <trkpt lat="44.03951" lon="6.15119">
        <ele>527.1</ele>
        <time>2021-09-10T11:27:47Z</time>
      </trkpt>
      <trkpt lat="44.03948" lon="6.15123">
        <ele>527.1</ele>
        <time>2021-09-10T11:27:48Z</time>
      </trkpt>
      <trkpt lat="44.03948" lon="6.15125">
        <ele>527.1</ele>
        <time>2021-09-10T11:27:49Z</time>
      </trkpt>
      <trkpt lat="44.03947" lon="6.1513">
        <ele>527.1</ele>
        <time>2021-09-10T11:27:50Z</time>
      </trkpt>
      <trkpt lat="44.03947" lon="6.15136">
        <ele>527.1</ele>
        <time>2021-09-10T11:27:51Z</time>
      </trkpt>
      <trkpt lat="44.03946" lon="6.15142">
        <ele>527.1</ele>
        <time>2021-09-10T11:27:52Z</time>
      </trkpt>
      <trkpt lat="44.03946" lon="6.15145">
        <ele>527.1</ele>
        <time>2021-09-10T11:27:54Z</time>
      </trkpt>
      <trkpt lat="44.03946" lon="6.15146">
        <ele>527.1</ele>
        <time>2021-09-10T11:27:55Z</time>
      </trkpt>
      <trkpt lat="44.03944" lon="6.1515">
        <ele>527.1</ele>
        <time>2021-09-10T11:27:56Z</time>
      </trkpt>
      <trkpt lat="44.03941" lon="6.15153">
        <ele>527</ele>
        <time>2021-09-10T11:27:57Z</time>
      </trkpt>
      <trkpt lat="44.03939" lon="6.15155">
        <ele>527</ele>
        <time>2021-09-10T11:27:58Z</time>
      </trkpt>
      <trkpt lat="44.03938" lon="6.15155">
        <ele>527</ele>
        <time>2021-09-10T11:28:00Z</time>
      </trkpt>
      <trkpt lat="44.03937" lon="6.15155">
        <ele>527</ele>
        <time>2021-09-10T11:28:01Z</time>
      </trkpt>
      <trkpt lat="44.03936" lon="6.15154">
        <ele>527</ele>
        <time>2021-09-10T11:28:03Z</time>
      </trkpt>
      <trkpt lat="44.03936" lon="6.15153">
        <ele>527</ele>
        <time>2021-09-10T11:28:05Z</time>
      </trkpt>
      <trkpt lat="44.03936" lon="6.15153">
        <ele>527</ele>
        <time>2021-09-10T11:28:06Z</time>
      </trkpt>
      <trkpt lat="44.03936" lon="6.15153">
        <ele>527</ele>
        <time>2021-09-10T11:28:08Z</time>
      </trkpt>
      <trkpt lat="44.03942" lon="6.15142">
        <ele>527</ele>
        <time>2021-09-10T11:30:05Z</time>
      </trkpt>
      <trkpt lat="44.03948" lon="6.1515">
        <ele>527.1</ele>
        <time>2021-09-10T11:30:07Z</time>
      </trkpt>
      <trkpt lat="44.03952" lon="6.15153">
        <ele>527.2</ele>
        <time>2021-09-10T11:30:08Z</time>
      </trkpt>
      <trkpt lat="44.03956" lon="6.15158">
        <ele>527.3</ele>
        <time>2021-09-10T11:30:09Z</time>
      </trkpt>
      <trkpt lat="44.0396" lon="6.15165">
        <ele>527.4</ele>
        <time>2021-09-10T11:30:11Z</time>
      </trkpt>
      <trkpt lat="44.03962" lon="6.1517">
        <ele>527.4</ele>
        <time>2021-09-10T11:30:12Z</time>
      </trkpt>
      <trkpt lat="44.03965" lon="6.15178">
        <ele>527.5</ele>
        <time>2021-09-10T11:30:14Z</time>
      </trkpt>
      <trkpt lat="44.03969" lon="6.15187">
        <ele>527.5</ele>
        <time>2021-09-10T11:30:16Z</time>
      </trkpt>
      <trkpt lat="44.03971" lon="6.15193">
        <ele>527.5</ele>
        <time>2021-09-10T11:30:17Z</time>
      </trkpt>
      <trkpt lat="44.03972" lon="6.15197">
        <ele>527.4</ele>
        <time>2021-09-10T11:30:18Z</time>
      </trkpt>
      <trkpt lat="44.03974" lon="6.15205">
        <ele>527.4</ele>
        <time>2021-09-10T11:30:20Z</time>
      </trkpt>
      <trkpt lat="44.03976" lon="6.15214">
        <ele>527.3</ele>
        <time>2021-09-10T11:30:21Z</time>
      </trkpt>
      <trkpt lat="44.03979" lon="6.15224">
        <ele>527.3</ele>
        <time>2021-09-10T11:30:23Z</time>
      </trkpt>
      <trkpt lat="44.03982" lon="6.15231">
        <ele>527.2</ele>
        <time>2021-09-10T11:30:24Z</time>
      </trkpt>
      <trkpt lat="44.03986" lon="6.15244">
        <ele>527.1</ele>
        <time>2021-09-10T11:30:26Z</time>
      </trkpt>
      <trkpt lat="44.03987" lon="6.15256">
        <ele>527</ele>
        <time>2021-09-10T11:30:28Z</time>
      </trkpt>
      <trkpt lat="44.03988" lon="6.15262">
        <ele>527</ele>
        <time>2021-09-10T11:30:29Z</time>
      </trkpt>
      <trkpt lat="44.0399" lon="6.15271">
        <ele>526.9</ele>
        <time>2021-09-10T11:30:30Z</time>
      </trkpt>
      <trkpt lat="44.03991" lon="6.15279">
        <ele>526.9</ele>
        <time>2021-09-10T11:30:31Z</time>
      </trkpt>
      <trkpt lat="44.03992" lon="6.15287">
        <ele>526.8</ele>
        <time>2021-09-10T11:30:32Z</time>
      </trkpt>
      <trkpt lat="44.03993" lon="6.15297">
        <ele>526.8</ele>
        <time>2021-09-10T11:30:33Z</time>
      </trkpt>
      <trkpt lat="44.03994" lon="6.15305">
        <ele>526.8</ele>
        <time>2021-09-10T11:30:35Z</time>
      </trkpt>
      <trkpt lat="44.03993" lon="6.15311">
        <ele>526.8</ele>
        <time>2021-09-10T11:30:36Z</time>
      </trkpt>
      <trkpt lat="44.03992" lon="6.1532">
        <ele>526.8</ele>
        <time>2021-09-10T11:30:37Z</time>
      </trkpt>
      <trkpt lat="44.03991" lon="6.15327">
        <ele>526.8</ele>
        <time>2021-09-10T11:30:39Z</time>
      </trkpt>
      <trkpt lat="44.03991" lon="6.15331">
        <ele>526.8</ele>
        <time>2021-09-10T11:30:40Z</time>
      </trkpt>
      <trkpt lat="44.0399" lon="6.15336">
        <ele>526.8</ele>
        <time>2021-09-10T11:30:41Z</time>
      </trkpt>
      <trkpt lat="44.0399" lon="6.15342">
        <ele>526.8</ele>
        <time>2021-09-10T11:30:42Z</time>
      </trkpt>
      <trkpt lat="44.03991" lon="6.15349">
        <ele>526.9</ele>
        <time>2021-09-10T11:30:43Z</time>
      </trkpt>
      <trkpt lat="44.03991" lon="6.15355">
        <ele>526.9</ele>
        <time>2021-09-10T11:30:44Z</time>
      </trkpt>
      <trkpt lat="44.03992" lon="6.15365">
        <ele>526.9</ele>
        <time>2021-09-10T11:30:46Z</time>
      </trkpt>
      <trkpt lat="44.03993" lon="6.15371">
        <ele>526.9</ele>
        <time>2021-09-10T11:30:47Z</time>
      </trkpt>
      <trkpt lat="44.03993" lon="6.15375">
        <ele>526.9</ele>
        <time>2021-09-10T11:30:49Z</time>
      </trkpt>
      <trkpt lat="44.03994" lon="6.15379">
        <ele>526.8</ele>
        <time>2021-09-10T11:30:50Z</time>
      </trkpt>
      <trkpt lat="44.03995" lon="6.15387">
        <ele>526.8</ele>
        <time>2021-09-10T11:30:52Z</time>
      </trkpt>
      <trkpt lat="44.03996" lon="6.15392">
        <ele>526.8</ele>
        <time>2021-09-10T11:30:53Z</time>
      </trkpt>
      <trkpt lat="44.03997" lon="6.15396">
        <ele>526.7</ele>
        <time>2021-09-10T11:30:54Z</time>
      </trkpt>
      <trkpt lat="44.04004" lon="6.1542">
        <ele>526.6</ele>
        <time>2021-09-10T11:30:56Z</time>
      </trkpt>
      <trkpt lat="44.04011" lon="6.15448">
        <ele>526.6</ele>
        <time>2021-09-10T11:30:58Z</time>
      </trkpt>
      <trkpt lat="44.04017" lon="6.15478">
        <ele>526.7</ele>
        <time>2021-09-10T11:31:00Z</time>
      </trkpt>
      <trkpt lat="44.04018" lon="6.15484">
        <ele>526.8</ele>
        <time>2021-09-10T11:31:01Z</time>
      </trkpt>
      <trkpt lat="44.04018" lon="6.15487">
        <ele>526.8</ele>
        <time>2021-09-10T11:31:02Z</time>
      </trkpt>
      <trkpt lat="44.0402" lon="6.15497">
        <ele>526.9</ele>
        <time>2021-09-10T11:31:04Z</time>
      </trkpt>
      <trkpt lat="44.04025" lon="6.15508">
        <ele>527</ele>
        <time>2021-09-10T11:31:06Z</time>
      </trkpt>
      <trkpt lat="44.04026" lon="6.15513">
        <ele>527</ele>
        <time>2021-09-10T11:31:07Z</time>
      </trkpt>
      <trkpt lat="44.04028" lon="6.15522">
        <ele>527.1</ele>
        <time>2021-09-10T11:31:08Z</time>
      </trkpt>
      <trkpt lat="44.0403" lon="6.15527">
        <ele>527.1</ele>
        <time>2021-09-10T11:31:09Z</time>
      </trkpt>
      <trkpt lat="44.04033" lon="6.15532">
        <ele>527.2</ele>
        <time>2021-09-10T11:31:11Z</time>
      </trkpt>
      <trkpt lat="44.04035" lon="6.15536">
        <ele>527.2</ele>
        <time>2021-09-10T11:31:12Z</time>
      </trkpt>
      <trkpt lat="44.04037" lon="6.15539">
        <ele>527.3</ele>
        <time>2021-09-10T11:31:13Z</time>
      </trkpt>
      <trkpt lat="44.04038" lon="6.15542">
        <ele>527.3</ele>
        <time>2021-09-10T11:31:14Z</time>
      </trkpt>
      <trkpt lat="44.0404" lon="6.15544">
        <ele>527.4</ele>
        <time>2021-09-10T11:31:16Z</time>
      </trkpt>
      <trkpt lat="44.04042" lon="6.15545">
        <ele>527.4</ele>
        <time>2021-09-10T11:31:17Z</time>
      </trkpt>
      <trkpt lat="44.04046" lon="6.15548">
        <ele>527.5</ele>
        <time>2021-09-10T11:31:19Z</time>
      </trkpt>
      <trkpt lat="44.04048" lon="6.15552">
        <ele>527.5</ele>
        <time>2021-09-10T11:31:20Z</time>
      </trkpt>
      <trkpt lat="44.04049" lon="6.15553">
        <ele>527.5</ele>
        <time>2021-09-10T11:31:21Z</time>
      </trkpt>
      <trkpt lat="44.0405" lon="6.15558">
        <ele>527.6</ele>
        <time>2021-09-10T11:31:22Z</time>
      </trkpt>
      <trkpt lat="44.0405" lon="6.1556">
        <ele>527.6</ele>
        <time>2021-09-10T11:31:23Z</time>
      </trkpt>
      <trkpt lat="44.04052" lon="6.15564">
        <ele>527.7</ele>
        <time>2021-09-10T11:31:24Z</time>
      </trkpt>
      <trkpt lat="44.04055" lon="6.15573">
        <ele>527.8</ele>
        <time>2021-09-10T11:31:26Z</time>
      </trkpt>
      <trkpt lat="44.04059" lon="6.15582">
        <ele>528</ele>
        <time>2021-09-10T11:31:27Z</time>
      </trkpt>
      <trkpt lat="44.04062" lon="6.15591">
        <ele>528.1</ele>
        <time>2021-09-10T11:31:29Z</time>
      </trkpt>
      <trkpt lat="44.04064" lon="6.15597">
        <ele>528.1</ele>
        <time>2021-09-10T11:31:30Z</time>
      </trkpt>
      <trkpt lat="44.04066" lon="6.156">
        <ele>528.1</ele>
        <time>2021-09-10T11:31:31Z</time>
      </trkpt>
      <trkpt lat="44.04069" lon="6.15605">
        <ele>528.2</ele>
        <time>2021-09-10T11:31:33Z</time>
      </trkpt>
      <trkpt lat="44.04071" lon="6.15609">
        <ele>528.2</ele>
        <time>2021-09-10T11:31:34Z</time>
      </trkpt>
      <trkpt lat="44.04073" lon="6.15614">
        <ele>528.2</ele>
        <time>2021-09-10T11:31:35Z</time>
      </trkpt>
      <trkpt lat="44.04076" lon="6.15621">
        <ele>528.2</ele>
        <time>2021-09-10T11:31:36Z</time>
      </trkpt>
      <trkpt lat="44.0408" lon="6.15628">
        <ele>528.2</ele>
        <time>2021-09-10T11:31:37Z</time>
      </trkpt>
      <trkpt lat="44.04086" lon="6.15638">
        <ele>528.3</ele>
        <time>2021-09-10T11:31:39Z</time>
      </trkpt>
      <trkpt lat="44.04091" lon="6.15645">
        <ele>528.4</ele>
        <time>2021-09-10T11:31:40Z</time>
      </trkpt>
      <trkpt lat="44.04095" lon="6.15651">
        <ele>528.4</ele>
        <time>2021-09-10T11:31:42Z</time>
      </trkpt>
      <trkpt lat="44.04098" lon="6.15656">
        <ele>528.5</ele>
        <time>2021-09-10T11:31:43Z</time>
      </trkpt>
      <trkpt lat="44.041" lon="6.1566">
        <ele>528.6</ele>
        <time>2021-09-10T11:31:44Z</time>
      </trkpt>
      <trkpt lat="44.04103" lon="6.15665">
        <ele>528.6</ele>
        <time>2021-09-10T11:31:45Z</time>
      </trkpt>
      <trkpt lat="44.04106" lon="6.15671">
        <ele>528.7</ele>
        <time>2021-09-10T11:31:47Z</time>
      </trkpt>
      <trkpt lat="44.04108" lon="6.15673">
        <ele>528.8</ele>
        <time>2021-09-10T11:31:48Z</time>
      </trkpt>
      <trkpt lat="44.04111" lon="6.15677">
        <ele>528.9</ele>
        <time>2021-09-10T11:31:49Z</time>
      </trkpt>
      <trkpt lat="44.04113" lon="6.15681">
        <ele>529</ele>
        <time>2021-09-10T11:31:51Z</time>
      </trkpt>
      <trkpt lat="44.04114" lon="6.15683">
        <ele>529.1</ele>
        <time>2021-09-10T11:31:53Z</time>
      </trkpt>
      <trkpt lat="44.04113" lon="6.15682">
        <ele>529.1</ele>
        <time>2021-09-10T11:31:54Z</time>
      </trkpt>
      <trkpt lat="44.04113" lon="6.15682">
        <ele>529.1</ele>
        <time>2021-09-10T11:31:55Z</time>
      </trkpt>
      <trkpt lat="44.04113" lon="6.15683">
        <ele>529.1</ele>
        <time>2021-09-10T11:31:56Z</time>
      </trkpt>
      <trkpt lat="44.04114" lon="6.15685">
        <ele>529.1</ele>
        <time>2021-09-10T11:31:58Z</time>
      </trkpt>
      <trkpt lat="44.04114" lon="6.15686">
        <ele>529.2</ele>
        <time>2021-09-10T11:31:59Z</time>
      </trkpt>
      <trkpt lat="44.04115" lon="6.15688">
        <ele>529.2</ele>
        <time>2021-09-10T11:32:00Z</time>
      </trkpt>
      <trkpt lat="44.04116" lon="6.1569">
        <ele>529.3</ele>
        <time>2021-09-10T11:32:02Z</time>
      </trkpt>
      <trkpt lat="44.04117" lon="6.15694">
        <ele>529.4</ele>
        <time>2021-09-10T11:32:04Z</time>
      </trkpt>
      <trkpt lat="44.04118" lon="6.15695">
        <ele>529.4</ele>
        <time>2021-09-10T11:32:05Z</time>
      </trkpt>
      <trkpt lat="44.04118" lon="6.15696">
        <ele>529.5</ele>
        <time>2021-09-10T11:32:06Z</time>
      </trkpt>
      <trkpt lat="44.04118" lon="6.15697">
        <ele>529.5</ele>
        <time>2021-09-10T11:32:07Z</time>
      </trkpt>
      <trkpt lat="44.04118" lon="6.15697">
        <ele>529.5</ele>
        <time>2021-09-10T11:32:09Z</time>
      </trkpt>
      <trkpt lat="44.04166" lon="6.1579">
        <ele>530</ele>
        <time>2021-09-10T11:55:19Z</time>
      </trkpt>
      <trkpt lat="44.04166" lon="6.1579">
        <ele>530</ele>
        <time>2021-09-10T11:55:21Z</time>
      </trkpt>
      <trkpt lat="44.04163" lon="6.15791">
        <ele>530</ele>
        <time>2021-09-10T11:55:23Z</time>
      </trkpt>
      <trkpt lat="44.0416" lon="6.1579">
        <ele>530</ele>
        <time>2021-09-10T11:55:25Z</time>
      </trkpt>
      <trkpt lat="44.04159" lon="6.15789">
        <ele>530</ele>
        <time>2021-09-10T11:55:26Z</time>
      </trkpt>
      <trkpt lat="44.04156" lon="6.15788">
        <ele>530</ele>
        <time>2021-09-10T11:55:28Z</time>
      </trkpt>
      <trkpt lat="44.04155" lon="6.15788">
        <ele>530</ele>
        <time>2021-09-10T11:55:29Z</time>
      </trkpt>
      <trkpt lat="44.04155" lon="6.15789">
        <ele>530</ele>
        <time>2021-09-10T11:55:31Z</time>
      </trkpt>
      <trkpt lat="44.04154" lon="6.15789">
        <ele>530</ele>
        <time>2021-09-10T11:55:32Z</time>
      </trkpt>
      <trkpt lat="44.04154" lon="6.15789">
        <ele>530</ele>
        <time>2021-09-10T11:55:34Z</time>
      </trkpt>
      <trkpt lat="44.04154" lon="6.15789">
        <ele>530</ele>
        <time>2021-09-10T11:55:36Z</time>
      </trkpt>
      <trkpt lat="44.04154" lon="6.15789">
        <ele>530</ele>
        <time>2021-09-10T11:55:37Z</time>
      </trkpt>
      <trkpt lat="44.04154" lon="6.15789">
        <ele>530</ele>
        <time>2021-09-10T11:55:38Z</time>
      </trkpt>
      <trkpt lat="44.04148" lon="6.15784">
        <ele>530.1</ele>
        <time>2021-09-10T11:55:40Z</time>
      </trkpt>
      <trkpt lat="44.04147" lon="6.15783">
        <ele>530.1</ele>
        <time>2021-09-10T11:55:41Z</time>
      </trkpt>
      <trkpt lat="44.04146" lon="6.1578">
        <ele>530.1</ele>
        <time>2021-09-10T11:55:43Z</time>
      </trkpt>
      <trkpt lat="44.04146" lon="6.1578">
        <ele>530.1</ele>
        <time>2021-09-10T11:55:44Z</time>
      </trkpt>
      <trkpt lat="44.04144" lon="6.15777">
        <ele>530.1</ele>
        <time>2021-09-10T11:55:46Z</time>
      </trkpt>
      <trkpt lat="44.0414" lon="6.15773">
        <ele>530.2</ele>
        <time>2021-09-10T11:55:47Z</time>
      </trkpt>
      <trkpt lat="44.04138" lon="6.1577">
        <ele>530.2</ele>
        <time>2021-09-10T11:55:48Z</time>
      </trkpt>
      <trkpt lat="44.04137" lon="6.15767">
        <ele>530.2</ele>
        <time>2021-09-10T11:55:50Z</time>
      </trkpt>
      <trkpt lat="44.04137" lon="6.15766">
        <ele>530.2</ele>
        <time>2021-09-10T11:55:51Z</time>
      </trkpt>
      <trkpt lat="44.04136" lon="6.15766">
        <ele>530.2</ele>
        <time>2021-09-10T11:55:53Z</time>
      </trkpt>
      <trkpt lat="44.04136" lon="6.15766">
        <ele>530.2</ele>
        <time>2021-09-10T11:55:54Z</time>
      </trkpt>
      <trkpt lat="44.04136" lon="6.15766">
        <ele>530.2</ele>
        <time>2021-09-10T11:55:56Z</time>
      </trkpt>
      <trkpt lat="44.04136" lon="6.15756">
        <ele>530.2</ele>
        <time>2021-09-10T11:55:58Z</time>
      </trkpt>
      <trkpt lat="44.04136" lon="6.15754">
        <ele>530.2</ele>
        <time>2021-09-10T11:55:59Z</time>
      </trkpt>
      <trkpt lat="44.04135" lon="6.15753">
        <ele>530.2</ele>
        <time>2021-09-10T11:56:00Z</time>
      </trkpt>
      <trkpt lat="44.04135" lon="6.15752">
        <ele>530.2</ele>
        <time>2021-09-10T11:56:02Z</time>
      </trkpt>
      <trkpt lat="44.04135" lon="6.15751">
        <ele>530.2</ele>
        <time>2021-09-10T11:56:04Z</time>
      </trkpt>
      <trkpt lat="44.04135" lon="6.15747">
        <ele>530.2</ele>
        <time>2021-09-10T11:56:06Z</time>
      </trkpt>
      <trkpt lat="44.04134" lon="6.15741">
        <ele>530.2</ele>
        <time>2021-09-10T11:56:08Z</time>
      </trkpt>
      <trkpt lat="44.04134" lon="6.15738">
        <ele>530.2</ele>
        <time>2021-09-10T11:56:09Z</time>
      </trkpt>
      <trkpt lat="44.04135" lon="6.15732">
        <ele>530.2</ele>
        <time>2021-09-10T11:56:11Z</time>
      </trkpt>
      <trkpt lat="44.04139" lon="6.15727">
        <ele>530.2</ele>
        <time>2021-09-10T11:56:13Z</time>
      </trkpt>
      <trkpt lat="44.04141" lon="6.15724">
        <ele>530.2</ele>
        <time>2021-09-10T11:56:14Z</time>
      </trkpt>
      <trkpt lat="44.04142" lon="6.15724">
        <ele>530.2</ele>
        <time>2021-09-10T11:56:15Z</time>
      </trkpt>
      <trkpt lat="44.04143" lon="6.1573">
        <ele>530.2</ele>
        <time>2021-09-10T11:56:17Z</time>
      </trkpt>
      <trkpt lat="44.04142" lon="6.15737">
        <ele>530.2</ele>
        <time>2021-09-10T11:56:19Z</time>
      </trkpt>
      <trkpt lat="44.04142" lon="6.15741">
        <ele>530.2</ele>
        <time>2021-09-10T11:56:20Z</time>
      </trkpt>
      <trkpt lat="44.04145" lon="6.15749">
        <ele>530.2</ele>
        <time>2021-09-10T11:56:22Z</time>
      </trkpt>
      <trkpt lat="44.04146" lon="6.15755">
        <ele>530.2</ele>
        <time>2021-09-10T11:56:24Z</time>
      </trkpt>
      <trkpt lat="44.04147" lon="6.15761">
        <ele>530.2</ele>
        <time>2021-09-10T11:56:26Z</time>
      </trkpt>
      <trkpt lat="44.04148" lon="6.15767">
        <ele>530.1</ele>
        <time>2021-09-10T11:56:28Z</time>
      </trkpt>
      <trkpt lat="44.04159" lon="6.15773">
        <ele>530.1</ele>
        <time>2021-09-10T11:56:30Z</time>
      </trkpt>
      <trkpt lat="44.04159" lon="6.15773">
        <ele>530</ele>
        <time>2021-09-10T11:56:31Z</time>
      </trkpt>
      <trkpt lat="44.0416" lon="6.15773">
        <ele>530</ele>
        <time>2021-09-10T11:56:32Z</time>
      </trkpt>
      <trkpt lat="44.04161" lon="6.15774">
        <ele>530</ele>
        <time>2021-09-10T11:56:34Z</time>
      </trkpt>
      <trkpt lat="44.04163" lon="6.15774">
        <ele>530</ele>
        <time>2021-09-10T11:56:36Z</time>
      </trkpt>
      <trkpt lat="44.04148" lon="6.15738">
        <ele>529.9</ele>
        <time>2021-09-10T12:04:08Z</time>
      </trkpt>
      <trkpt lat="44.04151" lon="6.1574">
        <ele>529.9</ele>
        <time>2021-09-10T12:04:09Z</time>
      </trkpt>
      <trkpt lat="44.04155" lon="6.15742">
        <ele>529.9</ele>
        <time>2021-09-10T12:04:10Z</time>
      </trkpt>
      <trkpt lat="44.0416" lon="6.15744">
        <ele>529.8</ele>
        <time>2021-09-10T12:04:12Z</time>
      </trkpt>
      <trkpt lat="44.04163" lon="6.15744">
        <ele>529.8</ele>
        <time>2021-09-10T12:04:13Z</time>
      </trkpt>
      <trkpt lat="44.04167" lon="6.15745">
        <ele>529.8</ele>
        <time>2021-09-10T12:04:14Z</time>
      </trkpt>
      <trkpt lat="44.04169" lon="6.15745">
        <ele>529.8</ele>
        <time>2021-09-10T12:04:15Z</time>
      </trkpt>
      <trkpt lat="44.0417" lon="6.15746">
        <ele>529.8</ele>
        <time>2021-09-10T12:04:16Z</time>
      </trkpt>
      <trkpt lat="44.04171" lon="6.1575">
        <ele>529.8</ele>
        <time>2021-09-10T12:04:18Z</time>
      </trkpt>
      <trkpt lat="44.04172" lon="6.15751">
        <ele>529.8</ele>
        <time>2021-09-10T12:04:19Z</time>
      </trkpt>
      <trkpt lat="44.04173" lon="6.15755">
        <ele>529.8</ele>
        <time>2021-09-10T12:04:20Z</time>
      </trkpt>
      <trkpt lat="44.04175" lon="6.15758">
        <ele>529.7</ele>
        <time>2021-09-10T12:04:21Z</time>
      </trkpt>
      <trkpt lat="44.04176" lon="6.15761">
        <ele>529.7</ele>
        <time>2021-09-10T12:04:22Z</time>
      </trkpt>
      <trkpt lat="44.04178" lon="6.15765">
        <ele>529.7</ele>
        <time>2021-09-10T12:04:24Z</time>
      </trkpt>
      <trkpt lat="44.0418" lon="6.1577">
        <ele>529.6</ele>
        <time>2021-09-10T12:04:25Z</time>
      </trkpt>
      <trkpt lat="44.04181" lon="6.15774">
        <ele>529.6</ele>
        <time>2021-09-10T12:04:26Z</time>
      </trkpt>
      <trkpt lat="44.04182" lon="6.15778">
        <ele>529.6</ele>
        <time>2021-09-10T12:04:27Z</time>
      </trkpt>
      <trkpt lat="44.04184" lon="6.15782">
        <ele>529.6</ele>
        <time>2021-09-10T12:04:28Z</time>
      </trkpt>
      <trkpt lat="44.04186" lon="6.15787">
        <ele>529.5</ele>
        <time>2021-09-10T12:04:30Z</time>
      </trkpt>
      <trkpt lat="44.04188" lon="6.1579">
        <ele>529.5</ele>
        <time>2021-09-10T12:04:31Z</time>
      </trkpt>
      <trkpt lat="44.0419" lon="6.15794">
        <ele>529.5</ele>
        <time>2021-09-10T12:04:32Z</time>
      </trkpt>
      <trkpt lat="44.04191" lon="6.15796">
        <ele>529.5</ele>
        <time>2021-09-10T12:04:33Z</time>
      </trkpt>
      <trkpt lat="44.04193" lon="6.15801">
        <ele>529.6</ele>
        <time>2021-09-10T12:04:35Z</time>
      </trkpt>
      <trkpt lat="44.04196" lon="6.15806">
        <ele>529.6</ele>
        <time>2021-09-10T12:04:37Z</time>
      </trkpt>
      <trkpt lat="44.04201" lon="6.15813">
        <ele>529.7</ele>
        <time>2021-09-10T12:04:39Z</time>
      </trkpt>
      <trkpt lat="44.04202" lon="6.15821">
        <ele>529.7</ele>
        <time>2021-09-10T12:04:40Z</time>
      </trkpt>
      <trkpt lat="44.04203" lon="6.15826">
        <ele>529.8</ele>
        <time>2021-09-10T12:04:42Z</time>
      </trkpt>
      <trkpt lat="44.04206" lon="6.15836">
        <ele>529.9</ele>
        <time>2021-09-10T12:04:44Z</time>
      </trkpt>
      <trkpt lat="44.0421" lon="6.15844">
        <ele>529.9</ele>
        <time>2021-09-10T12:04:46Z</time>
      </trkpt>
      <trkpt lat="44.04216" lon="6.1585">
        <ele>530</ele>
        <time>2021-09-10T12:04:48Z</time>
      </trkpt>
      <trkpt lat="44.04218" lon="6.15854">
        <ele>530</ele>
        <time>2021-09-10T12:04:49Z</time>
      </trkpt>
      <trkpt lat="44.04223" lon="6.15862">
        <ele>530</ele>
        <time>2021-09-10T12:04:51Z</time>
      </trkpt>
      <trkpt lat="44.04225" lon="6.15866">
        <ele>530</ele>
        <time>2021-09-10T12:04:52Z</time>
      </trkpt>
      <trkpt lat="44.04227" lon="6.15869">
        <ele>530.1</ele>
        <time>2021-09-10T12:04:53Z</time>
      </trkpt>
      <trkpt lat="44.04229" lon="6.15873">
        <ele>530.1</ele>
        <time>2021-09-10T12:04:54Z</time>
      </trkpt>
      <trkpt lat="44.04231" lon="6.15876">
        <ele>530.1</ele>
        <time>2021-09-10T12:04:55Z</time>
      </trkpt>
      <trkpt lat="44.04232" lon="6.1588">
        <ele>530.1</ele>
        <time>2021-09-10T12:04:56Z</time>
      </trkpt>
      <trkpt lat="44.04235" lon="6.15886">
        <ele>530.1</ele>
        <time>2021-09-10T12:04:57Z</time>
      </trkpt>
      <trkpt lat="44.04238" lon="6.1589">
        <ele>530.2</ele>
        <time>2021-09-10T12:04:59Z</time>
      </trkpt>
      <trkpt lat="44.04239" lon="6.15894">
        <ele>530.2</ele>
        <time>2021-09-10T12:05:00Z</time>
      </trkpt>
      <trkpt lat="44.04242" lon="6.15897">
        <ele>530.3</ele>
        <time>2021-09-10T12:05:01Z</time>
      </trkpt>
      <trkpt lat="44.04244" lon="6.159">
        <ele>530.3</ele>
        <time>2021-09-10T12:05:02Z</time>
      </trkpt>
      <trkpt lat="44.04247" lon="6.15904">
        <ele>530.4</ele>
        <time>2021-09-10T12:05:04Z</time>
      </trkpt>
      <trkpt lat="44.04248" lon="6.15906">
        <ele>530.4</ele>
        <time>2021-09-10T12:05:05Z</time>
      </trkpt>
      <trkpt lat="44.04249" lon="6.15907">
        <ele>530.4</ele>
        <time>2021-09-10T12:05:06Z</time>
      </trkpt>
      <trkpt lat="44.0425" lon="6.15909">
        <ele>530.4</ele>
        <time>2021-09-10T12:05:07Z</time>
      </trkpt>
      <trkpt lat="44.04253" lon="6.15914">
        <ele>530.6</ele>
        <time>2021-09-10T12:05:09Z</time>
      </trkpt>
      <trkpt lat="44.04255" lon="6.15917">
        <ele>530.6</ele>
        <time>2021-09-10T12:05:10Z</time>
      </trkpt>
      <trkpt lat="44.04257" lon="6.15921">
        <ele>530.8</ele>
        <time>2021-09-10T12:05:11Z</time>
      </trkpt>
      <trkpt lat="44.04258" lon="6.15922">
        <ele>530.8</ele>
        <time>2021-09-10T12:05:12Z</time>
      </trkpt>
      <trkpt lat="44.04261" lon="6.15926">
        <ele>530.9</ele>
        <time>2021-09-10T12:05:13Z</time>
      </trkpt>
      <trkpt lat="44.04264" lon="6.15929">
        <ele>531</ele>
        <time>2021-09-10T12:05:15Z</time>
      </trkpt>
      <trkpt lat="44.04267" lon="6.15933">
        <ele>531.1</ele>
        <time>2021-09-10T12:05:16Z</time>
      </trkpt>
      <trkpt lat="44.04268" lon="6.15935">
        <ele>531.2</ele>
        <time>2021-09-10T12:05:17Z</time>
      </trkpt>
      <trkpt lat="44.04271" lon="6.15938">
        <ele>531.3</ele>
        <time>2021-09-10T12:05:18Z</time>
      </trkpt>
      <trkpt lat="44.04274" lon="6.15941">
        <ele>531.3</ele>
        <time>2021-09-10T12:05:20Z</time>
      </trkpt>
      <trkpt lat="44.04277" lon="6.15943">
        <ele>531.4</ele>
        <time>2021-09-10T12:05:21Z</time>
      </trkpt>
      <trkpt lat="44.04282" lon="6.15948">
        <ele>531.4</ele>
        <time>2021-09-10T12:05:23Z</time>
      </trkpt>
      <trkpt lat="44.04284" lon="6.15951">
        <ele>531.3</ele>
        <time>2021-09-10T12:05:24Z</time>
      </trkpt>
      <trkpt lat="44.04286" lon="6.15955">
        <ele>531.3</ele>
        <time>2021-09-10T12:05:25Z</time>
      </trkpt>
      <trkpt lat="44.04288" lon="6.15958">
        <ele>531.3</ele>
        <time>2021-09-10T12:05:26Z</time>
      </trkpt>
      <trkpt lat="44.0429" lon="6.15964">
        <ele>531.2</ele>
        <time>2021-09-10T12:05:27Z</time>
      </trkpt>
      <trkpt lat="44.04292" lon="6.15969">
        <ele>531.2</ele>
        <time>2021-09-10T12:05:29Z</time>
      </trkpt>
      <trkpt lat="44.04294" lon="6.15973">
        <ele>531.2</ele>
        <time>2021-09-10T12:05:30Z</time>
      </trkpt>
      <trkpt lat="44.04295" lon="6.15981">
        <ele>531.2</ele>
        <time>2021-09-10T12:05:32Z</time>
      </trkpt>
      <trkpt lat="44.04298" lon="6.15987">
        <ele>531.2</ele>
        <time>2021-09-10T12:05:33Z</time>
      </trkpt>
      <trkpt lat="44.043" lon="6.15993">
        <ele>531.2</ele>
        <time>2021-09-10T12:05:34Z</time>
      </trkpt>
      <trkpt lat="44.04303" lon="6.15998">
        <ele>531.3</ele>
        <time>2021-09-10T12:05:36Z</time>
      </trkpt>
      <trkpt lat="44.04304" lon="6.15999">
        <ele>531.3</ele>
        <time>2021-09-10T12:05:37Z</time>
      </trkpt>
      <trkpt lat="44.04306" lon="6.16">
        <ele>531.3</ele>
        <time>2021-09-10T12:05:38Z</time>
      </trkpt>
      <trkpt lat="44.04308" lon="6.16001">
        <ele>531.3</ele>
        <time>2021-09-10T12:05:40Z</time>
      </trkpt>
      <trkpt lat="44.04309" lon="6.16002">
        <ele>531.3</ele>
        <time>2021-09-10T12:05:41Z</time>
      </trkpt>
      <trkpt lat="44.04311" lon="6.16006">
        <ele>531.4</ele>
        <time>2021-09-10T12:05:43Z</time>
      </trkpt>
      <trkpt lat="44.04312" lon="6.16007">
        <ele>531.4</ele>
        <time>2021-09-10T12:05:44Z</time>
      </trkpt>
      <trkpt lat="44.04314" lon="6.16007">
        <ele>531.4</ele>
        <time>2021-09-10T12:05:45Z</time>
      </trkpt>
      <trkpt lat="44.04315" lon="6.16008">
        <ele>531.4</ele>
        <time>2021-09-10T12:05:47Z</time>
      </trkpt>
      <trkpt lat="44.04318" lon="6.16011">
        <ele>531.4</ele>
        <time>2021-09-10T12:05:48Z</time>
      </trkpt>
      <trkpt lat="44.0432" lon="6.16011">
        <ele>531.5</ele>
        <time>2021-09-10T12:05:49Z</time>
      </trkpt>
      <trkpt lat="44.04322" lon="6.16014">
        <ele>531.5</ele>
        <time>2021-09-10T12:05:51Z</time>
      </trkpt>
      <trkpt lat="44.04323" lon="6.16015">
        <ele>531.5</ele>
        <time>2021-09-10T12:05:52Z</time>
      </trkpt>
      <trkpt lat="44.04326" lon="6.16016">
        <ele>531.6</ele>
        <time>2021-09-10T12:05:54Z</time>
      </trkpt>
      <trkpt lat="44.04329" lon="6.1602">
        <ele>531.7</ele>
        <time>2021-09-10T12:05:55Z</time>
      </trkpt>
      <trkpt lat="44.04331" lon="6.16021">
        <ele>531.7</ele>
        <time>2021-09-10T12:05:56Z</time>
      </trkpt>
      <trkpt lat="44.04336" lon="6.16028">
        <ele>531.8</ele>
        <time>2021-09-10T12:05:58Z</time>
      </trkpt>
      <trkpt lat="44.04338" lon="6.16031">
        <ele>531.9</ele>
        <time>2021-09-10T12:05:59Z</time>
      </trkpt>
      <trkpt lat="44.0434" lon="6.16035">
        <ele>532</ele>
        <time>2021-09-10T12:06:00Z</time>
      </trkpt>
      <trkpt lat="44.04342" lon="6.16038">
        <ele>532</ele>
        <time>2021-09-10T12:06:01Z</time>
      </trkpt>
      <trkpt lat="44.04344" lon="6.16042">
        <ele>532.1</ele>
        <time>2021-09-10T12:06:02Z</time>
      </trkpt>
      <trkpt lat="44.04346" lon="6.16047">
        <ele>532.2</ele>
        <time>2021-09-10T12:06:03Z</time>
      </trkpt>
      <trkpt lat="44.04349" lon="6.1605">
        <ele>532.3</ele>
        <time>2021-09-10T12:06:05Z</time>
      </trkpt>
      <trkpt lat="44.04351" lon="6.16055">
        <ele>532.4</ele>
        <time>2021-09-10T12:06:07Z</time>
      </trkpt>
      <trkpt lat="44.04354" lon="6.16057">
        <ele>532.4</ele>
        <time>2021-09-10T12:06:08Z</time>
      </trkpt>
      <trkpt lat="44.04357" lon="6.16062">
        <ele>532.5</ele>
        <time>2021-09-10T12:06:10Z</time>
      </trkpt>
      <trkpt lat="44.04359" lon="6.16066">
        <ele>532.6</ele>
        <time>2021-09-10T12:06:11Z</time>
      </trkpt>
      <trkpt lat="44.04362" lon="6.16071">
        <ele>532.7</ele>
        <time>2021-09-10T12:06:12Z</time>
      </trkpt>
      <trkpt lat="44.04365" lon="6.16075">
        <ele>532.8</ele>
        <time>2021-09-10T12:06:13Z</time>
      </trkpt>
      <trkpt lat="44.04366" lon="6.16076">
        <ele>532.8</ele>
        <time>2021-09-10T12:06:14Z</time>
      </trkpt>
      <trkpt lat="44.04368" lon="6.16081">
        <ele>532.9</ele>
        <time>2021-09-10T12:06:16Z</time>
      </trkpt>
      <trkpt lat="44.0437" lon="6.16087">
        <ele>532.9</ele>
        <time>2021-09-10T12:06:17Z</time>
      </trkpt>
      <trkpt lat="44.04373" lon="6.16093">
        <ele>533</ele>
        <time>2021-09-10T12:06:18Z</time>
      </trkpt>
      <trkpt lat="44.04374" lon="6.16097">
        <ele>533</ele>
        <time>2021-09-10T12:06:19Z</time>
      </trkpt>
      <trkpt lat="44.04376" lon="6.16102">
        <ele>533.1</ele>
        <time>2021-09-10T12:06:21Z</time>
      </trkpt>
      <trkpt lat="44.04378" lon="6.16106">
        <ele>533.1</ele>
        <time>2021-09-10T12:06:22Z</time>
      </trkpt>
      <trkpt lat="44.0438" lon="6.1611">
        <ele>533.2</ele>
        <time>2021-09-10T12:06:23Z</time>
      </trkpt>
      <trkpt lat="44.04383" lon="6.16115">
        <ele>533.2</ele>
        <time>2021-09-10T12:06:24Z</time>
      </trkpt>
      <trkpt lat="44.04386" lon="6.16119">
        <ele>533.3</ele>
        <time>2021-09-10T12:06:25Z</time>
      </trkpt>
      <trkpt lat="44.04388" lon="6.16123">
        <ele>533.4</ele>
        <time>2021-09-10T12:06:27Z</time>
      </trkpt>
      <trkpt lat="44.0439" lon="6.16126">
        <ele>533.5</ele>
        <time>2021-09-10T12:06:28Z</time>
      </trkpt>
      <trkpt lat="44.04391" lon="6.16128">
        <ele>533.5</ele>
        <time>2021-09-10T12:06:29Z</time>
      </trkpt>
      <trkpt lat="44.04393" lon="6.16131">
        <ele>533.6</ele>
        <time>2021-09-10T12:06:31Z</time>
      </trkpt>
      <trkpt lat="44.04393" lon="6.16135">
        <ele>533.6</ele>
        <time>2021-09-10T12:06:32Z</time>
      </trkpt>
      <trkpt lat="44.04394" lon="6.16137">
        <ele>533.7</ele>
        <time>2021-09-10T12:06:33Z</time>
      </trkpt>
      <trkpt lat="44.04394" lon="6.1614">
        <ele>533.7</ele>
        <time>2021-09-10T12:06:35Z</time>
      </trkpt>
      <trkpt lat="44.04395" lon="6.16142">
        <ele>533.8</ele>
        <time>2021-09-10T12:06:36Z</time>
      </trkpt>
      <trkpt lat="44.04395" lon="6.16144">
        <ele>533.8</ele>
        <time>2021-09-10T12:06:37Z</time>
      </trkpt>
      <trkpt lat="44.04397" lon="6.16147">
        <ele>533.9</ele>
        <time>2021-09-10T12:06:38Z</time>
      </trkpt>
      <trkpt lat="44.04398" lon="6.16149">
        <ele>533.9</ele>
        <time>2021-09-10T12:06:39Z</time>
      </trkpt>
      <trkpt lat="44.044" lon="6.16153">
        <ele>534</ele>
        <time>2021-09-10T12:06:41Z</time>
      </trkpt>
      <trkpt lat="44.04402" lon="6.16158">
        <ele>534.1</ele>
        <time>2021-09-10T12:06:43Z</time>
      </trkpt>
      <trkpt lat="44.04403" lon="6.1616">
        <ele>534.1</ele>
        <time>2021-09-10T12:06:44Z</time>
      </trkpt>
      <trkpt lat="44.04403" lon="6.16163">
        <ele>534.2</ele>
        <time>2021-09-10T12:06:45Z</time>
      </trkpt>
      <trkpt lat="44.04404" lon="6.16168">
        <ele>534.3</ele>
        <time>2021-09-10T12:06:46Z</time>
      </trkpt>
      <trkpt lat="44.04404" lon="6.1617">
        <ele>534.3</ele>
        <time>2021-09-10T12:06:47Z</time>
      </trkpt>
      <trkpt lat="44.04405" lon="6.16174">
        <ele>534.4</ele>
        <time>2021-09-10T12:06:49Z</time>
      </trkpt>
      <trkpt lat="44.04407" lon="6.16179">
        <ele>534.5</ele>
        <time>2021-09-10T12:06:50Z</time>
      </trkpt>
      <trkpt lat="44.04408" lon="6.16181">
        <ele>534.5</ele>
        <time>2021-09-10T12:06:51Z</time>
      </trkpt>
      <trkpt lat="44.04408" lon="6.16185">
        <ele>534.5</ele>
        <time>2021-09-10T12:06:52Z</time>
      </trkpt>
      <trkpt lat="44.04409" lon="6.1619">
        <ele>534.6</ele>
        <time>2021-09-10T12:06:54Z</time>
      </trkpt>
      <trkpt lat="44.04411" lon="6.16195">
        <ele>534.7</ele>
        <time>2021-09-10T12:06:55Z</time>
      </trkpt>
      <trkpt lat="44.04412" lon="6.16199">
        <ele>534.8</ele>
        <time>2021-09-10T12:06:56Z</time>
      </trkpt>
      <trkpt lat="44.04413" lon="6.16202">
        <ele>534.8</ele>
        <time>2021-09-10T12:06:57Z</time>
      </trkpt>
      <trkpt lat="44.04413" lon="6.16206">
        <ele>534.9</ele>
        <time>2021-09-10T12:06:59Z</time>
      </trkpt>
      <trkpt lat="44.04414" lon="6.1621">
        <ele>535</ele>
        <time>2021-09-10T12:07:00Z</time>
      </trkpt>
      <trkpt lat="44.04414" lon="6.16212">
        <ele>535</ele>
        <time>2021-09-10T12:07:01Z</time>
      </trkpt>
      <trkpt lat="44.04415" lon="6.16216">
        <ele>535.1</ele>
        <time>2021-09-10T12:07:02Z</time>
      </trkpt>
      <trkpt lat="44.04415" lon="6.16218">
        <ele>535.1</ele>
        <time>2021-09-10T12:07:03Z</time>
      </trkpt>
      <trkpt lat="44.04417" lon="6.16225">
        <ele>535.2</ele>
        <time>2021-09-10T12:07:05Z</time>
      </trkpt>
      <trkpt lat="44.04418" lon="6.1623">
        <ele>535.4</ele>
        <time>2021-09-10T12:07:06Z</time>
      </trkpt>
      <trkpt lat="44.0442" lon="6.16234">
        <ele>535.5</ele>
        <time>2021-09-10T12:07:07Z</time>
      </trkpt>
      <trkpt lat="44.04422" lon="6.16239">
        <ele>535.6</ele>
        <time>2021-09-10T12:07:08Z</time>
      </trkpt>
      <trkpt lat="44.04422" lon="6.16243">
        <ele>535.7</ele>
        <time>2021-09-10T12:07:10Z</time>
      </trkpt>
      <trkpt lat="44.04422" lon="6.16244">
        <ele>535.7</ele>
        <time>2021-09-10T12:07:11Z</time>
      </trkpt>
      <trkpt lat="44.04421" lon="6.16248">
        <ele>535.8</ele>
        <time>2021-09-10T12:07:12Z</time>
      </trkpt>
      <trkpt lat="44.04421" lon="6.16251">
        <ele>535.8</ele>
        <time>2021-09-10T12:07:14Z</time>
      </trkpt>
      <trkpt lat="44.04421" lon="6.16256">
        <ele>536</ele>
        <time>2021-09-10T12:07:15Z</time>
      </trkpt>
      <trkpt lat="44.04422" lon="6.16257">
        <ele>536</ele>
        <time>2021-09-10T12:07:16Z</time>
      </trkpt>
      <trkpt lat="44.04423" lon="6.16261">
        <ele>536.1</ele>
        <time>2021-09-10T12:07:17Z</time>
      </trkpt>
      <trkpt lat="44.04423" lon="6.16265">
        <ele>536.2</ele>
        <time>2021-09-10T12:07:19Z</time>
      </trkpt>
      <trkpt lat="44.04422" lon="6.1627">
        <ele>536.3</ele>
        <time>2021-09-10T12:07:21Z</time>
      </trkpt>
      <trkpt lat="44.04422" lon="6.16273">
        <ele>536.4</ele>
        <time>2021-09-10T12:07:22Z</time>
      </trkpt>
      <trkpt lat="44.04422" lon="6.1628">
        <ele>536.6</ele>
        <time>2021-09-10T12:07:24Z</time>
      </trkpt>
      <trkpt lat="44.04423" lon="6.16284">
        <ele>536.7</ele>
        <time>2021-09-10T12:07:25Z</time>
      </trkpt>
      <trkpt lat="44.04424" lon="6.16289">
        <ele>536.8</ele>
        <time>2021-09-10T12:07:26Z</time>
      </trkpt>
      <trkpt lat="44.04425" lon="6.16291">
        <ele>536.8</ele>
        <time>2021-09-10T12:07:27Z</time>
      </trkpt>
      <trkpt lat="44.04427" lon="6.16294">
        <ele>536.9</ele>
        <time>2021-09-10T12:07:29Z</time>
      </trkpt>
      <trkpt lat="44.04428" lon="6.16298">
        <ele>537</ele>
        <time>2021-09-10T12:07:30Z</time>
      </trkpt>
      <trkpt lat="44.04429" lon="6.16302">
        <ele>537.1</ele>
        <time>2021-09-10T12:07:31Z</time>
      </trkpt>
      <trkpt lat="44.04431" lon="6.16307">
        <ele>537.2</ele>
        <time>2021-09-10T12:07:33Z</time>
      </trkpt>
      <trkpt lat="44.04431" lon="6.16311">
        <ele>537.3</ele>
        <time>2021-09-10T12:07:34Z</time>
      </trkpt>
      <trkpt lat="44.04431" lon="6.16317">
        <ele>537.4</ele>
        <time>2021-09-10T12:07:35Z</time>
      </trkpt>
      <trkpt lat="44.04433" lon="6.16323">
        <ele>537.5</ele>
        <time>2021-09-10T12:07:37Z</time>
      </trkpt>
      <trkpt lat="44.04434" lon="6.16324">
        <ele>537.5</ele>
        <time>2021-09-10T12:07:38Z</time>
      </trkpt>
      <trkpt lat="44.04436" lon="6.16326">
        <ele>537.5</ele>
        <time>2021-09-10T12:07:39Z</time>
      </trkpt>
      <trkpt lat="44.04439" lon="6.16328">
        <ele>537.5</ele>
        <time>2021-09-10T12:07:41Z</time>
      </trkpt>
      <trkpt lat="44.04442" lon="6.1633">
        <ele>537.4</ele>
        <time>2021-09-10T12:07:42Z</time>
      </trkpt>
      <trkpt lat="44.04445" lon="6.16331">
        <ele>537.4</ele>
        <time>2021-09-10T12:07:43Z</time>
      </trkpt>
      <trkpt lat="44.04449" lon="6.16332">
        <ele>537.3</ele>
        <time>2021-09-10T12:07:45Z</time>
      </trkpt>
      <trkpt lat="44.04452" lon="6.16332">
        <ele>537.2</ele>
        <time>2021-09-10T12:07:46Z</time>
      </trkpt>
      <trkpt lat="44.04456" lon="6.16334">
        <ele>537.1</ele>
        <time>2021-09-10T12:07:47Z</time>
      </trkpt>
      <trkpt lat="44.04459" lon="6.16334">
        <ele>537</ele>
        <time>2021-09-10T12:07:48Z</time>
      </trkpt>
      <trkpt lat="44.04462" lon="6.16334">
        <ele>537</ele>
        <time>2021-09-10T12:07:49Z</time>
      </trkpt>
      <trkpt lat="44.04466" lon="6.16335">
        <ele>536.9</ele>
        <time>2021-09-10T12:07:51Z</time>
      </trkpt>
      <trkpt lat="44.04468" lon="6.16336">
        <ele>536.8</ele>
        <time>2021-09-10T12:07:52Z</time>
      </trkpt>
      <trkpt lat="44.04471" lon="6.16338">
        <ele>536.7</ele>
        <time>2021-09-10T12:07:54Z</time>
      </trkpt>
      <trkpt lat="44.04473" lon="6.1634">
        <ele>536.6</ele>
        <time>2021-09-10T12:07:55Z</time>
      </trkpt>
      <trkpt lat="44.04476" lon="6.16342">
        <ele>536.6</ele>
        <time>2021-09-10T12:07:57Z</time>
      </trkpt>
      <trkpt lat="44.04478" lon="6.16344">
        <ele>536.5</ele>
        <time>2021-09-10T12:07:58Z</time>
      </trkpt>
      <trkpt lat="44.0448" lon="6.16344">
        <ele>536.4</ele>
        <time>2021-09-10T12:07:59Z</time>
      </trkpt>
      <trkpt lat="44.04482" lon="6.16346">
        <ele>536.4</ele>
        <time>2021-09-10T12:08:00Z</time>
      </trkpt>
      <trkpt lat="44.04486" lon="6.16348">
        <ele>536.2</ele>
        <time>2021-09-10T12:08:02Z</time>
      </trkpt>
      <trkpt lat="44.04488" lon="6.16349">
        <ele>536.2</ele>
        <time>2021-09-10T12:08:03Z</time>
      </trkpt>
      <trkpt lat="44.04492" lon="6.16352">
        <ele>536.1</ele>
        <time>2021-09-10T12:08:04Z</time>
      </trkpt>
      <trkpt lat="44.04495" lon="6.16355">
        <ele>536</ele>
        <time>2021-09-10T12:08:05Z</time>
      </trkpt>
      <trkpt lat="44.045" lon="6.16361">
        <ele>535.8</ele>
        <time>2021-09-10T12:08:06Z</time>
      </trkpt>
      <trkpt lat="44.04508" lon="6.16372">
        <ele>535.4</ele>
        <time>2021-09-10T12:08:08Z</time>
      </trkpt>
      <trkpt lat="44.04513" lon="6.16375">
        <ele>535.2</ele>
        <time>2021-09-10T12:08:09Z</time>
      </trkpt>
      <trkpt lat="44.0452" lon="6.16377">
        <ele>534.9</ele>
        <time>2021-09-10T12:08:10Z</time>
      </trkpt>
      <trkpt lat="44.04525" lon="6.16374">
        <ele>534.7</ele>
        <time>2021-09-10T12:08:12Z</time>
      </trkpt>
      <trkpt lat="44.0453" lon="6.16373">
        <ele>534.6</ele>
        <time>2021-09-10T12:08:13Z</time>
      </trkpt>
      <trkpt lat="44.04539" lon="6.16368">
        <ele>534.2</ele>
        <time>2021-09-10T12:08:15Z</time>
      </trkpt>
      <trkpt lat="44.04543" lon="6.16365">
        <ele>534</ele>
        <time>2021-09-10T12:08:16Z</time>
      </trkpt>
      <trkpt lat="44.04547" lon="6.16361">
        <ele>533.9</ele>
        <time>2021-09-10T12:08:17Z</time>
      </trkpt>
      <trkpt lat="44.04552" lon="6.16356">
        <ele>533.7</ele>
        <time>2021-09-10T12:08:18Z</time>
      </trkpt>
      <trkpt lat="44.04562" lon="6.16348">
        <ele>533.3</ele>
        <time>2021-09-10T12:08:20Z</time>
      </trkpt>
      <trkpt lat="44.04568" lon="6.16344">
        <ele>533.1</ele>
        <time>2021-09-10T12:08:21Z</time>
      </trkpt>
      <trkpt lat="44.04581" lon="6.16338">
        <ele>532.7</ele>
        <time>2021-09-10T12:08:23Z</time>
      </trkpt>
      <trkpt lat="44.04586" lon="6.16336">
        <ele>532.5</ele>
        <time>2021-09-10T12:08:24Z</time>
      </trkpt>
      <trkpt lat="44.04594" lon="6.16334">
        <ele>532.2</ele>
        <time>2021-09-10T12:08:26Z</time>
      </trkpt>
      <trkpt lat="44.04605" lon="6.16331">
        <ele>531.9</ele>
        <time>2021-09-10T12:08:28Z</time>
      </trkpt>
      <trkpt lat="44.04615" lon="6.16325">
        <ele>531.6</ele>
        <time>2021-09-10T12:08:30Z</time>
      </trkpt>
      <trkpt lat="44.04619" lon="6.16322">
        <ele>531.5</ele>
        <time>2021-09-10T12:08:31Z</time>
      </trkpt>
      <trkpt lat="44.04623" lon="6.16317">
        <ele>531.4</ele>
        <time>2021-09-10T12:08:32Z</time>
      </trkpt>
      <trkpt lat="44.04631" lon="6.16309">
        <ele>531.1</ele>
        <time>2021-09-10T12:08:34Z</time>
      </trkpt>
      <trkpt lat="44.04636" lon="6.16304">
        <ele>531</ele>
        <time>2021-09-10T12:08:35Z</time>
      </trkpt>
      <trkpt lat="44.04643" lon="6.16296">
        <ele>530.9</ele>
        <time>2021-09-10T12:08:37Z</time>
      </trkpt>
      <trkpt lat="44.04647" lon="6.16292">
        <ele>530.8</ele>
        <time>2021-09-10T12:08:38Z</time>
      </trkpt>
      <trkpt lat="44.04654" lon="6.16283">
        <ele>530.6</ele>
        <time>2021-09-10T12:08:40Z</time>
      </trkpt>
      <trkpt lat="44.04657" lon="6.1628">
        <ele>530.6</ele>
        <time>2021-09-10T12:08:41Z</time>
      </trkpt>
      <trkpt lat="44.0466" lon="6.16276">
        <ele>530.6</ele>
        <time>2021-09-10T12:08:42Z</time>
      </trkpt>
      <trkpt lat="44.04667" lon="6.16271">
        <ele>530.6</ele>
        <time>2021-09-10T12:08:44Z</time>
      </trkpt>
      <trkpt lat="44.04674" lon="6.16265">
        <ele>530.7</ele>
        <time>2021-09-10T12:08:46Z</time>
      </trkpt>
      <trkpt lat="44.04679" lon="6.16259">
        <ele>530.8</ele>
        <time>2021-09-10T12:08:48Z</time>
      </trkpt>
      <trkpt lat="44.04688" lon="6.16254">
        <ele>530.9</ele>
        <time>2021-09-10T12:08:50Z</time>
      </trkpt>
      <trkpt lat="44.04692" lon="6.16251">
        <ele>531</ele>
        <time>2021-09-10T12:08:51Z</time>
      </trkpt>
      <trkpt lat="44.04696" lon="6.16245">
        <ele>531.1</ele>
        <time>2021-09-10T12:08:53Z</time>
      </trkpt>
      <trkpt lat="44.04699" lon="6.16241">
        <ele>531.1</ele>
        <time>2021-09-10T12:08:54Z</time>
      </trkpt>
      <trkpt lat="44.04704" lon="6.16235">
        <ele>531.2</ele>
        <time>2021-09-10T12:08:56Z</time>
      </trkpt>
      <trkpt lat="44.04707" lon="6.16226">
        <ele>530.9</ele>
        <time>2021-09-10T12:08:57Z</time>
      </trkpt>
      <trkpt lat="44.04709" lon="6.16219">
        <ele>530.7</ele>
        <time>2021-09-10T12:08:59Z</time>
      </trkpt>
      <trkpt lat="44.04716" lon="6.16209">
        <ele>530.4</ele>
        <time>2021-09-10T12:09:00Z</time>
      </trkpt>
      <trkpt lat="44.0472" lon="6.16203">
        <ele>530.2</ele>
        <time>2021-09-10T12:09:02Z</time>
      </trkpt>
      <trkpt lat="44.04725" lon="6.16195">
        <ele>530</ele>
        <time>2021-09-10T12:09:03Z</time>
      </trkpt>
      <trkpt lat="44.04729" lon="6.16187">
        <ele>529.8</ele>
        <time>2021-09-10T12:09:05Z</time>
      </trkpt>
      <trkpt lat="44.04731" lon="6.16182">
        <ele>529.7</ele>
        <time>2021-09-10T12:09:06Z</time>
      </trkpt>
      <trkpt lat="44.04735" lon="6.16175">
        <ele>529.6</ele>
        <time>2021-09-10T12:09:07Z</time>
      </trkpt>
      <trkpt lat="44.04738" lon="6.16169">
        <ele>529.4</ele>
        <time>2021-09-10T12:09:08Z</time>
      </trkpt>
      <trkpt lat="44.04745" lon="6.16159">
        <ele>529.3</ele>
        <time>2021-09-10T12:09:10Z</time>
      </trkpt>
      <trkpt lat="44.04748" lon="6.16157">
        <ele>529.2</ele>
        <time>2021-09-10T12:09:11Z</time>
      </trkpt>
      <trkpt lat="44.04752" lon="6.16156">
        <ele>529.2</ele>
        <time>2021-09-10T12:09:12Z</time>
      </trkpt>
      <trkpt lat="44.04759" lon="6.16152">
        <ele>529.1</ele>
        <time>2021-09-10T12:09:14Z</time>
      </trkpt>
      <trkpt lat="44.04768" lon="6.16151">
        <ele>529</ele>
        <time>2021-09-10T12:09:16Z</time>
      </trkpt>
      <trkpt lat="44.04772" lon="6.16152">
        <ele>529</ele>
        <time>2021-09-10T12:09:17Z</time>
      </trkpt>
      <trkpt lat="44.04779" lon="6.16157">
        <ele>529.4</ele>
        <time>2021-09-10T12:09:19Z</time>
      </trkpt>
      <trkpt lat="44.04783" lon="6.16166">
        <ele>529.6</ele>
        <time>2021-09-10T12:09:21Z</time>
      </trkpt>
      <trkpt lat="44.04788" lon="6.16177">
        <ele>529.7</ele>
        <time>2021-09-10T12:09:23Z</time>
      </trkpt>
      <trkpt lat="44.04792" lon="6.16188">
        <ele>529.7</ele>
        <time>2021-09-10T12:09:24Z</time>
      </trkpt>
      <trkpt lat="44.04796" lon="6.16201">
        <ele>529.7</ele>
        <time>2021-09-10T12:09:26Z</time>
      </trkpt>
      <trkpt lat="44.048" lon="6.16216">
        <ele>529.6</ele>
        <time>2021-09-10T12:09:28Z</time>
      </trkpt>
      <trkpt lat="44.04804" lon="6.16233">
        <ele>529.5</ele>
        <time>2021-09-10T12:09:30Z</time>
      </trkpt>
      <trkpt lat="44.04805" lon="6.16239">
        <ele>529.4</ele>
        <time>2021-09-10T12:09:31Z</time>
      </trkpt>
      <trkpt lat="44.04806" lon="6.16247">
        <ele>529.4</ele>
        <time>2021-09-10T12:09:32Z</time>
      </trkpt>
      <trkpt lat="44.04807" lon="6.16251">
        <ele>529.4</ele>
        <time>2021-09-10T12:09:33Z</time>
      </trkpt>
      <trkpt lat="44.0481" lon="6.16266">
        <ele>529.4</ele>
        <time>2021-09-10T12:09:35Z</time>
      </trkpt>
      <trkpt lat="44.04813" lon="6.16278">
        <ele>529.5</ele>
        <time>2021-09-10T12:09:37Z</time>
      </trkpt>
      <trkpt lat="44.04817" lon="6.16291">
        <ele>529.5</ele>
        <time>2021-09-10T12:09:39Z</time>
      </trkpt>
      <trkpt lat="44.04819" lon="6.16299">
        <ele>529.6</ele>
        <time>2021-09-10T12:09:41Z</time>
      </trkpt>
      <trkpt lat="44.04821" lon="6.16305">
        <ele>529.6</ele>
        <time>2021-09-10T12:09:42Z</time>
      </trkpt>
      <trkpt lat="44.04825" lon="6.16312">
        <ele>529.7</ele>
        <time>2021-09-10T12:09:44Z</time>
      </trkpt>
      <trkpt lat="44.04829" lon="6.16321">
        <ele>529.8</ele>
        <time>2021-09-10T12:09:45Z</time>
      </trkpt>
      <trkpt lat="44.04834" lon="6.16331">
        <ele>529.9</ele>
        <time>2021-09-10T12:09:47Z</time>
      </trkpt>
      <trkpt lat="44.04837" lon="6.16337">
        <ele>530</ele>
        <time>2021-09-10T12:09:48Z</time>
      </trkpt>
      <trkpt lat="44.0484" lon="6.16343">
        <ele>530.1</ele>
        <time>2021-09-10T12:09:49Z</time>
      </trkpt>
      <trkpt lat="44.04843" lon="6.16347">
        <ele>530.1</ele>
        <time>2021-09-10T12:09:50Z</time>
      </trkpt>
      <trkpt lat="44.04849" lon="6.16354">
        <ele>530.3</ele>
        <time>2021-09-10T12:09:52Z</time>
      </trkpt>
      <trkpt lat="44.0485" lon="6.16358">
        <ele>530.3</ele>
        <time>2021-09-10T12:09:53Z</time>
      </trkpt>
      <trkpt lat="44.04851" lon="6.16362">
        <ele>530.4</ele>
        <time>2021-09-10T12:09:55Z</time>
      </trkpt>
      <trkpt lat="44.04851" lon="6.16363">
        <ele>530.4</ele>
        <time>2021-09-10T12:09:56Z</time>
      </trkpt>
      <trkpt lat="44.04853" lon="6.16364">
        <ele>530.4</ele>
        <time>2021-09-10T12:09:58Z</time>
      </trkpt>
      <trkpt lat="44.04854" lon="6.16365">
        <ele>530.4</ele>
        <time>2021-09-10T12:10:00Z</time>
      </trkpt>
      <trkpt lat="44.04854" lon="6.16366">
        <ele>530.5</ele>
        <time>2021-09-10T12:10:01Z</time>
      </trkpt>
      <trkpt lat="44.04855" lon="6.16366">
        <ele>530.5</ele>
        <time>2021-09-10T12:10:02Z</time>
      </trkpt>
      <trkpt lat="44.04856" lon="6.16366">
        <ele>530.5</ele>
        <time>2021-09-10T12:10:03Z</time>
      </trkpt>
      <trkpt lat="44.04857" lon="6.16366">
        <ele>530.5</ele>
        <time>2021-09-10T12:10:04Z</time>
      </trkpt>
      <trkpt lat="44.04858" lon="6.16367">
        <ele>530.5</ele>
        <time>2021-09-10T12:10:05Z</time>
      </trkpt>
      <trkpt lat="44.04859" lon="6.16368">
        <ele>530.5</ele>
        <time>2021-09-10T12:10:07Z</time>
      </trkpt>
      <trkpt lat="44.0486" lon="6.1637">
        <ele>530.5</ele>
        <time>2021-09-10T12:10:08Z</time>
      </trkpt>
      <trkpt lat="44.0486" lon="6.16371">
        <ele>530.5</ele>
        <time>2021-09-10T12:10:09Z</time>
      </trkpt>
      <trkpt lat="44.04862" lon="6.16373">
        <ele>530.5</ele>
        <time>2021-09-10T12:10:10Z</time>
      </trkpt>
      <trkpt lat="44.0487" lon="6.16381">
        <ele>530.6</ele>
        <time>2021-09-10T12:10:12Z</time>
      </trkpt>
      <trkpt lat="44.04884" lon="6.16391">
        <ele>530.6</ele>
        <time>2021-09-10T12:10:14Z</time>
      </trkpt>
      <trkpt lat="44.04893" lon="6.16393">
        <ele>530.6</ele>
        <time>2021-09-10T12:10:15Z</time>
      </trkpt>
      <trkpt lat="44.049" lon="6.16398">
        <ele>530.6</ele>
        <time>2021-09-10T12:10:17Z</time>
      </trkpt>
      <trkpt lat="44.04904" lon="6.164">
        <ele>530.6</ele>
        <time>2021-09-10T12:10:18Z</time>
      </trkpt>
      <trkpt lat="44.04911" lon="6.16402">
        <ele>530.7</ele>
        <time>2021-09-10T12:10:20Z</time>
      </trkpt>
      <trkpt lat="44.04915" lon="6.16403">
        <ele>530.7</ele>
        <time>2021-09-10T12:10:21Z</time>
      </trkpt>
      <trkpt lat="44.04921" lon="6.16405">
        <ele>530.8</ele>
        <time>2021-09-10T12:10:22Z</time>
      </trkpt>
      <trkpt lat="44.04925" lon="6.16407">
        <ele>530.8</ele>
        <time>2021-09-10T12:10:23Z</time>
      </trkpt>
      <trkpt lat="44.04932" lon="6.1641">
        <ele>530.9</ele>
        <time>2021-09-10T12:10:25Z</time>
      </trkpt>
      <trkpt lat="44.04935" lon="6.16412">
        <ele>531</ele>
        <time>2021-09-10T12:10:26Z</time>
      </trkpt>
      <trkpt lat="44.04943" lon="6.16418">
        <ele>531.1</ele>
        <time>2021-09-10T12:10:28Z</time>
      </trkpt>
      <trkpt lat="44.0495" lon="6.16424">
        <ele>531.2</ele>
        <time>2021-09-10T12:10:29Z</time>
      </trkpt>
      <trkpt lat="44.04954" lon="6.16428">
        <ele>531.2</ele>
        <time>2021-09-10T12:10:31Z</time>
      </trkpt>
      <trkpt lat="44.04958" lon="6.1643">
        <ele>531.3</ele>
        <time>2021-09-10T12:10:32Z</time>
      </trkpt>
      <trkpt lat="44.04965" lon="6.16431">
        <ele>531.3</ele>
        <time>2021-09-10T12:10:33Z</time>
      </trkpt>
      <trkpt lat="44.04968" lon="6.16431">
        <ele>531.4</ele>
        <time>2021-09-10T12:10:34Z</time>
      </trkpt>
      <trkpt lat="44.04971" lon="6.16433">
        <ele>531.4</ele>
        <time>2021-09-10T12:10:35Z</time>
      </trkpt>
      <trkpt lat="44.04975" lon="6.16438">
        <ele>531.4</ele>
        <time>2021-09-10T12:10:37Z</time>
      </trkpt>
      <trkpt lat="44.04981" lon="6.16444">
        <ele>531.5</ele>
        <time>2021-09-10T12:10:39Z</time>
      </trkpt>
      <trkpt lat="44.04987" lon="6.16443">
        <ele>531.5</ele>
        <time>2021-09-10T12:10:41Z</time>
      </trkpt>
      <trkpt lat="44.0499" lon="6.1644">
        <ele>530.8</ele>
        <time>2021-09-10T12:10:42Z</time>
      </trkpt>
      <trkpt lat="44.04991" lon="6.16431">
        <ele>530.4</ele>
        <time>2021-09-10T12:10:43Z</time>
      </trkpt>
      <trkpt lat="44.04998" lon="6.16418">
        <ele>529.9</ele>
        <time>2021-09-10T12:10:45Z</time>
      </trkpt>
      <trkpt lat="44.05004" lon="6.16405">
        <ele>529.5</ele>
        <time>2021-09-10T12:10:47Z</time>
      </trkpt>
      <trkpt lat="44.05008" lon="6.16399">
        <ele>529.3</ele>
        <time>2021-09-10T12:10:48Z</time>
      </trkpt>
      <trkpt lat="44.05015" lon="6.16387">
        <ele>528.9</ele>
        <time>2021-09-10T12:10:50Z</time>
      </trkpt>
      <trkpt lat="44.05025" lon="6.16376">
        <ele>528.3</ele>
        <time>2021-09-10T12:10:52Z</time>
      </trkpt>
      <trkpt lat="44.05038" lon="6.16366">
        <ele>527.6</ele>
        <time>2021-09-10T12:10:54Z</time>
      </trkpt>
      <trkpt lat="44.05045" lon="6.1636">
        <ele>527.3</ele>
        <time>2021-09-10T12:10:55Z</time>
      </trkpt>
      <trkpt lat="44.05052" lon="6.16353">
        <ele>526.9</ele>
        <time>2021-09-10T12:10:56Z</time>
      </trkpt>
      <trkpt lat="44.05067" lon="6.1634">
        <ele>526.4</ele>
        <time>2021-09-10T12:10:58Z</time>
      </trkpt>
      <trkpt lat="44.05073" lon="6.16334">
        <ele>526.3</ele>
        <time>2021-09-10T12:10:59Z</time>
      </trkpt>
      <trkpt lat="44.0508" lon="6.16327">
        <ele>526.3</ele>
        <time>2021-09-10T12:11:00Z</time>
      </trkpt>
      <trkpt lat="44.05086" lon="6.16321">
        <ele>526.3</ele>
        <time>2021-09-10T12:11:01Z</time>
      </trkpt>
      <trkpt lat="44.05091" lon="6.16314">
        <ele>526.3</ele>
        <time>2021-09-10T12:11:02Z</time>
      </trkpt>
      <trkpt lat="44.05101" lon="6.163">
        <ele>526.5</ele>
        <time>2021-09-10T12:11:04Z</time>
      </trkpt>
      <trkpt lat="44.05111" lon="6.16287">
        <ele>526.6</ele>
        <time>2021-09-10T12:11:06Z</time>
      </trkpt>
      <trkpt lat="44.05121" lon="6.16277">
        <ele>526.8</ele>
        <time>2021-09-10T12:11:08Z</time>
      </trkpt>
      <trkpt lat="44.0513" lon="6.16271">
        <ele>526.9</ele>
        <time>2021-09-10T12:11:10Z</time>
      </trkpt>
      <trkpt lat="44.05138" lon="6.16268">
        <ele>527</ele>
        <time>2021-09-10T12:11:12Z</time>
      </trkpt>
      <trkpt lat="44.05148" lon="6.16266">
        <ele>527</ele>
        <time>2021-09-10T12:11:14Z</time>
      </trkpt>
      <trkpt lat="44.05157" lon="6.16261">
        <ele>527.1</ele>
        <time>2021-09-10T12:11:16Z</time>
      </trkpt>
      <trkpt lat="44.05162" lon="6.16259">
        <ele>527.1</ele>
        <time>2021-09-10T12:11:17Z</time>
      </trkpt>
      <trkpt lat="44.05167" lon="6.16257">
        <ele>527.2</ele>
        <time>2021-09-10T12:11:18Z</time>
      </trkpt>
      <trkpt lat="44.05175" lon="6.16255">
        <ele>527.3</ele>
        <time>2021-09-10T12:11:20Z</time>
      </trkpt>
      <trkpt lat="44.05179" lon="6.16254">
        <ele>527.3</ele>
        <time>2021-09-10T12:11:21Z</time>
      </trkpt>
      <trkpt lat="44.05183" lon="6.16255">
        <ele>527.4</ele>
        <time>2021-09-10T12:11:22Z</time>
      </trkpt>
      <trkpt lat="44.05192" lon="6.16256">
        <ele>527.5</ele>
        <time>2021-09-10T12:11:24Z</time>
      </trkpt>
      <trkpt lat="44.05197" lon="6.16258">
        <ele>527.5</ele>
        <time>2021-09-10T12:11:25Z</time>
      </trkpt>
      <trkpt lat="44.052" lon="6.16254">
        <ele>527.6</ele>
        <time>2021-09-10T12:11:27Z</time>
      </trkpt>
      <trkpt lat="44.05205" lon="6.16262">
        <ele>527.7</ele>
        <time>2021-09-10T12:11:28Z</time>
      </trkpt>
      <trkpt lat="44.05213" lon="6.16274">
        <ele>527.8</ele>
        <time>2021-09-10T12:11:30Z</time>
      </trkpt>
      <trkpt lat="44.05212" lon="6.16279">
        <ele>527.9</ele>
        <time>2021-09-10T12:11:32Z</time>
      </trkpt>
      <trkpt lat="44.05221" lon="6.16289">
        <ele>528.1</ele>
        <time>2021-09-10T12:11:34Z</time>
      </trkpt>
      <trkpt lat="44.05228" lon="6.16301">
        <ele>528.3</ele>
        <time>2021-09-10T12:11:35Z</time>
      </trkpt>
      <trkpt lat="44.05233" lon="6.16308">
        <ele>528.4</ele>
        <time>2021-09-10T12:11:36Z</time>
      </trkpt>
      <trkpt lat="44.05236" lon="6.16317">
        <ele>528.5</ele>
        <time>2021-09-10T12:11:38Z</time>
      </trkpt>
      <trkpt lat="44.05237" lon="6.16324">
        <ele>528.6</ele>
        <time>2021-09-10T12:11:39Z</time>
      </trkpt>
      <trkpt lat="44.05242" lon="6.16332">
        <ele>528.6</ele>
        <time>2021-09-10T12:11:40Z</time>
      </trkpt>
      <trkpt lat="44.05245" lon="6.16338">
        <ele>528.7</ele>
        <time>2021-09-10T12:11:41Z</time>
      </trkpt>
      <trkpt lat="44.05247" lon="6.16343">
        <ele>528.7</ele>
        <time>2021-09-10T12:11:42Z</time>
      </trkpt>
      <trkpt lat="44.05255" lon="6.16351">
        <ele>528.8</ele>
        <time>2021-09-10T12:11:43Z</time>
      </trkpt>
      <trkpt lat="44.05259" lon="6.16356">
        <ele>528.9</ele>
        <time>2021-09-10T12:11:45Z</time>
      </trkpt>
      <trkpt lat="44.05264" lon="6.16361">
        <ele>529</ele>
        <time>2021-09-10T12:11:46Z</time>
      </trkpt>
      <trkpt lat="44.0527" lon="6.16366">
        <ele>529.1</ele>
        <time>2021-09-10T12:11:48Z</time>
      </trkpt>
      <trkpt lat="44.05276" lon="6.16375">
        <ele>529.2</ele>
        <time>2021-09-10T12:11:50Z</time>
      </trkpt>
      <trkpt lat="44.05278" lon="6.16379">
        <ele>529.2</ele>
        <time>2021-09-10T12:11:51Z</time>
      </trkpt>
      <trkpt lat="44.05281" lon="6.16383">
        <ele>529.3</ele>
        <time>2021-09-10T12:11:52Z</time>
      </trkpt>
      <trkpt lat="44.05283" lon="6.16386">
        <ele>529.3</ele>
        <time>2021-09-10T12:11:53Z</time>
      </trkpt>
      <trkpt lat="44.05286" lon="6.16389">
        <ele>529.3</ele>
        <time>2021-09-10T12:11:54Z</time>
      </trkpt>
      <trkpt lat="44.05289" lon="6.16394">
        <ele>529.2</ele>
        <time>2021-09-10T12:11:55Z</time>
      </trkpt>
      <trkpt lat="44.05291" lon="6.16398">
        <ele>529.2</ele>
        <time>2021-09-10T12:11:56Z</time>
      </trkpt>
      <trkpt lat="44.05296" lon="6.16402">
        <ele>529.2</ele>
        <time>2021-09-10T12:11:57Z</time>
      </trkpt>
      <trkpt lat="44.05301" lon="6.16406">
        <ele>529.2</ele>
        <time>2021-09-10T12:11:59Z</time>
      </trkpt>
      <trkpt lat="44.05307" lon="6.1641">
        <ele>529.2</ele>
        <time>2021-09-10T12:12:00Z</time>
      </trkpt>
      <trkpt lat="44.05311" lon="6.16413">
        <ele>529.2</ele>
        <time>2021-09-10T12:12:01Z</time>
      </trkpt>
      <trkpt lat="44.05316" lon="6.16415">
        <ele>529.2</ele>
        <time>2021-09-10T12:12:03Z</time>
      </trkpt>
      <trkpt lat="44.05321" lon="6.16422">
        <ele>529.2</ele>
        <time>2021-09-10T12:12:04Z</time>
      </trkpt>
      <trkpt lat="44.05326" lon="6.1643">
        <ele>529.3</ele>
        <time>2021-09-10T12:12:06Z</time>
      </trkpt>
      <trkpt lat="44.05331" lon="6.16438">
        <ele>529.3</ele>
        <time>2021-09-10T12:12:07Z</time>
      </trkpt>
      <trkpt lat="44.05335" lon="6.16444">
        <ele>529.3</ele>
        <time>2021-09-10T12:12:09Z</time>
      </trkpt>
      <trkpt lat="44.05337" lon="6.16449">
        <ele>529.4</ele>
        <time>2021-09-10T12:12:10Z</time>
      </trkpt>
      <trkpt lat="44.0534" lon="6.16454">
        <ele>529.4</ele>
        <time>2021-09-10T12:12:11Z</time>
      </trkpt>
      <trkpt lat="44.05342" lon="6.16457">
        <ele>529.4</ele>
        <time>2021-09-10T12:12:12Z</time>
      </trkpt>
      <trkpt lat="44.05346" lon="6.16463">
        <ele>529.5</ele>
        <time>2021-09-10T12:12:13Z</time>
      </trkpt>
      <trkpt lat="44.05349" lon="6.16467">
        <ele>529.5</ele>
        <time>2021-09-10T12:12:15Z</time>
      </trkpt>
      <trkpt lat="44.05352" lon="6.16472">
        <ele>529.5</ele>
        <time>2021-09-10T12:12:16Z</time>
      </trkpt>
      <trkpt lat="44.05354" lon="6.16476">
        <ele>529.6</ele>
        <time>2021-09-10T12:12:17Z</time>
      </trkpt>
      <trkpt lat="44.05355" lon="6.16478">
        <ele>529.6</ele>
        <time>2021-09-10T12:12:18Z</time>
      </trkpt>
      <trkpt lat="44.05359" lon="6.16484">
        <ele>529.7</ele>
        <time>2021-09-10T12:12:20Z</time>
      </trkpt>
      <trkpt lat="44.05362" lon="6.16487">
        <ele>529.8</ele>
        <time>2021-09-10T12:12:21Z</time>
      </trkpt>
      <trkpt lat="44.05366" lon="6.16491">
        <ele>529.9</ele>
        <time>2021-09-10T12:12:22Z</time>
      </trkpt>
      <trkpt lat="44.0537" lon="6.16496">
        <ele>529.9</ele>
        <time>2021-09-10T12:12:23Z</time>
      </trkpt>
      <trkpt lat="44.05373" lon="6.16501">
        <ele>530</ele>
        <time>2021-09-10T12:12:24Z</time>
      </trkpt>
      <trkpt lat="44.05375" lon="6.16505">
        <ele>530.1</ele>
        <time>2021-09-10T12:12:25Z</time>
      </trkpt>
      <trkpt lat="44.05378" lon="6.16509">
        <ele>530.2</ele>
        <time>2021-09-10T12:12:27Z</time>
      </trkpt>
      <trkpt lat="44.05381" lon="6.16514">
        <ele>530.2</ele>
        <time>2021-09-10T12:12:28Z</time>
      </trkpt>
      <trkpt lat="44.05385" lon="6.1652">
        <ele>530.4</ele>
        <time>2021-09-10T12:12:29Z</time>
      </trkpt>
      <trkpt lat="44.05389" lon="6.16524">
        <ele>530.4</ele>
        <time>2021-09-10T12:12:31Z</time>
      </trkpt>
      <trkpt lat="44.05391" lon="6.16527">
        <ele>530.5</ele>
        <time>2021-09-10T12:12:32Z</time>
      </trkpt>
      <trkpt lat="44.05396" lon="6.16532">
        <ele>530.6</ele>
        <time>2021-09-10T12:12:34Z</time>
      </trkpt>
      <trkpt lat="44.05398" lon="6.16535">
        <ele>530.7</ele>
        <time>2021-09-10T12:12:35Z</time>
      </trkpt>
      <trkpt lat="44.05401" lon="6.16539">
        <ele>530.7</ele>
        <time>2021-09-10T12:12:36Z</time>
      </trkpt>
      <trkpt lat="44.05404" lon="6.16544">
        <ele>530.8</ele>
        <time>2021-09-10T12:12:38Z</time>
      </trkpt>
      <trkpt lat="44.05408" lon="6.1655">
        <ele>530.9</ele>
        <time>2021-09-10T12:12:39Z</time>
      </trkpt>
      <trkpt lat="44.05412" lon="6.16555">
        <ele>531</ele>
        <time>2021-09-10T12:12:41Z</time>
      </trkpt>
      <trkpt lat="44.05416" lon="6.16559">
        <ele>531.1</ele>
        <time>2021-09-10T12:12:43Z</time>
      </trkpt>
      <trkpt lat="44.05419" lon="6.16561">
        <ele>531.1</ele>
        <time>2021-09-10T12:12:44Z</time>
      </trkpt>
      <trkpt lat="44.05422" lon="6.16563">
        <ele>531.2</ele>
        <time>2021-09-10T12:12:46Z</time>
      </trkpt>
      <trkpt lat="44.05425" lon="6.16566">
        <ele>531.3</ele>
        <time>2021-09-10T12:12:48Z</time>
      </trkpt>
      <trkpt lat="44.0543" lon="6.16572">
        <ele>531.4</ele>
        <time>2021-09-10T12:12:50Z</time>
      </trkpt>
      <trkpt lat="44.05432" lon="6.16575">
        <ele>531.4</ele>
        <time>2021-09-10T12:12:51Z</time>
      </trkpt>
      <trkpt lat="44.05436" lon="6.16579">
        <ele>531.5</ele>
        <time>2021-09-10T12:12:53Z</time>
      </trkpt>
      <trkpt lat="44.05439" lon="6.16581">
        <ele>531.6</ele>
        <time>2021-09-10T12:12:54Z</time>
      </trkpt>
      <trkpt lat="44.05443" lon="6.16586">
        <ele>531.7</ele>
        <time>2021-09-10T12:12:56Z</time>
      </trkpt>
      <trkpt lat="44.05446" lon="6.1659">
        <ele>531.8</ele>
        <time>2021-09-10T12:12:57Z</time>
      </trkpt>
      <trkpt lat="44.05449" lon="6.16594">
        <ele>531.9</ele>
        <time>2021-09-10T12:12:58Z</time>
      </trkpt>
      <trkpt lat="44.0545" lon="6.16595">
        <ele>531.9</ele>
        <time>2021-09-10T12:12:59Z</time>
      </trkpt>
      <trkpt lat="44.05455" lon="6.166">
        <ele>532</ele>
        <time>2021-09-10T12:13:01Z</time>
      </trkpt>
      <trkpt lat="44.05459" lon="6.16604">
        <ele>532</ele>
        <time>2021-09-10T12:13:02Z</time>
      </trkpt>
      <trkpt lat="44.05464" lon="6.16609">
        <ele>532.1</ele>
        <time>2021-09-10T12:13:03Z</time>
      </trkpt>
      <trkpt lat="44.05468" lon="6.16613">
        <ele>532.2</ele>
        <time>2021-09-10T12:13:05Z</time>
      </trkpt>
      <trkpt lat="44.05471" lon="6.16616">
        <ele>532.3</ele>
        <time>2021-09-10T12:13:06Z</time>
      </trkpt>
      <trkpt lat="44.05476" lon="6.16622">
        <ele>532.4</ele>
        <time>2021-09-10T12:13:08Z</time>
      </trkpt>
      <trkpt lat="44.05481" lon="6.16627">
        <ele>532.5</ele>
        <time>2021-09-10T12:13:10Z</time>
      </trkpt>
      <trkpt lat="44.05487" lon="6.16631">
        <ele>532.6</ele>
        <time>2021-09-10T12:13:12Z</time>
      </trkpt>
      <trkpt lat="44.05491" lon="6.16634">
        <ele>532.7</ele>
        <time>2021-09-10T12:13:14Z</time>
      </trkpt>
      <trkpt lat="44.05495" lon="6.16638">
        <ele>532.7</ele>
        <time>2021-09-10T12:13:15Z</time>
      </trkpt>
      <trkpt lat="44.05498" lon="6.1664">
        <ele>532.8</ele>
        <time>2021-09-10T12:13:16Z</time>
      </trkpt>
      <trkpt lat="44.05501" lon="6.16644">
        <ele>532.8</ele>
        <time>2021-09-10T12:13:17Z</time>
      </trkpt>
      <trkpt lat="44.05503" lon="6.16647">
        <ele>532.9</ele>
        <time>2021-09-10T12:13:18Z</time>
      </trkpt>
      <trkpt lat="44.05507" lon="6.16655">
        <ele>532.9</ele>
        <time>2021-09-10T12:13:20Z</time>
      </trkpt>
      <trkpt lat="44.05511" lon="6.16659">
        <ele>533</ele>
        <time>2021-09-10T12:13:21Z</time>
      </trkpt>
      <trkpt lat="44.05515" lon="6.16663">
        <ele>533</ele>
        <time>2021-09-10T12:13:23Z</time>
      </trkpt>
      <trkpt lat="44.05517" lon="6.16666">
        <ele>533.1</ele>
        <time>2021-09-10T12:13:24Z</time>
      </trkpt>
      <trkpt lat="44.05521" lon="6.16673">
        <ele>533.1</ele>
        <time>2021-09-10T12:13:25Z</time>
      </trkpt>
      <trkpt lat="44.05524" lon="6.16678">
        <ele>533.1</ele>
        <time>2021-09-10T12:13:26Z</time>
      </trkpt>
      <trkpt lat="44.0553" lon="6.16681">
        <ele>533.2</ele>
        <time>2021-09-10T12:13:27Z</time>
      </trkpt>
      <trkpt lat="44.05535" lon="6.16691">
        <ele>533.2</ele>
        <time>2021-09-10T12:13:29Z</time>
      </trkpt>
      <trkpt lat="44.05537" lon="6.16696">
        <ele>533.2</ele>
        <time>2021-09-10T12:13:30Z</time>
      </trkpt>
      <trkpt lat="44.05541" lon="6.16702">
        <ele>533.3</ele>
        <time>2021-09-10T12:13:32Z</time>
      </trkpt>
      <trkpt lat="44.05544" lon="6.16708">
        <ele>533.4</ele>
        <time>2021-09-10T12:13:34Z</time>
      </trkpt>
      <trkpt lat="44.05548" lon="6.16714">
        <ele>533.4</ele>
        <time>2021-09-10T12:13:35Z</time>
      </trkpt>
      <trkpt lat="44.05551" lon="6.16718">
        <ele>533.4</ele>
        <time>2021-09-10T12:13:36Z</time>
      </trkpt>
      <trkpt lat="44.05555" lon="6.16724">
        <ele>533.5</ele>
        <time>2021-09-10T12:13:38Z</time>
      </trkpt>
      <trkpt lat="44.05559" lon="6.16729">
        <ele>533.5</ele>
        <time>2021-09-10T12:13:39Z</time>
      </trkpt>
      <trkpt lat="44.05564" lon="6.16735">
        <ele>533.6</ele>
        <time>2021-09-10T12:13:41Z</time>
      </trkpt>
      <trkpt lat="44.05567" lon="6.16739">
        <ele>533.7</ele>
        <time>2021-09-10T12:13:42Z</time>
      </trkpt>
      <trkpt lat="44.05569" lon="6.16742">
        <ele>533.7</ele>
        <time>2021-09-10T12:13:43Z</time>
      </trkpt>
      <trkpt lat="44.05571" lon="6.16746">
        <ele>533.7</ele>
        <time>2021-09-10T12:13:44Z</time>
      </trkpt>
      <trkpt lat="44.05575" lon="6.16751">
        <ele>533.8</ele>
        <time>2021-09-10T12:13:46Z</time>
      </trkpt>
      <trkpt lat="44.05578" lon="6.16754">
        <ele>533.9</ele>
        <time>2021-09-10T12:13:47Z</time>
      </trkpt>
      <trkpt lat="44.05582" lon="6.1676">
        <ele>534</ele>
        <time>2021-09-10T12:13:48Z</time>
      </trkpt>
      <trkpt lat="44.05586" lon="6.16765">
        <ele>534.1</ele>
        <time>2021-09-10T12:13:50Z</time>
      </trkpt>
      <trkpt lat="44.0559" lon="6.16771">
        <ele>534.2</ele>
        <time>2021-09-10T12:13:51Z</time>
      </trkpt>
      <trkpt lat="44.05594" lon="6.16777">
        <ele>534.3</ele>
        <time>2021-09-10T12:13:53Z</time>
      </trkpt>
      <trkpt lat="44.05597" lon="6.16781">
        <ele>534.4</ele>
        <time>2021-09-10T12:13:54Z</time>
      </trkpt>
      <trkpt lat="44.05603" lon="6.16787">
        <ele>534.5</ele>
        <time>2021-09-10T12:13:56Z</time>
      </trkpt>
      <trkpt lat="44.05609" lon="6.16793">
        <ele>534.6</ele>
        <time>2021-09-10T12:13:58Z</time>
      </trkpt>
      <trkpt lat="44.05613" lon="6.168">
        <ele>534.7</ele>
        <time>2021-09-10T12:14:00Z</time>
      </trkpt>
      <trkpt lat="44.05616" lon="6.16807">
        <ele>534.8</ele>
        <time>2021-09-10T12:14:02Z</time>
      </trkpt>
      <trkpt lat="44.05616" lon="6.16813">
        <ele>534.9</ele>
        <time>2021-09-10T12:14:04Z</time>
      </trkpt>
      <trkpt lat="44.05616" lon="6.16818">
        <ele>534.9</ele>
        <time>2021-09-10T12:14:06Z</time>
      </trkpt>
      <trkpt lat="44.05618" lon="6.16822">
        <ele>535</ele>
        <time>2021-09-10T12:14:08Z</time>
      </trkpt>
      <trkpt lat="44.05618" lon="6.16824">
        <ele>535</ele>
        <time>2021-09-10T12:14:09Z</time>
      </trkpt>
      <trkpt lat="44.05618" lon="6.16829">
        <ele>535.1</ele>
        <time>2021-09-10T12:14:11Z</time>
      </trkpt>
      <trkpt lat="44.05618" lon="6.16833">
        <ele>535.2</ele>
        <time>2021-09-10T12:14:12Z</time>
      </trkpt>
      <trkpt lat="44.05619" lon="6.16839">
        <ele>535.2</ele>
        <time>2021-09-10T12:14:14Z</time>
      </trkpt>
      <trkpt lat="44.0562" lon="6.16843">
        <ele>535.3</ele>
        <time>2021-09-10T12:14:15Z</time>
      </trkpt>
      <trkpt lat="44.05621" lon="6.16845">
        <ele>535.3</ele>
        <time>2021-09-10T12:14:16Z</time>
      </trkpt>
      <trkpt lat="44.05621" lon="6.16847">
        <ele>535.3</ele>
        <time>2021-09-10T12:14:17Z</time>
      </trkpt>
      <trkpt lat="44.05622" lon="6.16853">
        <ele>535.4</ele>
        <time>2021-09-10T12:14:18Z</time>
      </trkpt>
      <trkpt lat="44.05623" lon="6.16856">
        <ele>535.5</ele>
        <time>2021-09-10T12:14:19Z</time>
      </trkpt>
      <trkpt lat="44.05625" lon="6.1686">
        <ele>535.5</ele>
        <time>2021-09-10T12:14:21Z</time>
      </trkpt>
      <trkpt lat="44.05628" lon="6.16866">
        <ele>535.6</ele>
        <time>2021-09-10T12:14:22Z</time>
      </trkpt>
      <trkpt lat="44.05628" lon="6.1687">
        <ele>535.7</ele>
        <time>2021-09-10T12:14:23Z</time>
      </trkpt>
      <trkpt lat="44.05629" lon="6.16878">
        <ele>535.8</ele>
        <time>2021-09-10T12:14:25Z</time>
      </trkpt>
      <trkpt lat="44.0563" lon="6.16888">
        <ele>535.9</ele>
        <time>2021-09-10T12:14:26Z</time>
      </trkpt>
      <trkpt lat="44.05631" lon="6.16893">
        <ele>536</ele>
        <time>2021-09-10T12:14:28Z</time>
      </trkpt>
      <trkpt lat="44.05632" lon="6.16897">
        <ele>536</ele>
        <time>2021-09-10T12:14:29Z</time>
      </trkpt>
      <trkpt lat="44.05631" lon="6.16897">
        <ele>536</ele>
        <time>2021-09-10T12:14:30Z</time>
      </trkpt>
      <trkpt lat="44.05631" lon="6.16898">
        <ele>536.1</ele>
        <time>2021-09-10T12:14:32Z</time>
      </trkpt>
      <trkpt lat="44.05631" lon="6.16898">
        <ele>536.1</ele>
        <time>2021-09-10T12:14:33Z</time>
      </trkpt>
      <trkpt lat="44.0563" lon="6.16898">
        <ele>536.1</ele>
        <time>2021-09-10T12:14:35Z</time>
      </trkpt>
      <trkpt lat="44.0563" lon="6.16899">
        <ele>536.1</ele>
        <time>2021-09-10T12:14:36Z</time>
      </trkpt>
      <trkpt lat="44.05631" lon="6.16901">
        <ele>536.1</ele>
        <time>2021-09-10T12:14:37Z</time>
      </trkpt>
      <trkpt lat="44.05632" lon="6.16904">
        <ele>536.2</ele>
        <time>2021-09-10T12:14:39Z</time>
      </trkpt>
      <trkpt lat="44.05634" lon="6.16913">
        <ele>536.4</ele>
        <time>2021-09-10T12:14:41Z</time>
      </trkpt>
      <trkpt lat="44.05639" lon="6.16921">
        <ele>536.5</ele>
        <time>2021-09-10T12:14:42Z</time>
      </trkpt>
      <trkpt lat="44.05642" lon="6.16926">
        <ele>536.7</ele>
        <time>2021-09-10T12:14:43Z</time>
      </trkpt>
      <trkpt lat="44.05646" lon="6.16932">
        <ele>536.9</ele>
        <time>2021-09-10T12:14:44Z</time>
      </trkpt>
      <trkpt lat="44.05649" lon="6.16937">
        <ele>537</ele>
        <time>2021-09-10T12:14:46Z</time>
      </trkpt>
      <trkpt lat="44.05651" lon="6.1694">
        <ele>537.1</ele>
        <time>2021-09-10T12:14:47Z</time>
      </trkpt>
      <trkpt lat="44.05654" lon="6.16944">
        <ele>537.2</ele>
        <time>2021-09-10T12:14:48Z</time>
      </trkpt>
      <trkpt lat="44.05657" lon="6.16947">
        <ele>537.3</ele>
        <time>2021-09-10T12:14:49Z</time>
      </trkpt>
      <trkpt lat="44.05661" lon="6.1696">
        <ele>537.6</ele>
        <time>2021-09-10T12:14:51Z</time>
      </trkpt>
      <trkpt lat="44.05663" lon="6.16969">
        <ele>537.8</ele>
        <time>2021-09-10T12:14:52Z</time>
      </trkpt>
      <trkpt lat="44.05665" lon="6.16976">
        <ele>537.9</ele>
        <time>2021-09-10T12:14:54Z</time>
      </trkpt>
      <trkpt lat="44.05669" lon="6.16986">
        <ele>538.3</ele>
        <time>2021-09-10T12:14:55Z</time>
      </trkpt>
      <trkpt lat="44.05672" lon="6.16993">
        <ele>538.6</ele>
        <time>2021-09-10T12:14:57Z</time>
      </trkpt>
      <trkpt lat="44.05673" lon="6.16997">
        <ele>538.8</ele>
        <time>2021-09-10T12:14:58Z</time>
      </trkpt>
      <trkpt lat="44.05674" lon="6.17001">
        <ele>538.9</ele>
        <time>2021-09-10T12:14:59Z</time>
      </trkpt>
      <trkpt lat="44.05676" lon="6.17008">
        <ele>539.1</ele>
        <time>2021-09-10T12:15:01Z</time>
      </trkpt>
      <trkpt lat="44.05676" lon="6.17012">
        <ele>539.2</ele>
        <time>2021-09-10T12:15:02Z</time>
      </trkpt>
      <trkpt lat="44.05678" lon="6.17021">
        <ele>539.4</ele>
        <time>2021-09-10T12:15:04Z</time>
      </trkpt>
      <trkpt lat="44.0568" lon="6.17026">
        <ele>539.5</ele>
        <time>2021-09-10T12:15:05Z</time>
      </trkpt>
      <trkpt lat="44.05684" lon="6.17034">
        <ele>539.5</ele>
        <time>2021-09-10T12:15:06Z</time>
      </trkpt>
      <trkpt lat="44.05687" lon="6.17043">
        <ele>539.5</ele>
        <time>2021-09-10T12:15:08Z</time>
      </trkpt>
      <trkpt lat="44.05692" lon="6.17052">
        <ele>539.4</ele>
        <time>2021-09-10T12:15:09Z</time>
      </trkpt>
      <trkpt lat="44.05694" lon="6.17058">
        <ele>539.4</ele>
        <time>2021-09-10T12:15:10Z</time>
      </trkpt>
      <trkpt lat="44.05696" lon="6.17063">
        <ele>539.4</ele>
        <time>2021-09-10T12:15:12Z</time>
      </trkpt>
      <trkpt lat="44.05698" lon="6.17069">
        <ele>539.4</ele>
        <time>2021-09-10T12:15:13Z</time>
      </trkpt>
      <trkpt lat="44.057" lon="6.17078">
        <ele>539.3</ele>
        <time>2021-09-10T12:15:15Z</time>
      </trkpt>
      <trkpt lat="44.05703" lon="6.17091">
        <ele>539.3</ele>
        <time>2021-09-10T12:15:17Z</time>
      </trkpt>
      <trkpt lat="44.05704" lon="6.17099">
        <ele>539.2</ele>
        <time>2021-09-10T12:15:18Z</time>
      </trkpt>
      <trkpt lat="44.05706" lon="6.17112">
        <ele>539.1</ele>
        <time>2021-09-10T12:15:20Z</time>
      </trkpt>
      <trkpt lat="44.0571" lon="6.17132">
        <ele>539</ele>
        <time>2021-09-10T12:15:22Z</time>
      </trkpt>
      <trkpt lat="44.0571" lon="6.1714">
        <ele>538.9</ele>
        <time>2021-09-10T12:15:23Z</time>
      </trkpt>
      <trkpt lat="44.05712" lon="6.17145">
        <ele>538.9</ele>
        <time>2021-09-10T12:15:24Z</time>
      </trkpt>
      <trkpt lat="44.05714" lon="6.1715">
        <ele>538.8</ele>
        <time>2021-09-10T12:15:25Z</time>
      </trkpt>
      <trkpt lat="44.05718" lon="6.17155">
        <ele>538.8</ele>
        <time>2021-09-10T12:15:27Z</time>
      </trkpt>
      <trkpt lat="44.0572" lon="6.1716">
        <ele>538.8</ele>
        <time>2021-09-10T12:15:29Z</time>
      </trkpt>
      <trkpt lat="44.05723" lon="6.17166">
        <ele>538.7</ele>
        <time>2021-09-10T12:15:30Z</time>
      </trkpt>
      <trkpt lat="44.05727" lon="6.17171">
        <ele>538.7</ele>
        <time>2021-09-10T12:15:32Z</time>
      </trkpt>
      <trkpt lat="44.05731" lon="6.17175">
        <ele>538.7</ele>
        <time>2021-09-10T12:15:33Z</time>
      </trkpt>
      <trkpt lat="44.05735" lon="6.17178">
        <ele>538.6</ele>
        <time>2021-09-10T12:15:34Z</time>
      </trkpt>
      <trkpt lat="44.05738" lon="6.17182">
        <ele>538.6</ele>
        <time>2021-09-10T12:15:35Z</time>
      </trkpt>
      <trkpt lat="44.05741" lon="6.17186">
        <ele>538.6</ele>
        <time>2021-09-10T12:15:36Z</time>
      </trkpt>
      <trkpt lat="44.05742" lon="6.17191">
        <ele>538.6</ele>
        <time>2021-09-10T12:15:37Z</time>
      </trkpt>
      <trkpt lat="44.05746" lon="6.17194">
        <ele>538.6</ele>
        <time>2021-09-10T12:15:39Z</time>
      </trkpt>
      <trkpt lat="44.05749" lon="6.17198">
        <ele>538.6</ele>
        <time>2021-09-10T12:15:40Z</time>
      </trkpt>
      <trkpt lat="44.05753" lon="6.17203">
        <ele>538.5</ele>
        <time>2021-09-10T12:15:42Z</time>
      </trkpt>
      <trkpt lat="44.05757" lon="6.17208">
        <ele>538.5</ele>
        <time>2021-09-10T12:15:43Z</time>
      </trkpt>
      <trkpt lat="44.05763" lon="6.17214">
        <ele>538.5</ele>
        <time>2021-09-10T12:15:44Z</time>
      </trkpt>
      <trkpt lat="44.0577" lon="6.17219">
        <ele>538.4</ele>
        <time>2021-09-10T12:15:46Z</time>
      </trkpt>
      <trkpt lat="44.05776" lon="6.17224">
        <ele>538.4</ele>
        <time>2021-09-10T12:15:48Z</time>
      </trkpt>
      <trkpt lat="44.05785" lon="6.1723">
        <ele>538.4</ele>
        <time>2021-09-10T12:15:49Z</time>
      </trkpt>
      <trkpt lat="44.05792" lon="6.17237">
        <ele>538.4</ele>
        <time>2021-09-10T12:15:51Z</time>
      </trkpt>
      <trkpt lat="44.05796" lon="6.17242">
        <ele>538.4</ele>
        <time>2021-09-10T12:15:52Z</time>
      </trkpt>
      <trkpt lat="44.05799" lon="6.17248">
        <ele>538.4</ele>
        <time>2021-09-10T12:15:54Z</time>
      </trkpt>
      <trkpt lat="44.05804" lon="6.17255">
        <ele>538.4</ele>
        <time>2021-09-10T12:15:55Z</time>
      </trkpt>
      <trkpt lat="44.05807" lon="6.1726">
        <ele>538.5</ele>
        <time>2021-09-10T12:15:56Z</time>
      </trkpt>
      <trkpt lat="44.05814" lon="6.17274">
        <ele>538.5</ele>
        <time>2021-09-10T12:15:58Z</time>
      </trkpt>
      <trkpt lat="44.05818" lon="6.1728">
        <ele>538.6</ele>
        <time>2021-09-10T12:15:59Z</time>
      </trkpt>
      <trkpt lat="44.05821" lon="6.17286">
        <ele>538.6</ele>
        <time>2021-09-10T12:16:00Z</time>
      </trkpt>
      <trkpt lat="44.05826" lon="6.1729">
        <ele>538.7</ele>
        <time>2021-09-10T12:16:01Z</time>
      </trkpt>
      <trkpt lat="44.05829" lon="6.17296">
        <ele>538.7</ele>
        <time>2021-09-10T12:16:03Z</time>
      </trkpt>
      <trkpt lat="44.05831" lon="6.17303">
        <ele>538.7</ele>
        <time>2021-09-10T12:16:04Z</time>
      </trkpt>
      <trkpt lat="44.05834" lon="6.17309">
        <ele>538.7</ele>
        <time>2021-09-10T12:16:06Z</time>
      </trkpt>
      <trkpt lat="44.05838" lon="6.17314">
        <ele>538.6</ele>
        <time>2021-09-10T12:16:07Z</time>
      </trkpt>
      <trkpt lat="44.05843" lon="6.17321">
        <ele>538.6</ele>
        <time>2021-09-10T12:16:08Z</time>
      </trkpt>
      <trkpt lat="44.05847" lon="6.1733">
        <ele>538.6</ele>
        <time>2021-09-10T12:16:10Z</time>
      </trkpt>
      <trkpt lat="44.05851" lon="6.17337">
        <ele>538.6</ele>
        <time>2021-09-10T12:16:12Z</time>
      </trkpt>
      <trkpt lat="44.05855" lon="6.17347">
        <ele>538.5</ele>
        <time>2021-09-10T12:16:13Z</time>
      </trkpt>
      <trkpt lat="44.05858" lon="6.17356">
        <ele>538.5</ele>
        <time>2021-09-10T12:16:15Z</time>
      </trkpt>
      <trkpt lat="44.05863" lon="6.17362">
        <ele>538.5</ele>
        <time>2021-09-10T12:16:17Z</time>
      </trkpt>
      <trkpt lat="44.05869" lon="6.17368">
        <ele>538.5</ele>
        <time>2021-09-10T12:16:18Z</time>
      </trkpt>
      <trkpt lat="44.05879" lon="6.17381">
        <ele>538.5</ele>
        <time>2021-09-10T12:16:20Z</time>
      </trkpt>
      <trkpt lat="44.05882" lon="6.17387">
        <ele>538.5</ele>
        <time>2021-09-10T12:16:21Z</time>
      </trkpt>
      <trkpt lat="44.05887" lon="6.17395">
        <ele>538.5</ele>
        <time>2021-09-10T12:16:23Z</time>
      </trkpt>
      <trkpt lat="44.05889" lon="6.17399">
        <ele>538.5</ele>
        <time>2021-09-10T12:16:24Z</time>
      </trkpt>
      <trkpt lat="44.05891" lon="6.17404">
        <ele>538.5</ele>
        <time>2021-09-10T12:16:25Z</time>
      </trkpt>
      <trkpt lat="44.05894" lon="6.17409">
        <ele>538.5</ele>
        <time>2021-09-10T12:16:26Z</time>
      </trkpt>
      <trkpt lat="44.05901" lon="6.17417">
        <ele>538.6</ele>
        <time>2021-09-10T12:16:28Z</time>
      </trkpt>
      <trkpt lat="44.05904" lon="6.17422">
        <ele>538.6</ele>
        <time>2021-09-10T12:16:29Z</time>
      </trkpt>
      <trkpt lat="44.05911" lon="6.1743">
        <ele>538.6</ele>
        <time>2021-09-10T12:16:31Z</time>
      </trkpt>
      <trkpt lat="44.05918" lon="6.17438">
        <ele>538.7</ele>
        <time>2021-09-10T12:16:32Z</time>
      </trkpt>
      <trkpt lat="44.05922" lon="6.17443">
        <ele>538.8</ele>
        <time>2021-09-10T12:16:34Z</time>
      </trkpt>
      <trkpt lat="44.05925" lon="6.17446">
        <ele>538.9</ele>
        <time>2021-09-10T12:16:35Z</time>
      </trkpt>
      <trkpt lat="44.05931" lon="6.17452">
        <ele>539</ele>
        <time>2021-09-10T12:16:37Z</time>
      </trkpt>
      <trkpt lat="44.05934" lon="6.17455">
        <ele>539.1</ele>
        <time>2021-09-10T12:16:38Z</time>
      </trkpt>
      <trkpt lat="44.05939" lon="6.17461">
        <ele>539.4</ele>
        <time>2021-09-10T12:16:39Z</time>
      </trkpt>
      <trkpt lat="44.05943" lon="6.17472">
        <ele>539.6</ele>
        <time>2021-09-10T12:16:41Z</time>
      </trkpt>
      <trkpt lat="44.05946" lon="6.17477">
        <ele>539.6</ele>
        <time>2021-09-10T12:16:42Z</time>
      </trkpt>
      <trkpt lat="44.05948" lon="6.17484">
        <ele>539.7</ele>
        <time>2021-09-10T12:16:43Z</time>
      </trkpt>
      <trkpt lat="44.05952" lon="6.17493">
        <ele>539.8</ele>
        <time>2021-09-10T12:16:45Z</time>
      </trkpt>
      <trkpt lat="44.05957" lon="6.17501">
        <ele>539.9</ele>
        <time>2021-09-10T12:16:47Z</time>
      </trkpt>
      <trkpt lat="44.05963" lon="6.17505">
        <ele>539.9</ele>
        <time>2021-09-10T12:16:49Z</time>
      </trkpt>
      <trkpt lat="44.05969" lon="6.17508">
        <ele>540</ele>
        <time>2021-09-10T12:16:50Z</time>
      </trkpt>
      <trkpt lat="44.05973" lon="6.17509">
        <ele>540.1</ele>
        <time>2021-09-10T12:16:52Z</time>
      </trkpt>
      <trkpt lat="44.05976" lon="6.1751">
        <ele>540.1</ele>
        <time>2021-09-10T12:16:53Z</time>
      </trkpt>
      <trkpt lat="44.0598" lon="6.17512">
        <ele>540.1</ele>
        <time>2021-09-10T12:16:54Z</time>
      </trkpt>
      <trkpt lat="44.05983" lon="6.17513">
        <ele>540.2</ele>
        <time>2021-09-10T12:16:55Z</time>
      </trkpt>
      <trkpt lat="44.05988" lon="6.17516">
        <ele>540.3</ele>
        <time>2021-09-10T12:16:57Z</time>
      </trkpt>
      <trkpt lat="44.05991" lon="6.17518">
        <ele>540.3</ele>
        <time>2021-09-10T12:16:58Z</time>
      </trkpt>
      <trkpt lat="44.05994" lon="6.17523">
        <ele>540.4</ele>
        <time>2021-09-10T12:17:00Z</time>
      </trkpt>
      <trkpt lat="44.05997" lon="6.17526">
        <ele>540.5</ele>
        <time>2021-09-10T12:17:01Z</time>
      </trkpt>
      <trkpt lat="44.05999" lon="6.17529">
        <ele>540.6</ele>
        <time>2021-09-10T12:17:02Z</time>
      </trkpt>
      <trkpt lat="44.06005" lon="6.17533">
        <ele>540.7</ele>
        <time>2021-09-10T12:17:04Z</time>
      </trkpt>
      <trkpt lat="44.06008" lon="6.17537">
        <ele>540.8</ele>
        <time>2021-09-10T12:17:05Z</time>
      </trkpt>
      <trkpt lat="44.0601" lon="6.17541">
        <ele>540.9</ele>
        <time>2021-09-10T12:17:07Z</time>
      </trkpt>
      <trkpt lat="44.06012" lon="6.17545">
        <ele>541</ele>
        <time>2021-09-10T12:17:08Z</time>
      </trkpt>
      <trkpt lat="44.06014" lon="6.1755">
        <ele>541.1</ele>
        <time>2021-09-10T12:17:09Z</time>
      </trkpt>
      <trkpt lat="44.06017" lon="6.17556">
        <ele>541.2</ele>
        <time>2021-09-10T12:17:11Z</time>
      </trkpt>
      <trkpt lat="44.06022" lon="6.17564">
        <ele>541.4</ele>
        <time>2021-09-10T12:17:13Z</time>
      </trkpt>
      <trkpt lat="44.06025" lon="6.17568">
        <ele>541.5</ele>
        <time>2021-09-10T12:17:14Z</time>
      </trkpt>
      <trkpt lat="44.06027" lon="6.17572">
        <ele>541.6</ele>
        <time>2021-09-10T12:17:16Z</time>
      </trkpt>
      <trkpt lat="44.06029" lon="6.17575">
        <ele>541.6</ele>
        <time>2021-09-10T12:17:17Z</time>
      </trkpt>
      <trkpt lat="44.06031" lon="6.17582">
        <ele>541.7</ele>
        <time>2021-09-10T12:17:19Z</time>
      </trkpt>
      <trkpt lat="44.06033" lon="6.17587">
        <ele>541.8</ele>
        <time>2021-09-10T12:17:20Z</time>
      </trkpt>
      <trkpt lat="44.06036" lon="6.17591">
        <ele>541.9</ele>
        <time>2021-09-10T12:17:21Z</time>
      </trkpt>
      <trkpt lat="44.0604" lon="6.17596">
        <ele>542</ele>
        <time>2021-09-10T12:17:23Z</time>
      </trkpt>
      <trkpt lat="44.06044" lon="6.17603">
        <ele>542.1</ele>
        <time>2021-09-10T12:17:25Z</time>
      </trkpt>
      <trkpt lat="44.06047" lon="6.17607">
        <ele>542.2</ele>
        <time>2021-09-10T12:17:26Z</time>
      </trkpt>
      <trkpt lat="44.06052" lon="6.17611">
        <ele>542.3</ele>
        <time>2021-09-10T12:17:27Z</time>
      </trkpt>
      <trkpt lat="44.06057" lon="6.17615">
        <ele>542.4</ele>
        <time>2021-09-10T12:17:29Z</time>
      </trkpt>
      <trkpt lat="44.06059" lon="6.17618">
        <ele>542.4</ele>
        <time>2021-09-10T12:17:30Z</time>
      </trkpt>
      <trkpt lat="44.06064" lon="6.17618">
        <ele>542.5</ele>
        <time>2021-09-10T12:17:32Z</time>
      </trkpt>
      <trkpt lat="44.06066" lon="6.17618">
        <ele>542.5</ele>
        <time>2021-09-10T12:17:34Z</time>
      </trkpt>
      <trkpt lat="44.06065" lon="6.17617">
        <ele>542.5</ele>
        <time>2021-09-10T12:17:35Z</time>
      </trkpt>
      <trkpt lat="44.06064" lon="6.17616">
        <ele>542.5</ele>
        <time>2021-09-10T12:17:36Z</time>
      </trkpt>
      <trkpt lat="44.06065" lon="6.17616">
        <ele>542.6</ele>
        <time>2021-09-10T12:17:38Z</time>
      </trkpt>
      <trkpt lat="44.06067" lon="6.17616">
        <ele>542.6</ele>
        <time>2021-09-10T12:17:40Z</time>
      </trkpt>
      <trkpt lat="44.0607" lon="6.17619">
        <ele>542.7</ele>
        <time>2021-09-10T12:17:42Z</time>
      </trkpt>
      <trkpt lat="44.06074" lon="6.17623">
        <ele>542.7</ele>
        <time>2021-09-10T12:17:43Z</time>
      </trkpt>
      <trkpt lat="44.06078" lon="6.17629">
        <ele>542.9</ele>
        <time>2021-09-10T12:17:44Z</time>
      </trkpt>
      <trkpt lat="44.06082" lon="6.17634">
        <ele>543</ele>
        <time>2021-09-10T12:17:45Z</time>
      </trkpt>
      <trkpt lat="44.06086" lon="6.17637">
        <ele>543.1</ele>
        <time>2021-09-10T12:17:47Z</time>
      </trkpt>
      <trkpt lat="44.0609" lon="6.17641">
        <ele>543.2</ele>
        <time>2021-09-10T12:17:48Z</time>
      </trkpt>
      <trkpt lat="44.06093" lon="6.17645">
        <ele>543.3</ele>
        <time>2021-09-10T12:17:49Z</time>
      </trkpt>
      <trkpt lat="44.06096" lon="6.17647">
        <ele>543.4</ele>
        <time>2021-09-10T12:17:50Z</time>
      </trkpt>
      <trkpt lat="44.06098" lon="6.1765">
        <ele>543.5</ele>
        <time>2021-09-10T12:17:51Z</time>
      </trkpt>
      <trkpt lat="44.06103" lon="6.17654">
        <ele>543.6</ele>
        <time>2021-09-10T12:17:53Z</time>
      </trkpt>
      <trkpt lat="44.06105" lon="6.17656">
        <ele>543.7</ele>
        <time>2021-09-10T12:17:54Z</time>
      </trkpt>
      <trkpt lat="44.0611" lon="6.17661">
        <ele>543.8</ele>
        <time>2021-09-10T12:17:56Z</time>
      </trkpt>
      <trkpt lat="44.06116" lon="6.17666">
        <ele>544</ele>
        <time>2021-09-10T12:17:58Z</time>
      </trkpt>
      <trkpt lat="44.06121" lon="6.17671">
        <ele>544.2</ele>
        <time>2021-09-10T12:18:00Z</time>
      </trkpt>
      <trkpt lat="44.06124" lon="6.17673">
        <ele>544.3</ele>
        <time>2021-09-10T12:18:01Z</time>
      </trkpt>
      <trkpt lat="44.06127" lon="6.17677">
        <ele>544.1</ele>
        <time>2021-09-10T12:18:02Z</time>
      </trkpt>
      <trkpt lat="44.06131" lon="6.1768">
        <ele>544.1</ele>
        <time>2021-09-10T12:18:04Z</time>
      </trkpt>
      <trkpt lat="44.06136" lon="6.1768">
        <ele>544</ele>
        <time>2021-09-10T12:18:05Z</time>
      </trkpt>
      <trkpt lat="44.06141" lon="6.17679">
        <ele>543.9</ele>
        <time>2021-09-10T12:18:06Z</time>
      </trkpt>
      <trkpt lat="44.06147" lon="6.17677">
        <ele>543.8</ele>
        <time>2021-09-10T12:18:07Z</time>
      </trkpt>
      <trkpt lat="44.0615" lon="6.17675">
        <ele>543.7</ele>
        <time>2021-09-10T12:18:09Z</time>
      </trkpt>
      <trkpt lat="44.06153" lon="6.17672">
        <ele>543.7</ele>
        <time>2021-09-10T12:18:10Z</time>
      </trkpt>
      <trkpt lat="44.06154" lon="6.17668">
        <ele>543.7</ele>
        <time>2021-09-10T12:18:11Z</time>
      </trkpt>
      <trkpt lat="44.06156" lon="6.1766">
        <ele>543.6</ele>
        <time>2021-09-10T12:18:13Z</time>
      </trkpt>
      <trkpt lat="44.06159" lon="6.17652">
        <ele>543.5</ele>
        <time>2021-09-10T12:18:15Z</time>
      </trkpt>
      <trkpt lat="44.06164" lon="6.17647">
        <ele>543.5</ele>
        <time>2021-09-10T12:18:17Z</time>
      </trkpt>
      <trkpt lat="44.06168" lon="6.1764">
        <ele>543.4</ele>
        <time>2021-09-10T12:18:19Z</time>
      </trkpt>
      <trkpt lat="44.0617" lon="6.17636">
        <ele>543.4</ele>
        <time>2021-09-10T12:18:20Z</time>
      </trkpt>
      <trkpt lat="44.06174" lon="6.17631">
        <ele>543.3</ele>
        <time>2021-09-10T12:18:21Z</time>
      </trkpt>
      <trkpt lat="44.06177" lon="6.17627">
        <ele>543.3</ele>
        <time>2021-09-10T12:18:22Z</time>
      </trkpt>
      <trkpt lat="44.0618" lon="6.17623">
        <ele>543.2</ele>
        <time>2021-09-10T12:18:23Z</time>
      </trkpt>
      <trkpt lat="44.06187" lon="6.17616">
        <ele>543.2</ele>
        <time>2021-09-10T12:18:24Z</time>
      </trkpt>
      <trkpt lat="44.06191" lon="6.1761">
        <ele>543.1</ele>
        <time>2021-09-10T12:18:26Z</time>
      </trkpt>
      <trkpt lat="44.06196" lon="6.17605">
        <ele>543.1</ele>
        <time>2021-09-10T12:18:27Z</time>
      </trkpt>
      <trkpt lat="44.06201" lon="6.17602">
        <ele>543</ele>
        <time>2021-09-10T12:18:29Z</time>
      </trkpt>
      <trkpt lat="44.06206" lon="6.17595">
        <ele>543</ele>
        <time>2021-09-10T12:18:31Z</time>
      </trkpt>
      <trkpt lat="44.06207" lon="6.17589">
        <ele>542.9</ele>
        <time>2021-09-10T12:18:32Z</time>
      </trkpt>
      <trkpt lat="44.0621" lon="6.17582">
        <ele>542.9</ele>
        <time>2021-09-10T12:18:33Z</time>
      </trkpt>
      <trkpt lat="44.06213" lon="6.17577">
        <ele>542.9</ele>
        <time>2021-09-10T12:18:35Z</time>
      </trkpt>
      <trkpt lat="44.06219" lon="6.17567">
        <ele>542.8</ele>
        <time>2021-09-10T12:18:36Z</time>
      </trkpt>
      <trkpt lat="44.06222" lon="6.17561">
        <ele>542.8</ele>
        <time>2021-09-10T12:18:37Z</time>
      </trkpt>
      <trkpt lat="44.06225" lon="6.17556">
        <ele>542.8</ele>
        <time>2021-09-10T12:18:38Z</time>
      </trkpt>
      <trkpt lat="44.06225" lon="6.17551">
        <ele>542.8</ele>
        <time>2021-09-10T12:18:39Z</time>
      </trkpt>
      <trkpt lat="44.06225" lon="6.17551">
        <ele>542.8</ele>
        <time>2021-09-10T12:18:40Z</time>
      </trkpt>
      <trkpt lat="44.0623" lon="6.17547">
        <ele>542.8</ele>
        <time>2021-09-10T12:18:41Z</time>
      </trkpt>
      <trkpt lat="44.06237" lon="6.17546">
        <ele>542.7</ele>
        <time>2021-09-10T12:18:43Z</time>
      </trkpt>
      <trkpt lat="44.0624" lon="6.17546">
        <ele>542.7</ele>
        <time>2021-09-10T12:18:44Z</time>
      </trkpt>
      <trkpt lat="44.06244" lon="6.17547">
        <ele>542.7</ele>
        <time>2021-09-10T12:18:45Z</time>
      </trkpt>
      <trkpt lat="44.06249" lon="6.17547">
        <ele>542.7</ele>
        <time>2021-09-10T12:18:47Z</time>
      </trkpt>
      <trkpt lat="44.0625" lon="6.17547">
        <ele>542.6</ele>
        <time>2021-09-10T12:18:48Z</time>
      </trkpt>
      <trkpt lat="44.06252" lon="6.17547">
        <ele>542.6</ele>
        <time>2021-09-10T12:18:49Z</time>
      </trkpt>
      <trkpt lat="44.06255" lon="6.17548">
        <ele>542.6</ele>
        <time>2021-09-10T12:18:50Z</time>
      </trkpt>
      <trkpt lat="44.06257" lon="6.17547">
        <ele>542.6</ele>
        <time>2021-09-10T12:18:51Z</time>
      </trkpt>
      <trkpt lat="44.0626" lon="6.17546">
        <ele>542.6</ele>
        <time>2021-09-10T12:18:53Z</time>
      </trkpt>
      <trkpt lat="44.06261" lon="6.17545">
        <ele>542.6</ele>
        <time>2021-09-10T12:18:54Z</time>
      </trkpt>
      <trkpt lat="44.06261" lon="6.17544">
        <ele>542.6</ele>
        <time>2021-09-10T12:18:56Z</time>
      </trkpt>
      <trkpt lat="44.06261" lon="6.17544">
        <ele>542.6</ele>
        <time>2021-09-10T12:18:57Z</time>
      </trkpt>
      <trkpt lat="44.06261" lon="6.17544">
        <ele>542.6</ele>
        <time>2021-09-10T12:18:58Z</time>
      </trkpt>
      <trkpt lat="44.06261" lon="6.17544">
        <ele>542.6</ele>
        <time>2021-09-10T12:19:00Z</time>
      </trkpt>
      <trkpt lat="44.06261" lon="6.17545">
        <ele>542.6</ele>
        <time>2021-09-10T12:19:01Z</time>
      </trkpt>
      <trkpt lat="44.06262" lon="6.17545">
        <ele>542.6</ele>
        <time>2021-09-10T12:19:02Z</time>
      </trkpt>
      <trkpt lat="44.06262" lon="6.17544">
        <ele>542.6</ele>
        <time>2021-09-10T12:19:03Z</time>
      </trkpt>
      <trkpt lat="44.06263" lon="6.17544">
        <ele>542.6</ele>
        <time>2021-09-10T12:19:04Z</time>
      </trkpt>
      <trkpt lat="44.06279" lon="6.17532">
        <ele>542.7</ele>
        <time>2021-09-10T12:19:14Z</time>
      </trkpt>
      <trkpt lat="44.06286" lon="6.17526">
        <ele>542.8</ele>
        <time>2021-09-10T12:19:15Z</time>
      </trkpt>
      <trkpt lat="44.06291" lon="6.17521">
        <ele>542.8</ele>
        <time>2021-09-10T12:19:17Z</time>
      </trkpt>
      <trkpt lat="44.06297" lon="6.17514">
        <ele>542.9</ele>
        <time>2021-09-10T12:19:19Z</time>
      </trkpt>
      <trkpt lat="44.063" lon="6.17509">
        <ele>543</ele>
        <time>2021-09-10T12:19:20Z</time>
      </trkpt>
      <trkpt lat="44.06306" lon="6.17502">
        <ele>543.1</ele>
        <time>2021-09-10T12:19:22Z</time>
      </trkpt>
      <trkpt lat="44.0631" lon="6.17497">
        <ele>543.1</ele>
        <time>2021-09-10T12:19:23Z</time>
      </trkpt>
      <trkpt lat="44.06313" lon="6.17493">
        <ele>543.2</ele>
        <time>2021-09-10T12:19:24Z</time>
      </trkpt>
      <trkpt lat="44.06316" lon="6.17488">
        <ele>543.2</ele>
        <time>2021-09-10T12:19:26Z</time>
      </trkpt>
      <trkpt lat="44.06319" lon="6.17484">
        <ele>543.2</ele>
        <time>2021-09-10T12:19:27Z</time>
      </trkpt>
      <trkpt lat="44.06322" lon="6.17478">
        <ele>543.2</ele>
        <time>2021-09-10T12:19:29Z</time>
      </trkpt>
      <trkpt lat="44.06325" lon="6.17475">
        <ele>543.2</ele>
        <time>2021-09-10T12:19:30Z</time>
      </trkpt>
      <trkpt lat="44.06329" lon="6.17469">
        <ele>543.2</ele>
        <time>2021-09-10T12:19:31Z</time>
      </trkpt>
      <trkpt lat="44.06332" lon="6.17465">
        <ele>543.3</ele>
        <time>2021-09-10T12:19:33Z</time>
      </trkpt>
      <trkpt lat="44.06334" lon="6.1746">
        <ele>543.3</ele>
        <time>2021-09-10T12:19:34Z</time>
      </trkpt>
      <trkpt lat="44.06339" lon="6.17455">
        <ele>543.3</ele>
        <time>2021-09-10T12:19:36Z</time>
      </trkpt>
      <trkpt lat="44.06341" lon="6.17452">
        <ele>543.3</ele>
        <time>2021-09-10T12:19:37Z</time>
      </trkpt>
      <trkpt lat="44.06344" lon="6.17449">
        <ele>543.3</ele>
        <time>2021-09-10T12:19:38Z</time>
      </trkpt>
      <trkpt lat="44.0635" lon="6.17443">
        <ele>543.3</ele>
        <time>2021-09-10T12:19:40Z</time>
      </trkpt>
      <trkpt lat="44.06358" lon="6.1744">
        <ele>543.3</ele>
        <time>2021-09-10T12:19:42Z</time>
      </trkpt>
      <trkpt lat="44.06361" lon="6.17439">
        <ele>543.8</ele>
        <time>2021-09-10T12:19:43Z</time>
      </trkpt>
      <trkpt lat="44.06364" lon="6.17438">
        <ele>543.8</ele>
        <time>2021-09-10T12:19:44Z</time>
      </trkpt>
      <trkpt lat="44.06368" lon="6.17437">
        <ele>543.9</ele>
        <time>2021-09-10T12:19:45Z</time>
      </trkpt>
      <trkpt lat="44.06371" lon="6.17436">
        <ele>543.9</ele>
        <time>2021-09-10T12:19:46Z</time>
      </trkpt>
      <trkpt lat="44.06374" lon="6.17434">
        <ele>543.9</ele>
        <time>2021-09-10T12:19:47Z</time>
      </trkpt>
      <trkpt lat="44.06378" lon="6.17433">
        <ele>544</ele>
        <time>2021-09-10T12:19:48Z</time>
      </trkpt>
      <trkpt lat="44.06381" lon="6.17433">
        <ele>544</ele>
        <time>2021-09-10T12:19:49Z</time>
      </trkpt>
      <trkpt lat="44.06384" lon="6.17431">
        <ele>544</ele>
        <time>2021-09-10T12:19:50Z</time>
      </trkpt>
      <trkpt lat="44.0639" lon="6.17431">
        <ele>544.1</ele>
        <time>2021-09-10T12:19:51Z</time>
      </trkpt>
      <trkpt lat="44.06396" lon="6.1743">
        <ele>544.1</ele>
        <time>2021-09-10T12:19:53Z</time>
      </trkpt>
      <trkpt lat="44.06402" lon="6.17428">
        <ele>544.1</ele>
        <time>2021-09-10T12:19:54Z</time>
      </trkpt>
      <trkpt lat="44.06409" lon="6.17428">
        <ele>544.2</ele>
        <time>2021-09-10T12:19:56Z</time>
      </trkpt>
      <trkpt lat="44.06414" lon="6.1743">
        <ele>544.3</ele>
        <time>2021-09-10T12:19:57Z</time>
      </trkpt>
      <trkpt lat="44.06421" lon="6.17432">
        <ele>544.4</ele>
        <time>2021-09-10T12:19:59Z</time>
      </trkpt>
      <trkpt lat="44.06427" lon="6.17438">
        <ele>544.5</ele>
        <time>2021-09-10T12:20:01Z</time>
      </trkpt>
      <trkpt lat="44.0643" lon="6.17442">
        <ele>544.6</ele>
        <time>2021-09-10T12:20:02Z</time>
      </trkpt>
      <trkpt lat="44.06432" lon="6.17445">
        <ele>544.7</ele>
        <time>2021-09-10T12:20:03Z</time>
      </trkpt>
      <trkpt lat="44.06436" lon="6.17449">
        <ele>544.7</ele>
        <time>2021-09-10T12:20:04Z</time>
      </trkpt>
      <trkpt lat="44.0644" lon="6.17455">
        <ele>544.8</ele>
        <time>2021-09-10T12:20:05Z</time>
      </trkpt>
      <trkpt lat="44.06443" lon="6.17459">
        <ele>544.9</ele>
        <time>2021-09-10T12:20:07Z</time>
      </trkpt>
      <trkpt lat="44.06446" lon="6.17462">
        <ele>544.9</ele>
        <time>2021-09-10T12:20:08Z</time>
      </trkpt>
      <trkpt lat="44.06449" lon="6.17464">
        <ele>545</ele>
        <time>2021-09-10T12:20:09Z</time>
      </trkpt>
      <trkpt lat="44.06452" lon="6.17465">
        <ele>545</ele>
        <time>2021-09-10T12:20:11Z</time>
      </trkpt>
      <trkpt lat="44.06457" lon="6.17467">
        <ele>545.1</ele>
        <time>2021-09-10T12:20:12Z</time>
      </trkpt>
      <trkpt lat="44.06459" lon="6.17469">
        <ele>545.1</ele>
        <time>2021-09-10T12:20:13Z</time>
      </trkpt>
      <trkpt lat="44.06462" lon="6.17474">
        <ele>545.1</ele>
        <time>2021-09-10T12:20:15Z</time>
      </trkpt>
      <trkpt lat="44.06465" lon="6.17485">
        <ele>545.1</ele>
        <time>2021-09-10T12:20:17Z</time>
      </trkpt>
      <trkpt lat="44.06468" lon="6.17496">
        <ele>545.2</ele>
        <time>2021-09-10T12:20:19Z</time>
      </trkpt>
      <trkpt lat="44.06471" lon="6.17502">
        <ele>545.2</ele>
        <time>2021-09-10T12:20:20Z</time>
      </trkpt>
      <trkpt lat="44.06476" lon="6.1751">
        <ele>545.3</ele>
        <time>2021-09-10T12:20:21Z</time>
      </trkpt>
      <trkpt lat="44.0648" lon="6.17516">
        <ele>545.3</ele>
        <time>2021-09-10T12:20:23Z</time>
      </trkpt>
      <trkpt lat="44.06484" lon="6.17521">
        <ele>545.3</ele>
        <time>2021-09-10T12:20:24Z</time>
      </trkpt>
      <trkpt lat="44.06489" lon="6.17528">
        <ele>545.4</ele>
        <time>2021-09-10T12:20:26Z</time>
      </trkpt>
      <trkpt lat="44.06493" lon="6.17533">
        <ele>545.5</ele>
        <time>2021-09-10T12:20:27Z</time>
      </trkpt>
      <trkpt lat="44.06498" lon="6.17539">
        <ele>545.5</ele>
        <time>2021-09-10T12:20:29Z</time>
      </trkpt>
      <trkpt lat="44.06503" lon="6.17544">
        <ele>545.6</ele>
        <time>2021-09-10T12:20:30Z</time>
      </trkpt>
      <trkpt lat="44.06506" lon="6.17548">
        <ele>545.6</ele>
        <time>2021-09-10T12:20:32Z</time>
      </trkpt>
      <trkpt lat="44.06509" lon="6.17553">
        <ele>545.6</ele>
        <time>2021-09-10T12:20:34Z</time>
      </trkpt>
      <trkpt lat="44.0651" lon="6.17554">
        <ele>545.7</ele>
        <time>2021-09-10T12:20:35Z</time>
      </trkpt>
      <trkpt lat="44.06511" lon="6.17555">
        <ele>545.7</ele>
        <time>2021-09-10T12:20:36Z</time>
      </trkpt>
      <trkpt lat="44.06508" lon="6.17553">
        <ele>545.7</ele>
        <time>2021-09-10T12:20:38Z</time>
      </trkpt>
      <trkpt lat="44.06507" lon="6.17553">
        <ele>545.7</ele>
        <time>2021-09-10T12:20:39Z</time>
      </trkpt>
      <trkpt lat="44.06507" lon="6.17553">
        <ele>545.7</ele>
        <time>2021-09-10T12:20:40Z</time>
      </trkpt>
      <trkpt lat="44.06507" lon="6.17553">
        <ele>545.7</ele>
        <time>2021-09-10T12:20:42Z</time>
      </trkpt>
      <trkpt lat="44.06507" lon="6.17553">
        <ele>545.7</ele>
        <time>2021-09-10T12:20:44Z</time>
      </trkpt>
      <trkpt lat="44.06507" lon="6.17553">
        <ele>545.7</ele>
        <time>2021-09-10T12:20:45Z</time>
      </trkpt>
      <trkpt lat="44.06502" lon="6.17566">
        <ele>545.7</ele>
        <time>2021-09-10T12:20:58Z</time>
      </trkpt>
      <trkpt lat="44.06502" lon="6.17569">
        <ele>545.7</ele>
        <time>2021-09-10T12:20:59Z</time>
      </trkpt>
      <trkpt lat="44.06502" lon="6.17573">
        <ele>545.7</ele>
        <time>2021-09-10T12:21:01Z</time>
      </trkpt>
      <trkpt lat="44.06505" lon="6.17574">
        <ele>545.7</ele>
        <time>2021-09-10T12:21:02Z</time>
      </trkpt>
      <trkpt lat="44.0651" lon="6.17576">
        <ele>545.7</ele>
        <time>2021-09-10T12:21:03Z</time>
      </trkpt>
      <trkpt lat="44.06515" lon="6.17579">
        <ele>545.8</ele>
        <time>2021-09-10T12:21:05Z</time>
      </trkpt>
      <trkpt lat="44.06521" lon="6.17585">
        <ele>545.9</ele>
        <time>2021-09-10T12:21:07Z</time>
      </trkpt>
      <trkpt lat="44.06526" lon="6.1759">
        <ele>545.9</ele>
        <time>2021-09-10T12:21:08Z</time>
      </trkpt>
      <trkpt lat="44.06533" lon="6.17595">
        <ele>546</ele>
        <time>2021-09-10T12:21:09Z</time>
      </trkpt>
      <trkpt lat="44.06541" lon="6.176">
        <ele>546.1</ele>
        <time>2021-09-10T12:21:11Z</time>
      </trkpt>
      <trkpt lat="44.06544" lon="6.17602">
        <ele>546.1</ele>
        <time>2021-09-10T12:21:12Z</time>
      </trkpt>
      <trkpt lat="44.06548" lon="6.17606">
        <ele>546.1</ele>
        <time>2021-09-10T12:21:13Z</time>
      </trkpt>
      <trkpt lat="44.06552" lon="6.17613">
        <ele>546.2</ele>
        <time>2021-09-10T12:21:14Z</time>
      </trkpt>
      <trkpt lat="44.06556" lon="6.17617">
        <ele>546.2</ele>
        <time>2021-09-10T12:21:16Z</time>
      </trkpt>
      <trkpt lat="44.06562" lon="6.17624">
        <ele>546.3</ele>
        <time>2021-09-10T12:21:18Z</time>
      </trkpt>
      <trkpt lat="44.06567" lon="6.17632">
        <ele>546.4</ele>
        <time>2021-09-10T12:21:20Z</time>
      </trkpt>
      <trkpt lat="44.0657" lon="6.17642">
        <ele>546.5</ele>
        <time>2021-09-10T12:21:22Z</time>
      </trkpt>
      <trkpt lat="44.06572" lon="6.17647">
        <ele>546.5</ele>
        <time>2021-09-10T12:21:23Z</time>
      </trkpt>
      <trkpt lat="44.06575" lon="6.17651">
        <ele>546.6</ele>
        <time>2021-09-10T12:21:24Z</time>
      </trkpt>
      <trkpt lat="44.06578" lon="6.17655">
        <ele>546.6</ele>
        <time>2021-09-10T12:21:25Z</time>
      </trkpt>
      <trkpt lat="44.06582" lon="6.17661">
        <ele>546.7</ele>
        <time>2021-09-10T12:21:27Z</time>
      </trkpt>
      <trkpt lat="44.06584" lon="6.17665">
        <ele>546.7</ele>
        <time>2021-09-10T12:21:28Z</time>
      </trkpt>
      <trkpt lat="44.06586" lon="6.17669">
        <ele>546.7</ele>
        <time>2021-09-10T12:21:29Z</time>
      </trkpt>
      <trkpt lat="44.06588" lon="6.17672">
        <ele>546.7</ele>
        <time>2021-09-10T12:21:30Z</time>
      </trkpt>
      <trkpt lat="44.06591" lon="6.17679">
        <ele>546.8</ele>
        <time>2021-09-10T12:21:32Z</time>
      </trkpt>
      <trkpt lat="44.06594" lon="6.17687">
        <ele>546.8</ele>
        <time>2021-09-10T12:21:33Z</time>
      </trkpt>
      <trkpt lat="44.06597" lon="6.17692">
        <ele>546.8</ele>
        <time>2021-09-10T12:21:35Z</time>
      </trkpt>
      <trkpt lat="44.06599" lon="6.17696">
        <ele>546.8</ele>
        <time>2021-09-10T12:21:36Z</time>
      </trkpt>
      <trkpt lat="44.06601" lon="6.17702">
        <ele>546.9</ele>
        <time>2021-09-10T12:21:37Z</time>
      </trkpt>
      <trkpt lat="44.06607" lon="6.17714">
        <ele>546.9</ele>
        <time>2021-09-10T12:21:39Z</time>
      </trkpt>
      <trkpt lat="44.06609" lon="6.17718">
        <ele>546.9</ele>
        <time>2021-09-10T12:21:40Z</time>
      </trkpt>
      <trkpt lat="44.06614" lon="6.17721">
        <ele>547</ele>
        <time>2021-09-10T12:21:41Z</time>
      </trkpt>
      <trkpt lat="44.06617" lon="6.17728">
        <ele>547</ele>
        <time>2021-09-10T12:21:43Z</time>
      </trkpt>
      <trkpt lat="44.06622" lon="6.17735">
        <ele>547.1</ele>
        <time>2021-09-10T12:21:45Z</time>
      </trkpt>
      <trkpt lat="44.06626" lon="6.17743">
        <ele>547.1</ele>
        <time>2021-09-10T12:21:47Z</time>
      </trkpt>
      <trkpt lat="44.0663" lon="6.17751">
        <ele>547.2</ele>
        <time>2021-09-10T12:21:49Z</time>
      </trkpt>
      <trkpt lat="44.06633" lon="6.17756">
        <ele>547.2</ele>
        <time>2021-09-10T12:21:50Z</time>
      </trkpt>
      <trkpt lat="44.06636" lon="6.17759">
        <ele>547.3</ele>
        <time>2021-09-10T12:21:51Z</time>
      </trkpt>
      <trkpt lat="44.06641" lon="6.17767">
        <ele>547.3</ele>
        <time>2021-09-10T12:21:53Z</time>
      </trkpt>
      <trkpt lat="44.06643" lon="6.17771">
        <ele>547.4</ele>
        <time>2021-09-10T12:21:54Z</time>
      </trkpt>
      <trkpt lat="44.06646" lon="6.17775">
        <ele>547.4</ele>
        <time>2021-09-10T12:21:55Z</time>
      </trkpt>
      <trkpt lat="44.0665" lon="6.17781">
        <ele>547.4</ele>
        <time>2021-09-10T12:21:56Z</time>
      </trkpt>
      <trkpt lat="44.06653" lon="6.17784">
        <ele>547.4</ele>
        <time>2021-09-10T12:21:57Z</time>
      </trkpt>
      <trkpt lat="44.06655" lon="6.17787">
        <ele>547.4</ele>
        <time>2021-09-10T12:21:58Z</time>
      </trkpt>
      <trkpt lat="44.06656" lon="6.17791">
        <ele>547.4</ele>
        <time>2021-09-10T12:21:59Z</time>
      </trkpt>
      <trkpt lat="44.06656" lon="6.17798">
        <ele>547.4</ele>
        <time>2021-09-10T12:22:01Z</time>
      </trkpt>
      <trkpt lat="44.06653" lon="6.17807">
        <ele>547.2</ele>
        <time>2021-09-10T12:22:02Z</time>
      </trkpt>
      <trkpt lat="44.06649" lon="6.17818">
        <ele>547.1</ele>
        <time>2021-09-10T12:22:04Z</time>
      </trkpt>
      <trkpt lat="44.06646" lon="6.17824">
        <ele>547</ele>
        <time>2021-09-10T12:22:05Z</time>
      </trkpt>
      <trkpt lat="44.06639" lon="6.17833">
        <ele>546.9</ele>
        <time>2021-09-10T12:22:06Z</time>
      </trkpt>
      <trkpt lat="44.06632" lon="6.17844">
        <ele>546.8</ele>
        <time>2021-09-10T12:22:08Z</time>
      </trkpt>
      <trkpt lat="44.06626" lon="6.17852">
        <ele>546.8</ele>
        <time>2021-09-10T12:22:09Z</time>
      </trkpt>
      <trkpt lat="44.06619" lon="6.17862">
        <ele>546.7</ele>
        <time>2021-09-10T12:22:11Z</time>
      </trkpt>
      <trkpt lat="44.06614" lon="6.17866">
        <ele>546.7</ele>
        <time>2021-09-10T12:22:12Z</time>
      </trkpt>
      <trkpt lat="44.06609" lon="6.1787">
        <ele>546.6</ele>
        <time>2021-09-10T12:22:13Z</time>
      </trkpt>
      <trkpt lat="44.06604" lon="6.17874">
        <ele>546.6</ele>
        <time>2021-09-10T12:22:14Z</time>
      </trkpt>
      <trkpt lat="44.06597" lon="6.17886">
        <ele>546.6</ele>
        <time>2021-09-10T12:22:16Z</time>
      </trkpt>
      <trkpt lat="44.06594" lon="6.17893">
        <ele>546.6</ele>
        <time>2021-09-10T12:22:17Z</time>
      </trkpt>
      <trkpt lat="44.06588" lon="6.17909">
        <ele>546.5</ele>
        <time>2021-09-10T12:22:19Z</time>
      </trkpt>
      <trkpt lat="44.06586" lon="6.17917">
        <ele>546.5</ele>
        <time>2021-09-10T12:22:20Z</time>
      </trkpt>
      <trkpt lat="44.06579" lon="6.17931">
        <ele>546.5</ele>
        <time>2021-09-10T12:22:22Z</time>
      </trkpt>
      <trkpt lat="44.06575" lon="6.17936">
        <ele>546.4</ele>
        <time>2021-09-10T12:22:23Z</time>
      </trkpt>
      <trkpt lat="44.0657" lon="6.17941">
        <ele>546.4</ele>
        <time>2021-09-10T12:22:24Z</time>
      </trkpt>
      <trkpt lat="44.06562" lon="6.17949">
        <ele>546.4</ele>
        <time>2021-09-10T12:22:26Z</time>
      </trkpt>
      <trkpt lat="44.06556" lon="6.17956">
        <ele>546.3</ele>
        <time>2021-09-10T12:22:28Z</time>
      </trkpt>
      <trkpt lat="44.06547" lon="6.17962">
        <ele>546.3</ele>
        <time>2021-09-10T12:22:30Z</time>
      </trkpt>
      <trkpt lat="44.06542" lon="6.17969">
        <ele>546.3</ele>
        <time>2021-09-10T12:22:32Z</time>
      </trkpt>
      <trkpt lat="44.06537" lon="6.17974">
        <ele>546.2</ele>
        <time>2021-09-10T12:22:33Z</time>
      </trkpt>
      <trkpt lat="44.06531" lon="6.17978">
        <ele>546.2</ele>
        <time>2021-09-10T12:22:35Z</time>
      </trkpt>
      <trkpt lat="44.06527" lon="6.17982">
        <ele>546.2</ele>
        <time>2021-09-10T12:22:36Z</time>
      </trkpt>
      <trkpt lat="44.06523" lon="6.17987">
        <ele>546.2</ele>
        <time>2021-09-10T12:22:37Z</time>
      </trkpt>
      <trkpt lat="44.06515" lon="6.17996">
        <ele>546.1</ele>
        <time>2021-09-10T12:22:39Z</time>
      </trkpt>
      <trkpt lat="44.06512" lon="6.18001">
        <ele>546.1</ele>
        <time>2021-09-10T12:22:40Z</time>
      </trkpt>
      <trkpt lat="44.06506" lon="6.18008">
        <ele>546.1</ele>
        <time>2021-09-10T12:22:42Z</time>
      </trkpt>
      <trkpt lat="44.06503" lon="6.18012">
        <ele>546.1</ele>
        <time>2021-09-10T12:22:43Z</time>
      </trkpt>
      <trkpt lat="44.065" lon="6.18014">
        <ele>546</ele>
        <time>2021-09-10T12:22:44Z</time>
      </trkpt>
      <trkpt lat="44.06495" lon="6.18024">
        <ele>546</ele>
        <time>2021-09-10T12:22:46Z</time>
      </trkpt>
      <trkpt lat="44.06494" lon="6.18029">
        <ele>546</ele>
        <time>2021-09-10T12:22:48Z</time>
      </trkpt>
      <trkpt lat="44.06492" lon="6.18032">
        <ele>546</ele>
        <time>2021-09-10T12:22:49Z</time>
      </trkpt>
      <trkpt lat="44.06482" lon="6.1804">
        <ele>546</ele>
        <time>2021-09-10T12:22:50Z</time>
      </trkpt>
      <trkpt lat="44.06473" lon="6.18049">
        <ele>546.1</ele>
        <time>2021-09-10T12:22:52Z</time>
      </trkpt>
      <trkpt lat="44.0647" lon="6.18052">
        <ele>546.1</ele>
        <time>2021-09-10T12:22:53Z</time>
      </trkpt>
      <trkpt lat="44.06466" lon="6.1806">
        <ele>546.1</ele>
        <time>2021-09-10T12:22:55Z</time>
      </trkpt>
      <trkpt lat="44.06462" lon="6.18067">
        <ele>546.1</ele>
        <time>2021-09-10T12:22:56Z</time>
      </trkpt>
      <trkpt lat="44.06457" lon="6.18069">
        <ele>546.2</ele>
        <time>2021-09-10T12:22:57Z</time>
      </trkpt>
      <trkpt lat="44.06454" lon="6.18075">
        <ele>546.2</ele>
        <time>2021-09-10T12:22:59Z</time>
      </trkpt>
      <trkpt lat="44.06449" lon="6.18084">
        <ele>546.3</ele>
        <time>2021-09-10T12:23:00Z</time>
      </trkpt>
      <trkpt lat="44.06448" lon="6.18088">
        <ele>546.3</ele>
        <time>2021-09-10T12:23:01Z</time>
      </trkpt>
      <trkpt lat="44.06448" lon="6.18092">
        <ele>546.3</ele>
        <time>2021-09-10T12:23:02Z</time>
      </trkpt>
      <trkpt lat="44.06444" lon="6.18099">
        <ele>546.4</ele>
        <time>2021-09-10T12:23:03Z</time>
      </trkpt>
      <trkpt lat="44.06441" lon="6.18105">
        <ele>546.4</ele>
        <time>2021-09-10T12:23:04Z</time>
      </trkpt>
      <trkpt lat="44.06439" lon="6.18111">
        <ele>546.5</ele>
        <time>2021-09-10T12:23:05Z</time>
      </trkpt>
      <trkpt lat="44.06437" lon="6.18117">
        <ele>546.6</ele>
        <time>2021-09-10T12:23:06Z</time>
      </trkpt>
      <trkpt lat="44.06435" lon="6.18122">
        <ele>546.6</ele>
        <time>2021-09-10T12:23:07Z</time>
      </trkpt>
      <trkpt lat="44.06433" lon="6.18128">
        <ele>546.7</ele>
        <time>2021-09-10T12:23:09Z</time>
      </trkpt>
      <trkpt lat="44.06433" lon="6.18133">
        <ele>546.8</ele>
        <time>2021-09-10T12:23:10Z</time>
      </trkpt>
      <trkpt lat="44.06431" lon="6.18139">
        <ele>546.8</ele>
        <time>2021-09-10T12:23:11Z</time>
      </trkpt>
      <trkpt lat="44.0643" lon="6.18146">
        <ele>546.9</ele>
        <time>2021-09-10T12:23:12Z</time>
      </trkpt>
      <trkpt lat="44.06428" lon="6.18155">
        <ele>547.1</ele>
        <time>2021-09-10T12:23:14Z</time>
      </trkpt>
      <trkpt lat="44.06427" lon="6.18159">
        <ele>547.1</ele>
        <time>2021-09-10T12:23:15Z</time>
      </trkpt>
      <trkpt lat="44.06426" lon="6.18168">
        <ele>547.3</ele>
        <time>2021-09-10T12:23:17Z</time>
      </trkpt>
      <trkpt lat="44.06424" lon="6.18176">
        <ele>547.4</ele>
        <time>2021-09-10T12:23:18Z</time>
      </trkpt>
      <trkpt lat="44.06423" lon="6.18182">
        <ele>547.5</ele>
        <time>2021-09-10T12:23:20Z</time>
      </trkpt>
      <trkpt lat="44.06422" lon="6.18186">
        <ele>547.6</ele>
        <time>2021-09-10T12:23:21Z</time>
      </trkpt>
      <trkpt lat="44.06421" lon="6.18191">
        <ele>547.7</ele>
        <time>2021-09-10T12:23:22Z</time>
      </trkpt>
      <trkpt lat="44.06421" lon="6.182">
        <ele>547.8</ele>
        <time>2021-09-10T12:23:24Z</time>
      </trkpt>
      <trkpt lat="44.0642" lon="6.18206">
        <ele>547.8</ele>
        <time>2021-09-10T12:23:25Z</time>
      </trkpt>
      <trkpt lat="44.06422" lon="6.18212">
        <ele>547.9</ele>
        <time>2021-09-10T12:23:27Z</time>
      </trkpt>
      <trkpt lat="44.06423" lon="6.18214">
        <ele>547.9</ele>
        <time>2021-09-10T12:23:28Z</time>
      </trkpt>
      <trkpt lat="44.06424" lon="6.18216">
        <ele>547.9</ele>
        <time>2021-09-10T12:23:29Z</time>
      </trkpt>
      <trkpt lat="44.06426" lon="6.18218">
        <ele>547.9</ele>
        <time>2021-09-10T12:23:30Z</time>
      </trkpt>
      <trkpt lat="44.06427" lon="6.18219">
        <ele>547.9</ele>
        <time>2021-09-10T12:23:31Z</time>
      </trkpt>
      <trkpt lat="44.06429" lon="6.18222">
        <ele>547.9</ele>
        <time>2021-09-10T12:23:32Z</time>
      </trkpt>
      <trkpt lat="44.0643" lon="6.18223">
        <ele>547.9</ele>
        <time>2021-09-10T12:23:33Z</time>
      </trkpt>
      <trkpt lat="44.06431" lon="6.18226">
        <ele>547.9</ele>
        <time>2021-09-10T12:23:34Z</time>
      </trkpt>
      <trkpt lat="44.06431" lon="6.1823">
        <ele>547.9</ele>
        <time>2021-09-10T12:23:36Z</time>
      </trkpt>
      <trkpt lat="44.06432" lon="6.18232">
        <ele>547.9</ele>
        <time>2021-09-10T12:23:37Z</time>
      </trkpt>
      <trkpt lat="44.06432" lon="6.18233">
        <ele>547.9</ele>
        <time>2021-09-10T12:23:38Z</time>
      </trkpt>
      <trkpt lat="44.06434" lon="6.18236">
        <ele>547.9</ele>
        <time>2021-09-10T12:23:39Z</time>
      </trkpt>
      <trkpt lat="44.06435" lon="6.18238">
        <ele>547.8</ele>
        <time>2021-09-10T12:23:41Z</time>
      </trkpt>
      <trkpt lat="44.06437" lon="6.18241">
        <ele>547.8</ele>
        <time>2021-09-10T12:23:42Z</time>
      </trkpt>
      <trkpt lat="44.06439" lon="6.18242">
        <ele>547.8</ele>
        <time>2021-09-10T12:23:43Z</time>
      </trkpt>
      <trkpt lat="44.06441" lon="6.18246">
        <ele>547.7</ele>
        <time>2021-09-10T12:23:45Z</time>
      </trkpt>
      <trkpt lat="44.06443" lon="6.18248">
        <ele>547.7</ele>
        <time>2021-09-10T12:23:46Z</time>
      </trkpt>
      <trkpt lat="44.06446" lon="6.18252">
        <ele>547.7</ele>
        <time>2021-09-10T12:23:47Z</time>
      </trkpt>
      <trkpt lat="44.06451" lon="6.18257">
        <ele>547.6</ele>
        <time>2021-09-10T12:23:49Z</time>
      </trkpt>
      <trkpt lat="44.06455" lon="6.18259">
        <ele>547.6</ele>
        <time>2021-09-10T12:23:50Z</time>
      </trkpt>
      <trkpt lat="44.0646" lon="6.18267">
        <ele>547.5</ele>
        <time>2021-09-10T12:23:52Z</time>
      </trkpt>
      <trkpt lat="44.06462" lon="6.18273">
        <ele>547.5</ele>
        <time>2021-09-10T12:23:53Z</time>
      </trkpt>
      <trkpt lat="44.06466" lon="6.18284">
        <ele>547.5</ele>
        <time>2021-09-10T12:23:55Z</time>
      </trkpt>
      <trkpt lat="44.06472" lon="6.18295">
        <ele>547.6</ele>
        <time>2021-09-10T12:23:56Z</time>
      </trkpt>
      <trkpt lat="44.06476" lon="6.183">
        <ele>547.6</ele>
        <time>2021-09-10T12:23:58Z</time>
      </trkpt>
      <trkpt lat="44.06478" lon="6.1831">
        <ele>547.7</ele>
        <time>2021-09-10T12:23:59Z</time>
      </trkpt>
      <trkpt lat="44.0648" lon="6.18318">
        <ele>547.8</ele>
        <time>2021-09-10T12:24:01Z</time>
      </trkpt>
      <trkpt lat="44.06482" lon="6.18327">
        <ele>547.9</ele>
        <time>2021-09-10T12:24:02Z</time>
      </trkpt>
      <trkpt lat="44.06484" lon="6.18332">
        <ele>547.9</ele>
        <time>2021-09-10T12:24:03Z</time>
      </trkpt>
      <trkpt lat="44.06486" lon="6.18338">
        <ele>548</ele>
        <time>2021-09-10T12:24:05Z</time>
      </trkpt>
      <trkpt lat="44.0649" lon="6.18344">
        <ele>548.1</ele>
        <time>2021-09-10T12:24:06Z</time>
      </trkpt>
      <trkpt lat="44.06493" lon="6.18347">
        <ele>548.3</ele>
        <time>2021-09-10T12:24:08Z</time>
      </trkpt>
      <trkpt lat="44.06497" lon="6.18351">
        <ele>548.4</ele>
        <time>2021-09-10T12:24:09Z</time>
      </trkpt>
      <trkpt lat="44.06501" lon="6.18354">
        <ele>548.5</ele>
        <time>2021-09-10T12:24:10Z</time>
      </trkpt>
      <trkpt lat="44.06506" lon="6.1836">
        <ele>548.7</ele>
        <time>2021-09-10T12:24:12Z</time>
      </trkpt>
      <trkpt lat="44.0651" lon="6.18368">
        <ele>549</ele>
        <time>2021-09-10T12:24:14Z</time>
      </trkpt>
      <trkpt lat="44.06512" lon="6.18374">
        <ele>549.1</ele>
        <time>2021-09-10T12:24:15Z</time>
      </trkpt>
      <trkpt lat="44.06514" lon="6.1838">
        <ele>549.2</ele>
        <time>2021-09-10T12:24:17Z</time>
      </trkpt>
      <trkpt lat="44.06515" lon="6.18384">
        <ele>549.3</ele>
        <time>2021-09-10T12:24:18Z</time>
      </trkpt>
      <trkpt lat="44.06517" lon="6.18391">
        <ele>549.4</ele>
        <time>2021-09-10T12:24:20Z</time>
      </trkpt>
      <trkpt lat="44.0652" lon="6.184">
        <ele>549.5</ele>
        <time>2021-09-10T12:24:21Z</time>
      </trkpt>
      <trkpt lat="44.06524" lon="6.18409">
        <ele>549.6</ele>
        <time>2021-09-10T12:24:23Z</time>
      </trkpt>
      <trkpt lat="44.06527" lon="6.18414">
        <ele>549.7</ele>
        <time>2021-09-10T12:24:24Z</time>
      </trkpt>
      <trkpt lat="44.06532" lon="6.18423">
        <ele>549.8</ele>
        <time>2021-09-10T12:24:25Z</time>
      </trkpt>
      <trkpt lat="44.06534" lon="6.18428">
        <ele>549.8</ele>
        <time>2021-09-10T12:24:27Z</time>
      </trkpt>
      <trkpt lat="44.06535" lon="6.18433">
        <ele>549.8</ele>
        <time>2021-09-10T12:24:28Z</time>
      </trkpt>
      <trkpt lat="44.06536" lon="6.1844">
        <ele>549.7</ele>
        <time>2021-09-10T12:24:29Z</time>
      </trkpt>
      <trkpt lat="44.06536" lon="6.18448">
        <ele>549.7</ele>
        <time>2021-09-10T12:24:30Z</time>
      </trkpt>
      <trkpt lat="44.06535" lon="6.18455">
        <ele>549.7</ele>
        <time>2021-09-10T12:24:32Z</time>
      </trkpt>
      <trkpt lat="44.06535" lon="6.18462">
        <ele>549.8</ele>
        <time>2021-09-10T12:24:33Z</time>
      </trkpt>
      <trkpt lat="44.06534" lon="6.1847">
        <ele>549.8</ele>
        <time>2021-09-10T12:24:35Z</time>
      </trkpt>
      <trkpt lat="44.06534" lon="6.18473">
        <ele>549.8</ele>
        <time>2021-09-10T12:24:36Z</time>
      </trkpt>
      <trkpt lat="44.06534" lon="6.1848">
        <ele>549.9</ele>
        <time>2021-09-10T12:24:38Z</time>
      </trkpt>
      <trkpt lat="44.06534" lon="6.18485">
        <ele>549.9</ele>
        <time>2021-09-10T12:24:39Z</time>
      </trkpt>
      <trkpt lat="44.06533" lon="6.18495">
        <ele>550</ele>
        <time>2021-09-10T12:24:41Z</time>
      </trkpt>
      <trkpt lat="44.06536" lon="6.18507">
        <ele>550.1</ele>
        <time>2021-09-10T12:24:43Z</time>
      </trkpt>
      <trkpt lat="44.06537" lon="6.18519">
        <ele>550.1</ele>
        <time>2021-09-10T12:24:44Z</time>
      </trkpt>
      <trkpt lat="44.06538" lon="6.18533">
        <ele>550.1</ele>
        <time>2021-09-10T12:24:46Z</time>
      </trkpt>
      <trkpt lat="44.06538" lon="6.1854">
        <ele>550.1</ele>
        <time>2021-09-10T12:24:47Z</time>
      </trkpt>
      <trkpt lat="44.06539" lon="6.18546">
        <ele>550.2</ele>
        <time>2021-09-10T12:24:48Z</time>
      </trkpt>
      <trkpt lat="44.0654" lon="6.18554">
        <ele>550.2</ele>
        <time>2021-09-10T12:24:49Z</time>
      </trkpt>
      <trkpt lat="44.0654" lon="6.18561">
        <ele>550.2</ele>
        <time>2021-09-10T12:24:51Z</time>
      </trkpt>
      <trkpt lat="44.0654" lon="6.18567">
        <ele>550.2</ele>
        <time>2021-09-10T12:24:52Z</time>
      </trkpt>
      <trkpt lat="44.0654" lon="6.18575">
        <ele>550.2</ele>
        <time>2021-09-10T12:24:54Z</time>
      </trkpt>
      <trkpt lat="44.06541" lon="6.18582">
        <ele>550.2</ele>
        <time>2021-09-10T12:24:55Z</time>
      </trkpt>
      <trkpt lat="44.06541" lon="6.18587">
        <ele>550.3</ele>
        <time>2021-09-10T12:24:57Z</time>
      </trkpt>
      <trkpt lat="44.06542" lon="6.18597">
        <ele>550.3</ele>
        <time>2021-09-10T12:24:59Z</time>
      </trkpt>
      <trkpt lat="44.06542" lon="6.18601">
        <ele>550.4</ele>
        <time>2021-09-10T12:25:00Z</time>
      </trkpt>
      <trkpt lat="44.06542" lon="6.18609">
        <ele>550.4</ele>
        <time>2021-09-10T12:25:02Z</time>
      </trkpt>
      <trkpt lat="44.06541" lon="6.18615">
        <ele>550.5</ele>
        <time>2021-09-10T12:25:03Z</time>
      </trkpt>
      <trkpt lat="44.0654" lon="6.18624">
        <ele>550.6</ele>
        <time>2021-09-10T12:25:05Z</time>
      </trkpt>
      <trkpt lat="44.06537" lon="6.1863">
        <ele>550.6</ele>
        <time>2021-09-10T12:25:06Z</time>
      </trkpt>
      <trkpt lat="44.06536" lon="6.18636">
        <ele>550.7</ele>
        <time>2021-09-10T12:25:08Z</time>
      </trkpt>
      <trkpt lat="44.06533" lon="6.18643">
        <ele>550.8</ele>
        <time>2021-09-10T12:25:10Z</time>
      </trkpt>
      <trkpt lat="44.06531" lon="6.18651">
        <ele>550.9</ele>
        <time>2021-09-10T12:25:11Z</time>
      </trkpt>
      <trkpt lat="44.06531" lon="6.18655">
        <ele>551</ele>
        <time>2021-09-10T12:25:13Z</time>
      </trkpt>
      <trkpt lat="44.06531" lon="6.18659">
        <ele>551</ele>
        <time>2021-09-10T12:25:14Z</time>
      </trkpt>
      <trkpt lat="44.0653" lon="6.18666">
        <ele>551.1</ele>
        <time>2021-09-10T12:25:16Z</time>
      </trkpt>
      <trkpt lat="44.0653" lon="6.18673">
        <ele>551.2</ele>
        <time>2021-09-10T12:25:18Z</time>
      </trkpt>
      <trkpt lat="44.0653" lon="6.18678">
        <ele>551.3</ele>
        <time>2021-09-10T12:25:19Z</time>
      </trkpt>
      <trkpt lat="44.06529" lon="6.18682">
        <ele>551.3</ele>
        <time>2021-09-10T12:25:20Z</time>
      </trkpt>
      <trkpt lat="44.06528" lon="6.18686">
        <ele>551.4</ele>
        <time>2021-09-10T12:25:21Z</time>
      </trkpt>
      <trkpt lat="44.06527" lon="6.18687">
        <ele>551.4</ele>
        <time>2021-09-10T12:25:22Z</time>
      </trkpt>
      <trkpt lat="44.06526" lon="6.1869">
        <ele>551.5</ele>
        <time>2021-09-10T12:25:23Z</time>
      </trkpt>
      <trkpt lat="44.06525" lon="6.18697">
        <ele>551.6</ele>
        <time>2021-09-10T12:25:25Z</time>
      </trkpt>
      <trkpt lat="44.06524" lon="6.18699">
        <ele>551.7</ele>
        <time>2021-09-10T12:25:26Z</time>
      </trkpt>
      <trkpt lat="44.06524" lon="6.18702">
        <ele>551.7</ele>
        <time>2021-09-10T12:25:27Z</time>
      </trkpt>
      <trkpt lat="44.06524" lon="6.18707">
        <ele>551.8</ele>
        <time>2021-09-10T12:25:29Z</time>
      </trkpt>
      <trkpt lat="44.06523" lon="6.1871">
        <ele>551.9</ele>
        <time>2021-09-10T12:25:30Z</time>
      </trkpt>
      <trkpt lat="44.06521" lon="6.18714">
        <ele>552.1</ele>
        <time>2021-09-10T12:25:32Z</time>
      </trkpt>
      <trkpt lat="44.06518" lon="6.18718">
        <ele>552.2</ele>
        <time>2021-09-10T12:25:34Z</time>
      </trkpt>
      <trkpt lat="44.06516" lon="6.18723">
        <ele>552.4</ele>
        <time>2021-09-10T12:25:36Z</time>
      </trkpt>
      <trkpt lat="44.06516" lon="6.1873">
        <ele>552.6</ele>
        <time>2021-09-10T12:25:37Z</time>
      </trkpt>
      <trkpt lat="44.06516" lon="6.18734">
        <ele>552.7</ele>
        <time>2021-09-10T12:25:39Z</time>
      </trkpt>
      <trkpt lat="44.06517" lon="6.18738">
        <ele>552.9</ele>
        <time>2021-09-10T12:25:40Z</time>
      </trkpt>
      <trkpt lat="44.06517" lon="6.18741">
        <ele>553</ele>
        <time>2021-09-10T12:25:41Z</time>
      </trkpt>
      <trkpt lat="44.06519" lon="6.18746">
        <ele>553.1</ele>
        <time>2021-09-10T12:25:43Z</time>
      </trkpt>
      <trkpt lat="44.06519" lon="6.18749">
        <ele>553.2</ele>
        <time>2021-09-10T12:25:44Z</time>
      </trkpt>
      <trkpt lat="44.0652" lon="6.18755">
        <ele>553.4</ele>
        <time>2021-09-10T12:25:46Z</time>
      </trkpt>
      <trkpt lat="44.0652" lon="6.18762">
        <ele>553.6</ele>
        <time>2021-09-10T12:25:48Z</time>
      </trkpt>
      <trkpt lat="44.0652" lon="6.18768">
        <ele>553.8</ele>
        <time>2021-09-10T12:25:49Z</time>
      </trkpt>
      <trkpt lat="44.06521" lon="6.18769">
        <ele>553.9</ele>
        <time>2021-09-10T12:25:50Z</time>
      </trkpt>
      <trkpt lat="44.06524" lon="6.18774">
        <ele>554</ele>
        <time>2021-09-10T12:25:51Z</time>
      </trkpt>
      <trkpt lat="44.06526" lon="6.18779">
        <ele>554.2</ele>
        <time>2021-09-10T12:25:53Z</time>
      </trkpt>
      <trkpt lat="44.06526" lon="6.18783">
        <ele>554.4</ele>
        <time>2021-09-10T12:25:54Z</time>
      </trkpt>
      <trkpt lat="44.06529" lon="6.18791">
        <ele>554.6</ele>
        <time>2021-09-10T12:25:56Z</time>
      </trkpt>
      <trkpt lat="44.06529" lon="6.18798">
        <ele>554.8</ele>
        <time>2021-09-10T12:25:57Z</time>
      </trkpt>
      <trkpt lat="44.0653" lon="6.18803">
        <ele>555</ele>
        <time>2021-09-10T12:25:59Z</time>
      </trkpt>
      <trkpt lat="44.06531" lon="6.18808">
        <ele>555.2</ele>
        <time>2021-09-10T12:26:00Z</time>
      </trkpt>
      <trkpt lat="44.06531" lon="6.1881">
        <ele>555.2</ele>
        <time>2021-09-10T12:26:01Z</time>
      </trkpt>
      <trkpt lat="44.06532" lon="6.18814">
        <ele>555.4</ele>
        <time>2021-09-10T12:26:03Z</time>
      </trkpt>
      <trkpt lat="44.06534" lon="6.18819">
        <ele>555.6</ele>
        <time>2021-09-10T12:26:04Z</time>
      </trkpt>
      <trkpt lat="44.06535" lon="6.18823">
        <ele>555.7</ele>
        <time>2021-09-10T12:26:06Z</time>
      </trkpt>
      <trkpt lat="44.06536" lon="6.18827">
        <ele>555.9</ele>
        <time>2021-09-10T12:26:07Z</time>
      </trkpt>
      <trkpt lat="44.06535" lon="6.18831">
        <ele>556.1</ele>
        <time>2021-09-10T12:26:08Z</time>
      </trkpt>
      <trkpt lat="44.06534" lon="6.18835">
        <ele>556.3</ele>
        <time>2021-09-10T12:26:10Z</time>
      </trkpt>
      <trkpt lat="44.06533" lon="6.18836">
        <ele>556.4</ele>
        <time>2021-09-10T12:26:11Z</time>
      </trkpt>
      <trkpt lat="44.06534" lon="6.1884">
        <ele>556.5</ele>
        <time>2021-09-10T12:26:12Z</time>
      </trkpt>
      <trkpt lat="44.06534" lon="6.18842">
        <ele>556.6</ele>
        <time>2021-09-10T12:26:13Z</time>
      </trkpt>
      <trkpt lat="44.06536" lon="6.18846">
        <ele>556.8</ele>
        <time>2021-09-10T12:26:15Z</time>
      </trkpt>
      <trkpt lat="44.06537" lon="6.1885">
        <ele>556.9</ele>
        <time>2021-09-10T12:26:16Z</time>
      </trkpt>
      <trkpt lat="44.06539" lon="6.18855">
        <ele>557.1</ele>
        <time>2021-09-10T12:26:18Z</time>
      </trkpt>
      <trkpt lat="44.0654" lon="6.18859">
        <ele>557.3</ele>
        <time>2021-09-10T12:26:19Z</time>
      </trkpt>
      <trkpt lat="44.0654" lon="6.18863">
        <ele>557.4</ele>
        <time>2021-09-10T12:26:20Z</time>
      </trkpt>
      <trkpt lat="44.0654" lon="6.18864">
        <ele>557.4</ele>
        <time>2021-09-10T12:26:21Z</time>
      </trkpt>
      <trkpt lat="44.0654" lon="6.18868">
        <ele>557.6</ele>
        <time>2021-09-10T12:26:23Z</time>
      </trkpt>
      <trkpt lat="44.06539" lon="6.18871">
        <ele>557.7</ele>
        <time>2021-09-10T12:26:25Z</time>
      </trkpt>
      <trkpt lat="44.06539" lon="6.18871">
        <ele>557.7</ele>
        <time>2021-09-10T12:26:26Z</time>
      </trkpt>
      <trkpt lat="44.06539" lon="6.18871">
        <ele>557.7</ele>
        <time>2021-09-10T12:26:27Z</time>
      </trkpt>
      <trkpt lat="44.06539" lon="6.18872">
        <ele>557.7</ele>
        <time>2021-09-10T12:26:29Z</time>
      </trkpt>
      <trkpt lat="44.06539" lon="6.18873">
        <ele>557.7</ele>
        <time>2021-09-10T12:26:30Z</time>
      </trkpt>
      <trkpt lat="44.06538" lon="6.18874">
        <ele>557.8</ele>
        <time>2021-09-10T12:26:31Z</time>
      </trkpt>
      <trkpt lat="44.06538" lon="6.18874">
        <ele>557.8</ele>
        <time>2021-09-10T12:26:32Z</time>
      </trkpt>
      <trkpt lat="44.06538" lon="6.18877">
        <ele>557.9</ele>
        <time>2021-09-10T12:26:33Z</time>
      </trkpt>
      <trkpt lat="44.06536" lon="6.18899">
        <ele>558.5</ele>
        <time>2021-09-10T12:26:42Z</time>
      </trkpt>
      <trkpt lat="44.06538" lon="6.18905">
        <ele>558.6</ele>
        <time>2021-09-10T12:26:43Z</time>
      </trkpt>
      <trkpt lat="44.0654" lon="6.18911">
        <ele>558.7</ele>
        <time>2021-09-10T12:26:44Z</time>
      </trkpt>
      <trkpt lat="44.06543" lon="6.18917">
        <ele>558.8</ele>
        <time>2021-09-10T12:26:46Z</time>
      </trkpt>
      <trkpt lat="44.06545" lon="6.18923">
        <ele>558.9</ele>
        <time>2021-09-10T12:26:47Z</time>
      </trkpt>
      <trkpt lat="44.06549" lon="6.18933">
        <ele>559</ele>
        <time>2021-09-10T12:26:49Z</time>
      </trkpt>
      <trkpt lat="44.06554" lon="6.18942">
        <ele>559.1</ele>
        <time>2021-09-10T12:26:51Z</time>
      </trkpt>
      <trkpt lat="44.06558" lon="6.18946">
        <ele>559.2</ele>
        <time>2021-09-10T12:26:52Z</time>
      </trkpt>
      <trkpt lat="44.06562" lon="6.18956">
        <ele>559.2</ele>
        <time>2021-09-10T12:26:54Z</time>
      </trkpt>
      <trkpt lat="44.06564" lon="6.18961">
        <ele>559.2</ele>
        <time>2021-09-10T12:26:55Z</time>
      </trkpt>
      <trkpt lat="44.06566" lon="6.18967">
        <ele>559.2</ele>
        <time>2021-09-10T12:26:56Z</time>
      </trkpt>
      <trkpt lat="44.06572" lon="6.18978">
        <ele>559.2</ele>
        <time>2021-09-10T12:26:58Z</time>
      </trkpt>
      <trkpt lat="44.06576" lon="6.18989">
        <ele>559.1</ele>
        <time>2021-09-10T12:26:59Z</time>
      </trkpt>
      <trkpt lat="44.0658" lon="6.18994">
        <ele>559.1</ele>
        <time>2021-09-10T12:27:00Z</time>
      </trkpt>
      <trkpt lat="44.06586" lon="6.19001">
        <ele>559.1</ele>
        <time>2021-09-10T12:27:02Z</time>
      </trkpt>
      <trkpt lat="44.06589" lon="6.19009">
        <ele>559</ele>
        <time>2021-09-10T12:27:03Z</time>
      </trkpt>
      <trkpt lat="44.06595" lon="6.19016">
        <ele>559</ele>
        <time>2021-09-10T12:27:04Z</time>
      </trkpt>
      <trkpt lat="44.06601" lon="6.19026">
        <ele>559.2</ele>
        <time>2021-09-10T12:27:06Z</time>
      </trkpt>
      <trkpt lat="44.06606" lon="6.19032">
        <ele>559.3</ele>
        <time>2021-09-10T12:27:08Z</time>
      </trkpt>
      <trkpt lat="44.0661" lon="6.19035">
        <ele>559.4</ele>
        <time>2021-09-10T12:27:10Z</time>
      </trkpt>
      <trkpt lat="44.06619" lon="6.19044">
        <ele>559.7</ele>
        <time>2021-09-10T12:27:11Z</time>
      </trkpt>
      <trkpt lat="44.06624" lon="6.19049">
        <ele>559.8</ele>
        <time>2021-09-10T12:27:13Z</time>
      </trkpt>
      <trkpt lat="44.06626" lon="6.19052">
        <ele>559.9</ele>
        <time>2021-09-10T12:27:14Z</time>
      </trkpt>
      <trkpt lat="44.06628" lon="6.19055">
        <ele>560</ele>
        <time>2021-09-10T12:27:16Z</time>
      </trkpt>
      <trkpt lat="44.0663" lon="6.19059">
        <ele>560.1</ele>
        <time>2021-09-10T12:27:17Z</time>
      </trkpt>
      <trkpt lat="44.06636" lon="6.19066">
        <ele>560.3</ele>
        <time>2021-09-10T12:27:19Z</time>
      </trkpt>
      <trkpt lat="44.06639" lon="6.19071">
        <ele>560.4</ele>
        <time>2021-09-10T12:27:20Z</time>
      </trkpt>
      <trkpt lat="44.06644" lon="6.19081">
        <ele>560.7</ele>
        <time>2021-09-10T12:27:22Z</time>
      </trkpt>
      <trkpt lat="44.06648" lon="6.19089">
        <ele>561</ele>
        <time>2021-09-10T12:27:23Z</time>
      </trkpt>
      <trkpt lat="44.06651" lon="6.19095">
        <ele>561.1</ele>
        <time>2021-09-10T12:27:25Z</time>
      </trkpt>
      <trkpt lat="44.06652" lon="6.19099">
        <ele>561.2</ele>
        <time>2021-09-10T12:27:26Z</time>
      </trkpt>
      <trkpt lat="44.06654" lon="6.19103">
        <ele>561.4</ele>
        <time>2021-09-10T12:27:27Z</time>
      </trkpt>
      <trkpt lat="44.06655" lon="6.19108">
        <ele>561.5</ele>
        <time>2021-09-10T12:27:29Z</time>
      </trkpt>
      <trkpt lat="44.06656" lon="6.19112">
        <ele>561.6</ele>
        <time>2021-09-10T12:27:30Z</time>
      </trkpt>
      <trkpt lat="44.0666" lon="6.19117">
        <ele>561.7</ele>
        <time>2021-09-10T12:27:32Z</time>
      </trkpt>
      <trkpt lat="44.06663" lon="6.19124">
        <ele>561.9</ele>
        <time>2021-09-10T12:27:33Z</time>
      </trkpt>
      <trkpt lat="44.06666" lon="6.19129">
        <ele>562</ele>
        <time>2021-09-10T12:27:35Z</time>
      </trkpt>
      <trkpt lat="44.06668" lon="6.19134">
        <ele>562</ele>
        <time>2021-09-10T12:27:36Z</time>
      </trkpt>
      <trkpt lat="44.06671" lon="6.19141">
        <ele>562.1</ele>
        <time>2021-09-10T12:27:38Z</time>
      </trkpt>
      <trkpt lat="44.06673" lon="6.19145">
        <ele>562.2</ele>
        <time>2021-09-10T12:27:39Z</time>
      </trkpt>
      <trkpt lat="44.06675" lon="6.19149">
        <ele>562.2</ele>
        <time>2021-09-10T12:27:40Z</time>
      </trkpt>
      <trkpt lat="44.06678" lon="6.19154">
        <ele>562.3</ele>
        <time>2021-09-10T12:27:41Z</time>
      </trkpt>
      <trkpt lat="44.0668" lon="6.1916">
        <ele>562.3</ele>
        <time>2021-09-10T12:27:43Z</time>
      </trkpt>
      <trkpt lat="44.06681" lon="6.19165">
        <ele>562.4</ele>
        <time>2021-09-10T12:27:44Z</time>
      </trkpt>
      <trkpt lat="44.0668" lon="6.19171">
        <ele>562.4</ele>
        <time>2021-09-10T12:27:45Z</time>
      </trkpt>
      <trkpt lat="44.06677" lon="6.19178">
        <ele>562.4</ele>
        <time>2021-09-10T12:27:47Z</time>
      </trkpt>
      <trkpt lat="44.06675" lon="6.19181">
        <ele>562.4</ele>
        <time>2021-09-10T12:27:48Z</time>
      </trkpt>
      <trkpt lat="44.06672" lon="6.19185">
        <ele>562.7</ele>
        <time>2021-09-10T12:27:49Z</time>
      </trkpt>
      <trkpt lat="44.06669" lon="6.19192">
        <ele>563</ele>
        <time>2021-09-10T12:27:51Z</time>
      </trkpt>
      <trkpt lat="44.06666" lon="6.19197">
        <ele>563.2</ele>
        <time>2021-09-10T12:27:53Z</time>
      </trkpt>
      <trkpt lat="44.06663" lon="6.19201">
        <ele>563.4</ele>
        <time>2021-09-10T12:27:54Z</time>
      </trkpt>
      <trkpt lat="44.0666" lon="6.19205">
        <ele>563.7</ele>
        <time>2021-09-10T12:27:55Z</time>
      </trkpt>
      <trkpt lat="44.06657" lon="6.19209">
        <ele>563.9</ele>
        <time>2021-09-10T12:27:56Z</time>
      </trkpt>
      <trkpt lat="44.06655" lon="6.19214">
        <ele>564</ele>
        <time>2021-09-10T12:27:57Z</time>
      </trkpt>
      <trkpt lat="44.06653" lon="6.19218">
        <ele>564</ele>
        <time>2021-09-10T12:27:59Z</time>
      </trkpt>
      <trkpt lat="44.06651" lon="6.19222">
        <ele>564</ele>
        <time>2021-09-10T12:28:00Z</time>
      </trkpt>
      <trkpt lat="44.06652" lon="6.19224">
        <ele>564</ele>
        <time>2021-09-10T12:28:01Z</time>
      </trkpt>
      <trkpt lat="44.06653" lon="6.19231">
        <ele>564.1</ele>
        <time>2021-09-10T12:28:03Z</time>
      </trkpt>
      <trkpt lat="44.06654" lon="6.19237">
        <ele>564.1</ele>
        <time>2021-09-10T12:28:04Z</time>
      </trkpt>
      <trkpt lat="44.06655" lon="6.19243">
        <ele>564.1</ele>
        <time>2021-09-10T12:28:05Z</time>
      </trkpt>
      <trkpt lat="44.06655" lon="6.19252">
        <ele>564.2</ele>
        <time>2021-09-10T12:28:07Z</time>
      </trkpt>
      <trkpt lat="44.06657" lon="6.19257">
        <ele>564.2</ele>
        <time>2021-09-10T12:28:08Z</time>
      </trkpt>
      <trkpt lat="44.06659" lon="6.1926">
        <ele>564.3</ele>
        <time>2021-09-10T12:28:10Z</time>
      </trkpt>
      <trkpt lat="44.06662" lon="6.19262">
        <ele>564.3</ele>
        <time>2021-09-10T12:28:11Z</time>
      </trkpt>
      <trkpt lat="44.06666" lon="6.19263">
        <ele>564.3</ele>
        <time>2021-09-10T12:28:13Z</time>
      </trkpt>
      <trkpt lat="44.06666" lon="6.19263">
        <ele>564.3</ele>
        <time>2021-09-10T12:28:14Z</time>
      </trkpt>
      <trkpt lat="44.06669" lon="6.19264">
        <ele>564.3</ele>
        <time>2021-09-10T12:28:15Z</time>
      </trkpt>
      <trkpt lat="44.06673" lon="6.19269">
        <ele>564.4</ele>
        <time>2021-09-10T12:28:17Z</time>
      </trkpt>
      <trkpt lat="44.06677" lon="6.19274">
        <ele>564.5</ele>
        <time>2021-09-10T12:28:18Z</time>
      </trkpt>
      <trkpt lat="44.06679" lon="6.19279">
        <ele>564.6</ele>
        <time>2021-09-10T12:28:19Z</time>
      </trkpt>
      <trkpt lat="44.06682" lon="6.19289">
        <ele>564.8</ele>
        <time>2021-09-10T12:28:21Z</time>
      </trkpt>
      <trkpt lat="44.06685" lon="6.19298">
        <ele>565</ele>
        <time>2021-09-10T12:28:22Z</time>
      </trkpt>
      <trkpt lat="44.06688" lon="6.19304">
        <ele>565.2</ele>
        <time>2021-09-10T12:28:24Z</time>
      </trkpt>
      <trkpt lat="44.0669" lon="6.19308">
        <ele>565.3</ele>
        <time>2021-09-10T12:28:25Z</time>
      </trkpt>
      <trkpt lat="44.06693" lon="6.19312">
        <ele>565.4</ele>
        <time>2021-09-10T12:28:26Z</time>
      </trkpt>
      <trkpt lat="44.06698" lon="6.19323">
        <ele>565.7</ele>
        <time>2021-09-10T12:28:28Z</time>
      </trkpt>
      <trkpt lat="44.06701" lon="6.19331">
        <ele>566</ele>
        <time>2021-09-10T12:28:29Z</time>
      </trkpt>
      <trkpt lat="44.06703" lon="6.19336">
        <ele>566.1</ele>
        <time>2021-09-10T12:28:31Z</time>
      </trkpt>
      <trkpt lat="44.06705" lon="6.1934">
        <ele>566.2</ele>
        <time>2021-09-10T12:28:32Z</time>
      </trkpt>
      <trkpt lat="44.06709" lon="6.19349">
        <ele>566.5</ele>
        <time>2021-09-10T12:28:34Z</time>
      </trkpt>
      <trkpt lat="44.06711" lon="6.19352">
        <ele>566.6</ele>
        <time>2021-09-10T12:28:35Z</time>
      </trkpt>
      <trkpt lat="44.06714" lon="6.19357">
        <ele>566.8</ele>
        <time>2021-09-10T12:28:36Z</time>
      </trkpt>
      <trkpt lat="44.06716" lon="6.19361">
        <ele>566.9</ele>
        <time>2021-09-10T12:28:37Z</time>
      </trkpt>
      <trkpt lat="44.06719" lon="6.19367">
        <ele>567.1</ele>
        <time>2021-09-10T12:28:39Z</time>
      </trkpt>
      <trkpt lat="44.06721" lon="6.19372">
        <ele>567.2</ele>
        <time>2021-09-10T12:28:40Z</time>
      </trkpt>
      <trkpt lat="44.06723" lon="6.19376">
        <ele>567.3</ele>
        <time>2021-09-10T12:28:41Z</time>
      </trkpt>
      <trkpt lat="44.06725" lon="6.19382">
        <ele>567.5</ele>
        <time>2021-09-10T12:28:42Z</time>
      </trkpt>
      <trkpt lat="44.06728" lon="6.1939">
        <ele>567.7</ele>
        <time>2021-09-10T12:28:44Z</time>
      </trkpt>
      <trkpt lat="44.06733" lon="6.194">
        <ele>568.1</ele>
        <time>2021-09-10T12:28:46Z</time>
      </trkpt>
      <trkpt lat="44.06735" lon="6.19404">
        <ele>568.2</ele>
        <time>2021-09-10T12:28:47Z</time>
      </trkpt>
      <trkpt lat="44.06737" lon="6.19408">
        <ele>568.3</ele>
        <time>2021-09-10T12:28:48Z</time>
      </trkpt>
      <trkpt lat="44.06739" lon="6.19414">
        <ele>568.4</ele>
        <time>2021-09-10T12:28:49Z</time>
      </trkpt>
      <trkpt lat="44.06742" lon="6.1942">
        <ele>568.6</ele>
        <time>2021-09-10T12:28:51Z</time>
      </trkpt>
      <trkpt lat="44.06743" lon="6.19425">
        <ele>568.7</ele>
        <time>2021-09-10T12:28:52Z</time>
      </trkpt>
      <trkpt lat="44.06744" lon="6.19428">
        <ele>568.7</ele>
        <time>2021-09-10T12:28:53Z</time>
      </trkpt>
      <trkpt lat="44.06745" lon="6.19433">
        <ele>568.8</ele>
        <time>2021-09-10T12:28:54Z</time>
      </trkpt>
      <trkpt lat="44.06748" lon="6.19438">
        <ele>569</ele>
        <time>2021-09-10T12:28:55Z</time>
      </trkpt>
      <trkpt lat="44.06751" lon="6.19444">
        <ele>569.1</ele>
        <time>2021-09-10T12:28:57Z</time>
      </trkpt>
      <trkpt lat="44.06754" lon="6.19451">
        <ele>569.3</ele>
        <time>2021-09-10T12:28:59Z</time>
      </trkpt>
      <trkpt lat="44.06755" lon="6.19456">
        <ele>569.4</ele>
        <time>2021-09-10T12:29:00Z</time>
      </trkpt>
      <trkpt lat="44.06758" lon="6.19463">
        <ele>569.6</ele>
        <time>2021-09-10T12:29:01Z</time>
      </trkpt>
      <trkpt lat="44.06759" lon="6.19468">
        <ele>569.7</ele>
        <time>2021-09-10T12:29:03Z</time>
      </trkpt>
      <trkpt lat="44.06763" lon="6.19475">
        <ele>570</ele>
        <time>2021-09-10T12:29:05Z</time>
      </trkpt>
      <trkpt lat="44.06765" lon="6.19479">
        <ele>570.1</ele>
        <time>2021-09-10T12:29:06Z</time>
      </trkpt>
      <trkpt lat="44.06768" lon="6.19488">
        <ele>570.4</ele>
        <time>2021-09-10T12:29:08Z</time>
      </trkpt>
      <trkpt lat="44.06769" lon="6.19493">
        <ele>570.5</ele>
        <time>2021-09-10T12:29:09Z</time>
      </trkpt>
      <trkpt lat="44.06771" lon="6.19498">
        <ele>570.6</ele>
        <time>2021-09-10T12:29:10Z</time>
      </trkpt>
      <trkpt lat="44.06773" lon="6.19503">
        <ele>570.7</ele>
        <time>2021-09-10T12:29:12Z</time>
      </trkpt>
      <trkpt lat="44.06774" lon="6.19507">
        <ele>570.8</ele>
        <time>2021-09-10T12:29:13Z</time>
      </trkpt>
      <trkpt lat="44.06776" lon="6.19513">
        <ele>570.9</ele>
        <time>2021-09-10T12:29:15Z</time>
      </trkpt>
      <trkpt lat="44.06778" lon="6.19519">
        <ele>571</ele>
        <time>2021-09-10T12:29:16Z</time>
      </trkpt>
      <trkpt lat="44.0678" lon="6.19521">
        <ele>571.1</ele>
        <time>2021-09-10T12:29:17Z</time>
      </trkpt>
      <trkpt lat="44.06782" lon="6.19525">
        <ele>571.2</ele>
        <time>2021-09-10T12:29:19Z</time>
      </trkpt>
      <trkpt lat="44.06785" lon="6.19527">
        <ele>571.2</ele>
        <time>2021-09-10T12:29:20Z</time>
      </trkpt>
      <trkpt lat="44.06787" lon="6.1953">
        <ele>571.3</ele>
        <time>2021-09-10T12:29:21Z</time>
      </trkpt>
      <trkpt lat="44.06789" lon="6.19534">
        <ele>571.4</ele>
        <time>2021-09-10T12:29:22Z</time>
      </trkpt>
      <trkpt lat="44.06794" lon="6.19542">
        <ele>571.6</ele>
        <time>2021-09-10T12:29:24Z</time>
      </trkpt>
      <trkpt lat="44.06799" lon="6.19547">
        <ele>571.7</ele>
        <time>2021-09-10T12:29:26Z</time>
      </trkpt>
      <trkpt lat="44.06802" lon="6.19551">
        <ele>571.8</ele>
        <time>2021-09-10T12:29:27Z</time>
      </trkpt>
      <trkpt lat="44.06805" lon="6.19555">
        <ele>571.9</ele>
        <time>2021-09-10T12:29:28Z</time>
      </trkpt>
      <trkpt lat="44.06808" lon="6.19564">
        <ele>572</ele>
        <time>2021-09-10T12:29:30Z</time>
      </trkpt>
      <trkpt lat="44.06811" lon="6.19571">
        <ele>572.1</ele>
        <time>2021-09-10T12:29:32Z</time>
      </trkpt>
      <trkpt lat="44.06814" lon="6.19578">
        <ele>572.2</ele>
        <time>2021-09-10T12:29:34Z</time>
      </trkpt>
      <trkpt lat="44.06816" lon="6.19582">
        <ele>572.3</ele>
        <time>2021-09-10T12:29:35Z</time>
      </trkpt>
      <trkpt lat="44.06819" lon="6.19589">
        <ele>572.4</ele>
        <time>2021-09-10T12:29:36Z</time>
      </trkpt>
      <trkpt lat="44.06821" lon="6.19595">
        <ele>572.5</ele>
        <time>2021-09-10T12:29:38Z</time>
      </trkpt>
      <trkpt lat="44.06822" lon="6.196">
        <ele>572.5</ele>
        <time>2021-09-10T12:29:39Z</time>
      </trkpt>
      <trkpt lat="44.06824" lon="6.1961">
        <ele>572.6</ele>
        <time>2021-09-10T12:29:41Z</time>
      </trkpt>
      <trkpt lat="44.06826" lon="6.19618">
        <ele>572.7</ele>
        <time>2021-09-10T12:29:43Z</time>
      </trkpt>
      <trkpt lat="44.06828" lon="6.19622">
        <ele>572.8</ele>
        <time>2021-09-10T12:29:44Z</time>
      </trkpt>
      <trkpt lat="44.06829" lon="6.19627">
        <ele>572.8</ele>
        <time>2021-09-10T12:29:45Z</time>
      </trkpt>
      <trkpt lat="44.0683" lon="6.19637">
        <ele>573</ele>
        <time>2021-09-10T12:29:47Z</time>
      </trkpt>
      <trkpt lat="44.06829" lon="6.19645">
        <ele>573.1</ele>
        <time>2021-09-10T12:29:49Z</time>
      </trkpt>
      <trkpt lat="44.0683" lon="6.19649">
        <ele>573.1</ele>
        <time>2021-09-10T12:29:50Z</time>
      </trkpt>
      <trkpt lat="44.06831" lon="6.19653">
        <ele>573.1</ele>
        <time>2021-09-10T12:29:51Z</time>
      </trkpt>
      <trkpt lat="44.06834" lon="6.19657">
        <ele>573.2</ele>
        <time>2021-09-10T12:29:53Z</time>
      </trkpt>
      <trkpt lat="44.06838" lon="6.1966">
        <ele>573.2</ele>
        <time>2021-09-10T12:29:55Z</time>
      </trkpt>
      <trkpt lat="44.06841" lon="6.19665">
        <ele>573.3</ele>
        <time>2021-09-10T12:29:56Z</time>
      </trkpt>
      <trkpt lat="44.06842" lon="6.19667">
        <ele>573.3</ele>
        <time>2021-09-10T12:29:57Z</time>
      </trkpt>
      <trkpt lat="44.06843" lon="6.19672">
        <ele>573.3</ele>
        <time>2021-09-10T12:29:59Z</time>
      </trkpt>
      <trkpt lat="44.06844" lon="6.19676">
        <ele>573.4</ele>
        <time>2021-09-10T12:30:00Z</time>
      </trkpt>
      <trkpt lat="44.06848" lon="6.19683">
        <ele>573.4</ele>
        <time>2021-09-10T12:30:02Z</time>
      </trkpt>
      <trkpt lat="44.06851" lon="6.19691">
        <ele>573.5</ele>
        <time>2021-09-10T12:30:04Z</time>
      </trkpt>
      <trkpt lat="44.06853" lon="6.19696">
        <ele>573.6</ele>
        <time>2021-09-10T12:30:05Z</time>
      </trkpt>
      <trkpt lat="44.06857" lon="6.19702">
        <ele>573.6</ele>
        <time>2021-09-10T12:30:06Z</time>
      </trkpt>
      <trkpt lat="44.06862" lon="6.19711">
        <ele>573.8</ele>
        <time>2021-09-10T12:30:08Z</time>
      </trkpt>
      <trkpt lat="44.06871" lon="6.19721">
        <ele>573.9</ele>
        <time>2021-09-10T12:30:09Z</time>
      </trkpt>
      <trkpt lat="44.06874" lon="6.19726">
        <ele>573.9</ele>
        <time>2021-09-10T12:30:10Z</time>
      </trkpt>
      <trkpt lat="44.06878" lon="6.19735">
        <ele>574</ele>
        <time>2021-09-10T12:30:11Z</time>
      </trkpt>
      <trkpt lat="44.06882" lon="6.19742">
        <ele>574.1</ele>
        <time>2021-09-10T12:30:13Z</time>
      </trkpt>
      <trkpt lat="44.06885" lon="6.19747">
        <ele>574.2</ele>
        <time>2021-09-10T12:30:14Z</time>
      </trkpt>
      <trkpt lat="44.06889" lon="6.19755">
        <ele>574.2</ele>
        <time>2021-09-10T12:30:16Z</time>
      </trkpt>
      <trkpt lat="44.06897" lon="6.19763">
        <ele>574.4</ele>
        <time>2021-09-10T12:30:17Z</time>
      </trkpt>
      <trkpt lat="44.069" lon="6.19768">
        <ele>574.4</ele>
        <time>2021-09-10T12:30:18Z</time>
      </trkpt>
      <trkpt lat="44.06908" lon="6.19778">
        <ele>574.5</ele>
        <time>2021-09-10T12:30:20Z</time>
      </trkpt>
      <trkpt lat="44.06915" lon="6.19787">
        <ele>574.6</ele>
        <time>2021-09-10T12:30:22Z</time>
      </trkpt>
      <trkpt lat="44.06919" lon="6.19791">
        <ele>574.7</ele>
        <time>2021-09-10T12:30:23Z</time>
      </trkpt>
      <trkpt lat="44.06921" lon="6.19795">
        <ele>574.7</ele>
        <time>2021-09-10T12:30:24Z</time>
      </trkpt>
      <trkpt lat="44.06923" lon="6.198">
        <ele>574.8</ele>
        <time>2021-09-10T12:30:25Z</time>
      </trkpt>
      <trkpt lat="44.06928" lon="6.19809">
        <ele>574.9</ele>
        <time>2021-09-10T12:30:27Z</time>
      </trkpt>
      <trkpt lat="44.06931" lon="6.19811">
        <ele>574.9</ele>
        <time>2021-09-10T12:30:28Z</time>
      </trkpt>
      <trkpt lat="44.06936" lon="6.19817">
        <ele>575</ele>
        <time>2021-09-10T12:30:30Z</time>
      </trkpt>
      <trkpt lat="44.06942" lon="6.19825">
        <ele>575.1</ele>
        <time>2021-09-10T12:30:31Z</time>
      </trkpt>
      <trkpt lat="44.06946" lon="6.1983">
        <ele>575.1</ele>
        <time>2021-09-10T12:30:33Z</time>
      </trkpt>
      <trkpt lat="44.06955" lon="6.19844">
        <ele>575.2</ele>
        <time>2021-09-10T12:30:35Z</time>
      </trkpt>
      <trkpt lat="44.06958" lon="6.1985">
        <ele>575.2</ele>
        <time>2021-09-10T12:30:36Z</time>
      </trkpt>
      <trkpt lat="44.06966" lon="6.19862">
        <ele>575.3</ele>
        <time>2021-09-10T12:30:38Z</time>
      </trkpt>
      <trkpt lat="44.06969" lon="6.19868">
        <ele>575.3</ele>
        <time>2021-09-10T12:30:39Z</time>
      </trkpt>
      <trkpt lat="44.06973" lon="6.19873">
        <ele>575.4</ele>
        <time>2021-09-10T12:30:40Z</time>
      </trkpt>
      <trkpt lat="44.06974" lon="6.19878">
        <ele>575.4</ele>
        <time>2021-09-10T12:30:42Z</time>
      </trkpt>
      <trkpt lat="44.06978" lon="6.19882">
        <ele>575.4</ele>
        <time>2021-09-10T12:30:43Z</time>
      </trkpt>
      <trkpt lat="44.06982" lon="6.19891">
        <ele>575.4</ele>
        <time>2021-09-10T12:30:44Z</time>
      </trkpt>
      <trkpt lat="44.06985" lon="6.19896">
        <ele>575.4</ele>
        <time>2021-09-10T12:30:45Z</time>
      </trkpt>
      <trkpt lat="44.06992" lon="6.19908">
        <ele>575.4</ele>
        <time>2021-09-10T12:30:47Z</time>
      </trkpt>
      <trkpt lat="44.06994" lon="6.19913">
        <ele>575.4</ele>
        <time>2021-09-10T12:30:48Z</time>
      </trkpt>
      <trkpt lat="44.07" lon="6.19925">
        <ele>575.4</ele>
        <time>2021-09-10T12:30:50Z</time>
      </trkpt>
      <trkpt lat="44.07007" lon="6.19938">
        <ele>575.4</ele>
        <time>2021-09-10T12:30:52Z</time>
      </trkpt>
      <trkpt lat="44.07012" lon="6.19945">
        <ele>575.4</ele>
        <time>2021-09-10T12:30:53Z</time>
      </trkpt>
      <trkpt lat="44.07019" lon="6.19958">
        <ele>575.4</ele>
        <time>2021-09-10T12:30:55Z</time>
      </trkpt>
      <trkpt lat="44.07023" lon="6.19964">
        <ele>575.4</ele>
        <time>2021-09-10T12:30:56Z</time>
      </trkpt>
      <trkpt lat="44.07031" lon="6.19974">
        <ele>575.3</ele>
        <time>2021-09-10T12:30:58Z</time>
      </trkpt>
      <trkpt lat="44.07039" lon="6.19986">
        <ele>575.3</ele>
        <time>2021-09-10T12:31:00Z</time>
      </trkpt>
      <trkpt lat="44.07043" lon="6.19993">
        <ele>575.3</ele>
        <time>2021-09-10T12:31:01Z</time>
      </trkpt>
      <trkpt lat="44.07047" lon="6.19999">
        <ele>575.3</ele>
        <time>2021-09-10T12:31:02Z</time>
      </trkpt>
      <trkpt lat="44.07053" lon="6.20011">
        <ele>575.2</ele>
        <time>2021-09-10T12:31:04Z</time>
      </trkpt>
      <trkpt lat="44.07057" lon="6.20016">
        <ele>575.2</ele>
        <time>2021-09-10T12:31:05Z</time>
      </trkpt>
      <trkpt lat="44.07062" lon="6.20024">
        <ele>575.2</ele>
        <time>2021-09-10T12:31:07Z</time>
      </trkpt>
      <trkpt lat="44.07065" lon="6.20029">
        <ele>575.2</ele>
        <time>2021-09-10T12:31:08Z</time>
      </trkpt>
      <trkpt lat="44.07068" lon="6.20035">
        <ele>575.1</ele>
        <time>2021-09-10T12:31:09Z</time>
      </trkpt>
      <trkpt lat="44.07075" lon="6.20045">
        <ele>575.1</ele>
        <time>2021-09-10T12:31:11Z</time>
      </trkpt>
      <trkpt lat="44.07078" lon="6.20049">
        <ele>575.1</ele>
        <time>2021-09-10T12:31:12Z</time>
      </trkpt>
      <trkpt lat="44.07086" lon="6.20059">
        <ele>575</ele>
        <time>2021-09-10T12:31:14Z</time>
      </trkpt>
      <trkpt lat="44.0709" lon="6.20064">
        <ele>575</ele>
        <time>2021-09-10T12:31:15Z</time>
      </trkpt>
      <trkpt lat="44.07096" lon="6.20076">
        <ele>574.9</ele>
        <time>2021-09-10T12:31:17Z</time>
      </trkpt>
      <trkpt lat="44.07099" lon="6.20082">
        <ele>574.9</ele>
        <time>2021-09-10T12:31:18Z</time>
      </trkpt>
      <trkpt lat="44.07105" lon="6.20095">
        <ele>574.8</ele>
        <time>2021-09-10T12:31:20Z</time>
      </trkpt>
      <trkpt lat="44.0711" lon="6.20108">
        <ele>574.8</ele>
        <time>2021-09-10T12:31:22Z</time>
      </trkpt>
      <trkpt lat="44.07114" lon="6.20118">
        <ele>574.8</ele>
        <time>2021-09-10T12:31:24Z</time>
      </trkpt>
      <trkpt lat="44.07117" lon="6.20125">
        <ele>574.7</ele>
        <time>2021-09-10T12:31:25Z</time>
      </trkpt>
      <trkpt lat="44.07119" lon="6.20133">
        <ele>574.7</ele>
        <time>2021-09-10T12:31:26Z</time>
      </trkpt>
      <trkpt lat="44.07126" lon="6.20148">
        <ele>574.7</ele>
        <time>2021-09-10T12:31:28Z</time>
      </trkpt>
      <trkpt lat="44.07128" lon="6.20156">
        <ele>574.7</ele>
        <time>2021-09-10T12:31:29Z</time>
      </trkpt>
      <trkpt lat="44.07135" lon="6.20171">
        <ele>574.7</ele>
        <time>2021-09-10T12:31:31Z</time>
      </trkpt>
      <trkpt lat="44.07139" lon="6.20178">
        <ele>574.7</ele>
        <time>2021-09-10T12:31:32Z</time>
      </trkpt>
      <trkpt lat="44.07147" lon="6.20191">
        <ele>574.8</ele>
        <time>2021-09-10T12:31:34Z</time>
      </trkpt>
      <trkpt lat="44.07152" lon="6.20197">
        <ele>574.9</ele>
        <time>2021-09-10T12:31:35Z</time>
      </trkpt>
      <trkpt lat="44.07162" lon="6.20209">
        <ele>575.2</ele>
        <time>2021-09-10T12:31:37Z</time>
      </trkpt>
      <trkpt lat="44.07167" lon="6.20214">
        <ele>575.3</ele>
        <time>2021-09-10T12:31:38Z</time>
      </trkpt>
      <trkpt lat="44.07177" lon="6.20222">
        <ele>575.6</ele>
        <time>2021-09-10T12:31:40Z</time>
      </trkpt>
      <trkpt lat="44.07187" lon="6.20229">
        <ele>575.8</ele>
        <time>2021-09-10T12:31:42Z</time>
      </trkpt>
      <trkpt lat="44.07196" lon="6.20235">
        <ele>576</ele>
        <time>2021-09-10T12:31:44Z</time>
      </trkpt>
      <trkpt lat="44.07201" lon="6.20236">
        <ele>576.2</ele>
        <time>2021-09-10T12:31:45Z</time>
      </trkpt>
      <trkpt lat="44.07206" lon="6.20236">
        <ele>576.3</ele>
        <time>2021-09-10T12:31:46Z</time>
      </trkpt>
      <trkpt lat="44.07211" lon="6.20238">
        <ele>576.5</ele>
        <time>2021-09-10T12:31:47Z</time>
      </trkpt>
      <trkpt lat="44.07223" lon="6.20242">
        <ele>576.8</ele>
        <time>2021-09-10T12:31:49Z</time>
      </trkpt>
      <trkpt lat="44.07228" lon="6.20243">
        <ele>576.9</ele>
        <time>2021-09-10T12:31:50Z</time>
      </trkpt>
      <trkpt lat="44.07237" lon="6.20245">
        <ele>577.2</ele>
        <time>2021-09-10T12:31:52Z</time>
      </trkpt>
      <trkpt lat="44.07247" lon="6.20247">
        <ele>577.5</ele>
        <time>2021-09-10T12:31:54Z</time>
      </trkpt>
      <trkpt lat="44.07256" lon="6.20252">
        <ele>577.7</ele>
        <time>2021-09-10T12:31:56Z</time>
      </trkpt>
      <trkpt lat="44.07262" lon="6.20258">
        <ele>577.9</ele>
        <time>2021-09-10T12:31:58Z</time>
      </trkpt>
      <trkpt lat="44.07267" lon="6.20264">
        <ele>578.1</ele>
        <time>2021-09-10T12:32:00Z</time>
      </trkpt>
      <trkpt lat="44.07273" lon="6.20272">
        <ele>578.3</ele>
        <time>2021-09-10T12:32:02Z</time>
      </trkpt>
      <trkpt lat="44.07282" lon="6.20283">
        <ele>578.5</ele>
        <time>2021-09-10T12:32:04Z</time>
      </trkpt>
      <trkpt lat="44.07279" lon="6.20285">
        <ele>578.6</ele>
        <time>2021-09-10T12:32:05Z</time>
      </trkpt>
      <trkpt lat="44.07284" lon="6.20293">
        <ele>578.7</ele>
        <time>2021-09-10T12:32:07Z</time>
      </trkpt>
      <trkpt lat="44.07292" lon="6.20295">
        <ele>578.9</ele>
        <time>2021-09-10T12:32:08Z</time>
      </trkpt>
      <trkpt lat="44.07297" lon="6.20301">
        <ele>579</ele>
        <time>2021-09-10T12:32:09Z</time>
      </trkpt>
      <trkpt lat="44.07303" lon="6.20306">
        <ele>579.1</ele>
        <time>2021-09-10T12:32:11Z</time>
      </trkpt>
      <trkpt lat="44.07306" lon="6.20311">
        <ele>579.2</ele>
        <time>2021-09-10T12:32:13Z</time>
      </trkpt>
      <trkpt lat="44.07312" lon="6.20317">
        <ele>579.3</ele>
        <time>2021-09-10T12:32:15Z</time>
      </trkpt>
      <trkpt lat="44.07317" lon="6.20323">
        <ele>579.4</ele>
        <time>2021-09-10T12:32:16Z</time>
      </trkpt>
      <trkpt lat="44.0732" lon="6.20328">
        <ele>579.6</ele>
        <time>2021-09-10T12:32:18Z</time>
      </trkpt>
      <trkpt lat="44.07324" lon="6.20332">
        <ele>579.7</ele>
        <time>2021-09-10T12:32:19Z</time>
      </trkpt>
      <trkpt lat="44.07328" lon="6.20339">
        <ele>579.8</ele>
        <time>2021-09-10T12:32:21Z</time>
      </trkpt>
      <trkpt lat="44.07332" lon="6.20346">
        <ele>579.9</ele>
        <time>2021-09-10T12:32:23Z</time>
      </trkpt>
      <trkpt lat="44.07338" lon="6.20354">
        <ele>580</ele>
        <time>2021-09-10T12:32:25Z</time>
      </trkpt>
      <trkpt lat="44.07344" lon="6.20359">
        <ele>580.1</ele>
        <time>2021-09-10T12:32:26Z</time>
      </trkpt>
      <trkpt lat="44.07349" lon="6.20364">
        <ele>580.1</ele>
        <time>2021-09-10T12:32:27Z</time>
      </trkpt>
      <trkpt lat="44.07354" lon="6.20366">
        <ele>580.2</ele>
        <time>2021-09-10T12:32:29Z</time>
      </trkpt>
      <trkpt lat="44.07357" lon="6.2037">
        <ele>580.2</ele>
        <time>2021-09-10T12:32:30Z</time>
      </trkpt>
      <trkpt lat="44.07362" lon="6.20373">
        <ele>580.3</ele>
        <time>2021-09-10T12:32:32Z</time>
      </trkpt>
      <trkpt lat="44.0737" lon="6.2038">
        <ele>580.4</ele>
        <time>2021-09-10T12:32:33Z</time>
      </trkpt>
      <trkpt lat="44.07375" lon="6.20384">
        <ele>580.5</ele>
        <time>2021-09-10T12:32:34Z</time>
      </trkpt>
      <trkpt lat="44.07385" lon="6.20389">
        <ele>580.6</ele>
        <time>2021-09-10T12:32:36Z</time>
      </trkpt>
      <trkpt lat="44.0739" lon="6.20391">
        <ele>580.6</ele>
        <time>2021-09-10T12:32:37Z</time>
      </trkpt>
      <trkpt lat="44.07399" lon="6.20398">
        <ele>580.6</ele>
        <time>2021-09-10T12:32:39Z</time>
      </trkpt>
      <trkpt lat="44.07404" lon="6.20402">
        <ele>580.6</ele>
        <time>2021-09-10T12:32:40Z</time>
      </trkpt>
      <trkpt lat="44.07414" lon="6.2041">
        <ele>580.7</ele>
        <time>2021-09-10T12:32:42Z</time>
      </trkpt>
      <trkpt lat="44.07422" lon="6.20418">
        <ele>580.7</ele>
        <time>2021-09-10T12:32:44Z</time>
      </trkpt>
      <trkpt lat="44.07425" lon="6.20421">
        <ele>580.7</ele>
        <time>2021-09-10T12:32:45Z</time>
      </trkpt>
      <trkpt lat="44.07431" lon="6.20429">
        <ele>580.7</ele>
        <time>2021-09-10T12:32:47Z</time>
      </trkpt>
      <trkpt lat="44.07434" lon="6.20436">
        <ele>580.7</ele>
        <time>2021-09-10T12:32:48Z</time>
      </trkpt>
      <trkpt lat="44.07438" lon="6.2045">
        <ele>580.8</ele>
        <time>2021-09-10T12:32:50Z</time>
      </trkpt>
      <trkpt lat="44.07439" lon="6.20456">
        <ele>580.8</ele>
        <time>2021-09-10T12:32:51Z</time>
      </trkpt>
      <trkpt lat="44.07443" lon="6.20462">
        <ele>580.8</ele>
        <time>2021-09-10T12:32:52Z</time>
      </trkpt>
      <trkpt lat="44.0745" lon="6.20469">
        <ele>580.8</ele>
        <time>2021-09-10T12:32:54Z</time>
      </trkpt>
      <trkpt lat="44.07454" lon="6.2048">
        <ele>580.8</ele>
        <time>2021-09-10T12:32:55Z</time>
      </trkpt>
      <trkpt lat="44.07458" lon="6.20487">
        <ele>580.8</ele>
        <time>2021-09-10T12:32:56Z</time>
      </trkpt>
      <trkpt lat="44.07465" lon="6.20499">
        <ele>580.8</ele>
        <time>2021-09-10T12:32:58Z</time>
      </trkpt>
      <trkpt lat="44.07472" lon="6.20511">
        <ele>580.8</ele>
        <time>2021-09-10T12:33:00Z</time>
      </trkpt>
      <trkpt lat="44.0748" lon="6.20522">
        <ele>580.8</ele>
        <time>2021-09-10T12:33:02Z</time>
      </trkpt>
      <trkpt lat="44.07487" lon="6.20531">
        <ele>580.8</ele>
        <time>2021-09-10T12:33:04Z</time>
      </trkpt>
      <trkpt lat="44.07495" lon="6.20542">
        <ele>580.7</ele>
        <time>2021-09-10T12:33:06Z</time>
      </trkpt>
      <trkpt lat="44.075" lon="6.2055">
        <ele>580.7</ele>
        <time>2021-09-10T12:33:08Z</time>
      </trkpt>
      <trkpt lat="44.07502" lon="6.20554">
        <ele>580.7</ele>
        <time>2021-09-10T12:33:09Z</time>
      </trkpt>
      <trkpt lat="44.07507" lon="6.2056">
        <ele>580.6</ele>
        <time>2021-09-10T12:33:11Z</time>
      </trkpt>
      <trkpt lat="44.07511" lon="6.20563">
        <ele>580.5</ele>
        <time>2021-09-10T12:33:12Z</time>
      </trkpt>
      <trkpt lat="44.07518" lon="6.20567">
        <ele>580.5</ele>
        <time>2021-09-10T12:33:14Z</time>
      </trkpt>
      <trkpt lat="44.07522" lon="6.20571">
        <ele>580.4</ele>
        <time>2021-09-10T12:33:15Z</time>
      </trkpt>
      <trkpt lat="44.07529" lon="6.2058">
        <ele>580.3</ele>
        <time>2021-09-10T12:33:17Z</time>
      </trkpt>
      <trkpt lat="44.07533" lon="6.20585">
        <ele>580.3</ele>
        <time>2021-09-10T12:33:18Z</time>
      </trkpt>
      <trkpt lat="44.07537" lon="6.20591">
        <ele>580.3</ele>
        <time>2021-09-10T12:33:19Z</time>
      </trkpt>
      <trkpt lat="44.07541" lon="6.20597">
        <ele>580.2</ele>
        <time>2021-09-10T12:33:20Z</time>
      </trkpt>
      <trkpt lat="44.07546" lon="6.20604">
        <ele>580.1</ele>
        <time>2021-09-10T12:33:22Z</time>
      </trkpt>
      <trkpt lat="44.07551" lon="6.20607">
        <ele>580.1</ele>
        <time>2021-09-10T12:33:24Z</time>
      </trkpt>
      <trkpt lat="44.07553" lon="6.20609">
        <ele>580</ele>
        <time>2021-09-10T12:33:26Z</time>
      </trkpt>
      <trkpt lat="44.07555" lon="6.2061">
        <ele>580</ele>
        <time>2021-09-10T12:33:27Z</time>
      </trkpt>
      <trkpt lat="44.07558" lon="6.20612">
        <ele>579.2</ele>
        <time>2021-09-10T12:33:29Z</time>
      </trkpt>
      <trkpt lat="44.07559" lon="6.20612">
        <ele>579</ele>
        <time>2021-09-10T12:33:30Z</time>
      </trkpt>
      <trkpt lat="44.07564" lon="6.2061">
        <ele>578.5</ele>
        <time>2021-09-10T12:33:32Z</time>
      </trkpt>
      <trkpt lat="44.07572" lon="6.20606">
        <ele>577.8</ele>
        <time>2021-09-10T12:33:34Z</time>
      </trkpt>
      <trkpt lat="44.07577" lon="6.20603">
        <ele>577.3</ele>
        <time>2021-09-10T12:33:35Z</time>
      </trkpt>
      <trkpt lat="44.07582" lon="6.20599">
        <ele>576.9</ele>
        <time>2021-09-10T12:33:36Z</time>
      </trkpt>
      <trkpt lat="44.07594" lon="6.20589">
        <ele>576.3</ele>
        <time>2021-09-10T12:33:38Z</time>
      </trkpt>
      <trkpt lat="44.07602" lon="6.20574">
        <ele>575.8</ele>
        <time>2021-09-10T12:33:40Z</time>
      </trkpt>
      <trkpt lat="44.07607" lon="6.20559">
        <ele>575.2</ele>
        <time>2021-09-10T12:33:42Z</time>
      </trkpt>
      <trkpt lat="44.07612" lon="6.20547">
        <ele>574.8</ele>
        <time>2021-09-10T12:33:44Z</time>
      </trkpt>
      <trkpt lat="44.07616" lon="6.20539">
        <ele>574.4</ele>
        <time>2021-09-10T12:33:46Z</time>
      </trkpt>
      <trkpt lat="44.07623" lon="6.2053">
        <ele>573.9</ele>
        <time>2021-09-10T12:33:48Z</time>
      </trkpt>
      <trkpt lat="44.07633" lon="6.20526">
        <ele>573.2</ele>
        <time>2021-09-10T12:33:50Z</time>
      </trkpt>
      <trkpt lat="44.07643" lon="6.20525">
        <ele>572.6</ele>
        <time>2021-09-10T12:33:52Z</time>
      </trkpt>
      <trkpt lat="44.07654" lon="6.20521">
        <ele>572.2</ele>
        <time>2021-09-10T12:33:54Z</time>
      </trkpt>
      <trkpt lat="44.07664" lon="6.20512">
        <ele>571.8</ele>
        <time>2021-09-10T12:33:56Z</time>
      </trkpt>
      <trkpt lat="44.07675" lon="6.205">
        <ele>571.5</ele>
        <time>2021-09-10T12:33:58Z</time>
      </trkpt>
      <trkpt lat="44.07679" lon="6.20494">
        <ele>571.3</ele>
        <time>2021-09-10T12:33:59Z</time>
      </trkpt>
      <trkpt lat="44.07683" lon="6.20487">
        <ele>571.1</ele>
        <time>2021-09-10T12:34:00Z</time>
      </trkpt>
      <trkpt lat="44.07689" lon="6.20473">
        <ele>570.7</ele>
        <time>2021-09-10T12:34:02Z</time>
      </trkpt>
      <trkpt lat="44.07695" lon="6.20459">
        <ele>570.4</ele>
        <time>2021-09-10T12:34:04Z</time>
      </trkpt>
      <trkpt lat="44.077" lon="6.20444">
        <ele>570.1</ele>
        <time>2021-09-10T12:34:06Z</time>
      </trkpt>
      <trkpt lat="44.07708" lon="6.20427">
        <ele>569.8</ele>
        <time>2021-09-10T12:34:08Z</time>
      </trkpt>
      <trkpt lat="44.07714" lon="6.20408">
        <ele>569.7</ele>
        <time>2021-09-10T12:34:10Z</time>
      </trkpt>
      <trkpt lat="44.07716" lon="6.204">
        <ele>569.6</ele>
        <time>2021-09-10T12:34:11Z</time>
      </trkpt>
      <trkpt lat="44.07718" lon="6.20391">
        <ele>569.5</ele>
        <time>2021-09-10T12:34:12Z</time>
      </trkpt>
      <trkpt lat="44.0772" lon="6.20373">
        <ele>569.4</ele>
        <time>2021-09-10T12:34:14Z</time>
      </trkpt>
      <trkpt lat="44.0772" lon="6.20364">
        <ele>569.3</ele>
        <time>2021-09-10T12:34:15Z</time>
      </trkpt>
      <trkpt lat="44.0772" lon="6.20345">
        <ele>569.2</ele>
        <time>2021-09-10T12:34:17Z</time>
      </trkpt>
      <trkpt lat="44.0772" lon="6.20328">
        <ele>569.1</ele>
        <time>2021-09-10T12:34:19Z</time>
      </trkpt>
      <trkpt lat="44.0772" lon="6.2032">
        <ele>569</ele>
        <time>2021-09-10T12:34:20Z</time>
      </trkpt>
      <trkpt lat="44.07723" lon="6.20302">
        <ele>568.8</ele>
        <time>2021-09-10T12:34:22Z</time>
      </trkpt>
      <trkpt lat="44.07725" lon="6.20294">
        <ele>568.8</ele>
        <time>2021-09-10T12:34:23Z</time>
      </trkpt>
      <trkpt lat="44.07725" lon="6.20286">
        <ele>568.7</ele>
        <time>2021-09-10T12:34:24Z</time>
      </trkpt>
      <trkpt lat="44.07727" lon="6.20272">
        <ele>568.5</ele>
        <time>2021-09-10T12:34:26Z</time>
      </trkpt>
      <trkpt lat="44.07726" lon="6.20258">
        <ele>568.4</ele>
        <time>2021-09-10T12:34:28Z</time>
      </trkpt>
      <trkpt lat="44.07726" lon="6.20251">
        <ele>568.3</ele>
        <time>2021-09-10T12:34:29Z</time>
      </trkpt>
      <trkpt lat="44.07726" lon="6.20244">
        <ele>568.3</ele>
        <time>2021-09-10T12:34:30Z</time>
      </trkpt>
      <trkpt lat="44.07727" lon="6.2023">
        <ele>568.1</ele>
        <time>2021-09-10T12:34:32Z</time>
      </trkpt>
      <trkpt lat="44.07729" lon="6.20214">
        <ele>568</ele>
        <time>2021-09-10T12:34:34Z</time>
      </trkpt>
      <trkpt lat="44.07731" lon="6.20201">
        <ele>567.9</ele>
        <time>2021-09-10T12:34:36Z</time>
      </trkpt>
      <trkpt lat="44.07732" lon="6.20197">
        <ele>567.9</ele>
        <time>2021-09-10T12:34:37Z</time>
      </trkpt>
      <trkpt lat="44.07734" lon="6.20186">
        <ele>567.8</ele>
        <time>2021-09-10T12:34:39Z</time>
      </trkpt>
      <trkpt lat="44.07734" lon="6.20181">
        <ele>567.8</ele>
        <time>2021-09-10T12:34:40Z</time>
      </trkpt>
      <trkpt lat="44.07735" lon="6.20172">
        <ele>567.7</ele>
        <time>2021-09-10T12:34:42Z</time>
      </trkpt>
      <trkpt lat="44.07734" lon="6.20168">
        <ele>567.7</ele>
        <time>2021-09-10T12:34:43Z</time>
      </trkpt>
      <trkpt lat="44.07733" lon="6.20162">
        <ele>567.7</ele>
        <time>2021-09-10T12:34:45Z</time>
      </trkpt>
      <trkpt lat="44.07732" lon="6.20156">
        <ele>567.7</ele>
        <time>2021-09-10T12:34:46Z</time>
      </trkpt>
      <trkpt lat="44.07732" lon="6.20154">
        <ele>567.7</ele>
        <time>2021-09-10T12:34:47Z</time>
      </trkpt>
      <trkpt lat="44.07732" lon="6.20148">
        <ele>567.7</ele>
        <time>2021-09-10T12:34:48Z</time>
      </trkpt>
      <trkpt lat="44.07732" lon="6.20145">
        <ele>567.7</ele>
        <time>2021-09-10T12:34:50Z</time>
      </trkpt>
      <trkpt lat="44.07731" lon="6.20137">
        <ele>567.6</ele>
        <time>2021-09-10T12:34:52Z</time>
      </trkpt>
      <trkpt lat="44.07728" lon="6.20128">
        <ele>567.6</ele>
        <time>2021-09-10T12:34:54Z</time>
      </trkpt>
      <trkpt lat="44.07726" lon="6.20123">
        <ele>567.5</ele>
        <time>2021-09-10T12:34:55Z</time>
      </trkpt>
      <trkpt lat="44.07724" lon="6.20117">
        <ele>567.5</ele>
        <time>2021-09-10T12:34:56Z</time>
      </trkpt>
      <trkpt lat="44.0772" lon="6.20106">
        <ele>567.4</ele>
        <time>2021-09-10T12:34:58Z</time>
      </trkpt>
      <trkpt lat="44.07719" lon="6.20102">
        <ele>567.4</ele>
        <time>2021-09-10T12:34:59Z</time>
      </trkpt>
      <trkpt lat="44.07718" lon="6.20097">
        <ele>567.4</ele>
        <time>2021-09-10T12:35:00Z</time>
      </trkpt>
      <trkpt lat="44.07718" lon="6.20091">
        <ele>567.3</ele>
        <time>2021-09-10T12:35:01Z</time>
      </trkpt>
      <trkpt lat="44.07716" lon="6.20084">
        <ele>567.4</ele>
        <time>2021-09-10T12:35:03Z</time>
      </trkpt>
      <trkpt lat="44.07714" lon="6.20083">
        <ele>567.4</ele>
        <time>2021-09-10T12:35:04Z</time>
      </trkpt>
      <trkpt lat="44.07712" lon="6.20086">
        <ele>567.4</ele>
        <time>2021-09-10T12:35:05Z</time>
      </trkpt>
      <trkpt lat="44.07712" lon="6.20089">
        <ele>567.4</ele>
        <time>2021-09-10T12:35:07Z</time>
      </trkpt>
      <trkpt lat="44.07712" lon="6.2009">
        <ele>567.4</ele>
        <time>2021-09-10T12:35:08Z</time>
      </trkpt>
      <trkpt lat="44.07713" lon="6.20096">
        <ele>567.5</ele>
        <time>2021-09-10T12:35:09Z</time>
      </trkpt>
      <trkpt lat="44.07714" lon="6.20102">
        <ele>567.5</ele>
        <time>2021-09-10T12:35:11Z</time>
      </trkpt>
      <trkpt lat="44.07714" lon="6.20106">
        <ele>567.5</ele>
        <time>2021-09-10T12:35:12Z</time>
      </trkpt>
      <trkpt lat="44.07714" lon="6.20112">
        <ele>567.5</ele>
        <time>2021-09-10T12:35:13Z</time>
      </trkpt>
      <trkpt lat="44.07714" lon="6.2012">
        <ele>567.5</ele>
        <time>2021-09-10T12:35:15Z</time>
      </trkpt>
      <trkpt lat="44.07714" lon="6.20127">
        <ele>567.6</ele>
        <time>2021-09-10T12:35:16Z</time>
      </trkpt>
      <trkpt lat="44.07715" lon="6.20136">
        <ele>567.6</ele>
        <time>2021-09-10T12:35:17Z</time>
      </trkpt>
      <trkpt lat="44.07715" lon="6.20144">
        <ele>567.6</ele>
        <time>2021-09-10T12:35:19Z</time>
      </trkpt>
      <trkpt lat="44.07716" lon="6.20156">
        <ele>567.7</ele>
        <time>2021-09-10T12:35:21Z</time>
      </trkpt>
      <trkpt lat="44.07719" lon="6.20168">
        <ele>567.7</ele>
        <time>2021-09-10T12:35:22Z</time>
      </trkpt>
      <trkpt lat="44.07721" lon="6.20176">
        <ele>567.8</ele>
        <time>2021-09-10T12:35:24Z</time>
      </trkpt>
      <trkpt lat="44.07722" lon="6.20182">
        <ele>567.8</ele>
        <time>2021-09-10T12:35:25Z</time>
      </trkpt>
      <trkpt lat="44.07722" lon="6.20187">
        <ele>567.8</ele>
        <time>2021-09-10T12:35:26Z</time>
      </trkpt>
      <trkpt lat="44.07724" lon="6.20202">
        <ele>567.9</ele>
        <time>2021-09-10T12:35:28Z</time>
      </trkpt>
      <trkpt lat="44.07724" lon="6.20213">
        <ele>568</ele>
        <time>2021-09-10T12:35:30Z</time>
      </trkpt>
      <trkpt lat="44.07725" lon="6.20218">
        <ele>568</ele>
        <time>2021-09-10T12:35:31Z</time>
      </trkpt>
      <trkpt lat="44.07724" lon="6.20227">
        <ele>568.1</ele>
        <time>2021-09-10T12:35:33Z</time>
      </trkpt>
      <trkpt lat="44.07723" lon="6.20236">
        <ele>568.2</ele>
        <time>2021-09-10T12:35:34Z</time>
      </trkpt>
      <trkpt lat="44.07723" lon="6.20244">
        <ele>568.3</ele>
        <time>2021-09-10T12:35:35Z</time>
      </trkpt>
      <trkpt lat="44.07722" lon="6.20251">
        <ele>568.3</ele>
        <time>2021-09-10T12:35:37Z</time>
      </trkpt>
      <trkpt lat="44.0772" lon="6.2026">
        <ele>568.4</ele>
        <time>2021-09-10T12:35:38Z</time>
      </trkpt>
      <trkpt lat="44.07718" lon="6.20268">
        <ele>568.5</ele>
        <time>2021-09-10T12:35:39Z</time>
      </trkpt>
      <trkpt lat="44.07715" lon="6.20276">
        <ele>568.6</ele>
        <time>2021-09-10T12:35:41Z</time>
      </trkpt>
      <trkpt lat="44.07714" lon="6.20286">
        <ele>568.7</ele>
        <time>2021-09-10T12:35:42Z</time>
      </trkpt>
      <trkpt lat="44.07713" lon="6.20293">
        <ele>568.8</ele>
        <time>2021-09-10T12:35:43Z</time>
      </trkpt>
      <trkpt lat="44.07713" lon="6.20298">
        <ele>568.8</ele>
        <time>2021-09-10T12:35:44Z</time>
      </trkpt>
      <trkpt lat="44.07711" lon="6.20311">
        <ele>568.9</ele>
        <time>2021-09-10T12:35:46Z</time>
      </trkpt>
      <trkpt lat="44.0771" lon="6.20316">
        <ele>569</ele>
        <time>2021-09-10T12:35:47Z</time>
      </trkpt>
      <trkpt lat="44.07708" lon="6.20324">
        <ele>569</ele>
        <time>2021-09-10T12:35:48Z</time>
      </trkpt>
      <trkpt lat="44.07708" lon="6.20331">
        <ele>569.1</ele>
        <time>2021-09-10T12:35:49Z</time>
      </trkpt>
      <trkpt lat="44.07707" lon="6.20338">
        <ele>569.1</ele>
        <time>2021-09-10T12:35:51Z</time>
      </trkpt>
      <trkpt lat="44.07707" lon="6.20344">
        <ele>569.2</ele>
        <time>2021-09-10T12:35:52Z</time>
      </trkpt>
      <trkpt lat="44.07705" lon="6.20357">
        <ele>569.3</ele>
        <time>2021-09-10T12:35:54Z</time>
      </trkpt>
      <trkpt lat="44.07706" lon="6.20368">
        <ele>569.3</ele>
        <time>2021-09-10T12:35:56Z</time>
      </trkpt>
      <trkpt lat="44.07709" lon="6.20374">
        <ele>569.4</ele>
        <time>2021-09-10T12:35:57Z</time>
      </trkpt>
      <trkpt lat="44.07713" lon="6.20386">
        <ele>569.5</ele>
        <time>2021-09-10T12:35:59Z</time>
      </trkpt>
      <trkpt lat="44.07716" lon="6.20387">
        <ele>569.5</ele>
        <time>2021-09-10T12:36:00Z</time>
      </trkpt>
      <trkpt lat="44.07718" lon="6.20391">
        <ele>569.6</ele>
        <time>2021-09-10T12:36:01Z</time>
      </trkpt>
      <trkpt lat="44.0772" lon="6.20397">
        <ele>569.8</ele>
        <time>2021-09-10T12:36:03Z</time>
      </trkpt>
      <trkpt lat="44.07722" lon="6.20401">
        <ele>569.9</ele>
        <time>2021-09-10T12:36:04Z</time>
      </trkpt>
      <trkpt lat="44.07725" lon="6.20406">
        <ele>570</ele>
        <time>2021-09-10T12:36:05Z</time>
      </trkpt>
      <trkpt lat="44.07727" lon="6.2041">
        <ele>570</ele>
        <time>2021-09-10T12:36:07Z</time>
      </trkpt>
      <trkpt lat="44.07729" lon="6.20413">
        <ele>570.1</ele>
        <time>2021-09-10T12:36:08Z</time>
      </trkpt>
      <trkpt lat="44.07731" lon="6.20419">
        <ele>570.2</ele>
        <time>2021-09-10T12:36:09Z</time>
      </trkpt>
      <trkpt lat="44.07732" lon="6.20422">
        <ele>570.2</ele>
        <time>2021-09-10T12:36:10Z</time>
      </trkpt>
      <trkpt lat="44.07734" lon="6.20428">
        <ele>570.3</ele>
        <time>2021-09-10T12:36:12Z</time>
      </trkpt>
      <trkpt lat="44.07736" lon="6.20434">
        <ele>570.4</ele>
        <time>2021-09-10T12:36:13Z</time>
      </trkpt>
      <trkpt lat="44.07737" lon="6.20438">
        <ele>570.4</ele>
        <time>2021-09-10T12:36:14Z</time>
      </trkpt>
      <trkpt lat="44.07739" lon="6.20443">
        <ele>570.4</ele>
        <time>2021-09-10T12:36:15Z</time>
      </trkpt>
      <trkpt lat="44.07741" lon="6.20447">
        <ele>570.5</ele>
        <time>2021-09-10T12:36:16Z</time>
      </trkpt>
      <trkpt lat="44.07743" lon="6.20452">
        <ele>570.5</ele>
        <time>2021-09-10T12:36:17Z</time>
      </trkpt>
      <trkpt lat="44.07745" lon="6.20457">
        <ele>570.5</ele>
        <time>2021-09-10T12:36:18Z</time>
      </trkpt>
      <trkpt lat="44.07747" lon="6.20462">
        <ele>570.6</ele>
        <time>2021-09-10T12:36:19Z</time>
      </trkpt>
      <trkpt lat="44.07749" lon="6.20469">
        <ele>570.6</ele>
        <time>2021-09-10T12:36:21Z</time>
      </trkpt>
      <trkpt lat="44.0775" lon="6.20476">
        <ele>570.6</ele>
        <time>2021-09-10T12:36:22Z</time>
      </trkpt>
      <trkpt lat="44.07752" lon="6.2048">
        <ele>570.6</ele>
        <time>2021-09-10T12:36:23Z</time>
      </trkpt>
      <trkpt lat="44.07754" lon="6.20486">
        <ele>570.7</ele>
        <time>2021-09-10T12:36:25Z</time>
      </trkpt>
      <trkpt lat="44.07754" lon="6.2049">
        <ele>570.7</ele>
        <time>2021-09-10T12:36:26Z</time>
      </trkpt>
      <trkpt lat="44.07754" lon="6.20497">
        <ele>570.8</ele>
        <time>2021-09-10T12:36:27Z</time>
      </trkpt>
      <trkpt lat="44.07755" lon="6.20502">
        <ele>570.8</ele>
        <time>2021-09-10T12:36:29Z</time>
      </trkpt>
      <trkpt lat="44.07755" lon="6.20507">
        <ele>570.9</ele>
        <time>2021-09-10T12:36:30Z</time>
      </trkpt>
      <trkpt lat="44.07757" lon="6.20513">
        <ele>570.9</ele>
        <time>2021-09-10T12:36:31Z</time>
      </trkpt>
      <trkpt lat="44.07759" lon="6.20518">
        <ele>571</ele>
        <time>2021-09-10T12:36:32Z</time>
      </trkpt>
      <trkpt lat="44.07761" lon="6.20524">
        <ele>571</ele>
        <time>2021-09-10T12:36:34Z</time>
      </trkpt>
      <trkpt lat="44.07763" lon="6.20528">
        <ele>571.1</ele>
        <time>2021-09-10T12:36:35Z</time>
      </trkpt>
      <trkpt lat="44.07765" lon="6.20532">
        <ele>571.1</ele>
        <time>2021-09-10T12:36:36Z</time>
      </trkpt>
      <trkpt lat="44.07767" lon="6.20539">
        <ele>571.2</ele>
        <time>2021-09-10T12:36:37Z</time>
      </trkpt>
      <trkpt lat="44.07768" lon="6.20543">
        <ele>571.2</ele>
        <time>2021-09-10T12:36:38Z</time>
      </trkpt>
      <trkpt lat="44.07769" lon="6.20547">
        <ele>571.3</ele>
        <time>2021-09-10T12:36:40Z</time>
      </trkpt>
      <trkpt lat="44.0777" lon="6.20552">
        <ele>571.3</ele>
        <time>2021-09-10T12:36:41Z</time>
      </trkpt>
      <trkpt lat="44.0777" lon="6.20558">
        <ele>571.4</ele>
        <time>2021-09-10T12:36:43Z</time>
      </trkpt>
      <trkpt lat="44.0777" lon="6.20563">
        <ele>571.4</ele>
        <time>2021-09-10T12:36:44Z</time>
      </trkpt>
      <trkpt lat="44.0777" lon="6.20568">
        <ele>571.5</ele>
        <time>2021-09-10T12:36:45Z</time>
      </trkpt>
      <trkpt lat="44.07772" lon="6.20574">
        <ele>571.5</ele>
        <time>2021-09-10T12:36:47Z</time>
      </trkpt>
      <trkpt lat="44.07773" lon="6.20579">
        <ele>571.6</ele>
        <time>2021-09-10T12:36:48Z</time>
      </trkpt>
      <trkpt lat="44.07775" lon="6.20583">
        <ele>571.7</ele>
        <time>2021-09-10T12:36:49Z</time>
      </trkpt>
      <trkpt lat="44.07777" lon="6.2059">
        <ele>571.8</ele>
        <time>2021-09-10T12:36:50Z</time>
      </trkpt>
      <trkpt lat="44.07778" lon="6.20596">
        <ele>571.8</ele>
        <time>2021-09-10T12:36:51Z</time>
      </trkpt>
      <trkpt lat="44.0778" lon="6.20603">
        <ele>571.9</ele>
        <time>2021-09-10T12:36:53Z</time>
      </trkpt>
      <trkpt lat="44.07783" lon="6.20608">
        <ele>572</ele>
        <time>2021-09-10T12:36:54Z</time>
      </trkpt>
      <trkpt lat="44.07786" lon="6.20616">
        <ele>572.1</ele>
        <time>2021-09-10T12:36:55Z</time>
      </trkpt>
      <trkpt lat="44.07787" lon="6.20623">
        <ele>572.1</ele>
        <time>2021-09-10T12:36:56Z</time>
      </trkpt>
      <trkpt lat="44.07788" lon="6.20632">
        <ele>572.2</ele>
        <time>2021-09-10T12:36:58Z</time>
      </trkpt>
      <trkpt lat="44.07788" lon="6.20638">
        <ele>572.2</ele>
        <time>2021-09-10T12:36:59Z</time>
      </trkpt>
      <trkpt lat="44.07788" lon="6.20645">
        <ele>572.3</ele>
        <time>2021-09-10T12:37:00Z</time>
      </trkpt>
      <trkpt lat="44.07788" lon="6.20657">
        <ele>572.4</ele>
        <time>2021-09-10T12:37:02Z</time>
      </trkpt>
      <trkpt lat="44.07786" lon="6.20667">
        <ele>572.6</ele>
        <time>2021-09-10T12:37:04Z</time>
      </trkpt>
      <trkpt lat="44.07785" lon="6.20677">
        <ele>572.7</ele>
        <time>2021-09-10T12:37:05Z</time>
      </trkpt>
      <trkpt lat="44.07784" lon="6.20684">
        <ele>572.7</ele>
        <time>2021-09-10T12:37:07Z</time>
      </trkpt>
      <trkpt lat="44.07784" lon="6.20688">
        <ele>572.8</ele>
        <time>2021-09-10T12:37:08Z</time>
      </trkpt>
      <trkpt lat="44.07785" lon="6.20694">
        <ele>572.8</ele>
        <time>2021-09-10T12:37:09Z</time>
      </trkpt>
      <trkpt lat="44.07784" lon="6.20702">
        <ele>572.9</ele>
        <time>2021-09-10T12:37:11Z</time>
      </trkpt>
      <trkpt lat="44.07784" lon="6.20706">
        <ele>572.9</ele>
        <time>2021-09-10T12:37:12Z</time>
      </trkpt>
      <trkpt lat="44.07783" lon="6.20713">
        <ele>573</ele>
        <time>2021-09-10T12:37:14Z</time>
      </trkpt>
      <trkpt lat="44.07783" lon="6.20721">
        <ele>573.1</ele>
        <time>2021-09-10T12:37:16Z</time>
      </trkpt>
      <trkpt lat="44.07783" lon="6.20729">
        <ele>573.2</ele>
        <time>2021-09-10T12:37:18Z</time>
      </trkpt>
      <trkpt lat="44.07782" lon="6.20735">
        <ele>573.2</ele>
        <time>2021-09-10T12:37:19Z</time>
      </trkpt>
      <trkpt lat="44.07782" lon="6.2074">
        <ele>573.3</ele>
        <time>2021-09-10T12:37:20Z</time>
      </trkpt>
      <trkpt lat="44.07781" lon="6.20749">
        <ele>573.3</ele>
        <time>2021-09-10T12:37:21Z</time>
      </trkpt>
      <trkpt lat="44.07781" lon="6.20755">
        <ele>573.4</ele>
        <time>2021-09-10T12:37:23Z</time>
      </trkpt>
      <trkpt lat="44.07781" lon="6.2076">
        <ele>573.4</ele>
        <time>2021-09-10T12:37:24Z</time>
      </trkpt>
      <trkpt lat="44.07782" lon="6.20764">
        <ele>573.5</ele>
        <time>2021-09-10T12:37:25Z</time>
      </trkpt>
      <trkpt lat="44.07783" lon="6.20769">
        <ele>573.5</ele>
        <time>2021-09-10T12:37:26Z</time>
      </trkpt>
      <trkpt lat="44.07784" lon="6.20774">
        <ele>573.6</ele>
        <time>2021-09-10T12:37:27Z</time>
      </trkpt>
      <trkpt lat="44.07785" lon="6.20781">
        <ele>573.6</ele>
        <time>2021-09-10T12:37:29Z</time>
      </trkpt>
      <trkpt lat="44.07785" lon="6.20786">
        <ele>573.7</ele>
        <time>2021-09-10T12:37:30Z</time>
      </trkpt>
      <trkpt lat="44.07785" lon="6.20792">
        <ele>573.7</ele>
        <time>2021-09-10T12:37:31Z</time>
      </trkpt>
      <trkpt lat="44.07787" lon="6.20796">
        <ele>573.8</ele>
        <time>2021-09-10T12:37:33Z</time>
      </trkpt>
      <trkpt lat="44.07788" lon="6.20802">
        <ele>573.8</ele>
        <time>2021-09-10T12:37:35Z</time>
      </trkpt>
      <trkpt lat="44.07791" lon="6.20811">
        <ele>573.9</ele>
        <time>2021-09-10T12:37:37Z</time>
      </trkpt>
      <trkpt lat="44.07794" lon="6.2082">
        <ele>574</ele>
        <time>2021-09-10T12:37:39Z</time>
      </trkpt>
      <trkpt lat="44.07799" lon="6.20829">
        <ele>574.1</ele>
        <time>2021-09-10T12:37:40Z</time>
      </trkpt>
      <trkpt lat="44.07804" lon="6.20836">
        <ele>574.1</ele>
        <time>2021-09-10T12:37:42Z</time>
      </trkpt>
      <trkpt lat="44.07808" lon="6.20843">
        <ele>574.2</ele>
        <time>2021-09-10T12:37:43Z</time>
      </trkpt>
      <trkpt lat="44.07813" lon="6.20851">
        <ele>574.3</ele>
        <time>2021-09-10T12:37:45Z</time>
      </trkpt>
      <trkpt lat="44.07818" lon="6.20859">
        <ele>574.3</ele>
        <time>2021-09-10T12:37:47Z</time>
      </trkpt>
      <trkpt lat="44.07822" lon="6.20865">
        <ele>574.3</ele>
        <time>2021-09-10T12:37:48Z</time>
      </trkpt>
      <trkpt lat="44.07827" lon="6.20874">
        <ele>574.4</ele>
        <time>2021-09-10T12:37:50Z</time>
      </trkpt>
      <trkpt lat="44.07835" lon="6.20883">
        <ele>574.5</ele>
        <time>2021-09-10T12:37:51Z</time>
      </trkpt>
      <trkpt lat="44.07838" lon="6.2089">
        <ele>574.5</ele>
        <time>2021-09-10T12:37:52Z</time>
      </trkpt>
      <trkpt lat="44.07842" lon="6.20899">
        <ele>574.6</ele>
        <time>2021-09-10T12:37:54Z</time>
      </trkpt>
      <trkpt lat="44.07848" lon="6.20907">
        <ele>574.7</ele>
        <time>2021-09-10T12:37:55Z</time>
      </trkpt>
      <trkpt lat="44.07853" lon="6.20915">
        <ele>574.7</ele>
        <time>2021-09-10T12:37:57Z</time>
      </trkpt>
      <trkpt lat="44.07857" lon="6.20926">
        <ele>574.8</ele>
        <time>2021-09-10T12:37:59Z</time>
      </trkpt>
      <trkpt lat="44.0786" lon="6.20933">
        <ele>574.8</ele>
        <time>2021-09-10T12:38:00Z</time>
      </trkpt>
      <trkpt lat="44.07865" lon="6.20946">
        <ele>574.9</ele>
        <time>2021-09-10T12:38:02Z</time>
      </trkpt>
      <trkpt lat="44.07867" lon="6.2095">
        <ele>574.9</ele>
        <time>2021-09-10T12:38:03Z</time>
      </trkpt>
      <trkpt lat="44.07869" lon="6.20962">
        <ele>575</ele>
        <time>2021-09-10T12:38:05Z</time>
      </trkpt>
      <trkpt lat="44.07871" lon="6.20968">
        <ele>575.1</ele>
        <time>2021-09-10T12:38:06Z</time>
      </trkpt>
      <trkpt lat="44.07873" lon="6.20978">
        <ele>575.1</ele>
        <time>2021-09-10T12:38:08Z</time>
      </trkpt>
      <trkpt lat="44.07871" lon="6.20981">
        <ele>575.1</ele>
        <time>2021-09-10T12:38:09Z</time>
      </trkpt>
      <trkpt lat="44.07874" lon="6.20987">
        <ele>575.2</ele>
        <time>2021-09-10T12:38:10Z</time>
      </trkpt>
      <trkpt lat="44.07878" lon="6.20996">
        <ele>575.2</ele>
        <time>2021-09-10T12:38:12Z</time>
      </trkpt>
      <trkpt lat="44.07881" lon="6.21006">
        <ele>575.3</ele>
        <time>2021-09-10T12:38:13Z</time>
      </trkpt>
      <trkpt lat="44.07883" lon="6.21015">
        <ele>575.3</ele>
        <time>2021-09-10T12:38:15Z</time>
      </trkpt>
      <trkpt lat="44.07886" lon="6.21022">
        <ele>575.3</ele>
        <time>2021-09-10T12:38:17Z</time>
      </trkpt>
      <trkpt lat="44.07889" lon="6.21026">
        <ele>575.4</ele>
        <time>2021-09-10T12:38:18Z</time>
      </trkpt>
      <trkpt lat="44.07891" lon="6.21032">
        <ele>575.4</ele>
        <time>2021-09-10T12:38:19Z</time>
      </trkpt>
      <trkpt lat="44.07897" lon="6.21041">
        <ele>575.5</ele>
        <time>2021-09-10T12:38:21Z</time>
      </trkpt>
      <trkpt lat="44.07902" lon="6.21054">
        <ele>575.6</ele>
        <time>2021-09-10T12:38:23Z</time>
      </trkpt>
      <trkpt lat="44.07903" lon="6.21061">
        <ele>575.7</ele>
        <time>2021-09-10T12:38:24Z</time>
      </trkpt>
      <trkpt lat="44.07908" lon="6.21072">
        <ele>575.8</ele>
        <time>2021-09-10T12:38:26Z</time>
      </trkpt>
      <trkpt lat="44.07911" lon="6.21083">
        <ele>575.9</ele>
        <time>2021-09-10T12:38:28Z</time>
      </trkpt>
      <trkpt lat="44.07914" lon="6.21093">
        <ele>575.9</ele>
        <time>2021-09-10T12:38:30Z</time>
      </trkpt>
      <trkpt lat="44.07916" lon="6.211">
        <ele>576</ele>
        <time>2021-09-10T12:38:31Z</time>
      </trkpt>
      <trkpt lat="44.07917" lon="6.21101">
        <ele>576</ele>
        <time>2021-09-10T12:38:32Z</time>
      </trkpt>
      <trkpt lat="44.07922" lon="6.21111">
        <ele>576</ele>
        <time>2021-09-10T12:38:34Z</time>
      </trkpt>
      <trkpt lat="44.07926" lon="6.21117">
        <ele>576.1</ele>
        <time>2021-09-10T12:38:36Z</time>
      </trkpt>
      <trkpt lat="44.07929" lon="6.21125">
        <ele>576.1</ele>
        <time>2021-09-10T12:38:37Z</time>
      </trkpt>
      <trkpt lat="44.07931" lon="6.21137">
        <ele>576.1</ele>
        <time>2021-09-10T12:38:39Z</time>
      </trkpt>
      <trkpt lat="44.07933" lon="6.21144">
        <ele>576.2</ele>
        <time>2021-09-10T12:38:40Z</time>
      </trkpt>
      <trkpt lat="44.07938" lon="6.21155">
        <ele>576.2</ele>
        <time>2021-09-10T12:38:42Z</time>
      </trkpt>
      <trkpt lat="44.0794" lon="6.21157">
        <ele>576.2</ele>
        <time>2021-09-10T12:38:43Z</time>
      </trkpt>
      <trkpt lat="44.07943" lon="6.2117">
        <ele>576.3</ele>
        <time>2021-09-10T12:38:45Z</time>
      </trkpt>
      <trkpt lat="44.07948" lon="6.21182">
        <ele>576.3</ele>
        <time>2021-09-10T12:38:47Z</time>
      </trkpt>
      <trkpt lat="44.0795" lon="6.21193">
        <ele>576.4</ele>
        <time>2021-09-10T12:38:49Z</time>
      </trkpt>
      <trkpt lat="44.07952" lon="6.21198">
        <ele>576.5</ele>
        <time>2021-09-10T12:38:50Z</time>
      </trkpt>
      <trkpt lat="44.07959" lon="6.21205">
        <ele>576.5</ele>
        <time>2021-09-10T12:38:52Z</time>
      </trkpt>
      <trkpt lat="44.07964" lon="6.21214">
        <ele>576.6</ele>
        <time>2021-09-10T12:38:53Z</time>
      </trkpt>
      <trkpt lat="44.07967" lon="6.21219">
        <ele>576.6</ele>
        <time>2021-09-10T12:38:54Z</time>
      </trkpt>
      <trkpt lat="44.0797" lon="6.21225">
        <ele>576.6</ele>
        <time>2021-09-10T12:38:55Z</time>
      </trkpt>
      <trkpt lat="44.07972" lon="6.21232">
        <ele>576.7</ele>
        <time>2021-09-10T12:38:57Z</time>
      </trkpt>
      <trkpt lat="44.07973" lon="6.2124">
        <ele>576.7</ele>
        <time>2021-09-10T12:38:58Z</time>
      </trkpt>
      <trkpt lat="44.07974" lon="6.21248">
        <ele>576.7</ele>
        <time>2021-09-10T12:39:00Z</time>
      </trkpt>
      <trkpt lat="44.07976" lon="6.21253">
        <ele>576.8</ele>
        <time>2021-09-10T12:39:01Z</time>
      </trkpt>
      <trkpt lat="44.07979" lon="6.21263">
        <ele>576.8</ele>
        <time>2021-09-10T12:39:03Z</time>
      </trkpt>
      <trkpt lat="44.07981" lon="6.21268">
        <ele>576.9</ele>
        <time>2021-09-10T12:39:04Z</time>
      </trkpt>
      <trkpt lat="44.07983" lon="6.21274">
        <ele>576.9</ele>
        <time>2021-09-10T12:39:05Z</time>
      </trkpt>
      <trkpt lat="44.07984" lon="6.21279">
        <ele>577</ele>
        <time>2021-09-10T12:39:06Z</time>
      </trkpt>
      <trkpt lat="44.07989" lon="6.21289">
        <ele>577</ele>
        <time>2021-09-10T12:39:08Z</time>
      </trkpt>
      <trkpt lat="44.07993" lon="6.213">
        <ele>577.1</ele>
        <time>2021-09-10T12:39:10Z</time>
      </trkpt>
      <trkpt lat="44.07995" lon="6.21306">
        <ele>577.2</ele>
        <time>2021-09-10T12:39:11Z</time>
      </trkpt>
      <trkpt lat="44.07996" lon="6.2131">
        <ele>577.2</ele>
        <time>2021-09-10T12:39:12Z</time>
      </trkpt>
      <trkpt lat="44.07997" lon="6.21315">
        <ele>577.2</ele>
        <time>2021-09-10T12:39:13Z</time>
      </trkpt>
      <trkpt lat="44.08001" lon="6.21325">
        <ele>577.3</ele>
        <time>2021-09-10T12:39:15Z</time>
      </trkpt>
      <trkpt lat="44.08006" lon="6.21329">
        <ele>577.4</ele>
        <time>2021-09-10T12:39:16Z</time>
      </trkpt>
      <trkpt lat="44.08009" lon="6.21336">
        <ele>577.4</ele>
        <time>2021-09-10T12:39:18Z</time>
      </trkpt>
      <trkpt lat="44.08011" lon="6.21342">
        <ele>577.5</ele>
        <time>2021-09-10T12:39:19Z</time>
      </trkpt>
      <trkpt lat="44.08013" lon="6.21352">
        <ele>577.6</ele>
        <time>2021-09-10T12:39:21Z</time>
      </trkpt>
      <trkpt lat="44.08016" lon="6.21363">
        <ele>577.6</ele>
        <time>2021-09-10T12:39:23Z</time>
      </trkpt>
      <trkpt lat="44.08019" lon="6.21372">
        <ele>577.7</ele>
        <time>2021-09-10T12:39:24Z</time>
      </trkpt>
      <trkpt lat="44.08021" lon="6.21378">
        <ele>577.8</ele>
        <time>2021-09-10T12:39:26Z</time>
      </trkpt>
      <trkpt lat="44.08023" lon="6.21385">
        <ele>577.8</ele>
        <time>2021-09-10T12:39:27Z</time>
      </trkpt>
      <trkpt lat="44.08025" lon="6.21391">
        <ele>577.9</ele>
        <time>2021-09-10T12:39:28Z</time>
      </trkpt>
      <trkpt lat="44.08028" lon="6.214">
        <ele>577.9</ele>
        <time>2021-09-10T12:39:30Z</time>
      </trkpt>
      <trkpt lat="44.08029" lon="6.21411">
        <ele>578</ele>
        <time>2021-09-10T12:39:32Z</time>
      </trkpt>
      <trkpt lat="44.08031" lon="6.21421">
        <ele>578</ele>
        <time>2021-09-10T12:39:33Z</time>
      </trkpt>
      <trkpt lat="44.08033" lon="6.21432">
        <ele>578.1</ele>
        <time>2021-09-10T12:39:35Z</time>
      </trkpt>
      <trkpt lat="44.08036" lon="6.21439">
        <ele>578.1</ele>
        <time>2021-09-10T12:39:36Z</time>
      </trkpt>
      <trkpt lat="44.08039" lon="6.21449">
        <ele>578.2</ele>
        <time>2021-09-10T12:39:38Z</time>
      </trkpt>
      <trkpt lat="44.08041" lon="6.21451">
        <ele>578.2</ele>
        <time>2021-09-10T12:39:40Z</time>
      </trkpt>
      <trkpt lat="44.08042" lon="6.21454">
        <ele>578.2</ele>
        <time>2021-09-10T12:39:41Z</time>
      </trkpt>
      <trkpt lat="44.08046" lon="6.21467">
        <ele>578.3</ele>
        <time>2021-09-10T12:39:42Z</time>
      </trkpt>
      <trkpt lat="44.08049" lon="6.21479">
        <ele>578.4</ele>
        <time>2021-09-10T12:39:44Z</time>
      </trkpt>
      <trkpt lat="44.08052" lon="6.21488">
        <ele>578.4</ele>
        <time>2021-09-10T12:39:46Z</time>
      </trkpt>
      <trkpt lat="44.08054" lon="6.21494">
        <ele>578.5</ele>
        <time>2021-09-10T12:39:47Z</time>
      </trkpt>
      <trkpt lat="44.08055" lon="6.21503">
        <ele>578.6</ele>
        <time>2021-09-10T12:39:48Z</time>
      </trkpt>
      <trkpt lat="44.08054" lon="6.21507">
        <ele>578.6</ele>
        <time>2021-09-10T12:39:49Z</time>
      </trkpt>
      <trkpt lat="44.08052" lon="6.21514">
        <ele>578.6</ele>
        <time>2021-09-10T12:39:51Z</time>
      </trkpt>
      <trkpt lat="44.08051" lon="6.21522">
        <ele>578.7</ele>
        <time>2021-09-10T12:39:52Z</time>
      </trkpt>
      <trkpt lat="44.08049" lon="6.21527">
        <ele>579</ele>
        <time>2021-09-10T12:39:53Z</time>
      </trkpt>
      <trkpt lat="44.08049" lon="6.21532">
        <ele>579.1</ele>
        <time>2021-09-10T12:39:54Z</time>
      </trkpt>
      <trkpt lat="44.08048" lon="6.21539">
        <ele>579.1</ele>
        <time>2021-09-10T12:39:56Z</time>
      </trkpt>
      <trkpt lat="44.08048" lon="6.2154">
        <ele>579.1</ele>
        <time>2021-09-10T12:39:57Z</time>
      </trkpt>
      <trkpt lat="44.08049" lon="6.21542">
        <ele>579.2</ele>
        <time>2021-09-10T12:39:58Z</time>
      </trkpt>
      <trkpt lat="44.08052" lon="6.21544">
        <ele>579.2</ele>
        <time>2021-09-10T12:40:00Z</time>
      </trkpt>
      <trkpt lat="44.08056" lon="6.21549">
        <ele>579.5</ele>
        <time>2021-09-10T12:40:02Z</time>
      </trkpt>
      <trkpt lat="44.08057" lon="6.2155">
        <ele>579.6</ele>
        <time>2021-09-10T12:40:03Z</time>
      </trkpt>
      <trkpt lat="44.08058" lon="6.21552">
        <ele>579.7</ele>
        <time>2021-09-10T12:40:04Z</time>
      </trkpt>
      <trkpt lat="44.08061" lon="6.21555">
        <ele>579.9</ele>
        <time>2021-09-10T12:40:05Z</time>
      </trkpt>
      <trkpt lat="44.08063" lon="6.21559">
        <ele>580.1</ele>
        <time>2021-09-10T12:40:06Z</time>
      </trkpt>
      <trkpt lat="44.08065" lon="6.21566">
        <ele>580.4</ele>
        <time>2021-09-10T12:40:08Z</time>
      </trkpt>
      <trkpt lat="44.08066" lon="6.21572">
        <ele>580.7</ele>
        <time>2021-09-10T12:40:09Z</time>
      </trkpt>
      <trkpt lat="44.08068" lon="6.21579">
        <ele>580.9</ele>
        <time>2021-09-10T12:40:11Z</time>
      </trkpt>
      <trkpt lat="44.08071" lon="6.21584">
        <ele>581</ele>
        <time>2021-09-10T12:40:12Z</time>
      </trkpt>
      <trkpt lat="44.08077" lon="6.21594">
        <ele>581.2</ele>
        <time>2021-09-10T12:40:14Z</time>
      </trkpt>
      <trkpt lat="44.0808" lon="6.21601">
        <ele>581.2</ele>
        <time>2021-09-10T12:40:15Z</time>
      </trkpt>
      <trkpt lat="44.08083" lon="6.21606">
        <ele>581.2</ele>
        <time>2021-09-10T12:40:16Z</time>
      </trkpt>
      <trkpt lat="44.08084" lon="6.21613">
        <ele>581.2</ele>
        <time>2021-09-10T12:40:17Z</time>
      </trkpt>
      <trkpt lat="44.08085" lon="6.2162">
        <ele>581.2</ele>
        <time>2021-09-10T12:40:19Z</time>
      </trkpt>
      <trkpt lat="44.08086" lon="6.21625">
        <ele>581.2</ele>
        <time>2021-09-10T12:40:20Z</time>
      </trkpt>
      <trkpt lat="44.08087" lon="6.21633">
        <ele>581.2</ele>
        <time>2021-09-10T12:40:21Z</time>
      </trkpt>
      <trkpt lat="44.08089" lon="6.21641">
        <ele>581.2</ele>
        <time>2021-09-10T12:40:23Z</time>
      </trkpt>
      <trkpt lat="44.08091" lon="6.21649">
        <ele>581.1</ele>
        <time>2021-09-10T12:40:25Z</time>
      </trkpt>
      <trkpt lat="44.08092" lon="6.21654">
        <ele>581.1</ele>
        <time>2021-09-10T12:40:26Z</time>
      </trkpt>
      <trkpt lat="44.08096" lon="6.21663">
        <ele>580.9</ele>
        <time>2021-09-10T12:40:28Z</time>
      </trkpt>
      <trkpt lat="44.08099" lon="6.21671">
        <ele>580.6</ele>
        <time>2021-09-10T12:40:29Z</time>
      </trkpt>
      <trkpt lat="44.08108" lon="6.21687">
        <ele>580.2</ele>
        <time>2021-09-10T12:40:31Z</time>
      </trkpt>
      <trkpt lat="44.08111" lon="6.21693">
        <ele>580</ele>
        <time>2021-09-10T12:40:32Z</time>
      </trkpt>
      <trkpt lat="44.08118" lon="6.21701">
        <ele>579.9</ele>
        <time>2021-09-10T12:40:34Z</time>
      </trkpt>
      <trkpt lat="44.08121" lon="6.21706">
        <ele>579.8</ele>
        <time>2021-09-10T12:40:35Z</time>
      </trkpt>
      <trkpt lat="44.08123" lon="6.21712">
        <ele>579.7</ele>
        <time>2021-09-10T12:40:36Z</time>
      </trkpt>
      <trkpt lat="44.08128" lon="6.21727">
        <ele>579.3</ele>
        <time>2021-09-10T12:40:38Z</time>
      </trkpt>
      <trkpt lat="44.08131" lon="6.21742">
        <ele>579.3</ele>
        <time>2021-09-10T12:40:40Z</time>
      </trkpt>
      <trkpt lat="44.08132" lon="6.2175">
        <ele>579.4</ele>
        <time>2021-09-10T12:40:41Z</time>
      </trkpt>
      <trkpt lat="44.08134" lon="6.21765">
        <ele>579.5</ele>
        <time>2021-09-10T12:40:43Z</time>
      </trkpt>
      <trkpt lat="44.08135" lon="6.21772">
        <ele>580</ele>
        <time>2021-09-10T12:40:44Z</time>
      </trkpt>
      <trkpt lat="44.08138" lon="6.21783">
        <ele>580.2</ele>
        <time>2021-09-10T12:40:46Z</time>
      </trkpt>
      <trkpt lat="44.08139" lon="6.21787">
        <ele>580.3</ele>
        <time>2021-09-10T12:40:47Z</time>
      </trkpt>
      <trkpt lat="44.08141" lon="6.2179">
        <ele>580.4</ele>
        <time>2021-09-10T12:40:48Z</time>
      </trkpt>
      <trkpt lat="44.08144" lon="6.21796">
        <ele>580.6</ele>
        <time>2021-09-10T12:40:50Z</time>
      </trkpt>
      <trkpt lat="44.08145" lon="6.21803">
        <ele>580.7</ele>
        <time>2021-09-10T12:40:51Z</time>
      </trkpt>
      <trkpt lat="44.08146" lon="6.21809">
        <ele>580.9</ele>
        <time>2021-09-10T12:40:53Z</time>
      </trkpt>
      <trkpt lat="44.08146" lon="6.21813">
        <ele>580.9</ele>
        <time>2021-09-10T12:40:54Z</time>
      </trkpt>
      <trkpt lat="44.08148" lon="6.21817">
        <ele>581</ele>
        <time>2021-09-10T12:40:55Z</time>
      </trkpt>
      <trkpt lat="44.0815" lon="6.21824">
        <ele>581.1</ele>
        <time>2021-09-10T12:40:57Z</time>
      </trkpt>
      <trkpt lat="44.08153" lon="6.21828">
        <ele>581.2</ele>
        <time>2021-09-10T12:40:58Z</time>
      </trkpt>
      <trkpt lat="44.08157" lon="6.21833">
        <ele>581.2</ele>
        <time>2021-09-10T12:41:00Z</time>
      </trkpt>
      <trkpt lat="44.08164" lon="6.21841">
        <ele>581.3</ele>
        <time>2021-09-10T12:41:02Z</time>
      </trkpt>
      <trkpt lat="44.0817" lon="6.21849">
        <ele>581.4</ele>
        <time>2021-09-10T12:41:04Z</time>
      </trkpt>
      <trkpt lat="44.08175" lon="6.21858">
        <ele>581.5</ele>
        <time>2021-09-10T12:41:05Z</time>
      </trkpt>
      <trkpt lat="44.08177" lon="6.21862">
        <ele>581.5</ele>
        <time>2021-09-10T12:41:06Z</time>
      </trkpt>
      <trkpt lat="44.0818" lon="6.2187">
        <ele>581.6</ele>
        <time>2021-09-10T12:41:08Z</time>
      </trkpt>
      <trkpt lat="44.08185" lon="6.2188">
        <ele>581.7</ele>
        <time>2021-09-10T12:41:10Z</time>
      </trkpt>
      <trkpt lat="44.0819" lon="6.21887">
        <ele>581.7</ele>
        <time>2021-09-10T12:41:12Z</time>
      </trkpt>
      <trkpt lat="44.08191" lon="6.21891">
        <ele>581.8</ele>
        <time>2021-09-10T12:41:13Z</time>
      </trkpt>
      <trkpt lat="44.08195" lon="6.219">
        <ele>581.8</ele>
        <time>2021-09-10T12:41:15Z</time>
      </trkpt>
      <trkpt lat="44.082" lon="6.2191">
        <ele>581.9</ele>
        <time>2021-09-10T12:41:16Z</time>
      </trkpt>
      <trkpt lat="44.08203" lon="6.21916">
        <ele>582</ele>
        <time>2021-09-10T12:41:18Z</time>
      </trkpt>
      <trkpt lat="44.08206" lon="6.21922">
        <ele>582</ele>
        <time>2021-09-10T12:41:19Z</time>
      </trkpt>
      <trkpt lat="44.0821" lon="6.21929">
        <ele>582.1</ele>
        <time>2021-09-10T12:41:21Z</time>
      </trkpt>
      <trkpt lat="44.08213" lon="6.21934">
        <ele>582.2</ele>
        <time>2021-09-10T12:41:22Z</time>
      </trkpt>
      <trkpt lat="44.08216" lon="6.2194">
        <ele>582.2</ele>
        <time>2021-09-10T12:41:24Z</time>
      </trkpt>
      <trkpt lat="44.0822" lon="6.21947">
        <ele>582.2</ele>
        <time>2021-09-10T12:41:26Z</time>
      </trkpt>
      <trkpt lat="44.08223" lon="6.21954">
        <ele>582.3</ele>
        <time>2021-09-10T12:41:27Z</time>
      </trkpt>
      <trkpt lat="44.08225" lon="6.2196">
        <ele>582.3</ele>
        <time>2021-09-10T12:41:29Z</time>
      </trkpt>
      <trkpt lat="44.08227" lon="6.21964">
        <ele>582.3</ele>
        <time>2021-09-10T12:41:30Z</time>
      </trkpt>
      <trkpt lat="44.08229" lon="6.21968">
        <ele>582.3</ele>
        <time>2021-09-10T12:41:31Z</time>
      </trkpt>
      <trkpt lat="44.0823" lon="6.21972">
        <ele>582.4</ele>
        <time>2021-09-10T12:41:32Z</time>
      </trkpt>
      <trkpt lat="44.08233" lon="6.2198">
        <ele>582.4</ele>
        <time>2021-09-10T12:41:34Z</time>
      </trkpt>
      <trkpt lat="44.08235" lon="6.21984">
        <ele>582.5</ele>
        <time>2021-09-10T12:41:35Z</time>
      </trkpt>
      <trkpt lat="44.08237" lon="6.21989">
        <ele>582.5</ele>
        <time>2021-09-10T12:41:36Z</time>
      </trkpt>
      <trkpt lat="44.0824" lon="6.21999">
        <ele>582.6</ele>
        <time>2021-09-10T12:41:38Z</time>
      </trkpt>
      <trkpt lat="44.08241" lon="6.2201">
        <ele>582.7</ele>
        <time>2021-09-10T12:41:40Z</time>
      </trkpt>
      <trkpt lat="44.08243" lon="6.22016">
        <ele>582.8</ele>
        <time>2021-09-10T12:41:41Z</time>
      </trkpt>
      <trkpt lat="44.08244" lon="6.22021">
        <ele>582.8</ele>
        <time>2021-09-10T12:41:42Z</time>
      </trkpt>
      <trkpt lat="44.08248" lon="6.2203">
        <ele>582.9</ele>
        <time>2021-09-10T12:41:44Z</time>
      </trkpt>
      <trkpt lat="44.08254" lon="6.2204">
        <ele>583</ele>
        <time>2021-09-10T12:41:46Z</time>
      </trkpt>
      <trkpt lat="44.08257" lon="6.22045">
        <ele>583.1</ele>
        <time>2021-09-10T12:41:47Z</time>
      </trkpt>
      <trkpt lat="44.08261" lon="6.2205">
        <ele>583.1</ele>
        <time>2021-09-10T12:41:48Z</time>
      </trkpt>
      <trkpt lat="44.08267" lon="6.2206">
        <ele>583.2</ele>
        <time>2021-09-10T12:41:50Z</time>
      </trkpt>
      <trkpt lat="44.08271" lon="6.22067">
        <ele>583.3</ele>
        <time>2021-09-10T12:41:51Z</time>
      </trkpt>
      <trkpt lat="44.08274" lon="6.22073">
        <ele>583.3</ele>
        <time>2021-09-10T12:41:53Z</time>
      </trkpt>
      <trkpt lat="44.08277" lon="6.22078">
        <ele>583.4</ele>
        <time>2021-09-10T12:41:54Z</time>
      </trkpt>
      <trkpt lat="44.08279" lon="6.22082">
        <ele>583.4</ele>
        <time>2021-09-10T12:41:55Z</time>
      </trkpt>
      <trkpt lat="44.08284" lon="6.22088">
        <ele>583.5</ele>
        <time>2021-09-10T12:41:57Z</time>
      </trkpt>
      <trkpt lat="44.08288" lon="6.22095">
        <ele>583.5</ele>
        <time>2021-09-10T12:41:59Z</time>
      </trkpt>
      <trkpt lat="44.0829" lon="6.221">
        <ele>583.5</ele>
        <time>2021-09-10T12:42:00Z</time>
      </trkpt>
      <trkpt lat="44.08293" lon="6.22109">
        <ele>583.6</ele>
        <time>2021-09-10T12:42:02Z</time>
      </trkpt>
      <trkpt lat="44.08296" lon="6.22113">
        <ele>583.6</ele>
        <time>2021-09-10T12:42:03Z</time>
      </trkpt>
      <trkpt lat="44.083" lon="6.22121">
        <ele>583.7</ele>
        <time>2021-09-10T12:42:05Z</time>
      </trkpt>
      <trkpt lat="44.08303" lon="6.22125">
        <ele>583.8</ele>
        <time>2021-09-10T12:42:06Z</time>
      </trkpt>
      <trkpt lat="44.08308" lon="6.22134">
        <ele>583.9</ele>
        <time>2021-09-10T12:42:08Z</time>
      </trkpt>
      <trkpt lat="44.08311" lon="6.22143">
        <ele>583.9</ele>
        <time>2021-09-10T12:42:10Z</time>
      </trkpt>
      <trkpt lat="44.08313" lon="6.2215">
        <ele>584</ele>
        <time>2021-09-10T12:42:11Z</time>
      </trkpt>
      <trkpt lat="44.08315" lon="6.22155">
        <ele>584</ele>
        <time>2021-09-10T12:42:12Z</time>
      </trkpt>
      <trkpt lat="44.08317" lon="6.2216">
        <ele>584.1</ele>
        <time>2021-09-10T12:42:13Z</time>
      </trkpt>
      <trkpt lat="44.08323" lon="6.22169">
        <ele>584.2</ele>
        <time>2021-09-10T12:42:15Z</time>
      </trkpt>
      <trkpt lat="44.08327" lon="6.22173">
        <ele>584.3</ele>
        <time>2021-09-10T12:42:16Z</time>
      </trkpt>
      <trkpt lat="44.08329" lon="6.22177">
        <ele>584.3</ele>
        <time>2021-09-10T12:42:17Z</time>
      </trkpt>
      <trkpt lat="44.08332" lon="6.22182">
        <ele>584.4</ele>
        <time>2021-09-10T12:42:18Z</time>
      </trkpt>
      <trkpt lat="44.08335" lon="6.22188">
        <ele>584.4</ele>
        <time>2021-09-10T12:42:20Z</time>
      </trkpt>
      <trkpt lat="44.0834" lon="6.22193">
        <ele>584.5</ele>
        <time>2021-09-10T12:42:21Z</time>
      </trkpt>
      <trkpt lat="44.08344" lon="6.22197">
        <ele>584.5</ele>
        <time>2021-09-10T12:42:23Z</time>
      </trkpt>
      <trkpt lat="44.08347" lon="6.22201">
        <ele>584.5</ele>
        <time>2021-09-10T12:42:24Z</time>
      </trkpt>
      <trkpt lat="44.08354" lon="6.22208">
        <ele>584.6</ele>
        <time>2021-09-10T12:42:26Z</time>
      </trkpt>
      <trkpt lat="44.08358" lon="6.22212">
        <ele>584.7</ele>
        <time>2021-09-10T12:42:27Z</time>
      </trkpt>
      <trkpt lat="44.08361" lon="6.22216">
        <ele>584.7</ele>
        <time>2021-09-10T12:42:28Z</time>
      </trkpt>
      <trkpt lat="44.08365" lon="6.22221">
        <ele>584.8</ele>
        <time>2021-09-10T12:42:29Z</time>
      </trkpt>
      <trkpt lat="44.08369" lon="6.22229">
        <ele>584.9</ele>
        <time>2021-09-10T12:42:30Z</time>
      </trkpt>
      <trkpt lat="44.08372" lon="6.22236">
        <ele>584.9</ele>
        <time>2021-09-10T12:42:32Z</time>
      </trkpt>
      <trkpt lat="44.08377" lon="6.22243">
        <ele>585</ele>
        <time>2021-09-10T12:42:33Z</time>
      </trkpt>
      <trkpt lat="44.0838" lon="6.22248">
        <ele>585.1</ele>
        <time>2021-09-10T12:42:34Z</time>
      </trkpt>
      <trkpt lat="44.08384" lon="6.22256">
        <ele>585.2</ele>
        <time>2021-09-10T12:42:36Z</time>
      </trkpt>
      <trkpt lat="44.08386" lon="6.22263">
        <ele>585.2</ele>
        <time>2021-09-10T12:42:37Z</time>
      </trkpt>
      <trkpt lat="44.08388" lon="6.22269">
        <ele>585.3</ele>
        <time>2021-09-10T12:42:38Z</time>
      </trkpt>
      <trkpt lat="44.08391" lon="6.22277">
        <ele>585.3</ele>
        <time>2021-09-10T12:42:39Z</time>
      </trkpt>
      <trkpt lat="44.08394" lon="6.22287">
        <ele>585.4</ele>
        <time>2021-09-10T12:42:41Z</time>
      </trkpt>
      <trkpt lat="44.08395" lon="6.22293">
        <ele>585.4</ele>
        <time>2021-09-10T12:42:42Z</time>
      </trkpt>
      <trkpt lat="44.08401" lon="6.22303">
        <ele>585.5</ele>
        <time>2021-09-10T12:42:44Z</time>
      </trkpt>
      <trkpt lat="44.08405" lon="6.22309">
        <ele>585.5</ele>
        <time>2021-09-10T12:42:45Z</time>
      </trkpt>
      <trkpt lat="44.08407" lon="6.22317">
        <ele>585.6</ele>
        <time>2021-09-10T12:42:46Z</time>
      </trkpt>
      <trkpt lat="44.0841" lon="6.22327">
        <ele>585.6</ele>
        <time>2021-09-10T12:42:48Z</time>
      </trkpt>
      <trkpt lat="44.08414" lon="6.22338">
        <ele>585.7</ele>
        <time>2021-09-10T12:42:50Z</time>
      </trkpt>
      <trkpt lat="44.08417" lon="6.22346">
        <ele>585.7</ele>
        <time>2021-09-10T12:42:51Z</time>
      </trkpt>
      <trkpt lat="44.0842" lon="6.22355">
        <ele>585.8</ele>
        <time>2021-09-10T12:42:52Z</time>
      </trkpt>
      <trkpt lat="44.08425" lon="6.22367">
        <ele>585.9</ele>
        <time>2021-09-10T12:42:54Z</time>
      </trkpt>
      <trkpt lat="44.08427" lon="6.22373">
        <ele>586</ele>
        <time>2021-09-10T12:42:55Z</time>
      </trkpt>
      <trkpt lat="44.08432" lon="6.22384">
        <ele>586.1</ele>
        <time>2021-09-10T12:42:57Z</time>
      </trkpt>
      <trkpt lat="44.08436" lon="6.22395">
        <ele>586.2</ele>
        <time>2021-09-10T12:42:58Z</time>
      </trkpt>
      <trkpt lat="44.08438" lon="6.22402">
        <ele>586.3</ele>
        <time>2021-09-10T12:42:59Z</time>
      </trkpt>
      <trkpt lat="44.08442" lon="6.2241">
        <ele>586.3</ele>
        <time>2021-09-10T12:43:01Z</time>
      </trkpt>
      <trkpt lat="44.08447" lon="6.2242">
        <ele>586.4</ele>
        <time>2021-09-10T12:43:03Z</time>
      </trkpt>
      <trkpt lat="44.08451" lon="6.2243">
        <ele>586.5</ele>
        <time>2021-09-10T12:43:04Z</time>
      </trkpt>
      <trkpt lat="44.08455" lon="6.22442">
        <ele>586.6</ele>
        <time>2021-09-10T12:43:06Z</time>
      </trkpt>
      <trkpt lat="44.08457" lon="6.22449">
        <ele>586.6</ele>
        <time>2021-09-10T12:43:07Z</time>
      </trkpt>
      <trkpt lat="44.08461" lon="6.22454">
        <ele>586.7</ele>
        <time>2021-09-10T12:43:08Z</time>
      </trkpt>
      <trkpt lat="44.08465" lon="6.22463">
        <ele>586.7</ele>
        <time>2021-09-10T12:43:10Z</time>
      </trkpt>
      <trkpt lat="44.08468" lon="6.22472">
        <ele>586.8</ele>
        <time>2021-09-10T12:43:11Z</time>
      </trkpt>
      <trkpt lat="44.0847" lon="6.2248">
        <ele>586.9</ele>
        <time>2021-09-10T12:43:12Z</time>
      </trkpt>
      <trkpt lat="44.08472" lon="6.22486">
        <ele>586.9</ele>
        <time>2021-09-10T12:43:14Z</time>
      </trkpt>
      <trkpt lat="44.08476" lon="6.22495">
        <ele>587</ele>
        <time>2021-09-10T12:43:15Z</time>
      </trkpt>
      <trkpt lat="44.08481" lon="6.22506">
        <ele>587.1</ele>
        <time>2021-09-10T12:43:17Z</time>
      </trkpt>
      <trkpt lat="44.08482" lon="6.2251">
        <ele>587.1</ele>
        <time>2021-09-10T12:43:19Z</time>
      </trkpt>
      <trkpt lat="44.08483" lon="6.22515">
        <ele>587.2</ele>
        <time>2021-09-10T12:43:20Z</time>
      </trkpt>
      <trkpt lat="44.08487" lon="6.22524">
        <ele>587.3</ele>
        <time>2021-09-10T12:43:22Z</time>
      </trkpt>
      <trkpt lat="44.08493" lon="6.22535">
        <ele>587.4</ele>
        <time>2021-09-10T12:43:23Z</time>
      </trkpt>
      <trkpt lat="44.08499" lon="6.22547">
        <ele>587.5</ele>
        <time>2021-09-10T12:43:25Z</time>
      </trkpt>
      <trkpt lat="44.08501" lon="6.22551">
        <ele>587.5</ele>
        <time>2021-09-10T12:43:26Z</time>
      </trkpt>
      <trkpt lat="44.08506" lon="6.22557">
        <ele>587.5</ele>
        <time>2021-09-10T12:43:28Z</time>
      </trkpt>
      <trkpt lat="44.08509" lon="6.22564">
        <ele>587.6</ele>
        <time>2021-09-10T12:43:29Z</time>
      </trkpt>
      <trkpt lat="44.08513" lon="6.22569">
        <ele>587.6</ele>
        <time>2021-09-10T12:43:31Z</time>
      </trkpt>
      <trkpt lat="44.08515" lon="6.22572">
        <ele>587.6</ele>
        <time>2021-09-10T12:43:32Z</time>
      </trkpt>
      <trkpt lat="44.08522" lon="6.22579">
        <ele>587.7</ele>
        <time>2021-09-10T12:43:34Z</time>
      </trkpt>
      <trkpt lat="44.08529" lon="6.22585">
        <ele>587.7</ele>
        <time>2021-09-10T12:43:35Z</time>
      </trkpt>
      <trkpt lat="44.08533" lon="6.22589">
        <ele>587.8</ele>
        <time>2021-09-10T12:43:37Z</time>
      </trkpt>
      <trkpt lat="44.08538" lon="6.22594">
        <ele>587.8</ele>
        <time>2021-09-10T12:43:38Z</time>
      </trkpt>
      <trkpt lat="44.08542" lon="6.22601">
        <ele>587.9</ele>
        <time>2021-09-10T12:43:40Z</time>
      </trkpt>
      <trkpt lat="44.08546" lon="6.22607">
        <ele>587.9</ele>
        <time>2021-09-10T12:43:41Z</time>
      </trkpt>
      <trkpt lat="44.0855" lon="6.2261">
        <ele>587.9</ele>
        <time>2021-09-10T12:43:43Z</time>
      </trkpt>
      <trkpt lat="44.08553" lon="6.22611">
        <ele>588</ele>
        <time>2021-09-10T12:43:44Z</time>
      </trkpt>
      <trkpt lat="44.08559" lon="6.22615">
        <ele>588</ele>
        <time>2021-09-10T12:43:46Z</time>
      </trkpt>
      <trkpt lat="44.08565" lon="6.22617">
        <ele>588.1</ele>
        <time>2021-09-10T12:43:48Z</time>
      </trkpt>
      <trkpt lat="44.08568" lon="6.22618">
        <ele>588.1</ele>
        <time>2021-09-10T12:43:49Z</time>
      </trkpt>
      <trkpt lat="44.08571" lon="6.2262">
        <ele>588.1</ele>
        <time>2021-09-10T12:43:50Z</time>
      </trkpt>
      <trkpt lat="44.08574" lon="6.22622">
        <ele>588.1</ele>
        <time>2021-09-10T12:43:51Z</time>
      </trkpt>
      <trkpt lat="44.08579" lon="6.22625">
        <ele>588.2</ele>
        <time>2021-09-10T12:43:52Z</time>
      </trkpt>
      <trkpt lat="44.08586" lon="6.22634">
        <ele>588.2</ele>
        <time>2021-09-10T12:43:54Z</time>
      </trkpt>
      <trkpt lat="44.08597" lon="6.22645">
        <ele>588.3</ele>
        <time>2021-09-10T12:43:56Z</time>
      </trkpt>
      <trkpt lat="44.08607" lon="6.22655">
        <ele>588.4</ele>
        <time>2021-09-10T12:43:58Z</time>
      </trkpt>
      <trkpt lat="44.08611" lon="6.22659">
        <ele>588.5</ele>
        <time>2021-09-10T12:43:59Z</time>
      </trkpt>
      <trkpt lat="44.08614" lon="6.22663">
        <ele>588.5</ele>
        <time>2021-09-10T12:44:00Z</time>
      </trkpt>
      <trkpt lat="44.08619" lon="6.22669">
        <ele>588.6</ele>
        <time>2021-09-10T12:44:02Z</time>
      </trkpt>
      <trkpt lat="44.08618" lon="6.22668">
        <ele>588.6</ele>
        <time>2021-09-10T12:44:03Z</time>
      </trkpt>
      <trkpt lat="44.08626" lon="6.22675">
        <ele>588.6</ele>
        <time>2021-09-10T12:44:05Z</time>
      </trkpt>
      <trkpt lat="44.08632" lon="6.2268">
        <ele>588.7</ele>
        <time>2021-09-10T12:44:06Z</time>
      </trkpt>
      <trkpt lat="44.0864" lon="6.22686">
        <ele>588.7</ele>
        <time>2021-09-10T12:44:08Z</time>
      </trkpt>
      <trkpt lat="44.08649" lon="6.22691">
        <ele>588.8</ele>
        <time>2021-09-10T12:44:10Z</time>
      </trkpt>
      <trkpt lat="44.08657" lon="6.22697">
        <ele>589</ele>
        <time>2021-09-10T12:44:12Z</time>
      </trkpt>
      <trkpt lat="44.08662" lon="6.227">
        <ele>589</ele>
        <time>2021-09-10T12:44:13Z</time>
      </trkpt>
      <trkpt lat="44.08668" lon="6.22704">
        <ele>589.1</ele>
        <time>2021-09-10T12:44:15Z</time>
      </trkpt>
      <trkpt lat="44.08672" lon="6.22706">
        <ele>589.2</ele>
        <time>2021-09-10T12:44:16Z</time>
      </trkpt>
      <trkpt lat="44.08674" lon="6.2271">
        <ele>589.2</ele>
        <time>2021-09-10T12:44:17Z</time>
      </trkpt>
      <trkpt lat="44.08678" lon="6.22714">
        <ele>589.3</ele>
        <time>2021-09-10T12:44:18Z</time>
      </trkpt>
      <trkpt lat="44.08683" lon="6.22719">
        <ele>589.3</ele>
        <time>2021-09-10T12:44:20Z</time>
      </trkpt>
      <trkpt lat="44.08687" lon="6.22721">
        <ele>589.3</ele>
        <time>2021-09-10T12:44:21Z</time>
      </trkpt>
      <trkpt lat="44.08691" lon="6.22723">
        <ele>589.3</ele>
        <time>2021-09-10T12:44:22Z</time>
      </trkpt>
      <trkpt lat="44.08697" lon="6.22729">
        <ele>589.3</ele>
        <time>2021-09-10T12:44:24Z</time>
      </trkpt>
      <trkpt lat="44.08703" lon="6.22735">
        <ele>589.4</ele>
        <time>2021-09-10T12:44:25Z</time>
      </trkpt>
      <trkpt lat="44.08712" lon="6.22741">
        <ele>589.4</ele>
        <time>2021-09-10T12:44:27Z</time>
      </trkpt>
      <trkpt lat="44.08716" lon="6.22744">
        <ele>589.5</ele>
        <time>2021-09-10T12:44:28Z</time>
      </trkpt>
      <trkpt lat="44.08726" lon="6.22751">
        <ele>589.5</ele>
        <time>2021-09-10T12:44:30Z</time>
      </trkpt>
      <trkpt lat="44.08736" lon="6.22759">
        <ele>589.6</ele>
        <time>2021-09-10T12:44:32Z</time>
      </trkpt>
      <trkpt lat="44.08742" lon="6.22762">
        <ele>589.6</ele>
        <time>2021-09-10T12:44:34Z</time>
      </trkpt>
      <trkpt lat="44.08746" lon="6.22764">
        <ele>589.7</ele>
        <time>2021-09-10T12:44:35Z</time>
      </trkpt>
      <trkpt lat="44.08747" lon="6.22766">
        <ele>589.7</ele>
        <time>2021-09-10T12:44:36Z</time>
      </trkpt>
      <trkpt lat="44.0875" lon="6.22772">
        <ele>589.8</ele>
        <time>2021-09-10T12:44:37Z</time>
      </trkpt>
      <trkpt lat="44.08755" lon="6.22779">
        <ele>589.9</ele>
        <time>2021-09-10T12:44:39Z</time>
      </trkpt>
      <trkpt lat="44.08761" lon="6.22786">
        <ele>589.9</ele>
        <time>2021-09-10T12:44:41Z</time>
      </trkpt>
      <trkpt lat="44.08768" lon="6.22794">
        <ele>590</ele>
        <time>2021-09-10T12:44:42Z</time>
      </trkpt>
      <trkpt lat="44.08773" lon="6.22799">
        <ele>590.1</ele>
        <time>2021-09-10T12:44:44Z</time>
      </trkpt>
      <trkpt lat="44.08777" lon="6.22802">
        <ele>590.1</ele>
        <time>2021-09-10T12:44:45Z</time>
      </trkpt>
      <trkpt lat="44.08781" lon="6.22805">
        <ele>590.1</ele>
        <time>2021-09-10T12:44:46Z</time>
      </trkpt>
      <trkpt lat="44.08788" lon="6.22809">
        <ele>590.2</ele>
        <time>2021-09-10T12:44:48Z</time>
      </trkpt>
      <trkpt lat="44.08795" lon="6.22814">
        <ele>590.3</ele>
        <time>2021-09-10T12:44:50Z</time>
      </trkpt>
      <trkpt lat="44.08801" lon="6.2282">
        <ele>590.3</ele>
        <time>2021-09-10T12:44:51Z</time>
      </trkpt>
      <trkpt lat="44.08805" lon="6.22824">
        <ele>590.3</ele>
        <time>2021-09-10T12:44:53Z</time>
      </trkpt>
      <trkpt lat="44.08812" lon="6.22832">
        <ele>590.4</ele>
        <time>2021-09-10T12:44:54Z</time>
      </trkpt>
      <trkpt lat="44.08817" lon="6.22837">
        <ele>590.4</ele>
        <time>2021-09-10T12:44:56Z</time>
      </trkpt>
      <trkpt lat="44.08821" lon="6.22842">
        <ele>590.5</ele>
        <time>2021-09-10T12:44:57Z</time>
      </trkpt>
      <trkpt lat="44.08832" lon="6.22855">
        <ele>590.6</ele>
        <time>2021-09-10T12:45:01Z</time>
      </trkpt>
      <trkpt lat="44.08837" lon="6.22858">
        <ele>590.7</ele>
        <time>2021-09-10T12:45:02Z</time>
      </trkpt>
      <trkpt lat="44.08842" lon="6.22861">
        <ele>590.7</ele>
        <time>2021-09-10T12:45:04Z</time>
      </trkpt>
      <trkpt lat="44.0885" lon="6.22867">
        <ele>590.8</ele>
        <time>2021-09-10T12:45:06Z</time>
      </trkpt>
      <trkpt lat="44.08854" lon="6.22876">
        <ele>590.9</ele>
        <time>2021-09-10T12:45:08Z</time>
      </trkpt>
      <trkpt lat="44.0886" lon="6.2288">
        <ele>591</ele>
        <time>2021-09-10T12:45:09Z</time>
      </trkpt>
      <trkpt lat="44.08863" lon="6.22882">
        <ele>591</ele>
        <time>2021-09-10T12:45:10Z</time>
      </trkpt>
      <trkpt lat="44.08868" lon="6.22885">
        <ele>591.1</ele>
        <time>2021-09-10T12:45:12Z</time>
      </trkpt>
      <trkpt lat="44.08872" lon="6.22887">
        <ele>591.2</ele>
        <time>2021-09-10T12:45:13Z</time>
      </trkpt>
      <trkpt lat="44.08876" lon="6.2289">
        <ele>591.3</ele>
        <time>2021-09-10T12:45:14Z</time>
      </trkpt>
      <trkpt lat="44.08878" lon="6.22892">
        <ele>591.3</ele>
        <time>2021-09-10T12:45:15Z</time>
      </trkpt>
      <trkpt lat="44.08881" lon="6.22896">
        <ele>591.4</ele>
        <time>2021-09-10T12:45:16Z</time>
      </trkpt>
      <trkpt lat="44.08885" lon="6.22899">
        <ele>591.4</ele>
        <time>2021-09-10T12:45:17Z</time>
      </trkpt>
      <trkpt lat="44.08891" lon="6.22906">
        <ele>591.5</ele>
        <time>2021-09-10T12:45:19Z</time>
      </trkpt>
      <trkpt lat="44.08897" lon="6.22911">
        <ele>591.6</ele>
        <time>2021-09-10T12:45:21Z</time>
      </trkpt>
      <trkpt lat="44.08901" lon="6.22915">
        <ele>591.7</ele>
        <time>2021-09-10T12:45:22Z</time>
      </trkpt>
      <trkpt lat="44.08908" lon="6.22922">
        <ele>591.8</ele>
        <time>2021-09-10T12:45:24Z</time>
      </trkpt>
      <trkpt lat="44.08912" lon="6.22926">
        <ele>591.9</ele>
        <time>2021-09-10T12:45:25Z</time>
      </trkpt>
      <trkpt lat="44.08916" lon="6.2293">
        <ele>591.9</ele>
        <time>2021-09-10T12:45:26Z</time>
      </trkpt>
      <trkpt lat="44.08922" lon="6.22936">
        <ele>592</ele>
        <time>2021-09-10T12:45:28Z</time>
      </trkpt>
      <trkpt lat="44.08929" lon="6.22943">
        <ele>592</ele>
        <time>2021-09-10T12:45:30Z</time>
      </trkpt>
      <trkpt lat="44.08936" lon="6.22948">
        <ele>592</ele>
        <time>2021-09-10T12:45:31Z</time>
      </trkpt>
      <trkpt lat="44.08948" lon="6.22956">
        <ele>592.2</ele>
        <time>2021-09-10T12:45:33Z</time>
      </trkpt>
      <trkpt lat="44.08957" lon="6.2296">
        <ele>592.3</ele>
        <time>2021-09-10T12:45:35Z</time>
      </trkpt>
      <trkpt lat="44.0896" lon="6.2296">
        <ele>592.3</ele>
        <time>2021-09-10T12:45:36Z</time>
      </trkpt>
      <trkpt lat="44.08963" lon="6.22958">
        <ele>592.4</ele>
        <time>2021-09-10T12:45:37Z</time>
      </trkpt>
      <trkpt lat="44.08964" lon="6.22959">
        <ele>592.4</ele>
        <time>2021-09-10T12:45:38Z</time>
      </trkpt>
      <trkpt lat="44.08967" lon="6.22962">
        <ele>592.4</ele>
        <time>2021-09-10T12:45:39Z</time>
      </trkpt>
      <trkpt lat="44.0897" lon="6.22966">
        <ele>592.4</ele>
        <time>2021-09-10T12:45:41Z</time>
      </trkpt>
      <trkpt lat="44.08972" lon="6.22969">
        <ele>592.4</ele>
        <time>2021-09-10T12:45:42Z</time>
      </trkpt>
      <trkpt lat="44.08974" lon="6.22971">
        <ele>592.5</ele>
        <time>2021-09-10T12:45:43Z</time>
      </trkpt>
      <trkpt lat="44.08977" lon="6.22976">
        <ele>592.5</ele>
        <time>2021-09-10T12:45:45Z</time>
      </trkpt>
      <trkpt lat="44.0898" lon="6.2298">
        <ele>592.5</ele>
        <time>2021-09-10T12:45:46Z</time>
      </trkpt>
      <trkpt lat="44.08982" lon="6.22983">
        <ele>592.5</ele>
        <time>2021-09-10T12:45:48Z</time>
      </trkpt>
      <trkpt lat="44.08985" lon="6.22984">
        <ele>592.5</ele>
        <time>2021-09-10T12:45:49Z</time>
      </trkpt>
      <trkpt lat="44.0899" lon="6.22987">
        <ele>592.6</ele>
        <time>2021-09-10T12:45:50Z</time>
      </trkpt>
      <trkpt lat="44.08993" lon="6.22991">
        <ele>592.6</ele>
        <time>2021-09-10T12:45:52Z</time>
      </trkpt>
      <trkpt lat="44.08997" lon="6.22994">
        <ele>592.6</ele>
        <time>2021-09-10T12:45:53Z</time>
      </trkpt>
      <trkpt lat="44.09" lon="6.22996">
        <ele>592.6</ele>
        <time>2021-09-10T12:45:54Z</time>
      </trkpt>
      <trkpt lat="44.09003" lon="6.22997">
        <ele>592.6</ele>
        <time>2021-09-10T12:45:55Z</time>
      </trkpt>
      <trkpt lat="44.09005" lon="6.22999">
        <ele>592.7</ele>
        <time>2021-09-10T12:45:56Z</time>
      </trkpt>
      <trkpt lat="44.09009" lon="6.23001">
        <ele>592.7</ele>
        <time>2021-09-10T12:45:57Z</time>
      </trkpt>
      <trkpt lat="44.0901" lon="6.23002">
        <ele>592.7</ele>
        <time>2021-09-10T12:45:58Z</time>
      </trkpt>
      <trkpt lat="44.09012" lon="6.23005">
        <ele>592.7</ele>
        <time>2021-09-10T12:45:59Z</time>
      </trkpt>
      <trkpt lat="44.09015" lon="6.23007">
        <ele>592.8</ele>
        <time>2021-09-10T12:46:00Z</time>
      </trkpt>
      <trkpt lat="44.09018" lon="6.23009">
        <ele>592.8</ele>
        <time>2021-09-10T12:46:01Z</time>
      </trkpt>
      <trkpt lat="44.09021" lon="6.23011">
        <ele>592.9</ele>
        <time>2021-09-10T12:46:02Z</time>
      </trkpt>
      <trkpt lat="44.09023" lon="6.23014">
        <ele>592.9</ele>
        <time>2021-09-10T12:46:04Z</time>
      </trkpt>
      <trkpt lat="44.09028" lon="6.23022">
        <ele>593.1</ele>
        <time>2021-09-10T12:46:06Z</time>
      </trkpt>
      <trkpt lat="44.09029" lon="6.23029">
        <ele>593.2</ele>
        <time>2021-09-10T12:46:08Z</time>
      </trkpt>
      <trkpt lat="44.0903" lon="6.23031">
        <ele>593.3</ele>
        <time>2021-09-10T12:46:09Z</time>
      </trkpt>
      <trkpt lat="44.0903" lon="6.23033">
        <ele>593.3</ele>
        <time>2021-09-10T12:46:10Z</time>
      </trkpt>
      <trkpt lat="44.09031" lon="6.23034">
        <ele>593.4</ele>
        <time>2021-09-10T12:46:11Z</time>
      </trkpt>
      <trkpt lat="44.09031" lon="6.23036">
        <ele>593.4</ele>
        <time>2021-09-10T12:46:12Z</time>
      </trkpt>
      <trkpt lat="44.09033" lon="6.2304">
        <ele>593.5</ele>
        <time>2021-09-10T12:46:14Z</time>
      </trkpt>
      <trkpt lat="44.09036" lon="6.23042">
        <ele>593.7</ele>
        <time>2021-09-10T12:46:15Z</time>
      </trkpt>
      <trkpt lat="44.0904" lon="6.23043">
        <ele>593.7</ele>
        <time>2021-09-10T12:46:16Z</time>
      </trkpt>
      <trkpt lat="44.09045" lon="6.23043">
        <ele>593.7</ele>
        <time>2021-09-10T12:46:18Z</time>
      </trkpt>
      <trkpt lat="44.09049" lon="6.23043">
        <ele>593.7</ele>
        <time>2021-09-10T12:46:19Z</time>
      </trkpt>
      <trkpt lat="44.09054" lon="6.23046">
        <ele>593.7</ele>
        <time>2021-09-10T12:46:21Z</time>
      </trkpt>
      <trkpt lat="44.09056" lon="6.23049">
        <ele>593.7</ele>
        <time>2021-09-10T12:46:22Z</time>
      </trkpt>
      <trkpt lat="44.09057" lon="6.23049">
        <ele>593.7</ele>
        <time>2021-09-10T12:46:23Z</time>
      </trkpt>
      <trkpt lat="44.09059" lon="6.23055">
        <ele>593.7</ele>
        <time>2021-09-10T12:46:25Z</time>
      </trkpt>
      <trkpt lat="44.0906" lon="6.23058">
        <ele>593.7</ele>
        <time>2021-09-10T12:46:26Z</time>
      </trkpt>
      <trkpt lat="44.09061" lon="6.23063">
        <ele>593.7</ele>
        <time>2021-09-10T12:46:28Z</time>
      </trkpt>
      <trkpt lat="44.09061" lon="6.2307">
        <ele>593.7</ele>
        <time>2021-09-10T12:46:29Z</time>
      </trkpt>
      <trkpt lat="44.0906" lon="6.23075">
        <ele>594</ele>
        <time>2021-09-10T12:46:31Z</time>
      </trkpt>
      <trkpt lat="44.09059" lon="6.23078">
        <ele>594.3</ele>
        <time>2021-09-10T12:46:32Z</time>
      </trkpt>
      <trkpt lat="44.09057" lon="6.23083">
        <ele>594.7</ele>
        <time>2021-09-10T12:46:34Z</time>
      </trkpt>
      <trkpt lat="44.09057" lon="6.23086">
        <ele>595</ele>
        <time>2021-09-10T12:46:35Z</time>
      </trkpt>
      <trkpt lat="44.09056" lon="6.23088">
        <ele>595.1</ele>
        <time>2021-09-10T12:46:36Z</time>
      </trkpt>
      <trkpt lat="44.09057" lon="6.23089">
        <ele>595.2</ele>
        <time>2021-09-10T12:46:37Z</time>
      </trkpt>
      <trkpt lat="44.09057" lon="6.2309">
        <ele>595.3</ele>
        <time>2021-09-10T12:46:39Z</time>
      </trkpt>
      <trkpt lat="44.09057" lon="6.2309">
        <ele>595.3</ele>
        <time>2021-09-10T12:46:40Z</time>
      </trkpt>
      <trkpt lat="44.09057" lon="6.2309">
        <ele>595.3</ele>
        <time>2021-09-10T12:46:41Z</time>
      </trkpt>
      <trkpt lat="44.09058" lon="6.2309">
        <ele>595.4</ele>
        <time>2021-09-10T12:46:43Z</time>
      </trkpt>
      <trkpt lat="44.09058" lon="6.2309">
        <ele>595.4</ele>
        <time>2021-09-10T12:46:45Z</time>
      </trkpt>
      <trkpt lat="44.09058" lon="6.2309">
        <ele>595.4</ele>
        <time>2021-09-10T12:46:47Z</time>
      </trkpt>
      <trkpt lat="44.09088" lon="6.23091">
        <ele>597.3</ele>
        <time>2021-09-10T12:47:19Z</time>
      </trkpt>
      <trkpt lat="44.09087" lon="6.23091">
        <ele>597.3</ele>
        <time>2021-09-10T12:47:21Z</time>
      </trkpt>
      <trkpt lat="44.09086" lon="6.2309">
        <ele>597.3</ele>
        <time>2021-09-10T12:47:23Z</time>
      </trkpt>
      <trkpt lat="44.09086" lon="6.2309">
        <ele>597.3</ele>
        <time>2021-09-10T12:47:24Z</time>
      </trkpt>
      <trkpt lat="44.09086" lon="6.2309">
        <ele>597.3</ele>
        <time>2021-09-10T12:47:25Z</time>
      </trkpt>
      <trkpt lat="44.09086" lon="6.2309">
        <ele>597.3</ele>
        <time>2021-09-10T12:47:26Z</time>
      </trkpt>
      <trkpt lat="44.09086" lon="6.2309">
        <ele>597.3</ele>
        <time>2021-09-10T12:47:28Z</time>
      </trkpt>
      <trkpt lat="44.09086" lon="6.2309">
        <ele>597.3</ele>
        <time>2021-09-10T12:47:30Z</time>
      </trkpt>
      <trkpt lat="44.09086" lon="6.2309">
        <ele>597.3</ele>
        <time>2021-09-10T12:47:31Z</time>
      </trkpt>
      <trkpt lat="44.09086" lon="6.2309">
        <ele>597.3</ele>
        <time>2021-09-10T12:47:33Z</time>
      </trkpt>
      <trkpt lat="44.09086" lon="6.2309">
        <ele>597.3</ele>
        <time>2021-09-10T12:47:35Z</time>
      </trkpt>
      <trkpt lat="44.09086" lon="6.2309">
        <ele>597.3</ele>
        <time>2021-09-10T12:47:36Z</time>
      </trkpt>
      <trkpt lat="44.09085" lon="6.2309">
        <ele>597.3</ele>
        <time>2021-09-10T12:47:37Z</time>
      </trkpt>
      <trkpt lat="44.09085" lon="6.2309">
        <ele>597.3</ele>
        <time>2021-09-10T12:47:39Z</time>
      </trkpt>
      <trkpt lat="44.09085" lon="6.2309">
        <ele>597.3</ele>
        <time>2021-09-10T12:47:40Z</time>
      </trkpt>
      <trkpt lat="44.09085" lon="6.2309">
        <ele>597.3</ele>
        <time>2021-09-10T12:47:42Z</time>
      </trkpt>
      <trkpt lat="44.09085" lon="6.2309">
        <ele>597.3</ele>
        <time>2021-09-10T12:47:43Z</time>
      </trkpt>
      <trkpt lat="44.09085" lon="6.23089">
        <ele>597.3</ele>
        <time>2021-09-10T12:47:44Z</time>
      </trkpt>
      <trkpt lat="44.09085" lon="6.23089">
        <ele>597.3</ele>
        <time>2021-09-10T12:47:45Z</time>
      </trkpt>
      <trkpt lat="44.09085" lon="6.23089">
        <ele>597.3</ele>
        <time>2021-09-10T12:47:47Z</time>
      </trkpt>
      <trkpt lat="44.09085" lon="6.23089">
        <ele>597.3</ele>
        <time>2021-09-10T12:47:49Z</time>
      </trkpt>
      <trkpt lat="44.09085" lon="6.23089">
        <ele>597.3</ele>
        <time>2021-09-10T12:47:51Z</time>
      </trkpt>
      <trkpt lat="44.09085" lon="6.23089">
        <ele>597.3</ele>
        <time>2021-09-10T12:47:52Z</time>
      </trkpt>
      <trkpt lat="44.09086" lon="6.23089">
        <ele>597.3</ele>
        <time>2021-09-10T12:47:53Z</time>
      </trkpt>
      <trkpt lat="44.09086" lon="6.23089">
        <ele>597.3</ele>
        <time>2021-09-10T12:47:54Z</time>
      </trkpt>
      <trkpt lat="44.09086" lon="6.23089">
        <ele>597.3</ele>
        <time>2021-09-10T12:47:56Z</time>
      </trkpt>
      <trkpt lat="44.09086" lon="6.23089">
        <ele>597.3</ele>
        <time>2021-09-10T12:47:58Z</time>
      </trkpt>
      <trkpt lat="44.09086" lon="6.23089">
        <ele>597.3</ele>
        <time>2021-09-10T12:47:59Z</time>
      </trkpt>
      <trkpt lat="44.09085" lon="6.23089">
        <ele>597.3</ele>
        <time>2021-09-10T12:48:00Z</time>
      </trkpt>
      <trkpt lat="44.09085" lon="6.23089">
        <ele>597.3</ele>
        <time>2021-09-10T12:48:02Z</time>
      </trkpt>
      <trkpt lat="44.09086" lon="6.2309">
        <ele>597.3</ele>
        <time>2021-09-10T12:48:04Z</time>
      </trkpt>
      <trkpt lat="44.09086" lon="6.2309">
        <ele>597.3</ele>
        <time>2021-09-10T12:48:05Z</time>
      </trkpt>
      <trkpt lat="44.09086" lon="6.2309">
        <ele>597.3</ele>
        <time>2021-09-10T12:48:07Z</time>
      </trkpt>
      <trkpt lat="44.09086" lon="6.2309">
        <ele>597.3</ele>
        <time>2021-09-10T12:48:08Z</time>
      </trkpt>
      <trkpt lat="44.09086" lon="6.2309">
        <ele>597.3</ele>
        <time>2021-09-10T12:48:09Z</time>
      </trkpt>
      <trkpt lat="44.09086" lon="6.2309">
        <ele>597.3</ele>
        <time>2021-09-10T12:48:11Z</time>
      </trkpt>
      <trkpt lat="44.09086" lon="6.2309">
        <ele>597.3</ele>
        <time>2021-09-10T12:48:12Z</time>
      </trkpt>
      <trkpt lat="44.09086" lon="6.2309">
        <ele>597.3</ele>
        <time>2021-09-10T12:48:14Z</time>
      </trkpt>
      <trkpt lat="44.09086" lon="6.2309">
        <ele>597.3</ele>
        <time>2021-09-10T12:48:15Z</time>
      </trkpt>
      <trkpt lat="44.09086" lon="6.2309">
        <ele>597.3</ele>
        <time>2021-09-10T12:48:16Z</time>
      </trkpt>
      <trkpt lat="44.09086" lon="6.2309">
        <ele>597.3</ele>
        <time>2021-09-10T12:48:18Z</time>
      </trkpt>
      <trkpt lat="44.09086" lon="6.2309">
        <ele>597.3</ele>
        <time>2021-09-10T12:48:20Z</time>
      </trkpt>
      <trkpt lat="44.09086" lon="6.2309">
        <ele>597.3</ele>
        <time>2021-09-10T12:48:21Z</time>
      </trkpt>
      <trkpt lat="44.09086" lon="6.2309">
        <ele>597.3</ele>
        <time>2021-09-10T12:48:22Z</time>
      </trkpt>
      <trkpt lat="44.09086" lon="6.2309">
        <ele>597.3</ele>
        <time>2021-09-10T12:48:24Z</time>
      </trkpt>
      <trkpt lat="44.09086" lon="6.2309">
        <ele>597.3</ele>
        <time>2021-09-10T12:48:26Z</time>
      </trkpt>
      <trkpt lat="44.09086" lon="6.2309">
        <ele>597.3</ele>
        <time>2021-09-10T12:48:27Z</time>
      </trkpt>
      <trkpt lat="44.09091" lon="6.23095">
        <ele>597.3</ele>
        <time>2021-09-10T12:48:29Z</time>
      </trkpt>
      <trkpt lat="44.09093" lon="6.23097">
        <ele>597.3</ele>
        <time>2021-09-10T12:48:30Z</time>
      </trkpt>
      <trkpt lat="44.09093" lon="6.23097">
        <ele>597.3</ele>
        <time>2021-09-10T12:48:31Z</time>
      </trkpt>
      <trkpt lat="44.09093" lon="6.23097">
        <ele>597.3</ele>
        <time>2021-09-10T12:48:32Z</time>
      </trkpt>
      <trkpt lat="44.09093" lon="6.23097">
        <ele>597.3</ele>
        <time>2021-09-10T12:48:34Z</time>
      </trkpt>
      <trkpt lat="44.09093" lon="6.23098">
        <ele>597.3</ele>
        <time>2021-09-10T12:48:35Z</time>
      </trkpt>
      <trkpt lat="44.09093" lon="6.23098">
        <ele>597.3</ele>
        <time>2021-09-10T12:48:36Z</time>
      </trkpt>
      <trkpt lat="44.09093" lon="6.23098">
        <ele>597.3</ele>
        <time>2021-09-10T12:48:37Z</time>
      </trkpt>
      <trkpt lat="44.09093" lon="6.23098">
        <ele>597.3</ele>
        <time>2021-09-10T12:48:39Z</time>
      </trkpt>
      <trkpt lat="44.09093" lon="6.23099">
        <ele>597.3</ele>
        <time>2021-09-10T12:48:40Z</time>
      </trkpt>
      <trkpt lat="44.09093" lon="6.23099">
        <ele>597.3</ele>
        <time>2021-09-10T12:48:42Z</time>
      </trkpt>
      <trkpt lat="44.09093" lon="6.23099">
        <ele>597.3</ele>
        <time>2021-09-10T12:48:43Z</time>
      </trkpt>
      <trkpt lat="44.09093" lon="6.23099">
        <ele>597.3</ele>
        <time>2021-09-10T12:48:45Z</time>
      </trkpt>
      <trkpt lat="44.09093" lon="6.23099">
        <ele>597.3</ele>
        <time>2021-09-10T12:48:46Z</time>
      </trkpt>
      <trkpt lat="44.09093" lon="6.231">
        <ele>597.3</ele>
        <time>2021-09-10T12:48:47Z</time>
      </trkpt>
      <trkpt lat="44.09093" lon="6.231">
        <ele>597.3</ele>
        <time>2021-09-10T12:48:48Z</time>
      </trkpt>
      <trkpt lat="44.09093" lon="6.231">
        <ele>597.3</ele>
        <time>2021-09-10T12:48:50Z</time>
      </trkpt>
      <trkpt lat="44.09093" lon="6.231">
        <ele>597.3</ele>
        <time>2021-09-10T12:48:51Z</time>
      </trkpt>
      <trkpt lat="44.09093" lon="6.23101">
        <ele>597.3</ele>
        <time>2021-09-10T12:48:53Z</time>
      </trkpt>
      <trkpt lat="44.09093" lon="6.23101">
        <ele>597.3</ele>
        <time>2021-09-10T12:48:54Z</time>
      </trkpt>
      <trkpt lat="44.09093" lon="6.23101">
        <ele>597.3</ele>
        <time>2021-09-10T12:48:56Z</time>
      </trkpt>
      <trkpt lat="44.09093" lon="6.23101">
        <ele>597.3</ele>
        <time>2021-09-10T12:48:57Z</time>
      </trkpt>
      <trkpt lat="44.09092" lon="6.23102">
        <ele>597.3</ele>
        <time>2021-09-10T12:48:59Z</time>
      </trkpt>
      <trkpt lat="44.09092" lon="6.23102">
        <ele>597.3</ele>
        <time>2021-09-10T12:49:00Z</time>
      </trkpt>
      <trkpt lat="44.09092" lon="6.23102">
        <ele>597.3</ele>
        <time>2021-09-10T12:49:02Z</time>
      </trkpt>
      <trkpt lat="44.09092" lon="6.23102">
        <ele>597.7</ele>
        <time>2021-09-10T12:49:03Z</time>
      </trkpt>
      <trkpt lat="44.09092" lon="6.23103">
        <ele>597.7</ele>
        <time>2021-09-10T12:49:04Z</time>
      </trkpt>
      <trkpt lat="44.09094" lon="6.23108">
        <ele>597.6</ele>
        <time>2021-09-10T12:49:06Z</time>
      </trkpt>
      <trkpt lat="44.09095" lon="6.23111">
        <ele>597.6</ele>
        <time>2021-09-10T12:49:07Z</time>
      </trkpt>
      <trkpt lat="44.09097" lon="6.23119">
        <ele>597.6</ele>
        <time>2021-09-10T12:49:09Z</time>
      </trkpt>
      <trkpt lat="44.091" lon="6.23129">
        <ele>597.5</ele>
        <time>2021-09-10T12:49:10Z</time>
      </trkpt>
      <trkpt lat="44.09102" lon="6.23136">
        <ele>597.3</ele>
        <time>2021-09-10T12:49:12Z</time>
      </trkpt>
      <trkpt lat="44.09104" lon="6.23141">
        <ele>597.3</ele>
        <time>2021-09-10T12:49:13Z</time>
      </trkpt>
      <trkpt lat="44.09107" lon="6.23147">
        <ele>597.3</ele>
        <time>2021-09-10T12:49:14Z</time>
      </trkpt>
      <trkpt lat="44.09113" lon="6.23155">
        <ele>597.3</ele>
        <time>2021-09-10T12:49:16Z</time>
      </trkpt>
      <trkpt lat="44.09123" lon="6.23165">
        <ele>597.4</ele>
        <time>2021-09-10T12:49:18Z</time>
      </trkpt>
      <trkpt lat="44.09131" lon="6.23174">
        <ele>597.3</ele>
        <time>2021-09-10T12:49:20Z</time>
      </trkpt>
      <trkpt lat="44.09138" lon="6.23182">
        <ele>597.3</ele>
        <time>2021-09-10T12:49:22Z</time>
      </trkpt>
      <trkpt lat="44.09141" lon="6.23185">
        <ele>597.3</ele>
        <time>2021-09-10T12:49:23Z</time>
      </trkpt>
      <trkpt lat="44.09143" lon="6.23188">
        <ele>597.3</ele>
        <time>2021-09-10T12:49:24Z</time>
      </trkpt>
      <trkpt lat="44.09147" lon="6.23197">
        <ele>597.2</ele>
        <time>2021-09-10T12:49:26Z</time>
      </trkpt>
      <trkpt lat="44.0915" lon="6.23204">
        <ele>597.2</ele>
        <time>2021-09-10T12:49:28Z</time>
      </trkpt>
      <trkpt lat="44.0915" lon="6.23204">
        <ele>597.2</ele>
        <time>2021-09-10T12:49:29Z</time>
      </trkpt>
      <trkpt lat="44.09152" lon="6.23207">
        <ele>597.2</ele>
        <time>2021-09-10T12:49:30Z</time>
      </trkpt>
      <trkpt lat="44.09155" lon="6.23213">
        <ele>597.2</ele>
        <time>2021-09-10T12:49:31Z</time>
      </trkpt>
      <trkpt lat="44.09155" lon="6.23217">
        <ele>597.2</ele>
        <time>2021-09-10T12:49:32Z</time>
      </trkpt>
      <trkpt lat="44.09154" lon="6.23222">
        <ele>597.2</ele>
        <time>2021-09-10T12:49:34Z</time>
      </trkpt>
      <trkpt lat="44.09152" lon="6.23226">
        <ele>597.2</ele>
        <time>2021-09-10T12:49:35Z</time>
      </trkpt>
      <trkpt lat="44.09151" lon="6.23228">
        <ele>597.2</ele>
        <time>2021-09-10T12:49:36Z</time>
      </trkpt>
      <trkpt lat="44.09148" lon="6.2323">
        <ele>597.3</ele>
        <time>2021-09-10T12:49:38Z</time>
      </trkpt>
      <trkpt lat="44.09147" lon="6.23233">
        <ele>597.2</ele>
        <time>2021-09-10T12:49:40Z</time>
      </trkpt>
      <trkpt lat="44.0915" lon="6.23231">
        <ele>597.3</ele>
        <time>2021-09-10T12:49:42Z</time>
      </trkpt>
      <trkpt lat="44.09152" lon="6.2323">
        <ele>597.2</ele>
        <time>2021-09-10T12:49:43Z</time>
      </trkpt>
      <trkpt lat="44.09153" lon="6.23229">
        <ele>597.2</ele>
        <time>2021-09-10T12:49:45Z</time>
      </trkpt>
      <trkpt lat="44.09153" lon="6.23229">
        <ele>597.2</ele>
        <time>2021-09-10T12:49:46Z</time>
      </trkpt>
      <trkpt lat="44.09152" lon="6.23229">
        <ele>597.1</ele>
        <time>2021-09-10T12:49:47Z</time>
      </trkpt>
      <trkpt lat="44.09152" lon="6.23229">
        <ele>597.1</ele>
        <time>2021-09-10T12:49:48Z</time>
      </trkpt>
      <trkpt lat="44.09151" lon="6.23229">
        <ele>597.1</ele>
        <time>2021-09-10T12:49:50Z</time>
      </trkpt>
      <trkpt lat="44.09143" lon="6.23223">
        <ele>596.9</ele>
        <time>2021-09-10T12:54:22Z</time>
      </trkpt>
      <trkpt lat="44.09144" lon="6.23262">
        <ele>598</ele>
        <time>2021-09-10T12:54:28Z</time>
      </trkpt>
      <trkpt lat="44.09145" lon="6.23261">
        <ele>598</ele>
        <time>2021-09-10T12:54:29Z</time>
      </trkpt>
      <trkpt lat="44.09146" lon="6.2326">
        <ele>598</ele>
        <time>2021-09-10T12:54:30Z</time>
      </trkpt>
      <trkpt lat="44.09148" lon="6.23259">
        <ele>598</ele>
        <time>2021-09-10T12:54:31Z</time>
      </trkpt>
      <trkpt lat="44.09149" lon="6.23258">
        <ele>598</ele>
        <time>2021-09-10T12:54:33Z</time>
      </trkpt>
      <trkpt lat="44.09151" lon="6.23258">
        <ele>598</ele>
        <time>2021-09-10T12:54:34Z</time>
      </trkpt>
      <trkpt lat="44.09152" lon="6.23257">
        <ele>598</ele>
        <time>2021-09-10T12:54:36Z</time>
      </trkpt>
      <trkpt lat="44.09153" lon="6.23256">
        <ele>598</ele>
        <time>2021-09-10T12:54:38Z</time>
      </trkpt>
      <trkpt lat="44.09155" lon="6.23255">
        <ele>597.8</ele>
        <time>2021-09-10T12:54:40Z</time>
      </trkpt>
      <trkpt lat="44.09156" lon="6.23254">
        <ele>597.8</ele>
        <time>2021-09-10T12:54:41Z</time>
      </trkpt>
      <trkpt lat="44.09158" lon="6.23253">
        <ele>597.8</ele>
        <time>2021-09-10T12:54:43Z</time>
      </trkpt>
      <trkpt lat="44.09158" lon="6.23253">
        <ele>597.8</ele>
        <time>2021-09-10T12:54:44Z</time>
      </trkpt>
      <trkpt lat="44.09158" lon="6.23253">
        <ele>597.8</ele>
        <time>2021-09-10T12:54:46Z</time>
      </trkpt>
      <trkpt lat="44.09158" lon="6.23253">
        <ele>597.8</ele>
        <time>2021-09-10T12:54:47Z</time>
      </trkpt>
      <trkpt lat="44.09157" lon="6.23264">
        <ele>598.2</ele>
        <time>2021-09-10T12:54:49Z</time>
      </trkpt>
      <trkpt lat="44.09157" lon="6.23268">
        <ele>598.2</ele>
        <time>2021-09-10T12:54:50Z</time>
      </trkpt>
      <trkpt lat="44.09156" lon="6.2327">
        <ele>598.3</ele>
        <time>2021-09-10T12:54:52Z</time>
      </trkpt>
      <trkpt lat="44.09155" lon="6.23271">
        <ele>598.3</ele>
        <time>2021-09-10T12:54:53Z</time>
      </trkpt>
      <trkpt lat="44.09155" lon="6.23269">
        <ele>598.3</ele>
        <time>2021-09-10T12:54:54Z</time>
      </trkpt>
      <trkpt lat="44.09159" lon="6.23259">
        <ele>598</ele>
        <time>2021-09-10T12:54:56Z</time>
      </trkpt>
      <trkpt lat="44.09169" lon="6.23236">
        <ele>597.3</ele>
        <time>2021-09-10T12:54:57Z</time>
      </trkpt>
      <trkpt lat="44.09172" lon="6.23231">
        <ele>597.2</ele>
        <time>2021-09-10T12:54:59Z</time>
      </trkpt>
      <trkpt lat="44.09175" lon="6.23226">
        <ele>597.1</ele>
        <time>2021-09-10T12:55:01Z</time>
      </trkpt>
      <trkpt lat="44.09177" lon="6.23223">
        <ele>597</ele>
        <time>2021-09-10T12:55:02Z</time>
      </trkpt>
      <trkpt lat="44.09179" lon="6.2322">
        <ele>596.9</ele>
        <time>2021-09-10T12:55:04Z</time>
      </trkpt>
      <trkpt lat="44.09179" lon="6.2322">
        <ele>596.9</ele>
        <time>2021-09-10T12:55:05Z</time>
      </trkpt>
      <trkpt lat="44.09179" lon="6.23221">
        <ele>597</ele>
        <time>2021-09-10T12:55:06Z</time>
      </trkpt>
      <trkpt lat="44.09178" lon="6.23222">
        <ele>597</ele>
        <time>2021-09-10T12:55:07Z</time>
      </trkpt>
      <trkpt lat="44.09174" lon="6.23226">
        <ele>597.1</ele>
        <time>2021-09-10T12:55:09Z</time>
      </trkpt>
      <trkpt lat="44.09169" lon="6.23229">
        <ele>597.1</ele>
        <time>2021-09-10T12:55:10Z</time>
      </trkpt>
      <trkpt lat="44.09161" lon="6.23237">
        <ele>597.3</ele>
        <time>2021-09-10T12:55:12Z</time>
      </trkpt>
      <trkpt lat="44.09158" lon="6.2324">
        <ele>597.4</ele>
        <time>2021-09-10T12:55:13Z</time>
      </trkpt>
      <trkpt lat="44.09152" lon="6.23246">
        <ele>597.5</ele>
        <time>2021-09-10T12:55:15Z</time>
      </trkpt>
      <trkpt lat="44.09149" lon="6.23248">
        <ele>597.6</ele>
        <time>2021-09-10T12:55:16Z</time>
      </trkpt>
      <trkpt lat="44.09148" lon="6.23248">
        <ele>597.6</ele>
        <time>2021-09-10T12:55:17Z</time>
      </trkpt>
      <trkpt lat="44.09144" lon="6.2325">
        <ele>597.5</ele>
        <time>2021-09-10T12:55:19Z</time>
      </trkpt>
      <trkpt lat="44.09142" lon="6.2325">
        <ele>597.5</ele>
        <time>2021-09-10T12:55:20Z</time>
      </trkpt>
      <trkpt lat="44.09141" lon="6.23251">
        <ele>597.6</ele>
        <time>2021-09-10T12:55:22Z</time>
      </trkpt>
      <trkpt lat="44.0914" lon="6.23253">
        <ele>597.6</ele>
        <time>2021-09-10T12:55:23Z</time>
      </trkpt>
      <trkpt lat="44.09139" lon="6.23254">
        <ele>597.6</ele>
        <time>2021-09-10T12:55:24Z</time>
      </trkpt>
      <trkpt lat="44.09139" lon="6.23257">
        <ele>597.7</ele>
        <time>2021-09-10T12:55:26Z</time>
      </trkpt>
      <trkpt lat="44.09138" lon="6.23257">
        <ele>597.7</ele>
        <time>2021-09-10T12:55:28Z</time>
      </trkpt>
      <trkpt lat="44.09138" lon="6.23257">
        <ele>597.7</ele>
        <time>2021-09-10T12:55:29Z</time>
      </trkpt>
      <trkpt lat="44.09138" lon="6.23257">
        <ele>597.7</ele>
        <time>2021-09-10T12:55:30Z</time>
      </trkpt>
      <trkpt lat="44.09138" lon="6.23257">
        <ele>597.7</ele>
        <time>2021-09-10T12:55:32Z</time>
      </trkpt>
      <trkpt lat="44.09133" lon="6.23253">
        <ele>597.4</ele>
        <time>2021-09-10T12:55:34Z</time>
      </trkpt>
      <trkpt lat="44.09131" lon="6.23254">
        <ele>597.4</ele>
        <time>2021-09-10T12:55:35Z</time>
      </trkpt>
      <trkpt lat="44.09131" lon="6.23254">
        <ele>597.4</ele>
        <time>2021-09-10T12:55:37Z</time>
      </trkpt>
      <trkpt lat="44.0913" lon="6.23254">
        <ele>597.4</ele>
        <time>2021-09-10T12:55:39Z</time>
      </trkpt>
      <trkpt lat="44.0913" lon="6.23254">
        <ele>597.4</ele>
        <time>2021-09-10T12:55:40Z</time>
      </trkpt>
      <trkpt lat="44.09128" lon="6.23259">
        <ele>597.4</ele>
        <time>2021-09-10T12:55:42Z</time>
      </trkpt>
      <trkpt lat="44.09125" lon="6.23263">
        <ele>597.4</ele>
        <time>2021-09-10T12:55:43Z</time>
      </trkpt>
      <trkpt lat="44.09123" lon="6.23266">
        <ele>597.6</ele>
        <time>2021-09-10T12:55:44Z</time>
      </trkpt>
      <trkpt lat="44.09121" lon="6.23269">
        <ele>597.6</ele>
        <time>2021-09-10T12:55:46Z</time>
      </trkpt>
      <trkpt lat="44.09119" lon="6.2327">
        <ele>597.6</ele>
        <time>2021-09-10T12:55:47Z</time>
      </trkpt>
      <trkpt lat="44.09118" lon="6.23271">
        <ele>597.5</ele>
        <time>2021-09-10T12:55:49Z</time>
      </trkpt>
      <trkpt lat="44.09117" lon="6.23271">
        <ele>597.5</ele>
        <time>2021-09-10T12:55:50Z</time>
      </trkpt>
      <trkpt lat="44.09117" lon="6.23271">
        <ele>597.5</ele>
        <time>2021-09-10T12:55:51Z</time>
      </trkpt>
      <trkpt lat="44.09109" lon="6.23273">
        <ele>597.2</ele>
        <time>2021-09-10T12:55:53Z</time>
      </trkpt>
      <trkpt lat="44.09107" lon="6.23273">
        <ele>597</ele>
        <time>2021-09-10T12:55:55Z</time>
      </trkpt>
      <trkpt lat="44.09106" lon="6.23272">
        <ele>596.9</ele>
        <time>2021-09-10T12:55:56Z</time>
      </trkpt>
      <trkpt lat="44.09106" lon="6.23272">
        <ele>596.9</ele>
        <time>2021-09-10T12:55:57Z</time>
      </trkpt>
      <trkpt lat="44.09106" lon="6.23272">
        <ele>596.9</ele>
        <time>2021-09-10T12:55:58Z</time>
      </trkpt>
      <trkpt lat="44.09106" lon="6.23271">
        <ele>596.9</ele>
        <time>2021-09-10T12:56:00Z</time>
      </trkpt>
      <trkpt lat="44.09106" lon="6.23271">
        <ele>596.9</ele>
        <time>2021-09-10T12:56:01Z</time>
      </trkpt>
      <trkpt lat="44.09105" lon="6.23271">
        <ele>596.9</ele>
        <time>2021-09-10T12:56:03Z</time>
      </trkpt>
      <trkpt lat="44.09106" lon="6.23271">
        <ele>596.9</ele>
        <time>2021-09-10T12:56:04Z</time>
      </trkpt>
      <trkpt lat="44.09106" lon="6.2327">
        <ele>596.9</ele>
        <time>2021-09-10T12:56:05Z</time>
      </trkpt>
      <trkpt lat="44.09107" lon="6.23269">
        <ele>596.9</ele>
        <time>2021-09-10T12:56:07Z</time>
      </trkpt>
      <trkpt lat="44.09107" lon="6.23267">
        <ele>596.9</ele>
        <time>2021-09-10T12:56:09Z</time>
      </trkpt>
      <trkpt lat="44.09107" lon="6.23267">
        <ele>596.9</ele>
        <time>2021-09-10T12:56:10Z</time>
      </trkpt>
      <trkpt lat="44.09108" lon="6.23266">
        <ele>596.9</ele>
        <time>2021-09-10T12:56:11Z</time>
      </trkpt>
      <trkpt lat="44.09108" lon="6.23266">
        <ele>596.9</ele>
        <time>2021-09-10T12:56:12Z</time>
      </trkpt>
      <trkpt lat="44.09108" lon="6.23265">
        <ele>596.9</ele>
        <time>2021-09-10T12:56:14Z</time>
      </trkpt>
      <trkpt lat="44.09108" lon="6.23265">
        <ele>596.9</ele>
        <time>2021-09-10T12:56:16Z</time>
      </trkpt>
      <trkpt lat="44.09109" lon="6.23263">
        <ele>596.8</ele>
        <time>2021-09-10T12:56:17Z</time>
      </trkpt>
      <trkpt lat="44.09111" lon="6.23261">
        <ele>596.9</ele>
        <time>2021-09-10T12:56:18Z</time>
      </trkpt>
      <trkpt lat="44.09112" lon="6.2326">
        <ele>596.9</ele>
        <time>2021-09-10T12:56:19Z</time>
      </trkpt>
      <trkpt lat="44.09114" lon="6.23237">
        <ele>596.3</ele>
        <time>2021-09-10T12:56:20Z</time>
      </trkpt>
      <trkpt lat="44.09114" lon="6.23235">
        <ele>596.3</ele>
        <time>2021-09-10T12:56:21Z</time>
      </trkpt>
      <trkpt lat="44.09111" lon="6.2322">
        <ele>595.8</ele>
        <time>2021-09-10T12:56:23Z</time>
      </trkpt>
      <trkpt lat="44.09111" lon="6.23215">
        <ele>595.6</ele>
        <time>2021-09-10T12:56:24Z</time>
      </trkpt>
      <trkpt lat="44.09111" lon="6.23214">
        <ele>595.6</ele>
        <time>2021-09-10T12:56:25Z</time>
      </trkpt>
      <trkpt lat="44.09111" lon="6.23212">
        <ele>595.6</ele>
        <time>2021-09-10T12:56:26Z</time>
      </trkpt>
      <trkpt lat="44.0911" lon="6.23211">
        <ele>595.5</ele>
        <time>2021-09-10T12:56:28Z</time>
      </trkpt>
      <trkpt lat="44.0911" lon="6.23211">
        <ele>595.5</ele>
        <time>2021-09-10T12:56:30Z</time>
      </trkpt>
      <trkpt lat="44.0911" lon="6.23211">
        <ele>595.5</ele>
        <time>2021-09-10T12:56:31Z</time>
      </trkpt>
      <trkpt lat="44.0911" lon="6.23211">
        <ele>595.5</ele>
        <time>2021-09-10T12:56:32Z</time>
      </trkpt>
      <trkpt lat="44.09111" lon="6.23215">
        <ele>595.6</ele>
        <time>2021-09-10T12:56:34Z</time>
      </trkpt>
      <trkpt lat="44.09112" lon="6.23225">
        <ele>595.8</ele>
        <time>2021-09-10T12:56:36Z</time>
      </trkpt>
      <trkpt lat="44.09112" lon="6.2323">
        <ele>596</ele>
        <time>2021-09-10T12:56:37Z</time>
      </trkpt>
      <trkpt lat="44.09112" lon="6.23233">
        <ele>596</ele>
        <time>2021-09-10T12:56:39Z</time>
      </trkpt>
      <trkpt lat="44.09112" lon="6.23234">
        <ele>596.1</ele>
        <time>2021-09-10T12:56:41Z</time>
      </trkpt>
      <trkpt lat="44.09113" lon="6.2324">
        <ele>596.4</ele>
        <time>2021-09-10T12:56:43Z</time>
      </trkpt>
      <trkpt lat="44.09118" lon="6.23245">
        <ele>596.6</ele>
        <time>2021-09-10T12:56:44Z</time>
      </trkpt>
      <trkpt lat="44.09121" lon="6.23246">
        <ele>596.7</ele>
        <time>2021-09-10T12:56:45Z</time>
      </trkpt>
      <trkpt lat="44.09123" lon="6.23249">
        <ele>597</ele>
        <time>2021-09-10T12:56:47Z</time>
      </trkpt>
      <trkpt lat="44.09123" lon="6.2325">
        <ele>597</ele>
        <time>2021-09-10T12:56:48Z</time>
      </trkpt>
      <trkpt lat="44.09123" lon="6.23251">
        <ele>597.1</ele>
        <time>2021-09-10T12:56:49Z</time>
      </trkpt>
      <trkpt lat="44.09123" lon="6.23252">
        <ele>597.1</ele>
        <time>2021-09-10T12:56:51Z</time>
      </trkpt>
      <trkpt lat="44.09122" lon="6.23253">
        <ele>597.1</ele>
        <time>2021-09-10T12:56:52Z</time>
      </trkpt>
      <trkpt lat="44.09121" lon="6.23259">
        <ele>597.1</ele>
        <time>2021-09-10T12:56:54Z</time>
      </trkpt>
      <trkpt lat="44.0912" lon="6.23261">
        <ele>597.2</ele>
        <time>2021-09-10T12:56:56Z</time>
      </trkpt>
      <trkpt lat="44.0912" lon="6.23261">
        <ele>597.2</ele>
        <time>2021-09-10T12:56:57Z</time>
      </trkpt>
      <trkpt lat="44.0912" lon="6.23262">
        <ele>597.2</ele>
        <time>2021-09-10T12:56:58Z</time>
      </trkpt>
      <trkpt lat="44.0912" lon="6.23262">
        <ele>597.2</ele>
        <time>2021-09-10T12:56:59Z</time>
      </trkpt>
      <trkpt lat="44.0912" lon="6.23262">
        <ele>597.2</ele>
        <time>2021-09-10T12:57:00Z</time>
      </trkpt>
      <trkpt lat="44.0912" lon="6.23262">
        <ele>597.2</ele>
        <time>2021-09-10T12:57:02Z</time>
      </trkpt>
      <trkpt lat="44.0912" lon="6.23262">
        <ele>597.2</ele>
        <time>2021-09-10T12:57:04Z</time>
      </trkpt>
      <trkpt lat="44.0912" lon="6.23262">
        <ele>597.2</ele>
        <time>2021-09-10T12:57:05Z</time>
      </trkpt>
      <trkpt lat="44.0912" lon="6.23262">
        <ele>597.2</ele>
        <time>2021-09-10T12:57:06Z</time>
      </trkpt>
      <trkpt lat="44.0912" lon="6.23262">
        <ele>597.2</ele>
        <time>2021-09-10T12:57:07Z</time>
      </trkpt>
      <trkpt lat="44.09128" lon="6.23269">
        <ele>597.7</ele>
        <time>2021-09-10T12:57:09Z</time>
      </trkpt>
      <trkpt lat="44.09136" lon="6.23271">
        <ele>597.9</ele>
        <time>2021-09-10T12:57:10Z</time>
      </trkpt>
      <trkpt lat="44.09145" lon="6.23272">
        <ele>598</ele>
        <time>2021-09-10T12:57:11Z</time>
      </trkpt>
      <trkpt lat="44.09151" lon="6.23272">
        <ele>598.1</ele>
        <time>2021-09-10T12:57:12Z</time>
      </trkpt>
      <trkpt lat="44.09154" lon="6.23264">
        <ele>598</ele>
        <time>2021-09-10T12:57:14Z</time>
      </trkpt>
      <trkpt lat="44.09157" lon="6.23256">
        <ele>597.8</ele>
        <time>2021-09-10T12:57:16Z</time>
      </trkpt>
      <trkpt lat="44.09159" lon="6.23251">
        <ele>597.5</ele>
        <time>2021-09-10T12:57:17Z</time>
      </trkpt>
      <trkpt lat="44.09161" lon="6.23246">
        <ele>597.4</ele>
        <time>2021-09-10T12:57:18Z</time>
      </trkpt>
      <trkpt lat="44.09161" lon="6.23241">
        <ele>597.2</ele>
        <time>2021-09-10T12:57:20Z</time>
      </trkpt>
      <trkpt lat="44.09162" lon="6.23235">
        <ele>597.1</ele>
        <time>2021-09-10T12:57:22Z</time>
      </trkpt>
      <trkpt lat="44.09161" lon="6.2323">
        <ele>596.9</ele>
        <time>2021-09-10T12:57:23Z</time>
      </trkpt>
      <trkpt lat="44.09161" lon="6.23228">
        <ele>596.9</ele>
        <time>2021-09-10T12:57:24Z</time>
      </trkpt>
      <trkpt lat="44.0916" lon="6.23227">
        <ele>596.9</ele>
        <time>2021-09-10T12:57:25Z</time>
      </trkpt>
      <trkpt lat="44.09161" lon="6.23226">
        <ele>596.9</ele>
        <time>2021-09-10T12:57:26Z</time>
      </trkpt>
      <trkpt lat="44.09161" lon="6.23225">
        <ele>596.8</ele>
        <time>2021-09-10T12:57:28Z</time>
      </trkpt>
      <trkpt lat="44.09161" lon="6.23224">
        <ele>596.8</ele>
        <time>2021-09-10T12:57:29Z</time>
      </trkpt>
      <trkpt lat="44.09161" lon="6.23224">
        <ele>596.8</ele>
        <time>2021-09-10T12:57:31Z</time>
      </trkpt>
      <trkpt lat="44.09161" lon="6.23224">
        <ele>596.8</ele>
        <time>2021-09-10T12:57:32Z</time>
      </trkpt>
      <trkpt lat="44.09161" lon="6.23224">
        <ele>596.8</ele>
        <time>2021-09-10T12:57:34Z</time>
      </trkpt>
      <trkpt lat="44.09161" lon="6.23224">
        <ele>596.8</ele>
        <time>2021-09-10T12:57:36Z</time>
      </trkpt>
      <trkpt lat="44.09161" lon="6.23224">
        <ele>596.8</ele>
        <time>2021-09-10T12:57:37Z</time>
      </trkpt>
      <trkpt lat="44.09161" lon="6.23224">
        <ele>596.8</ele>
        <time>2021-09-10T12:57:39Z</time>
      </trkpt>
      <trkpt lat="44.09162" lon="6.23222">
        <ele>596.8</ele>
        <time>2021-09-10T12:57:40Z</time>
      </trkpt>
      <trkpt lat="44.09166" lon="6.23219">
        <ele>596.7</ele>
        <time>2021-09-10T12:57:42Z</time>
      </trkpt>
      <trkpt lat="44.09169" lon="6.23216">
        <ele>596.5</ele>
        <time>2021-09-10T12:57:43Z</time>
      </trkpt>
      <trkpt lat="44.09171" lon="6.23213">
        <ele>596.5</ele>
        <time>2021-09-10T12:57:44Z</time>
      </trkpt>
      <trkpt lat="44.09174" lon="6.23209">
        <ele>596.4</ele>
        <time>2021-09-10T12:57:46Z</time>
      </trkpt>
      <trkpt lat="44.0917" lon="6.2321">
        <ele>596.4</ele>
        <time>2021-09-10T12:57:48Z</time>
      </trkpt>
      <trkpt lat="44.09168" lon="6.23212">
        <ele>596.4</ele>
        <time>2021-09-10T12:57:49Z</time>
      </trkpt>
      <trkpt lat="44.09167" lon="6.23214">
        <ele>596.5</ele>
        <time>2021-09-10T12:57:51Z</time>
      </trkpt>
      <trkpt lat="44.09164" lon="6.23218">
        <ele>596.6</ele>
        <time>2021-09-10T12:57:52Z</time>
      </trkpt>
      <trkpt lat="44.09158" lon="6.23225">
        <ele>596.7</ele>
        <time>2021-09-10T12:57:54Z</time>
      </trkpt>
      <trkpt lat="44.09156" lon="6.23228">
        <ele>596.8</ele>
        <time>2021-09-10T12:57:56Z</time>
      </trkpt>
      <trkpt lat="44.09156" lon="6.2323">
        <ele>596.8</ele>
        <time>2021-09-10T12:57:57Z</time>
      </trkpt>
      <trkpt lat="44.09156" lon="6.23232">
        <ele>597</ele>
        <time>2021-09-10T12:57:59Z</time>
      </trkpt>
      <trkpt lat="44.09156" lon="6.23236">
        <ele>597.1</ele>
        <time>2021-09-10T12:58:01Z</time>
      </trkpt>
      <trkpt lat="44.09157" lon="6.23238">
        <ele>597.2</ele>
        <time>2021-09-10T12:58:03Z</time>
      </trkpt>
      <trkpt lat="44.09156" lon="6.2324">
        <ele>597.2</ele>
        <time>2021-09-10T12:58:04Z</time>
      </trkpt>
      <trkpt lat="44.09156" lon="6.2324">
        <ele>597.2</ele>
        <time>2021-09-10T12:58:05Z</time>
      </trkpt>
      <trkpt lat="44.09156" lon="6.2324">
        <ele>597.2</ele>
        <time>2021-09-10T12:58:06Z</time>
      </trkpt>
      <trkpt lat="44.09156" lon="6.2324">
        <ele>597.2</ele>
        <time>2021-09-10T12:58:07Z</time>
      </trkpt>
      <trkpt lat="44.09156" lon="6.2324">
        <ele>597.2</ele>
        <time>2021-09-10T12:58:09Z</time>
      </trkpt>
      <trkpt lat="44.09156" lon="6.2324">
        <ele>597.2</ele>
        <time>2021-09-10T12:58:10Z</time>
      </trkpt>
      <trkpt lat="44.09157" lon="6.23239">
        <ele>597.2</ele>
        <time>2021-09-10T12:58:12Z</time>
      </trkpt>
      <trkpt lat="44.09157" lon="6.23239">
        <ele>597.2</ele>
        <time>2021-09-10T12:58:13Z</time>
      </trkpt>
      <trkpt lat="44.09157" lon="6.23239">
        <ele>597.2</ele>
        <time>2021-09-10T12:58:14Z</time>
      </trkpt>
      <trkpt lat="44.09157" lon="6.23239">
        <ele>597.2</ele>
        <time>2021-09-10T12:58:16Z</time>
      </trkpt>
      <trkpt lat="44.09157" lon="6.23239">
        <ele>597.2</ele>
        <time>2021-09-10T12:58:17Z</time>
      </trkpt>
      <trkpt lat="44.0916" lon="6.23229">
        <ele>596.8</ele>
        <time>2021-09-10T12:58:19Z</time>
      </trkpt>
      <trkpt lat="44.09163" lon="6.23223">
        <ele>596.7</ele>
        <time>2021-09-10T12:58:21Z</time>
      </trkpt>
      <trkpt lat="44.09164" lon="6.23222">
        <ele>596.7</ele>
        <time>2021-09-10T12:58:23Z</time>
      </trkpt>
      <trkpt lat="44.09164" lon="6.23221">
        <ele>596.6</ele>
        <time>2021-09-10T12:58:24Z</time>
      </trkpt>
      <trkpt lat="44.09164" lon="6.23221">
        <ele>596.6</ele>
        <time>2021-09-10T12:58:25Z</time>
      </trkpt>
      <trkpt lat="44.09164" lon="6.23221">
        <ele>596.6</ele>
        <time>2021-09-10T12:58:27Z</time>
      </trkpt>
      <trkpt lat="44.09169" lon="6.23219">
        <ele>596.6</ele>
        <time>2021-09-10T12:58:29Z</time>
      </trkpt>
      <trkpt lat="44.09178" lon="6.23217">
        <ele>596.6</ele>
        <time>2021-09-10T12:58:30Z</time>
      </trkpt>
      <trkpt lat="44.09186" lon="6.23215">
        <ele>596.4</ele>
        <time>2021-09-10T12:58:32Z</time>
      </trkpt>
      <trkpt lat="44.09185" lon="6.23216">
        <ele>596.4</ele>
        <time>2021-09-10T12:58:33Z</time>
      </trkpt>
      <trkpt lat="44.0918" lon="6.23217">
        <ele>596.4</ele>
        <time>2021-09-10T12:58:35Z</time>
      </trkpt>
      <trkpt lat="44.09177" lon="6.23217">
        <ele>596.6</ele>
        <time>2021-09-10T12:58:36Z</time>
      </trkpt>
      <trkpt lat="44.09179" lon="6.23212">
        <ele>596.3</ele>
        <time>2021-09-10T12:58:38Z</time>
      </trkpt>
      <trkpt lat="44.09183" lon="6.23206">
        <ele>596.2</ele>
        <time>2021-09-10T12:58:39Z</time>
      </trkpt>
      <trkpt lat="44.09186" lon="6.23201">
        <ele>596</ele>
        <time>2021-09-10T12:58:40Z</time>
      </trkpt>
      <trkpt lat="44.0919" lon="6.23195">
        <ele>595.7</ele>
        <time>2021-09-10T12:58:41Z</time>
      </trkpt>
      <trkpt lat="44.09194" lon="6.23189">
        <ele>595.6</ele>
        <time>2021-09-10T12:58:42Z</time>
      </trkpt>
      <trkpt lat="44.09197" lon="6.23183">
        <ele>595.4</ele>
        <time>2021-09-10T12:58:43Z</time>
      </trkpt>
      <trkpt lat="44.09201" lon="6.23177">
        <ele>595.2</ele>
        <time>2021-09-10T12:58:45Z</time>
      </trkpt>
      <trkpt lat="44.09205" lon="6.23171">
        <ele>595</ele>
        <time>2021-09-10T12:58:46Z</time>
      </trkpt>
      <trkpt lat="44.09207" lon="6.23163">
        <ele>594.7</ele>
        <time>2021-09-10T12:58:48Z</time>
      </trkpt>
      <trkpt lat="44.09206" lon="6.23162">
        <ele>594.7</ele>
        <time>2021-09-10T12:58:49Z</time>
      </trkpt>
      <trkpt lat="44.09204" lon="6.23162">
        <ele>594.7</ele>
        <time>2021-09-10T12:58:50Z</time>
      </trkpt>
      <trkpt lat="44.09203" lon="6.23163">
        <ele>594.7</ele>
        <time>2021-09-10T12:58:51Z</time>
      </trkpt>
      <trkpt lat="44.09202" lon="6.23163">
        <ele>594.7</ele>
        <time>2021-09-10T12:58:53Z</time>
      </trkpt>
      <trkpt lat="44.09201" lon="6.23163">
        <ele>594.7</ele>
        <time>2021-09-10T12:58:54Z</time>
      </trkpt>
      <trkpt lat="44.092" lon="6.23163">
        <ele>594.7</ele>
        <time>2021-09-10T12:58:55Z</time>
      </trkpt>
      <trkpt lat="44.09199" lon="6.23164">
        <ele>594.8</ele>
        <time>2021-09-10T12:58:57Z</time>
      </trkpt>
      <trkpt lat="44.09196" lon="6.23166">
        <ele>594.9</ele>
        <time>2021-09-10T12:58:59Z</time>
      </trkpt>
      <trkpt lat="44.09193" lon="6.23169">
        <ele>595</ele>
        <time>2021-09-10T12:59:01Z</time>
      </trkpt>
      <trkpt lat="44.09183" lon="6.2318">
        <ele>595.4</ele>
        <time>2021-09-10T12:59:03Z</time>
      </trkpt>
      <trkpt lat="44.09175" lon="6.23189">
        <ele>595.7</ele>
        <time>2021-09-10T12:59:05Z</time>
      </trkpt>
      <trkpt lat="44.09171" lon="6.23193">
        <ele>595.8</ele>
        <time>2021-09-10T12:59:06Z</time>
      </trkpt>
      <trkpt lat="44.09168" lon="6.23196">
        <ele>595.9</ele>
        <time>2021-09-10T12:59:08Z</time>
      </trkpt>
      <trkpt lat="44.09172" lon="6.23203">
        <ele>596.1</ele>
        <time>2021-09-10T12:59:10Z</time>
      </trkpt>
      <trkpt lat="44.09171" lon="6.23202">
        <ele>596.1</ele>
        <time>2021-09-10T12:59:11Z</time>
      </trkpt>
      <trkpt lat="44.0917" lon="6.23202">
        <ele>596.1</ele>
        <time>2021-09-10T12:59:13Z</time>
      </trkpt>
      <trkpt lat="44.09174" lon="6.2321">
        <ele>596.3</ele>
        <time>2021-09-10T12:59:15Z</time>
      </trkpt>
      <trkpt lat="44.09172" lon="6.23214">
        <ele>596.4</ele>
        <time>2021-09-10T12:59:17Z</time>
      </trkpt>
      <trkpt lat="44.09171" lon="6.23215">
        <ele>596.4</ele>
        <time>2021-09-10T12:59:18Z</time>
      </trkpt>
      <trkpt lat="44.09167" lon="6.23221">
        <ele>596.6</ele>
        <time>2021-09-10T12:59:20Z</time>
      </trkpt>
      <trkpt lat="44.09167" lon="6.23222">
        <ele>596.6</ele>
        <time>2021-09-10T12:59:22Z</time>
      </trkpt>
      <trkpt lat="44.09169" lon="6.23217">
        <ele>596.5</ele>
        <time>2021-09-10T12:59:23Z</time>
      </trkpt>
      <trkpt lat="44.09172" lon="6.23213">
        <ele>596.4</ele>
        <time>2021-09-10T12:59:25Z</time>
      </trkpt>
      <trkpt lat="44.09173" lon="6.23213">
        <ele>596.4</ele>
        <time>2021-09-10T12:59:26Z</time>
      </trkpt>
      <trkpt lat="44.09175" lon="6.23212">
        <ele>596.3</ele>
        <time>2021-09-10T12:59:28Z</time>
      </trkpt>
      <trkpt lat="44.09177" lon="6.23212">
        <ele>596.3</ele>
        <time>2021-09-10T12:59:30Z</time>
      </trkpt>
      <trkpt lat="44.09178" lon="6.23211">
        <ele>596.2</ele>
        <time>2021-09-10T12:59:31Z</time>
      </trkpt>
      <trkpt lat="44.0918" lon="6.23211">
        <ele>596.2</ele>
        <time>2021-09-10T12:59:32Z</time>
      </trkpt>
      <trkpt lat="44.09188" lon="6.23202">
        <ele>595.9</ele>
        <time>2021-09-10T12:59:34Z</time>
      </trkpt>
      <trkpt lat="44.09194" lon="6.23195">
        <ele>595.6</ele>
        <time>2021-09-10T12:59:36Z</time>
      </trkpt>
      <trkpt lat="44.09198" lon="6.23189">
        <ele>595.5</ele>
        <time>2021-09-10T12:59:37Z</time>
      </trkpt>
      <trkpt lat="44.09201" lon="6.23186">
        <ele>595.3</ele>
        <time>2021-09-10T12:59:39Z</time>
      </trkpt>
      <trkpt lat="44.09202" lon="6.23183">
        <ele>595.3</ele>
        <time>2021-09-10T12:59:41Z</time>
      </trkpt>
      <trkpt lat="44.09197" lon="6.23185">
        <ele>595.4</ele>
        <time>2021-09-10T12:59:42Z</time>
      </trkpt>
      <trkpt lat="44.09193" lon="6.2319">
        <ele>595.5</ele>
        <time>2021-09-10T12:59:44Z</time>
      </trkpt>
      <trkpt lat="44.09191" lon="6.23192">
        <ele>595.7</ele>
        <time>2021-09-10T12:59:45Z</time>
      </trkpt>
      <trkpt lat="44.09189" lon="6.23195">
        <ele>595.8</ele>
        <time>2021-09-10T12:59:46Z</time>
      </trkpt>
      <trkpt lat="44.09131" lon="6.23233">
        <ele>596.4</ele>
        <time>2021-09-10T13:01:10Z</time>
      </trkpt>
      <trkpt lat="44.09129" lon="6.23235">
        <ele>596.5</ele>
        <time>2021-09-10T13:01:12Z</time>
      </trkpt>
      <trkpt lat="44.09129" lon="6.23236">
        <ele>596.5</ele>
        <time>2021-09-10T13:01:14Z</time>
      </trkpt>
      <trkpt lat="44.09129" lon="6.23236">
        <ele>596.5</ele>
        <time>2021-09-10T13:01:15Z</time>
      </trkpt>
      <trkpt lat="44.09129" lon="6.23236">
        <ele>596.5</ele>
        <time>2021-09-10T13:01:17Z</time>
      </trkpt>
      <trkpt lat="44.09129" lon="6.23236">
        <ele>596.5</ele>
        <time>2021-09-10T13:01:18Z</time>
      </trkpt>
      <trkpt lat="44.09129" lon="6.23236">
        <ele>596.5</ele>
        <time>2021-09-10T13:01:19Z</time>
      </trkpt>
      <trkpt lat="44.09129" lon="6.23236">
        <ele>596.5</ele>
        <time>2021-09-10T13:01:21Z</time>
      </trkpt>
      <trkpt lat="44.09132" lon="6.23234">
        <ele>596.5</ele>
        <time>2021-09-10T13:01:22Z</time>
      </trkpt>
      <trkpt lat="44.09135" lon="6.23231">
        <ele>596.6</ele>
        <time>2021-09-10T13:01:23Z</time>
      </trkpt>
      <trkpt lat="44.09137" lon="6.2323">
        <ele>596.6</ele>
        <time>2021-09-10T13:01:24Z</time>
      </trkpt>
      <trkpt lat="44.09141" lon="6.23229">
        <ele>596.6</ele>
        <time>2021-09-10T13:01:26Z</time>
      </trkpt>
      <trkpt lat="44.09144" lon="6.23228">
        <ele>596.6</ele>
        <time>2021-09-10T13:01:28Z</time>
      </trkpt>
      <trkpt lat="44.09145" lon="6.23227">
        <ele>596.6</ele>
        <time>2021-09-10T13:01:30Z</time>
      </trkpt>
      <trkpt lat="44.09144" lon="6.23226">
        <ele>596.6</ele>
        <time>2021-09-10T13:01:32Z</time>
      </trkpt>
      <trkpt lat="44.09145" lon="6.23224">
        <ele>596.5</ele>
        <time>2021-09-10T13:01:34Z</time>
      </trkpt>
      <trkpt lat="44.09145" lon="6.23224">
        <ele>596.5</ele>
        <time>2021-09-10T13:01:35Z</time>
      </trkpt>
      <trkpt lat="44.09145" lon="6.23224">
        <ele>596.5</ele>
        <time>2021-09-10T13:01:37Z</time>
      </trkpt>
      <trkpt lat="44.09144" lon="6.23221">
        <ele>596.4</ele>
        <time>2021-09-10T13:01:39Z</time>
      </trkpt>
      <trkpt lat="44.09143" lon="6.23218">
        <ele>596.3</ele>
        <time>2021-09-10T13:01:41Z</time>
      </trkpt>
      <trkpt lat="44.09144" lon="6.23218">
        <ele>596.4</ele>
        <time>2021-09-10T13:01:42Z</time>
      </trkpt>
      <trkpt lat="44.09145" lon="6.23218">
        <ele>596.4</ele>
        <time>2021-09-10T13:01:43Z</time>
      </trkpt>
      <trkpt lat="44.09146" lon="6.23218">
        <ele>596.4</ele>
        <time>2021-09-10T13:01:45Z</time>
      </trkpt>
      <trkpt lat="44.09147" lon="6.23218">
        <ele>596.4</ele>
        <time>2021-09-10T13:01:47Z</time>
      </trkpt>
      <trkpt lat="44.09148" lon="6.23218">
        <ele>596.4</ele>
        <time>2021-09-10T13:01:49Z</time>
      </trkpt>
      <trkpt lat="44.09149" lon="6.23218">
        <ele>596.4</ele>
        <time>2021-09-10T13:01:50Z</time>
      </trkpt>
      <trkpt lat="44.09153" lon="6.23218">
        <ele>596.4</ele>
        <time>2021-09-10T13:01:52Z</time>
      </trkpt>
      <trkpt lat="44.09155" lon="6.23219">
        <ele>596.4</ele>
        <time>2021-09-10T13:01:53Z</time>
      </trkpt>
      <trkpt lat="44.09156" lon="6.23219">
        <ele>596.4</ele>
        <time>2021-09-10T13:01:54Z</time>
      </trkpt>
      <trkpt lat="44.09158" lon="6.23218">
        <ele>596.4</ele>
        <time>2021-09-10T13:01:55Z</time>
      </trkpt>
      <trkpt lat="44.09159" lon="6.23219">
        <ele>596.4</ele>
        <time>2021-09-10T13:01:57Z</time>
      </trkpt>
      <trkpt lat="44.09159" lon="6.2322">
        <ele>596.4</ele>
        <time>2021-09-10T13:01:58Z</time>
      </trkpt>
      <trkpt lat="44.0916" lon="6.23221">
        <ele>596.4</ele>
        <time>2021-09-10T13:02:00Z</time>
      </trkpt>
      <trkpt lat="44.0916" lon="6.23221">
        <ele>596.5</ele>
        <time>2021-09-10T13:02:02Z</time>
      </trkpt>
      <trkpt lat="44.0916" lon="6.23221">
        <ele>596.5</ele>
        <time>2021-09-10T13:02:03Z</time>
      </trkpt>
      <trkpt lat="44.0916" lon="6.23221">
        <ele>596.5</ele>
        <time>2021-09-10T13:02:05Z</time>
      </trkpt>
      <trkpt lat="44.0916" lon="6.23221">
        <ele>596.5</ele>
        <time>2021-09-10T13:02:06Z</time>
      </trkpt>
      <trkpt lat="44.0916" lon="6.23221">
        <ele>596.5</ele>
        <time>2021-09-10T13:02:08Z</time>
      </trkpt>
      <trkpt lat="44.0916" lon="6.23222">
        <ele>596.5</ele>
        <time>2021-09-10T13:02:09Z</time>
      </trkpt>
      <trkpt lat="44.0916" lon="6.23222">
        <ele>596.5</ele>
        <time>2021-09-10T13:02:10Z</time>
      </trkpt>
      <trkpt lat="44.0916" lon="6.23222">
        <ele>596.5</ele>
        <time>2021-09-10T13:02:11Z</time>
      </trkpt>
      <trkpt lat="44.0916" lon="6.23222">
        <ele>596.5</ele>
        <time>2021-09-10T13:02:13Z</time>
      </trkpt>
      <trkpt lat="44.0916" lon="6.23223">
        <ele>596.5</ele>
        <time>2021-09-10T13:02:15Z</time>
      </trkpt>
      <trkpt lat="44.09161" lon="6.23224">
        <ele>596.5</ele>
        <time>2021-09-10T13:02:22Z</time>
      </trkpt>
      <trkpt lat="44.09163" lon="6.23261">
        <ele>597.6</ele>
        <time>2021-09-10T13:02:26Z</time>
      </trkpt>
      <trkpt lat="44.09163" lon="6.2326">
        <ele>597.6</ele>
        <time>2021-09-10T13:02:28Z</time>
      </trkpt>
      <trkpt lat="44.09162" lon="6.23259">
        <ele>597.4</ele>
        <time>2021-09-10T13:02:29Z</time>
      </trkpt>
      <trkpt lat="44.09162" lon="6.23258">
        <ele>597.4</ele>
        <time>2021-09-10T13:02:30Z</time>
      </trkpt>
      <trkpt lat="44.09161" lon="6.23257">
        <ele>597.4</ele>
        <time>2021-09-10T13:02:32Z</time>
      </trkpt>
      <trkpt lat="44.09161" lon="6.23256">
        <ele>597.4</ele>
        <time>2021-09-10T13:02:33Z</time>
      </trkpt>
      <trkpt lat="44.0916" lon="6.23255">
        <ele>597.3</ele>
        <time>2021-09-10T13:02:35Z</time>
      </trkpt>
      <trkpt lat="44.0916" lon="6.23254">
        <ele>597.3</ele>
        <time>2021-09-10T13:02:36Z</time>
      </trkpt>
      <trkpt lat="44.09159" lon="6.23253">
        <ele>597.3</ele>
        <time>2021-09-10T13:02:38Z</time>
      </trkpt>
      <trkpt lat="44.09159" lon="6.23252">
        <ele>597.3</ele>
        <time>2021-09-10T13:02:42Z</time>
      </trkpt>
      <trkpt lat="44.09158" lon="6.23251">
        <ele>597.3</ele>
        <time>2021-09-10T13:02:45Z</time>
      </trkpt>
      <trkpt lat="44.09158" lon="6.2325">
        <ele>597.2</ele>
        <time>2021-09-10T13:02:47Z</time>
      </trkpt>
      <trkpt lat="44.09157" lon="6.23249">
        <ele>597.2</ele>
        <time>2021-09-10T13:02:48Z</time>
      </trkpt>
      <trkpt lat="44.09157" lon="6.23248">
        <ele>597.2</ele>
        <time>2021-09-10T13:02:49Z</time>
      </trkpt>
      <trkpt lat="44.09156" lon="6.23247">
        <ele>597.2</ele>
        <time>2021-09-10T13:02:51Z</time>
      </trkpt>
      <trkpt lat="44.09156" lon="6.23246">
        <ele>597</ele>
        <time>2021-09-10T13:02:52Z</time>
      </trkpt>
      <trkpt lat="44.09155" lon="6.23245">
        <ele>597</ele>
        <time>2021-09-10T13:02:53Z</time>
      </trkpt>
      <trkpt lat="44.09155" lon="6.23244">
        <ele>597</ele>
        <time>2021-09-10T13:02:55Z</time>
      </trkpt>
      <trkpt lat="44.09154" lon="6.23243">
        <ele>597</ele>
        <time>2021-09-10T13:02:57Z</time>
      </trkpt>
      <trkpt lat="44.09154" lon="6.23242">
        <ele>596.9</ele>
        <time>2021-09-10T13:02:58Z</time>
      </trkpt>
      <trkpt lat="44.09153" lon="6.23241">
        <ele>596.9</ele>
        <time>2021-09-10T13:02:59Z</time>
      </trkpt>
      <trkpt lat="44.09153" lon="6.2324">
        <ele>596.9</ele>
        <time>2021-09-10T13:03:00Z</time>
      </trkpt>
      <trkpt lat="44.09152" lon="6.23239">
        <ele>596.9</ele>
        <time>2021-09-10T13:03:02Z</time>
      </trkpt>
      <trkpt lat="44.09151" lon="6.23238">
        <ele>596.8</ele>
        <time>2021-09-10T13:03:03Z</time>
      </trkpt>
      <trkpt lat="44.09151" lon="6.23237">
        <ele>596.8</ele>
        <time>2021-09-10T13:03:04Z</time>
      </trkpt>
      <trkpt lat="44.0915" lon="6.23236">
        <ele>596.8</ele>
        <time>2021-09-10T13:03:05Z</time>
      </trkpt>
      <trkpt lat="44.0915" lon="6.23235">
        <ele>596.7</ele>
        <time>2021-09-10T13:03:06Z</time>
      </trkpt>
      <trkpt lat="44.09149" lon="6.23234">
        <ele>596.6</ele>
        <time>2021-09-10T13:03:08Z</time>
      </trkpt>
      <trkpt lat="44.09149" lon="6.23233">
        <ele>596.6</ele>
        <time>2021-09-10T13:03:09Z</time>
      </trkpt>
      <trkpt lat="44.09148" lon="6.23232">
        <ele>596.6</ele>
        <time>2021-09-10T13:03:11Z</time>
      </trkpt>
      <trkpt lat="44.09148" lon="6.23231">
        <ele>596.6</ele>
        <time>2021-09-10T13:03:13Z</time>
      </trkpt>
      <trkpt lat="44.09147" lon="6.23229">
        <ele>596.5</ele>
        <time>2021-09-10T13:03:15Z</time>
      </trkpt>
      <trkpt lat="44.09147" lon="6.23229">
        <ele>596.5</ele>
        <time>2021-09-10T13:03:16Z</time>
      </trkpt>
      <trkpt lat="44.09146" lon="6.23228">
        <ele>596.5</ele>
        <time>2021-09-10T13:03:17Z</time>
      </trkpt>
      <trkpt lat="44.09144" lon="6.23228">
        <ele>596.5</ele>
        <time>2021-09-10T13:03:19Z</time>
      </trkpt>
      <trkpt lat="44.09145" lon="6.23227">
        <ele>596.5</ele>
        <time>2021-09-10T13:03:20Z</time>
      </trkpt>
      <trkpt lat="44.09146" lon="6.23226">
        <ele>596.5</ele>
        <time>2021-09-10T13:03:21Z</time>
      </trkpt>
      <trkpt lat="44.0915" lon="6.23222">
        <ele>596.4</ele>
        <time>2021-09-10T13:03:23Z</time>
      </trkpt>
      <trkpt lat="44.09153" lon="6.2322">
        <ele>596.3</ele>
        <time>2021-09-10T13:03:25Z</time>
      </trkpt>
      <trkpt lat="44.09155" lon="6.23219">
        <ele>596.3</ele>
        <time>2021-09-10T13:03:26Z</time>
      </trkpt>
      <trkpt lat="44.09164" lon="6.23215">
        <ele>596.2</ele>
        <time>2021-09-10T13:03:28Z</time>
      </trkpt>
      <trkpt lat="44.09168" lon="6.23213">
        <ele>596.2</ele>
        <time>2021-09-10T13:03:29Z</time>
      </trkpt>
      <trkpt lat="44.09173" lon="6.23211">
        <ele>596.1</ele>
        <time>2021-09-10T13:03:30Z</time>
      </trkpt>
      <trkpt lat="44.09184" lon="6.23205">
        <ele>595.9</ele>
        <time>2021-09-10T13:03:32Z</time>
      </trkpt>
      <trkpt lat="44.09187" lon="6.23204">
        <ele>595.9</ele>
        <time>2021-09-10T13:03:34Z</time>
      </trkpt>
      <trkpt lat="44.09187" lon="6.23204">
        <ele>595.9</ele>
        <time>2021-09-10T13:03:35Z</time>
      </trkpt>
      <trkpt lat="44.09187" lon="6.23204">
        <ele>595.9</ele>
        <time>2021-09-10T13:03:36Z</time>
      </trkpt>
      <trkpt lat="44.09187" lon="6.23204">
        <ele>595.9</ele>
        <time>2021-09-10T13:03:38Z</time>
      </trkpt>
      <trkpt lat="44.09187" lon="6.23204">
        <ele>595.9</ele>
        <time>2021-09-10T13:03:39Z</time>
      </trkpt>
      <trkpt lat="44.09187" lon="6.23204">
        <ele>595.9</ele>
        <time>2021-09-10T13:03:40Z</time>
      </trkpt>
      <trkpt lat="44.09187" lon="6.23204">
        <ele>595.8</ele>
        <time>2021-09-10T13:03:42Z</time>
      </trkpt>
      <trkpt lat="44.09187" lon="6.23204">
        <ele>595.8</ele>
        <time>2021-09-10T13:03:43Z</time>
      </trkpt>
      <trkpt lat="44.09188" lon="6.23204">
        <ele>595.7</ele>
        <time>2021-09-10T13:03:45Z</time>
      </trkpt>
      <trkpt lat="44.09188" lon="6.23204">
        <ele>595.7</ele>
        <time>2021-09-10T13:03:46Z</time>
      </trkpt>
      <trkpt lat="44.09188" lon="6.23204">
        <ele>595.7</ele>
        <time>2021-09-10T13:03:48Z</time>
      </trkpt>
      <trkpt lat="44.09188" lon="6.23204">
        <ele>595.7</ele>
        <time>2021-09-10T13:03:49Z</time>
      </trkpt>
      <trkpt lat="44.09181" lon="6.23191">
        <ele>595.5</ele>
        <time>2021-09-10T13:03:51Z</time>
      </trkpt>
      <trkpt lat="44.09179" lon="6.2319">
        <ele>595.4</ele>
        <time>2021-09-10T13:03:52Z</time>
      </trkpt>
      <trkpt lat="44.09177" lon="6.23188">
        <ele>595.4</ele>
        <time>2021-09-10T13:03:53Z</time>
      </trkpt>
      <trkpt lat="44.09173" lon="6.23187">
        <ele>595.4</ele>
        <time>2021-09-10T13:03:55Z</time>
      </trkpt>
      <trkpt lat="44.09173" lon="6.23186">
        <ele>595.3</ele>
        <time>2021-09-10T13:03:56Z</time>
      </trkpt>
      <trkpt lat="44.09173" lon="6.23184">
        <ele>595.3</ele>
        <time>2021-09-10T13:03:57Z</time>
      </trkpt>
      <trkpt lat="44.09172" lon="6.23183">
        <ele>595.3</ele>
        <time>2021-09-10T13:03:58Z</time>
      </trkpt>
      <trkpt lat="44.09172" lon="6.23181">
        <ele>595.2</ele>
        <time>2021-09-10T13:04:00Z</time>
      </trkpt>
      <trkpt lat="44.09172" lon="6.2318">
        <ele>595.2</ele>
        <time>2021-09-10T13:04:02Z</time>
      </trkpt>
      <trkpt lat="44.09172" lon="6.23179">
        <ele>595.2</ele>
        <time>2021-09-10T13:04:03Z</time>
      </trkpt>
      <trkpt lat="44.09171" lon="6.23177">
        <ele>595</ele>
        <time>2021-09-10T13:04:04Z</time>
      </trkpt>
      <trkpt lat="44.09171" lon="6.23176">
        <ele>595</ele>
        <time>2021-09-10T13:04:05Z</time>
      </trkpt>
      <trkpt lat="44.09166" lon="6.23164">
        <ele>594.6</ele>
        <time>2021-09-10T13:04:06Z</time>
      </trkpt>
      <trkpt lat="44.09151" lon="6.23146">
        <ele>593.8</ele>
        <time>2021-09-10T13:04:08Z</time>
      </trkpt>
      <trkpt lat="44.09141" lon="6.23135">
        <ele>593.3</ele>
        <time>2021-09-10T13:04:09Z</time>
      </trkpt>
      <trkpt lat="44.09136" lon="6.23128">
        <ele>592.8</ele>
        <time>2021-09-10T13:04:10Z</time>
      </trkpt>
      <trkpt lat="44.09137" lon="6.23128">
        <ele>592.8</ele>
        <time>2021-09-10T13:04:11Z</time>
      </trkpt>
      <trkpt lat="44.09137" lon="6.23128">
        <ele>592.8</ele>
        <time>2021-09-10T13:04:12Z</time>
      </trkpt>
      <trkpt lat="44.09137" lon="6.23129">
        <ele>592.8</ele>
        <time>2021-09-10T13:04:13Z</time>
      </trkpt>
      <trkpt lat="44.09138" lon="6.23129">
        <ele>592.8</ele>
        <time>2021-09-10T13:04:15Z</time>
      </trkpt>
      <trkpt lat="44.09138" lon="6.23129">
        <ele>592.8</ele>
        <time>2021-09-10T13:04:16Z</time>
      </trkpt>
      <trkpt lat="44.09138" lon="6.23129">
        <ele>592.8</ele>
        <time>2021-09-10T13:04:17Z</time>
      </trkpt>
      <trkpt lat="44.09139" lon="6.23129">
        <ele>592.8</ele>
        <time>2021-09-10T13:04:18Z</time>
      </trkpt>
      <trkpt lat="44.09139" lon="6.23129">
        <ele>592.8</ele>
        <time>2021-09-10T13:04:20Z</time>
      </trkpt>
      <trkpt lat="44.09139" lon="6.23129">
        <ele>592.8</ele>
        <time>2021-09-10T13:04:22Z</time>
      </trkpt>
      <trkpt lat="44.0914" lon="6.2313">
        <ele>592.8</ele>
        <time>2021-09-10T13:04:23Z</time>
      </trkpt>
      <trkpt lat="44.0914" lon="6.2313">
        <ele>592.8</ele>
        <time>2021-09-10T13:04:24Z</time>
      </trkpt>
      <trkpt lat="44.0914" lon="6.2313">
        <ele>592.8</ele>
        <time>2021-09-10T13:04:26Z</time>
      </trkpt>
      <trkpt lat="44.0914" lon="6.2313">
        <ele>592.8</ele>
        <time>2021-09-10T13:04:27Z</time>
      </trkpt>
      <trkpt lat="44.09141" lon="6.2313">
        <ele>592.9</ele>
        <time>2021-09-10T13:04:28Z</time>
      </trkpt>
      <trkpt lat="44.09141" lon="6.2313">
        <ele>592.9</ele>
        <time>2021-09-10T13:04:29Z</time>
      </trkpt>
      <trkpt lat="44.09145" lon="6.23133">
        <ele>593.1</ele>
        <time>2021-09-10T13:04:31Z</time>
      </trkpt>
      <trkpt lat="44.09148" lon="6.23136">
        <ele>593.4</ele>
        <time>2021-09-10T13:04:32Z</time>
      </trkpt>
      <trkpt lat="44.0915" lon="6.23141">
        <ele>593.5</ele>
        <time>2021-09-10T13:04:34Z</time>
      </trkpt>
      <trkpt lat="44.09151" lon="6.23145">
        <ele>593.7</ele>
        <time>2021-09-10T13:04:35Z</time>
      </trkpt>
      <trkpt lat="44.09152" lon="6.2315">
        <ele>593.9</ele>
        <time>2021-09-10T13:04:36Z</time>
      </trkpt>
      <trkpt lat="44.09152" lon="6.23152">
        <ele>593.9</ele>
        <time>2021-09-10T13:04:37Z</time>
      </trkpt>
      <trkpt lat="44.09152" lon="6.23167">
        <ele>594.6</ele>
        <time>2021-09-10T13:04:39Z</time>
      </trkpt>
      <trkpt lat="44.09153" lon="6.23176">
        <ele>594.9</ele>
        <time>2021-09-10T13:04:40Z</time>
      </trkpt>
      <trkpt lat="44.09154" lon="6.23185">
        <ele>595.2</ele>
        <time>2021-09-10T13:04:42Z</time>
      </trkpt>
      <trkpt lat="44.09155" lon="6.23189">
        <ele>595.3</ele>
        <time>2021-09-10T13:04:43Z</time>
      </trkpt>
      <trkpt lat="44.09155" lon="6.23191">
        <ele>595.3</ele>
        <time>2021-09-10T13:04:44Z</time>
      </trkpt>
      <trkpt lat="44.09158" lon="6.23193">
        <ele>595.4</ele>
        <time>2021-09-10T13:04:46Z</time>
      </trkpt>
      <trkpt lat="44.09159" lon="6.23193">
        <ele>595.5</ele>
        <time>2021-09-10T13:04:47Z</time>
      </trkpt>
      <trkpt lat="44.0916" lon="6.23194">
        <ele>595.4</ele>
        <time>2021-09-10T13:04:48Z</time>
      </trkpt>
      <trkpt lat="44.09161" lon="6.23194">
        <ele>595.4</ele>
        <time>2021-09-10T13:04:49Z</time>
      </trkpt>
      <trkpt lat="44.09162" lon="6.23194">
        <ele>595.4</ele>
        <time>2021-09-10T13:04:50Z</time>
      </trkpt>
      <trkpt lat="44.09162" lon="6.23195">
        <ele>595.4</ele>
        <time>2021-09-10T13:04:52Z</time>
      </trkpt>
      <trkpt lat="44.09163" lon="6.23195">
        <ele>595.5</ele>
        <time>2021-09-10T13:04:53Z</time>
      </trkpt>
      <trkpt lat="44.09165" lon="6.23196">
        <ele>595.6</ele>
        <time>2021-09-10T13:04:55Z</time>
      </trkpt>
      <trkpt lat="44.09166" lon="6.23196">
        <ele>595.6</ele>
        <time>2021-09-10T13:04:56Z</time>
      </trkpt>
      <trkpt lat="44.09168" lon="6.23197">
        <ele>595.6</ele>
        <time>2021-09-10T13:04:58Z</time>
      </trkpt>
      <trkpt lat="44.0917" lon="6.23199">
        <ele>595.6</ele>
        <time>2021-09-10T13:04:59Z</time>
      </trkpt>
      <trkpt lat="44.09169" lon="6.23205">
        <ele>595.8</ele>
        <time>2021-09-10T13:05:01Z</time>
      </trkpt>
      <trkpt lat="44.09168" lon="6.23216">
        <ele>596.1</ele>
        <time>2021-09-10T13:05:02Z</time>
      </trkpt>
      <trkpt lat="44.09165" lon="6.2323">
        <ele>596.5</ele>
        <time>2021-09-10T13:05:03Z</time>
      </trkpt>
      <trkpt lat="44.09163" lon="6.23239">
        <ele>596.7</ele>
        <time>2021-09-10T13:05:05Z</time>
      </trkpt>
      <trkpt lat="44.09162" lon="6.23245">
        <ele>596.8</ele>
        <time>2021-09-10T13:05:06Z</time>
      </trkpt>
      <trkpt lat="44.09161" lon="6.23249">
        <ele>597</ele>
        <time>2021-09-10T13:05:07Z</time>
      </trkpt>
      <trkpt lat="44.0916" lon="6.23255">
        <ele>597.2</ele>
        <time>2021-09-10T13:05:09Z</time>
      </trkpt>
      <trkpt lat="44.09159" lon="6.23263">
        <ele>597.3</ele>
        <time>2021-09-10T13:05:10Z</time>
      </trkpt>
      <trkpt lat="44.09157" lon="6.2327">
        <ele>597.6</ele>
        <time>2021-09-10T13:05:11Z</time>
      </trkpt>
      <trkpt lat="44.09154" lon="6.23281">
        <ele>597.8</ele>
        <time>2021-09-10T13:05:13Z</time>
      </trkpt>
      <trkpt lat="44.09151" lon="6.23292">
        <ele>598.1</ele>
        <time>2021-09-10T13:05:15Z</time>
      </trkpt>
      <trkpt lat="44.09154" lon="6.23303">
        <ele>598.4</ele>
        <time>2021-09-10T13:05:17Z</time>
      </trkpt>
      <trkpt lat="44.09155" lon="6.2331">
        <ele>598.6</ele>
        <time>2021-09-10T13:05:18Z</time>
      </trkpt>
      <trkpt lat="44.09156" lon="6.23319">
        <ele>598.8</ele>
        <time>2021-09-10T13:05:19Z</time>
      </trkpt>
      <trkpt lat="44.09157" lon="6.23326">
        <ele>599</ele>
        <time>2021-09-10T13:05:21Z</time>
      </trkpt>
      <trkpt lat="44.09157" lon="6.23332">
        <ele>599.2</ele>
        <time>2021-09-10T13:05:22Z</time>
      </trkpt>
      <trkpt lat="44.0916" lon="6.23341">
        <ele>599.5</ele>
        <time>2021-09-10T13:05:24Z</time>
      </trkpt>
      <trkpt lat="44.09164" lon="6.23353">
        <ele>600</ele>
        <time>2021-09-10T13:05:25Z</time>
      </trkpt>
      <trkpt lat="44.09167" lon="6.23363">
        <ele>600.5</ele>
        <time>2021-09-10T13:05:27Z</time>
      </trkpt>
      <trkpt lat="44.09169" lon="6.23371">
        <ele>600.8</ele>
        <time>2021-09-10T13:05:28Z</time>
      </trkpt>
      <trkpt lat="44.09171" lon="6.23379">
        <ele>600.9</ele>
        <time>2021-09-10T13:05:29Z</time>
      </trkpt>
      <trkpt lat="44.09175" lon="6.23391">
        <ele>601.5</ele>
        <time>2021-09-10T13:05:31Z</time>
      </trkpt>
      <trkpt lat="44.0918" lon="6.23404">
        <ele>602.1</ele>
        <time>2021-09-10T13:05:32Z</time>
      </trkpt>
      <trkpt lat="44.09186" lon="6.23419">
        <ele>603.1</ele>
        <time>2021-09-10T13:05:34Z</time>
      </trkpt>
      <trkpt lat="44.09192" lon="6.23433">
        <ele>603.9</ele>
        <time>2021-09-10T13:05:36Z</time>
      </trkpt>
      <trkpt lat="44.09196" lon="6.23443">
        <ele>604.4</ele>
        <time>2021-09-10T13:05:37Z</time>
      </trkpt>
      <trkpt lat="44.09199" lon="6.23451">
        <ele>604.8</ele>
        <time>2021-09-10T13:05:39Z</time>
      </trkpt>
      <trkpt lat="44.092" lon="6.23453">
        <ele>605</ele>
        <time>2021-09-10T13:05:41Z</time>
      </trkpt>
      <trkpt lat="44.092" lon="6.23455">
        <ele>605</ele>
        <time>2021-09-10T13:05:42Z</time>
      </trkpt>
      <trkpt lat="44.09203" lon="6.23462">
        <ele>605.3</ele>
        <time>2021-09-10T13:05:44Z</time>
      </trkpt>
      <trkpt lat="44.09212" lon="6.23476">
        <ele>605.7</ele>
        <time>2021-09-10T13:05:45Z</time>
      </trkpt>
      <trkpt lat="44.09219" lon="6.23487">
        <ele>605.6</ele>
        <time>2021-09-10T13:05:47Z</time>
      </trkpt>
      <trkpt lat="44.09222" lon="6.23493">
        <ele>605.8</ele>
        <time>2021-09-10T13:05:48Z</time>
      </trkpt>
      <trkpt lat="44.09225" lon="6.23497">
        <ele>605.9</ele>
        <time>2021-09-10T13:05:49Z</time>
      </trkpt>
      <trkpt lat="44.09227" lon="6.23501">
        <ele>605.9</ele>
        <time>2021-09-10T13:05:50Z</time>
      </trkpt>
      <trkpt lat="44.0923" lon="6.23505">
        <ele>606.1</ele>
        <time>2021-09-10T13:05:51Z</time>
      </trkpt>
      <trkpt lat="44.09233" lon="6.23509">
        <ele>606.2</ele>
        <time>2021-09-10T13:05:52Z</time>
      </trkpt>
      <trkpt lat="44.09238" lon="6.23514">
        <ele>606.1</ele>
        <time>2021-09-10T13:05:54Z</time>
      </trkpt>
      <trkpt lat="44.09248" lon="6.2352">
        <ele>605.9</ele>
        <time>2021-09-10T13:05:56Z</time>
      </trkpt>
      <trkpt lat="44.09256" lon="6.23525">
        <ele>605.6</ele>
        <time>2021-09-10T13:05:57Z</time>
      </trkpt>
      <trkpt lat="44.09265" lon="6.23534">
        <ele>605.5</ele>
        <time>2021-09-10T13:05:59Z</time>
      </trkpt>
      <trkpt lat="44.09272" lon="6.23544">
        <ele>605.5</ele>
        <time>2021-09-10T13:06:01Z</time>
      </trkpt>
      <trkpt lat="44.09279" lon="6.23554">
        <ele>605.4</ele>
        <time>2021-09-10T13:06:02Z</time>
      </trkpt>
      <trkpt lat="44.09283" lon="6.23561">
        <ele>605.4</ele>
        <time>2021-09-10T13:06:04Z</time>
      </trkpt>
      <trkpt lat="44.09287" lon="6.23567">
        <ele>605.4</ele>
        <time>2021-09-10T13:06:05Z</time>
      </trkpt>
      <trkpt lat="44.09292" lon="6.23576">
        <ele>605.5</ele>
        <time>2021-09-10T13:06:07Z</time>
      </trkpt>
      <trkpt lat="44.09296" lon="6.23586">
        <ele>605.4</ele>
        <time>2021-09-10T13:06:08Z</time>
      </trkpt>
      <trkpt lat="44.09298" lon="6.23593">
        <ele>605.3</ele>
        <time>2021-09-10T13:06:10Z</time>
      </trkpt>
      <trkpt lat="44.093" lon="6.23598">
        <ele>605.3</ele>
        <time>2021-09-10T13:06:11Z</time>
      </trkpt>
      <trkpt lat="44.09303" lon="6.23604">
        <ele>605.3</ele>
        <time>2021-09-10T13:06:12Z</time>
      </trkpt>
      <trkpt lat="44.09307" lon="6.23611">
        <ele>604.9</ele>
        <time>2021-09-10T13:06:14Z</time>
      </trkpt>
      <trkpt lat="44.09313" lon="6.23618">
        <ele>604.8</ele>
        <time>2021-09-10T13:06:16Z</time>
      </trkpt>
      <trkpt lat="44.09316" lon="6.23627">
        <ele>604.6</ele>
        <time>2021-09-10T13:06:18Z</time>
      </trkpt>
      <trkpt lat="44.09319" lon="6.23635">
        <ele>604.3</ele>
        <time>2021-09-10T13:06:19Z</time>
      </trkpt>
      <trkpt lat="44.09322" lon="6.2364">
        <ele>603.9</ele>
        <time>2021-09-10T13:06:21Z</time>
      </trkpt>
      <trkpt lat="44.09324" lon="6.23643">
        <ele>603.6</ele>
        <time>2021-09-10T13:06:22Z</time>
      </trkpt>
      <trkpt lat="44.09326" lon="6.23647">
        <ele>603.2</ele>
        <time>2021-09-10T13:06:23Z</time>
      </trkpt>
      <trkpt lat="44.09329" lon="6.2365">
        <ele>603.2</ele>
        <time>2021-09-10T13:06:24Z</time>
      </trkpt>
      <trkpt lat="44.09332" lon="6.23658">
        <ele>602.5</ele>
        <time>2021-09-10T13:06:26Z</time>
      </trkpt>
      <trkpt lat="44.09335" lon="6.23667">
        <ele>602.7</ele>
        <time>2021-09-10T13:06:28Z</time>
      </trkpt>
      <trkpt lat="44.09338" lon="6.23677">
        <ele>602.7</ele>
        <time>2021-09-10T13:06:30Z</time>
      </trkpt>
      <trkpt lat="44.09342" lon="6.23685">
        <ele>602.3</ele>
        <time>2021-09-10T13:06:31Z</time>
      </trkpt>
      <trkpt lat="44.09345" lon="6.23691">
        <ele>602.2</ele>
        <time>2021-09-10T13:06:33Z</time>
      </trkpt>
      <trkpt lat="44.09347" lon="6.23695">
        <ele>602.4</ele>
        <time>2021-09-10T13:06:34Z</time>
      </trkpt>
      <trkpt lat="44.09349" lon="6.23704">
        <ele>602.6</ele>
        <time>2021-09-10T13:06:36Z</time>
      </trkpt>
      <trkpt lat="44.09351" lon="6.23707">
        <ele>602.6</ele>
        <time>2021-09-10T13:06:37Z</time>
      </trkpt>
      <trkpt lat="44.09354" lon="6.23708">
        <ele>602.4</ele>
        <time>2021-09-10T13:06:38Z</time>
      </trkpt>
      <trkpt lat="44.09357" lon="6.23713">
        <ele>602.4</ele>
        <time>2021-09-10T13:06:39Z</time>
      </trkpt>
      <trkpt lat="44.09358" lon="6.23719">
        <ele>602.9</ele>
        <time>2021-09-10T13:06:41Z</time>
      </trkpt>
      <trkpt lat="44.09361" lon="6.23724">
        <ele>602.8</ele>
        <time>2021-09-10T13:06:43Z</time>
      </trkpt>
      <trkpt lat="44.09364" lon="6.23729">
        <ele>602.8</ele>
        <time>2021-09-10T13:06:44Z</time>
      </trkpt>
      <trkpt lat="44.09365" lon="6.23732">
        <ele>602.8</ele>
        <time>2021-09-10T13:06:45Z</time>
      </trkpt>
      <trkpt lat="44.09367" lon="6.23737">
        <ele>602.8</ele>
        <time>2021-09-10T13:06:47Z</time>
      </trkpt>
      <trkpt lat="44.09369" lon="6.23743">
        <ele>602.9</ele>
        <time>2021-09-10T13:06:48Z</time>
      </trkpt>
      <trkpt lat="44.09372" lon="6.23752">
        <ele>603</ele>
        <time>2021-09-10T13:06:50Z</time>
      </trkpt>
      <trkpt lat="44.09376" lon="6.2376">
        <ele>603.1</ele>
        <time>2021-09-10T13:06:52Z</time>
      </trkpt>
      <trkpt lat="44.0938" lon="6.23769">
        <ele>603.3</ele>
        <time>2021-09-10T13:06:54Z</time>
      </trkpt>
      <trkpt lat="44.09382" lon="6.23775">
        <ele>603.4</ele>
        <time>2021-09-10T13:06:55Z</time>
      </trkpt>
      <trkpt lat="44.09384" lon="6.23779">
        <ele>603.5</ele>
        <time>2021-09-10T13:06:56Z</time>
      </trkpt>
      <trkpt lat="44.09387" lon="6.23785">
        <ele>603.6</ele>
        <time>2021-09-10T13:06:57Z</time>
      </trkpt>
      <trkpt lat="44.09389" lon="6.23789">
        <ele>603.8</ele>
        <time>2021-09-10T13:06:59Z</time>
      </trkpt>
      <trkpt lat="44.09391" lon="6.23794">
        <ele>603.9</ele>
        <time>2021-09-10T13:07:00Z</time>
      </trkpt>
      <trkpt lat="44.09393" lon="6.238">
        <ele>604</ele>
        <time>2021-09-10T13:07:01Z</time>
      </trkpt>
      <trkpt lat="44.09395" lon="6.23806">
        <ele>604.2</ele>
        <time>2021-09-10T13:07:03Z</time>
      </trkpt>
      <trkpt lat="44.09399" lon="6.23812">
        <ele>604.8</ele>
        <time>2021-09-10T13:07:05Z</time>
      </trkpt>
      <trkpt lat="44.09401" lon="6.23816">
        <ele>604.9</ele>
        <time>2021-09-10T13:07:06Z</time>
      </trkpt>
      <trkpt lat="44.09403" lon="6.23822">
        <ele>605</ele>
        <time>2021-09-10T13:07:07Z</time>
      </trkpt>
      <trkpt lat="44.09406" lon="6.23828">
        <ele>605.1</ele>
        <time>2021-09-10T13:07:09Z</time>
      </trkpt>
      <trkpt lat="44.0941" lon="6.23836">
        <ele>605.3</ele>
        <time>2021-09-10T13:07:11Z</time>
      </trkpt>
      <trkpt lat="44.09412" lon="6.2384">
        <ele>605.4</ele>
        <time>2021-09-10T13:07:12Z</time>
      </trkpt>
      <trkpt lat="44.09414" lon="6.23844">
        <ele>605.4</ele>
        <time>2021-09-10T13:07:13Z</time>
      </trkpt>
      <trkpt lat="44.09416" lon="6.23847">
        <ele>605.5</ele>
        <time>2021-09-10T13:07:14Z</time>
      </trkpt>
      <trkpt lat="44.09419" lon="6.23852">
        <ele>605.5</ele>
        <time>2021-09-10T13:07:15Z</time>
      </trkpt>
      <trkpt lat="44.0942" lon="6.23854">
        <ele>605.6</ele>
        <time>2021-09-10T13:07:16Z</time>
      </trkpt>
      <trkpt lat="44.09422" lon="6.23861">
        <ele>605.6</ele>
        <time>2021-09-10T13:07:18Z</time>
      </trkpt>
      <trkpt lat="44.09425" lon="6.23868">
        <ele>605.7</ele>
        <time>2021-09-10T13:07:20Z</time>
      </trkpt>
      <trkpt lat="44.09431" lon="6.23876">
        <ele>605.8</ele>
        <time>2021-09-10T13:07:22Z</time>
      </trkpt>
      <trkpt lat="44.09435" lon="6.23881">
        <ele>605.8</ele>
        <time>2021-09-10T13:07:23Z</time>
      </trkpt>
      <trkpt lat="44.09438" lon="6.23886">
        <ele>605.9</ele>
        <time>2021-09-10T13:07:24Z</time>
      </trkpt>
      <trkpt lat="44.09442" lon="6.23893">
        <ele>605.9</ele>
        <time>2021-09-10T13:07:25Z</time>
      </trkpt>
      <trkpt lat="44.09446" lon="6.23902">
        <ele>606</ele>
        <time>2021-09-10T13:07:27Z</time>
      </trkpt>
      <trkpt lat="44.09448" lon="6.23918">
        <ele>606.1</ele>
        <time>2021-09-10T13:07:29Z</time>
      </trkpt>
      <trkpt lat="44.09449" lon="6.2392">
        <ele>606.1</ele>
        <time>2021-09-10T13:07:30Z</time>
      </trkpt>
      <trkpt lat="44.09451" lon="6.23928">
        <ele>606.1</ele>
        <time>2021-09-10T13:07:32Z</time>
      </trkpt>
      <trkpt lat="44.09452" lon="6.23935">
        <ele>606.1</ele>
        <time>2021-09-10T13:07:33Z</time>
      </trkpt>
      <trkpt lat="44.09455" lon="6.23949">
        <ele>606.1</ele>
        <time>2021-09-10T13:07:35Z</time>
      </trkpt>
      <trkpt lat="44.09456" lon="6.2396">
        <ele>606.2</ele>
        <time>2021-09-10T13:07:36Z</time>
      </trkpt>
      <trkpt lat="44.09458" lon="6.23969">
        <ele>606.2</ele>
        <time>2021-09-10T13:07:38Z</time>
      </trkpt>
      <trkpt lat="44.09459" lon="6.23978">
        <ele>606.5</ele>
        <time>2021-09-10T13:07:39Z</time>
      </trkpt>
      <trkpt lat="44.09461" lon="6.23985">
        <ele>606.6</ele>
        <time>2021-09-10T13:07:41Z</time>
      </trkpt>
      <trkpt lat="44.09462" lon="6.2399">
        <ele>606.6</ele>
        <time>2021-09-10T13:07:42Z</time>
      </trkpt>
      <trkpt lat="44.09463" lon="6.23999">
        <ele>606.8</ele>
        <time>2021-09-10T13:07:43Z</time>
      </trkpt>
      <trkpt lat="44.09464" lon="6.24004">
        <ele>606.9</ele>
        <time>2021-09-10T13:07:45Z</time>
      </trkpt>
      <trkpt lat="44.09465" lon="6.24011">
        <ele>607</ele>
        <time>2021-09-10T13:07:46Z</time>
      </trkpt>
      <trkpt lat="44.09467" lon="6.24019">
        <ele>607.2</ele>
        <time>2021-09-10T13:07:48Z</time>
      </trkpt>
      <trkpt lat="44.0947" lon="6.24027">
        <ele>607.3</ele>
        <time>2021-09-10T13:07:49Z</time>
      </trkpt>
      <trkpt lat="44.09473" lon="6.24033">
        <ele>607.5</ele>
        <time>2021-09-10T13:07:51Z</time>
      </trkpt>
      <trkpt lat="44.09475" lon="6.2404">
        <ele>607.6</ele>
        <time>2021-09-10T13:07:53Z</time>
      </trkpt>
      <trkpt lat="44.09478" lon="6.24046">
        <ele>607.8</ele>
        <time>2021-09-10T13:07:54Z</time>
      </trkpt>
      <trkpt lat="44.09482" lon="6.24051">
        <ele>608</ele>
        <time>2021-09-10T13:07:56Z</time>
      </trkpt>
      <trkpt lat="44.09485" lon="6.24058">
        <ele>608.2</ele>
        <time>2021-09-10T13:07:57Z</time>
      </trkpt>
      <trkpt lat="44.09487" lon="6.24063">
        <ele>608.3</ele>
        <time>2021-09-10T13:07:58Z</time>
      </trkpt>
      <trkpt lat="44.09491" lon="6.24069">
        <ele>608.5</ele>
        <time>2021-09-10T13:08:00Z</time>
      </trkpt>
      <trkpt lat="44.09493" lon="6.24075">
        <ele>608.7</ele>
        <time>2021-09-10T13:08:02Z</time>
      </trkpt>
      <trkpt lat="44.09494" lon="6.24079">
        <ele>608.8</ele>
        <time>2021-09-10T13:08:03Z</time>
      </trkpt>
      <trkpt lat="44.09495" lon="6.24084">
        <ele>609</ele>
        <time>2021-09-10T13:08:04Z</time>
      </trkpt>
      <trkpt lat="44.09497" lon="6.24089">
        <ele>609.1</ele>
        <time>2021-09-10T13:08:05Z</time>
      </trkpt>
      <trkpt lat="44.095" lon="6.24095">
        <ele>609.3</ele>
        <time>2021-09-10T13:08:07Z</time>
      </trkpt>
      <trkpt lat="44.09504" lon="6.24099">
        <ele>609.5</ele>
        <time>2021-09-10T13:08:08Z</time>
      </trkpt>
      <trkpt lat="44.09508" lon="6.24103">
        <ele>609.7</ele>
        <time>2021-09-10T13:08:09Z</time>
      </trkpt>
      <trkpt lat="44.09514" lon="6.24109">
        <ele>610</ele>
        <time>2021-09-10T13:08:11Z</time>
      </trkpt>
      <trkpt lat="44.09516" lon="6.24113">
        <ele>610.1</ele>
        <time>2021-09-10T13:08:12Z</time>
      </trkpt>
      <trkpt lat="44.09519" lon="6.24116">
        <ele>610.3</ele>
        <time>2021-09-10T13:08:13Z</time>
      </trkpt>
      <trkpt lat="44.09521" lon="6.24119">
        <ele>610.4</ele>
        <time>2021-09-10T13:08:14Z</time>
      </trkpt>
      <trkpt lat="44.09525" lon="6.24122">
        <ele>610.5</ele>
        <time>2021-09-10T13:08:15Z</time>
      </trkpt>
      <trkpt lat="44.0953" lon="6.24125">
        <ele>610.7</ele>
        <time>2021-09-10T13:08:17Z</time>
      </trkpt>
      <trkpt lat="44.09533" lon="6.24127">
        <ele>610.8</ele>
        <time>2021-09-10T13:08:18Z</time>
      </trkpt>
      <trkpt lat="44.09536" lon="6.2413">
        <ele>610.9</ele>
        <time>2021-09-10T13:08:19Z</time>
      </trkpt>
      <trkpt lat="44.0954" lon="6.24135">
        <ele>611.2</ele>
        <time>2021-09-10T13:08:21Z</time>
      </trkpt>
      <trkpt lat="44.09546" lon="6.24138">
        <ele>611.2</ele>
        <time>2021-09-10T13:08:22Z</time>
      </trkpt>
      <trkpt lat="44.09553" lon="6.24141">
        <ele>611.2</ele>
        <time>2021-09-10T13:08:24Z</time>
      </trkpt>
      <trkpt lat="44.0956" lon="6.24145">
        <ele>611.2</ele>
        <time>2021-09-10T13:08:25Z</time>
      </trkpt>
      <trkpt lat="44.09566" lon="6.24148">
        <ele>611.2</ele>
        <time>2021-09-10T13:08:27Z</time>
      </trkpt>
      <trkpt lat="44.0957" lon="6.24151">
        <ele>611.2</ele>
        <time>2021-09-10T13:08:28Z</time>
      </trkpt>
      <trkpt lat="44.09574" lon="6.24153">
        <ele>611.2</ele>
        <time>2021-09-10T13:08:29Z</time>
      </trkpt>
      <trkpt lat="44.09579" lon="6.24156">
        <ele>611.2</ele>
        <time>2021-09-10T13:08:30Z</time>
      </trkpt>
      <trkpt lat="44.09583" lon="6.24158">
        <ele>611.2</ele>
        <time>2021-09-10T13:08:31Z</time>
      </trkpt>
      <trkpt lat="44.09588" lon="6.2416">
        <ele>611.3</ele>
        <time>2021-09-10T13:08:32Z</time>
      </trkpt>
      <trkpt lat="44.09596" lon="6.24166">
        <ele>611.3</ele>
        <time>2021-09-10T13:08:34Z</time>
      </trkpt>
      <trkpt lat="44.09606" lon="6.24174">
        <ele>611.3</ele>
        <time>2021-09-10T13:08:36Z</time>
      </trkpt>
      <trkpt lat="44.0961" lon="6.24185">
        <ele>611.4</ele>
        <time>2021-09-10T13:08:38Z</time>
      </trkpt>
      <trkpt lat="44.09614" lon="6.24192">
        <ele>611.4</ele>
        <time>2021-09-10T13:08:39Z</time>
      </trkpt>
      <trkpt lat="44.09623" lon="6.242">
        <ele>611.5</ele>
        <time>2021-09-10T13:08:41Z</time>
      </trkpt>
      <trkpt lat="44.09631" lon="6.24205">
        <ele>611.6</ele>
        <time>2021-09-10T13:08:43Z</time>
      </trkpt>
      <trkpt lat="44.09635" lon="6.24209">
        <ele>611.5</ele>
        <time>2021-09-10T13:08:44Z</time>
      </trkpt>
      <trkpt lat="44.09637" lon="6.24211">
        <ele>611.6</ele>
        <time>2021-09-10T13:08:45Z</time>
      </trkpt>
      <trkpt lat="44.09644" lon="6.24217">
        <ele>611.6</ele>
        <time>2021-09-10T13:08:47Z</time>
      </trkpt>
      <trkpt lat="44.09649" lon="6.24221">
        <ele>611.6</ele>
        <time>2021-09-10T13:08:48Z</time>
      </trkpt>
      <trkpt lat="44.09657" lon="6.2423">
        <ele>611.7</ele>
        <time>2021-09-10T13:08:50Z</time>
      </trkpt>
      <trkpt lat="44.09661" lon="6.24234">
        <ele>611.7</ele>
        <time>2021-09-10T13:08:51Z</time>
      </trkpt>
      <trkpt lat="44.09663" lon="6.24238">
        <ele>611.7</ele>
        <time>2021-09-10T13:08:52Z</time>
      </trkpt>
      <trkpt lat="44.09667" lon="6.24241">
        <ele>611.8</ele>
        <time>2021-09-10T13:08:53Z</time>
      </trkpt>
      <trkpt lat="44.0967" lon="6.24245">
        <ele>611.8</ele>
        <time>2021-09-10T13:08:54Z</time>
      </trkpt>
      <trkpt lat="44.09674" lon="6.24248">
        <ele>611.8</ele>
        <time>2021-09-10T13:08:55Z</time>
      </trkpt>
      <trkpt lat="44.09678" lon="6.24251">
        <ele>611.9</ele>
        <time>2021-09-10T13:08:56Z</time>
      </trkpt>
      <trkpt lat="44.09685" lon="6.2426">
        <ele>612.1</ele>
        <time>2021-09-10T13:08:58Z</time>
      </trkpt>
      <trkpt lat="44.0969" lon="6.24267">
        <ele>612.3</ele>
        <time>2021-09-10T13:09:00Z</time>
      </trkpt>
      <trkpt lat="44.09693" lon="6.24274">
        <ele>612.3</ele>
        <time>2021-09-10T13:09:01Z</time>
      </trkpt>
      <trkpt lat="44.09702" lon="6.24287">
        <ele>612.5</ele>
        <time>2021-09-10T13:09:03Z</time>
      </trkpt>
      <trkpt lat="44.09706" lon="6.24294">
        <ele>612.7</ele>
        <time>2021-09-10T13:09:04Z</time>
      </trkpt>
      <trkpt lat="44.0971" lon="6.24301">
        <ele>612.8</ele>
        <time>2021-09-10T13:09:05Z</time>
      </trkpt>
      <trkpt lat="44.09714" lon="6.24307">
        <ele>612.9</ele>
        <time>2021-09-10T13:09:06Z</time>
      </trkpt>
      <trkpt lat="44.09718" lon="6.24313">
        <ele>613</ele>
        <time>2021-09-10T13:09:07Z</time>
      </trkpt>
      <trkpt lat="44.09725" lon="6.24324">
        <ele>613.1</ele>
        <time>2021-09-10T13:09:09Z</time>
      </trkpt>
      <trkpt lat="44.09727" lon="6.24329">
        <ele>613.2</ele>
        <time>2021-09-10T13:09:10Z</time>
      </trkpt>
      <trkpt lat="44.0973" lon="6.24334">
        <ele>613.2</ele>
        <time>2021-09-10T13:09:11Z</time>
      </trkpt>
      <trkpt lat="44.09732" lon="6.24338">
        <ele>613.3</ele>
        <time>2021-09-10T13:09:12Z</time>
      </trkpt>
      <trkpt lat="44.09735" lon="6.24347">
        <ele>613.4</ele>
        <time>2021-09-10T13:09:14Z</time>
      </trkpt>
      <trkpt lat="44.09738" lon="6.24352">
        <ele>613.4</ele>
        <time>2021-09-10T13:09:15Z</time>
      </trkpt>
      <trkpt lat="44.09741" lon="6.24363">
        <ele>613.5</ele>
        <time>2021-09-10T13:09:17Z</time>
      </trkpt>
      <trkpt lat="44.09743" lon="6.24368">
        <ele>613.6</ele>
        <time>2021-09-10T13:09:18Z</time>
      </trkpt>
      <trkpt lat="44.09745" lon="6.24378">
        <ele>613.7</ele>
        <time>2021-09-10T13:09:20Z</time>
      </trkpt>
      <trkpt lat="44.09746" lon="6.24382">
        <ele>613.7</ele>
        <time>2021-09-10T13:09:21Z</time>
      </trkpt>
      <trkpt lat="44.09751" lon="6.24394">
        <ele>613.9</ele>
        <time>2021-09-10T13:09:23Z</time>
      </trkpt>
      <trkpt lat="44.09755" lon="6.24407">
        <ele>614</ele>
        <time>2021-09-10T13:09:25Z</time>
      </trkpt>
      <trkpt lat="44.0976" lon="6.24419">
        <ele>614.1</ele>
        <time>2021-09-10T13:09:27Z</time>
      </trkpt>
      <trkpt lat="44.09762" lon="6.24425">
        <ele>614.2</ele>
        <time>2021-09-10T13:09:28Z</time>
      </trkpt>
      <trkpt lat="44.09763" lon="6.2443">
        <ele>614.2</ele>
        <time>2021-09-10T13:09:29Z</time>
      </trkpt>
      <trkpt lat="44.09766" lon="6.24435">
        <ele>614.3</ele>
        <time>2021-09-10T13:09:30Z</time>
      </trkpt>
      <trkpt lat="44.09768" lon="6.2445">
        <ele>614.5</ele>
        <time>2021-09-10T13:09:32Z</time>
      </trkpt>
      <trkpt lat="44.09772" lon="6.2446">
        <ele>614.7</ele>
        <time>2021-09-10T13:09:34Z</time>
      </trkpt>
      <trkpt lat="44.09776" lon="6.24466">
        <ele>614.8</ele>
        <time>2021-09-10T13:09:35Z</time>
      </trkpt>
      <trkpt lat="44.09781" lon="6.24474">
        <ele>614.9</ele>
        <time>2021-09-10T13:09:37Z</time>
      </trkpt>
      <trkpt lat="44.09788" lon="6.24484">
        <ele>615.1</ele>
        <time>2021-09-10T13:09:39Z</time>
      </trkpt>
      <trkpt lat="44.09792" lon="6.24483">
        <ele>615.2</ele>
        <time>2021-09-10T13:09:41Z</time>
      </trkpt>
      <trkpt lat="44.09796" lon="6.2449">
        <ele>615.3</ele>
        <time>2021-09-10T13:09:42Z</time>
      </trkpt>
      <trkpt lat="44.09799" lon="6.24496">
        <ele>615.4</ele>
        <time>2021-09-10T13:09:43Z</time>
      </trkpt>
      <trkpt lat="44.09804" lon="6.24504">
        <ele>615.6</ele>
        <time>2021-09-10T13:09:44Z</time>
      </trkpt>
      <trkpt lat="44.09806" lon="6.24509">
        <ele>615.7</ele>
        <time>2021-09-10T13:09:45Z</time>
      </trkpt>
      <trkpt lat="44.09811" lon="6.24518">
        <ele>615.9</ele>
        <time>2021-09-10T13:09:47Z</time>
      </trkpt>
      <trkpt lat="44.09815" lon="6.24527">
        <ele>616.1</ele>
        <time>2021-09-10T13:09:49Z</time>
      </trkpt>
      <trkpt lat="44.09818" lon="6.24534">
        <ele>616.3</ele>
        <time>2021-09-10T13:09:50Z</time>
      </trkpt>
      <trkpt lat="44.0982" lon="6.2454">
        <ele>616.4</ele>
        <time>2021-09-10T13:09:51Z</time>
      </trkpt>
      <trkpt lat="44.09822" lon="6.24547">
        <ele>616.6</ele>
        <time>2021-09-10T13:09:53Z</time>
      </trkpt>
      <trkpt lat="44.09824" lon="6.24554">
        <ele>616.9</ele>
        <time>2021-09-10T13:09:54Z</time>
      </trkpt>
      <trkpt lat="44.09826" lon="6.24561">
        <ele>617.1</ele>
        <time>2021-09-10T13:09:56Z</time>
      </trkpt>
      <trkpt lat="44.09827" lon="6.24566">
        <ele>617.2</ele>
        <time>2021-09-10T13:09:57Z</time>
      </trkpt>
      <trkpt lat="44.09828" lon="6.24571">
        <ele>617.3</ele>
        <time>2021-09-10T13:09:58Z</time>
      </trkpt>
      <trkpt lat="44.09829" lon="6.24576">
        <ele>617.3</ele>
        <time>2021-09-10T13:10:00Z</time>
      </trkpt>
      <trkpt lat="44.0983" lon="6.24581">
        <ele>617.4</ele>
        <time>2021-09-10T13:10:01Z</time>
      </trkpt>
      <trkpt lat="44.09832" lon="6.24585">
        <ele>617.5</ele>
        <time>2021-09-10T13:10:02Z</time>
      </trkpt>
      <trkpt lat="44.09833" lon="6.24591">
        <ele>617.6</ele>
        <time>2021-09-10T13:10:04Z</time>
      </trkpt>
      <trkpt lat="44.09833" lon="6.246">
        <ele>617.8</ele>
        <time>2021-09-10T13:10:06Z</time>
      </trkpt>
      <trkpt lat="44.09835" lon="6.24606">
        <ele>617.9</ele>
        <time>2021-09-10T13:10:07Z</time>
      </trkpt>
      <trkpt lat="44.09837" lon="6.24612">
        <ele>618.1</ele>
        <time>2021-09-10T13:10:09Z</time>
      </trkpt>
      <trkpt lat="44.09839" lon="6.24618">
        <ele>618.3</ele>
        <time>2021-09-10T13:10:11Z</time>
      </trkpt>
      <trkpt lat="44.0984" lon="6.24622">
        <ele>618.5</ele>
        <time>2021-09-10T13:10:12Z</time>
      </trkpt>
      <trkpt lat="44.09842" lon="6.24626">
        <ele>618.8</ele>
        <time>2021-09-10T13:10:13Z</time>
      </trkpt>
      <trkpt lat="44.09845" lon="6.24631">
        <ele>619.1</ele>
        <time>2021-09-10T13:10:15Z</time>
      </trkpt>
      <trkpt lat="44.09849" lon="6.24636">
        <ele>619.5</ele>
        <time>2021-09-10T13:10:16Z</time>
      </trkpt>
      <trkpt lat="44.09851" lon="6.2464">
        <ele>619.8</ele>
        <time>2021-09-10T13:10:18Z</time>
      </trkpt>
      <trkpt lat="44.09854" lon="6.24644">
        <ele>620.1</ele>
        <time>2021-09-10T13:10:19Z</time>
      </trkpt>
      <trkpt lat="44.09856" lon="6.24648">
        <ele>620.4</ele>
        <time>2021-09-10T13:10:21Z</time>
      </trkpt>
      <trkpt lat="44.09857" lon="6.24652">
        <ele>620.6</ele>
        <time>2021-09-10T13:10:22Z</time>
      </trkpt>
      <trkpt lat="44.09859" lon="6.24656">
        <ele>620.9</ele>
        <time>2021-09-10T13:10:24Z</time>
      </trkpt>
      <trkpt lat="44.09862" lon="6.24659">
        <ele>621.2</ele>
        <time>2021-09-10T13:10:26Z</time>
      </trkpt>
      <trkpt lat="44.09865" lon="6.24662">
        <ele>621.5</ele>
        <time>2021-09-10T13:10:27Z</time>
      </trkpt>
      <trkpt lat="44.09867" lon="6.24665">
        <ele>621.7</ele>
        <time>2021-09-10T13:10:29Z</time>
      </trkpt>
      <trkpt lat="44.09868" lon="6.24667">
        <ele>621.8</ele>
        <time>2021-09-10T13:10:30Z</time>
      </trkpt>
      <trkpt lat="44.09869" lon="6.24669">
        <ele>621.9</ele>
        <time>2021-09-10T13:10:31Z</time>
      </trkpt>
      <trkpt lat="44.09869" lon="6.24672">
        <ele>622.1</ele>
        <time>2021-09-10T13:10:33Z</time>
      </trkpt>
      <trkpt lat="44.0987" lon="6.24675">
        <ele>622.2</ele>
        <time>2021-09-10T13:10:34Z</time>
      </trkpt>
      <trkpt lat="44.09871" lon="6.24677">
        <ele>622.4</ele>
        <time>2021-09-10T13:10:36Z</time>
      </trkpt>
      <trkpt lat="44.09872" lon="6.2468">
        <ele>622.5</ele>
        <time>2021-09-10T13:10:37Z</time>
      </trkpt>
      <trkpt lat="44.09872" lon="6.24682">
        <ele>622.6</ele>
        <time>2021-09-10T13:10:38Z</time>
      </trkpt>
      <trkpt lat="44.09871" lon="6.24684">
        <ele>622.8</ele>
        <time>2021-09-10T13:10:40Z</time>
      </trkpt>
      <trkpt lat="44.09872" lon="6.24688">
        <ele>623</ele>
        <time>2021-09-10T13:10:42Z</time>
      </trkpt>
      <trkpt lat="44.09873" lon="6.24691">
        <ele>623.1</ele>
        <time>2021-09-10T13:10:43Z</time>
      </trkpt>
      <trkpt lat="44.09874" lon="6.24695">
        <ele>623.4</ele>
        <time>2021-09-10T13:10:45Z</time>
      </trkpt>
      <trkpt lat="44.09876" lon="6.24698">
        <ele>623.5</ele>
        <time>2021-09-10T13:10:47Z</time>
      </trkpt>
      <trkpt lat="44.09877" lon="6.24699">
        <ele>623.6</ele>
        <time>2021-09-10T13:10:48Z</time>
      </trkpt>
      <trkpt lat="44.0988" lon="6.24703">
        <ele>623.8</ele>
        <time>2021-09-10T13:10:49Z</time>
      </trkpt>
      <trkpt lat="44.09881" lon="6.24705">
        <ele>623.9</ele>
        <time>2021-09-10T13:10:50Z</time>
      </trkpt>
      <trkpt lat="44.09884" lon="6.2471">
        <ele>624.2</ele>
        <time>2021-09-10T13:10:52Z</time>
      </trkpt>
      <trkpt lat="44.09885" lon="6.24712">
        <ele>624.3</ele>
        <time>2021-09-10T13:10:53Z</time>
      </trkpt>
      <trkpt lat="44.09886" lon="6.24714">
        <ele>624.4</ele>
        <time>2021-09-10T13:10:54Z</time>
      </trkpt>
      <trkpt lat="44.09889" lon="6.24718">
        <ele>624.6</ele>
        <time>2021-09-10T13:10:56Z</time>
      </trkpt>
      <trkpt lat="44.09892" lon="6.24722">
        <ele>624.8</ele>
        <time>2021-09-10T13:10:57Z</time>
      </trkpt>
      <trkpt lat="44.09895" lon="6.24724">
        <ele>625</ele>
        <time>2021-09-10T13:10:59Z</time>
      </trkpt>
      <trkpt lat="44.09897" lon="6.24725">
        <ele>625.1</ele>
        <time>2021-09-10T13:11:00Z</time>
      </trkpt>
      <trkpt lat="44.099" lon="6.24725">
        <ele>625.2</ele>
        <time>2021-09-10T13:11:02Z</time>
      </trkpt>
      <trkpt lat="44.09902" lon="6.24727">
        <ele>625.3</ele>
        <time>2021-09-10T13:11:04Z</time>
      </trkpt>
      <trkpt lat="44.09905" lon="6.2473">
        <ele>625.5</ele>
        <time>2021-09-10T13:11:06Z</time>
      </trkpt>
      <trkpt lat="44.09909" lon="6.2473">
        <ele>625.6</ele>
        <time>2021-09-10T13:11:07Z</time>
      </trkpt>
      <trkpt lat="44.09913" lon="6.2473">
        <ele>625.8</ele>
        <time>2021-09-10T13:11:09Z</time>
      </trkpt>
      <trkpt lat="44.09917" lon="6.24732">
        <ele>626</ele>
        <time>2021-09-10T13:11:10Z</time>
      </trkpt>
      <trkpt lat="44.0992" lon="6.24734">
        <ele>626.1</ele>
        <time>2021-09-10T13:11:12Z</time>
      </trkpt>
      <trkpt lat="44.09923" lon="6.24738">
        <ele>626.3</ele>
        <time>2021-09-10T13:11:14Z</time>
      </trkpt>
      <trkpt lat="44.09925" lon="6.24742">
        <ele>626.4</ele>
        <time>2021-09-10T13:11:15Z</time>
      </trkpt>
      <trkpt lat="44.09926" lon="6.24744">
        <ele>626.5</ele>
        <time>2021-09-10T13:11:16Z</time>
      </trkpt>
      <trkpt lat="44.09926" lon="6.24749">
        <ele>626.6</ele>
        <time>2021-09-10T13:11:17Z</time>
      </trkpt>
      <trkpt lat="44.09927" lon="6.24753">
        <ele>626.6</ele>
        <time>2021-09-10T13:11:18Z</time>
      </trkpt>
      <trkpt lat="44.09928" lon="6.24757">
        <ele>626.7</ele>
        <time>2021-09-10T13:11:20Z</time>
      </trkpt>
      <trkpt lat="44.0993" lon="6.24762">
        <ele>626.8</ele>
        <time>2021-09-10T13:11:22Z</time>
      </trkpt>
      <trkpt lat="44.09931" lon="6.24767">
        <ele>626.9</ele>
        <time>2021-09-10T13:11:23Z</time>
      </trkpt>
      <trkpt lat="44.09932" lon="6.24769">
        <ele>626.9</ele>
        <time>2021-09-10T13:11:24Z</time>
      </trkpt>
      <trkpt lat="44.09935" lon="6.24772">
        <ele>626.9</ele>
        <time>2021-09-10T13:11:25Z</time>
      </trkpt>
      <trkpt lat="44.09937" lon="6.24775">
        <ele>627</ele>
        <time>2021-09-10T13:11:26Z</time>
      </trkpt>
      <trkpt lat="44.0994" lon="6.24781">
        <ele>627</ele>
        <time>2021-09-10T13:11:28Z</time>
      </trkpt>
      <trkpt lat="44.09945" lon="6.24786">
        <ele>627.1</ele>
        <time>2021-09-10T13:11:29Z</time>
      </trkpt>
      <trkpt lat="44.09948" lon="6.24789">
        <ele>627.1</ele>
        <time>2021-09-10T13:11:31Z</time>
      </trkpt>
      <trkpt lat="44.09953" lon="6.24792">
        <ele>627.1</ele>
        <time>2021-09-10T13:11:32Z</time>
      </trkpt>
      <trkpt lat="44.09956" lon="6.24795">
        <ele>627.1</ele>
        <time>2021-09-10T13:11:33Z</time>
      </trkpt>
      <trkpt lat="44.09962" lon="6.24803">
        <ele>627.1</ele>
        <time>2021-09-10T13:11:35Z</time>
      </trkpt>
      <trkpt lat="44.09966" lon="6.24811">
        <ele>627.1</ele>
        <time>2021-09-10T13:11:37Z</time>
      </trkpt>
      <trkpt lat="44.09968" lon="6.24817">
        <ele>627.1</ele>
        <time>2021-09-10T13:11:38Z</time>
      </trkpt>
      <trkpt lat="44.0997" lon="6.24824">
        <ele>627</ele>
        <time>2021-09-10T13:11:39Z</time>
      </trkpt>
      <trkpt lat="44.09973" lon="6.24832">
        <ele>627</ele>
        <time>2021-09-10T13:11:41Z</time>
      </trkpt>
      <trkpt lat="44.09974" lon="6.24837">
        <ele>627</ele>
        <time>2021-09-10T13:11:42Z</time>
      </trkpt>
      <trkpt lat="44.09978" lon="6.24844">
        <ele>626.9</ele>
        <time>2021-09-10T13:11:43Z</time>
      </trkpt>
      <trkpt lat="44.0998" lon="6.24854">
        <ele>626.9</ele>
        <time>2021-09-10T13:11:45Z</time>
      </trkpt>
      <trkpt lat="44.0998" lon="6.24856">
        <ele>627</ele>
        <time>2021-09-10T13:11:46Z</time>
      </trkpt>
      <trkpt lat="44.09982" lon="6.24859">
        <ele>627</ele>
        <time>2021-09-10T13:11:47Z</time>
      </trkpt>
      <trkpt lat="44.09983" lon="6.24862">
        <ele>627</ele>
        <time>2021-09-10T13:11:48Z</time>
      </trkpt>
      <trkpt lat="44.09991" lon="6.24869">
        <ele>627</ele>
        <time>2021-09-10T13:11:50Z</time>
      </trkpt>
      <trkpt lat="44.09997" lon="6.24872">
        <ele>627</ele>
        <time>2021-09-10T13:11:51Z</time>
      </trkpt>
      <trkpt lat="44.10001" lon="6.24875">
        <ele>627.1</ele>
        <time>2021-09-10T13:11:53Z</time>
      </trkpt>
      <trkpt lat="44.10004" lon="6.24878">
        <ele>627.1</ele>
        <time>2021-09-10T13:11:54Z</time>
      </trkpt>
      <trkpt lat="44.10007" lon="6.24885">
        <ele>627.1</ele>
        <time>2021-09-10T13:11:56Z</time>
      </trkpt>
      <trkpt lat="44.1001" lon="6.24892">
        <ele>627.1</ele>
        <time>2021-09-10T13:11:58Z</time>
      </trkpt>
      <trkpt lat="44.10011" lon="6.24896">
        <ele>627.1</ele>
        <time>2021-09-10T13:11:59Z</time>
      </trkpt>
      <trkpt lat="44.10012" lon="6.24901">
        <ele>627.2</ele>
        <time>2021-09-10T13:12:00Z</time>
      </trkpt>
      <trkpt lat="44.10012" lon="6.24904">
        <ele>627</ele>
        <time>2021-09-10T13:12:01Z</time>
      </trkpt>
      <trkpt lat="44.10013" lon="6.2491">
        <ele>626.9</ele>
        <time>2021-09-10T13:12:03Z</time>
      </trkpt>
      <trkpt lat="44.10014" lon="6.24915">
        <ele>626.7</ele>
        <time>2021-09-10T13:12:05Z</time>
      </trkpt>
      <trkpt lat="44.10016" lon="6.24918">
        <ele>626.6</ele>
        <time>2021-09-10T13:12:06Z</time>
      </trkpt>
      <trkpt lat="44.10017" lon="6.24922">
        <ele>626.5</ele>
        <time>2021-09-10T13:12:07Z</time>
      </trkpt>
      <trkpt lat="44.1002" lon="6.24926">
        <ele>626.3</ele>
        <time>2021-09-10T13:12:09Z</time>
      </trkpt>
      <trkpt lat="44.10022" lon="6.24933">
        <ele>626</ele>
        <time>2021-09-10T13:12:10Z</time>
      </trkpt>
      <trkpt lat="44.10025" lon="6.24939">
        <ele>625.8</ele>
        <time>2021-09-10T13:12:12Z</time>
      </trkpt>
      <trkpt lat="44.10027" lon="6.24945">
        <ele>625.5</ele>
        <time>2021-09-10T13:12:13Z</time>
      </trkpt>
      <trkpt lat="44.10029" lon="6.2495">
        <ele>625.4</ele>
        <time>2021-09-10T13:12:15Z</time>
      </trkpt>
      <trkpt lat="44.10031" lon="6.24954">
        <ele>625.2</ele>
        <time>2021-09-10T13:12:17Z</time>
      </trkpt>
      <trkpt lat="44.10034" lon="6.24956">
        <ele>625.1</ele>
        <time>2021-09-10T13:12:18Z</time>
      </trkpt>
      <trkpt lat="44.10037" lon="6.24957">
        <ele>625</ele>
        <time>2021-09-10T13:12:20Z</time>
      </trkpt>
      <trkpt lat="44.10039" lon="6.24958">
        <ele>624.9</ele>
        <time>2021-09-10T13:12:21Z</time>
      </trkpt>
      <trkpt lat="44.10042" lon="6.24957">
        <ele>624.8</ele>
        <time>2021-09-10T13:12:23Z</time>
      </trkpt>
      <trkpt lat="44.10042" lon="6.24957">
        <ele>624.8</ele>
        <time>2021-09-10T13:12:24Z</time>
      </trkpt>
      <trkpt lat="44.10042" lon="6.24957">
        <ele>624.8</ele>
        <time>2021-09-10T13:12:26Z</time>
      </trkpt>
      <trkpt lat="44.10043" lon="6.24957">
        <ele>624.8</ele>
        <time>2021-09-10T13:12:27Z</time>
      </trkpt>
      <trkpt lat="44.10043" lon="6.24956">
        <ele>624.8</ele>
        <time>2021-09-10T13:12:29Z</time>
      </trkpt>
      <trkpt lat="44.10043" lon="6.24956">
        <ele>624.8</ele>
        <time>2021-09-10T13:12:30Z</time>
      </trkpt>
      <trkpt lat="44.10043" lon="6.24956">
        <ele>624.8</ele>
        <time>2021-09-10T13:12:31Z</time>
      </trkpt>
      <trkpt lat="44.09995" lon="6.24975">
        <ele>623.6</ele>
        <time>2021-09-10T13:15:24Z</time>
      </trkpt>
      <trkpt lat="44.09991" lon="6.24976">
        <ele>623.5</ele>
        <time>2021-09-10T13:15:26Z</time>
      </trkpt>
      <trkpt lat="44.09991" lon="6.24974">
        <ele>623.5</ele>
        <time>2021-09-10T13:15:28Z</time>
      </trkpt>
      <trkpt lat="44.09992" lon="6.24972">
        <ele>623.5</ele>
        <time>2021-09-10T13:15:30Z</time>
      </trkpt>
      <trkpt lat="44.09993" lon="6.24971">
        <ele>623.5</ele>
        <time>2021-09-10T13:15:31Z</time>
      </trkpt>
      <trkpt lat="44.09994" lon="6.2497">
        <ele>623.5</ele>
        <time>2021-09-10T13:15:33Z</time>
      </trkpt>
      <trkpt lat="44.09994" lon="6.24971">
        <ele>623.5</ele>
        <time>2021-09-10T13:15:35Z</time>
      </trkpt>
      <trkpt lat="44.09994" lon="6.24973">
        <ele>623.5</ele>
        <time>2021-09-10T13:15:37Z</time>
      </trkpt>
      <trkpt lat="44.09993" lon="6.24975">
        <ele>623.5</ele>
        <time>2021-09-10T13:19:01Z</time>
      </trkpt>
      <trkpt lat="44.09993" lon="6.24977">
        <ele>623.4</ele>
        <time>2021-09-10T13:19:02Z</time>
      </trkpt>
      <trkpt lat="44.09989" lon="6.24981">
        <ele>623.4</ele>
        <time>2021-09-10T13:19:03Z</time>
      </trkpt>
      <trkpt lat="44.09985" lon="6.24985">
        <ele>623.4</ele>
        <time>2021-09-10T13:19:04Z</time>
      </trkpt>
      <trkpt lat="44.09983" lon="6.24989">
        <ele>623.4</ele>
        <time>2021-09-10T13:19:05Z</time>
      </trkpt>
      <trkpt lat="44.09982" lon="6.24994">
        <ele>623.5</ele>
        <time>2021-09-10T13:19:06Z</time>
      </trkpt>
      <trkpt lat="44.09982" lon="6.24999">
        <ele>623.5</ele>
        <time>2021-09-10T13:19:08Z</time>
      </trkpt>
      <trkpt lat="44.09983" lon="6.25005">
        <ele>623.5</ele>
        <time>2021-09-10T13:19:10Z</time>
      </trkpt>
      <trkpt lat="44.09983" lon="6.2501">
        <ele>623.5</ele>
        <time>2021-09-10T13:19:11Z</time>
      </trkpt>
      <trkpt lat="44.09982" lon="6.25014">
        <ele>623.5</ele>
        <time>2021-09-10T13:19:12Z</time>
      </trkpt>
      <trkpt lat="44.09979" lon="6.25021">
        <ele>623.6</ele>
        <time>2021-09-10T13:19:14Z</time>
      </trkpt>
      <trkpt lat="44.09979" lon="6.25025">
        <ele>623.7</ele>
        <time>2021-09-10T13:19:15Z</time>
      </trkpt>
      <trkpt lat="44.09978" lon="6.2503">
        <ele>623.8</ele>
        <time>2021-09-10T13:19:16Z</time>
      </trkpt>
      <trkpt lat="44.09979" lon="6.25034">
        <ele>623.9</ele>
        <time>2021-09-10T13:19:17Z</time>
      </trkpt>
      <trkpt lat="44.09979" lon="6.25035">
        <ele>623.9</ele>
        <time>2021-09-10T13:19:18Z</time>
      </trkpt>
      <trkpt lat="44.09981" lon="6.25039">
        <ele>624</ele>
        <time>2021-09-10T13:19:20Z</time>
      </trkpt>
      <trkpt lat="44.09982" lon="6.2504">
        <ele>624</ele>
        <time>2021-09-10T13:19:21Z</time>
      </trkpt>
      <trkpt lat="44.09982" lon="6.25044">
        <ele>624.1</ele>
        <time>2021-09-10T13:19:22Z</time>
      </trkpt>
      <trkpt lat="44.09983" lon="6.25046">
        <ele>624.1</ele>
        <time>2021-09-10T13:19:24Z</time>
      </trkpt>
      <trkpt lat="44.09985" lon="6.25049">
        <ele>624.2</ele>
        <time>2021-09-10T13:19:26Z</time>
      </trkpt>
      <trkpt lat="44.09986" lon="6.25053">
        <ele>624.3</ele>
        <time>2021-09-10T13:19:27Z</time>
      </trkpt>
      <trkpt lat="44.09987" lon="6.25054">
        <ele>624.3</ele>
        <time>2021-09-10T13:19:28Z</time>
      </trkpt>
      <trkpt lat="44.09987" lon="6.25057">
        <ele>624.4</ele>
        <time>2021-09-10T13:19:29Z</time>
      </trkpt>
      <trkpt lat="44.09988" lon="6.25061">
        <ele>624.4</ele>
        <time>2021-09-10T13:19:31Z</time>
      </trkpt>
      <trkpt lat="44.0999" lon="6.25065">
        <ele>624.5</ele>
        <time>2021-09-10T13:19:32Z</time>
      </trkpt>
      <trkpt lat="44.0999" lon="6.25067">
        <ele>624.6</ele>
        <time>2021-09-10T13:19:33Z</time>
      </trkpt>
      <trkpt lat="44.0999" lon="6.25067">
        <ele>624.6</ele>
        <time>2021-09-10T13:19:35Z</time>
      </trkpt>
      <trkpt lat="44.09991" lon="6.25067">
        <ele>624.6</ele>
        <time>2021-09-10T13:19:36Z</time>
      </trkpt>
      <trkpt lat="44.09991" lon="6.25067">
        <ele>624.6</ele>
        <time>2021-09-10T13:19:37Z</time>
      </trkpt>
      <trkpt lat="44.09991" lon="6.25067">
        <ele>624.6</ele>
        <time>2021-09-10T13:19:38Z</time>
      </trkpt>
      <trkpt lat="44.09991" lon="6.25067">
        <ele>624.6</ele>
        <time>2021-09-10T13:19:39Z</time>
      </trkpt>
      <trkpt lat="44.09991" lon="6.25066">
        <ele>624.6</ele>
        <time>2021-09-10T13:19:41Z</time>
      </trkpt>
      <trkpt lat="44.09991" lon="6.25066">
        <ele>624.6</ele>
        <time>2021-09-10T13:19:42Z</time>
      </trkpt>
      <trkpt lat="44.09991" lon="6.25066">
        <ele>624.6</ele>
        <time>2021-09-10T13:19:44Z</time>
      </trkpt>
      <trkpt lat="44.10022" lon="6.25064">
        <ele>627.3</ele>
        <time>2021-09-11T08:20:05Z</time>
      </trkpt>
      <trkpt lat="44.10022" lon="6.25064">
        <ele>627.3</ele>
        <time>2021-09-11T08:20:05Z</time>
      </trkpt>
      <trkpt lat="44.10022" lon="6.25063">
        <ele>627.3</ele>
        <time>2021-09-11T08:20:06Z</time>
      </trkpt>
      <trkpt lat="44.10021" lon="6.25062">
        <ele>627.4</ele>
        <time>2021-09-11T08:20:12Z</time>
      </trkpt>
      <trkpt lat="44.10022" lon="6.25062">
        <ele>627.4</ele>
        <time>2021-09-11T08:20:18Z</time>
      </trkpt>
      <trkpt lat="44.1002" lon="6.25067">
        <ele>627.7</ele>
        <time>2021-09-11T08:20:36Z</time>
      </trkpt>
      <trkpt lat="44.1002" lon="6.25068">
        <ele>627.7</ele>
        <time>2021-09-11T08:20:37Z</time>
      </trkpt>
      <trkpt lat="44.10023" lon="6.25071">
        <ele>627.9</ele>
        <time>2021-09-11T08:20:39Z</time>
      </trkpt>
      <trkpt lat="44.10019" lon="6.25069">
        <ele>628.1</ele>
        <time>2021-09-11T08:20:41Z</time>
      </trkpt>
      <trkpt lat="44.10023" lon="6.25072">
        <ele>628.3</ele>
        <time>2021-09-11T08:20:42Z</time>
      </trkpt>
      <trkpt lat="44.10048" lon="6.25081">
        <ele>629.6</ele>
        <time>2021-09-11T08:20:44Z</time>
      </trkpt>
      <trkpt lat="44.10054" lon="6.25089">
        <ele>630</ele>
        <time>2021-09-11T08:20:45Z</time>
      </trkpt>
      <trkpt lat="44.10052" lon="6.25091">
        <ele>629.8</ele>
        <time>2021-09-11T08:20:47Z</time>
      </trkpt>
      <trkpt lat="44.10051" lon="6.25091">
        <ele>629.7</ele>
        <time>2021-09-11T08:20:48Z</time>
      </trkpt>
      <trkpt lat="44.1005" lon="6.25091">
        <ele>629.6</ele>
        <time>2021-09-11T08:20:50Z</time>
      </trkpt>
      <trkpt lat="44.1005" lon="6.25088">
        <ele>629.5</ele>
        <time>2021-09-11T08:20:51Z</time>
      </trkpt>
      <trkpt lat="44.1005" lon="6.25085">
        <ele>629.4</ele>
        <time>2021-09-11T08:20:53Z</time>
      </trkpt>
      <trkpt lat="44.1005" lon="6.25085">
        <ele>629.3</ele>
        <time>2021-09-11T08:20:54Z</time>
      </trkpt>
      <trkpt lat="44.10038" lon="6.25078">
        <ele>628.5</ele>
        <time>2021-09-11T08:20:56Z</time>
      </trkpt>
      <trkpt lat="44.10036" lon="6.25078">
        <ele>628.4</ele>
        <time>2021-09-11T08:20:57Z</time>
      </trkpt>
      <trkpt lat="44.10036" lon="6.25078">
        <ele>628.4</ele>
        <time>2021-09-11T08:20:58Z</time>
      </trkpt>
      <trkpt lat="44.10037" lon="6.25078">
        <ele>628.4</ele>
        <time>2021-09-11T08:21:00Z</time>
      </trkpt>
      <trkpt lat="44.10038" lon="6.25079">
        <ele>628.3</ele>
        <time>2021-09-11T08:21:01Z</time>
      </trkpt>
      <trkpt lat="44.10039" lon="6.25079">
        <ele>628.2</ele>
        <time>2021-09-11T08:21:03Z</time>
      </trkpt>
      <trkpt lat="44.10039" lon="6.25079">
        <ele>628.2</ele>
        <time>2021-09-11T08:21:04Z</time>
      </trkpt>
      <trkpt lat="44.1003" lon="6.25073">
        <ele>627.6</ele>
        <time>2021-09-11T08:21:25Z</time>
      </trkpt>
      <trkpt lat="44.10024" lon="6.2507">
        <ele>627.3</ele>
        <time>2021-09-11T08:21:27Z</time>
      </trkpt>
      <trkpt lat="44.1002" lon="6.25067">
        <ele>627</ele>
        <time>2021-09-11T08:21:28Z</time>
      </trkpt>
      <trkpt lat="44.10016" lon="6.25064">
        <ele>626.7</ele>
        <time>2021-09-11T08:21:29Z</time>
      </trkpt>
      <trkpt lat="44.10012" lon="6.25061">
        <ele>626.4</ele>
        <time>2021-09-11T08:21:30Z</time>
      </trkpt>
      <trkpt lat="44.10007" lon="6.25059">
        <ele>626.1</ele>
        <time>2021-09-11T08:21:32Z</time>
      </trkpt>
      <trkpt lat="44.10003" lon="6.25058">
        <ele>625.9</ele>
        <time>2021-09-11T08:21:33Z</time>
      </trkpt>
      <trkpt lat="44.09999" lon="6.25057">
        <ele>625.6</ele>
        <time>2021-09-11T08:21:34Z</time>
      </trkpt>
      <trkpt lat="44.09994" lon="6.25055">
        <ele>625.1</ele>
        <time>2021-09-11T08:21:36Z</time>
      </trkpt>
      <trkpt lat="44.09991" lon="6.25054">
        <ele>624.8</ele>
        <time>2021-09-11T08:21:37Z</time>
      </trkpt>
      <trkpt lat="44.09987" lon="6.25052">
        <ele>624.3</ele>
        <time>2021-09-11T08:21:38Z</time>
      </trkpt>
      <trkpt lat="44.09984" lon="6.25048">
        <ele>624.2</ele>
        <time>2021-09-11T08:21:39Z</time>
      </trkpt>
      <trkpt lat="44.09981" lon="6.25041">
        <ele>624</ele>
        <time>2021-09-11T08:21:41Z</time>
      </trkpt>
      <trkpt lat="44.09981" lon="6.25036">
        <ele>623.9</ele>
        <time>2021-09-11T08:21:42Z</time>
      </trkpt>
      <trkpt lat="44.09981" lon="6.25031">
        <ele>623.8</ele>
        <time>2021-09-11T08:21:43Z</time>
      </trkpt>
      <trkpt lat="44.0998" lon="6.25024">
        <ele>623.7</ele>
        <time>2021-09-11T08:21:45Z</time>
      </trkpt>
      <trkpt lat="44.0998" lon="6.2502">
        <ele>623.6</ele>
        <time>2021-09-11T08:21:46Z</time>
      </trkpt>
      <trkpt lat="44.0998" lon="6.25016">
        <ele>623.6</ele>
        <time>2021-09-11T08:21:47Z</time>
      </trkpt>
      <trkpt lat="44.0998" lon="6.2501">
        <ele>623.5</ele>
        <time>2021-09-11T08:21:49Z</time>
      </trkpt>
      <trkpt lat="44.09979" lon="6.25005">
        <ele>623.5</ele>
        <time>2021-09-11T08:21:50Z</time>
      </trkpt>
      <trkpt lat="44.09979" lon="6.24996">
        <ele>623.4</ele>
        <time>2021-09-11T08:21:52Z</time>
      </trkpt>
      <trkpt lat="44.09979" lon="6.24992">
        <ele>623.4</ele>
        <time>2021-09-11T08:21:53Z</time>
      </trkpt>
      <trkpt lat="44.09981" lon="6.24985">
        <ele>623.5</ele>
        <time>2021-09-11T08:21:55Z</time>
      </trkpt>
      <trkpt lat="44.09982" lon="6.24981">
        <ele>623.5</ele>
        <time>2021-09-11T08:21:56Z</time>
      </trkpt>
      <trkpt lat="44.09984" lon="6.24977">
        <ele>623.6</ele>
        <time>2021-09-11T08:21:57Z</time>
      </trkpt>
      <trkpt lat="44.09987" lon="6.24972">
        <ele>623.7</ele>
        <time>2021-09-11T08:21:59Z</time>
      </trkpt>
      <trkpt lat="44.09992" lon="6.24972">
        <ele>623.8</ele>
        <time>2021-09-11T08:22:01Z</time>
      </trkpt>
      <trkpt lat="44.09996" lon="6.2497">
        <ele>623.9</ele>
        <time>2021-09-11T08:22:03Z</time>
      </trkpt>
      <trkpt lat="44.09997" lon="6.24969">
        <ele>624</ele>
        <time>2021-09-11T08:22:04Z</time>
      </trkpt>
      <trkpt lat="44.09998" lon="6.24969">
        <ele>624.1</ele>
        <time>2021-09-11T08:22:05Z</time>
      </trkpt>
      <trkpt lat="44.1" lon="6.24965">
        <ele>624.2</ele>
        <time>2021-09-11T08:22:07Z</time>
      </trkpt>
      <trkpt lat="44.1" lon="6.24963">
        <ele>624.2</ele>
        <time>2021-09-11T08:22:08Z</time>
      </trkpt>
      <trkpt lat="44.1" lon="6.24961">
        <ele>624.3</ele>
        <time>2021-09-11T08:22:09Z</time>
      </trkpt>
      <trkpt lat="44.10001" lon="6.24956">
        <ele>624.5</ele>
        <time>2021-09-11T08:22:11Z</time>
      </trkpt>
      <trkpt lat="44.10001" lon="6.24952">
        <ele>624.6</ele>
        <time>2021-09-11T08:22:12Z</time>
      </trkpt>
      <trkpt lat="44.10001" lon="6.24951">
        <ele>624.6</ele>
        <time>2021-09-11T08:22:13Z</time>
      </trkpt>
      <trkpt lat="44.1" lon="6.24945">
        <ele>624.9</ele>
        <time>2021-09-11T08:22:15Z</time>
      </trkpt>
      <trkpt lat="44.1" lon="6.24942">
        <ele>625</ele>
        <time>2021-09-11T08:22:16Z</time>
      </trkpt>
      <trkpt lat="44.09999" lon="6.24937">
        <ele>625.2</ele>
        <time>2021-09-11T08:22:18Z</time>
      </trkpt>
      <trkpt lat="44.09999" lon="6.24933">
        <ele>625.4</ele>
        <time>2021-09-11T08:22:19Z</time>
      </trkpt>
      <trkpt lat="44.09998" lon="6.24931">
        <ele>625.5</ele>
        <time>2021-09-11T08:22:20Z</time>
      </trkpt>
      <trkpt lat="44.09997" lon="6.24929">
        <ele>625.7</ele>
        <time>2021-09-11T08:22:21Z</time>
      </trkpt>
      <trkpt lat="44.09996" lon="6.24925">
        <ele>625.9</ele>
        <time>2021-09-11T08:22:23Z</time>
      </trkpt>
      <trkpt lat="44.09995" lon="6.24922">
        <ele>626.1</ele>
        <time>2021-09-11T08:22:24Z</time>
      </trkpt>
      <trkpt lat="44.09994" lon="6.24919">
        <ele>626.3</ele>
        <time>2021-09-11T08:22:26Z</time>
      </trkpt>
      <trkpt lat="44.09995" lon="6.24917">
        <ele>626.4</ele>
        <time>2021-09-11T08:22:27Z</time>
      </trkpt>
      <trkpt lat="44.09996" lon="6.24914">
        <ele>626.6</ele>
        <time>2021-09-11T08:22:29Z</time>
      </trkpt>
      <trkpt lat="44.09996" lon="6.24913">
        <ele>626.6</ele>
        <time>2021-09-11T08:22:30Z</time>
      </trkpt>
      <trkpt lat="44.09997" lon="6.24913">
        <ele>626.7</ele>
        <time>2021-09-11T08:22:31Z</time>
      </trkpt>
      <trkpt lat="44.09997" lon="6.24911">
        <ele>626.8</ele>
        <time>2021-09-11T08:22:32Z</time>
      </trkpt>
      <trkpt lat="44.09996" lon="6.24908">
        <ele>626.9</ele>
        <time>2021-09-11T08:22:34Z</time>
      </trkpt>
      <trkpt lat="44.09995" lon="6.24903">
        <ele>627.2</ele>
        <time>2021-09-11T08:22:35Z</time>
      </trkpt>
      <trkpt lat="44.09995" lon="6.24901">
        <ele>627.1</ele>
        <time>2021-09-11T08:22:36Z</time>
      </trkpt>
      <trkpt lat="44.09992" lon="6.24895">
        <ele>627.1</ele>
        <time>2021-09-11T08:22:38Z</time>
      </trkpt>
      <trkpt lat="44.0999" lon="6.24888">
        <ele>627.1</ele>
        <time>2021-09-11T08:22:39Z</time>
      </trkpt>
      <trkpt lat="44.09987" lon="6.24881">
        <ele>627</ele>
        <time>2021-09-11T08:22:41Z</time>
      </trkpt>
      <trkpt lat="44.09984" lon="6.24873">
        <ele>627</ele>
        <time>2021-09-11T08:22:42Z</time>
      </trkpt>
      <trkpt lat="44.09982" lon="6.24867">
        <ele>627</ele>
        <time>2021-09-11T08:22:43Z</time>
      </trkpt>
      <trkpt lat="44.09978" lon="6.24856">
        <ele>626.9</ele>
        <time>2021-09-11T08:22:45Z</time>
      </trkpt>
      <trkpt lat="44.09975" lon="6.24847">
        <ele>626.9</ele>
        <time>2021-09-11T08:22:47Z</time>
      </trkpt>
      <trkpt lat="44.09972" lon="6.2484">
        <ele>627</ele>
        <time>2021-09-11T08:22:48Z</time>
      </trkpt>
      <trkpt lat="44.09971" lon="6.24834">
        <ele>627</ele>
        <time>2021-09-11T08:22:49Z</time>
      </trkpt>
      <trkpt lat="44.09969" lon="6.24829">
        <ele>627</ele>
        <time>2021-09-11T08:22:50Z</time>
      </trkpt>
      <trkpt lat="44.09967" lon="6.24824">
        <ele>627</ele>
        <time>2021-09-11T08:22:51Z</time>
      </trkpt>
      <trkpt lat="44.09965" lon="6.24819">
        <ele>627.1</ele>
        <time>2021-09-11T08:22:52Z</time>
      </trkpt>
      <trkpt lat="44.09963" lon="6.24814">
        <ele>627.1</ele>
        <time>2021-09-11T08:22:53Z</time>
      </trkpt>
      <trkpt lat="44.09961" lon="6.2481">
        <ele>627.1</ele>
        <time>2021-09-11T08:22:54Z</time>
      </trkpt>
      <trkpt lat="44.09958" lon="6.24806">
        <ele>627.1</ele>
        <time>2021-09-11T08:22:55Z</time>
      </trkpt>
      <trkpt lat="44.09955" lon="6.24801">
        <ele>627.1</ele>
        <time>2021-09-11T08:22:56Z</time>
      </trkpt>
      <trkpt lat="44.09953" lon="6.24797">
        <ele>627.1</ele>
        <time>2021-09-11T08:22:57Z</time>
      </trkpt>
      <trkpt lat="44.0995" lon="6.24792">
        <ele>627.1</ele>
        <time>2021-09-11T08:22:58Z</time>
      </trkpt>
      <trkpt lat="44.09946" lon="6.24785">
        <ele>627.1</ele>
        <time>2021-09-11T08:23:00Z</time>
      </trkpt>
      <trkpt lat="44.09944" lon="6.2478">
        <ele>627</ele>
        <time>2021-09-11T08:23:01Z</time>
      </trkpt>
      <trkpt lat="44.09939" lon="6.24773">
        <ele>627</ele>
        <time>2021-09-11T08:23:03Z</time>
      </trkpt>
      <trkpt lat="44.09936" lon="6.24769">
        <ele>626.9</ele>
        <time>2021-09-11T08:23:04Z</time>
      </trkpt>
      <trkpt lat="44.09933" lon="6.24764">
        <ele>626.8</ele>
        <time>2021-09-11T08:23:05Z</time>
      </trkpt>
      <trkpt lat="44.09929" lon="6.24759">
        <ele>626.7</ele>
        <time>2021-09-11T08:23:07Z</time>
      </trkpt>
      <trkpt lat="44.09925" lon="6.24756">
        <ele>626.6</ele>
        <time>2021-09-11T08:23:08Z</time>
      </trkpt>
      <trkpt lat="44.09921" lon="6.24751">
        <ele>626.4</ele>
        <time>2021-09-11T08:23:09Z</time>
      </trkpt>
      <trkpt lat="44.09917" lon="6.24746">
        <ele>626.2</ele>
        <time>2021-09-11T08:23:10Z</time>
      </trkpt>
      <trkpt lat="44.09912" lon="6.24739">
        <ele>626</ele>
        <time>2021-09-11T08:23:12Z</time>
      </trkpt>
      <trkpt lat="44.09908" lon="6.24732">
        <ele>625.7</ele>
        <time>2021-09-11T08:23:13Z</time>
      </trkpt>
      <trkpt lat="44.09902" lon="6.24725">
        <ele>625.3</ele>
        <time>2021-09-11T08:23:14Z</time>
      </trkpt>
      <trkpt lat="44.09892" lon="6.24713">
        <ele>624.6</ele>
        <time>2021-09-11T08:23:16Z</time>
      </trkpt>
      <trkpt lat="44.09887" lon="6.24708">
        <ele>624.3</ele>
        <time>2021-09-11T08:23:17Z</time>
      </trkpt>
      <trkpt lat="44.09877" lon="6.24695">
        <ele>623.5</ele>
        <time>2021-09-11T08:23:19Z</time>
      </trkpt>
      <trkpt lat="44.09872" lon="6.24687">
        <ele>622.9</ele>
        <time>2021-09-11T08:23:20Z</time>
      </trkpt>
      <trkpt lat="44.09862" lon="6.24666">
        <ele>621.6</ele>
        <time>2021-09-11T08:23:22Z</time>
      </trkpt>
      <trkpt lat="44.09857" lon="6.24657">
        <ele>620.9</ele>
        <time>2021-09-11T08:23:23Z</time>
      </trkpt>
      <trkpt lat="44.09852" lon="6.24647">
        <ele>620.2</ele>
        <time>2021-09-11T08:23:24Z</time>
      </trkpt>
      <trkpt lat="44.09842" lon="6.24626">
        <ele>618.8</ele>
        <time>2021-09-11T08:23:26Z</time>
      </trkpt>
      <trkpt lat="44.09833" lon="6.24603">
        <ele>617.8</ele>
        <time>2021-09-11T08:23:28Z</time>
      </trkpt>
      <trkpt lat="44.09829" lon="6.24591">
        <ele>617.5</ele>
        <time>2021-09-11T08:23:29Z</time>
      </trkpt>
      <trkpt lat="44.09824" lon="6.24579">
        <ele>617.3</ele>
        <time>2021-09-11T08:23:30Z</time>
      </trkpt>
      <trkpt lat="44.09815" lon="6.24555">
        <ele>616.7</ele>
        <time>2021-09-11T08:23:32Z</time>
      </trkpt>
      <trkpt lat="44.0981" lon="6.24544">
        <ele>616.4</ele>
        <time>2021-09-11T08:23:33Z</time>
      </trkpt>
      <trkpt lat="44.09801" lon="6.24522">
        <ele>615.8</ele>
        <time>2021-09-11T08:23:35Z</time>
      </trkpt>
      <trkpt lat="44.09796" lon="6.24511">
        <ele>615.6</ele>
        <time>2021-09-11T08:23:36Z</time>
      </trkpt>
      <trkpt lat="44.09792" lon="6.245">
        <ele>615.4</ele>
        <time>2021-09-11T08:23:37Z</time>
      </trkpt>
      <trkpt lat="44.09784" lon="6.24479">
        <ele>615.1</ele>
        <time>2021-09-11T08:23:39Z</time>
      </trkpt>
      <trkpt lat="44.09776" lon="6.24459">
        <ele>614.7</ele>
        <time>2021-09-11T08:23:41Z</time>
      </trkpt>
      <trkpt lat="44.09773" lon="6.2445">
        <ele>614.6</ele>
        <time>2021-09-11T08:23:42Z</time>
      </trkpt>
      <trkpt lat="44.09769" lon="6.2444">
        <ele>614.4</ele>
        <time>2021-09-11T08:23:43Z</time>
      </trkpt>
      <trkpt lat="44.09765" lon="6.2443">
        <ele>614.3</ele>
        <time>2021-09-11T08:23:44Z</time>
      </trkpt>
      <trkpt lat="44.09758" lon="6.24411">
        <ele>614.1</ele>
        <time>2021-09-11T08:23:46Z</time>
      </trkpt>
      <trkpt lat="44.09754" lon="6.24402">
        <ele>614</ele>
        <time>2021-09-11T08:23:47Z</time>
      </trkpt>
      <trkpt lat="44.09748" lon="6.24384">
        <ele>613.8</ele>
        <time>2021-09-11T08:23:49Z</time>
      </trkpt>
      <trkpt lat="44.09744" lon="6.24375">
        <ele>613.7</ele>
        <time>2021-09-11T08:23:50Z</time>
      </trkpt>
      <trkpt lat="44.09737" lon="6.24359">
        <ele>613.5</ele>
        <time>2021-09-11T08:23:52Z</time>
      </trkpt>
      <trkpt lat="44.09734" lon="6.24351">
        <ele>613.4</ele>
        <time>2021-09-11T08:23:53Z</time>
      </trkpt>
      <trkpt lat="44.0973" lon="6.24343">
        <ele>613.3</ele>
        <time>2021-09-11T08:23:54Z</time>
      </trkpt>
      <trkpt lat="44.09723" lon="6.24327">
        <ele>613.2</ele>
        <time>2021-09-11T08:23:56Z</time>
      </trkpt>
      <trkpt lat="44.0972" lon="6.24319">
        <ele>613</ele>
        <time>2021-09-11T08:23:57Z</time>
      </trkpt>
      <trkpt lat="44.09712" lon="6.24302">
        <ele>612.8</ele>
        <time>2021-09-11T08:23:59Z</time>
      </trkpt>
      <trkpt lat="44.09709" lon="6.24293">
        <ele>612.7</ele>
        <time>2021-09-11T08:24:00Z</time>
      </trkpt>
      <trkpt lat="44.09705" lon="6.24286">
        <ele>612.6</ele>
        <time>2021-09-11T08:24:01Z</time>
      </trkpt>
      <trkpt lat="44.09701" lon="6.24279">
        <ele>612.4</ele>
        <time>2021-09-11T08:24:02Z</time>
      </trkpt>
      <trkpt lat="44.09694" lon="6.24266">
        <ele>612.3</ele>
        <time>2021-09-11T08:24:04Z</time>
      </trkpt>
      <trkpt lat="44.09687" lon="6.24251">
        <ele>612</ele>
        <time>2021-09-11T08:24:06Z</time>
      </trkpt>
      <trkpt lat="44.09679" lon="6.24238">
        <ele>611.9</ele>
        <time>2021-09-11T08:24:08Z</time>
      </trkpt>
      <trkpt lat="44.09667" lon="6.24231">
        <ele>611.7</ele>
        <time>2021-09-11T08:24:10Z</time>
      </trkpt>
      <trkpt lat="44.09661" lon="6.24227">
        <ele>611.7</ele>
        <time>2021-09-11T08:24:11Z</time>
      </trkpt>
      <trkpt lat="44.09655" lon="6.24224">
        <ele>611.6</ele>
        <time>2021-09-11T08:24:12Z</time>
      </trkpt>
      <trkpt lat="44.09644" lon="6.24216">
        <ele>611.6</ele>
        <time>2021-09-11T08:24:14Z</time>
      </trkpt>
      <trkpt lat="44.09638" lon="6.24212">
        <ele>611.6</ele>
        <time>2021-09-11T08:24:15Z</time>
      </trkpt>
      <trkpt lat="44.09629" lon="6.24204">
        <ele>611.5</ele>
        <time>2021-09-11T08:24:17Z</time>
      </trkpt>
      <trkpt lat="44.09624" lon="6.242">
        <ele>611.5</ele>
        <time>2021-09-11T08:24:18Z</time>
      </trkpt>
      <trkpt lat="44.09619" lon="6.24196">
        <ele>611.5</ele>
        <time>2021-09-11T08:24:19Z</time>
      </trkpt>
      <trkpt lat="44.09614" lon="6.24193">
        <ele>611.4</ele>
        <time>2021-09-11T08:24:20Z</time>
      </trkpt>
      <trkpt lat="44.09604" lon="6.24185">
        <ele>611.4</ele>
        <time>2021-09-11T08:24:22Z</time>
      </trkpt>
      <trkpt lat="44.09599" lon="6.24182">
        <ele>611.3</ele>
        <time>2021-09-11T08:24:23Z</time>
      </trkpt>
      <trkpt lat="44.09595" lon="6.24177">
        <ele>611.3</ele>
        <time>2021-09-11T08:24:24Z</time>
      </trkpt>
      <trkpt lat="44.09586" lon="6.24169">
        <ele>611.3</ele>
        <time>2021-09-11T08:24:26Z</time>
      </trkpt>
      <trkpt lat="44.09576" lon="6.24163">
        <ele>611.2</ele>
        <time>2021-09-11T08:24:28Z</time>
      </trkpt>
      <trkpt lat="44.09572" lon="6.2416">
        <ele>611.2</ele>
        <time>2021-09-11T08:24:29Z</time>
      </trkpt>
      <trkpt lat="44.09568" lon="6.24156">
        <ele>611.2</ele>
        <time>2021-09-11T08:24:30Z</time>
      </trkpt>
      <trkpt lat="44.0956" lon="6.2415">
        <ele>611.2</ele>
        <time>2021-09-11T08:24:32Z</time>
      </trkpt>
      <trkpt lat="44.09556" lon="6.24146">
        <ele>611.2</ele>
        <time>2021-09-11T08:24:33Z</time>
      </trkpt>
      <trkpt lat="44.09551" lon="6.24138">
        <ele>611.1</ele>
        <time>2021-09-11T08:24:35Z</time>
      </trkpt>
      <trkpt lat="44.0955" lon="6.24133">
        <ele>611</ele>
        <time>2021-09-11T08:24:36Z</time>
      </trkpt>
      <trkpt lat="44.09549" lon="6.24122">
        <ele>610.9</ele>
        <time>2021-09-11T08:24:38Z</time>
      </trkpt>
      <trkpt lat="44.0955" lon="6.24116">
        <ele>610.7</ele>
        <time>2021-09-11T08:24:39Z</time>
      </trkpt>
      <trkpt lat="44.09549" lon="6.24102">
        <ele>610.3</ele>
        <time>2021-09-11T08:24:41Z</time>
      </trkpt>
      <trkpt lat="44.09548" lon="6.24094">
        <ele>610.1</ele>
        <time>2021-09-11T08:24:42Z</time>
      </trkpt>
      <trkpt lat="44.09546" lon="6.24077">
        <ele>609.6</ele>
        <time>2021-09-11T08:24:44Z</time>
      </trkpt>
      <trkpt lat="44.09545" lon="6.24069">
        <ele>609.4</ele>
        <time>2021-09-11T08:24:45Z</time>
      </trkpt>
      <trkpt lat="44.09543" lon="6.24052">
        <ele>609</ele>
        <time>2021-09-11T08:24:47Z</time>
      </trkpt>
      <trkpt lat="44.09542" lon="6.24044">
        <ele>608.8</ele>
        <time>2021-09-11T08:24:48Z</time>
      </trkpt>
      <trkpt lat="44.0954" lon="6.24027">
        <ele>608.3</ele>
        <time>2021-09-11T08:24:50Z</time>
      </trkpt>
      <trkpt lat="44.09535" lon="6.2401">
        <ele>608</ele>
        <time>2021-09-11T08:24:52Z</time>
      </trkpt>
      <trkpt lat="44.09531" lon="6.24003">
        <ele>607.9</ele>
        <time>2021-09-11T08:24:53Z</time>
      </trkpt>
      <trkpt lat="44.09527" lon="6.23996">
        <ele>607.8</ele>
        <time>2021-09-11T08:24:54Z</time>
      </trkpt>
      <trkpt lat="44.09518" lon="6.23983">
        <ele>607.5</ele>
        <time>2021-09-11T08:24:56Z</time>
      </trkpt>
      <trkpt lat="44.09508" lon="6.2397">
        <ele>607.3</ele>
        <time>2021-09-11T08:24:58Z</time>
      </trkpt>
      <trkpt lat="44.09503" lon="6.23964">
        <ele>607.2</ele>
        <time>2021-09-11T08:24:59Z</time>
      </trkpt>
      <trkpt lat="44.09495" lon="6.2395">
        <ele>607</ele>
        <time>2021-09-11T08:25:01Z</time>
      </trkpt>
      <trkpt lat="44.09491" lon="6.23943">
        <ele>606.9</ele>
        <time>2021-09-11T08:25:02Z</time>
      </trkpt>
      <trkpt lat="44.09482" lon="6.23929">
        <ele>606.9</ele>
        <time>2021-09-11T08:25:04Z</time>
      </trkpt>
      <trkpt lat="44.09478" lon="6.23923">
        <ele>606.8</ele>
        <time>2021-09-11T08:25:05Z</time>
      </trkpt>
      <trkpt lat="44.09474" lon="6.23916">
        <ele>606.8</ele>
        <time>2021-09-11T08:25:06Z</time>
      </trkpt>
      <trkpt lat="44.09465" lon="6.23904">
        <ele>606.8</ele>
        <time>2021-09-11T08:25:08Z</time>
      </trkpt>
      <trkpt lat="44.09461" lon="6.23898">
        <ele>606.7</ele>
        <time>2021-09-11T08:25:09Z</time>
      </trkpt>
      <trkpt lat="44.09453" lon="6.23885">
        <ele>606.5</ele>
        <time>2021-09-11T08:25:11Z</time>
      </trkpt>
      <trkpt lat="44.09446" lon="6.23871">
        <ele>606.3</ele>
        <time>2021-09-11T08:25:13Z</time>
      </trkpt>
      <trkpt lat="44.09443" lon="6.23864">
        <ele>606.2</ele>
        <time>2021-09-11T08:25:14Z</time>
      </trkpt>
      <trkpt lat="44.09439" lon="6.23858">
        <ele>606.2</ele>
        <time>2021-09-11T08:25:15Z</time>
      </trkpt>
      <trkpt lat="44.09432" lon="6.23845">
        <ele>606</ele>
        <time>2021-09-11T08:25:17Z</time>
      </trkpt>
      <trkpt lat="44.09429" lon="6.23839">
        <ele>605.9</ele>
        <time>2021-09-11T08:25:18Z</time>
      </trkpt>
      <trkpt lat="44.09423" lon="6.23827">
        <ele>605.8</ele>
        <time>2021-09-11T08:25:20Z</time>
      </trkpt>
      <trkpt lat="44.09417" lon="6.23814">
        <ele>605.6</ele>
        <time>2021-09-11T08:25:22Z</time>
      </trkpt>
      <trkpt lat="44.09414" lon="6.23807">
        <ele>605.5</ele>
        <time>2021-09-11T08:25:23Z</time>
      </trkpt>
      <trkpt lat="44.09412" lon="6.23801">
        <ele>605.3</ele>
        <time>2021-09-11T08:25:24Z</time>
      </trkpt>
      <trkpt lat="44.09408" lon="6.23786">
        <ele>605</ele>
        <time>2021-09-11T08:25:26Z</time>
      </trkpt>
      <trkpt lat="44.09404" lon="6.23772">
        <ele>604.7</ele>
        <time>2021-09-11T08:25:28Z</time>
      </trkpt>
      <trkpt lat="44.09401" lon="6.23765">
        <ele>604.5</ele>
        <time>2021-09-11T08:25:29Z</time>
      </trkpt>
      <trkpt lat="44.09396" lon="6.23752">
        <ele>604.2</ele>
        <time>2021-09-11T08:25:31Z</time>
      </trkpt>
      <trkpt lat="44.0939" lon="6.23739">
        <ele>604</ele>
        <time>2021-09-11T08:25:33Z</time>
      </trkpt>
      <trkpt lat="44.09385" lon="6.23724">
        <ele>603.8</ele>
        <time>2021-09-11T08:25:35Z</time>
      </trkpt>
      <trkpt lat="44.09383" lon="6.23717">
        <ele>603.7</ele>
        <time>2021-09-11T08:25:36Z</time>
      </trkpt>
      <trkpt lat="44.0938" lon="6.23704">
        <ele>603.5</ele>
        <time>2021-09-11T08:25:38Z</time>
      </trkpt>
      <trkpt lat="44.09379" lon="6.23698">
        <ele>603.3</ele>
        <time>2021-09-11T08:25:39Z</time>
      </trkpt>
      <trkpt lat="44.09378" lon="6.23688">
        <ele>602.8</ele>
        <time>2021-09-11T08:25:41Z</time>
      </trkpt>
      <trkpt lat="44.09376" lon="6.23674">
        <ele>602.7</ele>
        <time>2021-09-11T08:25:43Z</time>
      </trkpt>
      <trkpt lat="44.09374" lon="6.23667">
        <ele>602.6</ele>
        <time>2021-09-11T08:25:44Z</time>
      </trkpt>
      <trkpt lat="44.0937" lon="6.23658">
        <ele>602.4</ele>
        <time>2021-09-11T08:25:46Z</time>
      </trkpt>
      <trkpt lat="44.09367" lon="6.2365">
        <ele>602.2</ele>
        <time>2021-09-11T08:25:48Z</time>
      </trkpt>
      <trkpt lat="44.09365" lon="6.23648">
        <ele>602.2</ele>
        <time>2021-09-11T08:25:49Z</time>
      </trkpt>
      <trkpt lat="44.09363" lon="6.23646">
        <ele>602.1</ele>
        <time>2021-09-11T08:25:50Z</time>
      </trkpt>
      <trkpt lat="44.09363" lon="6.23647">
        <ele>602</ele>
        <time>2021-09-11T08:25:51Z</time>
      </trkpt>
      <trkpt lat="44.09363" lon="6.23648">
        <ele>601.9</ele>
        <time>2021-09-11T08:25:53Z</time>
      </trkpt>
      <trkpt lat="44.09364" lon="6.2365">
        <ele>601.9</ele>
        <time>2021-09-11T08:25:54Z</time>
      </trkpt>
      <trkpt lat="44.09364" lon="6.2365">
        <ele>601.9</ele>
        <time>2021-09-11T08:25:55Z</time>
      </trkpt>
      <trkpt lat="44.0936" lon="6.23658">
        <ele>601.9</ele>
        <time>2021-09-11T08:25:57Z</time>
      </trkpt>
      <trkpt lat="44.09357" lon="6.23664">
        <ele>602.1</ele>
        <time>2021-09-11T08:25:58Z</time>
      </trkpt>
      <trkpt lat="44.09354" lon="6.23675">
        <ele>602.5</ele>
        <time>2021-09-11T08:25:59Z</time>
      </trkpt>
      <trkpt lat="44.0935" lon="6.23686">
        <ele>603.4</ele>
        <time>2021-09-11T08:26:01Z</time>
      </trkpt>
      <trkpt lat="44.09348" lon="6.23689">
        <ele>603.6</ele>
        <time>2021-09-11T08:26:02Z</time>
      </trkpt>
      <trkpt lat="44.09343" lon="6.23696">
        <ele>604.3</ele>
        <time>2021-09-11T08:26:04Z</time>
      </trkpt>
      <trkpt lat="44.09338" lon="6.23702">
        <ele>605.2</ele>
        <time>2021-09-11T08:26:05Z</time>
      </trkpt>
      <trkpt lat="44.0933" lon="6.2371">
        <ele>606</ele>
        <time>2021-09-11T08:26:07Z</time>
      </trkpt>
      <trkpt lat="44.09324" lon="6.23719">
        <ele>606.7</ele>
        <time>2021-09-11T08:26:09Z</time>
      </trkpt>
      <trkpt lat="44.0932" lon="6.23726">
        <ele>606.9</ele>
        <time>2021-09-11T08:26:10Z</time>
      </trkpt>
      <trkpt lat="44.09318" lon="6.2373">
        <ele>607.2</ele>
        <time>2021-09-11T08:26:11Z</time>
      </trkpt>
      <trkpt lat="44.09315" lon="6.23733">
        <ele>607.4</ele>
        <time>2021-09-11T08:26:12Z</time>
      </trkpt>
      <trkpt lat="44.09313" lon="6.23734">
        <ele>607.3</ele>
        <time>2021-09-11T08:26:13Z</time>
      </trkpt>
      <trkpt lat="44.09314" lon="6.23734">
        <ele>607.3</ele>
        <time>2021-09-11T08:26:14Z</time>
      </trkpt>
      <trkpt lat="44.09315" lon="6.23736">
        <ele>607.3</ele>
        <time>2021-09-11T08:26:16Z</time>
      </trkpt>
      <trkpt lat="44.09315" lon="6.23736">
        <ele>607.3</ele>
        <time>2021-09-11T08:26:17Z</time>
      </trkpt>
      <trkpt lat="44.09315" lon="6.23736">
        <ele>607.2</ele>
        <time>2021-09-11T08:26:18Z</time>
      </trkpt>
      <trkpt lat="44.09315" lon="6.23736">
        <ele>607.1</ele>
        <time>2021-09-11T08:26:20Z</time>
      </trkpt>
      <trkpt lat="44.09315" lon="6.23736">
        <ele>607.1</ele>
        <time>2021-09-11T08:26:21Z</time>
      </trkpt>
      <trkpt lat="44.09315" lon="6.23735">
        <ele>607.1</ele>
        <time>2021-09-11T08:26:22Z</time>
      </trkpt>
      <trkpt lat="44.09315" lon="6.23734">
        <ele>607</ele>
        <time>2021-09-11T08:26:24Z</time>
      </trkpt>
      <trkpt lat="44.0931" lon="6.23728">
        <ele>607.4</ele>
        <time>2021-09-11T08:26:27Z</time>
      </trkpt>
      <trkpt lat="44.09307" lon="6.23719">
        <ele>607.5</ele>
        <time>2021-09-11T08:26:28Z</time>
      </trkpt>
      <trkpt lat="44.09302" lon="6.2371">
        <ele>607.7</ele>
        <time>2021-09-11T08:26:30Z</time>
      </trkpt>
      <trkpt lat="44.09298" lon="6.23706">
        <ele>607.9</ele>
        <time>2021-09-11T08:26:31Z</time>
      </trkpt>
      <trkpt lat="44.09292" lon="6.23702">
        <ele>608.2</ele>
        <time>2021-09-11T08:26:33Z</time>
      </trkpt>
      <trkpt lat="44.09289" lon="6.237">
        <ele>608.5</ele>
        <time>2021-09-11T08:26:35Z</time>
      </trkpt>
      <trkpt lat="44.09286" lon="6.23698">
        <ele>608.6</ele>
        <time>2021-09-11T08:26:36Z</time>
      </trkpt>
      <trkpt lat="44.09285" lon="6.23697">
        <ele>608.5</ele>
        <time>2021-09-11T08:26:37Z</time>
      </trkpt>
      <trkpt lat="44.09284" lon="6.23696">
        <ele>608.5</ele>
        <time>2021-09-11T08:26:39Z</time>
      </trkpt>
      <trkpt lat="44.09284" lon="6.2369">
        <ele>608.5</ele>
        <time>2021-09-11T08:26:41Z</time>
      </trkpt>
      <trkpt lat="44.09283" lon="6.23686">
        <ele>608.5</ele>
        <time>2021-09-11T08:26:42Z</time>
      </trkpt>
      <trkpt lat="44.0928" lon="6.23681">
        <ele>608.5</ele>
        <time>2021-09-11T08:26:43Z</time>
      </trkpt>
      <trkpt lat="44.09279" lon="6.2368">
        <ele>608.6</ele>
        <time>2021-09-11T08:26:44Z</time>
      </trkpt>
      <trkpt lat="44.09275" lon="6.23679">
        <ele>608.6</ele>
        <time>2021-09-11T08:26:46Z</time>
      </trkpt>
      <trkpt lat="44.09273" lon="6.23679">
        <ele>608.7</ele>
        <time>2021-09-11T08:26:47Z</time>
      </trkpt>
      <trkpt lat="44.09269" lon="6.23684">
        <ele>608.7</ele>
        <time>2021-09-11T08:26:49Z</time>
      </trkpt>
      <trkpt lat="44.09265" lon="6.23689">
        <ele>608.7</ele>
        <time>2021-09-11T08:26:50Z</time>
      </trkpt>
      <trkpt lat="44.09253" lon="6.23705">
        <ele>609.1</ele>
        <time>2021-09-11T08:26:52Z</time>
      </trkpt>
      <trkpt lat="44.09248" lon="6.23709">
        <ele>609.4</ele>
        <time>2021-09-11T08:26:53Z</time>
      </trkpt>
      <trkpt lat="44.09243" lon="6.23717">
        <ele>609.6</ele>
        <time>2021-09-11T08:26:55Z</time>
      </trkpt>
      <trkpt lat="44.09243" lon="6.23716">
        <ele>609.6</ele>
        <time>2021-09-11T08:26:56Z</time>
      </trkpt>
      <trkpt lat="44.09241" lon="6.23714">
        <ele>609.6</ele>
        <time>2021-09-11T08:26:57Z</time>
      </trkpt>
      <trkpt lat="44.09241" lon="6.23714">
        <ele>609.6</ele>
        <time>2021-09-11T08:26:58Z</time>
      </trkpt>
      <trkpt lat="44.0924" lon="6.23715">
        <ele>609.6</ele>
        <time>2021-09-11T08:27:00Z</time>
      </trkpt>
      <trkpt lat="44.09239" lon="6.23715">
        <ele>609.7</ele>
        <time>2021-09-11T08:27:01Z</time>
      </trkpt>
      <trkpt lat="44.09238" lon="6.23714">
        <ele>609.7</ele>
        <time>2021-09-11T08:27:03Z</time>
      </trkpt>
      <trkpt lat="44.09232" lon="6.23686">
        <ele>610.2</ele>
        <time>2021-09-11T08:28:22Z</time>
      </trkpt>
      <trkpt lat="44.09239" lon="6.23693">
        <ele>610</ele>
        <time>2021-09-11T08:28:24Z</time>
      </trkpt>
      <trkpt lat="44.09244" lon="6.23699">
        <ele>609.8</ele>
        <time>2021-09-11T08:28:25Z</time>
      </trkpt>
      <trkpt lat="44.09249" lon="6.23705">
        <ele>609.7</ele>
        <time>2021-09-11T08:28:26Z</time>
      </trkpt>
      <trkpt lat="44.09253" lon="6.23712">
        <ele>609.6</ele>
        <time>2021-09-11T08:28:28Z</time>
      </trkpt>
      <trkpt lat="44.09255" lon="6.23716">
        <ele>609.6</ele>
        <time>2021-09-11T08:28:29Z</time>
      </trkpt>
      <trkpt lat="44.09256" lon="6.2372">
        <ele>609.7</ele>
        <time>2021-09-11T08:28:30Z</time>
      </trkpt>
      <trkpt lat="44.09257" lon="6.23726">
        <ele>609.9</ele>
        <time>2021-09-11T08:28:32Z</time>
      </trkpt>
      <trkpt lat="44.09258" lon="6.2373">
        <ele>610</ele>
        <time>2021-09-11T08:28:33Z</time>
      </trkpt>
      <trkpt lat="44.09258" lon="6.23731">
        <ele>610.1</ele>
        <time>2021-09-11T08:28:34Z</time>
      </trkpt>
      <trkpt lat="44.09256" lon="6.23736">
        <ele>610.2</ele>
        <time>2021-09-11T08:28:36Z</time>
      </trkpt>
      <trkpt lat="44.09256" lon="6.23737">
        <ele>610.3</ele>
        <time>2021-09-11T08:28:37Z</time>
      </trkpt>
      <trkpt lat="44.09255" lon="6.2374">
        <ele>610.4</ele>
        <time>2021-09-11T08:28:38Z</time>
      </trkpt>
      <trkpt lat="44.09255" lon="6.23739">
        <ele>610.6</ele>
        <time>2021-09-11T08:28:39Z</time>
      </trkpt>
      <trkpt lat="44.09254" lon="6.23743">
        <ele>610.7</ele>
        <time>2021-09-11T08:28:41Z</time>
      </trkpt>
      <trkpt lat="44.09253" lon="6.23747">
        <ele>610.9</ele>
        <time>2021-09-11T08:28:42Z</time>
      </trkpt>
      <trkpt lat="44.09253" lon="6.23754">
        <ele>611.1</ele>
        <time>2021-09-11T08:28:44Z</time>
      </trkpt>
      <trkpt lat="44.09252" lon="6.23759">
        <ele>611.6</ele>
        <time>2021-09-11T08:28:45Z</time>
      </trkpt>
      <trkpt lat="44.09252" lon="6.23763">
        <ele>612</ele>
        <time>2021-09-11T08:28:46Z</time>
      </trkpt>
      <trkpt lat="44.09251" lon="6.23768">
        <ele>612.3</ele>
        <time>2021-09-11T08:28:47Z</time>
      </trkpt>
      <trkpt lat="44.09251" lon="6.2377">
        <ele>612.4</ele>
        <time>2021-09-11T08:28:48Z</time>
      </trkpt>
      <trkpt lat="44.09251" lon="6.23773">
        <ele>612.7</ele>
        <time>2021-09-11T08:28:49Z</time>
      </trkpt>
      <trkpt lat="44.0925" lon="6.23779">
        <ele>613.2</ele>
        <time>2021-09-11T08:28:51Z</time>
      </trkpt>
      <trkpt lat="44.0925" lon="6.23781">
        <ele>613.8</ele>
        <time>2021-09-11T08:28:52Z</time>
      </trkpt>
      <trkpt lat="44.0925" lon="6.23783">
        <ele>613.8</ele>
        <time>2021-09-11T08:28:53Z</time>
      </trkpt>
      <trkpt lat="44.0925" lon="6.23784">
        <ele>613.9</ele>
        <time>2021-09-11T08:28:54Z</time>
      </trkpt>
      <trkpt lat="44.09248" lon="6.23788">
        <ele>613.9</ele>
        <time>2021-09-11T08:28:56Z</time>
      </trkpt>
      <trkpt lat="44.09247" lon="6.23792">
        <ele>614</ele>
        <time>2021-09-11T08:28:57Z</time>
      </trkpt>
      <trkpt lat="44.09246" lon="6.23793">
        <ele>614</ele>
        <time>2021-09-11T08:28:58Z</time>
      </trkpt>
      <trkpt lat="44.09245" lon="6.23796">
        <ele>614.1</ele>
        <time>2021-09-11T08:28:59Z</time>
      </trkpt>
      <trkpt lat="44.09243" lon="6.23799">
        <ele>614.1</ele>
        <time>2021-09-11T08:29:01Z</time>
      </trkpt>
      <trkpt lat="44.0924" lon="6.23803">
        <ele>614.2</ele>
        <time>2021-09-11T08:29:02Z</time>
      </trkpt>
      <trkpt lat="44.09239" lon="6.23804">
        <ele>613.1</ele>
        <time>2021-09-11T08:29:03Z</time>
      </trkpt>
      <trkpt lat="44.09237" lon="6.23808">
        <ele>613</ele>
        <time>2021-09-11T08:29:05Z</time>
      </trkpt>
      <trkpt lat="44.09237" lon="6.23809">
        <ele>613</ele>
        <time>2021-09-11T08:29:06Z</time>
      </trkpt>
      <trkpt lat="44.09236" lon="6.23813">
        <ele>612.9</ele>
        <time>2021-09-11T08:29:08Z</time>
      </trkpt>
      <trkpt lat="44.09234" lon="6.23816">
        <ele>612.8</ele>
        <time>2021-09-11T08:29:09Z</time>
      </trkpt>
      <trkpt lat="44.09229" lon="6.2382">
        <ele>610.6</ele>
        <time>2021-09-11T08:29:11Z</time>
      </trkpt>
      <trkpt lat="44.09227" lon="6.23822">
        <ele>610.4</ele>
        <time>2021-09-11T08:29:12Z</time>
      </trkpt>
      <trkpt lat="44.09221" lon="6.23824">
        <ele>610</ele>
        <time>2021-09-11T08:29:14Z</time>
      </trkpt>
      <trkpt lat="44.09218" lon="6.23823">
        <ele>609.6</ele>
        <time>2021-09-11T08:29:15Z</time>
      </trkpt>
      <trkpt lat="44.09212" lon="6.23823">
        <ele>609.2</ele>
        <time>2021-09-11T08:29:17Z</time>
      </trkpt>
      <trkpt lat="44.0921" lon="6.23822">
        <ele>609.2</ele>
        <time>2021-09-11T08:29:18Z</time>
      </trkpt>
      <trkpt lat="44.09206" lon="6.23821">
        <ele>609.3</ele>
        <time>2021-09-11T08:29:20Z</time>
      </trkpt>
      <trkpt lat="44.09204" lon="6.23821">
        <ele>609.3</ele>
        <time>2021-09-11T08:29:21Z</time>
      </trkpt>
      <trkpt lat="44.09204" lon="6.23822">
        <ele>609.3</ele>
        <time>2021-09-11T08:29:22Z</time>
      </trkpt>
      <trkpt lat="44.09203" lon="6.23822">
        <ele>609.3</ele>
        <time>2021-09-11T08:29:23Z</time>
      </trkpt>
      <trkpt lat="44.09202" lon="6.23822">
        <ele>609.3</ele>
        <time>2021-09-11T08:29:24Z</time>
      </trkpt>
      <trkpt lat="44.09201" lon="6.23823">
        <ele>609.4</ele>
        <time>2021-09-11T08:29:25Z</time>
      </trkpt>
      <trkpt lat="44.092" lon="6.23823">
        <ele>609.4</ele>
        <time>2021-09-11T08:29:27Z</time>
      </trkpt>
      <trkpt lat="44.09197" lon="6.23822">
        <ele>609.4</ele>
        <time>2021-09-11T08:29:29Z</time>
      </trkpt>
      <trkpt lat="44.09196" lon="6.23822">
        <ele>609.5</ele>
        <time>2021-09-11T08:29:30Z</time>
      </trkpt>
      <trkpt lat="44.09197" lon="6.23838">
        <ele>609.6</ele>
        <time>2021-09-11T08:29:42Z</time>
      </trkpt>
      <trkpt lat="44.09204" lon="6.23857">
        <ele>610</ele>
        <time>2021-09-11T08:29:44Z</time>
      </trkpt>
      <trkpt lat="44.09207" lon="6.23869">
        <ele>609.9</ele>
        <time>2021-09-11T08:29:45Z</time>
      </trkpt>
      <trkpt lat="44.09209" lon="6.23878">
        <ele>609.9</ele>
        <time>2021-09-11T08:29:46Z</time>
      </trkpt>
      <trkpt lat="44.0921" lon="6.23884">
        <ele>609.9</ele>
        <time>2021-09-11T08:29:47Z</time>
      </trkpt>
      <trkpt lat="44.0921" lon="6.2389">
        <ele>609.9</ele>
        <time>2021-09-11T08:29:49Z</time>
      </trkpt>
      <trkpt lat="44.09211" lon="6.23894">
        <ele>609.9</ele>
        <time>2021-09-11T08:29:50Z</time>
      </trkpt>
      <trkpt lat="44.09211" lon="6.23897">
        <ele>609.9</ele>
        <time>2021-09-11T08:29:51Z</time>
      </trkpt>
      <trkpt lat="44.09211" lon="6.23901">
        <ele>609.9</ele>
        <time>2021-09-11T08:29:53Z</time>
      </trkpt>
      <trkpt lat="44.09212" lon="6.23906">
        <ele>609.9</ele>
        <time>2021-09-11T08:29:54Z</time>
      </trkpt>
      <trkpt lat="44.09212" lon="6.23908">
        <ele>609.9</ele>
        <time>2021-09-11T08:29:55Z</time>
      </trkpt>
      <trkpt lat="44.09213" lon="6.23921">
        <ele>609.9</ele>
        <time>2021-09-11T08:29:57Z</time>
      </trkpt>
      <trkpt lat="44.09214" lon="6.2393">
        <ele>614.7</ele>
        <time>2021-09-11T08:29:58Z</time>
      </trkpt>
      <trkpt lat="44.09215" lon="6.23938">
        <ele>614.6</ele>
        <time>2021-09-11T08:29:59Z</time>
      </trkpt>
      <trkpt lat="44.09219" lon="6.23967">
        <ele>613.4</ele>
        <time>2021-09-11T08:30:01Z</time>
      </trkpt>
      <trkpt lat="44.09219" lon="6.23974">
        <ele>613.2</ele>
        <time>2021-09-11T08:30:02Z</time>
      </trkpt>
      <trkpt lat="44.09217" lon="6.23985">
        <ele>612.8</ele>
        <time>2021-09-11T08:30:04Z</time>
      </trkpt>
      <trkpt lat="44.09215" lon="6.23989">
        <ele>612.6</ele>
        <time>2021-09-11T08:30:05Z</time>
      </trkpt>
      <trkpt lat="44.09213" lon="6.23996">
        <ele>612.4</ele>
        <time>2021-09-11T08:30:06Z</time>
      </trkpt>
      <trkpt lat="44.09211" lon="6.24001">
        <ele>612.3</ele>
        <time>2021-09-11T08:30:07Z</time>
      </trkpt>
      <trkpt lat="44.09208" lon="6.24007">
        <ele>612.2</ele>
        <time>2021-09-11T08:30:09Z</time>
      </trkpt>
      <trkpt lat="44.09205" lon="6.24013">
        <ele>612</ele>
        <time>2021-09-11T08:30:10Z</time>
      </trkpt>
      <trkpt lat="44.09204" lon="6.24018">
        <ele>611.9</ele>
        <time>2021-09-11T08:30:11Z</time>
      </trkpt>
      <trkpt lat="44.09204" lon="6.24035">
        <ele>611.4</ele>
        <time>2021-09-11T08:30:13Z</time>
      </trkpt>
      <trkpt lat="44.09199" lon="6.24048">
        <ele>611.1</ele>
        <time>2021-09-11T08:30:15Z</time>
      </trkpt>
      <trkpt lat="44.09193" lon="6.24059">
        <ele>610.7</ele>
        <time>2021-09-11T08:30:17Z</time>
      </trkpt>
      <trkpt lat="44.0919" lon="6.24064">
        <ele>610.6</ele>
        <time>2021-09-11T08:30:18Z</time>
      </trkpt>
      <trkpt lat="44.09185" lon="6.24066">
        <ele>610.4</ele>
        <time>2021-09-11T08:30:20Z</time>
      </trkpt>
      <trkpt lat="44.0918" lon="6.2407">
        <ele>609</ele>
        <time>2021-09-11T08:30:21Z</time>
      </trkpt>
      <trkpt lat="44.09176" lon="6.24078">
        <ele>609.8</ele>
        <time>2021-09-11T08:30:23Z</time>
      </trkpt>
      <trkpt lat="44.09173" lon="6.24084">
        <ele>609.8</ele>
        <time>2021-09-11T08:30:24Z</time>
      </trkpt>
      <trkpt lat="44.09172" lon="6.2409">
        <ele>609.8</ele>
        <time>2021-09-11T08:30:25Z</time>
      </trkpt>
      <trkpt lat="44.09169" lon="6.24097">
        <ele>609.8</ele>
        <time>2021-09-11T08:30:27Z</time>
      </trkpt>
      <trkpt lat="44.09167" lon="6.24105">
        <ele>609.8</ele>
        <time>2021-09-11T08:30:28Z</time>
      </trkpt>
      <trkpt lat="44.09165" lon="6.2411">
        <ele>609.8</ele>
        <time>2021-09-11T08:30:29Z</time>
      </trkpt>
      <trkpt lat="44.09163" lon="6.24116">
        <ele>609.8</ele>
        <time>2021-09-11T08:30:31Z</time>
      </trkpt>
      <trkpt lat="44.0916" lon="6.24121">
        <ele>609.8</ele>
        <time>2021-09-11T08:30:32Z</time>
      </trkpt>
      <trkpt lat="44.09156" lon="6.24126">
        <ele>609.8</ele>
        <time>2021-09-11T08:30:33Z</time>
      </trkpt>
      <trkpt lat="44.09152" lon="6.24132">
        <ele>609.9</ele>
        <time>2021-09-11T08:30:35Z</time>
      </trkpt>
      <trkpt lat="44.09149" lon="6.24136">
        <ele>609.9</ele>
        <time>2021-09-11T08:30:36Z</time>
      </trkpt>
      <trkpt lat="44.09147" lon="6.2414">
        <ele>609.9</ele>
        <time>2021-09-11T08:30:37Z</time>
      </trkpt>
      <trkpt lat="44.09146" lon="6.24144">
        <ele>609.9</ele>
        <time>2021-09-11T08:30:38Z</time>
      </trkpt>
      <trkpt lat="44.09143" lon="6.24153">
        <ele>610</ele>
        <time>2021-09-11T08:30:40Z</time>
      </trkpt>
      <trkpt lat="44.09141" lon="6.24157">
        <ele>610</ele>
        <time>2021-09-11T08:30:41Z</time>
      </trkpt>
      <trkpt lat="44.0914" lon="6.24162">
        <ele>610</ele>
        <time>2021-09-11T08:30:42Z</time>
      </trkpt>
      <trkpt lat="44.09138" lon="6.24171">
        <ele>610.1</ele>
        <time>2021-09-11T08:30:44Z</time>
      </trkpt>
      <trkpt lat="44.09137" lon="6.24176">
        <ele>610.1</ele>
        <time>2021-09-11T08:30:45Z</time>
      </trkpt>
      <trkpt lat="44.09136" lon="6.2418">
        <ele>610.1</ele>
        <time>2021-09-11T08:30:46Z</time>
      </trkpt>
      <trkpt lat="44.09135" lon="6.24185">
        <ele>610.1</ele>
        <time>2021-09-11T08:30:47Z</time>
      </trkpt>
      <trkpt lat="44.09131" lon="6.24193">
        <ele>610.1</ele>
        <time>2021-09-11T08:30:49Z</time>
      </trkpt>
      <trkpt lat="44.09127" lon="6.24203">
        <ele>610.2</ele>
        <time>2021-09-11T08:30:50Z</time>
      </trkpt>
      <trkpt lat="44.09123" lon="6.24214">
        <ele>610.2</ele>
        <time>2021-09-11T08:30:52Z</time>
      </trkpt>
      <trkpt lat="44.09122" lon="6.2422">
        <ele>610.2</ele>
        <time>2021-09-11T08:30:53Z</time>
      </trkpt>
      <trkpt lat="44.09123" lon="6.24229">
        <ele>610.2</ele>
        <time>2021-09-11T08:30:54Z</time>
      </trkpt>
      <trkpt lat="44.09121" lon="6.24244">
        <ele>610.3</ele>
        <time>2021-09-11T08:30:56Z</time>
      </trkpt>
      <trkpt lat="44.0912" lon="6.24254">
        <ele>610.4</ele>
        <time>2021-09-11T08:30:58Z</time>
      </trkpt>
      <trkpt lat="44.0912" lon="6.2426">
        <ele>610.5</ele>
        <time>2021-09-11T08:30:59Z</time>
      </trkpt>
      <trkpt lat="44.09123" lon="6.24262">
        <ele>610.5</ele>
        <time>2021-09-11T08:31:00Z</time>
      </trkpt>
      <trkpt lat="44.09122" lon="6.24271">
        <ele>610.6</ele>
        <time>2021-09-11T08:31:02Z</time>
      </trkpt>
      <trkpt lat="44.09122" lon="6.24277">
        <ele>610.6</ele>
        <time>2021-09-11T08:31:04Z</time>
      </trkpt>
      <trkpt lat="44.09123" lon="6.2428">
        <ele>610.6</ele>
        <time>2021-09-11T08:31:05Z</time>
      </trkpt>
      <trkpt lat="44.09124" lon="6.24284">
        <ele>610.7</ele>
        <time>2021-09-11T08:31:07Z</time>
      </trkpt>
      <trkpt lat="44.09123" lon="6.24288">
        <ele>610.7</ele>
        <time>2021-09-11T08:31:08Z</time>
      </trkpt>
      <trkpt lat="44.09121" lon="6.24293">
        <ele>610.8</ele>
        <time>2021-09-11T08:31:10Z</time>
      </trkpt>
      <trkpt lat="44.09118" lon="6.24296">
        <ele>610.6</ele>
        <time>2021-09-11T08:31:12Z</time>
      </trkpt>
      <trkpt lat="44.09116" lon="6.24299">
        <ele>610.2</ele>
        <time>2021-09-11T08:31:13Z</time>
      </trkpt>
      <trkpt lat="44.09115" lon="6.243">
        <ele>610.1</ele>
        <time>2021-09-11T08:31:14Z</time>
      </trkpt>
      <trkpt lat="44.09115" lon="6.24304">
        <ele>609.4</ele>
        <time>2021-09-11T08:31:16Z</time>
      </trkpt>
      <trkpt lat="44.09116" lon="6.24308">
        <ele>609.5</ele>
        <time>2021-09-11T08:31:17Z</time>
      </trkpt>
      <trkpt lat="44.09117" lon="6.24311">
        <ele>609.7</ele>
        <time>2021-09-11T08:31:19Z</time>
      </trkpt>
      <trkpt lat="44.09118" lon="6.24315">
        <ele>609.8</ele>
        <time>2021-09-11T08:31:20Z</time>
      </trkpt>
      <trkpt lat="44.09119" lon="6.24318">
        <ele>609.9</ele>
        <time>2021-09-11T08:31:21Z</time>
      </trkpt>
      <trkpt lat="44.0912" lon="6.24322">
        <ele>610</ele>
        <time>2021-09-11T08:31:23Z</time>
      </trkpt>
      <trkpt lat="44.0912" lon="6.24326">
        <ele>610.1</ele>
        <time>2021-09-11T08:31:24Z</time>
      </trkpt>
      <trkpt lat="44.09121" lon="6.24329">
        <ele>610.2</ele>
        <time>2021-09-11T08:32:13Z</time>
      </trkpt>
      <trkpt lat="44.09122" lon="6.24333">
        <ele>610.3</ele>
        <time>2021-09-11T08:32:14Z</time>
      </trkpt>
      <trkpt lat="44.09122" lon="6.24337">
        <ele>610.4</ele>
        <time>2021-09-11T08:32:15Z</time>
      </trkpt>
      <trkpt lat="44.09122" lon="6.24341">
        <ele>610.5</ele>
        <time>2021-09-11T08:32:16Z</time>
      </trkpt>
      <trkpt lat="44.09122" lon="6.24347">
        <ele>610.6</ele>
        <time>2021-09-11T08:32:17Z</time>
      </trkpt>
      <trkpt lat="44.09123" lon="6.24352">
        <ele>610.8</ele>
        <time>2021-09-11T08:32:18Z</time>
      </trkpt>
      <trkpt lat="44.09124" lon="6.24357">
        <ele>610.9</ele>
        <time>2021-09-11T08:32:19Z</time>
      </trkpt>
      <trkpt lat="44.09124" lon="6.24361">
        <ele>611.1</ele>
        <time>2021-09-11T08:32:20Z</time>
      </trkpt>
      <trkpt lat="44.09124" lon="6.24367">
        <ele>611.2</ele>
        <time>2021-09-11T08:32:22Z</time>
      </trkpt>
      <trkpt lat="44.09123" lon="6.24372">
        <ele>611.4</ele>
        <time>2021-09-11T08:32:23Z</time>
      </trkpt>
      <trkpt lat="44.09123" lon="6.24375">
        <ele>611.5</ele>
        <time>2021-09-11T08:32:24Z</time>
      </trkpt>
      <trkpt lat="44.09122" lon="6.2438">
        <ele>611.7</ele>
        <time>2021-09-11T08:32:25Z</time>
      </trkpt>
      <trkpt lat="44.09122" lon="6.24382">
        <ele>611.8</ele>
        <time>2021-09-11T08:32:26Z</time>
      </trkpt>
      <trkpt lat="44.09121" lon="6.24386">
        <ele>611.9</ele>
        <time>2021-09-11T08:32:27Z</time>
      </trkpt>
      <trkpt lat="44.0912" lon="6.24389">
        <ele>612.1</ele>
        <time>2021-09-11T08:32:28Z</time>
      </trkpt>
      <trkpt lat="44.0912" lon="6.24394">
        <ele>612.2</ele>
        <time>2021-09-11T08:32:30Z</time>
      </trkpt>
      <trkpt lat="44.09121" lon="6.24395">
        <ele>612.3</ele>
        <time>2021-09-11T08:32:31Z</time>
      </trkpt>
      <trkpt lat="44.09122" lon="6.24399">
        <ele>612.4</ele>
        <time>2021-09-11T08:32:32Z</time>
      </trkpt>
      <trkpt lat="44.09122" lon="6.24401">
        <ele>612.4</ele>
        <time>2021-09-11T08:32:33Z</time>
      </trkpt>
      <trkpt lat="44.09123" lon="6.24406">
        <ele>612.6</ele>
        <time>2021-09-11T08:32:35Z</time>
      </trkpt>
      <trkpt lat="44.09123" lon="6.24408">
        <ele>613.1</ele>
        <time>2021-09-11T08:32:36Z</time>
      </trkpt>
      <trkpt lat="44.09123" lon="6.24412">
        <ele>613.2</ele>
        <time>2021-09-11T08:32:37Z</time>
      </trkpt>
      <trkpt lat="44.09123" lon="6.24414">
        <ele>613.2</ele>
        <time>2021-09-11T08:32:38Z</time>
      </trkpt>
      <trkpt lat="44.09124" lon="6.24418">
        <ele>613.3</ele>
        <time>2021-09-11T08:32:39Z</time>
      </trkpt>
      <trkpt lat="44.09124" lon="6.2442">
        <ele>613.3</ele>
        <time>2021-09-11T08:32:40Z</time>
      </trkpt>
      <trkpt lat="44.09126" lon="6.24427">
        <ele>613.5</ele>
        <time>2021-09-11T08:32:42Z</time>
      </trkpt>
      <trkpt lat="44.09128" lon="6.24431">
        <ele>613.7</ele>
        <time>2021-09-11T08:32:43Z</time>
      </trkpt>
      <trkpt lat="44.09129" lon="6.24433">
        <ele>613.7</ele>
        <time>2021-09-11T08:32:44Z</time>
      </trkpt>
      <trkpt lat="44.09131" lon="6.24437">
        <ele>613.9</ele>
        <time>2021-09-11T08:32:45Z</time>
      </trkpt>
      <trkpt lat="44.09132" lon="6.24441">
        <ele>614</ele>
        <time>2021-09-11T08:32:47Z</time>
      </trkpt>
      <trkpt lat="44.09133" lon="6.24444">
        <ele>614.2</ele>
        <time>2021-09-11T08:32:48Z</time>
      </trkpt>
      <trkpt lat="44.09133" lon="6.24449">
        <ele>614.4</ele>
        <time>2021-09-11T08:32:49Z</time>
      </trkpt>
      <trkpt lat="44.09133" lon="6.24453">
        <ele>614.5</ele>
        <time>2021-09-11T08:32:50Z</time>
      </trkpt>
      <trkpt lat="44.09133" lon="6.24458">
        <ele>614.8</ele>
        <time>2021-09-11T08:32:51Z</time>
      </trkpt>
      <trkpt lat="44.09133" lon="6.2446">
        <ele>614.8</ele>
        <time>2021-09-11T08:32:52Z</time>
      </trkpt>
      <trkpt lat="44.09132" lon="6.24464">
        <ele>615</ele>
        <time>2021-09-11T08:32:53Z</time>
      </trkpt>
      <trkpt lat="44.09132" lon="6.24467">
        <ele>615.2</ele>
        <time>2021-09-11T08:32:54Z</time>
      </trkpt>
      <trkpt lat="44.09133" lon="6.24472">
        <ele>615.3</ele>
        <time>2021-09-11T08:32:56Z</time>
      </trkpt>
      <trkpt lat="44.09134" lon="6.24475">
        <ele>615.5</ele>
        <time>2021-09-11T08:32:57Z</time>
      </trkpt>
      <trkpt lat="44.09135" lon="6.2448">
        <ele>615.7</ele>
        <time>2021-09-11T08:32:58Z</time>
      </trkpt>
      <trkpt lat="44.09135" lon="6.24481">
        <ele>615.8</ele>
        <time>2021-09-11T08:32:59Z</time>
      </trkpt>
      <trkpt lat="44.09136" lon="6.24487">
        <ele>616</ele>
        <time>2021-09-11T08:33:00Z</time>
      </trkpt>
      <trkpt lat="44.09136" lon="6.24489">
        <ele>616.1</ele>
        <time>2021-09-11T08:33:01Z</time>
      </trkpt>
      <trkpt lat="44.09137" lon="6.24493">
        <ele>616.2</ele>
        <time>2021-09-11T08:33:02Z</time>
      </trkpt>
      <trkpt lat="44.09138" lon="6.24497">
        <ele>616.4</ele>
        <time>2021-09-11T08:33:03Z</time>
      </trkpt>
      <trkpt lat="44.09138" lon="6.24501">
        <ele>616.5</ele>
        <time>2021-09-11T08:33:04Z</time>
      </trkpt>
      <trkpt lat="44.09138" lon="6.24506">
        <ele>616.7</ele>
        <time>2021-09-11T08:33:06Z</time>
      </trkpt>
      <trkpt lat="44.09138" lon="6.24508">
        <ele>616.7</ele>
        <time>2021-09-11T08:33:07Z</time>
      </trkpt>
      <trkpt lat="44.09139" lon="6.24514">
        <ele>616.8</ele>
        <time>2021-09-11T08:33:08Z</time>
      </trkpt>
      <trkpt lat="44.0914" lon="6.24517">
        <ele>616.9</ele>
        <time>2021-09-11T08:33:09Z</time>
      </trkpt>
      <trkpt lat="44.0914" lon="6.24521">
        <ele>617</ele>
        <time>2021-09-11T08:33:10Z</time>
      </trkpt>
      <trkpt lat="44.0914" lon="6.24526">
        <ele>617</ele>
        <time>2021-09-11T08:33:11Z</time>
      </trkpt>
      <trkpt lat="44.09141" lon="6.2453">
        <ele>617.1</ele>
        <time>2021-09-11T08:33:12Z</time>
      </trkpt>
      <trkpt lat="44.09141" lon="6.24534">
        <ele>617.1</ele>
        <time>2021-09-11T08:33:14Z</time>
      </trkpt>
      <trkpt lat="44.09141" lon="6.24538">
        <ele>617.2</ele>
        <time>2021-09-11T08:33:15Z</time>
      </trkpt>
      <trkpt lat="44.09141" lon="6.24542">
        <ele>617.2</ele>
        <time>2021-09-11T08:33:16Z</time>
      </trkpt>
      <trkpt lat="44.09141" lon="6.24548">
        <ele>617.3</ele>
        <time>2021-09-11T08:33:17Z</time>
      </trkpt>
      <trkpt lat="44.09143" lon="6.24552">
        <ele>617.3</ele>
        <time>2021-09-11T08:33:18Z</time>
      </trkpt>
      <trkpt lat="44.09143" lon="6.24559">
        <ele>617.3</ele>
        <time>2021-09-11T08:33:20Z</time>
      </trkpt>
      <trkpt lat="44.09143" lon="6.24566">
        <ele>617.4</ele>
        <time>2021-09-11T08:33:21Z</time>
      </trkpt>
      <trkpt lat="44.09144" lon="6.24572">
        <ele>617.4</ele>
        <time>2021-09-11T08:33:23Z</time>
      </trkpt>
      <trkpt lat="44.09145" lon="6.24581">
        <ele>617.5</ele>
        <time>2021-09-11T08:33:24Z</time>
      </trkpt>
      <trkpt lat="44.09146" lon="6.24587">
        <ele>617.5</ele>
        <time>2021-09-11T08:33:25Z</time>
      </trkpt>
      <trkpt lat="44.09146" lon="6.24593">
        <ele>617.5</ele>
        <time>2021-09-11T08:33:27Z</time>
      </trkpt>
      <trkpt lat="44.09145" lon="6.24599">
        <ele>617.5</ele>
        <time>2021-09-11T08:33:28Z</time>
      </trkpt>
      <trkpt lat="44.09144" lon="6.24609">
        <ele>617.6</ele>
        <time>2021-09-11T08:33:30Z</time>
      </trkpt>
      <trkpt lat="44.09144" lon="6.24619">
        <ele>617.6</ele>
        <time>2021-09-11T08:33:32Z</time>
      </trkpt>
      <trkpt lat="44.09143" lon="6.24628">
        <ele>617.6</ele>
        <time>2021-09-11T08:33:34Z</time>
      </trkpt>
      <trkpt lat="44.09142" lon="6.24635">
        <ele>617.6</ele>
        <time>2021-09-11T08:33:35Z</time>
      </trkpt>
      <trkpt lat="44.09141" lon="6.24641">
        <ele>617.6</ele>
        <time>2021-09-11T08:33:36Z</time>
      </trkpt>
      <trkpt lat="44.09139" lon="6.2465">
        <ele>617.6</ele>
        <time>2021-09-11T08:33:38Z</time>
      </trkpt>
      <trkpt lat="44.09137" lon="6.24658">
        <ele>617.6</ele>
        <time>2021-09-11T08:33:39Z</time>
      </trkpt>
      <trkpt lat="44.09136" lon="6.2467">
        <ele>617.6</ele>
        <time>2021-09-11T08:33:41Z</time>
      </trkpt>
      <trkpt lat="44.09135" lon="6.24679">
        <ele>617.6</ele>
        <time>2021-09-11T08:33:42Z</time>
      </trkpt>
      <trkpt lat="44.09132" lon="6.24685">
        <ele>617.6</ele>
        <time>2021-09-11T08:33:44Z</time>
      </trkpt>
      <trkpt lat="44.09131" lon="6.24694">
        <ele>617.6</ele>
        <time>2021-09-11T08:33:45Z</time>
      </trkpt>
      <trkpt lat="44.09132" lon="6.247">
        <ele>617.5</ele>
        <time>2021-09-11T08:33:46Z</time>
      </trkpt>
      <trkpt lat="44.09132" lon="6.24708">
        <ele>617.5</ele>
        <time>2021-09-11T08:33:47Z</time>
      </trkpt>
      <trkpt lat="44.09131" lon="6.24722">
        <ele>617.5</ele>
        <time>2021-09-11T08:33:49Z</time>
      </trkpt>
      <trkpt lat="44.09131" lon="6.24729">
        <ele>617.5</ele>
        <time>2021-09-11T08:33:50Z</time>
      </trkpt>
      <trkpt lat="44.0913" lon="6.24736">
        <ele>617.5</ele>
        <time>2021-09-11T08:33:51Z</time>
      </trkpt>
      <trkpt lat="44.09128" lon="6.24749">
        <ele>617.5</ele>
        <time>2021-09-11T08:33:53Z</time>
      </trkpt>
      <trkpt lat="44.09127" lon="6.24755">
        <ele>617.5</ele>
        <time>2021-09-11T08:33:54Z</time>
      </trkpt>
      <trkpt lat="44.09126" lon="6.24761">
        <ele>617.5</ele>
        <time>2021-09-11T08:33:55Z</time>
      </trkpt>
      <trkpt lat="44.09124" lon="6.2477">
        <ele>617.5</ele>
        <time>2021-09-11T08:33:57Z</time>
      </trkpt>
      <trkpt lat="44.09119" lon="6.2478">
        <ele>617.5</ele>
        <time>2021-09-11T08:33:59Z</time>
      </trkpt>
      <trkpt lat="44.09116" lon="6.24787">
        <ele>617.5</ele>
        <time>2021-09-11T08:34:00Z</time>
      </trkpt>
      <trkpt lat="44.09112" lon="6.24792">
        <ele>617.5</ele>
        <time>2021-09-11T08:34:02Z</time>
      </trkpt>
      <trkpt lat="44.09109" lon="6.24798">
        <ele>617.5</ele>
        <time>2021-09-11T08:34:03Z</time>
      </trkpt>
      <trkpt lat="44.09107" lon="6.24803">
        <ele>617.6</ele>
        <time>2021-09-11T08:34:04Z</time>
      </trkpt>
      <trkpt lat="44.09104" lon="6.24808">
        <ele>617.6</ele>
        <time>2021-09-11T08:34:05Z</time>
      </trkpt>
      <trkpt lat="44.091" lon="6.24815">
        <ele>617.6</ele>
        <time>2021-09-11T08:34:07Z</time>
      </trkpt>
      <trkpt lat="44.09097" lon="6.2482">
        <ele>617.6</ele>
        <time>2021-09-11T08:34:08Z</time>
      </trkpt>
      <trkpt lat="44.09094" lon="6.2483">
        <ele>617.7</ele>
        <time>2021-09-11T08:34:10Z</time>
      </trkpt>
      <trkpt lat="44.09092" lon="6.24835">
        <ele>617.8</ele>
        <time>2021-09-11T08:34:11Z</time>
      </trkpt>
      <trkpt lat="44.09089" lon="6.24846">
        <ele>617.9</ele>
        <time>2021-09-11T08:34:13Z</time>
      </trkpt>
      <trkpt lat="44.09085" lon="6.2485">
        <ele>618</ele>
        <time>2021-09-11T08:34:14Z</time>
      </trkpt>
      <trkpt lat="44.09077" lon="6.24858">
        <ele>618.2</ele>
        <time>2021-09-11T08:34:16Z</time>
      </trkpt>
      <trkpt lat="44.09073" lon="6.24862">
        <ele>618.3</ele>
        <time>2021-09-11T08:34:17Z</time>
      </trkpt>
      <trkpt lat="44.09069" lon="6.24865">
        <ele>618.5</ele>
        <time>2021-09-11T08:34:18Z</time>
      </trkpt>
      <trkpt lat="44.09063" lon="6.24868">
        <ele>618.6</ele>
        <time>2021-09-11T08:34:19Z</time>
      </trkpt>
      <trkpt lat="44.09058" lon="6.24871">
        <ele>618.8</ele>
        <time>2021-09-11T08:34:21Z</time>
      </trkpt>
      <trkpt lat="44.09054" lon="6.24874">
        <ele>618.9</ele>
        <time>2021-09-11T08:34:22Z</time>
      </trkpt>
      <trkpt lat="44.0905" lon="6.24877">
        <ele>619.1</ele>
        <time>2021-09-11T08:34:23Z</time>
      </trkpt>
      <trkpt lat="44.09048" lon="6.2488">
        <ele>619.1</ele>
        <time>2021-09-11T08:34:24Z</time>
      </trkpt>
      <trkpt lat="44.09045" lon="6.24885">
        <ele>619.3</ele>
        <time>2021-09-11T08:34:26Z</time>
      </trkpt>
      <trkpt lat="44.09044" lon="6.24887">
        <ele>619.3</ele>
        <time>2021-09-11T08:34:27Z</time>
      </trkpt>
      <trkpt lat="44.09043" lon="6.2489">
        <ele>619.4</ele>
        <time>2021-09-11T08:34:29Z</time>
      </trkpt>
      <trkpt lat="44.09042" lon="6.24892">
        <ele>619.4</ele>
        <time>2021-09-11T08:34:31Z</time>
      </trkpt>
      <trkpt lat="44.09041" lon="6.24894">
        <ele>619.5</ele>
        <time>2021-09-11T08:34:32Z</time>
      </trkpt>
      <trkpt lat="44.0904" lon="6.24897">
        <ele>619.5</ele>
        <time>2021-09-11T08:34:34Z</time>
      </trkpt>
      <trkpt lat="44.09039" lon="6.24899">
        <ele>619.6</ele>
        <time>2021-09-11T08:34:36Z</time>
      </trkpt>
      <trkpt lat="44.09038" lon="6.24901">
        <ele>619.6</ele>
        <time>2021-09-11T08:34:37Z</time>
      </trkpt>
      <trkpt lat="44.09037" lon="6.24903">
        <ele>619.7</ele>
        <time>2021-09-11T08:35:40Z</time>
      </trkpt>
      <trkpt lat="44.09037" lon="6.24906">
        <ele>619.7</ele>
        <time>2021-09-11T08:35:41Z</time>
      </trkpt>
      <trkpt lat="44.09032" lon="6.24912">
        <ele>619.9</ele>
        <time>2021-09-11T08:35:42Z</time>
      </trkpt>
      <trkpt lat="44.09027" lon="6.24919">
        <ele>620.1</ele>
        <time>2021-09-11T08:35:44Z</time>
      </trkpt>
      <trkpt lat="44.09023" lon="6.24925">
        <ele>620.3</ele>
        <time>2021-09-11T08:35:45Z</time>
      </trkpt>
      <trkpt lat="44.0902" lon="6.24929">
        <ele>620.4</ele>
        <time>2021-09-11T08:35:46Z</time>
      </trkpt>
      <trkpt lat="44.09018" lon="6.24934">
        <ele>620.5</ele>
        <time>2021-09-11T08:35:48Z</time>
      </trkpt>
      <trkpt lat="44.09016" lon="6.24939">
        <ele>620.6</ele>
        <time>2021-09-11T08:35:49Z</time>
      </trkpt>
      <trkpt lat="44.09015" lon="6.24943">
        <ele>620.7</ele>
        <time>2021-09-11T08:35:50Z</time>
      </trkpt>
      <trkpt lat="44.09013" lon="6.24948">
        <ele>620.8</ele>
        <time>2021-09-11T08:35:52Z</time>
      </trkpt>
      <trkpt lat="44.09012" lon="6.24953">
        <ele>620.9</ele>
        <time>2021-09-11T08:35:53Z</time>
      </trkpt>
      <trkpt lat="44.09011" lon="6.24958">
        <ele>621.1</ele>
        <time>2021-09-11T08:35:54Z</time>
      </trkpt>
      <trkpt lat="44.09011" lon="6.24963">
        <ele>621.2</ele>
        <time>2021-09-11T08:35:55Z</time>
      </trkpt>
      <trkpt lat="44.0901" lon="6.24968">
        <ele>621.3</ele>
        <time>2021-09-11T08:35:56Z</time>
      </trkpt>
      <trkpt lat="44.0901" lon="6.24973">
        <ele>621.4</ele>
        <time>2021-09-11T08:35:58Z</time>
      </trkpt>
      <trkpt lat="44.09009" lon="6.24978">
        <ele>621.5</ele>
        <time>2021-09-11T08:35:59Z</time>
      </trkpt>
      <trkpt lat="44.09009" lon="6.24983">
        <ele>621.5</ele>
        <time>2021-09-11T08:36:00Z</time>
      </trkpt>
      <trkpt lat="44.09007" lon="6.24988">
        <ele>621.6</ele>
        <time>2021-09-11T08:36:01Z</time>
      </trkpt>
      <trkpt lat="44.09006" lon="6.24993">
        <ele>621.8</ele>
        <time>2021-09-11T08:36:02Z</time>
      </trkpt>
      <trkpt lat="44.09005" lon="6.24997">
        <ele>621.9</ele>
        <time>2021-09-11T08:36:03Z</time>
      </trkpt>
      <trkpt lat="44.09001" lon="6.25005">
        <ele>622</ele>
        <time>2021-09-11T08:36:05Z</time>
      </trkpt>
      <trkpt lat="44.08999" lon="6.25009">
        <ele>622.1</ele>
        <time>2021-09-11T08:36:06Z</time>
      </trkpt>
      <trkpt lat="44.08997" lon="6.25014">
        <ele>622.3</ele>
        <time>2021-09-11T08:36:08Z</time>
      </trkpt>
      <trkpt lat="44.08995" lon="6.25018">
        <ele>622.4</ele>
        <time>2021-09-11T08:36:09Z</time>
      </trkpt>
      <trkpt lat="44.08993" lon="6.25021">
        <ele>622.5</ele>
        <time>2021-09-11T08:36:10Z</time>
      </trkpt>
      <trkpt lat="44.08991" lon="6.25026">
        <ele>622.6</ele>
        <time>2021-09-11T08:36:11Z</time>
      </trkpt>
      <trkpt lat="44.08989" lon="6.25029">
        <ele>622.7</ele>
        <time>2021-09-11T08:36:12Z</time>
      </trkpt>
      <trkpt lat="44.08987" lon="6.25033">
        <ele>622.8</ele>
        <time>2021-09-11T08:36:13Z</time>
      </trkpt>
      <trkpt lat="44.08985" lon="6.25037">
        <ele>622.9</ele>
        <time>2021-09-11T08:36:14Z</time>
      </trkpt>
      <trkpt lat="44.08983" lon="6.25041">
        <ele>623</ele>
        <time>2021-09-11T08:36:15Z</time>
      </trkpt>
      <trkpt lat="44.08981" lon="6.25048">
        <ele>623.1</ele>
        <time>2021-09-11T08:36:17Z</time>
      </trkpt>
      <trkpt lat="44.08979" lon="6.25053">
        <ele>623.2</ele>
        <time>2021-09-11T08:36:18Z</time>
      </trkpt>
      <trkpt lat="44.08979" lon="6.25055">
        <ele>623.2</ele>
        <time>2021-09-11T08:36:19Z</time>
      </trkpt>
      <trkpt lat="44.08977" lon="6.25061">
        <ele>623.4</ele>
        <time>2021-09-11T08:36:21Z</time>
      </trkpt>
      <trkpt lat="44.08976" lon="6.25069">
        <ele>623.5</ele>
        <time>2021-09-11T08:36:22Z</time>
      </trkpt>
      <trkpt lat="44.08975" lon="6.25074">
        <ele>623.6</ele>
        <time>2021-09-11T08:36:23Z</time>
      </trkpt>
      <trkpt lat="44.08974" lon="6.25078">
        <ele>623.7</ele>
        <time>2021-09-11T08:36:24Z</time>
      </trkpt>
      <trkpt lat="44.08973" lon="6.25084">
        <ele>623.8</ele>
        <time>2021-09-11T08:36:26Z</time>
      </trkpt>
      <trkpt lat="44.08973" lon="6.25088">
        <ele>623.9</ele>
        <time>2021-09-11T08:36:27Z</time>
      </trkpt>
      <trkpt lat="44.08972" lon="6.25093">
        <ele>623.9</ele>
        <time>2021-09-11T08:36:28Z</time>
      </trkpt>
      <trkpt lat="44.08971" lon="6.25098">
        <ele>624</ele>
        <time>2021-09-11T08:36:29Z</time>
      </trkpt>
      <trkpt lat="44.08971" lon="6.25103">
        <ele>624.1</ele>
        <time>2021-09-11T08:36:31Z</time>
      </trkpt>
      <trkpt lat="44.08969" lon="6.25107">
        <ele>624.2</ele>
        <time>2021-09-11T08:36:32Z</time>
      </trkpt>
      <trkpt lat="44.08968" lon="6.25112">
        <ele>624.3</ele>
        <time>2021-09-11T08:36:34Z</time>
      </trkpt>
      <trkpt lat="44.08967" lon="6.25118">
        <ele>624.4</ele>
        <time>2021-09-11T08:36:35Z</time>
      </trkpt>
      <trkpt lat="44.08966" lon="6.25122">
        <ele>624.5</ele>
        <time>2021-09-11T08:36:36Z</time>
      </trkpt>
      <trkpt lat="44.08965" lon="6.25125">
        <ele>624.6</ele>
        <time>2021-09-11T08:36:37Z</time>
      </trkpt>
      <trkpt lat="44.08965" lon="6.2513">
        <ele>624.7</ele>
        <time>2021-09-11T08:36:39Z</time>
      </trkpt>
      <trkpt lat="44.08963" lon="6.25135">
        <ele>624.8</ele>
        <time>2021-09-11T08:36:40Z</time>
      </trkpt>
      <trkpt lat="44.08962" lon="6.25141">
        <ele>624.9</ele>
        <time>2021-09-11T08:36:42Z</time>
      </trkpt>
      <trkpt lat="44.08961" lon="6.25145">
        <ele>625</ele>
        <time>2021-09-11T08:36:43Z</time>
      </trkpt>
      <trkpt lat="44.08961" lon="6.25146">
        <ele>625</ele>
        <time>2021-09-11T08:36:44Z</time>
      </trkpt>
      <trkpt lat="44.08959" lon="6.25152">
        <ele>625.2</ele>
        <time>2021-09-11T08:36:46Z</time>
      </trkpt>
      <trkpt lat="44.08956" lon="6.25156">
        <ele>625.3</ele>
        <time>2021-09-11T08:36:47Z</time>
      </trkpt>
      <trkpt lat="44.08955" lon="6.25159">
        <ele>625.4</ele>
        <time>2021-09-11T08:36:48Z</time>
      </trkpt>
      <trkpt lat="44.08955" lon="6.25166">
        <ele>625.5</ele>
        <time>2021-09-11T08:36:50Z</time>
      </trkpt>
      <trkpt lat="44.08953" lon="6.25173">
        <ele>625.7</ele>
        <time>2021-09-11T08:36:52Z</time>
      </trkpt>
      <trkpt lat="44.08951" lon="6.25183">
        <ele>625.9</ele>
        <time>2021-09-11T08:36:54Z</time>
      </trkpt>
      <trkpt lat="44.08949" lon="6.25191">
        <ele>626.1</ele>
        <time>2021-09-11T08:36:56Z</time>
      </trkpt>
      <trkpt lat="44.08947" lon="6.25199">
        <ele>626.3</ele>
        <time>2021-09-11T08:36:58Z</time>
      </trkpt>
      <trkpt lat="44.08946" lon="6.25205">
        <ele>626.5</ele>
        <time>2021-09-11T08:36:59Z</time>
      </trkpt>
      <trkpt lat="44.08945" lon="6.2521">
        <ele>626.6</ele>
        <time>2021-09-11T08:37:00Z</time>
      </trkpt>
      <trkpt lat="44.08945" lon="6.25215">
        <ele>626.8</ele>
        <time>2021-09-11T08:37:01Z</time>
      </trkpt>
      <trkpt lat="44.08944" lon="6.25219">
        <ele>626.9</ele>
        <time>2021-09-11T08:37:02Z</time>
      </trkpt>
      <trkpt lat="44.08943" lon="6.25227">
        <ele>627.1</ele>
        <time>2021-09-11T08:37:04Z</time>
      </trkpt>
      <trkpt lat="44.08943" lon="6.25232">
        <ele>627.2</ele>
        <time>2021-09-11T08:37:05Z</time>
      </trkpt>
      <trkpt lat="44.08942" lon="6.25237">
        <ele>627.3</ele>
        <time>2021-09-11T08:37:07Z</time>
      </trkpt>
      <trkpt lat="44.08942" lon="6.25242">
        <ele>627.4</ele>
        <time>2021-09-11T08:37:08Z</time>
      </trkpt>
      <trkpt lat="44.08941" lon="6.25249">
        <ele>627.5</ele>
        <time>2021-09-11T08:37:10Z</time>
      </trkpt>
      <trkpt lat="44.08941" lon="6.25256">
        <ele>627.6</ele>
        <time>2021-09-11T08:37:12Z</time>
      </trkpt>
      <trkpt lat="44.08941" lon="6.25264">
        <ele>627.7</ele>
        <time>2021-09-11T08:37:14Z</time>
      </trkpt>
      <trkpt lat="44.0894" lon="6.25269">
        <ele>627.8</ele>
        <time>2021-09-11T08:37:15Z</time>
      </trkpt>
      <trkpt lat="44.0894" lon="6.25278">
        <ele>627.8</ele>
        <time>2021-09-11T08:37:17Z</time>
      </trkpt>
      <trkpt lat="44.08939" lon="6.25287">
        <ele>627.8</ele>
        <time>2021-09-11T08:37:19Z</time>
      </trkpt>
      <trkpt lat="44.08938" lon="6.25293">
        <ele>627.8</ele>
        <time>2021-09-11T08:37:20Z</time>
      </trkpt>
      <trkpt lat="44.08938" lon="6.253">
        <ele>627.8</ele>
        <time>2021-09-11T08:37:21Z</time>
      </trkpt>
      <trkpt lat="44.08938" lon="6.25311">
        <ele>627.8</ele>
        <time>2021-09-11T08:37:23Z</time>
      </trkpt>
      <trkpt lat="44.08937" lon="6.25318">
        <ele>627.7</ele>
        <time>2021-09-11T08:37:24Z</time>
      </trkpt>
      <trkpt lat="44.08936" lon="6.25333">
        <ele>627.5</ele>
        <time>2021-09-11T08:37:26Z</time>
      </trkpt>
      <trkpt lat="44.08934" lon="6.25344">
        <ele>627.4</ele>
        <time>2021-09-11T08:37:28Z</time>
      </trkpt>
      <trkpt lat="44.08934" lon="6.25349">
        <ele>627.3</ele>
        <time>2021-09-11T08:37:29Z</time>
      </trkpt>
      <trkpt lat="44.08935" lon="6.25357">
        <ele>627.2</ele>
        <time>2021-09-11T08:37:30Z</time>
      </trkpt>
      <trkpt lat="44.08934" lon="6.25367">
        <ele>627.1</ele>
        <time>2021-09-11T08:37:31Z</time>
      </trkpt>
      <trkpt lat="44.08934" lon="6.25376">
        <ele>626.9</ele>
        <time>2021-09-11T08:37:32Z</time>
      </trkpt>
      <trkpt lat="44.08934" lon="6.25385">
        <ele>626.8</ele>
        <time>2021-09-11T08:37:33Z</time>
      </trkpt>
      <trkpt lat="44.08934" lon="6.25403">
        <ele>626.5</ele>
        <time>2021-09-11T08:37:35Z</time>
      </trkpt>
      <trkpt lat="44.08935" lon="6.25411">
        <ele>626.4</ele>
        <time>2021-09-11T08:37:36Z</time>
      </trkpt>
      <trkpt lat="44.08938" lon="6.25427">
        <ele>626.3</ele>
        <time>2021-09-11T08:37:38Z</time>
      </trkpt>
      <trkpt lat="44.0894" lon="6.25436">
        <ele>626.3</ele>
        <time>2021-09-11T08:37:39Z</time>
      </trkpt>
      <trkpt lat="44.08945" lon="6.25452">
        <ele>626.2</ele>
        <time>2021-09-11T08:37:41Z</time>
      </trkpt>
      <trkpt lat="44.08948" lon="6.25458">
        <ele>626.2</ele>
        <time>2021-09-11T08:37:42Z</time>
      </trkpt>
      <trkpt lat="44.08953" lon="6.25469">
        <ele>626.2</ele>
        <time>2021-09-11T08:37:44Z</time>
      </trkpt>
      <trkpt lat="44.08956" lon="6.25474">
        <ele>626.3</ele>
        <time>2021-09-11T08:37:45Z</time>
      </trkpt>
      <trkpt lat="44.08962" lon="6.25483">
        <ele>626.3</ele>
        <time>2021-09-11T08:37:47Z</time>
      </trkpt>
      <trkpt lat="44.08968" lon="6.25491">
        <ele>626.3</ele>
        <time>2021-09-11T08:37:49Z</time>
      </trkpt>
      <trkpt lat="44.08971" lon="6.25495">
        <ele>626.4</ele>
        <time>2021-09-11T08:37:50Z</time>
      </trkpt>
      <trkpt lat="44.08974" lon="6.255">
        <ele>626.4</ele>
        <time>2021-09-11T08:37:51Z</time>
      </trkpt>
      <trkpt lat="44.08976" lon="6.25501">
        <ele>626.4</ele>
        <time>2021-09-11T08:37:53Z</time>
      </trkpt>
      <trkpt lat="44.08977" lon="6.25503">
        <ele>626.4</ele>
        <time>2021-09-11T08:37:54Z</time>
      </trkpt>
      <trkpt lat="44.08982" lon="6.25508">
        <ele>626.4</ele>
        <time>2021-09-11T08:37:55Z</time>
      </trkpt>
      <trkpt lat="44.08986" lon="6.25514">
        <ele>626.4</ele>
        <time>2021-09-11T08:37:56Z</time>
      </trkpt>
      <trkpt lat="44.0899" lon="6.25519">
        <ele>626.4</ele>
        <time>2021-09-11T08:37:57Z</time>
      </trkpt>
      <trkpt lat="44.08997" lon="6.2553">
        <ele>626.4</ele>
        <time>2021-09-11T08:37:59Z</time>
      </trkpt>
      <trkpt lat="44.09001" lon="6.25534">
        <ele>626.4</ele>
        <time>2021-09-11T08:38:00Z</time>
      </trkpt>
      <trkpt lat="44.09006" lon="6.25539">
        <ele>626.5</ele>
        <time>2021-09-11T08:38:01Z</time>
      </trkpt>
      <trkpt lat="44.0901" lon="6.25546">
        <ele>626.5</ele>
        <time>2021-09-11T08:38:03Z</time>
      </trkpt>
      <trkpt lat="44.09012" lon="6.2555">
        <ele>626.6</ele>
        <time>2021-09-11T08:38:04Z</time>
      </trkpt>
      <trkpt lat="44.09014" lon="6.25554">
        <ele>626.6</ele>
        <time>2021-09-11T08:38:05Z</time>
      </trkpt>
      <trkpt lat="44.09015" lon="6.25559">
        <ele>626.7</ele>
        <time>2021-09-11T08:38:06Z</time>
      </trkpt>
      <trkpt lat="44.09017" lon="6.25568">
        <ele>626.8</ele>
        <time>2021-09-11T08:38:08Z</time>
      </trkpt>
      <trkpt lat="44.09019" lon="6.25576">
        <ele>626.9</ele>
        <time>2021-09-11T08:38:09Z</time>
      </trkpt>
      <trkpt lat="44.0902" lon="6.25582">
        <ele>627.1</ele>
        <time>2021-09-11T08:38:10Z</time>
      </trkpt>
      <trkpt lat="44.09022" lon="6.25594">
        <ele>627.3</ele>
        <time>2021-09-11T08:38:12Z</time>
      </trkpt>
      <trkpt lat="44.09022" lon="6.256">
        <ele>627.4</ele>
        <time>2021-09-11T08:38:13Z</time>
      </trkpt>
      <trkpt lat="44.09023" lon="6.25607">
        <ele>627.5</ele>
        <time>2021-09-11T08:38:14Z</time>
      </trkpt>
      <trkpt lat="44.09024" lon="6.25614">
        <ele>627.6</ele>
        <time>2021-09-11T08:38:16Z</time>
      </trkpt>
      <trkpt lat="44.09025" lon="6.2562">
        <ele>627.7</ele>
        <time>2021-09-11T08:38:17Z</time>
      </trkpt>
      <trkpt lat="44.09025" lon="6.25627">
        <ele>627.8</ele>
        <time>2021-09-11T08:38:18Z</time>
      </trkpt>
      <trkpt lat="44.09026" lon="6.2564">
        <ele>627.9</ele>
        <time>2021-09-11T08:38:20Z</time>
      </trkpt>
      <trkpt lat="44.09028" lon="6.2565">
        <ele>628</ele>
        <time>2021-09-11T08:38:22Z</time>
      </trkpt>
      <trkpt lat="44.0903" lon="6.25659">
        <ele>628.1</ele>
        <time>2021-09-11T08:38:23Z</time>
      </trkpt>
      <trkpt lat="44.09032" lon="6.25666">
        <ele>628.2</ele>
        <time>2021-09-11T08:38:25Z</time>
      </trkpt>
      <trkpt lat="44.09034" lon="6.25672">
        <ele>628.2</ele>
        <time>2021-09-11T08:38:26Z</time>
      </trkpt>
      <trkpt lat="44.09035" lon="6.25677">
        <ele>628.3</ele>
        <time>2021-09-11T08:38:27Z</time>
      </trkpt>
      <trkpt lat="44.09038" lon="6.25682">
        <ele>628.3</ele>
        <time>2021-09-11T08:38:28Z</time>
      </trkpt>
      <trkpt lat="44.09041" lon="6.25687">
        <ele>628.3</ele>
        <time>2021-09-11T08:38:29Z</time>
      </trkpt>
      <trkpt lat="44.09044" lon="6.25691">
        <ele>628.4</ele>
        <time>2021-09-11T08:38:30Z</time>
      </trkpt>
      <trkpt lat="44.09047" lon="6.25695">
        <ele>628.4</ele>
        <time>2021-09-11T08:38:31Z</time>
      </trkpt>
      <trkpt lat="44.09052" lon="6.25703">
        <ele>628.6</ele>
        <time>2021-09-11T08:38:33Z</time>
      </trkpt>
      <trkpt lat="44.09055" lon="6.25707">
        <ele>628.6</ele>
        <time>2021-09-11T08:38:34Z</time>
      </trkpt>
      <trkpt lat="44.09058" lon="6.25712">
        <ele>628.7</ele>
        <time>2021-09-11T08:38:35Z</time>
      </trkpt>
      <trkpt lat="44.09061" lon="6.25719">
        <ele>628.9</ele>
        <time>2021-09-11T08:38:37Z</time>
      </trkpt>
      <trkpt lat="44.09063" lon="6.25725">
        <ele>628.9</ele>
        <time>2021-09-11T08:38:38Z</time>
      </trkpt>
      <trkpt lat="44.09064" lon="6.25729">
        <ele>629</ele>
        <time>2021-09-11T08:38:39Z</time>
      </trkpt>
      <trkpt lat="44.09066" lon="6.25735">
        <ele>629.1</ele>
        <time>2021-09-11T08:38:41Z</time>
      </trkpt>
      <trkpt lat="44.09068" lon="6.25743">
        <ele>629.2</ele>
        <time>2021-09-11T08:38:42Z</time>
      </trkpt>
      <trkpt lat="44.09069" lon="6.25751">
        <ele>629.3</ele>
        <time>2021-09-11T08:38:44Z</time>
      </trkpt>
      <trkpt lat="44.09069" lon="6.25756">
        <ele>629.4</ele>
        <time>2021-09-11T08:38:45Z</time>
      </trkpt>
      <trkpt lat="44.09068" lon="6.25761">
        <ele>629.5</ele>
        <time>2021-09-11T08:38:46Z</time>
      </trkpt>
      <trkpt lat="44.09068" lon="6.25766">
        <ele>629.5</ele>
        <time>2021-09-11T08:38:47Z</time>
      </trkpt>
      <trkpt lat="44.09068" lon="6.25771">
        <ele>629.5</ele>
        <time>2021-09-11T08:38:48Z</time>
      </trkpt>
      <trkpt lat="44.09067" lon="6.25781">
        <ele>629.6</ele>
        <time>2021-09-11T08:38:50Z</time>
      </trkpt>
      <trkpt lat="44.09067" lon="6.25793">
        <ele>629.8</ele>
        <time>2021-09-11T08:38:52Z</time>
      </trkpt>
      <trkpt lat="44.09067" lon="6.25799">
        <ele>629.8</ele>
        <time>2021-09-11T08:38:53Z</time>
      </trkpt>
      <trkpt lat="44.09067" lon="6.25805">
        <ele>629.9</ele>
        <time>2021-09-11T08:38:54Z</time>
      </trkpt>
      <trkpt lat="44.09067" lon="6.2581">
        <ele>629.9</ele>
        <time>2021-09-11T08:38:55Z</time>
      </trkpt>
      <trkpt lat="44.09067" lon="6.25816">
        <ele>630</ele>
        <time>2021-09-11T08:38:56Z</time>
      </trkpt>
      <trkpt lat="44.09066" lon="6.25822">
        <ele>630.1</ele>
        <time>2021-09-11T08:38:57Z</time>
      </trkpt>
      <trkpt lat="44.09066" lon="6.25827">
        <ele>630.1</ele>
        <time>2021-09-11T08:38:58Z</time>
      </trkpt>
      <trkpt lat="44.09064" lon="6.25837">
        <ele>630.2</ele>
        <time>2021-09-11T08:38:59Z</time>
      </trkpt>
      <trkpt lat="44.09064" lon="6.25843">
        <ele>630.3</ele>
        <time>2021-09-11T08:39:00Z</time>
      </trkpt>
      <trkpt lat="44.09067" lon="6.2585">
        <ele>630.4</ele>
        <time>2021-09-11T08:39:02Z</time>
      </trkpt>
      <trkpt lat="44.09067" lon="6.25857">
        <ele>630.4</ele>
        <time>2021-09-11T08:39:03Z</time>
      </trkpt>
      <trkpt lat="44.09065" lon="6.25864">
        <ele>630.5</ele>
        <time>2021-09-11T08:39:04Z</time>
      </trkpt>
      <trkpt lat="44.09063" lon="6.2587">
        <ele>630.6</ele>
        <time>2021-09-11T08:39:05Z</time>
      </trkpt>
      <trkpt lat="44.0906" lon="6.25877">
        <ele>630.7</ele>
        <time>2021-09-11T08:39:07Z</time>
      </trkpt>
      <trkpt lat="44.09057" lon="6.25882">
        <ele>630.7</ele>
        <time>2021-09-11T08:39:08Z</time>
      </trkpt>
      <trkpt lat="44.09054" lon="6.25889">
        <ele>630.8</ele>
        <time>2021-09-11T08:39:09Z</time>
      </trkpt>
      <trkpt lat="44.09052" lon="6.25893">
        <ele>630.8</ele>
        <time>2021-09-11T08:39:10Z</time>
      </trkpt>
      <trkpt lat="44.0905" lon="6.25897">
        <ele>630.9</ele>
        <time>2021-09-11T08:39:11Z</time>
      </trkpt>
      <trkpt lat="44.09045" lon="6.25904">
        <ele>630.9</ele>
        <time>2021-09-11T08:39:13Z</time>
      </trkpt>
      <trkpt lat="44.09041" lon="6.25911">
        <ele>630.9</ele>
        <time>2021-09-11T08:39:15Z</time>
      </trkpt>
      <trkpt lat="44.09038" lon="6.25915">
        <ele>630.9</ele>
        <time>2021-09-11T08:39:16Z</time>
      </trkpt>
      <trkpt lat="44.09035" lon="6.2592">
        <ele>630.9</ele>
        <time>2021-09-11T08:39:17Z</time>
      </trkpt>
      <trkpt lat="44.09032" lon="6.25923">
        <ele>630.9</ele>
        <time>2021-09-11T08:39:18Z</time>
      </trkpt>
      <trkpt lat="44.09029" lon="6.25927">
        <ele>630.9</ele>
        <time>2021-09-11T08:39:19Z</time>
      </trkpt>
      <trkpt lat="44.09025" lon="6.25933">
        <ele>631</ele>
        <time>2021-09-11T08:39:21Z</time>
      </trkpt>
      <trkpt lat="44.09021" lon="6.25939">
        <ele>631</ele>
        <time>2021-09-11T08:39:23Z</time>
      </trkpt>
      <trkpt lat="44.09018" lon="6.25943">
        <ele>631</ele>
        <time>2021-09-11T08:39:24Z</time>
      </trkpt>
      <trkpt lat="44.09015" lon="6.25949">
        <ele>631</ele>
        <time>2021-09-11T08:39:25Z</time>
      </trkpt>
      <trkpt lat="44.09011" lon="6.25954">
        <ele>631.1</ele>
        <time>2021-09-11T08:39:26Z</time>
      </trkpt>
      <trkpt lat="44.09007" lon="6.25961">
        <ele>631.1</ele>
        <time>2021-09-11T08:39:27Z</time>
      </trkpt>
      <trkpt lat="44.09004" lon="6.25967">
        <ele>631.1</ele>
        <time>2021-09-11T08:39:28Z</time>
      </trkpt>
      <trkpt lat="44.09002" lon="6.25973">
        <ele>631.1</ele>
        <time>2021-09-11T08:39:30Z</time>
      </trkpt>
      <trkpt lat="44.09" lon="6.25978">
        <ele>631.1</ele>
        <time>2021-09-11T08:39:31Z</time>
      </trkpt>
      <trkpt lat="44.08997" lon="6.25986">
        <ele>631.1</ele>
        <time>2021-09-11T08:39:32Z</time>
      </trkpt>
      <trkpt lat="44.08995" lon="6.25993">
        <ele>631.1</ele>
        <time>2021-09-11T08:39:34Z</time>
      </trkpt>
      <trkpt lat="44.08992" lon="6.26001">
        <ele>631.1</ele>
        <time>2021-09-11T08:39:35Z</time>
      </trkpt>
      <trkpt lat="44.0899" lon="6.26006">
        <ele>631.1</ele>
        <time>2021-09-11T08:39:36Z</time>
      </trkpt>
      <trkpt lat="44.08988" lon="6.26017">
        <ele>631.1</ele>
        <time>2021-09-11T08:39:38Z</time>
      </trkpt>
      <trkpt lat="44.08987" lon="6.26022">
        <ele>631.2</ele>
        <time>2021-09-11T08:39:39Z</time>
      </trkpt>
      <trkpt lat="44.08983" lon="6.26032">
        <ele>631.2</ele>
        <time>2021-09-11T08:39:41Z</time>
      </trkpt>
      <trkpt lat="44.08979" lon="6.26041">
        <ele>631.2</ele>
        <time>2021-09-11T08:39:43Z</time>
      </trkpt>
      <trkpt lat="44.08977" lon="6.26046">
        <ele>631.2</ele>
        <time>2021-09-11T08:39:44Z</time>
      </trkpt>
      <trkpt lat="44.08975" lon="6.26057">
        <ele>631.3</ele>
        <time>2021-09-11T08:39:46Z</time>
      </trkpt>
      <trkpt lat="44.08975" lon="6.26067">
        <ele>631.3</ele>
        <time>2021-09-11T08:39:48Z</time>
      </trkpt>
      <trkpt lat="44.08973" lon="6.26075">
        <ele>631.3</ele>
        <time>2021-09-11T08:39:49Z</time>
      </trkpt>
      <trkpt lat="44.08972" lon="6.26081">
        <ele>631.3</ele>
        <time>2021-09-11T08:39:50Z</time>
      </trkpt>
      <trkpt lat="44.0897" lon="6.26089">
        <ele>631.3</ele>
        <time>2021-09-11T08:39:51Z</time>
      </trkpt>
      <trkpt lat="44.0897" lon="6.26097">
        <ele>631.3</ele>
        <time>2021-09-11T08:39:52Z</time>
      </trkpt>
      <trkpt lat="44.08967" lon="6.26105">
        <ele>631.3</ele>
        <time>2021-09-11T08:39:54Z</time>
      </trkpt>
      <trkpt lat="44.08964" lon="6.26114">
        <ele>631.3</ele>
        <time>2021-09-11T08:39:55Z</time>
      </trkpt>
      <trkpt lat="44.08958" lon="6.26126">
        <ele>631.3</ele>
        <time>2021-09-11T08:39:57Z</time>
      </trkpt>
      <trkpt lat="44.08954" lon="6.26134">
        <ele>631.3</ele>
        <time>2021-09-11T08:39:59Z</time>
      </trkpt>
      <trkpt lat="44.08951" lon="6.2614">
        <ele>631.4</ele>
        <time>2021-09-11T08:40:00Z</time>
      </trkpt>
      <trkpt lat="44.08946" lon="6.26146">
        <ele>631.4</ele>
        <time>2021-09-11T08:40:01Z</time>
      </trkpt>
      <trkpt lat="44.08942" lon="6.26151">
        <ele>631.4</ele>
        <time>2021-09-11T08:40:02Z</time>
      </trkpt>
      <trkpt lat="44.08937" lon="6.26156">
        <ele>631.4</ele>
        <time>2021-09-11T08:40:03Z</time>
      </trkpt>
      <trkpt lat="44.08932" lon="6.26163">
        <ele>631.5</ele>
        <time>2021-09-11T08:40:05Z</time>
      </trkpt>
      <trkpt lat="44.08928" lon="6.26167">
        <ele>631.5</ele>
        <time>2021-09-11T08:40:06Z</time>
      </trkpt>
      <trkpt lat="44.08922" lon="6.26174">
        <ele>631.6</ele>
        <time>2021-09-11T08:40:08Z</time>
      </trkpt>
      <trkpt lat="44.08914" lon="6.26183">
        <ele>631.7</ele>
        <time>2021-09-11T08:40:10Z</time>
      </trkpt>
      <trkpt lat="44.08909" lon="6.26189">
        <ele>631.8</ele>
        <time>2021-09-11T08:40:12Z</time>
      </trkpt>
      <trkpt lat="44.08909" lon="6.26194">
        <ele>631.8</ele>
        <time>2021-09-11T08:40:13Z</time>
      </trkpt>
      <trkpt lat="44.08905" lon="6.26198">
        <ele>631.9</ele>
        <time>2021-09-11T08:40:14Z</time>
      </trkpt>
      <trkpt lat="44.089" lon="6.26204">
        <ele>632</ele>
        <time>2021-09-11T08:40:15Z</time>
      </trkpt>
      <trkpt lat="44.08897" lon="6.26209">
        <ele>632.1</ele>
        <time>2021-09-11T08:40:16Z</time>
      </trkpt>
      <trkpt lat="44.08893" lon="6.26214">
        <ele>632.1</ele>
        <time>2021-09-11T08:40:18Z</time>
      </trkpt>
      <trkpt lat="44.08891" lon="6.26218">
        <ele>632.2</ele>
        <time>2021-09-11T08:40:19Z</time>
      </trkpt>
      <trkpt lat="44.08889" lon="6.26223">
        <ele>632.3</ele>
        <time>2021-09-11T08:40:20Z</time>
      </trkpt>
      <trkpt lat="44.08888" lon="6.26228">
        <ele>632.4</ele>
        <time>2021-09-11T08:40:21Z</time>
      </trkpt>
      <trkpt lat="44.08886" lon="6.26233">
        <ele>632.4</ele>
        <time>2021-09-11T08:40:22Z</time>
      </trkpt>
      <trkpt lat="44.08884" lon="6.26239">
        <ele>632.5</ele>
        <time>2021-09-11T08:40:23Z</time>
      </trkpt>
      <trkpt lat="44.08882" lon="6.26244">
        <ele>632.6</ele>
        <time>2021-09-11T08:40:24Z</time>
      </trkpt>
      <trkpt lat="44.0888" lon="6.26249">
        <ele>632.7</ele>
        <time>2021-09-11T08:40:25Z</time>
      </trkpt>
      <trkpt lat="44.08878" lon="6.26254">
        <ele>632.7</ele>
        <time>2021-09-11T08:40:26Z</time>
      </trkpt>
      <trkpt lat="44.08875" lon="6.26259">
        <ele>632.8</ele>
        <time>2021-09-11T08:40:27Z</time>
      </trkpt>
      <trkpt lat="44.08873" lon="6.26263">
        <ele>632.9</ele>
        <time>2021-09-11T08:40:28Z</time>
      </trkpt>
      <trkpt lat="44.08871" lon="6.26267">
        <ele>633</ele>
        <time>2021-09-11T08:40:29Z</time>
      </trkpt>
      <trkpt lat="44.08869" lon="6.2627">
        <ele>633</ele>
        <time>2021-09-11T08:40:31Z</time>
      </trkpt>
      <trkpt lat="44.08867" lon="6.26274">
        <ele>633.1</ele>
        <time>2021-09-11T08:40:32Z</time>
      </trkpt>
      <trkpt lat="44.08865" lon="6.2628">
        <ele>633.2</ele>
        <time>2021-09-11T08:40:33Z</time>
      </trkpt>
      <trkpt lat="44.08863" lon="6.26284">
        <ele>633.2</ele>
        <time>2021-09-11T08:40:34Z</time>
      </trkpt>
      <trkpt lat="44.08861" lon="6.2629">
        <ele>633.3</ele>
        <time>2021-09-11T08:40:36Z</time>
      </trkpt>
      <trkpt lat="44.0886" lon="6.26294">
        <ele>633.4</ele>
        <time>2021-09-11T08:40:37Z</time>
      </trkpt>
      <trkpt lat="44.08859" lon="6.26299">
        <ele>633.5</ele>
        <time>2021-09-11T08:40:38Z</time>
      </trkpt>
      <trkpt lat="44.08858" lon="6.26304">
        <ele>633.5</ele>
        <time>2021-09-11T08:40:39Z</time>
      </trkpt>
      <trkpt lat="44.08857" lon="6.2631">
        <ele>633.6</ele>
        <time>2021-09-11T08:40:40Z</time>
      </trkpt>
      <trkpt lat="44.08856" lon="6.26316">
        <ele>633.7</ele>
        <time>2021-09-11T08:40:41Z</time>
      </trkpt>
      <trkpt lat="44.08855" lon="6.26323">
        <ele>633.8</ele>
        <time>2021-09-11T08:40:42Z</time>
      </trkpt>
      <trkpt lat="44.08854" lon="6.26334">
        <ele>633.9</ele>
        <time>2021-09-11T08:40:44Z</time>
      </trkpt>
      <trkpt lat="44.08854" lon="6.2634">
        <ele>634</ele>
        <time>2021-09-11T08:40:45Z</time>
      </trkpt>
      <trkpt lat="44.08854" lon="6.26346">
        <ele>634.1</ele>
        <time>2021-09-11T08:40:46Z</time>
      </trkpt>
      <trkpt lat="44.08854" lon="6.26352">
        <ele>634.2</ele>
        <time>2021-09-11T08:40:47Z</time>
      </trkpt>
      <trkpt lat="44.08854" lon="6.26357">
        <ele>634.2</ele>
        <time>2021-09-11T08:40:48Z</time>
      </trkpt>
      <trkpt lat="44.08853" lon="6.26367">
        <ele>634.3</ele>
        <time>2021-09-11T08:40:50Z</time>
      </trkpt>
      <trkpt lat="44.08853" lon="6.26373">
        <ele>634.4</ele>
        <time>2021-09-11T08:40:51Z</time>
      </trkpt>
      <trkpt lat="44.08852" lon="6.26379">
        <ele>634.5</ele>
        <time>2021-09-11T08:40:52Z</time>
      </trkpt>
      <trkpt lat="44.08852" lon="6.26383">
        <ele>634.5</ele>
        <time>2021-09-11T08:40:53Z</time>
      </trkpt>
      <trkpt lat="44.08852" lon="6.26388">
        <ele>634.6</ele>
        <time>2021-09-11T08:40:55Z</time>
      </trkpt>
      <trkpt lat="44.08852" lon="6.26393">
        <ele>634.6</ele>
        <time>2021-09-11T08:40:56Z</time>
      </trkpt>
      <trkpt lat="44.08852" lon="6.26398">
        <ele>634.7</ele>
        <time>2021-09-11T08:40:57Z</time>
      </trkpt>
      <trkpt lat="44.08853" lon="6.26403">
        <ele>634.7</ele>
        <time>2021-09-11T08:40:58Z</time>
      </trkpt>
      <trkpt lat="44.08854" lon="6.26408">
        <ele>634.8</ele>
        <time>2021-09-11T08:40:59Z</time>
      </trkpt>
      <trkpt lat="44.08855" lon="6.26413">
        <ele>634.9</ele>
        <time>2021-09-11T08:41:00Z</time>
      </trkpt>
      <trkpt lat="44.08856" lon="6.26418">
        <ele>634.9</ele>
        <time>2021-09-11T08:41:01Z</time>
      </trkpt>
      <trkpt lat="44.08857" lon="6.26425">
        <ele>635</ele>
        <time>2021-09-11T08:41:02Z</time>
      </trkpt>
      <trkpt lat="44.08857" lon="6.2643">
        <ele>635.1</ele>
        <time>2021-09-11T08:41:03Z</time>
      </trkpt>
      <trkpt lat="44.08859" lon="6.26437">
        <ele>635.2</ele>
        <time>2021-09-11T08:41:05Z</time>
      </trkpt>
      <trkpt lat="44.0886" lon="6.26443">
        <ele>635.2</ele>
        <time>2021-09-11T08:41:06Z</time>
      </trkpt>
      <trkpt lat="44.08862" lon="6.26447">
        <ele>635.3</ele>
        <time>2021-09-11T08:41:07Z</time>
      </trkpt>
      <trkpt lat="44.08865" lon="6.26457">
        <ele>635.4</ele>
        <time>2021-09-11T08:41:09Z</time>
      </trkpt>
      <trkpt lat="44.08867" lon="6.26462">
        <ele>635.4</ele>
        <time>2021-09-11T08:41:10Z</time>
      </trkpt>
      <trkpt lat="44.08868" lon="6.26467">
        <ele>635.4</ele>
        <time>2021-09-11T08:41:11Z</time>
      </trkpt>
      <trkpt lat="44.0887" lon="6.26472">
        <ele>635.5</ele>
        <time>2021-09-11T08:41:13Z</time>
      </trkpt>
      <trkpt lat="44.08871" lon="6.26478">
        <ele>635.6</ele>
        <time>2021-09-11T08:41:14Z</time>
      </trkpt>
      <trkpt lat="44.08873" lon="6.26483">
        <ele>635.6</ele>
        <time>2021-09-11T08:41:15Z</time>
      </trkpt>
      <trkpt lat="44.08877" lon="6.26492">
        <ele>635.7</ele>
        <time>2021-09-11T08:41:17Z</time>
      </trkpt>
      <trkpt lat="44.08881" lon="6.26502">
        <ele>635.9</ele>
        <time>2021-09-11T08:41:18Z</time>
      </trkpt>
      <trkpt lat="44.08884" lon="6.26513">
        <ele>636</ele>
        <time>2021-09-11T08:41:20Z</time>
      </trkpt>
      <trkpt lat="44.08886" lon="6.26518">
        <ele>636.1</ele>
        <time>2021-09-11T08:41:21Z</time>
      </trkpt>
      <trkpt lat="44.08889" lon="6.26529">
        <ele>636.3</ele>
        <time>2021-09-11T08:41:23Z</time>
      </trkpt>
      <trkpt lat="44.0889" lon="6.26535">
        <ele>636.4</ele>
        <time>2021-09-11T08:41:24Z</time>
      </trkpt>
      <trkpt lat="44.08892" lon="6.26542">
        <ele>636.5</ele>
        <time>2021-09-11T08:41:26Z</time>
      </trkpt>
      <trkpt lat="44.08896" lon="6.26552">
        <ele>636.6</ele>
        <time>2021-09-11T08:41:27Z</time>
      </trkpt>
      <trkpt lat="44.08897" lon="6.26558">
        <ele>636.7</ele>
        <time>2021-09-11T08:41:28Z</time>
      </trkpt>
      <trkpt lat="44.08899" lon="6.26563">
        <ele>636.8</ele>
        <time>2021-09-11T08:41:29Z</time>
      </trkpt>
      <trkpt lat="44.089" lon="6.26567">
        <ele>636.9</ele>
        <time>2021-09-11T08:41:30Z</time>
      </trkpt>
      <trkpt lat="44.08904" lon="6.26576">
        <ele>637</ele>
        <time>2021-09-11T08:41:33Z</time>
      </trkpt>
      <trkpt lat="44.08906" lon="6.2658">
        <ele>637.1</ele>
        <time>2021-09-11T08:41:34Z</time>
      </trkpt>
      <trkpt lat="44.08908" lon="6.26589">
        <ele>637.3</ele>
        <time>2021-09-11T08:41:36Z</time>
      </trkpt>
      <trkpt lat="44.08911" lon="6.26599">
        <ele>637.5</ele>
        <time>2021-09-11T08:41:38Z</time>
      </trkpt>
      <trkpt lat="44.08912" lon="6.26605">
        <ele>637.6</ele>
        <time>2021-09-11T08:41:39Z</time>
      </trkpt>
      <trkpt lat="44.08913" lon="6.2661">
        <ele>637.7</ele>
        <time>2021-09-11T08:41:40Z</time>
      </trkpt>
      <trkpt lat="44.08914" lon="6.26615">
        <ele>637.8</ele>
        <time>2021-09-11T08:41:41Z</time>
      </trkpt>
      <trkpt lat="44.08916" lon="6.26619">
        <ele>637.9</ele>
        <time>2021-09-11T08:41:42Z</time>
      </trkpt>
      <trkpt lat="44.08917" lon="6.26623">
        <ele>637.9</ele>
        <time>2021-09-11T08:41:43Z</time>
      </trkpt>
      <trkpt lat="44.08918" lon="6.26627">
        <ele>638</ele>
        <time>2021-09-11T08:41:44Z</time>
      </trkpt>
      <trkpt lat="44.08919" lon="6.26632">
        <ele>638.1</ele>
        <time>2021-09-11T08:41:45Z</time>
      </trkpt>
      <trkpt lat="44.0892" lon="6.26636">
        <ele>638.2</ele>
        <time>2021-09-11T08:41:46Z</time>
      </trkpt>
      <trkpt lat="44.08921" lon="6.26641">
        <ele>638.2</ele>
        <time>2021-09-11T08:41:47Z</time>
      </trkpt>
      <trkpt lat="44.08923" lon="6.26646">
        <ele>638.3</ele>
        <time>2021-09-11T08:41:48Z</time>
      </trkpt>
      <trkpt lat="44.08925" lon="6.26651">
        <ele>638.4</ele>
        <time>2021-09-11T08:41:49Z</time>
      </trkpt>
      <trkpt lat="44.08927" lon="6.26657">
        <ele>638.5</ele>
        <time>2021-09-11T08:41:50Z</time>
      </trkpt>
      <trkpt lat="44.08928" lon="6.26662">
        <ele>638.6</ele>
        <time>2021-09-11T08:41:52Z</time>
      </trkpt>
      <trkpt lat="44.08929" lon="6.26666">
        <ele>638.7</ele>
        <time>2021-09-11T08:41:53Z</time>
      </trkpt>
      <trkpt lat="44.0893" lon="6.26671">
        <ele>638.8</ele>
        <time>2021-09-11T08:41:54Z</time>
      </trkpt>
      <trkpt lat="44.08933" lon="6.2668">
        <ele>638.9</ele>
        <time>2021-09-11T08:41:55Z</time>
      </trkpt>
      <trkpt lat="44.08937" lon="6.26688">
        <ele>639.1</ele>
        <time>2021-09-11T08:41:57Z</time>
      </trkpt>
      <trkpt lat="44.08939" lon="6.26694">
        <ele>639.2</ele>
        <time>2021-09-11T08:41:59Z</time>
      </trkpt>
      <trkpt lat="44.08941" lon="6.26699">
        <ele>639.3</ele>
        <time>2021-09-11T08:42:00Z</time>
      </trkpt>
      <trkpt lat="44.08945" lon="6.26706">
        <ele>639.4</ele>
        <time>2021-09-11T08:42:01Z</time>
      </trkpt>
      <trkpt lat="44.08949" lon="6.26712">
        <ele>639.5</ele>
        <time>2021-09-11T08:42:03Z</time>
      </trkpt>
      <trkpt lat="44.0895" lon="6.26715">
        <ele>639.6</ele>
        <time>2021-09-11T08:42:04Z</time>
      </trkpt>
      <trkpt lat="44.08953" lon="6.2672">
        <ele>639.7</ele>
        <time>2021-09-11T08:42:06Z</time>
      </trkpt>
      <trkpt lat="44.08957" lon="6.26726">
        <ele>639.8</ele>
        <time>2021-09-11T08:42:07Z</time>
      </trkpt>
      <trkpt lat="44.0896" lon="6.26732">
        <ele>639.9</ele>
        <time>2021-09-11T08:42:09Z</time>
      </trkpt>
      <trkpt lat="44.08962" lon="6.26738">
        <ele>640</ele>
        <time>2021-09-11T08:42:11Z</time>
      </trkpt>
      <trkpt lat="44.08964" lon="6.26741">
        <ele>640</ele>
        <time>2021-09-11T08:42:12Z</time>
      </trkpt>
      <trkpt lat="44.08967" lon="6.26747">
        <ele>640.1</ele>
        <time>2021-09-11T08:42:13Z</time>
      </trkpt>
      <trkpt lat="44.08969" lon="6.26751">
        <ele>640.2</ele>
        <time>2021-09-11T08:42:14Z</time>
      </trkpt>
      <trkpt lat="44.08972" lon="6.26755">
        <ele>640.2</ele>
        <time>2021-09-11T08:42:16Z</time>
      </trkpt>
      <trkpt lat="44.08974" lon="6.2676">
        <ele>640.3</ele>
        <time>2021-09-11T08:42:17Z</time>
      </trkpt>
      <trkpt lat="44.08976" lon="6.26768">
        <ele>640.4</ele>
        <time>2021-09-11T08:42:18Z</time>
      </trkpt>
      <trkpt lat="44.08978" lon="6.26773">
        <ele>640.5</ele>
        <time>2021-09-11T08:42:19Z</time>
      </trkpt>
      <trkpt lat="44.08981" lon="6.26779">
        <ele>640.6</ele>
        <time>2021-09-11T08:42:21Z</time>
      </trkpt>
      <trkpt lat="44.08983" lon="6.26787">
        <ele>640.7</ele>
        <time>2021-09-11T08:42:22Z</time>
      </trkpt>
      <trkpt lat="44.08986" lon="6.26792">
        <ele>640.8</ele>
        <time>2021-09-11T08:42:24Z</time>
      </trkpt>
      <trkpt lat="44.08988" lon="6.26796">
        <ele>640.9</ele>
        <time>2021-09-11T08:42:25Z</time>
      </trkpt>
      <trkpt lat="44.0899" lon="6.26801">
        <ele>640.9</ele>
        <time>2021-09-11T08:42:26Z</time>
      </trkpt>
      <trkpt lat="44.08994" lon="6.2681">
        <ele>641.1</ele>
        <time>2021-09-11T08:42:28Z</time>
      </trkpt>
      <trkpt lat="44.08997" lon="6.26817">
        <ele>641.2</ele>
        <time>2021-09-11T08:42:30Z</time>
      </trkpt>
      <trkpt lat="44.08999" lon="6.26821">
        <ele>641.2</ele>
        <time>2021-09-11T08:42:31Z</time>
      </trkpt>
      <trkpt lat="44.09003" lon="6.26827">
        <ele>641.3</ele>
        <time>2021-09-11T08:42:33Z</time>
      </trkpt>
      <trkpt lat="44.09006" lon="6.26833">
        <ele>641.4</ele>
        <time>2021-09-11T08:42:35Z</time>
      </trkpt>
      <trkpt lat="44.0901" lon="6.26841">
        <ele>641.5</ele>
        <time>2021-09-11T08:42:36Z</time>
      </trkpt>
      <trkpt lat="44.09013" lon="6.26846">
        <ele>641.6</ele>
        <time>2021-09-11T08:42:38Z</time>
      </trkpt>
      <trkpt lat="44.09016" lon="6.26851">
        <ele>641.6</ele>
        <time>2021-09-11T08:42:39Z</time>
      </trkpt>
      <trkpt lat="44.09021" lon="6.26858">
        <ele>641.7</ele>
        <time>2021-09-11T08:42:40Z</time>
      </trkpt>
      <trkpt lat="44.09023" lon="6.26863">
        <ele>641.8</ele>
        <time>2021-09-11T08:42:42Z</time>
      </trkpt>
      <trkpt lat="44.09027" lon="6.26869">
        <ele>641.9</ele>
        <time>2021-09-11T08:42:43Z</time>
      </trkpt>
      <trkpt lat="44.0903" lon="6.26873">
        <ele>641.9</ele>
        <time>2021-09-11T08:42:45Z</time>
      </trkpt>
      <trkpt lat="44.09033" lon="6.2688">
        <ele>642</ele>
        <time>2021-09-11T08:42:46Z</time>
      </trkpt>
      <trkpt lat="44.09036" lon="6.26886">
        <ele>642.1</ele>
        <time>2021-09-11T08:42:48Z</time>
      </trkpt>
      <trkpt lat="44.09039" lon="6.26894">
        <ele>642.2</ele>
        <time>2021-09-11T08:42:50Z</time>
      </trkpt>
      <trkpt lat="44.09041" lon="6.26902">
        <ele>642.3</ele>
        <time>2021-09-11T08:42:52Z</time>
      </trkpt>
      <trkpt lat="44.09042" lon="6.26907">
        <ele>642.4</ele>
        <time>2021-09-11T08:42:53Z</time>
      </trkpt>
      <trkpt lat="44.09041" lon="6.26918">
        <ele>642.5</ele>
        <time>2021-09-11T08:42:55Z</time>
      </trkpt>
      <trkpt lat="44.09041" lon="6.26923">
        <ele>642.6</ele>
        <time>2021-09-11T08:42:56Z</time>
      </trkpt>
      <trkpt lat="44.09041" lon="6.26929">
        <ele>642.7</ele>
        <time>2021-09-11T08:42:57Z</time>
      </trkpt>
      <trkpt lat="44.0904" lon="6.2694">
        <ele>642.8</ele>
        <time>2021-09-11T08:42:59Z</time>
      </trkpt>
      <trkpt lat="44.0904" lon="6.26946">
        <ele>642.8</ele>
        <time>2021-09-11T08:43:00Z</time>
      </trkpt>
      <trkpt lat="44.09041" lon="6.26952">
        <ele>642.9</ele>
        <time>2021-09-11T08:43:01Z</time>
      </trkpt>
      <trkpt lat="44.09042" lon="6.26959">
        <ele>643</ele>
        <time>2021-09-11T08:43:03Z</time>
      </trkpt>
      <trkpt lat="44.09042" lon="6.26964">
        <ele>643</ele>
        <time>2021-09-11T08:43:04Z</time>
      </trkpt>
      <trkpt lat="44.09043" lon="6.26971">
        <ele>643.1</ele>
        <time>2021-09-11T08:43:05Z</time>
      </trkpt>
      <trkpt lat="44.09043" lon="6.26979">
        <ele>643.2</ele>
        <time>2021-09-11T08:43:07Z</time>
      </trkpt>
      <trkpt lat="44.09043" lon="6.26983">
        <ele>643.3</ele>
        <time>2021-09-11T08:43:08Z</time>
      </trkpt>
      <trkpt lat="44.09043" lon="6.2699">
        <ele>643.4</ele>
        <time>2021-09-11T08:43:09Z</time>
      </trkpt>
      <trkpt lat="44.09043" lon="6.26996">
        <ele>643.4</ele>
        <time>2021-09-11T08:43:10Z</time>
      </trkpt>
      <trkpt lat="44.09042" lon="6.27002">
        <ele>643.5</ele>
        <time>2021-09-11T08:43:12Z</time>
      </trkpt>
      <trkpt lat="44.09043" lon="6.27009">
        <ele>643.6</ele>
        <time>2021-09-11T08:43:13Z</time>
      </trkpt>
      <trkpt lat="44.09043" lon="6.27017">
        <ele>643.7</ele>
        <time>2021-09-11T08:43:15Z</time>
      </trkpt>
      <trkpt lat="44.09043" lon="6.27027">
        <ele>643.8</ele>
        <time>2021-09-11T08:43:16Z</time>
      </trkpt>
      <trkpt lat="44.09043" lon="6.27035">
        <ele>643.9</ele>
        <time>2021-09-11T08:43:18Z</time>
      </trkpt>
      <trkpt lat="44.09043" lon="6.27043">
        <ele>644</ele>
        <time>2021-09-11T08:43:20Z</time>
      </trkpt>
      <trkpt lat="44.09043" lon="6.27048">
        <ele>644.1</ele>
        <time>2021-09-11T08:43:21Z</time>
      </trkpt>
      <trkpt lat="44.09043" lon="6.27056">
        <ele>644.2</ele>
        <time>2021-09-11T08:43:22Z</time>
      </trkpt>
      <trkpt lat="44.09042" lon="6.27062">
        <ele>644.3</ele>
        <time>2021-09-11T08:43:23Z</time>
      </trkpt>
      <trkpt lat="44.09043" lon="6.27069">
        <ele>644.4</ele>
        <time>2021-09-11T08:43:25Z</time>
      </trkpt>
      <trkpt lat="44.09043" lon="6.27075">
        <ele>644.5</ele>
        <time>2021-09-11T08:43:27Z</time>
      </trkpt>
      <trkpt lat="44.09044" lon="6.2708">
        <ele>644.6</ele>
        <time>2021-09-11T08:43:28Z</time>
      </trkpt>
      <trkpt lat="44.09044" lon="6.27088">
        <ele>644.7</ele>
        <time>2021-09-11T08:43:30Z</time>
      </trkpt>
      <trkpt lat="44.09044" lon="6.27092">
        <ele>644.7</ele>
        <time>2021-09-11T08:43:31Z</time>
      </trkpt>
      <trkpt lat="44.09044" lon="6.27097">
        <ele>644.8</ele>
        <time>2021-09-11T08:43:32Z</time>
      </trkpt>
      <trkpt lat="44.09043" lon="6.27105">
        <ele>645</ele>
        <time>2021-09-11T08:43:33Z</time>
      </trkpt>
      <trkpt lat="44.09043" lon="6.27113">
        <ele>645.1</ele>
        <time>2021-09-11T08:43:35Z</time>
      </trkpt>
      <trkpt lat="44.09043" lon="6.27119">
        <ele>645.2</ele>
        <time>2021-09-11T08:43:36Z</time>
      </trkpt>
      <trkpt lat="44.09043" lon="6.27129">
        <ele>645.4</ele>
        <time>2021-09-11T08:43:38Z</time>
      </trkpt>
      <trkpt lat="44.09042" lon="6.27137">
        <ele>645.5</ele>
        <time>2021-09-11T08:43:40Z</time>
      </trkpt>
      <trkpt lat="44.09041" lon="6.27143">
        <ele>645.6</ele>
        <time>2021-09-11T08:43:42Z</time>
      </trkpt>
      <trkpt lat="44.0904" lon="6.27147">
        <ele>645.7</ele>
        <time>2021-09-11T08:43:43Z</time>
      </trkpt>
      <trkpt lat="44.09039" lon="6.27151">
        <ele>645.7</ele>
        <time>2021-09-11T08:43:44Z</time>
      </trkpt>
      <trkpt lat="44.09038" lon="6.27158">
        <ele>645.8</ele>
        <time>2021-09-11T08:43:45Z</time>
      </trkpt>
      <trkpt lat="44.09038" lon="6.2716">
        <ele>645.8</ele>
        <time>2021-09-11T08:43:46Z</time>
      </trkpt>
      <trkpt lat="44.09037" lon="6.27167">
        <ele>645.8</ele>
        <time>2021-09-11T08:43:48Z</time>
      </trkpt>
      <trkpt lat="44.09036" lon="6.27171">
        <ele>645.8</ele>
        <time>2021-09-11T08:43:49Z</time>
      </trkpt>
      <trkpt lat="44.09035" lon="6.27176">
        <ele>645.9</ele>
        <time>2021-09-11T08:43:50Z</time>
      </trkpt>
      <trkpt lat="44.09034" lon="6.27181">
        <ele>645.9</ele>
        <time>2021-09-11T08:43:51Z</time>
      </trkpt>
      <trkpt lat="44.09032" lon="6.27188">
        <ele>645.9</ele>
        <time>2021-09-11T08:43:53Z</time>
      </trkpt>
      <trkpt lat="44.0903" lon="6.27194">
        <ele>646</ele>
        <time>2021-09-11T08:43:54Z</time>
      </trkpt>
      <trkpt lat="44.09028" lon="6.27204">
        <ele>646</ele>
        <time>2021-09-11T08:43:56Z</time>
      </trkpt>
      <trkpt lat="44.09024" lon="6.27213">
        <ele>646.1</ele>
        <time>2021-09-11T08:43:57Z</time>
      </trkpt>
      <trkpt lat="44.09021" lon="6.27221">
        <ele>646.2</ele>
        <time>2021-09-11T08:43:59Z</time>
      </trkpt>
      <trkpt lat="44.09019" lon="6.27227">
        <ele>646.2</ele>
        <time>2021-09-11T08:44:00Z</time>
      </trkpt>
      <trkpt lat="44.09016" lon="6.27233">
        <ele>646.3</ele>
        <time>2021-09-11T08:44:02Z</time>
      </trkpt>
      <trkpt lat="44.09012" lon="6.27244">
        <ele>646.4</ele>
        <time>2021-09-11T08:44:04Z</time>
      </trkpt>
      <trkpt lat="44.0901" lon="6.27251">
        <ele>646.4</ele>
        <time>2021-09-11T08:44:05Z</time>
      </trkpt>
      <trkpt lat="44.09008" lon="6.27256">
        <ele>646.5</ele>
        <time>2021-09-11T08:44:06Z</time>
      </trkpt>
      <trkpt lat="44.09006" lon="6.27263">
        <ele>646.5</ele>
        <time>2021-09-11T08:44:08Z</time>
      </trkpt>
      <trkpt lat="44.09005" lon="6.27268">
        <ele>646.5</ele>
        <time>2021-09-11T08:44:09Z</time>
      </trkpt>
      <trkpt lat="44.09003" lon="6.27275">
        <ele>646.6</ele>
        <time>2021-09-11T08:44:10Z</time>
      </trkpt>
      <trkpt lat="44.09001" lon="6.27281">
        <ele>646.7</ele>
        <time>2021-09-11T08:44:11Z</time>
      </trkpt>
      <trkpt lat="44.08999" lon="6.27289">
        <ele>646.7</ele>
        <time>2021-09-11T08:44:13Z</time>
      </trkpt>
      <trkpt lat="44.08995" lon="6.273">
        <ele>646.8</ele>
        <time>2021-09-11T08:44:15Z</time>
      </trkpt>
      <trkpt lat="44.08993" lon="6.27306">
        <ele>646.9</ele>
        <time>2021-09-11T08:44:16Z</time>
      </trkpt>
      <trkpt lat="44.08991" lon="6.27313">
        <ele>647</ele>
        <time>2021-09-11T08:44:17Z</time>
      </trkpt>
      <trkpt lat="44.08989" lon="6.27319">
        <ele>647.1</ele>
        <time>2021-09-11T08:44:18Z</time>
      </trkpt>
      <trkpt lat="44.08988" lon="6.27324">
        <ele>647.1</ele>
        <time>2021-09-11T08:44:19Z</time>
      </trkpt>
      <trkpt lat="44.08986" lon="6.27328">
        <ele>647.2</ele>
        <time>2021-09-11T08:44:20Z</time>
      </trkpt>
      <trkpt lat="44.08984" lon="6.27333">
        <ele>647.3</ele>
        <time>2021-09-11T08:44:21Z</time>
      </trkpt>
      <trkpt lat="44.08982" lon="6.27337">
        <ele>647.3</ele>
        <time>2021-09-11T08:44:22Z</time>
      </trkpt>
      <trkpt lat="44.0898" lon="6.27342">
        <ele>647.4</ele>
        <time>2021-09-11T08:44:23Z</time>
      </trkpt>
      <trkpt lat="44.08979" lon="6.27348">
        <ele>647.5</ele>
        <time>2021-09-11T08:44:24Z</time>
      </trkpt>
      <trkpt lat="44.08977" lon="6.27353">
        <ele>647.6</ele>
        <time>2021-09-11T08:44:25Z</time>
      </trkpt>
      <trkpt lat="44.08976" lon="6.27358">
        <ele>647.7</ele>
        <time>2021-09-11T08:44:26Z</time>
      </trkpt>
      <trkpt lat="44.08974" lon="6.27362">
        <ele>647.8</ele>
        <time>2021-09-11T08:44:27Z</time>
      </trkpt>
      <trkpt lat="44.08974" lon="6.27367">
        <ele>647.8</ele>
        <time>2021-09-11T08:44:29Z</time>
      </trkpt>
      <trkpt lat="44.08973" lon="6.27369">
        <ele>647.9</ele>
        <time>2021-09-11T08:44:30Z</time>
      </trkpt>
      <trkpt lat="44.08972" lon="6.27375">
        <ele>648</ele>
        <time>2021-09-11T08:44:32Z</time>
      </trkpt>
      <trkpt lat="44.08971" lon="6.27379">
        <ele>648</ele>
        <time>2021-09-11T08:44:33Z</time>
      </trkpt>
      <trkpt lat="44.08969" lon="6.27388">
        <ele>648.1</ele>
        <time>2021-09-11T08:44:35Z</time>
      </trkpt>
      <trkpt lat="44.08967" lon="6.27393">
        <ele>648.2</ele>
        <time>2021-09-11T08:44:36Z</time>
      </trkpt>
      <trkpt lat="44.08966" lon="6.27397">
        <ele>648.3</ele>
        <time>2021-09-11T08:44:37Z</time>
      </trkpt>
      <trkpt lat="44.08964" lon="6.27403">
        <ele>648.4</ele>
        <time>2021-09-11T08:44:39Z</time>
      </trkpt>
      <trkpt lat="44.08962" lon="6.27411">
        <ele>648.5</ele>
        <time>2021-09-11T08:44:41Z</time>
      </trkpt>
      <trkpt lat="44.08961" lon="6.27415">
        <ele>648.5</ele>
        <time>2021-09-11T08:44:42Z</time>
      </trkpt>
      <trkpt lat="44.08959" lon="6.27422">
        <ele>648.6</ele>
        <time>2021-09-11T08:44:43Z</time>
      </trkpt>
      <trkpt lat="44.08955" lon="6.2743">
        <ele>648.7</ele>
        <time>2021-09-11T08:44:46Z</time>
      </trkpt>
      <trkpt lat="44.08952" lon="6.27435">
        <ele>648.8</ele>
        <time>2021-09-11T08:44:47Z</time>
      </trkpt>
      <trkpt lat="44.0895" lon="6.27441">
        <ele>648.9</ele>
        <time>2021-09-11T08:44:49Z</time>
      </trkpt>
      <trkpt lat="44.08949" lon="6.27445">
        <ele>648.9</ele>
        <time>2021-09-11T08:44:50Z</time>
      </trkpt>
      <trkpt lat="44.08946" lon="6.27454">
        <ele>649.1</ele>
        <time>2021-09-11T08:44:52Z</time>
      </trkpt>
      <trkpt lat="44.08944" lon="6.2746">
        <ele>649.2</ele>
        <time>2021-09-11T08:44:53Z</time>
      </trkpt>
      <trkpt lat="44.08943" lon="6.27465">
        <ele>649.2</ele>
        <time>2021-09-11T08:44:54Z</time>
      </trkpt>
      <trkpt lat="44.0894" lon="6.27472">
        <ele>649.4</ele>
        <time>2021-09-11T08:44:56Z</time>
      </trkpt>
      <trkpt lat="44.08938" lon="6.27483">
        <ele>649.5</ele>
        <time>2021-09-11T08:44:57Z</time>
      </trkpt>
      <trkpt lat="44.08935" lon="6.27493">
        <ele>649.6</ele>
        <time>2021-09-11T08:44:59Z</time>
      </trkpt>
      <trkpt lat="44.08934" lon="6.27498">
        <ele>649.6</ele>
        <time>2021-09-11T08:45:00Z</time>
      </trkpt>
      <trkpt lat="44.08932" lon="6.27509">
        <ele>649.8</ele>
        <time>2021-09-11T08:45:02Z</time>
      </trkpt>
      <trkpt lat="44.08931" lon="6.27513">
        <ele>649.9</ele>
        <time>2021-09-11T08:45:03Z</time>
      </trkpt>
      <trkpt lat="44.0893" lon="6.27517">
        <ele>649.9</ele>
        <time>2021-09-11T08:45:04Z</time>
      </trkpt>
      <trkpt lat="44.08928" lon="6.27522">
        <ele>650</ele>
        <time>2021-09-11T08:45:05Z</time>
      </trkpt>
      <trkpt lat="44.08925" lon="6.27529">
        <ele>650.1</ele>
        <time>2021-09-11T08:45:07Z</time>
      </trkpt>
      <trkpt lat="44.08925" lon="6.27534">
        <ele>650.2</ele>
        <time>2021-09-11T08:45:08Z</time>
      </trkpt>
      <trkpt lat="44.08924" lon="6.27536">
        <ele>650.2</ele>
        <time>2021-09-11T08:45:09Z</time>
      </trkpt>
      <trkpt lat="44.08923" lon="6.27541">
        <ele>650.3</ele>
        <time>2021-09-11T08:45:11Z</time>
      </trkpt>
      <trkpt lat="44.08922" lon="6.27549">
        <ele>650.4</ele>
        <time>2021-09-11T08:45:12Z</time>
      </trkpt>
      <trkpt lat="44.08921" lon="6.27558">
        <ele>650.5</ele>
        <time>2021-09-11T08:45:14Z</time>
      </trkpt>
      <trkpt lat="44.0892" lon="6.27563">
        <ele>650.6</ele>
        <time>2021-09-11T08:45:16Z</time>
      </trkpt>
      <trkpt lat="44.08919" lon="6.27568">
        <ele>650.6</ele>
        <time>2021-09-11T08:45:17Z</time>
      </trkpt>
      <trkpt lat="44.08917" lon="6.27572">
        <ele>650.7</ele>
        <time>2021-09-11T08:45:18Z</time>
      </trkpt>
      <trkpt lat="44.08917" lon="6.27577">
        <ele>650.7</ele>
        <time>2021-09-11T08:45:19Z</time>
      </trkpt>
      <trkpt lat="44.08915" lon="6.27584">
        <ele>650.8</ele>
        <time>2021-09-11T08:45:20Z</time>
      </trkpt>
      <trkpt lat="44.08913" lon="6.27589">
        <ele>650.8</ele>
        <time>2021-09-11T08:45:22Z</time>
      </trkpt>
      <trkpt lat="44.08912" lon="6.27595">
        <ele>650.9</ele>
        <time>2021-09-11T08:45:23Z</time>
      </trkpt>
      <trkpt lat="44.08911" lon="6.27597">
        <ele>650.9</ele>
        <time>2021-09-11T08:45:24Z</time>
      </trkpt>
      <trkpt lat="44.0891" lon="6.27603">
        <ele>650.9</ele>
        <time>2021-09-11T08:45:25Z</time>
      </trkpt>
      <trkpt lat="44.08908" lon="6.27609">
        <ele>651</ele>
        <time>2021-09-11T08:45:26Z</time>
      </trkpt>
      <trkpt lat="44.08906" lon="6.27616">
        <ele>651</ele>
        <time>2021-09-11T08:45:28Z</time>
      </trkpt>
      <trkpt lat="44.08903" lon="6.27626">
        <ele>651.1</ele>
        <time>2021-09-11T08:45:29Z</time>
      </trkpt>
      <trkpt lat="44.089" lon="6.27637">
        <ele>651.2</ele>
        <time>2021-09-11T08:45:31Z</time>
      </trkpt>
      <trkpt lat="44.08898" lon="6.27647">
        <ele>651.3</ele>
        <time>2021-09-11T08:45:34Z</time>
      </trkpt>
      <trkpt lat="44.08896" lon="6.27655">
        <ele>651.4</ele>
        <time>2021-09-11T08:45:35Z</time>
      </trkpt>
      <trkpt lat="44.08896" lon="6.2766">
        <ele>651.4</ele>
        <time>2021-09-11T08:45:37Z</time>
      </trkpt>
      <trkpt lat="44.08895" lon="6.27665">
        <ele>651.5</ele>
        <time>2021-09-11T08:45:38Z</time>
      </trkpt>
      <trkpt lat="44.08894" lon="6.27673">
        <ele>651.6</ele>
        <time>2021-09-11T08:45:39Z</time>
      </trkpt>
      <trkpt lat="44.08894" lon="6.27678">
        <ele>651.6</ele>
        <time>2021-09-11T08:45:40Z</time>
      </trkpt>
      <trkpt lat="44.08894" lon="6.27683">
        <ele>651.7</ele>
        <time>2021-09-11T08:45:41Z</time>
      </trkpt>
      <trkpt lat="44.08894" lon="6.27689">
        <ele>651.7</ele>
        <time>2021-09-11T08:45:43Z</time>
      </trkpt>
      <trkpt lat="44.08894" lon="6.27696">
        <ele>651.8</ele>
        <time>2021-09-11T08:45:44Z</time>
      </trkpt>
      <trkpt lat="44.08895" lon="6.27701">
        <ele>651.9</ele>
        <time>2021-09-11T08:45:46Z</time>
      </trkpt>
      <trkpt lat="44.08895" lon="6.27708">
        <ele>652</ele>
        <time>2021-09-11T08:45:47Z</time>
      </trkpt>
      <trkpt lat="44.08896" lon="6.27713">
        <ele>652.1</ele>
        <time>2021-09-11T08:45:48Z</time>
      </trkpt>
      <trkpt lat="44.08898" lon="6.2772">
        <ele>652.2</ele>
        <time>2021-09-11T08:45:50Z</time>
      </trkpt>
      <trkpt lat="44.08899" lon="6.27724">
        <ele>652.2</ele>
        <time>2021-09-11T08:45:51Z</time>
      </trkpt>
      <trkpt lat="44.08899" lon="6.27729">
        <ele>652.3</ele>
        <time>2021-09-11T08:45:52Z</time>
      </trkpt>
      <trkpt lat="44.08901" lon="6.27735">
        <ele>652.4</ele>
        <time>2021-09-11T08:45:54Z</time>
      </trkpt>
      <trkpt lat="44.08901" lon="6.27738">
        <ele>652.4</ele>
        <time>2021-09-11T08:45:55Z</time>
      </trkpt>
      <trkpt lat="44.08903" lon="6.27744">
        <ele>652.5</ele>
        <time>2021-09-11T08:45:57Z</time>
      </trkpt>
      <trkpt lat="44.08905" lon="6.2775">
        <ele>652.7</ele>
        <time>2021-09-11T08:45:59Z</time>
      </trkpt>
      <trkpt lat="44.08906" lon="6.27754">
        <ele>652.7</ele>
        <time>2021-09-11T08:46:00Z</time>
      </trkpt>
      <trkpt lat="44.08908" lon="6.27761">
        <ele>652.9</ele>
        <time>2021-09-11T08:46:02Z</time>
      </trkpt>
      <trkpt lat="44.0891" lon="6.27767">
        <ele>653</ele>
        <time>2021-09-11T08:46:03Z</time>
      </trkpt>
      <trkpt lat="44.08911" lon="6.27769">
        <ele>653</ele>
        <time>2021-09-11T08:46:04Z</time>
      </trkpt>
      <trkpt lat="44.08913" lon="6.27773">
        <ele>653.1</ele>
        <time>2021-09-11T08:46:05Z</time>
      </trkpt>
      <trkpt lat="44.08915" lon="6.27777">
        <ele>653.2</ele>
        <time>2021-09-11T08:46:06Z</time>
      </trkpt>
      <trkpt lat="44.08916" lon="6.27781">
        <ele>653.3</ele>
        <time>2021-09-11T08:46:07Z</time>
      </trkpt>
      <trkpt lat="44.08918" lon="6.27785">
        <ele>653.3</ele>
        <time>2021-09-11T08:46:08Z</time>
      </trkpt>
      <trkpt lat="44.0892" lon="6.2779">
        <ele>653.5</ele>
        <time>2021-09-11T08:46:09Z</time>
      </trkpt>
      <trkpt lat="44.08921" lon="6.27791">
        <ele>653.5</ele>
        <time>2021-09-11T08:46:10Z</time>
      </trkpt>
      <trkpt lat="44.08922" lon="6.27796">
        <ele>653.6</ele>
        <time>2021-09-11T08:46:12Z</time>
      </trkpt>
      <trkpt lat="44.08922" lon="6.278">
        <ele>653.7</ele>
        <time>2021-09-11T08:46:13Z</time>
      </trkpt>
      <trkpt lat="44.08923" lon="6.27804">
        <ele>653.8</ele>
        <time>2021-09-11T08:46:14Z</time>
      </trkpt>
      <trkpt lat="44.08925" lon="6.27809">
        <ele>653.9</ele>
        <time>2021-09-11T08:46:15Z</time>
      </trkpt>
      <trkpt lat="44.08926" lon="6.27811">
        <ele>654</ele>
        <time>2021-09-11T08:46:16Z</time>
      </trkpt>
      <trkpt lat="44.08927" lon="6.27814">
        <ele>654</ele>
        <time>2021-09-11T08:46:17Z</time>
      </trkpt>
      <trkpt lat="44.08928" lon="6.27819">
        <ele>654.2</ele>
        <time>2021-09-11T08:46:19Z</time>
      </trkpt>
      <trkpt lat="44.0893" lon="6.27825">
        <ele>654.3</ele>
        <time>2021-09-11T08:46:20Z</time>
      </trkpt>
      <trkpt lat="44.08933" lon="6.27832">
        <ele>654.5</ele>
        <time>2021-09-11T08:46:22Z</time>
      </trkpt>
      <trkpt lat="44.08934" lon="6.27834">
        <ele>654.6</ele>
        <time>2021-09-11T08:46:23Z</time>
      </trkpt>
      <trkpt lat="44.08935" lon="6.27837">
        <ele>654.6</ele>
        <time>2021-09-11T08:46:24Z</time>
      </trkpt>
      <trkpt lat="44.08937" lon="6.27843">
        <ele>654.8</ele>
        <time>2021-09-11T08:46:26Z</time>
      </trkpt>
      <trkpt lat="44.08939" lon="6.27847">
        <ele>654.9</ele>
        <time>2021-09-11T08:46:27Z</time>
      </trkpt>
      <trkpt lat="44.08942" lon="6.27854">
        <ele>655.1</ele>
        <time>2021-09-11T08:46:28Z</time>
      </trkpt>
      <trkpt lat="44.08944" lon="6.27859">
        <ele>655.2</ele>
        <time>2021-09-11T08:46:30Z</time>
      </trkpt>
      <trkpt lat="44.08945" lon="6.27863">
        <ele>655.3</ele>
        <time>2021-09-11T08:46:31Z</time>
      </trkpt>
      <trkpt lat="44.08947" lon="6.2787">
        <ele>655.4</ele>
        <time>2021-09-11T08:46:32Z</time>
      </trkpt>
      <trkpt lat="44.08948" lon="6.27875">
        <ele>655.6</ele>
        <time>2021-09-11T08:46:34Z</time>
      </trkpt>
      <trkpt lat="44.0895" lon="6.2788">
        <ele>655.7</ele>
        <time>2021-09-11T08:46:35Z</time>
      </trkpt>
      <trkpt lat="44.0895" lon="6.27883">
        <ele>655.7</ele>
        <time>2021-09-11T08:46:36Z</time>
      </trkpt>
      <trkpt lat="44.08951" lon="6.27888">
        <ele>655.9</ele>
        <time>2021-09-11T08:46:38Z</time>
      </trkpt>
      <trkpt lat="44.08951" lon="6.27894">
        <ele>656</ele>
        <time>2021-09-11T08:46:39Z</time>
      </trkpt>
      <trkpt lat="44.08952" lon="6.27896">
        <ele>656</ele>
        <time>2021-09-11T08:46:40Z</time>
      </trkpt>
      <trkpt lat="44.08951" lon="6.279">
        <ele>656.1</ele>
        <time>2021-09-11T08:46:41Z</time>
      </trkpt>
      <trkpt lat="44.08951" lon="6.27906">
        <ele>656.2</ele>
        <time>2021-09-11T08:46:42Z</time>
      </trkpt>
      <trkpt lat="44.08951" lon="6.27908">
        <ele>656.3</ele>
        <time>2021-09-11T08:46:43Z</time>
      </trkpt>
      <trkpt lat="44.08951" lon="6.27914">
        <ele>656.4</ele>
        <time>2021-09-11T08:46:45Z</time>
      </trkpt>
      <trkpt lat="44.08952" lon="6.27919">
        <ele>656.5</ele>
        <time>2021-09-11T08:46:46Z</time>
      </trkpt>
      <trkpt lat="44.08952" lon="6.27925">
        <ele>656.6</ele>
        <time>2021-09-11T08:46:48Z</time>
      </trkpt>
      <trkpt lat="44.08953" lon="6.2793">
        <ele>656.7</ele>
        <time>2021-09-11T08:46:49Z</time>
      </trkpt>
      <trkpt lat="44.08953" lon="6.27934">
        <ele>656.8</ele>
        <time>2021-09-11T08:46:50Z</time>
      </trkpt>
      <trkpt lat="44.08954" lon="6.2794">
        <ele>656.9</ele>
        <time>2021-09-11T08:46:52Z</time>
      </trkpt>
      <trkpt lat="44.08954" lon="6.27944">
        <ele>657</ele>
        <time>2021-09-11T08:46:53Z</time>
      </trkpt>
      <trkpt lat="44.08956" lon="6.2795">
        <ele>657.1</ele>
        <time>2021-09-11T08:46:54Z</time>
      </trkpt>
      <trkpt lat="44.08957" lon="6.27955">
        <ele>657.2</ele>
        <time>2021-09-11T08:46:55Z</time>
      </trkpt>
      <trkpt lat="44.08957" lon="6.27959">
        <ele>657.3</ele>
        <time>2021-09-11T08:46:57Z</time>
      </trkpt>
      <trkpt lat="44.08958" lon="6.27963">
        <ele>657.4</ele>
        <time>2021-09-11T08:46:58Z</time>
      </trkpt>
      <trkpt lat="44.08959" lon="6.27965">
        <ele>657.4</ele>
        <time>2021-09-11T08:46:59Z</time>
      </trkpt>
      <trkpt lat="44.08959" lon="6.27967">
        <ele>657.5</ele>
        <time>2021-09-11T08:47:00Z</time>
      </trkpt>
      <trkpt lat="44.0896" lon="6.27966">
        <ele>657.5</ele>
        <time>2021-09-11T08:47:01Z</time>
      </trkpt>
      <trkpt lat="44.0896" lon="6.27966">
        <ele>657.5</ele>
        <time>2021-09-11T08:47:03Z</time>
      </trkpt>
      <trkpt lat="44.08961" lon="6.27966">
        <ele>657.5</ele>
        <time>2021-09-11T08:47:04Z</time>
      </trkpt>
      <trkpt lat="44.08961" lon="6.27966">
        <ele>657.5</ele>
        <time>2021-09-11T08:47:06Z</time>
      </trkpt>
      <trkpt lat="44.08961" lon="6.27966">
        <ele>657.5</ele>
        <time>2021-09-11T08:47:07Z</time>
      </trkpt>
      <trkpt lat="44.08961" lon="6.27967">
        <ele>657.5</ele>
        <time>2021-09-11T08:47:09Z</time>
      </trkpt>
      <trkpt lat="44.0896" lon="6.27967">
        <ele>657.5</ele>
        <time>2021-09-11T08:47:10Z</time>
      </trkpt>
      <trkpt lat="44.08955" lon="6.27957">
        <ele>657.8</ele>
        <time>2021-09-11T08:47:23Z</time>
      </trkpt>
      <trkpt lat="44.08954" lon="6.2795">
        <ele>657.9</ele>
        <time>2021-09-11T08:47:25Z</time>
      </trkpt>
      <trkpt lat="44.08954" lon="6.27942">
        <ele>658</ele>
        <time>2021-09-11T08:47:26Z</time>
      </trkpt>
      <trkpt lat="44.08953" lon="6.27938">
        <ele>658.1</ele>
        <time>2021-09-11T08:47:27Z</time>
      </trkpt>
      <trkpt lat="44.08953" lon="6.27937">
        <ele>658.1</ele>
        <time>2021-09-11T08:47:30Z</time>
      </trkpt>
      <trkpt lat="44.08951" lon="6.2793">
        <ele>658.2</ele>
        <time>2021-09-11T08:47:32Z</time>
      </trkpt>
      <trkpt lat="44.08951" lon="6.27928">
        <ele>658.3</ele>
        <time>2021-09-11T08:47:33Z</time>
      </trkpt>
      <trkpt lat="44.08952" lon="6.27928">
        <ele>658.3</ele>
        <time>2021-09-11T08:47:34Z</time>
      </trkpt>
      <trkpt lat="44.08952" lon="6.2793">
        <ele>658.3</ele>
        <time>2021-09-11T08:47:36Z</time>
      </trkpt>
      <trkpt lat="44.08954" lon="6.27983">
        <ele>658.9</ele>
        <time>2021-09-11T08:47:49Z</time>
      </trkpt>
      <trkpt lat="44.08952" lon="6.27994">
        <ele>659</ele>
        <time>2021-09-11T08:47:50Z</time>
      </trkpt>
      <trkpt lat="44.0895" lon="6.27998">
        <ele>659.1</ele>
        <time>2021-09-11T08:47:51Z</time>
      </trkpt>
      <trkpt lat="44.08948" lon="6.28002">
        <ele>659.2</ele>
        <time>2021-09-11T08:47:53Z</time>
      </trkpt>
      <trkpt lat="44.08943" lon="6.28011">
        <ele>659.4</ele>
        <time>2021-09-11T08:47:55Z</time>
      </trkpt>
      <trkpt lat="44.08941" lon="6.28017">
        <ele>659.5</ele>
        <time>2021-09-11T08:47:56Z</time>
      </trkpt>
      <trkpt lat="44.08941" lon="6.28021">
        <ele>659.6</ele>
        <time>2021-09-11T08:47:57Z</time>
      </trkpt>
      <trkpt lat="44.08941" lon="6.28023">
        <ele>659.6</ele>
        <time>2021-09-11T08:47:59Z</time>
      </trkpt>
      <trkpt lat="44.08942" lon="6.28026">
        <ele>659.7</ele>
        <time>2021-09-11T08:48:00Z</time>
      </trkpt>
      <trkpt lat="44.08941" lon="6.28027">
        <ele>659.7</ele>
        <time>2021-09-11T08:48:01Z</time>
      </trkpt>
      <trkpt lat="44.08941" lon="6.28028">
        <ele>659.7</ele>
        <time>2021-09-11T08:48:03Z</time>
      </trkpt>
      <trkpt lat="44.08941" lon="6.2803">
        <ele>659.7</ele>
        <time>2021-09-11T08:48:04Z</time>
      </trkpt>
      <trkpt lat="44.0894" lon="6.28031">
        <ele>659.8</ele>
        <time>2021-09-11T08:48:06Z</time>
      </trkpt>
      <trkpt lat="44.0894" lon="6.28032">
        <ele>659.8</ele>
        <time>2021-09-11T08:48:08Z</time>
      </trkpt>
      <trkpt lat="44.0894" lon="6.28033">
        <ele>659.8</ele>
        <time>2021-09-11T08:48:43Z</time>
      </trkpt>
      <trkpt lat="44.08939" lon="6.28034">
        <ele>659.8</ele>
        <time>2021-09-11T08:48:44Z</time>
      </trkpt>
      <trkpt lat="44.08939" lon="6.28035">
        <ele>659.9</ele>
        <time>2021-09-11T08:48:45Z</time>
      </trkpt>
      <trkpt lat="44.08935" lon="6.28038">
        <ele>660</ele>
        <time>2021-09-11T08:48:46Z</time>
      </trkpt>
      <trkpt lat="44.08932" lon="6.28041">
        <ele>660.1</ele>
        <time>2021-09-11T08:48:47Z</time>
      </trkpt>
      <trkpt lat="44.08929" lon="6.28044">
        <ele>660.2</ele>
        <time>2021-09-11T08:48:48Z</time>
      </trkpt>
      <trkpt lat="44.08927" lon="6.28047">
        <ele>660.3</ele>
        <time>2021-09-11T08:48:49Z</time>
      </trkpt>
      <trkpt lat="44.08925" lon="6.2805">
        <ele>660.4</ele>
        <time>2021-09-11T08:48:50Z</time>
      </trkpt>
      <trkpt lat="44.08923" lon="6.28054">
        <ele>660.5</ele>
        <time>2021-09-11T08:48:51Z</time>
      </trkpt>
      <trkpt lat="44.08922" lon="6.28055">
        <ele>660.5</ele>
        <time>2021-09-11T08:48:52Z</time>
      </trkpt>
      <trkpt lat="44.08919" lon="6.28058">
        <ele>660.6</ele>
        <time>2021-09-11T08:48:54Z</time>
      </trkpt>
      <trkpt lat="44.08918" lon="6.28059">
        <ele>660.7</ele>
        <time>2021-09-11T08:48:55Z</time>
      </trkpt>
      <trkpt lat="44.08915" lon="6.28063">
        <ele>660.8</ele>
        <time>2021-09-11T08:48:57Z</time>
      </trkpt>
      <trkpt lat="44.08912" lon="6.28068">
        <ele>660.9</ele>
        <time>2021-09-11T08:48:58Z</time>
      </trkpt>
      <trkpt lat="44.08911" lon="6.2807">
        <ele>661</ele>
        <time>2021-09-11T08:48:59Z</time>
      </trkpt>
      <trkpt lat="44.0891" lon="6.28072">
        <ele>661.1</ele>
        <time>2021-09-11T08:49:00Z</time>
      </trkpt>
      <trkpt lat="44.08908" lon="6.28074">
        <ele>661.1</ele>
        <time>2021-09-11T08:49:02Z</time>
      </trkpt>
      <trkpt lat="44.08905" lon="6.2808">
        <ele>661.3</ele>
        <time>2021-09-11T08:49:03Z</time>
      </trkpt>
      <trkpt lat="44.08904" lon="6.28083">
        <ele>661.3</ele>
        <time>2021-09-11T08:49:04Z</time>
      </trkpt>
      <trkpt lat="44.08902" lon="6.28087">
        <ele>661.4</ele>
        <time>2021-09-11T08:49:06Z</time>
      </trkpt>
      <trkpt lat="44.089" lon="6.2809">
        <ele>661.5</ele>
        <time>2021-09-11T08:49:07Z</time>
      </trkpt>
      <trkpt lat="44.08898" lon="6.28097">
        <ele>661.7</ele>
        <time>2021-09-11T08:49:08Z</time>
      </trkpt>
      <trkpt lat="44.08897" lon="6.28102">
        <ele>661.8</ele>
        <time>2021-09-11T08:49:10Z</time>
      </trkpt>
      <trkpt lat="44.08896" lon="6.28106">
        <ele>661.9</ele>
        <time>2021-09-11T08:49:11Z</time>
      </trkpt>
      <trkpt lat="44.08895" lon="6.2811">
        <ele>662</ele>
        <time>2021-09-11T08:49:12Z</time>
      </trkpt>
      <trkpt lat="44.08895" lon="6.28116">
        <ele>662.1</ele>
        <time>2021-09-11T08:49:13Z</time>
      </trkpt>
      <trkpt lat="44.08894" lon="6.28121">
        <ele>662.2</ele>
        <time>2021-09-11T08:49:15Z</time>
      </trkpt>
      <trkpt lat="44.08895" lon="6.28126">
        <ele>662.3</ele>
        <time>2021-09-11T08:49:16Z</time>
      </trkpt>
      <trkpt lat="44.08895" lon="6.2813">
        <ele>662.3</ele>
        <time>2021-09-11T08:49:17Z</time>
      </trkpt>
      <trkpt lat="44.08896" lon="6.28134">
        <ele>662.4</ele>
        <time>2021-09-11T08:49:19Z</time>
      </trkpt>
      <trkpt lat="44.08896" lon="6.28138">
        <ele>662.5</ele>
        <time>2021-09-11T08:49:20Z</time>
      </trkpt>
      <trkpt lat="44.08898" lon="6.28144">
        <ele>662.6</ele>
        <time>2021-09-11T08:49:21Z</time>
      </trkpt>
      <trkpt lat="44.08899" lon="6.2815">
        <ele>662.7</ele>
        <time>2021-09-11T08:49:23Z</time>
      </trkpt>
      <trkpt lat="44.08899" lon="6.28153">
        <ele>662.8</ele>
        <time>2021-09-11T08:49:24Z</time>
      </trkpt>
      <trkpt lat="44.08901" lon="6.28158">
        <ele>662.9</ele>
        <time>2021-09-11T08:49:25Z</time>
      </trkpt>
      <trkpt lat="44.08901" lon="6.2816">
        <ele>662.9</ele>
        <time>2021-09-11T08:49:26Z</time>
      </trkpt>
      <trkpt lat="44.08902" lon="6.28163">
        <ele>663</ele>
        <time>2021-09-11T08:49:27Z</time>
      </trkpt>
      <trkpt lat="44.08904" lon="6.28169">
        <ele>663.1</ele>
        <time>2021-09-11T08:49:29Z</time>
      </trkpt>
      <trkpt lat="44.08907" lon="6.28175">
        <ele>663.3</ele>
        <time>2021-09-11T08:49:31Z</time>
      </trkpt>
      <trkpt lat="44.0891" lon="6.28181">
        <ele>663.5</ele>
        <time>2021-09-11T08:49:33Z</time>
      </trkpt>
      <trkpt lat="44.08914" lon="6.28185">
        <ele>663.6</ele>
        <time>2021-09-11T08:49:35Z</time>
      </trkpt>
      <trkpt lat="44.08915" lon="6.28187">
        <ele>663.7</ele>
        <time>2021-09-11T08:49:36Z</time>
      </trkpt>
      <trkpt lat="44.08919" lon="6.28193">
        <ele>663.9</ele>
        <time>2021-09-11T08:49:38Z</time>
      </trkpt>
      <trkpt lat="44.08921" lon="6.28199">
        <ele>664.1</ele>
        <time>2021-09-11T08:49:39Z</time>
      </trkpt>
      <trkpt lat="44.08923" lon="6.28204">
        <ele>664.2</ele>
        <time>2021-09-11T08:49:41Z</time>
      </trkpt>
      <trkpt lat="44.08923" lon="6.28206">
        <ele>664.2</ele>
        <time>2021-09-11T08:49:42Z</time>
      </trkpt>
      <trkpt lat="44.08927" lon="6.2821">
        <ele>664.4</ele>
        <time>2021-09-11T08:49:44Z</time>
      </trkpt>
      <trkpt lat="44.08928" lon="6.28213">
        <ele>664.4</ele>
        <time>2021-09-11T08:49:45Z</time>
      </trkpt>
      <trkpt lat="44.08931" lon="6.28219">
        <ele>664.6</ele>
        <time>2021-09-11T08:49:47Z</time>
      </trkpt>
      <trkpt lat="44.08932" lon="6.28224">
        <ele>664.7</ele>
        <time>2021-09-11T08:49:48Z</time>
      </trkpt>
      <trkpt lat="44.08934" lon="6.28229">
        <ele>664.8</ele>
        <time>2021-09-11T08:49:50Z</time>
      </trkpt>
      <trkpt lat="44.08936" lon="6.28234">
        <ele>664.9</ele>
        <time>2021-09-11T08:49:52Z</time>
      </trkpt>
      <trkpt lat="44.08936" lon="6.28235">
        <ele>665</ele>
        <time>2021-09-11T08:49:54Z</time>
      </trkpt>
      <trkpt lat="44.08936" lon="6.28235">
        <ele>665</ele>
        <time>2021-09-11T08:49:55Z</time>
      </trkpt>
      <trkpt lat="44.08936" lon="6.28236">
        <ele>665</ele>
        <time>2021-09-11T08:49:57Z</time>
      </trkpt>
      <trkpt lat="44.08935" lon="6.28239">
        <ele>665.1</ele>
        <time>2021-09-11T08:49:59Z</time>
      </trkpt>
      <trkpt lat="44.08934" lon="6.28238">
        <ele>665.1</ele>
        <time>2021-09-11T08:50:00Z</time>
      </trkpt>
      <trkpt lat="44.08934" lon="6.28238">
        <ele>665.1</ele>
        <time>2021-09-11T08:50:01Z</time>
      </trkpt>
      <trkpt lat="44.08932" lon="6.28238">
        <ele>665.1</ele>
        <time>2021-09-11T08:50:03Z</time>
      </trkpt>
      <trkpt lat="44.08932" lon="6.28238">
        <ele>665.2</ele>
        <time>2021-09-11T08:50:04Z</time>
      </trkpt>
      <trkpt lat="44.08932" lon="6.28239">
        <ele>665.2</ele>
        <time>2021-09-11T08:50:05Z</time>
      </trkpt>
      <trkpt lat="44.08931" lon="6.28239">
        <ele>665.2</ele>
        <time>2021-09-11T08:50:06Z</time>
      </trkpt>
      <trkpt lat="44.08931" lon="6.28239">
        <ele>665.2</ele>
        <time>2021-09-11T08:50:07Z</time>
      </trkpt>
      <trkpt lat="44.08941" lon="6.28254">
        <ele>665.6</ele>
        <time>2021-09-11T08:50:26Z</time>
      </trkpt>
      <trkpt lat="44.08943" lon="6.2826">
        <ele>665.7</ele>
        <time>2021-09-11T08:50:27Z</time>
      </trkpt>
      <trkpt lat="44.08946" lon="6.28271">
        <ele>666</ele>
        <time>2021-09-11T08:50:29Z</time>
      </trkpt>
      <trkpt lat="44.08947" lon="6.28275">
        <ele>666.1</ele>
        <time>2021-09-11T08:50:30Z</time>
      </trkpt>
      <trkpt lat="44.08948" lon="6.28283">
        <ele>666.3</ele>
        <time>2021-09-11T08:50:32Z</time>
      </trkpt>
      <trkpt lat="44.08948" lon="6.28289">
        <ele>666.5</ele>
        <time>2021-09-11T08:50:33Z</time>
      </trkpt>
      <trkpt lat="44.08947" lon="6.28298">
        <ele>666.7</ele>
        <time>2021-09-11T08:50:35Z</time>
      </trkpt>
      <trkpt lat="44.08944" lon="6.28306">
        <ele>667</ele>
        <time>2021-09-11T08:50:37Z</time>
      </trkpt>
      <trkpt lat="44.08939" lon="6.28311">
        <ele>667.3</ele>
        <time>2021-09-11T08:50:39Z</time>
      </trkpt>
      <trkpt lat="44.08937" lon="6.28314">
        <ele>667.4</ele>
        <time>2021-09-11T08:50:41Z</time>
      </trkpt>
      <trkpt lat="44.08936" lon="6.28315">
        <ele>667.5</ele>
        <time>2021-09-11T08:50:42Z</time>
      </trkpt>
      <trkpt lat="44.08935" lon="6.28316">
        <ele>667.5</ele>
        <time>2021-09-11T08:50:43Z</time>
      </trkpt>
      <trkpt lat="44.08933" lon="6.28317">
        <ele>667.6</ele>
        <time>2021-09-11T08:50:45Z</time>
      </trkpt>
      <trkpt lat="44.08932" lon="6.28318">
        <ele>667.7</ele>
        <time>2021-09-11T08:50:46Z</time>
      </trkpt>
      <trkpt lat="44.08931" lon="6.28321">
        <ele>667.8</ele>
        <time>2021-09-11T08:50:48Z</time>
      </trkpt>
      <trkpt lat="44.08928" lon="6.28324">
        <ele>668</ele>
        <time>2021-09-11T08:50:50Z</time>
      </trkpt>
      <trkpt lat="44.08925" lon="6.28324">
        <ele>668.1</ele>
        <time>2021-09-11T08:50:51Z</time>
      </trkpt>
      <trkpt lat="44.08924" lon="6.28325">
        <ele>668.2</ele>
        <time>2021-09-11T08:50:53Z</time>
      </trkpt>
      <trkpt lat="44.08923" lon="6.28325">
        <ele>668.2</ele>
        <time>2021-09-11T08:50:54Z</time>
      </trkpt>
      <trkpt lat="44.0892" lon="6.28326">
        <ele>668.4</ele>
        <time>2021-09-11T08:50:56Z</time>
      </trkpt>
      <trkpt lat="44.08917" lon="6.28327">
        <ele>668.5</ele>
        <time>2021-09-11T08:50:57Z</time>
      </trkpt>
      <trkpt lat="44.08914" lon="6.28328">
        <ele>668.7</ele>
        <time>2021-09-11T08:50:59Z</time>
      </trkpt>
      <trkpt lat="44.0891" lon="6.28328">
        <ele>668.9</ele>
        <time>2021-09-11T08:51:00Z</time>
      </trkpt>
      <trkpt lat="44.08907" lon="6.28327">
        <ele>669.1</ele>
        <time>2021-09-11T08:51:02Z</time>
      </trkpt>
      <trkpt lat="44.08904" lon="6.28326">
        <ele>669.3</ele>
        <time>2021-09-11T08:51:03Z</time>
      </trkpt>
      <trkpt lat="44.089" lon="6.28327">
        <ele>669.5</ele>
        <time>2021-09-11T08:51:05Z</time>
      </trkpt>
      <trkpt lat="44.08897" lon="6.28328">
        <ele>669.6</ele>
        <time>2021-09-11T08:51:07Z</time>
      </trkpt>
      <trkpt lat="44.08896" lon="6.28328">
        <ele>669.7</ele>
        <time>2021-09-11T08:51:08Z</time>
      </trkpt>
      <trkpt lat="44.08892" lon="6.28329">
        <ele>669.9</ele>
        <time>2021-09-11T08:51:09Z</time>
      </trkpt>
      <trkpt lat="44.08889" lon="6.28331">
        <ele>670.1</ele>
        <time>2021-09-11T08:51:11Z</time>
      </trkpt>
      <trkpt lat="44.08885" lon="6.28333">
        <ele>670.4</ele>
        <time>2021-09-11T08:51:12Z</time>
      </trkpt>
      <trkpt lat="44.08884" lon="6.28334">
        <ele>670.4</ele>
        <time>2021-09-11T08:51:13Z</time>
      </trkpt>
      <trkpt lat="44.0888" lon="6.28337">
        <ele>670.7</ele>
        <time>2021-09-11T08:51:14Z</time>
      </trkpt>
      <trkpt lat="44.08876" lon="6.28338">
        <ele>670.9</ele>
        <time>2021-09-11T08:51:16Z</time>
      </trkpt>
      <trkpt lat="44.08873" lon="6.2834">
        <ele>671.2</ele>
        <time>2021-09-11T08:51:18Z</time>
      </trkpt>
      <trkpt lat="44.0887" lon="6.28341">
        <ele>671.3</ele>
        <time>2021-09-11T08:51:19Z</time>
      </trkpt>
      <trkpt lat="44.08868" lon="6.28344">
        <ele>671.5</ele>
        <time>2021-09-11T08:51:21Z</time>
      </trkpt>
      <trkpt lat="44.08867" lon="6.28346">
        <ele>671.6</ele>
        <time>2021-09-11T08:51:22Z</time>
      </trkpt>
      <trkpt lat="44.08867" lon="6.28347">
        <ele>671.7</ele>
        <time>2021-09-11T08:51:23Z</time>
      </trkpt>
      <trkpt lat="44.08866" lon="6.28349">
        <ele>671.8</ele>
        <time>2021-09-11T08:51:25Z</time>
      </trkpt>
      <trkpt lat="44.08865" lon="6.28351">
        <ele>671.9</ele>
        <time>2021-09-11T08:51:27Z</time>
      </trkpt>
      <trkpt lat="44.08865" lon="6.28352">
        <ele>671.9</ele>
        <time>2021-09-11T08:51:28Z</time>
      </trkpt>
      <trkpt lat="44.08864" lon="6.28355">
        <ele>672.1</ele>
        <time>2021-09-11T08:51:30Z</time>
      </trkpt>
      <trkpt lat="44.08861" lon="6.2837">
        <ele>672.8</ele>
        <time>2021-09-11T08:51:35Z</time>
      </trkpt>
      <trkpt lat="44.08859" lon="6.28376">
        <ele>673.1</ele>
        <time>2021-09-11T08:51:36Z</time>
      </trkpt>
      <trkpt lat="44.08858" lon="6.28383">
        <ele>673.4</ele>
        <time>2021-09-11T08:51:38Z</time>
      </trkpt>
      <trkpt lat="44.08857" lon="6.28387">
        <ele>673.6</ele>
        <time>2021-09-11T08:51:39Z</time>
      </trkpt>
      <trkpt lat="44.08853" lon="6.28393">
        <ele>674</ele>
        <time>2021-09-11T08:51:41Z</time>
      </trkpt>
      <trkpt lat="44.08852" lon="6.28395">
        <ele>674.1</ele>
        <time>2021-09-11T08:51:42Z</time>
      </trkpt>
      <trkpt lat="44.08851" lon="6.28397">
        <ele>674.2</ele>
        <time>2021-09-11T08:51:43Z</time>
      </trkpt>
      <trkpt lat="44.08848" lon="6.28401">
        <ele>674.5</ele>
        <time>2021-09-11T08:51:45Z</time>
      </trkpt>
      <trkpt lat="44.08846" lon="6.28404">
        <ele>674.6</ele>
        <time>2021-09-11T08:51:46Z</time>
      </trkpt>
      <trkpt lat="44.08844" lon="6.28408">
        <ele>674.9</ele>
        <time>2021-09-11T08:51:47Z</time>
      </trkpt>
      <trkpt lat="44.08843" lon="6.28412">
        <ele>675.1</ele>
        <time>2021-09-11T08:51:48Z</time>
      </trkpt>
      <trkpt lat="44.08843" lon="6.2842">
        <ele>675.5</ele>
        <time>2021-09-11T08:51:50Z</time>
      </trkpt>
      <trkpt lat="44.08844" lon="6.28427">
        <ele>675.8</ele>
        <time>2021-09-11T08:51:52Z</time>
      </trkpt>
      <trkpt lat="44.08845" lon="6.28435">
        <ele>676.2</ele>
        <time>2021-09-11T08:51:54Z</time>
      </trkpt>
      <trkpt lat="44.08846" lon="6.28438">
        <ele>676.4</ele>
        <time>2021-09-11T08:51:55Z</time>
      </trkpt>
      <trkpt lat="44.08847" lon="6.28441">
        <ele>676.5</ele>
        <time>2021-09-11T08:51:56Z</time>
      </trkpt>
      <trkpt lat="44.08849" lon="6.28442">
        <ele>676.6</ele>
        <time>2021-09-11T08:51:58Z</time>
      </trkpt>
      <trkpt lat="44.08849" lon="6.28442">
        <ele>676.6</ele>
        <time>2021-09-11T08:51:59Z</time>
      </trkpt>
      <trkpt lat="44.08849" lon="6.28443">
        <ele>676.7</ele>
        <time>2021-09-11T08:52:00Z</time>
      </trkpt>
      <trkpt lat="44.08849" lon="6.28443">
        <ele>676.7</ele>
        <time>2021-09-11T08:52:01Z</time>
      </trkpt>
      <trkpt lat="44.08851" lon="6.28445">
        <ele>676.8</ele>
        <time>2021-09-11T08:52:03Z</time>
      </trkpt>
      <trkpt lat="44.08852" lon="6.28448">
        <ele>676.9</ele>
        <time>2021-09-11T08:52:05Z</time>
      </trkpt>
      <trkpt lat="44.08853" lon="6.2845">
        <ele>676.9</ele>
        <time>2021-09-11T08:52:06Z</time>
      </trkpt>
      <trkpt lat="44.08854" lon="6.28452">
        <ele>677</ele>
        <time>2021-09-11T08:52:51Z</time>
      </trkpt>
      <trkpt lat="44.08855" lon="6.28455">
        <ele>677.1</ele>
        <time>2021-09-11T08:52:52Z</time>
      </trkpt>
      <trkpt lat="44.08858" lon="6.28461">
        <ele>677.3</ele>
        <time>2021-09-11T08:52:54Z</time>
      </trkpt>
      <trkpt lat="44.08859" lon="6.28466">
        <ele>677.4</ele>
        <time>2021-09-11T08:52:55Z</time>
      </trkpt>
      <trkpt lat="44.0886" lon="6.2847">
        <ele>677.5</ele>
        <time>2021-09-11T08:52:56Z</time>
      </trkpt>
      <trkpt lat="44.08861" lon="6.28477">
        <ele>677.7</ele>
        <time>2021-09-11T08:52:57Z</time>
      </trkpt>
      <trkpt lat="44.08861" lon="6.28484">
        <ele>677.8</ele>
        <time>2021-09-11T08:52:59Z</time>
      </trkpt>
      <trkpt lat="44.08862" lon="6.28486">
        <ele>677.9</ele>
        <time>2021-09-11T08:53:00Z</time>
      </trkpt>
      <trkpt lat="44.08862" lon="6.28488">
        <ele>677.9</ele>
        <time>2021-09-11T08:53:01Z</time>
      </trkpt>
      <trkpt lat="44.08861" lon="6.28496">
        <ele>678.1</ele>
        <time>2021-09-11T08:53:03Z</time>
      </trkpt>
      <trkpt lat="44.0886" lon="6.28502">
        <ele>678.2</ele>
        <time>2021-09-11T08:53:04Z</time>
      </trkpt>
      <trkpt lat="44.08859" lon="6.28509">
        <ele>678.4</ele>
        <time>2021-09-11T08:53:06Z</time>
      </trkpt>
      <trkpt lat="44.08859" lon="6.28512">
        <ele>678.4</ele>
        <time>2021-09-11T08:53:07Z</time>
      </trkpt>
      <trkpt lat="44.08859" lon="6.28514">
        <ele>678.5</ele>
        <time>2021-09-11T08:53:08Z</time>
      </trkpt>
      <trkpt lat="44.08857" lon="6.2852">
        <ele>678.6</ele>
        <time>2021-09-11T08:53:09Z</time>
      </trkpt>
      <trkpt lat="44.08856" lon="6.28526">
        <ele>678.7</ele>
        <time>2021-09-11T08:53:11Z</time>
      </trkpt>
      <trkpt lat="44.08855" lon="6.2853">
        <ele>678.7</ele>
        <time>2021-09-11T08:53:12Z</time>
      </trkpt>
      <trkpt lat="44.08851" lon="6.28539">
        <ele>678.9</ele>
        <time>2021-09-11T08:53:14Z</time>
      </trkpt>
      <trkpt lat="44.08847" lon="6.28548">
        <ele>679.1</ele>
        <time>2021-09-11T08:53:15Z</time>
      </trkpt>
      <trkpt lat="44.08844" lon="6.28556">
        <ele>679.3</ele>
        <time>2021-09-11T08:53:17Z</time>
      </trkpt>
      <trkpt lat="44.08841" lon="6.2856">
        <ele>679.4</ele>
        <time>2021-09-11T08:53:19Z</time>
      </trkpt>
      <trkpt lat="44.08839" lon="6.28564">
        <ele>679.4</ele>
        <time>2021-09-11T08:53:20Z</time>
      </trkpt>
      <trkpt lat="44.08837" lon="6.28566">
        <ele>679.5</ele>
        <time>2021-09-11T08:53:21Z</time>
      </trkpt>
      <trkpt lat="44.08834" lon="6.28571">
        <ele>679.6</ele>
        <time>2021-09-11T08:53:22Z</time>
      </trkpt>
      <trkpt lat="44.0883" lon="6.28575">
        <ele>679.8</ele>
        <time>2021-09-11T08:53:24Z</time>
      </trkpt>
      <trkpt lat="44.08824" lon="6.2858">
        <ele>679.9</ele>
        <time>2021-09-11T08:53:26Z</time>
      </trkpt>
      <trkpt lat="44.08819" lon="6.28583">
        <ele>680.1</ele>
        <time>2021-09-11T08:53:27Z</time>
      </trkpt>
      <trkpt lat="44.08816" lon="6.28585">
        <ele>680.2</ele>
        <time>2021-09-11T08:53:29Z</time>
      </trkpt>
      <trkpt lat="44.08812" lon="6.28586">
        <ele>680.3</ele>
        <time>2021-09-11T08:53:30Z</time>
      </trkpt>
      <trkpt lat="44.08809" lon="6.28588">
        <ele>680.4</ele>
        <time>2021-09-11T08:53:31Z</time>
      </trkpt>
      <trkpt lat="44.08806" lon="6.28589">
        <ele>680.4</ele>
        <time>2021-09-11T08:53:32Z</time>
      </trkpt>
      <trkpt lat="44.088" lon="6.28592">
        <ele>680.5</ele>
        <time>2021-09-11T08:53:34Z</time>
      </trkpt>
      <trkpt lat="44.08794" lon="6.28595">
        <ele>680.6</ele>
        <time>2021-09-11T08:53:36Z</time>
      </trkpt>
      <trkpt lat="44.08791" lon="6.28596">
        <ele>680.6</ele>
        <time>2021-09-11T08:53:37Z</time>
      </trkpt>
      <trkpt lat="44.08786" lon="6.28598">
        <ele>680.7</ele>
        <time>2021-09-11T08:53:38Z</time>
      </trkpt>
      <trkpt lat="44.08781" lon="6.28599">
        <ele>680.8</ele>
        <time>2021-09-11T08:53:40Z</time>
      </trkpt>
      <trkpt lat="44.08774" lon="6.28601">
        <ele>680.9</ele>
        <time>2021-09-11T08:53:41Z</time>
      </trkpt>
      <trkpt lat="44.08771" lon="6.28603">
        <ele>680.9</ele>
        <time>2021-09-11T08:53:43Z</time>
      </trkpt>
      <trkpt lat="44.08766" lon="6.28606">
        <ele>681</ele>
        <time>2021-09-11T08:53:44Z</time>
      </trkpt>
      <trkpt lat="44.08762" lon="6.28609">
        <ele>681</ele>
        <time>2021-09-11T08:53:46Z</time>
      </trkpt>
      <trkpt lat="44.08759" lon="6.28613">
        <ele>681.1</ele>
        <time>2021-09-11T08:53:47Z</time>
      </trkpt>
      <trkpt lat="44.08758" lon="6.28618">
        <ele>681.3</ele>
        <time>2021-09-11T08:53:49Z</time>
      </trkpt>
      <trkpt lat="44.08758" lon="6.28619">
        <ele>681.4</ele>
        <time>2021-09-11T08:53:50Z</time>
      </trkpt>
      <trkpt lat="44.08757" lon="6.28621">
        <ele>681.5</ele>
        <time>2021-09-11T08:53:51Z</time>
      </trkpt>
      <trkpt lat="44.08757" lon="6.28625">
        <ele>681.7</ele>
        <time>2021-09-11T08:53:53Z</time>
      </trkpt>
      <trkpt lat="44.08756" lon="6.28628">
        <ele>681.9</ele>
        <time>2021-09-11T08:53:54Z</time>
      </trkpt>
      <trkpt lat="44.08756" lon="6.28631">
        <ele>682.1</ele>
        <time>2021-09-11T08:53:56Z</time>
      </trkpt>
      <trkpt lat="44.08755" lon="6.28635">
        <ele>682.3</ele>
        <time>2021-09-11T08:53:57Z</time>
      </trkpt>
      <trkpt lat="44.08754" lon="6.28636">
        <ele>682.4</ele>
        <time>2021-09-11T08:53:59Z</time>
      </trkpt>
      <trkpt lat="44.08753" lon="6.28638">
        <ele>682.6</ele>
        <time>2021-09-11T08:54:00Z</time>
      </trkpt>
      <trkpt lat="44.08753" lon="6.2864">
        <ele>682.7</ele>
        <time>2021-09-11T08:54:01Z</time>
      </trkpt>
      <trkpt lat="44.08752" lon="6.28642">
        <ele>682.8</ele>
        <time>2021-09-11T08:54:02Z</time>
      </trkpt>
      <trkpt lat="44.08752" lon="6.28644">
        <ele>683</ele>
        <time>2021-09-11T08:54:04Z</time>
      </trkpt>
      <trkpt lat="44.08752" lon="6.28647">
        <ele>683.2</ele>
        <time>2021-09-11T08:54:05Z</time>
      </trkpt>
      <trkpt lat="44.08751" lon="6.28649">
        <ele>683.4</ele>
        <time>2021-09-11T08:54:06Z</time>
      </trkpt>
      <trkpt lat="44.08751" lon="6.2865">
        <ele>683.4</ele>
        <time>2021-09-11T08:54:07Z</time>
      </trkpt>
      <trkpt lat="44.08751" lon="6.2865">
        <ele>683.5</ele>
        <time>2021-09-11T08:54:08Z</time>
      </trkpt>
      <trkpt lat="44.08748" lon="6.28653">
        <ele>683.8</ele>
        <time>2021-09-11T08:54:10Z</time>
      </trkpt>
      <trkpt lat="44.08745" lon="6.28656">
        <ele>684.2</ele>
        <time>2021-09-11T08:54:12Z</time>
      </trkpt>
      <trkpt lat="44.08744" lon="6.28657">
        <ele>684.3</ele>
        <time>2021-09-11T08:54:13Z</time>
      </trkpt>
      <trkpt lat="44.08741" lon="6.28659">
        <ele>684.7</ele>
        <time>2021-09-11T08:54:14Z</time>
      </trkpt>
      <trkpt lat="44.08737" lon="6.2866">
        <ele>685.1</ele>
        <time>2021-09-11T08:54:16Z</time>
      </trkpt>
      <trkpt lat="44.08732" lon="6.2866">
        <ele>685.6</ele>
        <time>2021-09-11T08:54:17Z</time>
      </trkpt>
      <trkpt lat="44.08728" lon="6.28661">
        <ele>686</ele>
        <time>2021-09-11T08:54:19Z</time>
      </trkpt>
      <trkpt lat="44.08723" lon="6.28661">
        <ele>686.4</ele>
        <time>2021-09-11T08:54:21Z</time>
      </trkpt>
      <trkpt lat="44.08719" lon="6.28661">
        <ele>686.8</ele>
        <time>2021-09-11T08:54:22Z</time>
      </trkpt>
      <trkpt lat="44.08716" lon="6.28662">
        <ele>687</ele>
        <time>2021-09-11T08:54:24Z</time>
      </trkpt>
      <trkpt lat="44.08715" lon="6.28663">
        <ele>687.2</ele>
        <time>2021-09-11T08:54:25Z</time>
      </trkpt>
      <trkpt lat="44.08713" lon="6.28665">
        <ele>687.4</ele>
        <time>2021-09-11T08:54:27Z</time>
      </trkpt>
      <trkpt lat="44.08712" lon="6.28666">
        <ele>687.5</ele>
        <time>2021-09-11T08:54:29Z</time>
      </trkpt>
      <trkpt lat="44.08711" lon="6.28666">
        <ele>687.6</ele>
        <time>2021-09-11T08:54:30Z</time>
      </trkpt>
      <trkpt lat="44.0871" lon="6.28667">
        <ele>687.6</ele>
        <time>2021-09-11T08:54:32Z</time>
      </trkpt>
      <trkpt lat="44.0871" lon="6.28668">
        <ele>687.7</ele>
        <time>2021-09-11T08:54:33Z</time>
      </trkpt>
      <trkpt lat="44.08709" lon="6.28669">
        <ele>687.8</ele>
        <time>2021-09-11T08:54:34Z</time>
      </trkpt>
      <trkpt lat="44.08707" lon="6.2867">
        <ele>688</ele>
        <time>2021-09-11T08:54:35Z</time>
      </trkpt>
      <trkpt lat="44.08706" lon="6.28674">
        <ele>688.3</ele>
        <time>2021-09-11T08:54:37Z</time>
      </trkpt>
      <trkpt lat="44.08705" lon="6.28676">
        <ele>688.4</ele>
        <time>2021-09-11T08:54:38Z</time>
      </trkpt>
      <trkpt lat="44.08703" lon="6.28681">
        <ele>688.8</ele>
        <time>2021-09-11T08:54:40Z</time>
      </trkpt>
      <trkpt lat="44.08703" lon="6.28684">
        <ele>689</ele>
        <time>2021-09-11T08:54:41Z</time>
      </trkpt>
      <trkpt lat="44.08703" lon="6.28686">
        <ele>689.1</ele>
        <time>2021-09-11T08:54:42Z</time>
      </trkpt>
      <trkpt lat="44.08705" lon="6.2869">
        <ele>689.5</ele>
        <time>2021-09-11T08:54:43Z</time>
      </trkpt>
      <trkpt lat="44.08706" lon="6.28693">
        <ele>689.7</ele>
        <time>2021-09-11T08:54:45Z</time>
      </trkpt>
      <trkpt lat="44.08706" lon="6.28697">
        <ele>689.9</ele>
        <time>2021-09-11T08:54:47Z</time>
      </trkpt>
      <trkpt lat="44.08704" lon="6.287">
        <ele>690.2</ele>
        <time>2021-09-11T08:54:48Z</time>
      </trkpt>
      <trkpt lat="44.08704" lon="6.28702">
        <ele>690.4</ele>
        <time>2021-09-11T08:54:49Z</time>
      </trkpt>
      <trkpt lat="44.08701" lon="6.28704">
        <ele>690.6</ele>
        <time>2021-09-11T08:54:51Z</time>
      </trkpt>
      <trkpt lat="44.087" lon="6.28705">
        <ele>690.7</ele>
        <time>2021-09-11T08:54:52Z</time>
      </trkpt>
      <trkpt lat="44.087" lon="6.28705">
        <ele>690.8</ele>
        <time>2021-09-11T08:54:54Z</time>
      </trkpt>
      <trkpt lat="44.08699" lon="6.28706">
        <ele>690.9</ele>
        <time>2021-09-11T08:54:56Z</time>
      </trkpt>
      <trkpt lat="44.08698" lon="6.28706">
        <ele>691</ele>
        <time>2021-09-11T08:54:58Z</time>
      </trkpt>
      <trkpt lat="44.08698" lon="6.28706">
        <ele>691</ele>
        <time>2021-09-11T08:54:59Z</time>
      </trkpt>
      <trkpt lat="44.08698" lon="6.28707">
        <ele>691.1</ele>
        <time>2021-09-11T08:55:00Z</time>
      </trkpt>
      <trkpt lat="44.08697" lon="6.28709">
        <ele>691.2</ele>
        <time>2021-09-11T08:55:01Z</time>
      </trkpt>
      <trkpt lat="44.08692" lon="6.28714">
        <ele>691.8</ele>
        <time>2021-09-11T08:55:05Z</time>
      </trkpt>
      <trkpt lat="44.08689" lon="6.28719">
        <ele>692.2</ele>
        <time>2021-09-11T08:55:07Z</time>
      </trkpt>
      <trkpt lat="44.08686" lon="6.28722">
        <ele>692.5</ele>
        <time>2021-09-11T08:55:08Z</time>
      </trkpt>
      <trkpt lat="44.08686" lon="6.28722">
        <ele>692.6</ele>
        <time>2021-09-11T08:55:09Z</time>
      </trkpt>
      <trkpt lat="44.08684" lon="6.28723">
        <ele>692.8</ele>
        <time>2021-09-11T08:55:10Z</time>
      </trkpt>
      <trkpt lat="44.08682" lon="6.28726">
        <ele>693</ele>
        <time>2021-09-11T08:55:12Z</time>
      </trkpt>
      <trkpt lat="44.0868" lon="6.28728">
        <ele>693.3</ele>
        <time>2021-09-11T08:55:13Z</time>
      </trkpt>
      <trkpt lat="44.08679" lon="6.2873">
        <ele>693.5</ele>
        <time>2021-09-11T08:55:15Z</time>
      </trkpt>
      <trkpt lat="44.08678" lon="6.2873">
        <ele>693.5</ele>
        <time>2021-09-11T08:55:16Z</time>
      </trkpt>
      <trkpt lat="44.08678" lon="6.2873">
        <ele>693.6</ele>
        <time>2021-09-11T08:55:17Z</time>
      </trkpt>
      <trkpt lat="44.08676" lon="6.28731">
        <ele>693.7</ele>
        <time>2021-09-11T08:55:19Z</time>
      </trkpt>
      <trkpt lat="44.08675" lon="6.28733">
        <ele>693.9</ele>
        <time>2021-09-11T08:55:20Z</time>
      </trkpt>
      <trkpt lat="44.08674" lon="6.28733">
        <ele>694.1</ele>
        <time>2021-09-11T08:55:21Z</time>
      </trkpt>
      <trkpt lat="44.08673" lon="6.28734">
        <ele>694.2</ele>
        <time>2021-09-11T08:55:22Z</time>
      </trkpt>
      <trkpt lat="44.08672" lon="6.28735">
        <ele>694.3</ele>
        <time>2021-09-11T08:55:24Z</time>
      </trkpt>
      <trkpt lat="44.08658" lon="6.28738">
        <ele>695.7</ele>
        <time>2021-09-11T08:55:32Z</time>
      </trkpt>
      <trkpt lat="44.08654" lon="6.28737">
        <ele>696</ele>
        <time>2021-09-11T08:55:34Z</time>
      </trkpt>
      <trkpt lat="44.0865" lon="6.28735">
        <ele>696.5</ele>
        <time>2021-09-11T08:55:36Z</time>
      </trkpt>
      <trkpt lat="44.08646" lon="6.28732">
        <ele>696.9</ele>
        <time>2021-09-11T08:55:37Z</time>
      </trkpt>
      <trkpt lat="44.08643" lon="6.28731">
        <ele>697.3</ele>
        <time>2021-09-11T08:55:39Z</time>
      </trkpt>
      <trkpt lat="44.08638" lon="6.28728">
        <ele>697.8</ele>
        <time>2021-09-11T08:55:41Z</time>
      </trkpt>
      <trkpt lat="44.08637" lon="6.28727">
        <ele>698</ele>
        <time>2021-09-11T08:55:43Z</time>
      </trkpt>
      <trkpt lat="44.08636" lon="6.28727">
        <ele>698.1</ele>
        <time>2021-09-11T08:55:44Z</time>
      </trkpt>
      <trkpt lat="44.08633" lon="6.28725">
        <ele>698.4</ele>
        <time>2021-09-11T08:55:45Z</time>
      </trkpt>
      <trkpt lat="44.08632" lon="6.28724">
        <ele>698.5</ele>
        <time>2021-09-11T08:55:46Z</time>
      </trkpt>
      <trkpt lat="44.0863" lon="6.28721">
        <ele>698.8</ele>
        <time>2021-09-11T08:55:47Z</time>
      </trkpt>
      <trkpt lat="44.08627" lon="6.28719">
        <ele>699.1</ele>
        <time>2021-09-11T08:55:49Z</time>
      </trkpt>
      <trkpt lat="44.08625" lon="6.28719">
        <ele>699.3</ele>
        <time>2021-09-11T08:55:50Z</time>
      </trkpt>
      <trkpt lat="44.08623" lon="6.28719">
        <ele>699.5</ele>
        <time>2021-09-11T08:55:52Z</time>
      </trkpt>
      <trkpt lat="44.08619" lon="6.28719">
        <ele>699.9</ele>
        <time>2021-09-11T08:55:54Z</time>
      </trkpt>
      <trkpt lat="44.08616" lon="6.28718">
        <ele>700.2</ele>
        <time>2021-09-11T08:55:55Z</time>
      </trkpt>
      <trkpt lat="44.08614" lon="6.28718">
        <ele>700.3</ele>
        <time>2021-09-11T08:55:56Z</time>
      </trkpt>
      <trkpt lat="44.08613" lon="6.28718">
        <ele>700.5</ele>
        <time>2021-09-11T08:55:57Z</time>
      </trkpt>
      <trkpt lat="44.08613" lon="6.28718">
        <ele>700.5</ele>
        <time>2021-09-11T08:55:59Z</time>
      </trkpt>
      <trkpt lat="44.08613" lon="6.28718">
        <ele>700.5</ele>
        <time>2021-09-11T08:56:01Z</time>
      </trkpt>
      <trkpt lat="44.08612" lon="6.28718">
        <ele>700.6</ele>
        <time>2021-09-11T08:56:02Z</time>
      </trkpt>
      <trkpt lat="44.08612" lon="6.28719">
        <ele>700.7</ele>
        <time>2021-09-11T08:56:04Z</time>
      </trkpt>
      <trkpt lat="44.08611" lon="6.28721">
        <ele>700.8</ele>
        <time>2021-09-11T08:56:05Z</time>
      </trkpt>
      <trkpt lat="44.08611" lon="6.28722">
        <ele>700.9</ele>
        <time>2021-09-11T08:56:07Z</time>
      </trkpt>
      <trkpt lat="44.08611" lon="6.28723">
        <ele>701</ele>
        <time>2021-09-11T08:56:09Z</time>
      </trkpt>
      <trkpt lat="44.0861" lon="6.28724">
        <ele>701.1</ele>
        <time>2021-09-11T08:56:10Z</time>
      </trkpt>
      <trkpt lat="44.0861" lon="6.28724">
        <ele>701.1</ele>
        <time>2021-09-11T08:56:12Z</time>
      </trkpt>
      <trkpt lat="44.08597" lon="6.28759">
        <ele>704</ele>
        <time>2021-09-11T08:56:23Z</time>
      </trkpt>
      <trkpt lat="44.08597" lon="6.28764">
        <ele>704.3</ele>
        <time>2021-09-11T08:56:24Z</time>
      </trkpt>
      <trkpt lat="44.08597" lon="6.28766">
        <ele>704.5</ele>
        <time>2021-09-11T08:56:25Z</time>
      </trkpt>
      <trkpt lat="44.08597" lon="6.28769">
        <ele>704.7</ele>
        <time>2021-09-11T08:56:26Z</time>
      </trkpt>
      <trkpt lat="44.08596" lon="6.28772">
        <ele>704.9</ele>
        <time>2021-09-11T08:56:28Z</time>
      </trkpt>
      <trkpt lat="44.08595" lon="6.28776">
        <ele>705.2</ele>
        <time>2021-09-11T08:56:29Z</time>
      </trkpt>
      <trkpt lat="44.08594" lon="6.28777">
        <ele>705.3</ele>
        <time>2021-09-11T08:56:31Z</time>
      </trkpt>
      <trkpt lat="44.08592" lon="6.2878">
        <ele>705.5</ele>
        <time>2021-09-11T08:56:32Z</time>
      </trkpt>
      <trkpt lat="44.08592" lon="6.28782">
        <ele>705.7</ele>
        <time>2021-09-11T08:56:33Z</time>
      </trkpt>
      <trkpt lat="44.08589" lon="6.28786">
        <ele>706</ele>
        <time>2021-09-11T08:56:35Z</time>
      </trkpt>
      <trkpt lat="44.08587" lon="6.28791">
        <ele>706.4</ele>
        <time>2021-09-11T08:56:37Z</time>
      </trkpt>
      <trkpt lat="44.08586" lon="6.28793">
        <ele>706.6</ele>
        <time>2021-09-11T08:56:38Z</time>
      </trkpt>
      <trkpt lat="44.08584" lon="6.28794">
        <ele>706.7</ele>
        <time>2021-09-11T08:56:39Z</time>
      </trkpt>
      <trkpt lat="44.08584" lon="6.28794">
        <ele>706.8</ele>
        <time>2021-09-11T08:56:41Z</time>
      </trkpt>
      <trkpt lat="44.0858" lon="6.28798">
        <ele>707.2</ele>
        <time>2021-09-11T08:56:43Z</time>
      </trkpt>
      <trkpt lat="44.08579" lon="6.28799">
        <ele>707.3</ele>
        <time>2021-09-11T08:56:44Z</time>
      </trkpt>
      <trkpt lat="44.08578" lon="6.288">
        <ele>707.4</ele>
        <time>2021-09-11T08:56:45Z</time>
      </trkpt>
      <trkpt lat="44.08577" lon="6.28803">
        <ele>707.6</ele>
        <time>2021-09-11T08:56:47Z</time>
      </trkpt>
      <trkpt lat="44.08575" lon="6.28807">
        <ele>708</ele>
        <time>2021-09-11T08:56:49Z</time>
      </trkpt>
      <trkpt lat="44.08575" lon="6.28808">
        <ele>708</ele>
        <time>2021-09-11T08:56:50Z</time>
      </trkpt>
      <trkpt lat="44.08575" lon="6.2881">
        <ele>708.2</ele>
        <time>2021-09-11T08:56:51Z</time>
      </trkpt>
      <trkpt lat="44.08575" lon="6.28812">
        <ele>708.4</ele>
        <time>2021-09-11T08:56:53Z</time>
      </trkpt>
      <trkpt lat="44.08575" lon="6.28814">
        <ele>708.4</ele>
        <time>2021-09-11T08:56:54Z</time>
      </trkpt>
      <trkpt lat="44.08574" lon="6.28814">
        <ele>708.5</ele>
        <time>2021-09-11T08:56:55Z</time>
      </trkpt>
      <trkpt lat="44.08574" lon="6.28814">
        <ele>708.5</ele>
        <time>2021-09-11T08:56:56Z</time>
      </trkpt>
      <trkpt lat="44.08574" lon="6.28813">
        <ele>708.6</ele>
        <time>2021-09-11T08:56:57Z</time>
      </trkpt>
      <trkpt lat="44.08574" lon="6.28813">
        <ele>708.6</ele>
        <time>2021-09-11T08:56:58Z</time>
      </trkpt>
      <trkpt lat="44.08573" lon="6.28813">
        <ele>708.7</ele>
        <time>2021-09-11T08:56:59Z</time>
      </trkpt>
      <trkpt lat="44.08572" lon="6.28814">
        <ele>708.8</ele>
        <time>2021-09-11T08:57:00Z</time>
      </trkpt>
      <trkpt lat="44.0857" lon="6.28818">
        <ele>709.2</ele>
        <time>2021-09-11T08:57:02Z</time>
      </trkpt>
      <trkpt lat="44.08568" lon="6.28822">
        <ele>709.5</ele>
        <time>2021-09-11T08:57:04Z</time>
      </trkpt>
      <trkpt lat="44.08566" lon="6.28826">
        <ele>709.8</ele>
        <time>2021-09-11T08:57:11Z</time>
      </trkpt>
      <trkpt lat="44.08564" lon="6.2883">
        <ele>710.1</ele>
        <time>2021-09-11T08:57:13Z</time>
      </trkpt>
      <trkpt lat="44.08562" lon="6.28834">
        <ele>710.5</ele>
        <time>2021-09-11T08:57:14Z</time>
      </trkpt>
      <trkpt lat="44.08561" lon="6.28838">
        <ele>710.8</ele>
        <time>2021-09-11T08:57:15Z</time>
      </trkpt>
      <trkpt lat="44.08559" lon="6.28842">
        <ele>711.1</ele>
        <time>2021-09-11T08:57:17Z</time>
      </trkpt>
      <trkpt lat="44.08558" lon="6.28843">
        <ele>711.2</ele>
        <time>2021-09-11T08:57:18Z</time>
      </trkpt>
      <trkpt lat="44.08558" lon="6.28846">
        <ele>711.4</ele>
        <time>2021-09-11T08:57:19Z</time>
      </trkpt>
      <trkpt lat="44.08558" lon="6.28846">
        <ele>711.5</ele>
        <time>2021-09-11T08:57:21Z</time>
      </trkpt>
      <trkpt lat="44.08557" lon="6.28847">
        <ele>711.5</ele>
        <time>2021-09-11T08:57:22Z</time>
      </trkpt>
      <trkpt lat="44.08557" lon="6.28848">
        <ele>711.6</ele>
        <time>2021-09-11T08:57:23Z</time>
      </trkpt>
      <trkpt lat="44.08557" lon="6.28848">
        <ele>711.6</ele>
        <time>2021-09-11T08:57:24Z</time>
      </trkpt>
      <trkpt lat="44.08557" lon="6.28849">
        <ele>711.6</ele>
        <time>2021-09-11T08:57:26Z</time>
      </trkpt>
      <trkpt lat="44.08557" lon="6.2885">
        <ele>711.8</ele>
        <time>2021-09-11T08:57:28Z</time>
      </trkpt>
      <trkpt lat="44.08554" lon="6.28862">
        <ele>712.7</ele>
        <time>2021-09-11T08:57:34Z</time>
      </trkpt>
      <trkpt lat="44.08554" lon="6.28865">
        <ele>713</ele>
        <time>2021-09-11T08:57:35Z</time>
      </trkpt>
      <trkpt lat="44.08552" lon="6.28869">
        <ele>713.3</ele>
        <time>2021-09-11T08:57:37Z</time>
      </trkpt>
      <trkpt lat="44.08549" lon="6.28873">
        <ele>713.7</ele>
        <time>2021-09-11T08:57:38Z</time>
      </trkpt>
      <trkpt lat="44.08548" lon="6.28874">
        <ele>713.9</ele>
        <time>2021-09-11T08:57:39Z</time>
      </trkpt>
      <trkpt lat="44.08544" lon="6.28878">
        <ele>714.4</ele>
        <time>2021-09-11T08:57:40Z</time>
      </trkpt>
      <trkpt lat="44.08543" lon="6.2888">
        <ele>714.6</ele>
        <time>2021-09-11T08:57:41Z</time>
      </trkpt>
      <trkpt lat="44.08539" lon="6.28882">
        <ele>715.1</ele>
        <time>2021-09-11T08:57:43Z</time>
      </trkpt>
      <trkpt lat="44.08535" lon="6.28884">
        <ele>715.6</ele>
        <time>2021-09-11T08:57:45Z</time>
      </trkpt>
      <trkpt lat="44.08533" lon="6.28885">
        <ele>715.8</ele>
        <time>2021-09-11T08:57:46Z</time>
      </trkpt>
      <trkpt lat="44.08532" lon="6.28886">
        <ele>716</ele>
        <time>2021-09-11T08:57:48Z</time>
      </trkpt>
      <trkpt lat="44.08531" lon="6.28888">
        <ele>716.2</ele>
        <time>2021-09-11T08:57:49Z</time>
      </trkpt>
      <trkpt lat="44.0853" lon="6.2889">
        <ele>716.4</ele>
        <time>2021-09-11T08:57:51Z</time>
      </trkpt>
      <trkpt lat="44.0853" lon="6.2889">
        <ele>716.5</ele>
        <time>2021-09-11T08:57:52Z</time>
      </trkpt>
      <trkpt lat="44.08531" lon="6.28891">
        <ele>716.5</ele>
        <time>2021-09-11T08:57:53Z</time>
      </trkpt>
      <trkpt lat="44.08531" lon="6.28891">
        <ele>716.6</ele>
        <time>2021-09-11T08:57:55Z</time>
      </trkpt>
      <trkpt lat="44.0853" lon="6.28893">
        <ele>716.7</ele>
        <time>2021-09-11T08:57:57Z</time>
      </trkpt>
      <trkpt lat="44.0853" lon="6.28894">
        <ele>716.8</ele>
        <time>2021-09-11T08:57:58Z</time>
      </trkpt>
      <trkpt lat="44.08529" lon="6.28897">
        <ele>717.1</ele>
        <time>2021-09-11T08:58:00Z</time>
      </trkpt>
      <trkpt lat="44.08528" lon="6.289">
        <ele>717.3</ele>
        <time>2021-09-11T08:58:02Z</time>
      </trkpt>
      <trkpt lat="44.0852" lon="6.2891">
        <ele>718.6</ele>
        <time>2021-09-11T08:58:11Z</time>
      </trkpt>
      <trkpt lat="44.08516" lon="6.28912">
        <ele>719</ele>
        <time>2021-09-11T08:58:13Z</time>
      </trkpt>
      <trkpt lat="44.08513" lon="6.28913">
        <ele>719.4</ele>
        <time>2021-09-11T08:58:14Z</time>
      </trkpt>
      <trkpt lat="44.08512" lon="6.28913">
        <ele>719.5</ele>
        <time>2021-09-11T08:58:15Z</time>
      </trkpt>
      <trkpt lat="44.08508" lon="6.28916">
        <ele>719.9</ele>
        <time>2021-09-11T08:58:16Z</time>
      </trkpt>
      <trkpt lat="44.08505" lon="6.28919">
        <ele>720.3</ele>
        <time>2021-09-11T08:58:18Z</time>
      </trkpt>
      <trkpt lat="44.08505" lon="6.2892">
        <ele>720.3</ele>
        <time>2021-09-11T08:58:19Z</time>
      </trkpt>
      <trkpt lat="44.08504" lon="6.28922">
        <ele>720.5</ele>
        <time>2021-09-11T08:58:21Z</time>
      </trkpt>
      <trkpt lat="44.08503" lon="6.28923">
        <ele>720.7</ele>
        <time>2021-09-11T08:58:22Z</time>
      </trkpt>
      <trkpt lat="44.08502" lon="6.28924">
        <ele>720.8</ele>
        <time>2021-09-11T08:58:24Z</time>
      </trkpt>
      <trkpt lat="44.08501" lon="6.28925">
        <ele>720.9</ele>
        <time>2021-09-11T08:58:25Z</time>
      </trkpt>
      <trkpt lat="44.085" lon="6.28926">
        <ele>721</ele>
        <time>2021-09-11T08:58:26Z</time>
      </trkpt>
      <trkpt lat="44.08498" lon="6.28926">
        <ele>721.2</ele>
        <time>2021-09-11T08:58:28Z</time>
      </trkpt>
      <trkpt lat="44.08497" lon="6.28927">
        <ele>721.3</ele>
        <time>2021-09-11T08:58:29Z</time>
      </trkpt>
      <trkpt lat="44.08496" lon="6.28927">
        <ele>721.4</ele>
        <time>2021-09-11T08:58:30Z</time>
      </trkpt>
      <trkpt lat="44.08494" lon="6.28929">
        <ele>721.6</ele>
        <time>2021-09-11T08:58:31Z</time>
      </trkpt>
      <trkpt lat="44.08492" lon="6.2893">
        <ele>721.9</ele>
        <time>2021-09-11T08:58:33Z</time>
      </trkpt>
      <trkpt lat="44.0849" lon="6.28931">
        <ele>722.1</ele>
        <time>2021-09-11T08:58:34Z</time>
      </trkpt>
      <trkpt lat="44.08489" lon="6.28933">
        <ele>722.2</ele>
        <time>2021-09-11T08:58:35Z</time>
      </trkpt>
      <trkpt lat="44.08487" lon="6.28934">
        <ele>722.3</ele>
        <time>2021-09-11T08:58:36Z</time>
      </trkpt>
      <trkpt lat="44.08485" lon="6.28936">
        <ele>722.6</ele>
        <time>2021-09-11T08:58:38Z</time>
      </trkpt>
      <trkpt lat="44.08484" lon="6.28936">
        <ele>722.7</ele>
        <time>2021-09-11T08:58:39Z</time>
      </trkpt>
      <trkpt lat="44.08484" lon="6.28936">
        <ele>722.7</ele>
        <time>2021-09-11T08:58:40Z</time>
      </trkpt>
      <trkpt lat="44.08483" lon="6.28938">
        <ele>722.9</ele>
        <time>2021-09-11T08:58:42Z</time>
      </trkpt>
      <trkpt lat="44.08483" lon="6.2894">
        <ele>723</ele>
        <time>2021-09-11T08:58:44Z</time>
      </trkpt>
      <trkpt lat="44.08483" lon="6.28943">
        <ele>723.2</ele>
        <time>2021-09-11T08:58:45Z</time>
      </trkpt>
      <trkpt lat="44.08482" lon="6.28946">
        <ele>723.4</ele>
        <time>2021-09-11T08:58:47Z</time>
      </trkpt>
      <trkpt lat="44.08482" lon="6.28946">
        <ele>723.4</ele>
        <time>2021-09-11T08:58:48Z</time>
      </trkpt>
      <trkpt lat="44.08482" lon="6.28947">
        <ele>723.4</ele>
        <time>2021-09-11T08:58:50Z</time>
      </trkpt>
      <trkpt lat="44.08482" lon="6.28947">
        <ele>723.5</ele>
        <time>2021-09-11T08:58:51Z</time>
      </trkpt>
      <trkpt lat="44.08482" lon="6.28948">
        <ele>723.5</ele>
        <time>2021-09-11T08:58:53Z</time>
      </trkpt>
      <trkpt lat="44.08482" lon="6.28949">
        <ele>723.6</ele>
        <time>2021-09-11T08:58:54Z</time>
      </trkpt>
      <trkpt lat="44.08482" lon="6.28949">
        <ele>723.6</ele>
        <time>2021-09-11T08:58:55Z</time>
      </trkpt>
      <trkpt lat="44.08482" lon="6.28951">
        <ele>723.7</ele>
        <time>2021-09-11T08:58:56Z</time>
      </trkpt>
      <trkpt lat="44.08482" lon="6.28952">
        <ele>723.8</ele>
        <time>2021-09-11T08:58:58Z</time>
      </trkpt>
      <trkpt lat="44.08482" lon="6.28953">
        <ele>723.9</ele>
        <time>2021-09-11T08:58:59Z</time>
      </trkpt>
      <trkpt lat="44.08479" lon="6.28959">
        <ele>724.3</ele>
        <time>2021-09-11T08:59:01Z</time>
      </trkpt>
      <trkpt lat="44.08479" lon="6.28962">
        <ele>724.5</ele>
        <time>2021-09-11T08:59:02Z</time>
      </trkpt>
      <trkpt lat="44.08477" lon="6.28964">
        <ele>724.8</ele>
        <time>2021-09-11T08:59:04Z</time>
      </trkpt>
      <trkpt lat="44.08473" lon="6.28972">
        <ele>725.4</ele>
        <time>2021-09-11T08:59:05Z</time>
      </trkpt>
      <trkpt lat="44.08471" lon="6.28976">
        <ele>725.8</ele>
        <time>2021-09-11T08:59:07Z</time>
      </trkpt>
      <trkpt lat="44.08469" lon="6.28981">
        <ele>726.3</ele>
        <time>2021-09-11T08:59:08Z</time>
      </trkpt>
      <trkpt lat="44.08465" lon="6.28985">
        <ele>726.8</ele>
        <time>2021-09-11T08:59:10Z</time>
      </trkpt>
      <trkpt lat="44.08464" lon="6.28986">
        <ele>727</ele>
        <time>2021-09-11T08:59:11Z</time>
      </trkpt>
      <trkpt lat="44.08463" lon="6.28987">
        <ele>727.1</ele>
        <time>2021-09-11T08:59:12Z</time>
      </trkpt>
      <trkpt lat="44.0846" lon="6.28988">
        <ele>727.5</ele>
        <time>2021-09-11T08:59:13Z</time>
      </trkpt>
      <trkpt lat="44.08458" lon="6.28988">
        <ele>727.7</ele>
        <time>2021-09-11T08:59:14Z</time>
      </trkpt>
      <trkpt lat="44.08456" lon="6.28988">
        <ele>728</ele>
        <time>2021-09-11T08:59:15Z</time>
      </trkpt>
      <trkpt lat="44.08453" lon="6.2899">
        <ele>728.3</ele>
        <time>2021-09-11T08:59:17Z</time>
      </trkpt>
      <trkpt lat="44.0845" lon="6.28993">
        <ele>728.8</ele>
        <time>2021-09-11T08:59:18Z</time>
      </trkpt>
      <trkpt lat="44.08448" lon="6.28995">
        <ele>729.1</ele>
        <time>2021-09-11T08:59:20Z</time>
      </trkpt>
      <trkpt lat="44.08447" lon="6.28995">
        <ele>729.2</ele>
        <time>2021-09-11T08:59:21Z</time>
      </trkpt>
      <trkpt lat="44.08446" lon="6.28995">
        <ele>729.3</ele>
        <time>2021-09-11T08:59:22Z</time>
      </trkpt>
      <trkpt lat="44.08446" lon="6.28995">
        <ele>729.4</ele>
        <time>2021-09-11T08:59:23Z</time>
      </trkpt>
      <trkpt lat="44.08445" lon="6.28996">
        <ele>729.5</ele>
        <time>2021-09-11T08:59:25Z</time>
      </trkpt>
      <trkpt lat="44.08445" lon="6.28996">
        <ele>729.6</ele>
        <time>2021-09-11T08:59:26Z</time>
      </trkpt>
      <trkpt lat="44.08444" lon="6.28996">
        <ele>729.6</ele>
        <time>2021-09-11T08:59:28Z</time>
      </trkpt>
      <trkpt lat="44.08444" lon="6.28997">
        <ele>729.7</ele>
        <time>2021-09-11T08:59:29Z</time>
      </trkpt>
      <trkpt lat="44.08443" lon="6.28997">
        <ele>729.8</ele>
        <time>2021-09-11T08:59:30Z</time>
      </trkpt>
      <trkpt lat="44.08443" lon="6.28998">
        <ele>729.8</ele>
        <time>2021-09-11T08:59:32Z</time>
      </trkpt>
      <trkpt lat="44.08443" lon="6.28998">
        <ele>729.8</ele>
        <time>2021-09-11T08:59:33Z</time>
      </trkpt>
      <trkpt lat="44.08443" lon="6.28998">
        <ele>729.9</ele>
        <time>2021-09-11T08:59:34Z</time>
      </trkpt>
      <trkpt lat="44.08441" lon="6.28999">
        <ele>730.1</ele>
        <time>2021-09-11T08:59:36Z</time>
      </trkpt>
      <trkpt lat="44.08388" lon="6.29015">
        <ele>736.2</ele>
        <time>2021-09-11T09:02:32Z</time>
      </trkpt>
      <trkpt lat="44.08388" lon="6.29017">
        <ele>736.3</ele>
        <time>2021-09-11T09:02:33Z</time>
      </trkpt>
      <trkpt lat="44.08388" lon="6.2902">
        <ele>736.5</ele>
        <time>2021-09-11T09:02:34Z</time>
      </trkpt>
      <trkpt lat="44.08388" lon="6.29022">
        <ele>736.6</ele>
        <time>2021-09-11T09:02:35Z</time>
      </trkpt>
      <trkpt lat="44.08388" lon="6.29023">
        <ele>736.7</ele>
        <time>2021-09-11T09:02:36Z</time>
      </trkpt>
      <trkpt lat="44.08388" lon="6.29027">
        <ele>737</ele>
        <time>2021-09-11T09:02:38Z</time>
      </trkpt>
      <trkpt lat="44.08387" lon="6.29032">
        <ele>737.2</ele>
        <time>2021-09-11T09:02:39Z</time>
      </trkpt>
      <trkpt lat="44.08387" lon="6.29033">
        <ele>737.3</ele>
        <time>2021-09-11T09:02:40Z</time>
      </trkpt>
      <trkpt lat="44.08388" lon="6.29037">
        <ele>737.5</ele>
        <time>2021-09-11T09:02:41Z</time>
      </trkpt>
      <trkpt lat="44.08389" lon="6.29042">
        <ele>737.8</ele>
        <time>2021-09-11T09:02:43Z</time>
      </trkpt>
      <trkpt lat="44.08389" lon="6.29043">
        <ele>737.9</ele>
        <time>2021-09-11T09:02:44Z</time>
      </trkpt>
      <trkpt lat="44.0839" lon="6.29047">
        <ele>738.2</ele>
        <time>2021-09-11T09:02:46Z</time>
      </trkpt>
      <trkpt lat="44.0839" lon="6.29048">
        <ele>738.2</ele>
        <time>2021-09-11T09:02:47Z</time>
      </trkpt>
      <trkpt lat="44.08389" lon="6.29048">
        <ele>738.2</ele>
        <time>2021-09-11T09:02:48Z</time>
      </trkpt>
      <trkpt lat="44.08389" lon="6.29048">
        <ele>738.3</ele>
        <time>2021-09-11T09:02:49Z</time>
      </trkpt>
      <trkpt lat="44.08389" lon="6.29048">
        <ele>738.3</ele>
        <time>2021-09-11T09:02:50Z</time>
      </trkpt>
      <trkpt lat="44.08389" lon="6.29049">
        <ele>738.3</ele>
        <time>2021-09-11T09:02:52Z</time>
      </trkpt>
      <trkpt lat="44.08389" lon="6.29059">
        <ele>738.9</ele>
        <time>2021-09-11T09:03:04Z</time>
      </trkpt>
      <trkpt lat="44.08389" lon="6.29059">
        <ele>738.9</ele>
        <time>2021-09-11T09:03:05Z</time>
      </trkpt>
      <trkpt lat="44.08387" lon="6.2906">
        <ele>739</ele>
        <time>2021-09-11T09:03:07Z</time>
      </trkpt>
      <trkpt lat="44.08386" lon="6.29061">
        <ele>739.1</ele>
        <time>2021-09-11T09:03:08Z</time>
      </trkpt>
      <trkpt lat="44.08383" lon="6.29063">
        <ele>739.4</ele>
        <time>2021-09-11T09:03:09Z</time>
      </trkpt>
      <trkpt lat="44.08379" lon="6.29065">
        <ele>739.8</ele>
        <time>2021-09-11T09:03:10Z</time>
      </trkpt>
      <trkpt lat="44.08376" lon="6.29065">
        <ele>740</ele>
        <time>2021-09-11T09:03:12Z</time>
      </trkpt>
      <trkpt lat="44.08372" lon="6.29067">
        <ele>740.4</ele>
        <time>2021-09-11T09:03:13Z</time>
      </trkpt>
      <trkpt lat="44.08369" lon="6.29067">
        <ele>740.7</ele>
        <time>2021-09-11T09:03:15Z</time>
      </trkpt>
      <trkpt lat="44.08367" lon="6.29067">
        <ele>740.9</ele>
        <time>2021-09-11T09:03:16Z</time>
      </trkpt>
      <trkpt lat="44.08362" lon="6.29066">
        <ele>741.4</ele>
        <time>2021-09-11T09:03:18Z</time>
      </trkpt>
      <trkpt lat="44.0836" lon="6.29065">
        <ele>741.6</ele>
        <time>2021-09-11T09:03:19Z</time>
      </trkpt>
      <trkpt lat="44.08359" lon="6.29066">
        <ele>741.7</ele>
        <time>2021-09-11T09:03:20Z</time>
      </trkpt>
      <trkpt lat="44.08358" lon="6.29066">
        <ele>741.8</ele>
        <time>2021-09-11T09:03:21Z</time>
      </trkpt>
      <trkpt lat="44.08358" lon="6.29067">
        <ele>741.9</ele>
        <time>2021-09-11T09:03:23Z</time>
      </trkpt>
      <trkpt lat="44.08357" lon="6.29067">
        <ele>741.9</ele>
        <time>2021-09-11T09:03:24Z</time>
      </trkpt>
      <trkpt lat="44.08356" lon="6.29068">
        <ele>742.1</ele>
        <time>2021-09-11T09:03:25Z</time>
      </trkpt>
      <trkpt lat="44.08355" lon="6.29069">
        <ele>742.2</ele>
        <time>2021-09-11T09:03:26Z</time>
      </trkpt>
      <trkpt lat="44.08354" lon="6.2907">
        <ele>742.3</ele>
        <time>2021-09-11T09:03:27Z</time>
      </trkpt>
      <trkpt lat="44.08354" lon="6.29072">
        <ele>742.4</ele>
        <time>2021-09-11T09:03:28Z</time>
      </trkpt>
      <trkpt lat="44.08353" lon="6.29072">
        <ele>742.5</ele>
        <time>2021-09-11T09:03:29Z</time>
      </trkpt>
      <trkpt lat="44.08351" lon="6.29073">
        <ele>742.8</ele>
        <time>2021-09-11T09:03:31Z</time>
      </trkpt>
      <trkpt lat="44.08349" lon="6.29073">
        <ele>742.9</ele>
        <time>2021-09-11T09:03:32Z</time>
      </trkpt>
      <trkpt lat="44.08349" lon="6.29074">
        <ele>743</ele>
        <time>2021-09-11T09:03:33Z</time>
      </trkpt>
      <trkpt lat="44.08347" lon="6.29074">
        <ele>743.1</ele>
        <time>2021-09-11T09:03:34Z</time>
      </trkpt>
      <trkpt lat="44.08346" lon="6.29076">
        <ele>743.4</ele>
        <time>2021-09-11T09:03:35Z</time>
      </trkpt>
      <trkpt lat="44.08344" lon="6.29079">
        <ele>743.6</ele>
        <time>2021-09-11T09:03:36Z</time>
      </trkpt>
      <trkpt lat="44.08343" lon="6.29081">
        <ele>743.8</ele>
        <time>2021-09-11T09:03:37Z</time>
      </trkpt>
      <trkpt lat="44.08342" lon="6.29084">
        <ele>744</ele>
        <time>2021-09-11T09:03:38Z</time>
      </trkpt>
      <trkpt lat="44.08341" lon="6.29086">
        <ele>744.2</ele>
        <time>2021-09-11T09:03:40Z</time>
      </trkpt>
      <trkpt lat="44.0834" lon="6.29089">
        <ele>744.4</ele>
        <time>2021-09-11T09:03:41Z</time>
      </trkpt>
      <trkpt lat="44.08339" lon="6.29092">
        <ele>744.6</ele>
        <time>2021-09-11T09:03:53Z</time>
      </trkpt>
      <trkpt lat="44.08338" lon="6.29094">
        <ele>744.8</ele>
        <time>2021-09-11T09:03:54Z</time>
      </trkpt>
      <trkpt lat="44.08336" lon="6.29097">
        <ele>745</ele>
        <time>2021-09-11T09:03:55Z</time>
      </trkpt>
      <trkpt lat="44.08335" lon="6.29099">
        <ele>745.2</ele>
        <time>2021-09-11T09:03:56Z</time>
      </trkpt>
      <trkpt lat="44.08335" lon="6.29101">
        <ele>745.3</ele>
        <time>2021-09-11T09:03:57Z</time>
      </trkpt>
      <trkpt lat="44.08333" lon="6.29105">
        <ele>745.6</ele>
        <time>2021-09-11T09:03:59Z</time>
      </trkpt>
      <trkpt lat="44.08332" lon="6.29107">
        <ele>745.8</ele>
        <time>2021-09-11T09:04:00Z</time>
      </trkpt>
      <trkpt lat="44.08331" lon="6.29111">
        <ele>746.1</ele>
        <time>2021-09-11T09:04:02Z</time>
      </trkpt>
      <trkpt lat="44.0833" lon="6.29112">
        <ele>746.2</ele>
        <time>2021-09-11T09:04:03Z</time>
      </trkpt>
      <trkpt lat="44.08329" lon="6.29116">
        <ele>746.4</ele>
        <time>2021-09-11T09:04:04Z</time>
      </trkpt>
      <trkpt lat="44.08326" lon="6.29116">
        <ele>746.7</ele>
        <time>2021-09-11T09:04:05Z</time>
      </trkpt>
      <trkpt lat="44.08324" lon="6.29117">
        <ele>746.9</ele>
        <time>2021-09-11T09:04:06Z</time>
      </trkpt>
      <trkpt lat="44.08322" lon="6.29118">
        <ele>747.1</ele>
        <time>2021-09-11T09:04:08Z</time>
      </trkpt>
      <trkpt lat="44.08319" lon="6.2912">
        <ele>747.4</ele>
        <time>2021-09-11T09:04:09Z</time>
      </trkpt>
      <trkpt lat="44.08318" lon="6.29121">
        <ele>747.5</ele>
        <time>2021-09-11T09:04:10Z</time>
      </trkpt>
      <trkpt lat="44.08316" lon="6.29122">
        <ele>747.7</ele>
        <time>2021-09-11T09:04:11Z</time>
      </trkpt>
      <trkpt lat="44.08316" lon="6.29123">
        <ele>747.7</ele>
        <time>2021-09-11T09:04:12Z</time>
      </trkpt>
      <trkpt lat="44.08315" lon="6.29123">
        <ele>747.8</ele>
        <time>2021-09-11T09:04:13Z</time>
      </trkpt>
      <trkpt lat="44.08314" lon="6.29123">
        <ele>747.9</ele>
        <time>2021-09-11T09:04:14Z</time>
      </trkpt>
      <trkpt lat="44.08313" lon="6.29123">
        <ele>747.9</ele>
        <time>2021-09-11T09:04:16Z</time>
      </trkpt>
      <trkpt lat="44.08313" lon="6.29123">
        <ele>748</ele>
        <time>2021-09-11T09:04:17Z</time>
      </trkpt>
      <trkpt lat="44.08312" lon="6.29124">
        <ele>748</ele>
        <time>2021-09-11T09:04:18Z</time>
      </trkpt>
      <trkpt lat="44.08312" lon="6.29124">
        <ele>748</ele>
        <time>2021-09-11T09:04:19Z</time>
      </trkpt>
      <trkpt lat="44.08312" lon="6.29124">
        <ele>748</ele>
        <time>2021-09-11T09:04:20Z</time>
      </trkpt>
      <trkpt lat="44.08305" lon="6.29136">
        <ele>749</ele>
        <time>2021-09-11T09:04:28Z</time>
      </trkpt>
      <trkpt lat="44.08303" lon="6.29141">
        <ele>749.4</ele>
        <time>2021-09-11T09:04:30Z</time>
      </trkpt>
      <trkpt lat="44.08301" lon="6.29145">
        <ele>749.7</ele>
        <time>2021-09-11T09:04:31Z</time>
      </trkpt>
      <trkpt lat="44.08301" lon="6.29146">
        <ele>749.8</ele>
        <time>2021-09-11T09:04:32Z</time>
      </trkpt>
      <trkpt lat="44.08298" lon="6.2915">
        <ele>750.1</ele>
        <time>2021-09-11T09:04:34Z</time>
      </trkpt>
      <trkpt lat="44.08296" lon="6.29152">
        <ele>750.3</ele>
        <time>2021-09-11T09:04:36Z</time>
      </trkpt>
      <trkpt lat="44.08293" lon="6.29155">
        <ele>750.6</ele>
        <time>2021-09-11T09:04:37Z</time>
      </trkpt>
      <trkpt lat="44.08292" lon="6.29156">
        <ele>750.8</ele>
        <time>2021-09-11T09:04:39Z</time>
      </trkpt>
      <trkpt lat="44.08291" lon="6.29157">
        <ele>750.9</ele>
        <time>2021-09-11T09:04:40Z</time>
      </trkpt>
      <trkpt lat="44.0829" lon="6.2916">
        <ele>751.1</ele>
        <time>2021-09-11T09:04:41Z</time>
      </trkpt>
      <trkpt lat="44.0829" lon="6.29163">
        <ele>751.3</ele>
        <time>2021-09-11T09:04:43Z</time>
      </trkpt>
      <trkpt lat="44.0829" lon="6.29165">
        <ele>751.4</ele>
        <time>2021-09-11T09:04:44Z</time>
      </trkpt>
      <trkpt lat="44.0829" lon="6.29167">
        <ele>751.6</ele>
        <time>2021-09-11T09:04:45Z</time>
      </trkpt>
      <trkpt lat="44.0829" lon="6.2917">
        <ele>751.7</ele>
        <time>2021-09-11T09:04:46Z</time>
      </trkpt>
      <trkpt lat="44.0829" lon="6.29171">
        <ele>751.8</ele>
        <time>2021-09-11T09:04:48Z</time>
      </trkpt>
      <trkpt lat="44.08291" lon="6.29172">
        <ele>751.9</ele>
        <time>2021-09-11T09:04:49Z</time>
      </trkpt>
      <trkpt lat="44.0829" lon="6.29172">
        <ele>751.9</ele>
        <time>2021-09-11T09:04:51Z</time>
      </trkpt>
      <trkpt lat="44.0829" lon="6.29172">
        <ele>752</ele>
        <time>2021-09-11T09:04:52Z</time>
      </trkpt>
      <trkpt lat="44.08289" lon="6.29174">
        <ele>752.1</ele>
        <time>2021-09-11T09:04:53Z</time>
      </trkpt>
      <trkpt lat="44.08287" lon="6.29177">
        <ele>752.4</ele>
        <time>2021-09-11T09:04:55Z</time>
      </trkpt>
      <trkpt lat="44.08286" lon="6.29178">
        <ele>752.5</ele>
        <time>2021-09-11T09:04:56Z</time>
      </trkpt>
      <trkpt lat="44.08285" lon="6.29179">
        <ele>752.6</ele>
        <time>2021-09-11T09:04:57Z</time>
      </trkpt>
      <trkpt lat="44.08283" lon="6.2918">
        <ele>752.8</ele>
        <time>2021-09-11T09:04:58Z</time>
      </trkpt>
      <trkpt lat="44.08282" lon="6.29182">
        <ele>753</ele>
        <time>2021-09-11T09:04:59Z</time>
      </trkpt>
      <trkpt lat="44.0828" lon="6.29183">
        <ele>753.1</ele>
        <time>2021-09-11T09:05:00Z</time>
      </trkpt>
      <trkpt lat="44.08279" lon="6.29183">
        <ele>753.2</ele>
        <time>2021-09-11T09:05:01Z</time>
      </trkpt>
      <trkpt lat="44.08278" lon="6.29184">
        <ele>753.3</ele>
        <time>2021-09-11T09:05:02Z</time>
      </trkpt>
      <trkpt lat="44.08276" lon="6.29185">
        <ele>753.6</ele>
        <time>2021-09-11T09:05:04Z</time>
      </trkpt>
      <trkpt lat="44.08274" lon="6.29187">
        <ele>753.8</ele>
        <time>2021-09-11T09:05:05Z</time>
      </trkpt>
      <trkpt lat="44.08273" lon="6.29187">
        <ele>753.9</ele>
        <time>2021-09-11T09:05:07Z</time>
      </trkpt>
      <trkpt lat="44.08272" lon="6.29188">
        <ele>753.9</ele>
        <time>2021-09-11T09:05:08Z</time>
      </trkpt>
      <trkpt lat="44.08271" lon="6.29188">
        <ele>754</ele>
        <time>2021-09-11T09:05:09Z</time>
      </trkpt>
      <trkpt lat="44.0827" lon="6.29189">
        <ele>754.2</ele>
        <time>2021-09-11T09:05:11Z</time>
      </trkpt>
      <trkpt lat="44.08266" lon="6.29189">
        <ele>754.6</ele>
        <time>2021-09-11T09:05:13Z</time>
      </trkpt>
      <trkpt lat="44.08264" lon="6.29189">
        <ele>754.8</ele>
        <time>2021-09-11T09:05:14Z</time>
      </trkpt>
      <trkpt lat="44.08263" lon="6.29189">
        <ele>754.8</ele>
        <time>2021-09-11T09:05:16Z</time>
      </trkpt>
      <trkpt lat="44.08262" lon="6.29188">
        <ele>754.9</ele>
        <time>2021-09-11T09:05:17Z</time>
      </trkpt>
      <trkpt lat="44.08261" lon="6.29188">
        <ele>755.1</ele>
        <time>2021-09-11T09:05:19Z</time>
      </trkpt>
      <trkpt lat="44.08261" lon="6.29187">
        <ele>755.1</ele>
        <time>2021-09-11T09:05:20Z</time>
      </trkpt>
      <trkpt lat="44.0826" lon="6.29187">
        <ele>755.2</ele>
        <time>2021-09-11T09:05:22Z</time>
      </trkpt>
      <trkpt lat="44.08259" lon="6.29187">
        <ele>755.2</ele>
        <time>2021-09-11T09:05:23Z</time>
      </trkpt>
      <trkpt lat="44.08259" lon="6.29187">
        <ele>755.2</ele>
        <time>2021-09-11T09:05:24Z</time>
      </trkpt>
      <trkpt lat="44.08252" lon="6.29185">
        <ele>755.9</ele>
        <time>2021-09-11T09:05:26Z</time>
      </trkpt>
      <trkpt lat="44.08245" lon="6.29183">
        <ele>756.6</ele>
        <time>2021-09-11T09:05:43Z</time>
      </trkpt>
      <trkpt lat="44.08237" lon="6.29181">
        <ele>757.3</ele>
        <time>2021-09-11T09:05:44Z</time>
      </trkpt>
      <trkpt lat="44.0823" lon="6.29179">
        <ele>757.9</ele>
        <time>2021-09-11T09:05:45Z</time>
      </trkpt>
      <trkpt lat="44.0823" lon="6.29178">
        <ele>758</ele>
        <time>2021-09-11T09:05:46Z</time>
      </trkpt>
      <trkpt lat="44.08228" lon="6.29178">
        <ele>758.1</ele>
        <time>2021-09-11T09:05:48Z</time>
      </trkpt>
      <trkpt lat="44.08227" lon="6.29177">
        <ele>758.2</ele>
        <time>2021-09-11T09:05:49Z</time>
      </trkpt>
      <trkpt lat="44.08227" lon="6.29177">
        <ele>758.3</ele>
        <time>2021-09-11T09:05:51Z</time>
      </trkpt>
      <trkpt lat="44.08227" lon="6.29176">
        <ele>758.3</ele>
        <time>2021-09-11T09:05:52Z</time>
      </trkpt>
      <trkpt lat="44.08226" lon="6.29176">
        <ele>758.3</ele>
        <time>2021-09-11T09:05:53Z</time>
      </trkpt>
      <trkpt lat="44.08226" lon="6.29175">
        <ele>758.3</ele>
        <time>2021-09-11T09:05:54Z</time>
      </trkpt>
      <trkpt lat="44.0822" lon="6.29168">
        <ele>759</ele>
        <time>2021-09-11T09:06:03Z</time>
      </trkpt>
      <trkpt lat="44.08217" lon="6.29166">
        <ele>759.3</ele>
        <time>2021-09-11T09:06:04Z</time>
      </trkpt>
      <trkpt lat="44.08215" lon="6.29164">
        <ele>759.5</ele>
        <time>2021-09-11T09:06:06Z</time>
      </trkpt>
      <trkpt lat="44.08214" lon="6.29162">
        <ele>759.6</ele>
        <time>2021-09-11T09:06:07Z</time>
      </trkpt>
      <trkpt lat="44.08212" lon="6.2916">
        <ele>759.8</ele>
        <time>2021-09-11T09:06:08Z</time>
      </trkpt>
      <trkpt lat="44.08211" lon="6.29157">
        <ele>760</ele>
        <time>2021-09-11T09:06:10Z</time>
      </trkpt>
      <trkpt lat="44.08209" lon="6.29153">
        <ele>760.3</ele>
        <time>2021-09-11T09:06:12Z</time>
      </trkpt>
      <trkpt lat="44.08209" lon="6.29152">
        <ele>760.3</ele>
        <time>2021-09-11T09:06:13Z</time>
      </trkpt>
      <trkpt lat="44.08207" lon="6.29149">
        <ele>760.6</ele>
        <time>2021-09-11T09:06:15Z</time>
      </trkpt>
      <trkpt lat="44.08206" lon="6.29148">
        <ele>760.7</ele>
        <time>2021-09-11T09:06:16Z</time>
      </trkpt>
      <trkpt lat="44.08205" lon="6.29147">
        <ele>760.8</ele>
        <time>2021-09-11T09:06:18Z</time>
      </trkpt>
      <trkpt lat="44.08203" lon="6.29146">
        <ele>760.9</ele>
        <time>2021-09-11T09:06:19Z</time>
      </trkpt>
      <trkpt lat="44.08201" lon="6.29145">
        <ele>761.1</ele>
        <time>2021-09-11T09:06:20Z</time>
      </trkpt>
      <trkpt lat="44.08199" lon="6.29145">
        <ele>761.3</ele>
        <time>2021-09-11T09:06:22Z</time>
      </trkpt>
      <trkpt lat="44.08197" lon="6.29145">
        <ele>761.5</ele>
        <time>2021-09-11T09:06:23Z</time>
      </trkpt>
      <trkpt lat="44.08194" lon="6.29146">
        <ele>761.7</ele>
        <time>2021-09-11T09:06:25Z</time>
      </trkpt>
      <trkpt lat="44.0819" lon="6.29146">
        <ele>761.9</ele>
        <time>2021-09-11T09:06:26Z</time>
      </trkpt>
      <trkpt lat="44.08187" lon="6.29148">
        <ele>762.2</ele>
        <time>2021-09-11T09:06:28Z</time>
      </trkpt>
      <trkpt lat="44.08186" lon="6.29149">
        <ele>762.3</ele>
        <time>2021-09-11T09:06:29Z</time>
      </trkpt>
      <trkpt lat="44.08182" lon="6.2915">
        <ele>762.7</ele>
        <time>2021-09-11T09:06:31Z</time>
      </trkpt>
      <trkpt lat="44.0818" lon="6.29151">
        <ele>762.8</ele>
        <time>2021-09-11T09:06:33Z</time>
      </trkpt>
      <trkpt lat="44.08179" lon="6.29152">
        <ele>762.9</ele>
        <time>2021-09-11T09:06:34Z</time>
      </trkpt>
      <trkpt lat="44.08176" lon="6.29154">
        <ele>763.1</ele>
        <time>2021-09-11T09:06:35Z</time>
      </trkpt>
      <trkpt lat="44.08176" lon="6.29156">
        <ele>763.2</ele>
        <time>2021-09-11T09:06:36Z</time>
      </trkpt>
      <trkpt lat="44.08176" lon="6.29159">
        <ele>763.4</ele>
        <time>2021-09-11T09:06:38Z</time>
      </trkpt>
      <trkpt lat="44.08176" lon="6.29161">
        <ele>763.5</ele>
        <time>2021-09-11T09:06:39Z</time>
      </trkpt>
      <trkpt lat="44.08176" lon="6.29161">
        <ele>763.5</ele>
        <time>2021-09-11T09:06:41Z</time>
      </trkpt>
      <trkpt lat="44.08174" lon="6.29162">
        <ele>763.7</ele>
        <time>2021-09-11T09:06:42Z</time>
      </trkpt>
      <trkpt lat="44.08173" lon="6.29164">
        <ele>763.8</ele>
        <time>2021-09-11T09:06:44Z</time>
      </trkpt>
      <trkpt lat="44.08172" lon="6.29165">
        <ele>763.9</ele>
        <time>2021-09-11T09:06:45Z</time>
      </trkpt>
      <trkpt lat="44.08171" lon="6.29166">
        <ele>764.1</ele>
        <time>2021-09-11T09:06:46Z</time>
      </trkpt>
      <trkpt lat="44.08171" lon="6.29167">
        <ele>764.2</ele>
        <time>2021-09-11T09:06:47Z</time>
      </trkpt>
      <trkpt lat="44.0817" lon="6.29168">
        <ele>764.2</ele>
        <time>2021-09-11T09:06:49Z</time>
      </trkpt>
      <trkpt lat="44.0817" lon="6.29168">
        <ele>764.3</ele>
        <time>2021-09-11T09:06:50Z</time>
      </trkpt>
      <trkpt lat="44.08169" lon="6.29168">
        <ele>764.3</ele>
        <time>2021-09-11T09:06:51Z</time>
      </trkpt>
      <trkpt lat="44.08168" lon="6.29169">
        <ele>764.4</ele>
        <time>2021-09-11T09:06:52Z</time>
      </trkpt>
      <trkpt lat="44.08168" lon="6.29169">
        <ele>764.4</ele>
        <time>2021-09-11T09:06:54Z</time>
      </trkpt>
      <trkpt lat="44.08166" lon="6.2917">
        <ele>764.6</ele>
        <time>2021-09-11T09:06:55Z</time>
      </trkpt>
      <trkpt lat="44.08165" lon="6.29171">
        <ele>764.7</ele>
        <time>2021-09-11T09:06:57Z</time>
      </trkpt>
      <trkpt lat="44.0815" lon="6.29179">
        <ele>766.1</ele>
        <time>2021-09-11T09:07:08Z</time>
      </trkpt>
      <trkpt lat="44.08147" lon="6.29181">
        <ele>766.4</ele>
        <time>2021-09-11T09:07:09Z</time>
      </trkpt>
      <trkpt lat="44.08145" lon="6.29183">
        <ele>766.6</ele>
        <time>2021-09-11T09:07:10Z</time>
      </trkpt>
      <trkpt lat="44.08142" lon="6.29185">
        <ele>766.9</ele>
        <time>2021-09-11T09:07:12Z</time>
      </trkpt>
      <trkpt lat="44.08138" lon="6.2919">
        <ele>767.3</ele>
        <time>2021-09-11T09:07:14Z</time>
      </trkpt>
      <trkpt lat="44.08135" lon="6.29192">
        <ele>767.6</ele>
        <time>2021-09-11T09:07:15Z</time>
      </trkpt>
      <trkpt lat="44.08133" lon="6.29193">
        <ele>767.8</ele>
        <time>2021-09-11T09:07:16Z</time>
      </trkpt>
      <trkpt lat="44.0813" lon="6.29194">
        <ele>768</ele>
        <time>2021-09-11T09:07:18Z</time>
      </trkpt>
      <trkpt lat="44.08129" lon="6.29194">
        <ele>768.1</ele>
        <time>2021-09-11T09:07:19Z</time>
      </trkpt>
      <trkpt lat="44.08126" lon="6.29196">
        <ele>768.4</ele>
        <time>2021-09-11T09:07:20Z</time>
      </trkpt>
      <trkpt lat="44.08124" lon="6.29198">
        <ele>768.6</ele>
        <time>2021-09-11T09:07:22Z</time>
      </trkpt>
      <trkpt lat="44.08121" lon="6.29202">
        <ele>769</ele>
        <time>2021-09-11T09:07:24Z</time>
      </trkpt>
      <trkpt lat="44.08119" lon="6.29207">
        <ele>769.3</ele>
        <time>2021-09-11T09:07:25Z</time>
      </trkpt>
      <trkpt lat="44.08117" lon="6.29211">
        <ele>769.7</ele>
        <time>2021-09-11T09:07:27Z</time>
      </trkpt>
      <trkpt lat="44.08117" lon="6.29213">
        <ele>769.8</ele>
        <time>2021-09-11T09:07:28Z</time>
      </trkpt>
      <trkpt lat="44.08117" lon="6.29218">
        <ele>770.1</ele>
        <time>2021-09-11T09:07:30Z</time>
      </trkpt>
      <trkpt lat="44.08118" lon="6.29219">
        <ele>770.2</ele>
        <time>2021-09-11T09:07:31Z</time>
      </trkpt>
      <trkpt lat="44.08118" lon="6.2922">
        <ele>770.2</ele>
        <time>2021-09-11T09:07:32Z</time>
      </trkpt>
      <trkpt lat="44.08118" lon="6.29221">
        <ele>770.3</ele>
        <time>2021-09-11T09:07:33Z</time>
      </trkpt>
      <trkpt lat="44.08117" lon="6.29225">
        <ele>770.5</ele>
        <time>2021-09-11T09:07:35Z</time>
      </trkpt>
      <trkpt lat="44.08116" lon="6.29227">
        <ele>770.7</ele>
        <time>2021-09-11T09:07:36Z</time>
      </trkpt>
      <trkpt lat="44.08115" lon="6.29231">
        <ele>770.9</ele>
        <time>2021-09-11T09:07:38Z</time>
      </trkpt>
      <trkpt lat="44.08115" lon="6.29233">
        <ele>771</ele>
        <time>2021-09-11T09:07:39Z</time>
      </trkpt>
      <trkpt lat="44.08115" lon="6.29234">
        <ele>771.1</ele>
        <time>2021-09-11T09:07:41Z</time>
      </trkpt>
      <trkpt lat="44.08114" lon="6.29237">
        <ele>771.3</ele>
        <time>2021-09-11T09:07:43Z</time>
      </trkpt>
      <trkpt lat="44.08114" lon="6.29237">
        <ele>771.3</ele>
        <time>2021-09-11T09:07:44Z</time>
      </trkpt>
      <trkpt lat="44.08112" lon="6.29237">
        <ele>771.4</ele>
        <time>2021-09-11T09:07:46Z</time>
      </trkpt>
      <trkpt lat="44.08111" lon="6.29237">
        <ele>771.5</ele>
        <time>2021-09-11T09:07:48Z</time>
      </trkpt>
      <trkpt lat="44.08111" lon="6.29237">
        <ele>771.5</ele>
        <time>2021-09-11T09:07:49Z</time>
      </trkpt>
      <trkpt lat="44.08111" lon="6.29237">
        <ele>771.6</ele>
        <time>2021-09-11T09:07:51Z</time>
      </trkpt>
      <trkpt lat="44.08092" lon="6.29249">
        <ele>773.2</ele>
        <time>2021-09-11T09:08:04Z</time>
      </trkpt>
      <trkpt lat="44.08089" lon="6.29251">
        <ele>773.5</ele>
        <time>2021-09-11T09:08:06Z</time>
      </trkpt>
      <trkpt lat="44.08086" lon="6.29253">
        <ele>773.8</ele>
        <time>2021-09-11T09:08:07Z</time>
      </trkpt>
      <trkpt lat="44.08083" lon="6.29255">
        <ele>774</ele>
        <time>2021-09-11T09:08:09Z</time>
      </trkpt>
      <trkpt lat="44.08081" lon="6.29256">
        <ele>774.3</ele>
        <time>2021-09-11T09:08:10Z</time>
      </trkpt>
      <trkpt lat="44.0808" lon="6.29258">
        <ele>774.5</ele>
        <time>2021-09-11T09:08:12Z</time>
      </trkpt>
      <trkpt lat="44.08079" lon="6.29259">
        <ele>774.5</ele>
        <time>2021-09-11T09:08:13Z</time>
      </trkpt>
      <trkpt lat="44.08078" lon="6.2926">
        <ele>774.6</ele>
        <time>2021-09-11T09:08:14Z</time>
      </trkpt>
      <trkpt lat="44.08078" lon="6.29261">
        <ele>774.7</ele>
        <time>2021-09-11T09:08:16Z</time>
      </trkpt>
      <trkpt lat="44.08078" lon="6.29262">
        <ele>774.7</ele>
        <time>2021-09-11T09:08:17Z</time>
      </trkpt>
      <trkpt lat="44.08076" lon="6.29264">
        <ele>774.9</ele>
        <time>2021-09-11T09:08:18Z</time>
      </trkpt>
      <trkpt lat="44.08075" lon="6.29266">
        <ele>775.1</ele>
        <time>2021-09-11T09:08:20Z</time>
      </trkpt>
      <trkpt lat="44.08069" lon="6.29273">
        <ele>775.8</ele>
        <time>2021-09-11T09:08:25Z</time>
      </trkpt>
      <trkpt lat="44.08066" lon="6.29277">
        <ele>776.1</ele>
        <time>2021-09-11T09:08:27Z</time>
      </trkpt>
      <trkpt lat="44.08064" lon="6.29279">
        <ele>776.3</ele>
        <time>2021-09-11T09:08:28Z</time>
      </trkpt>
      <trkpt lat="44.08063" lon="6.2928">
        <ele>776.5</ele>
        <time>2021-09-11T09:08:30Z</time>
      </trkpt>
      <trkpt lat="44.08062" lon="6.29281">
        <ele>776.5</ele>
        <time>2021-09-11T09:08:31Z</time>
      </trkpt>
      <trkpt lat="44.08061" lon="6.29282">
        <ele>776.7</ele>
        <time>2021-09-11T09:08:32Z</time>
      </trkpt>
      <trkpt lat="44.08059" lon="6.29283">
        <ele>776.8</ele>
        <time>2021-09-11T09:08:34Z</time>
      </trkpt>
      <trkpt lat="44.08058" lon="6.29285">
        <ele>777</ele>
        <time>2021-09-11T09:08:35Z</time>
      </trkpt>
      <trkpt lat="44.08057" lon="6.29287">
        <ele>777.1</ele>
        <time>2021-09-11T09:08:36Z</time>
      </trkpt>
      <trkpt lat="44.08056" lon="6.29289">
        <ele>777.2</ele>
        <time>2021-09-11T09:08:38Z</time>
      </trkpt>
      <trkpt lat="44.08053" lon="6.29295">
        <ele>777.7</ele>
        <time>2021-09-11T09:08:40Z</time>
      </trkpt>
      <trkpt lat="44.08051" lon="6.29299">
        <ele>777.9</ele>
        <time>2021-09-11T09:08:42Z</time>
      </trkpt>
      <trkpt lat="44.0805" lon="6.29302">
        <ele>778.2</ele>
        <time>2021-09-11T09:08:43Z</time>
      </trkpt>
      <trkpt lat="44.08049" lon="6.29306">
        <ele>778.4</ele>
        <time>2021-09-11T09:08:44Z</time>
      </trkpt>
      <trkpt lat="44.08048" lon="6.29311">
        <ele>778.7</ele>
        <time>2021-09-11T09:08:46Z</time>
      </trkpt>
      <trkpt lat="44.08048" lon="6.29312">
        <ele>778.7</ele>
        <time>2021-09-11T09:08:47Z</time>
      </trkpt>
      <trkpt lat="44.08047" lon="6.29316">
        <ele>779</ele>
        <time>2021-09-11T09:08:48Z</time>
      </trkpt>
      <trkpt lat="44.08046" lon="6.29317">
        <ele>779.1</ele>
        <time>2021-09-11T09:08:49Z</time>
      </trkpt>
      <trkpt lat="44.08045" lon="6.29321">
        <ele>779.4</ele>
        <time>2021-09-11T09:08:50Z</time>
      </trkpt>
      <trkpt lat="44.08044" lon="6.29325">
        <ele>779.6</ele>
        <time>2021-09-11T09:08:52Z</time>
      </trkpt>
      <trkpt lat="44.08043" lon="6.29328">
        <ele>779.8</ele>
        <time>2021-09-11T09:08:54Z</time>
      </trkpt>
      <trkpt lat="44.08043" lon="6.29328">
        <ele>779.8</ele>
        <time>2021-09-11T09:08:55Z</time>
      </trkpt>
      <trkpt lat="44.08042" lon="6.29328">
        <ele>779.9</ele>
        <time>2021-09-11T09:08:56Z</time>
      </trkpt>
      <trkpt lat="44.0804" lon="6.2933">
        <ele>780.1</ele>
        <time>2021-09-11T09:08:58Z</time>
      </trkpt>
      <trkpt lat="44.08039" lon="6.29331">
        <ele>780.3</ele>
        <time>2021-09-11T09:08:59Z</time>
      </trkpt>
      <trkpt lat="44.08037" lon="6.29333">
        <ele>780.4</ele>
        <time>2021-09-11T09:09:01Z</time>
      </trkpt>
      <trkpt lat="44.08036" lon="6.29335">
        <ele>780.6</ele>
        <time>2021-09-11T09:09:02Z</time>
      </trkpt>
      <trkpt lat="44.08035" lon="6.29336">
        <ele>780.7</ele>
        <time>2021-09-11T09:09:04Z</time>
      </trkpt>
      <trkpt lat="44.08033" lon="6.29338">
        <ele>780.9</ele>
        <time>2021-09-11T09:09:58Z</time>
      </trkpt>
      <trkpt lat="44.08032" lon="6.29339">
        <ele>781</ele>
        <time>2021-09-11T09:09:59Z</time>
      </trkpt>
      <trkpt lat="44.08031" lon="6.29341">
        <ele>781.1</ele>
        <time>2021-09-11T09:10:00Z</time>
      </trkpt>
      <trkpt lat="44.08027" lon="6.29342">
        <ele>781.4</ele>
        <time>2021-09-11T09:10:02Z</time>
      </trkpt>
      <trkpt lat="44.08026" lon="6.29343">
        <ele>781.5</ele>
        <time>2021-09-11T09:10:03Z</time>
      </trkpt>
      <trkpt lat="44.08024" lon="6.29344">
        <ele>781.7</ele>
        <time>2021-09-11T09:10:04Z</time>
      </trkpt>
      <trkpt lat="44.08023" lon="6.29346">
        <ele>781.9</ele>
        <time>2021-09-11T09:10:06Z</time>
      </trkpt>
      <trkpt lat="44.08021" lon="6.29347">
        <ele>782</ele>
        <time>2021-09-11T09:10:07Z</time>
      </trkpt>
      <trkpt lat="44.0802" lon="6.29349">
        <ele>782.1</ele>
        <time>2021-09-11T09:10:08Z</time>
      </trkpt>
      <trkpt lat="44.08017" lon="6.29351">
        <ele>782.4</ele>
        <time>2021-09-11T09:10:09Z</time>
      </trkpt>
      <trkpt lat="44.08015" lon="6.29353">
        <ele>782.6</ele>
        <time>2021-09-11T09:10:10Z</time>
      </trkpt>
      <trkpt lat="44.08012" lon="6.29354">
        <ele>782.8</ele>
        <time>2021-09-11T09:10:12Z</time>
      </trkpt>
      <trkpt lat="44.0801" lon="6.29356">
        <ele>783.1</ele>
        <time>2021-09-11T09:10:13Z</time>
      </trkpt>
      <trkpt lat="44.08007" lon="6.29358">
        <ele>783.3</ele>
        <time>2021-09-11T09:10:14Z</time>
      </trkpt>
      <trkpt lat="44.08004" lon="6.29359">
        <ele>783.5</ele>
        <time>2021-09-11T09:10:16Z</time>
      </trkpt>
      <trkpt lat="44.08002" lon="6.29361">
        <ele>783.7</ele>
        <time>2021-09-11T09:10:17Z</time>
      </trkpt>
      <trkpt lat="44.07999" lon="6.29362">
        <ele>783.9</ele>
        <time>2021-09-11T09:10:35Z</time>
      </trkpt>
      <trkpt lat="44.07997" lon="6.29364">
        <ele>784.1</ele>
        <time>2021-09-11T09:10:37Z</time>
      </trkpt>
      <trkpt lat="44.07994" lon="6.29366">
        <ele>783.3</ele>
        <time>2021-09-11T09:10:38Z</time>
      </trkpt>
      <trkpt lat="44.07993" lon="6.29365">
        <ele>783.2</ele>
        <time>2021-09-11T09:10:40Z</time>
      </trkpt>
      <trkpt lat="44.07992" lon="6.29365">
        <ele>782.3</ele>
        <time>2021-09-11T09:10:41Z</time>
      </trkpt>
      <trkpt lat="44.07992" lon="6.29366">
        <ele>781.4</ele>
        <time>2021-09-11T09:10:42Z</time>
      </trkpt>
      <trkpt lat="44.07992" lon="6.29366">
        <ele>780.5</ele>
        <time>2021-09-11T09:10:44Z</time>
      </trkpt>
      <trkpt lat="44.07992" lon="6.29366">
        <ele>779.6</ele>
        <time>2021-09-11T09:10:45Z</time>
      </trkpt>
      <trkpt lat="44.07992" lon="6.29366">
        <ele>778.7</ele>
        <time>2021-09-11T09:10:47Z</time>
      </trkpt>
      <trkpt lat="44.07992" lon="6.29366">
        <ele>777.8</ele>
        <time>2021-09-11T09:10:48Z</time>
      </trkpt>
      <trkpt lat="44.07991" lon="6.29366">
        <ele>776.9</ele>
        <time>2021-09-11T09:10:50Z</time>
      </trkpt>
      <trkpt lat="44.07991" lon="6.29366">
        <ele>776</ele>
        <time>2021-09-11T09:10:51Z</time>
      </trkpt>
      <trkpt lat="44.07872" lon="6.29302">
        <ele>810.3</ele>
        <time>2021-09-11T09:15:16Z</time>
      </trkpt>
      <trkpt lat="44.07869" lon="6.29303">
        <ele>809.8</ele>
        <time>2021-09-11T09:15:17Z</time>
      </trkpt>
      <trkpt lat="44.07866" lon="6.29303">
        <ele>809.4</ele>
        <time>2021-09-11T09:15:18Z</time>
      </trkpt>
      <trkpt lat="44.07863" lon="6.29303">
        <ele>809</ele>
        <time>2021-09-11T09:15:19Z</time>
      </trkpt>
      <trkpt lat="44.07859" lon="6.29303">
        <ele>809.3</ele>
        <time>2021-09-11T09:15:21Z</time>
      </trkpt>
      <trkpt lat="44.07855" lon="6.29303">
        <ele>809.5</ele>
        <time>2021-09-11T09:15:23Z</time>
      </trkpt>
      <trkpt lat="44.07853" lon="6.29303">
        <ele>809.6</ele>
        <time>2021-09-11T09:15:25Z</time>
      </trkpt>
      <trkpt lat="44.07852" lon="6.29304">
        <ele>809.7</ele>
        <time>2021-09-11T09:15:26Z</time>
      </trkpt>
      <trkpt lat="44.07852" lon="6.29304">
        <ele>809.7</ele>
        <time>2021-09-11T09:15:28Z</time>
      </trkpt>
      <trkpt lat="44.07851" lon="6.29305">
        <ele>809.8</ele>
        <time>2021-09-11T09:15:30Z</time>
      </trkpt>
      <trkpt lat="44.0785" lon="6.29305">
        <ele>809.8</ele>
        <time>2021-09-11T09:15:31Z</time>
      </trkpt>
      <trkpt lat="44.07849" lon="6.29306">
        <ele>809.9</ele>
        <time>2021-09-11T09:15:33Z</time>
      </trkpt>
      <trkpt lat="44.07842" lon="6.29307">
        <ele>810.3</ele>
        <time>2021-09-11T09:15:37Z</time>
      </trkpt>
      <trkpt lat="44.0784" lon="6.29308">
        <ele>810.5</ele>
        <time>2021-09-11T09:15:38Z</time>
      </trkpt>
      <trkpt lat="44.07836" lon="6.29308">
        <ele>810.7</ele>
        <time>2021-09-11T09:15:40Z</time>
      </trkpt>
      <trkpt lat="44.07833" lon="6.29308">
        <ele>810.9</ele>
        <time>2021-09-11T09:15:41Z</time>
      </trkpt>
      <trkpt lat="44.07831" lon="6.29307">
        <ele>811</ele>
        <time>2021-09-11T09:15:42Z</time>
      </trkpt>
      <trkpt lat="44.07828" lon="6.29307">
        <ele>811.3</ele>
        <time>2021-09-11T09:15:43Z</time>
      </trkpt>
      <trkpt lat="44.07822" lon="6.29306">
        <ele>811.7</ele>
        <time>2021-09-11T09:15:45Z</time>
      </trkpt>
      <trkpt lat="44.07819" lon="6.29306">
        <ele>811.9</ele>
        <time>2021-09-11T09:15:46Z</time>
      </trkpt>
      <trkpt lat="44.07814" lon="6.29307">
        <ele>812.2</ele>
        <time>2021-09-11T09:15:48Z</time>
      </trkpt>
      <trkpt lat="44.0781" lon="6.29308">
        <ele>812.5</ele>
        <time>2021-09-11T09:15:50Z</time>
      </trkpt>
      <trkpt lat="44.07807" lon="6.29308">
        <ele>812.7</ele>
        <time>2021-09-11T09:15:51Z</time>
      </trkpt>
      <trkpt lat="44.07806" lon="6.29308">
        <ele>812.7</ele>
        <time>2021-09-11T09:15:52Z</time>
      </trkpt>
      <trkpt lat="44.07805" lon="6.2931">
        <ele>812.8</ele>
        <time>2021-09-11T09:15:53Z</time>
      </trkpt>
      <trkpt lat="44.07803" lon="6.29316">
        <ele>813.2</ele>
        <time>2021-09-11T09:15:55Z</time>
      </trkpt>
      <trkpt lat="44.07801" lon="6.29319">
        <ele>813.4</ele>
        <time>2021-09-11T09:15:56Z</time>
      </trkpt>
      <trkpt lat="44.078" lon="6.2932">
        <ele>813.5</ele>
        <time>2021-09-11T09:15:57Z</time>
      </trkpt>
      <trkpt lat="44.078" lon="6.2932">
        <ele>813.5</ele>
        <time>2021-09-11T09:15:58Z</time>
      </trkpt>
      <trkpt lat="44.07796" lon="6.29318">
        <ele>813.8</ele>
        <time>2021-09-11T09:16:00Z</time>
      </trkpt>
      <trkpt lat="44.07794" lon="6.29317">
        <ele>814</ele>
        <time>2021-09-11T09:16:01Z</time>
      </trkpt>
      <trkpt lat="44.07791" lon="6.29317">
        <ele>814.2</ele>
        <time>2021-09-11T09:16:03Z</time>
      </trkpt>
      <trkpt lat="44.07789" lon="6.29317">
        <ele>814.4</ele>
        <time>2021-09-11T09:16:04Z</time>
      </trkpt>
      <trkpt lat="44.07788" lon="6.29318">
        <ele>814.5</ele>
        <time>2021-09-11T09:16:05Z</time>
      </trkpt>
      <trkpt lat="44.07786" lon="6.29318">
        <ele>814.6</ele>
        <time>2021-09-11T09:16:06Z</time>
      </trkpt>
      <trkpt lat="44.07785" lon="6.29318">
        <ele>814.7</ele>
        <time>2021-09-11T09:16:07Z</time>
      </trkpt>
      <trkpt lat="44.07783" lon="6.29319">
        <ele>814.8</ele>
        <time>2021-09-11T09:16:09Z</time>
      </trkpt>
      <trkpt lat="44.07783" lon="6.29319">
        <ele>814.8</ele>
        <time>2021-09-11T09:16:10Z</time>
      </trkpt>
      <trkpt lat="44.07781" lon="6.29318">
        <ele>814.9</ele>
        <time>2021-09-11T09:16:11Z</time>
      </trkpt>
      <trkpt lat="44.07779" lon="6.29318">
        <ele>815.1</ele>
        <time>2021-09-11T09:16:13Z</time>
      </trkpt>
      <trkpt lat="44.07773" lon="6.29316">
        <ele>815.4</ele>
        <time>2021-09-11T09:16:15Z</time>
      </trkpt>
      <trkpt lat="44.07771" lon="6.29317">
        <ele>815.6</ele>
        <time>2021-09-11T09:16:16Z</time>
      </trkpt>
      <trkpt lat="44.07767" lon="6.29317">
        <ele>815.8</ele>
        <time>2021-09-11T09:16:18Z</time>
      </trkpt>
      <trkpt lat="44.07763" lon="6.29318">
        <ele>816</ele>
        <time>2021-09-11T09:16:19Z</time>
      </trkpt>
      <trkpt lat="44.07759" lon="6.29319">
        <ele>816.2</ele>
        <time>2021-09-11T09:16:21Z</time>
      </trkpt>
      <trkpt lat="44.07755" lon="6.29322">
        <ele>816.4</ele>
        <time>2021-09-11T09:16:23Z</time>
      </trkpt>
      <trkpt lat="44.07751" lon="6.29324">
        <ele>816.6</ele>
        <time>2021-09-11T09:16:25Z</time>
      </trkpt>
      <trkpt lat="44.0775" lon="6.29324">
        <ele>816.6</ele>
        <time>2021-09-11T09:16:26Z</time>
      </trkpt>
      <trkpt lat="44.07749" lon="6.29326">
        <ele>816.7</ele>
        <time>2021-09-11T09:16:28Z</time>
      </trkpt>
      <trkpt lat="44.07747" lon="6.29327">
        <ele>816.8</ele>
        <time>2021-09-11T09:16:29Z</time>
      </trkpt>
      <trkpt lat="44.07745" lon="6.29331">
        <ele>817</ele>
        <time>2021-09-11T09:16:30Z</time>
      </trkpt>
      <trkpt lat="44.07742" lon="6.29337">
        <ele>817.2</ele>
        <time>2021-09-11T09:16:32Z</time>
      </trkpt>
      <trkpt lat="44.0774" lon="6.2934">
        <ele>817.3</ele>
        <time>2021-09-11T09:16:33Z</time>
      </trkpt>
      <trkpt lat="44.07739" lon="6.29341">
        <ele>817.4</ele>
        <time>2021-09-11T09:16:34Z</time>
      </trkpt>
      <trkpt lat="44.07737" lon="6.29346">
        <ele>817.6</ele>
        <time>2021-09-11T09:16:36Z</time>
      </trkpt>
      <trkpt lat="44.07736" lon="6.2935">
        <ele>817.8</ele>
        <time>2021-09-11T09:16:37Z</time>
      </trkpt>
      <trkpt lat="44.07735" lon="6.29352">
        <ele>817.8</ele>
        <time>2021-09-11T09:16:38Z</time>
      </trkpt>
      <trkpt lat="44.07733" lon="6.29353">
        <ele>817.9</ele>
        <time>2021-09-11T09:16:39Z</time>
      </trkpt>
      <trkpt lat="44.07732" lon="6.29355">
        <ele>818</ele>
        <time>2021-09-11T09:16:40Z</time>
      </trkpt>
      <trkpt lat="44.07731" lon="6.29359">
        <ele>818.2</ele>
        <time>2021-09-11T09:16:42Z</time>
      </trkpt>
      <trkpt lat="44.07731" lon="6.29362">
        <ele>818.3</ele>
        <time>2021-09-11T09:16:43Z</time>
      </trkpt>
      <trkpt lat="44.07731" lon="6.29366">
        <ele>818.5</ele>
        <time>2021-09-11T09:16:45Z</time>
      </trkpt>
      <trkpt lat="44.07729" lon="6.29372">
        <ele>818.8</ele>
        <time>2021-09-11T09:16:46Z</time>
      </trkpt>
      <trkpt lat="44.07729" lon="6.29374">
        <ele>818.9</ele>
        <time>2021-09-11T09:16:48Z</time>
      </trkpt>
      <trkpt lat="44.07728" lon="6.29376">
        <ele>819.1</ele>
        <time>2021-09-11T09:16:49Z</time>
      </trkpt>
      <trkpt lat="44.07728" lon="6.29378">
        <ele>819.2</ele>
        <time>2021-09-11T09:16:50Z</time>
      </trkpt>
      <trkpt lat="44.07725" lon="6.29382">
        <ele>819.6</ele>
        <time>2021-09-11T09:16:52Z</time>
      </trkpt>
      <trkpt lat="44.07723" lon="6.29383">
        <ele>819.7</ele>
        <time>2021-09-11T09:16:54Z</time>
      </trkpt>
      <trkpt lat="44.07722" lon="6.29383">
        <ele>819.8</ele>
        <time>2021-09-11T09:16:55Z</time>
      </trkpt>
      <trkpt lat="44.07721" lon="6.29385">
        <ele>820</ele>
        <time>2021-09-11T09:16:56Z</time>
      </trkpt>
      <trkpt lat="44.07717" lon="6.29388">
        <ele>820.3</ele>
        <time>2021-09-11T09:16:58Z</time>
      </trkpt>
      <trkpt lat="44.07716" lon="6.29388">
        <ele>820.4</ele>
        <time>2021-09-11T09:16:59Z</time>
      </trkpt>
      <trkpt lat="44.07715" lon="6.29388">
        <ele>820.5</ele>
        <time>2021-09-11T09:17:00Z</time>
      </trkpt>
      <trkpt lat="44.07712" lon="6.29386">
        <ele>820.8</ele>
        <time>2021-09-11T09:17:01Z</time>
      </trkpt>
      <trkpt lat="44.07711" lon="6.29386">
        <ele>820.9</ele>
        <time>2021-09-11T09:17:02Z</time>
      </trkpt>
      <trkpt lat="44.07709" lon="6.29385">
        <ele>821</ele>
        <time>2021-09-11T09:17:04Z</time>
      </trkpt>
      <trkpt lat="44.07707" lon="6.29386">
        <ele>821.2</ele>
        <time>2021-09-11T09:17:05Z</time>
      </trkpt>
      <trkpt lat="44.07705" lon="6.29386">
        <ele>821.4</ele>
        <time>2021-09-11T09:17:07Z</time>
      </trkpt>
      <trkpt lat="44.07705" lon="6.29389">
        <ele>821.5</ele>
        <time>2021-09-11T09:17:08Z</time>
      </trkpt>
      <trkpt lat="44.07704" lon="6.29393">
        <ele>821.8</ele>
        <time>2021-09-11T09:17:09Z</time>
      </trkpt>
      <trkpt lat="44.07703" lon="6.29395">
        <ele>821.9</ele>
        <time>2021-09-11T09:17:11Z</time>
      </trkpt>
      <trkpt lat="44.07701" lon="6.29395">
        <ele>822</ele>
        <time>2021-09-11T09:17:13Z</time>
      </trkpt>
      <trkpt lat="44.07699" lon="6.29397">
        <ele>822.2</ele>
        <time>2021-09-11T09:17:15Z</time>
      </trkpt>
      <trkpt lat="44.07697" lon="6.29396">
        <ele>822.3</ele>
        <time>2021-09-11T09:17:16Z</time>
      </trkpt>
      <trkpt lat="44.07696" lon="6.29395">
        <ele>822.4</ele>
        <time>2021-09-11T09:17:17Z</time>
      </trkpt>
      <trkpt lat="44.07696" lon="6.29394">
        <ele>822.5</ele>
        <time>2021-09-11T09:17:18Z</time>
      </trkpt>
      <trkpt lat="44.07694" lon="6.29393">
        <ele>822.6</ele>
        <time>2021-09-11T09:17:20Z</time>
      </trkpt>
      <trkpt lat="44.07694" lon="6.29391">
        <ele>822.6</ele>
        <time>2021-09-11T09:17:21Z</time>
      </trkpt>
      <trkpt lat="44.07692" lon="6.29389">
        <ele>822.8</ele>
        <time>2021-09-11T09:17:23Z</time>
      </trkpt>
      <trkpt lat="44.0769" lon="6.29387">
        <ele>823</ele>
        <time>2021-09-11T09:17:25Z</time>
      </trkpt>
      <trkpt lat="44.07689" lon="6.29386">
        <ele>823.1</ele>
        <time>2021-09-11T09:17:26Z</time>
      </trkpt>
      <trkpt lat="44.07685" lon="6.29379">
        <ele>823.4</ele>
        <time>2021-09-11T09:17:28Z</time>
      </trkpt>
      <trkpt lat="44.07684" lon="6.29377">
        <ele>823.5</ele>
        <time>2021-09-11T09:17:29Z</time>
      </trkpt>
      <trkpt lat="44.07681" lon="6.29374">
        <ele>823.7</ele>
        <time>2021-09-11T09:17:31Z</time>
      </trkpt>
      <trkpt lat="44.07679" lon="6.29372">
        <ele>823.8</ele>
        <time>2021-09-11T09:17:33Z</time>
      </trkpt>
      <trkpt lat="44.07678" lon="6.2937">
        <ele>823.9</ele>
        <time>2021-09-11T09:17:35Z</time>
      </trkpt>
      <trkpt lat="44.07676" lon="6.29369">
        <ele>824</ele>
        <time>2021-09-11T09:17:36Z</time>
      </trkpt>
      <trkpt lat="44.07675" lon="6.29368">
        <ele>824</ele>
        <time>2021-09-11T09:17:38Z</time>
      </trkpt>
      <trkpt lat="44.07674" lon="6.29367">
        <ele>824</ele>
        <time>2021-09-11T09:17:39Z</time>
      </trkpt>
      <trkpt lat="44.07674" lon="6.29366">
        <ele>824</ele>
        <time>2021-09-11T09:17:40Z</time>
      </trkpt>
      <trkpt lat="44.07672" lon="6.29363">
        <ele>824.1</ele>
        <time>2021-09-11T09:17:42Z</time>
      </trkpt>
      <trkpt lat="44.07671" lon="6.29362">
        <ele>824.1</ele>
        <time>2021-09-11T09:17:43Z</time>
      </trkpt>
      <trkpt lat="44.07669" lon="6.2936">
        <ele>824.2</ele>
        <time>2021-09-11T09:17:44Z</time>
      </trkpt>
      <trkpt lat="44.07668" lon="6.29359">
        <ele>824.2</ele>
        <time>2021-09-11T09:17:45Z</time>
      </trkpt>
      <trkpt lat="44.07665" lon="6.29357">
        <ele>824.2</ele>
        <time>2021-09-11T09:17:47Z</time>
      </trkpt>
      <trkpt lat="44.07661" lon="6.29357">
        <ele>824.3</ele>
        <time>2021-09-11T09:17:48Z</time>
      </trkpt>
      <trkpt lat="44.07656" lon="6.29359">
        <ele>824.3</ele>
        <time>2021-09-11T09:17:50Z</time>
      </trkpt>
      <trkpt lat="44.07652" lon="6.29362">
        <ele>824.3</ele>
        <time>2021-09-11T09:17:51Z</time>
      </trkpt>
      <trkpt lat="44.07649" lon="6.29366">
        <ele>824.4</ele>
        <time>2021-09-11T09:17:52Z</time>
      </trkpt>
      <trkpt lat="44.07644" lon="6.29373">
        <ele>824.5</ele>
        <time>2021-09-11T09:17:53Z</time>
      </trkpt>
      <trkpt lat="44.07641" lon="6.29377">
        <ele>824.7</ele>
        <time>2021-09-11T09:17:55Z</time>
      </trkpt>
      <trkpt lat="44.07639" lon="6.29379">
        <ele>824.8</ele>
        <time>2021-09-11T09:17:56Z</time>
      </trkpt>
      <trkpt lat="44.07636" lon="6.29382">
        <ele>824.9</ele>
        <time>2021-09-11T09:17:57Z</time>
      </trkpt>
      <trkpt lat="44.07635" lon="6.29384">
        <ele>825</ele>
        <time>2021-09-11T09:17:59Z</time>
      </trkpt>
      <trkpt lat="44.07634" lon="6.29384">
        <ele>825.1</ele>
        <time>2021-09-11T09:18:00Z</time>
      </trkpt>
      <trkpt lat="44.07631" lon="6.29386">
        <ele>825.2</ele>
        <time>2021-09-11T09:18:01Z</time>
      </trkpt>
      <trkpt lat="44.0763" lon="6.29387">
        <ele>825.3</ele>
        <time>2021-09-11T09:18:02Z</time>
      </trkpt>
      <trkpt lat="44.07627" lon="6.29388">
        <ele>825.4</ele>
        <time>2021-09-11T09:18:04Z</time>
      </trkpt>
      <trkpt lat="44.07625" lon="6.2939">
        <ele>825.6</ele>
        <time>2021-09-11T09:18:06Z</time>
      </trkpt>
      <trkpt lat="44.07621" lon="6.29392">
        <ele>825.8</ele>
        <time>2021-09-11T09:18:07Z</time>
      </trkpt>
      <trkpt lat="44.07618" lon="6.29393">
        <ele>826</ele>
        <time>2021-09-11T09:18:09Z</time>
      </trkpt>
      <trkpt lat="44.07615" lon="6.29396">
        <ele>826.2</ele>
        <time>2021-09-11T09:18:10Z</time>
      </trkpt>
      <trkpt lat="44.07613" lon="6.29399">
        <ele>826.4</ele>
        <time>2021-09-11T09:18:11Z</time>
      </trkpt>
      <trkpt lat="44.0761" lon="6.29402">
        <ele>826.6</ele>
        <time>2021-09-11T09:18:13Z</time>
      </trkpt>
      <trkpt lat="44.07609" lon="6.29403">
        <ele>826.7</ele>
        <time>2021-09-11T09:18:14Z</time>
      </trkpt>
      <trkpt lat="44.07607" lon="6.29404">
        <ele>826.8</ele>
        <time>2021-09-11T09:18:15Z</time>
      </trkpt>
      <trkpt lat="44.07606" lon="6.29405">
        <ele>826.9</ele>
        <time>2021-09-11T09:18:16Z</time>
      </trkpt>
      <trkpt lat="44.07603" lon="6.29405">
        <ele>827</ele>
        <time>2021-09-11T09:18:17Z</time>
      </trkpt>
      <trkpt lat="44.07602" lon="6.29406">
        <ele>827.1</ele>
        <time>2021-09-11T09:18:18Z</time>
      </trkpt>
      <trkpt lat="44.076" lon="6.29407">
        <ele>827.2</ele>
        <time>2021-09-11T09:18:19Z</time>
      </trkpt>
      <trkpt lat="44.07598" lon="6.29409">
        <ele>827.4</ele>
        <time>2021-09-11T09:18:21Z</time>
      </trkpt>
      <trkpt lat="44.07594" lon="6.29411">
        <ele>827.6</ele>
        <time>2021-09-11T09:18:22Z</time>
      </trkpt>
      <trkpt lat="44.07592" lon="6.29412">
        <ele>827.7</ele>
        <time>2021-09-11T09:18:23Z</time>
      </trkpt>
      <trkpt lat="44.07588" lon="6.29414">
        <ele>828</ele>
        <time>2021-09-11T09:18:25Z</time>
      </trkpt>
      <trkpt lat="44.07584" lon="6.29415">
        <ele>828.2</ele>
        <time>2021-09-11T09:18:27Z</time>
      </trkpt>
      <trkpt lat="44.07581" lon="6.29417">
        <ele>828.4</ele>
        <time>2021-09-11T09:18:29Z</time>
      </trkpt>
      <trkpt lat="44.07578" lon="6.2942">
        <ele>828.6</ele>
        <time>2021-09-11T09:18:31Z</time>
      </trkpt>
      <trkpt lat="44.07576" lon="6.29421">
        <ele>828.8</ele>
        <time>2021-09-11T09:18:33Z</time>
      </trkpt>
      <trkpt lat="44.07573" lon="6.29422">
        <ele>829</ele>
        <time>2021-09-11T09:18:34Z</time>
      </trkpt>
      <trkpt lat="44.07569" lon="6.29423">
        <ele>829.2</ele>
        <time>2021-09-11T09:18:36Z</time>
      </trkpt>
      <trkpt lat="44.07567" lon="6.29424">
        <ele>829.4</ele>
        <time>2021-09-11T09:18:37Z</time>
      </trkpt>
      <trkpt lat="44.07562" lon="6.29426">
        <ele>829.7</ele>
        <time>2021-09-11T09:18:39Z</time>
      </trkpt>
      <trkpt lat="44.07561" lon="6.29427">
        <ele>829.7</ele>
        <time>2021-09-11T09:18:40Z</time>
      </trkpt>
      <trkpt lat="44.0756" lon="6.29428">
        <ele>829.8</ele>
        <time>2021-09-11T09:18:41Z</time>
      </trkpt>
      <trkpt lat="44.07558" lon="6.2943">
        <ele>830</ele>
        <time>2021-09-11T09:18:42Z</time>
      </trkpt>
      <trkpt lat="44.07556" lon="6.29433">
        <ele>830.1</ele>
        <time>2021-09-11T09:18:44Z</time>
      </trkpt>
      <trkpt lat="44.07553" lon="6.29435">
        <ele>830.3</ele>
        <time>2021-09-11T09:18:45Z</time>
      </trkpt>
      <trkpt lat="44.07552" lon="6.29436">
        <ele>830.4</ele>
        <time>2021-09-11T09:18:46Z</time>
      </trkpt>
      <trkpt lat="44.07549" lon="6.29437">
        <ele>830.5</ele>
        <time>2021-09-11T09:18:48Z</time>
      </trkpt>
      <trkpt lat="44.07547" lon="6.29438">
        <ele>830.6</ele>
        <time>2021-09-11T09:18:49Z</time>
      </trkpt>
      <trkpt lat="44.07541" lon="6.29437">
        <ele>830.8</ele>
        <time>2021-09-11T09:18:51Z</time>
      </trkpt>
      <trkpt lat="44.07536" lon="6.29436">
        <ele>831.1</ele>
        <time>2021-09-11T09:18:52Z</time>
      </trkpt>
      <trkpt lat="44.0753" lon="6.29433">
        <ele>831.3</ele>
        <time>2021-09-11T09:18:54Z</time>
      </trkpt>
      <trkpt lat="44.07525" lon="6.29433">
        <ele>831.4</ele>
        <time>2021-09-11T09:18:56Z</time>
      </trkpt>
      <trkpt lat="44.07521" lon="6.29433">
        <ele>831.5</ele>
        <time>2021-09-11T09:18:58Z</time>
      </trkpt>
      <trkpt lat="44.07518" lon="6.29434">
        <ele>831.6</ele>
        <time>2021-09-11T09:18:59Z</time>
      </trkpt>
      <trkpt lat="44.07516" lon="6.29434">
        <ele>831.7</ele>
        <time>2021-09-11T09:19:00Z</time>
      </trkpt>
      <trkpt lat="44.07511" lon="6.29435">
        <ele>831.8</ele>
        <time>2021-09-11T09:19:01Z</time>
      </trkpt>
      <trkpt lat="44.07508" lon="6.29437">
        <ele>831.9</ele>
        <time>2021-09-11T09:19:03Z</time>
      </trkpt>
      <trkpt lat="44.07504" lon="6.29436">
        <ele>832</ele>
        <time>2021-09-11T09:19:05Z</time>
      </trkpt>
      <trkpt lat="44.07501" lon="6.29436">
        <ele>832.1</ele>
        <time>2021-09-11T09:19:06Z</time>
      </trkpt>
      <trkpt lat="44.07497" lon="6.29435">
        <ele>832.2</ele>
        <time>2021-09-11T09:19:08Z</time>
      </trkpt>
      <trkpt lat="44.07494" lon="6.29436">
        <ele>832.3</ele>
        <time>2021-09-11T09:19:09Z</time>
      </trkpt>
      <trkpt lat="44.07492" lon="6.29436">
        <ele>832.3</ele>
        <time>2021-09-11T09:19:11Z</time>
      </trkpt>
      <trkpt lat="44.0749" lon="6.29436">
        <ele>832.3</ele>
        <time>2021-09-11T09:19:12Z</time>
      </trkpt>
      <trkpt lat="44.07489" lon="6.29436">
        <ele>832.4</ele>
        <time>2021-09-11T09:19:13Z</time>
      </trkpt>
      <trkpt lat="44.07484" lon="6.29436">
        <ele>832.4</ele>
        <time>2021-09-11T09:19:15Z</time>
      </trkpt>
      <trkpt lat="44.07482" lon="6.29436">
        <ele>832.4</ele>
        <time>2021-09-11T09:19:16Z</time>
      </trkpt>
      <trkpt lat="44.07477" lon="6.29441">
        <ele>832.5</ele>
        <time>2021-09-11T09:19:18Z</time>
      </trkpt>
      <trkpt lat="44.07474" lon="6.29445">
        <ele>832.5</ele>
        <time>2021-09-11T09:19:19Z</time>
      </trkpt>
      <trkpt lat="44.07472" lon="6.29449">
        <ele>832.6</ele>
        <time>2021-09-11T09:19:20Z</time>
      </trkpt>
      <trkpt lat="44.0747" lon="6.29457">
        <ele>832.7</ele>
        <time>2021-09-11T09:19:22Z</time>
      </trkpt>
      <trkpt lat="44.0747" lon="6.29461">
        <ele>832.8</ele>
        <time>2021-09-11T09:19:23Z</time>
      </trkpt>
      <trkpt lat="44.07469" lon="6.29468">
        <ele>832.9</ele>
        <time>2021-09-11T09:19:24Z</time>
      </trkpt>
      <trkpt lat="44.07468" lon="6.29473">
        <ele>833</ele>
        <time>2021-09-11T09:19:26Z</time>
      </trkpt>
      <trkpt lat="44.07463" lon="6.2948">
        <ele>833.2</ele>
        <time>2021-09-11T09:19:28Z</time>
      </trkpt>
      <trkpt lat="44.0746" lon="6.29483">
        <ele>833.3</ele>
        <time>2021-09-11T09:19:29Z</time>
      </trkpt>
      <trkpt lat="44.07455" lon="6.29486">
        <ele>833.6</ele>
        <time>2021-09-11T09:19:30Z</time>
      </trkpt>
      <trkpt lat="44.07452" lon="6.29487">
        <ele>833.7</ele>
        <time>2021-09-11T09:19:31Z</time>
      </trkpt>
      <trkpt lat="44.07448" lon="6.29489">
        <ele>833.8</ele>
        <time>2021-09-11T09:19:33Z</time>
      </trkpt>
      <trkpt lat="44.07446" lon="6.29489">
        <ele>833.9</ele>
        <time>2021-09-11T09:19:34Z</time>
      </trkpt>
      <trkpt lat="44.07444" lon="6.29489">
        <ele>834</ele>
        <time>2021-09-11T09:19:36Z</time>
      </trkpt>
      <trkpt lat="44.07442" lon="6.29488">
        <ele>834.1</ele>
        <time>2021-09-11T09:19:37Z</time>
      </trkpt>
      <trkpt lat="44.07439" lon="6.29489">
        <ele>834.3</ele>
        <time>2021-09-11T09:19:38Z</time>
      </trkpt>
      <trkpt lat="44.07435" lon="6.29491">
        <ele>834.5</ele>
        <time>2021-09-11T09:19:40Z</time>
      </trkpt>
      <trkpt lat="44.07434" lon="6.29491">
        <ele>834.6</ele>
        <time>2021-09-11T09:19:41Z</time>
      </trkpt>
      <trkpt lat="44.07431" lon="6.29492">
        <ele>834.8</ele>
        <time>2021-09-11T09:19:42Z</time>
      </trkpt>
      <trkpt lat="44.07428" lon="6.29492">
        <ele>834.9</ele>
        <time>2021-09-11T09:19:43Z</time>
      </trkpt>
      <trkpt lat="44.07425" lon="6.29493">
        <ele>835.1</ele>
        <time>2021-09-11T09:19:45Z</time>
      </trkpt>
      <trkpt lat="44.07424" lon="6.29494">
        <ele>835.2</ele>
        <time>2021-09-11T09:19:46Z</time>
      </trkpt>
      <trkpt lat="44.07423" lon="6.29495">
        <ele>835.3</ele>
        <time>2021-09-11T09:19:47Z</time>
      </trkpt>
      <trkpt lat="44.0742" lon="6.29497">
        <ele>835.4</ele>
        <time>2021-09-11T09:19:49Z</time>
      </trkpt>
      <trkpt lat="44.07419" lon="6.29497">
        <ele>835.5</ele>
        <time>2021-09-11T09:19:50Z</time>
      </trkpt>
      <trkpt lat="44.07418" lon="6.29498">
        <ele>835.6</ele>
        <time>2021-09-11T09:19:51Z</time>
      </trkpt>
      <trkpt lat="44.07417" lon="6.29499">
        <ele>835.7</ele>
        <time>2021-09-11T09:19:52Z</time>
      </trkpt>
      <trkpt lat="44.07415" lon="6.295">
        <ele>835.8</ele>
        <time>2021-09-11T09:19:53Z</time>
      </trkpt>
      <trkpt lat="44.07411" lon="6.29502">
        <ele>836.1</ele>
        <time>2021-09-11T09:19:55Z</time>
      </trkpt>
      <trkpt lat="44.07409" lon="6.29503">
        <ele>836.3</ele>
        <time>2021-09-11T09:19:56Z</time>
      </trkpt>
      <trkpt lat="44.07407" lon="6.29504">
        <ele>836.4</ele>
        <time>2021-09-11T09:19:57Z</time>
      </trkpt>
      <trkpt lat="44.07404" lon="6.29504">
        <ele>836.6</ele>
        <time>2021-09-11T09:19:59Z</time>
      </trkpt>
      <trkpt lat="44.07403" lon="6.29504">
        <ele>836.7</ele>
        <time>2021-09-11T09:20:00Z</time>
      </trkpt>
      <trkpt lat="44.074" lon="6.29504">
        <ele>836.9</ele>
        <time>2021-09-11T09:20:02Z</time>
      </trkpt>
      <trkpt lat="44.07398" lon="6.29504">
        <ele>837</ele>
        <time>2021-09-11T09:20:03Z</time>
      </trkpt>
      <trkpt lat="44.07397" lon="6.29504">
        <ele>837.1</ele>
        <time>2021-09-11T09:20:04Z</time>
      </trkpt>
      <trkpt lat="44.07395" lon="6.29503">
        <ele>837.2</ele>
        <time>2021-09-11T09:20:06Z</time>
      </trkpt>
      <trkpt lat="44.07393" lon="6.29501">
        <ele>837.5</ele>
        <time>2021-09-11T09:20:07Z</time>
      </trkpt>
      <trkpt lat="44.0739" lon="6.29498">
        <ele>837.7</ele>
        <time>2021-09-11T09:20:09Z</time>
      </trkpt>
      <trkpt lat="44.0739" lon="6.29497">
        <ele>837.8</ele>
        <time>2021-09-11T09:20:10Z</time>
      </trkpt>
      <trkpt lat="44.07387" lon="6.29495">
        <ele>838</ele>
        <time>2021-09-11T09:20:11Z</time>
      </trkpt>
      <trkpt lat="44.07386" lon="6.29493">
        <ele>838.1</ele>
        <time>2021-09-11T09:20:12Z</time>
      </trkpt>
      <trkpt lat="44.07385" lon="6.29491">
        <ele>838.2</ele>
        <time>2021-09-11T09:20:13Z</time>
      </trkpt>
      <trkpt lat="44.07385" lon="6.29491">
        <ele>838.3</ele>
        <time>2021-09-11T09:20:15Z</time>
      </trkpt>
      <trkpt lat="44.07383" lon="6.29489">
        <ele>838.4</ele>
        <time>2021-09-11T09:20:16Z</time>
      </trkpt>
      <trkpt lat="44.0738" lon="6.29487">
        <ele>838.7</ele>
        <time>2021-09-11T09:20:18Z</time>
      </trkpt>
      <trkpt lat="44.07376" lon="6.29484">
        <ele>839</ele>
        <time>2021-09-11T09:20:20Z</time>
      </trkpt>
      <trkpt lat="44.07372" lon="6.29482">
        <ele>839.3</ele>
        <time>2021-09-11T09:20:21Z</time>
      </trkpt>
      <trkpt lat="44.07368" lon="6.2948">
        <ele>839.5</ele>
        <time>2021-09-11T09:20:23Z</time>
      </trkpt>
      <trkpt lat="44.07368" lon="6.2948">
        <ele>839.6</ele>
        <time>2021-09-11T09:20:24Z</time>
      </trkpt>
      <trkpt lat="44.07365" lon="6.29478">
        <ele>839.7</ele>
        <time>2021-09-11T09:20:25Z</time>
      </trkpt>
      <trkpt lat="44.07363" lon="6.29476">
        <ele>839.9</ele>
        <time>2021-09-11T09:20:27Z</time>
      </trkpt>
      <trkpt lat="44.07362" lon="6.29474">
        <ele>840</ele>
        <time>2021-09-11T09:20:28Z</time>
      </trkpt>
      <trkpt lat="44.07361" lon="6.29472">
        <ele>840.1</ele>
        <time>2021-09-11T09:20:29Z</time>
      </trkpt>
      <trkpt lat="44.07358" lon="6.2947">
        <ele>840.3</ele>
        <time>2021-09-11T09:20:30Z</time>
      </trkpt>
      <trkpt lat="44.07355" lon="6.29468">
        <ele>840.5</ele>
        <time>2021-09-11T09:20:32Z</time>
      </trkpt>
      <trkpt lat="44.0735" lon="6.29467">
        <ele>840.8</ele>
        <time>2021-09-11T09:20:34Z</time>
      </trkpt>
      <trkpt lat="44.07345" lon="6.29466">
        <ele>841.1</ele>
        <time>2021-09-11T09:20:35Z</time>
      </trkpt>
      <trkpt lat="44.07343" lon="6.29466">
        <ele>841.2</ele>
        <time>2021-09-11T09:20:36Z</time>
      </trkpt>
      <trkpt lat="44.0734" lon="6.29468">
        <ele>841.4</ele>
        <time>2021-09-11T09:20:38Z</time>
      </trkpt>
      <trkpt lat="44.07339" lon="6.29468">
        <ele>841.5</ele>
        <time>2021-09-11T09:20:40Z</time>
      </trkpt>
      <trkpt lat="44.07339" lon="6.29469">
        <ele>841.5</ele>
        <time>2021-09-11T09:20:41Z</time>
      </trkpt>
      <trkpt lat="44.07338" lon="6.29471">
        <ele>841.6</ele>
        <time>2021-09-11T09:20:42Z</time>
      </trkpt>
      <trkpt lat="44.07337" lon="6.29474">
        <ele>841.7</ele>
        <time>2021-09-11T09:20:43Z</time>
      </trkpt>
      <trkpt lat="44.07335" lon="6.29478">
        <ele>841.9</ele>
        <time>2021-09-11T09:20:45Z</time>
      </trkpt>
      <trkpt lat="44.07333" lon="6.29483">
        <ele>842.2</ele>
        <time>2021-09-11T09:20:47Z</time>
      </trkpt>
      <trkpt lat="44.07332" lon="6.29485">
        <ele>842.3</ele>
        <time>2021-09-11T09:20:48Z</time>
      </trkpt>
      <trkpt lat="44.07331" lon="6.29487">
        <ele>842.4</ele>
        <time>2021-09-11T09:20:49Z</time>
      </trkpt>
      <trkpt lat="44.07329" lon="6.29489">
        <ele>842.5</ele>
        <time>2021-09-11T09:20:50Z</time>
      </trkpt>
      <trkpt lat="44.07328" lon="6.29491">
        <ele>842.6</ele>
        <time>2021-09-11T09:20:52Z</time>
      </trkpt>
      <trkpt lat="44.07324" lon="6.29493">
        <ele>842.8</ele>
        <time>2021-09-11T09:20:54Z</time>
      </trkpt>
      <trkpt lat="44.07322" lon="6.29494">
        <ele>842.9</ele>
        <time>2021-09-11T09:20:55Z</time>
      </trkpt>
      <trkpt lat="44.07318" lon="6.29497">
        <ele>843.1</ele>
        <time>2021-09-11T09:20:57Z</time>
      </trkpt>
      <trkpt lat="44.07316" lon="6.29499">
        <ele>843.3</ele>
        <time>2021-09-11T09:20:58Z</time>
      </trkpt>
      <trkpt lat="44.07313" lon="6.29502">
        <ele>843.4</ele>
        <time>2021-09-11T09:21:00Z</time>
      </trkpt>
      <trkpt lat="44.07313" lon="6.29503">
        <ele>843.5</ele>
        <time>2021-09-11T09:21:01Z</time>
      </trkpt>
      <trkpt lat="44.07309" lon="6.29504">
        <ele>843.7</ele>
        <time>2021-09-11T09:21:02Z</time>
      </trkpt>
      <trkpt lat="44.07306" lon="6.29506">
        <ele>843.8</ele>
        <time>2021-09-11T09:21:04Z</time>
      </trkpt>
      <trkpt lat="44.07305" lon="6.29507">
        <ele>843.9</ele>
        <time>2021-09-11T09:21:05Z</time>
      </trkpt>
      <trkpt lat="44.07303" lon="6.29508">
        <ele>844</ele>
        <time>2021-09-11T09:21:06Z</time>
      </trkpt>
      <trkpt lat="44.07301" lon="6.29509">
        <ele>844.2</ele>
        <time>2021-09-11T09:21:08Z</time>
      </trkpt>
      <trkpt lat="44.07299" lon="6.29511">
        <ele>844.2</ele>
        <time>2021-09-11T09:21:09Z</time>
      </trkpt>
      <trkpt lat="44.07297" lon="6.29514">
        <ele>844.4</ele>
        <time>2021-09-11T09:21:11Z</time>
      </trkpt>
      <trkpt lat="44.07292" lon="6.29516">
        <ele>844.7</ele>
        <time>2021-09-11T09:21:13Z</time>
      </trkpt>
      <trkpt lat="44.07289" lon="6.29518">
        <ele>844.8</ele>
        <time>2021-09-11T09:21:14Z</time>
      </trkpt>
      <trkpt lat="44.07288" lon="6.29518">
        <ele>844.9</ele>
        <time>2021-09-11T09:21:15Z</time>
      </trkpt>
      <trkpt lat="44.07287" lon="6.29518">
        <ele>845</ele>
        <time>2021-09-11T09:21:17Z</time>
      </trkpt>
      <trkpt lat="44.07285" lon="6.2952">
        <ele>845.1</ele>
        <time>2021-09-11T09:21:19Z</time>
      </trkpt>
      <trkpt lat="44.07284" lon="6.29522">
        <ele>845.2</ele>
        <time>2021-09-11T09:21:20Z</time>
      </trkpt>
      <trkpt lat="44.0728" lon="6.29524">
        <ele>845.4</ele>
        <time>2021-09-11T09:21:22Z</time>
      </trkpt>
      <trkpt lat="44.07277" lon="6.29525">
        <ele>845.6</ele>
        <time>2021-09-11T09:21:24Z</time>
      </trkpt>
      <trkpt lat="44.07275" lon="6.29526">
        <ele>845.7</ele>
        <time>2021-09-11T09:21:25Z</time>
      </trkpt>
      <trkpt lat="44.07271" lon="6.29528">
        <ele>845.9</ele>
        <time>2021-09-11T09:21:27Z</time>
      </trkpt>
      <trkpt lat="44.07268" lon="6.29528">
        <ele>846.1</ele>
        <time>2021-09-11T09:21:28Z</time>
      </trkpt>
      <trkpt lat="44.07265" lon="6.29528">
        <ele>846.3</ele>
        <time>2021-09-11T09:21:30Z</time>
      </trkpt>
      <trkpt lat="44.07263" lon="6.29528">
        <ele>846.4</ele>
        <time>2021-09-11T09:21:31Z</time>
      </trkpt>
      <trkpt lat="44.0726" lon="6.29527">
        <ele>846.6</ele>
        <time>2021-09-11T09:21:33Z</time>
      </trkpt>
      <trkpt lat="44.0726" lon="6.29527">
        <ele>846.6</ele>
        <time>2021-09-11T09:21:34Z</time>
      </trkpt>
      <trkpt lat="44.07259" lon="6.29526">
        <ele>846.6</ele>
        <time>2021-09-11T09:21:35Z</time>
      </trkpt>
      <trkpt lat="44.07259" lon="6.29526">
        <ele>846.7</ele>
        <time>2021-09-11T09:21:37Z</time>
      </trkpt>
      <trkpt lat="44.07258" lon="6.29525">
        <ele>846.7</ele>
        <time>2021-09-11T09:21:38Z</time>
      </trkpt>
      <trkpt lat="44.07257" lon="6.29524">
        <ele>846.8</ele>
        <time>2021-09-11T09:21:40Z</time>
      </trkpt>
      <trkpt lat="44.07257" lon="6.29524">
        <ele>846.8</ele>
        <time>2021-09-11T09:21:42Z</time>
      </trkpt>
      <trkpt lat="44.07256" lon="6.29524">
        <ele>846.8</ele>
        <time>2021-09-11T09:21:43Z</time>
      </trkpt>
      <trkpt lat="44.07256" lon="6.29523">
        <ele>846.9</ele>
        <time>2021-09-11T09:21:44Z</time>
      </trkpt>
      <trkpt lat="44.07256" lon="6.29523">
        <ele>846.9</ele>
        <time>2021-09-11T09:21:46Z</time>
      </trkpt>
      <trkpt lat="44.07255" lon="6.29523">
        <ele>846.9</ele>
        <time>2021-09-11T09:21:47Z</time>
      </trkpt>
      <trkpt lat="44.07243" lon="6.29518">
        <ele>847.7</ele>
        <time>2021-09-11T09:21:57Z</time>
      </trkpt>
      <trkpt lat="44.07239" lon="6.29517">
        <ele>847.9</ele>
        <time>2021-09-11T09:21:58Z</time>
      </trkpt>
      <trkpt lat="44.07236" lon="6.29515">
        <ele>848.1</ele>
        <time>2021-09-11T09:21:59Z</time>
      </trkpt>
      <trkpt lat="44.07233" lon="6.29512">
        <ele>848.4</ele>
        <time>2021-09-11T09:22:00Z</time>
      </trkpt>
      <trkpt lat="44.07231" lon="6.2951">
        <ele>848.5</ele>
        <time>2021-09-11T09:22:01Z</time>
      </trkpt>
      <trkpt lat="44.07228" lon="6.29507">
        <ele>848.7</ele>
        <time>2021-09-11T09:22:03Z</time>
      </trkpt>
      <trkpt lat="44.07227" lon="6.29505">
        <ele>848.8</ele>
        <time>2021-09-11T09:22:04Z</time>
      </trkpt>
      <trkpt lat="44.07226" lon="6.29504">
        <ele>848.9</ele>
        <time>2021-09-11T09:22:05Z</time>
      </trkpt>
      <trkpt lat="44.07225" lon="6.29504">
        <ele>849</ele>
        <time>2021-09-11T09:22:06Z</time>
      </trkpt>
      <trkpt lat="44.07224" lon="6.29503">
        <ele>849.1</ele>
        <time>2021-09-11T09:22:07Z</time>
      </trkpt>
      <trkpt lat="44.07222" lon="6.29501">
        <ele>849.2</ele>
        <time>2021-09-11T09:22:09Z</time>
      </trkpt>
      <trkpt lat="44.07221" lon="6.295">
        <ele>849.3</ele>
        <time>2021-09-11T09:22:10Z</time>
      </trkpt>
      <trkpt lat="44.07219" lon="6.29498">
        <ele>849.4</ele>
        <time>2021-09-11T09:22:11Z</time>
      </trkpt>
      <trkpt lat="44.07217" lon="6.29497">
        <ele>849.5</ele>
        <time>2021-09-11T09:22:12Z</time>
      </trkpt>
      <trkpt lat="44.07217" lon="6.29497">
        <ele>849.6</ele>
        <time>2021-09-11T09:22:13Z</time>
      </trkpt>
      <trkpt lat="44.07216" lon="6.29497">
        <ele>849.6</ele>
        <time>2021-09-11T09:22:15Z</time>
      </trkpt>
      <trkpt lat="44.07215" lon="6.29496">
        <ele>849.7</ele>
        <time>2021-09-11T09:22:16Z</time>
      </trkpt>
      <trkpt lat="44.07214" lon="6.29496">
        <ele>849.8</ele>
        <time>2021-09-11T09:22:17Z</time>
      </trkpt>
      <trkpt lat="44.07213" lon="6.29496">
        <ele>849.8</ele>
        <time>2021-09-11T09:22:19Z</time>
      </trkpt>
      <trkpt lat="44.07212" lon="6.29495">
        <ele>849.9</ele>
        <time>2021-09-11T09:22:20Z</time>
      </trkpt>
      <trkpt lat="44.07212" lon="6.29495">
        <ele>849.9</ele>
        <time>2021-09-11T09:22:21Z</time>
      </trkpt>
      <trkpt lat="44.07211" lon="6.29495">
        <ele>850</ele>
        <time>2021-09-11T09:22:22Z</time>
      </trkpt>
      <trkpt lat="44.07211" lon="6.29494">
        <ele>850</ele>
        <time>2021-09-11T09:22:23Z</time>
      </trkpt>
      <trkpt lat="44.0721" lon="6.29494">
        <ele>850</ele>
        <time>2021-09-11T09:22:25Z</time>
      </trkpt>
      <trkpt lat="44.0721" lon="6.29494">
        <ele>850</ele>
        <time>2021-09-11T09:22:26Z</time>
      </trkpt>
      <trkpt lat="44.0721" lon="6.29494">
        <ele>850.1</ele>
        <time>2021-09-11T09:22:27Z</time>
      </trkpt>
      <trkpt lat="44.0721" lon="6.29494">
        <ele>850.1</ele>
        <time>2021-09-11T09:22:28Z</time>
      </trkpt>
      <trkpt lat="44.0721" lon="6.29494">
        <ele>850.1</ele>
        <time>2021-09-11T09:22:30Z</time>
      </trkpt>
      <trkpt lat="44.07199" lon="6.29478">
        <ele>851</ele>
        <time>2021-09-11T09:22:43Z</time>
      </trkpt>
      <trkpt lat="44.07197" lon="6.29476">
        <ele>851.2</ele>
        <time>2021-09-11T09:22:44Z</time>
      </trkpt>
      <trkpt lat="44.07195" lon="6.29473">
        <ele>851.4</ele>
        <time>2021-09-11T09:22:46Z</time>
      </trkpt>
      <trkpt lat="44.07195" lon="6.29472">
        <ele>851.4</ele>
        <time>2021-09-11T09:22:47Z</time>
      </trkpt>
      <trkpt lat="44.07192" lon="6.29469">
        <ele>851.6</ele>
        <time>2021-09-11T09:22:48Z</time>
      </trkpt>
      <trkpt lat="44.07191" lon="6.29466">
        <ele>851.8</ele>
        <time>2021-09-11T09:22:49Z</time>
      </trkpt>
      <trkpt lat="44.0719" lon="6.29465">
        <ele>851.8</ele>
        <time>2021-09-11T09:22:51Z</time>
      </trkpt>
      <trkpt lat="44.0719" lon="6.29464">
        <ele>851.9</ele>
        <time>2021-09-11T09:22:52Z</time>
      </trkpt>
      <trkpt lat="44.07189" lon="6.29464">
        <ele>851.9</ele>
        <time>2021-09-11T09:22:53Z</time>
      </trkpt>
      <trkpt lat="44.07188" lon="6.29463">
        <ele>852</ele>
        <time>2021-09-11T09:22:54Z</time>
      </trkpt>
      <trkpt lat="44.07186" lon="6.29462">
        <ele>852.2</ele>
        <time>2021-09-11T09:22:55Z</time>
      </trkpt>
      <trkpt lat="44.07185" lon="6.29462">
        <ele>852.3</ele>
        <time>2021-09-11T09:22:57Z</time>
      </trkpt>
      <trkpt lat="44.07184" lon="6.29462">
        <ele>852.3</ele>
        <time>2021-09-11T09:22:58Z</time>
      </trkpt>
      <trkpt lat="44.07184" lon="6.29462">
        <ele>852.3</ele>
        <time>2021-09-11T09:22:59Z</time>
      </trkpt>
      <trkpt lat="44.07183" lon="6.29462">
        <ele>852.4</ele>
        <time>2021-09-11T09:23:00Z</time>
      </trkpt>
      <trkpt lat="44.0718" lon="6.29462">
        <ele>852.6</ele>
        <time>2021-09-11T09:23:02Z</time>
      </trkpt>
      <trkpt lat="44.0718" lon="6.29462">
        <ele>852.6</ele>
        <time>2021-09-11T09:23:04Z</time>
      </trkpt>
      <trkpt lat="44.07179" lon="6.29461">
        <ele>852.6</ele>
        <time>2021-09-11T09:23:05Z</time>
      </trkpt>
      <trkpt lat="44.07179" lon="6.29461">
        <ele>852.6</ele>
        <time>2021-09-11T09:23:07Z</time>
      </trkpt>
      <trkpt lat="44.07179" lon="6.29461">
        <ele>852.7</ele>
        <time>2021-09-11T09:23:08Z</time>
      </trkpt>
      <trkpt lat="44.07179" lon="6.29462">
        <ele>852.7</ele>
        <time>2021-09-11T09:23:09Z</time>
      </trkpt>
      <trkpt lat="44.07179" lon="6.29462">
        <ele>852.7</ele>
        <time>2021-09-11T09:23:11Z</time>
      </trkpt>
      <trkpt lat="44.07179" lon="6.29462">
        <ele>852.7</ele>
        <time>2021-09-11T09:23:12Z</time>
      </trkpt>
      <trkpt lat="44.0717" lon="6.2951">
        <ele>855.3</ele>
        <time>2021-09-11T09:23:49Z</time>
      </trkpt>
      <trkpt lat="44.07172" lon="6.29516">
        <ele>855.7</ele>
        <time>2021-09-11T09:23:51Z</time>
      </trkpt>
      <trkpt lat="44.07173" lon="6.2952">
        <ele>855.9</ele>
        <time>2021-09-11T09:23:52Z</time>
      </trkpt>
      <trkpt lat="44.07175" lon="6.29523">
        <ele>856.1</ele>
        <time>2021-09-11T09:23:53Z</time>
      </trkpt>
      <trkpt lat="44.07175" lon="6.29525">
        <ele>856.3</ele>
        <time>2021-09-11T09:23:55Z</time>
      </trkpt>
      <trkpt lat="44.07176" lon="6.29529">
        <ele>856.5</ele>
        <time>2021-09-11T09:23:56Z</time>
      </trkpt>
      <trkpt lat="44.07176" lon="6.29531">
        <ele>856.6</ele>
        <time>2021-09-11T09:23:57Z</time>
      </trkpt>
      <trkpt lat="44.07177" lon="6.29532">
        <ele>856.7</ele>
        <time>2021-09-11T09:23:58Z</time>
      </trkpt>
      <trkpt lat="44.07178" lon="6.29534">
        <ele>856.8</ele>
        <time>2021-09-11T09:24:00Z</time>
      </trkpt>
      <trkpt lat="44.0718" lon="6.29537">
        <ele>857.1</ele>
        <time>2021-09-11T09:24:02Z</time>
      </trkpt>
      <trkpt lat="44.07181" lon="6.29538">
        <ele>857.2</ele>
        <time>2021-09-11T09:24:04Z</time>
      </trkpt>
      <trkpt lat="44.07181" lon="6.29538">
        <ele>857.2</ele>
        <time>2021-09-11T09:24:05Z</time>
      </trkpt>
      <trkpt lat="44.07182" lon="6.29539">
        <ele>857.3</ele>
        <time>2021-09-11T09:24:06Z</time>
      </trkpt>
      <trkpt lat="44.07182" lon="6.2954">
        <ele>857.3</ele>
        <time>2021-09-11T09:24:07Z</time>
      </trkpt>
      <trkpt lat="44.07182" lon="6.2954">
        <ele>857.4</ele>
        <time>2021-09-11T09:24:08Z</time>
      </trkpt>
      <trkpt lat="44.07182" lon="6.29541">
        <ele>857.4</ele>
        <time>2021-09-11T09:24:10Z</time>
      </trkpt>
      <trkpt lat="44.07182" lon="6.29542">
        <ele>857.4</ele>
        <time>2021-09-11T09:24:11Z</time>
      </trkpt>
      <trkpt lat="44.07183" lon="6.29543">
        <ele>857.5</ele>
        <time>2021-09-11T09:24:12Z</time>
      </trkpt>
      <trkpt lat="44.07183" lon="6.29544">
        <ele>857.6</ele>
        <time>2021-09-11T09:24:13Z</time>
      </trkpt>
      <trkpt lat="44.07184" lon="6.29544">
        <ele>857.6</ele>
        <time>2021-09-11T09:24:15Z</time>
      </trkpt>
      <trkpt lat="44.07184" lon="6.29546">
        <ele>857.7</ele>
        <time>2021-09-11T09:24:16Z</time>
      </trkpt>
      <trkpt lat="44.07185" lon="6.29547">
        <ele>857.8</ele>
        <time>2021-09-11T09:24:18Z</time>
      </trkpt>
      <trkpt lat="44.07187" lon="6.29549">
        <ele>857.8</ele>
        <time>2021-09-11T09:24:19Z</time>
      </trkpt>
      <trkpt lat="44.07187" lon="6.2955">
        <ele>858.1</ele>
        <time>2021-09-11T09:24:21Z</time>
      </trkpt>
      <trkpt lat="44.07194" lon="6.29557">
        <ele>857.2</ele>
        <time>2021-09-11T09:24:26Z</time>
      </trkpt>
      <trkpt lat="44.07197" lon="6.29558">
        <ele>857</ele>
        <time>2021-09-11T09:24:28Z</time>
      </trkpt>
      <trkpt lat="44.07197" lon="6.29559">
        <ele>857.3</ele>
        <time>2021-09-11T09:24:29Z</time>
      </trkpt>
      <trkpt lat="44.072" lon="6.2956">
        <ele>857</ele>
        <time>2021-09-11T09:24:30Z</time>
      </trkpt>
      <trkpt lat="44.07201" lon="6.2956">
        <ele>857.4</ele>
        <time>2021-09-11T09:24:31Z</time>
      </trkpt>
      <trkpt lat="44.07204" lon="6.29562">
        <ele>857.2</ele>
        <time>2021-09-11T09:24:33Z</time>
      </trkpt>
      <trkpt lat="44.07205" lon="6.29563">
        <ele>857.1</ele>
        <time>2021-09-11T09:24:35Z</time>
      </trkpt>
      <trkpt lat="44.07205" lon="6.29563">
        <ele>857.4</ele>
        <time>2021-09-11T09:24:36Z</time>
      </trkpt>
      <trkpt lat="44.07206" lon="6.29563">
        <ele>857.8</ele>
        <time>2021-09-11T09:24:38Z</time>
      </trkpt>
      <trkpt lat="44.07206" lon="6.29563">
        <ele>858.1</ele>
        <time>2021-09-11T09:24:40Z</time>
      </trkpt>
      <trkpt lat="44.07207" lon="6.29569">
        <ele>858.1</ele>
        <time>2021-09-11T09:24:42Z</time>
      </trkpt>
      <trkpt lat="44.0721" lon="6.29572">
        <ele>858</ele>
        <time>2021-09-11T09:24:43Z</time>
      </trkpt>
      <trkpt lat="44.07233" lon="6.29586">
        <ele>854.3</ele>
        <time>2021-09-11T09:25:30Z</time>
      </trkpt>
      <trkpt lat="44.07232" lon="6.29588">
        <ele>855</ele>
        <time>2021-09-11T09:25:31Z</time>
      </trkpt>
      <trkpt lat="44.07231" lon="6.2959">
        <ele>855.2</ele>
        <time>2021-09-11T09:25:32Z</time>
      </trkpt>
      <trkpt lat="44.0723" lon="6.29592">
        <ele>855.6</ele>
        <time>2021-09-11T09:25:33Z</time>
      </trkpt>
      <trkpt lat="44.07229" lon="6.29594">
        <ele>856.1</ele>
        <time>2021-09-11T09:25:35Z</time>
      </trkpt>
      <trkpt lat="44.07227" lon="6.29598">
        <ele>856.3</ele>
        <time>2021-09-11T09:25:36Z</time>
      </trkpt>
      <trkpt lat="44.07226" lon="6.29599">
        <ele>857</ele>
        <time>2021-09-11T09:25:37Z</time>
      </trkpt>
      <trkpt lat="44.07225" lon="6.296">
        <ele>857.3</ele>
        <time>2021-09-11T09:25:38Z</time>
      </trkpt>
      <trkpt lat="44.07224" lon="6.29601">
        <ele>857.7</ele>
        <time>2021-09-11T09:25:40Z</time>
      </trkpt>
      <trkpt lat="44.07222" lon="6.29602">
        <ele>858.4</ele>
        <time>2021-09-11T09:25:42Z</time>
      </trkpt>
      <trkpt lat="44.07221" lon="6.29603">
        <ele>858.5</ele>
        <time>2021-09-11T09:25:43Z</time>
      </trkpt>
      <trkpt lat="44.0722" lon="6.29603">
        <ele>859.2</ele>
        <time>2021-09-11T09:25:44Z</time>
      </trkpt>
      <trkpt lat="44.07219" lon="6.29604">
        <ele>859.5</ele>
        <time>2021-09-11T09:25:45Z</time>
      </trkpt>
      <trkpt lat="44.07219" lon="6.29604">
        <ele>859.9</ele>
        <time>2021-09-11T09:25:47Z</time>
      </trkpt>
      <trkpt lat="44.07217" lon="6.29606">
        <ele>860.2</ele>
        <time>2021-09-11T09:25:49Z</time>
      </trkpt>
      <trkpt lat="44.07216" lon="6.29606">
        <ele>860.9</ele>
        <time>2021-09-11T09:25:50Z</time>
      </trkpt>
      <trkpt lat="44.07215" lon="6.29603">
        <ele>861.2</ele>
        <time>2021-09-11T09:25:51Z</time>
      </trkpt>
      <trkpt lat="44.07214" lon="6.29598">
        <ele>862.1</ele>
        <time>2021-09-11T09:25:52Z</time>
      </trkpt>
      <trkpt lat="44.07213" lon="6.29594">
        <ele>862.6</ele>
        <time>2021-09-11T09:25:54Z</time>
      </trkpt>
      <trkpt lat="44.07211" lon="6.2959">
        <ele>863.1</ele>
        <time>2021-09-11T09:26:12Z</time>
      </trkpt>
      <trkpt lat="44.0721" lon="6.29586">
        <ele>864.1</ele>
        <time>2021-09-11T09:26:13Z</time>
      </trkpt>
      <trkpt lat="44.07209" lon="6.29582">
        <ele>864.6</ele>
        <time>2021-09-11T09:26:14Z</time>
      </trkpt>
      <trkpt lat="44.07208" lon="6.29581">
        <ele>865.1</ele>
        <time>2021-09-11T09:26:15Z</time>
      </trkpt>
      <trkpt lat="44.07205" lon="6.29579">
        <ele>865.8</ele>
        <time>2021-09-11T09:26:16Z</time>
      </trkpt>
      <trkpt lat="44.07204" lon="6.29578">
        <ele>866.6</ele>
        <time>2021-09-11T09:26:17Z</time>
      </trkpt>
      <trkpt lat="44.07202" lon="6.29578">
        <ele>867.3</ele>
        <time>2021-09-11T09:26:18Z</time>
      </trkpt>
      <trkpt lat="44.07198" lon="6.29578">
        <ele>868.1</ele>
        <time>2021-09-11T09:26:20Z</time>
      </trkpt>
      <trkpt lat="44.07195" lon="6.2958">
        <ele>868.4</ele>
        <time>2021-09-11T09:26:21Z</time>
      </trkpt>
      <trkpt lat="44.07194" lon="6.2958">
        <ele>868.4</ele>
        <time>2021-09-11T09:26:22Z</time>
      </trkpt>
      <trkpt lat="44.07193" lon="6.29582">
        <ele>868.6</ele>
        <time>2021-09-11T09:26:23Z</time>
      </trkpt>
      <trkpt lat="44.07193" lon="6.29585">
        <ele>868.7</ele>
        <time>2021-09-11T09:26:24Z</time>
      </trkpt>
      <trkpt lat="44.07192" lon="6.2959">
        <ele>869</ele>
        <time>2021-09-11T09:26:26Z</time>
      </trkpt>
      <trkpt lat="44.07191" lon="6.29594">
        <ele>869.2</ele>
        <time>2021-09-11T09:26:27Z</time>
      </trkpt>
      <trkpt lat="44.07191" lon="6.29596">
        <ele>869.3</ele>
        <time>2021-09-11T09:26:28Z</time>
      </trkpt>
      <trkpt lat="44.0719" lon="6.29597">
        <ele>869.4</ele>
        <time>2021-09-11T09:26:29Z</time>
      </trkpt>
      <trkpt lat="44.0719" lon="6.296">
        <ele>869.5</ele>
        <time>2021-09-11T09:26:30Z</time>
      </trkpt>
      <trkpt lat="44.07189" lon="6.29604">
        <ele>869.7</ele>
        <time>2021-09-11T09:26:32Z</time>
      </trkpt>
      <trkpt lat="44.07186" lon="6.29605">
        <ele>870</ele>
        <time>2021-09-11T09:26:34Z</time>
      </trkpt>
      <trkpt lat="44.07184" lon="6.29605">
        <ele>870.1</ele>
        <time>2021-09-11T09:26:35Z</time>
      </trkpt>
      <trkpt lat="44.07183" lon="6.29606">
        <ele>870.2</ele>
        <time>2021-09-11T09:26:36Z</time>
      </trkpt>
      <trkpt lat="44.07181" lon="6.29608">
        <ele>870.3</ele>
        <time>2021-09-11T09:26:38Z</time>
      </trkpt>
      <trkpt lat="44.07179" lon="6.2961">
        <ele>870.5</ele>
        <time>2021-09-11T09:26:40Z</time>
      </trkpt>
      <trkpt lat="44.07176" lon="6.2961">
        <ele>870.8</ele>
        <time>2021-09-11T09:26:42Z</time>
      </trkpt>
      <trkpt lat="44.07172" lon="6.29608">
        <ele>871.1</ele>
        <time>2021-09-11T09:26:44Z</time>
      </trkpt>
      <trkpt lat="44.0717" lon="6.29608">
        <ele>871.3</ele>
        <time>2021-09-11T09:26:46Z</time>
      </trkpt>
      <trkpt lat="44.07167" lon="6.29608">
        <ele>871.5</ele>
        <time>2021-09-11T09:26:48Z</time>
      </trkpt>
      <trkpt lat="44.07166" lon="6.29608">
        <ele>871.6</ele>
        <time>2021-09-11T09:26:49Z</time>
      </trkpt>
      <trkpt lat="44.07165" lon="6.29608">
        <ele>871.7</ele>
        <time>2021-09-11T09:26:50Z</time>
      </trkpt>
      <trkpt lat="44.07163" lon="6.29608">
        <ele>871.9</ele>
        <time>2021-09-11T09:26:52Z</time>
      </trkpt>
      <trkpt lat="44.07161" lon="6.29607">
        <ele>872</ele>
        <time>2021-09-11T09:26:54Z</time>
      </trkpt>
      <trkpt lat="44.07161" lon="6.29608">
        <ele>872</ele>
        <time>2021-09-11T09:26:55Z</time>
      </trkpt>
      <trkpt lat="44.0716" lon="6.29609">
        <ele>872.2</ele>
        <time>2021-09-11T09:26:57Z</time>
      </trkpt>
      <trkpt lat="44.07158" lon="6.29609">
        <ele>872.4</ele>
        <time>2021-09-11T09:26:59Z</time>
      </trkpt>
      <trkpt lat="44.07157" lon="6.29608">
        <ele>872.5</ele>
        <time>2021-09-11T09:27:00Z</time>
      </trkpt>
      <trkpt lat="44.07156" lon="6.29608">
        <ele>872.6</ele>
        <time>2021-09-11T09:27:01Z</time>
      </trkpt>
      <trkpt lat="44.07156" lon="6.29608">
        <ele>872.6</ele>
        <time>2021-09-11T09:27:03Z</time>
      </trkpt>
      <trkpt lat="44.07146" lon="6.29603">
        <ele>873.6</ele>
        <time>2021-09-11T09:27:11Z</time>
      </trkpt>
      <trkpt lat="44.07143" lon="6.29601">
        <ele>873.9</ele>
        <time>2021-09-11T09:27:13Z</time>
      </trkpt>
      <trkpt lat="44.07138" lon="6.29599">
        <ele>874.4</ele>
        <time>2021-09-11T09:27:15Z</time>
      </trkpt>
      <trkpt lat="44.07135" lon="6.29599">
        <ele>874.7</ele>
        <time>2021-09-11T09:27:16Z</time>
      </trkpt>
      <trkpt lat="44.07133" lon="6.29599">
        <ele>874.9</ele>
        <time>2021-09-11T09:27:18Z</time>
      </trkpt>
      <trkpt lat="44.07132" lon="6.296">
        <ele>875</ele>
        <time>2021-09-11T09:27:19Z</time>
      </trkpt>
      <trkpt lat="44.07129" lon="6.29604">
        <ele>875.3</ele>
        <time>2021-09-11T09:27:21Z</time>
      </trkpt>
      <trkpt lat="44.07129" lon="6.29607">
        <ele>875.4</ele>
        <time>2021-09-11T09:27:22Z</time>
      </trkpt>
      <trkpt lat="44.07129" lon="6.29609">
        <ele>876.1</ele>
        <time>2021-09-11T09:27:23Z</time>
      </trkpt>
      <trkpt lat="44.07126" lon="6.29613">
        <ele>876.4</ele>
        <time>2021-09-11T09:27:25Z</time>
      </trkpt>
      <trkpt lat="44.07125" lon="6.29615">
        <ele>876.5</ele>
        <time>2021-09-11T09:27:26Z</time>
      </trkpt>
      <trkpt lat="44.07124" lon="6.29616">
        <ele>876.6</ele>
        <time>2021-09-11T09:27:27Z</time>
      </trkpt>
      <trkpt lat="44.07123" lon="6.29622">
        <ele>877</ele>
        <time>2021-09-11T09:27:29Z</time>
      </trkpt>
      <trkpt lat="44.07123" lon="6.29624">
        <ele>877.1</ele>
        <time>2021-09-11T09:27:30Z</time>
      </trkpt>
      <trkpt lat="44.07123" lon="6.29627">
        <ele>877.3</ele>
        <time>2021-09-11T09:27:32Z</time>
      </trkpt>
      <trkpt lat="44.07122" lon="6.29631">
        <ele>877.6</ele>
        <time>2021-09-11T09:27:34Z</time>
      </trkpt>
      <trkpt lat="44.07121" lon="6.29632">
        <ele>877.6</ele>
        <time>2021-09-11T09:27:35Z</time>
      </trkpt>
      <trkpt lat="44.07121" lon="6.29634">
        <ele>877.8</ele>
        <time>2021-09-11T09:27:37Z</time>
      </trkpt>
      <trkpt lat="44.07121" lon="6.29635">
        <ele>877.9</ele>
        <time>2021-09-11T09:27:39Z</time>
      </trkpt>
      <trkpt lat="44.07121" lon="6.29634">
        <ele>877.9</ele>
        <time>2021-09-11T09:27:40Z</time>
      </trkpt>
      <trkpt lat="44.07121" lon="6.29634">
        <ele>878</ele>
        <time>2021-09-11T09:27:41Z</time>
      </trkpt>
      <trkpt lat="44.07121" lon="6.29636">
        <ele>878.1</ele>
        <time>2021-09-11T09:27:42Z</time>
      </trkpt>
      <trkpt lat="44.0712" lon="6.29637">
        <ele>878.1</ele>
        <time>2021-09-11T09:27:44Z</time>
      </trkpt>
      <trkpt lat="44.0712" lon="6.29637">
        <ele>878.2</ele>
        <time>2021-09-11T09:27:46Z</time>
      </trkpt>
      <trkpt lat="44.07119" lon="6.29637">
        <ele>878.2</ele>
        <time>2021-09-11T09:27:48Z</time>
      </trkpt>
      <trkpt lat="44.07119" lon="6.29637">
        <ele>878.3</ele>
        <time>2021-09-11T09:27:50Z</time>
      </trkpt>
      <trkpt lat="44.07119" lon="6.29638">
        <ele>878.3</ele>
        <time>2021-09-11T09:27:51Z</time>
      </trkpt>
      <trkpt lat="44.07119" lon="6.29639">
        <ele>878.4</ele>
        <time>2021-09-11T09:27:52Z</time>
      </trkpt>
      <trkpt lat="44.07118" lon="6.2964">
        <ele>878.5</ele>
        <time>2021-09-11T09:27:53Z</time>
      </trkpt>
      <trkpt lat="44.07117" lon="6.29643">
        <ele>878.7</ele>
        <time>2021-09-11T09:27:55Z</time>
      </trkpt>
      <trkpt lat="44.07116" lon="6.29646">
        <ele>879</ele>
        <time>2021-09-11T09:27:56Z</time>
      </trkpt>
      <trkpt lat="44.07114" lon="6.2965">
        <ele>879.3</ele>
        <time>2021-09-11T09:27:57Z</time>
      </trkpt>
      <trkpt lat="44.07113" lon="6.29653">
        <ele>879.6</ele>
        <time>2021-09-11T09:27:59Z</time>
      </trkpt>
      <trkpt lat="44.07112" lon="6.29654">
        <ele>879.6</ele>
        <time>2021-09-11T09:28:00Z</time>
      </trkpt>
      <trkpt lat="44.07111" lon="6.29657">
        <ele>879.9</ele>
        <time>2021-09-11T09:28:01Z</time>
      </trkpt>
      <trkpt lat="44.0711" lon="6.29659">
        <ele>880.1</ele>
        <time>2021-09-11T09:28:03Z</time>
      </trkpt>
      <trkpt lat="44.07107" lon="6.29662">
        <ele>880.4</ele>
        <time>2021-09-11T09:28:04Z</time>
      </trkpt>
      <trkpt lat="44.07106" lon="6.29664">
        <ele>880.6</ele>
        <time>2021-09-11T09:28:06Z</time>
      </trkpt>
      <trkpt lat="44.07105" lon="6.29666">
        <ele>880.8</ele>
        <time>2021-09-11T09:28:07Z</time>
      </trkpt>
      <trkpt lat="44.07101" lon="6.2967">
        <ele>881.3</ele>
        <time>2021-09-11T09:28:09Z</time>
      </trkpt>
      <trkpt lat="44.071" lon="6.29672">
        <ele>881.5</ele>
        <time>2021-09-11T09:28:10Z</time>
      </trkpt>
      <trkpt lat="44.07097" lon="6.29676">
        <ele>881.9</ele>
        <time>2021-09-11T09:28:12Z</time>
      </trkpt>
      <trkpt lat="44.07096" lon="6.29677">
        <ele>882</ele>
        <time>2021-09-11T09:28:14Z</time>
      </trkpt>
      <trkpt lat="44.07095" lon="6.29678">
        <ele>882.2</ele>
        <time>2021-09-11T09:28:15Z</time>
      </trkpt>
      <trkpt lat="44.07092" lon="6.2968">
        <ele>882.5</ele>
        <time>2021-09-11T09:28:17Z</time>
      </trkpt>
      <trkpt lat="44.07091" lon="6.2968">
        <ele>882.6</ele>
        <time>2021-09-11T09:28:18Z</time>
      </trkpt>
      <trkpt lat="44.07087" lon="6.29683">
        <ele>883.1</ele>
        <time>2021-09-11T09:28:20Z</time>
      </trkpt>
      <trkpt lat="44.07087" lon="6.29685">
        <ele>883.3</ele>
        <time>2021-09-11T09:28:21Z</time>
      </trkpt>
      <trkpt lat="44.07087" lon="6.29689">
        <ele>883.6</ele>
        <time>2021-09-11T09:28:23Z</time>
      </trkpt>
      <trkpt lat="44.07088" lon="6.2969">
        <ele>883.8</ele>
        <time>2021-09-11T09:28:24Z</time>
      </trkpt>
      <trkpt lat="44.07089" lon="6.29691">
        <ele>883.9</ele>
        <time>2021-09-11T09:28:26Z</time>
      </trkpt>
      <trkpt lat="44.07089" lon="6.29692">
        <ele>884</ele>
        <time>2021-09-11T09:28:28Z</time>
      </trkpt>
      <trkpt lat="44.07088" lon="6.29695">
        <ele>884.3</ele>
        <time>2021-09-11T09:28:29Z</time>
      </trkpt>
      <trkpt lat="44.07086" lon="6.29699">
        <ele>884.7</ele>
        <time>2021-09-11T09:28:31Z</time>
      </trkpt>
      <trkpt lat="44.07085" lon="6.297">
        <ele>884.9</ele>
        <time>2021-09-11T09:28:33Z</time>
      </trkpt>
      <trkpt lat="44.07076" lon="6.29734">
        <ele>888.2</ele>
        <time>2021-09-11T09:28:50Z</time>
      </trkpt>
      <trkpt lat="44.07074" lon="6.29738">
        <ele>888.5</ele>
        <time>2021-09-11T09:28:52Z</time>
      </trkpt>
      <trkpt lat="44.07075" lon="6.29741">
        <ele>888.8</ele>
        <time>2021-09-11T09:28:54Z</time>
      </trkpt>
      <trkpt lat="44.07075" lon="6.29743">
        <ele>889</ele>
        <time>2021-09-11T09:28:55Z</time>
      </trkpt>
      <trkpt lat="44.07073" lon="6.29747">
        <ele>889.3</ele>
        <time>2021-09-11T09:28:57Z</time>
      </trkpt>
      <trkpt lat="44.07072" lon="6.29749">
        <ele>889.5</ele>
        <time>2021-09-11T09:28:58Z</time>
      </trkpt>
      <trkpt lat="44.07071" lon="6.29751">
        <ele>889.6</ele>
        <time>2021-09-11T09:28:59Z</time>
      </trkpt>
      <trkpt lat="44.07069" lon="6.29754">
        <ele>889.9</ele>
        <time>2021-09-11T09:29:00Z</time>
      </trkpt>
      <trkpt lat="44.07067" lon="6.29758">
        <ele>890.2</ele>
        <time>2021-09-11T09:29:02Z</time>
      </trkpt>
      <trkpt lat="44.07066" lon="6.29762">
        <ele>890.4</ele>
        <time>2021-09-11T09:29:04Z</time>
      </trkpt>
      <trkpt lat="44.07066" lon="6.29764">
        <ele>890.6</ele>
        <time>2021-09-11T09:29:06Z</time>
      </trkpt>
      <trkpt lat="44.07065" lon="6.29766">
        <ele>890.7</ele>
        <time>2021-09-11T09:29:08Z</time>
      </trkpt>
      <trkpt lat="44.07064" lon="6.29767">
        <ele>890.8</ele>
        <time>2021-09-11T09:29:09Z</time>
      </trkpt>
      <trkpt lat="44.07063" lon="6.29768">
        <ele>891</ele>
        <time>2021-09-11T09:29:10Z</time>
      </trkpt>
      <trkpt lat="44.07063" lon="6.29768">
        <ele>891</ele>
        <time>2021-09-11T09:29:11Z</time>
      </trkpt>
      <trkpt lat="44.07063" lon="6.29768">
        <ele>891</ele>
        <time>2021-09-11T09:29:12Z</time>
      </trkpt>
      <trkpt lat="44.07062" lon="6.29768">
        <ele>891.1</ele>
        <time>2021-09-11T09:29:14Z</time>
      </trkpt>
      <trkpt lat="44.07062" lon="6.29768">
        <ele>891.1</ele>
        <time>2021-09-11T09:29:15Z</time>
      </trkpt>
      <trkpt lat="44.07061" lon="6.29768">
        <ele>891.2</ele>
        <time>2021-09-11T09:29:16Z</time>
      </trkpt>
      <trkpt lat="44.0706" lon="6.29768">
        <ele>891.3</ele>
        <time>2021-09-11T09:29:17Z</time>
      </trkpt>
      <trkpt lat="44.0706" lon="6.29769">
        <ele>891.3</ele>
        <time>2021-09-11T09:29:19Z</time>
      </trkpt>
      <trkpt lat="44.07059" lon="6.29769">
        <ele>891.4</ele>
        <time>2021-09-11T09:29:20Z</time>
      </trkpt>
      <trkpt lat="44.07033" lon="6.29817">
        <ele>895.9</ele>
        <time>2021-09-11T09:30:26Z</time>
      </trkpt>
      <trkpt lat="44.07032" lon="6.29821">
        <ele>896.2</ele>
        <time>2021-09-11T09:30:27Z</time>
      </trkpt>
      <trkpt lat="44.07031" lon="6.29824">
        <ele>896.5</ele>
        <time>2021-09-11T09:30:29Z</time>
      </trkpt>
      <trkpt lat="44.0703" lon="6.29825">
        <ele>896.6</ele>
        <time>2021-09-11T09:30:30Z</time>
      </trkpt>
      <trkpt lat="44.07029" lon="6.29829">
        <ele>896.9</ele>
        <time>2021-09-11T09:30:31Z</time>
      </trkpt>
      <trkpt lat="44.07028" lon="6.29831">
        <ele>897</ele>
        <time>2021-09-11T09:30:32Z</time>
      </trkpt>
      <trkpt lat="44.07028" lon="6.29832">
        <ele>897.1</ele>
        <time>2021-09-11T09:30:33Z</time>
      </trkpt>
      <trkpt lat="44.07027" lon="6.29833">
        <ele>897.2</ele>
        <time>2021-09-11T09:30:35Z</time>
      </trkpt>
      <trkpt lat="44.07027" lon="6.29834">
        <ele>897.3</ele>
        <time>2021-09-11T09:30:36Z</time>
      </trkpt>
      <trkpt lat="44.07026" lon="6.29835">
        <ele>897.3</ele>
        <time>2021-09-11T09:30:37Z</time>
      </trkpt>
      <trkpt lat="44.07026" lon="6.29837">
        <ele>897.5</ele>
        <time>2021-09-11T09:30:39Z</time>
      </trkpt>
      <trkpt lat="44.07026" lon="6.29839">
        <ele>897.6</ele>
        <time>2021-09-11T09:30:40Z</time>
      </trkpt>
      <trkpt lat="44.07025" lon="6.29842">
        <ele>897.8</ele>
        <time>2021-09-11T09:30:41Z</time>
      </trkpt>
      <trkpt lat="44.07025" lon="6.29843">
        <ele>897.9</ele>
        <time>2021-09-11T09:30:43Z</time>
      </trkpt>
      <trkpt lat="44.07022" lon="6.29865">
        <ele>899.3</ele>
        <time>2021-09-11T09:30:54Z</time>
      </trkpt>
      <trkpt lat="44.07022" lon="6.29869">
        <ele>899.6</ele>
        <time>2021-09-11T09:30:55Z</time>
      </trkpt>
      <trkpt lat="44.07021" lon="6.29872">
        <ele>899.7</ele>
        <time>2021-09-11T09:30:56Z</time>
      </trkpt>
      <trkpt lat="44.0702" lon="6.29874">
        <ele>899.9</ele>
        <time>2021-09-11T09:30:58Z</time>
      </trkpt>
      <trkpt lat="44.07019" lon="6.29875">
        <ele>900</ele>
        <time>2021-09-11T09:30:59Z</time>
      </trkpt>
      <trkpt lat="44.07019" lon="6.29876">
        <ele>900.1</ele>
        <time>2021-09-11T09:31:00Z</time>
      </trkpt>
      <trkpt lat="44.07019" lon="6.29877">
        <ele>900.1</ele>
        <time>2021-09-11T09:31:02Z</time>
      </trkpt>
      <trkpt lat="44.07019" lon="6.29878">
        <ele>900.2</ele>
        <time>2021-09-11T09:31:03Z</time>
      </trkpt>
      <trkpt lat="44.07018" lon="6.29879">
        <ele>900.2</ele>
        <time>2021-09-11T09:31:04Z</time>
      </trkpt>
      <trkpt lat="44.07018" lon="6.2988">
        <ele>900.3</ele>
        <time>2021-09-11T09:31:06Z</time>
      </trkpt>
      <trkpt lat="44.07006" lon="6.29906">
        <ele>902.3</ele>
        <time>2021-09-11T09:31:27Z</time>
      </trkpt>
      <trkpt lat="44.07004" lon="6.29909">
        <ele>902.6</ele>
        <time>2021-09-11T09:31:28Z</time>
      </trkpt>
      <trkpt lat="44.06999" lon="6.29918">
        <ele>903.3</ele>
        <time>2021-09-11T09:31:29Z</time>
      </trkpt>
      <trkpt lat="44.06996" lon="6.29925">
        <ele>904</ele>
        <time>2021-09-11T09:31:31Z</time>
      </trkpt>
      <trkpt lat="44.06992" lon="6.29932">
        <ele>904.6</ele>
        <time>2021-09-11T09:31:32Z</time>
      </trkpt>
      <trkpt lat="44.06989" lon="6.29939">
        <ele>905.2</ele>
        <time>2021-09-11T09:31:34Z</time>
      </trkpt>
      <trkpt lat="44.06986" lon="6.29946">
        <ele>905.9</ele>
        <time>2021-09-11T09:31:35Z</time>
      </trkpt>
      <trkpt lat="44.06982" lon="6.29953">
        <ele>906.6</ele>
        <time>2021-09-11T09:31:36Z</time>
      </trkpt>
      <trkpt lat="44.06979" lon="6.2996">
        <ele>907.2</ele>
        <time>2021-09-11T09:31:38Z</time>
      </trkpt>
      <trkpt lat="44.06975" lon="6.29966">
        <ele>907.9</ele>
        <time>2021-09-11T09:32:49Z</time>
      </trkpt>
      <trkpt lat="44.06972" lon="6.29973">
        <ele>908.6</ele>
        <time>2021-09-11T09:32:51Z</time>
      </trkpt>
      <trkpt lat="44.06969" lon="6.2998">
        <ele>909.2</ele>
        <time>2021-09-11T09:32:52Z</time>
      </trkpt>
      <trkpt lat="44.06968" lon="6.29982">
        <ele>909.4</ele>
        <time>2021-09-11T09:32:53Z</time>
      </trkpt>
      <trkpt lat="44.06968" lon="6.29985">
        <ele>909.6</ele>
        <time>2021-09-11T09:32:54Z</time>
      </trkpt>
      <trkpt lat="44.06968" lon="6.29986">
        <ele>909.7</ele>
        <time>2021-09-11T09:32:56Z</time>
      </trkpt>
      <trkpt lat="44.06968" lon="6.29986">
        <ele>909.8</ele>
        <time>2021-09-11T09:32:58Z</time>
      </trkpt>
      <trkpt lat="44.06968" lon="6.29986">
        <ele>909.8</ele>
        <time>2021-09-11T09:32:59Z</time>
      </trkpt>
      <trkpt lat="44.06968" lon="6.29987">
        <ele>909.8</ele>
        <time>2021-09-11T09:33:00Z</time>
      </trkpt>
      <trkpt lat="44.06968" lon="6.29987">
        <ele>909.8</ele>
        <time>2021-09-11T09:33:02Z</time>
      </trkpt>
      <trkpt lat="44.06968" lon="6.29987">
        <ele>909.9</ele>
        <time>2021-09-11T09:33:03Z</time>
      </trkpt>
      <trkpt lat="44.06968" lon="6.29988">
        <ele>910</ele>
        <time>2021-09-11T09:33:04Z</time>
      </trkpt>
      <trkpt lat="44.06956" lon="6.30003">
        <ele>911.6</ele>
        <time>2021-09-11T09:33:24Z</time>
      </trkpt>
      <trkpt lat="44.06954" lon="6.30005">
        <ele>911.9</ele>
        <time>2021-09-11T09:33:25Z</time>
      </trkpt>
      <trkpt lat="44.06951" lon="6.30007">
        <ele>912.2</ele>
        <time>2021-09-11T09:33:27Z</time>
      </trkpt>
      <trkpt lat="44.0695" lon="6.30007">
        <ele>912.4</ele>
        <time>2021-09-11T09:33:28Z</time>
      </trkpt>
      <trkpt lat="44.06949" lon="6.30008">
        <ele>912.5</ele>
        <time>2021-09-11T09:33:29Z</time>
      </trkpt>
      <trkpt lat="44.06947" lon="6.30008">
        <ele>912.7</ele>
        <time>2021-09-11T09:33:31Z</time>
      </trkpt>
      <trkpt lat="44.06945" lon="6.30009">
        <ele>912.9</ele>
        <time>2021-09-11T09:33:32Z</time>
      </trkpt>
      <trkpt lat="44.06944" lon="6.30009">
        <ele>913</ele>
        <time>2021-09-11T09:33:33Z</time>
      </trkpt>
      <trkpt lat="44.06942" lon="6.3001">
        <ele>913.2</ele>
        <time>2021-09-11T09:33:34Z</time>
      </trkpt>
      <trkpt lat="44.06941" lon="6.3001">
        <ele>913.3</ele>
        <time>2021-09-11T09:33:36Z</time>
      </trkpt>
      <trkpt lat="44.0694" lon="6.30011">
        <ele>913.4</ele>
        <time>2021-09-11T09:33:37Z</time>
      </trkpt>
      <trkpt lat="44.06938" lon="6.30012">
        <ele>913.6</ele>
        <time>2021-09-11T09:33:38Z</time>
      </trkpt>
      <trkpt lat="44.06936" lon="6.30013">
        <ele>913.8</ele>
        <time>2021-09-11T09:33:39Z</time>
      </trkpt>
      <trkpt lat="44.06936" lon="6.30013">
        <ele>913.9</ele>
        <time>2021-09-11T09:33:41Z</time>
      </trkpt>
      <trkpt lat="44.06935" lon="6.30013">
        <ele>914</ele>
        <time>2021-09-11T09:33:42Z</time>
      </trkpt>
      <trkpt lat="44.06934" lon="6.30013">
        <ele>914.1</ele>
        <time>2021-09-11T09:33:44Z</time>
      </trkpt>
      <trkpt lat="44.06934" lon="6.30014">
        <ele>914.1</ele>
        <time>2021-09-11T09:33:45Z</time>
      </trkpt>
      <trkpt lat="44.06933" lon="6.30014">
        <ele>914.2</ele>
        <time>2021-09-11T09:33:46Z</time>
      </trkpt>
      <trkpt lat="44.06932" lon="6.30014">
        <ele>914.3</ele>
        <time>2021-09-11T09:33:47Z</time>
      </trkpt>
      <trkpt lat="44.06931" lon="6.30014">
        <ele>914.4</ele>
        <time>2021-09-11T09:33:48Z</time>
      </trkpt>
      <trkpt lat="44.06929" lon="6.30013">
        <ele>914.6</ele>
        <time>2021-09-11T09:33:50Z</time>
      </trkpt>
      <trkpt lat="44.06929" lon="6.30013">
        <ele>914.7</ele>
        <time>2021-09-11T09:33:51Z</time>
      </trkpt>
      <trkpt lat="44.06928" lon="6.30013">
        <ele>914.8</ele>
        <time>2021-09-11T09:33:52Z</time>
      </trkpt>
      <trkpt lat="44.06926" lon="6.30014">
        <ele>914.9</ele>
        <time>2021-09-11T09:33:53Z</time>
      </trkpt>
      <trkpt lat="44.06925" lon="6.30014">
        <ele>915.1</ele>
        <time>2021-09-11T09:33:55Z</time>
      </trkpt>
      <trkpt lat="44.06923" lon="6.30014">
        <ele>915.3</ele>
        <time>2021-09-11T09:33:57Z</time>
      </trkpt>
      <trkpt lat="44.06921" lon="6.30014">
        <ele>915.6</ele>
        <time>2021-09-11T09:33:59Z</time>
      </trkpt>
      <trkpt lat="44.0692" lon="6.30014">
        <ele>915.7</ele>
        <time>2021-09-11T09:34:00Z</time>
      </trkpt>
      <trkpt lat="44.06919" lon="6.30014">
        <ele>915.8</ele>
        <time>2021-09-11T09:34:01Z</time>
      </trkpt>
      <trkpt lat="44.06916" lon="6.30015">
        <ele>916.1</ele>
        <time>2021-09-11T09:34:03Z</time>
      </trkpt>
      <trkpt lat="44.06915" lon="6.30016">
        <ele>916.2</ele>
        <time>2021-09-11T09:34:04Z</time>
      </trkpt>
      <trkpt lat="44.06915" lon="6.30016">
        <ele>916.3</ele>
        <time>2021-09-11T09:34:05Z</time>
      </trkpt>
      <trkpt lat="44.06914" lon="6.30016">
        <ele>916.4</ele>
        <time>2021-09-11T09:34:06Z</time>
      </trkpt>
      <trkpt lat="44.06913" lon="6.30016">
        <ele>916.5</ele>
        <time>2021-09-11T09:34:07Z</time>
      </trkpt>
      <trkpt lat="44.06913" lon="6.30017">
        <ele>916.5</ele>
        <time>2021-09-11T09:34:08Z</time>
      </trkpt>
      <trkpt lat="44.06911" lon="6.30018">
        <ele>916.7</ele>
        <time>2021-09-11T09:34:09Z</time>
      </trkpt>
      <trkpt lat="44.0691" lon="6.30019">
        <ele>916.9</ele>
        <time>2021-09-11T09:34:11Z</time>
      </trkpt>
      <trkpt lat="44.0691" lon="6.3002">
        <ele>917</ele>
        <time>2021-09-11T09:34:12Z</time>
      </trkpt>
      <trkpt lat="44.06909" lon="6.30021">
        <ele>917.1</ele>
        <time>2021-09-11T09:34:13Z</time>
      </trkpt>
      <trkpt lat="44.06908" lon="6.30023">
        <ele>917.3</ele>
        <time>2021-09-11T09:34:15Z</time>
      </trkpt>
      <trkpt lat="44.06908" lon="6.30023">
        <ele>917.4</ele>
        <time>2021-09-11T09:34:16Z</time>
      </trkpt>
      <trkpt lat="44.06907" lon="6.30025">
        <ele>917.5</ele>
        <time>2021-09-11T09:34:18Z</time>
      </trkpt>
      <trkpt lat="44.06906" lon="6.30026">
        <ele>917.7</ele>
        <time>2021-09-11T09:34:19Z</time>
      </trkpt>
      <trkpt lat="44.06905" lon="6.3003">
        <ele>918</ele>
        <time>2021-09-11T09:34:20Z</time>
      </trkpt>
      <trkpt lat="44.06903" lon="6.30032">
        <ele>918.2</ele>
        <time>2021-09-11T09:34:22Z</time>
      </trkpt>
      <trkpt lat="44.06903" lon="6.30036">
        <ele>918.6</ele>
        <time>2021-09-11T09:34:23Z</time>
      </trkpt>
      <trkpt lat="44.06902" lon="6.30038">
        <ele>918.7</ele>
        <time>2021-09-11T09:34:24Z</time>
      </trkpt>
      <trkpt lat="44.06901" lon="6.3004">
        <ele>918.9</ele>
        <time>2021-09-11T09:34:25Z</time>
      </trkpt>
      <trkpt lat="44.06901" lon="6.30042">
        <ele>919.1</ele>
        <time>2021-09-11T09:34:27Z</time>
      </trkpt>
      <trkpt lat="44.069" lon="6.30044">
        <ele>919.2</ele>
        <time>2021-09-11T09:34:28Z</time>
      </trkpt>
      <trkpt lat="44.06899" lon="6.30045">
        <ele>919.4</ele>
        <time>2021-09-11T09:34:29Z</time>
      </trkpt>
      <trkpt lat="44.06898" lon="6.30047">
        <ele>919.5</ele>
        <time>2021-09-11T09:34:30Z</time>
      </trkpt>
      <trkpt lat="44.06898" lon="6.30048">
        <ele>919.6</ele>
        <time>2021-09-11T09:34:32Z</time>
      </trkpt>
      <trkpt lat="44.06897" lon="6.30049">
        <ele>919.6</ele>
        <time>2021-09-11T09:34:33Z</time>
      </trkpt>
      <trkpt lat="44.06897" lon="6.30051">
        <ele>919.8</ele>
        <time>2021-09-11T09:34:34Z</time>
      </trkpt>
      <trkpt lat="44.06897" lon="6.30052">
        <ele>919.8</ele>
        <time>2021-09-11T09:34:35Z</time>
      </trkpt>
      <trkpt lat="44.06897" lon="6.30053">
        <ele>919.9</ele>
        <time>2021-09-11T09:34:37Z</time>
      </trkpt>
      <trkpt lat="44.06897" lon="6.30055">
        <ele>920</ele>
        <time>2021-09-11T09:34:38Z</time>
      </trkpt>
      <trkpt lat="44.06896" lon="6.30058">
        <ele>920.2</ele>
        <time>2021-09-11T09:34:40Z</time>
      </trkpt>
      <trkpt lat="44.06896" lon="6.30058">
        <ele>920.2</ele>
        <time>2021-09-11T09:34:41Z</time>
      </trkpt>
      <trkpt lat="44.06896" lon="6.30059">
        <ele>920.3</ele>
        <time>2021-09-11T09:34:42Z</time>
      </trkpt>
      <trkpt lat="44.06895" lon="6.3006">
        <ele>920.3</ele>
        <time>2021-09-11T09:34:43Z</time>
      </trkpt>
      <trkpt lat="44.06895" lon="6.30061">
        <ele>920.4</ele>
        <time>2021-09-11T09:34:44Z</time>
      </trkpt>
      <trkpt lat="44.06895" lon="6.30062">
        <ele>920.5</ele>
        <time>2021-09-11T09:34:46Z</time>
      </trkpt>
      <trkpt lat="44.06895" lon="6.30063">
        <ele>920.5</ele>
        <time>2021-09-11T09:34:48Z</time>
      </trkpt>
      <trkpt lat="44.06895" lon="6.30063">
        <ele>920.5</ele>
        <time>2021-09-11T09:34:49Z</time>
      </trkpt>
      <trkpt lat="44.06895" lon="6.30063">
        <ele>920.6</ele>
        <time>2021-09-11T09:34:50Z</time>
      </trkpt>
      <trkpt lat="44.06894" lon="6.30064">
        <ele>920.6</ele>
        <time>2021-09-11T09:34:52Z</time>
      </trkpt>
      <trkpt lat="44.06894" lon="6.30064">
        <ele>920.6</ele>
        <time>2021-09-11T09:34:53Z</time>
      </trkpt>
      <trkpt lat="44.06894" lon="6.30067">
        <ele>920.8</ele>
        <time>2021-09-11T09:34:55Z</time>
      </trkpt>
      <trkpt lat="44.06889" lon="6.30096">
        <ele>922.7</ele>
        <time>2021-09-11T09:35:57Z</time>
      </trkpt>
      <trkpt lat="44.06886" lon="6.301">
        <ele>923</ele>
        <time>2021-09-11T09:35:58Z</time>
      </trkpt>
      <trkpt lat="44.06885" lon="6.30101">
        <ele>923.1</ele>
        <time>2021-09-11T09:35:59Z</time>
      </trkpt>
      <trkpt lat="44.06884" lon="6.30104">
        <ele>923.4</ele>
        <time>2021-09-11T09:36:01Z</time>
      </trkpt>
      <trkpt lat="44.06882" lon="6.30108">
        <ele>923.7</ele>
        <time>2021-09-11T09:36:02Z</time>
      </trkpt>
      <trkpt lat="44.06881" lon="6.30109">
        <ele>923.8</ele>
        <time>2021-09-11T09:36:03Z</time>
      </trkpt>
      <trkpt lat="44.0688" lon="6.3011">
        <ele>923.9</ele>
        <time>2021-09-11T09:36:05Z</time>
      </trkpt>
      <trkpt lat="44.0688" lon="6.30111">
        <ele>924</ele>
        <time>2021-09-11T09:36:06Z</time>
      </trkpt>
      <trkpt lat="44.06878" lon="6.30111">
        <ele>924.2</ele>
        <time>2021-09-11T09:36:07Z</time>
      </trkpt>
      <trkpt lat="44.06877" lon="6.30111">
        <ele>924.3</ele>
        <time>2021-09-11T09:36:09Z</time>
      </trkpt>
      <trkpt lat="44.06875" lon="6.3011">
        <ele>924.5</ele>
        <time>2021-09-11T09:36:10Z</time>
      </trkpt>
      <trkpt lat="44.06872" lon="6.30111">
        <ele>924.8</ele>
        <time>2021-09-11T09:36:11Z</time>
      </trkpt>
      <trkpt lat="44.0687" lon="6.30111">
        <ele>925</ele>
        <time>2021-09-11T09:36:12Z</time>
      </trkpt>
      <trkpt lat="44.06868" lon="6.30112">
        <ele>925.2</ele>
        <time>2021-09-11T09:36:14Z</time>
      </trkpt>
      <trkpt lat="44.06867" lon="6.30112">
        <ele>925.4</ele>
        <time>2021-09-11T09:36:15Z</time>
      </trkpt>
      <trkpt lat="44.06865" lon="6.30113">
        <ele>925.6</ele>
        <time>2021-09-11T09:36:16Z</time>
      </trkpt>
      <trkpt lat="44.06863" lon="6.30113">
        <ele>925.8</ele>
        <time>2021-09-11T09:36:17Z</time>
      </trkpt>
      <trkpt lat="44.06861" lon="6.30114">
        <ele>925.9</ele>
        <time>2021-09-11T09:36:19Z</time>
      </trkpt>
      <trkpt lat="44.06859" lon="6.30114">
        <ele>926.1</ele>
        <time>2021-09-11T09:36:20Z</time>
      </trkpt>
      <trkpt lat="44.06857" lon="6.30114">
        <ele>926.3</ele>
        <time>2021-09-11T09:36:21Z</time>
      </trkpt>
      <trkpt lat="44.06855" lon="6.30115">
        <ele>926.5</ele>
        <time>2021-09-11T09:36:30Z</time>
      </trkpt>
      <trkpt lat="44.06854" lon="6.30115">
        <ele>926.7</ele>
        <time>2021-09-11T09:36:31Z</time>
      </trkpt>
      <trkpt lat="44.06852" lon="6.30116">
        <ele>926.8</ele>
        <time>2021-09-11T09:36:32Z</time>
      </trkpt>
      <trkpt lat="44.06848" lon="6.30116">
        <ele>927.2</ele>
        <time>2021-09-11T09:36:34Z</time>
      </trkpt>
      <trkpt lat="44.06847" lon="6.30116">
        <ele>927.3</ele>
        <time>2021-09-11T09:36:35Z</time>
      </trkpt>
      <trkpt lat="44.06844" lon="6.30117">
        <ele>927.6</ele>
        <time>2021-09-11T09:36:36Z</time>
      </trkpt>
      <trkpt lat="44.06842" lon="6.30117">
        <ele>927.8</ele>
        <time>2021-09-11T09:36:38Z</time>
      </trkpt>
      <trkpt lat="44.06839" lon="6.30118">
        <ele>928.1</ele>
        <time>2021-09-11T09:36:40Z</time>
      </trkpt>
      <trkpt lat="44.06838" lon="6.30118">
        <ele>928.2</ele>
        <time>2021-09-11T09:36:41Z</time>
      </trkpt>
      <trkpt lat="44.06836" lon="6.30119">
        <ele>928.4</ele>
        <time>2021-09-11T09:36:42Z</time>
      </trkpt>
      <trkpt lat="44.06834" lon="6.30119">
        <ele>928.6</ele>
        <time>2021-09-11T09:36:43Z</time>
      </trkpt>
      <trkpt lat="44.06833" lon="6.3012">
        <ele>928.7</ele>
        <time>2021-09-11T09:36:45Z</time>
      </trkpt>
      <trkpt lat="44.06832" lon="6.30121">
        <ele>928.9</ele>
        <time>2021-09-11T09:36:46Z</time>
      </trkpt>
      <trkpt lat="44.06831" lon="6.30123">
        <ele>929.1</ele>
        <time>2021-09-11T09:36:48Z</time>
      </trkpt>
      <trkpt lat="44.0683" lon="6.30124">
        <ele>929.2</ele>
        <time>2021-09-11T09:36:49Z</time>
      </trkpt>
      <trkpt lat="44.0683" lon="6.30125">
        <ele>929.3</ele>
        <time>2021-09-11T09:36:50Z</time>
      </trkpt>
      <trkpt lat="44.0683" lon="6.30126">
        <ele>929.3</ele>
        <time>2021-09-11T09:36:52Z</time>
      </trkpt>
      <trkpt lat="44.0683" lon="6.30127">
        <ele>929.4</ele>
        <time>2021-09-11T09:36:53Z</time>
      </trkpt>
      <trkpt lat="44.0683" lon="6.3013">
        <ele>929.6</ele>
        <time>2021-09-11T09:36:54Z</time>
      </trkpt>
      <trkpt lat="44.0683" lon="6.30132">
        <ele>929.7</ele>
        <time>2021-09-11T09:36:56Z</time>
      </trkpt>
      <trkpt lat="44.0683" lon="6.30134">
        <ele>929.9</ele>
        <time>2021-09-11T09:36:57Z</time>
      </trkpt>
      <trkpt lat="44.0683" lon="6.30136">
        <ele>930</ele>
        <time>2021-09-11T09:36:58Z</time>
      </trkpt>
      <trkpt lat="44.06831" lon="6.30138">
        <ele>930.2</ele>
        <time>2021-09-11T09:36:59Z</time>
      </trkpt>
      <trkpt lat="44.06831" lon="6.30141">
        <ele>930.4</ele>
        <time>2021-09-11T09:37:01Z</time>
      </trkpt>
      <trkpt lat="44.06832" lon="6.30145">
        <ele>930.6</ele>
        <time>2021-09-11T09:37:03Z</time>
      </trkpt>
      <trkpt lat="44.06832" lon="6.30147">
        <ele>930.8</ele>
        <time>2021-09-11T09:37:04Z</time>
      </trkpt>
      <trkpt lat="44.06832" lon="6.30148">
        <ele>930.9</ele>
        <time>2021-09-11T09:37:05Z</time>
      </trkpt>
      <trkpt lat="44.06832" lon="6.30149">
        <ele>931</ele>
        <time>2021-09-11T09:37:07Z</time>
      </trkpt>
      <trkpt lat="44.06833" lon="6.30151">
        <ele>931.1</ele>
        <time>2021-09-11T09:37:08Z</time>
      </trkpt>
      <trkpt lat="44.06833" lon="6.30153">
        <ele>931.3</ele>
        <time>2021-09-11T09:37:09Z</time>
      </trkpt>
      <trkpt lat="44.06833" lon="6.30155">
        <ele>931.4</ele>
        <time>2021-09-11T09:37:10Z</time>
      </trkpt>
      <trkpt lat="44.06833" lon="6.30155">
        <ele>931.4</ele>
        <time>2021-09-11T09:37:12Z</time>
      </trkpt>
      <trkpt lat="44.06833" lon="6.30156">
        <ele>931.5</ele>
        <time>2021-09-11T09:37:14Z</time>
      </trkpt>
      <trkpt lat="44.06833" lon="6.30156">
        <ele>931.5</ele>
        <time>2021-09-11T09:37:15Z</time>
      </trkpt>
      <trkpt lat="44.06833" lon="6.30156">
        <ele>931.5</ele>
        <time>2021-09-11T09:37:16Z</time>
      </trkpt>
      <trkpt lat="44.06833" lon="6.30156">
        <ele>931.5</ele>
        <time>2021-09-11T09:37:18Z</time>
      </trkpt>
      <trkpt lat="44.06832" lon="6.30157">
        <ele>931.5</ele>
        <time>2021-09-11T09:37:19Z</time>
      </trkpt>
      <trkpt lat="44.06832" lon="6.30157">
        <ele>931.5</ele>
        <time>2021-09-11T09:37:20Z</time>
      </trkpt>
      <trkpt lat="44.06833" lon="6.30157">
        <ele>931.5</ele>
        <time>2021-09-11T09:37:22Z</time>
      </trkpt>
      <trkpt lat="44.06832" lon="6.30157">
        <ele>931.6</ele>
        <time>2021-09-11T09:37:23Z</time>
      </trkpt>
      <trkpt lat="44.06828" lon="6.30162">
        <ele>932.1</ele>
        <time>2021-09-11T09:37:24Z</time>
      </trkpt>
      <trkpt lat="44.06826" lon="6.30166">
        <ele>932.5</ele>
        <time>2021-09-11T09:37:31Z</time>
      </trkpt>
      <trkpt lat="44.06823" lon="6.3017">
        <ele>932.9</ele>
        <time>2021-09-11T09:37:33Z</time>
      </trkpt>
      <trkpt lat="44.0682" lon="6.30174">
        <ele>933.3</ele>
        <time>2021-09-11T09:37:34Z</time>
      </trkpt>
      <trkpt lat="44.06819" lon="6.30178">
        <ele>933.6</ele>
        <time>2021-09-11T09:37:35Z</time>
      </trkpt>
      <trkpt lat="44.06819" lon="6.3018">
        <ele>933.7</ele>
        <time>2021-09-11T09:37:36Z</time>
      </trkpt>
      <trkpt lat="44.06818" lon="6.30184">
        <ele>934</ele>
        <time>2021-09-11T09:37:38Z</time>
      </trkpt>
      <trkpt lat="44.06817" lon="6.30186">
        <ele>934.2</ele>
        <time>2021-09-11T09:37:39Z</time>
      </trkpt>
      <trkpt lat="44.06816" lon="6.30188">
        <ele>934.3</ele>
        <time>2021-09-11T09:37:41Z</time>
      </trkpt>
      <trkpt lat="44.06815" lon="6.3019">
        <ele>934.5</ele>
        <time>2021-09-11T09:37:42Z</time>
      </trkpt>
      <trkpt lat="44.06814" lon="6.30192">
        <ele>934.7</ele>
        <time>2021-09-11T09:37:43Z</time>
      </trkpt>
      <trkpt lat="44.06813" lon="6.30194">
        <ele>934.9</ele>
        <time>2021-09-11T09:37:45Z</time>
      </trkpt>
      <trkpt lat="44.06812" lon="6.30196">
        <ele>935</ele>
        <time>2021-09-11T09:37:46Z</time>
      </trkpt>
      <trkpt lat="44.06811" lon="6.30199">
        <ele>935.2</ele>
        <time>2021-09-11T09:37:47Z</time>
      </trkpt>
      <trkpt lat="44.0681" lon="6.30201">
        <ele>935.4</ele>
        <time>2021-09-11T09:37:49Z</time>
      </trkpt>
      <trkpt lat="44.0681" lon="6.30203">
        <ele>935.6</ele>
        <time>2021-09-11T09:37:51Z</time>
      </trkpt>
      <trkpt lat="44.06809" lon="6.30205">
        <ele>935.7</ele>
        <time>2021-09-11T09:38:01Z</time>
      </trkpt>
      <trkpt lat="44.06808" lon="6.30207">
        <ele>935.9</ele>
        <time>2021-09-11T09:38:02Z</time>
      </trkpt>
      <trkpt lat="44.06807" lon="6.30209">
        <ele>936.1</ele>
        <time>2021-09-11T09:38:03Z</time>
      </trkpt>
      <trkpt lat="44.06806" lon="6.30211">
        <ele>936.2</ele>
        <time>2021-09-11T09:38:04Z</time>
      </trkpt>
      <trkpt lat="44.06805" lon="6.30212">
        <ele>936.3</ele>
        <time>2021-09-11T09:38:05Z</time>
      </trkpt>
      <trkpt lat="44.06805" lon="6.30213">
        <ele>936.4</ele>
        <time>2021-09-11T09:38:06Z</time>
      </trkpt>
      <trkpt lat="44.06806" lon="6.30214">
        <ele>936.5</ele>
        <time>2021-09-11T09:38:07Z</time>
      </trkpt>
      <trkpt lat="44.06806" lon="6.30214">
        <ele>936.5</ele>
        <time>2021-09-11T09:38:08Z</time>
      </trkpt>
      <trkpt lat="44.06806" lon="6.30214">
        <ele>936.6</ele>
        <time>2021-09-11T09:38:10Z</time>
      </trkpt>
      <trkpt lat="44.06806" lon="6.30215">
        <ele>936.7</ele>
        <time>2021-09-11T09:38:11Z</time>
      </trkpt>
      <trkpt lat="44.06806" lon="6.30216">
        <ele>936.7</ele>
        <time>2021-09-11T09:38:12Z</time>
      </trkpt>
      <trkpt lat="44.06805" lon="6.30217">
        <ele>936.8</ele>
        <time>2021-09-11T09:38:13Z</time>
      </trkpt>
      <trkpt lat="44.06805" lon="6.30218">
        <ele>936.9</ele>
        <time>2021-09-11T09:38:15Z</time>
      </trkpt>
      <trkpt lat="44.06801" lon="6.3023">
        <ele>937.9</ele>
        <time>2021-09-11T09:38:19Z</time>
      </trkpt>
      <trkpt lat="44.06799" lon="6.30235">
        <ele>938.2</ele>
        <time>2021-09-11T09:38:21Z</time>
      </trkpt>
      <trkpt lat="44.06799" lon="6.30236">
        <ele>938.3</ele>
        <time>2021-09-11T09:38:22Z</time>
      </trkpt>
      <trkpt lat="44.06797" lon="6.30238">
        <ele>938.6</ele>
        <time>2021-09-11T09:38:24Z</time>
      </trkpt>
      <trkpt lat="44.06795" lon="6.3024">
        <ele>938.9</ele>
        <time>2021-09-11T09:38:26Z</time>
      </trkpt>
      <trkpt lat="44.06792" lon="6.3024">
        <ele>939.1</ele>
        <time>2021-09-11T09:38:27Z</time>
      </trkpt>
      <trkpt lat="44.06791" lon="6.3024">
        <ele>939.2</ele>
        <time>2021-09-11T09:38:28Z</time>
      </trkpt>
      <trkpt lat="44.0679" lon="6.30241">
        <ele>939.4</ele>
        <time>2021-09-11T09:38:30Z</time>
      </trkpt>
      <trkpt lat="44.06789" lon="6.30242">
        <ele>939.5</ele>
        <time>2021-09-11T09:38:31Z</time>
      </trkpt>
      <trkpt lat="44.06787" lon="6.30244">
        <ele>939.7</ele>
        <time>2021-09-11T09:38:32Z</time>
      </trkpt>
      <trkpt lat="44.06786" lon="6.30246">
        <ele>939.9</ele>
        <time>2021-09-11T09:38:34Z</time>
      </trkpt>
      <trkpt lat="44.06786" lon="6.30246">
        <ele>939.9</ele>
        <time>2021-09-11T09:38:35Z</time>
      </trkpt>
      <trkpt lat="44.06785" lon="6.30248">
        <ele>940.1</ele>
        <time>2021-09-11T09:38:36Z</time>
      </trkpt>
      <trkpt lat="44.06784" lon="6.30249">
        <ele>940.2</ele>
        <time>2021-09-11T09:38:38Z</time>
      </trkpt>
      <trkpt lat="44.06783" lon="6.3025">
        <ele>940.3</ele>
        <time>2021-09-11T09:38:39Z</time>
      </trkpt>
      <trkpt lat="44.06781" lon="6.30251">
        <ele>940.5</ele>
        <time>2021-09-11T09:38:40Z</time>
      </trkpt>
      <trkpt lat="44.06779" lon="6.30252">
        <ele>940.7</ele>
        <time>2021-09-11T09:38:42Z</time>
      </trkpt>
      <trkpt lat="44.06778" lon="6.30252">
        <ele>940.7</ele>
        <time>2021-09-11T09:38:43Z</time>
      </trkpt>
      <trkpt lat="44.06778" lon="6.30252">
        <ele>940.8</ele>
        <time>2021-09-11T09:38:44Z</time>
      </trkpt>
      <trkpt lat="44.06777" lon="6.30251">
        <ele>940.9</ele>
        <time>2021-09-11T09:38:46Z</time>
      </trkpt>
      <trkpt lat="44.06777" lon="6.30251">
        <ele>940.9</ele>
        <time>2021-09-11T09:38:47Z</time>
      </trkpt>
      <trkpt lat="44.06777" lon="6.30251">
        <ele>941</ele>
        <time>2021-09-11T09:38:48Z</time>
      </trkpt>
      <trkpt lat="44.06776" lon="6.30251">
        <ele>941</ele>
        <time>2021-09-11T09:38:49Z</time>
      </trkpt>
      <trkpt lat="44.06776" lon="6.3025">
        <ele>941</ele>
        <time>2021-09-11T09:38:51Z</time>
      </trkpt>
      <trkpt lat="44.06775" lon="6.3025">
        <ele>941.1</ele>
        <time>2021-09-11T09:38:52Z</time>
      </trkpt>
      <trkpt lat="44.06775" lon="6.30251">
        <ele>941.2</ele>
        <time>2021-09-11T09:38:53Z</time>
      </trkpt>
      <trkpt lat="44.06773" lon="6.30251">
        <ele>941.3</ele>
        <time>2021-09-11T09:38:55Z</time>
      </trkpt>
      <trkpt lat="44.06772" lon="6.30251">
        <ele>941.4</ele>
        <time>2021-09-11T09:38:56Z</time>
      </trkpt>
      <trkpt lat="44.06772" lon="6.3025">
        <ele>941.5</ele>
        <time>2021-09-11T09:38:57Z</time>
      </trkpt>
      <trkpt lat="44.06771" lon="6.30251">
        <ele>941.5</ele>
        <time>2021-09-11T09:38:59Z</time>
      </trkpt>
      <trkpt lat="44.06758" lon="6.30294">
        <ele>944.9</ele>
        <time>2021-09-11T09:40:21Z</time>
      </trkpt>
      <trkpt lat="44.06755" lon="6.30296">
        <ele>945.3</ele>
        <time>2021-09-11T09:40:23Z</time>
      </trkpt>
      <trkpt lat="44.06753" lon="6.30298">
        <ele>945.5</ele>
        <time>2021-09-11T09:40:24Z</time>
      </trkpt>
      <trkpt lat="44.0675" lon="6.303">
        <ele>945.7</ele>
        <time>2021-09-11T09:40:25Z</time>
      </trkpt>
      <trkpt lat="44.06749" lon="6.30301">
        <ele>945.9</ele>
        <time>2021-09-11T09:40:27Z</time>
      </trkpt>
      <trkpt lat="44.06747" lon="6.30301">
        <ele>946</ele>
        <time>2021-09-11T09:40:28Z</time>
      </trkpt>
      <trkpt lat="44.06743" lon="6.30304">
        <ele>946.4</ele>
        <time>2021-09-11T09:40:30Z</time>
      </trkpt>
      <trkpt lat="44.06742" lon="6.30304">
        <ele>946.5</ele>
        <time>2021-09-11T09:40:31Z</time>
      </trkpt>
      <trkpt lat="44.06741" lon="6.30305">
        <ele>946.6</ele>
        <time>2021-09-11T09:40:32Z</time>
      </trkpt>
      <trkpt lat="44.06738" lon="6.30306">
        <ele>946.8</ele>
        <time>2021-09-11T09:40:34Z</time>
      </trkpt>
      <trkpt lat="44.06734" lon="6.30306">
        <ele>947.1</ele>
        <time>2021-09-11T09:40:36Z</time>
      </trkpt>
      <trkpt lat="44.0673" lon="6.30305">
        <ele>947.3</ele>
        <time>2021-09-11T09:40:37Z</time>
      </trkpt>
      <trkpt lat="44.06727" lon="6.30304">
        <ele>947.5</ele>
        <time>2021-09-11T09:40:39Z</time>
      </trkpt>
      <trkpt lat="44.06726" lon="6.30304">
        <ele>947.6</ele>
        <time>2021-09-11T09:40:40Z</time>
      </trkpt>
      <trkpt lat="44.06722" lon="6.30303">
        <ele>947.8</ele>
        <time>2021-09-11T09:40:41Z</time>
      </trkpt>
      <trkpt lat="44.06721" lon="6.30303">
        <ele>947.8</ele>
        <time>2021-09-11T09:40:42Z</time>
      </trkpt>
      <trkpt lat="44.06718" lon="6.30302">
        <ele>947.9</ele>
        <time>2021-09-11T09:40:43Z</time>
      </trkpt>
      <trkpt lat="44.06717" lon="6.30302">
        <ele>948</ele>
        <time>2021-09-11T09:40:45Z</time>
      </trkpt>
      <trkpt lat="44.06716" lon="6.30301">
        <ele>948</ele>
        <time>2021-09-11T09:40:46Z</time>
      </trkpt>
      <trkpt lat="44.06714" lon="6.30299">
        <ele>948.1</ele>
        <time>2021-09-11T09:40:48Z</time>
      </trkpt>
      <trkpt lat="44.06711" lon="6.30297">
        <ele>948.1</ele>
        <time>2021-09-11T09:40:49Z</time>
      </trkpt>
      <trkpt lat="44.06705" lon="6.30294">
        <ele>948.2</ele>
        <time>2021-09-11T09:40:51Z</time>
      </trkpt>
      <trkpt lat="44.06699" lon="6.30293">
        <ele>948.2</ele>
        <time>2021-09-11T09:40:52Z</time>
      </trkpt>
      <trkpt lat="44.06693" lon="6.30294">
        <ele>948.2</ele>
        <time>2021-09-11T09:40:54Z</time>
      </trkpt>
      <trkpt lat="44.06686" lon="6.30297">
        <ele>948.3</ele>
        <time>2021-09-11T09:40:55Z</time>
      </trkpt>
      <trkpt lat="44.06681" lon="6.30301">
        <ele>948.5</ele>
        <time>2021-09-11T09:40:57Z</time>
      </trkpt>
      <trkpt lat="44.06675" lon="6.30307">
        <ele>948.7</ele>
        <time>2021-09-11T09:40:58Z</time>
      </trkpt>
      <trkpt lat="44.06671" lon="6.30313">
        <ele>949</ele>
        <time>2021-09-11T09:41:00Z</time>
      </trkpt>
      <trkpt lat="44.06667" lon="6.30318">
        <ele>949.3</ele>
        <time>2021-09-11T09:41:01Z</time>
      </trkpt>
      <trkpt lat="44.06664" lon="6.30323">
        <ele>949.6</ele>
        <time>2021-09-11T09:41:03Z</time>
      </trkpt>
      <trkpt lat="44.06661" lon="6.30329">
        <ele>949.9</ele>
        <time>2021-09-11T09:41:05Z</time>
      </trkpt>
      <trkpt lat="44.06661" lon="6.30333">
        <ele>950</ele>
        <time>2021-09-11T09:41:06Z</time>
      </trkpt>
      <trkpt lat="44.0666" lon="6.30336">
        <ele>950.2</ele>
        <time>2021-09-11T09:41:08Z</time>
      </trkpt>
      <trkpt lat="44.06659" lon="6.30341">
        <ele>950.5</ele>
        <time>2021-09-11T09:41:10Z</time>
      </trkpt>
      <trkpt lat="44.06657" lon="6.30345">
        <ele>950.8</ele>
        <time>2021-09-11T09:41:11Z</time>
      </trkpt>
      <trkpt lat="44.06656" lon="6.3035">
        <ele>951.1</ele>
        <time>2021-09-11T09:41:13Z</time>
      </trkpt>
      <trkpt lat="44.06655" lon="6.30354">
        <ele>951.3</ele>
        <time>2021-09-11T09:41:15Z</time>
      </trkpt>
      <trkpt lat="44.06653" lon="6.30358">
        <ele>951.6</ele>
        <time>2021-09-11T09:41:16Z</time>
      </trkpt>
      <trkpt lat="44.06652" lon="6.30362">
        <ele>951.8</ele>
        <time>2021-09-11T09:41:18Z</time>
      </trkpt>
      <trkpt lat="44.06652" lon="6.30364">
        <ele>951.9</ele>
        <time>2021-09-11T09:41:19Z</time>
      </trkpt>
      <trkpt lat="44.06651" lon="6.30366">
        <ele>952.1</ele>
        <time>2021-09-11T09:41:20Z</time>
      </trkpt>
      <trkpt lat="44.0665" lon="6.30368">
        <ele>952.2</ele>
        <time>2021-09-11T09:41:22Z</time>
      </trkpt>
      <trkpt lat="44.06647" lon="6.30371">
        <ele>952.5</ele>
        <time>2021-09-11T09:41:24Z</time>
      </trkpt>
      <trkpt lat="44.06645" lon="6.30375">
        <ele>952.7</ele>
        <time>2021-09-11T09:41:25Z</time>
      </trkpt>
      <trkpt lat="44.06644" lon="6.30377">
        <ele>952.9</ele>
        <time>2021-09-11T09:41:26Z</time>
      </trkpt>
      <trkpt lat="44.06641" lon="6.3038">
        <ele>953.2</ele>
        <time>2021-09-11T09:41:28Z</time>
      </trkpt>
      <trkpt lat="44.06639" lon="6.30382">
        <ele>953.4</ele>
        <time>2021-09-11T09:41:29Z</time>
      </trkpt>
      <trkpt lat="44.06637" lon="6.30385">
        <ele>953.6</ele>
        <time>2021-09-11T09:41:31Z</time>
      </trkpt>
      <trkpt lat="44.06633" lon="6.30388">
        <ele>953.9</ele>
        <time>2021-09-11T09:41:32Z</time>
      </trkpt>
      <trkpt lat="44.06629" lon="6.3039">
        <ele>954.2</ele>
        <time>2021-09-11T09:41:34Z</time>
      </trkpt>
      <trkpt lat="44.06626" lon="6.30391">
        <ele>954.5</ele>
        <time>2021-09-11T09:41:35Z</time>
      </trkpt>
      <trkpt lat="44.06624" lon="6.30392">
        <ele>954.7</ele>
        <time>2021-09-11T09:41:37Z</time>
      </trkpt>
      <trkpt lat="44.06622" lon="6.30392">
        <ele>954.8</ele>
        <time>2021-09-11T09:41:38Z</time>
      </trkpt>
      <trkpt lat="44.0662" lon="6.30393">
        <ele>955</ele>
        <time>2021-09-11T09:41:39Z</time>
      </trkpt>
      <trkpt lat="44.06616" lon="6.30395">
        <ele>955.3</ele>
        <time>2021-09-11T09:41:41Z</time>
      </trkpt>
      <trkpt lat="44.06615" lon="6.30396">
        <ele>955.4</ele>
        <time>2021-09-11T09:41:43Z</time>
      </trkpt>
      <trkpt lat="44.06614" lon="6.30397">
        <ele>955.5</ele>
        <time>2021-09-11T09:41:44Z</time>
      </trkpt>
      <trkpt lat="44.06612" lon="6.30401">
        <ele>955.8</ele>
        <time>2021-09-11T09:41:46Z</time>
      </trkpt>
      <trkpt lat="44.06612" lon="6.30403">
        <ele>955.9</ele>
        <time>2021-09-11T09:41:47Z</time>
      </trkpt>
      <trkpt lat="44.0661" lon="6.30406">
        <ele>956.1</ele>
        <time>2021-09-11T09:41:48Z</time>
      </trkpt>
      <trkpt lat="44.06609" lon="6.3041">
        <ele>956.3</ele>
        <time>2021-09-11T09:41:50Z</time>
      </trkpt>
      <trkpt lat="44.06608" lon="6.30413">
        <ele>956.6</ele>
        <time>2021-09-11T09:41:51Z</time>
      </trkpt>
      <trkpt lat="44.06606" lon="6.30419">
        <ele>957</ele>
        <time>2021-09-11T09:41:53Z</time>
      </trkpt>
      <trkpt lat="44.06606" lon="6.30421">
        <ele>957.2</ele>
        <time>2021-09-11T09:41:54Z</time>
      </trkpt>
      <trkpt lat="44.06605" lon="6.30423">
        <ele>957.3</ele>
        <time>2021-09-11T09:41:55Z</time>
      </trkpt>
      <trkpt lat="44.06604" lon="6.30427">
        <ele>957.6</ele>
        <time>2021-09-11T09:41:56Z</time>
      </trkpt>
      <trkpt lat="44.06603" lon="6.3043">
        <ele>957.9</ele>
        <time>2021-09-11T09:41:58Z</time>
      </trkpt>
      <trkpt lat="44.06603" lon="6.30433">
        <ele>958.6</ele>
        <time>2021-09-11T09:42:00Z</time>
      </trkpt>
      <trkpt lat="44.06602" lon="6.30436">
        <ele>958.6</ele>
        <time>2021-09-11T09:42:01Z</time>
      </trkpt>
      <trkpt lat="44.06602" lon="6.30438">
        <ele>958.6</ele>
        <time>2021-09-11T09:42:02Z</time>
      </trkpt>
      <trkpt lat="44.06601" lon="6.30442">
        <ele>958.7</ele>
        <time>2021-09-11T09:42:03Z</time>
      </trkpt>
      <trkpt lat="44.06599" lon="6.30445">
        <ele>958.7</ele>
        <time>2021-09-11T09:42:05Z</time>
      </trkpt>
      <trkpt lat="44.06598" lon="6.30447">
        <ele>958.7</ele>
        <time>2021-09-11T09:42:06Z</time>
      </trkpt>
      <trkpt lat="44.06598" lon="6.3045">
        <ele>958.8</ele>
        <time>2021-09-11T09:42:08Z</time>
      </trkpt>
      <trkpt lat="44.06598" lon="6.30455">
        <ele>958.9</ele>
        <time>2021-09-11T09:42:10Z</time>
      </trkpt>
      <trkpt lat="44.06598" lon="6.3046">
        <ele>958.9</ele>
        <time>2021-09-11T09:42:11Z</time>
      </trkpt>
      <trkpt lat="44.06598" lon="6.30461">
        <ele>959</ele>
        <time>2021-09-11T09:42:12Z</time>
      </trkpt>
      <trkpt lat="44.06597" lon="6.30464">
        <ele>959.3</ele>
        <time>2021-09-11T09:42:13Z</time>
      </trkpt>
      <trkpt lat="44.06596" lon="6.30468">
        <ele>959.4</ele>
        <time>2021-09-11T09:42:15Z</time>
      </trkpt>
      <trkpt lat="44.06596" lon="6.3047">
        <ele>959.5</ele>
        <time>2021-09-11T09:42:16Z</time>
      </trkpt>
      <trkpt lat="44.06595" lon="6.30472">
        <ele>959.6</ele>
        <time>2021-09-11T09:42:17Z</time>
      </trkpt>
      <trkpt lat="44.06595" lon="6.30476">
        <ele>959.7</ele>
        <time>2021-09-11T09:42:18Z</time>
      </trkpt>
      <trkpt lat="44.06595" lon="6.30477">
        <ele>959.8</ele>
        <time>2021-09-11T09:42:19Z</time>
      </trkpt>
      <trkpt lat="44.06596" lon="6.30478">
        <ele>959.8</ele>
        <time>2021-09-11T09:42:20Z</time>
      </trkpt>
      <trkpt lat="44.06597" lon="6.30481">
        <ele>959.9</ele>
        <time>2021-09-11T09:42:22Z</time>
      </trkpt>
      <trkpt lat="44.06597" lon="6.30482">
        <ele>960</ele>
        <time>2021-09-11T09:42:23Z</time>
      </trkpt>
      <trkpt lat="44.06597" lon="6.30483">
        <ele>960</ele>
        <time>2021-09-11T09:42:24Z</time>
      </trkpt>
      <trkpt lat="44.06599" lon="6.30486">
        <ele>960.1</ele>
        <time>2021-09-11T09:42:25Z</time>
      </trkpt>
      <trkpt lat="44.06601" lon="6.30488">
        <ele>960.3</ele>
        <time>2021-09-11T09:42:27Z</time>
      </trkpt>
      <trkpt lat="44.06603" lon="6.30492">
        <ele>960.4</ele>
        <time>2021-09-11T09:42:28Z</time>
      </trkpt>
      <trkpt lat="44.06603" lon="6.30493">
        <ele>960.5</ele>
        <time>2021-09-11T09:42:29Z</time>
      </trkpt>
      <trkpt lat="44.06603" lon="6.30495">
        <ele>960.6</ele>
        <time>2021-09-11T09:42:30Z</time>
      </trkpt>
      <trkpt lat="44.06604" lon="6.30498">
        <ele>960.7</ele>
        <time>2021-09-11T09:42:32Z</time>
      </trkpt>
      <trkpt lat="44.06605" lon="6.305">
        <ele>960.8</ele>
        <time>2021-09-11T09:42:33Z</time>
      </trkpt>
      <trkpt lat="44.06608" lon="6.30504">
        <ele>961</ele>
        <time>2021-09-11T09:42:35Z</time>
      </trkpt>
      <trkpt lat="44.06609" lon="6.30508">
        <ele>961.2</ele>
        <time>2021-09-11T09:42:36Z</time>
      </trkpt>
      <trkpt lat="44.0661" lon="6.30509">
        <ele>961.3</ele>
        <time>2021-09-11T09:42:37Z</time>
      </trkpt>
      <trkpt lat="44.06612" lon="6.30512">
        <ele>961.5</ele>
        <time>2021-09-11T09:42:39Z</time>
      </trkpt>
      <trkpt lat="44.06612" lon="6.30513">
        <ele>961.5</ele>
        <time>2021-09-11T09:42:40Z</time>
      </trkpt>
      <trkpt lat="44.06613" lon="6.30517">
        <ele>961.7</ele>
        <time>2021-09-11T09:42:41Z</time>
      </trkpt>
      <trkpt lat="44.06613" lon="6.30519">
        <ele>961.8</ele>
        <time>2021-09-11T09:42:42Z</time>
      </trkpt>
      <trkpt lat="44.06613" lon="6.3052">
        <ele>961.9</ele>
        <time>2021-09-11T09:42:44Z</time>
      </trkpt>
      <trkpt lat="44.06613" lon="6.30522">
        <ele>961.9</ele>
        <time>2021-09-11T09:42:45Z</time>
      </trkpt>
      <trkpt lat="44.06613" lon="6.30523">
        <ele>962</ele>
        <time>2021-09-11T09:42:46Z</time>
      </trkpt>
      <trkpt lat="44.06613" lon="6.30525">
        <ele>962.1</ele>
        <time>2021-09-11T09:42:47Z</time>
      </trkpt>
      <trkpt lat="44.06612" lon="6.30528">
        <ele>962.3</ele>
        <time>2021-09-11T09:42:49Z</time>
      </trkpt>
      <trkpt lat="44.06611" lon="6.30532">
        <ele>962.5</ele>
        <time>2021-09-11T09:42:50Z</time>
      </trkpt>
      <trkpt lat="44.06609" lon="6.30534">
        <ele>962.7</ele>
        <time>2021-09-11T09:42:52Z</time>
      </trkpt>
      <trkpt lat="44.06608" lon="6.30535">
        <ele>962.8</ele>
        <time>2021-09-11T09:42:53Z</time>
      </trkpt>
      <trkpt lat="44.06606" lon="6.30536">
        <ele>963</ele>
        <time>2021-09-11T09:42:54Z</time>
      </trkpt>
      <trkpt lat="44.06606" lon="6.30536">
        <ele>963.1</ele>
        <time>2021-09-11T09:42:55Z</time>
      </trkpt>
      <trkpt lat="44.06605" lon="6.30537">
        <ele>963.1</ele>
        <time>2021-09-11T09:42:57Z</time>
      </trkpt>
      <trkpt lat="44.06603" lon="6.30542">
        <ele>963.5</ele>
        <time>2021-09-11T09:42:59Z</time>
      </trkpt>
      <trkpt lat="44.06601" lon="6.30545">
        <ele>963.8</ele>
        <time>2021-09-11T09:43:00Z</time>
      </trkpt>
      <trkpt lat="44.06598" lon="6.30549">
        <ele>964</ele>
        <time>2021-09-11T09:43:02Z</time>
      </trkpt>
      <trkpt lat="44.06597" lon="6.3055">
        <ele>964.2</ele>
        <time>2021-09-11T09:43:03Z</time>
      </trkpt>
      <trkpt lat="44.06596" lon="6.30554">
        <ele>964.4</ele>
        <time>2021-09-11T09:43:05Z</time>
      </trkpt>
      <trkpt lat="44.06596" lon="6.30556">
        <ele>964.5</ele>
        <time>2021-09-11T09:43:06Z</time>
      </trkpt>
      <trkpt lat="44.06595" lon="6.30558">
        <ele>964.7</ele>
        <time>2021-09-11T09:43:07Z</time>
      </trkpt>
      <trkpt lat="44.06595" lon="6.3056">
        <ele>964.8</ele>
        <time>2021-09-11T09:43:08Z</time>
      </trkpt>
      <trkpt lat="44.06594" lon="6.30563">
        <ele>965</ele>
        <time>2021-09-11T09:43:09Z</time>
      </trkpt>
      <trkpt lat="44.06594" lon="6.30565">
        <ele>965.1</ele>
        <time>2021-09-11T09:43:11Z</time>
      </trkpt>
      <trkpt lat="44.06592" lon="6.30569">
        <ele>965.4</ele>
        <time>2021-09-11T09:43:13Z</time>
      </trkpt>
      <trkpt lat="44.06591" lon="6.3057">
        <ele>965.5</ele>
        <time>2021-09-11T09:43:14Z</time>
      </trkpt>
      <trkpt lat="44.06589" lon="6.30575">
        <ele>965.9</ele>
        <time>2021-09-11T09:43:16Z</time>
      </trkpt>
      <trkpt lat="44.06588" lon="6.30578">
        <ele>966.1</ele>
        <time>2021-09-11T09:43:17Z</time>
      </trkpt>
      <trkpt lat="44.06587" lon="6.30579">
        <ele>966.2</ele>
        <time>2021-09-11T09:43:18Z</time>
      </trkpt>
      <trkpt lat="44.06587" lon="6.30581">
        <ele>966.3</ele>
        <time>2021-09-11T09:43:19Z</time>
      </trkpt>
      <trkpt lat="44.06584" lon="6.30584">
        <ele>966.6</ele>
        <time>2021-09-11T09:43:21Z</time>
      </trkpt>
      <trkpt lat="44.06584" lon="6.30584">
        <ele>966.6</ele>
        <time>2021-09-11T09:43:22Z</time>
      </trkpt>
      <trkpt lat="44.06583" lon="6.30585">
        <ele>966.7</ele>
        <time>2021-09-11T09:43:24Z</time>
      </trkpt>
      <trkpt lat="44.06583" lon="6.30585">
        <ele>966.7</ele>
        <time>2021-09-11T09:43:25Z</time>
      </trkpt>
      <trkpt lat="44.06582" lon="6.30586">
        <ele>966.8</ele>
        <time>2021-09-11T09:43:26Z</time>
      </trkpt>
      <trkpt lat="44.06582" lon="6.30587">
        <ele>966.9</ele>
        <time>2021-09-11T09:43:27Z</time>
      </trkpt>
      <trkpt lat="44.06581" lon="6.30588">
        <ele>967</ele>
        <time>2021-09-11T09:43:29Z</time>
      </trkpt>
      <trkpt lat="44.0658" lon="6.30589">
        <ele>967.1</ele>
        <time>2021-09-11T09:43:30Z</time>
      </trkpt>
      <trkpt lat="44.06579" lon="6.30591">
        <ele>967.2</ele>
        <time>2021-09-11T09:43:32Z</time>
      </trkpt>
      <trkpt lat="44.06576" lon="6.30603">
        <ele>968</ele>
        <time>2021-09-11T09:43:40Z</time>
      </trkpt>
      <trkpt lat="44.06576" lon="6.30606">
        <ele>968.2</ele>
        <time>2021-09-11T09:43:41Z</time>
      </trkpt>
      <trkpt lat="44.06575" lon="6.30613">
        <ele>968.6</ele>
        <time>2021-09-11T09:43:43Z</time>
      </trkpt>
      <trkpt lat="44.06575" lon="6.30617">
        <ele>968.9</ele>
        <time>2021-09-11T09:43:44Z</time>
      </trkpt>
      <trkpt lat="44.06575" lon="6.30621">
        <ele>969.2</ele>
        <time>2021-09-11T09:43:46Z</time>
      </trkpt>
      <trkpt lat="44.06575" lon="6.30622">
        <ele>969.2</ele>
        <time>2021-09-11T09:43:47Z</time>
      </trkpt>
      <trkpt lat="44.06574" lon="6.30626">
        <ele>969.5</ele>
        <time>2021-09-11T09:43:48Z</time>
      </trkpt>
      <trkpt lat="44.0657" lon="6.3063">
        <ele>969.9</ele>
        <time>2021-09-11T09:43:50Z</time>
      </trkpt>
      <trkpt lat="44.06568" lon="6.30631">
        <ele>970.1</ele>
        <time>2021-09-11T09:43:51Z</time>
      </trkpt>
      <trkpt lat="44.06566" lon="6.30634">
        <ele>970.3</ele>
        <time>2021-09-11T09:43:53Z</time>
      </trkpt>
      <trkpt lat="44.06565" lon="6.30634">
        <ele>970.4</ele>
        <time>2021-09-11T09:43:54Z</time>
      </trkpt>
      <trkpt lat="44.06562" lon="6.30636">
        <ele>970.6</ele>
        <time>2021-09-11T09:43:55Z</time>
      </trkpt>
      <trkpt lat="44.0656" lon="6.30637">
        <ele>970.9</ele>
        <time>2021-09-11T09:43:57Z</time>
      </trkpt>
      <trkpt lat="44.06557" lon="6.30639">
        <ele>971.2</ele>
        <time>2021-09-11T09:43:59Z</time>
      </trkpt>
      <trkpt lat="44.06553" lon="6.3064">
        <ele>971.6</ele>
        <time>2021-09-11T09:44:00Z</time>
      </trkpt>
      <trkpt lat="44.06549" lon="6.3064">
        <ele>971.9</ele>
        <time>2021-09-11T09:44:02Z</time>
      </trkpt>
      <trkpt lat="44.06547" lon="6.3064">
        <ele>972.2</ele>
        <time>2021-09-11T09:44:03Z</time>
      </trkpt>
      <trkpt lat="44.06543" lon="6.30643">
        <ele>973.3</ele>
        <time>2021-09-11T09:44:05Z</time>
      </trkpt>
      <trkpt lat="44.06542" lon="6.30644">
        <ele>973.3</ele>
        <time>2021-09-11T09:44:07Z</time>
      </trkpt>
      <trkpt lat="44.06541" lon="6.30645">
        <ele>973.6</ele>
        <time>2021-09-11T09:44:08Z</time>
      </trkpt>
      <trkpt lat="44.06538" lon="6.30647">
        <ele>974.6</ele>
        <time>2021-09-11T09:44:10Z</time>
      </trkpt>
      <trkpt lat="44.06536" lon="6.30648">
        <ele>974.7</ele>
        <time>2021-09-11T09:44:11Z</time>
      </trkpt>
      <trkpt lat="44.06532" lon="6.30649">
        <ele>975.2</ele>
        <time>2021-09-11T09:44:13Z</time>
      </trkpt>
      <trkpt lat="44.0653" lon="6.30649">
        <ele>975.2</ele>
        <time>2021-09-11T09:44:14Z</time>
      </trkpt>
      <trkpt lat="44.06525" lon="6.30652">
        <ele>976.5</ele>
        <time>2021-09-11T09:44:16Z</time>
      </trkpt>
      <trkpt lat="44.06524" lon="6.30653">
        <ele>976.6</ele>
        <time>2021-09-11T09:44:18Z</time>
      </trkpt>
      <trkpt lat="44.06523" lon="6.30655">
        <ele>977.6</ele>
        <time>2021-09-11T09:44:19Z</time>
      </trkpt>
      <trkpt lat="44.06521" lon="6.30659">
        <ele>978.6</ele>
        <time>2021-09-11T09:44:21Z</time>
      </trkpt>
      <trkpt lat="44.0652" lon="6.3066">
        <ele>978.9</ele>
        <time>2021-09-11T09:44:22Z</time>
      </trkpt>
      <trkpt lat="44.0652" lon="6.30664">
        <ele>979.9</ele>
        <time>2021-09-11T09:44:23Z</time>
      </trkpt>
      <trkpt lat="44.0652" lon="6.30667">
        <ele>980.9</ele>
        <time>2021-09-11T09:44:25Z</time>
      </trkpt>
      <trkpt lat="44.06521" lon="6.30669">
        <ele>981</ele>
        <time>2021-09-11T09:44:26Z</time>
      </trkpt>
      <trkpt lat="44.06524" lon="6.30672">
        <ele>982</ele>
        <time>2021-09-11T09:44:27Z</time>
      </trkpt>
      <trkpt lat="44.06525" lon="6.30672">
        <ele>982</ele>
        <time>2021-09-11T09:44:28Z</time>
      </trkpt>
      <trkpt lat="44.06528" lon="6.30674">
        <ele>981.9</ele>
        <time>2021-09-11T09:44:30Z</time>
      </trkpt>
      <trkpt lat="44.06529" lon="6.30674">
        <ele>982</ele>
        <time>2021-09-11T09:44:31Z</time>
      </trkpt>
      <trkpt lat="44.06531" lon="6.30675">
        <ele>981.9</ele>
        <time>2021-09-11T09:44:33Z</time>
      </trkpt>
      <trkpt lat="44.06534" lon="6.30675">
        <ele>981.8</ele>
        <time>2021-09-11T09:44:35Z</time>
      </trkpt>
      <trkpt lat="44.06539" lon="6.30675">
        <ele>981.4</ele>
        <time>2021-09-11T09:44:36Z</time>
      </trkpt>
      <trkpt lat="44.06541" lon="6.30675">
        <ele>981.5</ele>
        <time>2021-09-11T09:44:38Z</time>
      </trkpt>
      <trkpt lat="44.06543" lon="6.30675">
        <ele>982.3</ele>
        <time>2021-09-11T09:44:39Z</time>
      </trkpt>
      <trkpt lat="44.06545" lon="6.30675">
        <ele>982.2</ele>
        <time>2021-09-11T09:44:41Z</time>
      </trkpt>
      <trkpt lat="44.06548" lon="6.30676">
        <ele>982.2</ele>
        <time>2021-09-11T09:44:42Z</time>
      </trkpt>
      <trkpt lat="44.0655" lon="6.30676">
        <ele>982</ele>
        <time>2021-09-11T09:44:44Z</time>
      </trkpt>
      <trkpt lat="44.06552" lon="6.30676">
        <ele>981.7</ele>
        <time>2021-09-11T09:44:45Z</time>
      </trkpt>
      <trkpt lat="44.06554" lon="6.30676">
        <ele>981.8</ele>
        <time>2021-09-11T09:45:03Z</time>
      </trkpt>
      <trkpt lat="44.06556" lon="6.30676">
        <ele>981.5</ele>
        <time>2021-09-11T09:45:05Z</time>
      </trkpt>
      <trkpt lat="44.06558" lon="6.30676">
        <ele>981.2</ele>
        <time>2021-09-11T09:45:06Z</time>
      </trkpt>
      <trkpt lat="44.06561" lon="6.30676">
        <ele>980.9</ele>
        <time>2021-09-11T09:45:07Z</time>
      </trkpt>
      <trkpt lat="44.06562" lon="6.30676">
        <ele>981</ele>
        <time>2021-09-11T09:45:10Z</time>
      </trkpt>
      <trkpt lat="44.06563" lon="6.30676">
        <ele>981.1</ele>
        <time>2021-09-11T09:45:11Z</time>
      </trkpt>
      <trkpt lat="44.06564" lon="6.30676">
        <ele>980.7</ele>
        <time>2021-09-11T09:45:12Z</time>
      </trkpt>
      <trkpt lat="44.06565" lon="6.30676">
        <ele>980.8</ele>
        <time>2021-09-11T09:45:14Z</time>
      </trkpt>
      <trkpt lat="44.06567" lon="6.30676">
        <ele>980.4</ele>
        <time>2021-09-11T09:45:15Z</time>
      </trkpt>
      <trkpt lat="44.0657" lon="6.30677">
        <ele>980.5</ele>
        <time>2021-09-11T09:45:16Z</time>
      </trkpt>
      <trkpt lat="44.06571" lon="6.30677">
        <ele>980.1</ele>
        <time>2021-09-11T09:45:18Z</time>
      </trkpt>
      <trkpt lat="44.06572" lon="6.30677">
        <ele>980.2</ele>
        <time>2021-09-11T09:45:19Z</time>
      </trkpt>
      <trkpt lat="44.06574" lon="6.30677">
        <ele>980.3</ele>
        <time>2021-09-11T09:45:20Z</time>
      </trkpt>
      <trkpt lat="44.06576" lon="6.30676">
        <ele>980.5</ele>
        <time>2021-09-11T09:45:22Z</time>
      </trkpt>
      <trkpt lat="44.06577" lon="6.30676">
        <ele>980.5</ele>
        <time>2021-09-11T09:45:23Z</time>
      </trkpt>
      <trkpt lat="44.06578" lon="6.30677">
        <ele>980.6</ele>
        <time>2021-09-11T09:45:24Z</time>
      </trkpt>
      <trkpt lat="44.06578" lon="6.30677">
        <ele>980.7</ele>
        <time>2021-09-11T09:45:25Z</time>
      </trkpt>
      <trkpt lat="44.06579" lon="6.30677">
        <ele>980.7</ele>
        <time>2021-09-11T09:45:27Z</time>
      </trkpt>
      <trkpt lat="44.0658" lon="6.30677">
        <ele>980.8</ele>
        <time>2021-09-11T09:45:28Z</time>
      </trkpt>
      <trkpt lat="44.0658" lon="6.30677">
        <ele>980.8</ele>
        <time>2021-09-11T09:45:29Z</time>
      </trkpt>
      <trkpt lat="44.06582" lon="6.30678">
        <ele>980.9</ele>
        <time>2021-09-11T09:45:31Z</time>
      </trkpt>
      <trkpt lat="44.06583" lon="6.30679">
        <ele>981</ele>
        <time>2021-09-11T09:45:33Z</time>
      </trkpt>
      <trkpt lat="44.06586" lon="6.3068">
        <ele>981.3</ele>
        <time>2021-09-11T09:45:34Z</time>
      </trkpt>
      <trkpt lat="44.06588" lon="6.30684">
        <ele>981.6</ele>
        <time>2021-09-11T09:45:36Z</time>
      </trkpt>
      <trkpt lat="44.06589" lon="6.30686">
        <ele>981.7</ele>
        <time>2021-09-11T09:45:37Z</time>
      </trkpt>
      <trkpt lat="44.0659" lon="6.30688">
        <ele>981.9</ele>
        <time>2021-09-11T09:45:38Z</time>
      </trkpt>
      <trkpt lat="44.06591" lon="6.30691">
        <ele>982.1</ele>
        <time>2021-09-11T09:45:40Z</time>
      </trkpt>
      <trkpt lat="44.06591" lon="6.30692">
        <ele>982.1</ele>
        <time>2021-09-11T09:45:41Z</time>
      </trkpt>
      <trkpt lat="44.06591" lon="6.30695">
        <ele>982.3</ele>
        <time>2021-09-11T09:45:42Z</time>
      </trkpt>
      <trkpt lat="44.06591" lon="6.30697">
        <ele>982.4</ele>
        <time>2021-09-11T09:45:44Z</time>
      </trkpt>
      <trkpt lat="44.06591" lon="6.30698">
        <ele>982.5</ele>
        <time>2021-09-11T09:45:45Z</time>
      </trkpt>
      <trkpt lat="44.06591" lon="6.30698">
        <ele>982.5</ele>
        <time>2021-09-11T09:45:46Z</time>
      </trkpt>
      <trkpt lat="44.06591" lon="6.30698">
        <ele>982.5</ele>
        <time>2021-09-11T09:45:48Z</time>
      </trkpt>
      <trkpt lat="44.06591" lon="6.30698">
        <ele>982.5</ele>
        <time>2021-09-11T09:45:49Z</time>
      </trkpt>
      <trkpt lat="44.06591" lon="6.30697">
        <ele>982.5</ele>
        <time>2021-09-11T09:45:50Z</time>
      </trkpt>
      <trkpt lat="44.0659" lon="6.30697">
        <ele>982.5</ele>
        <time>2021-09-11T09:45:51Z</time>
      </trkpt>
      <trkpt lat="44.0659" lon="6.30697">
        <ele>982.5</ele>
        <time>2021-09-11T09:45:53Z</time>
      </trkpt>
      <trkpt lat="44.0659" lon="6.30697">
        <ele>982.6</ele>
        <time>2021-09-11T09:45:54Z</time>
      </trkpt>
      <trkpt lat="44.0659" lon="6.30697">
        <ele>982.6</ele>
        <time>2021-09-11T09:45:55Z</time>
      </trkpt>
      <trkpt lat="44.0659" lon="6.30697">
        <ele>982.6</ele>
        <time>2021-09-11T09:45:57Z</time>
      </trkpt>
      <trkpt lat="44.06588" lon="6.30698">
        <ele>982.8</ele>
        <time>2021-09-11T09:45:58Z</time>
      </trkpt>
      <trkpt lat="44.06577" lon="6.30699">
        <ele>983.7</ele>
        <time>2021-09-11T09:46:04Z</time>
      </trkpt>
      <trkpt lat="44.06573" lon="6.30698">
        <ele>984.1</ele>
        <time>2021-09-11T09:46:06Z</time>
      </trkpt>
      <trkpt lat="44.06571" lon="6.30698">
        <ele>984.2</ele>
        <time>2021-09-11T09:46:07Z</time>
      </trkpt>
      <trkpt lat="44.06568" lon="6.30697">
        <ele>984.5</ele>
        <time>2021-09-11T09:46:08Z</time>
      </trkpt>
      <trkpt lat="44.06567" lon="6.30697">
        <ele>984.6</ele>
        <time>2021-09-11T09:46:09Z</time>
      </trkpt>
      <trkpt lat="44.06564" lon="6.30695">
        <ele>984.9</ele>
        <time>2021-09-11T09:46:11Z</time>
      </trkpt>
      <trkpt lat="44.06563" lon="6.30695">
        <ele>985</ele>
        <time>2021-09-11T09:46:12Z</time>
      </trkpt>
      <trkpt lat="44.06562" lon="6.30694">
        <ele>985.1</ele>
        <time>2021-09-11T09:46:13Z</time>
      </trkpt>
      <trkpt lat="44.06561" lon="6.30694">
        <ele>985.2</ele>
        <time>2021-09-11T09:46:15Z</time>
      </trkpt>
      <trkpt lat="44.0656" lon="6.30694">
        <ele>985.3</ele>
        <time>2021-09-11T09:46:16Z</time>
      </trkpt>
      <trkpt lat="44.06558" lon="6.30693">
        <ele>985.5</ele>
        <time>2021-09-11T09:46:17Z</time>
      </trkpt>
      <trkpt lat="44.06557" lon="6.30692">
        <ele>985.6</ele>
        <time>2021-09-11T09:46:18Z</time>
      </trkpt>
      <trkpt lat="44.06556" lon="6.30692">
        <ele>985.7</ele>
        <time>2021-09-11T09:46:20Z</time>
      </trkpt>
      <trkpt lat="44.06554" lon="6.30692">
        <ele>985.8</ele>
        <time>2021-09-11T09:46:21Z</time>
      </trkpt>
      <trkpt lat="44.06553" lon="6.30691">
        <ele>985.9</ele>
        <time>2021-09-11T09:46:22Z</time>
      </trkpt>
      <trkpt lat="44.06553" lon="6.30691">
        <ele>985.9</ele>
        <time>2021-09-11T09:46:24Z</time>
      </trkpt>
      <trkpt lat="44.06553" lon="6.30691">
        <ele>986</ele>
        <time>2021-09-11T09:46:25Z</time>
      </trkpt>
      <trkpt lat="44.06552" lon="6.30691">
        <ele>986</ele>
        <time>2021-09-11T09:46:26Z</time>
      </trkpt>
      <trkpt lat="44.0655" lon="6.3069">
        <ele>986.2</ele>
        <time>2021-09-11T09:46:27Z</time>
      </trkpt>
      <trkpt lat="44.06548" lon="6.3069">
        <ele>986.4</ele>
        <time>2021-09-11T09:46:29Z</time>
      </trkpt>
      <trkpt lat="44.06547" lon="6.3069">
        <ele>986.5</ele>
        <time>2021-09-11T09:46:30Z</time>
      </trkpt>
      <trkpt lat="44.06546" lon="6.3069">
        <ele>986.6</ele>
        <time>2021-09-11T09:46:31Z</time>
      </trkpt>
      <trkpt lat="44.06544" lon="6.30689">
        <ele>986.8</ele>
        <time>2021-09-11T09:46:32Z</time>
      </trkpt>
      <trkpt lat="44.06541" lon="6.30689">
        <ele>987.1</ele>
        <time>2021-09-11T09:46:34Z</time>
      </trkpt>
      <trkpt lat="44.0654" lon="6.30689">
        <ele>987.2</ele>
        <time>2021-09-11T09:46:35Z</time>
      </trkpt>
      <trkpt lat="44.06538" lon="6.30689">
        <ele>987.3</ele>
        <time>2021-09-11T09:46:37Z</time>
      </trkpt>
      <trkpt lat="44.06538" lon="6.3069">
        <ele>987.4</ele>
        <time>2021-09-11T09:46:38Z</time>
      </trkpt>
      <trkpt lat="44.06538" lon="6.3069">
        <ele>987.4</ele>
        <time>2021-09-11T09:46:39Z</time>
      </trkpt>
      <trkpt lat="44.06538" lon="6.3069">
        <ele>987.4</ele>
        <time>2021-09-11T09:46:41Z</time>
      </trkpt>
      <trkpt lat="44.06537" lon="6.3069">
        <ele>987.5</ele>
        <time>2021-09-11T09:46:42Z</time>
      </trkpt>
      <trkpt lat="44.06537" lon="6.3069">
        <ele>987.5</ele>
        <time>2021-09-11T09:46:43Z</time>
      </trkpt>
      <trkpt lat="44.06537" lon="6.30691">
        <ele>987.5</ele>
        <time>2021-09-11T09:46:44Z</time>
      </trkpt>
      <trkpt lat="44.06536" lon="6.30691">
        <ele>987.6</ele>
        <time>2021-09-11T09:46:45Z</time>
      </trkpt>
      <trkpt lat="44.06536" lon="6.30692">
        <ele>987.7</ele>
        <time>2021-09-11T09:46:47Z</time>
      </trkpt>
      <trkpt lat="44.06535" lon="6.30693">
        <ele>987.8</ele>
        <time>2021-09-11T09:46:48Z</time>
      </trkpt>
      <trkpt lat="44.06534" lon="6.30694">
        <ele>987.9</ele>
        <time>2021-09-11T09:46:49Z</time>
      </trkpt>
      <trkpt lat="44.06534" lon="6.30694">
        <ele>987.9</ele>
        <time>2021-09-11T09:46:50Z</time>
      </trkpt>
      <trkpt lat="44.06532" lon="6.30696">
        <ele>988.1</ele>
        <time>2021-09-11T09:46:51Z</time>
      </trkpt>
      <trkpt lat="44.06532" lon="6.30697">
        <ele>988.2</ele>
        <time>2021-09-11T09:46:52Z</time>
      </trkpt>
      <trkpt lat="44.06531" lon="6.30699">
        <ele>988.4</ele>
        <time>2021-09-11T09:46:54Z</time>
      </trkpt>
      <trkpt lat="44.06518" lon="6.30717">
        <ele>990.3</ele>
        <time>2021-09-11T09:47:11Z</time>
      </trkpt>
      <trkpt lat="44.06516" lon="6.30719">
        <ele>990.5</ele>
        <time>2021-09-11T09:47:13Z</time>
      </trkpt>
      <trkpt lat="44.06515" lon="6.30722">
        <ele>990.7</ele>
        <time>2021-09-11T09:47:15Z</time>
      </trkpt>
      <trkpt lat="44.06515" lon="6.30724">
        <ele>990.9</ele>
        <time>2021-09-11T09:47:16Z</time>
      </trkpt>
      <trkpt lat="44.06514" lon="6.30725">
        <ele>990.9</ele>
        <time>2021-09-11T09:47:18Z</time>
      </trkpt>
      <trkpt lat="44.06514" lon="6.30726">
        <ele>991</ele>
        <time>2021-09-11T09:47:19Z</time>
      </trkpt>
      <trkpt lat="44.06514" lon="6.30727">
        <ele>991.1</ele>
        <time>2021-09-11T09:47:20Z</time>
      </trkpt>
      <trkpt lat="44.06513" lon="6.30728">
        <ele>991.2</ele>
        <time>2021-09-11T09:47:21Z</time>
      </trkpt>
      <trkpt lat="44.06513" lon="6.30728">
        <ele>991.2</ele>
        <time>2021-09-11T09:47:23Z</time>
      </trkpt>
      <trkpt lat="44.06513" lon="6.30729">
        <ele>991.3</ele>
        <time>2021-09-11T09:47:24Z</time>
      </trkpt>
      <trkpt lat="44.06513" lon="6.3073">
        <ele>991.4</ele>
        <time>2021-09-11T09:47:26Z</time>
      </trkpt>
      <trkpt lat="44.06512" lon="6.30731">
        <ele>991.4</ele>
        <time>2021-09-11T09:47:27Z</time>
      </trkpt>
      <trkpt lat="44.06511" lon="6.30733">
        <ele>991.6</ele>
        <time>2021-09-11T09:47:29Z</time>
      </trkpt>
      <trkpt lat="44.06504" lon="6.30745">
        <ele>992.8</ele>
        <time>2021-09-11T09:47:37Z</time>
      </trkpt>
      <trkpt lat="44.06503" lon="6.30746">
        <ele>992.9</ele>
        <time>2021-09-11T09:47:38Z</time>
      </trkpt>
      <trkpt lat="44.06501" lon="6.3075">
        <ele>993.2</ele>
        <time>2021-09-11T09:47:40Z</time>
      </trkpt>
      <trkpt lat="44.06501" lon="6.3075">
        <ele>993.2</ele>
        <time>2021-09-11T09:47:41Z</time>
      </trkpt>
      <trkpt lat="44.065" lon="6.30751">
        <ele>993.3</ele>
        <time>2021-09-11T09:47:42Z</time>
      </trkpt>
      <trkpt lat="44.06499" lon="6.30751">
        <ele>993.4</ele>
        <time>2021-09-11T09:47:44Z</time>
      </trkpt>
      <trkpt lat="44.06499" lon="6.30752">
        <ele>993.4</ele>
        <time>2021-09-11T09:47:45Z</time>
      </trkpt>
      <trkpt lat="44.06498" lon="6.30752">
        <ele>993.5</ele>
        <time>2021-09-11T09:47:47Z</time>
      </trkpt>
      <trkpt lat="44.06498" lon="6.30752">
        <ele>993.5</ele>
        <time>2021-09-11T09:47:48Z</time>
      </trkpt>
      <trkpt lat="44.06498" lon="6.30752">
        <ele>993.5</ele>
        <time>2021-09-11T09:47:49Z</time>
      </trkpt>
      <trkpt lat="44.06498" lon="6.30752">
        <ele>993.5</ele>
        <time>2021-09-11T09:47:51Z</time>
      </trkpt>
      <trkpt lat="44.06497" lon="6.30752">
        <ele>993.6</ele>
        <time>2021-09-11T09:47:52Z</time>
      </trkpt>
      <trkpt lat="44.06496" lon="6.30753">
        <ele>993.7</ele>
        <time>2021-09-11T09:47:53Z</time>
      </trkpt>
      <trkpt lat="44.06495" lon="6.30755">
        <ele>993.9</ele>
        <time>2021-09-11T09:47:54Z</time>
      </trkpt>
      <trkpt lat="44.06471" lon="6.30784">
        <ele>997.2</ele>
        <time>2021-09-11T09:48:45Z</time>
      </trkpt>
      <trkpt lat="44.06468" lon="6.30786">
        <ele>997.7</ele>
        <time>2021-09-11T09:48:47Z</time>
      </trkpt>
      <trkpt lat="44.06465" lon="6.30789">
        <ele>998.1</ele>
        <time>2021-09-11T09:48:48Z</time>
      </trkpt>
      <trkpt lat="44.06464" lon="6.3079">
        <ele>998.2</ele>
        <time>2021-09-11T09:48:49Z</time>
      </trkpt>
      <trkpt lat="44.06462" lon="6.30793">
        <ele>998.6</ele>
        <time>2021-09-11T09:48:51Z</time>
      </trkpt>
      <trkpt lat="44.06462" lon="6.30794">
        <ele>998.6</ele>
        <time>2021-09-11T09:48:52Z</time>
      </trkpt>
      <trkpt lat="44.0646" lon="6.30795">
        <ele>998.9</ele>
        <time>2021-09-11T09:48:53Z</time>
      </trkpt>
      <trkpt lat="44.06458" lon="6.30797">
        <ele>999.2</ele>
        <time>2021-09-11T09:48:55Z</time>
      </trkpt>
      <trkpt lat="44.06457" lon="6.308">
        <ele>999.4</ele>
        <time>2021-09-11T09:48:56Z</time>
      </trkpt>
      <trkpt lat="44.06457" lon="6.30801">
        <ele>999.6</ele>
        <time>2021-09-11T09:48:58Z</time>
      </trkpt>
      <trkpt lat="44.06456" lon="6.30802">
        <ele>999.6</ele>
        <time>2021-09-11T09:48:59Z</time>
      </trkpt>
      <trkpt lat="44.06456" lon="6.30803">
        <ele>999.7</ele>
        <time>2021-09-11T09:49:00Z</time>
      </trkpt>
      <trkpt lat="44.06454" lon="6.30804">
        <ele>1000</ele>
        <time>2021-09-11T09:49:02Z</time>
      </trkpt>
      <trkpt lat="44.06453" lon="6.30805">
        <ele>1000.1</ele>
        <time>2021-09-11T09:49:03Z</time>
      </trkpt>
      <trkpt lat="44.06452" lon="6.30805">
        <ele>1000.1</ele>
        <time>2021-09-11T09:49:04Z</time>
      </trkpt>
      <trkpt lat="44.06452" lon="6.30805">
        <ele>1000.2</ele>
        <time>2021-09-11T09:49:05Z</time>
      </trkpt>
      <trkpt lat="44.06451" lon="6.30806">
        <ele>1000.3</ele>
        <time>2021-09-11T09:49:06Z</time>
      </trkpt>
      <trkpt lat="44.0645" lon="6.30807">
        <ele>1000.4</ele>
        <time>2021-09-11T09:49:08Z</time>
      </trkpt>
      <trkpt lat="44.06449" lon="6.30807">
        <ele>1000.5</ele>
        <time>2021-09-11T09:49:09Z</time>
      </trkpt>
      <trkpt lat="44.06448" lon="6.30807">
        <ele>1000.6</ele>
        <time>2021-09-11T09:49:10Z</time>
      </trkpt>
      <trkpt lat="44.06447" lon="6.30808">
        <ele>1000.7</ele>
        <time>2021-09-11T09:49:12Z</time>
      </trkpt>
      <trkpt lat="44.06446" lon="6.30808">
        <ele>1000.7</ele>
        <time>2021-09-11T09:49:13Z</time>
      </trkpt>
      <trkpt lat="44.06445" lon="6.30808">
        <ele>1000.8</ele>
        <time>2021-09-11T09:49:14Z</time>
      </trkpt>
      <trkpt lat="44.0644" lon="6.30816">
        <ele>1001.5</ele>
        <time>2021-09-11T09:49:16Z</time>
      </trkpt>
      <trkpt lat="44.06436" lon="6.30824">
        <ele>1002.2</ele>
        <time>2021-09-11T09:49:45Z</time>
      </trkpt>
      <trkpt lat="44.06431" lon="6.30832">
        <ele>1002.8</ele>
        <time>2021-09-11T09:49:46Z</time>
      </trkpt>
      <trkpt lat="44.06427" lon="6.3084">
        <ele>1003.5</ele>
        <time>2021-09-11T09:49:47Z</time>
      </trkpt>
      <trkpt lat="44.06427" lon="6.30842">
        <ele>1003.6</ele>
        <time>2021-09-11T09:49:49Z</time>
      </trkpt>
      <trkpt lat="44.06428" lon="6.30844">
        <ele>1003.8</ele>
        <time>2021-09-11T09:49:50Z</time>
      </trkpt>
      <trkpt lat="44.06428" lon="6.30846">
        <ele>1004</ele>
        <time>2021-09-11T09:49:52Z</time>
      </trkpt>
      <trkpt lat="44.06428" lon="6.30848">
        <ele>1004.1</ele>
        <time>2021-09-11T09:49:53Z</time>
      </trkpt>
      <trkpt lat="44.06428" lon="6.30852">
        <ele>1004.4</ele>
        <time>2021-09-11T09:49:54Z</time>
      </trkpt>
      <trkpt lat="44.06427" lon="6.30853">
        <ele>1004.5</ele>
        <time>2021-09-11T09:49:55Z</time>
      </trkpt>
      <trkpt lat="44.06425" lon="6.30857">
        <ele>1004.8</ele>
        <time>2021-09-11T09:49:57Z</time>
      </trkpt>
      <trkpt lat="44.06424" lon="6.30858">
        <ele>1005</ele>
        <time>2021-09-11T09:49:58Z</time>
      </trkpt>
      <trkpt lat="44.06423" lon="6.3086">
        <ele>1005.1</ele>
        <time>2021-09-11T09:49:59Z</time>
      </trkpt>
      <trkpt lat="44.06422" lon="6.3086">
        <ele>1005.2</ele>
        <time>2021-09-11T09:50:01Z</time>
      </trkpt>
      <trkpt lat="44.06421" lon="6.3086">
        <ele>1005.3</ele>
        <time>2021-09-11T09:50:02Z</time>
      </trkpt>
      <trkpt lat="44.0642" lon="6.30861">
        <ele>1005.5</ele>
        <time>2021-09-11T09:50:04Z</time>
      </trkpt>
      <trkpt lat="44.06419" lon="6.30861">
        <ele>1005.5</ele>
        <time>2021-09-11T09:50:05Z</time>
      </trkpt>
      <trkpt lat="44.06419" lon="6.30861">
        <ele>1005.6</ele>
        <time>2021-09-11T09:50:06Z</time>
      </trkpt>
      <trkpt lat="44.06418" lon="6.30862">
        <ele>1005.7</ele>
        <time>2021-09-11T09:50:07Z</time>
      </trkpt>
      <trkpt lat="44.06416" lon="6.30864">
        <ele>1005.9</ele>
        <time>2021-09-11T09:50:09Z</time>
      </trkpt>
      <trkpt lat="44.06415" lon="6.30865">
        <ele>1006</ele>
        <time>2021-09-11T09:50:11Z</time>
      </trkpt>
      <trkpt lat="44.06415" lon="6.30866">
        <ele>1006.1</ele>
        <time>2021-09-11T09:50:12Z</time>
      </trkpt>
      <trkpt lat="44.06415" lon="6.30866">
        <ele>1006.1</ele>
        <time>2021-09-11T09:50:13Z</time>
      </trkpt>
      <trkpt lat="44.06415" lon="6.30867">
        <ele>1006.2</ele>
        <time>2021-09-11T09:50:14Z</time>
      </trkpt>
      <trkpt lat="44.06415" lon="6.30867">
        <ele>1006.2</ele>
        <time>2021-09-11T09:50:16Z</time>
      </trkpt>
      <trkpt lat="44.06415" lon="6.30867">
        <ele>1006.2</ele>
        <time>2021-09-11T09:50:17Z</time>
      </trkpt>
      <trkpt lat="44.06412" lon="6.30872">
        <ele>1006.6</ele>
        <time>2021-09-11T09:50:19Z</time>
      </trkpt>
      <trkpt lat="44.06409" lon="6.30876">
        <ele>1007</ele>
        <time>2021-09-11T09:50:28Z</time>
      </trkpt>
      <trkpt lat="44.06406" lon="6.3088">
        <ele>1007.4</ele>
        <time>2021-09-11T09:50:29Z</time>
      </trkpt>
      <trkpt lat="44.06403" lon="6.30884">
        <ele>1007.8</ele>
        <time>2021-09-11T09:50:30Z</time>
      </trkpt>
      <trkpt lat="44.06402" lon="6.30889">
        <ele>1008.2</ele>
        <time>2021-09-11T09:50:32Z</time>
      </trkpt>
      <trkpt lat="44.06401" lon="6.30893">
        <ele>1008.5</ele>
        <time>2021-09-11T09:50:33Z</time>
      </trkpt>
      <trkpt lat="44.06401" lon="6.30895">
        <ele>1008.6</ele>
        <time>2021-09-11T09:50:34Z</time>
      </trkpt>
      <trkpt lat="44.06401" lon="6.30896">
        <ele>1008.6</ele>
        <time>2021-09-11T09:50:36Z</time>
      </trkpt>
      <trkpt lat="44.06401" lon="6.30896">
        <ele>1008.6</ele>
        <time>2021-09-11T09:50:37Z</time>
      </trkpt>
      <trkpt lat="44.06403" lon="6.30897">
        <ele>1008.8</ele>
        <time>2021-09-11T09:50:38Z</time>
      </trkpt>
      <trkpt lat="44.06407" lon="6.30897">
        <ele>1009.1</ele>
        <time>2021-09-11T09:50:40Z</time>
      </trkpt>
      <trkpt lat="44.06409" lon="6.30898">
        <ele>1009.4</ele>
        <time>2021-09-11T09:50:41Z</time>
      </trkpt>
      <trkpt lat="44.0641" lon="6.30898">
        <ele>1009.5</ele>
        <time>2021-09-11T09:50:43Z</time>
      </trkpt>
      <trkpt lat="44.06411" lon="6.30899">
        <ele>1009.6</ele>
        <time>2021-09-11T09:50:44Z</time>
      </trkpt>
      <trkpt lat="44.06413" lon="6.309">
        <ele>1009.7</ele>
        <time>2021-09-11T09:50:46Z</time>
      </trkpt>
      <trkpt lat="44.06413" lon="6.309">
        <ele>1009.8</ele>
        <time>2021-09-11T09:50:47Z</time>
      </trkpt>
      <trkpt lat="44.06416" lon="6.30901">
        <ele>1010</ele>
        <time>2021-09-11T09:50:48Z</time>
      </trkpt>
      <trkpt lat="44.06417" lon="6.30902">
        <ele>1010.2</ele>
        <time>2021-09-11T09:50:50Z</time>
      </trkpt>
      <trkpt lat="44.06417" lon="6.30902">
        <ele>1010.2</ele>
        <time>2021-09-11T09:50:51Z</time>
      </trkpt>
      <trkpt lat="44.06418" lon="6.30903">
        <ele>1010.2</ele>
        <time>2021-09-11T09:50:52Z</time>
      </trkpt>
      <trkpt lat="44.06418" lon="6.30904">
        <ele>1010.3</ele>
        <time>2021-09-11T09:50:54Z</time>
      </trkpt>
      <trkpt lat="44.06419" lon="6.30905">
        <ele>1010.4</ele>
        <time>2021-09-11T09:50:55Z</time>
      </trkpt>
      <trkpt lat="44.0642" lon="6.30906">
        <ele>1010.5</ele>
        <time>2021-09-11T09:50:56Z</time>
      </trkpt>
      <trkpt lat="44.06421" lon="6.30908">
        <ele>1010.7</ele>
        <time>2021-09-11T09:50:58Z</time>
      </trkpt>
      <trkpt lat="44.06424" lon="6.30912">
        <ele>1011.1</ele>
        <time>2021-09-11T09:50:59Z</time>
      </trkpt>
      <trkpt lat="44.06424" lon="6.30914">
        <ele>1011.2</ele>
        <time>2021-09-11T09:51:00Z</time>
      </trkpt>
      <trkpt lat="44.06426" lon="6.30917">
        <ele>1011.5</ele>
        <time>2021-09-11T09:51:02Z</time>
      </trkpt>
      <trkpt lat="44.06427" lon="6.30918">
        <ele>1011.6</ele>
        <time>2021-09-11T09:51:03Z</time>
      </trkpt>
      <trkpt lat="44.06428" lon="6.30919">
        <ele>1011.7</ele>
        <time>2021-09-11T09:51:04Z</time>
      </trkpt>
      <trkpt lat="44.06429" lon="6.30919">
        <ele>1011.8</ele>
        <time>2021-09-11T09:51:06Z</time>
      </trkpt>
      <trkpt lat="44.06429" lon="6.30918">
        <ele>1011.9</ele>
        <time>2021-09-11T09:51:08Z</time>
      </trkpt>
      <trkpt lat="44.0643" lon="6.30918">
        <ele>1011.9</ele>
        <time>2021-09-11T09:51:09Z</time>
      </trkpt>
      <trkpt lat="44.06434" lon="6.30921">
        <ele>1012.5</ele>
        <time>2021-09-11T09:51:11Z</time>
      </trkpt>
      <trkpt lat="44.06439" lon="6.30925">
        <ele>1013</ele>
        <time>2021-09-11T09:51:12Z</time>
      </trkpt>
      <trkpt lat="44.06444" lon="6.30929">
        <ele>1013.5</ele>
        <time>2021-09-11T09:51:14Z</time>
      </trkpt>
      <trkpt lat="44.06448" lon="6.30933">
        <ele>1014.1</ele>
        <time>2021-09-11T09:51:42Z</time>
      </trkpt>
      <trkpt lat="44.06453" lon="6.30937">
        <ele>1014.6</ele>
        <time>2021-09-11T09:51:43Z</time>
      </trkpt>
      <trkpt lat="44.06457" lon="6.30943">
        <ele>1015.2</ele>
        <time>2021-09-11T09:51:45Z</time>
      </trkpt>
      <trkpt lat="44.06461" lon="6.30949">
        <ele>1015.7</ele>
        <time>2021-09-11T09:51:46Z</time>
      </trkpt>
      <trkpt lat="44.06465" lon="6.30955">
        <ele>1016.3</ele>
        <time>2021-09-11T09:51:48Z</time>
      </trkpt>
      <trkpt lat="44.0647" lon="6.30961">
        <ele>1017</ele>
        <time>2021-09-11T09:51:50Z</time>
      </trkpt>
      <trkpt lat="44.06473" lon="6.30964">
        <ele>1017.2</ele>
        <time>2021-09-11T09:51:51Z</time>
      </trkpt>
      <trkpt lat="44.06475" lon="6.30968">
        <ele>1017.6</ele>
        <time>2021-09-11T09:51:53Z</time>
      </trkpt>
      <trkpt lat="44.06477" lon="6.3097">
        <ele>1017.8</ele>
        <time>2021-09-11T09:51:54Z</time>
      </trkpt>
      <trkpt lat="44.0648" lon="6.30973">
        <ele>1018.1</ele>
        <time>2021-09-11T09:51:56Z</time>
      </trkpt>
      <trkpt lat="44.06483" lon="6.30973">
        <ele>1018.4</ele>
        <time>2021-09-11T09:51:58Z</time>
      </trkpt>
      <trkpt lat="44.06486" lon="6.30971">
        <ele>1018.8</ele>
        <time>2021-09-11T09:52:00Z</time>
      </trkpt>
      <trkpt lat="44.06492" lon="6.30966">
        <ele>1019.4</ele>
        <time>2021-09-11T09:52:02Z</time>
      </trkpt>
      <trkpt lat="44.06495" lon="6.30963">
        <ele>1019.7</ele>
        <time>2021-09-11T09:52:04Z</time>
      </trkpt>
      <trkpt lat="44.06499" lon="6.30962">
        <ele>1020.1</ele>
        <time>2021-09-11T09:52:05Z</time>
      </trkpt>
      <trkpt lat="44.06503" lon="6.30961">
        <ele>1020.5</ele>
        <time>2021-09-11T09:52:07Z</time>
      </trkpt>
      <trkpt lat="44.06504" lon="6.3096">
        <ele>1020.6</ele>
        <time>2021-09-11T09:52:08Z</time>
      </trkpt>
      <trkpt lat="44.06507" lon="6.30961">
        <ele>1020.9</ele>
        <time>2021-09-11T09:52:10Z</time>
      </trkpt>
      <trkpt lat="44.06509" lon="6.30962">
        <ele>1021</ele>
        <time>2021-09-11T09:52:11Z</time>
      </trkpt>
      <trkpt lat="44.06511" lon="6.30963">
        <ele>1021.3</ele>
        <time>2021-09-11T09:52:13Z</time>
      </trkpt>
      <trkpt lat="44.06511" lon="6.30963">
        <ele>1021.3</ele>
        <time>2021-09-11T09:52:14Z</time>
      </trkpt>
      <trkpt lat="44.06512" lon="6.30963">
        <ele>1021.4</ele>
        <time>2021-09-11T09:52:15Z</time>
      </trkpt>
      <trkpt lat="44.06513" lon="6.30963">
        <ele>1021.4</ele>
        <time>2021-09-11T09:52:17Z</time>
      </trkpt>
      <trkpt lat="44.06514" lon="6.30963">
        <ele>1021.5</ele>
        <time>2021-09-11T09:52:18Z</time>
      </trkpt>
      <trkpt lat="44.06515" lon="6.30963">
        <ele>1021.6</ele>
        <time>2021-09-11T09:52:19Z</time>
      </trkpt>
      <trkpt lat="44.06515" lon="6.30963">
        <ele>1021.7</ele>
        <time>2021-09-11T09:52:20Z</time>
      </trkpt>
      <trkpt lat="44.06516" lon="6.30963">
        <ele>1021.8</ele>
        <time>2021-09-11T09:52:22Z</time>
      </trkpt>
      <trkpt lat="44.06527" lon="6.30962">
        <ele>1022.8</ele>
        <time>2021-09-11T09:52:37Z</time>
      </trkpt>
      <trkpt lat="44.06534" lon="6.3096">
        <ele>1023.4</ele>
        <time>2021-09-11T09:52:39Z</time>
      </trkpt>
      <trkpt lat="44.06537" lon="6.3096">
        <ele>1023.7</ele>
        <time>2021-09-11T09:52:40Z</time>
      </trkpt>
      <trkpt lat="44.06541" lon="6.30959">
        <ele>1024</ele>
        <time>2021-09-11T09:52:41Z</time>
      </trkpt>
      <trkpt lat="44.06544" lon="6.30958">
        <ele>1024.3</ele>
        <time>2021-09-11T09:52:42Z</time>
      </trkpt>
      <trkpt lat="44.06547" lon="6.30958">
        <ele>1024.5</ele>
        <time>2021-09-11T09:52:43Z</time>
      </trkpt>
      <trkpt lat="44.06551" lon="6.30957">
        <ele>1024.8</ele>
        <time>2021-09-11T09:52:45Z</time>
      </trkpt>
      <trkpt lat="44.06555" lon="6.30955">
        <ele>1025</ele>
        <time>2021-09-11T09:52:46Z</time>
      </trkpt>
      <trkpt lat="44.0656" lon="6.30952">
        <ele>1025.3</ele>
        <time>2021-09-11T09:52:47Z</time>
      </trkpt>
      <trkpt lat="44.06563" lon="6.30947">
        <ele>1025.4</ele>
        <time>2021-09-11T09:52:49Z</time>
      </trkpt>
      <trkpt lat="44.06564" lon="6.30946">
        <ele>1025.5</ele>
        <time>2021-09-11T09:52:50Z</time>
      </trkpt>
      <trkpt lat="44.06567" lon="6.30943">
        <ele>1025.5</ele>
        <time>2021-09-11T09:52:52Z</time>
      </trkpt>
      <trkpt lat="44.06571" lon="6.30939">
        <ele>1025.6</ele>
        <time>2021-09-11T09:52:53Z</time>
      </trkpt>
      <trkpt lat="44.06574" lon="6.30936">
        <ele>1025.6</ele>
        <time>2021-09-11T09:52:55Z</time>
      </trkpt>
      <trkpt lat="44.06575" lon="6.30934">
        <ele>1025.6</ele>
        <time>2021-09-11T09:52:56Z</time>
      </trkpt>
      <trkpt lat="44.06576" lon="6.30933">
        <ele>1025.6</ele>
        <time>2021-09-11T09:52:57Z</time>
      </trkpt>
      <trkpt lat="44.0658" lon="6.3093">
        <ele>1025.6</ele>
        <time>2021-09-11T09:52:59Z</time>
      </trkpt>
      <trkpt lat="44.06582" lon="6.30928">
        <ele>1025.6</ele>
        <time>2021-09-11T09:53:00Z</time>
      </trkpt>
      <trkpt lat="44.06583" lon="6.30927">
        <ele>1025.6</ele>
        <time>2021-09-11T09:53:01Z</time>
      </trkpt>
      <trkpt lat="44.06585" lon="6.30922">
        <ele>1025.6</ele>
        <time>2021-09-11T09:53:03Z</time>
      </trkpt>
      <trkpt lat="44.06585" lon="6.30922">
        <ele>1025.5</ele>
        <time>2021-09-11T09:53:04Z</time>
      </trkpt>
      <trkpt lat="44.06585" lon="6.30923">
        <ele>1025.5</ele>
        <time>2021-09-11T09:53:06Z</time>
      </trkpt>
      <trkpt lat="44.06585" lon="6.30924">
        <ele>1025.5</ele>
        <time>2021-09-11T09:53:07Z</time>
      </trkpt>
      <trkpt lat="44.06585" lon="6.30925">
        <ele>1025.5</ele>
        <time>2021-09-11T09:53:08Z</time>
      </trkpt>
      <trkpt lat="44.06586" lon="6.30927">
        <ele>1025.5</ele>
        <time>2021-09-11T09:53:10Z</time>
      </trkpt>
      <trkpt lat="44.0659" lon="6.30932">
        <ele>1025.4</ele>
        <time>2021-09-11T09:53:13Z</time>
      </trkpt>
      <trkpt lat="44.06593" lon="6.30937">
        <ele>1025.3</ele>
        <time>2021-09-11T09:53:14Z</time>
      </trkpt>
      <trkpt lat="44.06596" lon="6.30943">
        <ele>1025.1</ele>
        <time>2021-09-11T09:53:16Z</time>
      </trkpt>
      <trkpt lat="44.066" lon="6.30949">
        <ele>1025</ele>
        <time>2021-09-11T09:53:18Z</time>
      </trkpt>
      <trkpt lat="44.06603" lon="6.30958">
        <ele>1024.7</ele>
        <time>2021-09-11T09:53:19Z</time>
      </trkpt>
      <trkpt lat="44.06606" lon="6.30966">
        <ele>1024.5</ele>
        <time>2021-09-11T09:53:20Z</time>
      </trkpt>
      <trkpt lat="44.06609" lon="6.30974">
        <ele>1024.3</ele>
        <time>2021-09-11T09:53:22Z</time>
      </trkpt>
      <trkpt lat="44.06612" lon="6.30982">
        <ele>1024.2</ele>
        <time>2021-09-11T09:53:24Z</time>
      </trkpt>
      <trkpt lat="44.06615" lon="6.3099">
        <ele>1024.1</ele>
        <time>2021-09-11T09:54:45Z</time>
      </trkpt>
      <trkpt lat="44.06618" lon="6.30998">
        <ele>1024</ele>
        <time>2021-09-11T09:54:46Z</time>
      </trkpt>
      <trkpt lat="44.06625" lon="6.31005">
        <ele>1023.8</ele>
        <time>2021-09-11T09:54:48Z</time>
      </trkpt>
      <trkpt lat="44.06631" lon="6.3101">
        <ele>1023.8</ele>
        <time>2021-09-11T09:54:49Z</time>
      </trkpt>
      <trkpt lat="44.06637" lon="6.31016">
        <ele>1023.8</ele>
        <time>2021-09-11T09:54:50Z</time>
      </trkpt>
      <trkpt lat="44.06642" lon="6.31022">
        <ele>1023.8</ele>
        <time>2021-09-11T09:54:52Z</time>
      </trkpt>
      <trkpt lat="44.06649" lon="6.31029">
        <ele>1023.9</ele>
        <time>2021-09-11T09:54:53Z</time>
      </trkpt>
      <trkpt lat="44.06654" lon="6.31033">
        <ele>1024</ele>
        <time>2021-09-11T09:54:55Z</time>
      </trkpt>
      <trkpt lat="44.0666" lon="6.3104">
        <ele>1024.2</ele>
        <time>2021-09-11T09:54:57Z</time>
      </trkpt>
      <trkpt lat="44.06661" lon="6.31043">
        <ele>1024.3</ele>
        <time>2021-09-11T09:54:58Z</time>
      </trkpt>
      <trkpt lat="44.06664" lon="6.31047">
        <ele>1024.5</ele>
        <time>2021-09-11T09:54:59Z</time>
      </trkpt>
      <trkpt lat="44.06667" lon="6.3105">
        <ele>1024.6</ele>
        <time>2021-09-11T09:55:00Z</time>
      </trkpt>
      <trkpt lat="44.06669" lon="6.31054">
        <ele>1024.8</ele>
        <time>2021-09-11T09:55:02Z</time>
      </trkpt>
      <trkpt lat="44.0667" lon="6.31055">
        <ele>1024.8</ele>
        <time>2021-09-11T09:55:03Z</time>
      </trkpt>
      <trkpt lat="44.0667" lon="6.31057">
        <ele>1024.9</ele>
        <time>2021-09-11T09:55:04Z</time>
      </trkpt>
      <trkpt lat="44.06671" lon="6.31059">
        <ele>1025</ele>
        <time>2021-09-11T09:55:05Z</time>
      </trkpt>
      <trkpt lat="44.06673" lon="6.31062">
        <ele>1025.1</ele>
        <time>2021-09-11T09:55:06Z</time>
      </trkpt>
      <trkpt lat="44.06675" lon="6.31064">
        <ele>1025.2</ele>
        <time>2021-09-11T09:55:08Z</time>
      </trkpt>
      <trkpt lat="44.06676" lon="6.31065">
        <ele>1025.2</ele>
        <time>2021-09-11T09:55:10Z</time>
      </trkpt>
      <trkpt lat="44.06677" lon="6.31066">
        <ele>1025.3</ele>
        <time>2021-09-11T09:55:11Z</time>
      </trkpt>
      <trkpt lat="44.06678" lon="6.31068">
        <ele>1025.3</ele>
        <time>2021-09-11T09:55:12Z</time>
      </trkpt>
      <trkpt lat="44.06681" lon="6.31072">
        <ele>1025.4</ele>
        <time>2021-09-11T09:55:14Z</time>
      </trkpt>
      <trkpt lat="44.06682" lon="6.31076">
        <ele>1025.4</ele>
        <time>2021-09-11T09:55:15Z</time>
      </trkpt>
      <trkpt lat="44.06684" lon="6.31079">
        <ele>1025.4</ele>
        <time>2021-09-11T09:55:16Z</time>
      </trkpt>
      <trkpt lat="44.06688" lon="6.31088">
        <ele>1025.4</ele>
        <time>2021-09-11T09:55:18Z</time>
      </trkpt>
      <trkpt lat="44.06693" lon="6.31097">
        <ele>1025.2</ele>
        <time>2021-09-11T09:55:19Z</time>
      </trkpt>
      <trkpt lat="44.06702" lon="6.3111">
        <ele>1024.8</ele>
        <time>2021-09-11T09:55:21Z</time>
      </trkpt>
      <trkpt lat="44.06707" lon="6.31116">
        <ele>1024.6</ele>
        <time>2021-09-11T09:55:22Z</time>
      </trkpt>
      <trkpt lat="44.06711" lon="6.31122">
        <ele>1024.4</ele>
        <time>2021-09-11T09:55:23Z</time>
      </trkpt>
      <trkpt lat="44.0672" lon="6.31134">
        <ele>1024.1</ele>
        <time>2021-09-11T09:55:25Z</time>
      </trkpt>
      <trkpt lat="44.06726" lon="6.3115">
        <ele>1023.7</ele>
        <time>2021-09-11T09:55:27Z</time>
      </trkpt>
      <trkpt lat="44.06729" lon="6.3116">
        <ele>1023.5</ele>
        <time>2021-09-11T09:55:28Z</time>
      </trkpt>
      <trkpt lat="44.06732" lon="6.31169">
        <ele>1023.5</ele>
        <time>2021-09-11T09:55:29Z</time>
      </trkpt>
      <trkpt lat="44.06736" lon="6.31176">
        <ele>1023.5</ele>
        <time>2021-09-11T09:55:30Z</time>
      </trkpt>
      <trkpt lat="44.06747" lon="6.31186">
        <ele>1023.4</ele>
        <time>2021-09-11T09:55:32Z</time>
      </trkpt>
      <trkpt lat="44.06753" lon="6.31188">
        <ele>1023.4</ele>
        <time>2021-09-11T09:55:33Z</time>
      </trkpt>
      <trkpt lat="44.06757" lon="6.31189">
        <ele>1023.4</ele>
        <time>2021-09-11T09:55:34Z</time>
      </trkpt>
      <trkpt lat="44.06764" lon="6.31188">
        <ele>1023.5</ele>
        <time>2021-09-11T09:55:36Z</time>
      </trkpt>
      <trkpt lat="44.06768" lon="6.31188">
        <ele>1023.5</ele>
        <time>2021-09-11T09:55:37Z</time>
      </trkpt>
      <trkpt lat="44.06773" lon="6.31188">
        <ele>1023.6</ele>
        <time>2021-09-11T09:55:39Z</time>
      </trkpt>
      <trkpt lat="44.06777" lon="6.31188">
        <ele>1023.7</ele>
        <time>2021-09-11T09:55:40Z</time>
      </trkpt>
      <trkpt lat="44.06781" lon="6.31183">
        <ele>1023.8</ele>
        <time>2021-09-11T09:55:41Z</time>
      </trkpt>
      <trkpt lat="44.06786" lon="6.31185">
        <ele>1024</ele>
        <time>2021-09-11T09:55:43Z</time>
      </trkpt>
      <trkpt lat="44.06788" lon="6.31184">
        <ele>1024</ele>
        <time>2021-09-11T09:55:44Z</time>
      </trkpt>
      <trkpt lat="44.06791" lon="6.31182">
        <ele>1024.1</ele>
        <time>2021-09-11T09:55:46Z</time>
      </trkpt>
      <trkpt lat="44.06794" lon="6.31181">
        <ele>1024.2</ele>
        <time>2021-09-11T09:55:47Z</time>
      </trkpt>
      <trkpt lat="44.06798" lon="6.31179">
        <ele>1024.3</ele>
        <time>2021-09-11T09:55:48Z</time>
      </trkpt>
      <trkpt lat="44.068" lon="6.31178">
        <ele>1024.3</ele>
        <time>2021-09-11T09:55:49Z</time>
      </trkpt>
      <trkpt lat="44.06803" lon="6.31175">
        <ele>1024.4</ele>
        <time>2021-09-11T09:55:51Z</time>
      </trkpt>
      <trkpt lat="44.06803" lon="6.31174">
        <ele>1024.4</ele>
        <time>2021-09-11T09:55:52Z</time>
      </trkpt>
      <trkpt lat="44.06805" lon="6.31169">
        <ele>1024.5</ele>
        <time>2021-09-11T09:55:53Z</time>
      </trkpt>
      <trkpt lat="44.06806" lon="6.31167">
        <ele>1024.6</ele>
        <time>2021-09-11T09:55:54Z</time>
      </trkpt>
      <trkpt lat="44.06807" lon="6.31164">
        <ele>1024.6</ele>
        <time>2021-09-11T09:55:55Z</time>
      </trkpt>
      <trkpt lat="44.06807" lon="6.31163">
        <ele>1024.6</ele>
        <time>2021-09-11T09:55:57Z</time>
      </trkpt>
      <trkpt lat="44.06807" lon="6.31163">
        <ele>1024.6</ele>
        <time>2021-09-11T09:55:58Z</time>
      </trkpt>
      <trkpt lat="44.06807" lon="6.31162">
        <ele>1024.6</ele>
        <time>2021-09-11T09:55:59Z</time>
      </trkpt>
      <trkpt lat="44.06808" lon="6.31158">
        <ele>1024.7</ele>
        <time>2021-09-11T09:56:00Z</time>
      </trkpt>
      <trkpt lat="44.06808" lon="6.31156">
        <ele>1024.7</ele>
        <time>2021-09-11T09:56:01Z</time>
      </trkpt>
      <trkpt lat="44.06809" lon="6.31152">
        <ele>1024.8</ele>
        <time>2021-09-11T09:56:03Z</time>
      </trkpt>
      <trkpt lat="44.06809" lon="6.3115">
        <ele>1024.9</ele>
        <time>2021-09-11T09:56:04Z</time>
      </trkpt>
      <trkpt lat="44.0681" lon="6.31146">
        <ele>1025</ele>
        <time>2021-09-11T09:56:06Z</time>
      </trkpt>
      <trkpt lat="44.0681" lon="6.31142">
        <ele>1025.1</ele>
        <time>2021-09-11T09:56:07Z</time>
      </trkpt>
      <trkpt lat="44.06811" lon="6.31138">
        <ele>1025.2</ele>
        <time>2021-09-11T09:56:08Z</time>
      </trkpt>
      <trkpt lat="44.06812" lon="6.31137">
        <ele>1025.2</ele>
        <time>2021-09-11T09:56:09Z</time>
      </trkpt>
      <trkpt lat="44.06814" lon="6.31132">
        <ele>1025.4</ele>
        <time>2021-09-11T09:56:10Z</time>
      </trkpt>
      <trkpt lat="44.06815" lon="6.3113">
        <ele>1025.5</ele>
        <time>2021-09-11T09:56:11Z</time>
      </trkpt>
      <trkpt lat="44.06816" lon="6.31128">
        <ele>1025.5</ele>
        <time>2021-09-11T09:56:13Z</time>
      </trkpt>
      <trkpt lat="44.06816" lon="6.31128">
        <ele>1025.6</ele>
        <time>2021-09-11T09:56:14Z</time>
      </trkpt>
      <trkpt lat="44.06817" lon="6.31127">
        <ele>1025.6</ele>
        <time>2021-09-11T09:56:16Z</time>
      </trkpt>
      <trkpt lat="44.06817" lon="6.31127">
        <ele>1025.6</ele>
        <time>2021-09-11T09:56:18Z</time>
      </trkpt>
      <trkpt lat="44.06816" lon="6.31127">
        <ele>1025.6</ele>
        <time>2021-09-11T09:56:20Z</time>
      </trkpt>
      <trkpt lat="44.06816" lon="6.31127">
        <ele>1025.6</ele>
        <time>2021-09-11T09:56:21Z</time>
      </trkpt>
      <trkpt lat="44.06808" lon="6.31093">
        <ele>1023.4</ele>
        <time>2021-09-11T09:58:55Z</time>
      </trkpt>
      <trkpt lat="44.0681" lon="6.31089">
        <ele>1023.1</ele>
        <time>2021-09-11T09:58:57Z</time>
      </trkpt>
      <trkpt lat="44.06809" lon="6.31088">
        <ele>1023</ele>
        <time>2021-09-11T09:58:58Z</time>
      </trkpt>
      <trkpt lat="44.06809" lon="6.31087">
        <ele>1022.9</ele>
        <time>2021-09-11T09:59:00Z</time>
      </trkpt>
      <trkpt lat="44.06809" lon="6.31086">
        <ele>1022.9</ele>
        <time>2021-09-11T09:59:01Z</time>
      </trkpt>
      <trkpt lat="44.06809" lon="6.31085">
        <ele>1022.8</ele>
        <time>2021-09-11T09:59:03Z</time>
      </trkpt>
      <trkpt lat="44.06809" lon="6.31085">
        <ele>1022.8</ele>
        <time>2021-09-11T09:59:04Z</time>
      </trkpt>
      <trkpt lat="44.06809" lon="6.31085">
        <ele>1022.8</ele>
        <time>2021-09-11T09:59:05Z</time>
      </trkpt>
      <trkpt lat="44.06809" lon="6.31084">
        <ele>1022.8</ele>
        <time>2021-09-11T09:59:07Z</time>
      </trkpt>
      <trkpt lat="44.06809" lon="6.31084">
        <ele>1022.7</ele>
        <time>2021-09-11T09:59:09Z</time>
      </trkpt>
      <trkpt lat="44.06809" lon="6.31084">
        <ele>1022.7</ele>
        <time>2021-09-11T09:59:10Z</time>
      </trkpt>
      <trkpt lat="44.06809" lon="6.31084">
        <ele>1022.7</ele>
        <time>2021-09-11T09:59:11Z</time>
      </trkpt>
      <trkpt lat="44.06809" lon="6.31084">
        <ele>1022.7</ele>
        <time>2021-09-11T09:59:13Z</time>
      </trkpt>
      <trkpt lat="44.06809" lon="6.31083">
        <ele>1022.7</ele>
        <time>2021-09-11T09:59:14Z</time>
      </trkpt>
      <trkpt lat="44.06809" lon="6.31083">
        <ele>1022.7</ele>
        <time>2021-09-11T09:59:15Z</time>
      </trkpt>
      <trkpt lat="44.06809" lon="6.31083">
        <ele>1022.7</ele>
        <time>2021-09-11T09:59:17Z</time>
      </trkpt>
      <trkpt lat="44.06809" lon="6.31083">
        <ele>1022.7</ele>
        <time>2021-09-11T09:59:18Z</time>
      </trkpt>
      <trkpt lat="44.06809" lon="6.31083">
        <ele>1022.7</ele>
        <time>2021-09-11T09:59:19Z</time>
      </trkpt>
      <trkpt lat="44.06809" lon="6.31083">
        <ele>1022.7</ele>
        <time>2021-09-11T09:59:20Z</time>
      </trkpt>
      <trkpt lat="44.06809" lon="6.31083">
        <ele>1022.7</ele>
        <time>2021-09-11T09:59:22Z</time>
      </trkpt>
      <trkpt lat="44.06809" lon="6.31083">
        <ele>1022.7</ele>
        <time>2021-09-11T09:59:24Z</time>
      </trkpt>
      <trkpt lat="44.06808" lon="6.31084">
        <ele>1022.5</ele>
        <time>2021-09-11T09:59:26Z</time>
      </trkpt>
      <trkpt lat="44.06807" lon="6.31085">
        <ele>1022.4</ele>
        <time>2021-09-11T09:59:27Z</time>
      </trkpt>
      <trkpt lat="44.06806" lon="6.31085">
        <ele>1022.4</ele>
        <time>2021-09-11T09:59:28Z</time>
      </trkpt>
      <trkpt lat="44.06806" lon="6.31086">
        <ele>1022.4</ele>
        <time>2021-09-11T09:59:29Z</time>
      </trkpt>
      <trkpt lat="44.06805" lon="6.31086">
        <ele>1022.3</ele>
        <time>2021-09-11T09:59:30Z</time>
      </trkpt>
      <trkpt lat="44.06805" lon="6.31087">
        <ele>1022.2</ele>
        <time>2021-09-11T09:59:31Z</time>
      </trkpt>
      <trkpt lat="44.06805" lon="6.31088">
        <ele>1022.2</ele>
        <time>2021-09-11T09:59:33Z</time>
      </trkpt>
      <trkpt lat="44.06805" lon="6.31092">
        <ele>1022</ele>
        <time>2021-09-11T09:59:35Z</time>
      </trkpt>
      <trkpt lat="44.06804" lon="6.31093">
        <ele>1021.9</ele>
        <time>2021-09-11T09:59:36Z</time>
      </trkpt>
      <trkpt lat="44.06804" lon="6.31093">
        <ele>1021.9</ele>
        <time>2021-09-11T09:59:39Z</time>
      </trkpt>
      <trkpt lat="44.06804" lon="6.31094">
        <ele>1021.8</ele>
        <time>2021-09-11T09:59:40Z</time>
      </trkpt>
      <trkpt lat="44.06803" lon="6.31094">
        <ele>1021.8</ele>
        <time>2021-09-11T09:59:41Z</time>
      </trkpt>
      <trkpt lat="44.06803" lon="6.31094">
        <ele>1021.8</ele>
        <time>2021-09-11T09:59:42Z</time>
      </trkpt>
      <trkpt lat="44.06803" lon="6.31094">
        <ele>1021.8</ele>
        <time>2021-09-11T09:59:44Z</time>
      </trkpt>
      <trkpt lat="44.06802" lon="6.31094">
        <ele>1021.7</ele>
        <time>2021-09-11T09:59:46Z</time>
      </trkpt>
      <trkpt lat="44.06802" lon="6.31094">
        <ele>1021.7</ele>
        <time>2021-09-11T09:59:47Z</time>
      </trkpt>
      <trkpt lat="44.06802" lon="6.31094">
        <ele>1021.7</ele>
        <time>2021-09-11T09:59:48Z</time>
      </trkpt>
      <trkpt lat="44.06801" lon="6.31094">
        <ele>1021.7</ele>
        <time>2021-09-11T09:59:50Z</time>
      </trkpt>
      <trkpt lat="44.06801" lon="6.31094">
        <ele>1021.6</ele>
        <time>2021-09-11T09:59:52Z</time>
      </trkpt>
      <trkpt lat="44.06801" lon="6.31095">
        <ele>1021.6</ele>
        <time>2021-09-11T09:59:54Z</time>
      </trkpt>
      <trkpt lat="44.068" lon="6.31095">
        <ele>1021.6</ele>
        <time>2021-09-11T09:59:55Z</time>
      </trkpt>
      <trkpt lat="44.068" lon="6.31092">
        <ele>1021.4</ele>
        <time>2021-09-11T09:59:57Z</time>
      </trkpt>
      <trkpt lat="44.068" lon="6.31091">
        <ele>1021.4</ele>
        <time>2021-09-11T09:59:58Z</time>
      </trkpt>
      <trkpt lat="44.06799" lon="6.3109">
        <ele>1021.3</ele>
        <time>2021-09-11T10:00:00Z</time>
      </trkpt>
      <trkpt lat="44.06799" lon="6.31089">
        <ele>1021.2</ele>
        <time>2021-09-11T10:00:01Z</time>
      </trkpt>
      <trkpt lat="44.06799" lon="6.31089">
        <ele>1021.2</ele>
        <time>2021-09-11T10:00:02Z</time>
      </trkpt>
      <trkpt lat="44.06799" lon="6.31088">
        <ele>1021.1</ele>
        <time>2021-09-11T10:00:04Z</time>
      </trkpt>
      <trkpt lat="44.06798" lon="6.31087">
        <ele>1021.1</ele>
        <time>2021-09-11T10:00:05Z</time>
      </trkpt>
      <trkpt lat="44.06798" lon="6.31086">
        <ele>1021</ele>
        <time>2021-09-11T10:00:07Z</time>
      </trkpt>
      <trkpt lat="44.06798" lon="6.31086">
        <ele>1020.9</ele>
        <time>2021-09-11T10:00:08Z</time>
      </trkpt>
      <trkpt lat="44.06798" lon="6.31085">
        <ele>1020.9</ele>
        <time>2021-09-11T10:00:09Z</time>
      </trkpt>
      <trkpt lat="44.06798" lon="6.31085">
        <ele>1020.9</ele>
        <time>2021-09-11T10:00:10Z</time>
      </trkpt>
      <trkpt lat="44.06798" lon="6.31084">
        <ele>1020.8</ele>
        <time>2021-09-11T10:00:11Z</time>
      </trkpt>
      <trkpt lat="44.06798" lon="6.31084">
        <ele>1020.8</ele>
        <time>2021-09-11T10:00:12Z</time>
      </trkpt>
      <trkpt lat="44.06798" lon="6.31084">
        <ele>1020.8</ele>
        <time>2021-09-11T10:00:13Z</time>
      </trkpt>
      <trkpt lat="44.06798" lon="6.31083">
        <ele>1020.8</ele>
        <time>2021-09-11T10:00:15Z</time>
      </trkpt>
      <trkpt lat="44.06798" lon="6.31083">
        <ele>1020.7</ele>
        <time>2021-09-11T10:00:16Z</time>
      </trkpt>
      <trkpt lat="44.06799" lon="6.31083">
        <ele>1020.7</ele>
        <time>2021-09-11T10:00:17Z</time>
      </trkpt>
      <trkpt lat="44.06799" lon="6.31081">
        <ele>1020.6</ele>
        <time>2021-09-11T10:00:19Z</time>
      </trkpt>
      <trkpt lat="44.06798" lon="6.31078">
        <ele>1020.4</ele>
        <time>2021-09-11T10:00:20Z</time>
      </trkpt>
      <trkpt lat="44.06798" lon="6.31076">
        <ele>1020.2</ele>
        <time>2021-09-11T10:00:21Z</time>
      </trkpt>
      <trkpt lat="44.06797" lon="6.31074">
        <ele>1019.9</ele>
        <time>2021-09-11T10:00:23Z</time>
      </trkpt>
      <trkpt lat="44.06796" lon="6.31069">
        <ele>1019.5</ele>
        <time>2021-09-11T10:00:24Z</time>
      </trkpt>
      <trkpt lat="44.06796" lon="6.31067">
        <ele>1019.2</ele>
        <time>2021-09-11T10:00:25Z</time>
      </trkpt>
      <trkpt lat="44.06796" lon="6.31063">
        <ele>1018.9</ele>
        <time>2021-09-11T10:00:27Z</time>
      </trkpt>
      <trkpt lat="44.06795" lon="6.31061">
        <ele>1018.6</ele>
        <time>2021-09-11T10:00:28Z</time>
      </trkpt>
      <trkpt lat="44.06793" lon="6.31055">
        <ele>1018</ele>
        <time>2021-09-11T10:00:30Z</time>
      </trkpt>
      <trkpt lat="44.06792" lon="6.31053">
        <ele>1017.8</ele>
        <time>2021-09-11T10:00:31Z</time>
      </trkpt>
      <trkpt lat="44.06791" lon="6.31051">
        <ele>1017.6</ele>
        <time>2021-09-11T10:00:33Z</time>
      </trkpt>
      <trkpt lat="44.06791" lon="6.3105">
        <ele>1017.4</ele>
        <time>2021-09-11T10:00:34Z</time>
      </trkpt>
      <trkpt lat="44.0679" lon="6.31046">
        <ele>1017.1</ele>
        <time>2021-09-11T10:00:35Z</time>
      </trkpt>
      <trkpt lat="44.0679" lon="6.31044">
        <ele>1016.9</ele>
        <time>2021-09-11T10:00:36Z</time>
      </trkpt>
      <trkpt lat="44.0679" lon="6.31041">
        <ele>1016.7</ele>
        <time>2021-09-11T10:00:38Z</time>
      </trkpt>
      <trkpt lat="44.0679" lon="6.31035">
        <ele>1016.1</ele>
        <time>2021-09-11T10:00:40Z</time>
      </trkpt>
      <trkpt lat="44.0679" lon="6.31028">
        <ele>1015.4</ele>
        <time>2021-09-11T10:00:41Z</time>
      </trkpt>
      <trkpt lat="44.0679" lon="6.3102">
        <ele>1014.6</ele>
        <time>2021-09-11T10:00:42Z</time>
      </trkpt>
      <trkpt lat="44.06789" lon="6.31014">
        <ele>1014</ele>
        <time>2021-09-11T10:00:44Z</time>
      </trkpt>
      <trkpt lat="44.06792" lon="6.31006">
        <ele>1013.1</ele>
        <time>2021-09-11T10:00:45Z</time>
      </trkpt>
      <trkpt lat="44.06794" lon="6.31">
        <ele>1012.5</ele>
        <time>2021-09-11T10:00:47Z</time>
      </trkpt>
      <trkpt lat="44.06795" lon="6.30998">
        <ele>1012.1</ele>
        <time>2021-09-11T10:00:48Z</time>
      </trkpt>
      <trkpt lat="44.06797" lon="6.30996">
        <ele>1011.9</ele>
        <time>2021-09-11T10:00:49Z</time>
      </trkpt>
      <trkpt lat="44.06797" lon="6.30995">
        <ele>1011.8</ele>
        <time>2021-09-11T10:00:51Z</time>
      </trkpt>
      <trkpt lat="44.06797" lon="6.30995">
        <ele>1011.8</ele>
        <time>2021-09-11T10:00:53Z</time>
      </trkpt>
      <trkpt lat="44.06797" lon="6.30995">
        <ele>1011.8</ele>
        <time>2021-09-11T10:00:54Z</time>
      </trkpt>
      <trkpt lat="44.06797" lon="6.30995">
        <ele>1011.7</ele>
        <time>2021-09-11T10:00:55Z</time>
      </trkpt>
      <trkpt lat="44.06792" lon="6.30988">
        <ele>1010.6</ele>
        <time>2021-09-11T10:01:06Z</time>
      </trkpt>
      <trkpt lat="44.06789" lon="6.30985">
        <ele>1010</ele>
        <time>2021-09-11T10:01:07Z</time>
      </trkpt>
      <trkpt lat="44.06785" lon="6.30982">
        <ele>1009.2</ele>
        <time>2021-09-11T10:01:09Z</time>
      </trkpt>
      <trkpt lat="44.06781" lon="6.3098">
        <ele>1008.3</ele>
        <time>2021-09-11T10:01:10Z</time>
      </trkpt>
      <trkpt lat="44.06777" lon="6.30978">
        <ele>1007.6</ele>
        <time>2021-09-11T10:01:12Z</time>
      </trkpt>
      <trkpt lat="44.06776" lon="6.30977">
        <ele>1007.4</ele>
        <time>2021-09-11T10:01:13Z</time>
      </trkpt>
      <trkpt lat="44.06772" lon="6.30973">
        <ele>1006.5</ele>
        <time>2021-09-11T10:01:14Z</time>
      </trkpt>
      <trkpt lat="44.0677" lon="6.3097">
        <ele>1005.9</ele>
        <time>2021-09-11T10:01:16Z</time>
      </trkpt>
      <trkpt lat="44.06769" lon="6.30966">
        <ele>1005.4</ele>
        <time>2021-09-11T10:01:17Z</time>
      </trkpt>
      <trkpt lat="44.06768" lon="6.30962">
        <ele>1005</ele>
        <time>2021-09-11T10:01:18Z</time>
      </trkpt>
      <trkpt lat="44.06767" lon="6.30958">
        <ele>1004.7</ele>
        <time>2021-09-11T10:01:19Z</time>
      </trkpt>
      <trkpt lat="44.06768" lon="6.30956">
        <ele>1004.5</ele>
        <time>2021-09-11T10:01:21Z</time>
      </trkpt>
      <trkpt lat="44.06768" lon="6.30954">
        <ele>1004.3</ele>
        <time>2021-09-11T10:01:22Z</time>
      </trkpt>
      <trkpt lat="44.06769" lon="6.30952">
        <ele>1004.1</ele>
        <time>2021-09-11T10:01:24Z</time>
      </trkpt>
      <trkpt lat="44.0677" lon="6.30951">
        <ele>1004.1</ele>
        <time>2021-09-11T10:01:25Z</time>
      </trkpt>
      <trkpt lat="44.06769" lon="6.30951">
        <ele>1004.1</ele>
        <time>2021-09-11T10:01:26Z</time>
      </trkpt>
      <trkpt lat="44.06769" lon="6.3095">
        <ele>1004.1</ele>
        <time>2021-09-11T10:01:27Z</time>
      </trkpt>
      <trkpt lat="44.06769" lon="6.3095">
        <ele>1004</ele>
        <time>2021-09-11T10:01:28Z</time>
      </trkpt>
      <trkpt lat="44.06769" lon="6.3095">
        <ele>1004</ele>
        <time>2021-09-11T10:01:30Z</time>
      </trkpt>
      <trkpt lat="44.06768" lon="6.3095">
        <ele>1004</ele>
        <time>2021-09-11T10:01:31Z</time>
      </trkpt>
      <trkpt lat="44.06768" lon="6.3095">
        <ele>1004</ele>
        <time>2021-09-11T10:01:33Z</time>
      </trkpt>
      <trkpt lat="44.06792" lon="6.30915">
        <ele>1004.6</ele>
        <time>2021-09-11T10:02:18Z</time>
      </trkpt>
      <trkpt lat="44.06795" lon="6.30913">
        <ele>1004.8</ele>
        <time>2021-09-11T10:02:20Z</time>
      </trkpt>
      <trkpt lat="44.06801" lon="6.3091">
        <ele>1004.9</ele>
        <time>2021-09-11T10:02:22Z</time>
      </trkpt>
      <trkpt lat="44.06806" lon="6.30908">
        <ele>1005</ele>
        <time>2021-09-11T10:02:24Z</time>
      </trkpt>
      <trkpt lat="44.0681" lon="6.30906">
        <ele>1004.9</ele>
        <time>2021-09-11T10:02:25Z</time>
      </trkpt>
      <trkpt lat="44.06812" lon="6.30905">
        <ele>1004.8</ele>
        <time>2021-09-11T10:02:26Z</time>
      </trkpt>
      <trkpt lat="44.06814" lon="6.30904">
        <ele>1004.7</ele>
        <time>2021-09-11T10:02:28Z</time>
      </trkpt>
      <trkpt lat="44.06818" lon="6.30901">
        <ele>1004.4</ele>
        <time>2021-09-11T10:02:30Z</time>
      </trkpt>
      <trkpt lat="44.06819" lon="6.309">
        <ele>1004.3</ele>
        <time>2021-09-11T10:02:31Z</time>
      </trkpt>
      <trkpt lat="44.06822" lon="6.30901">
        <ele>1004</ele>
        <time>2021-09-11T10:02:33Z</time>
      </trkpt>
      <trkpt lat="44.06823" lon="6.30903">
        <ele>1003.8</ele>
        <time>2021-09-11T10:02:34Z</time>
      </trkpt>
      <trkpt lat="44.06822" lon="6.30904">
        <ele>1003.7</ele>
        <time>2021-09-11T10:02:35Z</time>
      </trkpt>
      <trkpt lat="44.06819" lon="6.30906">
        <ele>1003.4</ele>
        <time>2021-09-11T10:02:37Z</time>
      </trkpt>
      <trkpt lat="44.06819" lon="6.30906">
        <ele>1003.4</ele>
        <time>2021-09-11T10:02:38Z</time>
      </trkpt>
      <trkpt lat="44.06819" lon="6.30906">
        <ele>1003.4</ele>
        <time>2021-09-11T10:02:39Z</time>
      </trkpt>
      <trkpt lat="44.06819" lon="6.30906">
        <ele>1003.4</ele>
        <time>2021-09-11T10:02:41Z</time>
      </trkpt>
      <trkpt lat="44.0682" lon="6.30906">
        <ele>1003.4</ele>
        <time>2021-09-11T10:02:43Z</time>
      </trkpt>
      <trkpt lat="44.0685" lon="6.30915">
        <ele>1001.9</ele>
        <time>2021-09-11T10:03:36Z</time>
      </trkpt>
      <trkpt lat="44.06854" lon="6.30916">
        <ele>1001.8</ele>
        <time>2021-09-11T10:03:37Z</time>
      </trkpt>
      <trkpt lat="44.06857" lon="6.30916">
        <ele>1001.8</ele>
        <time>2021-09-11T10:03:38Z</time>
      </trkpt>
      <trkpt lat="44.06862" lon="6.30916">
        <ele>1001.8</ele>
        <time>2021-09-11T10:03:40Z</time>
      </trkpt>
      <trkpt lat="44.06863" lon="6.30917">
        <ele>1001.8</ele>
        <time>2021-09-11T10:03:41Z</time>
      </trkpt>
      <trkpt lat="44.06864" lon="6.30918">
        <ele>1001.8</ele>
        <time>2021-09-11T10:03:43Z</time>
      </trkpt>
      <trkpt lat="44.06864" lon="6.30918">
        <ele>1001.8</ele>
        <time>2021-09-11T10:03:44Z</time>
      </trkpt>
      <trkpt lat="44.06859" lon="6.30916">
        <ele>1001.9</ele>
        <time>2021-09-11T10:03:46Z</time>
      </trkpt>
      <trkpt lat="44.06858" lon="6.30916">
        <ele>1001.9</ele>
        <time>2021-09-11T10:03:47Z</time>
      </trkpt>
      <trkpt lat="44.06859" lon="6.30915">
        <ele>1001.9</ele>
        <time>2021-09-11T10:03:49Z</time>
      </trkpt>
      <trkpt lat="44.06861" lon="6.30915">
        <ele>1002</ele>
        <time>2021-09-11T10:03:50Z</time>
      </trkpt>
      <trkpt lat="44.06862" lon="6.30914">
        <ele>1002</ele>
        <time>2021-09-11T10:03:52Z</time>
      </trkpt>
      <trkpt lat="44.06863" lon="6.30914">
        <ele>1002</ele>
        <time>2021-09-11T10:03:53Z</time>
      </trkpt>
      <trkpt lat="44.06878" lon="6.30919">
        <ele>1002.1</ele>
        <time>2021-09-11T10:04:05Z</time>
      </trkpt>
      <trkpt lat="44.06881" lon="6.30921">
        <ele>1002.1</ele>
        <time>2021-09-11T10:04:06Z</time>
      </trkpt>
      <trkpt lat="44.06882" lon="6.30921">
        <ele>1002.1</ele>
        <time>2021-09-11T10:04:08Z</time>
      </trkpt>
      <trkpt lat="44.06882" lon="6.30921">
        <ele>1002.1</ele>
        <time>2021-09-11T10:04:10Z</time>
      </trkpt>
      <trkpt lat="44.06883" lon="6.30922">
        <ele>1002.1</ele>
        <time>2021-09-11T10:04:12Z</time>
      </trkpt>
      <trkpt lat="44.06882" lon="6.30923">
        <ele>1002</ele>
        <time>2021-09-11T10:04:14Z</time>
      </trkpt>
      <trkpt lat="44.06882" lon="6.30924">
        <ele>1002</ele>
        <time>2021-09-11T10:04:15Z</time>
      </trkpt>
      <trkpt lat="44.06897" lon="6.30918">
        <ele>1001.7</ele>
        <time>2021-09-11T10:04:58Z</time>
      </trkpt>
      <trkpt lat="44.069" lon="6.30916">
        <ele>1001.7</ele>
        <time>2021-09-11T10:05:00Z</time>
      </trkpt>
      <trkpt lat="44.06903" lon="6.30913">
        <ele>1001.6</ele>
        <time>2021-09-11T10:05:01Z</time>
      </trkpt>
      <trkpt lat="44.06905" lon="6.30913">
        <ele>1001.6</ele>
        <time>2021-09-11T10:05:02Z</time>
      </trkpt>
      <trkpt lat="44.06909" lon="6.30911">
        <ele>1001.6</ele>
        <time>2021-09-11T10:05:05Z</time>
      </trkpt>
      <trkpt lat="44.06912" lon="6.3091">
        <ele>1001.5</ele>
        <time>2021-09-11T10:05:06Z</time>
      </trkpt>
      <trkpt lat="44.06914" lon="6.30909">
        <ele>1001.5</ele>
        <time>2021-09-11T10:05:07Z</time>
      </trkpt>
      <trkpt lat="44.06917" lon="6.30909">
        <ele>1001.4</ele>
        <time>2021-09-11T10:05:09Z</time>
      </trkpt>
      <trkpt lat="44.0692" lon="6.30908">
        <ele>1001.4</ele>
        <time>2021-09-11T10:05:10Z</time>
      </trkpt>
      <trkpt lat="44.06925" lon="6.30907">
        <ele>1001.2</ele>
        <time>2021-09-11T10:05:12Z</time>
      </trkpt>
      <trkpt lat="44.06927" lon="6.30906">
        <ele>1001.1</ele>
        <time>2021-09-11T10:05:13Z</time>
      </trkpt>
      <trkpt lat="44.06931" lon="6.30905">
        <ele>1000.9</ele>
        <time>2021-09-11T10:05:15Z</time>
      </trkpt>
      <trkpt lat="44.06937" lon="6.30903">
        <ele>1000.5</ele>
        <time>2021-09-11T10:05:16Z</time>
      </trkpt>
      <trkpt lat="44.0694" lon="6.30901">
        <ele>1000.1</ele>
        <time>2021-09-11T10:05:17Z</time>
      </trkpt>
      <trkpt lat="44.06944" lon="6.30898">
        <ele>999.8</ele>
        <time>2021-09-11T10:05:18Z</time>
      </trkpt>
      <trkpt lat="44.06947" lon="6.30894">
        <ele>999.4</ele>
        <time>2021-09-11T10:05:20Z</time>
      </trkpt>
      <trkpt lat="44.06948" lon="6.30893">
        <ele>999.3</ele>
        <time>2021-09-11T10:05:21Z</time>
      </trkpt>
      <trkpt lat="44.06952" lon="6.30892">
        <ele>999</ele>
        <time>2021-09-11T10:05:23Z</time>
      </trkpt>
      <trkpt lat="44.06952" lon="6.30893">
        <ele>998.9</ele>
        <time>2021-09-11T10:05:24Z</time>
      </trkpt>
      <trkpt lat="44.06956" lon="6.30895">
        <ele>998.6</ele>
        <time>2021-09-11T10:05:25Z</time>
      </trkpt>
      <trkpt lat="44.0696" lon="6.30895">
        <ele>998.3</ele>
        <time>2021-09-11T10:05:26Z</time>
      </trkpt>
      <trkpt lat="44.06963" lon="6.30896">
        <ele>998</ele>
        <time>2021-09-11T10:05:28Z</time>
      </trkpt>
      <trkpt lat="44.06964" lon="6.30896">
        <ele>997.9</ele>
        <time>2021-09-11T10:05:29Z</time>
      </trkpt>
      <trkpt lat="44.06969" lon="6.30896">
        <ele>997.6</ele>
        <time>2021-09-11T10:05:30Z</time>
      </trkpt>
      <trkpt lat="44.06971" lon="6.30896">
        <ele>997.4</ele>
        <time>2021-09-11T10:05:31Z</time>
      </trkpt>
      <trkpt lat="44.06975" lon="6.30896">
        <ele>997.1</ele>
        <time>2021-09-11T10:05:33Z</time>
      </trkpt>
      <trkpt lat="44.0698" lon="6.30898">
        <ele>996.7</ele>
        <time>2021-09-11T10:05:34Z</time>
      </trkpt>
      <trkpt lat="44.06982" lon="6.309">
        <ele>996.4</ele>
        <time>2021-09-11T10:05:35Z</time>
      </trkpt>
      <trkpt lat="44.06984" lon="6.30901">
        <ele>996.2</ele>
        <time>2021-09-11T10:05:37Z</time>
      </trkpt>
      <trkpt lat="44.06986" lon="6.30906">
        <ele>995.8</ele>
        <time>2021-09-11T10:05:38Z</time>
      </trkpt>
      <trkpt lat="44.06989" lon="6.30916">
        <ele>995</ele>
        <time>2021-09-11T10:05:40Z</time>
      </trkpt>
      <trkpt lat="44.0699" lon="6.30923">
        <ele>994.5</ele>
        <time>2021-09-11T10:05:41Z</time>
      </trkpt>
      <trkpt lat="44.06989" lon="6.30931">
        <ele>993.9</ele>
        <time>2021-09-11T10:05:43Z</time>
      </trkpt>
      <trkpt lat="44.0699" lon="6.30937">
        <ele>993.5</ele>
        <time>2021-09-11T10:05:44Z</time>
      </trkpt>
      <trkpt lat="44.06991" lon="6.30941">
        <ele>993.2</ele>
        <time>2021-09-11T10:05:45Z</time>
      </trkpt>
      <trkpt lat="44.06993" lon="6.30944">
        <ele>993</ele>
        <time>2021-09-11T10:05:46Z</time>
      </trkpt>
      <trkpt lat="44.06996" lon="6.30946">
        <ele>992.7</ele>
        <time>2021-09-11T10:05:47Z</time>
      </trkpt>
      <trkpt lat="44.06998" lon="6.3095">
        <ele>992.4</ele>
        <time>2021-09-11T10:05:48Z</time>
      </trkpt>
      <trkpt lat="44.07001" lon="6.30956">
        <ele>992</ele>
        <time>2021-09-11T10:05:50Z</time>
      </trkpt>
      <trkpt lat="44.07002" lon="6.30958">
        <ele>991.9</ele>
        <time>2021-09-11T10:05:51Z</time>
      </trkpt>
      <trkpt lat="44.07003" lon="6.30961">
        <ele>991.7</ele>
        <time>2021-09-11T10:05:52Z</time>
      </trkpt>
      <trkpt lat="44.07007" lon="6.30963">
        <ele>991.4</ele>
        <time>2021-09-11T10:05:54Z</time>
      </trkpt>
      <trkpt lat="44.0701" lon="6.30964">
        <ele>991.3</ele>
        <time>2021-09-11T10:05:55Z</time>
      </trkpt>
      <trkpt lat="44.07014" lon="6.30966">
        <ele>991</ele>
        <time>2021-09-11T10:05:56Z</time>
      </trkpt>
      <trkpt lat="44.07018" lon="6.30968">
        <ele>990.8</ele>
        <time>2021-09-11T10:05:57Z</time>
      </trkpt>
      <trkpt lat="44.07021" lon="6.30969">
        <ele>990.7</ele>
        <time>2021-09-11T10:05:58Z</time>
      </trkpt>
      <trkpt lat="44.07023" lon="6.30971">
        <ele>990.6</ele>
        <time>2021-09-11T10:05:59Z</time>
      </trkpt>
      <trkpt lat="44.07025" lon="6.30975">
        <ele>990.5</ele>
        <time>2021-09-11T10:06:00Z</time>
      </trkpt>
      <trkpt lat="44.07028" lon="6.3098">
        <ele>990.4</ele>
        <time>2021-09-11T10:06:02Z</time>
      </trkpt>
      <trkpt lat="44.07032" lon="6.30987">
        <ele>990.3</ele>
        <time>2021-09-11T10:06:03Z</time>
      </trkpt>
      <trkpt lat="44.07033" lon="6.30991">
        <ele>990.3</ele>
        <time>2021-09-11T10:06:05Z</time>
      </trkpt>
      <trkpt lat="44.07035" lon="6.30994">
        <ele>990.3</ele>
        <time>2021-09-11T10:06:06Z</time>
      </trkpt>
      <trkpt lat="44.07039" lon="6.31001">
        <ele>990.1</ele>
        <time>2021-09-11T10:06:08Z</time>
      </trkpt>
      <trkpt lat="44.07041" lon="6.31003">
        <ele>989.9</ele>
        <time>2021-09-11T10:06:09Z</time>
      </trkpt>
      <trkpt lat="44.07043" lon="6.31006">
        <ele>989.8</ele>
        <time>2021-09-11T10:06:10Z</time>
      </trkpt>
      <trkpt lat="44.07046" lon="6.3101">
        <ele>989.6</ele>
        <time>2021-09-11T10:06:11Z</time>
      </trkpt>
      <trkpt lat="44.07047" lon="6.31011">
        <ele>989.5</ele>
        <time>2021-09-11T10:06:12Z</time>
      </trkpt>
      <trkpt lat="44.07051" lon="6.31011">
        <ele>989.1</ele>
        <time>2021-09-11T10:06:14Z</time>
      </trkpt>
      <trkpt lat="44.07054" lon="6.31012">
        <ele>988.9</ele>
        <time>2021-09-11T10:06:15Z</time>
      </trkpt>
      <trkpt lat="44.07055" lon="6.31013">
        <ele>988.8</ele>
        <time>2021-09-11T10:06:16Z</time>
      </trkpt>
      <trkpt lat="44.07056" lon="6.31012">
        <ele>988.7</ele>
        <time>2021-09-11T10:06:17Z</time>
      </trkpt>
      <trkpt lat="44.07057" lon="6.31012">
        <ele>988.6</ele>
        <time>2021-09-11T10:06:18Z</time>
      </trkpt>
      <trkpt lat="44.07058" lon="6.31012">
        <ele>988.6</ele>
        <time>2021-09-11T10:06:20Z</time>
      </trkpt>
      <trkpt lat="44.07059" lon="6.31012">
        <ele>988.5</ele>
        <time>2021-09-11T10:06:21Z</time>
      </trkpt>
      <trkpt lat="44.07063" lon="6.31009">
        <ele>988.2</ele>
        <time>2021-09-11T10:06:22Z</time>
      </trkpt>
      <trkpt lat="44.07066" lon="6.31006">
        <ele>987.9</ele>
        <time>2021-09-11T10:06:24Z</time>
      </trkpt>
      <trkpt lat="44.07067" lon="6.31004">
        <ele>987.8</ele>
        <time>2021-09-11T10:06:25Z</time>
      </trkpt>
      <trkpt lat="44.07068" lon="6.31002">
        <ele>987.7</ele>
        <time>2021-09-11T10:06:27Z</time>
      </trkpt>
      <trkpt lat="44.07068" lon="6.30999">
        <ele>987.6</ele>
        <time>2021-09-11T10:06:28Z</time>
      </trkpt>
      <trkpt lat="44.07065" lon="6.31">
        <ele>987.4</ele>
        <time>2021-09-11T10:06:30Z</time>
      </trkpt>
      <trkpt lat="44.07064" lon="6.31">
        <ele>987.3</ele>
        <time>2021-09-11T10:06:31Z</time>
      </trkpt>
      <trkpt lat="44.07064" lon="6.30999">
        <ele>987.3</ele>
        <time>2021-09-11T10:06:33Z</time>
      </trkpt>
      <trkpt lat="44.07064" lon="6.30999">
        <ele>987.3</ele>
        <time>2021-09-11T10:06:34Z</time>
      </trkpt>
      <trkpt lat="44.07065" lon="6.30999">
        <ele>987.2</ele>
        <time>2021-09-11T10:06:35Z</time>
      </trkpt>
      <trkpt lat="44.07065" lon="6.30998">
        <ele>987.1</ele>
        <time>2021-09-11T10:06:37Z</time>
      </trkpt>
      <trkpt lat="44.07066" lon="6.30998">
        <ele>987.1</ele>
        <time>2021-09-11T10:06:38Z</time>
      </trkpt>
      <trkpt lat="44.07081" lon="6.31005">
        <ele>985.7</ele>
        <time>2021-09-11T10:06:53Z</time>
      </trkpt>
      <trkpt lat="44.07088" lon="6.31004">
        <ele>984.9</ele>
        <time>2021-09-11T10:06:55Z</time>
      </trkpt>
      <trkpt lat="44.07093" lon="6.31003">
        <ele>984.3</ele>
        <time>2021-09-11T10:06:56Z</time>
      </trkpt>
      <trkpt lat="44.07097" lon="6.31001">
        <ele>983.8</ele>
        <time>2021-09-11T10:06:57Z</time>
      </trkpt>
      <trkpt lat="44.071" lon="6.31">
        <ele>983.3</ele>
        <time>2021-09-11T10:06:58Z</time>
      </trkpt>
      <trkpt lat="44.07106" lon="6.30998">
        <ele>982.5</ele>
        <time>2021-09-11T10:07:00Z</time>
      </trkpt>
      <trkpt lat="44.0711" lon="6.30997">
        <ele>982.1</ele>
        <time>2021-09-11T10:07:02Z</time>
      </trkpt>
      <trkpt lat="44.07112" lon="6.30997">
        <ele>981.8</ele>
        <time>2021-09-11T10:07:03Z</time>
      </trkpt>
      <trkpt lat="44.07114" lon="6.30997">
        <ele>981.6</ele>
        <time>2021-09-11T10:07:04Z</time>
      </trkpt>
      <trkpt lat="44.07116" lon="6.30998">
        <ele>981.3</ele>
        <time>2021-09-11T10:07:06Z</time>
      </trkpt>
      <trkpt lat="44.07118" lon="6.30998">
        <ele>981</ele>
        <time>2021-09-11T10:07:08Z</time>
      </trkpt>
      <trkpt lat="44.0712" lon="6.30998">
        <ele>980.7</ele>
        <time>2021-09-11T10:07:09Z</time>
      </trkpt>
      <trkpt lat="44.07122" lon="6.30998">
        <ele>980.4</ele>
        <time>2021-09-11T10:07:10Z</time>
      </trkpt>
      <trkpt lat="44.07124" lon="6.30998">
        <ele>980.1</ele>
        <time>2021-09-11T10:07:12Z</time>
      </trkpt>
      <trkpt lat="44.07126" lon="6.30998">
        <ele>979.8</ele>
        <time>2021-09-11T10:07:13Z</time>
      </trkpt>
      <trkpt lat="44.07128" lon="6.30998">
        <ele>979.4</ele>
        <time>2021-09-11T10:07:14Z</time>
      </trkpt>
      <trkpt lat="44.0713" lon="6.30998">
        <ele>979.1</ele>
        <time>2021-09-11T10:07:15Z</time>
      </trkpt>
      <trkpt lat="44.07132" lon="6.30998">
        <ele>978.8</ele>
        <time>2021-09-11T10:07:17Z</time>
      </trkpt>
      <trkpt lat="44.07134" lon="6.30998">
        <ele>978.5</ele>
        <time>2021-09-11T10:07:19Z</time>
      </trkpt>
      <trkpt lat="44.07136" lon="6.30998">
        <ele>978.1</ele>
        <time>2021-09-11T10:07:20Z</time>
      </trkpt>
      <trkpt lat="44.07138" lon="6.30998">
        <ele>977.8</ele>
        <time>2021-09-11T10:08:34Z</time>
      </trkpt>
      <trkpt lat="44.0714" lon="6.30998">
        <ele>977.5</ele>
        <time>2021-09-11T10:08:35Z</time>
      </trkpt>
      <trkpt lat="44.07142" lon="6.30998">
        <ele>977.3</ele>
        <time>2021-09-11T10:08:36Z</time>
      </trkpt>
      <trkpt lat="44.07144" lon="6.31">
        <ele>977.1</ele>
        <time>2021-09-11T10:08:37Z</time>
      </trkpt>
      <trkpt lat="44.07145" lon="6.31001">
        <ele>976.9</ele>
        <time>2021-09-11T10:08:38Z</time>
      </trkpt>
      <trkpt lat="44.07148" lon="6.31001">
        <ele>976.7</ele>
        <time>2021-09-11T10:08:40Z</time>
      </trkpt>
      <trkpt lat="44.07148" lon="6.31003">
        <ele>976.6</ele>
        <time>2021-09-11T10:08:42Z</time>
      </trkpt>
      <trkpt lat="44.07148" lon="6.31003">
        <ele>976.5</ele>
        <time>2021-09-11T10:08:43Z</time>
      </trkpt>
      <trkpt lat="44.07148" lon="6.31003">
        <ele>976.5</ele>
        <time>2021-09-11T10:08:45Z</time>
      </trkpt>
      <trkpt lat="44.07149" lon="6.31003">
        <ele>976.5</ele>
        <time>2021-09-11T10:08:46Z</time>
      </trkpt>
      <trkpt lat="44.07149" lon="6.31003">
        <ele>976.4</ele>
        <time>2021-09-11T10:08:47Z</time>
      </trkpt>
      <trkpt lat="44.07151" lon="6.31004">
        <ele>976.3</ele>
        <time>2021-09-11T10:08:49Z</time>
      </trkpt>
      <trkpt lat="44.07152" lon="6.31005">
        <ele>976.3</ele>
        <time>2021-09-11T10:08:51Z</time>
      </trkpt>
      <trkpt lat="44.07191" lon="6.30968">
        <ele>975.8</ele>
        <time>2021-09-11T10:09:59Z</time>
      </trkpt>
      <trkpt lat="44.07195" lon="6.30966">
        <ele>975.8</ele>
        <time>2021-09-11T10:10:00Z</time>
      </trkpt>
      <trkpt lat="44.07198" lon="6.30963">
        <ele>975.9</ele>
        <time>2021-09-11T10:10:01Z</time>
      </trkpt>
      <trkpt lat="44.07203" lon="6.30961">
        <ele>976</ele>
        <time>2021-09-11T10:10:03Z</time>
      </trkpt>
      <trkpt lat="44.07209" lon="6.30957">
        <ele>976.2</ele>
        <time>2021-09-11T10:10:05Z</time>
      </trkpt>
      <trkpt lat="44.07213" lon="6.30953">
        <ele>976.4</ele>
        <time>2021-09-11T10:10:07Z</time>
      </trkpt>
      <trkpt lat="44.07215" lon="6.30952">
        <ele>976.4</ele>
        <time>2021-09-11T10:10:08Z</time>
      </trkpt>
      <trkpt lat="44.07216" lon="6.30952">
        <ele>976.5</ele>
        <time>2021-09-11T10:10:09Z</time>
      </trkpt>
      <trkpt lat="44.07219" lon="6.30949">
        <ele>976.6</ele>
        <time>2021-09-11T10:10:11Z</time>
      </trkpt>
      <trkpt lat="44.0722" lon="6.30949">
        <ele>976.7</ele>
        <time>2021-09-11T10:10:12Z</time>
      </trkpt>
      <trkpt lat="44.07221" lon="6.30948">
        <ele>976.7</ele>
        <time>2021-09-11T10:10:14Z</time>
      </trkpt>
      <trkpt lat="44.07222" lon="6.30948">
        <ele>976.7</ele>
        <time>2021-09-11T10:10:15Z</time>
      </trkpt>
      <trkpt lat="44.07222" lon="6.30947">
        <ele>976.8</ele>
        <time>2021-09-11T10:10:17Z</time>
      </trkpt>
      <trkpt lat="44.07223" lon="6.30947">
        <ele>976.8</ele>
        <time>2021-09-11T10:10:18Z</time>
      </trkpt>
      <trkpt lat="44.07224" lon="6.30947">
        <ele>976.8</ele>
        <time>2021-09-11T10:10:20Z</time>
      </trkpt>
      <trkpt lat="44.07225" lon="6.30946">
        <ele>976.9</ele>
        <time>2021-09-11T10:10:21Z</time>
      </trkpt>
      <trkpt lat="44.07227" lon="6.30946">
        <ele>976.9</ele>
        <time>2021-09-11T10:10:22Z</time>
      </trkpt>
      <trkpt lat="44.07228" lon="6.30946">
        <ele>977</ele>
        <time>2021-09-11T10:10:23Z</time>
      </trkpt>
      <trkpt lat="44.07229" lon="6.30945">
        <ele>977</ele>
        <time>2021-09-11T10:10:24Z</time>
      </trkpt>
      <trkpt lat="44.07231" lon="6.30945">
        <ele>977.1</ele>
        <time>2021-09-11T10:10:25Z</time>
      </trkpt>
      <trkpt lat="44.07234" lon="6.30944">
        <ele>977.1</ele>
        <time>2021-09-11T10:10:27Z</time>
      </trkpt>
      <trkpt lat="44.07235" lon="6.30944">
        <ele>977.2</ele>
        <time>2021-09-11T10:10:29Z</time>
      </trkpt>
      <trkpt lat="44.07235" lon="6.30944">
        <ele>977.2</ele>
        <time>2021-09-11T10:10:30Z</time>
      </trkpt>
      <trkpt lat="44.07235" lon="6.30944">
        <ele>977.2</ele>
        <time>2021-09-11T10:10:31Z</time>
      </trkpt>
      <trkpt lat="44.07235" lon="6.30945">
        <ele>977.2</ele>
        <time>2021-09-11T10:10:32Z</time>
      </trkpt>
      <trkpt lat="44.07236" lon="6.30946">
        <ele>977.2</ele>
        <time>2021-09-11T10:10:33Z</time>
      </trkpt>
      <trkpt lat="44.07237" lon="6.30947">
        <ele>977.2</ele>
        <time>2021-09-11T10:10:35Z</time>
      </trkpt>
      <trkpt lat="44.07247" lon="6.30946">
        <ele>977.3</ele>
        <time>2021-09-11T10:10:36Z</time>
      </trkpt>
      <trkpt lat="44.07256" lon="6.30942">
        <ele>976.1</ele>
        <time>2021-09-11T10:10:38Z</time>
      </trkpt>
      <trkpt lat="44.07266" lon="6.30939">
        <ele>975</ele>
        <time>2021-09-11T10:11:49Z</time>
      </trkpt>
      <trkpt lat="44.07275" lon="6.30936">
        <ele>973.6</ele>
        <time>2021-09-11T10:11:50Z</time>
      </trkpt>
      <trkpt lat="44.0728" lon="6.30931">
        <ele>972.8</ele>
        <time>2021-09-11T10:11:52Z</time>
      </trkpt>
      <trkpt lat="44.07284" lon="6.30927">
        <ele>971.9</ele>
        <time>2021-09-11T10:11:53Z</time>
      </trkpt>
      <trkpt lat="44.07289" lon="6.30923">
        <ele>971</ele>
        <time>2021-09-11T10:11:54Z</time>
      </trkpt>
      <trkpt lat="44.07294" lon="6.30917">
        <ele>969.8</ele>
        <time>2021-09-11T10:11:55Z</time>
      </trkpt>
      <trkpt lat="44.073" lon="6.30911">
        <ele>968.6</ele>
        <time>2021-09-11T10:11:57Z</time>
      </trkpt>
      <trkpt lat="44.07303" lon="6.3091">
        <ele>968</ele>
        <time>2021-09-11T10:11:58Z</time>
      </trkpt>
      <trkpt lat="44.07305" lon="6.30909">
        <ele>967.5</ele>
        <time>2021-09-11T10:11:59Z</time>
      </trkpt>
      <trkpt lat="44.0731" lon="6.30907">
        <ele>966.6</ele>
        <time>2021-09-11T10:12:01Z</time>
      </trkpt>
      <trkpt lat="44.07313" lon="6.30905">
        <ele>965.9</ele>
        <time>2021-09-11T10:12:02Z</time>
      </trkpt>
      <trkpt lat="44.07317" lon="6.30901">
        <ele>965</ele>
        <time>2021-09-11T10:12:03Z</time>
      </trkpt>
      <trkpt lat="44.07321" lon="6.30898">
        <ele>964.2</ele>
        <time>2021-09-11T10:12:04Z</time>
      </trkpt>
      <trkpt lat="44.07326" lon="6.30893">
        <ele>963</ele>
        <time>2021-09-11T10:12:06Z</time>
      </trkpt>
      <trkpt lat="44.0733" lon="6.30886">
        <ele>961.8</ele>
        <time>2021-09-11T10:12:07Z</time>
      </trkpt>
      <trkpt lat="44.07335" lon="6.30881">
        <ele>960.7</ele>
        <time>2021-09-11T10:12:08Z</time>
      </trkpt>
      <trkpt lat="44.07343" lon="6.30876">
        <ele>959.1</ele>
        <time>2021-09-11T10:12:10Z</time>
      </trkpt>
      <trkpt lat="44.07347" lon="6.30875">
        <ele>958.4</ele>
        <time>2021-09-11T10:12:11Z</time>
      </trkpt>
      <trkpt lat="44.07352" lon="6.30877">
        <ele>958.4</ele>
        <time>2021-09-11T10:12:13Z</time>
      </trkpt>
      <trkpt lat="44.07358" lon="6.30879">
        <ele>958.4</ele>
        <time>2021-09-11T10:12:14Z</time>
      </trkpt>
      <trkpt lat="44.07365" lon="6.30884">
        <ele>958.4</ele>
        <time>2021-09-11T10:12:15Z</time>
      </trkpt>
      <trkpt lat="44.07371" lon="6.30889">
        <ele>958.4</ele>
        <time>2021-09-11T10:12:17Z</time>
      </trkpt>
      <trkpt lat="44.07374" lon="6.30895">
        <ele>958.5</ele>
        <time>2021-09-11T10:12:19Z</time>
      </trkpt>
      <trkpt lat="44.07378" lon="6.30901">
        <ele>958.5</ele>
        <time>2021-09-11T10:12:20Z</time>
      </trkpt>
      <trkpt lat="44.0738" lon="6.30906">
        <ele>958.6</ele>
        <time>2021-09-11T10:12:21Z</time>
      </trkpt>
      <trkpt lat="44.07383" lon="6.30913">
        <ele>958.8</ele>
        <time>2021-09-11T10:12:23Z</time>
      </trkpt>
      <trkpt lat="44.07387" lon="6.30919">
        <ele>958.9</ele>
        <time>2021-09-11T10:12:24Z</time>
      </trkpt>
      <trkpt lat="44.07393" lon="6.30925">
        <ele>959.1</ele>
        <time>2021-09-11T10:12:26Z</time>
      </trkpt>
      <trkpt lat="44.07397" lon="6.30928">
        <ele>959.2</ele>
        <time>2021-09-11T10:12:27Z</time>
      </trkpt>
      <trkpt lat="44.074" lon="6.3093">
        <ele>959.3</ele>
        <time>2021-09-11T10:12:28Z</time>
      </trkpt>
      <trkpt lat="44.07403" lon="6.30933">
        <ele>959.5</ele>
        <time>2021-09-11T10:12:29Z</time>
      </trkpt>
      <trkpt lat="44.07408" lon="6.30938">
        <ele>959.7</ele>
        <time>2021-09-11T10:12:31Z</time>
      </trkpt>
      <trkpt lat="44.07413" lon="6.30943">
        <ele>960</ele>
        <time>2021-09-11T10:12:33Z</time>
      </trkpt>
      <trkpt lat="44.07417" lon="6.30948">
        <ele>960.3</ele>
        <time>2021-09-11T10:12:35Z</time>
      </trkpt>
      <trkpt lat="44.07419" lon="6.30951">
        <ele>960.5</ele>
        <time>2021-09-11T10:12:36Z</time>
      </trkpt>
      <trkpt lat="44.07422" lon="6.30955">
        <ele>960.7</ele>
        <time>2021-09-11T10:12:37Z</time>
      </trkpt>
      <trkpt lat="44.07423" lon="6.30957">
        <ele>960.7</ele>
        <time>2021-09-11T10:12:38Z</time>
      </trkpt>
      <trkpt lat="44.07426" lon="6.3096">
        <ele>960.9</ele>
        <time>2021-09-11T10:12:39Z</time>
      </trkpt>
      <trkpt lat="44.07432" lon="6.30963">
        <ele>961.2</ele>
        <time>2021-09-11T10:12:41Z</time>
      </trkpt>
      <trkpt lat="44.07437" lon="6.30964">
        <ele>961.4</ele>
        <time>2021-09-11T10:12:43Z</time>
      </trkpt>
      <trkpt lat="44.0744" lon="6.30964">
        <ele>961.5</ele>
        <time>2021-09-11T10:12:44Z</time>
      </trkpt>
      <trkpt lat="44.07441" lon="6.30963">
        <ele>961.6</ele>
        <time>2021-09-11T10:12:45Z</time>
      </trkpt>
      <trkpt lat="44.07444" lon="6.3096">
        <ele>961.7</ele>
        <time>2021-09-11T10:12:47Z</time>
      </trkpt>
      <trkpt lat="44.07445" lon="6.30959">
        <ele>961.8</ele>
        <time>2021-09-11T10:12:48Z</time>
      </trkpt>
      <trkpt lat="44.07446" lon="6.30957">
        <ele>961.8</ele>
        <time>2021-09-11T10:12:49Z</time>
      </trkpt>
      <trkpt lat="44.0745" lon="6.30956">
        <ele>962</ele>
        <time>2021-09-11T10:12:51Z</time>
      </trkpt>
      <trkpt lat="44.07452" lon="6.30955">
        <ele>962.1</ele>
        <time>2021-09-11T10:12:52Z</time>
      </trkpt>
      <trkpt lat="44.07455" lon="6.30954">
        <ele>962.1</ele>
        <time>2021-09-11T10:12:54Z</time>
      </trkpt>
      <trkpt lat="44.07459" lon="6.30953">
        <ele>962.3</ele>
        <time>2021-09-11T10:12:55Z</time>
      </trkpt>
      <trkpt lat="44.0746" lon="6.30953">
        <ele>962.3</ele>
        <time>2021-09-11T10:12:56Z</time>
      </trkpt>
      <trkpt lat="44.07465" lon="6.30953">
        <ele>962.5</ele>
        <time>2021-09-11T10:12:58Z</time>
      </trkpt>
      <trkpt lat="44.07468" lon="6.30954">
        <ele>962.5</ele>
        <time>2021-09-11T10:12:59Z</time>
      </trkpt>
      <trkpt lat="44.07474" lon="6.30955">
        <ele>962.7</ele>
        <time>2021-09-11T10:13:01Z</time>
      </trkpt>
      <trkpt lat="44.07477" lon="6.30956">
        <ele>962.8</ele>
        <time>2021-09-11T10:13:02Z</time>
      </trkpt>
      <trkpt lat="44.07478" lon="6.30956">
        <ele>962.8</ele>
        <time>2021-09-11T10:13:03Z</time>
      </trkpt>
      <trkpt lat="44.0748" lon="6.30957">
        <ele>962.8</ele>
        <time>2021-09-11T10:13:04Z</time>
      </trkpt>
      <trkpt lat="44.07481" lon="6.30957">
        <ele>962.8</ele>
        <time>2021-09-11T10:13:06Z</time>
      </trkpt>
      <trkpt lat="44.07482" lon="6.30958">
        <ele>962.8</ele>
        <time>2021-09-11T10:13:07Z</time>
      </trkpt>
      <trkpt lat="44.07486" lon="6.30958">
        <ele>962.9</ele>
        <time>2021-09-11T10:13:09Z</time>
      </trkpt>
      <trkpt lat="44.07487" lon="6.30958">
        <ele>962.9</ele>
        <time>2021-09-11T10:13:10Z</time>
      </trkpt>
      <trkpt lat="44.07491" lon="6.30961">
        <ele>962.9</ele>
        <time>2021-09-11T10:13:11Z</time>
      </trkpt>
      <trkpt lat="44.07492" lon="6.30962">
        <ele>962.9</ele>
        <time>2021-09-11T10:13:12Z</time>
      </trkpt>
      <trkpt lat="44.07494" lon="6.30964">
        <ele>962.9</ele>
        <time>2021-09-11T10:13:13Z</time>
      </trkpt>
      <trkpt lat="44.07497" lon="6.30968">
        <ele>962.9</ele>
        <time>2021-09-11T10:13:15Z</time>
      </trkpt>
      <trkpt lat="44.07499" lon="6.30972">
        <ele>962.8</ele>
        <time>2021-09-11T10:13:16Z</time>
      </trkpt>
      <trkpt lat="44.07502" lon="6.30978">
        <ele>962.7</ele>
        <time>2021-09-11T10:13:18Z</time>
      </trkpt>
      <trkpt lat="44.07504" lon="6.30984">
        <ele>962.5</ele>
        <time>2021-09-11T10:13:19Z</time>
      </trkpt>
      <trkpt lat="44.07507" lon="6.30995">
        <ele>962.2</ele>
        <time>2021-09-11T10:13:20Z</time>
      </trkpt>
      <trkpt lat="44.0751" lon="6.31003">
        <ele>962</ele>
        <time>2021-09-11T10:13:21Z</time>
      </trkpt>
      <trkpt lat="44.07513" lon="6.3101">
        <ele>961.8</ele>
        <time>2021-09-11T10:13:22Z</time>
      </trkpt>
      <trkpt lat="44.07519" lon="6.31022">
        <ele>961.6</ele>
        <time>2021-09-11T10:13:24Z</time>
      </trkpt>
      <trkpt lat="44.07524" lon="6.31035">
        <ele>961.5</ele>
        <time>2021-09-11T10:13:26Z</time>
      </trkpt>
      <trkpt lat="44.07526" lon="6.31041">
        <ele>961.4</ele>
        <time>2021-09-11T10:13:27Z</time>
      </trkpt>
      <trkpt lat="44.07527" lon="6.31055">
        <ele>961.4</ele>
        <time>2021-09-11T10:13:29Z</time>
      </trkpt>
      <trkpt lat="44.07529" lon="6.31069">
        <ele>961.2</ele>
        <time>2021-09-11T10:13:31Z</time>
      </trkpt>
      <trkpt lat="44.07531" lon="6.31081">
        <ele>961.1</ele>
        <time>2021-09-11T10:13:33Z</time>
      </trkpt>
      <trkpt lat="44.07533" lon="6.31085">
        <ele>961</ele>
        <time>2021-09-11T10:13:34Z</time>
      </trkpt>
      <trkpt lat="44.07535" lon="6.31089">
        <ele>960.9</ele>
        <time>2021-09-11T10:13:35Z</time>
      </trkpt>
      <trkpt lat="44.0754" lon="6.31092">
        <ele>960.9</ele>
        <time>2021-09-11T10:13:37Z</time>
      </trkpt>
      <trkpt lat="44.07547" lon="6.31083">
        <ele>960.9</ele>
        <time>2021-09-11T10:13:39Z</time>
      </trkpt>
      <trkpt lat="44.07548" lon="6.31082">
        <ele>960.9</ele>
        <time>2021-09-11T10:13:40Z</time>
      </trkpt>
      <trkpt lat="44.07549" lon="6.31078">
        <ele>961</ele>
        <time>2021-09-11T10:13:42Z</time>
      </trkpt>
      <trkpt lat="44.07552" lon="6.31064">
        <ele>961.3</ele>
        <time>2021-09-11T10:13:43Z</time>
      </trkpt>
      <trkpt lat="44.07555" lon="6.31052">
        <ele>961.9</ele>
        <time>2021-09-11T10:13:45Z</time>
      </trkpt>
      <trkpt lat="44.07557" lon="6.31046">
        <ele>962.2</ele>
        <time>2021-09-11T10:13:46Z</time>
      </trkpt>
      <trkpt lat="44.07557" lon="6.3104">
        <ele>962.5</ele>
        <time>2021-09-11T10:13:47Z</time>
      </trkpt>
      <trkpt lat="44.07557" lon="6.31025">
        <ele>963.4</ele>
        <time>2021-09-11T10:13:49Z</time>
      </trkpt>
      <trkpt lat="44.07558" lon="6.31014">
        <ele>964.2</ele>
        <time>2021-09-11T10:13:51Z</time>
      </trkpt>
      <trkpt lat="44.07559" lon="6.31007">
        <ele>964.7</ele>
        <time>2021-09-11T10:13:52Z</time>
      </trkpt>
      <trkpt lat="44.07561" lon="6.31003">
        <ele>965</ele>
        <time>2021-09-11T10:13:53Z</time>
      </trkpt>
      <trkpt lat="44.07563" lon="6.30998">
        <ele>965.4</ele>
        <time>2021-09-11T10:13:54Z</time>
      </trkpt>
      <trkpt lat="44.07564" lon="6.30995">
        <ele>965.7</ele>
        <time>2021-09-11T10:13:56Z</time>
      </trkpt>
      <trkpt lat="44.07565" lon="6.30988">
        <ele>966.3</ele>
        <time>2021-09-11T10:13:57Z</time>
      </trkpt>
      <trkpt lat="44.07567" lon="6.30985">
        <ele>966.6</ele>
        <time>2021-09-11T10:13:58Z</time>
      </trkpt>
      <trkpt lat="44.07569" lon="6.30979">
        <ele>967.1</ele>
        <time>2021-09-11T10:14:00Z</time>
      </trkpt>
      <trkpt lat="44.0757" lon="6.30976">
        <ele>967.3</ele>
        <time>2021-09-11T10:14:01Z</time>
      </trkpt>
      <trkpt lat="44.07571" lon="6.30974">
        <ele>967.5</ele>
        <time>2021-09-11T10:14:02Z</time>
      </trkpt>
      <trkpt lat="44.0757" lon="6.3097">
        <ele>967.9</ele>
        <time>2021-09-11T10:14:04Z</time>
      </trkpt>
      <trkpt lat="44.0757" lon="6.30968">
        <ele>968.1</ele>
        <time>2021-09-11T10:14:05Z</time>
      </trkpt>
      <trkpt lat="44.0757" lon="6.30964">
        <ele>968.4</ele>
        <time>2021-09-11T10:14:07Z</time>
      </trkpt>
      <trkpt lat="44.07571" lon="6.3096">
        <ele>968.8</ele>
        <time>2021-09-11T10:14:09Z</time>
      </trkpt>
      <trkpt lat="44.07573" lon="6.30957">
        <ele>969.3</ele>
        <time>2021-09-11T10:14:11Z</time>
      </trkpt>
      <trkpt lat="44.07575" lon="6.30955">
        <ele>969.6</ele>
        <time>2021-09-11T10:14:12Z</time>
      </trkpt>
      <trkpt lat="44.07576" lon="6.30952">
        <ele>969.9</ele>
        <time>2021-09-11T10:14:14Z</time>
      </trkpt>
      <trkpt lat="44.07578" lon="6.30948">
        <ele>970.4</ele>
        <time>2021-09-11T10:14:15Z</time>
      </trkpt>
      <trkpt lat="44.07579" lon="6.30947">
        <ele>970.6</ele>
        <time>2021-09-11T10:14:16Z</time>
      </trkpt>
      <trkpt lat="44.07581" lon="6.30943">
        <ele>971.1</ele>
        <time>2021-09-11T10:14:18Z</time>
      </trkpt>
      <trkpt lat="44.07583" lon="6.3094">
        <ele>971.5</ele>
        <time>2021-09-11T10:14:19Z</time>
      </trkpt>
      <trkpt lat="44.07586" lon="6.30936">
        <ele>972</ele>
        <time>2021-09-11T10:14:21Z</time>
      </trkpt>
      <trkpt lat="44.07589" lon="6.30933">
        <ele>972.6</ele>
        <time>2021-09-11T10:14:23Z</time>
      </trkpt>
      <trkpt lat="44.07591" lon="6.3093">
        <ele>972.9</ele>
        <time>2021-09-11T10:14:25Z</time>
      </trkpt>
      <trkpt lat="44.07591" lon="6.30928">
        <ele>973.2</ele>
        <time>2021-09-11T10:14:26Z</time>
      </trkpt>
      <trkpt lat="44.07592" lon="6.30926">
        <ele>973.4</ele>
        <time>2021-09-11T10:14:27Z</time>
      </trkpt>
      <trkpt lat="44.07594" lon="6.30923">
        <ele>973.9</ele>
        <time>2021-09-11T10:14:29Z</time>
      </trkpt>
      <trkpt lat="44.07595" lon="6.30922">
        <ele>974</ele>
        <time>2021-09-11T10:14:30Z</time>
      </trkpt>
      <trkpt lat="44.07597" lon="6.30922">
        <ele>974.3</ele>
        <time>2021-09-11T10:14:31Z</time>
      </trkpt>
      <trkpt lat="44.07599" lon="6.30922">
        <ele>974.6</ele>
        <time>2021-09-11T10:14:33Z</time>
      </trkpt>
      <trkpt lat="44.076" lon="6.30921">
        <ele>974.8</ele>
        <time>2021-09-11T10:14:35Z</time>
      </trkpt>
      <trkpt lat="44.07602" lon="6.3092">
        <ele>975</ele>
        <time>2021-09-11T10:14:36Z</time>
      </trkpt>
      <trkpt lat="44.07602" lon="6.30919">
        <ele>975.1</ele>
        <time>2021-09-11T10:14:37Z</time>
      </trkpt>
      <trkpt lat="44.07602" lon="6.30919">
        <ele>975.2</ele>
        <time>2021-09-11T10:14:38Z</time>
      </trkpt>
      <trkpt lat="44.07603" lon="6.3092">
        <ele>975.4</ele>
        <time>2021-09-11T10:14:40Z</time>
      </trkpt>
      <trkpt lat="44.07604" lon="6.30921">
        <ele>975.6</ele>
        <time>2021-09-11T10:14:42Z</time>
      </trkpt>
      <trkpt lat="44.07603" lon="6.30922">
        <ele>975.8</ele>
        <time>2021-09-11T10:14:44Z</time>
      </trkpt>
      <trkpt lat="44.07602" lon="6.30922">
        <ele>975.9</ele>
        <time>2021-09-11T10:14:45Z</time>
      </trkpt>
      <trkpt lat="44.07602" lon="6.30923">
        <ele>975.9</ele>
        <time>2021-09-11T10:14:46Z</time>
      </trkpt>
      <trkpt lat="44.07602" lon="6.30922">
        <ele>975.9</ele>
        <time>2021-09-11T10:14:47Z</time>
      </trkpt>
      <trkpt lat="44.07602" lon="6.30922">
        <ele>975.9</ele>
        <time>2021-09-11T10:14:49Z</time>
      </trkpt>
      <trkpt lat="44.07603" lon="6.30922">
        <ele>976</ele>
        <time>2021-09-11T10:14:50Z</time>
      </trkpt>
      <trkpt lat="44.07603" lon="6.30922">
        <ele>976</ele>
        <time>2021-09-11T10:14:51Z</time>
      </trkpt>
      <trkpt lat="44.07603" lon="6.30922">
        <ele>976</ele>
        <time>2021-09-11T10:14:53Z</time>
      </trkpt>
      <trkpt lat="44.07648" lon="6.30998">
        <ele>984.5</ele>
        <time>2021-09-11T10:16:50Z</time>
      </trkpt>
      <trkpt lat="44.0765" lon="6.30999">
        <ele>984.8</ele>
        <time>2021-09-11T10:16:51Z</time>
      </trkpt>
      <trkpt lat="44.07654" lon="6.31001">
        <ele>985.1</ele>
        <time>2021-09-11T10:16:53Z</time>
      </trkpt>
      <trkpt lat="44.07656" lon="6.31003">
        <ele>985.3</ele>
        <time>2021-09-11T10:16:54Z</time>
      </trkpt>
      <trkpt lat="44.07661" lon="6.31004">
        <ele>985.7</ele>
        <time>2021-09-11T10:16:56Z</time>
      </trkpt>
      <trkpt lat="44.07663" lon="6.31004">
        <ele>985.8</ele>
        <time>2021-09-11T10:16:57Z</time>
      </trkpt>
      <trkpt lat="44.07664" lon="6.31004">
        <ele>985.9</ele>
        <time>2021-09-11T10:16:58Z</time>
      </trkpt>
      <trkpt lat="44.07667" lon="6.31003">
        <ele>986</ele>
        <time>2021-09-11T10:16:59Z</time>
      </trkpt>
      <trkpt lat="44.07671" lon="6.31002">
        <ele>986.2</ele>
        <time>2021-09-11T10:17:01Z</time>
      </trkpt>
      <trkpt lat="44.07673" lon="6.31002">
        <ele>986.4</ele>
        <time>2021-09-11T10:17:02Z</time>
      </trkpt>
      <trkpt lat="44.07677" lon="6.31001">
        <ele>986.6</ele>
        <time>2021-09-11T10:17:04Z</time>
      </trkpt>
      <trkpt lat="44.07681" lon="6.31">
        <ele>986.7</ele>
        <time>2021-09-11T10:17:06Z</time>
      </trkpt>
      <trkpt lat="44.07683" lon="6.31">
        <ele>986.8</ele>
        <time>2021-09-11T10:17:07Z</time>
      </trkpt>
      <trkpt lat="44.07687" lon="6.30998">
        <ele>987</ele>
        <time>2021-09-11T10:17:09Z</time>
      </trkpt>
      <trkpt lat="44.07691" lon="6.30994">
        <ele>987.2</ele>
        <time>2021-09-11T10:17:11Z</time>
      </trkpt>
      <trkpt lat="44.07693" lon="6.30991">
        <ele>987.4</ele>
        <time>2021-09-11T10:17:12Z</time>
      </trkpt>
      <trkpt lat="44.07694" lon="6.30988">
        <ele>987.5</ele>
        <time>2021-09-11T10:17:13Z</time>
      </trkpt>
      <trkpt lat="44.07696" lon="6.30985">
        <ele>987.7</ele>
        <time>2021-09-11T10:17:14Z</time>
      </trkpt>
      <trkpt lat="44.07698" lon="6.30982">
        <ele>987.9</ele>
        <time>2021-09-11T10:17:16Z</time>
      </trkpt>
      <trkpt lat="44.077" lon="6.30981">
        <ele>988</ele>
        <time>2021-09-11T10:17:17Z</time>
      </trkpt>
      <trkpt lat="44.07701" lon="6.3098">
        <ele>988.1</ele>
        <time>2021-09-11T10:17:18Z</time>
      </trkpt>
      <trkpt lat="44.07704" lon="6.30978">
        <ele>988.4</ele>
        <time>2021-09-11T10:17:20Z</time>
      </trkpt>
      <trkpt lat="44.07704" lon="6.30977">
        <ele>988.5</ele>
        <time>2021-09-11T10:17:22Z</time>
      </trkpt>
      <trkpt lat="44.07704" lon="6.30976">
        <ele>988.5</ele>
        <time>2021-09-11T10:17:23Z</time>
      </trkpt>
      <trkpt lat="44.07705" lon="6.30976">
        <ele>988.6</ele>
        <time>2021-09-11T10:17:24Z</time>
      </trkpt>
      <trkpt lat="44.07706" lon="6.30975">
        <ele>988.7</ele>
        <time>2021-09-11T10:17:26Z</time>
      </trkpt>
      <trkpt lat="44.07707" lon="6.30974">
        <ele>988.8</ele>
        <time>2021-09-11T10:17:28Z</time>
      </trkpt>
      <trkpt lat="44.07708" lon="6.30974">
        <ele>988.9</ele>
        <time>2021-09-11T10:17:29Z</time>
      </trkpt>
      <trkpt lat="44.07709" lon="6.30973">
        <ele>989</ele>
        <time>2021-09-11T10:17:30Z</time>
      </trkpt>
      <trkpt lat="44.07716" lon="6.30968">
        <ele>990</ele>
        <time>2021-09-11T10:17:35Z</time>
      </trkpt>
      <trkpt lat="44.07721" lon="6.30964">
        <ele>990.7</ele>
        <time>2021-09-11T10:17:37Z</time>
      </trkpt>
      <trkpt lat="44.07726" lon="6.30963">
        <ele>991.3</ele>
        <time>2021-09-11T10:17:39Z</time>
      </trkpt>
      <trkpt lat="44.07729" lon="6.30961">
        <ele>991.7</ele>
        <time>2021-09-11T10:17:40Z</time>
      </trkpt>
      <trkpt lat="44.0773" lon="6.30961">
        <ele>991.9</ele>
        <time>2021-09-11T10:17:41Z</time>
      </trkpt>
      <trkpt lat="44.07733" lon="6.30957">
        <ele>992.3</ele>
        <time>2021-09-11T10:17:43Z</time>
      </trkpt>
      <trkpt lat="44.07734" lon="6.30953">
        <ele>992.8</ele>
        <time>2021-09-11T10:17:45Z</time>
      </trkpt>
      <trkpt lat="44.07735" lon="6.3095">
        <ele>993.1</ele>
        <time>2021-09-11T10:17:46Z</time>
      </trkpt>
      <trkpt lat="44.07735" lon="6.30948">
        <ele>993.3</ele>
        <time>2021-09-11T10:17:47Z</time>
      </trkpt>
      <trkpt lat="44.07736" lon="6.30945">
        <ele>993.6</ele>
        <time>2021-09-11T10:17:49Z</time>
      </trkpt>
      <trkpt lat="44.07738" lon="6.30941">
        <ele>994</ele>
        <time>2021-09-11T10:17:51Z</time>
      </trkpt>
      <trkpt lat="44.07739" lon="6.30939">
        <ele>994.3</ele>
        <time>2021-09-11T10:17:52Z</time>
      </trkpt>
      <trkpt lat="44.07739" lon="6.30938">
        <ele>994.4</ele>
        <time>2021-09-11T10:17:53Z</time>
      </trkpt>
      <trkpt lat="44.07741" lon="6.30935">
        <ele>994.7</ele>
        <time>2021-09-11T10:17:55Z</time>
      </trkpt>
      <trkpt lat="44.07741" lon="6.30934">
        <ele>994.9</ele>
        <time>2021-09-11T10:17:57Z</time>
      </trkpt>
      <trkpt lat="44.07743" lon="6.30932">
        <ele>995.1</ele>
        <time>2021-09-11T10:17:58Z</time>
      </trkpt>
      <trkpt lat="44.07744" lon="6.3093">
        <ele>995.4</ele>
        <time>2021-09-11T10:18:00Z</time>
      </trkpt>
      <trkpt lat="44.07746" lon="6.30928">
        <ele>995.6</ele>
        <time>2021-09-11T10:18:02Z</time>
      </trkpt>
      <trkpt lat="44.07747" lon="6.30927">
        <ele>995.7</ele>
        <time>2021-09-11T10:18:03Z</time>
      </trkpt>
      <trkpt lat="44.07748" lon="6.30926">
        <ele>995.9</ele>
        <time>2021-09-11T10:18:04Z</time>
      </trkpt>
      <trkpt lat="44.07749" lon="6.30924">
        <ele>996.2</ele>
        <time>2021-09-11T10:18:06Z</time>
      </trkpt>
      <trkpt lat="44.07751" lon="6.30921">
        <ele>996.5</ele>
        <time>2021-09-11T10:18:07Z</time>
      </trkpt>
      <trkpt lat="44.07752" lon="6.3092">
        <ele>996.6</ele>
        <time>2021-09-11T10:18:08Z</time>
      </trkpt>
      <trkpt lat="44.07754" lon="6.30919">
        <ele>996.8</ele>
        <time>2021-09-11T10:18:09Z</time>
      </trkpt>
      <trkpt lat="44.07755" lon="6.30916">
        <ele>997</ele>
        <time>2021-09-11T10:18:11Z</time>
      </trkpt>
      <trkpt lat="44.07756" lon="6.30912">
        <ele>997.3</ele>
        <time>2021-09-11T10:18:12Z</time>
      </trkpt>
      <trkpt lat="44.07756" lon="6.30911">
        <ele>997.4</ele>
        <time>2021-09-11T10:18:13Z</time>
      </trkpt>
      <trkpt lat="44.07757" lon="6.30905">
        <ele>997.8</ele>
        <time>2021-09-11T10:18:15Z</time>
      </trkpt>
      <trkpt lat="44.07757" lon="6.30903">
        <ele>998</ele>
        <time>2021-09-11T10:18:16Z</time>
      </trkpt>
      <trkpt lat="44.07758" lon="6.309">
        <ele>998.2</ele>
        <time>2021-09-11T10:18:17Z</time>
      </trkpt>
      <trkpt lat="44.07759" lon="6.30897">
        <ele>998.4</ele>
        <time>2021-09-11T10:18:19Z</time>
      </trkpt>
      <trkpt lat="44.07761" lon="6.30894">
        <ele>998.7</ele>
        <time>2021-09-11T10:18:20Z</time>
      </trkpt>
      <trkpt lat="44.07762" lon="6.30892">
        <ele>998.9</ele>
        <time>2021-09-11T10:18:22Z</time>
      </trkpt>
      <trkpt lat="44.07763" lon="6.3089">
        <ele>999</ele>
        <time>2021-09-11T10:18:23Z</time>
      </trkpt>
      <trkpt lat="44.07763" lon="6.30888">
        <ele>999.1</ele>
        <time>2021-09-11T10:18:24Z</time>
      </trkpt>
      <trkpt lat="44.07765" lon="6.30884">
        <ele>999.4</ele>
        <time>2021-09-11T10:18:26Z</time>
      </trkpt>
      <trkpt lat="44.07768" lon="6.30881">
        <ele>999.5</ele>
        <time>2021-09-11T10:18:27Z</time>
      </trkpt>
      <trkpt lat="44.0777" lon="6.30877">
        <ele>999.7</ele>
        <time>2021-09-11T10:18:28Z</time>
      </trkpt>
      <trkpt lat="44.07772" lon="6.30874">
        <ele>999.8</ele>
        <time>2021-09-11T10:18:29Z</time>
      </trkpt>
      <trkpt lat="44.07777" lon="6.30867">
        <ele>1000</ele>
        <time>2021-09-11T10:18:31Z</time>
      </trkpt>
      <trkpt lat="44.07781" lon="6.30861">
        <ele>1000</ele>
        <time>2021-09-11T10:18:33Z</time>
      </trkpt>
      <trkpt lat="44.07785" lon="6.30858">
        <ele>1000</ele>
        <time>2021-09-11T10:18:34Z</time>
      </trkpt>
      <trkpt lat="44.0779" lon="6.30853">
        <ele>1000</ele>
        <time>2021-09-11T10:18:36Z</time>
      </trkpt>
      <trkpt lat="44.07794" lon="6.30846">
        <ele>1000</ele>
        <time>2021-09-11T10:18:38Z</time>
      </trkpt>
      <trkpt lat="44.07797" lon="6.3084">
        <ele>1000</ele>
        <time>2021-09-11T10:18:39Z</time>
      </trkpt>
      <trkpt lat="44.078" lon="6.3083">
        <ele>1000.1</ele>
        <time>2021-09-11T10:18:41Z</time>
      </trkpt>
      <trkpt lat="44.07802" lon="6.30824">
        <ele>1000.2</ele>
        <time>2021-09-11T10:18:42Z</time>
      </trkpt>
      <trkpt lat="44.07804" lon="6.30818">
        <ele>1000.3</ele>
        <time>2021-09-11T10:18:43Z</time>
      </trkpt>
      <trkpt lat="44.07806" lon="6.3081">
        <ele>1000.4</ele>
        <time>2021-09-11T10:18:45Z</time>
      </trkpt>
      <trkpt lat="44.07807" lon="6.30806">
        <ele>1000.4</ele>
        <time>2021-09-11T10:18:46Z</time>
      </trkpt>
      <trkpt lat="44.07809" lon="6.30802">
        <ele>1000.5</ele>
        <time>2021-09-11T10:18:47Z</time>
      </trkpt>
      <trkpt lat="44.0781" lon="6.30798">
        <ele>1000.5</ele>
        <time>2021-09-11T10:18:48Z</time>
      </trkpt>
      <trkpt lat="44.07811" lon="6.30795">
        <ele>1000.6</ele>
        <time>2021-09-11T10:18:49Z</time>
      </trkpt>
      <trkpt lat="44.07813" lon="6.30789">
        <ele>1000.6</ele>
        <time>2021-09-11T10:18:51Z</time>
      </trkpt>
      <trkpt lat="44.07813" lon="6.30786">
        <ele>1000.6</ele>
        <time>2021-09-11T10:18:52Z</time>
      </trkpt>
      <trkpt lat="44.07813" lon="6.30784">
        <ele>1000.6</ele>
        <time>2021-09-11T10:18:53Z</time>
      </trkpt>
      <trkpt lat="44.07814" lon="6.3078">
        <ele>1000.6</ele>
        <time>2021-09-11T10:18:55Z</time>
      </trkpt>
      <trkpt lat="44.07815" lon="6.30775">
        <ele>1000.6</ele>
        <time>2021-09-11T10:18:56Z</time>
      </trkpt>
      <trkpt lat="44.07817" lon="6.3077">
        <ele>1000.6</ele>
        <time>2021-09-11T10:18:57Z</time>
      </trkpt>
      <trkpt lat="44.07817" lon="6.30768">
        <ele>1000.5</ele>
        <time>2021-09-11T10:18:58Z</time>
      </trkpt>
      <trkpt lat="44.07819" lon="6.30764">
        <ele>1000.5</ele>
        <time>2021-09-11T10:18:59Z</time>
      </trkpt>
      <trkpt lat="44.07821" lon="6.30759">
        <ele>1000.3</ele>
        <time>2021-09-11T10:19:00Z</time>
      </trkpt>
      <trkpt lat="44.07826" lon="6.30751">
        <ele>1000.1</ele>
        <time>2021-09-11T10:19:02Z</time>
      </trkpt>
      <trkpt lat="44.07828" lon="6.30747">
        <ele>1000</ele>
        <time>2021-09-11T10:19:03Z</time>
      </trkpt>
      <trkpt lat="44.07832" lon="6.30741">
        <ele>999.9</ele>
        <time>2021-09-11T10:19:05Z</time>
      </trkpt>
      <trkpt lat="44.07836" lon="6.30735">
        <ele>999.7</ele>
        <time>2021-09-11T10:19:06Z</time>
      </trkpt>
      <trkpt lat="44.07837" lon="6.30729">
        <ele>999.6</ele>
        <time>2021-09-11T10:19:07Z</time>
      </trkpt>
      <trkpt lat="44.07837" lon="6.30722">
        <ele>999.4</ele>
        <time>2021-09-11T10:19:08Z</time>
      </trkpt>
      <trkpt lat="44.07838" lon="6.30715">
        <ele>999.1</ele>
        <time>2021-09-11T10:19:09Z</time>
      </trkpt>
      <trkpt lat="44.07837" lon="6.30708">
        <ele>998.8</ele>
        <time>2021-09-11T10:19:10Z</time>
      </trkpt>
      <trkpt lat="44.07836" lon="6.30694">
        <ele>998.1</ele>
        <time>2021-09-11T10:19:12Z</time>
      </trkpt>
      <trkpt lat="44.07837" lon="6.30687">
        <ele>997.8</ele>
        <time>2021-09-11T10:19:13Z</time>
      </trkpt>
      <trkpt lat="44.07841" lon="6.30675">
        <ele>997</ele>
        <time>2021-09-11T10:19:15Z</time>
      </trkpt>
      <trkpt lat="44.07844" lon="6.30665">
        <ele>996.3</ele>
        <time>2021-09-11T10:19:17Z</time>
      </trkpt>
      <trkpt lat="44.07855" lon="6.30671">
        <ele>995</ele>
        <time>2021-09-11T10:19:18Z</time>
      </trkpt>
      <trkpt lat="44.0786" lon="6.30672">
        <ele>994.4</ele>
        <time>2021-09-11T10:19:19Z</time>
      </trkpt>
      <trkpt lat="44.07873" lon="6.30677">
        <ele>993.2</ele>
        <time>2021-09-11T10:19:21Z</time>
      </trkpt>
      <trkpt lat="44.0788" lon="6.30682">
        <ele>992.9</ele>
        <time>2021-09-11T10:19:22Z</time>
      </trkpt>
      <trkpt lat="44.07894" lon="6.30692">
        <ele>992.3</ele>
        <time>2021-09-11T10:19:24Z</time>
      </trkpt>
      <trkpt lat="44.079" lon="6.30697">
        <ele>992</ele>
        <time>2021-09-11T10:19:25Z</time>
      </trkpt>
      <trkpt lat="44.07914" lon="6.30704">
        <ele>991.2</ele>
        <time>2021-09-11T10:19:27Z</time>
      </trkpt>
      <trkpt lat="44.07926" lon="6.30706">
        <ele>990.3</ele>
        <time>2021-09-11T10:19:29Z</time>
      </trkpt>
      <trkpt lat="44.07928" lon="6.30697">
        <ele>989.8</ele>
        <time>2021-09-11T10:19:30Z</time>
      </trkpt>
      <trkpt lat="44.07926" lon="6.30675">
        <ele>988.7</ele>
        <time>2021-09-11T10:19:32Z</time>
      </trkpt>
      <trkpt lat="44.07925" lon="6.30658">
        <ele>988</ele>
        <time>2021-09-11T10:19:34Z</time>
      </trkpt>
      <trkpt lat="44.07926" lon="6.30651">
        <ele>987.6</ele>
        <time>2021-09-11T10:19:35Z</time>
      </trkpt>
      <trkpt lat="44.0793" lon="6.30641">
        <ele>987</ele>
        <time>2021-09-11T10:19:37Z</time>
      </trkpt>
      <trkpt lat="44.07933" lon="6.30638">
        <ele>986.6</ele>
        <time>2021-09-11T10:19:38Z</time>
      </trkpt>
      <trkpt lat="44.07942" lon="6.30632">
        <ele>985.8</ele>
        <time>2021-09-11T10:19:40Z</time>
      </trkpt>
      <trkpt lat="44.07951" lon="6.30633">
        <ele>984.9</ele>
        <time>2021-09-11T10:19:42Z</time>
      </trkpt>
      <trkpt lat="44.07952" lon="6.30633">
        <ele>984.8</ele>
        <time>2021-09-11T10:19:43Z</time>
      </trkpt>
      <trkpt lat="44.07953" lon="6.30633">
        <ele>984.6</ele>
        <time>2021-09-11T10:19:44Z</time>
      </trkpt>
      <trkpt lat="44.07961" lon="6.30636">
        <ele>983.7</ele>
        <time>2021-09-11T10:19:46Z</time>
      </trkpt>
      <trkpt lat="44.08007" lon="6.30721">
        <ele>973.5</ele>
        <time>2021-09-11T10:19:55Z</time>
      </trkpt>
      <trkpt lat="44.08011" lon="6.30764">
        <ele>969.6</ele>
        <time>2021-09-11T10:19:57Z</time>
      </trkpt>
      <trkpt lat="44.08011" lon="6.30782">
        <ele>969</ele>
        <time>2021-09-11T10:19:58Z</time>
      </trkpt>
      <trkpt lat="44.08014" lon="6.30808">
        <ele>968.5</ele>
        <time>2021-09-11T10:20:00Z</time>
      </trkpt>
      <trkpt lat="44.08015" lon="6.30816">
        <ele>968.4</ele>
        <time>2021-09-11T10:20:02Z</time>
      </trkpt>
      <trkpt lat="44.08014" lon="6.3082">
        <ele>968.3</ele>
        <time>2021-09-11T10:20:03Z</time>
      </trkpt>
      <trkpt lat="44.08014" lon="6.30833">
        <ele>968.2</ele>
        <time>2021-09-11T10:20:04Z</time>
      </trkpt>
      <trkpt lat="44.08013" lon="6.30851">
        <ele>967.8</ele>
        <time>2021-09-11T10:20:06Z</time>
      </trkpt>
      <trkpt lat="44.08013" lon="6.30863">
        <ele>967.4</ele>
        <time>2021-09-11T10:20:07Z</time>
      </trkpt>
      <trkpt lat="44.08013" lon="6.30876">
        <ele>967.1</ele>
        <time>2021-09-11T10:20:09Z</time>
      </trkpt>
      <trkpt lat="44.08016" lon="6.309">
        <ele>966.9</ele>
        <time>2021-09-11T10:20:10Z</time>
      </trkpt>
      <trkpt lat="44.08016" lon="6.309">
        <ele>966.9</ele>
        <time>2021-09-11T10:20:10Z</time>
      </trkpt>
      <trkpt lat="44.08019" lon="6.30933">
        <ele>967.4</ele>
        <time>2021-09-11T10:20:12Z</time>
      </trkpt>
      <trkpt lat="44.0802" lon="6.30947">
        <ele>967.8</ele>
        <time>2021-09-11T10:20:13Z</time>
      </trkpt>
      <trkpt lat="44.0802" lon="6.30959">
        <ele>968.2</ele>
        <time>2021-09-11T10:20:14Z</time>
      </trkpt>
      <trkpt lat="44.08022" lon="6.30969">
        <ele>968.6</ele>
        <time>2021-09-11T10:20:15Z</time>
      </trkpt>
      <trkpt lat="44.08022" lon="6.30977">
        <ele>968.9</ele>
        <time>2021-09-11T10:20:16Z</time>
      </trkpt>
      <trkpt lat="44.08023" lon="6.30983">
        <ele>969.1</ele>
        <time>2021-09-11T10:20:17Z</time>
      </trkpt>
      <trkpt lat="44.08021" lon="6.30987">
        <ele>969.2</ele>
        <time>2021-09-11T10:20:19Z</time>
      </trkpt>
      <trkpt lat="44.08019" lon="6.30992">
        <ele>969.3</ele>
        <time>2021-09-11T10:20:20Z</time>
      </trkpt>
      <trkpt lat="44.08021" lon="6.30999">
        <ele>969.2</ele>
        <time>2021-09-11T10:20:22Z</time>
      </trkpt>
      <trkpt lat="44.08023" lon="6.31005">
        <ele>969.1</ele>
        <time>2021-09-11T10:20:23Z</time>
      </trkpt>
      <trkpt lat="44.08025" lon="6.3101">
        <ele>969</ele>
        <time>2021-09-11T10:20:24Z</time>
      </trkpt>
      <trkpt lat="44.08029" lon="6.31013">
        <ele>968.8</ele>
        <time>2021-09-11T10:20:25Z</time>
      </trkpt>
      <trkpt lat="44.08035" lon="6.31015">
        <ele>968.5</ele>
        <time>2021-09-11T10:20:27Z</time>
      </trkpt>
      <trkpt lat="44.0804" lon="6.31016">
        <ele>968.2</ele>
        <time>2021-09-11T10:20:28Z</time>
      </trkpt>
      <trkpt lat="44.08042" lon="6.31015">
        <ele>968</ele>
        <time>2021-09-11T10:20:29Z</time>
      </trkpt>
      <trkpt lat="44.08055" lon="6.31003">
        <ele>967.4</ele>
        <time>2021-09-11T10:20:31Z</time>
      </trkpt>
      <trkpt lat="44.08065" lon="6.30992">
        <ele>967.2</ele>
        <time>2021-09-11T10:20:33Z</time>
      </trkpt>
      <trkpt lat="44.08075" lon="6.30982">
        <ele>966.7</ele>
        <time>2021-09-11T10:20:34Z</time>
      </trkpt>
      <trkpt lat="44.08084" lon="6.30972">
        <ele>966</ele>
        <time>2021-09-11T10:20:35Z</time>
      </trkpt>
      <trkpt lat="44.08093" lon="6.30964">
        <ele>965.4</ele>
        <time>2021-09-11T10:20:36Z</time>
      </trkpt>
      <trkpt lat="44.08098" lon="6.3096">
        <ele>965.1</ele>
        <time>2021-09-11T10:20:38Z</time>
      </trkpt>
      <trkpt lat="44.081" lon="6.30956">
        <ele>965</ele>
        <time>2021-09-11T10:20:39Z</time>
      </trkpt>
      <trkpt lat="44.08103" lon="6.30952">
        <ele>964.7</ele>
        <time>2021-09-11T10:20:40Z</time>
      </trkpt>
      <trkpt lat="44.08105" lon="6.3095">
        <ele>964.7</ele>
        <time>2021-09-11T10:20:42Z</time>
      </trkpt>
      <trkpt lat="44.08105" lon="6.3095">
        <ele>964.6</ele>
        <time>2021-09-11T10:20:43Z</time>
      </trkpt>
      <trkpt lat="44.08106" lon="6.30949">
        <ele>964.6</ele>
        <time>2021-09-11T10:20:44Z</time>
      </trkpt>
      <trkpt lat="44.08106" lon="6.30949">
        <ele>964.6</ele>
        <time>2021-09-11T10:20:45Z</time>
      </trkpt>
      <trkpt lat="44.08106" lon="6.30949">
        <ele>964.6</ele>
        <time>2021-09-11T10:20:47Z</time>
      </trkpt>
      <trkpt lat="44.08379" lon="6.30824">
        <ele>956</ele>
        <time>2021-09-11T10:21:32Z</time>
      </trkpt>
      <trkpt lat="44.08381" lon="6.30831">
        <ele>956.1</ele>
        <time>2021-09-11T10:21:33Z</time>
      </trkpt>
      <trkpt lat="44.08385" lon="6.30833">
        <ele>956.2</ele>
        <time>2021-09-11T10:21:35Z</time>
      </trkpt>
      <trkpt lat="44.0838" lon="6.30835">
        <ele>956.3</ele>
        <time>2021-09-11T10:21:36Z</time>
      </trkpt>
      <trkpt lat="44.08351" lon="6.30852">
        <ele>957</ele>
        <time>2021-09-11T10:21:37Z</time>
      </trkpt>
      <trkpt lat="44.08348" lon="6.30855">
        <ele>957.1</ele>
        <time>2021-09-11T10:21:39Z</time>
      </trkpt>
      <trkpt lat="44.08346" lon="6.30859">
        <ele>957.2</ele>
        <time>2021-09-11T10:21:40Z</time>
      </trkpt>
      <trkpt lat="44.08346" lon="6.3086">
        <ele>957.2</ele>
        <time>2021-09-11T10:21:42Z</time>
      </trkpt>
      <trkpt lat="44.08346" lon="6.3086">
        <ele>957.3</ele>
        <time>2021-09-11T10:21:43Z</time>
      </trkpt>
      <trkpt lat="44.08346" lon="6.30859">
        <ele>957.3</ele>
        <time>2021-09-11T10:21:44Z</time>
      </trkpt>
      <trkpt lat="44.08346" lon="6.30859">
        <ele>957.3</ele>
        <time>2021-09-11T10:21:46Z</time>
      </trkpt>
      <trkpt lat="44.08346" lon="6.30858">
        <ele>957.3</ele>
        <time>2021-09-11T10:21:47Z</time>
      </trkpt>
      <trkpt lat="44.08347" lon="6.30858">
        <ele>957.3</ele>
        <time>2021-09-11T10:21:48Z</time>
      </trkpt>
      <trkpt lat="44.08348" lon="6.30858">
        <ele>957.3</ele>
        <time>2021-09-11T10:21:49Z</time>
      </trkpt>
      <trkpt lat="44.08349" lon="6.30858">
        <ele>957.3</ele>
        <time>2021-09-11T10:21:51Z</time>
      </trkpt>
      <trkpt lat="44.08351" lon="6.30858">
        <ele>957.4</ele>
        <time>2021-09-11T10:21:52Z</time>
      </trkpt>
      <trkpt lat="44.08352" lon="6.30858">
        <ele>957.4</ele>
        <time>2021-09-11T10:21:53Z</time>
      </trkpt>
      <trkpt lat="44.08353" lon="6.30859">
        <ele>957.4</ele>
        <time>2021-09-11T10:21:55Z</time>
      </trkpt>
      <trkpt lat="44.08354" lon="6.30859">
        <ele>957.5</ele>
        <time>2021-09-11T10:21:56Z</time>
      </trkpt>
      <trkpt lat="44.08355" lon="6.30861">
        <ele>957.5</ele>
        <time>2021-09-11T10:21:57Z</time>
      </trkpt>
      <trkpt lat="44.08356" lon="6.30863">
        <ele>957.5</ele>
        <time>2021-09-11T10:21:59Z</time>
      </trkpt>
      <trkpt lat="44.08358" lon="6.30869">
        <ele>957.6</ele>
        <time>2021-09-11T10:22:00Z</time>
      </trkpt>
      <trkpt lat="44.08359" lon="6.30873">
        <ele>957.7</ele>
        <time>2021-09-11T10:22:01Z</time>
      </trkpt>
      <trkpt lat="44.08361" lon="6.30878">
        <ele>957.8</ele>
        <time>2021-09-11T10:22:02Z</time>
      </trkpt>
      <trkpt lat="44.08366" lon="6.30891">
        <ele>958</ele>
        <time>2021-09-11T10:22:03Z</time>
      </trkpt>
      <trkpt lat="44.0837" lon="6.30896">
        <ele>958</ele>
        <time>2021-09-11T10:22:05Z</time>
      </trkpt>
      <trkpt lat="44.08373" lon="6.30897">
        <ele>958.1</ele>
        <time>2021-09-11T10:22:06Z</time>
      </trkpt>
      <trkpt lat="44.08374" lon="6.30897">
        <ele>958.1</ele>
        <time>2021-09-11T10:22:07Z</time>
      </trkpt>
      <trkpt lat="44.08381" lon="6.30897">
        <ele>958.2</ele>
        <time>2021-09-11T10:22:09Z</time>
      </trkpt>
      <trkpt lat="44.08391" lon="6.30898">
        <ele>958.2</ele>
        <time>2021-09-11T10:22:10Z</time>
      </trkpt>
      <trkpt lat="44.084" lon="6.30901">
        <ele>958.3</ele>
        <time>2021-09-11T10:22:12Z</time>
      </trkpt>
      <trkpt lat="44.08404" lon="6.30902">
        <ele>958.3</ele>
        <time>2021-09-11T10:22:13Z</time>
      </trkpt>
      <trkpt lat="44.08407" lon="6.30904">
        <ele>958.3</ele>
        <time>2021-09-11T10:22:14Z</time>
      </trkpt>
      <trkpt lat="44.08408" lon="6.30905">
        <ele>958.3</ele>
        <time>2021-09-11T10:22:15Z</time>
      </trkpt>
      <trkpt lat="44.08411" lon="6.30906">
        <ele>958.3</ele>
        <time>2021-09-11T10:22:17Z</time>
      </trkpt>
      <trkpt lat="44.08414" lon="6.30908">
        <ele>958.4</ele>
        <time>2021-09-11T10:22:18Z</time>
      </trkpt>
      <trkpt lat="44.08415" lon="6.30909">
        <ele>958.4</ele>
        <time>2021-09-11T10:22:19Z</time>
      </trkpt>
      <trkpt lat="44.08417" lon="6.30912">
        <ele>958.4</ele>
        <time>2021-09-11T10:22:21Z</time>
      </trkpt>
      <trkpt lat="44.0842" lon="6.30917">
        <ele>958.4</ele>
        <time>2021-09-11T10:22:22Z</time>
      </trkpt>
      <trkpt lat="44.0842" lon="6.30919">
        <ele>958.4</ele>
        <time>2021-09-11T10:22:23Z</time>
      </trkpt>
      <trkpt lat="44.08422" lon="6.30922">
        <ele>958.4</ele>
        <time>2021-09-11T10:22:24Z</time>
      </trkpt>
      <trkpt lat="44.08423" lon="6.30923">
        <ele>958.4</ele>
        <time>2021-09-11T10:22:25Z</time>
      </trkpt>
      <trkpt lat="44.08426" lon="6.30927">
        <ele>958.4</ele>
        <time>2021-09-11T10:22:27Z</time>
      </trkpt>
      <trkpt lat="44.08427" lon="6.30929">
        <ele>958.4</ele>
        <time>2021-09-11T10:22:28Z</time>
      </trkpt>
      <trkpt lat="44.08428" lon="6.3093">
        <ele>958.4</ele>
        <time>2021-09-11T10:22:29Z</time>
      </trkpt>
      <trkpt lat="44.08429" lon="6.30932">
        <ele>958.4</ele>
        <time>2021-09-11T10:22:30Z</time>
      </trkpt>
      <trkpt lat="44.08429" lon="6.30934">
        <ele>958.4</ele>
        <time>2021-09-11T10:22:31Z</time>
      </trkpt>
      <trkpt lat="44.0843" lon="6.30936">
        <ele>958.4</ele>
        <time>2021-09-11T10:22:32Z</time>
      </trkpt>
      <trkpt lat="44.0843" lon="6.30938">
        <ele>958.4</ele>
        <time>2021-09-11T10:22:33Z</time>
      </trkpt>
      <trkpt lat="44.08432" lon="6.30942">
        <ele>958.4</ele>
        <time>2021-09-11T10:22:35Z</time>
      </trkpt>
      <trkpt lat="44.08436" lon="6.30949">
        <ele>958.3</ele>
        <time>2021-09-11T10:22:37Z</time>
      </trkpt>
      <trkpt lat="44.08438" lon="6.30953">
        <ele>958.3</ele>
        <time>2021-09-11T10:22:38Z</time>
      </trkpt>
      <trkpt lat="44.08442" lon="6.30956">
        <ele>958.3</ele>
        <time>2021-09-11T10:22:39Z</time>
      </trkpt>
      <trkpt lat="44.0845" lon="6.3096">
        <ele>958.2</ele>
        <time>2021-09-11T10:22:41Z</time>
      </trkpt>
      <trkpt lat="44.08458" lon="6.30969">
        <ele>958.2</ele>
        <time>2021-09-11T10:22:43Z</time>
      </trkpt>
      <trkpt lat="44.08463" lon="6.30973">
        <ele>958.2</ele>
        <time>2021-09-11T10:22:44Z</time>
      </trkpt>
      <trkpt lat="44.08467" lon="6.30976">
        <ele>958.1</ele>
        <time>2021-09-11T10:22:45Z</time>
      </trkpt>
      <trkpt lat="44.08472" lon="6.30979">
        <ele>958.1</ele>
        <time>2021-09-11T10:22:46Z</time>
      </trkpt>
      <trkpt lat="44.08484" lon="6.30988">
        <ele>958.3</ele>
        <time>2021-09-11T10:22:48Z</time>
      </trkpt>
      <trkpt lat="44.08488" lon="6.30991">
        <ele>958.4</ele>
        <time>2021-09-11T10:22:49Z</time>
      </trkpt>
      <trkpt lat="44.08489" lon="6.30994">
        <ele>958.5</ele>
        <time>2021-09-11T10:22:50Z</time>
      </trkpt>
      <trkpt lat="44.08492" lon="6.30998">
        <ele>958.7</ele>
        <time>2021-09-11T10:22:52Z</time>
      </trkpt>
      <trkpt lat="44.08498" lon="6.31001">
        <ele>958.9</ele>
        <time>2021-09-11T10:22:53Z</time>
      </trkpt>
      <trkpt lat="44.08501" lon="6.31004">
        <ele>959.1</ele>
        <time>2021-09-11T10:22:55Z</time>
      </trkpt>
      <trkpt lat="44.08501" lon="6.3101">
        <ele>959.4</ele>
        <time>2021-09-11T10:22:56Z</time>
      </trkpt>
      <trkpt lat="44.085" lon="6.31012">
        <ele>959.5</ele>
        <time>2021-09-11T10:22:57Z</time>
      </trkpt>
      <trkpt lat="44.085" lon="6.31015">
        <ele>959.6</ele>
        <time>2021-09-11T10:22:58Z</time>
      </trkpt>
      <trkpt lat="44.08499" lon="6.31018">
        <ele>959.7</ele>
        <time>2021-09-11T10:23:00Z</time>
      </trkpt>
      <trkpt lat="44.08496" lon="6.31021">
        <ele>959.9</ele>
        <time>2021-09-11T10:23:01Z</time>
      </trkpt>
      <trkpt lat="44.08492" lon="6.31027">
        <ele>960.2</ele>
        <time>2021-09-11T10:23:02Z</time>
      </trkpt>
      <trkpt lat="44.0849" lon="6.31032">
        <ele>960.5</ele>
        <time>2021-09-11T10:23:03Z</time>
      </trkpt>
      <trkpt lat="44.08486" lon="6.31038">
        <ele>960.8</ele>
        <time>2021-09-11T10:23:05Z</time>
      </trkpt>
      <trkpt lat="44.08484" lon="6.31041">
        <ele>960.9</ele>
        <time>2021-09-11T10:23:06Z</time>
      </trkpt>
      <trkpt lat="44.08482" lon="6.31046">
        <ele>961.1</ele>
        <time>2021-09-11T10:23:07Z</time>
      </trkpt>
      <trkpt lat="44.08481" lon="6.31048">
        <ele>961.2</ele>
        <time>2021-09-11T10:23:08Z</time>
      </trkpt>
      <trkpt lat="44.08481" lon="6.31052">
        <ele>961.3</ele>
        <time>2021-09-11T10:23:09Z</time>
      </trkpt>
      <trkpt lat="44.08481" lon="6.31053">
        <ele>961.4</ele>
        <time>2021-09-11T10:23:10Z</time>
      </trkpt>
      <trkpt lat="44.08483" lon="6.31059">
        <ele>961.6</ele>
        <time>2021-09-11T10:23:12Z</time>
      </trkpt>
      <trkpt lat="44.08486" lon="6.31064">
        <ele>961.7</ele>
        <time>2021-09-11T10:23:14Z</time>
      </trkpt>
      <trkpt lat="44.08489" lon="6.31069">
        <ele>961.8</ele>
        <time>2021-09-11T10:23:16Z</time>
      </trkpt>
      <trkpt lat="44.08491" lon="6.31074">
        <ele>961.7</ele>
        <time>2021-09-11T10:23:18Z</time>
      </trkpt>
      <trkpt lat="44.08494" lon="6.31078">
        <ele>961.7</ele>
        <time>2021-09-11T10:23:20Z</time>
      </trkpt>
      <trkpt lat="44.08497" lon="6.31083">
        <ele>961.5</ele>
        <time>2021-09-11T10:23:21Z</time>
      </trkpt>
      <trkpt lat="44.085" lon="6.31088">
        <ele>961.4</ele>
        <time>2021-09-11T10:23:22Z</time>
      </trkpt>
      <trkpt lat="44.08503" lon="6.31092">
        <ele>961.3</ele>
        <time>2021-09-11T10:23:23Z</time>
      </trkpt>
      <trkpt lat="44.08509" lon="6.31097">
        <ele>961.2</ele>
        <time>2021-09-11T10:23:24Z</time>
      </trkpt>
      <trkpt lat="44.08516" lon="6.31106">
        <ele>961.1</ele>
        <time>2021-09-11T10:23:26Z</time>
      </trkpt>
      <trkpt lat="44.08521" lon="6.31112">
        <ele>961.1</ele>
        <time>2021-09-11T10:23:28Z</time>
      </trkpt>
      <trkpt lat="44.08527" lon="6.31115">
        <ele>961.2</ele>
        <time>2021-09-11T10:23:29Z</time>
      </trkpt>
      <trkpt lat="44.08531" lon="6.31117">
        <ele>961.3</ele>
        <time>2021-09-11T10:23:31Z</time>
      </trkpt>
      <trkpt lat="44.08533" lon="6.3112">
        <ele>961.4</ele>
        <time>2021-09-11T10:23:32Z</time>
      </trkpt>
      <trkpt lat="44.08536" lon="6.31122">
        <ele>961.6</ele>
        <time>2021-09-11T10:23:33Z</time>
      </trkpt>
      <trkpt lat="44.08537" lon="6.31121">
        <ele>961.6</ele>
        <time>2021-09-11T10:23:34Z</time>
      </trkpt>
      <trkpt lat="44.08541" lon="6.3112">
        <ele>961.7</ele>
        <time>2021-09-11T10:23:36Z</time>
      </trkpt>
      <trkpt lat="44.08542" lon="6.3112">
        <ele>961.8</ele>
        <time>2021-09-11T10:23:37Z</time>
      </trkpt>
      <trkpt lat="44.08545" lon="6.31119">
        <ele>961.9</ele>
        <time>2021-09-11T10:23:39Z</time>
      </trkpt>
      <trkpt lat="44.08548" lon="6.31118">
        <ele>962.1</ele>
        <time>2021-09-11T10:23:40Z</time>
      </trkpt>
      <trkpt lat="44.0855" lon="6.31118">
        <ele>962.2</ele>
        <time>2021-09-11T10:23:41Z</time>
      </trkpt>
      <trkpt lat="44.08552" lon="6.31118">
        <ele>962.3</ele>
        <time>2021-09-11T10:23:43Z</time>
      </trkpt>
      <trkpt lat="44.08554" lon="6.3112">
        <ele>962.4</ele>
        <time>2021-09-11T10:23:44Z</time>
      </trkpt>
      <trkpt lat="44.08555" lon="6.31121">
        <ele>962.5</ele>
        <time>2021-09-11T10:23:45Z</time>
      </trkpt>
      <trkpt lat="44.08558" lon="6.31124">
        <ele>962.6</ele>
        <time>2021-09-11T10:23:46Z</time>
      </trkpt>
      <trkpt lat="44.08559" lon="6.31125">
        <ele>962.7</ele>
        <time>2021-09-11T10:23:47Z</time>
      </trkpt>
      <trkpt lat="44.08563" lon="6.31128">
        <ele>962.8</ele>
        <time>2021-09-11T10:23:49Z</time>
      </trkpt>
      <trkpt lat="44.08564" lon="6.31129">
        <ele>962.9</ele>
        <time>2021-09-11T10:23:50Z</time>
      </trkpt>
      <trkpt lat="44.08566" lon="6.3113">
        <ele>962.9</ele>
        <time>2021-09-11T10:23:51Z</time>
      </trkpt>
      <trkpt lat="44.08568" lon="6.31131">
        <ele>963</ele>
        <time>2021-09-11T10:23:52Z</time>
      </trkpt>
      <trkpt lat="44.08573" lon="6.3113">
        <ele>963</ele>
        <time>2021-09-11T10:23:54Z</time>
      </trkpt>
      <trkpt lat="44.08576" lon="6.3113">
        <ele>963</ele>
        <time>2021-09-11T10:23:55Z</time>
      </trkpt>
      <trkpt lat="44.08582" lon="6.31129">
        <ele>963</ele>
        <time>2021-09-11T10:23:57Z</time>
      </trkpt>
      <trkpt lat="44.08587" lon="6.31125">
        <ele>962.9</ele>
        <time>2021-09-11T10:23:58Z</time>
      </trkpt>
      <trkpt lat="44.08591" lon="6.31122">
        <ele>962.9</ele>
        <time>2021-09-11T10:23:59Z</time>
      </trkpt>
      <trkpt lat="44.08595" lon="6.3112">
        <ele>962.8</ele>
        <time>2021-09-11T10:24:00Z</time>
      </trkpt>
      <trkpt lat="44.086" lon="6.31118">
        <ele>962.7</ele>
        <time>2021-09-11T10:24:02Z</time>
      </trkpt>
      <trkpt lat="44.08606" lon="6.31117">
        <ele>962.7</ele>
        <time>2021-09-11T10:24:03Z</time>
      </trkpt>
      <trkpt lat="44.0861" lon="6.31115">
        <ele>962.7</ele>
        <time>2021-09-11T10:24:04Z</time>
      </trkpt>
      <trkpt lat="44.08614" lon="6.31113">
        <ele>962.7</ele>
        <time>2021-09-11T10:24:06Z</time>
      </trkpt>
      <trkpt lat="44.0862" lon="6.31111">
        <ele>962.8</ele>
        <time>2021-09-11T10:24:07Z</time>
      </trkpt>
      <trkpt lat="44.08623" lon="6.31109">
        <ele>962.9</ele>
        <time>2021-09-11T10:24:08Z</time>
      </trkpt>
      <trkpt lat="44.08626" lon="6.31108">
        <ele>962.9</ele>
        <time>2021-09-11T10:24:09Z</time>
      </trkpt>
      <trkpt lat="44.0863" lon="6.31108">
        <ele>963</ele>
        <time>2021-09-11T10:24:11Z</time>
      </trkpt>
      <trkpt lat="44.08634" lon="6.31109">
        <ele>963.1</ele>
        <time>2021-09-11T10:24:12Z</time>
      </trkpt>
      <trkpt lat="44.08636" lon="6.31109">
        <ele>963.2</ele>
        <time>2021-09-11T10:24:13Z</time>
      </trkpt>
      <trkpt lat="44.08638" lon="6.3111">
        <ele>963.3</ele>
        <time>2021-09-11T10:24:15Z</time>
      </trkpt>
      <trkpt lat="44.08641" lon="6.31111">
        <ele>963.4</ele>
        <time>2021-09-11T10:24:17Z</time>
      </trkpt>
      <trkpt lat="44.08642" lon="6.31113">
        <ele>963.5</ele>
        <time>2021-09-11T10:24:19Z</time>
      </trkpt>
      <trkpt lat="44.08644" lon="6.31113">
        <ele>963.6</ele>
        <time>2021-09-11T10:24:20Z</time>
      </trkpt>
      <trkpt lat="44.08647" lon="6.31115">
        <ele>963.7</ele>
        <time>2021-09-11T10:24:21Z</time>
      </trkpt>
      <trkpt lat="44.08648" lon="6.31116">
        <ele>963.7</ele>
        <time>2021-09-11T10:24:22Z</time>
      </trkpt>
      <trkpt lat="44.08649" lon="6.31118">
        <ele>963.9</ele>
        <time>2021-09-11T10:24:23Z</time>
      </trkpt>
      <trkpt lat="44.0865" lon="6.3112">
        <ele>964</ele>
        <time>2021-09-11T10:24:25Z</time>
      </trkpt>
      <trkpt lat="44.08651" lon="6.3112">
        <ele>964</ele>
        <time>2021-09-11T10:24:26Z</time>
      </trkpt>
      <trkpt lat="44.08652" lon="6.3112">
        <ele>964.1</ele>
        <time>2021-09-11T10:24:28Z</time>
      </trkpt>
      <trkpt lat="44.08653" lon="6.3112">
        <ele>964.1</ele>
        <time>2021-09-11T10:24:29Z</time>
      </trkpt>
      <trkpt lat="44.08655" lon="6.3112">
        <ele>964.2</ele>
        <time>2021-09-11T10:24:31Z</time>
      </trkpt>
      <trkpt lat="44.08657" lon="6.31121">
        <ele>964.4</ele>
        <time>2021-09-11T10:24:32Z</time>
      </trkpt>
      <trkpt lat="44.08658" lon="6.31122">
        <ele>964.4</ele>
        <time>2021-09-11T10:24:33Z</time>
      </trkpt>
      <trkpt lat="44.08661" lon="6.31124">
        <ele>964.6</ele>
        <time>2021-09-11T10:24:34Z</time>
      </trkpt>
      <trkpt lat="44.08663" lon="6.31124">
        <ele>964.8</ele>
        <time>2021-09-11T10:24:35Z</time>
      </trkpt>
      <trkpt lat="44.08668" lon="6.31124">
        <ele>965</ele>
        <time>2021-09-11T10:24:37Z</time>
      </trkpt>
      <trkpt lat="44.08671" lon="6.31126">
        <ele>965.2</ele>
        <time>2021-09-11T10:24:38Z</time>
      </trkpt>
      <trkpt lat="44.08674" lon="6.31129">
        <ele>965.4</ele>
        <time>2021-09-11T10:24:39Z</time>
      </trkpt>
      <trkpt lat="44.08675" lon="6.31132">
        <ele>965.5</ele>
        <time>2021-09-11T10:24:40Z</time>
      </trkpt>
      <trkpt lat="44.08676" lon="6.31137">
        <ele>965.7</ele>
        <time>2021-09-11T10:24:42Z</time>
      </trkpt>
      <trkpt lat="44.08676" lon="6.31142">
        <ele>965.9</ele>
        <time>2021-09-11T10:24:43Z</time>
      </trkpt>
      <trkpt lat="44.08676" lon="6.31146">
        <ele>966</ele>
        <time>2021-09-11T10:24:44Z</time>
      </trkpt>
      <trkpt lat="44.08677" lon="6.31152">
        <ele>966.2</ele>
        <time>2021-09-11T10:24:46Z</time>
      </trkpt>
      <trkpt lat="44.08677" lon="6.31154">
        <ele>966.3</ele>
        <time>2021-09-11T10:24:47Z</time>
      </trkpt>
      <trkpt lat="44.08678" lon="6.31156">
        <ele>966.4</ele>
        <time>2021-09-11T10:24:48Z</time>
      </trkpt>
      <trkpt lat="44.0868" lon="6.31158">
        <ele>966.5</ele>
        <time>2021-09-11T10:24:50Z</time>
      </trkpt>
      <trkpt lat="44.0868" lon="6.31159">
        <ele>966.6</ele>
        <time>2021-09-11T10:24:51Z</time>
      </trkpt>
      <trkpt lat="44.08681" lon="6.3116">
        <ele>966.6</ele>
        <time>2021-09-11T10:24:52Z</time>
      </trkpt>
      <trkpt lat="44.08682" lon="6.31163">
        <ele>966.7</ele>
        <time>2021-09-11T10:24:53Z</time>
      </trkpt>
      <trkpt lat="44.08684" lon="6.31166">
        <ele>966.9</ele>
        <time>2021-09-11T10:24:55Z</time>
      </trkpt>
      <trkpt lat="44.08686" lon="6.31169">
        <ele>967.1</ele>
        <time>2021-09-11T10:24:56Z</time>
      </trkpt>
      <trkpt lat="44.08687" lon="6.31169">
        <ele>967.2</ele>
        <time>2021-09-11T10:24:57Z</time>
      </trkpt>
      <trkpt lat="44.0869" lon="6.31171">
        <ele>967.4</ele>
        <time>2021-09-11T10:24:58Z</time>
      </trkpt>
      <trkpt lat="44.08691" lon="6.31172">
        <ele>967.5</ele>
        <time>2021-09-11T10:24:59Z</time>
      </trkpt>
      <trkpt lat="44.08695" lon="6.31175">
        <ele>967.9</ele>
        <time>2021-09-11T10:25:01Z</time>
      </trkpt>
      <trkpt lat="44.08696" lon="6.31176">
        <ele>968</ele>
        <time>2021-09-11T10:25:02Z</time>
      </trkpt>
      <trkpt lat="44.08697" lon="6.31177">
        <ele>968.1</ele>
        <time>2021-09-11T10:25:03Z</time>
      </trkpt>
      <trkpt lat="44.08701" lon="6.31179">
        <ele>968.4</ele>
        <time>2021-09-11T10:25:05Z</time>
      </trkpt>
      <trkpt lat="44.08705" lon="6.31183">
        <ele>968.8</ele>
        <time>2021-09-11T10:25:07Z</time>
      </trkpt>
      <trkpt lat="44.08706" lon="6.31183">
        <ele>968.9</ele>
        <time>2021-09-11T10:25:09Z</time>
      </trkpt>
      <trkpt lat="44.08708" lon="6.31184">
        <ele>969</ele>
        <time>2021-09-11T10:25:10Z</time>
      </trkpt>
      <trkpt lat="44.0871" lon="6.31185">
        <ele>969.2</ele>
        <time>2021-09-11T10:25:11Z</time>
      </trkpt>
      <trkpt lat="44.08712" lon="6.31185">
        <ele>969.3</ele>
        <time>2021-09-11T10:25:12Z</time>
      </trkpt>
      <trkpt lat="44.08714" lon="6.31183">
        <ele>969.5</ele>
        <time>2021-09-11T10:25:14Z</time>
      </trkpt>
      <trkpt lat="44.08714" lon="6.31183">
        <ele>969.5</ele>
        <time>2021-09-11T10:25:15Z</time>
      </trkpt>
      <trkpt lat="44.08718" lon="6.31177">
        <ele>969.8</ele>
        <time>2021-09-11T10:25:17Z</time>
      </trkpt>
      <trkpt lat="44.0872" lon="6.31174">
        <ele>970</ele>
        <time>2021-09-11T10:25:18Z</time>
      </trkpt>
      <trkpt lat="44.08723" lon="6.31169">
        <ele>970.3</ele>
        <time>2021-09-11T10:25:20Z</time>
      </trkpt>
      <trkpt lat="44.08726" lon="6.31166">
        <ele>970.4</ele>
        <time>2021-09-11T10:25:21Z</time>
      </trkpt>
      <trkpt lat="44.08727" lon="6.31163">
        <ele>971.1</ele>
        <time>2021-09-11T10:25:22Z</time>
      </trkpt>
      <trkpt lat="44.08729" lon="6.31162">
        <ele>971</ele>
        <time>2021-09-11T10:25:24Z</time>
      </trkpt>
      <trkpt lat="44.08728" lon="6.31166">
        <ele>971</ele>
        <time>2021-09-11T10:25:25Z</time>
      </trkpt>
      <trkpt lat="44.08728" lon="6.31167">
        <ele>971</ele>
        <time>2021-09-11T10:25:26Z</time>
      </trkpt>
      <trkpt lat="44.08729" lon="6.31169">
        <ele>971.1</ele>
        <time>2021-09-11T10:25:27Z</time>
      </trkpt>
      <trkpt lat="44.08729" lon="6.31173">
        <ele>971.1</ele>
        <time>2021-09-11T10:25:29Z</time>
      </trkpt>
      <trkpt lat="44.0873" lon="6.31176">
        <ele>971.1</ele>
        <time>2021-09-11T10:25:30Z</time>
      </trkpt>
      <trkpt lat="44.08731" lon="6.31176">
        <ele>971.5</ele>
        <time>2021-09-11T10:25:31Z</time>
      </trkpt>
      <trkpt lat="44.08731" lon="6.31181">
        <ele>971.6</ele>
        <time>2021-09-11T10:25:32Z</time>
      </trkpt>
      <trkpt lat="44.08727" lon="6.31188">
        <ele>971.9</ele>
        <time>2021-09-11T10:25:34Z</time>
      </trkpt>
      <trkpt lat="44.08721" lon="6.31193">
        <ele>972.3</ele>
        <time>2021-09-11T10:25:36Z</time>
      </trkpt>
      <trkpt lat="44.08716" lon="6.31197">
        <ele>972.5</ele>
        <time>2021-09-11T10:25:37Z</time>
      </trkpt>
      <trkpt lat="44.08713" lon="6.31202">
        <ele>972.8</ele>
        <time>2021-09-11T10:25:38Z</time>
      </trkpt>
      <trkpt lat="44.08709" lon="6.31206">
        <ele>973</ele>
        <time>2021-09-11T10:25:40Z</time>
      </trkpt>
      <trkpt lat="44.08707" lon="6.31209">
        <ele>973.2</ele>
        <time>2021-09-11T10:25:41Z</time>
      </trkpt>
      <trkpt lat="44.08706" lon="6.31212">
        <ele>973.3</ele>
        <time>2021-09-11T10:25:43Z</time>
      </trkpt>
      <trkpt lat="44.08707" lon="6.31213">
        <ele>973.3</ele>
        <time>2021-09-11T10:25:44Z</time>
      </trkpt>
      <trkpt lat="44.08708" lon="6.31214">
        <ele>973.4</ele>
        <time>2021-09-11T10:25:45Z</time>
      </trkpt>
      <trkpt lat="44.08709" lon="6.31218">
        <ele>973.6</ele>
        <time>2021-09-11T10:25:46Z</time>
      </trkpt>
      <trkpt lat="44.0871" lon="6.3122">
        <ele>973.7</ele>
        <time>2021-09-11T10:25:47Z</time>
      </trkpt>
      <trkpt lat="44.08712" lon="6.31222">
        <ele>973.9</ele>
        <time>2021-09-11T10:25:49Z</time>
      </trkpt>
      <trkpt lat="44.08714" lon="6.31222">
        <ele>974</ele>
        <time>2021-09-11T10:25:50Z</time>
      </trkpt>
      <trkpt lat="44.08717" lon="6.31223">
        <ele>974.3</ele>
        <time>2021-09-11T10:25:52Z</time>
      </trkpt>
      <trkpt lat="44.08719" lon="6.31222">
        <ele>974.4</ele>
        <time>2021-09-11T10:25:53Z</time>
      </trkpt>
      <trkpt lat="44.0872" lon="6.31219">
        <ele>974.6</ele>
        <time>2021-09-11T10:25:55Z</time>
      </trkpt>
      <trkpt lat="44.08722" lon="6.31216">
        <ele>974.8</ele>
        <time>2021-09-11T10:25:56Z</time>
      </trkpt>
      <trkpt lat="44.08723" lon="6.31214">
        <ele>975</ele>
        <time>2021-09-11T10:25:58Z</time>
      </trkpt>
      <trkpt lat="44.08724" lon="6.31215">
        <ele>975</ele>
        <time>2021-09-11T10:25:59Z</time>
      </trkpt>
      <trkpt lat="44.08724" lon="6.31215">
        <ele>975</ele>
        <time>2021-09-11T10:26:00Z</time>
      </trkpt>
      <trkpt lat="44.08724" lon="6.31215">
        <ele>975</ele>
        <time>2021-09-11T10:26:02Z</time>
      </trkpt>
      <trkpt lat="44.08724" lon="6.31215">
        <ele>975.1</ele>
        <time>2021-09-11T10:26:03Z</time>
      </trkpt>
      <trkpt lat="44.08725" lon="6.31215">
        <ele>975.1</ele>
        <time>2021-09-11T10:26:04Z</time>
      </trkpt>
      <trkpt lat="44.08727" lon="6.31211">
        <ele>975.4</ele>
        <time>2021-09-11T10:26:06Z</time>
      </trkpt>
      <trkpt lat="44.08728" lon="6.31207">
        <ele>975.6</ele>
        <time>2021-09-11T10:26:07Z</time>
      </trkpt>
      <trkpt lat="44.08728" lon="6.31204">
        <ele>975.8</ele>
        <time>2021-09-11T10:26:08Z</time>
      </trkpt>
      <trkpt lat="44.08728" lon="6.31199">
        <ele>976</ele>
        <time>2021-09-11T10:26:10Z</time>
      </trkpt>
      <trkpt lat="44.08728" lon="6.31196">
        <ele>976.2</ele>
        <time>2021-09-11T10:26:12Z</time>
      </trkpt>
      <trkpt lat="44.08728" lon="6.31194">
        <ele>976.3</ele>
        <time>2021-09-11T10:26:13Z</time>
      </trkpt>
      <trkpt lat="44.08731" lon="6.31193">
        <ele>976.5</ele>
        <time>2021-09-11T10:26:14Z</time>
      </trkpt>
      <trkpt lat="44.08732" lon="6.31192">
        <ele>976.6</ele>
        <time>2021-09-11T10:26:15Z</time>
      </trkpt>
      <trkpt lat="44.08734" lon="6.31192">
        <ele>976.7</ele>
        <time>2021-09-11T10:26:17Z</time>
      </trkpt>
      <trkpt lat="44.08735" lon="6.31191">
        <ele>976.8</ele>
        <time>2021-09-11T10:26:18Z</time>
      </trkpt>
      <trkpt lat="44.08737" lon="6.31191">
        <ele>976.9</ele>
        <time>2021-09-11T10:26:20Z</time>
      </trkpt>
      <trkpt lat="44.08738" lon="6.31191">
        <ele>977</ele>
        <time>2021-09-11T10:26:21Z</time>
      </trkpt>
      <trkpt lat="44.0874" lon="6.3119">
        <ele>977.1</ele>
        <time>2021-09-11T10:26:22Z</time>
      </trkpt>
      <trkpt lat="44.08743" lon="6.31191">
        <ele>977.3</ele>
        <time>2021-09-11T10:26:24Z</time>
      </trkpt>
      <trkpt lat="44.08743" lon="6.31191">
        <ele>977.4</ele>
        <time>2021-09-11T10:26:25Z</time>
      </trkpt>
      <trkpt lat="44.08746" lon="6.31191">
        <ele>977.7</ele>
        <time>2021-09-11T10:26:26Z</time>
      </trkpt>
      <trkpt lat="44.0875" lon="6.31191">
        <ele>977.9</ele>
        <time>2021-09-11T10:26:27Z</time>
      </trkpt>
      <trkpt lat="44.08753" lon="6.3119">
        <ele>978.2</ele>
        <time>2021-09-11T10:26:29Z</time>
      </trkpt>
      <trkpt lat="44.08756" lon="6.3119">
        <ele>978.5</ele>
        <time>2021-09-11T10:26:31Z</time>
      </trkpt>
      <trkpt lat="44.08758" lon="6.31189">
        <ele>978.6</ele>
        <time>2021-09-11T10:26:33Z</time>
      </trkpt>
      <trkpt lat="44.08759" lon="6.31188">
        <ele>978.7</ele>
        <time>2021-09-11T10:26:34Z</time>
      </trkpt>
      <trkpt lat="44.08761" lon="6.31185">
        <ele>979</ele>
        <time>2021-09-11T10:26:36Z</time>
      </trkpt>
      <trkpt lat="44.08764" lon="6.31184">
        <ele>979.2</ele>
        <time>2021-09-11T10:26:37Z</time>
      </trkpt>
      <trkpt lat="44.08766" lon="6.31182">
        <ele>979.4</ele>
        <time>2021-09-11T10:26:38Z</time>
      </trkpt>
      <trkpt lat="44.08769" lon="6.31178">
        <ele>979.7</ele>
        <time>2021-09-11T10:26:40Z</time>
      </trkpt>
      <trkpt lat="44.08772" lon="6.31175">
        <ele>980</ele>
        <time>2021-09-11T10:26:41Z</time>
      </trkpt>
      <trkpt lat="44.08774" lon="6.31171">
        <ele>980.3</ele>
        <time>2021-09-11T10:26:43Z</time>
      </trkpt>
      <trkpt lat="44.08775" lon="6.31166">
        <ele>980.5</ele>
        <time>2021-09-11T10:26:44Z</time>
      </trkpt>
      <trkpt lat="44.08777" lon="6.31163">
        <ele>980.7</ele>
        <time>2021-09-11T10:26:45Z</time>
      </trkpt>
      <trkpt lat="44.08778" lon="6.31163">
        <ele>980.8</ele>
        <time>2021-09-11T10:26:46Z</time>
      </trkpt>
      <trkpt lat="44.08781" lon="6.31163">
        <ele>981.1</ele>
        <time>2021-09-11T10:26:48Z</time>
      </trkpt>
      <trkpt lat="44.08783" lon="6.31163">
        <ele>981.2</ele>
        <time>2021-09-11T10:26:49Z</time>
      </trkpt>
      <trkpt lat="44.08785" lon="6.31165">
        <ele>981.4</ele>
        <time>2021-09-11T10:26:50Z</time>
      </trkpt>
      <trkpt lat="44.08787" lon="6.31166">
        <ele>981.5</ele>
        <time>2021-09-11T10:26:51Z</time>
      </trkpt>
      <trkpt lat="44.08788" lon="6.31166">
        <ele>981.6</ele>
        <time>2021-09-11T10:26:52Z</time>
      </trkpt>
      <trkpt lat="44.08788" lon="6.31167">
        <ele>981.7</ele>
        <time>2021-09-11T10:26:54Z</time>
      </trkpt>
      <trkpt lat="44.08789" lon="6.31168">
        <ele>981.8</ele>
        <time>2021-09-11T10:26:55Z</time>
      </trkpt>
      <trkpt lat="44.08791" lon="6.31169">
        <ele>981.9</ele>
        <time>2021-09-11T10:26:56Z</time>
      </trkpt>
      <trkpt lat="44.08792" lon="6.3117">
        <ele>982</ele>
        <time>2021-09-11T10:26:58Z</time>
      </trkpt>
      <trkpt lat="44.08793" lon="6.31171">
        <ele>982.1</ele>
        <time>2021-09-11T10:27:00Z</time>
      </trkpt>
      <trkpt lat="44.08794" lon="6.31171">
        <ele>982.2</ele>
        <time>2021-09-11T10:27:01Z</time>
      </trkpt>
      <trkpt lat="44.08795" lon="6.31171">
        <ele>982.2</ele>
        <time>2021-09-11T10:27:03Z</time>
      </trkpt>
      <trkpt lat="44.08795" lon="6.31171">
        <ele>982.3</ele>
        <time>2021-09-11T10:27:04Z</time>
      </trkpt>
      <trkpt lat="44.08796" lon="6.3117">
        <ele>982.3</ele>
        <time>2021-09-11T10:27:06Z</time>
      </trkpt>
      <trkpt lat="44.08811" lon="6.31173">
        <ele>983.1</ele>
        <time>2021-09-11T10:27:18Z</time>
      </trkpt>
      <trkpt lat="44.08819" lon="6.31175">
        <ele>983.5</ele>
        <time>2021-09-11T10:27:20Z</time>
      </trkpt>
      <trkpt lat="44.08825" lon="6.31176">
        <ele>983.8</ele>
        <time>2021-09-11T10:27:21Z</time>
      </trkpt>
      <trkpt lat="44.08828" lon="6.31178">
        <ele>983.9</ele>
        <time>2021-09-11T10:27:22Z</time>
      </trkpt>
      <trkpt lat="44.0883" lon="6.31179">
        <ele>984</ele>
        <time>2021-09-11T10:27:23Z</time>
      </trkpt>
      <trkpt lat="44.08833" lon="6.3118">
        <ele>984.2</ele>
        <time>2021-09-11T10:27:25Z</time>
      </trkpt>
      <trkpt lat="44.08836" lon="6.3118">
        <ele>984.3</ele>
        <time>2021-09-11T10:27:26Z</time>
      </trkpt>
      <trkpt lat="44.08837" lon="6.3118">
        <ele>984.3</ele>
        <time>2021-09-11T10:27:27Z</time>
      </trkpt>
      <trkpt lat="44.08839" lon="6.31181">
        <ele>984.4</ele>
        <time>2021-09-11T10:27:28Z</time>
      </trkpt>
      <trkpt lat="44.08842" lon="6.31183">
        <ele>984.5</ele>
        <time>2021-09-11T10:27:30Z</time>
      </trkpt>
      <trkpt lat="44.08846" lon="6.31184">
        <ele>984.7</ele>
        <time>2021-09-11T10:27:32Z</time>
      </trkpt>
      <trkpt lat="44.08847" lon="6.31184">
        <ele>984.8</ele>
        <time>2021-09-11T10:27:33Z</time>
      </trkpt>
      <trkpt lat="44.0885" lon="6.31187">
        <ele>984.9</ele>
        <time>2021-09-11T10:27:34Z</time>
      </trkpt>
      <trkpt lat="44.08852" lon="6.31188">
        <ele>984.9</ele>
        <time>2021-09-11T10:27:35Z</time>
      </trkpt>
      <trkpt lat="44.08854" lon="6.3119">
        <ele>985</ele>
        <time>2021-09-11T10:27:37Z</time>
      </trkpt>
      <trkpt lat="44.08854" lon="6.3119">
        <ele>985</ele>
        <time>2021-09-11T10:27:38Z</time>
      </trkpt>
      <trkpt lat="44.08855" lon="6.31191">
        <ele>985</ele>
        <time>2021-09-11T10:27:39Z</time>
      </trkpt>
      <trkpt lat="44.08858" lon="6.31194">
        <ele>985.1</ele>
        <time>2021-09-11T10:27:41Z</time>
      </trkpt>
      <trkpt lat="44.08861" lon="6.31197">
        <ele>985.3</ele>
        <time>2021-09-11T10:27:43Z</time>
      </trkpt>
      <trkpt lat="44.08862" lon="6.31201">
        <ele>985.4</ele>
        <time>2021-09-11T10:27:44Z</time>
      </trkpt>
      <trkpt lat="44.08863" lon="6.31204">
        <ele>985.4</ele>
        <time>2021-09-11T10:27:45Z</time>
      </trkpt>
      <trkpt lat="44.08865" lon="6.31208">
        <ele>985.5</ele>
        <time>2021-09-11T10:27:47Z</time>
      </trkpt>
      <trkpt lat="44.08867" lon="6.31212">
        <ele>985.7</ele>
        <time>2021-09-11T10:27:49Z</time>
      </trkpt>
      <trkpt lat="44.08868" lon="6.31214">
        <ele>985.7</ele>
        <time>2021-09-11T10:27:50Z</time>
      </trkpt>
      <trkpt lat="44.0887" lon="6.31217">
        <ele>985.8</ele>
        <time>2021-09-11T10:27:52Z</time>
      </trkpt>
      <trkpt lat="44.08873" lon="6.31218">
        <ele>985.9</ele>
        <time>2021-09-11T10:27:53Z</time>
      </trkpt>
      <trkpt lat="44.08876" lon="6.31215">
        <ele>986.1</ele>
        <time>2021-09-11T10:27:55Z</time>
      </trkpt>
      <trkpt lat="44.08879" lon="6.31214">
        <ele>986.2</ele>
        <time>2021-09-11T10:27:56Z</time>
      </trkpt>
      <trkpt lat="44.08883" lon="6.31215">
        <ele>986.3</ele>
        <time>2021-09-11T10:27:58Z</time>
      </trkpt>
      <trkpt lat="44.08886" lon="6.31214">
        <ele>986.5</ele>
        <time>2021-09-11T10:27:59Z</time>
      </trkpt>
      <trkpt lat="44.08887" lon="6.31213">
        <ele>986.5</ele>
        <time>2021-09-11T10:28:00Z</time>
      </trkpt>
      <trkpt lat="44.08891" lon="6.31213">
        <ele>986.6</ele>
        <time>2021-09-11T10:28:02Z</time>
      </trkpt>
      <trkpt lat="44.08894" lon="6.31212">
        <ele>986.8</ele>
        <time>2021-09-11T10:28:04Z</time>
      </trkpt>
      <trkpt lat="44.08898" lon="6.31212">
        <ele>986.9</ele>
        <time>2021-09-11T10:28:06Z</time>
      </trkpt>
      <trkpt lat="44.08898" lon="6.31212">
        <ele>986.9</ele>
        <time>2021-09-11T10:28:07Z</time>
      </trkpt>
      <trkpt lat="44.089" lon="6.31212">
        <ele>987</ele>
        <time>2021-09-11T10:28:08Z</time>
      </trkpt>
      <trkpt lat="44.08903" lon="6.31212">
        <ele>987.1</ele>
        <time>2021-09-11T10:28:10Z</time>
      </trkpt>
      <trkpt lat="44.08906" lon="6.31213">
        <ele>987.2</ele>
        <time>2021-09-11T10:28:12Z</time>
      </trkpt>
      <trkpt lat="44.08908" lon="6.31219">
        <ele>987.4</ele>
        <time>2021-09-11T10:28:14Z</time>
      </trkpt>
      <trkpt lat="44.08912" lon="6.31225">
        <ele>987.7</ele>
        <time>2021-09-11T10:28:16Z</time>
      </trkpt>
      <trkpt lat="44.08914" lon="6.31226">
        <ele>987.8</ele>
        <time>2021-09-11T10:28:17Z</time>
      </trkpt>
      <trkpt lat="44.08916" lon="6.31228">
        <ele>987.9</ele>
        <time>2021-09-11T10:28:19Z</time>
      </trkpt>
      <trkpt lat="44.0892" lon="6.31229">
        <ele>988</ele>
        <time>2021-09-11T10:28:20Z</time>
      </trkpt>
      <trkpt lat="44.08921" lon="6.31229">
        <ele>988.1</ele>
        <time>2021-09-11T10:28:21Z</time>
      </trkpt>
      <trkpt lat="44.08923" lon="6.3123">
        <ele>988.2</ele>
        <time>2021-09-11T10:28:22Z</time>
      </trkpt>
      <trkpt lat="44.08924" lon="6.31231">
        <ele>988.2</ele>
        <time>2021-09-11T10:28:23Z</time>
      </trkpt>
      <trkpt lat="44.08928" lon="6.3123">
        <ele>988.4</ele>
        <time>2021-09-11T10:28:25Z</time>
      </trkpt>
      <trkpt lat="44.0893" lon="6.31229">
        <ele>988.5</ele>
        <time>2021-09-11T10:28:26Z</time>
      </trkpt>
      <trkpt lat="44.08934" lon="6.31226">
        <ele>988.7</ele>
        <time>2021-09-11T10:28:28Z</time>
      </trkpt>
      <trkpt lat="44.08937" lon="6.31222">
        <ele>988.8</ele>
        <time>2021-09-11T10:28:29Z</time>
      </trkpt>
      <trkpt lat="44.08939" lon="6.31218">
        <ele>989</ele>
        <time>2021-09-11T10:28:30Z</time>
      </trkpt>
      <trkpt lat="44.08941" lon="6.31214">
        <ele>989.1</ele>
        <time>2021-09-11T10:28:32Z</time>
      </trkpt>
      <trkpt lat="44.08943" lon="6.31213">
        <ele>989.2</ele>
        <time>2021-09-11T10:28:33Z</time>
      </trkpt>
      <trkpt lat="44.08944" lon="6.31212">
        <ele>989.2</ele>
        <time>2021-09-11T10:28:35Z</time>
      </trkpt>
      <trkpt lat="44.08944" lon="6.31212">
        <ele>989.2</ele>
        <time>2021-09-11T10:28:36Z</time>
      </trkpt>
      <trkpt lat="44.08944" lon="6.31212">
        <ele>989.3</ele>
        <time>2021-09-11T10:28:37Z</time>
      </trkpt>
      <trkpt lat="44.08944" lon="6.31213">
        <ele>989.3</ele>
        <time>2021-09-11T10:28:39Z</time>
      </trkpt>
      <trkpt lat="44.08944" lon="6.31213">
        <ele>989.3</ele>
        <time>2021-09-11T10:28:41Z</time>
      </trkpt>
      <trkpt lat="44.08944" lon="6.31212">
        <ele>989.3</ele>
        <time>2021-09-11T10:28:42Z</time>
      </trkpt>
      <trkpt lat="44.08944" lon="6.31212">
        <ele>989.3</ele>
        <time>2021-09-11T10:28:44Z</time>
      </trkpt>
      <trkpt lat="44.08919" lon="6.3124">
        <ele>990.3</ele>
        <time>2021-09-11T10:44:16Z</time>
      </trkpt>
      <trkpt lat="44.08914" lon="6.3124">
        <ele>990.5</ele>
        <time>2021-09-11T10:44:18Z</time>
      </trkpt>
      <trkpt lat="44.08913" lon="6.3124">
        <ele>990.5</ele>
        <time>2021-09-11T10:44:19Z</time>
      </trkpt>
      <trkpt lat="44.08909" lon="6.31243">
        <ele>990.6</ele>
        <time>2021-09-11T10:44:21Z</time>
      </trkpt>
      <trkpt lat="44.08907" lon="6.31245">
        <ele>990.7</ele>
        <time>2021-09-11T10:44:23Z</time>
      </trkpt>
      <trkpt lat="44.08907" lon="6.31246">
        <ele>990.7</ele>
        <time>2021-09-11T10:44:24Z</time>
      </trkpt>
      <trkpt lat="44.08908" lon="6.31246">
        <ele>990.7</ele>
        <time>2021-09-11T10:44:26Z</time>
      </trkpt>
      <trkpt lat="44.08909" lon="6.31245">
        <ele>990.8</ele>
        <time>2021-09-11T10:44:27Z</time>
      </trkpt>
      <trkpt lat="44.0891" lon="6.31245">
        <ele>990.8</ele>
        <time>2021-09-11T10:44:28Z</time>
      </trkpt>
      <trkpt lat="44.0891" lon="6.31245">
        <ele>990.8</ele>
        <time>2021-09-11T10:44:29Z</time>
      </trkpt>
      <trkpt lat="44.08911" lon="6.31244">
        <ele>990.8</ele>
        <time>2021-09-11T10:44:31Z</time>
      </trkpt>
      <trkpt lat="44.08912" lon="6.31244">
        <ele>990.8</ele>
        <time>2021-09-11T10:44:32Z</time>
      </trkpt>
      <trkpt lat="44.0892" lon="6.31239">
        <ele>991.1</ele>
        <time>2021-09-11T10:44:34Z</time>
      </trkpt>
      <trkpt lat="44.08922" lon="6.31238">
        <ele>991.2</ele>
        <time>2021-09-11T10:44:35Z</time>
      </trkpt>
      <trkpt lat="44.08924" lon="6.31236">
        <ele>991.2</ele>
        <time>2021-09-11T10:44:37Z</time>
      </trkpt>
      <trkpt lat="44.08925" lon="6.31236">
        <ele>991.3</ele>
        <time>2021-09-11T10:44:39Z</time>
      </trkpt>
      <trkpt lat="44.08925" lon="6.31235">
        <ele>991.3</ele>
        <time>2021-09-11T10:44:41Z</time>
      </trkpt>
      <trkpt lat="44.08925" lon="6.31235">
        <ele>991.3</ele>
        <time>2021-09-11T10:44:42Z</time>
      </trkpt>
      <trkpt lat="44.08925" lon="6.31235">
        <ele>991.3</ele>
        <time>2021-09-11T10:44:44Z</time>
      </trkpt>
      <trkpt lat="44.08925" lon="6.31235">
        <ele>991.3</ele>
        <time>2021-09-11T10:44:45Z</time>
      </trkpt>
      <trkpt lat="44.08925" lon="6.31235">
        <ele>991.3</ele>
        <time>2021-09-11T10:44:46Z</time>
      </trkpt>
      <trkpt lat="44.08925" lon="6.31235">
        <ele>991.3</ele>
        <time>2021-09-11T10:44:48Z</time>
      </trkpt>
      <trkpt lat="44.08925" lon="6.31235">
        <ele>991.3</ele>
        <time>2021-09-11T10:44:49Z</time>
      </trkpt>
      <trkpt lat="44.08925" lon="6.31235">
        <ele>991.3</ele>
        <time>2021-09-11T10:44:51Z</time>
      </trkpt>
      <trkpt lat="44.08925" lon="6.31235">
        <ele>991.3</ele>
        <time>2021-09-11T10:44:52Z</time>
      </trkpt>
      <trkpt lat="44.08925" lon="6.31235">
        <ele>991.3</ele>
        <time>2021-09-11T10:44:54Z</time>
      </trkpt>
      <trkpt lat="44.08925" lon="6.31235">
        <ele>991.3</ele>
        <time>2021-09-11T10:44:55Z</time>
      </trkpt>
      <trkpt lat="44.08925" lon="6.31235">
        <ele>991.3</ele>
        <time>2021-09-11T10:44:57Z</time>
      </trkpt>
      <trkpt lat="44.08925" lon="6.31235">
        <ele>991.3</ele>
        <time>2021-09-11T10:44:59Z</time>
      </trkpt>
      <trkpt lat="44.08925" lon="6.31235">
        <ele>991.3</ele>
        <time>2021-09-11T10:45:00Z</time>
      </trkpt>
      <trkpt lat="44.08925" lon="6.31235">
        <ele>991.3</ele>
        <time>2021-09-11T10:45:01Z</time>
      </trkpt>
      <trkpt lat="44.08925" lon="6.31235">
        <ele>991.3</ele>
        <time>2021-09-11T10:45:02Z</time>
      </trkpt>
      <trkpt lat="44.08925" lon="6.31235">
        <ele>991.3</ele>
        <time>2021-09-11T10:45:04Z</time>
      </trkpt>
      <trkpt lat="44.08925" lon="6.31235">
        <ele>991.3</ele>
        <time>2021-09-11T10:45:05Z</time>
      </trkpt>
      <trkpt lat="44.08925" lon="6.31235">
        <ele>991.3</ele>
        <time>2021-09-11T10:45:07Z</time>
      </trkpt>
      <trkpt lat="44.08925" lon="6.31235">
        <ele>991.3</ele>
        <time>2021-09-11T10:45:09Z</time>
      </trkpt>
      <trkpt lat="44.08925" lon="6.31235">
        <ele>991.3</ele>
        <time>2021-09-11T10:45:10Z</time>
      </trkpt>
      <trkpt lat="44.08925" lon="6.31235">
        <ele>991.3</ele>
        <time>2021-09-11T10:45:12Z</time>
      </trkpt>
      <trkpt lat="44.08925" lon="6.31235">
        <ele>991.3</ele>
        <time>2021-09-11T10:45:13Z</time>
      </trkpt>
      <trkpt lat="44.08925" lon="6.31235">
        <ele>991.3</ele>
        <time>2021-09-11T10:45:14Z</time>
      </trkpt>
      <trkpt lat="44.08925" lon="6.31235">
        <ele>991.3</ele>
        <time>2021-09-11T10:45:16Z</time>
      </trkpt>
      <trkpt lat="44.08925" lon="6.31235">
        <ele>991.3</ele>
        <time>2021-09-11T10:45:18Z</time>
      </trkpt>
      <trkpt lat="44.08925" lon="6.31235">
        <ele>991.3</ele>
        <time>2021-09-11T10:45:19Z</time>
      </trkpt>
      <trkpt lat="44.08925" lon="6.31235">
        <ele>991.3</ele>
        <time>2021-09-11T10:45:20Z</time>
      </trkpt>
      <trkpt lat="44.08925" lon="6.31235">
        <ele>991.3</ele>
        <time>2021-09-11T10:45:22Z</time>
      </trkpt>
      <trkpt lat="44.08925" lon="6.31235">
        <ele>991.3</ele>
        <time>2021-09-11T10:45:23Z</time>
      </trkpt>
      <trkpt lat="44.08925" lon="6.31235">
        <ele>991.3</ele>
        <time>2021-09-11T10:45:24Z</time>
      </trkpt>
      <trkpt lat="44.08925" lon="6.31235">
        <ele>991.3</ele>
        <time>2021-09-11T10:45:26Z</time>
      </trkpt>
      <trkpt lat="44.08925" lon="6.31235">
        <ele>991.3</ele>
        <time>2021-09-11T10:45:27Z</time>
      </trkpt>
      <trkpt lat="44.08925" lon="6.31235">
        <ele>991.3</ele>
        <time>2021-09-11T10:45:28Z</time>
      </trkpt>
      <trkpt lat="44.08925" lon="6.31235">
        <ele>991.3</ele>
        <time>2021-09-11T10:45:29Z</time>
      </trkpt>
      <trkpt lat="44.08925" lon="6.31235">
        <ele>991.3</ele>
        <time>2021-09-11T10:45:30Z</time>
      </trkpt>
      <trkpt lat="44.08925" lon="6.31235">
        <ele>991.3</ele>
        <time>2021-09-11T10:45:32Z</time>
      </trkpt>
      <trkpt lat="44.08925" lon="6.31235">
        <ele>991.3</ele>
        <time>2021-09-11T10:45:34Z</time>
      </trkpt>
      <trkpt lat="44.08925" lon="6.31235">
        <ele>991.3</ele>
        <time>2021-09-11T10:45:35Z</time>
      </trkpt>
      <trkpt lat="44.08925" lon="6.31235">
        <ele>991.3</ele>
        <time>2021-09-11T10:45:37Z</time>
      </trkpt>
      <trkpt lat="44.08925" lon="6.31235">
        <ele>991.3</ele>
        <time>2021-09-11T10:45:38Z</time>
      </trkpt>
      <trkpt lat="44.08925" lon="6.31235">
        <ele>991.3</ele>
        <time>2021-09-11T10:45:39Z</time>
      </trkpt>
      <trkpt lat="44.08925" lon="6.31235">
        <ele>991.3</ele>
        <time>2021-09-11T10:45:41Z</time>
      </trkpt>
      <trkpt lat="44.08925" lon="6.31235">
        <ele>991.3</ele>
        <time>2021-09-11T10:45:43Z</time>
      </trkpt>
      <trkpt lat="44.08925" lon="6.31235">
        <ele>991.3</ele>
        <time>2021-09-11T10:45:45Z</time>
      </trkpt>
      <trkpt lat="44.08925" lon="6.31235">
        <ele>991.3</ele>
        <time>2021-09-11T10:45:47Z</time>
      </trkpt>
      <trkpt lat="44.08925" lon="6.31235">
        <ele>991.3</ele>
        <time>2021-09-11T10:45:49Z</time>
      </trkpt>
      <trkpt lat="44.08925" lon="6.31235">
        <ele>991.3</ele>
        <time>2021-09-11T10:45:51Z</time>
      </trkpt>
      <trkpt lat="44.08925" lon="6.31235">
        <ele>991.3</ele>
        <time>2021-09-11T10:45:53Z</time>
      </trkpt>
      <trkpt lat="44.08925" lon="6.31235">
        <ele>991.3</ele>
        <time>2021-09-11T10:45:54Z</time>
      </trkpt>
      <trkpt lat="44.08925" lon="6.31235">
        <ele>991.3</ele>
        <time>2021-09-11T10:45:56Z</time>
      </trkpt>
      <trkpt lat="44.08925" lon="6.31235">
        <ele>991.3</ele>
        <time>2021-09-11T10:45:57Z</time>
      </trkpt>
      <trkpt lat="44.08925" lon="6.31235">
        <ele>991.3</ele>
        <time>2021-09-11T10:45:59Z</time>
      </trkpt>
      <trkpt lat="44.08925" lon="6.31235">
        <ele>991.3</ele>
        <time>2021-09-11T10:46:00Z</time>
      </trkpt>
      <trkpt lat="44.08925" lon="6.31235">
        <ele>991.3</ele>
        <time>2021-09-11T10:46:02Z</time>
      </trkpt>
      <trkpt lat="44.08925" lon="6.31235">
        <ele>991.3</ele>
        <time>2021-09-11T10:46:04Z</time>
      </trkpt>
      <trkpt lat="44.08925" lon="6.31235">
        <ele>991.3</ele>
        <time>2021-09-11T10:46:05Z</time>
      </trkpt>
      <trkpt lat="44.08925" lon="6.31235">
        <ele>991.3</ele>
        <time>2021-09-11T10:46:07Z</time>
      </trkpt>
      <trkpt lat="44.08925" lon="6.31235">
        <ele>991.3</ele>
        <time>2021-09-11T10:46:08Z</time>
      </trkpt>
      <trkpt lat="44.08925" lon="6.31235">
        <ele>991.3</ele>
        <time>2021-09-11T10:46:10Z</time>
      </trkpt>
      <trkpt lat="44.08925" lon="6.31235">
        <ele>991.3</ele>
        <time>2021-09-11T10:46:11Z</time>
      </trkpt>
      <trkpt lat="44.08925" lon="6.31235">
        <ele>991.3</ele>
        <time>2021-09-11T10:46:12Z</time>
      </trkpt>
      <trkpt lat="44.08925" lon="6.31235">
        <ele>991.3</ele>
        <time>2021-09-11T10:46:14Z</time>
      </trkpt>
      <trkpt lat="44.08925" lon="6.31235">
        <ele>991.3</ele>
        <time>2021-09-11T10:46:16Z</time>
      </trkpt>
      <trkpt lat="44.08925" lon="6.31235">
        <ele>991.3</ele>
        <time>2021-09-11T10:46:17Z</time>
      </trkpt>
      <trkpt lat="44.08925" lon="6.31235">
        <ele>991.3</ele>
        <time>2021-09-11T10:46:18Z</time>
      </trkpt>
      <trkpt lat="44.08931" lon="6.31229">
        <ele>991.5</ele>
        <time>2021-09-11T10:46:20Z</time>
      </trkpt>
      <trkpt lat="44.08932" lon="6.31227">
        <ele>991.5</ele>
        <time>2021-09-11T10:46:22Z</time>
      </trkpt>
      <trkpt lat="44.08932" lon="6.31227">
        <ele>991.5</ele>
        <time>2021-09-11T10:46:24Z</time>
      </trkpt>
      <trkpt lat="44.08933" lon="6.31227">
        <ele>991.5</ele>
        <time>2021-09-11T10:46:26Z</time>
      </trkpt>
      <trkpt lat="44.08933" lon="6.31227">
        <ele>991.6</ele>
        <time>2021-09-11T10:46:28Z</time>
      </trkpt>
      <trkpt lat="44.08933" lon="6.31227">
        <ele>991.6</ele>
        <time>2021-09-11T10:46:30Z</time>
      </trkpt>
      <trkpt lat="44.08933" lon="6.31226">
        <ele>991.6</ele>
        <time>2021-09-11T10:46:32Z</time>
      </trkpt>
      <trkpt lat="44.08933" lon="6.31226">
        <ele>991.6</ele>
        <time>2021-09-11T10:46:34Z</time>
      </trkpt>
      <trkpt lat="44.08934" lon="6.31226">
        <ele>991.6</ele>
        <time>2021-09-11T10:46:36Z</time>
      </trkpt>
      <trkpt lat="44.08934" lon="6.31226">
        <ele>991.6</ele>
        <time>2021-09-11T10:46:38Z</time>
      </trkpt>
      <trkpt lat="44.08934" lon="6.31226">
        <ele>991.6</ele>
        <time>2021-09-11T10:46:40Z</time>
      </trkpt>
      <trkpt lat="44.08934" lon="6.31226">
        <ele>991.6</ele>
        <time>2021-09-11T10:46:42Z</time>
      </trkpt>
      <trkpt lat="44.08934" lon="6.31226">
        <ele>991.6</ele>
        <time>2021-09-11T10:46:44Z</time>
      </trkpt>
      <trkpt lat="44.08935" lon="6.31225">
        <ele>991.6</ele>
        <time>2021-09-11T10:46:46Z</time>
      </trkpt>
      <trkpt lat="44.08935" lon="6.31225">
        <ele>991.6</ele>
        <time>2021-09-11T10:46:48Z</time>
      </trkpt>
      <trkpt lat="44.08935" lon="6.31225">
        <ele>991.6</ele>
        <time>2021-09-11T10:46:50Z</time>
      </trkpt>
      <trkpt lat="44.08935" lon="6.31225">
        <ele>991.6</ele>
        <time>2021-09-11T10:46:52Z</time>
      </trkpt>
      <trkpt lat="44.08935" lon="6.31225">
        <ele>991.7</ele>
        <time>2021-09-11T10:46:54Z</time>
      </trkpt>
      <trkpt lat="44.08936" lon="6.31225">
        <ele>991.7</ele>
        <time>2021-09-11T10:46:56Z</time>
      </trkpt>
      <trkpt lat="44.08936" lon="6.31225">
        <ele>991.7</ele>
        <time>2021-09-11T10:46:58Z</time>
      </trkpt>
      <trkpt lat="44.08936" lon="6.31224">
        <ele>991.7</ele>
        <time>2021-09-11T10:47:00Z</time>
      </trkpt>
      <trkpt lat="44.08936" lon="6.31224">
        <ele>991.7</ele>
        <time>2021-09-11T10:47:01Z</time>
      </trkpt>
      <trkpt lat="44.08938" lon="6.31223">
        <ele>991.8</ele>
        <time>2021-09-11T10:47:02Z</time>
      </trkpt>
      <trkpt lat="44.08939" lon="6.31222">
        <ele>991.8</ele>
        <time>2021-09-11T10:47:03Z</time>
      </trkpt>
      <trkpt lat="44.0894" lon="6.31221">
        <ele>991.8</ele>
        <time>2021-09-11T10:47:05Z</time>
      </trkpt>
      <trkpt lat="44.0894" lon="6.31221">
        <ele>991.8</ele>
        <time>2021-09-11T10:47:07Z</time>
      </trkpt>
      <trkpt lat="44.0894" lon="6.31221">
        <ele>991.8</ele>
        <time>2021-09-11T10:47:08Z</time>
      </trkpt>
      <trkpt lat="44.0894" lon="6.31221">
        <ele>991.8</ele>
        <time>2021-09-11T10:47:10Z</time>
      </trkpt>
      <trkpt lat="44.0894" lon="6.31221">
        <ele>991.8</ele>
        <time>2021-09-11T10:47:11Z</time>
      </trkpt>
      <trkpt lat="44.0894" lon="6.31221">
        <ele>991.8</ele>
        <time>2021-09-11T10:47:13Z</time>
      </trkpt>
      <trkpt lat="44.0894" lon="6.31221">
        <ele>991.8</ele>
        <time>2021-09-11T10:47:14Z</time>
      </trkpt>
      <trkpt lat="44.0894" lon="6.31221">
        <ele>991.8</ele>
        <time>2021-09-11T10:47:16Z</time>
      </trkpt>
      <trkpt lat="44.0894" lon="6.31221">
        <ele>991.8</ele>
        <time>2021-09-11T10:47:17Z</time>
      </trkpt>
      <trkpt lat="44.0894" lon="6.31221">
        <ele>991.8</ele>
        <time>2021-09-11T10:47:19Z</time>
      </trkpt>
      <trkpt lat="44.0894" lon="6.31221">
        <ele>991.8</ele>
        <time>2021-09-11T10:47:20Z</time>
      </trkpt>
      <trkpt lat="44.0894" lon="6.31221">
        <ele>991.8</ele>
        <time>2021-09-11T10:47:22Z</time>
      </trkpt>
      <trkpt lat="44.0894" lon="6.31221">
        <ele>991.8</ele>
        <time>2021-09-11T10:47:24Z</time>
      </trkpt>
      <trkpt lat="44.0894" lon="6.31221">
        <ele>991.8</ele>
        <time>2021-09-11T10:47:25Z</time>
      </trkpt>
      <trkpt lat="44.0894" lon="6.31221">
        <ele>991.8</ele>
        <time>2021-09-11T10:47:26Z</time>
      </trkpt>
      <trkpt lat="44.0894" lon="6.31221">
        <ele>991.8</ele>
        <time>2021-09-11T10:47:28Z</time>
      </trkpt>
      <trkpt lat="44.0894" lon="6.31221">
        <ele>991.8</ele>
        <time>2021-09-11T10:47:29Z</time>
      </trkpt>
      <trkpt lat="44.0894" lon="6.31221">
        <ele>991.8</ele>
        <time>2021-09-11T10:47:31Z</time>
      </trkpt>
      <trkpt lat="44.0894" lon="6.31221">
        <ele>991.8</ele>
        <time>2021-09-11T10:47:32Z</time>
      </trkpt>
      <trkpt lat="44.0894" lon="6.31221">
        <ele>991.8</ele>
        <time>2021-09-11T10:47:33Z</time>
      </trkpt>
      <trkpt lat="44.0894" lon="6.31221">
        <ele>991.8</ele>
        <time>2021-09-11T10:47:35Z</time>
      </trkpt>
      <trkpt lat="44.0894" lon="6.31221">
        <ele>991.8</ele>
        <time>2021-09-11T10:47:36Z</time>
      </trkpt>
      <trkpt lat="44.0894" lon="6.31221">
        <ele>991.8</ele>
        <time>2021-09-11T10:47:38Z</time>
      </trkpt>
      <trkpt lat="44.0894" lon="6.31221">
        <ele>991.8</ele>
        <time>2021-09-11T10:47:39Z</time>
      </trkpt>
      <trkpt lat="44.0894" lon="6.31221">
        <ele>991.8</ele>
        <time>2021-09-11T10:47:40Z</time>
      </trkpt>
      <trkpt lat="44.0894" lon="6.31221">
        <ele>991.8</ele>
        <time>2021-09-11T10:47:42Z</time>
      </trkpt>
      <trkpt lat="44.0894" lon="6.31221">
        <ele>991.8</ele>
        <time>2021-09-11T10:47:43Z</time>
      </trkpt>
      <trkpt lat="44.0894" lon="6.31221">
        <ele>991.8</ele>
        <time>2021-09-11T10:47:45Z</time>
      </trkpt>
      <trkpt lat="44.0894" lon="6.31221">
        <ele>991.8</ele>
        <time>2021-09-11T10:47:47Z</time>
      </trkpt>
      <trkpt lat="44.0894" lon="6.31221">
        <ele>991.8</ele>
        <time>2021-09-11T10:47:49Z</time>
      </trkpt>
      <trkpt lat="44.0894" lon="6.31221">
        <ele>991.8</ele>
        <time>2021-09-11T10:47:51Z</time>
      </trkpt>
      <trkpt lat="44.0894" lon="6.31221">
        <ele>991.8</ele>
        <time>2021-09-11T10:47:52Z</time>
      </trkpt>
      <trkpt lat="44.0894" lon="6.31221">
        <ele>991.8</ele>
        <time>2021-09-11T10:47:54Z</time>
      </trkpt>
      <trkpt lat="44.0894" lon="6.31221">
        <ele>991.8</ele>
        <time>2021-09-11T10:47:55Z</time>
      </trkpt>
      <trkpt lat="44.0894" lon="6.31221">
        <ele>991.8</ele>
        <time>2021-09-11T10:47:56Z</time>
      </trkpt>
      <trkpt lat="44.0894" lon="6.31221">
        <ele>991.8</ele>
        <time>2021-09-11T10:47:58Z</time>
      </trkpt>
      <trkpt lat="44.0894" lon="6.31221">
        <ele>991.8</ele>
        <time>2021-09-11T10:47:59Z</time>
      </trkpt>
      <trkpt lat="44.0894" lon="6.31221">
        <ele>991.8</ele>
        <time>2021-09-11T10:48:01Z</time>
      </trkpt>
      <trkpt lat="44.0894" lon="6.31221">
        <ele>991.8</ele>
        <time>2021-09-11T10:48:02Z</time>
      </trkpt>
      <trkpt lat="44.0894" lon="6.31221">
        <ele>991.8</ele>
        <time>2021-09-11T10:48:03Z</time>
      </trkpt>
      <trkpt lat="44.0894" lon="6.31221">
        <ele>991.8</ele>
        <time>2021-09-11T10:48:04Z</time>
      </trkpt>
      <trkpt lat="44.0894" lon="6.31221">
        <ele>991.8</ele>
        <time>2021-09-11T10:48:05Z</time>
      </trkpt>
      <trkpt lat="44.0894" lon="6.31221">
        <ele>991.8</ele>
        <time>2021-09-11T10:48:07Z</time>
      </trkpt>
      <trkpt lat="44.0894" lon="6.31221">
        <ele>991.8</ele>
        <time>2021-09-11T10:48:09Z</time>
      </trkpt>
      <trkpt lat="44.0894" lon="6.31221">
        <ele>991.8</ele>
        <time>2021-09-11T10:48:10Z</time>
      </trkpt>
      <trkpt lat="44.0894" lon="6.31221">
        <ele>991.8</ele>
        <time>2021-09-11T10:48:12Z</time>
      </trkpt>
      <trkpt lat="44.0894" lon="6.31221">
        <ele>991.8</ele>
        <time>2021-09-11T10:48:13Z</time>
      </trkpt>
      <trkpt lat="44.0894" lon="6.31221">
        <ele>991.8</ele>
        <time>2021-09-11T10:48:15Z</time>
      </trkpt>
      <trkpt lat="44.0894" lon="6.31221">
        <ele>991.8</ele>
        <time>2021-09-11T10:48:17Z</time>
      </trkpt>
      <trkpt lat="44.0894" lon="6.31221">
        <ele>991.8</ele>
        <time>2021-09-11T10:48:19Z</time>
      </trkpt>
      <trkpt lat="44.0894" lon="6.31221">
        <ele>991.8</ele>
        <time>2021-09-11T10:48:21Z</time>
      </trkpt>
      <trkpt lat="44.0894" lon="6.31221">
        <ele>991.8</ele>
        <time>2021-09-11T10:48:23Z</time>
      </trkpt>
      <trkpt lat="44.0894" lon="6.31221">
        <ele>991.8</ele>
        <time>2021-09-11T10:48:25Z</time>
      </trkpt>
      <trkpt lat="44.0894" lon="6.31221">
        <ele>991.8</ele>
        <time>2021-09-11T10:48:27Z</time>
      </trkpt>
      <trkpt lat="44.0894" lon="6.31225">
        <ele>991.9</ele>
        <time>2021-09-11T10:48:29Z</time>
      </trkpt>
      <trkpt lat="44.08938" lon="6.31227">
        <ele>992</ele>
        <time>2021-09-11T10:48:31Z</time>
      </trkpt>
      <trkpt lat="44.08937" lon="6.31228">
        <ele>992</ele>
        <time>2021-09-11T10:48:33Z</time>
      </trkpt>
      <trkpt lat="44.08938" lon="6.31228">
        <ele>992</ele>
        <time>2021-09-11T10:48:34Z</time>
      </trkpt>
      <trkpt lat="44.08938" lon="6.31228">
        <ele>992.1</ele>
        <time>2021-09-11T10:48:35Z</time>
      </trkpt>
      <trkpt lat="44.08938" lon="6.31229">
        <ele>992.1</ele>
        <time>2021-09-11T10:48:36Z</time>
      </trkpt>
      <trkpt lat="44.08938" lon="6.31229">
        <ele>992.1</ele>
        <time>2021-09-11T10:48:38Z</time>
      </trkpt>
      <trkpt lat="44.08938" lon="6.31229">
        <ele>992.1</ele>
        <time>2021-09-11T10:48:39Z</time>
      </trkpt>
      <trkpt lat="44.08938" lon="6.31229">
        <ele>992.1</ele>
        <time>2021-09-11T10:48:41Z</time>
      </trkpt>
      <trkpt lat="44.08938" lon="6.31229">
        <ele>992.1</ele>
        <time>2021-09-11T10:48:42Z</time>
      </trkpt>
      <trkpt lat="44.08938" lon="6.31229">
        <ele>992.1</ele>
        <time>2021-09-11T10:48:44Z</time>
      </trkpt>
      <trkpt lat="44.08938" lon="6.31229">
        <ele>992.1</ele>
        <time>2021-09-11T10:48:46Z</time>
      </trkpt>
      <trkpt lat="44.08938" lon="6.31229">
        <ele>992.1</ele>
        <time>2021-09-11T10:48:47Z</time>
      </trkpt>
      <trkpt lat="44.08938" lon="6.3123">
        <ele>992.1</ele>
        <time>2021-09-11T10:48:49Z</time>
      </trkpt>
      <trkpt lat="44.08939" lon="6.3123">
        <ele>992.1</ele>
        <time>2021-09-11T10:48:50Z</time>
      </trkpt>
      <trkpt lat="44.08939" lon="6.3123">
        <ele>992.1</ele>
        <time>2021-09-11T10:48:51Z</time>
      </trkpt>
      <trkpt lat="44.08939" lon="6.3123">
        <ele>992.1</ele>
        <time>2021-09-11T10:48:53Z</time>
      </trkpt>
      <trkpt lat="44.08939" lon="6.3123">
        <ele>992.1</ele>
        <time>2021-09-11T10:48:54Z</time>
      </trkpt>
      <trkpt lat="44.08939" lon="6.3123">
        <ele>992.1</ele>
        <time>2021-09-11T10:48:56Z</time>
      </trkpt>
      <trkpt lat="44.08939" lon="6.3123">
        <ele>992.1</ele>
        <time>2021-09-11T10:48:57Z</time>
      </trkpt>
      <trkpt lat="44.08939" lon="6.3123">
        <ele>992.1</ele>
        <time>2021-09-11T10:48:59Z</time>
      </trkpt>
      <trkpt lat="44.08939" lon="6.3123">
        <ele>992.1</ele>
        <time>2021-09-11T10:49:00Z</time>
      </trkpt>
      <trkpt lat="44.08939" lon="6.31231">
        <ele>992.1</ele>
        <time>2021-09-11T10:49:01Z</time>
      </trkpt>
      <trkpt lat="44.08939" lon="6.31231">
        <ele>992.1</ele>
        <time>2021-09-11T10:49:02Z</time>
      </trkpt>
      <trkpt lat="44.08939" lon="6.31231">
        <ele>992.1</ele>
        <time>2021-09-11T10:49:03Z</time>
      </trkpt>
      <trkpt lat="44.0894" lon="6.31231">
        <ele>992.1</ele>
        <time>2021-09-11T10:49:05Z</time>
      </trkpt>
      <trkpt lat="44.0894" lon="6.31231">
        <ele>992.2</ele>
        <time>2021-09-11T10:49:06Z</time>
      </trkpt>
      <trkpt lat="44.0894" lon="6.31231">
        <ele>992.2</ele>
        <time>2021-09-11T10:49:08Z</time>
      </trkpt>
      <trkpt lat="44.0894" lon="6.31231">
        <ele>992.2</ele>
        <time>2021-09-11T10:49:09Z</time>
      </trkpt>
      <trkpt lat="44.0894" lon="6.31231">
        <ele>992.2</ele>
        <time>2021-09-11T10:49:10Z</time>
      </trkpt>
      <trkpt lat="44.0894" lon="6.31232">
        <ele>992.2</ele>
        <time>2021-09-11T10:49:12Z</time>
      </trkpt>
      <trkpt lat="44.0894" lon="6.31232">
        <ele>992.2</ele>
        <time>2021-09-11T10:49:14Z</time>
      </trkpt>
      <trkpt lat="44.0894" lon="6.31232">
        <ele>992.2</ele>
        <time>2021-09-11T10:49:15Z</time>
      </trkpt>
      <trkpt lat="44.0894" lon="6.31232">
        <ele>992.2</ele>
        <time>2021-09-11T10:49:16Z</time>
      </trkpt>
      <trkpt lat="44.0894" lon="6.31232">
        <ele>992.2</ele>
        <time>2021-09-11T10:49:17Z</time>
      </trkpt>
      <trkpt lat="44.08943" lon="6.31235">
        <ele>992.3</ele>
        <time>2021-09-11T10:49:18Z</time>
      </trkpt>
      <trkpt lat="44.08943" lon="6.31236">
        <ele>992.3</ele>
        <time>2021-09-11T10:49:19Z</time>
      </trkpt>
      <trkpt lat="44.08945" lon="6.31239">
        <ele>992.4</ele>
        <time>2021-09-11T10:49:21Z</time>
      </trkpt>
      <trkpt lat="44.08945" lon="6.31241">
        <ele>992.5</ele>
        <time>2021-09-11T10:49:23Z</time>
      </trkpt>
      <trkpt lat="44.08946" lon="6.31242">
        <ele>992.5</ele>
        <time>2021-09-11T10:49:24Z</time>
      </trkpt>
      <trkpt lat="44.08946" lon="6.31245">
        <ele>992.6</ele>
        <time>2021-09-11T10:49:26Z</time>
      </trkpt>
      <trkpt lat="44.08947" lon="6.31247">
        <ele>992.7</ele>
        <time>2021-09-11T10:49:28Z</time>
      </trkpt>
      <trkpt lat="44.08947" lon="6.31249">
        <ele>992.8</ele>
        <time>2021-09-11T10:49:29Z</time>
      </trkpt>
      <trkpt lat="44.08948" lon="6.3125">
        <ele>992.8</ele>
        <time>2021-09-11T10:49:31Z</time>
      </trkpt>
      <trkpt lat="44.08948" lon="6.31252">
        <ele>992.8</ele>
        <time>2021-09-11T10:49:33Z</time>
      </trkpt>
      <trkpt lat="44.08948" lon="6.31253">
        <ele>992.9</ele>
        <time>2021-09-11T10:49:35Z</time>
      </trkpt>
      <trkpt lat="44.08948" lon="6.31254">
        <ele>992.9</ele>
        <time>2021-09-11T10:49:37Z</time>
      </trkpt>
      <trkpt lat="44.08948" lon="6.31254">
        <ele>992.9</ele>
        <time>2021-09-11T10:49:39Z</time>
      </trkpt>
      <trkpt lat="44.08948" lon="6.31254">
        <ele>992.9</ele>
        <time>2021-09-11T10:49:41Z</time>
      </trkpt>
      <trkpt lat="44.08948" lon="6.31254">
        <ele>992.9</ele>
        <time>2021-09-11T10:49:43Z</time>
      </trkpt>
      <trkpt lat="44.08948" lon="6.31254">
        <ele>992.9</ele>
        <time>2021-09-11T10:49:45Z</time>
      </trkpt>
      <trkpt lat="44.08948" lon="6.31254">
        <ele>992.9</ele>
        <time>2021-09-11T10:49:47Z</time>
      </trkpt>
      <trkpt lat="44.08948" lon="6.31254">
        <ele>992.9</ele>
        <time>2021-09-11T10:49:49Z</time>
      </trkpt>
      <trkpt lat="44.08942" lon="6.31249">
        <ele>993.2</ele>
        <time>2021-09-11T10:49:51Z</time>
      </trkpt>
      <trkpt lat="44.08941" lon="6.31249">
        <ele>993.2</ele>
        <time>2021-09-11T10:49:52Z</time>
      </trkpt>
      <trkpt lat="44.08941" lon="6.31248">
        <ele>993.3</ele>
        <time>2021-09-11T10:49:54Z</time>
      </trkpt>
      <trkpt lat="44.08941" lon="6.31248">
        <ele>993.3</ele>
        <time>2021-09-11T10:49:56Z</time>
      </trkpt>
      <trkpt lat="44.08941" lon="6.31248">
        <ele>993.3</ele>
        <time>2021-09-11T10:49:57Z</time>
      </trkpt>
      <trkpt lat="44.08941" lon="6.31248">
        <ele>993.3</ele>
        <time>2021-09-11T10:49:59Z</time>
      </trkpt>
      <trkpt lat="44.08941" lon="6.31248">
        <ele>993.3</ele>
        <time>2021-09-11T10:50:00Z</time>
      </trkpt>
      <trkpt lat="44.08941" lon="6.31248">
        <ele>993.3</ele>
        <time>2021-09-11T10:50:02Z</time>
      </trkpt>
      <trkpt lat="44.08941" lon="6.31248">
        <ele>993.3</ele>
        <time>2021-09-11T10:50:04Z</time>
      </trkpt>
      <trkpt lat="44.08941" lon="6.31248">
        <ele>993.3</ele>
        <time>2021-09-11T10:50:05Z</time>
      </trkpt>
      <trkpt lat="44.08941" lon="6.31248">
        <ele>993.3</ele>
        <time>2021-09-11T10:50:06Z</time>
      </trkpt>
      <trkpt lat="44.08941" lon="6.31248">
        <ele>993.3</ele>
        <time>2021-09-11T10:50:08Z</time>
      </trkpt>
      <trkpt lat="44.08941" lon="6.31248">
        <ele>993.3</ele>
        <time>2021-09-11T10:50:10Z</time>
      </trkpt>
      <trkpt lat="44.08941" lon="6.31248">
        <ele>993.3</ele>
        <time>2021-09-11T10:50:11Z</time>
      </trkpt>
      <trkpt lat="44.08941" lon="6.31248">
        <ele>993.3</ele>
        <time>2021-09-11T10:50:13Z</time>
      </trkpt>
      <trkpt lat="44.08941" lon="6.31248">
        <ele>993.3</ele>
        <time>2021-09-11T10:50:14Z</time>
      </trkpt>
      <trkpt lat="44.08941" lon="6.31248">
        <ele>993.3</ele>
        <time>2021-09-11T10:50:16Z</time>
      </trkpt>
      <trkpt lat="44.08941" lon="6.31248">
        <ele>993.3</ele>
        <time>2021-09-11T10:50:17Z</time>
      </trkpt>
      <trkpt lat="44.08941" lon="6.31248">
        <ele>993.3</ele>
        <time>2021-09-11T10:50:18Z</time>
      </trkpt>
      <trkpt lat="44.08941" lon="6.31248">
        <ele>993.3</ele>
        <time>2021-09-11T10:50:20Z</time>
      </trkpt>
      <trkpt lat="44.08941" lon="6.31248">
        <ele>993.3</ele>
        <time>2021-09-11T10:50:23Z</time>
      </trkpt>
      <trkpt lat="44.08941" lon="6.31248">
        <ele>993.3</ele>
        <time>2021-09-11T10:50:25Z</time>
      </trkpt>
      <trkpt lat="44.08941" lon="6.31248">
        <ele>993.3</ele>
        <time>2021-09-11T10:50:27Z</time>
      </trkpt>
      <trkpt lat="44.08941" lon="6.31247">
        <ele>993.3</ele>
        <time>2021-09-11T10:50:29Z</time>
      </trkpt>
      <trkpt lat="44.08941" lon="6.31247">
        <ele>993.3</ele>
        <time>2021-09-11T10:50:30Z</time>
      </trkpt>
      <trkpt lat="44.08941" lon="6.31248">
        <ele>993.3</ele>
        <time>2021-09-11T10:50:32Z</time>
      </trkpt>
      <trkpt lat="44.08941" lon="6.31248">
        <ele>993.3</ele>
        <time>2021-09-11T10:50:33Z</time>
      </trkpt>
      <trkpt lat="44.08941" lon="6.31248">
        <ele>993.3</ele>
        <time>2021-09-11T10:50:35Z</time>
      </trkpt>
      <trkpt lat="44.08941" lon="6.31248">
        <ele>993.3</ele>
        <time>2021-09-11T10:50:37Z</time>
      </trkpt>
      <trkpt lat="44.08941" lon="6.31248">
        <ele>993.3</ele>
        <time>2021-09-11T10:50:38Z</time>
      </trkpt>
      <trkpt lat="44.08941" lon="6.31248">
        <ele>993.3</ele>
        <time>2021-09-11T10:50:39Z</time>
      </trkpt>
      <trkpt lat="44.08941" lon="6.31248">
        <ele>993.3</ele>
        <time>2021-09-11T10:50:41Z</time>
      </trkpt>
      <trkpt lat="44.08938" lon="6.3124">
        <ele>993.6</ele>
        <time>2021-09-11T10:50:43Z</time>
      </trkpt>
      <trkpt lat="44.08937" lon="6.31237">
        <ele>993.7</ele>
        <time>2021-09-11T10:50:45Z</time>
      </trkpt>
      <trkpt lat="44.08937" lon="6.31236">
        <ele>993.7</ele>
        <time>2021-09-11T10:50:47Z</time>
      </trkpt>
      <trkpt lat="44.08937" lon="6.31236">
        <ele>993.7</ele>
        <time>2021-09-11T10:50:49Z</time>
      </trkpt>
      <trkpt lat="44.08937" lon="6.31236">
        <ele>993.7</ele>
        <time>2021-09-11T10:50:51Z</time>
      </trkpt>
      <trkpt lat="44.08937" lon="6.31236">
        <ele>993.7</ele>
        <time>2021-09-11T10:50:53Z</time>
      </trkpt>
      <trkpt lat="44.08937" lon="6.31236">
        <ele>993.7</ele>
        <time>2021-09-11T10:50:54Z</time>
      </trkpt>
      <trkpt lat="44.08937" lon="6.31236">
        <ele>993.7</ele>
        <time>2021-09-11T10:50:56Z</time>
      </trkpt>
      <trkpt lat="44.08937" lon="6.31236">
        <ele>993.7</ele>
        <time>2021-09-11T10:50:57Z</time>
      </trkpt>
      <trkpt lat="44.08937" lon="6.31236">
        <ele>993.7</ele>
        <time>2021-09-11T10:50:59Z</time>
      </trkpt>
      <trkpt lat="44.08937" lon="6.31236">
        <ele>993.7</ele>
        <time>2021-09-11T10:51:00Z</time>
      </trkpt>
      <trkpt lat="44.08937" lon="6.31236">
        <ele>993.7</ele>
        <time>2021-09-11T10:51:01Z</time>
      </trkpt>
      <trkpt lat="44.08937" lon="6.31236">
        <ele>993.7</ele>
        <time>2021-09-11T10:51:03Z</time>
      </trkpt>
      <trkpt lat="44.08937" lon="6.31236">
        <ele>993.7</ele>
        <time>2021-09-11T10:51:05Z</time>
      </trkpt>
      <trkpt lat="44.08937" lon="6.31236">
        <ele>993.7</ele>
        <time>2021-09-11T10:51:06Z</time>
      </trkpt>
      <trkpt lat="44.08937" lon="6.31236">
        <ele>993.7</ele>
        <time>2021-09-11T10:51:08Z</time>
      </trkpt>
      <trkpt lat="44.08937" lon="6.31236">
        <ele>993.7</ele>
        <time>2021-09-11T10:51:10Z</time>
      </trkpt>
      <trkpt lat="44.08937" lon="6.31236">
        <ele>993.7</ele>
        <time>2021-09-11T10:51:11Z</time>
      </trkpt>
      <trkpt lat="44.08937" lon="6.31236">
        <ele>993.7</ele>
        <time>2021-09-11T10:51:12Z</time>
      </trkpt>
      <trkpt lat="44.08937" lon="6.31236">
        <ele>993.7</ele>
        <time>2021-09-11T10:51:14Z</time>
      </trkpt>
      <trkpt lat="44.08937" lon="6.31236">
        <ele>993.7</ele>
        <time>2021-09-11T10:51:15Z</time>
      </trkpt>
      <trkpt lat="44.08937" lon="6.31236">
        <ele>993.7</ele>
        <time>2021-09-11T10:51:16Z</time>
      </trkpt>
      <trkpt lat="44.08937" lon="6.31236">
        <ele>993.7</ele>
        <time>2021-09-11T10:51:18Z</time>
      </trkpt>
      <trkpt lat="44.08937" lon="6.31236">
        <ele>993.7</ele>
        <time>2021-09-11T10:51:19Z</time>
      </trkpt>
      <trkpt lat="44.08937" lon="6.31236">
        <ele>993.7</ele>
        <time>2021-09-11T10:51:21Z</time>
      </trkpt>
      <trkpt lat="44.08937" lon="6.31236">
        <ele>993.7</ele>
        <time>2021-09-11T10:51:22Z</time>
      </trkpt>
      <trkpt lat="44.08937" lon="6.31236">
        <ele>993.7</ele>
        <time>2021-09-11T10:51:24Z</time>
      </trkpt>
      <trkpt lat="44.08937" lon="6.31236">
        <ele>993.7</ele>
        <time>2021-09-11T10:51:26Z</time>
      </trkpt>
      <trkpt lat="44.0893" lon="6.31234">
        <ele>994</ele>
        <time>2021-09-11T10:51:28Z</time>
      </trkpt>
      <trkpt lat="44.08928" lon="6.31234">
        <ele>994.1</ele>
        <time>2021-09-11T10:51:30Z</time>
      </trkpt>
      <trkpt lat="44.08927" lon="6.31234">
        <ele>994.1</ele>
        <time>2021-09-11T10:51:31Z</time>
      </trkpt>
      <trkpt lat="44.08927" lon="6.31234">
        <ele>994.2</ele>
        <time>2021-09-11T10:51:33Z</time>
      </trkpt>
      <trkpt lat="44.08927" lon="6.31234">
        <ele>994.2</ele>
        <time>2021-09-11T10:51:35Z</time>
      </trkpt>
      <trkpt lat="44.08927" lon="6.31234">
        <ele>994.2</ele>
        <time>2021-09-11T10:51:36Z</time>
      </trkpt>
      <trkpt lat="44.08927" lon="6.31234">
        <ele>994.2</ele>
        <time>2021-09-11T10:51:37Z</time>
      </trkpt>
      <trkpt lat="44.08927" lon="6.31234">
        <ele>994.2</ele>
        <time>2021-09-11T10:51:38Z</time>
      </trkpt>
      <trkpt lat="44.08927" lon="6.31234">
        <ele>994.2</ele>
        <time>2021-09-11T10:51:39Z</time>
      </trkpt>
      <trkpt lat="44.08927" lon="6.31234">
        <ele>994.2</ele>
        <time>2021-09-11T10:51:40Z</time>
      </trkpt>
      <trkpt lat="44.08927" lon="6.31234">
        <ele>994.2</ele>
        <time>2021-09-11T10:51:42Z</time>
      </trkpt>
      <trkpt lat="44.08927" lon="6.31234">
        <ele>994.2</ele>
        <time>2021-09-11T10:51:44Z</time>
      </trkpt>
      <trkpt lat="44.08927" lon="6.31234">
        <ele>994.2</ele>
        <time>2021-09-11T10:51:46Z</time>
      </trkpt>
      <trkpt lat="44.08927" lon="6.31234">
        <ele>994.2</ele>
        <time>2021-09-11T10:51:48Z</time>
      </trkpt>
      <trkpt lat="44.08927" lon="6.31234">
        <ele>994.2</ele>
        <time>2021-09-11T10:51:50Z</time>
      </trkpt>
      <trkpt lat="44.08927" lon="6.31234">
        <ele>994.2</ele>
        <time>2021-09-11T10:51:52Z</time>
      </trkpt>
      <trkpt lat="44.08927" lon="6.31234">
        <ele>994.2</ele>
        <time>2021-09-11T10:51:54Z</time>
      </trkpt>
      <trkpt lat="44.08927" lon="6.31234">
        <ele>994.2</ele>
        <time>2021-09-11T10:51:55Z</time>
      </trkpt>
      <trkpt lat="44.08927" lon="6.31234">
        <ele>994.2</ele>
        <time>2021-09-11T10:51:56Z</time>
      </trkpt>
      <trkpt lat="44.08927" lon="6.31234">
        <ele>994.2</ele>
        <time>2021-09-11T10:51:58Z</time>
      </trkpt>
      <trkpt lat="44.08927" lon="6.31234">
        <ele>994.2</ele>
        <time>2021-09-11T10:52:00Z</time>
      </trkpt>
      <trkpt lat="44.08927" lon="6.31234">
        <ele>994.2</ele>
        <time>2021-09-11T10:52:02Z</time>
      </trkpt>
      <trkpt lat="44.08927" lon="6.31234">
        <ele>994.2</ele>
        <time>2021-09-11T10:52:04Z</time>
      </trkpt>
      <trkpt lat="44.08927" lon="6.31234">
        <ele>994.2</ele>
        <time>2021-09-11T10:52:05Z</time>
      </trkpt>
      <trkpt lat="44.08927" lon="6.31234">
        <ele>994.2</ele>
        <time>2021-09-11T10:52:07Z</time>
      </trkpt>
      <trkpt lat="44.08927" lon="6.31234">
        <ele>994.2</ele>
        <time>2021-09-11T10:52:09Z</time>
      </trkpt>
      <trkpt lat="44.08927" lon="6.31234">
        <ele>994.2</ele>
        <time>2021-09-11T10:52:11Z</time>
      </trkpt>
      <trkpt lat="44.08927" lon="6.31234">
        <ele>994.2</ele>
        <time>2021-09-11T10:52:12Z</time>
      </trkpt>
      <trkpt lat="44.08927" lon="6.31234">
        <ele>994.2</ele>
        <time>2021-09-11T10:52:13Z</time>
      </trkpt>
      <trkpt lat="44.08927" lon="6.31234">
        <ele>994.2</ele>
        <time>2021-09-11T10:52:15Z</time>
      </trkpt>
      <trkpt lat="44.08927" lon="6.31234">
        <ele>994.2</ele>
        <time>2021-09-11T10:52:17Z</time>
      </trkpt>
      <trkpt lat="44.08927" lon="6.31234">
        <ele>994.2</ele>
        <time>2021-09-11T10:52:18Z</time>
      </trkpt>
      <trkpt lat="44.08927" lon="6.31234">
        <ele>994.2</ele>
        <time>2021-09-11T10:52:19Z</time>
      </trkpt>
      <trkpt lat="44.08927" lon="6.31234">
        <ele>994.2</ele>
        <time>2021-09-11T10:52:20Z</time>
      </trkpt>
      <trkpt lat="44.08927" lon="6.31234">
        <ele>994.2</ele>
        <time>2021-09-11T10:52:22Z</time>
      </trkpt>
      <trkpt lat="44.08927" lon="6.31234">
        <ele>994.2</ele>
        <time>2021-09-11T10:52:23Z</time>
      </trkpt>
      <trkpt lat="44.08927" lon="6.31234">
        <ele>994.2</ele>
        <time>2021-09-11T10:52:25Z</time>
      </trkpt>
      <trkpt lat="44.08927" lon="6.31234">
        <ele>994.2</ele>
        <time>2021-09-11T10:52:26Z</time>
      </trkpt>
      <trkpt lat="44.08927" lon="6.31234">
        <ele>994.2</ele>
        <time>2021-09-11T10:52:28Z</time>
      </trkpt>
      <trkpt lat="44.08927" lon="6.31234">
        <ele>994.2</ele>
        <time>2021-09-11T10:52:29Z</time>
      </trkpt>
      <trkpt lat="44.08927" lon="6.31234">
        <ele>994.2</ele>
        <time>2021-09-11T10:52:31Z</time>
      </trkpt>
      <trkpt lat="44.08927" lon="6.31234">
        <ele>994.2</ele>
        <time>2021-09-11T10:52:32Z</time>
      </trkpt>
      <trkpt lat="44.08927" lon="6.31234">
        <ele>994.2</ele>
        <time>2021-09-11T10:52:33Z</time>
      </trkpt>
      <trkpt lat="44.08927" lon="6.31234">
        <ele>994.2</ele>
        <time>2021-09-11T10:52:35Z</time>
      </trkpt>
      <trkpt lat="44.08927" lon="6.31234">
        <ele>994.2</ele>
        <time>2021-09-11T10:52:37Z</time>
      </trkpt>
      <trkpt lat="44.08927" lon="6.31234">
        <ele>994.2</ele>
        <time>2021-09-11T10:52:38Z</time>
      </trkpt>
      <trkpt lat="44.08927" lon="6.31234">
        <ele>994.2</ele>
        <time>2021-09-11T10:52:40Z</time>
      </trkpt>
      <trkpt lat="44.08927" lon="6.31234">
        <ele>994.2</ele>
        <time>2021-09-11T10:52:42Z</time>
      </trkpt>
      <trkpt lat="44.08927" lon="6.31234">
        <ele>994.2</ele>
        <time>2021-09-11T10:52:44Z</time>
      </trkpt>
      <trkpt lat="44.08927" lon="6.31234">
        <ele>994.2</ele>
        <time>2021-09-11T10:52:45Z</time>
      </trkpt>
      <trkpt lat="44.08927" lon="6.31234">
        <ele>994.2</ele>
        <time>2021-09-11T10:52:47Z</time>
      </trkpt>
      <trkpt lat="44.08927" lon="6.31234">
        <ele>994.2</ele>
        <time>2021-09-11T10:52:48Z</time>
      </trkpt>
      <trkpt lat="44.08927" lon="6.31234">
        <ele>994.2</ele>
        <time>2021-09-11T10:52:50Z</time>
      </trkpt>
      <trkpt lat="44.08927" lon="6.31234">
        <ele>994.2</ele>
        <time>2021-09-11T10:52:52Z</time>
      </trkpt>
      <trkpt lat="44.08927" lon="6.31234">
        <ele>994.2</ele>
        <time>2021-09-11T10:52:54Z</time>
      </trkpt>
      <trkpt lat="44.08927" lon="6.31234">
        <ele>994.2</ele>
        <time>2021-09-11T10:52:56Z</time>
      </trkpt>
      <trkpt lat="44.08927" lon="6.31234">
        <ele>994.2</ele>
        <time>2021-09-11T10:52:57Z</time>
      </trkpt>
      <trkpt lat="44.08927" lon="6.31234">
        <ele>994.2</ele>
        <time>2021-09-11T10:52:59Z</time>
      </trkpt>
      <trkpt lat="44.08927" lon="6.31234">
        <ele>994.2</ele>
        <time>2021-09-11T10:53:01Z</time>
      </trkpt>
      <trkpt lat="44.08927" lon="6.31234">
        <ele>994.2</ele>
        <time>2021-09-11T10:53:02Z</time>
      </trkpt>
      <trkpt lat="44.08927" lon="6.31234">
        <ele>994.2</ele>
        <time>2021-09-11T10:53:04Z</time>
      </trkpt>
      <trkpt lat="44.08927" lon="6.31234">
        <ele>994.2</ele>
        <time>2021-09-11T10:53:06Z</time>
      </trkpt>
      <trkpt lat="44.08927" lon="6.31234">
        <ele>994.2</ele>
        <time>2021-09-11T10:53:08Z</time>
      </trkpt>
      <trkpt lat="44.08927" lon="6.31234">
        <ele>994.2</ele>
        <time>2021-09-11T10:53:09Z</time>
      </trkpt>
      <trkpt lat="44.08927" lon="6.31234">
        <ele>994.2</ele>
        <time>2021-09-11T10:53:11Z</time>
      </trkpt>
      <trkpt lat="44.08927" lon="6.31234">
        <ele>994.2</ele>
        <time>2021-09-11T10:53:12Z</time>
      </trkpt>
      <trkpt lat="44.08927" lon="6.31234">
        <ele>994.2</ele>
        <time>2021-09-11T10:53:14Z</time>
      </trkpt>
      <trkpt lat="44.08927" lon="6.31234">
        <ele>994.2</ele>
        <time>2021-09-11T10:53:16Z</time>
      </trkpt>
      <trkpt lat="44.08927" lon="6.31234">
        <ele>994.2</ele>
        <time>2021-09-11T10:53:18Z</time>
      </trkpt>
      <trkpt lat="44.08927" lon="6.31234">
        <ele>994.2</ele>
        <time>2021-09-11T10:53:20Z</time>
      </trkpt>
      <trkpt lat="44.08927" lon="6.31234">
        <ele>994.2</ele>
        <time>2021-09-11T10:53:22Z</time>
      </trkpt>
      <trkpt lat="44.08927" lon="6.31234">
        <ele>994.2</ele>
        <time>2021-09-11T10:53:23Z</time>
      </trkpt>
      <trkpt lat="44.08927" lon="6.31234">
        <ele>994.2</ele>
        <time>2021-09-11T10:53:25Z</time>
      </trkpt>
      <trkpt lat="44.08927" lon="6.31234">
        <ele>994.2</ele>
        <time>2021-09-11T10:53:27Z</time>
      </trkpt>
      <trkpt lat="44.08927" lon="6.31234">
        <ele>994.2</ele>
        <time>2021-09-11T10:53:29Z</time>
      </trkpt>
      <trkpt lat="44.08927" lon="6.31234">
        <ele>994.2</ele>
        <time>2021-09-11T10:53:30Z</time>
      </trkpt>
      <trkpt lat="44.08927" lon="6.31234">
        <ele>994.2</ele>
        <time>2021-09-11T10:53:31Z</time>
      </trkpt>
      <trkpt lat="44.08927" lon="6.31234">
        <ele>994.2</ele>
        <time>2021-09-11T10:53:33Z</time>
      </trkpt>
      <trkpt lat="44.08927" lon="6.31234">
        <ele>994.2</ele>
        <time>2021-09-11T10:53:34Z</time>
      </trkpt>
      <trkpt lat="44.08927" lon="6.31234">
        <ele>994.2</ele>
        <time>2021-09-11T10:53:36Z</time>
      </trkpt>
      <trkpt lat="44.08927" lon="6.31234">
        <ele>994.2</ele>
        <time>2021-09-11T10:53:37Z</time>
      </trkpt>
      <trkpt lat="44.08927" lon="6.31234">
        <ele>994.2</ele>
        <time>2021-09-11T10:53:38Z</time>
      </trkpt>
      <trkpt lat="44.08927" lon="6.31234">
        <ele>994.2</ele>
        <time>2021-09-11T10:53:39Z</time>
      </trkpt>
      <trkpt lat="44.08927" lon="6.31234">
        <ele>994.2</ele>
        <time>2021-09-11T10:53:40Z</time>
      </trkpt>
      <trkpt lat="44.08927" lon="6.31234">
        <ele>994.2</ele>
        <time>2021-09-11T10:53:42Z</time>
      </trkpt>
      <trkpt lat="44.08927" lon="6.31234">
        <ele>994.2</ele>
        <time>2021-09-11T10:53:43Z</time>
      </trkpt>
      <trkpt lat="44.08927" lon="6.31234">
        <ele>994.2</ele>
        <time>2021-09-11T10:53:45Z</time>
      </trkpt>
      <trkpt lat="44.08927" lon="6.31234">
        <ele>994.2</ele>
        <time>2021-09-11T10:53:46Z</time>
      </trkpt>
      <trkpt lat="44.08927" lon="6.31234">
        <ele>994.2</ele>
        <time>2021-09-11T10:53:48Z</time>
      </trkpt>
      <trkpt lat="44.08931" lon="6.31232">
        <ele>994.3</ele>
        <time>2021-09-11T10:53:50Z</time>
      </trkpt>
      <trkpt lat="44.08934" lon="6.3123">
        <ele>994.5</ele>
        <time>2021-09-11T10:53:51Z</time>
      </trkpt>
      <trkpt lat="44.08935" lon="6.3123">
        <ele>994.5</ele>
        <time>2021-09-11T10:53:52Z</time>
      </trkpt>
      <trkpt lat="44.08935" lon="6.3123">
        <ele>994.5</ele>
        <time>2021-09-11T10:53:53Z</time>
      </trkpt>
      <trkpt lat="44.08935" lon="6.3123">
        <ele>994.5</ele>
        <time>2021-09-11T10:53:54Z</time>
      </trkpt>
      <trkpt lat="44.08935" lon="6.3123">
        <ele>994.5</ele>
        <time>2021-09-11T10:53:55Z</time>
      </trkpt>
      <trkpt lat="44.08935" lon="6.3123">
        <ele>994.5</ele>
        <time>2021-09-11T10:53:57Z</time>
      </trkpt>
      <trkpt lat="44.08935" lon="6.3123">
        <ele>994.5</ele>
        <time>2021-09-11T10:53:58Z</time>
      </trkpt>
      <trkpt lat="44.08935" lon="6.3123">
        <ele>994.5</ele>
        <time>2021-09-11T10:54:00Z</time>
      </trkpt>
      <trkpt lat="44.08935" lon="6.3123">
        <ele>994.5</ele>
        <time>2021-09-11T10:54:01Z</time>
      </trkpt>
      <trkpt lat="44.08935" lon="6.3123">
        <ele>994.5</ele>
        <time>2021-09-11T10:54:03Z</time>
      </trkpt>
      <trkpt lat="44.08935" lon="6.3123">
        <ele>994.5</ele>
        <time>2021-09-11T10:54:04Z</time>
      </trkpt>
      <trkpt lat="44.08935" lon="6.3123">
        <ele>994.5</ele>
        <time>2021-09-11T10:54:05Z</time>
      </trkpt>
      <trkpt lat="44.08935" lon="6.3123">
        <ele>994.5</ele>
        <time>2021-09-11T10:54:07Z</time>
      </trkpt>
      <trkpt lat="44.08935" lon="6.3123">
        <ele>994.5</ele>
        <time>2021-09-11T10:54:08Z</time>
      </trkpt>
      <trkpt lat="44.08935" lon="6.3123">
        <ele>994.5</ele>
        <time>2021-09-11T10:54:10Z</time>
      </trkpt>
      <trkpt lat="44.08935" lon="6.3123">
        <ele>994.5</ele>
        <time>2021-09-11T10:54:12Z</time>
      </trkpt>
      <trkpt lat="44.08935" lon="6.3123">
        <ele>994.5</ele>
        <time>2021-09-11T10:54:14Z</time>
      </trkpt>
      <trkpt lat="44.08935" lon="6.3123">
        <ele>994.5</ele>
        <time>2021-09-11T10:54:16Z</time>
      </trkpt>
      <trkpt lat="44.08935" lon="6.3123">
        <ele>994.5</ele>
        <time>2021-09-11T10:54:18Z</time>
      </trkpt>
      <trkpt lat="44.08935" lon="6.3123">
        <ele>994.5</ele>
        <time>2021-09-11T10:54:20Z</time>
      </trkpt>
      <trkpt lat="44.08935" lon="6.3123">
        <ele>994.5</ele>
        <time>2021-09-11T10:54:22Z</time>
      </trkpt>
      <trkpt lat="44.08935" lon="6.3123">
        <ele>994.5</ele>
        <time>2021-09-11T10:54:23Z</time>
      </trkpt>
      <trkpt lat="44.08935" lon="6.3123">
        <ele>994.5</ele>
        <time>2021-09-11T10:54:24Z</time>
      </trkpt>
      <trkpt lat="44.08935" lon="6.3123">
        <ele>994.5</ele>
        <time>2021-09-11T10:54:26Z</time>
      </trkpt>
      <trkpt lat="44.08935" lon="6.3123">
        <ele>994.5</ele>
        <time>2021-09-11T10:54:28Z</time>
      </trkpt>
      <trkpt lat="44.08935" lon="6.3123">
        <ele>994.5</ele>
        <time>2021-09-11T10:54:29Z</time>
      </trkpt>
      <trkpt lat="44.08935" lon="6.3123">
        <ele>994.5</ele>
        <time>2021-09-11T10:54:31Z</time>
      </trkpt>
      <trkpt lat="44.08935" lon="6.3123">
        <ele>994.5</ele>
        <time>2021-09-11T10:54:32Z</time>
      </trkpt>
      <trkpt lat="44.08935" lon="6.3123">
        <ele>994.5</ele>
        <time>2021-09-11T10:54:34Z</time>
      </trkpt>
      <trkpt lat="44.08935" lon="6.3123">
        <ele>994.5</ele>
        <time>2021-09-11T10:54:35Z</time>
      </trkpt>
      <trkpt lat="44.08935" lon="6.3123">
        <ele>994.5</ele>
        <time>2021-09-11T10:54:36Z</time>
      </trkpt>
      <trkpt lat="44.08935" lon="6.3123">
        <ele>994.5</ele>
        <time>2021-09-11T10:54:37Z</time>
      </trkpt>
      <trkpt lat="44.08935" lon="6.3123">
        <ele>994.5</ele>
        <time>2021-09-11T10:54:39Z</time>
      </trkpt>
      <trkpt lat="44.08935" lon="6.3123">
        <ele>994.5</ele>
        <time>2021-09-11T10:54:41Z</time>
      </trkpt>
      <trkpt lat="44.08935" lon="6.3123">
        <ele>994.5</ele>
        <time>2021-09-11T10:54:42Z</time>
      </trkpt>
      <trkpt lat="44.08935" lon="6.3123">
        <ele>994.5</ele>
        <time>2021-09-11T10:54:44Z</time>
      </trkpt>
      <trkpt lat="44.08935" lon="6.3123">
        <ele>994.5</ele>
        <time>2021-09-11T10:54:46Z</time>
      </trkpt>
      <trkpt lat="44.08935" lon="6.3123">
        <ele>994.5</ele>
        <time>2021-09-11T10:54:47Z</time>
      </trkpt>
      <trkpt lat="44.08935" lon="6.3123">
        <ele>994.5</ele>
        <time>2021-09-11T10:54:49Z</time>
      </trkpt>
      <trkpt lat="44.08935" lon="6.3123">
        <ele>994.5</ele>
        <time>2021-09-11T10:54:51Z</time>
      </trkpt>
      <trkpt lat="44.08935" lon="6.3123">
        <ele>994.5</ele>
        <time>2021-09-11T10:54:53Z</time>
      </trkpt>
      <trkpt lat="44.08935" lon="6.3123">
        <ele>994.5</ele>
        <time>2021-09-11T10:54:55Z</time>
      </trkpt>
      <trkpt lat="44.08935" lon="6.3123">
        <ele>994.5</ele>
        <time>2021-09-11T10:54:56Z</time>
      </trkpt>
      <trkpt lat="44.08935" lon="6.3123">
        <ele>994.5</ele>
        <time>2021-09-11T10:54:58Z</time>
      </trkpt>
      <trkpt lat="44.08935" lon="6.3123">
        <ele>994.5</ele>
        <time>2021-09-11T10:54:59Z</time>
      </trkpt>
      <trkpt lat="44.08935" lon="6.3123">
        <ele>994.5</ele>
        <time>2021-09-11T10:55:00Z</time>
      </trkpt>
      <trkpt lat="44.08935" lon="6.3123">
        <ele>994.5</ele>
        <time>2021-09-11T10:55:02Z</time>
      </trkpt>
      <trkpt lat="44.08935" lon="6.3123">
        <ele>994.5</ele>
        <time>2021-09-11T10:55:03Z</time>
      </trkpt>
      <trkpt lat="44.08935" lon="6.3123">
        <ele>994.5</ele>
        <time>2021-09-11T10:55:05Z</time>
      </trkpt>
      <trkpt lat="44.08935" lon="6.3123">
        <ele>994.5</ele>
        <time>2021-09-11T10:55:06Z</time>
      </trkpt>
      <trkpt lat="44.08935" lon="6.3123">
        <ele>994.5</ele>
        <time>2021-09-11T10:55:07Z</time>
      </trkpt>
      <trkpt lat="44.08935" lon="6.3123">
        <ele>994.5</ele>
        <time>2021-09-11T10:55:08Z</time>
      </trkpt>
      <trkpt lat="44.08935" lon="6.3123">
        <ele>994.5</ele>
        <time>2021-09-11T10:55:10Z</time>
      </trkpt>
      <trkpt lat="44.08935" lon="6.3123">
        <ele>994.5</ele>
        <time>2021-09-11T10:55:11Z</time>
      </trkpt>
      <trkpt lat="44.08935" lon="6.3123">
        <ele>994.5</ele>
        <time>2021-09-11T10:55:12Z</time>
      </trkpt>
      <trkpt lat="44.08935" lon="6.3123">
        <ele>994.5</ele>
        <time>2021-09-11T10:55:13Z</time>
      </trkpt>
      <trkpt lat="44.08935" lon="6.3123">
        <ele>994.5</ele>
        <time>2021-09-11T10:55:14Z</time>
      </trkpt>
      <trkpt lat="44.08935" lon="6.3123">
        <ele>994.5</ele>
        <time>2021-09-11T10:55:16Z</time>
      </trkpt>
      <trkpt lat="44.08935" lon="6.3123">
        <ele>994.5</ele>
        <time>2021-09-11T10:55:17Z</time>
      </trkpt>
      <trkpt lat="44.08935" lon="6.3123">
        <ele>994.5</ele>
        <time>2021-09-11T10:55:19Z</time>
      </trkpt>
      <trkpt lat="44.08935" lon="6.3123">
        <ele>994.5</ele>
        <time>2021-09-11T10:55:21Z</time>
      </trkpt>
      <trkpt lat="44.08935" lon="6.3123">
        <ele>994.5</ele>
        <time>2021-09-11T10:55:23Z</time>
      </trkpt>
      <trkpt lat="44.08935" lon="6.3123">
        <ele>994.5</ele>
        <time>2021-09-11T10:55:24Z</time>
      </trkpt>
      <trkpt lat="44.08935" lon="6.3123">
        <ele>994.5</ele>
        <time>2021-09-11T10:55:25Z</time>
      </trkpt>
      <trkpt lat="44.08935" lon="6.3123">
        <ele>994.5</ele>
        <time>2021-09-11T10:55:26Z</time>
      </trkpt>
      <trkpt lat="44.08935" lon="6.3123">
        <ele>994.5</ele>
        <time>2021-09-11T10:55:28Z</time>
      </trkpt>
      <trkpt lat="44.08935" lon="6.3123">
        <ele>994.5</ele>
        <time>2021-09-11T10:55:30Z</time>
      </trkpt>
      <trkpt lat="44.08935" lon="6.3123">
        <ele>994.5</ele>
        <time>2021-09-11T10:55:32Z</time>
      </trkpt>
      <trkpt lat="44.08935" lon="6.3123">
        <ele>994.5</ele>
        <time>2021-09-11T10:55:34Z</time>
      </trkpt>
      <trkpt lat="44.08935" lon="6.3123">
        <ele>994.5</ele>
        <time>2021-09-11T10:55:36Z</time>
      </trkpt>
      <trkpt lat="44.08935" lon="6.3123">
        <ele>994.5</ele>
        <time>2021-09-11T10:55:37Z</time>
      </trkpt>
      <trkpt lat="44.08935" lon="6.3123">
        <ele>994.5</ele>
        <time>2021-09-11T10:55:39Z</time>
      </trkpt>
      <trkpt lat="44.08935" lon="6.3123">
        <ele>994.5</ele>
        <time>2021-09-11T10:55:40Z</time>
      </trkpt>
      <trkpt lat="44.08936" lon="6.31233">
        <ele>994.6</ele>
        <time>2021-09-11T10:55:42Z</time>
      </trkpt>
      <trkpt lat="44.08936" lon="6.31234">
        <ele>994.7</ele>
        <time>2021-09-11T10:55:43Z</time>
      </trkpt>
      <trkpt lat="44.08936" lon="6.31235">
        <ele>994.7</ele>
        <time>2021-09-11T10:55:44Z</time>
      </trkpt>
      <trkpt lat="44.08936" lon="6.31235">
        <ele>994.7</ele>
        <time>2021-09-11T10:55:46Z</time>
      </trkpt>
      <trkpt lat="44.08936" lon="6.31236">
        <ele>994.7</ele>
        <time>2021-09-11T10:55:48Z</time>
      </trkpt>
      <trkpt lat="44.08936" lon="6.31236">
        <ele>994.7</ele>
        <time>2021-09-11T10:55:50Z</time>
      </trkpt>
      <trkpt lat="44.08936" lon="6.31236">
        <ele>994.7</ele>
        <time>2021-09-11T10:55:52Z</time>
      </trkpt>
      <trkpt lat="44.08936" lon="6.31236">
        <ele>994.7</ele>
        <time>2021-09-11T10:55:55Z</time>
      </trkpt>
      <trkpt lat="44.08936" lon="6.31236">
        <ele>994.7</ele>
        <time>2021-09-11T10:55:57Z</time>
      </trkpt>
      <trkpt lat="44.08936" lon="6.31236">
        <ele>994.7</ele>
        <time>2021-09-11T10:55:59Z</time>
      </trkpt>
      <trkpt lat="44.08936" lon="6.31236">
        <ele>994.7</ele>
        <time>2021-09-11T10:56:01Z</time>
      </trkpt>
      <trkpt lat="44.08936" lon="6.31235">
        <ele>994.7</ele>
        <time>2021-09-11T10:56:02Z</time>
      </trkpt>
      <trkpt lat="44.08936" lon="6.31235">
        <ele>994.7</ele>
        <time>2021-09-11T10:56:03Z</time>
      </trkpt>
      <trkpt lat="44.08936" lon="6.31235">
        <ele>994.7</ele>
        <time>2021-09-11T10:56:04Z</time>
      </trkpt>
      <trkpt lat="44.08936" lon="6.31235">
        <ele>994.8</ele>
        <time>2021-09-11T10:56:06Z</time>
      </trkpt>
      <trkpt lat="44.08936" lon="6.31235">
        <ele>994.8</ele>
        <time>2021-09-11T10:56:07Z</time>
      </trkpt>
      <trkpt lat="44.08936" lon="6.31235">
        <ele>994.8</ele>
        <time>2021-09-11T10:56:08Z</time>
      </trkpt>
      <trkpt lat="44.08936" lon="6.31236">
        <ele>994.8</ele>
        <time>2021-09-11T10:56:10Z</time>
      </trkpt>
      <trkpt lat="44.08936" lon="6.31236">
        <ele>994.8</ele>
        <time>2021-09-11T10:56:11Z</time>
      </trkpt>
      <trkpt lat="44.08936" lon="6.31236">
        <ele>994.8</ele>
        <time>2021-09-11T10:56:13Z</time>
      </trkpt>
      <trkpt lat="44.08936" lon="6.31236">
        <ele>994.8</ele>
        <time>2021-09-11T10:56:14Z</time>
      </trkpt>
      <trkpt lat="44.08936" lon="6.31236">
        <ele>994.8</ele>
        <time>2021-09-11T10:56:16Z</time>
      </trkpt>
      <trkpt lat="44.08936" lon="6.31236">
        <ele>994.8</ele>
        <time>2021-09-11T10:56:18Z</time>
      </trkpt>
      <trkpt lat="44.08936" lon="6.31236">
        <ele>994.8</ele>
        <time>2021-09-11T10:56:19Z</time>
      </trkpt>
      <trkpt lat="44.08936" lon="6.31236">
        <ele>994.8</ele>
        <time>2021-09-11T10:56:20Z</time>
      </trkpt>
      <trkpt lat="44.08936" lon="6.31236">
        <ele>994.8</ele>
        <time>2021-09-11T10:56:22Z</time>
      </trkpt>
      <trkpt lat="44.08931" lon="6.31236">
        <ele>995</ele>
        <time>2021-09-11T10:56:24Z</time>
      </trkpt>
      <trkpt lat="44.08928" lon="6.31237">
        <ele>995.1</ele>
        <time>2021-09-11T10:56:25Z</time>
      </trkpt>
      <trkpt lat="44.08927" lon="6.31237">
        <ele>995.2</ele>
        <time>2021-09-11T10:56:26Z</time>
      </trkpt>
      <trkpt lat="44.08926" lon="6.31238">
        <ele>995.2</ele>
        <time>2021-09-11T10:56:28Z</time>
      </trkpt>
      <trkpt lat="44.08926" lon="6.31238">
        <ele>995.2</ele>
        <time>2021-09-11T10:56:30Z</time>
      </trkpt>
      <trkpt lat="44.08926" lon="6.31238">
        <ele>995.2</ele>
        <time>2021-09-11T10:56:31Z</time>
      </trkpt>
      <trkpt lat="44.08926" lon="6.31238">
        <ele>995.2</ele>
        <time>2021-09-11T10:56:32Z</time>
      </trkpt>
      <trkpt lat="44.08926" lon="6.31238">
        <ele>995.2</ele>
        <time>2021-09-11T10:56:34Z</time>
      </trkpt>
      <trkpt lat="44.08926" lon="6.31238">
        <ele>995.2</ele>
        <time>2021-09-11T10:56:35Z</time>
      </trkpt>
      <trkpt lat="44.08926" lon="6.31238">
        <ele>995.2</ele>
        <time>2021-09-11T10:56:37Z</time>
      </trkpt>
      <trkpt lat="44.08926" lon="6.31238">
        <ele>995.2</ele>
        <time>2021-09-11T10:56:38Z</time>
      </trkpt>
      <trkpt lat="44.08926" lon="6.31238">
        <ele>995.2</ele>
        <time>2021-09-11T10:56:40Z</time>
      </trkpt>
      <trkpt lat="44.08926" lon="6.31238">
        <ele>995.2</ele>
        <time>2021-09-11T10:56:41Z</time>
      </trkpt>
      <trkpt lat="44.08926" lon="6.31238">
        <ele>995.2</ele>
        <time>2021-09-11T10:56:43Z</time>
      </trkpt>
      <trkpt lat="44.08926" lon="6.31238">
        <ele>995.2</ele>
        <time>2021-09-11T10:56:44Z</time>
      </trkpt>
      <trkpt lat="44.08926" lon="6.31238">
        <ele>995.2</ele>
        <time>2021-09-11T10:56:46Z</time>
      </trkpt>
      <trkpt lat="44.08926" lon="6.31238">
        <ele>995.2</ele>
        <time>2021-09-11T10:56:47Z</time>
      </trkpt>
      <trkpt lat="44.08926" lon="6.31238">
        <ele>995.2</ele>
        <time>2021-09-11T10:56:49Z</time>
      </trkpt>
      <trkpt lat="44.08926" lon="6.31238">
        <ele>995.2</ele>
        <time>2021-09-11T10:56:50Z</time>
      </trkpt>
      <trkpt lat="44.08926" lon="6.31238">
        <ele>995.2</ele>
        <time>2021-09-11T10:56:52Z</time>
      </trkpt>
      <trkpt lat="44.08926" lon="6.31238">
        <ele>995.2</ele>
        <time>2021-09-11T10:56:53Z</time>
      </trkpt>
      <trkpt lat="44.08926" lon="6.31238">
        <ele>995.2</ele>
        <time>2021-09-11T10:56:54Z</time>
      </trkpt>
      <trkpt lat="44.08926" lon="6.31238">
        <ele>995.2</ele>
        <time>2021-09-11T10:56:56Z</time>
      </trkpt>
      <trkpt lat="44.08926" lon="6.31238">
        <ele>995.2</ele>
        <time>2021-09-11T10:56:57Z</time>
      </trkpt>
      <trkpt lat="44.08926" lon="6.31238">
        <ele>995.2</ele>
        <time>2021-09-11T10:56:58Z</time>
      </trkpt>
      <trkpt lat="44.08926" lon="6.31238">
        <ele>995.2</ele>
        <time>2021-09-11T10:57:00Z</time>
      </trkpt>
      <trkpt lat="44.08926" lon="6.31238">
        <ele>995.2</ele>
        <time>2021-09-11T10:57:02Z</time>
      </trkpt>
      <trkpt lat="44.08925" lon="6.31238">
        <ele>995.2</ele>
        <time>2021-09-11T10:57:03Z</time>
      </trkpt>
      <trkpt lat="44.08925" lon="6.31238">
        <ele>995.2</ele>
        <time>2021-09-11T10:57:04Z</time>
      </trkpt>
      <trkpt lat="44.08925" lon="6.31238">
        <ele>995.2</ele>
        <time>2021-09-11T10:57:06Z</time>
      </trkpt>
      <trkpt lat="44.08925" lon="6.31238">
        <ele>995.3</ele>
        <time>2021-09-11T10:57:08Z</time>
      </trkpt>
      <trkpt lat="44.08925" lon="6.31238">
        <ele>995.3</ele>
        <time>2021-09-11T10:57:09Z</time>
      </trkpt>
      <trkpt lat="44.08925" lon="6.31238">
        <ele>995.3</ele>
        <time>2021-09-11T10:57:11Z</time>
      </trkpt>
      <trkpt lat="44.08925" lon="6.31238">
        <ele>995.3</ele>
        <time>2021-09-11T10:57:12Z</time>
      </trkpt>
      <trkpt lat="44.08926" lon="6.31238">
        <ele>995.3</ele>
        <time>2021-09-11T10:57:15Z</time>
      </trkpt>
      <trkpt lat="44.08926" lon="6.31238">
        <ele>995.3</ele>
        <time>2021-09-11T10:57:16Z</time>
      </trkpt>
      <trkpt lat="44.08926" lon="6.31238">
        <ele>995.3</ele>
        <time>2021-09-11T10:57:18Z</time>
      </trkpt>
      <trkpt lat="44.08926" lon="6.31238">
        <ele>995.3</ele>
        <time>2021-09-11T10:57:21Z</time>
      </trkpt>
      <trkpt lat="44.08926" lon="6.31238">
        <ele>995.3</ele>
        <time>2021-09-11T10:57:23Z</time>
      </trkpt>
      <trkpt lat="44.08926" lon="6.31238">
        <ele>995.3</ele>
        <time>2021-09-11T10:57:24Z</time>
      </trkpt>
      <trkpt lat="44.08926" lon="6.31232">
        <ele>995.5</ele>
        <time>2021-09-11T10:57:26Z</time>
      </trkpt>
      <trkpt lat="44.08926" lon="6.31227">
        <ele>995.6</ele>
        <time>2021-09-11T10:57:27Z</time>
      </trkpt>
      <trkpt lat="44.08927" lon="6.31225">
        <ele>995.7</ele>
        <time>2021-09-11T10:57:28Z</time>
      </trkpt>
      <trkpt lat="44.08927" lon="6.31223">
        <ele>995.7</ele>
        <time>2021-09-11T10:57:29Z</time>
      </trkpt>
      <trkpt lat="44.08927" lon="6.31222">
        <ele>995.8</ele>
        <time>2021-09-11T10:57:30Z</time>
      </trkpt>
      <trkpt lat="44.08927" lon="6.31222">
        <ele>995.8</ele>
        <time>2021-09-11T10:57:32Z</time>
      </trkpt>
      <trkpt lat="44.08927" lon="6.31223">
        <ele>995.8</ele>
        <time>2021-09-11T10:57:33Z</time>
      </trkpt>
      <trkpt lat="44.08927" lon="6.31223">
        <ele>995.8</ele>
        <time>2021-09-11T10:57:35Z</time>
      </trkpt>
      <trkpt lat="44.08927" lon="6.31223">
        <ele>995.8</ele>
        <time>2021-09-11T10:57:37Z</time>
      </trkpt>
      <trkpt lat="44.08927" lon="6.31223">
        <ele>995.8</ele>
        <time>2021-09-11T10:57:39Z</time>
      </trkpt>
      <trkpt lat="44.08927" lon="6.31223">
        <ele>995.8</ele>
        <time>2021-09-11T10:57:40Z</time>
      </trkpt>
      <trkpt lat="44.08927" lon="6.31224">
        <ele>995.8</ele>
        <time>2021-09-11T10:57:41Z</time>
      </trkpt>
      <trkpt lat="44.08927" lon="6.31224">
        <ele>995.8</ele>
        <time>2021-09-11T10:57:43Z</time>
      </trkpt>
      <trkpt lat="44.08928" lon="6.31224">
        <ele>995.8</ele>
        <time>2021-09-11T10:57:45Z</time>
      </trkpt>
      <trkpt lat="44.08928" lon="6.31224">
        <ele>995.8</ele>
        <time>2021-09-11T10:57:46Z</time>
      </trkpt>
      <trkpt lat="44.08928" lon="6.31224">
        <ele>995.8</ele>
        <time>2021-09-11T10:57:47Z</time>
      </trkpt>
      <trkpt lat="44.08928" lon="6.31224">
        <ele>995.8</ele>
        <time>2021-09-11T10:57:48Z</time>
      </trkpt>
      <trkpt lat="44.08928" lon="6.31225">
        <ele>995.8</ele>
        <time>2021-09-11T10:57:50Z</time>
      </trkpt>
      <trkpt lat="44.08928" lon="6.31225">
        <ele>995.8</ele>
        <time>2021-09-11T10:57:51Z</time>
      </trkpt>
      <trkpt lat="44.08928" lon="6.31225">
        <ele>995.9</ele>
        <time>2021-09-11T10:57:53Z</time>
      </trkpt>
      <trkpt lat="44.08928" lon="6.31225">
        <ele>995.9</ele>
        <time>2021-09-11T10:57:54Z</time>
      </trkpt>
      <trkpt lat="44.08928" lon="6.31225">
        <ele>995.9</ele>
        <time>2021-09-11T10:57:56Z</time>
      </trkpt>
      <trkpt lat="44.08928" lon="6.31226">
        <ele>995.9</ele>
        <time>2021-09-11T10:57:58Z</time>
      </trkpt>
      <trkpt lat="44.08928" lon="6.31226">
        <ele>995.9</ele>
        <time>2021-09-11T10:58:00Z</time>
      </trkpt>
      <trkpt lat="44.08928" lon="6.31226">
        <ele>995.9</ele>
        <time>2021-09-11T10:58:02Z</time>
      </trkpt>
      <trkpt lat="44.08928" lon="6.31226">
        <ele>995.9</ele>
        <time>2021-09-11T10:58:03Z</time>
      </trkpt>
      <trkpt lat="44.08928" lon="6.31226">
        <ele>995.9</ele>
        <time>2021-09-11T10:58:04Z</time>
      </trkpt>
      <trkpt lat="44.08928" lon="6.31227">
        <ele>995.9</ele>
        <time>2021-09-11T10:58:05Z</time>
      </trkpt>
      <trkpt lat="44.08928" lon="6.31227">
        <ele>995.9</ele>
        <time>2021-09-11T10:58:06Z</time>
      </trkpt>
      <trkpt lat="44.08928" lon="6.31227">
        <ele>995.9</ele>
        <time>2021-09-11T10:58:07Z</time>
      </trkpt>
      <trkpt lat="44.08928" lon="6.31227">
        <ele>995.9</ele>
        <time>2021-09-11T10:58:09Z</time>
      </trkpt>
      <trkpt lat="44.08928" lon="6.31227">
        <ele>995.9</ele>
        <time>2021-09-11T10:58:10Z</time>
      </trkpt>
      <trkpt lat="44.08928" lon="6.31227">
        <ele>995.9</ele>
        <time>2021-09-11T10:58:11Z</time>
      </trkpt>
      <trkpt lat="44.08928" lon="6.31228">
        <ele>995.9</ele>
        <time>2021-09-11T10:58:13Z</time>
      </trkpt>
      <trkpt lat="44.08928" lon="6.31228">
        <ele>995.9</ele>
        <time>2021-09-11T10:58:14Z</time>
      </trkpt>
      <trkpt lat="44.08928" lon="6.31228">
        <ele>995.9</ele>
        <time>2021-09-11T10:58:16Z</time>
      </trkpt>
      <trkpt lat="44.08928" lon="6.31228">
        <ele>996</ele>
        <time>2021-09-11T10:58:17Z</time>
      </trkpt>
      <trkpt lat="44.08928" lon="6.31228">
        <ele>996</ele>
        <time>2021-09-11T10:58:18Z</time>
      </trkpt>
      <trkpt lat="44.08928" lon="6.31229">
        <ele>996</ele>
        <time>2021-09-11T10:58:20Z</time>
      </trkpt>
      <trkpt lat="44.08928" lon="6.31229">
        <ele>996</ele>
        <time>2021-09-11T10:58:22Z</time>
      </trkpt>
      <trkpt lat="44.08928" lon="6.31229">
        <ele>996</ele>
        <time>2021-09-11T10:58:23Z</time>
      </trkpt>
      <trkpt lat="44.08928" lon="6.31229">
        <ele>996</ele>
        <time>2021-09-11T10:58:24Z</time>
      </trkpt>
      <trkpt lat="44.08928" lon="6.31229">
        <ele>996</ele>
        <time>2021-09-11T10:58:25Z</time>
      </trkpt>
      <trkpt lat="44.08928" lon="6.3123">
        <ele>996</ele>
        <time>2021-09-11T10:58:26Z</time>
      </trkpt>
      <trkpt lat="44.08929" lon="6.31234">
        <ele>996.1</ele>
        <time>2021-09-11T10:58:28Z</time>
      </trkpt>
      <trkpt lat="44.08929" lon="6.31235">
        <ele>996.2</ele>
        <time>2021-09-11T10:58:30Z</time>
      </trkpt>
      <trkpt lat="44.08929" lon="6.31235">
        <ele>996.2</ele>
        <time>2021-09-11T10:58:31Z</time>
      </trkpt>
      <trkpt lat="44.08929" lon="6.31235">
        <ele>996.2</ele>
        <time>2021-09-11T10:58:32Z</time>
      </trkpt>
      <trkpt lat="44.08929" lon="6.31235">
        <ele>996.2</ele>
        <time>2021-09-11T10:58:34Z</time>
      </trkpt>
      <trkpt lat="44.08929" lon="6.31235">
        <ele>996.2</ele>
        <time>2021-09-11T10:58:35Z</time>
      </trkpt>
      <trkpt lat="44.08929" lon="6.31235">
        <ele>996.2</ele>
        <time>2021-09-11T10:58:36Z</time>
      </trkpt>
      <trkpt lat="44.08929" lon="6.31235">
        <ele>996.2</ele>
        <time>2021-09-11T10:58:38Z</time>
      </trkpt>
      <trkpt lat="44.08929" lon="6.31235">
        <ele>996.2</ele>
        <time>2021-09-11T10:58:40Z</time>
      </trkpt>
      <trkpt lat="44.08929" lon="6.31235">
        <ele>996.2</ele>
        <time>2021-09-11T10:58:41Z</time>
      </trkpt>
      <trkpt lat="44.0893" lon="6.31235">
        <ele>996.2</ele>
        <time>2021-09-11T10:58:42Z</time>
      </trkpt>
      <trkpt lat="44.0893" lon="6.31236">
        <ele>996.2</ele>
        <time>2021-09-11T10:58:44Z</time>
      </trkpt>
      <trkpt lat="44.0893" lon="6.31236">
        <ele>996.2</ele>
        <time>2021-09-11T10:58:46Z</time>
      </trkpt>
      <trkpt lat="44.0893" lon="6.31236">
        <ele>996.2</ele>
        <time>2021-09-11T10:58:47Z</time>
      </trkpt>
      <trkpt lat="44.0893" lon="6.31236">
        <ele>996.2</ele>
        <time>2021-09-11T10:58:48Z</time>
      </trkpt>
      <trkpt lat="44.0893" lon="6.31236">
        <ele>996.2</ele>
        <time>2021-09-11T10:58:49Z</time>
      </trkpt>
      <trkpt lat="44.0893" lon="6.31236">
        <ele>996.2</ele>
        <time>2021-09-11T10:58:50Z</time>
      </trkpt>
      <trkpt lat="44.0893" lon="6.31236">
        <ele>996.2</ele>
        <time>2021-09-11T10:58:52Z</time>
      </trkpt>
      <trkpt lat="44.0893" lon="6.31236">
        <ele>996.2</ele>
        <time>2021-09-11T10:58:53Z</time>
      </trkpt>
      <trkpt lat="44.0893" lon="6.31236">
        <ele>996.2</ele>
        <time>2021-09-11T10:58:54Z</time>
      </trkpt>
      <trkpt lat="44.0893" lon="6.31236">
        <ele>996.2</ele>
        <time>2021-09-11T10:58:56Z</time>
      </trkpt>
      <trkpt lat="44.08931" lon="6.31236">
        <ele>996.2</ele>
        <time>2021-09-11T10:58:58Z</time>
      </trkpt>
      <trkpt lat="44.08931" lon="6.31237">
        <ele>996.3</ele>
        <time>2021-09-11T10:58:59Z</time>
      </trkpt>
      <trkpt lat="44.08931" lon="6.31237">
        <ele>996.3</ele>
        <time>2021-09-11T10:59:00Z</time>
      </trkpt>
      <trkpt lat="44.08931" lon="6.31237">
        <ele>996.3</ele>
        <time>2021-09-11T10:59:02Z</time>
      </trkpt>
      <trkpt lat="44.08931" lon="6.31237">
        <ele>996.3</ele>
        <time>2021-09-11T10:59:04Z</time>
      </trkpt>
      <trkpt lat="44.08931" lon="6.31237">
        <ele>996.3</ele>
        <time>2021-09-11T10:59:05Z</time>
      </trkpt>
      <trkpt lat="44.08931" lon="6.31237">
        <ele>996.3</ele>
        <time>2021-09-11T10:59:06Z</time>
      </trkpt>
      <trkpt lat="44.08931" lon="6.31237">
        <ele>996.3</ele>
        <time>2021-09-11T10:59:08Z</time>
      </trkpt>
      <trkpt lat="44.08931" lon="6.31237">
        <ele>996.3</ele>
        <time>2021-09-11T10:59:10Z</time>
      </trkpt>
      <trkpt lat="44.08931" lon="6.31237">
        <ele>996.3</ele>
        <time>2021-09-11T10:59:11Z</time>
      </trkpt>
      <trkpt lat="44.08932" lon="6.31237">
        <ele>996.3</ele>
        <time>2021-09-11T10:59:13Z</time>
      </trkpt>
      <trkpt lat="44.08932" lon="6.31238">
        <ele>996.3</ele>
        <time>2021-09-11T10:59:14Z</time>
      </trkpt>
      <trkpt lat="44.08932" lon="6.31238">
        <ele>996.3</ele>
        <time>2021-09-11T10:59:16Z</time>
      </trkpt>
      <trkpt lat="44.08932" lon="6.31238">
        <ele>996.3</ele>
        <time>2021-09-11T10:59:17Z</time>
      </trkpt>
      <trkpt lat="44.08934" lon="6.31239">
        <ele>996.4</ele>
        <time>2021-09-11T10:59:18Z</time>
      </trkpt>
      <trkpt lat="44.08936" lon="6.31241">
        <ele>996.5</ele>
        <time>2021-09-11T10:59:20Z</time>
      </trkpt>
      <trkpt lat="44.08937" lon="6.31242">
        <ele>996.5</ele>
        <time>2021-09-11T10:59:22Z</time>
      </trkpt>
      <trkpt lat="44.08937" lon="6.31242">
        <ele>996.5</ele>
        <time>2021-09-11T10:59:24Z</time>
      </trkpt>
      <trkpt lat="44.08937" lon="6.31242">
        <ele>996.6</ele>
        <time>2021-09-11T10:59:26Z</time>
      </trkpt>
      <trkpt lat="44.08937" lon="6.31242">
        <ele>996.6</ele>
        <time>2021-09-11T10:59:28Z</time>
      </trkpt>
      <trkpt lat="44.08937" lon="6.31242">
        <ele>996.6</ele>
        <time>2021-09-11T10:59:30Z</time>
      </trkpt>
      <trkpt lat="44.08937" lon="6.31242">
        <ele>996.6</ele>
        <time>2021-09-11T10:59:32Z</time>
      </trkpt>
      <trkpt lat="44.08937" lon="6.31242">
        <ele>996.6</ele>
        <time>2021-09-11T10:59:34Z</time>
      </trkpt>
      <trkpt lat="44.08937" lon="6.31242">
        <ele>996.6</ele>
        <time>2021-09-11T10:59:36Z</time>
      </trkpt>
      <trkpt lat="44.08937" lon="6.31242">
        <ele>996.6</ele>
        <time>2021-09-11T10:59:38Z</time>
      </trkpt>
      <trkpt lat="44.08937" lon="6.31242">
        <ele>996.6</ele>
        <time>2021-09-11T10:59:40Z</time>
      </trkpt>
      <trkpt lat="44.08937" lon="6.31242">
        <ele>996.6</ele>
        <time>2021-09-11T10:59:42Z</time>
      </trkpt>
      <trkpt lat="44.08937" lon="6.31242">
        <ele>996.6</ele>
        <time>2021-09-11T10:59:44Z</time>
      </trkpt>
      <trkpt lat="44.08937" lon="6.31242">
        <ele>996.6</ele>
        <time>2021-09-11T10:59:45Z</time>
      </trkpt>
      <trkpt lat="44.08937" lon="6.31242">
        <ele>996.6</ele>
        <time>2021-09-11T10:59:47Z</time>
      </trkpt>
      <trkpt lat="44.08937" lon="6.31242">
        <ele>996.6</ele>
        <time>2021-09-11T10:59:48Z</time>
      </trkpt>
      <trkpt lat="44.08937" lon="6.31242">
        <ele>996.6</ele>
        <time>2021-09-11T10:59:50Z</time>
      </trkpt>
      <trkpt lat="44.08937" lon="6.31242">
        <ele>996.6</ele>
        <time>2021-09-11T10:59:51Z</time>
      </trkpt>
      <trkpt lat="44.08937" lon="6.31242">
        <ele>996.6</ele>
        <time>2021-09-11T10:59:52Z</time>
      </trkpt>
      <trkpt lat="44.08937" lon="6.31242">
        <ele>996.6</ele>
        <time>2021-09-11T10:59:55Z</time>
      </trkpt>
      <trkpt lat="44.08937" lon="6.31242">
        <ele>996.6</ele>
        <time>2021-09-11T10:59:56Z</time>
      </trkpt>
      <trkpt lat="44.08937" lon="6.31242">
        <ele>996.6</ele>
        <time>2021-09-11T10:59:58Z</time>
      </trkpt>
      <trkpt lat="44.08937" lon="6.31242">
        <ele>996.6</ele>
        <time>2021-09-11T11:00:00Z</time>
      </trkpt>
      <trkpt lat="44.08937" lon="6.31242">
        <ele>996.6</ele>
        <time>2021-09-11T11:00:01Z</time>
      </trkpt>
      <trkpt lat="44.08937" lon="6.31242">
        <ele>996.6</ele>
        <time>2021-09-11T11:00:02Z</time>
      </trkpt>
      <trkpt lat="44.08937" lon="6.31242">
        <ele>996.6</ele>
        <time>2021-09-11T11:00:04Z</time>
      </trkpt>
      <trkpt lat="44.08937" lon="6.31242">
        <ele>996.6</ele>
        <time>2021-09-11T11:00:06Z</time>
      </trkpt>
      <trkpt lat="44.08937" lon="6.31242">
        <ele>996.6</ele>
        <time>2021-09-11T11:00:07Z</time>
      </trkpt>
      <trkpt lat="44.08937" lon="6.31242">
        <ele>996.6</ele>
        <time>2021-09-11T11:00:08Z</time>
      </trkpt>
      <trkpt lat="44.08937" lon="6.31242">
        <ele>996.6</ele>
        <time>2021-09-11T11:00:10Z</time>
      </trkpt>
      <trkpt lat="44.08937" lon="6.31242">
        <ele>996.6</ele>
        <time>2021-09-11T11:00:12Z</time>
      </trkpt>
      <trkpt lat="44.08937" lon="6.31242">
        <ele>996.6</ele>
        <time>2021-09-11T11:00:13Z</time>
      </trkpt>
      <trkpt lat="44.08937" lon="6.31242">
        <ele>996.6</ele>
        <time>2021-09-11T11:00:14Z</time>
      </trkpt>
      <trkpt lat="44.08937" lon="6.31242">
        <ele>996.6</ele>
        <time>2021-09-11T11:00:16Z</time>
      </trkpt>
      <trkpt lat="44.08937" lon="6.31242">
        <ele>996.6</ele>
        <time>2021-09-11T11:00:18Z</time>
      </trkpt>
      <trkpt lat="44.08937" lon="6.31242">
        <ele>996.6</ele>
        <time>2021-09-11T11:00:19Z</time>
      </trkpt>
      <trkpt lat="44.08937" lon="6.31242">
        <ele>996.6</ele>
        <time>2021-09-11T11:00:21Z</time>
      </trkpt>
      <trkpt lat="44.08937" lon="6.31242">
        <ele>996.6</ele>
        <time>2021-09-11T11:00:22Z</time>
      </trkpt>
      <trkpt lat="44.08937" lon="6.31242">
        <ele>996.6</ele>
        <time>2021-09-11T11:00:23Z</time>
      </trkpt>
      <trkpt lat="44.08937" lon="6.31242">
        <ele>996.6</ele>
        <time>2021-09-11T11:00:25Z</time>
      </trkpt>
      <trkpt lat="44.08937" lon="6.31242">
        <ele>996.6</ele>
        <time>2021-09-11T11:00:26Z</time>
      </trkpt>
      <trkpt lat="44.08937" lon="6.31242">
        <ele>996.6</ele>
        <time>2021-09-11T11:00:28Z</time>
      </trkpt>
      <trkpt lat="44.08937" lon="6.31242">
        <ele>996.6</ele>
        <time>2021-09-11T11:00:29Z</time>
      </trkpt>
      <trkpt lat="44.08937" lon="6.31242">
        <ele>996.6</ele>
        <time>2021-09-11T11:00:31Z</time>
      </trkpt>
      <trkpt lat="44.08937" lon="6.31242">
        <ele>996.6</ele>
        <time>2021-09-11T11:00:32Z</time>
      </trkpt>
      <trkpt lat="44.08937" lon="6.31242">
        <ele>996.6</ele>
        <time>2021-09-11T11:00:33Z</time>
      </trkpt>
      <trkpt lat="44.08937" lon="6.31242">
        <ele>996.6</ele>
        <time>2021-09-11T11:00:35Z</time>
      </trkpt>
      <trkpt lat="44.08937" lon="6.31242">
        <ele>996.6</ele>
        <time>2021-09-11T11:00:37Z</time>
      </trkpt>
      <trkpt lat="44.08937" lon="6.31242">
        <ele>996.6</ele>
        <time>2021-09-11T11:00:38Z</time>
      </trkpt>
      <trkpt lat="44.08937" lon="6.31242">
        <ele>996.6</ele>
        <time>2021-09-11T11:00:40Z</time>
      </trkpt>
      <trkpt lat="44.08937" lon="6.31242">
        <ele>996.6</ele>
        <time>2021-09-11T11:00:41Z</time>
      </trkpt>
      <trkpt lat="44.08937" lon="6.31242">
        <ele>996.6</ele>
        <time>2021-09-11T11:00:43Z</time>
      </trkpt>
      <trkpt lat="44.08937" lon="6.31242">
        <ele>996.6</ele>
        <time>2021-09-11T11:00:45Z</time>
      </trkpt>
      <trkpt lat="44.08937" lon="6.31242">
        <ele>996.6</ele>
        <time>2021-09-11T11:00:46Z</time>
      </trkpt>
      <trkpt lat="44.08937" lon="6.31242">
        <ele>996.6</ele>
        <time>2021-09-11T11:00:47Z</time>
      </trkpt>
      <trkpt lat="44.08937" lon="6.31242">
        <ele>996.6</ele>
        <time>2021-09-11T11:00:48Z</time>
      </trkpt>
      <trkpt lat="44.08937" lon="6.31242">
        <ele>996.7</ele>
        <time>2021-09-11T11:00:50Z</time>
      </trkpt>
      <trkpt lat="44.08937" lon="6.31242">
        <ele>996.7</ele>
        <time>2021-09-11T11:00:52Z</time>
      </trkpt>
      <trkpt lat="44.08937" lon="6.31242">
        <ele>996.7</ele>
        <time>2021-09-11T11:00:54Z</time>
      </trkpt>
      <trkpt lat="44.08937" lon="6.31242">
        <ele>996.7</ele>
        <time>2021-09-11T11:00:56Z</time>
      </trkpt>
      <trkpt lat="44.08937" lon="6.31242">
        <ele>996.7</ele>
        <time>2021-09-11T11:00:58Z</time>
      </trkpt>
      <trkpt lat="44.08937" lon="6.31242">
        <ele>996.7</ele>
        <time>2021-09-11T11:00:59Z</time>
      </trkpt>
      <trkpt lat="44.08937" lon="6.31242">
        <ele>996.7</ele>
        <time>2021-09-11T11:01:00Z</time>
      </trkpt>
      <trkpt lat="44.08937" lon="6.31242">
        <ele>996.7</ele>
        <time>2021-09-11T11:01:02Z</time>
      </trkpt>
      <trkpt lat="44.08937" lon="6.31242">
        <ele>996.7</ele>
        <time>2021-09-11T11:01:04Z</time>
      </trkpt>
      <trkpt lat="44.08937" lon="6.31242">
        <ele>996.7</ele>
        <time>2021-09-11T11:01:06Z</time>
      </trkpt>
      <trkpt lat="44.08937" lon="6.31242">
        <ele>996.7</ele>
        <time>2021-09-11T11:01:08Z</time>
      </trkpt>
      <trkpt lat="44.08937" lon="6.31242">
        <ele>996.7</ele>
        <time>2021-09-11T11:01:10Z</time>
      </trkpt>
      <trkpt lat="44.08937" lon="6.31242">
        <ele>996.7</ele>
        <time>2021-09-11T11:01:11Z</time>
      </trkpt>
      <trkpt lat="44.08937" lon="6.31242">
        <ele>996.7</ele>
        <time>2021-09-11T11:01:13Z</time>
      </trkpt>
      <trkpt lat="44.08937" lon="6.31242">
        <ele>996.7</ele>
        <time>2021-09-11T11:01:14Z</time>
      </trkpt>
      <trkpt lat="44.08937" lon="6.31242">
        <ele>996.7</ele>
        <time>2021-09-11T11:01:16Z</time>
      </trkpt>
      <trkpt lat="44.08937" lon="6.31242">
        <ele>996.7</ele>
        <time>2021-09-11T11:01:18Z</time>
      </trkpt>
      <trkpt lat="44.08937" lon="6.31243">
        <ele>996.7</ele>
        <time>2021-09-11T11:01:19Z</time>
      </trkpt>
      <trkpt lat="44.08937" lon="6.31243">
        <ele>996.7</ele>
        <time>2021-09-11T11:01:20Z</time>
      </trkpt>
      <trkpt lat="44.08937" lon="6.31243">
        <ele>996.7</ele>
        <time>2021-09-11T11:01:21Z</time>
      </trkpt>
      <trkpt lat="44.08937" lon="6.31243">
        <ele>996.7</ele>
        <time>2021-09-11T11:01:22Z</time>
      </trkpt>
      <trkpt lat="44.08937" lon="6.31242">
        <ele>996.7</ele>
        <time>2021-09-11T11:01:24Z</time>
      </trkpt>
      <trkpt lat="44.08937" lon="6.31242">
        <ele>996.7</ele>
        <time>2021-09-11T11:01:25Z</time>
      </trkpt>
      <trkpt lat="44.08935" lon="6.3124">
        <ele>996.8</ele>
        <time>2021-09-11T11:01:27Z</time>
      </trkpt>
      <trkpt lat="44.08934" lon="6.31237">
        <ele>996.9</ele>
        <time>2021-09-11T11:01:29Z</time>
      </trkpt>
      <trkpt lat="44.08933" lon="6.31236">
        <ele>996.9</ele>
        <time>2021-09-11T11:01:30Z</time>
      </trkpt>
      <trkpt lat="44.08932" lon="6.31234">
        <ele>997</ele>
        <time>2021-09-11T11:01:32Z</time>
      </trkpt>
      <trkpt lat="44.08932" lon="6.31233">
        <ele>997</ele>
        <time>2021-09-11T11:01:33Z</time>
      </trkpt>
      <trkpt lat="44.08931" lon="6.31233">
        <ele>997</ele>
        <time>2021-09-11T11:01:35Z</time>
      </trkpt>
      <trkpt lat="44.08931" lon="6.31232">
        <ele>997.1</ele>
        <time>2021-09-11T11:01:36Z</time>
      </trkpt>
      <trkpt lat="44.0893" lon="6.31232">
        <ele>997.1</ele>
        <time>2021-09-11T11:01:38Z</time>
      </trkpt>
      <trkpt lat="44.0893" lon="6.31232">
        <ele>997.1</ele>
        <time>2021-09-11T11:01:39Z</time>
      </trkpt>
      <trkpt lat="44.0893" lon="6.31232">
        <ele>997.1</ele>
        <time>2021-09-11T11:01:40Z</time>
      </trkpt>
      <trkpt lat="44.0893" lon="6.31233">
        <ele>997.1</ele>
        <time>2021-09-11T11:01:42Z</time>
      </trkpt>
      <trkpt lat="44.0893" lon="6.31234">
        <ele>997.1</ele>
        <time>2021-09-11T11:01:43Z</time>
      </trkpt>
      <trkpt lat="44.08929" lon="6.31235">
        <ele>997.2</ele>
        <time>2021-09-11T11:01:44Z</time>
      </trkpt>
      <trkpt lat="44.08929" lon="6.31236">
        <ele>997.2</ele>
        <time>2021-09-11T11:01:46Z</time>
      </trkpt>
      <trkpt lat="44.08929" lon="6.31237">
        <ele>997.2</ele>
        <time>2021-09-11T11:01:48Z</time>
      </trkpt>
      <trkpt lat="44.08929" lon="6.31238">
        <ele>997.2</ele>
        <time>2021-09-11T11:01:49Z</time>
      </trkpt>
      <trkpt lat="44.0893" lon="6.31242">
        <ele>997.4</ele>
        <time>2021-09-11T11:01:50Z</time>
      </trkpt>
      <trkpt lat="44.08931" lon="6.31244">
        <ele>997.4</ele>
        <time>2021-09-11T11:01:52Z</time>
      </trkpt>
      <trkpt lat="44.08931" lon="6.31246">
        <ele>997.5</ele>
        <time>2021-09-11T11:01:53Z</time>
      </trkpt>
      <trkpt lat="44.08931" lon="6.3125">
        <ele>997.6</ele>
        <time>2021-09-11T11:01:54Z</time>
      </trkpt>
      <trkpt lat="44.08931" lon="6.31252">
        <ele>997.6</ele>
        <time>2021-09-11T11:01:55Z</time>
      </trkpt>
      <trkpt lat="44.08931" lon="6.31254">
        <ele>997.7</ele>
        <time>2021-09-11T11:01:56Z</time>
      </trkpt>
      <trkpt lat="44.08933" lon="6.31257">
        <ele>997.8</ele>
        <time>2021-09-11T11:01:58Z</time>
      </trkpt>
      <trkpt lat="44.08937" lon="6.31262">
        <ele>998</ele>
        <time>2021-09-11T11:01:59Z</time>
      </trkpt>
      <trkpt lat="44.08941" lon="6.31266">
        <ele>998.2</ele>
        <time>2021-09-11T11:02:01Z</time>
      </trkpt>
      <trkpt lat="44.08943" lon="6.31269">
        <ele>998.3</ele>
        <time>2021-09-11T11:02:02Z</time>
      </trkpt>
      <trkpt lat="44.08944" lon="6.31269">
        <ele>998.3</ele>
        <time>2021-09-11T11:02:04Z</time>
      </trkpt>
      <trkpt lat="44.08945" lon="6.31272">
        <ele>998.4</ele>
        <time>2021-09-11T11:02:05Z</time>
      </trkpt>
      <trkpt lat="44.08946" lon="6.31274">
        <ele>998.5</ele>
        <time>2021-09-11T11:02:06Z</time>
      </trkpt>
      <trkpt lat="44.08946" lon="6.31275">
        <ele>998.5</ele>
        <time>2021-09-11T11:02:07Z</time>
      </trkpt>
      <trkpt lat="44.08946" lon="6.31278">
        <ele>998.6</ele>
        <time>2021-09-11T11:02:08Z</time>
      </trkpt>
      <trkpt lat="44.08946" lon="6.31279">
        <ele>998.6</ele>
        <time>2021-09-11T11:02:09Z</time>
      </trkpt>
      <trkpt lat="44.08946" lon="6.31281">
        <ele>998.7</ele>
        <time>2021-09-11T11:02:11Z</time>
      </trkpt>
      <trkpt lat="44.08945" lon="6.31283">
        <ele>998.7</ele>
        <time>2021-09-11T11:02:12Z</time>
      </trkpt>
      <trkpt lat="44.08944" lon="6.31285">
        <ele>998.8</ele>
        <time>2021-09-11T11:02:13Z</time>
      </trkpt>
      <trkpt lat="44.08944" lon="6.31287">
        <ele>998.9</ele>
        <time>2021-09-11T11:02:14Z</time>
      </trkpt>
      <trkpt lat="44.08943" lon="6.31289">
        <ele>998.9</ele>
        <time>2021-09-11T11:02:15Z</time>
      </trkpt>
      <trkpt lat="44.08943" lon="6.31291">
        <ele>999</ele>
        <time>2021-09-11T11:02:16Z</time>
      </trkpt>
      <trkpt lat="44.08942" lon="6.31293">
        <ele>999.1</ele>
        <time>2021-09-11T11:02:17Z</time>
      </trkpt>
      <trkpt lat="44.08941" lon="6.31298">
        <ele>999.2</ele>
        <time>2021-09-11T11:02:19Z</time>
      </trkpt>
      <trkpt lat="44.08936" lon="6.31311">
        <ele>999.6</ele>
        <time>2021-09-11T11:02:25Z</time>
      </trkpt>
      <trkpt lat="44.08935" lon="6.31313">
        <ele>999.7</ele>
        <time>2021-09-11T11:02:26Z</time>
      </trkpt>
      <trkpt lat="44.08934" lon="6.31317">
        <ele>999.8</ele>
        <time>2021-09-11T11:02:28Z</time>
      </trkpt>
      <trkpt lat="44.08931" lon="6.31323">
        <ele>1000</ele>
        <time>2021-09-11T11:02:30Z</time>
      </trkpt>
      <trkpt lat="44.0893" lon="6.31325">
        <ele>1000</ele>
        <time>2021-09-11T11:02:31Z</time>
      </trkpt>
      <trkpt lat="44.0893" lon="6.31327">
        <ele>1000.1</ele>
        <time>2021-09-11T11:02:32Z</time>
      </trkpt>
      <trkpt lat="44.08928" lon="6.31329">
        <ele>1000.1</ele>
        <time>2021-09-11T11:02:33Z</time>
      </trkpt>
      <trkpt lat="44.08927" lon="6.3133">
        <ele>1000.2</ele>
        <time>2021-09-11T11:02:35Z</time>
      </trkpt>
      <trkpt lat="44.08926" lon="6.31331">
        <ele>1000.2</ele>
        <time>2021-09-11T11:02:36Z</time>
      </trkpt>
      <trkpt lat="44.08924" lon="6.31333">
        <ele>1000.3</ele>
        <time>2021-09-11T11:02:37Z</time>
      </trkpt>
      <trkpt lat="44.08922" lon="6.31335">
        <ele>1000.4</ele>
        <time>2021-09-11T11:02:39Z</time>
      </trkpt>
      <trkpt lat="44.0892" lon="6.31336">
        <ele>1000.5</ele>
        <time>2021-09-11T11:02:40Z</time>
      </trkpt>
      <trkpt lat="44.08919" lon="6.31337">
        <ele>1000.5</ele>
        <time>2021-09-11T11:02:42Z</time>
      </trkpt>
      <trkpt lat="44.08915" lon="6.31339">
        <ele>1000.7</ele>
        <time>2021-09-11T11:02:44Z</time>
      </trkpt>
      <trkpt lat="44.0891" lon="6.31341">
        <ele>1000.8</ele>
        <time>2021-09-11T11:02:46Z</time>
      </trkpt>
      <trkpt lat="44.08907" lon="6.31342">
        <ele>1000.9</ele>
        <time>2021-09-11T11:02:47Z</time>
      </trkpt>
      <trkpt lat="44.08904" lon="6.31344">
        <ele>1001.1</ele>
        <time>2021-09-11T11:02:48Z</time>
      </trkpt>
      <trkpt lat="44.08903" lon="6.31345">
        <ele>1001.1</ele>
        <time>2021-09-11T11:02:49Z</time>
      </trkpt>
      <trkpt lat="44.08901" lon="6.31346">
        <ele>1001.2</ele>
        <time>2021-09-11T11:02:50Z</time>
      </trkpt>
      <trkpt lat="44.08898" lon="6.31347">
        <ele>1001.3</ele>
        <time>2021-09-11T11:02:52Z</time>
      </trkpt>
      <trkpt lat="44.08894" lon="6.31347">
        <ele>1001.4</ele>
        <time>2021-09-11T11:02:53Z</time>
      </trkpt>
      <trkpt lat="44.08893" lon="6.31348">
        <ele>1001.5</ele>
        <time>2021-09-11T11:02:54Z</time>
      </trkpt>
      <trkpt lat="44.08889" lon="6.31347">
        <ele>1001.6</ele>
        <time>2021-09-11T11:02:56Z</time>
      </trkpt>
      <trkpt lat="44.08888" lon="6.31347">
        <ele>1001.6</ele>
        <time>2021-09-11T11:02:57Z</time>
      </trkpt>
      <trkpt lat="44.08884" lon="6.31345">
        <ele>1001.8</ele>
        <time>2021-09-11T11:02:59Z</time>
      </trkpt>
      <trkpt lat="44.08883" lon="6.31344">
        <ele>1001.8</ele>
        <time>2021-09-11T11:03:00Z</time>
      </trkpt>
      <trkpt lat="44.08881" lon="6.31344">
        <ele>1001.9</ele>
        <time>2021-09-11T11:03:02Z</time>
      </trkpt>
      <trkpt lat="44.08879" lon="6.31344">
        <ele>1002</ele>
        <time>2021-09-11T11:03:03Z</time>
      </trkpt>
      <trkpt lat="44.08877" lon="6.31344">
        <ele>1002</ele>
        <time>2021-09-11T11:03:04Z</time>
      </trkpt>
      <trkpt lat="44.08876" lon="6.31344">
        <ele>1002</ele>
        <time>2021-09-11T11:03:05Z</time>
      </trkpt>
      <trkpt lat="44.08873" lon="6.31344">
        <ele>1002.2</ele>
        <time>2021-09-11T11:03:07Z</time>
      </trkpt>
      <trkpt lat="44.08871" lon="6.31343">
        <ele>1002.2</ele>
        <time>2021-09-11T11:03:08Z</time>
      </trkpt>
      <trkpt lat="44.08867" lon="6.31343">
        <ele>1002.4</ele>
        <time>2021-09-11T11:03:10Z</time>
      </trkpt>
      <trkpt lat="44.08865" lon="6.31344">
        <ele>1002.5</ele>
        <time>2021-09-11T11:03:11Z</time>
      </trkpt>
      <trkpt lat="44.08862" lon="6.31344">
        <ele>1002.6</ele>
        <time>2021-09-11T11:03:13Z</time>
      </trkpt>
      <trkpt lat="44.08861" lon="6.31344">
        <ele>1002.6</ele>
        <time>2021-09-11T11:03:14Z</time>
      </trkpt>
      <trkpt lat="44.08858" lon="6.31343">
        <ele>1002.7</ele>
        <time>2021-09-11T11:03:16Z</time>
      </trkpt>
      <trkpt lat="44.08857" lon="6.31344">
        <ele>1002.8</ele>
        <time>2021-09-11T11:03:17Z</time>
      </trkpt>
      <trkpt lat="44.08855" lon="6.31344">
        <ele>1002.8</ele>
        <time>2021-09-11T11:03:18Z</time>
      </trkpt>
      <trkpt lat="44.08852" lon="6.31344">
        <ele>1002.9</ele>
        <time>2021-09-11T11:03:20Z</time>
      </trkpt>
      <trkpt lat="44.08851" lon="6.31344">
        <ele>1003</ele>
        <time>2021-09-11T11:03:21Z</time>
      </trkpt>
      <trkpt lat="44.08847" lon="6.31344">
        <ele>1003.1</ele>
        <time>2021-09-11T11:03:23Z</time>
      </trkpt>
      <trkpt lat="44.08846" lon="6.31343">
        <ele>1003.2</ele>
        <time>2021-09-11T11:03:24Z</time>
      </trkpt>
      <trkpt lat="44.08845" lon="6.31344">
        <ele>1003.2</ele>
        <time>2021-09-11T11:03:26Z</time>
      </trkpt>
      <trkpt lat="44.08844" lon="6.31348">
        <ele>1003.3</ele>
        <time>2021-09-11T11:03:28Z</time>
      </trkpt>
      <trkpt lat="44.08844" lon="6.31351">
        <ele>1003.4</ele>
        <time>2021-09-11T11:03:29Z</time>
      </trkpt>
      <trkpt lat="44.08843" lon="6.31359">
        <ele>1003.6</ele>
        <time>2021-09-11T11:03:31Z</time>
      </trkpt>
      <trkpt lat="44.08843" lon="6.31362">
        <ele>1003.7</ele>
        <time>2021-09-11T11:03:32Z</time>
      </trkpt>
      <trkpt lat="44.08843" lon="6.31368">
        <ele>1003.9</ele>
        <time>2021-09-11T11:03:34Z</time>
      </trkpt>
      <trkpt lat="44.08846" lon="6.31372">
        <ele>1004.3</ele>
        <time>2021-09-11T11:03:36Z</time>
      </trkpt>
      <trkpt lat="44.08847" lon="6.31373">
        <ele>1004.5</ele>
        <time>2021-09-11T11:03:37Z</time>
      </trkpt>
      <trkpt lat="44.08849" lon="6.31374">
        <ele>1004.6</ele>
        <time>2021-09-11T11:03:38Z</time>
      </trkpt>
      <trkpt lat="44.08852" lon="6.31376">
        <ele>1004.8</ele>
        <time>2021-09-11T11:03:39Z</time>
      </trkpt>
      <trkpt lat="44.08855" lon="6.31377">
        <ele>1005.1</ele>
        <time>2021-09-11T11:03:40Z</time>
      </trkpt>
      <trkpt lat="44.08856" lon="6.31377">
        <ele>1005.2</ele>
        <time>2021-09-11T11:03:41Z</time>
      </trkpt>
      <trkpt lat="44.08858" lon="6.31377">
        <ele>1005.4</ele>
        <time>2021-09-11T11:03:43Z</time>
      </trkpt>
      <trkpt lat="44.0886" lon="6.31378">
        <ele>1005.6</ele>
        <time>2021-09-11T11:03:44Z</time>
      </trkpt>
      <trkpt lat="44.08865" lon="6.31378">
        <ele>1006</ele>
        <time>2021-09-11T11:03:46Z</time>
      </trkpt>
      <trkpt lat="44.0887" lon="6.31381">
        <ele>1006.3</ele>
        <time>2021-09-11T11:03:48Z</time>
      </trkpt>
      <trkpt lat="44.08873" lon="6.31384">
        <ele>1006.6</ele>
        <time>2021-09-11T11:03:49Z</time>
      </trkpt>
      <trkpt lat="44.08874" lon="6.31385">
        <ele>1006.7</ele>
        <time>2021-09-11T11:03:50Z</time>
      </trkpt>
      <trkpt lat="44.08877" lon="6.31389">
        <ele>1007</ele>
        <time>2021-09-11T11:03:52Z</time>
      </trkpt>
      <trkpt lat="44.0888" lon="6.31392">
        <ele>1007.2</ele>
        <time>2021-09-11T11:03:53Z</time>
      </trkpt>
      <trkpt lat="44.08881" lon="6.31393">
        <ele>1007.3</ele>
        <time>2021-09-11T11:03:54Z</time>
      </trkpt>
      <trkpt lat="44.08884" lon="6.31398">
        <ele>1007.6</ele>
        <time>2021-09-11T11:03:56Z</time>
      </trkpt>
      <trkpt lat="44.08886" lon="6.31403">
        <ele>1007.9</ele>
        <time>2021-09-11T11:03:58Z</time>
      </trkpt>
      <trkpt lat="44.08888" lon="6.31408">
        <ele>1008.1</ele>
        <time>2021-09-11T11:04:00Z</time>
      </trkpt>
      <trkpt lat="44.08889" lon="6.31413">
        <ele>1008.3</ele>
        <time>2021-09-11T11:04:01Z</time>
      </trkpt>
      <trkpt lat="44.0889" lon="6.31415">
        <ele>1008.5</ele>
        <time>2021-09-11T11:04:03Z</time>
      </trkpt>
      <trkpt lat="44.08891" lon="6.31417">
        <ele>1008.6</ele>
        <time>2021-09-11T11:04:04Z</time>
      </trkpt>
      <trkpt lat="44.08892" lon="6.31418">
        <ele>1008.7</ele>
        <time>2021-09-11T11:04:05Z</time>
      </trkpt>
      <trkpt lat="44.08895" lon="6.31419">
        <ele>1008.9</ele>
        <time>2021-09-11T11:04:07Z</time>
      </trkpt>
      <trkpt lat="44.08898" lon="6.31421">
        <ele>1009.1</ele>
        <time>2021-09-11T11:04:08Z</time>
      </trkpt>
      <trkpt lat="44.08899" lon="6.31422">
        <ele>1009.2</ele>
        <time>2021-09-11T11:04:09Z</time>
      </trkpt>
      <trkpt lat="44.08904" lon="6.31424">
        <ele>1009.5</ele>
        <time>2021-09-11T11:04:11Z</time>
      </trkpt>
      <trkpt lat="44.08905" lon="6.31425">
        <ele>1009.6</ele>
        <time>2021-09-11T11:04:12Z</time>
      </trkpt>
      <trkpt lat="44.08907" lon="6.31426">
        <ele>1009.6</ele>
        <time>2021-09-11T11:04:13Z</time>
      </trkpt>
      <trkpt lat="44.08911" lon="6.31428">
        <ele>1009.8</ele>
        <time>2021-09-11T11:04:15Z</time>
      </trkpt>
      <trkpt lat="44.08913" lon="6.31428">
        <ele>1009.9</ele>
        <time>2021-09-11T11:04:16Z</time>
      </trkpt>
      <trkpt lat="44.08915" lon="6.31428">
        <ele>1010</ele>
        <time>2021-09-11T11:04:17Z</time>
      </trkpt>
      <trkpt lat="44.08919" lon="6.31426">
        <ele>1010.3</ele>
        <time>2021-09-11T11:04:19Z</time>
      </trkpt>
      <trkpt lat="44.08922" lon="6.31424">
        <ele>1010.4</ele>
        <time>2021-09-11T11:04:20Z</time>
      </trkpt>
      <trkpt lat="44.08927" lon="6.31422">
        <ele>1010.7</ele>
        <time>2021-09-11T11:04:22Z</time>
      </trkpt>
      <trkpt lat="44.08931" lon="6.31422">
        <ele>1010.9</ele>
        <time>2021-09-11T11:04:23Z</time>
      </trkpt>
      <trkpt lat="44.08932" lon="6.31422">
        <ele>1011</ele>
        <time>2021-09-11T11:04:24Z</time>
      </trkpt>
      <trkpt lat="44.08935" lon="6.31424">
        <ele>1011.1</ele>
        <time>2021-09-11T11:04:26Z</time>
      </trkpt>
      <trkpt lat="44.08936" lon="6.31424">
        <ele>1011.2</ele>
        <time>2021-09-11T11:04:27Z</time>
      </trkpt>
      <trkpt lat="44.0894" lon="6.31425">
        <ele>1011.4</ele>
        <time>2021-09-11T11:04:29Z</time>
      </trkpt>
      <trkpt lat="44.08943" lon="6.31426">
        <ele>1011.5</ele>
        <time>2021-09-11T11:04:31Z</time>
      </trkpt>
      <trkpt lat="44.08946" lon="6.31428">
        <ele>1011.7</ele>
        <time>2021-09-11T11:04:32Z</time>
      </trkpt>
      <trkpt lat="44.08948" lon="6.31429">
        <ele>1011.8</ele>
        <time>2021-09-11T11:04:34Z</time>
      </trkpt>
      <trkpt lat="44.08949" lon="6.31428">
        <ele>1011.8</ele>
        <time>2021-09-11T11:04:35Z</time>
      </trkpt>
      <trkpt lat="44.08951" lon="6.31426">
        <ele>1011.9</ele>
        <time>2021-09-11T11:04:37Z</time>
      </trkpt>
      <trkpt lat="44.08954" lon="6.31423">
        <ele>1012.1</ele>
        <time>2021-09-11T11:04:39Z</time>
      </trkpt>
      <trkpt lat="44.08956" lon="6.31422">
        <ele>1012.2</ele>
        <time>2021-09-11T11:04:41Z</time>
      </trkpt>
      <trkpt lat="44.08958" lon="6.31423">
        <ele>1012.2</ele>
        <time>2021-09-11T11:04:42Z</time>
      </trkpt>
      <trkpt lat="44.08959" lon="6.31425">
        <ele>1012.3</ele>
        <time>2021-09-11T11:04:44Z</time>
      </trkpt>
      <trkpt lat="44.0896" lon="6.31425">
        <ele>1012.4</ele>
        <time>2021-09-11T11:04:45Z</time>
      </trkpt>
      <trkpt lat="44.0896" lon="6.31425">
        <ele>1012.4</ele>
        <time>2021-09-11T11:04:47Z</time>
      </trkpt>
      <trkpt lat="44.08962" lon="6.31425">
        <ele>1012.5</ele>
        <time>2021-09-11T11:04:48Z</time>
      </trkpt>
      <trkpt lat="44.08964" lon="6.31425">
        <ele>1012.5</ele>
        <time>2021-09-11T11:04:50Z</time>
      </trkpt>
      <trkpt lat="44.08966" lon="6.31425">
        <ele>1012.6</ele>
        <time>2021-09-11T11:04:51Z</time>
      </trkpt>
      <trkpt lat="44.08969" lon="6.31425">
        <ele>1012.7</ele>
        <time>2021-09-11T11:04:53Z</time>
      </trkpt>
      <trkpt lat="44.08971" lon="6.31426">
        <ele>1012.9</ele>
        <time>2021-09-11T11:04:54Z</time>
      </trkpt>
      <trkpt lat="44.08974" lon="6.31429">
        <ele>1013</ele>
        <time>2021-09-11T11:04:56Z</time>
      </trkpt>
      <trkpt lat="44.08979" lon="6.31433">
        <ele>1013.2</ele>
        <time>2021-09-11T11:04:58Z</time>
      </trkpt>
      <trkpt lat="44.0898" lon="6.31436">
        <ele>1013.4</ele>
        <time>2021-09-11T11:04:59Z</time>
      </trkpt>
      <trkpt lat="44.08981" lon="6.3144">
        <ele>1013.5</ele>
        <time>2021-09-11T11:05:00Z</time>
      </trkpt>
      <trkpt lat="44.08981" lon="6.31441">
        <ele>1013.5</ele>
        <time>2021-09-11T11:05:01Z</time>
      </trkpt>
      <trkpt lat="44.08984" lon="6.31444">
        <ele>1013.7</ele>
        <time>2021-09-11T11:05:03Z</time>
      </trkpt>
      <trkpt lat="44.08986" lon="6.31445">
        <ele>1013.7</ele>
        <time>2021-09-11T11:05:04Z</time>
      </trkpt>
      <trkpt lat="44.08987" lon="6.31446">
        <ele>1013.8</ele>
        <time>2021-09-11T11:05:06Z</time>
      </trkpt>
      <trkpt lat="44.08989" lon="6.31447">
        <ele>1013.9</ele>
        <time>2021-09-11T11:05:07Z</time>
      </trkpt>
      <trkpt lat="44.0899" lon="6.31447">
        <ele>1013.9</ele>
        <time>2021-09-11T11:05:08Z</time>
      </trkpt>
      <trkpt lat="44.08994" lon="6.31446">
        <ele>1014.1</ele>
        <time>2021-09-11T11:05:10Z</time>
      </trkpt>
      <trkpt lat="44.08997" lon="6.31445">
        <ele>1014.2</ele>
        <time>2021-09-11T11:05:11Z</time>
      </trkpt>
      <trkpt lat="44.09017" lon="6.3145">
        <ele>1014.8</ele>
        <time>2021-09-11T11:05:20Z</time>
      </trkpt>
      <trkpt lat="44.09024" lon="6.3145">
        <ele>1015</ele>
        <time>2021-09-11T11:05:22Z</time>
      </trkpt>
      <trkpt lat="44.09028" lon="6.31451">
        <ele>1015.1</ele>
        <time>2021-09-11T11:05:23Z</time>
      </trkpt>
      <trkpt lat="44.09031" lon="6.31452">
        <ele>1015.2</ele>
        <time>2021-09-11T11:05:24Z</time>
      </trkpt>
      <trkpt lat="44.09035" lon="6.31452">
        <ele>1015.3</ele>
        <time>2021-09-11T11:05:25Z</time>
      </trkpt>
      <trkpt lat="44.0904" lon="6.31451">
        <ele>1015.5</ele>
        <time>2021-09-11T11:05:27Z</time>
      </trkpt>
      <trkpt lat="44.09046" lon="6.31447">
        <ele>1015.6</ele>
        <time>2021-09-11T11:05:29Z</time>
      </trkpt>
      <trkpt lat="44.09058" lon="6.3143">
        <ele>1016</ele>
        <time>2021-09-11T11:05:31Z</time>
      </trkpt>
      <trkpt lat="44.0906" lon="6.31426">
        <ele>1016.1</ele>
        <time>2021-09-11T11:05:32Z</time>
      </trkpt>
      <trkpt lat="44.09062" lon="6.31422">
        <ele>1016.2</ele>
        <time>2021-09-11T11:05:33Z</time>
      </trkpt>
      <trkpt lat="44.09065" lon="6.31417">
        <ele>1016.3</ele>
        <time>2021-09-11T11:05:34Z</time>
      </trkpt>
      <trkpt lat="44.09069" lon="6.31411">
        <ele>1016.4</ele>
        <time>2021-09-11T11:05:36Z</time>
      </trkpt>
      <trkpt lat="44.09071" lon="6.31408">
        <ele>1016.5</ele>
        <time>2021-09-11T11:05:37Z</time>
      </trkpt>
      <trkpt lat="44.09074" lon="6.31403">
        <ele>1016.6</ele>
        <time>2021-09-11T11:05:38Z</time>
      </trkpt>
      <trkpt lat="44.0908" lon="6.31395">
        <ele>1016.9</ele>
        <time>2021-09-11T11:05:40Z</time>
      </trkpt>
      <trkpt lat="44.09087" lon="6.31387">
        <ele>1017.2</ele>
        <time>2021-09-11T11:05:42Z</time>
      </trkpt>
      <trkpt lat="44.0909" lon="6.31384">
        <ele>1017.4</ele>
        <time>2021-09-11T11:05:43Z</time>
      </trkpt>
      <trkpt lat="44.09091" lon="6.31384">
        <ele>1017.4</ele>
        <time>2021-09-11T11:05:45Z</time>
      </trkpt>
      <trkpt lat="44.09093" lon="6.31384">
        <ele>1017.5</ele>
        <time>2021-09-11T11:05:46Z</time>
      </trkpt>
      <trkpt lat="44.09093" lon="6.31386">
        <ele>1017.5</ele>
        <time>2021-09-11T11:05:47Z</time>
      </trkpt>
      <trkpt lat="44.09095" lon="6.31388">
        <ele>1017.6</ele>
        <time>2021-09-11T11:05:48Z</time>
      </trkpt>
      <trkpt lat="44.09097" lon="6.31388">
        <ele>1017.7</ele>
        <time>2021-09-11T11:05:49Z</time>
      </trkpt>
      <trkpt lat="44.09101" lon="6.31387">
        <ele>1017.9</ele>
        <time>2021-09-11T11:05:51Z</time>
      </trkpt>
      <trkpt lat="44.09106" lon="6.31386">
        <ele>1018</ele>
        <time>2021-09-11T11:05:53Z</time>
      </trkpt>
      <trkpt lat="44.09108" lon="6.31388">
        <ele>1018.1</ele>
        <time>2021-09-11T11:05:54Z</time>
      </trkpt>
      <trkpt lat="44.0911" lon="6.31389">
        <ele>1018.2</ele>
        <time>2021-09-11T11:05:56Z</time>
      </trkpt>
      <trkpt lat="44.09113" lon="6.31392">
        <ele>1018.3</ele>
        <time>2021-09-11T11:05:57Z</time>
      </trkpt>
      <trkpt lat="44.09115" lon="6.31394">
        <ele>1018.4</ele>
        <time>2021-09-11T11:05:58Z</time>
      </trkpt>
      <trkpt lat="44.09118" lon="6.31398">
        <ele>1018.5</ele>
        <time>2021-09-11T11:06:00Z</time>
      </trkpt>
      <trkpt lat="44.09121" lon="6.314">
        <ele>1018.6</ele>
        <time>2021-09-11T11:06:01Z</time>
      </trkpt>
      <trkpt lat="44.09122" lon="6.31401">
        <ele>1018.6</ele>
        <time>2021-09-11T11:06:02Z</time>
      </trkpt>
      <trkpt lat="44.09124" lon="6.31405">
        <ele>1018.7</ele>
        <time>2021-09-11T11:06:03Z</time>
      </trkpt>
      <trkpt lat="44.09127" lon="6.31409">
        <ele>1018.8</ele>
        <time>2021-09-11T11:06:05Z</time>
      </trkpt>
      <trkpt lat="44.09129" lon="6.31414">
        <ele>1019</ele>
        <time>2021-09-11T11:06:06Z</time>
      </trkpt>
      <trkpt lat="44.09129" lon="6.31416">
        <ele>1019</ele>
        <time>2021-09-11T11:06:07Z</time>
      </trkpt>
      <trkpt lat="44.0913" lon="6.3142">
        <ele>1019.1</ele>
        <time>2021-09-11T11:06:08Z</time>
      </trkpt>
      <trkpt lat="44.0913" lon="6.31422">
        <ele>1019.2</ele>
        <time>2021-09-11T11:06:09Z</time>
      </trkpt>
      <trkpt lat="44.0913" lon="6.31425">
        <ele>1019.3</ele>
        <time>2021-09-11T11:06:10Z</time>
      </trkpt>
      <trkpt lat="44.0913" lon="6.3143">
        <ele>1019.4</ele>
        <time>2021-09-11T11:06:12Z</time>
      </trkpt>
      <trkpt lat="44.0913" lon="6.31435">
        <ele>1019.5</ele>
        <time>2021-09-11T11:06:13Z</time>
      </trkpt>
      <trkpt lat="44.0913" lon="6.31437">
        <ele>1019.5</ele>
        <time>2021-09-11T11:06:14Z</time>
      </trkpt>
      <trkpt lat="44.09131" lon="6.3144">
        <ele>1019.6</ele>
        <time>2021-09-11T11:06:15Z</time>
      </trkpt>
      <trkpt lat="44.09134" lon="6.31443">
        <ele>1019.8</ele>
        <time>2021-09-11T11:06:17Z</time>
      </trkpt>
      <trkpt lat="44.09137" lon="6.31445">
        <ele>1019.8</ele>
        <time>2021-09-11T11:06:18Z</time>
      </trkpt>
      <trkpt lat="44.09141" lon="6.31451">
        <ele>1020</ele>
        <time>2021-09-11T11:06:20Z</time>
      </trkpt>
      <trkpt lat="44.09146" lon="6.31456">
        <ele>1020.1</ele>
        <time>2021-09-11T11:06:21Z</time>
      </trkpt>
      <trkpt lat="44.0915" lon="6.31459">
        <ele>1020.2</ele>
        <time>2021-09-11T11:06:23Z</time>
      </trkpt>
      <trkpt lat="44.09155" lon="6.31463">
        <ele>1020.3</ele>
        <time>2021-09-11T11:06:25Z</time>
      </trkpt>
      <trkpt lat="44.09158" lon="6.31465">
        <ele>1020.3</ele>
        <time>2021-09-11T11:06:26Z</time>
      </trkpt>
      <trkpt lat="44.09162" lon="6.31468">
        <ele>1020.4</ele>
        <time>2021-09-11T11:06:27Z</time>
      </trkpt>
      <trkpt lat="44.09165" lon="6.31471">
        <ele>1020.5</ele>
        <time>2021-09-11T11:06:28Z</time>
      </trkpt>
      <trkpt lat="44.09169" lon="6.31476">
        <ele>1020.6</ele>
        <time>2021-09-11T11:06:30Z</time>
      </trkpt>
      <trkpt lat="44.09173" lon="6.3148">
        <ele>1020.7</ele>
        <time>2021-09-11T11:06:32Z</time>
      </trkpt>
      <trkpt lat="44.09176" lon="6.31482">
        <ele>1020.8</ele>
        <time>2021-09-11T11:06:33Z</time>
      </trkpt>
      <trkpt lat="44.0918" lon="6.31484">
        <ele>1020.9</ele>
        <time>2021-09-11T11:06:34Z</time>
      </trkpt>
      <trkpt lat="44.09181" lon="6.31485">
        <ele>1020.9</ele>
        <time>2021-09-11T11:06:35Z</time>
      </trkpt>
      <trkpt lat="44.09183" lon="6.31487">
        <ele>1021</ele>
        <time>2021-09-11T11:06:37Z</time>
      </trkpt>
      <trkpt lat="44.09185" lon="6.31489">
        <ele>1021.1</ele>
        <time>2021-09-11T11:06:38Z</time>
      </trkpt>
      <trkpt lat="44.09188" lon="6.31494">
        <ele>1021.2</ele>
        <time>2021-09-11T11:06:40Z</time>
      </trkpt>
      <trkpt lat="44.09191" lon="6.31497">
        <ele>1021.3</ele>
        <time>2021-09-11T11:06:41Z</time>
      </trkpt>
      <trkpt lat="44.09194" lon="6.31499">
        <ele>1021.5</ele>
        <time>2021-09-11T11:06:42Z</time>
      </trkpt>
      <trkpt lat="44.09198" lon="6.315">
        <ele>1021.7</ele>
        <time>2021-09-11T11:06:44Z</time>
      </trkpt>
      <trkpt lat="44.09201" lon="6.31502">
        <ele>1021.8</ele>
        <time>2021-09-11T11:06:46Z</time>
      </trkpt>
      <trkpt lat="44.09202" lon="6.31502">
        <ele>1021.8</ele>
        <time>2021-09-11T11:06:47Z</time>
      </trkpt>
      <trkpt lat="44.09203" lon="6.31502">
        <ele>1021.9</ele>
        <time>2021-09-11T11:06:48Z</time>
      </trkpt>
      <trkpt lat="44.09204" lon="6.31503">
        <ele>1021.9</ele>
        <time>2021-09-11T11:06:49Z</time>
      </trkpt>
      <trkpt lat="44.09208" lon="6.31502">
        <ele>1022.1</ele>
        <time>2021-09-11T11:06:51Z</time>
      </trkpt>
      <trkpt lat="44.0921" lon="6.31502">
        <ele>1022.1</ele>
        <time>2021-09-11T11:06:52Z</time>
      </trkpt>
      <trkpt lat="44.09215" lon="6.31502">
        <ele>1022.3</ele>
        <time>2021-09-11T11:06:54Z</time>
      </trkpt>
      <trkpt lat="44.09218" lon="6.31502">
        <ele>1022.4</ele>
        <time>2021-09-11T11:06:55Z</time>
      </trkpt>
      <trkpt lat="44.09221" lon="6.31503">
        <ele>1022.5</ele>
        <time>2021-09-11T11:06:56Z</time>
      </trkpt>
      <trkpt lat="44.09225" lon="6.31507">
        <ele>1022.7</ele>
        <time>2021-09-11T11:06:58Z</time>
      </trkpt>
      <trkpt lat="44.09231" lon="6.31508">
        <ele>1022.8</ele>
        <time>2021-09-11T11:07:00Z</time>
      </trkpt>
      <trkpt lat="44.09233" lon="6.31509">
        <ele>1022.9</ele>
        <time>2021-09-11T11:07:01Z</time>
      </trkpt>
      <trkpt lat="44.09236" lon="6.3151">
        <ele>1023</ele>
        <time>2021-09-11T11:07:02Z</time>
      </trkpt>
      <trkpt lat="44.0924" lon="6.31511">
        <ele>1023</ele>
        <time>2021-09-11T11:07:04Z</time>
      </trkpt>
      <trkpt lat="44.09241" lon="6.31512">
        <ele>1023.1</ele>
        <time>2021-09-11T11:07:05Z</time>
      </trkpt>
      <trkpt lat="44.09242" lon="6.31512">
        <ele>1023.1</ele>
        <time>2021-09-11T11:07:06Z</time>
      </trkpt>
      <trkpt lat="44.09243" lon="6.31509">
        <ele>1023.1</ele>
        <time>2021-09-11T11:07:08Z</time>
      </trkpt>
      <trkpt lat="44.09243" lon="6.31508">
        <ele>1023.1</ele>
        <time>2021-09-11T11:07:10Z</time>
      </trkpt>
      <trkpt lat="44.09243" lon="6.31508">
        <ele>1023.1</ele>
        <time>2021-09-11T11:07:11Z</time>
      </trkpt>
      <trkpt lat="44.09243" lon="6.31508">
        <ele>1023.1</ele>
        <time>2021-09-11T11:07:13Z</time>
      </trkpt>
      <trkpt lat="44.09243" lon="6.31508">
        <ele>1023.1</ele>
        <time>2021-09-11T11:07:15Z</time>
      </trkpt>
      <trkpt lat="44.09226" lon="6.31529">
        <ele>1023.3</ele>
        <time>2021-09-11T11:08:41Z</time>
      </trkpt>
      <trkpt lat="44.09225" lon="6.31542">
        <ele>1023.3</ele>
        <time>2021-09-11T11:08:43Z</time>
      </trkpt>
      <trkpt lat="44.09223" lon="6.31556">
        <ele>1023.2</ele>
        <time>2021-09-11T11:08:45Z</time>
      </trkpt>
      <trkpt lat="44.09223" lon="6.31564">
        <ele>1023.2</ele>
        <time>2021-09-11T11:08:46Z</time>
      </trkpt>
      <trkpt lat="44.09224" lon="6.31568">
        <ele>1023.2</ele>
        <time>2021-09-11T11:08:47Z</time>
      </trkpt>
      <trkpt lat="44.09228" lon="6.31573">
        <ele>1023.2</ele>
        <time>2021-09-11T11:08:49Z</time>
      </trkpt>
      <trkpt lat="44.09231" lon="6.31578">
        <ele>1023.2</ele>
        <time>2021-09-11T11:08:50Z</time>
      </trkpt>
      <trkpt lat="44.09232" lon="6.3158">
        <ele>1023.2</ele>
        <time>2021-09-11T11:08:51Z</time>
      </trkpt>
      <trkpt lat="44.09235" lon="6.31585">
        <ele>1023.2</ele>
        <time>2021-09-11T11:08:53Z</time>
      </trkpt>
      <trkpt lat="44.09235" lon="6.31587">
        <ele>1023.2</ele>
        <time>2021-09-11T11:08:54Z</time>
      </trkpt>
      <trkpt lat="44.09236" lon="6.31589">
        <ele>1023.2</ele>
        <time>2021-09-11T11:08:56Z</time>
      </trkpt>
      <trkpt lat="44.09283" lon="6.31584">
        <ele>1022.8</ele>
        <time>2021-09-11T11:09:15Z</time>
      </trkpt>
      <trkpt lat="44.09291" lon="6.31573">
        <ele>1022.1</ele>
        <time>2021-09-11T11:09:17Z</time>
      </trkpt>
      <trkpt lat="44.09297" lon="6.31567">
        <ele>1021.5</ele>
        <time>2021-09-11T11:09:18Z</time>
      </trkpt>
      <trkpt lat="44.0931" lon="6.31558">
        <ele>1020.6</ele>
        <time>2021-09-11T11:09:20Z</time>
      </trkpt>
      <trkpt lat="44.09321" lon="6.31555">
        <ele>1019.9</ele>
        <time>2021-09-11T11:09:22Z</time>
      </trkpt>
      <trkpt lat="44.09327" lon="6.31555">
        <ele>1019.4</ele>
        <time>2021-09-11T11:09:23Z</time>
      </trkpt>
      <trkpt lat="44.09335" lon="6.31558">
        <ele>1018.8</ele>
        <time>2021-09-11T11:09:24Z</time>
      </trkpt>
      <trkpt lat="44.09351" lon="6.31571">
        <ele>1017.2</ele>
        <time>2021-09-11T11:09:26Z</time>
      </trkpt>
      <trkpt lat="44.09356" lon="6.31578">
        <ele>1016.6</ele>
        <time>2021-09-11T11:09:27Z</time>
      </trkpt>
      <trkpt lat="44.09365" lon="6.31594">
        <ele>1015.4</ele>
        <time>2021-09-11T11:09:29Z</time>
      </trkpt>
      <trkpt lat="44.09371" lon="6.31612">
        <ele>1014.2</ele>
        <time>2021-09-11T11:09:31Z</time>
      </trkpt>
      <trkpt lat="44.09373" lon="6.31622">
        <ele>1013.5</ele>
        <time>2021-09-11T11:09:32Z</time>
      </trkpt>
      <trkpt lat="44.09373" lon="6.31634">
        <ele>1012.8</ele>
        <time>2021-09-11T11:09:34Z</time>
      </trkpt>
      <trkpt lat="44.09371" lon="6.31644">
        <ele>1012.3</ele>
        <time>2021-09-11T11:09:35Z</time>
      </trkpt>
      <trkpt lat="44.0937" lon="6.31654">
        <ele>1011.8</ele>
        <time>2021-09-11T11:09:36Z</time>
      </trkpt>
      <trkpt lat="44.09368" lon="6.31674">
        <ele>1010.9</ele>
        <time>2021-09-11T11:09:38Z</time>
      </trkpt>
      <trkpt lat="44.09366" lon="6.31693">
        <ele>1010.2</ele>
        <time>2021-09-11T11:09:40Z</time>
      </trkpt>
      <trkpt lat="44.09366" lon="6.31711">
        <ele>1009.6</ele>
        <time>2021-09-11T11:09:42Z</time>
      </trkpt>
      <trkpt lat="44.09367" lon="6.31719">
        <ele>1009.3</ele>
        <time>2021-09-11T11:09:43Z</time>
      </trkpt>
      <trkpt lat="44.09374" lon="6.31734">
        <ele>1008.7</ele>
        <time>2021-09-11T11:09:45Z</time>
      </trkpt>
      <trkpt lat="44.09381" lon="6.31747">
        <ele>1008.3</ele>
        <time>2021-09-11T11:09:47Z</time>
      </trkpt>
      <trkpt lat="44.09386" lon="6.31753">
        <ele>1008.1</ele>
        <time>2021-09-11T11:09:48Z</time>
      </trkpt>
      <trkpt lat="44.09398" lon="6.3176">
        <ele>1007.9</ele>
        <time>2021-09-11T11:09:50Z</time>
      </trkpt>
      <trkpt lat="44.0941" lon="6.31762">
        <ele>1007.7</ele>
        <time>2021-09-11T11:09:52Z</time>
      </trkpt>
      <trkpt lat="44.09416" lon="6.31763">
        <ele>1007.4</ele>
        <time>2021-09-11T11:09:53Z</time>
      </trkpt>
      <trkpt lat="44.0942" lon="6.31765">
        <ele>1007.2</ele>
        <time>2021-09-11T11:09:54Z</time>
      </trkpt>
      <trkpt lat="44.09429" lon="6.31771">
        <ele>1006.6</ele>
        <time>2021-09-11T11:09:56Z</time>
      </trkpt>
      <trkpt lat="44.09437" lon="6.31777">
        <ele>1006</ele>
        <time>2021-09-11T11:09:58Z</time>
      </trkpt>
      <trkpt lat="44.0944" lon="6.31781">
        <ele>1005.7</ele>
        <time>2021-09-11T11:09:59Z</time>
      </trkpt>
      <trkpt lat="44.09441" lon="6.31784">
        <ele>1005.6</ele>
        <time>2021-09-11T11:10:00Z</time>
      </trkpt>
      <trkpt lat="44.09443" lon="6.3179">
        <ele>1005.2</ele>
        <time>2021-09-11T11:10:02Z</time>
      </trkpt>
      <trkpt lat="44.09443" lon="6.31795">
        <ele>1005</ele>
        <time>2021-09-11T11:10:03Z</time>
      </trkpt>
      <trkpt lat="44.09441" lon="6.31804">
        <ele>1004.5</ele>
        <time>2021-09-11T11:10:05Z</time>
      </trkpt>
      <trkpt lat="44.09441" lon="6.31811">
        <ele>1004.1</ele>
        <time>2021-09-11T11:10:06Z</time>
      </trkpt>
      <trkpt lat="44.09443" lon="6.31814">
        <ele>1003.9</ele>
        <time>2021-09-11T11:10:07Z</time>
      </trkpt>
      <trkpt lat="44.09443" lon="6.31819">
        <ele>1003.6</ele>
        <time>2021-09-11T11:10:08Z</time>
      </trkpt>
      <trkpt lat="44.09441" lon="6.31825">
        <ele>1003.2</ele>
        <time>2021-09-11T11:10:09Z</time>
      </trkpt>
      <trkpt lat="44.09438" lon="6.31832">
        <ele>1002.9</ele>
        <time>2021-09-11T11:10:11Z</time>
      </trkpt>
      <trkpt lat="44.09435" lon="6.31842">
        <ele>1002.3</ele>
        <time>2021-09-11T11:10:12Z</time>
      </trkpt>
      <trkpt lat="44.09432" lon="6.31853">
        <ele>1001.8</ele>
        <time>2021-09-11T11:10:14Z</time>
      </trkpt>
      <trkpt lat="44.09429" lon="6.31867">
        <ele>1000.9</ele>
        <time>2021-09-11T11:10:16Z</time>
      </trkpt>
      <trkpt lat="44.09426" lon="6.31868">
        <ele>1000.7</ele>
        <time>2021-09-11T11:10:17Z</time>
      </trkpt>
      <trkpt lat="44.09424" lon="6.31876">
        <ele>1000.1</ele>
        <time>2021-09-11T11:10:19Z</time>
      </trkpt>
      <trkpt lat="44.09426" lon="6.3188">
        <ele>999.8</ele>
        <time>2021-09-11T11:10:20Z</time>
      </trkpt>
      <trkpt lat="44.09425" lon="6.3189">
        <ele>999.3</ele>
        <time>2021-09-11T11:10:22Z</time>
      </trkpt>
      <trkpt lat="44.09425" lon="6.31895">
        <ele>999</ele>
        <time>2021-09-11T11:10:23Z</time>
      </trkpt>
      <trkpt lat="44.09425" lon="6.31902">
        <ele>998.7</ele>
        <time>2021-09-11T11:10:24Z</time>
      </trkpt>
      <trkpt lat="44.09424" lon="6.31906">
        <ele>998.5</ele>
        <time>2021-09-11T11:10:25Z</time>
      </trkpt>
      <trkpt lat="44.09423" lon="6.31909">
        <ele>998.4</ele>
        <time>2021-09-11T11:10:27Z</time>
      </trkpt>
      <trkpt lat="44.09423" lon="6.31911">
        <ele>998.3</ele>
        <time>2021-09-11T11:10:28Z</time>
      </trkpt>
      <trkpt lat="44.09421" lon="6.31916">
        <ele>998.1</ele>
        <time>2021-09-11T11:10:29Z</time>
      </trkpt>
      <trkpt lat="44.0942" lon="6.31932">
        <ele>997.2</ele>
        <time>2021-09-11T11:10:31Z</time>
      </trkpt>
      <trkpt lat="44.09419" lon="6.31946">
        <ele>996.3</ele>
        <time>2021-09-11T11:10:32Z</time>
      </trkpt>
      <trkpt lat="44.09419" lon="6.3196">
        <ele>995.3</ele>
        <time>2021-09-11T11:10:33Z</time>
      </trkpt>
      <trkpt lat="44.09419" lon="6.31972">
        <ele>994.5</ele>
        <time>2021-09-11T11:10:35Z</time>
      </trkpt>
      <trkpt lat="44.09419" lon="6.31976">
        <ele>994.2</ele>
        <time>2021-09-11T11:10:36Z</time>
      </trkpt>
      <trkpt lat="44.0942" lon="6.31978">
        <ele>994.1</ele>
        <time>2021-09-11T11:10:38Z</time>
      </trkpt>
      <trkpt lat="44.09421" lon="6.3198">
        <ele>994</ele>
        <time>2021-09-11T11:10:39Z</time>
      </trkpt>
      <trkpt lat="44.09424" lon="6.31981">
        <ele>993.7</ele>
        <time>2021-09-11T11:10:40Z</time>
      </trkpt>
      <trkpt lat="44.09426" lon="6.31981">
        <ele>993.6</ele>
        <time>2021-09-11T11:10:41Z</time>
      </trkpt>
      <trkpt lat="44.09428" lon="6.31982">
        <ele>993.4</ele>
        <time>2021-09-11T11:10:42Z</time>
      </trkpt>
      <trkpt lat="44.09453" lon="6.31992">
        <ele>991.5</ele>
        <time>2021-09-11T11:10:49Z</time>
      </trkpt>
      <trkpt lat="44.09456" lon="6.31995">
        <ele>991.3</ele>
        <time>2021-09-11T11:10:50Z</time>
      </trkpt>
      <trkpt lat="44.09462" lon="6.32002">
        <ele>990.8</ele>
        <time>2021-09-11T11:10:52Z</time>
      </trkpt>
      <trkpt lat="44.09471" lon="6.32014">
        <ele>990</ele>
        <time>2021-09-11T11:10:53Z</time>
      </trkpt>
      <trkpt lat="44.09483" lon="6.32028">
        <ele>989.1</ele>
        <time>2021-09-11T11:10:55Z</time>
      </trkpt>
      <trkpt lat="44.09489" lon="6.32034">
        <ele>988.7</ele>
        <time>2021-09-11T11:10:56Z</time>
      </trkpt>
      <trkpt lat="44.09497" lon="6.32038">
        <ele>988.3</ele>
        <time>2021-09-11T11:10:58Z</time>
      </trkpt>
      <trkpt lat="44.09499" lon="6.32039">
        <ele>988.3</ele>
        <time>2021-09-11T11:10:59Z</time>
      </trkpt>
      <trkpt lat="44.09503" lon="6.32041">
        <ele>988.2</ele>
        <time>2021-09-11T11:11:01Z</time>
      </trkpt>
      <trkpt lat="44.09508" lon="6.32042">
        <ele>988.1</ele>
        <time>2021-09-11T11:11:02Z</time>
      </trkpt>
      <trkpt lat="44.09514" lon="6.32044">
        <ele>988.1</ele>
        <time>2021-09-11T11:11:03Z</time>
      </trkpt>
      <trkpt lat="44.09517" lon="6.32045">
        <ele>988.1</ele>
        <time>2021-09-11T11:11:05Z</time>
      </trkpt>
      <trkpt lat="44.09519" lon="6.32047">
        <ele>988.1</ele>
        <time>2021-09-11T11:11:06Z</time>
      </trkpt>
      <trkpt lat="44.0989" lon="6.31995">
        <ele>1011.3</ele>
        <time>2021-09-11T11:17:23Z</time>
      </trkpt>
      <trkpt lat="44.0989" lon="6.32001">
        <ele>1011</ele>
        <time>2021-09-11T11:17:25Z</time>
      </trkpt>
      <trkpt lat="44.0989" lon="6.32003">
        <ele>1011</ele>
        <time>2021-09-11T11:17:26Z</time>
      </trkpt>
      <trkpt lat="44.09891" lon="6.32005">
        <ele>1010.9</ele>
        <time>2021-09-11T11:17:27Z</time>
      </trkpt>
      <trkpt lat="44.09891" lon="6.32005">
        <ele>1010.9</ele>
        <time>2021-09-11T11:17:28Z</time>
      </trkpt>
      <trkpt lat="44.09892" lon="6.32006">
        <ele>1010.8</ele>
        <time>2021-09-11T11:17:29Z</time>
      </trkpt>
      <trkpt lat="44.09892" lon="6.32005">
        <ele>1010.8</ele>
        <time>2021-09-11T11:17:31Z</time>
      </trkpt>
      <trkpt lat="44.09892" lon="6.32005">
        <ele>1010.8</ele>
        <time>2021-09-11T11:17:32Z</time>
      </trkpt>
      <trkpt lat="44.09892" lon="6.32005">
        <ele>1010.8</ele>
        <time>2021-09-11T11:17:33Z</time>
      </trkpt>
      <trkpt lat="44.09892" lon="6.32005">
        <ele>1010.8</ele>
        <time>2021-09-11T11:17:34Z</time>
      </trkpt>
      <trkpt lat="44.09892" lon="6.32005">
        <ele>1010.8</ele>
        <time>2021-09-11T11:17:36Z</time>
      </trkpt>
      <trkpt lat="44.09933" lon="6.31918">
        <ele>1015.4</ele>
        <time>2021-09-11T11:20:01Z</time>
      </trkpt>
      <trkpt lat="44.0993" lon="6.31915">
        <ele>1015.4</ele>
        <time>2021-09-11T11:20:02Z</time>
      </trkpt>
      <trkpt lat="44.09929" lon="6.31914">
        <ele>1015.4</ele>
        <time>2021-09-11T11:20:03Z</time>
      </trkpt>
      <trkpt lat="44.09925" lon="6.31907">
        <ele>1015.4</ele>
        <time>2021-09-11T11:20:05Z</time>
      </trkpt>
      <trkpt lat="44.09923" lon="6.31904">
        <ele>1015.4</ele>
        <time>2021-09-11T11:20:06Z</time>
      </trkpt>
      <trkpt lat="44.09921" lon="6.31904">
        <ele>1015.4</ele>
        <time>2021-09-11T11:20:08Z</time>
      </trkpt>
      <trkpt lat="44.0992" lon="6.31903">
        <ele>1015.4</ele>
        <time>2021-09-11T11:20:09Z</time>
      </trkpt>
      <trkpt lat="44.09919" lon="6.31903">
        <ele>1015.4</ele>
        <time>2021-09-11T11:20:10Z</time>
      </trkpt>
      <trkpt lat="44.09916" lon="6.31903">
        <ele>1015.4</ele>
        <time>2021-09-11T11:20:12Z</time>
      </trkpt>
      <trkpt lat="44.09915" lon="6.31903">
        <ele>1015</ele>
        <time>2021-09-11T11:20:14Z</time>
      </trkpt>
      <trkpt lat="44.10146" lon="6.31864">
        <ele>1045.1</ele>
        <time>2021-09-11T11:22:18Z</time>
      </trkpt>
      <trkpt lat="44.10151" lon="6.3187">
        <ele>1046.1</ele>
        <time>2021-09-11T11:22:19Z</time>
      </trkpt>
      <trkpt lat="44.10155" lon="6.31873">
        <ele>1046.2</ele>
        <time>2021-09-11T11:22:20Z</time>
      </trkpt>
      <trkpt lat="44.1016" lon="6.31877">
        <ele>1046.5</ele>
        <time>2021-09-11T11:22:22Z</time>
      </trkpt>
      <trkpt lat="44.10167" lon="6.31887">
        <ele>1047.5</ele>
        <time>2021-09-11T11:22:23Z</time>
      </trkpt>
      <trkpt lat="44.10174" lon="6.31896">
        <ele>1048.1</ele>
        <time>2021-09-11T11:22:24Z</time>
      </trkpt>
      <trkpt lat="44.10181" lon="6.31906">
        <ele>1048.8</ele>
        <time>2021-09-11T11:22:26Z</time>
      </trkpt>
      <trkpt lat="44.10185" lon="6.31913">
        <ele>1049.5</ele>
        <time>2021-09-11T11:22:27Z</time>
      </trkpt>
      <trkpt lat="44.10191" lon="6.31921">
        <ele>1050.1</ele>
        <time>2021-09-11T11:22:28Z</time>
      </trkpt>
      <trkpt lat="44.10196" lon="6.31926">
        <ele>1049.8</ele>
        <time>2021-09-11T11:22:30Z</time>
      </trkpt>
      <trkpt lat="44.10199" lon="6.31929">
        <ele>1049.7</ele>
        <time>2021-09-11T11:22:32Z</time>
      </trkpt>
      <trkpt lat="44.10199" lon="6.31929">
        <ele>1049.4</ele>
        <time>2021-09-11T11:22:33Z</time>
      </trkpt>
      <trkpt lat="44.102" lon="6.3193">
        <ele>1049.1</ele>
        <time>2021-09-11T11:22:34Z</time>
      </trkpt>
      <trkpt lat="44.10201" lon="6.3193">
        <ele>1048.7</ele>
        <time>2021-09-11T11:22:35Z</time>
      </trkpt>
      <trkpt lat="44.10202" lon="6.3193">
        <ele>1048.1</ele>
        <time>2021-09-11T11:22:36Z</time>
      </trkpt>
      <trkpt lat="44.10202" lon="6.31929">
        <ele>1047.8</ele>
        <time>2021-09-11T11:22:37Z</time>
      </trkpt>
      <trkpt lat="44.10203" lon="6.31928">
        <ele>1047</ele>
        <time>2021-09-11T11:22:38Z</time>
      </trkpt>
      <trkpt lat="44.10203" lon="6.31926">
        <ele>1046.7</ele>
        <time>2021-09-11T11:22:39Z</time>
      </trkpt>
      <trkpt lat="44.10204" lon="6.31925">
        <ele>1046.3</ele>
        <time>2021-09-11T11:22:41Z</time>
      </trkpt>
      <trkpt lat="44.10208" lon="6.31876">
        <ele>1040</ele>
        <time>2021-09-11T11:22:52Z</time>
      </trkpt>
      <trkpt lat="44.10212" lon="6.31863">
        <ele>1038.1</ele>
        <time>2021-09-11T11:22:53Z</time>
      </trkpt>
      <trkpt lat="44.10214" lon="6.31854">
        <ele>1037</ele>
        <time>2021-09-11T11:22:54Z</time>
      </trkpt>
      <trkpt lat="44.10216" lon="6.31841">
        <ele>1035.2</ele>
        <time>2021-09-11T11:22:56Z</time>
      </trkpt>
      <trkpt lat="44.10218" lon="6.31835">
        <ele>1034.7</ele>
        <time>2021-09-11T11:22:57Z</time>
      </trkpt>
      <trkpt lat="44.10224" lon="6.31819">
        <ele>1033</ele>
        <time>2021-09-11T11:22:59Z</time>
      </trkpt>
      <trkpt lat="44.10226" lon="6.31814">
        <ele>1032.2</ele>
        <time>2021-09-11T11:23:00Z</time>
      </trkpt>
      <trkpt lat="44.10228" lon="6.31808">
        <ele>1031.2</ele>
        <time>2021-09-11T11:23:02Z</time>
      </trkpt>
      <trkpt lat="44.10228" lon="6.31804">
        <ele>1030.9</ele>
        <time>2021-09-11T11:23:03Z</time>
      </trkpt>
      <trkpt lat="44.10228" lon="6.31803">
        <ele>1030.1</ele>
        <time>2021-09-11T11:23:04Z</time>
      </trkpt>
      <trkpt lat="44.1028" lon="6.31768">
        <ele>1029.6</ele>
        <time>2021-09-11T11:24:31Z</time>
      </trkpt>
      <trkpt lat="44.10281" lon="6.31773">
        <ele>1029.7</ele>
        <time>2021-09-11T11:24:32Z</time>
      </trkpt>
      <trkpt lat="44.10284" lon="6.31777">
        <ele>1030</ele>
        <time>2021-09-11T11:24:34Z</time>
      </trkpt>
      <trkpt lat="44.10288" lon="6.31785">
        <ele>1030.9</ele>
        <time>2021-09-11T11:24:35Z</time>
      </trkpt>
      <trkpt lat="44.10293" lon="6.31797">
        <ele>1031.4</ele>
        <time>2021-09-11T11:24:37Z</time>
      </trkpt>
      <trkpt lat="44.10296" lon="6.31806">
        <ele>1031.9</ele>
        <time>2021-09-11T11:24:39Z</time>
      </trkpt>
      <trkpt lat="44.10298" lon="6.31812">
        <ele>1032.2</ele>
        <time>2021-09-11T11:24:40Z</time>
      </trkpt>
      <trkpt lat="44.103" lon="6.31816">
        <ele>1032.5</ele>
        <time>2021-09-11T11:24:41Z</time>
      </trkpt>
      <trkpt lat="44.10301" lon="6.31817">
        <ele>1032.6</ele>
        <time>2021-09-11T11:24:42Z</time>
      </trkpt>
      <trkpt lat="44.10302" lon="6.31818">
        <ele>1032.7</ele>
        <time>2021-09-11T11:24:43Z</time>
      </trkpt>
      <trkpt lat="44.10302" lon="6.31819">
        <ele>1032.8</ele>
        <time>2021-09-11T11:24:44Z</time>
      </trkpt>
      <trkpt lat="44.10304" lon="6.31821">
        <ele>1033</ele>
        <time>2021-09-11T11:24:45Z</time>
      </trkpt>
      <trkpt lat="44.10414" lon="6.31813">
        <ele>1043.8</ele>
        <time>2021-09-11T11:26:20Z</time>
      </trkpt>
      <trkpt lat="44.10416" lon="6.3181">
        <ele>1044.1</ele>
        <time>2021-09-11T11:26:21Z</time>
      </trkpt>
      <trkpt lat="44.10418" lon="6.31808">
        <ele>1044.3</ele>
        <time>2021-09-11T11:26:22Z</time>
      </trkpt>
      <trkpt lat="44.10422" lon="6.31804">
        <ele>1044.8</ele>
        <time>2021-09-11T11:26:24Z</time>
      </trkpt>
      <trkpt lat="44.10424" lon="6.318">
        <ele>1045.1</ele>
        <time>2021-09-11T11:26:25Z</time>
      </trkpt>
      <trkpt lat="44.10424" lon="6.31799">
        <ele>1045.1</ele>
        <time>2021-09-11T11:26:26Z</time>
      </trkpt>
      <trkpt lat="44.10426" lon="6.31798">
        <ele>1045.3</ele>
        <time>2021-09-11T11:26:28Z</time>
      </trkpt>
      <trkpt lat="44.10427" lon="6.31798">
        <ele>1045.4</ele>
        <time>2021-09-11T11:26:29Z</time>
      </trkpt>
      <trkpt lat="44.10427" lon="6.31797">
        <ele>1045.5</ele>
        <time>2021-09-11T11:26:30Z</time>
      </trkpt>
      <trkpt lat="44.10428" lon="6.31797">
        <ele>1045.6</ele>
        <time>2021-09-11T11:26:31Z</time>
      </trkpt>
      <trkpt lat="44.10429" lon="6.31796">
        <ele>1045.7</ele>
        <time>2021-09-11T11:26:32Z</time>
      </trkpt>
      <trkpt lat="44.10431" lon="6.31798">
        <ele>1045.9</ele>
        <time>2021-09-11T11:26:34Z</time>
      </trkpt>
      <trkpt lat="44.10432" lon="6.31799">
        <ele>1046</ele>
        <time>2021-09-11T11:26:35Z</time>
      </trkpt>
      <trkpt lat="44.10433" lon="6.318">
        <ele>1046.1</ele>
        <time>2021-09-11T11:26:36Z</time>
      </trkpt>
      <trkpt lat="44.10434" lon="6.318">
        <ele>1046.2</ele>
        <time>2021-09-11T11:26:38Z</time>
      </trkpt>
      <trkpt lat="44.10435" lon="6.31801">
        <ele>1046.3</ele>
        <time>2021-09-11T11:26:39Z</time>
      </trkpt>
      <trkpt lat="44.10435" lon="6.31801">
        <ele>1046.3</ele>
        <time>2021-09-11T11:26:40Z</time>
      </trkpt>
      <trkpt lat="44.10435" lon="6.31801">
        <ele>1046.3</ele>
        <time>2021-09-11T11:26:41Z</time>
      </trkpt>
      <trkpt lat="44.1045" lon="6.31815">
        <ele>1048.1</ele>
        <time>2021-09-11T11:27:01Z</time>
      </trkpt>
      <trkpt lat="44.10453" lon="6.31817">
        <ele>1048.4</ele>
        <time>2021-09-11T11:27:02Z</time>
      </trkpt>
      <trkpt lat="44.10459" lon="6.31824">
        <ele>1049.1</ele>
        <time>2021-09-11T11:27:03Z</time>
      </trkpt>
      <trkpt lat="44.10462" lon="6.31826">
        <ele>1049.4</ele>
        <time>2021-09-11T11:27:05Z</time>
      </trkpt>
      <trkpt lat="44.10467" lon="6.31831">
        <ele>1049.9</ele>
        <time>2021-09-11T11:27:07Z</time>
      </trkpt>
      <trkpt lat="44.10468" lon="6.31835">
        <ele>1050.2</ele>
        <time>2021-09-11T11:27:08Z</time>
      </trkpt>
      <trkpt lat="44.10469" lon="6.31837">
        <ele>1050.3</ele>
        <time>2021-09-11T11:27:10Z</time>
      </trkpt>
      <trkpt lat="44.1047" lon="6.31839">
        <ele>1050.5</ele>
        <time>2021-09-11T11:27:11Z</time>
      </trkpt>
      <trkpt lat="44.10472" lon="6.31843">
        <ele>1050.7</ele>
        <time>2021-09-11T11:27:12Z</time>
      </trkpt>
      <trkpt lat="44.10474" lon="6.31844">
        <ele>1050.9</ele>
        <time>2021-09-11T11:27:13Z</time>
      </trkpt>
      <trkpt lat="44.10477" lon="6.31844">
        <ele>1051.1</ele>
        <time>2021-09-11T11:27:15Z</time>
      </trkpt>
      <trkpt lat="44.10479" lon="6.31846">
        <ele>1051.3</ele>
        <time>2021-09-11T11:27:16Z</time>
      </trkpt>
      <trkpt lat="44.10482" lon="6.31848">
        <ele>1051.6</ele>
        <time>2021-09-11T11:27:17Z</time>
      </trkpt>
      <trkpt lat="44.10486" lon="6.31851">
        <ele>1051.8</ele>
        <time>2021-09-11T11:27:18Z</time>
      </trkpt>
      <trkpt lat="44.10487" lon="6.31851">
        <ele>1051.9</ele>
        <time>2021-09-11T11:27:19Z</time>
      </trkpt>
      <trkpt lat="44.1049" lon="6.31852">
        <ele>1052.1</ele>
        <time>2021-09-11T11:27:21Z</time>
      </trkpt>
      <trkpt lat="44.10491" lon="6.31851">
        <ele>1052.5</ele>
        <time>2021-09-11T11:27:22Z</time>
      </trkpt>
      <trkpt lat="44.10492" lon="6.31849">
        <ele>1052.6</ele>
        <time>2021-09-11T11:27:23Z</time>
      </trkpt>
      <trkpt lat="44.10492" lon="6.31849">
        <ele>1052.6</ele>
        <time>2021-09-11T11:27:24Z</time>
      </trkpt>
      <trkpt lat="44.10493" lon="6.31849">
        <ele>1052.7</ele>
        <time>2021-09-11T11:27:25Z</time>
      </trkpt>
      <trkpt lat="44.10493" lon="6.31849">
        <ele>1052.7</ele>
        <time>2021-09-11T11:27:26Z</time>
      </trkpt>
      <trkpt lat="44.10494" lon="6.31849">
        <ele>1052.8</ele>
        <time>2021-09-11T11:27:28Z</time>
      </trkpt>
      <trkpt lat="44.10494" lon="6.31849">
        <ele>1052.8</ele>
        <time>2021-09-11T11:27:29Z</time>
      </trkpt>
      <trkpt lat="44.10495" lon="6.31849">
        <ele>1052.8</ele>
        <time>2021-09-11T11:27:30Z</time>
      </trkpt>
      <trkpt lat="44.10496" lon="6.3185">
        <ele>1052.9</ele>
        <time>2021-09-11T11:27:31Z</time>
      </trkpt>
      <trkpt lat="44.10512" lon="6.31853">
        <ele>1054.6</ele>
        <time>2021-09-11T11:27:49Z</time>
      </trkpt>
      <trkpt lat="44.10514" lon="6.31854">
        <ele>1054.9</ele>
        <time>2021-09-11T11:27:50Z</time>
      </trkpt>
      <trkpt lat="44.10515" lon="6.31854">
        <ele>1055</ele>
        <time>2021-09-11T11:27:51Z</time>
      </trkpt>
      <trkpt lat="44.10517" lon="6.31857">
        <ele>1055.4</ele>
        <time>2021-09-11T11:27:52Z</time>
      </trkpt>
      <trkpt lat="44.10518" lon="6.31858">
        <ele>1055.6</ele>
        <time>2021-09-11T11:27:53Z</time>
      </trkpt>
      <trkpt lat="44.1052" lon="6.31859">
        <ele>1055.8</ele>
        <time>2021-09-11T11:27:55Z</time>
      </trkpt>
      <trkpt lat="44.1052" lon="6.31859">
        <ele>1055.9</ele>
        <time>2021-09-11T11:27:56Z</time>
      </trkpt>
      <trkpt lat="44.10522" lon="6.3186">
        <ele>1056.2</ele>
        <time>2021-09-11T11:27:58Z</time>
      </trkpt>
      <trkpt lat="44.10525" lon="6.31863">
        <ele>1056.5</ele>
        <time>2021-09-11T11:27:59Z</time>
      </trkpt>
      <trkpt lat="44.10527" lon="6.31866">
        <ele>1056.9</ele>
        <time>2021-09-11T11:28:00Z</time>
      </trkpt>
      <trkpt lat="44.10529" lon="6.31869">
        <ele>1057.2</ele>
        <time>2021-09-11T11:28:01Z</time>
      </trkpt>
      <trkpt lat="44.10532" lon="6.31871">
        <ele>1057.5</ele>
        <time>2021-09-11T11:28:02Z</time>
      </trkpt>
      <trkpt lat="44.10534" lon="6.31874">
        <ele>1057.8</ele>
        <time>2021-09-11T11:28:04Z</time>
      </trkpt>
      <trkpt lat="44.10536" lon="6.31876">
        <ele>1058.1</ele>
        <time>2021-09-11T11:28:20Z</time>
      </trkpt>
      <trkpt lat="44.10539" lon="6.31879">
        <ele>1058.4</ele>
        <time>2021-09-11T11:28:21Z</time>
      </trkpt>
      <trkpt lat="44.10541" lon="6.31882">
        <ele>1058.7</ele>
        <time>2021-09-11T11:28:22Z</time>
      </trkpt>
      <trkpt lat="44.10543" lon="6.31883">
        <ele>1058.8</ele>
        <time>2021-09-11T11:28:24Z</time>
      </trkpt>
      <trkpt lat="44.10544" lon="6.31883">
        <ele>1058.9</ele>
        <time>2021-09-11T11:28:25Z</time>
      </trkpt>
      <trkpt lat="44.10545" lon="6.31883">
        <ele>1059</ele>
        <time>2021-09-11T11:28:26Z</time>
      </trkpt>
      <trkpt lat="44.10546" lon="6.31883">
        <ele>1059.1</ele>
        <time>2021-09-11T11:28:27Z</time>
      </trkpt>
      <trkpt lat="44.10547" lon="6.31883">
        <ele>1059.2</ele>
        <time>2021-09-11T11:28:29Z</time>
      </trkpt>
      <trkpt lat="44.10548" lon="6.31883">
        <ele>1059.3</ele>
        <time>2021-09-11T11:28:30Z</time>
      </trkpt>
      <trkpt lat="44.10549" lon="6.31882">
        <ele>1059.4</ele>
        <time>2021-09-11T11:28:31Z</time>
      </trkpt>
      <trkpt lat="44.1055" lon="6.31882">
        <ele>1059.5</ele>
        <time>2021-09-11T11:28:32Z</time>
      </trkpt>
      <trkpt lat="44.10551" lon="6.31882">
        <ele>1059.5</ele>
        <time>2021-09-11T11:28:34Z</time>
      </trkpt>
      <trkpt lat="44.10551" lon="6.31882">
        <ele>1059.5</ele>
        <time>2021-09-11T11:28:35Z</time>
      </trkpt>
      <trkpt lat="44.10551" lon="6.31882">
        <ele>1059.6</ele>
        <time>2021-09-11T11:28:36Z</time>
      </trkpt>
      <trkpt lat="44.10552" lon="6.31881">
        <ele>1059.6</ele>
        <time>2021-09-11T11:28:37Z</time>
      </trkpt>
      <trkpt lat="44.10552" lon="6.31881">
        <ele>1059.6</ele>
        <time>2021-09-11T11:28:39Z</time>
      </trkpt>
      <trkpt lat="44.10552" lon="6.31881">
        <ele>1059.6</ele>
        <time>2021-09-11T11:28:40Z</time>
      </trkpt>
      <trkpt lat="44.10552" lon="6.31881">
        <ele>1059.6</ele>
        <time>2021-09-11T11:28:41Z</time>
      </trkpt>
      <trkpt lat="44.10657" lon="6.3184">
        <ele>1072.3</ele>
        <time>2021-09-11T11:31:21Z</time>
      </trkpt>
      <trkpt lat="44.10658" lon="6.31838">
        <ele>1072.5</ele>
        <time>2021-09-11T11:31:22Z</time>
      </trkpt>
      <trkpt lat="44.10658" lon="6.31837">
        <ele>1072.6</ele>
        <time>2021-09-11T11:31:23Z</time>
      </trkpt>
      <trkpt lat="44.10659" lon="6.31835">
        <ele>1072.8</ele>
        <time>2021-09-11T11:31:24Z</time>
      </trkpt>
      <trkpt lat="44.10659" lon="6.31831">
        <ele>1073.1</ele>
        <time>2021-09-11T11:31:26Z</time>
      </trkpt>
      <trkpt lat="44.1066" lon="6.31831">
        <ele>1073.2</ele>
        <time>2021-09-11T11:31:27Z</time>
      </trkpt>
      <trkpt lat="44.1066" lon="6.3183">
        <ele>1073.2</ele>
        <time>2021-09-11T11:31:28Z</time>
      </trkpt>
      <trkpt lat="44.1066" lon="6.31829">
        <ele>1073.3</ele>
        <time>2021-09-11T11:31:29Z</time>
      </trkpt>
      <trkpt lat="44.1066" lon="6.31829">
        <ele>1073.3</ele>
        <time>2021-09-11T11:31:30Z</time>
      </trkpt>
      <trkpt lat="44.1066" lon="6.31829">
        <ele>1073.3</ele>
        <time>2021-09-11T11:31:32Z</time>
      </trkpt>
      <trkpt lat="44.1066" lon="6.31828">
        <ele>1073.4</ele>
        <time>2021-09-11T11:31:33Z</time>
      </trkpt>
      <trkpt lat="44.1066" lon="6.31828">
        <ele>1073.4</ele>
        <time>2021-09-11T11:31:34Z</time>
      </trkpt>
      <trkpt lat="44.1066" lon="6.31828">
        <ele>1073.4</ele>
        <time>2021-09-11T11:31:36Z</time>
      </trkpt>
      <trkpt lat="44.1066" lon="6.31828">
        <ele>1073.4</ele>
        <time>2021-09-11T11:31:37Z</time>
      </trkpt>
      <trkpt lat="44.1066" lon="6.31828">
        <ele>1073.4</ele>
        <time>2021-09-11T11:31:39Z</time>
      </trkpt>
      <trkpt lat="44.1066" lon="6.31828">
        <ele>1073.4</ele>
        <time>2021-09-11T11:31:40Z</time>
      </trkpt>
      <trkpt lat="44.10661" lon="6.31827">
        <ele>1073.5</ele>
        <time>2021-09-11T11:31:41Z</time>
      </trkpt>
      <trkpt lat="44.10662" lon="6.31826">
        <ele>1073.7</ele>
        <time>2021-09-11T11:31:43Z</time>
      </trkpt>
      <trkpt lat="44.10665" lon="6.31824">
        <ele>1074.1</ele>
        <time>2021-09-11T11:31:45Z</time>
      </trkpt>
      <trkpt lat="44.10666" lon="6.31822">
        <ele>1074.3</ele>
        <time>2021-09-11T11:31:46Z</time>
      </trkpt>
      <trkpt lat="44.10668" lon="6.31821">
        <ele>1074.5</ele>
        <time>2021-09-11T11:31:47Z</time>
      </trkpt>
      <trkpt lat="44.1067" lon="6.3182">
        <ele>1074.7</ele>
        <time>2021-09-11T11:31:49Z</time>
      </trkpt>
      <trkpt lat="44.10671" lon="6.31819">
        <ele>1074.9</ele>
        <time>2021-09-11T11:31:50Z</time>
      </trkpt>
      <trkpt lat="44.10674" lon="6.31818">
        <ele>1075.3</ele>
        <time>2021-09-11T11:31:52Z</time>
      </trkpt>
      <trkpt lat="44.10675" lon="6.31818">
        <ele>1075.4</ele>
        <time>2021-09-11T11:31:53Z</time>
      </trkpt>
      <trkpt lat="44.10677" lon="6.31818">
        <ele>1075.6</ele>
        <time>2021-09-11T11:31:54Z</time>
      </trkpt>
      <trkpt lat="44.10679" lon="6.31818">
        <ele>1075.9</ele>
        <time>2021-09-11T11:31:56Z</time>
      </trkpt>
      <trkpt lat="44.10681" lon="6.31819">
        <ele>1076.2</ele>
        <time>2021-09-11T11:31:57Z</time>
      </trkpt>
      <trkpt lat="44.10682" lon="6.3182">
        <ele>1076.3</ele>
        <time>2021-09-11T11:31:58Z</time>
      </trkpt>
      <trkpt lat="44.10683" lon="6.3182">
        <ele>1076.5</ele>
        <time>2021-09-11T11:31:59Z</time>
      </trkpt>
      <trkpt lat="44.10684" lon="6.31821">
        <ele>1076.7</ele>
        <time>2021-09-11T11:32:01Z</time>
      </trkpt>
      <trkpt lat="44.10685" lon="6.31823">
        <ele>1077</ele>
        <time>2021-09-11T11:32:03Z</time>
      </trkpt>
      <trkpt lat="44.10686" lon="6.31824">
        <ele>1077.1</ele>
        <time>2021-09-11T11:32:04Z</time>
      </trkpt>
      <trkpt lat="44.10686" lon="6.31825">
        <ele>1077.2</ele>
        <time>2021-09-11T11:32:05Z</time>
      </trkpt>
      <trkpt lat="44.10686" lon="6.31826">
        <ele>1077.3</ele>
        <time>2021-09-11T11:32:06Z</time>
      </trkpt>
      <trkpt lat="44.10687" lon="6.31827">
        <ele>1077.4</ele>
        <time>2021-09-11T11:32:08Z</time>
      </trkpt>
      <trkpt lat="44.10687" lon="6.31828">
        <ele>1077.5</ele>
        <time>2021-09-11T11:32:09Z</time>
      </trkpt>
      <trkpt lat="44.10687" lon="6.31828">
        <ele>1077.6</ele>
        <time>2021-09-11T11:32:10Z</time>
      </trkpt>
      <trkpt lat="44.10687" lon="6.31828">
        <ele>1077.6</ele>
        <time>2021-09-11T11:32:12Z</time>
      </trkpt>
      <trkpt lat="44.10688" lon="6.31829">
        <ele>1077.7</ele>
        <time>2021-09-11T11:32:14Z</time>
      </trkpt>
      <trkpt lat="44.10688" lon="6.31829">
        <ele>1077.7</ele>
        <time>2021-09-11T11:32:15Z</time>
      </trkpt>
      <trkpt lat="44.10688" lon="6.31829">
        <ele>1077.8</ele>
        <time>2021-09-11T11:32:16Z</time>
      </trkpt>
      <trkpt lat="44.10688" lon="6.31829">
        <ele>1077.8</ele>
        <time>2021-09-11T11:32:17Z</time>
      </trkpt>
      <trkpt lat="44.10689" lon="6.31828">
        <ele>1077.9</ele>
        <time>2021-09-11T11:32:18Z</time>
      </trkpt>
      <trkpt lat="44.1069" lon="6.31828">
        <ele>1078.1</ele>
        <time>2021-09-11T11:32:20Z</time>
      </trkpt>
      <trkpt lat="44.1069" lon="6.31828">
        <ele>1078.2</ele>
        <time>2021-09-11T11:32:21Z</time>
      </trkpt>
      <trkpt lat="44.10691" lon="6.31827">
        <ele>1078.3</ele>
        <time>2021-09-11T11:32:22Z</time>
      </trkpt>
      <trkpt lat="44.10692" lon="6.31827">
        <ele>1078.4</ele>
        <time>2021-09-11T11:32:24Z</time>
      </trkpt>
      <trkpt lat="44.10693" lon="6.31827">
        <ele>1078.6</ele>
        <time>2021-09-11T11:32:25Z</time>
      </trkpt>
      <trkpt lat="44.10694" lon="6.31827">
        <ele>1078.8</ele>
        <time>2021-09-11T11:32:26Z</time>
      </trkpt>
      <trkpt lat="44.10698" lon="6.31827">
        <ele>1079.4</ele>
        <time>2021-09-11T11:32:28Z</time>
      </trkpt>
      <trkpt lat="44.10699" lon="6.31827">
        <ele>1079.5</ele>
        <time>2021-09-11T11:32:29Z</time>
      </trkpt>
      <trkpt lat="44.10701" lon="6.31827">
        <ele>1079.9</ele>
        <time>2021-09-11T11:32:31Z</time>
      </trkpt>
      <trkpt lat="44.10703" lon="6.31827">
        <ele>1080.1</ele>
        <time>2021-09-11T11:32:32Z</time>
      </trkpt>
      <trkpt lat="44.10704" lon="6.31827">
        <ele>1080.4</ele>
        <time>2021-09-11T11:32:34Z</time>
      </trkpt>
      <trkpt lat="44.10705" lon="6.31827">
        <ele>1080.5</ele>
        <time>2021-09-11T11:32:35Z</time>
      </trkpt>
      <trkpt lat="44.10705" lon="6.31826">
        <ele>1080.6</ele>
        <time>2021-09-11T11:32:36Z</time>
      </trkpt>
      <trkpt lat="44.10705" lon="6.31823">
        <ele>1080.9</ele>
        <time>2021-09-11T11:32:38Z</time>
      </trkpt>
      <trkpt lat="44.10705" lon="6.31819">
        <ele>1081.3</ele>
        <time>2021-09-11T11:32:39Z</time>
      </trkpt>
      <trkpt lat="44.10705" lon="6.31817">
        <ele>1081.5</ele>
        <time>2021-09-11T11:32:41Z</time>
      </trkpt>
      <trkpt lat="44.10705" lon="6.31817">
        <ele>1081.6</ele>
        <time>2021-09-11T11:32:42Z</time>
      </trkpt>
      <trkpt lat="44.10706" lon="6.31815">
        <ele>1081.7</ele>
        <time>2021-09-11T11:32:44Z</time>
      </trkpt>
      <trkpt lat="44.10706" lon="6.31814">
        <ele>1081.9</ele>
        <time>2021-09-11T11:32:47Z</time>
      </trkpt>
      <trkpt lat="44.10705" lon="6.31814">
        <ele>1081.9</ele>
        <time>2021-09-11T11:32:48Z</time>
      </trkpt>
      <trkpt lat="44.10705" lon="6.31814">
        <ele>1081.9</ele>
        <time>2021-09-11T11:32:49Z</time>
      </trkpt>
      <trkpt lat="44.10705" lon="6.31814">
        <ele>1082</ele>
        <time>2021-09-11T11:32:50Z</time>
      </trkpt>
      <trkpt lat="44.10704" lon="6.31814">
        <ele>1082</ele>
        <time>2021-09-11T11:32:52Z</time>
      </trkpt>
      <trkpt lat="44.10704" lon="6.31814">
        <ele>1082.1</ele>
        <time>2021-09-11T11:32:53Z</time>
      </trkpt>
      <trkpt lat="44.10704" lon="6.31814">
        <ele>1082.1</ele>
        <time>2021-09-11T11:32:54Z</time>
      </trkpt>
      <trkpt lat="44.10704" lon="6.31815">
        <ele>1082.2</ele>
        <time>2021-09-11T11:32:55Z</time>
      </trkpt>
      <trkpt lat="44.10703" lon="6.31815">
        <ele>1082.2</ele>
        <time>2021-09-11T11:32:57Z</time>
      </trkpt>
      <trkpt lat="44.10703" lon="6.31815">
        <ele>1082.2</ele>
        <time>2021-09-11T11:32:59Z</time>
      </trkpt>
      <trkpt lat="44.10703" lon="6.31815">
        <ele>1082.2</ele>
        <time>2021-09-11T11:33:00Z</time>
      </trkpt>
      <trkpt lat="44.10702" lon="6.31815">
        <ele>1082.4</ele>
        <time>2021-09-11T11:33:02Z</time>
      </trkpt>
      <trkpt lat="44.10702" lon="6.31815">
        <ele>1082.4</ele>
        <time>2021-09-11T11:33:03Z</time>
      </trkpt>
      <trkpt lat="44.10701" lon="6.31814">
        <ele>1082.5</ele>
        <time>2021-09-11T11:33:05Z</time>
      </trkpt>
      <trkpt lat="44.10702" lon="6.31814">
        <ele>1082.6</ele>
        <time>2021-09-11T11:33:06Z</time>
      </trkpt>
      <trkpt lat="44.10703" lon="6.31814">
        <ele>1082.6</ele>
        <time>2021-09-11T11:33:08Z</time>
      </trkpt>
      <trkpt lat="44.10703" lon="6.31814">
        <ele>1082.7</ele>
        <time>2021-09-11T11:33:10Z</time>
      </trkpt>
      <trkpt lat="44.10703" lon="6.31814">
        <ele>1082.7</ele>
        <time>2021-09-11T11:33:11Z</time>
      </trkpt>
      <trkpt lat="44.10703" lon="6.31814">
        <ele>1082.7</ele>
        <time>2021-09-11T11:33:12Z</time>
      </trkpt>
      <trkpt lat="44.10703" lon="6.31814">
        <ele>1082.7</ele>
        <time>2021-09-11T11:33:14Z</time>
      </trkpt>
      <trkpt lat="44.10703" lon="6.31814">
        <ele>1082.7</ele>
        <time>2021-09-11T11:33:15Z</time>
      </trkpt>
      <trkpt lat="44.10702" lon="6.31814">
        <ele>1082.7</ele>
        <time>2021-09-11T11:33:16Z</time>
      </trkpt>
      <trkpt lat="44.10702" lon="6.31814">
        <ele>1082.7</ele>
        <time>2021-09-11T11:33:17Z</time>
      </trkpt>
      <trkpt lat="44.10702" lon="6.31814">
        <ele>1082.8</ele>
        <time>2021-09-11T11:33:19Z</time>
      </trkpt>
      <trkpt lat="44.10702" lon="6.31814">
        <ele>1082.8</ele>
        <time>2021-09-11T11:33:20Z</time>
      </trkpt>
      <trkpt lat="44.10702" lon="6.31813">
        <ele>1082.8</ele>
        <time>2021-09-11T11:33:21Z</time>
      </trkpt>
      <trkpt lat="44.10702" lon="6.31813">
        <ele>1082.9</ele>
        <time>2021-09-11T11:33:22Z</time>
      </trkpt>
      <trkpt lat="44.10703" lon="6.31812">
        <ele>1083</ele>
        <time>2021-09-11T11:33:24Z</time>
      </trkpt>
      <trkpt lat="44.10704" lon="6.31811">
        <ele>1083.1</ele>
        <time>2021-09-11T11:33:25Z</time>
      </trkpt>
      <trkpt lat="44.10704" lon="6.31811">
        <ele>1083.2</ele>
        <time>2021-09-11T11:33:26Z</time>
      </trkpt>
      <trkpt lat="44.10706" lon="6.31809">
        <ele>1083.4</ele>
        <time>2021-09-11T11:33:28Z</time>
      </trkpt>
      <trkpt lat="44.10708" lon="6.31808">
        <ele>1083.8</ele>
        <time>2021-09-11T11:33:30Z</time>
      </trkpt>
      <trkpt lat="44.10711" lon="6.31806">
        <ele>1084.2</ele>
        <time>2021-09-11T11:33:31Z</time>
      </trkpt>
      <trkpt lat="44.10712" lon="6.31806">
        <ele>1084.3</ele>
        <time>2021-09-11T11:33:32Z</time>
      </trkpt>
      <trkpt lat="44.10715" lon="6.31804">
        <ele>1084.7</ele>
        <time>2021-09-11T11:33:33Z</time>
      </trkpt>
      <trkpt lat="44.10715" lon="6.31804">
        <ele>1084.8</ele>
        <time>2021-09-11T11:33:34Z</time>
      </trkpt>
      <trkpt lat="44.10717" lon="6.31803">
        <ele>1084.9</ele>
        <time>2021-09-11T11:33:36Z</time>
      </trkpt>
      <trkpt lat="44.10717" lon="6.31802">
        <ele>1085</ele>
        <time>2021-09-11T11:33:38Z</time>
      </trkpt>
      <trkpt lat="44.10718" lon="6.31802">
        <ele>1085.1</ele>
        <time>2021-09-11T11:33:39Z</time>
      </trkpt>
      <trkpt lat="44.10719" lon="6.31802">
        <ele>1085.2</ele>
        <time>2021-09-11T11:33:40Z</time>
      </trkpt>
      <trkpt lat="44.1072" lon="6.31802">
        <ele>1085.3</ele>
        <time>2021-09-11T11:33:42Z</time>
      </trkpt>
      <trkpt lat="44.10721" lon="6.31802">
        <ele>1085.4</ele>
        <time>2021-09-11T11:33:44Z</time>
      </trkpt>
      <trkpt lat="44.10721" lon="6.31802">
        <ele>1085.5</ele>
        <time>2021-09-11T11:33:45Z</time>
      </trkpt>
      <trkpt lat="44.10722" lon="6.31802">
        <ele>1085.6</ele>
        <time>2021-09-11T11:33:46Z</time>
      </trkpt>
      <trkpt lat="44.10724" lon="6.31802">
        <ele>1085.8</ele>
        <time>2021-09-11T11:33:47Z</time>
      </trkpt>
      <trkpt lat="44.10726" lon="6.31803">
        <ele>1086.1</ele>
        <time>2021-09-11T11:33:49Z</time>
      </trkpt>
      <trkpt lat="44.10728" lon="6.31804">
        <ele>1086.2</ele>
        <time>2021-09-11T11:33:50Z</time>
      </trkpt>
      <trkpt lat="44.1073" lon="6.31806">
        <ele>1086.5</ele>
        <time>2021-09-11T11:33:52Z</time>
      </trkpt>
      <trkpt lat="44.10731" lon="6.31807">
        <ele>1086.7</ele>
        <time>2021-09-11T11:33:53Z</time>
      </trkpt>
      <trkpt lat="44.10733" lon="6.31808">
        <ele>1086.8</ele>
        <time>2021-09-11T11:33:54Z</time>
      </trkpt>
      <trkpt lat="44.10735" lon="6.31811">
        <ele>1087.1</ele>
        <time>2021-09-11T11:33:56Z</time>
      </trkpt>
      <trkpt lat="44.10736" lon="6.31812">
        <ele>1087.2</ele>
        <time>2021-09-11T11:33:57Z</time>
      </trkpt>
      <trkpt lat="44.10738" lon="6.31814">
        <ele>1087.4</ele>
        <time>2021-09-11T11:33:58Z</time>
      </trkpt>
      <trkpt lat="44.10738" lon="6.31815">
        <ele>1087.4</ele>
        <time>2021-09-11T11:34:00Z</time>
      </trkpt>
      <trkpt lat="44.10739" lon="6.31816">
        <ele>1087.5</ele>
        <time>2021-09-11T11:34:01Z</time>
      </trkpt>
      <trkpt lat="44.10743" lon="6.31817">
        <ele>1087.8</ele>
        <time>2021-09-11T11:34:02Z</time>
      </trkpt>
      <trkpt lat="44.10745" lon="6.31817">
        <ele>1088</ele>
        <time>2021-09-11T11:34:03Z</time>
      </trkpt>
      <trkpt lat="44.10747" lon="6.31817">
        <ele>1088.1</ele>
        <time>2021-09-11T11:34:05Z</time>
      </trkpt>
      <trkpt lat="44.1075" lon="6.31817">
        <ele>1088.3</ele>
        <time>2021-09-11T11:34:07Z</time>
      </trkpt>
      <trkpt lat="44.10754" lon="6.31818">
        <ele>1088.7</ele>
        <time>2021-09-11T11:34:08Z</time>
      </trkpt>
      <trkpt lat="44.1076" lon="6.31821">
        <ele>1089.1</ele>
        <time>2021-09-11T11:34:09Z</time>
      </trkpt>
      <trkpt lat="44.10766" lon="6.31825">
        <ele>1089.6</ele>
        <time>2021-09-11T11:34:10Z</time>
      </trkpt>
      <trkpt lat="44.1077" lon="6.31827">
        <ele>1089.9</ele>
        <time>2021-09-11T11:34:12Z</time>
      </trkpt>
      <trkpt lat="44.10773" lon="6.31827">
        <ele>1090.1</ele>
        <time>2021-09-11T11:34:13Z</time>
      </trkpt>
      <trkpt lat="44.10774" lon="6.31827">
        <ele>1090.2</ele>
        <time>2021-09-11T11:34:14Z</time>
      </trkpt>
      <trkpt lat="44.10775" lon="6.31827">
        <ele>1090.3</ele>
        <time>2021-09-11T11:34:16Z</time>
      </trkpt>
      <trkpt lat="44.10775" lon="6.31827">
        <ele>1090.3</ele>
        <time>2021-09-11T11:34:17Z</time>
      </trkpt>
      <trkpt lat="44.10775" lon="6.31827">
        <ele>1090.3</ele>
        <time>2021-09-11T11:34:18Z</time>
      </trkpt>
      <trkpt lat="44.10776" lon="6.31827">
        <ele>1090.3</ele>
        <time>2021-09-11T11:34:19Z</time>
      </trkpt>
      <trkpt lat="44.10776" lon="6.31827">
        <ele>1090.3</ele>
        <time>2021-09-11T11:34:21Z</time>
      </trkpt>
      <trkpt lat="44.10776" lon="6.31827">
        <ele>1090.3</ele>
        <time>2021-09-11T11:34:22Z</time>
      </trkpt>
      <trkpt lat="44.10776" lon="6.31827">
        <ele>1090.4</ele>
        <time>2021-09-11T11:34:23Z</time>
      </trkpt>
      <trkpt lat="44.10777" lon="6.31828">
        <ele>1090.4</ele>
        <time>2021-09-11T11:34:25Z</time>
      </trkpt>
      <trkpt lat="44.10803" lon="6.3188">
        <ele>1092.2</ele>
        <time>2021-09-11T11:35:26Z</time>
      </trkpt>
      <trkpt lat="44.10803" lon="6.31886">
        <ele>1092.3</ele>
        <time>2021-09-11T11:35:27Z</time>
      </trkpt>
      <trkpt lat="44.10804" lon="6.31892">
        <ele>1092.4</ele>
        <time>2021-09-11T11:35:28Z</time>
      </trkpt>
      <trkpt lat="44.10805" lon="6.31897">
        <ele>1092.5</ele>
        <time>2021-09-11T11:35:29Z</time>
      </trkpt>
      <trkpt lat="44.10807" lon="6.31902">
        <ele>1092.6</ele>
        <time>2021-09-11T11:35:30Z</time>
      </trkpt>
      <trkpt lat="44.10809" lon="6.31911">
        <ele>1092.8</ele>
        <time>2021-09-11T11:35:31Z</time>
      </trkpt>
      <trkpt lat="44.10811" lon="6.31922">
        <ele>1093</ele>
        <time>2021-09-11T11:35:33Z</time>
      </trkpt>
      <trkpt lat="44.10812" lon="6.31929">
        <ele>1093.2</ele>
        <time>2021-09-11T11:35:34Z</time>
      </trkpt>
      <trkpt lat="44.10813" lon="6.31933">
        <ele>1093.3</ele>
        <time>2021-09-11T11:35:35Z</time>
      </trkpt>
      <trkpt lat="44.10814" lon="6.31938">
        <ele>1093.4</ele>
        <time>2021-09-11T11:35:36Z</time>
      </trkpt>
      <trkpt lat="44.10814" lon="6.31948">
        <ele>1093.7</ele>
        <time>2021-09-11T11:35:38Z</time>
      </trkpt>
      <trkpt lat="44.10813" lon="6.31955">
        <ele>1093.9</ele>
        <time>2021-09-11T11:35:39Z</time>
      </trkpt>
      <trkpt lat="44.10813" lon="6.31961">
        <ele>1094.1</ele>
        <time>2021-09-11T11:35:40Z</time>
      </trkpt>
      <trkpt lat="44.10812" lon="6.31963">
        <ele>1094.2</ele>
        <time>2021-09-11T11:35:41Z</time>
      </trkpt>
      <trkpt lat="44.10811" lon="6.31964">
        <ele>1094.2</ele>
        <time>2021-09-11T11:35:42Z</time>
      </trkpt>
      <trkpt lat="44.10808" lon="6.31969">
        <ele>1094.4</ele>
        <time>2021-09-11T11:35:44Z</time>
      </trkpt>
      <trkpt lat="44.10808" lon="6.3197">
        <ele>1094.4</ele>
        <time>2021-09-11T11:35:45Z</time>
      </trkpt>
      <trkpt lat="44.10807" lon="6.31972">
        <ele>1094.5</ele>
        <time>2021-09-11T11:35:46Z</time>
      </trkpt>
      <trkpt lat="44.10807" lon="6.31973">
        <ele>1094.5</ele>
        <time>2021-09-11T11:35:47Z</time>
      </trkpt>
      <trkpt lat="44.10808" lon="6.31976">
        <ele>1094.6</ele>
        <time>2021-09-11T11:35:48Z</time>
      </trkpt>
      <trkpt lat="44.10808" lon="6.31982">
        <ele>1094.8</ele>
        <time>2021-09-11T11:35:50Z</time>
      </trkpt>
      <trkpt lat="44.10809" lon="6.31986">
        <ele>1094.9</ele>
        <time>2021-09-11T11:35:52Z</time>
      </trkpt>
      <trkpt lat="44.10808" lon="6.31986">
        <ele>1094.9</ele>
        <time>2021-09-11T11:35:53Z</time>
      </trkpt>
      <trkpt lat="44.10808" lon="6.31986">
        <ele>1094.9</ele>
        <time>2021-09-11T11:35:54Z</time>
      </trkpt>
      <trkpt lat="44.10808" lon="6.31987">
        <ele>1094.9</ele>
        <time>2021-09-11T11:35:56Z</time>
      </trkpt>
      <trkpt lat="44.10808" lon="6.31987">
        <ele>1094.9</ele>
        <time>2021-09-11T11:35:57Z</time>
      </trkpt>
      <trkpt lat="44.10808" lon="6.31988">
        <ele>1094.9</ele>
        <time>2021-09-11T11:35:59Z</time>
      </trkpt>
      <trkpt lat="44.10808" lon="6.31988">
        <ele>1094.9</ele>
        <time>2021-09-11T11:36:00Z</time>
      </trkpt>
      <trkpt lat="44.10843" lon="6.32132">
        <ele>1099.6</ele>
        <time>2021-09-11T11:36:45Z</time>
      </trkpt>
      <trkpt lat="44.10846" lon="6.32132">
        <ele>1099.7</ele>
        <time>2021-09-11T11:36:46Z</time>
      </trkpt>
      <trkpt lat="44.10851" lon="6.32131">
        <ele>1099.9</ele>
        <time>2021-09-11T11:36:48Z</time>
      </trkpt>
      <trkpt lat="44.10856" lon="6.32129">
        <ele>1100</ele>
        <time>2021-09-11T11:36:49Z</time>
      </trkpt>
      <trkpt lat="44.10859" lon="6.32127">
        <ele>1100.1</ele>
        <time>2021-09-11T11:36:50Z</time>
      </trkpt>
      <trkpt lat="44.10861" lon="6.32127">
        <ele>1100.2</ele>
        <time>2021-09-11T11:36:51Z</time>
      </trkpt>
      <trkpt lat="44.10864" lon="6.32126">
        <ele>1100.3</ele>
        <time>2021-09-11T11:36:53Z</time>
      </trkpt>
      <trkpt lat="44.10867" lon="6.32123">
        <ele>1100.2</ele>
        <time>2021-09-11T11:36:54Z</time>
      </trkpt>
      <trkpt lat="44.10871" lon="6.32121">
        <ele>1100.2</ele>
        <time>2021-09-11T11:36:55Z</time>
      </trkpt>
      <trkpt lat="44.10873" lon="6.3212">
        <ele>1100.2</ele>
        <time>2021-09-11T11:36:56Z</time>
      </trkpt>
      <trkpt lat="44.10883" lon="6.32115">
        <ele>1100.1</ele>
        <time>2021-09-11T11:36:58Z</time>
      </trkpt>
      <trkpt lat="44.10885" lon="6.32114">
        <ele>1100.3</ele>
        <time>2021-09-11T11:36:59Z</time>
      </trkpt>
      <trkpt lat="44.10886" lon="6.32114">
        <ele>1100.5</ele>
        <time>2021-09-11T11:37:00Z</time>
      </trkpt>
      <trkpt lat="44.10887" lon="6.32114">
        <ele>1100.7</ele>
        <time>2021-09-11T11:37:01Z</time>
      </trkpt>
      <trkpt lat="44.10888" lon="6.32114">
        <ele>1100.9</ele>
        <time>2021-09-11T11:37:03Z</time>
      </trkpt>
      <trkpt lat="44.1089" lon="6.32114">
        <ele>1100.9</ele>
        <time>2021-09-11T11:37:04Z</time>
      </trkpt>
      <trkpt lat="44.10935" lon="6.3215">
        <ele>1100.9</ele>
        <time>2021-09-11T11:37:18Z</time>
      </trkpt>
      <trkpt lat="44.10945" lon="6.32158">
        <ele>1100.4</ele>
        <time>2021-09-11T11:37:19Z</time>
      </trkpt>
      <trkpt lat="44.10958" lon="6.32167">
        <ele>1099.4</ele>
        <time>2021-09-11T11:37:21Z</time>
      </trkpt>
      <trkpt lat="44.10969" lon="6.32169">
        <ele>1097.7</ele>
        <time>2021-09-11T11:37:23Z</time>
      </trkpt>
      <trkpt lat="44.10971" lon="6.3217">
        <ele>1097.2</ele>
        <time>2021-09-11T11:37:24Z</time>
      </trkpt>
      <trkpt lat="44.10977" lon="6.32172">
        <ele>1096.7</ele>
        <time>2021-09-11T11:37:26Z</time>
      </trkpt>
      <trkpt lat="44.10985" lon="6.32175">
        <ele>1095.1</ele>
        <time>2021-09-11T11:37:27Z</time>
      </trkpt>
      <trkpt lat="44.10994" lon="6.32176">
        <ele>1093.4</ele>
        <time>2021-09-11T11:37:29Z</time>
      </trkpt>
      <trkpt lat="44.11001" lon="6.32177">
        <ele>1092.1</ele>
        <time>2021-09-11T11:37:31Z</time>
      </trkpt>
      <trkpt lat="44.11007" lon="6.32173">
        <ele>1090.5</ele>
        <time>2021-09-11T11:37:32Z</time>
      </trkpt>
      <trkpt lat="44.11012" lon="6.32168">
        <ele>1089.1</ele>
        <time>2021-09-11T11:37:34Z</time>
      </trkpt>
      <trkpt lat="44.11018" lon="6.32164">
        <ele>1088.4</ele>
        <time>2021-09-11T11:37:35Z</time>
      </trkpt>
      <trkpt lat="44.11023" lon="6.3216">
        <ele>1086.8</ele>
        <time>2021-09-11T11:37:36Z</time>
      </trkpt>
      <trkpt lat="44.11028" lon="6.32155">
        <ele>1085</ele>
        <time>2021-09-11T11:37:37Z</time>
      </trkpt>
      <trkpt lat="44.11034" lon="6.32151">
        <ele>1083.2</ele>
        <time>2021-09-11T11:37:39Z</time>
      </trkpt>
      <trkpt lat="44.11039" lon="6.32146">
        <ele>1081.6</ele>
        <time>2021-09-11T11:38:34Z</time>
      </trkpt>
      <trkpt lat="44.11045" lon="6.32142">
        <ele>1080.8</ele>
        <time>2021-09-11T11:38:35Z</time>
      </trkpt>
      <trkpt lat="44.1105" lon="6.32149">
        <ele>1079.4</ele>
        <time>2021-09-11T11:38:37Z</time>
      </trkpt>
      <trkpt lat="44.11053" lon="6.32154">
        <ele>1078.7</ele>
        <time>2021-09-11T11:38:38Z</time>
      </trkpt>
      <trkpt lat="44.11056" lon="6.32159">
        <ele>1078</ele>
        <time>2021-09-11T11:38:40Z</time>
      </trkpt>
      <trkpt lat="44.11056" lon="6.32163">
        <ele>1078.4</ele>
        <time>2021-09-11T11:38:41Z</time>
      </trkpt>
      <trkpt lat="44.11056" lon="6.32164">
        <ele>1078.6</ele>
        <time>2021-09-11T11:38:42Z</time>
      </trkpt>
      <trkpt lat="44.11055" lon="6.32166">
        <ele>1078.9</ele>
        <time>2021-09-11T11:38:43Z</time>
      </trkpt>
      <trkpt lat="44.11053" lon="6.32166">
        <ele>1080.1</ele>
        <time>2021-09-11T11:38:45Z</time>
      </trkpt>
      <trkpt lat="44.11052" lon="6.32166">
        <ele>1080.3</ele>
        <time>2021-09-11T11:38:46Z</time>
      </trkpt>
      <trkpt lat="44.1105" lon="6.32166">
        <ele>1081.5</ele>
        <time>2021-09-11T11:38:47Z</time>
      </trkpt>
      <trkpt lat="44.11049" lon="6.32166">
        <ele>1081.8</ele>
        <time>2021-09-11T11:38:49Z</time>
      </trkpt>
      <trkpt lat="44.11047" lon="6.32166">
        <ele>1082.9</ele>
        <time>2021-09-11T11:38:50Z</time>
      </trkpt>
      <trkpt lat="44.11046" lon="6.32166">
        <ele>1083.1</ele>
        <time>2021-09-11T11:38:52Z</time>
      </trkpt>
      <trkpt lat="44.11044" lon="6.32166">
        <ele>1084.2</ele>
        <time>2021-09-11T11:38:54Z</time>
      </trkpt>
      <trkpt lat="44.11043" lon="6.32166">
        <ele>1084.4</ele>
        <time>2021-09-11T11:39:07Z</time>
      </trkpt>
      <trkpt lat="44.11041" lon="6.32167">
        <ele>1085.5</ele>
        <time>2021-09-11T11:39:08Z</time>
      </trkpt>
      <trkpt lat="44.1104" lon="6.32167">
        <ele>1085.7</ele>
        <time>2021-09-11T11:39:09Z</time>
      </trkpt>
      <trkpt lat="44.11039" lon="6.32173">
        <ele>1087.1</ele>
        <time>2021-09-11T11:39:10Z</time>
      </trkpt>
      <trkpt lat="44.11037" lon="6.32184">
        <ele>1087.6</ele>
        <time>2021-09-11T11:39:11Z</time>
      </trkpt>
      <trkpt lat="44.11037" lon="6.32194">
        <ele>1088.2</ele>
        <time>2021-09-11T11:39:13Z</time>
      </trkpt>
      <trkpt lat="44.11038" lon="6.32201">
        <ele>1088.7</ele>
        <time>2021-09-11T11:39:14Z</time>
      </trkpt>
      <trkpt lat="44.11039" lon="6.3221">
        <ele>1088.5</ele>
        <time>2021-09-11T11:39:15Z</time>
      </trkpt>
      <trkpt lat="44.1104" lon="6.3222">
        <ele>1088.9</ele>
        <time>2021-09-11T11:39:17Z</time>
      </trkpt>
      <trkpt lat="44.11041" lon="6.32227">
        <ele>1089.2</ele>
        <time>2021-09-11T11:39:18Z</time>
      </trkpt>
      <trkpt lat="44.11041" lon="6.32236">
        <ele>1089.5</ele>
        <time>2021-09-11T11:39:19Z</time>
      </trkpt>
      <trkpt lat="44.1104" lon="6.32242">
        <ele>1089.7</ele>
        <time>2021-09-11T11:39:20Z</time>
      </trkpt>
      <trkpt lat="44.11039" lon="6.32248">
        <ele>1090.7</ele>
        <time>2021-09-11T11:39:21Z</time>
      </trkpt>
      <trkpt lat="44.1104" lon="6.32252">
        <ele>1090.1</ele>
        <time>2021-09-11T11:39:22Z</time>
      </trkpt>
      <trkpt lat="44.11042" lon="6.32259">
        <ele>1090.3</ele>
        <time>2021-09-11T11:39:24Z</time>
      </trkpt>
      <trkpt lat="44.11043" lon="6.32267">
        <ele>1089.7</ele>
        <time>2021-09-11T11:39:26Z</time>
      </trkpt>
      <trkpt lat="44.11043" lon="6.32271">
        <ele>1090</ele>
        <time>2021-09-11T11:39:27Z</time>
      </trkpt>
      <trkpt lat="44.1104" lon="6.32277">
        <ele>1091.1</ele>
        <time>2021-09-11T11:39:29Z</time>
      </trkpt>
      <trkpt lat="44.11039" lon="6.3228">
        <ele>1092.1</ele>
        <time>2021-09-11T11:39:30Z</time>
      </trkpt>
      <trkpt lat="44.1104" lon="6.32282">
        <ele>1091.6</ele>
        <time>2021-09-11T11:39:32Z</time>
      </trkpt>
      <trkpt lat="44.1104" lon="6.32282">
        <ele>1091.8</ele>
        <time>2021-09-11T11:39:33Z</time>
      </trkpt>
      <trkpt lat="44.11041" lon="6.32283">
        <ele>1092</ele>
        <time>2021-09-11T11:39:35Z</time>
      </trkpt>
      <trkpt lat="44.11045" lon="6.32289">
        <ele>1091.6</ele>
        <time>2021-09-11T11:39:37Z</time>
      </trkpt>
      <trkpt lat="44.11048" lon="6.32294">
        <ele>1091.2</ele>
        <time>2021-09-11T11:39:38Z</time>
      </trkpt>
      <trkpt lat="44.11051" lon="6.32301">
        <ele>1090.6</ele>
        <time>2021-09-11T11:39:40Z</time>
      </trkpt>
      <trkpt lat="44.11055" lon="6.32308">
        <ele>1090.2</ele>
        <time>2021-09-11T11:39:41Z</time>
      </trkpt>
      <trkpt lat="44.1106" lon="6.32316">
        <ele>1089</ele>
        <time>2021-09-11T11:39:43Z</time>
      </trkpt>
      <trkpt lat="44.11063" lon="6.3232">
        <ele>1088.1</ele>
        <time>2021-09-11T11:39:44Z</time>
      </trkpt>
      <trkpt lat="44.11065" lon="6.32322">
        <ele>1087.5</ele>
        <time>2021-09-11T11:39:45Z</time>
      </trkpt>
      <trkpt lat="44.11066" lon="6.32324">
        <ele>1087.2</ele>
        <time>2021-09-11T11:39:46Z</time>
      </trkpt>
      <trkpt lat="44.11068" lon="6.32325">
        <ele>1086.7</ele>
        <time>2021-09-11T11:39:48Z</time>
      </trkpt>
      <trkpt lat="44.1107" lon="6.32325">
        <ele>1086.3</ele>
        <time>2021-09-11T11:39:49Z</time>
      </trkpt>
      <trkpt lat="44.11072" lon="6.32324">
        <ele>1086</ele>
        <time>2021-09-11T11:39:50Z</time>
      </trkpt>
      <trkpt lat="44.11075" lon="6.32323">
        <ele>1085.2</ele>
        <time>2021-09-11T11:39:51Z</time>
      </trkpt>
      <trkpt lat="44.11077" lon="6.32322">
        <ele>1084.9</ele>
        <time>2021-09-11T11:39:52Z</time>
      </trkpt>
      <trkpt lat="44.11081" lon="6.32322">
        <ele>1084.1</ele>
        <time>2021-09-11T11:39:53Z</time>
      </trkpt>
      <trkpt lat="44.11087" lon="6.32324">
        <ele>1083.1</ele>
        <time>2021-09-11T11:39:55Z</time>
      </trkpt>
      <trkpt lat="44.11091" lon="6.32326">
        <ele>1082.6</ele>
        <time>2021-09-11T11:39:56Z</time>
      </trkpt>
      <trkpt lat="44.11095" lon="6.32329">
        <ele>1082</ele>
        <time>2021-09-11T11:39:58Z</time>
      </trkpt>
      <trkpt lat="44.11097" lon="6.3233">
        <ele>1081.7</ele>
        <time>2021-09-11T11:39:59Z</time>
      </trkpt>
      <trkpt lat="44.11098" lon="6.32331">
        <ele>1081.6</ele>
        <time>2021-09-11T11:40:00Z</time>
      </trkpt>
      <trkpt lat="44.11099" lon="6.32332">
        <ele>1081.5</ele>
        <time>2021-09-11T11:40:01Z</time>
      </trkpt>
      <trkpt lat="44.11103" lon="6.32331">
        <ele>1081</ele>
        <time>2021-09-11T11:40:03Z</time>
      </trkpt>
      <trkpt lat="44.11106" lon="6.3233">
        <ele>1080.7</ele>
        <time>2021-09-11T11:40:04Z</time>
      </trkpt>
      <trkpt lat="44.11107" lon="6.3233">
        <ele>1080.6</ele>
        <time>2021-09-11T11:40:05Z</time>
      </trkpt>
      <trkpt lat="44.11109" lon="6.3233">
        <ele>1080.4</ele>
        <time>2021-09-11T11:40:07Z</time>
      </trkpt>
      <trkpt lat="44.1111" lon="6.3233">
        <ele>1080.3</ele>
        <time>2021-09-11T11:40:08Z</time>
      </trkpt>
      <trkpt lat="44.11111" lon="6.32329">
        <ele>1080.3</ele>
        <time>2021-09-11T11:40:09Z</time>
      </trkpt>
      <trkpt lat="44.11112" lon="6.32329">
        <ele>1080.2</ele>
        <time>2021-09-11T11:40:11Z</time>
      </trkpt>
      <trkpt lat="44.11112" lon="6.32329">
        <ele>1080.2</ele>
        <time>2021-09-11T11:40:12Z</time>
      </trkpt>
      <trkpt lat="44.11112" lon="6.32329">
        <ele>1080.1</ele>
        <time>2021-09-11T11:40:13Z</time>
      </trkpt>
      <trkpt lat="44.11113" lon="6.32328">
        <ele>1080.1</ele>
        <time>2021-09-11T11:40:15Z</time>
      </trkpt>
      <trkpt lat="44.11137" lon="6.32305">
        <ele>1078.2</ele>
        <time>2021-09-11T11:41:02Z</time>
      </trkpt>
      <trkpt lat="44.11138" lon="6.32309">
        <ele>1077</ele>
        <time>2021-09-11T11:41:03Z</time>
      </trkpt>
      <trkpt lat="44.11141" lon="6.3231">
        <ele>1076.5</ele>
        <time>2021-09-11T11:41:04Z</time>
      </trkpt>
      <trkpt lat="44.11145" lon="6.32314">
        <ele>1075.9</ele>
        <time>2021-09-11T11:41:06Z</time>
      </trkpt>
      <trkpt lat="44.11148" lon="6.32319">
        <ele>1075.2</ele>
        <time>2021-09-11T11:41:07Z</time>
      </trkpt>
      <trkpt lat="44.11149" lon="6.32326">
        <ele>1074.4</ele>
        <time>2021-09-11T11:41:08Z</time>
      </trkpt>
      <trkpt lat="44.11152" lon="6.32332">
        <ele>1073.7</ele>
        <time>2021-09-11T11:41:09Z</time>
      </trkpt>
      <trkpt lat="44.11155" lon="6.3234">
        <ele>1072.8</ele>
        <time>2021-09-11T11:41:11Z</time>
      </trkpt>
      <trkpt lat="44.11155" lon="6.32344">
        <ele>1072.4</ele>
        <time>2021-09-11T11:41:12Z</time>
      </trkpt>
      <trkpt lat="44.11156" lon="6.32348">
        <ele>1072</ele>
        <time>2021-09-11T11:41:13Z</time>
      </trkpt>
      <trkpt lat="44.11157" lon="6.32353">
        <ele>1071.6</ele>
        <time>2021-09-11T11:41:14Z</time>
      </trkpt>
      <trkpt lat="44.11157" lon="6.3236">
        <ele>1071.1</ele>
        <time>2021-09-11T11:41:16Z</time>
      </trkpt>
      <trkpt lat="44.11158" lon="6.32364">
        <ele>1070.8</ele>
        <time>2021-09-11T11:41:17Z</time>
      </trkpt>
      <trkpt lat="44.11158" lon="6.32369">
        <ele>1070.4</ele>
        <time>2021-09-11T11:41:18Z</time>
      </trkpt>
      <trkpt lat="44.11159" lon="6.32375">
        <ele>1070.4</ele>
        <time>2021-09-11T11:41:19Z</time>
      </trkpt>
      <trkpt lat="44.11162" lon="6.32378">
        <ele>1070.2</ele>
        <time>2021-09-11T11:41:21Z</time>
      </trkpt>
      <trkpt lat="44.11164" lon="6.32382">
        <ele>1070.1</ele>
        <time>2021-09-11T11:41:22Z</time>
      </trkpt>
      <trkpt lat="44.11166" lon="6.32386">
        <ele>1069.9</ele>
        <time>2021-09-11T11:41:23Z</time>
      </trkpt>
      <trkpt lat="44.11168" lon="6.32389">
        <ele>1069.7</ele>
        <time>2021-09-11T11:41:24Z</time>
      </trkpt>
      <trkpt lat="44.1117" lon="6.32393">
        <ele>1069.4</ele>
        <time>2021-09-11T11:41:26Z</time>
      </trkpt>
      <trkpt lat="44.11171" lon="6.32397">
        <ele>1069.1</ele>
        <time>2021-09-11T11:41:27Z</time>
      </trkpt>
      <trkpt lat="44.11171" lon="6.32401">
        <ele>1068.7</ele>
        <time>2021-09-11T11:41:28Z</time>
      </trkpt>
      <trkpt lat="44.11171" lon="6.32403">
        <ele>1068.6</ele>
        <time>2021-09-11T11:41:29Z</time>
      </trkpt>
      <trkpt lat="44.11169" lon="6.32408">
        <ele>1068.1</ele>
        <time>2021-09-11T11:41:31Z</time>
      </trkpt>
      <trkpt lat="44.11167" lon="6.3241">
        <ele>1067.7</ele>
        <time>2021-09-11T11:41:32Z</time>
      </trkpt>
      <trkpt lat="44.11164" lon="6.32415">
        <ele>1067.1</ele>
        <time>2021-09-11T11:41:34Z</time>
      </trkpt>
      <trkpt lat="44.11162" lon="6.32419">
        <ele>1066.5</ele>
        <time>2021-09-11T11:41:35Z</time>
      </trkpt>
      <trkpt lat="44.11161" lon="6.32421">
        <ele>1066.3</ele>
        <time>2021-09-11T11:41:36Z</time>
      </trkpt>
      <trkpt lat="44.1116" lon="6.32426">
        <ele>1065.8</ele>
        <time>2021-09-11T11:41:38Z</time>
      </trkpt>
      <trkpt lat="44.11159" lon="6.32429">
        <ele>1065.3</ele>
        <time>2021-09-11T11:41:39Z</time>
      </trkpt>
      <trkpt lat="44.11161" lon="6.32433">
        <ele>1064.7</ele>
        <time>2021-09-11T11:41:40Z</time>
      </trkpt>
      <trkpt lat="44.11163" lon="6.32438">
        <ele>1063.8</ele>
        <time>2021-09-11T11:41:42Z</time>
      </trkpt>
      <trkpt lat="44.11164" lon="6.32443">
        <ele>1063.2</ele>
        <time>2021-09-11T11:41:44Z</time>
      </trkpt>
      <trkpt lat="44.11164" lon="6.32447">
        <ele>1062.6</ele>
        <time>2021-09-11T11:41:45Z</time>
      </trkpt>
      <trkpt lat="44.11162" lon="6.32452">
        <ele>1061.8</ele>
        <time>2021-09-11T11:41:46Z</time>
      </trkpt>
      <trkpt lat="44.11162" lon="6.32455">
        <ele>1061.4</ele>
        <time>2021-09-11T11:41:47Z</time>
      </trkpt>
      <trkpt lat="44.1116" lon="6.32463">
        <ele>1060.3</ele>
        <time>2021-09-11T11:41:49Z</time>
      </trkpt>
      <trkpt lat="44.11157" lon="6.32467">
        <ele>1059.4</ele>
        <time>2021-09-11T11:41:50Z</time>
      </trkpt>
      <trkpt lat="44.11153" lon="6.32471">
        <ele>1058.7</ele>
        <time>2021-09-11T11:41:51Z</time>
      </trkpt>
      <trkpt lat="44.11149" lon="6.32475">
        <ele>1057.9</ele>
        <time>2021-09-11T11:41:52Z</time>
      </trkpt>
      <trkpt lat="44.11143" lon="6.32484">
        <ele>1056.7</ele>
        <time>2021-09-11T11:41:54Z</time>
      </trkpt>
      <trkpt lat="44.11143" lon="6.3249">
        <ele>1056.1</ele>
        <time>2021-09-11T11:41:55Z</time>
      </trkpt>
      <trkpt lat="44.11143" lon="6.32499">
        <ele>1055.2</ele>
        <time>2021-09-11T11:41:57Z</time>
      </trkpt>
      <trkpt lat="44.11145" lon="6.32503">
        <ele>1054.8</ele>
        <time>2021-09-11T11:41:58Z</time>
      </trkpt>
      <trkpt lat="44.11146" lon="6.32509">
        <ele>1054.2</ele>
        <time>2021-09-11T11:42:00Z</time>
      </trkpt>
      <trkpt lat="44.11146" lon="6.32514">
        <ele>1053.6</ele>
        <time>2021-09-11T11:42:01Z</time>
      </trkpt>
      <trkpt lat="44.11145" lon="6.32519">
        <ele>1053.1</ele>
        <time>2021-09-11T11:42:03Z</time>
      </trkpt>
      <trkpt lat="44.11144" lon="6.32524">
        <ele>1052.6</ele>
        <time>2021-09-11T11:42:04Z</time>
      </trkpt>
      <trkpt lat="44.11143" lon="6.32525">
        <ele>1052.4</ele>
        <time>2021-09-11T11:42:05Z</time>
      </trkpt>
      <trkpt lat="44.11139" lon="6.32528">
        <ele>1051.8</ele>
        <time>2021-09-11T11:42:07Z</time>
      </trkpt>
      <trkpt lat="44.11136" lon="6.32529">
        <ele>1051.3</ele>
        <time>2021-09-11T11:42:08Z</time>
      </trkpt>
      <trkpt lat="44.11135" lon="6.3253">
        <ele>1051.1</ele>
        <time>2021-09-11T11:42:09Z</time>
      </trkpt>
      <trkpt lat="44.11134" lon="6.32532">
        <ele>1050.9</ele>
        <time>2021-09-11T11:42:10Z</time>
      </trkpt>
      <trkpt lat="44.11134" lon="6.32534">
        <ele>1050.7</ele>
        <time>2021-09-11T11:42:11Z</time>
      </trkpt>
      <trkpt lat="44.11132" lon="6.32539">
        <ele>1050.2</ele>
        <time>2021-09-11T11:42:13Z</time>
      </trkpt>
      <trkpt lat="44.11132" lon="6.3255">
        <ele>1049.2</ele>
        <time>2021-09-11T11:42:15Z</time>
      </trkpt>
      <trkpt lat="44.11132" lon="6.32559">
        <ele>1048.5</ele>
        <time>2021-09-11T11:42:17Z</time>
      </trkpt>
      <trkpt lat="44.11133" lon="6.32566">
        <ele>1047.8</ele>
        <time>2021-09-11T11:42:18Z</time>
      </trkpt>
      <trkpt lat="44.11135" lon="6.3257">
        <ele>1047.2</ele>
        <time>2021-09-11T11:42:19Z</time>
      </trkpt>
      <trkpt lat="44.11139" lon="6.32576">
        <ele>1046.3</ele>
        <time>2021-09-11T11:42:21Z</time>
      </trkpt>
      <trkpt lat="44.11142" lon="6.32582">
        <ele>1045.3</ele>
        <time>2021-09-11T11:42:22Z</time>
      </trkpt>
      <trkpt lat="44.11144" lon="6.32584">
        <ele>1044.7</ele>
        <time>2021-09-11T11:42:23Z</time>
      </trkpt>
      <trkpt lat="44.11148" lon="6.32589">
        <ele>1043.7</ele>
        <time>2021-09-11T11:42:25Z</time>
      </trkpt>
      <trkpt lat="44.11149" lon="6.32594">
        <ele>1042.7</ele>
        <time>2021-09-11T11:42:26Z</time>
      </trkpt>
      <trkpt lat="44.11149" lon="6.32599">
        <ele>1041.9</ele>
        <time>2021-09-11T11:42:27Z</time>
      </trkpt>
      <trkpt lat="44.1115" lon="6.32604">
        <ele>1041</ele>
        <time>2021-09-11T11:42:28Z</time>
      </trkpt>
      <trkpt lat="44.11151" lon="6.32609">
        <ele>1040</ele>
        <time>2021-09-11T11:42:29Z</time>
      </trkpt>
      <trkpt lat="44.11156" lon="6.32613">
        <ele>1038.7</ele>
        <time>2021-09-11T11:42:31Z</time>
      </trkpt>
      <trkpt lat="44.1116" lon="6.32612">
        <ele>1037.7</ele>
        <time>2021-09-11T11:42:32Z</time>
      </trkpt>
      <trkpt lat="44.11164" lon="6.32614">
        <ele>1036.6</ele>
        <time>2021-09-11T11:42:34Z</time>
      </trkpt>
      <trkpt lat="44.11164" lon="6.32619">
        <ele>1035.7</ele>
        <time>2021-09-11T11:42:35Z</time>
      </trkpt>
      <trkpt lat="44.11167" lon="6.32627">
        <ele>1034.2</ele>
        <time>2021-09-11T11:42:37Z</time>
      </trkpt>
      <trkpt lat="44.11169" lon="6.32632">
        <ele>1033</ele>
        <time>2021-09-11T11:42:38Z</time>
      </trkpt>
      <trkpt lat="44.1117" lon="6.32639">
        <ele>1031.8</ele>
        <time>2021-09-11T11:42:40Z</time>
      </trkpt>
      <trkpt lat="44.11169" lon="6.32643">
        <ele>1031.1</ele>
        <time>2021-09-11T11:42:41Z</time>
      </trkpt>
      <trkpt lat="44.11167" lon="6.32647">
        <ele>1030.2</ele>
        <time>2021-09-11T11:42:42Z</time>
      </trkpt>
      <trkpt lat="44.11166" lon="6.3265">
        <ele>1029.5</ele>
        <time>2021-09-11T11:42:43Z</time>
      </trkpt>
      <trkpt lat="44.11161" lon="6.32656">
        <ele>1027.9</ele>
        <time>2021-09-11T11:42:45Z</time>
      </trkpt>
      <trkpt lat="44.11159" lon="6.3266">
        <ele>1026.8</ele>
        <time>2021-09-11T11:42:46Z</time>
      </trkpt>
      <trkpt lat="44.11157" lon="6.32665">
        <ele>1025.8</ele>
        <time>2021-09-11T11:42:47Z</time>
      </trkpt>
      <trkpt lat="44.11156" lon="6.32674">
        <ele>1024.2</ele>
        <time>2021-09-11T11:42:49Z</time>
      </trkpt>
      <trkpt lat="44.11155" lon="6.32681">
        <ele>1023</ele>
        <time>2021-09-11T11:42:50Z</time>
      </trkpt>
      <trkpt lat="44.11154" lon="6.32687">
        <ele>1022.1</ele>
        <time>2021-09-11T11:42:51Z</time>
      </trkpt>
      <trkpt lat="44.11154" lon="6.32695">
        <ele>1020.9</ele>
        <time>2021-09-11T11:42:53Z</time>
      </trkpt>
      <trkpt lat="44.11154" lon="6.327">
        <ele>1020.2</ele>
        <time>2021-09-11T11:42:54Z</time>
      </trkpt>
      <trkpt lat="44.11155" lon="6.32707">
        <ele>1019.2</ele>
        <time>2021-09-11T11:42:55Z</time>
      </trkpt>
      <trkpt lat="44.11157" lon="6.32713">
        <ele>1018.4</ele>
        <time>2021-09-11T11:42:56Z</time>
      </trkpt>
      <trkpt lat="44.11159" lon="6.32717">
        <ele>1017.7</ele>
        <time>2021-09-11T11:42:57Z</time>
      </trkpt>
      <trkpt lat="44.11161" lon="6.32723">
        <ele>1016.9</ele>
        <time>2021-09-11T11:42:59Z</time>
      </trkpt>
      <trkpt lat="44.11161" lon="6.32728">
        <ele>1016.4</ele>
        <time>2021-09-11T11:43:00Z</time>
      </trkpt>
      <trkpt lat="44.11162" lon="6.32733">
        <ele>1015.8</ele>
        <time>2021-09-11T11:43:01Z</time>
      </trkpt>
      <trkpt lat="44.11162" lon="6.32734">
        <ele>1015.6</ele>
        <time>2021-09-11T11:43:02Z</time>
      </trkpt>
      <trkpt lat="44.11164" lon="6.3274">
        <ele>1014.9</ele>
        <time>2021-09-11T11:43:04Z</time>
      </trkpt>
      <trkpt lat="44.11164" lon="6.32746">
        <ele>1014.2</ele>
        <time>2021-09-11T11:43:05Z</time>
      </trkpt>
      <trkpt lat="44.11162" lon="6.32756">
        <ele>1013</ele>
        <time>2021-09-11T11:43:07Z</time>
      </trkpt>
      <trkpt lat="44.11159" lon="6.32759">
        <ele>1012.4</ele>
        <time>2021-09-11T11:43:08Z</time>
      </trkpt>
      <trkpt lat="44.11156" lon="6.32762">
        <ele>1011.8</ele>
        <time>2021-09-11T11:43:09Z</time>
      </trkpt>
      <trkpt lat="44.1115" lon="6.32763">
        <ele>1010.7</ele>
        <time>2021-09-11T11:43:11Z</time>
      </trkpt>
      <trkpt lat="44.11141" lon="6.32765">
        <ele>1009</ele>
        <time>2021-09-11T11:43:12Z</time>
      </trkpt>
      <trkpt lat="44.11136" lon="6.32767">
        <ele>1008</ele>
        <time>2021-09-11T11:43:13Z</time>
      </trkpt>
      <trkpt lat="44.11128" lon="6.32771">
        <ele>1006.7</ele>
        <time>2021-09-11T11:43:15Z</time>
      </trkpt>
      <trkpt lat="44.11125" lon="6.3277">
        <ele>1006.1</ele>
        <time>2021-09-11T11:43:17Z</time>
      </trkpt>
      <trkpt lat="44.11128" lon="6.32771">
        <ele>1005.5</ele>
        <time>2021-09-11T11:43:18Z</time>
      </trkpt>
      <trkpt lat="44.11131" lon="6.32772">
        <ele>1005</ele>
        <time>2021-09-11T11:43:19Z</time>
      </trkpt>
      <trkpt lat="44.11133" lon="6.32772">
        <ele>1004.8</ele>
        <time>2021-09-11T11:43:21Z</time>
      </trkpt>
      <trkpt lat="44.11133" lon="6.32772">
        <ele>1004.8</ele>
        <time>2021-09-11T11:43:22Z</time>
      </trkpt>
      <trkpt lat="44.11132" lon="6.32772">
        <ele>1004.6</ele>
        <time>2021-09-11T11:43:23Z</time>
      </trkpt>
      <trkpt lat="44.11127" lon="6.32768">
        <ele>1003.9</ele>
        <time>2021-09-11T11:43:25Z</time>
      </trkpt>
      <trkpt lat="44.11124" lon="6.32765">
        <ele>1003.5</ele>
        <time>2021-09-11T11:43:26Z</time>
      </trkpt>
      <trkpt lat="44.11119" lon="6.32757">
        <ele>1003</ele>
        <time>2021-09-11T11:43:28Z</time>
      </trkpt>
      <trkpt lat="44.11114" lon="6.32751">
        <ele>1002.8</ele>
        <time>2021-09-11T11:43:29Z</time>
      </trkpt>
      <trkpt lat="44.11108" lon="6.32744">
        <ele>1003</ele>
        <time>2021-09-11T11:43:31Z</time>
      </trkpt>
      <trkpt lat="44.11104" lon="6.32741">
        <ele>1003.2</ele>
        <time>2021-09-11T11:43:33Z</time>
      </trkpt>
      <trkpt lat="44.11108" lon="6.32742">
        <ele>1003.3</ele>
        <time>2021-09-11T11:43:35Z</time>
      </trkpt>
      <trkpt lat="44.11112" lon="6.32747">
        <ele>1003.6</ele>
        <time>2021-09-11T11:43:37Z</time>
      </trkpt>
      <trkpt lat="44.11116" lon="6.32751">
        <ele>1003.8</ele>
        <time>2021-09-11T11:43:39Z</time>
      </trkpt>
      <trkpt lat="44.11121" lon="6.32755">
        <ele>1004.1</ele>
        <time>2021-09-11T11:43:41Z</time>
      </trkpt>
      <trkpt lat="44.11125" lon="6.3276">
        <ele>1004.4</ele>
        <time>2021-09-11T11:43:42Z</time>
      </trkpt>
      <trkpt lat="44.11129" lon="6.32764">
        <ele>1004.6</ele>
        <time>2021-09-11T11:43:43Z</time>
      </trkpt>
      <trkpt lat="44.11134" lon="6.32769">
        <ele>1004.9</ele>
        <time>2021-09-11T11:44:47Z</time>
      </trkpt>
      <trkpt lat="44.11138" lon="6.32773">
        <ele>1005.2</ele>
        <time>2021-09-11T11:44:48Z</time>
      </trkpt>
      <trkpt lat="44.11142" lon="6.32774">
        <ele>1005.3</ele>
        <time>2021-09-11T11:44:49Z</time>
      </trkpt>
      <trkpt lat="44.1115" lon="6.32776">
        <ele>1005.7</ele>
        <time>2021-09-11T11:44:51Z</time>
      </trkpt>
      <trkpt lat="44.11153" lon="6.32778">
        <ele>1005.9</ele>
        <time>2021-09-11T11:44:52Z</time>
      </trkpt>
      <trkpt lat="44.11155" lon="6.32778">
        <ele>1006</ele>
        <time>2021-09-11T11:44:53Z</time>
      </trkpt>
      <trkpt lat="44.11162" lon="6.32781">
        <ele>1006.4</ele>
        <time>2021-09-11T11:44:55Z</time>
      </trkpt>
      <trkpt lat="44.11165" lon="6.32782">
        <ele>1006.6</ele>
        <time>2021-09-11T11:44:56Z</time>
      </trkpt>
      <trkpt lat="44.11168" lon="6.32785">
        <ele>1006.8</ele>
        <time>2021-09-11T11:44:57Z</time>
      </trkpt>
      <trkpt lat="44.11169" lon="6.32786">
        <ele>1006.9</ele>
        <time>2021-09-11T11:44:58Z</time>
      </trkpt>
      <trkpt lat="44.11171" lon="6.32788">
        <ele>1007</ele>
        <time>2021-09-11T11:45:00Z</time>
      </trkpt>
      <trkpt lat="44.11172" lon="6.32791">
        <ele>1007.1</ele>
        <time>2021-09-11T11:45:01Z</time>
      </trkpt>
      <trkpt lat="44.1118" lon="6.3281">
        <ele>1007.7</ele>
        <time>2021-09-11T11:45:12Z</time>
      </trkpt>
      <trkpt lat="44.11181" lon="6.32815">
        <ele>1007.7</ele>
        <time>2021-09-11T11:45:13Z</time>
      </trkpt>
      <trkpt lat="44.11187" lon="6.32825">
        <ele>1007.8</ele>
        <time>2021-09-11T11:45:16Z</time>
      </trkpt>
      <trkpt lat="44.11191" lon="6.32833">
        <ele>1007.8</ele>
        <time>2021-09-11T11:45:17Z</time>
      </trkpt>
      <trkpt lat="44.11193" lon="6.32839">
        <ele>1007.7</ele>
        <time>2021-09-11T11:45:18Z</time>
      </trkpt>
      <trkpt lat="44.11196" lon="6.32843">
        <ele>1007.7</ele>
        <time>2021-09-11T11:45:20Z</time>
      </trkpt>
      <trkpt lat="44.11197" lon="6.3285">
        <ele>1007.6</ele>
        <time>2021-09-11T11:45:21Z</time>
      </trkpt>
      <trkpt lat="44.11197" lon="6.32854">
        <ele>1007.6</ele>
        <time>2021-09-11T11:45:22Z</time>
      </trkpt>
      <trkpt lat="44.11196" lon="6.32856">
        <ele>1007.6</ele>
        <time>2021-09-11T11:45:23Z</time>
      </trkpt>
      <trkpt lat="44.11195" lon="6.32858">
        <ele>1007.5</ele>
        <time>2021-09-11T11:45:24Z</time>
      </trkpt>
      <trkpt lat="44.11194" lon="6.32861">
        <ele>1007.5</ele>
        <time>2021-09-11T11:45:25Z</time>
      </trkpt>
      <trkpt lat="44.11192" lon="6.32867">
        <ele>1007.4</ele>
        <time>2021-09-11T11:45:27Z</time>
      </trkpt>
      <trkpt lat="44.11191" lon="6.32874">
        <ele>1007.3</ele>
        <time>2021-09-11T11:45:28Z</time>
      </trkpt>
      <trkpt lat="44.11193" lon="6.32893">
        <ele>1006.9</ele>
        <time>2021-09-11T11:45:29Z</time>
      </trkpt>
      <trkpt lat="44.11194" lon="6.32906">
        <ele>1006.7</ele>
        <time>2021-09-11T11:45:31Z</time>
      </trkpt>
      <trkpt lat="44.11195" lon="6.32916">
        <ele>1006.4</ele>
        <time>2021-09-11T11:45:32Z</time>
      </trkpt>
      <trkpt lat="44.11196" lon="6.32923">
        <ele>1006.2</ele>
        <time>2021-09-11T11:45:33Z</time>
      </trkpt>
      <trkpt lat="44.11196" lon="6.32934">
        <ele>1005.8</ele>
        <time>2021-09-11T11:45:35Z</time>
      </trkpt>
      <trkpt lat="44.11197" lon="6.3294">
        <ele>1005.6</ele>
        <time>2021-09-11T11:45:36Z</time>
      </trkpt>
      <trkpt lat="44.11198" lon="6.32945">
        <ele>1005.4</ele>
        <time>2021-09-11T11:45:37Z</time>
      </trkpt>
      <trkpt lat="44.11198" lon="6.3295">
        <ele>1005.3</ele>
        <time>2021-09-11T11:45:38Z</time>
      </trkpt>
      <trkpt lat="44.11197" lon="6.32955">
        <ele>1005.1</ele>
        <time>2021-09-11T11:45:39Z</time>
      </trkpt>
      <trkpt lat="44.11197" lon="6.32959">
        <ele>1005</ele>
        <time>2021-09-11T11:45:40Z</time>
      </trkpt>
      <trkpt lat="44.11198" lon="6.32965">
        <ele>1004.9</ele>
        <time>2021-09-11T11:45:42Z</time>
      </trkpt>
      <trkpt lat="44.11198" lon="6.32972">
        <ele>1004.8</ele>
        <time>2021-09-11T11:45:44Z</time>
      </trkpt>
      <trkpt lat="44.11197" lon="6.32976">
        <ele>1004.8</ele>
        <time>2021-09-11T11:45:45Z</time>
      </trkpt>
      <trkpt lat="44.11195" lon="6.3298">
        <ele>1004.7</ele>
        <time>2021-09-11T11:45:47Z</time>
      </trkpt>
      <trkpt lat="44.11192" lon="6.32984">
        <ele>1004.6</ele>
        <time>2021-09-11T11:45:48Z</time>
      </trkpt>
      <trkpt lat="44.11191" lon="6.32986">
        <ele>1004.6</ele>
        <time>2021-09-11T11:45:49Z</time>
      </trkpt>
      <trkpt lat="44.11188" lon="6.32988">
        <ele>1004.5</ele>
        <time>2021-09-11T11:45:50Z</time>
      </trkpt>
      <trkpt lat="44.11185" lon="6.32988">
        <ele>1004.5</ele>
        <time>2021-09-11T11:45:52Z</time>
      </trkpt>
      <trkpt lat="44.11181" lon="6.32988">
        <ele>1004.4</ele>
        <time>2021-09-11T11:45:53Z</time>
      </trkpt>
      <trkpt lat="44.11181" lon="6.32991">
        <ele>1004.4</ele>
        <time>2021-09-11T11:45:55Z</time>
      </trkpt>
      <trkpt lat="44.11183" lon="6.32994">
        <ele>1004.4</ele>
        <time>2021-09-11T11:45:56Z</time>
      </trkpt>
      <trkpt lat="44.11184" lon="6.32996">
        <ele>1004.4</ele>
        <time>2021-09-11T11:45:58Z</time>
      </trkpt>
      <trkpt lat="44.11186" lon="6.32999">
        <ele>1004.3</ele>
        <time>2021-09-11T11:45:59Z</time>
      </trkpt>
      <trkpt lat="44.11187" lon="6.33001">
        <ele>1004.4</ele>
        <time>2021-09-11T11:46:00Z</time>
      </trkpt>
      <trkpt lat="44.11189" lon="6.33004">
        <ele>1004.4</ele>
        <time>2021-09-11T11:46:01Z</time>
      </trkpt>
      <trkpt lat="44.1119" lon="6.33007">
        <ele>1004.4</ele>
        <time>2021-09-11T11:46:03Z</time>
      </trkpt>
      <trkpt lat="44.11192" lon="6.33009">
        <ele>1004.4</ele>
        <time>2021-09-11T11:46:15Z</time>
      </trkpt>
      <trkpt lat="44.11193" lon="6.33012">
        <ele>1004.5</ele>
        <time>2021-09-11T11:46:16Z</time>
      </trkpt>
      <trkpt lat="44.11201" lon="6.33016">
        <ele>1004.7</ele>
        <time>2021-09-11T11:46:17Z</time>
      </trkpt>
      <trkpt lat="44.11206" lon="6.33018">
        <ele>1004.8</ele>
        <time>2021-09-11T11:46:18Z</time>
      </trkpt>
      <trkpt lat="44.11211" lon="6.33019">
        <ele>1004.9</ele>
        <time>2021-09-11T11:46:20Z</time>
      </trkpt>
      <trkpt lat="44.11215" lon="6.3302">
        <ele>1005</ele>
        <time>2021-09-11T11:46:21Z</time>
      </trkpt>
      <trkpt lat="44.11219" lon="6.3302">
        <ele>1005.1</ele>
        <time>2021-09-11T11:46:22Z</time>
      </trkpt>
      <trkpt lat="44.11222" lon="6.3302">
        <ele>1005.1</ele>
        <time>2021-09-11T11:46:23Z</time>
      </trkpt>
      <trkpt lat="44.11225" lon="6.33021">
        <ele>1005.2</ele>
        <time>2021-09-11T11:46:24Z</time>
      </trkpt>
      <trkpt lat="44.11228" lon="6.3302">
        <ele>1005.2</ele>
        <time>2021-09-11T11:46:25Z</time>
      </trkpt>
      <trkpt lat="44.11231" lon="6.33019">
        <ele>1005.2</ele>
        <time>2021-09-11T11:46:27Z</time>
      </trkpt>
      <trkpt lat="44.11234" lon="6.33017">
        <ele>1005.2</ele>
        <time>2021-09-11T11:46:28Z</time>
      </trkpt>
      <trkpt lat="44.11236" lon="6.33016">
        <ele>1005.1</ele>
        <time>2021-09-11T11:46:30Z</time>
      </trkpt>
      <trkpt lat="44.1124" lon="6.33015">
        <ele>1005.1</ele>
        <time>2021-09-11T11:46:31Z</time>
      </trkpt>
      <trkpt lat="44.11243" lon="6.33015">
        <ele>1005</ele>
        <time>2021-09-11T11:46:32Z</time>
      </trkpt>
      <trkpt lat="44.11245" lon="6.33015">
        <ele>1005</ele>
        <time>2021-09-11T11:46:33Z</time>
      </trkpt>
      <trkpt lat="44.11248" lon="6.33014">
        <ele>1004.9</ele>
        <time>2021-09-11T11:46:35Z</time>
      </trkpt>
      <trkpt lat="44.11251" lon="6.33016">
        <ele>1004.8</ele>
        <time>2021-09-11T11:46:36Z</time>
      </trkpt>
      <trkpt lat="44.11252" lon="6.33017">
        <ele>1004.8</ele>
        <time>2021-09-11T11:46:37Z</time>
      </trkpt>
      <trkpt lat="44.11255" lon="6.33019">
        <ele>1004.7</ele>
        <time>2021-09-11T11:46:38Z</time>
      </trkpt>
      <trkpt lat="44.11256" lon="6.3302">
        <ele>1004.6</ele>
        <time>2021-09-11T11:46:39Z</time>
      </trkpt>
      <trkpt lat="44.11262" lon="6.33021">
        <ele>1004.5</ele>
        <time>2021-09-11T11:46:41Z</time>
      </trkpt>
      <trkpt lat="44.11266" lon="6.33023">
        <ele>1004.4</ele>
        <time>2021-09-11T11:46:43Z</time>
      </trkpt>
      <trkpt lat="44.11271" lon="6.33025">
        <ele>1004.3</ele>
        <time>2021-09-11T11:46:44Z</time>
      </trkpt>
      <trkpt lat="44.11275" lon="6.33026">
        <ele>1004.2</ele>
        <time>2021-09-11T11:46:45Z</time>
      </trkpt>
      <trkpt lat="44.1128" lon="6.33028">
        <ele>1004.1</ele>
        <time>2021-09-11T11:46:47Z</time>
      </trkpt>
      <trkpt lat="44.11284" lon="6.3303">
        <ele>1003.9</ele>
        <time>2021-09-11T11:46:48Z</time>
      </trkpt>
      <trkpt lat="44.11289" lon="6.33031">
        <ele>1003.8</ele>
        <time>2021-09-11T11:46:49Z</time>
      </trkpt>
      <trkpt lat="44.11294" lon="6.33033">
        <ele>1003.6</ele>
        <time>2021-09-11T11:47:17Z</time>
      </trkpt>
      <trkpt lat="44.11298" lon="6.33035">
        <ele>1003.5</ele>
        <time>2021-09-11T11:47:18Z</time>
      </trkpt>
      <trkpt lat="44.11307" lon="6.33038">
        <ele>1003.2</ele>
        <time>2021-09-11T11:47:20Z</time>
      </trkpt>
      <trkpt lat="44.11314" lon="6.33042">
        <ele>1003</ele>
        <time>2021-09-11T11:47:21Z</time>
      </trkpt>
      <trkpt lat="44.11318" lon="6.33045">
        <ele>1002.8</ele>
        <time>2021-09-11T11:47:22Z</time>
      </trkpt>
      <trkpt lat="44.11322" lon="6.33049">
        <ele>1002.6</ele>
        <time>2021-09-11T11:47:24Z</time>
      </trkpt>
      <trkpt lat="44.11325" lon="6.33053">
        <ele>1002.5</ele>
        <time>2021-09-11T11:47:25Z</time>
      </trkpt>
      <trkpt lat="44.11329" lon="6.33059">
        <ele>1002.1</ele>
        <time>2021-09-11T11:47:26Z</time>
      </trkpt>
      <trkpt lat="44.11332" lon="6.33062">
        <ele>1001.8</ele>
        <time>2021-09-11T11:47:27Z</time>
      </trkpt>
      <trkpt lat="44.11333" lon="6.33067">
        <ele>1001.5</ele>
        <time>2021-09-11T11:47:29Z</time>
      </trkpt>
      <trkpt lat="44.1134" lon="6.33068">
        <ele>1001</ele>
        <time>2021-09-11T11:47:30Z</time>
      </trkpt>
      <trkpt lat="44.11352" lon="6.33068">
        <ele>1000</ele>
        <time>2021-09-11T11:47:32Z</time>
      </trkpt>
      <trkpt lat="44.11357" lon="6.3307">
        <ele>999.6</ele>
        <time>2021-09-11T11:47:33Z</time>
      </trkpt>
      <trkpt lat="44.11362" lon="6.33074">
        <ele>999.3</ele>
        <time>2021-09-11T11:47:34Z</time>
      </trkpt>
      <trkpt lat="44.11366" lon="6.33079">
        <ele>999</ele>
        <time>2021-09-11T11:47:35Z</time>
      </trkpt>
      <trkpt lat="44.11374" lon="6.33088">
        <ele>998.7</ele>
        <time>2021-09-11T11:47:37Z</time>
      </trkpt>
      <trkpt lat="44.11381" lon="6.33094">
        <ele>998.5</ele>
        <time>2021-09-11T11:47:39Z</time>
      </trkpt>
      <trkpt lat="44.11384" lon="6.33096">
        <ele>998.4</ele>
        <time>2021-09-11T11:47:40Z</time>
      </trkpt>
      <trkpt lat="44.11388" lon="6.33098">
        <ele>998.2</ele>
        <time>2021-09-11T11:47:41Z</time>
      </trkpt>
      <trkpt lat="44.11394" lon="6.33101">
        <ele>998</ele>
        <time>2021-09-11T11:47:43Z</time>
      </trkpt>
      <trkpt lat="44.11398" lon="6.33106">
        <ele>997.8</ele>
        <time>2021-09-11T11:47:44Z</time>
      </trkpt>
      <trkpt lat="44.11401" lon="6.3311">
        <ele>997.7</ele>
        <time>2021-09-11T11:47:45Z</time>
      </trkpt>
      <trkpt lat="44.11404" lon="6.33116">
        <ele>997.4</ele>
        <time>2021-09-11T11:47:46Z</time>
      </trkpt>
      <trkpt lat="44.11406" lon="6.33121">
        <ele>997.3</ele>
        <time>2021-09-11T11:47:48Z</time>
      </trkpt>
      <trkpt lat="44.11409" lon="6.33126">
        <ele>997.1</ele>
        <time>2021-09-11T11:47:49Z</time>
      </trkpt>
      <trkpt lat="44.11411" lon="6.3313">
        <ele>997</ele>
        <time>2021-09-11T11:47:50Z</time>
      </trkpt>
      <trkpt lat="44.11413" lon="6.33137">
        <ele>996.8</ele>
        <time>2021-09-11T11:47:51Z</time>
      </trkpt>
      <trkpt lat="44.11415" lon="6.33142">
        <ele>996.6</ele>
        <time>2021-09-11T11:47:52Z</time>
      </trkpt>
      <trkpt lat="44.11416" lon="6.33145">
        <ele>996.5</ele>
        <time>2021-09-11T11:47:53Z</time>
      </trkpt>
      <trkpt lat="44.11415" lon="6.33151">
        <ele>996.3</ele>
        <time>2021-09-11T11:47:55Z</time>
      </trkpt>
      <trkpt lat="44.11425" lon="6.3316">
        <ele>995.8</ele>
        <time>2021-09-11T11:47:56Z</time>
      </trkpt>
      <trkpt lat="44.11435" lon="6.33172">
        <ele>995.4</ele>
        <time>2021-09-11T11:47:58Z</time>
      </trkpt>
      <trkpt lat="44.11439" lon="6.33178">
        <ele>995.3</ele>
        <time>2021-09-11T11:47:59Z</time>
      </trkpt>
      <trkpt lat="44.11446" lon="6.33186">
        <ele>995.2</ele>
        <time>2021-09-11T11:48:01Z</time>
      </trkpt>
      <trkpt lat="44.1145" lon="6.33186">
        <ele>995.1</ele>
        <time>2021-09-11T11:48:03Z</time>
      </trkpt>
      <trkpt lat="44.11454" lon="6.33188">
        <ele>995</ele>
        <time>2021-09-11T11:48:04Z</time>
      </trkpt>
      <trkpt lat="44.11459" lon="6.33193">
        <ele>994.8</ele>
        <time>2021-09-11T11:48:05Z</time>
      </trkpt>
      <trkpt lat="44.11466" lon="6.33199">
        <ele>994.3</ele>
        <time>2021-09-11T11:48:07Z</time>
      </trkpt>
      <trkpt lat="44.1147" lon="6.33203">
        <ele>994</ele>
        <time>2021-09-11T11:48:08Z</time>
      </trkpt>
      <trkpt lat="44.11473" lon="6.33207">
        <ele>993.8</ele>
        <time>2021-09-11T11:48:09Z</time>
      </trkpt>
      <trkpt lat="44.11476" lon="6.33211">
        <ele>993.5</ele>
        <time>2021-09-11T11:48:10Z</time>
      </trkpt>
      <trkpt lat="44.11481" lon="6.33217">
        <ele>993.1</ele>
        <time>2021-09-11T11:48:12Z</time>
      </trkpt>
      <trkpt lat="44.11485" lon="6.33218">
        <ele>992.9</ele>
        <time>2021-09-11T11:48:13Z</time>
      </trkpt>
      <trkpt lat="44.11492" lon="6.33216">
        <ele>992.5</ele>
        <time>2021-09-11T11:48:14Z</time>
      </trkpt>
      <trkpt lat="44.11499" lon="6.33215">
        <ele>992.1</ele>
        <time>2021-09-11T11:48:16Z</time>
      </trkpt>
      <trkpt lat="44.11504" lon="6.33215">
        <ele>991.8</ele>
        <time>2021-09-11T11:48:17Z</time>
      </trkpt>
      <trkpt lat="44.11509" lon="6.33215">
        <ele>991.5</ele>
        <time>2021-09-11T11:48:19Z</time>
      </trkpt>
      <trkpt lat="44.11513" lon="6.33218">
        <ele>991.2</ele>
        <time>2021-09-11T11:48:20Z</time>
      </trkpt>
      <trkpt lat="44.11518" lon="6.33222">
        <ele>990.8</ele>
        <time>2021-09-11T11:48:22Z</time>
      </trkpt>
      <trkpt lat="44.11521" lon="6.33225">
        <ele>990.5</ele>
        <time>2021-09-11T11:48:23Z</time>
      </trkpt>
      <trkpt lat="44.11525" lon="6.33229">
        <ele>990.2</ele>
        <time>2021-09-11T11:48:24Z</time>
      </trkpt>
      <trkpt lat="44.11527" lon="6.33231">
        <ele>989.9</ele>
        <time>2021-09-11T11:48:25Z</time>
      </trkpt>
      <trkpt lat="44.11527" lon="6.33236">
        <ele>989.7</ele>
        <time>2021-09-11T11:48:26Z</time>
      </trkpt>
      <trkpt lat="44.11528" lon="6.3324">
        <ele>989.4</ele>
        <time>2021-09-11T11:48:28Z</time>
      </trkpt>
      <trkpt lat="44.1153" lon="6.33244">
        <ele>989.1</ele>
        <time>2021-09-11T11:48:29Z</time>
      </trkpt>
      <trkpt lat="44.11532" lon="6.3325">
        <ele>988.6</ele>
        <time>2021-09-11T11:48:30Z</time>
      </trkpt>
      <trkpt lat="44.11533" lon="6.33253">
        <ele>988.3</ele>
        <time>2021-09-11T11:48:31Z</time>
      </trkpt>
      <trkpt lat="44.11534" lon="6.3326">
        <ele>987.7</ele>
        <time>2021-09-11T11:48:32Z</time>
      </trkpt>
      <trkpt lat="44.11537" lon="6.33269">
        <ele>986.9</ele>
        <time>2021-09-11T11:48:34Z</time>
      </trkpt>
      <trkpt lat="44.11539" lon="6.33276">
        <ele>986.2</ele>
        <time>2021-09-11T11:48:35Z</time>
      </trkpt>
      <trkpt lat="44.11542" lon="6.3328">
        <ele>985.7</ele>
        <time>2021-09-11T11:48:37Z</time>
      </trkpt>
      <trkpt lat="44.11546" lon="6.33284">
        <ele>985.1</ele>
        <time>2021-09-11T11:48:38Z</time>
      </trkpt>
      <trkpt lat="44.11549" lon="6.33287">
        <ele>984.6</ele>
        <time>2021-09-11T11:48:39Z</time>
      </trkpt>
      <trkpt lat="44.11552" lon="6.3329">
        <ele>984.2</ele>
        <time>2021-09-11T11:48:40Z</time>
      </trkpt>
      <trkpt lat="44.11555" lon="6.33293">
        <ele>983.8</ele>
        <time>2021-09-11T11:48:41Z</time>
      </trkpt>
      <trkpt lat="44.11556" lon="6.33297">
        <ele>983.3</ele>
        <time>2021-09-11T11:48:43Z</time>
      </trkpt>
      <trkpt lat="44.11555" lon="6.33303">
        <ele>982.9</ele>
        <time>2021-09-11T11:48:44Z</time>
      </trkpt>
      <trkpt lat="44.11555" lon="6.33305">
        <ele>982.6</ele>
        <time>2021-09-11T11:48:45Z</time>
      </trkpt>
      <trkpt lat="44.11556" lon="6.33309">
        <ele>982.3</ele>
        <time>2021-09-11T11:48:47Z</time>
      </trkpt>
      <trkpt lat="44.11555" lon="6.33313">
        <ele>982</ele>
        <time>2021-09-11T11:48:48Z</time>
      </trkpt>
      <trkpt lat="44.11556" lon="6.33314">
        <ele>981.9</ele>
        <time>2021-09-11T11:48:49Z</time>
      </trkpt>
      <trkpt lat="44.11557" lon="6.33319">
        <ele>981.5</ele>
        <time>2021-09-11T11:48:51Z</time>
      </trkpt>
      <trkpt lat="44.11559" lon="6.33322">
        <ele>981.1</ele>
        <time>2021-09-11T11:48:52Z</time>
      </trkpt>
      <trkpt lat="44.1156" lon="6.33324">
        <ele>980.9</ele>
        <time>2021-09-11T11:48:53Z</time>
      </trkpt>
      <trkpt lat="44.11562" lon="6.3333">
        <ele>980.3</ele>
        <time>2021-09-11T11:48:55Z</time>
      </trkpt>
      <trkpt lat="44.11565" lon="6.33332">
        <ele>979.9</ele>
        <time>2021-09-11T11:48:57Z</time>
      </trkpt>
      <trkpt lat="44.11569" lon="6.33332">
        <ele>979.5</ele>
        <time>2021-09-11T11:48:58Z</time>
      </trkpt>
      <trkpt lat="44.11571" lon="6.33334">
        <ele>979.2</ele>
        <time>2021-09-11T11:48:59Z</time>
      </trkpt>
      <trkpt lat="44.11577" lon="6.33334">
        <ele>978.6</ele>
        <time>2021-09-11T11:49:01Z</time>
      </trkpt>
      <trkpt lat="44.1158" lon="6.33333">
        <ele>978.2</ele>
        <time>2021-09-11T11:49:02Z</time>
      </trkpt>
      <trkpt lat="44.11582" lon="6.33332">
        <ele>978</ele>
        <time>2021-09-11T11:49:03Z</time>
      </trkpt>
      <trkpt lat="44.11584" lon="6.33331">
        <ele>977.7</ele>
        <time>2021-09-11T11:49:05Z</time>
      </trkpt>
      <trkpt lat="44.11587" lon="6.33329">
        <ele>977.3</ele>
        <time>2021-09-11T11:49:06Z</time>
      </trkpt>
      <trkpt lat="44.11588" lon="6.33328">
        <ele>977.2</ele>
        <time>2021-09-11T11:49:07Z</time>
      </trkpt>
      <trkpt lat="44.11594" lon="6.33326">
        <ele>976.6</ele>
        <time>2021-09-11T11:49:09Z</time>
      </trkpt>
      <trkpt lat="44.11597" lon="6.33323">
        <ele>976.1</ele>
        <time>2021-09-11T11:49:10Z</time>
      </trkpt>
      <trkpt lat="44.11599" lon="6.3332">
        <ele>975.7</ele>
        <time>2021-09-11T11:49:11Z</time>
      </trkpt>
      <trkpt lat="44.11603" lon="6.33317">
        <ele>975.1</ele>
        <time>2021-09-11T11:49:13Z</time>
      </trkpt>
      <trkpt lat="44.11607" lon="6.33316">
        <ele>974.6</ele>
        <time>2021-09-11T11:49:14Z</time>
      </trkpt>
      <trkpt lat="44.11608" lon="6.33315">
        <ele>974.4</ele>
        <time>2021-09-11T11:49:15Z</time>
      </trkpt>
      <trkpt lat="44.11613" lon="6.33314">
        <ele>973.7</ele>
        <time>2021-09-11T11:49:17Z</time>
      </trkpt>
      <trkpt lat="44.11616" lon="6.33314">
        <ele>973.1</ele>
        <time>2021-09-11T11:49:18Z</time>
      </trkpt>
      <trkpt lat="44.11618" lon="6.33313">
        <ele>972.8</ele>
        <time>2021-09-11T11:49:19Z</time>
      </trkpt>
      <trkpt lat="44.11622" lon="6.3331">
        <ele>972.1</ele>
        <time>2021-09-11T11:49:21Z</time>
      </trkpt>
      <trkpt lat="44.11623" lon="6.33309">
        <ele>972</ele>
        <time>2021-09-11T11:49:23Z</time>
      </trkpt>
      <trkpt lat="44.11626" lon="6.3331">
        <ele>971.5</ele>
        <time>2021-09-11T11:49:25Z</time>
      </trkpt>
      <trkpt lat="44.11627" lon="6.3331">
        <ele>971.3</ele>
        <time>2021-09-11T11:49:26Z</time>
      </trkpt>
      <trkpt lat="44.11629" lon="6.33311">
        <ele>971</ele>
        <time>2021-09-11T11:49:28Z</time>
      </trkpt>
      <trkpt lat="44.11629" lon="6.33308">
        <ele>970.7</ele>
        <time>2021-09-11T11:49:30Z</time>
      </trkpt>
      <trkpt lat="44.11628" lon="6.33307">
        <ele>970.6</ele>
        <time>2021-09-11T11:49:31Z</time>
      </trkpt>
      <trkpt lat="44.11628" lon="6.33307">
        <ele>970.5</ele>
        <time>2021-09-11T11:49:32Z</time>
      </trkpt>
      <trkpt lat="44.11627" lon="6.33306">
        <ele>970.4</ele>
        <time>2021-09-11T11:49:34Z</time>
      </trkpt>
      <trkpt lat="44.11626" lon="6.33306">
        <ele>970.3</ele>
        <time>2021-09-11T11:49:35Z</time>
      </trkpt>
      <trkpt lat="44.11626" lon="6.33305">
        <ele>970.3</ele>
        <time>2021-09-11T11:49:36Z</time>
      </trkpt>
      <trkpt lat="44.11625" lon="6.33305">
        <ele>970.2</ele>
        <time>2021-09-11T11:49:37Z</time>
      </trkpt>
      <trkpt lat="44.11626" lon="6.33314">
        <ele>969.7</ele>
        <time>2021-09-11T11:49:39Z</time>
      </trkpt>
      <trkpt lat="44.11629" lon="6.33324">
        <ele>969.2</ele>
        <time>2021-09-11T11:50:06Z</time>
      </trkpt>
      <trkpt lat="44.11632" lon="6.33333">
        <ele>969.2</ele>
        <time>2021-09-11T11:50:07Z</time>
      </trkpt>
      <trkpt lat="44.11638" lon="6.33336">
        <ele>968.7</ele>
        <time>2021-09-11T11:50:09Z</time>
      </trkpt>
      <trkpt lat="44.11643" lon="6.3334">
        <ele>968.2</ele>
        <time>2021-09-11T11:50:10Z</time>
      </trkpt>
      <trkpt lat="44.11649" lon="6.33344">
        <ele>967.6</ele>
        <time>2021-09-11T11:50:12Z</time>
      </trkpt>
      <trkpt lat="44.11654" lon="6.33346">
        <ele>967.2</ele>
        <time>2021-09-11T11:50:13Z</time>
      </trkpt>
      <trkpt lat="44.11661" lon="6.3335">
        <ele>966.5</ele>
        <time>2021-09-11T11:50:15Z</time>
      </trkpt>
      <trkpt lat="44.11666" lon="6.33352">
        <ele>966.1</ele>
        <time>2021-09-11T11:50:16Z</time>
      </trkpt>
      <trkpt lat="44.1167" lon="6.33353">
        <ele>965.8</ele>
        <time>2021-09-11T11:50:17Z</time>
      </trkpt>
      <trkpt lat="44.11677" lon="6.33356">
        <ele>965.3</ele>
        <time>2021-09-11T11:50:19Z</time>
      </trkpt>
      <trkpt lat="44.11681" lon="6.33358">
        <ele>965</ele>
        <time>2021-09-11T11:50:20Z</time>
      </trkpt>
      <trkpt lat="44.11686" lon="6.33359">
        <ele>964.6</ele>
        <time>2021-09-11T11:50:21Z</time>
      </trkpt>
      <trkpt lat="44.117" lon="6.33366">
        <ele>962.9</ele>
        <time>2021-09-11T11:50:23Z</time>
      </trkpt>
      <trkpt lat="44.1171" lon="6.3337">
        <ele>961.4</ele>
        <time>2021-09-11T11:50:25Z</time>
      </trkpt>
      <trkpt lat="44.11715" lon="6.33373">
        <ele>960.7</ele>
        <time>2021-09-11T11:50:26Z</time>
      </trkpt>
      <trkpt lat="44.11718" lon="6.33374">
        <ele>960.2</ele>
        <time>2021-09-11T11:50:27Z</time>
      </trkpt>
      <trkpt lat="44.11723" lon="6.33375">
        <ele>959.6</ele>
        <time>2021-09-11T11:50:29Z</time>
      </trkpt>
      <trkpt lat="44.11733" lon="6.33374">
        <ele>958.3</ele>
        <time>2021-09-11T11:50:30Z</time>
      </trkpt>
      <trkpt lat="44.11744" lon="6.33373">
        <ele>956.9</ele>
        <time>2021-09-11T11:50:32Z</time>
      </trkpt>
      <trkpt lat="44.11754" lon="6.33371">
        <ele>955.8</ele>
        <time>2021-09-11T11:50:34Z</time>
      </trkpt>
      <trkpt lat="44.11757" lon="6.33368">
        <ele>955.4</ele>
        <time>2021-09-11T11:50:35Z</time>
      </trkpt>
      <trkpt lat="44.11766" lon="6.33367">
        <ele>954.6</ele>
        <time>2021-09-11T11:50:37Z</time>
      </trkpt>
      <trkpt lat="44.11772" lon="6.33368">
        <ele>954.3</ele>
        <time>2021-09-11T11:50:38Z</time>
      </trkpt>
      <trkpt lat="44.11778" lon="6.33368">
        <ele>953.9</ele>
        <time>2021-09-11T11:50:39Z</time>
      </trkpt>
      <trkpt lat="44.11792" lon="6.33367">
        <ele>953</ele>
        <time>2021-09-11T11:50:41Z</time>
      </trkpt>
      <trkpt lat="44.11806" lon="6.33364">
        <ele>951.7</ele>
        <time>2021-09-11T11:50:43Z</time>
      </trkpt>
      <trkpt lat="44.11815" lon="6.3336">
        <ele>950.9</ele>
        <time>2021-09-11T11:50:45Z</time>
      </trkpt>
      <trkpt lat="44.1182" lon="6.33357">
        <ele>950.4</ele>
        <time>2021-09-11T11:50:47Z</time>
      </trkpt>
      <trkpt lat="44.11823" lon="6.33354">
        <ele>950.1</ele>
        <time>2021-09-11T11:50:49Z</time>
      </trkpt>
      <trkpt lat="44.11827" lon="6.33352">
        <ele>949.8</ele>
        <time>2021-09-11T11:50:51Z</time>
      </trkpt>
      <trkpt lat="44.11827" lon="6.33352">
        <ele>949.8</ele>
        <time>2021-09-11T11:50:52Z</time>
      </trkpt>
      <trkpt lat="44.11826" lon="6.33353">
        <ele>949.7</ele>
        <time>2021-09-11T11:50:53Z</time>
      </trkpt>
      <trkpt lat="44.11828" lon="6.33351">
        <ele>949.5</ele>
        <time>2021-09-11T11:50:55Z</time>
      </trkpt>
      <trkpt lat="44.11827" lon="6.33348">
        <ele>949.3</ele>
        <time>2021-09-11T11:50:57Z</time>
      </trkpt>
      <trkpt lat="44.11827" lon="6.33348">
        <ele>949.3</ele>
        <time>2021-09-11T11:50:58Z</time>
      </trkpt>
      <trkpt lat="44.11826" lon="6.33348">
        <ele>949.3</ele>
        <time>2021-09-11T11:51:00Z</time>
      </trkpt>
      <trkpt lat="44.11825" lon="6.33348">
        <ele>949.2</ele>
        <time>2021-09-11T11:51:02Z</time>
      </trkpt>
      <trkpt lat="44.11824" lon="6.33348">
        <ele>949.1</ele>
        <time>2021-09-11T11:51:03Z</time>
      </trkpt>
      <trkpt lat="44.11827" lon="6.33352">
        <ele>948.9</ele>
        <time>2021-09-11T11:51:40Z</time>
      </trkpt>
      <trkpt lat="44.1183" lon="6.33352">
        <ele>948.7</ele>
        <time>2021-09-11T11:51:41Z</time>
      </trkpt>
      <trkpt lat="44.11835" lon="6.33353">
        <ele>948.4</ele>
        <time>2021-09-11T11:51:43Z</time>
      </trkpt>
      <trkpt lat="44.11841" lon="6.33356">
        <ele>946.3</ele>
        <time>2021-09-11T11:51:44Z</time>
      </trkpt>
      <trkpt lat="44.1185" lon="6.3336">
        <ele>945.6</ele>
        <time>2021-09-11T11:51:45Z</time>
      </trkpt>
      <trkpt lat="44.11856" lon="6.33362">
        <ele>945.1</ele>
        <time>2021-09-11T11:51:46Z</time>
      </trkpt>
      <trkpt lat="44.11867" lon="6.33366">
        <ele>944</ele>
        <time>2021-09-11T11:51:48Z</time>
      </trkpt>
      <trkpt lat="44.11873" lon="6.33368">
        <ele>943.4</ele>
        <time>2021-09-11T11:51:49Z</time>
      </trkpt>
      <trkpt lat="44.11885" lon="6.33375">
        <ele>941.9</ele>
        <time>2021-09-11T11:51:51Z</time>
      </trkpt>
      <trkpt lat="44.11893" lon="6.33379">
        <ele>941.2</ele>
        <time>2021-09-11T11:51:52Z</time>
      </trkpt>
      <trkpt lat="44.11899" lon="6.33382">
        <ele>940.6</ele>
        <time>2021-09-11T11:51:53Z</time>
      </trkpt>
      <trkpt lat="44.11912" lon="6.33396">
        <ele>939</ele>
        <time>2021-09-11T11:51:55Z</time>
      </trkpt>
      <trkpt lat="44.11927" lon="6.33427">
        <ele>936.3</ele>
        <time>2021-09-11T11:51:57Z</time>
      </trkpt>
      <trkpt lat="44.11944" lon="6.33456">
        <ele>935.3</ele>
        <time>2021-09-11T11:51:59Z</time>
      </trkpt>
      <trkpt lat="44.11954" lon="6.33467">
        <ele>935.5</ele>
        <time>2021-09-11T11:52:00Z</time>
      </trkpt>
      <trkpt lat="44.11962" lon="6.33477">
        <ele>935.6</ele>
        <time>2021-09-11T11:52:01Z</time>
      </trkpt>
      <trkpt lat="44.11976" lon="6.33495">
        <ele>935.9</ele>
        <time>2021-09-11T11:52:03Z</time>
      </trkpt>
      <trkpt lat="44.11978" lon="6.33498">
        <ele>935.9</ele>
        <time>2021-09-11T11:52:06Z</time>
      </trkpt>
      <trkpt lat="44.11977" lon="6.33496">
        <ele>936</ele>
        <time>2021-09-11T11:52:07Z</time>
      </trkpt>
      <trkpt lat="44.11976" lon="6.33495">
        <ele>936</ele>
        <time>2021-09-11T11:52:08Z</time>
      </trkpt>
      <trkpt lat="44.11976" lon="6.33495">
        <ele>936</ele>
        <time>2021-09-11T11:52:09Z</time>
      </trkpt>
      <trkpt lat="44.11975" lon="6.33494">
        <ele>936</ele>
        <time>2021-09-11T11:52:11Z</time>
      </trkpt>
      <trkpt lat="44.11975" lon="6.33493">
        <ele>936</ele>
        <time>2021-09-11T11:52:12Z</time>
      </trkpt>
      <trkpt lat="44.11975" lon="6.33493">
        <ele>936</ele>
        <time>2021-09-11T11:52:13Z</time>
      </trkpt>
      <trkpt lat="44.1213" lon="6.33458">
        <ele>954.5</ele>
        <time>2021-09-11T11:53:46Z</time>
      </trkpt>
      <trkpt lat="44.12131" lon="6.3346">
        <ele>954.4</ele>
        <time>2021-09-11T11:53:47Z</time>
      </trkpt>
      <trkpt lat="44.12133" lon="6.33464">
        <ele>954.4</ele>
        <time>2021-09-11T11:53:49Z</time>
      </trkpt>
      <trkpt lat="44.12133" lon="6.33467">
        <ele>954.4</ele>
        <time>2021-09-11T11:53:50Z</time>
      </trkpt>
      <trkpt lat="44.12132" lon="6.33469">
        <ele>954.4</ele>
        <time>2021-09-11T11:53:52Z</time>
      </trkpt>
      <trkpt lat="44.12129" lon="6.3347">
        <ele>954.3</ele>
        <time>2021-09-11T11:53:53Z</time>
      </trkpt>
      <trkpt lat="44.12127" lon="6.33469">
        <ele>954.3</ele>
        <time>2021-09-11T11:53:54Z</time>
      </trkpt>
      <trkpt lat="44.12126" lon="6.33468">
        <ele>954.3</ele>
        <time>2021-09-11T11:53:55Z</time>
      </trkpt>
      <trkpt lat="44.12127" lon="6.33465">
        <ele>954.2</ele>
        <time>2021-09-11T11:53:57Z</time>
      </trkpt>
      <trkpt lat="44.1213" lon="6.33462">
        <ele>954.2</ele>
        <time>2021-09-11T11:53:58Z</time>
      </trkpt>
      <trkpt lat="44.12133" lon="6.33459">
        <ele>954.1</ele>
        <time>2021-09-11T11:53:59Z</time>
      </trkpt>
      <trkpt lat="44.12135" lon="6.33456">
        <ele>954.1</ele>
        <time>2021-09-11T11:54:00Z</time>
      </trkpt>
      <trkpt lat="44.12138" lon="6.33453">
        <ele>954</ele>
        <time>2021-09-11T11:54:01Z</time>
      </trkpt>
      <trkpt lat="44.12141" lon="6.33451">
        <ele>953.9</ele>
        <time>2021-09-11T11:54:03Z</time>
      </trkpt>
      <trkpt lat="44.12143" lon="6.33448">
        <ele>953.8</ele>
        <time>2021-09-11T11:58:34Z</time>
      </trkpt>
      <trkpt lat="44.12146" lon="6.33445">
        <ele>953.7</ele>
        <time>2021-09-11T11:58:35Z</time>
      </trkpt>
      <trkpt lat="44.12149" lon="6.33442">
        <ele>953.6</ele>
        <time>2021-09-11T11:58:36Z</time>
      </trkpt>
      <trkpt lat="44.12154" lon="6.33443">
        <ele>952.8</ele>
        <time>2021-09-11T11:58:38Z</time>
      </trkpt>
      <trkpt lat="44.12157" lon="6.33443">
        <ele>952.8</ele>
        <time>2021-09-11T11:58:39Z</time>
      </trkpt>
      <trkpt lat="44.1216" lon="6.33442">
        <ele>955.4</ele>
        <time>2021-09-11T11:58:40Z</time>
      </trkpt>
      <trkpt lat="44.12164" lon="6.33443">
        <ele>955.7</ele>
        <time>2021-09-11T11:58:41Z</time>
      </trkpt>
      <trkpt lat="44.12165" lon="6.33444">
        <ele>955.7</ele>
        <time>2021-09-11T11:58:42Z</time>
      </trkpt>
      <trkpt lat="44.12166" lon="6.33446">
        <ele>955.8</ele>
        <time>2021-09-11T11:58:44Z</time>
      </trkpt>
      <trkpt lat="44.12167" lon="6.33447">
        <ele>955.8</ele>
        <time>2021-09-11T11:58:45Z</time>
      </trkpt>
      <trkpt lat="44.12168" lon="6.33448">
        <ele>955.9</ele>
        <time>2021-09-11T11:58:46Z</time>
      </trkpt>
      <trkpt lat="44.12169" lon="6.3345">
        <ele>955.9</ele>
        <time>2021-09-11T11:58:48Z</time>
      </trkpt>
      <trkpt lat="44.1217" lon="6.33451">
        <ele>956</ele>
        <time>2021-09-11T11:58:49Z</time>
      </trkpt>
      <trkpt lat="44.12171" lon="6.33452">
        <ele>956</ele>
        <time>2021-09-11T11:58:51Z</time>
      </trkpt>
      <trkpt lat="44.12171" lon="6.33452">
        <ele>956</ele>
        <time>2021-09-11T11:58:52Z</time>
      </trkpt>
      <trkpt lat="44.12173" lon="6.33453">
        <ele>956.1</ele>
        <time>2021-09-11T11:58:54Z</time>
      </trkpt>
      <trkpt lat="44.12174" lon="6.33454">
        <ele>956.1</ele>
        <time>2021-09-11T11:58:55Z</time>
      </trkpt>
      <trkpt lat="44.12199" lon="6.33461">
        <ele>958.2</ele>
        <time>2021-09-11T11:59:15Z</time>
      </trkpt>
      <trkpt lat="44.12207" lon="6.33465">
        <ele>958.6</ele>
        <time>2021-09-11T11:59:17Z</time>
      </trkpt>
      <trkpt lat="44.12212" lon="6.33469">
        <ele>958.9</ele>
        <time>2021-09-11T11:59:18Z</time>
      </trkpt>
      <trkpt lat="44.12215" lon="6.33471">
        <ele>959.1</ele>
        <time>2021-09-11T11:59:19Z</time>
      </trkpt>
      <trkpt lat="44.1222" lon="6.33474">
        <ele>959.4</ele>
        <time>2021-09-11T11:59:21Z</time>
      </trkpt>
      <trkpt lat="44.12223" lon="6.33475">
        <ele>959.6</ele>
        <time>2021-09-11T11:59:22Z</time>
      </trkpt>
      <trkpt lat="44.12228" lon="6.33475">
        <ele>959.8</ele>
        <time>2021-09-11T11:59:24Z</time>
      </trkpt>
      <trkpt lat="44.1223" lon="6.33475">
        <ele>960</ele>
        <time>2021-09-11T11:59:25Z</time>
      </trkpt>
      <trkpt lat="44.12233" lon="6.33475">
        <ele>960.2</ele>
        <time>2021-09-11T11:59:27Z</time>
      </trkpt>
      <trkpt lat="44.12235" lon="6.33475">
        <ele>960.3</ele>
        <time>2021-09-11T11:59:28Z</time>
      </trkpt>
      <trkpt lat="44.12237" lon="6.33475">
        <ele>960.4</ele>
        <time>2021-09-11T11:59:29Z</time>
      </trkpt>
      <trkpt lat="44.12237" lon="6.33476">
        <ele>960.4</ele>
        <time>2021-09-11T11:59:30Z</time>
      </trkpt>
      <trkpt lat="44.1224" lon="6.33476">
        <ele>960.6</ele>
        <time>2021-09-11T11:59:32Z</time>
      </trkpt>
      <trkpt lat="44.12242" lon="6.33475">
        <ele>960.7</ele>
        <time>2021-09-11T11:59:33Z</time>
      </trkpt>
      <trkpt lat="44.12247" lon="6.33474">
        <ele>961</ele>
        <time>2021-09-11T11:59:35Z</time>
      </trkpt>
      <trkpt lat="44.1225" lon="6.33473">
        <ele>961.1</ele>
        <time>2021-09-11T11:59:36Z</time>
      </trkpt>
      <trkpt lat="44.12253" lon="6.33472">
        <ele>961.2</ele>
        <time>2021-09-11T11:59:37Z</time>
      </trkpt>
      <trkpt lat="44.12256" lon="6.33471">
        <ele>961.3</ele>
        <time>2021-09-11T11:59:38Z</time>
      </trkpt>
      <trkpt lat="44.12261" lon="6.33471">
        <ele>961.5</ele>
        <time>2021-09-11T11:59:40Z</time>
      </trkpt>
      <trkpt lat="44.12264" lon="6.33471">
        <ele>961.6</ele>
        <time>2021-09-11T11:59:41Z</time>
      </trkpt>
      <trkpt lat="44.12268" lon="6.33471">
        <ele>961.7</ele>
        <time>2021-09-11T11:59:42Z</time>
      </trkpt>
      <trkpt lat="44.12271" lon="6.33471">
        <ele>961.8</ele>
        <time>2021-09-11T11:59:44Z</time>
      </trkpt>
      <trkpt lat="44.12273" lon="6.33471">
        <ele>961.8</ele>
        <time>2021-09-11T11:59:45Z</time>
      </trkpt>
      <trkpt lat="44.12274" lon="6.33472">
        <ele>961.8</ele>
        <time>2021-09-11T11:59:46Z</time>
      </trkpt>
      <trkpt lat="44.12278" lon="6.33472">
        <ele>961.9</ele>
        <time>2021-09-11T11:59:47Z</time>
      </trkpt>
      <trkpt lat="44.12279" lon="6.33472">
        <ele>961.9</ele>
        <time>2021-09-11T11:59:48Z</time>
      </trkpt>
      <trkpt lat="44.12284" lon="6.3347">
        <ele>962.1</ele>
        <time>2021-09-11T11:59:50Z</time>
      </trkpt>
      <trkpt lat="44.12288" lon="6.33466">
        <ele>962.3</ele>
        <time>2021-09-11T11:59:52Z</time>
      </trkpt>
      <trkpt lat="44.12292" lon="6.33463">
        <ele>962.4</ele>
        <time>2021-09-11T11:59:54Z</time>
      </trkpt>
      <trkpt lat="44.12294" lon="6.33461">
        <ele>962.5</ele>
        <time>2021-09-11T11:59:55Z</time>
      </trkpt>
      <trkpt lat="44.12298" lon="6.33458">
        <ele>962.6</ele>
        <time>2021-09-11T11:59:56Z</time>
      </trkpt>
      <trkpt lat="44.12299" lon="6.33457">
        <ele>962.6</ele>
        <time>2021-09-11T11:59:57Z</time>
      </trkpt>
      <trkpt lat="44.123" lon="6.33454">
        <ele>962.7</ele>
        <time>2021-09-11T11:59:59Z</time>
      </trkpt>
      <trkpt lat="44.12301" lon="6.33453">
        <ele>962.7</ele>
        <time>2021-09-11T12:00:01Z</time>
      </trkpt>
      <trkpt lat="44.12303" lon="6.3345">
        <ele>962.8</ele>
        <time>2021-09-11T12:00:02Z</time>
      </trkpt>
      <trkpt lat="44.12305" lon="6.33446">
        <ele>962.9</ele>
        <time>2021-09-11T12:00:04Z</time>
      </trkpt>
      <trkpt lat="44.1231" lon="6.33443">
        <ele>962.9</ele>
        <time>2021-09-11T12:00:07Z</time>
      </trkpt>
      <trkpt lat="44.12311" lon="6.33442">
        <ele>962.9</ele>
        <time>2021-09-11T12:00:08Z</time>
      </trkpt>
      <trkpt lat="44.12312" lon="6.33442">
        <ele>962.9</ele>
        <time>2021-09-11T12:00:09Z</time>
      </trkpt>
      <trkpt lat="44.12313" lon="6.33441">
        <ele>962.9</ele>
        <time>2021-09-11T12:00:11Z</time>
      </trkpt>
      <trkpt lat="44.12313" lon="6.33441">
        <ele>963</ele>
        <time>2021-09-11T12:00:12Z</time>
      </trkpt>
      <trkpt lat="44.12314" lon="6.3344">
        <ele>963</ele>
        <time>2021-09-11T12:00:14Z</time>
      </trkpt>
      <trkpt lat="44.12348" lon="6.33416">
        <ele>962.1</ele>
        <time>2021-09-11T12:01:03Z</time>
      </trkpt>
      <trkpt lat="44.12355" lon="6.33412">
        <ele>961.6</ele>
        <time>2021-09-11T12:01:05Z</time>
      </trkpt>
      <trkpt lat="44.1236" lon="6.33411">
        <ele>961.3</ele>
        <time>2021-09-11T12:01:06Z</time>
      </trkpt>
      <trkpt lat="44.12378" lon="6.33411">
        <ele>960.3</ele>
        <time>2021-09-11T12:01:08Z</time>
      </trkpt>
      <trkpt lat="44.12391" lon="6.33418">
        <ele>960.3</ele>
        <time>2021-09-11T12:01:10Z</time>
      </trkpt>
      <trkpt lat="44.12399" lon="6.33424">
        <ele>960.6</ele>
        <time>2021-09-11T12:01:11Z</time>
      </trkpt>
      <trkpt lat="44.12405" lon="6.33429">
        <ele>960.9</ele>
        <time>2021-09-11T12:01:12Z</time>
      </trkpt>
      <trkpt lat="44.12418" lon="6.33436">
        <ele>961.7</ele>
        <time>2021-09-11T12:01:14Z</time>
      </trkpt>
      <trkpt lat="44.12428" lon="6.33442">
        <ele>962.3</ele>
        <time>2021-09-11T12:01:16Z</time>
      </trkpt>
      <trkpt lat="44.12432" lon="6.33446">
        <ele>962.5</ele>
        <time>2021-09-11T12:01:17Z</time>
      </trkpt>
      <trkpt lat="44.12434" lon="6.33443">
        <ele>962.6</ele>
        <time>2021-09-11T12:01:19Z</time>
      </trkpt>
      <trkpt lat="44.12438" lon="6.33446">
        <ele>962.7</ele>
        <time>2021-09-11T12:01:20Z</time>
      </trkpt>
      <trkpt lat="44.12443" lon="6.33449">
        <ele>962.8</ele>
        <time>2021-09-11T12:01:22Z</time>
      </trkpt>
      <trkpt lat="44.12449" lon="6.33451">
        <ele>962.5</ele>
        <time>2021-09-11T12:01:24Z</time>
      </trkpt>
      <trkpt lat="44.12451" lon="6.33455">
        <ele>962.1</ele>
        <time>2021-09-11T12:01:25Z</time>
      </trkpt>
      <trkpt lat="44.12454" lon="6.33461">
        <ele>961.5</ele>
        <time>2021-09-11T12:01:27Z</time>
      </trkpt>
      <trkpt lat="44.12455" lon="6.33466">
        <ele>961.1</ele>
        <time>2021-09-11T12:01:28Z</time>
      </trkpt>
      <trkpt lat="44.12458" lon="6.3347">
        <ele>960.6</ele>
        <time>2021-09-11T12:01:29Z</time>
      </trkpt>
      <trkpt lat="44.12462" lon="6.33482">
        <ele>959.6</ele>
        <time>2021-09-11T12:01:31Z</time>
      </trkpt>
      <trkpt lat="44.12464" lon="6.33489">
        <ele>959.1</ele>
        <time>2021-09-11T12:01:32Z</time>
      </trkpt>
      <trkpt lat="44.1247" lon="6.33502">
        <ele>958.2</ele>
        <time>2021-09-11T12:01:34Z</time>
      </trkpt>
      <trkpt lat="44.12474" lon="6.33509">
        <ele>957.9</ele>
        <time>2021-09-11T12:01:35Z</time>
      </trkpt>
      <trkpt lat="44.12479" lon="6.33514">
        <ele>957.5</ele>
        <time>2021-09-11T12:01:36Z</time>
      </trkpt>
      <trkpt lat="44.12488" lon="6.33524">
        <ele>957</ele>
        <time>2021-09-11T12:01:38Z</time>
      </trkpt>
      <trkpt lat="44.12498" lon="6.33534">
        <ele>956.4</ele>
        <time>2021-09-11T12:01:40Z</time>
      </trkpt>
      <trkpt lat="44.12503" lon="6.33538">
        <ele>956.1</ele>
        <time>2021-09-11T12:01:41Z</time>
      </trkpt>
      <trkpt lat="44.12508" lon="6.33541">
        <ele>955.9</ele>
        <time>2021-09-11T12:01:42Z</time>
      </trkpt>
      <trkpt lat="44.12514" lon="6.33546">
        <ele>955.7</ele>
        <time>2021-09-11T12:01:44Z</time>
      </trkpt>
      <trkpt lat="44.12517" lon="6.33548">
        <ele>955.6</ele>
        <time>2021-09-11T12:01:45Z</time>
      </trkpt>
      <trkpt lat="44.12523" lon="6.33555">
        <ele>955.3</ele>
        <time>2021-09-11T12:01:47Z</time>
      </trkpt>
      <trkpt lat="44.12526" lon="6.33561">
        <ele>955.1</ele>
        <time>2021-09-11T12:01:49Z</time>
      </trkpt>
      <trkpt lat="44.12529" lon="6.33564">
        <ele>955</ele>
        <time>2021-09-11T12:01:50Z</time>
      </trkpt>
      <trkpt lat="44.12531" lon="6.33567">
        <ele>955</ele>
        <time>2021-09-11T12:01:52Z</time>
      </trkpt>
      <trkpt lat="44.12532" lon="6.33568">
        <ele>955</ele>
        <time>2021-09-11T12:01:53Z</time>
      </trkpt>
      <trkpt lat="44.12534" lon="6.3357">
        <ele>955</ele>
        <time>2021-09-11T12:01:55Z</time>
      </trkpt>
      <trkpt lat="44.12536" lon="6.33571">
        <ele>955</ele>
        <time>2021-09-11T12:01:56Z</time>
      </trkpt>
      <trkpt lat="44.12537" lon="6.33573">
        <ele>955</ele>
        <time>2021-09-11T12:01:58Z</time>
      </trkpt>
      <trkpt lat="44.12539" lon="6.33574">
        <ele>955</ele>
        <time>2021-09-11T12:01:59Z</time>
      </trkpt>
      <trkpt lat="44.12541" lon="6.33575">
        <ele>955.1</ele>
        <time>2021-09-11T12:02:01Z</time>
      </trkpt>
      <trkpt lat="44.12542" lon="6.33577">
        <ele>955.1</ele>
        <time>2021-09-11T12:02:02Z</time>
      </trkpt>
      <trkpt lat="44.12544" lon="6.33578">
        <ele>955.1</ele>
        <time>2021-09-11T12:02:04Z</time>
      </trkpt>
      <trkpt lat="44.12545" lon="6.33579">
        <ele>955.2</ele>
        <time>2021-09-11T12:02:53Z</time>
      </trkpt>
      <trkpt lat="44.12547" lon="6.33581">
        <ele>955.2</ele>
        <time>2021-09-11T12:02:54Z</time>
      </trkpt>
      <trkpt lat="44.12553" lon="6.33581">
        <ele>955.3</ele>
        <time>2021-09-11T12:02:56Z</time>
      </trkpt>
      <trkpt lat="44.12558" lon="6.33579">
        <ele>955.4</ele>
        <time>2021-09-11T12:02:57Z</time>
      </trkpt>
      <trkpt lat="44.12564" lon="6.33577">
        <ele>955.5</ele>
        <time>2021-09-11T12:02:58Z</time>
      </trkpt>
      <trkpt lat="44.12568" lon="6.33577">
        <ele>955.6</ele>
        <time>2021-09-11T12:03:00Z</time>
      </trkpt>
      <trkpt lat="44.12572" lon="6.33578">
        <ele>955.7</ele>
        <time>2021-09-11T12:03:02Z</time>
      </trkpt>
      <trkpt lat="44.12576" lon="6.33578">
        <ele>955.8</ele>
        <time>2021-09-11T12:03:03Z</time>
      </trkpt>
      <trkpt lat="44.1258" lon="6.33579">
        <ele>955.8</ele>
        <time>2021-09-11T12:03:05Z</time>
      </trkpt>
      <trkpt lat="44.12582" lon="6.33579">
        <ele>955.9</ele>
        <time>2021-09-11T12:03:06Z</time>
      </trkpt>
      <trkpt lat="44.12585" lon="6.33578">
        <ele>955.9</ele>
        <time>2021-09-11T12:03:08Z</time>
      </trkpt>
      <trkpt lat="44.12588" lon="6.33579">
        <ele>956</ele>
        <time>2021-09-11T12:03:09Z</time>
      </trkpt>
      <trkpt lat="44.12589" lon="6.33579">
        <ele>956</ele>
        <time>2021-09-11T12:03:10Z</time>
      </trkpt>
      <trkpt lat="44.12591" lon="6.3358">
        <ele>956.1</ele>
        <time>2021-09-11T12:03:11Z</time>
      </trkpt>
      <trkpt lat="44.12594" lon="6.33582">
        <ele>956.2</ele>
        <time>2021-09-11T12:03:13Z</time>
      </trkpt>
      <trkpt lat="44.12596" lon="6.33585">
        <ele>956.2</ele>
        <time>2021-09-11T12:03:14Z</time>
      </trkpt>
      <trkpt lat="44.12598" lon="6.33589">
        <ele>956.3</ele>
        <time>2021-09-11T12:03:16Z</time>
      </trkpt>
      <trkpt lat="44.12598" lon="6.33591">
        <ele>956.3</ele>
        <time>2021-09-11T12:03:17Z</time>
      </trkpt>
      <trkpt lat="44.12598" lon="6.33592">
        <ele>956.3</ele>
        <time>2021-09-11T12:03:18Z</time>
      </trkpt>
      <trkpt lat="44.12601" lon="6.33594">
        <ele>956.4</ele>
        <time>2021-09-11T12:03:20Z</time>
      </trkpt>
      <trkpt lat="44.12604" lon="6.33595">
        <ele>956.5</ele>
        <time>2021-09-11T12:03:21Z</time>
      </trkpt>
      <trkpt lat="44.12611" lon="6.33599">
        <ele>956.6</ele>
        <time>2021-09-11T12:03:23Z</time>
      </trkpt>
      <trkpt lat="44.12616" lon="6.33602">
        <ele>956.7</ele>
        <time>2021-09-11T12:03:24Z</time>
      </trkpt>
      <trkpt lat="44.12621" lon="6.33604">
        <ele>956.8</ele>
        <time>2021-09-11T12:03:26Z</time>
      </trkpt>
      <trkpt lat="44.12626" lon="6.33605">
        <ele>956.8</ele>
        <time>2021-09-11T12:03:27Z</time>
      </trkpt>
      <trkpt lat="44.12631" lon="6.33608">
        <ele>956.7</ele>
        <time>2021-09-11T12:03:28Z</time>
      </trkpt>
      <trkpt lat="44.12634" lon="6.33611">
        <ele>956.5</ele>
        <time>2021-09-11T12:03:29Z</time>
      </trkpt>
      <trkpt lat="44.12637" lon="6.33614">
        <ele>956.3</ele>
        <time>2021-09-11T12:03:30Z</time>
      </trkpt>
      <trkpt lat="44.1264" lon="6.3362">
        <ele>956</ele>
        <time>2021-09-11T12:03:32Z</time>
      </trkpt>
      <trkpt lat="44.12642" lon="6.33625">
        <ele>955.6</ele>
        <time>2021-09-11T12:03:33Z</time>
      </trkpt>
      <trkpt lat="44.12644" lon="6.3363">
        <ele>955.1</ele>
        <time>2021-09-11T12:03:34Z</time>
      </trkpt>
      <trkpt lat="44.12644" lon="6.33636">
        <ele>954.6</ele>
        <time>2021-09-11T12:03:36Z</time>
      </trkpt>
      <trkpt lat="44.12644" lon="6.33641">
        <ele>954.2</ele>
        <time>2021-09-11T12:03:37Z</time>
      </trkpt>
      <trkpt lat="44.12645" lon="6.33645">
        <ele>953.8</ele>
        <time>2021-09-11T12:03:38Z</time>
      </trkpt>
      <trkpt lat="44.12647" lon="6.33649">
        <ele>953.4</ele>
        <time>2021-09-11T12:03:39Z</time>
      </trkpt>
      <trkpt lat="44.12649" lon="6.33652">
        <ele>953</ele>
        <time>2021-09-11T12:03:41Z</time>
      </trkpt>
      <trkpt lat="44.1265" lon="6.33652">
        <ele>952.9</ele>
        <time>2021-09-11T12:03:42Z</time>
      </trkpt>
      <trkpt lat="44.12649" lon="6.33652">
        <ele>952.8</ele>
        <time>2021-09-11T12:03:43Z</time>
      </trkpt>
      <trkpt lat="44.1265" lon="6.33653">
        <ele>952.8</ele>
        <time>2021-09-11T12:03:45Z</time>
      </trkpt>
      <trkpt lat="44.1265" lon="6.33653">
        <ele>952.7</ele>
        <time>2021-09-11T12:03:46Z</time>
      </trkpt>
      <trkpt lat="44.12652" lon="6.33654">
        <ele>952.5</ele>
        <time>2021-09-11T12:03:48Z</time>
      </trkpt>
      <trkpt lat="44.12653" lon="6.33654">
        <ele>952.3</ele>
        <time>2021-09-11T12:03:50Z</time>
      </trkpt>
      <trkpt lat="44.12653" lon="6.33655">
        <ele>952.2</ele>
        <time>2021-09-11T12:03:51Z</time>
      </trkpt>
      <trkpt lat="44.12672" lon="6.33662">
        <ele>950</ele>
        <time>2021-09-11T12:04:26Z</time>
      </trkpt>
      <trkpt lat="44.12673" lon="6.33667">
        <ele>949.8</ele>
        <time>2021-09-11T12:04:27Z</time>
      </trkpt>
      <trkpt lat="44.12676" lon="6.3367">
        <ele>949.6</ele>
        <time>2021-09-11T12:04:28Z</time>
      </trkpt>
      <trkpt lat="44.12679" lon="6.33674">
        <ele>949.3</ele>
        <time>2021-09-11T12:04:29Z</time>
      </trkpt>
      <trkpt lat="44.12682" lon="6.33678">
        <ele>949.1</ele>
        <time>2021-09-11T12:04:30Z</time>
      </trkpt>
      <trkpt lat="44.12686" lon="6.33686">
        <ele>948.6</ele>
        <time>2021-09-11T12:04:32Z</time>
      </trkpt>
      <trkpt lat="44.12688" lon="6.33696">
        <ele>947.9</ele>
        <time>2021-09-11T12:04:34Z</time>
      </trkpt>
      <trkpt lat="44.12689" lon="6.33702">
        <ele>947.4</ele>
        <time>2021-09-11T12:04:35Z</time>
      </trkpt>
      <trkpt lat="44.12691" lon="6.33707">
        <ele>947</ele>
        <time>2021-09-11T12:04:37Z</time>
      </trkpt>
      <trkpt lat="44.12691" lon="6.33712">
        <ele>946.8</ele>
        <time>2021-09-11T12:04:38Z</time>
      </trkpt>
      <trkpt lat="44.12692" lon="6.33718">
        <ele>946.6</ele>
        <time>2021-09-11T12:04:40Z</time>
      </trkpt>
      <trkpt lat="44.12697" lon="6.3372">
        <ele>946.6</ele>
        <time>2021-09-11T12:04:41Z</time>
      </trkpt>
      <trkpt lat="44.12699" lon="6.3372">
        <ele>946.7</ele>
        <time>2021-09-11T12:04:42Z</time>
      </trkpt>
      <trkpt lat="44.12703" lon="6.33719">
        <ele>947.1</ele>
        <time>2021-09-11T12:04:43Z</time>
      </trkpt>
      <trkpt lat="44.12706" lon="6.33717">
        <ele>947.5</ele>
        <time>2021-09-11T12:04:45Z</time>
      </trkpt>
      <trkpt lat="44.12709" lon="6.33716">
        <ele>947.9</ele>
        <time>2021-09-11T12:04:46Z</time>
      </trkpt>
      <trkpt lat="44.12712" lon="6.33716">
        <ele>948.4</ele>
        <time>2021-09-11T12:04:47Z</time>
      </trkpt>
      <trkpt lat="44.12713" lon="6.33715">
        <ele>948.6</ele>
        <time>2021-09-11T12:04:48Z</time>
      </trkpt>
      <trkpt lat="44.12716" lon="6.33715">
        <ele>949</ele>
        <time>2021-09-11T12:04:50Z</time>
      </trkpt>
      <trkpt lat="44.12716" lon="6.33715">
        <ele>949.1</ele>
        <time>2021-09-11T12:04:51Z</time>
      </trkpt>
      <trkpt lat="44.12715" lon="6.33718">
        <ele>949.4</ele>
        <time>2021-09-11T12:04:53Z</time>
      </trkpt>
      <trkpt lat="44.12715" lon="6.33718">
        <ele>949.4</ele>
        <time>2021-09-11T12:04:54Z</time>
      </trkpt>
      <trkpt lat="44.12715" lon="6.33718">
        <ele>949.4</ele>
        <time>2021-09-11T12:04:55Z</time>
      </trkpt>
      <trkpt lat="44.12715" lon="6.33718">
        <ele>949.4</ele>
        <time>2021-09-11T12:04:56Z</time>
      </trkpt>
      <trkpt lat="44.12715" lon="6.33718">
        <ele>949.5</ele>
        <time>2021-09-11T12:04:58Z</time>
      </trkpt>
      <trkpt lat="44.12883" lon="6.3364">
        <ele>970.8</ele>
        <time>2021-09-11T12:09:04Z</time>
      </trkpt>
      <trkpt lat="44.12886" lon="6.33639">
        <ele>971</ele>
        <time>2021-09-11T12:09:05Z</time>
      </trkpt>
      <trkpt lat="44.12886" lon="6.33639">
        <ele>971</ele>
        <time>2021-09-11T12:09:06Z</time>
      </trkpt>
      <trkpt lat="44.12887" lon="6.33638">
        <ele>971.1</ele>
        <time>2021-09-11T12:09:07Z</time>
      </trkpt>
      <trkpt lat="44.12888" lon="6.33638">
        <ele>971.2</ele>
        <time>2021-09-11T12:09:08Z</time>
      </trkpt>
      <trkpt lat="44.1289" lon="6.33638">
        <ele>971.3</ele>
        <time>2021-09-11T12:09:10Z</time>
      </trkpt>
      <trkpt lat="44.12891" lon="6.33638">
        <ele>971.4</ele>
        <time>2021-09-11T12:09:11Z</time>
      </trkpt>
      <trkpt lat="44.12892" lon="6.33638">
        <ele>971.4</ele>
        <time>2021-09-11T12:09:13Z</time>
      </trkpt>
      <trkpt lat="44.12892" lon="6.33638">
        <ele>971.5</ele>
        <time>2021-09-11T12:09:14Z</time>
      </trkpt>
      <trkpt lat="44.12892" lon="6.33638">
        <ele>971.5</ele>
        <time>2021-09-11T12:09:15Z</time>
      </trkpt>
      <trkpt lat="44.12892" lon="6.33638">
        <ele>971.5</ele>
        <time>2021-09-11T12:09:17Z</time>
      </trkpt>
      <trkpt lat="44.12894" lon="6.33638">
        <ele>971.6</ele>
        <time>2021-09-11T12:09:19Z</time>
      </trkpt>
      <trkpt lat="44.12895" lon="6.33638">
        <ele>971.6</ele>
        <time>2021-09-11T12:09:20Z</time>
      </trkpt>
      <trkpt lat="44.12896" lon="6.33638">
        <ele>971.7</ele>
        <time>2021-09-11T12:09:21Z</time>
      </trkpt>
      <trkpt lat="44.12898" lon="6.33639">
        <ele>971.7</ele>
        <time>2021-09-11T12:09:23Z</time>
      </trkpt>
      <trkpt lat="44.12902" lon="6.33642">
        <ele>971.8</ele>
        <time>2021-09-11T12:09:26Z</time>
      </trkpt>
      <trkpt lat="44.12904" lon="6.33644">
        <ele>971.8</ele>
        <time>2021-09-11T12:09:28Z</time>
      </trkpt>
      <trkpt lat="44.12905" lon="6.33645">
        <ele>971.8</ele>
        <time>2021-09-11T12:09:29Z</time>
      </trkpt>
      <trkpt lat="44.12905" lon="6.33645">
        <ele>971.8</ele>
        <time>2021-09-11T12:09:30Z</time>
      </trkpt>
      <trkpt lat="44.12906" lon="6.33645">
        <ele>971.8</ele>
        <time>2021-09-11T12:09:32Z</time>
      </trkpt>
      <trkpt lat="44.12906" lon="6.33645">
        <ele>971.8</ele>
        <time>2021-09-11T12:09:33Z</time>
      </trkpt>
      <trkpt lat="44.12906" lon="6.33645">
        <ele>971.8</ele>
        <time>2021-09-11T12:09:35Z</time>
      </trkpt>
      <trkpt lat="44.12906" lon="6.33645">
        <ele>971.8</ele>
        <time>2021-09-11T12:09:36Z</time>
      </trkpt>
      <trkpt lat="44.12906" lon="6.33645">
        <ele>971.8</ele>
        <time>2021-09-11T12:09:38Z</time>
      </trkpt>
      <trkpt lat="44.12907" lon="6.33645">
        <ele>971.8</ele>
        <time>2021-09-11T12:09:39Z</time>
      </trkpt>
      <trkpt lat="44.12909" lon="6.33647">
        <ele>971.8</ele>
        <time>2021-09-11T12:09:41Z</time>
      </trkpt>
      <trkpt lat="44.12917" lon="6.3365">
        <ele>971.5</ele>
        <time>2021-09-11T12:09:46Z</time>
      </trkpt>
      <trkpt lat="44.1292" lon="6.33649">
        <ele>971.4</ele>
        <time>2021-09-11T12:09:47Z</time>
      </trkpt>
      <trkpt lat="44.12925" lon="6.33647">
        <ele>971.3</ele>
        <time>2021-09-11T12:09:48Z</time>
      </trkpt>
      <trkpt lat="44.1293" lon="6.33644">
        <ele>971.3</ele>
        <time>2021-09-11T12:09:50Z</time>
      </trkpt>
      <trkpt lat="44.12933" lon="6.33643">
        <ele>971.3</ele>
        <time>2021-09-11T12:09:51Z</time>
      </trkpt>
      <trkpt lat="44.12937" lon="6.3364">
        <ele>971.3</ele>
        <time>2021-09-11T12:09:53Z</time>
      </trkpt>
      <trkpt lat="44.1294" lon="6.33637">
        <ele>971.3</ele>
        <time>2021-09-11T12:09:54Z</time>
      </trkpt>
      <trkpt lat="44.12941" lon="6.33635">
        <ele>971.3</ele>
        <time>2021-09-11T12:09:55Z</time>
      </trkpt>
      <trkpt lat="44.12945" lon="6.3363">
        <ele>971.3</ele>
        <time>2021-09-11T12:09:57Z</time>
      </trkpt>
      <trkpt lat="44.12949" lon="6.33627">
        <ele>971.3</ele>
        <time>2021-09-11T12:09:58Z</time>
      </trkpt>
      <trkpt lat="44.12952" lon="6.33625">
        <ele>971.2</ele>
        <time>2021-09-11T12:09:59Z</time>
      </trkpt>
      <trkpt lat="44.12956" lon="6.33622">
        <ele>971.2</ele>
        <time>2021-09-11T12:10:00Z</time>
      </trkpt>
      <trkpt lat="44.12962" lon="6.33616">
        <ele>971.1</ele>
        <time>2021-09-11T12:10:02Z</time>
      </trkpt>
      <trkpt lat="44.12965" lon="6.33613">
        <ele>971.1</ele>
        <time>2021-09-11T12:10:03Z</time>
      </trkpt>
      <trkpt lat="44.12967" lon="6.3361">
        <ele>971.1</ele>
        <time>2021-09-11T12:10:04Z</time>
      </trkpt>
      <trkpt lat="44.12972" lon="6.33604">
        <ele>971.1</ele>
        <time>2021-09-11T12:10:06Z</time>
      </trkpt>
      <trkpt lat="44.12975" lon="6.33602">
        <ele>971.1</ele>
        <time>2021-09-11T12:10:07Z</time>
      </trkpt>
      <trkpt lat="44.12979" lon="6.33601">
        <ele>971.1</ele>
        <time>2021-09-11T12:10:09Z</time>
      </trkpt>
      <trkpt lat="44.12979" lon="6.33603">
        <ele>971.1</ele>
        <time>2021-09-11T12:10:10Z</time>
      </trkpt>
      <trkpt lat="44.12981" lon="6.33604">
        <ele>971.2</ele>
        <time>2021-09-11T12:10:12Z</time>
      </trkpt>
      <trkpt lat="44.12985" lon="6.33603">
        <ele>971.2</ele>
        <time>2021-09-11T12:10:14Z</time>
      </trkpt>
      <trkpt lat="44.12989" lon="6.33602">
        <ele>971.3</ele>
        <time>2021-09-11T12:10:15Z</time>
      </trkpt>
      <trkpt lat="44.12999" lon="6.33604">
        <ele>971.5</ele>
        <time>2021-09-11T12:10:17Z</time>
      </trkpt>
      <trkpt lat="44.13004" lon="6.33606">
        <ele>971.6</ele>
        <time>2021-09-11T12:10:18Z</time>
      </trkpt>
      <trkpt lat="44.13011" lon="6.33608">
        <ele>971.3</ele>
        <time>2021-09-11T12:10:20Z</time>
      </trkpt>
      <trkpt lat="44.13016" lon="6.33607">
        <ele>970.8</ele>
        <time>2021-09-11T12:10:21Z</time>
      </trkpt>
      <trkpt lat="44.13021" lon="6.33607">
        <ele>970.3</ele>
        <time>2021-09-11T12:10:22Z</time>
      </trkpt>
      <trkpt lat="44.13026" lon="6.33608">
        <ele>969.8</ele>
        <time>2021-09-11T12:10:23Z</time>
      </trkpt>
      <trkpt lat="44.1303" lon="6.3361">
        <ele>969.2</ele>
        <time>2021-09-11T12:10:24Z</time>
      </trkpt>
      <trkpt lat="44.13039" lon="6.33618">
        <ele>967.9</ele>
        <time>2021-09-11T12:10:26Z</time>
      </trkpt>
      <trkpt lat="44.13048" lon="6.3363">
        <ele>966.5</ele>
        <time>2021-09-11T12:10:28Z</time>
      </trkpt>
      <trkpt lat="44.13053" lon="6.33636">
        <ele>965.9</ele>
        <time>2021-09-11T12:10:29Z</time>
      </trkpt>
      <trkpt lat="44.13064" lon="6.33646">
        <ele>965.1</ele>
        <time>2021-09-11T12:10:31Z</time>
      </trkpt>
      <trkpt lat="44.13072" lon="6.33646">
        <ele>964.8</ele>
        <time>2021-09-11T12:10:32Z</time>
      </trkpt>
      <trkpt lat="44.13087" lon="6.33645">
        <ele>964.6</ele>
        <time>2021-09-11T12:10:34Z</time>
      </trkpt>
      <trkpt lat="44.131" lon="6.33642">
        <ele>964.7</ele>
        <time>2021-09-11T12:10:36Z</time>
      </trkpt>
      <trkpt lat="44.13111" lon="6.33642">
        <ele>964.6</ele>
        <time>2021-09-11T12:10:38Z</time>
      </trkpt>
      <trkpt lat="44.13116" lon="6.33643">
        <ele>964.4</ele>
        <time>2021-09-11T12:10:39Z</time>
      </trkpt>
      <trkpt lat="44.13121" lon="6.33645">
        <ele>964.1</ele>
        <time>2021-09-11T12:10:40Z</time>
      </trkpt>
      <trkpt lat="44.13133" lon="6.33653">
        <ele>963.2</ele>
        <time>2021-09-11T12:10:42Z</time>
      </trkpt>
      <trkpt lat="44.13145" lon="6.33663">
        <ele>962</ele>
        <time>2021-09-11T12:10:44Z</time>
      </trkpt>
      <trkpt lat="44.1316" lon="6.33674">
        <ele>960.8</ele>
        <time>2021-09-11T12:10:46Z</time>
      </trkpt>
      <trkpt lat="44.13167" lon="6.33678">
        <ele>960.3</ele>
        <time>2021-09-11T12:10:47Z</time>
      </trkpt>
      <trkpt lat="44.13175" lon="6.33683">
        <ele>959.8</ele>
        <time>2021-09-11T12:10:48Z</time>
      </trkpt>
      <trkpt lat="44.13189" lon="6.33691">
        <ele>958.8</ele>
        <time>2021-09-11T12:10:50Z</time>
      </trkpt>
      <trkpt lat="44.13205" lon="6.33698">
        <ele>957.8</ele>
        <time>2021-09-11T12:10:52Z</time>
      </trkpt>
      <trkpt lat="44.13213" lon="6.337">
        <ele>957.1</ele>
        <time>2021-09-11T12:10:53Z</time>
      </trkpt>
      <trkpt lat="44.13228" lon="6.33698">
        <ele>955.7</ele>
        <time>2021-09-11T12:10:55Z</time>
      </trkpt>
      <trkpt lat="44.13235" lon="6.33695">
        <ele>954.9</ele>
        <time>2021-09-11T12:10:56Z</time>
      </trkpt>
      <trkpt lat="44.13255" lon="6.33691">
        <ele>953.2</ele>
        <time>2021-09-11T12:10:58Z</time>
      </trkpt>
      <trkpt lat="44.13275" lon="6.33687">
        <ele>951.8</ele>
        <time>2021-09-11T12:11:00Z</time>
      </trkpt>
      <trkpt lat="44.13296" lon="6.33685">
        <ele>950.5</ele>
        <time>2021-09-11T12:11:02Z</time>
      </trkpt>
      <trkpt lat="44.13307" lon="6.33685">
        <ele>949.8</ele>
        <time>2021-09-11T12:11:03Z</time>
      </trkpt>
      <trkpt lat="44.1333" lon="6.33687">
        <ele>948.4</ele>
        <time>2021-09-11T12:11:05Z</time>
      </trkpt>
      <trkpt lat="44.13341" lon="6.33688">
        <ele>947.7</ele>
        <time>2021-09-11T12:11:06Z</time>
      </trkpt>
      <trkpt lat="44.13362" lon="6.33688">
        <ele>946.1</ele>
        <time>2021-09-11T12:11:08Z</time>
      </trkpt>
      <trkpt lat="44.13382" lon="6.33686">
        <ele>944.3</ele>
        <time>2021-09-11T12:11:10Z</time>
      </trkpt>
      <trkpt lat="44.134" lon="6.33685">
        <ele>942.4</ele>
        <time>2021-09-11T12:11:12Z</time>
      </trkpt>
      <trkpt lat="44.13409" lon="6.33684">
        <ele>941.7</ele>
        <time>2021-09-11T12:11:13Z</time>
      </trkpt>
      <trkpt lat="44.13425" lon="6.33685">
        <ele>940.3</ele>
        <time>2021-09-11T12:11:15Z</time>
      </trkpt>
      <trkpt lat="44.13433" lon="6.33685">
        <ele>939.5</ele>
        <time>2021-09-11T12:11:16Z</time>
      </trkpt>
      <trkpt lat="44.1344" lon="6.33685">
        <ele>938.7</ele>
        <time>2021-09-11T12:11:17Z</time>
      </trkpt>
      <trkpt lat="44.13453" lon="6.33683">
        <ele>937.8</ele>
        <time>2021-09-11T12:11:19Z</time>
      </trkpt>
      <trkpt lat="44.13462" lon="6.33677">
        <ele>937</ele>
        <time>2021-09-11T12:11:21Z</time>
      </trkpt>
      <trkpt lat="44.13465" lon="6.33668">
        <ele>936.3</ele>
        <time>2021-09-11T12:11:23Z</time>
      </trkpt>
      <trkpt lat="44.13463" lon="6.3366">
        <ele>935.6</ele>
        <time>2021-09-11T12:11:25Z</time>
      </trkpt>
      <trkpt lat="44.13459" lon="6.33658">
        <ele>935.2</ele>
        <time>2021-09-11T12:11:26Z</time>
      </trkpt>
      <trkpt lat="44.13456" lon="6.33656">
        <ele>934.8</ele>
        <time>2021-09-11T12:11:27Z</time>
      </trkpt>
      <trkpt lat="44.13447" lon="6.33648">
        <ele>933.6</ele>
        <time>2021-09-11T12:11:29Z</time>
      </trkpt>
      <trkpt lat="44.13441" lon="6.33645">
        <ele>932.9</ele>
        <time>2021-09-11T12:11:30Z</time>
      </trkpt>
      <trkpt lat="44.13421" lon="6.3364">
        <ele>930.6</ele>
        <time>2021-09-11T12:11:32Z</time>
      </trkpt>
      <trkpt lat="44.13398" lon="6.33635">
        <ele>928</ele>
        <time>2021-09-11T12:11:34Z</time>
      </trkpt>
      <trkpt lat="44.13389" lon="6.33632">
        <ele>926.8</ele>
        <time>2021-09-11T12:11:35Z</time>
      </trkpt>
      <trkpt lat="44.1338" lon="6.33629">
        <ele>925.8</ele>
        <time>2021-09-11T12:11:36Z</time>
      </trkpt>
      <trkpt lat="44.13371" lon="6.33626">
        <ele>924.9</ele>
        <time>2021-09-11T12:11:37Z</time>
      </trkpt>
      <trkpt lat="44.13363" lon="6.33624">
        <ele>924</ele>
        <time>2021-09-11T12:11:38Z</time>
      </trkpt>
      <trkpt lat="44.13356" lon="6.33621">
        <ele>923.2</ele>
        <time>2021-09-11T12:11:39Z</time>
      </trkpt>
      <trkpt lat="44.13341" lon="6.33612">
        <ele>921.6</ele>
        <time>2021-09-11T12:11:41Z</time>
      </trkpt>
      <trkpt lat="44.13334" lon="6.33607">
        <ele>920.8</ele>
        <time>2021-09-11T12:11:42Z</time>
      </trkpt>
      <trkpt lat="44.13327" lon="6.33601">
        <ele>920</ele>
        <time>2021-09-11T12:11:43Z</time>
      </trkpt>
      <trkpt lat="44.13315" lon="6.3359">
        <ele>918.4</ele>
        <time>2021-09-11T12:11:45Z</time>
      </trkpt>
      <trkpt lat="44.13302" lon="6.33582">
        <ele>916.9</ele>
        <time>2021-09-11T12:11:47Z</time>
      </trkpt>
      <trkpt lat="44.13291" lon="6.33577">
        <ele>915.8</ele>
        <time>2021-09-11T12:11:49Z</time>
      </trkpt>
      <trkpt lat="44.13287" lon="6.33575">
        <ele>915.4</ele>
        <time>2021-09-11T12:11:50Z</time>
      </trkpt>
      <trkpt lat="44.13283" lon="6.33573">
        <ele>915.1</ele>
        <time>2021-09-11T12:11:51Z</time>
      </trkpt>
      <trkpt lat="44.1328" lon="6.33573">
        <ele>914.9</ele>
        <time>2021-09-11T12:11:53Z</time>
      </trkpt>
      <trkpt lat="44.13281" lon="6.33574">
        <ele>914.8</ele>
        <time>2021-09-11T12:11:54Z</time>
      </trkpt>
      <trkpt lat="44.13281" lon="6.33574">
        <ele>914.8</ele>
        <time>2021-09-11T12:11:55Z</time>
      </trkpt>
      <trkpt lat="44.13281" lon="6.33574">
        <ele>914.8</ele>
        <time>2021-09-11T12:11:57Z</time>
      </trkpt>
      <trkpt lat="44.13281" lon="6.33574">
        <ele>914.8</ele>
        <time>2021-09-11T12:11:59Z</time>
      </trkpt>
      <trkpt lat="44.13281" lon="6.33574">
        <ele>914.8</ele>
        <time>2021-09-11T12:12:00Z</time>
      </trkpt>
      <trkpt lat="44.1328" lon="6.33574">
        <ele>914.8</ele>
        <time>2021-09-11T12:12:02Z</time>
      </trkpt>
      <trkpt lat="44.13281" lon="6.33574">
        <ele>914.8</ele>
        <time>2021-09-11T12:12:03Z</time>
      </trkpt>
      <trkpt lat="44.13276" lon="6.33557">
        <ele>913.8</ele>
        <time>2021-09-11T12:12:31Z</time>
      </trkpt>
      <trkpt lat="44.13271" lon="6.33542">
        <ele>912.7</ele>
        <time>2021-09-11T12:12:33Z</time>
      </trkpt>
      <trkpt lat="44.13269" lon="6.33537">
        <ele>912.3</ele>
        <time>2021-09-11T12:12:34Z</time>
      </trkpt>
      <trkpt lat="44.13272" lon="6.33535">
        <ele>912</ele>
        <time>2021-09-11T12:12:35Z</time>
      </trkpt>
      <trkpt lat="44.13275" lon="6.33535">
        <ele>911.6</ele>
        <time>2021-09-11T12:12:37Z</time>
      </trkpt>
      <trkpt lat="44.13278" lon="6.33536">
        <ele>911.3</ele>
        <time>2021-09-11T12:12:38Z</time>
      </trkpt>
      <trkpt lat="44.13289" lon="6.3354">
        <ele>910.2</ele>
        <time>2021-09-11T12:12:39Z</time>
      </trkpt>
      <trkpt lat="44.13307" lon="6.33544">
        <ele>907.9</ele>
        <time>2021-09-11T12:12:41Z</time>
      </trkpt>
      <trkpt lat="44.13315" lon="6.33544">
        <ele>906.8</ele>
        <time>2021-09-11T12:12:42Z</time>
      </trkpt>
      <trkpt lat="44.13328" lon="6.33542">
        <ele>905</ele>
        <time>2021-09-11T12:12:44Z</time>
      </trkpt>
      <trkpt lat="44.13334" lon="6.33543">
        <ele>904.1</ele>
        <time>2021-09-11T12:12:45Z</time>
      </trkpt>
      <trkpt lat="44.13345" lon="6.33549">
        <ele>902.6</ele>
        <time>2021-09-11T12:12:47Z</time>
      </trkpt>
      <trkpt lat="44.13349" lon="6.33553">
        <ele>902</ele>
        <time>2021-09-11T12:12:48Z</time>
      </trkpt>
      <trkpt lat="44.1336" lon="6.33557">
        <ele>900.9</ele>
        <time>2021-09-11T12:12:50Z</time>
      </trkpt>
      <trkpt lat="44.1337" lon="6.33557">
        <ele>899.9</ele>
        <time>2021-09-11T12:12:52Z</time>
      </trkpt>
      <trkpt lat="44.13375" lon="6.33555">
        <ele>899.3</ele>
        <time>2021-09-11T12:12:53Z</time>
      </trkpt>
      <trkpt lat="44.1338" lon="6.33552">
        <ele>898.7</ele>
        <time>2021-09-11T12:12:54Z</time>
      </trkpt>
      <trkpt lat="44.13391" lon="6.33548">
        <ele>897.4</ele>
        <time>2021-09-11T12:12:56Z</time>
      </trkpt>
      <trkpt lat="44.13401" lon="6.33545">
        <ele>896.1</ele>
        <time>2021-09-11T12:12:58Z</time>
      </trkpt>
      <trkpt lat="44.13406" lon="6.33543">
        <ele>895.4</ele>
        <time>2021-09-11T12:12:59Z</time>
      </trkpt>
      <trkpt lat="44.13411" lon="6.33541">
        <ele>894.7</ele>
        <time>2021-09-11T12:13:00Z</time>
      </trkpt>
      <trkpt lat="44.13424" lon="6.33535">
        <ele>892.9</ele>
        <time>2021-09-11T12:13:02Z</time>
      </trkpt>
      <trkpt lat="44.13433" lon="6.33534">
        <ele>892</ele>
        <time>2021-09-11T12:13:03Z</time>
      </trkpt>
      <trkpt lat="44.13441" lon="6.33533">
        <ele>890.9</ele>
        <time>2021-09-11T12:13:04Z</time>
      </trkpt>
      <trkpt lat="44.13457" lon="6.33533">
        <ele>889</ele>
        <time>2021-09-11T12:13:06Z</time>
      </trkpt>
      <trkpt lat="44.13471" lon="6.33533">
        <ele>887.3</ele>
        <time>2021-09-11T12:13:08Z</time>
      </trkpt>
      <trkpt lat="44.13477" lon="6.33532">
        <ele>886.5</ele>
        <time>2021-09-11T12:13:09Z</time>
      </trkpt>
      <trkpt lat="44.13485" lon="6.33531">
        <ele>885.7</ele>
        <time>2021-09-11T12:13:10Z</time>
      </trkpt>
      <trkpt lat="44.135" lon="6.33529">
        <ele>884</ele>
        <time>2021-09-11T12:13:12Z</time>
      </trkpt>
      <trkpt lat="44.13508" lon="6.33528">
        <ele>883.2</ele>
        <time>2021-09-11T12:13:13Z</time>
      </trkpt>
      <trkpt lat="44.13519" lon="6.33527">
        <ele>881.9</ele>
        <time>2021-09-11T12:13:15Z</time>
      </trkpt>
      <trkpt lat="44.1353" lon="6.3353">
        <ele>880.5</ele>
        <time>2021-09-11T12:13:17Z</time>
      </trkpt>
      <trkpt lat="44.13542" lon="6.33534">
        <ele>879.1</ele>
        <time>2021-09-11T12:13:19Z</time>
      </trkpt>
      <trkpt lat="44.13552" lon="6.33537">
        <ele>877.9</ele>
        <time>2021-09-11T12:13:21Z</time>
      </trkpt>
      <trkpt lat="44.13559" lon="6.33537">
        <ele>877.2</ele>
        <time>2021-09-11T12:13:23Z</time>
      </trkpt>
      <trkpt lat="44.13561" lon="6.33538">
        <ele>877</ele>
        <time>2021-09-11T12:13:24Z</time>
      </trkpt>
      <trkpt lat="44.13567" lon="6.33539">
        <ele>876.6</ele>
        <time>2021-09-11T12:13:26Z</time>
      </trkpt>
      <trkpt lat="44.13574" lon="6.33541">
        <ele>876.1</ele>
        <time>2021-09-11T12:13:28Z</time>
      </trkpt>
      <trkpt lat="44.13579" lon="6.33545">
        <ele>875.8</ele>
        <time>2021-09-11T12:13:29Z</time>
      </trkpt>
      <trkpt lat="44.13583" lon="6.33545">
        <ele>875.5</ele>
        <time>2021-09-11T12:13:30Z</time>
      </trkpt>
      <trkpt lat="44.13591" lon="6.33554">
        <ele>874.8</ele>
        <time>2021-09-11T12:13:32Z</time>
      </trkpt>
      <trkpt lat="44.13597" lon="6.33565">
        <ele>874.1</ele>
        <time>2021-09-11T12:13:34Z</time>
      </trkpt>
      <trkpt lat="44.13599" lon="6.33573">
        <ele>873.7</ele>
        <time>2021-09-11T12:13:35Z</time>
      </trkpt>
      <trkpt lat="44.13601" lon="6.33581">
        <ele>873.3</ele>
        <time>2021-09-11T12:13:36Z</time>
      </trkpt>
      <trkpt lat="44.13604" lon="6.33601">
        <ele>872.3</ele>
        <time>2021-09-11T12:13:38Z</time>
      </trkpt>
      <trkpt lat="44.13605" lon="6.33613">
        <ele>871.7</ele>
        <time>2021-09-11T12:13:39Z</time>
      </trkpt>
      <trkpt lat="44.13605" lon="6.33639">
        <ele>870.6</ele>
        <time>2021-09-11T12:13:41Z</time>
      </trkpt>
      <trkpt lat="44.13604" lon="6.33652">
        <ele>870.2</ele>
        <time>2021-09-11T12:13:42Z</time>
      </trkpt>
      <trkpt lat="44.13607" lon="6.33677">
        <ele>869.8</ele>
        <time>2021-09-11T12:13:44Z</time>
      </trkpt>
      <trkpt lat="44.13617" lon="6.33691">
        <ele>869.6</ele>
        <time>2021-09-11T12:13:46Z</time>
      </trkpt>
      <trkpt lat="44.13633" lon="6.33698">
        <ele>869.7</ele>
        <time>2021-09-11T12:13:48Z</time>
      </trkpt>
      <trkpt lat="44.1364" lon="6.33702">
        <ele>869.7</ele>
        <time>2021-09-11T12:13:49Z</time>
      </trkpt>
      <trkpt lat="44.13651" lon="6.33714">
        <ele>869.8</ele>
        <time>2021-09-11T12:13:51Z</time>
      </trkpt>
      <trkpt lat="44.13659" lon="6.3373">
        <ele>869.9</ele>
        <time>2021-09-11T12:13:53Z</time>
      </trkpt>
      <trkpt lat="44.13661" lon="6.33738">
        <ele>869.9</ele>
        <time>2021-09-11T12:13:54Z</time>
      </trkpt>
      <trkpt lat="44.13663" lon="6.33748">
        <ele>869.9</ele>
        <time>2021-09-11T12:13:55Z</time>
      </trkpt>
      <trkpt lat="44.13663" lon="6.33757">
        <ele>869.8</ele>
        <time>2021-09-11T12:13:56Z</time>
      </trkpt>
      <trkpt lat="44.13658" lon="6.33773">
        <ele>869.7</ele>
        <time>2021-09-11T12:13:58Z</time>
      </trkpt>
      <trkpt lat="44.13654" lon="6.3378">
        <ele>869.7</ele>
        <time>2021-09-11T12:13:59Z</time>
      </trkpt>
      <trkpt lat="44.13648" lon="6.33786">
        <ele>869.7</ele>
        <time>2021-09-11T12:14:00Z</time>
      </trkpt>
      <trkpt lat="44.13637" lon="6.33799">
        <ele>869.8</ele>
        <time>2021-09-11T12:14:02Z</time>
      </trkpt>
      <trkpt lat="44.13632" lon="6.33806">
        <ele>869.8</ele>
        <time>2021-09-11T12:14:03Z</time>
      </trkpt>
      <trkpt lat="44.13628" lon="6.33812">
        <ele>869.9</ele>
        <time>2021-09-11T12:14:04Z</time>
      </trkpt>
      <trkpt lat="44.13625" lon="6.33817">
        <ele>869.9</ele>
        <time>2021-09-11T12:14:05Z</time>
      </trkpt>
      <trkpt lat="44.1362" lon="6.33823">
        <ele>870</ele>
        <time>2021-09-11T12:14:06Z</time>
      </trkpt>
      <trkpt lat="44.13611" lon="6.33832">
        <ele>870.1</ele>
        <time>2021-09-11T12:14:08Z</time>
      </trkpt>
      <trkpt lat="44.13602" lon="6.33841">
        <ele>870.2</ele>
        <time>2021-09-11T12:14:10Z</time>
      </trkpt>
      <trkpt lat="44.13597" lon="6.33845">
        <ele>870.2</ele>
        <time>2021-09-11T12:14:11Z</time>
      </trkpt>
      <trkpt lat="44.13592" lon="6.33849">
        <ele>870.3</ele>
        <time>2021-09-11T12:14:12Z</time>
      </trkpt>
      <trkpt lat="44.13582" lon="6.33856">
        <ele>870.4</ele>
        <time>2021-09-11T12:14:14Z</time>
      </trkpt>
      <trkpt lat="44.13577" lon="6.33858">
        <ele>870.5</ele>
        <time>2021-09-11T12:14:15Z</time>
      </trkpt>
      <trkpt lat="44.13566" lon="6.33863">
        <ele>870.6</ele>
        <time>2021-09-11T12:14:17Z</time>
      </trkpt>
      <trkpt lat="44.13562" lon="6.33866">
        <ele>870.6</ele>
        <time>2021-09-11T12:14:18Z</time>
      </trkpt>
      <trkpt lat="44.13554" lon="6.33872">
        <ele>870.7</ele>
        <time>2021-09-11T12:14:20Z</time>
      </trkpt>
      <trkpt lat="44.13547" lon="6.33877">
        <ele>870.7</ele>
        <time>2021-09-11T12:14:22Z</time>
      </trkpt>
      <trkpt lat="44.13543" lon="6.3388">
        <ele>870.8</ele>
        <time>2021-09-11T12:14:23Z</time>
      </trkpt>
      <trkpt lat="44.13537" lon="6.33885">
        <ele>870.8</ele>
        <time>2021-09-11T12:14:25Z</time>
      </trkpt>
      <trkpt lat="44.13529" lon="6.33892">
        <ele>870.7</ele>
        <time>2021-09-11T12:14:27Z</time>
      </trkpt>
      <trkpt lat="44.13525" lon="6.339">
        <ele>870.5</ele>
        <time>2021-09-11T12:14:28Z</time>
      </trkpt>
      <trkpt lat="44.1352" lon="6.33906">
        <ele>870.4</ele>
        <time>2021-09-11T12:14:30Z</time>
      </trkpt>
      <trkpt lat="44.13516" lon="6.33913">
        <ele>870.1</ele>
        <time>2021-09-11T12:14:32Z</time>
      </trkpt>
      <trkpt lat="44.1351" lon="6.33922">
        <ele>869.7</ele>
        <time>2021-09-11T12:14:34Z</time>
      </trkpt>
      <trkpt lat="44.13507" lon="6.33927">
        <ele>869.4</ele>
        <time>2021-09-11T12:14:35Z</time>
      </trkpt>
      <trkpt lat="44.13503" lon="6.33932">
        <ele>869.1</ele>
        <time>2021-09-11T12:14:36Z</time>
      </trkpt>
      <trkpt lat="44.13498" lon="6.33947">
        <ele>868.4</ele>
        <time>2021-09-11T12:14:38Z</time>
      </trkpt>
      <trkpt lat="44.13492" lon="6.33963">
        <ele>867.6</ele>
        <time>2021-09-11T12:14:40Z</time>
      </trkpt>
      <trkpt lat="44.13488" lon="6.33972">
        <ele>867.2</ele>
        <time>2021-09-11T12:14:41Z</time>
      </trkpt>
      <trkpt lat="44.13479" lon="6.33987">
        <ele>866.4</ele>
        <time>2021-09-11T12:14:43Z</time>
      </trkpt>
      <trkpt lat="44.13474" lon="6.33995">
        <ele>865.9</ele>
        <time>2021-09-11T12:14:44Z</time>
      </trkpt>
      <trkpt lat="44.13463" lon="6.34009">
        <ele>864.9</ele>
        <time>2021-09-11T12:14:46Z</time>
      </trkpt>
      <trkpt lat="44.13456" lon="6.34015">
        <ele>864.3</ele>
        <time>2021-09-11T12:14:47Z</time>
      </trkpt>
      <trkpt lat="44.1345" lon="6.34021">
        <ele>863.8</ele>
        <time>2021-09-11T12:14:48Z</time>
      </trkpt>
      <trkpt lat="44.13437" lon="6.34034">
        <ele>862.8</ele>
        <time>2021-09-11T12:14:50Z</time>
      </trkpt>
      <trkpt lat="44.13424" lon="6.34047">
        <ele>861.8</ele>
        <time>2021-09-11T12:14:52Z</time>
      </trkpt>
      <trkpt lat="44.13411" lon="6.34062">
        <ele>861</ele>
        <time>2021-09-11T12:14:54Z</time>
      </trkpt>
      <trkpt lat="44.13396" lon="6.34076">
        <ele>860.2</ele>
        <time>2021-09-11T12:14:56Z</time>
      </trkpt>
      <trkpt lat="44.13382" lon="6.34089">
        <ele>859.7</ele>
        <time>2021-09-11T12:14:58Z</time>
      </trkpt>
      <trkpt lat="44.13375" lon="6.34097">
        <ele>859.5</ele>
        <time>2021-09-11T12:14:59Z</time>
      </trkpt>
      <trkpt lat="44.13364" lon="6.34113">
        <ele>859.1</ele>
        <time>2021-09-11T12:15:01Z</time>
      </trkpt>
      <trkpt lat="44.13359" lon="6.34122">
        <ele>858.9</ele>
        <time>2021-09-11T12:15:02Z</time>
      </trkpt>
      <trkpt lat="44.13351" lon="6.3414">
        <ele>858.8</ele>
        <time>2021-09-11T12:15:04Z</time>
      </trkpt>
      <trkpt lat="44.13344" lon="6.34158">
        <ele>858.9</ele>
        <time>2021-09-11T12:15:06Z</time>
      </trkpt>
      <trkpt lat="44.13342" lon="6.34176">
        <ele>859</ele>
        <time>2021-09-11T12:15:08Z</time>
      </trkpt>
      <trkpt lat="44.13344" lon="6.34195">
        <ele>859.3</ele>
        <time>2021-09-11T12:15:10Z</time>
      </trkpt>
      <trkpt lat="44.13351" lon="6.34208">
        <ele>859.7</ele>
        <time>2021-09-11T12:15:12Z</time>
      </trkpt>
      <trkpt lat="44.13354" lon="6.34212">
        <ele>860</ele>
        <time>2021-09-11T12:15:13Z</time>
      </trkpt>
      <trkpt lat="44.13359" lon="6.34216">
        <ele>860.3</ele>
        <time>2021-09-11T12:15:14Z</time>
      </trkpt>
      <trkpt lat="44.13367" lon="6.34222">
        <ele>860.8</ele>
        <time>2021-09-11T12:15:16Z</time>
      </trkpt>
      <trkpt lat="44.13371" lon="6.34224">
        <ele>861.1</ele>
        <time>2021-09-11T12:15:17Z</time>
      </trkpt>
      <trkpt lat="44.13378" lon="6.34227">
        <ele>861.7</ele>
        <time>2021-09-11T12:15:19Z</time>
      </trkpt>
      <trkpt lat="44.13383" lon="6.34229">
        <ele>862.1</ele>
        <time>2021-09-11T12:15:21Z</time>
      </trkpt>
      <trkpt lat="44.13387" lon="6.34231">
        <ele>862.4</ele>
        <time>2021-09-11T12:15:23Z</time>
      </trkpt>
      <trkpt lat="44.1339" lon="6.34232">
        <ele>862.6</ele>
        <time>2021-09-11T12:15:24Z</time>
      </trkpt>
      <trkpt lat="44.1339" lon="6.3423">
        <ele>862.8</ele>
        <time>2021-09-11T12:15:26Z</time>
      </trkpt>
      <trkpt lat="44.13393" lon="6.34231">
        <ele>863</ele>
        <time>2021-09-11T12:15:27Z</time>
      </trkpt>
      <trkpt lat="44.13396" lon="6.34232">
        <ele>863.3</ele>
        <time>2021-09-11T12:15:28Z</time>
      </trkpt>
      <trkpt lat="44.134" lon="6.34233">
        <ele>863.6</ele>
        <time>2021-09-11T12:15:29Z</time>
      </trkpt>
      <trkpt lat="44.13401" lon="6.34233">
        <ele>863.6</ele>
        <time>2021-09-11T12:15:30Z</time>
      </trkpt>
      <trkpt lat="44.13405" lon="6.34233">
        <ele>864</ele>
        <time>2021-09-11T12:15:31Z</time>
      </trkpt>
      <trkpt lat="44.13409" lon="6.34233">
        <ele>864.3</ele>
        <time>2021-09-11T12:15:33Z</time>
      </trkpt>
      <trkpt lat="44.13412" lon="6.34233">
        <ele>864.5</ele>
        <time>2021-09-11T12:15:34Z</time>
      </trkpt>
      <trkpt lat="44.13415" lon="6.34235">
        <ele>864.8</ele>
        <time>2021-09-11T12:15:36Z</time>
      </trkpt>
      <trkpt lat="44.13417" lon="6.34236">
        <ele>864.9</ele>
        <time>2021-09-11T12:15:37Z</time>
      </trkpt>
      <trkpt lat="44.13418" lon="6.34238">
        <ele>865</ele>
        <time>2021-09-11T12:15:39Z</time>
      </trkpt>
      <trkpt lat="44.1342" lon="6.34242">
        <ele>865.3</ele>
        <time>2021-09-11T12:15:41Z</time>
      </trkpt>
      <trkpt lat="44.13419" lon="6.34243">
        <ele>865.4</ele>
        <time>2021-09-11T12:15:42Z</time>
      </trkpt>
      <trkpt lat="44.1342" lon="6.34245">
        <ele>865.5</ele>
        <time>2021-09-11T12:15:44Z</time>
      </trkpt>
      <trkpt lat="44.1342" lon="6.34246">
        <ele>865.6</ele>
        <time>2021-09-11T12:15:45Z</time>
      </trkpt>
      <trkpt lat="44.1342" lon="6.34246">
        <ele>865.6</ele>
        <time>2021-09-11T12:15:47Z</time>
      </trkpt>
      <trkpt lat="44.1342" lon="6.34246">
        <ele>865.6</ele>
        <time>2021-09-11T12:15:49Z</time>
      </trkpt>
      <trkpt lat="44.1342" lon="6.34245">
        <ele>865.6</ele>
        <time>2021-09-11T12:15:50Z</time>
      </trkpt>
      <trkpt lat="44.1342" lon="6.34244">
        <ele>865.7</ele>
        <time>2021-09-11T12:15:52Z</time>
      </trkpt>
      <trkpt lat="44.13426" lon="6.34242">
        <ele>866.1</ele>
        <time>2021-09-11T12:16:08Z</time>
      </trkpt>
      <trkpt lat="44.1343" lon="6.34248">
        <ele>866.6</ele>
        <time>2021-09-11T12:16:10Z</time>
      </trkpt>
      <trkpt lat="44.13432" lon="6.34251">
        <ele>866.8</ele>
        <time>2021-09-11T12:16:11Z</time>
      </trkpt>
      <trkpt lat="44.13434" lon="6.34254">
        <ele>867</ele>
        <time>2021-09-11T12:16:12Z</time>
      </trkpt>
      <trkpt lat="44.13438" lon="6.34257">
        <ele>867.4</ele>
        <time>2021-09-11T12:16:13Z</time>
      </trkpt>
      <trkpt lat="44.1344" lon="6.34259">
        <ele>867.5</ele>
        <time>2021-09-11T12:16:14Z</time>
      </trkpt>
      <trkpt lat="44.13444" lon="6.3426">
        <ele>867.9</ele>
        <time>2021-09-11T12:16:16Z</time>
      </trkpt>
      <trkpt lat="44.13448" lon="6.34261">
        <ele>868.1</ele>
        <time>2021-09-11T12:16:17Z</time>
      </trkpt>
      <trkpt lat="44.13451" lon="6.34264">
        <ele>868.4</ele>
        <time>2021-09-11T12:16:18Z</time>
      </trkpt>
      <trkpt lat="44.13452" lon="6.34265">
        <ele>868.5</ele>
        <time>2021-09-11T12:16:19Z</time>
      </trkpt>
      <trkpt lat="44.13453" lon="6.34268">
        <ele>868.7</ele>
        <time>2021-09-11T12:16:21Z</time>
      </trkpt>
      <trkpt lat="44.13452" lon="6.3427">
        <ele>868.8</ele>
        <time>2021-09-11T12:16:22Z</time>
      </trkpt>
      <trkpt lat="44.13452" lon="6.34272">
        <ele>868.9</ele>
        <time>2021-09-11T12:16:23Z</time>
      </trkpt>
      <trkpt lat="44.13452" lon="6.34273">
        <ele>869.6</ele>
        <time>2021-09-11T12:16:24Z</time>
      </trkpt>
      <trkpt lat="44.13451" lon="6.34277">
        <ele>869.8</ele>
        <time>2021-09-11T12:16:26Z</time>
      </trkpt>
      <trkpt lat="44.1345" lon="6.34278">
        <ele>869.9</ele>
        <time>2021-09-11T12:16:27Z</time>
      </trkpt>
      <trkpt lat="44.13449" lon="6.34279">
        <ele>870</ele>
        <time>2021-09-11T12:16:28Z</time>
      </trkpt>
      <trkpt lat="44.13449" lon="6.3428">
        <ele>870.1</ele>
        <time>2021-09-11T12:16:29Z</time>
      </trkpt>
      <trkpt lat="44.13448" lon="6.34281">
        <ele>870.1</ele>
        <time>2021-09-11T12:16:30Z</time>
      </trkpt>
      <trkpt lat="44.13448" lon="6.34282">
        <ele>870.2</ele>
        <time>2021-09-11T12:16:31Z</time>
      </trkpt>
      <trkpt lat="44.13448" lon="6.34284">
        <ele>870.2</ele>
        <time>2021-09-11T12:16:32Z</time>
      </trkpt>
      <trkpt lat="44.13447" lon="6.3429">
        <ele>870.5</ele>
        <time>2021-09-11T12:16:34Z</time>
      </trkpt>
      <trkpt lat="44.13448" lon="6.34292">
        <ele>870.6</ele>
        <time>2021-09-11T12:16:35Z</time>
      </trkpt>
      <trkpt lat="44.13448" lon="6.34294">
        <ele>870.7</ele>
        <time>2021-09-11T12:16:36Z</time>
      </trkpt>
      <trkpt lat="44.13449" lon="6.343">
        <ele>870.9</ele>
        <time>2021-09-11T12:16:38Z</time>
      </trkpt>
      <trkpt lat="44.13449" lon="6.34302">
        <ele>871</ele>
        <time>2021-09-11T12:16:39Z</time>
      </trkpt>
      <trkpt lat="44.13449" lon="6.34307">
        <ele>871.1</ele>
        <time>2021-09-11T12:16:41Z</time>
      </trkpt>
      <trkpt lat="44.1345" lon="6.34312">
        <ele>871.2</ele>
        <time>2021-09-11T12:16:43Z</time>
      </trkpt>
      <trkpt lat="44.1345" lon="6.34315">
        <ele>871.3</ele>
        <time>2021-09-11T12:16:44Z</time>
      </trkpt>
      <trkpt lat="44.13449" lon="6.34321">
        <ele>871.4</ele>
        <time>2021-09-11T12:16:46Z</time>
      </trkpt>
      <trkpt lat="44.13448" lon="6.34325">
        <ele>871.5</ele>
        <time>2021-09-11T12:16:47Z</time>
      </trkpt>
      <trkpt lat="44.13446" lon="6.34328">
        <ele>871.6</ele>
        <time>2021-09-11T12:16:48Z</time>
      </trkpt>
      <trkpt lat="44.13444" lon="6.34334">
        <ele>871.6</ele>
        <time>2021-09-11T12:16:50Z</time>
      </trkpt>
      <trkpt lat="44.13441" lon="6.34337">
        <ele>871.7</ele>
        <time>2021-09-11T12:16:52Z</time>
      </trkpt>
      <trkpt lat="44.1344" lon="6.34339">
        <ele>871.7</ele>
        <time>2021-09-11T12:16:53Z</time>
      </trkpt>
      <trkpt lat="44.13437" lon="6.34343">
        <ele>871.7</ele>
        <time>2021-09-11T12:16:55Z</time>
      </trkpt>
      <trkpt lat="44.13434" lon="6.34347">
        <ele>871.8</ele>
        <time>2021-09-11T12:16:56Z</time>
      </trkpt>
      <trkpt lat="44.13432" lon="6.34352">
        <ele>871.8</ele>
        <time>2021-09-11T12:16:58Z</time>
      </trkpt>
      <trkpt lat="44.1343" lon="6.34356">
        <ele>871.9</ele>
        <time>2021-09-11T12:16:59Z</time>
      </trkpt>
      <trkpt lat="44.13428" lon="6.34361">
        <ele>871.9</ele>
        <time>2021-09-11T12:17:00Z</time>
      </trkpt>
      <trkpt lat="44.13424" lon="6.34366">
        <ele>872</ele>
        <time>2021-09-11T12:17:01Z</time>
      </trkpt>
      <trkpt lat="44.1342" lon="6.34371">
        <ele>872.2</ele>
        <time>2021-09-11T12:17:03Z</time>
      </trkpt>
      <trkpt lat="44.13415" lon="6.34379">
        <ele>872.5</ele>
        <time>2021-09-11T12:17:05Z</time>
      </trkpt>
      <trkpt lat="44.13413" lon="6.34384">
        <ele>872.7</ele>
        <time>2021-09-11T12:17:06Z</time>
      </trkpt>
      <trkpt lat="44.13411" lon="6.3439">
        <ele>872.9</ele>
        <time>2021-09-11T12:17:08Z</time>
      </trkpt>
      <trkpt lat="44.13409" lon="6.34394">
        <ele>873</ele>
        <time>2021-09-11T12:17:09Z</time>
      </trkpt>
      <trkpt lat="44.13407" lon="6.34399">
        <ele>873.2</ele>
        <time>2021-09-11T12:17:10Z</time>
      </trkpt>
      <trkpt lat="44.13405" lon="6.34404">
        <ele>873.4</ele>
        <time>2021-09-11T12:17:11Z</time>
      </trkpt>
      <trkpt lat="44.13403" lon="6.34407">
        <ele>873.5</ele>
        <time>2021-09-11T12:17:12Z</time>
      </trkpt>
      <trkpt lat="44.13401" lon="6.34413">
        <ele>873.7</ele>
        <time>2021-09-11T12:17:14Z</time>
      </trkpt>
      <trkpt lat="44.13398" lon="6.34418">
        <ele>873.9</ele>
        <time>2021-09-11T12:17:15Z</time>
      </trkpt>
      <trkpt lat="44.13397" lon="6.34419">
        <ele>874</ele>
        <time>2021-09-11T12:17:16Z</time>
      </trkpt>
      <trkpt lat="44.13394" lon="6.34423">
        <ele>874.1</ele>
        <time>2021-09-11T12:17:17Z</time>
      </trkpt>
      <trkpt lat="44.13393" lon="6.34424">
        <ele>874.2</ele>
        <time>2021-09-11T12:17:18Z</time>
      </trkpt>
      <trkpt lat="44.1339" lon="6.34428">
        <ele>874.4</ele>
        <time>2021-09-11T12:17:19Z</time>
      </trkpt>
      <trkpt lat="44.13387" lon="6.34433">
        <ele>874.6</ele>
        <time>2021-09-11T12:17:21Z</time>
      </trkpt>
      <trkpt lat="44.13384" lon="6.34436">
        <ele>874.8</ele>
        <time>2021-09-11T12:17:22Z</time>
      </trkpt>
      <trkpt lat="44.1338" lon="6.34439">
        <ele>875</ele>
        <time>2021-09-11T12:17:24Z</time>
      </trkpt>
      <trkpt lat="44.13377" lon="6.34441">
        <ele>875.1</ele>
        <time>2021-09-11T12:17:25Z</time>
      </trkpt>
      <trkpt lat="44.13374" lon="6.34444">
        <ele>875.2</ele>
        <time>2021-09-11T12:17:26Z</time>
      </trkpt>
      <trkpt lat="44.13372" lon="6.34446">
        <ele>875.3</ele>
        <time>2021-09-11T12:17:27Z</time>
      </trkpt>
      <trkpt lat="44.13368" lon="6.34451">
        <ele>875.3</ele>
        <time>2021-09-11T12:17:29Z</time>
      </trkpt>
      <trkpt lat="44.13365" lon="6.34454">
        <ele>875.2</ele>
        <time>2021-09-11T12:17:31Z</time>
      </trkpt>
      <trkpt lat="44.13362" lon="6.34459">
        <ele>875.1</ele>
        <time>2021-09-11T12:17:32Z</time>
      </trkpt>
      <trkpt lat="44.13359" lon="6.34464">
        <ele>875</ele>
        <time>2021-09-11T12:17:33Z</time>
      </trkpt>
      <trkpt lat="44.13354" lon="6.34471">
        <ele>874.7</ele>
        <time>2021-09-11T12:17:34Z</time>
      </trkpt>
      <trkpt lat="44.1335" lon="6.34477">
        <ele>874.6</ele>
        <time>2021-09-11T12:17:35Z</time>
      </trkpt>
      <trkpt lat="44.13344" lon="6.34488">
        <ele>874.4</ele>
        <time>2021-09-11T12:17:37Z</time>
      </trkpt>
      <trkpt lat="44.13337" lon="6.345">
        <ele>874.3</ele>
        <time>2021-09-11T12:17:39Z</time>
      </trkpt>
      <trkpt lat="44.13329" lon="6.34513">
        <ele>874.3</ele>
        <time>2021-09-11T12:17:41Z</time>
      </trkpt>
      <trkpt lat="44.13322" lon="6.34526">
        <ele>874.3</ele>
        <time>2021-09-11T12:17:43Z</time>
      </trkpt>
      <trkpt lat="44.13318" lon="6.34532">
        <ele>874.3</ele>
        <time>2021-09-11T12:17:44Z</time>
      </trkpt>
      <trkpt lat="44.13308" lon="6.34539">
        <ele>874.2</ele>
        <time>2021-09-11T12:17:46Z</time>
      </trkpt>
      <trkpt lat="44.13303" lon="6.34542">
        <ele>874.2</ele>
        <time>2021-09-11T12:17:47Z</time>
      </trkpt>
      <trkpt lat="44.13297" lon="6.34544">
        <ele>874.1</ele>
        <time>2021-09-11T12:17:48Z</time>
      </trkpt>
      <trkpt lat="44.13292" lon="6.34545">
        <ele>873.9</ele>
        <time>2021-09-11T12:17:49Z</time>
      </trkpt>
      <trkpt lat="44.1328" lon="6.34543">
        <ele>873.8</ele>
        <time>2021-09-11T12:17:51Z</time>
      </trkpt>
      <trkpt lat="44.13269" lon="6.34536">
        <ele>873.9</ele>
        <time>2021-09-11T12:17:53Z</time>
      </trkpt>
      <trkpt lat="44.13258" lon="6.34534">
        <ele>874.8</ele>
        <time>2021-09-11T12:17:55Z</time>
      </trkpt>
      <trkpt lat="44.13254" lon="6.34537">
        <ele>875.1</ele>
        <time>2021-09-11T12:17:56Z</time>
      </trkpt>
      <trkpt lat="44.1325" lon="6.34542">
        <ele>875.6</ele>
        <time>2021-09-11T12:17:58Z</time>
      </trkpt>
      <trkpt lat="44.13248" lon="6.34546">
        <ele>875.9</ele>
        <time>2021-09-11T12:18:00Z</time>
      </trkpt>
      <trkpt lat="44.13248" lon="6.34548">
        <ele>876</ele>
        <time>2021-09-11T12:18:01Z</time>
      </trkpt>
      <trkpt lat="44.13248" lon="6.34554">
        <ele>876.4</ele>
        <time>2021-09-11T12:18:03Z</time>
      </trkpt>
      <trkpt lat="44.13248" lon="6.34555">
        <ele>876.4</ele>
        <time>2021-09-11T12:18:04Z</time>
      </trkpt>
      <trkpt lat="44.13247" lon="6.34559">
        <ele>876.7</ele>
        <time>2021-09-11T12:18:06Z</time>
      </trkpt>
      <trkpt lat="44.13247" lon="6.34563">
        <ele>876.9</ele>
        <time>2021-09-11T12:18:07Z</time>
      </trkpt>
      <trkpt lat="44.13247" lon="6.34565">
        <ele>877</ele>
        <time>2021-09-11T12:18:09Z</time>
      </trkpt>
      <trkpt lat="44.1325" lon="6.34568">
        <ele>877.2</ele>
        <time>2021-09-11T12:18:10Z</time>
      </trkpt>
      <trkpt lat="44.1325" lon="6.34569">
        <ele>877.3</ele>
        <time>2021-09-11T12:18:11Z</time>
      </trkpt>
      <trkpt lat="44.13251" lon="6.34571">
        <ele>877.4</ele>
        <time>2021-09-11T12:18:12Z</time>
      </trkpt>
      <trkpt lat="44.13253" lon="6.34572">
        <ele>877.5</ele>
        <time>2021-09-11T12:18:13Z</time>
      </trkpt>
      <trkpt lat="44.13254" lon="6.34573">
        <ele>877.6</ele>
        <time>2021-09-11T12:18:14Z</time>
      </trkpt>
      <trkpt lat="44.13256" lon="6.34575">
        <ele>877.8</ele>
        <time>2021-09-11T12:18:16Z</time>
      </trkpt>
      <trkpt lat="44.13259" lon="6.34578">
        <ele>878</ele>
        <time>2021-09-11T12:18:17Z</time>
      </trkpt>
      <trkpt lat="44.13262" lon="6.34581">
        <ele>878.2</ele>
        <time>2021-09-11T12:18:19Z</time>
      </trkpt>
      <trkpt lat="44.13263" lon="6.34583">
        <ele>878.3</ele>
        <time>2021-09-11T12:18:20Z</time>
      </trkpt>
      <trkpt lat="44.13263" lon="6.34584">
        <ele>878.3</ele>
        <time>2021-09-11T12:18:22Z</time>
      </trkpt>
      <trkpt lat="44.13266" lon="6.34587">
        <ele>878.5</ele>
        <time>2021-09-11T12:18:24Z</time>
      </trkpt>
      <trkpt lat="44.13269" lon="6.3459">
        <ele>878.6</ele>
        <time>2021-09-11T12:18:26Z</time>
      </trkpt>
      <trkpt lat="44.13272" lon="6.34594">
        <ele>878.8</ele>
        <time>2021-09-11T12:18:28Z</time>
      </trkpt>
      <trkpt lat="44.13274" lon="6.34596">
        <ele>879</ele>
        <time>2021-09-11T12:18:29Z</time>
      </trkpt>
      <trkpt lat="44.13276" lon="6.34597">
        <ele>879</ele>
        <time>2021-09-11T12:18:30Z</time>
      </trkpt>
      <trkpt lat="44.13277" lon="6.34598">
        <ele>879.1</ele>
        <time>2021-09-11T12:18:31Z</time>
      </trkpt>
      <trkpt lat="44.13278" lon="6.34599">
        <ele>879.1</ele>
        <time>2021-09-11T12:18:32Z</time>
      </trkpt>
      <trkpt lat="44.13282" lon="6.34603">
        <ele>879.3</ele>
        <time>2021-09-11T12:18:34Z</time>
      </trkpt>
      <trkpt lat="44.13282" lon="6.34605">
        <ele>879.3</ele>
        <time>2021-09-11T12:18:35Z</time>
      </trkpt>
      <trkpt lat="44.13283" lon="6.34607">
        <ele>879.2</ele>
        <time>2021-09-11T12:18:36Z</time>
      </trkpt>
      <trkpt lat="44.13288" lon="6.3461">
        <ele>878.9</ele>
        <time>2021-09-11T12:18:38Z</time>
      </trkpt>
      <trkpt lat="44.1329" lon="6.34612">
        <ele>878.7</ele>
        <time>2021-09-11T12:18:39Z</time>
      </trkpt>
      <trkpt lat="44.13291" lon="6.34613">
        <ele>878.6</ele>
        <time>2021-09-11T12:18:40Z</time>
      </trkpt>
      <trkpt lat="44.13295" lon="6.34615">
        <ele>878.3</ele>
        <time>2021-09-11T12:18:41Z</time>
      </trkpt>
      <trkpt lat="44.13302" lon="6.34615">
        <ele>877.7</ele>
        <time>2021-09-11T12:18:43Z</time>
      </trkpt>
      <trkpt lat="44.13307" lon="6.34614">
        <ele>877.3</ele>
        <time>2021-09-11T12:18:44Z</time>
      </trkpt>
      <trkpt lat="44.1331" lon="6.34612">
        <ele>877.1</ele>
        <time>2021-09-11T12:18:45Z</time>
      </trkpt>
      <trkpt lat="44.13316" lon="6.34607">
        <ele>876.7</ele>
        <time>2021-09-11T12:18:47Z</time>
      </trkpt>
      <trkpt lat="44.13319" lon="6.34603">
        <ele>876.5</ele>
        <time>2021-09-11T12:18:49Z</time>
      </trkpt>
      <trkpt lat="44.13321" lon="6.346">
        <ele>876.4</ele>
        <time>2021-09-11T12:18:50Z</time>
      </trkpt>
      <trkpt lat="44.13322" lon="6.34598">
        <ele>876.3</ele>
        <time>2021-09-11T12:18:51Z</time>
      </trkpt>
      <trkpt lat="44.13324" lon="6.34595">
        <ele>876.3</ele>
        <time>2021-09-11T12:18:53Z</time>
      </trkpt>
      <trkpt lat="44.13323" lon="6.34596">
        <ele>876.3</ele>
        <time>2021-09-11T12:18:55Z</time>
      </trkpt>
      <trkpt lat="44.13323" lon="6.34597">
        <ele>876.3</ele>
        <time>2021-09-11T12:18:57Z</time>
      </trkpt>
      <trkpt lat="44.13323" lon="6.34597">
        <ele>876.3</ele>
        <time>2021-09-11T12:18:58Z</time>
      </trkpt>
      <trkpt lat="44.13323" lon="6.34597">
        <ele>876.3</ele>
        <time>2021-09-11T12:18:59Z</time>
      </trkpt>
      <trkpt lat="44.13324" lon="6.34596">
        <ele>876.3</ele>
        <time>2021-09-11T12:19:01Z</time>
      </trkpt>
      <trkpt lat="44.13324" lon="6.34595">
        <ele>876.3</ele>
        <time>2021-09-11T12:19:02Z</time>
      </trkpt>
      <trkpt lat="44.13325" lon="6.34594">
        <ele>876.3</ele>
        <time>2021-09-11T12:19:04Z</time>
      </trkpt>
      <trkpt lat="44.13331" lon="6.34592">
        <ele>876.3</ele>
        <time>2021-09-11T12:19:07Z</time>
      </trkpt>
      <trkpt lat="44.13335" lon="6.3459">
        <ele>876.4</ele>
        <time>2021-09-11T12:19:09Z</time>
      </trkpt>
      <trkpt lat="44.1334" lon="6.34588">
        <ele>876.5</ele>
        <time>2021-09-11T12:19:11Z</time>
      </trkpt>
      <trkpt lat="44.13342" lon="6.34587">
        <ele>876.5</ele>
        <time>2021-09-11T12:19:12Z</time>
      </trkpt>
      <trkpt lat="44.13345" lon="6.34585">
        <ele>876.6</ele>
        <time>2021-09-11T12:19:14Z</time>
      </trkpt>
      <trkpt lat="44.13346" lon="6.34585">
        <ele>876.6</ele>
        <time>2021-09-11T12:19:15Z</time>
      </trkpt>
      <trkpt lat="44.13347" lon="6.34584">
        <ele>876.6</ele>
        <time>2021-09-11T12:19:16Z</time>
      </trkpt>
      <trkpt lat="44.13347" lon="6.34584">
        <ele>876.6</ele>
        <time>2021-09-11T12:19:17Z</time>
      </trkpt>
      <trkpt lat="44.1335" lon="6.34585">
        <ele>876.6</ele>
        <time>2021-09-11T12:19:19Z</time>
      </trkpt>
      <trkpt lat="44.13351" lon="6.34586">
        <ele>876.7</ele>
        <time>2021-09-11T12:19:20Z</time>
      </trkpt>
      <trkpt lat="44.13354" lon="6.34588">
        <ele>876.7</ele>
        <time>2021-09-11T12:19:22Z</time>
      </trkpt>
      <trkpt lat="44.13356" lon="6.34591">
        <ele>876.8</ele>
        <time>2021-09-11T12:19:23Z</time>
      </trkpt>
      <trkpt lat="44.13358" lon="6.34593">
        <ele>876.8</ele>
        <time>2021-09-11T12:19:25Z</time>
      </trkpt>
      <trkpt lat="44.13359" lon="6.34593">
        <ele>876.8</ele>
        <time>2021-09-11T12:19:26Z</time>
      </trkpt>
      <trkpt lat="44.13359" lon="6.34593">
        <ele>876.8</ele>
        <time>2021-09-11T12:19:28Z</time>
      </trkpt>
      <trkpt lat="44.13359" lon="6.34593">
        <ele>876.8</ele>
        <time>2021-09-11T12:19:30Z</time>
      </trkpt>
      <trkpt lat="44.1336" lon="6.34594">
        <ele>876.8</ele>
        <time>2021-09-11T12:19:31Z</time>
      </trkpt>
      <trkpt lat="44.13361" lon="6.34595">
        <ele>876.9</ele>
        <time>2021-09-11T12:19:33Z</time>
      </trkpt>
      <trkpt lat="44.13365" lon="6.34598">
        <ele>876.9</ele>
        <time>2021-09-11T12:19:35Z</time>
      </trkpt>
      <trkpt lat="44.13368" lon="6.346">
        <ele>877</ele>
        <time>2021-09-11T12:19:36Z</time>
      </trkpt>
      <trkpt lat="44.13371" lon="6.34602">
        <ele>877.1</ele>
        <time>2021-09-11T12:19:45Z</time>
      </trkpt>
      <trkpt lat="44.13374" lon="6.34604">
        <ele>877.1</ele>
        <time>2021-09-11T12:19:46Z</time>
      </trkpt>
      <trkpt lat="44.13377" lon="6.34606">
        <ele>877.1</ele>
        <time>2021-09-11T12:19:47Z</time>
      </trkpt>
      <trkpt lat="44.13381" lon="6.34609">
        <ele>877.2</ele>
        <time>2021-09-11T12:19:49Z</time>
      </trkpt>
      <trkpt lat="44.13384" lon="6.34612">
        <ele>877.3</ele>
        <time>2021-09-11T12:19:51Z</time>
      </trkpt>
      <trkpt lat="44.13388" lon="6.34614">
        <ele>877.3</ele>
        <time>2021-09-11T12:19:53Z</time>
      </trkpt>
      <trkpt lat="44.1339" lon="6.34615">
        <ele>877.3</ele>
        <time>2021-09-11T12:19:54Z</time>
      </trkpt>
      <trkpt lat="44.13391" lon="6.34616">
        <ele>877.4</ele>
        <time>2021-09-11T12:19:55Z</time>
      </trkpt>
      <trkpt lat="44.13393" lon="6.34619">
        <ele>877.4</ele>
        <time>2021-09-11T12:19:57Z</time>
      </trkpt>
      <trkpt lat="44.13394" lon="6.3462">
        <ele>877.4</ele>
        <time>2021-09-11T12:19:58Z</time>
      </trkpt>
      <trkpt lat="44.13395" lon="6.34621">
        <ele>877.5</ele>
        <time>2021-09-11T12:19:59Z</time>
      </trkpt>
      <trkpt lat="44.13396" lon="6.34622">
        <ele>877.5</ele>
        <time>2021-09-11T12:20:00Z</time>
      </trkpt>
      <trkpt lat="44.13398" lon="6.34622">
        <ele>877.5</ele>
        <time>2021-09-11T12:20:02Z</time>
      </trkpt>
      <trkpt lat="44.134" lon="6.34622">
        <ele>877.5</ele>
        <time>2021-09-11T12:20:03Z</time>
      </trkpt>
      <trkpt lat="44.13401" lon="6.34623">
        <ele>877.6</ele>
        <time>2021-09-11T12:20:04Z</time>
      </trkpt>
      <trkpt lat="44.13403" lon="6.34624">
        <ele>877.6</ele>
        <time>2021-09-11T12:20:06Z</time>
      </trkpt>
      <trkpt lat="44.13405" lon="6.34624">
        <ele>877.6</ele>
        <time>2021-09-11T12:20:07Z</time>
      </trkpt>
      <trkpt lat="44.13406" lon="6.34625">
        <ele>877.7</ele>
        <time>2021-09-11T12:20:08Z</time>
      </trkpt>
      <trkpt lat="44.1341" lon="6.34625">
        <ele>877.7</ele>
        <time>2021-09-11T12:20:10Z</time>
      </trkpt>
      <trkpt lat="44.13413" lon="6.34627">
        <ele>877.8</ele>
        <time>2021-09-11T12:20:12Z</time>
      </trkpt>
      <trkpt lat="44.13416" lon="6.34627">
        <ele>877.8</ele>
        <time>2021-09-11T12:20:13Z</time>
      </trkpt>
      <trkpt lat="44.13417" lon="6.34628">
        <ele>877.8</ele>
        <time>2021-09-11T12:20:14Z</time>
      </trkpt>
      <trkpt lat="44.13421" lon="6.34629">
        <ele>877.9</ele>
        <time>2021-09-11T12:20:16Z</time>
      </trkpt>
      <trkpt lat="44.13422" lon="6.34631">
        <ele>877.9</ele>
        <time>2021-09-11T12:20:17Z</time>
      </trkpt>
      <trkpt lat="44.13423" lon="6.34633">
        <ele>877.9</ele>
        <time>2021-09-11T12:20:19Z</time>
      </trkpt>
      <trkpt lat="44.13424" lon="6.34634">
        <ele>877.9</ele>
        <time>2021-09-11T12:20:20Z</time>
      </trkpt>
      <trkpt lat="44.13424" lon="6.34634">
        <ele>877.9</ele>
        <time>2021-09-11T12:20:22Z</time>
      </trkpt>
      <trkpt lat="44.13424" lon="6.34634">
        <ele>877.9</ele>
        <time>2021-09-11T12:20:23Z</time>
      </trkpt>
      <trkpt lat="44.13424" lon="6.34634">
        <ele>877.9</ele>
        <time>2021-09-11T12:20:24Z</time>
      </trkpt>
      <trkpt lat="44.13425" lon="6.34635">
        <ele>877.9</ele>
        <time>2021-09-11T12:20:26Z</time>
      </trkpt>
      <trkpt lat="44.13425" lon="6.34636">
        <ele>877.9</ele>
        <time>2021-09-11T12:20:27Z</time>
      </trkpt>
      <trkpt lat="44.13426" lon="6.34638">
        <ele>877.9</ele>
        <time>2021-09-11T12:20:28Z</time>
      </trkpt>
      <trkpt lat="44.13426" lon="6.3464">
        <ele>878</ele>
        <time>2021-09-11T12:20:30Z</time>
      </trkpt>
      <trkpt lat="44.13428" lon="6.34646">
        <ele>878</ele>
        <time>2021-09-11T12:20:32Z</time>
      </trkpt>
      <trkpt lat="44.13429" lon="6.34651">
        <ele>878</ele>
        <time>2021-09-11T12:20:33Z</time>
      </trkpt>
      <trkpt lat="44.13429" lon="6.34656">
        <ele>878</ele>
        <time>2021-09-11T12:20:35Z</time>
      </trkpt>
      <trkpt lat="44.13429" lon="6.34664">
        <ele>878</ele>
        <time>2021-09-11T12:20:37Z</time>
      </trkpt>
      <trkpt lat="44.1343" lon="6.34669">
        <ele>879</ele>
        <time>2021-09-11T12:20:38Z</time>
      </trkpt>
      <trkpt lat="44.1343" lon="6.34671">
        <ele>879.3</ele>
        <time>2021-09-11T12:20:39Z</time>
      </trkpt>
      <trkpt lat="44.1343" lon="6.34678">
        <ele>880.7</ele>
        <time>2021-09-11T12:20:41Z</time>
      </trkpt>
      <trkpt lat="44.13429" lon="6.3468">
        <ele>881.1</ele>
        <time>2021-09-11T12:20:42Z</time>
      </trkpt>
      <trkpt lat="44.13429" lon="6.34682">
        <ele>881.6</ele>
        <time>2021-09-11T12:20:43Z</time>
      </trkpt>
      <trkpt lat="44.13429" lon="6.34684">
        <ele>881.9</ele>
        <time>2021-09-11T12:20:44Z</time>
      </trkpt>
      <trkpt lat="44.1343" lon="6.34684">
        <ele>882.2</ele>
        <time>2021-09-11T12:20:46Z</time>
      </trkpt>
      <trkpt lat="44.13431" lon="6.34688">
        <ele>882.9</ele>
        <time>2021-09-11T12:20:48Z</time>
      </trkpt>
      <trkpt lat="44.13431" lon="6.34692">
        <ele>883.7</ele>
        <time>2021-09-11T12:20:49Z</time>
      </trkpt>
      <trkpt lat="44.1343" lon="6.34693">
        <ele>883.9</ele>
        <time>2021-09-11T12:20:50Z</time>
      </trkpt>
      <trkpt lat="44.1343" lon="6.34694">
        <ele>884.2</ele>
        <time>2021-09-11T12:20:51Z</time>
      </trkpt>
      <trkpt lat="44.1343" lon="6.34694">
        <ele>884.3</ele>
        <time>2021-09-11T12:20:53Z</time>
      </trkpt>
      <trkpt lat="44.1343" lon="6.34695">
        <ele>884.3</ele>
        <time>2021-09-11T12:20:54Z</time>
      </trkpt>
      <trkpt lat="44.1343" lon="6.34695">
        <ele>884.5</ele>
        <time>2021-09-11T12:20:56Z</time>
      </trkpt>
      <trkpt lat="44.1343" lon="6.34696">
        <ele>884.6</ele>
        <time>2021-09-11T12:20:57Z</time>
      </trkpt>
      <trkpt lat="44.1343" lon="6.34696">
        <ele>884.6</ele>
        <time>2021-09-11T12:20:58Z</time>
      </trkpt>
      <trkpt lat="44.1343" lon="6.34696">
        <ele>884.7</ele>
        <time>2021-09-11T12:21:00Z</time>
      </trkpt>
      <trkpt lat="44.13444" lon="6.34748">
        <ele>889.3</ele>
        <time>2021-09-11T12:21:59Z</time>
      </trkpt>
      <trkpt lat="44.13444" lon="6.3475">
        <ele>889.4</ele>
        <time>2021-09-11T12:22:00Z</time>
      </trkpt>
      <trkpt lat="44.13444" lon="6.34752">
        <ele>889.6</ele>
        <time>2021-09-11T12:22:02Z</time>
      </trkpt>
      <trkpt lat="44.13444" lon="6.34755">
        <ele>889.8</ele>
        <time>2021-09-11T12:22:04Z</time>
      </trkpt>
      <trkpt lat="44.13443" lon="6.34756">
        <ele>889.9</ele>
        <time>2021-09-11T12:22:06Z</time>
      </trkpt>
      <trkpt lat="44.13443" lon="6.34757">
        <ele>890</ele>
        <time>2021-09-11T12:22:08Z</time>
      </trkpt>
      <trkpt lat="44.13442" lon="6.34758">
        <ele>890.1</ele>
        <time>2021-09-11T12:22:10Z</time>
      </trkpt>
      <trkpt lat="44.13442" lon="6.34759">
        <ele>890.2</ele>
        <time>2021-09-11T12:22:12Z</time>
      </trkpt>
      <trkpt lat="44.13442" lon="6.3476">
        <ele>890.2</ele>
        <time>2021-09-11T12:22:14Z</time>
      </trkpt>
      <trkpt lat="44.13441" lon="6.3476">
        <ele>890.2</ele>
        <time>2021-09-11T12:22:16Z</time>
      </trkpt>
      <trkpt lat="44.13441" lon="6.34761">
        <ele>890.3</ele>
        <time>2021-09-11T12:22:18Z</time>
      </trkpt>
      <trkpt lat="44.13441" lon="6.3476">
        <ele>890.3</ele>
        <time>2021-09-11T12:22:19Z</time>
      </trkpt>
      <trkpt lat="44.13441" lon="6.3476">
        <ele>890.3</ele>
        <time>2021-09-11T12:22:20Z</time>
      </trkpt>
      <trkpt lat="44.13441" lon="6.3476">
        <ele>890.3</ele>
        <time>2021-09-11T12:22:22Z</time>
      </trkpt>
      <trkpt lat="44.13441" lon="6.3476">
        <ele>890.3</ele>
        <time>2021-09-11T12:22:24Z</time>
      </trkpt>
      <trkpt lat="44.13436" lon="6.34754">
        <ele>891</ele>
        <time>2021-09-11T12:22:26Z</time>
      </trkpt>
      <trkpt lat="44.13435" lon="6.34752">
        <ele>891.2</ele>
        <time>2021-09-11T12:22:27Z</time>
      </trkpt>
      <trkpt lat="44.13433" lon="6.34751">
        <ele>891.3</ele>
        <time>2021-09-11T12:22:29Z</time>
      </trkpt>
      <trkpt lat="44.13433" lon="6.34751">
        <ele>891.4</ele>
        <time>2021-09-11T12:22:30Z</time>
      </trkpt>
      <trkpt lat="44.13433" lon="6.34751">
        <ele>891.4</ele>
        <time>2021-09-11T12:22:31Z</time>
      </trkpt>
      <trkpt lat="44.13433" lon="6.34751">
        <ele>891.4</ele>
        <time>2021-09-11T12:22:32Z</time>
      </trkpt>
      <trkpt lat="44.13433" lon="6.34751">
        <ele>891.4</ele>
        <time>2021-09-11T12:22:34Z</time>
      </trkpt>
      <trkpt lat="44.13433" lon="6.34751">
        <ele>891.4</ele>
        <time>2021-09-11T12:22:35Z</time>
      </trkpt>
      <trkpt lat="44.13433" lon="6.34751">
        <ele>891.4</ele>
        <time>2021-09-11T12:22:36Z</time>
      </trkpt>
      <trkpt lat="44.13433" lon="6.34751">
        <ele>891.4</ele>
        <time>2021-09-11T12:22:38Z</time>
      </trkpt>
      <trkpt lat="44.13433" lon="6.34751">
        <ele>891.4</ele>
        <time>2021-09-11T12:22:39Z</time>
      </trkpt>
      <trkpt lat="44.13433" lon="6.34751">
        <ele>891.4</ele>
        <time>2021-09-11T12:22:40Z</time>
      </trkpt>
      <trkpt lat="44.13433" lon="6.34751">
        <ele>891.5</ele>
        <time>2021-09-11T12:22:42Z</time>
      </trkpt>
      <trkpt lat="44.13433" lon="6.34751">
        <ele>891.5</ele>
        <time>2021-09-11T12:22:44Z</time>
      </trkpt>
      <trkpt lat="44.13433" lon="6.34751">
        <ele>891.5</ele>
        <time>2021-09-11T12:22:46Z</time>
      </trkpt>
      <trkpt lat="44.13433" lon="6.34751">
        <ele>891.5</ele>
        <time>2021-09-11T12:22:47Z</time>
      </trkpt>
      <trkpt lat="44.13433" lon="6.34751">
        <ele>891.5</ele>
        <time>2021-09-11T12:22:48Z</time>
      </trkpt>
      <trkpt lat="44.13433" lon="6.3475">
        <ele>891.5</ele>
        <time>2021-09-11T12:22:50Z</time>
      </trkpt>
      <trkpt lat="44.13433" lon="6.3475">
        <ele>891.5</ele>
        <time>2021-09-11T12:22:51Z</time>
      </trkpt>
      <trkpt lat="44.13433" lon="6.3475">
        <ele>891.5</ele>
        <time>2021-09-11T12:22:53Z</time>
      </trkpt>
      <trkpt lat="44.13433" lon="6.3475">
        <ele>891.5</ele>
        <time>2021-09-11T12:22:54Z</time>
      </trkpt>
      <trkpt lat="44.13435" lon="6.34751">
        <ele>891.7</ele>
        <time>2021-09-11T12:22:56Z</time>
      </trkpt>
      <trkpt lat="44.13436" lon="6.34751">
        <ele>891.9</ele>
        <time>2021-09-11T12:22:57Z</time>
      </trkpt>
      <trkpt lat="44.13438" lon="6.34751">
        <ele>892.1</ele>
        <time>2021-09-11T12:22:59Z</time>
      </trkpt>
      <trkpt lat="44.13438" lon="6.34751">
        <ele>892.1</ele>
        <time>2021-09-11T12:23:00Z</time>
      </trkpt>
      <trkpt lat="44.13439" lon="6.34752">
        <ele>892.3</ele>
        <time>2021-09-11T12:23:02Z</time>
      </trkpt>
      <trkpt lat="44.1344" lon="6.34751">
        <ele>892.3</ele>
        <time>2021-09-11T12:23:03Z</time>
      </trkpt>
      <trkpt lat="44.1344" lon="6.34751">
        <ele>892.4</ele>
        <time>2021-09-11T12:23:05Z</time>
      </trkpt>
      <trkpt lat="44.1344" lon="6.34751">
        <ele>892.4</ele>
        <time>2021-09-11T12:23:06Z</time>
      </trkpt>
      <trkpt lat="44.13441" lon="6.34751">
        <ele>892.4</ele>
        <time>2021-09-11T12:23:08Z</time>
      </trkpt>
      <trkpt lat="44.13441" lon="6.34751">
        <ele>892.5</ele>
        <time>2021-09-11T12:23:09Z</time>
      </trkpt>
      <trkpt lat="44.13441" lon="6.34751">
        <ele>892.5</ele>
        <time>2021-09-11T12:23:11Z</time>
      </trkpt>
      <trkpt lat="44.13441" lon="6.34751">
        <ele>892.5</ele>
        <time>2021-09-11T12:23:12Z</time>
      </trkpt>
      <trkpt lat="44.13441" lon="6.34752">
        <ele>892.6</ele>
        <time>2021-09-11T12:23:13Z</time>
      </trkpt>
      <trkpt lat="44.13441" lon="6.34756">
        <ele>892.9</ele>
        <time>2021-09-11T12:23:14Z</time>
      </trkpt>
      <trkpt lat="44.13439" lon="6.3476">
        <ele>893.3</ele>
        <time>2021-09-11T12:23:16Z</time>
      </trkpt>
      <trkpt lat="44.13439" lon="6.3476">
        <ele>893.4</ele>
        <time>2021-09-11T12:23:17Z</time>
      </trkpt>
      <trkpt lat="44.13438" lon="6.34762">
        <ele>893.6</ele>
        <time>2021-09-11T12:23:18Z</time>
      </trkpt>
      <trkpt lat="44.13438" lon="6.34764">
        <ele>893.7</ele>
        <time>2021-09-11T12:23:19Z</time>
      </trkpt>
      <trkpt lat="44.13438" lon="6.34766">
        <ele>893.9</ele>
        <time>2021-09-11T12:23:20Z</time>
      </trkpt>
      <trkpt lat="44.13437" lon="6.34767">
        <ele>894</ele>
        <time>2021-09-11T12:23:22Z</time>
      </trkpt>
      <trkpt lat="44.13437" lon="6.34768">
        <ele>894.1</ele>
        <time>2021-09-11T12:23:23Z</time>
      </trkpt>
      <trkpt lat="44.13436" lon="6.3477">
        <ele>894.3</ele>
        <time>2021-09-11T12:23:25Z</time>
      </trkpt>
      <trkpt lat="44.13437" lon="6.34772">
        <ele>894.5</ele>
        <time>2021-09-11T12:23:26Z</time>
      </trkpt>
      <trkpt lat="44.13441" lon="6.34783">
        <ele>895.4</ele>
        <time>2021-09-11T12:23:27Z</time>
      </trkpt>
      <trkpt lat="44.13444" lon="6.34791">
        <ele>896.1</ele>
        <time>2021-09-11T12:23:29Z</time>
      </trkpt>
      <trkpt lat="44.13448" lon="6.348">
        <ele>896.7</ele>
        <time>2021-09-11T12:23:30Z</time>
      </trkpt>
      <trkpt lat="44.13451" lon="6.34808">
        <ele>897.4</ele>
        <time>2021-09-11T12:23:32Z</time>
      </trkpt>
      <trkpt lat="44.13454" lon="6.34817">
        <ele>898.1</ele>
        <time>2021-09-11T12:23:33Z</time>
      </trkpt>
      <trkpt lat="44.13458" lon="6.34825">
        <ele>898.8</ele>
        <time>2021-09-11T12:24:23Z</time>
      </trkpt>
      <trkpt lat="44.13461" lon="6.34834">
        <ele>899.6</ele>
        <time>2021-09-11T12:24:24Z</time>
      </trkpt>
      <trkpt lat="44.13464" lon="6.34842">
        <ele>900.3</ele>
        <time>2021-09-11T12:24:25Z</time>
      </trkpt>
      <trkpt lat="44.13468" lon="6.34846">
        <ele>900.8</ele>
        <time>2021-09-11T12:24:27Z</time>
      </trkpt>
      <trkpt lat="44.13469" lon="6.34848">
        <ele>901</ele>
        <time>2021-09-11T12:24:28Z</time>
      </trkpt>
      <trkpt lat="44.1347" lon="6.34849">
        <ele>901.1</ele>
        <time>2021-09-11T12:24:29Z</time>
      </trkpt>
      <trkpt lat="44.13471" lon="6.3485">
        <ele>901.2</ele>
        <time>2021-09-11T12:24:30Z</time>
      </trkpt>
      <trkpt lat="44.13472" lon="6.34852">
        <ele>901.4</ele>
        <time>2021-09-11T12:24:32Z</time>
      </trkpt>
      <trkpt lat="44.13472" lon="6.34853">
        <ele>901.5</ele>
        <time>2021-09-11T12:24:34Z</time>
      </trkpt>
      <trkpt lat="44.13473" lon="6.34854">
        <ele>901.6</ele>
        <time>2021-09-11T12:24:35Z</time>
      </trkpt>
      <trkpt lat="44.13474" lon="6.34856">
        <ele>901.8</ele>
        <time>2021-09-11T12:24:36Z</time>
      </trkpt>
      <trkpt lat="44.13474" lon="6.34858">
        <ele>901.9</ele>
        <time>2021-09-11T12:24:37Z</time>
      </trkpt>
      <trkpt lat="44.13475" lon="6.3486">
        <ele>902.1</ele>
        <time>2021-09-11T12:24:39Z</time>
      </trkpt>
      <trkpt lat="44.13476" lon="6.34862">
        <ele>902.2</ele>
        <time>2021-09-11T12:24:40Z</time>
      </trkpt>
      <trkpt lat="44.1348" lon="6.34871">
        <ele>903</ele>
        <time>2021-09-11T12:24:45Z</time>
      </trkpt>
      <trkpt lat="44.13481" lon="6.34873">
        <ele>903.2</ele>
        <time>2021-09-11T12:24:46Z</time>
      </trkpt>
      <trkpt lat="44.13482" lon="6.34874">
        <ele>903.3</ele>
        <time>2021-09-11T12:24:47Z</time>
      </trkpt>
      <trkpt lat="44.13482" lon="6.34875">
        <ele>903.4</ele>
        <time>2021-09-11T12:24:48Z</time>
      </trkpt>
      <trkpt lat="44.13482" lon="6.34876">
        <ele>903.5</ele>
        <time>2021-09-11T12:24:51Z</time>
      </trkpt>
      <trkpt lat="44.13482" lon="6.34877">
        <ele>903.5</ele>
        <time>2021-09-11T12:24:52Z</time>
      </trkpt>
      <trkpt lat="44.13483" lon="6.34878">
        <ele>903.6</ele>
        <time>2021-09-11T12:24:53Z</time>
      </trkpt>
      <trkpt lat="44.13483" lon="6.34879">
        <ele>903.6</ele>
        <time>2021-09-11T12:24:55Z</time>
      </trkpt>
      <trkpt lat="44.13483" lon="6.3488">
        <ele>903.7</ele>
        <time>2021-09-11T12:24:56Z</time>
      </trkpt>
      <trkpt lat="44.13483" lon="6.34881">
        <ele>903.7</ele>
        <time>2021-09-11T12:24:58Z</time>
      </trkpt>
      <trkpt lat="44.13467" lon="6.34891">
        <ele>905.3</ele>
        <time>2021-09-11T12:25:52Z</time>
      </trkpt>
      <trkpt lat="44.13466" lon="6.3489">
        <ele>905.4</ele>
        <time>2021-09-11T12:25:53Z</time>
      </trkpt>
      <trkpt lat="44.13464" lon="6.34889">
        <ele>905.6</ele>
        <time>2021-09-11T12:25:54Z</time>
      </trkpt>
      <trkpt lat="44.13459" lon="6.34889">
        <ele>905.9</ele>
        <time>2021-09-11T12:25:56Z</time>
      </trkpt>
      <trkpt lat="44.13458" lon="6.34888">
        <ele>906.1</ele>
        <time>2021-09-11T12:25:57Z</time>
      </trkpt>
      <trkpt lat="44.13456" lon="6.34888">
        <ele>906.2</ele>
        <time>2021-09-11T12:25:58Z</time>
      </trkpt>
      <trkpt lat="44.13455" lon="6.34888">
        <ele>906.3</ele>
        <time>2021-09-11T12:26:00Z</time>
      </trkpt>
      <trkpt lat="44.13455" lon="6.34888">
        <ele>906.3</ele>
        <time>2021-09-11T12:26:01Z</time>
      </trkpt>
      <trkpt lat="44.13455" lon="6.34888">
        <ele>906.4</ele>
        <time>2021-09-11T12:26:02Z</time>
      </trkpt>
      <trkpt lat="44.13453" lon="6.34886">
        <ele>906.6</ele>
        <time>2021-09-11T12:26:04Z</time>
      </trkpt>
      <trkpt lat="44.13451" lon="6.34885">
        <ele>906.8</ele>
        <time>2021-09-11T12:26:05Z</time>
      </trkpt>
      <trkpt lat="44.1345" lon="6.34885">
        <ele>906.9</ele>
        <time>2021-09-11T12:26:06Z</time>
      </trkpt>
      <trkpt lat="44.13448" lon="6.34884">
        <ele>907.1</ele>
        <time>2021-09-11T12:26:08Z</time>
      </trkpt>
      <trkpt lat="44.13446" lon="6.34883">
        <ele>907.2</ele>
        <time>2021-09-11T12:26:09Z</time>
      </trkpt>
      <trkpt lat="44.13444" lon="6.34881">
        <ele>907.5</ele>
        <time>2021-09-11T12:26:10Z</time>
      </trkpt>
      <trkpt lat="44.13443" lon="6.34881">
        <ele>907.6</ele>
        <time>2021-09-11T12:26:11Z</time>
      </trkpt>
      <trkpt lat="44.13441" lon="6.3488">
        <ele>907.8</ele>
        <time>2021-09-11T12:26:12Z</time>
      </trkpt>
      <trkpt lat="44.1344" lon="6.34879">
        <ele>907.9</ele>
        <time>2021-09-11T12:26:13Z</time>
      </trkpt>
      <trkpt lat="44.13439" lon="6.34879">
        <ele>908</ele>
        <time>2021-09-11T12:26:14Z</time>
      </trkpt>
      <trkpt lat="44.13437" lon="6.34876">
        <ele>908.3</ele>
        <time>2021-09-11T12:26:16Z</time>
      </trkpt>
      <trkpt lat="44.13435" lon="6.34875">
        <ele>908.4</ele>
        <time>2021-09-11T12:26:17Z</time>
      </trkpt>
      <trkpt lat="44.13435" lon="6.34876">
        <ele>908.5</ele>
        <time>2021-09-11T12:26:18Z</time>
      </trkpt>
      <trkpt lat="44.13434" lon="6.34875">
        <ele>908.6</ele>
        <time>2021-09-11T12:26:19Z</time>
      </trkpt>
      <trkpt lat="44.13433" lon="6.34872">
        <ele>908.8</ele>
        <time>2021-09-11T12:26:21Z</time>
      </trkpt>
      <trkpt lat="44.1343" lon="6.34871">
        <ele>909</ele>
        <time>2021-09-11T12:26:22Z</time>
      </trkpt>
      <trkpt lat="44.13428" lon="6.34871">
        <ele>909.2</ele>
        <time>2021-09-11T12:26:23Z</time>
      </trkpt>
      <trkpt lat="44.13426" lon="6.34872">
        <ele>909.4</ele>
        <time>2021-09-11T12:26:25Z</time>
      </trkpt>
      <trkpt lat="44.13425" lon="6.34872">
        <ele>909.6</ele>
        <time>2021-09-11T12:26:26Z</time>
      </trkpt>
      <trkpt lat="44.13422" lon="6.34872">
        <ele>909.8</ele>
        <time>2021-09-11T12:26:28Z</time>
      </trkpt>
      <trkpt lat="44.13422" lon="6.34872">
        <ele>909.8</ele>
        <time>2021-09-11T12:26:29Z</time>
      </trkpt>
      <trkpt lat="44.13423" lon="6.34871">
        <ele>909.9</ele>
        <time>2021-09-11T12:26:30Z</time>
      </trkpt>
      <trkpt lat="44.13422" lon="6.34871">
        <ele>909.9</ele>
        <time>2021-09-11T12:26:31Z</time>
      </trkpt>
      <trkpt lat="44.13421" lon="6.34871">
        <ele>910.1</ele>
        <time>2021-09-11T12:26:32Z</time>
      </trkpt>
      <trkpt lat="44.13421" lon="6.34871">
        <ele>910.1</ele>
        <time>2021-09-11T12:26:34Z</time>
      </trkpt>
      <trkpt lat="44.13418" lon="6.3487">
        <ele>910.4</ele>
        <time>2021-09-11T12:26:36Z</time>
      </trkpt>
      <trkpt lat="44.13416" lon="6.3487">
        <ele>910.5</ele>
        <time>2021-09-11T12:26:37Z</time>
      </trkpt>
      <trkpt lat="44.13414" lon="6.34869">
        <ele>910.7</ele>
        <time>2021-09-11T12:26:38Z</time>
      </trkpt>
      <trkpt lat="44.1341" lon="6.34868">
        <ele>911</ele>
        <time>2021-09-11T12:26:40Z</time>
      </trkpt>
      <trkpt lat="44.13409" lon="6.34868">
        <ele>911.2</ele>
        <time>2021-09-11T12:26:42Z</time>
      </trkpt>
      <trkpt lat="44.13406" lon="6.34866">
        <ele>911.5</ele>
        <time>2021-09-11T12:26:44Z</time>
      </trkpt>
      <trkpt lat="44.13404" lon="6.34866">
        <ele>911.6</ele>
        <time>2021-09-11T12:26:45Z</time>
      </trkpt>
      <trkpt lat="44.13403" lon="6.34865">
        <ele>911.8</ele>
        <time>2021-09-11T12:26:46Z</time>
      </trkpt>
      <trkpt lat="44.13399" lon="6.34864">
        <ele>912.1</ele>
        <time>2021-09-11T12:26:48Z</time>
      </trkpt>
      <trkpt lat="44.13397" lon="6.34862">
        <ele>912.3</ele>
        <time>2021-09-11T12:26:50Z</time>
      </trkpt>
      <trkpt lat="44.13397" lon="6.3486">
        <ele>912.4</ele>
        <time>2021-09-11T12:26:51Z</time>
      </trkpt>
      <trkpt lat="44.13397" lon="6.3486">
        <ele>912.4</ele>
        <time>2021-09-11T12:26:52Z</time>
      </trkpt>
      <trkpt lat="44.13396" lon="6.34859">
        <ele>912.6</ele>
        <time>2021-09-11T12:26:53Z</time>
      </trkpt>
      <trkpt lat="44.13394" lon="6.34859">
        <ele>912.8</ele>
        <time>2021-09-11T12:26:54Z</time>
      </trkpt>
      <trkpt lat="44.1339" lon="6.34859">
        <ele>913.1</ele>
        <time>2021-09-11T12:26:55Z</time>
      </trkpt>
      <trkpt lat="44.13389" lon="6.3486">
        <ele>913.2</ele>
        <time>2021-09-11T12:26:56Z</time>
      </trkpt>
      <trkpt lat="44.13385" lon="6.34861">
        <ele>913.4</ele>
        <time>2021-09-11T12:26:58Z</time>
      </trkpt>
      <trkpt lat="44.13384" lon="6.34862">
        <ele>913.6</ele>
        <time>2021-09-11T12:27:00Z</time>
      </trkpt>
      <trkpt lat="44.13382" lon="6.34863">
        <ele>913.7</ele>
        <time>2021-09-11T12:27:02Z</time>
      </trkpt>
      <trkpt lat="44.1338" lon="6.34864">
        <ele>913.9</ele>
        <time>2021-09-11T12:27:03Z</time>
      </trkpt>
      <trkpt lat="44.13378" lon="6.34866">
        <ele>914</ele>
        <time>2021-09-11T12:27:05Z</time>
      </trkpt>
      <trkpt lat="44.13377" lon="6.34868">
        <ele>914.2</ele>
        <time>2021-09-11T12:27:06Z</time>
      </trkpt>
      <trkpt lat="44.13375" lon="6.34869">
        <ele>914.3</ele>
        <time>2021-09-11T12:27:08Z</time>
      </trkpt>
      <trkpt lat="44.13374" lon="6.34869">
        <ele>914.3</ele>
        <time>2021-09-11T12:27:09Z</time>
      </trkpt>
      <trkpt lat="44.13374" lon="6.34869">
        <ele>914.4</ele>
        <time>2021-09-11T12:27:11Z</time>
      </trkpt>
      <trkpt lat="44.13373" lon="6.3487">
        <ele>914.5</ele>
        <time>2021-09-11T12:27:12Z</time>
      </trkpt>
      <trkpt lat="44.13373" lon="6.3487">
        <ele>914.5</ele>
        <time>2021-09-11T12:27:13Z</time>
      </trkpt>
      <trkpt lat="44.13372" lon="6.3487">
        <ele>914.5</ele>
        <time>2021-09-11T12:27:14Z</time>
      </trkpt>
      <trkpt lat="44.13371" lon="6.34871">
        <ele>914.6</ele>
        <time>2021-09-11T12:27:15Z</time>
      </trkpt>
      <trkpt lat="44.1337" lon="6.34872">
        <ele>914.7</ele>
        <time>2021-09-11T12:27:17Z</time>
      </trkpt>
      <trkpt lat="44.13369" lon="6.34873">
        <ele>914.7</ele>
        <time>2021-09-11T12:27:18Z</time>
      </trkpt>
      <trkpt lat="44.13367" lon="6.34877">
        <ele>915</ele>
        <time>2021-09-11T12:27:19Z</time>
      </trkpt>
      <trkpt lat="44.13367" lon="6.34879">
        <ele>915.1</ele>
        <time>2021-09-11T12:27:20Z</time>
      </trkpt>
      <trkpt lat="44.13367" lon="6.34883">
        <ele>915.3</ele>
        <time>2021-09-11T12:27:22Z</time>
      </trkpt>
      <trkpt lat="44.13367" lon="6.34888">
        <ele>915.5</ele>
        <time>2021-09-11T12:27:23Z</time>
      </trkpt>
      <trkpt lat="44.13367" lon="6.3489">
        <ele>915.6</ele>
        <time>2021-09-11T12:27:24Z</time>
      </trkpt>
      <trkpt lat="44.13368" lon="6.34891">
        <ele>915.7</ele>
        <time>2021-09-11T12:27:26Z</time>
      </trkpt>
      <trkpt lat="44.13367" lon="6.34893">
        <ele>915.8</ele>
        <time>2021-09-11T12:27:27Z</time>
      </trkpt>
      <trkpt lat="44.13367" lon="6.34895">
        <ele>915.9</ele>
        <time>2021-09-11T12:27:28Z</time>
      </trkpt>
      <trkpt lat="44.13367" lon="6.34897">
        <ele>916</ele>
        <time>2021-09-11T12:27:30Z</time>
      </trkpt>
      <trkpt lat="44.13367" lon="6.34899">
        <ele>916.1</ele>
        <time>2021-09-11T12:27:31Z</time>
      </trkpt>
      <trkpt lat="44.13368" lon="6.349">
        <ele>916.2</ele>
        <time>2021-09-11T12:27:32Z</time>
      </trkpt>
      <trkpt lat="44.1337" lon="6.34902">
        <ele>916.3</ele>
        <time>2021-09-11T12:27:34Z</time>
      </trkpt>
      <trkpt lat="44.13371" lon="6.34903">
        <ele>916.5</ele>
        <time>2021-09-11T12:27:35Z</time>
      </trkpt>
      <trkpt lat="44.13374" lon="6.34907">
        <ele>916.8</ele>
        <time>2021-09-11T12:27:37Z</time>
      </trkpt>
      <trkpt lat="44.13376" lon="6.3491">
        <ele>917</ele>
        <time>2021-09-11T12:27:39Z</time>
      </trkpt>
      <trkpt lat="44.13377" lon="6.34911">
        <ele>917.1</ele>
        <time>2021-09-11T12:27:40Z</time>
      </trkpt>
      <trkpt lat="44.1338" lon="6.34912">
        <ele>917.4</ele>
        <time>2021-09-11T12:27:42Z</time>
      </trkpt>
      <trkpt lat="44.13381" lon="6.34914">
        <ele>917.5</ele>
        <time>2021-09-11T12:27:44Z</time>
      </trkpt>
      <trkpt lat="44.13382" lon="6.34915">
        <ele>917.6</ele>
        <time>2021-09-11T12:27:45Z</time>
      </trkpt>
      <trkpt lat="44.13383" lon="6.34917">
        <ele>917.8</ele>
        <time>2021-09-11T12:27:47Z</time>
      </trkpt>
      <trkpt lat="44.13384" lon="6.34918">
        <ele>917.9</ele>
        <time>2021-09-11T12:27:48Z</time>
      </trkpt>
      <trkpt lat="44.13385" lon="6.3492">
        <ele>918</ele>
        <time>2021-09-11T12:27:50Z</time>
      </trkpt>
      <trkpt lat="44.13386" lon="6.34921">
        <ele>918.2</ele>
        <time>2021-09-11T12:27:51Z</time>
      </trkpt>
      <trkpt lat="44.13387" lon="6.34923">
        <ele>918.3</ele>
        <time>2021-09-11T12:27:52Z</time>
      </trkpt>
      <trkpt lat="44.13387" lon="6.34924">
        <ele>918.4</ele>
        <time>2021-09-11T12:27:53Z</time>
      </trkpt>
      <trkpt lat="44.13388" lon="6.34926">
        <ele>918.6</ele>
        <time>2021-09-11T12:27:54Z</time>
      </trkpt>
      <trkpt lat="44.13389" lon="6.34927">
        <ele>918.7</ele>
        <time>2021-09-11T12:27:56Z</time>
      </trkpt>
      <trkpt lat="44.1339" lon="6.34929">
        <ele>918.8</ele>
        <time>2021-09-11T12:27:57Z</time>
      </trkpt>
      <trkpt lat="44.13391" lon="6.34931">
        <ele>919</ele>
        <time>2021-09-11T12:27:58Z</time>
      </trkpt>
      <trkpt lat="44.13392" lon="6.34932">
        <ele>919.1</ele>
        <time>2021-09-11T12:27:59Z</time>
      </trkpt>
      <trkpt lat="44.13393" lon="6.34934">
        <ele>919.2</ele>
        <time>2021-09-11T12:28:00Z</time>
      </trkpt>
      <trkpt lat="44.13394" lon="6.34935">
        <ele>919.4</ele>
        <time>2021-09-11T12:28:14Z</time>
      </trkpt>
      <trkpt lat="44.13395" lon="6.34937">
        <ele>919.5</ele>
        <time>2021-09-11T12:28:15Z</time>
      </trkpt>
      <trkpt lat="44.13396" lon="6.34938">
        <ele>919.6</ele>
        <time>2021-09-11T12:28:16Z</time>
      </trkpt>
      <trkpt lat="44.13396" lon="6.3494">
        <ele>919.8</ele>
        <time>2021-09-11T12:28:18Z</time>
      </trkpt>
      <trkpt lat="44.13395" lon="6.34941">
        <ele>919.9</ele>
        <time>2021-09-11T12:28:19Z</time>
      </trkpt>
      <trkpt lat="44.13394" lon="6.34942">
        <ele>920</ele>
        <time>2021-09-11T12:28:20Z</time>
      </trkpt>
      <trkpt lat="44.13393" lon="6.34946">
        <ele>920.3</ele>
        <time>2021-09-11T12:28:21Z</time>
      </trkpt>
      <trkpt lat="44.1339" lon="6.34951">
        <ele>920.7</ele>
        <time>2021-09-11T12:28:23Z</time>
      </trkpt>
      <trkpt lat="44.13389" lon="6.34953">
        <ele>920.9</ele>
        <time>2021-09-11T12:28:24Z</time>
      </trkpt>
      <trkpt lat="44.13388" lon="6.34955">
        <ele>921.1</ele>
        <time>2021-09-11T12:28:25Z</time>
      </trkpt>
      <trkpt lat="44.13388" lon="6.34956">
        <ele>921.2</ele>
        <time>2021-09-11T12:28:26Z</time>
      </trkpt>
      <trkpt lat="44.13386" lon="6.3496">
        <ele>921.5</ele>
        <time>2021-09-11T12:28:28Z</time>
      </trkpt>
      <trkpt lat="44.13385" lon="6.34961">
        <ele>921.6</ele>
        <time>2021-09-11T12:28:29Z</time>
      </trkpt>
      <trkpt lat="44.13382" lon="6.34969">
        <ele>922.2</ele>
        <time>2021-09-11T12:28:31Z</time>
      </trkpt>
      <trkpt lat="44.13381" lon="6.34973">
        <ele>922.5</ele>
        <time>2021-09-11T12:28:32Z</time>
      </trkpt>
      <trkpt lat="44.13379" lon="6.34978">
        <ele>922.9</ele>
        <time>2021-09-11T12:28:33Z</time>
      </trkpt>
      <trkpt lat="44.13378" lon="6.3498">
        <ele>923</ele>
        <time>2021-09-11T12:28:34Z</time>
      </trkpt>
      <trkpt lat="44.13376" lon="6.34984">
        <ele>923.3</ele>
        <time>2021-09-11T12:28:35Z</time>
      </trkpt>
      <trkpt lat="44.13374" lon="6.3499">
        <ele>923.8</ele>
        <time>2021-09-11T12:28:36Z</time>
      </trkpt>
      <trkpt lat="44.13373" lon="6.34994">
        <ele>924.1</ele>
        <time>2021-09-11T12:28:38Z</time>
      </trkpt>
      <trkpt lat="44.13373" lon="6.34995">
        <ele>924.1</ele>
        <time>2021-09-11T12:28:39Z</time>
      </trkpt>
      <trkpt lat="44.13372" lon="6.34996">
        <ele>924.2</ele>
        <time>2021-09-11T12:28:40Z</time>
      </trkpt>
      <trkpt lat="44.13372" lon="6.34996">
        <ele>924.3</ele>
        <time>2021-09-11T12:28:41Z</time>
      </trkpt>
      <trkpt lat="44.13373" lon="6.34995">
        <ele>924.3</ele>
        <time>2021-09-11T12:28:43Z</time>
      </trkpt>
      <trkpt lat="44.13374" lon="6.34995">
        <ele>924.4</ele>
        <time>2021-09-11T12:28:44Z</time>
      </trkpt>
      <trkpt lat="44.13374" lon="6.34995">
        <ele>924.4</ele>
        <time>2021-09-11T12:28:46Z</time>
      </trkpt>
      <trkpt lat="44.13374" lon="6.34995">
        <ele>924.5</ele>
        <time>2021-09-11T12:28:47Z</time>
      </trkpt>
      <trkpt lat="44.13375" lon="6.34995">
        <ele>924.5</ele>
        <time>2021-09-11T12:28:48Z</time>
      </trkpt>
      <trkpt lat="44.13375" lon="6.34995">
        <ele>924.5</ele>
        <time>2021-09-11T12:28:50Z</time>
      </trkpt>
      <trkpt lat="44.1338" lon="6.35091">
        <ele>931.2</ele>
        <time>2021-09-11T12:30:32Z</time>
      </trkpt>
      <trkpt lat="44.13381" lon="6.35096">
        <ele>931.6</ele>
        <time>2021-09-11T12:30:34Z</time>
      </trkpt>
      <trkpt lat="44.13382" lon="6.35104">
        <ele>932</ele>
        <time>2021-09-11T12:30:36Z</time>
      </trkpt>
      <trkpt lat="44.13382" lon="6.35109">
        <ele>932.2</ele>
        <time>2021-09-11T12:30:37Z</time>
      </trkpt>
      <trkpt lat="44.13383" lon="6.35116">
        <ele>932.5</ele>
        <time>2021-09-11T12:30:39Z</time>
      </trkpt>
      <trkpt lat="44.13384" lon="6.3512">
        <ele>932.7</ele>
        <time>2021-09-11T12:30:40Z</time>
      </trkpt>
      <trkpt lat="44.13385" lon="6.35122">
        <ele>932.8</ele>
        <time>2021-09-11T12:30:41Z</time>
      </trkpt>
      <trkpt lat="44.13386" lon="6.35125">
        <ele>932.9</ele>
        <time>2021-09-11T12:30:42Z</time>
      </trkpt>
      <trkpt lat="44.13387" lon="6.35126">
        <ele>933</ele>
        <time>2021-09-11T12:30:44Z</time>
      </trkpt>
      <trkpt lat="44.13387" lon="6.35128">
        <ele>933.1</ele>
        <time>2021-09-11T12:30:45Z</time>
      </trkpt>
      <trkpt lat="44.1339" lon="6.35131">
        <ele>933.2</ele>
        <time>2021-09-11T12:30:47Z</time>
      </trkpt>
      <trkpt lat="44.13393" lon="6.35134">
        <ele>933.4</ele>
        <time>2021-09-11T12:30:48Z</time>
      </trkpt>
      <trkpt lat="44.13395" lon="6.35137">
        <ele>933.5</ele>
        <time>2021-09-11T12:30:49Z</time>
      </trkpt>
      <trkpt lat="44.13397" lon="6.35141">
        <ele>933.7</ele>
        <time>2021-09-11T12:30:51Z</time>
      </trkpt>
      <trkpt lat="44.13399" lon="6.35143">
        <ele>933.7</ele>
        <time>2021-09-11T12:30:52Z</time>
      </trkpt>
      <trkpt lat="44.13401" lon="6.35145">
        <ele>933.8</ele>
        <time>2021-09-11T12:30:54Z</time>
      </trkpt>
      <trkpt lat="44.13403" lon="6.35149">
        <ele>934</ele>
        <time>2021-09-11T12:30:56Z</time>
      </trkpt>
      <trkpt lat="44.13403" lon="6.3515">
        <ele>934</ele>
        <time>2021-09-11T12:30:57Z</time>
      </trkpt>
      <trkpt lat="44.13404" lon="6.35152">
        <ele>934.1</ele>
        <time>2021-09-11T12:30:58Z</time>
      </trkpt>
      <trkpt lat="44.13407" lon="6.35155">
        <ele>934.2</ele>
        <time>2021-09-11T12:31:00Z</time>
      </trkpt>
      <trkpt lat="44.1341" lon="6.35156">
        <ele>934.3</ele>
        <time>2021-09-11T12:31:01Z</time>
      </trkpt>
      <trkpt lat="44.13411" lon="6.35157">
        <ele>934.4</ele>
        <time>2021-09-11T12:31:02Z</time>
      </trkpt>
      <trkpt lat="44.13415" lon="6.35158">
        <ele>934.5</ele>
        <time>2021-09-11T12:31:04Z</time>
      </trkpt>
      <trkpt lat="44.13416" lon="6.35159">
        <ele>934.6</ele>
        <time>2021-09-11T12:31:05Z</time>
      </trkpt>
      <trkpt lat="44.13418" lon="6.35159">
        <ele>934.7</ele>
        <time>2021-09-11T12:31:06Z</time>
      </trkpt>
      <trkpt lat="44.13419" lon="6.35161">
        <ele>934.8</ele>
        <time>2021-09-11T12:31:07Z</time>
      </trkpt>
      <trkpt lat="44.13421" lon="6.35163">
        <ele>934.9</ele>
        <time>2021-09-11T12:31:09Z</time>
      </trkpt>
      <trkpt lat="44.13422" lon="6.35168">
        <ele>935.2</ele>
        <time>2021-09-11T12:31:10Z</time>
      </trkpt>
      <trkpt lat="44.13423" lon="6.35169">
        <ele>935.2</ele>
        <time>2021-09-11T12:31:11Z</time>
      </trkpt>
      <trkpt lat="44.13425" lon="6.35172">
        <ele>935.4</ele>
        <time>2021-09-11T12:31:13Z</time>
      </trkpt>
      <trkpt lat="44.13426" lon="6.35174">
        <ele>935.5</ele>
        <time>2021-09-11T12:31:14Z</time>
      </trkpt>
      <trkpt lat="44.13427" lon="6.35177">
        <ele>935.7</ele>
        <time>2021-09-11T12:31:16Z</time>
      </trkpt>
      <trkpt lat="44.13427" lon="6.35179">
        <ele>935.8</ele>
        <time>2021-09-11T12:31:17Z</time>
      </trkpt>
      <trkpt lat="44.13427" lon="6.35181">
        <ele>935.9</ele>
        <time>2021-09-11T12:31:18Z</time>
      </trkpt>
      <trkpt lat="44.13427" lon="6.35186">
        <ele>936.2</ele>
        <time>2021-09-11T12:31:20Z</time>
      </trkpt>
      <trkpt lat="44.13429" lon="6.35191">
        <ele>936.5</ele>
        <time>2021-09-11T12:31:22Z</time>
      </trkpt>
      <trkpt lat="44.13429" lon="6.35193">
        <ele>936.6</ele>
        <time>2021-09-11T12:31:23Z</time>
      </trkpt>
      <trkpt lat="44.1343" lon="6.35197">
        <ele>936.9</ele>
        <time>2021-09-11T12:31:25Z</time>
      </trkpt>
      <trkpt lat="44.13431" lon="6.35198">
        <ele>937</ele>
        <time>2021-09-11T12:31:26Z</time>
      </trkpt>
      <trkpt lat="44.13433" lon="6.35202">
        <ele>937.3</ele>
        <time>2021-09-11T12:31:28Z</time>
      </trkpt>
      <trkpt lat="44.13433" lon="6.35204">
        <ele>937.4</ele>
        <time>2021-09-11T12:31:29Z</time>
      </trkpt>
      <trkpt lat="44.13434" lon="6.35206">
        <ele>937.5</ele>
        <time>2021-09-11T12:31:30Z</time>
      </trkpt>
      <trkpt lat="44.13433" lon="6.35206">
        <ele>937.5</ele>
        <time>2021-09-11T12:31:31Z</time>
      </trkpt>
      <trkpt lat="44.13435" lon="6.35211">
        <ele>937.8</ele>
        <time>2021-09-11T12:31:33Z</time>
      </trkpt>
      <trkpt lat="44.13437" lon="6.35215">
        <ele>938.1</ele>
        <time>2021-09-11T12:31:35Z</time>
      </trkpt>
      <trkpt lat="44.13437" lon="6.35216">
        <ele>938.2</ele>
        <time>2021-09-11T12:31:36Z</time>
      </trkpt>
      <trkpt lat="44.13437" lon="6.35218">
        <ele>938.3</ele>
        <time>2021-09-11T12:31:37Z</time>
      </trkpt>
      <trkpt lat="44.13438" lon="6.35222">
        <ele>938.5</ele>
        <time>2021-09-11T12:31:39Z</time>
      </trkpt>
      <trkpt lat="44.1344" lon="6.35226">
        <ele>938.7</ele>
        <time>2021-09-11T12:31:41Z</time>
      </trkpt>
      <trkpt lat="44.13441" lon="6.35228">
        <ele>938.9</ele>
        <time>2021-09-11T12:31:42Z</time>
      </trkpt>
      <trkpt lat="44.13442" lon="6.35232">
        <ele>939.1</ele>
        <time>2021-09-11T12:31:44Z</time>
      </trkpt>
      <trkpt lat="44.13442" lon="6.35234">
        <ele>939.2</ele>
        <time>2021-09-11T12:31:45Z</time>
      </trkpt>
      <trkpt lat="44.13442" lon="6.35239">
        <ele>939.5</ele>
        <time>2021-09-11T12:31:47Z</time>
      </trkpt>
      <trkpt lat="44.13441" lon="6.35242">
        <ele>939.7</ele>
        <time>2021-09-11T12:31:48Z</time>
      </trkpt>
      <trkpt lat="44.13441" lon="6.35247">
        <ele>940</ele>
        <time>2021-09-11T12:31:50Z</time>
      </trkpt>
      <trkpt lat="44.1344" lon="6.35251">
        <ele>940.3</ele>
        <time>2021-09-11T12:31:51Z</time>
      </trkpt>
      <trkpt lat="44.13439" lon="6.35252">
        <ele>940.4</ele>
        <time>2021-09-11T12:31:52Z</time>
      </trkpt>
      <trkpt lat="44.13438" lon="6.35255">
        <ele>940.6</ele>
        <time>2021-09-11T12:31:53Z</time>
      </trkpt>
      <trkpt lat="44.13438" lon="6.35256">
        <ele>940.7</ele>
        <time>2021-09-11T12:31:55Z</time>
      </trkpt>
      <trkpt lat="44.13437" lon="6.35257">
        <ele>940.7</ele>
        <time>2021-09-11T12:31:56Z</time>
      </trkpt>
      <trkpt lat="44.13436" lon="6.3526">
        <ele>941</ele>
        <time>2021-09-11T12:31:57Z</time>
      </trkpt>
      <trkpt lat="44.13435" lon="6.35263">
        <ele>941.2</ele>
        <time>2021-09-11T12:31:59Z</time>
      </trkpt>
      <trkpt lat="44.13434" lon="6.35265">
        <ele>941.4</ele>
        <time>2021-09-11T12:32:00Z</time>
      </trkpt>
      <trkpt lat="44.13432" lon="6.35269">
        <ele>941.7</ele>
        <time>2021-09-11T12:32:02Z</time>
      </trkpt>
      <trkpt lat="44.13431" lon="6.35273">
        <ele>942</ele>
        <time>2021-09-11T12:32:04Z</time>
      </trkpt>
      <trkpt lat="44.1343" lon="6.35276">
        <ele>942.2</ele>
        <time>2021-09-11T12:32:05Z</time>
      </trkpt>
      <trkpt lat="44.13429" lon="6.3528">
        <ele>942.5</ele>
        <time>2021-09-11T12:32:07Z</time>
      </trkpt>
      <trkpt lat="44.13428" lon="6.35282">
        <ele>942.7</ele>
        <time>2021-09-11T12:32:08Z</time>
      </trkpt>
      <trkpt lat="44.13426" lon="6.35287">
        <ele>943</ele>
        <time>2021-09-11T12:32:10Z</time>
      </trkpt>
      <trkpt lat="44.13424" lon="6.35289">
        <ele>943.2</ele>
        <time>2021-09-11T12:32:11Z</time>
      </trkpt>
      <trkpt lat="44.13423" lon="6.35291">
        <ele>943.3</ele>
        <time>2021-09-11T12:32:12Z</time>
      </trkpt>
      <trkpt lat="44.13422" lon="6.35291">
        <ele>943.4</ele>
        <time>2021-09-11T12:32:14Z</time>
      </trkpt>
      <trkpt lat="44.13422" lon="6.35291">
        <ele>943.4</ele>
        <time>2021-09-11T12:32:15Z</time>
      </trkpt>
      <trkpt lat="44.13421" lon="6.35292">
        <ele>943.5</ele>
        <time>2021-09-11T12:32:16Z</time>
      </trkpt>
      <trkpt lat="44.13421" lon="6.35293">
        <ele>943.6</ele>
        <time>2021-09-11T12:32:18Z</time>
      </trkpt>
      <trkpt lat="44.1342" lon="6.35294">
        <ele>943.6</ele>
        <time>2021-09-11T12:32:19Z</time>
      </trkpt>
      <trkpt lat="44.1342" lon="6.35294">
        <ele>943.7</ele>
        <time>2021-09-11T12:32:20Z</time>
      </trkpt>
      <trkpt lat="44.13419" lon="6.35295">
        <ele>943.8</ele>
        <time>2021-09-11T12:32:22Z</time>
      </trkpt>
      <trkpt lat="44.13418" lon="6.35296">
        <ele>943.9</ele>
        <time>2021-09-11T12:32:23Z</time>
      </trkpt>
      <trkpt lat="44.13417" lon="6.35297">
        <ele>944</ele>
        <time>2021-09-11T12:32:25Z</time>
      </trkpt>
      <trkpt lat="44.13415" lon="6.35297">
        <ele>944.1</ele>
        <time>2021-09-11T12:32:26Z</time>
      </trkpt>
      <trkpt lat="44.13412" lon="6.35299">
        <ele>944.4</ele>
        <time>2021-09-11T12:32:28Z</time>
      </trkpt>
      <trkpt lat="44.13409" lon="6.353">
        <ele>944.6</ele>
        <time>2021-09-11T12:32:29Z</time>
      </trkpt>
      <trkpt lat="44.13405" lon="6.35301">
        <ele>945</ele>
        <time>2021-09-11T12:32:31Z</time>
      </trkpt>
      <trkpt lat="44.13403" lon="6.35302">
        <ele>945.2</ele>
        <time>2021-09-11T12:32:32Z</time>
      </trkpt>
      <trkpt lat="44.134" lon="6.35303">
        <ele>945.5</ele>
        <time>2021-09-11T12:32:34Z</time>
      </trkpt>
      <trkpt lat="44.13398" lon="6.35304">
        <ele>945.6</ele>
        <time>2021-09-11T12:32:35Z</time>
      </trkpt>
      <trkpt lat="44.13395" lon="6.35306">
        <ele>945.8</ele>
        <time>2021-09-11T12:32:37Z</time>
      </trkpt>
      <trkpt lat="44.13394" lon="6.35308">
        <ele>946</ele>
        <time>2021-09-11T12:32:38Z</time>
      </trkpt>
      <trkpt lat="44.13392" lon="6.3531">
        <ele>946.2</ele>
        <time>2021-09-11T12:32:40Z</time>
      </trkpt>
      <trkpt lat="44.13389" lon="6.35311">
        <ele>946.5</ele>
        <time>2021-09-11T12:32:41Z</time>
      </trkpt>
      <trkpt lat="44.13388" lon="6.35312">
        <ele>946.6</ele>
        <time>2021-09-11T12:32:42Z</time>
      </trkpt>
      <trkpt lat="44.13386" lon="6.35315">
        <ele>946.9</ele>
        <time>2021-09-11T12:32:44Z</time>
      </trkpt>
      <trkpt lat="44.13386" lon="6.35316">
        <ele>946.9</ele>
        <time>2021-09-11T12:32:45Z</time>
      </trkpt>
      <trkpt lat="44.13384" lon="6.3532">
        <ele>947.2</ele>
        <time>2021-09-11T12:32:46Z</time>
      </trkpt>
      <trkpt lat="44.13384" lon="6.35321">
        <ele>947.3</ele>
        <time>2021-09-11T12:32:47Z</time>
      </trkpt>
      <trkpt lat="44.13384" lon="6.35325">
        <ele>947.6</ele>
        <time>2021-09-11T12:32:49Z</time>
      </trkpt>
      <trkpt lat="44.13385" lon="6.35327">
        <ele>947.7</ele>
        <time>2021-09-11T12:32:50Z</time>
      </trkpt>
      <trkpt lat="44.13386" lon="6.35332">
        <ele>948</ele>
        <time>2021-09-11T12:32:52Z</time>
      </trkpt>
      <trkpt lat="44.13387" lon="6.35336">
        <ele>948.2</ele>
        <time>2021-09-11T12:32:53Z</time>
      </trkpt>
      <trkpt lat="44.13388" lon="6.35337">
        <ele>948.3</ele>
        <time>2021-09-11T12:32:54Z</time>
      </trkpt>
      <trkpt lat="44.1339" lon="6.35341">
        <ele>948.6</ele>
        <time>2021-09-11T12:32:56Z</time>
      </trkpt>
      <trkpt lat="44.13391" lon="6.35342">
        <ele>948.7</ele>
        <time>2021-09-11T12:32:57Z</time>
      </trkpt>
      <trkpt lat="44.13391" lon="6.35343">
        <ele>948.8</ele>
        <time>2021-09-11T12:32:58Z</time>
      </trkpt>
      <trkpt lat="44.13391" lon="6.35344">
        <ele>948.8</ele>
        <time>2021-09-11T12:33:00Z</time>
      </trkpt>
      <trkpt lat="44.13392" lon="6.35344">
        <ele>948.9</ele>
        <time>2021-09-11T12:33:01Z</time>
      </trkpt>
      <trkpt lat="44.13392" lon="6.35348">
        <ele>949.1</ele>
        <time>2021-09-11T12:33:02Z</time>
      </trkpt>
      <trkpt lat="44.13392" lon="6.3535">
        <ele>949.2</ele>
        <time>2021-09-11T12:33:03Z</time>
      </trkpt>
      <trkpt lat="44.13393" lon="6.35353">
        <ele>949.4</ele>
        <time>2021-09-11T12:33:05Z</time>
      </trkpt>
      <trkpt lat="44.13394" lon="6.35356">
        <ele>949.7</ele>
        <time>2021-09-11T12:33:07Z</time>
      </trkpt>
      <trkpt lat="44.13394" lon="6.35358">
        <ele>949.8</ele>
        <time>2021-09-11T12:33:08Z</time>
      </trkpt>
      <trkpt lat="44.13394" lon="6.3536">
        <ele>949.9</ele>
        <time>2021-09-11T12:33:09Z</time>
      </trkpt>
      <trkpt lat="44.13394" lon="6.35362">
        <ele>950.1</ele>
        <time>2021-09-11T12:33:10Z</time>
      </trkpt>
      <trkpt lat="44.13394" lon="6.35363">
        <ele>950.2</ele>
        <time>2021-09-11T12:33:11Z</time>
      </trkpt>
      <trkpt lat="44.13394" lon="6.35364">
        <ele>950.2</ele>
        <time>2021-09-11T12:33:13Z</time>
      </trkpt>
      <trkpt lat="44.13394" lon="6.35364">
        <ele>950.2</ele>
        <time>2021-09-11T12:33:14Z</time>
      </trkpt>
      <trkpt lat="44.13394" lon="6.35364">
        <ele>950.2</ele>
        <time>2021-09-11T12:33:16Z</time>
      </trkpt>
      <trkpt lat="44.13393" lon="6.35364">
        <ele>950.2</ele>
        <time>2021-09-11T12:33:17Z</time>
      </trkpt>
      <trkpt lat="44.13393" lon="6.35364">
        <ele>950.2</ele>
        <time>2021-09-11T12:33:19Z</time>
      </trkpt>
      <trkpt lat="44.13393" lon="6.35364">
        <ele>950.2</ele>
        <time>2021-09-11T12:33:20Z</time>
      </trkpt>
      <trkpt lat="44.13393" lon="6.35364">
        <ele>950.2</ele>
        <time>2021-09-11T12:33:22Z</time>
      </trkpt>
      <trkpt lat="44.13392" lon="6.35432">
        <ele>955.2</ele>
        <time>2021-09-11T12:36:02Z</time>
      </trkpt>
      <trkpt lat="44.13391" lon="6.35434">
        <ele>955.4</ele>
        <time>2021-09-11T12:36:03Z</time>
      </trkpt>
      <trkpt lat="44.1339" lon="6.35435">
        <ele>955.6</ele>
        <time>2021-09-11T12:36:05Z</time>
      </trkpt>
      <trkpt lat="44.1339" lon="6.35436">
        <ele>955.7</ele>
        <time>2021-09-11T12:36:07Z</time>
      </trkpt>
      <trkpt lat="44.13389" lon="6.35437">
        <ele>955.7</ele>
        <time>2021-09-11T12:36:08Z</time>
      </trkpt>
      <trkpt lat="44.13389" lon="6.35437">
        <ele>955.8</ele>
        <time>2021-09-11T12:36:09Z</time>
      </trkpt>
      <trkpt lat="44.13389" lon="6.35437">
        <ele>955.8</ele>
        <time>2021-09-11T12:36:10Z</time>
      </trkpt>
      <trkpt lat="44.13388" lon="6.35438">
        <ele>955.8</ele>
        <time>2021-09-11T12:36:11Z</time>
      </trkpt>
      <trkpt lat="44.13388" lon="6.35438">
        <ele>955.9</ele>
        <time>2021-09-11T12:36:12Z</time>
      </trkpt>
      <trkpt lat="44.13388" lon="6.35438">
        <ele>955.9</ele>
        <time>2021-09-11T12:36:13Z</time>
      </trkpt>
      <trkpt lat="44.13388" lon="6.35438">
        <ele>955.9</ele>
        <time>2021-09-11T12:36:15Z</time>
      </trkpt>
      <trkpt lat="44.13388" lon="6.35438">
        <ele>955.9</ele>
        <time>2021-09-11T12:36:16Z</time>
      </trkpt>
      <trkpt lat="44.13387" lon="6.35438">
        <ele>956</ele>
        <time>2021-09-11T12:36:17Z</time>
      </trkpt>
      <trkpt lat="44.13385" lon="6.35438">
        <ele>956.2</ele>
        <time>2021-09-11T12:36:19Z</time>
      </trkpt>
      <trkpt lat="44.13384" lon="6.35438">
        <ele>956.3</ele>
        <time>2021-09-11T12:36:20Z</time>
      </trkpt>
      <trkpt lat="44.13383" lon="6.35439">
        <ele>956.5</ele>
        <time>2021-09-11T12:36:22Z</time>
      </trkpt>
      <trkpt lat="44.13381" lon="6.3544">
        <ele>956.7</ele>
        <time>2021-09-11T12:36:24Z</time>
      </trkpt>
      <trkpt lat="44.1338" lon="6.35441">
        <ele>956.9</ele>
        <time>2021-09-11T12:36:25Z</time>
      </trkpt>
      <trkpt lat="44.13379" lon="6.35441">
        <ele>957</ele>
        <time>2021-09-11T12:36:26Z</time>
      </trkpt>
      <trkpt lat="44.13378" lon="6.35442">
        <ele>957.1</ele>
        <time>2021-09-11T12:36:27Z</time>
      </trkpt>
      <trkpt lat="44.13378" lon="6.35442">
        <ele>957.2</ele>
        <time>2021-09-11T12:36:29Z</time>
      </trkpt>
      <trkpt lat="44.13377" lon="6.35443">
        <ele>957.3</ele>
        <time>2021-09-11T12:36:31Z</time>
      </trkpt>
      <trkpt lat="44.13377" lon="6.35443">
        <ele>957.3</ele>
        <time>2021-09-11T12:36:32Z</time>
      </trkpt>
      <trkpt lat="44.13377" lon="6.35443">
        <ele>957.3</ele>
        <time>2021-09-11T12:36:33Z</time>
      </trkpt>
      <trkpt lat="44.13376" lon="6.35443">
        <ele>957.3</ele>
        <time>2021-09-11T12:36:34Z</time>
      </trkpt>
      <trkpt lat="44.13376" lon="6.35443">
        <ele>957.4</ele>
        <time>2021-09-11T12:36:36Z</time>
      </trkpt>
      <trkpt lat="44.13376" lon="6.35443">
        <ele>957.4</ele>
        <time>2021-09-11T12:36:37Z</time>
      </trkpt>
      <trkpt lat="44.13376" lon="6.35444">
        <ele>957.5</ele>
        <time>2021-09-11T12:36:38Z</time>
      </trkpt>
      <trkpt lat="44.13375" lon="6.35444">
        <ele>957.5</ele>
        <time>2021-09-11T12:36:39Z</time>
      </trkpt>
      <trkpt lat="44.13374" lon="6.35446">
        <ele>957.7</ele>
        <time>2021-09-11T12:36:41Z</time>
      </trkpt>
      <trkpt lat="44.13374" lon="6.35448">
        <ele>957.9</ele>
        <time>2021-09-11T12:36:43Z</time>
      </trkpt>
      <trkpt lat="44.13373" lon="6.35449">
        <ele>957.9</ele>
        <time>2021-09-11T12:36:44Z</time>
      </trkpt>
      <trkpt lat="44.13373" lon="6.35449">
        <ele>958</ele>
        <time>2021-09-11T12:36:46Z</time>
      </trkpt>
      <trkpt lat="44.13373" lon="6.35449">
        <ele>958</ele>
        <time>2021-09-11T12:36:47Z</time>
      </trkpt>
      <trkpt lat="44.13373" lon="6.3545">
        <ele>958.1</ele>
        <time>2021-09-11T12:36:48Z</time>
      </trkpt>
      <trkpt lat="44.13373" lon="6.3545">
        <ele>958.1</ele>
        <time>2021-09-11T12:36:50Z</time>
      </trkpt>
      <trkpt lat="44.13373" lon="6.3545">
        <ele>958.1</ele>
        <time>2021-09-11T12:36:51Z</time>
      </trkpt>
      <trkpt lat="44.13373" lon="6.35451">
        <ele>958.1</ele>
        <time>2021-09-11T12:36:53Z</time>
      </trkpt>
      <trkpt lat="44.13373" lon="6.35451">
        <ele>958.2</ele>
        <time>2021-09-11T12:36:54Z</time>
      </trkpt>
      <trkpt lat="44.13373" lon="6.35451">
        <ele>958.2</ele>
        <time>2021-09-11T12:36:55Z</time>
      </trkpt>
      <trkpt lat="44.13372" lon="6.35451">
        <ele>958.2</ele>
        <time>2021-09-11T12:36:57Z</time>
      </trkpt>
      <trkpt lat="44.13372" lon="6.35451">
        <ele>958.2</ele>
        <time>2021-09-11T12:36:58Z</time>
      </trkpt>
      <trkpt lat="44.13372" lon="6.35451">
        <ele>958.2</ele>
        <time>2021-09-11T12:36:59Z</time>
      </trkpt>
      <trkpt lat="44.13372" lon="6.35451">
        <ele>958.2</ele>
        <time>2021-09-11T12:37:01Z</time>
      </trkpt>
      <trkpt lat="44.13372" lon="6.35451">
        <ele>958.2</ele>
        <time>2021-09-11T12:37:03Z</time>
      </trkpt>
      <trkpt lat="44.13372" lon="6.35451">
        <ele>958.3</ele>
        <time>2021-09-11T12:37:04Z</time>
      </trkpt>
      <trkpt lat="44.13372" lon="6.35451">
        <ele>958.3</ele>
        <time>2021-09-11T12:37:05Z</time>
      </trkpt>
      <trkpt lat="44.13372" lon="6.3545">
        <ele>958.4</ele>
        <time>2021-09-11T12:37:07Z</time>
      </trkpt>
      <trkpt lat="44.13372" lon="6.35448">
        <ele>958.5</ele>
        <time>2021-09-11T12:37:08Z</time>
      </trkpt>
      <trkpt lat="44.13373" lon="6.35445">
        <ele>958.7</ele>
        <time>2021-09-11T12:37:09Z</time>
      </trkpt>
      <trkpt lat="44.13373" lon="6.35443">
        <ele>958.9</ele>
        <time>2021-09-11T12:37:11Z</time>
      </trkpt>
      <trkpt lat="44.13373" lon="6.35442">
        <ele>959</ele>
        <time>2021-09-11T12:37:12Z</time>
      </trkpt>
      <trkpt lat="44.13373" lon="6.3544">
        <ele>959.2</ele>
        <time>2021-09-11T12:37:14Z</time>
      </trkpt>
      <trkpt lat="44.13373" lon="6.35439">
        <ele>959.2</ele>
        <time>2021-09-11T12:37:15Z</time>
      </trkpt>
      <trkpt lat="44.13374" lon="6.35438">
        <ele>959.3</ele>
        <time>2021-09-11T12:37:17Z</time>
      </trkpt>
      <trkpt lat="44.13374" lon="6.35438">
        <ele>959.4</ele>
        <time>2021-09-11T12:37:18Z</time>
      </trkpt>
      <trkpt lat="44.13374" lon="6.35437">
        <ele>959.4</ele>
        <time>2021-09-11T12:37:20Z</time>
      </trkpt>
      <trkpt lat="44.13374" lon="6.35437">
        <ele>959.5</ele>
        <time>2021-09-11T12:37:21Z</time>
      </trkpt>
      <trkpt lat="44.13374" lon="6.35436">
        <ele>959.5</ele>
        <time>2021-09-11T12:37:22Z</time>
      </trkpt>
      <trkpt lat="44.13372" lon="6.35436">
        <ele>959.7</ele>
        <time>2021-09-11T12:37:24Z</time>
      </trkpt>
      <trkpt lat="44.13371" lon="6.35435">
        <ele>959.8</ele>
        <time>2021-09-11T12:37:25Z</time>
      </trkpt>
      <trkpt lat="44.13369" lon="6.35434">
        <ele>960</ele>
        <time>2021-09-11T12:37:26Z</time>
      </trkpt>
      <trkpt lat="44.13368" lon="6.35432">
        <ele>960.2</ele>
        <time>2021-09-11T12:37:27Z</time>
      </trkpt>
      <trkpt lat="44.13367" lon="6.35432">
        <ele>960.4</ele>
        <time>2021-09-11T12:37:28Z</time>
      </trkpt>
      <trkpt lat="44.13364" lon="6.35431">
        <ele>960.7</ele>
        <time>2021-09-11T12:37:30Z</time>
      </trkpt>
      <trkpt lat="44.13363" lon="6.35431">
        <ele>960.8</ele>
        <time>2021-09-11T12:37:31Z</time>
      </trkpt>
      <trkpt lat="44.1336" lon="6.3543">
        <ele>961.2</ele>
        <time>2021-09-11T12:37:33Z</time>
      </trkpt>
      <trkpt lat="44.13357" lon="6.35429">
        <ele>961.5</ele>
        <time>2021-09-11T12:37:34Z</time>
      </trkpt>
      <trkpt lat="44.13354" lon="6.35429">
        <ele>961.8</ele>
        <time>2021-09-11T12:37:35Z</time>
      </trkpt>
      <trkpt lat="44.13353" lon="6.35429">
        <ele>961.9</ele>
        <time>2021-09-11T12:37:36Z</time>
      </trkpt>
      <trkpt lat="44.1335" lon="6.3543">
        <ele>962.2</ele>
        <time>2021-09-11T12:37:37Z</time>
      </trkpt>
      <trkpt lat="44.13344" lon="6.35432">
        <ele>962.9</ele>
        <time>2021-09-11T12:37:40Z</time>
      </trkpt>
      <trkpt lat="44.13341" lon="6.35435">
        <ele>963.3</ele>
        <time>2021-09-11T12:37:42Z</time>
      </trkpt>
      <trkpt lat="44.1334" lon="6.35435">
        <ele>963.5</ele>
        <time>2021-09-11T12:37:43Z</time>
      </trkpt>
      <trkpt lat="44.13339" lon="6.35436">
        <ele>963.6</ele>
        <time>2021-09-11T12:37:44Z</time>
      </trkpt>
      <trkpt lat="44.13337" lon="6.35437">
        <ele>963.9</ele>
        <time>2021-09-11T12:37:46Z</time>
      </trkpt>
      <trkpt lat="44.13336" lon="6.35437">
        <ele>964</ele>
        <time>2021-09-11T12:37:47Z</time>
      </trkpt>
      <trkpt lat="44.13333" lon="6.35437">
        <ele>964.3</ele>
        <time>2021-09-11T12:37:48Z</time>
      </trkpt>
      <trkpt lat="44.13331" lon="6.35436">
        <ele>964.5</ele>
        <time>2021-09-11T12:37:50Z</time>
      </trkpt>
      <trkpt lat="44.13329" lon="6.35437">
        <ele>964.7</ele>
        <time>2021-09-11T12:37:51Z</time>
      </trkpt>
      <trkpt lat="44.13327" lon="6.35438">
        <ele>965</ele>
        <time>2021-09-11T12:37:53Z</time>
      </trkpt>
      <trkpt lat="44.13325" lon="6.35439">
        <ele>965.4</ele>
        <time>2021-09-11T12:37:54Z</time>
      </trkpt>
      <trkpt lat="44.13325" lon="6.35439">
        <ele>965.4</ele>
        <time>2021-09-11T12:37:55Z</time>
      </trkpt>
      <trkpt lat="44.13327" lon="6.35439">
        <ele>965.6</ele>
        <time>2021-09-11T12:37:57Z</time>
      </trkpt>
      <trkpt lat="44.13327" lon="6.35439">
        <ele>965.6</ele>
        <time>2021-09-11T12:37:58Z</time>
      </trkpt>
      <trkpt lat="44.13327" lon="6.35439">
        <ele>965.6</ele>
        <time>2021-09-11T12:38:00Z</time>
      </trkpt>
      <trkpt lat="44.13327" lon="6.35439">
        <ele>965.6</ele>
        <time>2021-09-11T12:38:01Z</time>
      </trkpt>
      <trkpt lat="44.13327" lon="6.35439">
        <ele>965.6</ele>
        <time>2021-09-11T12:38:02Z</time>
      </trkpt>
      <trkpt lat="44.13327" lon="6.35439">
        <ele>965.7</ele>
        <time>2021-09-11T12:38:04Z</time>
      </trkpt>
      <trkpt lat="44.13321" lon="6.35438">
        <ele>966.3</ele>
        <time>2021-09-11T12:38:23Z</time>
      </trkpt>
      <trkpt lat="44.13319" lon="6.35438">
        <ele>966.4</ele>
        <time>2021-09-11T12:38:24Z</time>
      </trkpt>
      <trkpt lat="44.13318" lon="6.35439">
        <ele>966.5</ele>
        <time>2021-09-11T12:38:25Z</time>
      </trkpt>
      <trkpt lat="44.13317" lon="6.35439">
        <ele>966.6</ele>
        <time>2021-09-11T12:38:27Z</time>
      </trkpt>
      <trkpt lat="44.13316" lon="6.3544">
        <ele>966.7</ele>
        <time>2021-09-11T12:38:28Z</time>
      </trkpt>
      <trkpt lat="44.13314" lon="6.3544">
        <ele>966.9</ele>
        <time>2021-09-11T12:38:29Z</time>
      </trkpt>
      <trkpt lat="44.13312" lon="6.3544">
        <ele>967.1</ele>
        <time>2021-09-11T12:38:30Z</time>
      </trkpt>
      <trkpt lat="44.1331" lon="6.35441">
        <ele>967.3</ele>
        <time>2021-09-11T12:38:32Z</time>
      </trkpt>
      <trkpt lat="44.13308" lon="6.35442">
        <ele>967.4</ele>
        <time>2021-09-11T12:38:33Z</time>
      </trkpt>
      <trkpt lat="44.13305" lon="6.35442">
        <ele>967.6</ele>
        <time>2021-09-11T12:38:35Z</time>
      </trkpt>
      <trkpt lat="44.13303" lon="6.35443">
        <ele>967.8</ele>
        <time>2021-09-11T12:38:37Z</time>
      </trkpt>
      <trkpt lat="44.13301" lon="6.35443">
        <ele>968</ele>
        <time>2021-09-11T12:38:38Z</time>
      </trkpt>
      <trkpt lat="44.133" lon="6.35444">
        <ele>968.1</ele>
        <time>2021-09-11T12:38:39Z</time>
      </trkpt>
      <trkpt lat="44.13298" lon="6.35444">
        <ele>968.2</ele>
        <time>2021-09-11T12:38:41Z</time>
      </trkpt>
      <trkpt lat="44.13297" lon="6.35445">
        <ele>968.3</ele>
        <time>2021-09-11T12:38:42Z</time>
      </trkpt>
      <trkpt lat="44.13296" lon="6.35445">
        <ele>968.3</ele>
        <time>2021-09-11T12:38:44Z</time>
      </trkpt>
      <trkpt lat="44.13296" lon="6.35445">
        <ele>968.3</ele>
        <time>2021-09-11T12:38:45Z</time>
      </trkpt>
      <trkpt lat="44.13296" lon="6.35445">
        <ele>968.4</ele>
        <time>2021-09-11T12:38:47Z</time>
      </trkpt>
      <trkpt lat="44.13296" lon="6.35445">
        <ele>968.4</ele>
        <time>2021-09-11T12:38:48Z</time>
      </trkpt>
      <trkpt lat="44.13296" lon="6.35446">
        <ele>968.4</ele>
        <time>2021-09-11T12:38:50Z</time>
      </trkpt>
      <trkpt lat="44.13296" lon="6.35446">
        <ele>968.4</ele>
        <time>2021-09-11T12:38:51Z</time>
      </trkpt>
      <trkpt lat="44.13296" lon="6.35446">
        <ele>968.4</ele>
        <time>2021-09-11T12:38:52Z</time>
      </trkpt>
      <trkpt lat="44.13295" lon="6.35446">
        <ele>968.5</ele>
        <time>2021-09-11T12:38:53Z</time>
      </trkpt>
      <trkpt lat="44.13294" lon="6.35446">
        <ele>968.6</ele>
        <time>2021-09-11T12:38:55Z</time>
      </trkpt>
      <trkpt lat="44.13292" lon="6.35446">
        <ele>968.8</ele>
        <time>2021-09-11T12:38:56Z</time>
      </trkpt>
      <trkpt lat="44.1329" lon="6.35446">
        <ele>968.9</ele>
        <time>2021-09-11T12:38:57Z</time>
      </trkpt>
      <trkpt lat="44.13268" lon="6.35454">
        <ele>971.2</ele>
        <time>2021-09-11T12:39:14Z</time>
      </trkpt>
      <trkpt lat="44.13265" lon="6.35454">
        <ele>971.6</ele>
        <time>2021-09-11T12:39:16Z</time>
      </trkpt>
      <trkpt lat="44.13261" lon="6.35454">
        <ele>972</ele>
        <time>2021-09-11T12:39:17Z</time>
      </trkpt>
      <trkpt lat="44.1326" lon="6.35454">
        <ele>972.1</ele>
        <time>2021-09-11T12:39:18Z</time>
      </trkpt>
      <trkpt lat="44.13257" lon="6.35454">
        <ele>972.4</ele>
        <time>2021-09-11T12:39:19Z</time>
      </trkpt>
      <trkpt lat="44.13256" lon="6.35454">
        <ele>972.5</ele>
        <time>2021-09-11T12:39:21Z</time>
      </trkpt>
      <trkpt lat="44.13254" lon="6.35453">
        <ele>972.6</ele>
        <time>2021-09-11T12:39:22Z</time>
      </trkpt>
      <trkpt lat="44.13251" lon="6.35452">
        <ele>972.9</ele>
        <time>2021-09-11T12:39:23Z</time>
      </trkpt>
      <trkpt lat="44.13251" lon="6.35451">
        <ele>973</ele>
        <time>2021-09-11T12:39:24Z</time>
      </trkpt>
      <trkpt lat="44.13249" lon="6.3545">
        <ele>973.2</ele>
        <time>2021-09-11T12:39:26Z</time>
      </trkpt>
      <trkpt lat="44.13249" lon="6.35449">
        <ele>973.2</ele>
        <time>2021-09-11T12:39:28Z</time>
      </trkpt>
      <trkpt lat="44.13249" lon="6.35448">
        <ele>973.3</ele>
        <time>2021-09-11T12:39:29Z</time>
      </trkpt>
      <trkpt lat="44.13249" lon="6.35448">
        <ele>973.3</ele>
        <time>2021-09-11T12:39:30Z</time>
      </trkpt>
      <trkpt lat="44.13249" lon="6.35448">
        <ele>973.3</ele>
        <time>2021-09-11T12:39:32Z</time>
      </trkpt>
      <trkpt lat="44.13249" lon="6.35448">
        <ele>973.3</ele>
        <time>2021-09-11T12:39:34Z</time>
      </trkpt>
      <trkpt lat="44.13249" lon="6.35448">
        <ele>973.3</ele>
        <time>2021-09-11T12:39:35Z</time>
      </trkpt>
      <trkpt lat="44.13249" lon="6.35448">
        <ele>973.3</ele>
        <time>2021-09-11T12:39:36Z</time>
      </trkpt>
      <trkpt lat="44.13249" lon="6.35448">
        <ele>973.3</ele>
        <time>2021-09-11T12:39:38Z</time>
      </trkpt>
      <trkpt lat="44.13249" lon="6.35448">
        <ele>973.3</ele>
        <time>2021-09-11T12:39:39Z</time>
      </trkpt>
      <trkpt lat="44.13249" lon="6.35448">
        <ele>973.4</ele>
        <time>2021-09-11T12:39:41Z</time>
      </trkpt>
      <trkpt lat="44.1324" lon="6.35435">
        <ele>974.5</ele>
        <time>2021-09-11T12:39:51Z</time>
      </trkpt>
      <trkpt lat="44.13237" lon="6.35433">
        <ele>974.7</ele>
        <time>2021-09-11T12:39:53Z</time>
      </trkpt>
      <trkpt lat="44.13235" lon="6.35431">
        <ele>975</ele>
        <time>2021-09-11T12:39:54Z</time>
      </trkpt>
      <trkpt lat="44.13233" lon="6.35429">
        <ele>975.2</ele>
        <time>2021-09-11T12:39:55Z</time>
      </trkpt>
      <trkpt lat="44.13227" lon="6.35425">
        <ele>975.8</ele>
        <time>2021-09-11T12:39:57Z</time>
      </trkpt>
      <trkpt lat="44.13224" lon="6.35423">
        <ele>976.1</ele>
        <time>2021-09-11T12:39:58Z</time>
      </trkpt>
      <trkpt lat="44.13223" lon="6.35422">
        <ele>976.2</ele>
        <time>2021-09-11T12:39:59Z</time>
      </trkpt>
      <trkpt lat="44.13221" lon="6.3542">
        <ele>976.4</ele>
        <time>2021-09-11T12:40:01Z</time>
      </trkpt>
      <trkpt lat="44.1322" lon="6.35416">
        <ele>976.6</ele>
        <time>2021-09-11T12:40:02Z</time>
      </trkpt>
      <trkpt lat="44.13219" lon="6.35415">
        <ele>976.7</ele>
        <time>2021-09-11T12:40:03Z</time>
      </trkpt>
      <trkpt lat="44.13219" lon="6.35411">
        <ele>977</ele>
        <time>2021-09-11T12:40:05Z</time>
      </trkpt>
      <trkpt lat="44.13219" lon="6.35408">
        <ele>977.1</ele>
        <time>2021-09-11T12:40:06Z</time>
      </trkpt>
      <trkpt lat="44.13219" lon="6.35407">
        <ele>977.2</ele>
        <time>2021-09-11T12:40:07Z</time>
      </trkpt>
      <trkpt lat="44.13219" lon="6.35405">
        <ele>977.4</ele>
        <time>2021-09-11T12:40:08Z</time>
      </trkpt>
      <trkpt lat="44.13217" lon="6.35403">
        <ele>977.5</ele>
        <time>2021-09-11T12:40:09Z</time>
      </trkpt>
      <trkpt lat="44.13216" lon="6.35402">
        <ele>977.6</ele>
        <time>2021-09-11T12:40:10Z</time>
      </trkpt>
      <trkpt lat="44.13216" lon="6.35401">
        <ele>977.7</ele>
        <time>2021-09-11T12:40:11Z</time>
      </trkpt>
      <trkpt lat="44.13214" lon="6.354">
        <ele>977.9</ele>
        <time>2021-09-11T12:40:13Z</time>
      </trkpt>
      <trkpt lat="44.13214" lon="6.35399">
        <ele>978</ele>
        <time>2021-09-11T12:40:14Z</time>
      </trkpt>
      <trkpt lat="44.13213" lon="6.35398">
        <ele>978.1</ele>
        <time>2021-09-11T12:40:15Z</time>
      </trkpt>
      <trkpt lat="44.13211" lon="6.35397">
        <ele>978.2</ele>
        <time>2021-09-11T12:40:17Z</time>
      </trkpt>
      <trkpt lat="44.13211" lon="6.35397">
        <ele>978.3</ele>
        <time>2021-09-11T12:40:18Z</time>
      </trkpt>
      <trkpt lat="44.1321" lon="6.35395">
        <ele>978.4</ele>
        <time>2021-09-11T12:40:19Z</time>
      </trkpt>
      <trkpt lat="44.1321" lon="6.35395">
        <ele>978.5</ele>
        <time>2021-09-11T12:40:21Z</time>
      </trkpt>
      <trkpt lat="44.13209" lon="6.35394">
        <ele>978.5</ele>
        <time>2021-09-11T12:40:22Z</time>
      </trkpt>
      <trkpt lat="44.13208" lon="6.35393">
        <ele>978.7</ele>
        <time>2021-09-11T12:40:24Z</time>
      </trkpt>
      <trkpt lat="44.13207" lon="6.35391">
        <ele>978.8</ele>
        <time>2021-09-11T12:40:25Z</time>
      </trkpt>
      <trkpt lat="44.13205" lon="6.3539">
        <ele>979</ele>
        <time>2021-09-11T12:40:26Z</time>
      </trkpt>
      <trkpt lat="44.13204" lon="6.3539">
        <ele>979.1</ele>
        <time>2021-09-11T12:40:27Z</time>
      </trkpt>
      <trkpt lat="44.13204" lon="6.3539">
        <ele>979.1</ele>
        <time>2021-09-11T12:40:29Z</time>
      </trkpt>
      <trkpt lat="44.13204" lon="6.3539">
        <ele>979.1</ele>
        <time>2021-09-11T12:40:30Z</time>
      </trkpt>
      <trkpt lat="44.13203" lon="6.35389">
        <ele>979.2</ele>
        <time>2021-09-11T12:40:31Z</time>
      </trkpt>
      <trkpt lat="44.13202" lon="6.35389">
        <ele>979.2</ele>
        <time>2021-09-11T12:40:33Z</time>
      </trkpt>
      <trkpt lat="44.13201" lon="6.35388">
        <ele>979.4</ele>
        <time>2021-09-11T12:40:34Z</time>
      </trkpt>
      <trkpt lat="44.132" lon="6.35387">
        <ele>979.5</ele>
        <time>2021-09-11T12:40:35Z</time>
      </trkpt>
      <trkpt lat="44.13199" lon="6.35386">
        <ele>979.6</ele>
        <time>2021-09-11T12:40:36Z</time>
      </trkpt>
      <trkpt lat="44.13198" lon="6.35386">
        <ele>979.6</ele>
        <time>2021-09-11T12:40:37Z</time>
      </trkpt>
      <trkpt lat="44.13195" lon="6.35381">
        <ele>980</ele>
        <time>2021-09-11T12:40:39Z</time>
      </trkpt>
      <trkpt lat="44.13194" lon="6.3538">
        <ele>980.1</ele>
        <time>2021-09-11T12:40:40Z</time>
      </trkpt>
      <trkpt lat="44.13193" lon="6.35378">
        <ele>980.2</ele>
        <time>2021-09-11T12:40:41Z</time>
      </trkpt>
      <trkpt lat="44.1319" lon="6.35375">
        <ele>980.5</ele>
        <time>2021-09-11T12:40:43Z</time>
      </trkpt>
      <trkpt lat="44.13189" lon="6.35374">
        <ele>980.6</ele>
        <time>2021-09-11T12:40:45Z</time>
      </trkpt>
      <trkpt lat="44.13188" lon="6.35374">
        <ele>980.7</ele>
        <time>2021-09-11T12:40:46Z</time>
      </trkpt>
      <trkpt lat="44.13185" lon="6.35372">
        <ele>980.9</ele>
        <time>2021-09-11T12:40:47Z</time>
      </trkpt>
      <trkpt lat="44.13184" lon="6.35371">
        <ele>981</ele>
        <time>2021-09-11T12:40:48Z</time>
      </trkpt>
      <trkpt lat="44.13183" lon="6.35369">
        <ele>981.2</ele>
        <time>2021-09-11T12:40:50Z</time>
      </trkpt>
      <trkpt lat="44.13179" lon="6.35368">
        <ele>981.5</ele>
        <time>2021-09-11T12:40:52Z</time>
      </trkpt>
      <trkpt lat="44.13178" lon="6.35367">
        <ele>981.7</ele>
        <time>2021-09-11T12:40:54Z</time>
      </trkpt>
      <trkpt lat="44.13177" lon="6.35365">
        <ele>981.8</ele>
        <time>2021-09-11T12:40:55Z</time>
      </trkpt>
      <trkpt lat="44.13176" lon="6.35364">
        <ele>981.9</ele>
        <time>2021-09-11T12:40:56Z</time>
      </trkpt>
      <trkpt lat="44.13175" lon="6.35364">
        <ele>982</ele>
        <time>2021-09-11T12:40:58Z</time>
      </trkpt>
      <trkpt lat="44.13174" lon="6.35363">
        <ele>982.1</ele>
        <time>2021-09-11T12:40:59Z</time>
      </trkpt>
      <trkpt lat="44.13173" lon="6.35363">
        <ele>982.2</ele>
        <time>2021-09-11T12:41:00Z</time>
      </trkpt>
      <trkpt lat="44.13172" lon="6.35362">
        <ele>982.4</ele>
        <time>2021-09-11T12:41:02Z</time>
      </trkpt>
      <trkpt lat="44.1317" lon="6.35361">
        <ele>982.5</ele>
        <time>2021-09-11T12:41:03Z</time>
      </trkpt>
      <trkpt lat="44.13167" lon="6.3536">
        <ele>982.8</ele>
        <time>2021-09-11T12:41:05Z</time>
      </trkpt>
      <trkpt lat="44.13166" lon="6.35359">
        <ele>982.9</ele>
        <time>2021-09-11T12:41:06Z</time>
      </trkpt>
      <trkpt lat="44.13165" lon="6.35359">
        <ele>983</ele>
        <time>2021-09-11T12:41:07Z</time>
      </trkpt>
      <trkpt lat="44.13164" lon="6.35358">
        <ele>983.2</ele>
        <time>2021-09-11T12:41:09Z</time>
      </trkpt>
      <trkpt lat="44.13162" lon="6.35357">
        <ele>983.3</ele>
        <time>2021-09-11T12:41:10Z</time>
      </trkpt>
      <trkpt lat="44.13161" lon="6.35357">
        <ele>983.4</ele>
        <time>2021-09-11T12:41:12Z</time>
      </trkpt>
      <trkpt lat="44.13161" lon="6.35357">
        <ele>983.4</ele>
        <time>2021-09-11T12:41:13Z</time>
      </trkpt>
      <trkpt lat="44.13158" lon="6.35357">
        <ele>983.7</ele>
        <time>2021-09-11T12:41:14Z</time>
      </trkpt>
      <trkpt lat="44.13157" lon="6.35358">
        <ele>983.8</ele>
        <time>2021-09-11T12:41:15Z</time>
      </trkpt>
      <trkpt lat="44.13154" lon="6.3536">
        <ele>984</ele>
        <time>2021-09-11T12:41:17Z</time>
      </trkpt>
      <trkpt lat="44.13153" lon="6.35361">
        <ele>984.1</ele>
        <time>2021-09-11T12:41:18Z</time>
      </trkpt>
      <trkpt lat="44.1315" lon="6.35364">
        <ele>984.3</ele>
        <time>2021-09-11T12:41:19Z</time>
      </trkpt>
      <trkpt lat="44.13149" lon="6.35365">
        <ele>984.4</ele>
        <time>2021-09-11T12:41:20Z</time>
      </trkpt>
      <trkpt lat="44.13148" lon="6.35366">
        <ele>984.5</ele>
        <time>2021-09-11T12:41:21Z</time>
      </trkpt>
      <trkpt lat="44.13145" lon="6.35367">
        <ele>984.7</ele>
        <time>2021-09-11T12:41:23Z</time>
      </trkpt>
      <trkpt lat="44.13143" lon="6.35369">
        <ele>984.8</ele>
        <time>2021-09-11T12:41:24Z</time>
      </trkpt>
      <trkpt lat="44.13142" lon="6.3537">
        <ele>984.9</ele>
        <time>2021-09-11T12:41:25Z</time>
      </trkpt>
      <trkpt lat="44.13138" lon="6.35372">
        <ele>985.1</ele>
        <time>2021-09-11T12:41:27Z</time>
      </trkpt>
      <trkpt lat="44.13136" lon="6.35373">
        <ele>985.2</ele>
        <time>2021-09-11T12:41:28Z</time>
      </trkpt>
      <trkpt lat="44.13131" lon="6.35374">
        <ele>985.4</ele>
        <time>2021-09-11T12:41:30Z</time>
      </trkpt>
      <trkpt lat="44.13128" lon="6.35375">
        <ele>985.5</ele>
        <time>2021-09-11T12:41:31Z</time>
      </trkpt>
      <trkpt lat="44.13127" lon="6.35375">
        <ele>985.5</ele>
        <time>2021-09-11T12:41:32Z</time>
      </trkpt>
      <trkpt lat="44.13124" lon="6.35375">
        <ele>985.6</ele>
        <time>2021-09-11T12:41:34Z</time>
      </trkpt>
      <trkpt lat="44.13121" lon="6.35374">
        <ele>985.6</ele>
        <time>2021-09-11T12:41:35Z</time>
      </trkpt>
      <trkpt lat="44.13119" lon="6.35375">
        <ele>985.7</ele>
        <time>2021-09-11T12:41:36Z</time>
      </trkpt>
      <trkpt lat="44.13118" lon="6.35374">
        <ele>985.7</ele>
        <time>2021-09-11T12:41:37Z</time>
      </trkpt>
      <trkpt lat="44.13116" lon="6.35373">
        <ele>985.8</ele>
        <time>2021-09-11T12:41:39Z</time>
      </trkpt>
      <trkpt lat="44.13115" lon="6.35372">
        <ele>985.8</ele>
        <time>2021-09-11T12:41:40Z</time>
      </trkpt>
      <trkpt lat="44.13113" lon="6.3537">
        <ele>985.9</ele>
        <time>2021-09-11T12:41:41Z</time>
      </trkpt>
      <trkpt lat="44.13112" lon="6.35369">
        <ele>985.9</ele>
        <time>2021-09-11T12:41:42Z</time>
      </trkpt>
      <trkpt lat="44.1311" lon="6.35367">
        <ele>986</ele>
        <time>2021-09-11T12:41:43Z</time>
      </trkpt>
      <trkpt lat="44.13109" lon="6.35366">
        <ele>986</ele>
        <time>2021-09-11T12:41:44Z</time>
      </trkpt>
      <trkpt lat="44.13107" lon="6.35365">
        <ele>986.1</ele>
        <time>2021-09-11T12:41:45Z</time>
      </trkpt>
      <trkpt lat="44.13105" lon="6.35365">
        <ele>986.2</ele>
        <time>2021-09-11T12:41:47Z</time>
      </trkpt>
      <trkpt lat="44.13102" lon="6.35367">
        <ele>986.3</ele>
        <time>2021-09-11T12:41:48Z</time>
      </trkpt>
      <trkpt lat="44.13101" lon="6.35368">
        <ele>986.4</ele>
        <time>2021-09-11T12:41:49Z</time>
      </trkpt>
      <trkpt lat="44.13098" lon="6.3537">
        <ele>986.5</ele>
        <time>2021-09-11T12:41:50Z</time>
      </trkpt>
      <trkpt lat="44.13097" lon="6.35372">
        <ele>986.6</ele>
        <time>2021-09-11T12:41:51Z</time>
      </trkpt>
      <trkpt lat="44.13093" lon="6.35376">
        <ele>986.8</ele>
        <time>2021-09-11T12:41:53Z</time>
      </trkpt>
      <trkpt lat="44.13092" lon="6.35378">
        <ele>986.9</ele>
        <time>2021-09-11T12:41:54Z</time>
      </trkpt>
      <trkpt lat="44.1309" lon="6.35383">
        <ele>987.1</ele>
        <time>2021-09-11T12:41:56Z</time>
      </trkpt>
      <trkpt lat="44.13089" lon="6.35388">
        <ele>987.2</ele>
        <time>2021-09-11T12:41:57Z</time>
      </trkpt>
      <trkpt lat="44.13086" lon="6.35394">
        <ele>987.4</ele>
        <time>2021-09-11T12:41:59Z</time>
      </trkpt>
      <trkpt lat="44.13085" lon="6.35397">
        <ele>987.5</ele>
        <time>2021-09-11T12:42:00Z</time>
      </trkpt>
      <trkpt lat="44.13082" lon="6.35402">
        <ele>987.5</ele>
        <time>2021-09-11T12:42:01Z</time>
      </trkpt>
      <trkpt lat="44.13082" lon="6.35403">
        <ele>987.6</ele>
        <time>2021-09-11T12:42:02Z</time>
      </trkpt>
      <trkpt lat="44.13079" lon="6.35409">
        <ele>987.7</ele>
        <time>2021-09-11T12:42:04Z</time>
      </trkpt>
      <trkpt lat="44.13076" lon="6.35411">
        <ele>987.7</ele>
        <time>2021-09-11T12:42:05Z</time>
      </trkpt>
      <trkpt lat="44.13072" lon="6.35415">
        <ele>987.8</ele>
        <time>2021-09-11T12:42:07Z</time>
      </trkpt>
      <trkpt lat="44.1307" lon="6.35417">
        <ele>987.9</ele>
        <time>2021-09-11T12:42:08Z</time>
      </trkpt>
      <trkpt lat="44.13068" lon="6.3542">
        <ele>987.9</ele>
        <time>2021-09-11T12:42:09Z</time>
      </trkpt>
      <trkpt lat="44.13064" lon="6.35425">
        <ele>988</ele>
        <time>2021-09-11T12:42:11Z</time>
      </trkpt>
      <trkpt lat="44.13062" lon="6.3543">
        <ele>988.1</ele>
        <time>2021-09-11T12:42:13Z</time>
      </trkpt>
      <trkpt lat="44.1306" lon="6.35434">
        <ele>988.2</ele>
        <time>2021-09-11T12:42:14Z</time>
      </trkpt>
      <trkpt lat="44.13057" lon="6.35438">
        <ele>988.3</ele>
        <time>2021-09-11T12:42:16Z</time>
      </trkpt>
      <trkpt lat="44.13055" lon="6.35441">
        <ele>988.4</ele>
        <time>2021-09-11T12:42:17Z</time>
      </trkpt>
      <trkpt lat="44.1305" lon="6.35446">
        <ele>988.5</ele>
        <time>2021-09-11T12:42:19Z</time>
      </trkpt>
      <trkpt lat="44.13047" lon="6.3545">
        <ele>988.6</ele>
        <time>2021-09-11T12:42:21Z</time>
      </trkpt>
      <trkpt lat="44.13043" lon="6.35453">
        <ele>988.7</ele>
        <time>2021-09-11T12:42:22Z</time>
      </trkpt>
      <trkpt lat="44.1304" lon="6.35454">
        <ele>988.8</ele>
        <time>2021-09-11T12:42:23Z</time>
      </trkpt>
      <trkpt lat="44.13037" lon="6.35456">
        <ele>988.9</ele>
        <time>2021-09-11T12:42:24Z</time>
      </trkpt>
      <trkpt lat="44.13034" lon="6.35458">
        <ele>989.1</ele>
        <time>2021-09-11T12:42:26Z</time>
      </trkpt>
      <trkpt lat="44.13031" lon="6.3546">
        <ele>989.2</ele>
        <time>2021-09-11T12:42:27Z</time>
      </trkpt>
      <trkpt lat="44.13029" lon="6.3546">
        <ele>989.3</ele>
        <time>2021-09-11T12:42:28Z</time>
      </trkpt>
      <trkpt lat="44.13026" lon="6.35462">
        <ele>989.4</ele>
        <time>2021-09-11T12:42:30Z</time>
      </trkpt>
      <trkpt lat="44.13023" lon="6.35466">
        <ele>989.6</ele>
        <time>2021-09-11T12:42:31Z</time>
      </trkpt>
      <trkpt lat="44.13021" lon="6.3547">
        <ele>989.7</ele>
        <time>2021-09-11T12:42:32Z</time>
      </trkpt>
      <trkpt lat="44.13018" lon="6.35475">
        <ele>989.9</ele>
        <time>2021-09-11T12:42:34Z</time>
      </trkpt>
      <trkpt lat="44.13016" lon="6.35478">
        <ele>990</ele>
        <time>2021-09-11T12:42:35Z</time>
      </trkpt>
      <trkpt lat="44.13015" lon="6.35481">
        <ele>990.1</ele>
        <time>2021-09-11T12:42:36Z</time>
      </trkpt>
      <trkpt lat="44.13012" lon="6.35484">
        <ele>990.3</ele>
        <time>2021-09-11T12:42:38Z</time>
      </trkpt>
      <trkpt lat="44.1301" lon="6.35487">
        <ele>990.4</ele>
        <time>2021-09-11T12:42:39Z</time>
      </trkpt>
      <trkpt lat="44.13008" lon="6.35491">
        <ele>990.5</ele>
        <time>2021-09-11T12:42:41Z</time>
      </trkpt>
      <trkpt lat="44.13006" lon="6.35494">
        <ele>990.7</ele>
        <time>2021-09-11T12:42:43Z</time>
      </trkpt>
      <trkpt lat="44.13005" lon="6.35497">
        <ele>990.8</ele>
        <time>2021-09-11T12:42:44Z</time>
      </trkpt>
      <trkpt lat="44.13003" lon="6.35501">
        <ele>991</ele>
        <time>2021-09-11T12:42:46Z</time>
      </trkpt>
      <trkpt lat="44.13" lon="6.35505">
        <ele>991.1</ele>
        <time>2021-09-11T12:42:48Z</time>
      </trkpt>
      <trkpt lat="44.12997" lon="6.35507">
        <ele>991.3</ele>
        <time>2021-09-11T12:42:49Z</time>
      </trkpt>
      <trkpt lat="44.12994" lon="6.35511">
        <ele>991.5</ele>
        <time>2021-09-11T12:42:51Z</time>
      </trkpt>
      <trkpt lat="44.12991" lon="6.35513">
        <ele>991.6</ele>
        <time>2021-09-11T12:42:53Z</time>
      </trkpt>
      <trkpt lat="44.12988" lon="6.35514">
        <ele>991.8</ele>
        <time>2021-09-11T12:42:54Z</time>
      </trkpt>
      <trkpt lat="44.12986" lon="6.35516">
        <ele>991.9</ele>
        <time>2021-09-11T12:42:55Z</time>
      </trkpt>
      <trkpt lat="44.12984" lon="6.35517">
        <ele>992</ele>
        <time>2021-09-11T12:42:57Z</time>
      </trkpt>
      <trkpt lat="44.12981" lon="6.35518">
        <ele>992.1</ele>
        <time>2021-09-11T12:42:58Z</time>
      </trkpt>
      <trkpt lat="44.1298" lon="6.35518">
        <ele>992.1</ele>
        <time>2021-09-11T12:42:59Z</time>
      </trkpt>
      <trkpt lat="44.12977" lon="6.35517">
        <ele>992.3</ele>
        <time>2021-09-11T12:43:01Z</time>
      </trkpt>
      <trkpt lat="44.12975" lon="6.35517">
        <ele>992.4</ele>
        <time>2021-09-11T12:43:02Z</time>
      </trkpt>
      <trkpt lat="44.12973" lon="6.35516">
        <ele>992.5</ele>
        <time>2021-09-11T12:43:04Z</time>
      </trkpt>
      <trkpt lat="44.12971" lon="6.35516">
        <ele>992.6</ele>
        <time>2021-09-11T12:43:05Z</time>
      </trkpt>
      <trkpt lat="44.12971" lon="6.35515">
        <ele>992.7</ele>
        <time>2021-09-11T12:43:07Z</time>
      </trkpt>
      <trkpt lat="44.12971" lon="6.35515">
        <ele>992.7</ele>
        <time>2021-09-11T12:43:09Z</time>
      </trkpt>
      <trkpt lat="44.12971" lon="6.35515">
        <ele>992.7</ele>
        <time>2021-09-11T12:43:10Z</time>
      </trkpt>
      <trkpt lat="44.12971" lon="6.35515">
        <ele>992.7</ele>
        <time>2021-09-11T12:43:11Z</time>
      </trkpt>
      <trkpt lat="44.12971" lon="6.35515">
        <ele>992.7</ele>
        <time>2021-09-11T12:43:13Z</time>
      </trkpt>
      <trkpt lat="44.12971" lon="6.35515">
        <ele>992.7</ele>
        <time>2021-09-11T12:43:14Z</time>
      </trkpt>
      <trkpt lat="44.12971" lon="6.35515">
        <ele>992.7</ele>
        <time>2021-09-11T12:43:15Z</time>
      </trkpt>
      <trkpt lat="44.12957" lon="6.35514">
        <ele>993.5</ele>
        <time>2021-09-11T12:43:30Z</time>
      </trkpt>
      <trkpt lat="44.12957" lon="6.35512">
        <ele>993.5</ele>
        <time>2021-09-11T12:43:31Z</time>
      </trkpt>
      <trkpt lat="44.12956" lon="6.35511">
        <ele>993.6</ele>
        <time>2021-09-11T12:43:32Z</time>
      </trkpt>
      <trkpt lat="44.12951" lon="6.35511">
        <ele>994</ele>
        <time>2021-09-11T12:43:34Z</time>
      </trkpt>
      <trkpt lat="44.12948" lon="6.35511">
        <ele>994.1</ele>
        <time>2021-09-11T12:43:35Z</time>
      </trkpt>
      <trkpt lat="44.12944" lon="6.35507">
        <ele>994.4</ele>
        <time>2021-09-11T12:43:37Z</time>
      </trkpt>
      <trkpt lat="44.12944" lon="6.35505">
        <ele>994.5</ele>
        <time>2021-09-11T12:43:38Z</time>
      </trkpt>
      <trkpt lat="44.12943" lon="6.35504">
        <ele>994.6</ele>
        <time>2021-09-11T12:43:39Z</time>
      </trkpt>
      <trkpt lat="44.1294" lon="6.35501">
        <ele>994.9</ele>
        <time>2021-09-11T12:43:40Z</time>
      </trkpt>
      <trkpt lat="44.12937" lon="6.35499">
        <ele>995.1</ele>
        <time>2021-09-11T12:43:41Z</time>
      </trkpt>
      <trkpt lat="44.12934" lon="6.35497">
        <ele>995.3</ele>
        <time>2021-09-11T12:43:42Z</time>
      </trkpt>
      <trkpt lat="44.12932" lon="6.35495">
        <ele>995.6</ele>
        <time>2021-09-11T12:43:43Z</time>
      </trkpt>
      <trkpt lat="44.12929" lon="6.35493">
        <ele>995.8</ele>
        <time>2021-09-11T12:43:45Z</time>
      </trkpt>
      <trkpt lat="44.12927" lon="6.35491">
        <ele>996.1</ele>
        <time>2021-09-11T12:43:46Z</time>
      </trkpt>
      <trkpt lat="44.12924" lon="6.35489">
        <ele>996.4</ele>
        <time>2021-09-11T12:43:47Z</time>
      </trkpt>
      <trkpt lat="44.12921" lon="6.35486">
        <ele>996.6</ele>
        <time>2021-09-11T12:43:48Z</time>
      </trkpt>
      <trkpt lat="44.12919" lon="6.35484">
        <ele>996.9</ele>
        <time>2021-09-11T12:43:50Z</time>
      </trkpt>
      <trkpt lat="44.12916" lon="6.35482">
        <ele>997.1</ele>
        <time>2021-09-11T12:44:30Z</time>
      </trkpt>
      <trkpt lat="44.12913" lon="6.3548">
        <ele>997.4</ele>
        <time>2021-09-11T12:44:32Z</time>
      </trkpt>
      <trkpt lat="44.12911" lon="6.35478">
        <ele>997.7</ele>
        <time>2021-09-11T12:44:33Z</time>
      </trkpt>
      <trkpt lat="44.1291" lon="6.35477">
        <ele>997.8</ele>
        <time>2021-09-11T12:44:34Z</time>
      </trkpt>
      <trkpt lat="44.1291" lon="6.35476">
        <ele>997.8</ele>
        <time>2021-09-11T12:44:35Z</time>
      </trkpt>
      <trkpt lat="44.12909" lon="6.35476">
        <ele>997.9</ele>
        <time>2021-09-11T12:44:36Z</time>
      </trkpt>
      <trkpt lat="44.12909" lon="6.35475">
        <ele>997.9</ele>
        <time>2021-09-11T12:44:38Z</time>
      </trkpt>
      <trkpt lat="44.12909" lon="6.35475">
        <ele>997.9</ele>
        <time>2021-09-11T12:44:39Z</time>
      </trkpt>
      <trkpt lat="44.12909" lon="6.35475">
        <ele>998</ele>
        <time>2021-09-11T12:44:40Z</time>
      </trkpt>
      <trkpt lat="44.12908" lon="6.35475">
        <ele>998</ele>
        <time>2021-09-11T12:44:41Z</time>
      </trkpt>
      <trkpt lat="44.12908" lon="6.35475">
        <ele>998</ele>
        <time>2021-09-11T12:44:43Z</time>
      </trkpt>
      <trkpt lat="44.12885" lon="6.35477">
        <ele>999.9</ele>
        <time>2021-09-11T12:45:01Z</time>
      </trkpt>
      <trkpt lat="44.12883" lon="6.35477">
        <ele>1000</ele>
        <time>2021-09-11T12:45:02Z</time>
      </trkpt>
      <trkpt lat="44.1288" lon="6.3548">
        <ele>1000.3</ele>
        <time>2021-09-11T12:45:04Z</time>
      </trkpt>
      <trkpt lat="44.12877" lon="6.35486">
        <ele>1000.6</ele>
        <time>2021-09-11T12:45:06Z</time>
      </trkpt>
      <trkpt lat="44.12876" lon="6.35487">
        <ele>1000.7</ele>
        <time>2021-09-11T12:45:07Z</time>
      </trkpt>
      <trkpt lat="44.12874" lon="6.35487">
        <ele>1000.8</ele>
        <time>2021-09-11T12:45:08Z</time>
      </trkpt>
      <trkpt lat="44.12872" lon="6.35486">
        <ele>1000.9</ele>
        <time>2021-09-11T12:45:10Z</time>
      </trkpt>
      <trkpt lat="44.12868" lon="6.35483">
        <ele>1001.1</ele>
        <time>2021-09-11T12:45:12Z</time>
      </trkpt>
      <trkpt lat="44.12866" lon="6.35478">
        <ele>1001.3</ele>
        <time>2021-09-11T12:45:13Z</time>
      </trkpt>
      <trkpt lat="44.12865" lon="6.35477">
        <ele>1001.4</ele>
        <time>2021-09-11T12:45:14Z</time>
      </trkpt>
      <trkpt lat="44.12865" lon="6.35471">
        <ele>1001.5</ele>
        <time>2021-09-11T12:45:15Z</time>
      </trkpt>
      <trkpt lat="44.12864" lon="6.3547">
        <ele>1001.5</ele>
        <time>2021-09-11T12:45:16Z</time>
      </trkpt>
      <trkpt lat="44.12862" lon="6.35464">
        <ele>1001.6</ele>
        <time>2021-09-11T12:45:18Z</time>
      </trkpt>
      <trkpt lat="44.12862" lon="6.35462">
        <ele>1001.7</ele>
        <time>2021-09-11T12:45:19Z</time>
      </trkpt>
      <trkpt lat="44.12861" lon="6.35459">
        <ele>1001.7</ele>
        <time>2021-09-11T12:45:20Z</time>
      </trkpt>
      <trkpt lat="44.12861" lon="6.35457">
        <ele>1001.7</ele>
        <time>2021-09-11T12:45:21Z</time>
      </trkpt>
      <trkpt lat="44.1286" lon="6.35455">
        <ele>1001.7</ele>
        <time>2021-09-11T12:45:23Z</time>
      </trkpt>
      <trkpt lat="44.12859" lon="6.35455">
        <ele>1001.8</ele>
        <time>2021-09-11T12:45:24Z</time>
      </trkpt>
      <trkpt lat="44.12857" lon="6.35454">
        <ele>1001.8</ele>
        <time>2021-09-11T12:45:25Z</time>
      </trkpt>
      <trkpt lat="44.12854" lon="6.35452">
        <ele>1001.9</ele>
        <time>2021-09-11T12:45:27Z</time>
      </trkpt>
      <trkpt lat="44.12853" lon="6.35451">
        <ele>1001.9</ele>
        <time>2021-09-11T12:45:28Z</time>
      </trkpt>
      <trkpt lat="44.1285" lon="6.35449">
        <ele>1002</ele>
        <time>2021-09-11T12:45:29Z</time>
      </trkpt>
      <trkpt lat="44.12848" lon="6.35445">
        <ele>1002.1</ele>
        <time>2021-09-11T12:45:31Z</time>
      </trkpt>
      <trkpt lat="44.12847" lon="6.35444">
        <ele>1002.1</ele>
        <time>2021-09-11T12:45:32Z</time>
      </trkpt>
      <trkpt lat="44.12849" lon="6.35441">
        <ele>1002.2</ele>
        <time>2021-09-11T12:45:33Z</time>
      </trkpt>
      <trkpt lat="44.1285" lon="6.35439">
        <ele>1002.3</ele>
        <time>2021-09-11T12:45:34Z</time>
      </trkpt>
      <trkpt lat="44.1285" lon="6.35437">
        <ele>1002.4</ele>
        <time>2021-09-11T12:45:36Z</time>
      </trkpt>
      <trkpt lat="44.12851" lon="6.35434">
        <ele>1002.5</ele>
        <time>2021-09-11T12:45:37Z</time>
      </trkpt>
      <trkpt lat="44.12851" lon="6.35434">
        <ele>1002.5</ele>
        <time>2021-09-11T12:45:38Z</time>
      </trkpt>
      <trkpt lat="44.12853" lon="6.35433">
        <ele>1002.6</ele>
        <time>2021-09-11T12:45:40Z</time>
      </trkpt>
      <trkpt lat="44.12853" lon="6.35433">
        <ele>1002.6</ele>
        <time>2021-09-11T12:45:41Z</time>
      </trkpt>
      <trkpt lat="44.12853" lon="6.35432">
        <ele>1002.7</ele>
        <time>2021-09-11T12:45:42Z</time>
      </trkpt>
      <trkpt lat="44.12854" lon="6.35432">
        <ele>1002.7</ele>
        <time>2021-09-11T12:45:44Z</time>
      </trkpt>
      <trkpt lat="44.12854" lon="6.35432">
        <ele>1002.7</ele>
        <time>2021-09-11T12:45:45Z</time>
      </trkpt>
      <trkpt lat="44.12854" lon="6.35431">
        <ele>1002.7</ele>
        <time>2021-09-11T12:45:46Z</time>
      </trkpt>
      <trkpt lat="44.12854" lon="6.35431">
        <ele>1002.7</ele>
        <time>2021-09-11T12:45:47Z</time>
      </trkpt>
      <trkpt lat="44.12852" lon="6.35415">
        <ele>1003.8</ele>
        <time>2021-09-11T12:45:56Z</time>
      </trkpt>
      <trkpt lat="44.12853" lon="6.35411">
        <ele>1004</ele>
        <time>2021-09-11T12:45:58Z</time>
      </trkpt>
      <trkpt lat="44.12855" lon="6.35407">
        <ele>1004.4</ele>
        <time>2021-09-11T12:45:59Z</time>
      </trkpt>
      <trkpt lat="44.12856" lon="6.35404">
        <ele>1004.6</ele>
        <time>2021-09-11T12:46:00Z</time>
      </trkpt>
      <trkpt lat="44.12856" lon="6.35402">
        <ele>1004.7</ele>
        <time>2021-09-11T12:46:01Z</time>
      </trkpt>
      <trkpt lat="44.12856" lon="6.354">
        <ele>1004.9</ele>
        <time>2021-09-11T12:46:03Z</time>
      </trkpt>
      <trkpt lat="44.12857" lon="6.35398">
        <ele>1005.1</ele>
        <time>2021-09-11T12:46:04Z</time>
      </trkpt>
      <trkpt lat="44.12857" lon="6.35397">
        <ele>1005.1</ele>
        <time>2021-09-11T12:46:05Z</time>
      </trkpt>
      <trkpt lat="44.12857" lon="6.35397">
        <ele>1005.1</ele>
        <time>2021-09-11T12:46:07Z</time>
      </trkpt>
      <trkpt lat="44.12857" lon="6.35396">
        <ele>1005.2</ele>
        <time>2021-09-11T12:46:08Z</time>
      </trkpt>
      <trkpt lat="44.12857" lon="6.35395">
        <ele>1005.3</ele>
        <time>2021-09-11T12:46:09Z</time>
      </trkpt>
      <trkpt lat="44.12856" lon="6.35394">
        <ele>1005.3</ele>
        <time>2021-09-11T12:46:11Z</time>
      </trkpt>
      <trkpt lat="44.12856" lon="6.35393">
        <ele>1005.4</ele>
        <time>2021-09-11T12:46:12Z</time>
      </trkpt>
      <trkpt lat="44.12856" lon="6.35392">
        <ele>1005.4</ele>
        <time>2021-09-11T12:46:13Z</time>
      </trkpt>
      <trkpt lat="44.12855" lon="6.35392">
        <ele>1005.5</ele>
        <time>2021-09-11T12:46:15Z</time>
      </trkpt>
      <trkpt lat="44.12855" lon="6.35391">
        <ele>1005.6</ele>
        <time>2021-09-11T12:46:17Z</time>
      </trkpt>
      <trkpt lat="44.12762" lon="6.35362">
        <ele>1015.6</ele>
        <time>2021-09-11T12:49:13Z</time>
      </trkpt>
      <trkpt lat="44.12763" lon="6.35367">
        <ele>1016</ele>
        <time>2021-09-11T12:49:14Z</time>
      </trkpt>
      <trkpt lat="44.12767" lon="6.35376">
        <ele>1016.7</ele>
        <time>2021-09-11T12:49:16Z</time>
      </trkpt>
      <trkpt lat="44.12768" lon="6.35379">
        <ele>1016.9</ele>
        <time>2021-09-11T12:49:17Z</time>
      </trkpt>
      <trkpt lat="44.12769" lon="6.3538">
        <ele>1017</ele>
        <time>2021-09-11T12:49:19Z</time>
      </trkpt>
      <trkpt lat="44.12771" lon="6.35381">
        <ele>1017.1</ele>
        <time>2021-09-11T12:49:20Z</time>
      </trkpt>
      <trkpt lat="44.12773" lon="6.35381">
        <ele>1017.3</ele>
        <time>2021-09-11T12:49:22Z</time>
      </trkpt>
      <trkpt lat="44.12774" lon="6.35381">
        <ele>1017.4</ele>
        <time>2021-09-11T12:49:23Z</time>
      </trkpt>
      <trkpt lat="44.12777" lon="6.35381">
        <ele>1017.6</ele>
        <time>2021-09-11T12:49:25Z</time>
      </trkpt>
      <trkpt lat="44.12778" lon="6.3538">
        <ele>1017.7</ele>
        <time>2021-09-11T12:49:26Z</time>
      </trkpt>
      <trkpt lat="44.12779" lon="6.35378">
        <ele>1017.8</ele>
        <time>2021-09-11T12:49:28Z</time>
      </trkpt>
      <trkpt lat="44.12779" lon="6.35377">
        <ele>1017.9</ele>
        <time>2021-09-11T12:49:29Z</time>
      </trkpt>
      <trkpt lat="44.12779" lon="6.35375">
        <ele>1017.9</ele>
        <time>2021-09-11T12:49:30Z</time>
      </trkpt>
      <trkpt lat="44.12779" lon="6.35373">
        <ele>1018.1</ele>
        <time>2021-09-11T12:49:32Z</time>
      </trkpt>
      <trkpt lat="44.12775" lon="6.35369">
        <ele>1018.3</ele>
        <time>2021-09-11T12:49:33Z</time>
      </trkpt>
      <trkpt lat="44.1277" lon="6.35365">
        <ele>1018.7</ele>
        <time>2021-09-11T12:49:35Z</time>
      </trkpt>
      <trkpt lat="44.12767" lon="6.35363">
        <ele>1018.9</ele>
        <time>2021-09-11T12:49:36Z</time>
      </trkpt>
      <trkpt lat="44.12763" lon="6.35361">
        <ele>1019.1</ele>
        <time>2021-09-11T12:49:38Z</time>
      </trkpt>
      <trkpt lat="44.1276" lon="6.35359">
        <ele>1019.3</ele>
        <time>2021-09-11T12:49:40Z</time>
      </trkpt>
      <trkpt lat="44.12759" lon="6.35358">
        <ele>1019.4</ele>
        <time>2021-09-11T12:49:41Z</time>
      </trkpt>
      <trkpt lat="44.12756" lon="6.35356">
        <ele>1019.6</ele>
        <time>2021-09-11T12:49:42Z</time>
      </trkpt>
      <trkpt lat="44.12755" lon="6.35355">
        <ele>1019.7</ele>
        <time>2021-09-11T12:49:43Z</time>
      </trkpt>
      <trkpt lat="44.12753" lon="6.35354">
        <ele>1019.8</ele>
        <time>2021-09-11T12:49:44Z</time>
      </trkpt>
      <trkpt lat="44.12752" lon="6.35353">
        <ele>1019.9</ele>
        <time>2021-09-11T12:49:45Z</time>
      </trkpt>
      <trkpt lat="44.12751" lon="6.35353">
        <ele>1020</ele>
        <time>2021-09-11T12:49:47Z</time>
      </trkpt>
      <trkpt lat="44.1275" lon="6.35353">
        <ele>1020</ele>
        <time>2021-09-11T12:49:48Z</time>
      </trkpt>
      <trkpt lat="44.1275" lon="6.35352">
        <ele>1020</ele>
        <time>2021-09-11T12:49:49Z</time>
      </trkpt>
      <trkpt lat="44.12749" lon="6.35352">
        <ele>1020.1</ele>
        <time>2021-09-11T12:49:50Z</time>
      </trkpt>
      <trkpt lat="44.12747" lon="6.35351">
        <ele>1020.2</ele>
        <time>2021-09-11T12:49:52Z</time>
      </trkpt>
      <trkpt lat="44.12746" lon="6.35351">
        <ele>1020.3</ele>
        <time>2021-09-11T12:49:53Z</time>
      </trkpt>
      <trkpt lat="44.12745" lon="6.35349">
        <ele>1020.4</ele>
        <time>2021-09-11T12:49:54Z</time>
      </trkpt>
      <trkpt lat="44.12743" lon="6.35348">
        <ele>1020.6</ele>
        <time>2021-09-11T12:49:56Z</time>
      </trkpt>
      <trkpt lat="44.12737" lon="6.35344">
        <ele>1021.1</ele>
        <time>2021-09-11T12:49:59Z</time>
      </trkpt>
      <trkpt lat="44.12734" lon="6.35342">
        <ele>1021.3</ele>
        <time>2021-09-11T12:50:00Z</time>
      </trkpt>
      <trkpt lat="44.12733" lon="6.35341">
        <ele>1021.5</ele>
        <time>2021-09-11T12:50:01Z</time>
      </trkpt>
      <trkpt lat="44.12731" lon="6.35341">
        <ele>1021.6</ele>
        <time>2021-09-11T12:50:02Z</time>
      </trkpt>
      <trkpt lat="44.12729" lon="6.35341">
        <ele>1021.9</ele>
        <time>2021-09-11T12:50:03Z</time>
      </trkpt>
      <trkpt lat="44.12726" lon="6.35342">
        <ele>1022.2</ele>
        <time>2021-09-11T12:50:05Z</time>
      </trkpt>
      <trkpt lat="44.12722" lon="6.35343">
        <ele>1022.5</ele>
        <time>2021-09-11T12:50:06Z</time>
      </trkpt>
      <trkpt lat="44.12722" lon="6.35343">
        <ele>1022.6</ele>
        <time>2021-09-11T12:50:07Z</time>
      </trkpt>
      <trkpt lat="44.12719" lon="6.35345">
        <ele>1022.9</ele>
        <time>2021-09-11T12:50:09Z</time>
      </trkpt>
      <trkpt lat="44.12718" lon="6.35346">
        <ele>1023.1</ele>
        <time>2021-09-11T12:50:10Z</time>
      </trkpt>
      <trkpt lat="44.12716" lon="6.35351">
        <ele>1023.5</ele>
        <time>2021-09-11T12:50:12Z</time>
      </trkpt>
      <trkpt lat="44.12715" lon="6.35352">
        <ele>1023.6</ele>
        <time>2021-09-11T12:50:13Z</time>
      </trkpt>
      <trkpt lat="44.12715" lon="6.35353">
        <ele>1023.7</ele>
        <time>2021-09-11T12:50:14Z</time>
      </trkpt>
      <trkpt lat="44.12715" lon="6.35355">
        <ele>1023.8</ele>
        <time>2021-09-11T12:50:15Z</time>
      </trkpt>
      <trkpt lat="44.12714" lon="6.35355">
        <ele>1023.9</ele>
        <time>2021-09-11T12:50:16Z</time>
      </trkpt>
      <trkpt lat="44.12714" lon="6.35355">
        <ele>1023.9</ele>
        <time>2021-09-11T12:50:18Z</time>
      </trkpt>
      <trkpt lat="44.12714" lon="6.35355">
        <ele>1023.9</ele>
        <time>2021-09-11T12:50:20Z</time>
      </trkpt>
      <trkpt lat="44.12714" lon="6.35355">
        <ele>1023.9</ele>
        <time>2021-09-11T12:50:21Z</time>
      </trkpt>
      <trkpt lat="44.12714" lon="6.35356">
        <ele>1024</ele>
        <time>2021-09-11T12:50:23Z</time>
      </trkpt>
      <trkpt lat="44.12715" lon="6.35356">
        <ele>1024</ele>
        <time>2021-09-11T12:50:24Z</time>
      </trkpt>
      <trkpt lat="44.12715" lon="6.35356">
        <ele>1024</ele>
        <time>2021-09-11T12:50:26Z</time>
      </trkpt>
      <trkpt lat="44.1271" lon="6.35403">
        <ele>1027.8</ele>
        <time>2021-09-11T12:51:37Z</time>
      </trkpt>
      <trkpt lat="44.12711" lon="6.35402">
        <ele>1027.9</ele>
        <time>2021-09-11T12:51:39Z</time>
      </trkpt>
      <trkpt lat="44.12712" lon="6.35401">
        <ele>1028</ele>
        <time>2021-09-11T12:51:40Z</time>
      </trkpt>
      <trkpt lat="44.12713" lon="6.35401">
        <ele>1028.1</ele>
        <time>2021-09-11T12:51:41Z</time>
      </trkpt>
      <trkpt lat="44.12713" lon="6.35401">
        <ele>1028.1</ele>
        <time>2021-09-11T12:51:42Z</time>
      </trkpt>
      <trkpt lat="44.12714" lon="6.354">
        <ele>1028.3</ele>
        <time>2021-09-11T12:51:44Z</time>
      </trkpt>
      <trkpt lat="44.12714" lon="6.354">
        <ele>1028.3</ele>
        <time>2021-09-11T12:51:45Z</time>
      </trkpt>
      <trkpt lat="44.12715" lon="6.35399">
        <ele>1028.4</ele>
        <time>2021-09-11T12:51:47Z</time>
      </trkpt>
      <trkpt lat="44.12716" lon="6.35399">
        <ele>1028.5</ele>
        <time>2021-09-11T12:51:49Z</time>
      </trkpt>
      <trkpt lat="44.12716" lon="6.35398">
        <ele>1028.5</ele>
        <time>2021-09-11T12:51:51Z</time>
      </trkpt>
      <trkpt lat="44.12717" lon="6.35396">
        <ele>1028.8</ele>
        <time>2021-09-11T12:51:53Z</time>
      </trkpt>
      <trkpt lat="44.12717" lon="6.35395">
        <ele>1028.8</ele>
        <time>2021-09-11T12:51:55Z</time>
      </trkpt>
      <trkpt lat="44.12717" lon="6.35395">
        <ele>1028.8</ele>
        <time>2021-09-11T12:51:56Z</time>
      </trkpt>
      <trkpt lat="44.12717" lon="6.35396">
        <ele>1028.9</ele>
        <time>2021-09-11T12:51:58Z</time>
      </trkpt>
      <trkpt lat="44.12718" lon="6.35396">
        <ele>1028.9</ele>
        <time>2021-09-11T12:52:00Z</time>
      </trkpt>
      <trkpt lat="44.12718" lon="6.35396">
        <ele>1028.9</ele>
        <time>2021-09-11T12:52:02Z</time>
      </trkpt>
      <trkpt lat="44.12718" lon="6.35396">
        <ele>1029</ele>
        <time>2021-09-11T12:52:03Z</time>
      </trkpt>
      <trkpt lat="44.12718" lon="6.35396">
        <ele>1029</ele>
        <time>2021-09-11T12:52:04Z</time>
      </trkpt>
      <trkpt lat="44.12718" lon="6.35397">
        <ele>1029.1</ele>
        <time>2021-09-11T12:52:06Z</time>
      </trkpt>
      <trkpt lat="44.12717" lon="6.35401">
        <ele>1029.5</ele>
        <time>2021-09-11T12:52:08Z</time>
      </trkpt>
      <trkpt lat="44.12716" lon="6.35404">
        <ele>1029.6</ele>
        <time>2021-09-11T12:52:09Z</time>
      </trkpt>
      <trkpt lat="44.12716" lon="6.35405">
        <ele>1029.7</ele>
        <time>2021-09-11T12:52:10Z</time>
      </trkpt>
      <trkpt lat="44.12716" lon="6.35407">
        <ele>1029.9</ele>
        <time>2021-09-11T12:52:11Z</time>
      </trkpt>
      <trkpt lat="44.12716" lon="6.35408">
        <ele>1030</ele>
        <time>2021-09-11T12:52:13Z</time>
      </trkpt>
      <trkpt lat="44.12715" lon="6.35409">
        <ele>1030</ele>
        <time>2021-09-11T12:52:14Z</time>
      </trkpt>
      <trkpt lat="44.12715" lon="6.3541">
        <ele>1030.1</ele>
        <time>2021-09-11T12:52:15Z</time>
      </trkpt>
      <trkpt lat="44.12715" lon="6.35411">
        <ele>1030.1</ele>
        <time>2021-09-11T12:52:16Z</time>
      </trkpt>
      <trkpt lat="44.12715" lon="6.35411">
        <ele>1030.2</ele>
        <time>2021-09-11T12:52:18Z</time>
      </trkpt>
      <trkpt lat="44.12715" lon="6.35413">
        <ele>1030.3</ele>
        <time>2021-09-11T12:52:20Z</time>
      </trkpt>
      <trkpt lat="44.12714" lon="6.35415">
        <ele>1030.5</ele>
        <time>2021-09-11T12:52:21Z</time>
      </trkpt>
      <trkpt lat="44.12714" lon="6.35417">
        <ele>1030.6</ele>
        <time>2021-09-11T12:52:22Z</time>
      </trkpt>
      <trkpt lat="44.12714" lon="6.35419">
        <ele>1030.8</ele>
        <time>2021-09-11T12:52:23Z</time>
      </trkpt>
      <trkpt lat="44.12713" lon="6.35421">
        <ele>1030.9</ele>
        <time>2021-09-11T12:52:24Z</time>
      </trkpt>
      <trkpt lat="44.12713" lon="6.35423">
        <ele>1031.1</ele>
        <time>2021-09-11T12:52:26Z</time>
      </trkpt>
      <trkpt lat="44.12712" lon="6.35426">
        <ele>1031.3</ele>
        <time>2021-09-11T12:52:27Z</time>
      </trkpt>
      <trkpt lat="44.12712" lon="6.35427">
        <ele>1031.4</ele>
        <time>2021-09-11T12:52:28Z</time>
      </trkpt>
      <trkpt lat="44.12712" lon="6.35432">
        <ele>1031.7</ele>
        <time>2021-09-11T12:52:30Z</time>
      </trkpt>
      <trkpt lat="44.12712" lon="6.35433">
        <ele>1031.8</ele>
        <time>2021-09-11T12:52:31Z</time>
      </trkpt>
      <trkpt lat="44.12712" lon="6.35435">
        <ele>1032</ele>
        <time>2021-09-11T12:52:32Z</time>
      </trkpt>
      <trkpt lat="44.12713" lon="6.35438">
        <ele>1032.2</ele>
        <time>2021-09-11T12:52:33Z</time>
      </trkpt>
      <trkpt lat="44.12713" lon="6.3544">
        <ele>1032.3</ele>
        <time>2021-09-11T12:52:35Z</time>
      </trkpt>
      <trkpt lat="44.12713" lon="6.35441">
        <ele>1032.5</ele>
        <time>2021-09-11T12:52:36Z</time>
      </trkpt>
      <trkpt lat="44.12714" lon="6.35443">
        <ele>1032.6</ele>
        <time>2021-09-11T12:52:37Z</time>
      </trkpt>
      <trkpt lat="44.12714" lon="6.35443">
        <ele>1032.7</ele>
        <time>2021-09-11T12:52:38Z</time>
      </trkpt>
      <trkpt lat="44.12714" lon="6.35444">
        <ele>1032.7</ele>
        <time>2021-09-11T12:52:39Z</time>
      </trkpt>
      <trkpt lat="44.12714" lon="6.35444">
        <ele>1032.8</ele>
        <time>2021-09-11T12:52:41Z</time>
      </trkpt>
      <trkpt lat="44.12714" lon="6.35445">
        <ele>1032.8</ele>
        <time>2021-09-11T12:52:42Z</time>
      </trkpt>
      <trkpt lat="44.12714" lon="6.35445">
        <ele>1032.8</ele>
        <time>2021-09-11T12:52:43Z</time>
      </trkpt>
      <trkpt lat="44.1269" lon="6.35504">
        <ele>1039.6</ele>
        <time>2021-09-11T12:54:06Z</time>
      </trkpt>
      <trkpt lat="44.12687" lon="6.35503">
        <ele>1039.8</ele>
        <time>2021-09-11T12:54:07Z</time>
      </trkpt>
      <trkpt lat="44.12683" lon="6.35502">
        <ele>1040.2</ele>
        <time>2021-09-11T12:54:09Z</time>
      </trkpt>
      <trkpt lat="44.1268" lon="6.35499">
        <ele>1040.5</ele>
        <time>2021-09-11T12:54:11Z</time>
      </trkpt>
      <trkpt lat="44.12679" lon="6.35498">
        <ele>1040.6</ele>
        <time>2021-09-11T12:54:12Z</time>
      </trkpt>
      <trkpt lat="44.12677" lon="6.35497">
        <ele>1040.7</ele>
        <time>2021-09-11T12:54:13Z</time>
      </trkpt>
      <trkpt lat="44.12675" lon="6.35495">
        <ele>1041</ele>
        <time>2021-09-11T12:54:15Z</time>
      </trkpt>
      <trkpt lat="44.12673" lon="6.35494">
        <ele>1041.1</ele>
        <time>2021-09-11T12:54:16Z</time>
      </trkpt>
      <trkpt lat="44.12672" lon="6.35493">
        <ele>1041.3</ele>
        <time>2021-09-11T12:54:17Z</time>
      </trkpt>
      <trkpt lat="44.12669" lon="6.35492">
        <ele>1041.5</ele>
        <time>2021-09-11T12:54:18Z</time>
      </trkpt>
      <trkpt lat="44.12668" lon="6.35492">
        <ele>1041.6</ele>
        <time>2021-09-11T12:54:19Z</time>
      </trkpt>
      <trkpt lat="44.12665" lon="6.3549">
        <ele>1041.9</ele>
        <time>2021-09-11T12:54:21Z</time>
      </trkpt>
      <trkpt lat="44.12664" lon="6.35488">
        <ele>1042</ele>
        <time>2021-09-11T12:54:23Z</time>
      </trkpt>
      <trkpt lat="44.12663" lon="6.35487">
        <ele>1042.1</ele>
        <time>2021-09-11T12:54:24Z</time>
      </trkpt>
      <trkpt lat="44.12663" lon="6.35487">
        <ele>1042.1</ele>
        <time>2021-09-11T12:54:25Z</time>
      </trkpt>
      <trkpt lat="44.12663" lon="6.35486">
        <ele>1042.2</ele>
        <time>2021-09-11T12:54:26Z</time>
      </trkpt>
      <trkpt lat="44.12661" lon="6.35485">
        <ele>1042.3</ele>
        <time>2021-09-11T12:54:28Z</time>
      </trkpt>
      <trkpt lat="44.12661" lon="6.35484">
        <ele>1042.4</ele>
        <time>2021-09-11T12:54:29Z</time>
      </trkpt>
      <trkpt lat="44.1266" lon="6.35483">
        <ele>1042.5</ele>
        <time>2021-09-11T12:54:30Z</time>
      </trkpt>
      <trkpt lat="44.12659" lon="6.35481">
        <ele>1042.6</ele>
        <time>2021-09-11T12:54:31Z</time>
      </trkpt>
      <trkpt lat="44.12658" lon="6.35479">
        <ele>1042.8</ele>
        <time>2021-09-11T12:54:33Z</time>
      </trkpt>
      <trkpt lat="44.12657" lon="6.35478">
        <ele>1042.9</ele>
        <time>2021-09-11T12:54:34Z</time>
      </trkpt>
      <trkpt lat="44.12657" lon="6.35477">
        <ele>1042.9</ele>
        <time>2021-09-11T12:54:35Z</time>
      </trkpt>
      <trkpt lat="44.12657" lon="6.35477">
        <ele>1043</ele>
        <time>2021-09-11T12:54:36Z</time>
      </trkpt>
      <trkpt lat="44.12656" lon="6.35476">
        <ele>1043.1</ele>
        <time>2021-09-11T12:54:38Z</time>
      </trkpt>
      <trkpt lat="44.12654" lon="6.35476">
        <ele>1043.2</ele>
        <time>2021-09-11T12:54:39Z</time>
      </trkpt>
      <trkpt lat="44.12654" lon="6.35477">
        <ele>1043.2</ele>
        <time>2021-09-11T12:54:40Z</time>
      </trkpt>
      <trkpt lat="44.12653" lon="6.35479">
        <ele>1043.4</ele>
        <time>2021-09-11T12:54:42Z</time>
      </trkpt>
      <trkpt lat="44.12651" lon="6.3548">
        <ele>1043.5</ele>
        <time>2021-09-11T12:54:43Z</time>
      </trkpt>
      <trkpt lat="44.1265" lon="6.35482">
        <ele>1043.7</ele>
        <time>2021-09-11T12:54:44Z</time>
      </trkpt>
      <trkpt lat="44.12648" lon="6.35484">
        <ele>1043.9</ele>
        <time>2021-09-11T12:54:46Z</time>
      </trkpt>
      <trkpt lat="44.12648" lon="6.35485">
        <ele>1044</ele>
        <time>2021-09-11T12:54:47Z</time>
      </trkpt>
      <trkpt lat="44.12647" lon="6.35486">
        <ele>1044</ele>
        <time>2021-09-11T12:54:48Z</time>
      </trkpt>
      <trkpt lat="44.12646" lon="6.35487">
        <ele>1044.1</ele>
        <time>2021-09-11T12:54:49Z</time>
      </trkpt>
      <trkpt lat="44.12646" lon="6.35487">
        <ele>1044.2</ele>
        <time>2021-09-11T12:54:51Z</time>
      </trkpt>
      <trkpt lat="44.12646" lon="6.35487">
        <ele>1044.2</ele>
        <time>2021-09-11T12:54:52Z</time>
      </trkpt>
      <trkpt lat="44.12646" lon="6.35487">
        <ele>1044.2</ele>
        <time>2021-09-11T12:54:54Z</time>
      </trkpt>
      <trkpt lat="44.12646" lon="6.35487">
        <ele>1044.2</ele>
        <time>2021-09-11T12:54:55Z</time>
      </trkpt>
      <trkpt lat="44.12646" lon="6.35487">
        <ele>1044.2</ele>
        <time>2021-09-11T12:54:56Z</time>
      </trkpt>
      <trkpt lat="44.12646" lon="6.35487">
        <ele>1044.3</ele>
        <time>2021-09-11T12:54:57Z</time>
      </trkpt>
      <trkpt lat="44.12645" lon="6.35488">
        <ele>1044.3</ele>
        <time>2021-09-11T12:54:59Z</time>
      </trkpt>
      <trkpt lat="44.12645" lon="6.3549">
        <ele>1044.4</ele>
        <time>2021-09-11T12:55:00Z</time>
      </trkpt>
      <trkpt lat="44.12644" lon="6.35492">
        <ele>1044.5</ele>
        <time>2021-09-11T12:55:01Z</time>
      </trkpt>
      <trkpt lat="44.12643" lon="6.355">
        <ele>1045.1</ele>
        <time>2021-09-11T12:55:04Z</time>
      </trkpt>
      <trkpt lat="44.12642" lon="6.35503">
        <ele>1045.3</ele>
        <time>2021-09-11T12:55:05Z</time>
      </trkpt>
      <trkpt lat="44.12642" lon="6.35505">
        <ele>1045.4</ele>
        <time>2021-09-11T12:55:07Z</time>
      </trkpt>
      <trkpt lat="44.12642" lon="6.35508">
        <ele>1045.6</ele>
        <time>2021-09-11T12:55:08Z</time>
      </trkpt>
      <trkpt lat="44.12641" lon="6.35509">
        <ele>1045.7</ele>
        <time>2021-09-11T12:55:09Z</time>
      </trkpt>
      <trkpt lat="44.12641" lon="6.35511">
        <ele>1045.8</ele>
        <time>2021-09-11T12:55:10Z</time>
      </trkpt>
      <trkpt lat="44.12641" lon="6.35513">
        <ele>1045.9</ele>
        <time>2021-09-11T12:55:11Z</time>
      </trkpt>
      <trkpt lat="44.12641" lon="6.35513">
        <ele>1045.9</ele>
        <time>2021-09-11T12:55:13Z</time>
      </trkpt>
      <trkpt lat="44.12641" lon="6.35514">
        <ele>1046</ele>
        <time>2021-09-11T12:55:14Z</time>
      </trkpt>
      <trkpt lat="44.12641" lon="6.35515">
        <ele>1046</ele>
        <time>2021-09-11T12:55:15Z</time>
      </trkpt>
      <trkpt lat="44.12641" lon="6.35515">
        <ele>1046</ele>
        <time>2021-09-11T12:55:17Z</time>
      </trkpt>
      <trkpt lat="44.12641" lon="6.35515">
        <ele>1046</ele>
        <time>2021-09-11T12:55:18Z</time>
      </trkpt>
      <trkpt lat="44.12641" lon="6.35516">
        <ele>1046.1</ele>
        <time>2021-09-11T12:55:19Z</time>
      </trkpt>
      <trkpt lat="44.12641" lon="6.35519">
        <ele>1046.3</ele>
        <time>2021-09-11T12:55:21Z</time>
      </trkpt>
      <trkpt lat="44.12641" lon="6.35521">
        <ele>1046.4</ele>
        <time>2021-09-11T12:55:22Z</time>
      </trkpt>
      <trkpt lat="44.1264" lon="6.35523">
        <ele>1046.6</ele>
        <time>2021-09-11T12:55:23Z</time>
      </trkpt>
      <trkpt lat="44.1264" lon="6.35524">
        <ele>1046.6</ele>
        <time>2021-09-11T12:55:24Z</time>
      </trkpt>
      <trkpt lat="44.1264" lon="6.35526">
        <ele>1046.7</ele>
        <time>2021-09-11T12:55:26Z</time>
      </trkpt>
      <trkpt lat="44.12639" lon="6.35527">
        <ele>1046.8</ele>
        <time>2021-09-11T12:55:27Z</time>
      </trkpt>
      <trkpt lat="44.12636" lon="6.35542">
        <ele>1047.7</ele>
        <time>2021-09-11T12:56:19Z</time>
      </trkpt>
      <trkpt lat="44.12636" lon="6.35545">
        <ele>1047.8</ele>
        <time>2021-09-11T12:56:20Z</time>
      </trkpt>
      <trkpt lat="44.12635" lon="6.35549">
        <ele>1048</ele>
        <time>2021-09-11T12:56:22Z</time>
      </trkpt>
      <trkpt lat="44.12634" lon="6.35553">
        <ele>1048.3</ele>
        <time>2021-09-11T12:56:23Z</time>
      </trkpt>
      <trkpt lat="44.12634" lon="6.35554">
        <ele>1048.4</ele>
        <time>2021-09-11T12:56:24Z</time>
      </trkpt>
      <trkpt lat="44.12632" lon="6.35557">
        <ele>1048.6</ele>
        <time>2021-09-11T12:56:25Z</time>
      </trkpt>
      <trkpt lat="44.12631" lon="6.35558">
        <ele>1048.6</ele>
        <time>2021-09-11T12:56:26Z</time>
      </trkpt>
      <trkpt lat="44.12629" lon="6.35562">
        <ele>1048.9</ele>
        <time>2021-09-11T12:56:28Z</time>
      </trkpt>
      <trkpt lat="44.12629" lon="6.35563">
        <ele>1049</ele>
        <time>2021-09-11T12:56:29Z</time>
      </trkpt>
      <trkpt lat="44.12628" lon="6.35564">
        <ele>1049</ele>
        <time>2021-09-11T12:56:30Z</time>
      </trkpt>
      <trkpt lat="44.12627" lon="6.35566">
        <ele>1049.2</ele>
        <time>2021-09-11T12:56:31Z</time>
      </trkpt>
      <trkpt lat="44.12626" lon="6.35567">
        <ele>1049.3</ele>
        <time>2021-09-11T12:56:32Z</time>
      </trkpt>
      <trkpt lat="44.12625" lon="6.35569">
        <ele>1049.4</ele>
        <time>2021-09-11T12:56:34Z</time>
      </trkpt>
      <trkpt lat="44.12625" lon="6.35569">
        <ele>1049.4</ele>
        <time>2021-09-11T12:56:35Z</time>
      </trkpt>
      <trkpt lat="44.12625" lon="6.35569">
        <ele>1049.4</ele>
        <time>2021-09-11T12:56:36Z</time>
      </trkpt>
      <trkpt lat="44.12625" lon="6.3557">
        <ele>1049.4</ele>
        <time>2021-09-11T12:56:38Z</time>
      </trkpt>
      <trkpt lat="44.12625" lon="6.3557">
        <ele>1049.5</ele>
        <time>2021-09-11T12:56:39Z</time>
      </trkpt>
      <trkpt lat="44.12624" lon="6.3557">
        <ele>1049.5</ele>
        <time>2021-09-11T12:56:40Z</time>
      </trkpt>
      <trkpt lat="44.12624" lon="6.3557">
        <ele>1049.5</ele>
        <time>2021-09-11T12:56:41Z</time>
      </trkpt>
      <trkpt lat="44.12624" lon="6.3557">
        <ele>1049.5</ele>
        <time>2021-09-11T12:56:42Z</time>
      </trkpt>
      <trkpt lat="44.12568" lon="6.35634">
        <ele>1056.1</ele>
        <time>2021-09-11T13:00:19Z</time>
      </trkpt>
      <trkpt lat="44.12567" lon="6.35636">
        <ele>1056.4</ele>
        <time>2021-09-11T13:00:21Z</time>
      </trkpt>
      <trkpt lat="44.12566" lon="6.35636">
        <ele>1056.4</ele>
        <time>2021-09-11T13:00:22Z</time>
      </trkpt>
      <trkpt lat="44.12565" lon="6.35637">
        <ele>1056.5</ele>
        <time>2021-09-11T13:00:23Z</time>
      </trkpt>
      <trkpt lat="44.12565" lon="6.35637">
        <ele>1056.5</ele>
        <time>2021-09-11T13:00:24Z</time>
      </trkpt>
      <trkpt lat="44.12564" lon="6.35637">
        <ele>1056.6</ele>
        <time>2021-09-11T13:00:26Z</time>
      </trkpt>
      <trkpt lat="44.12563" lon="6.35639">
        <ele>1056.7</ele>
        <time>2021-09-11T13:00:27Z</time>
      </trkpt>
      <trkpt lat="44.12563" lon="6.35639">
        <ele>1056.8</ele>
        <time>2021-09-11T13:00:28Z</time>
      </trkpt>
      <trkpt lat="44.12562" lon="6.3564">
        <ele>1056.9</ele>
        <time>2021-09-11T13:00:29Z</time>
      </trkpt>
      <trkpt lat="44.12561" lon="6.35642">
        <ele>1057.1</ele>
        <time>2021-09-11T13:00:30Z</time>
      </trkpt>
      <trkpt lat="44.12559" lon="6.35645">
        <ele>1057.4</ele>
        <time>2021-09-11T13:00:31Z</time>
      </trkpt>
      <trkpt lat="44.12556" lon="6.35648">
        <ele>1057.7</ele>
        <time>2021-09-11T13:00:33Z</time>
      </trkpt>
      <trkpt lat="44.12555" lon="6.35649">
        <ele>1057.8</ele>
        <time>2021-09-11T13:00:34Z</time>
      </trkpt>
      <trkpt lat="44.12554" lon="6.3565">
        <ele>1057.9</ele>
        <time>2021-09-11T13:00:35Z</time>
      </trkpt>
      <trkpt lat="44.12554" lon="6.35651">
        <ele>1058</ele>
        <time>2021-09-11T13:00:36Z</time>
      </trkpt>
      <trkpt lat="44.12553" lon="6.35651">
        <ele>1058</ele>
        <time>2021-09-11T13:00:38Z</time>
      </trkpt>
      <trkpt lat="44.12553" lon="6.35651">
        <ele>1058.1</ele>
        <time>2021-09-11T13:00:39Z</time>
      </trkpt>
      <trkpt lat="44.12553" lon="6.35651">
        <ele>1058.1</ele>
        <time>2021-09-11T13:00:40Z</time>
      </trkpt>
      <trkpt lat="44.12553" lon="6.35651">
        <ele>1058.1</ele>
        <time>2021-09-11T13:00:41Z</time>
      </trkpt>
      <trkpt lat="44.12552" lon="6.35652">
        <ele>1058.2</ele>
        <time>2021-09-11T13:00:42Z</time>
      </trkpt>
      <trkpt lat="44.12551" lon="6.35653">
        <ele>1058.3</ele>
        <time>2021-09-11T13:00:43Z</time>
      </trkpt>
      <trkpt lat="44.1255" lon="6.35654">
        <ele>1058.4</ele>
        <time>2021-09-11T13:00:45Z</time>
      </trkpt>
      <trkpt lat="44.1255" lon="6.35654">
        <ele>1058.5</ele>
        <time>2021-09-11T13:00:46Z</time>
      </trkpt>
      <trkpt lat="44.12549" lon="6.35655">
        <ele>1058.6</ele>
        <time>2021-09-11T13:00:48Z</time>
      </trkpt>
      <trkpt lat="44.12548" lon="6.35656">
        <ele>1058.7</ele>
        <time>2021-09-11T13:00:49Z</time>
      </trkpt>
      <trkpt lat="44.12536" lon="6.35679">
        <ele>1060.5</ele>
        <time>2021-09-11T13:01:04Z</time>
      </trkpt>
      <trkpt lat="44.12535" lon="6.35682">
        <ele>1060.7</ele>
        <time>2021-09-11T13:01:05Z</time>
      </trkpt>
      <trkpt lat="44.12534" lon="6.35686">
        <ele>1061</ele>
        <time>2021-09-11T13:01:07Z</time>
      </trkpt>
      <trkpt lat="44.12532" lon="6.35688">
        <ele>1061.2</ele>
        <time>2021-09-11T13:01:09Z</time>
      </trkpt>
      <trkpt lat="44.12532" lon="6.35689">
        <ele>1061.2</ele>
        <time>2021-09-11T13:01:10Z</time>
      </trkpt>
      <trkpt lat="44.12532" lon="6.35689">
        <ele>1061.2</ele>
        <time>2021-09-11T13:01:11Z</time>
      </trkpt>
      <trkpt lat="44.12532" lon="6.3569">
        <ele>1061.3</ele>
        <time>2021-09-11T13:01:12Z</time>
      </trkpt>
      <trkpt lat="44.12533" lon="6.3569">
        <ele>1061.3</ele>
        <time>2021-09-11T13:01:14Z</time>
      </trkpt>
      <trkpt lat="44.12533" lon="6.35691">
        <ele>1061.4</ele>
        <time>2021-09-11T13:01:16Z</time>
      </trkpt>
      <trkpt lat="44.12534" lon="6.35693">
        <ele>1061.5</ele>
        <time>2021-09-11T13:01:17Z</time>
      </trkpt>
      <trkpt lat="44.12535" lon="6.35695">
        <ele>1061.7</ele>
        <time>2021-09-11T13:01:18Z</time>
      </trkpt>
      <trkpt lat="44.12537" lon="6.35698">
        <ele>1061.9</ele>
        <time>2021-09-11T13:01:20Z</time>
      </trkpt>
      <trkpt lat="44.12539" lon="6.35702">
        <ele>1062.2</ele>
        <time>2021-09-11T13:01:21Z</time>
      </trkpt>
      <trkpt lat="44.12539" lon="6.35703">
        <ele>1062.2</ele>
        <time>2021-09-11T13:01:22Z</time>
      </trkpt>
      <trkpt lat="44.12542" lon="6.35716">
        <ele>1062.9</ele>
        <time>2021-09-11T13:01:29Z</time>
      </trkpt>
      <trkpt lat="44.12542" lon="6.35719">
        <ele>1063.1</ele>
        <time>2021-09-11T13:01:30Z</time>
      </trkpt>
      <trkpt lat="44.12543" lon="6.35725">
        <ele>1063.4</ele>
        <time>2021-09-11T13:01:32Z</time>
      </trkpt>
      <trkpt lat="44.12543" lon="6.35729">
        <ele>1063.6</ele>
        <time>2021-09-11T13:01:33Z</time>
      </trkpt>
      <trkpt lat="44.12543" lon="6.35734">
        <ele>1063.9</ele>
        <time>2021-09-11T13:01:35Z</time>
      </trkpt>
      <trkpt lat="44.12544" lon="6.35735">
        <ele>1064</ele>
        <time>2021-09-11T13:01:36Z</time>
      </trkpt>
      <trkpt lat="44.12546" lon="6.35735">
        <ele>1064.1</ele>
        <time>2021-09-11T13:01:37Z</time>
      </trkpt>
      <trkpt lat="44.1255" lon="6.35737">
        <ele>1064.5</ele>
        <time>2021-09-11T13:01:39Z</time>
      </trkpt>
      <trkpt lat="44.12552" lon="6.35738">
        <ele>1064.6</ele>
        <time>2021-09-11T13:01:40Z</time>
      </trkpt>
      <trkpt lat="44.12554" lon="6.35739">
        <ele>1064.7</ele>
        <time>2021-09-11T13:01:41Z</time>
      </trkpt>
      <trkpt lat="44.12555" lon="6.35742">
        <ele>1065</ele>
        <time>2021-09-11T13:01:43Z</time>
      </trkpt>
      <trkpt lat="44.12556" lon="6.35744">
        <ele>1065</ele>
        <time>2021-09-11T13:01:44Z</time>
      </trkpt>
      <trkpt lat="44.12558" lon="6.35746">
        <ele>1065.2</ele>
        <time>2021-09-11T13:01:46Z</time>
      </trkpt>
      <trkpt lat="44.12559" lon="6.35747">
        <ele>1065.3</ele>
        <time>2021-09-11T13:01:47Z</time>
      </trkpt>
      <trkpt lat="44.1256" lon="6.35747">
        <ele>1065.4</ele>
        <time>2021-09-11T13:01:49Z</time>
      </trkpt>
      <trkpt lat="44.1256" lon="6.35747">
        <ele>1065.3</ele>
        <time>2021-09-11T13:01:50Z</time>
      </trkpt>
      <trkpt lat="44.1256" lon="6.35747">
        <ele>1065.3</ele>
        <time>2021-09-11T13:01:51Z</time>
      </trkpt>
      <trkpt lat="44.1256" lon="6.35748">
        <ele>1065.3</ele>
        <time>2021-09-11T13:01:52Z</time>
      </trkpt>
      <trkpt lat="44.1256" lon="6.35748">
        <ele>1065.3</ele>
        <time>2021-09-11T13:01:54Z</time>
      </trkpt>
      <trkpt lat="44.1256" lon="6.35749">
        <ele>1065.3</ele>
        <time>2021-09-11T13:01:55Z</time>
      </trkpt>
      <trkpt lat="44.12561" lon="6.35749">
        <ele>1065.4</ele>
        <time>2021-09-11T13:01:56Z</time>
      </trkpt>
      <trkpt lat="44.12562" lon="6.35749">
        <ele>1065.4</ele>
        <time>2021-09-11T13:01:58Z</time>
      </trkpt>
      <trkpt lat="44.12563" lon="6.35748">
        <ele>1065.5</ele>
        <time>2021-09-11T13:01:59Z</time>
      </trkpt>
      <trkpt lat="44.12565" lon="6.35748">
        <ele>1065.6</ele>
        <time>2021-09-11T13:02:01Z</time>
      </trkpt>
      <trkpt lat="44.12576" lon="6.3575">
        <ele>1066.3</ele>
        <time>2021-09-11T13:02:06Z</time>
      </trkpt>
      <trkpt lat="44.12577" lon="6.35752">
        <ele>1066.4</ele>
        <time>2021-09-11T13:02:07Z</time>
      </trkpt>
      <trkpt lat="44.12577" lon="6.35754">
        <ele>1066.5</ele>
        <time>2021-09-11T13:02:08Z</time>
      </trkpt>
      <trkpt lat="44.12578" lon="6.35755">
        <ele>1066.6</ele>
        <time>2021-09-11T13:02:10Z</time>
      </trkpt>
      <trkpt lat="44.12578" lon="6.35755">
        <ele>1066.6</ele>
        <time>2021-09-11T13:02:11Z</time>
      </trkpt>
      <trkpt lat="44.12579" lon="6.35756">
        <ele>1066.7</ele>
        <time>2021-09-11T13:02:13Z</time>
      </trkpt>
      <trkpt lat="44.1258" lon="6.35756">
        <ele>1066.7</ele>
        <time>2021-09-11T13:02:14Z</time>
      </trkpt>
      <trkpt lat="44.1258" lon="6.35757">
        <ele>1066.8</ele>
        <time>2021-09-11T13:02:15Z</time>
      </trkpt>
      <trkpt lat="44.1258" lon="6.35759">
        <ele>1066.8</ele>
        <time>2021-09-11T13:02:17Z</time>
      </trkpt>
      <trkpt lat="44.1258" lon="6.35761">
        <ele>1066.9</ele>
        <time>2021-09-11T13:02:18Z</time>
      </trkpt>
      <trkpt lat="44.1258" lon="6.35761">
        <ele>1066.9</ele>
        <time>2021-09-11T13:02:19Z</time>
      </trkpt>
      <trkpt lat="44.1258" lon="6.35761">
        <ele>1067</ele>
        <time>2021-09-11T13:02:20Z</time>
      </trkpt>
      <trkpt lat="44.12579" lon="6.35763">
        <ele>1067.1</ele>
        <time>2021-09-11T13:02:22Z</time>
      </trkpt>
      <trkpt lat="44.12578" lon="6.35763">
        <ele>1067.2</ele>
        <time>2021-09-11T13:02:23Z</time>
      </trkpt>
      <trkpt lat="44.12575" lon="6.35761">
        <ele>1067.3</ele>
        <time>2021-09-11T13:02:25Z</time>
      </trkpt>
      <trkpt lat="44.12573" lon="6.35762">
        <ele>1067.4</ele>
        <time>2021-09-11T13:02:27Z</time>
      </trkpt>
      <trkpt lat="44.12572" lon="6.35763">
        <ele>1067.5</ele>
        <time>2021-09-11T13:02:28Z</time>
      </trkpt>
      <trkpt lat="44.12571" lon="6.35765">
        <ele>1067.6</ele>
        <time>2021-09-11T13:02:30Z</time>
      </trkpt>
      <trkpt lat="44.1257" lon="6.35766">
        <ele>1067.7</ele>
        <time>2021-09-11T13:02:32Z</time>
      </trkpt>
      <trkpt lat="44.12569" lon="6.35768">
        <ele>1067.8</ele>
        <time>2021-09-11T13:02:34Z</time>
      </trkpt>
      <trkpt lat="44.12567" lon="6.35772">
        <ele>1068</ele>
        <time>2021-09-11T13:02:35Z</time>
      </trkpt>
      <trkpt lat="44.12565" lon="6.35775">
        <ele>1068.3</ele>
        <time>2021-09-11T13:02:36Z</time>
      </trkpt>
      <trkpt lat="44.12564" lon="6.35777">
        <ele>1068.4</ele>
        <time>2021-09-11T13:02:37Z</time>
      </trkpt>
      <trkpt lat="44.12562" lon="6.35783">
        <ele>1068.7</ele>
        <time>2021-09-11T13:02:39Z</time>
      </trkpt>
      <trkpt lat="44.1256" lon="6.35788">
        <ele>1068.9</ele>
        <time>2021-09-11T13:02:41Z</time>
      </trkpt>
      <trkpt lat="44.12558" lon="6.35795">
        <ele>1069.3</ele>
        <time>2021-09-11T13:02:43Z</time>
      </trkpt>
      <trkpt lat="44.12556" lon="6.358">
        <ele>1069.6</ele>
        <time>2021-09-11T13:02:44Z</time>
      </trkpt>
      <trkpt lat="44.12555" lon="6.35804">
        <ele>1069.8</ele>
        <time>2021-09-11T13:02:45Z</time>
      </trkpt>
      <trkpt lat="44.12554" lon="6.35807">
        <ele>1069.9</ele>
        <time>2021-09-11T13:02:46Z</time>
      </trkpt>
      <trkpt lat="44.12551" lon="6.35811">
        <ele>1070.2</ele>
        <time>2021-09-11T13:02:48Z</time>
      </trkpt>
      <trkpt lat="44.12549" lon="6.35815">
        <ele>1070.4</ele>
        <time>2021-09-11T13:02:49Z</time>
      </trkpt>
      <trkpt lat="44.12547" lon="6.35819">
        <ele>1070.6</ele>
        <time>2021-09-11T13:02:50Z</time>
      </trkpt>
      <trkpt lat="44.12547" lon="6.35822">
        <ele>1070.8</ele>
        <time>2021-09-11T13:02:52Z</time>
      </trkpt>
      <trkpt lat="44.12546" lon="6.35824">
        <ele>1070.8</ele>
        <time>2021-09-11T13:02:53Z</time>
      </trkpt>
      <trkpt lat="44.12545" lon="6.35827">
        <ele>1070.9</ele>
        <time>2021-09-11T13:02:54Z</time>
      </trkpt>
      <trkpt lat="44.12545" lon="6.3583">
        <ele>1071</ele>
        <time>2021-09-11T13:02:56Z</time>
      </trkpt>
      <trkpt lat="44.12544" lon="6.35833">
        <ele>1071.2</ele>
        <time>2021-09-11T13:02:58Z</time>
      </trkpt>
      <trkpt lat="44.12543" lon="6.35835">
        <ele>1071.2</ele>
        <time>2021-09-11T13:02:59Z</time>
      </trkpt>
      <trkpt lat="44.12543" lon="6.3584">
        <ele>1071.4</ele>
        <time>2021-09-11T13:03:01Z</time>
      </trkpt>
      <trkpt lat="44.12545" lon="6.35844">
        <ele>1071.6</ele>
        <time>2021-09-11T13:03:02Z</time>
      </trkpt>
      <trkpt lat="44.12545" lon="6.35845">
        <ele>1071.6</ele>
        <time>2021-09-11T13:03:03Z</time>
      </trkpt>
      <trkpt lat="44.12547" lon="6.35851">
        <ele>1071.8</ele>
        <time>2021-09-11T13:03:05Z</time>
      </trkpt>
      <trkpt lat="44.12548" lon="6.35853">
        <ele>1071.9</ele>
        <time>2021-09-11T13:03:06Z</time>
      </trkpt>
      <trkpt lat="44.12548" lon="6.35855">
        <ele>1072</ele>
        <time>2021-09-11T13:03:07Z</time>
      </trkpt>
      <trkpt lat="44.12549" lon="6.3586">
        <ele>1072.2</ele>
        <time>2021-09-11T13:03:09Z</time>
      </trkpt>
      <trkpt lat="44.1255" lon="6.35862">
        <ele>1072.2</ele>
        <time>2021-09-11T13:03:10Z</time>
      </trkpt>
      <trkpt lat="44.12553" lon="6.35866">
        <ele>1072.4</ele>
        <time>2021-09-11T13:03:12Z</time>
      </trkpt>
      <trkpt lat="44.12555" lon="6.3587">
        <ele>1072.6</ele>
        <time>2021-09-11T13:03:13Z</time>
      </trkpt>
      <trkpt lat="44.12557" lon="6.35873">
        <ele>1072.8</ele>
        <time>2021-09-11T13:03:14Z</time>
      </trkpt>
      <trkpt lat="44.1256" lon="6.35876">
        <ele>1072.9</ele>
        <time>2021-09-11T13:03:15Z</time>
      </trkpt>
      <trkpt lat="44.12562" lon="6.3588">
        <ele>1073.2</ele>
        <time>2021-09-11T13:03:17Z</time>
      </trkpt>
      <trkpt lat="44.12564" lon="6.35883">
        <ele>1073.3</ele>
        <time>2021-09-11T13:03:18Z</time>
      </trkpt>
      <trkpt lat="44.12567" lon="6.35885">
        <ele>1073.4</ele>
        <time>2021-09-11T13:03:20Z</time>
      </trkpt>
      <trkpt lat="44.12569" lon="6.35889">
        <ele>1073.6</ele>
        <time>2021-09-11T13:03:21Z</time>
      </trkpt>
      <trkpt lat="44.12569" lon="6.3589">
        <ele>1073.6</ele>
        <time>2021-09-11T13:03:22Z</time>
      </trkpt>
      <trkpt lat="44.12568" lon="6.35895">
        <ele>1073.8</ele>
        <time>2021-09-11T13:03:23Z</time>
      </trkpt>
      <trkpt lat="44.12568" lon="6.35897">
        <ele>1073.9</ele>
        <time>2021-09-11T13:03:24Z</time>
      </trkpt>
      <trkpt lat="44.12566" lon="6.35903">
        <ele>1074.1</ele>
        <time>2021-09-11T13:03:26Z</time>
      </trkpt>
      <trkpt lat="44.12565" lon="6.35906">
        <ele>1074.1</ele>
        <time>2021-09-11T13:03:27Z</time>
      </trkpt>
      <trkpt lat="44.12563" lon="6.35912">
        <ele>1074.3</ele>
        <time>2021-09-11T13:03:29Z</time>
      </trkpt>
      <trkpt lat="44.12562" lon="6.35916">
        <ele>1074.4</ele>
        <time>2021-09-11T13:03:30Z</time>
      </trkpt>
      <trkpt lat="44.12562" lon="6.35918">
        <ele>1074.4</ele>
        <time>2021-09-11T13:03:31Z</time>
      </trkpt>
      <trkpt lat="44.12562" lon="6.35923">
        <ele>1074.6</ele>
        <time>2021-09-11T13:03:33Z</time>
      </trkpt>
      <trkpt lat="44.12562" lon="6.35925">
        <ele>1074.7</ele>
        <time>2021-09-11T13:03:34Z</time>
      </trkpt>
      <trkpt lat="44.12561" lon="6.35929">
        <ele>1074.8</ele>
        <time>2021-09-11T13:03:35Z</time>
      </trkpt>
      <trkpt lat="44.12561" lon="6.3593">
        <ele>1074.8</ele>
        <time>2021-09-11T13:03:36Z</time>
      </trkpt>
      <trkpt lat="44.1256" lon="6.35934">
        <ele>1074.9</ele>
        <time>2021-09-11T13:03:37Z</time>
      </trkpt>
      <trkpt lat="44.1256" lon="6.35935">
        <ele>1075</ele>
        <time>2021-09-11T13:03:38Z</time>
      </trkpt>
      <trkpt lat="44.12558" lon="6.35941">
        <ele>1075.2</ele>
        <time>2021-09-11T13:03:39Z</time>
      </trkpt>
      <trkpt lat="44.12558" lon="6.35943">
        <ele>1075.2</ele>
        <time>2021-09-11T13:03:40Z</time>
      </trkpt>
      <trkpt lat="44.12557" lon="6.35948">
        <ele>1075.4</ele>
        <time>2021-09-11T13:03:41Z</time>
      </trkpt>
      <trkpt lat="44.12556" lon="6.3595">
        <ele>1075.4</ele>
        <time>2021-09-11T13:03:42Z</time>
      </trkpt>
      <trkpt lat="44.12554" lon="6.35955">
        <ele>1075.6</ele>
        <time>2021-09-11T13:03:44Z</time>
      </trkpt>
      <trkpt lat="44.12552" lon="6.35959">
        <ele>1075.7</ele>
        <time>2021-09-11T13:03:45Z</time>
      </trkpt>
      <trkpt lat="44.1255" lon="6.35962">
        <ele>1075.9</ele>
        <time>2021-09-11T13:03:46Z</time>
      </trkpt>
      <trkpt lat="44.12547" lon="6.35964">
        <ele>1076</ele>
        <time>2021-09-11T13:03:47Z</time>
      </trkpt>
      <trkpt lat="44.12543" lon="6.35966">
        <ele>1076.2</ele>
        <time>2021-09-11T13:03:48Z</time>
      </trkpt>
      <trkpt lat="44.12538" lon="6.35969">
        <ele>1076.4</ele>
        <time>2021-09-11T13:03:50Z</time>
      </trkpt>
      <trkpt lat="44.12535" lon="6.35969">
        <ele>1076.5</ele>
        <time>2021-09-11T13:03:51Z</time>
      </trkpt>
      <trkpt lat="44.12534" lon="6.35969">
        <ele>1076.6</ele>
        <time>2021-09-11T13:03:52Z</time>
      </trkpt>
      <trkpt lat="44.1253" lon="6.35967">
        <ele>1076.7</ele>
        <time>2021-09-11T13:03:53Z</time>
      </trkpt>
      <trkpt lat="44.12529" lon="6.35966">
        <ele>1076.8</ele>
        <time>2021-09-11T13:03:54Z</time>
      </trkpt>
      <trkpt lat="44.12526" lon="6.35965">
        <ele>1076.9</ele>
        <time>2021-09-11T13:03:55Z</time>
      </trkpt>
      <trkpt lat="44.12525" lon="6.35965">
        <ele>1077</ele>
        <time>2021-09-11T13:03:56Z</time>
      </trkpt>
      <trkpt lat="44.12521" lon="6.35967">
        <ele>1077.2</ele>
        <time>2021-09-11T13:03:58Z</time>
      </trkpt>
      <trkpt lat="44.12519" lon="6.35968">
        <ele>1077.2</ele>
        <time>2021-09-11T13:03:59Z</time>
      </trkpt>
      <trkpt lat="44.12517" lon="6.35969">
        <ele>1077.4</ele>
        <time>2021-09-11T13:04:01Z</time>
      </trkpt>
      <trkpt lat="44.12516" lon="6.3597">
        <ele>1077.4</ele>
        <time>2021-09-11T13:04:02Z</time>
      </trkpt>
      <trkpt lat="44.12514" lon="6.35971">
        <ele>1077.5</ele>
        <time>2021-09-11T13:04:04Z</time>
      </trkpt>
      <trkpt lat="44.12513" lon="6.35971">
        <ele>1077.5</ele>
        <time>2021-09-11T13:04:05Z</time>
      </trkpt>
      <trkpt lat="44.12514" lon="6.35972">
        <ele>1077.5</ele>
        <time>2021-09-11T13:04:06Z</time>
      </trkpt>
      <trkpt lat="44.12513" lon="6.35973">
        <ele>1077.6</ele>
        <time>2021-09-11T13:04:07Z</time>
      </trkpt>
      <trkpt lat="44.12512" lon="6.35976">
        <ele>1077.7</ele>
        <time>2021-09-11T13:04:09Z</time>
      </trkpt>
      <trkpt lat="44.12509" lon="6.3598">
        <ele>1077.9</ele>
        <time>2021-09-11T13:04:10Z</time>
      </trkpt>
      <trkpt lat="44.12508" lon="6.35982">
        <ele>1077.9</ele>
        <time>2021-09-11T13:04:11Z</time>
      </trkpt>
      <trkpt lat="44.12504" lon="6.35987">
        <ele>1078.2</ele>
        <time>2021-09-11T13:04:13Z</time>
      </trkpt>
      <trkpt lat="44.12503" lon="6.3599">
        <ele>1078.2</ele>
        <time>2021-09-11T13:04:14Z</time>
      </trkpt>
      <trkpt lat="44.12504" lon="6.35991">
        <ele>1078.3</ele>
        <time>2021-09-11T13:04:15Z</time>
      </trkpt>
      <trkpt lat="44.12507" lon="6.35992">
        <ele>1078.4</ele>
        <time>2021-09-11T13:04:16Z</time>
      </trkpt>
      <trkpt lat="44.12511" lon="6.35993">
        <ele>1078.6</ele>
        <time>2021-09-11T13:04:17Z</time>
      </trkpt>
      <trkpt lat="44.12513" lon="6.35994">
        <ele>1078.7</ele>
        <time>2021-09-11T13:04:18Z</time>
      </trkpt>
      <trkpt lat="44.12517" lon="6.35995">
        <ele>1078.9</ele>
        <time>2021-09-11T13:04:20Z</time>
      </trkpt>
      <trkpt lat="44.12521" lon="6.35997">
        <ele>1079.1</ele>
        <time>2021-09-11T13:04:21Z</time>
      </trkpt>
      <trkpt lat="44.12524" lon="6.35998">
        <ele>1079.3</ele>
        <time>2021-09-11T13:04:22Z</time>
      </trkpt>
      <trkpt lat="44.12529" lon="6.36001">
        <ele>1079.5</ele>
        <time>2021-09-11T13:04:24Z</time>
      </trkpt>
      <trkpt lat="44.12529" lon="6.36007">
        <ele>1079.7</ele>
        <time>2021-09-11T13:04:25Z</time>
      </trkpt>
      <trkpt lat="44.1253" lon="6.36013">
        <ele>1080</ele>
        <time>2021-09-11T13:04:27Z</time>
      </trkpt>
      <trkpt lat="44.1253" lon="6.36018">
        <ele>1080.2</ele>
        <time>2021-09-11T13:04:28Z</time>
      </trkpt>
      <trkpt lat="44.1253" lon="6.3602">
        <ele>1080.2</ele>
        <time>2021-09-11T13:04:29Z</time>
      </trkpt>
      <trkpt lat="44.12532" lon="6.36026">
        <ele>1080.5</ele>
        <time>2021-09-11T13:04:31Z</time>
      </trkpt>
      <trkpt lat="44.12533" lon="6.36029">
        <ele>1080.6</ele>
        <time>2021-09-11T13:04:32Z</time>
      </trkpt>
      <trkpt lat="44.12532" lon="6.36032">
        <ele>1080.7</ele>
        <time>2021-09-11T13:04:34Z</time>
      </trkpt>
      <trkpt lat="44.12532" lon="6.36036">
        <ele>1080.9</ele>
        <time>2021-09-11T13:04:35Z</time>
      </trkpt>
      <trkpt lat="44.12533" lon="6.36042">
        <ele>1081.1</ele>
        <time>2021-09-11T13:04:37Z</time>
      </trkpt>
      <trkpt lat="44.12536" lon="6.36049">
        <ele>1081.3</ele>
        <time>2021-09-11T13:04:39Z</time>
      </trkpt>
      <trkpt lat="44.12537" lon="6.36053">
        <ele>1081.5</ele>
        <time>2021-09-11T13:04:40Z</time>
      </trkpt>
      <trkpt lat="44.12539" lon="6.36059">
        <ele>1081.7</ele>
        <time>2021-09-11T13:04:42Z</time>
      </trkpt>
      <trkpt lat="44.12539" lon="6.36061">
        <ele>1081.7</ele>
        <time>2021-09-11T13:04:43Z</time>
      </trkpt>
      <trkpt lat="44.12539" lon="6.36069">
        <ele>1082</ele>
        <time>2021-09-11T13:04:45Z</time>
      </trkpt>
      <trkpt lat="44.1254" lon="6.36074">
        <ele>1082.2</ele>
        <time>2021-09-11T13:04:46Z</time>
      </trkpt>
      <trkpt lat="44.1254" lon="6.36079">
        <ele>1082.4</ele>
        <time>2021-09-11T13:04:47Z</time>
      </trkpt>
      <trkpt lat="44.1254" lon="6.36085">
        <ele>1082.6</ele>
        <time>2021-09-11T13:04:49Z</time>
      </trkpt>
      <trkpt lat="44.12539" lon="6.36091">
        <ele>1082.9</ele>
        <time>2021-09-11T13:04:51Z</time>
      </trkpt>
      <trkpt lat="44.12537" lon="6.36098">
        <ele>1083.2</ele>
        <time>2021-09-11T13:04:53Z</time>
      </trkpt>
      <trkpt lat="44.12537" lon="6.36104">
        <ele>1083.4</ele>
        <time>2021-09-11T13:04:55Z</time>
      </trkpt>
      <trkpt lat="44.12538" lon="6.36106">
        <ele>1083.5</ele>
        <time>2021-09-11T13:04:56Z</time>
      </trkpt>
      <trkpt lat="44.1254" lon="6.36107">
        <ele>1083.6</ele>
        <time>2021-09-11T13:04:57Z</time>
      </trkpt>
      <trkpt lat="44.12542" lon="6.3611">
        <ele>1083.8</ele>
        <time>2021-09-11T13:04:59Z</time>
      </trkpt>
      <trkpt lat="44.12543" lon="6.36112">
        <ele>1083.8</ele>
        <time>2021-09-11T13:05:00Z</time>
      </trkpt>
      <trkpt lat="44.12545" lon="6.36115">
        <ele>1084</ele>
        <time>2021-09-11T13:05:01Z</time>
      </trkpt>
      <trkpt lat="44.12545" lon="6.36115">
        <ele>1084</ele>
        <time>2021-09-11T13:05:02Z</time>
      </trkpt>
      <trkpt lat="44.12547" lon="6.36117">
        <ele>1084.1</ele>
        <time>2021-09-11T13:05:03Z</time>
      </trkpt>
      <trkpt lat="44.12547" lon="6.36117">
        <ele>1084.1</ele>
        <time>2021-09-11T13:05:04Z</time>
      </trkpt>
      <trkpt lat="44.12546" lon="6.36118">
        <ele>1084.2</ele>
        <time>2021-09-11T13:05:05Z</time>
      </trkpt>
      <trkpt lat="44.12546" lon="6.36121">
        <ele>1084.2</ele>
        <time>2021-09-11T13:05:07Z</time>
      </trkpt>
      <trkpt lat="44.12546" lon="6.36122">
        <ele>1084.3</ele>
        <time>2021-09-11T13:05:08Z</time>
      </trkpt>
      <trkpt lat="44.12546" lon="6.36123">
        <ele>1084.3</ele>
        <time>2021-09-11T13:05:09Z</time>
      </trkpt>
      <trkpt lat="44.12546" lon="6.36124">
        <ele>1084.4</ele>
        <time>2021-09-11T13:05:11Z</time>
      </trkpt>
      <trkpt lat="44.12546" lon="6.36125">
        <ele>1084.4</ele>
        <time>2021-09-11T13:05:12Z</time>
      </trkpt>
      <trkpt lat="44.12546" lon="6.36127">
        <ele>1084.5</ele>
        <time>2021-09-11T13:05:13Z</time>
      </trkpt>
      <trkpt lat="44.12546" lon="6.36129">
        <ele>1084.6</ele>
        <time>2021-09-11T13:05:15Z</time>
      </trkpt>
      <trkpt lat="44.12545" lon="6.36131">
        <ele>1084.6</ele>
        <time>2021-09-11T13:05:17Z</time>
      </trkpt>
      <trkpt lat="44.12551" lon="6.3618">
        <ele>1086.5</ele>
        <time>2021-09-11T13:05:58Z</time>
      </trkpt>
      <trkpt lat="44.12552" lon="6.36183">
        <ele>1086.6</ele>
        <time>2021-09-11T13:05:59Z</time>
      </trkpt>
      <trkpt lat="44.12552" lon="6.36185">
        <ele>1086.7</ele>
        <time>2021-09-11T13:06:00Z</time>
      </trkpt>
      <trkpt lat="44.12552" lon="6.36189">
        <ele>1086.9</ele>
        <time>2021-09-11T13:06:01Z</time>
      </trkpt>
      <trkpt lat="44.12552" lon="6.3619">
        <ele>1086.9</ele>
        <time>2021-09-11T13:06:02Z</time>
      </trkpt>
      <trkpt lat="44.12552" lon="6.36195">
        <ele>1087.1</ele>
        <time>2021-09-11T13:06:04Z</time>
      </trkpt>
      <trkpt lat="44.12552" lon="6.36196">
        <ele>1087.2</ele>
        <time>2021-09-11T13:06:05Z</time>
      </trkpt>
      <trkpt lat="44.12552" lon="6.36199">
        <ele>1087.3</ele>
        <time>2021-09-11T13:06:06Z</time>
      </trkpt>
      <trkpt lat="44.12552" lon="6.36203">
        <ele>1087.5</ele>
        <time>2021-09-11T13:06:08Z</time>
      </trkpt>
      <trkpt lat="44.12553" lon="6.36204">
        <ele>1087.6</ele>
        <time>2021-09-11T13:06:10Z</time>
      </trkpt>
      <trkpt lat="44.12553" lon="6.36205">
        <ele>1087.6</ele>
        <time>2021-09-11T13:06:12Z</time>
      </trkpt>
      <trkpt lat="44.12554" lon="6.36207">
        <ele>1087.7</ele>
        <time>2021-09-11T13:06:13Z</time>
      </trkpt>
      <trkpt lat="44.12554" lon="6.36208">
        <ele>1087.7</ele>
        <time>2021-09-11T13:06:14Z</time>
      </trkpt>
      <trkpt lat="44.12554" lon="6.36209">
        <ele>1087.8</ele>
        <time>2021-09-11T13:06:15Z</time>
      </trkpt>
      <trkpt lat="44.12554" lon="6.36212">
        <ele>1087.9</ele>
        <time>2021-09-11T13:06:17Z</time>
      </trkpt>
      <trkpt lat="44.12555" lon="6.36214">
        <ele>1088</ele>
        <time>2021-09-11T13:06:18Z</time>
      </trkpt>
      <trkpt lat="44.12555" lon="6.36216">
        <ele>1088</ele>
        <time>2021-09-11T13:06:19Z</time>
      </trkpt>
      <trkpt lat="44.12555" lon="6.36217">
        <ele>1088.1</ele>
        <time>2021-09-11T13:06:20Z</time>
      </trkpt>
      <trkpt lat="44.12556" lon="6.36217">
        <ele>1088.1</ele>
        <time>2021-09-11T13:06:22Z</time>
      </trkpt>
      <trkpt lat="44.12556" lon="6.36217">
        <ele>1088.1</ele>
        <time>2021-09-11T13:06:23Z</time>
      </trkpt>
      <trkpt lat="44.12556" lon="6.36217">
        <ele>1088.1</ele>
        <time>2021-09-11T13:06:24Z</time>
      </trkpt>
      <trkpt lat="44.12556" lon="6.36217">
        <ele>1088.1</ele>
        <time>2021-09-11T13:06:25Z</time>
      </trkpt>
      <trkpt lat="44.12557" lon="6.36217">
        <ele>1088.1</ele>
        <time>2021-09-11T13:06:27Z</time>
      </trkpt>
      <trkpt lat="44.12557" lon="6.36217">
        <ele>1088.1</ele>
        <time>2021-09-11T13:06:28Z</time>
      </trkpt>
      <trkpt lat="44.12557" lon="6.36217">
        <ele>1088.2</ele>
        <time>2021-09-11T13:06:29Z</time>
      </trkpt>
      <trkpt lat="44.12557" lon="6.36217">
        <ele>1088.2</ele>
        <time>2021-09-11T13:06:31Z</time>
      </trkpt>
      <trkpt lat="44.12557" lon="6.36217">
        <ele>1088.2</ele>
        <time>2021-09-11T13:06:33Z</time>
      </trkpt>
      <trkpt lat="44.12557" lon="6.36218">
        <ele>1088.2</ele>
        <time>2021-09-11T13:06:34Z</time>
      </trkpt>
      <trkpt lat="44.12567" lon="6.36242">
        <ele>1089.3</ele>
        <time>2021-09-11T13:07:03Z</time>
      </trkpt>
      <trkpt lat="44.12569" lon="6.36243">
        <ele>1089.4</ele>
        <time>2021-09-11T13:07:04Z</time>
      </trkpt>
      <trkpt lat="44.12573" lon="6.36239">
        <ele>1089.7</ele>
        <time>2021-09-11T13:07:06Z</time>
      </trkpt>
      <trkpt lat="44.12576" lon="6.36234">
        <ele>1090</ele>
        <time>2021-09-11T13:07:08Z</time>
      </trkpt>
      <trkpt lat="44.12578" lon="6.3623">
        <ele>1090.2</ele>
        <time>2021-09-11T13:07:09Z</time>
      </trkpt>
      <trkpt lat="44.12579" lon="6.36228">
        <ele>1090.3</ele>
        <time>2021-09-11T13:07:10Z</time>
      </trkpt>
      <trkpt lat="44.1258" lon="6.36227">
        <ele>1090.4</ele>
        <time>2021-09-11T13:07:11Z</time>
      </trkpt>
      <trkpt lat="44.12579" lon="6.36229">
        <ele>1090.5</ele>
        <time>2021-09-11T13:07:13Z</time>
      </trkpt>
      <trkpt lat="44.12577" lon="6.36231">
        <ele>1090.6</ele>
        <time>2021-09-11T13:07:15Z</time>
      </trkpt>
      <trkpt lat="44.12577" lon="6.36235">
        <ele>1090.8</ele>
        <time>2021-09-11T13:07:17Z</time>
      </trkpt>
      <trkpt lat="44.12576" lon="6.36239">
        <ele>1091</ele>
        <time>2021-09-11T13:07:18Z</time>
      </trkpt>
      <trkpt lat="44.12575" lon="6.36243">
        <ele>1091.2</ele>
        <time>2021-09-11T13:07:20Z</time>
      </trkpt>
      <trkpt lat="44.12575" lon="6.36247">
        <ele>1091.3</ele>
        <time>2021-09-11T13:07:21Z</time>
      </trkpt>
      <trkpt lat="44.12574" lon="6.36251">
        <ele>1091.5</ele>
        <time>2021-09-11T13:07:32Z</time>
      </trkpt>
      <trkpt lat="44.12573" lon="6.36255">
        <ele>1091.7</ele>
        <time>2021-09-11T13:07:34Z</time>
      </trkpt>
      <trkpt lat="44.12573" lon="6.36258">
        <ele>1091.9</ele>
        <time>2021-09-11T13:07:35Z</time>
      </trkpt>
      <trkpt lat="44.12572" lon="6.36263">
        <ele>1092.1</ele>
        <time>2021-09-11T13:07:36Z</time>
      </trkpt>
      <trkpt lat="44.12571" lon="6.36265">
        <ele>1092.2</ele>
        <time>2021-09-11T13:07:37Z</time>
      </trkpt>
      <trkpt lat="44.12569" lon="6.3627">
        <ele>1092.5</ele>
        <time>2021-09-11T13:07:39Z</time>
      </trkpt>
      <trkpt lat="44.12568" lon="6.36272">
        <ele>1092.5</ele>
        <time>2021-09-11T13:07:40Z</time>
      </trkpt>
      <trkpt lat="44.12567" lon="6.36273">
        <ele>1092.6</ele>
        <time>2021-09-11T13:07:41Z</time>
      </trkpt>
      <trkpt lat="44.12565" lon="6.36275">
        <ele>1092.8</ele>
        <time>2021-09-11T13:07:42Z</time>
      </trkpt>
      <trkpt lat="44.12564" lon="6.36275">
        <ele>1092.8</ele>
        <time>2021-09-11T13:07:43Z</time>
      </trkpt>
      <trkpt lat="44.12564" lon="6.36275">
        <ele>1092.9</ele>
        <time>2021-09-11T13:07:44Z</time>
      </trkpt>
      <trkpt lat="44.12561" lon="6.3628">
        <ele>1093.1</ele>
        <time>2021-09-11T13:07:47Z</time>
      </trkpt>
      <trkpt lat="44.1256" lon="6.36281">
        <ele>1093.2</ele>
        <time>2021-09-11T13:07:48Z</time>
      </trkpt>
      <trkpt lat="44.1256" lon="6.36282">
        <ele>1093.2</ele>
        <time>2021-09-11T13:07:49Z</time>
      </trkpt>
      <trkpt lat="44.1256" lon="6.36282">
        <ele>1093.2</ele>
        <time>2021-09-11T13:07:51Z</time>
      </trkpt>
      <trkpt lat="44.1256" lon="6.36283">
        <ele>1093.3</ele>
        <time>2021-09-11T13:07:52Z</time>
      </trkpt>
      <trkpt lat="44.1256" lon="6.36284">
        <ele>1093.3</ele>
        <time>2021-09-11T13:07:54Z</time>
      </trkpt>
      <trkpt lat="44.1256" lon="6.36285">
        <ele>1093.4</ele>
        <time>2021-09-11T13:07:55Z</time>
      </trkpt>
      <trkpt lat="44.1256" lon="6.36286">
        <ele>1093.4</ele>
        <time>2021-09-11T13:07:56Z</time>
      </trkpt>
      <trkpt lat="44.1256" lon="6.36287">
        <ele>1093.4</ele>
        <time>2021-09-11T13:07:57Z</time>
      </trkpt>
      <trkpt lat="44.1256" lon="6.36287">
        <ele>1093.5</ele>
        <time>2021-09-11T13:07:59Z</time>
      </trkpt>
      <trkpt lat="44.1256" lon="6.36288">
        <ele>1093.5</ele>
        <time>2021-09-11T13:08:00Z</time>
      </trkpt>
      <trkpt lat="44.1256" lon="6.3629">
        <ele>1093.6</ele>
        <time>2021-09-11T13:08:01Z</time>
      </trkpt>
      <trkpt lat="44.1257" lon="6.36354">
        <ele>1096.3</ele>
        <time>2021-09-11T13:09:44Z</time>
      </trkpt>
      <trkpt lat="44.12575" lon="6.36362">
        <ele>1096.9</ele>
        <time>2021-09-11T13:09:46Z</time>
      </trkpt>
      <trkpt lat="44.12581" lon="6.36368">
        <ele>1097.4</ele>
        <time>2021-09-11T13:09:47Z</time>
      </trkpt>
      <trkpt lat="44.12584" lon="6.36372">
        <ele>1097.7</ele>
        <time>2021-09-11T13:09:49Z</time>
      </trkpt>
      <trkpt lat="44.12587" lon="6.36377">
        <ele>1098</ele>
        <time>2021-09-11T13:09:51Z</time>
      </trkpt>
      <trkpt lat="44.12589" lon="6.3638">
        <ele>1098.2</ele>
        <time>2021-09-11T13:09:52Z</time>
      </trkpt>
      <trkpt lat="44.12591" lon="6.36381">
        <ele>1098.3</ele>
        <time>2021-09-11T13:09:53Z</time>
      </trkpt>
      <trkpt lat="44.12593" lon="6.36386">
        <ele>1098.6</ele>
        <time>2021-09-11T13:09:55Z</time>
      </trkpt>
      <trkpt lat="44.12594" lon="6.3639">
        <ele>1098.8</ele>
        <time>2021-09-11T13:09:56Z</time>
      </trkpt>
      <trkpt lat="44.12594" lon="6.36392">
        <ele>1098.9</ele>
        <time>2021-09-11T13:09:57Z</time>
      </trkpt>
      <trkpt lat="44.12594" lon="6.36395">
        <ele>1099</ele>
        <time>2021-09-11T13:09:58Z</time>
      </trkpt>
      <trkpt lat="44.12594" lon="6.36398">
        <ele>1099.2</ele>
        <time>2021-09-11T13:10:00Z</time>
      </trkpt>
      <trkpt lat="44.12594" lon="6.364">
        <ele>1099.3</ele>
        <time>2021-09-11T13:10:01Z</time>
      </trkpt>
      <trkpt lat="44.12594" lon="6.36403">
        <ele>1099.5</ele>
        <time>2021-09-11T13:10:02Z</time>
      </trkpt>
      <trkpt lat="44.12593" lon="6.36407">
        <ele>1099.7</ele>
        <time>2021-09-11T13:10:03Z</time>
      </trkpt>
      <trkpt lat="44.1259" lon="6.36409">
        <ele>1099.9</ele>
        <time>2021-09-11T13:10:04Z</time>
      </trkpt>
      <trkpt lat="44.12589" lon="6.3641">
        <ele>1100</ele>
        <time>2021-09-11T13:10:05Z</time>
      </trkpt>
      <trkpt lat="44.12586" lon="6.36412">
        <ele>1100.2</ele>
        <time>2021-09-11T13:10:06Z</time>
      </trkpt>
      <trkpt lat="44.1258" lon="6.36417">
        <ele>1100.6</ele>
        <time>2021-09-11T13:10:08Z</time>
      </trkpt>
      <trkpt lat="44.12575" lon="6.36424">
        <ele>1101</ele>
        <time>2021-09-11T13:10:10Z</time>
      </trkpt>
      <trkpt lat="44.12571" lon="6.36428">
        <ele>1101.3</ele>
        <time>2021-09-11T13:10:11Z</time>
      </trkpt>
      <trkpt lat="44.12567" lon="6.36433">
        <ele>1101.8</ele>
        <time>2021-09-11T13:10:13Z</time>
      </trkpt>
      <trkpt lat="44.12563" lon="6.36438">
        <ele>1102.3</ele>
        <time>2021-09-11T13:10:14Z</time>
      </trkpt>
      <trkpt lat="44.12559" lon="6.36443">
        <ele>1102.7</ele>
        <time>2021-09-11T13:10:16Z</time>
      </trkpt>
      <trkpt lat="44.12556" lon="6.36446">
        <ele>1103.1</ele>
        <time>2021-09-11T13:10:17Z</time>
      </trkpt>
      <trkpt lat="44.12553" lon="6.36448">
        <ele>1103.4</ele>
        <time>2021-09-11T13:10:18Z</time>
      </trkpt>
      <trkpt lat="44.12549" lon="6.3645">
        <ele>1103.8</ele>
        <time>2021-09-11T13:10:19Z</time>
      </trkpt>
      <trkpt lat="44.12546" lon="6.36452">
        <ele>1104.1</ele>
        <time>2021-09-11T13:10:20Z</time>
      </trkpt>
      <trkpt lat="44.12544" lon="6.36454">
        <ele>1104.4</ele>
        <time>2021-09-11T13:10:21Z</time>
      </trkpt>
      <trkpt lat="44.12542" lon="6.36456">
        <ele>1104.6</ele>
        <time>2021-09-11T13:10:22Z</time>
      </trkpt>
      <trkpt lat="44.12538" lon="6.36461">
        <ele>1105.1</ele>
        <time>2021-09-11T13:10:24Z</time>
      </trkpt>
      <trkpt lat="44.12535" lon="6.36466">
        <ele>1105.6</ele>
        <time>2021-09-11T13:10:26Z</time>
      </trkpt>
      <trkpt lat="44.12533" lon="6.36473">
        <ele>1106.1</ele>
        <time>2021-09-11T13:10:27Z</time>
      </trkpt>
      <trkpt lat="44.12532" lon="6.36479">
        <ele>1106.6</ele>
        <time>2021-09-11T13:10:28Z</time>
      </trkpt>
      <trkpt lat="44.12532" lon="6.36488">
        <ele>1107.3</ele>
        <time>2021-09-11T13:10:30Z</time>
      </trkpt>
      <trkpt lat="44.12532" lon="6.36494">
        <ele>1107.8</ele>
        <time>2021-09-11T13:10:31Z</time>
      </trkpt>
      <trkpt lat="44.12532" lon="6.36499">
        <ele>1108.1</ele>
        <time>2021-09-11T13:10:32Z</time>
      </trkpt>
      <trkpt lat="44.12533" lon="6.36503">
        <ele>1108.5</ele>
        <time>2021-09-11T13:10:33Z</time>
      </trkpt>
      <trkpt lat="44.12536" lon="6.36507">
        <ele>1109</ele>
        <time>2021-09-11T13:10:35Z</time>
      </trkpt>
      <trkpt lat="44.12538" lon="6.3651">
        <ele>1109.6</ele>
        <time>2021-09-11T13:10:36Z</time>
      </trkpt>
      <trkpt lat="44.1254" lon="6.36513">
        <ele>1110</ele>
        <time>2021-09-11T13:10:38Z</time>
      </trkpt>
      <trkpt lat="44.12542" lon="6.36517">
        <ele>1110.5</ele>
        <time>2021-09-11T13:10:39Z</time>
      </trkpt>
      <trkpt lat="44.12543" lon="6.3652">
        <ele>1111</ele>
        <time>2021-09-11T13:10:40Z</time>
      </trkpt>
      <trkpt lat="44.12544" lon="6.36521">
        <ele>1111.1</ele>
        <time>2021-09-11T13:10:41Z</time>
      </trkpt>
      <trkpt lat="44.12546" lon="6.36523">
        <ele>1111.5</ele>
        <time>2021-09-11T13:10:43Z</time>
      </trkpt>
      <trkpt lat="44.12546" lon="6.36525">
        <ele>1111.7</ele>
        <time>2021-09-11T13:10:44Z</time>
      </trkpt>
      <trkpt lat="44.12545" lon="6.36528">
        <ele>1112.2</ele>
        <time>2021-09-11T13:10:45Z</time>
      </trkpt>
      <trkpt lat="44.12545" lon="6.36529">
        <ele>1112.4</ele>
        <time>2021-09-11T13:10:47Z</time>
      </trkpt>
      <trkpt lat="44.12545" lon="6.3653">
        <ele>1112.4</ele>
        <time>2021-09-11T13:10:48Z</time>
      </trkpt>
      <trkpt lat="44.12545" lon="6.3653">
        <ele>1112.6</ele>
        <time>2021-09-11T13:10:49Z</time>
      </trkpt>
      <trkpt lat="44.12546" lon="6.36532">
        <ele>1112.8</ele>
        <time>2021-09-11T13:10:50Z</time>
      </trkpt>
      <trkpt lat="44.12546" lon="6.36534">
        <ele>1113</ele>
        <time>2021-09-11T13:10:52Z</time>
      </trkpt>
      <trkpt lat="44.12546" lon="6.36534">
        <ele>1113.2</ele>
        <time>2021-09-11T13:10:53Z</time>
      </trkpt>
      <trkpt lat="44.12546" lon="6.36536">
        <ele>1113.4</ele>
        <time>2021-09-11T13:10:54Z</time>
      </trkpt>
      <trkpt lat="44.12547" lon="6.36538">
        <ele>1113.7</ele>
        <time>2021-09-11T13:10:56Z</time>
      </trkpt>
      <trkpt lat="44.12547" lon="6.36539">
        <ele>1113.9</ele>
        <time>2021-09-11T13:10:58Z</time>
      </trkpt>
      <trkpt lat="44.12548" lon="6.3654">
        <ele>1114</ele>
        <time>2021-09-11T13:10:59Z</time>
      </trkpt>
      <trkpt lat="44.12548" lon="6.3654">
        <ele>1114.1</ele>
        <time>2021-09-11T13:11:00Z</time>
      </trkpt>
      <trkpt lat="44.12548" lon="6.36541">
        <ele>1114.2</ele>
        <time>2021-09-11T13:11:01Z</time>
      </trkpt>
      <trkpt lat="44.12548" lon="6.36541">
        <ele>1114.3</ele>
        <time>2021-09-11T13:11:02Z</time>
      </trkpt>
      <trkpt lat="44.12549" lon="6.36544">
        <ele>1114.7</ele>
        <time>2021-09-11T13:11:04Z</time>
      </trkpt>
      <trkpt lat="44.12485" lon="6.36789">
        <ele>1144.7</ele>
        <time>2021-09-11T13:17:29Z</time>
      </trkpt>
      <trkpt lat="44.1248" lon="6.36791">
        <ele>1145.3</ele>
        <time>2021-09-11T13:17:31Z</time>
      </trkpt>
      <trkpt lat="44.12479" lon="6.36792">
        <ele>1145.4</ele>
        <time>2021-09-11T13:17:33Z</time>
      </trkpt>
      <trkpt lat="44.12479" lon="6.36793">
        <ele>1145.5</ele>
        <time>2021-09-11T13:17:35Z</time>
      </trkpt>
      <trkpt lat="44.12478" lon="6.36793">
        <ele>1145.6</ele>
        <time>2021-09-11T13:17:36Z</time>
      </trkpt>
      <trkpt lat="44.12478" lon="6.36794">
        <ele>1145.7</ele>
        <time>2021-09-11T13:17:37Z</time>
      </trkpt>
      <trkpt lat="44.12476" lon="6.36795">
        <ele>1145.9</ele>
        <time>2021-09-11T13:17:39Z</time>
      </trkpt>
      <trkpt lat="44.12475" lon="6.36795">
        <ele>1146</ele>
        <time>2021-09-11T13:17:40Z</time>
      </trkpt>
      <trkpt lat="44.12474" lon="6.36795">
        <ele>1146.1</ele>
        <time>2021-09-11T13:17:41Z</time>
      </trkpt>
      <trkpt lat="44.12472" lon="6.36796">
        <ele>1146.4</ele>
        <time>2021-09-11T13:17:43Z</time>
      </trkpt>
      <trkpt lat="44.12366" lon="6.3715">
        <ele>1182.8</ele>
        <time>2021-09-11T13:23:58Z</time>
      </trkpt>
      <trkpt lat="44.12366" lon="6.37153">
        <ele>1183</ele>
        <time>2021-09-11T13:23:59Z</time>
      </trkpt>
      <trkpt lat="44.12367" lon="6.37155">
        <ele>1183.2</ele>
        <time>2021-09-11T13:24:01Z</time>
      </trkpt>
      <trkpt lat="44.12367" lon="6.37156">
        <ele>1183.3</ele>
        <time>2021-09-11T13:24:02Z</time>
      </trkpt>
      <trkpt lat="44.12367" lon="6.37158">
        <ele>1183.5</ele>
        <time>2021-09-11T13:24:03Z</time>
      </trkpt>
      <trkpt lat="44.12367" lon="6.37159">
        <ele>1183.6</ele>
        <time>2021-09-11T13:24:05Z</time>
      </trkpt>
      <trkpt lat="44.12367" lon="6.37161">
        <ele>1183.8</ele>
        <time>2021-09-11T13:24:06Z</time>
      </trkpt>
      <trkpt lat="44.12367" lon="6.37163">
        <ele>1184</ele>
        <time>2021-09-11T13:24:07Z</time>
      </trkpt>
      <trkpt lat="44.12367" lon="6.37164">
        <ele>1184.1</ele>
        <time>2021-09-11T13:24:08Z</time>
      </trkpt>
      <trkpt lat="44.12368" lon="6.37166">
        <ele>1184.2</ele>
        <time>2021-09-11T13:24:10Z</time>
      </trkpt>
      <trkpt lat="44.12368" lon="6.37166">
        <ele>1184.3</ele>
        <time>2021-09-11T13:24:12Z</time>
      </trkpt>
      <trkpt lat="44.12368" lon="6.37167">
        <ele>1184.3</ele>
        <time>2021-09-11T13:24:13Z</time>
      </trkpt>
      <trkpt lat="44.12368" lon="6.37167">
        <ele>1184.3</ele>
        <time>2021-09-11T13:24:14Z</time>
      </trkpt>
      <trkpt lat="44.12368" lon="6.37167">
        <ele>1184.3</ele>
        <time>2021-09-11T13:24:16Z</time>
      </trkpt>
      <trkpt lat="44.12368" lon="6.37167">
        <ele>1184.3</ele>
        <time>2021-09-11T13:24:17Z</time>
      </trkpt>
      <trkpt lat="44.12368" lon="6.37168">
        <ele>1184.4</ele>
        <time>2021-09-11T13:24:18Z</time>
      </trkpt>
      <trkpt lat="44.12305" lon="6.37229">
        <ele>1195.5</ele>
        <time>2021-09-11T13:27:08Z</time>
      </trkpt>
      <trkpt lat="44.12304" lon="6.37229">
        <ele>1195.6</ele>
        <time>2021-09-11T13:27:09Z</time>
      </trkpt>
      <trkpt lat="44.12301" lon="6.3723">
        <ele>1196.1</ele>
        <time>2021-09-11T13:27:11Z</time>
      </trkpt>
      <trkpt lat="44.12296" lon="6.37232">
        <ele>1196.8</ele>
        <time>2021-09-11T13:27:12Z</time>
      </trkpt>
      <trkpt lat="44.12291" lon="6.37235">
        <ele>1197.6</ele>
        <time>2021-09-11T13:27:13Z</time>
      </trkpt>
      <trkpt lat="44.12283" lon="6.3724">
        <ele>1198.7</ele>
        <time>2021-09-11T13:27:14Z</time>
      </trkpt>
      <trkpt lat="44.12281" lon="6.37245">
        <ele>1199.4</ele>
        <time>2021-09-11T13:27:16Z</time>
      </trkpt>
      <trkpt lat="44.1228" lon="6.3725">
        <ele>1199.9</ele>
        <time>2021-09-11T13:27:17Z</time>
      </trkpt>
      <trkpt lat="44.1228" lon="6.37255">
        <ele>1200.4</ele>
        <time>2021-09-11T13:27:18Z</time>
      </trkpt>
      <trkpt lat="44.12279" lon="6.3726">
        <ele>1200.9</ele>
        <time>2021-09-11T13:27:20Z</time>
      </trkpt>
      <trkpt lat="44.12278" lon="6.37265">
        <ele>1201.5</ele>
        <time>2021-09-11T13:27:21Z</time>
      </trkpt>
      <trkpt lat="44.12277" lon="6.3727">
        <ele>1202</ele>
        <time>2021-09-11T13:27:23Z</time>
      </trkpt>
      <trkpt lat="44.12276" lon="6.37275">
        <ele>1202.5</ele>
        <time>2021-09-11T13:27:24Z</time>
      </trkpt>
      <trkpt lat="44.12275" lon="6.3728">
        <ele>1203</ele>
        <time>2021-09-11T13:27:26Z</time>
      </trkpt>
      <trkpt lat="44.12274" lon="6.37285">
        <ele>1203.5</ele>
        <time>2021-09-11T13:28:01Z</time>
      </trkpt>
      <trkpt lat="44.12273" lon="6.3729">
        <ele>1204.1</ele>
        <time>2021-09-11T13:28:03Z</time>
      </trkpt>
      <trkpt lat="44.12272" lon="6.37295">
        <ele>1204.6</ele>
        <time>2021-09-11T13:28:04Z</time>
      </trkpt>
      <trkpt lat="44.12271" lon="6.37297">
        <ele>1204.8</ele>
        <time>2021-09-11T13:28:05Z</time>
      </trkpt>
      <trkpt lat="44.12271" lon="6.373">
        <ele>1205.1</ele>
        <time>2021-09-11T13:28:06Z</time>
      </trkpt>
      <trkpt lat="44.1227" lon="6.37301">
        <ele>1205.3</ele>
        <time>2021-09-11T13:28:07Z</time>
      </trkpt>
      <trkpt lat="44.12263" lon="6.3731">
        <ele>1206.6</ele>
        <time>2021-09-11T13:28:09Z</time>
      </trkpt>
      <trkpt lat="44.12255" lon="6.37321">
        <ele>1208.2</ele>
        <time>2021-09-11T13:28:10Z</time>
      </trkpt>
      <trkpt lat="44.12252" lon="6.37325">
        <ele>1208.8</ele>
        <time>2021-09-11T13:28:11Z</time>
      </trkpt>
      <trkpt lat="44.12248" lon="6.37329">
        <ele>1209.5</ele>
        <time>2021-09-11T13:28:13Z</time>
      </trkpt>
      <trkpt lat="44.12247" lon="6.37328">
        <ele>1209.7</ele>
        <time>2021-09-11T13:28:15Z</time>
      </trkpt>
      <trkpt lat="44.12241" lon="6.37314">
        <ele>1211.4</ele>
        <time>2021-09-11T13:28:39Z</time>
      </trkpt>
      <trkpt lat="44.12237" lon="6.37316">
        <ele>1212</ele>
        <time>2021-09-11T13:28:41Z</time>
      </trkpt>
      <trkpt lat="44.12235" lon="6.37321">
        <ele>1212.5</ele>
        <time>2021-09-11T13:28:42Z</time>
      </trkpt>
      <trkpt lat="44.12234" lon="6.37324">
        <ele>1212.9</ele>
        <time>2021-09-11T13:28:43Z</time>
      </trkpt>
      <trkpt lat="44.12232" lon="6.3733">
        <ele>1213.6</ele>
        <time>2021-09-11T13:28:45Z</time>
      </trkpt>
      <trkpt lat="44.12226" lon="6.3734">
        <ele>1215</ele>
        <time>2021-09-11T13:28:48Z</time>
      </trkpt>
      <trkpt lat="44.12221" lon="6.37346">
        <ele>1215.9</ele>
        <time>2021-09-11T13:28:49Z</time>
      </trkpt>
      <trkpt lat="44.1221" lon="6.37354">
        <ele>1217.6</ele>
        <time>2021-09-11T13:28:51Z</time>
      </trkpt>
      <trkpt lat="44.12205" lon="6.37358">
        <ele>1218.4</ele>
        <time>2021-09-11T13:28:52Z</time>
      </trkpt>
      <trkpt lat="44.12194" lon="6.37367">
        <ele>1220.2</ele>
        <time>2021-09-11T13:28:54Z</time>
      </trkpt>
      <trkpt lat="44.12192" lon="6.37372">
        <ele>1220.8</ele>
        <time>2021-09-11T13:28:56Z</time>
      </trkpt>
      <trkpt lat="44.12186" lon="6.37385">
        <ele>1222.4</ele>
        <time>2021-09-11T13:28:58Z</time>
      </trkpt>
      <trkpt lat="44.12182" lon="6.37393">
        <ele>1223.4</ele>
        <time>2021-09-11T13:28:59Z</time>
      </trkpt>
      <trkpt lat="44.12179" lon="6.37398">
        <ele>1224</ele>
        <time>2021-09-11T13:29:01Z</time>
      </trkpt>
      <trkpt lat="44.12177" lon="6.374">
        <ele>1224.3</ele>
        <time>2021-09-11T13:29:02Z</time>
      </trkpt>
      <trkpt lat="44.12176" lon="6.37402">
        <ele>1224.6</ele>
        <time>2021-09-11T13:29:04Z</time>
      </trkpt>
      <trkpt lat="44.12023" lon="6.37462">
        <ele>1247.1</ele>
        <time>2021-09-11T13:29:58Z</time>
      </trkpt>
      <trkpt lat="44.11999" lon="6.37474">
        <ele>1250.8</ele>
        <time>2021-09-11T13:30:00Z</time>
      </trkpt>
      <trkpt lat="44.11985" lon="6.37481">
        <ele>1252.8</ele>
        <time>2021-09-11T13:30:02Z</time>
      </trkpt>
      <trkpt lat="44.11985" lon="6.37482">
        <ele>1252.9</ele>
        <time>2021-09-11T13:30:03Z</time>
      </trkpt>
      <trkpt lat="44.11976" lon="6.37487">
        <ele>1254.4</ele>
        <time>2021-09-11T13:30:05Z</time>
      </trkpt>
      <trkpt lat="44.11974" lon="6.3749">
        <ele>1254.8</ele>
        <time>2021-09-11T13:30:06Z</time>
      </trkpt>
      <trkpt lat="44.11973" lon="6.37491">
        <ele>1255</ele>
        <time>2021-09-11T13:30:07Z</time>
      </trkpt>
      <trkpt lat="44.11973" lon="6.37493">
        <ele>1255.2</ele>
        <time>2021-09-11T13:30:09Z</time>
      </trkpt>
      <trkpt lat="44.11972" lon="6.37495">
        <ele>1255.4</ele>
        <time>2021-09-11T13:30:11Z</time>
      </trkpt>
      <trkpt lat="44.11972" lon="6.37497">
        <ele>1255.6</ele>
        <time>2021-09-11T13:30:12Z</time>
      </trkpt>
      <trkpt lat="44.1197" lon="6.375">
        <ele>1256</ele>
        <time>2021-09-11T13:30:13Z</time>
      </trkpt>
      <trkpt lat="44.11968" lon="6.37503">
        <ele>1256.4</ele>
        <time>2021-09-11T13:30:15Z</time>
      </trkpt>
      <trkpt lat="44.12097" lon="6.37864">
        <ele>1266.6</ele>
        <time>2021-09-11T13:36:06Z</time>
      </trkpt>
      <trkpt lat="44.12098" lon="6.37868">
        <ele>1266.6</ele>
        <time>2021-09-11T13:36:08Z</time>
      </trkpt>
      <trkpt lat="44.12098" lon="6.3787">
        <ele>1266.7</ele>
        <time>2021-09-11T13:36:09Z</time>
      </trkpt>
      <trkpt lat="44.12098" lon="6.37872">
        <ele>1266.7</ele>
        <time>2021-09-11T13:36:10Z</time>
      </trkpt>
      <trkpt lat="44.12097" lon="6.37873">
        <ele>1266.7</ele>
        <time>2021-09-11T13:36:12Z</time>
      </trkpt>
      <trkpt lat="44.12097" lon="6.37874">
        <ele>1266.8</ele>
        <time>2021-09-11T13:36:13Z</time>
      </trkpt>
      <trkpt lat="44.12097" lon="6.37875">
        <ele>1266.8</ele>
        <time>2021-09-11T13:36:14Z</time>
      </trkpt>
      <trkpt lat="44.12097" lon="6.37876">
        <ele>1266.8</ele>
        <time>2021-09-11T13:36:15Z</time>
      </trkpt>
      <trkpt lat="44.12096" lon="6.37878">
        <ele>1266.8</ele>
        <time>2021-09-11T13:36:17Z</time>
      </trkpt>
      <trkpt lat="44.12096" lon="6.3788">
        <ele>1266.9</ele>
        <time>2021-09-11T13:36:18Z</time>
      </trkpt>
      <trkpt lat="44.12095" lon="6.37882">
        <ele>1266.9</ele>
        <time>2021-09-11T13:36:19Z</time>
      </trkpt>
      <trkpt lat="44.12095" lon="6.37885">
        <ele>1267</ele>
        <time>2021-09-11T13:36:21Z</time>
      </trkpt>
      <trkpt lat="44.12102" lon="6.37908">
        <ele>1267.5</ele>
        <time>2021-09-11T13:36:51Z</time>
      </trkpt>
      <trkpt lat="44.12101" lon="6.37911">
        <ele>1267.6</ele>
        <time>2021-09-11T13:36:52Z</time>
      </trkpt>
      <trkpt lat="44.12102" lon="6.37912">
        <ele>1267.6</ele>
        <time>2021-09-11T13:36:54Z</time>
      </trkpt>
      <trkpt lat="44.12103" lon="6.37912">
        <ele>1267.6</ele>
        <time>2021-09-11T13:36:55Z</time>
      </trkpt>
      <trkpt lat="44.12104" lon="6.37913">
        <ele>1267.6</ele>
        <time>2021-09-11T13:36:57Z</time>
      </trkpt>
      <trkpt lat="44.12104" lon="6.37913">
        <ele>1267.6</ele>
        <time>2021-09-11T13:36:58Z</time>
      </trkpt>
      <trkpt lat="44.12104" lon="6.37913">
        <ele>1267.6</ele>
        <time>2021-09-11T13:36:59Z</time>
      </trkpt>
      <trkpt lat="44.12103" lon="6.37913">
        <ele>1267.6</ele>
        <time>2021-09-11T13:37:01Z</time>
      </trkpt>
      <trkpt lat="44.12103" lon="6.37914">
        <ele>1267.7</ele>
        <time>2021-09-11T13:37:02Z</time>
      </trkpt>
      <trkpt lat="44.12063" lon="6.38013">
        <ele>1269.8</ele>
        <time>2021-09-11T13:42:18Z</time>
      </trkpt>
      <trkpt lat="44.1206" lon="6.38016">
        <ele>1269.9</ele>
        <time>2021-09-11T13:42:19Z</time>
      </trkpt>
      <trkpt lat="44.12058" lon="6.38019">
        <ele>1270</ele>
        <time>2021-09-11T13:42:20Z</time>
      </trkpt>
      <trkpt lat="44.12056" lon="6.38022">
        <ele>1270.1</ele>
        <time>2021-09-11T13:42:21Z</time>
      </trkpt>
      <trkpt lat="44.12053" lon="6.38025">
        <ele>1270.2</ele>
        <time>2021-09-11T13:42:22Z</time>
      </trkpt>
      <trkpt lat="44.12052" lon="6.38026">
        <ele>1270.2</ele>
        <time>2021-09-11T13:42:24Z</time>
      </trkpt>
      <trkpt lat="44.12051" lon="6.38027">
        <ele>1270.3</ele>
        <time>2021-09-11T13:42:25Z</time>
      </trkpt>
      <trkpt lat="44.1205" lon="6.38027">
        <ele>1270.3</ele>
        <time>2021-09-11T13:42:26Z</time>
      </trkpt>
      <trkpt lat="44.12049" lon="6.38027">
        <ele>1270.3</ele>
        <time>2021-09-11T13:42:28Z</time>
      </trkpt>
      <trkpt lat="44.12048" lon="6.38027">
        <ele>1270.3</ele>
        <time>2021-09-11T13:42:29Z</time>
      </trkpt>
      <trkpt lat="44.12046" lon="6.38042">
        <ele>1270.6</ele>
        <time>2021-09-11T13:42:30Z</time>
      </trkpt>
      <trkpt lat="44.12046" lon="6.38057">
        <ele>1270.9</ele>
        <time>2021-09-11T13:42:32Z</time>
      </trkpt>
      <trkpt lat="44.12045" lon="6.38072">
        <ele>1271.1</ele>
        <time>2021-09-11T13:43:14Z</time>
      </trkpt>
      <trkpt lat="44.12045" lon="6.38086">
        <ele>1271.4</ele>
        <time>2021-09-11T13:43:15Z</time>
      </trkpt>
      <trkpt lat="44.12044" lon="6.38101">
        <ele>1271.7</ele>
        <time>2021-09-11T13:43:16Z</time>
      </trkpt>
      <trkpt lat="44.12047" lon="6.38101">
        <ele>1271.8</ele>
        <time>2021-09-11T13:43:18Z</time>
      </trkpt>
      <trkpt lat="44.12047" lon="6.38101">
        <ele>1271.8</ele>
        <time>2021-09-11T13:43:19Z</time>
      </trkpt>
      <trkpt lat="44.12047" lon="6.38101">
        <ele>1271.8</ele>
        <time>2021-09-11T13:43:21Z</time>
      </trkpt>
      <trkpt lat="44.12047" lon="6.38101">
        <ele>1271.8</ele>
        <time>2021-09-11T13:43:22Z</time>
      </trkpt>
      <trkpt lat="44.12047" lon="6.38101">
        <ele>1271.8</ele>
        <time>2021-09-11T13:43:24Z</time>
      </trkpt>
      <trkpt lat="44.12047" lon="6.38101">
        <ele>1271.8</ele>
        <time>2021-09-11T13:43:25Z</time>
      </trkpt>
      <trkpt lat="44.12047" lon="6.38101">
        <ele>1271.8</ele>
        <time>2021-09-11T13:43:26Z</time>
      </trkpt>
      <trkpt lat="44.1202" lon="6.3815">
        <ele>1273.1</ele>
        <time>2021-09-11T13:46:30Z</time>
      </trkpt>
      <trkpt lat="44.12014" lon="6.38152">
        <ele>1273.3</ele>
        <time>2021-09-11T13:46:32Z</time>
      </trkpt>
      <trkpt lat="44.12009" lon="6.38154">
        <ele>1273.4</ele>
        <time>2021-09-11T13:46:33Z</time>
      </trkpt>
      <trkpt lat="44.12006" lon="6.38156">
        <ele>1273.5</ele>
        <time>2021-09-11T13:46:34Z</time>
      </trkpt>
      <trkpt lat="44.12001" lon="6.38158">
        <ele>1273.6</ele>
        <time>2021-09-11T13:46:36Z</time>
      </trkpt>
      <trkpt lat="44.11998" lon="6.38159">
        <ele>1273.7</ele>
        <time>2021-09-11T13:46:37Z</time>
      </trkpt>
      <trkpt lat="44.11997" lon="6.38159">
        <ele>1273.7</ele>
        <time>2021-09-11T13:46:38Z</time>
      </trkpt>
      <trkpt lat="44.11995" lon="6.38162">
        <ele>1273.8</ele>
        <time>2021-09-11T13:46:40Z</time>
      </trkpt>
      <trkpt lat="44.11993" lon="6.38164">
        <ele>1273.9</ele>
        <time>2021-09-11T13:46:42Z</time>
      </trkpt>
      <trkpt lat="44.11993" lon="6.38165">
        <ele>1273.9</ele>
        <time>2021-09-11T13:46:43Z</time>
      </trkpt>
      <trkpt lat="44.11995" lon="6.38169">
        <ele>1274</ele>
        <time>2021-09-11T13:46:45Z</time>
      </trkpt>
      <trkpt lat="44.12" lon="6.38169">
        <ele>1274.1</ele>
        <time>2021-09-11T13:46:47Z</time>
      </trkpt>
      <trkpt lat="44.12005" lon="6.38169">
        <ele>1274.2</ele>
        <time>2021-09-11T13:46:49Z</time>
      </trkpt>
      <trkpt lat="44.12007" lon="6.38169">
        <ele>1274.3</ele>
        <time>2021-09-11T13:46:50Z</time>
      </trkpt>
      <trkpt lat="44.12008" lon="6.38169">
        <ele>1274.3</ele>
        <time>2021-09-11T13:46:52Z</time>
      </trkpt>
      <trkpt lat="44.1201" lon="6.38173">
        <ele>1274.4</ele>
        <time>2021-09-11T13:46:53Z</time>
      </trkpt>
      <trkpt lat="44.12011" lon="6.38175">
        <ele>1274.5</ele>
        <time>2021-09-11T13:46:54Z</time>
      </trkpt>
      <trkpt lat="44.12013" lon="6.38178">
        <ele>1274.5</ele>
        <time>2021-09-11T13:46:56Z</time>
      </trkpt>
      <trkpt lat="44.12014" lon="6.38182">
        <ele>1274.6</ele>
        <time>2021-09-11T13:46:57Z</time>
      </trkpt>
      <trkpt lat="44.12015" lon="6.38186">
        <ele>1274.7</ele>
        <time>2021-09-11T13:46:58Z</time>
      </trkpt>
      <trkpt lat="44.12015" lon="6.38188">
        <ele>1274.7</ele>
        <time>2021-09-11T13:46:59Z</time>
      </trkpt>
      <trkpt lat="44.12014" lon="6.38194">
        <ele>1274.9</ele>
        <time>2021-09-11T13:47:01Z</time>
      </trkpt>
      <trkpt lat="44.1201" lon="6.38201">
        <ele>1275</ele>
        <time>2021-09-11T13:47:03Z</time>
      </trkpt>
      <trkpt lat="44.12005" lon="6.38204">
        <ele>1275.2</ele>
        <time>2021-09-11T13:47:05Z</time>
      </trkpt>
      <trkpt lat="44.12001" lon="6.38205">
        <ele>1275.3</ele>
        <time>2021-09-11T13:47:07Z</time>
      </trkpt>
      <trkpt lat="44.12001" lon="6.38207">
        <ele>1275.3</ele>
        <time>2021-09-11T13:47:08Z</time>
      </trkpt>
      <trkpt lat="44.12002" lon="6.38209">
        <ele>1275.4</ele>
        <time>2021-09-11T13:47:10Z</time>
      </trkpt>
      <trkpt lat="44.12003" lon="6.38211">
        <ele>1275.4</ele>
        <time>2021-09-11T13:47:11Z</time>
      </trkpt>
      <trkpt lat="44.12004" lon="6.38212">
        <ele>1275.4</ele>
        <time>2021-09-11T13:47:12Z</time>
      </trkpt>
      <trkpt lat="44.12007" lon="6.38213">
        <ele>1275.5</ele>
        <time>2021-09-11T13:47:14Z</time>
      </trkpt>
      <trkpt lat="44.12008" lon="6.38214">
        <ele>1275.6</ele>
        <time>2021-09-11T13:47:15Z</time>
      </trkpt>
      <trkpt lat="44.12008" lon="6.38215">
        <ele>1275.6</ele>
        <time>2021-09-11T13:47:17Z</time>
      </trkpt>
      <trkpt lat="44.12007" lon="6.38215">
        <ele>1275.6</ele>
        <time>2021-09-11T13:47:18Z</time>
      </trkpt>
      <trkpt lat="44.12007" lon="6.38217">
        <ele>1275.6</ele>
        <time>2021-09-11T13:47:19Z</time>
      </trkpt>
      <trkpt lat="44.12005" lon="6.38218">
        <ele>1275.7</ele>
        <time>2021-09-11T13:47:21Z</time>
      </trkpt>
      <trkpt lat="44.11969" lon="6.38302">
        <ele>1277.6</ele>
        <time>2021-09-11T13:48:21Z</time>
      </trkpt>
      <trkpt lat="44.11966" lon="6.38307">
        <ele>1277.7</ele>
        <time>2021-09-11T13:48:23Z</time>
      </trkpt>
      <trkpt lat="44.11962" lon="6.38312">
        <ele>1277.9</ele>
        <time>2021-09-11T13:48:25Z</time>
      </trkpt>
      <trkpt lat="44.11959" lon="6.38316">
        <ele>1278</ele>
        <time>2021-09-11T13:48:26Z</time>
      </trkpt>
      <trkpt lat="44.11957" lon="6.38321">
        <ele>1278.1</ele>
        <time>2021-09-11T13:48:27Z</time>
      </trkpt>
      <trkpt lat="44.11957" lon="6.38325">
        <ele>1278.2</ele>
        <time>2021-09-11T13:48:28Z</time>
      </trkpt>
      <trkpt lat="44.11956" lon="6.3833">
        <ele>1278.3</ele>
        <time>2021-09-11T13:48:30Z</time>
      </trkpt>
      <trkpt lat="44.11956" lon="6.38335">
        <ele>1278.4</ele>
        <time>2021-09-11T13:48:32Z</time>
      </trkpt>
      <trkpt lat="44.11957" lon="6.38341">
        <ele>1278.5</ele>
        <time>2021-09-11T13:48:34Z</time>
      </trkpt>
      <trkpt lat="44.11958" lon="6.38346">
        <ele>1278.6</ele>
        <time>2021-09-11T13:48:36Z</time>
      </trkpt>
      <trkpt lat="44.11958" lon="6.38348">
        <ele>1278.7</ele>
        <time>2021-09-11T13:48:37Z</time>
      </trkpt>
      <trkpt lat="44.11958" lon="6.38349">
        <ele>1278.7</ele>
        <time>2021-09-11T13:48:38Z</time>
      </trkpt>
      <trkpt lat="44.11958" lon="6.38351">
        <ele>1278.7</ele>
        <time>2021-09-11T13:48:40Z</time>
      </trkpt>
      <trkpt lat="44.11958" lon="6.38352">
        <ele>1278.7</ele>
        <time>2021-09-11T13:48:41Z</time>
      </trkpt>
      <trkpt lat="44.11958" lon="6.38354">
        <ele>1278.8</ele>
        <time>2021-09-11T13:48:42Z</time>
      </trkpt>
      <trkpt lat="44.11958" lon="6.38355">
        <ele>1278.8</ele>
        <time>2021-09-11T13:48:44Z</time>
      </trkpt>
      <trkpt lat="44.11957" lon="6.38357">
        <ele>1278.8</ele>
        <time>2021-09-11T13:48:46Z</time>
      </trkpt>
      <trkpt lat="44.11867" lon="6.38544">
        <ele>1297.6</ele>
        <time>2021-09-11T13:51:55Z</time>
      </trkpt>
      <trkpt lat="44.11867" lon="6.38545">
        <ele>1297.8</ele>
        <time>2021-09-11T13:51:56Z</time>
      </trkpt>
      <trkpt lat="44.11866" lon="6.38546">
        <ele>1297.9</ele>
        <time>2021-09-11T13:51:57Z</time>
      </trkpt>
      <trkpt lat="44.11866" lon="6.38547">
        <ele>1298</ele>
        <time>2021-09-11T13:51:58Z</time>
      </trkpt>
      <trkpt lat="44.11866" lon="6.38548">
        <ele>1298.1</ele>
        <time>2021-09-11T13:51:59Z</time>
      </trkpt>
      <trkpt lat="44.11866" lon="6.38549">
        <ele>1298.2</ele>
        <time>2021-09-11T13:52:00Z</time>
      </trkpt>
      <trkpt lat="44.11868" lon="6.38553">
        <ele>1298.7</ele>
        <time>2021-09-11T13:52:02Z</time>
      </trkpt>
      <trkpt lat="44.1187" lon="6.38555">
        <ele>1299</ele>
        <time>2021-09-11T13:52:03Z</time>
      </trkpt>
      <trkpt lat="44.11871" lon="6.38555">
        <ele>1299.2</ele>
        <time>2021-09-11T13:52:05Z</time>
      </trkpt>
      <trkpt lat="44.11872" lon="6.38556">
        <ele>1299.3</ele>
        <time>2021-09-11T13:52:06Z</time>
      </trkpt>
      <trkpt lat="44.11872" lon="6.38558">
        <ele>1299.5</ele>
        <time>2021-09-11T13:52:07Z</time>
      </trkpt>
      <trkpt lat="44.11873" lon="6.3856">
        <ele>1299.7</ele>
        <time>2021-09-11T13:52:08Z</time>
      </trkpt>
      <trkpt lat="44.11873" lon="6.38561">
        <ele>1299.8</ele>
        <time>2021-09-11T13:52:09Z</time>
      </trkpt>
      <trkpt lat="44.11872" lon="6.38561">
        <ele>1299.9</ele>
        <time>2021-09-11T13:52:11Z</time>
      </trkpt>
      <trkpt lat="44.11871" lon="6.38561">
        <ele>1300</ele>
        <time>2021-09-11T13:52:12Z</time>
      </trkpt>
      <trkpt lat="44.11871" lon="6.38562">
        <ele>1300.1</ele>
        <time>2021-09-11T13:52:13Z</time>
      </trkpt>
      <trkpt lat="44.11871" lon="6.38564">
        <ele>1300.2</ele>
        <time>2021-09-11T13:52:15Z</time>
      </trkpt>
      <trkpt lat="44.11872" lon="6.38565">
        <ele>1300.3</ele>
        <time>2021-09-11T13:52:16Z</time>
      </trkpt>
      <trkpt lat="44.11872" lon="6.38565">
        <ele>1300.4</ele>
        <time>2021-09-11T13:52:17Z</time>
      </trkpt>
      <trkpt lat="44.11872" lon="6.38565">
        <ele>1300.4</ele>
        <time>2021-09-11T13:52:18Z</time>
      </trkpt>
      <trkpt lat="44.11872" lon="6.38565">
        <ele>1300.4</ele>
        <time>2021-09-11T13:52:19Z</time>
      </trkpt>
      <trkpt lat="44.11872" lon="6.38566">
        <ele>1300.5</ele>
        <time>2021-09-11T13:52:21Z</time>
      </trkpt>
      <trkpt lat="44.11873" lon="6.38567">
        <ele>1300.6</ele>
        <time>2021-09-11T13:52:22Z</time>
      </trkpt>
      <trkpt lat="44.11873" lon="6.38568">
        <ele>1300.7</ele>
        <time>2021-09-11T13:52:24Z</time>
      </trkpt>
      <trkpt lat="44.11874" lon="6.38569">
        <ele>1300.8</ele>
        <time>2021-09-11T13:52:25Z</time>
      </trkpt>
      <trkpt lat="44.11874" lon="6.3857">
        <ele>1300.9</ele>
        <time>2021-09-11T13:52:26Z</time>
      </trkpt>
      <trkpt lat="44.11878" lon="6.38594">
        <ele>1303</ele>
        <time>2021-09-11T13:52:55Z</time>
      </trkpt>
      <trkpt lat="44.11877" lon="6.38598">
        <ele>1303.3</ele>
        <time>2021-09-11T13:52:56Z</time>
      </trkpt>
      <trkpt lat="44.11876" lon="6.38603">
        <ele>1303.7</ele>
        <time>2021-09-11T13:52:58Z</time>
      </trkpt>
      <trkpt lat="44.11877" lon="6.38608">
        <ele>1304.1</ele>
        <time>2021-09-11T13:52:59Z</time>
      </trkpt>
      <trkpt lat="44.11877" lon="6.38613">
        <ele>1304.5</ele>
        <time>2021-09-11T13:53:01Z</time>
      </trkpt>
      <trkpt lat="44.11876" lon="6.38618">
        <ele>1304.9</ele>
        <time>2021-09-11T13:53:02Z</time>
      </trkpt>
      <trkpt lat="44.11875" lon="6.38623">
        <ele>1305.2</ele>
        <time>2021-09-11T13:53:04Z</time>
      </trkpt>
      <trkpt lat="44.11875" lon="6.38627">
        <ele>1305.5</ele>
        <time>2021-09-11T13:53:05Z</time>
      </trkpt>
      <trkpt lat="44.11874" lon="6.38633">
        <ele>1305.9</ele>
        <time>2021-09-11T13:53:07Z</time>
      </trkpt>
      <trkpt lat="44.11874" lon="6.38639">
        <ele>1306.3</ele>
        <time>2021-09-11T13:53:08Z</time>
      </trkpt>
      <trkpt lat="44.11874" lon="6.38643">
        <ele>1306.5</ele>
        <time>2021-09-11T13:53:10Z</time>
      </trkpt>
      <trkpt lat="44.11874" lon="6.38645">
        <ele>1306.7</ele>
        <time>2021-09-11T13:53:12Z</time>
      </trkpt>
      <trkpt lat="44.11875" lon="6.38647">
        <ele>1306.8</ele>
        <time>2021-09-11T13:53:13Z</time>
      </trkpt>
      <trkpt lat="44.11875" lon="6.38647">
        <ele>1306.8</ele>
        <time>2021-09-11T13:53:15Z</time>
      </trkpt>
      <trkpt lat="44.11876" lon="6.3865">
        <ele>1307</ele>
        <time>2021-09-11T13:53:16Z</time>
      </trkpt>
      <trkpt lat="44.11875" lon="6.38653">
        <ele>1307.2</ele>
        <time>2021-09-11T13:53:17Z</time>
      </trkpt>
      <trkpt lat="44.11875" lon="6.38654">
        <ele>1307.3</ele>
        <time>2021-09-11T13:53:19Z</time>
      </trkpt>
      <trkpt lat="44.11875" lon="6.38655">
        <ele>1307.4</ele>
        <time>2021-09-11T13:53:20Z</time>
      </trkpt>
      <trkpt lat="44.11874" lon="6.38659">
        <ele>1307.7</ele>
        <time>2021-09-11T13:53:22Z</time>
      </trkpt>
      <trkpt lat="44.11873" lon="6.38661">
        <ele>1307.8</ele>
        <time>2021-09-11T13:53:23Z</time>
      </trkpt>
      <trkpt lat="44.11873" lon="6.38664">
        <ele>1308</ele>
        <time>2021-09-11T13:53:25Z</time>
      </trkpt>
      <trkpt lat="44.11874" lon="6.38664">
        <ele>1308</ele>
        <time>2021-09-11T13:53:26Z</time>
      </trkpt>
      <trkpt lat="44.11874" lon="6.38664">
        <ele>1308</ele>
        <time>2021-09-11T13:53:28Z</time>
      </trkpt>
      <trkpt lat="44.11874" lon="6.38664">
        <ele>1308</ele>
        <time>2021-09-11T13:53:30Z</time>
      </trkpt>
      <trkpt lat="44.11874" lon="6.38665">
        <ele>1308.1</ele>
        <time>2021-09-11T13:53:31Z</time>
      </trkpt>
      <trkpt lat="44.11874" lon="6.38665">
        <ele>1308.1</ele>
        <time>2021-09-11T13:53:32Z</time>
      </trkpt>
      <trkpt lat="44.11874" lon="6.38666">
        <ele>1308.2</ele>
        <time>2021-09-11T13:53:34Z</time>
      </trkpt>
      <trkpt lat="44.1187" lon="6.38682">
        <ele>1309.4</ele>
        <time>2021-09-11T13:53:47Z</time>
      </trkpt>
      <trkpt lat="44.11868" lon="6.38689">
        <ele>1309.9</ele>
        <time>2021-09-11T13:53:49Z</time>
      </trkpt>
      <trkpt lat="44.11868" lon="6.38692">
        <ele>1310.2</ele>
        <time>2021-09-11T13:53:50Z</time>
      </trkpt>
      <trkpt lat="44.11868" lon="6.38697">
        <ele>1310.6</ele>
        <time>2021-09-11T13:53:52Z</time>
      </trkpt>
      <trkpt lat="44.11866" lon="6.38701">
        <ele>1310.9</ele>
        <time>2021-09-11T13:53:54Z</time>
      </trkpt>
      <trkpt lat="44.11866" lon="6.38703">
        <ele>1311</ele>
        <time>2021-09-11T13:53:55Z</time>
      </trkpt>
      <trkpt lat="44.11864" lon="6.38709">
        <ele>1311.5</ele>
        <time>2021-09-11T13:53:57Z</time>
      </trkpt>
      <trkpt lat="44.11864" lon="6.38711">
        <ele>1311.6</ele>
        <time>2021-09-11T13:53:58Z</time>
      </trkpt>
      <trkpt lat="44.11864" lon="6.38716">
        <ele>1311.9</ele>
        <time>2021-09-11T13:54:00Z</time>
      </trkpt>
      <trkpt lat="44.11864" lon="6.38721">
        <ele>1312.3</ele>
        <time>2021-09-11T13:54:02Z</time>
      </trkpt>
      <trkpt lat="44.11865" lon="6.38723">
        <ele>1312.4</ele>
        <time>2021-09-11T13:54:03Z</time>
      </trkpt>
      <trkpt lat="44.11868" lon="6.38725">
        <ele>1312.7</ele>
        <time>2021-09-11T13:54:05Z</time>
      </trkpt>
      <trkpt lat="44.11868" lon="6.38725">
        <ele>1312.8</ele>
        <time>2021-09-11T13:54:06Z</time>
      </trkpt>
      <trkpt lat="44.11867" lon="6.38727">
        <ele>1312.8</ele>
        <time>2021-09-11T13:54:08Z</time>
      </trkpt>
      <trkpt lat="44.11867" lon="6.38729">
        <ele>1313</ele>
        <time>2021-09-11T13:54:09Z</time>
      </trkpt>
      <trkpt lat="44.11866" lon="6.3873">
        <ele>1313.1</ele>
        <time>2021-09-11T13:54:11Z</time>
      </trkpt>
      <trkpt lat="44.11865" lon="6.38731">
        <ele>1313.2</ele>
        <time>2021-09-11T13:54:13Z</time>
      </trkpt>
      <trkpt lat="44.11865" lon="6.38731">
        <ele>1313.3</ele>
        <time>2021-09-11T13:54:14Z</time>
      </trkpt>
      <trkpt lat="44.11864" lon="6.38732">
        <ele>1313.3</ele>
        <time>2021-09-11T13:54:16Z</time>
      </trkpt>
      <trkpt lat="44.11864" lon="6.38733">
        <ele>1313.4</ele>
        <time>2021-09-11T13:54:18Z</time>
      </trkpt>
      <trkpt lat="44.11863" lon="6.38734">
        <ele>1313.5</ele>
        <time>2021-09-11T13:54:19Z</time>
      </trkpt>
      <trkpt lat="44.11858" lon="6.38735">
        <ele>1314</ele>
        <time>2021-09-11T13:54:23Z</time>
      </trkpt>
      <trkpt lat="44.11853" lon="6.38735">
        <ele>1314.5</ele>
        <time>2021-09-11T13:54:24Z</time>
      </trkpt>
      <trkpt lat="44.1185" lon="6.38736">
        <ele>1314.8</ele>
        <time>2021-09-11T13:54:25Z</time>
      </trkpt>
      <trkpt lat="44.11847" lon="6.38738">
        <ele>1315.1</ele>
        <time>2021-09-11T13:54:27Z</time>
      </trkpt>
      <trkpt lat="44.11844" lon="6.38738">
        <ele>1315.4</ele>
        <time>2021-09-11T13:54:28Z</time>
      </trkpt>
      <trkpt lat="44.11839" lon="6.3874">
        <ele>1316</ele>
        <time>2021-09-11T13:54:30Z</time>
      </trkpt>
      <trkpt lat="44.11836" lon="6.38744">
        <ele>1316.4</ele>
        <time>2021-09-11T13:54:32Z</time>
      </trkpt>
      <trkpt lat="44.11831" lon="6.38745">
        <ele>1316.9</ele>
        <time>2021-09-11T13:54:34Z</time>
      </trkpt>
      <trkpt lat="44.11829" lon="6.38745">
        <ele>1317</ele>
        <time>2021-09-11T13:54:35Z</time>
      </trkpt>
      <trkpt lat="44.11827" lon="6.38746">
        <ele>1317.2</ele>
        <time>2021-09-11T13:54:36Z</time>
      </trkpt>
      <trkpt lat="44.11826" lon="6.38746">
        <ele>1317.3</ele>
        <time>2021-09-11T13:54:37Z</time>
      </trkpt>
      <trkpt lat="44.11826" lon="6.38747">
        <ele>1317.4</ele>
        <time>2021-09-11T13:54:39Z</time>
      </trkpt>
      <trkpt lat="44.11825" lon="6.38748">
        <ele>1317.5</ele>
        <time>2021-09-11T13:54:41Z</time>
      </trkpt>
      <trkpt lat="44.11825" lon="6.38749">
        <ele>1317.6</ele>
        <time>2021-09-11T13:54:42Z</time>
      </trkpt>
      <trkpt lat="44.11821" lon="6.38752">
        <ele>1318</ele>
        <time>2021-09-11T13:54:43Z</time>
      </trkpt>
      <trkpt lat="44.1182" lon="6.38753">
        <ele>1318.1</ele>
        <time>2021-09-11T13:54:44Z</time>
      </trkpt>
      <trkpt lat="44.11816" lon="6.38754">
        <ele>1318.5</ele>
        <time>2021-09-11T13:54:46Z</time>
      </trkpt>
      <trkpt lat="44.11811" lon="6.38756">
        <ele>1318.9</ele>
        <time>2021-09-11T13:54:48Z</time>
      </trkpt>
      <trkpt lat="44.11808" lon="6.38758">
        <ele>1319.3</ele>
        <time>2021-09-11T13:54:49Z</time>
      </trkpt>
      <trkpt lat="44.11807" lon="6.38758">
        <ele>1319.3</ele>
        <time>2021-09-11T13:54:50Z</time>
      </trkpt>
      <trkpt lat="44.11807" lon="6.38759">
        <ele>1319.4</ele>
        <time>2021-09-11T13:54:52Z</time>
      </trkpt>
      <trkpt lat="44.11806" lon="6.3876">
        <ele>1319.5</ele>
        <time>2021-09-11T13:54:53Z</time>
      </trkpt>
      <trkpt lat="44.11805" lon="6.38761">
        <ele>1319.7</ele>
        <time>2021-09-11T13:54:54Z</time>
      </trkpt>
      <trkpt lat="44.11803" lon="6.38761">
        <ele>1319.8</ele>
        <time>2021-09-11T13:54:55Z</time>
      </trkpt>
      <trkpt lat="44.11802" lon="6.38761">
        <ele>1319.9</ele>
        <time>2021-09-11T13:54:56Z</time>
      </trkpt>
      <trkpt lat="44.118" lon="6.38762">
        <ele>1320.2</ele>
        <time>2021-09-11T13:54:58Z</time>
      </trkpt>
      <trkpt lat="44.11799" lon="6.38762">
        <ele>1320.3</ele>
        <time>2021-09-11T13:54:59Z</time>
      </trkpt>
      <trkpt lat="44.11797" lon="6.38762">
        <ele>1320.4</ele>
        <time>2021-09-11T13:55:00Z</time>
      </trkpt>
      <trkpt lat="44.11794" lon="6.38761">
        <ele>1320.7</ele>
        <time>2021-09-11T13:55:02Z</time>
      </trkpt>
      <trkpt lat="44.11793" lon="6.3876">
        <ele>1320.9</ele>
        <time>2021-09-11T13:55:03Z</time>
      </trkpt>
      <trkpt lat="44.11793" lon="6.38759">
        <ele>1321</ele>
        <time>2021-09-11T13:55:05Z</time>
      </trkpt>
      <trkpt lat="44.11792" lon="6.38758">
        <ele>1321.1</ele>
        <time>2021-09-11T13:55:06Z</time>
      </trkpt>
      <trkpt lat="44.11791" lon="6.38758">
        <ele>1321.1</ele>
        <time>2021-09-11T13:55:07Z</time>
      </trkpt>
      <trkpt lat="44.1179" lon="6.38758">
        <ele>1321.2</ele>
        <time>2021-09-11T13:55:08Z</time>
      </trkpt>
      <trkpt lat="44.11789" lon="6.38758">
        <ele>1321.4</ele>
        <time>2021-09-11T13:55:10Z</time>
      </trkpt>
      <trkpt lat="44.11788" lon="6.38758">
        <ele>1321.4</ele>
        <time>2021-09-11T13:55:11Z</time>
      </trkpt>
      <trkpt lat="44.11788" lon="6.38758">
        <ele>1321.5</ele>
        <time>2021-09-11T13:55:12Z</time>
      </trkpt>
      <trkpt lat="44.11787" lon="6.38758">
        <ele>1321.6</ele>
        <time>2021-09-11T13:55:13Z</time>
      </trkpt>
      <trkpt lat="44.11718" lon="6.38798">
        <ele>1329.9</ele>
        <time>2021-09-11T13:56:58Z</time>
      </trkpt>
      <trkpt lat="44.11713" lon="6.38799">
        <ele>1330.4</ele>
        <time>2021-09-11T13:57:00Z</time>
      </trkpt>
      <trkpt lat="44.11709" lon="6.38799">
        <ele>1330.8</ele>
        <time>2021-09-11T13:57:01Z</time>
      </trkpt>
      <trkpt lat="44.11706" lon="6.388">
        <ele>1331.1</ele>
        <time>2021-09-11T13:57:02Z</time>
      </trkpt>
      <trkpt lat="44.11702" lon="6.388">
        <ele>1331.5</ele>
        <time>2021-09-11T13:57:04Z</time>
      </trkpt>
      <trkpt lat="44.11701" lon="6.38801">
        <ele>1331.6</ele>
        <time>2021-09-11T13:57:05Z</time>
      </trkpt>
      <trkpt lat="44.117" lon="6.38802">
        <ele>1331.7</ele>
        <time>2021-09-11T13:57:06Z</time>
      </trkpt>
      <trkpt lat="44.117" lon="6.38802">
        <ele>1331.7</ele>
        <time>2021-09-11T13:57:08Z</time>
      </trkpt>
      <trkpt lat="44.11699" lon="6.38803">
        <ele>1331.8</ele>
        <time>2021-09-11T13:57:09Z</time>
      </trkpt>
      <trkpt lat="44.11699" lon="6.38803">
        <ele>1331.8</ele>
        <time>2021-09-11T13:57:10Z</time>
      </trkpt>
      <trkpt lat="44.11698" lon="6.38805">
        <ele>1332</ele>
        <time>2021-09-11T13:57:12Z</time>
      </trkpt>
      <trkpt lat="44.11697" lon="6.38807">
        <ele>1332.2</ele>
        <time>2021-09-11T13:57:14Z</time>
      </trkpt>
      <trkpt lat="44.1169" lon="6.38818">
        <ele>1333.3</ele>
        <time>2021-09-11T13:57:21Z</time>
      </trkpt>
      <trkpt lat="44.11689" lon="6.38819">
        <ele>1333.5</ele>
        <time>2021-09-11T13:57:22Z</time>
      </trkpt>
      <trkpt lat="44.11688" lon="6.38821">
        <ele>1333.8</ele>
        <time>2021-09-11T13:57:24Z</time>
      </trkpt>
      <trkpt lat="44.11687" lon="6.38822">
        <ele>1333.9</ele>
        <time>2021-09-11T13:57:25Z</time>
      </trkpt>
      <trkpt lat="44.11686" lon="6.38823">
        <ele>1334</ele>
        <time>2021-09-11T13:57:26Z</time>
      </trkpt>
      <trkpt lat="44.11686" lon="6.38823">
        <ele>1334.1</ele>
        <time>2021-09-11T13:57:28Z</time>
      </trkpt>
      <trkpt lat="44.11685" lon="6.38824">
        <ele>1334.1</ele>
        <time>2021-09-11T13:57:29Z</time>
      </trkpt>
      <trkpt lat="44.11684" lon="6.38826">
        <ele>1334.4</ele>
        <time>2021-09-11T13:57:31Z</time>
      </trkpt>
      <trkpt lat="44.11683" lon="6.38828">
        <ele>1334.6</ele>
        <time>2021-09-11T13:57:33Z</time>
      </trkpt>
      <trkpt lat="44.11682" lon="6.38829">
        <ele>1334.8</ele>
        <time>2021-09-11T13:57:34Z</time>
      </trkpt>
      <trkpt lat="44.11681" lon="6.38831">
        <ele>1335</ele>
        <time>2021-09-11T13:57:35Z</time>
      </trkpt>
      <trkpt lat="44.11679" lon="6.38835">
        <ele>1335.4</ele>
        <time>2021-09-11T13:57:37Z</time>
      </trkpt>
      <trkpt lat="44.11678" lon="6.38836">
        <ele>1335.5</ele>
        <time>2021-09-11T13:57:38Z</time>
      </trkpt>
      <trkpt lat="44.11677" lon="6.38838">
        <ele>1335.7</ele>
        <time>2021-09-11T13:57:40Z</time>
      </trkpt>
      <trkpt lat="44.11676" lon="6.3884">
        <ele>1335.9</ele>
        <time>2021-09-11T13:57:41Z</time>
      </trkpt>
      <trkpt lat="44.11675" lon="6.38841">
        <ele>1336.1</ele>
        <time>2021-09-11T13:57:42Z</time>
      </trkpt>
      <trkpt lat="44.11675" lon="6.38841">
        <ele>1336.1</ele>
        <time>2021-09-11T13:57:44Z</time>
      </trkpt>
      <trkpt lat="44.11674" lon="6.38842">
        <ele>1336.2</ele>
        <time>2021-09-11T13:57:45Z</time>
      </trkpt>
      <trkpt lat="44.11674" lon="6.38842">
        <ele>1336.2</ele>
        <time>2021-09-11T13:57:46Z</time>
      </trkpt>
      <trkpt lat="44.11674" lon="6.38843">
        <ele>1336.3</ele>
        <time>2021-09-11T13:57:48Z</time>
      </trkpt>
      <trkpt lat="44.11674" lon="6.38843">
        <ele>1336.3</ele>
        <time>2021-09-11T13:57:49Z</time>
      </trkpt>
      <trkpt lat="44.11674" lon="6.38843">
        <ele>1336.3</ele>
        <time>2021-09-11T13:57:50Z</time>
      </trkpt>
      <trkpt lat="44.11674" lon="6.38843">
        <ele>1336.3</ele>
        <time>2021-09-11T13:57:51Z</time>
      </trkpt>
      <trkpt lat="44.11674" lon="6.38843">
        <ele>1336.3</ele>
        <time>2021-09-11T13:57:52Z</time>
      </trkpt>
      <trkpt lat="44.11673" lon="6.38844">
        <ele>1336.4</ele>
        <time>2021-09-11T13:57:54Z</time>
      </trkpt>
      <trkpt lat="44.11672" lon="6.38846">
        <ele>1336.6</ele>
        <time>2021-09-11T13:57:55Z</time>
      </trkpt>
      <trkpt lat="44.11672" lon="6.38848">
        <ele>1336.8</ele>
        <time>2021-09-11T13:57:56Z</time>
      </trkpt>
      <trkpt lat="44.11671" lon="6.38851">
        <ele>1337.1</ele>
        <time>2021-09-11T13:57:58Z</time>
      </trkpt>
      <trkpt lat="44.1167" lon="6.38852">
        <ele>1337.2</ele>
        <time>2021-09-11T13:57:59Z</time>
      </trkpt>
      <trkpt lat="44.1167" lon="6.38854">
        <ele>1337.4</ele>
        <time>2021-09-11T13:58:01Z</time>
      </trkpt>
      <trkpt lat="44.11669" lon="6.38855">
        <ele>1337.4</ele>
        <time>2021-09-11T13:58:03Z</time>
      </trkpt>
      <trkpt lat="44.11669" lon="6.38855">
        <ele>1337.5</ele>
        <time>2021-09-11T13:58:04Z</time>
      </trkpt>
      <trkpt lat="44.11669" lon="6.38855">
        <ele>1337.5</ele>
        <time>2021-09-11T13:58:06Z</time>
      </trkpt>
      <trkpt lat="44.11669" lon="6.38856">
        <ele>1337.5</ele>
        <time>2021-09-11T13:58:07Z</time>
      </trkpt>
      <trkpt lat="44.11669" lon="6.38856">
        <ele>1337.6</ele>
        <time>2021-09-11T13:58:08Z</time>
      </trkpt>
      <trkpt lat="44.11667" lon="6.38858">
        <ele>1337.8</ele>
        <time>2021-09-11T13:58:10Z</time>
      </trkpt>
      <trkpt lat="44.11666" lon="6.3886">
        <ele>1338</ele>
        <time>2021-09-11T13:58:11Z</time>
      </trkpt>
      <trkpt lat="44.11665" lon="6.38862">
        <ele>1338.3</ele>
        <time>2021-09-11T13:58:13Z</time>
      </trkpt>
      <trkpt lat="44.11664" lon="6.38864">
        <ele>1338.5</ele>
        <time>2021-09-11T13:58:14Z</time>
      </trkpt>
      <trkpt lat="44.11663" lon="6.38865">
        <ele>1338.6</ele>
        <time>2021-09-11T13:58:15Z</time>
      </trkpt>
      <trkpt lat="44.11661" lon="6.38867">
        <ele>1338.9</ele>
        <time>2021-09-11T13:58:17Z</time>
      </trkpt>
      <trkpt lat="44.11658" lon="6.38869">
        <ele>1339.3</ele>
        <time>2021-09-11T13:58:19Z</time>
      </trkpt>
      <trkpt lat="44.11657" lon="6.38869">
        <ele>1339.4</ele>
        <time>2021-09-11T13:58:20Z</time>
      </trkpt>
      <trkpt lat="44.11656" lon="6.3887">
        <ele>1339.6</ele>
        <time>2021-09-11T13:58:22Z</time>
      </trkpt>
      <trkpt lat="44.11655" lon="6.3887">
        <ele>1339.8</ele>
        <time>2021-09-11T13:58:24Z</time>
      </trkpt>
      <trkpt lat="44.11654" lon="6.38869">
        <ele>1339.9</ele>
        <time>2021-09-11T13:58:26Z</time>
      </trkpt>
      <trkpt lat="44.11654" lon="6.38869">
        <ele>1339.9</ele>
        <time>2021-09-11T13:58:27Z</time>
      </trkpt>
      <trkpt lat="44.11653" lon="6.3887">
        <ele>1340</ele>
        <time>2021-09-11T13:58:29Z</time>
      </trkpt>
      <trkpt lat="44.11651" lon="6.3887">
        <ele>1340.2</ele>
        <time>2021-09-11T13:58:30Z</time>
      </trkpt>
      <trkpt lat="44.11649" lon="6.38873">
        <ele>1340.6</ele>
        <time>2021-09-11T13:58:32Z</time>
      </trkpt>
      <trkpt lat="44.11648" lon="6.38873">
        <ele>1340.7</ele>
        <time>2021-09-11T13:58:33Z</time>
      </trkpt>
      <trkpt lat="44.11647" lon="6.38874">
        <ele>1340.9</ele>
        <time>2021-09-11T13:58:34Z</time>
      </trkpt>
      <trkpt lat="44.11646" lon="6.38877">
        <ele>1341.1</ele>
        <time>2021-09-11T13:58:35Z</time>
      </trkpt>
      <trkpt lat="44.11644" lon="6.3888">
        <ele>1341.5</ele>
        <time>2021-09-11T13:58:37Z</time>
      </trkpt>
      <trkpt lat="44.11643" lon="6.3888">
        <ele>1341.6</ele>
        <time>2021-09-11T13:58:38Z</time>
      </trkpt>
      <trkpt lat="44.11641" lon="6.38882">
        <ele>1342</ele>
        <time>2021-09-11T13:58:40Z</time>
      </trkpt>
      <trkpt lat="44.1164" lon="6.38883">
        <ele>1342.1</ele>
        <time>2021-09-11T13:58:41Z</time>
      </trkpt>
      <trkpt lat="44.11639" lon="6.38884">
        <ele>1342.3</ele>
        <time>2021-09-11T13:58:42Z</time>
      </trkpt>
      <trkpt lat="44.11638" lon="6.38884">
        <ele>1342.4</ele>
        <time>2021-09-11T13:58:43Z</time>
      </trkpt>
      <trkpt lat="44.11637" lon="6.38885">
        <ele>1342.6</ele>
        <time>2021-09-11T13:58:44Z</time>
      </trkpt>
      <trkpt lat="44.11635" lon="6.38886">
        <ele>1342.8</ele>
        <time>2021-09-11T13:58:46Z</time>
      </trkpt>
      <trkpt lat="44.11634" lon="6.38887">
        <ele>1342.9</ele>
        <time>2021-09-11T13:58:47Z</time>
      </trkpt>
      <trkpt lat="44.11633" lon="6.38887">
        <ele>1343</ele>
        <time>2021-09-11T13:58:49Z</time>
      </trkpt>
      <trkpt lat="44.11632" lon="6.38888">
        <ele>1343.1</ele>
        <time>2021-09-11T13:58:50Z</time>
      </trkpt>
      <trkpt lat="44.11629" lon="6.38889">
        <ele>1343.6</ele>
        <time>2021-09-11T13:58:52Z</time>
      </trkpt>
      <trkpt lat="44.11627" lon="6.38891">
        <ele>1343.9</ele>
        <time>2021-09-11T13:58:54Z</time>
      </trkpt>
      <trkpt lat="44.11626" lon="6.38892">
        <ele>1344.1</ele>
        <time>2021-09-11T13:58:55Z</time>
      </trkpt>
      <trkpt lat="44.11625" lon="6.38892">
        <ele>1344.2</ele>
        <time>2021-09-11T13:58:56Z</time>
      </trkpt>
      <trkpt lat="44.11624" lon="6.38893">
        <ele>1344.4</ele>
        <time>2021-09-11T13:58:58Z</time>
      </trkpt>
      <trkpt lat="44.11623" lon="6.38893">
        <ele>1344.5</ele>
        <time>2021-09-11T13:59:00Z</time>
      </trkpt>
      <trkpt lat="44.11622" lon="6.38894">
        <ele>1344.6</ele>
        <time>2021-09-11T13:59:01Z</time>
      </trkpt>
      <trkpt lat="44.11621" lon="6.38894">
        <ele>1344.7</ele>
        <time>2021-09-11T13:59:02Z</time>
      </trkpt>
      <trkpt lat="44.1162" lon="6.38894">
        <ele>1344.8</ele>
        <time>2021-09-11T13:59:04Z</time>
      </trkpt>
      <trkpt lat="44.1162" lon="6.38894">
        <ele>1344.9</ele>
        <time>2021-09-11T13:59:05Z</time>
      </trkpt>
      <trkpt lat="44.11618" lon="6.38894">
        <ele>1345</ele>
        <time>2021-09-11T13:59:07Z</time>
      </trkpt>
      <trkpt lat="44.11618" lon="6.38894">
        <ele>1345.1</ele>
        <time>2021-09-11T13:59:08Z</time>
      </trkpt>
      <trkpt lat="44.11618" lon="6.38894">
        <ele>1345.1</ele>
        <time>2021-09-11T13:59:09Z</time>
      </trkpt>
      <trkpt lat="44.11617" lon="6.38894">
        <ele>1345.1</ele>
        <time>2021-09-11T13:59:11Z</time>
      </trkpt>
      <trkpt lat="44.11617" lon="6.38894">
        <ele>1345.2</ele>
        <time>2021-09-11T13:59:12Z</time>
      </trkpt>
      <trkpt lat="44.11617" lon="6.38894">
        <ele>1345.2</ele>
        <time>2021-09-11T13:59:14Z</time>
      </trkpt>
      <trkpt lat="44.11617" lon="6.38894">
        <ele>1345.2</ele>
        <time>2021-09-11T13:59:16Z</time>
      </trkpt>
      <trkpt lat="44.11617" lon="6.38894">
        <ele>1345.2</ele>
        <time>2021-09-11T13:59:17Z</time>
      </trkpt>
      <trkpt lat="44.11617" lon="6.38894">
        <ele>1345.2</ele>
        <time>2021-09-11T13:59:18Z</time>
      </trkpt>
      <trkpt lat="44.11617" lon="6.38894">
        <ele>1345.2</ele>
        <time>2021-09-11T13:59:20Z</time>
      </trkpt>
      <trkpt lat="44.11617" lon="6.38894">
        <ele>1345.2</ele>
        <time>2021-09-11T13:59:22Z</time>
      </trkpt>
      <trkpt lat="44.11617" lon="6.38894">
        <ele>1345.2</ele>
        <time>2021-09-11T13:59:23Z</time>
      </trkpt>
      <trkpt lat="44.11617" lon="6.38894">
        <ele>1345.2</ele>
        <time>2021-09-11T13:59:25Z</time>
      </trkpt>
      <trkpt lat="44.11617" lon="6.38894">
        <ele>1345.2</ele>
        <time>2021-09-11T13:59:26Z</time>
      </trkpt>
      <trkpt lat="44.11617" lon="6.38897">
        <ele>1345.5</ele>
        <time>2021-09-11T13:59:28Z</time>
      </trkpt>
      <trkpt lat="44.11617" lon="6.38899">
        <ele>1345.7</ele>
        <time>2021-09-11T13:59:29Z</time>
      </trkpt>
      <trkpt lat="44.11617" lon="6.38901">
        <ele>1345.8</ele>
        <time>2021-09-11T13:59:30Z</time>
      </trkpt>
      <trkpt lat="44.11618" lon="6.38902">
        <ele>1345.9</ele>
        <time>2021-09-11T13:59:32Z</time>
      </trkpt>
      <trkpt lat="44.11618" lon="6.38903">
        <ele>1346</ele>
        <time>2021-09-11T13:59:33Z</time>
      </trkpt>
      <trkpt lat="44.11618" lon="6.38903">
        <ele>1346</ele>
        <time>2021-09-11T13:59:35Z</time>
      </trkpt>
      <trkpt lat="44.11618" lon="6.38903">
        <ele>1346</ele>
        <time>2021-09-11T13:59:37Z</time>
      </trkpt>
      <trkpt lat="44.11618" lon="6.38903">
        <ele>1346</ele>
        <time>2021-09-11T13:59:38Z</time>
      </trkpt>
      <trkpt lat="44.11618" lon="6.38903">
        <ele>1346</ele>
        <time>2021-09-11T13:59:39Z</time>
      </trkpt>
      <trkpt lat="44.11618" lon="6.38903">
        <ele>1346</ele>
        <time>2021-09-11T13:59:40Z</time>
      </trkpt>
      <trkpt lat="44.11618" lon="6.38903">
        <ele>1346</ele>
        <time>2021-09-11T13:59:41Z</time>
      </trkpt>
      <trkpt lat="44.11618" lon="6.38903">
        <ele>1346</ele>
        <time>2021-09-11T13:59:42Z</time>
      </trkpt>
      <trkpt lat="44.11618" lon="6.38903">
        <ele>1346</ele>
        <time>2021-09-11T13:59:44Z</time>
      </trkpt>
      <trkpt lat="44.11618" lon="6.38903">
        <ele>1346</ele>
        <time>2021-09-11T13:59:45Z</time>
      </trkpt>
      <trkpt lat="44.11618" lon="6.38903">
        <ele>1346</ele>
        <time>2021-09-11T13:59:47Z</time>
      </trkpt>
      <trkpt lat="44.11618" lon="6.38903">
        <ele>1346</ele>
        <time>2021-09-11T13:59:48Z</time>
      </trkpt>
      <trkpt lat="44.11618" lon="6.38903">
        <ele>1346</ele>
        <time>2021-09-11T13:59:50Z</time>
      </trkpt>
      <trkpt lat="44.11618" lon="6.38903">
        <ele>1346</ele>
        <time>2021-09-11T13:59:51Z</time>
      </trkpt>
      <trkpt lat="44.11618" lon="6.38903">
        <ele>1346</ele>
        <time>2021-09-11T13:59:52Z</time>
      </trkpt>
      <trkpt lat="44.11618" lon="6.38903">
        <ele>1346</ele>
        <time>2021-09-11T13:59:54Z</time>
      </trkpt>
      <trkpt lat="44.11618" lon="6.38903">
        <ele>1346</ele>
        <time>2021-09-11T13:59:56Z</time>
      </trkpt>
      <trkpt lat="44.11618" lon="6.38903">
        <ele>1346</ele>
        <time>2021-09-11T13:59:57Z</time>
      </trkpt>
      <trkpt lat="44.11611" lon="6.38903">
        <ele>1346.8</ele>
        <time>2021-09-11T13:59:59Z</time>
      </trkpt>
      <trkpt lat="44.11609" lon="6.38903">
        <ele>1347.1</ele>
        <time>2021-09-11T14:00:00Z</time>
      </trkpt>
      <trkpt lat="44.11608" lon="6.38902">
        <ele>1347.2</ele>
        <time>2021-09-11T14:00:02Z</time>
      </trkpt>
      <trkpt lat="44.11607" lon="6.38902">
        <ele>1347.3</ele>
        <time>2021-09-11T14:00:03Z</time>
      </trkpt>
      <trkpt lat="44.11607" lon="6.38901">
        <ele>1347.3</ele>
        <time>2021-09-11T14:00:05Z</time>
      </trkpt>
      <trkpt lat="44.11607" lon="6.38901">
        <ele>1347.3</ele>
        <time>2021-09-11T14:00:06Z</time>
      </trkpt>
      <trkpt lat="44.11607" lon="6.38901">
        <ele>1347.3</ele>
        <time>2021-09-11T14:00:08Z</time>
      </trkpt>
      <trkpt lat="44.11607" lon="6.38901">
        <ele>1347.3</ele>
        <time>2021-09-11T14:00:09Z</time>
      </trkpt>
      <trkpt lat="44.11607" lon="6.38901">
        <ele>1347.3</ele>
        <time>2021-09-11T14:00:10Z</time>
      </trkpt>
      <trkpt lat="44.11607" lon="6.38901">
        <ele>1347.3</ele>
        <time>2021-09-11T14:00:12Z</time>
      </trkpt>
      <trkpt lat="44.11607" lon="6.38901">
        <ele>1347.3</ele>
        <time>2021-09-11T14:00:14Z</time>
      </trkpt>
      <trkpt lat="44.11607" lon="6.38901">
        <ele>1347.3</ele>
        <time>2021-09-11T14:00:15Z</time>
      </trkpt>
      <trkpt lat="44.11607" lon="6.38901">
        <ele>1347.3</ele>
        <time>2021-09-11T14:00:16Z</time>
      </trkpt>
      <trkpt lat="44.11607" lon="6.38901">
        <ele>1347.3</ele>
        <time>2021-09-11T14:00:18Z</time>
      </trkpt>
      <trkpt lat="44.11607" lon="6.38901">
        <ele>1347.3</ele>
        <time>2021-09-11T14:00:19Z</time>
      </trkpt>
      <trkpt lat="44.11607" lon="6.38901">
        <ele>1347.3</ele>
        <time>2021-09-11T14:00:21Z</time>
      </trkpt>
      <trkpt lat="44.11607" lon="6.38901">
        <ele>1347.3</ele>
        <time>2021-09-11T14:00:23Z</time>
      </trkpt>
      <trkpt lat="44.11609" lon="6.38902">
        <ele>1347.5</ele>
        <time>2021-09-11T14:00:25Z</time>
      </trkpt>
      <trkpt lat="44.1161" lon="6.38905">
        <ele>1347.7</ele>
        <time>2021-09-11T14:00:27Z</time>
      </trkpt>
      <trkpt lat="44.1161" lon="6.38907">
        <ele>1347.9</ele>
        <time>2021-09-11T14:00:29Z</time>
      </trkpt>
      <trkpt lat="44.1161" lon="6.38908">
        <ele>1348</ele>
        <time>2021-09-11T14:00:30Z</time>
      </trkpt>
      <trkpt lat="44.1161" lon="6.38909">
        <ele>1348</ele>
        <time>2021-09-11T14:00:32Z</time>
      </trkpt>
      <trkpt lat="44.1161" lon="6.38909">
        <ele>1348.1</ele>
        <time>2021-09-11T14:00:34Z</time>
      </trkpt>
      <trkpt lat="44.11611" lon="6.38909">
        <ele>1348.1</ele>
        <time>2021-09-11T14:00:35Z</time>
      </trkpt>
      <trkpt lat="44.11611" lon="6.38909">
        <ele>1348.1</ele>
        <time>2021-09-11T14:00:36Z</time>
      </trkpt>
      <trkpt lat="44.11611" lon="6.38909">
        <ele>1348.1</ele>
        <time>2021-09-11T14:00:38Z</time>
      </trkpt>
      <trkpt lat="44.11611" lon="6.38909">
        <ele>1348.1</ele>
        <time>2021-09-11T14:00:39Z</time>
      </trkpt>
      <trkpt lat="44.11611" lon="6.38909">
        <ele>1348.1</ele>
        <time>2021-09-11T14:00:40Z</time>
      </trkpt>
      <trkpt lat="44.1161" lon="6.38909">
        <ele>1348.2</ele>
        <time>2021-09-11T14:00:42Z</time>
      </trkpt>
      <trkpt lat="44.11608" lon="6.3891">
        <ele>1348.3</ele>
        <time>2021-09-11T14:00:43Z</time>
      </trkpt>
      <trkpt lat="44.11607" lon="6.38911">
        <ele>1348.4</ele>
        <time>2021-09-11T14:00:44Z</time>
      </trkpt>
      <trkpt lat="44.11607" lon="6.38911">
        <ele>1348.5</ele>
        <time>2021-09-11T14:00:45Z</time>
      </trkpt>
      <trkpt lat="44.11605" lon="6.38911">
        <ele>1348.7</ele>
        <time>2021-09-11T14:00:47Z</time>
      </trkpt>
      <trkpt lat="44.11604" lon="6.38912">
        <ele>1348.8</ele>
        <time>2021-09-11T14:00:48Z</time>
      </trkpt>
      <trkpt lat="44.11602" lon="6.38912">
        <ele>1349</ele>
        <time>2021-09-11T14:00:49Z</time>
      </trkpt>
      <trkpt lat="44.11601" lon="6.38912">
        <ele>1349.1</ele>
        <time>2021-09-11T14:00:50Z</time>
      </trkpt>
      <trkpt lat="44.116" lon="6.38912">
        <ele>1349.2</ele>
        <time>2021-09-11T14:00:51Z</time>
      </trkpt>
      <trkpt lat="44.11598" lon="6.38912">
        <ele>1349.4</ele>
        <time>2021-09-11T14:00:53Z</time>
      </trkpt>
      <trkpt lat="44.11597" lon="6.38912">
        <ele>1349.5</ele>
        <time>2021-09-11T14:00:54Z</time>
      </trkpt>
      <trkpt lat="44.11596" lon="6.38912">
        <ele>1349.5</ele>
        <time>2021-09-11T14:00:55Z</time>
      </trkpt>
      <trkpt lat="44.11596" lon="6.38912">
        <ele>1349.6</ele>
        <time>2021-09-11T14:00:57Z</time>
      </trkpt>
      <trkpt lat="44.11594" lon="6.38911">
        <ele>1349.8</ele>
        <time>2021-09-11T14:00:59Z</time>
      </trkpt>
      <trkpt lat="44.11593" lon="6.38911">
        <ele>1349.8</ele>
        <time>2021-09-11T14:01:00Z</time>
      </trkpt>
      <trkpt lat="44.11592" lon="6.3891">
        <ele>1350</ele>
        <time>2021-09-11T14:01:01Z</time>
      </trkpt>
      <trkpt lat="44.11556" lon="6.38902">
        <ele>1354</ele>
        <time>2021-09-11T14:01:52Z</time>
      </trkpt>
      <trkpt lat="44.11553" lon="6.38902">
        <ele>1354.3</ele>
        <time>2021-09-11T14:01:53Z</time>
      </trkpt>
      <trkpt lat="44.1155" lon="6.38902">
        <ele>1354.6</ele>
        <time>2021-09-11T14:01:55Z</time>
      </trkpt>
      <trkpt lat="44.11547" lon="6.38902">
        <ele>1355</ele>
        <time>2021-09-11T14:01:56Z</time>
      </trkpt>
      <trkpt lat="44.11546" lon="6.38903">
        <ele>1355.1</ele>
        <time>2021-09-11T14:01:57Z</time>
      </trkpt>
      <trkpt lat="44.11543" lon="6.38904">
        <ele>1355.5</ele>
        <time>2021-09-11T14:01:59Z</time>
      </trkpt>
      <trkpt lat="44.11542" lon="6.38904">
        <ele>1355.6</ele>
        <time>2021-09-11T14:02:00Z</time>
      </trkpt>
      <trkpt lat="44.11541" lon="6.38905">
        <ele>1355.7</ele>
        <time>2021-09-11T14:02:01Z</time>
      </trkpt>
      <trkpt lat="44.1154" lon="6.38905">
        <ele>1355.8</ele>
        <time>2021-09-11T14:02:03Z</time>
      </trkpt>
      <trkpt lat="44.11539" lon="6.38906">
        <ele>1356</ele>
        <time>2021-09-11T14:02:04Z</time>
      </trkpt>
      <trkpt lat="44.11538" lon="6.38907">
        <ele>1356.1</ele>
        <time>2021-09-11T14:02:06Z</time>
      </trkpt>
      <trkpt lat="44.11538" lon="6.38907">
        <ele>1356.1</ele>
        <time>2021-09-11T14:02:08Z</time>
      </trkpt>
      <trkpt lat="44.11537" lon="6.38907">
        <ele>1356.2</ele>
        <time>2021-09-11T14:02:09Z</time>
      </trkpt>
      <trkpt lat="44.11537" lon="6.38908">
        <ele>1356.2</ele>
        <time>2021-09-11T14:02:11Z</time>
      </trkpt>
      <trkpt lat="44.11537" lon="6.38909">
        <ele>1356.3</ele>
        <time>2021-09-11T14:02:12Z</time>
      </trkpt>
      <trkpt lat="44.11537" lon="6.38909">
        <ele>1356.3</ele>
        <time>2021-09-11T14:02:13Z</time>
      </trkpt>
      <trkpt lat="44.11537" lon="6.38915">
        <ele>1356.8</ele>
        <time>2021-09-11T14:02:24Z</time>
      </trkpt>
      <trkpt lat="44.11533" lon="6.38917">
        <ele>1357.2</ele>
        <time>2021-09-11T14:02:25Z</time>
      </trkpt>
      <trkpt lat="44.11532" lon="6.38923">
        <ele>1357.7</ele>
        <time>2021-09-11T14:02:27Z</time>
      </trkpt>
      <trkpt lat="44.1153" lon="6.38927">
        <ele>1358</ele>
        <time>2021-09-11T14:02:29Z</time>
      </trkpt>
      <trkpt lat="44.11529" lon="6.38931">
        <ele>1358.4</ele>
        <time>2021-09-11T14:02:30Z</time>
      </trkpt>
      <trkpt lat="44.11528" lon="6.38935">
        <ele>1358.6</ele>
        <time>2021-09-11T14:02:32Z</time>
      </trkpt>
      <trkpt lat="44.11527" lon="6.38938">
        <ele>1358.9</ele>
        <time>2021-09-11T14:02:34Z</time>
      </trkpt>
      <trkpt lat="44.11525" lon="6.38942">
        <ele>1359.2</ele>
        <time>2021-09-11T14:02:36Z</time>
      </trkpt>
      <trkpt lat="44.11524" lon="6.38945">
        <ele>1359.5</ele>
        <time>2021-09-11T14:02:37Z</time>
      </trkpt>
      <trkpt lat="44.11523" lon="6.38949">
        <ele>1359.8</ele>
        <time>2021-09-11T14:02:48Z</time>
      </trkpt>
      <trkpt lat="44.11522" lon="6.38952">
        <ele>1360.1</ele>
        <time>2021-09-11T14:02:49Z</time>
      </trkpt>
      <trkpt lat="44.1152" lon="6.38956">
        <ele>1360.4</ele>
        <time>2021-09-11T14:02:50Z</time>
      </trkpt>
      <trkpt lat="44.11519" lon="6.3896">
        <ele>1360.8</ele>
        <time>2021-09-11T14:02:52Z</time>
      </trkpt>
      <trkpt lat="44.11519" lon="6.38961">
        <ele>1360.9</ele>
        <time>2021-09-11T14:02:53Z</time>
      </trkpt>
      <trkpt lat="44.11518" lon="6.38963">
        <ele>1361</ele>
        <time>2021-09-11T14:02:54Z</time>
      </trkpt>
      <trkpt lat="44.11518" lon="6.38964">
        <ele>1361.1</ele>
        <time>2021-09-11T14:02:56Z</time>
      </trkpt>
      <trkpt lat="44.11517" lon="6.38965">
        <ele>1361.3</ele>
        <time>2021-09-11T14:02:58Z</time>
      </trkpt>
      <trkpt lat="44.11515" lon="6.38967">
        <ele>1361.5</ele>
        <time>2021-09-11T14:02:59Z</time>
      </trkpt>
      <trkpt lat="44.11514" lon="6.38968">
        <ele>1361.7</ele>
        <time>2021-09-11T14:03:00Z</time>
      </trkpt>
      <trkpt lat="44.11513" lon="6.3897">
        <ele>1361.9</ele>
        <time>2021-09-11T14:03:02Z</time>
      </trkpt>
      <trkpt lat="44.11511" lon="6.38971">
        <ele>1362.1</ele>
        <time>2021-09-11T14:03:03Z</time>
      </trkpt>
      <trkpt lat="44.11501" lon="6.38986">
        <ele>1363.8</ele>
        <time>2021-09-11T14:03:14Z</time>
      </trkpt>
      <trkpt lat="44.11501" lon="6.38989">
        <ele>1364</ele>
        <time>2021-09-11T14:03:15Z</time>
      </trkpt>
      <trkpt lat="44.11501" lon="6.38996">
        <ele>1364.6</ele>
        <time>2021-09-11T14:03:17Z</time>
      </trkpt>
      <trkpt lat="44.11501" lon="6.38999">
        <ele>1364.8</ele>
        <time>2021-09-11T14:03:18Z</time>
      </trkpt>
      <trkpt lat="44.11501" lon="6.39003">
        <ele>1365.1</ele>
        <time>2021-09-11T14:03:20Z</time>
      </trkpt>
      <trkpt lat="44.11501" lon="6.39004">
        <ele>1365.3</ele>
        <time>2021-09-11T14:03:21Z</time>
      </trkpt>
      <trkpt lat="44.11499" lon="6.39008">
        <ele>1365.6</ele>
        <time>2021-09-11T14:03:23Z</time>
      </trkpt>
      <trkpt lat="44.11499" lon="6.39008">
        <ele>1365.7</ele>
        <time>2021-09-11T14:03:24Z</time>
      </trkpt>
      <trkpt lat="44.11497" lon="6.39008">
        <ele>1365.8</ele>
        <time>2021-09-11T14:03:25Z</time>
      </trkpt>
      <trkpt lat="44.11497" lon="6.39009">
        <ele>1365.9</ele>
        <time>2021-09-11T14:03:26Z</time>
      </trkpt>
      <trkpt lat="44.11494" lon="6.39009">
        <ele>1366.2</ele>
        <time>2021-09-11T14:03:28Z</time>
      </trkpt>
      <trkpt lat="44.11492" lon="6.3901">
        <ele>1366.4</ele>
        <time>2021-09-11T14:03:29Z</time>
      </trkpt>
      <trkpt lat="44.11488" lon="6.3901">
        <ele>1366.8</ele>
        <time>2021-09-11T14:03:31Z</time>
      </trkpt>
      <trkpt lat="44.11482" lon="6.39009">
        <ele>1367.5</ele>
        <time>2021-09-11T14:03:33Z</time>
      </trkpt>
      <trkpt lat="44.11479" lon="6.39009">
        <ele>1367.8</ele>
        <time>2021-09-11T14:03:34Z</time>
      </trkpt>
      <trkpt lat="44.11477" lon="6.39008">
        <ele>1368.1</ele>
        <time>2021-09-11T14:03:35Z</time>
      </trkpt>
      <trkpt lat="44.11471" lon="6.39008">
        <ele>1368.7</ele>
        <time>2021-09-11T14:03:37Z</time>
      </trkpt>
      <trkpt lat="44.11468" lon="6.39009">
        <ele>1369</ele>
        <time>2021-09-11T14:03:39Z</time>
      </trkpt>
      <trkpt lat="44.11464" lon="6.39009">
        <ele>1369.5</ele>
        <time>2021-09-11T14:03:41Z</time>
      </trkpt>
      <trkpt lat="44.11461" lon="6.3901">
        <ele>1369.9</ele>
        <time>2021-09-11T14:03:43Z</time>
      </trkpt>
      <trkpt lat="44.11457" lon="6.39011">
        <ele>1370.3</ele>
        <time>2021-09-11T14:03:45Z</time>
      </trkpt>
      <trkpt lat="44.11454" lon="6.39011">
        <ele>1370.6</ele>
        <time>2021-09-11T14:03:46Z</time>
      </trkpt>
      <trkpt lat="44.11453" lon="6.39011">
        <ele>1370.7</ele>
        <time>2021-09-11T14:03:47Z</time>
      </trkpt>
      <trkpt lat="44.1145" lon="6.39013">
        <ele>1371.1</ele>
        <time>2021-09-11T14:03:49Z</time>
      </trkpt>
      <trkpt lat="44.11449" lon="6.39012">
        <ele>1371.2</ele>
        <time>2021-09-11T14:03:51Z</time>
      </trkpt>
      <trkpt lat="44.11448" lon="6.3901">
        <ele>1371.3</ele>
        <time>2021-09-11T14:03:53Z</time>
      </trkpt>
      <trkpt lat="44.11448" lon="6.3901">
        <ele>1371.4</ele>
        <time>2021-09-11T14:03:55Z</time>
      </trkpt>
      <trkpt lat="44.11448" lon="6.39009">
        <ele>1371.5</ele>
        <time>2021-09-11T14:03:56Z</time>
      </trkpt>
      <trkpt lat="44.11447" lon="6.39009">
        <ele>1371.5</ele>
        <time>2021-09-11T14:03:57Z</time>
      </trkpt>
      <trkpt lat="44.11447" lon="6.39008">
        <ele>1371.6</ele>
        <time>2021-09-11T14:03:58Z</time>
      </trkpt>
      <trkpt lat="44.11447" lon="6.39008">
        <ele>1371.6</ele>
        <time>2021-09-11T14:03:59Z</time>
      </trkpt>
      <trkpt lat="44.11336" lon="6.38973">
        <ele>1384.5</ele>
        <time>2021-09-11T14:08:19Z</time>
      </trkpt>
      <trkpt lat="44.1133" lon="6.38973">
        <ele>1385.7</ele>
        <time>2021-09-11T14:08:21Z</time>
      </trkpt>
      <trkpt lat="44.11326" lon="6.38971">
        <ele>1386.1</ele>
        <time>2021-09-11T14:08:22Z</time>
      </trkpt>
      <trkpt lat="44.11323" lon="6.38969">
        <ele>1386.5</ele>
        <time>2021-09-11T14:08:23Z</time>
      </trkpt>
      <trkpt lat="44.11321" lon="6.38969">
        <ele>1386.6</ele>
        <time>2021-09-11T14:08:24Z</time>
      </trkpt>
      <trkpt lat="44.1132" lon="6.3897">
        <ele>1386.7</ele>
        <time>2021-09-11T14:08:26Z</time>
      </trkpt>
      <trkpt lat="44.11319" lon="6.38971">
        <ele>1386.8</ele>
        <time>2021-09-11T14:08:27Z</time>
      </trkpt>
      <trkpt lat="44.11319" lon="6.38971">
        <ele>1386.8</ele>
        <time>2021-09-11T14:08:28Z</time>
      </trkpt>
      <trkpt lat="44.11319" lon="6.3897">
        <ele>1386.9</ele>
        <time>2021-09-11T14:08:29Z</time>
      </trkpt>
      <trkpt lat="44.11318" lon="6.3897">
        <ele>1387</ele>
        <time>2021-09-11T14:08:30Z</time>
      </trkpt>
      <trkpt lat="44.11316" lon="6.38969">
        <ele>1387.1</ele>
        <time>2021-09-11T14:08:31Z</time>
      </trkpt>
      <trkpt lat="44.11315" lon="6.38968">
        <ele>1387.3</ele>
        <time>2021-09-11T14:08:33Z</time>
      </trkpt>
      <trkpt lat="44.11298" lon="6.38955">
        <ele>1389.1</ele>
        <time>2021-09-11T14:08:49Z</time>
      </trkpt>
      <trkpt lat="44.11296" lon="6.38956">
        <ele>1389.3</ele>
        <time>2021-09-11T14:08:50Z</time>
      </trkpt>
      <trkpt lat="44.11291" lon="6.38958">
        <ele>1389.6</ele>
        <time>2021-09-11T14:08:52Z</time>
      </trkpt>
      <trkpt lat="44.11288" lon="6.3896">
        <ele>1389.8</ele>
        <time>2021-09-11T14:08:54Z</time>
      </trkpt>
      <trkpt lat="44.11286" lon="6.3896">
        <ele>1389.9</ele>
        <time>2021-09-11T14:08:55Z</time>
      </trkpt>
      <trkpt lat="44.11282" lon="6.38962">
        <ele>1390.1</ele>
        <time>2021-09-11T14:08:57Z</time>
      </trkpt>
      <trkpt lat="44.11279" lon="6.38964">
        <ele>1390.2</ele>
        <time>2021-09-11T14:08:58Z</time>
      </trkpt>
      <trkpt lat="44.11276" lon="6.38965">
        <ele>1390.3</ele>
        <time>2021-09-11T14:08:59Z</time>
      </trkpt>
      <trkpt lat="44.11273" lon="6.38966">
        <ele>1390.4</ele>
        <time>2021-09-11T14:09:00Z</time>
      </trkpt>
      <trkpt lat="44.11269" lon="6.38966">
        <ele>1390.4</ele>
        <time>2021-09-11T14:09:01Z</time>
      </trkpt>
      <trkpt lat="44.11262" lon="6.38967">
        <ele>1390.6</ele>
        <time>2021-09-11T14:09:03Z</time>
      </trkpt>
      <trkpt lat="44.11254" lon="6.38968">
        <ele>1390.7</ele>
        <time>2021-09-11T14:09:05Z</time>
      </trkpt>
      <trkpt lat="44.1125" lon="6.38969">
        <ele>1390.7</ele>
        <time>2021-09-11T14:09:06Z</time>
      </trkpt>
      <trkpt lat="44.11246" lon="6.3897">
        <ele>1390.7</ele>
        <time>2021-09-11T14:09:07Z</time>
      </trkpt>
      <trkpt lat="44.11238" lon="6.38972">
        <ele>1390.6</ele>
        <time>2021-09-11T14:09:09Z</time>
      </trkpt>
      <trkpt lat="44.11233" lon="6.38972">
        <ele>1390.6</ele>
        <time>2021-09-11T14:09:10Z</time>
      </trkpt>
      <trkpt lat="44.11227" lon="6.38973">
        <ele>1390.5</ele>
        <time>2021-09-11T14:09:11Z</time>
      </trkpt>
      <trkpt lat="44.11222" lon="6.38977">
        <ele>1390.4</ele>
        <time>2021-09-11T14:09:13Z</time>
      </trkpt>
      <trkpt lat="44.11218" lon="6.3898">
        <ele>1390.4</ele>
        <time>2021-09-11T14:09:14Z</time>
      </trkpt>
      <trkpt lat="44.11216" lon="6.38983">
        <ele>1390.4</ele>
        <time>2021-09-11T14:09:15Z</time>
      </trkpt>
      <trkpt lat="44.11214" lon="6.38986">
        <ele>1390.5</ele>
        <time>2021-09-11T14:09:16Z</time>
      </trkpt>
      <trkpt lat="44.11214" lon="6.38992">
        <ele>1390.6</ele>
        <time>2021-09-11T14:09:18Z</time>
      </trkpt>
      <trkpt lat="44.11214" lon="6.38997">
        <ele>1390.8</ele>
        <time>2021-09-11T14:09:19Z</time>
      </trkpt>
      <trkpt lat="44.11216" lon="6.39004">
        <ele>1391</ele>
        <time>2021-09-11T14:09:21Z</time>
      </trkpt>
      <trkpt lat="44.11217" lon="6.39008">
        <ele>1391.3</ele>
        <time>2021-09-11T14:09:22Z</time>
      </trkpt>
      <trkpt lat="44.11219" lon="6.39012">
        <ele>1391.5</ele>
        <time>2021-09-11T14:09:24Z</time>
      </trkpt>
      <trkpt lat="44.1122" lon="6.39015">
        <ele>1391.7</ele>
        <time>2021-09-11T14:09:25Z</time>
      </trkpt>
      <trkpt lat="44.11221" lon="6.39019">
        <ele>1392</ele>
        <time>2021-09-11T14:09:27Z</time>
      </trkpt>
      <trkpt lat="44.11222" lon="6.39022">
        <ele>1392.2</ele>
        <time>2021-09-11T14:09:28Z</time>
      </trkpt>
      <trkpt lat="44.11222" lon="6.39024">
        <ele>1392.3</ele>
        <time>2021-09-11T14:09:29Z</time>
      </trkpt>
      <trkpt lat="44.11223" lon="6.39025">
        <ele>1392.4</ele>
        <time>2021-09-11T14:09:31Z</time>
      </trkpt>
      <trkpt lat="44.11224" lon="6.39028">
        <ele>1392.6</ele>
        <time>2021-09-11T14:09:32Z</time>
      </trkpt>
      <trkpt lat="44.11225" lon="6.39029">
        <ele>1392.7</ele>
        <time>2021-09-11T14:09:33Z</time>
      </trkpt>
      <trkpt lat="44.11227" lon="6.39036">
        <ele>1393.2</ele>
        <time>2021-09-11T14:09:35Z</time>
      </trkpt>
      <trkpt lat="44.1123" lon="6.39041">
        <ele>1393.6</ele>
        <time>2021-09-11T14:09:37Z</time>
      </trkpt>
      <trkpt lat="44.11232" lon="6.39043">
        <ele>1393.8</ele>
        <time>2021-09-11T14:09:38Z</time>
      </trkpt>
      <trkpt lat="44.11233" lon="6.39049">
        <ele>1394.2</ele>
        <time>2021-09-11T14:09:40Z</time>
      </trkpt>
      <trkpt lat="44.11236" lon="6.39053">
        <ele>1394.5</ele>
        <time>2021-09-11T14:09:41Z</time>
      </trkpt>
      <trkpt lat="44.11237" lon="6.39055">
        <ele>1394.6</ele>
        <time>2021-09-11T14:09:42Z</time>
      </trkpt>
      <trkpt lat="44.11239" lon="6.39057">
        <ele>1394.8</ele>
        <time>2021-09-11T14:09:43Z</time>
      </trkpt>
      <trkpt lat="44.11241" lon="6.3906">
        <ele>1395</ele>
        <time>2021-09-11T14:09:45Z</time>
      </trkpt>
      <trkpt lat="44.11244" lon="6.39063">
        <ele>1395.2</ele>
        <time>2021-09-11T14:09:46Z</time>
      </trkpt>
      <trkpt lat="44.11245" lon="6.39064">
        <ele>1395.2</ele>
        <time>2021-09-11T14:09:47Z</time>
      </trkpt>
      <trkpt lat="44.11247" lon="6.39067">
        <ele>1395.4</ele>
        <time>2021-09-11T14:09:48Z</time>
      </trkpt>
      <trkpt lat="44.11249" lon="6.39068">
        <ele>1395.5</ele>
        <time>2021-09-11T14:09:49Z</time>
      </trkpt>
      <trkpt lat="44.11251" lon="6.39071">
        <ele>1395.6</ele>
        <time>2021-09-11T14:09:50Z</time>
      </trkpt>
      <trkpt lat="44.11253" lon="6.39074">
        <ele>1395.7</ele>
        <time>2021-09-11T14:09:51Z</time>
      </trkpt>
      <trkpt lat="44.11256" lon="6.39077">
        <ele>1395.8</ele>
        <time>2021-09-11T14:09:53Z</time>
      </trkpt>
      <trkpt lat="44.11258" lon="6.3908">
        <ele>1395.9</ele>
        <time>2021-09-11T14:09:54Z</time>
      </trkpt>
      <trkpt lat="44.1126" lon="6.39083">
        <ele>1395.9</ele>
        <time>2021-09-11T14:09:55Z</time>
      </trkpt>
      <trkpt lat="44.11262" lon="6.39087">
        <ele>1396</ele>
        <time>2021-09-11T14:09:56Z</time>
      </trkpt>
      <trkpt lat="44.11263" lon="6.39089">
        <ele>1396</ele>
        <time>2021-09-11T14:09:57Z</time>
      </trkpt>
      <trkpt lat="44.11265" lon="6.39092">
        <ele>1396.1</ele>
        <time>2021-09-11T14:09:58Z</time>
      </trkpt>
      <trkpt lat="44.11267" lon="6.39095">
        <ele>1396.2</ele>
        <time>2021-09-11T14:09:59Z</time>
      </trkpt>
      <trkpt lat="44.11269" lon="6.39098">
        <ele>1396.2</ele>
        <time>2021-09-11T14:10:00Z</time>
      </trkpt>
      <trkpt lat="44.11272" lon="6.391">
        <ele>1396.3</ele>
        <time>2021-09-11T14:10:02Z</time>
      </trkpt>
      <trkpt lat="44.11273" lon="6.39101">
        <ele>1396.4</ele>
        <time>2021-09-11T14:10:03Z</time>
      </trkpt>
      <trkpt lat="44.11275" lon="6.39101">
        <ele>1396.4</ele>
        <time>2021-09-11T14:10:04Z</time>
      </trkpt>
      <trkpt lat="44.11276" lon="6.39103">
        <ele>1396.5</ele>
        <time>2021-09-11T14:10:05Z</time>
      </trkpt>
      <trkpt lat="44.11278" lon="6.39105">
        <ele>1396.6</ele>
        <time>2021-09-11T14:10:06Z</time>
      </trkpt>
      <trkpt lat="44.11279" lon="6.39106">
        <ele>1396.6</ele>
        <time>2021-09-11T14:10:07Z</time>
      </trkpt>
      <trkpt lat="44.11281" lon="6.39106">
        <ele>1396.6</ele>
        <time>2021-09-11T14:10:08Z</time>
      </trkpt>
      <trkpt lat="44.11283" lon="6.39108">
        <ele>1396.7</ele>
        <time>2021-09-11T14:10:10Z</time>
      </trkpt>
      <trkpt lat="44.11283" lon="6.39111">
        <ele>1396.8</ele>
        <time>2021-09-11T14:10:11Z</time>
      </trkpt>
      <trkpt lat="44.11282" lon="6.39117">
        <ele>1396.9</ele>
        <time>2021-09-11T14:10:13Z</time>
      </trkpt>
      <trkpt lat="44.11282" lon="6.39123">
        <ele>1397.1</ele>
        <time>2021-09-11T14:10:15Z</time>
      </trkpt>
      <trkpt lat="44.11282" lon="6.39127">
        <ele>1397.2</ele>
        <time>2021-09-11T14:10:16Z</time>
      </trkpt>
      <trkpt lat="44.11283" lon="6.39131">
        <ele>1397.3</ele>
        <time>2021-09-11T14:10:17Z</time>
      </trkpt>
      <trkpt lat="44.11285" lon="6.39137">
        <ele>1397.5</ele>
        <time>2021-09-11T14:10:19Z</time>
      </trkpt>
      <trkpt lat="44.11286" lon="6.39139">
        <ele>1397.5</ele>
        <time>2021-09-11T14:10:20Z</time>
      </trkpt>
      <trkpt lat="44.11287" lon="6.39145">
        <ele>1397.7</ele>
        <time>2021-09-11T14:10:22Z</time>
      </trkpt>
      <trkpt lat="44.11289" lon="6.3915">
        <ele>1397.8</ele>
        <time>2021-09-11T14:10:24Z</time>
      </trkpt>
      <trkpt lat="44.1129" lon="6.39153">
        <ele>1397.9</ele>
        <time>2021-09-11T14:10:25Z</time>
      </trkpt>
      <trkpt lat="44.11291" lon="6.39156">
        <ele>1398</ele>
        <time>2021-09-11T14:10:26Z</time>
      </trkpt>
      <trkpt lat="44.11291" lon="6.3916">
        <ele>1398.1</ele>
        <time>2021-09-11T14:10:28Z</time>
      </trkpt>
      <trkpt lat="44.11291" lon="6.39161">
        <ele>1398.1</ele>
        <time>2021-09-11T14:10:29Z</time>
      </trkpt>
      <trkpt lat="44.11292" lon="6.39162">
        <ele>1398.1</ele>
        <time>2021-09-11T14:10:30Z</time>
      </trkpt>
      <trkpt lat="44.11293" lon="6.39164">
        <ele>1398.2</ele>
        <time>2021-09-11T14:10:31Z</time>
      </trkpt>
      <trkpt lat="44.11293" lon="6.39166">
        <ele>1398.2</ele>
        <time>2021-09-11T14:10:32Z</time>
      </trkpt>
      <trkpt lat="44.11295" lon="6.39169">
        <ele>1398.3</ele>
        <time>2021-09-11T14:10:33Z</time>
      </trkpt>
      <trkpt lat="44.11296" lon="6.39169">
        <ele>1398.3</ele>
        <time>2021-09-11T14:10:35Z</time>
      </trkpt>
      <trkpt lat="44.11297" lon="6.39171">
        <ele>1398.4</ele>
        <time>2021-09-11T14:10:36Z</time>
      </trkpt>
      <trkpt lat="44.113" lon="6.39172">
        <ele>1398.5</ele>
        <time>2021-09-11T14:10:37Z</time>
      </trkpt>
      <trkpt lat="44.11303" lon="6.39174">
        <ele>1398.5</ele>
        <time>2021-09-11T14:10:38Z</time>
      </trkpt>
      <trkpt lat="44.11306" lon="6.39178">
        <ele>1398.6</ele>
        <time>2021-09-11T14:10:40Z</time>
      </trkpt>
      <trkpt lat="44.11307" lon="6.3918">
        <ele>1398.7</ele>
        <time>2021-09-11T14:10:41Z</time>
      </trkpt>
      <trkpt lat="44.11308" lon="6.39182">
        <ele>1398.7</ele>
        <time>2021-09-11T14:10:42Z</time>
      </trkpt>
      <trkpt lat="44.11309" lon="6.39185">
        <ele>1398.8</ele>
        <time>2021-09-11T14:10:43Z</time>
      </trkpt>
      <trkpt lat="44.1131" lon="6.39193">
        <ele>1398.9</ele>
        <time>2021-09-11T14:10:45Z</time>
      </trkpt>
      <trkpt lat="44.11309" lon="6.39198">
        <ele>1398.9</ele>
        <time>2021-09-11T14:10:46Z</time>
      </trkpt>
      <trkpt lat="44.11309" lon="6.39202">
        <ele>1399</ele>
        <time>2021-09-11T14:10:47Z</time>
      </trkpt>
      <trkpt lat="44.11309" lon="6.39206">
        <ele>1399.1</ele>
        <time>2021-09-11T14:10:48Z</time>
      </trkpt>
      <trkpt lat="44.1131" lon="6.39211">
        <ele>1399.2</ele>
        <time>2021-09-11T14:10:49Z</time>
      </trkpt>
      <trkpt lat="44.11311" lon="6.39218">
        <ele>1399.3</ele>
        <time>2021-09-11T14:10:51Z</time>
      </trkpt>
      <trkpt lat="44.11312" lon="6.3922">
        <ele>1399.4</ele>
        <time>2021-09-11T14:10:52Z</time>
      </trkpt>
      <trkpt lat="44.11312" lon="6.39221">
        <ele>1399.4</ele>
        <time>2021-09-11T14:10:53Z</time>
      </trkpt>
      <trkpt lat="44.11314" lon="6.39226">
        <ele>1399.5</ele>
        <time>2021-09-11T14:10:55Z</time>
      </trkpt>
      <trkpt lat="44.11314" lon="6.39228">
        <ele>1399.5</ele>
        <time>2021-09-11T14:10:56Z</time>
      </trkpt>
      <trkpt lat="44.11315" lon="6.39233">
        <ele>1399.6</ele>
        <time>2021-09-11T14:10:57Z</time>
      </trkpt>
      <trkpt lat="44.11315" lon="6.39235">
        <ele>1399.7</ele>
        <time>2021-09-11T14:10:58Z</time>
      </trkpt>
      <trkpt lat="44.11316" lon="6.39239">
        <ele>1399.8</ele>
        <time>2021-09-11T14:11:00Z</time>
      </trkpt>
      <trkpt lat="44.11316" lon="6.39243">
        <ele>1399.9</ele>
        <time>2021-09-11T14:11:01Z</time>
      </trkpt>
      <trkpt lat="44.11317" lon="6.39248">
        <ele>1400</ele>
        <time>2021-09-11T14:11:03Z</time>
      </trkpt>
      <trkpt lat="44.11317" lon="6.39249">
        <ele>1400</ele>
        <time>2021-09-11T14:11:04Z</time>
      </trkpt>
      <trkpt lat="44.11316" lon="6.39251">
        <ele>1400</ele>
        <time>2021-09-11T14:11:05Z</time>
      </trkpt>
      <trkpt lat="44.11316" lon="6.39258">
        <ele>1400.2</ele>
        <time>2021-09-11T14:11:07Z</time>
      </trkpt>
      <trkpt lat="44.11318" lon="6.39262">
        <ele>1400.3</ele>
        <time>2021-09-11T14:11:09Z</time>
      </trkpt>
      <trkpt lat="44.1132" lon="6.39264">
        <ele>1400.3</ele>
        <time>2021-09-11T14:11:10Z</time>
      </trkpt>
      <trkpt lat="44.11322" lon="6.39266">
        <ele>1400.4</ele>
        <time>2021-09-11T14:11:12Z</time>
      </trkpt>
      <trkpt lat="44.11322" lon="6.39265">
        <ele>1400.4</ele>
        <time>2021-09-11T14:11:13Z</time>
      </trkpt>
      <trkpt lat="44.11322" lon="6.39265">
        <ele>1400.5</ele>
        <time>2021-09-11T14:11:15Z</time>
      </trkpt>
      <trkpt lat="44.11322" lon="6.39265">
        <ele>1400.5</ele>
        <time>2021-09-11T14:11:16Z</time>
      </trkpt>
      <trkpt lat="44.11322" lon="6.39266">
        <ele>1400.5</ele>
        <time>2021-09-11T14:11:18Z</time>
      </trkpt>
      <trkpt lat="44.11323" lon="6.39266">
        <ele>1400.5</ele>
        <time>2021-09-11T14:11:19Z</time>
      </trkpt>
      <trkpt lat="44.11323" lon="6.39266">
        <ele>1400.5</ele>
        <time>2021-09-11T14:11:21Z</time>
      </trkpt>
      <trkpt lat="44.11321" lon="6.39311">
        <ele>1401.5</ele>
        <time>2021-09-11T14:12:05Z</time>
      </trkpt>
      <trkpt lat="44.11321" lon="6.39315">
        <ele>1401.6</ele>
        <time>2021-09-11T14:12:06Z</time>
      </trkpt>
      <trkpt lat="44.11323" lon="6.3932">
        <ele>1401.8</ele>
        <time>2021-09-11T14:12:07Z</time>
      </trkpt>
      <trkpt lat="44.11324" lon="6.39322">
        <ele>1401.8</ele>
        <time>2021-09-11T14:12:08Z</time>
      </trkpt>
      <trkpt lat="44.11325" lon="6.39328">
        <ele>1402</ele>
        <time>2021-09-11T14:12:10Z</time>
      </trkpt>
      <trkpt lat="44.11324" lon="6.39332">
        <ele>1402.1</ele>
        <time>2021-09-11T14:12:11Z</time>
      </trkpt>
      <trkpt lat="44.11323" lon="6.39333">
        <ele>1402.2</ele>
        <time>2021-09-11T14:12:12Z</time>
      </trkpt>
      <trkpt lat="44.11321" lon="6.39338">
        <ele>1402.3</ele>
        <time>2021-09-11T14:12:14Z</time>
      </trkpt>
      <trkpt lat="44.11321" lon="6.3934">
        <ele>1402.4</ele>
        <time>2021-09-11T14:12:15Z</time>
      </trkpt>
      <trkpt lat="44.1132" lon="6.39341">
        <ele>1402.4</ele>
        <time>2021-09-11T14:12:17Z</time>
      </trkpt>
      <trkpt lat="44.1132" lon="6.39341">
        <ele>1402.4</ele>
        <time>2021-09-11T14:12:18Z</time>
      </trkpt>
      <trkpt lat="44.1132" lon="6.39342">
        <ele>1402.4</ele>
        <time>2021-09-11T14:12:19Z</time>
      </trkpt>
      <trkpt lat="44.1132" lon="6.39343">
        <ele>1402.5</ele>
        <time>2021-09-11T14:12:21Z</time>
      </trkpt>
      <trkpt lat="44.1132" lon="6.39345">
        <ele>1402.5</ele>
        <time>2021-09-11T14:12:22Z</time>
      </trkpt>
      <trkpt lat="44.11321" lon="6.39346">
        <ele>1402.6</ele>
        <time>2021-09-11T14:12:23Z</time>
      </trkpt>
      <trkpt lat="44.11321" lon="6.39356">
        <ele>1402.9</ele>
        <time>2021-09-11T14:12:24Z</time>
      </trkpt>
      <trkpt lat="44.11321" lon="6.39365">
        <ele>1403.1</ele>
        <time>2021-09-11T14:12:37Z</time>
      </trkpt>
      <trkpt lat="44.11321" lon="6.39373">
        <ele>1403.4</ele>
        <time>2021-09-11T14:12:38Z</time>
      </trkpt>
      <trkpt lat="44.11321" lon="6.39382">
        <ele>1403.7</ele>
        <time>2021-09-11T14:12:39Z</time>
      </trkpt>
      <trkpt lat="44.11321" lon="6.39384">
        <ele>1403.7</ele>
        <time>2021-09-11T14:12:40Z</time>
      </trkpt>
      <trkpt lat="44.11321" lon="6.39385">
        <ele>1403.7</ele>
        <time>2021-09-11T14:12:42Z</time>
      </trkpt>
      <trkpt lat="44.11321" lon="6.39385">
        <ele>1403.8</ele>
        <time>2021-09-11T14:12:43Z</time>
      </trkpt>
      <trkpt lat="44.11321" lon="6.39387">
        <ele>1403.8</ele>
        <time>2021-09-11T14:12:45Z</time>
      </trkpt>
      <trkpt lat="44.11321" lon="6.39388">
        <ele>1403.8</ele>
        <time>2021-09-11T14:12:46Z</time>
      </trkpt>
      <trkpt lat="44.11321" lon="6.3939">
        <ele>1403.9</ele>
        <time>2021-09-11T14:12:48Z</time>
      </trkpt>
      <trkpt lat="44.11321" lon="6.3939">
        <ele>1403.9</ele>
        <time>2021-09-11T14:12:49Z</time>
      </trkpt>
      <trkpt lat="44.11321" lon="6.39391">
        <ele>1403.9</ele>
        <time>2021-09-11T14:12:50Z</time>
      </trkpt>
      <trkpt lat="44.11322" lon="6.39391">
        <ele>1403.9</ele>
        <time>2021-09-11T14:12:51Z</time>
      </trkpt>
      <trkpt lat="44.11322" lon="6.39392">
        <ele>1404</ele>
        <time>2021-09-11T14:12:53Z</time>
      </trkpt>
      <trkpt lat="44.11322" lon="6.39394">
        <ele>1404</ele>
        <time>2021-09-11T14:12:54Z</time>
      </trkpt>
      <trkpt lat="44.11322" lon="6.39395">
        <ele>1404</ele>
        <time>2021-09-11T14:12:55Z</time>
      </trkpt>
      <trkpt lat="44.11322" lon="6.39397">
        <ele>1404.1</ele>
        <time>2021-09-11T14:12:56Z</time>
      </trkpt>
      <trkpt lat="44.11321" lon="6.39401">
        <ele>1404.2</ele>
        <time>2021-09-11T14:12:58Z</time>
      </trkpt>
      <trkpt lat="44.11321" lon="6.39405">
        <ele>1404.3</ele>
        <time>2021-09-11T14:12:59Z</time>
      </trkpt>
      <trkpt lat="44.11321" lon="6.39407">
        <ele>1404.4</ele>
        <time>2021-09-11T14:13:00Z</time>
      </trkpt>
      <trkpt lat="44.1132" lon="6.39413">
        <ele>1404.6</ele>
        <time>2021-09-11T14:13:02Z</time>
      </trkpt>
      <trkpt lat="44.11319" lon="6.39414">
        <ele>1404.6</ele>
        <time>2021-09-11T14:13:03Z</time>
      </trkpt>
      <trkpt lat="44.11319" lon="6.39416">
        <ele>1404.7</ele>
        <time>2021-09-11T14:13:05Z</time>
      </trkpt>
      <trkpt lat="44.11318" lon="6.39417">
        <ele>1404.7</ele>
        <time>2021-09-11T14:13:06Z</time>
      </trkpt>
      <trkpt lat="44.11316" lon="6.39423">
        <ele>1404.9</ele>
        <time>2021-09-11T14:13:08Z</time>
      </trkpt>
      <trkpt lat="44.11314" lon="6.39426">
        <ele>1405</ele>
        <time>2021-09-11T14:13:09Z</time>
      </trkpt>
      <trkpt lat="44.11313" lon="6.39427">
        <ele>1405.1</ele>
        <time>2021-09-11T14:13:10Z</time>
      </trkpt>
      <trkpt lat="44.11311" lon="6.3943">
        <ele>1405.2</ele>
        <time>2021-09-11T14:13:12Z</time>
      </trkpt>
      <trkpt lat="44.1131" lon="6.39433">
        <ele>1405.4</ele>
        <time>2021-09-11T14:13:14Z</time>
      </trkpt>
      <trkpt lat="44.11308" lon="6.39437">
        <ele>1405.5</ele>
        <time>2021-09-11T14:13:16Z</time>
      </trkpt>
      <trkpt lat="44.11305" lon="6.39442">
        <ele>1405.7</ele>
        <time>2021-09-11T14:13:18Z</time>
      </trkpt>
      <trkpt lat="44.11302" lon="6.39445">
        <ele>1405.9</ele>
        <time>2021-09-11T14:13:20Z</time>
      </trkpt>
      <trkpt lat="44.11301" lon="6.39447">
        <ele>1406</ele>
        <time>2021-09-11T14:13:21Z</time>
      </trkpt>
      <trkpt lat="44.11299" lon="6.39448">
        <ele>1406</ele>
        <time>2021-09-11T14:13:22Z</time>
      </trkpt>
      <trkpt lat="44.11297" lon="6.39449">
        <ele>1406.2</ele>
        <time>2021-09-11T14:13:24Z</time>
      </trkpt>
      <trkpt lat="44.11296" lon="6.3945">
        <ele>1406.2</ele>
        <time>2021-09-11T14:13:26Z</time>
      </trkpt>
      <trkpt lat="44.11295" lon="6.3945">
        <ele>1406.3</ele>
        <time>2021-09-11T14:13:27Z</time>
      </trkpt>
      <trkpt lat="44.11294" lon="6.39451">
        <ele>1406.3</ele>
        <time>2021-09-11T14:13:29Z</time>
      </trkpt>
      <trkpt lat="44.11293" lon="6.39451">
        <ele>1406.4</ele>
        <time>2021-09-11T14:13:31Z</time>
      </trkpt>
      <trkpt lat="44.11293" lon="6.39451">
        <ele>1406.4</ele>
        <time>2021-09-11T14:13:32Z</time>
      </trkpt>
      <trkpt lat="44.11292" lon="6.39451">
        <ele>1406.4</ele>
        <time>2021-09-11T14:13:34Z</time>
      </trkpt>
      <trkpt lat="44.11292" lon="6.39452">
        <ele>1406.4</ele>
        <time>2021-09-11T14:13:35Z</time>
      </trkpt>
      <trkpt lat="44.11292" lon="6.39452">
        <ele>1406.4</ele>
        <time>2021-09-11T14:13:37Z</time>
      </trkpt>
      <trkpt lat="44.11292" lon="6.39453">
        <ele>1406.5</ele>
        <time>2021-09-11T14:13:38Z</time>
      </trkpt>
      <trkpt lat="44.11292" lon="6.39456">
        <ele>1406.6</ele>
        <time>2021-09-11T14:13:39Z</time>
      </trkpt>
      <trkpt lat="44.11293" lon="6.3946">
        <ele>1406.7</ele>
        <time>2021-09-11T14:13:40Z</time>
      </trkpt>
      <trkpt lat="44.11294" lon="6.39462">
        <ele>1406.8</ele>
        <time>2021-09-11T14:13:42Z</time>
      </trkpt>
      <trkpt lat="44.11295" lon="6.39464">
        <ele>1406.9</ele>
        <time>2021-09-11T14:13:44Z</time>
      </trkpt>
      <trkpt lat="44.11295" lon="6.39465">
        <ele>1406.9</ele>
        <time>2021-09-11T14:13:45Z</time>
      </trkpt>
      <trkpt lat="44.11296" lon="6.39466">
        <ele>1406.9</ele>
        <time>2021-09-11T14:13:46Z</time>
      </trkpt>
      <trkpt lat="44.11297" lon="6.39468">
        <ele>1407</ele>
        <time>2021-09-11T14:13:47Z</time>
      </trkpt>
      <trkpt lat="44.11297" lon="6.39469">
        <ele>1407</ele>
        <time>2021-09-11T14:13:49Z</time>
      </trkpt>
      <trkpt lat="44.11298" lon="6.3947">
        <ele>1407.1</ele>
        <time>2021-09-11T14:13:51Z</time>
      </trkpt>
      <trkpt lat="44.11298" lon="6.39471">
        <ele>1407.1</ele>
        <time>2021-09-11T14:13:52Z</time>
      </trkpt>
      <trkpt lat="44.11298" lon="6.39472">
        <ele>1407.1</ele>
        <time>2021-09-11T14:13:54Z</time>
      </trkpt>
      <trkpt lat="44.11298" lon="6.39472">
        <ele>1407.2</ele>
        <time>2021-09-11T14:13:55Z</time>
      </trkpt>
      <trkpt lat="44.11299" lon="6.39473">
        <ele>1407.2</ele>
        <time>2021-09-11T14:13:57Z</time>
      </trkpt>
      <trkpt lat="44.11299" lon="6.39473">
        <ele>1407.2</ele>
        <time>2021-09-11T14:13:58Z</time>
      </trkpt>
      <trkpt lat="44.11299" lon="6.39474">
        <ele>1407.2</ele>
        <time>2021-09-11T14:14:00Z</time>
      </trkpt>
      <trkpt lat="44.11299" lon="6.39474">
        <ele>1407.2</ele>
        <time>2021-09-11T14:14:01Z</time>
      </trkpt>
      <trkpt lat="44.11299" lon="6.39474">
        <ele>1407.2</ele>
        <time>2021-09-11T14:14:03Z</time>
      </trkpt>
      <trkpt lat="44.11298" lon="6.39475">
        <ele>1407.3</ele>
        <time>2021-09-11T14:14:04Z</time>
      </trkpt>
      <trkpt lat="44.11296" lon="6.39475">
        <ele>1407.3</ele>
        <time>2021-09-11T14:14:05Z</time>
      </trkpt>
      <trkpt lat="44.11295" lon="6.39476">
        <ele>1407.4</ele>
        <time>2021-09-11T14:14:07Z</time>
      </trkpt>
      <trkpt lat="44.11293" lon="6.39477">
        <ele>1407.5</ele>
        <time>2021-09-11T14:14:08Z</time>
      </trkpt>
      <trkpt lat="44.1129" lon="6.39479">
        <ele>1407.6</ele>
        <time>2021-09-11T14:14:10Z</time>
      </trkpt>
      <trkpt lat="44.11288" lon="6.39481">
        <ele>1407.7</ele>
        <time>2021-09-11T14:14:11Z</time>
      </trkpt>
      <trkpt lat="44.11287" lon="6.39481">
        <ele>1407.7</ele>
        <time>2021-09-11T14:14:12Z</time>
      </trkpt>
      <trkpt lat="44.11284" lon="6.39483">
        <ele>1407.9</ele>
        <time>2021-09-11T14:14:14Z</time>
      </trkpt>
      <trkpt lat="44.11282" lon="6.39483">
        <ele>1408</ele>
        <time>2021-09-11T14:14:15Z</time>
      </trkpt>
      <trkpt lat="44.1128" lon="6.39484">
        <ele>1408</ele>
        <time>2021-09-11T14:14:17Z</time>
      </trkpt>
      <trkpt lat="44.11279" lon="6.39484">
        <ele>1408</ele>
        <time>2021-09-11T14:14:19Z</time>
      </trkpt>
      <trkpt lat="44.11279" lon="6.39484">
        <ele>1408.1</ele>
        <time>2021-09-11T14:14:20Z</time>
      </trkpt>
      <trkpt lat="44.11278" lon="6.39484">
        <ele>1408.1</ele>
        <time>2021-09-11T14:14:21Z</time>
      </trkpt>
      <trkpt lat="44.11277" lon="6.39484">
        <ele>1408.2</ele>
        <time>2021-09-11T14:14:22Z</time>
      </trkpt>
      <trkpt lat="44.11276" lon="6.39485">
        <ele>1408.2</ele>
        <time>2021-09-11T14:14:23Z</time>
      </trkpt>
      <trkpt lat="44.11274" lon="6.39486">
        <ele>1408.3</ele>
        <time>2021-09-11T14:14:25Z</time>
      </trkpt>
      <trkpt lat="44.11273" lon="6.39488">
        <ele>1408.3</ele>
        <time>2021-09-11T14:14:26Z</time>
      </trkpt>
      <trkpt lat="44.11273" lon="6.39489">
        <ele>1408.4</ele>
        <time>2021-09-11T14:14:27Z</time>
      </trkpt>
      <trkpt lat="44.11272" lon="6.3949">
        <ele>1408.4</ele>
        <time>2021-09-11T14:14:28Z</time>
      </trkpt>
      <trkpt lat="44.11272" lon="6.39491">
        <ele>1408.4</ele>
        <time>2021-09-11T14:14:29Z</time>
      </trkpt>
      <trkpt lat="44.11272" lon="6.39493">
        <ele>1408.5</ele>
        <time>2021-09-11T14:14:31Z</time>
      </trkpt>
      <trkpt lat="44.11271" lon="6.39498">
        <ele>1408.7</ele>
        <time>2021-09-11T14:14:33Z</time>
      </trkpt>
      <trkpt lat="44.1127" lon="6.395">
        <ele>1408.7</ele>
        <time>2021-09-11T14:14:34Z</time>
      </trkpt>
      <trkpt lat="44.1127" lon="6.39502">
        <ele>1408.8</ele>
        <time>2021-09-11T14:14:35Z</time>
      </trkpt>
      <trkpt lat="44.11271" lon="6.39505">
        <ele>1408.9</ele>
        <time>2021-09-11T14:14:36Z</time>
      </trkpt>
      <trkpt lat="44.11272" lon="6.39506">
        <ele>1408.9</ele>
        <time>2021-09-11T14:14:38Z</time>
      </trkpt>
      <trkpt lat="44.11272" lon="6.39507">
        <ele>1409</ele>
        <time>2021-09-11T14:14:39Z</time>
      </trkpt>
      <trkpt lat="44.11272" lon="6.39508">
        <ele>1409</ele>
        <time>2021-09-11T14:14:41Z</time>
      </trkpt>
      <trkpt lat="44.11273" lon="6.39509">
        <ele>1409.1</ele>
        <time>2021-09-11T14:14:42Z</time>
      </trkpt>
      <trkpt lat="44.11273" lon="6.3951">
        <ele>1409.1</ele>
        <time>2021-09-11T14:14:43Z</time>
      </trkpt>
      <trkpt lat="44.11274" lon="6.39512">
        <ele>1409.2</ele>
        <time>2021-09-11T14:14:44Z</time>
      </trkpt>
      <trkpt lat="44.11277" lon="6.39523">
        <ele>1409.7</ele>
        <time>2021-09-11T14:14:52Z</time>
      </trkpt>
      <trkpt lat="44.11278" lon="6.39526">
        <ele>1409.8</ele>
        <time>2021-09-11T14:14:53Z</time>
      </trkpt>
      <trkpt lat="44.11278" lon="6.39528">
        <ele>1409.9</ele>
        <time>2021-09-11T14:14:54Z</time>
      </trkpt>
      <trkpt lat="44.11279" lon="6.39529">
        <ele>1409.9</ele>
        <time>2021-09-11T14:14:56Z</time>
      </trkpt>
      <trkpt lat="44.11279" lon="6.3953">
        <ele>1410</ele>
        <time>2021-09-11T14:14:58Z</time>
      </trkpt>
      <trkpt lat="44.11279" lon="6.3953">
        <ele>1410</ele>
        <time>2021-09-11T14:14:59Z</time>
      </trkpt>
      <trkpt lat="44.1128" lon="6.39531">
        <ele>1410</ele>
        <time>2021-09-11T14:15:01Z</time>
      </trkpt>
      <trkpt lat="44.1128" lon="6.39531">
        <ele>1410</ele>
        <time>2021-09-11T14:15:02Z</time>
      </trkpt>
      <trkpt lat="44.1128" lon="6.39531">
        <ele>1410</ele>
        <time>2021-09-11T14:15:03Z</time>
      </trkpt>
      <trkpt lat="44.11296" lon="6.39574">
        <ele>1412</ele>
        <time>2021-09-11T14:15:45Z</time>
      </trkpt>
      <trkpt lat="44.11298" lon="6.39575">
        <ele>1412.1</ele>
        <time>2021-09-11T14:15:46Z</time>
      </trkpt>
      <trkpt lat="44.113" lon="6.39576">
        <ele>1412.2</ele>
        <time>2021-09-11T14:15:48Z</time>
      </trkpt>
      <trkpt lat="44.11302" lon="6.39577">
        <ele>1412.3</ele>
        <time>2021-09-11T14:15:49Z</time>
      </trkpt>
      <trkpt lat="44.11303" lon="6.39577">
        <ele>1412.4</ele>
        <time>2021-09-11T14:15:50Z</time>
      </trkpt>
      <trkpt lat="44.11304" lon="6.39578">
        <ele>1412.4</ele>
        <time>2021-09-11T14:15:51Z</time>
      </trkpt>
      <trkpt lat="44.11305" lon="6.39578">
        <ele>1412.5</ele>
        <time>2021-09-11T14:15:53Z</time>
      </trkpt>
      <trkpt lat="44.11308" lon="6.39579">
        <ele>1412.6</ele>
        <time>2021-09-11T14:15:55Z</time>
      </trkpt>
      <trkpt lat="44.1132" lon="6.39591">
        <ele>1413.3</ele>
        <time>2021-09-11T14:15:56Z</time>
      </trkpt>
      <trkpt lat="44.11331" lon="6.39603">
        <ele>1414</ele>
        <time>2021-09-11T14:16:55Z</time>
      </trkpt>
      <trkpt lat="44.11341" lon="6.39615">
        <ele>1414.7</ele>
        <time>2021-09-11T14:16:56Z</time>
      </trkpt>
      <trkpt lat="44.11352" lon="6.39627">
        <ele>1415.4</ele>
        <time>2021-09-11T14:16:57Z</time>
      </trkpt>
      <trkpt lat="44.11356" lon="6.39627">
        <ele>1415.6</ele>
        <time>2021-09-11T14:16:59Z</time>
      </trkpt>
      <trkpt lat="44.11358" lon="6.39627">
        <ele>1415.7</ele>
        <time>2021-09-11T14:17:01Z</time>
      </trkpt>
      <trkpt lat="44.11359" lon="6.39627">
        <ele>1415.8</ele>
        <time>2021-09-11T14:17:02Z</time>
      </trkpt>
      <trkpt lat="44.11363" lon="6.39626">
        <ele>1416</ele>
        <time>2021-09-11T14:17:04Z</time>
      </trkpt>
      <trkpt lat="44.11366" lon="6.39628">
        <ele>1416.2</ele>
        <time>2021-09-11T14:17:05Z</time>
      </trkpt>
      <trkpt lat="44.11369" lon="6.39627">
        <ele>1416.3</ele>
        <time>2021-09-11T14:17:07Z</time>
      </trkpt>
      <trkpt lat="44.11369" lon="6.39624">
        <ele>1416.4</ele>
        <time>2021-09-11T14:17:08Z</time>
      </trkpt>
      <trkpt lat="44.11371" lon="6.39623">
        <ele>1416.5</ele>
        <time>2021-09-11T14:17:09Z</time>
      </trkpt>
      <trkpt lat="44.11373" lon="6.39624">
        <ele>1416.6</ele>
        <time>2021-09-11T14:17:11Z</time>
      </trkpt>
      <trkpt lat="44.11374" lon="6.39624">
        <ele>1416.6</ele>
        <time>2021-09-11T14:17:12Z</time>
      </trkpt>
      <trkpt lat="44.11375" lon="6.39622">
        <ele>1416.7</ele>
        <time>2021-09-11T14:17:13Z</time>
      </trkpt>
      <trkpt lat="44.11377" lon="6.39621">
        <ele>1416.8</ele>
        <time>2021-09-11T14:17:15Z</time>
      </trkpt>
      <trkpt lat="44.11377" lon="6.39617">
        <ele>1416.9</ele>
        <time>2021-09-11T14:17:16Z</time>
      </trkpt>
      <trkpt lat="44.11375" lon="6.39614">
        <ele>1417</ele>
        <time>2021-09-11T14:17:18Z</time>
      </trkpt>
      <trkpt lat="44.11375" lon="6.39613">
        <ele>1417.1</ele>
        <time>2021-09-11T14:17:19Z</time>
      </trkpt>
      <trkpt lat="44.11374" lon="6.39613">
        <ele>1417.1</ele>
        <time>2021-09-11T14:17:20Z</time>
      </trkpt>
      <trkpt lat="44.11374" lon="6.39612">
        <ele>1417.1</ele>
        <time>2021-09-11T14:17:21Z</time>
      </trkpt>
      <trkpt lat="44.11374" lon="6.39612">
        <ele>1417.1</ele>
        <time>2021-09-11T14:17:22Z</time>
      </trkpt>
      <trkpt lat="44.11375" lon="6.39612">
        <ele>1417.1</ele>
        <time>2021-09-11T14:17:24Z</time>
      </trkpt>
      <trkpt lat="44.11375" lon="6.39612">
        <ele>1417.1</ele>
        <time>2021-09-11T14:17:25Z</time>
      </trkpt>
      <trkpt lat="44.11376" lon="6.39612">
        <ele>1417.2</ele>
        <time>2021-09-11T14:17:26Z</time>
      </trkpt>
      <trkpt lat="44.11344" lon="6.3966">
        <ele>1419.1</ele>
        <time>2021-09-11T14:18:19Z</time>
      </trkpt>
      <trkpt lat="44.1134" lon="6.39662">
        <ele>1419.3</ele>
        <time>2021-09-11T14:18:21Z</time>
      </trkpt>
      <trkpt lat="44.11336" lon="6.39663">
        <ele>1419.5</ele>
        <time>2021-09-11T14:18:22Z</time>
      </trkpt>
      <trkpt lat="44.11335" lon="6.39663">
        <ele>1419.5</ele>
        <time>2021-09-11T14:18:23Z</time>
      </trkpt>
      <trkpt lat="44.11332" lon="6.39662">
        <ele>1419.7</ele>
        <time>2021-09-11T14:18:25Z</time>
      </trkpt>
      <trkpt lat="44.11329" lon="6.3966">
        <ele>1419.8</ele>
        <time>2021-09-11T14:18:26Z</time>
      </trkpt>
      <trkpt lat="44.11327" lon="6.39659">
        <ele>1419.9</ele>
        <time>2021-09-11T14:18:27Z</time>
      </trkpt>
      <trkpt lat="44.11323" lon="6.39656">
        <ele>1420.1</ele>
        <time>2021-09-11T14:18:29Z</time>
      </trkpt>
      <trkpt lat="44.11321" lon="6.39654">
        <ele>1420.2</ele>
        <time>2021-09-11T14:18:30Z</time>
      </trkpt>
      <trkpt lat="44.11319" lon="6.39651">
        <ele>1420.3</ele>
        <time>2021-09-11T14:18:31Z</time>
      </trkpt>
      <trkpt lat="44.11316" lon="6.39649">
        <ele>1420.5</ele>
        <time>2021-09-11T14:18:32Z</time>
      </trkpt>
      <trkpt lat="44.11315" lon="6.39648">
        <ele>1420.5</ele>
        <time>2021-09-11T14:18:33Z</time>
      </trkpt>
      <trkpt lat="44.11312" lon="6.39649">
        <ele>1420.6</ele>
        <time>2021-09-11T14:18:35Z</time>
      </trkpt>
      <trkpt lat="44.11312" lon="6.39649">
        <ele>1420.7</ele>
        <time>2021-09-11T14:18:36Z</time>
      </trkpt>
      <trkpt lat="44.11313" lon="6.39651">
        <ele>1420.7</ele>
        <time>2021-09-11T14:18:37Z</time>
      </trkpt>
      <trkpt lat="44.11313" lon="6.39651">
        <ele>1420.7</ele>
        <time>2021-09-11T14:18:38Z</time>
      </trkpt>
      <trkpt lat="44.11313" lon="6.39652">
        <ele>1420.7</ele>
        <time>2021-09-11T14:18:40Z</time>
      </trkpt>
      <trkpt lat="44.11313" lon="6.39652">
        <ele>1420.8</ele>
        <time>2021-09-11T14:18:41Z</time>
      </trkpt>
      <trkpt lat="44.11312" lon="6.39652">
        <ele>1420.8</ele>
        <time>2021-09-11T14:18:43Z</time>
      </trkpt>
      <trkpt lat="44.11309" lon="6.39649">
        <ele>1420.9</ele>
        <time>2021-09-11T14:18:45Z</time>
      </trkpt>
      <trkpt lat="44.11291" lon="6.39639">
        <ele>1421.8</ele>
        <time>2021-09-11T14:41:13Z</time>
      </trkpt>
      <trkpt lat="44.1129" lon="6.39643">
        <ele>1422</ele>
        <time>2021-09-11T14:41:14Z</time>
      </trkpt>
      <trkpt lat="44.1129" lon="6.39645">
        <ele>1422</ele>
        <time>2021-09-11T14:41:16Z</time>
      </trkpt>
      <trkpt lat="44.11289" lon="6.39643">
        <ele>1422.1</ele>
        <time>2021-09-11T14:41:18Z</time>
      </trkpt>
      <trkpt lat="44.1129" lon="6.39643">
        <ele>1422.1</ele>
        <time>2021-09-11T14:41:19Z</time>
      </trkpt>
      <trkpt lat="44.1129" lon="6.39642">
        <ele>1422.1</ele>
        <time>2021-09-11T14:41:20Z</time>
      </trkpt>
      <trkpt lat="44.11291" lon="6.39642">
        <ele>1422.2</ele>
        <time>2021-09-11T14:41:22Z</time>
      </trkpt>
      <trkpt lat="44.11292" lon="6.39641">
        <ele>1422.2</ele>
        <time>2021-09-11T14:41:23Z</time>
      </trkpt>
      <trkpt lat="44.11292" lon="6.39639">
        <ele>1422.3</ele>
        <time>2021-09-11T14:41:25Z</time>
      </trkpt>
      <trkpt lat="44.11292" lon="6.39638">
        <ele>1422.4</ele>
        <time>2021-09-11T14:41:26Z</time>
      </trkpt>
      <trkpt lat="44.11292" lon="6.39637">
        <ele>1422.4</ele>
        <time>2021-09-11T14:41:27Z</time>
      </trkpt>
      <trkpt lat="44.11291" lon="6.39636">
        <ele>1422.5</ele>
        <time>2021-09-11T14:41:28Z</time>
      </trkpt>
      <trkpt lat="44.11287" lon="6.39627">
        <ele>1422.9</ele>
        <time>2021-09-11T14:41:30Z</time>
      </trkpt>
      <trkpt lat="44.11284" lon="6.39621">
        <ele>1423.2</ele>
        <time>2021-09-11T14:41:31Z</time>
      </trkpt>
      <trkpt lat="44.11282" lon="6.39614">
        <ele>1423.5</ele>
        <time>2021-09-11T14:41:32Z</time>
      </trkpt>
      <trkpt lat="44.11279" lon="6.39608">
        <ele>1423.7</ele>
        <time>2021-09-11T14:41:34Z</time>
      </trkpt>
      <trkpt lat="44.11279" lon="6.39607">
        <ele>1423.8</ele>
        <time>2021-09-11T14:41:35Z</time>
      </trkpt>
      <trkpt lat="44.11279" lon="6.39607">
        <ele>1423.8</ele>
        <time>2021-09-11T14:41:37Z</time>
      </trkpt>
      <trkpt lat="44.11279" lon="6.39607">
        <ele>1423.8</ele>
        <time>2021-09-11T14:41:38Z</time>
      </trkpt>
      <trkpt lat="44.11279" lon="6.39607">
        <ele>1423.8</ele>
        <time>2021-09-11T14:41:40Z</time>
      </trkpt>
      <trkpt lat="44.1128" lon="6.39611">
        <ele>1424</ele>
        <time>2021-09-11T14:41:42Z</time>
      </trkpt>
      <trkpt lat="44.11291" lon="6.39655">
        <ele>1425.8</ele>
        <time>2021-09-11T14:44:24Z</time>
      </trkpt>
      <trkpt lat="44.11295" lon="6.39654">
        <ele>1425.9</ele>
        <time>2021-09-11T14:44:25Z</time>
      </trkpt>
      <trkpt lat="44.11298" lon="6.39654">
        <ele>1426.1</ele>
        <time>2021-09-11T14:44:27Z</time>
      </trkpt>
      <trkpt lat="44.11299" lon="6.39654">
        <ele>1426.1</ele>
        <time>2021-09-11T14:44:28Z</time>
      </trkpt>
      <trkpt lat="44.11299" lon="6.39655">
        <ele>1426.2</ele>
        <time>2021-09-11T14:44:29Z</time>
      </trkpt>
      <trkpt lat="44.11299" lon="6.39656">
        <ele>1426.2</ele>
        <time>2021-09-11T14:44:31Z</time>
      </trkpt>
      <trkpt lat="44.11299" lon="6.39656">
        <ele>1426.2</ele>
        <time>2021-09-11T14:44:32Z</time>
      </trkpt>
      <trkpt lat="44.11299" lon="6.39657">
        <ele>1426.2</ele>
        <time>2021-09-11T14:44:33Z</time>
      </trkpt>
      <trkpt lat="44.113" lon="6.39657">
        <ele>1426.2</ele>
        <time>2021-09-11T14:44:34Z</time>
      </trkpt>
      <trkpt lat="44.113" lon="6.39657">
        <ele>1426.3</ele>
        <time>2021-09-11T14:44:36Z</time>
      </trkpt>
      <trkpt lat="44.113" lon="6.39657">
        <ele>1426.3</ele>
        <time>2021-09-11T14:44:37Z</time>
      </trkpt>
      <trkpt lat="44.113" lon="6.39657">
        <ele>1426.3</ele>
        <time>2021-09-11T14:44:38Z</time>
      </trkpt>
      <trkpt lat="44.113" lon="6.39657">
        <ele>1426.3</ele>
        <time>2021-09-11T14:44:40Z</time>
      </trkpt>
      <trkpt lat="44.11301" lon="6.39659">
        <ele>1426.4</ele>
        <time>2021-09-11T14:44:41Z</time>
      </trkpt>
      <trkpt lat="44.11303" lon="6.39661">
        <ele>1426.5</ele>
        <time>2021-09-11T14:44:42Z</time>
      </trkpt>
      <trkpt lat="44.11327" lon="6.39709">
        <ele>1428.5</ele>
        <time>2021-09-11T14:45:17Z</time>
      </trkpt>
      <trkpt lat="44.11327" lon="6.39715">
        <ele>1428.7</ele>
        <time>2021-09-11T14:45:19Z</time>
      </trkpt>
      <trkpt lat="44.11327" lon="6.39719">
        <ele>1428.8</ele>
        <time>2021-09-11T14:45:20Z</time>
      </trkpt>
      <trkpt lat="44.11327" lon="6.39721">
        <ele>1428.8</ele>
        <time>2021-09-11T14:45:21Z</time>
      </trkpt>
      <trkpt lat="44.11328" lon="6.39722">
        <ele>1428.9</ele>
        <time>2021-09-11T14:45:22Z</time>
      </trkpt>
      <trkpt lat="44.11328" lon="6.39723">
        <ele>1428.9</ele>
        <time>2021-09-11T14:45:23Z</time>
      </trkpt>
      <trkpt lat="44.11329" lon="6.39724">
        <ele>1428.9</ele>
        <time>2021-09-11T14:45:25Z</time>
      </trkpt>
      <trkpt lat="44.11329" lon="6.39724">
        <ele>1429</ele>
        <time>2021-09-11T14:45:26Z</time>
      </trkpt>
      <trkpt lat="44.11331" lon="6.39724">
        <ele>1429</ele>
        <time>2021-09-11T14:45:27Z</time>
      </trkpt>
      <trkpt lat="44.11332" lon="6.39725">
        <ele>1429.1</ele>
        <time>2021-09-11T14:45:29Z</time>
      </trkpt>
      <trkpt lat="44.11338" lon="6.39723">
        <ele>1429.4</ele>
        <time>2021-09-11T14:45:36Z</time>
      </trkpt>
      <trkpt lat="44.1134" lon="6.39722">
        <ele>1429.4</ele>
        <time>2021-09-11T14:45:37Z</time>
      </trkpt>
      <trkpt lat="44.1134" lon="6.39721">
        <ele>1429.4</ele>
        <time>2021-09-11T14:45:38Z</time>
      </trkpt>
      <trkpt lat="44.11343" lon="6.39718">
        <ele>1429.6</ele>
        <time>2021-09-11T14:45:40Z</time>
      </trkpt>
      <trkpt lat="44.11345" lon="6.39717">
        <ele>1429.7</ele>
        <time>2021-09-11T14:45:41Z</time>
      </trkpt>
      <trkpt lat="44.11346" lon="6.39715">
        <ele>1429.8</ele>
        <time>2021-09-11T14:45:43Z</time>
      </trkpt>
      <trkpt lat="44.11347" lon="6.39714">
        <ele>1429.8</ele>
        <time>2021-09-11T14:45:44Z</time>
      </trkpt>
      <trkpt lat="44.11348" lon="6.39713">
        <ele>1429.9</ele>
        <time>2021-09-11T14:45:45Z</time>
      </trkpt>
      <trkpt lat="44.11348" lon="6.39712">
        <ele>1429.9</ele>
        <time>2021-09-11T14:45:47Z</time>
      </trkpt>
      <trkpt lat="44.1135" lon="6.39711">
        <ele>1430</ele>
        <time>2021-09-11T14:45:48Z</time>
      </trkpt>
      <trkpt lat="44.11352" lon="6.3971">
        <ele>1430.1</ele>
        <time>2021-09-11T14:45:49Z</time>
      </trkpt>
      <trkpt lat="44.11353" lon="6.39709">
        <ele>1430.1</ele>
        <time>2021-09-11T14:45:50Z</time>
      </trkpt>
      <trkpt lat="44.11354" lon="6.39709">
        <ele>1430.2</ele>
        <time>2021-09-11T14:45:52Z</time>
      </trkpt>
      <trkpt lat="44.11355" lon="6.39708">
        <ele>1430.3</ele>
        <time>2021-09-11T14:45:54Z</time>
      </trkpt>
      <trkpt lat="44.11357" lon="6.39708">
        <ele>1430.3</ele>
        <time>2021-09-11T14:45:56Z</time>
      </trkpt>
      <trkpt lat="44.11357" lon="6.39707">
        <ele>1430.4</ele>
        <time>2021-09-11T14:45:57Z</time>
      </trkpt>
      <trkpt lat="44.11359" lon="6.39706">
        <ele>1430.4</ele>
        <time>2021-09-11T14:45:59Z</time>
      </trkpt>
      <trkpt lat="44.11359" lon="6.39706">
        <ele>1430.5</ele>
        <time>2021-09-11T14:46:01Z</time>
      </trkpt>
      <trkpt lat="44.1136" lon="6.39705">
        <ele>1430.5</ele>
        <time>2021-09-11T14:46:02Z</time>
      </trkpt>
      <trkpt lat="44.1136" lon="6.39705">
        <ele>1430.5</ele>
        <time>2021-09-11T14:46:04Z</time>
      </trkpt>
      <trkpt lat="44.1136" lon="6.39705">
        <ele>1430.5</ele>
        <time>2021-09-11T14:46:05Z</time>
      </trkpt>
      <trkpt lat="44.11361" lon="6.39704">
        <ele>1430.5</ele>
        <time>2021-09-11T14:46:06Z</time>
      </trkpt>
      <trkpt lat="44.11361" lon="6.39704">
        <ele>1430.6</ele>
        <time>2021-09-11T14:46:08Z</time>
      </trkpt>
      <trkpt lat="44.11362" lon="6.39703">
        <ele>1430.6</ele>
        <time>2021-09-11T14:46:09Z</time>
      </trkpt>
      <trkpt lat="44.11362" lon="6.39703">
        <ele>1430.6</ele>
        <time>2021-09-11T14:46:10Z</time>
      </trkpt>
      <trkpt lat="44.11362" lon="6.39703">
        <ele>1430.6</ele>
        <time>2021-09-11T14:46:11Z</time>
      </trkpt>
      <trkpt lat="44.11363" lon="6.39702">
        <ele>1430.7</ele>
        <time>2021-09-11T14:46:12Z</time>
      </trkpt>
      <trkpt lat="44.11363" lon="6.39702">
        <ele>1430.7</ele>
        <time>2021-09-11T14:46:14Z</time>
      </trkpt>
      <trkpt lat="44.11363" lon="6.39701">
        <ele>1430.7</ele>
        <time>2021-09-11T14:46:15Z</time>
      </trkpt>
      <trkpt lat="44.11365" lon="6.39702">
        <ele>1430.8</ele>
        <time>2021-09-11T14:46:16Z</time>
      </trkpt>
      <trkpt lat="44.11365" lon="6.39702">
        <ele>1430.8</ele>
        <time>2021-09-11T14:46:17Z</time>
      </trkpt>
      <trkpt lat="44.11366" lon="6.39703">
        <ele>1430.8</ele>
        <time>2021-09-11T14:46:18Z</time>
      </trkpt>
      <trkpt lat="44.11368" lon="6.39703">
        <ele>1430.9</ele>
        <time>2021-09-11T14:46:19Z</time>
      </trkpt>
      <trkpt lat="44.11369" lon="6.39703">
        <ele>1431</ele>
        <time>2021-09-11T14:46:20Z</time>
      </trkpt>
      <trkpt lat="44.1137" lon="6.39703">
        <ele>1431</ele>
        <time>2021-09-11T14:46:21Z</time>
      </trkpt>
      <trkpt lat="44.11371" lon="6.39702">
        <ele>1431.1</ele>
        <time>2021-09-11T14:46:23Z</time>
      </trkpt>
      <trkpt lat="44.11372" lon="6.39702">
        <ele>1431.1</ele>
        <time>2021-09-11T14:46:24Z</time>
      </trkpt>
      <trkpt lat="44.11373" lon="6.39703">
        <ele>1431.2</ele>
        <time>2021-09-11T14:46:25Z</time>
      </trkpt>
      <trkpt lat="44.11387" lon="6.3971">
        <ele>1431.9</ele>
        <time>2021-09-11T14:46:27Z</time>
      </trkpt>
      <trkpt lat="44.11391" lon="6.39713">
        <ele>1432.1</ele>
        <time>2021-09-11T14:46:28Z</time>
      </trkpt>
      <trkpt lat="44.11392" lon="6.39714">
        <ele>1432.2</ele>
        <time>2021-09-11T14:46:30Z</time>
      </trkpt>
      <trkpt lat="44.11393" lon="6.39714">
        <ele>1432.2</ele>
        <time>2021-09-11T14:46:31Z</time>
      </trkpt>
      <trkpt lat="44.11394" lon="6.39714">
        <ele>1432.2</ele>
        <time>2021-09-11T14:46:32Z</time>
      </trkpt>
      <trkpt lat="44.11395" lon="6.39714">
        <ele>1432.3</ele>
        <time>2021-09-11T14:46:33Z</time>
      </trkpt>
      <trkpt lat="44.11396" lon="6.39714">
        <ele>1432.4</ele>
        <time>2021-09-11T14:46:35Z</time>
      </trkpt>
      <trkpt lat="44.11398" lon="6.39714">
        <ele>1432.4</ele>
        <time>2021-09-11T14:46:36Z</time>
      </trkpt>
      <trkpt lat="44.11399" lon="6.39714">
        <ele>1432.5</ele>
        <time>2021-09-11T14:46:37Z</time>
      </trkpt>
      <trkpt lat="44.11401" lon="6.39713">
        <ele>1432.6</ele>
        <time>2021-09-11T14:46:38Z</time>
      </trkpt>
      <trkpt lat="44.11402" lon="6.39712">
        <ele>1432.7</ele>
        <time>2021-09-11T14:46:39Z</time>
      </trkpt>
      <trkpt lat="44.11404" lon="6.39711">
        <ele>1432.8</ele>
        <time>2021-09-11T14:46:41Z</time>
      </trkpt>
      <trkpt lat="44.11405" lon="6.3971">
        <ele>1432.8</ele>
        <time>2021-09-11T14:46:42Z</time>
      </trkpt>
      <trkpt lat="44.11406" lon="6.3971">
        <ele>1432.9</ele>
        <time>2021-09-11T14:46:44Z</time>
      </trkpt>
      <trkpt lat="44.11407" lon="6.39709">
        <ele>1432.9</ele>
        <time>2021-09-11T14:46:45Z</time>
      </trkpt>
      <trkpt lat="44.11407" lon="6.39708">
        <ele>1433</ele>
        <time>2021-09-11T14:46:46Z</time>
      </trkpt>
      <trkpt lat="44.11408" lon="6.39707">
        <ele>1433</ele>
        <time>2021-09-11T14:46:47Z</time>
      </trkpt>
      <trkpt lat="44.11409" lon="6.39706">
        <ele>1433.1</ele>
        <time>2021-09-11T14:46:48Z</time>
      </trkpt>
      <trkpt lat="44.1141" lon="6.39705">
        <ele>1433.1</ele>
        <time>2021-09-11T14:46:50Z</time>
      </trkpt>
      <trkpt lat="44.1141" lon="6.39705">
        <ele>1433.2</ele>
        <time>2021-09-11T14:46:51Z</time>
      </trkpt>
      <trkpt lat="44.11411" lon="6.39704">
        <ele>1433.3</ele>
        <time>2021-09-11T14:46:53Z</time>
      </trkpt>
      <trkpt lat="44.11411" lon="6.39703">
        <ele>1433.3</ele>
        <time>2021-09-11T14:46:54Z</time>
      </trkpt>
      <trkpt lat="44.11412" lon="6.39702">
        <ele>1433.3</ele>
        <time>2021-09-11T14:46:55Z</time>
      </trkpt>
      <trkpt lat="44.11412" lon="6.39702">
        <ele>1433.4</ele>
        <time>2021-09-11T14:46:56Z</time>
      </trkpt>
      <trkpt lat="44.11413" lon="6.39701">
        <ele>1433.4</ele>
        <time>2021-09-11T14:46:58Z</time>
      </trkpt>
      <trkpt lat="44.11413" lon="6.397">
        <ele>1433.4</ele>
        <time>2021-09-11T14:46:59Z</time>
      </trkpt>
      <trkpt lat="44.11414" lon="6.39699">
        <ele>1433.5</ele>
        <time>2021-09-11T14:47:01Z</time>
      </trkpt>
      <trkpt lat="44.11415" lon="6.39699">
        <ele>1433.5</ele>
        <time>2021-09-11T14:47:02Z</time>
      </trkpt>
      <trkpt lat="44.11415" lon="6.39698">
        <ele>1433.5</ele>
        <time>2021-09-11T14:47:03Z</time>
      </trkpt>
      <trkpt lat="44.11418" lon="6.39696">
        <ele>1433.7</ele>
        <time>2021-09-11T14:47:05Z</time>
      </trkpt>
      <trkpt lat="44.11419" lon="6.39696">
        <ele>1433.7</ele>
        <time>2021-09-11T14:47:06Z</time>
      </trkpt>
      <trkpt lat="44.11422" lon="6.39695">
        <ele>1433.9</ele>
        <time>2021-09-11T14:47:07Z</time>
      </trkpt>
      <trkpt lat="44.11423" lon="6.39694">
        <ele>1433.9</ele>
        <time>2021-09-11T14:47:08Z</time>
      </trkpt>
      <trkpt lat="44.11426" lon="6.39692">
        <ele>1434.1</ele>
        <time>2021-09-11T14:47:10Z</time>
      </trkpt>
      <trkpt lat="44.11427" lon="6.39691">
        <ele>1434.1</ele>
        <time>2021-09-11T14:47:11Z</time>
      </trkpt>
      <trkpt lat="44.11429" lon="6.3969">
        <ele>1434.2</ele>
        <time>2021-09-11T14:47:12Z</time>
      </trkpt>
      <trkpt lat="44.1143" lon="6.39688">
        <ele>1434.3</ele>
        <time>2021-09-11T14:47:13Z</time>
      </trkpt>
      <trkpt lat="44.11431" lon="6.39687">
        <ele>1434.3</ele>
        <time>2021-09-11T14:47:15Z</time>
      </trkpt>
      <trkpt lat="44.11432" lon="6.39686">
        <ele>1434.4</ele>
        <time>2021-09-11T14:47:16Z</time>
      </trkpt>
      <trkpt lat="44.11434" lon="6.39683">
        <ele>1434.6</ele>
        <time>2021-09-11T14:47:17Z</time>
      </trkpt>
      <trkpt lat="44.11435" lon="6.39682">
        <ele>1434.6</ele>
        <time>2021-09-11T14:47:18Z</time>
      </trkpt>
      <trkpt lat="44.11438" lon="6.3968">
        <ele>1434.8</ele>
        <time>2021-09-11T14:47:20Z</time>
      </trkpt>
      <trkpt lat="44.11438" lon="6.39679">
        <ele>1434.8</ele>
        <time>2021-09-11T14:47:21Z</time>
      </trkpt>
      <trkpt lat="44.1144" lon="6.39677">
        <ele>1435</ele>
        <time>2021-09-11T14:47:22Z</time>
      </trkpt>
      <trkpt lat="44.11441" lon="6.39676">
        <ele>1435</ele>
        <time>2021-09-11T14:47:23Z</time>
      </trkpt>
      <trkpt lat="44.11443" lon="6.39675">
        <ele>1435.2</ele>
        <time>2021-09-11T14:47:24Z</time>
      </trkpt>
      <trkpt lat="44.11444" lon="6.39674">
        <ele>1435.2</ele>
        <time>2021-09-11T14:47:26Z</time>
      </trkpt>
      <trkpt lat="44.11446" lon="6.39674">
        <ele>1435.3</ele>
        <time>2021-09-11T14:47:27Z</time>
      </trkpt>
      <trkpt lat="44.11448" lon="6.39673">
        <ele>1435.4</ele>
        <time>2021-09-11T14:47:28Z</time>
      </trkpt>
      <trkpt lat="44.11449" lon="6.39673">
        <ele>1435.5</ele>
        <time>2021-09-11T14:47:30Z</time>
      </trkpt>
      <trkpt lat="44.11451" lon="6.39672">
        <ele>1435.6</ele>
        <time>2021-09-11T14:47:31Z</time>
      </trkpt>
      <trkpt lat="44.11453" lon="6.39672">
        <ele>1435.7</ele>
        <time>2021-09-11T14:47:32Z</time>
      </trkpt>
      <trkpt lat="44.11454" lon="6.39672">
        <ele>1435.8</ele>
        <time>2021-09-11T14:47:34Z</time>
      </trkpt>
      <trkpt lat="44.11456" lon="6.39671">
        <ele>1435.9</ele>
        <time>2021-09-11T14:47:35Z</time>
      </trkpt>
      <trkpt lat="44.11457" lon="6.39671">
        <ele>1435.9</ele>
        <time>2021-09-11T14:47:36Z</time>
      </trkpt>
      <trkpt lat="44.11459" lon="6.3967">
        <ele>1436</ele>
        <time>2021-09-11T14:48:32Z</time>
      </trkpt>
      <trkpt lat="44.11461" lon="6.3967">
        <ele>1436.1</ele>
        <time>2021-09-11T14:48:33Z</time>
      </trkpt>
      <trkpt lat="44.11462" lon="6.39669">
        <ele>1436.2</ele>
        <time>2021-09-11T14:48:34Z</time>
      </trkpt>
      <trkpt lat="44.11462" lon="6.39672">
        <ele>1436.3</ele>
        <time>2021-09-11T14:48:35Z</time>
      </trkpt>
      <trkpt lat="44.11462" lon="6.39673">
        <ele>1436.3</ele>
        <time>2021-09-11T14:48:36Z</time>
      </trkpt>
      <trkpt lat="44.11462" lon="6.39676">
        <ele>1436.4</ele>
        <time>2021-09-11T14:48:38Z</time>
      </trkpt>
      <trkpt lat="44.11461" lon="6.39678">
        <ele>1436.5</ele>
        <time>2021-09-11T14:48:39Z</time>
      </trkpt>
      <trkpt lat="44.11461" lon="6.39682">
        <ele>1436.6</ele>
        <time>2021-09-11T14:48:41Z</time>
      </trkpt>
      <trkpt lat="44.11461" lon="6.39683">
        <ele>1436.6</ele>
        <time>2021-09-11T14:48:42Z</time>
      </trkpt>
      <trkpt lat="44.11462" lon="6.39685">
        <ele>1436.7</ele>
        <time>2021-09-11T14:48:44Z</time>
      </trkpt>
      <trkpt lat="44.11462" lon="6.39686">
        <ele>1436.8</ele>
        <time>2021-09-11T14:48:45Z</time>
      </trkpt>
      <trkpt lat="44.11463" lon="6.39688">
        <ele>1436.8</ele>
        <time>2021-09-11T14:48:46Z</time>
      </trkpt>
      <trkpt lat="44.11463" lon="6.3969">
        <ele>1436.9</ele>
        <time>2021-09-11T14:48:47Z</time>
      </trkpt>
      <trkpt lat="44.11464" lon="6.39693">
        <ele>1437</ele>
        <time>2021-09-11T14:48:49Z</time>
      </trkpt>
      <trkpt lat="44.11464" lon="6.39694">
        <ele>1437</ele>
        <time>2021-09-11T14:48:50Z</time>
      </trkpt>
      <trkpt lat="44.11465" lon="6.39695">
        <ele>1437.1</ele>
        <time>2021-09-11T14:48:51Z</time>
      </trkpt>
      <trkpt lat="44.11465" lon="6.39698">
        <ele>1437.1</ele>
        <time>2021-09-11T14:48:52Z</time>
      </trkpt>
      <trkpt lat="44.11465" lon="6.397">
        <ele>1437.2</ele>
        <time>2021-09-11T14:48:53Z</time>
      </trkpt>
      <trkpt lat="44.11465" lon="6.39701">
        <ele>1437.2</ele>
        <time>2021-09-11T14:48:54Z</time>
      </trkpt>
      <trkpt lat="44.11465" lon="6.39703">
        <ele>1437.3</ele>
        <time>2021-09-11T14:48:55Z</time>
      </trkpt>
      <trkpt lat="44.11464" lon="6.39704">
        <ele>1437.4</ele>
        <time>2021-09-11T14:48:57Z</time>
      </trkpt>
      <trkpt lat="44.11464" lon="6.39705">
        <ele>1437.4</ele>
        <time>2021-09-11T14:48:58Z</time>
      </trkpt>
      <trkpt lat="44.11463" lon="6.39705">
        <ele>1437.4</ele>
        <time>2021-09-11T14:48:59Z</time>
      </trkpt>
      <trkpt lat="44.11463" lon="6.39704">
        <ele>1437.4</ele>
        <time>2021-09-11T14:49:01Z</time>
      </trkpt>
      <trkpt lat="44.11463" lon="6.39705">
        <ele>1437.4</ele>
        <time>2021-09-11T14:49:02Z</time>
      </trkpt>
      <trkpt lat="44.11463" lon="6.39705">
        <ele>1437.4</ele>
        <time>2021-09-11T14:49:03Z</time>
      </trkpt>
      <trkpt lat="44.11463" lon="6.39705">
        <ele>1437.4</ele>
        <time>2021-09-11T14:49:04Z</time>
      </trkpt>
      <trkpt lat="44.11463" lon="6.39705">
        <ele>1437.4</ele>
        <time>2021-09-11T14:49:06Z</time>
      </trkpt>
      <trkpt lat="44.11463" lon="6.39704">
        <ele>1437.4</ele>
        <time>2021-09-11T14:49:08Z</time>
      </trkpt>
      <trkpt lat="44.11463" lon="6.39704">
        <ele>1437.4</ele>
        <time>2021-09-11T14:49:09Z</time>
      </trkpt>
      <trkpt lat="44.11463" lon="6.39704">
        <ele>1437.4</ele>
        <time>2021-09-11T14:49:10Z</time>
      </trkpt>
      <trkpt lat="44.11463" lon="6.39707">
        <ele>1437.5</ele>
        <time>2021-09-11T14:49:12Z</time>
      </trkpt>
      <trkpt lat="44.11427" lon="6.3978">
        <ele>1444.5</ele>
        <time>2021-09-11T14:50:59Z</time>
      </trkpt>
      <trkpt lat="44.11426" lon="6.39781">
        <ele>1444.5</ele>
        <time>2021-09-11T14:51:00Z</time>
      </trkpt>
      <trkpt lat="44.11426" lon="6.39781">
        <ele>1444.6</ele>
        <time>2021-09-11T14:51:02Z</time>
      </trkpt>
      <trkpt lat="44.11426" lon="6.39782">
        <ele>1444.7</ele>
        <time>2021-09-11T14:51:03Z</time>
      </trkpt>
      <trkpt lat="44.11426" lon="6.39782">
        <ele>1444.7</ele>
        <time>2021-09-11T14:51:04Z</time>
      </trkpt>
      <trkpt lat="44.11425" lon="6.39784">
        <ele>1444.9</ele>
        <time>2021-09-11T14:51:06Z</time>
      </trkpt>
      <trkpt lat="44.11424" lon="6.39784">
        <ele>1445.1</ele>
        <time>2021-09-11T14:51:07Z</time>
      </trkpt>
      <trkpt lat="44.11423" lon="6.39785">
        <ele>1445.2</ele>
        <time>2021-09-11T14:51:08Z</time>
      </trkpt>
      <trkpt lat="44.11422" lon="6.39786">
        <ele>1445.4</ele>
        <time>2021-09-11T14:51:10Z</time>
      </trkpt>
      <trkpt lat="44.11421" lon="6.39787">
        <ele>1445.5</ele>
        <time>2021-09-11T14:51:11Z</time>
      </trkpt>
      <trkpt lat="44.11421" lon="6.39787">
        <ele>1445.5</ele>
        <time>2021-09-11T14:51:12Z</time>
      </trkpt>
      <trkpt lat="44.11421" lon="6.39788">
        <ele>1445.6</ele>
        <time>2021-09-11T14:51:14Z</time>
      </trkpt>
      <trkpt lat="44.1142" lon="6.39788">
        <ele>1445.7</ele>
        <time>2021-09-11T14:51:15Z</time>
      </trkpt>
      <trkpt lat="44.1142" lon="6.39788">
        <ele>1445.7</ele>
        <time>2021-09-11T14:51:17Z</time>
      </trkpt>
      <trkpt lat="44.1142" lon="6.39788">
        <ele>1445.7</ele>
        <time>2021-09-11T14:51:18Z</time>
      </trkpt>
      <trkpt lat="44.1142" lon="6.39788">
        <ele>1445.7</ele>
        <time>2021-09-11T14:51:19Z</time>
      </trkpt>
      <trkpt lat="44.1142" lon="6.39788">
        <ele>1445.8</ele>
        <time>2021-09-11T14:51:20Z</time>
      </trkpt>
      <trkpt lat="44.11419" lon="6.39788">
        <ele>1445.9</ele>
        <time>2021-09-11T14:51:22Z</time>
      </trkpt>
      <trkpt lat="44.11417" lon="6.39789">
        <ele>1446.2</ele>
        <time>2021-09-11T14:51:23Z</time>
      </trkpt>
      <trkpt lat="44.11415" lon="6.39789">
        <ele>1446.4</ele>
        <time>2021-09-11T14:51:24Z</time>
      </trkpt>
      <trkpt lat="44.11413" lon="6.3979">
        <ele>1446.7</ele>
        <time>2021-09-11T14:51:26Z</time>
      </trkpt>
      <trkpt lat="44.11412" lon="6.39791">
        <ele>1446.9</ele>
        <time>2021-09-11T14:51:27Z</time>
      </trkpt>
      <trkpt lat="44.1141" lon="6.39792">
        <ele>1447.2</ele>
        <time>2021-09-11T14:51:28Z</time>
      </trkpt>
      <trkpt lat="44.11406" lon="6.39793">
        <ele>1447.7</ele>
        <time>2021-09-11T14:51:30Z</time>
      </trkpt>
      <trkpt lat="44.11402" lon="6.39794">
        <ele>1448.3</ele>
        <time>2021-09-11T14:51:32Z</time>
      </trkpt>
      <trkpt lat="44.11399" lon="6.39794">
        <ele>1448.7</ele>
        <time>2021-09-11T14:51:33Z</time>
      </trkpt>
      <trkpt lat="44.11397" lon="6.39794">
        <ele>1448.9</ele>
        <time>2021-09-11T14:51:34Z</time>
      </trkpt>
      <trkpt lat="44.11394" lon="6.39793">
        <ele>1449.3</ele>
        <time>2021-09-11T14:51:35Z</time>
      </trkpt>
      <trkpt lat="44.11393" lon="6.39793">
        <ele>1449.4</ele>
        <time>2021-09-11T14:51:36Z</time>
      </trkpt>
      <trkpt lat="44.11393" lon="6.39792">
        <ele>1449.5</ele>
        <time>2021-09-11T14:51:38Z</time>
      </trkpt>
      <trkpt lat="44.11392" lon="6.39792">
        <ele>1449.6</ele>
        <time>2021-09-11T14:51:39Z</time>
      </trkpt>
      <trkpt lat="44.11391" lon="6.39792">
        <ele>1449.7</ele>
        <time>2021-09-11T14:51:41Z</time>
      </trkpt>
      <trkpt lat="44.11391" lon="6.39792">
        <ele>1449.7</ele>
        <time>2021-09-11T14:51:42Z</time>
      </trkpt>
      <trkpt lat="44.11391" lon="6.39792">
        <ele>1449.7</ele>
        <time>2021-09-11T14:51:44Z</time>
      </trkpt>
      <trkpt lat="44.11391" lon="6.39792">
        <ele>1449.8</ele>
        <time>2021-09-11T14:51:46Z</time>
      </trkpt>
      <trkpt lat="44.11391" lon="6.39792">
        <ele>1449.8</ele>
        <time>2021-09-11T14:51:48Z</time>
      </trkpt>
      <trkpt lat="44.11391" lon="6.39793">
        <ele>1449.8</ele>
        <time>2021-09-11T14:51:49Z</time>
      </trkpt>
      <trkpt lat="44.11391" lon="6.39793">
        <ele>1449.8</ele>
        <time>2021-09-11T14:51:50Z</time>
      </trkpt>
      <trkpt lat="44.11391" lon="6.39793">
        <ele>1449.8</ele>
        <time>2021-09-11T14:51:52Z</time>
      </trkpt>
      <trkpt lat="44.11382" lon="6.39791">
        <ele>1451</ele>
        <time>2021-09-11T14:52:04Z</time>
      </trkpt>
      <trkpt lat="44.11376" lon="6.39789">
        <ele>1451.9</ele>
        <time>2021-09-11T14:52:06Z</time>
      </trkpt>
      <trkpt lat="44.11372" lon="6.39787">
        <ele>1452.5</ele>
        <time>2021-09-11T14:52:07Z</time>
      </trkpt>
      <trkpt lat="44.11368" lon="6.39784">
        <ele>1453.1</ele>
        <time>2021-09-11T14:52:08Z</time>
      </trkpt>
      <trkpt lat="44.11365" lon="6.39782">
        <ele>1453.6</ele>
        <time>2021-09-11T14:52:09Z</time>
      </trkpt>
      <trkpt lat="44.11362" lon="6.39779">
        <ele>1454.2</ele>
        <time>2021-09-11T14:52:10Z</time>
      </trkpt>
      <trkpt lat="44.11359" lon="6.39778">
        <ele>1454.6</ele>
        <time>2021-09-11T14:52:11Z</time>
      </trkpt>
      <trkpt lat="44.11356" lon="6.39776">
        <ele>1454.9</ele>
        <time>2021-09-11T14:52:12Z</time>
      </trkpt>
      <trkpt lat="44.11354" lon="6.39775">
        <ele>1455.3</ele>
        <time>2021-09-11T14:52:14Z</time>
      </trkpt>
      <trkpt lat="44.11352" lon="6.39775">
        <ele>1455.5</ele>
        <time>2021-09-11T14:52:15Z</time>
      </trkpt>
      <trkpt lat="44.11351" lon="6.39775">
        <ele>1455.7</ele>
        <time>2021-09-11T14:52:16Z</time>
      </trkpt>
      <trkpt lat="44.11351" lon="6.39776">
        <ele>1455.8</ele>
        <time>2021-09-11T14:52:17Z</time>
      </trkpt>
      <trkpt lat="44.11352" lon="6.39776">
        <ele>1455.9</ele>
        <time>2021-09-11T14:52:18Z</time>
      </trkpt>
      <trkpt lat="44.11352" lon="6.39777">
        <ele>1455.9</ele>
        <time>2021-09-11T14:52:19Z</time>
      </trkpt>
      <trkpt lat="44.11352" lon="6.39777">
        <ele>1455.9</ele>
        <time>2021-09-11T14:52:20Z</time>
      </trkpt>
      <trkpt lat="44.11352" lon="6.39778">
        <ele>1456</ele>
        <time>2021-09-11T14:52:21Z</time>
      </trkpt>
      <trkpt lat="44.11352" lon="6.39783">
        <ele>1456.5</ele>
        <time>2021-09-11T14:52:23Z</time>
      </trkpt>
      <trkpt lat="44.11352" lon="6.39785">
        <ele>1456.7</ele>
        <time>2021-09-11T14:52:24Z</time>
      </trkpt>
      <trkpt lat="44.11352" lon="6.39787">
        <ele>1456.8</ele>
        <time>2021-09-11T14:52:25Z</time>
      </trkpt>
      <trkpt lat="44.11312" lon="6.39787">
        <ele>1461.9</ele>
        <time>2021-09-11T14:53:00Z</time>
      </trkpt>
      <trkpt lat="44.1131" lon="6.39786">
        <ele>1462.2</ele>
        <time>2021-09-11T14:53:01Z</time>
      </trkpt>
      <trkpt lat="44.11309" lon="6.39785">
        <ele>1462.4</ele>
        <time>2021-09-11T14:53:02Z</time>
      </trkpt>
      <trkpt lat="44.11308" lon="6.39783">
        <ele>1462.5</ele>
        <time>2021-09-11T14:53:04Z</time>
      </trkpt>
      <trkpt lat="44.11308" lon="6.39782">
        <ele>1462.7</ele>
        <time>2021-09-11T14:53:05Z</time>
      </trkpt>
      <trkpt lat="44.11307" lon="6.39782">
        <ele>1462.7</ele>
        <time>2021-09-11T14:53:06Z</time>
      </trkpt>
      <trkpt lat="44.11306" lon="6.39783">
        <ele>1462.8</ele>
        <time>2021-09-11T14:53:08Z</time>
      </trkpt>
      <trkpt lat="44.11305" lon="6.39784">
        <ele>1463</ele>
        <time>2021-09-11T14:53:09Z</time>
      </trkpt>
      <trkpt lat="44.11303" lon="6.39786">
        <ele>1463.4</ele>
        <time>2021-09-11T14:53:10Z</time>
      </trkpt>
      <trkpt lat="44.11302" lon="6.39788">
        <ele>1463.7</ele>
        <time>2021-09-11T14:53:11Z</time>
      </trkpt>
      <trkpt lat="44.113" lon="6.39792">
        <ele>1464.1</ele>
        <time>2021-09-11T14:53:13Z</time>
      </trkpt>
      <trkpt lat="44.11299" lon="6.39794">
        <ele>1464.4</ele>
        <time>2021-09-11T14:53:14Z</time>
      </trkpt>
      <trkpt lat="44.11299" lon="6.39795">
        <ele>1464.5</ele>
        <time>2021-09-11T14:53:16Z</time>
      </trkpt>
      <trkpt lat="44.11299" lon="6.39795">
        <ele>1464.5</ele>
        <time>2021-09-11T14:53:17Z</time>
      </trkpt>
      <trkpt lat="44.11299" lon="6.39795">
        <ele>1464.5</ele>
        <time>2021-09-11T14:53:20Z</time>
      </trkpt>
      <trkpt lat="44.11299" lon="6.39795">
        <ele>1464.5</ele>
        <time>2021-09-11T14:53:22Z</time>
      </trkpt>
      <trkpt lat="44.11299" lon="6.39795">
        <ele>1464.5</ele>
        <time>2021-09-11T14:53:24Z</time>
      </trkpt>
      <trkpt lat="44.11235" lon="6.3983">
        <ele>1474.7</ele>
        <time>2021-09-11T14:55:29Z</time>
      </trkpt>
      <trkpt lat="44.11233" lon="6.39829">
        <ele>1474.9</ele>
        <time>2021-09-11T14:55:30Z</time>
      </trkpt>
      <trkpt lat="44.11231" lon="6.39828">
        <ele>1475.2</ele>
        <time>2021-09-11T14:55:31Z</time>
      </trkpt>
      <trkpt lat="44.11229" lon="6.39827">
        <ele>1475.5</ele>
        <time>2021-09-11T14:55:32Z</time>
      </trkpt>
      <trkpt lat="44.11228" lon="6.39827">
        <ele>1475.6</ele>
        <time>2021-09-11T14:55:34Z</time>
      </trkpt>
      <trkpt lat="44.11227" lon="6.39827">
        <ele>1475.7</ele>
        <time>2021-09-11T14:55:35Z</time>
      </trkpt>
      <trkpt lat="44.11225" lon="6.39826">
        <ele>1476</ele>
        <time>2021-09-11T14:55:36Z</time>
      </trkpt>
      <trkpt lat="44.11223" lon="6.39826">
        <ele>1476.2</ele>
        <time>2021-09-11T14:55:38Z</time>
      </trkpt>
      <trkpt lat="44.1122" lon="6.39824">
        <ele>1476.7</ele>
        <time>2021-09-11T14:55:39Z</time>
      </trkpt>
      <trkpt lat="44.11219" lon="6.39823">
        <ele>1476.8</ele>
        <time>2021-09-11T14:55:40Z</time>
      </trkpt>
      <trkpt lat="44.11216" lon="6.39822">
        <ele>1477.2</ele>
        <time>2021-09-11T14:55:42Z</time>
      </trkpt>
      <trkpt lat="44.11215" lon="6.39821">
        <ele>1477.4</ele>
        <time>2021-09-11T14:55:44Z</time>
      </trkpt>
      <trkpt lat="44.11214" lon="6.3982">
        <ele>1477.6</ele>
        <time>2021-09-11T14:55:45Z</time>
      </trkpt>
      <trkpt lat="44.11213" lon="6.39819">
        <ele>1477.7</ele>
        <time>2021-09-11T14:55:46Z</time>
      </trkpt>
      <trkpt lat="44.11212" lon="6.39818">
        <ele>1477.8</ele>
        <time>2021-09-11T14:55:48Z</time>
      </trkpt>
      <trkpt lat="44.11212" lon="6.39818">
        <ele>1477.9</ele>
        <time>2021-09-11T14:55:49Z</time>
      </trkpt>
      <trkpt lat="44.11212" lon="6.39818">
        <ele>1477.9</ele>
        <time>2021-09-11T14:55:50Z</time>
      </trkpt>
      <trkpt lat="44.11211" lon="6.39818">
        <ele>1478</ele>
        <time>2021-09-11T14:55:51Z</time>
      </trkpt>
      <trkpt lat="44.1121" lon="6.39818">
        <ele>1478.1</ele>
        <time>2021-09-11T14:55:53Z</time>
      </trkpt>
      <trkpt lat="44.1121" lon="6.39818">
        <ele>1478.2</ele>
        <time>2021-09-11T14:55:54Z</time>
      </trkpt>
      <trkpt lat="44.11209" lon="6.39818">
        <ele>1478.3</ele>
        <time>2021-09-11T14:55:55Z</time>
      </trkpt>
      <trkpt lat="44.11208" lon="6.39818">
        <ele>1478.4</ele>
        <time>2021-09-11T14:55:56Z</time>
      </trkpt>
      <trkpt lat="44.11207" lon="6.39819">
        <ele>1478.6</ele>
        <time>2021-09-11T14:55:58Z</time>
      </trkpt>
      <trkpt lat="44.11206" lon="6.39819">
        <ele>1478.7</ele>
        <time>2021-09-11T14:56:00Z</time>
      </trkpt>
      <trkpt lat="44.11206" lon="6.39819">
        <ele>1478.7</ele>
        <time>2021-09-11T14:56:01Z</time>
      </trkpt>
      <trkpt lat="44.11206" lon="6.3982">
        <ele>1478.8</ele>
        <time>2021-09-11T14:56:03Z</time>
      </trkpt>
      <trkpt lat="44.11205" lon="6.3982">
        <ele>1478.8</ele>
        <time>2021-09-11T14:56:06Z</time>
      </trkpt>
      <trkpt lat="44.11205" lon="6.3982">
        <ele>1478.9</ele>
        <time>2021-09-11T14:56:07Z</time>
      </trkpt>
      <trkpt lat="44.11205" lon="6.39819">
        <ele>1478.9</ele>
        <time>2021-09-11T14:56:08Z</time>
      </trkpt>
      <trkpt lat="44.11205" lon="6.39818">
        <ele>1479</ele>
        <time>2021-09-11T14:56:09Z</time>
      </trkpt>
      <trkpt lat="44.11204" lon="6.39817">
        <ele>1479.1</ele>
        <time>2021-09-11T14:56:10Z</time>
      </trkpt>
      <trkpt lat="44.11203" lon="6.39815">
        <ele>1479.4</ele>
        <time>2021-09-11T14:56:12Z</time>
      </trkpt>
      <trkpt lat="44.11202" lon="6.39814">
        <ele>1479.5</ele>
        <time>2021-09-11T14:56:13Z</time>
      </trkpt>
      <trkpt lat="44.11202" lon="6.39814">
        <ele>1479.6</ele>
        <time>2021-09-11T14:56:14Z</time>
      </trkpt>
      <trkpt lat="44.11199" lon="6.39811">
        <ele>1480.1</ele>
        <time>2021-09-11T14:56:16Z</time>
      </trkpt>
      <trkpt lat="44.11195" lon="6.3981">
        <ele>1480.6</ele>
        <time>2021-09-11T14:56:17Z</time>
      </trkpt>
      <trkpt lat="44.11194" lon="6.39809">
        <ele>1480.8</ele>
        <time>2021-09-11T14:56:18Z</time>
      </trkpt>
      <trkpt lat="44.11192" lon="6.3981">
        <ele>1481</ele>
        <time>2021-09-11T14:56:19Z</time>
      </trkpt>
      <trkpt lat="44.11191" lon="6.39811">
        <ele>1481.2</ele>
        <time>2021-09-11T14:56:20Z</time>
      </trkpt>
      <trkpt lat="44.11188" lon="6.39812">
        <ele>1481.5</ele>
        <time>2021-09-11T14:56:22Z</time>
      </trkpt>
      <trkpt lat="44.11187" lon="6.39813">
        <ele>1481.7</ele>
        <time>2021-09-11T14:56:23Z</time>
      </trkpt>
      <trkpt lat="44.11186" lon="6.39815">
        <ele>1481.9</ele>
        <time>2021-09-11T14:56:24Z</time>
      </trkpt>
      <trkpt lat="44.11185" lon="6.39816">
        <ele>1482.1</ele>
        <time>2021-09-11T14:56:26Z</time>
      </trkpt>
      <trkpt lat="44.11184" lon="6.39816">
        <ele>1482.2</ele>
        <time>2021-09-11T14:56:27Z</time>
      </trkpt>
      <trkpt lat="44.11184" lon="6.39817">
        <ele>1482.3</ele>
        <time>2021-09-11T14:56:29Z</time>
      </trkpt>
      <trkpt lat="44.11185" lon="6.39817">
        <ele>1482.4</ele>
        <time>2021-09-11T14:56:30Z</time>
      </trkpt>
      <trkpt lat="44.11185" lon="6.39818">
        <ele>1482.4</ele>
        <time>2021-09-11T14:56:32Z</time>
      </trkpt>
      <trkpt lat="44.11185" lon="6.39818">
        <ele>1482.5</ele>
        <time>2021-09-11T14:56:33Z</time>
      </trkpt>
      <trkpt lat="44.11185" lon="6.39819">
        <ele>1482.5</ele>
        <time>2021-09-11T14:56:34Z</time>
      </trkpt>
      <trkpt lat="44.11185" lon="6.3982">
        <ele>1482.6</ele>
        <time>2021-09-11T14:56:36Z</time>
      </trkpt>
      <trkpt lat="44.11148" lon="6.3982">
        <ele>1487.3</ele>
        <time>2021-09-11T14:57:06Z</time>
      </trkpt>
      <trkpt lat="44.11145" lon="6.39819">
        <ele>1487.8</ele>
        <time>2021-09-11T14:57:07Z</time>
      </trkpt>
      <trkpt lat="44.11141" lon="6.39819">
        <ele>1488.2</ele>
        <time>2021-09-11T14:57:09Z</time>
      </trkpt>
      <trkpt lat="44.11137" lon="6.39819">
        <ele>1488.7</ele>
        <time>2021-09-11T14:57:10Z</time>
      </trkpt>
      <trkpt lat="44.11135" lon="6.39819">
        <ele>1489</ele>
        <time>2021-09-11T14:57:11Z</time>
      </trkpt>
      <trkpt lat="44.11132" lon="6.39818">
        <ele>1489.3</ele>
        <time>2021-09-11T14:57:13Z</time>
      </trkpt>
      <trkpt lat="44.11131" lon="6.39818">
        <ele>1489.6</ele>
        <time>2021-09-11T14:57:14Z</time>
      </trkpt>
      <trkpt lat="44.1113" lon="6.39818">
        <ele>1489.6</ele>
        <time>2021-09-11T14:57:16Z</time>
      </trkpt>
      <trkpt lat="44.1113" lon="6.39818">
        <ele>1489.7</ele>
        <time>2021-09-11T14:57:17Z</time>
      </trkpt>
      <trkpt lat="44.11125" lon="6.39816">
        <ele>1490.3</ele>
        <time>2021-09-11T14:57:18Z</time>
      </trkpt>
      <trkpt lat="44.11121" lon="6.39814">
        <ele>1490.8</ele>
        <time>2021-09-11T14:57:19Z</time>
      </trkpt>
      <trkpt lat="44.11118" lon="6.39812">
        <ele>1491.4</ele>
        <time>2021-09-11T14:57:20Z</time>
      </trkpt>
      <trkpt lat="44.11114" lon="6.3981">
        <ele>1491.9</ele>
        <time>2021-09-11T14:57:39Z</time>
      </trkpt>
      <trkpt lat="44.1111" lon="6.39808">
        <ele>1492.5</ele>
        <time>2021-09-11T14:57:40Z</time>
      </trkpt>
      <trkpt lat="44.11106" lon="6.39805">
        <ele>1493</ele>
        <time>2021-09-11T14:57:41Z</time>
      </trkpt>
      <trkpt lat="44.11103" lon="6.39803">
        <ele>1493.6</ele>
        <time>2021-09-11T14:57:42Z</time>
      </trkpt>
      <trkpt lat="44.11102" lon="6.39802">
        <ele>1493.7</ele>
        <time>2021-09-11T14:57:43Z</time>
      </trkpt>
      <trkpt lat="44.111" lon="6.398">
        <ele>1494.1</ele>
        <time>2021-09-11T14:57:45Z</time>
      </trkpt>
      <trkpt lat="44.11097" lon="6.39799">
        <ele>1494.6</ele>
        <time>2021-09-11T14:57:46Z</time>
      </trkpt>
      <trkpt lat="44.11095" lon="6.39799">
        <ele>1494.8</ele>
        <time>2021-09-11T14:57:47Z</time>
      </trkpt>
      <trkpt lat="44.11095" lon="6.398">
        <ele>1495</ele>
        <time>2021-09-11T14:57:48Z</time>
      </trkpt>
      <trkpt lat="44.11094" lon="6.39801">
        <ele>1495.1</ele>
        <time>2021-09-11T14:57:49Z</time>
      </trkpt>
      <trkpt lat="44.11093" lon="6.39802">
        <ele>1495.3</ele>
        <time>2021-09-11T14:57:51Z</time>
      </trkpt>
      <trkpt lat="44.11092" lon="6.39803">
        <ele>1495.5</ele>
        <time>2021-09-11T14:57:52Z</time>
      </trkpt>
      <trkpt lat="44.11091" lon="6.39804">
        <ele>1495.6</ele>
        <time>2021-09-11T14:57:53Z</time>
      </trkpt>
      <trkpt lat="44.11091" lon="6.39804">
        <ele>1495.6</ele>
        <time>2021-09-11T14:57:54Z</time>
      </trkpt>
      <trkpt lat="44.1109" lon="6.39805">
        <ele>1495.9</ele>
        <time>2021-09-11T14:57:56Z</time>
      </trkpt>
      <trkpt lat="44.11088" lon="6.39805">
        <ele>1496.1</ele>
        <time>2021-09-11T14:57:57Z</time>
      </trkpt>
      <trkpt lat="44.11088" lon="6.39805">
        <ele>1496.1</ele>
        <time>2021-09-11T14:57:58Z</time>
      </trkpt>
      <trkpt lat="44.11088" lon="6.39805">
        <ele>1496.2</ele>
        <time>2021-09-11T14:57:59Z</time>
      </trkpt>
      <trkpt lat="44.11087" lon="6.39805">
        <ele>1496.2</ele>
        <time>2021-09-11T14:58:00Z</time>
      </trkpt>
      <trkpt lat="44.11087" lon="6.39805">
        <ele>1496.2</ele>
        <time>2021-09-11T14:58:01Z</time>
      </trkpt>
      <trkpt lat="44.11087" lon="6.39806">
        <ele>1496.3</ele>
        <time>2021-09-11T14:58:03Z</time>
      </trkpt>
      <trkpt lat="44.11086" lon="6.39806">
        <ele>1496.4</ele>
        <time>2021-09-11T14:58:04Z</time>
      </trkpt>
      <trkpt lat="44.11085" lon="6.39807">
        <ele>1496.6</ele>
        <time>2021-09-11T14:58:05Z</time>
      </trkpt>
      <trkpt lat="44.11076" lon="6.39814">
        <ele>1498.1</ele>
        <time>2021-09-11T14:58:06Z</time>
      </trkpt>
      <trkpt lat="44.11068" lon="6.3982">
        <ele>1499.4</ele>
        <time>2021-09-11T14:58:08Z</time>
      </trkpt>
      <trkpt lat="44.11059" lon="6.39827">
        <ele>1500.6</ele>
        <time>2021-09-11T14:59:04Z</time>
      </trkpt>
      <trkpt lat="44.11051" lon="6.39834">
        <ele>1501.8</ele>
        <time>2021-09-11T14:59:05Z</time>
      </trkpt>
      <trkpt lat="44.11043" lon="6.39841">
        <ele>1503</ele>
        <time>2021-09-11T14:59:06Z</time>
      </trkpt>
      <trkpt lat="44.1104" lon="6.39843">
        <ele>1503.4</ele>
        <time>2021-09-11T14:59:07Z</time>
      </trkpt>
      <trkpt lat="44.11039" lon="6.39844">
        <ele>1503.5</ele>
        <time>2021-09-11T14:59:08Z</time>
      </trkpt>
      <trkpt lat="44.11037" lon="6.39845">
        <ele>1503.7</ele>
        <time>2021-09-11T14:59:09Z</time>
      </trkpt>
      <trkpt lat="44.11036" lon="6.39845">
        <ele>1503.9</ele>
        <time>2021-09-11T14:59:10Z</time>
      </trkpt>
      <trkpt lat="44.11032" lon="6.39846">
        <ele>1504.4</ele>
        <time>2021-09-11T14:59:12Z</time>
      </trkpt>
      <trkpt lat="44.11031" lon="6.39846">
        <ele>1504.5</ele>
        <time>2021-09-11T14:59:13Z</time>
      </trkpt>
      <trkpt lat="44.1103" lon="6.39846">
        <ele>1504.7</ele>
        <time>2021-09-11T14:59:14Z</time>
      </trkpt>
      <trkpt lat="44.11028" lon="6.39846">
        <ele>1504.9</ele>
        <time>2021-09-11T14:59:15Z</time>
      </trkpt>
      <trkpt lat="44.11026" lon="6.39847">
        <ele>1505.1</ele>
        <time>2021-09-11T14:59:16Z</time>
      </trkpt>
      <trkpt lat="44.11025" lon="6.39847">
        <ele>1505.3</ele>
        <time>2021-09-11T14:59:17Z</time>
      </trkpt>
      <trkpt lat="44.11022" lon="6.39849">
        <ele>1505.7</ele>
        <time>2021-09-11T14:59:19Z</time>
      </trkpt>
      <trkpt lat="44.11021" lon="6.39849">
        <ele>1505.8</ele>
        <time>2021-09-11T14:59:20Z</time>
      </trkpt>
      <trkpt lat="44.11021" lon="6.39849">
        <ele>1505.8</ele>
        <time>2021-09-11T14:59:22Z</time>
      </trkpt>
      <trkpt lat="44.1102" lon="6.39849">
        <ele>1505.9</ele>
        <time>2021-09-11T14:59:23Z</time>
      </trkpt>
      <trkpt lat="44.1102" lon="6.39849">
        <ele>1505.9</ele>
        <time>2021-09-11T14:59:25Z</time>
      </trkpt>
      <trkpt lat="44.1102" lon="6.39849">
        <ele>1505.9</ele>
        <time>2021-09-11T14:59:27Z</time>
      </trkpt>
      <trkpt lat="44.1102" lon="6.39849">
        <ele>1505.9</ele>
        <time>2021-09-11T14:59:28Z</time>
      </trkpt>
      <trkpt lat="44.1102" lon="6.39849">
        <ele>1506</ele>
        <time>2021-09-11T14:59:29Z</time>
      </trkpt>
      <trkpt lat="44.11019" lon="6.39849">
        <ele>1506</ele>
        <time>2021-09-11T14:59:30Z</time>
      </trkpt>
      <trkpt lat="44.10996" lon="6.39872">
        <ele>1507.7</ele>
        <time>2021-09-11T15:00:40Z</time>
      </trkpt>
      <trkpt lat="44.10991" lon="6.39883">
        <ele>1507.6</ele>
        <time>2021-09-11T15:00:42Z</time>
      </trkpt>
      <trkpt lat="44.10982" lon="6.39902">
        <ele>1507.3</ele>
        <time>2021-09-11T15:00:43Z</time>
      </trkpt>
      <trkpt lat="44.10979" lon="6.39907">
        <ele>1506.8</ele>
        <time>2021-09-11T15:00:44Z</time>
      </trkpt>
      <trkpt lat="44.10974" lon="6.39913">
        <ele>1506.1</ele>
        <time>2021-09-11T15:00:46Z</time>
      </trkpt>
      <trkpt lat="44.1097" lon="6.39918">
        <ele>1505.6</ele>
        <time>2021-09-11T15:00:47Z</time>
      </trkpt>
      <trkpt lat="44.10967" lon="6.39923">
        <ele>1505.2</ele>
        <time>2021-09-11T15:00:48Z</time>
      </trkpt>
      <trkpt lat="44.10965" lon="6.39925">
        <ele>1504.9</ele>
        <time>2021-09-11T15:00:49Z</time>
      </trkpt>
      <trkpt lat="44.10963" lon="6.39927">
        <ele>1504.7</ele>
        <time>2021-09-11T15:00:50Z</time>
      </trkpt>
      <trkpt lat="44.10961" lon="6.39928">
        <ele>1504.6</ele>
        <time>2021-09-11T15:00:52Z</time>
      </trkpt>
      <trkpt lat="44.10963" lon="6.39926">
        <ele>1504.4</ele>
        <time>2021-09-11T15:00:54Z</time>
      </trkpt>
      <trkpt lat="44.10963" lon="6.39925">
        <ele>1504.3</ele>
        <time>2021-09-11T15:00:56Z</time>
      </trkpt>
      <trkpt lat="44.10961" lon="6.39925">
        <ele>1504.2</ele>
        <time>2021-09-11T15:00:57Z</time>
      </trkpt>
      <trkpt lat="44.1096" lon="6.39925">
        <ele>1504.1</ele>
        <time>2021-09-11T15:00:58Z</time>
      </trkpt>
      <trkpt lat="44.10959" lon="6.39923">
        <ele>1504</ele>
        <time>2021-09-11T15:01:00Z</time>
      </trkpt>
      <trkpt lat="44.10953" lon="6.39913">
        <ele>1504.1</ele>
        <time>2021-09-11T15:01:12Z</time>
      </trkpt>
      <trkpt lat="44.10952" lon="6.39912">
        <ele>1504.2</ele>
        <time>2021-09-11T15:01:13Z</time>
      </trkpt>
      <trkpt lat="44.10952" lon="6.39913">
        <ele>1504.2</ele>
        <time>2021-09-11T15:01:15Z</time>
      </trkpt>
      <trkpt lat="44.10952" lon="6.39913">
        <ele>1504.2</ele>
        <time>2021-09-11T15:01:16Z</time>
      </trkpt>
      <trkpt lat="44.10952" lon="6.39913">
        <ele>1504.2</ele>
        <time>2021-09-11T15:01:17Z</time>
      </trkpt>
      <trkpt lat="44.10953" lon="6.39911">
        <ele>1504.3</ele>
        <time>2021-09-11T15:01:18Z</time>
      </trkpt>
      <trkpt lat="44.10956" lon="6.3991">
        <ele>1504.6</ele>
        <time>2021-09-11T15:01:19Z</time>
      </trkpt>
      <trkpt lat="44.1096" lon="6.39909">
        <ele>1504.9</ele>
        <time>2021-09-11T15:01:21Z</time>
      </trkpt>
      <trkpt lat="44.10963" lon="6.3991">
        <ele>1505.2</ele>
        <time>2021-09-11T15:01:22Z</time>
      </trkpt>
      <trkpt lat="44.10967" lon="6.3991">
        <ele>1505.6</ele>
        <time>2021-09-11T15:01:23Z</time>
      </trkpt>
      <trkpt lat="44.10973" lon="6.39908">
        <ele>1506.1</ele>
        <time>2021-09-11T15:01:24Z</time>
      </trkpt>
      <trkpt lat="44.10976" lon="6.39907">
        <ele>1506.5</ele>
        <time>2021-09-11T15:01:25Z</time>
      </trkpt>
      <trkpt lat="44.10981" lon="6.39906">
        <ele>1507.1</ele>
        <time>2021-09-11T15:01:27Z</time>
      </trkpt>
      <trkpt lat="44.10985" lon="6.39904">
        <ele>1507.3</ele>
        <time>2021-09-11T15:01:28Z</time>
      </trkpt>
      <trkpt lat="44.10986" lon="6.39902">
        <ele>1507.4</ele>
        <time>2021-09-11T15:01:29Z</time>
      </trkpt>
      <trkpt lat="44.10988" lon="6.399">
        <ele>1507.4</ele>
        <time>2021-09-11T15:01:31Z</time>
      </trkpt>
      <trkpt lat="44.10989" lon="6.39899">
        <ele>1507.4</ele>
        <time>2021-09-11T15:01:32Z</time>
      </trkpt>
      <trkpt lat="44.10992" lon="6.39896">
        <ele>1507.5</ele>
        <time>2021-09-11T15:01:34Z</time>
      </trkpt>
      <trkpt lat="44.10994" lon="6.39893">
        <ele>1507.5</ele>
        <time>2021-09-11T15:01:35Z</time>
      </trkpt>
      <trkpt lat="44.10994" lon="6.39892">
        <ele>1507.5</ele>
        <time>2021-09-11T15:01:36Z</time>
      </trkpt>
      <trkpt lat="44.10996" lon="6.39889">
        <ele>1507.6</ele>
        <time>2021-09-11T15:01:37Z</time>
      </trkpt>
      <trkpt lat="44.10997" lon="6.39888">
        <ele>1507.6</ele>
        <time>2021-09-11T15:01:38Z</time>
      </trkpt>
      <trkpt lat="44.10999" lon="6.39885">
        <ele>1507.7</ele>
        <time>2021-09-11T15:01:40Z</time>
      </trkpt>
      <trkpt lat="44.10999" lon="6.39884">
        <ele>1507.7</ele>
        <time>2021-09-11T15:01:41Z</time>
      </trkpt>
      <trkpt lat="44.11002" lon="6.39882">
        <ele>1507.7</ele>
        <time>2021-09-11T15:01:43Z</time>
      </trkpt>
      <trkpt lat="44.11003" lon="6.39881">
        <ele>1507.7</ele>
        <time>2021-09-11T15:01:44Z</time>
      </trkpt>
      <trkpt lat="44.11004" lon="6.3988">
        <ele>1507.7</ele>
        <time>2021-09-11T15:01:45Z</time>
      </trkpt>
      <trkpt lat="44.11006" lon="6.3988">
        <ele>1507.7</ele>
        <time>2021-09-11T15:01:46Z</time>
      </trkpt>
      <trkpt lat="44.11008" lon="6.39879">
        <ele>1507.7</ele>
        <time>2021-09-11T15:01:48Z</time>
      </trkpt>
      <trkpt lat="44.11009" lon="6.39875">
        <ele>1507.7</ele>
        <time>2021-09-11T15:01:50Z</time>
      </trkpt>
      <trkpt lat="44.11009" lon="6.39873">
        <ele>1507.6</ele>
        <time>2021-09-11T15:01:51Z</time>
      </trkpt>
      <trkpt lat="44.11009" lon="6.39873">
        <ele>1507.6</ele>
        <time>2021-09-11T15:01:52Z</time>
      </trkpt>
      <trkpt lat="44.11009" lon="6.39872">
        <ele>1507.6</ele>
        <time>2021-09-11T15:01:53Z</time>
      </trkpt>
      <trkpt lat="44.11009" lon="6.39871">
        <ele>1507.6</ele>
        <time>2021-09-11T15:01:55Z</time>
      </trkpt>
      <trkpt lat="44.11009" lon="6.39871">
        <ele>1507.6</ele>
        <time>2021-09-11T15:01:56Z</time>
      </trkpt>
      <trkpt lat="44.11009" lon="6.3987">
        <ele>1507.6</ele>
        <time>2021-09-11T15:01:57Z</time>
      </trkpt>
      <trkpt lat="44.11009" lon="6.39869">
        <ele>1507.5</ele>
        <time>2021-09-11T15:01:58Z</time>
      </trkpt>
      <trkpt lat="44.11009" lon="6.39867">
        <ele>1507.5</ele>
        <time>2021-09-11T15:02:00Z</time>
      </trkpt>
      <trkpt lat="44.11014" lon="6.39862">
        <ele>1507.4</ele>
        <time>2021-09-11T15:02:04Z</time>
      </trkpt>
      <trkpt lat="44.11016" lon="6.39857">
        <ele>1508.2</ele>
        <time>2021-09-11T15:02:06Z</time>
      </trkpt>
      <trkpt lat="44.11016" lon="6.39855">
        <ele>1508.4</ele>
        <time>2021-09-11T15:02:07Z</time>
      </trkpt>
      <trkpt lat="44.11017" lon="6.39853">
        <ele>1508.6</ele>
        <time>2021-09-11T15:02:08Z</time>
      </trkpt>
      <trkpt lat="44.11016" lon="6.39848">
        <ele>1509.1</ele>
        <time>2021-09-11T15:02:09Z</time>
      </trkpt>
      <trkpt lat="44.11016" lon="6.39844">
        <ele>1509.5</ele>
        <time>2021-09-11T15:02:11Z</time>
      </trkpt>
      <trkpt lat="44.11016" lon="6.39842">
        <ele>1509.8</ele>
        <time>2021-09-11T15:02:12Z</time>
      </trkpt>
      <trkpt lat="44.11015" lon="6.39839">
        <ele>1510.2</ele>
        <time>2021-09-11T15:02:14Z</time>
      </trkpt>
      <trkpt lat="44.11014" lon="6.39837">
        <ele>1510.4</ele>
        <time>2021-09-11T15:02:15Z</time>
      </trkpt>
      <trkpt lat="44.11014" lon="6.39833">
        <ele>1510.8</ele>
        <time>2021-09-11T15:02:17Z</time>
      </trkpt>
      <trkpt lat="44.11015" lon="6.39831">
        <ele>1511.1</ele>
        <time>2021-09-11T15:02:18Z</time>
      </trkpt>
      <trkpt lat="44.11015" lon="6.39829">
        <ele>1511.3</ele>
        <time>2021-09-11T15:02:19Z</time>
      </trkpt>
      <trkpt lat="44.11016" lon="6.39827">
        <ele>1511.5</ele>
        <time>2021-09-11T15:02:20Z</time>
      </trkpt>
      <trkpt lat="44.11016" lon="6.39823">
        <ele>1511.9</ele>
        <time>2021-09-11T15:02:22Z</time>
      </trkpt>
      <trkpt lat="44.11016" lon="6.39821">
        <ele>1512.2</ele>
        <time>2021-09-11T15:02:23Z</time>
      </trkpt>
      <trkpt lat="44.11016" lon="6.39819">
        <ele>1512.4</ele>
        <time>2021-09-11T15:02:24Z</time>
      </trkpt>
      <trkpt lat="44.11016" lon="6.39818">
        <ele>1512.6</ele>
        <time>2021-09-11T15:02:25Z</time>
      </trkpt>
      <trkpt lat="44.11016" lon="6.39816">
        <ele>1512.8</ele>
        <time>2021-09-11T15:02:27Z</time>
      </trkpt>
      <trkpt lat="44.11017" lon="6.39815">
        <ele>1512.8</ele>
        <time>2021-09-11T15:02:28Z</time>
      </trkpt>
      <trkpt lat="44.11017" lon="6.39814">
        <ele>1513</ele>
        <time>2021-09-11T15:02:29Z</time>
      </trkpt>
      <trkpt lat="44.11018" lon="6.39809">
        <ele>1513.6</ele>
        <time>2021-09-11T15:02:31Z</time>
      </trkpt>
      <trkpt lat="44.11019" lon="6.39809">
        <ele>1513.7</ele>
        <time>2021-09-11T15:02:32Z</time>
      </trkpt>
      <trkpt lat="44.1102" lon="6.39808">
        <ele>1513.8</ele>
        <time>2021-09-11T15:02:33Z</time>
      </trkpt>
      <trkpt lat="44.1102" lon="6.39807">
        <ele>1514</ele>
        <time>2021-09-11T15:02:35Z</time>
      </trkpt>
      <trkpt lat="44.1102" lon="6.39807">
        <ele>1514</ele>
        <time>2021-09-11T15:02:36Z</time>
      </trkpt>
      <trkpt lat="44.1102" lon="6.39806">
        <ele>1514</ele>
        <time>2021-09-11T15:02:37Z</time>
      </trkpt>
      <trkpt lat="44.1102" lon="6.39806">
        <ele>1513.9</ele>
        <time>2021-09-11T15:02:38Z</time>
      </trkpt>
      <trkpt lat="44.11019" lon="6.39805">
        <ele>1513.7</ele>
        <time>2021-09-11T15:02:40Z</time>
      </trkpt>
      <trkpt lat="44.11017" lon="6.39805">
        <ele>1513.6</ele>
        <time>2021-09-11T15:02:42Z</time>
      </trkpt>
      <trkpt lat="44.11017" lon="6.39805">
        <ele>1513.5</ele>
        <time>2021-09-11T15:02:43Z</time>
      </trkpt>
      <trkpt lat="44.11017" lon="6.39805">
        <ele>1513.5</ele>
        <time>2021-09-11T15:02:45Z</time>
      </trkpt>
      <trkpt lat="44.11016" lon="6.39806">
        <ele>1513.4</ele>
        <time>2021-09-11T15:02:46Z</time>
      </trkpt>
      <trkpt lat="44.11016" lon="6.39806">
        <ele>1513.4</ele>
        <time>2021-09-11T15:02:47Z</time>
      </trkpt>
      <trkpt lat="44.11012" lon="6.39826">
        <ele>1511.5</ele>
        <time>2021-09-11T15:02:59Z</time>
      </trkpt>
      <trkpt lat="44.11011" lon="6.39833">
        <ele>1510.9</ele>
        <time>2021-09-11T15:03:01Z</time>
      </trkpt>
      <trkpt lat="44.11009" lon="6.39838">
        <ele>1510.3</ele>
        <time>2021-09-11T15:03:02Z</time>
      </trkpt>
      <trkpt lat="44.11005" lon="6.39842">
        <ele>1509.7</ele>
        <time>2021-09-11T15:03:04Z</time>
      </trkpt>
      <trkpt lat="44.11003" lon="6.39843">
        <ele>1509.5</ele>
        <time>2021-09-11T15:03:05Z</time>
      </trkpt>
      <trkpt lat="44.11002" lon="6.39845">
        <ele>1509.2</ele>
        <time>2021-09-11T15:03:06Z</time>
      </trkpt>
      <trkpt lat="44.11001" lon="6.39851">
        <ele>1507.5</ele>
        <time>2021-09-11T15:03:08Z</time>
      </trkpt>
      <trkpt lat="44.11" lon="6.39853">
        <ele>1507.5</ele>
        <time>2021-09-11T15:03:09Z</time>
      </trkpt>
      <trkpt lat="44.10998" lon="6.39851">
        <ele>1507.6</ele>
        <time>2021-09-11T15:03:10Z</time>
      </trkpt>
      <trkpt lat="44.10996" lon="6.39852">
        <ele>1507.6</ele>
        <time>2021-09-11T15:03:11Z</time>
      </trkpt>
      <trkpt lat="44.10995" lon="6.39853">
        <ele>1507.6</ele>
        <time>2021-09-11T15:03:12Z</time>
      </trkpt>
      <trkpt lat="44.10995" lon="6.39854">
        <ele>1507.7</ele>
        <time>2021-09-11T15:03:14Z</time>
      </trkpt>
      <trkpt lat="44.10994" lon="6.39854">
        <ele>1507.7</ele>
        <time>2021-09-11T15:03:15Z</time>
      </trkpt>
      <trkpt lat="44.10993" lon="6.39855">
        <ele>1507.7</ele>
        <time>2021-09-11T15:03:16Z</time>
      </trkpt>
      <trkpt lat="44.10993" lon="6.39856">
        <ele>1507.7</ele>
        <time>2021-09-11T15:03:17Z</time>
      </trkpt>
      <trkpt lat="44.10989" lon="6.3986">
        <ele>1507.7</ele>
        <time>2021-09-11T15:03:18Z</time>
      </trkpt>
      <trkpt lat="44.10985" lon="6.39864">
        <ele>1507.7</ele>
        <time>2021-09-11T15:03:19Z</time>
      </trkpt>
      <trkpt lat="44.10981" lon="6.39868">
        <ele>1507.6</ele>
        <time>2021-09-11T15:03:20Z</time>
      </trkpt>
      <trkpt lat="44.10973" lon="6.39875">
        <ele>1507.5</ele>
        <time>2021-09-11T15:03:22Z</time>
      </trkpt>
      <trkpt lat="44.10969" lon="6.39877">
        <ele>1507.4</ele>
        <time>2021-09-11T15:03:23Z</time>
      </trkpt>
      <trkpt lat="44.10966" lon="6.39879">
        <ele>1507.4</ele>
        <time>2021-09-11T15:03:24Z</time>
      </trkpt>
      <trkpt lat="44.10961" lon="6.39883">
        <ele>1507.3</ele>
        <time>2021-09-11T15:03:26Z</time>
      </trkpt>
      <trkpt lat="44.10958" lon="6.39883">
        <ele>1502.8</ele>
        <time>2021-09-11T15:03:27Z</time>
      </trkpt>
      <trkpt lat="44.10954" lon="6.39884">
        <ele>1502.1</ele>
        <time>2021-09-11T15:03:29Z</time>
      </trkpt>
      <trkpt lat="44.1095" lon="6.39885">
        <ele>1501.4</ele>
        <time>2021-09-11T15:03:30Z</time>
      </trkpt>
      <trkpt lat="44.10948" lon="6.39884">
        <ele>1501</ele>
        <time>2021-09-11T15:03:32Z</time>
      </trkpt>
      <trkpt lat="44.10947" lon="6.39884">
        <ele>1500.8</ele>
        <time>2021-09-11T15:03:34Z</time>
      </trkpt>
      <trkpt lat="44.10948" lon="6.39885">
        <ele>1500.6</ele>
        <time>2021-09-11T15:03:35Z</time>
      </trkpt>
      <trkpt lat="44.10948" lon="6.39886">
        <ele>1500.5</ele>
        <time>2021-09-11T15:03:36Z</time>
      </trkpt>
      <trkpt lat="44.10948" lon="6.39887">
        <ele>1500.4</ele>
        <time>2021-09-11T15:03:37Z</time>
      </trkpt>
      <trkpt lat="44.10948" lon="6.39887">
        <ele>1500.4</ele>
        <time>2021-09-11T15:03:39Z</time>
      </trkpt>
      <trkpt lat="44.10948" lon="6.39887">
        <ele>1500.3</ele>
        <time>2021-09-11T15:03:40Z</time>
      </trkpt>
      <trkpt lat="44.10946" lon="6.39885">
        <ele>1499.8</ele>
        <time>2021-09-11T15:03:41Z</time>
      </trkpt>
      <trkpt lat="44.10943" lon="6.39883">
        <ele>1499.2</ele>
        <time>2021-09-11T15:03:42Z</time>
      </trkpt>
      <trkpt lat="44.10941" lon="6.3988">
        <ele>1498.7</ele>
        <time>2021-09-11T15:03:43Z</time>
      </trkpt>
      <trkpt lat="44.10938" lon="6.39878">
        <ele>1498.1</ele>
        <time>2021-09-11T15:03:44Z</time>
      </trkpt>
      <trkpt lat="44.10936" lon="6.39876">
        <ele>1497.6</ele>
        <time>2021-09-11T15:03:45Z</time>
      </trkpt>
      <trkpt lat="44.10933" lon="6.39873">
        <ele>1497</ele>
        <time>2021-09-11T15:03:54Z</time>
      </trkpt>
      <trkpt lat="44.10931" lon="6.39871">
        <ele>1496.4</ele>
        <time>2021-09-11T15:03:55Z</time>
      </trkpt>
      <trkpt lat="44.10922" lon="6.39868">
        <ele>1494.7</ele>
        <time>2021-09-11T15:03:57Z</time>
      </trkpt>
      <trkpt lat="44.10916" lon="6.39867">
        <ele>1493.7</ele>
        <time>2021-09-11T15:03:58Z</time>
      </trkpt>
      <trkpt lat="44.10913" lon="6.39868">
        <ele>1493.2</ele>
        <time>2021-09-11T15:03:59Z</time>
      </trkpt>
      <trkpt lat="44.10906" lon="6.39871">
        <ele>1491.8</ele>
        <time>2021-09-11T15:04:01Z</time>
      </trkpt>
      <trkpt lat="44.10903" lon="6.39872">
        <ele>1491.3</ele>
        <time>2021-09-11T15:04:02Z</time>
      </trkpt>
      <trkpt lat="44.109" lon="6.39872">
        <ele>1490.7</ele>
        <time>2021-09-11T15:04:03Z</time>
      </trkpt>
      <trkpt lat="44.10899" lon="6.39872">
        <ele>1490.6</ele>
        <time>2021-09-11T15:04:04Z</time>
      </trkpt>
      <trkpt lat="44.10895" lon="6.39873">
        <ele>1489.8</ele>
        <time>2021-09-11T15:04:05Z</time>
      </trkpt>
      <trkpt lat="44.10892" lon="6.39875">
        <ele>1489.2</ele>
        <time>2021-09-11T15:04:07Z</time>
      </trkpt>
      <trkpt lat="44.10891" lon="6.39875">
        <ele>1489</ele>
        <time>2021-09-11T15:04:08Z</time>
      </trkpt>
      <trkpt lat="44.10889" lon="6.39876">
        <ele>1488.7</ele>
        <time>2021-09-11T15:04:10Z</time>
      </trkpt>
      <trkpt lat="44.10889" lon="6.39876">
        <ele>1488.5</ele>
        <time>2021-09-11T15:04:11Z</time>
      </trkpt>
      <trkpt lat="44.10887" lon="6.39876">
        <ele>1488.3</ele>
        <time>2021-09-11T15:04:13Z</time>
      </trkpt>
      <trkpt lat="44.10887" lon="6.39876">
        <ele>1488.2</ele>
        <time>2021-09-11T15:04:14Z</time>
      </trkpt>
      <trkpt lat="44.10886" lon="6.39876">
        <ele>1488.1</ele>
        <time>2021-09-11T15:04:16Z</time>
      </trkpt>
      <trkpt lat="44.10852" lon="6.39866">
        <ele>1481.7</ele>
        <time>2021-09-11T15:04:32Z</time>
      </trkpt>
      <trkpt lat="44.10846" lon="6.39865">
        <ele>1480.7</ele>
        <time>2021-09-11T15:04:33Z</time>
      </trkpt>
      <trkpt lat="44.10836" lon="6.39864">
        <ele>1478.9</ele>
        <time>2021-09-11T15:04:35Z</time>
      </trkpt>
      <trkpt lat="44.10829" lon="6.39862">
        <ele>1477.6</ele>
        <time>2021-09-11T15:04:36Z</time>
      </trkpt>
      <trkpt lat="44.10812" lon="6.39857">
        <ele>1474.4</ele>
        <time>2021-09-11T15:04:37Z</time>
      </trkpt>
      <trkpt lat="44.10805" lon="6.39857">
        <ele>1473.2</ele>
        <time>2021-09-11T15:04:38Z</time>
      </trkpt>
      <trkpt lat="44.10793" lon="6.39858">
        <ele>1471</ele>
        <time>2021-09-11T15:04:40Z</time>
      </trkpt>
      <trkpt lat="44.10787" lon="6.39858">
        <ele>1469.9</ele>
        <time>2021-09-11T15:04:41Z</time>
      </trkpt>
      <trkpt lat="44.10776" lon="6.39857">
        <ele>1467.8</ele>
        <time>2021-09-11T15:04:43Z</time>
      </trkpt>
      <trkpt lat="44.10771" lon="6.39857">
        <ele>1466.9</ele>
        <time>2021-09-11T15:04:44Z</time>
      </trkpt>
      <trkpt lat="44.10766" lon="6.39861">
        <ele>1465.8</ele>
        <time>2021-09-11T15:04:46Z</time>
      </trkpt>
      <trkpt lat="44.10758" lon="6.39861">
        <ele>1464.4</ele>
        <time>2021-09-11T15:04:47Z</time>
      </trkpt>
      <trkpt lat="44.10752" lon="6.39861">
        <ele>1463.3</ele>
        <time>2021-09-11T15:04:49Z</time>
      </trkpt>
      <trkpt lat="44.10747" lon="6.39862">
        <ele>1462.4</ele>
        <time>2021-09-11T15:04:50Z</time>
      </trkpt>
      <trkpt lat="44.10743" lon="6.39863">
        <ele>1461.7</ele>
        <time>2021-09-11T15:04:51Z</time>
      </trkpt>
      <trkpt lat="44.10738" lon="6.39864">
        <ele>1460.8</ele>
        <time>2021-09-11T15:04:53Z</time>
      </trkpt>
      <trkpt lat="44.10729" lon="6.39865">
        <ele>1459.1</ele>
        <time>2021-09-11T15:04:54Z</time>
      </trkpt>
      <trkpt lat="44.10722" lon="6.39865">
        <ele>1457.8</ele>
        <time>2021-09-11T15:04:56Z</time>
      </trkpt>
      <trkpt lat="44.10719" lon="6.39863">
        <ele>1457.3</ele>
        <time>2021-09-11T15:04:57Z</time>
      </trkpt>
      <trkpt lat="44.10714" lon="6.39864">
        <ele>1456.2</ele>
        <time>2021-09-11T15:04:58Z</time>
      </trkpt>
      <trkpt lat="44.10708" lon="6.39866">
        <ele>1455.2</ele>
        <time>2021-09-11T15:05:00Z</time>
      </trkpt>
      <trkpt lat="44.10704" lon="6.39867">
        <ele>1454.4</ele>
        <time>2021-09-11T15:05:01Z</time>
      </trkpt>
      <trkpt lat="44.107" lon="6.39867">
        <ele>1453.7</ele>
        <time>2021-09-11T15:05:02Z</time>
      </trkpt>
      <trkpt lat="44.10697" lon="6.39865">
        <ele>1453.1</ele>
        <time>2021-09-11T15:05:03Z</time>
      </trkpt>
      <trkpt lat="44.10692" lon="6.39862">
        <ele>1452.2</ele>
        <time>2021-09-11T15:05:04Z</time>
      </trkpt>
      <trkpt lat="44.10687" lon="6.39861">
        <ele>1451.3</ele>
        <time>2021-09-11T15:05:06Z</time>
      </trkpt>
      <trkpt lat="44.10681" lon="6.39857">
        <ele>1450</ele>
        <time>2021-09-11T15:05:07Z</time>
      </trkpt>
      <trkpt lat="44.10678" lon="6.39853">
        <ele>1449.3</ele>
        <time>2021-09-11T15:05:09Z</time>
      </trkpt>
      <trkpt lat="44.10676" lon="6.39851">
        <ele>1448.8</ele>
        <time>2021-09-11T15:05:10Z</time>
      </trkpt>
      <trkpt lat="44.10666" lon="6.39847">
        <ele>1446.9</ele>
        <time>2021-09-11T15:05:11Z</time>
      </trkpt>
      <trkpt lat="44.10661" lon="6.39843">
        <ele>1445.9</ele>
        <time>2021-09-11T15:05:12Z</time>
      </trkpt>
      <trkpt lat="44.10656" lon="6.39846">
        <ele>1445</ele>
        <time>2021-09-11T15:05:14Z</time>
      </trkpt>
      <trkpt lat="44.10653" lon="6.39843">
        <ele>1444.3</ele>
        <time>2021-09-11T15:05:15Z</time>
      </trkpt>
      <trkpt lat="44.10649" lon="6.39841">
        <ele>1443.5</ele>
        <time>2021-09-11T15:05:16Z</time>
      </trkpt>
      <trkpt lat="44.10643" lon="6.39842">
        <ele>1442.5</ele>
        <time>2021-09-11T15:05:17Z</time>
      </trkpt>
      <trkpt lat="44.10638" lon="6.39842">
        <ele>1441.6</ele>
        <time>2021-09-11T15:05:19Z</time>
      </trkpt>
      <trkpt lat="44.10636" lon="6.39842">
        <ele>1441.3</ele>
        <time>2021-09-11T15:05:20Z</time>
      </trkpt>
      <trkpt lat="44.10635" lon="6.39842">
        <ele>1440.9</ele>
        <time>2021-09-11T15:05:21Z</time>
      </trkpt>
      <trkpt lat="44.10629" lon="6.39841">
        <ele>1439.9</ele>
        <time>2021-09-11T15:05:23Z</time>
      </trkpt>
      <trkpt lat="44.10624" lon="6.39839">
        <ele>1439</ele>
        <time>2021-09-11T15:05:24Z</time>
      </trkpt>
      <trkpt lat="44.10621" lon="6.39838">
        <ele>1438.3</ele>
        <time>2021-09-11T15:05:25Z</time>
      </trkpt>
      <trkpt lat="44.10618" lon="6.39838">
        <ele>1437.9</ele>
        <time>2021-09-11T15:05:26Z</time>
      </trkpt>
      <trkpt lat="44.10613" lon="6.39839">
        <ele>1437</ele>
        <time>2021-09-11T15:05:28Z</time>
      </trkpt>
      <trkpt lat="44.10609" lon="6.39839">
        <ele>1436.2</ele>
        <time>2021-09-11T15:05:30Z</time>
      </trkpt>
      <trkpt lat="44.10606" lon="6.39838">
        <ele>1435.7</ele>
        <time>2021-09-11T15:05:31Z</time>
      </trkpt>
      <trkpt lat="44.10604" lon="6.39839">
        <ele>1435.3</ele>
        <time>2021-09-11T15:05:32Z</time>
      </trkpt>
      <trkpt lat="44.10601" lon="6.39839">
        <ele>1434.7</ele>
        <time>2021-09-11T15:05:34Z</time>
      </trkpt>
      <trkpt lat="44.10596" lon="6.39839">
        <ele>1433.9</ele>
        <time>2021-09-11T15:05:35Z</time>
      </trkpt>
      <trkpt lat="44.10592" lon="6.39839">
        <ele>1433.2</ele>
        <time>2021-09-11T15:05:37Z</time>
      </trkpt>
      <trkpt lat="44.10589" lon="6.39839">
        <ele>1432.6</ele>
        <time>2021-09-11T15:05:38Z</time>
      </trkpt>
      <trkpt lat="44.10588" lon="6.39839">
        <ele>1432.4</ele>
        <time>2021-09-11T15:05:39Z</time>
      </trkpt>
      <trkpt lat="44.10585" lon="6.39838">
        <ele>1431.8</ele>
        <time>2021-09-11T15:05:40Z</time>
      </trkpt>
      <trkpt lat="44.10581" lon="6.39835">
        <ele>1431</ele>
        <time>2021-09-11T15:05:41Z</time>
      </trkpt>
      <trkpt lat="44.10579" lon="6.39834">
        <ele>1430.7</ele>
        <time>2021-09-11T15:05:42Z</time>
      </trkpt>
      <trkpt lat="44.10575" lon="6.39833">
        <ele>1429.9</ele>
        <time>2021-09-11T15:05:44Z</time>
      </trkpt>
      <trkpt lat="44.1057" lon="6.3983">
        <ele>1428.9</ele>
        <time>2021-09-11T15:05:46Z</time>
      </trkpt>
      <trkpt lat="44.10568" lon="6.39829">
        <ele>1428.5</ele>
        <time>2021-09-11T15:05:47Z</time>
      </trkpt>
      <trkpt lat="44.10566" lon="6.39827">
        <ele>1428.2</ele>
        <time>2021-09-11T15:05:48Z</time>
      </trkpt>
      <trkpt lat="44.10562" lon="6.39822">
        <ele>1427.1</ele>
        <time>2021-09-11T15:05:50Z</time>
      </trkpt>
      <trkpt lat="44.10559" lon="6.39819">
        <ele>1426.5</ele>
        <time>2021-09-11T15:05:51Z</time>
      </trkpt>
      <trkpt lat="44.10557" lon="6.39816">
        <ele>1426</ele>
        <time>2021-09-11T15:05:52Z</time>
      </trkpt>
      <trkpt lat="44.10553" lon="6.39814">
        <ele>1425.2</ele>
        <time>2021-09-11T15:05:53Z</time>
      </trkpt>
      <trkpt lat="44.10551" lon="6.39812">
        <ele>1424.5</ele>
        <time>2021-09-11T15:05:55Z</time>
      </trkpt>
      <trkpt lat="44.10547" lon="6.39813">
        <ele>1423.7</ele>
        <time>2021-09-11T15:05:56Z</time>
      </trkpt>
      <trkpt lat="44.10545" lon="6.39814">
        <ele>1423.1</ele>
        <time>2021-09-11T15:05:57Z</time>
      </trkpt>
      <trkpt lat="44.10541" lon="6.39812">
        <ele>1422.1</ele>
        <time>2021-09-11T15:05:59Z</time>
      </trkpt>
      <trkpt lat="44.10537" lon="6.39811">
        <ele>1421.3</ele>
        <time>2021-09-11T15:06:00Z</time>
      </trkpt>
      <trkpt lat="44.10536" lon="6.39811">
        <ele>1421</ele>
        <time>2021-09-11T15:06:01Z</time>
      </trkpt>
      <trkpt lat="44.10531" lon="6.39809">
        <ele>1419.7</ele>
        <time>2021-09-11T15:06:03Z</time>
      </trkpt>
      <trkpt lat="44.10527" lon="6.39806">
        <ele>1418.9</ele>
        <time>2021-09-11T15:06:05Z</time>
      </trkpt>
      <trkpt lat="44.10525" lon="6.39804">
        <ele>1418.3</ele>
        <time>2021-09-11T15:06:06Z</time>
      </trkpt>
      <trkpt lat="44.10521" lon="6.39799">
        <ele>1417.3</ele>
        <time>2021-09-11T15:06:08Z</time>
      </trkpt>
      <trkpt lat="44.10519" lon="6.39797">
        <ele>1416.7</ele>
        <time>2021-09-11T15:06:09Z</time>
      </trkpt>
      <trkpt lat="44.10515" lon="6.39796">
        <ele>1416.1</ele>
        <time>2021-09-11T15:06:10Z</time>
      </trkpt>
      <trkpt lat="44.1051" lon="6.39797">
        <ele>1415.1</ele>
        <time>2021-09-11T15:06:12Z</time>
      </trkpt>
      <trkpt lat="44.10509" lon="6.39796">
        <ele>1414.9</ele>
        <time>2021-09-11T15:06:13Z</time>
      </trkpt>
      <trkpt lat="44.10507" lon="6.39796">
        <ele>1414.5</ele>
        <time>2021-09-11T15:06:14Z</time>
      </trkpt>
      <trkpt lat="44.10503" lon="6.39796">
        <ele>1413.4</ele>
        <time>2021-09-11T15:06:16Z</time>
      </trkpt>
      <trkpt lat="44.105" lon="6.39795">
        <ele>1412.8</ele>
        <time>2021-09-11T15:06:17Z</time>
      </trkpt>
      <trkpt lat="44.10497" lon="6.39794">
        <ele>1411.6</ele>
        <time>2021-09-11T15:06:19Z</time>
      </trkpt>
      <trkpt lat="44.10493" lon="6.39793">
        <ele>1410.3</ele>
        <time>2021-09-11T15:06:20Z</time>
      </trkpt>
      <trkpt lat="44.10491" lon="6.39793">
        <ele>1409.7</ele>
        <time>2021-09-11T15:06:21Z</time>
      </trkpt>
      <trkpt lat="44.1049" lon="6.39793">
        <ele>1409.3</ele>
        <time>2021-09-11T15:06:22Z</time>
      </trkpt>
      <trkpt lat="44.1049" lon="6.39793">
        <ele>1409.2</ele>
        <time>2021-09-11T15:06:23Z</time>
      </trkpt>
      <trkpt lat="44.10492" lon="6.39794">
        <ele>1408.5</ele>
        <time>2021-09-11T15:06:25Z</time>
      </trkpt>
      <trkpt lat="44.10492" lon="6.39794">
        <ele>1408.4</ele>
        <time>2021-09-11T15:06:27Z</time>
      </trkpt>
      <trkpt lat="44.10492" lon="6.39794">
        <ele>1408.4</ele>
        <time>2021-09-11T15:06:29Z</time>
      </trkpt>
      <trkpt lat="44.10492" lon="6.39794">
        <ele>1408.4</ele>
        <time>2021-09-11T15:06:30Z</time>
      </trkpt>
      <trkpt lat="44.10492" lon="6.39794">
        <ele>1408.3</ele>
        <time>2021-09-11T15:06:31Z</time>
      </trkpt>
      <trkpt lat="44.10491" lon="6.39822">
        <ele>1401.6</ele>
        <time>2021-09-11T15:07:39Z</time>
      </trkpt>
      <trkpt lat="44.10483" lon="6.39818">
        <ele>1399.2</ele>
        <time>2021-09-11T15:07:41Z</time>
      </trkpt>
      <trkpt lat="44.10477" lon="6.39814">
        <ele>1397.2</ele>
        <time>2021-09-11T15:07:42Z</time>
      </trkpt>
      <trkpt lat="44.1047" lon="6.39807">
        <ele>1394.4</ele>
        <time>2021-09-11T15:07:43Z</time>
      </trkpt>
      <trkpt lat="44.10464" lon="6.39804">
        <ele>1392.5</ele>
        <time>2021-09-11T15:07:44Z</time>
      </trkpt>
      <trkpt lat="44.1046" lon="6.39803">
        <ele>1391.2</ele>
        <time>2021-09-11T15:07:45Z</time>
      </trkpt>
      <trkpt lat="44.10455" lon="6.39803">
        <ele>1389.4</ele>
        <time>2021-09-11T15:07:47Z</time>
      </trkpt>
      <trkpt lat="44.10452" lon="6.39804">
        <ele>1388.5</ele>
        <time>2021-09-11T15:07:48Z</time>
      </trkpt>
      <trkpt lat="44.10449" lon="6.39805">
        <ele>1387.6</ele>
        <time>2021-09-11T15:07:49Z</time>
      </trkpt>
      <trkpt lat="44.10446" lon="6.39809">
        <ele>1386.5</ele>
        <time>2021-09-11T15:07:50Z</time>
      </trkpt>
      <trkpt lat="44.10445" lon="6.39811">
        <ele>1386.1</ele>
        <time>2021-09-11T15:07:51Z</time>
      </trkpt>
      <trkpt lat="44.10444" lon="6.39812">
        <ele>1385.6</ele>
        <time>2021-09-11T15:07:52Z</time>
      </trkpt>
      <trkpt lat="44.10442" lon="6.39811">
        <ele>1385.2</ele>
        <time>2021-09-11T15:07:53Z</time>
      </trkpt>
      <trkpt lat="44.10439" lon="6.39806">
        <ele>1384.1</ele>
        <time>2021-09-11T15:07:55Z</time>
      </trkpt>
      <trkpt lat="44.10437" lon="6.39801">
        <ele>1383.1</ele>
        <time>2021-09-11T15:07:57Z</time>
      </trkpt>
      <trkpt lat="44.10437" lon="6.39793">
        <ele>1381.8</ele>
        <time>2021-09-11T15:07:59Z</time>
      </trkpt>
      <trkpt lat="44.10435" lon="6.3979">
        <ele>1381.1</ele>
        <time>2021-09-11T15:08:00Z</time>
      </trkpt>
      <trkpt lat="44.10432" lon="6.39784">
        <ele>1379.9</ele>
        <time>2021-09-11T15:08:01Z</time>
      </trkpt>
      <trkpt lat="44.1043" lon="6.39782">
        <ele>1379.2</ele>
        <time>2021-09-11T15:08:03Z</time>
      </trkpt>
      <trkpt lat="44.10427" lon="6.39781">
        <ele>1378.4</ele>
        <time>2021-09-11T15:08:04Z</time>
      </trkpt>
      <trkpt lat="44.10423" lon="6.39779">
        <ele>1377.2</ele>
        <time>2021-09-11T15:08:06Z</time>
      </trkpt>
      <trkpt lat="44.10421" lon="6.39777">
        <ele>1376.4</ele>
        <time>2021-09-11T15:08:07Z</time>
      </trkpt>
      <trkpt lat="44.10421" lon="6.39777">
        <ele>1376.4</ele>
        <time>2021-09-11T15:08:08Z</time>
      </trkpt>
      <trkpt lat="44.10422" lon="6.39777">
        <ele>1375.9</ele>
        <time>2021-09-11T15:08:10Z</time>
      </trkpt>
      <trkpt lat="44.10422" lon="6.39776">
        <ele>1375.7</ele>
        <time>2021-09-11T15:08:12Z</time>
      </trkpt>
      <trkpt lat="44.10422" lon="6.39777">
        <ele>1375.7</ele>
        <time>2021-09-11T15:08:14Z</time>
      </trkpt>
      <trkpt lat="44.10422" lon="6.39777">
        <ele>1375.6</ele>
        <time>2021-09-11T15:08:15Z</time>
      </trkpt>
      <trkpt lat="44.10422" lon="6.39778">
        <ele>1375.4</ele>
        <time>2021-09-11T15:08:17Z</time>
      </trkpt>
      <trkpt lat="44.10415" lon="6.39782">
        <ele>1372.9</ele>
        <time>2021-09-11T15:08:26Z</time>
      </trkpt>
      <trkpt lat="44.10412" lon="6.39781">
        <ele>1372</ele>
        <time>2021-09-11T15:08:27Z</time>
      </trkpt>
      <trkpt lat="44.1041" lon="6.39779">
        <ele>1371</ele>
        <time>2021-09-11T15:08:28Z</time>
      </trkpt>
      <trkpt lat="44.10407" lon="6.39777">
        <ele>1370.3</ele>
        <time>2021-09-11T15:08:30Z</time>
      </trkpt>
      <trkpt lat="44.10406" lon="6.39776">
        <ele>1369.9</ele>
        <time>2021-09-11T15:08:32Z</time>
      </trkpt>
      <trkpt lat="44.10404" lon="6.39777">
        <ele>1369.4</ele>
        <time>2021-09-11T15:08:33Z</time>
      </trkpt>
      <trkpt lat="44.10402" lon="6.39777">
        <ele>1368.6</ele>
        <time>2021-09-11T15:08:35Z</time>
      </trkpt>
      <trkpt lat="44.10399" lon="6.39776">
        <ele>1368</ele>
        <time>2021-09-11T15:08:36Z</time>
      </trkpt>
      <trkpt lat="44.10396" lon="6.39775">
        <ele>1367.3</ele>
        <time>2021-09-11T15:08:38Z</time>
      </trkpt>
      <trkpt lat="44.10394" lon="6.39775">
        <ele>1366.6</ele>
        <time>2021-09-11T15:08:39Z</time>
      </trkpt>
      <trkpt lat="44.10391" lon="6.39774">
        <ele>1366</ele>
        <time>2021-09-11T15:08:40Z</time>
      </trkpt>
      <trkpt lat="44.10388" lon="6.39774">
        <ele>1365.3</ele>
        <time>2021-09-11T15:09:05Z</time>
      </trkpt>
      <trkpt lat="44.10386" lon="6.39773">
        <ele>1364.7</ele>
        <time>2021-09-11T15:09:06Z</time>
      </trkpt>
      <trkpt lat="44.10374" lon="6.3977">
        <ele>1361.9</ele>
        <time>2021-09-11T15:09:08Z</time>
      </trkpt>
      <trkpt lat="44.10363" lon="6.39766">
        <ele>1359.2</ele>
        <time>2021-09-11T15:09:09Z</time>
      </trkpt>
      <trkpt lat="44.10354" lon="6.39762">
        <ele>1357.1</ele>
        <time>2021-09-11T15:09:11Z</time>
      </trkpt>
      <trkpt lat="44.10346" lon="6.39756">
        <ele>1355.1</ele>
        <time>2021-09-11T15:09:12Z</time>
      </trkpt>
      <trkpt lat="44.10341" lon="6.39752">
        <ele>1353.8</ele>
        <time>2021-09-11T15:09:13Z</time>
      </trkpt>
      <trkpt lat="44.10338" lon="6.39747">
        <ele>1352.9</ele>
        <time>2021-09-11T15:09:14Z</time>
      </trkpt>
      <trkpt lat="44.10334" lon="6.39738">
        <ele>1351.4</ele>
        <time>2021-09-11T15:09:16Z</time>
      </trkpt>
      <trkpt lat="44.10331" lon="6.39734">
        <ele>1350.5</ele>
        <time>2021-09-11T15:09:17Z</time>
      </trkpt>
      <trkpt lat="44.10329" lon="6.39731">
        <ele>1349.8</ele>
        <time>2021-09-11T15:09:18Z</time>
      </trkpt>
      <trkpt lat="44.10326" lon="6.39729">
        <ele>1348.9</ele>
        <time>2021-09-11T15:09:20Z</time>
      </trkpt>
      <trkpt lat="44.10323" lon="6.39727">
        <ele>1348.1</ele>
        <time>2021-09-11T15:09:21Z</time>
      </trkpt>
      <trkpt lat="44.10319" lon="6.39726">
        <ele>1347.2</ele>
        <time>2021-09-11T15:09:22Z</time>
      </trkpt>
      <trkpt lat="44.10316" lon="6.39726">
        <ele>1346.6</ele>
        <time>2021-09-11T15:09:23Z</time>
      </trkpt>
      <trkpt lat="44.10313" lon="6.39728">
        <ele>1345.7</ele>
        <time>2021-09-11T15:09:25Z</time>
      </trkpt>
      <trkpt lat="44.10308" lon="6.39728">
        <ele>1344.5</ele>
        <time>2021-09-11T15:09:26Z</time>
      </trkpt>
      <trkpt lat="44.10304" lon="6.39728">
        <ele>1343.8</ele>
        <time>2021-09-11T15:09:27Z</time>
      </trkpt>
      <trkpt lat="44.10301" lon="6.39728">
        <ele>1342.9</ele>
        <time>2021-09-11T15:09:29Z</time>
      </trkpt>
      <trkpt lat="44.10299" lon="6.39727">
        <ele>1342.5</ele>
        <time>2021-09-11T15:09:30Z</time>
      </trkpt>
      <trkpt lat="44.10299" lon="6.39726">
        <ele>1342.3</ele>
        <time>2021-09-11T15:09:31Z</time>
      </trkpt>
      <trkpt lat="44.10298" lon="6.39726">
        <ele>1342</ele>
        <time>2021-09-11T15:09:32Z</time>
      </trkpt>
      <trkpt lat="44.10295" lon="6.39726">
        <ele>1341.5</ele>
        <time>2021-09-11T15:09:34Z</time>
      </trkpt>
      <trkpt lat="44.10297" lon="6.39725">
        <ele>1341.2</ele>
        <time>2021-09-11T15:09:36Z</time>
      </trkpt>
      <trkpt lat="44.10295" lon="6.39724">
        <ele>1340.8</ele>
        <time>2021-09-11T15:09:37Z</time>
      </trkpt>
      <trkpt lat="44.10292" lon="6.39721">
        <ele>1340</ele>
        <time>2021-09-11T15:09:38Z</time>
      </trkpt>
      <trkpt lat="44.10286" lon="6.39717">
        <ele>1338.4</ele>
        <time>2021-09-11T15:09:40Z</time>
      </trkpt>
      <trkpt lat="44.1028" lon="6.39713">
        <ele>1337</ele>
        <time>2021-09-11T15:09:41Z</time>
      </trkpt>
      <trkpt lat="44.10274" lon="6.3971">
        <ele>1335.6</ele>
        <time>2021-09-11T15:09:42Z</time>
      </trkpt>
      <trkpt lat="44.10262" lon="6.39706">
        <ele>1333.3</ele>
        <time>2021-09-11T15:09:44Z</time>
      </trkpt>
      <trkpt lat="44.10251" lon="6.39702">
        <ele>1331.3</ele>
        <time>2021-09-11T15:09:46Z</time>
      </trkpt>
      <trkpt lat="44.10247" lon="6.39701">
        <ele>1330.4</ele>
        <time>2021-09-11T15:09:47Z</time>
      </trkpt>
      <trkpt lat="44.10241" lon="6.39697">
        <ele>1329.1</ele>
        <time>2021-09-11T15:09:49Z</time>
      </trkpt>
      <trkpt lat="44.10236" lon="6.39697">
        <ele>1328.2</ele>
        <time>2021-09-11T15:09:50Z</time>
      </trkpt>
      <trkpt lat="44.1023" lon="6.39697">
        <ele>1326.9</ele>
        <time>2021-09-11T15:09:52Z</time>
      </trkpt>
      <trkpt lat="44.10226" lon="6.39696">
        <ele>1326.1</ele>
        <time>2021-09-11T15:09:53Z</time>
      </trkpt>
      <trkpt lat="44.10223" lon="6.39695">
        <ele>1325.7</ele>
        <time>2021-09-11T15:09:54Z</time>
      </trkpt>
      <trkpt lat="44.1022" lon="6.39693">
        <ele>1325</ele>
        <time>2021-09-11T15:09:56Z</time>
      </trkpt>
      <trkpt lat="44.10213" lon="6.39689">
        <ele>1323.4</ele>
        <time>2021-09-11T15:09:58Z</time>
      </trkpt>
      <trkpt lat="44.10208" lon="6.39687">
        <ele>1322.4</ele>
        <time>2021-09-11T15:09:59Z</time>
      </trkpt>
      <trkpt lat="44.10202" lon="6.39686">
        <ele>1321.2</ele>
        <time>2021-09-11T15:10:00Z</time>
      </trkpt>
      <trkpt lat="44.10197" lon="6.39686">
        <ele>1320.2</ele>
        <time>2021-09-11T15:10:01Z</time>
      </trkpt>
      <trkpt lat="44.10193" lon="6.39686">
        <ele>1319.1</ele>
        <time>2021-09-11T15:10:02Z</time>
      </trkpt>
      <trkpt lat="44.10186" lon="6.39684">
        <ele>1318.2</ele>
        <time>2021-09-11T15:10:04Z</time>
      </trkpt>
      <trkpt lat="44.10183" lon="6.39682">
        <ele>1317.7</ele>
        <time>2021-09-11T15:10:05Z</time>
      </trkpt>
      <trkpt lat="44.10181" lon="6.39682">
        <ele>1317.4</ele>
        <time>2021-09-11T15:10:06Z</time>
      </trkpt>
      <trkpt lat="44.1018" lon="6.39682">
        <ele>1317.2</ele>
        <time>2021-09-11T15:10:07Z</time>
      </trkpt>
      <trkpt lat="44.10179" lon="6.39681">
        <ele>1317</ele>
        <time>2021-09-11T15:10:08Z</time>
      </trkpt>
      <trkpt lat="44.1018" lon="6.39681">
        <ele>1316.8</ele>
        <time>2021-09-11T15:10:10Z</time>
      </trkpt>
      <trkpt lat="44.10182" lon="6.39681">
        <ele>1316.5</ele>
        <time>2021-09-11T15:10:12Z</time>
      </trkpt>
      <trkpt lat="44.10182" lon="6.3968">
        <ele>1316.4</ele>
        <time>2021-09-11T15:10:13Z</time>
      </trkpt>
      <trkpt lat="44.10183" lon="6.3968">
        <ele>1316.3</ele>
        <time>2021-09-11T15:10:14Z</time>
      </trkpt>
      <trkpt lat="44.1018" lon="6.39675">
        <ele>1315.6</ele>
        <time>2021-09-11T15:10:16Z</time>
      </trkpt>
      <trkpt lat="44.10178" lon="6.39673">
        <ele>1315</ele>
        <time>2021-09-11T15:10:18Z</time>
      </trkpt>
      <trkpt lat="44.10175" lon="6.3967">
        <ele>1314.4</ele>
        <time>2021-09-11T15:10:19Z</time>
      </trkpt>
      <trkpt lat="44.10167" lon="6.39664">
        <ele>1312.7</ele>
        <time>2021-09-11T15:10:20Z</time>
      </trkpt>
      <trkpt lat="44.1015" lon="6.39652">
        <ele>1310.4</ele>
        <time>2021-09-11T15:10:22Z</time>
      </trkpt>
      <trkpt lat="44.10143" lon="6.39649">
        <ele>1309.7</ele>
        <time>2021-09-11T15:10:23Z</time>
      </trkpt>
      <trkpt lat="44.10137" lon="6.39648">
        <ele>1309</ele>
        <time>2021-09-11T15:10:24Z</time>
      </trkpt>
      <trkpt lat="44.10132" lon="6.39647">
        <ele>1308.5</ele>
        <time>2021-09-11T15:10:25Z</time>
      </trkpt>
      <trkpt lat="44.10128" lon="6.39647">
        <ele>1308.1</ele>
        <time>2021-09-11T15:10:26Z</time>
      </trkpt>
      <trkpt lat="44.10124" lon="6.39651">
        <ele>1307.6</ele>
        <time>2021-09-11T15:10:28Z</time>
      </trkpt>
      <trkpt lat="44.10121" lon="6.39651">
        <ele>1307.3</ele>
        <time>2021-09-11T15:10:29Z</time>
      </trkpt>
      <trkpt lat="44.10116" lon="6.39651">
        <ele>1306.8</ele>
        <time>2021-09-11T15:10:30Z</time>
      </trkpt>
      <trkpt lat="44.10108" lon="6.3965">
        <ele>1306.1</ele>
        <time>2021-09-11T15:10:31Z</time>
      </trkpt>
      <trkpt lat="44.10104" lon="6.39651">
        <ele>1305.6</ele>
        <time>2021-09-11T15:10:32Z</time>
      </trkpt>
      <trkpt lat="44.101" lon="6.39648">
        <ele>1305.2</ele>
        <time>2021-09-11T15:10:33Z</time>
      </trkpt>
      <trkpt lat="44.10095" lon="6.39645">
        <ele>1304.8</ele>
        <time>2021-09-11T15:10:35Z</time>
      </trkpt>
      <trkpt lat="44.1009" lon="6.39645">
        <ele>1304.3</ele>
        <time>2021-09-11T15:10:36Z</time>
      </trkpt>
      <trkpt lat="44.10085" lon="6.39646">
        <ele>1303.8</ele>
        <time>2021-09-11T15:10:37Z</time>
      </trkpt>
      <trkpt lat="44.10079" lon="6.39645">
        <ele>1303</ele>
        <time>2021-09-11T15:10:38Z</time>
      </trkpt>
      <trkpt lat="44.10072" lon="6.39642">
        <ele>1302.1</ele>
        <time>2021-09-11T15:10:40Z</time>
      </trkpt>
      <trkpt lat="44.10066" lon="6.39641">
        <ele>1301.3</ele>
        <time>2021-09-11T15:10:41Z</time>
      </trkpt>
      <trkpt lat="44.10056" lon="6.39643">
        <ele>1300</ele>
        <time>2021-09-11T15:10:43Z</time>
      </trkpt>
      <trkpt lat="44.10052" lon="6.39643">
        <ele>1299.5</ele>
        <time>2021-09-11T15:10:45Z</time>
      </trkpt>
      <trkpt lat="44.1005" lon="6.39644">
        <ele>1299.2</ele>
        <time>2021-09-11T15:10:46Z</time>
      </trkpt>
      <trkpt lat="44.10048" lon="6.39645">
        <ele>1298.9</ele>
        <time>2021-09-11T15:10:47Z</time>
      </trkpt>
      <trkpt lat="44.10047" lon="6.39646">
        <ele>1298.8</ele>
        <time>2021-09-11T15:10:49Z</time>
      </trkpt>
      <trkpt lat="44.10048" lon="6.39645">
        <ele>1298.7</ele>
        <time>2021-09-11T15:10:50Z</time>
      </trkpt>
      <trkpt lat="44.10048" lon="6.39645">
        <ele>1298.7</ele>
        <time>2021-09-11T15:10:52Z</time>
      </trkpt>
      <trkpt lat="44.10048" lon="6.39645">
        <ele>1298.7</ele>
        <time>2021-09-11T15:10:53Z</time>
      </trkpt>
      <trkpt lat="44.10048" lon="6.39646">
        <ele>1298.6</ele>
        <time>2021-09-11T15:10:55Z</time>
      </trkpt>
      <trkpt lat="44.10048" lon="6.39646">
        <ele>1298.6</ele>
        <time>2021-09-11T15:10:57Z</time>
      </trkpt>
      <trkpt lat="44.10041" lon="6.39643">
        <ele>1297.4</ele>
        <time>2021-09-11T15:11:03Z</time>
      </trkpt>
      <trkpt lat="44.10037" lon="6.3964">
        <ele>1296.5</ele>
        <time>2021-09-11T15:11:05Z</time>
      </trkpt>
      <trkpt lat="44.10036" lon="6.39639">
        <ele>1296.4</ele>
        <time>2021-09-11T15:11:06Z</time>
      </trkpt>
      <trkpt lat="44.1003" lon="6.39632">
        <ele>1295.1</ele>
        <time>2021-09-11T15:11:08Z</time>
      </trkpt>
      <trkpt lat="44.1003" lon="6.39632">
        <ele>1295</ele>
        <time>2021-09-11T15:11:09Z</time>
      </trkpt>
      <trkpt lat="44.10029" lon="6.39631">
        <ele>1295</ele>
        <time>2021-09-11T15:11:10Z</time>
      </trkpt>
      <trkpt lat="44.10029" lon="6.39631">
        <ele>1294.9</ele>
        <time>2021-09-11T15:11:11Z</time>
      </trkpt>
      <trkpt lat="44.10029" lon="6.39631">
        <ele>1294.9</ele>
        <time>2021-09-11T15:11:13Z</time>
      </trkpt>
      <trkpt lat="44.10029" lon="6.39631">
        <ele>1294.8</ele>
        <time>2021-09-11T15:11:14Z</time>
      </trkpt>
      <trkpt lat="44.10028" lon="6.39631">
        <ele>1294.8</ele>
        <time>2021-09-11T15:11:15Z</time>
      </trkpt>
      <trkpt lat="44.10028" lon="6.3963">
        <ele>1294.8</ele>
        <time>2021-09-11T15:11:17Z</time>
      </trkpt>
      <trkpt lat="44.10028" lon="6.3963">
        <ele>1294.7</ele>
        <time>2021-09-11T15:11:18Z</time>
      </trkpt>
      <trkpt lat="44.10026" lon="6.39629">
        <ele>1294.4</ele>
        <time>2021-09-11T15:11:19Z</time>
      </trkpt>
      <trkpt lat="44.10025" lon="6.39628">
        <ele>1294.2</ele>
        <time>2021-09-11T15:11:21Z</time>
      </trkpt>
      <trkpt lat="44.10022" lon="6.39626">
        <ele>1293.8</ele>
        <time>2021-09-11T15:11:22Z</time>
      </trkpt>
      <trkpt lat="44.10015" lon="6.39622">
        <ele>1292.7</ele>
        <time>2021-09-11T15:11:23Z</time>
      </trkpt>
      <trkpt lat="44.10007" lon="6.39615">
        <ele>1290.9</ele>
        <time>2021-09-11T15:11:24Z</time>
      </trkpt>
      <trkpt lat="44.1" lon="6.39609">
        <ele>1288.8</ele>
        <time>2021-09-11T15:11:26Z</time>
      </trkpt>
      <trkpt lat="44.09995" lon="6.39604">
        <ele>1287.3</ele>
        <time>2021-09-11T15:11:27Z</time>
      </trkpt>
      <trkpt lat="44.09988" lon="6.39598">
        <ele>1285.8</ele>
        <time>2021-09-11T15:11:28Z</time>
      </trkpt>
      <trkpt lat="44.09984" lon="6.39594">
        <ele>1285.1</ele>
        <time>2021-09-11T15:11:29Z</time>
      </trkpt>
      <trkpt lat="44.0998" lon="6.39587">
        <ele>1284.3</ele>
        <time>2021-09-11T15:11:31Z</time>
      </trkpt>
      <trkpt lat="44.09977" lon="6.39581">
        <ele>1283.9</ele>
        <time>2021-09-11T15:11:32Z</time>
      </trkpt>
      <trkpt lat="44.09967" lon="6.39576">
        <ele>1283.2</ele>
        <time>2021-09-11T15:11:34Z</time>
      </trkpt>
      <trkpt lat="44.09961" lon="6.39572">
        <ele>1283</ele>
        <time>2021-09-11T15:11:35Z</time>
      </trkpt>
      <trkpt lat="44.09952" lon="6.39562">
        <ele>1282.8</ele>
        <time>2021-09-11T15:11:37Z</time>
      </trkpt>
      <trkpt lat="44.09949" lon="6.39556">
        <ele>1282.6</ele>
        <time>2021-09-11T15:11:38Z</time>
      </trkpt>
      <trkpt lat="44.09942" lon="6.39544">
        <ele>1281.8</ele>
        <time>2021-09-11T15:11:40Z</time>
      </trkpt>
      <trkpt lat="44.09939" lon="6.39539">
        <ele>1281.1</ele>
        <time>2021-09-11T15:11:41Z</time>
      </trkpt>
      <trkpt lat="44.09935" lon="6.39538">
        <ele>1280.5</ele>
        <time>2021-09-11T15:11:42Z</time>
      </trkpt>
      <trkpt lat="44.09923" lon="6.39535">
        <ele>1278.4</ele>
        <time>2021-09-11T15:11:44Z</time>
      </trkpt>
      <trkpt lat="44.0991" lon="6.39537">
        <ele>1276.1</ele>
        <time>2021-09-11T15:11:46Z</time>
      </trkpt>
      <trkpt lat="44.09898" lon="6.39539">
        <ele>1274.1</ele>
        <time>2021-09-11T15:11:48Z</time>
      </trkpt>
      <trkpt lat="44.09887" lon="6.3954">
        <ele>1272.4</ele>
        <time>2021-09-11T15:11:50Z</time>
      </trkpt>
      <trkpt lat="44.09877" lon="6.3954">
        <ele>1270.9</ele>
        <time>2021-09-11T15:11:52Z</time>
      </trkpt>
      <trkpt lat="44.09871" lon="6.39539">
        <ele>1270.1</ele>
        <time>2021-09-11T15:11:53Z</time>
      </trkpt>
      <trkpt lat="44.09861" lon="6.39536">
        <ele>1269.7</ele>
        <time>2021-09-11T15:11:55Z</time>
      </trkpt>
      <trkpt lat="44.09854" lon="6.39535">
        <ele>1269.5</ele>
        <time>2021-09-11T15:11:56Z</time>
      </trkpt>
      <trkpt lat="44.0984" lon="6.39531">
        <ele>1269</ele>
        <time>2021-09-11T15:11:58Z</time>
      </trkpt>
      <trkpt lat="44.09824" lon="6.39526">
        <ele>1268.4</ele>
        <time>2021-09-11T15:12:00Z</time>
      </trkpt>
      <trkpt lat="44.09816" lon="6.39524">
        <ele>1268.2</ele>
        <time>2021-09-11T15:12:01Z</time>
      </trkpt>
      <trkpt lat="44.09808" lon="6.39522">
        <ele>1268.1</ele>
        <time>2021-09-11T15:12:02Z</time>
      </trkpt>
      <trkpt lat="44.09801" lon="6.3952">
        <ele>1268</ele>
        <time>2021-09-11T15:12:03Z</time>
      </trkpt>
      <trkpt lat="44.0979" lon="6.39516">
        <ele>1268.1</ele>
        <time>2021-09-11T15:12:05Z</time>
      </trkpt>
      <trkpt lat="44.09785" lon="6.39514">
        <ele>1268.1</ele>
        <time>2021-09-11T15:12:06Z</time>
      </trkpt>
      <trkpt lat="44.09779" lon="6.39511">
        <ele>1268.1</ele>
        <time>2021-09-11T15:12:08Z</time>
      </trkpt>
      <trkpt lat="44.09771" lon="6.39511">
        <ele>1268</ele>
        <time>2021-09-11T15:12:10Z</time>
      </trkpt>
      <trkpt lat="44.09767" lon="6.39511">
        <ele>1268</ele>
        <time>2021-09-11T15:12:11Z</time>
      </trkpt>
      <trkpt lat="44.09759" lon="6.39507">
        <ele>1267.8</ele>
        <time>2021-09-11T15:12:13Z</time>
      </trkpt>
      <trkpt lat="44.09759" lon="6.39503">
        <ele>1267.8</ele>
        <time>2021-09-11T15:12:15Z</time>
      </trkpt>
      <trkpt lat="44.09756" lon="6.39499">
        <ele>1267.7</ele>
        <time>2021-09-11T15:12:16Z</time>
      </trkpt>
      <trkpt lat="44.09753" lon="6.39495">
        <ele>1267.7</ele>
        <time>2021-09-11T15:12:17Z</time>
      </trkpt>
      <trkpt lat="44.0975" lon="6.39489">
        <ele>1267.6</ele>
        <time>2021-09-11T15:12:19Z</time>
      </trkpt>
      <trkpt lat="44.09746" lon="6.39481">
        <ele>1267.5</ele>
        <time>2021-09-11T15:12:20Z</time>
      </trkpt>
      <trkpt lat="44.09742" lon="6.39474">
        <ele>1267.4</ele>
        <time>2021-09-11T15:12:22Z</time>
      </trkpt>
      <trkpt lat="44.09739" lon="6.39469">
        <ele>1267.3</ele>
        <time>2021-09-11T15:12:23Z</time>
      </trkpt>
      <trkpt lat="44.09737" lon="6.39465">
        <ele>1267.3</ele>
        <time>2021-09-11T15:12:24Z</time>
      </trkpt>
      <trkpt lat="44.09733" lon="6.39461">
        <ele>1267.2</ele>
        <time>2021-09-11T15:12:26Z</time>
      </trkpt>
      <trkpt lat="44.0973" lon="6.39457">
        <ele>1267.1</ele>
        <time>2021-09-11T15:12:27Z</time>
      </trkpt>
      <trkpt lat="44.09729" lon="6.39455">
        <ele>1267</ele>
        <time>2021-09-11T15:12:29Z</time>
      </trkpt>
      <trkpt lat="44.09727" lon="6.39454">
        <ele>1267</ele>
        <time>2021-09-11T15:12:31Z</time>
      </trkpt>
      <trkpt lat="44.09726" lon="6.39452">
        <ele>1266.9</ele>
        <time>2021-09-11T15:12:32Z</time>
      </trkpt>
      <trkpt lat="44.09724" lon="6.39451">
        <ele>1266.9</ele>
        <time>2021-09-11T15:12:33Z</time>
      </trkpt>
      <trkpt lat="44.09723" lon="6.39449">
        <ele>1266.8</ele>
        <time>2021-09-11T15:12:34Z</time>
      </trkpt>
      <trkpt lat="44.09721" lon="6.39447">
        <ele>1266.8</ele>
        <time>2021-09-11T15:12:35Z</time>
      </trkpt>
      <trkpt lat="44.0972" lon="6.39446">
        <ele>1266.7</ele>
        <time>2021-09-11T15:12:37Z</time>
      </trkpt>
      <trkpt lat="44.09718" lon="6.39444">
        <ele>1266.7</ele>
        <time>2021-09-11T15:13:34Z</time>
      </trkpt>
      <trkpt lat="44.09717" lon="6.39443">
        <ele>1266.6</ele>
        <time>2021-09-11T15:13:35Z</time>
      </trkpt>
      <trkpt lat="44.0971" lon="6.3944">
        <ele>1266.3</ele>
        <time>2021-09-11T15:13:36Z</time>
      </trkpt>
      <trkpt lat="44.09698" lon="6.39435">
        <ele>1265.9</ele>
        <time>2021-09-11T15:13:38Z</time>
      </trkpt>
      <trkpt lat="44.09682" lon="6.39426">
        <ele>1265.4</ele>
        <time>2021-09-11T15:13:39Z</time>
      </trkpt>
      <trkpt lat="44.09674" lon="6.39421">
        <ele>1265.2</ele>
        <time>2021-09-11T15:13:40Z</time>
      </trkpt>
      <trkpt lat="44.09657" lon="6.39412">
        <ele>1264.8</ele>
        <time>2021-09-11T15:13:42Z</time>
      </trkpt>
      <trkpt lat="44.0965" lon="6.39407">
        <ele>1264.7</ele>
        <time>2021-09-11T15:13:43Z</time>
      </trkpt>
      <trkpt lat="44.09644" lon="6.39401">
        <ele>1264.7</ele>
        <time>2021-09-11T15:13:44Z</time>
      </trkpt>
      <trkpt lat="44.09635" lon="6.39394">
        <ele>1264.8</ele>
        <time>2021-09-11T15:13:46Z</time>
      </trkpt>
      <trkpt lat="44.09631" lon="6.3939">
        <ele>1264.9</ele>
        <time>2021-09-11T15:13:47Z</time>
      </trkpt>
      <trkpt lat="44.09627" lon="6.39386">
        <ele>1264.9</ele>
        <time>2021-09-11T15:13:48Z</time>
      </trkpt>
      <trkpt lat="44.09627" lon="6.39383">
        <ele>1264.9</ele>
        <time>2021-09-11T15:13:50Z</time>
      </trkpt>
      <trkpt lat="44.09625" lon="6.39383">
        <ele>1264.9</ele>
        <time>2021-09-11T15:13:51Z</time>
      </trkpt>
      <trkpt lat="44.09624" lon="6.39383">
        <ele>1264.9</ele>
        <time>2021-09-11T15:13:52Z</time>
      </trkpt>
      <trkpt lat="44.09623" lon="6.39384">
        <ele>1264.9</ele>
        <time>2021-09-11T15:13:54Z</time>
      </trkpt>
      <trkpt lat="44.09622" lon="6.39384">
        <ele>1264.9</ele>
        <time>2021-09-11T15:13:55Z</time>
      </trkpt>
      <trkpt lat="44.09622" lon="6.39384">
        <ele>1264.9</ele>
        <time>2021-09-11T15:13:56Z</time>
      </trkpt>
      <trkpt lat="44.09622" lon="6.39384">
        <ele>1264.9</ele>
        <time>2021-09-11T15:13:58Z</time>
      </trkpt>
      <trkpt lat="44.09621" lon="6.39384">
        <ele>1264.9</ele>
        <time>2021-09-11T15:14:00Z</time>
      </trkpt>
      <trkpt lat="44.09621" lon="6.39384">
        <ele>1264.9</ele>
        <time>2021-09-11T15:14:02Z</time>
      </trkpt>
      <trkpt lat="44.09621" lon="6.39384">
        <ele>1264.9</ele>
        <time>2021-09-11T15:14:30Z</time>
      </trkpt>
      <trkpt lat="44.0962" lon="6.39384">
        <ele>1264.9</ele>
        <time>2021-09-11T15:14:35Z</time>
      </trkpt>
      <trkpt lat="44.0962" lon="6.39384">
        <ele>1264.9</ele>
        <time>2021-09-11T15:14:37Z</time>
      </trkpt>
      <trkpt lat="44.0962" lon="6.39384">
        <ele>1264.9</ele>
        <time>2021-09-11T15:14:39Z</time>
      </trkpt>
      <trkpt lat="44.09619" lon="6.39385">
        <ele>1264.9</ele>
        <time>2021-09-11T15:14:40Z</time>
      </trkpt>
      <trkpt lat="44.09617" lon="6.39388">
        <ele>1264.8</ele>
        <time>2021-09-11T15:14:41Z</time>
      </trkpt>
      <trkpt lat="44.09613" lon="6.3939">
        <ele>1264.8</ele>
        <time>2021-09-11T15:14:42Z</time>
      </trkpt>
      <trkpt lat="44.09612" lon="6.39391">
        <ele>1264.8</ele>
        <time>2021-09-11T15:14:43Z</time>
      </trkpt>
      <trkpt lat="44.09611" lon="6.39391">
        <ele>1264.8</ele>
        <time>2021-09-11T15:14:46Z</time>
      </trkpt>
      <trkpt lat="44.09587" lon="6.39339">
        <ele>1254.7</ele>
        <time>2021-09-11T15:15:08Z</time>
      </trkpt>
      <trkpt lat="44.09585" lon="6.39337">
        <ele>1254.2</ele>
        <time>2021-09-11T15:15:10Z</time>
      </trkpt>
      <trkpt lat="44.09585" lon="6.39337">
        <ele>1254.1</ele>
        <time>2021-09-11T15:15:12Z</time>
      </trkpt>
      <trkpt lat="44.09584" lon="6.39338">
        <ele>1253.9</ele>
        <time>2021-09-11T15:15:14Z</time>
      </trkpt>
      <trkpt lat="44.09583" lon="6.39338">
        <ele>1253.8</ele>
        <time>2021-09-11T15:15:16Z</time>
      </trkpt>
      <trkpt lat="44.09585" lon="6.39329">
        <ele>1252.6</ele>
        <time>2021-09-11T15:15:18Z</time>
      </trkpt>
      <trkpt lat="44.09587" lon="6.39319">
        <ele>1251.1</ele>
        <time>2021-09-11T15:15:20Z</time>
      </trkpt>
      <trkpt lat="44.09588" lon="6.39317">
        <ele>1250.8</ele>
        <time>2021-09-11T15:15:22Z</time>
      </trkpt>
      <trkpt lat="44.09586" lon="6.39329">
        <ele>1248.9</ele>
        <time>2021-09-11T15:15:24Z</time>
      </trkpt>
      <trkpt lat="44.09585" lon="6.39331">
        <ele>1248.6</ele>
        <time>2021-09-11T15:15:26Z</time>
      </trkpt>
      <trkpt lat="44.09585" lon="6.39331">
        <ele>1248.5</ele>
        <time>2021-09-11T15:15:27Z</time>
      </trkpt>
      <trkpt lat="44.09585" lon="6.39331">
        <ele>1248.5</ele>
        <time>2021-09-11T15:15:28Z</time>
      </trkpt>
      <trkpt lat="44.09585" lon="6.39331">
        <ele>1248.5</ele>
        <time>2021-09-11T15:15:29Z</time>
      </trkpt>
      <trkpt lat="44.09585" lon="6.39331">
        <ele>1248.4</ele>
        <time>2021-09-11T15:15:30Z</time>
      </trkpt>
      <trkpt lat="44.09586" lon="6.3933">
        <ele>1248.1</ele>
        <time>2021-09-11T15:15:32Z</time>
      </trkpt>
      <trkpt lat="44.09587" lon="6.39329">
        <ele>1247.9</ele>
        <time>2021-09-11T15:15:34Z</time>
      </trkpt>
      <trkpt lat="44.09587" lon="6.39327">
        <ele>1247.6</ele>
        <time>2021-09-11T15:15:35Z</time>
      </trkpt>
      <trkpt lat="44.09587" lon="6.39325">
        <ele>1247.2</ele>
        <time>2021-09-11T15:15:36Z</time>
      </trkpt>
      <trkpt lat="44.09587" lon="6.39322">
        <ele>1246.8</ele>
        <time>2021-09-11T15:15:37Z</time>
      </trkpt>
      <trkpt lat="44.09587" lon="6.3932">
        <ele>1246.3</ele>
        <time>2021-09-11T15:15:39Z</time>
      </trkpt>
      <trkpt lat="44.09584" lon="6.39315">
        <ele>1245.4</ele>
        <time>2021-09-11T15:15:40Z</time>
      </trkpt>
      <trkpt lat="44.09583" lon="6.39311">
        <ele>1244.6</ele>
        <time>2021-09-11T15:15:41Z</time>
      </trkpt>
      <trkpt lat="44.09559" lon="6.39271">
        <ele>1235.9</ele>
        <time>2021-09-11T15:15:42Z</time>
      </trkpt>
      <trkpt lat="44.09549" lon="6.39264">
        <ele>1233.3</ele>
        <time>2021-09-11T15:15:44Z</time>
      </trkpt>
      <trkpt lat="44.09535" lon="6.3926">
        <ele>1229.6</ele>
        <time>2021-09-11T15:15:46Z</time>
      </trkpt>
      <trkpt lat="44.09528" lon="6.39258">
        <ele>1227.9</ele>
        <time>2021-09-11T15:15:47Z</time>
      </trkpt>
      <trkpt lat="44.09522" lon="6.39256">
        <ele>1226.4</ele>
        <time>2021-09-11T15:15:48Z</time>
      </trkpt>
      <trkpt lat="44.09515" lon="6.39255">
        <ele>1224.8</ele>
        <time>2021-09-11T15:15:49Z</time>
      </trkpt>
      <trkpt lat="44.09508" lon="6.39254">
        <ele>1223.3</ele>
        <time>2021-09-11T15:15:50Z</time>
      </trkpt>
      <trkpt lat="44.09494" lon="6.39255">
        <ele>1219.6</ele>
        <time>2021-09-11T15:15:52Z</time>
      </trkpt>
      <trkpt lat="44.09481" lon="6.39254">
        <ele>1215.7</ele>
        <time>2021-09-11T15:15:54Z</time>
      </trkpt>
      <trkpt lat="44.09468" lon="6.39255">
        <ele>1212.1</ele>
        <time>2021-09-11T15:15:56Z</time>
      </trkpt>
      <trkpt lat="44.09462" lon="6.39257">
        <ele>1210.4</ele>
        <time>2021-09-11T15:15:57Z</time>
      </trkpt>
      <trkpt lat="44.09449" lon="6.39262">
        <ele>1206.8</ele>
        <time>2021-09-11T15:15:59Z</time>
      </trkpt>
      <trkpt lat="44.09435" lon="6.39268">
        <ele>1202.9</ele>
        <time>2021-09-11T15:16:01Z</time>
      </trkpt>
      <trkpt lat="44.0943" lon="6.3927">
        <ele>1201.2</ele>
        <time>2021-09-11T15:16:02Z</time>
      </trkpt>
      <trkpt lat="44.09418" lon="6.39271">
        <ele>1197.9</ele>
        <time>2021-09-11T15:16:04Z</time>
      </trkpt>
      <trkpt lat="44.09403" lon="6.39267">
        <ele>1193.6</ele>
        <time>2021-09-11T15:16:06Z</time>
      </trkpt>
      <trkpt lat="44.09395" lon="6.39264">
        <ele>1191.3</ele>
        <time>2021-09-11T15:16:07Z</time>
      </trkpt>
      <trkpt lat="44.09388" lon="6.3926">
        <ele>1189.9</ele>
        <time>2021-09-11T15:16:08Z</time>
      </trkpt>
      <trkpt lat="44.09382" lon="6.39256">
        <ele>1188.8</ele>
        <time>2021-09-11T15:16:09Z</time>
      </trkpt>
      <trkpt lat="44.09372" lon="6.39252">
        <ele>1186.9</ele>
        <time>2021-09-11T15:16:11Z</time>
      </trkpt>
      <trkpt lat="44.09368" lon="6.39253">
        <ele>1186.2</ele>
        <time>2021-09-11T15:16:12Z</time>
      </trkpt>
      <trkpt lat="44.09365" lon="6.39253">
        <ele>1185.6</ele>
        <time>2021-09-11T15:16:13Z</time>
      </trkpt>
      <trkpt lat="44.09355" lon="6.39252">
        <ele>1183.7</ele>
        <time>2021-09-11T15:16:15Z</time>
      </trkpt>
      <trkpt lat="44.09346" lon="6.39247">
        <ele>1181.8</ele>
        <time>2021-09-11T15:16:17Z</time>
      </trkpt>
      <trkpt lat="44.09336" lon="6.39241">
        <ele>1180.2</ele>
        <time>2021-09-11T15:16:19Z</time>
      </trkpt>
      <trkpt lat="44.09322" lon="6.39238">
        <ele>1178.4</ele>
        <time>2021-09-11T15:16:21Z</time>
      </trkpt>
      <trkpt lat="44.09311" lon="6.39237">
        <ele>1176.8</ele>
        <time>2021-09-11T15:16:23Z</time>
      </trkpt>
      <trkpt lat="44.09306" lon="6.39235">
        <ele>1176.1</ele>
        <time>2021-09-11T15:16:24Z</time>
      </trkpt>
      <trkpt lat="44.093" lon="6.39233">
        <ele>1175.4</ele>
        <time>2021-09-11T15:16:25Z</time>
      </trkpt>
      <trkpt lat="44.09295" lon="6.3923">
        <ele>1174.7</ele>
        <time>2021-09-11T15:16:26Z</time>
      </trkpt>
      <trkpt lat="44.09286" lon="6.39225">
        <ele>1173.5</ele>
        <time>2021-09-11T15:16:28Z</time>
      </trkpt>
      <trkpt lat="44.09282" lon="6.39223">
        <ele>1173</ele>
        <time>2021-09-11T15:16:29Z</time>
      </trkpt>
      <trkpt lat="44.09276" lon="6.39222">
        <ele>1172.3</ele>
        <time>2021-09-11T15:16:31Z</time>
      </trkpt>
      <trkpt lat="44.09272" lon="6.39221">
        <ele>1171.9</ele>
        <time>2021-09-11T15:16:32Z</time>
      </trkpt>
      <trkpt lat="44.09263" lon="6.39221">
        <ele>1171.2</ele>
        <time>2021-09-11T15:16:34Z</time>
      </trkpt>
      <trkpt lat="44.09259" lon="6.39221">
        <ele>1170.9</ele>
        <time>2021-09-11T15:16:35Z</time>
      </trkpt>
      <trkpt lat="44.09256" lon="6.39219">
        <ele>1170.7</ele>
        <time>2021-09-11T15:16:37Z</time>
      </trkpt>
      <trkpt lat="44.09253" lon="6.39218">
        <ele>1170.6</ele>
        <time>2021-09-11T15:16:38Z</time>
      </trkpt>
      <trkpt lat="44.09242" lon="6.39218">
        <ele>1169.8</ele>
        <time>2021-09-11T15:16:39Z</time>
      </trkpt>
      <trkpt lat="44.0923" lon="6.39214">
        <ele>1169</ele>
        <time>2021-09-11T15:16:41Z</time>
      </trkpt>
      <trkpt lat="44.09225" lon="6.39211">
        <ele>1168.5</ele>
        <time>2021-09-11T15:16:42Z</time>
      </trkpt>
      <trkpt lat="44.09221" lon="6.39206">
        <ele>1168.1</ele>
        <time>2021-09-11T15:16:43Z</time>
      </trkpt>
      <trkpt lat="44.09217" lon="6.392">
        <ele>1167.7</ele>
        <time>2021-09-11T15:16:44Z</time>
      </trkpt>
      <trkpt lat="44.09207" lon="6.39194">
        <ele>1166.9</ele>
        <time>2021-09-11T15:16:46Z</time>
      </trkpt>
      <trkpt lat="44.09201" lon="6.39194">
        <ele>1166.5</ele>
        <time>2021-09-11T15:16:47Z</time>
      </trkpt>
      <trkpt lat="44.09194" lon="6.39194">
        <ele>1166</ele>
        <time>2021-09-11T15:16:48Z</time>
      </trkpt>
      <trkpt lat="44.09181" lon="6.39196">
        <ele>1165</ele>
        <time>2021-09-11T15:16:50Z</time>
      </trkpt>
      <trkpt lat="44.09174" lon="6.39196">
        <ele>1164.5</ele>
        <time>2021-09-11T15:16:51Z</time>
      </trkpt>
      <trkpt lat="44.09161" lon="6.39197">
        <ele>1163.6</ele>
        <time>2021-09-11T15:16:53Z</time>
      </trkpt>
      <trkpt lat="44.09148" lon="6.39201">
        <ele>1162.6</ele>
        <time>2021-09-11T15:16:55Z</time>
      </trkpt>
      <trkpt lat="44.09141" lon="6.39201">
        <ele>1162</ele>
        <time>2021-09-11T15:16:56Z</time>
      </trkpt>
      <trkpt lat="44.09128" lon="6.39198">
        <ele>1161</ele>
        <time>2021-09-11T15:16:58Z</time>
      </trkpt>
      <trkpt lat="44.09115" lon="6.39195">
        <ele>1160.1</ele>
        <time>2021-09-11T15:17:00Z</time>
      </trkpt>
      <trkpt lat="44.09107" lon="6.39193">
        <ele>1159.6</ele>
        <time>2021-09-11T15:17:02Z</time>
      </trkpt>
      <trkpt lat="44.091" lon="6.39191">
        <ele>1159.1</ele>
        <time>2021-09-11T15:17:04Z</time>
      </trkpt>
      <trkpt lat="44.09096" lon="6.39189">
        <ele>1158.8</ele>
        <time>2021-09-11T15:17:05Z</time>
      </trkpt>
      <trkpt lat="44.09093" lon="6.39187">
        <ele>1158.5</ele>
        <time>2021-09-11T15:17:06Z</time>
      </trkpt>
      <trkpt lat="44.09085" lon="6.39183">
        <ele>1157.6</ele>
        <time>2021-09-11T15:17:08Z</time>
      </trkpt>
      <trkpt lat="44.09076" lon="6.3918">
        <ele>1156.7</ele>
        <time>2021-09-11T15:17:10Z</time>
      </trkpt>
      <trkpt lat="44.09071" lon="6.3918">
        <ele>1156.2</ele>
        <time>2021-09-11T15:17:11Z</time>
      </trkpt>
      <trkpt lat="44.09066" lon="6.39182">
        <ele>1155.9</ele>
        <time>2021-09-11T15:17:12Z</time>
      </trkpt>
      <trkpt lat="44.09057" lon="6.39179">
        <ele>1155.4</ele>
        <time>2021-09-11T15:17:14Z</time>
      </trkpt>
      <trkpt lat="44.0905" lon="6.39175">
        <ele>1155.2</ele>
        <time>2021-09-11T15:17:15Z</time>
      </trkpt>
      <trkpt lat="44.09048" lon="6.39169">
        <ele>1155.1</ele>
        <time>2021-09-11T15:17:17Z</time>
      </trkpt>
      <trkpt lat="44.09042" lon="6.39161">
        <ele>1154.9</ele>
        <time>2021-09-11T15:17:19Z</time>
      </trkpt>
      <trkpt lat="44.0904" lon="6.39153">
        <ele>1154.7</ele>
        <time>2021-09-11T15:17:20Z</time>
      </trkpt>
      <trkpt lat="44.09041" lon="6.39144">
        <ele>1154.4</ele>
        <time>2021-09-11T15:17:21Z</time>
      </trkpt>
      <trkpt lat="44.09041" lon="6.39136">
        <ele>1154.1</ele>
        <time>2021-09-11T15:17:22Z</time>
      </trkpt>
      <trkpt lat="44.09042" lon="6.3913">
        <ele>1154</ele>
        <time>2021-09-11T15:17:24Z</time>
      </trkpt>
      <trkpt lat="44.09042" lon="6.39123">
        <ele>1153.7</ele>
        <time>2021-09-11T15:17:25Z</time>
      </trkpt>
      <trkpt lat="44.0904" lon="6.39111">
        <ele>1153.2</ele>
        <time>2021-09-11T15:17:26Z</time>
      </trkpt>
      <trkpt lat="44.09035" lon="6.39094">
        <ele>1152.5</ele>
        <time>2021-09-11T15:17:28Z</time>
      </trkpt>
      <trkpt lat="44.09028" lon="6.39083">
        <ele>1152.1</ele>
        <time>2021-09-11T15:17:30Z</time>
      </trkpt>
      <trkpt lat="44.09023" lon="6.39081">
        <ele>1152.1</ele>
        <time>2021-09-11T15:17:31Z</time>
      </trkpt>
      <trkpt lat="44.0902" lon="6.39078">
        <ele>1152</ele>
        <time>2021-09-11T15:17:32Z</time>
      </trkpt>
      <trkpt lat="44.09016" lon="6.39075">
        <ele>1152</ele>
        <time>2021-09-11T15:17:33Z</time>
      </trkpt>
      <trkpt lat="44.09013" lon="6.39072">
        <ele>1152.1</ele>
        <time>2021-09-11T15:17:34Z</time>
      </trkpt>
      <trkpt lat="44.0901" lon="6.39071">
        <ele>1152.1</ele>
        <time>2021-09-11T15:17:35Z</time>
      </trkpt>
      <trkpt lat="44.09007" lon="6.39071">
        <ele>1152.2</ele>
        <time>2021-09-11T15:17:37Z</time>
      </trkpt>
      <trkpt lat="44.09002" lon="6.39073">
        <ele>1151</ele>
        <time>2021-09-11T15:17:38Z</time>
      </trkpt>
      <trkpt lat="44.08995" lon="6.39075">
        <ele>1149.4</ele>
        <time>2021-09-11T15:17:39Z</time>
      </trkpt>
      <trkpt lat="44.08981" lon="6.39078">
        <ele>1145.3</ele>
        <time>2021-09-11T15:17:41Z</time>
      </trkpt>
      <trkpt lat="44.08973" lon="6.39078">
        <ele>1143.5</ele>
        <time>2021-09-11T15:17:42Z</time>
      </trkpt>
      <trkpt lat="44.08967" lon="6.39076">
        <ele>1141.9</ele>
        <time>2021-09-11T15:17:43Z</time>
      </trkpt>
      <trkpt lat="44.08957" lon="6.39073">
        <ele>1139</ele>
        <time>2021-09-11T15:17:45Z</time>
      </trkpt>
      <trkpt lat="44.08946" lon="6.39066">
        <ele>1135.9</ele>
        <time>2021-09-11T15:17:47Z</time>
      </trkpt>
      <trkpt lat="44.08942" lon="6.39061">
        <ele>1134.5</ele>
        <time>2021-09-11T15:17:48Z</time>
      </trkpt>
      <trkpt lat="44.08935" lon="6.3905">
        <ele>1131.3</ele>
        <time>2021-09-11T15:17:50Z</time>
      </trkpt>
      <trkpt lat="44.0893" lon="6.39038">
        <ele>1128.2</ele>
        <time>2021-09-11T15:17:52Z</time>
      </trkpt>
      <trkpt lat="44.08927" lon="6.39033">
        <ele>1127.1</ele>
        <time>2021-09-11T15:17:53Z</time>
      </trkpt>
      <trkpt lat="44.08926" lon="6.39029">
        <ele>1126.2</ele>
        <time>2021-09-11T15:17:54Z</time>
      </trkpt>
      <trkpt lat="44.08921" lon="6.39017">
        <ele>1123.2</ele>
        <time>2021-09-11T15:17:56Z</time>
      </trkpt>
      <trkpt lat="44.08913" lon="6.39003">
        <ele>1119.2</ele>
        <time>2021-09-11T15:17:58Z</time>
      </trkpt>
      <trkpt lat="44.08909" lon="6.38996">
        <ele>1117.2</ele>
        <time>2021-09-11T15:17:59Z</time>
      </trkpt>
      <trkpt lat="44.08897" lon="6.3898">
        <ele>1112.7</ele>
        <time>2021-09-11T15:18:01Z</time>
      </trkpt>
      <trkpt lat="44.08891" lon="6.3897">
        <ele>1110.4</ele>
        <time>2021-09-11T15:18:02Z</time>
      </trkpt>
      <trkpt lat="44.08879" lon="6.38949">
        <ele>1106.3</ele>
        <time>2021-09-11T15:18:04Z</time>
      </trkpt>
      <trkpt lat="44.08868" lon="6.38929">
        <ele>1103.5</ele>
        <time>2021-09-11T15:18:06Z</time>
      </trkpt>
      <trkpt lat="44.08855" lon="6.38917">
        <ele>1101.7</ele>
        <time>2021-09-11T15:18:08Z</time>
      </trkpt>
      <trkpt lat="44.08842" lon="6.38913">
        <ele>1100.2</ele>
        <time>2021-09-11T15:18:10Z</time>
      </trkpt>
      <trkpt lat="44.08837" lon="6.38913">
        <ele>1099.4</ele>
        <time>2021-09-11T15:18:11Z</time>
      </trkpt>
      <trkpt lat="44.08831" lon="6.38912">
        <ele>1098.6</ele>
        <time>2021-09-11T15:18:12Z</time>
      </trkpt>
      <trkpt lat="44.08826" lon="6.38912">
        <ele>1098</ele>
        <time>2021-09-11T15:18:13Z</time>
      </trkpt>
      <trkpt lat="44.08822" lon="6.38912">
        <ele>1098</ele>
        <time>2021-09-11T15:18:14Z</time>
      </trkpt>
      <trkpt lat="44.08812" lon="6.38906">
        <ele>1094.5</ele>
        <time>2021-09-11T15:18:16Z</time>
      </trkpt>
      <trkpt lat="44.08806" lon="6.38898">
        <ele>1093.5</ele>
        <time>2021-09-11T15:18:18Z</time>
      </trkpt>
      <trkpt lat="44.08802" lon="6.38895">
        <ele>1093.2</ele>
        <time>2021-09-11T15:18:19Z</time>
      </trkpt>
      <trkpt lat="44.08799" lon="6.38893">
        <ele>1093</ele>
        <time>2021-09-11T15:18:20Z</time>
      </trkpt>
      <trkpt lat="44.08794" lon="6.38885">
        <ele>1092.5</ele>
        <time>2021-09-11T15:18:22Z</time>
      </trkpt>
      <trkpt lat="44.08787" lon="6.38874">
        <ele>1091.8</ele>
        <time>2021-09-11T15:18:24Z</time>
      </trkpt>
      <trkpt lat="44.08783" lon="6.38867">
        <ele>1091.5</ele>
        <time>2021-09-11T15:18:25Z</time>
      </trkpt>
      <trkpt lat="44.08779" lon="6.38862">
        <ele>1091.3</ele>
        <time>2021-09-11T15:18:26Z</time>
      </trkpt>
      <trkpt lat="44.08772" lon="6.38853">
        <ele>1091</ele>
        <time>2021-09-11T15:18:28Z</time>
      </trkpt>
      <trkpt lat="44.08773" lon="6.38849">
        <ele>1090.9</ele>
        <time>2021-09-11T15:18:29Z</time>
      </trkpt>
      <trkpt lat="44.08768" lon="6.38845">
        <ele>1090.8</ele>
        <time>2021-09-11T15:18:31Z</time>
      </trkpt>
      <trkpt lat="44.08761" lon="6.38842">
        <ele>1090.7</ele>
        <time>2021-09-11T15:18:32Z</time>
      </trkpt>
      <trkpt lat="44.08754" lon="6.38837">
        <ele>1090.5</ele>
        <time>2021-09-11T15:18:33Z</time>
      </trkpt>
      <trkpt lat="44.08748" lon="6.38834">
        <ele>1090.3</ele>
        <time>2021-09-11T15:18:35Z</time>
      </trkpt>
      <trkpt lat="44.08742" lon="6.3883">
        <ele>1089.9</ele>
        <time>2021-09-11T15:18:36Z</time>
      </trkpt>
      <trkpt lat="44.08732" lon="6.38823">
        <ele>1089.2</ele>
        <time>2021-09-11T15:18:38Z</time>
      </trkpt>
      <trkpt lat="44.08724" lon="6.38814">
        <ele>1088.4</ele>
        <time>2021-09-11T15:18:40Z</time>
      </trkpt>
      <trkpt lat="44.08717" lon="6.38802">
        <ele>1087.6</ele>
        <time>2021-09-11T15:18:42Z</time>
      </trkpt>
      <trkpt lat="44.08714" lon="6.38796">
        <ele>1087.2</ele>
        <time>2021-09-11T15:18:43Z</time>
      </trkpt>
      <trkpt lat="44.08705" lon="6.38784">
        <ele>1086.2</ele>
        <time>2021-09-11T15:18:45Z</time>
      </trkpt>
      <trkpt lat="44.08696" lon="6.38775">
        <ele>1085.2</ele>
        <time>2021-09-11T15:18:47Z</time>
      </trkpt>
      <trkpt lat="44.08691" lon="6.38772">
        <ele>1084.6</ele>
        <time>2021-09-11T15:18:48Z</time>
      </trkpt>
      <trkpt lat="44.08686" lon="6.38768">
        <ele>1084</ele>
        <time>2021-09-11T15:18:49Z</time>
      </trkpt>
      <trkpt lat="44.08676" lon="6.38759">
        <ele>1082.4</ele>
        <time>2021-09-11T15:18:51Z</time>
      </trkpt>
      <trkpt lat="44.08664" lon="6.38752">
        <ele>1080.6</ele>
        <time>2021-09-11T15:18:53Z</time>
      </trkpt>
      <trkpt lat="44.08659" lon="6.3875">
        <ele>1079.7</ele>
        <time>2021-09-11T15:18:54Z</time>
      </trkpt>
      <trkpt lat="44.08648" lon="6.38743">
        <ele>1078</ele>
        <time>2021-09-11T15:18:56Z</time>
      </trkpt>
      <trkpt lat="44.08639" lon="6.38737">
        <ele>1076.8</ele>
        <time>2021-09-11T15:18:58Z</time>
      </trkpt>
      <trkpt lat="44.08635" lon="6.38733">
        <ele>1076.3</ele>
        <time>2021-09-11T15:18:59Z</time>
      </trkpt>
      <trkpt lat="44.08631" lon="6.38729">
        <ele>1075.8</ele>
        <time>2021-09-11T15:19:00Z</time>
      </trkpt>
      <trkpt lat="44.08622" lon="6.38718">
        <ele>1074.7</ele>
        <time>2021-09-11T15:19:02Z</time>
      </trkpt>
      <trkpt lat="44.08615" lon="6.38707">
        <ele>1073.9</ele>
        <time>2021-09-11T15:19:04Z</time>
      </trkpt>
      <trkpt lat="44.0861" lon="6.38698">
        <ele>1073.3</ele>
        <time>2021-09-11T15:19:06Z</time>
      </trkpt>
      <trkpt lat="44.08602" lon="6.3869">
        <ele>1072.8</ele>
        <time>2021-09-11T15:19:08Z</time>
      </trkpt>
      <trkpt lat="44.08599" lon="6.38688">
        <ele>1072.5</ele>
        <time>2021-09-11T15:19:09Z</time>
      </trkpt>
      <trkpt lat="44.08591" lon="6.38682">
        <ele>1071.5</ele>
        <time>2021-09-11T15:19:11Z</time>
      </trkpt>
      <trkpt lat="44.08586" lon="6.38677">
        <ele>1070.8</ele>
        <time>2021-09-11T15:19:12Z</time>
      </trkpt>
      <trkpt lat="44.08581" lon="6.38672">
        <ele>1069.9</ele>
        <time>2021-09-11T15:19:13Z</time>
      </trkpt>
      <trkpt lat="44.08575" lon="6.38668">
        <ele>1069</ele>
        <time>2021-09-11T15:19:14Z</time>
      </trkpt>
      <trkpt lat="44.08562" lon="6.38663">
        <ele>1067.5</ele>
        <time>2021-09-11T15:19:16Z</time>
      </trkpt>
      <trkpt lat="44.08556" lon="6.38662">
        <ele>1066.7</ele>
        <time>2021-09-11T15:19:17Z</time>
      </trkpt>
      <trkpt lat="44.0855" lon="6.38659">
        <ele>1065.9</ele>
        <time>2021-09-11T15:19:18Z</time>
      </trkpt>
      <trkpt lat="44.08538" lon="6.38653">
        <ele>1063.9</ele>
        <time>2021-09-11T15:19:20Z</time>
      </trkpt>
      <trkpt lat="44.08524" lon="6.38644">
        <ele>1061.8</ele>
        <time>2021-09-11T15:19:22Z</time>
      </trkpt>
      <trkpt lat="44.08517" lon="6.38637">
        <ele>1060.8</ele>
        <time>2021-09-11T15:19:23Z</time>
      </trkpt>
      <trkpt lat="44.08511" lon="6.38629">
        <ele>1059.9</ele>
        <time>2021-09-11T15:19:24Z</time>
      </trkpt>
      <trkpt lat="44.08501" lon="6.38609">
        <ele>1058.7</ele>
        <time>2021-09-11T15:19:26Z</time>
      </trkpt>
      <trkpt lat="44.08491" lon="6.38594">
        <ele>1058</ele>
        <time>2021-09-11T15:19:28Z</time>
      </trkpt>
      <trkpt lat="44.08485" lon="6.38589">
        <ele>1057.7</ele>
        <time>2021-09-11T15:19:29Z</time>
      </trkpt>
      <trkpt lat="44.08479" lon="6.38585">
        <ele>1057.2</ele>
        <time>2021-09-11T15:19:30Z</time>
      </trkpt>
      <trkpt lat="44.08472" lon="6.38582">
        <ele>1056.6</ele>
        <time>2021-09-11T15:19:31Z</time>
      </trkpt>
      <trkpt lat="44.08459" lon="6.38574">
        <ele>1054.7</ele>
        <time>2021-09-11T15:19:33Z</time>
      </trkpt>
      <trkpt lat="44.08452" lon="6.38571">
        <ele>1054</ele>
        <time>2021-09-11T15:19:34Z</time>
      </trkpt>
      <trkpt lat="44.0844" lon="6.38568">
        <ele>1053.2</ele>
        <time>2021-09-11T15:19:36Z</time>
      </trkpt>
      <trkpt lat="44.08429" lon="6.38565">
        <ele>1053.1</ele>
        <time>2021-09-11T15:19:38Z</time>
      </trkpt>
      <trkpt lat="44.08424" lon="6.38564">
        <ele>1053.2</ele>
        <time>2021-09-11T15:19:39Z</time>
      </trkpt>
      <trkpt lat="44.08416" lon="6.38563">
        <ele>1053.2</ele>
        <time>2021-09-11T15:19:41Z</time>
      </trkpt>
      <trkpt lat="44.08411" lon="6.38561">
        <ele>1053.1</ele>
        <time>2021-09-11T15:19:42Z</time>
      </trkpt>
      <trkpt lat="44.08406" lon="6.38561">
        <ele>1053.1</ele>
        <time>2021-09-11T15:19:43Z</time>
      </trkpt>
      <trkpt lat="44.08401" lon="6.38562">
        <ele>1053</ele>
        <time>2021-09-11T15:19:44Z</time>
      </trkpt>
      <trkpt lat="44.08392" lon="6.38567">
        <ele>1052.6</ele>
        <time>2021-09-11T15:19:46Z</time>
      </trkpt>
      <trkpt lat="44.08388" lon="6.3857">
        <ele>1052.3</ele>
        <time>2021-09-11T15:19:47Z</time>
      </trkpt>
      <trkpt lat="44.08379" lon="6.38576">
        <ele>1053.2</ele>
        <time>2021-09-11T15:19:49Z</time>
      </trkpt>
      <trkpt lat="44.08371" lon="6.38583">
        <ele>1054.5</ele>
        <time>2021-09-11T15:19:51Z</time>
      </trkpt>
      <trkpt lat="44.08361" lon="6.38589">
        <ele>1055.1</ele>
        <time>2021-09-11T15:19:53Z</time>
      </trkpt>
      <trkpt lat="44.08357" lon="6.38593">
        <ele>1055.3</ele>
        <time>2021-09-11T15:19:54Z</time>
      </trkpt>
      <trkpt lat="44.08346" lon="6.38601">
        <ele>1055.7</ele>
        <time>2021-09-11T15:19:56Z</time>
      </trkpt>
      <trkpt lat="44.08338" lon="6.38607">
        <ele>1056.1</ele>
        <time>2021-09-11T15:19:58Z</time>
      </trkpt>
      <trkpt lat="44.08335" lon="6.38609">
        <ele>1056.2</ele>
        <time>2021-09-11T15:19:59Z</time>
      </trkpt>
      <trkpt lat="44.08329" lon="6.38614">
        <ele>1056.5</ele>
        <time>2021-09-11T15:20:00Z</time>
      </trkpt>
      <trkpt lat="44.08324" lon="6.3862">
        <ele>1056.9</ele>
        <time>2021-09-11T15:20:02Z</time>
      </trkpt>
      <trkpt lat="44.08321" lon="6.38624">
        <ele>1057.1</ele>
        <time>2021-09-11T15:20:03Z</time>
      </trkpt>
      <trkpt lat="44.08318" lon="6.3863">
        <ele>1057.5</ele>
        <time>2021-09-11T15:20:05Z</time>
      </trkpt>
      <trkpt lat="44.08315" lon="6.38634">
        <ele>1057.8</ele>
        <time>2021-09-11T15:20:06Z</time>
      </trkpt>
      <trkpt lat="44.08313" lon="6.38638">
        <ele>1058.1</ele>
        <time>2021-09-11T15:20:07Z</time>
      </trkpt>
      <trkpt lat="44.08311" lon="6.38641">
        <ele>1058.3</ele>
        <time>2021-09-11T15:20:08Z</time>
      </trkpt>
      <trkpt lat="44.08309" lon="6.38645">
        <ele>1058.5</ele>
        <time>2021-09-11T15:20:09Z</time>
      </trkpt>
      <trkpt lat="44.08305" lon="6.3865">
        <ele>1058.8</ele>
        <time>2021-09-11T15:20:10Z</time>
      </trkpt>
      <trkpt lat="44.08302" lon="6.38653">
        <ele>1059.1</ele>
        <time>2021-09-11T15:20:11Z</time>
      </trkpt>
      <trkpt lat="44.08298" lon="6.38658">
        <ele>1059.4</ele>
        <time>2021-09-11T15:20:13Z</time>
      </trkpt>
      <trkpt lat="44.08293" lon="6.38659">
        <ele>1059.5</ele>
        <time>2021-09-11T15:20:15Z</time>
      </trkpt>
      <trkpt lat="44.0829" lon="6.38659">
        <ele>1059.6</ele>
        <time>2021-09-11T15:20:16Z</time>
      </trkpt>
      <trkpt lat="44.08286" lon="6.38657">
        <ele>1059.8</ele>
        <time>2021-09-11T15:20:17Z</time>
      </trkpt>
      <trkpt lat="44.08281" lon="6.38656">
        <ele>1059.9</ele>
        <time>2021-09-11T15:20:19Z</time>
      </trkpt>
      <trkpt lat="44.08277" lon="6.38655">
        <ele>1060</ele>
        <time>2021-09-11T15:20:20Z</time>
      </trkpt>
      <trkpt lat="44.08266" lon="6.38656">
        <ele>1060.1</ele>
        <time>2021-09-11T15:20:22Z</time>
      </trkpt>
      <trkpt lat="44.08261" lon="6.38654">
        <ele>1060.1</ele>
        <time>2021-09-11T15:20:23Z</time>
      </trkpt>
      <trkpt lat="44.08258" lon="6.38653">
        <ele>1060.1</ele>
        <time>2021-09-11T15:20:24Z</time>
      </trkpt>
      <trkpt lat="44.0825" lon="6.38648">
        <ele>1059.9</ele>
        <time>2021-09-11T15:20:26Z</time>
      </trkpt>
      <trkpt lat="44.0824" lon="6.38638">
        <ele>1059.5</ele>
        <time>2021-09-11T15:20:28Z</time>
      </trkpt>
      <trkpt lat="44.0823" lon="6.38624">
        <ele>1058.8</ele>
        <time>2021-09-11T15:20:30Z</time>
      </trkpt>
      <trkpt lat="44.08226" lon="6.38616">
        <ele>1058.3</ele>
        <time>2021-09-11T15:20:31Z</time>
      </trkpt>
      <trkpt lat="44.08222" lon="6.38607">
        <ele>1057.8</ele>
        <time>2021-09-11T15:20:32Z</time>
      </trkpt>
      <trkpt lat="44.08216" lon="6.38589">
        <ele>1056.9</ele>
        <time>2021-09-11T15:20:34Z</time>
      </trkpt>
      <trkpt lat="44.08212" lon="6.38578">
        <ele>1056.3</ele>
        <time>2021-09-11T15:20:35Z</time>
      </trkpt>
      <trkpt lat="44.08204" lon="6.38558">
        <ele>1054.9</ele>
        <time>2021-09-11T15:20:37Z</time>
      </trkpt>
      <trkpt lat="44.08198" lon="6.38549">
        <ele>1054.1</ele>
        <time>2021-09-11T15:20:38Z</time>
      </trkpt>
      <trkpt lat="44.08187" lon="6.38535">
        <ele>1052.7</ele>
        <time>2021-09-11T15:20:40Z</time>
      </trkpt>
      <trkpt lat="44.08176" lon="6.3853">
        <ele>1051.3</ele>
        <time>2021-09-11T15:20:42Z</time>
      </trkpt>
      <trkpt lat="44.08171" lon="6.38535">
        <ele>1051.3</ele>
        <time>2021-09-11T15:20:43Z</time>
      </trkpt>
      <trkpt lat="44.08167" lon="6.38539">
        <ele>1051.3</ele>
        <time>2021-09-11T15:20:44Z</time>
      </trkpt>
      <trkpt lat="44.0816" lon="6.38546">
        <ele>1051.1</ele>
        <time>2021-09-11T15:20:46Z</time>
      </trkpt>
      <trkpt lat="44.08155" lon="6.38549">
        <ele>1050.6</ele>
        <time>2021-09-11T15:20:47Z</time>
      </trkpt>
      <trkpt lat="44.0815" lon="6.38551">
        <ele>1050.2</ele>
        <time>2021-09-11T15:20:48Z</time>
      </trkpt>
      <trkpt lat="44.08138" lon="6.38548">
        <ele>1048.3</ele>
        <time>2021-09-11T15:20:50Z</time>
      </trkpt>
      <trkpt lat="44.08125" lon="6.38535">
        <ele>1045.9</ele>
        <time>2021-09-11T15:20:52Z</time>
      </trkpt>
      <trkpt lat="44.08118" lon="6.38528">
        <ele>1044.9</ele>
        <time>2021-09-11T15:20:53Z</time>
      </trkpt>
      <trkpt lat="44.08103" lon="6.38519">
        <ele>1042.7</ele>
        <time>2021-09-11T15:20:55Z</time>
      </trkpt>
      <trkpt lat="44.08095" lon="6.38514">
        <ele>1041.8</ele>
        <time>2021-09-11T15:20:56Z</time>
      </trkpt>
      <trkpt lat="44.0808" lon="6.38502">
        <ele>1040.6</ele>
        <time>2021-09-11T15:20:58Z</time>
      </trkpt>
      <trkpt lat="44.08069" lon="6.3849">
        <ele>1039.5</ele>
        <time>2021-09-11T15:21:00Z</time>
      </trkpt>
      <trkpt lat="44.08062" lon="6.38472">
        <ele>1038.1</ele>
        <time>2021-09-11T15:21:02Z</time>
      </trkpt>
      <trkpt lat="44.08058" lon="6.3845">
        <ele>1036.5</ele>
        <time>2021-09-11T15:21:04Z</time>
      </trkpt>
      <trkpt lat="44.08057" lon="6.38438">
        <ele>1035.6</ele>
        <time>2021-09-11T15:21:05Z</time>
      </trkpt>
      <trkpt lat="44.08058" lon="6.38415">
        <ele>1033.9</ele>
        <time>2021-09-11T15:21:07Z</time>
      </trkpt>
      <trkpt lat="44.08059" lon="6.38403">
        <ele>1033.2</ele>
        <time>2021-09-11T15:21:08Z</time>
      </trkpt>
      <trkpt lat="44.08067" lon="6.38384">
        <ele>1031.8</ele>
        <time>2021-09-11T15:21:10Z</time>
      </trkpt>
      <trkpt lat="44.0808" lon="6.38373">
        <ele>1030.4</ele>
        <time>2021-09-11T15:21:12Z</time>
      </trkpt>
      <trkpt lat="44.08098" lon="6.38366">
        <ele>1028.5</ele>
        <time>2021-09-11T15:21:14Z</time>
      </trkpt>
      <trkpt lat="44.08117" lon="6.38364">
        <ele>1027.6</ele>
        <time>2021-09-11T15:21:16Z</time>
      </trkpt>
      <trkpt lat="44.08125" lon="6.38364">
        <ele>1027.6</ele>
        <time>2021-09-11T15:21:17Z</time>
      </trkpt>
      <trkpt lat="44.08139" lon="6.38361">
        <ele>1028</ele>
        <time>2021-09-11T15:21:19Z</time>
      </trkpt>
      <trkpt lat="44.08144" lon="6.38357">
        <ele>1028.2</ele>
        <time>2021-09-11T15:21:20Z</time>
      </trkpt>
      <trkpt lat="44.0815" lon="6.38348">
        <ele>1028.2</ele>
        <time>2021-09-11T15:21:22Z</time>
      </trkpt>
      <trkpt lat="44.0815" lon="6.38343">
        <ele>1028.1</ele>
        <time>2021-09-11T15:21:23Z</time>
      </trkpt>
      <trkpt lat="44.08149" lon="6.38342">
        <ele>1028</ele>
        <time>2021-09-11T15:21:24Z</time>
      </trkpt>
      <trkpt lat="44.08141" lon="6.38341">
        <ele>1027.4</ele>
        <time>2021-09-11T15:21:26Z</time>
      </trkpt>
      <trkpt lat="44.08127" lon="6.38339">
        <ele>1025.7</ele>
        <time>2021-09-11T15:21:28Z</time>
      </trkpt>
      <trkpt lat="44.08111" lon="6.38332">
        <ele>1024.2</ele>
        <time>2021-09-11T15:21:30Z</time>
      </trkpt>
      <trkpt lat="44.08103" lon="6.38328">
        <ele>1023.8</ele>
        <time>2021-09-11T15:21:31Z</time>
      </trkpt>
      <trkpt lat="44.08094" lon="6.38325">
        <ele>1023.3</ele>
        <time>2021-09-11T15:21:32Z</time>
      </trkpt>
      <trkpt lat="44.08079" lon="6.38321">
        <ele>1022.4</ele>
        <time>2021-09-11T15:21:34Z</time>
      </trkpt>
      <trkpt lat="44.08072" lon="6.3832">
        <ele>1022</ele>
        <time>2021-09-11T15:21:35Z</time>
      </trkpt>
      <trkpt lat="44.08059" lon="6.38319">
        <ele>1021.2</ele>
        <time>2021-09-11T15:21:37Z</time>
      </trkpt>
      <trkpt lat="44.08052" lon="6.38318">
        <ele>1020.8</ele>
        <time>2021-09-11T15:21:38Z</time>
      </trkpt>
      <trkpt lat="44.08037" lon="6.38315">
        <ele>1020</ele>
        <time>2021-09-11T15:21:40Z</time>
      </trkpt>
      <trkpt lat="44.08029" lon="6.38315">
        <ele>1019.5</ele>
        <time>2021-09-11T15:21:41Z</time>
      </trkpt>
      <trkpt lat="44.08021" lon="6.38315">
        <ele>1018.7</ele>
        <time>2021-09-11T15:21:42Z</time>
      </trkpt>
      <trkpt lat="44.08004" lon="6.38315">
        <ele>1017.3</ele>
        <time>2021-09-11T15:21:44Z</time>
      </trkpt>
      <trkpt lat="44.07987" lon="6.38316">
        <ele>1016.3</ele>
        <time>2021-09-11T15:21:46Z</time>
      </trkpt>
      <trkpt lat="44.07977" lon="6.38317">
        <ele>1015.8</ele>
        <time>2021-09-11T15:21:47Z</time>
      </trkpt>
      <trkpt lat="44.07968" lon="6.3832">
        <ele>1015.3</ele>
        <time>2021-09-11T15:21:48Z</time>
      </trkpt>
      <trkpt lat="44.07951" lon="6.3833">
        <ele>1014.1</ele>
        <time>2021-09-11T15:21:50Z</time>
      </trkpt>
      <trkpt lat="44.07939" lon="6.38342">
        <ele>1013</ele>
        <time>2021-09-11T15:21:52Z</time>
      </trkpt>
      <trkpt lat="44.07934" lon="6.3835">
        <ele>1012.6</ele>
        <time>2021-09-11T15:21:53Z</time>
      </trkpt>
      <trkpt lat="44.07929" lon="6.38359">
        <ele>1012.4</ele>
        <time>2021-09-11T15:21:54Z</time>
      </trkpt>
      <trkpt lat="44.07924" lon="6.38368">
        <ele>1012.3</ele>
        <time>2021-09-11T15:21:55Z</time>
      </trkpt>
      <trkpt lat="44.07918" lon="6.38389">
        <ele>1012.3</ele>
        <time>2021-09-11T15:21:57Z</time>
      </trkpt>
      <trkpt lat="44.07915" lon="6.38398">
        <ele>1012.3</ele>
        <time>2021-09-11T15:21:58Z</time>
      </trkpt>
      <trkpt lat="44.07907" lon="6.38412">
        <ele>1012.2</ele>
        <time>2021-09-11T15:22:00Z</time>
      </trkpt>
      <trkpt lat="44.07902" lon="6.38418">
        <ele>1012.2</ele>
        <time>2021-09-11T15:22:01Z</time>
      </trkpt>
      <trkpt lat="44.07897" lon="6.38423">
        <ele>1012</ele>
        <time>2021-09-11T15:22:02Z</time>
      </trkpt>
      <trkpt lat="44.07889" lon="6.38426">
        <ele>1011.7</ele>
        <time>2021-09-11T15:22:04Z</time>
      </trkpt>
      <trkpt lat="44.07884" lon="6.38425">
        <ele>1011.4</ele>
        <time>2021-09-11T15:22:05Z</time>
      </trkpt>
      <trkpt lat="44.07876" lon="6.38414">
        <ele>1010.7</ele>
        <time>2021-09-11T15:22:07Z</time>
      </trkpt>
      <trkpt lat="44.07869" lon="6.38403">
        <ele>1009.8</ele>
        <time>2021-09-11T15:22:08Z</time>
      </trkpt>
      <trkpt lat="44.07858" lon="6.38377">
        <ele>1007.8</ele>
        <time>2021-09-11T15:22:10Z</time>
      </trkpt>
      <trkpt lat="44.07851" lon="6.38365">
        <ele>1006.7</ele>
        <time>2021-09-11T15:22:11Z</time>
      </trkpt>
      <trkpt lat="44.07836" lon="6.38343">
        <ele>1005.6</ele>
        <time>2021-09-11T15:22:13Z</time>
      </trkpt>
      <trkpt lat="44.07828" lon="6.38335">
        <ele>1005.3</ele>
        <time>2021-09-11T15:22:14Z</time>
      </trkpt>
      <trkpt lat="44.07814" lon="6.38324">
        <ele>1004.9</ele>
        <time>2021-09-11T15:22:16Z</time>
      </trkpt>
      <trkpt lat="44.07799" lon="6.3832">
        <ele>1004.5</ele>
        <time>2021-09-11T15:22:18Z</time>
      </trkpt>
      <trkpt lat="44.07786" lon="6.38314">
        <ele>1003.9</ele>
        <time>2021-09-11T15:22:20Z</time>
      </trkpt>
      <trkpt lat="44.07773" lon="6.38308">
        <ele>1003.2</ele>
        <time>2021-09-11T15:22:22Z</time>
      </trkpt>
      <trkpt lat="44.0776" lon="6.38302">
        <ele>1002.1</ele>
        <time>2021-09-11T15:22:24Z</time>
      </trkpt>
      <trkpt lat="44.07746" lon="6.38298">
        <ele>1000.6</ele>
        <time>2021-09-11T15:22:26Z</time>
      </trkpt>
      <trkpt lat="44.0773" lon="6.38297">
        <ele>998.9</ele>
        <time>2021-09-11T15:22:28Z</time>
      </trkpt>
      <trkpt lat="44.07721" lon="6.38298">
        <ele>998.3</ele>
        <time>2021-09-11T15:22:29Z</time>
      </trkpt>
      <trkpt lat="44.07705" lon="6.38301">
        <ele>997</ele>
        <time>2021-09-11T15:22:31Z</time>
      </trkpt>
      <trkpt lat="44.07697" lon="6.38305">
        <ele>996.3</ele>
        <time>2021-09-11T15:22:32Z</time>
      </trkpt>
      <trkpt lat="44.07681" lon="6.38308">
        <ele>994.6</ele>
        <time>2021-09-11T15:22:34Z</time>
      </trkpt>
      <trkpt lat="44.07664" lon="6.38312">
        <ele>992.7</ele>
        <time>2021-09-11T15:22:36Z</time>
      </trkpt>
      <trkpt lat="44.07647" lon="6.38315">
        <ele>991</ele>
        <time>2021-09-11T15:22:38Z</time>
      </trkpt>
      <trkpt lat="44.0763" lon="6.38312">
        <ele>989.2</ele>
        <time>2021-09-11T15:22:40Z</time>
      </trkpt>
      <trkpt lat="44.0761" lon="6.38311">
        <ele>987.5</ele>
        <time>2021-09-11T15:22:42Z</time>
      </trkpt>
      <trkpt lat="44.07601" lon="6.38312">
        <ele>986.7</ele>
        <time>2021-09-11T15:22:43Z</time>
      </trkpt>
      <trkpt lat="44.07592" lon="6.38313">
        <ele>986</ele>
        <time>2021-09-11T15:22:44Z</time>
      </trkpt>
      <trkpt lat="44.07583" lon="6.38313">
        <ele>985.6</ele>
        <time>2021-09-11T15:22:45Z</time>
      </trkpt>
      <trkpt lat="44.07573" lon="6.38315">
        <ele>985.1</ele>
        <time>2021-09-11T15:22:46Z</time>
      </trkpt>
      <trkpt lat="44.07555" lon="6.3832">
        <ele>984.1</ele>
        <time>2021-09-11T15:22:48Z</time>
      </trkpt>
      <trkpt lat="44.07545" lon="6.38321">
        <ele>983.2</ele>
        <time>2021-09-11T15:22:49Z</time>
      </trkpt>
      <trkpt lat="44.07527" lon="6.38321">
        <ele>981.4</ele>
        <time>2021-09-11T15:22:51Z</time>
      </trkpt>
      <trkpt lat="44.07518" lon="6.3832">
        <ele>980.7</ele>
        <time>2021-09-11T15:22:52Z</time>
      </trkpt>
      <trkpt lat="44.07509" lon="6.38321">
        <ele>980.2</ele>
        <time>2021-09-11T15:22:53Z</time>
      </trkpt>
      <trkpt lat="44.07494" lon="6.3833">
        <ele>979.5</ele>
        <time>2021-09-11T15:22:55Z</time>
      </trkpt>
      <trkpt lat="44.07488" lon="6.38339">
        <ele>979.2</ele>
        <time>2021-09-11T15:22:56Z</time>
      </trkpt>
      <trkpt lat="44.07478" lon="6.38355">
        <ele>978.7</ele>
        <time>2021-09-11T15:22:58Z</time>
      </trkpt>
      <trkpt lat="44.07474" lon="6.38364">
        <ele>978.5</ele>
        <time>2021-09-11T15:22:59Z</time>
      </trkpt>
      <trkpt lat="44.07469" lon="6.38372">
        <ele>978.2</ele>
        <time>2021-09-11T15:23:00Z</time>
      </trkpt>
      <trkpt lat="44.07457" lon="6.38386">
        <ele>977.6</ele>
        <time>2021-09-11T15:23:02Z</time>
      </trkpt>
      <trkpt lat="44.07444" lon="6.38396">
        <ele>976.8</ele>
        <time>2021-09-11T15:23:04Z</time>
      </trkpt>
      <trkpt lat="44.07437" lon="6.38401">
        <ele>976.4</ele>
        <time>2021-09-11T15:23:05Z</time>
      </trkpt>
      <trkpt lat="44.0743" lon="6.38406">
        <ele>976.1</ele>
        <time>2021-09-11T15:23:06Z</time>
      </trkpt>
      <trkpt lat="44.07416" lon="6.38415">
        <ele>975.5</ele>
        <time>2021-09-11T15:23:08Z</time>
      </trkpt>
      <trkpt lat="44.07409" lon="6.38419">
        <ele>975.3</ele>
        <time>2021-09-11T15:23:09Z</time>
      </trkpt>
      <trkpt lat="44.07396" lon="6.38431">
        <ele>974.8</ele>
        <time>2021-09-11T15:23:11Z</time>
      </trkpt>
      <trkpt lat="44.0739" lon="6.38437">
        <ele>974.6</ele>
        <time>2021-09-11T15:23:12Z</time>
      </trkpt>
      <trkpt lat="44.07376" lon="6.38446">
        <ele>974.2</ele>
        <time>2021-09-11T15:23:14Z</time>
      </trkpt>
      <trkpt lat="44.07364" lon="6.38457">
        <ele>973.6</ele>
        <time>2021-09-11T15:23:16Z</time>
      </trkpt>
      <trkpt lat="44.07358" lon="6.38462">
        <ele>973.2</ele>
        <time>2021-09-11T15:23:17Z</time>
      </trkpt>
      <trkpt lat="44.07351" lon="6.38466">
        <ele>972.8</ele>
        <time>2021-09-11T15:23:18Z</time>
      </trkpt>
      <trkpt lat="44.07339" lon="6.38475">
        <ele>972.2</ele>
        <time>2021-09-11T15:23:20Z</time>
      </trkpt>
      <trkpt lat="44.07328" lon="6.38484">
        <ele>971.6</ele>
        <time>2021-09-11T15:23:22Z</time>
      </trkpt>
      <trkpt lat="44.07323" lon="6.38488">
        <ele>971.3</ele>
        <time>2021-09-11T15:23:23Z</time>
      </trkpt>
      <trkpt lat="44.07318" lon="6.38492">
        <ele>971.1</ele>
        <time>2021-09-11T15:23:24Z</time>
      </trkpt>
      <trkpt lat="44.07306" lon="6.38498">
        <ele>970.9</ele>
        <time>2021-09-11T15:23:26Z</time>
      </trkpt>
      <trkpt lat="44.07295" lon="6.38504">
        <ele>970.6</ele>
        <time>2021-09-11T15:23:28Z</time>
      </trkpt>
      <trkpt lat="44.07287" lon="6.38507">
        <ele>970.4</ele>
        <time>2021-09-11T15:23:30Z</time>
      </trkpt>
      <trkpt lat="44.07283" lon="6.38508">
        <ele>970.3</ele>
        <time>2021-09-11T15:23:31Z</time>
      </trkpt>
      <trkpt lat="44.07276" lon="6.3851">
        <ele>970</ele>
        <time>2021-09-11T15:23:33Z</time>
      </trkpt>
      <trkpt lat="44.07267" lon="6.38512">
        <ele>969.6</ele>
        <time>2021-09-11T15:23:35Z</time>
      </trkpt>
      <trkpt lat="44.07261" lon="6.38513">
        <ele>969.3</ele>
        <time>2021-09-11T15:23:36Z</time>
      </trkpt>
      <trkpt lat="44.07247" lon="6.38516">
        <ele>968.4</ele>
        <time>2021-09-11T15:23:38Z</time>
      </trkpt>
      <trkpt lat="44.07235" lon="6.38521">
        <ele>967.7</ele>
        <time>2021-09-11T15:23:40Z</time>
      </trkpt>
      <trkpt lat="44.07229" lon="6.38522">
        <ele>967.4</ele>
        <time>2021-09-11T15:23:41Z</time>
      </trkpt>
      <trkpt lat="44.07224" lon="6.38524">
        <ele>967.1</ele>
        <time>2021-09-11T15:23:42Z</time>
      </trkpt>
      <trkpt lat="44.07218" lon="6.38526">
        <ele>966.8</ele>
        <time>2021-09-11T15:23:43Z</time>
      </trkpt>
      <trkpt lat="44.07212" lon="6.38528">
        <ele>966.5</ele>
        <time>2021-09-11T15:23:44Z</time>
      </trkpt>
      <trkpt lat="44.07199" lon="6.38532">
        <ele>965.9</ele>
        <time>2021-09-11T15:23:46Z</time>
      </trkpt>
      <trkpt lat="44.07192" lon="6.38535">
        <ele>965.7</ele>
        <time>2021-09-11T15:23:47Z</time>
      </trkpt>
      <trkpt lat="44.0718" lon="6.3854">
        <ele>966.5</ele>
        <time>2021-09-11T15:23:49Z</time>
      </trkpt>
      <trkpt lat="44.07175" lon="6.38543">
        <ele>966.9</ele>
        <time>2021-09-11T15:23:50Z</time>
      </trkpt>
      <trkpt lat="44.07165" lon="6.3855">
        <ele>967.2</ele>
        <time>2021-09-11T15:23:52Z</time>
      </trkpt>
      <trkpt lat="44.07159" lon="6.38554">
        <ele>967.2</ele>
        <time>2021-09-11T15:23:53Z</time>
      </trkpt>
      <trkpt lat="44.07148" lon="6.38563">
        <ele>967.2</ele>
        <time>2021-09-11T15:23:55Z</time>
      </trkpt>
      <trkpt lat="44.07136" lon="6.38574">
        <ele>967.2</ele>
        <time>2021-09-11T15:23:57Z</time>
      </trkpt>
      <trkpt lat="44.0713" lon="6.38579">
        <ele>967.2</ele>
        <time>2021-09-11T15:23:58Z</time>
      </trkpt>
      <trkpt lat="44.07116" lon="6.3859">
        <ele>966.9</ele>
        <time>2021-09-11T15:24:00Z</time>
      </trkpt>
      <trkpt lat="44.07102" lon="6.38604">
        <ele>966.1</ele>
        <time>2021-09-11T15:24:02Z</time>
      </trkpt>
      <trkpt lat="44.0709" lon="6.38624">
        <ele>964.9</ele>
        <time>2021-09-11T15:24:04Z</time>
      </trkpt>
      <trkpt lat="44.07085" lon="6.38634">
        <ele>964.4</ele>
        <time>2021-09-11T15:24:05Z</time>
      </trkpt>
      <trkpt lat="44.07079" lon="6.38643">
        <ele>964</ele>
        <time>2021-09-11T15:24:06Z</time>
      </trkpt>
      <trkpt lat="44.07068" lon="6.38661">
        <ele>963.6</ele>
        <time>2021-09-11T15:24:08Z</time>
      </trkpt>
      <trkpt lat="44.07063" lon="6.3867">
        <ele>963.4</ele>
        <time>2021-09-11T15:24:09Z</time>
      </trkpt>
      <trkpt lat="44.07056" lon="6.38689">
        <ele>963.1</ele>
        <time>2021-09-11T15:24:11Z</time>
      </trkpt>
      <trkpt lat="44.07053" lon="6.38697">
        <ele>962.9</ele>
        <time>2021-09-11T15:24:12Z</time>
      </trkpt>
      <trkpt lat="44.07047" lon="6.38708">
        <ele>961.5</ele>
        <time>2021-09-11T15:24:14Z</time>
      </trkpt>
      <trkpt lat="44.07041" lon="6.38718">
        <ele>960.5</ele>
        <time>2021-09-11T15:24:16Z</time>
      </trkpt>
      <trkpt lat="44.07036" lon="6.3873">
        <ele>959.4</ele>
        <time>2021-09-11T15:24:18Z</time>
      </trkpt>
      <trkpt lat="44.07034" lon="6.38735">
        <ele>959</ele>
        <time>2021-09-11T15:24:19Z</time>
      </trkpt>
      <trkpt lat="44.07032" lon="6.38739">
        <ele>958.6</ele>
        <time>2021-09-11T15:24:20Z</time>
      </trkpt>
      <trkpt lat="44.07025" lon="6.38748">
        <ele>957.6</ele>
        <time>2021-09-11T15:24:22Z</time>
      </trkpt>
      <trkpt lat="44.07023" lon="6.3875">
        <ele>957.4</ele>
        <time>2021-09-11T15:24:23Z</time>
      </trkpt>
      <trkpt lat="44.07019" lon="6.38752">
        <ele>957</ele>
        <time>2021-09-11T15:24:24Z</time>
      </trkpt>
      <trkpt lat="44.07016" lon="6.38751">
        <ele>956.6</ele>
        <time>2021-09-11T15:24:25Z</time>
      </trkpt>
      <trkpt lat="44.07012" lon="6.3875">
        <ele>956.2</ele>
        <time>2021-09-11T15:24:27Z</time>
      </trkpt>
      <trkpt lat="44.07005" lon="6.38747">
        <ele>955.5</ele>
        <time>2021-09-11T15:24:29Z</time>
      </trkpt>
      <trkpt lat="44.07001" lon="6.38745">
        <ele>955.1</ele>
        <time>2021-09-11T15:24:30Z</time>
      </trkpt>
      <trkpt lat="44.06996" lon="6.38748">
        <ele>954.8</ele>
        <time>2021-09-11T15:24:32Z</time>
      </trkpt>
      <trkpt lat="44.06987" lon="6.38748">
        <ele>954.5</ele>
        <time>2021-09-11T15:24:33Z</time>
      </trkpt>
      <trkpt lat="44.0697" lon="6.38753">
        <ele>953.2</ele>
        <time>2021-09-11T15:24:35Z</time>
      </trkpt>
      <trkpt lat="44.06955" lon="6.3876">
        <ele>952.9</ele>
        <time>2021-09-11T15:24:37Z</time>
      </trkpt>
      <trkpt lat="44.06948" lon="6.38762">
        <ele>952.8</ele>
        <time>2021-09-11T15:24:38Z</time>
      </trkpt>
      <trkpt lat="44.06935" lon="6.38768">
        <ele>952.8</ele>
        <time>2021-09-11T15:24:40Z</time>
      </trkpt>
      <trkpt lat="44.06929" lon="6.38771">
        <ele>952.8</ele>
        <time>2021-09-11T15:24:41Z</time>
      </trkpt>
      <trkpt lat="44.06922" lon="6.38774">
        <ele>952.8</ele>
        <time>2021-09-11T15:24:42Z</time>
      </trkpt>
      <trkpt lat="44.06908" lon="6.38777">
        <ele>952.4</ele>
        <time>2021-09-11T15:24:44Z</time>
      </trkpt>
      <trkpt lat="44.06893" lon="6.38778">
        <ele>952.1</ele>
        <time>2021-09-11T15:24:46Z</time>
      </trkpt>
      <trkpt lat="44.06887" lon="6.38778">
        <ele>952</ele>
        <time>2021-09-11T15:24:47Z</time>
      </trkpt>
      <trkpt lat="44.06883" lon="6.38778">
        <ele>951.9</ele>
        <time>2021-09-11T15:24:48Z</time>
      </trkpt>
      <trkpt lat="44.06873" lon="6.38775">
        <ele>951.6</ele>
        <time>2021-09-11T15:24:50Z</time>
      </trkpt>
      <trkpt lat="44.06861" lon="6.38772">
        <ele>951.3</ele>
        <time>2021-09-11T15:24:52Z</time>
      </trkpt>
      <trkpt lat="44.06854" lon="6.38771">
        <ele>951.1</ele>
        <time>2021-09-11T15:24:53Z</time>
      </trkpt>
      <trkpt lat="44.06848" lon="6.38769">
        <ele>951</ele>
        <time>2021-09-11T15:24:54Z</time>
      </trkpt>
      <trkpt lat="44.06837" lon="6.38763">
        <ele>950.6</ele>
        <time>2021-09-11T15:24:56Z</time>
      </trkpt>
      <trkpt lat="44.06826" lon="6.38756">
        <ele>950.1</ele>
        <time>2021-09-11T15:24:58Z</time>
      </trkpt>
      <trkpt lat="44.0682" lon="6.38753">
        <ele>949.9</ele>
        <time>2021-09-11T15:24:59Z</time>
      </trkpt>
      <trkpt lat="44.06808" lon="6.38746">
        <ele>949.5</ele>
        <time>2021-09-11T15:25:01Z</time>
      </trkpt>
      <trkpt lat="44.06798" lon="6.38737">
        <ele>949.2</ele>
        <time>2021-09-11T15:25:03Z</time>
      </trkpt>
      <trkpt lat="44.06793" lon="6.38733">
        <ele>949</ele>
        <time>2021-09-11T15:25:04Z</time>
      </trkpt>
      <trkpt lat="44.06789" lon="6.38731">
        <ele>948.9</ele>
        <time>2021-09-11T15:25:05Z</time>
      </trkpt>
      <trkpt lat="44.06781" lon="6.38727">
        <ele>948.7</ele>
        <time>2021-09-11T15:25:07Z</time>
      </trkpt>
      <trkpt lat="44.06777" lon="6.38727">
        <ele>948.6</ele>
        <time>2021-09-11T15:25:08Z</time>
      </trkpt>
      <trkpt lat="44.06771" lon="6.38728">
        <ele>948.7</ele>
        <time>2021-09-11T15:25:10Z</time>
      </trkpt>
      <trkpt lat="44.06766" lon="6.38733">
        <ele>948.9</ele>
        <time>2021-09-11T15:25:12Z</time>
      </trkpt>
      <trkpt lat="44.06761" lon="6.3874">
        <ele>949.1</ele>
        <time>2021-09-11T15:25:13Z</time>
      </trkpt>
      <trkpt lat="44.06757" lon="6.38744">
        <ele>949.2</ele>
        <time>2021-09-11T15:25:15Z</time>
      </trkpt>
      <trkpt lat="44.06754" lon="6.38746">
        <ele>949.2</ele>
        <time>2021-09-11T15:25:16Z</time>
      </trkpt>
      <trkpt lat="44.06752" lon="6.38748">
        <ele>949.1</ele>
        <time>2021-09-11T15:25:17Z</time>
      </trkpt>
      <trkpt lat="44.06748" lon="6.3875">
        <ele>948.9</ele>
        <time>2021-09-11T15:25:18Z</time>
      </trkpt>
      <trkpt lat="44.06746" lon="6.38756">
        <ele>948.7</ele>
        <time>2021-09-11T15:25:19Z</time>
      </trkpt>
      <trkpt lat="44.06745" lon="6.38758">
        <ele>948.5</ele>
        <time>2021-09-11T15:25:20Z</time>
      </trkpt>
      <trkpt lat="44.06744" lon="6.38763">
        <ele>948.2</ele>
        <time>2021-09-11T15:25:22Z</time>
      </trkpt>
      <trkpt lat="44.06739" lon="6.38776">
        <ele>947.1</ele>
        <time>2021-09-11T15:25:24Z</time>
      </trkpt>
      <trkpt lat="44.06733" lon="6.38786">
        <ele>946.1</ele>
        <time>2021-09-11T15:25:26Z</time>
      </trkpt>
      <trkpt lat="44.0673" lon="6.38794">
        <ele>945.6</ele>
        <time>2021-09-11T15:25:27Z</time>
      </trkpt>
      <trkpt lat="44.06727" lon="6.38808">
        <ele>944.9</ele>
        <time>2021-09-11T15:25:29Z</time>
      </trkpt>
      <trkpt lat="44.06724" lon="6.38816">
        <ele>944.4</ele>
        <time>2021-09-11T15:25:30Z</time>
      </trkpt>
      <trkpt lat="44.06721" lon="6.38821">
        <ele>944.1</ele>
        <time>2021-09-11T15:25:31Z</time>
      </trkpt>
      <trkpt lat="44.0672" lon="6.38828">
        <ele>943.7</ele>
        <time>2021-09-11T15:25:33Z</time>
      </trkpt>
      <trkpt lat="44.06717" lon="6.38834">
        <ele>943.3</ele>
        <time>2021-09-11T15:25:34Z</time>
      </trkpt>
      <trkpt lat="44.06714" lon="6.38843">
        <ele>942.8</ele>
        <time>2021-09-11T15:25:36Z</time>
      </trkpt>
      <trkpt lat="44.0671" lon="6.38847">
        <ele>942.5</ele>
        <time>2021-09-11T15:25:37Z</time>
      </trkpt>
      <trkpt lat="44.06706" lon="6.38851">
        <ele>942.3</ele>
        <time>2021-09-11T15:25:38Z</time>
      </trkpt>
      <trkpt lat="44.06701" lon="6.38855">
        <ele>942</ele>
        <time>2021-09-11T15:25:39Z</time>
      </trkpt>
      <trkpt lat="44.06695" lon="6.38858">
        <ele>941.7</ele>
        <time>2021-09-11T15:25:41Z</time>
      </trkpt>
      <trkpt lat="44.06692" lon="6.38862">
        <ele>941.5</ele>
        <time>2021-09-11T15:25:42Z</time>
      </trkpt>
      <trkpt lat="44.06688" lon="6.38866">
        <ele>941.2</ele>
        <time>2021-09-11T15:25:43Z</time>
      </trkpt>
      <trkpt lat="44.06688" lon="6.38872">
        <ele>941</ele>
        <time>2021-09-11T15:25:44Z</time>
      </trkpt>
      <trkpt lat="44.06685" lon="6.38884">
        <ele>941</ele>
        <time>2021-09-11T15:25:46Z</time>
      </trkpt>
      <trkpt lat="44.06683" lon="6.38889">
        <ele>941.1</ele>
        <time>2021-09-11T15:25:47Z</time>
      </trkpt>
      <trkpt lat="44.06682" lon="6.38895">
        <ele>941.1</ele>
        <time>2021-09-11T15:25:48Z</time>
      </trkpt>
      <trkpt lat="44.06681" lon="6.38899">
        <ele>941.2</ele>
        <time>2021-09-11T15:25:49Z</time>
      </trkpt>
      <trkpt lat="44.06681" lon="6.38904">
        <ele>941.2</ele>
        <time>2021-09-11T15:25:51Z</time>
      </trkpt>
      <trkpt lat="44.0668" lon="6.38908">
        <ele>941.3</ele>
        <time>2021-09-11T15:25:52Z</time>
      </trkpt>
      <trkpt lat="44.0668" lon="6.3891">
        <ele>941.3</ele>
        <time>2021-09-11T15:25:53Z</time>
      </trkpt>
      <trkpt lat="44.06678" lon="6.38914">
        <ele>941.3</ele>
        <time>2021-09-11T15:25:55Z</time>
      </trkpt>
      <trkpt lat="44.06677" lon="6.38914">
        <ele>941.4</ele>
        <time>2021-09-11T15:25:56Z</time>
      </trkpt>
      <trkpt lat="44.06675" lon="6.38913">
        <ele>941.4</ele>
        <time>2021-09-11T15:25:58Z</time>
      </trkpt>
      <trkpt lat="44.06673" lon="6.38913">
        <ele>941.4</ele>
        <time>2021-09-11T15:25:59Z</time>
      </trkpt>
      <trkpt lat="44.06672" lon="6.38914">
        <ele>941.5</ele>
        <time>2021-09-11T15:26:00Z</time>
      </trkpt>
      <trkpt lat="44.06671" lon="6.38915">
        <ele>941.5</ele>
        <time>2021-09-11T15:26:01Z</time>
      </trkpt>
      <trkpt lat="44.06671" lon="6.38915">
        <ele>941.5</ele>
        <time>2021-09-11T15:26:03Z</time>
      </trkpt>
      <trkpt lat="44.06671" lon="6.38915">
        <ele>941.5</ele>
        <time>2021-09-11T15:26:04Z</time>
      </trkpt>
      <trkpt lat="44.06671" lon="6.38915">
        <ele>941.5</ele>
        <time>2021-09-11T15:26:06Z</time>
      </trkpt>
      <trkpt lat="44.06671" lon="6.38916">
        <ele>941.5</ele>
        <time>2021-09-11T15:26:08Z</time>
      </trkpt>
      <trkpt lat="44.06671" lon="6.38916">
        <ele>941.5</ele>
        <time>2021-09-11T15:26:10Z</time>
      </trkpt>
      <trkpt lat="44.06676" lon="6.38899">
        <ele>941.7</ele>
        <time>2021-09-11T15:27:37Z</time>
      </trkpt>
      <trkpt lat="44.06676" lon="6.389">
        <ele>941.7</ele>
        <time>2021-09-11T15:27:40Z</time>
      </trkpt>
      <trkpt lat="44.06675" lon="6.38901">
        <ele>941.7</ele>
        <time>2021-09-11T15:27:42Z</time>
      </trkpt>
      <trkpt lat="44.06675" lon="6.38902">
        <ele>941.7</ele>
        <time>2021-09-11T15:27:48Z</time>
      </trkpt>
      <trkpt lat="44.06675" lon="6.38902">
        <ele>941.8</ele>
        <time>2021-09-11T15:27:50Z</time>
      </trkpt>
      <trkpt lat="44.06675" lon="6.38902">
        <ele>941.8</ele>
        <time>2021-09-11T15:27:51Z</time>
      </trkpt>
      <trkpt lat="44.06676" lon="6.38903">
        <ele>941.8</ele>
        <time>2021-09-11T15:27:53Z</time>
      </trkpt>
      <trkpt lat="44.06673" lon="6.38904">
        <ele>941.8</ele>
        <time>2021-09-11T15:27:57Z</time>
      </trkpt>
      <trkpt lat="44.06672" lon="6.38906">
        <ele>941.8</ele>
        <time>2021-09-11T15:27:58Z</time>
      </trkpt>
      <trkpt lat="44.06671" lon="6.38909">
        <ele>941.9</ele>
        <time>2021-09-11T15:27:59Z</time>
      </trkpt>
      <trkpt lat="44.06672" lon="6.38911">
        <ele>941.9</ele>
        <time>2021-09-11T15:28:00Z</time>
      </trkpt>
      <trkpt lat="44.06675" lon="6.38914">
        <ele>942</ele>
        <time>2021-09-11T15:28:02Z</time>
      </trkpt>
      <trkpt lat="44.06678" lon="6.38914">
        <ele>942</ele>
        <time>2021-09-11T15:28:04Z</time>
      </trkpt>
      <trkpt lat="44.06679" lon="6.38914">
        <ele>942</ele>
        <time>2021-09-11T15:28:06Z</time>
      </trkpt>
      <trkpt lat="44.06681" lon="6.38913">
        <ele>942</ele>
        <time>2021-09-11T15:28:07Z</time>
      </trkpt>
      <trkpt lat="44.06681" lon="6.38913">
        <ele>942</ele>
        <time>2021-09-11T15:28:09Z</time>
      </trkpt>
      <trkpt lat="44.06682" lon="6.38913">
        <ele>942.1</ele>
        <time>2021-09-11T15:28:10Z</time>
      </trkpt>
      <trkpt lat="44.06682" lon="6.38913">
        <ele>942.1</ele>
        <time>2021-09-11T15:28:12Z</time>
      </trkpt>
      <trkpt lat="44.06421" lon="6.40716">
        <ele>980.2</ele>
        <time>2021-09-12T07:36:20Z</time>
      </trkpt>
      <trkpt lat="44.06421" lon="6.40716">
        <ele>980.2</ele>
        <time>2021-09-12T07:36:20Z</time>
      </trkpt>
      <trkpt lat="44.0643" lon="6.40721">
        <ele>980.4</ele>
        <time>2021-09-12T07:36:23Z</time>
      </trkpt>
      <trkpt lat="44.0643" lon="6.40725">
        <ele>980.5</ele>
        <time>2021-09-12T07:36:24Z</time>
      </trkpt>
      <trkpt lat="44.06431" lon="6.40729">
        <ele>980.6</ele>
        <time>2021-09-12T07:36:25Z</time>
      </trkpt>
      <trkpt lat="44.06431" lon="6.40732">
        <ele>980.6</ele>
        <time>2021-09-12T07:36:26Z</time>
      </trkpt>
      <trkpt lat="44.06429" lon="6.40736">
        <ele>980.8</ele>
        <time>2021-09-12T07:36:27Z</time>
      </trkpt>
      <trkpt lat="44.06431" lon="6.40815">
        <ele>982.5</ele>
        <time>2021-09-12T07:36:46Z</time>
      </trkpt>
      <trkpt lat="44.06434" lon="6.40818">
        <ele>982.6</ele>
        <time>2021-09-12T07:36:47Z</time>
      </trkpt>
      <trkpt lat="44.0644" lon="6.40823">
        <ele>982.7</ele>
        <time>2021-09-12T07:36:49Z</time>
      </trkpt>
      <trkpt lat="44.06441" lon="6.40825">
        <ele>982.7</ele>
        <time>2021-09-12T07:36:50Z</time>
      </trkpt>
      <trkpt lat="44.06444" lon="6.40827">
        <ele>982.7</ele>
        <time>2021-09-12T07:36:51Z</time>
      </trkpt>
      <trkpt lat="44.06447" lon="6.40831">
        <ele>982.8</ele>
        <time>2021-09-12T07:36:52Z</time>
      </trkpt>
      <trkpt lat="44.0645" lon="6.40834">
        <ele>982.9</ele>
        <time>2021-09-12T07:36:53Z</time>
      </trkpt>
      <trkpt lat="44.06451" lon="6.40836">
        <ele>982.9</ele>
        <time>2021-09-12T07:36:54Z</time>
      </trkpt>
      <trkpt lat="44.06452" lon="6.4084">
        <ele>982.9</ele>
        <time>2021-09-12T07:36:55Z</time>
      </trkpt>
      <trkpt lat="44.06453" lon="6.40842">
        <ele>983</ele>
        <time>2021-09-12T07:36:56Z</time>
      </trkpt>
      <trkpt lat="44.06455" lon="6.40846">
        <ele>983.1</ele>
        <time>2021-09-12T07:36:57Z</time>
      </trkpt>
      <trkpt lat="44.06457" lon="6.4085">
        <ele>983.2</ele>
        <time>2021-09-12T07:36:58Z</time>
      </trkpt>
      <trkpt lat="44.06458" lon="6.40855">
        <ele>983.4</ele>
        <time>2021-09-12T07:36:59Z</time>
      </trkpt>
      <trkpt lat="44.06456" lon="6.40861">
        <ele>983.7</ele>
        <time>2021-09-12T07:37:00Z</time>
      </trkpt>
      <trkpt lat="44.06449" lon="6.40882">
        <ele>985</ele>
        <time>2021-09-12T07:37:05Z</time>
      </trkpt>
      <trkpt lat="44.06448" lon="6.40887">
        <ele>985.3</ele>
        <time>2021-09-12T07:37:07Z</time>
      </trkpt>
      <trkpt lat="44.06449" lon="6.40893">
        <ele>985.6</ele>
        <time>2021-09-12T07:37:08Z</time>
      </trkpt>
      <trkpt lat="44.0645" lon="6.40896">
        <ele>985.7</ele>
        <time>2021-09-12T07:37:09Z</time>
      </trkpt>
      <trkpt lat="44.06452" lon="6.40901">
        <ele>985.9</ele>
        <time>2021-09-12T07:37:11Z</time>
      </trkpt>
      <trkpt lat="44.06453" lon="6.40904">
        <ele>986</ele>
        <time>2021-09-12T07:37:12Z</time>
      </trkpt>
      <trkpt lat="44.06454" lon="6.40907">
        <ele>986.1</ele>
        <time>2021-09-12T07:37:13Z</time>
      </trkpt>
      <trkpt lat="44.06455" lon="6.40911">
        <ele>986.3</ele>
        <time>2021-09-12T07:37:14Z</time>
      </trkpt>
      <trkpt lat="44.06456" lon="6.40913">
        <ele>986.4</ele>
        <time>2021-09-12T07:37:15Z</time>
      </trkpt>
      <trkpt lat="44.06457" lon="6.40919">
        <ele>986.6</ele>
        <time>2021-09-12T07:37:17Z</time>
      </trkpt>
      <trkpt lat="44.06458" lon="6.40922">
        <ele>986.7</ele>
        <time>2021-09-12T07:37:18Z</time>
      </trkpt>
      <trkpt lat="44.06459" lon="6.40924">
        <ele>986.8</ele>
        <time>2021-09-12T07:37:19Z</time>
      </trkpt>
      <trkpt lat="44.06463" lon="6.40926">
        <ele>987.1</ele>
        <time>2021-09-12T07:37:21Z</time>
      </trkpt>
      <trkpt lat="44.06471" lon="6.40924">
        <ele>987.6</ele>
        <time>2021-09-12T07:37:24Z</time>
      </trkpt>
      <trkpt lat="44.06474" lon="6.40924">
        <ele>987.7</ele>
        <time>2021-09-12T07:37:25Z</time>
      </trkpt>
      <trkpt lat="44.06478" lon="6.40924">
        <ele>988</ele>
        <time>2021-09-12T07:37:27Z</time>
      </trkpt>
      <trkpt lat="44.06479" lon="6.40924">
        <ele>988</ele>
        <time>2021-09-12T07:37:28Z</time>
      </trkpt>
      <trkpt lat="44.06481" lon="6.40925">
        <ele>988.1</ele>
        <time>2021-09-12T07:37:29Z</time>
      </trkpt>
      <trkpt lat="44.06498" lon="6.40942">
        <ele>989.6</ele>
        <time>2021-09-12T07:37:38Z</time>
      </trkpt>
      <trkpt lat="44.06504" lon="6.40947">
        <ele>990.1</ele>
        <time>2021-09-12T07:37:41Z</time>
      </trkpt>
      <trkpt lat="44.06507" lon="6.40951">
        <ele>990.3</ele>
        <time>2021-09-12T07:37:43Z</time>
      </trkpt>
      <trkpt lat="44.06509" lon="6.40955">
        <ele>990.6</ele>
        <time>2021-09-12T07:37:44Z</time>
      </trkpt>
      <trkpt lat="44.06511" lon="6.40958">
        <ele>990.7</ele>
        <time>2021-09-12T07:37:46Z</time>
      </trkpt>
      <trkpt lat="44.06513" lon="6.40961">
        <ele>990.9</ele>
        <time>2021-09-12T07:37:47Z</time>
      </trkpt>
      <trkpt lat="44.06515" lon="6.40964">
        <ele>991.1</ele>
        <time>2021-09-12T07:37:48Z</time>
      </trkpt>
      <trkpt lat="44.06517" lon="6.40968">
        <ele>991.4</ele>
        <time>2021-09-12T07:37:50Z</time>
      </trkpt>
      <trkpt lat="44.06518" lon="6.40969">
        <ele>991.5</ele>
        <time>2021-09-12T07:37:51Z</time>
      </trkpt>
      <trkpt lat="44.0652" lon="6.40972">
        <ele>991.6</ele>
        <time>2021-09-12T07:37:52Z</time>
      </trkpt>
      <trkpt lat="44.06522" lon="6.40976">
        <ele>991.9</ele>
        <time>2021-09-12T07:37:54Z</time>
      </trkpt>
      <trkpt lat="44.06524" lon="6.40981">
        <ele>992.1</ele>
        <time>2021-09-12T07:37:56Z</time>
      </trkpt>
      <trkpt lat="44.06526" lon="6.40984">
        <ele>992.3</ele>
        <time>2021-09-12T07:37:57Z</time>
      </trkpt>
      <trkpt lat="44.06528" lon="6.40987">
        <ele>992.4</ele>
        <time>2021-09-12T07:37:58Z</time>
      </trkpt>
      <trkpt lat="44.06529" lon="6.4099">
        <ele>992.5</ele>
        <time>2021-09-12T07:38:00Z</time>
      </trkpt>
      <trkpt lat="44.0653" lon="6.40993">
        <ele>992.7</ele>
        <time>2021-09-12T07:38:01Z</time>
      </trkpt>
      <trkpt lat="44.06533" lon="6.40998">
        <ele>993</ele>
        <time>2021-09-12T07:38:03Z</time>
      </trkpt>
      <trkpt lat="44.06535" lon="6.41">
        <ele>993.1</ele>
        <time>2021-09-12T07:38:04Z</time>
      </trkpt>
      <trkpt lat="44.06538" lon="6.41001">
        <ele>993.4</ele>
        <time>2021-09-12T07:38:06Z</time>
      </trkpt>
      <trkpt lat="44.06539" lon="6.41003">
        <ele>993.5</ele>
        <time>2021-09-12T07:38:07Z</time>
      </trkpt>
      <trkpt lat="44.0654" lon="6.41005">
        <ele>993.6</ele>
        <time>2021-09-12T07:38:08Z</time>
      </trkpt>
      <trkpt lat="44.06542" lon="6.41008">
        <ele>993.8</ele>
        <time>2021-09-12T07:38:09Z</time>
      </trkpt>
      <trkpt lat="44.06586" lon="6.41007">
        <ele>996.8</ele>
        <time>2021-09-12T07:38:31Z</time>
      </trkpt>
      <trkpt lat="44.06589" lon="6.41007">
        <ele>996.9</ele>
        <time>2021-09-12T07:38:32Z</time>
      </trkpt>
      <trkpt lat="44.06592" lon="6.41008">
        <ele>997.1</ele>
        <time>2021-09-12T07:38:34Z</time>
      </trkpt>
      <trkpt lat="44.06595" lon="6.41009">
        <ele>997.3</ele>
        <time>2021-09-12T07:38:35Z</time>
      </trkpt>
      <trkpt lat="44.06597" lon="6.4101">
        <ele>997.4</ele>
        <time>2021-09-12T07:38:36Z</time>
      </trkpt>
      <trkpt lat="44.06601" lon="6.41013">
        <ele>997.7</ele>
        <time>2021-09-12T07:38:38Z</time>
      </trkpt>
      <trkpt lat="44.06603" lon="6.41014">
        <ele>997.8</ele>
        <time>2021-09-12T07:38:40Z</time>
      </trkpt>
      <trkpt lat="44.06606" lon="6.41018">
        <ele>998.1</ele>
        <time>2021-09-12T07:38:41Z</time>
      </trkpt>
      <trkpt lat="44.06607" lon="6.4102">
        <ele>998.2</ele>
        <time>2021-09-12T07:38:42Z</time>
      </trkpt>
      <trkpt lat="44.06609" lon="6.41021">
        <ele>998.3</ele>
        <time>2021-09-12T07:38:43Z</time>
      </trkpt>
      <trkpt lat="44.06613" lon="6.41022">
        <ele>998.5</ele>
        <time>2021-09-12T07:38:45Z</time>
      </trkpt>
      <trkpt lat="44.06614" lon="6.41023">
        <ele>998.6</ele>
        <time>2021-09-12T07:38:46Z</time>
      </trkpt>
      <trkpt lat="44.06617" lon="6.41022">
        <ele>998.8</ele>
        <time>2021-09-12T07:38:47Z</time>
      </trkpt>
      <trkpt lat="44.0662" lon="6.41021">
        <ele>998.9</ele>
        <time>2021-09-12T07:38:49Z</time>
      </trkpt>
      <trkpt lat="44.06623" lon="6.41021">
        <ele>999.1</ele>
        <time>2021-09-12T07:38:50Z</time>
      </trkpt>
      <trkpt lat="44.06626" lon="6.4102">
        <ele>999.2</ele>
        <time>2021-09-12T07:38:51Z</time>
      </trkpt>
      <trkpt lat="44.06628" lon="6.41021">
        <ele>999.3</ele>
        <time>2021-09-12T07:38:52Z</time>
      </trkpt>
      <trkpt lat="44.06632" lon="6.41023">
        <ele>999.5</ele>
        <time>2021-09-12T07:38:54Z</time>
      </trkpt>
      <trkpt lat="44.06635" lon="6.41025">
        <ele>999.7</ele>
        <time>2021-09-12T07:38:55Z</time>
      </trkpt>
      <trkpt lat="44.06636" lon="6.41025">
        <ele>999.8</ele>
        <time>2021-09-12T07:38:56Z</time>
      </trkpt>
      <trkpt lat="44.0664" lon="6.41027">
        <ele>1000</ele>
        <time>2021-09-12T07:38:57Z</time>
      </trkpt>
      <trkpt lat="44.06643" lon="6.41029">
        <ele>1000.2</ele>
        <time>2021-09-12T07:38:59Z</time>
      </trkpt>
      <trkpt lat="44.06647" lon="6.41032">
        <ele>1000.4</ele>
        <time>2021-09-12T07:39:01Z</time>
      </trkpt>
      <trkpt lat="44.06649" lon="6.41036">
        <ele>1000.6</ele>
        <time>2021-09-12T07:39:03Z</time>
      </trkpt>
      <trkpt lat="44.06651" lon="6.4104">
        <ele>1000.7</ele>
        <time>2021-09-12T07:39:04Z</time>
      </trkpt>
      <trkpt lat="44.0665" lon="6.41042">
        <ele>1000.8</ele>
        <time>2021-09-12T07:39:05Z</time>
      </trkpt>
      <trkpt lat="44.06648" lon="6.41044">
        <ele>1000.9</ele>
        <time>2021-09-12T07:39:06Z</time>
      </trkpt>
      <trkpt lat="44.06646" lon="6.41046">
        <ele>1001</ele>
        <time>2021-09-12T07:39:07Z</time>
      </trkpt>
      <trkpt lat="44.06647" lon="6.41055">
        <ele>1001.4</ele>
        <time>2021-09-12T07:39:10Z</time>
      </trkpt>
      <trkpt lat="44.06649" lon="6.41057">
        <ele>1001.6</ele>
        <time>2021-09-12T07:39:11Z</time>
      </trkpt>
      <trkpt lat="44.06653" lon="6.41062">
        <ele>1002</ele>
        <time>2021-09-12T07:39:13Z</time>
      </trkpt>
      <trkpt lat="44.06654" lon="6.41065">
        <ele>1002.2</ele>
        <time>2021-09-12T07:39:14Z</time>
      </trkpt>
      <trkpt lat="44.06656" lon="6.41067">
        <ele>1002.3</ele>
        <time>2021-09-12T07:39:15Z</time>
      </trkpt>
      <trkpt lat="44.06662" lon="6.41069">
        <ele>1002.7</ele>
        <time>2021-09-12T07:39:17Z</time>
      </trkpt>
      <trkpt lat="44.06663" lon="6.41069">
        <ele>1002.8</ele>
        <time>2021-09-12T07:39:18Z</time>
      </trkpt>
      <trkpt lat="44.06668" lon="6.41069">
        <ele>1003.1</ele>
        <time>2021-09-12T07:39:20Z</time>
      </trkpt>
      <trkpt lat="44.0667" lon="6.4107">
        <ele>1003.2</ele>
        <time>2021-09-12T07:39:21Z</time>
      </trkpt>
      <trkpt lat="44.06671" lon="6.41071">
        <ele>1003.3</ele>
        <time>2021-09-12T07:39:22Z</time>
      </trkpt>
      <trkpt lat="44.06673" lon="6.41074">
        <ele>1003.5</ele>
        <time>2021-09-12T07:39:23Z</time>
      </trkpt>
      <trkpt lat="44.06675" lon="6.41075">
        <ele>1003.6</ele>
        <time>2021-09-12T07:39:24Z</time>
      </trkpt>
      <trkpt lat="44.06678" lon="6.41079">
        <ele>1003.9</ele>
        <time>2021-09-12T07:39:26Z</time>
      </trkpt>
      <trkpt lat="44.06679" lon="6.41081">
        <ele>1004</ele>
        <time>2021-09-12T07:39:27Z</time>
      </trkpt>
      <trkpt lat="44.0668" lon="6.41082">
        <ele>1004.1</ele>
        <time>2021-09-12T07:39:28Z</time>
      </trkpt>
      <trkpt lat="44.06683" lon="6.41084">
        <ele>1004.2</ele>
        <time>2021-09-12T07:39:29Z</time>
      </trkpt>
      <trkpt lat="44.06686" lon="6.41086">
        <ele>1004.4</ele>
        <time>2021-09-12T07:39:31Z</time>
      </trkpt>
      <trkpt lat="44.06689" lon="6.41088">
        <ele>1004.5</ele>
        <time>2021-09-12T07:39:32Z</time>
      </trkpt>
      <trkpt lat="44.06691" lon="6.4109">
        <ele>1004.7</ele>
        <time>2021-09-12T07:39:34Z</time>
      </trkpt>
      <trkpt lat="44.06693" lon="6.41091">
        <ele>1004.8</ele>
        <time>2021-09-12T07:39:35Z</time>
      </trkpt>
      <trkpt lat="44.06696" lon="6.41094">
        <ele>1004.9</ele>
        <time>2021-09-12T07:39:36Z</time>
      </trkpt>
      <trkpt lat="44.06699" lon="6.41096">
        <ele>1005</ele>
        <time>2021-09-12T07:39:37Z</time>
      </trkpt>
      <trkpt lat="44.067" lon="6.41097">
        <ele>1005.1</ele>
        <time>2021-09-12T07:39:38Z</time>
      </trkpt>
      <trkpt lat="44.06702" lon="6.411">
        <ele>1005.2</ele>
        <time>2021-09-12T07:39:39Z</time>
      </trkpt>
      <trkpt lat="44.06703" lon="6.41101">
        <ele>1005.2</ele>
        <time>2021-09-12T07:39:40Z</time>
      </trkpt>
      <trkpt lat="44.06704" lon="6.41103">
        <ele>1005.3</ele>
        <time>2021-09-12T07:39:41Z</time>
      </trkpt>
      <trkpt lat="44.06708" lon="6.41107">
        <ele>1005.5</ele>
        <time>2021-09-12T07:39:42Z</time>
      </trkpt>
      <trkpt lat="44.06709" lon="6.41109">
        <ele>1005.6</ele>
        <time>2021-09-12T07:39:43Z</time>
      </trkpt>
      <trkpt lat="44.06713" lon="6.41111">
        <ele>1005.9</ele>
        <time>2021-09-12T07:39:45Z</time>
      </trkpt>
      <trkpt lat="44.06717" lon="6.41113">
        <ele>1006.1</ele>
        <time>2021-09-12T07:39:47Z</time>
      </trkpt>
      <trkpt lat="44.0672" lon="6.41114">
        <ele>1006.4</ele>
        <time>2021-09-12T07:39:48Z</time>
      </trkpt>
      <trkpt lat="44.06722" lon="6.41114">
        <ele>1006.5</ele>
        <time>2021-09-12T07:39:49Z</time>
      </trkpt>
      <trkpt lat="44.06726" lon="6.41114">
        <ele>1006.7</ele>
        <time>2021-09-12T07:39:50Z</time>
      </trkpt>
      <trkpt lat="44.06729" lon="6.41115">
        <ele>1007</ele>
        <time>2021-09-12T07:39:52Z</time>
      </trkpt>
      <trkpt lat="44.06733" lon="6.41118">
        <ele>1007.3</ele>
        <time>2021-09-12T07:39:54Z</time>
      </trkpt>
      <trkpt lat="44.06734" lon="6.41119">
        <ele>1007.4</ele>
        <time>2021-09-12T07:39:55Z</time>
      </trkpt>
      <trkpt lat="44.06737" lon="6.41121">
        <ele>1007.6</ele>
        <time>2021-09-12T07:39:57Z</time>
      </trkpt>
      <trkpt lat="44.0674" lon="6.41123">
        <ele>1007.9</ele>
        <time>2021-09-12T07:39:59Z</time>
      </trkpt>
      <trkpt lat="44.06743" lon="6.41125">
        <ele>1008.2</ele>
        <time>2021-09-12T07:40:00Z</time>
      </trkpt>
      <trkpt lat="44.06746" lon="6.41128">
        <ele>1008.5</ele>
        <time>2021-09-12T07:40:02Z</time>
      </trkpt>
      <trkpt lat="44.06747" lon="6.41128">
        <ele>1008.6</ele>
        <time>2021-09-12T07:40:03Z</time>
      </trkpt>
      <trkpt lat="44.0675" lon="6.41131">
        <ele>1008.9</ele>
        <time>2021-09-12T07:40:05Z</time>
      </trkpt>
      <trkpt lat="44.06753" lon="6.41134">
        <ele>1009.2</ele>
        <time>2021-09-12T07:40:07Z</time>
      </trkpt>
      <trkpt lat="44.06755" lon="6.41137">
        <ele>1009.4</ele>
        <time>2021-09-12T07:40:09Z</time>
      </trkpt>
      <trkpt lat="44.06757" lon="6.4114">
        <ele>1009.7</ele>
        <time>2021-09-12T07:40:11Z</time>
      </trkpt>
      <trkpt lat="44.06759" lon="6.41143">
        <ele>1010</ele>
        <time>2021-09-12T07:40:13Z</time>
      </trkpt>
      <trkpt lat="44.06759" lon="6.41151">
        <ele>1010.5</ele>
        <time>2021-09-12T07:40:17Z</time>
      </trkpt>
      <trkpt lat="44.06759" lon="6.41156">
        <ele>1010.7</ele>
        <time>2021-09-12T07:40:20Z</time>
      </trkpt>
      <trkpt lat="44.0676" lon="6.41161">
        <ele>1011</ele>
        <time>2021-09-12T07:40:23Z</time>
      </trkpt>
      <trkpt lat="44.06761" lon="6.41163">
        <ele>1011.1</ele>
        <time>2021-09-12T07:40:24Z</time>
      </trkpt>
      <trkpt lat="44.06762" lon="6.41164">
        <ele>1011.2</ele>
        <time>2021-09-12T07:40:25Z</time>
      </trkpt>
      <trkpt lat="44.06762" lon="6.41167">
        <ele>1011.4</ele>
        <time>2021-09-12T07:40:26Z</time>
      </trkpt>
      <trkpt lat="44.06763" lon="6.41168">
        <ele>1011.5</ele>
        <time>2021-09-12T07:40:27Z</time>
      </trkpt>
      <trkpt lat="44.06759" lon="6.41195">
        <ele>1013</ele>
        <time>2021-09-12T07:40:40Z</time>
      </trkpt>
      <trkpt lat="44.06761" lon="6.41199">
        <ele>1013.4</ele>
        <time>2021-09-12T07:40:43Z</time>
      </trkpt>
      <trkpt lat="44.06764" lon="6.41202">
        <ele>1013.8</ele>
        <time>2021-09-12T07:40:45Z</time>
      </trkpt>
      <trkpt lat="44.06768" lon="6.41206">
        <ele>1014.3</ele>
        <time>2021-09-12T07:40:48Z</time>
      </trkpt>
      <trkpt lat="44.0677" lon="6.41208">
        <ele>1014.6</ele>
        <time>2021-09-12T07:40:50Z</time>
      </trkpt>
      <trkpt lat="44.06772" lon="6.4121">
        <ele>1014.9</ele>
        <time>2021-09-12T07:40:52Z</time>
      </trkpt>
      <trkpt lat="44.06773" lon="6.41209">
        <ele>1015</ele>
        <time>2021-09-12T07:40:53Z</time>
      </trkpt>
      <trkpt lat="44.0678" lon="6.4121">
        <ele>1015.7</ele>
        <time>2021-09-12T07:40:58Z</time>
      </trkpt>
      <trkpt lat="44.06781" lon="6.41211">
        <ele>1015.8</ele>
        <time>2021-09-12T07:41:00Z</time>
      </trkpt>
      <trkpt lat="44.06782" lon="6.41212">
        <ele>1015.9</ele>
        <time>2021-09-12T07:41:01Z</time>
      </trkpt>
      <trkpt lat="44.06783" lon="6.41212">
        <ele>1016</ele>
        <time>2021-09-12T07:41:02Z</time>
      </trkpt>
      <trkpt lat="44.06784" lon="6.41214">
        <ele>1016.2</ele>
        <time>2021-09-12T07:41:04Z</time>
      </trkpt>
      <trkpt lat="44.06786" lon="6.41215">
        <ele>1016.4</ele>
        <time>2021-09-12T07:41:07Z</time>
      </trkpt>
      <trkpt lat="44.06958" lon="6.41228">
        <ele>1030.2</ele>
        <time>2021-09-12T07:44:38Z</time>
      </trkpt>
      <trkpt lat="44.06961" lon="6.41231">
        <ele>1030.5</ele>
        <time>2021-09-12T07:44:42Z</time>
      </trkpt>
      <trkpt lat="44.06964" lon="6.41236">
        <ele>1031</ele>
        <time>2021-09-12T07:44:47Z</time>
      </trkpt>
      <trkpt lat="44.06967" lon="6.41237">
        <ele>1031.4</ele>
        <time>2021-09-12T07:44:50Z</time>
      </trkpt>
      <trkpt lat="44.06971" lon="6.4124">
        <ele>1032</ele>
        <time>2021-09-12T07:44:55Z</time>
      </trkpt>
      <trkpt lat="44.06975" lon="6.41241">
        <ele>1032.5</ele>
        <time>2021-09-12T07:44:59Z</time>
      </trkpt>
      <trkpt lat="44.06979" lon="6.41243">
        <ele>1033</ele>
        <time>2021-09-12T07:45:03Z</time>
      </trkpt>
      <trkpt lat="44.06982" lon="6.41245">
        <ele>1033.4</ele>
        <time>2021-09-12T07:45:06Z</time>
      </trkpt>
      <trkpt lat="44.06984" lon="6.41245">
        <ele>1033.6</ele>
        <time>2021-09-12T07:45:08Z</time>
      </trkpt>
      <trkpt lat="44.06985" lon="6.41244">
        <ele>1033.7</ele>
        <time>2021-09-12T07:45:09Z</time>
      </trkpt>
      <trkpt lat="44.06986" lon="6.41244">
        <ele>1033.8</ele>
        <time>2021-09-12T07:45:10Z</time>
      </trkpt>
      <trkpt lat="44.06988" lon="6.41245">
        <ele>1034.1</ele>
        <time>2021-09-12T07:45:15Z</time>
      </trkpt>
      <trkpt lat="44.06989" lon="6.41244">
        <ele>1034.2</ele>
        <time>2021-09-12T07:45:17Z</time>
      </trkpt>
      <trkpt lat="44.06992" lon="6.41245">
        <ele>1034.5</ele>
        <time>2021-09-12T07:45:23Z</time>
      </trkpt>
      <trkpt lat="44.06994" lon="6.41247">
        <ele>1034.7</ele>
        <time>2021-09-12T07:45:27Z</time>
      </trkpt>
      <trkpt lat="44.06995" lon="6.41248">
        <ele>1034.9</ele>
        <time>2021-09-12T07:45:30Z</time>
      </trkpt>
      <trkpt lat="44.06997" lon="6.41249">
        <ele>1035.1</ele>
        <time>2021-09-12T07:45:34Z</time>
      </trkpt>
      <trkpt lat="44.06998" lon="6.4125">
        <ele>1035.2</ele>
        <time>2021-09-12T07:45:38Z</time>
      </trkpt>
      <trkpt lat="44.07" lon="6.41251">
        <ele>1035.4</ele>
        <time>2021-09-12T07:45:40Z</time>
      </trkpt>
      <trkpt lat="44.07001" lon="6.41251">
        <ele>1035.5</ele>
        <time>2021-09-12T07:45:42Z</time>
      </trkpt>
      <trkpt lat="44.07001" lon="6.41251">
        <ele>1035.6</ele>
        <time>2021-09-12T07:45:43Z</time>
      </trkpt>
      <trkpt lat="44.07003" lon="6.41253">
        <ele>1035.8</ele>
        <time>2021-09-12T07:45:47Z</time>
      </trkpt>
      <trkpt lat="44.07005" lon="6.41253">
        <ele>1035.9</ele>
        <time>2021-09-12T07:45:49Z</time>
      </trkpt>
      <trkpt lat="44.07006" lon="6.41254">
        <ele>1036.1</ele>
        <time>2021-09-12T07:45:51Z</time>
      </trkpt>
      <trkpt lat="44.07007" lon="6.41255">
        <ele>1036.2</ele>
        <time>2021-09-12T07:45:53Z</time>
      </trkpt>
      <trkpt lat="44.07008" lon="6.41256">
        <ele>1036.3</ele>
        <time>2021-09-12T07:45:55Z</time>
      </trkpt>
      <trkpt lat="44.0702" lon="6.41267">
        <ele>1037.7</ele>
        <time>2021-09-12T07:46:14Z</time>
      </trkpt>
      <trkpt lat="44.07025" lon="6.41271">
        <ele>1038.2</ele>
        <time>2021-09-12T07:46:21Z</time>
      </trkpt>
      <trkpt lat="44.07027" lon="6.41273">
        <ele>1038.5</ele>
        <time>2021-09-12T07:46:24Z</time>
      </trkpt>
      <trkpt lat="44.07029" lon="6.41273">
        <ele>1038.7</ele>
        <time>2021-09-12T07:46:27Z</time>
      </trkpt>
      <trkpt lat="44.07028" lon="6.41272">
        <ele>1038.9</ele>
        <time>2021-09-12T07:46:28Z</time>
      </trkpt>
      <trkpt lat="44.07027" lon="6.41271">
        <ele>1039</ele>
        <time>2021-09-12T07:46:29Z</time>
      </trkpt>
      <trkpt lat="44.07027" lon="6.41269">
        <ele>1039.1</ele>
        <time>2021-09-12T07:46:30Z</time>
      </trkpt>
      <trkpt lat="44.07028" lon="6.41268">
        <ele>1039.2</ele>
        <time>2021-09-12T07:46:31Z</time>
      </trkpt>
      <trkpt lat="44.07066" lon="6.41172">
        <ele>1048.5</ele>
        <time>2021-09-12T07:47:43Z</time>
      </trkpt>
      <trkpt lat="44.0707" lon="6.41175">
        <ele>1048.6</ele>
        <time>2021-09-12T07:47:47Z</time>
      </trkpt>
      <trkpt lat="44.07071" lon="6.41176">
        <ele>1048.7</ele>
        <time>2021-09-12T07:47:48Z</time>
      </trkpt>
      <trkpt lat="44.07077" lon="6.41181">
        <ele>1048.9</ele>
        <time>2021-09-12T07:47:54Z</time>
      </trkpt>
      <trkpt lat="44.07081" lon="6.41186">
        <ele>1049</ele>
        <time>2021-09-12T07:47:58Z</time>
      </trkpt>
      <trkpt lat="44.07085" lon="6.41194">
        <ele>1049.2</ele>
        <time>2021-09-12T07:48:03Z</time>
      </trkpt>
      <trkpt lat="44.07085" lon="6.41196">
        <ele>1049.3</ele>
        <time>2021-09-12T07:48:04Z</time>
      </trkpt>
      <trkpt lat="44.07085" lon="6.41204">
        <ele>1049.4</ele>
        <time>2021-09-12T07:48:07Z</time>
      </trkpt>
      <trkpt lat="44.07086" lon="6.41208">
        <ele>1049.5</ele>
        <time>2021-09-12T07:48:09Z</time>
      </trkpt>
      <trkpt lat="44.07089" lon="6.41212">
        <ele>1049.5</ele>
        <time>2021-09-12T07:48:11Z</time>
      </trkpt>
      <trkpt lat="44.07091" lon="6.41216">
        <ele>1049.6</ele>
        <time>2021-09-12T07:48:12Z</time>
      </trkpt>
      <trkpt lat="44.07093" lon="6.41225">
        <ele>1049.7</ele>
        <time>2021-09-12T07:48:15Z</time>
      </trkpt>
      <trkpt lat="44.07094" lon="6.41232">
        <ele>1049.8</ele>
        <time>2021-09-12T07:48:16Z</time>
      </trkpt>
      <trkpt lat="44.07095" lon="6.41238">
        <ele>1049.8</ele>
        <time>2021-09-12T07:48:18Z</time>
      </trkpt>
      <trkpt lat="44.07096" lon="6.41245">
        <ele>1049.9</ele>
        <time>2021-09-12T07:48:20Z</time>
      </trkpt>
      <trkpt lat="44.07097" lon="6.41252">
        <ele>1050</ele>
        <time>2021-09-12T07:48:21Z</time>
      </trkpt>
      <trkpt lat="44.07098" lon="6.41261">
        <ele>1050.2</ele>
        <time>2021-09-12T07:48:23Z</time>
      </trkpt>
      <trkpt lat="44.07098" lon="6.41265">
        <ele>1050.2</ele>
        <time>2021-09-12T07:48:24Z</time>
      </trkpt>
      <trkpt lat="44.07097" lon="6.41274">
        <ele>1050.4</ele>
        <time>2021-09-12T07:48:26Z</time>
      </trkpt>
      <trkpt lat="44.07094" lon="6.41283">
        <ele>1050.6</ele>
        <time>2021-09-12T07:48:29Z</time>
      </trkpt>
      <trkpt lat="44.07094" lon="6.41289">
        <ele>1050.7</ele>
        <time>2021-09-12T07:48:30Z</time>
      </trkpt>
      <trkpt lat="44.07094" lon="6.41296">
        <ele>1050.8</ele>
        <time>2021-09-12T07:48:31Z</time>
      </trkpt>
      <trkpt lat="44.07095" lon="6.41305">
        <ele>1050.8</ele>
        <time>2021-09-12T07:48:34Z</time>
      </trkpt>
      <trkpt lat="44.07096" lon="6.4131">
        <ele>1050.9</ele>
        <time>2021-09-12T07:48:35Z</time>
      </trkpt>
      <trkpt lat="44.07096" lon="6.41319">
        <ele>1050.9</ele>
        <time>2021-09-12T07:48:37Z</time>
      </trkpt>
      <trkpt lat="44.07096" lon="6.41324">
        <ele>1050.9</ele>
        <time>2021-09-12T07:48:38Z</time>
      </trkpt>
      <trkpt lat="44.07094" lon="6.41331">
        <ele>1050.9</ele>
        <time>2021-09-12T07:48:39Z</time>
      </trkpt>
      <trkpt lat="44.07092" lon="6.41337">
        <ele>1050.9</ele>
        <time>2021-09-12T07:48:41Z</time>
      </trkpt>
      <trkpt lat="44.07087" lon="6.41338">
        <ele>1050.8</ele>
        <time>2021-09-12T07:48:42Z</time>
      </trkpt>
      <trkpt lat="44.07083" lon="6.4134">
        <ele>1050.8</ele>
        <time>2021-09-12T07:48:43Z</time>
      </trkpt>
      <trkpt lat="44.07082" lon="6.4134">
        <ele>1050.8</ele>
        <time>2021-09-12T07:48:44Z</time>
      </trkpt>
      <trkpt lat="44.07074" lon="6.41345">
        <ele>1050.6</ele>
        <time>2021-09-12T07:48:46Z</time>
      </trkpt>
      <trkpt lat="44.07065" lon="6.4135">
        <ele>1050.5</ele>
        <time>2021-09-12T07:48:49Z</time>
      </trkpt>
      <trkpt lat="44.0706" lon="6.41352">
        <ele>1050.4</ele>
        <time>2021-09-12T07:48:50Z</time>
      </trkpt>
      <trkpt lat="44.07048" lon="6.41358">
        <ele>1050.1</ele>
        <time>2021-09-12T07:48:53Z</time>
      </trkpt>
      <trkpt lat="44.07041" lon="6.41363">
        <ele>1050</ele>
        <time>2021-09-12T07:48:55Z</time>
      </trkpt>
      <trkpt lat="44.07036" lon="6.41367">
        <ele>1049.9</ele>
        <time>2021-09-12T07:48:56Z</time>
      </trkpt>
      <trkpt lat="44.07031" lon="6.41372">
        <ele>1049.7</ele>
        <time>2021-09-12T07:48:58Z</time>
      </trkpt>
      <trkpt lat="44.07022" lon="6.41381">
        <ele>1049.5</ele>
        <time>2021-09-12T07:49:00Z</time>
      </trkpt>
      <trkpt lat="44.07014" lon="6.41395">
        <ele>1049.2</ele>
        <time>2021-09-12T07:49:03Z</time>
      </trkpt>
      <trkpt lat="44.0701" lon="6.41403">
        <ele>1049.1</ele>
        <time>2021-09-12T07:49:05Z</time>
      </trkpt>
      <trkpt lat="44.07007" lon="6.41409">
        <ele>1049</ele>
        <time>2021-09-12T07:49:06Z</time>
      </trkpt>
      <trkpt lat="44.07004" lon="6.41416">
        <ele>1048.9</ele>
        <time>2021-09-12T07:49:07Z</time>
      </trkpt>
      <trkpt lat="44.06998" lon="6.41429">
        <ele>1048.6</ele>
        <time>2021-09-12T07:49:09Z</time>
      </trkpt>
      <trkpt lat="44.06993" lon="6.41444">
        <ele>1048.2</ele>
        <time>2021-09-12T07:49:12Z</time>
      </trkpt>
      <trkpt lat="44.06987" lon="6.41459">
        <ele>1047.8</ele>
        <time>2021-09-12T07:49:14Z</time>
      </trkpt>
      <trkpt lat="44.06985" lon="6.41468">
        <ele>1047.6</ele>
        <time>2021-09-12T07:49:16Z</time>
      </trkpt>
      <trkpt lat="44.06983" lon="6.41478">
        <ele>1047.3</ele>
        <time>2021-09-12T07:49:17Z</time>
      </trkpt>
      <trkpt lat="44.06983" lon="6.41487">
        <ele>1047.1</ele>
        <time>2021-09-12T07:49:18Z</time>
      </trkpt>
      <trkpt lat="44.06983" lon="6.41496">
        <ele>1047</ele>
        <time>2021-09-12T07:49:20Z</time>
      </trkpt>
      <trkpt lat="44.06979" lon="6.41512">
        <ele>1046.8</ele>
        <time>2021-09-12T07:49:22Z</time>
      </trkpt>
      <trkpt lat="44.06971" lon="6.41523">
        <ele>1046.6</ele>
        <time>2021-09-12T07:49:24Z</time>
      </trkpt>
      <trkpt lat="44.06963" lon="6.4153">
        <ele>1046.6</ele>
        <time>2021-09-12T07:49:26Z</time>
      </trkpt>
      <trkpt lat="44.0696" lon="6.41532">
        <ele>1046.7</ele>
        <time>2021-09-12T07:49:27Z</time>
      </trkpt>
      <trkpt lat="44.06955" lon="6.41534">
        <ele>1046.7</ele>
        <time>2021-09-12T07:49:28Z</time>
      </trkpt>
      <trkpt lat="44.06951" lon="6.41535">
        <ele>1046.8</ele>
        <time>2021-09-12T07:49:29Z</time>
      </trkpt>
      <trkpt lat="44.06942" lon="6.41533">
        <ele>1047</ele>
        <time>2021-09-12T07:49:31Z</time>
      </trkpt>
      <trkpt lat="44.06937" lon="6.41532">
        <ele>1047.1</ele>
        <time>2021-09-12T07:49:32Z</time>
      </trkpt>
      <trkpt lat="44.06926" lon="6.41528">
        <ele>1047.4</ele>
        <time>2021-09-12T07:49:35Z</time>
      </trkpt>
      <trkpt lat="44.06917" lon="6.41524">
        <ele>1047.7</ele>
        <time>2021-09-12T07:49:37Z</time>
      </trkpt>
      <trkpt lat="44.0691" lon="6.4152">
        <ele>1048.1</ele>
        <time>2021-09-12T07:49:39Z</time>
      </trkpt>
      <trkpt lat="44.06906" lon="6.41519">
        <ele>1048.3</ele>
        <time>2021-09-12T07:49:40Z</time>
      </trkpt>
      <trkpt lat="44.06899" lon="6.41518">
        <ele>1048.8</ele>
        <time>2021-09-12T07:49:43Z</time>
      </trkpt>
      <trkpt lat="44.06894" lon="6.41518">
        <ele>1049.2</ele>
        <time>2021-09-12T07:49:44Z</time>
      </trkpt>
      <trkpt lat="44.0689" lon="6.41517">
        <ele>1049.4</ele>
        <time>2021-09-12T07:49:46Z</time>
      </trkpt>
      <trkpt lat="44.06887" lon="6.41515">
        <ele>1049.6</ele>
        <time>2021-09-12T07:49:47Z</time>
      </trkpt>
      <trkpt lat="44.06885" lon="6.41514">
        <ele>1049.8</ele>
        <time>2021-09-12T07:49:48Z</time>
      </trkpt>
      <trkpt lat="44.06883" lon="6.41513">
        <ele>1050</ele>
        <time>2021-09-12T07:49:49Z</time>
      </trkpt>
      <trkpt lat="44.06881" lon="6.41512">
        <ele>1050.1</ele>
        <time>2021-09-12T07:49:50Z</time>
      </trkpt>
      <trkpt lat="44.06879" lon="6.41513">
        <ele>1050.2</ele>
        <time>2021-09-12T07:49:51Z</time>
      </trkpt>
      <trkpt lat="44.06872" lon="6.41515">
        <ele>1050.7</ele>
        <time>2021-09-12T07:49:54Z</time>
      </trkpt>
      <trkpt lat="44.06867" lon="6.41517">
        <ele>1051.1</ele>
        <time>2021-09-12T07:49:56Z</time>
      </trkpt>
      <trkpt lat="44.06864" lon="6.4152">
        <ele>1051.4</ele>
        <time>2021-09-12T07:49:59Z</time>
      </trkpt>
      <trkpt lat="44.06861" lon="6.41525">
        <ele>1051.8</ele>
        <time>2021-09-12T07:50:01Z</time>
      </trkpt>
      <trkpt lat="44.06862" lon="6.41529">
        <ele>1052</ele>
        <time>2021-09-12T07:50:03Z</time>
      </trkpt>
      <trkpt lat="44.06861" lon="6.41531">
        <ele>1052.1</ele>
        <time>2021-09-12T07:50:04Z</time>
      </trkpt>
      <trkpt lat="44.06859" lon="6.41533">
        <ele>1052.3</ele>
        <time>2021-09-12T07:50:05Z</time>
      </trkpt>
      <trkpt lat="44.06855" lon="6.41536">
        <ele>1052.7</ele>
        <time>2021-09-12T07:50:08Z</time>
      </trkpt>
      <trkpt lat="44.06852" lon="6.41538">
        <ele>1053</ele>
        <time>2021-09-12T07:50:09Z</time>
      </trkpt>
      <trkpt lat="44.06849" lon="6.4154">
        <ele>1053.4</ele>
        <time>2021-09-12T07:50:12Z</time>
      </trkpt>
      <trkpt lat="44.06847" lon="6.4154">
        <ele>1053.6</ele>
        <time>2021-09-12T07:50:13Z</time>
      </trkpt>
      <trkpt lat="44.06844" lon="6.41542">
        <ele>1053.9</ele>
        <time>2021-09-12T07:50:15Z</time>
      </trkpt>
      <trkpt lat="44.0684" lon="6.41544">
        <ele>1054.3</ele>
        <time>2021-09-12T07:50:18Z</time>
      </trkpt>
      <trkpt lat="44.06837" lon="6.41547">
        <ele>1054.7</ele>
        <time>2021-09-12T07:50:21Z</time>
      </trkpt>
      <trkpt lat="44.06835" lon="6.41549">
        <ele>1054.9</ele>
        <time>2021-09-12T07:50:23Z</time>
      </trkpt>
      <trkpt lat="44.06832" lon="6.41551">
        <ele>1055.2</ele>
        <time>2021-09-12T07:50:26Z</time>
      </trkpt>
      <trkpt lat="44.06829" lon="6.41554">
        <ele>1055.5</ele>
        <time>2021-09-12T07:50:29Z</time>
      </trkpt>
      <trkpt lat="44.06825" lon="6.41556">
        <ele>1055.9</ele>
        <time>2021-09-12T07:50:33Z</time>
      </trkpt>
      <trkpt lat="44.06822" lon="6.41557">
        <ele>1056.2</ele>
        <time>2021-09-12T07:50:36Z</time>
      </trkpt>
      <trkpt lat="44.06821" lon="6.41558">
        <ele>1056.3</ele>
        <time>2021-09-12T07:50:37Z</time>
      </trkpt>
      <trkpt lat="44.06819" lon="6.41559">
        <ele>1056.5</ele>
        <time>2021-09-12T07:50:39Z</time>
      </trkpt>
      <trkpt lat="44.06815" lon="6.41559">
        <ele>1056.8</ele>
        <time>2021-09-12T07:50:43Z</time>
      </trkpt>
      <trkpt lat="44.06812" lon="6.41558">
        <ele>1057.2</ele>
        <time>2021-09-12T07:50:46Z</time>
      </trkpt>
      <trkpt lat="44.06811" lon="6.41558">
        <ele>1057.3</ele>
        <time>2021-09-12T07:50:47Z</time>
      </trkpt>
      <trkpt lat="44.06809" lon="6.41557">
        <ele>1057.4</ele>
        <time>2021-09-12T07:50:49Z</time>
      </trkpt>
      <trkpt lat="44.06805" lon="6.41555">
        <ele>1057.8</ele>
        <time>2021-09-12T07:50:52Z</time>
      </trkpt>
      <trkpt lat="44.06801" lon="6.41552">
        <ele>1058.2</ele>
        <time>2021-09-12T07:50:56Z</time>
      </trkpt>
      <trkpt lat="44.068" lon="6.41552">
        <ele>1058.3</ele>
        <time>2021-09-12T07:50:57Z</time>
      </trkpt>
      <trkpt lat="44.06799" lon="6.41551">
        <ele>1058.4</ele>
        <time>2021-09-12T07:50:58Z</time>
      </trkpt>
      <trkpt lat="44.06797" lon="6.41549">
        <ele>1058.6</ele>
        <time>2021-09-12T07:50:59Z</time>
      </trkpt>
      <trkpt lat="44.06795" lon="6.41546">
        <ele>1058.9</ele>
        <time>2021-09-12T07:51:01Z</time>
      </trkpt>
      <trkpt lat="44.06793" lon="6.41543">
        <ele>1059.1</ele>
        <time>2021-09-12T07:51:03Z</time>
      </trkpt>
      <trkpt lat="44.06792" lon="6.41541">
        <ele>1059.3</ele>
        <time>2021-09-12T07:51:04Z</time>
      </trkpt>
      <trkpt lat="44.06791" lon="6.41536">
        <ele>1059.6</ele>
        <time>2021-09-12T07:51:07Z</time>
      </trkpt>
      <trkpt lat="44.06792" lon="6.41532">
        <ele>1059.8</ele>
        <time>2021-09-12T07:51:10Z</time>
      </trkpt>
      <trkpt lat="44.06791" lon="6.4153">
        <ele>1059.9</ele>
        <time>2021-09-12T07:51:11Z</time>
      </trkpt>
      <trkpt lat="44.0679" lon="6.41525">
        <ele>1060.3</ele>
        <time>2021-09-12T07:51:14Z</time>
      </trkpt>
      <trkpt lat="44.06789" lon="6.4152">
        <ele>1060.6</ele>
        <time>2021-09-12T07:51:17Z</time>
      </trkpt>
      <trkpt lat="44.06789" lon="6.41517">
        <ele>1060.8</ele>
        <time>2021-09-12T07:51:19Z</time>
      </trkpt>
      <trkpt lat="44.06787" lon="6.41512">
        <ele>1061.1</ele>
        <time>2021-09-12T07:51:22Z</time>
      </trkpt>
      <trkpt lat="44.06786" lon="6.4151">
        <ele>1061.3</ele>
        <time>2021-09-12T07:51:23Z</time>
      </trkpt>
      <trkpt lat="44.06785" lon="6.41508">
        <ele>1061.4</ele>
        <time>2021-09-12T07:51:24Z</time>
      </trkpt>
      <trkpt lat="44.06785" lon="6.41507">
        <ele>1061.4</ele>
        <time>2021-09-12T07:51:25Z</time>
      </trkpt>
      <trkpt lat="44.06783" lon="6.41504">
        <ele>1061.6</ele>
        <time>2021-09-12T07:51:27Z</time>
      </trkpt>
      <trkpt lat="44.06781" lon="6.41501">
        <ele>1061.9</ele>
        <time>2021-09-12T07:51:29Z</time>
      </trkpt>
      <trkpt lat="44.06777" lon="6.41498">
        <ele>1062.2</ele>
        <time>2021-09-12T07:51:32Z</time>
      </trkpt>
      <trkpt lat="44.06773" lon="6.41496">
        <ele>1062.5</ele>
        <time>2021-09-12T07:51:34Z</time>
      </trkpt>
      <trkpt lat="44.06769" lon="6.41494">
        <ele>1062.8</ele>
        <time>2021-09-12T07:51:37Z</time>
      </trkpt>
      <trkpt lat="44.06767" lon="6.41494">
        <ele>1063</ele>
        <time>2021-09-12T07:51:38Z</time>
      </trkpt>
      <trkpt lat="44.06762" lon="6.41494">
        <ele>1063.3</ele>
        <time>2021-09-12T07:51:41Z</time>
      </trkpt>
      <trkpt lat="44.06759" lon="6.41494">
        <ele>1063.6</ele>
        <time>2021-09-12T07:51:43Z</time>
      </trkpt>
      <trkpt lat="44.06756" lon="6.41495">
        <ele>1063.8</ele>
        <time>2021-09-12T07:51:45Z</time>
      </trkpt>
      <trkpt lat="44.06752" lon="6.41496">
        <ele>1064.1</ele>
        <time>2021-09-12T07:51:47Z</time>
      </trkpt>
      <trkpt lat="44.0675" lon="6.41497">
        <ele>1064.2</ele>
        <time>2021-09-12T07:51:48Z</time>
      </trkpt>
      <trkpt lat="44.06749" lon="6.41497">
        <ele>1064.4</ele>
        <time>2021-09-12T07:51:49Z</time>
      </trkpt>
      <trkpt lat="44.06748" lon="6.41497">
        <ele>1064.4</ele>
        <time>2021-09-12T07:51:50Z</time>
      </trkpt>
      <trkpt lat="44.06745" lon="6.41496">
        <ele>1064.8</ele>
        <time>2021-09-12T07:51:51Z</time>
      </trkpt>
      <trkpt lat="44.06742" lon="6.41496">
        <ele>1065</ele>
        <time>2021-09-12T07:51:53Z</time>
      </trkpt>
      <trkpt lat="44.06738" lon="6.41496">
        <ele>1065.2</ele>
        <time>2021-09-12T07:51:55Z</time>
      </trkpt>
      <trkpt lat="44.06735" lon="6.41496">
        <ele>1065.4</ele>
        <time>2021-09-12T07:51:57Z</time>
      </trkpt>
      <trkpt lat="44.06733" lon="6.41496">
        <ele>1065.5</ele>
        <time>2021-09-12T07:51:58Z</time>
      </trkpt>
      <trkpt lat="44.0673" lon="6.41495">
        <ele>1065.7</ele>
        <time>2021-09-12T07:52:00Z</time>
      </trkpt>
      <trkpt lat="44.06728" lon="6.41495">
        <ele>1065.9</ele>
        <time>2021-09-12T07:52:01Z</time>
      </trkpt>
      <trkpt lat="44.06725" lon="6.41494">
        <ele>1066.1</ele>
        <time>2021-09-12T07:52:03Z</time>
      </trkpt>
      <trkpt lat="44.06721" lon="6.41493">
        <ele>1066.3</ele>
        <time>2021-09-12T07:52:05Z</time>
      </trkpt>
      <trkpt lat="44.0672" lon="6.41492">
        <ele>1066.4</ele>
        <time>2021-09-12T07:52:06Z</time>
      </trkpt>
      <trkpt lat="44.06717" lon="6.41491">
        <ele>1066.7</ele>
        <time>2021-09-12T07:52:08Z</time>
      </trkpt>
      <trkpt lat="44.06712" lon="6.41489">
        <ele>1066.9</ele>
        <time>2021-09-12T07:52:10Z</time>
      </trkpt>
      <trkpt lat="44.06711" lon="6.41489">
        <ele>1067.1</ele>
        <time>2021-09-12T07:52:11Z</time>
      </trkpt>
      <trkpt lat="44.06707" lon="6.41489">
        <ele>1067.3</ele>
        <time>2021-09-12T07:52:13Z</time>
      </trkpt>
      <trkpt lat="44.06705" lon="6.41488">
        <ele>1067.4</ele>
        <time>2021-09-12T07:52:14Z</time>
      </trkpt>
      <trkpt lat="44.06704" lon="6.41488">
        <ele>1067.5</ele>
        <time>2021-09-12T07:52:15Z</time>
      </trkpt>
      <trkpt lat="44.06701" lon="6.41488">
        <ele>1067.7</ele>
        <time>2021-09-12T07:52:16Z</time>
      </trkpt>
      <trkpt lat="44.067" lon="6.41488">
        <ele>1067.8</ele>
        <time>2021-09-12T07:52:17Z</time>
      </trkpt>
      <trkpt lat="44.06695" lon="6.41488">
        <ele>1068.1</ele>
        <time>2021-09-12T07:52:19Z</time>
      </trkpt>
      <trkpt lat="44.06694" lon="6.41488">
        <ele>1068.2</ele>
        <time>2021-09-12T07:52:20Z</time>
      </trkpt>
      <trkpt lat="44.06691" lon="6.41488">
        <ele>1068.4</ele>
        <time>2021-09-12T07:52:21Z</time>
      </trkpt>
      <trkpt lat="44.06689" lon="6.41487">
        <ele>1068.6</ele>
        <time>2021-09-12T07:52:23Z</time>
      </trkpt>
      <trkpt lat="44.06687" lon="6.41488">
        <ele>1068.8</ele>
        <time>2021-09-12T07:52:24Z</time>
      </trkpt>
      <trkpt lat="44.06684" lon="6.41488">
        <ele>1069</ele>
        <time>2021-09-12T07:52:26Z</time>
      </trkpt>
      <trkpt lat="44.06681" lon="6.41488">
        <ele>1069.2</ele>
        <time>2021-09-12T07:52:28Z</time>
      </trkpt>
      <trkpt lat="44.06678" lon="6.41489">
        <ele>1069.4</ele>
        <time>2021-09-12T07:52:29Z</time>
      </trkpt>
      <trkpt lat="44.06675" lon="6.4149">
        <ele>1069.6</ele>
        <time>2021-09-12T07:52:31Z</time>
      </trkpt>
      <trkpt lat="44.06673" lon="6.41492">
        <ele>1069.8</ele>
        <time>2021-09-12T07:52:33Z</time>
      </trkpt>
      <trkpt lat="44.06669" lon="6.41496">
        <ele>1070.1</ele>
        <time>2021-09-12T07:52:36Z</time>
      </trkpt>
      <trkpt lat="44.06668" lon="6.41498">
        <ele>1070.2</ele>
        <time>2021-09-12T07:52:37Z</time>
      </trkpt>
      <trkpt lat="44.06667" lon="6.41499">
        <ele>1070.3</ele>
        <time>2021-09-12T07:52:38Z</time>
      </trkpt>
      <trkpt lat="44.06665" lon="6.41504">
        <ele>1070.5</ele>
        <time>2021-09-12T07:52:40Z</time>
      </trkpt>
      <trkpt lat="44.06665" lon="6.41506">
        <ele>1070.6</ele>
        <time>2021-09-12T07:52:41Z</time>
      </trkpt>
      <trkpt lat="44.06666" lon="6.41508">
        <ele>1070.7</ele>
        <time>2021-09-12T07:52:42Z</time>
      </trkpt>
      <trkpt lat="44.06667" lon="6.41512">
        <ele>1070.9</ele>
        <time>2021-09-12T07:52:44Z</time>
      </trkpt>
      <trkpt lat="44.06667" lon="6.41516">
        <ele>1071.1</ele>
        <time>2021-09-12T07:52:45Z</time>
      </trkpt>
      <trkpt lat="44.06668" lon="6.41519">
        <ele>1071.2</ele>
        <time>2021-09-12T07:52:46Z</time>
      </trkpt>
      <trkpt lat="44.0667" lon="6.41523">
        <ele>1071.4</ele>
        <time>2021-09-12T07:52:48Z</time>
      </trkpt>
      <trkpt lat="44.06671" lon="6.41527">
        <ele>1071.6</ele>
        <time>2021-09-12T07:52:50Z</time>
      </trkpt>
      <trkpt lat="44.06672" lon="6.41533">
        <ele>1071.9</ele>
        <time>2021-09-12T07:52:52Z</time>
      </trkpt>
      <trkpt lat="44.06674" lon="6.41538">
        <ele>1072.1</ele>
        <time>2021-09-12T07:52:54Z</time>
      </trkpt>
      <trkpt lat="44.06674" lon="6.41542">
        <ele>1072.3</ele>
        <time>2021-09-12T07:52:56Z</time>
      </trkpt>
      <trkpt lat="44.06674" lon="6.41545">
        <ele>1072.5</ele>
        <time>2021-09-12T07:52:57Z</time>
      </trkpt>
      <trkpt lat="44.06675" lon="6.4155">
        <ele>1072.7</ele>
        <time>2021-09-12T07:52:58Z</time>
      </trkpt>
      <trkpt lat="44.06675" lon="6.41555">
        <ele>1073</ele>
        <time>2021-09-12T07:53:00Z</time>
      </trkpt>
      <trkpt lat="44.06675" lon="6.41556">
        <ele>1073</ele>
        <time>2021-09-12T07:53:01Z</time>
      </trkpt>
      <trkpt lat="44.06674" lon="6.41562">
        <ele>1073.3</ele>
        <time>2021-09-12T07:53:03Z</time>
      </trkpt>
      <trkpt lat="44.06672" lon="6.41567">
        <ele>1073.6</ele>
        <time>2021-09-12T07:53:05Z</time>
      </trkpt>
      <trkpt lat="44.0667" lon="6.41571">
        <ele>1073.8</ele>
        <time>2021-09-12T07:53:07Z</time>
      </trkpt>
      <trkpt lat="44.06669" lon="6.41574">
        <ele>1074</ele>
        <time>2021-09-12T07:53:08Z</time>
      </trkpt>
      <trkpt lat="44.06666" lon="6.41579">
        <ele>1074.3</ele>
        <time>2021-09-12T07:53:10Z</time>
      </trkpt>
      <trkpt lat="44.06664" lon="6.41582">
        <ele>1074.5</ele>
        <time>2021-09-12T07:53:12Z</time>
      </trkpt>
      <trkpt lat="44.0666" lon="6.41587">
        <ele>1074.9</ele>
        <time>2021-09-12T07:53:14Z</time>
      </trkpt>
      <trkpt lat="44.06657" lon="6.4159">
        <ele>1075.1</ele>
        <time>2021-09-12T07:53:16Z</time>
      </trkpt>
      <trkpt lat="44.06654" lon="6.41593">
        <ele>1075.4</ele>
        <time>2021-09-12T07:53:18Z</time>
      </trkpt>
      <trkpt lat="44.06653" lon="6.41594">
        <ele>1075.5</ele>
        <time>2021-09-12T07:53:19Z</time>
      </trkpt>
      <trkpt lat="44.0665" lon="6.41596">
        <ele>1075.7</ele>
        <time>2021-09-12T07:53:21Z</time>
      </trkpt>
      <trkpt lat="44.06646" lon="6.41597">
        <ele>1076</ele>
        <time>2021-09-12T07:53:23Z</time>
      </trkpt>
      <trkpt lat="44.06643" lon="6.41598">
        <ele>1076.2</ele>
        <time>2021-09-12T07:53:25Z</time>
      </trkpt>
      <trkpt lat="44.06638" lon="6.41601">
        <ele>1076.5</ele>
        <time>2021-09-12T07:53:27Z</time>
      </trkpt>
      <trkpt lat="44.06635" lon="6.41602">
        <ele>1076.7</ele>
        <time>2021-09-12T07:53:30Z</time>
      </trkpt>
      <trkpt lat="44.06632" lon="6.41602">
        <ele>1076.9</ele>
        <time>2021-09-12T07:53:31Z</time>
      </trkpt>
      <trkpt lat="44.06629" lon="6.41603">
        <ele>1077.2</ele>
        <time>2021-09-12T07:53:33Z</time>
      </trkpt>
      <trkpt lat="44.06625" lon="6.41604">
        <ele>1077.4</ele>
        <time>2021-09-12T07:53:35Z</time>
      </trkpt>
      <trkpt lat="44.06621" lon="6.41605">
        <ele>1077.7</ele>
        <time>2021-09-12T07:53:37Z</time>
      </trkpt>
      <trkpt lat="44.06618" lon="6.41604">
        <ele>1077.9</ele>
        <time>2021-09-12T07:53:39Z</time>
      </trkpt>
      <trkpt lat="44.06613" lon="6.41603">
        <ele>1078.2</ele>
        <time>2021-09-12T07:53:41Z</time>
      </trkpt>
      <trkpt lat="44.06609" lon="6.41602">
        <ele>1078.6</ele>
        <time>2021-09-12T07:53:44Z</time>
      </trkpt>
      <trkpt lat="44.06605" lon="6.41601">
        <ele>1078.8</ele>
        <time>2021-09-12T07:53:45Z</time>
      </trkpt>
      <trkpt lat="44.06604" lon="6.416">
        <ele>1078.9</ele>
        <time>2021-09-12T07:53:46Z</time>
      </trkpt>
      <trkpt lat="44.066" lon="6.41599">
        <ele>1079.2</ele>
        <time>2021-09-12T07:53:48Z</time>
      </trkpt>
      <trkpt lat="44.06598" lon="6.41597">
        <ele>1079.3</ele>
        <time>2021-09-12T07:53:49Z</time>
      </trkpt>
      <trkpt lat="44.06595" lon="6.41596">
        <ele>1079.5</ele>
        <time>2021-09-12T07:53:51Z</time>
      </trkpt>
      <trkpt lat="44.06592" lon="6.41595">
        <ele>1079.7</ele>
        <time>2021-09-12T07:53:52Z</time>
      </trkpt>
      <trkpt lat="44.06592" lon="6.41594">
        <ele>1079.8</ele>
        <time>2021-09-12T07:53:53Z</time>
      </trkpt>
      <trkpt lat="44.06588" lon="6.41593">
        <ele>1080.1</ele>
        <time>2021-09-12T07:53:55Z</time>
      </trkpt>
      <trkpt lat="44.06585" lon="6.41591">
        <ele>1080.3</ele>
        <time>2021-09-12T07:53:57Z</time>
      </trkpt>
      <trkpt lat="44.06582" lon="6.4159">
        <ele>1080.5</ele>
        <time>2021-09-12T07:53:58Z</time>
      </trkpt>
      <trkpt lat="44.06579" lon="6.41588">
        <ele>1080.7</ele>
        <time>2021-09-12T07:54:00Z</time>
      </trkpt>
      <trkpt lat="44.06574" lon="6.41587">
        <ele>1081</ele>
        <time>2021-09-12T07:54:03Z</time>
      </trkpt>
      <trkpt lat="44.06572" lon="6.41586">
        <ele>1081.2</ele>
        <time>2021-09-12T07:54:04Z</time>
      </trkpt>
      <trkpt lat="44.06571" lon="6.41586">
        <ele>1081.3</ele>
        <time>2021-09-12T07:54:05Z</time>
      </trkpt>
      <trkpt lat="44.06569" lon="6.41585">
        <ele>1081.4</ele>
        <time>2021-09-12T07:54:06Z</time>
      </trkpt>
      <trkpt lat="44.06565" lon="6.41584">
        <ele>1081.6</ele>
        <time>2021-09-12T07:54:08Z</time>
      </trkpt>
      <trkpt lat="44.06562" lon="6.41583">
        <ele>1081.9</ele>
        <time>2021-09-12T07:54:10Z</time>
      </trkpt>
      <trkpt lat="44.06558" lon="6.41583">
        <ele>1082.2</ele>
        <time>2021-09-12T07:54:12Z</time>
      </trkpt>
      <trkpt lat="44.06555" lon="6.41583">
        <ele>1082.4</ele>
        <time>2021-09-12T07:54:14Z</time>
      </trkpt>
      <trkpt lat="44.06551" lon="6.41583">
        <ele>1082.7</ele>
        <time>2021-09-12T07:54:16Z</time>
      </trkpt>
      <trkpt lat="44.06547" lon="6.41584">
        <ele>1082.9</ele>
        <time>2021-09-12T07:54:19Z</time>
      </trkpt>
      <trkpt lat="44.06543" lon="6.41587">
        <ele>1083.3</ele>
        <time>2021-09-12T07:54:21Z</time>
      </trkpt>
      <trkpt lat="44.06541" lon="6.41587">
        <ele>1083.4</ele>
        <time>2021-09-12T07:54:23Z</time>
      </trkpt>
      <trkpt lat="44.06538" lon="6.41589">
        <ele>1083.7</ele>
        <time>2021-09-12T07:54:25Z</time>
      </trkpt>
      <trkpt lat="44.06534" lon="6.4159">
        <ele>1083.9</ele>
        <time>2021-09-12T07:54:26Z</time>
      </trkpt>
      <trkpt lat="44.06533" lon="6.4159">
        <ele>1084</ele>
        <time>2021-09-12T07:54:27Z</time>
      </trkpt>
      <trkpt lat="44.06531" lon="6.4159">
        <ele>1084.1</ele>
        <time>2021-09-12T07:54:28Z</time>
      </trkpt>
      <trkpt lat="44.0653" lon="6.4159">
        <ele>1084.2</ele>
        <time>2021-09-12T07:54:29Z</time>
      </trkpt>
      <trkpt lat="44.06528" lon="6.41591">
        <ele>1084.3</ele>
        <time>2021-09-12T07:54:30Z</time>
      </trkpt>
      <trkpt lat="44.06526" lon="6.41592">
        <ele>1084.5</ele>
        <time>2021-09-12T07:54:31Z</time>
      </trkpt>
      <trkpt lat="44.06526" lon="6.41594">
        <ele>1084.6</ele>
        <time>2021-09-12T07:54:32Z</time>
      </trkpt>
      <trkpt lat="44.06527" lon="6.41596">
        <ele>1084.7</ele>
        <time>2021-09-12T07:54:33Z</time>
      </trkpt>
      <trkpt lat="44.06527" lon="6.41597">
        <ele>1084.7</ele>
        <time>2021-09-12T07:54:34Z</time>
      </trkpt>
      <trkpt lat="44.06527" lon="6.416">
        <ele>1084.9</ele>
        <time>2021-09-12T07:54:35Z</time>
      </trkpt>
      <trkpt lat="44.06527" lon="6.41603">
        <ele>1085</ele>
        <time>2021-09-12T07:54:36Z</time>
      </trkpt>
      <trkpt lat="44.06527" lon="6.41607">
        <ele>1085.2</ele>
        <time>2021-09-12T07:54:38Z</time>
      </trkpt>
      <trkpt lat="44.06526" lon="6.41611">
        <ele>1085.5</ele>
        <time>2021-09-12T07:54:40Z</time>
      </trkpt>
      <trkpt lat="44.06524" lon="6.41619">
        <ele>1085.9</ele>
        <time>2021-09-12T07:54:43Z</time>
      </trkpt>
      <trkpt lat="44.06524" lon="6.41623">
        <ele>1086.1</ele>
        <time>2021-09-12T07:54:44Z</time>
      </trkpt>
      <trkpt lat="44.06524" lon="6.41628">
        <ele>1086.4</ele>
        <time>2021-09-12T07:54:46Z</time>
      </trkpt>
      <trkpt lat="44.06524" lon="6.41635">
        <ele>1086.7</ele>
        <time>2021-09-12T07:54:49Z</time>
      </trkpt>
      <trkpt lat="44.06524" lon="6.41642">
        <ele>1087.1</ele>
        <time>2021-09-12T07:54:52Z</time>
      </trkpt>
      <trkpt lat="44.06524" lon="6.41646">
        <ele>1087.3</ele>
        <time>2021-09-12T07:54:53Z</time>
      </trkpt>
      <trkpt lat="44.06524" lon="6.4165">
        <ele>1087.5</ele>
        <time>2021-09-12T07:54:55Z</time>
      </trkpt>
      <trkpt lat="44.06522" lon="6.41656">
        <ele>1087.9</ele>
        <time>2021-09-12T07:54:58Z</time>
      </trkpt>
      <trkpt lat="44.06521" lon="6.41662">
        <ele>1088.2</ele>
        <time>2021-09-12T07:55:00Z</time>
      </trkpt>
      <trkpt lat="44.0652" lon="6.41665">
        <ele>1088.4</ele>
        <time>2021-09-12T07:55:02Z</time>
      </trkpt>
      <trkpt lat="44.06518" lon="6.41671">
        <ele>1088.8</ele>
        <time>2021-09-12T07:55:04Z</time>
      </trkpt>
      <trkpt lat="44.06516" lon="6.41676">
        <ele>1089</ele>
        <time>2021-09-12T07:55:07Z</time>
      </trkpt>
      <trkpt lat="44.06514" lon="6.41678">
        <ele>1089.2</ele>
        <time>2021-09-12T07:55:08Z</time>
      </trkpt>
      <trkpt lat="44.06512" lon="6.41682">
        <ele>1089.5</ele>
        <time>2021-09-12T07:55:10Z</time>
      </trkpt>
      <trkpt lat="44.06508" lon="6.41684">
        <ele>1089.7</ele>
        <time>2021-09-12T07:55:12Z</time>
      </trkpt>
      <trkpt lat="44.06508" lon="6.41685">
        <ele>1089.8</ele>
        <time>2021-09-12T07:55:13Z</time>
      </trkpt>
      <trkpt lat="44.06505" lon="6.41689">
        <ele>1090.1</ele>
        <time>2021-09-12T07:55:15Z</time>
      </trkpt>
      <trkpt lat="44.06502" lon="6.41693">
        <ele>1090.4</ele>
        <time>2021-09-12T07:55:18Z</time>
      </trkpt>
      <trkpt lat="44.06499" lon="6.41697">
        <ele>1090.6</ele>
        <time>2021-09-12T07:55:20Z</time>
      </trkpt>
      <trkpt lat="44.06497" lon="6.417">
        <ele>1090.9</ele>
        <time>2021-09-12T07:55:22Z</time>
      </trkpt>
      <trkpt lat="44.06496" lon="6.41701">
        <ele>1090.9</ele>
        <time>2021-09-12T07:55:23Z</time>
      </trkpt>
      <trkpt lat="44.06495" lon="6.41703">
        <ele>1091.1</ele>
        <time>2021-09-12T07:55:24Z</time>
      </trkpt>
      <trkpt lat="44.06494" lon="6.41707">
        <ele>1091.3</ele>
        <time>2021-09-12T07:55:25Z</time>
      </trkpt>
      <trkpt lat="44.06492" lon="6.41713">
        <ele>1091.6</ele>
        <time>2021-09-12T07:55:27Z</time>
      </trkpt>
      <trkpt lat="44.06491" lon="6.4172">
        <ele>1092</ele>
        <time>2021-09-12T07:55:30Z</time>
      </trkpt>
      <trkpt lat="44.0649" lon="6.41722">
        <ele>1092.1</ele>
        <time>2021-09-12T07:55:31Z</time>
      </trkpt>
      <trkpt lat="44.0649" lon="6.41724">
        <ele>1092.2</ele>
        <time>2021-09-12T07:55:32Z</time>
      </trkpt>
      <trkpt lat="44.0649" lon="6.41727">
        <ele>1092.3</ele>
        <time>2021-09-12T07:55:33Z</time>
      </trkpt>
      <trkpt lat="44.06489" lon="6.41733">
        <ele>1092.6</ele>
        <time>2021-09-12T07:55:35Z</time>
      </trkpt>
      <trkpt lat="44.06489" lon="6.41737">
        <ele>1092.8</ele>
        <time>2021-09-12T07:55:37Z</time>
      </trkpt>
      <trkpt lat="44.06488" lon="6.4174">
        <ele>1093</ele>
        <time>2021-09-12T07:55:38Z</time>
      </trkpt>
      <trkpt lat="44.06487" lon="6.41744">
        <ele>1093.2</ele>
        <time>2021-09-12T07:55:39Z</time>
      </trkpt>
      <trkpt lat="44.06486" lon="6.41746">
        <ele>1093.3</ele>
        <time>2021-09-12T07:55:40Z</time>
      </trkpt>
      <trkpt lat="44.06485" lon="6.41751">
        <ele>1093.6</ele>
        <time>2021-09-12T07:55:42Z</time>
      </trkpt>
      <trkpt lat="44.06484" lon="6.41753">
        <ele>1093.7</ele>
        <time>2021-09-12T07:55:43Z</time>
      </trkpt>
      <trkpt lat="44.06482" lon="6.41757">
        <ele>1093.9</ele>
        <time>2021-09-12T07:55:45Z</time>
      </trkpt>
      <trkpt lat="44.06481" lon="6.4176">
        <ele>1094.1</ele>
        <time>2021-09-12T07:55:46Z</time>
      </trkpt>
      <trkpt lat="44.06479" lon="6.41764">
        <ele>1094.4</ele>
        <time>2021-09-12T07:55:48Z</time>
      </trkpt>
      <trkpt lat="44.06478" lon="6.41767">
        <ele>1094.5</ele>
        <time>2021-09-12T07:55:50Z</time>
      </trkpt>
      <trkpt lat="44.06476" lon="6.41771">
        <ele>1094.8</ele>
        <time>2021-09-12T07:55:52Z</time>
      </trkpt>
      <trkpt lat="44.06475" lon="6.41774">
        <ele>1095</ele>
        <time>2021-09-12T07:55:53Z</time>
      </trkpt>
      <trkpt lat="44.06473" lon="6.41777">
        <ele>1095.2</ele>
        <time>2021-09-12T07:55:55Z</time>
      </trkpt>
      <trkpt lat="44.06471" lon="6.41783">
        <ele>1095.5</ele>
        <time>2021-09-12T07:55:57Z</time>
      </trkpt>
      <trkpt lat="44.06469" lon="6.41786">
        <ele>1095.7</ele>
        <time>2021-09-12T07:55:59Z</time>
      </trkpt>
      <trkpt lat="44.06467" lon="6.41789">
        <ele>1095.9</ele>
        <time>2021-09-12T07:56:01Z</time>
      </trkpt>
      <trkpt lat="44.06465" lon="6.41794">
        <ele>1096.2</ele>
        <time>2021-09-12T07:56:03Z</time>
      </trkpt>
      <trkpt lat="44.06464" lon="6.41797">
        <ele>1096.3</ele>
        <time>2021-09-12T07:56:04Z</time>
      </trkpt>
      <trkpt lat="44.06463" lon="6.41799">
        <ele>1096.4</ele>
        <time>2021-09-12T07:56:05Z</time>
      </trkpt>
      <trkpt lat="44.06462" lon="6.41801">
        <ele>1096.6</ele>
        <time>2021-09-12T07:56:06Z</time>
      </trkpt>
      <trkpt lat="44.06461" lon="6.41803">
        <ele>1096.7</ele>
        <time>2021-09-12T07:56:07Z</time>
      </trkpt>
      <trkpt lat="44.0646" lon="6.41807">
        <ele>1096.9</ele>
        <time>2021-09-12T07:56:09Z</time>
      </trkpt>
      <trkpt lat="44.06459" lon="6.4181">
        <ele>1097.1</ele>
        <time>2021-09-12T07:56:11Z</time>
      </trkpt>
      <trkpt lat="44.06457" lon="6.41813">
        <ele>1097.2</ele>
        <time>2021-09-12T07:56:12Z</time>
      </trkpt>
      <trkpt lat="44.06457" lon="6.41815">
        <ele>1097.3</ele>
        <time>2021-09-12T07:56:13Z</time>
      </trkpt>
      <trkpt lat="44.06456" lon="6.41818">
        <ele>1097.5</ele>
        <time>2021-09-12T07:56:14Z</time>
      </trkpt>
      <trkpt lat="44.06454" lon="6.41821">
        <ele>1097.7</ele>
        <time>2021-09-12T07:56:16Z</time>
      </trkpt>
      <trkpt lat="44.06453" lon="6.41823">
        <ele>1097.8</ele>
        <time>2021-09-12T07:56:17Z</time>
      </trkpt>
      <trkpt lat="44.0645" lon="6.41826">
        <ele>1098</ele>
        <time>2021-09-12T07:56:18Z</time>
      </trkpt>
      <trkpt lat="44.06448" lon="6.41828">
        <ele>1098.2</ele>
        <time>2021-09-12T07:56:20Z</time>
      </trkpt>
      <trkpt lat="44.06446" lon="6.4183">
        <ele>1098.3</ele>
        <time>2021-09-12T07:56:21Z</time>
      </trkpt>
      <trkpt lat="44.06443" lon="6.41832">
        <ele>1098.5</ele>
        <time>2021-09-12T07:56:23Z</time>
      </trkpt>
      <trkpt lat="44.06441" lon="6.41833">
        <ele>1098.7</ele>
        <time>2021-09-12T07:56:24Z</time>
      </trkpt>
      <trkpt lat="44.06439" lon="6.41835">
        <ele>1098.8</ele>
        <time>2021-09-12T07:56:25Z</time>
      </trkpt>
      <trkpt lat="44.06437" lon="6.41837">
        <ele>1099</ele>
        <time>2021-09-12T07:56:27Z</time>
      </trkpt>
      <trkpt lat="44.06433" lon="6.41842">
        <ele>1099.2</ele>
        <time>2021-09-12T07:56:29Z</time>
      </trkpt>
      <trkpt lat="44.06431" lon="6.41845">
        <ele>1099.4</ele>
        <time>2021-09-12T07:56:31Z</time>
      </trkpt>
      <trkpt lat="44.06426" lon="6.4185">
        <ele>1099.8</ele>
        <time>2021-09-12T07:56:33Z</time>
      </trkpt>
      <trkpt lat="44.06424" lon="6.41854">
        <ele>1099.9</ele>
        <time>2021-09-12T07:56:35Z</time>
      </trkpt>
      <trkpt lat="44.06422" lon="6.41856">
        <ele>1100.1</ele>
        <time>2021-09-12T07:56:36Z</time>
      </trkpt>
      <trkpt lat="44.06419" lon="6.41861">
        <ele>1100.4</ele>
        <time>2021-09-12T07:56:38Z</time>
      </trkpt>
      <trkpt lat="44.06417" lon="6.41863">
        <ele>1100.5</ele>
        <time>2021-09-12T07:56:39Z</time>
      </trkpt>
      <trkpt lat="44.06414" lon="6.41867">
        <ele>1100.8</ele>
        <time>2021-09-12T07:56:41Z</time>
      </trkpt>
      <trkpt lat="44.06415" lon="6.4187">
        <ele>1100.9</ele>
        <time>2021-09-12T07:56:42Z</time>
      </trkpt>
      <trkpt lat="44.06413" lon="6.41878">
        <ele>1101.3</ele>
        <time>2021-09-12T07:56:45Z</time>
      </trkpt>
      <trkpt lat="44.06412" lon="6.41884">
        <ele>1101.6</ele>
        <time>2021-09-12T07:56:47Z</time>
      </trkpt>
      <trkpt lat="44.06411" lon="6.41888">
        <ele>1101.9</ele>
        <time>2021-09-12T07:56:49Z</time>
      </trkpt>
      <trkpt lat="44.0641" lon="6.4189">
        <ele>1102</ele>
        <time>2021-09-12T07:56:50Z</time>
      </trkpt>
      <trkpt lat="44.06409" lon="6.41893">
        <ele>1102.1</ele>
        <time>2021-09-12T07:56:51Z</time>
      </trkpt>
      <trkpt lat="44.06408" lon="6.41898">
        <ele>1102.4</ele>
        <time>2021-09-12T07:56:53Z</time>
      </trkpt>
      <trkpt lat="44.06408" lon="6.419">
        <ele>1102.5</ele>
        <time>2021-09-12T07:56:54Z</time>
      </trkpt>
      <trkpt lat="44.06413" lon="6.41911">
        <ele>1103.2</ele>
        <time>2021-09-12T07:56:59Z</time>
      </trkpt>
      <trkpt lat="44.06415" lon="6.41917">
        <ele>1103.5</ele>
        <time>2021-09-12T07:57:02Z</time>
      </trkpt>
      <trkpt lat="44.06416" lon="6.4192">
        <ele>1103.7</ele>
        <time>2021-09-12T07:57:04Z</time>
      </trkpt>
      <trkpt lat="44.06417" lon="6.41924">
        <ele>1104</ele>
        <time>2021-09-12T07:57:06Z</time>
      </trkpt>
      <trkpt lat="44.06417" lon="6.41928">
        <ele>1104.2</ele>
        <time>2021-09-12T07:57:07Z</time>
      </trkpt>
      <trkpt lat="44.06417" lon="6.41931">
        <ele>1104.3</ele>
        <time>2021-09-12T07:57:08Z</time>
      </trkpt>
      <trkpt lat="44.06417" lon="6.41935">
        <ele>1104.6</ele>
        <time>2021-09-12T07:57:10Z</time>
      </trkpt>
      <trkpt lat="44.06416" lon="6.41938">
        <ele>1104.7</ele>
        <time>2021-09-12T07:57:11Z</time>
      </trkpt>
      <trkpt lat="44.06415" lon="6.4194">
        <ele>1104.9</ele>
        <time>2021-09-12T07:57:12Z</time>
      </trkpt>
      <trkpt lat="44.06414" lon="6.41944">
        <ele>1105.1</ele>
        <time>2021-09-12T07:57:14Z</time>
      </trkpt>
      <trkpt lat="44.06413" lon="6.41945">
        <ele>1105.2</ele>
        <time>2021-09-12T07:57:15Z</time>
      </trkpt>
      <trkpt lat="44.06412" lon="6.41946">
        <ele>1105.3</ele>
        <time>2021-09-12T07:57:16Z</time>
      </trkpt>
      <trkpt lat="44.06411" lon="6.41949">
        <ele>1105.5</ele>
        <time>2021-09-12T07:57:18Z</time>
      </trkpt>
      <trkpt lat="44.06409" lon="6.41952">
        <ele>1105.7</ele>
        <time>2021-09-12T07:57:19Z</time>
      </trkpt>
      <trkpt lat="44.06407" lon="6.41956">
        <ele>1106</ele>
        <time>2021-09-12T07:57:22Z</time>
      </trkpt>
      <trkpt lat="44.06406" lon="6.41958">
        <ele>1106.1</ele>
        <time>2021-09-12T07:57:23Z</time>
      </trkpt>
      <trkpt lat="44.06404" lon="6.4196">
        <ele>1106.2</ele>
        <time>2021-09-12T07:57:24Z</time>
      </trkpt>
      <trkpt lat="44.06402" lon="6.41964">
        <ele>1106.5</ele>
        <time>2021-09-12T07:57:26Z</time>
      </trkpt>
      <trkpt lat="44.06401" lon="6.41965">
        <ele>1106.6</ele>
        <time>2021-09-12T07:57:27Z</time>
      </trkpt>
      <trkpt lat="44.064" lon="6.41967">
        <ele>1106.7</ele>
        <time>2021-09-12T07:57:28Z</time>
      </trkpt>
      <trkpt lat="44.06398" lon="6.41971">
        <ele>1106.9</ele>
        <time>2021-09-12T07:57:30Z</time>
      </trkpt>
      <trkpt lat="44.06397" lon="6.41973">
        <ele>1107.1</ele>
        <time>2021-09-12T07:57:32Z</time>
      </trkpt>
      <trkpt lat="44.06394" lon="6.41976">
        <ele>1107.4</ele>
        <time>2021-09-12T07:57:34Z</time>
      </trkpt>
      <trkpt lat="44.06392" lon="6.41979">
        <ele>1107.6</ele>
        <time>2021-09-12T07:57:35Z</time>
      </trkpt>
      <trkpt lat="44.06391" lon="6.41982">
        <ele>1107.8</ele>
        <time>2021-09-12T07:57:37Z</time>
      </trkpt>
      <trkpt lat="44.0639" lon="6.41986">
        <ele>1108</ele>
        <time>2021-09-12T07:57:39Z</time>
      </trkpt>
      <trkpt lat="44.06389" lon="6.4199">
        <ele>1108.2</ele>
        <time>2021-09-12T07:57:40Z</time>
      </trkpt>
      <trkpt lat="44.06389" lon="6.41991">
        <ele>1108.3</ele>
        <time>2021-09-12T07:57:41Z</time>
      </trkpt>
      <trkpt lat="44.06388" lon="6.41994">
        <ele>1108.4</ele>
        <time>2021-09-12T07:57:42Z</time>
      </trkpt>
      <trkpt lat="44.06387" lon="6.41999">
        <ele>1108.7</ele>
        <time>2021-09-12T07:57:44Z</time>
      </trkpt>
      <trkpt lat="44.06387" lon="6.42001">
        <ele>1108.8</ele>
        <time>2021-09-12T07:57:45Z</time>
      </trkpt>
      <trkpt lat="44.06386" lon="6.42004">
        <ele>1109</ele>
        <time>2021-09-12T07:57:47Z</time>
      </trkpt>
      <trkpt lat="44.06385" lon="6.42008">
        <ele>1109.1</ele>
        <time>2021-09-12T07:57:48Z</time>
      </trkpt>
      <trkpt lat="44.06384" lon="6.42011">
        <ele>1109.3</ele>
        <time>2021-09-12T07:57:50Z</time>
      </trkpt>
      <trkpt lat="44.06383" lon="6.42015">
        <ele>1109.5</ele>
        <time>2021-09-12T07:57:51Z</time>
      </trkpt>
      <trkpt lat="44.06383" lon="6.42017">
        <ele>1109.6</ele>
        <time>2021-09-12T07:57:52Z</time>
      </trkpt>
      <trkpt lat="44.06382" lon="6.42021">
        <ele>1109.8</ele>
        <time>2021-09-12T07:57:54Z</time>
      </trkpt>
      <trkpt lat="44.06382" lon="6.42025">
        <ele>1110</ele>
        <time>2021-09-12T07:57:55Z</time>
      </trkpt>
      <trkpt lat="44.06382" lon="6.42027">
        <ele>1110</ele>
        <time>2021-09-12T07:57:56Z</time>
      </trkpt>
      <trkpt lat="44.06382" lon="6.42031">
        <ele>1110.2</ele>
        <time>2021-09-12T07:57:58Z</time>
      </trkpt>
      <trkpt lat="44.06383" lon="6.42033">
        <ele>1110.4</ele>
        <time>2021-09-12T07:57:59Z</time>
      </trkpt>
      <trkpt lat="44.06385" lon="6.42036">
        <ele>1110.5</ele>
        <time>2021-09-12T07:58:00Z</time>
      </trkpt>
      <trkpt lat="44.06386" lon="6.42038">
        <ele>1110.6</ele>
        <time>2021-09-12T07:58:01Z</time>
      </trkpt>
      <trkpt lat="44.06388" lon="6.42038">
        <ele>1110.7</ele>
        <time>2021-09-12T07:58:02Z</time>
      </trkpt>
      <trkpt lat="44.06391" lon="6.42038">
        <ele>1110.9</ele>
        <time>2021-09-12T07:58:03Z</time>
      </trkpt>
      <trkpt lat="44.06394" lon="6.42038">
        <ele>1111.1</ele>
        <time>2021-09-12T07:58:05Z</time>
      </trkpt>
      <trkpt lat="44.06402" lon="6.42035">
        <ele>1111.5</ele>
        <time>2021-09-12T07:58:09Z</time>
      </trkpt>
      <trkpt lat="44.06406" lon="6.42033">
        <ele>1111.6</ele>
        <time>2021-09-12T07:58:11Z</time>
      </trkpt>
      <trkpt lat="44.06411" lon="6.42028">
        <ele>1111.9</ele>
        <time>2021-09-12T07:58:13Z</time>
      </trkpt>
      <trkpt lat="44.06413" lon="6.42024">
        <ele>1112</ele>
        <time>2021-09-12T07:58:15Z</time>
      </trkpt>
      <trkpt lat="44.06415" lon="6.4202">
        <ele>1112.1</ele>
        <time>2021-09-12T07:58:17Z</time>
      </trkpt>
      <trkpt lat="44.06419" lon="6.42014">
        <ele>1112.2</ele>
        <time>2021-09-12T07:58:19Z</time>
      </trkpt>
      <trkpt lat="44.06422" lon="6.42009">
        <ele>1112.3</ele>
        <time>2021-09-12T07:58:21Z</time>
      </trkpt>
      <trkpt lat="44.06425" lon="6.42004">
        <ele>1112.4</ele>
        <time>2021-09-12T07:58:23Z</time>
      </trkpt>
      <trkpt lat="44.06428" lon="6.41999">
        <ele>1112.5</ele>
        <time>2021-09-12T07:58:24Z</time>
      </trkpt>
      <trkpt lat="44.06432" lon="6.41994">
        <ele>1112.5</ele>
        <time>2021-09-12T07:58:26Z</time>
      </trkpt>
      <trkpt lat="44.06436" lon="6.41987">
        <ele>1112.6</ele>
        <time>2021-09-12T07:58:29Z</time>
      </trkpt>
      <trkpt lat="44.0644" lon="6.41982">
        <ele>1112.6</ele>
        <time>2021-09-12T07:58:30Z</time>
      </trkpt>
      <trkpt lat="44.06445" lon="6.41975">
        <ele>1112.7</ele>
        <time>2021-09-12T07:58:33Z</time>
      </trkpt>
      <trkpt lat="44.06449" lon="6.41969">
        <ele>1112.7</ele>
        <time>2021-09-12T07:58:34Z</time>
      </trkpt>
      <trkpt lat="44.06454" lon="6.41962">
        <ele>1112.7</ele>
        <time>2021-09-12T07:58:37Z</time>
      </trkpt>
      <trkpt lat="44.06459" lon="6.41957">
        <ele>1112.8</ele>
        <time>2021-09-12T07:58:38Z</time>
      </trkpt>
      <trkpt lat="44.06465" lon="6.41952">
        <ele>1112.8</ele>
        <time>2021-09-12T07:58:41Z</time>
      </trkpt>
      <trkpt lat="44.0647" lon="6.41949">
        <ele>1112.9</ele>
        <time>2021-09-12T07:58:42Z</time>
      </trkpt>
      <trkpt lat="44.06476" lon="6.41947">
        <ele>1113</ele>
        <time>2021-09-12T07:58:44Z</time>
      </trkpt>
      <trkpt lat="44.06483" lon="6.41944">
        <ele>1113.2</ele>
        <time>2021-09-12T07:58:46Z</time>
      </trkpt>
      <trkpt lat="44.06491" lon="6.41943">
        <ele>1113.5</ele>
        <time>2021-09-12T07:58:49Z</time>
      </trkpt>
      <trkpt lat="44.06496" lon="6.41941">
        <ele>1113.6</ele>
        <time>2021-09-12T07:58:50Z</time>
      </trkpt>
      <trkpt lat="44.06501" lon="6.41941">
        <ele>1113.8</ele>
        <time>2021-09-12T07:58:52Z</time>
      </trkpt>
      <trkpt lat="44.06508" lon="6.41939">
        <ele>1114</ele>
        <time>2021-09-12T07:58:53Z</time>
      </trkpt>
      <trkpt lat="44.06514" lon="6.41937">
        <ele>1114.3</ele>
        <time>2021-09-12T07:58:56Z</time>
      </trkpt>
      <trkpt lat="44.06519" lon="6.41935">
        <ele>1114.6</ele>
        <time>2021-09-12T07:58:57Z</time>
      </trkpt>
      <trkpt lat="44.06525" lon="6.41932">
        <ele>1114.9</ele>
        <time>2021-09-12T07:58:59Z</time>
      </trkpt>
      <trkpt lat="44.06529" lon="6.41928">
        <ele>1115.1</ele>
        <time>2021-09-12T07:59:01Z</time>
      </trkpt>
      <trkpt lat="44.06531" lon="6.41925">
        <ele>1115.2</ele>
        <time>2021-09-12T07:59:02Z</time>
      </trkpt>
      <trkpt lat="44.06534" lon="6.4192">
        <ele>1115.5</ele>
        <time>2021-09-12T07:59:04Z</time>
      </trkpt>
      <trkpt lat="44.06538" lon="6.41915">
        <ele>1115.8</ele>
        <time>2021-09-12T07:59:05Z</time>
      </trkpt>
      <trkpt lat="44.0654" lon="6.4191">
        <ele>1116</ele>
        <time>2021-09-12T07:59:07Z</time>
      </trkpt>
      <trkpt lat="44.06543" lon="6.41907">
        <ele>1116.2</ele>
        <time>2021-09-12T07:59:08Z</time>
      </trkpt>
      <trkpt lat="44.06547" lon="6.41901">
        <ele>1116.6</ele>
        <time>2021-09-12T07:59:11Z</time>
      </trkpt>
      <trkpt lat="44.0655" lon="6.41896">
        <ele>1116.9</ele>
        <time>2021-09-12T07:59:13Z</time>
      </trkpt>
      <trkpt lat="44.06552" lon="6.41892">
        <ele>1117.1</ele>
        <time>2021-09-12T07:59:14Z</time>
      </trkpt>
      <trkpt lat="44.06554" lon="6.41887">
        <ele>1117.4</ele>
        <time>2021-09-12T07:59:16Z</time>
      </trkpt>
      <trkpt lat="44.06556" lon="6.41884">
        <ele>1117.6</ele>
        <time>2021-09-12T07:59:17Z</time>
      </trkpt>
      <trkpt lat="44.06556" lon="6.41882">
        <ele>1117.8</ele>
        <time>2021-09-12T07:59:18Z</time>
      </trkpt>
      <trkpt lat="44.06558" lon="6.41878">
        <ele>1118</ele>
        <time>2021-09-12T07:59:20Z</time>
      </trkpt>
      <trkpt lat="44.0656" lon="6.41874">
        <ele>1118.3</ele>
        <time>2021-09-12T07:59:22Z</time>
      </trkpt>
      <trkpt lat="44.06561" lon="6.41872">
        <ele>1118.4</ele>
        <time>2021-09-12T07:59:23Z</time>
      </trkpt>
      <trkpt lat="44.06563" lon="6.4187">
        <ele>1118.5</ele>
        <time>2021-09-12T07:59:24Z</time>
      </trkpt>
      <trkpt lat="44.06565" lon="6.41867">
        <ele>1118.8</ele>
        <time>2021-09-12T07:59:27Z</time>
      </trkpt>
      <trkpt lat="44.06569" lon="6.41864">
        <ele>1119.1</ele>
        <time>2021-09-12T07:59:29Z</time>
      </trkpt>
      <trkpt lat="44.0657" lon="6.41863">
        <ele>1119.2</ele>
        <time>2021-09-12T07:59:30Z</time>
      </trkpt>
      <trkpt lat="44.06572" lon="6.41861">
        <ele>1119.4</ele>
        <time>2021-09-12T07:59:32Z</time>
      </trkpt>
      <trkpt lat="44.06573" lon="6.4186">
        <ele>1119.5</ele>
        <time>2021-09-12T07:59:33Z</time>
      </trkpt>
      <trkpt lat="44.06575" lon="6.41858">
        <ele>1119.6</ele>
        <time>2021-09-12T07:59:34Z</time>
      </trkpt>
      <trkpt lat="44.06577" lon="6.41856">
        <ele>1119.8</ele>
        <time>2021-09-12T07:59:35Z</time>
      </trkpt>
      <trkpt lat="44.06579" lon="6.41855">
        <ele>1120</ele>
        <time>2021-09-12T07:59:37Z</time>
      </trkpt>
      <trkpt lat="44.06584" lon="6.41853">
        <ele>1120.3</ele>
        <time>2021-09-12T07:59:40Z</time>
      </trkpt>
      <trkpt lat="44.06586" lon="6.41851">
        <ele>1120.5</ele>
        <time>2021-09-12T07:59:41Z</time>
      </trkpt>
      <trkpt lat="44.0659" lon="6.41849">
        <ele>1120.8</ele>
        <time>2021-09-12T07:59:44Z</time>
      </trkpt>
      <trkpt lat="44.06595" lon="6.41847">
        <ele>1121.1</ele>
        <time>2021-09-12T07:59:46Z</time>
      </trkpt>
      <trkpt lat="44.06596" lon="6.41847">
        <ele>1121.2</ele>
        <time>2021-09-12T07:59:48Z</time>
      </trkpt>
      <trkpt lat="44.06598" lon="6.41846">
        <ele>1121.4</ele>
        <time>2021-09-12T07:59:49Z</time>
      </trkpt>
      <trkpt lat="44.06601" lon="6.41845">
        <ele>1121.5</ele>
        <time>2021-09-12T07:59:50Z</time>
      </trkpt>
      <trkpt lat="44.06602" lon="6.41844">
        <ele>1121.7</ele>
        <time>2021-09-12T07:59:51Z</time>
      </trkpt>
      <trkpt lat="44.06604" lon="6.41844">
        <ele>1121.8</ele>
        <time>2021-09-12T07:59:52Z</time>
      </trkpt>
      <trkpt lat="44.06607" lon="6.41844">
        <ele>1122</ele>
        <time>2021-09-12T07:59:54Z</time>
      </trkpt>
      <trkpt lat="44.06609" lon="6.41843">
        <ele>1122.1</ele>
        <time>2021-09-12T07:59:55Z</time>
      </trkpt>
      <trkpt lat="44.06611" lon="6.41843">
        <ele>1122.2</ele>
        <time>2021-09-12T07:59:56Z</time>
      </trkpt>
      <trkpt lat="44.06614" lon="6.41842">
        <ele>1122.4</ele>
        <time>2021-09-12T07:59:58Z</time>
      </trkpt>
      <trkpt lat="44.06617" lon="6.41843">
        <ele>1122.6</ele>
        <time>2021-09-12T07:59:59Z</time>
      </trkpt>
      <trkpt lat="44.06619" lon="6.41843">
        <ele>1122.7</ele>
        <time>2021-09-12T08:00:00Z</time>
      </trkpt>
      <trkpt lat="44.06621" lon="6.41844">
        <ele>1122.9</ele>
        <time>2021-09-12T08:00:02Z</time>
      </trkpt>
      <trkpt lat="44.06623" lon="6.41845">
        <ele>1123</ele>
        <time>2021-09-12T08:00:03Z</time>
      </trkpt>
      <trkpt lat="44.06626" lon="6.41846">
        <ele>1123.2</ele>
        <time>2021-09-12T08:00:04Z</time>
      </trkpt>
      <trkpt lat="44.06629" lon="6.41848">
        <ele>1123.5</ele>
        <time>2021-09-12T08:00:06Z</time>
      </trkpt>
      <trkpt lat="44.06633" lon="6.4185">
        <ele>1123.8</ele>
        <time>2021-09-12T08:00:08Z</time>
      </trkpt>
      <trkpt lat="44.06639" lon="6.41851">
        <ele>1124.1</ele>
        <time>2021-09-12T08:00:11Z</time>
      </trkpt>
      <trkpt lat="44.06643" lon="6.41853">
        <ele>1124.5</ele>
        <time>2021-09-12T08:00:14Z</time>
      </trkpt>
      <trkpt lat="44.06645" lon="6.41854">
        <ele>1124.6</ele>
        <time>2021-09-12T08:00:15Z</time>
      </trkpt>
      <trkpt lat="44.06646" lon="6.41855">
        <ele>1124.7</ele>
        <time>2021-09-12T08:00:16Z</time>
      </trkpt>
      <trkpt lat="44.0665" lon="6.41856">
        <ele>1124.9</ele>
        <time>2021-09-12T08:00:18Z</time>
      </trkpt>
      <trkpt lat="44.06651" lon="6.41856">
        <ele>1125</ele>
        <time>2021-09-12T08:00:19Z</time>
      </trkpt>
      <trkpt lat="44.06652" lon="6.41857">
        <ele>1125.1</ele>
        <time>2021-09-12T08:00:20Z</time>
      </trkpt>
      <trkpt lat="44.06655" lon="6.41857">
        <ele>1125.3</ele>
        <time>2021-09-12T08:00:21Z</time>
      </trkpt>
      <trkpt lat="44.06658" lon="6.41857">
        <ele>1125.5</ele>
        <time>2021-09-12T08:00:23Z</time>
      </trkpt>
      <trkpt lat="44.06662" lon="6.41857">
        <ele>1125.8</ele>
        <time>2021-09-12T08:00:25Z</time>
      </trkpt>
      <trkpt lat="44.06663" lon="6.41856">
        <ele>1125.9</ele>
        <time>2021-09-12T08:00:26Z</time>
      </trkpt>
      <trkpt lat="44.06665" lon="6.41856">
        <ele>1126</ele>
        <time>2021-09-12T08:00:27Z</time>
      </trkpt>
      <trkpt lat="44.06668" lon="6.41856">
        <ele>1126.2</ele>
        <time>2021-09-12T08:00:29Z</time>
      </trkpt>
      <trkpt lat="44.06669" lon="6.41856">
        <ele>1126.3</ele>
        <time>2021-09-12T08:00:30Z</time>
      </trkpt>
      <trkpt lat="44.06671" lon="6.41856">
        <ele>1126.4</ele>
        <time>2021-09-12T08:00:31Z</time>
      </trkpt>
      <trkpt lat="44.06673" lon="6.41856">
        <ele>1126.6</ele>
        <time>2021-09-12T08:00:32Z</time>
      </trkpt>
      <trkpt lat="44.06676" lon="6.41856">
        <ele>1126.7</ele>
        <time>2021-09-12T08:00:34Z</time>
      </trkpt>
      <trkpt lat="44.06679" lon="6.41855">
        <ele>1126.9</ele>
        <time>2021-09-12T08:00:35Z</time>
      </trkpt>
      <trkpt lat="44.06681" lon="6.41855">
        <ele>1127.1</ele>
        <time>2021-09-12T08:00:37Z</time>
      </trkpt>
      <trkpt lat="44.06684" lon="6.41854">
        <ele>1127.3</ele>
        <time>2021-09-12T08:00:38Z</time>
      </trkpt>
      <trkpt lat="44.06687" lon="6.41853">
        <ele>1127.5</ele>
        <time>2021-09-12T08:00:40Z</time>
      </trkpt>
      <trkpt lat="44.06688" lon="6.41853">
        <ele>1127.6</ele>
        <time>2021-09-12T08:00:41Z</time>
      </trkpt>
      <trkpt lat="44.06693" lon="6.41852">
        <ele>1127.9</ele>
        <time>2021-09-12T08:00:43Z</time>
      </trkpt>
      <trkpt lat="44.06694" lon="6.41851">
        <ele>1128</ele>
        <time>2021-09-12T08:00:44Z</time>
      </trkpt>
      <trkpt lat="44.06696" lon="6.41851">
        <ele>1128.1</ele>
        <time>2021-09-12T08:00:45Z</time>
      </trkpt>
      <trkpt lat="44.067" lon="6.4185">
        <ele>1128.4</ele>
        <time>2021-09-12T08:00:47Z</time>
      </trkpt>
      <trkpt lat="44.06701" lon="6.41849">
        <ele>1128.5</ele>
        <time>2021-09-12T08:00:48Z</time>
      </trkpt>
      <trkpt lat="44.06703" lon="6.41849">
        <ele>1128.6</ele>
        <time>2021-09-12T08:00:49Z</time>
      </trkpt>
      <trkpt lat="44.06706" lon="6.41847">
        <ele>1128.8</ele>
        <time>2021-09-12T08:00:51Z</time>
      </trkpt>
      <trkpt lat="44.06708" lon="6.41846">
        <ele>1129</ele>
        <time>2021-09-12T08:00:52Z</time>
      </trkpt>
      <trkpt lat="44.06711" lon="6.41844">
        <ele>1129.2</ele>
        <time>2021-09-12T08:00:54Z</time>
      </trkpt>
      <trkpt lat="44.06712" lon="6.41843">
        <ele>1129.3</ele>
        <time>2021-09-12T08:00:55Z</time>
      </trkpt>
      <trkpt lat="44.06713" lon="6.41842">
        <ele>1129.4</ele>
        <time>2021-09-12T08:00:56Z</time>
      </trkpt>
      <trkpt lat="44.06718" lon="6.41839">
        <ele>1129.7</ele>
        <time>2021-09-12T08:00:58Z</time>
      </trkpt>
      <trkpt lat="44.06719" lon="6.41838">
        <ele>1129.8</ele>
        <time>2021-09-12T08:00:59Z</time>
      </trkpt>
      <trkpt lat="44.06721" lon="6.41837">
        <ele>1129.9</ele>
        <time>2021-09-12T08:01:00Z</time>
      </trkpt>
      <trkpt lat="44.06722" lon="6.41836">
        <ele>1130.1</ele>
        <time>2021-09-12T08:01:01Z</time>
      </trkpt>
      <trkpt lat="44.06726" lon="6.41835">
        <ele>1130.3</ele>
        <time>2021-09-12T08:01:03Z</time>
      </trkpt>
      <trkpt lat="44.0673" lon="6.41833">
        <ele>1130.6</ele>
        <time>2021-09-12T08:01:05Z</time>
      </trkpt>
      <trkpt lat="44.06731" lon="6.41833">
        <ele>1130.7</ele>
        <time>2021-09-12T08:01:06Z</time>
      </trkpt>
      <trkpt lat="44.06733" lon="6.41833">
        <ele>1130.8</ele>
        <time>2021-09-12T08:01:07Z</time>
      </trkpt>
      <trkpt lat="44.06735" lon="6.41833">
        <ele>1131</ele>
        <time>2021-09-12T08:01:08Z</time>
      </trkpt>
      <trkpt lat="44.06737" lon="6.41833">
        <ele>1131.1</ele>
        <time>2021-09-12T08:01:09Z</time>
      </trkpt>
      <trkpt lat="44.06742" lon="6.41832">
        <ele>1131.3</ele>
        <time>2021-09-12T08:01:11Z</time>
      </trkpt>
      <trkpt lat="44.06745" lon="6.41833">
        <ele>1131.5</ele>
        <time>2021-09-12T08:01:13Z</time>
      </trkpt>
      <trkpt lat="44.06747" lon="6.41833">
        <ele>1131.5</ele>
        <time>2021-09-12T08:01:14Z</time>
      </trkpt>
      <trkpt lat="44.0675" lon="6.41832">
        <ele>1131.6</ele>
        <time>2021-09-12T08:01:15Z</time>
      </trkpt>
      <trkpt lat="44.06752" lon="6.41832">
        <ele>1131.7</ele>
        <time>2021-09-12T08:01:16Z</time>
      </trkpt>
      <trkpt lat="44.06755" lon="6.41831">
        <ele>1131.8</ele>
        <time>2021-09-12T08:01:18Z</time>
      </trkpt>
      <trkpt lat="44.06757" lon="6.41831">
        <ele>1131.8</ele>
        <time>2021-09-12T08:01:19Z</time>
      </trkpt>
      <trkpt lat="44.0676" lon="6.41831">
        <ele>1131.9</ele>
        <time>2021-09-12T08:01:20Z</time>
      </trkpt>
      <trkpt lat="44.06764" lon="6.41829">
        <ele>1132.1</ele>
        <time>2021-09-12T08:01:21Z</time>
      </trkpt>
      <trkpt lat="44.06763" lon="6.41831">
        <ele>1132.2</ele>
        <time>2021-09-12T08:01:22Z</time>
      </trkpt>
      <trkpt lat="44.06763" lon="6.41828">
        <ele>1132.3</ele>
        <time>2021-09-12T08:01:23Z</time>
      </trkpt>
      <trkpt lat="44.06761" lon="6.41828">
        <ele>1132.4</ele>
        <time>2021-09-12T08:01:24Z</time>
      </trkpt>
      <trkpt lat="44.0676" lon="6.41827">
        <ele>1132.5</ele>
        <time>2021-09-12T08:01:25Z</time>
      </trkpt>
      <trkpt lat="44.06767" lon="6.41851">
        <ele>1134</ele>
        <time>2021-09-12T08:01:34Z</time>
      </trkpt>
      <trkpt lat="44.06767" lon="6.41856">
        <ele>1134.2</ele>
        <time>2021-09-12T08:01:36Z</time>
      </trkpt>
      <trkpt lat="44.06768" lon="6.41862">
        <ele>1134.5</ele>
        <time>2021-09-12T08:01:38Z</time>
      </trkpt>
      <trkpt lat="44.06769" lon="6.41866">
        <ele>1134.7</ele>
        <time>2021-09-12T08:01:39Z</time>
      </trkpt>
      <trkpt lat="44.0677" lon="6.41872">
        <ele>1135.1</ele>
        <time>2021-09-12T08:01:41Z</time>
      </trkpt>
      <trkpt lat="44.0677" lon="6.41877">
        <ele>1135.4</ele>
        <time>2021-09-12T08:01:43Z</time>
      </trkpt>
      <trkpt lat="44.0677" lon="6.41878">
        <ele>1135.5</ele>
        <time>2021-09-12T08:01:44Z</time>
      </trkpt>
      <trkpt lat="44.06771" lon="6.41884">
        <ele>1135.8</ele>
        <time>2021-09-12T08:01:46Z</time>
      </trkpt>
      <trkpt lat="44.0677" lon="6.41889">
        <ele>1136.2</ele>
        <time>2021-09-12T08:01:47Z</time>
      </trkpt>
      <trkpt lat="44.06769" lon="6.41892">
        <ele>1136.3</ele>
        <time>2021-09-12T08:01:49Z</time>
      </trkpt>
      <trkpt lat="44.06769" lon="6.41894">
        <ele>1136.5</ele>
        <time>2021-09-12T08:01:50Z</time>
      </trkpt>
      <trkpt lat="44.06769" lon="6.41896">
        <ele>1136.6</ele>
        <time>2021-09-12T08:01:51Z</time>
      </trkpt>
      <trkpt lat="44.06769" lon="6.419">
        <ele>1136.8</ele>
        <time>2021-09-12T08:01:52Z</time>
      </trkpt>
      <trkpt lat="44.06767" lon="6.41904">
        <ele>1137.1</ele>
        <time>2021-09-12T08:01:55Z</time>
      </trkpt>
      <trkpt lat="44.06766" lon="6.41905">
        <ele>1137.2</ele>
        <time>2021-09-12T08:01:56Z</time>
      </trkpt>
      <trkpt lat="44.06763" lon="6.41911">
        <ele>1137.6</ele>
        <time>2021-09-12T08:02:00Z</time>
      </trkpt>
      <trkpt lat="44.06761" lon="6.41913">
        <ele>1137.8</ele>
        <time>2021-09-12T08:02:01Z</time>
      </trkpt>
      <trkpt lat="44.0676" lon="6.41914">
        <ele>1137.9</ele>
        <time>2021-09-12T08:02:02Z</time>
      </trkpt>
      <trkpt lat="44.06759" lon="6.41916">
        <ele>1138.1</ele>
        <time>2021-09-12T08:02:04Z</time>
      </trkpt>
      <trkpt lat="44.06755" lon="6.4192">
        <ele>1138.4</ele>
        <time>2021-09-12T08:02:07Z</time>
      </trkpt>
      <trkpt lat="44.06754" lon="6.41922">
        <ele>1138.6</ele>
        <time>2021-09-12T08:02:08Z</time>
      </trkpt>
      <trkpt lat="44.06753" lon="6.41923">
        <ele>1138.7</ele>
        <time>2021-09-12T08:02:09Z</time>
      </trkpt>
      <trkpt lat="44.0675" lon="6.41926">
        <ele>1139</ele>
        <time>2021-09-12T08:02:12Z</time>
      </trkpt>
      <trkpt lat="44.06748" lon="6.4193">
        <ele>1139.2</ele>
        <time>2021-09-12T08:02:14Z</time>
      </trkpt>
      <trkpt lat="44.06747" lon="6.41932">
        <ele>1139.4</ele>
        <time>2021-09-12T08:02:16Z</time>
      </trkpt>
      <trkpt lat="44.06745" lon="6.41933">
        <ele>1139.5</ele>
        <time>2021-09-12T08:02:17Z</time>
      </trkpt>
      <trkpt lat="44.06744" lon="6.41934">
        <ele>1139.6</ele>
        <time>2021-09-12T08:02:18Z</time>
      </trkpt>
      <trkpt lat="44.06742" lon="6.41935">
        <ele>1139.7</ele>
        <time>2021-09-12T08:02:19Z</time>
      </trkpt>
      <trkpt lat="44.06741" lon="6.41936">
        <ele>1139.9</ele>
        <time>2021-09-12T08:02:20Z</time>
      </trkpt>
      <trkpt lat="44.0674" lon="6.41937">
        <ele>1140</ele>
        <time>2021-09-12T08:02:21Z</time>
      </trkpt>
      <trkpt lat="44.06738" lon="6.41938">
        <ele>1140.1</ele>
        <time>2021-09-12T08:02:22Z</time>
      </trkpt>
      <trkpt lat="44.06736" lon="6.41939">
        <ele>1140.3</ele>
        <time>2021-09-12T08:02:24Z</time>
      </trkpt>
      <trkpt lat="44.06734" lon="6.41941">
        <ele>1140.4</ele>
        <time>2021-09-12T08:02:25Z</time>
      </trkpt>
      <trkpt lat="44.06733" lon="6.41943">
        <ele>1140.6</ele>
        <time>2021-09-12T08:02:27Z</time>
      </trkpt>
      <trkpt lat="44.0673" lon="6.41947">
        <ele>1140.9</ele>
        <time>2021-09-12T08:02:29Z</time>
      </trkpt>
      <trkpt lat="44.06728" lon="6.4195">
        <ele>1141.2</ele>
        <time>2021-09-12T08:02:31Z</time>
      </trkpt>
      <trkpt lat="44.06726" lon="6.41954">
        <ele>1141.4</ele>
        <time>2021-09-12T08:02:33Z</time>
      </trkpt>
      <trkpt lat="44.06725" lon="6.41957">
        <ele>1141.6</ele>
        <time>2021-09-12T08:02:34Z</time>
      </trkpt>
      <trkpt lat="44.06723" lon="6.41959">
        <ele>1141.9</ele>
        <time>2021-09-12T08:02:36Z</time>
      </trkpt>
      <trkpt lat="44.06721" lon="6.4196">
        <ele>1142</ele>
        <time>2021-09-12T08:02:37Z</time>
      </trkpt>
      <trkpt lat="44.06716" lon="6.41961">
        <ele>1142.3</ele>
        <time>2021-09-12T08:02:39Z</time>
      </trkpt>
      <trkpt lat="44.06715" lon="6.41961">
        <ele>1142.5</ele>
        <time>2021-09-12T08:02:40Z</time>
      </trkpt>
      <trkpt lat="44.06714" lon="6.41961">
        <ele>1142.5</ele>
        <time>2021-09-12T08:02:41Z</time>
      </trkpt>
      <trkpt lat="44.06712" lon="6.41962">
        <ele>1142.7</ele>
        <time>2021-09-12T08:02:42Z</time>
      </trkpt>
      <trkpt lat="44.06711" lon="6.41964">
        <ele>1142.8</ele>
        <time>2021-09-12T08:02:43Z</time>
      </trkpt>
      <trkpt lat="44.06709" lon="6.41965">
        <ele>1143</ele>
        <time>2021-09-12T08:02:44Z</time>
      </trkpt>
      <trkpt lat="44.06707" lon="6.41968">
        <ele>1143.2</ele>
        <time>2021-09-12T08:02:46Z</time>
      </trkpt>
      <trkpt lat="44.06707" lon="6.41969">
        <ele>1143.3</ele>
        <time>2021-09-12T08:02:47Z</time>
      </trkpt>
      <trkpt lat="44.06706" lon="6.41971">
        <ele>1143.4</ele>
        <time>2021-09-12T08:02:48Z</time>
      </trkpt>
      <trkpt lat="44.06704" lon="6.41973">
        <ele>1143.6</ele>
        <time>2021-09-12T08:02:49Z</time>
      </trkpt>
      <trkpt lat="44.06703" lon="6.41975">
        <ele>1143.8</ele>
        <time>2021-09-12T08:02:51Z</time>
      </trkpt>
      <trkpt lat="44.06702" lon="6.41977">
        <ele>1143.9</ele>
        <time>2021-09-12T08:02:52Z</time>
      </trkpt>
      <trkpt lat="44.067" lon="6.41979">
        <ele>1144</ele>
        <time>2021-09-12T08:02:53Z</time>
      </trkpt>
      <trkpt lat="44.06698" lon="6.41982">
        <ele>1144.3</ele>
        <time>2021-09-12T08:02:55Z</time>
      </trkpt>
      <trkpt lat="44.06697" lon="6.41983">
        <ele>1144.4</ele>
        <time>2021-09-12T08:02:56Z</time>
      </trkpt>
      <trkpt lat="44.06696" lon="6.41985">
        <ele>1144.5</ele>
        <time>2021-09-12T08:02:57Z</time>
      </trkpt>
      <trkpt lat="44.06694" lon="6.41988">
        <ele>1144.7</ele>
        <time>2021-09-12T08:02:59Z</time>
      </trkpt>
      <trkpt lat="44.06693" lon="6.41992">
        <ele>1145</ele>
        <time>2021-09-12T08:03:01Z</time>
      </trkpt>
      <trkpt lat="44.06692" lon="6.41995">
        <ele>1145.2</ele>
        <time>2021-09-12T08:03:03Z</time>
      </trkpt>
      <trkpt lat="44.06691" lon="6.41998">
        <ele>1145.3</ele>
        <time>2021-09-12T08:03:04Z</time>
      </trkpt>
      <trkpt lat="44.06689" lon="6.42002">
        <ele>1145.6</ele>
        <time>2021-09-12T08:03:06Z</time>
      </trkpt>
      <trkpt lat="44.06687" lon="6.42005">
        <ele>1145.8</ele>
        <time>2021-09-12T08:03:08Z</time>
      </trkpt>
      <trkpt lat="44.06686" lon="6.42008">
        <ele>1146</ele>
        <time>2021-09-12T08:03:10Z</time>
      </trkpt>
      <trkpt lat="44.06684" lon="6.42012">
        <ele>1146.3</ele>
        <time>2021-09-12T08:03:11Z</time>
      </trkpt>
      <trkpt lat="44.06682" lon="6.42015">
        <ele>1146.4</ele>
        <time>2021-09-12T08:03:13Z</time>
      </trkpt>
      <trkpt lat="44.0668" lon="6.42018">
        <ele>1146.7</ele>
        <time>2021-09-12T08:03:15Z</time>
      </trkpt>
      <trkpt lat="44.06679" lon="6.4202">
        <ele>1146.8</ele>
        <time>2021-09-12T08:03:16Z</time>
      </trkpt>
      <trkpt lat="44.06677" lon="6.42024">
        <ele>1147</ele>
        <time>2021-09-12T08:03:18Z</time>
      </trkpt>
      <trkpt lat="44.06676" lon="6.42028">
        <ele>1147.3</ele>
        <time>2021-09-12T08:03:20Z</time>
      </trkpt>
      <trkpt lat="44.06675" lon="6.42029">
        <ele>1147.4</ele>
        <time>2021-09-12T08:03:21Z</time>
      </trkpt>
      <trkpt lat="44.06674" lon="6.42033">
        <ele>1147.6</ele>
        <time>2021-09-12T08:03:22Z</time>
      </trkpt>
      <trkpt lat="44.06673" lon="6.42037">
        <ele>1147.8</ele>
        <time>2021-09-12T08:03:24Z</time>
      </trkpt>
      <trkpt lat="44.06671" lon="6.42041">
        <ele>1148.1</ele>
        <time>2021-09-12T08:03:26Z</time>
      </trkpt>
      <trkpt lat="44.06671" lon="6.42042">
        <ele>1148.1</ele>
        <time>2021-09-12T08:03:27Z</time>
      </trkpt>
      <trkpt lat="44.06667" lon="6.42047">
        <ele>1148.5</ele>
        <time>2021-09-12T08:03:30Z</time>
      </trkpt>
      <trkpt lat="44.06664" lon="6.4205">
        <ele>1148.8</ele>
        <time>2021-09-12T08:03:31Z</time>
      </trkpt>
      <trkpt lat="44.06661" lon="6.42054">
        <ele>1149.1</ele>
        <time>2021-09-12T08:03:34Z</time>
      </trkpt>
      <trkpt lat="44.06659" lon="6.42056">
        <ele>1149.2</ele>
        <time>2021-09-12T08:03:35Z</time>
      </trkpt>
      <trkpt lat="44.06658" lon="6.42058">
        <ele>1149.4</ele>
        <time>2021-09-12T08:03:36Z</time>
      </trkpt>
      <trkpt lat="44.06656" lon="6.4206">
        <ele>1149.5</ele>
        <time>2021-09-12T08:03:38Z</time>
      </trkpt>
      <trkpt lat="44.06653" lon="6.42063">
        <ele>1149.8</ele>
        <time>2021-09-12T08:03:39Z</time>
      </trkpt>
      <trkpt lat="44.06652" lon="6.42063">
        <ele>1149.9</ele>
        <time>2021-09-12T08:03:40Z</time>
      </trkpt>
      <trkpt lat="44.06648" lon="6.42066">
        <ele>1150.1</ele>
        <time>2021-09-12T08:03:42Z</time>
      </trkpt>
      <trkpt lat="44.06646" lon="6.42067">
        <ele>1150.3</ele>
        <time>2021-09-12T08:03:43Z</time>
      </trkpt>
      <trkpt lat="44.06644" lon="6.42069">
        <ele>1150.4</ele>
        <time>2021-09-12T08:03:45Z</time>
      </trkpt>
      <trkpt lat="44.06643" lon="6.42071">
        <ele>1150.6</ele>
        <time>2021-09-12T08:03:46Z</time>
      </trkpt>
      <trkpt lat="44.06642" lon="6.42075">
        <ele>1150.8</ele>
        <time>2021-09-12T08:03:47Z</time>
      </trkpt>
      <trkpt lat="44.06641" lon="6.42076">
        <ele>1150.9</ele>
        <time>2021-09-12T08:03:48Z</time>
      </trkpt>
      <trkpt lat="44.0664" lon="6.42078">
        <ele>1151</ele>
        <time>2021-09-12T08:03:49Z</time>
      </trkpt>
      <trkpt lat="44.06637" lon="6.42081">
        <ele>1151.2</ele>
        <time>2021-09-12T08:03:51Z</time>
      </trkpt>
      <trkpt lat="44.06635" lon="6.42083">
        <ele>1151.4</ele>
        <time>2021-09-12T08:03:52Z</time>
      </trkpt>
      <trkpt lat="44.06632" lon="6.42085">
        <ele>1151.6</ele>
        <time>2021-09-12T08:03:54Z</time>
      </trkpt>
      <trkpt lat="44.06629" lon="6.42087">
        <ele>1151.9</ele>
        <time>2021-09-12T08:03:56Z</time>
      </trkpt>
      <trkpt lat="44.06626" lon="6.42088">
        <ele>1152.1</ele>
        <time>2021-09-12T08:03:57Z</time>
      </trkpt>
      <trkpt lat="44.06623" lon="6.42091">
        <ele>1152.3</ele>
        <time>2021-09-12T08:03:59Z</time>
      </trkpt>
      <trkpt lat="44.06622" lon="6.42091">
        <ele>1152.4</ele>
        <time>2021-09-12T08:04:00Z</time>
      </trkpt>
      <trkpt lat="44.06619" lon="6.42093">
        <ele>1152.6</ele>
        <time>2021-09-12T08:04:02Z</time>
      </trkpt>
      <trkpt lat="44.06614" lon="6.42095">
        <ele>1153</ele>
        <time>2021-09-12T08:04:04Z</time>
      </trkpt>
      <trkpt lat="44.06609" lon="6.42097">
        <ele>1153.3</ele>
        <time>2021-09-12T08:04:07Z</time>
      </trkpt>
      <trkpt lat="44.06608" lon="6.42098">
        <ele>1153.4</ele>
        <time>2021-09-12T08:04:08Z</time>
      </trkpt>
      <trkpt lat="44.06607" lon="6.42098">
        <ele>1153.5</ele>
        <time>2021-09-12T08:04:09Z</time>
      </trkpt>
      <trkpt lat="44.06602" lon="6.42099">
        <ele>1153.8</ele>
        <time>2021-09-12T08:04:11Z</time>
      </trkpt>
      <trkpt lat="44.06601" lon="6.421">
        <ele>1153.9</ele>
        <time>2021-09-12T08:04:12Z</time>
      </trkpt>
      <trkpt lat="44.06599" lon="6.42102">
        <ele>1154</ele>
        <time>2021-09-12T08:04:13Z</time>
      </trkpt>
      <trkpt lat="44.06596" lon="6.42103">
        <ele>1154.3</ele>
        <time>2021-09-12T08:04:15Z</time>
      </trkpt>
      <trkpt lat="44.06594" lon="6.42105">
        <ele>1154.4</ele>
        <time>2021-09-12T08:04:17Z</time>
      </trkpt>
      <trkpt lat="44.06591" lon="6.42109">
        <ele>1154.6</ele>
        <time>2021-09-12T08:04:19Z</time>
      </trkpt>
      <trkpt lat="44.06589" lon="6.42112">
        <ele>1154.8</ele>
        <time>2021-09-12T08:04:20Z</time>
      </trkpt>
      <trkpt lat="44.06588" lon="6.42114">
        <ele>1154.9</ele>
        <time>2021-09-12T08:04:21Z</time>
      </trkpt>
      <trkpt lat="44.06585" lon="6.42116">
        <ele>1155.1</ele>
        <time>2021-09-12T08:04:23Z</time>
      </trkpt>
      <trkpt lat="44.06582" lon="6.42119">
        <ele>1155.4</ele>
        <time>2021-09-12T08:04:25Z</time>
      </trkpt>
      <trkpt lat="44.06581" lon="6.42121">
        <ele>1155.5</ele>
        <time>2021-09-12T08:04:26Z</time>
      </trkpt>
      <trkpt lat="44.0658" lon="6.42123">
        <ele>1155.6</ele>
        <time>2021-09-12T08:04:27Z</time>
      </trkpt>
      <trkpt lat="44.06576" lon="6.42125">
        <ele>1156</ele>
        <time>2021-09-12T08:04:29Z</time>
      </trkpt>
      <trkpt lat="44.06574" lon="6.42126">
        <ele>1156.1</ele>
        <time>2021-09-12T08:04:30Z</time>
      </trkpt>
      <trkpt lat="44.06573" lon="6.42128">
        <ele>1156.2</ele>
        <time>2021-09-12T08:04:31Z</time>
      </trkpt>
      <trkpt lat="44.06569" lon="6.42131">
        <ele>1156.5</ele>
        <time>2021-09-12T08:04:33Z</time>
      </trkpt>
      <trkpt lat="44.06568" lon="6.42131">
        <ele>1156.6</ele>
        <time>2021-09-12T08:04:34Z</time>
      </trkpt>
      <trkpt lat="44.06567" lon="6.42131">
        <ele>1156.7</ele>
        <time>2021-09-12T08:04:35Z</time>
      </trkpt>
      <trkpt lat="44.06565" lon="6.42132">
        <ele>1156.9</ele>
        <time>2021-09-12T08:04:36Z</time>
      </trkpt>
      <trkpt lat="44.06562" lon="6.42132">
        <ele>1157.1</ele>
        <time>2021-09-12T08:04:38Z</time>
      </trkpt>
      <trkpt lat="44.0656" lon="6.42133">
        <ele>1157.2</ele>
        <time>2021-09-12T08:04:39Z</time>
      </trkpt>
      <trkpt lat="44.06559" lon="6.42133">
        <ele>1157.4</ele>
        <time>2021-09-12T08:04:40Z</time>
      </trkpt>
      <trkpt lat="44.06554" lon="6.42135">
        <ele>1157.7</ele>
        <time>2021-09-12T08:04:43Z</time>
      </trkpt>
      <trkpt lat="44.06552" lon="6.42136">
        <ele>1157.9</ele>
        <time>2021-09-12T08:04:44Z</time>
      </trkpt>
      <trkpt lat="44.0655" lon="6.42137">
        <ele>1158</ele>
        <time>2021-09-12T08:04:45Z</time>
      </trkpt>
      <trkpt lat="44.06548" lon="6.42139">
        <ele>1158.2</ele>
        <time>2021-09-12T08:04:47Z</time>
      </trkpt>
      <trkpt lat="44.06545" lon="6.42141">
        <ele>1158.5</ele>
        <time>2021-09-12T08:04:50Z</time>
      </trkpt>
      <trkpt lat="44.06542" lon="6.42144">
        <ele>1158.7</ele>
        <time>2021-09-12T08:04:51Z</time>
      </trkpt>
      <trkpt lat="44.06541" lon="6.42145">
        <ele>1158.8</ele>
        <time>2021-09-12T08:04:53Z</time>
      </trkpt>
      <trkpt lat="44.06537" lon="6.42147">
        <ele>1159.1</ele>
        <time>2021-09-12T08:04:55Z</time>
      </trkpt>
      <trkpt lat="44.06535" lon="6.4215">
        <ele>1159.4</ele>
        <time>2021-09-12T08:04:57Z</time>
      </trkpt>
      <trkpt lat="44.06534" lon="6.42151">
        <ele>1159.5</ele>
        <time>2021-09-12T08:04:58Z</time>
      </trkpt>
      <trkpt lat="44.06531" lon="6.42156">
        <ele>1159.8</ele>
        <time>2021-09-12T08:05:00Z</time>
      </trkpt>
      <trkpt lat="44.0653" lon="6.42159">
        <ele>1160</ele>
        <time>2021-09-12T08:05:02Z</time>
      </trkpt>
      <trkpt lat="44.06527" lon="6.42167">
        <ele>1160.4</ele>
        <time>2021-09-12T08:05:05Z</time>
      </trkpt>
      <trkpt lat="44.06527" lon="6.42169">
        <ele>1160.5</ele>
        <time>2021-09-12T08:05:06Z</time>
      </trkpt>
      <trkpt lat="44.06526" lon="6.42174">
        <ele>1160.7</ele>
        <time>2021-09-12T08:05:09Z</time>
      </trkpt>
      <trkpt lat="44.06525" lon="6.42179">
        <ele>1161</ele>
        <time>2021-09-12T08:05:11Z</time>
      </trkpt>
      <trkpt lat="44.06525" lon="6.42182">
        <ele>1161.1</ele>
        <time>2021-09-12T08:05:12Z</time>
      </trkpt>
      <trkpt lat="44.06526" lon="6.42188">
        <ele>1161.4</ele>
        <time>2021-09-12T08:05:15Z</time>
      </trkpt>
      <trkpt lat="44.06527" lon="6.42192">
        <ele>1161.6</ele>
        <time>2021-09-12T08:05:16Z</time>
      </trkpt>
      <trkpt lat="44.06527" lon="6.42196">
        <ele>1161.7</ele>
        <time>2021-09-12T08:05:18Z</time>
      </trkpt>
      <trkpt lat="44.06528" lon="6.42201">
        <ele>1161.9</ele>
        <time>2021-09-12T08:05:20Z</time>
      </trkpt>
      <trkpt lat="44.06528" lon="6.42204">
        <ele>1162.1</ele>
        <time>2021-09-12T08:05:21Z</time>
      </trkpt>
      <trkpt lat="44.06528" lon="6.4221">
        <ele>1162.3</ele>
        <time>2021-09-12T08:05:23Z</time>
      </trkpt>
      <trkpt lat="44.06528" lon="6.42219">
        <ele>1162.7</ele>
        <time>2021-09-12T08:05:26Z</time>
      </trkpt>
      <trkpt lat="44.06528" lon="6.42222">
        <ele>1162.8</ele>
        <time>2021-09-12T08:05:27Z</time>
      </trkpt>
      <trkpt lat="44.06527" lon="6.42227">
        <ele>1163</ele>
        <time>2021-09-12T08:05:29Z</time>
      </trkpt>
      <trkpt lat="44.06526" lon="6.42232">
        <ele>1163.3</ele>
        <time>2021-09-12T08:05:31Z</time>
      </trkpt>
      <trkpt lat="44.06525" lon="6.42238">
        <ele>1163.6</ele>
        <time>2021-09-12T08:05:33Z</time>
      </trkpt>
      <trkpt lat="44.06523" lon="6.42242">
        <ele>1163.8</ele>
        <time>2021-09-12T08:05:35Z</time>
      </trkpt>
      <trkpt lat="44.06522" lon="6.42243">
        <ele>1163.9</ele>
        <time>2021-09-12T08:05:36Z</time>
      </trkpt>
      <trkpt lat="44.06521" lon="6.42245">
        <ele>1164.1</ele>
        <time>2021-09-12T08:05:37Z</time>
      </trkpt>
      <trkpt lat="44.06518" lon="6.4225">
        <ele>1164.4</ele>
        <time>2021-09-12T08:05:39Z</time>
      </trkpt>
      <trkpt lat="44.06517" lon="6.42253">
        <ele>1164.5</ele>
        <time>2021-09-12T08:05:40Z</time>
      </trkpt>
      <trkpt lat="44.06516" lon="6.42257">
        <ele>1164.8</ele>
        <time>2021-09-12T08:05:42Z</time>
      </trkpt>
      <trkpt lat="44.06515" lon="6.42261">
        <ele>1165</ele>
        <time>2021-09-12T08:05:44Z</time>
      </trkpt>
      <trkpt lat="44.06513" lon="6.42265">
        <ele>1165.2</ele>
        <time>2021-09-12T08:05:46Z</time>
      </trkpt>
      <trkpt lat="44.06512" lon="6.42268">
        <ele>1165.5</ele>
        <time>2021-09-12T08:05:48Z</time>
      </trkpt>
      <trkpt lat="44.06509" lon="6.42273">
        <ele>1165.8</ele>
        <time>2021-09-12T08:05:50Z</time>
      </trkpt>
      <trkpt lat="44.06508" lon="6.42276">
        <ele>1166</ele>
        <time>2021-09-12T08:05:51Z</time>
      </trkpt>
      <trkpt lat="44.06505" lon="6.4228">
        <ele>1166.3</ele>
        <time>2021-09-12T08:05:54Z</time>
      </trkpt>
      <trkpt lat="44.06504" lon="6.42282">
        <ele>1166.5</ele>
        <time>2021-09-12T08:05:55Z</time>
      </trkpt>
      <trkpt lat="44.06502" lon="6.42287">
        <ele>1166.8</ele>
        <time>2021-09-12T08:05:57Z</time>
      </trkpt>
      <trkpt lat="44.06502" lon="6.42291">
        <ele>1167</ele>
        <time>2021-09-12T08:05:59Z</time>
      </trkpt>
      <trkpt lat="44.06501" lon="6.42295">
        <ele>1167.2</ele>
        <time>2021-09-12T08:06:01Z</time>
      </trkpt>
      <trkpt lat="44.06501" lon="6.42297">
        <ele>1167.4</ele>
        <time>2021-09-12T08:06:02Z</time>
      </trkpt>
      <trkpt lat="44.06499" lon="6.42302">
        <ele>1167.7</ele>
        <time>2021-09-12T08:06:05Z</time>
      </trkpt>
      <trkpt lat="44.06499" lon="6.42305">
        <ele>1167.9</ele>
        <time>2021-09-12T08:06:06Z</time>
      </trkpt>
      <trkpt lat="44.06497" lon="6.42308">
        <ele>1168.1</ele>
        <time>2021-09-12T08:06:08Z</time>
      </trkpt>
      <trkpt lat="44.06496" lon="6.4231">
        <ele>1168.3</ele>
        <time>2021-09-12T08:06:09Z</time>
      </trkpt>
      <trkpt lat="44.06495" lon="6.42311">
        <ele>1168.4</ele>
        <time>2021-09-12T08:06:10Z</time>
      </trkpt>
      <trkpt lat="44.06494" lon="6.42312">
        <ele>1168.5</ele>
        <time>2021-09-12T08:06:11Z</time>
      </trkpt>
      <trkpt lat="44.06492" lon="6.42313">
        <ele>1168.7</ele>
        <time>2021-09-12T08:06:13Z</time>
      </trkpt>
      <trkpt lat="44.0649" lon="6.42312">
        <ele>1168.8</ele>
        <time>2021-09-12T08:06:14Z</time>
      </trkpt>
      <trkpt lat="44.06489" lon="6.42312">
        <ele>1168.9</ele>
        <time>2021-09-12T08:06:15Z</time>
      </trkpt>
      <trkpt lat="44.06488" lon="6.42312">
        <ele>1169</ele>
        <time>2021-09-12T08:06:16Z</time>
      </trkpt>
      <trkpt lat="44.06486" lon="6.42313">
        <ele>1169.2</ele>
        <time>2021-09-12T08:06:17Z</time>
      </trkpt>
      <trkpt lat="44.06484" lon="6.42313">
        <ele>1169.3</ele>
        <time>2021-09-12T08:06:19Z</time>
      </trkpt>
      <trkpt lat="44.06482" lon="6.42313">
        <ele>1169.5</ele>
        <time>2021-09-12T08:06:20Z</time>
      </trkpt>
      <trkpt lat="44.06481" lon="6.42312">
        <ele>1169.6</ele>
        <time>2021-09-12T08:06:22Z</time>
      </trkpt>
      <trkpt lat="44.06477" lon="6.42312">
        <ele>1169.9</ele>
        <time>2021-09-12T08:06:24Z</time>
      </trkpt>
      <trkpt lat="44.06474" lon="6.42312">
        <ele>1170.1</ele>
        <time>2021-09-12T08:06:26Z</time>
      </trkpt>
      <trkpt lat="44.06471" lon="6.42312">
        <ele>1170.3</ele>
        <time>2021-09-12T08:06:28Z</time>
      </trkpt>
      <trkpt lat="44.06468" lon="6.42312">
        <ele>1170.6</ele>
        <time>2021-09-12T08:06:30Z</time>
      </trkpt>
      <trkpt lat="44.06463" lon="6.42312">
        <ele>1170.9</ele>
        <time>2021-09-12T08:06:34Z</time>
      </trkpt>
      <trkpt lat="44.0646" lon="6.42312">
        <ele>1171.2</ele>
        <time>2021-09-12T08:06:36Z</time>
      </trkpt>
      <trkpt lat="44.06456" lon="6.42313">
        <ele>1171.4</ele>
        <time>2021-09-12T08:06:38Z</time>
      </trkpt>
      <trkpt lat="44.06452" lon="6.42314">
        <ele>1171.8</ele>
        <time>2021-09-12T08:06:41Z</time>
      </trkpt>
      <trkpt lat="44.06447" lon="6.42315">
        <ele>1172.2</ele>
        <time>2021-09-12T08:06:43Z</time>
      </trkpt>
      <trkpt lat="44.06443" lon="6.42317">
        <ele>1172.5</ele>
        <time>2021-09-12T08:06:46Z</time>
      </trkpt>
      <trkpt lat="44.06441" lon="6.42318">
        <ele>1172.7</ele>
        <time>2021-09-12T08:06:48Z</time>
      </trkpt>
      <trkpt lat="44.06437" lon="6.4232">
        <ele>1173</ele>
        <time>2021-09-12T08:06:50Z</time>
      </trkpt>
      <trkpt lat="44.06434" lon="6.42322">
        <ele>1173.2</ele>
        <time>2021-09-12T08:06:52Z</time>
      </trkpt>
      <trkpt lat="44.06432" lon="6.42323">
        <ele>1173.4</ele>
        <time>2021-09-12T08:06:54Z</time>
      </trkpt>
      <trkpt lat="44.06429" lon="6.42325">
        <ele>1173.6</ele>
        <time>2021-09-12T08:06:56Z</time>
      </trkpt>
      <trkpt lat="44.06426" lon="6.42328">
        <ele>1173.9</ele>
        <time>2021-09-12T08:06:58Z</time>
      </trkpt>
      <trkpt lat="44.06423" lon="6.4233">
        <ele>1174.2</ele>
        <time>2021-09-12T08:07:01Z</time>
      </trkpt>
      <trkpt lat="44.06421" lon="6.42333">
        <ele>1174.4</ele>
        <time>2021-09-12T08:07:02Z</time>
      </trkpt>
      <trkpt lat="44.0642" lon="6.42334">
        <ele>1174.4</ele>
        <time>2021-09-12T08:07:03Z</time>
      </trkpt>
      <trkpt lat="44.06416" lon="6.4234">
        <ele>1174.8</ele>
        <time>2021-09-12T08:07:06Z</time>
      </trkpt>
      <trkpt lat="44.06415" lon="6.42341">
        <ele>1174.9</ele>
        <time>2021-09-12T08:07:07Z</time>
      </trkpt>
      <trkpt lat="44.06412" lon="6.42343">
        <ele>1175.2</ele>
        <time>2021-09-12T08:07:09Z</time>
      </trkpt>
      <trkpt lat="44.0641" lon="6.42345">
        <ele>1175.4</ele>
        <time>2021-09-12T08:07:10Z</time>
      </trkpt>
      <trkpt lat="44.06407" lon="6.42348">
        <ele>1175.7</ele>
        <time>2021-09-12T08:07:12Z</time>
      </trkpt>
      <trkpt lat="44.06405" lon="6.42351">
        <ele>1175.9</ele>
        <time>2021-09-12T08:07:14Z</time>
      </trkpt>
      <trkpt lat="44.06404" lon="6.42352">
        <ele>1176</ele>
        <time>2021-09-12T08:07:15Z</time>
      </trkpt>
      <trkpt lat="44.06402" lon="6.42353">
        <ele>1176.1</ele>
        <time>2021-09-12T08:07:16Z</time>
      </trkpt>
      <trkpt lat="44.064" lon="6.42356">
        <ele>1176.4</ele>
        <time>2021-09-12T08:07:17Z</time>
      </trkpt>
      <trkpt lat="44.06399" lon="6.42358">
        <ele>1176.6</ele>
        <time>2021-09-12T08:07:19Z</time>
      </trkpt>
      <trkpt lat="44.06397" lon="6.42361">
        <ele>1176.8</ele>
        <time>2021-09-12T08:07:20Z</time>
      </trkpt>
      <trkpt lat="44.06396" lon="6.42364">
        <ele>1177</ele>
        <time>2021-09-12T08:07:22Z</time>
      </trkpt>
      <trkpt lat="44.06394" lon="6.42367">
        <ele>1177.2</ele>
        <time>2021-09-12T08:07:24Z</time>
      </trkpt>
      <trkpt lat="44.06393" lon="6.4237">
        <ele>1177.4</ele>
        <time>2021-09-12T08:07:26Z</time>
      </trkpt>
      <trkpt lat="44.06391" lon="6.42373">
        <ele>1177.6</ele>
        <time>2021-09-12T08:07:27Z</time>
      </trkpt>
      <trkpt lat="44.0639" lon="6.42375">
        <ele>1177.7</ele>
        <time>2021-09-12T08:07:28Z</time>
      </trkpt>
      <trkpt lat="44.0639" lon="6.42377">
        <ele>1177.8</ele>
        <time>2021-09-12T08:07:29Z</time>
      </trkpt>
      <trkpt lat="44.06387" lon="6.4238">
        <ele>1178</ele>
        <time>2021-09-12T08:07:31Z</time>
      </trkpt>
      <trkpt lat="44.06387" lon="6.42381">
        <ele>1178.1</ele>
        <time>2021-09-12T08:07:32Z</time>
      </trkpt>
      <trkpt lat="44.06386" lon="6.42383">
        <ele>1178.2</ele>
        <time>2021-09-12T08:07:33Z</time>
      </trkpt>
      <trkpt lat="44.06385" lon="6.42387">
        <ele>1178.4</ele>
        <time>2021-09-12T08:07:35Z</time>
      </trkpt>
      <trkpt lat="44.06383" lon="6.42392">
        <ele>1178.7</ele>
        <time>2021-09-12T08:07:37Z</time>
      </trkpt>
      <trkpt lat="44.06382" lon="6.42394">
        <ele>1178.8</ele>
        <time>2021-09-12T08:07:39Z</time>
      </trkpt>
      <trkpt lat="44.0638" lon="6.42398">
        <ele>1179.1</ele>
        <time>2021-09-12T08:07:41Z</time>
      </trkpt>
      <trkpt lat="44.06377" lon="6.42401">
        <ele>1179.3</ele>
        <time>2021-09-12T08:07:43Z</time>
      </trkpt>
      <trkpt lat="44.06375" lon="6.42403">
        <ele>1179.6</ele>
        <time>2021-09-12T08:07:45Z</time>
      </trkpt>
      <trkpt lat="44.06372" lon="6.42409">
        <ele>1179.9</ele>
        <time>2021-09-12T08:07:48Z</time>
      </trkpt>
      <trkpt lat="44.06371" lon="6.42411">
        <ele>1180</ele>
        <time>2021-09-12T08:07:49Z</time>
      </trkpt>
      <trkpt lat="44.06371" lon="6.42413">
        <ele>1180.2</ele>
        <time>2021-09-12T08:07:50Z</time>
      </trkpt>
      <trkpt lat="44.0637" lon="6.42415">
        <ele>1180.3</ele>
        <time>2021-09-12T08:07:51Z</time>
      </trkpt>
      <trkpt lat="44.06367" lon="6.42418">
        <ele>1180.6</ele>
        <time>2021-09-12T08:07:53Z</time>
      </trkpt>
      <trkpt lat="44.06366" lon="6.4242">
        <ele>1180.7</ele>
        <time>2021-09-12T08:07:54Z</time>
      </trkpt>
      <trkpt lat="44.06365" lon="6.42422">
        <ele>1180.8</ele>
        <time>2021-09-12T08:07:56Z</time>
      </trkpt>
      <trkpt lat="44.06363" lon="6.42424">
        <ele>1181</ele>
        <time>2021-09-12T08:07:57Z</time>
      </trkpt>
      <trkpt lat="44.06361" lon="6.42427">
        <ele>1181.2</ele>
        <time>2021-09-12T08:07:59Z</time>
      </trkpt>
      <trkpt lat="44.06357" lon="6.4243">
        <ele>1181.6</ele>
        <time>2021-09-12T08:08:02Z</time>
      </trkpt>
      <trkpt lat="44.06356" lon="6.42432">
        <ele>1181.7</ele>
        <time>2021-09-12T08:08:03Z</time>
      </trkpt>
      <trkpt lat="44.06355" lon="6.42433">
        <ele>1181.8</ele>
        <time>2021-09-12T08:08:04Z</time>
      </trkpt>
      <trkpt lat="44.06353" lon="6.42435">
        <ele>1182</ele>
        <time>2021-09-12T08:08:05Z</time>
      </trkpt>
      <trkpt lat="44.0635" lon="6.42438">
        <ele>1182.3</ele>
        <time>2021-09-12T08:08:07Z</time>
      </trkpt>
      <trkpt lat="44.06349" lon="6.4244">
        <ele>1182.4</ele>
        <time>2021-09-12T08:08:08Z</time>
      </trkpt>
      <trkpt lat="44.06349" lon="6.42441">
        <ele>1182.5</ele>
        <time>2021-09-12T08:08:09Z</time>
      </trkpt>
      <trkpt lat="44.06347" lon="6.42443">
        <ele>1182.7</ele>
        <time>2021-09-12T08:08:10Z</time>
      </trkpt>
      <trkpt lat="44.06346" lon="6.42444">
        <ele>1182.8</ele>
        <time>2021-09-12T08:08:11Z</time>
      </trkpt>
      <trkpt lat="44.06344" lon="6.42446">
        <ele>1182.9</ele>
        <time>2021-09-12T08:08:12Z</time>
      </trkpt>
      <trkpt lat="44.06341" lon="6.42449">
        <ele>1183.2</ele>
        <time>2021-09-12T08:08:15Z</time>
      </trkpt>
      <trkpt lat="44.06338" lon="6.42451">
        <ele>1183.5</ele>
        <time>2021-09-12T08:08:17Z</time>
      </trkpt>
      <trkpt lat="44.06336" lon="6.42453">
        <ele>1183.7</ele>
        <time>2021-09-12T08:08:18Z</time>
      </trkpt>
      <trkpt lat="44.06333" lon="6.42455">
        <ele>1184</ele>
        <time>2021-09-12T08:08:20Z</time>
      </trkpt>
      <trkpt lat="44.06332" lon="6.42459">
        <ele>1184.2</ele>
        <time>2021-09-12T08:08:22Z</time>
      </trkpt>
      <trkpt lat="44.06332" lon="6.4246">
        <ele>1184.3</ele>
        <time>2021-09-12T08:08:23Z</time>
      </trkpt>
      <trkpt lat="44.06331" lon="6.42462">
        <ele>1184.4</ele>
        <time>2021-09-12T08:08:24Z</time>
      </trkpt>
      <trkpt lat="44.06329" lon="6.42464">
        <ele>1184.6</ele>
        <time>2021-09-12T08:08:25Z</time>
      </trkpt>
      <trkpt lat="44.06328" lon="6.42466">
        <ele>1184.8</ele>
        <time>2021-09-12T08:08:26Z</time>
      </trkpt>
      <trkpt lat="44.06327" lon="6.42467">
        <ele>1184.9</ele>
        <time>2021-09-12T08:08:27Z</time>
      </trkpt>
      <trkpt lat="44.06327" lon="6.42469">
        <ele>1185</ele>
        <time>2021-09-12T08:08:28Z</time>
      </trkpt>
      <trkpt lat="44.06325" lon="6.42471">
        <ele>1185.2</ele>
        <time>2021-09-12T08:08:30Z</time>
      </trkpt>
      <trkpt lat="44.06323" lon="6.42474">
        <ele>1185.4</ele>
        <time>2021-09-12T08:08:32Z</time>
      </trkpt>
      <trkpt lat="44.06322" lon="6.42475">
        <ele>1185.8</ele>
        <time>2021-09-12T08:08:33Z</time>
      </trkpt>
      <trkpt lat="44.06321" lon="6.42476">
        <ele>1185.9</ele>
        <time>2021-09-12T08:08:34Z</time>
      </trkpt>
      <trkpt lat="44.06318" lon="6.4248">
        <ele>1186.2</ele>
        <time>2021-09-12T08:08:37Z</time>
      </trkpt>
      <trkpt lat="44.06316" lon="6.42482">
        <ele>1186.4</ele>
        <time>2021-09-12T08:08:40Z</time>
      </trkpt>
      <trkpt lat="44.06315" lon="6.42482">
        <ele>1186.5</ele>
        <time>2021-09-12T08:08:42Z</time>
      </trkpt>
      <trkpt lat="44.06311" lon="6.42482">
        <ele>1186.7</ele>
        <time>2021-09-12T08:08:45Z</time>
      </trkpt>
      <trkpt lat="44.0631" lon="6.42482">
        <ele>1186.8</ele>
        <time>2021-09-12T08:08:46Z</time>
      </trkpt>
      <trkpt lat="44.06306" lon="6.42481">
        <ele>1187.1</ele>
        <time>2021-09-12T08:08:51Z</time>
      </trkpt>
      <trkpt lat="44.06302" lon="6.42482">
        <ele>1187.4</ele>
        <time>2021-09-12T08:08:55Z</time>
      </trkpt>
      <trkpt lat="44.06298" lon="6.42482">
        <ele>1187.7</ele>
        <time>2021-09-12T08:08:59Z</time>
      </trkpt>
      <trkpt lat="44.06295" lon="6.42484">
        <ele>1188</ele>
        <time>2021-09-12T08:09:02Z</time>
      </trkpt>
      <trkpt lat="44.06293" lon="6.42486">
        <ele>1188.2</ele>
        <time>2021-09-12T08:09:04Z</time>
      </trkpt>
      <trkpt lat="44.0629" lon="6.42488">
        <ele>1188.5</ele>
        <time>2021-09-12T08:09:07Z</time>
      </trkpt>
      <trkpt lat="44.06288" lon="6.42491">
        <ele>1188.7</ele>
        <time>2021-09-12T08:09:09Z</time>
      </trkpt>
      <trkpt lat="44.06286" lon="6.42493">
        <ele>1188.8</ele>
        <time>2021-09-12T08:09:10Z</time>
      </trkpt>
      <trkpt lat="44.06283" lon="6.42498">
        <ele>1189.2</ele>
        <time>2021-09-12T08:09:13Z</time>
      </trkpt>
      <trkpt lat="44.06283" lon="6.425">
        <ele>1189.3</ele>
        <time>2021-09-12T08:09:14Z</time>
      </trkpt>
      <trkpt lat="44.06282" lon="6.42503">
        <ele>1189.5</ele>
        <time>2021-09-12T08:09:16Z</time>
      </trkpt>
      <trkpt lat="44.06281" lon="6.42506">
        <ele>1189.7</ele>
        <time>2021-09-12T08:09:17Z</time>
      </trkpt>
      <trkpt lat="44.06281" lon="6.42509">
        <ele>1189.8</ele>
        <time>2021-09-12T08:09:18Z</time>
      </trkpt>
      <trkpt lat="44.0628" lon="6.42511">
        <ele>1189.9</ele>
        <time>2021-09-12T08:09:19Z</time>
      </trkpt>
      <trkpt lat="44.0628" lon="6.42512">
        <ele>1190.1</ele>
        <time>2021-09-12T08:09:20Z</time>
      </trkpt>
      <trkpt lat="44.06279" lon="6.42514">
        <ele>1190.2</ele>
        <time>2021-09-12T08:09:21Z</time>
      </trkpt>
      <trkpt lat="44.06277" lon="6.42518">
        <ele>1190.5</ele>
        <time>2021-09-12T08:09:23Z</time>
      </trkpt>
      <trkpt lat="44.06276" lon="6.4252">
        <ele>1190.6</ele>
        <time>2021-09-12T08:09:24Z</time>
      </trkpt>
      <trkpt lat="44.06274" lon="6.42521">
        <ele>1190.7</ele>
        <time>2021-09-12T08:09:25Z</time>
      </trkpt>
      <trkpt lat="44.06273" lon="6.42522">
        <ele>1190.9</ele>
        <time>2021-09-12T08:09:27Z</time>
      </trkpt>
      <trkpt lat="44.06269" lon="6.42524">
        <ele>1191.2</ele>
        <time>2021-09-12T08:09:29Z</time>
      </trkpt>
      <trkpt lat="44.06267" lon="6.42523">
        <ele>1191.4</ele>
        <time>2021-09-12T08:09:31Z</time>
      </trkpt>
      <trkpt lat="44.06266" lon="6.42523">
        <ele>1191.5</ele>
        <time>2021-09-12T08:09:32Z</time>
      </trkpt>
      <trkpt lat="44.06264" lon="6.42523">
        <ele>1191.6</ele>
        <time>2021-09-12T08:09:33Z</time>
      </trkpt>
      <trkpt lat="44.06263" lon="6.42523">
        <ele>1191.7</ele>
        <time>2021-09-12T08:09:34Z</time>
      </trkpt>
      <trkpt lat="44.06259" lon="6.42524">
        <ele>1191.9</ele>
        <time>2021-09-12T08:09:36Z</time>
      </trkpt>
      <trkpt lat="44.06255" lon="6.42524">
        <ele>1192.2</ele>
        <time>2021-09-12T08:09:39Z</time>
      </trkpt>
      <trkpt lat="44.06252" lon="6.42524">
        <ele>1192.5</ele>
        <time>2021-09-12T08:09:41Z</time>
      </trkpt>
      <trkpt lat="44.06249" lon="6.42525">
        <ele>1192.7</ele>
        <time>2021-09-12T08:09:43Z</time>
      </trkpt>
      <trkpt lat="44.06247" lon="6.42525">
        <ele>1192.9</ele>
        <time>2021-09-12T08:09:45Z</time>
      </trkpt>
      <trkpt lat="44.06245" lon="6.42525">
        <ele>1192.9</ele>
        <time>2021-09-12T08:09:46Z</time>
      </trkpt>
      <trkpt lat="44.06243" lon="6.42524">
        <ele>1193.1</ele>
        <time>2021-09-12T08:09:47Z</time>
      </trkpt>
      <trkpt lat="44.06242" lon="6.42524">
        <ele>1193.2</ele>
        <time>2021-09-12T08:09:49Z</time>
      </trkpt>
      <trkpt lat="44.06239" lon="6.42524">
        <ele>1193.4</ele>
        <time>2021-09-12T08:09:50Z</time>
      </trkpt>
      <trkpt lat="44.06239" lon="6.42524">
        <ele>1193.4</ele>
        <time>2021-09-12T08:09:51Z</time>
      </trkpt>
      <trkpt lat="44.06235" lon="6.42524">
        <ele>1193.6</ele>
        <time>2021-09-12T08:09:53Z</time>
      </trkpt>
      <trkpt lat="44.06231" lon="6.42523">
        <ele>1193.9</ele>
        <time>2021-09-12T08:09:56Z</time>
      </trkpt>
      <trkpt lat="44.06227" lon="6.42522">
        <ele>1194.1</ele>
        <time>2021-09-12T08:09:58Z</time>
      </trkpt>
      <trkpt lat="44.06226" lon="6.42522">
        <ele>1194.2</ele>
        <time>2021-09-12T08:09:59Z</time>
      </trkpt>
      <trkpt lat="44.06224" lon="6.42522">
        <ele>1194.3</ele>
        <time>2021-09-12T08:10:00Z</time>
      </trkpt>
      <trkpt lat="44.0622" lon="6.4252">
        <ele>1194.6</ele>
        <time>2021-09-12T08:10:02Z</time>
      </trkpt>
      <trkpt lat="44.06218" lon="6.4252">
        <ele>1194.7</ele>
        <time>2021-09-12T08:10:03Z</time>
      </trkpt>
      <trkpt lat="44.06214" lon="6.42522">
        <ele>1195</ele>
        <time>2021-09-12T08:10:05Z</time>
      </trkpt>
      <trkpt lat="44.06213" lon="6.42523">
        <ele>1195.1</ele>
        <time>2021-09-12T08:10:06Z</time>
      </trkpt>
      <trkpt lat="44.06212" lon="6.42524">
        <ele>1195.2</ele>
        <time>2021-09-12T08:10:07Z</time>
      </trkpt>
      <trkpt lat="44.06208" lon="6.42525">
        <ele>1195.4</ele>
        <time>2021-09-12T08:10:08Z</time>
      </trkpt>
      <trkpt lat="44.06206" lon="6.42526">
        <ele>1195.6</ele>
        <time>2021-09-12T08:10:10Z</time>
      </trkpt>
      <trkpt lat="44.062" lon="6.42527">
        <ele>1196</ele>
        <time>2021-09-12T08:10:13Z</time>
      </trkpt>
      <trkpt lat="44.06198" lon="6.42528">
        <ele>1196.1</ele>
        <time>2021-09-12T08:10:14Z</time>
      </trkpt>
      <trkpt lat="44.06193" lon="6.42529">
        <ele>1196.5</ele>
        <time>2021-09-12T08:10:17Z</time>
      </trkpt>
      <trkpt lat="44.06189" lon="6.4253">
        <ele>1196.8</ele>
        <time>2021-09-12T08:10:19Z</time>
      </trkpt>
      <trkpt lat="44.06182" lon="6.42531">
        <ele>1197.3</ele>
        <time>2021-09-12T08:10:23Z</time>
      </trkpt>
      <trkpt lat="44.06178" lon="6.42532">
        <ele>1197.6</ele>
        <time>2021-09-12T08:10:25Z</time>
      </trkpt>
      <trkpt lat="44.06172" lon="6.42532">
        <ele>1198</ele>
        <time>2021-09-12T08:10:28Z</time>
      </trkpt>
      <trkpt lat="44.06166" lon="6.42533">
        <ele>1198.4</ele>
        <time>2021-09-12T08:10:32Z</time>
      </trkpt>
      <trkpt lat="44.06159" lon="6.42534">
        <ele>1198.9</ele>
        <time>2021-09-12T08:10:35Z</time>
      </trkpt>
      <trkpt lat="44.06153" lon="6.42534">
        <ele>1199.4</ele>
        <time>2021-09-12T08:10:39Z</time>
      </trkpt>
      <trkpt lat="44.06148" lon="6.42535">
        <ele>1199.8</ele>
        <time>2021-09-12T08:10:42Z</time>
      </trkpt>
      <trkpt lat="44.06143" lon="6.42536">
        <ele>1200.1</ele>
        <time>2021-09-12T08:10:44Z</time>
      </trkpt>
      <trkpt lat="44.06138" lon="6.42537">
        <ele>1200.5</ele>
        <time>2021-09-12T08:10:48Z</time>
      </trkpt>
      <trkpt lat="44.06134" lon="6.42539">
        <ele>1200.8</ele>
        <time>2021-09-12T08:10:50Z</time>
      </trkpt>
      <trkpt lat="44.06131" lon="6.42541">
        <ele>1201.1</ele>
        <time>2021-09-12T08:10:52Z</time>
      </trkpt>
      <trkpt lat="44.06127" lon="6.42543">
        <ele>1201.3</ele>
        <time>2021-09-12T08:10:54Z</time>
      </trkpt>
      <trkpt lat="44.06126" lon="6.42548">
        <ele>1201.6</ele>
        <time>2021-09-12T08:10:56Z</time>
      </trkpt>
      <trkpt lat="44.06126" lon="6.42553">
        <ele>1201.9</ele>
        <time>2021-09-12T08:10:58Z</time>
      </trkpt>
      <trkpt lat="44.06126" lon="6.42554">
        <ele>1201.9</ele>
        <time>2021-09-12T08:10:59Z</time>
      </trkpt>
      <trkpt lat="44.06125" lon="6.42559">
        <ele>1202.2</ele>
        <time>2021-09-12T08:11:01Z</time>
      </trkpt>
      <trkpt lat="44.06125" lon="6.42561">
        <ele>1202.3</ele>
        <time>2021-09-12T08:11:02Z</time>
      </trkpt>
      <trkpt lat="44.06124" lon="6.42564">
        <ele>1202.4</ele>
        <time>2021-09-12T08:11:03Z</time>
      </trkpt>
      <trkpt lat="44.06123" lon="6.42566">
        <ele>1202.6</ele>
        <time>2021-09-12T08:11:04Z</time>
      </trkpt>
      <trkpt lat="44.06122" lon="6.42569">
        <ele>1202.7</ele>
        <time>2021-09-12T08:11:05Z</time>
      </trkpt>
      <trkpt lat="44.06121" lon="6.4257">
        <ele>1202.8</ele>
        <time>2021-09-12T08:11:06Z</time>
      </trkpt>
      <trkpt lat="44.06119" lon="6.42573">
        <ele>1203</ele>
        <time>2021-09-12T08:11:07Z</time>
      </trkpt>
      <trkpt lat="44.06117" lon="6.42574">
        <ele>1203.2</ele>
        <time>2021-09-12T08:11:09Z</time>
      </trkpt>
      <trkpt lat="44.06113" lon="6.42573">
        <ele>1203.4</ele>
        <time>2021-09-12T08:11:10Z</time>
      </trkpt>
      <trkpt lat="44.0611" lon="6.42574">
        <ele>1203.7</ele>
        <time>2021-09-12T08:11:12Z</time>
      </trkpt>
      <trkpt lat="44.06106" lon="6.42575">
        <ele>1204</ele>
        <time>2021-09-12T08:11:14Z</time>
      </trkpt>
      <trkpt lat="44.06105" lon="6.42576">
        <ele>1204.1</ele>
        <time>2021-09-12T08:11:15Z</time>
      </trkpt>
      <trkpt lat="44.06103" lon="6.42578">
        <ele>1204.2</ele>
        <time>2021-09-12T08:11:16Z</time>
      </trkpt>
      <trkpt lat="44.061" lon="6.4258">
        <ele>1204.5</ele>
        <time>2021-09-12T08:11:18Z</time>
      </trkpt>
      <trkpt lat="44.06097" lon="6.4258">
        <ele>1204.7</ele>
        <time>2021-09-12T08:11:20Z</time>
      </trkpt>
      <trkpt lat="44.06094" lon="6.42582">
        <ele>1204.9</ele>
        <time>2021-09-12T08:11:22Z</time>
      </trkpt>
      <trkpt lat="44.06091" lon="6.42584">
        <ele>1205.1</ele>
        <time>2021-09-12T08:11:24Z</time>
      </trkpt>
      <trkpt lat="44.0609" lon="6.42585">
        <ele>1205.2</ele>
        <time>2021-09-12T08:11:25Z</time>
      </trkpt>
      <trkpt lat="44.06085" lon="6.42589">
        <ele>1205.6</ele>
        <time>2021-09-12T08:11:28Z</time>
      </trkpt>
      <trkpt lat="44.06084" lon="6.4259">
        <ele>1205.7</ele>
        <time>2021-09-12T08:11:29Z</time>
      </trkpt>
      <trkpt lat="44.06083" lon="6.42592">
        <ele>1205.9</ele>
        <time>2021-09-12T08:11:30Z</time>
      </trkpt>
      <trkpt lat="44.06079" lon="6.42594">
        <ele>1206.2</ele>
        <time>2021-09-12T08:11:33Z</time>
      </trkpt>
      <trkpt lat="44.06076" lon="6.42596">
        <ele>1206.4</ele>
        <time>2021-09-12T08:11:34Z</time>
      </trkpt>
      <trkpt lat="44.06072" lon="6.42598">
        <ele>1206.7</ele>
        <time>2021-09-12T08:11:37Z</time>
      </trkpt>
      <trkpt lat="44.06071" lon="6.42599">
        <ele>1206.8</ele>
        <time>2021-09-12T08:11:38Z</time>
      </trkpt>
      <trkpt lat="44.06067" lon="6.42601">
        <ele>1207.1</ele>
        <time>2021-09-12T08:11:41Z</time>
      </trkpt>
      <trkpt lat="44.06062" lon="6.42604">
        <ele>1207.5</ele>
        <time>2021-09-12T08:11:44Z</time>
      </trkpt>
      <trkpt lat="44.06061" lon="6.42607">
        <ele>1207.6</ele>
        <time>2021-09-12T08:11:45Z</time>
      </trkpt>
      <trkpt lat="44.0606" lon="6.42609">
        <ele>1207.7</ele>
        <time>2021-09-12T08:11:46Z</time>
      </trkpt>
      <trkpt lat="44.0606" lon="6.4261">
        <ele>1207.8</ele>
        <time>2021-09-12T08:11:47Z</time>
      </trkpt>
      <trkpt lat="44.0606" lon="6.42615">
        <ele>1208</ele>
        <time>2021-09-12T08:11:49Z</time>
      </trkpt>
      <trkpt lat="44.06059" lon="6.42619">
        <ele>1208.2</ele>
        <time>2021-09-12T08:11:50Z</time>
      </trkpt>
      <trkpt lat="44.06058" lon="6.42622">
        <ele>1208.4</ele>
        <time>2021-09-12T08:11:52Z</time>
      </trkpt>
      <trkpt lat="44.06056" lon="6.42627">
        <ele>1208.7</ele>
        <time>2021-09-12T08:11:54Z</time>
      </trkpt>
      <trkpt lat="44.06054" lon="6.42631">
        <ele>1208.9</ele>
        <time>2021-09-12T08:11:56Z</time>
      </trkpt>
      <trkpt lat="44.06051" lon="6.42634">
        <ele>1209.2</ele>
        <time>2021-09-12T08:11:58Z</time>
      </trkpt>
      <trkpt lat="44.0605" lon="6.42635">
        <ele>1209.3</ele>
        <time>2021-09-12T08:11:59Z</time>
      </trkpt>
      <trkpt lat="44.06047" lon="6.42637">
        <ele>1209.5</ele>
        <time>2021-09-12T08:12:01Z</time>
      </trkpt>
      <trkpt lat="44.06043" lon="6.42638">
        <ele>1209.8</ele>
        <time>2021-09-12T08:12:03Z</time>
      </trkpt>
      <trkpt lat="44.06039" lon="6.4264">
        <ele>1210</ele>
        <time>2021-09-12T08:12:05Z</time>
      </trkpt>
      <trkpt lat="44.06036" lon="6.42642">
        <ele>1210.3</ele>
        <time>2021-09-12T08:12:07Z</time>
      </trkpt>
      <trkpt lat="44.06033" lon="6.42644">
        <ele>1210.6</ele>
        <time>2021-09-12T08:12:09Z</time>
      </trkpt>
      <trkpt lat="44.06029" lon="6.42646">
        <ele>1210.8</ele>
        <time>2021-09-12T08:12:11Z</time>
      </trkpt>
      <trkpt lat="44.06028" lon="6.42646">
        <ele>1210.9</ele>
        <time>2021-09-12T08:12:12Z</time>
      </trkpt>
      <trkpt lat="44.06025" lon="6.42647">
        <ele>1211.2</ele>
        <time>2021-09-12T08:12:14Z</time>
      </trkpt>
      <trkpt lat="44.06022" lon="6.42648">
        <ele>1211.4</ele>
        <time>2021-09-12T08:12:15Z</time>
      </trkpt>
      <trkpt lat="44.0602" lon="6.42649">
        <ele>1211.5</ele>
        <time>2021-09-12T08:12:16Z</time>
      </trkpt>
      <trkpt lat="44.06019" lon="6.42649">
        <ele>1211.6</ele>
        <time>2021-09-12T08:12:17Z</time>
      </trkpt>
      <trkpt lat="44.06017" lon="6.4265">
        <ele>1211.8</ele>
        <time>2021-09-12T08:12:18Z</time>
      </trkpt>
      <trkpt lat="44.06016" lon="6.42651">
        <ele>1211.9</ele>
        <time>2021-09-12T08:12:19Z</time>
      </trkpt>
      <trkpt lat="44.06017" lon="6.42656">
        <ele>1212.1</ele>
        <time>2021-09-12T08:12:21Z</time>
      </trkpt>
      <trkpt lat="44.06016" lon="6.42659">
        <ele>1212.3</ele>
        <time>2021-09-12T08:12:22Z</time>
      </trkpt>
      <trkpt lat="44.06014" lon="6.4266">
        <ele>1212.4</ele>
        <time>2021-09-12T08:12:23Z</time>
      </trkpt>
      <trkpt lat="44.06013" lon="6.4266">
        <ele>1212.5</ele>
        <time>2021-09-12T08:12:24Z</time>
      </trkpt>
      <trkpt lat="44.06011" lon="6.4266">
        <ele>1212.6</ele>
        <time>2021-09-12T08:12:25Z</time>
      </trkpt>
      <trkpt lat="44.0601" lon="6.42658">
        <ele>1212.7</ele>
        <time>2021-09-12T08:12:26Z</time>
      </trkpt>
      <trkpt lat="44.05985" lon="6.42647">
        <ele>1214.6</ele>
        <time>2021-09-12T08:12:41Z</time>
      </trkpt>
      <trkpt lat="44.05981" lon="6.42647">
        <ele>1214.8</ele>
        <time>2021-09-12T08:12:43Z</time>
      </trkpt>
      <trkpt lat="44.05976" lon="6.42648">
        <ele>1215.1</ele>
        <time>2021-09-12T08:12:46Z</time>
      </trkpt>
      <trkpt lat="44.05973" lon="6.42648">
        <ele>1215.3</ele>
        <time>2021-09-12T08:12:47Z</time>
      </trkpt>
      <trkpt lat="44.05968" lon="6.42649">
        <ele>1215.7</ele>
        <time>2021-09-12T08:12:50Z</time>
      </trkpt>
      <trkpt lat="44.05962" lon="6.4265">
        <ele>1216.1</ele>
        <time>2021-09-12T08:12:53Z</time>
      </trkpt>
      <trkpt lat="44.05959" lon="6.4265">
        <ele>1216.3</ele>
        <time>2021-09-12T08:12:55Z</time>
      </trkpt>
      <trkpt lat="44.05952" lon="6.4265">
        <ele>1216.8</ele>
        <time>2021-09-12T08:12:59Z</time>
      </trkpt>
      <trkpt lat="44.05948" lon="6.4265">
        <ele>1217.1</ele>
        <time>2021-09-12T08:13:02Z</time>
      </trkpt>
      <trkpt lat="44.05941" lon="6.4265">
        <ele>1217.5</ele>
        <time>2021-09-12T08:13:05Z</time>
      </trkpt>
      <trkpt lat="44.05936" lon="6.4265">
        <ele>1217.9</ele>
        <time>2021-09-12T08:13:08Z</time>
      </trkpt>
      <trkpt lat="44.05932" lon="6.42652">
        <ele>1218.2</ele>
        <time>2021-09-12T08:13:10Z</time>
      </trkpt>
      <trkpt lat="44.05928" lon="6.42653">
        <ele>1218.5</ele>
        <time>2021-09-12T08:13:12Z</time>
      </trkpt>
      <trkpt lat="44.05924" lon="6.42653">
        <ele>1218.8</ele>
        <time>2021-09-12T08:13:14Z</time>
      </trkpt>
      <trkpt lat="44.05921" lon="6.42654">
        <ele>1219.1</ele>
        <time>2021-09-12T08:13:16Z</time>
      </trkpt>
      <trkpt lat="44.05915" lon="6.42655">
        <ele>1219.5</ele>
        <time>2021-09-12T08:13:19Z</time>
      </trkpt>
      <trkpt lat="44.05911" lon="6.42655">
        <ele>1219.8</ele>
        <time>2021-09-12T08:13:22Z</time>
      </trkpt>
      <trkpt lat="44.05908" lon="6.42656">
        <ele>1220</ele>
        <time>2021-09-12T08:13:24Z</time>
      </trkpt>
      <trkpt lat="44.05906" lon="6.42657">
        <ele>1220.2</ele>
        <time>2021-09-12T08:13:25Z</time>
      </trkpt>
      <trkpt lat="44.05903" lon="6.42658">
        <ele>1220.4</ele>
        <time>2021-09-12T08:13:27Z</time>
      </trkpt>
      <trkpt lat="44.05901" lon="6.42658">
        <ele>1220.6</ele>
        <time>2021-09-12T08:13:28Z</time>
      </trkpt>
      <trkpt lat="44.05899" lon="6.42658">
        <ele>1220.7</ele>
        <time>2021-09-12T08:13:29Z</time>
      </trkpt>
      <trkpt lat="44.05898" lon="6.42657">
        <ele>1220.8</ele>
        <time>2021-09-12T08:13:30Z</time>
      </trkpt>
      <trkpt lat="44.05895" lon="6.42656">
        <ele>1220.9</ele>
        <time>2021-09-12T08:13:31Z</time>
      </trkpt>
      <trkpt lat="44.05893" lon="6.42657">
        <ele>1221.1</ele>
        <time>2021-09-12T08:13:32Z</time>
      </trkpt>
      <trkpt lat="44.0589" lon="6.42659">
        <ele>1221.3</ele>
        <time>2021-09-12T08:13:34Z</time>
      </trkpt>
      <trkpt lat="44.05889" lon="6.42659">
        <ele>1221.3</ele>
        <time>2021-09-12T08:13:35Z</time>
      </trkpt>
      <trkpt lat="44.05886" lon="6.42661">
        <ele>1221.5</ele>
        <time>2021-09-12T08:13:37Z</time>
      </trkpt>
      <trkpt lat="44.05883" lon="6.42662">
        <ele>1221.7</ele>
        <time>2021-09-12T08:13:38Z</time>
      </trkpt>
      <trkpt lat="44.0588" lon="6.42662">
        <ele>1221.9</ele>
        <time>2021-09-12T08:13:40Z</time>
      </trkpt>
      <trkpt lat="44.05876" lon="6.42662">
        <ele>1222.1</ele>
        <time>2021-09-12T08:13:42Z</time>
      </trkpt>
      <trkpt lat="44.05873" lon="6.42662">
        <ele>1222.2</ele>
        <time>2021-09-12T08:13:43Z</time>
      </trkpt>
      <trkpt lat="44.05869" lon="6.42663">
        <ele>1222.4</ele>
        <time>2021-09-12T08:13:45Z</time>
      </trkpt>
      <trkpt lat="44.05867" lon="6.42662">
        <ele>1222.5</ele>
        <time>2021-09-12T08:13:46Z</time>
      </trkpt>
      <trkpt lat="44.05863" lon="6.42662">
        <ele>1222.7</ele>
        <time>2021-09-12T08:13:47Z</time>
      </trkpt>
      <trkpt lat="44.05861" lon="6.42661">
        <ele>1222.8</ele>
        <time>2021-09-12T08:13:48Z</time>
      </trkpt>
      <trkpt lat="44.05857" lon="6.42662">
        <ele>1223</ele>
        <time>2021-09-12T08:13:50Z</time>
      </trkpt>
      <trkpt lat="44.05854" lon="6.42662">
        <ele>1223.1</ele>
        <time>2021-09-12T08:13:51Z</time>
      </trkpt>
      <trkpt lat="44.05852" lon="6.42662">
        <ele>1223.2</ele>
        <time>2021-09-12T08:13:52Z</time>
      </trkpt>
      <trkpt lat="44.05845" lon="6.42663">
        <ele>1223.5</ele>
        <time>2021-09-12T08:13:55Z</time>
      </trkpt>
      <trkpt lat="44.05841" lon="6.42662">
        <ele>1223.7</ele>
        <time>2021-09-12T08:13:56Z</time>
      </trkpt>
      <trkpt lat="44.05836" lon="6.42661">
        <ele>1223.9</ele>
        <time>2021-09-12T08:13:58Z</time>
      </trkpt>
      <trkpt lat="44.05831" lon="6.42661">
        <ele>1224.2</ele>
        <time>2021-09-12T08:14:00Z</time>
      </trkpt>
      <trkpt lat="44.05826" lon="6.42661">
        <ele>1224.6</ele>
        <time>2021-09-12T08:14:02Z</time>
      </trkpt>
      <trkpt lat="44.05822" lon="6.42662">
        <ele>1224.9</ele>
        <time>2021-09-12T08:14:04Z</time>
      </trkpt>
      <trkpt lat="44.05818" lon="6.42663">
        <ele>1225.2</ele>
        <time>2021-09-12T08:14:06Z</time>
      </trkpt>
      <trkpt lat="44.05813" lon="6.42663">
        <ele>1225.6</ele>
        <time>2021-09-12T08:14:08Z</time>
      </trkpt>
      <trkpt lat="44.05809" lon="6.42662">
        <ele>1225.9</ele>
        <time>2021-09-12T08:14:09Z</time>
      </trkpt>
      <trkpt lat="44.05805" lon="6.42663">
        <ele>1226.3</ele>
        <time>2021-09-12T08:14:11Z</time>
      </trkpt>
      <trkpt lat="44.05802" lon="6.42664">
        <ele>1226.6</ele>
        <time>2021-09-12T08:14:13Z</time>
      </trkpt>
      <trkpt lat="44.05798" lon="6.42667">
        <ele>1227</ele>
        <time>2021-09-12T08:14:15Z</time>
      </trkpt>
      <trkpt lat="44.05795" lon="6.42669">
        <ele>1227.3</ele>
        <time>2021-09-12T08:14:18Z</time>
      </trkpt>
      <trkpt lat="44.05792" lon="6.42673">
        <ele>1227.7</ele>
        <time>2021-09-12T08:14:20Z</time>
      </trkpt>
      <trkpt lat="44.0579" lon="6.42675">
        <ele>1228</ele>
        <time>2021-09-12T08:14:22Z</time>
      </trkpt>
      <trkpt lat="44.05787" lon="6.4268">
        <ele>1228.4</ele>
        <time>2021-09-12T08:14:26Z</time>
      </trkpt>
      <trkpt lat="44.05787" lon="6.42683">
        <ele>1228.5</ele>
        <time>2021-09-12T08:14:27Z</time>
      </trkpt>
      <trkpt lat="44.05785" lon="6.42687">
        <ele>1228.8</ele>
        <time>2021-09-12T08:14:30Z</time>
      </trkpt>
      <trkpt lat="44.05783" lon="6.42691">
        <ele>1229.1</ele>
        <time>2021-09-12T08:14:33Z</time>
      </trkpt>
      <trkpt lat="44.05782" lon="6.42694">
        <ele>1229.3</ele>
        <time>2021-09-12T08:14:35Z</time>
      </trkpt>
      <trkpt lat="44.0578" lon="6.42698">
        <ele>1229.5</ele>
        <time>2021-09-12T08:14:37Z</time>
      </trkpt>
      <trkpt lat="44.05779" lon="6.427">
        <ele>1229.6</ele>
        <time>2021-09-12T08:14:39Z</time>
      </trkpt>
      <trkpt lat="44.05777" lon="6.427">
        <ele>1229.7</ele>
        <time>2021-09-12T08:14:40Z</time>
      </trkpt>
      <trkpt lat="44.05773" lon="6.42699">
        <ele>1230.1</ele>
        <time>2021-09-12T08:14:43Z</time>
      </trkpt>
      <trkpt lat="44.0577" lon="6.42699">
        <ele>1230.3</ele>
        <time>2021-09-12T08:14:45Z</time>
      </trkpt>
      <trkpt lat="44.05768" lon="6.42697">
        <ele>1230.4</ele>
        <time>2021-09-12T08:14:46Z</time>
      </trkpt>
      <trkpt lat="44.05765" lon="6.42696">
        <ele>1230.6</ele>
        <time>2021-09-12T08:14:48Z</time>
      </trkpt>
      <trkpt lat="44.05764" lon="6.42695">
        <ele>1230.7</ele>
        <time>2021-09-12T08:14:49Z</time>
      </trkpt>
      <trkpt lat="44.05762" lon="6.42694">
        <ele>1230.9</ele>
        <time>2021-09-12T08:14:50Z</time>
      </trkpt>
      <trkpt lat="44.0576" lon="6.42693">
        <ele>1231</ele>
        <time>2021-09-12T08:14:51Z</time>
      </trkpt>
      <trkpt lat="44.05758" lon="6.42692">
        <ele>1231.1</ele>
        <time>2021-09-12T08:14:52Z</time>
      </trkpt>
      <trkpt lat="44.05756" lon="6.4269">
        <ele>1231.2</ele>
        <time>2021-09-12T08:14:53Z</time>
      </trkpt>
      <trkpt lat="44.05754" lon="6.42688">
        <ele>1231.4</ele>
        <time>2021-09-12T08:14:54Z</time>
      </trkpt>
      <trkpt lat="44.05751" lon="6.42686">
        <ele>1231.6</ele>
        <time>2021-09-12T08:14:56Z</time>
      </trkpt>
      <trkpt lat="44.05748" lon="6.42683">
        <ele>1231.8</ele>
        <time>2021-09-12T08:14:58Z</time>
      </trkpt>
      <trkpt lat="44.05745" lon="6.4268">
        <ele>1232</ele>
        <time>2021-09-12T08:14:59Z</time>
      </trkpt>
      <trkpt lat="44.05742" lon="6.42678">
        <ele>1232.1</ele>
        <time>2021-09-12T08:15:01Z</time>
      </trkpt>
      <trkpt lat="44.05737" lon="6.42675">
        <ele>1232.4</ele>
        <time>2021-09-12T08:15:03Z</time>
      </trkpt>
      <trkpt lat="44.05734" lon="6.42674">
        <ele>1232.6</ele>
        <time>2021-09-12T08:15:05Z</time>
      </trkpt>
      <trkpt lat="44.0573" lon="6.42672">
        <ele>1232.8</ele>
        <time>2021-09-12T08:15:07Z</time>
      </trkpt>
      <trkpt lat="44.05725" lon="6.42671">
        <ele>1233.1</ele>
        <time>2021-09-12T08:15:09Z</time>
      </trkpt>
      <trkpt lat="44.05721" lon="6.42671">
        <ele>1233.4</ele>
        <time>2021-09-12T08:15:11Z</time>
      </trkpt>
      <trkpt lat="44.05717" lon="6.42671">
        <ele>1233.7</ele>
        <time>2021-09-12T08:15:13Z</time>
      </trkpt>
      <trkpt lat="44.05713" lon="6.4267">
        <ele>1234.1</ele>
        <time>2021-09-12T08:15:15Z</time>
      </trkpt>
      <trkpt lat="44.0571" lon="6.42669">
        <ele>1234.3</ele>
        <time>2021-09-12T08:15:16Z</time>
      </trkpt>
      <trkpt lat="44.05707" lon="6.42669">
        <ele>1234.6</ele>
        <time>2021-09-12T08:15:18Z</time>
      </trkpt>
      <trkpt lat="44.05702" lon="6.4267">
        <ele>1235</ele>
        <time>2021-09-12T08:15:20Z</time>
      </trkpt>
      <trkpt lat="44.05701" lon="6.4267">
        <ele>1235.2</ele>
        <time>2021-09-12T08:15:21Z</time>
      </trkpt>
      <trkpt lat="44.05699" lon="6.42671">
        <ele>1235.3</ele>
        <time>2021-09-12T08:15:22Z</time>
      </trkpt>
      <trkpt lat="44.05695" lon="6.42672">
        <ele>1235.7</ele>
        <time>2021-09-12T08:15:25Z</time>
      </trkpt>
      <trkpt lat="44.05692" lon="6.42672">
        <ele>1236</ele>
        <time>2021-09-12T08:15:27Z</time>
      </trkpt>
      <trkpt lat="44.05687" lon="6.42673">
        <ele>1236.4</ele>
        <time>2021-09-12T08:15:30Z</time>
      </trkpt>
      <trkpt lat="44.05686" lon="6.42675">
        <ele>1236.6</ele>
        <time>2021-09-12T08:15:31Z</time>
      </trkpt>
      <trkpt lat="44.05685" lon="6.42676">
        <ele>1236.7</ele>
        <time>2021-09-12T08:15:32Z</time>
      </trkpt>
      <trkpt lat="44.05684" lon="6.42677">
        <ele>1236.8</ele>
        <time>2021-09-12T08:15:33Z</time>
      </trkpt>
      <trkpt lat="44.05682" lon="6.42678">
        <ele>1237</ele>
        <time>2021-09-12T08:15:35Z</time>
      </trkpt>
      <trkpt lat="44.05681" lon="6.42678">
        <ele>1237</ele>
        <time>2021-09-12T08:15:36Z</time>
      </trkpt>
      <trkpt lat="44.05677" lon="6.42677">
        <ele>1237.4</ele>
        <time>2021-09-12T08:15:39Z</time>
      </trkpt>
      <trkpt lat="44.05675" lon="6.42677">
        <ele>1237.6</ele>
        <time>2021-09-12T08:15:41Z</time>
      </trkpt>
      <trkpt lat="44.05674" lon="6.42675">
        <ele>1237.7</ele>
        <time>2021-09-12T08:15:42Z</time>
      </trkpt>
      <trkpt lat="44.05673" lon="6.42673">
        <ele>1237.9</ele>
        <time>2021-09-12T08:15:43Z</time>
      </trkpt>
      <trkpt lat="44.05672" lon="6.42672">
        <ele>1238</ele>
        <time>2021-09-12T08:15:44Z</time>
      </trkpt>
      <trkpt lat="44.05671" lon="6.42672">
        <ele>1238</ele>
        <time>2021-09-12T08:15:45Z</time>
      </trkpt>
      <trkpt lat="44.0563" lon="6.42666">
        <ele>1240.9</ele>
        <time>2021-09-12T08:16:15Z</time>
      </trkpt>
      <trkpt lat="44.05628" lon="6.42665">
        <ele>1241.1</ele>
        <time>2021-09-12T08:16:17Z</time>
      </trkpt>
      <trkpt lat="44.05622" lon="6.42665">
        <ele>1241.5</ele>
        <time>2021-09-12T08:16:21Z</time>
      </trkpt>
      <trkpt lat="44.05617" lon="6.42665">
        <ele>1242</ele>
        <time>2021-09-12T08:16:25Z</time>
      </trkpt>
      <trkpt lat="44.05613" lon="6.42664">
        <ele>1242.3</ele>
        <time>2021-09-12T08:16:28Z</time>
      </trkpt>
      <trkpt lat="44.05611" lon="6.42663">
        <ele>1242.5</ele>
        <time>2021-09-12T08:16:29Z</time>
      </trkpt>
      <trkpt lat="44.05608" lon="6.42661">
        <ele>1242.8</ele>
        <time>2021-09-12T08:16:31Z</time>
      </trkpt>
      <trkpt lat="44.05607" lon="6.4266">
        <ele>1242.9</ele>
        <time>2021-09-12T08:16:32Z</time>
      </trkpt>
      <trkpt lat="44.05607" lon="6.42657">
        <ele>1243</ele>
        <time>2021-09-12T08:16:33Z</time>
      </trkpt>
      <trkpt lat="44.05606" lon="6.42653">
        <ele>1243.3</ele>
        <time>2021-09-12T08:16:35Z</time>
      </trkpt>
      <trkpt lat="44.05604" lon="6.4265">
        <ele>1243.9</ele>
        <time>2021-09-12T08:16:37Z</time>
      </trkpt>
      <trkpt lat="44.05603" lon="6.42644">
        <ele>1244.3</ele>
        <time>2021-09-12T08:16:41Z</time>
      </trkpt>
      <trkpt lat="44.05601" lon="6.42639">
        <ele>1244.6</ele>
        <time>2021-09-12T08:16:44Z</time>
      </trkpt>
      <trkpt lat="44.05599" lon="6.42633">
        <ele>1245</ele>
        <time>2021-09-12T08:16:48Z</time>
      </trkpt>
      <trkpt lat="44.05596" lon="6.42627">
        <ele>1245.4</ele>
        <time>2021-09-12T08:16:52Z</time>
      </trkpt>
      <trkpt lat="44.05594" lon="6.42623">
        <ele>1245.7</ele>
        <time>2021-09-12T08:16:55Z</time>
      </trkpt>
      <trkpt lat="44.0559" lon="6.42616">
        <ele>1246.2</ele>
        <time>2021-09-12T08:17:01Z</time>
      </trkpt>
      <trkpt lat="44.05587" lon="6.42611">
        <ele>1246.7</ele>
        <time>2021-09-12T08:17:06Z</time>
      </trkpt>
      <trkpt lat="44.05581" lon="6.42605">
        <ele>1247.3</ele>
        <time>2021-09-12T08:17:13Z</time>
      </trkpt>
      <trkpt lat="44.05576" lon="6.42602">
        <ele>1247.6</ele>
        <time>2021-09-12T08:17:17Z</time>
      </trkpt>
      <trkpt lat="44.05573" lon="6.42599">
        <ele>1247.9</ele>
        <time>2021-09-12T08:17:21Z</time>
      </trkpt>
      <trkpt lat="44.05569" lon="6.42597">
        <ele>1248.2</ele>
        <time>2021-09-12T08:17:24Z</time>
      </trkpt>
      <trkpt lat="44.05565" lon="6.42594">
        <ele>1248.6</ele>
        <time>2021-09-12T08:17:28Z</time>
      </trkpt>
      <trkpt lat="44.05562" lon="6.42592">
        <ele>1248.8</ele>
        <time>2021-09-12T08:17:30Z</time>
      </trkpt>
      <trkpt lat="44.05558" lon="6.42591">
        <ele>1249.1</ele>
        <time>2021-09-12T08:17:32Z</time>
      </trkpt>
      <trkpt lat="44.05557" lon="6.4259">
        <ele>1249.2</ele>
        <time>2021-09-12T08:17:33Z</time>
      </trkpt>
      <trkpt lat="44.05556" lon="6.42589">
        <ele>1249.2</ele>
        <time>2021-09-12T08:17:34Z</time>
      </trkpt>
      <trkpt lat="44.05555" lon="6.42588">
        <ele>1249.3</ele>
        <time>2021-09-12T08:17:35Z</time>
      </trkpt>
      <trkpt lat="44.05553" lon="6.42588">
        <ele>1249.4</ele>
        <time>2021-09-12T08:17:36Z</time>
      </trkpt>
      <trkpt lat="44.05552" lon="6.42589">
        <ele>1249.5</ele>
        <time>2021-09-12T08:17:37Z</time>
      </trkpt>
      <trkpt lat="44.0555" lon="6.4259">
        <ele>1249.7</ele>
        <time>2021-09-12T08:17:38Z</time>
      </trkpt>
      <trkpt lat="44.05546" lon="6.4259">
        <ele>1249.9</ele>
        <time>2021-09-12T08:17:40Z</time>
      </trkpt>
      <trkpt lat="44.05542" lon="6.4259">
        <ele>1250.2</ele>
        <time>2021-09-12T08:17:42Z</time>
      </trkpt>
      <trkpt lat="44.05538" lon="6.42591">
        <ele>1250.5</ele>
        <time>2021-09-12T08:17:44Z</time>
      </trkpt>
      <trkpt lat="44.05532" lon="6.42592">
        <ele>1250.9</ele>
        <time>2021-09-12T08:17:47Z</time>
      </trkpt>
      <trkpt lat="44.05529" lon="6.42593">
        <ele>1251.2</ele>
        <time>2021-09-12T08:17:48Z</time>
      </trkpt>
      <trkpt lat="44.05525" lon="6.42595">
        <ele>1251.5</ele>
        <time>2021-09-12T08:17:50Z</time>
      </trkpt>
      <trkpt lat="44.05523" lon="6.42596">
        <ele>1251.6</ele>
        <time>2021-09-12T08:17:51Z</time>
      </trkpt>
      <trkpt lat="44.05522" lon="6.42597">
        <ele>1251.7</ele>
        <time>2021-09-12T08:17:52Z</time>
      </trkpt>
      <trkpt lat="44.05519" lon="6.42599">
        <ele>1252</ele>
        <time>2021-09-12T08:17:54Z</time>
      </trkpt>
      <trkpt lat="44.05515" lon="6.42601">
        <ele>1252.3</ele>
        <time>2021-09-12T08:17:56Z</time>
      </trkpt>
      <trkpt lat="44.05513" lon="6.42602">
        <ele>1252.5</ele>
        <time>2021-09-12T08:17:58Z</time>
      </trkpt>
      <trkpt lat="44.05512" lon="6.42603">
        <ele>1252.6</ele>
        <time>2021-09-12T08:17:59Z</time>
      </trkpt>
      <trkpt lat="44.05509" lon="6.42604">
        <ele>1252.8</ele>
        <time>2021-09-12T08:18:00Z</time>
      </trkpt>
      <trkpt lat="44.05507" lon="6.42606">
        <ele>1253</ele>
        <time>2021-09-12T08:18:02Z</time>
      </trkpt>
      <trkpt lat="44.05506" lon="6.42609">
        <ele>1253.2</ele>
        <time>2021-09-12T08:18:04Z</time>
      </trkpt>
      <trkpt lat="44.05504" lon="6.42613">
        <ele>1253.5</ele>
        <time>2021-09-12T08:18:06Z</time>
      </trkpt>
      <trkpt lat="44.05502" lon="6.42617">
        <ele>1253.7</ele>
        <time>2021-09-12T08:18:08Z</time>
      </trkpt>
      <trkpt lat="44.05502" lon="6.42618">
        <ele>1253.8</ele>
        <time>2021-09-12T08:18:09Z</time>
      </trkpt>
      <trkpt lat="44.05501" lon="6.4262">
        <ele>1253.9</ele>
        <time>2021-09-12T08:18:10Z</time>
      </trkpt>
      <trkpt lat="44.05498" lon="6.42624">
        <ele>1254.2</ele>
        <time>2021-09-12T08:18:13Z</time>
      </trkpt>
      <trkpt lat="44.05498" lon="6.42626">
        <ele>1254.3</ele>
        <time>2021-09-12T08:18:14Z</time>
      </trkpt>
      <trkpt lat="44.05496" lon="6.42627">
        <ele>1254.5</ele>
        <time>2021-09-12T08:18:15Z</time>
      </trkpt>
      <trkpt lat="44.05494" lon="6.42627">
        <ele>1254.6</ele>
        <time>2021-09-12T08:18:17Z</time>
      </trkpt>
      <trkpt lat="44.05492" lon="6.42628">
        <ele>1254.8</ele>
        <time>2021-09-12T08:18:18Z</time>
      </trkpt>
      <trkpt lat="44.0549" lon="6.4263">
        <ele>1255</ele>
        <time>2021-09-12T08:18:19Z</time>
      </trkpt>
      <trkpt lat="44.05489" lon="6.42631">
        <ele>1255.1</ele>
        <time>2021-09-12T08:18:20Z</time>
      </trkpt>
      <trkpt lat="44.05488" lon="6.42632">
        <ele>1255.2</ele>
        <time>2021-09-12T08:18:21Z</time>
      </trkpt>
      <trkpt lat="44.05485" lon="6.42636">
        <ele>1255.5</ele>
        <time>2021-09-12T08:18:24Z</time>
      </trkpt>
      <trkpt lat="44.05484" lon="6.42639">
        <ele>1255.7</ele>
        <time>2021-09-12T08:18:25Z</time>
      </trkpt>
      <trkpt lat="44.05482" lon="6.42643">
        <ele>1255.9</ele>
        <time>2021-09-12T08:18:27Z</time>
      </trkpt>
      <trkpt lat="44.05481" lon="6.42648">
        <ele>1256.2</ele>
        <time>2021-09-12T08:18:30Z</time>
      </trkpt>
      <trkpt lat="44.0548" lon="6.42651">
        <ele>1256.4</ele>
        <time>2021-09-12T08:18:31Z</time>
      </trkpt>
      <trkpt lat="44.05478" lon="6.4265">
        <ele>1256.5</ele>
        <time>2021-09-12T08:18:33Z</time>
      </trkpt>
      <trkpt lat="44.05477" lon="6.42649">
        <ele>1256.6</ele>
        <time>2021-09-12T08:18:34Z</time>
      </trkpt>
      <trkpt lat="44.05474" lon="6.42648">
        <ele>1256.8</ele>
        <time>2021-09-12T08:18:35Z</time>
      </trkpt>
      <trkpt lat="44.05473" lon="6.42649">
        <ele>1256.9</ele>
        <time>2021-09-12T08:18:36Z</time>
      </trkpt>
      <trkpt lat="44.0547" lon="6.42652">
        <ele>1257.1</ele>
        <time>2021-09-12T08:18:38Z</time>
      </trkpt>
      <trkpt lat="44.05466" lon="6.42658">
        <ele>1257.4</ele>
        <time>2021-09-12T08:18:42Z</time>
      </trkpt>
      <trkpt lat="44.05464" lon="6.42663">
        <ele>1257.6</ele>
        <time>2021-09-12T08:18:44Z</time>
      </trkpt>
      <trkpt lat="44.05462" lon="6.42668">
        <ele>1257.8</ele>
        <time>2021-09-12T08:18:46Z</time>
      </trkpt>
      <trkpt lat="44.05461" lon="6.42673">
        <ele>1258</ele>
        <time>2021-09-12T08:18:48Z</time>
      </trkpt>
      <trkpt lat="44.05458" lon="6.42678">
        <ele>1258.2</ele>
        <time>2021-09-12T08:18:50Z</time>
      </trkpt>
      <trkpt lat="44.05453" lon="6.42683">
        <ele>1258.5</ele>
        <time>2021-09-12T08:18:52Z</time>
      </trkpt>
      <trkpt lat="44.05451" lon="6.42685">
        <ele>1258.6</ele>
        <time>2021-09-12T08:18:54Z</time>
      </trkpt>
      <trkpt lat="44.05447" lon="6.42689">
        <ele>1258.8</ele>
        <time>2021-09-12T08:18:55Z</time>
      </trkpt>
      <trkpt lat="44.05445" lon="6.42695">
        <ele>1258.9</ele>
        <time>2021-09-12T08:18:57Z</time>
      </trkpt>
      <trkpt lat="44.05443" lon="6.42697">
        <ele>1259</ele>
        <time>2021-09-12T08:18:58Z</time>
      </trkpt>
      <trkpt lat="44.0544" lon="6.42699">
        <ele>1259.2</ele>
        <time>2021-09-12T08:18:59Z</time>
      </trkpt>
      <trkpt lat="44.05435" lon="6.42702">
        <ele>1259.4</ele>
        <time>2021-09-12T08:19:01Z</time>
      </trkpt>
      <trkpt lat="44.05435" lon="6.42703">
        <ele>1259.4</ele>
        <time>2021-09-12T08:19:02Z</time>
      </trkpt>
      <trkpt lat="44.05434" lon="6.42704">
        <ele>1260.9</ele>
        <time>2021-09-12T08:19:03Z</time>
      </trkpt>
      <trkpt lat="44.05435" lon="6.42704">
        <ele>1261.1</ele>
        <time>2021-09-12T08:19:04Z</time>
      </trkpt>
      <trkpt lat="44.05436" lon="6.42704">
        <ele>1261.3</ele>
        <time>2021-09-12T08:19:05Z</time>
      </trkpt>
      <trkpt lat="44.05436" lon="6.42704">
        <ele>1261.3</ele>
        <time>2021-09-12T08:19:06Z</time>
      </trkpt>
      <trkpt lat="44.05437" lon="6.42704">
        <ele>1261.4</ele>
        <time>2021-09-12T08:19:07Z</time>
      </trkpt>
      <trkpt lat="44.05443" lon="6.42713">
        <ele>1263</ele>
        <time>2021-09-12T08:19:22Z</time>
      </trkpt>
      <trkpt lat="44.05447" lon="6.42717">
        <ele>1263.8</ele>
        <time>2021-09-12T08:19:29Z</time>
      </trkpt>
      <trkpt lat="44.05448" lon="6.42718">
        <ele>1264.1</ele>
        <time>2021-09-12T08:19:32Z</time>
      </trkpt>
      <trkpt lat="44.0545" lon="6.42719">
        <ele>1264.4</ele>
        <time>2021-09-12T08:19:35Z</time>
      </trkpt>
      <trkpt lat="44.05453" lon="6.42719">
        <ele>1265</ele>
        <time>2021-09-12T08:19:41Z</time>
      </trkpt>
      <trkpt lat="44.05454" lon="6.4272">
        <ele>1265.3</ele>
        <time>2021-09-12T08:19:44Z</time>
      </trkpt>
      <trkpt lat="44.05458" lon="6.4272">
        <ele>1266</ele>
        <time>2021-09-12T08:19:52Z</time>
      </trkpt>
      <trkpt lat="44.05461" lon="6.42719">
        <ele>1266.6</ele>
        <time>2021-09-12T08:20:01Z</time>
      </trkpt>
      <trkpt lat="44.05466" lon="6.42717">
        <ele>1267.5</ele>
        <time>2021-09-12T08:20:11Z</time>
      </trkpt>
      <trkpt lat="44.05469" lon="6.42714">
        <ele>1268.2</ele>
        <time>2021-09-12T08:20:20Z</time>
      </trkpt>
      <trkpt lat="44.05473" lon="6.42713">
        <ele>1269</ele>
        <time>2021-09-12T08:20:28Z</time>
      </trkpt>
      <trkpt lat="44.05474" lon="6.42713">
        <ele>1269.2</ele>
        <time>2021-09-12T08:20:31Z</time>
      </trkpt>
      <trkpt lat="44.05478" lon="6.42712">
        <ele>1269.9</ele>
        <time>2021-09-12T08:20:40Z</time>
      </trkpt>
      <trkpt lat="44.0548" lon="6.42712">
        <ele>1270.4</ele>
        <time>2021-09-12T08:20:46Z</time>
      </trkpt>
      <trkpt lat="44.05483" lon="6.42712">
        <ele>1270.9</ele>
        <time>2021-09-12T08:20:51Z</time>
      </trkpt>
      <trkpt lat="44.05484" lon="6.42712">
        <ele>1271.1</ele>
        <time>2021-09-12T08:20:54Z</time>
      </trkpt>
      <trkpt lat="44.05486" lon="6.42713">
        <ele>1271.6</ele>
        <time>2021-09-12T08:21:00Z</time>
      </trkpt>
      <trkpt lat="44.05488" lon="6.42714">
        <ele>1272</ele>
        <time>2021-09-12T08:21:04Z</time>
      </trkpt>
      <trkpt lat="44.05491" lon="6.42714">
        <ele>1272.6</ele>
        <time>2021-09-12T08:21:12Z</time>
      </trkpt>
      <trkpt lat="44.05492" lon="6.42714">
        <ele>1272.8</ele>
        <time>2021-09-12T08:21:14Z</time>
      </trkpt>
      <trkpt lat="44.05494" lon="6.42714">
        <ele>1273.1</ele>
        <time>2021-09-12T08:21:17Z</time>
      </trkpt>
      <trkpt lat="44.05495" lon="6.42715">
        <ele>1273.4</ele>
        <time>2021-09-12T08:21:21Z</time>
      </trkpt>
      <trkpt lat="44.05498" lon="6.42713">
        <ele>1274</ele>
        <time>2021-09-12T08:21:28Z</time>
      </trkpt>
      <trkpt lat="44.055" lon="6.42712">
        <ele>1274.4</ele>
        <time>2021-09-12T08:21:33Z</time>
      </trkpt>
      <trkpt lat="44.05502" lon="6.42712">
        <ele>1274.7</ele>
        <time>2021-09-12T08:21:36Z</time>
      </trkpt>
      <trkpt lat="44.05505" lon="6.42711">
        <ele>1275.3</ele>
        <time>2021-09-12T08:21:43Z</time>
      </trkpt>
      <trkpt lat="44.05507" lon="6.42709">
        <ele>1275.8</ele>
        <time>2021-09-12T08:21:49Z</time>
      </trkpt>
      <trkpt lat="44.05508" lon="6.42709">
        <ele>1276.1</ele>
        <time>2021-09-12T08:21:52Z</time>
      </trkpt>
      <trkpt lat="44.0551" lon="6.42709">
        <ele>1276.4</ele>
        <time>2021-09-12T08:21:57Z</time>
      </trkpt>
      <trkpt lat="44.05512" lon="6.4271">
        <ele>1276.8</ele>
        <time>2021-09-12T08:22:01Z</time>
      </trkpt>
      <trkpt lat="44.05514" lon="6.4271">
        <ele>1277.2</ele>
        <time>2021-09-12T08:22:06Z</time>
      </trkpt>
      <trkpt lat="44.05516" lon="6.42708">
        <ele>1277.7</ele>
        <time>2021-09-12T08:22:12Z</time>
      </trkpt>
      <trkpt lat="44.05517" lon="6.42707">
        <ele>1277.9</ele>
        <time>2021-09-12T08:22:14Z</time>
      </trkpt>
      <trkpt lat="44.0552" lon="6.42707">
        <ele>1278.4</ele>
        <time>2021-09-12T08:22:20Z</time>
      </trkpt>
      <trkpt lat="44.05522" lon="6.42707">
        <ele>1278.8</ele>
        <time>2021-09-12T08:22:25Z</time>
      </trkpt>
      <trkpt lat="44.05524" lon="6.42707">
        <ele>1279.1</ele>
        <time>2021-09-12T08:22:29Z</time>
      </trkpt>
      <trkpt lat="44.05526" lon="6.42709">
        <ele>1279.6</ele>
        <time>2021-09-12T08:22:35Z</time>
      </trkpt>
      <trkpt lat="44.05528" lon="6.42711">
        <ele>1280.1</ele>
        <time>2021-09-12T08:22:41Z</time>
      </trkpt>
      <trkpt lat="44.0553" lon="6.42712">
        <ele>1280.4</ele>
        <time>2021-09-12T08:22:46Z</time>
      </trkpt>
      <trkpt lat="44.05533" lon="6.42715">
        <ele>1280.9</ele>
        <time>2021-09-12T08:22:53Z</time>
      </trkpt>
      <trkpt lat="44.05535" lon="6.42717">
        <ele>1281.4</ele>
        <time>2021-09-12T08:23:00Z</time>
      </trkpt>
      <trkpt lat="44.05539" lon="6.4272">
        <ele>1282</ele>
        <time>2021-09-12T08:23:09Z</time>
      </trkpt>
      <trkpt lat="44.05541" lon="6.42722">
        <ele>1282.5</ele>
        <time>2021-09-12T08:23:15Z</time>
      </trkpt>
      <trkpt lat="44.05544" lon="6.42725">
        <ele>1283</ele>
        <time>2021-09-12T08:23:23Z</time>
      </trkpt>
      <trkpt lat="44.05546" lon="6.42726">
        <ele>1283.3</ele>
        <time>2021-09-12T08:23:28Z</time>
      </trkpt>
      <trkpt lat="44.05549" lon="6.42729">
        <ele>1284</ele>
        <time>2021-09-12T08:23:38Z</time>
      </trkpt>
      <trkpt lat="44.05553" lon="6.4273">
        <ele>1284.5</ele>
        <time>2021-09-12T08:23:46Z</time>
      </trkpt>
      <trkpt lat="44.05554" lon="6.42731">
        <ele>1284.7</ele>
        <time>2021-09-12T08:23:48Z</time>
      </trkpt>
      <trkpt lat="44.05557" lon="6.42732">
        <ele>1285.2</ele>
        <time>2021-09-12T08:23:56Z</time>
      </trkpt>
      <trkpt lat="44.05558" lon="6.42732">
        <ele>1285.4</ele>
        <time>2021-09-12T08:23:59Z</time>
      </trkpt>
      <trkpt lat="44.0556" lon="6.42733">
        <ele>1285.7</ele>
        <time>2021-09-12T08:24:04Z</time>
      </trkpt>
      <trkpt lat="44.05563" lon="6.42734">
        <ele>1286.1</ele>
        <time>2021-09-12T08:24:11Z</time>
      </trkpt>
      <trkpt lat="44.05567" lon="6.42734">
        <ele>1286.7</ele>
        <time>2021-09-12T08:24:19Z</time>
      </trkpt>
      <trkpt lat="44.0557" lon="6.42735">
        <ele>1286.8</ele>
        <time>2021-09-12T08:24:25Z</time>
      </trkpt>
      <trkpt lat="44.05573" lon="6.42736">
        <ele>1287</ele>
        <time>2021-09-12T08:24:33Z</time>
      </trkpt>
      <trkpt lat="44.05578" lon="6.42739">
        <ele>1287.4</ele>
        <time>2021-09-12T08:24:44Z</time>
      </trkpt>
      <trkpt lat="44.05582" lon="6.42743">
        <ele>1287.6</ele>
        <time>2021-09-12T08:24:50Z</time>
      </trkpt>
      <trkpt lat="44.05584" lon="6.42746">
        <ele>1287.8</ele>
        <time>2021-09-12T08:24:55Z</time>
      </trkpt>
      <trkpt lat="44.05586" lon="6.42749">
        <ele>1288</ele>
        <time>2021-09-12T08:24:58Z</time>
      </trkpt>
      <trkpt lat="44.0559" lon="6.42752">
        <ele>1288.3</ele>
        <time>2021-09-12T08:25:02Z</time>
      </trkpt>
      <trkpt lat="44.05592" lon="6.42755">
        <ele>1288.5</ele>
        <time>2021-09-12T08:25:04Z</time>
      </trkpt>
      <trkpt lat="44.05596" lon="6.42758">
        <ele>1288.7</ele>
        <time>2021-09-12T08:25:07Z</time>
      </trkpt>
      <trkpt lat="44.05599" lon="6.4276">
        <ele>1288.9</ele>
        <time>2021-09-12T08:25:09Z</time>
      </trkpt>
      <trkpt lat="44.05601" lon="6.42761">
        <ele>1289.1</ele>
        <time>2021-09-12T08:25:10Z</time>
      </trkpt>
      <trkpt lat="44.05605" lon="6.42764">
        <ele>1289.3</ele>
        <time>2021-09-12T08:25:12Z</time>
      </trkpt>
      <trkpt lat="44.05609" lon="6.42764">
        <ele>1289.5</ele>
        <time>2021-09-12T08:25:14Z</time>
      </trkpt>
      <trkpt lat="44.05612" lon="6.42764">
        <ele>1289.7</ele>
        <time>2021-09-12T08:25:16Z</time>
      </trkpt>
      <trkpt lat="44.05614" lon="6.42764">
        <ele>1289.8</ele>
        <time>2021-09-12T08:25:17Z</time>
      </trkpt>
      <trkpt lat="44.05617" lon="6.42766">
        <ele>1290</ele>
        <time>2021-09-12T08:25:19Z</time>
      </trkpt>
      <trkpt lat="44.05621" lon="6.42766">
        <ele>1290.1</ele>
        <time>2021-09-12T08:25:20Z</time>
      </trkpt>
      <trkpt lat="44.05625" lon="6.42767">
        <ele>1290.3</ele>
        <time>2021-09-12T08:25:22Z</time>
      </trkpt>
      <trkpt lat="44.0563" lon="6.42768">
        <ele>1290.6</ele>
        <time>2021-09-12T08:25:25Z</time>
      </trkpt>
      <trkpt lat="44.05632" lon="6.42768">
        <ele>1290.7</ele>
        <time>2021-09-12T08:25:26Z</time>
      </trkpt>
      <trkpt lat="44.05634" lon="6.42769">
        <ele>1290.8</ele>
        <time>2021-09-12T08:25:27Z</time>
      </trkpt>
      <trkpt lat="44.05639" lon="6.42772">
        <ele>1291.2</ele>
        <time>2021-09-12T08:25:29Z</time>
      </trkpt>
      <trkpt lat="44.05643" lon="6.42774">
        <ele>1291.5</ele>
        <time>2021-09-12T08:25:32Z</time>
      </trkpt>
      <trkpt lat="44.05647" lon="6.42775">
        <ele>1291.7</ele>
        <time>2021-09-12T08:25:33Z</time>
      </trkpt>
      <trkpt lat="44.05651" lon="6.42776">
        <ele>1291.9</ele>
        <time>2021-09-12T08:25:35Z</time>
      </trkpt>
      <trkpt lat="44.05654" lon="6.42776">
        <ele>1292.1</ele>
        <time>2021-09-12T08:25:36Z</time>
      </trkpt>
      <trkpt lat="44.05656" lon="6.42776">
        <ele>1292.2</ele>
        <time>2021-09-12T08:25:37Z</time>
      </trkpt>
      <trkpt lat="44.0566" lon="6.42777">
        <ele>1292.4</ele>
        <time>2021-09-12T08:25:39Z</time>
      </trkpt>
      <trkpt lat="44.05665" lon="6.42779">
        <ele>1292.6</ele>
        <time>2021-09-12T08:25:41Z</time>
      </trkpt>
      <trkpt lat="44.0567" lon="6.42783">
        <ele>1292.9</ele>
        <time>2021-09-12T08:25:44Z</time>
      </trkpt>
      <trkpt lat="44.05671" lon="6.42783">
        <ele>1292.9</ele>
        <time>2021-09-12T08:25:45Z</time>
      </trkpt>
      <trkpt lat="44.05674" lon="6.42785">
        <ele>1293.1</ele>
        <time>2021-09-12T08:25:46Z</time>
      </trkpt>
      <trkpt lat="44.05679" lon="6.42786">
        <ele>1293.3</ele>
        <time>2021-09-12T08:25:48Z</time>
      </trkpt>
      <trkpt lat="44.05682" lon="6.42787">
        <ele>1293.5</ele>
        <time>2021-09-12T08:25:50Z</time>
      </trkpt>
      <trkpt lat="44.05684" lon="6.42788">
        <ele>1293.7</ele>
        <time>2021-09-12T08:25:51Z</time>
      </trkpt>
      <trkpt lat="44.05688" lon="6.42788">
        <ele>1293.9</ele>
        <time>2021-09-12T08:25:52Z</time>
      </trkpt>
      <trkpt lat="44.05691" lon="6.42787">
        <ele>1294</ele>
        <time>2021-09-12T08:25:54Z</time>
      </trkpt>
      <trkpt lat="44.05695" lon="6.42786">
        <ele>1294.2</ele>
        <time>2021-09-12T08:25:55Z</time>
      </trkpt>
      <trkpt lat="44.05698" lon="6.42786">
        <ele>1294.3</ele>
        <time>2021-09-12T08:25:56Z</time>
      </trkpt>
      <trkpt lat="44.05702" lon="6.42786">
        <ele>1294.5</ele>
        <time>2021-09-12T08:25:58Z</time>
      </trkpt>
      <trkpt lat="44.05704" lon="6.42783">
        <ele>1294.6</ele>
        <time>2021-09-12T08:25:59Z</time>
      </trkpt>
      <trkpt lat="44.05704" lon="6.42782">
        <ele>1294.6</ele>
        <time>2021-09-12T08:26:00Z</time>
      </trkpt>
      <trkpt lat="44.05708" lon="6.42782">
        <ele>1294.8</ele>
        <time>2021-09-12T08:26:01Z</time>
      </trkpt>
      <trkpt lat="44.05713" lon="6.42783">
        <ele>1295</ele>
        <time>2021-09-12T08:26:03Z</time>
      </trkpt>
      <trkpt lat="44.05718" lon="6.42783">
        <ele>1295.3</ele>
        <time>2021-09-12T08:26:05Z</time>
      </trkpt>
      <trkpt lat="44.05722" lon="6.42785">
        <ele>1295.5</ele>
        <time>2021-09-12T08:26:07Z</time>
      </trkpt>
      <trkpt lat="44.05725" lon="6.42787">
        <ele>1295.7</ele>
        <time>2021-09-12T08:26:08Z</time>
      </trkpt>
      <trkpt lat="44.05728" lon="6.42789">
        <ele>1295.9</ele>
        <time>2021-09-12T08:26:09Z</time>
      </trkpt>
      <trkpt lat="44.05732" lon="6.42791">
        <ele>1296.1</ele>
        <time>2021-09-12T08:26:11Z</time>
      </trkpt>
      <trkpt lat="44.05735" lon="6.42791">
        <ele>1296.3</ele>
        <time>2021-09-12T08:26:12Z</time>
      </trkpt>
      <trkpt lat="44.05736" lon="6.42792">
        <ele>1296.4</ele>
        <time>2021-09-12T08:26:13Z</time>
      </trkpt>
      <trkpt lat="44.0574" lon="6.42794">
        <ele>1296.6</ele>
        <time>2021-09-12T08:26:14Z</time>
      </trkpt>
      <trkpt lat="44.05741" lon="6.42794">
        <ele>1296.6</ele>
        <time>2021-09-12T08:26:15Z</time>
      </trkpt>
      <trkpt lat="44.05744" lon="6.42797">
        <ele>1296.7</ele>
        <time>2021-09-12T08:26:16Z</time>
      </trkpt>
      <trkpt lat="44.05746" lon="6.42799">
        <ele>1296.8</ele>
        <time>2021-09-12T08:26:17Z</time>
      </trkpt>
      <trkpt lat="44.0575" lon="6.428">
        <ele>1296.9</ele>
        <time>2021-09-12T08:26:19Z</time>
      </trkpt>
      <trkpt lat="44.05753" lon="6.428">
        <ele>1297</ele>
        <time>2021-09-12T08:26:20Z</time>
      </trkpt>
      <trkpt lat="44.05756" lon="6.428">
        <ele>1297</ele>
        <time>2021-09-12T08:26:21Z</time>
      </trkpt>
      <trkpt lat="44.05758" lon="6.42801">
        <ele>1297</ele>
        <time>2021-09-12T08:26:22Z</time>
      </trkpt>
      <trkpt lat="44.05761" lon="6.42802">
        <ele>1297.1</ele>
        <time>2021-09-12T08:26:23Z</time>
      </trkpt>
      <trkpt lat="44.05764" lon="6.428">
        <ele>1297.1</ele>
        <time>2021-09-12T08:26:24Z</time>
      </trkpt>
      <trkpt lat="44.05765" lon="6.42799">
        <ele>1297.1</ele>
        <time>2021-09-12T08:26:25Z</time>
      </trkpt>
      <trkpt lat="44.05763" lon="6.42798">
        <ele>1297.1</ele>
        <time>2021-09-12T08:26:26Z</time>
      </trkpt>
      <trkpt lat="44.05761" lon="6.42795">
        <ele>1297.1</ele>
        <time>2021-09-12T08:26:27Z</time>
      </trkpt>
      <trkpt lat="44.0576" lon="6.42793">
        <ele>1297.1</ele>
        <time>2021-09-12T08:26:28Z</time>
      </trkpt>
      <trkpt lat="44.05769" lon="6.42773">
        <ele>1296.6</ele>
        <time>2021-09-12T08:26:33Z</time>
      </trkpt>
      <trkpt lat="44.05772" lon="6.42773">
        <ele>1296.5</ele>
        <time>2021-09-12T08:26:34Z</time>
      </trkpt>
      <trkpt lat="44.05779" lon="6.42774">
        <ele>1296.2</ele>
        <time>2021-09-12T08:26:35Z</time>
      </trkpt>
      <trkpt lat="44.05786" lon="6.42775">
        <ele>1295.9</ele>
        <time>2021-09-12T08:26:37Z</time>
      </trkpt>
      <trkpt lat="44.05793" lon="6.42776">
        <ele>1295.6</ele>
        <time>2021-09-12T08:26:39Z</time>
      </trkpt>
      <trkpt lat="44.058" lon="6.42778">
        <ele>1295.1</ele>
        <time>2021-09-12T08:26:40Z</time>
      </trkpt>
      <trkpt lat="44.05807" lon="6.42781">
        <ele>1294.6</ele>
        <time>2021-09-12T08:26:42Z</time>
      </trkpt>
      <trkpt lat="44.05811" lon="6.42785">
        <ele>1294.3</ele>
        <time>2021-09-12T08:26:43Z</time>
      </trkpt>
      <trkpt lat="44.05832" lon="6.42804">
        <ele>1292.7</ele>
        <time>2021-09-12T08:26:47Z</time>
      </trkpt>
      <trkpt lat="44.05839" lon="6.42808">
        <ele>1292.3</ele>
        <time>2021-09-12T08:26:48Z</time>
      </trkpt>
      <trkpt lat="44.05845" lon="6.42809">
        <ele>1292</ele>
        <time>2021-09-12T08:26:49Z</time>
      </trkpt>
      <trkpt lat="44.05857" lon="6.42807">
        <ele>1291.5</ele>
        <time>2021-09-12T08:26:51Z</time>
      </trkpt>
      <trkpt lat="44.05863" lon="6.42806">
        <ele>1291.3</ele>
        <time>2021-09-12T08:26:52Z</time>
      </trkpt>
      <trkpt lat="44.05869" lon="6.42806">
        <ele>1291.2</ele>
        <time>2021-09-12T08:26:53Z</time>
      </trkpt>
      <trkpt lat="44.05875" lon="6.42805">
        <ele>1291.1</ele>
        <time>2021-09-12T08:26:54Z</time>
      </trkpt>
      <trkpt lat="44.05886" lon="6.42804">
        <ele>1290.9</ele>
        <time>2021-09-12T08:26:56Z</time>
      </trkpt>
      <trkpt lat="44.05892" lon="6.42805">
        <ele>1290.9</ele>
        <time>2021-09-12T08:26:57Z</time>
      </trkpt>
      <trkpt lat="44.05903" lon="6.42808">
        <ele>1290.7</ele>
        <time>2021-09-12T08:27:00Z</time>
      </trkpt>
      <trkpt lat="44.05913" lon="6.42813">
        <ele>1290.3</ele>
        <time>2021-09-12T08:27:02Z</time>
      </trkpt>
      <trkpt lat="44.05922" lon="6.42819">
        <ele>1290</ele>
        <time>2021-09-12T08:27:03Z</time>
      </trkpt>
      <trkpt lat="44.05926" lon="6.42821">
        <ele>1289.9</ele>
        <time>2021-09-12T08:27:04Z</time>
      </trkpt>
      <trkpt lat="44.05934" lon="6.42827">
        <ele>1289.8</ele>
        <time>2021-09-12T08:27:06Z</time>
      </trkpt>
      <trkpt lat="44.05939" lon="6.4283">
        <ele>1289.8</ele>
        <time>2021-09-12T08:27:07Z</time>
      </trkpt>
      <trkpt lat="44.05949" lon="6.42835">
        <ele>1289.7</ele>
        <time>2021-09-12T08:27:09Z</time>
      </trkpt>
      <trkpt lat="44.05954" lon="6.42837">
        <ele>1289.8</ele>
        <time>2021-09-12T08:27:11Z</time>
      </trkpt>
      <trkpt lat="44.0596" lon="6.42838">
        <ele>1289.8</ele>
        <time>2021-09-12T08:27:12Z</time>
      </trkpt>
      <trkpt lat="44.05965" lon="6.4284">
        <ele>1289.9</ele>
        <time>2021-09-12T08:27:13Z</time>
      </trkpt>
      <trkpt lat="44.05976" lon="6.42841">
        <ele>1290.2</ele>
        <time>2021-09-12T08:27:16Z</time>
      </trkpt>
      <trkpt lat="44.05981" lon="6.4284">
        <ele>1290.5</ele>
        <time>2021-09-12T08:27:17Z</time>
      </trkpt>
      <trkpt lat="44.05986" lon="6.4284">
        <ele>1290.7</ele>
        <time>2021-09-12T08:27:18Z</time>
      </trkpt>
      <trkpt lat="44.05994" lon="6.42839">
        <ele>1291.3</ele>
        <time>2021-09-12T08:27:20Z</time>
      </trkpt>
      <trkpt lat="44.06001" lon="6.42838">
        <ele>1291.8</ele>
        <time>2021-09-12T08:27:22Z</time>
      </trkpt>
      <trkpt lat="44.06004" lon="6.42837">
        <ele>1292</ele>
        <time>2021-09-12T08:27:23Z</time>
      </trkpt>
      <trkpt lat="44.06007" lon="6.42836">
        <ele>1292.2</ele>
        <time>2021-09-12T08:27:24Z</time>
      </trkpt>
      <trkpt lat="44.06012" lon="6.42835">
        <ele>1292.6</ele>
        <time>2021-09-12T08:27:26Z</time>
      </trkpt>
      <trkpt lat="44.06017" lon="6.42833">
        <ele>1293.1</ele>
        <time>2021-09-12T08:27:29Z</time>
      </trkpt>
      <trkpt lat="44.0602" lon="6.42832">
        <ele>1293.3</ele>
        <time>2021-09-12T08:27:30Z</time>
      </trkpt>
      <trkpt lat="44.06023" lon="6.42835">
        <ele>1293.6</ele>
        <time>2021-09-12T08:27:31Z</time>
      </trkpt>
      <trkpt lat="44.06024" lon="6.42835">
        <ele>1293.7</ele>
        <time>2021-09-12T08:27:32Z</time>
      </trkpt>
      <trkpt lat="44.06029" lon="6.42832">
        <ele>1294.2</ele>
        <time>2021-09-12T08:27:35Z</time>
      </trkpt>
      <trkpt lat="44.06032" lon="6.42831">
        <ele>1294.5</ele>
        <time>2021-09-12T08:27:37Z</time>
      </trkpt>
      <trkpt lat="44.06035" lon="6.4283">
        <ele>1294.8</ele>
        <time>2021-09-12T08:27:39Z</time>
      </trkpt>
      <trkpt lat="44.06039" lon="6.42829">
        <ele>1295.1</ele>
        <time>2021-09-12T08:27:42Z</time>
      </trkpt>
      <trkpt lat="44.06042" lon="6.42829">
        <ele>1295.4</ele>
        <time>2021-09-12T08:27:44Z</time>
      </trkpt>
      <trkpt lat="44.06044" lon="6.42829">
        <ele>1295.7</ele>
        <time>2021-09-12T08:27:46Z</time>
      </trkpt>
      <trkpt lat="44.06048" lon="6.42831">
        <ele>1296.1</ele>
        <time>2021-09-12T08:27:49Z</time>
      </trkpt>
      <trkpt lat="44.06049" lon="6.42831">
        <ele>1296.3</ele>
        <time>2021-09-12T08:27:51Z</time>
      </trkpt>
      <trkpt lat="44.06053" lon="6.42831">
        <ele>1296.6</ele>
        <time>2021-09-12T08:27:54Z</time>
      </trkpt>
      <trkpt lat="44.06056" lon="6.4283">
        <ele>1296.9</ele>
        <time>2021-09-12T08:27:57Z</time>
      </trkpt>
      <trkpt lat="44.06059" lon="6.4283">
        <ele>1297.2</ele>
        <time>2021-09-12T08:28:00Z</time>
      </trkpt>
      <trkpt lat="44.06061" lon="6.42829">
        <ele>1297.3</ele>
        <time>2021-09-12T08:28:02Z</time>
      </trkpt>
      <trkpt lat="44.06065" lon="6.4283">
        <ele>1297.6</ele>
        <time>2021-09-12T08:28:06Z</time>
      </trkpt>
      <trkpt lat="44.06066" lon="6.4283">
        <ele>1297.7</ele>
        <time>2021-09-12T08:28:07Z</time>
      </trkpt>
      <trkpt lat="44.06067" lon="6.4283">
        <ele>1297.8</ele>
        <time>2021-09-12T08:28:08Z</time>
      </trkpt>
      <trkpt lat="44.06069" lon="6.4283">
        <ele>1297.9</ele>
        <time>2021-09-12T08:28:09Z</time>
      </trkpt>
      <trkpt lat="44.0607" lon="6.4283">
        <ele>1298</ele>
        <time>2021-09-12T08:28:10Z</time>
      </trkpt>
      <trkpt lat="44.06071" lon="6.42831">
        <ele>1298.1</ele>
        <time>2021-09-12T08:28:11Z</time>
      </trkpt>
      <trkpt lat="44.06075" lon="6.42832">
        <ele>1298.4</ele>
        <time>2021-09-12T08:28:13Z</time>
      </trkpt>
      <trkpt lat="44.06076" lon="6.42832">
        <ele>1298.4</ele>
        <time>2021-09-12T08:28:14Z</time>
      </trkpt>
      <trkpt lat="44.06079" lon="6.42832">
        <ele>1298.7</ele>
        <time>2021-09-12T08:28:16Z</time>
      </trkpt>
      <trkpt lat="44.0608" lon="6.42833">
        <ele>1298.7</ele>
        <time>2021-09-12T08:28:17Z</time>
      </trkpt>
      <trkpt lat="44.06082" lon="6.42836">
        <ele>1299</ele>
        <time>2021-09-12T08:28:18Z</time>
      </trkpt>
      <trkpt lat="44.06085" lon="6.42839">
        <ele>1299.2</ele>
        <time>2021-09-12T08:28:20Z</time>
      </trkpt>
      <trkpt lat="44.06086" lon="6.42839">
        <ele>1299.2</ele>
        <time>2021-09-12T08:28:21Z</time>
      </trkpt>
      <trkpt lat="44.06088" lon="6.42841">
        <ele>1299.4</ele>
        <time>2021-09-12T08:28:22Z</time>
      </trkpt>
      <trkpt lat="44.06091" lon="6.42843">
        <ele>1299.6</ele>
        <time>2021-09-12T08:28:24Z</time>
      </trkpt>
      <trkpt lat="44.06093" lon="6.42846">
        <ele>1299.8</ele>
        <time>2021-09-12T08:28:26Z</time>
      </trkpt>
      <trkpt lat="44.06096" lon="6.42849">
        <ele>1300</ele>
        <time>2021-09-12T08:28:27Z</time>
      </trkpt>
      <trkpt lat="44.061" lon="6.42852">
        <ele>1300.4</ele>
        <time>2021-09-12T08:28:29Z</time>
      </trkpt>
      <trkpt lat="44.06103" lon="6.42853">
        <ele>1300.6</ele>
        <time>2021-09-12T08:28:31Z</time>
      </trkpt>
      <trkpt lat="44.06109" lon="6.42854">
        <ele>1301.1</ele>
        <time>2021-09-12T08:28:34Z</time>
      </trkpt>
      <trkpt lat="44.06111" lon="6.42854">
        <ele>1301.2</ele>
        <time>2021-09-12T08:28:35Z</time>
      </trkpt>
      <trkpt lat="44.06114" lon="6.42854">
        <ele>1301.4</ele>
        <time>2021-09-12T08:28:37Z</time>
      </trkpt>
      <trkpt lat="44.06115" lon="6.42853">
        <ele>1301.5</ele>
        <time>2021-09-12T08:28:38Z</time>
      </trkpt>
      <trkpt lat="44.0612" lon="6.42853">
        <ele>1301.8</ele>
        <time>2021-09-12T08:28:41Z</time>
      </trkpt>
      <trkpt lat="44.06121" lon="6.42853">
        <ele>1301.8</ele>
        <time>2021-09-12T08:28:42Z</time>
      </trkpt>
      <trkpt lat="44.06123" lon="6.42853">
        <ele>1301.9</ele>
        <time>2021-09-12T08:28:43Z</time>
      </trkpt>
      <trkpt lat="44.06126" lon="6.42853">
        <ele>1302</ele>
        <time>2021-09-12T08:28:44Z</time>
      </trkpt>
      <trkpt lat="44.06129" lon="6.42853">
        <ele>1302.2</ele>
        <time>2021-09-12T08:28:46Z</time>
      </trkpt>
      <trkpt lat="44.0613" lon="6.42853">
        <ele>1302.2</ele>
        <time>2021-09-12T08:28:47Z</time>
      </trkpt>
      <trkpt lat="44.06133" lon="6.42854">
        <ele>1302.3</ele>
        <time>2021-09-12T08:28:49Z</time>
      </trkpt>
      <trkpt lat="44.06136" lon="6.42854">
        <ele>1302.4</ele>
        <time>2021-09-12T08:28:50Z</time>
      </trkpt>
      <trkpt lat="44.06141" lon="6.42852">
        <ele>1302.7</ele>
        <time>2021-09-12T08:28:52Z</time>
      </trkpt>
      <trkpt lat="44.06145" lon="6.42851">
        <ele>1302.8</ele>
        <time>2021-09-12T08:28:54Z</time>
      </trkpt>
      <trkpt lat="44.06149" lon="6.42849">
        <ele>1303.1</ele>
        <time>2021-09-12T08:28:56Z</time>
      </trkpt>
      <trkpt lat="44.06152" lon="6.42848">
        <ele>1303.3</ele>
        <time>2021-09-12T08:28:57Z</time>
      </trkpt>
      <trkpt lat="44.06157" lon="6.42847">
        <ele>1303.7</ele>
        <time>2021-09-12T08:28:59Z</time>
      </trkpt>
      <trkpt lat="44.06159" lon="6.42846">
        <ele>1303.8</ele>
        <time>2021-09-12T08:29:00Z</time>
      </trkpt>
      <trkpt lat="44.06162" lon="6.42845">
        <ele>1304</ele>
        <time>2021-09-12T08:29:01Z</time>
      </trkpt>
      <trkpt lat="44.06167" lon="6.42844">
        <ele>1304.3</ele>
        <time>2021-09-12T08:29:03Z</time>
      </trkpt>
      <trkpt lat="44.06169" lon="6.42843">
        <ele>1304.4</ele>
        <time>2021-09-12T08:29:05Z</time>
      </trkpt>
      <trkpt lat="44.06175" lon="6.4284">
        <ele>1304.8</ele>
        <time>2021-09-12T08:29:07Z</time>
      </trkpt>
      <trkpt lat="44.06178" lon="6.42839">
        <ele>1305.1</ele>
        <time>2021-09-12T08:29:09Z</time>
      </trkpt>
      <trkpt lat="44.06181" lon="6.42839">
        <ele>1305.3</ele>
        <time>2021-09-12T08:29:11Z</time>
      </trkpt>
      <trkpt lat="44.06184" lon="6.4284">
        <ele>1305.5</ele>
        <time>2021-09-12T08:29:12Z</time>
      </trkpt>
      <trkpt lat="44.06187" lon="6.42839">
        <ele>1305.8</ele>
        <time>2021-09-12T08:29:14Z</time>
      </trkpt>
      <trkpt lat="44.06191" lon="6.42838">
        <ele>1306.1</ele>
        <time>2021-09-12T08:29:16Z</time>
      </trkpt>
      <trkpt lat="44.06197" lon="6.42838">
        <ele>1306.7</ele>
        <time>2021-09-12T08:29:19Z</time>
      </trkpt>
      <trkpt lat="44.06199" lon="6.42838">
        <ele>1306.9</ele>
        <time>2021-09-12T08:29:20Z</time>
      </trkpt>
      <trkpt lat="44.06202" lon="6.42838">
        <ele>1307.2</ele>
        <time>2021-09-12T08:29:23Z</time>
      </trkpt>
      <trkpt lat="44.06204" lon="6.42838">
        <ele>1307.3</ele>
        <time>2021-09-12T08:29:24Z</time>
      </trkpt>
      <trkpt lat="44.06205" lon="6.42837">
        <ele>1307.5</ele>
        <time>2021-09-12T08:29:25Z</time>
      </trkpt>
      <trkpt lat="44.06207" lon="6.42838">
        <ele>1307.6</ele>
        <time>2021-09-12T08:29:26Z</time>
      </trkpt>
      <trkpt lat="44.06209" lon="6.42838">
        <ele>1307.8</ele>
        <time>2021-09-12T08:29:28Z</time>
      </trkpt>
      <trkpt lat="44.06211" lon="6.42836">
        <ele>1307.9</ele>
        <time>2021-09-12T08:29:29Z</time>
      </trkpt>
      <trkpt lat="44.06212" lon="6.42835">
        <ele>1308</ele>
        <time>2021-09-12T08:29:30Z</time>
      </trkpt>
      <trkpt lat="44.06214" lon="6.42835">
        <ele>1308.2</ele>
        <time>2021-09-12T08:29:32Z</time>
      </trkpt>
      <trkpt lat="44.06216" lon="6.42835">
        <ele>1308.3</ele>
        <time>2021-09-12T08:29:33Z</time>
      </trkpt>
      <trkpt lat="44.06218" lon="6.42837">
        <ele>1308.4</ele>
        <time>2021-09-12T08:29:34Z</time>
      </trkpt>
      <trkpt lat="44.0622" lon="6.42838">
        <ele>1308.5</ele>
        <time>2021-09-12T08:29:36Z</time>
      </trkpt>
      <trkpt lat="44.06223" lon="6.42839">
        <ele>1308.7</ele>
        <time>2021-09-12T08:29:37Z</time>
      </trkpt>
      <trkpt lat="44.06225" lon="6.4284">
        <ele>1308.8</ele>
        <time>2021-09-12T08:29:38Z</time>
      </trkpt>
      <trkpt lat="44.06227" lon="6.42839">
        <ele>1308.9</ele>
        <time>2021-09-12T08:29:39Z</time>
      </trkpt>
      <trkpt lat="44.06229" lon="6.4284">
        <ele>1309</ele>
        <time>2021-09-12T08:29:40Z</time>
      </trkpt>
      <trkpt lat="44.06232" lon="6.42839">
        <ele>1309.2</ele>
        <time>2021-09-12T08:29:41Z</time>
      </trkpt>
      <trkpt lat="44.06236" lon="6.42839">
        <ele>1309.5</ele>
        <time>2021-09-12T08:29:43Z</time>
      </trkpt>
      <trkpt lat="44.06239" lon="6.42838">
        <ele>1309.6</ele>
        <time>2021-09-12T08:29:44Z</time>
      </trkpt>
      <trkpt lat="44.06242" lon="6.42837">
        <ele>1309.9</ele>
        <time>2021-09-12T08:29:46Z</time>
      </trkpt>
      <trkpt lat="44.06245" lon="6.42837">
        <ele>1310.1</ele>
        <time>2021-09-12T08:29:47Z</time>
      </trkpt>
      <trkpt lat="44.06246" lon="6.42837">
        <ele>1310.2</ele>
        <time>2021-09-12T08:29:48Z</time>
      </trkpt>
      <trkpt lat="44.06249" lon="6.42837">
        <ele>1310.4</ele>
        <time>2021-09-12T08:29:49Z</time>
      </trkpt>
      <trkpt lat="44.06251" lon="6.42837">
        <ele>1310.6</ele>
        <time>2021-09-12T08:29:51Z</time>
      </trkpt>
      <trkpt lat="44.06255" lon="6.42837">
        <ele>1310.9</ele>
        <time>2021-09-12T08:29:53Z</time>
      </trkpt>
      <trkpt lat="44.06256" lon="6.42837">
        <ele>1311</ele>
        <time>2021-09-12T08:29:54Z</time>
      </trkpt>
      <trkpt lat="44.06259" lon="6.42838">
        <ele>1311.2</ele>
        <time>2021-09-12T08:29:56Z</time>
      </trkpt>
      <trkpt lat="44.06264" lon="6.42839">
        <ele>1311.6</ele>
        <time>2021-09-12T08:29:58Z</time>
      </trkpt>
      <trkpt lat="44.06267" lon="6.42841">
        <ele>1311.9</ele>
        <time>2021-09-12T08:30:00Z</time>
      </trkpt>
      <trkpt lat="44.06269" lon="6.42842">
        <ele>1312.1</ele>
        <time>2021-09-12T08:30:02Z</time>
      </trkpt>
      <trkpt lat="44.06272" lon="6.42842">
        <ele>1312.4</ele>
        <time>2021-09-12T08:30:05Z</time>
      </trkpt>
      <trkpt lat="44.06276" lon="6.42843">
        <ele>1312.7</ele>
        <time>2021-09-12T08:30:07Z</time>
      </trkpt>
      <trkpt lat="44.06277" lon="6.42843">
        <ele>1312.7</ele>
        <time>2021-09-12T08:30:08Z</time>
      </trkpt>
      <trkpt lat="44.0628" lon="6.42845">
        <ele>1313</ele>
        <time>2021-09-12T08:30:10Z</time>
      </trkpt>
      <trkpt lat="44.06282" lon="6.42845">
        <ele>1313.2</ele>
        <time>2021-09-12T08:30:12Z</time>
      </trkpt>
      <trkpt lat="44.06285" lon="6.42845">
        <ele>1313.4</ele>
        <time>2021-09-12T08:30:14Z</time>
      </trkpt>
      <trkpt lat="44.06286" lon="6.42845">
        <ele>1313.4</ele>
        <time>2021-09-12T08:30:15Z</time>
      </trkpt>
      <trkpt lat="44.0629" lon="6.42845">
        <ele>1313.7</ele>
        <time>2021-09-12T08:30:18Z</time>
      </trkpt>
      <trkpt lat="44.06296" lon="6.42846">
        <ele>1314.1</ele>
        <time>2021-09-12T08:30:21Z</time>
      </trkpt>
      <trkpt lat="44.06297" lon="6.42846">
        <ele>1314.2</ele>
        <time>2021-09-12T08:30:22Z</time>
      </trkpt>
      <trkpt lat="44.06299" lon="6.42847">
        <ele>1314.3</ele>
        <time>2021-09-12T08:30:23Z</time>
      </trkpt>
      <trkpt lat="44.063" lon="6.42848">
        <ele>1314.4</ele>
        <time>2021-09-12T08:30:24Z</time>
      </trkpt>
      <trkpt lat="44.06304" lon="6.42849">
        <ele>1314.6</ele>
        <time>2021-09-12T08:30:26Z</time>
      </trkpt>
      <trkpt lat="44.06306" lon="6.42849">
        <ele>1314.8</ele>
        <time>2021-09-12T08:30:27Z</time>
      </trkpt>
      <trkpt lat="44.06308" lon="6.42849">
        <ele>1314.9</ele>
        <time>2021-09-12T08:30:28Z</time>
      </trkpt>
      <trkpt lat="44.0631" lon="6.42849">
        <ele>1315</ele>
        <time>2021-09-12T08:30:29Z</time>
      </trkpt>
      <trkpt lat="44.06314" lon="6.42849">
        <ele>1315.2</ele>
        <time>2021-09-12T08:30:31Z</time>
      </trkpt>
      <trkpt lat="44.06318" lon="6.4285">
        <ele>1315.5</ele>
        <time>2021-09-12T08:30:33Z</time>
      </trkpt>
      <trkpt lat="44.06319" lon="6.4285">
        <ele>1315.6</ele>
        <time>2021-09-12T08:30:34Z</time>
      </trkpt>
      <trkpt lat="44.06321" lon="6.4285">
        <ele>1315.7</ele>
        <time>2021-09-12T08:30:35Z</time>
      </trkpt>
      <trkpt lat="44.06325" lon="6.42851">
        <ele>1316</ele>
        <time>2021-09-12T08:30:37Z</time>
      </trkpt>
      <trkpt lat="44.06327" lon="6.42851">
        <ele>1316.1</ele>
        <time>2021-09-12T08:30:38Z</time>
      </trkpt>
      <trkpt lat="44.06328" lon="6.42851">
        <ele>1316.2</ele>
        <time>2021-09-12T08:30:39Z</time>
      </trkpt>
      <trkpt lat="44.06331" lon="6.42851">
        <ele>1316.4</ele>
        <time>2021-09-12T08:30:40Z</time>
      </trkpt>
      <trkpt lat="44.06332" lon="6.42851">
        <ele>1316.4</ele>
        <time>2021-09-12T08:30:41Z</time>
      </trkpt>
      <trkpt lat="44.06335" lon="6.42852">
        <ele>1316.6</ele>
        <time>2021-09-12T08:30:42Z</time>
      </trkpt>
      <trkpt lat="44.06337" lon="6.42852">
        <ele>1316.7</ele>
        <time>2021-09-12T08:30:43Z</time>
      </trkpt>
      <trkpt lat="44.06341" lon="6.42852">
        <ele>1317</ele>
        <time>2021-09-12T08:30:45Z</time>
      </trkpt>
      <trkpt lat="44.06344" lon="6.42851">
        <ele>1317.2</ele>
        <time>2021-09-12T08:30:46Z</time>
      </trkpt>
      <trkpt lat="44.06347" lon="6.42851">
        <ele>1317.5</ele>
        <time>2021-09-12T08:30:48Z</time>
      </trkpt>
      <trkpt lat="44.0635" lon="6.42852">
        <ele>1317.7</ele>
        <time>2021-09-12T08:30:49Z</time>
      </trkpt>
      <trkpt lat="44.06352" lon="6.42853">
        <ele>1317.9</ele>
        <time>2021-09-12T08:30:50Z</time>
      </trkpt>
      <trkpt lat="44.06355" lon="6.42855">
        <ele>1318.2</ele>
        <time>2021-09-12T08:30:52Z</time>
      </trkpt>
      <trkpt lat="44.06357" lon="6.42856">
        <ele>1318.4</ele>
        <time>2021-09-12T08:30:53Z</time>
      </trkpt>
      <trkpt lat="44.06361" lon="6.42857">
        <ele>1318.7</ele>
        <time>2021-09-12T08:30:55Z</time>
      </trkpt>
      <trkpt lat="44.06362" lon="6.42858">
        <ele>1318.8</ele>
        <time>2021-09-12T08:30:56Z</time>
      </trkpt>
      <trkpt lat="44.06365" lon="6.42859">
        <ele>1319</ele>
        <time>2021-09-12T08:30:58Z</time>
      </trkpt>
      <trkpt lat="44.06367" lon="6.4286">
        <ele>1319.2</ele>
        <time>2021-09-12T08:30:59Z</time>
      </trkpt>
      <trkpt lat="44.0637" lon="6.42861">
        <ele>1320.5</ele>
        <time>2021-09-12T08:31:02Z</time>
      </trkpt>
      <trkpt lat="44.06371" lon="6.42862">
        <ele>1320.7</ele>
        <time>2021-09-12T08:31:03Z</time>
      </trkpt>
      <trkpt lat="44.06373" lon="6.42864">
        <ele>1321</ele>
        <time>2021-09-12T08:31:04Z</time>
      </trkpt>
      <trkpt lat="44.06374" lon="6.42866">
        <ele>1321.3</ele>
        <time>2021-09-12T08:31:06Z</time>
      </trkpt>
      <trkpt lat="44.06375" lon="6.42866">
        <ele>1321.5</ele>
        <time>2021-09-12T08:31:07Z</time>
      </trkpt>
      <trkpt lat="44.06375" lon="6.42865">
        <ele>1321.6</ele>
        <time>2021-09-12T08:31:08Z</time>
      </trkpt>
      <trkpt lat="44.06375" lon="6.42864">
        <ele>1321.7</ele>
        <time>2021-09-12T08:31:09Z</time>
      </trkpt>
      <trkpt lat="44.06374" lon="6.42863">
        <ele>1322</ele>
        <time>2021-09-12T08:31:11Z</time>
      </trkpt>
      <trkpt lat="44.06373" lon="6.42862">
        <ele>1322.1</ele>
        <time>2021-09-12T08:31:13Z</time>
      </trkpt>
      <trkpt lat="44.06372" lon="6.42863">
        <ele>1322.3</ele>
        <time>2021-09-12T08:31:16Z</time>
      </trkpt>
      <trkpt lat="44.06372" lon="6.42863">
        <ele>1322.4</ele>
        <time>2021-09-12T08:31:17Z</time>
      </trkpt>
      <trkpt lat="44.06372" lon="6.42864">
        <ele>1322.5</ele>
        <time>2021-09-12T08:31:18Z</time>
      </trkpt>
      <trkpt lat="44.06372" lon="6.42865">
        <ele>1322.6</ele>
        <time>2021-09-12T08:31:19Z</time>
      </trkpt>
      <trkpt lat="44.06372" lon="6.42865">
        <ele>1322.6</ele>
        <time>2021-09-12T08:31:20Z</time>
      </trkpt>
      <trkpt lat="44.06482" lon="6.42961">
        <ele>1343</ele>
        <time>2021-09-12T08:35:56Z</time>
      </trkpt>
      <trkpt lat="44.06482" lon="6.42962">
        <ele>1343.1</ele>
        <time>2021-09-12T08:35:57Z</time>
      </trkpt>
      <trkpt lat="44.06483" lon="6.42963">
        <ele>1343.2</ele>
        <time>2021-09-12T08:35:58Z</time>
      </trkpt>
      <trkpt lat="44.06483" lon="6.42964">
        <ele>1343.3</ele>
        <time>2021-09-12T08:36:00Z</time>
      </trkpt>
      <trkpt lat="44.06484" lon="6.42964">
        <ele>1343.4</ele>
        <time>2021-09-12T08:36:01Z</time>
      </trkpt>
      <trkpt lat="44.06484" lon="6.42964">
        <ele>1343.4</ele>
        <time>2021-09-12T08:36:02Z</time>
      </trkpt>
      <trkpt lat="44.06484" lon="6.42964">
        <ele>1343.5</ele>
        <time>2021-09-12T08:36:03Z</time>
      </trkpt>
      <trkpt lat="44.06485" lon="6.42964">
        <ele>1343.5</ele>
        <time>2021-09-12T08:36:04Z</time>
      </trkpt>
      <trkpt lat="44.06485" lon="6.42965">
        <ele>1343.7</ele>
        <time>2021-09-12T08:36:05Z</time>
      </trkpt>
      <trkpt lat="44.06486" lon="6.42966">
        <ele>1343.8</ele>
        <time>2021-09-12T08:36:07Z</time>
      </trkpt>
      <trkpt lat="44.06487" lon="6.42967">
        <ele>1344</ele>
        <time>2021-09-12T08:36:10Z</time>
      </trkpt>
      <trkpt lat="44.06488" lon="6.42968">
        <ele>1344.2</ele>
        <time>2021-09-12T08:36:13Z</time>
      </trkpt>
      <trkpt lat="44.0649" lon="6.42969">
        <ele>1344.4</ele>
        <time>2021-09-12T08:36:16Z</time>
      </trkpt>
      <trkpt lat="44.06491" lon="6.4297">
        <ele>1344.6</ele>
        <time>2021-09-12T08:36:19Z</time>
      </trkpt>
      <trkpt lat="44.06492" lon="6.42971">
        <ele>1344.8</ele>
        <time>2021-09-12T08:36:21Z</time>
      </trkpt>
      <trkpt lat="44.06494" lon="6.42971">
        <ele>1345</ele>
        <time>2021-09-12T08:36:25Z</time>
      </trkpt>
      <trkpt lat="44.06495" lon="6.42972">
        <ele>1345.2</ele>
        <time>2021-09-12T08:36:27Z</time>
      </trkpt>
      <trkpt lat="44.06496" lon="6.42972">
        <ele>1345.3</ele>
        <time>2021-09-12T08:36:29Z</time>
      </trkpt>
      <trkpt lat="44.06497" lon="6.42971">
        <ele>1345.4</ele>
        <time>2021-09-12T08:36:31Z</time>
      </trkpt>
      <trkpt lat="44.06497" lon="6.42971">
        <ele>1345.5</ele>
        <time>2021-09-12T08:36:32Z</time>
      </trkpt>
      <trkpt lat="44.06497" lon="6.4297">
        <ele>1345.5</ele>
        <time>2021-09-12T08:36:33Z</time>
      </trkpt>
      <trkpt lat="44.06497" lon="6.4297">
        <ele>1345.6</ele>
        <time>2021-09-12T08:36:34Z</time>
      </trkpt>
      <trkpt lat="44.06497" lon="6.42969">
        <ele>1345.7</ele>
        <time>2021-09-12T08:36:35Z</time>
      </trkpt>
      <trkpt lat="44.06497" lon="6.42968">
        <ele>1345.7</ele>
        <time>2021-09-12T08:36:36Z</time>
      </trkpt>
      <trkpt lat="44.06497" lon="6.42967">
        <ele>1345.8</ele>
        <time>2021-09-12T08:36:37Z</time>
      </trkpt>
      <trkpt lat="44.06497" lon="6.42967">
        <ele>1345.8</ele>
        <time>2021-09-12T08:36:38Z</time>
      </trkpt>
      <trkpt lat="44.06498" lon="6.42967">
        <ele>1346</ele>
        <time>2021-09-12T08:36:40Z</time>
      </trkpt>
      <trkpt lat="44.06499" lon="6.42966">
        <ele>1346.1</ele>
        <time>2021-09-12T08:36:42Z</time>
      </trkpt>
      <trkpt lat="44.065" lon="6.42966">
        <ele>1346.2</ele>
        <time>2021-09-12T08:36:44Z</time>
      </trkpt>
      <trkpt lat="44.06502" lon="6.42966">
        <ele>1346.3</ele>
        <time>2021-09-12T08:36:47Z</time>
      </trkpt>
      <trkpt lat="44.06504" lon="6.42965">
        <ele>1346.5</ele>
        <time>2021-09-12T08:36:50Z</time>
      </trkpt>
      <trkpt lat="44.06505" lon="6.42965">
        <ele>1346.7</ele>
        <time>2021-09-12T08:36:53Z</time>
      </trkpt>
      <trkpt lat="44.06507" lon="6.42966">
        <ele>1346.8</ele>
        <time>2021-09-12T08:36:55Z</time>
      </trkpt>
      <trkpt lat="44.06508" lon="6.42966">
        <ele>1346.9</ele>
        <time>2021-09-12T08:36:56Z</time>
      </trkpt>
      <trkpt lat="44.06509" lon="6.42967">
        <ele>1347</ele>
        <time>2021-09-12T08:36:57Z</time>
      </trkpt>
      <trkpt lat="44.0651" lon="6.42967">
        <ele>1347.1</ele>
        <time>2021-09-12T08:36:59Z</time>
      </trkpt>
      <trkpt lat="44.06511" lon="6.42968">
        <ele>1347.2</ele>
        <time>2021-09-12T08:37:00Z</time>
      </trkpt>
      <trkpt lat="44.06512" lon="6.42969">
        <ele>1347.3</ele>
        <time>2021-09-12T08:37:01Z</time>
      </trkpt>
      <trkpt lat="44.06513" lon="6.42969">
        <ele>1347.5</ele>
        <time>2021-09-12T08:37:02Z</time>
      </trkpt>
      <trkpt lat="44.06513" lon="6.4297">
        <ele>1347.5</ele>
        <time>2021-09-12T08:37:03Z</time>
      </trkpt>
      <trkpt lat="44.06514" lon="6.42971">
        <ele>1347.5</ele>
        <time>2021-09-12T08:37:05Z</time>
      </trkpt>
      <trkpt lat="44.06515" lon="6.42971">
        <ele>1347.5</ele>
        <time>2021-09-12T08:37:06Z</time>
      </trkpt>
      <trkpt lat="44.06517" lon="6.42972">
        <ele>1347.6</ele>
        <time>2021-09-12T08:37:07Z</time>
      </trkpt>
      <trkpt lat="44.06518" lon="6.42972">
        <ele>1347.6</ele>
        <time>2021-09-12T08:37:08Z</time>
      </trkpt>
      <trkpt lat="44.06521" lon="6.42973">
        <ele>1347.6</ele>
        <time>2021-09-12T08:37:10Z</time>
      </trkpt>
      <trkpt lat="44.06522" lon="6.42974">
        <ele>1347.5</ele>
        <time>2021-09-12T08:37:11Z</time>
      </trkpt>
      <trkpt lat="44.06526" lon="6.42975">
        <ele>1347.4</ele>
        <time>2021-09-12T08:37:12Z</time>
      </trkpt>
      <trkpt lat="44.0653" lon="6.42975">
        <ele>1347.2</ele>
        <time>2021-09-12T08:37:13Z</time>
      </trkpt>
      <trkpt lat="44.06535" lon="6.42974">
        <ele>1346.8</ele>
        <time>2021-09-12T08:37:14Z</time>
      </trkpt>
      <trkpt lat="44.06538" lon="6.42973">
        <ele>1346.5</ele>
        <time>2021-09-12T08:37:15Z</time>
      </trkpt>
      <trkpt lat="44.06541" lon="6.42971">
        <ele>1346.1</ele>
        <time>2021-09-12T08:37:16Z</time>
      </trkpt>
      <trkpt lat="44.0655" lon="6.42969">
        <ele>1344.8</ele>
        <time>2021-09-12T08:37:17Z</time>
      </trkpt>
      <trkpt lat="44.06558" lon="6.42966">
        <ele>1343.5</ele>
        <time>2021-09-12T08:37:18Z</time>
      </trkpt>
      <trkpt lat="44.06565" lon="6.42965">
        <ele>1342.6</ele>
        <time>2021-09-12T08:37:19Z</time>
      </trkpt>
      <trkpt lat="44.06572" lon="6.42965">
        <ele>1341.5</ele>
        <time>2021-09-12T08:37:20Z</time>
      </trkpt>
      <trkpt lat="44.06576" lon="6.42965">
        <ele>1341</ele>
        <time>2021-09-12T08:37:21Z</time>
      </trkpt>
      <trkpt lat="44.06585" lon="6.42967">
        <ele>1339.5</ele>
        <time>2021-09-12T08:37:22Z</time>
      </trkpt>
      <trkpt lat="44.06593" lon="6.42967">
        <ele>1338.5</ele>
        <time>2021-09-12T08:37:23Z</time>
      </trkpt>
      <trkpt lat="44.06599" lon="6.42968">
        <ele>1337.8</ele>
        <time>2021-09-12T08:37:24Z</time>
      </trkpt>
      <trkpt lat="44.06609" lon="6.4297">
        <ele>1337.1</ele>
        <time>2021-09-12T08:37:25Z</time>
      </trkpt>
      <trkpt lat="44.06615" lon="6.42972">
        <ele>1336.8</ele>
        <time>2021-09-12T08:37:26Z</time>
      </trkpt>
      <trkpt lat="44.06631" lon="6.42974">
        <ele>1336.2</ele>
        <time>2021-09-12T08:37:28Z</time>
      </trkpt>
      <trkpt lat="44.06636" lon="6.42978">
        <ele>1336</ele>
        <time>2021-09-12T08:37:29Z</time>
      </trkpt>
      <trkpt lat="44.06643" lon="6.42984">
        <ele>1335.7</ele>
        <time>2021-09-12T08:37:30Z</time>
      </trkpt>
      <trkpt lat="44.06648" lon="6.42987">
        <ele>1335.7</ele>
        <time>2021-09-12T08:37:31Z</time>
      </trkpt>
      <trkpt lat="44.06652" lon="6.42987">
        <ele>1335.7</ele>
        <time>2021-09-12T08:37:32Z</time>
      </trkpt>
      <trkpt lat="44.06659" lon="6.42987">
        <ele>1335.7</ele>
        <time>2021-09-12T08:37:33Z</time>
      </trkpt>
      <trkpt lat="44.06664" lon="6.42988">
        <ele>1335.8</ele>
        <time>2021-09-12T08:37:34Z</time>
      </trkpt>
      <trkpt lat="44.06669" lon="6.4299">
        <ele>1335.9</ele>
        <time>2021-09-12T08:37:35Z</time>
      </trkpt>
      <trkpt lat="44.06676" lon="6.42994">
        <ele>1335.9</ele>
        <time>2021-09-12T08:37:36Z</time>
      </trkpt>
      <trkpt lat="44.06684" lon="6.42997">
        <ele>1336</ele>
        <time>2021-09-12T08:37:38Z</time>
      </trkpt>
      <trkpt lat="44.06693" lon="6.43001">
        <ele>1336.1</ele>
        <time>2021-09-12T08:37:40Z</time>
      </trkpt>
      <trkpt lat="44.06701" lon="6.43002">
        <ele>1336.3</ele>
        <time>2021-09-12T08:37:42Z</time>
      </trkpt>
      <trkpt lat="44.06706" lon="6.43003">
        <ele>1336.4</ele>
        <time>2021-09-12T08:37:44Z</time>
      </trkpt>
      <trkpt lat="44.0671" lon="6.43004">
        <ele>1336.6</ele>
        <time>2021-09-12T08:37:45Z</time>
      </trkpt>
      <trkpt lat="44.06715" lon="6.43004">
        <ele>1336.8</ele>
        <time>2021-09-12T08:37:46Z</time>
      </trkpt>
      <trkpt lat="44.06719" lon="6.43004">
        <ele>1336.9</ele>
        <time>2021-09-12T08:37:47Z</time>
      </trkpt>
      <trkpt lat="44.06722" lon="6.43007">
        <ele>1337</ele>
        <time>2021-09-12T08:37:48Z</time>
      </trkpt>
      <trkpt lat="44.06725" lon="6.43013">
        <ele>1337.2</ele>
        <time>2021-09-12T08:37:50Z</time>
      </trkpt>
      <trkpt lat="44.06729" lon="6.43015">
        <ele>1337.3</ele>
        <time>2021-09-12T08:37:51Z</time>
      </trkpt>
      <trkpt lat="44.06728" lon="6.43019">
        <ele>1337.4</ele>
        <time>2021-09-12T08:37:52Z</time>
      </trkpt>
      <trkpt lat="44.0673" lon="6.43021">
        <ele>1337.4</ele>
        <time>2021-09-12T08:37:53Z</time>
      </trkpt>
      <trkpt lat="44.06731" lon="6.43025">
        <ele>1337.5</ele>
        <time>2021-09-12T08:37:54Z</time>
      </trkpt>
      <trkpt lat="44.06731" lon="6.43026">
        <ele>1337.6</ele>
        <time>2021-09-12T08:37:55Z</time>
      </trkpt>
      <trkpt lat="44.06733" lon="6.43044">
        <ele>1338.6</ele>
        <time>2021-09-12T08:37:59Z</time>
      </trkpt>
      <trkpt lat="44.06734" lon="6.4306">
        <ele>1340</ele>
        <time>2021-09-12T08:38:03Z</time>
      </trkpt>
      <trkpt lat="44.06736" lon="6.43077">
        <ele>1341.1</ele>
        <time>2021-09-12T08:38:08Z</time>
      </trkpt>
      <trkpt lat="44.06737" lon="6.43093">
        <ele>1342</ele>
        <time>2021-09-12T08:38:12Z</time>
      </trkpt>
      <trkpt lat="44.06738" lon="6.43102">
        <ele>1342.7</ele>
        <time>2021-09-12T08:38:15Z</time>
      </trkpt>
      <trkpt lat="44.06738" lon="6.43108">
        <ele>1343.3</ele>
        <time>2021-09-12T08:38:17Z</time>
      </trkpt>
      <trkpt lat="44.06738" lon="6.43116">
        <ele>1344.1</ele>
        <time>2021-09-12T08:38:20Z</time>
      </trkpt>
      <trkpt lat="44.0674" lon="6.43121">
        <ele>1344.7</ele>
        <time>2021-09-12T08:38:23Z</time>
      </trkpt>
      <trkpt lat="44.06741" lon="6.43126">
        <ele>1345.5</ele>
        <time>2021-09-12T08:38:26Z</time>
      </trkpt>
      <trkpt lat="44.06742" lon="6.43129">
        <ele>1345.8</ele>
        <time>2021-09-12T08:38:28Z</time>
      </trkpt>
      <trkpt lat="44.06743" lon="6.43133">
        <ele>1346.4</ele>
        <time>2021-09-12T08:38:32Z</time>
      </trkpt>
      <trkpt lat="44.06745" lon="6.43138">
        <ele>1346.9</ele>
        <time>2021-09-12T08:38:37Z</time>
      </trkpt>
      <trkpt lat="44.06746" lon="6.43142">
        <ele>1347.2</ele>
        <time>2021-09-12T08:38:41Z</time>
      </trkpt>
      <trkpt lat="44.06749" lon="6.43144">
        <ele>1347.6</ele>
        <time>2021-09-12T08:38:48Z</time>
      </trkpt>
      <trkpt lat="44.06753" lon="6.43145">
        <ele>1347.9</ele>
        <time>2021-09-12T08:38:56Z</time>
      </trkpt>
      <trkpt lat="44.06756" lon="6.43145">
        <ele>1348</ele>
        <time>2021-09-12T08:39:02Z</time>
      </trkpt>
      <trkpt lat="44.06758" lon="6.43145">
        <ele>1348.1</ele>
        <time>2021-09-12T08:39:05Z</time>
      </trkpt>
      <trkpt lat="44.06762" lon="6.43146">
        <ele>1348.1</ele>
        <time>2021-09-12T08:39:11Z</time>
      </trkpt>
      <trkpt lat="44.06765" lon="6.43147">
        <ele>1348.1</ele>
        <time>2021-09-12T08:39:13Z</time>
      </trkpt>
      <trkpt lat="44.06766" lon="6.43147">
        <ele>1348</ele>
        <time>2021-09-12T08:39:14Z</time>
      </trkpt>
      <trkpt lat="44.0677" lon="6.43146">
        <ele>1347.9</ele>
        <time>2021-09-12T08:39:16Z</time>
      </trkpt>
      <trkpt lat="44.06771" lon="6.43144">
        <ele>1347.8</ele>
        <time>2021-09-12T08:39:17Z</time>
      </trkpt>
      <trkpt lat="44.06774" lon="6.43141">
        <ele>1347.5</ele>
        <time>2021-09-12T08:39:18Z</time>
      </trkpt>
      <trkpt lat="44.06777" lon="6.43138">
        <ele>1347.2</ele>
        <time>2021-09-12T08:39:19Z</time>
      </trkpt>
      <trkpt lat="44.06783" lon="6.43133">
        <ele>1346.3</ele>
        <time>2021-09-12T08:39:21Z</time>
      </trkpt>
      <trkpt lat="44.06787" lon="6.43131">
        <ele>1345.8</ele>
        <time>2021-09-12T08:39:22Z</time>
      </trkpt>
      <trkpt lat="44.06797" lon="6.43128">
        <ele>1344.4</ele>
        <time>2021-09-12T08:39:23Z</time>
      </trkpt>
      <trkpt lat="44.06801" lon="6.43127">
        <ele>1344</ele>
        <time>2021-09-12T08:39:24Z</time>
      </trkpt>
      <trkpt lat="44.06809" lon="6.43127">
        <ele>1342.8</ele>
        <time>2021-09-12T08:39:25Z</time>
      </trkpt>
      <trkpt lat="44.06823" lon="6.43131">
        <ele>1341.5</ele>
        <time>2021-09-12T08:39:27Z</time>
      </trkpt>
      <trkpt lat="44.06832" lon="6.43137">
        <ele>1340.9</ele>
        <time>2021-09-12T08:39:28Z</time>
      </trkpt>
      <trkpt lat="44.06836" lon="6.4314">
        <ele>1340.5</ele>
        <time>2021-09-12T08:39:29Z</time>
      </trkpt>
      <trkpt lat="44.0684" lon="6.43144">
        <ele>1339.9</ele>
        <time>2021-09-12T08:39:30Z</time>
      </trkpt>
      <trkpt lat="44.06847" lon="6.4315">
        <ele>1338.8</ele>
        <time>2021-09-12T08:39:31Z</time>
      </trkpt>
      <trkpt lat="44.06853" lon="6.43154">
        <ele>1337.9</ele>
        <time>2021-09-12T08:39:32Z</time>
      </trkpt>
      <trkpt lat="44.06859" lon="6.43161">
        <ele>1337</ele>
        <time>2021-09-12T08:39:33Z</time>
      </trkpt>
      <trkpt lat="44.06876" lon="6.43183">
        <ele>1335.4</ele>
        <time>2021-09-12T08:39:36Z</time>
      </trkpt>
      <trkpt lat="44.0688" lon="6.4319">
        <ele>1335</ele>
        <time>2021-09-12T08:39:37Z</time>
      </trkpt>
      <trkpt lat="44.06884" lon="6.43196">
        <ele>1334.6</ele>
        <time>2021-09-12T08:39:38Z</time>
      </trkpt>
      <trkpt lat="44.06887" lon="6.43202">
        <ele>1334.2</ele>
        <time>2021-09-12T08:39:39Z</time>
      </trkpt>
      <trkpt lat="44.06891" lon="6.43212">
        <ele>1333.6</ele>
        <time>2021-09-12T08:39:40Z</time>
      </trkpt>
      <trkpt lat="44.06895" lon="6.43221">
        <ele>1333.2</ele>
        <time>2021-09-12T08:39:41Z</time>
      </trkpt>
      <trkpt lat="44.069" lon="6.43224">
        <ele>1332.9</ele>
        <time>2021-09-12T08:39:42Z</time>
      </trkpt>
      <trkpt lat="44.06905" lon="6.43233">
        <ele>1332.7</ele>
        <time>2021-09-12T08:39:43Z</time>
      </trkpt>
      <trkpt lat="44.06911" lon="6.43238">
        <ele>1332.5</ele>
        <time>2021-09-12T08:39:44Z</time>
      </trkpt>
      <trkpt lat="44.06915" lon="6.43238">
        <ele>1332.3</ele>
        <time>2021-09-12T08:39:45Z</time>
      </trkpt>
      <trkpt lat="44.06918" lon="6.43238">
        <ele>1332.2</ele>
        <time>2021-09-12T08:39:46Z</time>
      </trkpt>
      <trkpt lat="44.06925" lon="6.43236">
        <ele>1331.8</ele>
        <time>2021-09-12T08:39:47Z</time>
      </trkpt>
      <trkpt lat="44.0693" lon="6.43233">
        <ele>1331.6</ele>
        <time>2021-09-12T08:39:48Z</time>
      </trkpt>
      <trkpt lat="44.06936" lon="6.43229">
        <ele>1331.1</ele>
        <time>2021-09-12T08:39:49Z</time>
      </trkpt>
      <trkpt lat="44.06946" lon="6.43223">
        <ele>1330.4</ele>
        <time>2021-09-12T08:39:51Z</time>
      </trkpt>
      <trkpt lat="44.06965" lon="6.43213">
        <ele>1328.9</ele>
        <time>2021-09-12T08:39:54Z</time>
      </trkpt>
      <trkpt lat="44.06974" lon="6.43206">
        <ele>1328</ele>
        <time>2021-09-12T08:39:56Z</time>
      </trkpt>
      <trkpt lat="44.06986" lon="6.43199">
        <ele>1326.6</ele>
        <time>2021-09-12T08:39:58Z</time>
      </trkpt>
      <trkpt lat="44.06989" lon="6.43198">
        <ele>1326.1</ele>
        <time>2021-09-12T08:39:59Z</time>
      </trkpt>
      <trkpt lat="44.06997" lon="6.43197">
        <ele>1325.1</ele>
        <time>2021-09-12T08:40:00Z</time>
      </trkpt>
      <trkpt lat="44.07002" lon="6.43199">
        <ele>1324.4</ele>
        <time>2021-09-12T08:40:01Z</time>
      </trkpt>
      <trkpt lat="44.07008" lon="6.43202">
        <ele>1323.5</ele>
        <time>2021-09-12T08:40:02Z</time>
      </trkpt>
      <trkpt lat="44.07016" lon="6.43201">
        <ele>1322.3</ele>
        <time>2021-09-12T08:40:03Z</time>
      </trkpt>
      <trkpt lat="44.07024" lon="6.43196">
        <ele>1321.2</ele>
        <time>2021-09-12T08:40:04Z</time>
      </trkpt>
      <trkpt lat="44.07028" lon="6.43197">
        <ele>1320.6</ele>
        <time>2021-09-12T08:40:05Z</time>
      </trkpt>
      <trkpt lat="44.07036" lon="6.43199">
        <ele>1319.3</ele>
        <time>2021-09-12T08:40:06Z</time>
      </trkpt>
      <trkpt lat="44.07045" lon="6.432">
        <ele>1317.8</ele>
        <time>2021-09-12T08:40:07Z</time>
      </trkpt>
      <trkpt lat="44.0705" lon="6.43204">
        <ele>1316.8</ele>
        <time>2021-09-12T08:40:08Z</time>
      </trkpt>
      <trkpt lat="44.07058" lon="6.43211">
        <ele>1314.9</ele>
        <time>2021-09-12T08:40:09Z</time>
      </trkpt>
      <trkpt lat="44.07062" lon="6.43213">
        <ele>1314.2</ele>
        <time>2021-09-12T08:40:10Z</time>
      </trkpt>
      <trkpt lat="44.07069" lon="6.43217">
        <ele>1312.9</ele>
        <time>2021-09-12T08:40:11Z</time>
      </trkpt>
      <trkpt lat="44.07082" lon="6.43219">
        <ele>1311</ele>
        <time>2021-09-12T08:40:12Z</time>
      </trkpt>
      <trkpt lat="44.07087" lon="6.43219">
        <ele>1310.3</ele>
        <time>2021-09-12T08:40:13Z</time>
      </trkpt>
      <trkpt lat="44.07095" lon="6.4322">
        <ele>1309.3</ele>
        <time>2021-09-12T08:40:14Z</time>
      </trkpt>
      <trkpt lat="44.07104" lon="6.43219">
        <ele>1308.2</ele>
        <time>2021-09-12T08:40:15Z</time>
      </trkpt>
      <trkpt lat="44.07145" lon="6.43243">
        <ele>1302.9</ele>
        <time>2021-09-12T08:40:21Z</time>
      </trkpt>
      <trkpt lat="44.07148" lon="6.43251">
        <ele>1301.8</ele>
        <time>2021-09-12T08:40:22Z</time>
      </trkpt>
      <trkpt lat="44.07152" lon="6.43258">
        <ele>1300.8</ele>
        <time>2021-09-12T08:40:23Z</time>
      </trkpt>
      <trkpt lat="44.07157" lon="6.43265">
        <ele>1299.7</ele>
        <time>2021-09-12T08:40:24Z</time>
      </trkpt>
      <trkpt lat="44.07161" lon="6.43271">
        <ele>1298.8</ele>
        <time>2021-09-12T08:40:25Z</time>
      </trkpt>
      <trkpt lat="44.07166" lon="6.43282">
        <ele>1297.4</ele>
        <time>2021-09-12T08:40:26Z</time>
      </trkpt>
      <trkpt lat="44.07172" lon="6.43292">
        <ele>1295.7</ele>
        <time>2021-09-12T08:40:27Z</time>
      </trkpt>
      <trkpt lat="44.07181" lon="6.43308">
        <ele>1292.6</ele>
        <time>2021-09-12T08:40:29Z</time>
      </trkpt>
      <trkpt lat="44.07186" lon="6.43314">
        <ele>1291.4</ele>
        <time>2021-09-12T08:40:30Z</time>
      </trkpt>
      <trkpt lat="44.07191" lon="6.43318">
        <ele>1290.3</ele>
        <time>2021-09-12T08:40:31Z</time>
      </trkpt>
      <trkpt lat="44.07202" lon="6.43323">
        <ele>1288.6</ele>
        <time>2021-09-12T08:40:32Z</time>
      </trkpt>
      <trkpt lat="44.07207" lon="6.43326">
        <ele>1287.7</ele>
        <time>2021-09-12T08:40:33Z</time>
      </trkpt>
      <trkpt lat="44.07214" lon="6.43327">
        <ele>1286.7</ele>
        <time>2021-09-12T08:40:34Z</time>
      </trkpt>
      <trkpt lat="44.07224" lon="6.43329">
        <ele>1285.1</ele>
        <time>2021-09-12T08:40:35Z</time>
      </trkpt>
      <trkpt lat="44.07229" lon="6.4333">
        <ele>1284.2</ele>
        <time>2021-09-12T08:40:36Z</time>
      </trkpt>
      <trkpt lat="44.07239" lon="6.4333">
        <ele>1282.7</ele>
        <time>2021-09-12T08:40:37Z</time>
      </trkpt>
      <trkpt lat="44.07246" lon="6.43331">
        <ele>1281.6</ele>
        <time>2021-09-12T08:40:38Z</time>
      </trkpt>
      <trkpt lat="44.07251" lon="6.43333">
        <ele>1280.8</ele>
        <time>2021-09-12T08:40:39Z</time>
      </trkpt>
      <trkpt lat="44.07258" lon="6.43335">
        <ele>1279.5</ele>
        <time>2021-09-12T08:40:40Z</time>
      </trkpt>
      <trkpt lat="44.07264" lon="6.43334">
        <ele>1278.5</ele>
        <time>2021-09-12T08:40:41Z</time>
      </trkpt>
      <trkpt lat="44.07272" lon="6.43334">
        <ele>1277.4</ele>
        <time>2021-09-12T08:40:42Z</time>
      </trkpt>
      <trkpt lat="44.07281" lon="6.43329">
        <ele>1276.3</ele>
        <time>2021-09-12T08:40:43Z</time>
      </trkpt>
      <trkpt lat="44.07294" lon="6.43318">
        <ele>1275.3</ele>
        <time>2021-09-12T08:40:45Z</time>
      </trkpt>
      <trkpt lat="44.073" lon="6.43314">
        <ele>1275.1</ele>
        <time>2021-09-12T08:40:46Z</time>
      </trkpt>
      <trkpt lat="44.07311" lon="6.43311">
        <ele>1274.9</ele>
        <time>2021-09-12T08:40:47Z</time>
      </trkpt>
      <trkpt lat="44.07315" lon="6.43308">
        <ele>1274.7</ele>
        <time>2021-09-12T08:40:48Z</time>
      </trkpt>
      <trkpt lat="44.07324" lon="6.43305">
        <ele>1274.3</ele>
        <time>2021-09-12T08:40:49Z</time>
      </trkpt>
      <trkpt lat="44.07328" lon="6.43302">
        <ele>1274</ele>
        <time>2021-09-12T08:40:50Z</time>
      </trkpt>
      <trkpt lat="44.07335" lon="6.43298">
        <ele>1273.5</ele>
        <time>2021-09-12T08:40:51Z</time>
      </trkpt>
      <trkpt lat="44.07341" lon="6.43296">
        <ele>1273.2</ele>
        <time>2021-09-12T08:40:52Z</time>
      </trkpt>
      <trkpt lat="44.07345" lon="6.43294">
        <ele>1272.9</ele>
        <time>2021-09-12T08:40:53Z</time>
      </trkpt>
      <trkpt lat="44.07351" lon="6.43288">
        <ele>1272.6</ele>
        <time>2021-09-12T08:40:54Z</time>
      </trkpt>
      <trkpt lat="44.07355" lon="6.43282">
        <ele>1272.5</ele>
        <time>2021-09-12T08:40:55Z</time>
      </trkpt>
      <trkpt lat="44.0736" lon="6.43277">
        <ele>1272.5</ele>
        <time>2021-09-12T08:40:56Z</time>
      </trkpt>
      <trkpt lat="44.07367" lon="6.4327">
        <ele>1272.5</ele>
        <time>2021-09-12T08:40:57Z</time>
      </trkpt>
      <trkpt lat="44.07369" lon="6.43266">
        <ele>1272.6</ele>
        <time>2021-09-12T08:40:58Z</time>
      </trkpt>
      <trkpt lat="44.07372" lon="6.43262">
        <ele>1272.7</ele>
        <time>2021-09-12T08:40:59Z</time>
      </trkpt>
      <trkpt lat="44.07376" lon="6.43257">
        <ele>1272.8</ele>
        <time>2021-09-12T08:41:00Z</time>
      </trkpt>
      <trkpt lat="44.07378" lon="6.43251">
        <ele>1272.9</ele>
        <time>2021-09-12T08:41:01Z</time>
      </trkpt>
      <trkpt lat="44.07379" lon="6.43244">
        <ele>1273.1</ele>
        <time>2021-09-12T08:41:02Z</time>
      </trkpt>
      <trkpt lat="44.07381" lon="6.43237">
        <ele>1273.2</ele>
        <time>2021-09-12T08:41:03Z</time>
      </trkpt>
      <trkpt lat="44.07383" lon="6.43231">
        <ele>1273.3</ele>
        <time>2021-09-12T08:41:05Z</time>
      </trkpt>
      <trkpt lat="44.07387" lon="6.43224">
        <ele>1273.4</ele>
        <time>2021-09-12T08:41:06Z</time>
      </trkpt>
      <trkpt lat="44.07392" lon="6.43221">
        <ele>1273.4</ele>
        <time>2021-09-12T08:41:08Z</time>
      </trkpt>
      <trkpt lat="44.07397" lon="6.43218">
        <ele>1273.3</ele>
        <time>2021-09-12T08:41:10Z</time>
      </trkpt>
      <trkpt lat="44.07402" lon="6.43216">
        <ele>1273</ele>
        <time>2021-09-12T08:41:12Z</time>
      </trkpt>
      <trkpt lat="44.07408" lon="6.43214">
        <ele>1273.2</ele>
        <time>2021-09-12T08:41:13Z</time>
      </trkpt>
      <trkpt lat="44.07412" lon="6.43215">
        <ele>1272.9</ele>
        <time>2021-09-12T08:41:15Z</time>
      </trkpt>
      <trkpt lat="44.07417" lon="6.43218">
        <ele>1272.8</ele>
        <time>2021-09-12T08:41:16Z</time>
      </trkpt>
      <trkpt lat="44.0742" lon="6.4322">
        <ele>1272.5</ele>
        <time>2021-09-12T08:41:17Z</time>
      </trkpt>
      <trkpt lat="44.07419" lon="6.43226">
        <ele>1272.1</ele>
        <time>2021-09-12T08:41:18Z</time>
      </trkpt>
      <trkpt lat="44.07418" lon="6.43231">
        <ele>1271.7</ele>
        <time>2021-09-12T08:41:19Z</time>
      </trkpt>
      <trkpt lat="44.07416" lon="6.4324">
        <ele>1271.1</ele>
        <time>2021-09-12T08:41:20Z</time>
      </trkpt>
      <trkpt lat="44.07415" lon="6.43246">
        <ele>1270.7</ele>
        <time>2021-09-12T08:41:21Z</time>
      </trkpt>
      <trkpt lat="44.07412" lon="6.43254">
        <ele>1270.3</ele>
        <time>2021-09-12T08:41:22Z</time>
      </trkpt>
      <trkpt lat="44.07412" lon="6.43264">
        <ele>1270.1</ele>
        <time>2021-09-12T08:41:23Z</time>
      </trkpt>
      <trkpt lat="44.07416" lon="6.43272">
        <ele>1270.3</ele>
        <time>2021-09-12T08:41:24Z</time>
      </trkpt>
      <trkpt lat="44.07416" lon="6.43278">
        <ele>1270.7</ele>
        <time>2021-09-12T08:41:25Z</time>
      </trkpt>
      <trkpt lat="44.07417" lon="6.43282">
        <ele>1271</ele>
        <time>2021-09-12T08:41:26Z</time>
      </trkpt>
      <trkpt lat="44.07417" lon="6.43286">
        <ele>1271.3</ele>
        <time>2021-09-12T08:41:28Z</time>
      </trkpt>
      <trkpt lat="44.07417" lon="6.4329">
        <ele>1271.5</ele>
        <time>2021-09-12T08:41:29Z</time>
      </trkpt>
      <trkpt lat="44.07417" lon="6.43294">
        <ele>1271.7</ele>
        <time>2021-09-12T08:41:31Z</time>
      </trkpt>
      <trkpt lat="44.07418" lon="6.433">
        <ele>1272</ele>
        <time>2021-09-12T08:41:34Z</time>
      </trkpt>
      <trkpt lat="44.07419" lon="6.43304">
        <ele>1272.2</ele>
        <time>2021-09-12T08:41:36Z</time>
      </trkpt>
      <trkpt lat="44.07419" lon="6.43307">
        <ele>1272.3</ele>
        <time>2021-09-12T08:41:38Z</time>
      </trkpt>
      <trkpt lat="44.07419" lon="6.43313">
        <ele>1272.5</ele>
        <time>2021-09-12T08:41:41Z</time>
      </trkpt>
      <trkpt lat="44.07419" lon="6.43317">
        <ele>1272.7</ele>
        <time>2021-09-12T08:41:44Z</time>
      </trkpt>
      <trkpt lat="44.07419" lon="6.4332">
        <ele>1272.8</ele>
        <time>2021-09-12T08:41:45Z</time>
      </trkpt>
      <trkpt lat="44.07419" lon="6.43322">
        <ele>1272.9</ele>
        <time>2021-09-12T08:41:46Z</time>
      </trkpt>
      <trkpt lat="44.0742" lon="6.43328">
        <ele>1273.1</ele>
        <time>2021-09-12T08:41:48Z</time>
      </trkpt>
      <trkpt lat="44.0742" lon="6.43333">
        <ele>1273.3</ele>
        <time>2021-09-12T08:41:50Z</time>
      </trkpt>
      <trkpt lat="44.07421" lon="6.43334">
        <ele>1273.3</ele>
        <time>2021-09-12T08:41:51Z</time>
      </trkpt>
      <trkpt lat="44.07421" lon="6.43337">
        <ele>1273.4</ele>
        <time>2021-09-12T08:41:52Z</time>
      </trkpt>
      <trkpt lat="44.07422" lon="6.43341">
        <ele>1273.6</ele>
        <time>2021-09-12T08:41:53Z</time>
      </trkpt>
      <trkpt lat="44.07424" lon="6.43347">
        <ele>1273.8</ele>
        <time>2021-09-12T08:41:55Z</time>
      </trkpt>
      <trkpt lat="44.07424" lon="6.43349">
        <ele>1273.9</ele>
        <time>2021-09-12T08:41:56Z</time>
      </trkpt>
      <trkpt lat="44.07426" lon="6.43356">
        <ele>1274.2</ele>
        <time>2021-09-12T08:41:58Z</time>
      </trkpt>
      <trkpt lat="44.07427" lon="6.4336">
        <ele>1274.3</ele>
        <time>2021-09-12T08:41:59Z</time>
      </trkpt>
      <trkpt lat="44.07428" lon="6.43366">
        <ele>1274.6</ele>
        <time>2021-09-12T08:42:01Z</time>
      </trkpt>
      <trkpt lat="44.0743" lon="6.43371">
        <ele>1274.8</ele>
        <time>2021-09-12T08:42:03Z</time>
      </trkpt>
      <trkpt lat="44.07431" lon="6.43373">
        <ele>1275</ele>
        <time>2021-09-12T08:42:04Z</time>
      </trkpt>
      <trkpt lat="44.07432" lon="6.43376">
        <ele>1275.1</ele>
        <time>2021-09-12T08:42:05Z</time>
      </trkpt>
      <trkpt lat="44.07434" lon="6.43379">
        <ele>1275.3</ele>
        <time>2021-09-12T08:42:06Z</time>
      </trkpt>
      <trkpt lat="44.07436" lon="6.43382">
        <ele>1275.5</ele>
        <time>2021-09-12T08:42:07Z</time>
      </trkpt>
      <trkpt lat="44.07438" lon="6.43384">
        <ele>1275.6</ele>
        <time>2021-09-12T08:42:08Z</time>
      </trkpt>
      <trkpt lat="44.07441" lon="6.43387">
        <ele>1275.8</ele>
        <time>2021-09-12T08:42:10Z</time>
      </trkpt>
      <trkpt lat="44.07443" lon="6.43389">
        <ele>1276</ele>
        <time>2021-09-12T08:42:11Z</time>
      </trkpt>
      <trkpt lat="44.07446" lon="6.43393">
        <ele>1276.3</ele>
        <time>2021-09-12T08:42:13Z</time>
      </trkpt>
      <trkpt lat="44.07448" lon="6.43397">
        <ele>1276.5</ele>
        <time>2021-09-12T08:42:14Z</time>
      </trkpt>
      <trkpt lat="44.07451" lon="6.43399">
        <ele>1276.8</ele>
        <time>2021-09-12T08:42:16Z</time>
      </trkpt>
      <trkpt lat="44.07452" lon="6.43401">
        <ele>1276.9</ele>
        <time>2021-09-12T08:42:17Z</time>
      </trkpt>
      <trkpt lat="44.07456" lon="6.43405">
        <ele>1277.3</ele>
        <time>2021-09-12T08:42:19Z</time>
      </trkpt>
      <trkpt lat="44.07459" lon="6.43407">
        <ele>1277.5</ele>
        <time>2021-09-12T08:42:21Z</time>
      </trkpt>
      <trkpt lat="44.07461" lon="6.43409">
        <ele>1277.8</ele>
        <time>2021-09-12T08:42:22Z</time>
      </trkpt>
      <trkpt lat="44.07464" lon="6.43411">
        <ele>1278</ele>
        <time>2021-09-12T08:42:24Z</time>
      </trkpt>
      <trkpt lat="44.07468" lon="6.43413">
        <ele>1278.3</ele>
        <time>2021-09-12T08:42:26Z</time>
      </trkpt>
      <trkpt lat="44.07471" lon="6.43416">
        <ele>1278.6</ele>
        <time>2021-09-12T08:42:28Z</time>
      </trkpt>
      <trkpt lat="44.07472" lon="6.43418">
        <ele>1278.8</ele>
        <time>2021-09-12T08:42:30Z</time>
      </trkpt>
      <trkpt lat="44.07474" lon="6.43419">
        <ele>1279</ele>
        <time>2021-09-12T08:42:31Z</time>
      </trkpt>
      <trkpt lat="44.07476" lon="6.4342">
        <ele>1279.1</ele>
        <time>2021-09-12T08:42:32Z</time>
      </trkpt>
      <trkpt lat="44.07477" lon="6.43423">
        <ele>1279.3</ele>
        <time>2021-09-12T08:42:33Z</time>
      </trkpt>
      <trkpt lat="44.07478" lon="6.43424">
        <ele>1279.4</ele>
        <time>2021-09-12T08:42:34Z</time>
      </trkpt>
      <trkpt lat="44.07479" lon="6.43427">
        <ele>1279.6</ele>
        <time>2021-09-12T08:42:36Z</time>
      </trkpt>
      <trkpt lat="44.0748" lon="6.43429">
        <ele>1279.7</ele>
        <time>2021-09-12T08:42:37Z</time>
      </trkpt>
      <trkpt lat="44.07481" lon="6.43433">
        <ele>1279.9</ele>
        <time>2021-09-12T08:42:39Z</time>
      </trkpt>
      <trkpt lat="44.07481" lon="6.43435">
        <ele>1280.1</ele>
        <time>2021-09-12T08:42:40Z</time>
      </trkpt>
      <trkpt lat="44.07482" lon="6.43439">
        <ele>1280.3</ele>
        <time>2021-09-12T08:42:41Z</time>
      </trkpt>
      <trkpt lat="44.07482" lon="6.43442">
        <ele>1280.5</ele>
        <time>2021-09-12T08:42:43Z</time>
      </trkpt>
      <trkpt lat="44.07483" lon="6.43448">
        <ele>1280.9</ele>
        <time>2021-09-12T08:42:46Z</time>
      </trkpt>
      <trkpt lat="44.07483" lon="6.43449">
        <ele>1281</ele>
        <time>2021-09-12T08:42:47Z</time>
      </trkpt>
      <trkpt lat="44.07483" lon="6.43451">
        <ele>1281.1</ele>
        <time>2021-09-12T08:42:48Z</time>
      </trkpt>
      <trkpt lat="44.07484" lon="6.43454">
        <ele>1281.3</ele>
        <time>2021-09-12T08:42:49Z</time>
      </trkpt>
      <trkpt lat="44.07485" lon="6.43455">
        <ele>1281.4</ele>
        <time>2021-09-12T08:42:50Z</time>
      </trkpt>
      <trkpt lat="44.07486" lon="6.43457">
        <ele>1281.5</ele>
        <time>2021-09-12T08:42:52Z</time>
      </trkpt>
      <trkpt lat="44.07488" lon="6.4346">
        <ele>1281.8</ele>
        <time>2021-09-12T08:42:53Z</time>
      </trkpt>
      <trkpt lat="44.07489" lon="6.43462">
        <ele>1281.9</ele>
        <time>2021-09-12T08:42:55Z</time>
      </trkpt>
      <trkpt lat="44.07491" lon="6.43466">
        <ele>1282.2</ele>
        <time>2021-09-12T08:42:57Z</time>
      </trkpt>
      <trkpt lat="44.07491" lon="6.43467">
        <ele>1282.4</ele>
        <time>2021-09-12T08:42:58Z</time>
      </trkpt>
      <trkpt lat="44.07492" lon="6.4347">
        <ele>1282.6</ele>
        <time>2021-09-12T08:43:00Z</time>
      </trkpt>
      <trkpt lat="44.07492" lon="6.43474">
        <ele>1282.8</ele>
        <time>2021-09-12T08:43:02Z</time>
      </trkpt>
      <trkpt lat="44.07492" lon="6.43479">
        <ele>1283.1</ele>
        <time>2021-09-12T08:43:05Z</time>
      </trkpt>
      <trkpt lat="44.07491" lon="6.43481">
        <ele>1283.3</ele>
        <time>2021-09-12T08:43:06Z</time>
      </trkpt>
      <trkpt lat="44.07492" lon="6.43484">
        <ele>1283.5</ele>
        <time>2021-09-12T08:43:08Z</time>
      </trkpt>
      <trkpt lat="44.07493" lon="6.43486">
        <ele>1283.7</ele>
        <time>2021-09-12T08:43:09Z</time>
      </trkpt>
      <trkpt lat="44.07495" lon="6.43491">
        <ele>1284.1</ele>
        <time>2021-09-12T08:43:13Z</time>
      </trkpt>
      <trkpt lat="44.07496" lon="6.43493">
        <ele>1284.3</ele>
        <time>2021-09-12T08:43:15Z</time>
      </trkpt>
      <trkpt lat="44.07496" lon="6.43495">
        <ele>1284.4</ele>
        <time>2021-09-12T08:43:17Z</time>
      </trkpt>
      <trkpt lat="44.07499" lon="6.43499">
        <ele>1284.9</ele>
        <time>2021-09-12T08:43:22Z</time>
      </trkpt>
      <trkpt lat="44.07501" lon="6.43501">
        <ele>1285.1</ele>
        <time>2021-09-12T08:43:23Z</time>
      </trkpt>
      <trkpt lat="44.07502" lon="6.43503">
        <ele>1285.3</ele>
        <time>2021-09-12T08:43:25Z</time>
      </trkpt>
      <trkpt lat="44.07503" lon="6.43504">
        <ele>1285.5</ele>
        <time>2021-09-12T08:43:27Z</time>
      </trkpt>
      <trkpt lat="44.07506" lon="6.43506">
        <ele>1285.8</ele>
        <time>2021-09-12T08:43:32Z</time>
      </trkpt>
      <trkpt lat="44.07507" lon="6.43506">
        <ele>1285.9</ele>
        <time>2021-09-12T08:43:33Z</time>
      </trkpt>
      <trkpt lat="44.0751" lon="6.43508">
        <ele>1286.3</ele>
        <time>2021-09-12T08:43:38Z</time>
      </trkpt>
      <trkpt lat="44.07513" lon="6.43509">
        <ele>1286.7</ele>
        <time>2021-09-12T08:43:44Z</time>
      </trkpt>
      <trkpt lat="44.07515" lon="6.43509">
        <ele>1286.9</ele>
        <time>2021-09-12T08:43:46Z</time>
      </trkpt>
      <trkpt lat="44.07518" lon="6.43511">
        <ele>1287.2</ele>
        <time>2021-09-12T08:43:52Z</time>
      </trkpt>
      <trkpt lat="44.07519" lon="6.43511">
        <ele>1287.3</ele>
        <time>2021-09-12T08:43:54Z</time>
      </trkpt>
      <trkpt lat="44.07522" lon="6.43514">
        <ele>1287.7</ele>
        <time>2021-09-12T08:44:01Z</time>
      </trkpt>
      <trkpt lat="44.07523" lon="6.43515">
        <ele>1287.8</ele>
        <time>2021-09-12T08:44:03Z</time>
      </trkpt>
      <trkpt lat="44.07525" lon="6.43516">
        <ele>1288.1</ele>
        <time>2021-09-12T08:44:07Z</time>
      </trkpt>
      <trkpt lat="44.07527" lon="6.43516">
        <ele>1288.3</ele>
        <time>2021-09-12T08:44:11Z</time>
      </trkpt>
      <trkpt lat="44.0753" lon="6.43519">
        <ele>1288.7</ele>
        <time>2021-09-12T08:44:17Z</time>
      </trkpt>
      <trkpt lat="44.07531" lon="6.4352">
        <ele>1288.8</ele>
        <time>2021-09-12T08:44:19Z</time>
      </trkpt>
      <trkpt lat="44.07533" lon="6.4352">
        <ele>1288.9</ele>
        <time>2021-09-12T08:44:21Z</time>
      </trkpt>
      <trkpt lat="44.07534" lon="6.4352">
        <ele>1289.1</ele>
        <time>2021-09-12T08:44:23Z</time>
      </trkpt>
      <trkpt lat="44.07535" lon="6.43521">
        <ele>1289.2</ele>
        <time>2021-09-12T08:44:24Z</time>
      </trkpt>
      <trkpt lat="44.07536" lon="6.43522">
        <ele>1289.4</ele>
        <time>2021-09-12T08:44:26Z</time>
      </trkpt>
      <trkpt lat="44.07537" lon="6.43523">
        <ele>1289.5</ele>
        <time>2021-09-12T08:44:28Z</time>
      </trkpt>
      <trkpt lat="44.0754" lon="6.43525">
        <ele>1289.8</ele>
        <time>2021-09-12T08:44:31Z</time>
      </trkpt>
      <trkpt lat="44.07542" lon="6.43527">
        <ele>1290.1</ele>
        <time>2021-09-12T08:44:34Z</time>
      </trkpt>
      <trkpt lat="44.07545" lon="6.43529">
        <ele>1290.4</ele>
        <time>2021-09-12T08:44:38Z</time>
      </trkpt>
      <trkpt lat="44.07547" lon="6.43534">
        <ele>1290.8</ele>
        <time>2021-09-12T08:44:42Z</time>
      </trkpt>
      <trkpt lat="44.07548" lon="6.43535">
        <ele>1290.9</ele>
        <time>2021-09-12T08:44:44Z</time>
      </trkpt>
      <trkpt lat="44.07549" lon="6.43536">
        <ele>1291</ele>
        <time>2021-09-12T08:44:45Z</time>
      </trkpt>
      <trkpt lat="44.0755" lon="6.43538">
        <ele>1291.2</ele>
        <time>2021-09-12T08:44:47Z</time>
      </trkpt>
      <trkpt lat="44.07553" lon="6.43542">
        <ele>1291.5</ele>
        <time>2021-09-12T08:44:51Z</time>
      </trkpt>
      <trkpt lat="44.07555" lon="6.43546">
        <ele>1291.9</ele>
        <time>2021-09-12T08:44:55Z</time>
      </trkpt>
      <trkpt lat="44.07556" lon="6.43548">
        <ele>1292</ele>
        <time>2021-09-12T08:44:56Z</time>
      </trkpt>
      <trkpt lat="44.07558" lon="6.43551">
        <ele>1292.3</ele>
        <time>2021-09-12T08:45:00Z</time>
      </trkpt>
      <trkpt lat="44.07558" lon="6.43552">
        <ele>1292.4</ele>
        <time>2021-09-12T08:45:01Z</time>
      </trkpt>
      <trkpt lat="44.07559" lon="6.43555">
        <ele>1292.7</ele>
        <time>2021-09-12T08:45:03Z</time>
      </trkpt>
      <trkpt lat="44.0756" lon="6.43557">
        <ele>1292.9</ele>
        <time>2021-09-12T08:45:04Z</time>
      </trkpt>
      <trkpt lat="44.0756" lon="6.43559">
        <ele>1293</ele>
        <time>2021-09-12T08:45:06Z</time>
      </trkpt>
      <trkpt lat="44.0756" lon="6.43562">
        <ele>1293.2</ele>
        <time>2021-09-12T08:45:08Z</time>
      </trkpt>
      <trkpt lat="44.07561" lon="6.43562">
        <ele>1293.4</ele>
        <time>2021-09-12T08:45:09Z</time>
      </trkpt>
      <trkpt lat="44.07562" lon="6.43561">
        <ele>1293.5</ele>
        <time>2021-09-12T08:45:10Z</time>
      </trkpt>
      <trkpt lat="44.07563" lon="6.43561">
        <ele>1293.7</ele>
        <time>2021-09-12T08:45:12Z</time>
      </trkpt>
      <trkpt lat="44.07564" lon="6.43562">
        <ele>1293.8</ele>
        <time>2021-09-12T08:45:13Z</time>
      </trkpt>
      <trkpt lat="44.07565" lon="6.43561">
        <ele>1293.9</ele>
        <time>2021-09-12T08:45:15Z</time>
      </trkpt>
      <trkpt lat="44.07566" lon="6.43561">
        <ele>1294</ele>
        <time>2021-09-12T08:45:16Z</time>
      </trkpt>
      <trkpt lat="44.07566" lon="6.43559">
        <ele>1294.1</ele>
        <time>2021-09-12T08:45:17Z</time>
      </trkpt>
      <trkpt lat="44.07566" lon="6.43559">
        <ele>1294.1</ele>
        <time>2021-09-12T08:45:18Z</time>
      </trkpt>
      <trkpt lat="44.07566" lon="6.43557">
        <ele>1294.3</ele>
        <time>2021-09-12T08:45:19Z</time>
      </trkpt>
      <trkpt lat="44.07567" lon="6.43555">
        <ele>1294.5</ele>
        <time>2021-09-12T08:45:22Z</time>
      </trkpt>
      <trkpt lat="44.07567" lon="6.43554">
        <ele>1294.6</ele>
        <time>2021-09-12T08:45:24Z</time>
      </trkpt>
      <trkpt lat="44.07568" lon="6.43551">
        <ele>1294.8</ele>
        <time>2021-09-12T08:45:26Z</time>
      </trkpt>
      <trkpt lat="44.0757" lon="6.43547">
        <ele>1295.3</ele>
        <time>2021-09-12T08:45:31Z</time>
      </trkpt>
      <trkpt lat="44.0757" lon="6.43545">
        <ele>1295.5</ele>
        <time>2021-09-12T08:45:33Z</time>
      </trkpt>
      <trkpt lat="44.07572" lon="6.43539">
        <ele>1296</ele>
        <time>2021-09-12T08:45:40Z</time>
      </trkpt>
      <trkpt lat="44.07572" lon="6.43531">
        <ele>1296.7</ele>
        <time>2021-09-12T08:45:48Z</time>
      </trkpt>
      <trkpt lat="44.07573" lon="6.43525">
        <ele>1297.2</ele>
        <time>2021-09-12T08:45:54Z</time>
      </trkpt>
      <trkpt lat="44.07574" lon="6.43521">
        <ele>1297.5</ele>
        <time>2021-09-12T08:45:59Z</time>
      </trkpt>
      <trkpt lat="44.07576" lon="6.43516">
        <ele>1297.8</ele>
        <time>2021-09-12T08:46:05Z</time>
      </trkpt>
      <trkpt lat="44.07577" lon="6.43515">
        <ele>1298</ele>
        <time>2021-09-12T08:46:07Z</time>
      </trkpt>
      <trkpt lat="44.07578" lon="6.43512">
        <ele>1298.2</ele>
        <time>2021-09-12T08:46:12Z</time>
      </trkpt>
      <trkpt lat="44.07579" lon="6.43508">
        <ele>1298.4</ele>
        <time>2021-09-12T08:46:17Z</time>
      </trkpt>
      <trkpt lat="44.0758" lon="6.43505">
        <ele>1298.6</ele>
        <time>2021-09-12T08:46:21Z</time>
      </trkpt>
      <trkpt lat="44.07581" lon="6.43504">
        <ele>1298.7</ele>
        <time>2021-09-12T08:46:22Z</time>
      </trkpt>
      <trkpt lat="44.07582" lon="6.43499">
        <ele>1298.9</ele>
        <time>2021-09-12T08:46:26Z</time>
      </trkpt>
      <trkpt lat="44.07582" lon="6.43497">
        <ele>1299</ele>
        <time>2021-09-12T08:46:28Z</time>
      </trkpt>
      <trkpt lat="44.07582" lon="6.43494">
        <ele>1299.2</ele>
        <time>2021-09-12T08:46:30Z</time>
      </trkpt>
      <trkpt lat="44.07582" lon="6.43492">
        <ele>1299.3</ele>
        <time>2021-09-12T08:46:31Z</time>
      </trkpt>
      <trkpt lat="44.07581" lon="6.43488">
        <ele>1299.6</ele>
        <time>2021-09-12T08:46:34Z</time>
      </trkpt>
      <trkpt lat="44.07582" lon="6.43485">
        <ele>1299.7</ele>
        <time>2021-09-12T08:46:35Z</time>
      </trkpt>
      <trkpt lat="44.07581" lon="6.43483">
        <ele>1299.9</ele>
        <time>2021-09-12T08:46:37Z</time>
      </trkpt>
      <trkpt lat="44.07581" lon="6.4348">
        <ele>1300</ele>
        <time>2021-09-12T08:46:38Z</time>
      </trkpt>
      <trkpt lat="44.07581" lon="6.43478">
        <ele>1300.2</ele>
        <time>2021-09-12T08:46:39Z</time>
      </trkpt>
      <trkpt lat="44.0758" lon="6.43475">
        <ele>1300.3</ele>
        <time>2021-09-12T08:46:40Z</time>
      </trkpt>
      <trkpt lat="44.07579" lon="6.43472">
        <ele>1300.5</ele>
        <time>2021-09-12T08:46:42Z</time>
      </trkpt>
      <trkpt lat="44.07577" lon="6.43468">
        <ele>1300.8</ele>
        <time>2021-09-12T08:46:44Z</time>
      </trkpt>
      <trkpt lat="44.07576" lon="6.43466">
        <ele>1300.9</ele>
        <time>2021-09-12T08:46:45Z</time>
      </trkpt>
      <trkpt lat="44.07572" lon="6.43461">
        <ele>1301.2</ele>
        <time>2021-09-12T08:46:49Z</time>
      </trkpt>
      <trkpt lat="44.07571" lon="6.43458">
        <ele>1301.4</ele>
        <time>2021-09-12T08:46:50Z</time>
      </trkpt>
      <trkpt lat="44.07569" lon="6.43456">
        <ele>1301.5</ele>
        <time>2021-09-12T08:46:51Z</time>
      </trkpt>
      <trkpt lat="44.07567" lon="6.4345">
        <ele>1301.8</ele>
        <time>2021-09-12T08:46:54Z</time>
      </trkpt>
      <trkpt lat="44.07566" lon="6.43446">
        <ele>1302</ele>
        <time>2021-09-12T08:46:55Z</time>
      </trkpt>
      <trkpt lat="44.07564" lon="6.43441">
        <ele>1302.3</ele>
        <time>2021-09-12T08:46:57Z</time>
      </trkpt>
      <trkpt lat="44.07564" lon="6.43437">
        <ele>1302.6</ele>
        <time>2021-09-12T08:46:59Z</time>
      </trkpt>
      <trkpt lat="44.07563" lon="6.43431">
        <ele>1302.9</ele>
        <time>2021-09-12T08:47:01Z</time>
      </trkpt>
      <trkpt lat="44.07563" lon="6.43426">
        <ele>1303.2</ele>
        <time>2021-09-12T08:47:03Z</time>
      </trkpt>
      <trkpt lat="44.07563" lon="6.43425">
        <ele>1303.3</ele>
        <time>2021-09-12T08:47:04Z</time>
      </trkpt>
      <trkpt lat="44.07562" lon="6.43421">
        <ele>1303.6</ele>
        <time>2021-09-12T08:47:05Z</time>
      </trkpt>
      <trkpt lat="44.07562" lon="6.4342">
        <ele>1303.7</ele>
        <time>2021-09-12T08:47:06Z</time>
      </trkpt>
      <trkpt lat="44.07562" lon="6.43417">
        <ele>1303.9</ele>
        <time>2021-09-12T08:47:08Z</time>
      </trkpt>
      <trkpt lat="44.07562" lon="6.43414">
        <ele>1304.1</ele>
        <time>2021-09-12T08:47:09Z</time>
      </trkpt>
      <trkpt lat="44.07562" lon="6.43409">
        <ele>1304.5</ele>
        <time>2021-09-12T08:47:13Z</time>
      </trkpt>
      <trkpt lat="44.07562" lon="6.43407">
        <ele>1304.6</ele>
        <time>2021-09-12T08:47:14Z</time>
      </trkpt>
      <trkpt lat="44.07562" lon="6.43404">
        <ele>1304.8</ele>
        <time>2021-09-12T08:47:16Z</time>
      </trkpt>
      <trkpt lat="44.07562" lon="6.43401">
        <ele>1305.1</ele>
        <time>2021-09-12T08:47:19Z</time>
      </trkpt>
      <trkpt lat="44.07563" lon="6.43396">
        <ele>1305.4</ele>
        <time>2021-09-12T08:47:23Z</time>
      </trkpt>
      <trkpt lat="44.07563" lon="6.43394">
        <ele>1305.5</ele>
        <time>2021-09-12T08:47:24Z</time>
      </trkpt>
      <trkpt lat="44.07564" lon="6.43392">
        <ele>1305.7</ele>
        <time>2021-09-12T08:47:26Z</time>
      </trkpt>
      <trkpt lat="44.07565" lon="6.43388">
        <ele>1306</ele>
        <time>2021-09-12T08:47:29Z</time>
      </trkpt>
      <trkpt lat="44.07566" lon="6.43385">
        <ele>1306.2</ele>
        <time>2021-09-12T08:47:32Z</time>
      </trkpt>
      <trkpt lat="44.07568" lon="6.4338">
        <ele>1306.5</ele>
        <time>2021-09-12T08:47:36Z</time>
      </trkpt>
      <trkpt lat="44.07568" lon="6.43379">
        <ele>1306.6</ele>
        <time>2021-09-12T08:47:37Z</time>
      </trkpt>
      <trkpt lat="44.07569" lon="6.43375">
        <ele>1306.8</ele>
        <time>2021-09-12T08:47:40Z</time>
      </trkpt>
      <trkpt lat="44.0757" lon="6.43371">
        <ele>1307.1</ele>
        <time>2021-09-12T08:47:42Z</time>
      </trkpt>
      <trkpt lat="44.07571" lon="6.43366">
        <ele>1307.3</ele>
        <time>2021-09-12T08:47:45Z</time>
      </trkpt>
      <trkpt lat="44.07573" lon="6.43362">
        <ele>1307.7</ele>
        <time>2021-09-12T08:47:49Z</time>
      </trkpt>
      <trkpt lat="44.07575" lon="6.43358">
        <ele>1307.9</ele>
        <time>2021-09-12T08:47:51Z</time>
      </trkpt>
      <trkpt lat="44.07575" lon="6.43357">
        <ele>1308</ele>
        <time>2021-09-12T08:47:52Z</time>
      </trkpt>
      <trkpt lat="44.07577" lon="6.43354">
        <ele>1308.3</ele>
        <time>2021-09-12T08:47:54Z</time>
      </trkpt>
      <trkpt lat="44.0758" lon="6.43353">
        <ele>1308.5</ele>
        <time>2021-09-12T08:47:56Z</time>
      </trkpt>
      <trkpt lat="44.07584" lon="6.43351">
        <ele>1308.9</ele>
        <time>2021-09-12T08:48:00Z</time>
      </trkpt>
      <trkpt lat="44.07588" lon="6.43351">
        <ele>1309.3</ele>
        <time>2021-09-12T08:48:03Z</time>
      </trkpt>
      <trkpt lat="44.07591" lon="6.4335">
        <ele>1309.6</ele>
        <time>2021-09-12T08:48:05Z</time>
      </trkpt>
      <trkpt lat="44.07592" lon="6.4335">
        <ele>1309.6</ele>
        <time>2021-09-12T08:48:06Z</time>
      </trkpt>
      <trkpt lat="44.07595" lon="6.43349">
        <ele>1309.9</ele>
        <time>2021-09-12T08:48:08Z</time>
      </trkpt>
      <trkpt lat="44.07597" lon="6.43349">
        <ele>1310.2</ele>
        <time>2021-09-12T08:48:11Z</time>
      </trkpt>
      <trkpt lat="44.07599" lon="6.43349">
        <ele>1310.4</ele>
        <time>2021-09-12T08:48:13Z</time>
      </trkpt>
      <trkpt lat="44.07603" lon="6.43351">
        <ele>1310.7</ele>
        <time>2021-09-12T08:48:16Z</time>
      </trkpt>
      <trkpt lat="44.07605" lon="6.43351">
        <ele>1310.9</ele>
        <time>2021-09-12T08:48:18Z</time>
      </trkpt>
      <trkpt lat="44.07609" lon="6.43349">
        <ele>1311.4</ele>
        <time>2021-09-12T08:48:23Z</time>
      </trkpt>
      <trkpt lat="44.07612" lon="6.43349">
        <ele>1311.6</ele>
        <time>2021-09-12T08:48:25Z</time>
      </trkpt>
      <trkpt lat="44.07615" lon="6.4335">
        <ele>1311.9</ele>
        <time>2021-09-12T08:48:29Z</time>
      </trkpt>
      <trkpt lat="44.07616" lon="6.43348">
        <ele>1312.1</ele>
        <time>2021-09-12T08:48:31Z</time>
      </trkpt>
      <trkpt lat="44.07612" lon="6.43351">
        <ele>1312.5</ele>
        <time>2021-09-12T08:48:35Z</time>
      </trkpt>
      <trkpt lat="44.07611" lon="6.43353">
        <ele>1312.7</ele>
        <time>2021-09-12T08:48:37Z</time>
      </trkpt>
      <trkpt lat="44.07612" lon="6.43354">
        <ele>1312.8</ele>
        <time>2021-09-12T08:48:38Z</time>
      </trkpt>
      <trkpt lat="44.07612" lon="6.43355">
        <ele>1312.9</ele>
        <time>2021-09-12T08:48:39Z</time>
      </trkpt>
      <trkpt lat="44.07612" lon="6.43356">
        <ele>1313</ele>
        <time>2021-09-12T08:48:40Z</time>
      </trkpt>
      <trkpt lat="44.07615" lon="6.43357">
        <ele>1313.3</ele>
        <time>2021-09-12T08:48:43Z</time>
      </trkpt>
      <trkpt lat="44.07618" lon="6.43358">
        <ele>1313.5</ele>
        <time>2021-09-12T08:48:47Z</time>
      </trkpt>
      <trkpt lat="44.0762" lon="6.43358">
        <ele>1313.8</ele>
        <time>2021-09-12T08:48:50Z</time>
      </trkpt>
      <trkpt lat="44.07623" lon="6.43359">
        <ele>1314</ele>
        <time>2021-09-12T08:48:54Z</time>
      </trkpt>
      <trkpt lat="44.07625" lon="6.4336">
        <ele>1314.2</ele>
        <time>2021-09-12T08:48:58Z</time>
      </trkpt>
      <trkpt lat="44.07627" lon="6.4336">
        <ele>1314.4</ele>
        <time>2021-09-12T08:49:02Z</time>
      </trkpt>
      <trkpt lat="44.0763" lon="6.43361">
        <ele>1314.6</ele>
        <time>2021-09-12T08:49:05Z</time>
      </trkpt>
      <trkpt lat="44.07632" lon="6.43362">
        <ele>1314.8</ele>
        <time>2021-09-12T08:49:08Z</time>
      </trkpt>
      <trkpt lat="44.07633" lon="6.43361">
        <ele>1314.9</ele>
        <time>2021-09-12T08:49:09Z</time>
      </trkpt>
      <trkpt lat="44.07635" lon="6.4336">
        <ele>1315</ele>
        <time>2021-09-12T08:49:11Z</time>
      </trkpt>
      <trkpt lat="44.07637" lon="6.43357">
        <ele>1315.2</ele>
        <time>2021-09-12T08:49:14Z</time>
      </trkpt>
      <trkpt lat="44.07638" lon="6.43356">
        <ele>1315.3</ele>
        <time>2021-09-12T08:49:15Z</time>
      </trkpt>
      <trkpt lat="44.07641" lon="6.43355">
        <ele>1315.5</ele>
        <time>2021-09-12T08:49:16Z</time>
      </trkpt>
      <trkpt lat="44.07642" lon="6.43353">
        <ele>1315.7</ele>
        <time>2021-09-12T08:49:18Z</time>
      </trkpt>
      <trkpt lat="44.07644" lon="6.43352">
        <ele>1315.9</ele>
        <time>2021-09-12T08:49:19Z</time>
      </trkpt>
      <trkpt lat="44.07648" lon="6.4335">
        <ele>1316.3</ele>
        <time>2021-09-12T08:49:22Z</time>
      </trkpt>
      <trkpt lat="44.07648" lon="6.43347">
        <ele>1316.5</ele>
        <time>2021-09-12T08:49:23Z</time>
      </trkpt>
      <trkpt lat="44.07647" lon="6.43345">
        <ele>1316.7</ele>
        <time>2021-09-12T08:49:24Z</time>
      </trkpt>
      <trkpt lat="44.07647" lon="6.43341">
        <ele>1317</ele>
        <time>2021-09-12T08:49:27Z</time>
      </trkpt>
      <trkpt lat="44.07646" lon="6.43339">
        <ele>1317.1</ele>
        <time>2021-09-12T08:49:28Z</time>
      </trkpt>
      <trkpt lat="44.07645" lon="6.43337">
        <ele>1320.3</ele>
        <time>2021-09-12T08:49:29Z</time>
      </trkpt>
      <trkpt lat="44.07644" lon="6.43335">
        <ele>1320.3</ele>
        <time>2021-09-12T08:49:31Z</time>
      </trkpt>
      <trkpt lat="44.07643" lon="6.43333">
        <ele>1320.3</ele>
        <time>2021-09-12T08:49:33Z</time>
      </trkpt>
      <trkpt lat="44.07642" lon="6.43332">
        <ele>1320.3</ele>
        <time>2021-09-12T08:49:35Z</time>
      </trkpt>
      <trkpt lat="44.0764" lon="6.4333">
        <ele>1320.3</ele>
        <time>2021-09-12T08:49:38Z</time>
      </trkpt>
      <trkpt lat="44.07639" lon="6.43329">
        <ele>1320.3</ele>
        <time>2021-09-12T08:49:39Z</time>
      </trkpt>
      <trkpt lat="44.07637" lon="6.43326">
        <ele>1320.3</ele>
        <time>2021-09-12T08:49:42Z</time>
      </trkpt>
      <trkpt lat="44.07635" lon="6.43323">
        <ele>1321.1</ele>
        <time>2021-09-12T08:49:44Z</time>
      </trkpt>
      <trkpt lat="44.07635" lon="6.43319">
        <ele>1321.3</ele>
        <time>2021-09-12T08:49:46Z</time>
      </trkpt>
      <trkpt lat="44.07635" lon="6.43318">
        <ele>1321.4</ele>
        <time>2021-09-12T08:49:47Z</time>
      </trkpt>
      <trkpt lat="44.07638" lon="6.43317">
        <ele>1321.6</ele>
        <time>2021-09-12T08:49:49Z</time>
      </trkpt>
      <trkpt lat="44.0764" lon="6.43316">
        <ele>1321.7</ele>
        <time>2021-09-12T08:49:50Z</time>
      </trkpt>
      <trkpt lat="44.07641" lon="6.43318">
        <ele>1321.8</ele>
        <time>2021-09-12T08:49:51Z</time>
      </trkpt>
      <trkpt lat="44.07643" lon="6.43319">
        <ele>1321.9</ele>
        <time>2021-09-12T08:49:52Z</time>
      </trkpt>
      <trkpt lat="44.07643" lon="6.4332">
        <ele>1322</ele>
        <time>2021-09-12T08:49:53Z</time>
      </trkpt>
      <trkpt lat="44.07645" lon="6.43321">
        <ele>1322.1</ele>
        <time>2021-09-12T08:49:54Z</time>
      </trkpt>
      <trkpt lat="44.07646" lon="6.43322">
        <ele>1322.3</ele>
        <time>2021-09-12T08:49:55Z</time>
      </trkpt>
      <trkpt lat="44.07648" lon="6.43324">
        <ele>1322.4</ele>
        <time>2021-09-12T08:49:56Z</time>
      </trkpt>
      <trkpt lat="44.07654" lon="6.43329">
        <ele>1323.1</ele>
        <time>2021-09-12T08:50:00Z</time>
      </trkpt>
      <trkpt lat="44.07657" lon="6.4333">
        <ele>1323.4</ele>
        <time>2021-09-12T08:50:02Z</time>
      </trkpt>
      <trkpt lat="44.07658" lon="6.43331">
        <ele>1323.5</ele>
        <time>2021-09-12T08:50:03Z</time>
      </trkpt>
      <trkpt lat="44.07661" lon="6.43332">
        <ele>1323.8</ele>
        <time>2021-09-12T08:50:04Z</time>
      </trkpt>
      <trkpt lat="44.07664" lon="6.43336">
        <ele>1324.2</ele>
        <time>2021-09-12T08:50:07Z</time>
      </trkpt>
      <trkpt lat="44.07664" lon="6.43337">
        <ele>1324.4</ele>
        <time>2021-09-12T08:50:08Z</time>
      </trkpt>
      <trkpt lat="44.07666" lon="6.43342">
        <ele>1324.8</ele>
        <time>2021-09-12T08:50:11Z</time>
      </trkpt>
      <trkpt lat="44.07666" lon="6.43343">
        <ele>1325</ele>
        <time>2021-09-12T08:50:12Z</time>
      </trkpt>
      <trkpt lat="44.07668" lon="6.43347">
        <ele>1325.4</ele>
        <time>2021-09-12T08:50:15Z</time>
      </trkpt>
      <trkpt lat="44.07668" lon="6.43349">
        <ele>1325.5</ele>
        <time>2021-09-12T08:50:17Z</time>
      </trkpt>
      <trkpt lat="44.0767" lon="6.43353">
        <ele>1326</ele>
        <time>2021-09-12T08:50:22Z</time>
      </trkpt>
      <trkpt lat="44.0767" lon="6.43354">
        <ele>1326.1</ele>
        <time>2021-09-12T08:50:23Z</time>
      </trkpt>
      <trkpt lat="44.07671" lon="6.43356">
        <ele>1326.3</ele>
        <time>2021-09-12T08:50:26Z</time>
      </trkpt>
      <trkpt lat="44.07674" lon="6.43359">
        <ele>1326.7</ele>
        <time>2021-09-12T08:50:33Z</time>
      </trkpt>
      <trkpt lat="44.07677" lon="6.43361">
        <ele>1327.2</ele>
        <time>2021-09-12T08:50:41Z</time>
      </trkpt>
      <trkpt lat="44.07678" lon="6.43363">
        <ele>1327.3</ele>
        <time>2021-09-12T08:50:44Z</time>
      </trkpt>
      <trkpt lat="44.0768" lon="6.43366">
        <ele>1327.6</ele>
        <time>2021-09-12T08:50:50Z</time>
      </trkpt>
      <trkpt lat="44.07681" lon="6.43368">
        <ele>1327.8</ele>
        <time>2021-09-12T08:50:54Z</time>
      </trkpt>
      <trkpt lat="44.07682" lon="6.43372">
        <ele>1328.1</ele>
        <time>2021-09-12T08:51:00Z</time>
      </trkpt>
      <trkpt lat="44.07682" lon="6.43374">
        <ele>1328.2</ele>
        <time>2021-09-12T08:51:02Z</time>
      </trkpt>
      <trkpt lat="44.07682" lon="6.43377">
        <ele>1328.4</ele>
        <time>2021-09-12T08:51:06Z</time>
      </trkpt>
      <trkpt lat="44.07681" lon="6.43379">
        <ele>1328.5</ele>
        <time>2021-09-12T08:51:08Z</time>
      </trkpt>
      <trkpt lat="44.07678" lon="6.43382">
        <ele>1328.7</ele>
        <time>2021-09-12T08:51:12Z</time>
      </trkpt>
      <trkpt lat="44.07677" lon="6.43383">
        <ele>1328.8</ele>
        <time>2021-09-12T08:51:13Z</time>
      </trkpt>
      <trkpt lat="44.07676" lon="6.43384">
        <ele>1328.9</ele>
        <time>2021-09-12T08:51:15Z</time>
      </trkpt>
      <trkpt lat="44.07674" lon="6.43386">
        <ele>1329.1</ele>
        <time>2021-09-12T08:51:17Z</time>
      </trkpt>
      <trkpt lat="44.07672" lon="6.43387">
        <ele>1329.3</ele>
        <time>2021-09-12T08:51:19Z</time>
      </trkpt>
      <trkpt lat="44.0767" lon="6.43389">
        <ele>1329.5</ele>
        <time>2021-09-12T08:51:21Z</time>
      </trkpt>
      <trkpt lat="44.07668" lon="6.43391">
        <ele>1329.6</ele>
        <time>2021-09-12T08:51:22Z</time>
      </trkpt>
      <trkpt lat="44.07665" lon="6.43395">
        <ele>1329.9</ele>
        <time>2021-09-12T08:51:25Z</time>
      </trkpt>
      <trkpt lat="44.07662" lon="6.43397">
        <ele>1330.1</ele>
        <time>2021-09-12T08:51:27Z</time>
      </trkpt>
      <trkpt lat="44.0766" lon="6.434">
        <ele>1330.3</ele>
        <time>2021-09-12T08:51:29Z</time>
      </trkpt>
      <trkpt lat="44.07657" lon="6.43404">
        <ele>1330.4</ele>
        <time>2021-09-12T08:51:31Z</time>
      </trkpt>
      <trkpt lat="44.07656" lon="6.43405">
        <ele>1330.5</ele>
        <time>2021-09-12T08:51:32Z</time>
      </trkpt>
      <trkpt lat="44.07653" lon="6.43409">
        <ele>1330.6</ele>
        <time>2021-09-12T08:51:34Z</time>
      </trkpt>
      <trkpt lat="44.07651" lon="6.43412">
        <ele>1330.8</ele>
        <time>2021-09-12T08:51:35Z</time>
      </trkpt>
      <trkpt lat="44.07649" lon="6.43417">
        <ele>1331</ele>
        <time>2021-09-12T08:51:37Z</time>
      </trkpt>
      <trkpt lat="44.07648" lon="6.43421">
        <ele>1331.1</ele>
        <time>2021-09-12T08:51:39Z</time>
      </trkpt>
      <trkpt lat="44.07648" lon="6.43427">
        <ele>1331.4</ele>
        <time>2021-09-12T08:51:40Z</time>
      </trkpt>
      <trkpt lat="44.07648" lon="6.4343">
        <ele>1331.5</ele>
        <time>2021-09-12T08:51:41Z</time>
      </trkpt>
      <trkpt lat="44.07648" lon="6.43434">
        <ele>1331.6</ele>
        <time>2021-09-12T08:51:43Z</time>
      </trkpt>
      <trkpt lat="44.07648" lon="6.4344">
        <ele>1331.8</ele>
        <time>2021-09-12T08:51:44Z</time>
      </trkpt>
      <trkpt lat="44.07649" lon="6.43445">
        <ele>1331.9</ele>
        <time>2021-09-12T08:51:46Z</time>
      </trkpt>
      <trkpt lat="44.07649" lon="6.43449">
        <ele>1332</ele>
        <time>2021-09-12T08:51:47Z</time>
      </trkpt>
      <trkpt lat="44.0765" lon="6.43455">
        <ele>1332.1</ele>
        <time>2021-09-12T08:51:49Z</time>
      </trkpt>
      <trkpt lat="44.07651" lon="6.43463">
        <ele>1332.3</ele>
        <time>2021-09-12T08:51:51Z</time>
      </trkpt>
      <trkpt lat="44.07652" lon="6.43468">
        <ele>1332.4</ele>
        <time>2021-09-12T08:51:53Z</time>
      </trkpt>
      <trkpt lat="44.07653" lon="6.43472">
        <ele>1332.4</ele>
        <time>2021-09-12T08:51:54Z</time>
      </trkpt>
      <trkpt lat="44.07654" lon="6.43478">
        <ele>1332.5</ele>
        <time>2021-09-12T08:51:56Z</time>
      </trkpt>
      <trkpt lat="44.07655" lon="6.43486">
        <ele>1332.6</ele>
        <time>2021-09-12T08:51:58Z</time>
      </trkpt>
      <trkpt lat="44.07655" lon="6.43493">
        <ele>1332.7</ele>
        <time>2021-09-12T08:51:59Z</time>
      </trkpt>
      <trkpt lat="44.07655" lon="6.43499">
        <ele>1332.8</ele>
        <time>2021-09-12T08:52:01Z</time>
      </trkpt>
      <trkpt lat="44.07655" lon="6.43506">
        <ele>1332.8</ele>
        <time>2021-09-12T08:52:03Z</time>
      </trkpt>
      <trkpt lat="44.07656" lon="6.43511">
        <ele>1332.9</ele>
        <time>2021-09-12T08:52:04Z</time>
      </trkpt>
      <trkpt lat="44.07657" lon="6.43521">
        <ele>1333</ele>
        <time>2021-09-12T08:52:06Z</time>
      </trkpt>
      <trkpt lat="44.07657" lon="6.43527">
        <ele>1333</ele>
        <time>2021-09-12T08:52:07Z</time>
      </trkpt>
      <trkpt lat="44.07657" lon="6.43533">
        <ele>1333</ele>
        <time>2021-09-12T08:52:08Z</time>
      </trkpt>
      <trkpt lat="44.07657" lon="6.4354">
        <ele>1333</ele>
        <time>2021-09-12T08:52:10Z</time>
      </trkpt>
      <trkpt lat="44.07656" lon="6.43549">
        <ele>1333</ele>
        <time>2021-09-12T08:52:12Z</time>
      </trkpt>
      <trkpt lat="44.07655" lon="6.43558">
        <ele>1333.1</ele>
        <time>2021-09-12T08:52:14Z</time>
      </trkpt>
      <trkpt lat="44.07653" lon="6.43564">
        <ele>1333.1</ele>
        <time>2021-09-12T08:52:15Z</time>
      </trkpt>
      <trkpt lat="44.07651" lon="6.43571">
        <ele>1333.1</ele>
        <time>2021-09-12T08:52:17Z</time>
      </trkpt>
      <trkpt lat="44.07648" lon="6.43579">
        <ele>1333.2</ele>
        <time>2021-09-12T08:52:19Z</time>
      </trkpt>
      <trkpt lat="44.07646" lon="6.43586">
        <ele>1333.2</ele>
        <time>2021-09-12T08:52:20Z</time>
      </trkpt>
      <trkpt lat="44.07644" lon="6.43593">
        <ele>1333.2</ele>
        <time>2021-09-12T08:52:22Z</time>
      </trkpt>
      <trkpt lat="44.07642" lon="6.436">
        <ele>1333.2</ele>
        <time>2021-09-12T08:52:23Z</time>
      </trkpt>
      <trkpt lat="44.07639" lon="6.43606">
        <ele>1333.2</ele>
        <time>2021-09-12T08:52:25Z</time>
      </trkpt>
      <trkpt lat="44.07638" lon="6.43611">
        <ele>1333.2</ele>
        <time>2021-09-12T08:52:26Z</time>
      </trkpt>
      <trkpt lat="44.07635" lon="6.43616">
        <ele>1333.2</ele>
        <time>2021-09-12T08:52:27Z</time>
      </trkpt>
      <trkpt lat="44.07631" lon="6.43625">
        <ele>1333.1</ele>
        <time>2021-09-12T08:52:29Z</time>
      </trkpt>
      <trkpt lat="44.07627" lon="6.43632">
        <ele>1333.1</ele>
        <time>2021-09-12T08:52:31Z</time>
      </trkpt>
      <trkpt lat="44.07624" lon="6.43638">
        <ele>1333.2</ele>
        <time>2021-09-12T08:52:33Z</time>
      </trkpt>
      <trkpt lat="44.0762" lon="6.43645">
        <ele>1333.3</ele>
        <time>2021-09-12T08:52:35Z</time>
      </trkpt>
      <trkpt lat="44.07614" lon="6.43655">
        <ele>1333.4</ele>
        <time>2021-09-12T08:52:37Z</time>
      </trkpt>
      <trkpt lat="44.07608" lon="6.43665">
        <ele>1333.7</ele>
        <time>2021-09-12T08:52:40Z</time>
      </trkpt>
      <trkpt lat="44.07603" lon="6.43676">
        <ele>1333.9</ele>
        <time>2021-09-12T08:52:43Z</time>
      </trkpt>
      <trkpt lat="44.076" lon="6.43681">
        <ele>1334.1</ele>
        <time>2021-09-12T08:52:44Z</time>
      </trkpt>
      <trkpt lat="44.07594" lon="6.43692">
        <ele>1334.3</ele>
        <time>2021-09-12T08:52:47Z</time>
      </trkpt>
      <trkpt lat="44.0759" lon="6.43704">
        <ele>1334.4</ele>
        <time>2021-09-12T08:52:50Z</time>
      </trkpt>
      <trkpt lat="44.07588" lon="6.4371">
        <ele>1334.4</ele>
        <time>2021-09-12T08:52:51Z</time>
      </trkpt>
      <trkpt lat="44.07587" lon="6.43717">
        <ele>1334.5</ele>
        <time>2021-09-12T08:52:53Z</time>
      </trkpt>
      <trkpt lat="44.07584" lon="6.43729">
        <ele>1334.7</ele>
        <time>2021-09-12T08:52:56Z</time>
      </trkpt>
      <trkpt lat="44.07582" lon="6.43742">
        <ele>1335</ele>
        <time>2021-09-12T08:52:59Z</time>
      </trkpt>
      <trkpt lat="44.07582" lon="6.43747">
        <ele>1335.1</ele>
        <time>2021-09-12T08:53:00Z</time>
      </trkpt>
      <trkpt lat="44.07581" lon="6.43753">
        <ele>1335.3</ele>
        <time>2021-09-12T08:53:01Z</time>
      </trkpt>
      <trkpt lat="44.07582" lon="6.43762">
        <ele>1335.6</ele>
        <time>2021-09-12T08:53:03Z</time>
      </trkpt>
      <trkpt lat="44.07586" lon="6.43769">
        <ele>1335.8</ele>
        <time>2021-09-12T08:53:05Z</time>
      </trkpt>
      <trkpt lat="44.07589" lon="6.43772">
        <ele>1336</ele>
        <time>2021-09-12T08:53:06Z</time>
      </trkpt>
      <trkpt lat="44.07591" lon="6.43775">
        <ele>1336.1</ele>
        <time>2021-09-12T08:53:08Z</time>
      </trkpt>
      <trkpt lat="44.07587" lon="6.43776">
        <ele>1336.3</ele>
        <time>2021-09-12T08:53:09Z</time>
      </trkpt>
      <trkpt lat="44.07594" lon="6.43779">
        <ele>1336.8</ele>
        <time>2021-09-12T08:53:11Z</time>
      </trkpt>
      <trkpt lat="44.07599" lon="6.43781">
        <ele>1337.5</ele>
        <time>2021-09-12T08:53:13Z</time>
      </trkpt>
      <trkpt lat="44.07603" lon="6.43784">
        <ele>1338.1</ele>
        <time>2021-09-12T08:53:15Z</time>
      </trkpt>
      <trkpt lat="44.07606" lon="6.43787">
        <ele>1338.6</ele>
        <time>2021-09-12T08:53:17Z</time>
      </trkpt>
      <trkpt lat="44.07609" lon="6.4379">
        <ele>1339.1</ele>
        <time>2021-09-12T08:53:18Z</time>
      </trkpt>
      <trkpt lat="44.0761" lon="6.43791">
        <ele>1339.4</ele>
        <time>2021-09-12T08:53:20Z</time>
      </trkpt>
      <trkpt lat="44.07611" lon="6.43795">
        <ele>1339.8</ele>
        <time>2021-09-12T08:53:22Z</time>
      </trkpt>
      <trkpt lat="44.07611" lon="6.43798">
        <ele>1340.1</ele>
        <time>2021-09-12T08:53:23Z</time>
      </trkpt>
      <trkpt lat="44.07612" lon="6.43801">
        <ele>1340.4</ele>
        <time>2021-09-12T08:53:26Z</time>
      </trkpt>
      <trkpt lat="44.07613" lon="6.43803">
        <ele>1340.6</ele>
        <time>2021-09-12T08:53:27Z</time>
      </trkpt>
      <trkpt lat="44.07614" lon="6.43804">
        <ele>1340.9</ele>
        <time>2021-09-12T08:53:30Z</time>
      </trkpt>
      <trkpt lat="44.07616" lon="6.43805">
        <ele>1341.2</ele>
        <time>2021-09-12T08:53:33Z</time>
      </trkpt>
      <trkpt lat="44.07617" lon="6.43807">
        <ele>1341.4</ele>
        <time>2021-09-12T08:53:36Z</time>
      </trkpt>
      <trkpt lat="44.07618" lon="6.43809">
        <ele>1341.6</ele>
        <time>2021-09-12T08:53:40Z</time>
      </trkpt>
      <trkpt lat="44.07618" lon="6.43811">
        <ele>1341.8</ele>
        <time>2021-09-12T08:53:44Z</time>
      </trkpt>
      <trkpt lat="44.0762" lon="6.43813">
        <ele>1342.1</ele>
        <time>2021-09-12T08:53:48Z</time>
      </trkpt>
      <trkpt lat="44.07621" lon="6.43816">
        <ele>1342.5</ele>
        <time>2021-09-12T08:53:54Z</time>
      </trkpt>
      <trkpt lat="44.07623" lon="6.43819">
        <ele>1342.8</ele>
        <time>2021-09-12T08:54:00Z</time>
      </trkpt>
      <trkpt lat="44.07623" lon="6.43822">
        <ele>1343.2</ele>
        <time>2021-09-12T08:54:06Z</time>
      </trkpt>
      <trkpt lat="44.07625" lon="6.43826">
        <ele>1343.6</ele>
        <time>2021-09-12T08:54:13Z</time>
      </trkpt>
      <trkpt lat="44.07625" lon="6.43828">
        <ele>1343.8</ele>
        <time>2021-09-12T08:54:16Z</time>
      </trkpt>
      <trkpt lat="44.07626" lon="6.43831">
        <ele>1344.1</ele>
        <time>2021-09-12T08:54:22Z</time>
      </trkpt>
      <trkpt lat="44.07627" lon="6.43835">
        <ele>1344.5</ele>
        <time>2021-09-12T08:54:28Z</time>
      </trkpt>
      <trkpt lat="44.07629" lon="6.43839">
        <ele>1345</ele>
        <time>2021-09-12T08:54:36Z</time>
      </trkpt>
      <trkpt lat="44.07629" lon="6.43841">
        <ele>1345.1</ele>
        <time>2021-09-12T08:54:39Z</time>
      </trkpt>
      <trkpt lat="44.0763" lon="6.43844">
        <ele>1345.5</ele>
        <time>2021-09-12T08:54:45Z</time>
      </trkpt>
      <trkpt lat="44.0763" lon="6.43849">
        <ele>1345.9</ele>
        <time>2021-09-12T08:54:53Z</time>
      </trkpt>
      <trkpt lat="44.07631" lon="6.43853">
        <ele>1346.4</ele>
        <time>2021-09-12T08:55:00Z</time>
      </trkpt>
      <trkpt lat="44.07631" lon="6.43855">
        <ele>1346.5</ele>
        <time>2021-09-12T08:55:03Z</time>
      </trkpt>
      <trkpt lat="44.07631" lon="6.43859">
        <ele>1346.9</ele>
        <time>2021-09-12T08:55:09Z</time>
      </trkpt>
      <trkpt lat="44.07632" lon="6.4386">
        <ele>1347.1</ele>
        <time>2021-09-12T08:55:11Z</time>
      </trkpt>
      <trkpt lat="44.07633" lon="6.43863">
        <ele>1347.5</ele>
        <time>2021-09-12T08:55:18Z</time>
      </trkpt>
      <trkpt lat="44.07635" lon="6.43867">
        <ele>1348</ele>
        <time>2021-09-12T08:55:25Z</time>
      </trkpt>
      <trkpt lat="44.07636" lon="6.43871">
        <ele>1348.4</ele>
        <time>2021-09-12T08:55:31Z</time>
      </trkpt>
      <trkpt lat="44.07637" lon="6.43874">
        <ele>1348.9</ele>
        <time>2021-09-12T08:55:37Z</time>
      </trkpt>
      <trkpt lat="44.07638" lon="6.43877">
        <ele>1349.3</ele>
        <time>2021-09-12T08:55:43Z</time>
      </trkpt>
      <trkpt lat="44.0764" lon="6.4388">
        <ele>1349.8</ele>
        <time>2021-09-12T08:55:50Z</time>
      </trkpt>
      <trkpt lat="44.07641" lon="6.43881">
        <ele>1350.1</ele>
        <time>2021-09-12T08:55:53Z</time>
      </trkpt>
      <trkpt lat="44.07642" lon="6.43883">
        <ele>1350.3</ele>
        <time>2021-09-12T08:55:57Z</time>
      </trkpt>
      <trkpt lat="44.07644" lon="6.43884">
        <ele>1350.7</ele>
        <time>2021-09-12T08:56:02Z</time>
      </trkpt>
      <trkpt lat="44.07647" lon="6.43887">
        <ele>1351.2</ele>
        <time>2021-09-12T08:56:09Z</time>
      </trkpt>
      <trkpt lat="44.07647" lon="6.43888">
        <ele>1351.3</ele>
        <time>2021-09-12T08:56:11Z</time>
      </trkpt>
      <trkpt lat="44.07648" lon="6.43891">
        <ele>1351.7</ele>
        <time>2021-09-12T08:56:16Z</time>
      </trkpt>
      <trkpt lat="44.07649" lon="6.43893">
        <ele>1352</ele>
        <time>2021-09-12T08:56:20Z</time>
      </trkpt>
      <trkpt lat="44.07648" lon="6.43895">
        <ele>1352.2</ele>
        <time>2021-09-12T08:56:23Z</time>
      </trkpt>
      <trkpt lat="44.07648" lon="6.43896">
        <ele>1352.3</ele>
        <time>2021-09-12T08:56:25Z</time>
      </trkpt>
      <trkpt lat="44.07649" lon="6.43899">
        <ele>1352.7</ele>
        <time>2021-09-12T08:56:30Z</time>
      </trkpt>
      <trkpt lat="44.0765" lon="6.439">
        <ele>1352.9</ele>
        <time>2021-09-12T08:56:33Z</time>
      </trkpt>
      <trkpt lat="44.07651" lon="6.43902">
        <ele>1353.2</ele>
        <time>2021-09-12T08:56:37Z</time>
      </trkpt>
      <trkpt lat="44.07652" lon="6.43905">
        <ele>1353.5</ele>
        <time>2021-09-12T08:56:42Z</time>
      </trkpt>
      <trkpt lat="44.07654" lon="6.43906">
        <ele>1353.8</ele>
        <time>2021-09-12T08:56:46Z</time>
      </trkpt>
      <trkpt lat="44.07657" lon="6.43911">
        <ele>1354.4</ele>
        <time>2021-09-12T08:56:56Z</time>
      </trkpt>
      <trkpt lat="44.07658" lon="6.43912">
        <ele>1354.6</ele>
        <time>2021-09-12T08:56:59Z</time>
      </trkpt>
      <trkpt lat="44.07659" lon="6.43913">
        <ele>1354.8</ele>
        <time>2021-09-12T08:57:02Z</time>
      </trkpt>
      <trkpt lat="44.07662" lon="6.43915">
        <ele>1355.2</ele>
        <time>2021-09-12T08:57:09Z</time>
      </trkpt>
      <trkpt lat="44.07663" lon="6.43916">
        <ele>1355.3</ele>
        <time>2021-09-12T08:57:12Z</time>
      </trkpt>
      <trkpt lat="44.07665" lon="6.43918">
        <ele>1355.8</ele>
        <time>2021-09-12T08:57:19Z</time>
      </trkpt>
      <trkpt lat="44.07667" lon="6.4392">
        <ele>1356.1</ele>
        <time>2021-09-12T08:57:24Z</time>
      </trkpt>
      <trkpt lat="44.0767" lon="6.43921">
        <ele>1356.4</ele>
        <time>2021-09-12T08:57:30Z</time>
      </trkpt>
      <trkpt lat="44.07672" lon="6.43922">
        <ele>1356.7</ele>
        <time>2021-09-12T08:57:35Z</time>
      </trkpt>
      <trkpt lat="44.07673" lon="6.43923">
        <ele>1356.9</ele>
        <time>2021-09-12T08:57:39Z</time>
      </trkpt>
      <trkpt lat="44.07675" lon="6.43924">
        <ele>1357.2</ele>
        <time>2021-09-12T08:57:43Z</time>
      </trkpt>
      <trkpt lat="44.07676" lon="6.43926">
        <ele>1357.4</ele>
        <time>2021-09-12T08:57:47Z</time>
      </trkpt>
      <trkpt lat="44.07679" lon="6.43929">
        <ele>1357.9</ele>
        <time>2021-09-12T08:57:55Z</time>
      </trkpt>
      <trkpt lat="44.0768" lon="6.4393">
        <ele>1358.1</ele>
        <time>2021-09-12T08:57:58Z</time>
      </trkpt>
      <trkpt lat="44.07684" lon="6.43933">
        <ele>1358.8</ele>
        <time>2021-09-12T08:58:08Z</time>
      </trkpt>
      <trkpt lat="44.07686" lon="6.43933">
        <ele>1359</ele>
        <time>2021-09-12T08:58:12Z</time>
      </trkpt>
      <trkpt lat="44.07687" lon="6.43933">
        <ele>1359.3</ele>
        <time>2021-09-12T08:58:16Z</time>
      </trkpt>
      <trkpt lat="44.0769" lon="6.43933">
        <ele>1359.7</ele>
        <time>2021-09-12T08:58:23Z</time>
      </trkpt>
      <trkpt lat="44.07694" lon="6.43933">
        <ele>1360.3</ele>
        <time>2021-09-12T08:58:32Z</time>
      </trkpt>
      <trkpt lat="44.07698" lon="6.43932">
        <ele>1360.8</ele>
        <time>2021-09-12T08:58:41Z</time>
      </trkpt>
      <trkpt lat="44.07701" lon="6.4393">
        <ele>1361.3</ele>
        <time>2021-09-12T08:58:48Z</time>
      </trkpt>
      <trkpt lat="44.07703" lon="6.43929">
        <ele>1361.5</ele>
        <time>2021-09-12T08:58:52Z</time>
      </trkpt>
      <trkpt lat="44.07704" lon="6.43929">
        <ele>1361.8</ele>
        <time>2021-09-12T08:58:56Z</time>
      </trkpt>
      <trkpt lat="44.07707" lon="6.43928">
        <ele>1362.1</ele>
        <time>2021-09-12T08:59:02Z</time>
      </trkpt>
      <trkpt lat="44.07708" lon="6.43928">
        <ele>1362.3</ele>
        <time>2021-09-12T08:59:05Z</time>
      </trkpt>
      <trkpt lat="44.0771" lon="6.43928">
        <ele>1362.6</ele>
        <time>2021-09-12T08:59:09Z</time>
      </trkpt>
      <trkpt lat="44.07711" lon="6.43927">
        <ele>1362.7</ele>
        <time>2021-09-12T08:59:11Z</time>
      </trkpt>
      <trkpt lat="44.07713" lon="6.43926">
        <ele>1363.1</ele>
        <time>2021-09-12T08:59:17Z</time>
      </trkpt>
      <trkpt lat="44.07715" lon="6.43926">
        <ele>1363.3</ele>
        <time>2021-09-12T08:59:21Z</time>
      </trkpt>
      <trkpt lat="44.07716" lon="6.43926">
        <ele>1363.5</ele>
        <time>2021-09-12T08:59:24Z</time>
      </trkpt>
      <trkpt lat="44.07718" lon="6.43925">
        <ele>1363.7</ele>
        <time>2021-09-12T08:59:27Z</time>
      </trkpt>
      <trkpt lat="44.07719" lon="6.43925">
        <ele>1363.9</ele>
        <time>2021-09-12T08:59:30Z</time>
      </trkpt>
      <trkpt lat="44.07722" lon="6.43924">
        <ele>1364.4</ele>
        <time>2021-09-12T08:59:37Z</time>
      </trkpt>
      <trkpt lat="44.07725" lon="6.43924">
        <ele>1364.9</ele>
        <time>2021-09-12T08:59:45Z</time>
      </trkpt>
      <trkpt lat="44.07727" lon="6.43924">
        <ele>1365.2</ele>
        <time>2021-09-12T08:59:50Z</time>
      </trkpt>
      <trkpt lat="44.07731" lon="6.43925">
        <ele>1365.9</ele>
        <time>2021-09-12T08:59:58Z</time>
      </trkpt>
      <trkpt lat="44.07735" lon="6.43926">
        <ele>1366.4</ele>
        <time>2021-09-12T09:00:07Z</time>
      </trkpt>
      <trkpt lat="44.07737" lon="6.43928">
        <ele>1366.9</ele>
        <time>2021-09-12T09:00:14Z</time>
      </trkpt>
      <trkpt lat="44.07738" lon="6.43929">
        <ele>1367</ele>
        <time>2021-09-12T09:00:16Z</time>
      </trkpt>
      <trkpt lat="44.07739" lon="6.43931">
        <ele>1367.2</ele>
        <time>2021-09-12T09:00:19Z</time>
      </trkpt>
      <trkpt lat="44.07741" lon="6.43934">
        <ele>1367.7</ele>
        <time>2021-09-12T09:00:26Z</time>
      </trkpt>
      <trkpt lat="44.07742" lon="6.43936">
        <ele>1368</ele>
        <time>2021-09-12T09:00:32Z</time>
      </trkpt>
      <trkpt lat="44.07744" lon="6.43939">
        <ele>1368.3</ele>
        <time>2021-09-12T09:00:38Z</time>
      </trkpt>
      <trkpt lat="44.07745" lon="6.43944">
        <ele>1368.8</ele>
        <time>2021-09-12T09:00:46Z</time>
      </trkpt>
      <trkpt lat="44.07745" lon="6.43946">
        <ele>1369</ele>
        <time>2021-09-12T09:00:49Z</time>
      </trkpt>
      <trkpt lat="44.07746" lon="6.43951">
        <ele>1369.4</ele>
        <time>2021-09-12T09:00:57Z</time>
      </trkpt>
      <trkpt lat="44.07746" lon="6.43952">
        <ele>1369.6</ele>
        <time>2021-09-12T09:00:59Z</time>
      </trkpt>
      <trkpt lat="44.07748" lon="6.43956">
        <ele>1370</ele>
        <time>2021-09-12T09:01:07Z</time>
      </trkpt>
      <trkpt lat="44.07749" lon="6.43957">
        <ele>1370.1</ele>
        <time>2021-09-12T09:01:09Z</time>
      </trkpt>
      <trkpt lat="44.07752" lon="6.43962">
        <ele>1370.8</ele>
        <time>2021-09-12T09:01:20Z</time>
      </trkpt>
      <trkpt lat="44.07753" lon="6.43965">
        <ele>1371.1</ele>
        <time>2021-09-12T09:01:25Z</time>
      </trkpt>
      <trkpt lat="44.07754" lon="6.43967">
        <ele>1371.4</ele>
        <time>2021-09-12T09:01:29Z</time>
      </trkpt>
      <trkpt lat="44.07755" lon="6.43969">
        <ele>1371.6</ele>
        <time>2021-09-12T09:01:34Z</time>
      </trkpt>
      <trkpt lat="44.07759" lon="6.43974">
        <ele>1372.3</ele>
        <time>2021-09-12T09:01:45Z</time>
      </trkpt>
      <trkpt lat="44.0776" lon="6.43975">
        <ele>1372.5</ele>
        <time>2021-09-12T09:01:48Z</time>
      </trkpt>
      <trkpt lat="44.07761" lon="6.43977">
        <ele>1372.7</ele>
        <time>2021-09-12T09:01:51Z</time>
      </trkpt>
      <trkpt lat="44.07763" lon="6.43978">
        <ele>1373</ele>
        <time>2021-09-12T09:01:57Z</time>
      </trkpt>
      <trkpt lat="44.07765" lon="6.43982">
        <ele>1373</ele>
        <time>2021-09-12T09:02:04Z</time>
      </trkpt>
      <trkpt lat="44.07767" lon="6.43986">
        <ele>1373</ele>
        <time>2021-09-12T09:02:10Z</time>
      </trkpt>
      <trkpt lat="44.07767" lon="6.43988">
        <ele>1373.1</ele>
        <time>2021-09-12T09:02:13Z</time>
      </trkpt>
      <trkpt lat="44.07769" lon="6.43992">
        <ele>1373.1</ele>
        <time>2021-09-12T09:02:16Z</time>
      </trkpt>
      <trkpt lat="44.07771" lon="6.43994">
        <ele>1373.2</ele>
        <time>2021-09-12T09:02:18Z</time>
      </trkpt>
      <trkpt lat="44.07774" lon="6.43998">
        <ele>1373.3</ele>
        <time>2021-09-12T09:02:21Z</time>
      </trkpt>
      <trkpt lat="44.07777" lon="6.44003">
        <ele>1373.5</ele>
        <time>2021-09-12T09:02:23Z</time>
      </trkpt>
      <trkpt lat="44.07779" lon="6.44005">
        <ele>1373.5</ele>
        <time>2021-09-12T09:02:24Z</time>
      </trkpt>
      <trkpt lat="44.07782" lon="6.44008">
        <ele>1373.7</ele>
        <time>2021-09-12T09:02:25Z</time>
      </trkpt>
      <trkpt lat="44.07785" lon="6.44012">
        <ele>1373.9</ele>
        <time>2021-09-12T09:02:27Z</time>
      </trkpt>
      <trkpt lat="44.07788" lon="6.44016">
        <ele>1374.1</ele>
        <time>2021-09-12T09:02:28Z</time>
      </trkpt>
      <trkpt lat="44.0779" lon="6.44017">
        <ele>1374.2</ele>
        <time>2021-09-12T09:02:29Z</time>
      </trkpt>
      <trkpt lat="44.07793" lon="6.44019">
        <ele>1374.4</ele>
        <time>2021-09-12T09:02:30Z</time>
      </trkpt>
      <trkpt lat="44.07796" lon="6.4402">
        <ele>1374.5</ele>
        <time>2021-09-12T09:02:31Z</time>
      </trkpt>
      <trkpt lat="44.078" lon="6.44021">
        <ele>1374.7</ele>
        <time>2021-09-12T09:02:33Z</time>
      </trkpt>
      <trkpt lat="44.07804" lon="6.44024">
        <ele>1374.9</ele>
        <time>2021-09-12T09:02:34Z</time>
      </trkpt>
      <trkpt lat="44.07808" lon="6.44027">
        <ele>1375.1</ele>
        <time>2021-09-12T09:02:36Z</time>
      </trkpt>
      <trkpt lat="44.07807" lon="6.44027">
        <ele>1375.2</ele>
        <time>2021-09-12T09:02:37Z</time>
      </trkpt>
      <trkpt lat="44.07804" lon="6.44031">
        <ele>1375.3</ele>
        <time>2021-09-12T09:02:38Z</time>
      </trkpt>
      <trkpt lat="44.07805" lon="6.44034">
        <ele>1375.4</ele>
        <time>2021-09-12T09:02:39Z</time>
      </trkpt>
      <trkpt lat="44.07805" lon="6.44039">
        <ele>1375.5</ele>
        <time>2021-09-12T09:02:40Z</time>
      </trkpt>
      <trkpt lat="44.07805" lon="6.44041">
        <ele>1375.6</ele>
        <time>2021-09-12T09:02:41Z</time>
      </trkpt>
      <trkpt lat="44.07805" lon="6.44045">
        <ele>1375.6</ele>
        <time>2021-09-12T09:02:42Z</time>
      </trkpt>
      <trkpt lat="44.07806" lon="6.4405">
        <ele>1375.8</ele>
        <time>2021-09-12T09:02:43Z</time>
      </trkpt>
      <trkpt lat="44.07807" lon="6.44054">
        <ele>1376</ele>
        <time>2021-09-12T09:02:45Z</time>
      </trkpt>
      <trkpt lat="44.0781" lon="6.44057">
        <ele>1376.1</ele>
        <time>2021-09-12T09:02:46Z</time>
      </trkpt>
      <trkpt lat="44.07811" lon="6.44058">
        <ele>1376.2</ele>
        <time>2021-09-12T09:02:47Z</time>
      </trkpt>
      <trkpt lat="44.07813" lon="6.44061">
        <ele>1376.3</ele>
        <time>2021-09-12T09:02:48Z</time>
      </trkpt>
      <trkpt lat="44.07817" lon="6.44064">
        <ele>1376.6</ele>
        <time>2021-09-12T09:02:49Z</time>
      </trkpt>
      <trkpt lat="44.07818" lon="6.44066">
        <ele>1376.7</ele>
        <time>2021-09-12T09:02:50Z</time>
      </trkpt>
      <trkpt lat="44.07821" lon="6.4407">
        <ele>1376.9</ele>
        <time>2021-09-12T09:02:52Z</time>
      </trkpt>
      <trkpt lat="44.07822" lon="6.44073">
        <ele>1377.1</ele>
        <time>2021-09-12T09:02:53Z</time>
      </trkpt>
      <trkpt lat="44.07823" lon="6.44078">
        <ele>1377.3</ele>
        <time>2021-09-12T09:02:54Z</time>
      </trkpt>
      <trkpt lat="44.07826" lon="6.44083">
        <ele>1377.5</ele>
        <time>2021-09-12T09:02:56Z</time>
      </trkpt>
      <trkpt lat="44.07827" lon="6.44085">
        <ele>1377.7</ele>
        <time>2021-09-12T09:02:57Z</time>
      </trkpt>
      <trkpt lat="44.07829" lon="6.44088">
        <ele>1377.8</ele>
        <time>2021-09-12T09:02:58Z</time>
      </trkpt>
      <trkpt lat="44.0783" lon="6.44089">
        <ele>1377.9</ele>
        <time>2021-09-12T09:02:59Z</time>
      </trkpt>
      <trkpt lat="44.07831" lon="6.44092">
        <ele>1378</ele>
        <time>2021-09-12T09:03:00Z</time>
      </trkpt>
      <trkpt lat="44.07832" lon="6.44093">
        <ele>1378.1</ele>
        <time>2021-09-12T09:03:01Z</time>
      </trkpt>
      <trkpt lat="44.07834" lon="6.44095">
        <ele>1378.2</ele>
        <time>2021-09-12T09:03:02Z</time>
      </trkpt>
      <trkpt lat="44.07836" lon="6.44097">
        <ele>1378.4</ele>
        <time>2021-09-12T09:03:03Z</time>
      </trkpt>
      <trkpt lat="44.07839" lon="6.441">
        <ele>1378.6</ele>
        <time>2021-09-12T09:03:05Z</time>
      </trkpt>
      <trkpt lat="44.07841" lon="6.44103">
        <ele>1378.8</ele>
        <time>2021-09-12T09:03:07Z</time>
      </trkpt>
      <trkpt lat="44.07844" lon="6.44105">
        <ele>1379</ele>
        <time>2021-09-12T09:03:08Z</time>
      </trkpt>
      <trkpt lat="44.07847" lon="6.44107">
        <ele>1379.2</ele>
        <time>2021-09-12T09:03:09Z</time>
      </trkpt>
      <trkpt lat="44.07848" lon="6.44109">
        <ele>1379.2</ele>
        <time>2021-09-12T09:03:10Z</time>
      </trkpt>
      <trkpt lat="44.0785" lon="6.44111">
        <ele>1379.3</ele>
        <time>2021-09-12T09:03:11Z</time>
      </trkpt>
      <trkpt lat="44.07852" lon="6.44113">
        <ele>1379.4</ele>
        <time>2021-09-12T09:03:12Z</time>
      </trkpt>
      <trkpt lat="44.07854" lon="6.44116">
        <ele>1379.6</ele>
        <time>2021-09-12T09:03:13Z</time>
      </trkpt>
      <trkpt lat="44.07855" lon="6.44118">
        <ele>1379.7</ele>
        <time>2021-09-12T09:03:14Z</time>
      </trkpt>
      <trkpt lat="44.07856" lon="6.44121">
        <ele>1379.8</ele>
        <time>2021-09-12T09:03:15Z</time>
      </trkpt>
      <trkpt lat="44.07858" lon="6.44123">
        <ele>1379.9</ele>
        <time>2021-09-12T09:03:16Z</time>
      </trkpt>
      <trkpt lat="44.0786" lon="6.44125">
        <ele>1380</ele>
        <time>2021-09-12T09:03:17Z</time>
      </trkpt>
      <trkpt lat="44.0786" lon="6.44127">
        <ele>1380.1</ele>
        <time>2021-09-12T09:03:18Z</time>
      </trkpt>
      <trkpt lat="44.07862" lon="6.44131">
        <ele>1380.2</ele>
        <time>2021-09-12T09:03:19Z</time>
      </trkpt>
      <trkpt lat="44.07862" lon="6.44137">
        <ele>1380.4</ele>
        <time>2021-09-12T09:03:21Z</time>
      </trkpt>
      <trkpt lat="44.07862" lon="6.44141">
        <ele>1380.5</ele>
        <time>2021-09-12T09:03:22Z</time>
      </trkpt>
      <trkpt lat="44.07861" lon="6.44148">
        <ele>1380.7</ele>
        <time>2021-09-12T09:03:24Z</time>
      </trkpt>
      <trkpt lat="44.07861" lon="6.44151">
        <ele>1380.8</ele>
        <time>2021-09-12T09:03:25Z</time>
      </trkpt>
      <trkpt lat="44.0786" lon="6.44153">
        <ele>1380.9</ele>
        <time>2021-09-12T09:03:26Z</time>
      </trkpt>
      <trkpt lat="44.07857" lon="6.44156">
        <ele>1381</ele>
        <time>2021-09-12T09:03:27Z</time>
      </trkpt>
      <trkpt lat="44.07854" lon="6.44158">
        <ele>1381.2</ele>
        <time>2021-09-12T09:03:28Z</time>
      </trkpt>
      <trkpt lat="44.07852" lon="6.44159">
        <ele>1381.3</ele>
        <time>2021-09-12T09:03:29Z</time>
      </trkpt>
      <trkpt lat="44.07847" lon="6.44162">
        <ele>1381.6</ele>
        <time>2021-09-12T09:03:31Z</time>
      </trkpt>
      <trkpt lat="44.07846" lon="6.44164">
        <ele>1381.7</ele>
        <time>2021-09-12T09:03:32Z</time>
      </trkpt>
      <trkpt lat="44.07844" lon="6.44165">
        <ele>1381.8</ele>
        <time>2021-09-12T09:03:33Z</time>
      </trkpt>
      <trkpt lat="44.07841" lon="6.44166">
        <ele>1382</ele>
        <time>2021-09-12T09:03:34Z</time>
      </trkpt>
      <trkpt lat="44.07838" lon="6.44166">
        <ele>1382.1</ele>
        <time>2021-09-12T09:03:35Z</time>
      </trkpt>
      <trkpt lat="44.07835" lon="6.44168">
        <ele>1382.3</ele>
        <time>2021-09-12T09:03:36Z</time>
      </trkpt>
      <trkpt lat="44.07832" lon="6.4417">
        <ele>1382.5</ele>
        <time>2021-09-12T09:03:38Z</time>
      </trkpt>
      <trkpt lat="44.07831" lon="6.44172">
        <ele>1382.6</ele>
        <time>2021-09-12T09:03:39Z</time>
      </trkpt>
      <trkpt lat="44.07826" lon="6.44176">
        <ele>1382.8</ele>
        <time>2021-09-12T09:03:41Z</time>
      </trkpt>
      <trkpt lat="44.07824" lon="6.44179">
        <ele>1382.9</ele>
        <time>2021-09-12T09:03:43Z</time>
      </trkpt>
      <trkpt lat="44.07822" lon="6.44182">
        <ele>1383</ele>
        <time>2021-09-12T09:03:44Z</time>
      </trkpt>
      <trkpt lat="44.07818" lon="6.44188">
        <ele>1383.2</ele>
        <time>2021-09-12T09:03:46Z</time>
      </trkpt>
      <trkpt lat="44.07817" lon="6.44192">
        <ele>1383.4</ele>
        <time>2021-09-12T09:03:48Z</time>
      </trkpt>
      <trkpt lat="44.07815" lon="6.44197">
        <ele>1383.5</ele>
        <time>2021-09-12T09:03:49Z</time>
      </trkpt>
      <trkpt lat="44.07813" lon="6.44202">
        <ele>1383.7</ele>
        <time>2021-09-12T09:03:51Z</time>
      </trkpt>
      <trkpt lat="44.07812" lon="6.44206">
        <ele>1383.8</ele>
        <time>2021-09-12T09:03:52Z</time>
      </trkpt>
      <trkpt lat="44.07812" lon="6.4421">
        <ele>1383.9</ele>
        <time>2021-09-12T09:03:53Z</time>
      </trkpt>
      <trkpt lat="44.07811" lon="6.44214">
        <ele>1384</ele>
        <time>2021-09-12T09:03:54Z</time>
      </trkpt>
      <trkpt lat="44.0781" lon="6.44218">
        <ele>1384.1</ele>
        <time>2021-09-12T09:03:55Z</time>
      </trkpt>
      <trkpt lat="44.07808" lon="6.44222">
        <ele>1384.2</ele>
        <time>2021-09-12T09:03:57Z</time>
      </trkpt>
      <trkpt lat="44.07806" lon="6.44226">
        <ele>1384.3</ele>
        <time>2021-09-12T09:03:58Z</time>
      </trkpt>
      <trkpt lat="44.07804" lon="6.44233">
        <ele>1384.5</ele>
        <time>2021-09-12T09:04:00Z</time>
      </trkpt>
      <trkpt lat="44.07805" lon="6.44238">
        <ele>1384.7</ele>
        <time>2021-09-12T09:04:01Z</time>
      </trkpt>
      <trkpt lat="44.07805" lon="6.4424">
        <ele>1384.7</ele>
        <time>2021-09-12T09:04:02Z</time>
      </trkpt>
      <trkpt lat="44.07806" lon="6.44244">
        <ele>1384.8</ele>
        <time>2021-09-12T09:04:03Z</time>
      </trkpt>
      <trkpt lat="44.07808" lon="6.44248">
        <ele>1385</ele>
        <time>2021-09-12T09:04:04Z</time>
      </trkpt>
      <trkpt lat="44.07808" lon="6.44253">
        <ele>1385.1</ele>
        <time>2021-09-12T09:04:05Z</time>
      </trkpt>
      <trkpt lat="44.07808" lon="6.44256">
        <ele>1385.2</ele>
        <time>2021-09-12T09:04:06Z</time>
      </trkpt>
      <trkpt lat="44.07806" lon="6.4426">
        <ele>1385.4</ele>
        <time>2021-09-12T09:04:07Z</time>
      </trkpt>
      <trkpt lat="44.07805" lon="6.44262">
        <ele>1385.5</ele>
        <time>2021-09-12T09:04:08Z</time>
      </trkpt>
      <trkpt lat="44.07803" lon="6.44269">
        <ele>1385.7</ele>
        <time>2021-09-12T09:04:10Z</time>
      </trkpt>
      <trkpt lat="44.07803" lon="6.44273">
        <ele>1385.9</ele>
        <time>2021-09-12T09:04:11Z</time>
      </trkpt>
      <trkpt lat="44.07803" lon="6.44275">
        <ele>1386</ele>
        <time>2021-09-12T09:04:12Z</time>
      </trkpt>
      <trkpt lat="44.07804" lon="6.4428">
        <ele>1386.2</ele>
        <time>2021-09-12T09:04:13Z</time>
      </trkpt>
      <trkpt lat="44.07804" lon="6.44283">
        <ele>1386.3</ele>
        <time>2021-09-12T09:04:14Z</time>
      </trkpt>
      <trkpt lat="44.07805" lon="6.44285">
        <ele>1386.4</ele>
        <time>2021-09-12T09:04:15Z</time>
      </trkpt>
      <trkpt lat="44.07806" lon="6.4429">
        <ele>1386.6</ele>
        <time>2021-09-12T09:04:17Z</time>
      </trkpt>
      <trkpt lat="44.07807" lon="6.44294">
        <ele>1386.8</ele>
        <time>2021-09-12T09:04:18Z</time>
      </trkpt>
      <trkpt lat="44.07808" lon="6.44298">
        <ele>1387</ele>
        <time>2021-09-12T09:04:19Z</time>
      </trkpt>
      <trkpt lat="44.07808" lon="6.44303">
        <ele>1387.2</ele>
        <time>2021-09-12T09:04:21Z</time>
      </trkpt>
      <trkpt lat="44.07809" lon="6.44306">
        <ele>1387.3</ele>
        <time>2021-09-12T09:04:22Z</time>
      </trkpt>
      <trkpt lat="44.07808" lon="6.44308">
        <ele>1387.4</ele>
        <time>2021-09-12T09:04:23Z</time>
      </trkpt>
      <trkpt lat="44.07808" lon="6.44313">
        <ele>1387.7</ele>
        <time>2021-09-12T09:04:24Z</time>
      </trkpt>
      <trkpt lat="44.07808" lon="6.44315">
        <ele>1387.8</ele>
        <time>2021-09-12T09:04:25Z</time>
      </trkpt>
      <trkpt lat="44.07807" lon="6.44319">
        <ele>1387.9</ele>
        <time>2021-09-12T09:04:26Z</time>
      </trkpt>
      <trkpt lat="44.07806" lon="6.44324">
        <ele>1388.2</ele>
        <time>2021-09-12T09:04:28Z</time>
      </trkpt>
      <trkpt lat="44.07806" lon="6.44325">
        <ele>1388.2</ele>
        <time>2021-09-12T09:04:29Z</time>
      </trkpt>
      <trkpt lat="44.07805" lon="6.44329">
        <ele>1388.4</ele>
        <time>2021-09-12T09:04:30Z</time>
      </trkpt>
      <trkpt lat="44.07805" lon="6.44331">
        <ele>1388.5</ele>
        <time>2021-09-12T09:04:31Z</time>
      </trkpt>
      <trkpt lat="44.07804" lon="6.44337">
        <ele>1388.8</ele>
        <time>2021-09-12T09:04:33Z</time>
      </trkpt>
      <trkpt lat="44.07803" lon="6.44342">
        <ele>1389.3</ele>
        <time>2021-09-12T09:04:35Z</time>
      </trkpt>
      <trkpt lat="44.07803" lon="6.44346">
        <ele>1389.4</ele>
        <time>2021-09-12T09:04:37Z</time>
      </trkpt>
      <trkpt lat="44.07804" lon="6.44349">
        <ele>1389.5</ele>
        <time>2021-09-12T09:04:39Z</time>
      </trkpt>
      <trkpt lat="44.07806" lon="6.44352">
        <ele>1389.6</ele>
        <time>2021-09-12T09:04:40Z</time>
      </trkpt>
      <trkpt lat="44.07806" lon="6.4435">
        <ele>1389.7</ele>
        <time>2021-09-12T09:04:41Z</time>
      </trkpt>
      <trkpt lat="44.07807" lon="6.44349">
        <ele>1389.7</ele>
        <time>2021-09-12T09:04:42Z</time>
      </trkpt>
      <trkpt lat="44.07813" lon="6.44365">
        <ele>1389.9</ele>
        <time>2021-09-12T09:04:46Z</time>
      </trkpt>
      <trkpt lat="44.0781" lon="6.44369">
        <ele>1389.6</ele>
        <time>2021-09-12T09:04:47Z</time>
      </trkpt>
      <trkpt lat="44.07807" lon="6.4437">
        <ele>1389.4</ele>
        <time>2021-09-12T09:04:48Z</time>
      </trkpt>
      <trkpt lat="44.07794" lon="6.44393">
        <ele>1386.1</ele>
        <time>2021-09-12T09:04:52Z</time>
      </trkpt>
      <trkpt lat="44.07799" lon="6.44399">
        <ele>1384.5</ele>
        <time>2021-09-12T09:04:53Z</time>
      </trkpt>
      <trkpt lat="44.07805" lon="6.44406">
        <ele>1382.5</ele>
        <time>2021-09-12T09:04:54Z</time>
      </trkpt>
      <trkpt lat="44.07809" lon="6.4441">
        <ele>1381.1</ele>
        <time>2021-09-12T09:04:55Z</time>
      </trkpt>
      <trkpt lat="44.07816" lon="6.44416">
        <ele>1379</ele>
        <time>2021-09-12T09:04:56Z</time>
      </trkpt>
      <trkpt lat="44.07823" lon="6.44426">
        <ele>1376.2</ele>
        <time>2021-09-12T09:04:57Z</time>
      </trkpt>
      <trkpt lat="44.07829" lon="6.44432">
        <ele>1374.3</ele>
        <time>2021-09-12T09:04:58Z</time>
      </trkpt>
      <trkpt lat="44.07834" lon="6.44435">
        <ele>1372.9</ele>
        <time>2021-09-12T09:04:59Z</time>
      </trkpt>
      <trkpt lat="44.0784" lon="6.44439">
        <ele>1370.9</ele>
        <time>2021-09-12T09:05:00Z</time>
      </trkpt>
      <trkpt lat="44.0785" lon="6.44441">
        <ele>1368.2</ele>
        <time>2021-09-12T09:05:01Z</time>
      </trkpt>
      <trkpt lat="44.07855" lon="6.44444">
        <ele>1366.9</ele>
        <time>2021-09-12T09:05:02Z</time>
      </trkpt>
      <trkpt lat="44.07861" lon="6.44451">
        <ele>1365.2</ele>
        <time>2021-09-12T09:05:03Z</time>
      </trkpt>
      <trkpt lat="44.07867" lon="6.44463">
        <ele>1363.1</ele>
        <time>2021-09-12T09:05:04Z</time>
      </trkpt>
      <trkpt lat="44.0787" lon="6.44473">
        <ele>1361.6</ele>
        <time>2021-09-12T09:05:05Z</time>
      </trkpt>
      <trkpt lat="44.07872" lon="6.44494">
        <ele>1359.1</ele>
        <time>2021-09-12T09:05:07Z</time>
      </trkpt>
      <trkpt lat="44.07873" lon="6.44501">
        <ele>1358.2</ele>
        <time>2021-09-12T09:05:08Z</time>
      </trkpt>
      <trkpt lat="44.07874" lon="6.44512">
        <ele>1356.9</ele>
        <time>2021-09-12T09:05:09Z</time>
      </trkpt>
      <trkpt lat="44.07874" lon="6.44521">
        <ele>1355.8</ele>
        <time>2021-09-12T09:05:10Z</time>
      </trkpt>
      <trkpt lat="44.07875" lon="6.44529">
        <ele>1354.8</ele>
        <time>2021-09-12T09:05:11Z</time>
      </trkpt>
      <trkpt lat="44.07877" lon="6.44544">
        <ele>1353</ele>
        <time>2021-09-12T09:05:12Z</time>
      </trkpt>
      <trkpt lat="44.07883" lon="6.44552">
        <ele>1351.3</ele>
        <time>2021-09-12T09:05:13Z</time>
      </trkpt>
      <trkpt lat="44.07888" lon="6.44554">
        <ele>1350.3</ele>
        <time>2021-09-12T09:05:14Z</time>
      </trkpt>
      <trkpt lat="44.07899" lon="6.44558">
        <ele>1347.9</ele>
        <time>2021-09-12T09:05:15Z</time>
      </trkpt>
      <trkpt lat="44.07904" lon="6.4456">
        <ele>1346.6</ele>
        <time>2021-09-12T09:05:16Z</time>
      </trkpt>
      <trkpt lat="44.07909" lon="6.44564">
        <ele>1345.4</ele>
        <time>2021-09-12T09:05:17Z</time>
      </trkpt>
      <trkpt lat="44.07918" lon="6.44576">
        <ele>1342.8</ele>
        <time>2021-09-12T09:05:18Z</time>
      </trkpt>
      <trkpt lat="44.0792" lon="6.44592">
        <ele>1340</ele>
        <time>2021-09-12T09:05:20Z</time>
      </trkpt>
      <trkpt lat="44.07922" lon="6.44605">
        <ele>1337.7</ele>
        <time>2021-09-12T09:05:21Z</time>
      </trkpt>
      <trkpt lat="44.07928" lon="6.44614">
        <ele>1335.4</ele>
        <time>2021-09-12T09:05:22Z</time>
      </trkpt>
      <trkpt lat="44.07931" lon="6.44617">
        <ele>1334.4</ele>
        <time>2021-09-12T09:05:23Z</time>
      </trkpt>
      <trkpt lat="44.07942" lon="6.44621">
        <ele>1331.8</ele>
        <time>2021-09-12T09:05:24Z</time>
      </trkpt>
      <trkpt lat="44.07954" lon="6.44615">
        <ele>1329.1</ele>
        <time>2021-09-12T09:05:26Z</time>
      </trkpt>
      <trkpt lat="44.07972" lon="6.44612">
        <ele>1325</ele>
        <time>2021-09-12T09:05:28Z</time>
      </trkpt>
      <trkpt lat="44.07978" lon="6.44615">
        <ele>1323.6</ele>
        <time>2021-09-12T09:05:29Z</time>
      </trkpt>
      <trkpt lat="44.07989" lon="6.44631">
        <ele>1319.7</ele>
        <time>2021-09-12T09:05:31Z</time>
      </trkpt>
      <trkpt lat="44.07987" lon="6.44651">
        <ele>1316.3</ele>
        <time>2021-09-12T09:05:33Z</time>
      </trkpt>
      <trkpt lat="44.07987" lon="6.44665">
        <ele>1314.4</ele>
        <time>2021-09-12T09:05:35Z</time>
      </trkpt>
      <trkpt lat="44.0799" lon="6.44683">
        <ele>1312.2</ele>
        <time>2021-09-12T09:05:36Z</time>
      </trkpt>
      <trkpt lat="44.07991" lon="6.44692">
        <ele>1311.1</ele>
        <time>2021-09-12T09:05:37Z</time>
      </trkpt>
      <trkpt lat="44.07994" lon="6.44706">
        <ele>1309.4</ele>
        <time>2021-09-12T09:05:38Z</time>
      </trkpt>
      <trkpt lat="44.07995" lon="6.44716">
        <ele>1308.1</ele>
        <time>2021-09-12T09:05:39Z</time>
      </trkpt>
      <trkpt lat="44.07996" lon="6.44721">
        <ele>1307.5</ele>
        <time>2021-09-12T09:05:40Z</time>
      </trkpt>
      <trkpt lat="44.07999" lon="6.44731">
        <ele>1306.2</ele>
        <time>2021-09-12T09:05:41Z</time>
      </trkpt>
      <trkpt lat="44.08002" lon="6.44741">
        <ele>1305</ele>
        <time>2021-09-12T09:05:42Z</time>
      </trkpt>
      <trkpt lat="44.08003" lon="6.44756">
        <ele>1303.5</ele>
        <time>2021-09-12T09:05:43Z</time>
      </trkpt>
      <trkpt lat="44.08004" lon="6.44768">
        <ele>1302.2</ele>
        <time>2021-09-12T09:05:44Z</time>
      </trkpt>
      <trkpt lat="44.08003" lon="6.44782">
        <ele>1300.6</ele>
        <time>2021-09-12T09:05:46Z</time>
      </trkpt>
      <trkpt lat="44.08003" lon="6.44796">
        <ele>1298.6</ele>
        <time>2021-09-12T09:05:47Z</time>
      </trkpt>
      <trkpt lat="44.08005" lon="6.44805">
        <ele>1297.3</ele>
        <time>2021-09-12T09:05:48Z</time>
      </trkpt>
      <trkpt lat="44.08011" lon="6.44815">
        <ele>1295.5</ele>
        <time>2021-09-12T09:05:49Z</time>
      </trkpt>
      <trkpt lat="44.08014" lon="6.4482">
        <ele>1294.7</ele>
        <time>2021-09-12T09:05:50Z</time>
      </trkpt>
      <trkpt lat="44.08022" lon="6.44831">
        <ele>1293</ele>
        <time>2021-09-12T09:05:51Z</time>
      </trkpt>
      <trkpt lat="44.08026" lon="6.44838">
        <ele>1292.7</ele>
        <time>2021-09-12T09:05:52Z</time>
      </trkpt>
      <trkpt lat="44.08027" lon="6.4485">
        <ele>1293.2</ele>
        <time>2021-09-12T09:05:53Z</time>
      </trkpt>
      <trkpt lat="44.08025" lon="6.44856">
        <ele>1293.5</ele>
        <time>2021-09-12T09:05:54Z</time>
      </trkpt>
      <trkpt lat="44.08022" lon="6.44861">
        <ele>1293.8</ele>
        <time>2021-09-12T09:05:55Z</time>
      </trkpt>
      <trkpt lat="44.08019" lon="6.44869">
        <ele>1294.4</ele>
        <time>2021-09-12T09:05:56Z</time>
      </trkpt>
      <trkpt lat="44.08018" lon="6.44873">
        <ele>1294.6</ele>
        <time>2021-09-12T09:05:58Z</time>
      </trkpt>
      <trkpt lat="44.08017" lon="6.44877">
        <ele>1294.9</ele>
        <time>2021-09-12T09:05:59Z</time>
      </trkpt>
      <trkpt lat="44.08016" lon="6.44882">
        <ele>1295.2</ele>
        <time>2021-09-12T09:06:01Z</time>
      </trkpt>
      <trkpt lat="44.08015" lon="6.44886">
        <ele>1295.4</ele>
        <time>2021-09-12T09:06:03Z</time>
      </trkpt>
      <trkpt lat="44.08013" lon="6.4489">
        <ele>1295.7</ele>
        <time>2021-09-12T09:06:05Z</time>
      </trkpt>
      <trkpt lat="44.08012" lon="6.44891">
        <ele>1295.8</ele>
        <time>2021-09-12T09:06:06Z</time>
      </trkpt>
      <trkpt lat="44.08011" lon="6.44896">
        <ele>1296.1</ele>
        <time>2021-09-12T09:06:08Z</time>
      </trkpt>
      <trkpt lat="44.08011" lon="6.44897">
        <ele>1296.2</ele>
        <time>2021-09-12T09:06:09Z</time>
      </trkpt>
      <trkpt lat="44.08011" lon="6.449">
        <ele>1296.4</ele>
        <time>2021-09-12T09:06:10Z</time>
      </trkpt>
      <trkpt lat="44.08011" lon="6.44902">
        <ele>1296.5</ele>
        <time>2021-09-12T09:06:11Z</time>
      </trkpt>
      <trkpt lat="44.08008" lon="6.44908">
        <ele>1296.9</ele>
        <time>2021-09-12T09:06:15Z</time>
      </trkpt>
      <trkpt lat="44.08007" lon="6.4491">
        <ele>1297</ele>
        <time>2021-09-12T09:06:16Z</time>
      </trkpt>
      <trkpt lat="44.08006" lon="6.44911">
        <ele>1297.1</ele>
        <time>2021-09-12T09:06:17Z</time>
      </trkpt>
      <trkpt lat="44.08004" lon="6.44915">
        <ele>1297.4</ele>
        <time>2021-09-12T09:06:19Z</time>
      </trkpt>
      <trkpt lat="44.08003" lon="6.44916">
        <ele>1297.5</ele>
        <time>2021-09-12T09:06:20Z</time>
      </trkpt>
      <trkpt lat="44.08003" lon="6.44918">
        <ele>1297.6</ele>
        <time>2021-09-12T09:06:21Z</time>
      </trkpt>
      <trkpt lat="44.08004" lon="6.4492">
        <ele>1297.6</ele>
        <time>2021-09-12T09:06:22Z</time>
      </trkpt>
      <trkpt lat="44.08006" lon="6.44923">
        <ele>1297.8</ele>
        <time>2021-09-12T09:06:24Z</time>
      </trkpt>
      <trkpt lat="44.08006" lon="6.44927">
        <ele>1298</ele>
        <time>2021-09-12T09:06:26Z</time>
      </trkpt>
      <trkpt lat="44.08006" lon="6.44931">
        <ele>1298.1</ele>
        <time>2021-09-12T09:06:27Z</time>
      </trkpt>
      <trkpt lat="44.08007" lon="6.44933">
        <ele>1298.2</ele>
        <time>2021-09-12T09:06:28Z</time>
      </trkpt>
      <trkpt lat="44.08006" lon="6.44936">
        <ele>1298.3</ele>
        <time>2021-09-12T09:06:29Z</time>
      </trkpt>
      <trkpt lat="44.08006" lon="6.44938">
        <ele>1298.4</ele>
        <time>2021-09-12T09:06:30Z</time>
      </trkpt>
      <trkpt lat="44.08003" lon="6.44943">
        <ele>1298.7</ele>
        <time>2021-09-12T09:06:33Z</time>
      </trkpt>
      <trkpt lat="44.08001" lon="6.44947">
        <ele>1298.8</ele>
        <time>2021-09-12T09:06:34Z</time>
      </trkpt>
      <trkpt lat="44.08" lon="6.4495">
        <ele>1298.9</ele>
        <time>2021-09-12T09:06:36Z</time>
      </trkpt>
      <trkpt lat="44.07999" lon="6.44955">
        <ele>1299.1</ele>
        <time>2021-09-12T09:06:37Z</time>
      </trkpt>
      <trkpt lat="44.07997" lon="6.44959">
        <ele>1299.3</ele>
        <time>2021-09-12T09:06:39Z</time>
      </trkpt>
      <trkpt lat="44.07996" lon="6.44961">
        <ele>1299.3</ele>
        <time>2021-09-12T09:06:40Z</time>
      </trkpt>
      <trkpt lat="44.07995" lon="6.44966">
        <ele>1299.5</ele>
        <time>2021-09-12T09:06:41Z</time>
      </trkpt>
      <trkpt lat="44.07993" lon="6.4497">
        <ele>1299.6</ele>
        <time>2021-09-12T09:06:43Z</time>
      </trkpt>
      <trkpt lat="44.07991" lon="6.44972">
        <ele>1299.6</ele>
        <time>2021-09-12T09:06:44Z</time>
      </trkpt>
      <trkpt lat="44.07987" lon="6.44977">
        <ele>1299.8</ele>
        <time>2021-09-12T09:06:46Z</time>
      </trkpt>
      <trkpt lat="44.07985" lon="6.44981">
        <ele>1299.9</ele>
        <time>2021-09-12T09:06:48Z</time>
      </trkpt>
      <trkpt lat="44.07981" lon="6.44987">
        <ele>1300.1</ele>
        <time>2021-09-12T09:06:50Z</time>
      </trkpt>
      <trkpt lat="44.07979" lon="6.4499">
        <ele>1300.2</ele>
        <time>2021-09-12T09:06:51Z</time>
      </trkpt>
      <trkpt lat="44.07977" lon="6.44995">
        <ele>1300.3</ele>
        <time>2021-09-12T09:06:52Z</time>
      </trkpt>
      <trkpt lat="44.07976" lon="6.44999">
        <ele>1300.4</ele>
        <time>2021-09-12T09:06:54Z</time>
      </trkpt>
      <trkpt lat="44.07974" lon="6.45002">
        <ele>1300.5</ele>
        <time>2021-09-12T09:06:55Z</time>
      </trkpt>
      <trkpt lat="44.07972" lon="6.45006">
        <ele>1300.6</ele>
        <time>2021-09-12T09:06:56Z</time>
      </trkpt>
      <trkpt lat="44.0797" lon="6.45011">
        <ele>1300.7</ele>
        <time>2021-09-12T09:06:57Z</time>
      </trkpt>
      <trkpt lat="44.07969" lon="6.45014">
        <ele>1300.8</ele>
        <time>2021-09-12T09:06:58Z</time>
      </trkpt>
      <trkpt lat="44.07968" lon="6.45021">
        <ele>1300.9</ele>
        <time>2021-09-12T09:07:00Z</time>
      </trkpt>
      <trkpt lat="44.07968" lon="6.45026">
        <ele>1301.1</ele>
        <time>2021-09-12T09:07:01Z</time>
      </trkpt>
      <trkpt lat="44.07967" lon="6.4503">
        <ele>1301.1</ele>
        <time>2021-09-12T09:07:02Z</time>
      </trkpt>
      <trkpt lat="44.07965" lon="6.45038">
        <ele>1301.3</ele>
        <time>2021-09-12T09:07:04Z</time>
      </trkpt>
      <trkpt lat="44.07962" lon="6.45044">
        <ele>1301.5</ele>
        <time>2021-09-12T09:07:06Z</time>
      </trkpt>
      <trkpt lat="44.07959" lon="6.45054">
        <ele>1301.8</ele>
        <time>2021-09-12T09:07:09Z</time>
      </trkpt>
      <trkpt lat="44.07957" lon="6.45063">
        <ele>1302.1</ele>
        <time>2021-09-12T09:07:11Z</time>
      </trkpt>
      <trkpt lat="44.07956" lon="6.45069">
        <ele>1302.2</ele>
        <time>2021-09-12T09:07:13Z</time>
      </trkpt>
      <trkpt lat="44.07955" lon="6.45076">
        <ele>1302.4</ele>
        <time>2021-09-12T09:07:14Z</time>
      </trkpt>
      <trkpt lat="44.07954" lon="6.45084">
        <ele>1302.6</ele>
        <time>2021-09-12T09:07:16Z</time>
      </trkpt>
      <trkpt lat="44.07951" lon="6.45091">
        <ele>1302.7</ele>
        <time>2021-09-12T09:07:18Z</time>
      </trkpt>
      <trkpt lat="44.0795" lon="6.45097">
        <ele>1302.8</ele>
        <time>2021-09-12T09:07:20Z</time>
      </trkpt>
      <trkpt lat="44.07948" lon="6.45104">
        <ele>1302.9</ele>
        <time>2021-09-12T09:07:22Z</time>
      </trkpt>
      <trkpt lat="44.07947" lon="6.45108">
        <ele>1303</ele>
        <time>2021-09-12T09:07:23Z</time>
      </trkpt>
      <trkpt lat="44.07943" lon="6.45116">
        <ele>1303.2</ele>
        <time>2021-09-12T09:07:25Z</time>
      </trkpt>
      <trkpt lat="44.07942" lon="6.45122">
        <ele>1303.4</ele>
        <time>2021-09-12T09:07:27Z</time>
      </trkpt>
      <trkpt lat="44.07941" lon="6.45126">
        <ele>1303.5</ele>
        <time>2021-09-12T09:07:28Z</time>
      </trkpt>
      <trkpt lat="44.07938" lon="6.45133">
        <ele>1303.6</ele>
        <time>2021-09-12T09:07:30Z</time>
      </trkpt>
      <trkpt lat="44.07937" lon="6.45137">
        <ele>1303.7</ele>
        <time>2021-09-12T09:07:31Z</time>
      </trkpt>
      <trkpt lat="44.07936" lon="6.45141">
        <ele>1303.8</ele>
        <time>2021-09-12T09:07:32Z</time>
      </trkpt>
      <trkpt lat="44.07934" lon="6.45148">
        <ele>1303.9</ele>
        <time>2021-09-12T09:07:34Z</time>
      </trkpt>
      <trkpt lat="44.07931" lon="6.45156">
        <ele>1304.1</ele>
        <time>2021-09-12T09:07:36Z</time>
      </trkpt>
      <trkpt lat="44.07928" lon="6.45162">
        <ele>1304.2</ele>
        <time>2021-09-12T09:07:38Z</time>
      </trkpt>
      <trkpt lat="44.07927" lon="6.45168">
        <ele>1304.3</ele>
        <time>2021-09-12T09:07:39Z</time>
      </trkpt>
      <trkpt lat="44.07926" lon="6.45184">
        <ele>1304.6</ele>
        <time>2021-09-12T09:07:43Z</time>
      </trkpt>
      <trkpt lat="44.07926" lon="6.4519">
        <ele>1304.8</ele>
        <time>2021-09-12T09:07:45Z</time>
      </trkpt>
      <trkpt lat="44.07924" lon="6.45197">
        <ele>1304.9</ele>
        <time>2021-09-12T09:07:47Z</time>
      </trkpt>
      <trkpt lat="44.07922" lon="6.45206">
        <ele>1305.2</ele>
        <time>2021-09-12T09:07:49Z</time>
      </trkpt>
      <trkpt lat="44.0792" lon="6.45215">
        <ele>1305.4</ele>
        <time>2021-09-12T09:07:51Z</time>
      </trkpt>
      <trkpt lat="44.07919" lon="6.45224">
        <ele>1305.6</ele>
        <time>2021-09-12T09:07:54Z</time>
      </trkpt>
      <trkpt lat="44.07919" lon="6.4523">
        <ele>1305.7</ele>
        <time>2021-09-12T09:07:55Z</time>
      </trkpt>
      <trkpt lat="44.07918" lon="6.45233">
        <ele>1305.8</ele>
        <time>2021-09-12T09:07:56Z</time>
      </trkpt>
      <trkpt lat="44.07915" lon="6.45241">
        <ele>1306</ele>
        <time>2021-09-12T09:07:58Z</time>
      </trkpt>
      <trkpt lat="44.07912" lon="6.4525">
        <ele>1306.1</ele>
        <time>2021-09-12T09:08:00Z</time>
      </trkpt>
      <trkpt lat="44.0791" lon="6.45257">
        <ele>1306.2</ele>
        <time>2021-09-12T09:08:02Z</time>
      </trkpt>
      <trkpt lat="44.07908" lon="6.45269">
        <ele>1306.4</ele>
        <time>2021-09-12T09:08:05Z</time>
      </trkpt>
      <trkpt lat="44.07906" lon="6.45279">
        <ele>1306.6</ele>
        <time>2021-09-12T09:08:08Z</time>
      </trkpt>
      <trkpt lat="44.07906" lon="6.45287">
        <ele>1306.7</ele>
        <time>2021-09-12T09:08:10Z</time>
      </trkpt>
      <trkpt lat="44.07904" lon="6.45296">
        <ele>1306.9</ele>
        <time>2021-09-12T09:08:12Z</time>
      </trkpt>
      <trkpt lat="44.07901" lon="6.45307">
        <ele>1307.1</ele>
        <time>2021-09-12T09:08:15Z</time>
      </trkpt>
      <trkpt lat="44.079" lon="6.45311">
        <ele>1307.2</ele>
        <time>2021-09-12T09:08:16Z</time>
      </trkpt>
      <trkpt lat="44.07898" lon="6.45316">
        <ele>1307.4</ele>
        <time>2021-09-12T09:08:17Z</time>
      </trkpt>
      <trkpt lat="44.07898" lon="6.45325">
        <ele>1307.5</ele>
        <time>2021-09-12T09:08:19Z</time>
      </trkpt>
      <trkpt lat="44.07898" lon="6.4533">
        <ele>1307.7</ele>
        <time>2021-09-12T09:08:21Z</time>
      </trkpt>
      <trkpt lat="44.079" lon="6.45338">
        <ele>1307.8</ele>
        <time>2021-09-12T09:08:22Z</time>
      </trkpt>
      <trkpt lat="44.07901" lon="6.45343">
        <ele>1307.9</ele>
        <time>2021-09-12T09:08:24Z</time>
      </trkpt>
      <trkpt lat="44.07902" lon="6.45349">
        <ele>1308</ele>
        <time>2021-09-12T09:08:25Z</time>
      </trkpt>
      <trkpt lat="44.07902" lon="6.45357">
        <ele>1308.2</ele>
        <time>2021-09-12T09:08:27Z</time>
      </trkpt>
      <trkpt lat="44.07902" lon="6.45364">
        <ele>1308.3</ele>
        <time>2021-09-12T09:08:29Z</time>
      </trkpt>
      <trkpt lat="44.07902" lon="6.4537">
        <ele>1308.4</ele>
        <time>2021-09-12T09:08:30Z</time>
      </trkpt>
      <trkpt lat="44.07902" lon="6.45377">
        <ele>1308.6</ele>
        <time>2021-09-12T09:08:32Z</time>
      </trkpt>
      <trkpt lat="44.07903" lon="6.45383">
        <ele>1308.8</ele>
        <time>2021-09-12T09:08:33Z</time>
      </trkpt>
      <trkpt lat="44.07903" lon="6.45391">
        <ele>1309</ele>
        <time>2021-09-12T09:08:35Z</time>
      </trkpt>
      <trkpt lat="44.07903" lon="6.45395">
        <ele>1309.1</ele>
        <time>2021-09-12T09:08:36Z</time>
      </trkpt>
      <trkpt lat="44.07904" lon="6.45402">
        <ele>1309.3</ele>
        <time>2021-09-12T09:08:38Z</time>
      </trkpt>
      <trkpt lat="44.07903" lon="6.45406">
        <ele>1309.3</ele>
        <time>2021-09-12T09:08:39Z</time>
      </trkpt>
      <trkpt lat="44.07901" lon="6.45411">
        <ele>1309.3</ele>
        <time>2021-09-12T09:08:41Z</time>
      </trkpt>
      <trkpt lat="44.07899" lon="6.45418">
        <ele>1309.3</ele>
        <time>2021-09-12T09:08:42Z</time>
      </trkpt>
      <trkpt lat="44.07898" lon="6.45425">
        <ele>1309.2</ele>
        <time>2021-09-12T09:08:44Z</time>
      </trkpt>
      <trkpt lat="44.07896" lon="6.45431">
        <ele>1309</ele>
        <time>2021-09-12T09:08:46Z</time>
      </trkpt>
      <trkpt lat="44.07895" lon="6.45437">
        <ele>1308.8</ele>
        <time>2021-09-12T09:08:47Z</time>
      </trkpt>
      <trkpt lat="44.07888" lon="6.45454">
        <ele>1308.1</ele>
        <time>2021-09-12T09:08:51Z</time>
      </trkpt>
      <trkpt lat="44.07884" lon="6.45461">
        <ele>1307.7</ele>
        <time>2021-09-12T09:08:52Z</time>
      </trkpt>
      <trkpt lat="44.0788" lon="6.45468">
        <ele>1307.3</ele>
        <time>2021-09-12T09:08:54Z</time>
      </trkpt>
      <trkpt lat="44.07876" lon="6.45476">
        <ele>1306.8</ele>
        <time>2021-09-12T09:08:56Z</time>
      </trkpt>
      <trkpt lat="44.07872" lon="6.45483">
        <ele>1306.4</ele>
        <time>2021-09-12T09:08:57Z</time>
      </trkpt>
      <trkpt lat="44.07868" lon="6.45489">
        <ele>1305.9</ele>
        <time>2021-09-12T09:08:58Z</time>
      </trkpt>
      <trkpt lat="44.0786" lon="6.45503">
        <ele>1305.5</ele>
        <time>2021-09-12T09:09:00Z</time>
      </trkpt>
      <trkpt lat="44.07856" lon="6.45509">
        <ele>1305.5</ele>
        <time>2021-09-12T09:09:01Z</time>
      </trkpt>
      <trkpt lat="44.07848" lon="6.45521">
        <ele>1305.7</ele>
        <time>2021-09-12T09:09:03Z</time>
      </trkpt>
      <trkpt lat="44.07845" lon="6.45526">
        <ele>1305.9</ele>
        <time>2021-09-12T09:09:04Z</time>
      </trkpt>
      <trkpt lat="44.07841" lon="6.45533">
        <ele>1306.2</ele>
        <time>2021-09-12T09:09:05Z</time>
      </trkpt>
      <trkpt lat="44.07839" lon="6.45538">
        <ele>1306.4</ele>
        <time>2021-09-12T09:09:06Z</time>
      </trkpt>
      <trkpt lat="44.07834" lon="6.45546">
        <ele>1306.9</ele>
        <time>2021-09-12T09:09:08Z</time>
      </trkpt>
      <trkpt lat="44.07832" lon="6.45551">
        <ele>1307.2</ele>
        <time>2021-09-12T09:09:09Z</time>
      </trkpt>
      <trkpt lat="44.07826" lon="6.45559">
        <ele>1307.7</ele>
        <time>2021-09-12T09:09:11Z</time>
      </trkpt>
      <trkpt lat="44.07824" lon="6.45563">
        <ele>1308</ele>
        <time>2021-09-12T09:09:12Z</time>
      </trkpt>
      <trkpt lat="44.07821" lon="6.45567">
        <ele>1308.3</ele>
        <time>2021-09-12T09:09:13Z</time>
      </trkpt>
      <trkpt lat="44.07819" lon="6.45569">
        <ele>1308.5</ele>
        <time>2021-09-12T09:09:14Z</time>
      </trkpt>
      <trkpt lat="44.07817" lon="6.45572">
        <ele>1308.7</ele>
        <time>2021-09-12T09:09:15Z</time>
      </trkpt>
      <trkpt lat="44.07815" lon="6.45576">
        <ele>1309</ele>
        <time>2021-09-12T09:09:17Z</time>
      </trkpt>
      <trkpt lat="44.07813" lon="6.45583">
        <ele>1309.3</ele>
        <time>2021-09-12T09:09:20Z</time>
      </trkpt>
      <trkpt lat="44.07812" lon="6.45586">
        <ele>1309.4</ele>
        <time>2021-09-12T09:09:21Z</time>
      </trkpt>
      <trkpt lat="44.0781" lon="6.45588">
        <ele>1309.5</ele>
        <time>2021-09-12T09:09:23Z</time>
      </trkpt>
      <trkpt lat="44.07808" lon="6.45591">
        <ele>1309.7</ele>
        <time>2021-09-12T09:09:25Z</time>
      </trkpt>
      <trkpt lat="44.07805" lon="6.45594">
        <ele>1309.9</ele>
        <time>2021-09-12T09:09:27Z</time>
      </trkpt>
      <trkpt lat="44.07802" lon="6.45598">
        <ele>1310</ele>
        <time>2021-09-12T09:09:29Z</time>
      </trkpt>
      <trkpt lat="44.07799" lon="6.45602">
        <ele>1310.1</ele>
        <time>2021-09-12T09:09:31Z</time>
      </trkpt>
      <trkpt lat="44.07797" lon="6.45606">
        <ele>1310.2</ele>
        <time>2021-09-12T09:09:33Z</time>
      </trkpt>
      <trkpt lat="44.07792" lon="6.4561">
        <ele>1310.2</ele>
        <time>2021-09-12T09:09:35Z</time>
      </trkpt>
      <trkpt lat="44.07786" lon="6.45613">
        <ele>1310.1</ele>
        <time>2021-09-12T09:09:38Z</time>
      </trkpt>
      <trkpt lat="44.07781" lon="6.45615">
        <ele>1310.1</ele>
        <time>2021-09-12T09:09:40Z</time>
      </trkpt>
      <trkpt lat="44.07773" lon="6.45618">
        <ele>1310</ele>
        <time>2021-09-12T09:09:43Z</time>
      </trkpt>
      <trkpt lat="44.07769" lon="6.45619">
        <ele>1309.9</ele>
        <time>2021-09-12T09:09:44Z</time>
      </trkpt>
      <trkpt lat="44.07765" lon="6.45622">
        <ele>1309.8</ele>
        <time>2021-09-12T09:09:46Z</time>
      </trkpt>
      <trkpt lat="44.0776" lon="6.45625">
        <ele>1309.7</ele>
        <time>2021-09-12T09:09:48Z</time>
      </trkpt>
      <trkpt lat="44.07755" lon="6.45628">
        <ele>1309.7</ele>
        <time>2021-09-12T09:09:49Z</time>
      </trkpt>
      <trkpt lat="44.07751" lon="6.45631">
        <ele>1309.7</ele>
        <time>2021-09-12T09:09:50Z</time>
      </trkpt>
      <trkpt lat="44.07748" lon="6.45635">
        <ele>1309.8</ele>
        <time>2021-09-12T09:09:51Z</time>
      </trkpt>
      <trkpt lat="44.07745" lon="6.45638">
        <ele>1309.8</ele>
        <time>2021-09-12T09:09:52Z</time>
      </trkpt>
      <trkpt lat="44.07738" lon="6.45642">
        <ele>1310</ele>
        <time>2021-09-12T09:09:54Z</time>
      </trkpt>
      <trkpt lat="44.07734" lon="6.45647">
        <ele>1310.1</ele>
        <time>2021-09-12T09:09:56Z</time>
      </trkpt>
      <trkpt lat="44.0773" lon="6.45651">
        <ele>1310.2</ele>
        <time>2021-09-12T09:09:57Z</time>
      </trkpt>
      <trkpt lat="44.07727" lon="6.45654">
        <ele>1310.3</ele>
        <time>2021-09-12T09:09:58Z</time>
      </trkpt>
      <trkpt lat="44.07723" lon="6.45659">
        <ele>1310.4</ele>
        <time>2021-09-12T09:09:59Z</time>
      </trkpt>
      <trkpt lat="44.0772" lon="6.45663">
        <ele>1310.5</ele>
        <time>2021-09-12T09:10:01Z</time>
      </trkpt>
      <trkpt lat="44.07718" lon="6.45669">
        <ele>1310.7</ele>
        <time>2021-09-12T09:10:02Z</time>
      </trkpt>
      <trkpt lat="44.07715" lon="6.45673">
        <ele>1310.8</ele>
        <time>2021-09-12T09:10:03Z</time>
      </trkpt>
      <trkpt lat="44.07713" lon="6.45678">
        <ele>1310.9</ele>
        <time>2021-09-12T09:10:04Z</time>
      </trkpt>
      <trkpt lat="44.07708" lon="6.45682">
        <ele>1311.1</ele>
        <time>2021-09-12T09:10:06Z</time>
      </trkpt>
      <trkpt lat="44.07703" lon="6.45688">
        <ele>1311.3</ele>
        <time>2021-09-12T09:10:08Z</time>
      </trkpt>
      <trkpt lat="44.07701" lon="6.45691">
        <ele>1311.4</ele>
        <time>2021-09-12T09:10:09Z</time>
      </trkpt>
      <trkpt lat="44.07698" lon="6.45696">
        <ele>1311.5</ele>
        <time>2021-09-12T09:10:11Z</time>
      </trkpt>
      <trkpt lat="44.07696" lon="6.457">
        <ele>1311.6</ele>
        <time>2021-09-12T09:10:12Z</time>
      </trkpt>
      <trkpt lat="44.07693" lon="6.45704">
        <ele>1311.7</ele>
        <time>2021-09-12T09:10:13Z</time>
      </trkpt>
      <trkpt lat="44.07692" lon="6.45707">
        <ele>1311.8</ele>
        <time>2021-09-12T09:10:14Z</time>
      </trkpt>
      <trkpt lat="44.07689" lon="6.45712">
        <ele>1311.9</ele>
        <time>2021-09-12T09:10:16Z</time>
      </trkpt>
      <trkpt lat="44.07689" lon="6.45716">
        <ele>1312</ele>
        <time>2021-09-12T09:10:17Z</time>
      </trkpt>
      <trkpt lat="44.07688" lon="6.4572">
        <ele>1312.1</ele>
        <time>2021-09-12T09:10:18Z</time>
      </trkpt>
      <trkpt lat="44.07685" lon="6.45724">
        <ele>1312.2</ele>
        <time>2021-09-12T09:10:19Z</time>
      </trkpt>
      <trkpt lat="44.07681" lon="6.45726">
        <ele>1312.3</ele>
        <time>2021-09-12T09:10:20Z</time>
      </trkpt>
      <trkpt lat="44.07676" lon="6.45728">
        <ele>1312.5</ele>
        <time>2021-09-12T09:10:22Z</time>
      </trkpt>
      <trkpt lat="44.07673" lon="6.45729">
        <ele>1312.6</ele>
        <time>2021-09-12T09:10:24Z</time>
      </trkpt>
      <trkpt lat="44.07668" lon="6.4573">
        <ele>1312.7</ele>
        <time>2021-09-12T09:10:25Z</time>
      </trkpt>
      <trkpt lat="44.07663" lon="6.45731">
        <ele>1312.9</ele>
        <time>2021-09-12T09:10:27Z</time>
      </trkpt>
      <trkpt lat="44.07654" lon="6.45733">
        <ele>1313.2</ele>
        <time>2021-09-12T09:10:30Z</time>
      </trkpt>
      <trkpt lat="44.07644" lon="6.45733">
        <ele>1313.5</ele>
        <time>2021-09-12T09:10:33Z</time>
      </trkpt>
      <trkpt lat="44.07638" lon="6.45733">
        <ele>1313.6</ele>
        <time>2021-09-12T09:10:35Z</time>
      </trkpt>
      <trkpt lat="44.07631" lon="6.45732">
        <ele>1313.7</ele>
        <time>2021-09-12T09:10:38Z</time>
      </trkpt>
      <trkpt lat="44.07626" lon="6.45731">
        <ele>1313.8</ele>
        <time>2021-09-12T09:10:39Z</time>
      </trkpt>
      <trkpt lat="44.07619" lon="6.45731">
        <ele>1313.9</ele>
        <time>2021-09-12T09:10:42Z</time>
      </trkpt>
      <trkpt lat="44.07609" lon="6.45732">
        <ele>1314</ele>
        <time>2021-09-12T09:10:45Z</time>
      </trkpt>
      <trkpt lat="44.07602" lon="6.45732">
        <ele>1314.1</ele>
        <time>2021-09-12T09:10:48Z</time>
      </trkpt>
      <trkpt lat="44.07592" lon="6.45732">
        <ele>1314.1</ele>
        <time>2021-09-12T09:10:51Z</time>
      </trkpt>
      <trkpt lat="44.07587" lon="6.45736">
        <ele>1314.1</ele>
        <time>2021-09-12T09:10:53Z</time>
      </trkpt>
      <trkpt lat="44.07578" lon="6.45739">
        <ele>1314</ele>
        <time>2021-09-12T09:10:56Z</time>
      </trkpt>
      <trkpt lat="44.07574" lon="6.45743">
        <ele>1313.9</ele>
        <time>2021-09-12T09:10:57Z</time>
      </trkpt>
      <trkpt lat="44.07572" lon="6.45747">
        <ele>1313.8</ele>
        <time>2021-09-12T09:10:58Z</time>
      </trkpt>
      <trkpt lat="44.07569" lon="6.45755">
        <ele>1313.7</ele>
        <time>2021-09-12T09:11:00Z</time>
      </trkpt>
      <trkpt lat="44.07569" lon="6.45765">
        <ele>1313.7</ele>
        <time>2021-09-12T09:11:02Z</time>
      </trkpt>
      <trkpt lat="44.0757" lon="6.45772">
        <ele>1313.7</ele>
        <time>2021-09-12T09:11:03Z</time>
      </trkpt>
      <trkpt lat="44.0757" lon="6.45778">
        <ele>1313.8</ele>
        <time>2021-09-12T09:11:04Z</time>
      </trkpt>
      <trkpt lat="44.0757" lon="6.45783">
        <ele>1313.8</ele>
        <time>2021-09-12T09:11:05Z</time>
      </trkpt>
      <trkpt lat="44.07571" lon="6.45788">
        <ele>1313.9</ele>
        <time>2021-09-12T09:11:06Z</time>
      </trkpt>
      <trkpt lat="44.07571" lon="6.45794">
        <ele>1314</ele>
        <time>2021-09-12T09:11:07Z</time>
      </trkpt>
      <trkpt lat="44.07571" lon="6.458">
        <ele>1314.1</ele>
        <time>2021-09-12T09:11:08Z</time>
      </trkpt>
      <trkpt lat="44.0757" lon="6.45806">
        <ele>1314.2</ele>
        <time>2021-09-12T09:11:10Z</time>
      </trkpt>
      <trkpt lat="44.07569" lon="6.45813">
        <ele>1314.3</ele>
        <time>2021-09-12T09:11:11Z</time>
      </trkpt>
      <trkpt lat="44.07571" lon="6.45818">
        <ele>1314.4</ele>
        <time>2021-09-12T09:11:12Z</time>
      </trkpt>
      <trkpt lat="44.07571" lon="6.4582">
        <ele>1314.4</ele>
        <time>2021-09-12T09:11:13Z</time>
      </trkpt>
      <trkpt lat="44.07572" lon="6.45826">
        <ele>1314.5</ele>
        <time>2021-09-12T09:11:14Z</time>
      </trkpt>
      <trkpt lat="44.07571" lon="6.45832">
        <ele>1314.5</ele>
        <time>2021-09-12T09:11:15Z</time>
      </trkpt>
      <trkpt lat="44.0757" lon="6.45836">
        <ele>1314.6</ele>
        <time>2021-09-12T09:11:16Z</time>
      </trkpt>
      <trkpt lat="44.0757" lon="6.45841">
        <ele>1314.7</ele>
        <time>2021-09-12T09:11:17Z</time>
      </trkpt>
      <trkpt lat="44.07569" lon="6.45846">
        <ele>1314.8</ele>
        <time>2021-09-12T09:11:18Z</time>
      </trkpt>
      <trkpt lat="44.0757" lon="6.4585">
        <ele>1314.9</ele>
        <time>2021-09-12T09:11:19Z</time>
      </trkpt>
      <trkpt lat="44.07571" lon="6.45854">
        <ele>1315</ele>
        <time>2021-09-12T09:11:20Z</time>
      </trkpt>
      <trkpt lat="44.07573" lon="6.45858">
        <ele>1315.1</ele>
        <time>2021-09-12T09:11:21Z</time>
      </trkpt>
      <trkpt lat="44.07573" lon="6.45862">
        <ele>1315.3</ele>
        <time>2021-09-12T09:11:22Z</time>
      </trkpt>
      <trkpt lat="44.07574" lon="6.45869">
        <ele>1315.4</ele>
        <time>2021-09-12T09:11:24Z</time>
      </trkpt>
      <trkpt lat="44.07573" lon="6.45874">
        <ele>1315.5</ele>
        <time>2021-09-12T09:11:25Z</time>
      </trkpt>
      <trkpt lat="44.07572" lon="6.45879">
        <ele>1315.6</ele>
        <time>2021-09-12T09:11:26Z</time>
      </trkpt>
      <trkpt lat="44.07572" lon="6.45883">
        <ele>1315.7</ele>
        <time>2021-09-12T09:11:27Z</time>
      </trkpt>
      <trkpt lat="44.0757" lon="6.45886">
        <ele>1315.8</ele>
        <time>2021-09-12T09:11:28Z</time>
      </trkpt>
      <trkpt lat="44.07567" lon="6.45892">
        <ele>1316</ele>
        <time>2021-09-12T09:11:30Z</time>
      </trkpt>
      <trkpt lat="44.07565" lon="6.45896">
        <ele>1316.1</ele>
        <time>2021-09-12T09:11:31Z</time>
      </trkpt>
      <trkpt lat="44.07563" lon="6.45901">
        <ele>1316.2</ele>
        <time>2021-09-12T09:11:33Z</time>
      </trkpt>
      <trkpt lat="44.07561" lon="6.45904">
        <ele>1316.3</ele>
        <time>2021-09-12T09:11:34Z</time>
      </trkpt>
      <trkpt lat="44.07559" lon="6.45908">
        <ele>1316.5</ele>
        <time>2021-09-12T09:11:35Z</time>
      </trkpt>
      <trkpt lat="44.07559" lon="6.4591">
        <ele>1316.5</ele>
        <time>2021-09-12T09:11:36Z</time>
      </trkpt>
      <trkpt lat="44.07558" lon="6.45917">
        <ele>1316.6</ele>
        <time>2021-09-12T09:11:38Z</time>
      </trkpt>
      <trkpt lat="44.07558" lon="6.45922">
        <ele>1316.7</ele>
        <time>2021-09-12T09:11:39Z</time>
      </trkpt>
      <trkpt lat="44.07556" lon="6.45925">
        <ele>1316.8</ele>
        <time>2021-09-12T09:11:40Z</time>
      </trkpt>
      <trkpt lat="44.07554" lon="6.45929">
        <ele>1316.8</ele>
        <time>2021-09-12T09:11:41Z</time>
      </trkpt>
      <trkpt lat="44.07553" lon="6.45933">
        <ele>1316.9</ele>
        <time>2021-09-12T09:11:42Z</time>
      </trkpt>
      <trkpt lat="44.0755" lon="6.4594">
        <ele>1317</ele>
        <time>2021-09-12T09:11:44Z</time>
      </trkpt>
      <trkpt lat="44.07549" lon="6.45943">
        <ele>1317.1</ele>
        <time>2021-09-12T09:11:45Z</time>
      </trkpt>
      <trkpt lat="44.07548" lon="6.45948">
        <ele>1317.2</ele>
        <time>2021-09-12T09:11:47Z</time>
      </trkpt>
      <trkpt lat="44.07547" lon="6.45953">
        <ele>1317.3</ele>
        <time>2021-09-12T09:11:48Z</time>
      </trkpt>
      <trkpt lat="44.07546" lon="6.45959">
        <ele>1317.4</ele>
        <time>2021-09-12T09:11:49Z</time>
      </trkpt>
      <trkpt lat="44.07545" lon="6.45963">
        <ele>1317.4</ele>
        <time>2021-09-12T09:11:50Z</time>
      </trkpt>
      <trkpt lat="44.07544" lon="6.45964">
        <ele>1317.5</ele>
        <time>2021-09-12T09:11:51Z</time>
      </trkpt>
      <trkpt lat="44.07541" lon="6.45967">
        <ele>1317.5</ele>
        <time>2021-09-12T09:11:52Z</time>
      </trkpt>
      <trkpt lat="44.07539" lon="6.45969">
        <ele>1317.6</ele>
        <time>2021-09-12T09:11:53Z</time>
      </trkpt>
      <trkpt lat="44.07535" lon="6.45972">
        <ele>1317.7</ele>
        <time>2021-09-12T09:11:54Z</time>
      </trkpt>
      <trkpt lat="44.07531" lon="6.45975">
        <ele>1317.7</ele>
        <time>2021-09-12T09:11:55Z</time>
      </trkpt>
      <trkpt lat="44.07527" lon="6.45978">
        <ele>1317.8</ele>
        <time>2021-09-12T09:11:57Z</time>
      </trkpt>
      <trkpt lat="44.07525" lon="6.45981">
        <ele>1317.8</ele>
        <time>2021-09-12T09:11:58Z</time>
      </trkpt>
      <trkpt lat="44.07521" lon="6.45986">
        <ele>1317.8</ele>
        <time>2021-09-12T09:12:00Z</time>
      </trkpt>
      <trkpt lat="44.07517" lon="6.4599">
        <ele>1317.7</ele>
        <time>2021-09-12T09:12:01Z</time>
      </trkpt>
      <trkpt lat="44.07511" lon="6.45998">
        <ele>1317.6</ele>
        <time>2021-09-12T09:12:04Z</time>
      </trkpt>
      <trkpt lat="44.07509" lon="6.46003">
        <ele>1317.6</ele>
        <time>2021-09-12T09:12:05Z</time>
      </trkpt>
      <trkpt lat="44.07506" lon="6.46011">
        <ele>1317.5</ele>
        <time>2021-09-12T09:12:07Z</time>
      </trkpt>
      <trkpt lat="44.07505" lon="6.46016">
        <ele>1317.5</ele>
        <time>2021-09-12T09:12:08Z</time>
      </trkpt>
      <trkpt lat="44.07505" lon="6.46021">
        <ele>1317.4</ele>
        <time>2021-09-12T09:12:09Z</time>
      </trkpt>
      <trkpt lat="44.07503" lon="6.46027">
        <ele>1317.4</ele>
        <time>2021-09-12T09:12:10Z</time>
      </trkpt>
      <trkpt lat="44.07502" lon="6.46031">
        <ele>1317.4</ele>
        <time>2021-09-12T09:12:11Z</time>
      </trkpt>
      <trkpt lat="44.075" lon="6.46034">
        <ele>1317.4</ele>
        <time>2021-09-12T09:12:12Z</time>
      </trkpt>
      <trkpt lat="44.07498" lon="6.4604">
        <ele>1317.4</ele>
        <time>2021-09-12T09:12:13Z</time>
      </trkpt>
      <trkpt lat="44.07496" lon="6.46042">
        <ele>1317.4</ele>
        <time>2021-09-12T09:12:14Z</time>
      </trkpt>
      <trkpt lat="44.07493" lon="6.46048">
        <ele>1317.5</ele>
        <time>2021-09-12T09:12:15Z</time>
      </trkpt>
      <trkpt lat="44.07489" lon="6.46054">
        <ele>1317.6</ele>
        <time>2021-09-12T09:12:17Z</time>
      </trkpt>
      <trkpt lat="44.07487" lon="6.4606">
        <ele>1317.7</ele>
        <time>2021-09-12T09:12:18Z</time>
      </trkpt>
      <trkpt lat="44.07482" lon="6.4607">
        <ele>1317.7</ele>
        <time>2021-09-12T09:12:21Z</time>
      </trkpt>
      <trkpt lat="44.0748" lon="6.46077">
        <ele>1317.7</ele>
        <time>2021-09-12T09:12:23Z</time>
      </trkpt>
      <trkpt lat="44.07476" lon="6.46087">
        <ele>1317.6</ele>
        <time>2021-09-12T09:12:25Z</time>
      </trkpt>
      <trkpt lat="44.07473" lon="6.46094">
        <ele>1317.7</ele>
        <time>2021-09-12T09:12:27Z</time>
      </trkpt>
      <trkpt lat="44.0747" lon="6.46099">
        <ele>1317.7</ele>
        <time>2021-09-12T09:12:28Z</time>
      </trkpt>
      <trkpt lat="44.07468" lon="6.46102">
        <ele>1317.7</ele>
        <time>2021-09-12T09:12:29Z</time>
      </trkpt>
      <trkpt lat="44.07463" lon="6.46109">
        <ele>1317.7</ele>
        <time>2021-09-12T09:12:31Z</time>
      </trkpt>
      <trkpt lat="44.07459" lon="6.46113">
        <ele>1317.8</ele>
        <time>2021-09-12T09:12:33Z</time>
      </trkpt>
      <trkpt lat="44.07454" lon="6.46121">
        <ele>1317.8</ele>
        <time>2021-09-12T09:12:35Z</time>
      </trkpt>
      <trkpt lat="44.07452" lon="6.46126">
        <ele>1317.8</ele>
        <time>2021-09-12T09:12:36Z</time>
      </trkpt>
      <trkpt lat="44.07451" lon="6.46132">
        <ele>1317.8</ele>
        <time>2021-09-12T09:12:37Z</time>
      </trkpt>
      <trkpt lat="44.07451" lon="6.46139">
        <ele>1317.9</ele>
        <time>2021-09-12T09:12:38Z</time>
      </trkpt>
      <trkpt lat="44.07449" lon="6.46147">
        <ele>1318.1</ele>
        <time>2021-09-12T09:12:40Z</time>
      </trkpt>
      <trkpt lat="44.07447" lon="6.46152">
        <ele>1318.2</ele>
        <time>2021-09-12T09:12:41Z</time>
      </trkpt>
      <trkpt lat="44.07446" lon="6.46157">
        <ele>1318.3</ele>
        <time>2021-09-12T09:12:42Z</time>
      </trkpt>
      <trkpt lat="44.07445" lon="6.46162">
        <ele>1318.4</ele>
        <time>2021-09-12T09:12:43Z</time>
      </trkpt>
      <trkpt lat="44.07444" lon="6.46168">
        <ele>1318.4</ele>
        <time>2021-09-12T09:12:45Z</time>
      </trkpt>
      <trkpt lat="44.07443" lon="6.46173">
        <ele>1318.4</ele>
        <time>2021-09-12T09:12:46Z</time>
      </trkpt>
      <trkpt lat="44.07441" lon="6.46176">
        <ele>1318.4</ele>
        <time>2021-09-12T09:12:47Z</time>
      </trkpt>
      <trkpt lat="44.07437" lon="6.46179">
        <ele>1318.5</ele>
        <time>2021-09-12T09:12:48Z</time>
      </trkpt>
      <trkpt lat="44.07434" lon="6.46182">
        <ele>1318.5</ele>
        <time>2021-09-12T09:12:49Z</time>
      </trkpt>
      <trkpt lat="44.07428" lon="6.46184">
        <ele>1318.5</ele>
        <time>2021-09-12T09:12:51Z</time>
      </trkpt>
      <trkpt lat="44.07421" lon="6.46185">
        <ele>1318.4</ele>
        <time>2021-09-12T09:12:53Z</time>
      </trkpt>
      <trkpt lat="44.07416" lon="6.46186">
        <ele>1318.4</ele>
        <time>2021-09-12T09:12:54Z</time>
      </trkpt>
      <trkpt lat="44.0741" lon="6.4619">
        <ele>1318.4</ele>
        <time>2021-09-12T09:12:56Z</time>
      </trkpt>
      <trkpt lat="44.07406" lon="6.46192">
        <ele>1318.4</ele>
        <time>2021-09-12T09:12:57Z</time>
      </trkpt>
      <trkpt lat="44.07405" lon="6.46193">
        <ele>1318.4</ele>
        <time>2021-09-12T09:12:58Z</time>
      </trkpt>
      <trkpt lat="44.07402" lon="6.46193">
        <ele>1318.4</ele>
        <time>2021-09-12T09:12:59Z</time>
      </trkpt>
      <trkpt lat="44.07398" lon="6.46193">
        <ele>1318.5</ele>
        <time>2021-09-12T09:13:00Z</time>
      </trkpt>
      <trkpt lat="44.07396" lon="6.46194">
        <ele>1318.6</ele>
        <time>2021-09-12T09:13:01Z</time>
      </trkpt>
      <trkpt lat="44.07392" lon="6.46197">
        <ele>1318.7</ele>
        <time>2021-09-12T09:13:02Z</time>
      </trkpt>
      <trkpt lat="44.0739" lon="6.46199">
        <ele>1318.8</ele>
        <time>2021-09-12T09:13:03Z</time>
      </trkpt>
      <trkpt lat="44.07387" lon="6.46201">
        <ele>1318.9</ele>
        <time>2021-09-12T09:13:04Z</time>
      </trkpt>
      <trkpt lat="44.07382" lon="6.46201">
        <ele>1319</ele>
        <time>2021-09-12T09:13:05Z</time>
      </trkpt>
      <trkpt lat="44.07379" lon="6.46203">
        <ele>1319.1</ele>
        <time>2021-09-12T09:13:06Z</time>
      </trkpt>
      <trkpt lat="44.07377" lon="6.46205">
        <ele>1319.2</ele>
        <time>2021-09-12T09:13:07Z</time>
      </trkpt>
      <trkpt lat="44.07374" lon="6.46207">
        <ele>1319.4</ele>
        <time>2021-09-12T09:13:08Z</time>
      </trkpt>
      <trkpt lat="44.07372" lon="6.4621">
        <ele>1319.6</ele>
        <time>2021-09-12T09:13:09Z</time>
      </trkpt>
      <trkpt lat="44.0737" lon="6.46211">
        <ele>1319.7</ele>
        <time>2021-09-12T09:13:10Z</time>
      </trkpt>
      <trkpt lat="44.07367" lon="6.46215">
        <ele>1320</ele>
        <time>2021-09-12T09:13:11Z</time>
      </trkpt>
      <trkpt lat="44.07364" lon="6.46218">
        <ele>1320.4</ele>
        <time>2021-09-12T09:13:13Z</time>
      </trkpt>
      <trkpt lat="44.07361" lon="6.46221">
        <ele>1320.8</ele>
        <time>2021-09-12T09:13:15Z</time>
      </trkpt>
      <trkpt lat="44.07359" lon="6.46223">
        <ele>1320.9</ele>
        <time>2021-09-12T09:13:16Z</time>
      </trkpt>
      <trkpt lat="44.07354" lon="6.46225">
        <ele>1321.5</ele>
        <time>2021-09-12T09:13:18Z</time>
      </trkpt>
      <trkpt lat="44.07352" lon="6.46228">
        <ele>1321.8</ele>
        <time>2021-09-12T09:13:20Z</time>
      </trkpt>
      <trkpt lat="44.07351" lon="6.46229">
        <ele>1321.9</ele>
        <time>2021-09-12T09:13:21Z</time>
      </trkpt>
      <trkpt lat="44.07349" lon="6.46231">
        <ele>1322.1</ele>
        <time>2021-09-12T09:13:23Z</time>
      </trkpt>
      <trkpt lat="44.07348" lon="6.46231">
        <ele>1322.3</ele>
        <time>2021-09-12T09:13:24Z</time>
      </trkpt>
      <trkpt lat="44.07346" lon="6.46233">
        <ele>1322.5</ele>
        <time>2021-09-12T09:13:26Z</time>
      </trkpt>
      <trkpt lat="44.07344" lon="6.46235">
        <ele>1322.7</ele>
        <time>2021-09-12T09:13:29Z</time>
      </trkpt>
      <trkpt lat="44.07342" lon="6.46235">
        <ele>1322.9</ele>
        <time>2021-09-12T09:13:31Z</time>
      </trkpt>
      <trkpt lat="44.07338" lon="6.46237">
        <ele>1323.3</ele>
        <time>2021-09-12T09:13:35Z</time>
      </trkpt>
      <trkpt lat="44.07334" lon="6.46237">
        <ele>1323.6</ele>
        <time>2021-09-12T09:13:40Z</time>
      </trkpt>
      <trkpt lat="44.07331" lon="6.46237">
        <ele>1323.9</ele>
        <time>2021-09-12T09:13:43Z</time>
      </trkpt>
      <trkpt lat="44.0733" lon="6.46236">
        <ele>1324.1</ele>
        <time>2021-09-12T09:13:44Z</time>
      </trkpt>
      <trkpt lat="44.07325" lon="6.46236">
        <ele>1324.5</ele>
        <time>2021-09-12T09:13:49Z</time>
      </trkpt>
      <trkpt lat="44.07323" lon="6.46237">
        <ele>1324.6</ele>
        <time>2021-09-12T09:13:50Z</time>
      </trkpt>
      <trkpt lat="44.07322" lon="6.46239">
        <ele>1324.7</ele>
        <time>2021-09-12T09:13:52Z</time>
      </trkpt>
      <trkpt lat="44.07318" lon="6.4624">
        <ele>1325</ele>
        <time>2021-09-12T09:13:55Z</time>
      </trkpt>
      <trkpt lat="44.07317" lon="6.4624">
        <ele>1325.1</ele>
        <time>2021-09-12T09:13:56Z</time>
      </trkpt>
      <trkpt lat="44.07313" lon="6.46241">
        <ele>1325.3</ele>
        <time>2021-09-12T09:13:59Z</time>
      </trkpt>
      <trkpt lat="44.07309" lon="6.46241">
        <ele>1325.7</ele>
        <time>2021-09-12T09:14:02Z</time>
      </trkpt>
      <trkpt lat="44.07304" lon="6.4624">
        <ele>1326</ele>
        <time>2021-09-12T09:14:05Z</time>
      </trkpt>
      <trkpt lat="44.07302" lon="6.4624">
        <ele>1326.1</ele>
        <time>2021-09-12T09:14:06Z</time>
      </trkpt>
      <trkpt lat="44.07301" lon="6.46241">
        <ele>1326.2</ele>
        <time>2021-09-12T09:14:07Z</time>
      </trkpt>
      <trkpt lat="44.07298" lon="6.46242">
        <ele>1326.5</ele>
        <time>2021-09-12T09:14:09Z</time>
      </trkpt>
      <trkpt lat="44.07295" lon="6.46244">
        <ele>1326.7</ele>
        <time>2021-09-12T09:14:11Z</time>
      </trkpt>
      <trkpt lat="44.07291" lon="6.46245">
        <ele>1327</ele>
        <time>2021-09-12T09:14:13Z</time>
      </trkpt>
      <trkpt lat="44.07288" lon="6.46245">
        <ele>1327.2</ele>
        <time>2021-09-12T09:14:15Z</time>
      </trkpt>
      <trkpt lat="44.07284" lon="6.46245">
        <ele>1327.4</ele>
        <time>2021-09-12T09:14:17Z</time>
      </trkpt>
      <trkpt lat="44.07281" lon="6.46248">
        <ele>1327.6</ele>
        <time>2021-09-12T09:14:19Z</time>
      </trkpt>
      <trkpt lat="44.07278" lon="6.4625">
        <ele>1327.7</ele>
        <time>2021-09-12T09:14:21Z</time>
      </trkpt>
      <trkpt lat="44.07276" lon="6.46254">
        <ele>1327.9</ele>
        <time>2021-09-12T09:14:23Z</time>
      </trkpt>
      <trkpt lat="44.07274" lon="6.46256">
        <ele>1328</ele>
        <time>2021-09-12T09:14:24Z</time>
      </trkpt>
      <trkpt lat="44.07271" lon="6.46257">
        <ele>1328.1</ele>
        <time>2021-09-12T09:14:26Z</time>
      </trkpt>
      <trkpt lat="44.07268" lon="6.46259">
        <ele>1328.1</ele>
        <time>2021-09-12T09:14:27Z</time>
      </trkpt>
      <trkpt lat="44.07265" lon="6.46261">
        <ele>1328.2</ele>
        <time>2021-09-12T09:14:28Z</time>
      </trkpt>
      <trkpt lat="44.07264" lon="6.46261">
        <ele>1328.2</ele>
        <time>2021-09-12T09:14:29Z</time>
      </trkpt>
      <trkpt lat="44.07261" lon="6.46263">
        <ele>1328.2</ele>
        <time>2021-09-12T09:14:30Z</time>
      </trkpt>
      <trkpt lat="44.0726" lon="6.46264">
        <ele>1328.3</ele>
        <time>2021-09-12T09:14:31Z</time>
      </trkpt>
      <trkpt lat="44.07256" lon="6.46267">
        <ele>1328.3</ele>
        <time>2021-09-12T09:14:32Z</time>
      </trkpt>
      <trkpt lat="44.07255" lon="6.46265">
        <ele>1328.3</ele>
        <time>2021-09-12T09:14:33Z</time>
      </trkpt>
      <trkpt lat="44.07254" lon="6.46267">
        <ele>1328.3</ele>
        <time>2021-09-12T09:14:34Z</time>
      </trkpt>
      <trkpt lat="44.07253" lon="6.46272">
        <ele>1328.2</ele>
        <time>2021-09-12T09:14:35Z</time>
      </trkpt>
      <trkpt lat="44.07252" lon="6.46276">
        <ele>1328.2</ele>
        <time>2021-09-12T09:14:36Z</time>
      </trkpt>
      <trkpt lat="44.0725" lon="6.46283">
        <ele>1328</ele>
        <time>2021-09-12T09:14:37Z</time>
      </trkpt>
      <trkpt lat="44.07249" lon="6.46285">
        <ele>1328</ele>
        <time>2021-09-12T09:14:38Z</time>
      </trkpt>
      <trkpt lat="44.07221" lon="6.46336">
        <ele>1324.4</ele>
        <time>2021-09-12T09:14:48Z</time>
      </trkpt>
      <trkpt lat="44.07214" lon="6.46347">
        <ele>1323.2</ele>
        <time>2021-09-12T09:14:50Z</time>
      </trkpt>
      <trkpt lat="44.07208" lon="6.46357">
        <ele>1322</ele>
        <time>2021-09-12T09:14:52Z</time>
      </trkpt>
      <trkpt lat="44.07203" lon="6.46366">
        <ele>1321</ele>
        <time>2021-09-12T09:14:53Z</time>
      </trkpt>
      <trkpt lat="44.07198" lon="6.46374">
        <ele>1320.3</ele>
        <time>2021-09-12T09:14:55Z</time>
      </trkpt>
      <trkpt lat="44.07189" lon="6.46388">
        <ele>1319.3</ele>
        <time>2021-09-12T09:14:57Z</time>
      </trkpt>
      <trkpt lat="44.07184" lon="6.46393">
        <ele>1319</ele>
        <time>2021-09-12T09:14:58Z</time>
      </trkpt>
      <trkpt lat="44.07173" lon="6.46402">
        <ele>1318.4</ele>
        <time>2021-09-12T09:15:00Z</time>
      </trkpt>
      <trkpt lat="44.07167" lon="6.46406">
        <ele>1318</ele>
        <time>2021-09-12T09:15:01Z</time>
      </trkpt>
      <trkpt lat="44.07157" lon="6.46415">
        <ele>1317.1</ele>
        <time>2021-09-12T09:15:03Z</time>
      </trkpt>
      <trkpt lat="44.07149" lon="6.46427">
        <ele>1316.1</ele>
        <time>2021-09-12T09:15:04Z</time>
      </trkpt>
      <trkpt lat="44.07142" lon="6.46444">
        <ele>1314.8</ele>
        <time>2021-09-12T09:15:06Z</time>
      </trkpt>
      <trkpt lat="44.07135" lon="6.4646">
        <ele>1313.2</ele>
        <time>2021-09-12T09:15:09Z</time>
      </trkpt>
      <trkpt lat="44.0713" lon="6.46467">
        <ele>1312.4</ele>
        <time>2021-09-12T09:15:10Z</time>
      </trkpt>
      <trkpt lat="44.07125" lon="6.46475">
        <ele>1311.6</ele>
        <time>2021-09-12T09:15:11Z</time>
      </trkpt>
      <trkpt lat="44.07113" lon="6.4649">
        <ele>1309.9</ele>
        <time>2021-09-12T09:15:13Z</time>
      </trkpt>
      <trkpt lat="44.07102" lon="6.46506">
        <ele>1308.2</ele>
        <time>2021-09-12T09:15:16Z</time>
      </trkpt>
      <trkpt lat="44.07096" lon="6.46514">
        <ele>1307.5</ele>
        <time>2021-09-12T09:15:17Z</time>
      </trkpt>
      <trkpt lat="44.07091" lon="6.4652">
        <ele>1306.8</ele>
        <time>2021-09-12T09:15:18Z</time>
      </trkpt>
      <trkpt lat="44.07077" lon="6.46529">
        <ele>1305.4</ele>
        <time>2021-09-12T09:15:20Z</time>
      </trkpt>
      <trkpt lat="44.07062" lon="6.46534">
        <ele>1303.8</ele>
        <time>2021-09-12T09:15:22Z</time>
      </trkpt>
      <trkpt lat="44.07055" lon="6.46536">
        <ele>1303.3</ele>
        <time>2021-09-12T09:15:23Z</time>
      </trkpt>
      <trkpt lat="44.07042" lon="6.4654">
        <ele>1302.8</ele>
        <time>2021-09-12T09:15:25Z</time>
      </trkpt>
      <trkpt lat="44.07037" lon="6.4654">
        <ele>1302.8</ele>
        <time>2021-09-12T09:15:26Z</time>
      </trkpt>
      <trkpt lat="44.07029" lon="6.46535">
        <ele>1302.8</ele>
        <time>2021-09-12T09:15:27Z</time>
      </trkpt>
      <trkpt lat="44.07024" lon="6.46529">
        <ele>1302.9</ele>
        <time>2021-09-12T09:15:28Z</time>
      </trkpt>
      <trkpt lat="44.07019" lon="6.46522">
        <ele>1303.1</ele>
        <time>2021-09-12T09:15:29Z</time>
      </trkpt>
      <trkpt lat="44.07011" lon="6.46513">
        <ele>1304.1</ele>
        <time>2021-09-12T09:15:31Z</time>
      </trkpt>
      <trkpt lat="44.07007" lon="6.46512">
        <ele>1304.7</ele>
        <time>2021-09-12T09:15:32Z</time>
      </trkpt>
      <trkpt lat="44.07004" lon="6.46508">
        <ele>1305.4</ele>
        <time>2021-09-12T09:15:34Z</time>
      </trkpt>
      <trkpt lat="44.07002" lon="6.46504">
        <ele>1305.9</ele>
        <time>2021-09-12T09:15:35Z</time>
      </trkpt>
      <trkpt lat="44.07" lon="6.46499">
        <ele>1306.6</ele>
        <time>2021-09-12T09:15:37Z</time>
      </trkpt>
      <trkpt lat="44.06999" lon="6.46497">
        <ele>1306.9</ele>
        <time>2021-09-12T09:15:39Z</time>
      </trkpt>
      <trkpt lat="44.06998" lon="6.46495">
        <ele>1307.1</ele>
        <time>2021-09-12T09:15:40Z</time>
      </trkpt>
      <trkpt lat="44.06998" lon="6.46494">
        <ele>1307.4</ele>
        <time>2021-09-12T09:15:42Z</time>
      </trkpt>
      <trkpt lat="44.06996" lon="6.46488">
        <ele>1308.1</ele>
        <time>2021-09-12T09:15:50Z</time>
      </trkpt>
      <trkpt lat="44.06994" lon="6.46484">
        <ele>1308.7</ele>
        <time>2021-09-12T09:15:57Z</time>
      </trkpt>
      <trkpt lat="44.06992" lon="6.4648">
        <ele>1309.4</ele>
        <time>2021-09-12T09:16:06Z</time>
      </trkpt>
      <trkpt lat="44.06989" lon="6.46474">
        <ele>1310.4</ele>
        <time>2021-09-12T09:16:19Z</time>
      </trkpt>
      <trkpt lat="44.06986" lon="6.46469">
        <ele>1311.3</ele>
        <time>2021-09-12T09:16:30Z</time>
      </trkpt>
      <trkpt lat="44.06984" lon="6.46464">
        <ele>1311.9</ele>
        <time>2021-09-12T09:16:38Z</time>
      </trkpt>
      <trkpt lat="44.06982" lon="6.46458">
        <ele>1312.6</ele>
        <time>2021-09-12T09:16:49Z</time>
      </trkpt>
      <trkpt lat="44.06981" lon="6.46456">
        <ele>1312.9</ele>
        <time>2021-09-12T09:16:53Z</time>
      </trkpt>
      <trkpt lat="44.06979" lon="6.46454">
        <ele>1313.3</ele>
        <time>2021-09-12T09:16:59Z</time>
      </trkpt>
      <trkpt lat="44.06977" lon="6.46451">
        <ele>1313.6</ele>
        <time>2021-09-12T09:17:05Z</time>
      </trkpt>
      <trkpt lat="44.06977" lon="6.46448">
        <ele>1313.9</ele>
        <time>2021-09-12T09:17:09Z</time>
      </trkpt>
      <trkpt lat="44.06977" lon="6.46446">
        <ele>1314.1</ele>
        <time>2021-09-12T09:17:14Z</time>
      </trkpt>
      <trkpt lat="44.06976" lon="6.46441">
        <ele>1314.4</ele>
        <time>2021-09-12T09:17:21Z</time>
      </trkpt>
      <trkpt lat="44.06977" lon="6.46439">
        <ele>1314.6</ele>
        <time>2021-09-12T09:17:25Z</time>
      </trkpt>
      <trkpt lat="44.06977" lon="6.46437">
        <ele>1314.8</ele>
        <time>2021-09-12T09:17:28Z</time>
      </trkpt>
      <trkpt lat="44.06976" lon="6.46433">
        <ele>1315.1</ele>
        <time>2021-09-12T09:17:34Z</time>
      </trkpt>
      <trkpt lat="44.06977" lon="6.46428">
        <ele>1315.4</ele>
        <time>2021-09-12T09:17:40Z</time>
      </trkpt>
      <trkpt lat="44.06977" lon="6.46423">
        <ele>1315.7</ele>
        <time>2021-09-12T09:17:47Z</time>
      </trkpt>
      <trkpt lat="44.06977" lon="6.46418">
        <ele>1315.9</ele>
        <time>2021-09-12T09:17:52Z</time>
      </trkpt>
      <trkpt lat="44.06977" lon="6.46412">
        <ele>1316.2</ele>
        <time>2021-09-12T09:17:57Z</time>
      </trkpt>
      <trkpt lat="44.06977" lon="6.46404">
        <ele>1316.6</ele>
        <time>2021-09-12T09:18:04Z</time>
      </trkpt>
      <trkpt lat="44.06977" lon="6.464">
        <ele>1316.7</ele>
        <time>2021-09-12T09:18:06Z</time>
      </trkpt>
      <trkpt lat="44.06977" lon="6.46394">
        <ele>1316.9</ele>
        <time>2021-09-12T09:18:10Z</time>
      </trkpt>
      <trkpt lat="44.06975" lon="6.46384">
        <ele>1317.2</ele>
        <time>2021-09-12T09:18:15Z</time>
      </trkpt>
      <trkpt lat="44.06972" lon="6.46377">
        <ele>1317.5</ele>
        <time>2021-09-12T09:18:19Z</time>
      </trkpt>
      <trkpt lat="44.06969" lon="6.46368">
        <ele>1317.8</ele>
        <time>2021-09-12T09:18:23Z</time>
      </trkpt>
      <trkpt lat="44.06964" lon="6.46359">
        <ele>1318.2</ele>
        <time>2021-09-12T09:18:27Z</time>
      </trkpt>
      <trkpt lat="44.06958" lon="6.46355">
        <ele>1318.6</ele>
        <time>2021-09-12T09:18:30Z</time>
      </trkpt>
      <trkpt lat="44.06952" lon="6.46352">
        <ele>1318.9</ele>
        <time>2021-09-12T09:18:33Z</time>
      </trkpt>
      <trkpt lat="44.06945" lon="6.4635">
        <ele>1319.4</ele>
        <time>2021-09-12T09:18:36Z</time>
      </trkpt>
      <trkpt lat="44.06939" lon="6.46352">
        <ele>1319.8</ele>
        <time>2021-09-12T09:18:39Z</time>
      </trkpt>
      <trkpt lat="44.06935" lon="6.46359">
        <ele>1320.5</ele>
        <time>2021-09-12T09:18:42Z</time>
      </trkpt>
      <trkpt lat="44.06934" lon="6.46365">
        <ele>1321</ele>
        <time>2021-09-12T09:18:44Z</time>
      </trkpt>
      <trkpt lat="44.06931" lon="6.46369">
        <ele>1321.4</ele>
        <time>2021-09-12T09:18:45Z</time>
      </trkpt>
      <trkpt lat="44.06928" lon="6.46373">
        <ele>1321.9</ele>
        <time>2021-09-12T09:18:48Z</time>
      </trkpt>
      <trkpt lat="44.06926" lon="6.46379">
        <ele>1322.4</ele>
        <time>2021-09-12T09:18:50Z</time>
      </trkpt>
      <trkpt lat="44.06926" lon="6.46384">
        <ele>1322.8</ele>
        <time>2021-09-12T09:18:53Z</time>
      </trkpt>
      <trkpt lat="44.06926" lon="6.46388">
        <ele>1323.2</ele>
        <time>2021-09-12T09:18:55Z</time>
      </trkpt>
      <trkpt lat="44.06925" lon="6.46394">
        <ele>1323.7</ele>
        <time>2021-09-12T09:19:00Z</time>
      </trkpt>
      <trkpt lat="44.06925" lon="6.46396">
        <ele>1323.8</ele>
        <time>2021-09-12T09:19:01Z</time>
      </trkpt>
      <trkpt lat="44.06924" lon="6.46397">
        <ele>1324</ele>
        <time>2021-09-12T09:19:03Z</time>
      </trkpt>
      <trkpt lat="44.06921" lon="6.46401">
        <ele>1324.3</ele>
        <time>2021-09-12T09:19:07Z</time>
      </trkpt>
      <trkpt lat="44.06919" lon="6.46404">
        <ele>1324.6</ele>
        <time>2021-09-12T09:19:12Z</time>
      </trkpt>
      <trkpt lat="44.06916" lon="6.46407">
        <ele>1324.8</ele>
        <time>2021-09-12T09:19:16Z</time>
      </trkpt>
      <trkpt lat="44.06912" lon="6.46408">
        <ele>1325.1</ele>
        <time>2021-09-12T09:19:20Z</time>
      </trkpt>
      <trkpt lat="44.06906" lon="6.46411">
        <ele>1325.5</ele>
        <time>2021-09-12T09:19:28Z</time>
      </trkpt>
      <trkpt lat="44.06897" lon="6.46411">
        <ele>1325.9</ele>
        <time>2021-09-12T09:19:35Z</time>
      </trkpt>
      <trkpt lat="44.06886" lon="6.46412">
        <ele>1326.3</ele>
        <time>2021-09-12T09:19:45Z</time>
      </trkpt>
      <trkpt lat="44.06876" lon="6.46414">
        <ele>1326.5</ele>
        <time>2021-09-12T09:19:51Z</time>
      </trkpt>
      <trkpt lat="44.06871" lon="6.46414">
        <ele>1326.6</ele>
        <time>2021-09-12T09:19:54Z</time>
      </trkpt>
      <trkpt lat="44.06865" lon="6.46415">
        <ele>1326.7</ele>
        <time>2021-09-12T09:19:57Z</time>
      </trkpt>
      <trkpt lat="44.06855" lon="6.46414">
        <ele>1326.7</ele>
        <time>2021-09-12T09:20:02Z</time>
      </trkpt>
      <trkpt lat="44.06851" lon="6.46411">
        <ele>1326.7</ele>
        <time>2021-09-12T09:20:04Z</time>
      </trkpt>
      <trkpt lat="44.06842" lon="6.46408">
        <ele>1326.8</ele>
        <time>2021-09-12T09:20:08Z</time>
      </trkpt>
      <trkpt lat="44.06833" lon="6.46406">
        <ele>1327</ele>
        <time>2021-09-12T09:20:11Z</time>
      </trkpt>
      <trkpt lat="44.06827" lon="6.46407">
        <ele>1327.2</ele>
        <time>2021-09-12T09:20:13Z</time>
      </trkpt>
      <trkpt lat="44.06822" lon="6.46411">
        <ele>1327.5</ele>
        <time>2021-09-12T09:20:15Z</time>
      </trkpt>
      <trkpt lat="44.06817" lon="6.46415">
        <ele>1327.6</ele>
        <time>2021-09-12T09:20:17Z</time>
      </trkpt>
      <trkpt lat="44.06813" lon="6.46419">
        <ele>1327.7</ele>
        <time>2021-09-12T09:20:19Z</time>
      </trkpt>
      <trkpt lat="44.06804" lon="6.46423">
        <ele>1327.7</ele>
        <time>2021-09-12T09:20:22Z</time>
      </trkpt>
      <trkpt lat="44.068" lon="6.46424">
        <ele>1327.5</ele>
        <time>2021-09-12T09:20:23Z</time>
      </trkpt>
      <trkpt lat="44.06796" lon="6.46424">
        <ele>1327.4</ele>
        <time>2021-09-12T09:20:24Z</time>
      </trkpt>
      <trkpt lat="44.06794" lon="6.46424">
        <ele>1327.3</ele>
        <time>2021-09-12T09:20:25Z</time>
      </trkpt>
      <trkpt lat="44.06789" lon="6.46425">
        <ele>1326.9</ele>
        <time>2021-09-12T09:20:26Z</time>
      </trkpt>
      <trkpt lat="44.06786" lon="6.46426">
        <ele>1326.7</ele>
        <time>2021-09-12T09:20:27Z</time>
      </trkpt>
      <trkpt lat="44.0678" lon="6.46426">
        <ele>1325.9</ele>
        <time>2021-09-12T09:20:28Z</time>
      </trkpt>
      <trkpt lat="44.06772" lon="6.46426">
        <ele>1326.7</ele>
        <time>2021-09-12T09:20:29Z</time>
      </trkpt>
      <trkpt lat="44.06774" lon="6.46424">
        <ele>1324.8</ele>
        <time>2021-09-12T09:20:30Z</time>
      </trkpt>
      <trkpt lat="44.06782" lon="6.46432">
        <ele>1319.5</ele>
        <time>2021-09-12T09:20:31Z</time>
      </trkpt>
      <trkpt lat="44.06787" lon="6.46438">
        <ele>1314.4</ele>
        <time>2021-09-12T09:20:32Z</time>
      </trkpt>
      <trkpt lat="44.06795" lon="6.46443">
        <ele>1309.7</ele>
        <time>2021-09-12T09:20:33Z</time>
      </trkpt>
      <trkpt lat="44.068" lon="6.46443">
        <ele>1307.3</ele>
        <time>2021-09-12T09:20:34Z</time>
      </trkpt>
      <trkpt lat="44.06807" lon="6.46456">
        <ele>1305</ele>
        <time>2021-09-12T09:20:36Z</time>
      </trkpt>
      <trkpt lat="44.06812" lon="6.46468">
        <ele>1303.1</ele>
        <time>2021-09-12T09:20:37Z</time>
      </trkpt>
      <trkpt lat="44.06817" lon="6.46478">
        <ele>1301.6</ele>
        <time>2021-09-12T09:20:38Z</time>
      </trkpt>
      <trkpt lat="44.06821" lon="6.46486">
        <ele>1300.6</ele>
        <time>2021-09-12T09:20:39Z</time>
      </trkpt>
      <trkpt lat="44.06826" lon="6.46495">
        <ele>1299.3</ele>
        <time>2021-09-12T09:20:40Z</time>
      </trkpt>
      <trkpt lat="44.06828" lon="6.465">
        <ele>1298.5</ele>
        <time>2021-09-12T09:20:41Z</time>
      </trkpt>
      <trkpt lat="44.06835" lon="6.4651">
        <ele>1296.5</ele>
        <time>2021-09-12T09:20:42Z</time>
      </trkpt>
      <trkpt lat="44.06844" lon="6.46518">
        <ele>1294.6</ele>
        <time>2021-09-12T09:20:43Z</time>
      </trkpt>
      <trkpt lat="44.0685" lon="6.46521">
        <ele>1293.3</ele>
        <time>2021-09-12T09:20:44Z</time>
      </trkpt>
      <trkpt lat="44.06854" lon="6.46523">
        <ele>1292.4</ele>
        <time>2021-09-12T09:20:45Z</time>
      </trkpt>
      <trkpt lat="44.06861" lon="6.46524">
        <ele>1291.3</ele>
        <time>2021-09-12T09:20:46Z</time>
      </trkpt>
      <trkpt lat="44.06871" lon="6.46524">
        <ele>1289.7</ele>
        <time>2021-09-12T09:20:47Z</time>
      </trkpt>
      <trkpt lat="44.06876" lon="6.46521">
        <ele>1289</ele>
        <time>2021-09-12T09:20:48Z</time>
      </trkpt>
      <trkpt lat="44.06885" lon="6.46511">
        <ele>1287.4</ele>
        <time>2021-09-12T09:20:49Z</time>
      </trkpt>
      <trkpt lat="44.0689" lon="6.46508">
        <ele>1286.6</ele>
        <time>2021-09-12T09:20:50Z</time>
      </trkpt>
      <trkpt lat="44.06897" lon="6.46502">
        <ele>1285.3</ele>
        <time>2021-09-12T09:20:51Z</time>
      </trkpt>
      <trkpt lat="44.06905" lon="6.46498">
        <ele>1283.7</ele>
        <time>2021-09-12T09:20:52Z</time>
      </trkpt>
      <trkpt lat="44.06912" lon="6.46495">
        <ele>1282.4</ele>
        <time>2021-09-12T09:20:53Z</time>
      </trkpt>
      <trkpt lat="44.0692" lon="6.46497">
        <ele>1280.5</ele>
        <time>2021-09-12T09:20:54Z</time>
      </trkpt>
      <trkpt lat="44.06926" lon="6.46502">
        <ele>1279.1</ele>
        <time>2021-09-12T09:20:55Z</time>
      </trkpt>
      <trkpt lat="44.06931" lon="6.46509">
        <ele>1277.6</ele>
        <time>2021-09-12T09:20:56Z</time>
      </trkpt>
      <trkpt lat="44.06934" lon="6.46519">
        <ele>1276.1</ele>
        <time>2021-09-12T09:20:57Z</time>
      </trkpt>
      <trkpt lat="44.06936" lon="6.46523">
        <ele>1275.5</ele>
        <time>2021-09-12T09:20:58Z</time>
      </trkpt>
      <trkpt lat="44.06941" lon="6.4654">
        <ele>1273.5</ele>
        <time>2021-09-12T09:20:59Z</time>
      </trkpt>
      <trkpt lat="44.06941" lon="6.46561">
        <ele>1271.1</ele>
        <time>2021-09-12T09:21:01Z</time>
      </trkpt>
      <trkpt lat="44.06942" lon="6.46567">
        <ele>1270.2</ele>
        <time>2021-09-12T09:21:02Z</time>
      </trkpt>
      <trkpt lat="44.06945" lon="6.46571">
        <ele>1269.7</ele>
        <time>2021-09-12T09:21:03Z</time>
      </trkpt>
      <trkpt lat="44.06946" lon="6.46577">
        <ele>1268.8</ele>
        <time>2021-09-12T09:21:04Z</time>
      </trkpt>
      <trkpt lat="44.0695" lon="6.46595">
        <ele>1266.5</ele>
        <time>2021-09-12T09:21:05Z</time>
      </trkpt>
      <trkpt lat="44.06953" lon="6.46616">
        <ele>1264</ele>
        <time>2021-09-12T09:21:07Z</time>
      </trkpt>
      <trkpt lat="44.06955" lon="6.46631">
        <ele>1262.2</ele>
        <time>2021-09-12T09:21:09Z</time>
      </trkpt>
      <trkpt lat="44.06956" lon="6.46645">
        <ele>1260.7</ele>
        <time>2021-09-12T09:21:10Z</time>
      </trkpt>
      <trkpt lat="44.06955" lon="6.46658">
        <ele>1259.1</ele>
        <time>2021-09-12T09:21:11Z</time>
      </trkpt>
      <trkpt lat="44.06954" lon="6.46669">
        <ele>1257.6</ele>
        <time>2021-09-12T09:21:12Z</time>
      </trkpt>
      <trkpt lat="44.06956" lon="6.46678">
        <ele>1256.4</ele>
        <time>2021-09-12T09:21:13Z</time>
      </trkpt>
      <trkpt lat="44.06957" lon="6.46684">
        <ele>1255.5</ele>
        <time>2021-09-12T09:21:14Z</time>
      </trkpt>
      <trkpt lat="44.06964" lon="6.46689">
        <ele>1254</ele>
        <time>2021-09-12T09:21:15Z</time>
      </trkpt>
      <trkpt lat="44.06972" lon="6.46696">
        <ele>1252.1</ele>
        <time>2021-09-12T09:21:16Z</time>
      </trkpt>
      <trkpt lat="44.06975" lon="6.46706">
        <ele>1250.3</ele>
        <time>2021-09-12T09:21:17Z</time>
      </trkpt>
      <trkpt lat="44.06975" lon="6.46712">
        <ele>1249.5</ele>
        <time>2021-09-12T09:21:18Z</time>
      </trkpt>
      <trkpt lat="44.06975" lon="6.46729">
        <ele>1246.9</ele>
        <time>2021-09-12T09:21:19Z</time>
      </trkpt>
      <trkpt lat="44.06976" lon="6.46736">
        <ele>1246.1</ele>
        <time>2021-09-12T09:21:20Z</time>
      </trkpt>
      <trkpt lat="44.06976" lon="6.4675">
        <ele>1244.1</ele>
        <time>2021-09-12T09:21:21Z</time>
      </trkpt>
      <trkpt lat="44.06977" lon="6.46757">
        <ele>1243.1</ele>
        <time>2021-09-12T09:21:22Z</time>
      </trkpt>
      <trkpt lat="44.06981" lon="6.4677">
        <ele>1241</ele>
        <time>2021-09-12T09:21:23Z</time>
      </trkpt>
      <trkpt lat="44.06984" lon="6.46777">
        <ele>1239.6</ele>
        <time>2021-09-12T09:21:24Z</time>
      </trkpt>
      <trkpt lat="44.06991" lon="6.46786">
        <ele>1237.6</ele>
        <time>2021-09-12T09:21:25Z</time>
      </trkpt>
      <trkpt lat="44.06994" lon="6.46794">
        <ele>1236.2</ele>
        <time>2021-09-12T09:21:26Z</time>
      </trkpt>
      <trkpt lat="44.06996" lon="6.468">
        <ele>1235.2</ele>
        <time>2021-09-12T09:21:27Z</time>
      </trkpt>
      <trkpt lat="44.07001" lon="6.46814">
        <ele>1232.6</ele>
        <time>2021-09-12T09:21:28Z</time>
      </trkpt>
      <trkpt lat="44.07002" lon="6.46818">
        <ele>1231.9</ele>
        <time>2021-09-12T09:21:29Z</time>
      </trkpt>
      <trkpt lat="44.0701" lon="6.46809">
        <ele>1229.7</ele>
        <time>2021-09-12T09:21:30Z</time>
      </trkpt>
      <trkpt lat="44.07017" lon="6.46801">
        <ele>1227.5</ele>
        <time>2021-09-12T09:21:31Z</time>
      </trkpt>
      <trkpt lat="44.07028" lon="6.46796">
        <ele>1225.2</ele>
        <time>2021-09-12T09:21:33Z</time>
      </trkpt>
      <trkpt lat="44.07032" lon="6.46805">
        <ele>1223.8</ele>
        <time>2021-09-12T09:21:34Z</time>
      </trkpt>
      <trkpt lat="44.07036" lon="6.46816">
        <ele>1221.9</ele>
        <time>2021-09-12T09:21:35Z</time>
      </trkpt>
      <trkpt lat="44.07041" lon="6.46826">
        <ele>1220</ele>
        <time>2021-09-12T09:21:36Z</time>
      </trkpt>
      <trkpt lat="44.07044" lon="6.46836">
        <ele>1217.9</ele>
        <time>2021-09-12T09:21:37Z</time>
      </trkpt>
      <trkpt lat="44.07048" lon="6.46843">
        <ele>1216.4</ele>
        <time>2021-09-12T09:21:38Z</time>
      </trkpt>
      <trkpt lat="44.07048" lon="6.46859">
        <ele>1213.5</ele>
        <time>2021-09-12T09:21:40Z</time>
      </trkpt>
      <trkpt lat="44.07052" lon="6.46877">
        <ele>1210.1</ele>
        <time>2021-09-12T09:21:41Z</time>
      </trkpt>
      <trkpt lat="44.07058" lon="6.46895">
        <ele>1207.5</ele>
        <time>2021-09-12T09:21:43Z</time>
      </trkpt>
      <trkpt lat="44.07061" lon="6.46914">
        <ele>1205.1</ele>
        <time>2021-09-12T09:21:45Z</time>
      </trkpt>
      <trkpt lat="44.07062" lon="6.46923">
        <ele>1203.9</ele>
        <time>2021-09-12T09:21:46Z</time>
      </trkpt>
      <trkpt lat="44.07067" lon="6.46934">
        <ele>1202.2</ele>
        <time>2021-09-12T09:21:47Z</time>
      </trkpt>
      <trkpt lat="44.0707" lon="6.46945">
        <ele>1200.4</ele>
        <time>2021-09-12T09:21:48Z</time>
      </trkpt>
      <trkpt lat="44.07073" lon="6.46952">
        <ele>1199.1</ele>
        <time>2021-09-12T09:21:49Z</time>
      </trkpt>
      <trkpt lat="44.07076" lon="6.46964">
        <ele>1196.7</ele>
        <time>2021-09-12T09:21:50Z</time>
      </trkpt>
      <trkpt lat="44.07079" lon="6.46971">
        <ele>1195.1</ele>
        <time>2021-09-12T09:21:51Z</time>
      </trkpt>
      <trkpt lat="44.07087" lon="6.46975">
        <ele>1192.7</ele>
        <time>2021-09-12T09:21:52Z</time>
      </trkpt>
      <trkpt lat="44.07093" lon="6.46984">
        <ele>1190</ele>
        <time>2021-09-12T09:21:53Z</time>
      </trkpt>
      <trkpt lat="44.07101" lon="6.46985">
        <ele>1187.4</ele>
        <time>2021-09-12T09:21:54Z</time>
      </trkpt>
      <trkpt lat="44.07109" lon="6.46987">
        <ele>1184.3</ele>
        <time>2021-09-12T09:21:55Z</time>
      </trkpt>
      <trkpt lat="44.07112" lon="6.46991">
        <ele>1183</ele>
        <time>2021-09-12T09:21:56Z</time>
      </trkpt>
      <trkpt lat="44.0712" lon="6.46998">
        <ele>1179.9</ele>
        <time>2021-09-12T09:21:57Z</time>
      </trkpt>
      <trkpt lat="44.07127" lon="6.47004">
        <ele>1177.4</ele>
        <time>2021-09-12T09:21:58Z</time>
      </trkpt>
      <trkpt lat="44.07129" lon="6.47016">
        <ele>1174.6</ele>
        <time>2021-09-12T09:21:59Z</time>
      </trkpt>
      <trkpt lat="44.07129" lon="6.47027">
        <ele>1171.9</ele>
        <time>2021-09-12T09:22:00Z</time>
      </trkpt>
      <trkpt lat="44.07131" lon="6.47037">
        <ele>1169.4</ele>
        <time>2021-09-12T09:22:01Z</time>
      </trkpt>
      <trkpt lat="44.07133" lon="6.47045">
        <ele>1167.7</ele>
        <time>2021-09-12T09:22:02Z</time>
      </trkpt>
      <trkpt lat="44.07135" lon="6.47054">
        <ele>1165.9</ele>
        <time>2021-09-12T09:22:03Z</time>
      </trkpt>
      <trkpt lat="44.07133" lon="6.47063">
        <ele>1164.4</ele>
        <time>2021-09-12T09:22:04Z</time>
      </trkpt>
      <trkpt lat="44.07133" lon="6.47075">
        <ele>1162.2</ele>
        <time>2021-09-12T09:22:05Z</time>
      </trkpt>
      <trkpt lat="44.07133" lon="6.47084">
        <ele>1160.5</ele>
        <time>2021-09-12T09:22:06Z</time>
      </trkpt>
      <trkpt lat="44.0713" lon="6.47097">
        <ele>1157.9</ele>
        <time>2021-09-12T09:22:07Z</time>
      </trkpt>
      <trkpt lat="44.07128" lon="6.47108">
        <ele>1155.7</ele>
        <time>2021-09-12T09:22:08Z</time>
      </trkpt>
      <trkpt lat="44.07125" lon="6.47116">
        <ele>1153.8</ele>
        <time>2021-09-12T09:22:09Z</time>
      </trkpt>
      <trkpt lat="44.07121" lon="6.47126">
        <ele>1151.6</ele>
        <time>2021-09-12T09:22:10Z</time>
      </trkpt>
      <trkpt lat="44.0712" lon="6.4713">
        <ele>1150.6</ele>
        <time>2021-09-12T09:22:11Z</time>
      </trkpt>
      <trkpt lat="44.07116" lon="6.47145">
        <ele>1147.1</ele>
        <time>2021-09-12T09:22:12Z</time>
      </trkpt>
      <trkpt lat="44.07116" lon="6.47158">
        <ele>1143.9</ele>
        <time>2021-09-12T09:22:13Z</time>
      </trkpt>
      <trkpt lat="44.07118" lon="6.47168">
        <ele>1141.9</ele>
        <time>2021-09-12T09:22:14Z</time>
      </trkpt>
      <trkpt lat="44.07122" lon="6.47177">
        <ele>1139.8</ele>
        <time>2021-09-12T09:22:15Z</time>
      </trkpt>
      <trkpt lat="44.07129" lon="6.47181">
        <ele>1137.7</ele>
        <time>2021-09-12T09:22:16Z</time>
      </trkpt>
      <trkpt lat="44.07131" lon="6.47189">
        <ele>1136</ele>
        <time>2021-09-12T09:22:17Z</time>
      </trkpt>
      <trkpt lat="44.07134" lon="6.47195">
        <ele>1134.6</ele>
        <time>2021-09-12T09:22:18Z</time>
      </trkpt>
      <trkpt lat="44.07138" lon="6.47208">
        <ele>1132</ele>
        <time>2021-09-12T09:22:19Z</time>
      </trkpt>
      <trkpt lat="44.07141" lon="6.47217">
        <ele>1130.1</ele>
        <time>2021-09-12T09:22:20Z</time>
      </trkpt>
      <trkpt lat="44.07144" lon="6.47224">
        <ele>1128.4</ele>
        <time>2021-09-12T09:22:21Z</time>
      </trkpt>
      <trkpt lat="44.0715" lon="6.47236">
        <ele>1125.6</ele>
        <time>2021-09-12T09:22:22Z</time>
      </trkpt>
      <trkpt lat="44.07153" lon="6.47246">
        <ele>1123.3</ele>
        <time>2021-09-12T09:22:23Z</time>
      </trkpt>
      <trkpt lat="44.07154" lon="6.4725">
        <ele>1122.2</ele>
        <time>2021-09-12T09:22:24Z</time>
      </trkpt>
      <trkpt lat="44.0716" lon="6.47264">
        <ele>1118.2</ele>
        <time>2021-09-12T09:22:25Z</time>
      </trkpt>
      <trkpt lat="44.07162" lon="6.47271">
        <ele>1116.4</ele>
        <time>2021-09-12T09:22:26Z</time>
      </trkpt>
      <trkpt lat="44.07162" lon="6.47284">
        <ele>1115.1</ele>
        <time>2021-09-12T09:22:27Z</time>
      </trkpt>
      <trkpt lat="44.07163" lon="6.47296">
        <ele>1113.8</ele>
        <time>2021-09-12T09:22:28Z</time>
      </trkpt>
      <trkpt lat="44.07163" lon="6.47307">
        <ele>1112.4</ele>
        <time>2021-09-12T09:22:29Z</time>
      </trkpt>
      <trkpt lat="44.07168" lon="6.47327">
        <ele>1110</ele>
        <time>2021-09-12T09:22:31Z</time>
      </trkpt>
      <trkpt lat="44.07169" lon="6.47335">
        <ele>1109</ele>
        <time>2021-09-12T09:22:32Z</time>
      </trkpt>
      <trkpt lat="44.07171" lon="6.47348">
        <ele>1107.4</ele>
        <time>2021-09-12T09:22:33Z</time>
      </trkpt>
      <trkpt lat="44.07172" lon="6.47357">
        <ele>1106.4</ele>
        <time>2021-09-12T09:22:34Z</time>
      </trkpt>
      <trkpt lat="44.07173" lon="6.47366">
        <ele>1105.4</ele>
        <time>2021-09-12T09:22:35Z</time>
      </trkpt>
      <trkpt lat="44.0717" lon="6.47377">
        <ele>1104.3</ele>
        <time>2021-09-12T09:22:36Z</time>
      </trkpt>
      <trkpt lat="44.07168" lon="6.47389">
        <ele>1103.2</ele>
        <time>2021-09-12T09:22:37Z</time>
      </trkpt>
      <trkpt lat="44.07167" lon="6.47396">
        <ele>1102.7</ele>
        <time>2021-09-12T09:22:38Z</time>
      </trkpt>
      <trkpt lat="44.07164" lon="6.47406">
        <ele>1101.8</ele>
        <time>2021-09-12T09:22:39Z</time>
      </trkpt>
      <trkpt lat="44.07163" lon="6.47414">
        <ele>1101.2</ele>
        <time>2021-09-12T09:22:40Z</time>
      </trkpt>
      <trkpt lat="44.07162" lon="6.47428">
        <ele>1100.2</ele>
        <time>2021-09-12T09:22:41Z</time>
      </trkpt>
      <trkpt lat="44.07163" lon="6.4744">
        <ele>1099.4</ele>
        <time>2021-09-12T09:22:42Z</time>
      </trkpt>
      <trkpt lat="44.07164" lon="6.47449">
        <ele>1098.7</ele>
        <time>2021-09-12T09:22:43Z</time>
      </trkpt>
      <trkpt lat="44.07165" lon="6.47458">
        <ele>1098.2</ele>
        <time>2021-09-12T09:22:44Z</time>
      </trkpt>
      <trkpt lat="44.07166" lon="6.47465">
        <ele>1097.7</ele>
        <time>2021-09-12T09:22:45Z</time>
      </trkpt>
      <trkpt lat="44.07164" lon="6.47478">
        <ele>1096.8</ele>
        <time>2021-09-12T09:22:46Z</time>
      </trkpt>
      <trkpt lat="44.07165" lon="6.47486">
        <ele>1096</ele>
        <time>2021-09-12T09:22:47Z</time>
      </trkpt>
      <trkpt lat="44.07167" lon="6.47495">
        <ele>1094.9</ele>
        <time>2021-09-12T09:22:48Z</time>
      </trkpt>
      <trkpt lat="44.07167" lon="6.47508">
        <ele>1093.2</ele>
        <time>2021-09-12T09:22:49Z</time>
      </trkpt>
      <trkpt lat="44.07165" lon="6.47517">
        <ele>1091.7</ele>
        <time>2021-09-12T09:22:50Z</time>
      </trkpt>
      <trkpt lat="44.07167" lon="6.47528">
        <ele>1089.8</ele>
        <time>2021-09-12T09:22:51Z</time>
      </trkpt>
      <trkpt lat="44.07173" lon="6.47536">
        <ele>1087.9</ele>
        <time>2021-09-12T09:22:52Z</time>
      </trkpt>
      <trkpt lat="44.07176" lon="6.47539">
        <ele>1086.9</ele>
        <time>2021-09-12T09:22:53Z</time>
      </trkpt>
      <trkpt lat="44.07184" lon="6.47546">
        <ele>1085.2</ele>
        <time>2021-09-12T09:22:54Z</time>
      </trkpt>
      <trkpt lat="44.07191" lon="6.47554">
        <ele>1083.6</ele>
        <time>2021-09-12T09:22:55Z</time>
      </trkpt>
      <trkpt lat="44.07195" lon="6.47562">
        <ele>1082.3</ele>
        <time>2021-09-12T09:22:56Z</time>
      </trkpt>
      <trkpt lat="44.07197" lon="6.47569">
        <ele>1081.4</ele>
        <time>2021-09-12T09:22:57Z</time>
      </trkpt>
      <trkpt lat="44.07202" lon="6.47581">
        <ele>1079.1</ele>
        <time>2021-09-12T09:22:58Z</time>
      </trkpt>
      <trkpt lat="44.07208" lon="6.47587">
        <ele>1076.4</ele>
        <time>2021-09-12T09:22:59Z</time>
      </trkpt>
      <trkpt lat="44.07214" lon="6.47592">
        <ele>1076</ele>
        <time>2021-09-12T09:23:00Z</time>
      </trkpt>
      <trkpt lat="44.07218" lon="6.47596">
        <ele>1075.8</ele>
        <time>2021-09-12T09:23:01Z</time>
      </trkpt>
      <trkpt lat="44.07223" lon="6.476">
        <ele>1075.8</ele>
        <time>2021-09-12T09:23:02Z</time>
      </trkpt>
      <trkpt lat="44.07227" lon="6.47603">
        <ele>1075.8</ele>
        <time>2021-09-12T09:23:03Z</time>
      </trkpt>
      <trkpt lat="44.07232" lon="6.47608">
        <ele>1072.8</ele>
        <time>2021-09-12T09:23:04Z</time>
      </trkpt>
      <trkpt lat="44.0724" lon="6.47618">
        <ele>1070.1</ele>
        <time>2021-09-12T09:23:06Z</time>
      </trkpt>
      <trkpt lat="44.0725" lon="6.4763">
        <ele>1069.9</ele>
        <time>2021-09-12T09:23:08Z</time>
      </trkpt>
      <trkpt lat="44.07254" lon="6.47636">
        <ele>1069.8</ele>
        <time>2021-09-12T09:23:09Z</time>
      </trkpt>
      <trkpt lat="44.07257" lon="6.47643">
        <ele>1069.7</ele>
        <time>2021-09-12T09:23:10Z</time>
      </trkpt>
      <trkpt lat="44.07261" lon="6.47651">
        <ele>1069.7</ele>
        <time>2021-09-12T09:23:11Z</time>
      </trkpt>
      <trkpt lat="44.07265" lon="6.47659">
        <ele>1069.7</ele>
        <time>2021-09-12T09:23:12Z</time>
      </trkpt>
      <trkpt lat="44.07274" lon="6.47675">
        <ele>1069.6</ele>
        <time>2021-09-12T09:23:14Z</time>
      </trkpt>
      <trkpt lat="44.07278" lon="6.47682">
        <ele>1069.6</ele>
        <time>2021-09-12T09:23:15Z</time>
      </trkpt>
      <trkpt lat="44.07285" lon="6.47696">
        <ele>1069.6</ele>
        <time>2021-09-12T09:23:17Z</time>
      </trkpt>
      <trkpt lat="44.07289" lon="6.47703">
        <ele>1069.7</ele>
        <time>2021-09-12T09:23:19Z</time>
      </trkpt>
      <trkpt lat="44.07297" lon="6.47717">
        <ele>1069.9</ele>
        <time>2021-09-12T09:23:21Z</time>
      </trkpt>
      <trkpt lat="44.07302" lon="6.47723">
        <ele>1070</ele>
        <time>2021-09-12T09:23:22Z</time>
      </trkpt>
      <trkpt lat="44.0731" lon="6.47735">
        <ele>1070.1</ele>
        <time>2021-09-12T09:23:25Z</time>
      </trkpt>
      <trkpt lat="44.07314" lon="6.47742">
        <ele>1070.2</ele>
        <time>2021-09-12T09:23:27Z</time>
      </trkpt>
      <trkpt lat="44.07323" lon="6.47755">
        <ele>1070.5</ele>
        <time>2021-09-12T09:23:31Z</time>
      </trkpt>
      <trkpt lat="44.07333" lon="6.47767">
        <ele>1070.9</ele>
        <time>2021-09-12T09:23:34Z</time>
      </trkpt>
      <trkpt lat="44.07342" lon="6.47779">
        <ele>1071.3</ele>
        <time>2021-09-12T09:23:38Z</time>
      </trkpt>
      <trkpt lat="44.07346" lon="6.47785">
        <ele>1071.8</ele>
        <time>2021-09-12T09:23:40Z</time>
      </trkpt>
      <trkpt lat="44.07352" lon="6.47795">
        <ele>1071.8</ele>
        <time>2021-09-12T09:23:43Z</time>
      </trkpt>
      <trkpt lat="44.07355" lon="6.47798">
        <ele>1073.2</ele>
        <time>2021-09-12T09:23:44Z</time>
      </trkpt>
      <trkpt lat="44.07358" lon="6.47801">
        <ele>1073.3</ele>
        <time>2021-09-12T09:23:45Z</time>
      </trkpt>
      <trkpt lat="44.07364" lon="6.47807">
        <ele>1073.5</ele>
        <time>2021-09-12T09:23:48Z</time>
      </trkpt>
      <trkpt lat="44.07369" lon="6.47811">
        <ele>1073.7</ele>
        <time>2021-09-12T09:23:51Z</time>
      </trkpt>
      <trkpt lat="44.07373" lon="6.47808">
        <ele>1073.8</ele>
        <time>2021-09-12T09:23:53Z</time>
      </trkpt>
      <trkpt lat="44.07376" lon="6.47807">
        <ele>1073</ele>
        <time>2021-09-12T09:23:55Z</time>
      </trkpt>
      <trkpt lat="44.07378" lon="6.47806">
        <ele>1073</ele>
        <time>2021-09-12T09:23:56Z</time>
      </trkpt>
      <trkpt lat="44.07381" lon="6.47805">
        <ele>1072.9</ele>
        <time>2021-09-12T09:23:57Z</time>
      </trkpt>
      <trkpt lat="44.07381" lon="6.47798">
        <ele>1072.8</ele>
        <time>2021-09-12T09:23:58Z</time>
      </trkpt>
      <trkpt lat="44.07378" lon="6.47792">
        <ele>1072.6</ele>
        <time>2021-09-12T09:23:59Z</time>
      </trkpt>
      <trkpt lat="44.07373" lon="6.47803">
        <ele>1072.3</ele>
        <time>2021-09-12T09:24:01Z</time>
      </trkpt>
      <trkpt lat="44.07371" lon="6.47808">
        <ele>1072.2</ele>
        <time>2021-09-12T09:24:02Z</time>
      </trkpt>
      <trkpt lat="44.07375" lon="6.47816">
        <ele>1071.9</ele>
        <time>2021-09-12T09:24:03Z</time>
      </trkpt>
      <trkpt lat="44.0738" lon="6.47822">
        <ele>1071.7</ele>
        <time>2021-09-12T09:24:04Z</time>
      </trkpt>
      <trkpt lat="44.07382" lon="6.47825">
        <ele>1071.6</ele>
        <time>2021-09-12T09:24:05Z</time>
      </trkpt>
      <trkpt lat="44.07387" lon="6.47831">
        <ele>1071.4</ele>
        <time>2021-09-12T09:24:06Z</time>
      </trkpt>
      <trkpt lat="44.07391" lon="6.47834">
        <ele>1071.2</ele>
        <time>2021-09-12T09:24:07Z</time>
      </trkpt>
      <trkpt lat="44.07395" lon="6.47836">
        <ele>1071</ele>
        <time>2021-09-12T09:24:08Z</time>
      </trkpt>
      <trkpt lat="44.07401" lon="6.47839">
        <ele>1070.9</ele>
        <time>2021-09-12T09:24:09Z</time>
      </trkpt>
      <trkpt lat="44.07407" lon="6.47844">
        <ele>1070.9</ele>
        <time>2021-09-12T09:24:10Z</time>
      </trkpt>
      <trkpt lat="44.0741" lon="6.47849">
        <ele>1071.2</ele>
        <time>2021-09-12T09:24:11Z</time>
      </trkpt>
      <trkpt lat="44.07414" lon="6.47855">
        <ele>1071.4</ele>
        <time>2021-09-12T09:24:12Z</time>
      </trkpt>
      <trkpt lat="44.07417" lon="6.4786">
        <ele>1071.6</ele>
        <time>2021-09-12T09:24:13Z</time>
      </trkpt>
      <trkpt lat="44.07424" lon="6.47867">
        <ele>1072</ele>
        <time>2021-09-12T09:24:15Z</time>
      </trkpt>
      <trkpt lat="44.0743" lon="6.47874">
        <ele>1072.3</ele>
        <time>2021-09-12T09:24:17Z</time>
      </trkpt>
      <trkpt lat="44.07435" lon="6.47879">
        <ele>1072.6</ele>
        <time>2021-09-12T09:24:19Z</time>
      </trkpt>
      <trkpt lat="44.07438" lon="6.47883">
        <ele>1072.7</ele>
        <time>2021-09-12T09:24:20Z</time>
      </trkpt>
      <trkpt lat="44.07439" lon="6.47888">
        <ele>1072.9</ele>
        <time>2021-09-12T09:24:21Z</time>
      </trkpt>
      <trkpt lat="44.07441" lon="6.47893">
        <ele>1073.1</ele>
        <time>2021-09-12T09:24:22Z</time>
      </trkpt>
      <trkpt lat="44.07444" lon="6.47899">
        <ele>1073.3</ele>
        <time>2021-09-12T09:24:24Z</time>
      </trkpt>
      <trkpt lat="44.07445" lon="6.47903">
        <ele>1073.5</ele>
        <time>2021-09-12T09:24:25Z</time>
      </trkpt>
      <trkpt lat="44.07448" lon="6.47905">
        <ele>1073.6</ele>
        <time>2021-09-12T09:24:26Z</time>
      </trkpt>
      <trkpt lat="44.07453" lon="6.47908">
        <ele>1073.8</ele>
        <time>2021-09-12T09:24:28Z</time>
      </trkpt>
      <trkpt lat="44.07455" lon="6.47909">
        <ele>1073.9</ele>
        <time>2021-09-12T09:24:29Z</time>
      </trkpt>
      <trkpt lat="44.07459" lon="6.4791">
        <ele>1074.1</ele>
        <time>2021-09-12T09:24:31Z</time>
      </trkpt>
      <trkpt lat="44.07461" lon="6.47911">
        <ele>1074.2</ele>
        <time>2021-09-12T09:24:32Z</time>
      </trkpt>
      <trkpt lat="44.07464" lon="6.47912">
        <ele>1074.3</ele>
        <time>2021-09-12T09:24:33Z</time>
      </trkpt>
      <trkpt lat="44.07467" lon="6.47913">
        <ele>1074.4</ele>
        <time>2021-09-12T09:24:34Z</time>
      </trkpt>
      <trkpt lat="44.07474" lon="6.47914">
        <ele>1074.7</ele>
        <time>2021-09-12T09:24:37Z</time>
      </trkpt>
      <trkpt lat="44.0748" lon="6.47914">
        <ele>1075</ele>
        <time>2021-09-12T09:24:39Z</time>
      </trkpt>
      <trkpt lat="44.07484" lon="6.47916">
        <ele>1075.2</ele>
        <time>2021-09-12T09:24:41Z</time>
      </trkpt>
      <trkpt lat="44.07487" lon="6.47917">
        <ele>1075.3</ele>
        <time>2021-09-12T09:24:42Z</time>
      </trkpt>
      <trkpt lat="44.07491" lon="6.47918">
        <ele>1075.5</ele>
        <time>2021-09-12T09:24:44Z</time>
      </trkpt>
      <trkpt lat="44.07495" lon="6.47919">
        <ele>1075.7</ele>
        <time>2021-09-12T09:24:45Z</time>
      </trkpt>
      <trkpt lat="44.07497" lon="6.4792">
        <ele>1075.8</ele>
        <time>2021-09-12T09:24:46Z</time>
      </trkpt>
      <trkpt lat="44.075" lon="6.47921">
        <ele>1075.9</ele>
        <time>2021-09-12T09:24:47Z</time>
      </trkpt>
      <trkpt lat="44.07503" lon="6.47923">
        <ele>1076.1</ele>
        <time>2021-09-12T09:24:48Z</time>
      </trkpt>
      <trkpt lat="44.07507" lon="6.47924">
        <ele>1076.3</ele>
        <time>2021-09-12T09:24:50Z</time>
      </trkpt>
      <trkpt lat="44.0751" lon="6.47924">
        <ele>1076.5</ele>
        <time>2021-09-12T09:24:51Z</time>
      </trkpt>
      <trkpt lat="44.07515" lon="6.47927">
        <ele>1076.7</ele>
        <time>2021-09-12T09:24:53Z</time>
      </trkpt>
      <trkpt lat="44.07517" lon="6.47929">
        <ele>1076.8</ele>
        <time>2021-09-12T09:24:54Z</time>
      </trkpt>
      <trkpt lat="44.07519" lon="6.4793">
        <ele>1076.9</ele>
        <time>2021-09-12T09:24:55Z</time>
      </trkpt>
      <trkpt lat="44.07524" lon="6.47933">
        <ele>1077.2</ele>
        <time>2021-09-12T09:24:57Z</time>
      </trkpt>
      <trkpt lat="44.07527" lon="6.47935">
        <ele>1077.3</ele>
        <time>2021-09-12T09:24:58Z</time>
      </trkpt>
      <trkpt lat="44.07529" lon="6.47936">
        <ele>1077.4</ele>
        <time>2021-09-12T09:24:59Z</time>
      </trkpt>
      <trkpt lat="44.07531" lon="6.47938">
        <ele>1077.5</ele>
        <time>2021-09-12T09:25:00Z</time>
      </trkpt>
      <trkpt lat="44.07532" lon="6.47941">
        <ele>1077.6</ele>
        <time>2021-09-12T09:25:01Z</time>
      </trkpt>
      <trkpt lat="44.07537" lon="6.47943">
        <ele>1077.8</ele>
        <time>2021-09-12T09:25:03Z</time>
      </trkpt>
      <trkpt lat="44.07542" lon="6.47945">
        <ele>1077.9</ele>
        <time>2021-09-12T09:25:05Z</time>
      </trkpt>
      <trkpt lat="44.07544" lon="6.47948">
        <ele>1078</ele>
        <time>2021-09-12T09:25:06Z</time>
      </trkpt>
      <trkpt lat="44.07545" lon="6.47949">
        <ele>1078.1</ele>
        <time>2021-09-12T09:25:07Z</time>
      </trkpt>
      <trkpt lat="44.07548" lon="6.47952">
        <ele>1078.2</ele>
        <time>2021-09-12T09:25:08Z</time>
      </trkpt>
      <trkpt lat="44.0755" lon="6.47953">
        <ele>1078.2</ele>
        <time>2021-09-12T09:25:09Z</time>
      </trkpt>
      <trkpt lat="44.07552" lon="6.47953">
        <ele>1078.3</ele>
        <time>2021-09-12T09:25:10Z</time>
      </trkpt>
      <trkpt lat="44.07555" lon="6.47955">
        <ele>1078.3</ele>
        <time>2021-09-12T09:25:11Z</time>
      </trkpt>
      <trkpt lat="44.07558" lon="6.47956">
        <ele>1078.4</ele>
        <time>2021-09-12T09:25:12Z</time>
      </trkpt>
      <trkpt lat="44.07562" lon="6.47959">
        <ele>1078.4</ele>
        <time>2021-09-12T09:25:14Z</time>
      </trkpt>
      <trkpt lat="44.07569" lon="6.4796">
        <ele>1078.5</ele>
        <time>2021-09-12T09:25:16Z</time>
      </trkpt>
      <trkpt lat="44.07571" lon="6.4796">
        <ele>1078.6</ele>
        <time>2021-09-12T09:25:17Z</time>
      </trkpt>
      <trkpt lat="44.07575" lon="6.47962">
        <ele>1078.6</ele>
        <time>2021-09-12T09:25:18Z</time>
      </trkpt>
      <trkpt lat="44.07578" lon="6.47964">
        <ele>1078.7</ele>
        <time>2021-09-12T09:25:19Z</time>
      </trkpt>
      <trkpt lat="44.07582" lon="6.47965">
        <ele>1078.7</ele>
        <time>2021-09-12T09:25:21Z</time>
      </trkpt>
      <trkpt lat="44.07587" lon="6.47967">
        <ele>1078.8</ele>
        <time>2021-09-12T09:25:22Z</time>
      </trkpt>
      <trkpt lat="44.07591" lon="6.4797">
        <ele>1078.9</ele>
        <time>2021-09-12T09:25:24Z</time>
      </trkpt>
      <trkpt lat="44.07595" lon="6.47972">
        <ele>1079</ele>
        <time>2021-09-12T09:25:25Z</time>
      </trkpt>
      <trkpt lat="44.07599" lon="6.47974">
        <ele>1079</ele>
        <time>2021-09-12T09:25:26Z</time>
      </trkpt>
      <trkpt lat="44.07606" lon="6.47974">
        <ele>1079.1</ele>
        <time>2021-09-12T09:25:28Z</time>
      </trkpt>
      <trkpt lat="44.07611" lon="6.47972">
        <ele>1079.2</ele>
        <time>2021-09-12T09:25:30Z</time>
      </trkpt>
      <trkpt lat="44.07616" lon="6.47972">
        <ele>1079.3</ele>
        <time>2021-09-12T09:25:31Z</time>
      </trkpt>
      <trkpt lat="44.07619" lon="6.47972">
        <ele>1079.3</ele>
        <time>2021-09-12T09:25:32Z</time>
      </trkpt>
      <trkpt lat="44.07621" lon="6.47973">
        <ele>1079.4</ele>
        <time>2021-09-12T09:25:33Z</time>
      </trkpt>
      <trkpt lat="44.07627" lon="6.47973">
        <ele>1079.4</ele>
        <time>2021-09-12T09:25:35Z</time>
      </trkpt>
      <trkpt lat="44.07633" lon="6.47973">
        <ele>1079.5</ele>
        <time>2021-09-12T09:25:36Z</time>
      </trkpt>
      <trkpt lat="44.07637" lon="6.47973">
        <ele>1079.5</ele>
        <time>2021-09-12T09:25:38Z</time>
      </trkpt>
      <trkpt lat="44.0764" lon="6.47973">
        <ele>1079.5</ele>
        <time>2021-09-12T09:25:39Z</time>
      </trkpt>
      <trkpt lat="44.07647" lon="6.47973">
        <ele>1079.6</ele>
        <time>2021-09-12T09:25:40Z</time>
      </trkpt>
      <trkpt lat="44.07652" lon="6.47969">
        <ele>1079.6</ele>
        <time>2021-09-12T09:25:42Z</time>
      </trkpt>
      <trkpt lat="44.07656" lon="6.47963">
        <ele>1079.6</ele>
        <time>2021-09-12T09:25:44Z</time>
      </trkpt>
      <trkpt lat="44.07659" lon="6.47958">
        <ele>1079.6</ele>
        <time>2021-09-12T09:25:45Z</time>
      </trkpt>
      <trkpt lat="44.07664" lon="6.4795">
        <ele>1079.6</ele>
        <time>2021-09-12T09:25:47Z</time>
      </trkpt>
      <trkpt lat="44.07669" lon="6.47943">
        <ele>1079.7</ele>
        <time>2021-09-12T09:25:50Z</time>
      </trkpt>
      <trkpt lat="44.07674" lon="6.47938">
        <ele>1079.7</ele>
        <time>2021-09-12T09:25:51Z</time>
      </trkpt>
      <trkpt lat="44.07678" lon="6.47936">
        <ele>1079.7</ele>
        <time>2021-09-12T09:25:52Z</time>
      </trkpt>
      <trkpt lat="44.07684" lon="6.47933">
        <ele>1079.7</ele>
        <time>2021-09-12T09:25:54Z</time>
      </trkpt>
      <trkpt lat="44.07689" lon="6.47933">
        <ele>1079.7</ele>
        <time>2021-09-12T09:25:56Z</time>
      </trkpt>
      <trkpt lat="44.07695" lon="6.47933">
        <ele>1079.7</ele>
        <time>2021-09-12T09:25:57Z</time>
      </trkpt>
      <trkpt lat="44.07704" lon="6.47939">
        <ele>1079.8</ele>
        <time>2021-09-12T09:26:00Z</time>
      </trkpt>
      <trkpt lat="44.07715" lon="6.47945">
        <ele>1079.8</ele>
        <time>2021-09-12T09:26:03Z</time>
      </trkpt>
      <trkpt lat="44.07722" lon="6.47947">
        <ele>1079.9</ele>
        <time>2021-09-12T09:26:05Z</time>
      </trkpt>
      <trkpt lat="44.07732" lon="6.47952">
        <ele>1079.9</ele>
        <time>2021-09-12T09:26:08Z</time>
      </trkpt>
      <trkpt lat="44.07737" lon="6.47954">
        <ele>1080</ele>
        <time>2021-09-12T09:26:10Z</time>
      </trkpt>
      <trkpt lat="44.07747" lon="6.47959">
        <ele>1080.1</ele>
        <time>2021-09-12T09:26:13Z</time>
      </trkpt>
      <trkpt lat="44.07756" lon="6.47964">
        <ele>1080.2</ele>
        <time>2021-09-12T09:26:16Z</time>
      </trkpt>
      <trkpt lat="44.07761" lon="6.47967">
        <ele>1080.3</ele>
        <time>2021-09-12T09:26:17Z</time>
      </trkpt>
      <trkpt lat="44.07765" lon="6.47968">
        <ele>1080.5</ele>
        <time>2021-09-12T09:26:18Z</time>
      </trkpt>
      <trkpt lat="44.07771" lon="6.47969">
        <ele>1080.7</ele>
        <time>2021-09-12T09:26:20Z</time>
      </trkpt>
      <trkpt lat="44.07779" lon="6.47971">
        <ele>1081.1</ele>
        <time>2021-09-12T09:26:22Z</time>
      </trkpt>
      <trkpt lat="44.07788" lon="6.47973">
        <ele>1081.5</ele>
        <time>2021-09-12T09:26:25Z</time>
      </trkpt>
      <trkpt lat="44.07791" lon="6.47974">
        <ele>1081.7</ele>
        <time>2021-09-12T09:26:26Z</time>
      </trkpt>
      <trkpt lat="44.07797" lon="6.47975">
        <ele>1081.9</ele>
        <time>2021-09-12T09:26:28Z</time>
      </trkpt>
      <trkpt lat="44.07802" lon="6.47974">
        <ele>1082.1</ele>
        <time>2021-09-12T09:26:30Z</time>
      </trkpt>
      <trkpt lat="44.07806" lon="6.47973">
        <ele>1082.3</ele>
        <time>2021-09-12T09:26:31Z</time>
      </trkpt>
      <trkpt lat="44.07813" lon="6.47973">
        <ele>1082.6</ele>
        <time>2021-09-12T09:26:34Z</time>
      </trkpt>
      <trkpt lat="44.07819" lon="6.47972">
        <ele>1082.8</ele>
        <time>2021-09-12T09:26:36Z</time>
      </trkpt>
      <trkpt lat="44.07824" lon="6.47972">
        <ele>1083</ele>
        <time>2021-09-12T09:26:38Z</time>
      </trkpt>
      <trkpt lat="44.07829" lon="6.47972">
        <ele>1083.3</ele>
        <time>2021-09-12T09:26:40Z</time>
      </trkpt>
      <trkpt lat="44.07833" lon="6.47973">
        <ele>1083.4</ele>
        <time>2021-09-12T09:26:42Z</time>
      </trkpt>
      <trkpt lat="44.07837" lon="6.47973">
        <ele>1083.6</ele>
        <time>2021-09-12T09:26:43Z</time>
      </trkpt>
      <trkpt lat="44.07843" lon="6.47974">
        <ele>1083.9</ele>
        <time>2021-09-12T09:26:45Z</time>
      </trkpt>
      <trkpt lat="44.07847" lon="6.47975">
        <ele>1084.1</ele>
        <time>2021-09-12T09:26:47Z</time>
      </trkpt>
      <trkpt lat="44.07852" lon="6.47974">
        <ele>1084.3</ele>
        <time>2021-09-12T09:26:49Z</time>
      </trkpt>
      <trkpt lat="44.07856" lon="6.47972">
        <ele>1084.5</ele>
        <time>2021-09-12T09:26:51Z</time>
      </trkpt>
      <trkpt lat="44.07861" lon="6.4797">
        <ele>1084.7</ele>
        <time>2021-09-12T09:26:53Z</time>
      </trkpt>
      <trkpt lat="44.07867" lon="6.47969">
        <ele>1084.9</ele>
        <time>2021-09-12T09:26:55Z</time>
      </trkpt>
      <trkpt lat="44.07873" lon="6.47967">
        <ele>1085.2</ele>
        <time>2021-09-12T09:26:58Z</time>
      </trkpt>
      <trkpt lat="44.07878" lon="6.47965">
        <ele>1085.5</ele>
        <time>2021-09-12T09:27:00Z</time>
      </trkpt>
      <trkpt lat="44.07884" lon="6.47963">
        <ele>1085.7</ele>
        <time>2021-09-12T09:27:02Z</time>
      </trkpt>
      <trkpt lat="44.07889" lon="6.47961">
        <ele>1086</ele>
        <time>2021-09-12T09:27:04Z</time>
      </trkpt>
      <trkpt lat="44.07895" lon="6.47961">
        <ele>1086.2</ele>
        <time>2021-09-12T09:27:07Z</time>
      </trkpt>
      <trkpt lat="44.07902" lon="6.47961">
        <ele>1086.5</ele>
        <time>2021-09-12T09:27:09Z</time>
      </trkpt>
      <trkpt lat="44.07907" lon="6.47962">
        <ele>1086.8</ele>
        <time>2021-09-12T09:27:12Z</time>
      </trkpt>
      <trkpt lat="44.07912" lon="6.47963">
        <ele>1086.9</ele>
        <time>2021-09-12T09:27:13Z</time>
      </trkpt>
      <trkpt lat="44.07915" lon="6.47963">
        <ele>1087.1</ele>
        <time>2021-09-12T09:27:15Z</time>
      </trkpt>
      <trkpt lat="44.07918" lon="6.47964">
        <ele>1087.2</ele>
        <time>2021-09-12T09:27:16Z</time>
      </trkpt>
      <trkpt lat="44.07923" lon="6.47965">
        <ele>1087.4</ele>
        <time>2021-09-12T09:27:18Z</time>
      </trkpt>
      <trkpt lat="44.07929" lon="6.47966">
        <ele>1087.6</ele>
        <time>2021-09-12T09:27:20Z</time>
      </trkpt>
      <trkpt lat="44.07934" lon="6.47968">
        <ele>1087.8</ele>
        <time>2021-09-12T09:27:22Z</time>
      </trkpt>
      <trkpt lat="44.0794" lon="6.4797">
        <ele>1088</ele>
        <time>2021-09-12T09:27:24Z</time>
      </trkpt>
      <trkpt lat="44.07944" lon="6.47971">
        <ele>1088.2</ele>
        <time>2021-09-12T09:27:26Z</time>
      </trkpt>
      <trkpt lat="44.07947" lon="6.4797">
        <ele>1088.3</ele>
        <time>2021-09-12T09:27:27Z</time>
      </trkpt>
      <trkpt lat="44.07952" lon="6.47969">
        <ele>1088.5</ele>
        <time>2021-09-12T09:27:29Z</time>
      </trkpt>
      <trkpt lat="44.07957" lon="6.47965">
        <ele>1088.7</ele>
        <time>2021-09-12T09:27:31Z</time>
      </trkpt>
      <trkpt lat="44.0796" lon="6.47963">
        <ele>1088.8</ele>
        <time>2021-09-12T09:27:33Z</time>
      </trkpt>
      <trkpt lat="44.07963" lon="6.47961">
        <ele>1089</ele>
        <time>2021-09-12T09:27:34Z</time>
      </trkpt>
      <trkpt lat="44.07968" lon="6.47958">
        <ele>1089.2</ele>
        <time>2021-09-12T09:27:36Z</time>
      </trkpt>
      <trkpt lat="44.07971" lon="6.47957">
        <ele>1089.3</ele>
        <time>2021-09-12T09:27:37Z</time>
      </trkpt>
      <trkpt lat="44.07974" lon="6.47956">
        <ele>1089.4</ele>
        <time>2021-09-12T09:27:39Z</time>
      </trkpt>
      <trkpt lat="44.07978" lon="6.47954">
        <ele>1089.5</ele>
        <time>2021-09-12T09:27:40Z</time>
      </trkpt>
      <trkpt lat="44.07983" lon="6.47952">
        <ele>1089.6</ele>
        <time>2021-09-12T09:27:42Z</time>
      </trkpt>
      <trkpt lat="44.07988" lon="6.47951">
        <ele>1089.8</ele>
        <time>2021-09-12T09:27:44Z</time>
      </trkpt>
      <trkpt lat="44.07994" lon="6.47949">
        <ele>1089.9</ele>
        <time>2021-09-12T09:27:46Z</time>
      </trkpt>
      <trkpt lat="44.07998" lon="6.47951">
        <ele>1089.9</ele>
        <time>2021-09-12T09:27:48Z</time>
      </trkpt>
      <trkpt lat="44.08002" lon="6.47952">
        <ele>1090</ele>
        <time>2021-09-12T09:27:49Z</time>
      </trkpt>
      <trkpt lat="44.08006" lon="6.47952">
        <ele>1090</ele>
        <time>2021-09-12T09:27:50Z</time>
      </trkpt>
      <trkpt lat="44.08012" lon="6.47952">
        <ele>1090</ele>
        <time>2021-09-12T09:27:53Z</time>
      </trkpt>
      <trkpt lat="44.08017" lon="6.4795">
        <ele>1090</ele>
        <time>2021-09-12T09:27:54Z</time>
      </trkpt>
      <trkpt lat="44.08023" lon="6.47948">
        <ele>1090</ele>
        <time>2021-09-12T09:27:56Z</time>
      </trkpt>
      <trkpt lat="44.08029" lon="6.47945">
        <ele>1089.9</ele>
        <time>2021-09-12T09:27:58Z</time>
      </trkpt>
      <trkpt lat="44.08037" lon="6.47944">
        <ele>1089.9</ele>
        <time>2021-09-12T09:28:01Z</time>
      </trkpt>
      <trkpt lat="44.08043" lon="6.47942">
        <ele>1089.8</ele>
        <time>2021-09-12T09:28:02Z</time>
      </trkpt>
      <trkpt lat="44.08047" lon="6.47941">
        <ele>1089.8</ele>
        <time>2021-09-12T09:28:04Z</time>
      </trkpt>
      <trkpt lat="44.08059" lon="6.4794">
        <ele>1089.7</ele>
        <time>2021-09-12T09:28:07Z</time>
      </trkpt>
      <trkpt lat="44.08069" lon="6.47937">
        <ele>1089.6</ele>
        <time>2021-09-12T09:28:10Z</time>
      </trkpt>
      <trkpt lat="44.08073" lon="6.47935">
        <ele>1089.6</ele>
        <time>2021-09-12T09:28:11Z</time>
      </trkpt>
      <trkpt lat="44.08083" lon="6.47933">
        <ele>1089.5</ele>
        <time>2021-09-12T09:28:13Z</time>
      </trkpt>
      <trkpt lat="44.08088" lon="6.47932">
        <ele>1089.5</ele>
        <time>2021-09-12T09:28:15Z</time>
      </trkpt>
      <trkpt lat="44.08094" lon="6.4793">
        <ele>1089.5</ele>
        <time>2021-09-12T09:28:16Z</time>
      </trkpt>
      <trkpt lat="44.08105" lon="6.47928">
        <ele>1089.5</ele>
        <time>2021-09-12T09:28:20Z</time>
      </trkpt>
      <trkpt lat="44.08116" lon="6.47927">
        <ele>1089.5</ele>
        <time>2021-09-12T09:28:23Z</time>
      </trkpt>
      <trkpt lat="44.08122" lon="6.47926">
        <ele>1089.5</ele>
        <time>2021-09-12T09:28:24Z</time>
      </trkpt>
      <trkpt lat="44.08131" lon="6.47925">
        <ele>1089.5</ele>
        <time>2021-09-12T09:28:27Z</time>
      </trkpt>
      <trkpt lat="44.08142" lon="6.47922">
        <ele>1089.5</ele>
        <time>2021-09-12T09:28:30Z</time>
      </trkpt>
      <trkpt lat="44.08153" lon="6.47916">
        <ele>1089.5</ele>
        <time>2021-09-12T09:28:33Z</time>
      </trkpt>
      <trkpt lat="44.08163" lon="6.4791">
        <ele>1089.5</ele>
        <time>2021-09-12T09:28:37Z</time>
      </trkpt>
      <trkpt lat="44.08167" lon="6.47908">
        <ele>1089.5</ele>
        <time>2021-09-12T09:28:38Z</time>
      </trkpt>
      <trkpt lat="44.08176" lon="6.47907">
        <ele>1089.6</ele>
        <time>2021-09-12T09:28:41Z</time>
      </trkpt>
      <trkpt lat="44.08181" lon="6.47906">
        <ele>1089.7</ele>
        <time>2021-09-12T09:28:43Z</time>
      </trkpt>
      <trkpt lat="44.08192" lon="6.47902">
        <ele>1089.9</ele>
        <time>2021-09-12T09:28:46Z</time>
      </trkpt>
      <trkpt lat="44.08198" lon="6.479">
        <ele>1090</ele>
        <time>2021-09-12T09:28:48Z</time>
      </trkpt>
      <trkpt lat="44.08203" lon="6.47898">
        <ele>1090.1</ele>
        <time>2021-09-12T09:28:50Z</time>
      </trkpt>
      <trkpt lat="44.08214" lon="6.47894">
        <ele>1090.3</ele>
        <time>2021-09-12T09:28:53Z</time>
      </trkpt>
      <trkpt lat="44.08225" lon="6.47892">
        <ele>1090.6</ele>
        <time>2021-09-12T09:28:57Z</time>
      </trkpt>
      <trkpt lat="44.08231" lon="6.47891">
        <ele>1090.7</ele>
        <time>2021-09-12T09:28:58Z</time>
      </trkpt>
      <trkpt lat="44.08242" lon="6.47889">
        <ele>1091.1</ele>
        <time>2021-09-12T09:29:02Z</time>
      </trkpt>
      <trkpt lat="44.08248" lon="6.47889">
        <ele>1091.3</ele>
        <time>2021-09-12T09:29:04Z</time>
      </trkpt>
      <trkpt lat="44.08259" lon="6.47888">
        <ele>1091.7</ele>
        <time>2021-09-12T09:29:07Z</time>
      </trkpt>
      <trkpt lat="44.08268" lon="6.47889">
        <ele>1092</ele>
        <time>2021-09-12T09:29:10Z</time>
      </trkpt>
      <trkpt lat="44.08273" lon="6.4789">
        <ele>1092.2</ele>
        <time>2021-09-12T09:29:11Z</time>
      </trkpt>
      <trkpt lat="44.08277" lon="6.47891">
        <ele>1092.4</ele>
        <time>2021-09-12T09:29:13Z</time>
      </trkpt>
      <trkpt lat="44.08284" lon="6.47893">
        <ele>1092.7</ele>
        <time>2021-09-12T09:29:15Z</time>
      </trkpt>
      <trkpt lat="44.0829" lon="6.47895">
        <ele>1093</ele>
        <time>2021-09-12T09:29:17Z</time>
      </trkpt>
      <trkpt lat="44.08297" lon="6.47899">
        <ele>1093.3</ele>
        <time>2021-09-12T09:29:20Z</time>
      </trkpt>
      <trkpt lat="44.08301" lon="6.47901">
        <ele>1093.5</ele>
        <time>2021-09-12T09:29:22Z</time>
      </trkpt>
      <trkpt lat="44.08306" lon="6.47903">
        <ele>1093.7</ele>
        <time>2021-09-12T09:29:23Z</time>
      </trkpt>
      <trkpt lat="44.08309" lon="6.47904">
        <ele>1093.9</ele>
        <time>2021-09-12T09:29:25Z</time>
      </trkpt>
      <trkpt lat="44.08315" lon="6.47906">
        <ele>1094.2</ele>
        <time>2021-09-12T09:29:27Z</time>
      </trkpt>
      <trkpt lat="44.08322" lon="6.4791">
        <ele>1094.5</ele>
        <time>2021-09-12T09:29:30Z</time>
      </trkpt>
      <trkpt lat="44.08326" lon="6.47913">
        <ele>1094.8</ele>
        <time>2021-09-12T09:29:32Z</time>
      </trkpt>
      <trkpt lat="44.08329" lon="6.47915">
        <ele>1095</ele>
        <time>2021-09-12T09:29:33Z</time>
      </trkpt>
      <trkpt lat="44.08335" lon="6.4792">
        <ele>1095.3</ele>
        <time>2021-09-12T09:29:36Z</time>
      </trkpt>
      <trkpt lat="44.0834" lon="6.47924">
        <ele>1095.6</ele>
        <time>2021-09-12T09:29:39Z</time>
      </trkpt>
      <trkpt lat="44.08344" lon="6.47927">
        <ele>1095.8</ele>
        <time>2021-09-12T09:29:40Z</time>
      </trkpt>
      <trkpt lat="44.08348" lon="6.4793">
        <ele>1096.1</ele>
        <time>2021-09-12T09:29:42Z</time>
      </trkpt>
      <trkpt lat="44.08353" lon="6.47933">
        <ele>1096.3</ele>
        <time>2021-09-12T09:29:45Z</time>
      </trkpt>
      <trkpt lat="44.08357" lon="6.47935">
        <ele>1096.5</ele>
        <time>2021-09-12T09:29:46Z</time>
      </trkpt>
      <trkpt lat="44.0836" lon="6.47937">
        <ele>1096.6</ele>
        <time>2021-09-12T09:29:48Z</time>
      </trkpt>
      <trkpt lat="44.08364" lon="6.4794">
        <ele>1096.8</ele>
        <time>2021-09-12T09:29:50Z</time>
      </trkpt>
      <trkpt lat="44.08369" lon="6.47941">
        <ele>1096.9</ele>
        <time>2021-09-12T09:29:52Z</time>
      </trkpt>
      <trkpt lat="44.08373" lon="6.47942">
        <ele>1097.1</ele>
        <time>2021-09-12T09:29:53Z</time>
      </trkpt>
      <trkpt lat="44.08375" lon="6.47944">
        <ele>1097.2</ele>
        <time>2021-09-12T09:29:54Z</time>
      </trkpt>
      <trkpt lat="44.0838" lon="6.47945">
        <ele>1097.4</ele>
        <time>2021-09-12T09:29:56Z</time>
      </trkpt>
      <trkpt lat="44.08384" lon="6.47945">
        <ele>1097.4</ele>
        <time>2021-09-12T09:29:58Z</time>
      </trkpt>
      <trkpt lat="44.08387" lon="6.47946">
        <ele>1097.5</ele>
        <time>2021-09-12T09:29:59Z</time>
      </trkpt>
      <trkpt lat="44.08393" lon="6.47948">
        <ele>1097.5</ele>
        <time>2021-09-12T09:30:01Z</time>
      </trkpt>
      <trkpt lat="44.08397" lon="6.47949">
        <ele>1097.6</ele>
        <time>2021-09-12T09:30:03Z</time>
      </trkpt>
      <trkpt lat="44.084" lon="6.4795">
        <ele>1097.6</ele>
        <time>2021-09-12T09:30:04Z</time>
      </trkpt>
      <trkpt lat="44.08405" lon="6.47951">
        <ele>1097.6</ele>
        <time>2021-09-12T09:30:06Z</time>
      </trkpt>
      <trkpt lat="44.0841" lon="6.47953">
        <ele>1097.6</ele>
        <time>2021-09-12T09:30:07Z</time>
      </trkpt>
      <trkpt lat="44.08414" lon="6.47954">
        <ele>1097.6</ele>
        <time>2021-09-12T09:30:09Z</time>
      </trkpt>
      <trkpt lat="44.08418" lon="6.47956">
        <ele>1097.6</ele>
        <time>2021-09-12T09:30:10Z</time>
      </trkpt>
      <trkpt lat="44.08424" lon="6.47958">
        <ele>1097.5</ele>
        <time>2021-09-12T09:30:12Z</time>
      </trkpt>
      <trkpt lat="44.08427" lon="6.47959">
        <ele>1097.5</ele>
        <time>2021-09-12T09:30:13Z</time>
      </trkpt>
      <trkpt lat="44.08431" lon="6.4796">
        <ele>1097.4</ele>
        <time>2021-09-12T09:30:14Z</time>
      </trkpt>
      <trkpt lat="44.08434" lon="6.4796">
        <ele>1097.4</ele>
        <time>2021-09-12T09:30:15Z</time>
      </trkpt>
      <trkpt lat="44.08441" lon="6.47963">
        <ele>1097.3</ele>
        <time>2021-09-12T09:30:17Z</time>
      </trkpt>
      <trkpt lat="44.08447" lon="6.47966">
        <ele>1097.2</ele>
        <time>2021-09-12T09:30:18Z</time>
      </trkpt>
      <trkpt lat="44.08457" lon="6.47969">
        <ele>1097.1</ele>
        <time>2021-09-12T09:30:21Z</time>
      </trkpt>
      <trkpt lat="44.08462" lon="6.47971">
        <ele>1097.1</ele>
        <time>2021-09-12T09:30:23Z</time>
      </trkpt>
      <trkpt lat="44.08472" lon="6.47973">
        <ele>1097</ele>
        <time>2021-09-12T09:30:25Z</time>
      </trkpt>
      <trkpt lat="44.08477" lon="6.47972">
        <ele>1096.9</ele>
        <time>2021-09-12T09:30:26Z</time>
      </trkpt>
      <trkpt lat="44.08482" lon="6.47971">
        <ele>1096.9</ele>
        <time>2021-09-12T09:30:28Z</time>
      </trkpt>
      <trkpt lat="44.08488" lon="6.4797">
        <ele>1096.9</ele>
        <time>2021-09-12T09:30:29Z</time>
      </trkpt>
      <trkpt lat="44.08494" lon="6.4797">
        <ele>1096.9</ele>
        <time>2021-09-12T09:30:30Z</time>
      </trkpt>
      <trkpt lat="44.08505" lon="6.47969">
        <ele>1096.9</ele>
        <time>2021-09-12T09:30:33Z</time>
      </trkpt>
      <trkpt lat="44.08509" lon="6.47967">
        <ele>1096.9</ele>
        <time>2021-09-12T09:30:34Z</time>
      </trkpt>
      <trkpt lat="44.08512" lon="6.47966">
        <ele>1096.9</ele>
        <time>2021-09-12T09:30:35Z</time>
      </trkpt>
      <trkpt lat="44.08522" lon="6.47961">
        <ele>1096.9</ele>
        <time>2021-09-12T09:30:38Z</time>
      </trkpt>
      <trkpt lat="44.08533" lon="6.47956">
        <ele>1096.9</ele>
        <time>2021-09-12T09:30:41Z</time>
      </trkpt>
      <trkpt lat="44.08544" lon="6.47954">
        <ele>1096.9</ele>
        <time>2021-09-12T09:30:45Z</time>
      </trkpt>
      <trkpt lat="44.08554" lon="6.47954">
        <ele>1096.9</ele>
        <time>2021-09-12T09:30:48Z</time>
      </trkpt>
      <trkpt lat="44.08565" lon="6.47956">
        <ele>1096.9</ele>
        <time>2021-09-12T09:30:51Z</time>
      </trkpt>
      <trkpt lat="44.0857" lon="6.47957">
        <ele>1096.9</ele>
        <time>2021-09-12T09:30:53Z</time>
      </trkpt>
      <trkpt lat="44.08583" lon="6.47956">
        <ele>1097</ele>
        <time>2021-09-12T09:30:57Z</time>
      </trkpt>
      <trkpt lat="44.08589" lon="6.47956">
        <ele>1097.2</ele>
        <time>2021-09-12T09:30:59Z</time>
      </trkpt>
      <trkpt lat="44.086" lon="6.47953">
        <ele>1097.6</ele>
        <time>2021-09-12T09:31:02Z</time>
      </trkpt>
      <trkpt lat="44.08604" lon="6.47953">
        <ele>1097.8</ele>
        <time>2021-09-12T09:31:04Z</time>
      </trkpt>
      <trkpt lat="44.08607" lon="6.47952">
        <ele>1097.8</ele>
        <time>2021-09-12T09:31:05Z</time>
      </trkpt>
      <trkpt lat="44.08612" lon="6.47952">
        <ele>1098</ele>
        <time>2021-09-12T09:31:06Z</time>
      </trkpt>
      <trkpt lat="44.08616" lon="6.47952">
        <ele>1098.1</ele>
        <time>2021-09-12T09:31:08Z</time>
      </trkpt>
      <trkpt lat="44.08623" lon="6.47953">
        <ele>1098.2</ele>
        <time>2021-09-12T09:31:10Z</time>
      </trkpt>
      <trkpt lat="44.08628" lon="6.47954">
        <ele>1098.1</ele>
        <time>2021-09-12T09:31:11Z</time>
      </trkpt>
      <trkpt lat="44.08634" lon="6.47956">
        <ele>1097.9</ele>
        <time>2021-09-12T09:31:13Z</time>
      </trkpt>
      <trkpt lat="44.08639" lon="6.47959">
        <ele>1097.7</ele>
        <time>2021-09-12T09:31:15Z</time>
      </trkpt>
      <trkpt lat="44.08645" lon="6.47963">
        <ele>1097.4</ele>
        <time>2021-09-12T09:31:17Z</time>
      </trkpt>
      <trkpt lat="44.08649" lon="6.47969">
        <ele>1097.2</ele>
        <time>2021-09-12T09:31:19Z</time>
      </trkpt>
      <trkpt lat="44.08653" lon="6.47975">
        <ele>1097</ele>
        <time>2021-09-12T09:31:20Z</time>
      </trkpt>
      <trkpt lat="44.0866" lon="6.47982">
        <ele>1096.7</ele>
        <time>2021-09-12T09:31:22Z</time>
      </trkpt>
      <trkpt lat="44.08664" lon="6.47982">
        <ele>1096.6</ele>
        <time>2021-09-12T09:31:23Z</time>
      </trkpt>
      <trkpt lat="44.08671" lon="6.47996">
        <ele>1103.3</ele>
        <time>2021-09-12T09:31:26Z</time>
      </trkpt>
      <trkpt lat="44.08676" lon="6.48003">
        <ele>1103.7</ele>
        <time>2021-09-12T09:31:28Z</time>
      </trkpt>
      <trkpt lat="44.08684" lon="6.48012">
        <ele>1104.4</ele>
        <time>2021-09-12T09:31:30Z</time>
      </trkpt>
      <trkpt lat="44.08698" lon="6.48015">
        <ele>1105.6</ele>
        <time>2021-09-12T09:31:35Z</time>
      </trkpt>
      <trkpt lat="44.08711" lon="6.48016">
        <ele>1106.9</ele>
        <time>2021-09-12T09:31:39Z</time>
      </trkpt>
      <trkpt lat="44.08718" lon="6.48016">
        <ele>1106.9</ele>
        <time>2021-09-12T09:31:41Z</time>
      </trkpt>
      <trkpt lat="44.0873" lon="6.48014">
        <ele>1106.9</ele>
        <time>2021-09-12T09:31:46Z</time>
      </trkpt>
      <trkpt lat="44.08734" lon="6.48013">
        <ele>1106.9</ele>
        <time>2021-09-12T09:31:48Z</time>
      </trkpt>
      <trkpt lat="44.08736" lon="6.48011">
        <ele>1107</ele>
        <time>2021-09-12T09:31:49Z</time>
      </trkpt>
      <trkpt lat="44.08739" lon="6.48007">
        <ele>1107.3</ele>
        <time>2021-09-12T09:31:52Z</time>
      </trkpt>
      <trkpt lat="44.08747" lon="6.48002">
        <ele>1107.8</ele>
        <time>2021-09-12T09:31:56Z</time>
      </trkpt>
      <trkpt lat="44.08753" lon="6.47999">
        <ele>1108.2</ele>
        <time>2021-09-12T09:32:00Z</time>
      </trkpt>
      <trkpt lat="44.08757" lon="6.48004">
        <ele>1108.5</ele>
        <time>2021-09-12T09:32:02Z</time>
      </trkpt>
      <trkpt lat="44.08759" lon="6.48005">
        <ele>1108.7</ele>
        <time>2021-09-12T09:32:03Z</time>
      </trkpt>
      <trkpt lat="44.08765" lon="6.48005">
        <ele>1109</ele>
        <time>2021-09-12T09:32:06Z</time>
      </trkpt>
      <trkpt lat="44.08769" lon="6.48017">
        <ele>1109.6</ele>
        <time>2021-09-12T09:32:10Z</time>
      </trkpt>
      <trkpt lat="44.08773" lon="6.4802">
        <ele>1109.9</ele>
        <time>2021-09-12T09:32:11Z</time>
      </trkpt>
      <trkpt lat="44.08775" lon="6.4803">
        <ele>1110.2</ele>
        <time>2021-09-12T09:32:15Z</time>
      </trkpt>
      <trkpt lat="44.08778" lon="6.48032">
        <ele>1110.4</ele>
        <time>2021-09-12T09:32:16Z</time>
      </trkpt>
      <trkpt lat="44.08781" lon="6.48034">
        <ele>1110.5</ele>
        <time>2021-09-12T09:32:17Z</time>
      </trkpt>
      <trkpt lat="44.08786" lon="6.48038">
        <ele>1110.8</ele>
        <time>2021-09-12T09:32:20Z</time>
      </trkpt>
      <trkpt lat="44.0879" lon="6.48039">
        <ele>1111</ele>
        <time>2021-09-12T09:32:22Z</time>
      </trkpt>
      <trkpt lat="44.08795" lon="6.4804">
        <ele>1111.2</ele>
        <time>2021-09-12T09:32:24Z</time>
      </trkpt>
      <trkpt lat="44.08801" lon="6.4804">
        <ele>1111.5</ele>
        <time>2021-09-12T09:32:27Z</time>
      </trkpt>
      <trkpt lat="44.08808" lon="6.48043">
        <ele>1111.9</ele>
        <time>2021-09-12T09:32:30Z</time>
      </trkpt>
      <trkpt lat="44.08812" lon="6.48047">
        <ele>1112.2</ele>
        <time>2021-09-12T09:32:32Z</time>
      </trkpt>
      <trkpt lat="44.08818" lon="6.48049">
        <ele>1112.5</ele>
        <time>2021-09-12T09:32:35Z</time>
      </trkpt>
      <trkpt lat="44.08821" lon="6.48051">
        <ele>1112.7</ele>
        <time>2021-09-12T09:32:36Z</time>
      </trkpt>
      <trkpt lat="44.08825" lon="6.48053">
        <ele>1112.9</ele>
        <time>2021-09-12T09:32:38Z</time>
      </trkpt>
      <trkpt lat="44.08827" lon="6.48054">
        <ele>1113.1</ele>
        <time>2021-09-12T09:32:39Z</time>
      </trkpt>
      <trkpt lat="44.08832" lon="6.48059">
        <ele>1113.5</ele>
        <time>2021-09-12T09:32:42Z</time>
      </trkpt>
      <trkpt lat="44.08827" lon="6.48064">
        <ele>1114</ele>
        <time>2021-09-12T09:32:44Z</time>
      </trkpt>
      <trkpt lat="44.08829" lon="6.48064">
        <ele>1114.1</ele>
        <time>2021-09-12T09:32:45Z</time>
      </trkpt>
      <trkpt lat="44.08832" lon="6.48066">
        <ele>1114.4</ele>
        <time>2021-09-12T09:32:47Z</time>
      </trkpt>
      <trkpt lat="44.08835" lon="6.48069">
        <ele>1114.8</ele>
        <time>2021-09-12T09:32:48Z</time>
      </trkpt>
      <trkpt lat="44.08837" lon="6.48071">
        <ele>1115</ele>
        <time>2021-09-12T09:32:50Z</time>
      </trkpt>
      <trkpt lat="44.08883" lon="6.48139">
        <ele>1115.7</ele>
        <time>2021-09-12T09:33:29Z</time>
      </trkpt>
      <trkpt lat="44.08893" lon="6.48145">
        <ele>1114.5</ele>
        <time>2021-09-12T09:33:36Z</time>
      </trkpt>
      <trkpt lat="44.08914" lon="6.48157">
        <ele>1112.4</ele>
        <time>2021-09-12T09:33:48Z</time>
      </trkpt>
      <trkpt lat="44.08918" lon="6.48162">
        <ele>1112.1</ele>
        <time>2021-09-12T09:33:50Z</time>
      </trkpt>
      <trkpt lat="44.08921" lon="6.48165">
        <ele>1111.8</ele>
        <time>2021-09-12T09:33:51Z</time>
      </trkpt>
      <trkpt lat="44.08926" lon="6.48169">
        <ele>1111.5</ele>
        <time>2021-09-12T09:33:53Z</time>
      </trkpt>
      <trkpt lat="44.08935" lon="6.48171">
        <ele>1111.2</ele>
        <time>2021-09-12T09:33:56Z</time>
      </trkpt>
      <trkpt lat="44.08943" lon="6.4817">
        <ele>1111</ele>
        <time>2021-09-12T09:33:58Z</time>
      </trkpt>
      <trkpt lat="44.0895" lon="6.48169">
        <ele>1110.9</ele>
        <time>2021-09-12T09:33:59Z</time>
      </trkpt>
      <trkpt lat="44.08954" lon="6.48167">
        <ele>1110.9</ele>
        <time>2021-09-12T09:34:00Z</time>
      </trkpt>
      <trkpt lat="44.0896" lon="6.48167">
        <ele>1110.9</ele>
        <time>2021-09-12T09:34:01Z</time>
      </trkpt>
      <trkpt lat="44.08963" lon="6.48168">
        <ele>1110.9</ele>
        <time>2021-09-12T09:34:02Z</time>
      </trkpt>
      <trkpt lat="44.08966" lon="6.48169">
        <ele>1110.9</ele>
        <time>2021-09-12T09:34:03Z</time>
      </trkpt>
      <trkpt lat="44.08971" lon="6.48172">
        <ele>1110.8</ele>
        <time>2021-09-12T09:34:04Z</time>
      </trkpt>
      <trkpt lat="44.08978" lon="6.48175">
        <ele>1110.7</ele>
        <time>2021-09-12T09:34:05Z</time>
      </trkpt>
      <trkpt lat="44.08982" lon="6.48177">
        <ele>1110.6</ele>
        <time>2021-09-12T09:34:06Z</time>
      </trkpt>
      <trkpt lat="44.08988" lon="6.4818">
        <ele>1110.4</ele>
        <time>2021-09-12T09:34:08Z</time>
      </trkpt>
      <trkpt lat="44.08994" lon="6.48183">
        <ele>1110.4</ele>
        <time>2021-09-12T09:34:09Z</time>
      </trkpt>
      <trkpt lat="44.08999" lon="6.48185">
        <ele>1110.7</ele>
        <time>2021-09-12T09:34:11Z</time>
      </trkpt>
      <trkpt lat="44.09005" lon="6.48188">
        <ele>1110.9</ele>
        <time>2021-09-12T09:34:13Z</time>
      </trkpt>
      <trkpt lat="44.09009" lon="6.48191">
        <ele>1111.1</ele>
        <time>2021-09-12T09:34:14Z</time>
      </trkpt>
      <trkpt lat="44.09013" lon="6.48191">
        <ele>1111.2</ele>
        <time>2021-09-12T09:34:15Z</time>
      </trkpt>
      <trkpt lat="44.09016" lon="6.48191">
        <ele>1111.3</ele>
        <time>2021-09-12T09:34:16Z</time>
      </trkpt>
      <trkpt lat="44.09024" lon="6.48192">
        <ele>1111.7</ele>
        <time>2021-09-12T09:34:18Z</time>
      </trkpt>
      <trkpt lat="44.0903" lon="6.48192">
        <ele>1112</ele>
        <time>2021-09-12T09:34:19Z</time>
      </trkpt>
      <trkpt lat="44.09035" lon="6.48192">
        <ele>1112.3</ele>
        <time>2021-09-12T09:34:21Z</time>
      </trkpt>
      <trkpt lat="44.09041" lon="6.48192">
        <ele>1112.6</ele>
        <time>2021-09-12T09:34:23Z</time>
      </trkpt>
      <trkpt lat="44.09048" lon="6.48193">
        <ele>1113</ele>
        <time>2021-09-12T09:34:26Z</time>
      </trkpt>
      <trkpt lat="44.09053" lon="6.48192">
        <ele>1113.2</ele>
        <time>2021-09-12T09:34:28Z</time>
      </trkpt>
      <trkpt lat="44.09057" lon="6.48192">
        <ele>1113.4</ele>
        <time>2021-09-12T09:34:29Z</time>
      </trkpt>
      <trkpt lat="44.0906" lon="6.48193">
        <ele>1113.6</ele>
        <time>2021-09-12T09:34:30Z</time>
      </trkpt>
      <trkpt lat="44.09061" lon="6.48193">
        <ele>1113.6</ele>
        <time>2021-09-12T09:34:31Z</time>
      </trkpt>
      <trkpt lat="44.09064" lon="6.48194">
        <ele>1113.7</ele>
        <time>2021-09-12T09:34:32Z</time>
      </trkpt>
      <trkpt lat="44.09067" lon="6.48194">
        <ele>1113.8</ele>
        <time>2021-09-12T09:34:33Z</time>
      </trkpt>
      <trkpt lat="44.0907" lon="6.48194">
        <ele>1114</ele>
        <time>2021-09-12T09:34:35Z</time>
      </trkpt>
      <trkpt lat="44.09075" lon="6.482">
        <ele>1114.2</ele>
        <time>2021-09-12T09:34:37Z</time>
      </trkpt>
      <trkpt lat="44.09082" lon="6.48208">
        <ele>1114.6</ele>
        <time>2021-09-12T09:34:40Z</time>
      </trkpt>
      <trkpt lat="44.09085" lon="6.48215">
        <ele>1114.8</ele>
        <time>2021-09-12T09:34:43Z</time>
      </trkpt>
      <trkpt lat="44.0909" lon="6.48225">
        <ele>1115</ele>
        <time>2021-09-12T09:34:46Z</time>
      </trkpt>
      <trkpt lat="44.09094" lon="6.48232">
        <ele>1115.2</ele>
        <time>2021-09-12T09:34:49Z</time>
      </trkpt>
      <trkpt lat="44.09097" lon="6.48236">
        <ele>1115.3</ele>
        <time>2021-09-12T09:34:50Z</time>
      </trkpt>
      <trkpt lat="44.09102" lon="6.48239">
        <ele>1115.4</ele>
        <time>2021-09-12T09:34:52Z</time>
      </trkpt>
      <trkpt lat="44.09108" lon="6.48241">
        <ele>1115.6</ele>
        <time>2021-09-12T09:34:55Z</time>
      </trkpt>
      <trkpt lat="44.09115" lon="6.48242">
        <ele>1115.8</ele>
        <time>2021-09-12T09:34:57Z</time>
      </trkpt>
      <trkpt lat="44.0912" lon="6.48242">
        <ele>1116</ele>
        <time>2021-09-12T09:34:59Z</time>
      </trkpt>
      <trkpt lat="44.09124" lon="6.48241">
        <ele>1116.2</ele>
        <time>2021-09-12T09:35:00Z</time>
      </trkpt>
      <trkpt lat="44.09133" lon="6.48242">
        <ele>1116.5</ele>
        <time>2021-09-12T09:35:03Z</time>
      </trkpt>
      <trkpt lat="44.09141" lon="6.48239">
        <ele>1116.8</ele>
        <time>2021-09-12T09:35:06Z</time>
      </trkpt>
      <trkpt lat="44.0915" lon="6.48238">
        <ele>1117.3</ele>
        <time>2021-09-12T09:35:10Z</time>
      </trkpt>
      <trkpt lat="44.09156" lon="6.48238">
        <ele>1117.5</ele>
        <time>2021-09-12T09:35:12Z</time>
      </trkpt>
      <trkpt lat="44.09162" lon="6.48239">
        <ele>1117.7</ele>
        <time>2021-09-12T09:35:14Z</time>
      </trkpt>
      <trkpt lat="44.09168" lon="6.48239">
        <ele>1117.9</ele>
        <time>2021-09-12T09:35:16Z</time>
      </trkpt>
      <trkpt lat="44.09178" lon="6.4824">
        <ele>1118.3</ele>
        <time>2021-09-12T09:35:19Z</time>
      </trkpt>
      <trkpt lat="44.09183" lon="6.48239">
        <ele>1118.5</ele>
        <time>2021-09-12T09:35:21Z</time>
      </trkpt>
      <trkpt lat="44.0919" lon="6.48242">
        <ele>1118.7</ele>
        <time>2021-09-12T09:35:24Z</time>
      </trkpt>
      <trkpt lat="44.09197" lon="6.48244">
        <ele>1119</ele>
        <time>2021-09-12T09:35:27Z</time>
      </trkpt>
      <trkpt lat="44.09202" lon="6.48245">
        <ele>1119.2</ele>
        <time>2021-09-12T09:35:29Z</time>
      </trkpt>
      <trkpt lat="44.09206" lon="6.48248">
        <ele>1119.3</ele>
        <time>2021-09-12T09:35:30Z</time>
      </trkpt>
      <trkpt lat="44.09208" lon="6.48249">
        <ele>1119.4</ele>
        <time>2021-09-12T09:35:31Z</time>
      </trkpt>
      <trkpt lat="44.09212" lon="6.48253">
        <ele>1119.7</ele>
        <time>2021-09-12T09:35:33Z</time>
      </trkpt>
      <trkpt lat="44.09215" lon="6.48254">
        <ele>1119.8</ele>
        <time>2021-09-12T09:35:34Z</time>
      </trkpt>
      <trkpt lat="44.09217" lon="6.48256">
        <ele>1119.9</ele>
        <time>2021-09-12T09:35:35Z</time>
      </trkpt>
      <trkpt lat="44.09221" lon="6.48261">
        <ele>1120.2</ele>
        <time>2021-09-12T09:35:37Z</time>
      </trkpt>
      <trkpt lat="44.09223" lon="6.48267">
        <ele>1120.4</ele>
        <time>2021-09-12T09:35:39Z</time>
      </trkpt>
      <trkpt lat="44.09226" lon="6.48273">
        <ele>1120.6</ele>
        <time>2021-09-12T09:35:41Z</time>
      </trkpt>
      <trkpt lat="44.09228" lon="6.4828">
        <ele>1120.8</ele>
        <time>2021-09-12T09:35:43Z</time>
      </trkpt>
      <trkpt lat="44.09231" lon="6.48289">
        <ele>1121</ele>
        <time>2021-09-12T09:35:45Z</time>
      </trkpt>
      <trkpt lat="44.09233" lon="6.48295">
        <ele>1121.2</ele>
        <time>2021-09-12T09:35:47Z</time>
      </trkpt>
      <trkpt lat="44.09234" lon="6.483">
        <ele>1121.3</ele>
        <time>2021-09-12T09:35:49Z</time>
      </trkpt>
      <trkpt lat="44.09237" lon="6.48307">
        <ele>1121.5</ele>
        <time>2021-09-12T09:35:51Z</time>
      </trkpt>
      <trkpt lat="44.09241" lon="6.48315">
        <ele>1121.8</ele>
        <time>2021-09-12T09:35:54Z</time>
      </trkpt>
      <trkpt lat="44.09244" lon="6.48321">
        <ele>1122</ele>
        <time>2021-09-12T09:35:56Z</time>
      </trkpt>
      <trkpt lat="44.09249" lon="6.48329">
        <ele>1122.2</ele>
        <time>2021-09-12T09:35:58Z</time>
      </trkpt>
      <trkpt lat="44.09254" lon="6.48338">
        <ele>1122.5</ele>
        <time>2021-09-12T09:36:01Z</time>
      </trkpt>
      <trkpt lat="44.09259" lon="6.48343">
        <ele>1122.7</ele>
        <time>2021-09-12T09:36:03Z</time>
      </trkpt>
      <trkpt lat="44.09261" lon="6.48345">
        <ele>1122.9</ele>
        <time>2021-09-12T09:36:05Z</time>
      </trkpt>
      <trkpt lat="44.09265" lon="6.4835">
        <ele>1123.1</ele>
        <time>2021-09-12T09:36:06Z</time>
      </trkpt>
      <trkpt lat="44.09267" lon="6.48356">
        <ele>1123.3</ele>
        <time>2021-09-12T09:36:08Z</time>
      </trkpt>
      <trkpt lat="44.0927" lon="6.48361">
        <ele>1123.5</ele>
        <time>2021-09-12T09:36:10Z</time>
      </trkpt>
      <trkpt lat="44.09271" lon="6.48364">
        <ele>1123.6</ele>
        <time>2021-09-12T09:36:11Z</time>
      </trkpt>
      <trkpt lat="44.09273" lon="6.48369">
        <ele>1123.8</ele>
        <time>2021-09-12T09:36:12Z</time>
      </trkpt>
      <trkpt lat="44.09274" lon="6.48373">
        <ele>1123.9</ele>
        <time>2021-09-12T09:36:13Z</time>
      </trkpt>
      <trkpt lat="44.09275" lon="6.48376">
        <ele>1124</ele>
        <time>2021-09-12T09:36:14Z</time>
      </trkpt>
      <trkpt lat="44.09277" lon="6.48379">
        <ele>1124.1</ele>
        <time>2021-09-12T09:36:15Z</time>
      </trkpt>
      <trkpt lat="44.09275" lon="6.4838">
        <ele>1124.2</ele>
        <time>2021-09-12T09:36:16Z</time>
      </trkpt>
      <trkpt lat="44.09326" lon="6.48404">
        <ele>1126.5</ele>
        <time>2021-09-12T09:36:34Z</time>
      </trkpt>
      <trkpt lat="44.09328" lon="6.48406">
        <ele>1126.7</ele>
        <time>2021-09-12T09:36:35Z</time>
      </trkpt>
      <trkpt lat="44.09331" lon="6.48409">
        <ele>1127</ele>
        <time>2021-09-12T09:36:36Z</time>
      </trkpt>
      <trkpt lat="44.09334" lon="6.48411">
        <ele>1127.2</ele>
        <time>2021-09-12T09:36:37Z</time>
      </trkpt>
      <trkpt lat="44.09335" lon="6.48411">
        <ele>1127.3</ele>
        <time>2021-09-12T09:36:38Z</time>
      </trkpt>
      <trkpt lat="44.09336" lon="6.4841">
        <ele>1127.5</ele>
        <time>2021-09-12T09:36:39Z</time>
      </trkpt>
      <trkpt lat="44.09338" lon="6.48408">
        <ele>1127.7</ele>
        <time>2021-09-12T09:36:40Z</time>
      </trkpt>
      <trkpt lat="44.09342" lon="6.48408">
        <ele>1128.1</ele>
        <time>2021-09-12T09:36:42Z</time>
      </trkpt>
      <trkpt lat="44.09343" lon="6.48407">
        <ele>1128.3</ele>
        <time>2021-09-12T09:36:43Z</time>
      </trkpt>
      <trkpt lat="44.09344" lon="6.48407">
        <ele>1128.4</ele>
        <time>2021-09-12T09:36:44Z</time>
      </trkpt>
      <trkpt lat="44.09346" lon="6.48407">
        <ele>1128.6</ele>
        <time>2021-09-12T09:36:46Z</time>
      </trkpt>
      <trkpt lat="44.09347" lon="6.48409">
        <ele>1128.8</ele>
        <time>2021-09-12T09:36:47Z</time>
      </trkpt>
      <trkpt lat="44.09351" lon="6.4841">
        <ele>1129.3</ele>
        <time>2021-09-12T09:36:52Z</time>
      </trkpt>
      <trkpt lat="44.0936" lon="6.48407">
        <ele>1130.3</ele>
        <time>2021-09-12T09:37:05Z</time>
      </trkpt>
      <trkpt lat="44.09368" lon="6.48405">
        <ele>1131</ele>
        <time>2021-09-12T09:37:16Z</time>
      </trkpt>
      <trkpt lat="44.09372" lon="6.48405">
        <ele>1131.2</ele>
        <time>2021-09-12T09:37:23Z</time>
      </trkpt>
      <trkpt lat="44.09378" lon="6.48407">
        <ele>1131.5</ele>
        <time>2021-09-12T09:37:33Z</time>
      </trkpt>
      <trkpt lat="44.09382" lon="6.48411">
        <ele>1131.6</ele>
        <time>2021-09-12T09:37:39Z</time>
      </trkpt>
      <trkpt lat="44.09384" lon="6.48416">
        <ele>1131.8</ele>
        <time>2021-09-12T09:37:43Z</time>
      </trkpt>
      <trkpt lat="44.09385" lon="6.48418">
        <ele>1131.9</ele>
        <time>2021-09-12T09:37:45Z</time>
      </trkpt>
      <trkpt lat="44.09385" lon="6.4842">
        <ele>1131.9</ele>
        <time>2021-09-12T09:37:46Z</time>
      </trkpt>
      <trkpt lat="44.09386" lon="6.48425">
        <ele>1132.1</ele>
        <time>2021-09-12T09:37:48Z</time>
      </trkpt>
      <trkpt lat="44.09388" lon="6.48431">
        <ele>1132.3</ele>
        <time>2021-09-12T09:37:51Z</time>
      </trkpt>
      <trkpt lat="44.09391" lon="6.48436">
        <ele>1132.7</ele>
        <time>2021-09-12T09:37:53Z</time>
      </trkpt>
      <trkpt lat="44.09393" lon="6.48441">
        <ele>1132.9</ele>
        <time>2021-09-12T09:37:55Z</time>
      </trkpt>
      <trkpt lat="44.09394" lon="6.48449">
        <ele>1133.4</ele>
        <time>2021-09-12T09:37:57Z</time>
      </trkpt>
      <trkpt lat="44.09395" lon="6.48455">
        <ele>1133.6</ele>
        <time>2021-09-12T09:37:59Z</time>
      </trkpt>
      <trkpt lat="44.09397" lon="6.48461">
        <ele>1133.9</ele>
        <time>2021-09-12T09:38:01Z</time>
      </trkpt>
      <trkpt lat="44.09397" lon="6.48465">
        <ele>1134</ele>
        <time>2021-09-12T09:38:02Z</time>
      </trkpt>
      <trkpt lat="44.09398" lon="6.48472">
        <ele>1134.1</ele>
        <time>2021-09-12T09:38:04Z</time>
      </trkpt>
      <trkpt lat="44.09399" lon="6.48477">
        <ele>1134.2</ele>
        <time>2021-09-12T09:38:06Z</time>
      </trkpt>
      <trkpt lat="44.09401" lon="6.48481">
        <ele>1134.2</ele>
        <time>2021-09-12T09:38:07Z</time>
      </trkpt>
      <trkpt lat="44.09403" lon="6.48486">
        <ele>1134.3</ele>
        <time>2021-09-12T09:38:09Z</time>
      </trkpt>
      <trkpt lat="44.09404" lon="6.48491">
        <ele>1134.3</ele>
        <time>2021-09-12T09:38:11Z</time>
      </trkpt>
      <trkpt lat="44.09404" lon="6.48495">
        <ele>1134.3</ele>
        <time>2021-09-12T09:38:12Z</time>
      </trkpt>
      <trkpt lat="44.09403" lon="6.485">
        <ele>1134.4</ele>
        <time>2021-09-12T09:38:13Z</time>
      </trkpt>
      <trkpt lat="44.09401" lon="6.48504">
        <ele>1134.4</ele>
        <time>2021-09-12T09:38:14Z</time>
      </trkpt>
      <trkpt lat="44.094" lon="6.48511">
        <ele>1134.6</ele>
        <time>2021-09-12T09:38:16Z</time>
      </trkpt>
      <trkpt lat="44.094" lon="6.48517">
        <ele>1134.7</ele>
        <time>2021-09-12T09:38:17Z</time>
      </trkpt>
      <trkpt lat="44.094" lon="6.48518">
        <ele>1134.8</ele>
        <time>2021-09-12T09:38:18Z</time>
      </trkpt>
      <trkpt lat="44.09395" lon="6.48561">
        <ele>1137.2</ele>
        <time>2021-09-12T09:38:29Z</time>
      </trkpt>
      <trkpt lat="44.09395" lon="6.48571">
        <ele>1137.5</ele>
        <time>2021-09-12T09:38:32Z</time>
      </trkpt>
      <trkpt lat="44.09396" lon="6.48582">
        <ele>1137.7</ele>
        <time>2021-09-12T09:38:36Z</time>
      </trkpt>
      <trkpt lat="44.09398" lon="6.48589">
        <ele>1137.8</ele>
        <time>2021-09-12T09:38:39Z</time>
      </trkpt>
      <trkpt lat="44.094" lon="6.486">
        <ele>1137.8</ele>
        <time>2021-09-12T09:38:42Z</time>
      </trkpt>
      <trkpt lat="44.09402" lon="6.48609">
        <ele>1138</ele>
        <time>2021-09-12T09:38:45Z</time>
      </trkpt>
      <trkpt lat="44.09402" lon="6.48616">
        <ele>1138.1</ele>
        <time>2021-09-12T09:38:48Z</time>
      </trkpt>
      <trkpt lat="44.09401" lon="6.48621">
        <ele>1138.2</ele>
        <time>2021-09-12T09:38:49Z</time>
      </trkpt>
      <trkpt lat="44.09401" lon="6.48626">
        <ele>1138.3</ele>
        <time>2021-09-12T09:38:51Z</time>
      </trkpt>
      <trkpt lat="44.094" lon="6.4863">
        <ele>1138.4</ele>
        <time>2021-09-12T09:38:52Z</time>
      </trkpt>
      <trkpt lat="44.094" lon="6.48631">
        <ele>1138.4</ele>
        <time>2021-09-12T09:38:53Z</time>
      </trkpt>
      <trkpt lat="44.09398" lon="6.48637">
        <ele>1138.6</ele>
        <time>2021-09-12T09:38:54Z</time>
      </trkpt>
      <trkpt lat="44.09399" lon="6.48641">
        <ele>1138.7</ele>
        <time>2021-09-12T09:38:55Z</time>
      </trkpt>
      <trkpt lat="44.09402" lon="6.48641">
        <ele>1138.9</ele>
        <time>2021-09-12T09:38:56Z</time>
      </trkpt>
      <trkpt lat="44.09403" lon="6.48641">
        <ele>1139</ele>
        <time>2021-09-12T09:38:57Z</time>
      </trkpt>
      <trkpt lat="44.09406" lon="6.48642">
        <ele>1139.2</ele>
        <time>2021-09-12T09:38:58Z</time>
      </trkpt>
      <trkpt lat="44.09409" lon="6.48644">
        <ele>1139.4</ele>
        <time>2021-09-12T09:38:59Z</time>
      </trkpt>
      <trkpt lat="44.09412" lon="6.48646">
        <ele>1139.6</ele>
        <time>2021-09-12T09:39:00Z</time>
      </trkpt>
      <trkpt lat="44.09414" lon="6.48648">
        <ele>1139.9</ele>
        <time>2021-09-12T09:39:01Z</time>
      </trkpt>
      <trkpt lat="44.09417" lon="6.4865">
        <ele>1140.1</ele>
        <time>2021-09-12T09:39:03Z</time>
      </trkpt>
      <trkpt lat="44.09419" lon="6.48652">
        <ele>1140.4</ele>
        <time>2021-09-12T09:39:04Z</time>
      </trkpt>
      <trkpt lat="44.09424" lon="6.48658">
        <ele>1141.1</ele>
        <time>2021-09-12T09:39:07Z</time>
      </trkpt>
      <trkpt lat="44.09426" lon="6.48662">
        <ele>1141.5</ele>
        <time>2021-09-12T09:39:10Z</time>
      </trkpt>
      <trkpt lat="44.09428" lon="6.48669">
        <ele>1142</ele>
        <time>2021-09-12T09:39:13Z</time>
      </trkpt>
      <trkpt lat="44.09428" lon="6.48672">
        <ele>1142.2</ele>
        <time>2021-09-12T09:39:15Z</time>
      </trkpt>
      <trkpt lat="44.0943" lon="6.48675">
        <ele>1142.4</ele>
        <time>2021-09-12T09:39:17Z</time>
      </trkpt>
      <trkpt lat="44.09431" lon="6.48676">
        <ele>1142.5</ele>
        <time>2021-09-12T09:39:18Z</time>
      </trkpt>
      <trkpt lat="44.09434" lon="6.48676">
        <ele>1142.7</ele>
        <time>2021-09-12T09:39:20Z</time>
      </trkpt>
      <trkpt lat="44.09439" lon="6.48676">
        <ele>1143.1</ele>
        <time>2021-09-12T09:39:25Z</time>
      </trkpt>
      <trkpt lat="44.09442" lon="6.48678">
        <ele>1143.3</ele>
        <time>2021-09-12T09:39:28Z</time>
      </trkpt>
      <trkpt lat="44.09443" lon="6.4868">
        <ele>1143.3</ele>
        <time>2021-09-12T09:39:29Z</time>
      </trkpt>
      <trkpt lat="44.09448" lon="6.48684">
        <ele>1143.6</ele>
        <time>2021-09-12T09:39:33Z</time>
      </trkpt>
      <trkpt lat="44.09452" lon="6.48688">
        <ele>1143.7</ele>
        <time>2021-09-12T09:39:36Z</time>
      </trkpt>
      <trkpt lat="44.09457" lon="6.4869">
        <ele>1143.8</ele>
        <time>2021-09-12T09:39:39Z</time>
      </trkpt>
      <trkpt lat="44.0946" lon="6.48693">
        <ele>1143.8</ele>
        <time>2021-09-12T09:39:41Z</time>
      </trkpt>
      <trkpt lat="44.09462" lon="6.48696">
        <ele>1143.8</ele>
        <time>2021-09-12T09:39:42Z</time>
      </trkpt>
      <trkpt lat="44.09463" lon="6.487">
        <ele>1143.8</ele>
        <time>2021-09-12T09:39:43Z</time>
      </trkpt>
      <trkpt lat="44.09463" lon="6.48707">
        <ele>1143.8</ele>
        <time>2021-09-12T09:39:45Z</time>
      </trkpt>
      <trkpt lat="44.09462" lon="6.4871">
        <ele>1143.8</ele>
        <time>2021-09-12T09:39:46Z</time>
      </trkpt>
      <trkpt lat="44.09462" lon="6.48715">
        <ele>1143.8</ele>
        <time>2021-09-12T09:39:47Z</time>
      </trkpt>
      <trkpt lat="44.09463" lon="6.48719">
        <ele>1143.8</ele>
        <time>2021-09-12T09:39:48Z</time>
      </trkpt>
      <trkpt lat="44.09465" lon="6.48723">
        <ele>1143.8</ele>
        <time>2021-09-12T09:39:49Z</time>
      </trkpt>
      <trkpt lat="44.09469" lon="6.4873">
        <ele>1143.9</ele>
        <time>2021-09-12T09:39:51Z</time>
      </trkpt>
      <trkpt lat="44.0947" lon="6.48737">
        <ele>1144</ele>
        <time>2021-09-12T09:39:53Z</time>
      </trkpt>
      <trkpt lat="44.09471" lon="6.48744">
        <ele>1144.2</ele>
        <time>2021-09-12T09:39:54Z</time>
      </trkpt>
      <trkpt lat="44.09472" lon="6.48749">
        <ele>1144.4</ele>
        <time>2021-09-12T09:39:56Z</time>
      </trkpt>
      <trkpt lat="44.09474" lon="6.48755">
        <ele>1144.6</ele>
        <time>2021-09-12T09:39:57Z</time>
      </trkpt>
      <trkpt lat="44.09475" lon="6.48763">
        <ele>1145</ele>
        <time>2021-09-12T09:39:59Z</time>
      </trkpt>
      <trkpt lat="44.09474" lon="6.4877">
        <ele>1145.4</ele>
        <time>2021-09-12T09:40:00Z</time>
      </trkpt>
      <trkpt lat="44.09474" lon="6.48778">
        <ele>1145.8</ele>
        <time>2021-09-12T09:40:03Z</time>
      </trkpt>
      <trkpt lat="44.09475" lon="6.48786">
        <ele>1146.2</ele>
        <time>2021-09-12T09:40:05Z</time>
      </trkpt>
      <trkpt lat="44.09474" lon="6.48795">
        <ele>1146.6</ele>
        <time>2021-09-12T09:40:07Z</time>
      </trkpt>
      <trkpt lat="44.09472" lon="6.48803">
        <ele>1146.9</ele>
        <time>2021-09-12T09:40:10Z</time>
      </trkpt>
      <trkpt lat="44.09471" lon="6.48813">
        <ele>1147.1</ele>
        <time>2021-09-12T09:40:12Z</time>
      </trkpt>
      <trkpt lat="44.09464" lon="6.48829">
        <ele>1147.4</ele>
        <time>2021-09-12T09:40:19Z</time>
      </trkpt>
      <trkpt lat="44.09459" lon="6.48837">
        <ele>1147.5</ele>
        <time>2021-09-12T09:40:22Z</time>
      </trkpt>
      <trkpt lat="44.09453" lon="6.4885">
        <ele>1147.7</ele>
        <time>2021-09-12T09:40:27Z</time>
      </trkpt>
      <trkpt lat="44.0945" lon="6.48856">
        <ele>1147.8</ele>
        <time>2021-09-12T09:40:29Z</time>
      </trkpt>
      <trkpt lat="44.09447" lon="6.48868">
        <ele>1148</ele>
        <time>2021-09-12T09:40:33Z</time>
      </trkpt>
      <trkpt lat="44.09447" lon="6.48872">
        <ele>1148</ele>
        <time>2021-09-12T09:40:34Z</time>
      </trkpt>
      <trkpt lat="44.09446" lon="6.48878">
        <ele>1148.1</ele>
        <time>2021-09-12T09:40:36Z</time>
      </trkpt>
      <trkpt lat="44.09446" lon="6.48882">
        <ele>1148.2</ele>
        <time>2021-09-12T09:40:37Z</time>
      </trkpt>
      <trkpt lat="44.09446" lon="6.48885">
        <ele>1148.3</ele>
        <time>2021-09-12T09:40:38Z</time>
      </trkpt>
      <trkpt lat="44.09441" lon="6.48895">
        <ele>1148.6</ele>
        <time>2021-09-12T09:40:40Z</time>
      </trkpt>
      <trkpt lat="44.09438" lon="6.48901">
        <ele>1148.8</ele>
        <time>2021-09-12T09:40:42Z</time>
      </trkpt>
      <trkpt lat="44.09436" lon="6.48907">
        <ele>1149</ele>
        <time>2021-09-12T09:40:44Z</time>
      </trkpt>
      <trkpt lat="44.09434" lon="6.48911">
        <ele>1149.2</ele>
        <time>2021-09-12T09:40:45Z</time>
      </trkpt>
      <trkpt lat="44.09432" lon="6.48914">
        <ele>1149.3</ele>
        <time>2021-09-12T09:40:46Z</time>
      </trkpt>
      <trkpt lat="44.0943" lon="6.4892">
        <ele>1149.6</ele>
        <time>2021-09-12T09:40:47Z</time>
      </trkpt>
      <trkpt lat="44.09435" lon="6.48916">
        <ele>1149.9</ele>
        <time>2021-09-12T09:40:49Z</time>
      </trkpt>
      <trkpt lat="44.09437" lon="6.48914">
        <ele>1150.1</ele>
        <time>2021-09-12T09:40:50Z</time>
      </trkpt>
      <trkpt lat="44.0944" lon="6.48912">
        <ele>1150.3</ele>
        <time>2021-09-12T09:40:52Z</time>
      </trkpt>
      <trkpt lat="44.09448" lon="6.48918">
        <ele>1150.7</ele>
        <time>2021-09-12T09:40:55Z</time>
      </trkpt>
      <trkpt lat="44.09453" lon="6.48924">
        <ele>1151.2</ele>
        <time>2021-09-12T09:40:58Z</time>
      </trkpt>
      <trkpt lat="44.09459" lon="6.48931">
        <ele>1151.6</ele>
        <time>2021-09-12T09:41:02Z</time>
      </trkpt>
      <trkpt lat="44.09465" lon="6.48938">
        <ele>1152</ele>
        <time>2021-09-12T09:41:05Z</time>
      </trkpt>
      <trkpt lat="44.09469" lon="6.48955">
        <ele>1152.5</ele>
        <time>2021-09-12T09:41:11Z</time>
      </trkpt>
      <trkpt lat="44.09473" lon="6.48964">
        <ele>1152.8</ele>
        <time>2021-09-12T09:41:15Z</time>
      </trkpt>
      <trkpt lat="44.09481" lon="6.48984">
        <ele>1153.5</ele>
        <time>2021-09-12T09:41:22Z</time>
      </trkpt>
      <trkpt lat="44.09484" lon="6.48996">
        <ele>1154.2</ele>
        <time>2021-09-12T09:41:26Z</time>
      </trkpt>
      <trkpt lat="44.09485" lon="6.49">
        <ele>1154.5</ele>
        <time>2021-09-12T09:41:28Z</time>
      </trkpt>
      <trkpt lat="44.09487" lon="6.49007">
        <ele>1154.9</ele>
        <time>2021-09-12T09:41:30Z</time>
      </trkpt>
      <trkpt lat="44.09489" lon="6.49014">
        <ele>1155.3</ele>
        <time>2021-09-12T09:41:32Z</time>
      </trkpt>
      <trkpt lat="44.09491" lon="6.49019">
        <ele>1155.6</ele>
        <time>2021-09-12T09:41:34Z</time>
      </trkpt>
      <trkpt lat="44.09492" lon="6.49022">
        <ele>1155.8</ele>
        <time>2021-09-12T09:41:35Z</time>
      </trkpt>
      <trkpt lat="44.09492" lon="6.49023">
        <ele>1155.8</ele>
        <time>2021-09-12T09:41:36Z</time>
      </trkpt>
      <trkpt lat="44.09467" lon="6.49051">
        <ele>1156.3</ele>
        <time>2021-09-12T09:41:51Z</time>
      </trkpt>
      <trkpt lat="44.09464" lon="6.4906">
        <ele>1155.8</ele>
        <time>2021-09-12T09:41:54Z</time>
      </trkpt>
      <trkpt lat="44.09459" lon="6.4907">
        <ele>1155.3</ele>
        <time>2021-09-12T09:41:58Z</time>
      </trkpt>
      <trkpt lat="44.09456" lon="6.4908">
        <ele>1154.9</ele>
        <time>2021-09-12T09:42:01Z</time>
      </trkpt>
      <trkpt lat="44.09451" lon="6.49093">
        <ele>1154.5</ele>
        <time>2021-09-12T09:42:05Z</time>
      </trkpt>
      <trkpt lat="44.0945" lon="6.49099">
        <ele>1154.4</ele>
        <time>2021-09-12T09:42:06Z</time>
      </trkpt>
      <trkpt lat="44.09449" lon="6.49109">
        <ele>1154.4</ele>
        <time>2021-09-12T09:42:08Z</time>
      </trkpt>
      <trkpt lat="44.09448" lon="6.49117">
        <ele>1154.3</ele>
        <time>2021-09-12T09:42:10Z</time>
      </trkpt>
      <trkpt lat="44.09448" lon="6.49124">
        <ele>1154.3</ele>
        <time>2021-09-12T09:42:11Z</time>
      </trkpt>
      <trkpt lat="44.09448" lon="6.49135">
        <ele>1154.1</ele>
        <time>2021-09-12T09:42:13Z</time>
      </trkpt>
      <trkpt lat="44.09448" lon="6.49145">
        <ele>1153.9</ele>
        <time>2021-09-12T09:42:14Z</time>
      </trkpt>
      <trkpt lat="44.09452" lon="6.49144">
        <ele>1153.8</ele>
        <time>2021-09-12T09:42:15Z</time>
      </trkpt>
      <trkpt lat="44.09452" lon="6.49152">
        <ele>1153.6</ele>
        <time>2021-09-12T09:42:16Z</time>
      </trkpt>
      <trkpt lat="44.09452" lon="6.49156">
        <ele>1153.6</ele>
        <time>2021-09-12T09:42:17Z</time>
      </trkpt>
      <trkpt lat="44.0945" lon="6.49164">
        <ele>1153.5</ele>
        <time>2021-09-12T09:42:18Z</time>
      </trkpt>
      <trkpt lat="44.09451" lon="6.4917">
        <ele>1153.4</ele>
        <time>2021-09-12T09:42:19Z</time>
      </trkpt>
      <trkpt lat="44.09454" lon="6.49177">
        <ele>1153.3</ele>
        <time>2021-09-12T09:42:20Z</time>
      </trkpt>
      <trkpt lat="44.09457" lon="6.49179">
        <ele>1153.3</ele>
        <time>2021-09-12T09:42:21Z</time>
      </trkpt>
      <trkpt lat="44.09462" lon="6.49176">
        <ele>1153.3</ele>
        <time>2021-09-12T09:42:22Z</time>
      </trkpt>
      <trkpt lat="44.09465" lon="6.49182">
        <ele>1153.4</ele>
        <time>2021-09-12T09:42:24Z</time>
      </trkpt>
      <trkpt lat="44.09467" lon="6.49188">
        <ele>1153.6</ele>
        <time>2021-09-12T09:42:25Z</time>
      </trkpt>
      <trkpt lat="44.09468" lon="6.49194">
        <ele>1154</ele>
        <time>2021-09-12T09:42:26Z</time>
      </trkpt>
      <trkpt lat="44.09469" lon="6.492">
        <ele>1154.4</ele>
        <time>2021-09-12T09:42:28Z</time>
      </trkpt>
      <trkpt lat="44.09465" lon="6.49205">
        <ele>1155</ele>
        <time>2021-09-12T09:42:29Z</time>
      </trkpt>
      <trkpt lat="44.09462" lon="6.49209">
        <ele>1155.5</ele>
        <time>2021-09-12T09:42:31Z</time>
      </trkpt>
      <trkpt lat="44.09457" lon="6.49216">
        <ele>1156.3</ele>
        <time>2021-09-12T09:42:34Z</time>
      </trkpt>
      <trkpt lat="44.09457" lon="6.49216">
        <ele>1156.3</ele>
        <time>2021-09-12T09:42:35Z</time>
      </trkpt>
      <trkpt lat="44.09533" lon="6.49322">
        <ele>1164.9</ele>
        <time>2021-09-12T09:44:18Z</time>
      </trkpt>
      <trkpt lat="44.09534" lon="6.49325">
        <ele>1165</ele>
        <time>2021-09-12T09:44:20Z</time>
      </trkpt>
      <trkpt lat="44.09535" lon="6.49328">
        <ele>1165.2</ele>
        <time>2021-09-12T09:44:22Z</time>
      </trkpt>
      <trkpt lat="44.09535" lon="6.4933">
        <ele>1165.3</ele>
        <time>2021-09-12T09:44:23Z</time>
      </trkpt>
      <trkpt lat="44.09536" lon="6.49332">
        <ele>1165.4</ele>
        <time>2021-09-12T09:44:24Z</time>
      </trkpt>
      <trkpt lat="44.09535" lon="6.49333">
        <ele>1165.5</ele>
        <time>2021-09-12T09:44:25Z</time>
      </trkpt>
      <trkpt lat="44.09534" lon="6.49334">
        <ele>1165.7</ele>
        <time>2021-09-12T09:44:26Z</time>
      </trkpt>
      <trkpt lat="44.09534" lon="6.49336">
        <ele>1165.8</ele>
        <time>2021-09-12T09:44:27Z</time>
      </trkpt>
      <trkpt lat="44.09533" lon="6.49338">
        <ele>1166</ele>
        <time>2021-09-12T09:44:29Z</time>
      </trkpt>
      <trkpt lat="44.09533" lon="6.4934">
        <ele>1166.1</ele>
        <time>2021-09-12T09:44:30Z</time>
      </trkpt>
      <trkpt lat="44.09533" lon="6.49341">
        <ele>1166.2</ele>
        <time>2021-09-12T09:44:31Z</time>
      </trkpt>
      <trkpt lat="44.09533" lon="6.49342">
        <ele>1166.3</ele>
        <time>2021-09-12T09:44:32Z</time>
      </trkpt>
      <trkpt lat="44.09532" lon="6.49344">
        <ele>1166.4</ele>
        <time>2021-09-12T09:44:33Z</time>
      </trkpt>
      <trkpt lat="44.09532" lon="6.49345">
        <ele>1166.5</ele>
        <time>2021-09-12T09:44:34Z</time>
      </trkpt>
      <trkpt lat="44.09531" lon="6.49348">
        <ele>1166.7</ele>
        <time>2021-09-12T09:44:36Z</time>
      </trkpt>
      <trkpt lat="44.09531" lon="6.49351">
        <ele>1166.9</ele>
        <time>2021-09-12T09:44:38Z</time>
      </trkpt>
      <trkpt lat="44.09531" lon="6.49354">
        <ele>1167.1</ele>
        <time>2021-09-12T09:44:40Z</time>
      </trkpt>
      <trkpt lat="44.09531" lon="6.49355">
        <ele>1167.1</ele>
        <time>2021-09-12T09:44:41Z</time>
      </trkpt>
      <trkpt lat="44.09531" lon="6.49357">
        <ele>1167.2</ele>
        <time>2021-09-12T09:44:42Z</time>
      </trkpt>
      <trkpt lat="44.0953" lon="6.4936">
        <ele>1167.4</ele>
        <time>2021-09-12T09:44:43Z</time>
      </trkpt>
      <trkpt lat="44.09531" lon="6.49361">
        <ele>1167.5</ele>
        <time>2021-09-12T09:44:44Z</time>
      </trkpt>
      <trkpt lat="44.09531" lon="6.49363">
        <ele>1167.5</ele>
        <time>2021-09-12T09:44:45Z</time>
      </trkpt>
      <trkpt lat="44.09532" lon="6.49365">
        <ele>1167.7</ele>
        <time>2021-09-12T09:44:46Z</time>
      </trkpt>
      <trkpt lat="44.09532" lon="6.49367">
        <ele>1167.8</ele>
        <time>2021-09-12T09:44:47Z</time>
      </trkpt>
      <trkpt lat="44.09533" lon="6.49371">
        <ele>1167.9</ele>
        <time>2021-09-12T09:44:48Z</time>
      </trkpt>
      <trkpt lat="44.09535" lon="6.49374">
        <ele>1168.1</ele>
        <time>2021-09-12T09:44:50Z</time>
      </trkpt>
      <trkpt lat="44.09536" lon="6.49375">
        <ele>1168.2</ele>
        <time>2021-09-12T09:44:51Z</time>
      </trkpt>
      <trkpt lat="44.09537" lon="6.49377">
        <ele>1168.4</ele>
        <time>2021-09-12T09:44:52Z</time>
      </trkpt>
      <trkpt lat="44.09539" lon="6.49379">
        <ele>1168.5</ele>
        <time>2021-09-12T09:44:53Z</time>
      </trkpt>
      <trkpt lat="44.0954" lon="6.49383">
        <ele>1168.7</ele>
        <time>2021-09-12T09:44:55Z</time>
      </trkpt>
      <trkpt lat="44.09542" lon="6.49388">
        <ele>1168.9</ele>
        <time>2021-09-12T09:44:56Z</time>
      </trkpt>
      <trkpt lat="44.09543" lon="6.49391">
        <ele>1169</ele>
        <time>2021-09-12T09:44:57Z</time>
      </trkpt>
      <trkpt lat="44.09544" lon="6.49393">
        <ele>1169.1</ele>
        <time>2021-09-12T09:44:58Z</time>
      </trkpt>
      <trkpt lat="44.09545" lon="6.49395">
        <ele>1169.2</ele>
        <time>2021-09-12T09:44:59Z</time>
      </trkpt>
      <trkpt lat="44.09546" lon="6.49397">
        <ele>1169.2</ele>
        <time>2021-09-12T09:45:00Z</time>
      </trkpt>
      <trkpt lat="44.09548" lon="6.49401">
        <ele>1169.3</ele>
        <time>2021-09-12T09:45:01Z</time>
      </trkpt>
      <trkpt lat="44.09549" lon="6.49403">
        <ele>1169.4</ele>
        <time>2021-09-12T09:45:02Z</time>
      </trkpt>
      <trkpt lat="44.0955" lon="6.49408">
        <ele>1169.5</ele>
        <time>2021-09-12T09:45:03Z</time>
      </trkpt>
      <trkpt lat="44.09549" lon="6.49411">
        <ele>1169.6</ele>
        <time>2021-09-12T09:45:04Z</time>
      </trkpt>
      <trkpt lat="44.09549" lon="6.49415">
        <ele>1169.6</ele>
        <time>2021-09-12T09:45:05Z</time>
      </trkpt>
      <trkpt lat="44.09549" lon="6.49418">
        <ele>1169.7</ele>
        <time>2021-09-12T09:45:06Z</time>
      </trkpt>
      <trkpt lat="44.09549" lon="6.49421">
        <ele>1169.8</ele>
        <time>2021-09-12T09:45:07Z</time>
      </trkpt>
      <trkpt lat="44.09549" lon="6.49426">
        <ele>1169.8</ele>
        <time>2021-09-12T09:45:08Z</time>
      </trkpt>
      <trkpt lat="44.09548" lon="6.49429">
        <ele>1169.9</ele>
        <time>2021-09-12T09:45:09Z</time>
      </trkpt>
      <trkpt lat="44.09546" lon="6.49436">
        <ele>1170</ele>
        <time>2021-09-12T09:45:10Z</time>
      </trkpt>
      <trkpt lat="44.09544" lon="6.49441">
        <ele>1170.1</ele>
        <time>2021-09-12T09:45:12Z</time>
      </trkpt>
      <trkpt lat="44.09543" lon="6.49446">
        <ele>1170.2</ele>
        <time>2021-09-12T09:45:13Z</time>
      </trkpt>
      <trkpt lat="44.09542" lon="6.4945">
        <ele>1170.1</ele>
        <time>2021-09-12T09:45:14Z</time>
      </trkpt>
      <trkpt lat="44.09543" lon="6.49454">
        <ele>1170.1</ele>
        <time>2021-09-12T09:45:15Z</time>
      </trkpt>
      <trkpt lat="44.09544" lon="6.49459">
        <ele>1170</ele>
        <time>2021-09-12T09:45:16Z</time>
      </trkpt>
      <trkpt lat="44.09544" lon="6.49463">
        <ele>1170</ele>
        <time>2021-09-12T09:45:17Z</time>
      </trkpt>
      <trkpt lat="44.09543" lon="6.49469">
        <ele>1169.9</ele>
        <time>2021-09-12T09:45:18Z</time>
      </trkpt>
      <trkpt lat="44.09543" lon="6.49476">
        <ele>1169.8</ele>
        <time>2021-09-12T09:45:19Z</time>
      </trkpt>
      <trkpt lat="44.09542" lon="6.49482">
        <ele>1169.6</ele>
        <time>2021-09-12T09:45:20Z</time>
      </trkpt>
      <trkpt lat="44.0954" lon="6.49486">
        <ele>1169.5</ele>
        <time>2021-09-12T09:45:21Z</time>
      </trkpt>
      <trkpt lat="44.09537" lon="6.49492">
        <ele>1169.3</ele>
        <time>2021-09-12T09:45:22Z</time>
      </trkpt>
      <trkpt lat="44.09536" lon="6.49497">
        <ele>1169.2</ele>
        <time>2021-09-12T09:45:23Z</time>
      </trkpt>
      <trkpt lat="44.09534" lon="6.49507">
        <ele>1168.9</ele>
        <time>2021-09-12T09:45:24Z</time>
      </trkpt>
      <trkpt lat="44.09533" lon="6.49513">
        <ele>1168.7</ele>
        <time>2021-09-12T09:45:25Z</time>
      </trkpt>
      <trkpt lat="44.0953" lon="6.49519">
        <ele>1168.5</ele>
        <time>2021-09-12T09:45:26Z</time>
      </trkpt>
      <trkpt lat="44.0953" lon="6.49524">
        <ele>1168.4</ele>
        <time>2021-09-12T09:45:27Z</time>
      </trkpt>
      <trkpt lat="44.09529" lon="6.49531">
        <ele>1168.3</ele>
        <time>2021-09-12T09:45:28Z</time>
      </trkpt>
      <trkpt lat="44.0953" lon="6.49542">
        <ele>1168</ele>
        <time>2021-09-12T09:45:29Z</time>
      </trkpt>
      <trkpt lat="44.09528" lon="6.49548">
        <ele>1167.8</ele>
        <time>2021-09-12T09:45:30Z</time>
      </trkpt>
      <trkpt lat="44.09525" lon="6.49556">
        <ele>1167.6</ele>
        <time>2021-09-12T09:45:31Z</time>
      </trkpt>
      <trkpt lat="44.09524" lon="6.49562">
        <ele>1167.4</ele>
        <time>2021-09-12T09:45:32Z</time>
      </trkpt>
      <trkpt lat="44.09523" lon="6.49568">
        <ele>1167.2</ele>
        <time>2021-09-12T09:45:33Z</time>
      </trkpt>
      <trkpt lat="44.0952" lon="6.49581">
        <ele>1166.6</ele>
        <time>2021-09-12T09:45:34Z</time>
      </trkpt>
      <trkpt lat="44.09519" lon="6.49587">
        <ele>1166.3</ele>
        <time>2021-09-12T09:45:35Z</time>
      </trkpt>
      <trkpt lat="44.09518" lon="6.49597">
        <ele>1165.9</ele>
        <time>2021-09-12T09:45:36Z</time>
      </trkpt>
      <trkpt lat="44.09518" lon="6.49602">
        <ele>1165.6</ele>
        <time>2021-09-12T09:45:37Z</time>
      </trkpt>
      <trkpt lat="44.09518" lon="6.49611">
        <ele>1165.3</ele>
        <time>2021-09-12T09:45:38Z</time>
      </trkpt>
      <trkpt lat="44.09518" lon="6.49618">
        <ele>1165</ele>
        <time>2021-09-12T09:45:39Z</time>
      </trkpt>
      <trkpt lat="44.09517" lon="6.4963">
        <ele>1164.5</ele>
        <time>2021-09-12T09:45:40Z</time>
      </trkpt>
      <trkpt lat="44.09516" lon="6.49636">
        <ele>1164.3</ele>
        <time>2021-09-12T09:45:41Z</time>
      </trkpt>
      <trkpt lat="44.09515" lon="6.49647">
        <ele>1164</ele>
        <time>2021-09-12T09:45:42Z</time>
      </trkpt>
      <trkpt lat="44.09514" lon="6.49656">
        <ele>1163.7</ele>
        <time>2021-09-12T09:45:43Z</time>
      </trkpt>
      <trkpt lat="44.09513" lon="6.49663">
        <ele>1163.4</ele>
        <time>2021-09-12T09:45:44Z</time>
      </trkpt>
      <trkpt lat="44.09514" lon="6.49671">
        <ele>1163.1</ele>
        <time>2021-09-12T09:45:45Z</time>
      </trkpt>
      <trkpt lat="44.09516" lon="6.49675">
        <ele>1162.9</ele>
        <time>2021-09-12T09:45:46Z</time>
      </trkpt>
      <trkpt lat="44.09518" lon="6.49685">
        <ele>1162.5</ele>
        <time>2021-09-12T09:45:47Z</time>
      </trkpt>
      <trkpt lat="44.0952" lon="6.49695">
        <ele>1162.2</ele>
        <time>2021-09-12T09:45:48Z</time>
      </trkpt>
      <trkpt lat="44.09522" lon="6.49702">
        <ele>1162</ele>
        <time>2021-09-12T09:45:49Z</time>
      </trkpt>
      <trkpt lat="44.09523" lon="6.49707">
        <ele>1161.8</ele>
        <time>2021-09-12T09:45:50Z</time>
      </trkpt>
      <trkpt lat="44.09524" lon="6.49712">
        <ele>1161.7</ele>
        <time>2021-09-12T09:45:51Z</time>
      </trkpt>
      <trkpt lat="44.09526" lon="6.49726">
        <ele>1161.4</ele>
        <time>2021-09-12T09:45:52Z</time>
      </trkpt>
      <trkpt lat="44.09527" lon="6.49731">
        <ele>1161.3</ele>
        <time>2021-09-12T09:45:53Z</time>
      </trkpt>
      <trkpt lat="44.09529" lon="6.49739">
        <ele>1160.9</ele>
        <time>2021-09-12T09:45:54Z</time>
      </trkpt>
      <trkpt lat="44.09529" lon="6.49748">
        <ele>1160.4</ele>
        <time>2021-09-12T09:45:55Z</time>
      </trkpt>
      <trkpt lat="44.09529" lon="6.49754">
        <ele>1160</ele>
        <time>2021-09-12T09:45:56Z</time>
      </trkpt>
      <trkpt lat="44.09527" lon="6.49766">
        <ele>1159.2</ele>
        <time>2021-09-12T09:45:57Z</time>
      </trkpt>
      <trkpt lat="44.09526" lon="6.49772">
        <ele>1158.4</ele>
        <time>2021-09-12T09:45:58Z</time>
      </trkpt>
      <trkpt lat="44.09525" lon="6.4978">
        <ele>1157.5</ele>
        <time>2021-09-12T09:45:59Z</time>
      </trkpt>
      <trkpt lat="44.09525" lon="6.49788">
        <ele>1156.5</ele>
        <time>2021-09-12T09:46:00Z</time>
      </trkpt>
      <trkpt lat="44.09526" lon="6.49796">
        <ele>1155.5</ele>
        <time>2021-09-12T09:46:01Z</time>
      </trkpt>
      <trkpt lat="44.09532" lon="6.4982">
        <ele>1153.1</ele>
        <time>2021-09-12T09:46:03Z</time>
      </trkpt>
      <trkpt lat="44.09535" lon="6.49828">
        <ele>1152.5</ele>
        <time>2021-09-12T09:46:04Z</time>
      </trkpt>
      <trkpt lat="44.09538" lon="6.49845">
        <ele>1151.8</ele>
        <time>2021-09-12T09:46:06Z</time>
      </trkpt>
      <trkpt lat="44.0954" lon="6.49863">
        <ele>1151.6</ele>
        <time>2021-09-12T09:46:08Z</time>
      </trkpt>
      <trkpt lat="44.0954" lon="6.49872">
        <ele>1151.6</ele>
        <time>2021-09-12T09:46:09Z</time>
      </trkpt>
      <trkpt lat="44.09539" lon="6.49888">
        <ele>1151.5</ele>
        <time>2021-09-12T09:46:10Z</time>
      </trkpt>
      <trkpt lat="44.09539" lon="6.49896">
        <ele>1151.4</ele>
        <time>2021-09-12T09:46:11Z</time>
      </trkpt>
      <trkpt lat="44.09539" lon="6.49912">
        <ele>1151.1</ele>
        <time>2021-09-12T09:46:13Z</time>
      </trkpt>
      <trkpt lat="44.0954" lon="6.49921">
        <ele>1151</ele>
        <time>2021-09-12T09:46:14Z</time>
      </trkpt>
      <trkpt lat="44.09541" lon="6.49929">
        <ele>1151</ele>
        <time>2021-09-12T09:46:15Z</time>
      </trkpt>
      <trkpt lat="44.09542" lon="6.49938">
        <ele>1150.9</ele>
        <time>2021-09-12T09:46:16Z</time>
      </trkpt>
      <trkpt lat="44.09545" lon="6.49945">
        <ele>1150.9</ele>
        <time>2021-09-12T09:46:17Z</time>
      </trkpt>
      <trkpt lat="44.0955" lon="6.49957">
        <ele>1150.7</ele>
        <time>2021-09-12T09:46:19Z</time>
      </trkpt>
      <trkpt lat="44.09551" lon="6.49963">
        <ele>1150.4</ele>
        <time>2021-09-12T09:46:20Z</time>
      </trkpt>
      <trkpt lat="44.09553" lon="6.49977">
        <ele>1149.4</ele>
        <time>2021-09-12T09:46:22Z</time>
      </trkpt>
      <trkpt lat="44.09555" lon="6.49984">
        <ele>1148.8</ele>
        <time>2021-09-12T09:46:23Z</time>
      </trkpt>
      <trkpt lat="44.09559" lon="6.49994">
        <ele>1147.4</ele>
        <time>2021-09-12T09:46:25Z</time>
      </trkpt>
      <trkpt lat="44.0956" lon="6.50002">
        <ele>1146.2</ele>
        <time>2021-09-12T09:46:26Z</time>
      </trkpt>
      <trkpt lat="44.09558" lon="6.5001">
        <ele>1144.9</ele>
        <time>2021-09-12T09:46:27Z</time>
      </trkpt>
      <trkpt lat="44.09552" lon="6.50018">
        <ele>1143.3</ele>
        <time>2021-09-12T09:46:29Z</time>
      </trkpt>
      <trkpt lat="44.09546" lon="6.50023">
        <ele>1142.1</ele>
        <time>2021-09-12T09:46:30Z</time>
      </trkpt>
      <trkpt lat="44.09536" lon="6.50029">
        <ele>1141</ele>
        <time>2021-09-12T09:46:31Z</time>
      </trkpt>
      <trkpt lat="44.09531" lon="6.50032">
        <ele>1140.7</ele>
        <time>2021-09-12T09:46:32Z</time>
      </trkpt>
      <trkpt lat="44.09522" lon="6.50036">
        <ele>1140.4</ele>
        <time>2021-09-12T09:46:33Z</time>
      </trkpt>
      <trkpt lat="44.09515" lon="6.50036">
        <ele>1140.5</ele>
        <time>2021-09-12T09:46:34Z</time>
      </trkpt>
      <trkpt lat="44.09504" lon="6.50042">
        <ele>1140.8</ele>
        <time>2021-09-12T09:46:36Z</time>
      </trkpt>
      <trkpt lat="44.09498" lon="6.50044">
        <ele>1141.1</ele>
        <time>2021-09-12T09:46:37Z</time>
      </trkpt>
      <trkpt lat="44.09494" lon="6.50048">
        <ele>1141.3</ele>
        <time>2021-09-12T09:46:38Z</time>
      </trkpt>
      <trkpt lat="44.09487" lon="6.50049">
        <ele>1141.7</ele>
        <time>2021-09-12T09:46:39Z</time>
      </trkpt>
      <trkpt lat="44.09478" lon="6.50048">
        <ele>1141.7</ele>
        <time>2021-09-12T09:46:41Z</time>
      </trkpt>
      <trkpt lat="44.09474" lon="6.50051">
        <ele>1141.7</ele>
        <time>2021-09-12T09:46:42Z</time>
      </trkpt>
      <trkpt lat="44.09468" lon="6.50055">
        <ele>1141.7</ele>
        <time>2021-09-12T09:46:44Z</time>
      </trkpt>
      <trkpt lat="44.09459" lon="6.50055">
        <ele>1141.6</ele>
        <time>2021-09-12T09:46:46Z</time>
      </trkpt>
      <trkpt lat="44.09446" lon="6.50056">
        <ele>1141.1</ele>
        <time>2021-09-12T09:46:50Z</time>
      </trkpt>
      <trkpt lat="44.09434" lon="6.50053">
        <ele>1140.6</ele>
        <time>2021-09-12T09:46:53Z</time>
      </trkpt>
      <trkpt lat="44.09428" lon="6.50049">
        <ele>1140.3</ele>
        <time>2021-09-12T09:46:55Z</time>
      </trkpt>
      <trkpt lat="44.09417" lon="6.50038">
        <ele>1139.7</ele>
        <time>2021-09-12T09:46:59Z</time>
      </trkpt>
      <trkpt lat="44.09411" lon="6.50034">
        <ele>1139.6</ele>
        <time>2021-09-12T09:47:01Z</time>
      </trkpt>
      <trkpt lat="44.09395" lon="6.50028">
        <ele>1139.3</ele>
        <time>2021-09-12T09:47:05Z</time>
      </trkpt>
      <trkpt lat="44.09386" lon="6.50026">
        <ele>1139.1</ele>
        <time>2021-09-12T09:47:06Z</time>
      </trkpt>
      <trkpt lat="44.0937" lon="6.50023">
        <ele>1138.6</ele>
        <time>2021-09-12T09:47:10Z</time>
      </trkpt>
      <trkpt lat="44.09355" lon="6.50019">
        <ele>1138.3</ele>
        <time>2021-09-12T09:47:13Z</time>
      </trkpt>
      <trkpt lat="44.09341" lon="6.50018">
        <ele>1138.2</ele>
        <time>2021-09-12T09:47:16Z</time>
      </trkpt>
      <trkpt lat="44.09333" lon="6.50018">
        <ele>1138.1</ele>
        <time>2021-09-12T09:47:17Z</time>
      </trkpt>
      <trkpt lat="44.09318" lon="6.50017">
        <ele>1137.9</ele>
        <time>2021-09-12T09:47:20Z</time>
      </trkpt>
      <trkpt lat="44.09303" lon="6.50014">
        <ele>1137.7</ele>
        <time>2021-09-12T09:47:23Z</time>
      </trkpt>
      <trkpt lat="44.09295" lon="6.50012">
        <ele>1137.6</ele>
        <time>2021-09-12T09:47:25Z</time>
      </trkpt>
      <trkpt lat="44.09287" lon="6.5001">
        <ele>1137.5</ele>
        <time>2021-09-12T09:47:27Z</time>
      </trkpt>
      <trkpt lat="44.0927" lon="6.50007">
        <ele>1137.4</ele>
        <time>2021-09-12T09:47:30Z</time>
      </trkpt>
      <trkpt lat="44.09255" lon="6.50002">
        <ele>1137.3</ele>
        <time>2021-09-12T09:47:34Z</time>
      </trkpt>
      <trkpt lat="44.09241" lon="6.49994">
        <ele>1137.3</ele>
        <time>2021-09-12T09:47:37Z</time>
      </trkpt>
      <trkpt lat="44.09234" lon="6.49989">
        <ele>1137.2</ele>
        <time>2021-09-12T09:47:39Z</time>
      </trkpt>
      <trkpt lat="44.09229" lon="6.49983">
        <ele>1137.2</ele>
        <time>2021-09-12T09:47:41Z</time>
      </trkpt>
      <trkpt lat="44.09219" lon="6.49971">
        <ele>1137.3</ele>
        <time>2021-09-12T09:47:44Z</time>
      </trkpt>
      <trkpt lat="44.09211" lon="6.49959">
        <ele>1137.4</ele>
        <time>2021-09-12T09:47:47Z</time>
      </trkpt>
      <trkpt lat="44.09204" lon="6.49948">
        <ele>1137.5</ele>
        <time>2021-09-12T09:47:50Z</time>
      </trkpt>
      <trkpt lat="44.092" lon="6.49944">
        <ele>1137.6</ele>
        <time>2021-09-12T09:47:51Z</time>
      </trkpt>
      <trkpt lat="44.09192" lon="6.49932">
        <ele>1137.5</ele>
        <time>2021-09-12T09:47:54Z</time>
      </trkpt>
      <trkpt lat="44.09189" lon="6.49927">
        <ele>1137.5</ele>
        <time>2021-09-12T09:47:55Z</time>
      </trkpt>
      <trkpt lat="44.09182" lon="6.49919">
        <ele>1137.4</ele>
        <time>2021-09-12T09:47:58Z</time>
      </trkpt>
      <trkpt lat="44.09175" lon="6.4992">
        <ele>1137.3</ele>
        <time>2021-09-12T09:48:00Z</time>
      </trkpt>
      <trkpt lat="44.09169" lon="6.49928">
        <ele>1137.1</ele>
        <time>2021-09-12T09:48:02Z</time>
      </trkpt>
      <trkpt lat="44.09165" lon="6.49932">
        <ele>1136.9</ele>
        <time>2021-09-12T09:48:03Z</time>
      </trkpt>
      <trkpt lat="44.0916" lon="6.49931">
        <ele>1136.7</ele>
        <time>2021-09-12T09:48:04Z</time>
      </trkpt>
      <trkpt lat="44.09157" lon="6.49931">
        <ele>1136.5</ele>
        <time>2021-09-12T09:48:05Z</time>
      </trkpt>
      <trkpt lat="44.09153" lon="6.49934">
        <ele>1136.3</ele>
        <time>2021-09-12T09:48:06Z</time>
      </trkpt>
      <trkpt lat="44.09149" lon="6.49936">
        <ele>1136</ele>
        <time>2021-09-12T09:48:07Z</time>
      </trkpt>
      <trkpt lat="44.09146" lon="6.49939">
        <ele>1135.8</ele>
        <time>2021-09-12T09:48:08Z</time>
      </trkpt>
      <trkpt lat="44.0914" lon="6.49943">
        <ele>1135.3</ele>
        <time>2021-09-12T09:48:09Z</time>
      </trkpt>
      <trkpt lat="44.09134" lon="6.49945">
        <ele>1134.8</ele>
        <time>2021-09-12T09:48:10Z</time>
      </trkpt>
      <trkpt lat="44.09128" lon="6.49946">
        <ele>1134.3</ele>
        <time>2021-09-12T09:48:11Z</time>
      </trkpt>
      <trkpt lat="44.09123" lon="6.49947">
        <ele>1133.8</ele>
        <time>2021-09-12T09:48:12Z</time>
      </trkpt>
      <trkpt lat="44.09117" lon="6.49948">
        <ele>1133.2</ele>
        <time>2021-09-12T09:48:13Z</time>
      </trkpt>
      <trkpt lat="44.0911" lon="6.4995">
        <ele>1132.6</ele>
        <time>2021-09-12T09:48:14Z</time>
      </trkpt>
      <trkpt lat="44.09102" lon="6.4995">
        <ele>1131.7</ele>
        <time>2021-09-12T09:48:15Z</time>
      </trkpt>
      <trkpt lat="44.09098" lon="6.49949">
        <ele>1131</ele>
        <time>2021-09-12T09:48:16Z</time>
      </trkpt>
      <trkpt lat="44.09088" lon="6.49947">
        <ele>1129.6</ele>
        <time>2021-09-12T09:48:17Z</time>
      </trkpt>
      <trkpt lat="44.09084" lon="6.49946">
        <ele>1129.1</ele>
        <time>2021-09-12T09:48:18Z</time>
      </trkpt>
      <trkpt lat="44.09074" lon="6.49945">
        <ele>1127.9</ele>
        <time>2021-09-12T09:48:19Z</time>
      </trkpt>
      <trkpt lat="44.09067" lon="6.49946">
        <ele>1127.1</ele>
        <time>2021-09-12T09:48:20Z</time>
      </trkpt>
      <trkpt lat="44.09064" lon="6.49938">
        <ele>1126.4</ele>
        <time>2021-09-12T09:48:21Z</time>
      </trkpt>
      <trkpt lat="44.09063" lon="6.49931">
        <ele>1126.4</ele>
        <time>2021-09-12T09:48:22Z</time>
      </trkpt>
      <trkpt lat="44.09058" lon="6.49922">
        <ele>1126.3</ele>
        <time>2021-09-12T09:48:23Z</time>
      </trkpt>
      <trkpt lat="44.09052" lon="6.49926">
        <ele>1126.3</ele>
        <time>2021-09-12T09:48:24Z</time>
      </trkpt>
      <trkpt lat="44.09056" lon="6.49928">
        <ele>1126.3</ele>
        <time>2021-09-12T09:48:25Z</time>
      </trkpt>
      <trkpt lat="44.09086" lon="6.50084">
        <ele>1125.9</ele>
        <time>2021-09-12T09:49:03Z</time>
      </trkpt>
      <trkpt lat="44.09087" lon="6.50086">
        <ele>1125.9</ele>
        <time>2021-09-12T09:49:04Z</time>
      </trkpt>
      <trkpt lat="44.09089" lon="6.50088">
        <ele>1125.9</ele>
        <time>2021-09-12T09:49:05Z</time>
      </trkpt>
      <trkpt lat="44.09092" lon="6.50092">
        <ele>1125.9</ele>
        <time>2021-09-12T09:49:06Z</time>
      </trkpt>
      <trkpt lat="44.09093" lon="6.50095">
        <ele>1125.9</ele>
        <time>2021-09-12T09:49:07Z</time>
      </trkpt>
      <trkpt lat="44.09094" lon="6.50099">
        <ele>1125.9</ele>
        <time>2021-09-12T09:49:08Z</time>
      </trkpt>
      <trkpt lat="44.09093" lon="6.50104">
        <ele>1125.9</ele>
        <time>2021-09-12T09:49:09Z</time>
      </trkpt>
      <trkpt lat="44.09092" lon="6.50107">
        <ele>1125.9</ele>
        <time>2021-09-12T09:49:10Z</time>
      </trkpt>
      <trkpt lat="44.09082" lon="6.50122">
        <ele>1125.9</ele>
        <time>2021-09-12T09:49:15Z</time>
      </trkpt>
      <trkpt lat="44.09077" lon="6.50129">
        <ele>1126</ele>
        <time>2021-09-12T09:49:17Z</time>
      </trkpt>
      <trkpt lat="44.09075" lon="6.50129">
        <ele>1126</ele>
        <time>2021-09-12T09:49:18Z</time>
      </trkpt>
      <trkpt lat="44.09075" lon="6.50126">
        <ele>1126</ele>
        <time>2021-09-12T09:49:19Z</time>
      </trkpt>
      <trkpt lat="44.09075" lon="6.5012">
        <ele>1126</ele>
        <time>2021-09-12T09:49:20Z</time>
      </trkpt>
      <trkpt lat="44.09075" lon="6.50117">
        <ele>1126</ele>
        <time>2021-09-12T09:49:21Z</time>
      </trkpt>
      <trkpt lat="44.09074" lon="6.50112">
        <ele>1126</ele>
        <time>2021-09-12T09:49:22Z</time>
      </trkpt>
      <trkpt lat="44.09074" lon="6.50107">
        <ele>1126</ele>
        <time>2021-09-12T09:49:23Z</time>
      </trkpt>
      <trkpt lat="44.09075" lon="6.50103">
        <ele>1126</ele>
        <time>2021-09-12T09:49:24Z</time>
      </trkpt>
      <trkpt lat="44.09076" lon="6.50099">
        <ele>1126</ele>
        <time>2021-09-12T09:49:25Z</time>
      </trkpt>
      <trkpt lat="44.09077" lon="6.50095">
        <ele>1126</ele>
        <time>2021-09-12T09:49:26Z</time>
      </trkpt>
      <trkpt lat="44.09078" lon="6.50094">
        <ele>1126</ele>
        <time>2021-09-12T09:49:27Z</time>
      </trkpt>
      <trkpt lat="44.09081" lon="6.50091">
        <ele>1126</ele>
        <time>2021-09-12T09:49:28Z</time>
      </trkpt>
      <trkpt lat="44.09082" lon="6.50088">
        <ele>1126</ele>
        <time>2021-09-12T09:49:29Z</time>
      </trkpt>
      <trkpt lat="44.09082" lon="6.50085">
        <ele>1126</ele>
        <time>2021-09-12T09:49:30Z</time>
      </trkpt>
      <trkpt lat="44.09083" lon="6.50083">
        <ele>1126</ele>
        <time>2021-09-12T09:49:31Z</time>
      </trkpt>
      <trkpt lat="44.09089" lon="6.50075">
        <ele>1126</ele>
        <time>2021-09-12T09:49:33Z</time>
      </trkpt>
      <trkpt lat="44.09098" lon="6.50065">
        <ele>1126</ele>
        <time>2021-09-12T09:49:37Z</time>
      </trkpt>
      <trkpt lat="44.09101" lon="6.50062">
        <ele>1126</ele>
        <time>2021-09-12T09:49:38Z</time>
      </trkpt>
      <trkpt lat="44.09102" lon="6.50058">
        <ele>1126</ele>
        <time>2021-09-12T09:49:39Z</time>
      </trkpt>
      <trkpt lat="44.09103" lon="6.50056">
        <ele>1126</ele>
        <time>2021-09-12T09:49:40Z</time>
      </trkpt>
      <trkpt lat="44.09101" lon="6.50059">
        <ele>1126</ele>
        <time>2021-09-12T09:49:41Z</time>
      </trkpt>
      <trkpt lat="44.09099" lon="6.50063">
        <ele>1126</ele>
        <time>2021-09-12T09:49:42Z</time>
      </trkpt>
      <trkpt lat="44.09096" lon="6.50065">
        <ele>1126</ele>
        <time>2021-09-12T09:49:43Z</time>
      </trkpt>
      <trkpt lat="44.09093" lon="6.50067">
        <ele>1126</ele>
        <time>2021-09-12T09:49:44Z</time>
      </trkpt>
      <trkpt lat="44.09092" lon="6.50068">
        <ele>1126</ele>
        <time>2021-09-12T09:49:45Z</time>
      </trkpt>
      <trkpt lat="44.09089" lon="6.5007">
        <ele>1126</ele>
        <time>2021-09-12T09:49:46Z</time>
      </trkpt>
      <trkpt lat="44.09086" lon="6.50072">
        <ele>1126</ele>
        <time>2021-09-12T09:49:47Z</time>
      </trkpt>
      <trkpt lat="44.09083" lon="6.50073">
        <ele>1126</ele>
        <time>2021-09-12T09:49:48Z</time>
      </trkpt>
      <trkpt lat="44.09081" lon="6.50075">
        <ele>1126</ele>
        <time>2021-09-12T09:49:49Z</time>
      </trkpt>
      <trkpt lat="44.09078" lon="6.50086">
        <ele>1126</ele>
        <time>2021-09-12T09:49:52Z</time>
      </trkpt>
      <trkpt lat="44.09079" lon="6.50094">
        <ele>1126</ele>
        <time>2021-09-12T09:49:54Z</time>
      </trkpt>
      <trkpt lat="44.09082" lon="6.50098">
        <ele>1126</ele>
        <time>2021-09-12T09:49:55Z</time>
      </trkpt>
      <trkpt lat="44.09083" lon="6.501">
        <ele>1126</ele>
        <time>2021-09-12T09:49:56Z</time>
      </trkpt>
      <trkpt lat="44.0908" lon="6.5011">
        <ele>1126</ele>
        <time>2021-09-12T09:49:59Z</time>
      </trkpt>
      <trkpt lat="44.09079" lon="6.50119">
        <ele>1126</ele>
        <time>2021-09-12T09:50:01Z</time>
      </trkpt>
      <trkpt lat="44.09079" lon="6.50131">
        <ele>1126</ele>
        <time>2021-09-12T09:50:03Z</time>
      </trkpt>
      <trkpt lat="44.0908" lon="6.50131">
        <ele>1126</ele>
        <time>2021-09-12T09:50:04Z</time>
      </trkpt>
      <trkpt lat="44.09085" lon="6.50131">
        <ele>1126</ele>
        <time>2021-09-12T09:50:05Z</time>
      </trkpt>
      <trkpt lat="44.09086" lon="6.5013">
        <ele>1126</ele>
        <time>2021-09-12T09:50:06Z</time>
      </trkpt>
      <trkpt lat="44.0909" lon="6.5013">
        <ele>1126</ele>
        <time>2021-09-12T09:50:07Z</time>
      </trkpt>
      <trkpt lat="44.09096" lon="6.50129">
        <ele>1126</ele>
        <time>2021-09-12T09:50:09Z</time>
      </trkpt>
      <trkpt lat="44.09103" lon="6.50128">
        <ele>1126</ele>
        <time>2021-09-12T09:50:11Z</time>
      </trkpt>
      <trkpt lat="44.09105" lon="6.50128">
        <ele>1126</ele>
        <time>2021-09-12T09:50:12Z</time>
      </trkpt>
      <trkpt lat="44.09109" lon="6.50128">
        <ele>1126.1</ele>
        <time>2021-09-12T09:50:13Z</time>
      </trkpt>
      <trkpt lat="44.09111" lon="6.50122">
        <ele>1126.1</ele>
        <time>2021-09-12T09:50:15Z</time>
      </trkpt>
      <trkpt lat="44.09114" lon="6.50117">
        <ele>1126.1</ele>
        <time>2021-09-12T09:50:16Z</time>
      </trkpt>
      <trkpt lat="44.09116" lon="6.50112">
        <ele>1126.1</ele>
        <time>2021-09-12T09:50:17Z</time>
      </trkpt>
      <trkpt lat="44.09117" lon="6.50111">
        <ele>1126.1</ele>
        <time>2021-09-12T09:50:18Z</time>
      </trkpt>
      <trkpt lat="44.09119" lon="6.50103">
        <ele>1126.1</ele>
        <time>2021-09-12T09:50:20Z</time>
      </trkpt>
      <trkpt lat="44.0912" lon="6.501">
        <ele>1126.1</ele>
        <time>2021-09-12T09:50:21Z</time>
      </trkpt>
      <trkpt lat="44.09121" lon="6.50093">
        <ele>1126.1</ele>
        <time>2021-09-12T09:50:22Z</time>
      </trkpt>
      <trkpt lat="44.09123" lon="6.50088">
        <ele>1126.1</ele>
        <time>2021-09-12T09:50:23Z</time>
      </trkpt>
      <trkpt lat="44.09124" lon="6.50083">
        <ele>1126.1</ele>
        <time>2021-09-12T09:50:24Z</time>
      </trkpt>
      <trkpt lat="44.09124" lon="6.50082">
        <ele>1126.1</ele>
        <time>2021-09-12T09:50:25Z</time>
      </trkpt>
      <trkpt lat="44.09122" lon="6.50077">
        <ele>1126.1</ele>
        <time>2021-09-12T09:50:26Z</time>
      </trkpt>
      <trkpt lat="44.09121" lon="6.50074">
        <ele>1126.1</ele>
        <time>2021-09-12T09:50:27Z</time>
      </trkpt>
      <trkpt lat="44.0911" lon="6.50124">
        <ele>1126.1</ele>
        <time>2021-09-12T09:50:39Z</time>
      </trkpt>
      <trkpt lat="44.09107" lon="6.50129">
        <ele>1126.1</ele>
        <time>2021-09-12T09:50:41Z</time>
      </trkpt>
      <trkpt lat="44.091" lon="6.5014">
        <ele>1126.1</ele>
        <time>2021-09-12T09:50:44Z</time>
      </trkpt>
      <trkpt lat="44.09094" lon="6.50148">
        <ele>1126.1</ele>
        <time>2021-09-12T09:50:47Z</time>
      </trkpt>
      <trkpt lat="44.09088" lon="6.50149">
        <ele>1126.1</ele>
        <time>2021-09-12T09:50:49Z</time>
      </trkpt>
      <trkpt lat="44.09085" lon="6.50149">
        <ele>1126.1</ele>
        <time>2021-09-12T09:50:50Z</time>
      </trkpt>
      <trkpt lat="44.09067" lon="6.50145">
        <ele>1125.8</ele>
        <time>2021-09-12T09:50:56Z</time>
      </trkpt>
      <trkpt lat="44.09064" lon="6.50144">
        <ele>1125.8</ele>
        <time>2021-09-12T09:50:57Z</time>
      </trkpt>
      <trkpt lat="44.09062" lon="6.50145">
        <ele>1125.7</ele>
        <time>2021-09-12T09:50:58Z</time>
      </trkpt>
      <trkpt lat="44.09061" lon="6.50152">
        <ele>1125.6</ele>
        <time>2021-09-12T09:50:59Z</time>
      </trkpt>
      <trkpt lat="44.09061" lon="6.50154">
        <ele>1125.6</ele>
        <time>2021-09-12T09:51:00Z</time>
      </trkpt>
      <trkpt lat="44.09061" lon="6.5016">
        <ele>1125.4</ele>
        <time>2021-09-12T09:51:01Z</time>
      </trkpt>
      <trkpt lat="44.09061" lon="6.50167">
        <ele>1125.3</ele>
        <time>2021-09-12T09:51:02Z</time>
      </trkpt>
      <trkpt lat="44.09062" lon="6.50172">
        <ele>1125.2</ele>
        <time>2021-09-12T09:51:03Z</time>
      </trkpt>
      <trkpt lat="44.09066" lon="6.50179">
        <ele>1125</ele>
        <time>2021-09-12T09:51:04Z</time>
      </trkpt>
      <trkpt lat="44.09067" lon="6.50185">
        <ele>1124.8</ele>
        <time>2021-09-12T09:51:05Z</time>
      </trkpt>
      <trkpt lat="44.0907" lon="6.50192">
        <ele>1124.7</ele>
        <time>2021-09-12T09:51:06Z</time>
      </trkpt>
      <trkpt lat="44.09071" lon="6.50198">
        <ele>1124.5</ele>
        <time>2021-09-12T09:51:07Z</time>
      </trkpt>
      <trkpt lat="44.0907" lon="6.50203">
        <ele>1124.4</ele>
        <time>2021-09-12T09:51:08Z</time>
      </trkpt>
      <trkpt lat="44.0907" lon="6.50208">
        <ele>1124.3</ele>
        <time>2021-09-12T09:51:09Z</time>
      </trkpt>
      <trkpt lat="44.09068" lon="6.50222">
        <ele>1124</ele>
        <time>2021-09-12T09:51:11Z</time>
      </trkpt>
      <trkpt lat="44.09067" lon="6.50228">
        <ele>1123.8</ele>
        <time>2021-09-12T09:51:12Z</time>
      </trkpt>
      <trkpt lat="44.09063" lon="6.50238">
        <ele>1123.6</ele>
        <time>2021-09-12T09:51:13Z</time>
      </trkpt>
      <trkpt lat="44.0906" lon="6.50245">
        <ele>1123.4</ele>
        <time>2021-09-12T09:51:14Z</time>
      </trkpt>
      <trkpt lat="44.09057" lon="6.50251">
        <ele>1123.2</ele>
        <time>2021-09-12T09:51:15Z</time>
      </trkpt>
      <trkpt lat="44.09053" lon="6.50256">
        <ele>1123.1</ele>
        <time>2021-09-12T09:51:16Z</time>
      </trkpt>
      <trkpt lat="44.09048" lon="6.50261">
        <ele>1122.9</ele>
        <time>2021-09-12T09:51:17Z</time>
      </trkpt>
      <trkpt lat="44.09037" lon="6.5027">
        <ele>1122.5</ele>
        <time>2021-09-12T09:51:20Z</time>
      </trkpt>
      <trkpt lat="44.09032" lon="6.50274">
        <ele>1122.3</ele>
        <time>2021-09-12T09:51:21Z</time>
      </trkpt>
      <trkpt lat="44.09023" lon="6.50281">
        <ele>1122</ele>
        <time>2021-09-12T09:51:23Z</time>
      </trkpt>
      <trkpt lat="44.09019" lon="6.50285">
        <ele>1121.8</ele>
        <time>2021-09-12T09:51:24Z</time>
      </trkpt>
      <trkpt lat="44.0901" lon="6.5029">
        <ele>1121.4</ele>
        <time>2021-09-12T09:51:25Z</time>
      </trkpt>
      <trkpt lat="44.09001" lon="6.50295">
        <ele>1121.1</ele>
        <time>2021-09-12T09:51:27Z</time>
      </trkpt>
      <trkpt lat="44.08996" lon="6.50299">
        <ele>1120.9</ele>
        <time>2021-09-12T09:51:28Z</time>
      </trkpt>
      <trkpt lat="44.08992" lon="6.50303">
        <ele>1120.8</ele>
        <time>2021-09-12T09:51:29Z</time>
      </trkpt>
      <trkpt lat="44.08981" lon="6.50308">
        <ele>1120.5</ele>
        <time>2021-09-12T09:51:31Z</time>
      </trkpt>
      <trkpt lat="44.0897" lon="6.50311">
        <ele>1120.2</ele>
        <time>2021-09-12T09:51:33Z</time>
      </trkpt>
      <trkpt lat="44.08964" lon="6.50312">
        <ele>1120.1</ele>
        <time>2021-09-12T09:51:35Z</time>
      </trkpt>
      <trkpt lat="44.08952" lon="6.50314">
        <ele>1119.8</ele>
        <time>2021-09-12T09:51:37Z</time>
      </trkpt>
      <trkpt lat="44.0894" lon="6.50314">
        <ele>1119.6</ele>
        <time>2021-09-12T09:51:39Z</time>
      </trkpt>
      <trkpt lat="44.08935" lon="6.50314">
        <ele>1119.5</ele>
        <time>2021-09-12T09:51:40Z</time>
      </trkpt>
      <trkpt lat="44.08925" lon="6.50313">
        <ele>1119.3</ele>
        <time>2021-09-12T09:51:42Z</time>
      </trkpt>
      <trkpt lat="44.0892" lon="6.50313">
        <ele>1118.8</ele>
        <time>2021-09-12T09:51:43Z</time>
      </trkpt>
      <trkpt lat="44.08913" lon="6.50312">
        <ele>1118.2</ele>
        <time>2021-09-12T09:51:44Z</time>
      </trkpt>
      <trkpt lat="44.08908" lon="6.50312">
        <ele>1117.6</ele>
        <time>2021-09-12T09:51:45Z</time>
      </trkpt>
      <trkpt lat="44.08895" lon="6.50312">
        <ele>1115.9</ele>
        <time>2021-09-12T09:51:48Z</time>
      </trkpt>
      <trkpt lat="44.08887" lon="6.50313">
        <ele>1114.8</ele>
        <time>2021-09-12T09:51:49Z</time>
      </trkpt>
      <trkpt lat="44.08867" lon="6.50316">
        <ele>1112.4</ele>
        <time>2021-09-12T09:51:52Z</time>
      </trkpt>
      <trkpt lat="44.08857" lon="6.50319">
        <ele>1111.3</ele>
        <time>2021-09-12T09:51:54Z</time>
      </trkpt>
      <trkpt lat="44.08846" lon="6.50322">
        <ele>1110.4</ele>
        <time>2021-09-12T09:51:56Z</time>
      </trkpt>
      <trkpt lat="44.08836" lon="6.50324">
        <ele>1109.6</ele>
        <time>2021-09-12T09:51:57Z</time>
      </trkpt>
      <trkpt lat="44.08818" lon="6.50325">
        <ele>1108.8</ele>
        <time>2021-09-12T09:52:00Z</time>
      </trkpt>
      <trkpt lat="44.08809" lon="6.50324">
        <ele>1108.4</ele>
        <time>2021-09-12T09:52:02Z</time>
      </trkpt>
      <trkpt lat="44.08791" lon="6.50328">
        <ele>1107.9</ele>
        <time>2021-09-12T09:52:04Z</time>
      </trkpt>
      <trkpt lat="44.08776" lon="6.50335">
        <ele>1107.8</ele>
        <time>2021-09-12T09:52:07Z</time>
      </trkpt>
      <trkpt lat="44.08768" lon="6.50338">
        <ele>1107.9</ele>
        <time>2021-09-12T09:52:08Z</time>
      </trkpt>
      <trkpt lat="44.08761" lon="6.50341">
        <ele>1107.9</ele>
        <time>2021-09-12T09:52:09Z</time>
      </trkpt>
      <trkpt lat="44.08748" lon="6.50344">
        <ele>1108</ele>
        <time>2021-09-12T09:52:11Z</time>
      </trkpt>
      <trkpt lat="44.08742" lon="6.50345">
        <ele>1108</ele>
        <time>2021-09-12T09:52:12Z</time>
      </trkpt>
      <trkpt lat="44.0873" lon="6.50346">
        <ele>1108.2</ele>
        <time>2021-09-12T09:52:15Z</time>
      </trkpt>
      <trkpt lat="44.08724" lon="6.50348">
        <ele>1108.3</ele>
        <time>2021-09-12T09:52:16Z</time>
      </trkpt>
      <trkpt lat="44.08713" lon="6.50352">
        <ele>1108.4</ele>
        <time>2021-09-12T09:52:18Z</time>
      </trkpt>
      <trkpt lat="44.08701" lon="6.50355">
        <ele>1108.6</ele>
        <time>2021-09-12T09:52:21Z</time>
      </trkpt>
      <trkpt lat="44.08695" lon="6.50355">
        <ele>1108.6</ele>
        <time>2021-09-12T09:52:23Z</time>
      </trkpt>
      <trkpt lat="44.0869" lon="6.50354">
        <ele>1108.5</ele>
        <time>2021-09-12T09:52:24Z</time>
      </trkpt>
      <trkpt lat="44.08681" lon="6.50347">
        <ele>1108.4</ele>
        <time>2021-09-12T09:52:27Z</time>
      </trkpt>
      <trkpt lat="44.08671" lon="6.50343">
        <ele>1108.3</ele>
        <time>2021-09-12T09:52:30Z</time>
      </trkpt>
      <trkpt lat="44.08662" lon="6.50339">
        <ele>1108.3</ele>
        <time>2021-09-12T09:52:33Z</time>
      </trkpt>
      <trkpt lat="44.08658" lon="6.50337">
        <ele>1108.2</ele>
        <time>2021-09-12T09:52:34Z</time>
      </trkpt>
      <trkpt lat="44.08655" lon="6.50336">
        <ele>1108.2</ele>
        <time>2021-09-12T09:52:35Z</time>
      </trkpt>
      <trkpt lat="44.08648" lon="6.50333">
        <ele>1108.2</ele>
        <time>2021-09-12T09:52:37Z</time>
      </trkpt>
      <trkpt lat="44.08643" lon="6.50331">
        <ele>1108.3</ele>
        <time>2021-09-12T09:52:38Z</time>
      </trkpt>
      <trkpt lat="44.0864" lon="6.50329">
        <ele>1108.3</ele>
        <time>2021-09-12T09:52:39Z</time>
      </trkpt>
      <trkpt lat="44.08628" lon="6.50328">
        <ele>1108.5</ele>
        <time>2021-09-12T09:52:43Z</time>
      </trkpt>
      <trkpt lat="44.08617" lon="6.50329">
        <ele>1108.8</ele>
        <time>2021-09-12T09:52:46Z</time>
      </trkpt>
      <trkpt lat="44.08609" lon="6.50329">
        <ele>1109.1</ele>
        <time>2021-09-12T09:52:48Z</time>
      </trkpt>
      <trkpt lat="44.08603" lon="6.50331">
        <ele>1109.3</ele>
        <time>2021-09-12T09:52:50Z</time>
      </trkpt>
      <trkpt lat="44.08598" lon="6.50332">
        <ele>1109.4</ele>
        <time>2021-09-12T09:52:51Z</time>
      </trkpt>
      <trkpt lat="44.0859" lon="6.50334">
        <ele>1109.7</ele>
        <time>2021-09-12T09:52:54Z</time>
      </trkpt>
      <trkpt lat="44.08586" lon="6.50335">
        <ele>1109.8</ele>
        <time>2021-09-12T09:52:55Z</time>
      </trkpt>
      <trkpt lat="44.0858" lon="6.50339">
        <ele>1110</ele>
        <time>2021-09-12T09:52:57Z</time>
      </trkpt>
      <trkpt lat="44.08577" lon="6.50342">
        <ele>1109.9</ele>
        <time>2021-09-12T09:52:58Z</time>
      </trkpt>
      <trkpt lat="44.08574" lon="6.50346">
        <ele>1109.8</ele>
        <time>2021-09-12T09:52:59Z</time>
      </trkpt>
      <trkpt lat="44.08571" lon="6.5035">
        <ele>1109.7</ele>
        <time>2021-09-12T09:53:01Z</time>
      </trkpt>
      <trkpt lat="44.08566" lon="6.50355">
        <ele>1109.6</ele>
        <time>2021-09-12T09:53:02Z</time>
      </trkpt>
      <trkpt lat="44.08563" lon="6.50355">
        <ele>1109.5</ele>
        <time>2021-09-12T09:53:03Z</time>
      </trkpt>
      <trkpt lat="44.0856" lon="6.50358">
        <ele>1109.5</ele>
        <time>2021-09-12T09:53:04Z</time>
      </trkpt>
      <trkpt lat="44.08557" lon="6.50362">
        <ele>1109.4</ele>
        <time>2021-09-12T09:53:05Z</time>
      </trkpt>
      <trkpt lat="44.08553" lon="6.50366">
        <ele>1109.4</ele>
        <time>2021-09-12T09:53:06Z</time>
      </trkpt>
      <trkpt lat="44.08551" lon="6.5037">
        <ele>1109.3</ele>
        <time>2021-09-12T09:53:07Z</time>
      </trkpt>
      <trkpt lat="44.08547" lon="6.50375">
        <ele>1109.3</ele>
        <time>2021-09-12T09:53:08Z</time>
      </trkpt>
      <trkpt lat="44.08544" lon="6.5038">
        <ele>1109.3</ele>
        <time>2021-09-12T09:53:09Z</time>
      </trkpt>
      <trkpt lat="44.08542" lon="6.50382">
        <ele>1109.2</ele>
        <time>2021-09-12T09:53:10Z</time>
      </trkpt>
      <trkpt lat="44.08537" lon="6.50388">
        <ele>1109.2</ele>
        <time>2021-09-12T09:53:11Z</time>
      </trkpt>
      <trkpt lat="44.08534" lon="6.50392">
        <ele>1109.2</ele>
        <time>2021-09-12T09:53:12Z</time>
      </trkpt>
      <trkpt lat="44.08532" lon="6.50394">
        <ele>1109.2</ele>
        <time>2021-09-12T09:53:13Z</time>
      </trkpt>
      <trkpt lat="44.08529" lon="6.50397">
        <ele>1109.2</ele>
        <time>2021-09-12T09:53:14Z</time>
      </trkpt>
      <trkpt lat="44.08527" lon="6.50402">
        <ele>1109.2</ele>
        <time>2021-09-12T09:53:15Z</time>
      </trkpt>
      <trkpt lat="44.08525" lon="6.50407">
        <ele>1109.2</ele>
        <time>2021-09-12T09:53:16Z</time>
      </trkpt>
      <trkpt lat="44.08523" lon="6.5041">
        <ele>1109.2</ele>
        <time>2021-09-12T09:53:17Z</time>
      </trkpt>
      <trkpt lat="44.08522" lon="6.50415">
        <ele>1109.2</ele>
        <time>2021-09-12T09:53:18Z</time>
      </trkpt>
      <trkpt lat="44.0852" lon="6.50418">
        <ele>1109.3</ele>
        <time>2021-09-12T09:53:19Z</time>
      </trkpt>
      <trkpt lat="44.08518" lon="6.50422">
        <ele>1109.3</ele>
        <time>2021-09-12T09:53:20Z</time>
      </trkpt>
      <trkpt lat="44.08518" lon="6.50422">
        <ele>1109.3</ele>
        <time>2021-09-12T09:53:21Z</time>
      </trkpt>
      <trkpt lat="44.08512" lon="6.50434">
        <ele>1109.3</ele>
        <time>2021-09-12T09:53:24Z</time>
      </trkpt>
      <trkpt lat="44.08509" lon="6.50438">
        <ele>1109.3</ele>
        <time>2021-09-12T09:53:25Z</time>
      </trkpt>
      <trkpt lat="44.08506" lon="6.5044">
        <ele>1109.3</ele>
        <time>2021-09-12T09:53:26Z</time>
      </trkpt>
      <trkpt lat="44.08502" lon="6.50444">
        <ele>1109.4</ele>
        <time>2021-09-12T09:53:28Z</time>
      </trkpt>
      <trkpt lat="44.085" lon="6.50447">
        <ele>1109.4</ele>
        <time>2021-09-12T09:53:29Z</time>
      </trkpt>
      <trkpt lat="44.08497" lon="6.50452">
        <ele>1109.5</ele>
        <time>2021-09-12T09:53:30Z</time>
      </trkpt>
      <trkpt lat="44.08495" lon="6.50455">
        <ele>1109.5</ele>
        <time>2021-09-12T09:53:31Z</time>
      </trkpt>
      <trkpt lat="44.08493" lon="6.5046">
        <ele>1109.6</ele>
        <time>2021-09-12T09:53:32Z</time>
      </trkpt>
      <trkpt lat="44.0849" lon="6.50462">
        <ele>1109.6</ele>
        <time>2021-09-12T09:53:33Z</time>
      </trkpt>
      <trkpt lat="44.0849" lon="6.50463">
        <ele>1109.7</ele>
        <time>2021-09-12T09:53:34Z</time>
      </trkpt>
      <trkpt lat="44.08487" lon="6.50467">
        <ele>1109.7</ele>
        <time>2021-09-12T09:53:35Z</time>
      </trkpt>
      <trkpt lat="44.08485" lon="6.50471">
        <ele>1109.8</ele>
        <time>2021-09-12T09:53:36Z</time>
      </trkpt>
      <trkpt lat="44.08481" lon="6.50477">
        <ele>1109.8</ele>
        <time>2021-09-12T09:53:37Z</time>
      </trkpt>
      <trkpt lat="44.08481" lon="6.50478">
        <ele>1109.8</ele>
        <time>2021-09-12T09:53:38Z</time>
      </trkpt>
      <trkpt lat="44.0848" lon="6.50481">
        <ele>1109.6</ele>
        <time>2021-09-12T09:53:39Z</time>
      </trkpt>
      <trkpt lat="44.08488" lon="6.5048">
        <ele>1108.6</ele>
        <time>2021-09-12T09:53:41Z</time>
      </trkpt>
      <trkpt lat="44.08504" lon="6.50498">
        <ele>1108.5</ele>
        <time>2021-09-12T09:53:49Z</time>
      </trkpt>
      <trkpt lat="44.08521" lon="6.50516">
        <ele>1109</ele>
        <time>2021-09-12T09:53:58Z</time>
      </trkpt>
      <trkpt lat="44.08526" lon="6.50526">
        <ele>1109.1</ele>
        <time>2021-09-12T09:54:02Z</time>
      </trkpt>
      <trkpt lat="44.08531" lon="6.50537">
        <ele>1109.5</ele>
        <time>2021-09-12T09:54:07Z</time>
      </trkpt>
      <trkpt lat="44.08548" lon="6.50573">
        <ele>1111.3</ele>
        <time>2021-09-12T09:54:22Z</time>
      </trkpt>
      <trkpt lat="44.08563" lon="6.50604">
        <ele>1112.2</ele>
        <time>2021-09-12T09:54:35Z</time>
      </trkpt>
      <trkpt lat="44.08572" lon="6.50626">
        <ele>1112.5</ele>
        <time>2021-09-12T09:54:44Z</time>
      </trkpt>
      <trkpt lat="44.08584" lon="6.50658">
        <ele>1112.9</ele>
        <time>2021-09-12T09:54:56Z</time>
      </trkpt>
      <trkpt lat="44.08596" lon="6.5069">
        <ele>1114.1</ele>
        <time>2021-09-12T09:55:07Z</time>
      </trkpt>
      <trkpt lat="44.086" lon="6.50699">
        <ele>1114.5</ele>
        <time>2021-09-12T09:55:10Z</time>
      </trkpt>
      <trkpt lat="44.08603" lon="6.50705">
        <ele>1114.7</ele>
        <time>2021-09-12T09:55:11Z</time>
      </trkpt>
      <trkpt lat="44.08608" lon="6.50711">
        <ele>1114.8</ele>
        <time>2021-09-12T09:55:13Z</time>
      </trkpt>
      <trkpt lat="44.08613" lon="6.50716">
        <ele>1114.9</ele>
        <time>2021-09-12T09:55:15Z</time>
      </trkpt>
      <trkpt lat="44.0863" lon="6.50731">
        <ele>1115</ele>
        <time>2021-09-12T09:55:20Z</time>
      </trkpt>
      <trkpt lat="44.08648" lon="6.50743">
        <ele>1115.3</ele>
        <time>2021-09-12T09:55:25Z</time>
      </trkpt>
      <trkpt lat="44.08659" lon="6.50753">
        <ele>1115.5</ele>
        <time>2021-09-12T09:55:28Z</time>
      </trkpt>
      <trkpt lat="44.08679" lon="6.50777">
        <ele>1116</ele>
        <time>2021-09-12T09:55:35Z</time>
      </trkpt>
      <trkpt lat="44.08699" lon="6.508">
        <ele>1116.6</ele>
        <time>2021-09-12T09:55:43Z</time>
      </trkpt>
      <trkpt lat="44.08719" lon="6.50822">
        <ele>1117</ele>
        <time>2021-09-12T09:55:50Z</time>
      </trkpt>
      <trkpt lat="44.08737" lon="6.50844">
        <ele>1117.4</ele>
        <time>2021-09-12T09:55:57Z</time>
      </trkpt>
      <trkpt lat="44.08745" lon="6.50857">
        <ele>1117.6</ele>
        <time>2021-09-12T09:56:02Z</time>
      </trkpt>
      <trkpt lat="44.08755" lon="6.50878">
        <ele>1118</ele>
        <time>2021-09-12T09:56:08Z</time>
      </trkpt>
      <trkpt lat="44.08767" lon="6.50907">
        <ele>1118.7</ele>
        <time>2021-09-12T09:56:16Z</time>
      </trkpt>
      <trkpt lat="44.08778" lon="6.50936">
        <ele>1119.5</ele>
        <time>2021-09-12T09:56:24Z</time>
      </trkpt>
      <trkpt lat="44.08781" lon="6.50947">
        <ele>1119.8</ele>
        <time>2021-09-12T09:56:27Z</time>
      </trkpt>
      <trkpt lat="44.08784" lon="6.50973">
        <ele>1120.5</ele>
        <time>2021-09-12T09:56:34Z</time>
      </trkpt>
      <trkpt lat="44.08787" lon="6.50993">
        <ele>1121</ele>
        <time>2021-09-12T09:56:39Z</time>
      </trkpt>
      <trkpt lat="44.08791" lon="6.51006">
        <ele>1121.2</ele>
        <time>2021-09-12T09:56:43Z</time>
      </trkpt>
      <trkpt lat="44.08793" lon="6.5101">
        <ele>1121.2</ele>
        <time>2021-09-12T09:56:44Z</time>
      </trkpt>
      <trkpt lat="44.08795" lon="6.51014">
        <ele>1121.3</ele>
        <time>2021-09-12T09:56:45Z</time>
      </trkpt>
      <trkpt lat="44.08799" lon="6.51018">
        <ele>1121.3</ele>
        <time>2021-09-12T09:56:47Z</time>
      </trkpt>
      <trkpt lat="44.08802" lon="6.51021">
        <ele>1121.5</ele>
        <time>2021-09-12T09:56:48Z</time>
      </trkpt>
      <trkpt lat="44.08778" lon="6.51034">
        <ele>1123.3</ele>
        <time>2021-09-12T09:56:57Z</time>
      </trkpt>
      <trkpt lat="44.08762" lon="6.51041">
        <ele>1125.2</ele>
        <time>2021-09-12T09:57:02Z</time>
      </trkpt>
      <trkpt lat="44.08757" lon="6.51043">
        <ele>1125.8</ele>
        <time>2021-09-12T09:57:04Z</time>
      </trkpt>
      <trkpt lat="44.08739" lon="6.51047">
        <ele>1127.7</ele>
        <time>2021-09-12T09:57:10Z</time>
      </trkpt>
      <trkpt lat="44.08715" lon="6.51065">
        <ele>1130.1</ele>
        <time>2021-09-12T09:57:19Z</time>
      </trkpt>
      <trkpt lat="44.08696" lon="6.51081">
        <ele>1132.4</ele>
        <time>2021-09-12T09:57:26Z</time>
      </trkpt>
      <trkpt lat="44.0868" lon="6.51097">
        <ele>1134.3</ele>
        <time>2021-09-12T09:57:34Z</time>
      </trkpt>
      <trkpt lat="44.08669" lon="6.51117">
        <ele>1135.9</ele>
        <time>2021-09-12T09:57:41Z</time>
      </trkpt>
      <trkpt lat="44.08662" lon="6.51135">
        <ele>1136.9</ele>
        <time>2021-09-12T09:57:48Z</time>
      </trkpt>
      <trkpt lat="44.08655" lon="6.51159">
        <ele>1137.8</ele>
        <time>2021-09-12T09:57:58Z</time>
      </trkpt>
      <trkpt lat="44.0865" lon="6.51172">
        <ele>1138.4</ele>
        <time>2021-09-12T09:58:05Z</time>
      </trkpt>
      <trkpt lat="44.08634" lon="6.512">
        <ele>1140.8</ele>
        <time>2021-09-12T09:58:25Z</time>
      </trkpt>
      <trkpt lat="44.08629" lon="6.51205">
        <ele>1141.5</ele>
        <time>2021-09-12T09:58:31Z</time>
      </trkpt>
      <trkpt lat="44.08588" lon="6.51206">
        <ele>1145.8</ele>
        <time>2021-09-12T09:59:26Z</time>
      </trkpt>
      <trkpt lat="44.08557" lon="6.51214">
        <ele>1149.3</ele>
        <time>2021-09-12T10:00:22Z</time>
      </trkpt>
      <trkpt lat="44.08537" lon="6.51218">
        <ele>1152</ele>
        <time>2021-09-12T10:01:03Z</time>
      </trkpt>
      <trkpt lat="44.08507" lon="6.5122">
        <ele>1155.6</ele>
        <time>2021-09-12T10:02:00Z</time>
      </trkpt>
      <trkpt lat="44.08489" lon="6.51223">
        <ele>1157.5</ele>
        <time>2021-09-12T10:02:31Z</time>
      </trkpt>
      <trkpt lat="44.08457" lon="6.51241">
        <ele>1160.6</ele>
        <time>2021-09-12T10:03:27Z</time>
      </trkpt>
      <trkpt lat="44.0845" lon="6.51244">
        <ele>1161.4</ele>
        <time>2021-09-12T10:03:38Z</time>
      </trkpt>
      <trkpt lat="44.08436" lon="6.5125">
        <ele>1163.2</ele>
        <time>2021-09-12T10:03:59Z</time>
      </trkpt>
      <trkpt lat="44.08427" lon="6.51251">
        <ele>1164.5</ele>
        <time>2021-09-12T10:04:12Z</time>
      </trkpt>
      <trkpt lat="44.08412" lon="6.51247">
        <ele>1166.6</ele>
        <time>2021-09-12T10:04:35Z</time>
      </trkpt>
      <trkpt lat="44.08406" lon="6.51248">
        <ele>1167.4</ele>
        <time>2021-09-12T10:04:44Z</time>
      </trkpt>
      <trkpt lat="44.08395" lon="6.51263">
        <ele>1169.2</ele>
        <time>2021-09-12T10:05:08Z</time>
      </trkpt>
      <trkpt lat="44.08391" lon="6.5127">
        <ele>1169.9</ele>
        <time>2021-09-12T10:05:19Z</time>
      </trkpt>
      <trkpt lat="44.08379" lon="6.51288">
        <ele>1171.6</ele>
        <time>2021-09-12T10:05:51Z</time>
      </trkpt>
      <trkpt lat="44.08373" lon="6.51293">
        <ele>1172.3</ele>
        <time>2021-09-12T10:06:04Z</time>
      </trkpt>
      <trkpt lat="44.08352" lon="6.513">
        <ele>1174.7</ele>
        <time>2021-09-12T10:06:49Z</time>
      </trkpt>
      <trkpt lat="44.08317" lon="6.51307">
        <ele>1178.5</ele>
        <time>2021-09-12T10:08:06Z</time>
      </trkpt>
      <trkpt lat="44.08291" lon="6.51309">
        <ele>1182.1</ele>
        <time>2021-09-12T10:09:02Z</time>
      </trkpt>
      <trkpt lat="44.08259" lon="6.51306">
        <ele>1186.6</ele>
        <time>2021-09-12T10:10:12Z</time>
      </trkpt>
      <trkpt lat="44.0824" lon="6.51302">
        <ele>1189.4</ele>
        <time>2021-09-12T10:10:53Z</time>
      </trkpt>
      <trkpt lat="44.0822" lon="6.51294">
        <ele>1192.5</ele>
        <time>2021-09-12T10:11:38Z</time>
      </trkpt>
      <trkpt lat="44.08203" lon="6.51284">
        <ele>1195.1</ele>
        <time>2021-09-12T10:12:18Z</time>
      </trkpt>
      <trkpt lat="44.08184" lon="6.5127">
        <ele>1197.7</ele>
        <time>2021-09-12T10:13:05Z</time>
      </trkpt>
      <trkpt lat="44.08166" lon="6.51265">
        <ele>1199.9</ele>
        <time>2021-09-12T10:13:44Z</time>
      </trkpt>
      <trkpt lat="44.08159" lon="6.51264">
        <ele>1200.8</ele>
        <time>2021-09-12T10:14:00Z</time>
      </trkpt>
      <trkpt lat="44.08144" lon="6.51265">
        <ele>1202.7</ele>
        <time>2021-09-12T10:14:35Z</time>
      </trkpt>
      <trkpt lat="44.08137" lon="6.51269">
        <ele>1203.8</ele>
        <time>2021-09-12T10:14:52Z</time>
      </trkpt>
      <trkpt lat="44.08122" lon="6.51284">
        <ele>1206.4</ele>
        <time>2021-09-12T10:15:28Z</time>
      </trkpt>
      <trkpt lat="44.08119" lon="6.51285">
        <ele>1206.8</ele>
        <time>2021-09-12T10:15:34Z</time>
      </trkpt>
      <trkpt lat="44.08116" lon="6.51285">
        <ele>1207.2</ele>
        <time>2021-09-12T10:15:38Z</time>
      </trkpt>
      <trkpt lat="44.08113" lon="6.51283">
        <ele>1207.7</ele>
        <time>2021-09-12T10:15:43Z</time>
      </trkpt>
      <trkpt lat="44.08111" lon="6.51281">
        <ele>1208</ele>
        <time>2021-09-12T10:15:47Z</time>
      </trkpt>
      <trkpt lat="44.08104" lon="6.51266">
        <ele>1209.7</ele>
        <time>2021-09-12T10:16:06Z</time>
      </trkpt>
      <trkpt lat="44.08098" lon="6.51257">
        <ele>1210.8</ele>
        <time>2021-09-12T10:16:19Z</time>
      </trkpt>
      <trkpt lat="44.08088" lon="6.51249">
        <ele>1212.2</ele>
        <time>2021-09-12T10:16:35Z</time>
      </trkpt>
      <trkpt lat="44.08079" lon="6.51245">
        <ele>1213.3</ele>
        <time>2021-09-12T10:16:49Z</time>
      </trkpt>
      <trkpt lat="44.08068" lon="6.51245">
        <ele>1214.7</ele>
        <time>2021-09-12T10:17:06Z</time>
      </trkpt>
      <trkpt lat="44.08064" lon="6.51245">
        <ele>1215.2</ele>
        <time>2021-09-12T10:17:12Z</time>
      </trkpt>
      <trkpt lat="44.08062" lon="6.51243">
        <ele>1215.5</ele>
        <time>2021-09-12T10:17:17Z</time>
      </trkpt>
      <trkpt lat="44.0806" lon="6.51241">
        <ele>1215.8</ele>
        <time>2021-09-12T10:17:22Z</time>
      </trkpt>
      <trkpt lat="44.08059" lon="6.51238">
        <ele>1216.1</ele>
        <time>2021-09-12T10:17:27Z</time>
      </trkpt>
      <trkpt lat="44.08058" lon="6.51235">
        <ele>1216.4</ele>
        <time>2021-09-12T10:17:33Z</time>
      </trkpt>
      <trkpt lat="44.08057" lon="6.51232">
        <ele>1216.7</ele>
        <time>2021-09-12T10:17:38Z</time>
      </trkpt>
      <trkpt lat="44.08058" lon="6.51229">
        <ele>1217</ele>
        <time>2021-09-12T10:17:44Z</time>
      </trkpt>
      <trkpt lat="44.08058" lon="6.51225">
        <ele>1217.3</ele>
        <time>2021-09-12T10:17:50Z</time>
      </trkpt>
      <trkpt lat="44.08059" lon="6.51222">
        <ele>1217.6</ele>
        <time>2021-09-12T10:17:56Z</time>
      </trkpt>
      <trkpt lat="44.08061" lon="6.5122">
        <ele>1217.9</ele>
        <time>2021-09-12T10:18:01Z</time>
      </trkpt>
      <trkpt lat="44.08064" lon="6.51218">
        <ele>1218.2</ele>
        <time>2021-09-12T10:18:09Z</time>
      </trkpt>
      <trkpt lat="44.08078" lon="6.51203">
        <ele>1219.8</ele>
        <time>2021-09-12T10:18:49Z</time>
      </trkpt>
      <trkpt lat="44.08081" lon="6.51195">
        <ele>1220.3</ele>
        <time>2021-09-12T10:19:02Z</time>
      </trkpt>
      <trkpt lat="44.08082" lon="6.51191">
        <ele>1220.5</ele>
        <time>2021-09-12T10:19:08Z</time>
      </trkpt>
      <trkpt lat="44.08083" lon="6.51187">
        <ele>1220.6</ele>
        <time>2021-09-12T10:19:14Z</time>
      </trkpt>
      <trkpt lat="44.08083" lon="6.51182">
        <ele>1220.8</ele>
        <time>2021-09-12T10:19:21Z</time>
      </trkpt>
      <trkpt lat="44.0808" lon="6.51156">
        <ele>1221.8</ele>
        <time>2021-09-12T10:19:59Z</time>
      </trkpt>
      <trkpt lat="44.08072" lon="6.51116">
        <ele>1223.2</ele>
        <time>2021-09-12T10:20:58Z</time>
      </trkpt>
      <trkpt lat="44.08069" lon="6.51088">
        <ele>1224.4</ele>
        <time>2021-09-12T10:21:38Z</time>
      </trkpt>
      <trkpt lat="44.0807" lon="6.51074">
        <ele>1225.1</ele>
        <time>2021-09-12T10:21:58Z</time>
      </trkpt>
      <trkpt lat="44.08074" lon="6.51063">
        <ele>1225.6</ele>
        <time>2021-09-12T10:22:12Z</time>
      </trkpt>
      <trkpt lat="44.08094" lon="6.51034">
        <ele>1227.9</ele>
        <time>2021-09-12T10:22:42Z</time>
      </trkpt>
      <trkpt lat="44.08098" lon="6.51026">
        <ele>1228.6</ele>
        <time>2021-09-12T10:22:47Z</time>
      </trkpt>
      <trkpt lat="44.081" lon="6.51016">
        <ele>1229.3</ele>
        <time>2021-09-12T10:22:51Z</time>
      </trkpt>
      <trkpt lat="44.08101" lon="6.5101">
        <ele>1229.7</ele>
        <time>2021-09-12T10:22:52Z</time>
      </trkpt>
      <trkpt lat="44.081" lon="6.51001">
        <ele>1230.3</ele>
        <time>2021-09-12T10:22:55Z</time>
      </trkpt>
      <trkpt lat="44.08099" lon="6.50994">
        <ele>1230.7</ele>
        <time>2021-09-12T10:22:56Z</time>
      </trkpt>
      <trkpt lat="44.08097" lon="6.50988">
        <ele>1231.1</ele>
        <time>2021-09-12T10:22:58Z</time>
      </trkpt>
      <trkpt lat="44.08079" lon="6.50957">
        <ele>1233.2</ele>
        <time>2021-09-12T10:23:07Z</time>
      </trkpt>
      <trkpt lat="44.08077" lon="6.50953">
        <ele>1233.4</ele>
        <time>2021-09-12T10:23:08Z</time>
      </trkpt>
      <trkpt lat="44.08077" lon="6.50949">
        <ele>1233.7</ele>
        <time>2021-09-12T10:23:09Z</time>
      </trkpt>
      <trkpt lat="44.08077" lon="6.50944">
        <ele>1234</ele>
        <time>2021-09-12T10:23:10Z</time>
      </trkpt>
      <trkpt lat="44.08078" lon="6.50941">
        <ele>1234.2</ele>
        <time>2021-09-12T10:23:11Z</time>
      </trkpt>
      <trkpt lat="44.08093" lon="6.5091">
        <ele>1236.5</ele>
        <time>2021-09-12T10:23:20Z</time>
      </trkpt>
      <trkpt lat="44.08094" lon="6.50906">
        <ele>1236.8</ele>
        <time>2021-09-12T10:23:21Z</time>
      </trkpt>
      <trkpt lat="44.08094" lon="6.50901">
        <ele>1237.1</ele>
        <time>2021-09-12T10:23:22Z</time>
      </trkpt>
      <trkpt lat="44.08094" lon="6.50897">
        <ele>1237.3</ele>
        <time>2021-09-12T10:23:23Z</time>
      </trkpt>
      <trkpt lat="44.08092" lon="6.50892">
        <ele>1237.7</ele>
        <time>2021-09-12T10:23:24Z</time>
      </trkpt>
      <trkpt lat="44.0809" lon="6.50889">
        <ele>1237.9</ele>
        <time>2021-09-12T10:23:25Z</time>
      </trkpt>
      <trkpt lat="44.08087" lon="6.50885">
        <ele>1238.2</ele>
        <time>2021-09-12T10:23:26Z</time>
      </trkpt>
      <trkpt lat="44.08079" lon="6.50883">
        <ele>1238.9</ele>
        <time>2021-09-12T10:23:27Z</time>
      </trkpt>
      <trkpt lat="44.08077" lon="6.50884">
        <ele>1239</ele>
        <time>2021-09-12T10:23:28Z</time>
      </trkpt>
      <trkpt lat="44.08052" lon="6.50898">
        <ele>1241.3</ele>
        <time>2021-09-12T10:23:34Z</time>
      </trkpt>
      <trkpt lat="44.08045" lon="6.50898">
        <ele>1241.9</ele>
        <time>2021-09-12T10:23:36Z</time>
      </trkpt>
      <trkpt lat="44.08039" lon="6.50897">
        <ele>1242.4</ele>
        <time>2021-09-12T10:23:37Z</time>
      </trkpt>
      <trkpt lat="44.08036" lon="6.50896">
        <ele>1242.7</ele>
        <time>2021-09-12T10:23:39Z</time>
      </trkpt>
      <trkpt lat="44.08007" lon="6.5088">
        <ele>1245.4</ele>
        <time>2021-09-12T10:23:55Z</time>
      </trkpt>
      <trkpt lat="44.07983" lon="6.50871">
        <ele>1247.5</ele>
        <time>2021-09-12T10:24:15Z</time>
      </trkpt>
      <trkpt lat="44.07965" lon="6.50857">
        <ele>1249.2</ele>
        <time>2021-09-12T10:24:39Z</time>
      </trkpt>
      <trkpt lat="44.0796" lon="6.50853">
        <ele>1249.7</ele>
        <time>2021-09-12T10:24:47Z</time>
      </trkpt>
      <trkpt lat="44.07954" lon="6.50851">
        <ele>1250.3</ele>
        <time>2021-09-12T10:24:55Z</time>
      </trkpt>
      <trkpt lat="44.07948" lon="6.50851">
        <ele>1250.9</ele>
        <time>2021-09-12T10:25:02Z</time>
      </trkpt>
      <trkpt lat="44.07943" lon="6.50851">
        <ele>1251.4</ele>
        <time>2021-09-12T10:25:07Z</time>
      </trkpt>
      <trkpt lat="44.07938" lon="6.50851">
        <ele>1251.9</ele>
        <time>2021-09-12T10:25:12Z</time>
      </trkpt>
      <trkpt lat="44.07933" lon="6.5085">
        <ele>1252.5</ele>
        <time>2021-09-12T10:25:17Z</time>
      </trkpt>
      <trkpt lat="44.07929" lon="6.50849">
        <ele>1252.9</ele>
        <time>2021-09-12T10:25:20Z</time>
      </trkpt>
      <trkpt lat="44.07924" lon="6.50847">
        <ele>1253.5</ele>
        <time>2021-09-12T10:25:25Z</time>
      </trkpt>
      <trkpt lat="44.0792" lon="6.50844">
        <ele>1254</ele>
        <time>2021-09-12T10:25:29Z</time>
      </trkpt>
      <trkpt lat="44.07916" lon="6.50841">
        <ele>1254.4</ele>
        <time>2021-09-12T10:25:33Z</time>
      </trkpt>
      <trkpt lat="44.07912" lon="6.50838">
        <ele>1254.9</ele>
        <time>2021-09-12T10:25:35Z</time>
      </trkpt>
      <trkpt lat="44.07908" lon="6.50835">
        <ele>1255.3</ele>
        <time>2021-09-12T10:25:38Z</time>
      </trkpt>
      <trkpt lat="44.07904" lon="6.50833">
        <ele>1255.7</ele>
        <time>2021-09-12T10:25:40Z</time>
      </trkpt>
      <trkpt lat="44.07898" lon="6.50834">
        <ele>1256.2</ele>
        <time>2021-09-12T10:25:43Z</time>
      </trkpt>
      <trkpt lat="44.07893" lon="6.50835">
        <ele>1256.7</ele>
        <time>2021-09-12T10:25:45Z</time>
      </trkpt>
      <trkpt lat="44.07888" lon="6.50837">
        <ele>1257.2</ele>
        <time>2021-09-12T10:25:48Z</time>
      </trkpt>
      <trkpt lat="44.07883" lon="6.5084">
        <ele>1257.7</ele>
        <time>2021-09-12T10:25:50Z</time>
      </trkpt>
      <trkpt lat="44.07875" lon="6.50845">
        <ele>1258.7</ele>
        <time>2021-09-12T10:25:54Z</time>
      </trkpt>
      <trkpt lat="44.07868" lon="6.50851">
        <ele>1259.8</ele>
        <time>2021-09-12T10:25:58Z</time>
      </trkpt>
      <trkpt lat="44.0785" lon="6.50856">
        <ele>1261.3</ele>
        <time>2021-09-12T10:26:08Z</time>
      </trkpt>
      <trkpt lat="44.07844" lon="6.50856">
        <ele>1261.6</ele>
        <time>2021-09-12T10:26:12Z</time>
      </trkpt>
      <trkpt lat="44.07838" lon="6.50856">
        <ele>1261.9</ele>
        <time>2021-09-12T10:26:17Z</time>
      </trkpt>
      <trkpt lat="44.07831" lon="6.50855">
        <ele>1262.3</ele>
        <time>2021-09-12T10:26:26Z</time>
      </trkpt>
      <trkpt lat="44.07824" lon="6.50859">
        <ele>1262.7</ele>
        <time>2021-09-12T10:26:40Z</time>
      </trkpt>
      <trkpt lat="44.07811" lon="6.50866">
        <ele>1264.6</ele>
        <time>2021-09-12T10:27:12Z</time>
      </trkpt>
      <trkpt lat="44.07804" lon="6.50871">
        <ele>1265.9</ele>
        <time>2021-09-12T10:27:30Z</time>
      </trkpt>
      <trkpt lat="44.07798" lon="6.50878">
        <ele>1267.4</ele>
        <time>2021-09-12T10:27:48Z</time>
      </trkpt>
      <trkpt lat="44.07794" lon="6.50887">
        <ele>1268.8</ele>
        <time>2021-09-12T10:28:05Z</time>
      </trkpt>
      <trkpt lat="44.07782" lon="6.50904">
        <ele>1272.7</ele>
        <time>2021-09-12T10:28:44Z</time>
      </trkpt>
      <trkpt lat="44.0777" lon="6.50926">
        <ele>1277.4</ele>
        <time>2021-09-12T10:29:30Z</time>
      </trkpt>
      <trkpt lat="44.07766" lon="6.50933">
        <ele>1279.1</ele>
        <time>2021-09-12T10:29:44Z</time>
      </trkpt>
      <trkpt lat="44.07761" lon="6.50939">
        <ele>1280.7</ele>
        <time>2021-09-12T10:30:00Z</time>
      </trkpt>
      <trkpt lat="44.07755" lon="6.50942">
        <ele>1282.3</ele>
        <time>2021-09-12T10:30:14Z</time>
      </trkpt>
      <trkpt lat="44.07751" lon="6.50942">
        <ele>1282.9</ele>
        <time>2021-09-12T10:30:23Z</time>
      </trkpt>
      <trkpt lat="44.07747" lon="6.50942">
        <ele>1284.1</ele>
        <time>2021-09-12T10:30:32Z</time>
      </trkpt>
      <trkpt lat="44.07743" lon="6.50941">
        <ele>1284.8</ele>
        <time>2021-09-12T10:30:42Z</time>
      </trkpt>
      <trkpt lat="44.0774" lon="6.5094">
        <ele>1285.5</ele>
        <time>2021-09-12T10:30:49Z</time>
      </trkpt>
      <trkpt lat="44.07733" lon="6.50941">
        <ele>1286.7</ele>
        <time>2021-09-12T10:31:05Z</time>
      </trkpt>
      <trkpt lat="44.07727" lon="6.50946">
        <ele>1288.5</ele>
        <time>2021-09-12T10:31:21Z</time>
      </trkpt>
      <trkpt lat="44.07723" lon="6.50952">
        <ele>1289.8</ele>
        <time>2021-09-12T10:31:34Z</time>
      </trkpt>
      <trkpt lat="44.07722" lon="6.50951">
        <ele>1290.7</ele>
        <time>2021-09-12T10:31:37Z</time>
      </trkpt>
      <trkpt lat="44.07718" lon="6.50951">
        <ele>1291.5</ele>
        <time>2021-09-12T10:31:46Z</time>
      </trkpt>
      <trkpt lat="44.07715" lon="6.50951">
        <ele>1291.9</ele>
        <time>2021-09-12T10:31:53Z</time>
      </trkpt>
      <trkpt lat="44.07711" lon="6.50953">
        <ele>1292.4</ele>
        <time>2021-09-12T10:32:03Z</time>
      </trkpt>
      <trkpt lat="44.07708" lon="6.50955">
        <ele>1292.9</ele>
        <time>2021-09-12T10:32:10Z</time>
      </trkpt>
      <trkpt lat="44.07705" lon="6.50958">
        <ele>1293.3</ele>
        <time>2021-09-12T10:32:19Z</time>
      </trkpt>
      <trkpt lat="44.07702" lon="6.50961">
        <ele>1293.8</ele>
        <time>2021-09-12T10:32:27Z</time>
      </trkpt>
      <trkpt lat="44.07697" lon="6.50968">
        <ele>1294.6</ele>
        <time>2021-09-12T10:32:44Z</time>
      </trkpt>
      <trkpt lat="44.07693" lon="6.50975">
        <ele>1295.3</ele>
        <time>2021-09-12T10:32:58Z</time>
      </trkpt>
      <trkpt lat="44.0769" lon="6.50982">
        <ele>1295.9</ele>
        <time>2021-09-12T10:33:12Z</time>
      </trkpt>
      <trkpt lat="44.07689" lon="6.50985">
        <ele>1296.2</ele>
        <time>2021-09-12T10:33:17Z</time>
      </trkpt>
      <trkpt lat="44.07686" lon="6.5099">
        <ele>1296.7</ele>
        <time>2021-09-12T10:33:25Z</time>
      </trkpt>
      <trkpt lat="44.07684" lon="6.50999">
        <ele>1297.5</ele>
        <time>2021-09-12T10:33:36Z</time>
      </trkpt>
      <trkpt lat="44.07683" lon="6.51003">
        <ele>1297.8</ele>
        <time>2021-09-12T10:33:39Z</time>
      </trkpt>
      <trkpt lat="44.07682" lon="6.51016">
        <ele>1298.8</ele>
        <time>2021-09-12T10:33:50Z</time>
      </trkpt>
      <trkpt lat="44.07682" lon="6.51029">
        <ele>1299.8</ele>
        <time>2021-09-12T10:34:01Z</time>
      </trkpt>
      <trkpt lat="44.07682" lon="6.51035">
        <ele>1300.2</ele>
        <time>2021-09-12T10:34:05Z</time>
      </trkpt>
      <trkpt lat="44.07683" lon="6.51041">
        <ele>1300.6</ele>
        <time>2021-09-12T10:34:09Z</time>
      </trkpt>
      <trkpt lat="44.07684" lon="6.51047">
        <ele>1300.9</ele>
        <time>2021-09-12T10:34:13Z</time>
      </trkpt>
      <trkpt lat="44.07686" lon="6.51053">
        <ele>1301.2</ele>
        <time>2021-09-12T10:34:17Z</time>
      </trkpt>
      <trkpt lat="44.07689" lon="6.51058">
        <ele>1301.4</ele>
        <time>2021-09-12T10:34:21Z</time>
      </trkpt>
      <trkpt lat="44.07691" lon="6.51063">
        <ele>1301.6</ele>
        <time>2021-09-12T10:34:24Z</time>
      </trkpt>
      <trkpt lat="44.07696" lon="6.51068">
        <ele>1301.7</ele>
        <time>2021-09-12T10:34:29Z</time>
      </trkpt>
      <trkpt lat="44.077" lon="6.51073">
        <ele>1301.8</ele>
        <time>2021-09-12T10:34:33Z</time>
      </trkpt>
      <trkpt lat="44.07705" lon="6.51078">
        <ele>1301.9</ele>
        <time>2021-09-12T10:34:37Z</time>
      </trkpt>
      <trkpt lat="44.07709" lon="6.51083">
        <ele>1302</ele>
        <time>2021-09-12T10:34:41Z</time>
      </trkpt>
      <trkpt lat="44.07711" lon="6.51086">
        <ele>1302.1</ele>
        <time>2021-09-12T10:34:43Z</time>
      </trkpt>
      <trkpt lat="44.07712" lon="6.5109">
        <ele>1302.1</ele>
        <time>2021-09-12T10:34:45Z</time>
      </trkpt>
      <trkpt lat="44.07713" lon="6.51094">
        <ele>1302.2</ele>
        <time>2021-09-12T10:34:48Z</time>
      </trkpt>
      <trkpt lat="44.07714" lon="6.51098">
        <ele>1302.3</ele>
        <time>2021-09-12T10:34:51Z</time>
      </trkpt>
      <trkpt lat="44.07714" lon="6.51102">
        <ele>1302.4</ele>
        <time>2021-09-12T10:34:53Z</time>
      </trkpt>
      <trkpt lat="44.07713" lon="6.51106">
        <ele>1302.5</ele>
        <time>2021-09-12T10:34:57Z</time>
      </trkpt>
      <trkpt lat="44.07712" lon="6.51114">
        <ele>1302.9</ele>
        <time>2021-09-12T10:35:04Z</time>
      </trkpt>
      <trkpt lat="44.0771" lon="6.51121">
        <ele>1303.3</ele>
        <time>2021-09-12T10:35:12Z</time>
      </trkpt>
      <trkpt lat="44.07707" lon="6.51128">
        <ele>1303.9</ele>
        <time>2021-09-12T10:35:21Z</time>
      </trkpt>
      <trkpt lat="44.07704" lon="6.51134">
        <ele>1304.4</ele>
        <time>2021-09-12T10:35:29Z</time>
      </trkpt>
      <trkpt lat="44.07691" lon="6.51182">
        <ele>1308.1</ele>
        <time>2021-09-12T10:36:14Z</time>
      </trkpt>
      <trkpt lat="44.07685" lon="6.51204">
        <ele>1310.1</ele>
        <time>2021-09-12T10:36:31Z</time>
      </trkpt>
      <trkpt lat="44.07681" lon="6.51212">
        <ele>1311</ele>
        <time>2021-09-12T10:36:37Z</time>
      </trkpt>
      <trkpt lat="44.07676" lon="6.51218">
        <ele>1311.8</ele>
        <time>2021-09-12T10:36:43Z</time>
      </trkpt>
      <trkpt lat="44.0767" lon="6.51223">
        <ele>1312.6</ele>
        <time>2021-09-12T10:36:49Z</time>
      </trkpt>
      <trkpt lat="44.07659" lon="6.5123">
        <ele>1314</ele>
        <time>2021-09-12T10:36:59Z</time>
      </trkpt>
      <trkpt lat="44.07648" lon="6.51235">
        <ele>1315.3</ele>
        <time>2021-09-12T10:37:08Z</time>
      </trkpt>
      <trkpt lat="44.07637" lon="6.5124">
        <ele>1316.5</ele>
        <time>2021-09-12T10:37:18Z</time>
      </trkpt>
      <trkpt lat="44.07634" lon="6.51241">
        <ele>1316.8</ele>
        <time>2021-09-12T10:37:22Z</time>
      </trkpt>
      <trkpt lat="44.0763" lon="6.51241">
        <ele>1317.2</ele>
        <time>2021-09-12T10:37:26Z</time>
      </trkpt>
      <trkpt lat="44.07627" lon="6.51242">
        <ele>1317.6</ele>
        <time>2021-09-12T10:37:31Z</time>
      </trkpt>
      <trkpt lat="44.07623" lon="6.51242">
        <ele>1318</ele>
        <time>2021-09-12T10:37:39Z</time>
      </trkpt>
      <trkpt lat="44.0762" lon="6.51242">
        <ele>1318.4</ele>
        <time>2021-09-12T10:37:46Z</time>
      </trkpt>
      <trkpt lat="44.07617" lon="6.51241">
        <ele>1318.7</ele>
        <time>2021-09-12T10:37:53Z</time>
      </trkpt>
      <trkpt lat="44.07613" lon="6.5124">
        <ele>1319.2</ele>
        <time>2021-09-12T10:38:02Z</time>
      </trkpt>
      <trkpt lat="44.0761" lon="6.51239">
        <ele>1319.6</ele>
        <time>2021-09-12T10:38:09Z</time>
      </trkpt>
      <trkpt lat="44.07603" lon="6.51236">
        <ele>1320.5</ele>
        <time>2021-09-12T10:38:26Z</time>
      </trkpt>
      <trkpt lat="44.07596" lon="6.5123">
        <ele>1321.4</ele>
        <time>2021-09-12T10:38:45Z</time>
      </trkpt>
      <trkpt lat="44.07591" lon="6.51223">
        <ele>1322.3</ele>
        <time>2021-09-12T10:39:01Z</time>
      </trkpt>
      <trkpt lat="44.07589" lon="6.51217">
        <ele>1322.9</ele>
        <time>2021-09-12T10:39:12Z</time>
      </trkpt>
      <trkpt lat="44.07587" lon="6.5121">
        <ele>1323.5</ele>
        <time>2021-09-12T10:39:21Z</time>
      </trkpt>
      <trkpt lat="44.07585" lon="6.51203">
        <ele>1324.2</ele>
        <time>2021-09-12T10:39:28Z</time>
      </trkpt>
      <trkpt lat="44.07584" lon="6.51196">
        <ele>1324.8</ele>
        <time>2021-09-12T10:39:32Z</time>
      </trkpt>
      <trkpt lat="44.07582" lon="6.51189">
        <ele>1325.4</ele>
        <time>2021-09-12T10:39:35Z</time>
      </trkpt>
      <trkpt lat="44.0758" lon="6.51181">
        <ele>1326</ele>
        <time>2021-09-12T10:39:37Z</time>
      </trkpt>
      <trkpt lat="44.07577" lon="6.51174">
        <ele>1326.7</ele>
        <time>2021-09-12T10:39:39Z</time>
      </trkpt>
      <trkpt lat="44.07574" lon="6.51168">
        <ele>1327.3</ele>
        <time>2021-09-12T10:39:41Z</time>
      </trkpt>
      <trkpt lat="44.07571" lon="6.51161">
        <ele>1327.9</ele>
        <time>2021-09-12T10:39:43Z</time>
      </trkpt>
      <trkpt lat="44.07567" lon="6.51155">
        <ele>1328.4</ele>
        <time>2021-09-12T10:39:44Z</time>
      </trkpt>
      <trkpt lat="44.07564" lon="6.5115">
        <ele>1328.9</ele>
        <time>2021-09-12T10:39:45Z</time>
      </trkpt>
      <trkpt lat="44.07561" lon="6.51144">
        <ele>1329.4</ele>
        <time>2021-09-12T10:39:47Z</time>
      </trkpt>
      <trkpt lat="44.07558" lon="6.51138">
        <ele>1329.9</ele>
        <time>2021-09-12T10:39:49Z</time>
      </trkpt>
      <trkpt lat="44.07556" lon="6.51132">
        <ele>1330.4</ele>
        <time>2021-09-12T10:39:50Z</time>
      </trkpt>
      <trkpt lat="44.07555" lon="6.51125">
        <ele>1331</ele>
        <time>2021-09-12T10:39:52Z</time>
      </trkpt>
      <trkpt lat="44.07555" lon="6.51117">
        <ele>1331.6</ele>
        <time>2021-09-12T10:39:56Z</time>
      </trkpt>
      <trkpt lat="44.07554" lon="6.5111">
        <ele>1332.1</ele>
        <time>2021-09-12T10:39:59Z</time>
      </trkpt>
      <trkpt lat="44.07554" lon="6.51102">
        <ele>1332.7</ele>
        <time>2021-09-12T10:40:02Z</time>
      </trkpt>
      <trkpt lat="44.07555" lon="6.51088">
        <ele>1333.8</ele>
        <time>2021-09-12T10:40:06Z</time>
      </trkpt>
      <trkpt lat="44.07553" lon="6.51074">
        <ele>1334.8</ele>
        <time>2021-09-12T10:40:10Z</time>
      </trkpt>
      <trkpt lat="44.07549" lon="6.51061">
        <ele>1335.9</ele>
        <time>2021-09-12T10:40:13Z</time>
      </trkpt>
      <trkpt lat="44.07546" lon="6.51053">
        <ele>1336.6</ele>
        <time>2021-09-12T10:40:15Z</time>
      </trkpt>
      <trkpt lat="44.07542" lon="6.51047">
        <ele>1337.3</ele>
        <time>2021-09-12T10:40:17Z</time>
      </trkpt>
      <trkpt lat="44.07538" lon="6.5104">
        <ele>1338</ele>
        <time>2021-09-12T10:40:18Z</time>
      </trkpt>
      <trkpt lat="44.07531" lon="6.51032">
        <ele>1339</ele>
        <time>2021-09-12T10:40:20Z</time>
      </trkpt>
      <trkpt lat="44.07529" lon="6.5103">
        <ele>1339.2</ele>
        <time>2021-09-12T10:40:21Z</time>
      </trkpt>
      <trkpt lat="44.07526" lon="6.51028">
        <ele>1339.6</ele>
        <time>2021-09-12T10:40:22Z</time>
      </trkpt>
      <trkpt lat="44.07524" lon="6.51027">
        <ele>1339.8</ele>
        <time>2021-09-12T10:40:23Z</time>
      </trkpt>
      <trkpt lat="44.07521" lon="6.51027">
        <ele>1340.1</ele>
        <time>2021-09-12T10:40:24Z</time>
      </trkpt>
      <trkpt lat="44.07518" lon="6.51027">
        <ele>1340.3</ele>
        <time>2021-09-12T10:40:26Z</time>
      </trkpt>
      <trkpt lat="44.07511" lon="6.51026">
        <ele>1341.1</ele>
        <time>2021-09-12T10:40:33Z</time>
      </trkpt>
      <trkpt lat="44.07504" lon="6.51026">
        <ele>1341.8</ele>
        <time>2021-09-12T10:40:43Z</time>
      </trkpt>
      <trkpt lat="44.07497" lon="6.51024">
        <ele>1342.7</ele>
        <time>2021-09-12T10:40:56Z</time>
      </trkpt>
      <trkpt lat="44.0749" lon="6.51023">
        <ele>1343.5</ele>
        <time>2021-09-12T10:41:12Z</time>
      </trkpt>
      <trkpt lat="44.07481" lon="6.51016">
        <ele>1344.6</ele>
        <time>2021-09-12T10:41:36Z</time>
      </trkpt>
      <trkpt lat="44.07471" lon="6.51009">
        <ele>1345.8</ele>
        <time>2021-09-12T10:42:01Z</time>
      </trkpt>
      <trkpt lat="44.07463" lon="6.51">
        <ele>1346.7</ele>
        <time>2021-09-12T10:42:25Z</time>
      </trkpt>
      <trkpt lat="44.07457" lon="6.50996">
        <ele>1347.3</ele>
        <time>2021-09-12T10:42:36Z</time>
      </trkpt>
      <trkpt lat="44.07452" lon="6.50993">
        <ele>1347.7</ele>
        <time>2021-09-12T10:42:42Z</time>
      </trkpt>
      <trkpt lat="44.07445" lon="6.50992">
        <ele>1348.3</ele>
        <time>2021-09-12T10:42:50Z</time>
      </trkpt>
      <trkpt lat="44.0742" lon="6.50991">
        <ele>1350.6</ele>
        <time>2021-09-12T10:43:15Z</time>
      </trkpt>
      <trkpt lat="44.07415" lon="6.50989">
        <ele>1351.1</ele>
        <time>2021-09-12T10:43:20Z</time>
      </trkpt>
      <trkpt lat="44.0741" lon="6.50987">
        <ele>1351.7</ele>
        <time>2021-09-12T10:43:25Z</time>
      </trkpt>
      <trkpt lat="44.07406" lon="6.50985">
        <ele>1352.3</ele>
        <time>2021-09-12T10:43:30Z</time>
      </trkpt>
      <trkpt lat="44.07402" lon="6.50982">
        <ele>1352.8</ele>
        <time>2021-09-12T10:43:34Z</time>
      </trkpt>
      <trkpt lat="44.07389" lon="6.50969">
        <ele>1354.9</ele>
        <time>2021-09-12T10:43:51Z</time>
      </trkpt>
      <trkpt lat="44.07387" lon="6.50966">
        <ele>1355.2</ele>
        <time>2021-09-12T10:43:53Z</time>
      </trkpt>
      <trkpt lat="44.07384" lon="6.50964">
        <ele>1355.7</ele>
        <time>2021-09-12T10:43:58Z</time>
      </trkpt>
      <trkpt lat="44.07381" lon="6.50962">
        <ele>1356.1</ele>
        <time>2021-09-12T10:44:03Z</time>
      </trkpt>
      <trkpt lat="44.07378" lon="6.50961">
        <ele>1356.5</ele>
        <time>2021-09-12T10:44:10Z</time>
      </trkpt>
      <trkpt lat="44.07373" lon="6.50957">
        <ele>1357.2</ele>
        <time>2021-09-12T10:44:23Z</time>
      </trkpt>
      <trkpt lat="44.07369" lon="6.5095">
        <ele>1357.9</ele>
        <time>2021-09-12T10:44:38Z</time>
      </trkpt>
      <trkpt lat="44.07367" lon="6.50943">
        <ele>1358.5</ele>
        <time>2021-09-12T10:44:50Z</time>
      </trkpt>
      <trkpt lat="44.07366" lon="6.50937">
        <ele>1359</ele>
        <time>2021-09-12T10:44:58Z</time>
      </trkpt>
      <trkpt lat="44.07364" lon="6.5093">
        <ele>1359.5</ele>
        <time>2021-09-12T10:45:02Z</time>
      </trkpt>
      <trkpt lat="44.07361" lon="6.50925">
        <ele>1360</ele>
        <time>2021-09-12T10:45:05Z</time>
      </trkpt>
      <trkpt lat="44.07359" lon="6.50922">
        <ele>1360.3</ele>
        <time>2021-09-12T10:45:06Z</time>
      </trkpt>
      <trkpt lat="44.07356" lon="6.50919">
        <ele>1360.6</ele>
        <time>2021-09-12T10:45:08Z</time>
      </trkpt>
      <trkpt lat="44.07354" lon="6.50916">
        <ele>1360.9</ele>
        <time>2021-09-12T10:45:09Z</time>
      </trkpt>
      <trkpt lat="44.07351" lon="6.50912">
        <ele>1361.3</ele>
        <time>2021-09-12T10:45:11Z</time>
      </trkpt>
      <trkpt lat="44.07349" lon="6.50907">
        <ele>1361.8</ele>
        <time>2021-09-12T10:45:12Z</time>
      </trkpt>
      <trkpt lat="44.07348" lon="6.50902">
        <ele>1362.2</ele>
        <time>2021-09-12T10:45:14Z</time>
      </trkpt>
      <trkpt lat="44.07346" lon="6.50896">
        <ele>1362.8</ele>
        <time>2021-09-12T10:45:16Z</time>
      </trkpt>
      <trkpt lat="44.07344" lon="6.50891">
        <ele>1363.3</ele>
        <time>2021-09-12T10:45:17Z</time>
      </trkpt>
      <trkpt lat="44.07339" lon="6.50879">
        <ele>1364.5</ele>
        <time>2021-09-12T10:45:22Z</time>
      </trkpt>
      <trkpt lat="44.07334" lon="6.50867">
        <ele>1365.7</ele>
        <time>2021-09-12T10:45:27Z</time>
      </trkpt>
      <trkpt lat="44.07328" lon="6.50856">
        <ele>1366.8</ele>
        <time>2021-09-12T10:45:34Z</time>
      </trkpt>
      <trkpt lat="44.07313" lon="6.50825">
        <ele>1369.4</ele>
        <time>2021-09-12T10:45:54Z</time>
      </trkpt>
      <trkpt lat="44.07308" lon="6.50814">
        <ele>1370.1</ele>
        <time>2021-09-12T10:46:00Z</time>
      </trkpt>
      <trkpt lat="44.07304" lon="6.50802">
        <ele>1370.9</ele>
        <time>2021-09-12T10:46:07Z</time>
      </trkpt>
      <trkpt lat="44.07301" lon="6.5079">
        <ele>1371.6</ele>
        <time>2021-09-12T10:46:14Z</time>
      </trkpt>
      <trkpt lat="44.07297" lon="6.50771">
        <ele>1372.7</ele>
        <time>2021-09-12T10:46:23Z</time>
      </trkpt>
      <trkpt lat="44.07293" lon="6.50762">
        <ele>1373.4</ele>
        <time>2021-09-12T10:46:28Z</time>
      </trkpt>
      <trkpt lat="44.0729" lon="6.50753">
        <ele>1374.1</ele>
        <time>2021-09-12T10:46:33Z</time>
      </trkpt>
      <trkpt lat="44.07286" lon="6.50744">
        <ele>1374.8</ele>
        <time>2021-09-12T10:46:39Z</time>
      </trkpt>
      <trkpt lat="44.07285" lon="6.50739">
        <ele>1375.2</ele>
        <time>2021-09-12T10:46:42Z</time>
      </trkpt>
      <trkpt lat="44.07284" lon="6.50735">
        <ele>1375.4</ele>
        <time>2021-09-12T10:46:45Z</time>
      </trkpt>
      <trkpt lat="44.07282" lon="6.5073">
        <ele>1375.8</ele>
        <time>2021-09-12T10:46:48Z</time>
      </trkpt>
      <trkpt lat="44.07281" lon="6.50725">
        <ele>1376.1</ele>
        <time>2021-09-12T10:46:50Z</time>
      </trkpt>
      <trkpt lat="44.07277" lon="6.50715">
        <ele>1376.8</ele>
        <time>2021-09-12T10:46:55Z</time>
      </trkpt>
      <trkpt lat="44.07273" lon="6.50706">
        <ele>1377.3</ele>
        <time>2021-09-12T10:46:59Z</time>
      </trkpt>
      <trkpt lat="44.07268" lon="6.50697">
        <ele>1377.8</ele>
        <time>2021-09-12T10:47:04Z</time>
      </trkpt>
      <trkpt lat="44.07259" lon="6.50678">
        <ele>1378.7</ele>
        <time>2021-09-12T10:47:14Z</time>
      </trkpt>
      <trkpt lat="44.07258" lon="6.50674">
        <ele>1378.8</ele>
        <time>2021-09-12T10:47:16Z</time>
      </trkpt>
      <trkpt lat="44.07257" lon="6.50671">
        <ele>1378.9</ele>
        <time>2021-09-12T10:47:18Z</time>
      </trkpt>
      <trkpt lat="44.07256" lon="6.50668">
        <ele>1379</ele>
        <time>2021-09-12T10:47:20Z</time>
      </trkpt>
      <trkpt lat="44.07256" lon="6.50664">
        <ele>1379.2</ele>
        <time>2021-09-12T10:47:22Z</time>
      </trkpt>
      <trkpt lat="44.07256" lon="6.5066">
        <ele>1379.3</ele>
        <time>2021-09-12T10:47:24Z</time>
      </trkpt>
      <trkpt lat="44.07256" lon="6.50657">
        <ele>1379.4</ele>
        <time>2021-09-12T10:47:26Z</time>
      </trkpt>
      <trkpt lat="44.07256" lon="6.50642">
        <ele>1379.9</ele>
        <time>2021-09-12T10:47:32Z</time>
      </trkpt>
      <trkpt lat="44.07254" lon="6.50627">
        <ele>1380.4</ele>
        <time>2021-09-12T10:47:36Z</time>
      </trkpt>
      <trkpt lat="44.07252" lon="6.50612">
        <ele>1381</ele>
        <time>2021-09-12T10:47:40Z</time>
      </trkpt>
      <trkpt lat="44.07248" lon="6.50591">
        <ele>1382.2</ele>
        <time>2021-09-12T10:47:44Z</time>
      </trkpt>
      <trkpt lat="44.07248" lon="6.50583">
        <ele>1382.3</ele>
        <time>2021-09-12T10:47:46Z</time>
      </trkpt>
      <trkpt lat="44.07247" lon="6.50574">
        <ele>1382.3</ele>
        <time>2021-09-12T10:47:47Z</time>
      </trkpt>
      <trkpt lat="44.07248" lon="6.50566">
        <ele>1382.3</ele>
        <time>2021-09-12T10:47:49Z</time>
      </trkpt>
      <trkpt lat="44.07248" lon="6.50557">
        <ele>1382.6</ele>
        <time>2021-09-12T10:47:50Z</time>
      </trkpt>
      <trkpt lat="44.07246" lon="6.5055">
        <ele>1383.4</ele>
        <time>2021-09-12T10:47:51Z</time>
      </trkpt>
      <trkpt lat="44.07243" lon="6.50543">
        <ele>1384.2</ele>
        <time>2021-09-12T10:47:52Z</time>
      </trkpt>
      <trkpt lat="44.07239" lon="6.50537">
        <ele>1385</ele>
        <time>2021-09-12T10:47:53Z</time>
      </trkpt>
      <trkpt lat="44.07233" lon="6.50527">
        <ele>1386.2</ele>
        <time>2021-09-12T10:47:56Z</time>
      </trkpt>
      <trkpt lat="44.07228" lon="6.50517">
        <ele>1387.4</ele>
        <time>2021-09-12T10:47:59Z</time>
      </trkpt>
      <trkpt lat="44.07224" lon="6.50505">
        <ele>1388.5</ele>
        <time>2021-09-12T10:48:03Z</time>
      </trkpt>
      <trkpt lat="44.07219" lon="6.50485">
        <ele>1390.4</ele>
        <time>2021-09-12T10:48:10Z</time>
      </trkpt>
      <trkpt lat="44.07215" lon="6.50475">
        <ele>1391.4</ele>
        <time>2021-09-12T10:48:14Z</time>
      </trkpt>
      <trkpt lat="44.0721" lon="6.50466">
        <ele>1392.4</ele>
        <time>2021-09-12T10:48:19Z</time>
      </trkpt>
      <trkpt lat="44.07204" lon="6.50457">
        <ele>1393.6</ele>
        <time>2021-09-12T10:48:27Z</time>
      </trkpt>
      <trkpt lat="44.07202" lon="6.50452">
        <ele>1394.1</ele>
        <time>2021-09-12T10:48:33Z</time>
      </trkpt>
      <trkpt lat="44.072" lon="6.50447">
        <ele>1394.6</ele>
        <time>2021-09-12T10:48:42Z</time>
      </trkpt>
      <trkpt lat="44.07198" lon="6.50442">
        <ele>1395.2</ele>
        <time>2021-09-12T10:48:52Z</time>
      </trkpt>
      <trkpt lat="44.07197" lon="6.50437">
        <ele>1395.7</ele>
        <time>2021-09-12T10:49:00Z</time>
      </trkpt>
      <trkpt lat="44.07196" lon="6.50431">
        <ele>1396.2</ele>
        <time>2021-09-12T10:49:09Z</time>
      </trkpt>
      <trkpt lat="44.07196" lon="6.50425">
        <ele>1396.8</ele>
        <time>2021-09-12T10:49:14Z</time>
      </trkpt>
      <trkpt lat="44.07198" lon="6.50416">
        <ele>1397.7</ele>
        <time>2021-09-12T10:49:19Z</time>
      </trkpt>
      <trkpt lat="44.07198" lon="6.50406">
        <ele>1398.6</ele>
        <time>2021-09-12T10:49:23Z</time>
      </trkpt>
      <trkpt lat="44.07197" lon="6.504">
        <ele>1399.2</ele>
        <time>2021-09-12T10:49:24Z</time>
      </trkpt>
      <trkpt lat="44.07197" lon="6.50397">
        <ele>1399.5</ele>
        <time>2021-09-12T10:49:25Z</time>
      </trkpt>
      <trkpt lat="44.07194" lon="6.5039">
        <ele>1400.2</ele>
        <time>2021-09-12T10:49:26Z</time>
      </trkpt>
      <trkpt lat="44.07191" lon="6.50384">
        <ele>1400.8</ele>
        <time>2021-09-12T10:49:27Z</time>
      </trkpt>
      <trkpt lat="44.07188" lon="6.50378">
        <ele>1401.4</ele>
        <time>2021-09-12T10:49:28Z</time>
      </trkpt>
      <trkpt lat="44.07184" lon="6.50373">
        <ele>1402</ele>
        <time>2021-09-12T10:49:29Z</time>
      </trkpt>
      <trkpt lat="44.07175" lon="6.50361">
        <ele>1403.5</ele>
        <time>2021-09-12T10:49:31Z</time>
      </trkpt>
      <trkpt lat="44.07171" lon="6.50353">
        <ele>1404.5</ele>
        <time>2021-09-12T10:49:33Z</time>
      </trkpt>
      <trkpt lat="44.07167" lon="6.50344">
        <ele>1405.6</ele>
        <time>2021-09-12T10:49:34Z</time>
      </trkpt>
      <trkpt lat="44.07163" lon="6.50335">
        <ele>1406.7</ele>
        <time>2021-09-12T10:49:37Z</time>
      </trkpt>
      <trkpt lat="44.07159" lon="6.50326">
        <ele>1407.9</ele>
        <time>2021-09-12T10:49:39Z</time>
      </trkpt>
      <trkpt lat="44.07155" lon="6.50319">
        <ele>1408.7</ele>
        <time>2021-09-12T10:49:43Z</time>
      </trkpt>
      <trkpt lat="44.07154" lon="6.50311">
        <ele>1409.5</ele>
        <time>2021-09-12T10:49:47Z</time>
      </trkpt>
      <trkpt lat="44.07155" lon="6.50303">
        <ele>1410.3</ele>
        <time>2021-09-12T10:49:54Z</time>
      </trkpt>
      <trkpt lat="44.07157" lon="6.50286">
        <ele>1411.7</ele>
        <time>2021-09-12T10:50:10Z</time>
      </trkpt>
      <trkpt lat="44.07157" lon="6.50279">
        <ele>1412.3</ele>
        <time>2021-09-12T10:50:14Z</time>
      </trkpt>
      <trkpt lat="44.07157" lon="6.50272">
        <ele>1412.9</ele>
        <time>2021-09-12T10:50:17Z</time>
      </trkpt>
      <trkpt lat="44.07156" lon="6.50266">
        <ele>1413.4</ele>
        <time>2021-09-12T10:50:18Z</time>
      </trkpt>
      <trkpt lat="44.07155" lon="6.50259">
        <ele>1413.9</ele>
        <time>2021-09-12T10:50:20Z</time>
      </trkpt>
      <trkpt lat="44.07154" lon="6.50253">
        <ele>1414.4</ele>
        <time>2021-09-12T10:50:21Z</time>
      </trkpt>
      <trkpt lat="44.07152" lon="6.50246">
        <ele>1415.1</ele>
        <time>2021-09-12T10:50:22Z</time>
      </trkpt>
      <trkpt lat="44.07144" lon="6.50214">
        <ele>1417.8</ele>
        <time>2021-09-12T10:50:28Z</time>
      </trkpt>
      <trkpt lat="44.07136" lon="6.50183">
        <ele>1420.4</ele>
        <time>2021-09-12T10:50:34Z</time>
      </trkpt>
      <trkpt lat="44.0713" lon="6.50154">
        <ele>1423</ele>
        <time>2021-09-12T10:50:39Z</time>
      </trkpt>
      <trkpt lat="44.07127" lon="6.50145">
        <ele>1423.9</ele>
        <time>2021-09-12T10:50:41Z</time>
      </trkpt>
      <trkpt lat="44.07125" lon="6.50136">
        <ele>1424.7</ele>
        <time>2021-09-12T10:50:43Z</time>
      </trkpt>
      <trkpt lat="44.07122" lon="6.50128">
        <ele>1425.5</ele>
        <time>2021-09-12T10:50:46Z</time>
      </trkpt>
      <trkpt lat="44.07121" lon="6.50118">
        <ele>1426.3</ele>
        <time>2021-09-12T10:50:50Z</time>
      </trkpt>
      <trkpt lat="44.0712" lon="6.50109">
        <ele>1427.2</ele>
        <time>2021-09-12T10:50:55Z</time>
      </trkpt>
      <trkpt lat="44.07119" lon="6.501">
        <ele>1428</ele>
        <time>2021-09-12T10:51:03Z</time>
      </trkpt>
      <trkpt lat="44.07118" lon="6.50084">
        <ele>1429.4</ele>
        <time>2021-09-12T10:51:20Z</time>
      </trkpt>
      <trkpt lat="44.07116" lon="6.50068">
        <ele>1430.9</ele>
        <time>2021-09-12T10:51:39Z</time>
      </trkpt>
      <trkpt lat="44.07115" lon="6.50056">
        <ele>1432</ele>
        <time>2021-09-12T10:51:51Z</time>
      </trkpt>
      <trkpt lat="44.07113" lon="6.50043">
        <ele>1433.1</ele>
        <time>2021-09-12T10:52:04Z</time>
      </trkpt>
      <trkpt lat="44.0711" lon="6.50031">
        <ele>1434.2</ele>
        <time>2021-09-12T10:52:16Z</time>
      </trkpt>
      <trkpt lat="44.07107" lon="6.50023">
        <ele>1435</ele>
        <time>2021-09-12T10:52:25Z</time>
      </trkpt>
      <trkpt lat="44.07105" lon="6.50014">
        <ele>1435.8</ele>
        <time>2021-09-12T10:52:34Z</time>
      </trkpt>
      <trkpt lat="44.07103" lon="6.50005">
        <ele>1436.7</ele>
        <time>2021-09-12T10:52:44Z</time>
      </trkpt>
      <trkpt lat="44.07102" lon="6.49996">
        <ele>1437.6</ele>
        <time>2021-09-12T10:52:53Z</time>
      </trkpt>
      <trkpt lat="44.07101" lon="6.49989">
        <ele>1438.3</ele>
        <time>2021-09-12T10:53:00Z</time>
      </trkpt>
      <trkpt lat="44.07101" lon="6.4998">
        <ele>1439.2</ele>
        <time>2021-09-12T10:53:09Z</time>
      </trkpt>
      <trkpt lat="44.07101" lon="6.49972">
        <ele>1440</ele>
        <time>2021-09-12T10:53:16Z</time>
      </trkpt>
      <trkpt lat="44.07102" lon="6.49964">
        <ele>1440.8</ele>
        <time>2021-09-12T10:53:23Z</time>
      </trkpt>
      <trkpt lat="44.07101" lon="6.4995">
        <ele>1442.2</ele>
        <time>2021-09-12T10:53:30Z</time>
      </trkpt>
      <trkpt lat="44.071" lon="6.49936">
        <ele>1443.5</ele>
        <time>2021-09-12T10:53:35Z</time>
      </trkpt>
      <trkpt lat="44.07098" lon="6.49923">
        <ele>1444.8</ele>
        <time>2021-09-12T10:53:40Z</time>
      </trkpt>
      <trkpt lat="44.07097" lon="6.4991">
        <ele>1446.1</ele>
        <time>2021-09-12T10:53:43Z</time>
      </trkpt>
      <trkpt lat="44.07096" lon="6.49898">
        <ele>1447.3</ele>
        <time>2021-09-12T10:53:46Z</time>
      </trkpt>
      <trkpt lat="44.07094" lon="6.49886">
        <ele>1448.4</ele>
        <time>2021-09-12T10:53:49Z</time>
      </trkpt>
      <trkpt lat="44.07091" lon="6.49874">
        <ele>1449.6</ele>
        <time>2021-09-12T10:53:52Z</time>
      </trkpt>
      <trkpt lat="44.0709" lon="6.49869">
        <ele>1450.1</ele>
        <time>2021-09-12T10:53:53Z</time>
      </trkpt>
      <trkpt lat="44.07088" lon="6.4986">
        <ele>1451</ele>
        <time>2021-09-12T10:53:54Z</time>
      </trkpt>
      <trkpt lat="44.07085" lon="6.49853">
        <ele>1451.7</ele>
        <time>2021-09-12T10:53:56Z</time>
      </trkpt>
      <trkpt lat="44.07083" lon="6.49845">
        <ele>1452.5</ele>
        <time>2021-09-12T10:53:57Z</time>
      </trkpt>
      <trkpt lat="44.0708" lon="6.49838">
        <ele>1453.3</ele>
        <time>2021-09-12T10:53:59Z</time>
      </trkpt>
      <trkpt lat="44.07076" lon="6.49831">
        <ele>1454.3</ele>
        <time>2021-09-12T10:54:01Z</time>
      </trkpt>
      <trkpt lat="44.07073" lon="6.49824">
        <ele>1455.1</ele>
        <time>2021-09-12T10:54:04Z</time>
      </trkpt>
      <trkpt lat="44.07067" lon="6.49814">
        <ele>1456.4</ele>
        <time>2021-09-12T10:54:07Z</time>
      </trkpt>
      <trkpt lat="44.07062" lon="6.49804">
        <ele>1457.5</ele>
        <time>2021-09-12T10:54:12Z</time>
      </trkpt>
      <trkpt lat="44.07057" lon="6.49793">
        <ele>1458.7</ele>
        <time>2021-09-12T10:54:17Z</time>
      </trkpt>
      <trkpt lat="44.07053" lon="6.49782">
        <ele>1459.7</ele>
        <time>2021-09-12T10:54:24Z</time>
      </trkpt>
      <trkpt lat="44.0705" lon="6.49773">
        <ele>1460.6</ele>
        <time>2021-09-12T10:54:31Z</time>
      </trkpt>
      <trkpt lat="44.07046" lon="6.49764">
        <ele>1461.5</ele>
        <time>2021-09-12T10:54:38Z</time>
      </trkpt>
      <trkpt lat="44.07044" lon="6.49756">
        <ele>1462.1</ele>
        <time>2021-09-12T10:54:43Z</time>
      </trkpt>
      <trkpt lat="44.07041" lon="6.49746">
        <ele>1462.9</ele>
        <time>2021-09-12T10:54:46Z</time>
      </trkpt>
      <trkpt lat="44.07039" lon="6.49738">
        <ele>1463.5</ele>
        <time>2021-09-12T10:54:48Z</time>
      </trkpt>
      <trkpt lat="44.07037" lon="6.49734">
        <ele>1463.9</ele>
        <time>2021-09-12T10:54:49Z</time>
      </trkpt>
      <trkpt lat="44.07033" lon="6.49728">
        <ele>1464.4</ele>
        <time>2021-09-12T10:54:50Z</time>
      </trkpt>
      <trkpt lat="44.0703" lon="6.49725">
        <ele>1464.8</ele>
        <time>2021-09-12T10:54:51Z</time>
      </trkpt>
      <trkpt lat="44.07015" lon="6.49717">
        <ele>1466.6</ele>
        <time>2021-09-12T10:54:54Z</time>
      </trkpt>
      <trkpt lat="44.06994" lon="6.49705">
        <ele>1469.6</ele>
        <time>2021-09-12T10:54:57Z</time>
      </trkpt>
      <trkpt lat="44.06988" lon="6.49702">
        <ele>1470.5</ele>
        <time>2021-09-12T10:54:59Z</time>
      </trkpt>
      <trkpt lat="44.06981" lon="6.49699">
        <ele>1471.5</ele>
        <time>2021-09-12T10:55:00Z</time>
      </trkpt>
      <trkpt lat="44.06975" lon="6.49696">
        <ele>1472.4</ele>
        <time>2021-09-12T10:55:02Z</time>
      </trkpt>
      <trkpt lat="44.06968" lon="6.49693">
        <ele>1473.4</ele>
        <time>2021-09-12T10:55:04Z</time>
      </trkpt>
      <trkpt lat="44.06966" lon="6.49692">
        <ele>1473.6</ele>
        <time>2021-09-12T10:55:05Z</time>
      </trkpt>
      <trkpt lat="44.06964" lon="6.49691">
        <ele>1473.9</ele>
        <time>2021-09-12T10:55:06Z</time>
      </trkpt>
      <trkpt lat="44.06962" lon="6.49689">
        <ele>1474.2</ele>
        <time>2021-09-12T10:55:08Z</time>
      </trkpt>
      <trkpt lat="44.0696" lon="6.49687">
        <ele>1474.5</ele>
        <time>2021-09-12T10:55:12Z</time>
      </trkpt>
      <trkpt lat="44.06959" lon="6.49684">
        <ele>1474.8</ele>
        <time>2021-09-12T10:55:16Z</time>
      </trkpt>
      <trkpt lat="44.06958" lon="6.49681">
        <ele>1475</ele>
        <time>2021-09-12T10:55:18Z</time>
      </trkpt>
      <trkpt lat="44.06954" lon="6.49667">
        <ele>1476.1</ele>
        <time>2021-09-12T10:55:23Z</time>
      </trkpt>
      <trkpt lat="44.06952" lon="6.49661">
        <ele>1476.6</ele>
        <time>2021-09-12T10:55:25Z</time>
      </trkpt>
      <trkpt lat="44.0695" lon="6.49656">
        <ele>1477.1</ele>
        <time>2021-09-12T10:55:26Z</time>
      </trkpt>
      <trkpt lat="44.06947" lon="6.49651">
        <ele>1477.6</ele>
        <time>2021-09-12T10:55:27Z</time>
      </trkpt>
      <trkpt lat="44.06944" lon="6.49646">
        <ele>1478.1</ele>
        <time>2021-09-12T10:55:28Z</time>
      </trkpt>
      <trkpt lat="44.06937" lon="6.49642">
        <ele>1479</ele>
        <time>2021-09-12T10:55:29Z</time>
      </trkpt>
      <trkpt lat="44.06929" lon="6.49641">
        <ele>1479.9</ele>
        <time>2021-09-12T10:55:30Z</time>
      </trkpt>
      <trkpt lat="44.06906" lon="6.4964">
        <ele>1482.6</ele>
        <time>2021-09-12T10:55:35Z</time>
      </trkpt>
      <trkpt lat="44.06901" lon="6.4964">
        <ele>1483.1</ele>
        <time>2021-09-12T10:55:36Z</time>
      </trkpt>
      <trkpt lat="44.06897" lon="6.49639">
        <ele>1483.5</ele>
        <time>2021-09-12T10:55:37Z</time>
      </trkpt>
      <trkpt lat="44.06892" lon="6.49637">
        <ele>1484</ele>
        <time>2021-09-12T10:55:38Z</time>
      </trkpt>
      <trkpt lat="44.06888" lon="6.49633">
        <ele>1484.4</ele>
        <time>2021-09-12T10:55:40Z</time>
      </trkpt>
      <trkpt lat="44.06884" lon="6.4963">
        <ele>1484.8</ele>
        <time>2021-09-12T10:55:43Z</time>
      </trkpt>
      <trkpt lat="44.06881" lon="6.49625">
        <ele>1484.8</ele>
        <time>2021-09-12T10:55:48Z</time>
      </trkpt>
      <trkpt lat="44.06879" lon="6.49621">
        <ele>1484.7</ele>
        <time>2021-09-12T10:55:52Z</time>
      </trkpt>
      <trkpt lat="44.06877" lon="6.49618">
        <ele>1484.6</ele>
        <time>2021-09-12T10:55:54Z</time>
      </trkpt>
      <trkpt lat="44.06873" lon="6.4961">
        <ele>1484.5</ele>
        <time>2021-09-12T10:55:58Z</time>
      </trkpt>
      <trkpt lat="44.06869" lon="6.49603">
        <ele>1484.4</ele>
        <time>2021-09-12T10:56:00Z</time>
      </trkpt>
      <trkpt lat="44.06866" lon="6.49595">
        <ele>1484.3</ele>
        <time>2021-09-12T10:56:02Z</time>
      </trkpt>
      <trkpt lat="44.06863" lon="6.49589">
        <ele>1484.2</ele>
        <time>2021-09-12T10:56:03Z</time>
      </trkpt>
      <trkpt lat="44.06855" lon="6.49581">
        <ele>1484</ele>
        <time>2021-09-12T10:56:05Z</time>
      </trkpt>
      <trkpt lat="44.0685" lon="6.49578">
        <ele>1483.8</ele>
        <time>2021-09-12T10:56:06Z</time>
      </trkpt>
      <trkpt lat="44.0683" lon="6.49566">
        <ele>1482.8</ele>
        <time>2021-09-12T10:56:10Z</time>
      </trkpt>
      <trkpt lat="44.06809" lon="6.49551">
        <ele>1481.4</ele>
        <time>2021-09-12T10:56:14Z</time>
      </trkpt>
      <trkpt lat="44.06795" lon="6.49539">
        <ele>1480.7</ele>
        <time>2021-09-12T10:56:18Z</time>
      </trkpt>
      <trkpt lat="44.0679" lon="6.49534">
        <ele>1480.6</ele>
        <time>2021-09-12T10:56:19Z</time>
      </trkpt>
      <trkpt lat="44.06786" lon="6.49529">
        <ele>1480.5</ele>
        <time>2021-09-12T10:56:20Z</time>
      </trkpt>
      <trkpt lat="44.06782" lon="6.49522">
        <ele>1480.3</ele>
        <time>2021-09-12T10:56:23Z</time>
      </trkpt>
      <trkpt lat="44.06778" lon="6.49515">
        <ele>1480.1</ele>
        <time>2021-09-12T10:56:25Z</time>
      </trkpt>
      <trkpt lat="44.06775" lon="6.49508">
        <ele>1479.9</ele>
        <time>2021-09-12T10:56:27Z</time>
      </trkpt>
      <trkpt lat="44.06771" lon="6.49501">
        <ele>1479.7</ele>
        <time>2021-09-12T10:56:29Z</time>
      </trkpt>
      <trkpt lat="44.06767" lon="6.49494">
        <ele>1479.5</ele>
        <time>2021-09-12T10:56:31Z</time>
      </trkpt>
      <trkpt lat="44.06763" lon="6.49488">
        <ele>1479.3</ele>
        <time>2021-09-12T10:56:33Z</time>
      </trkpt>
      <trkpt lat="44.0676" lon="6.49485">
        <ele>1479.2</ele>
        <time>2021-09-12T10:56:34Z</time>
      </trkpt>
      <trkpt lat="44.06753" lon="6.4948">
        <ele>1479</ele>
        <time>2021-09-12T10:56:35Z</time>
      </trkpt>
      <trkpt lat="44.06746" lon="6.49477">
        <ele>1479.7</ele>
        <time>2021-09-12T10:56:36Z</time>
      </trkpt>
      <trkpt lat="44.06742" lon="6.49476">
        <ele>1480.2</ele>
        <time>2021-09-12T10:56:37Z</time>
      </trkpt>
      <trkpt lat="44.06735" lon="6.49477">
        <ele>1481.1</ele>
        <time>2021-09-12T10:56:38Z</time>
      </trkpt>
      <trkpt lat="44.06728" lon="6.49476">
        <ele>1482</ele>
        <time>2021-09-12T10:56:40Z</time>
      </trkpt>
      <trkpt lat="44.06721" lon="6.49476">
        <ele>1482.8</ele>
        <time>2021-09-12T10:56:42Z</time>
      </trkpt>
      <trkpt lat="44.06713" lon="6.49475">
        <ele>1483.7</ele>
        <time>2021-09-12T10:56:44Z</time>
      </trkpt>
      <trkpt lat="44.06697" lon="6.49471">
        <ele>1485.5</ele>
        <time>2021-09-12T10:56:50Z</time>
      </trkpt>
      <trkpt lat="44.0669" lon="6.49471">
        <ele>1486.2</ele>
        <time>2021-09-12T10:56:53Z</time>
      </trkpt>
      <trkpt lat="44.06684" lon="6.49472">
        <ele>1486.7</ele>
        <time>2021-09-12T10:56:57Z</time>
      </trkpt>
      <trkpt lat="44.06677" lon="6.49473">
        <ele>1487.4</ele>
        <time>2021-09-12T10:57:04Z</time>
      </trkpt>
      <trkpt lat="44.06671" lon="6.49476">
        <ele>1488</ele>
        <time>2021-09-12T10:57:12Z</time>
      </trkpt>
      <trkpt lat="44.06665" lon="6.49478">
        <ele>1488.6</ele>
        <time>2021-09-12T10:57:23Z</time>
      </trkpt>
      <trkpt lat="44.06659" lon="6.4948">
        <ele>1489.3</ele>
        <time>2021-09-12T10:57:34Z</time>
      </trkpt>
      <trkpt lat="44.06652" lon="6.4952">
        <ele>1497</ele>
        <time>2021-09-12T10:58:27Z</time>
      </trkpt>
      <trkpt lat="44.06646" lon="6.4956">
        <ele>1503.3</ele>
        <time>2021-09-12T10:59:20Z</time>
      </trkpt>
      <trkpt lat="44.06614" lon="6.49591">
        <ele>1508.5</ele>
        <time>2021-09-12T11:00:31Z</time>
      </trkpt>
      <trkpt lat="44.0659" lon="6.49576">
        <ele>1508.8</ele>
        <time>2021-09-12T11:01:18Z</time>
      </trkpt>
      <trkpt lat="44.06566" lon="6.49561">
        <ele>1508.9</ele>
        <time>2021-09-12T11:02:04Z</time>
      </trkpt>
      <trkpt lat="44.06541" lon="6.49529">
        <ele>1505.7</ele>
        <time>2021-09-12T11:02:45Z</time>
      </trkpt>
      <trkpt lat="44.06512" lon="6.49517">
        <ele>1503.5</ele>
        <time>2021-09-12T11:03:06Z</time>
      </trkpt>
      <trkpt lat="44.0651" lon="6.49521">
        <ele>1503.5</ele>
        <time>2021-09-12T11:03:08Z</time>
      </trkpt>
      <trkpt lat="44.06507" lon="6.49525">
        <ele>1503.6</ele>
        <time>2021-09-12T11:03:10Z</time>
      </trkpt>
      <trkpt lat="44.06505" lon="6.4953">
        <ele>1503.7</ele>
        <time>2021-09-12T11:03:11Z</time>
      </trkpt>
      <trkpt lat="44.06504" lon="6.49535">
        <ele>1503.7</ele>
        <time>2021-09-12T11:03:12Z</time>
      </trkpt>
      <trkpt lat="44.065" lon="6.4955">
        <ele>1503.7</ele>
        <time>2021-09-12T11:03:15Z</time>
      </trkpt>
      <trkpt lat="44.06495" lon="6.49572">
        <ele>1503.4</ele>
        <time>2021-09-12T11:03:19Z</time>
      </trkpt>
      <trkpt lat="44.06493" lon="6.49575">
        <ele>1503.3</ele>
        <time>2021-09-12T11:03:20Z</time>
      </trkpt>
      <trkpt lat="44.06489" lon="6.49581">
        <ele>1503.1</ele>
        <time>2021-09-12T11:03:21Z</time>
      </trkpt>
      <trkpt lat="44.06487" lon="6.49583">
        <ele>1503.1</ele>
        <time>2021-09-12T11:03:22Z</time>
      </trkpt>
      <trkpt lat="44.06484" lon="6.49584">
        <ele>1503</ele>
        <time>2021-09-12T11:03:23Z</time>
      </trkpt>
      <trkpt lat="44.06475" lon="6.49586">
        <ele>1502.7</ele>
        <time>2021-09-12T11:03:25Z</time>
      </trkpt>
      <trkpt lat="44.06454" lon="6.4959">
        <ele>1502</ele>
        <time>2021-09-12T11:03:30Z</time>
      </trkpt>
      <trkpt lat="44.06446" lon="6.49593">
        <ele>1501.8</ele>
        <time>2021-09-12T11:03:32Z</time>
      </trkpt>
      <trkpt lat="44.06439" lon="6.49596">
        <ele>1501.6</ele>
        <time>2021-09-12T11:03:33Z</time>
      </trkpt>
      <trkpt lat="44.06433" lon="6.496">
        <ele>1501.4</ele>
        <time>2021-09-12T11:03:34Z</time>
      </trkpt>
      <trkpt lat="44.06426" lon="6.49605">
        <ele>1501.1</ele>
        <time>2021-09-12T11:03:36Z</time>
      </trkpt>
      <trkpt lat="44.06395" lon="6.49635">
        <ele>1498.4</ele>
        <time>2021-09-12T11:03:41Z</time>
      </trkpt>
      <trkpt lat="44.06391" lon="6.4964">
        <ele>1498</ele>
        <time>2021-09-12T11:03:42Z</time>
      </trkpt>
      <trkpt lat="44.06387" lon="6.49645">
        <ele>1497.7</ele>
        <time>2021-09-12T11:03:43Z</time>
      </trkpt>
      <trkpt lat="44.06384" lon="6.49651">
        <ele>1497.4</ele>
        <time>2021-09-12T11:03:44Z</time>
      </trkpt>
      <trkpt lat="44.06377" lon="6.49663">
        <ele>1496.9</ele>
        <time>2021-09-12T11:03:45Z</time>
      </trkpt>
      <trkpt lat="44.06366" lon="6.49686">
        <ele>1496.3</ele>
        <time>2021-09-12T11:03:48Z</time>
      </trkpt>
      <trkpt lat="44.06364" lon="6.4969">
        <ele>1496.2</ele>
        <time>2021-09-12T11:03:49Z</time>
      </trkpt>
      <trkpt lat="44.06361" lon="6.49695">
        <ele>1496.1</ele>
        <time>2021-09-12T11:03:50Z</time>
      </trkpt>
      <trkpt lat="44.06358" lon="6.49699">
        <ele>1496.1</ele>
        <time>2021-09-12T11:03:51Z</time>
      </trkpt>
      <trkpt lat="44.06355" lon="6.49702">
        <ele>1496</ele>
        <time>2021-09-12T11:03:52Z</time>
      </trkpt>
      <trkpt lat="44.06348" lon="6.49708">
        <ele>1496</ele>
        <time>2021-09-12T11:03:53Z</time>
      </trkpt>
      <trkpt lat="44.06344" lon="6.49711">
        <ele>1496</ele>
        <time>2021-09-12T11:03:54Z</time>
      </trkpt>
      <trkpt lat="44.06341" lon="6.49715">
        <ele>1496</ele>
        <time>2021-09-12T11:03:55Z</time>
      </trkpt>
      <trkpt lat="44.06338" lon="6.49719">
        <ele>1496</ele>
        <time>2021-09-12T11:03:56Z</time>
      </trkpt>
      <trkpt lat="44.06335" lon="6.49723">
        <ele>1496</ele>
        <time>2021-09-12T11:03:57Z</time>
      </trkpt>
      <trkpt lat="44.06333" lon="6.49728">
        <ele>1496</ele>
        <time>2021-09-12T11:03:58Z</time>
      </trkpt>
      <trkpt lat="44.06331" lon="6.49733">
        <ele>1496</ele>
        <time>2021-09-12T11:03:59Z</time>
      </trkpt>
      <trkpt lat="44.06329" lon="6.4974">
        <ele>1496</ele>
        <time>2021-09-12T11:04:00Z</time>
      </trkpt>
      <trkpt lat="44.06327" lon="6.49747">
        <ele>1496</ele>
        <time>2021-09-12T11:04:01Z</time>
      </trkpt>
      <trkpt lat="44.06325" lon="6.49754">
        <ele>1496</ele>
        <time>2021-09-12T11:04:03Z</time>
      </trkpt>
      <trkpt lat="44.06322" lon="6.4976">
        <ele>1495.9</ele>
        <time>2021-09-12T11:04:04Z</time>
      </trkpt>
      <trkpt lat="44.06318" lon="6.49771">
        <ele>1495.8</ele>
        <time>2021-09-12T11:04:06Z</time>
      </trkpt>
      <trkpt lat="44.06314" lon="6.49782">
        <ele>1495.7</ele>
        <time>2021-09-12T11:04:08Z</time>
      </trkpt>
      <trkpt lat="44.0631" lon="6.49793">
        <ele>1495.5</ele>
        <time>2021-09-12T11:04:11Z</time>
      </trkpt>
      <trkpt lat="44.06306" lon="6.49803">
        <ele>1495.3</ele>
        <time>2021-09-12T11:04:13Z</time>
      </trkpt>
      <trkpt lat="44.06303" lon="6.49816">
        <ele>1494.9</ele>
        <time>2021-09-12T11:04:16Z</time>
      </trkpt>
      <trkpt lat="44.063" lon="6.49828">
        <ele>1494.5</ele>
        <time>2021-09-12T11:04:19Z</time>
      </trkpt>
      <trkpt lat="44.06299" lon="6.49841">
        <ele>1494.1</ele>
        <time>2021-09-12T11:04:22Z</time>
      </trkpt>
      <trkpt lat="44.06297" lon="6.49854">
        <ele>1493.6</ele>
        <time>2021-09-12T11:04:25Z</time>
      </trkpt>
      <trkpt lat="44.06296" lon="6.49868">
        <ele>1493.1</ele>
        <time>2021-09-12T11:04:28Z</time>
      </trkpt>
      <trkpt lat="44.06294" lon="6.4989">
        <ele>1492.4</ele>
        <time>2021-09-12T11:04:34Z</time>
      </trkpt>
      <trkpt lat="44.06294" lon="6.49897">
        <ele>1492.2</ele>
        <time>2021-09-12T11:04:35Z</time>
      </trkpt>
      <trkpt lat="44.06295" lon="6.49904">
        <ele>1492</ele>
        <time>2021-09-12T11:04:37Z</time>
      </trkpt>
      <trkpt lat="44.06296" lon="6.4991">
        <ele>1491.8</ele>
        <time>2021-09-12T11:04:38Z</time>
      </trkpt>
      <trkpt lat="44.063" lon="6.49926">
        <ele>1491.6</ele>
        <time>2021-09-12T11:04:42Z</time>
      </trkpt>
      <trkpt lat="44.06301" lon="6.49932">
        <ele>1491.6</ele>
        <time>2021-09-12T11:04:44Z</time>
      </trkpt>
      <trkpt lat="44.06301" lon="6.49938">
        <ele>1491.7</ele>
        <time>2021-09-12T11:04:46Z</time>
      </trkpt>
      <trkpt lat="44.063" lon="6.49944">
        <ele>1491.9</ele>
        <time>2021-09-12T11:04:48Z</time>
      </trkpt>
      <trkpt lat="44.06295" lon="6.49957">
        <ele>1492.3</ele>
        <time>2021-09-12T11:04:53Z</time>
      </trkpt>
      <trkpt lat="44.06289" lon="6.49968">
        <ele>1492.5</ele>
        <time>2021-09-12T11:04:58Z</time>
      </trkpt>
      <trkpt lat="44.06282" lon="6.49978">
        <ele>1492.3</ele>
        <time>2021-09-12T11:05:04Z</time>
      </trkpt>
      <trkpt lat="44.06277" lon="6.49983">
        <ele>1492</ele>
        <time>2021-09-12T11:05:07Z</time>
      </trkpt>
      <trkpt lat="44.06272" lon="6.49987">
        <ele>1491.5</ele>
        <time>2021-09-12T11:05:10Z</time>
      </trkpt>
      <trkpt lat="44.06267" lon="6.49991">
        <ele>1491</ele>
        <time>2021-09-12T11:05:12Z</time>
      </trkpt>
      <trkpt lat="44.06262" lon="6.49994">
        <ele>1490.3</ele>
        <time>2021-09-12T11:05:14Z</time>
      </trkpt>
      <trkpt lat="44.06255" lon="6.49996">
        <ele>1489.3</ele>
        <time>2021-09-12T11:05:16Z</time>
      </trkpt>
      <trkpt lat="44.06249" lon="6.49996">
        <ele>1488.4</ele>
        <time>2021-09-12T11:05:18Z</time>
      </trkpt>
      <trkpt lat="44.06243" lon="6.49995">
        <ele>1487.4</ele>
        <time>2021-09-12T11:05:19Z</time>
      </trkpt>
      <trkpt lat="44.06234" lon="6.49995">
        <ele>1485.8</ele>
        <time>2021-09-12T11:05:21Z</time>
      </trkpt>
      <trkpt lat="44.06225" lon="6.49997">
        <ele>1484.2</ele>
        <time>2021-09-12T11:05:22Z</time>
      </trkpt>
      <trkpt lat="44.06217" lon="6.50002">
        <ele>1482.8</ele>
        <time>2021-09-12T11:05:23Z</time>
      </trkpt>
      <trkpt lat="44.06208" lon="6.50009">
        <ele>1481.2</ele>
        <time>2021-09-12T11:05:25Z</time>
      </trkpt>
      <trkpt lat="44.06199" lon="6.50018">
        <ele>1479.7</ele>
        <time>2021-09-12T11:05:26Z</time>
      </trkpt>
      <trkpt lat="44.06191" lon="6.50029">
        <ele>1478.7</ele>
        <time>2021-09-12T11:05:28Z</time>
      </trkpt>
      <trkpt lat="44.0617" lon="6.50065">
        <ele>1476.2</ele>
        <time>2021-09-12T11:05:33Z</time>
      </trkpt>
      <trkpt lat="44.06153" lon="6.50096">
        <ele>1475.2</ele>
        <time>2021-09-12T11:05:37Z</time>
      </trkpt>
      <trkpt lat="44.06149" lon="6.50105">
        <ele>1475.1</ele>
        <time>2021-09-12T11:05:38Z</time>
      </trkpt>
      <trkpt lat="44.06145" lon="6.50114">
        <ele>1475</ele>
        <time>2021-09-12T11:05:39Z</time>
      </trkpt>
      <trkpt lat="44.06141" lon="6.50123">
        <ele>1475</ele>
        <time>2021-09-12T11:05:40Z</time>
      </trkpt>
      <trkpt lat="44.06137" lon="6.50131">
        <ele>1475</ele>
        <time>2021-09-12T11:05:42Z</time>
      </trkpt>
      <trkpt lat="44.06129" lon="6.50144">
        <ele>1474.9</ele>
        <time>2021-09-12T11:05:44Z</time>
      </trkpt>
      <trkpt lat="44.06121" lon="6.50157">
        <ele>1474.8</ele>
        <time>2021-09-12T11:05:46Z</time>
      </trkpt>
      <trkpt lat="44.06112" lon="6.5017">
        <ele>1474.7</ele>
        <time>2021-09-12T11:05:48Z</time>
      </trkpt>
      <trkpt lat="44.06108" lon="6.50175">
        <ele>1474.6</ele>
        <time>2021-09-12T11:05:49Z</time>
      </trkpt>
      <trkpt lat="44.06104" lon="6.50181">
        <ele>1474.6</ele>
        <time>2021-09-12T11:05:50Z</time>
      </trkpt>
      <trkpt lat="44.061" lon="6.50186">
        <ele>1474.5</ele>
        <time>2021-09-12T11:05:51Z</time>
      </trkpt>
      <trkpt lat="44.06096" lon="6.50192">
        <ele>1474.5</ele>
        <time>2021-09-12T11:05:53Z</time>
      </trkpt>
      <trkpt lat="44.06092" lon="6.502">
        <ele>1474.4</ele>
        <time>2021-09-12T11:05:54Z</time>
      </trkpt>
      <trkpt lat="44.06088" lon="6.50208">
        <ele>1474.4</ele>
        <time>2021-09-12T11:05:56Z</time>
      </trkpt>
      <trkpt lat="44.06085" lon="6.50216">
        <ele>1474.4</ele>
        <time>2021-09-12T11:05:57Z</time>
      </trkpt>
      <trkpt lat="44.06082" lon="6.50224">
        <ele>1474.4</ele>
        <time>2021-09-12T11:05:59Z</time>
      </trkpt>
      <trkpt lat="44.06073" lon="6.50258">
        <ele>1474.6</ele>
        <time>2021-09-12T11:06:05Z</time>
      </trkpt>
      <trkpt lat="44.06068" lon="6.50272">
        <ele>1474.8</ele>
        <time>2021-09-12T11:06:07Z</time>
      </trkpt>
      <trkpt lat="44.06063" lon="6.50286">
        <ele>1475</ele>
        <time>2021-09-12T11:06:10Z</time>
      </trkpt>
      <trkpt lat="44.06057" lon="6.50299">
        <ele>1475.3</ele>
        <time>2021-09-12T11:06:13Z</time>
      </trkpt>
      <trkpt lat="44.06044" lon="6.50329">
        <ele>1475.6</ele>
        <time>2021-09-12T11:06:19Z</time>
      </trkpt>
      <trkpt lat="44.06033" lon="6.50352">
        <ele>1475.8</ele>
        <time>2021-09-12T11:06:24Z</time>
      </trkpt>
      <trkpt lat="44.06029" lon="6.50359">
        <ele>1475.8</ele>
        <time>2021-09-12T11:06:26Z</time>
      </trkpt>
      <trkpt lat="44.06026" lon="6.50366">
        <ele>1475.8</ele>
        <time>2021-09-12T11:06:27Z</time>
      </trkpt>
      <trkpt lat="44.06022" lon="6.50372">
        <ele>1475.8</ele>
        <time>2021-09-12T11:06:29Z</time>
      </trkpt>
      <trkpt lat="44.06017" lon="6.50378">
        <ele>1475.8</ele>
        <time>2021-09-12T11:06:31Z</time>
      </trkpt>
      <trkpt lat="44.06013" lon="6.50383">
        <ele>1475.8</ele>
        <time>2021-09-12T11:06:32Z</time>
      </trkpt>
      <trkpt lat="44.06008" lon="6.50388">
        <ele>1475.8</ele>
        <time>2021-09-12T11:06:33Z</time>
      </trkpt>
      <trkpt lat="44.06007" lon="6.5039">
        <ele>1475.8</ele>
        <time>2021-09-12T11:06:34Z</time>
      </trkpt>
      <trkpt lat="44.05996" lon="6.50402">
        <ele>1475.7</ele>
        <time>2021-09-12T11:06:37Z</time>
      </trkpt>
      <trkpt lat="44.05989" lon="6.5041">
        <ele>1475.6</ele>
        <time>2021-09-12T11:06:38Z</time>
      </trkpt>
      <trkpt lat="44.05983" lon="6.5042">
        <ele>1475.5</ele>
        <time>2021-09-12T11:06:40Z</time>
      </trkpt>
      <trkpt lat="44.05977" lon="6.50429">
        <ele>1475.5</ele>
        <time>2021-09-12T11:06:41Z</time>
      </trkpt>
      <trkpt lat="44.05971" lon="6.50439">
        <ele>1475.5</ele>
        <time>2021-09-12T11:06:43Z</time>
      </trkpt>
      <trkpt lat="44.05968" lon="6.50445">
        <ele>1475.5</ele>
        <time>2021-09-12T11:06:44Z</time>
      </trkpt>
      <trkpt lat="44.05962" lon="6.50457">
        <ele>1475.5</ele>
        <time>2021-09-12T11:06:45Z</time>
      </trkpt>
      <trkpt lat="44.0596" lon="6.50464">
        <ele>1475.6</ele>
        <time>2021-09-12T11:06:46Z</time>
      </trkpt>
      <trkpt lat="44.05957" lon="6.50471">
        <ele>1475.6</ele>
        <time>2021-09-12T11:06:47Z</time>
      </trkpt>
      <trkpt lat="44.05956" lon="6.50478">
        <ele>1475.6</ele>
        <time>2021-09-12T11:06:48Z</time>
      </trkpt>
      <trkpt lat="44.05953" lon="6.50489">
        <ele>1475.6</ele>
        <time>2021-09-12T11:06:50Z</time>
      </trkpt>
      <trkpt lat="44.05951" lon="6.50499">
        <ele>1475.7</ele>
        <time>2021-09-12T11:06:52Z</time>
      </trkpt>
      <trkpt lat="44.05948" lon="6.5051">
        <ele>1475.8</ele>
        <time>2021-09-12T11:06:55Z</time>
      </trkpt>
      <trkpt lat="44.05944" lon="6.50517">
        <ele>1475.9</ele>
        <time>2021-09-12T11:06:57Z</time>
      </trkpt>
      <trkpt lat="44.0594" lon="6.50524">
        <ele>1476</ele>
        <time>2021-09-12T11:07:00Z</time>
      </trkpt>
      <trkpt lat="44.05936" lon="6.50531">
        <ele>1476.1</ele>
        <time>2021-09-12T11:07:04Z</time>
      </trkpt>
      <trkpt lat="44.05931" lon="6.50537">
        <ele>1476.3</ele>
        <time>2021-09-12T11:07:08Z</time>
      </trkpt>
      <trkpt lat="44.05926" lon="6.50544">
        <ele>1476.4</ele>
        <time>2021-09-12T11:07:13Z</time>
      </trkpt>
      <trkpt lat="44.05922" lon="6.50549">
        <ele>1476.6</ele>
        <time>2021-09-12T11:07:17Z</time>
      </trkpt>
      <trkpt lat="44.05918" lon="6.50554">
        <ele>1476.8</ele>
        <time>2021-09-12T11:07:20Z</time>
      </trkpt>
      <trkpt lat="44.05914" lon="6.50559">
        <ele>1477</ele>
        <time>2021-09-12T11:07:24Z</time>
      </trkpt>
      <trkpt lat="44.05909" lon="6.50563">
        <ele>1477.2</ele>
        <time>2021-09-12T11:07:27Z</time>
      </trkpt>
      <trkpt lat="44.059" lon="6.50572">
        <ele>1477.5</ele>
        <time>2021-09-12T11:07:32Z</time>
      </trkpt>
      <trkpt lat="44.05896" lon="6.50578">
        <ele>1477.7</ele>
        <time>2021-09-12T11:07:34Z</time>
      </trkpt>
      <trkpt lat="44.05893" lon="6.50583">
        <ele>1477.8</ele>
        <time>2021-09-12T11:07:36Z</time>
      </trkpt>
      <trkpt lat="44.0589" lon="6.5059">
        <ele>1477.9</ele>
        <time>2021-09-12T11:07:38Z</time>
      </trkpt>
      <trkpt lat="44.05888" lon="6.50596">
        <ele>1478</ele>
        <time>2021-09-12T11:07:39Z</time>
      </trkpt>
      <trkpt lat="44.05878" lon="6.50627">
        <ele>1478</ele>
        <time>2021-09-12T11:07:46Z</time>
      </trkpt>
      <trkpt lat="44.05871" lon="6.50653">
        <ele>1477.8</ele>
        <time>2021-09-12T11:07:50Z</time>
      </trkpt>
      <trkpt lat="44.0587" lon="6.50659">
        <ele>1477.7</ele>
        <time>2021-09-12T11:07:51Z</time>
      </trkpt>
      <trkpt lat="44.05869" lon="6.50664">
        <ele>1477.7</ele>
        <time>2021-09-12T11:07:52Z</time>
      </trkpt>
      <trkpt lat="44.05867" lon="6.50669">
        <ele>1477.6</ele>
        <time>2021-09-12T11:07:53Z</time>
      </trkpt>
      <trkpt lat="44.05865" lon="6.50673">
        <ele>1477.5</ele>
        <time>2021-09-12T11:07:54Z</time>
      </trkpt>
      <trkpt lat="44.05862" lon="6.50682">
        <ele>1477.2</ele>
        <time>2021-09-12T11:07:55Z</time>
      </trkpt>
      <trkpt lat="44.0586" lon="6.50691">
        <ele>1476.8</ele>
        <time>2021-09-12T11:07:56Z</time>
      </trkpt>
      <trkpt lat="44.05858" lon="6.507">
        <ele>1476.3</ele>
        <time>2021-09-12T11:07:57Z</time>
      </trkpt>
      <trkpt lat="44.05856" lon="6.5071">
        <ele>1475.7</ele>
        <time>2021-09-12T11:07:58Z</time>
      </trkpt>
      <trkpt lat="44.05854" lon="6.50727">
        <ele>1474.8</ele>
        <time>2021-09-12T11:08:00Z</time>
      </trkpt>
      <trkpt lat="44.0585" lon="6.50744">
        <ele>1474</ele>
        <time>2021-09-12T11:08:02Z</time>
      </trkpt>
      <trkpt lat="44.05845" lon="6.5076">
        <ele>1473.5</ele>
        <time>2021-09-12T11:08:04Z</time>
      </trkpt>
      <trkpt lat="44.05842" lon="6.50768">
        <ele>1473.2</ele>
        <time>2021-09-12T11:08:05Z</time>
      </trkpt>
      <trkpt lat="44.0584" lon="6.50777">
        <ele>1472.6</ele>
        <time>2021-09-12T11:08:06Z</time>
      </trkpt>
      <trkpt lat="44.05837" lon="6.50785">
        <ele>1472</ele>
        <time>2021-09-12T11:08:07Z</time>
      </trkpt>
      <trkpt lat="44.05836" lon="6.50794">
        <ele>1471.2</ele>
        <time>2021-09-12T11:08:08Z</time>
      </trkpt>
      <trkpt lat="44.05833" lon="6.50805">
        <ele>1470.2</ele>
        <time>2021-09-12T11:08:09Z</time>
      </trkpt>
      <trkpt lat="44.05829" lon="6.50817">
        <ele>1468.9</ele>
        <time>2021-09-12T11:08:11Z</time>
      </trkpt>
      <trkpt lat="44.05824" lon="6.50827">
        <ele>1467.7</ele>
        <time>2021-09-12T11:08:12Z</time>
      </trkpt>
      <trkpt lat="44.05815" lon="6.50852">
        <ele>1465.2</ele>
        <time>2021-09-12T11:08:15Z</time>
      </trkpt>
      <trkpt lat="44.05805" lon="6.50877">
        <ele>1463.3</ele>
        <time>2021-09-12T11:08:18Z</time>
      </trkpt>
      <trkpt lat="44.05803" lon="6.50887">
        <ele>1462.8</ele>
        <time>2021-09-12T11:08:19Z</time>
      </trkpt>
      <trkpt lat="44.05803" lon="6.50898">
        <ele>1462.3</ele>
        <time>2021-09-12T11:08:20Z</time>
      </trkpt>
      <trkpt lat="44.05807" lon="6.50909">
        <ele>1461.7</ele>
        <time>2021-09-12T11:08:21Z</time>
      </trkpt>
      <trkpt lat="44.0581" lon="6.50915">
        <ele>1461.3</ele>
        <time>2021-09-12T11:08:22Z</time>
      </trkpt>
      <trkpt lat="44.05813" lon="6.50922">
        <ele>1460.7</ele>
        <time>2021-09-12T11:08:23Z</time>
      </trkpt>
      <trkpt lat="44.05816" lon="6.50928">
        <ele>1460.3</ele>
        <time>2021-09-12T11:08:24Z</time>
      </trkpt>
      <trkpt lat="44.05824" lon="6.50939">
        <ele>1459.3</ele>
        <time>2021-09-12T11:08:26Z</time>
      </trkpt>
      <trkpt lat="44.05833" lon="6.50948">
        <ele>1458.3</ele>
        <time>2021-09-12T11:08:28Z</time>
      </trkpt>
      <trkpt lat="44.05843" lon="6.50957">
        <ele>1457.4</ele>
        <time>2021-09-12T11:08:30Z</time>
      </trkpt>
      <trkpt lat="44.05853" lon="6.50965">
        <ele>1456.4</ele>
        <time>2021-09-12T11:08:32Z</time>
      </trkpt>
      <trkpt lat="44.05864" lon="6.50972">
        <ele>1455.2</ele>
        <time>2021-09-12T11:08:35Z</time>
      </trkpt>
      <trkpt lat="44.05875" lon="6.50978">
        <ele>1453.9</ele>
        <time>2021-09-12T11:08:38Z</time>
      </trkpt>
      <trkpt lat="44.05887" lon="6.50986">
        <ele>1452.2</ele>
        <time>2021-09-12T11:08:41Z</time>
      </trkpt>
      <trkpt lat="44.05892" lon="6.50989">
        <ele>1451.5</ele>
        <time>2021-09-12T11:08:43Z</time>
      </trkpt>
      <trkpt lat="44.05897" lon="6.50993">
        <ele>1450.7</ele>
        <time>2021-09-12T11:08:44Z</time>
      </trkpt>
      <trkpt lat="44.05901" lon="6.50996">
        <ele>1450.1</ele>
        <time>2021-09-12T11:08:46Z</time>
      </trkpt>
      <trkpt lat="44.05906" lon="6.51001">
        <ele>1449.3</ele>
        <time>2021-09-12T11:08:47Z</time>
      </trkpt>
      <trkpt lat="44.05915" lon="6.51008">
        <ele>1448</ele>
        <time>2021-09-12T11:08:50Z</time>
      </trkpt>
      <trkpt lat="44.05925" lon="6.51016">
        <ele>1446.7</ele>
        <time>2021-09-12T11:08:53Z</time>
      </trkpt>
      <trkpt lat="44.05934" lon="6.51024">
        <ele>1445.4</ele>
        <time>2021-09-12T11:08:56Z</time>
      </trkpt>
      <trkpt lat="44.05942" lon="6.51032">
        <ele>1444.2</ele>
        <time>2021-09-12T11:08:58Z</time>
      </trkpt>
      <trkpt lat="44.05962" lon="6.51051">
        <ele>1441.8</ele>
        <time>2021-09-12T11:09:03Z</time>
      </trkpt>
      <trkpt lat="44.05985" lon="6.51073">
        <ele>1439.4</ele>
        <time>2021-09-12T11:09:08Z</time>
      </trkpt>
      <trkpt lat="44.05996" lon="6.51084">
        <ele>1438.8</ele>
        <time>2021-09-12T11:09:11Z</time>
      </trkpt>
      <trkpt lat="44.06007" lon="6.51096">
        <ele>1438.3</ele>
        <time>2021-09-12T11:09:13Z</time>
      </trkpt>
      <trkpt lat="44.06017" lon="6.51109">
        <ele>1437.9</ele>
        <time>2021-09-12T11:09:16Z</time>
      </trkpt>
      <trkpt lat="44.06025" lon="6.5112">
        <ele>1437.6</ele>
        <time>2021-09-12T11:09:18Z</time>
      </trkpt>
      <trkpt lat="44.06032" lon="6.51131">
        <ele>1437.5</ele>
        <time>2021-09-12T11:09:20Z</time>
      </trkpt>
      <trkpt lat="44.06039" lon="6.51143">
        <ele>1437.6</ele>
        <time>2021-09-12T11:09:22Z</time>
      </trkpt>
      <trkpt lat="44.06045" lon="6.51155">
        <ele>1437.8</ele>
        <time>2021-09-12T11:09:25Z</time>
      </trkpt>
      <trkpt lat="44.0605" lon="6.51165">
        <ele>1438.1</ele>
        <time>2021-09-12T11:09:27Z</time>
      </trkpt>
      <trkpt lat="44.06055" lon="6.51175">
        <ele>1438.5</ele>
        <time>2021-09-12T11:09:30Z</time>
      </trkpt>
      <trkpt lat="44.06059" lon="6.51185">
        <ele>1438.9</ele>
        <time>2021-09-12T11:09:33Z</time>
      </trkpt>
      <trkpt lat="44.0606" lon="6.51187">
        <ele>1439</ele>
        <time>2021-09-12T11:09:34Z</time>
      </trkpt>
      <trkpt lat="44.0606" lon="6.51189">
        <ele>1439.1</ele>
        <time>2021-09-12T11:09:35Z</time>
      </trkpt>
      <trkpt lat="44.0606" lon="6.51191">
        <ele>1439.1</ele>
        <time>2021-09-12T11:09:36Z</time>
      </trkpt>
      <trkpt lat="44.06058" lon="6.51193">
        <ele>1439.3</ele>
        <time>2021-09-12T11:09:37Z</time>
      </trkpt>
      <trkpt lat="44.06052" lon="6.51196">
        <ele>1439.6</ele>
        <time>2021-09-12T11:09:39Z</time>
      </trkpt>
      <trkpt lat="44.0605" lon="6.51196">
        <ele>1439.7</ele>
        <time>2021-09-12T11:09:40Z</time>
      </trkpt>
      <trkpt lat="44.06047" lon="6.51194">
        <ele>1439.9</ele>
        <time>2021-09-12T11:09:41Z</time>
      </trkpt>
      <trkpt lat="44.06042" lon="6.5119">
        <ele>1440.3</ele>
        <time>2021-09-12T11:09:42Z</time>
      </trkpt>
      <trkpt lat="44.06031" lon="6.51182">
        <ele>1441.3</ele>
        <time>2021-09-12T11:09:45Z</time>
      </trkpt>
      <trkpt lat="44.06023" lon="6.51177">
        <ele>1442</ele>
        <time>2021-09-12T11:09:47Z</time>
      </trkpt>
      <trkpt lat="44.06014" lon="6.51172">
        <ele>1442.9</ele>
        <time>2021-09-12T11:09:48Z</time>
      </trkpt>
      <trkpt lat="44.06006" lon="6.51167">
        <ele>1443.6</ele>
        <time>2021-09-12T11:09:50Z</time>
      </trkpt>
      <trkpt lat="44.05997" lon="6.51163">
        <ele>1444.5</ele>
        <time>2021-09-12T11:09:51Z</time>
      </trkpt>
      <trkpt lat="44.05993" lon="6.51161">
        <ele>1444.8</ele>
        <time>2021-09-12T11:09:52Z</time>
      </trkpt>
      <trkpt lat="44.05985" lon="6.51158">
        <ele>1445.6</ele>
        <time>2021-09-12T11:09:53Z</time>
      </trkpt>
      <trkpt lat="44.05976" lon="6.51157">
        <ele>1446.4</ele>
        <time>2021-09-12T11:09:54Z</time>
      </trkpt>
      <trkpt lat="44.05972" lon="6.51157">
        <ele>1446.8</ele>
        <time>2021-09-12T11:09:55Z</time>
      </trkpt>
      <trkpt lat="44.05944" lon="6.51159">
        <ele>1449.5</ele>
        <time>2021-09-12T11:09:59Z</time>
      </trkpt>
      <trkpt lat="44.05919" lon="6.51164">
        <ele>1452.1</ele>
        <time>2021-09-12T11:10:03Z</time>
      </trkpt>
      <trkpt lat="44.0591" lon="6.51166">
        <ele>1453.2</ele>
        <time>2021-09-12T11:10:05Z</time>
      </trkpt>
      <trkpt lat="44.05902" lon="6.5117">
        <ele>1454.3</ele>
        <time>2021-09-12T11:10:07Z</time>
      </trkpt>
      <trkpt lat="44.05894" lon="6.51176">
        <ele>1455.4</ele>
        <time>2021-09-12T11:10:09Z</time>
      </trkpt>
      <trkpt lat="44.05889" lon="6.5118">
        <ele>1456.1</ele>
        <time>2021-09-12T11:10:10Z</time>
      </trkpt>
      <trkpt lat="44.05884" lon="6.51185">
        <ele>1456.9</ele>
        <time>2021-09-12T11:10:12Z</time>
      </trkpt>
      <trkpt lat="44.05879" lon="6.51191">
        <ele>1457.7</ele>
        <time>2021-09-12T11:10:14Z</time>
      </trkpt>
      <trkpt lat="44.05875" lon="6.51197">
        <ele>1458.4</ele>
        <time>2021-09-12T11:10:16Z</time>
      </trkpt>
      <trkpt lat="44.05872" lon="6.51202">
        <ele>1458.9</ele>
        <time>2021-09-12T11:10:18Z</time>
      </trkpt>
      <trkpt lat="44.05869" lon="6.51208">
        <ele>1459.4</ele>
        <time>2021-09-12T11:10:21Z</time>
      </trkpt>
      <trkpt lat="44.05867" lon="6.51213">
        <ele>1459.9</ele>
        <time>2021-09-12T11:10:23Z</time>
      </trkpt>
      <trkpt lat="44.05866" lon="6.5122">
        <ele>1460.5</ele>
        <time>2021-09-12T11:10:26Z</time>
      </trkpt>
      <trkpt lat="44.05861" lon="6.51246">
        <ele>1462.4</ele>
        <time>2021-09-12T11:10:40Z</time>
      </trkpt>
      <trkpt lat="44.0586" lon="6.51259">
        <ele>1463.3</ele>
        <time>2021-09-12T11:10:48Z</time>
      </trkpt>
      <trkpt lat="44.05859" lon="6.51272">
        <ele>1464.1</ele>
        <time>2021-09-12T11:10:57Z</time>
      </trkpt>
      <trkpt lat="44.05857" lon="6.51285">
        <ele>1464.9</ele>
        <time>2021-09-12T11:11:09Z</time>
      </trkpt>
      <trkpt lat="44.05854" lon="6.51297">
        <ele>1465.6</ele>
        <time>2021-09-12T11:11:23Z</time>
      </trkpt>
      <trkpt lat="44.05849" lon="6.51321">
        <ele>1466.7</ele>
        <time>2021-09-12T11:11:56Z</time>
      </trkpt>
      <trkpt lat="44.05839" lon="6.51359">
        <ele>1467.8</ele>
        <time>2021-09-12T11:12:58Z</time>
      </trkpt>
      <trkpt lat="44.05828" lon="6.514">
        <ele>1468.8</ele>
        <time>2021-09-12T11:14:06Z</time>
      </trkpt>
      <trkpt lat="44.05826" lon="6.51411">
        <ele>1469.3</ele>
        <time>2021-09-12T11:14:21Z</time>
      </trkpt>
      <trkpt lat="44.05824" lon="6.51422">
        <ele>1469.9</ele>
        <time>2021-09-12T11:14:34Z</time>
      </trkpt>
      <trkpt lat="44.05821" lon="6.51432">
        <ele>1470.6</ele>
        <time>2021-09-12T11:14:44Z</time>
      </trkpt>
      <trkpt lat="44.0582" lon="6.5144">
        <ele>1471.2</ele>
        <time>2021-09-12T11:14:50Z</time>
      </trkpt>
      <trkpt lat="44.05816" lon="6.51447">
        <ele>1471.8</ele>
        <time>2021-09-12T11:14:55Z</time>
      </trkpt>
      <trkpt lat="44.05812" lon="6.51453">
        <ele>1472.4</ele>
        <time>2021-09-12T11:15:00Z</time>
      </trkpt>
      <trkpt lat="44.0581" lon="6.51455">
        <ele>1472.6</ele>
        <time>2021-09-12T11:15:02Z</time>
      </trkpt>
      <trkpt lat="44.05807" lon="6.51456">
        <ele>1472.9</ele>
        <time>2021-09-12T11:15:03Z</time>
      </trkpt>
      <trkpt lat="44.05802" lon="6.51458">
        <ele>1473.4</ele>
        <time>2021-09-12T11:15:05Z</time>
      </trkpt>
      <trkpt lat="44.05799" lon="6.51458">
        <ele>1473.6</ele>
        <time>2021-09-12T11:15:06Z</time>
      </trkpt>
      <trkpt lat="44.05796" lon="6.51457">
        <ele>1473.9</ele>
        <time>2021-09-12T11:15:07Z</time>
      </trkpt>
      <trkpt lat="44.05793" lon="6.51456">
        <ele>1474.1</ele>
        <time>2021-09-12T11:15:08Z</time>
      </trkpt>
      <trkpt lat="44.05788" lon="6.51454">
        <ele>1474.5</ele>
        <time>2021-09-12T11:15:09Z</time>
      </trkpt>
      <trkpt lat="44.05779" lon="6.51451">
        <ele>1475.1</ele>
        <time>2021-09-12T11:15:11Z</time>
      </trkpt>
      <trkpt lat="44.05771" lon="6.51446">
        <ele>1475.5</ele>
        <time>2021-09-12T11:15:13Z</time>
      </trkpt>
      <trkpt lat="44.05763" lon="6.5144">
        <ele>1476.1</ele>
        <time>2021-09-12T11:15:14Z</time>
      </trkpt>
      <trkpt lat="44.0576" lon="6.51435">
        <ele>1476.4</ele>
        <time>2021-09-12T11:15:15Z</time>
      </trkpt>
      <trkpt lat="44.05755" lon="6.51432">
        <ele>1476.8</ele>
        <time>2021-09-12T11:15:16Z</time>
      </trkpt>
      <trkpt lat="44.05753" lon="6.5143">
        <ele>1477</ele>
        <time>2021-09-12T11:15:17Z</time>
      </trkpt>
      <trkpt lat="44.05746" lon="6.51428">
        <ele>1477.6</ele>
        <time>2021-09-12T11:15:18Z</time>
      </trkpt>
      <trkpt lat="44.05739" lon="6.51424">
        <ele>1478.3</ele>
        <time>2021-09-12T11:15:19Z</time>
      </trkpt>
      <trkpt lat="44.05733" lon="6.51419">
        <ele>1478.9</ele>
        <time>2021-09-12T11:15:21Z</time>
      </trkpt>
      <trkpt lat="44.05717" lon="6.51407">
        <ele>1480.3</ele>
        <time>2021-09-12T11:15:24Z</time>
      </trkpt>
      <trkpt lat="44.05712" lon="6.51403">
        <ele>1480.7</ele>
        <time>2021-09-12T11:15:26Z</time>
      </trkpt>
      <trkpt lat="44.05706" lon="6.51398">
        <ele>1481.1</ele>
        <time>2021-09-12T11:15:27Z</time>
      </trkpt>
      <trkpt lat="44.05695" lon="6.51394">
        <ele>1481.7</ele>
        <time>2021-09-12T11:15:30Z</time>
      </trkpt>
      <trkpt lat="44.05692" lon="6.51393">
        <ele>1481.9</ele>
        <time>2021-09-12T11:15:31Z</time>
      </trkpt>
      <trkpt lat="44.0569" lon="6.5139">
        <ele>1482</ele>
        <time>2021-09-12T11:15:32Z</time>
      </trkpt>
      <trkpt lat="44.05689" lon="6.51387">
        <ele>1482.1</ele>
        <time>2021-09-12T11:15:33Z</time>
      </trkpt>
      <trkpt lat="44.05687" lon="6.51382">
        <ele>1482.2</ele>
        <time>2021-09-12T11:15:34Z</time>
      </trkpt>
      <trkpt lat="44.05685" lon="6.51377">
        <ele>1482.3</ele>
        <time>2021-09-12T11:15:36Z</time>
      </trkpt>
      <trkpt lat="44.05681" lon="6.51374">
        <ele>1482.4</ele>
        <time>2021-09-12T11:15:39Z</time>
      </trkpt>
      <trkpt lat="44.05676" lon="6.51369">
        <ele>1482.6</ele>
        <time>2021-09-12T11:15:43Z</time>
      </trkpt>
      <trkpt lat="44.05671" lon="6.51362">
        <ele>1482.7</ele>
        <time>2021-09-12T11:15:48Z</time>
      </trkpt>
      <trkpt lat="44.05668" lon="6.51354">
        <ele>1482.8</ele>
        <time>2021-09-12T11:15:54Z</time>
      </trkpt>
      <trkpt lat="44.05666" lon="6.5135">
        <ele>1482.8</ele>
        <time>2021-09-12T11:15:57Z</time>
      </trkpt>
      <trkpt lat="44.05665" lon="6.51346">
        <ele>1482.9</ele>
        <time>2021-09-12T11:16:01Z</time>
      </trkpt>
      <trkpt lat="44.05663" lon="6.51343">
        <ele>1482.9</ele>
        <time>2021-09-12T11:16:04Z</time>
      </trkpt>
      <trkpt lat="44.0566" lon="6.5134">
        <ele>1483</ele>
        <time>2021-09-12T11:16:09Z</time>
      </trkpt>
      <trkpt lat="44.05658" lon="6.51338">
        <ele>1483.1</ele>
        <time>2021-09-12T11:16:13Z</time>
      </trkpt>
      <trkpt lat="44.05655" lon="6.51336">
        <ele>1483.1</ele>
        <time>2021-09-12T11:16:16Z</time>
      </trkpt>
      <trkpt lat="44.05644" lon="6.51327">
        <ele>1483.4</ele>
        <time>2021-09-12T11:16:28Z</time>
      </trkpt>
      <trkpt lat="44.05638" lon="6.5132">
        <ele>1483.6</ele>
        <time>2021-09-12T11:16:35Z</time>
      </trkpt>
      <trkpt lat="44.05632" lon="6.51312">
        <ele>1483.7</ele>
        <time>2021-09-12T11:16:40Z</time>
      </trkpt>
      <trkpt lat="44.05628" lon="6.51303">
        <ele>1483.8</ele>
        <time>2021-09-12T11:16:45Z</time>
      </trkpt>
      <trkpt lat="44.05627" lon="6.51298">
        <ele>1483.8</ele>
        <time>2021-09-12T11:16:47Z</time>
      </trkpt>
      <trkpt lat="44.05625" lon="6.51293">
        <ele>1483.9</ele>
        <time>2021-09-12T11:16:48Z</time>
      </trkpt>
      <trkpt lat="44.05624" lon="6.51289">
        <ele>1484</ele>
        <time>2021-09-12T11:16:50Z</time>
      </trkpt>
      <trkpt lat="44.05622" lon="6.51285">
        <ele>1484</ele>
        <time>2021-09-12T11:16:51Z</time>
      </trkpt>
      <trkpt lat="44.05619" lon="6.51281">
        <ele>1484.1</ele>
        <time>2021-09-12T11:16:53Z</time>
      </trkpt>
      <trkpt lat="44.05616" lon="6.51276">
        <ele>1484.2</ele>
        <time>2021-09-12T11:16:54Z</time>
      </trkpt>
      <trkpt lat="44.05611" lon="6.51274">
        <ele>1484.4</ele>
        <time>2021-09-12T11:16:56Z</time>
      </trkpt>
      <trkpt lat="44.05608" lon="6.51272">
        <ele>1484.5</ele>
        <time>2021-09-12T11:16:57Z</time>
      </trkpt>
      <trkpt lat="44.05605" lon="6.5127">
        <ele>1484.6</ele>
        <time>2021-09-12T11:16:58Z</time>
      </trkpt>
      <trkpt lat="44.05603" lon="6.51266">
        <ele>1484.7</ele>
        <time>2021-09-12T11:16:59Z</time>
      </trkpt>
      <trkpt lat="44.056" lon="6.51261">
        <ele>1484.9</ele>
        <time>2021-09-12T11:17:00Z</time>
      </trkpt>
      <trkpt lat="44.05598" lon="6.51256">
        <ele>1485</ele>
        <time>2021-09-12T11:17:02Z</time>
      </trkpt>
      <trkpt lat="44.05596" lon="6.51251">
        <ele>1485.2</ele>
        <time>2021-09-12T11:17:03Z</time>
      </trkpt>
      <trkpt lat="44.05587" lon="6.5124">
        <ele>1485.7</ele>
        <time>2021-09-12T11:17:06Z</time>
      </trkpt>
      <trkpt lat="44.05583" lon="6.51238">
        <ele>1485.8</ele>
        <time>2021-09-12T11:17:07Z</time>
      </trkpt>
      <trkpt lat="44.05581" lon="6.51237">
        <ele>1485.9</ele>
        <time>2021-09-12T11:17:08Z</time>
      </trkpt>
      <trkpt lat="44.05569" lon="6.51228">
        <ele>1486.3</ele>
        <time>2021-09-12T11:17:13Z</time>
      </trkpt>
      <trkpt lat="44.05564" lon="6.51224">
        <ele>1486.5</ele>
        <time>2021-09-12T11:17:15Z</time>
      </trkpt>
      <trkpt lat="44.05559" lon="6.5122">
        <ele>1486.8</ele>
        <time>2021-09-12T11:17:18Z</time>
      </trkpt>
      <trkpt lat="44.05554" lon="6.51217">
        <ele>1487.1</ele>
        <time>2021-09-12T11:17:21Z</time>
      </trkpt>
      <trkpt lat="44.05548" lon="6.51215">
        <ele>1487.5</ele>
        <time>2021-09-12T11:17:25Z</time>
      </trkpt>
      <trkpt lat="44.05542" lon="6.51213">
        <ele>1487.9</ele>
        <time>2021-09-12T11:17:29Z</time>
      </trkpt>
      <trkpt lat="44.05537" lon="6.51211">
        <ele>1488.2</ele>
        <time>2021-09-12T11:17:33Z</time>
      </trkpt>
      <trkpt lat="44.0553" lon="6.51211">
        <ele>1488.7</ele>
        <time>2021-09-12T11:17:41Z</time>
      </trkpt>
      <trkpt lat="44.05524" lon="6.51212">
        <ele>1489</ele>
        <time>2021-09-12T11:17:47Z</time>
      </trkpt>
      <trkpt lat="44.05518" lon="6.51212">
        <ele>1489.4</ele>
        <time>2021-09-12T11:17:54Z</time>
      </trkpt>
      <trkpt lat="44.05514" lon="6.51212">
        <ele>1489.6</ele>
        <time>2021-09-12T11:17:58Z</time>
      </trkpt>
      <trkpt lat="44.05512" lon="6.51212">
        <ele>1489.7</ele>
        <time>2021-09-12T11:17:59Z</time>
      </trkpt>
      <trkpt lat="44.0551" lon="6.51211">
        <ele>1489.7</ele>
        <time>2021-09-12T11:18:01Z</time>
      </trkpt>
      <trkpt lat="44.05506" lon="6.51209">
        <ele>1489.9</ele>
        <time>2021-09-12T11:18:05Z</time>
      </trkpt>
      <trkpt lat="44.05503" lon="6.51207">
        <ele>1490</ele>
        <time>2021-09-12T11:18:08Z</time>
      </trkpt>
      <trkpt lat="44.05482" lon="6.51197">
        <ele>1490.6</ele>
        <time>2021-09-12T11:18:26Z</time>
      </trkpt>
      <trkpt lat="44.05464" lon="6.51189">
        <ele>1491.1</ele>
        <time>2021-09-12T11:18:40Z</time>
      </trkpt>
      <trkpt lat="44.0545" lon="6.51183">
        <ele>1491.5</ele>
        <time>2021-09-12T11:18:50Z</time>
      </trkpt>
      <trkpt lat="44.05436" lon="6.51177">
        <ele>1491.8</ele>
        <time>2021-09-12T11:19:00Z</time>
      </trkpt>
      <trkpt lat="44.05422" lon="6.51172">
        <ele>1492.2</ele>
        <time>2021-09-12T11:19:08Z</time>
      </trkpt>
      <trkpt lat="44.05405" lon="6.51167">
        <ele>1492.5</ele>
        <time>2021-09-12T11:19:17Z</time>
      </trkpt>
      <trkpt lat="44.05388" lon="6.51162">
        <ele>1492.9</ele>
        <time>2021-09-12T11:19:25Z</time>
      </trkpt>
      <trkpt lat="44.05371" lon="6.51158">
        <ele>1493.6</ele>
        <time>2021-09-12T11:19:32Z</time>
      </trkpt>
      <trkpt lat="44.05348" lon="6.51154">
        <ele>1494.4</ele>
        <time>2021-09-12T11:19:42Z</time>
      </trkpt>
      <trkpt lat="44.05325" lon="6.5115">
        <ele>1495.3</ele>
        <time>2021-09-12T11:19:51Z</time>
      </trkpt>
      <trkpt lat="44.05314" lon="6.51147">
        <ele>1495.8</ele>
        <time>2021-09-12T11:19:55Z</time>
      </trkpt>
      <trkpt lat="44.05303" lon="6.51146">
        <ele>1496.3</ele>
        <time>2021-09-12T11:19:59Z</time>
      </trkpt>
      <trkpt lat="44.05291" lon="6.51144">
        <ele>1496.7</ele>
        <time>2021-09-12T11:20:03Z</time>
      </trkpt>
      <trkpt lat="44.05284" lon="6.51145">
        <ele>1496.8</ele>
        <time>2021-09-12T11:20:06Z</time>
      </trkpt>
      <trkpt lat="44.05278" lon="6.51147">
        <ele>1496.9</ele>
        <time>2021-09-12T11:20:08Z</time>
      </trkpt>
      <trkpt lat="44.05271" lon="6.51149">
        <ele>1497</ele>
        <time>2021-09-12T11:20:10Z</time>
      </trkpt>
      <trkpt lat="44.05264" lon="6.51151">
        <ele>1497.1</ele>
        <time>2021-09-12T11:20:13Z</time>
      </trkpt>
      <trkpt lat="44.0526" lon="6.51154">
        <ele>1497.2</ele>
        <time>2021-09-12T11:20:14Z</time>
      </trkpt>
      <trkpt lat="44.05256" lon="6.51156">
        <ele>1497.2</ele>
        <time>2021-09-12T11:20:16Z</time>
      </trkpt>
      <trkpt lat="44.05252" lon="6.51157">
        <ele>1497.2</ele>
        <time>2021-09-12T11:20:17Z</time>
      </trkpt>
      <trkpt lat="44.05248" lon="6.51158">
        <ele>1497.3</ele>
        <time>2021-09-12T11:20:18Z</time>
      </trkpt>
      <trkpt lat="44.05237" lon="6.51159">
        <ele>1497.3</ele>
        <time>2021-09-12T11:20:22Z</time>
      </trkpt>
      <trkpt lat="44.05235" lon="6.51159">
        <ele>1497.3</ele>
        <time>2021-09-12T11:20:23Z</time>
      </trkpt>
      <trkpt lat="44.05228" lon="6.5116">
        <ele>1497.2</ele>
        <time>2021-09-12T11:20:25Z</time>
      </trkpt>
      <trkpt lat="44.05221" lon="6.51162">
        <ele>1497.2</ele>
        <time>2021-09-12T11:20:27Z</time>
      </trkpt>
      <trkpt lat="44.05214" lon="6.51163">
        <ele>1497.1</ele>
        <time>2021-09-12T11:20:28Z</time>
      </trkpt>
      <trkpt lat="44.05207" lon="6.51164">
        <ele>1497.1</ele>
        <time>2021-09-12T11:20:30Z</time>
      </trkpt>
      <trkpt lat="44.05174" lon="6.51172">
        <ele>1496.8</ele>
        <time>2021-09-12T11:20:38Z</time>
      </trkpt>
      <trkpt lat="44.05148" lon="6.51178">
        <ele>1496.6</ele>
        <time>2021-09-12T11:20:44Z</time>
      </trkpt>
      <trkpt lat="44.05135" lon="6.51181">
        <ele>1496.4</ele>
        <time>2021-09-12T11:20:47Z</time>
      </trkpt>
      <trkpt lat="44.05131" lon="6.51182">
        <ele>1496.4</ele>
        <time>2021-09-12T11:20:48Z</time>
      </trkpt>
      <trkpt lat="44.05127" lon="6.51183">
        <ele>1496.3</ele>
        <time>2021-09-12T11:20:49Z</time>
      </trkpt>
      <trkpt lat="44.05123" lon="6.51185">
        <ele>1496.3</ele>
        <time>2021-09-12T11:20:50Z</time>
      </trkpt>
      <trkpt lat="44.05119" lon="6.51187">
        <ele>1496.2</ele>
        <time>2021-09-12T11:20:51Z</time>
      </trkpt>
      <trkpt lat="44.05115" lon="6.51185">
        <ele>1496.1</ele>
        <time>2021-09-12T11:20:52Z</time>
      </trkpt>
      <trkpt lat="44.0511" lon="6.51184">
        <ele>1496</ele>
        <time>2021-09-12T11:20:53Z</time>
      </trkpt>
      <trkpt lat="44.05105" lon="6.51184">
        <ele>1495.8</ele>
        <time>2021-09-12T11:20:54Z</time>
      </trkpt>
      <trkpt lat="44.05101" lon="6.51185">
        <ele>1495.7</ele>
        <time>2021-09-12T11:20:55Z</time>
      </trkpt>
      <trkpt lat="44.05088" lon="6.51186">
        <ele>1495.2</ele>
        <time>2021-09-12T11:20:59Z</time>
      </trkpt>
      <trkpt lat="44.05067" lon="6.51185">
        <ele>1494.7</ele>
        <time>2021-09-12T11:21:05Z</time>
      </trkpt>
      <trkpt lat="44.05059" lon="6.51186">
        <ele>1494.5</ele>
        <time>2021-09-12T11:21:07Z</time>
      </trkpt>
      <trkpt lat="44.05051" lon="6.51188">
        <ele>1494.3</ele>
        <time>2021-09-12T11:21:10Z</time>
      </trkpt>
      <trkpt lat="44.05043" lon="6.51191">
        <ele>1494.1</ele>
        <time>2021-09-12T11:21:12Z</time>
      </trkpt>
      <trkpt lat="44.05038" lon="6.51193">
        <ele>1494</ele>
        <time>2021-09-12T11:21:14Z</time>
      </trkpt>
      <trkpt lat="44.05033" lon="6.51194">
        <ele>1493.9</ele>
        <time>2021-09-12T11:21:15Z</time>
      </trkpt>
      <trkpt lat="44.05028" lon="6.51195">
        <ele>1493.7</ele>
        <time>2021-09-12T11:21:16Z</time>
      </trkpt>
      <trkpt lat="44.05021" lon="6.51194">
        <ele>1493.5</ele>
        <time>2021-09-12T11:21:18Z</time>
      </trkpt>
      <trkpt lat="44.05017" lon="6.51193">
        <ele>1493.4</ele>
        <time>2021-09-12T11:21:19Z</time>
      </trkpt>
      <trkpt lat="44.05003" lon="6.51186">
        <ele>1493</ele>
        <time>2021-09-12T11:21:22Z</time>
      </trkpt>
      <trkpt lat="44.04996" lon="6.51184">
        <ele>1492.8</ele>
        <time>2021-09-12T11:21:24Z</time>
      </trkpt>
      <trkpt lat="44.0499" lon="6.51182">
        <ele>1492.6</ele>
        <time>2021-09-12T11:21:25Z</time>
      </trkpt>
      <trkpt lat="44.04983" lon="6.5118">
        <ele>1492.3</ele>
        <time>2021-09-12T11:21:26Z</time>
      </trkpt>
      <trkpt lat="44.04981" lon="6.51179">
        <ele>1492.2</ele>
        <time>2021-09-12T11:21:27Z</time>
      </trkpt>
      <trkpt lat="44.04973" lon="6.51176">
        <ele>1491.9</ele>
        <time>2021-09-12T11:21:28Z</time>
      </trkpt>
      <trkpt lat="44.04965" lon="6.51172">
        <ele>1491.5</ele>
        <time>2021-09-12T11:21:30Z</time>
      </trkpt>
      <trkpt lat="44.04958" lon="6.51169">
        <ele>1491.3</ele>
        <time>2021-09-12T11:21:31Z</time>
      </trkpt>
      <trkpt lat="44.0495" lon="6.51165">
        <ele>1491</ele>
        <time>2021-09-12T11:21:33Z</time>
      </trkpt>
      <trkpt lat="44.04944" lon="6.51161">
        <ele>1490.8</ele>
        <time>2021-09-12T11:21:34Z</time>
      </trkpt>
      <trkpt lat="44.04938" lon="6.51157">
        <ele>1490.6</ele>
        <time>2021-09-12T11:21:35Z</time>
      </trkpt>
      <trkpt lat="44.04932" lon="6.51154">
        <ele>1490.4</ele>
        <time>2021-09-12T11:21:36Z</time>
      </trkpt>
      <trkpt lat="44.04925" lon="6.51153">
        <ele>1490.1</ele>
        <time>2021-09-12T11:21:37Z</time>
      </trkpt>
      <trkpt lat="44.04918" lon="6.51155">
        <ele>1489.9</ele>
        <time>2021-09-12T11:21:38Z</time>
      </trkpt>
      <trkpt lat="44.049" lon="6.51158">
        <ele>1489.2</ele>
        <time>2021-09-12T11:21:41Z</time>
      </trkpt>
      <trkpt lat="44.04891" lon="6.51159">
        <ele>1488.8</ele>
        <time>2021-09-12T11:21:43Z</time>
      </trkpt>
      <trkpt lat="44.04885" lon="6.5116">
        <ele>1488.4</ele>
        <time>2021-09-12T11:21:44Z</time>
      </trkpt>
      <trkpt lat="44.04871" lon="6.51163">
        <ele>1487.7</ele>
        <time>2021-09-12T11:21:46Z</time>
      </trkpt>
      <trkpt lat="44.04852" lon="6.51167">
        <ele>1487</ele>
        <time>2021-09-12T11:21:49Z</time>
      </trkpt>
      <trkpt lat="44.04845" lon="6.51168">
        <ele>1486.8</ele>
        <time>2021-09-12T11:21:50Z</time>
      </trkpt>
      <trkpt lat="44.04839" lon="6.51169">
        <ele>1486.7</ele>
        <time>2021-09-12T11:21:51Z</time>
      </trkpt>
      <trkpt lat="44.04833" lon="6.51171">
        <ele>1486.6</ele>
        <time>2021-09-12T11:21:52Z</time>
      </trkpt>
      <trkpt lat="44.04828" lon="6.51172">
        <ele>1486.5</ele>
        <time>2021-09-12T11:21:53Z</time>
      </trkpt>
      <trkpt lat="44.04822" lon="6.51171">
        <ele>1486.6</ele>
        <time>2021-09-12T11:21:54Z</time>
      </trkpt>
      <trkpt lat="44.04816" lon="6.5117">
        <ele>1486.7</ele>
        <time>2021-09-12T11:21:56Z</time>
      </trkpt>
      <trkpt lat="44.0481" lon="6.51168">
        <ele>1486.9</ele>
        <time>2021-09-12T11:21:57Z</time>
      </trkpt>
      <trkpt lat="44.04804" lon="6.51165">
        <ele>1487.1</ele>
        <time>2021-09-12T11:21:58Z</time>
      </trkpt>
      <trkpt lat="44.04802" lon="6.51165">
        <ele>1487.2</ele>
        <time>2021-09-12T11:21:59Z</time>
      </trkpt>
      <trkpt lat="44.04797" lon="6.51164">
        <ele>1487.5</ele>
        <time>2021-09-12T11:22:00Z</time>
      </trkpt>
      <trkpt lat="44.04792" lon="6.51163">
        <ele>1487.8</ele>
        <time>2021-09-12T11:22:02Z</time>
      </trkpt>
      <trkpt lat="44.04787" lon="6.51164">
        <ele>1488.2</ele>
        <time>2021-09-12T11:22:04Z</time>
      </trkpt>
      <trkpt lat="44.04782" lon="6.51164">
        <ele>1488.7</ele>
        <time>2021-09-12T11:22:06Z</time>
      </trkpt>
      <trkpt lat="44.04777" lon="6.51166">
        <ele>1489.2</ele>
        <time>2021-09-12T11:22:08Z</time>
      </trkpt>
      <trkpt lat="44.04772" lon="6.51166">
        <ele>1489.8</ele>
        <time>2021-09-12T11:22:11Z</time>
      </trkpt>
      <trkpt lat="44.04768" lon="6.51167">
        <ele>1490.2</ele>
        <time>2021-09-12T11:22:13Z</time>
      </trkpt>
      <trkpt lat="44.04763" lon="6.51166">
        <ele>1490.9</ele>
        <time>2021-09-12T11:22:16Z</time>
      </trkpt>
      <trkpt lat="44.04759" lon="6.51165">
        <ele>1491.5</ele>
        <time>2021-09-12T11:22:19Z</time>
      </trkpt>
      <trkpt lat="44.04752" lon="6.51164">
        <ele>1492.5</ele>
        <time>2021-09-12T11:22:24Z</time>
      </trkpt>
      <trkpt lat="44.04745" lon="6.51164">
        <ele>1493.6</ele>
        <time>2021-09-12T11:22:29Z</time>
      </trkpt>
      <trkpt lat="44.04739" lon="6.51164">
        <ele>1494.5</ele>
        <time>2021-09-12T11:22:34Z</time>
      </trkpt>
      <trkpt lat="44.04732" lon="6.51165">
        <ele>1495.6</ele>
        <time>2021-09-12T11:22:40Z</time>
      </trkpt>
      <trkpt lat="44.0472" lon="6.51166">
        <ele>1497.3</ele>
        <time>2021-09-12T11:22:51Z</time>
      </trkpt>
      <trkpt lat="44.04712" lon="6.51167">
        <ele>1498.5</ele>
        <time>2021-09-12T11:22:59Z</time>
      </trkpt>
      <trkpt lat="44.04695" lon="6.51168">
        <ele>1500.9</ele>
        <time>2021-09-12T11:23:19Z</time>
      </trkpt>
      <trkpt lat="44.04693" lon="6.51169">
        <ele>1501.1</ele>
        <time>2021-09-12T11:23:22Z</time>
      </trkpt>
      <trkpt lat="44.04685" lon="6.51171">
        <ele>1502.2</ele>
        <time>2021-09-12T11:23:33Z</time>
      </trkpt>
      <trkpt lat="44.04678" lon="6.51173">
        <ele>1503</ele>
        <time>2021-09-12T11:23:44Z</time>
      </trkpt>
      <trkpt lat="44.0467" lon="6.51176">
        <ele>1503.9</ele>
        <time>2021-09-12T11:23:59Z</time>
      </trkpt>
      <trkpt lat="44.04663" lon="6.51179">
        <ele>1504.5</ele>
        <time>2021-09-12T11:24:12Z</time>
      </trkpt>
      <trkpt lat="44.04658" lon="6.51181">
        <ele>1504.8</ele>
        <time>2021-09-12T11:24:20Z</time>
      </trkpt>
      <trkpt lat="44.04653" lon="6.51182">
        <ele>1505.1</ele>
        <time>2021-09-12T11:24:27Z</time>
      </trkpt>
      <trkpt lat="44.04648" lon="6.51182">
        <ele>1505.4</ele>
        <time>2021-09-12T11:24:32Z</time>
      </trkpt>
      <trkpt lat="44.04643" lon="6.51183">
        <ele>1505.6</ele>
        <time>2021-09-12T11:24:36Z</time>
      </trkpt>
      <trkpt lat="44.04638" lon="6.51183">
        <ele>1505.8</ele>
        <time>2021-09-12T11:24:40Z</time>
      </trkpt>
      <trkpt lat="44.0463" lon="6.51183">
        <ele>1506.2</ele>
        <time>2021-09-12T11:24:44Z</time>
      </trkpt>
      <trkpt lat="44.04623" lon="6.51181">
        <ele>1506.4</ele>
        <time>2021-09-12T11:24:48Z</time>
      </trkpt>
      <trkpt lat="44.04616" lon="6.51178">
        <ele>1506.7</ele>
        <time>2021-09-12T11:24:51Z</time>
      </trkpt>
      <trkpt lat="44.04609" lon="6.51175">
        <ele>1506.9</ele>
        <time>2021-09-12T11:24:53Z</time>
      </trkpt>
      <trkpt lat="44.04606" lon="6.51173">
        <ele>1506.9</ele>
        <time>2021-09-12T11:24:55Z</time>
      </trkpt>
      <trkpt lat="44.04602" lon="6.51171">
        <ele>1507</ele>
        <time>2021-09-12T11:24:56Z</time>
      </trkpt>
      <trkpt lat="44.04598" lon="6.51169">
        <ele>1507.1</ele>
        <time>2021-09-12T11:24:57Z</time>
      </trkpt>
      <trkpt lat="44.04594" lon="6.51168">
        <ele>1507.2</ele>
        <time>2021-09-12T11:24:58Z</time>
      </trkpt>
      <trkpt lat="44.0459" lon="6.51167">
        <ele>1507.3</ele>
        <time>2021-09-12T11:25:00Z</time>
      </trkpt>
      <trkpt lat="44.04586" lon="6.51167">
        <ele>1507.4</ele>
        <time>2021-09-12T11:25:01Z</time>
      </trkpt>
      <trkpt lat="44.04582" lon="6.51168">
        <ele>1507.5</ele>
        <time>2021-09-12T11:25:02Z</time>
      </trkpt>
      <trkpt lat="44.04579" lon="6.51167">
        <ele>1507.6</ele>
        <time>2021-09-12T11:25:03Z</time>
      </trkpt>
      <trkpt lat="44.04574" lon="6.51167">
        <ele>1507.8</ele>
        <time>2021-09-12T11:25:04Z</time>
      </trkpt>
      <trkpt lat="44.04571" lon="6.51167">
        <ele>1507.9</ele>
        <time>2021-09-12T11:25:05Z</time>
      </trkpt>
      <trkpt lat="44.0456" lon="6.51172">
        <ele>1508.3</ele>
        <time>2021-09-12T11:25:09Z</time>
      </trkpt>
      <trkpt lat="44.04556" lon="6.51176">
        <ele>1508.4</ele>
        <time>2021-09-12T11:25:11Z</time>
      </trkpt>
      <trkpt lat="44.04552" lon="6.5118">
        <ele>1508.5</ele>
        <time>2021-09-12T11:25:12Z</time>
      </trkpt>
      <trkpt lat="44.04548" lon="6.51184">
        <ele>1508.7</ele>
        <time>2021-09-12T11:25:14Z</time>
      </trkpt>
      <trkpt lat="44.04544" lon="6.51188">
        <ele>1508.8</ele>
        <time>2021-09-12T11:25:16Z</time>
      </trkpt>
      <trkpt lat="44.04541" lon="6.51192">
        <ele>1509</ele>
        <time>2021-09-12T11:25:18Z</time>
      </trkpt>
      <trkpt lat="44.0454" lon="6.51194">
        <ele>1509</ele>
        <time>2021-09-12T11:25:19Z</time>
      </trkpt>
      <trkpt lat="44.04538" lon="6.51197">
        <ele>1509.2</ele>
        <time>2021-09-12T11:25:20Z</time>
      </trkpt>
      <trkpt lat="44.04534" lon="6.512">
        <ele>1509.4</ele>
        <time>2021-09-12T11:25:22Z</time>
      </trkpt>
      <trkpt lat="44.0453" lon="6.51203">
        <ele>1509.6</ele>
        <time>2021-09-12T11:25:24Z</time>
      </trkpt>
      <trkpt lat="44.04517" lon="6.51212">
        <ele>1510.5</ele>
        <time>2021-09-12T11:25:31Z</time>
      </trkpt>
      <trkpt lat="44.04514" lon="6.51213">
        <ele>1510.7</ele>
        <time>2021-09-12T11:25:32Z</time>
      </trkpt>
      <trkpt lat="44.0451" lon="6.51215">
        <ele>1511</ele>
        <time>2021-09-12T11:25:34Z</time>
      </trkpt>
      <trkpt lat="44.04506" lon="6.51217">
        <ele>1511.3</ele>
        <time>2021-09-12T11:25:36Z</time>
      </trkpt>
      <trkpt lat="44.04503" lon="6.51219">
        <ele>1511.5</ele>
        <time>2021-09-12T11:25:38Z</time>
      </trkpt>
      <trkpt lat="44.045" lon="6.51222">
        <ele>1511.7</ele>
        <time>2021-09-12T11:25:40Z</time>
      </trkpt>
      <trkpt lat="44.04498" lon="6.51224">
        <ele>1511.8</ele>
        <time>2021-09-12T11:25:41Z</time>
      </trkpt>
      <trkpt lat="44.04495" lon="6.51227">
        <ele>1512</ele>
        <time>2021-09-12T11:25:42Z</time>
      </trkpt>
      <trkpt lat="44.04493" lon="6.51229">
        <ele>1512.1</ele>
        <time>2021-09-12T11:25:43Z</time>
      </trkpt>
      <trkpt lat="44.04486" lon="6.51233">
        <ele>1512.4</ele>
        <time>2021-09-12T11:25:45Z</time>
      </trkpt>
      <trkpt lat="44.0448" lon="6.51237">
        <ele>1512.7</ele>
        <time>2021-09-12T11:25:47Z</time>
      </trkpt>
      <trkpt lat="44.04474" lon="6.51242">
        <ele>1513</ele>
        <time>2021-09-12T11:25:49Z</time>
      </trkpt>
      <trkpt lat="44.04469" lon="6.51247">
        <ele>1513.2</ele>
        <time>2021-09-12T11:25:51Z</time>
      </trkpt>
      <trkpt lat="44.04458" lon="6.51257">
        <ele>1513.4</ele>
        <time>2021-09-12T11:25:54Z</time>
      </trkpt>
      <trkpt lat="44.04453" lon="6.5126">
        <ele>1513.5</ele>
        <time>2021-09-12T11:25:56Z</time>
      </trkpt>
      <trkpt lat="44.04448" lon="6.51264">
        <ele>1513.5</ele>
        <time>2021-09-12T11:25:57Z</time>
      </trkpt>
      <trkpt lat="44.04443" lon="6.51267">
        <ele>1513.5</ele>
        <time>2021-09-12T11:25:58Z</time>
      </trkpt>
      <trkpt lat="44.04438" lon="6.5127">
        <ele>1513.5</ele>
        <time>2021-09-12T11:25:59Z</time>
      </trkpt>
      <trkpt lat="44.04433" lon="6.51274">
        <ele>1513.4</ele>
        <time>2021-09-12T11:26:00Z</time>
      </trkpt>
      <trkpt lat="44.04428" lon="6.51278">
        <ele>1513.3</ele>
        <time>2021-09-12T11:26:01Z</time>
      </trkpt>
      <trkpt lat="44.04424" lon="6.51283">
        <ele>1513.2</ele>
        <time>2021-09-12T11:26:02Z</time>
      </trkpt>
      <trkpt lat="44.0442" lon="6.51289">
        <ele>1512.9</ele>
        <time>2021-09-12T11:26:03Z</time>
      </trkpt>
      <trkpt lat="44.04412" lon="6.51302">
        <ele>1512.2</ele>
        <time>2021-09-12T11:26:05Z</time>
      </trkpt>
      <trkpt lat="44.0441" lon="6.51307">
        <ele>1511.9</ele>
        <time>2021-09-12T11:26:06Z</time>
      </trkpt>
      <trkpt lat="44.04407" lon="6.51317">
        <ele>1511.2</ele>
        <time>2021-09-12T11:26:07Z</time>
      </trkpt>
      <trkpt lat="44.04404" lon="6.51324">
        <ele>1510.7</ele>
        <time>2021-09-12T11:26:08Z</time>
      </trkpt>
      <trkpt lat="44.044" lon="6.51334">
        <ele>1509.9</ele>
        <time>2021-09-12T11:26:09Z</time>
      </trkpt>
      <trkpt lat="44.04397" lon="6.5134">
        <ele>1509.3</ele>
        <time>2021-09-12T11:26:10Z</time>
      </trkpt>
      <trkpt lat="44.04394" lon="6.51346">
        <ele>1508.7</ele>
        <time>2021-09-12T11:26:11Z</time>
      </trkpt>
      <trkpt lat="44.04391" lon="6.51352">
        <ele>1508.1</ele>
        <time>2021-09-12T11:26:12Z</time>
      </trkpt>
      <trkpt lat="44.04384" lon="6.51364">
        <ele>1506.9</ele>
        <time>2021-09-12T11:26:13Z</time>
      </trkpt>
      <trkpt lat="44.0438" lon="6.51369">
        <ele>1506.5</ele>
        <time>2021-09-12T11:26:14Z</time>
      </trkpt>
      <trkpt lat="44.04376" lon="6.51374">
        <ele>1506.1</ele>
        <time>2021-09-12T11:26:15Z</time>
      </trkpt>
      <trkpt lat="44.04371" lon="6.51378">
        <ele>1505.9</ele>
        <time>2021-09-12T11:26:16Z</time>
      </trkpt>
      <trkpt lat="44.04362" lon="6.51387">
        <ele>1505.7</ele>
        <time>2021-09-12T11:26:17Z</time>
      </trkpt>
      <trkpt lat="44.04356" lon="6.51391">
        <ele>1505.8</ele>
        <time>2021-09-12T11:26:18Z</time>
      </trkpt>
      <trkpt lat="44.04351" lon="6.51391">
        <ele>1505.9</ele>
        <time>2021-09-12T11:26:19Z</time>
      </trkpt>
      <trkpt lat="44.04345" lon="6.51393">
        <ele>1506.1</ele>
        <time>2021-09-12T11:26:20Z</time>
      </trkpt>
      <trkpt lat="44.04339" lon="6.51393">
        <ele>1506.4</ele>
        <time>2021-09-12T11:26:21Z</time>
      </trkpt>
      <trkpt lat="44.04326" lon="6.51398">
        <ele>1507.3</ele>
        <time>2021-09-12T11:26:24Z</time>
      </trkpt>
      <trkpt lat="44.04304" lon="6.51409">
        <ele>1509.1</ele>
        <time>2021-09-12T11:26:28Z</time>
      </trkpt>
      <trkpt lat="44.04302" lon="6.5141">
        <ele>1509.3</ele>
        <time>2021-09-12T11:26:29Z</time>
      </trkpt>
      <trkpt lat="44.04278" lon="6.51419">
        <ele>1511.3</ele>
        <time>2021-09-12T11:26:35Z</time>
      </trkpt>
      <trkpt lat="44.04257" lon="6.51427">
        <ele>1513.2</ele>
        <time>2021-09-12T11:26:41Z</time>
      </trkpt>
      <trkpt lat="44.04253" lon="6.51429">
        <ele>1513.6</ele>
        <time>2021-09-12T11:26:42Z</time>
      </trkpt>
      <trkpt lat="44.0425" lon="6.51431">
        <ele>1513.8</ele>
        <time>2021-09-12T11:26:44Z</time>
      </trkpt>
      <trkpt lat="44.04246" lon="6.51432">
        <ele>1514.1</ele>
        <time>2021-09-12T11:26:46Z</time>
      </trkpt>
      <trkpt lat="44.04242" lon="6.51433">
        <ele>1514.4</ele>
        <time>2021-09-12T11:26:49Z</time>
      </trkpt>
      <trkpt lat="44.04239" lon="6.51433">
        <ele>1514.6</ele>
        <time>2021-09-12T11:26:51Z</time>
      </trkpt>
      <trkpt lat="44.04235" lon="6.51433">
        <ele>1514.9</ele>
        <time>2021-09-12T11:26:55Z</time>
      </trkpt>
      <trkpt lat="44.04232" lon="6.51434">
        <ele>1515.1</ele>
        <time>2021-09-12T11:26:58Z</time>
      </trkpt>
      <trkpt lat="44.04229" lon="6.51436">
        <ele>1515.3</ele>
        <time>2021-09-12T11:27:01Z</time>
      </trkpt>
      <trkpt lat="44.04226" lon="6.51436">
        <ele>1515.5</ele>
        <time>2021-09-12T11:27:04Z</time>
      </trkpt>
      <trkpt lat="44.04223" lon="6.51436">
        <ele>1515.6</ele>
        <time>2021-09-12T11:27:07Z</time>
      </trkpt>
      <trkpt lat="44.0422" lon="6.51435">
        <ele>1515.8</ele>
        <time>2021-09-12T11:27:09Z</time>
      </trkpt>
      <trkpt lat="44.04217" lon="6.51434">
        <ele>1516</ele>
        <time>2021-09-12T11:27:11Z</time>
      </trkpt>
      <trkpt lat="44.04212" lon="6.51433">
        <ele>1516.2</ele>
        <time>2021-09-12T11:27:14Z</time>
      </trkpt>
      <trkpt lat="44.04208" lon="6.51433">
        <ele>1516.4</ele>
        <time>2021-09-12T11:27:16Z</time>
      </trkpt>
      <trkpt lat="44.04203" lon="6.51434">
        <ele>1516.6</ele>
        <time>2021-09-12T11:27:19Z</time>
      </trkpt>
      <trkpt lat="44.04199" lon="6.51435">
        <ele>1516.8</ele>
        <time>2021-09-12T11:27:21Z</time>
      </trkpt>
      <trkpt lat="44.04196" lon="6.51435">
        <ele>1517</ele>
        <time>2021-09-12T11:27:23Z</time>
      </trkpt>
      <trkpt lat="44.04194" lon="6.51436">
        <ele>1517.1</ele>
        <time>2021-09-12T11:27:24Z</time>
      </trkpt>
      <trkpt lat="44.04192" lon="6.51436">
        <ele>1517.2</ele>
        <time>2021-09-12T11:27:25Z</time>
      </trkpt>
      <trkpt lat="44.0419" lon="6.51437">
        <ele>1517.3</ele>
        <time>2021-09-12T11:27:26Z</time>
      </trkpt>
      <trkpt lat="44.04187" lon="6.51437">
        <ele>1517.4</ele>
        <time>2021-09-12T11:27:27Z</time>
      </trkpt>
      <trkpt lat="44.04184" lon="6.51437">
        <ele>1517.6</ele>
        <time>2021-09-12T11:27:28Z</time>
      </trkpt>
      <trkpt lat="44.04181" lon="6.51438">
        <ele>1517.7</ele>
        <time>2021-09-12T11:27:30Z</time>
      </trkpt>
      <trkpt lat="44.04178" lon="6.51437">
        <ele>1517.9</ele>
        <time>2021-09-12T11:27:31Z</time>
      </trkpt>
      <trkpt lat="44.04166" lon="6.51437">
        <ele>1518.5</ele>
        <time>2021-09-12T11:27:37Z</time>
      </trkpt>
      <trkpt lat="44.04159" lon="6.51437">
        <ele>1519</ele>
        <time>2021-09-12T11:27:40Z</time>
      </trkpt>
      <trkpt lat="44.04156" lon="6.51437">
        <ele>1519.1</ele>
        <time>2021-09-12T11:27:41Z</time>
      </trkpt>
      <trkpt lat="44.04153" lon="6.51438">
        <ele>1519.3</ele>
        <time>2021-09-12T11:27:43Z</time>
      </trkpt>
      <trkpt lat="44.0415" lon="6.51438">
        <ele>1519.5</ele>
        <time>2021-09-12T11:27:44Z</time>
      </trkpt>
      <trkpt lat="44.04145" lon="6.51436">
        <ele>1519.8</ele>
        <time>2021-09-12T11:27:47Z</time>
      </trkpt>
      <trkpt lat="44.04142" lon="6.51434">
        <ele>1520</ele>
        <time>2021-09-12T11:27:48Z</time>
      </trkpt>
      <trkpt lat="44.04139" lon="6.51433">
        <ele>1520.2</ele>
        <time>2021-09-12T11:27:50Z</time>
      </trkpt>
      <trkpt lat="44.04136" lon="6.5143">
        <ele>1520.4</ele>
        <time>2021-09-12T11:27:52Z</time>
      </trkpt>
      <trkpt lat="44.04132" lon="6.51427">
        <ele>1520.7</ele>
        <time>2021-09-12T11:27:54Z</time>
      </trkpt>
      <trkpt lat="44.04128" lon="6.51425">
        <ele>1521</ele>
        <time>2021-09-12T11:27:56Z</time>
      </trkpt>
      <trkpt lat="44.04125" lon="6.51421">
        <ele>1521.2</ele>
        <time>2021-09-12T11:27:58Z</time>
      </trkpt>
      <trkpt lat="44.04121" lon="6.51418">
        <ele>1521.6</ele>
        <time>2021-09-12T11:28:01Z</time>
      </trkpt>
      <trkpt lat="44.04119" lon="6.51415">
        <ele>1521.8</ele>
        <time>2021-09-12T11:28:02Z</time>
      </trkpt>
      <trkpt lat="44.04117" lon="6.51413">
        <ele>1521.9</ele>
        <time>2021-09-12T11:28:04Z</time>
      </trkpt>
      <trkpt lat="44.04114" lon="6.51411">
        <ele>1522.2</ele>
        <time>2021-09-12T11:28:06Z</time>
      </trkpt>
      <trkpt lat="44.04111" lon="6.51408">
        <ele>1522.5</ele>
        <time>2021-09-12T11:28:08Z</time>
      </trkpt>
      <trkpt lat="44.04104" lon="6.51402">
        <ele>1523.3</ele>
        <time>2021-09-12T11:28:15Z</time>
      </trkpt>
      <trkpt lat="44.04098" lon="6.51396">
        <ele>1524.2</ele>
        <time>2021-09-12T11:28:22Z</time>
      </trkpt>
      <trkpt lat="44.04092" lon="6.5139">
        <ele>1525.1</ele>
        <time>2021-09-12T11:28:30Z</time>
      </trkpt>
      <trkpt lat="44.04087" lon="6.51383">
        <ele>1526</ele>
        <time>2021-09-12T11:28:39Z</time>
      </trkpt>
      <trkpt lat="44.04084" lon="6.51379">
        <ele>1526.5</ele>
        <time>2021-09-12T11:28:45Z</time>
      </trkpt>
      <trkpt lat="44.04081" lon="6.51376">
        <ele>1527</ele>
        <time>2021-09-12T11:28:51Z</time>
      </trkpt>
      <trkpt lat="44.04078" lon="6.51373">
        <ele>1527.5</ele>
        <time>2021-09-12T11:28:59Z</time>
      </trkpt>
      <trkpt lat="44.04074" lon="6.51371">
        <ele>1528.1</ele>
        <time>2021-09-12T11:29:08Z</time>
      </trkpt>
      <trkpt lat="44.04071" lon="6.51369">
        <ele>1528.6</ele>
        <time>2021-09-12T11:29:15Z</time>
      </trkpt>
      <trkpt lat="44.04067" lon="6.51367">
        <ele>1529.1</ele>
        <time>2021-09-12T11:29:25Z</time>
      </trkpt>
      <trkpt lat="44.04065" lon="6.51367">
        <ele>1529.4</ele>
        <time>2021-09-12T11:29:29Z</time>
      </trkpt>
      <trkpt lat="44.04064" lon="6.51367">
        <ele>1529.4</ele>
        <time>2021-09-12T11:29:31Z</time>
      </trkpt>
      <trkpt lat="44.04062" lon="6.51367">
        <ele>1529.4</ele>
        <time>2021-09-12T11:29:35Z</time>
      </trkpt>
      <trkpt lat="44.04061" lon="6.51367">
        <ele>1529.8</ele>
        <time>2021-09-12T11:29:37Z</time>
      </trkpt>
      <trkpt lat="44.04051" lon="6.51348">
        <ele>1531.8</ele>
        <time>2021-09-12T11:30:01Z</time>
      </trkpt>
      <trkpt lat="44.0404" lon="6.51325">
        <ele>1534.8</ele>
        <time>2021-09-12T11:30:30Z</time>
      </trkpt>
      <trkpt lat="44.04026" lon="6.51291">
        <ele>1538.3</ele>
        <time>2021-09-12T11:31:10Z</time>
      </trkpt>
      <trkpt lat="44.04022" lon="6.51282">
        <ele>1538.9</ele>
        <time>2021-09-12T11:31:20Z</time>
      </trkpt>
      <trkpt lat="44.04018" lon="6.51273">
        <ele>1540.2</ele>
        <time>2021-09-12T11:31:31Z</time>
      </trkpt>
      <trkpt lat="44.04015" lon="6.51263">
        <ele>1540.6</ele>
        <time>2021-09-12T11:31:42Z</time>
      </trkpt>
      <trkpt lat="44.04012" lon="6.51253">
        <ele>1541</ele>
        <time>2021-09-12T11:31:53Z</time>
      </trkpt>
      <trkpt lat="44.04009" lon="6.51244">
        <ele>1541.4</ele>
        <time>2021-09-12T11:32:03Z</time>
      </trkpt>
      <trkpt lat="44.04005" lon="6.51236">
        <ele>1541.7</ele>
        <time>2021-09-12T11:32:12Z</time>
      </trkpt>
      <trkpt lat="44.04001" lon="6.51228">
        <ele>1542</ele>
        <time>2021-09-12T11:32:23Z</time>
      </trkpt>
      <trkpt lat="44.03996" lon="6.51221">
        <ele>1542.3</ele>
        <time>2021-09-12T11:32:34Z</time>
      </trkpt>
      <trkpt lat="44.03993" lon="6.51218">
        <ele>1542.4</ele>
        <time>2021-09-12T11:32:39Z</time>
      </trkpt>
      <trkpt lat="44.0399" lon="6.51215">
        <ele>1542.6</ele>
        <time>2021-09-12T11:32:45Z</time>
      </trkpt>
      <trkpt lat="44.03987" lon="6.51212">
        <ele>1542.8</ele>
        <time>2021-09-12T11:32:51Z</time>
      </trkpt>
      <trkpt lat="44.03984" lon="6.5121">
        <ele>1542.9</ele>
        <time>2021-09-12T11:32:56Z</time>
      </trkpt>
      <trkpt lat="44.0398" lon="6.51209">
        <ele>1543.2</ele>
        <time>2021-09-12T11:33:03Z</time>
      </trkpt>
      <trkpt lat="44.03977" lon="6.51209">
        <ele>1543.4</ele>
        <time>2021-09-12T11:33:08Z</time>
      </trkpt>
      <trkpt lat="44.03973" lon="6.51209">
        <ele>1543.6</ele>
        <time>2021-09-12T11:33:15Z</time>
      </trkpt>
      <trkpt lat="44.0397" lon="6.5121">
        <ele>1543.8</ele>
        <time>2021-09-12T11:33:21Z</time>
      </trkpt>
      <trkpt lat="44.03958" lon="6.51212">
        <ele>1544.6</ele>
        <time>2021-09-12T11:33:46Z</time>
      </trkpt>
      <trkpt lat="44.03956" lon="6.5121">
        <ele>1544.7</ele>
        <time>2021-09-12T11:33:51Z</time>
      </trkpt>
      <trkpt lat="44.03937" lon="6.51189">
        <ele>1546.2</ele>
        <time>2021-09-12T11:34:47Z</time>
      </trkpt>
      <trkpt lat="44.03919" lon="6.51174">
        <ele>1547.7</ele>
        <time>2021-09-12T11:35:35Z</time>
      </trkpt>
      <trkpt lat="44.03915" lon="6.51171">
        <ele>1548</ele>
        <time>2021-09-12T11:35:44Z</time>
      </trkpt>
      <trkpt lat="44.03911" lon="6.51169">
        <ele>1548.3</ele>
        <time>2021-09-12T11:35:51Z</time>
      </trkpt>
      <trkpt lat="44.03907" lon="6.51169">
        <ele>1548.6</ele>
        <time>2021-09-12T11:35:57Z</time>
      </trkpt>
      <trkpt lat="44.03903" lon="6.51169">
        <ele>1548.9</ele>
        <time>2021-09-12T11:36:02Z</time>
      </trkpt>
      <trkpt lat="44.03898" lon="6.5117">
        <ele>1549.2</ele>
        <time>2021-09-12T11:36:07Z</time>
      </trkpt>
      <trkpt lat="44.03894" lon="6.51171">
        <ele>1549.4</ele>
        <time>2021-09-12T11:36:11Z</time>
      </trkpt>
      <trkpt lat="44.03891" lon="6.51174">
        <ele>1549.6</ele>
        <time>2021-09-12T11:36:15Z</time>
      </trkpt>
      <trkpt lat="44.03887" lon="6.51177">
        <ele>1549.9</ele>
        <time>2021-09-12T11:36:19Z</time>
      </trkpt>
      <trkpt lat="44.03884" lon="6.5118">
        <ele>1550.1</ele>
        <time>2021-09-12T11:36:23Z</time>
      </trkpt>
      <trkpt lat="44.03881" lon="6.51183">
        <ele>1550.3</ele>
        <time>2021-09-12T11:36:26Z</time>
      </trkpt>
      <trkpt lat="44.03878" lon="6.51186">
        <ele>1550.4</ele>
        <time>2021-09-12T11:36:30Z</time>
      </trkpt>
      <trkpt lat="44.03878" lon="6.51187">
        <ele>1550.5</ele>
        <time>2021-09-12T11:36:31Z</time>
      </trkpt>
      <trkpt lat="44.03876" lon="6.51189">
        <ele>1550.6</ele>
        <time>2021-09-12T11:36:34Z</time>
      </trkpt>
      <trkpt lat="44.03873" lon="6.51193">
        <ele>1550.8</ele>
        <time>2021-09-12T11:36:41Z</time>
      </trkpt>
      <trkpt lat="44.03871" lon="6.51196">
        <ele>1550.9</ele>
        <time>2021-09-12T11:36:46Z</time>
      </trkpt>
      <trkpt lat="44.03864" lon="6.51208">
        <ele>1551.4</ele>
        <time>2021-09-12T11:37:03Z</time>
      </trkpt>
      <trkpt lat="44.03861" lon="6.51214">
        <ele>1551.7</ele>
        <time>2021-09-12T11:37:12Z</time>
      </trkpt>
      <trkpt lat="44.03857" lon="6.5122">
        <ele>1551.9</ele>
        <time>2021-09-12T11:37:21Z</time>
      </trkpt>
      <trkpt lat="44.03852" lon="6.51226">
        <ele>1552.3</ele>
        <time>2021-09-12T11:37:31Z</time>
      </trkpt>
      <trkpt lat="44.03848" lon="6.51231">
        <ele>1552.6</ele>
        <time>2021-09-12T11:37:39Z</time>
      </trkpt>
      <trkpt lat="44.03841" lon="6.51239">
        <ele>1553.3</ele>
        <time>2021-09-12T11:37:50Z</time>
      </trkpt>
      <trkpt lat="44.03836" lon="6.51245">
        <ele>1553.8</ele>
        <time>2021-09-12T11:37:57Z</time>
      </trkpt>
      <trkpt lat="44.03831" lon="6.51251">
        <ele>1554.3</ele>
        <time>2021-09-12T11:38:03Z</time>
      </trkpt>
      <trkpt lat="44.03827" lon="6.51258">
        <ele>1554.9</ele>
        <time>2021-09-12T11:38:09Z</time>
      </trkpt>
      <trkpt lat="44.03822" lon="6.51264">
        <ele>1555.4</ele>
        <time>2021-09-12T11:38:13Z</time>
      </trkpt>
      <trkpt lat="44.03819" lon="6.51271">
        <ele>1555.9</ele>
        <time>2021-09-12T11:38:17Z</time>
      </trkpt>
      <trkpt lat="44.03815" lon="6.51278">
        <ele>1556.4</ele>
        <time>2021-09-12T11:38:21Z</time>
      </trkpt>
      <trkpt lat="44.03812" lon="6.51285">
        <ele>1556.9</ele>
        <time>2021-09-12T11:38:24Z</time>
      </trkpt>
      <trkpt lat="44.03809" lon="6.51292">
        <ele>1557.4</ele>
        <time>2021-09-12T11:38:27Z</time>
      </trkpt>
      <trkpt lat="44.03802" lon="6.51314">
        <ele>1558.7</ele>
        <time>2021-09-12T11:38:35Z</time>
      </trkpt>
      <trkpt lat="44.03795" lon="6.51333">
        <ele>1559.7</ele>
        <time>2021-09-12T11:38:42Z</time>
      </trkpt>
      <trkpt lat="44.03791" lon="6.51346">
        <ele>1560.3</ele>
        <time>2021-09-12T11:38:46Z</time>
      </trkpt>
      <trkpt lat="44.03789" lon="6.51354">
        <ele>1560.7</ele>
        <time>2021-09-12T11:38:48Z</time>
      </trkpt>
      <trkpt lat="44.03788" lon="6.51362">
        <ele>1561</ele>
        <time>2021-09-12T11:38:50Z</time>
      </trkpt>
      <trkpt lat="44.03786" lon="6.5137">
        <ele>1561.2</ele>
        <time>2021-09-12T11:38:53Z</time>
      </trkpt>
      <trkpt lat="44.03785" lon="6.51378">
        <ele>1561.3</ele>
        <time>2021-09-12T11:38:55Z</time>
      </trkpt>
      <trkpt lat="44.03784" lon="6.51387">
        <ele>1561.4</ele>
        <time>2021-09-12T11:38:57Z</time>
      </trkpt>
      <trkpt lat="44.03782" lon="6.51396">
        <ele>1561.4</ele>
        <time>2021-09-12T11:38:59Z</time>
      </trkpt>
      <trkpt lat="44.0378" lon="6.51405">
        <ele>1561.5</ele>
        <time>2021-09-12T11:39:00Z</time>
      </trkpt>
      <trkpt lat="44.03777" lon="6.51413">
        <ele>1561.6</ele>
        <time>2021-09-12T11:39:02Z</time>
      </trkpt>
      <trkpt lat="44.03772" lon="6.51431">
        <ele>1562</ele>
        <time>2021-09-12T11:39:06Z</time>
      </trkpt>
      <trkpt lat="44.03766" lon="6.51448">
        <ele>1562.6</ele>
        <time>2021-09-12T11:39:09Z</time>
      </trkpt>
      <trkpt lat="44.03763" lon="6.51457">
        <ele>1562.8</ele>
        <time>2021-09-12T11:39:11Z</time>
      </trkpt>
      <trkpt lat="44.0376" lon="6.51466">
        <ele>1563.1</ele>
        <time>2021-09-12T11:39:13Z</time>
      </trkpt>
      <trkpt lat="44.03756" lon="6.51474">
        <ele>1563.4</ele>
        <time>2021-09-12T11:39:15Z</time>
      </trkpt>
      <trkpt lat="44.03752" lon="6.51482">
        <ele>1563.7</ele>
        <time>2021-09-12T11:39:17Z</time>
      </trkpt>
      <trkpt lat="44.03748" lon="6.5149">
        <ele>1564</ele>
        <time>2021-09-12T11:39:20Z</time>
      </trkpt>
      <trkpt lat="44.03743" lon="6.51498">
        <ele>1564.3</ele>
        <time>2021-09-12T11:39:23Z</time>
      </trkpt>
      <trkpt lat="44.0374" lon="6.51504">
        <ele>1564.5</ele>
        <time>2021-09-12T11:39:25Z</time>
      </trkpt>
      <trkpt lat="44.03736" lon="6.51509">
        <ele>1564.7</ele>
        <time>2021-09-12T11:39:27Z</time>
      </trkpt>
      <trkpt lat="44.03732" lon="6.51514">
        <ele>1564.9</ele>
        <time>2021-09-12T11:39:29Z</time>
      </trkpt>
      <trkpt lat="44.03728" lon="6.51519">
        <ele>1564.9</ele>
        <time>2021-09-12T11:39:31Z</time>
      </trkpt>
      <trkpt lat="44.03724" lon="6.51523">
        <ele>1564.8</ele>
        <time>2021-09-12T11:39:33Z</time>
      </trkpt>
      <trkpt lat="44.03719" lon="6.51528">
        <ele>1564.7</ele>
        <time>2021-09-12T11:39:36Z</time>
      </trkpt>
      <trkpt lat="44.03714" lon="6.51531">
        <ele>1564.7</ele>
        <time>2021-09-12T11:39:38Z</time>
      </trkpt>
      <trkpt lat="44.03708" lon="6.51534">
        <ele>1564.6</ele>
        <time>2021-09-12T11:39:40Z</time>
      </trkpt>
      <trkpt lat="44.03702" lon="6.51536">
        <ele>1564.5</ele>
        <time>2021-09-12T11:39:42Z</time>
      </trkpt>
      <trkpt lat="44.03695" lon="6.51536">
        <ele>1564.4</ele>
        <time>2021-09-12T11:39:44Z</time>
      </trkpt>
      <trkpt lat="44.0369" lon="6.51537">
        <ele>1564.4</ele>
        <time>2021-09-12T11:39:46Z</time>
      </trkpt>
      <trkpt lat="44.03685" lon="6.51536">
        <ele>1564.3</ele>
        <time>2021-09-12T11:39:47Z</time>
      </trkpt>
      <trkpt lat="44.0368" lon="6.51535">
        <ele>1564.2</ele>
        <time>2021-09-12T11:39:49Z</time>
      </trkpt>
      <trkpt lat="44.03675" lon="6.51534">
        <ele>1564.2</ele>
        <time>2021-09-12T11:39:50Z</time>
      </trkpt>
      <trkpt lat="44.0367" lon="6.51533">
        <ele>1564.1</ele>
        <time>2021-09-12T11:39:52Z</time>
      </trkpt>
      <trkpt lat="44.03665" lon="6.51531">
        <ele>1564</ele>
        <time>2021-09-12T11:39:54Z</time>
      </trkpt>
      <trkpt lat="44.03659" lon="6.51527">
        <ele>1564</ele>
        <time>2021-09-12T11:39:56Z</time>
      </trkpt>
      <trkpt lat="44.03653" lon="6.51523">
        <ele>1564</ele>
        <time>2021-09-12T11:39:59Z</time>
      </trkpt>
      <trkpt lat="44.03648" lon="6.51519">
        <ele>1564</ele>
        <time>2021-09-12T11:40:01Z</time>
      </trkpt>
      <trkpt lat="44.03643" lon="6.51513">
        <ele>1564</ele>
        <time>2021-09-12T11:40:03Z</time>
      </trkpt>
      <trkpt lat="44.03632" lon="6.515">
        <ele>1564.1</ele>
        <time>2021-09-12T11:40:09Z</time>
      </trkpt>
      <trkpt lat="44.03623" lon="6.51491">
        <ele>1564.2</ele>
        <time>2021-09-12T11:40:13Z</time>
      </trkpt>
      <trkpt lat="44.03613" lon="6.51488">
        <ele>1564.4</ele>
        <time>2021-09-12T11:40:17Z</time>
      </trkpt>
      <trkpt lat="44.0361" lon="6.51486">
        <ele>1564.4</ele>
        <time>2021-09-12T11:40:19Z</time>
      </trkpt>
      <trkpt lat="44.03607" lon="6.51484">
        <ele>1564.5</ele>
        <time>2021-09-12T11:40:20Z</time>
      </trkpt>
      <trkpt lat="44.03605" lon="6.51482">
        <ele>1564.5</ele>
        <time>2021-09-12T11:40:21Z</time>
      </trkpt>
      <trkpt lat="44.03603" lon="6.5148">
        <ele>1564.5</ele>
        <time>2021-09-12T11:40:22Z</time>
      </trkpt>
      <trkpt lat="44.036" lon="6.51478">
        <ele>1564.5</ele>
        <time>2021-09-12T11:40:23Z</time>
      </trkpt>
      <trkpt lat="44.03597" lon="6.51477">
        <ele>1564.5</ele>
        <time>2021-09-12T11:40:24Z</time>
      </trkpt>
      <trkpt lat="44.03593" lon="6.51475">
        <ele>1564.5</ele>
        <time>2021-09-12T11:40:26Z</time>
      </trkpt>
      <trkpt lat="44.0359" lon="6.51474">
        <ele>1564.5</ele>
        <time>2021-09-12T11:40:27Z</time>
      </trkpt>
      <trkpt lat="44.03587" lon="6.51474">
        <ele>1564.5</ele>
        <time>2021-09-12T11:40:29Z</time>
      </trkpt>
      <trkpt lat="44.03585" lon="6.51472">
        <ele>1564.4</ele>
        <time>2021-09-12T11:40:30Z</time>
      </trkpt>
      <trkpt lat="44.03582" lon="6.5147">
        <ele>1564.4</ele>
        <time>2021-09-12T11:40:31Z</time>
      </trkpt>
      <trkpt lat="44.03581" lon="6.51467">
        <ele>1564.4</ele>
        <time>2021-09-12T11:40:33Z</time>
      </trkpt>
      <trkpt lat="44.03578" lon="6.51463">
        <ele>1564.4</ele>
        <time>2021-09-12T11:40:35Z</time>
      </trkpt>
      <trkpt lat="44.03576" lon="6.5146">
        <ele>1564.4</ele>
        <time>2021-09-12T11:40:36Z</time>
      </trkpt>
      <trkpt lat="44.03573" lon="6.51457">
        <ele>1564.4</ele>
        <time>2021-09-12T11:40:38Z</time>
      </trkpt>
      <trkpt lat="44.03571" lon="6.51455">
        <ele>1564.3</ele>
        <time>2021-09-12T11:40:39Z</time>
      </trkpt>
      <trkpt lat="44.03568" lon="6.51453">
        <ele>1564.3</ele>
        <time>2021-09-12T11:40:40Z</time>
      </trkpt>
      <trkpt lat="44.03565" lon="6.51451">
        <ele>1564.3</ele>
        <time>2021-09-12T11:40:41Z</time>
      </trkpt>
      <trkpt lat="44.03561" lon="6.51449">
        <ele>1564.3</ele>
        <time>2021-09-12T11:40:43Z</time>
      </trkpt>
      <trkpt lat="44.03558" lon="6.51446">
        <ele>1564.3</ele>
        <time>2021-09-12T11:40:45Z</time>
      </trkpt>
      <trkpt lat="44.03555" lon="6.51443">
        <ele>1564.2</ele>
        <time>2021-09-12T11:40:46Z</time>
      </trkpt>
      <trkpt lat="44.03552" lon="6.51439">
        <ele>1564.2</ele>
        <time>2021-09-12T11:40:48Z</time>
      </trkpt>
      <trkpt lat="44.0355" lon="6.51437">
        <ele>1564.2</ele>
        <time>2021-09-12T11:40:49Z</time>
      </trkpt>
      <trkpt lat="44.03548" lon="6.51436">
        <ele>1564.2</ele>
        <time>2021-09-12T11:40:50Z</time>
      </trkpt>
      <trkpt lat="44.03545" lon="6.51435">
        <ele>1564.2</ele>
        <time>2021-09-12T11:40:51Z</time>
      </trkpt>
      <trkpt lat="44.03543" lon="6.51434">
        <ele>1564.2</ele>
        <time>2021-09-12T11:40:52Z</time>
      </trkpt>
      <trkpt lat="44.0354" lon="6.51434">
        <ele>1564.2</ele>
        <time>2021-09-12T11:40:53Z</time>
      </trkpt>
      <trkpt lat="44.03537" lon="6.51435">
        <ele>1564.2</ele>
        <time>2021-09-12T11:40:55Z</time>
      </trkpt>
      <trkpt lat="44.03534" lon="6.51435">
        <ele>1564.3</ele>
        <time>2021-09-12T11:40:57Z</time>
      </trkpt>
      <trkpt lat="44.03531" lon="6.51435">
        <ele>1564.3</ele>
        <time>2021-09-12T11:40:59Z</time>
      </trkpt>
      <trkpt lat="44.03528" lon="6.51433">
        <ele>1564.3</ele>
        <time>2021-09-12T11:41:01Z</time>
      </trkpt>
      <trkpt lat="44.03526" lon="6.51431">
        <ele>1564.3</ele>
        <time>2021-09-12T11:41:03Z</time>
      </trkpt>
      <trkpt lat="44.03523" lon="6.51428">
        <ele>1564.4</ele>
        <time>2021-09-12T11:41:05Z</time>
      </trkpt>
      <trkpt lat="44.03522" lon="6.51425">
        <ele>1564.4</ele>
        <time>2021-09-12T11:41:07Z</time>
      </trkpt>
      <trkpt lat="44.03522" lon="6.51422">
        <ele>1564.4</ele>
        <time>2021-09-12T11:41:08Z</time>
      </trkpt>
      <trkpt lat="44.03522" lon="6.51419">
        <ele>1564.5</ele>
        <time>2021-09-12T11:41:09Z</time>
      </trkpt>
      <trkpt lat="44.03522" lon="6.51414">
        <ele>1564.5</ele>
        <time>2021-09-12T11:41:10Z</time>
      </trkpt>
      <trkpt lat="44.0352" lon="6.5141">
        <ele>1564.6</ele>
        <time>2021-09-12T11:41:11Z</time>
      </trkpt>
      <trkpt lat="44.03518" lon="6.51407">
        <ele>1564.6</ele>
        <time>2021-09-12T11:41:12Z</time>
      </trkpt>
      <trkpt lat="44.03513" lon="6.51402">
        <ele>1564.7</ele>
        <time>2021-09-12T11:41:13Z</time>
      </trkpt>
      <trkpt lat="44.0351" lon="6.51398">
        <ele>1564.8</ele>
        <time>2021-09-12T11:41:14Z</time>
      </trkpt>
      <trkpt lat="44.03506" lon="6.5139">
        <ele>1564.8</ele>
        <time>2021-09-12T11:41:15Z</time>
      </trkpt>
      <trkpt lat="44.03504" lon="6.51386">
        <ele>1564.8</ele>
        <time>2021-09-12T11:41:16Z</time>
      </trkpt>
      <trkpt lat="44.03502" lon="6.51376">
        <ele>1564.8</ele>
        <time>2021-09-12T11:41:17Z</time>
      </trkpt>
      <trkpt lat="44.03501" lon="6.51371">
        <ele>1564.7</ele>
        <time>2021-09-12T11:41:18Z</time>
      </trkpt>
      <trkpt lat="44.03501" lon="6.51366">
        <ele>1564.7</ele>
        <time>2021-09-12T11:41:19Z</time>
      </trkpt>
      <trkpt lat="44.03493" lon="6.51366">
        <ele>1564.5</ele>
        <time>2021-09-12T11:41:20Z</time>
      </trkpt>
      <trkpt lat="44.03473" lon="6.51365">
        <ele>1564</ele>
        <time>2021-09-12T11:41:24Z</time>
      </trkpt>
      <trkpt lat="44.03461" lon="6.51364">
        <ele>1563.8</ele>
        <time>2021-09-12T11:41:26Z</time>
      </trkpt>
      <trkpt lat="44.03457" lon="6.51362">
        <ele>1563.7</ele>
        <time>2021-09-12T11:41:27Z</time>
      </trkpt>
      <trkpt lat="44.03452" lon="6.51361">
        <ele>1563.6</ele>
        <time>2021-09-12T11:41:28Z</time>
      </trkpt>
      <trkpt lat="44.03448" lon="6.51358">
        <ele>1563.5</ele>
        <time>2021-09-12T11:41:29Z</time>
      </trkpt>
      <trkpt lat="44.03444" lon="6.51355">
        <ele>1563.3</ele>
        <time>2021-09-12T11:41:30Z</time>
      </trkpt>
      <trkpt lat="44.0344" lon="6.51352">
        <ele>1563.2</ele>
        <time>2021-09-12T11:41:31Z</time>
      </trkpt>
      <trkpt lat="44.03437" lon="6.51348">
        <ele>1563.1</ele>
        <time>2021-09-12T11:41:32Z</time>
      </trkpt>
      <trkpt lat="44.03434" lon="6.51343">
        <ele>1563</ele>
        <time>2021-09-12T11:41:33Z</time>
      </trkpt>
      <trkpt lat="44.03431" lon="6.51334">
        <ele>1562.9</ele>
        <time>2021-09-12T11:41:35Z</time>
      </trkpt>
      <trkpt lat="44.03431" lon="6.5133">
        <ele>1562.9</ele>
        <time>2021-09-12T11:41:36Z</time>
      </trkpt>
      <trkpt lat="44.03431" lon="6.51326">
        <ele>1562.9</ele>
        <time>2021-09-12T11:41:37Z</time>
      </trkpt>
      <trkpt lat="44.03432" lon="6.51322">
        <ele>1562.8</ele>
        <time>2021-09-12T11:41:38Z</time>
      </trkpt>
      <trkpt lat="44.03436" lon="6.51307">
        <ele>1562.7</ele>
        <time>2021-09-12T11:41:41Z</time>
      </trkpt>
      <trkpt lat="44.03438" lon="6.51298">
        <ele>1562.7</ele>
        <time>2021-09-12T11:41:42Z</time>
      </trkpt>
      <trkpt lat="44.0344" lon="6.51289">
        <ele>1562.5</ele>
        <time>2021-09-12T11:41:43Z</time>
      </trkpt>
      <trkpt lat="44.03441" lon="6.5128">
        <ele>1562.4</ele>
        <time>2021-09-12T11:41:45Z</time>
      </trkpt>
      <trkpt lat="44.03442" lon="6.51271">
        <ele>1562.2</ele>
        <time>2021-09-12T11:41:46Z</time>
      </trkpt>
      <trkpt lat="44.03443" lon="6.51248">
        <ele>1561.8</ele>
        <time>2021-09-12T11:41:49Z</time>
      </trkpt>
      <trkpt lat="44.03443" lon="6.51239">
        <ele>1561.6</ele>
        <time>2021-09-12T11:41:50Z</time>
      </trkpt>
      <trkpt lat="44.03443" lon="6.5123">
        <ele>1561.4</ele>
        <time>2021-09-12T11:41:51Z</time>
      </trkpt>
      <trkpt lat="44.03443" lon="6.51221">
        <ele>1561.3</ele>
        <time>2021-09-12T11:41:52Z</time>
      </trkpt>
      <trkpt lat="44.03442" lon="6.51212">
        <ele>1561.2</ele>
        <time>2021-09-12T11:41:54Z</time>
      </trkpt>
      <trkpt lat="44.03441" lon="6.51202">
        <ele>1561.1</ele>
        <time>2021-09-12T11:41:55Z</time>
      </trkpt>
      <trkpt lat="44.03439" lon="6.51193">
        <ele>1561</ele>
        <time>2021-09-12T11:41:56Z</time>
      </trkpt>
      <trkpt lat="44.03437" lon="6.51184">
        <ele>1560.8</ele>
        <time>2021-09-12T11:41:57Z</time>
      </trkpt>
      <trkpt lat="44.03435" lon="6.51175">
        <ele>1560.7</ele>
        <time>2021-09-12T11:41:58Z</time>
      </trkpt>
      <trkpt lat="44.03432" lon="6.51166">
        <ele>1560.5</ele>
        <time>2021-09-12T11:41:59Z</time>
      </trkpt>
      <trkpt lat="44.03429" lon="6.51158">
        <ele>1560.4</ele>
        <time>2021-09-12T11:42:00Z</time>
      </trkpt>
      <trkpt lat="44.03424" lon="6.51148">
        <ele>1560.3</ele>
        <time>2021-09-12T11:42:01Z</time>
      </trkpt>
      <trkpt lat="44.03421" lon="6.51144">
        <ele>1560.3</ele>
        <time>2021-09-12T11:42:02Z</time>
      </trkpt>
      <trkpt lat="44.03415" lon="6.51136">
        <ele>1560.2</ele>
        <time>2021-09-12T11:42:03Z</time>
      </trkpt>
      <trkpt lat="44.03411" lon="6.51133">
        <ele>1560.1</ele>
        <time>2021-09-12T11:42:04Z</time>
      </trkpt>
      <trkpt lat="44.03396" lon="6.51115">
        <ele>1559.9</ele>
        <time>2021-09-12T11:42:08Z</time>
      </trkpt>
      <trkpt lat="44.0339" lon="6.51109">
        <ele>1559.9</ele>
        <time>2021-09-12T11:42:10Z</time>
      </trkpt>
      <trkpt lat="44.03384" lon="6.51104">
        <ele>1559.8</ele>
        <time>2021-09-12T11:42:12Z</time>
      </trkpt>
      <trkpt lat="44.03378" lon="6.511">
        <ele>1559.6</ele>
        <time>2021-09-12T11:42:14Z</time>
      </trkpt>
      <trkpt lat="44.03372" lon="6.51097">
        <ele>1559.5</ele>
        <time>2021-09-12T11:42:15Z</time>
      </trkpt>
      <trkpt lat="44.03367" lon="6.51095">
        <ele>1559.5</ele>
        <time>2021-09-12T11:42:17Z</time>
      </trkpt>
      <trkpt lat="44.03361" lon="6.51093">
        <ele>1559.4</ele>
        <time>2021-09-12T11:42:19Z</time>
      </trkpt>
      <trkpt lat="44.03356" lon="6.51093">
        <ele>1559.3</ele>
        <time>2021-09-12T11:42:20Z</time>
      </trkpt>
      <trkpt lat="44.0335" lon="6.51094">
        <ele>1559.2</ele>
        <time>2021-09-12T11:42:21Z</time>
      </trkpt>
      <trkpt lat="44.03344" lon="6.51095">
        <ele>1559.1</ele>
        <time>2021-09-12T11:42:23Z</time>
      </trkpt>
      <trkpt lat="44.03338" lon="6.51096">
        <ele>1559</ele>
        <time>2021-09-12T11:42:24Z</time>
      </trkpt>
      <trkpt lat="44.03332" lon="6.51098">
        <ele>1558.9</ele>
        <time>2021-09-12T11:42:25Z</time>
      </trkpt>
      <trkpt lat="44.03325" lon="6.511">
        <ele>1558.8</ele>
        <time>2021-09-12T11:42:27Z</time>
      </trkpt>
      <trkpt lat="44.03318" lon="6.51104">
        <ele>1558.6</ele>
        <time>2021-09-12T11:42:28Z</time>
      </trkpt>
      <trkpt lat="44.0331" lon="6.51109">
        <ele>1558.3</ele>
        <time>2021-09-12T11:42:29Z</time>
      </trkpt>
      <trkpt lat="44.03303" lon="6.51115">
        <ele>1558.1</ele>
        <time>2021-09-12T11:42:31Z</time>
      </trkpt>
      <trkpt lat="44.03296" lon="6.51121">
        <ele>1557.9</ele>
        <time>2021-09-12T11:42:32Z</time>
      </trkpt>
      <trkpt lat="44.03289" lon="6.51128">
        <ele>1557.7</ele>
        <time>2021-09-12T11:42:33Z</time>
      </trkpt>
      <trkpt lat="44.03286" lon="6.51133">
        <ele>1557.6</ele>
        <time>2021-09-12T11:42:34Z</time>
      </trkpt>
      <trkpt lat="44.03281" lon="6.51142">
        <ele>1557.5</ele>
        <time>2021-09-12T11:42:35Z</time>
      </trkpt>
      <trkpt lat="44.03278" lon="6.51152">
        <ele>1557.4</ele>
        <time>2021-09-12T11:42:36Z</time>
      </trkpt>
      <trkpt lat="44.03276" lon="6.51158">
        <ele>1557.3</ele>
        <time>2021-09-12T11:42:37Z</time>
      </trkpt>
      <trkpt lat="44.03275" lon="6.51163">
        <ele>1557.2</ele>
        <time>2021-09-12T11:42:38Z</time>
      </trkpt>
      <trkpt lat="44.03275" lon="6.51168">
        <ele>1557.1</ele>
        <time>2021-09-12T11:42:39Z</time>
      </trkpt>
      <trkpt lat="44.03275" lon="6.51174">
        <ele>1556.9</ele>
        <time>2021-09-12T11:42:40Z</time>
      </trkpt>
      <trkpt lat="44.03275" lon="6.51179">
        <ele>1556.8</ele>
        <time>2021-09-12T11:42:41Z</time>
      </trkpt>
      <trkpt lat="44.03274" lon="6.51196">
        <ele>1556.3</ele>
        <time>2021-09-12T11:42:45Z</time>
      </trkpt>
      <trkpt lat="44.03274" lon="6.51198">
        <ele>1556.3</ele>
        <time>2021-09-12T11:42:46Z</time>
      </trkpt>
      <trkpt lat="44.03274" lon="6.512">
        <ele>1556.2</ele>
        <time>2021-09-12T11:42:47Z</time>
      </trkpt>
      <trkpt lat="44.03273" lon="6.51202">
        <ele>1556.1</ele>
        <time>2021-09-12T11:42:49Z</time>
      </trkpt>
      <trkpt lat="44.03272" lon="6.51203">
        <ele>1556.1</ele>
        <time>2021-09-12T11:42:50Z</time>
      </trkpt>
      <trkpt lat="44.03271" lon="6.51204">
        <ele>1556</ele>
        <time>2021-09-12T11:42:52Z</time>
      </trkpt>
      <trkpt lat="44.0327" lon="6.51205">
        <ele>1556</ele>
        <time>2021-09-12T11:42:53Z</time>
      </trkpt>
      <trkpt lat="44.03247" lon="6.51216">
        <ele>1555.2</ele>
        <time>2021-09-12T11:43:11Z</time>
      </trkpt>
      <trkpt lat="44.03234" lon="6.51223">
        <ele>1555</ele>
        <time>2021-09-12T11:43:18Z</time>
      </trkpt>
      <trkpt lat="44.03229" lon="6.51226">
        <ele>1555</ele>
        <time>2021-09-12T11:43:20Z</time>
      </trkpt>
      <trkpt lat="44.03224" lon="6.51229">
        <ele>1554.8</ele>
        <time>2021-09-12T11:43:22Z</time>
      </trkpt>
      <trkpt lat="44.0322" lon="6.51233">
        <ele>1554.7</ele>
        <time>2021-09-12T11:43:23Z</time>
      </trkpt>
      <trkpt lat="44.03216" lon="6.51238">
        <ele>1554.6</ele>
        <time>2021-09-12T11:43:24Z</time>
      </trkpt>
      <trkpt lat="44.03212" lon="6.51242">
        <ele>1554.5</ele>
        <time>2021-09-12T11:43:25Z</time>
      </trkpt>
      <trkpt lat="44.03209" lon="6.51247">
        <ele>1554.4</ele>
        <time>2021-09-12T11:43:26Z</time>
      </trkpt>
      <trkpt lat="44.03205" lon="6.51251">
        <ele>1554.4</ele>
        <time>2021-09-12T11:43:27Z</time>
      </trkpt>
      <trkpt lat="44.03202" lon="6.51256">
        <ele>1554.3</ele>
        <time>2021-09-12T11:43:28Z</time>
      </trkpt>
      <trkpt lat="44.03195" lon="6.51265">
        <ele>1554.2</ele>
        <time>2021-09-12T11:43:29Z</time>
      </trkpt>
      <trkpt lat="44.03188" lon="6.51273">
        <ele>1554.2</ele>
        <time>2021-09-12T11:43:31Z</time>
      </trkpt>
      <trkpt lat="44.03181" lon="6.51281">
        <ele>1554.1</ele>
        <time>2021-09-12T11:43:33Z</time>
      </trkpt>
      <trkpt lat="44.03173" lon="6.51288">
        <ele>1554</ele>
        <time>2021-09-12T11:43:35Z</time>
      </trkpt>
      <trkpt lat="44.03163" lon="6.51299">
        <ele>1553.7</ele>
        <time>2021-09-12T11:43:37Z</time>
      </trkpt>
      <trkpt lat="44.0316" lon="6.51304">
        <ele>1553.5</ele>
        <time>2021-09-12T11:43:38Z</time>
      </trkpt>
      <trkpt lat="44.03157" lon="6.5131">
        <ele>1553.3</ele>
        <time>2021-09-12T11:43:39Z</time>
      </trkpt>
      <trkpt lat="44.03154" lon="6.51315">
        <ele>1553.2</ele>
        <time>2021-09-12T11:43:40Z</time>
      </trkpt>
      <trkpt lat="44.03152" lon="6.51321">
        <ele>1553.1</ele>
        <time>2021-09-12T11:43:41Z</time>
      </trkpt>
      <trkpt lat="44.03151" lon="6.51327">
        <ele>1552.9</ele>
        <time>2021-09-12T11:43:42Z</time>
      </trkpt>
      <trkpt lat="44.0315" lon="6.51334">
        <ele>1552.8</ele>
        <time>2021-09-12T11:43:43Z</time>
      </trkpt>
      <trkpt lat="44.0315" lon="6.5134">
        <ele>1552.6</ele>
        <time>2021-09-12T11:43:44Z</time>
      </trkpt>
      <trkpt lat="44.0315" lon="6.51346">
        <ele>1552.5</ele>
        <time>2021-09-12T11:43:45Z</time>
      </trkpt>
      <trkpt lat="44.0315" lon="6.51355">
        <ele>1552.2</ele>
        <time>2021-09-12T11:43:46Z</time>
      </trkpt>
      <trkpt lat="44.0315" lon="6.51364">
        <ele>1551.9</ele>
        <time>2021-09-12T11:43:49Z</time>
      </trkpt>
      <trkpt lat="44.03149" lon="6.51372">
        <ele>1551.7</ele>
        <time>2021-09-12T11:43:51Z</time>
      </trkpt>
      <trkpt lat="44.03148" lon="6.51381">
        <ele>1551.4</ele>
        <time>2021-09-12T11:43:54Z</time>
      </trkpt>
      <trkpt lat="44.03145" lon="6.5141">
        <ele>1550.7</ele>
        <time>2021-09-12T11:44:10Z</time>
      </trkpt>
      <trkpt lat="44.03144" lon="6.51419">
        <ele>1550.5</ele>
        <time>2021-09-12T11:44:16Z</time>
      </trkpt>
      <trkpt lat="44.03143" lon="6.51429">
        <ele>1550.4</ele>
        <time>2021-09-12T11:44:27Z</time>
      </trkpt>
      <trkpt lat="44.03143" lon="6.51438">
        <ele>1550.1</ele>
        <time>2021-09-12T11:44:37Z</time>
      </trkpt>
      <trkpt lat="44.03143" lon="6.51448">
        <ele>1549.9</ele>
        <time>2021-09-12T11:44:48Z</time>
      </trkpt>
      <trkpt lat="44.03143" lon="6.51461">
        <ele>1549.5</ele>
        <time>2021-09-12T11:44:59Z</time>
      </trkpt>
      <trkpt lat="44.03144" lon="6.51464">
        <ele>1549.4</ele>
        <time>2021-09-12T11:45:01Z</time>
      </trkpt>
      <trkpt lat="44.03143" lon="6.51466">
        <ele>1549.3</ele>
        <time>2021-09-12T11:45:03Z</time>
      </trkpt>
      <trkpt lat="44.03142" lon="6.51469">
        <ele>1549.2</ele>
        <time>2021-09-12T11:45:05Z</time>
      </trkpt>
      <trkpt lat="44.0314" lon="6.5147">
        <ele>1549.1</ele>
        <time>2021-09-12T11:45:06Z</time>
      </trkpt>
      <trkpt lat="44.03138" lon="6.51471">
        <ele>1548.9</ele>
        <time>2021-09-12T11:45:07Z</time>
      </trkpt>
      <trkpt lat="44.03136" lon="6.51472">
        <ele>1548.8</ele>
        <time>2021-09-12T11:45:08Z</time>
      </trkpt>
      <trkpt lat="44.03132" lon="6.51469">
        <ele>1548.5</ele>
        <time>2021-09-12T11:45:09Z</time>
      </trkpt>
      <trkpt lat="44.03128" lon="6.51466">
        <ele>1548.1</ele>
        <time>2021-09-12T11:45:10Z</time>
      </trkpt>
      <trkpt lat="44.03124" lon="6.51463">
        <ele>1547.7</ele>
        <time>2021-09-12T11:45:11Z</time>
      </trkpt>
      <trkpt lat="44.0312" lon="6.51459">
        <ele>1547.2</ele>
        <time>2021-09-12T11:45:12Z</time>
      </trkpt>
      <trkpt lat="44.03101" lon="6.51437">
        <ele>1545</ele>
        <time>2021-09-12T11:45:17Z</time>
      </trkpt>
      <trkpt lat="44.03096" lon="6.5143">
        <ele>1544.4</ele>
        <time>2021-09-12T11:45:18Z</time>
      </trkpt>
      <trkpt lat="44.03092" lon="6.51422">
        <ele>1543.9</ele>
        <time>2021-09-12T11:45:19Z</time>
      </trkpt>
      <trkpt lat="44.03081" lon="6.514">
        <ele>1542.4</ele>
        <time>2021-09-12T11:45:22Z</time>
      </trkpt>
      <trkpt lat="44.03074" lon="6.51387">
        <ele>1541.4</ele>
        <time>2021-09-12T11:45:23Z</time>
      </trkpt>
      <trkpt lat="44.0307" lon="6.5138">
        <ele>1540.8</ele>
        <time>2021-09-12T11:45:24Z</time>
      </trkpt>
      <trkpt lat="44.03065" lon="6.51374">
        <ele>1540.2</ele>
        <time>2021-09-12T11:45:25Z</time>
      </trkpt>
      <trkpt lat="44.03061" lon="6.51369">
        <ele>1539.7</ele>
        <time>2021-09-12T11:45:26Z</time>
      </trkpt>
      <trkpt lat="44.03056" lon="6.51363">
        <ele>1539.1</ele>
        <time>2021-09-12T11:45:27Z</time>
      </trkpt>
      <trkpt lat="44.03044" lon="6.51352">
        <ele>1538</ele>
        <time>2021-09-12T11:45:29Z</time>
      </trkpt>
      <trkpt lat="44.03039" lon="6.51345">
        <ele>1537.5</ele>
        <time>2021-09-12T11:45:30Z</time>
      </trkpt>
      <trkpt lat="44.03034" lon="6.51337">
        <ele>1536.9</ele>
        <time>2021-09-12T11:45:31Z</time>
      </trkpt>
      <trkpt lat="44.03029" lon="6.5133">
        <ele>1536.3</ele>
        <time>2021-09-12T11:45:32Z</time>
      </trkpt>
      <trkpt lat="44.03024" lon="6.51322">
        <ele>1535.8</ele>
        <time>2021-09-12T11:45:33Z</time>
      </trkpt>
      <trkpt lat="44.03018" lon="6.51313">
        <ele>1535.1</ele>
        <time>2021-09-12T11:45:34Z</time>
      </trkpt>
      <trkpt lat="44.03013" lon="6.51304">
        <ele>1534.4</ele>
        <time>2021-09-12T11:45:35Z</time>
      </trkpt>
      <trkpt lat="44.03008" lon="6.51294">
        <ele>1533.6</ele>
        <time>2021-09-12T11:45:36Z</time>
      </trkpt>
      <trkpt lat="44.03003" lon="6.51284">
        <ele>1532.8</ele>
        <time>2021-09-12T11:45:38Z</time>
      </trkpt>
      <trkpt lat="44.02995" lon="6.51262">
        <ele>1531.2</ele>
        <time>2021-09-12T11:45:40Z</time>
      </trkpt>
      <trkpt lat="44.02984" lon="6.51237">
        <ele>1529.6</ele>
        <time>2021-09-12T11:45:43Z</time>
      </trkpt>
      <trkpt lat="44.02982" lon="6.51231">
        <ele>1529.2</ele>
        <time>2021-09-12T11:45:44Z</time>
      </trkpt>
      <trkpt lat="44.02979" lon="6.51225">
        <ele>1528.8</ele>
        <time>2021-09-12T11:45:45Z</time>
      </trkpt>
      <trkpt lat="44.02972" lon="6.51215">
        <ele>1528</ele>
        <time>2021-09-12T11:45:46Z</time>
      </trkpt>
      <trkpt lat="44.02967" lon="6.51211">
        <ele>1527.5</ele>
        <time>2021-09-12T11:45:47Z</time>
      </trkpt>
      <trkpt lat="44.02959" lon="6.51205">
        <ele>1526.6</ele>
        <time>2021-09-12T11:45:48Z</time>
      </trkpt>
      <trkpt lat="44.0295" lon="6.51202">
        <ele>1525.6</ele>
        <time>2021-09-12T11:45:49Z</time>
      </trkpt>
      <trkpt lat="44.02945" lon="6.51202">
        <ele>1525</ele>
        <time>2021-09-12T11:45:50Z</time>
      </trkpt>
      <trkpt lat="44.02936" lon="6.51203">
        <ele>1524.1</ele>
        <time>2021-09-12T11:45:51Z</time>
      </trkpt>
      <trkpt lat="44.02931" lon="6.51205">
        <ele>1523.6</ele>
        <time>2021-09-12T11:45:52Z</time>
      </trkpt>
      <trkpt lat="44.02925" lon="6.51208">
        <ele>1523</ele>
        <time>2021-09-12T11:45:53Z</time>
      </trkpt>
      <trkpt lat="44.0292" lon="6.51211">
        <ele>1522.5</ele>
        <time>2021-09-12T11:45:54Z</time>
      </trkpt>
      <trkpt lat="44.02912" lon="6.51219">
        <ele>1521.4</ele>
        <time>2021-09-12T11:45:55Z</time>
      </trkpt>
      <trkpt lat="44.02909" lon="6.51224">
        <ele>1520.8</ele>
        <time>2021-09-12T11:45:56Z</time>
      </trkpt>
      <trkpt lat="44.02904" lon="6.51234">
        <ele>1519.6</ele>
        <time>2021-09-12T11:45:57Z</time>
      </trkpt>
      <trkpt lat="44.02902" lon="6.51242">
        <ele>1518.6</ele>
        <time>2021-09-12T11:45:58Z</time>
      </trkpt>
      <trkpt lat="44.029" lon="6.51249">
        <ele>1517.8</ele>
        <time>2021-09-12T11:45:59Z</time>
      </trkpt>
      <trkpt lat="44.02899" lon="6.51257">
        <ele>1517</ele>
        <time>2021-09-12T11:46:00Z</time>
      </trkpt>
      <trkpt lat="44.02897" lon="6.51265">
        <ele>1516.3</ele>
        <time>2021-09-12T11:46:01Z</time>
      </trkpt>
      <trkpt lat="44.02895" lon="6.5127">
        <ele>1515.8</ele>
        <time>2021-09-12T11:46:02Z</time>
      </trkpt>
      <trkpt lat="44.02892" lon="6.51275">
        <ele>1515.2</ele>
        <time>2021-09-12T11:46:03Z</time>
      </trkpt>
      <trkpt lat="44.02889" lon="6.51281">
        <ele>1514.6</ele>
        <time>2021-09-12T11:46:04Z</time>
      </trkpt>
      <trkpt lat="44.02886" lon="6.51285">
        <ele>1514.1</ele>
        <time>2021-09-12T11:46:05Z</time>
      </trkpt>
      <trkpt lat="44.02873" lon="6.51302">
        <ele>1512</ele>
        <time>2021-09-12T11:46:10Z</time>
      </trkpt>
      <trkpt lat="44.02862" lon="6.51317">
        <ele>1510.4</ele>
        <time>2021-09-12T11:46:13Z</time>
      </trkpt>
      <trkpt lat="44.0285" lon="6.51335">
        <ele>1508.8</ele>
        <time>2021-09-12T11:46:17Z</time>
      </trkpt>
      <trkpt lat="44.02842" lon="6.51347">
        <ele>1507.9</ele>
        <time>2021-09-12T11:46:20Z</time>
      </trkpt>
      <trkpt lat="44.02837" lon="6.51356">
        <ele>1507.5</ele>
        <time>2021-09-12T11:46:21Z</time>
      </trkpt>
      <trkpt lat="44.02835" lon="6.51361">
        <ele>1507.5</ele>
        <time>2021-09-12T11:46:22Z</time>
      </trkpt>
      <trkpt lat="44.02833" lon="6.51366">
        <ele>1507.4</ele>
        <time>2021-09-12T11:46:23Z</time>
      </trkpt>
      <trkpt lat="44.02831" lon="6.51369">
        <ele>1507.4</ele>
        <time>2021-09-12T11:46:24Z</time>
      </trkpt>
      <trkpt lat="44.02829" lon="6.51372">
        <ele>1507.4</ele>
        <time>2021-09-12T11:46:25Z</time>
      </trkpt>
      <trkpt lat="44.02827" lon="6.51374">
        <ele>1507.4</ele>
        <time>2021-09-12T11:46:26Z</time>
      </trkpt>
      <trkpt lat="44.02824" lon="6.51375">
        <ele>1507.5</ele>
        <time>2021-09-12T11:46:27Z</time>
      </trkpt>
      <trkpt lat="44.02821" lon="6.51375">
        <ele>1507.5</ele>
        <time>2021-09-12T11:46:28Z</time>
      </trkpt>
      <trkpt lat="44.02819" lon="6.51375">
        <ele>1507.6</ele>
        <time>2021-09-12T11:46:29Z</time>
      </trkpt>
      <trkpt lat="44.02784" lon="6.51369">
        <ele>1509.6</ele>
        <time>2021-09-12T11:46:50Z</time>
      </trkpt>
      <trkpt lat="44.02778" lon="6.51368">
        <ele>1510.1</ele>
        <time>2021-09-12T11:46:53Z</time>
      </trkpt>
      <trkpt lat="44.02771" lon="6.51367">
        <ele>1510.5</ele>
        <time>2021-09-12T11:46:57Z</time>
      </trkpt>
      <trkpt lat="44.02765" lon="6.51366">
        <ele>1510.9</ele>
        <time>2021-09-12T11:47:00Z</time>
      </trkpt>
      <trkpt lat="44.02758" lon="6.51366">
        <ele>1511.3</ele>
        <time>2021-09-12T11:47:03Z</time>
      </trkpt>
      <trkpt lat="44.02753" lon="6.51364">
        <ele>1511.6</ele>
        <time>2021-09-12T11:47:05Z</time>
      </trkpt>
      <trkpt lat="44.02749" lon="6.51363">
        <ele>1511.8</ele>
        <time>2021-09-12T11:47:07Z</time>
      </trkpt>
      <trkpt lat="44.02744" lon="6.51363">
        <ele>1512.1</ele>
        <time>2021-09-12T11:47:08Z</time>
      </trkpt>
      <trkpt lat="44.02739" lon="6.51363">
        <ele>1512.4</ele>
        <time>2021-09-12T11:47:10Z</time>
      </trkpt>
      <trkpt lat="44.02734" lon="6.51364">
        <ele>1512.8</ele>
        <time>2021-09-12T11:47:12Z</time>
      </trkpt>
      <trkpt lat="44.0273" lon="6.51365">
        <ele>1513</ele>
        <time>2021-09-12T11:47:13Z</time>
      </trkpt>
      <trkpt lat="44.02725" lon="6.51366">
        <ele>1513.3</ele>
        <time>2021-09-12T11:47:15Z</time>
      </trkpt>
      <trkpt lat="44.0272" lon="6.51366">
        <ele>1513.5</ele>
        <time>2021-09-12T11:47:17Z</time>
      </trkpt>
      <trkpt lat="44.02716" lon="6.51365">
        <ele>1513.7</ele>
        <time>2021-09-12T11:47:19Z</time>
      </trkpt>
      <trkpt lat="44.02711" lon="6.51365">
        <ele>1513.9</ele>
        <time>2021-09-12T11:47:21Z</time>
      </trkpt>
      <trkpt lat="44.02707" lon="6.51365">
        <ele>1514</ele>
        <time>2021-09-12T11:47:23Z</time>
      </trkpt>
      <trkpt lat="44.02702" lon="6.51365">
        <ele>1514.2</ele>
        <time>2021-09-12T11:47:24Z</time>
      </trkpt>
      <trkpt lat="44.02696" lon="6.51365">
        <ele>1514.4</ele>
        <time>2021-09-12T11:47:27Z</time>
      </trkpt>
      <trkpt lat="44.0269" lon="6.51366">
        <ele>1514.5</ele>
        <time>2021-09-12T11:47:29Z</time>
      </trkpt>
      <trkpt lat="44.02683" lon="6.51367">
        <ele>1514.7</ele>
        <time>2021-09-12T11:47:32Z</time>
      </trkpt>
      <trkpt lat="44.02677" lon="6.51368">
        <ele>1514.9</ele>
        <time>2021-09-12T11:47:34Z</time>
      </trkpt>
      <trkpt lat="44.02672" lon="6.51368">
        <ele>1515.1</ele>
        <time>2021-09-12T11:47:36Z</time>
      </trkpt>
      <trkpt lat="44.02666" lon="6.51367">
        <ele>1515.3</ele>
        <time>2021-09-12T11:47:38Z</time>
      </trkpt>
      <trkpt lat="44.0266" lon="6.51368">
        <ele>1515.5</ele>
        <time>2021-09-12T11:47:40Z</time>
      </trkpt>
      <trkpt lat="44.02655" lon="6.51368">
        <ele>1515.7</ele>
        <time>2021-09-12T11:47:42Z</time>
      </trkpt>
      <trkpt lat="44.0265" lon="6.51368">
        <ele>1515.9</ele>
        <time>2021-09-12T11:47:44Z</time>
      </trkpt>
      <trkpt lat="44.02645" lon="6.51369">
        <ele>1516</ele>
        <time>2021-09-12T11:47:46Z</time>
      </trkpt>
      <trkpt lat="44.0264" lon="6.51371">
        <ele>1516.2</ele>
        <time>2021-09-12T11:47:48Z</time>
      </trkpt>
      <trkpt lat="44.02635" lon="6.51372">
        <ele>1516.4</ele>
        <time>2021-09-12T11:47:50Z</time>
      </trkpt>
      <trkpt lat="44.02622" lon="6.51374">
        <ele>1516.9</ele>
        <time>2021-09-12T11:47:56Z</time>
      </trkpt>
      <trkpt lat="44.02602" lon="6.51378">
        <ele>1517.9</ele>
        <time>2021-09-12T11:48:05Z</time>
      </trkpt>
      <trkpt lat="44.02584" lon="6.51382">
        <ele>1518.8</ele>
        <time>2021-09-12T11:48:13Z</time>
      </trkpt>
      <trkpt lat="44.02578" lon="6.51383">
        <ele>1519.1</ele>
        <time>2021-09-12T11:48:16Z</time>
      </trkpt>
      <trkpt lat="44.02571" lon="6.51385">
        <ele>1519.5</ele>
        <time>2021-09-12T11:48:20Z</time>
      </trkpt>
      <trkpt lat="44.02565" lon="6.51388">
        <ele>1519.8</ele>
        <time>2021-09-12T11:48:23Z</time>
      </trkpt>
      <trkpt lat="44.02559" lon="6.51392">
        <ele>1520.1</ele>
        <time>2021-09-12T11:48:26Z</time>
      </trkpt>
      <trkpt lat="44.02552" lon="6.51395">
        <ele>1520.3</ele>
        <time>2021-09-12T11:48:29Z</time>
      </trkpt>
      <trkpt lat="44.02546" lon="6.51398">
        <ele>1520.5</ele>
        <time>2021-09-12T11:48:32Z</time>
      </trkpt>
      <trkpt lat="44.02539" lon="6.51401">
        <ele>1520.7</ele>
        <time>2021-09-12T11:48:35Z</time>
      </trkpt>
      <trkpt lat="44.02532" lon="6.51403">
        <ele>1520.8</ele>
        <time>2021-09-12T11:48:38Z</time>
      </trkpt>
      <trkpt lat="44.02505" lon="6.51414">
        <ele>1521.9</ele>
        <time>2021-09-12T11:48:49Z</time>
      </trkpt>
      <trkpt lat="44.02477" lon="6.51427">
        <ele>1522.9</ele>
        <time>2021-09-12T11:48:59Z</time>
      </trkpt>
      <trkpt lat="44.02462" lon="6.51433">
        <ele>1523.6</ele>
        <time>2021-09-12T11:49:04Z</time>
      </trkpt>
      <trkpt lat="44.02455" lon="6.51437">
        <ele>1524</ele>
        <time>2021-09-12T11:49:06Z</time>
      </trkpt>
      <trkpt lat="44.02449" lon="6.51441">
        <ele>1524.5</ele>
        <time>2021-09-12T11:49:08Z</time>
      </trkpt>
      <trkpt lat="44.02442" lon="6.51446">
        <ele>1525.2</ele>
        <time>2021-09-12T11:49:10Z</time>
      </trkpt>
      <trkpt lat="44.02436" lon="6.51452">
        <ele>1525.9</ele>
        <time>2021-09-12T11:49:12Z</time>
      </trkpt>
      <trkpt lat="44.02426" lon="6.51463">
        <ele>1527.2</ele>
        <time>2021-09-12T11:49:16Z</time>
      </trkpt>
      <trkpt lat="44.02419" lon="6.51468">
        <ele>1528</ele>
        <time>2021-09-12T11:49:19Z</time>
      </trkpt>
      <trkpt lat="44.02412" lon="6.51474">
        <ele>1528.9</ele>
        <time>2021-09-12T11:49:22Z</time>
      </trkpt>
      <trkpt lat="44.02406" lon="6.51479">
        <ele>1529.6</ele>
        <time>2021-09-12T11:49:25Z</time>
      </trkpt>
      <trkpt lat="44.02399" lon="6.51485">
        <ele>1530.3</ele>
        <time>2021-09-12T11:49:29Z</time>
      </trkpt>
      <trkpt lat="44.02377" lon="6.51499">
        <ele>1532</ele>
        <time>2021-09-12T11:49:45Z</time>
      </trkpt>
      <trkpt lat="44.02364" lon="6.51511">
        <ele>1533.1</ele>
        <time>2021-09-12T11:49:58Z</time>
      </trkpt>
      <trkpt lat="44.02358" lon="6.51516">
        <ele>1533.7</ele>
        <time>2021-09-12T11:50:06Z</time>
      </trkpt>
      <trkpt lat="44.02353" lon="6.51521">
        <ele>1534.2</ele>
        <time>2021-09-12T11:50:14Z</time>
      </trkpt>
      <trkpt lat="44.02347" lon="6.51528">
        <ele>1534.8</ele>
        <time>2021-09-12T11:50:25Z</time>
      </trkpt>
      <trkpt lat="44.02342" lon="6.51534">
        <ele>1535.3</ele>
        <time>2021-09-12T11:50:34Z</time>
      </trkpt>
      <trkpt lat="44.02336" lon="6.51543">
        <ele>1536</ele>
        <time>2021-09-12T11:50:47Z</time>
      </trkpt>
      <trkpt lat="44.02329" lon="6.51551">
        <ele>1536.6</ele>
        <time>2021-09-12T11:50:59Z</time>
      </trkpt>
      <trkpt lat="44.02322" lon="6.51558">
        <ele>1537.2</ele>
        <time>2021-09-12T11:51:11Z</time>
      </trkpt>
      <trkpt lat="44.02315" lon="6.51565">
        <ele>1537.8</ele>
        <time>2021-09-12T11:51:23Z</time>
      </trkpt>
      <trkpt lat="44.02309" lon="6.51572">
        <ele>1538.4</ele>
        <time>2021-09-12T11:51:34Z</time>
      </trkpt>
      <trkpt lat="44.02302" lon="6.51578">
        <ele>1538.9</ele>
        <time>2021-09-12T11:51:46Z</time>
      </trkpt>
      <trkpt lat="44.02296" lon="6.51584">
        <ele>1539.4</ele>
        <time>2021-09-12T11:51:57Z</time>
      </trkpt>
      <trkpt lat="44.02289" lon="6.5159">
        <ele>1540</ele>
        <time>2021-09-12T11:52:09Z</time>
      </trkpt>
      <trkpt lat="44.02281" lon="6.51597">
        <ele>1540.6</ele>
        <time>2021-09-12T11:52:23Z</time>
      </trkpt>
      <trkpt lat="44.02273" lon="6.51603">
        <ele>1541.2</ele>
        <time>2021-09-12T11:52:34Z</time>
      </trkpt>
      <trkpt lat="44.02264" lon="6.51609">
        <ele>1541.8</ele>
        <time>2021-09-12T11:52:43Z</time>
      </trkpt>
      <trkpt lat="44.02255" lon="6.51613">
        <ele>1542.5</ele>
        <time>2021-09-12T11:52:50Z</time>
      </trkpt>
      <trkpt lat="44.02247" lon="6.51616">
        <ele>1543</ele>
        <time>2021-09-12T11:52:55Z</time>
      </trkpt>
      <trkpt lat="44.0224" lon="6.51618">
        <ele>1543.4</ele>
        <time>2021-09-12T11:52:59Z</time>
      </trkpt>
      <trkpt lat="44.02232" lon="6.51621">
        <ele>1543.9</ele>
        <time>2021-09-12T11:53:03Z</time>
      </trkpt>
      <trkpt lat="44.02225" lon="6.51623">
        <ele>1544.3</ele>
        <time>2021-09-12T11:53:06Z</time>
      </trkpt>
      <trkpt lat="44.0222" lon="6.51624">
        <ele>1544.5</ele>
        <time>2021-09-12T11:53:08Z</time>
      </trkpt>
      <trkpt lat="44.02215" lon="6.51624">
        <ele>1544.8</ele>
        <time>2021-09-12T11:53:09Z</time>
      </trkpt>
      <trkpt lat="44.02209" lon="6.51623">
        <ele>1545.1</ele>
        <time>2021-09-12T11:53:11Z</time>
      </trkpt>
      <trkpt lat="44.02204" lon="6.51622">
        <ele>1545.4</ele>
        <time>2021-09-12T11:53:13Z</time>
      </trkpt>
      <trkpt lat="44.02188" lon="6.51621">
        <ele>1546.3</ele>
        <time>2021-09-12T11:53:18Z</time>
      </trkpt>
      <trkpt lat="44.02173" lon="6.5162">
        <ele>1547.2</ele>
        <time>2021-09-12T11:53:23Z</time>
      </trkpt>
      <trkpt lat="44.02155" lon="6.51615">
        <ele>1548.6</ele>
        <time>2021-09-12T11:53:29Z</time>
      </trkpt>
      <trkpt lat="44.0214" lon="6.51612">
        <ele>1549.7</ele>
        <time>2021-09-12T11:53:33Z</time>
      </trkpt>
      <trkpt lat="44.02135" lon="6.51611">
        <ele>1550.1</ele>
        <time>2021-09-12T11:53:35Z</time>
      </trkpt>
      <trkpt lat="44.0213" lon="6.5161">
        <ele>1550.4</ele>
        <time>2021-09-12T11:53:36Z</time>
      </trkpt>
      <trkpt lat="44.02125" lon="6.5161">
        <ele>1550.6</ele>
        <time>2021-09-12T11:53:38Z</time>
      </trkpt>
      <trkpt lat="44.0212" lon="6.51609">
        <ele>1550.8</ele>
        <time>2021-09-12T11:53:39Z</time>
      </trkpt>
      <trkpt lat="44.02116" lon="6.51608">
        <ele>1550.9</ele>
        <time>2021-09-12T11:53:40Z</time>
      </trkpt>
      <trkpt lat="44.02112" lon="6.51607">
        <ele>1551</ele>
        <time>2021-09-12T11:53:41Z</time>
      </trkpt>
      <trkpt lat="44.02108" lon="6.51607">
        <ele>1551</ele>
        <time>2021-09-12T11:53:42Z</time>
      </trkpt>
      <trkpt lat="44.02104" lon="6.51606">
        <ele>1551.1</ele>
        <time>2021-09-12T11:53:43Z</time>
      </trkpt>
      <trkpt lat="44.02101" lon="6.51607">
        <ele>1551.1</ele>
        <time>2021-09-12T11:53:44Z</time>
      </trkpt>
      <trkpt lat="44.02096" lon="6.51609">
        <ele>1551.1</ele>
        <time>2021-09-12T11:53:45Z</time>
      </trkpt>
      <trkpt lat="44.02093" lon="6.5161">
        <ele>1551</ele>
        <time>2021-09-12T11:53:46Z</time>
      </trkpt>
      <trkpt lat="44.02066" lon="6.51624">
        <ele>1550.8</ele>
        <time>2021-09-12T11:53:52Z</time>
      </trkpt>
      <trkpt lat="44.02049" lon="6.51633">
        <ele>1551</ele>
        <time>2021-09-12T11:53:57Z</time>
      </trkpt>
      <trkpt lat="44.02031" lon="6.51642">
        <ele>1551.7</ele>
        <time>2021-09-12T11:54:01Z</time>
      </trkpt>
      <trkpt lat="44.02028" lon="6.51645">
        <ele>1551.9</ele>
        <time>2021-09-12T11:54:02Z</time>
      </trkpt>
      <trkpt lat="44.02024" lon="6.51647">
        <ele>1552</ele>
        <time>2021-09-12T11:54:03Z</time>
      </trkpt>
      <trkpt lat="44.02021" lon="6.51649">
        <ele>1552.1</ele>
        <time>2021-09-12T11:54:04Z</time>
      </trkpt>
      <trkpt lat="44.02017" lon="6.5165">
        <ele>1552.2</ele>
        <time>2021-09-12T11:54:05Z</time>
      </trkpt>
      <trkpt lat="44.02015" lon="6.5165">
        <ele>1552.2</ele>
        <time>2021-09-12T11:54:06Z</time>
      </trkpt>
      <trkpt lat="44.02011" lon="6.51651">
        <ele>1552.2</ele>
        <time>2021-09-12T11:54:07Z</time>
      </trkpt>
      <trkpt lat="44.02009" lon="6.51651">
        <ele>1552.2</ele>
        <time>2021-09-12T11:54:08Z</time>
      </trkpt>
      <trkpt lat="44.02003" lon="6.51651">
        <ele>1552.2</ele>
        <time>2021-09-12T11:54:09Z</time>
      </trkpt>
      <trkpt lat="44.01996" lon="6.51651">
        <ele>1552</ele>
        <time>2021-09-12T11:54:11Z</time>
      </trkpt>
      <trkpt lat="44.0199" lon="6.51651">
        <ele>1551.7</ele>
        <time>2021-09-12T11:54:13Z</time>
      </trkpt>
      <trkpt lat="44.01984" lon="6.5165">
        <ele>1551.4</ele>
        <time>2021-09-12T11:54:14Z</time>
      </trkpt>
      <trkpt lat="44.01965" lon="6.51646">
        <ele>1550.1</ele>
        <time>2021-09-12T11:54:18Z</time>
      </trkpt>
      <trkpt lat="44.01939" lon="6.51642">
        <ele>1548.6</ele>
        <time>2021-09-12T11:54:23Z</time>
      </trkpt>
      <trkpt lat="44.01931" lon="6.51641">
        <ele>1548.2</ele>
        <time>2021-09-12T11:54:24Z</time>
      </trkpt>
      <trkpt lat="44.0192" lon="6.51639">
        <ele>1547.8</ele>
        <time>2021-09-12T11:54:26Z</time>
      </trkpt>
      <trkpt lat="44.01913" lon="6.51637">
        <ele>1547.4</ele>
        <time>2021-09-12T11:54:28Z</time>
      </trkpt>
      <trkpt lat="44.01905" lon="6.51634">
        <ele>1546.9</ele>
        <time>2021-09-12T11:54:29Z</time>
      </trkpt>
      <trkpt lat="44.01899" lon="6.51631">
        <ele>1546.5</ele>
        <time>2021-09-12T11:54:30Z</time>
      </trkpt>
      <trkpt lat="44.01892" lon="6.51629">
        <ele>1546.3</ele>
        <time>2021-09-12T11:54:31Z</time>
      </trkpt>
      <trkpt lat="44.01886" lon="6.51628">
        <ele>1546.2</ele>
        <time>2021-09-12T11:54:32Z</time>
      </trkpt>
      <trkpt lat="44.0188" lon="6.5163">
        <ele>1546.3</ele>
        <time>2021-09-12T11:54:33Z</time>
      </trkpt>
      <trkpt lat="44.01878" lon="6.51635">
        <ele>1546.4</ele>
        <time>2021-09-12T11:54:34Z</time>
      </trkpt>
      <trkpt lat="44.01876" lon="6.51637">
        <ele>1546.4</ele>
        <time>2021-09-12T11:54:35Z</time>
      </trkpt>
      <trkpt lat="44.01874" lon="6.51637">
        <ele>1546.5</ele>
        <time>2021-09-12T11:54:36Z</time>
      </trkpt>
      <trkpt lat="44.01873" lon="6.51636">
        <ele>1546.5</ele>
        <time>2021-09-12T11:54:37Z</time>
      </trkpt>
      <trkpt lat="44.0187" lon="6.51635">
        <ele>1546.7</ele>
        <time>2021-09-12T11:54:41Z</time>
      </trkpt>
      <trkpt lat="44.01867" lon="6.51633">
        <ele>1546.8</ele>
        <time>2021-09-12T11:54:45Z</time>
      </trkpt>
      <trkpt lat="44.01864" lon="6.5163">
        <ele>1547</ele>
        <time>2021-09-12T11:54:48Z</time>
      </trkpt>
      <trkpt lat="44.01862" lon="6.51626">
        <ele>1547.2</ele>
        <time>2021-09-12T11:54:51Z</time>
      </trkpt>
      <trkpt lat="44.01857" lon="6.5162">
        <ele>1547.6</ele>
        <time>2021-09-12T11:54:54Z</time>
      </trkpt>
      <trkpt lat="44.01853" lon="6.51614">
        <ele>1547.9</ele>
        <time>2021-09-12T11:54:56Z</time>
      </trkpt>
      <trkpt lat="44.01848" lon="6.51608">
        <ele>1548.3</ele>
        <time>2021-09-12T11:54:58Z</time>
      </trkpt>
      <trkpt lat="44.01843" lon="6.51603">
        <ele>1548.7</ele>
        <time>2021-09-12T11:54:59Z</time>
      </trkpt>
      <trkpt lat="44.01838" lon="6.51598">
        <ele>1549.2</ele>
        <time>2021-09-12T11:55:00Z</time>
      </trkpt>
      <trkpt lat="44.01833" lon="6.51594">
        <ele>1549.6</ele>
        <time>2021-09-12T11:55:01Z</time>
      </trkpt>
      <trkpt lat="44.01828" lon="6.5159">
        <ele>1550</ele>
        <time>2021-09-12T11:55:02Z</time>
      </trkpt>
      <trkpt lat="44.01822" lon="6.51588">
        <ele>1550.6</ele>
        <time>2021-09-12T11:55:03Z</time>
      </trkpt>
      <trkpt lat="44.01816" lon="6.51586">
        <ele>1551.1</ele>
        <time>2021-09-12T11:55:04Z</time>
      </trkpt>
      <trkpt lat="44.0181" lon="6.51584">
        <ele>1551.8</ele>
        <time>2021-09-12T11:55:05Z</time>
      </trkpt>
      <trkpt lat="44.01804" lon="6.51583">
        <ele>1552.4</ele>
        <time>2021-09-12T11:55:06Z</time>
      </trkpt>
      <trkpt lat="44.01798" lon="6.51582">
        <ele>1553</ele>
        <time>2021-09-12T11:55:07Z</time>
      </trkpt>
      <trkpt lat="44.01779" lon="6.51581">
        <ele>1555</ele>
        <time>2021-09-12T11:55:11Z</time>
      </trkpt>
      <trkpt lat="44.01774" lon="6.51581">
        <ele>1555.6</ele>
        <time>2021-09-12T11:55:12Z</time>
      </trkpt>
      <trkpt lat="44.01769" lon="6.51582">
        <ele>1556.1</ele>
        <time>2021-09-12T11:55:14Z</time>
      </trkpt>
      <trkpt lat="44.01764" lon="6.51583">
        <ele>1556.6</ele>
        <time>2021-09-12T11:55:15Z</time>
      </trkpt>
      <trkpt lat="44.0176" lon="6.51586">
        <ele>1557.1</ele>
        <time>2021-09-12T11:55:17Z</time>
      </trkpt>
      <trkpt lat="44.01754" lon="6.51591">
        <ele>1557.9</ele>
        <time>2021-09-12T11:55:20Z</time>
      </trkpt>
      <trkpt lat="44.01748" lon="6.51596">
        <ele>1558.6</ele>
        <time>2021-09-12T11:55:25Z</time>
      </trkpt>
      <trkpt lat="44.01742" lon="6.51601">
        <ele>1559.3</ele>
        <time>2021-09-12T11:55:31Z</time>
      </trkpt>
      <trkpt lat="44.01736" lon="6.51605">
        <ele>1559.9</ele>
        <time>2021-09-12T11:55:37Z</time>
      </trkpt>
      <trkpt lat="44.01733" lon="6.51609">
        <ele>1560.3</ele>
        <time>2021-09-12T11:55:43Z</time>
      </trkpt>
      <trkpt lat="44.01729" lon="6.51614">
        <ele>1560.8</ele>
        <time>2021-09-12T11:55:51Z</time>
      </trkpt>
      <trkpt lat="44.01726" lon="6.51618">
        <ele>1561.2</ele>
        <time>2021-09-12T11:55:58Z</time>
      </trkpt>
      <trkpt lat="44.01723" lon="6.51624">
        <ele>1561.7</ele>
        <time>2021-09-12T11:56:09Z</time>
      </trkpt>
      <trkpt lat="44.01717" lon="6.51633">
        <ele>1562.6</ele>
        <time>2021-09-12T11:56:29Z</time>
      </trkpt>
      <trkpt lat="44.0171" lon="6.51643">
        <ele>1563.7</ele>
        <time>2021-09-12T11:56:52Z</time>
      </trkpt>
      <trkpt lat="44.01705" lon="6.51647">
        <ele>1564.3</ele>
        <time>2021-09-12T11:57:05Z</time>
      </trkpt>
      <trkpt lat="44.017" lon="6.51652">
        <ele>1565</ele>
        <time>2021-09-12T11:57:19Z</time>
      </trkpt>
      <trkpt lat="44.01695" lon="6.51656">
        <ele>1565.6</ele>
        <time>2021-09-12T11:57:32Z</time>
      </trkpt>
      <trkpt lat="44.0169" lon="6.51661">
        <ele>1566.3</ele>
        <time>2021-09-12T11:57:46Z</time>
      </trkpt>
      <trkpt lat="44.01682" lon="6.51666">
        <ele>1567.4</ele>
        <time>2021-09-12T11:58:02Z</time>
      </trkpt>
      <trkpt lat="44.01674" lon="6.51671">
        <ele>1568.5</ele>
        <time>2021-09-12T11:58:15Z</time>
      </trkpt>
      <trkpt lat="44.01666" lon="6.51676">
        <ele>1569.6</ele>
        <time>2021-09-12T11:58:24Z</time>
      </trkpt>
      <trkpt lat="44.01657" lon="6.5168">
        <ele>1570.7</ele>
        <time>2021-09-12T11:58:31Z</time>
      </trkpt>
      <trkpt lat="44.0164" lon="6.51688">
        <ele>1572.7</ele>
        <time>2021-09-12T11:58:41Z</time>
      </trkpt>
      <trkpt lat="44.01635" lon="6.51691">
        <ele>1573.3</ele>
        <time>2021-09-12T11:58:43Z</time>
      </trkpt>
      <trkpt lat="44.01631" lon="6.51693">
        <ele>1573.8</ele>
        <time>2021-09-12T11:58:44Z</time>
      </trkpt>
      <trkpt lat="44.01627" lon="6.51696">
        <ele>1574.4</ele>
        <time>2021-09-12T11:58:46Z</time>
      </trkpt>
      <trkpt lat="44.01621" lon="6.51702">
        <ele>1575.3</ele>
        <time>2021-09-12T11:58:47Z</time>
      </trkpt>
      <trkpt lat="44.01618" lon="6.51707">
        <ele>1575.8</ele>
        <time>2021-09-12T11:58:48Z</time>
      </trkpt>
      <trkpt lat="44.01616" lon="6.51714">
        <ele>1576.4</ele>
        <time>2021-09-12T11:58:49Z</time>
      </trkpt>
      <trkpt lat="44.01616" lon="6.51715">
        <ele>1576.5</ele>
        <time>2021-09-12T11:58:50Z</time>
      </trkpt>
      <trkpt lat="44.01616" lon="6.51721">
        <ele>1576.9</ele>
        <time>2021-09-12T11:58:51Z</time>
      </trkpt>
      <trkpt lat="44.01616" lon="6.51727">
        <ele>1577.3</ele>
        <time>2021-09-12T11:58:54Z</time>
      </trkpt>
      <trkpt lat="44.01616" lon="6.51733">
        <ele>1577.7</ele>
        <time>2021-09-12T11:58:57Z</time>
      </trkpt>
      <trkpt lat="44.01617" lon="6.51739">
        <ele>1578.1</ele>
        <time>2021-09-12T11:59:02Z</time>
      </trkpt>
      <trkpt lat="44.01619" lon="6.51748">
        <ele>1578.7</ele>
        <time>2021-09-12T11:59:14Z</time>
      </trkpt>
      <trkpt lat="44.01621" lon="6.51756">
        <ele>1579.3</ele>
        <time>2021-09-12T11:59:28Z</time>
      </trkpt>
      <trkpt lat="44.01623" lon="6.51765">
        <ele>1580.1</ele>
        <time>2021-09-12T11:59:43Z</time>
      </trkpt>
      <trkpt lat="44.01624" lon="6.51773">
        <ele>1580.8</ele>
        <time>2021-09-12T11:59:57Z</time>
      </trkpt>
      <trkpt lat="44.01626" lon="6.5178">
        <ele>1581.4</ele>
        <time>2021-09-12T12:00:09Z</time>
      </trkpt>
      <trkpt lat="44.01626" lon="6.51786">
        <ele>1582</ele>
        <time>2021-09-12T12:00:19Z</time>
      </trkpt>
      <trkpt lat="44.01627" lon="6.51793">
        <ele>1582.6</ele>
        <time>2021-09-12T12:00:31Z</time>
      </trkpt>
      <trkpt lat="44.01627" lon="6.518">
        <ele>1583.1</ele>
        <time>2021-09-12T12:00:42Z</time>
      </trkpt>
      <trkpt lat="44.01627" lon="6.51801">
        <ele>1583.2</ele>
        <time>2021-09-12T12:00:44Z</time>
      </trkpt>
      <trkpt lat="44.01626" lon="6.51808">
        <ele>1583.8</ele>
        <time>2021-09-12T12:00:56Z</time>
      </trkpt>
      <trkpt lat="44.01624" lon="6.51816">
        <ele>1584.4</ele>
        <time>2021-09-12T12:01:10Z</time>
      </trkpt>
      <trkpt lat="44.01622" lon="6.51823">
        <ele>1585</ele>
        <time>2021-09-12T12:01:21Z</time>
      </trkpt>
      <trkpt lat="44.01619" lon="6.51831">
        <ele>1585.6</ele>
        <time>2021-09-12T12:01:31Z</time>
      </trkpt>
      <trkpt lat="44.01616" lon="6.51838">
        <ele>1586.2</ele>
        <time>2021-09-12T12:01:38Z</time>
      </trkpt>
      <trkpt lat="44.01613" lon="6.51846">
        <ele>1586.8</ele>
        <time>2021-09-12T12:01:44Z</time>
      </trkpt>
      <trkpt lat="44.0161" lon="6.51854">
        <ele>1587.5</ele>
        <time>2021-09-12T12:01:49Z</time>
      </trkpt>
      <trkpt lat="44.01609" lon="6.51863">
        <ele>1588.1</ele>
        <time>2021-09-12T12:01:53Z</time>
      </trkpt>
      <trkpt lat="44.01609" lon="6.51866">
        <ele>1588.3</ele>
        <time>2021-09-12T12:01:54Z</time>
      </trkpt>
      <trkpt lat="44.01608" lon="6.51869">
        <ele>1588.5</ele>
        <time>2021-09-12T12:01:55Z</time>
      </trkpt>
      <trkpt lat="44.01608" lon="6.51872">
        <ele>1588.7</ele>
        <time>2021-09-12T12:01:56Z</time>
      </trkpt>
      <trkpt lat="44.01608" lon="6.51875">
        <ele>1588.9</ele>
        <time>2021-09-12T12:01:57Z</time>
      </trkpt>
      <trkpt lat="44.01608" lon="6.51879">
        <ele>1589.2</ele>
        <time>2021-09-12T12:01:58Z</time>
      </trkpt>
      <trkpt lat="44.01607" lon="6.51882">
        <ele>1589.4</ele>
        <time>2021-09-12T12:01:59Z</time>
      </trkpt>
      <trkpt lat="44.01606" lon="6.51889">
        <ele>1589.9</ele>
        <time>2021-09-12T12:02:02Z</time>
      </trkpt>
      <trkpt lat="44.01604" lon="6.51896">
        <ele>1590.4</ele>
        <time>2021-09-12T12:02:04Z</time>
      </trkpt>
      <trkpt lat="44.01602" lon="6.51903">
        <ele>1590.9</ele>
        <time>2021-09-12T12:02:07Z</time>
      </trkpt>
      <trkpt lat="44.016" lon="6.5191">
        <ele>1591.4</ele>
        <time>2021-09-12T12:02:10Z</time>
      </trkpt>
      <trkpt lat="44.01598" lon="6.51914">
        <ele>1591.7</ele>
        <time>2021-09-12T12:02:12Z</time>
      </trkpt>
      <trkpt lat="44.01596" lon="6.51919">
        <ele>1592.1</ele>
        <time>2021-09-12T12:02:14Z</time>
      </trkpt>
      <trkpt lat="44.01595" lon="6.51924">
        <ele>1592.5</ele>
        <time>2021-09-12T12:02:16Z</time>
      </trkpt>
      <trkpt lat="44.01594" lon="6.51929">
        <ele>1592.9</ele>
        <time>2021-09-12T12:02:18Z</time>
      </trkpt>
      <trkpt lat="44.01594" lon="6.51934">
        <ele>1593.3</ele>
        <time>2021-09-12T12:02:19Z</time>
      </trkpt>
      <trkpt lat="44.01594" lon="6.51939">
        <ele>1593.7</ele>
        <time>2021-09-12T12:02:21Z</time>
      </trkpt>
      <trkpt lat="44.01594" lon="6.51947">
        <ele>1594.3</ele>
        <time>2021-09-12T12:02:23Z</time>
      </trkpt>
      <trkpt lat="44.01595" lon="6.51955">
        <ele>1594.9</ele>
        <time>2021-09-12T12:02:26Z</time>
      </trkpt>
      <trkpt lat="44.01596" lon="6.51963">
        <ele>1595.5</ele>
        <time>2021-09-12T12:02:29Z</time>
      </trkpt>
      <trkpt lat="44.01598" lon="6.51971">
        <ele>1596.1</ele>
        <time>2021-09-12T12:02:32Z</time>
      </trkpt>
      <trkpt lat="44.01601" lon="6.5198">
        <ele>1596.7</ele>
        <time>2021-09-12T12:02:37Z</time>
      </trkpt>
      <trkpt lat="44.01604" lon="6.51989">
        <ele>1597.2</ele>
        <time>2021-09-12T12:02:42Z</time>
      </trkpt>
      <trkpt lat="44.01607" lon="6.51998">
        <ele>1597.7</ele>
        <time>2021-09-12T12:02:50Z</time>
      </trkpt>
      <trkpt lat="44.01609" lon="6.52007">
        <ele>1598.2</ele>
        <time>2021-09-12T12:02:59Z</time>
      </trkpt>
      <trkpt lat="44.01611" lon="6.52017">
        <ele>1598.6</ele>
        <time>2021-09-12T12:03:13Z</time>
      </trkpt>
      <trkpt lat="44.01612" lon="6.52026">
        <ele>1599</ele>
        <time>2021-09-12T12:03:27Z</time>
      </trkpt>
      <trkpt lat="44.01613" lon="6.52036">
        <ele>1599.4</ele>
        <time>2021-09-12T12:03:44Z</time>
      </trkpt>
      <trkpt lat="44.01613" lon="6.52046">
        <ele>1599.8</ele>
        <time>2021-09-12T12:04:00Z</time>
      </trkpt>
      <trkpt lat="44.01613" lon="6.52055">
        <ele>1600.2</ele>
        <time>2021-09-12T12:04:14Z</time>
      </trkpt>
      <trkpt lat="44.01612" lon="6.52065">
        <ele>1600.6</ele>
        <time>2021-09-12T12:04:28Z</time>
      </trkpt>
      <trkpt lat="44.0161" lon="6.52074">
        <ele>1601.1</ele>
        <time>2021-09-12T12:04:39Z</time>
      </trkpt>
      <trkpt lat="44.01608" lon="6.52083">
        <ele>1601.6</ele>
        <time>2021-09-12T12:04:48Z</time>
      </trkpt>
      <trkpt lat="44.01605" lon="6.52089">
        <ele>1602</ele>
        <time>2021-09-12T12:04:54Z</time>
      </trkpt>
      <trkpt lat="44.01602" lon="6.52096">
        <ele>1602.4</ele>
        <time>2021-09-12T12:04:59Z</time>
      </trkpt>
      <trkpt lat="44.016" lon="6.52102">
        <ele>1602.9</ele>
        <time>2021-09-12T12:05:02Z</time>
      </trkpt>
      <trkpt lat="44.01597" lon="6.52109">
        <ele>1603.4</ele>
        <time>2021-09-12T12:05:06Z</time>
      </trkpt>
      <trkpt lat="44.01595" lon="6.52115">
        <ele>1603.8</ele>
        <time>2021-09-12T12:05:08Z</time>
      </trkpt>
      <trkpt lat="44.01594" lon="6.52121">
        <ele>1604.2</ele>
        <time>2021-09-12T12:05:10Z</time>
      </trkpt>
      <trkpt lat="44.01594" lon="6.52128">
        <ele>1604.6</ele>
        <time>2021-09-12T12:05:12Z</time>
      </trkpt>
      <trkpt lat="44.01594" lon="6.52135">
        <ele>1605</ele>
        <time>2021-09-12T12:05:14Z</time>
      </trkpt>
      <trkpt lat="44.01594" lon="6.52141">
        <ele>1605.3</ele>
        <time>2021-09-12T12:05:16Z</time>
      </trkpt>
      <trkpt lat="44.01594" lon="6.52147">
        <ele>1605.6</ele>
        <time>2021-09-12T12:05:17Z</time>
      </trkpt>
      <trkpt lat="44.01593" lon="6.52153">
        <ele>1606</ele>
        <time>2021-09-12T12:05:19Z</time>
      </trkpt>
      <trkpt lat="44.01592" lon="6.52159">
        <ele>1606.3</ele>
        <time>2021-09-12T12:05:21Z</time>
      </trkpt>
      <trkpt lat="44.0159" lon="6.52164">
        <ele>1606.7</ele>
        <time>2021-09-12T12:05:23Z</time>
      </trkpt>
      <trkpt lat="44.01588" lon="6.5217">
        <ele>1607.1</ele>
        <time>2021-09-12T12:05:25Z</time>
      </trkpt>
      <trkpt lat="44.01584" lon="6.52185">
        <ele>1608.2</ele>
        <time>2021-09-12T12:05:33Z</time>
      </trkpt>
      <trkpt lat="44.01584" lon="6.52194">
        <ele>1608.8</ele>
        <time>2021-09-12T12:05:38Z</time>
      </trkpt>
      <trkpt lat="44.01584" lon="6.52204">
        <ele>1609.6</ele>
        <time>2021-09-12T12:05:45Z</time>
      </trkpt>
      <trkpt lat="44.01586" lon="6.52213">
        <ele>1610.3</ele>
        <time>2021-09-12T12:05:53Z</time>
      </trkpt>
      <trkpt lat="44.01587" lon="6.52222">
        <ele>1611</ele>
        <time>2021-09-12T12:06:03Z</time>
      </trkpt>
      <trkpt lat="44.01588" lon="6.52225">
        <ele>1611.3</ele>
        <time>2021-09-12T12:06:07Z</time>
      </trkpt>
      <trkpt lat="44.01589" lon="6.52227">
        <ele>1611.5</ele>
        <time>2021-09-12T12:06:10Z</time>
      </trkpt>
      <trkpt lat="44.01589" lon="6.5223">
        <ele>1611.7</ele>
        <time>2021-09-12T12:06:14Z</time>
      </trkpt>
      <trkpt lat="44.01589" lon="6.52233">
        <ele>1612</ele>
        <time>2021-09-12T12:06:18Z</time>
      </trkpt>
      <trkpt lat="44.01589" lon="6.52236">
        <ele>1612.2</ele>
        <time>2021-09-12T12:06:23Z</time>
      </trkpt>
      <trkpt lat="44.01589" lon="6.52238">
        <ele>1612.4</ele>
        <time>2021-09-12T12:06:26Z</time>
      </trkpt>
      <trkpt lat="44.01586" lon="6.52241">
        <ele>1612.8</ele>
        <time>2021-09-12T12:06:34Z</time>
      </trkpt>
      <trkpt lat="44.01584" lon="6.52242">
        <ele>1613</ele>
        <time>2021-09-12T12:06:39Z</time>
      </trkpt>
      <trkpt lat="44.01581" lon="6.52243">
        <ele>1613.3</ele>
        <time>2021-09-12T12:06:45Z</time>
      </trkpt>
      <trkpt lat="44.01578" lon="6.52243">
        <ele>1613.5</ele>
        <time>2021-09-12T12:06:48Z</time>
      </trkpt>
      <trkpt lat="44.01573" lon="6.52241">
        <ele>1613.9</ele>
        <time>2021-09-12T12:06:52Z</time>
      </trkpt>
      <trkpt lat="44.01569" lon="6.52239">
        <ele>1614.2</ele>
        <time>2021-09-12T12:06:54Z</time>
      </trkpt>
      <trkpt lat="44.01565" lon="6.52237">
        <ele>1614.5</ele>
        <time>2021-09-12T12:06:55Z</time>
      </trkpt>
      <trkpt lat="44.01561" lon="6.52235">
        <ele>1614.7</ele>
        <time>2021-09-12T12:06:56Z</time>
      </trkpt>
      <trkpt lat="44.01557" lon="6.52234">
        <ele>1615</ele>
        <time>2021-09-12T12:06:57Z</time>
      </trkpt>
      <trkpt lat="44.0155" lon="6.52233">
        <ele>1615.5</ele>
        <time>2021-09-12T12:06:58Z</time>
      </trkpt>
      <trkpt lat="44.01544" lon="6.52235">
        <ele>1615.9</ele>
        <time>2021-09-12T12:06:59Z</time>
      </trkpt>
      <trkpt lat="44.0154" lon="6.52237">
        <ele>1616.3</ele>
        <time>2021-09-12T12:07:00Z</time>
      </trkpt>
      <trkpt lat="44.01518" lon="6.52249">
        <ele>1618.5</ele>
        <time>2021-09-12T12:07:03Z</time>
      </trkpt>
      <trkpt lat="44.01504" lon="6.52258">
        <ele>1620</ele>
        <time>2021-09-12T12:07:05Z</time>
      </trkpt>
      <trkpt lat="44.01499" lon="6.52261">
        <ele>1620.5</ele>
        <time>2021-09-12T12:07:06Z</time>
      </trkpt>
      <trkpt lat="44.01494" lon="6.52266">
        <ele>1621.1</ele>
        <time>2021-09-12T12:07:07Z</time>
      </trkpt>
      <trkpt lat="44.01489" lon="6.52271">
        <ele>1621.7</ele>
        <time>2021-09-12T12:07:09Z</time>
      </trkpt>
      <trkpt lat="44.01484" lon="6.52276">
        <ele>1622.3</ele>
        <time>2021-09-12T12:07:10Z</time>
      </trkpt>
      <trkpt lat="44.01479" lon="6.52285">
        <ele>1623.2</ele>
        <time>2021-09-12T12:07:13Z</time>
      </trkpt>
      <trkpt lat="44.01473" lon="6.52294">
        <ele>1624.2</ele>
        <time>2021-09-12T12:07:16Z</time>
      </trkpt>
      <trkpt lat="44.01469" lon="6.52304">
        <ele>1625.1</ele>
        <time>2021-09-12T12:07:21Z</time>
      </trkpt>
      <trkpt lat="44.01465" lon="6.52314">
        <ele>1626</ele>
        <time>2021-09-12T12:07:27Z</time>
      </trkpt>
      <trkpt lat="44.01462" lon="6.52319">
        <ele>1626.5</ele>
        <time>2021-09-12T12:07:32Z</time>
      </trkpt>
      <trkpt lat="44.0146" lon="6.52324">
        <ele>1626.9</ele>
        <time>2021-09-12T12:07:39Z</time>
      </trkpt>
      <trkpt lat="44.01458" lon="6.52329">
        <ele>1627.4</ele>
        <time>2021-09-12T12:07:47Z</time>
      </trkpt>
      <trkpt lat="44.01457" lon="6.52334">
        <ele>1627.8</ele>
        <time>2021-09-12T12:07:55Z</time>
      </trkpt>
      <trkpt lat="44.01456" lon="6.5234">
        <ele>1628.3</ele>
        <time>2021-09-12T12:08:05Z</time>
      </trkpt>
      <trkpt lat="44.01455" lon="6.52346">
        <ele>1628.9</ele>
        <time>2021-09-12T12:08:15Z</time>
      </trkpt>
      <trkpt lat="44.01455" lon="6.52349">
        <ele>1629.1</ele>
        <time>2021-09-12T12:08:20Z</time>
      </trkpt>
      <trkpt lat="44.01455" lon="6.52352">
        <ele>1629.4</ele>
        <time>2021-09-12T12:08:25Z</time>
      </trkpt>
      <trkpt lat="44.01454" lon="6.52355">
        <ele>1629.7</ele>
        <time>2021-09-12T12:08:31Z</time>
      </trkpt>
      <trkpt lat="44.01453" lon="6.52358">
        <ele>1630</ele>
        <time>2021-09-12T12:08:36Z</time>
      </trkpt>
      <trkpt lat="44.01452" lon="6.52361">
        <ele>1630.3</ele>
        <time>2021-09-12T12:08:42Z</time>
      </trkpt>
      <trkpt lat="44.0145" lon="6.52363">
        <ele>1630.7</ele>
        <time>2021-09-12T12:08:47Z</time>
      </trkpt>
      <trkpt lat="44.01448" lon="6.52364">
        <ele>1630.9</ele>
        <time>2021-09-12T12:08:52Z</time>
      </trkpt>
      <trkpt lat="44.01445" lon="6.52364">
        <ele>1631.4</ele>
        <time>2021-09-12T12:08:59Z</time>
      </trkpt>
      <trkpt lat="44.01443" lon="6.52364">
        <ele>1631.6</ele>
        <time>2021-09-12T12:09:01Z</time>
      </trkpt>
      <trkpt lat="44.0144" lon="6.52363">
        <ele>1632.1</ele>
        <time>2021-09-12T12:09:04Z</time>
      </trkpt>
      <trkpt lat="44.01424" lon="6.52352">
        <ele>1634.3</ele>
        <time>2021-09-12T12:09:13Z</time>
      </trkpt>
      <trkpt lat="44.01411" lon="6.52343">
        <ele>1635.7</ele>
        <time>2021-09-12T12:09:18Z</time>
      </trkpt>
      <trkpt lat="44.01403" lon="6.52339">
        <ele>1636.5</ele>
        <time>2021-09-12T12:09:21Z</time>
      </trkpt>
      <trkpt lat="44.01395" lon="6.52335">
        <ele>1637.3</ele>
        <time>2021-09-12T12:09:23Z</time>
      </trkpt>
      <trkpt lat="44.01386" lon="6.52331">
        <ele>1638.3</ele>
        <time>2021-09-12T12:09:25Z</time>
      </trkpt>
      <trkpt lat="44.01378" lon="6.52327">
        <ele>1639.1</ele>
        <time>2021-09-12T12:09:27Z</time>
      </trkpt>
      <trkpt lat="44.0137" lon="6.52325">
        <ele>1639.9</ele>
        <time>2021-09-12T12:09:28Z</time>
      </trkpt>
      <trkpt lat="44.01362" lon="6.52323">
        <ele>1640.7</ele>
        <time>2021-09-12T12:09:30Z</time>
      </trkpt>
      <trkpt lat="44.01355" lon="6.52322">
        <ele>1641.4</ele>
        <time>2021-09-12T12:09:31Z</time>
      </trkpt>
      <trkpt lat="44.01347" lon="6.52322">
        <ele>1642.1</ele>
        <time>2021-09-12T12:09:33Z</time>
      </trkpt>
      <trkpt lat="44.01337" lon="6.52322">
        <ele>1643.1</ele>
        <time>2021-09-12T12:09:35Z</time>
      </trkpt>
      <trkpt lat="44.01328" lon="6.52323">
        <ele>1644.1</ele>
        <time>2021-09-12T12:09:38Z</time>
      </trkpt>
      <trkpt lat="44.01319" lon="6.52325">
        <ele>1645.2</ele>
        <time>2021-09-12T12:09:42Z</time>
      </trkpt>
      <trkpt lat="44.0131" lon="6.52327">
        <ele>1646.2</ele>
        <time>2021-09-12T12:09:46Z</time>
      </trkpt>
      <trkpt lat="44.01305" lon="6.52328">
        <ele>1646.8</ele>
        <time>2021-09-12T12:09:49Z</time>
      </trkpt>
      <trkpt lat="44.013" lon="6.52329">
        <ele>1647.3</ele>
        <time>2021-09-12T12:09:53Z</time>
      </trkpt>
      <trkpt lat="44.01295" lon="6.52331">
        <ele>1647.8</ele>
        <time>2021-09-12T12:09:56Z</time>
      </trkpt>
      <trkpt lat="44.01291" lon="6.52333">
        <ele>1648.3</ele>
        <time>2021-09-12T12:09:58Z</time>
      </trkpt>
      <trkpt lat="44.01286" lon="6.52336">
        <ele>1648.8</ele>
        <time>2021-09-12T12:10:01Z</time>
      </trkpt>
      <trkpt lat="44.01282" lon="6.52339">
        <ele>1649.3</ele>
        <time>2021-09-12T12:10:03Z</time>
      </trkpt>
      <trkpt lat="44.01262" lon="6.52353">
        <ele>1651.5</ele>
        <time>2021-09-12T12:10:14Z</time>
      </trkpt>
      <trkpt lat="44.0124" lon="6.5237">
        <ele>1653.7</ele>
        <time>2021-09-12T12:10:26Z</time>
      </trkpt>
      <trkpt lat="44.01223" lon="6.52382">
        <ele>1655.2</ele>
        <time>2021-09-12T12:10:35Z</time>
      </trkpt>
      <trkpt lat="44.0121" lon="6.52391">
        <ele>1656.4</ele>
        <time>2021-09-12T12:10:43Z</time>
      </trkpt>
      <trkpt lat="44.01206" lon="6.52394">
        <ele>1656.7</ele>
        <time>2021-09-12T12:10:45Z</time>
      </trkpt>
      <trkpt lat="44.01203" lon="6.52398">
        <ele>1657.1</ele>
        <time>2021-09-12T12:10:48Z</time>
      </trkpt>
      <trkpt lat="44.012" lon="6.52401">
        <ele>1657.4</ele>
        <time>2021-09-12T12:10:51Z</time>
      </trkpt>
      <trkpt lat="44.01196" lon="6.52405">
        <ele>1657.9</ele>
        <time>2021-09-12T12:10:56Z</time>
      </trkpt>
      <trkpt lat="44.01188" lon="6.52417">
        <ele>1659.2</ele>
        <time>2021-09-12T12:11:13Z</time>
      </trkpt>
      <trkpt lat="44.01186" lon="6.52419">
        <ele>1659.5</ele>
        <time>2021-09-12T12:11:18Z</time>
      </trkpt>
      <trkpt lat="44.01184" lon="6.52421">
        <ele>1659.8</ele>
        <time>2021-09-12T12:11:23Z</time>
      </trkpt>
      <trkpt lat="44.01182" lon="6.52421">
        <ele>1660</ele>
        <time>2021-09-12T12:11:28Z</time>
      </trkpt>
      <trkpt lat="44.0118" lon="6.52421">
        <ele>1660.2</ele>
        <time>2021-09-12T12:11:33Z</time>
      </trkpt>
      <trkpt lat="44.01177" lon="6.52421">
        <ele>1660.6</ele>
        <time>2021-09-12T12:11:39Z</time>
      </trkpt>
      <trkpt lat="44.01175" lon="6.52419">
        <ele>1660.8</ele>
        <time>2021-09-12T12:11:43Z</time>
      </trkpt>
      <trkpt lat="44.01173" lon="6.52416">
        <ele>1661.1</ele>
        <time>2021-09-12T12:11:45Z</time>
      </trkpt>
      <trkpt lat="44.0117" lon="6.52413">
        <ele>1661.5</ele>
        <time>2021-09-12T12:11:47Z</time>
      </trkpt>
      <trkpt lat="44.01167" lon="6.52409">
        <ele>1661.9</ele>
        <time>2021-09-12T12:11:49Z</time>
      </trkpt>
      <trkpt lat="44.01165" lon="6.52406">
        <ele>1662.1</ele>
        <time>2021-09-12T12:11:50Z</time>
      </trkpt>
      <trkpt lat="44.01153" lon="6.52393">
        <ele>1662.9</ele>
        <time>2021-09-12T12:11:53Z</time>
      </trkpt>
      <trkpt lat="44.01148" lon="6.52387">
        <ele>1663.2</ele>
        <time>2021-09-12T12:11:55Z</time>
      </trkpt>
      <trkpt lat="44.01141" lon="6.52382">
        <ele>1663.4</ele>
        <time>2021-09-12T12:11:56Z</time>
      </trkpt>
      <trkpt lat="44.01135" lon="6.52378">
        <ele>1663.7</ele>
        <time>2021-09-12T12:11:57Z</time>
      </trkpt>
      <trkpt lat="44.01129" lon="6.52373">
        <ele>1663.9</ele>
        <time>2021-09-12T12:11:58Z</time>
      </trkpt>
      <trkpt lat="44.01125" lon="6.52372">
        <ele>1664</ele>
        <time>2021-09-12T12:11:59Z</time>
      </trkpt>
      <trkpt lat="44.01116" lon="6.5237">
        <ele>1664.4</ele>
        <time>2021-09-12T12:12:00Z</time>
      </trkpt>
      <trkpt lat="44.01112" lon="6.5237">
        <ele>1664.6</ele>
        <time>2021-09-12T12:12:01Z</time>
      </trkpt>
      <trkpt lat="44.01105" lon="6.5237">
        <ele>1664.9</ele>
        <time>2021-09-12T12:12:03Z</time>
      </trkpt>
      <trkpt lat="44.01098" lon="6.52368">
        <ele>1665.3</ele>
        <time>2021-09-12T12:12:05Z</time>
      </trkpt>
      <trkpt lat="44.01091" lon="6.52366">
        <ele>1665.6</ele>
        <time>2021-09-12T12:12:07Z</time>
      </trkpt>
      <trkpt lat="44.01084" lon="6.52364">
        <ele>1666</ele>
        <time>2021-09-12T12:12:10Z</time>
      </trkpt>
      <trkpt lat="44.01066" lon="6.52357">
        <ele>1666.9</ele>
        <time>2021-09-12T12:12:21Z</time>
      </trkpt>
      <trkpt lat="44.01052" lon="6.52353">
        <ele>1667.7</ele>
        <time>2021-09-12T12:12:33Z</time>
      </trkpt>
      <trkpt lat="44.0103" lon="6.52347">
        <ele>1668.7</ele>
        <time>2021-09-12T12:12:53Z</time>
      </trkpt>
      <trkpt lat="44.01012" lon="6.52339">
        <ele>1669.9</ele>
        <time>2021-09-12T12:13:11Z</time>
      </trkpt>
      <trkpt lat="44.00983" lon="6.52325">
        <ele>1671.7</ele>
        <time>2021-09-12T12:13:40Z</time>
      </trkpt>
      <trkpt lat="44.00962" lon="6.52316">
        <ele>1673.1</ele>
        <time>2021-09-12T12:13:58Z</time>
      </trkpt>
      <trkpt lat="44.00957" lon="6.5231">
        <ele>1673.5</ele>
        <time>2021-09-12T12:14:03Z</time>
      </trkpt>
      <trkpt lat="44.00945" lon="6.52296">
        <ele>1674.5</ele>
        <time>2021-09-12T12:14:12Z</time>
      </trkpt>
      <trkpt lat="44.00933" lon="6.52284">
        <ele>1675.5</ele>
        <time>2021-09-12T12:14:20Z</time>
      </trkpt>
      <trkpt lat="44.00923" lon="6.52276">
        <ele>1676.3</ele>
        <time>2021-09-12T12:14:26Z</time>
      </trkpt>
      <trkpt lat="44.00912" lon="6.52269">
        <ele>1676.9</ele>
        <time>2021-09-12T12:14:31Z</time>
      </trkpt>
      <trkpt lat="44.00903" lon="6.52265">
        <ele>1677.4</ele>
        <time>2021-09-12T12:14:36Z</time>
      </trkpt>
      <trkpt lat="44.00882" lon="6.52259">
        <ele>1678.2</ele>
        <time>2021-09-12T12:14:47Z</time>
      </trkpt>
      <trkpt lat="44.00877" lon="6.52257">
        <ele>1678.4</ele>
        <time>2021-09-12T12:14:50Z</time>
      </trkpt>
      <trkpt lat="44.00859" lon="6.5225">
        <ele>1678.9</ele>
        <time>2021-09-12T12:15:01Z</time>
      </trkpt>
      <trkpt lat="44.00836" lon="6.52238">
        <ele>1679.5</ele>
        <time>2021-09-12T12:15:15Z</time>
      </trkpt>
      <trkpt lat="44.00816" lon="6.5223">
        <ele>1680</ele>
        <time>2021-09-12T12:15:28Z</time>
      </trkpt>
      <trkpt lat="44.00794" lon="6.52221">
        <ele>1680.4</ele>
        <time>2021-09-12T12:15:42Z</time>
      </trkpt>
      <trkpt lat="44.00779" lon="6.52212">
        <ele>1680.6</ele>
        <time>2021-09-12T12:15:52Z</time>
      </trkpt>
      <trkpt lat="44.00776" lon="6.52211">
        <ele>1680.6</ele>
        <time>2021-09-12T12:15:53Z</time>
      </trkpt>
      <trkpt lat="44.00772" lon="6.5221">
        <ele>1680.7</ele>
        <time>2021-09-12T12:15:55Z</time>
      </trkpt>
      <trkpt lat="44.00769" lon="6.52211">
        <ele>1680.7</ele>
        <time>2021-09-12T12:15:57Z</time>
      </trkpt>
      <trkpt lat="44.00768" lon="6.52214">
        <ele>1680.8</ele>
        <time>2021-09-12T12:15:58Z</time>
      </trkpt>
      <trkpt lat="44.0077" lon="6.52217">
        <ele>1680.9</ele>
        <time>2021-09-12T12:15:59Z</time>
      </trkpt>
      <trkpt lat="44.00774" lon="6.5222">
        <ele>1681.2</ele>
        <time>2021-09-12T12:16:00Z</time>
      </trkpt>
      <trkpt lat="44.00786" lon="6.52226">
        <ele>1682.2</ele>
        <time>2021-09-12T12:16:05Z</time>
      </trkpt>
      <trkpt lat="44.00788" lon="6.52227">
        <ele>1682.3</ele>
        <time>2021-09-12T12:16:06Z</time>
      </trkpt>
      <trkpt lat="44.00803" lon="6.52239">
        <ele>1683.4</ele>
        <time>2021-09-12T12:16:13Z</time>
      </trkpt>
      <trkpt lat="44.00815" lon="6.5225">
        <ele>1684.1</ele>
        <time>2021-09-12T12:16:19Z</time>
      </trkpt>
      <trkpt lat="44.00822" lon="6.52254">
        <ele>1684.4</ele>
        <time>2021-09-12T12:16:22Z</time>
      </trkpt>
      <trkpt lat="44.00832" lon="6.52257">
        <ele>1684.9</ele>
        <time>2021-09-12T12:16:26Z</time>
      </trkpt>
      <trkpt lat="44.00837" lon="6.52258">
        <ele>1685.1</ele>
        <time>2021-09-12T12:16:28Z</time>
      </trkpt>
      <trkpt lat="44.00843" lon="6.52262">
        <ele>1685.4</ele>
        <time>2021-09-12T12:16:31Z</time>
      </trkpt>
      <trkpt lat="44.00851" lon="6.5227">
        <ele>1686</ele>
        <time>2021-09-12T12:16:34Z</time>
      </trkpt>
      <trkpt lat="44.00868" lon="6.52286">
        <ele>1688</ele>
        <time>2021-09-12T12:16:41Z</time>
      </trkpt>
      <trkpt lat="44.00871" lon="6.52291">
        <ele>1688.4</ele>
        <time>2021-09-12T12:16:42Z</time>
      </trkpt>
      <trkpt lat="44.00874" lon="6.52299">
        <ele>1688.9</ele>
        <time>2021-09-12T12:16:45Z</time>
      </trkpt>
      <trkpt lat="44.00876" lon="6.52313">
        <ele>1689.6</ele>
        <time>2021-09-12T12:16:49Z</time>
      </trkpt>
      <trkpt lat="44.00879" lon="6.52335">
        <ele>1690.7</ele>
        <time>2021-09-12T12:16:55Z</time>
      </trkpt>
      <trkpt lat="44.00884" lon="6.52345">
        <ele>1691.3</ele>
        <time>2021-09-12T12:16:59Z</time>
      </trkpt>
      <trkpt lat="44.0089" lon="6.52352">
        <ele>1691.8</ele>
        <time>2021-09-12T12:17:04Z</time>
      </trkpt>
      <trkpt lat="44.00904" lon="6.5236">
        <ele>1692.9</ele>
        <time>2021-09-12T12:17:13Z</time>
      </trkpt>
      <trkpt lat="44.00912" lon="6.52366">
        <ele>1693.6</ele>
        <time>2021-09-12T12:17:20Z</time>
      </trkpt>
      <trkpt lat="44.00925" lon="6.52375">
        <ele>1694.9</ele>
        <time>2021-09-12T12:17:30Z</time>
      </trkpt>
      <trkpt lat="44.00942" lon="6.5239">
        <ele>1696.8</ele>
        <time>2021-09-12T12:17:45Z</time>
      </trkpt>
      <trkpt lat="44.00964" lon="6.5241">
        <ele>1699.3</ele>
        <time>2021-09-12T12:18:02Z</time>
      </trkpt>
      <trkpt lat="44.00982" lon="6.5243">
        <ele>1701.5</ele>
        <time>2021-09-12T12:18:17Z</time>
      </trkpt>
      <trkpt lat="44.01009" lon="6.52455">
        <ele>1704.5</ele>
        <time>2021-09-12T12:18:37Z</time>
      </trkpt>
      <trkpt lat="44.0103" lon="6.52472">
        <ele>1706.7</ele>
        <time>2021-09-12T12:18:50Z</time>
      </trkpt>
      <trkpt lat="44.01057" lon="6.52495">
        <ele>1709.7</ele>
        <time>2021-09-12T12:19:06Z</time>
      </trkpt>
      <trkpt lat="44.01082" lon="6.52513">
        <ele>1712.5</ele>
        <time>2021-09-12T12:19:18Z</time>
      </trkpt>
      <trkpt lat="44.01087" lon="6.52517">
        <ele>1713</ele>
        <time>2021-09-12T12:19:21Z</time>
      </trkpt>
      <trkpt lat="44.01093" lon="6.52522">
        <ele>1713.6</ele>
        <time>2021-09-12T12:19:23Z</time>
      </trkpt>
      <trkpt lat="44.01099" lon="6.52527">
        <ele>1714.3</ele>
        <time>2021-09-12T12:19:26Z</time>
      </trkpt>
      <trkpt lat="44.01104" lon="6.52532">
        <ele>1714.9</ele>
        <time>2021-09-12T12:19:29Z</time>
      </trkpt>
      <trkpt lat="44.01108" lon="6.52536">
        <ele>1715.3</ele>
        <time>2021-09-12T12:19:32Z</time>
      </trkpt>
      <trkpt lat="44.01111" lon="6.5254">
        <ele>1715.7</ele>
        <time>2021-09-12T12:19:34Z</time>
      </trkpt>
      <trkpt lat="44.01114" lon="6.52545">
        <ele>1716.2</ele>
        <time>2021-09-12T12:19:37Z</time>
      </trkpt>
      <trkpt lat="44.01116" lon="6.5255">
        <ele>1716.6</ele>
        <time>2021-09-12T12:19:40Z</time>
      </trkpt>
      <trkpt lat="44.01119" lon="6.52557">
        <ele>1717.3</ele>
        <time>2021-09-12T12:19:45Z</time>
      </trkpt>
      <trkpt lat="44.01122" lon="6.52564">
        <ele>1718</ele>
        <time>2021-09-12T12:19:50Z</time>
      </trkpt>
      <trkpt lat="44.01125" lon="6.52572">
        <ele>1718.8</ele>
        <time>2021-09-12T12:19:58Z</time>
      </trkpt>
      <trkpt lat="44.01128" lon="6.52579">
        <ele>1719.4</ele>
        <time>2021-09-12T12:20:08Z</time>
      </trkpt>
      <trkpt lat="44.0113" lon="6.52584">
        <ele>1719.8</ele>
        <time>2021-09-12T12:20:16Z</time>
      </trkpt>
      <trkpt lat="44.01132" lon="6.52589">
        <ele>1720.2</ele>
        <time>2021-09-12T12:20:26Z</time>
      </trkpt>
      <trkpt lat="44.01134" lon="6.52593">
        <ele>1720.6</ele>
        <time>2021-09-12T12:20:34Z</time>
      </trkpt>
      <trkpt lat="44.01137" lon="6.52597">
        <ele>1721</ele>
        <time>2021-09-12T12:20:43Z</time>
      </trkpt>
      <trkpt lat="44.0114" lon="6.52601">
        <ele>1721.3</ele>
        <time>2021-09-12T12:20:53Z</time>
      </trkpt>
      <trkpt lat="44.01143" lon="6.52604">
        <ele>1721.6</ele>
        <time>2021-09-12T12:21:01Z</time>
      </trkpt>
      <trkpt lat="44.01147" lon="6.52608">
        <ele>1722</ele>
        <time>2021-09-12T12:21:11Z</time>
      </trkpt>
      <trkpt lat="44.01153" lon="6.52612">
        <ele>1722.6</ele>
        <time>2021-09-12T12:21:22Z</time>
      </trkpt>
      <trkpt lat="44.01158" lon="6.52615">
        <ele>1723</ele>
        <time>2021-09-12T12:21:29Z</time>
      </trkpt>
      <trkpt lat="44.01163" lon="6.52619">
        <ele>1723.5</ele>
        <time>2021-09-12T12:21:34Z</time>
      </trkpt>
      <trkpt lat="44.01177" lon="6.52626">
        <ele>1724.8</ele>
        <time>2021-09-12T12:21:47Z</time>
      </trkpt>
      <trkpt lat="44.01201" lon="6.52637">
        <ele>1726.6</ele>
        <time>2021-09-12T12:22:06Z</time>
      </trkpt>
      <trkpt lat="44.01209" lon="6.52641">
        <ele>1727.3</ele>
        <time>2021-09-12T12:22:12Z</time>
      </trkpt>
      <trkpt lat="44.01216" lon="6.52645">
        <ele>1728.1</ele>
        <time>2021-09-12T12:22:18Z</time>
      </trkpt>
      <trkpt lat="44.01224" lon="6.52649">
        <ele>1728.9</ele>
        <time>2021-09-12T12:22:24Z</time>
      </trkpt>
      <trkpt lat="44.01232" lon="6.52654">
        <ele>1729.6</ele>
        <time>2021-09-12T12:22:30Z</time>
      </trkpt>
      <trkpt lat="44.01236" lon="6.52658">
        <ele>1730</ele>
        <time>2021-09-12T12:22:33Z</time>
      </trkpt>
      <trkpt lat="44.01241" lon="6.52661">
        <ele>1730.5</ele>
        <time>2021-09-12T12:22:38Z</time>
      </trkpt>
      <trkpt lat="44.01245" lon="6.52665">
        <ele>1731</ele>
        <time>2021-09-12T12:22:43Z</time>
      </trkpt>
      <trkpt lat="44.0125" lon="6.52668">
        <ele>1731.5</ele>
        <time>2021-09-12T12:22:49Z</time>
      </trkpt>
      <trkpt lat="44.01255" lon="6.52673">
        <ele>1732.2</ele>
        <time>2021-09-12T12:22:58Z</time>
      </trkpt>
      <trkpt lat="44.0126" lon="6.52677">
        <ele>1732.8</ele>
        <time>2021-09-12T12:23:09Z</time>
      </trkpt>
      <trkpt lat="44.01266" lon="6.5268">
        <ele>1733.4</ele>
        <time>2021-09-12T12:23:23Z</time>
      </trkpt>
      <trkpt lat="44.01271" lon="6.52684">
        <ele>1734</ele>
        <time>2021-09-12T12:23:34Z</time>
      </trkpt>
      <trkpt lat="44.01273" lon="6.52685">
        <ele>1734.2</ele>
        <time>2021-09-12T12:23:37Z</time>
      </trkpt>
      <trkpt lat="44.01275" lon="6.52686">
        <ele>1734.4</ele>
        <time>2021-09-12T12:23:40Z</time>
      </trkpt>
      <trkpt lat="44.01277" lon="6.52688">
        <ele>1734.6</ele>
        <time>2021-09-12T12:23:42Z</time>
      </trkpt>
      <trkpt lat="44.01278" lon="6.5269">
        <ele>1734.7</ele>
        <time>2021-09-12T12:23:44Z</time>
      </trkpt>
      <trkpt lat="44.01279" lon="6.52692">
        <ele>1734.9</ele>
        <time>2021-09-12T12:23:46Z</time>
      </trkpt>
      <trkpt lat="44.0128" lon="6.52694">
        <ele>1735</ele>
        <time>2021-09-12T12:23:47Z</time>
      </trkpt>
      <trkpt lat="44.0128" lon="6.52696">
        <ele>1735.1</ele>
        <time>2021-09-12T12:23:49Z</time>
      </trkpt>
      <trkpt lat="44.01279" lon="6.52698">
        <ele>1735.3</ele>
        <time>2021-09-12T12:23:50Z</time>
      </trkpt>
      <trkpt lat="44.01278" lon="6.52699">
        <ele>1735.4</ele>
        <time>2021-09-12T12:23:51Z</time>
      </trkpt>
      <trkpt lat="44.01277" lon="6.527">
        <ele>1735.4</ele>
        <time>2021-09-12T12:23:53Z</time>
      </trkpt>
      <trkpt lat="44.01275" lon="6.52701">
        <ele>1735.6</ele>
        <time>2021-09-12T12:23:55Z</time>
      </trkpt>
      <trkpt lat="44.01273" lon="6.52701">
        <ele>1735.8</ele>
        <time>2021-09-12T12:23:57Z</time>
      </trkpt>
      <trkpt lat="44.0127" lon="6.52701">
        <ele>1736</ele>
        <time>2021-09-12T12:24:01Z</time>
      </trkpt>
      <trkpt lat="44.01268" lon="6.52701">
        <ele>1736.1</ele>
        <time>2021-09-12T12:24:03Z</time>
      </trkpt>
      <trkpt lat="44.01263" lon="6.52701">
        <ele>1736.4</ele>
        <time>2021-09-12T12:24:07Z</time>
      </trkpt>
      <trkpt lat="44.01258" lon="6.52702">
        <ele>1736.7</ele>
        <time>2021-09-12T12:24:11Z</time>
      </trkpt>
      <trkpt lat="44.01252" lon="6.52703">
        <ele>1737</ele>
        <time>2021-09-12T12:24:14Z</time>
      </trkpt>
      <trkpt lat="44.01248" lon="6.52706">
        <ele>1737.4</ele>
        <time>2021-09-12T12:24:16Z</time>
      </trkpt>
      <trkpt lat="44.01228" lon="6.52719">
        <ele>1739.1</ele>
        <time>2021-09-12T12:24:26Z</time>
      </trkpt>
      <trkpt lat="44.0121" lon="6.52732">
        <ele>1740.4</ele>
        <time>2021-09-12T12:24:34Z</time>
      </trkpt>
      <trkpt lat="44.01194" lon="6.52745">
        <ele>1741.8</ele>
        <time>2021-09-12T12:24:41Z</time>
      </trkpt>
      <trkpt lat="44.01177" lon="6.52757">
        <ele>1743.5</ele>
        <time>2021-09-12T12:24:48Z</time>
      </trkpt>
      <trkpt lat="44.01163" lon="6.52766">
        <ele>1744.9</ele>
        <time>2021-09-12T12:24:55Z</time>
      </trkpt>
      <trkpt lat="44.01156" lon="6.5277">
        <ele>1745.6</ele>
        <time>2021-09-12T12:24:58Z</time>
      </trkpt>
      <trkpt lat="44.01148" lon="6.52774">
        <ele>1746.4</ele>
        <time>2021-09-12T12:25:02Z</time>
      </trkpt>
      <trkpt lat="44.01141" lon="6.52777">
        <ele>1747.1</ele>
        <time>2021-09-12T12:25:06Z</time>
      </trkpt>
      <trkpt lat="44.01134" lon="6.52781">
        <ele>1747.8</ele>
        <time>2021-09-12T12:25:11Z</time>
      </trkpt>
      <trkpt lat="44.01127" lon="6.52784">
        <ele>1748.5</ele>
        <time>2021-09-12T12:25:16Z</time>
      </trkpt>
      <trkpt lat="44.01119" lon="6.52786">
        <ele>1749.2</ele>
        <time>2021-09-12T12:25:22Z</time>
      </trkpt>
      <trkpt lat="44.01112" lon="6.52789">
        <ele>1749.8</ele>
        <time>2021-09-12T12:25:28Z</time>
      </trkpt>
      <trkpt lat="44.01105" lon="6.5279">
        <ele>1750.3</ele>
        <time>2021-09-12T12:25:32Z</time>
      </trkpt>
      <trkpt lat="44.01098" lon="6.52791">
        <ele>1750.7</ele>
        <time>2021-09-12T12:25:37Z</time>
      </trkpt>
      <trkpt lat="44.01091" lon="6.52791">
        <ele>1751.1</ele>
        <time>2021-09-12T12:25:41Z</time>
      </trkpt>
      <trkpt lat="44.01084" lon="6.52791">
        <ele>1751.5</ele>
        <time>2021-09-12T12:25:45Z</time>
      </trkpt>
      <trkpt lat="44.01077" lon="6.52791">
        <ele>1752</ele>
        <time>2021-09-12T12:25:48Z</time>
      </trkpt>
      <trkpt lat="44.0107" lon="6.52791">
        <ele>1752.4</ele>
        <time>2021-09-12T12:25:51Z</time>
      </trkpt>
      <trkpt lat="44.01063" lon="6.52792">
        <ele>1752.9</ele>
        <time>2021-09-12T12:25:54Z</time>
      </trkpt>
      <trkpt lat="44.01056" lon="6.52794">
        <ele>1753.5</ele>
        <time>2021-09-12T12:25:57Z</time>
      </trkpt>
      <trkpt lat="44.01049" lon="6.52796">
        <ele>1753.8</ele>
        <time>2021-09-12T12:26:01Z</time>
      </trkpt>
      <trkpt lat="44.01032" lon="6.52804">
        <ele>1754.6</ele>
        <time>2021-09-12T12:26:10Z</time>
      </trkpt>
      <trkpt lat="44.01024" lon="6.52807">
        <ele>1754.9</ele>
        <time>2021-09-12T12:26:15Z</time>
      </trkpt>
      <trkpt lat="44.01018" lon="6.5281">
        <ele>1755.1</ele>
        <time>2021-09-12T12:26:19Z</time>
      </trkpt>
      <trkpt lat="44.00872" lon="6.52591">
        <ele>1746.3</ele>
        <time>2021-09-12T12:28:49Z</time>
      </trkpt>
      <trkpt lat="44.00705" lon="6.52466">
        <ele>1701.3</ele>
        <time>2021-09-12T12:30:41Z</time>
      </trkpt>
      <trkpt lat="44.00403" lon="6.5227">
        <ele>1652.3</ele>
        <time>2021-09-12T12:32:54Z</time>
      </trkpt>
      <trkpt lat="43.99955" lon="6.52116">
        <ele>1549.1</ele>
        <time>2021-09-12T12:35:22Z</time>
      </trkpt>
      <trkpt lat="44.00087" lon="6.52007">
        <ele>1521</ele>
        <time>2021-09-12T12:36:03Z</time>
      </trkpt>
      <trkpt lat="43.99894" lon="6.51966">
        <ele>1506.8</ele>
        <time>2021-09-12T12:36:46Z</time>
      </trkpt>
      <trkpt lat="44.00007" lon="6.5193">
        <ele>1500.1</ele>
        <time>2021-09-12T12:37:09Z</time>
      </trkpt>
      <trkpt lat="43.99996" lon="6.51936">
        <ele>1501.7</ele>
        <time>2021-09-12T12:37:11Z</time>
      </trkpt>
      <trkpt lat="43.9998" lon="6.51926">
        <ele>1498.8</ele>
        <time>2021-09-12T12:37:14Z</time>
      </trkpt>
      <trkpt lat="43.99957" lon="6.51915">
        <ele>1494.9</ele>
        <time>2021-09-12T12:37:18Z</time>
      </trkpt>
      <trkpt lat="43.9993" lon="6.51911">
        <ele>1491.2</ele>
        <time>2021-09-12T12:37:23Z</time>
      </trkpt>
      <trkpt lat="43.99896" lon="6.51908">
        <ele>1486.2</ele>
        <time>2021-09-12T12:37:29Z</time>
      </trkpt>
      <trkpt lat="43.99874" lon="6.51916">
        <ele>1483</ele>
        <time>2021-09-12T12:37:34Z</time>
      </trkpt>
      <trkpt lat="43.99853" lon="6.51922">
        <ele>1480.5</ele>
        <time>2021-09-12T12:37:38Z</time>
      </trkpt>
      <trkpt lat="43.99831" lon="6.51935">
        <ele>1477.3</ele>
        <time>2021-09-12T12:37:42Z</time>
      </trkpt>
      <trkpt lat="43.99817" lon="6.51943">
        <ele>1474.7</ele>
        <time>2021-09-12T12:37:45Z</time>
      </trkpt>
      <trkpt lat="43.99799" lon="6.51981">
        <ele>1470</ele>
        <time>2021-09-12T12:37:50Z</time>
      </trkpt>
      <trkpt lat="43.99788" lon="6.52011">
        <ele>1467.2</ele>
        <time>2021-09-12T12:37:54Z</time>
      </trkpt>
      <trkpt lat="43.99778" lon="6.52041">
        <ele>1464.2</ele>
        <time>2021-09-12T12:37:57Z</time>
      </trkpt>
      <trkpt lat="43.99773" lon="6.52021">
        <ele>1461.5</ele>
        <time>2021-09-12T12:38:00Z</time>
      </trkpt>
      <trkpt lat="43.99763" lon="6.52013">
        <ele>1459.2</ele>
        <time>2021-09-12T12:38:01Z</time>
      </trkpt>
      <trkpt lat="43.99739" lon="6.5201">
        <ele>1454.3</ele>
        <time>2021-09-12T12:38:05Z</time>
      </trkpt>
      <trkpt lat="43.99709" lon="6.52013">
        <ele>1448.2</ele>
        <time>2021-09-12T12:38:09Z</time>
      </trkpt>
      <trkpt lat="43.99679" lon="6.5202">
        <ele>1441.4</ele>
        <time>2021-09-12T12:38:14Z</time>
      </trkpt>
      <trkpt lat="43.99666" lon="6.52019">
        <ele>1438.6</ele>
        <time>2021-09-12T12:38:16Z</time>
      </trkpt>
      <trkpt lat="43.99653" lon="6.52012">
        <ele>1435.6</ele>
        <time>2021-09-12T12:38:18Z</time>
      </trkpt>
      <trkpt lat="43.99634" lon="6.51995">
        <ele>1431.3</ele>
        <time>2021-09-12T12:38:21Z</time>
      </trkpt>
      <trkpt lat="43.99624" lon="6.5199">
        <ele>1429.3</ele>
        <time>2021-09-12T12:38:22Z</time>
      </trkpt>
      <trkpt lat="43.99601" lon="6.51988">
        <ele>1424.4</ele>
        <time>2021-09-12T12:38:25Z</time>
      </trkpt>
      <trkpt lat="43.99578" lon="6.51988">
        <ele>1420.1</ele>
        <time>2021-09-12T12:38:28Z</time>
      </trkpt>
      <trkpt lat="43.99555" lon="6.51987">
        <ele>1415.6</ele>
        <time>2021-09-12T12:38:31Z</time>
      </trkpt>
      <trkpt lat="43.99531" lon="6.51978">
        <ele>1411.1</ele>
        <time>2021-09-12T12:38:35Z</time>
      </trkpt>
      <trkpt lat="43.99508" lon="6.51969">
        <ele>1407.1</ele>
        <time>2021-09-12T12:38:38Z</time>
      </trkpt>
      <trkpt lat="43.9949" lon="6.51952">
        <ele>1403.6</ele>
        <time>2021-09-12T12:38:41Z</time>
      </trkpt>
      <trkpt lat="43.99474" lon="6.51928">
        <ele>1399.5</ele>
        <time>2021-09-12T12:38:44Z</time>
      </trkpt>
      <trkpt lat="43.99461" lon="6.5191">
        <ele>1396.7</ele>
        <time>2021-09-12T12:38:46Z</time>
      </trkpt>
      <trkpt lat="43.99447" lon="6.51888">
        <ele>1394</ele>
        <time>2021-09-12T12:38:49Z</time>
      </trkpt>
      <trkpt lat="43.99423" lon="6.51863">
        <ele>1391.7</ele>
        <time>2021-09-12T12:38:53Z</time>
      </trkpt>
      <trkpt lat="43.99397" lon="6.5185">
        <ele>1389.3</ele>
        <time>2021-09-12T12:38:57Z</time>
      </trkpt>
      <trkpt lat="43.99373" lon="6.51838">
        <ele>1385.7</ele>
        <time>2021-09-12T12:39:01Z</time>
      </trkpt>
      <trkpt lat="43.9937" lon="6.51813">
        <ele>1382.5</ele>
        <time>2021-09-12T12:39:03Z</time>
      </trkpt>
      <trkpt lat="43.99383" lon="6.51815">
        <ele>1380.2</ele>
        <time>2021-09-12T12:39:05Z</time>
      </trkpt>
      <trkpt lat="43.99371" lon="6.51799">
        <ele>1377.2</ele>
        <time>2021-09-12T12:39:07Z</time>
      </trkpt>
      <trkpt lat="43.99337" lon="6.51786">
        <ele>1369.6</ele>
        <time>2021-09-12T12:39:12Z</time>
      </trkpt>
      <trkpt lat="43.99312" lon="6.5178">
        <ele>1360</ele>
        <time>2021-09-12T12:39:16Z</time>
      </trkpt>
      <trkpt lat="43.99287" lon="6.51774">
        <ele>1352</ele>
        <time>2021-09-12T12:39:20Z</time>
      </trkpt>
      <trkpt lat="43.99262" lon="6.51767">
        <ele>1344.9</ele>
        <time>2021-09-12T12:39:23Z</time>
      </trkpt>
      <trkpt lat="43.99237" lon="6.5176">
        <ele>1338.2</ele>
        <time>2021-09-12T12:39:27Z</time>
      </trkpt>
      <trkpt lat="43.992" lon="6.51751">
        <ele>1328</ele>
        <time>2021-09-12T12:39:32Z</time>
      </trkpt>
      <trkpt lat="43.99163" lon="6.51743">
        <ele>1313.7</ele>
        <time>2021-09-12T12:39:37Z</time>
      </trkpt>
      <trkpt lat="43.99142" lon="6.51732">
        <ele>1310.8</ele>
        <time>2021-09-12T12:39:40Z</time>
      </trkpt>
      <trkpt lat="43.99121" lon="6.51721">
        <ele>1308</ele>
        <time>2021-09-12T12:39:43Z</time>
      </trkpt>
      <trkpt lat="43.99099" lon="6.51711">
        <ele>1304.6</ele>
        <time>2021-09-12T12:39:46Z</time>
      </trkpt>
      <trkpt lat="43.99079" lon="6.51703">
        <ele>1300</ele>
        <time>2021-09-12T12:39:49Z</time>
      </trkpt>
      <trkpt lat="43.99091" lon="6.51741">
        <ele>1293.9</ele>
        <time>2021-09-12T12:39:52Z</time>
      </trkpt>
      <trkpt lat="43.99091" lon="6.51751">
        <ele>1292.4</ele>
        <time>2021-09-12T12:39:53Z</time>
      </trkpt>
      <trkpt lat="43.99085" lon="6.51748">
        <ele>1290.9</ele>
        <time>2021-09-12T12:39:54Z</time>
      </trkpt>
      <trkpt lat="43.99067" lon="6.51734">
        <ele>1286.7</ele>
        <time>2021-09-12T12:39:57Z</time>
      </trkpt>
      <trkpt lat="43.99086" lon="6.51781">
        <ele>1279.2</ele>
        <time>2021-09-12T12:40:02Z</time>
      </trkpt>
      <trkpt lat="43.99084" lon="6.51786">
        <ele>1278.5</ele>
        <time>2021-09-12T12:40:03Z</time>
      </trkpt>
      <trkpt lat="43.99077" lon="6.51778">
        <ele>1276.9</ele>
        <time>2021-09-12T12:40:04Z</time>
      </trkpt>
      <trkpt lat="43.99064" lon="6.51763">
        <ele>1274</ele>
        <time>2021-09-12T12:40:06Z</time>
      </trkpt>
      <trkpt lat="43.99029" lon="6.51739">
        <ele>1268.1</ele>
        <time>2021-09-12T12:40:11Z</time>
      </trkpt>
      <trkpt lat="43.99001" lon="6.51726">
        <ele>1263.5</ele>
        <time>2021-09-12T12:40:15Z</time>
      </trkpt>
      <trkpt lat="43.98974" lon="6.51712">
        <ele>1258.7</ele>
        <time>2021-09-12T12:40:19Z</time>
      </trkpt>
      <trkpt lat="43.98952" lon="6.51699">
        <ele>1255.2</ele>
        <time>2021-09-12T12:40:22Z</time>
      </trkpt>
      <trkpt lat="43.9893" lon="6.51685">
        <ele>1251.2</ele>
        <time>2021-09-12T12:40:25Z</time>
      </trkpt>
      <trkpt lat="43.98888" lon="6.51671">
        <ele>1243.4</ele>
        <time>2021-09-12T12:40:31Z</time>
      </trkpt>
      <trkpt lat="43.98862" lon="6.51667">
        <ele>1238.2</ele>
        <time>2021-09-12T12:40:34Z</time>
      </trkpt>
      <trkpt lat="43.98836" lon="6.51663">
        <ele>1233.9</ele>
        <time>2021-09-12T12:40:38Z</time>
      </trkpt>
      <trkpt lat="43.98796" lon="6.51654">
        <ele>1227.4</ele>
        <time>2021-09-12T12:40:43Z</time>
      </trkpt>
      <trkpt lat="43.98785" lon="6.5165">
        <ele>1225.6</ele>
        <time>2021-09-12T12:40:45Z</time>
      </trkpt>
      <trkpt lat="43.98773" lon="6.51647">
        <ele>1223.4</ele>
        <time>2021-09-12T12:40:46Z</time>
      </trkpt>
      <trkpt lat="43.98741" lon="6.5164">
        <ele>1217</ele>
        <time>2021-09-12T12:40:50Z</time>
      </trkpt>
      <trkpt lat="43.98709" lon="6.51634">
        <ele>1211.3</ele>
        <time>2021-09-12T12:40:55Z</time>
      </trkpt>
      <trkpt lat="43.98703" lon="6.51623">
        <ele>1209.3</ele>
        <time>2021-09-12T12:40:56Z</time>
      </trkpt>
      <trkpt lat="43.98696" lon="6.51617">
        <ele>1207.1</ele>
        <time>2021-09-12T12:40:57Z</time>
      </trkpt>
      <trkpt lat="43.98685" lon="6.51608">
        <ele>1203.8</ele>
        <time>2021-09-12T12:40:59Z</time>
      </trkpt>
      <trkpt lat="43.98677" lon="6.51602">
        <ele>1201.7</ele>
        <time>2021-09-12T12:41:00Z</time>
      </trkpt>
      <trkpt lat="43.98666" lon="6.51596">
        <ele>1199</ele>
        <time>2021-09-12T12:41:01Z</time>
      </trkpt>
      <trkpt lat="43.98653" lon="6.51589">
        <ele>1195.9</ele>
        <time>2021-09-12T12:41:03Z</time>
      </trkpt>
      <trkpt lat="43.98637" lon="6.51578">
        <ele>1191.8</ele>
        <time>2021-09-12T12:41:06Z</time>
      </trkpt>
      <trkpt lat="43.98628" lon="6.51571">
        <ele>1189.5</ele>
        <time>2021-09-12T12:41:07Z</time>
      </trkpt>
      <trkpt lat="43.98624" lon="6.51568">
        <ele>1188.5</ele>
        <time>2021-09-12T12:41:08Z</time>
      </trkpt>
      <trkpt lat="43.98612" lon="6.51558">
        <ele>1185.3</ele>
        <time>2021-09-12T12:41:09Z</time>
      </trkpt>
      <trkpt lat="43.986" lon="6.5155">
        <ele>1181.9</ele>
        <time>2021-09-12T12:41:11Z</time>
      </trkpt>
      <trkpt lat="43.98588" lon="6.51543">
        <ele>1178.4</ele>
        <time>2021-09-12T12:41:13Z</time>
      </trkpt>
      <trkpt lat="43.98575" lon="6.51536">
        <ele>1174.4</ele>
        <time>2021-09-12T12:41:15Z</time>
      </trkpt>
      <trkpt lat="43.98555" lon="6.51527">
        <ele>1168.8</ele>
        <time>2021-09-12T12:41:17Z</time>
      </trkpt>
      <trkpt lat="43.98542" lon="6.51522">
        <ele>1165.4</ele>
        <time>2021-09-12T12:41:19Z</time>
      </trkpt>
      <trkpt lat="43.98523" lon="6.51511">
        <ele>1160.3</ele>
        <time>2021-09-12T12:41:22Z</time>
      </trkpt>
      <trkpt lat="43.9851" lon="6.51505">
        <ele>1156.9</ele>
        <time>2021-09-12T12:41:24Z</time>
      </trkpt>
      <trkpt lat="43.98485" lon="6.51493">
        <ele>1149.8</ele>
        <time>2021-09-12T12:41:27Z</time>
      </trkpt>
      <trkpt lat="43.98467" lon="6.51485">
        <ele>1145</ele>
        <time>2021-09-12T12:41:29Z</time>
      </trkpt>
      <trkpt lat="43.98458" lon="6.51476">
        <ele>1144.3</ele>
        <time>2021-09-12T12:41:31Z</time>
      </trkpt>
      <trkpt lat="43.98442" lon="6.51462">
        <ele>1143.1</ele>
        <time>2021-09-12T12:41:33Z</time>
      </trkpt>
      <trkpt lat="43.98436" lon="6.51455">
        <ele>1142.1</ele>
        <time>2021-09-12T12:41:34Z</time>
      </trkpt>
      <trkpt lat="43.98435" lon="6.51446">
        <ele>1141.3</ele>
        <time>2021-09-12T12:41:35Z</time>
      </trkpt>
      <trkpt lat="43.9844" lon="6.51439">
        <ele>1140.3</ele>
        <time>2021-09-12T12:41:36Z</time>
      </trkpt>
      <trkpt lat="43.98451" lon="6.51436">
        <ele>1138.8</ele>
        <time>2021-09-12T12:41:38Z</time>
      </trkpt>
      <trkpt lat="43.98478" lon="6.51428">
        <ele>1135</ele>
        <time>2021-09-12T12:41:41Z</time>
      </trkpt>
      <trkpt lat="43.98501" lon="6.51426">
        <ele>1132</ele>
        <time>2021-09-12T12:41:45Z</time>
      </trkpt>
      <trkpt lat="43.98524" lon="6.51423">
        <ele>1128.9</ele>
        <time>2021-09-12T12:41:48Z</time>
      </trkpt>
      <trkpt lat="43.98543" lon="6.51407">
        <ele>1126.3</ele>
        <time>2021-09-12T12:41:52Z</time>
      </trkpt>
      <trkpt lat="43.9856" lon="6.5136">
        <ele>1123.5</ele>
        <time>2021-09-12T12:41:59Z</time>
      </trkpt>
      <trkpt lat="43.9857" lon="6.51335">
        <ele>1123.7</ele>
        <time>2021-09-12T12:42:03Z</time>
      </trkpt>
      <trkpt lat="43.98571" lon="6.51316">
        <ele>1124.8</ele>
        <time>2021-09-12T12:42:05Z</time>
      </trkpt>
      <trkpt lat="43.98569" lon="6.51294">
        <ele>1126.6</ele>
        <time>2021-09-12T12:42:08Z</time>
      </trkpt>
      <trkpt lat="43.98568" lon="6.5127">
        <ele>1128.9</ele>
        <time>2021-09-12T12:42:12Z</time>
      </trkpt>
      <trkpt lat="43.98567" lon="6.51257">
        <ele>1130</ele>
        <time>2021-09-12T12:42:14Z</time>
      </trkpt>
      <trkpt lat="43.98583" lon="6.51257">
        <ele>1131</ele>
        <time>2021-09-12T12:42:17Z</time>
      </trkpt>
      <trkpt lat="43.98604" lon="6.51241">
        <ele>1131.6</ele>
        <time>2021-09-12T12:42:22Z</time>
      </trkpt>
      <trkpt lat="43.9863" lon="6.51228">
        <ele>1131.2</ele>
        <time>2021-09-12T12:42:28Z</time>
      </trkpt>
      <trkpt lat="43.98646" lon="6.51212">
        <ele>1130.8</ele>
        <time>2021-09-12T12:42:32Z</time>
      </trkpt>
      <trkpt lat="43.98679" lon="6.51192">
        <ele>1130.1</ele>
        <time>2021-09-12T12:42:39Z</time>
      </trkpt>
      <trkpt lat="43.987" lon="6.51176">
        <ele>1129.9</ele>
        <time>2021-09-12T12:42:44Z</time>
      </trkpt>
      <trkpt lat="43.98721" lon="6.5116">
        <ele>1130</ele>
        <time>2021-09-12T12:42:50Z</time>
      </trkpt>
      <trkpt lat="43.98743" lon="6.51149">
        <ele>1130.4</ele>
        <time>2021-09-12T12:42:55Z</time>
      </trkpt>
      <trkpt lat="43.98765" lon="6.51138">
        <ele>1131.3</ele>
        <time>2021-09-12T12:43:01Z</time>
      </trkpt>
      <trkpt lat="43.98801" lon="6.51135">
        <ele>1134.1</ele>
        <time>2021-09-12T12:43:12Z</time>
      </trkpt>
      <trkpt lat="43.98824" lon="6.51131">
        <ele>1135.8</ele>
        <time>2021-09-12T12:43:19Z</time>
      </trkpt>
      <trkpt lat="43.98848" lon="6.51126">
        <ele>1137.5</ele>
        <time>2021-09-12T12:43:28Z</time>
      </trkpt>
      <trkpt lat="43.98881" lon="6.51113">
        <ele>1141.1</ele>
        <time>2021-09-12T12:43:42Z</time>
      </trkpt>
      <trkpt lat="43.98906" lon="6.51115">
        <ele>1144.3</ele>
        <time>2021-09-12T12:43:53Z</time>
      </trkpt>
      <trkpt lat="43.98931" lon="6.51116">
        <ele>1147.2</ele>
        <time>2021-09-12T12:44:05Z</time>
      </trkpt>
      <trkpt lat="43.98965" lon="6.51123">
        <ele>1149.8</ele>
        <time>2021-09-12T12:44:24Z</time>
      </trkpt>
      <trkpt lat="43.98979" lon="6.51123">
        <ele>1150.1</ele>
        <time>2021-09-12T12:44:33Z</time>
      </trkpt>
      <trkpt lat="43.99" lon="6.51122">
        <ele>1150.4</ele>
        <time>2021-09-12T12:44:52Z</time>
      </trkpt>
      <trkpt lat="43.99018" lon="6.51117">
        <ele>1150.1</ele>
        <time>2021-09-12T12:45:08Z</time>
      </trkpt>
      <trkpt lat="43.99037" lon="6.51102">
        <ele>1149.2</ele>
        <time>2021-09-12T12:45:22Z</time>
      </trkpt>
      <trkpt lat="43.99051" lon="6.51097">
        <ele>1148.5</ele>
        <time>2021-09-12T12:45:29Z</time>
      </trkpt>
      <trkpt lat="43.9907" lon="6.51099">
        <ele>1147.6</ele>
        <time>2021-09-12T12:45:37Z</time>
      </trkpt>
      <trkpt lat="43.99081" lon="6.51097">
        <ele>1146.5</ele>
        <time>2021-09-12T12:45:41Z</time>
      </trkpt>
      <trkpt lat="43.99108" lon="6.51082">
        <ele>1142.7</ele>
        <time>2021-09-12T12:45:48Z</time>
      </trkpt>
      <trkpt lat="43.99126" lon="6.51081">
        <ele>1142</ele>
        <time>2021-09-12T12:45:52Z</time>
      </trkpt>
      <trkpt lat="43.99144" lon="6.51081">
        <ele>1143.2</ele>
        <time>2021-09-12T12:45:56Z</time>
      </trkpt>
      <trkpt lat="43.99154" lon="6.51081">
        <ele>1144</ele>
        <time>2021-09-12T12:45:58Z</time>
      </trkpt>
      <trkpt lat="43.99163" lon="6.51077">
        <ele>1144.3</ele>
        <time>2021-09-12T12:45:59Z</time>
      </trkpt>
      <trkpt lat="43.9917" lon="6.51072">
        <ele>1144.2</ele>
        <time>2021-09-12T12:46:01Z</time>
      </trkpt>
      <trkpt lat="43.9918" lon="6.51063">
        <ele>1143.8</ele>
        <time>2021-09-12T12:46:02Z</time>
      </trkpt>
      <trkpt lat="43.99201" lon="6.5105">
        <ele>1143.3</ele>
        <time>2021-09-12T12:46:06Z</time>
      </trkpt>
      <trkpt lat="43.99216" lon="6.51043">
        <ele>1143.3</ele>
        <time>2021-09-12T12:46:08Z</time>
      </trkpt>
      <trkpt lat="43.99223" lon="6.51041">
        <ele>1143.3</ele>
        <time>2021-09-12T12:46:09Z</time>
      </trkpt>
      <trkpt lat="43.99235" lon="6.51039">
        <ele>1143.4</ele>
        <time>2021-09-12T12:46:11Z</time>
      </trkpt>
      <trkpt lat="43.99247" lon="6.51035">
        <ele>1143.6</ele>
        <time>2021-09-12T12:46:13Z</time>
      </trkpt>
      <trkpt lat="43.99263" lon="6.51036">
        <ele>1143.9</ele>
        <time>2021-09-12T12:46:15Z</time>
      </trkpt>
      <trkpt lat="43.99282" lon="6.51038">
        <ele>1144.2</ele>
        <time>2021-09-12T12:46:19Z</time>
      </trkpt>
      <trkpt lat="43.99308" lon="6.51031">
        <ele>1144.3</ele>
        <time>2021-09-12T12:46:25Z</time>
      </trkpt>
      <trkpt lat="43.99323" lon="6.51021">
        <ele>1143.7</ele>
        <time>2021-09-12T12:46:29Z</time>
      </trkpt>
      <trkpt lat="43.99332" lon="6.51013">
        <ele>1143</ele>
        <time>2021-09-12T12:46:32Z</time>
      </trkpt>
      <trkpt lat="43.99344" lon="6.50997">
        <ele>1141.9</ele>
        <time>2021-09-12T12:46:37Z</time>
      </trkpt>
      <trkpt lat="43.99358" lon="6.50977">
        <ele>1140.2</ele>
        <time>2021-09-12T12:46:43Z</time>
      </trkpt>
      <trkpt lat="43.99379" lon="6.50951">
        <ele>1137.5</ele>
        <time>2021-09-12T12:46:51Z</time>
      </trkpt>
      <trkpt lat="43.99404" lon="6.50933">
        <ele>1134.6</ele>
        <time>2021-09-12T12:46:59Z</time>
      </trkpt>
      <trkpt lat="43.99415" lon="6.50919">
        <ele>1133</ele>
        <time>2021-09-12T12:47:02Z</time>
      </trkpt>
      <trkpt lat="43.99428" lon="6.50901">
        <ele>1131.5</ele>
        <time>2021-09-12T12:47:06Z</time>
      </trkpt>
      <trkpt lat="43.99444" lon="6.50882">
        <ele>1129.9</ele>
        <time>2021-09-12T12:47:09Z</time>
      </trkpt>
      <trkpt lat="43.99453" lon="6.50876">
        <ele>1128.9</ele>
        <time>2021-09-12T12:47:11Z</time>
      </trkpt>
      <trkpt lat="43.99468" lon="6.5087">
        <ele>1127</ele>
        <time>2021-09-12T12:47:13Z</time>
      </trkpt>
      <trkpt lat="43.99488" lon="6.50862">
        <ele>1124.5</ele>
        <time>2021-09-12T12:47:16Z</time>
      </trkpt>
      <trkpt lat="43.995" lon="6.50855">
        <ele>1123.1</ele>
        <time>2021-09-12T12:47:18Z</time>
      </trkpt>
      <trkpt lat="43.99517" lon="6.50845">
        <ele>1121.3</ele>
        <time>2021-09-12T12:47:21Z</time>
      </trkpt>
      <trkpt lat="43.99531" lon="6.50842">
        <ele>1119.8</ele>
        <time>2021-09-12T12:47:23Z</time>
      </trkpt>
      <trkpt lat="43.99546" lon="6.50839">
        <ele>1118.2</ele>
        <time>2021-09-12T12:47:25Z</time>
      </trkpt>
      <trkpt lat="43.9958" lon="6.50832">
        <ele>1115.2</ele>
        <time>2021-09-12T12:47:31Z</time>
      </trkpt>
      <trkpt lat="43.99621" lon="6.50827">
        <ele>1110.7</ele>
        <time>2021-09-12T12:47:37Z</time>
      </trkpt>
      <trkpt lat="43.99654" lon="6.50799">
        <ele>1106.5</ele>
        <time>2021-09-12T12:47:44Z</time>
      </trkpt>
      <trkpt lat="43.99672" lon="6.50773">
        <ele>1103.7</ele>
        <time>2021-09-12T12:47:48Z</time>
      </trkpt>
      <trkpt lat="43.99695" lon="6.50756">
        <ele>1101.1</ele>
        <time>2021-09-12T12:47:52Z</time>
      </trkpt>
      <trkpt lat="43.99717" lon="6.50747">
        <ele>1098.7</ele>
        <time>2021-09-12T12:47:56Z</time>
      </trkpt>
      <trkpt lat="43.99747" lon="6.50755">
        <ele>1095.5</ele>
        <time>2021-09-12T12:48:00Z</time>
      </trkpt>
      <trkpt lat="43.9976" lon="6.50772">
        <ele>1093.7</ele>
        <time>2021-09-12T12:48:03Z</time>
      </trkpt>
      <trkpt lat="43.99766" lon="6.50782">
        <ele>1092.7</ele>
        <time>2021-09-12T12:48:05Z</time>
      </trkpt>
      <trkpt lat="43.99785" lon="6.50782">
        <ele>1090.8</ele>
        <time>2021-09-12T12:48:08Z</time>
      </trkpt>
      <trkpt lat="43.99799" lon="6.50769">
        <ele>1089.2</ele>
        <time>2021-09-12T12:48:10Z</time>
      </trkpt>
      <trkpt lat="43.99812" lon="6.50768">
        <ele>1088.1</ele>
        <time>2021-09-12T12:48:12Z</time>
      </trkpt>
      <trkpt lat="43.99836" lon="6.50768">
        <ele>1085</ele>
        <time>2021-09-12T12:48:16Z</time>
      </trkpt>
      <trkpt lat="43.99838" lon="6.50764">
        <ele>1084.6</ele>
        <time>2021-09-12T12:48:17Z</time>
      </trkpt>
      <trkpt lat="43.99841" lon="6.50754">
        <ele>1083.5</ele>
        <time>2021-09-12T12:48:18Z</time>
      </trkpt>
      <trkpt lat="43.99845" lon="6.5074">
        <ele>1082.4</ele>
        <time>2021-09-12T12:48:19Z</time>
      </trkpt>
      <trkpt lat="43.99845" lon="6.50734">
        <ele>1082</ele>
        <time>2021-09-12T12:48:20Z</time>
      </trkpt>
      <trkpt lat="43.99853" lon="6.50729">
        <ele>1081.2</ele>
        <time>2021-09-12T12:48:21Z</time>
      </trkpt>
      <trkpt lat="43.9986" lon="6.50729">
        <ele>1080.5</ele>
        <time>2021-09-12T12:48:22Z</time>
      </trkpt>
      <trkpt lat="43.99864" lon="6.50738">
        <ele>1079.7</ele>
        <time>2021-09-12T12:48:23Z</time>
      </trkpt>
      <trkpt lat="43.99867" lon="6.50753">
        <ele>1078.4</ele>
        <time>2021-09-12T12:48:25Z</time>
      </trkpt>
      <trkpt lat="43.99869" lon="6.50758">
        <ele>1078</ele>
        <time>2021-09-12T12:48:26Z</time>
      </trkpt>
      <trkpt lat="43.99871" lon="6.50758">
        <ele>1077.7</ele>
        <time>2021-09-12T12:48:27Z</time>
      </trkpt>
      <trkpt lat="43.99875" lon="6.50755">
        <ele>1077.2</ele>
        <time>2021-09-12T12:48:28Z</time>
      </trkpt>
      <trkpt lat="43.99881" lon="6.50747">
        <ele>1076.3</ele>
        <time>2021-09-12T12:48:31Z</time>
      </trkpt>
      <trkpt lat="43.99886" lon="6.5074">
        <ele>1075.6</ele>
        <time>2021-09-12T12:48:33Z</time>
      </trkpt>
      <trkpt lat="43.99897" lon="6.50738">
        <ele>1074.4</ele>
        <time>2021-09-12T12:48:37Z</time>
      </trkpt>
      <trkpt lat="43.99902" lon="6.50736">
        <ele>1073.8</ele>
        <time>2021-09-12T12:48:39Z</time>
      </trkpt>
      <trkpt lat="43.99904" lon="6.50726">
        <ele>1073</ele>
        <time>2021-09-12T12:48:41Z</time>
      </trkpt>
      <trkpt lat="43.99912" lon="6.50717">
        <ele>1071.9</ele>
        <time>2021-09-12T12:48:43Z</time>
      </trkpt>
      <trkpt lat="43.99925" lon="6.50705">
        <ele>1070.3</ele>
        <time>2021-09-12T12:48:46Z</time>
      </trkpt>
      <trkpt lat="43.99933" lon="6.50703">
        <ele>1069.5</ele>
        <time>2021-09-12T12:48:48Z</time>
      </trkpt>
      <trkpt lat="43.99936" lon="6.50688">
        <ele>1068.3</ele>
        <time>2021-09-12T12:48:49Z</time>
      </trkpt>
      <trkpt lat="43.99942" lon="6.50679">
        <ele>1067.5</ele>
        <time>2021-09-12T12:48:51Z</time>
      </trkpt>
      <trkpt lat="43.99948" lon="6.50665">
        <ele>1066.4</ele>
        <time>2021-09-12T12:48:52Z</time>
      </trkpt>
      <trkpt lat="43.99962" lon="6.50634">
        <ele>1064</ele>
        <time>2021-09-12T12:48:56Z</time>
      </trkpt>
      <trkpt lat="43.99977" lon="6.50603">
        <ele>1061.8</ele>
        <time>2021-09-12T12:48:59Z</time>
      </trkpt>
      <trkpt lat="43.99979" lon="6.50599">
        <ele>1061.5</ele>
        <time>2021-09-12T12:49:00Z</time>
      </trkpt>
      <trkpt lat="43.99988" lon="6.5058">
        <ele>1060</ele>
        <time>2021-09-12T12:49:02Z</time>
      </trkpt>
      <trkpt lat="44" lon="6.5056">
        <ele>1058.1</ele>
        <time>2021-09-12T12:49:04Z</time>
      </trkpt>
      <trkpt lat="44.00013" lon="6.50539">
        <ele>1056.2</ele>
        <time>2021-09-12T12:49:07Z</time>
      </trkpt>
      <trkpt lat="44.00026" lon="6.50519">
        <ele>1054.5</ele>
        <time>2021-09-12T12:49:10Z</time>
      </trkpt>
      <trkpt lat="44.00036" lon="6.50495">
        <ele>1051.6</ele>
        <time>2021-09-12T12:49:12Z</time>
      </trkpt>
      <trkpt lat="44.00009" lon="6.50521">
        <ele>1047.2</ele>
        <time>2021-09-12T12:49:17Z</time>
      </trkpt>
      <trkpt lat="43.99986" lon="6.50527">
        <ele>1045</ele>
        <time>2021-09-12T12:49:20Z</time>
      </trkpt>
      <trkpt lat="43.99962" lon="6.50509">
        <ele>1042.5</ele>
        <time>2021-09-12T12:49:23Z</time>
      </trkpt>
      <trkpt lat="43.99948" lon="6.50514">
        <ele>1041</ele>
        <time>2021-09-12T12:49:25Z</time>
      </trkpt>
      <trkpt lat="43.9994" lon="6.50524">
        <ele>1039.8</ele>
        <time>2021-09-12T12:49:27Z</time>
      </trkpt>
      <trkpt lat="43.99834" lon="6.50385">
        <ele>1025.2</ele>
        <time>2021-09-12T12:49:50Z</time>
      </trkpt>
      <trkpt lat="43.99729" lon="6.5038">
        <ele>1018.2</ele>
        <time>2021-09-12T12:50:07Z</time>
      </trkpt>
      <trkpt lat="43.99627" lon="6.50415">
        <ele>1003.9</ele>
        <time>2021-09-12T12:50:25Z</time>
      </trkpt>
      <trkpt lat="43.99423" lon="6.50505">
        <ele>977.1</ele>
        <time>2021-09-12T12:51:01Z</time>
      </trkpt>
      <trkpt lat="43.99544" lon="6.50342">
        <ele>954.9</ele>
        <time>2021-09-12T12:51:30Z</time>
      </trkpt>
      <trkpt lat="43.99661" lon="6.50196">
        <ele>942.7</ele>
        <time>2021-09-12T12:51:57Z</time>
      </trkpt>
      <trkpt lat="43.99405" lon="6.50286">
        <ele>940.8</ele>
        <time>2021-09-12T12:52:42Z</time>
      </trkpt>
      <trkpt lat="43.99402" lon="6.50288">
        <ele>940.9</ele>
        <time>2021-09-12T12:52:43Z</time>
      </trkpt>
      <trkpt lat="43.9939" lon="6.50297">
        <ele>940.9</ele>
        <time>2021-09-12T12:52:45Z</time>
      </trkpt>
      <trkpt lat="43.99378" lon="6.50303">
        <ele>940.9</ele>
        <time>2021-09-12T12:52:47Z</time>
      </trkpt>
      <trkpt lat="43.99368" lon="6.50306">
        <ele>940.8</ele>
        <time>2021-09-12T12:52:49Z</time>
      </trkpt>
      <trkpt lat="43.9936" lon="6.50307">
        <ele>940.7</ele>
        <time>2021-09-12T12:52:51Z</time>
      </trkpt>
      <trkpt lat="43.9935" lon="6.50307">
        <ele>940.7</ele>
        <time>2021-09-12T12:52:53Z</time>
      </trkpt>
      <trkpt lat="43.99329" lon="6.50305">
        <ele>940.7</ele>
        <time>2021-09-12T12:52:57Z</time>
      </trkpt>
      <trkpt lat="43.99313" lon="6.50303">
        <ele>940.9</ele>
        <time>2021-09-12T12:53:02Z</time>
      </trkpt>
      <trkpt lat="43.99298" lon="6.50302">
        <ele>941.1</ele>
        <time>2021-09-12T12:53:06Z</time>
      </trkpt>
      <trkpt lat="43.99276" lon="6.50299">
        <ele>941.5</ele>
        <time>2021-09-12T12:53:12Z</time>
      </trkpt>
      <trkpt lat="43.99263" lon="6.50298">
        <ele>941.6</ele>
        <time>2021-09-12T12:53:16Z</time>
      </trkpt>
      <trkpt lat="43.99254" lon="6.50298">
        <ele>941.6</ele>
        <time>2021-09-12T12:53:19Z</time>
      </trkpt>
      <trkpt lat="43.99237" lon="6.50303">
        <ele>941.6</ele>
        <time>2021-09-12T12:53:23Z</time>
      </trkpt>
      <trkpt lat="43.99226" lon="6.50308">
        <ele>941.5</ele>
        <time>2021-09-12T12:53:26Z</time>
      </trkpt>
      <trkpt lat="43.99207" lon="6.50315">
        <ele>941.5</ele>
        <time>2021-09-12T12:53:31Z</time>
      </trkpt>
      <trkpt lat="43.99193" lon="6.50322">
        <ele>941.4</ele>
        <time>2021-09-12T12:53:35Z</time>
      </trkpt>
      <trkpt lat="43.9919" lon="6.50323">
        <ele>941.4</ele>
        <time>2021-09-12T12:53:36Z</time>
      </trkpt>
      <trkpt lat="43.99179" lon="6.50329">
        <ele>941.4</ele>
        <time>2021-09-12T12:53:39Z</time>
      </trkpt>
      <trkpt lat="43.99168" lon="6.50335">
        <ele>941.4</ele>
        <time>2021-09-12T12:53:42Z</time>
      </trkpt>
      <trkpt lat="43.99152" lon="6.50342">
        <ele>941.2</ele>
        <time>2021-09-12T12:53:47Z</time>
      </trkpt>
      <trkpt lat="43.99139" lon="6.50345">
        <ele>941</ele>
        <time>2021-09-12T12:53:52Z</time>
      </trkpt>
      <trkpt lat="43.99124" lon="6.50346">
        <ele>940.9</ele>
        <time>2021-09-12T12:53:57Z</time>
      </trkpt>
      <trkpt lat="43.99111" lon="6.50346">
        <ele>940.9</ele>
        <time>2021-09-12T12:54:02Z</time>
      </trkpt>
      <trkpt lat="43.99107" lon="6.50347">
        <ele>940.9</ele>
        <time>2021-09-12T12:54:03Z</time>
      </trkpt>
      <trkpt lat="43.99093" lon="6.50351">
        <ele>940.9</ele>
        <time>2021-09-12T12:54:09Z</time>
      </trkpt>
      <trkpt lat="43.99081" lon="6.50354">
        <ele>940.9</ele>
        <time>2021-09-12T12:54:15Z</time>
      </trkpt>
      <trkpt lat="43.99067" lon="6.5036">
        <ele>940.8</ele>
        <time>2021-09-12T12:54:22Z</time>
      </trkpt>
      <trkpt lat="43.99061" lon="6.50365">
        <ele>940.7</ele>
        <time>2021-09-12T12:54:25Z</time>
      </trkpt>
      <trkpt lat="43.99047" lon="6.50377">
        <ele>940.5</ele>
        <time>2021-09-12T12:54:34Z</time>
      </trkpt>
      <trkpt lat="43.99038" lon="6.50386">
        <ele>940.2</ele>
        <time>2021-09-12T12:54:41Z</time>
      </trkpt>
      <trkpt lat="43.99024" lon="6.50402">
        <ele>939.8</ele>
        <time>2021-09-12T12:54:51Z</time>
      </trkpt>
      <trkpt lat="43.99018" lon="6.50413">
        <ele>939.6</ele>
        <time>2021-09-12T12:54:55Z</time>
      </trkpt>
      <trkpt lat="43.99008" lon="6.50432">
        <ele>939.2</ele>
        <time>2021-09-12T12:55:02Z</time>
      </trkpt>
      <trkpt lat="43.98991" lon="6.50475">
        <ele>938.3</ele>
        <time>2021-09-12T12:55:13Z</time>
      </trkpt>
      <trkpt lat="43.98983" lon="6.50493">
        <ele>937.8</ele>
        <time>2021-09-12T12:55:17Z</time>
      </trkpt>
      <trkpt lat="43.98977" lon="6.50504">
        <ele>937.5</ele>
        <time>2021-09-12T12:55:19Z</time>
      </trkpt>
      <trkpt lat="43.98969" lon="6.50514">
        <ele>937.3</ele>
        <time>2021-09-12T12:55:21Z</time>
      </trkpt>
      <trkpt lat="43.98962" lon="6.50519">
        <ele>937.1</ele>
        <time>2021-09-12T12:55:22Z</time>
      </trkpt>
      <trkpt lat="43.98955" lon="6.50521">
        <ele>936.9</ele>
        <time>2021-09-12T12:55:23Z</time>
      </trkpt>
      <trkpt lat="43.98945" lon="6.5052">
        <ele>936.6</ele>
        <time>2021-09-12T12:55:25Z</time>
      </trkpt>
      <trkpt lat="43.98935" lon="6.50517">
        <ele>936.4</ele>
        <time>2021-09-12T12:55:26Z</time>
      </trkpt>
      <trkpt lat="43.98922" lon="6.50512">
        <ele>936.1</ele>
        <time>2021-09-12T12:55:28Z</time>
      </trkpt>
      <trkpt lat="43.98909" lon="6.50505">
        <ele>935.7</ele>
        <time>2021-09-12T12:55:30Z</time>
      </trkpt>
      <trkpt lat="43.98897" lon="6.50502">
        <ele>935.4</ele>
        <time>2021-09-12T12:55:32Z</time>
      </trkpt>
      <trkpt lat="43.98881" lon="6.50497">
        <ele>934.9</ele>
        <time>2021-09-12T12:55:35Z</time>
      </trkpt>
      <trkpt lat="43.98861" lon="6.50488">
        <ele>934.2</ele>
        <time>2021-09-12T12:55:40Z</time>
      </trkpt>
      <trkpt lat="43.98835" lon="6.50479">
        <ele>933.5</ele>
        <time>2021-09-12T12:55:46Z</time>
      </trkpt>
      <trkpt lat="43.98809" lon="6.50472">
        <ele>933</ele>
        <time>2021-09-12T12:55:52Z</time>
      </trkpt>
      <trkpt lat="43.98807" lon="6.50471">
        <ele>932.9</ele>
        <time>2021-09-12T12:55:53Z</time>
      </trkpt>
      <trkpt lat="43.98782" lon="6.50465">
        <ele>932.1</ele>
        <time>2021-09-12T12:56:01Z</time>
      </trkpt>
      <trkpt lat="43.98757" lon="6.50462">
        <ele>931.3</ele>
        <time>2021-09-12T12:56:09Z</time>
      </trkpt>
      <trkpt lat="43.98744" lon="6.50461">
        <ele>930.9</ele>
        <time>2021-09-12T12:56:13Z</time>
      </trkpt>
      <trkpt lat="43.98733" lon="6.50462">
        <ele>930.5</ele>
        <time>2021-09-12T12:56:17Z</time>
      </trkpt>
      <trkpt lat="43.98723" lon="6.50463">
        <ele>930.2</ele>
        <time>2021-09-12T12:56:21Z</time>
      </trkpt>
      <trkpt lat="43.98715" lon="6.50465">
        <ele>929.9</ele>
        <time>2021-09-12T12:56:24Z</time>
      </trkpt>
      <trkpt lat="43.98705" lon="6.50469">
        <ele>929.7</ele>
        <time>2021-09-12T12:56:27Z</time>
      </trkpt>
      <trkpt lat="43.98689" lon="6.50478">
        <ele>929.4</ele>
        <time>2021-09-12T12:56:33Z</time>
      </trkpt>
      <trkpt lat="43.98655" lon="6.50504">
        <ele>928.9</ele>
        <time>2021-09-12T12:56:46Z</time>
      </trkpt>
      <trkpt lat="43.98617" lon="6.50535">
        <ele>928.1</ele>
        <time>2021-09-12T12:56:59Z</time>
      </trkpt>
      <trkpt lat="43.98588" lon="6.50557">
        <ele>927.7</ele>
        <time>2021-09-12T12:57:08Z</time>
      </trkpt>
      <trkpt lat="43.98563" lon="6.50577">
        <ele>927.3</ele>
        <time>2021-09-12T12:57:15Z</time>
      </trkpt>
      <trkpt lat="43.9855" lon="6.50586">
        <ele>927.1</ele>
        <time>2021-09-12T12:57:19Z</time>
      </trkpt>
      <trkpt lat="43.98535" lon="6.50593">
        <ele>926.8</ele>
        <time>2021-09-12T12:57:22Z</time>
      </trkpt>
      <trkpt lat="43.98517" lon="6.50598">
        <ele>926.5</ele>
        <time>2021-09-12T12:57:26Z</time>
      </trkpt>
      <trkpt lat="43.98503" lon="6.50605">
        <ele>926.4</ele>
        <time>2021-09-12T12:57:29Z</time>
      </trkpt>
      <trkpt lat="43.98476" lon="6.50624">
        <ele>926.5</ele>
        <time>2021-09-12T12:57:36Z</time>
      </trkpt>
      <trkpt lat="43.98465" lon="6.50634">
        <ele>926.4</ele>
        <time>2021-09-12T12:57:38Z</time>
      </trkpt>
      <trkpt lat="43.98455" lon="6.50638">
        <ele>926.3</ele>
        <time>2021-09-12T12:57:41Z</time>
      </trkpt>
      <trkpt lat="43.98444" lon="6.50642">
        <ele>926.1</ele>
        <time>2021-09-12T12:57:43Z</time>
      </trkpt>
      <trkpt lat="43.98428" lon="6.50644">
        <ele>925.9</ele>
        <time>2021-09-12T12:57:47Z</time>
      </trkpt>
      <trkpt lat="43.98394" lon="6.50647">
        <ele>925.7</ele>
        <time>2021-09-12T12:57:54Z</time>
      </trkpt>
      <trkpt lat="43.98373" lon="6.5065">
        <ele>925.2</ele>
        <time>2021-09-12T12:57:58Z</time>
      </trkpt>
      <trkpt lat="43.98349" lon="6.50653">
        <ele>924.5</ele>
        <time>2021-09-12T12:58:03Z</time>
      </trkpt>
      <trkpt lat="43.98338" lon="6.50655">
        <ele>924.2</ele>
        <time>2021-09-12T12:58:05Z</time>
      </trkpt>
      <trkpt lat="43.98317" lon="6.50663">
        <ele>923.7</ele>
        <time>2021-09-12T12:58:09Z</time>
      </trkpt>
      <trkpt lat="43.98293" lon="6.50674">
        <ele>923.1</ele>
        <time>2021-09-12T12:58:14Z</time>
      </trkpt>
      <trkpt lat="43.98265" lon="6.50688">
        <ele>922.5</ele>
        <time>2021-09-12T12:58:20Z</time>
      </trkpt>
      <trkpt lat="43.98243" lon="6.50699">
        <ele>922</ele>
        <time>2021-09-12T12:58:24Z</time>
      </trkpt>
      <trkpt lat="43.98222" lon="6.50709">
        <ele>921.5</ele>
        <time>2021-09-12T12:58:29Z</time>
      </trkpt>
      <trkpt lat="43.98211" lon="6.50717">
        <ele>921.2</ele>
        <time>2021-09-12T12:58:31Z</time>
      </trkpt>
      <trkpt lat="43.982" lon="6.50729">
        <ele>920.8</ele>
        <time>2021-09-12T12:58:34Z</time>
      </trkpt>
      <trkpt lat="43.98191" lon="6.5074">
        <ele>920.4</ele>
        <time>2021-09-12T12:58:36Z</time>
      </trkpt>
      <trkpt lat="43.98183" lon="6.50746">
        <ele>920</ele>
        <time>2021-09-12T12:58:38Z</time>
      </trkpt>
      <trkpt lat="43.98173" lon="6.50751">
        <ele>919.8</ele>
        <time>2021-09-12T12:58:40Z</time>
      </trkpt>
      <trkpt lat="43.98165" lon="6.50752">
        <ele>919.6</ele>
        <time>2021-09-12T12:58:42Z</time>
      </trkpt>
      <trkpt lat="43.98156" lon="6.50753">
        <ele>919.4</ele>
        <time>2021-09-12T12:58:43Z</time>
      </trkpt>
      <trkpt lat="43.98149" lon="6.50751">
        <ele>919.3</ele>
        <time>2021-09-12T12:58:44Z</time>
      </trkpt>
      <trkpt lat="43.98139" lon="6.50745">
        <ele>919</ele>
        <time>2021-09-12T12:58:46Z</time>
      </trkpt>
      <trkpt lat="43.98125" lon="6.50734">
        <ele>918.7</ele>
        <time>2021-09-12T12:58:50Z</time>
      </trkpt>
      <trkpt lat="43.98115" lon="6.5073">
        <ele>918.6</ele>
        <time>2021-09-12T12:58:52Z</time>
      </trkpt>
      <trkpt lat="43.98106" lon="6.50728">
        <ele>918.6</ele>
        <time>2021-09-12T12:58:55Z</time>
      </trkpt>
      <trkpt lat="43.98099" lon="6.50728">
        <ele>918.5</ele>
        <time>2021-09-12T12:58:57Z</time>
      </trkpt>
      <trkpt lat="43.98091" lon="6.5073">
        <ele>918.5</ele>
        <time>2021-09-12T12:59:01Z</time>
      </trkpt>
      <trkpt lat="43.98078" lon="6.50736">
        <ele>918.5</ele>
        <time>2021-09-12T12:59:08Z</time>
      </trkpt>
      <trkpt lat="43.9807" lon="6.50742">
        <ele>918.4</ele>
        <time>2021-09-12T12:59:13Z</time>
      </trkpt>
      <trkpt lat="43.9806" lon="6.50747">
        <ele>918.2</ele>
        <time>2021-09-12T12:59:17Z</time>
      </trkpt>
      <trkpt lat="43.98041" lon="6.50752">
        <ele>917.5</ele>
        <time>2021-09-12T12:59:24Z</time>
      </trkpt>
      <trkpt lat="43.98027" lon="6.50757">
        <ele>917.1</ele>
        <time>2021-09-12T12:59:29Z</time>
      </trkpt>
      <trkpt lat="43.98012" lon="6.50764">
        <ele>916.7</ele>
        <time>2021-09-12T12:59:32Z</time>
      </trkpt>
      <trkpt lat="43.97993" lon="6.50776">
        <ele>916.3</ele>
        <time>2021-09-12T12:59:37Z</time>
      </trkpt>
      <trkpt lat="43.97982" lon="6.50781">
        <ele>916.2</ele>
        <time>2021-09-12T12:59:39Z</time>
      </trkpt>
      <trkpt lat="43.97973" lon="6.50784">
        <ele>916.2</ele>
        <time>2021-09-12T12:59:41Z</time>
      </trkpt>
      <trkpt lat="43.97959" lon="6.50786">
        <ele>916.1</ele>
        <time>2021-09-12T12:59:43Z</time>
      </trkpt>
      <trkpt lat="43.97945" lon="6.50786">
        <ele>916</ele>
        <time>2021-09-12T12:59:46Z</time>
      </trkpt>
      <trkpt lat="43.97919" lon="6.50788">
        <ele>916.2</ele>
        <time>2021-09-12T12:59:51Z</time>
      </trkpt>
      <trkpt lat="43.97897" lon="6.50794">
        <ele>916.4</ele>
        <time>2021-09-12T12:59:56Z</time>
      </trkpt>
      <trkpt lat="43.97889" lon="6.50796">
        <ele>916.4</ele>
        <time>2021-09-12T12:59:58Z</time>
      </trkpt>
      <trkpt lat="43.97881" lon="6.50801">
        <ele>916.5</ele>
        <time>2021-09-12T13:00:00Z</time>
      </trkpt>
      <trkpt lat="43.9787" lon="6.50811">
        <ele>916.6</ele>
        <time>2021-09-12T13:00:04Z</time>
      </trkpt>
      <trkpt lat="43.97862" lon="6.50817">
        <ele>916.6</ele>
        <time>2021-09-12T13:00:06Z</time>
      </trkpt>
      <trkpt lat="43.97847" lon="6.50822">
        <ele>916.7</ele>
        <time>2021-09-12T13:00:10Z</time>
      </trkpt>
      <trkpt lat="43.97819" lon="6.50831">
        <ele>916.8</ele>
        <time>2021-09-12T13:00:17Z</time>
      </trkpt>
      <trkpt lat="43.97809" lon="6.50834">
        <ele>916.7</ele>
        <time>2021-09-12T13:00:19Z</time>
      </trkpt>
      <trkpt lat="43.97787" lon="6.50841">
        <ele>916.1</ele>
        <time>2021-09-12T13:00:24Z</time>
      </trkpt>
      <trkpt lat="43.97744" lon="6.50855">
        <ele>914.8</ele>
        <time>2021-09-12T13:00:32Z</time>
      </trkpt>
      <trkpt lat="43.97715" lon="6.50866">
        <ele>914.3</ele>
        <time>2021-09-12T13:00:38Z</time>
      </trkpt>
      <trkpt lat="43.97686" lon="6.50878">
        <ele>914.3</ele>
        <time>2021-09-12T13:00:43Z</time>
      </trkpt>
      <trkpt lat="43.97656" lon="6.50889">
        <ele>914.3</ele>
        <time>2021-09-12T13:00:48Z</time>
      </trkpt>
      <trkpt lat="43.9763" lon="6.50904">
        <ele>914.3</ele>
        <time>2021-09-12T13:00:52Z</time>
      </trkpt>
      <trkpt lat="43.97612" lon="6.50916">
        <ele>914.4</ele>
        <time>2021-09-12T13:00:56Z</time>
      </trkpt>
      <trkpt lat="43.976" lon="6.5092">
        <ele>914.5</ele>
        <time>2021-09-12T13:00:58Z</time>
      </trkpt>
      <trkpt lat="43.97595" lon="6.50921">
        <ele>914.5</ele>
        <time>2021-09-12T13:00:59Z</time>
      </trkpt>
      <trkpt lat="43.97588" lon="6.50922">
        <ele>914.6</ele>
        <time>2021-09-12T13:01:00Z</time>
      </trkpt>
      <trkpt lat="43.97578" lon="6.50922">
        <ele>914.6</ele>
        <time>2021-09-12T13:01:02Z</time>
      </trkpt>
      <trkpt lat="43.97564" lon="6.50919">
        <ele>914.7</ele>
        <time>2021-09-12T13:01:05Z</time>
      </trkpt>
      <trkpt lat="43.97541" lon="6.50908">
        <ele>914.6</ele>
        <time>2021-09-12T13:01:10Z</time>
      </trkpt>
      <trkpt lat="43.97501" lon="6.50888">
        <ele>914.2</ele>
        <time>2021-09-12T13:01:19Z</time>
      </trkpt>
      <trkpt lat="43.97488" lon="6.50883">
        <ele>914</ele>
        <time>2021-09-12T13:01:22Z</time>
      </trkpt>
      <trkpt lat="43.97471" lon="6.50878">
        <ele>914</ele>
        <time>2021-09-12T13:01:26Z</time>
      </trkpt>
      <trkpt lat="43.9746" lon="6.50874">
        <ele>914</ele>
        <time>2021-09-12T13:01:28Z</time>
      </trkpt>
      <trkpt lat="43.97419" lon="6.50857">
        <ele>914.3</ele>
        <time>2021-09-12T13:01:39Z</time>
      </trkpt>
      <trkpt lat="43.97401" lon="6.50852">
        <ele>914.1</ele>
        <time>2021-09-12T13:01:44Z</time>
      </trkpt>
      <trkpt lat="43.97389" lon="6.50851">
        <ele>914</ele>
        <time>2021-09-12T13:01:47Z</time>
      </trkpt>
      <trkpt lat="43.97381" lon="6.50853">
        <ele>913.9</ele>
        <time>2021-09-12T13:01:49Z</time>
      </trkpt>
      <trkpt lat="43.97375" lon="6.50855">
        <ele>913.8</ele>
        <time>2021-09-12T13:01:51Z</time>
      </trkpt>
      <trkpt lat="43.97368" lon="6.50858">
        <ele>913.6</ele>
        <time>2021-09-12T13:01:53Z</time>
      </trkpt>
      <trkpt lat="43.97354" lon="6.50867">
        <ele>913.3</ele>
        <time>2021-09-12T13:01:57Z</time>
      </trkpt>
      <trkpt lat="43.97347" lon="6.50874">
        <ele>913.2</ele>
        <time>2021-09-12T13:02:00Z</time>
      </trkpt>
      <trkpt lat="43.97341" lon="6.50887">
        <ele>913</ele>
        <time>2021-09-12T13:02:03Z</time>
      </trkpt>
      <trkpt lat="43.97335" lon="6.50921">
        <ele>912.3</ele>
        <time>2021-09-12T13:02:09Z</time>
      </trkpt>
      <trkpt lat="43.97331" lon="6.50935">
        <ele>912</ele>
        <time>2021-09-12T13:02:12Z</time>
      </trkpt>
      <trkpt lat="43.97326" lon="6.50942">
        <ele>911.7</ele>
        <time>2021-09-12T13:02:13Z</time>
      </trkpt>
      <trkpt lat="43.9732" lon="6.50948">
        <ele>911.5</ele>
        <time>2021-09-12T13:02:15Z</time>
      </trkpt>
      <trkpt lat="43.97313" lon="6.50949">
        <ele>911.4</ele>
        <time>2021-09-12T13:02:16Z</time>
      </trkpt>
      <trkpt lat="43.97307" lon="6.50949">
        <ele>911.1</ele>
        <time>2021-09-12T13:02:17Z</time>
      </trkpt>
      <trkpt lat="43.97302" lon="6.50945">
        <ele>910.8</ele>
        <time>2021-09-12T13:02:18Z</time>
      </trkpt>
      <trkpt lat="43.97293" lon="6.50931">
        <ele>909.9</ele>
        <time>2021-09-12T13:02:20Z</time>
      </trkpt>
      <trkpt lat="43.97289" lon="6.50926">
        <ele>909.6</ele>
        <time>2021-09-12T13:02:21Z</time>
      </trkpt>
      <trkpt lat="43.97283" lon="6.50919">
        <ele>909.2</ele>
        <time>2021-09-12T13:02:23Z</time>
      </trkpt>
      <trkpt lat="43.97274" lon="6.50915">
        <ele>908.8</ele>
        <time>2021-09-12T13:02:24Z</time>
      </trkpt>
      <trkpt lat="43.97263" lon="6.50915">
        <ele>908.5</ele>
        <time>2021-09-12T13:02:27Z</time>
      </trkpt>
      <trkpt lat="43.97253" lon="6.50919">
        <ele>908.2</ele>
        <time>2021-09-12T13:02:29Z</time>
      </trkpt>
      <trkpt lat="43.97241" lon="6.50927">
        <ele>907.7</ele>
        <time>2021-09-12T13:02:33Z</time>
      </trkpt>
      <trkpt lat="43.9722" lon="6.5094">
        <ele>906.8</ele>
        <time>2021-09-12T13:02:38Z</time>
      </trkpt>
      <trkpt lat="43.97209" lon="6.50949">
        <ele>906.3</ele>
        <time>2021-09-12T13:02:41Z</time>
      </trkpt>
      <trkpt lat="43.97199" lon="6.50961">
        <ele>905.8</ele>
        <time>2021-09-12T13:02:44Z</time>
      </trkpt>
      <trkpt lat="43.97184" lon="6.50983">
        <ele>905</ele>
        <time>2021-09-12T13:02:48Z</time>
      </trkpt>
      <trkpt lat="43.97165" lon="6.51016">
        <ele>903.9</ele>
        <time>2021-09-12T13:02:54Z</time>
      </trkpt>
      <trkpt lat="43.97149" lon="6.51042">
        <ele>903</ele>
        <time>2021-09-12T13:02:58Z</time>
      </trkpt>
      <trkpt lat="43.97143" lon="6.51048">
        <ele>902.8</ele>
        <time>2021-09-12T13:02:59Z</time>
      </trkpt>
      <trkpt lat="43.97136" lon="6.51055">
        <ele>902.5</ele>
        <time>2021-09-12T13:03:00Z</time>
      </trkpt>
      <trkpt lat="43.97116" lon="6.51059">
        <ele>902</ele>
        <time>2021-09-12T13:03:04Z</time>
      </trkpt>
      <trkpt lat="43.97084" lon="6.51068">
        <ele>900.9</ele>
        <time>2021-09-12T13:03:10Z</time>
      </trkpt>
      <trkpt lat="43.97073" lon="6.51075">
        <ele>900.6</ele>
        <time>2021-09-12T13:03:12Z</time>
      </trkpt>
      <trkpt lat="43.97062" lon="6.51081">
        <ele>900.4</ele>
        <time>2021-09-12T13:03:15Z</time>
      </trkpt>
      <trkpt lat="43.97041" lon="6.51085">
        <ele>899.7</ele>
        <time>2021-09-12T13:03:19Z</time>
      </trkpt>
      <trkpt lat="43.97025" lon="6.51088">
        <ele>899.3</ele>
        <time>2021-09-12T13:03:22Z</time>
      </trkpt>
      <trkpt lat="43.97011" lon="6.51089">
        <ele>899.1</ele>
        <time>2021-09-12T13:03:25Z</time>
      </trkpt>
      <trkpt lat="43.96998" lon="6.5109">
        <ele>899</ele>
        <time>2021-09-12T13:03:28Z</time>
      </trkpt>
      <trkpt lat="43.96986" lon="6.5109">
        <ele>899</ele>
        <time>2021-09-12T13:03:30Z</time>
      </trkpt>
      <trkpt lat="43.96971" lon="6.51088">
        <ele>898.9</ele>
        <time>2021-09-12T13:03:33Z</time>
      </trkpt>
      <trkpt lat="43.96962" lon="6.51086">
        <ele>898.9</ele>
        <time>2021-09-12T13:03:35Z</time>
      </trkpt>
      <trkpt lat="43.96959" lon="6.51084">
        <ele>898.8</ele>
        <time>2021-09-12T13:03:36Z</time>
      </trkpt>
      <trkpt lat="43.96952" lon="6.51082">
        <ele>898.7</ele>
        <time>2021-09-12T13:03:37Z</time>
      </trkpt>
      <trkpt lat="43.96941" lon="6.51075">
        <ele>898.7</ele>
        <time>2021-09-12T13:03:40Z</time>
      </trkpt>
      <trkpt lat="43.96931" lon="6.51067">
        <ele>898.6</ele>
        <time>2021-09-12T13:03:42Z</time>
      </trkpt>
      <trkpt lat="43.96916" lon="6.51055">
        <ele>898.4</ele>
        <time>2021-09-12T13:03:46Z</time>
      </trkpt>
      <trkpt lat="43.96905" lon="6.51042">
        <ele>898.3</ele>
        <time>2021-09-12T13:03:49Z</time>
      </trkpt>
      <trkpt lat="43.96897" lon="6.51033">
        <ele>898.2</ele>
        <time>2021-09-12T13:03:52Z</time>
      </trkpt>
      <trkpt lat="43.96871" lon="6.51005">
        <ele>897.9</ele>
        <time>2021-09-12T13:04:00Z</time>
      </trkpt>
      <trkpt lat="43.96855" lon="6.50986">
        <ele>897.4</ele>
        <time>2021-09-12T13:04:05Z</time>
      </trkpt>
      <trkpt lat="43.96844" lon="6.50976">
        <ele>897.2</ele>
        <time>2021-09-12T13:04:08Z</time>
      </trkpt>
      <trkpt lat="43.96833" lon="6.50966">
        <ele>897</ele>
        <time>2021-09-12T13:04:12Z</time>
      </trkpt>
      <trkpt lat="43.96828" lon="6.50964">
        <ele>897</ele>
        <time>2021-09-12T13:04:13Z</time>
      </trkpt>
      <trkpt lat="43.96824" lon="6.50961">
        <ele>897</ele>
        <time>2021-09-12T13:04:15Z</time>
      </trkpt>
      <trkpt lat="43.96815" lon="6.50975">
        <ele>896.8</ele>
        <time>2021-09-12T13:04:18Z</time>
      </trkpt>
      <trkpt lat="43.96811" lon="6.50971">
        <ele>897.1</ele>
        <time>2021-09-12T13:04:20Z</time>
      </trkpt>
      <trkpt lat="43.96803" lon="6.50965">
        <ele>897.3</ele>
        <time>2021-09-12T13:04:22Z</time>
      </trkpt>
      <trkpt lat="43.96792" lon="6.50956">
        <ele>897.4</ele>
        <time>2021-09-12T13:04:26Z</time>
      </trkpt>
      <trkpt lat="43.96781" lon="6.50949">
        <ele>897.6</ele>
        <time>2021-09-12T13:04:30Z</time>
      </trkpt>
      <trkpt lat="43.9677" lon="6.50941">
        <ele>897.5</ele>
        <time>2021-09-12T13:04:34Z</time>
      </trkpt>
      <trkpt lat="43.96768" lon="6.50943">
        <ele>896.6</ele>
        <time>2021-09-12T13:04:35Z</time>
      </trkpt>
      <trkpt lat="43.96763" lon="6.50951">
        <ele>893.1</ele>
        <time>2021-09-12T13:04:37Z</time>
      </trkpt>
      <trkpt lat="43.9676" lon="6.50953">
        <ele>893.1</ele>
        <time>2021-09-12T13:04:38Z</time>
      </trkpt>
      <trkpt lat="43.96756" lon="6.50945">
        <ele>893.4</ele>
        <time>2021-09-12T13:04:39Z</time>
      </trkpt>
      <trkpt lat="43.96752" lon="6.50935">
        <ele>893.7</ele>
        <time>2021-09-12T13:04:41Z</time>
      </trkpt>
      <trkpt lat="43.96748" lon="6.50925">
        <ele>894.2</ele>
        <time>2021-09-12T13:04:43Z</time>
      </trkpt>
      <trkpt lat="43.96741" lon="6.50912">
        <ele>895</ele>
        <time>2021-09-12T13:04:46Z</time>
      </trkpt>
      <trkpt lat="43.96741" lon="6.50909">
        <ele>895.1</ele>
        <time>2021-09-12T13:04:47Z</time>
      </trkpt>
      <trkpt lat="43.96743" lon="6.50903">
        <ele>895.4</ele>
        <time>2021-09-12T13:04:48Z</time>
      </trkpt>
      <trkpt lat="43.96736" lon="6.50895">
        <ele>895.2</ele>
        <time>2021-09-12T13:04:50Z</time>
      </trkpt>
      <trkpt lat="43.96731" lon="6.50887">
        <ele>895.1</ele>
        <time>2021-09-12T13:04:52Z</time>
      </trkpt>
      <trkpt lat="43.96691" lon="6.50863">
        <ele>894.6</ele>
        <time>2021-09-12T13:05:03Z</time>
      </trkpt>
      <trkpt lat="43.96676" lon="6.50853">
        <ele>894.5</ele>
        <time>2021-09-12T13:05:07Z</time>
      </trkpt>
      <trkpt lat="43.96672" lon="6.50851">
        <ele>894.5</ele>
        <time>2021-09-12T13:05:08Z</time>
      </trkpt>
      <trkpt lat="43.96636" lon="6.50829">
        <ele>894.3</ele>
        <time>2021-09-12T13:05:18Z</time>
      </trkpt>
      <trkpt lat="43.9662" lon="6.50817">
        <ele>894.2</ele>
        <time>2021-09-12T13:05:23Z</time>
      </trkpt>
      <trkpt lat="43.96599" lon="6.508">
        <ele>894</ele>
        <time>2021-09-12T13:05:28Z</time>
      </trkpt>
      <trkpt lat="43.96578" lon="6.50783">
        <ele>893.9</ele>
        <time>2021-09-12T13:05:33Z</time>
      </trkpt>
      <trkpt lat="43.96568" lon="6.50775">
        <ele>893.9</ele>
        <time>2021-09-12T13:05:36Z</time>
      </trkpt>
      <trkpt lat="43.96545" lon="6.50757">
        <ele>893.9</ele>
        <time>2021-09-12T13:05:41Z</time>
      </trkpt>
      <trkpt lat="43.9653" lon="6.50745">
        <ele>894</ele>
        <time>2021-09-12T13:05:45Z</time>
      </trkpt>
      <trkpt lat="43.96522" lon="6.50739">
        <ele>894</ele>
        <time>2021-09-12T13:05:47Z</time>
      </trkpt>
      <trkpt lat="43.965" lon="6.50722">
        <ele>893.8</ele>
        <time>2021-09-12T13:05:53Z</time>
      </trkpt>
      <trkpt lat="43.96492" lon="6.50716">
        <ele>893.8</ele>
        <time>2021-09-12T13:05:55Z</time>
      </trkpt>
      <trkpt lat="43.96486" lon="6.50712">
        <ele>893.8</ele>
        <time>2021-09-12T13:05:56Z</time>
      </trkpt>
      <trkpt lat="43.9648" lon="6.50706">
        <ele>893.8</ele>
        <time>2021-09-12T13:05:58Z</time>
      </trkpt>
      <trkpt lat="43.96474" lon="6.50702">
        <ele>893.7</ele>
        <time>2021-09-12T13:05:59Z</time>
      </trkpt>
      <trkpt lat="43.96469" lon="6.50696">
        <ele>893.7</ele>
        <time>2021-09-12T13:06:01Z</time>
      </trkpt>
      <trkpt lat="43.96464" lon="6.5069">
        <ele>893.6</ele>
        <time>2021-09-12T13:06:03Z</time>
      </trkpt>
      <trkpt lat="43.9646" lon="6.50683">
        <ele>893.6</ele>
        <time>2021-09-12T13:06:04Z</time>
      </trkpt>
      <trkpt lat="43.96458" lon="6.50678">
        <ele>893.7</ele>
        <time>2021-09-12T13:06:05Z</time>
      </trkpt>
      <trkpt lat="43.96457" lon="6.50674">
        <ele>893.7</ele>
        <time>2021-09-12T13:06:06Z</time>
      </trkpt>
      <trkpt lat="43.96457" lon="6.5067">
        <ele>893.8</ele>
        <time>2021-09-12T13:06:07Z</time>
      </trkpt>
      <trkpt lat="43.96456" lon="6.50665">
        <ele>894.1</ele>
        <time>2021-09-12T13:06:08Z</time>
      </trkpt>
      <trkpt lat="43.96455" lon="6.50663">
        <ele>894.2</ele>
        <time>2021-09-12T13:06:09Z</time>
      </trkpt>
      <trkpt lat="43.96454" lon="6.50662">
        <ele>894.2</ele>
        <time>2021-09-12T13:06:10Z</time>
      </trkpt>
      <trkpt lat="43.96452" lon="6.50659">
        <ele>894.4</ele>
        <time>2021-09-12T13:06:11Z</time>
      </trkpt>
      <trkpt lat="43.9645" lon="6.50658">
        <ele>894.4</ele>
        <time>2021-09-12T13:06:12Z</time>
      </trkpt>
      <trkpt lat="43.96449" lon="6.50658">
        <ele>894.4</ele>
        <time>2021-09-12T13:06:13Z</time>
      </trkpt>
      <trkpt lat="43.96446" lon="6.50658">
        <ele>894.4</ele>
        <time>2021-09-12T13:06:14Z</time>
      </trkpt>
      <trkpt lat="43.96443" lon="6.50658">
        <ele>894.4</ele>
        <time>2021-09-12T13:06:15Z</time>
      </trkpt>
      <trkpt lat="43.96441" lon="6.5066">
        <ele>894.2</ele>
        <time>2021-09-12T13:06:16Z</time>
      </trkpt>
      <trkpt lat="43.96438" lon="6.50664">
        <ele>894.2</ele>
        <time>2021-09-12T13:06:17Z</time>
      </trkpt>
      <trkpt lat="43.96433" lon="6.50664">
        <ele>894.2</ele>
        <time>2021-09-12T13:06:19Z</time>
      </trkpt>
      <trkpt lat="43.96428" lon="6.50665">
        <ele>893.9</ele>
        <time>2021-09-12T13:06:20Z</time>
      </trkpt>
      <trkpt lat="43.9642" lon="6.50667">
        <ele>893.9</ele>
        <time>2021-09-12T13:06:21Z</time>
      </trkpt>
      <trkpt lat="43.96416" lon="6.50669">
        <ele>893.5</ele>
        <time>2021-09-12T13:06:22Z</time>
      </trkpt>
      <trkpt lat="43.96423" lon="6.50671">
        <ele>893.3</ele>
        <time>2021-09-12T13:06:24Z</time>
      </trkpt>
      <trkpt lat="43.96429" lon="6.50673">
        <ele>893.2</ele>
        <time>2021-09-12T13:06:25Z</time>
      </trkpt>
      <trkpt lat="43.96437" lon="6.50677">
        <ele>893.3</ele>
        <time>2021-09-12T13:06:26Z</time>
      </trkpt>
      <trkpt lat="43.9644" lon="6.50682">
        <ele>893.4</ele>
        <time>2021-09-12T13:06:27Z</time>
      </trkpt>
      <trkpt lat="43.96442" lon="6.50684">
        <ele>893.4</ele>
        <time>2021-09-12T13:06:28Z</time>
      </trkpt>
      <trkpt lat="43.96447" lon="6.50686">
        <ele>893.4</ele>
        <time>2021-09-12T13:06:29Z</time>
      </trkpt>
      <trkpt lat="43.96452" lon="6.50684">
        <ele>893.5</ele>
        <time>2021-09-12T13:06:30Z</time>
      </trkpt>
      <trkpt lat="43.96456" lon="6.5068">
        <ele>893.6</ele>
        <time>2021-09-12T13:06:31Z</time>
      </trkpt>
      <trkpt lat="43.96457" lon="6.50678">
        <ele>893.6</ele>
        <time>2021-09-12T13:06:32Z</time>
      </trkpt>
      <trkpt lat="43.96457" lon="6.50674">
        <ele>893.7</ele>
        <time>2021-09-12T13:06:33Z</time>
      </trkpt>
      <trkpt lat="43.96457" lon="6.5067">
        <ele>893.8</ele>
        <time>2021-09-12T13:06:34Z</time>
      </trkpt>
      <trkpt lat="43.96456" lon="6.50665">
        <ele>894.1</ele>
        <time>2021-09-12T13:06:35Z</time>
      </trkpt>
      <trkpt lat="43.96455" lon="6.50663">
        <ele>894.2</ele>
        <time>2021-09-12T13:06:36Z</time>
      </trkpt>
      <trkpt lat="43.96454" lon="6.50662">
        <ele>894.3</ele>
        <time>2021-09-12T13:06:37Z</time>
      </trkpt>
      <trkpt lat="43.96453" lon="6.5066">
        <ele>894.4</ele>
        <time>2021-09-12T13:06:38Z</time>
      </trkpt>
      <trkpt lat="43.96451" lon="6.50659">
        <ele>894.4</ele>
        <time>2021-09-12T13:06:39Z</time>
      </trkpt>
      <trkpt lat="43.9645" lon="6.50658">
        <ele>894.4</ele>
        <time>2021-09-12T13:06:40Z</time>
      </trkpt>
      <trkpt lat="43.96449" lon="6.50655">
        <ele>894.4</ele>
        <time>2021-09-12T13:06:41Z</time>
      </trkpt>
      <trkpt lat="43.96448" lon="6.50651">
        <ele>894.4</ele>
        <time>2021-09-12T13:06:42Z</time>
      </trkpt>
      <trkpt lat="43.96446" lon="6.50645">
        <ele>894.4</ele>
        <time>2021-09-12T13:06:44Z</time>
      </trkpt>
      <trkpt lat="43.96444" lon="6.50634">
        <ele>894.7</ele>
        <time>2021-09-12T13:06:48Z</time>
      </trkpt>
      <trkpt lat="43.96443" lon="6.50626">
        <ele>894.9</ele>
        <time>2021-09-12T13:06:51Z</time>
      </trkpt>
      <trkpt lat="43.96443" lon="6.50618">
        <ele>895.1</ele>
        <time>2021-09-12T13:06:53Z</time>
      </trkpt>
      <trkpt lat="43.96444" lon="6.50608">
        <ele>895.5</ele>
        <time>2021-09-12T13:06:57Z</time>
      </trkpt>
      <trkpt lat="43.96446" lon="6.50595">
        <ele>896.3</ele>
        <time>2021-09-12T13:07:02Z</time>
      </trkpt>
      <trkpt lat="43.96448" lon="6.50583">
        <ele>897.1</ele>
        <time>2021-09-12T13:07:07Z</time>
      </trkpt>
      <trkpt lat="43.9645" lon="6.50561">
        <ele>898.7</ele>
        <time>2021-09-12T13:07:17Z</time>
      </trkpt>
      <trkpt lat="43.9645" lon="6.50551">
        <ele>899.5</ele>
        <time>2021-09-12T13:07:22Z</time>
      </trkpt>
      <trkpt lat="43.96448" lon="6.50546">
        <ele>899.9</ele>
        <time>2021-09-12T13:07:25Z</time>
      </trkpt>
      <trkpt lat="43.96447" lon="6.5054">
        <ele>900.3</ele>
        <time>2021-09-12T13:07:29Z</time>
      </trkpt>
      <trkpt lat="43.96442" lon="6.50531">
        <ele>901.1</ele>
        <time>2021-09-12T13:07:37Z</time>
      </trkpt>
      <trkpt lat="43.96438" lon="6.50528">
        <ele>901.4</ele>
        <time>2021-09-12T13:07:41Z</time>
      </trkpt>
      <trkpt lat="43.96431" lon="6.50523">
        <ele>901.9</ele>
        <time>2021-09-12T13:07:47Z</time>
      </trkpt>
      <trkpt lat="43.96425" lon="6.50519">
        <ele>902.3</ele>
        <time>2021-09-12T13:07:52Z</time>
      </trkpt>
      <trkpt lat="43.96416" lon="6.50516">
        <ele>902.5</ele>
        <time>2021-09-12T13:07:57Z</time>
      </trkpt>
      <trkpt lat="43.96409" lon="6.50516">
        <ele>902.5</ele>
        <time>2021-09-12T13:08:00Z</time>
      </trkpt>
      <trkpt lat="43.96379" lon="6.5051">
        <ele>901.4</ele>
        <time>2021-09-12T13:08:12Z</time>
      </trkpt>
      <trkpt lat="43.96373" lon="6.50508">
        <ele>901.1</ele>
        <time>2021-09-12T13:08:14Z</time>
      </trkpt>
      <trkpt lat="43.96338" lon="6.50488">
        <ele>900</ele>
        <time>2021-09-12T13:08:25Z</time>
      </trkpt>
      <trkpt lat="43.96335" lon="6.50485">
        <ele>900</ele>
        <time>2021-09-12T13:08:26Z</time>
      </trkpt>
      <trkpt lat="43.96315" lon="6.50472">
        <ele>899.8</ele>
        <time>2021-09-12T13:08:31Z</time>
      </trkpt>
      <trkpt lat="43.96303" lon="6.50464">
        <ele>899.6</ele>
        <time>2021-09-12T13:08:34Z</time>
      </trkpt>
      <trkpt lat="43.96299" lon="6.50461">
        <ele>899.6</ele>
        <time>2021-09-12T13:08:35Z</time>
      </trkpt>
      <trkpt lat="43.96295" lon="6.50457">
        <ele>899.5</ele>
        <time>2021-09-12T13:08:36Z</time>
      </trkpt>
      <trkpt lat="43.96287" lon="6.50448">
        <ele>899.5</ele>
        <time>2021-09-12T13:08:38Z</time>
      </trkpt>
      <trkpt lat="43.96269" lon="6.50422">
        <ele>899.6</ele>
        <time>2021-09-12T13:08:44Z</time>
      </trkpt>
      <trkpt lat="43.96259" lon="6.50408">
        <ele>899.9</ele>
        <time>2021-09-12T13:08:47Z</time>
      </trkpt>
      <trkpt lat="43.96252" lon="6.50395">
        <ele>900.4</ele>
        <time>2021-09-12T13:08:50Z</time>
      </trkpt>
      <trkpt lat="43.96242" lon="6.5037">
        <ele>901.5</ele>
        <time>2021-09-12T13:08:55Z</time>
      </trkpt>
      <trkpt lat="43.96239" lon="6.50364">
        <ele>901.8</ele>
        <time>2021-09-12T13:08:57Z</time>
      </trkpt>
      <trkpt lat="43.96229" lon="6.50341">
        <ele>903</ele>
        <time>2021-09-12T13:09:03Z</time>
      </trkpt>
      <trkpt lat="43.96218" lon="6.50312">
        <ele>904.7</ele>
        <time>2021-09-12T13:09:11Z</time>
      </trkpt>
      <trkpt lat="43.96216" lon="6.50301">
        <ele>905.3</ele>
        <time>2021-09-12T13:09:14Z</time>
      </trkpt>
      <trkpt lat="43.96215" lon="6.50287">
        <ele>906.1</ele>
        <time>2021-09-12T13:09:18Z</time>
      </trkpt>
      <trkpt lat="43.96216" lon="6.50267">
        <ele>907.3</ele>
        <time>2021-09-12T13:09:24Z</time>
      </trkpt>
      <trkpt lat="43.96216" lon="6.50256">
        <ele>908</ele>
        <time>2021-09-12T13:09:28Z</time>
      </trkpt>
      <trkpt lat="43.96215" lon="6.50252">
        <ele>908.3</ele>
        <time>2021-09-12T13:09:29Z</time>
      </trkpt>
      <trkpt lat="43.96214" lon="6.50248">
        <ele>908.5</ele>
        <time>2021-09-12T13:09:31Z</time>
      </trkpt>
      <trkpt lat="43.96211" lon="6.50243">
        <ele>908.8</ele>
        <time>2021-09-12T13:09:33Z</time>
      </trkpt>
      <trkpt lat="43.96208" lon="6.50238">
        <ele>909.1</ele>
        <time>2021-09-12T13:09:35Z</time>
      </trkpt>
      <trkpt lat="43.96207" lon="6.50236">
        <ele>909.2</ele>
        <time>2021-09-12T13:09:36Z</time>
      </trkpt>
      <trkpt lat="43.96198" lon="6.50227">
        <ele>909.7</ele>
        <time>2021-09-12T13:09:41Z</time>
      </trkpt>
      <trkpt lat="43.96173" lon="6.50203">
        <ele>910.3</ele>
        <time>2021-09-12T13:09:54Z</time>
      </trkpt>
      <trkpt lat="43.96165" lon="6.50196">
        <ele>910.4</ele>
        <time>2021-09-12T13:09:58Z</time>
      </trkpt>
      <trkpt lat="43.96158" lon="6.50193">
        <ele>910.3</ele>
        <time>2021-09-12T13:10:01Z</time>
      </trkpt>
      <trkpt lat="43.96154" lon="6.50192">
        <ele>910.3</ele>
        <time>2021-09-12T13:10:02Z</time>
      </trkpt>
      <trkpt lat="43.96152" lon="6.50192">
        <ele>910.3</ele>
        <time>2021-09-12T13:10:03Z</time>
      </trkpt>
      <trkpt lat="43.96137" lon="6.50184">
        <ele>910.4</ele>
        <time>2021-09-12T13:10:08Z</time>
      </trkpt>
      <trkpt lat="43.96119" lon="6.50178">
        <ele>910</ele>
        <time>2021-09-12T13:10:14Z</time>
      </trkpt>
      <trkpt lat="43.9611" lon="6.50175">
        <ele>909.6</ele>
        <time>2021-09-12T13:10:16Z</time>
      </trkpt>
      <trkpt lat="43.96099" lon="6.50179">
        <ele>908.9</ele>
        <time>2021-09-12T13:10:19Z</time>
      </trkpt>
      <trkpt lat="43.96097" lon="6.5018">
        <ele>908.8</ele>
        <time>2021-09-12T13:10:20Z</time>
      </trkpt>
      <trkpt lat="43.96084" lon="6.50183">
        <ele>908</ele>
        <time>2021-09-12T13:10:24Z</time>
      </trkpt>
      <trkpt lat="43.96078" lon="6.50183">
        <ele>907.8</ele>
        <time>2021-09-12T13:10:25Z</time>
      </trkpt>
      <trkpt lat="43.96061" lon="6.5018">
        <ele>907.4</ele>
        <time>2021-09-12T13:10:30Z</time>
      </trkpt>
      <trkpt lat="43.9604" lon="6.50179">
        <ele>907.1</ele>
        <time>2021-09-12T13:10:36Z</time>
      </trkpt>
      <trkpt lat="43.9602" lon="6.50176">
        <ele>907.4</ele>
        <time>2021-09-12T13:10:41Z</time>
      </trkpt>
      <trkpt lat="43.96012" lon="6.5017">
        <ele>907.8</ele>
        <time>2021-09-12T13:10:44Z</time>
      </trkpt>
      <trkpt lat="43.95992" lon="6.50132">
        <ele>910.1</ele>
        <time>2021-09-12T13:10:55Z</time>
      </trkpt>
      <trkpt lat="43.95988" lon="6.50109">
        <ele>912.1</ele>
        <time>2021-09-12T13:11:00Z</time>
      </trkpt>
      <trkpt lat="43.95982" lon="6.50106">
        <ele>913</ele>
        <time>2021-09-12T13:11:03Z</time>
      </trkpt>
      <trkpt lat="43.95973" lon="6.50121">
        <ele>914.9</ele>
        <time>2021-09-12T13:11:09Z</time>
      </trkpt>
      <trkpt lat="43.95962" lon="6.50141">
        <ele>917.1</ele>
        <time>2021-09-12T13:11:17Z</time>
      </trkpt>
      <trkpt lat="43.95937" lon="6.50137">
        <ele>919.5</ele>
        <time>2021-09-12T13:11:30Z</time>
      </trkpt>
      <trkpt lat="43.95917" lon="6.50133">
        <ele>921.2</ele>
        <time>2021-09-12T13:11:41Z</time>
      </trkpt>
      <trkpt lat="43.95899" lon="6.50127">
        <ele>922.9</ele>
        <time>2021-09-12T13:11:51Z</time>
      </trkpt>
      <trkpt lat="43.95892" lon="6.50128">
        <ele>923.5</ele>
        <time>2021-09-12T13:11:56Z</time>
      </trkpt>
      <trkpt lat="43.95888" lon="6.50133">
        <ele>924</ele>
        <time>2021-09-12T13:11:59Z</time>
      </trkpt>
      <trkpt lat="43.95872" lon="6.5016">
        <ele>925.8</ele>
        <time>2021-09-12T13:12:17Z</time>
      </trkpt>
      <trkpt lat="43.95856" lon="6.50185">
        <ele>926.8</ele>
        <time>2021-09-12T13:12:33Z</time>
      </trkpt>
      <trkpt lat="43.95846" lon="6.50203">
        <ele>927.3</ele>
        <time>2021-09-12T13:12:43Z</time>
      </trkpt>
      <trkpt lat="43.95841" lon="6.50206">
        <ele>927.5</ele>
        <time>2021-09-12T13:12:46Z</time>
      </trkpt>
      <trkpt lat="43.95837" lon="6.50207">
        <ele>927.7</ele>
        <time>2021-09-12T13:12:49Z</time>
      </trkpt>
      <trkpt lat="43.95826" lon="6.50194">
        <ele>928.5</ele>
        <time>2021-09-12T13:12:58Z</time>
      </trkpt>
      <trkpt lat="43.95802" lon="6.50161">
        <ele>931.5</ele>
        <time>2021-09-12T13:13:20Z</time>
      </trkpt>
      <trkpt lat="43.95781" lon="6.50134">
        <ele>934.7</ele>
        <time>2021-09-12T13:13:41Z</time>
      </trkpt>
      <trkpt lat="43.95775" lon="6.50122">
        <ele>936.1</ele>
        <time>2021-09-12T13:13:48Z</time>
      </trkpt>
      <trkpt lat="43.95774" lon="6.50113">
        <ele>936.9</ele>
        <time>2021-09-12T13:13:53Z</time>
      </trkpt>
      <trkpt lat="43.95778" lon="6.50097">
        <ele>938.5</ele>
        <time>2021-09-12T13:14:02Z</time>
      </trkpt>
      <trkpt lat="43.95784" lon="6.50074">
        <ele>940.5</ele>
        <time>2021-09-12T13:14:17Z</time>
      </trkpt>
      <trkpt lat="43.95793" lon="6.50044">
        <ele>942.8</ele>
        <time>2021-09-12T13:14:40Z</time>
      </trkpt>
      <trkpt lat="43.95802" lon="6.50015">
        <ele>944.5</ele>
        <time>2021-09-12T13:15:09Z</time>
      </trkpt>
      <trkpt lat="43.95822" lon="6.49982">
        <ele>946.8</ele>
        <time>2021-09-12T13:16:02Z</time>
      </trkpt>
      <trkpt lat="43.95859" lon="6.49956">
        <ele>950</ele>
        <time>2021-09-12T13:17:18Z</time>
      </trkpt>
      <trkpt lat="43.95866" lon="6.49946">
        <ele>950.6</ele>
        <time>2021-09-12T13:17:32Z</time>
      </trkpt>
      <trkpt lat="43.95869" lon="6.4994">
        <ele>951</ele>
        <time>2021-09-12T13:17:37Z</time>
      </trkpt>
      <trkpt lat="43.9587" lon="6.49933">
        <ele>951.4</ele>
        <time>2021-09-12T13:17:40Z</time>
      </trkpt>
      <trkpt lat="43.95868" lon="6.49926">
        <ele>951.8</ele>
        <time>2021-09-12T13:17:43Z</time>
      </trkpt>
      <trkpt lat="43.95863" lon="6.49915">
        <ele>952.8</ele>
        <time>2021-09-12T13:17:48Z</time>
      </trkpt>
      <trkpt lat="43.9586" lon="6.49905">
        <ele>953.7</ele>
        <time>2021-09-12T13:17:52Z</time>
      </trkpt>
      <trkpt lat="43.95861" lon="6.49897">
        <ele>954.4</ele>
        <time>2021-09-12T13:17:56Z</time>
      </trkpt>
      <trkpt lat="43.95869" lon="6.49877">
        <ele>956.4</ele>
        <time>2021-09-12T13:18:04Z</time>
      </trkpt>
      <trkpt lat="43.95874" lon="6.49866">
        <ele>957.5</ele>
        <time>2021-09-12T13:18:09Z</time>
      </trkpt>
      <trkpt lat="43.9589" lon="6.49834">
        <ele>961.1</ele>
        <time>2021-09-12T13:18:24Z</time>
      </trkpt>
      <trkpt lat="43.959" lon="6.49823">
        <ele>962.8</ele>
        <time>2021-09-12T13:18:32Z</time>
      </trkpt>
      <trkpt lat="43.95908" lon="6.49816">
        <ele>963.9</ele>
        <time>2021-09-12T13:18:40Z</time>
      </trkpt>
      <trkpt lat="43.9592" lon="6.49799">
        <ele>966.1</ele>
        <time>2021-09-12T13:19:02Z</time>
      </trkpt>
      <trkpt lat="43.95933" lon="6.49772">
        <ele>969.1</ele>
        <time>2021-09-12T13:19:44Z</time>
      </trkpt>
      <trkpt lat="43.95935" lon="6.49745">
        <ele>971.3</ele>
        <time>2021-09-12T13:20:24Z</time>
      </trkpt>
      <trkpt lat="43.95922" lon="6.49758">
        <ele>972.6</ele>
        <time>2021-09-12T13:20:58Z</time>
      </trkpt>
      <trkpt lat="43.95904" lon="6.49777">
        <ele>971.9</ele>
        <time>2021-09-12T13:21:45Z</time>
      </trkpt>
      <trkpt lat="43.95886" lon="6.49795">
        <ele>971.1</ele>
        <time>2021-09-12T13:22:27Z</time>
      </trkpt>
      <trkpt lat="43.9586" lon="6.49821">
        <ele>970.2</ele>
        <time>2021-09-12T13:23:14Z</time>
      </trkpt>
      <trkpt lat="43.95829" lon="6.49851">
        <ele>969.2</ele>
        <time>2021-09-12T13:23:49Z</time>
      </trkpt>
      <trkpt lat="43.95802" lon="6.49877">
        <ele>968.6</ele>
        <time>2021-09-12T13:24:11Z</time>
      </trkpt>
      <trkpt lat="43.9579" lon="6.49889">
        <ele>968.6</ele>
        <time>2021-09-12T13:24:18Z</time>
      </trkpt>
      <trkpt lat="43.95777" lon="6.49896">
        <ele>968.7</ele>
        <time>2021-09-12T13:24:25Z</time>
      </trkpt>
      <trkpt lat="43.95756" lon="6.49902">
        <ele>968.7</ele>
        <time>2021-09-12T13:24:33Z</time>
      </trkpt>
      <trkpt lat="43.95738" lon="6.49911">
        <ele>968.8</ele>
        <time>2021-09-12T13:24:41Z</time>
      </trkpt>
      <trkpt lat="43.95729" lon="6.49918">
        <ele>968.8</ele>
        <time>2021-09-12T13:24:45Z</time>
      </trkpt>
      <trkpt lat="43.9572" lon="6.49934">
        <ele>969.1</ele>
        <time>2021-09-12T13:24:50Z</time>
      </trkpt>
      <trkpt lat="43.95715" lon="6.49948">
        <ele>969.3</ele>
        <time>2021-09-12T13:24:54Z</time>
      </trkpt>
      <trkpt lat="43.95698" lon="6.4998">
        <ele>969.5</ele>
        <time>2021-09-12T13:25:02Z</time>
      </trkpt>
      <trkpt lat="43.95681" lon="6.50011">
        <ele>969.7</ele>
        <time>2021-09-12T13:25:10Z</time>
      </trkpt>
      <trkpt lat="43.95646" lon="6.50047">
        <ele>970</ele>
        <time>2021-09-12T13:25:21Z</time>
      </trkpt>
      <trkpt lat="43.95612" lon="6.50079">
        <ele>970</ele>
        <time>2021-09-12T13:25:32Z</time>
      </trkpt>
      <trkpt lat="43.95604" lon="6.5009">
        <ele>970</ele>
        <time>2021-09-12T13:25:34Z</time>
      </trkpt>
      <trkpt lat="43.95598" lon="6.50102">
        <ele>970</ele>
        <time>2021-09-12T13:25:37Z</time>
      </trkpt>
      <trkpt lat="43.95595" lon="6.5011">
        <ele>970</ele>
        <time>2021-09-12T13:25:38Z</time>
      </trkpt>
      <trkpt lat="43.95595" lon="6.50118">
        <ele>970</ele>
        <time>2021-09-12T13:25:39Z</time>
      </trkpt>
      <trkpt lat="43.95598" lon="6.50126">
        <ele>970</ele>
        <time>2021-09-12T13:25:40Z</time>
      </trkpt>
      <trkpt lat="43.95601" lon="6.50135">
        <ele>969.9</ele>
        <time>2021-09-12T13:25:41Z</time>
      </trkpt>
      <trkpt lat="43.95601" lon="6.50144">
        <ele>969.9</ele>
        <time>2021-09-12T13:25:42Z</time>
      </trkpt>
      <trkpt lat="43.956" lon="6.50153">
        <ele>969.8</ele>
        <time>2021-09-12T13:25:43Z</time>
      </trkpt>
      <trkpt lat="43.95594" lon="6.5017">
        <ele>969.4</ele>
        <time>2021-09-12T13:25:45Z</time>
      </trkpt>
      <trkpt lat="43.95582" lon="6.5019">
        <ele>968.6</ele>
        <time>2021-09-12T13:25:47Z</time>
      </trkpt>
      <trkpt lat="43.95579" lon="6.50194">
        <ele>968.4</ele>
        <time>2021-09-12T13:25:48Z</time>
      </trkpt>
      <trkpt lat="43.95571" lon="6.50198">
        <ele>968</ele>
        <time>2021-09-12T13:25:49Z</time>
      </trkpt>
      <trkpt lat="43.95564" lon="6.50201">
        <ele>967.9</ele>
        <time>2021-09-12T13:25:50Z</time>
      </trkpt>
      <trkpt lat="43.9556" lon="6.50204">
        <ele>967.9</ele>
        <time>2021-09-12T13:25:51Z</time>
      </trkpt>
      <trkpt lat="43.95558" lon="6.50205">
        <ele>968</ele>
        <time>2021-09-12T13:25:52Z</time>
      </trkpt>
      <trkpt lat="43.95557" lon="6.50205">
        <ele>968</ele>
        <time>2021-09-12T13:25:53Z</time>
      </trkpt>
      <trkpt lat="43.95556" lon="6.50206">
        <ele>968.1</ele>
        <time>2021-09-12T13:25:55Z</time>
      </trkpt>
      <trkpt lat="43.95554" lon="6.50207">
        <ele>968.2</ele>
        <time>2021-09-12T13:25:59Z</time>
      </trkpt>
      <trkpt lat="43.95552" lon="6.50209">
        <ele>968.4</ele>
        <time>2021-09-12T13:26:05Z</time>
      </trkpt>
      <trkpt lat="43.95551" lon="6.5021">
        <ele>968.5</ele>
        <time>2021-09-12T13:26:07Z</time>
      </trkpt>
      <trkpt lat="43.95549" lon="6.50212">
        <ele>968.7</ele>
        <time>2021-09-12T13:26:13Z</time>
      </trkpt>
      <trkpt lat="43.95547" lon="6.50213">
        <ele>968.9</ele>
        <time>2021-09-12T13:26:18Z</time>
      </trkpt>
      <trkpt lat="43.95546" lon="6.50215">
        <ele>969.1</ele>
        <time>2021-09-12T13:26:22Z</time>
      </trkpt>
      <trkpt lat="43.95544" lon="6.50216">
        <ele>969.3</ele>
        <time>2021-09-12T13:26:27Z</time>
      </trkpt>
      <trkpt lat="43.95543" lon="6.50218">
        <ele>969.4</ele>
        <time>2021-09-12T13:26:31Z</time>
      </trkpt>
      <trkpt lat="43.95542" lon="6.50219">
        <ele>969.5</ele>
        <time>2021-09-12T13:26:34Z</time>
      </trkpt>
      <trkpt lat="43.95541" lon="6.5022">
        <ele>969.6</ele>
        <time>2021-09-12T13:26:37Z</time>
      </trkpt>
      <trkpt lat="43.9554" lon="6.50221">
        <ele>969.7</ele>
        <time>2021-09-12T13:26:39Z</time>
      </trkpt>
      <trkpt lat="43.95539" lon="6.50222">
        <ele>969.7</ele>
        <time>2021-09-12T13:26:42Z</time>
      </trkpt>
      <trkpt lat="43.95538" lon="6.50223">
        <ele>969.8</ele>
        <time>2021-09-12T13:26:45Z</time>
      </trkpt>
      <trkpt lat="43.95537" lon="6.50224">
        <ele>969.8</ele>
        <time>2021-09-12T13:26:48Z</time>
      </trkpt>
      <trkpt lat="43.95536" lon="6.50225">
        <ele>969.9</ele>
        <time>2021-09-12T13:26:51Z</time>
      </trkpt>
      <trkpt lat="43.95535" lon="6.50226">
        <ele>969.9</ele>
        <time>2021-09-12T13:26:53Z</time>
      </trkpt>
      <trkpt lat="43.95534" lon="6.50227">
        <ele>969.9</ele>
        <time>2021-09-12T13:26:56Z</time>
      </trkpt>
      <trkpt lat="43.95533" lon="6.50228">
        <ele>969.9</ele>
        <time>2021-09-12T13:26:59Z</time>
      </trkpt>
      <trkpt lat="43.95532" lon="6.50229">
        <ele>969.8</ele>
        <time>2021-09-12T13:27:02Z</time>
      </trkpt>
      <trkpt lat="43.95532" lon="6.5023">
        <ele>969.8</ele>
        <time>2021-09-12T13:27:04Z</time>
      </trkpt>
      <trkpt lat="43.95532" lon="6.50231">
        <ele>969.8</ele>
        <time>2021-09-12T13:27:05Z</time>
      </trkpt>
      <trkpt lat="43.95532" lon="6.50232">
        <ele>969.7</ele>
        <time>2021-09-12T13:27:06Z</time>
      </trkpt>
      <trkpt lat="43.95531" lon="6.50233">
        <ele>969.7</ele>
        <time>2021-09-12T13:27:07Z</time>
      </trkpt>
      <trkpt lat="43.95532" lon="6.50237">
        <ele>969.4</ele>
        <time>2021-09-12T13:27:09Z</time>
      </trkpt>
      <trkpt lat="43.95533" lon="6.50242">
        <ele>969.2</ele>
        <time>2021-09-12T13:27:11Z</time>
      </trkpt>
      <trkpt lat="43.95534" lon="6.50246">
        <ele>968.9</ele>
        <time>2021-09-12T13:27:12Z</time>
      </trkpt>
      <trkpt lat="43.95536" lon="6.50251">
        <ele>968.6</ele>
        <time>2021-09-12T13:27:13Z</time>
      </trkpt>
      <trkpt lat="43.95538" lon="6.50255">
        <ele>968.3</ele>
        <time>2021-09-12T13:27:14Z</time>
      </trkpt>
      <trkpt lat="43.95541" lon="6.50264">
        <ele>967.6</ele>
        <time>2021-09-12T13:27:15Z</time>
      </trkpt>
      <trkpt lat="43.95544" lon="6.50274">
        <ele>967</ele>
        <time>2021-09-12T13:27:16Z</time>
      </trkpt>
      <trkpt lat="43.95546" lon="6.50281">
        <ele>966.5</ele>
        <time>2021-09-12T13:27:17Z</time>
      </trkpt>
      <trkpt lat="43.95549" lon="6.50293">
        <ele>965.7</ele>
        <time>2021-09-12T13:27:18Z</time>
      </trkpt>
      <trkpt lat="43.95552" lon="6.50299">
        <ele>965.3</ele>
        <time>2021-09-12T13:27:19Z</time>
      </trkpt>
      <trkpt lat="43.95555" lon="6.50306">
        <ele>964.8</ele>
        <time>2021-09-12T13:27:20Z</time>
      </trkpt>
      <trkpt lat="43.95562" lon="6.50318">
        <ele>964</ele>
        <time>2021-09-12T13:27:21Z</time>
      </trkpt>
      <trkpt lat="43.95566" lon="6.50324">
        <ele>963.6</ele>
        <time>2021-09-12T13:27:22Z</time>
      </trkpt>
      <trkpt lat="43.9557" lon="6.50331">
        <ele>963.1</ele>
        <time>2021-09-12T13:27:23Z</time>
      </trkpt>
      <trkpt lat="43.95577" lon="6.50342">
        <ele>962.3</ele>
        <time>2021-09-12T13:27:24Z</time>
      </trkpt>
      <trkpt lat="43.95583" lon="6.50349">
        <ele>961.8</ele>
        <time>2021-09-12T13:27:25Z</time>
      </trkpt>
      <trkpt lat="43.95589" lon="6.50357">
        <ele>961.2</ele>
        <time>2021-09-12T13:27:26Z</time>
      </trkpt>
      <trkpt lat="43.95594" lon="6.50365">
        <ele>960.7</ele>
        <time>2021-09-12T13:27:27Z</time>
      </trkpt>
      <trkpt lat="43.95594" lon="6.50375">
        <ele>959.9</ele>
        <time>2021-09-12T13:27:28Z</time>
      </trkpt>
      <trkpt lat="43.95577" lon="6.5043">
        <ele>954.7</ele>
        <time>2021-09-12T13:27:35Z</time>
      </trkpt>
      <trkpt lat="43.9556" lon="6.50485">
        <ele>951.5</ele>
        <time>2021-09-12T13:27:41Z</time>
      </trkpt>
      <trkpt lat="43.95543" lon="6.5054">
        <ele>949.1</ele>
        <time>2021-09-12T13:27:48Z</time>
      </trkpt>
      <trkpt lat="43.9554" lon="6.50546">
        <ele>949.1</ele>
        <time>2021-09-12T13:27:49Z</time>
      </trkpt>
      <trkpt lat="43.95526" lon="6.50584">
        <ele>946.7</ele>
        <time>2021-09-12T13:27:55Z</time>
      </trkpt>
      <trkpt lat="43.95511" lon="6.50622">
        <ele>945.8</ele>
        <time>2021-09-12T13:28:01Z</time>
      </trkpt>
      <trkpt lat="43.95496" lon="6.50659">
        <ele>943</ele>
        <time>2021-09-12T13:28:08Z</time>
      </trkpt>
      <trkpt lat="43.95487" lon="6.50691">
        <ele>938.7</ele>
        <time>2021-09-12T13:28:14Z</time>
      </trkpt>
      <trkpt lat="43.95478" lon="6.50723">
        <ele>931.4</ele>
        <time>2021-09-12T13:28:20Z</time>
      </trkpt>
      <trkpt lat="43.95446" lon="6.50733">
        <ele>937.1</ele>
        <time>2021-09-12T13:28:29Z</time>
      </trkpt>
      <trkpt lat="43.9541" lon="6.50726">
        <ele>945.8</ele>
        <time>2021-09-12T13:28:37Z</time>
      </trkpt>
      <trkpt lat="43.95387" lon="6.50724">
        <ele>949.8</ele>
        <time>2021-09-12T13:28:42Z</time>
      </trkpt>
      <trkpt lat="43.95363" lon="6.50723">
        <ele>952.6</ele>
        <time>2021-09-12T13:28:48Z</time>
      </trkpt>
      <trkpt lat="43.95339" lon="6.50722">
        <ele>956.3</ele>
        <time>2021-09-12T13:28:53Z</time>
      </trkpt>
      <trkpt lat="43.95339" lon="6.50733">
        <ele>954.7</ele>
        <time>2021-09-12T13:28:54Z</time>
      </trkpt>
      <trkpt lat="43.95356" lon="6.50755">
        <ele>947</ele>
        <time>2021-09-12T13:28:59Z</time>
      </trkpt>
      <trkpt lat="43.95358" lon="6.50783">
        <ele>939.3</ele>
        <time>2021-09-12T13:29:03Z</time>
      </trkpt>
      <trkpt lat="43.95354" lon="6.50787">
        <ele>939.7</ele>
        <time>2021-09-12T13:29:04Z</time>
      </trkpt>
      <trkpt lat="43.95341" lon="6.5081">
        <ele>941.4</ele>
        <time>2021-09-12T13:29:07Z</time>
      </trkpt>
      <trkpt lat="43.95323" lon="6.50843">
        <ele>943.8</ele>
        <time>2021-09-12T13:29:12Z</time>
      </trkpt>
      <trkpt lat="43.95315" lon="6.50856">
        <ele>944.9</ele>
        <time>2021-09-12T13:29:14Z</time>
      </trkpt>
      <trkpt lat="43.95306" lon="6.50861">
        <ele>945.5</ele>
        <time>2021-09-12T13:29:15Z</time>
      </trkpt>
      <trkpt lat="43.95304" lon="6.5086">
        <ele>945.6</ele>
        <time>2021-09-12T13:29:16Z</time>
      </trkpt>
      <trkpt lat="43.953" lon="6.50857">
        <ele>945.8</ele>
        <time>2021-09-12T13:29:17Z</time>
      </trkpt>
      <trkpt lat="43.95297" lon="6.50852">
        <ele>946.1</ele>
        <time>2021-09-12T13:29:18Z</time>
      </trkpt>
      <trkpt lat="43.95297" lon="6.50846">
        <ele>946.4</ele>
        <time>2021-09-12T13:29:19Z</time>
      </trkpt>
      <trkpt lat="43.953" lon="6.50838">
        <ele>946.7</ele>
        <time>2021-09-12T13:29:21Z</time>
      </trkpt>
      <trkpt lat="43.95305" lon="6.50831">
        <ele>947.2</ele>
        <time>2021-09-12T13:29:24Z</time>
      </trkpt>
      <trkpt lat="43.95312" lon="6.50821">
        <ele>947.7</ele>
        <time>2021-09-12T13:29:31Z</time>
      </trkpt>
      <trkpt lat="43.95283" lon="6.50782">
        <ele>953.4</ele>
        <time>2021-09-12T13:30:10Z</time>
      </trkpt>
      <trkpt lat="43.9528" lon="6.50778">
        <ele>953.9</ele>
        <time>2021-09-12T13:30:15Z</time>
      </trkpt>
      <trkpt lat="43.95277" lon="6.50777">
        <ele>954.4</ele>
        <time>2021-09-12T13:30:19Z</time>
      </trkpt>
      <trkpt lat="43.95274" lon="6.50776">
        <ele>954.9</ele>
        <time>2021-09-12T13:30:23Z</time>
      </trkpt>
      <trkpt lat="43.9527" lon="6.50777">
        <ele>955.5</ele>
        <time>2021-09-12T13:30:28Z</time>
      </trkpt>
      <trkpt lat="43.95258" lon="6.50782">
        <ele>958.3</ele>
        <time>2021-09-12T13:30:43Z</time>
      </trkpt>
      <trkpt lat="43.9525" lon="6.50785">
        <ele>960.4</ele>
        <time>2021-09-12T13:30:54Z</time>
      </trkpt>
      <trkpt lat="43.95243" lon="6.50785">
        <ele>962.3</ele>
        <time>2021-09-12T13:31:02Z</time>
      </trkpt>
      <trkpt lat="43.95236" lon="6.50785">
        <ele>963.8</ele>
        <time>2021-09-12T13:31:11Z</time>
      </trkpt>
      <trkpt lat="43.95227" lon="6.50784">
        <ele>965.7</ele>
        <time>2021-09-12T13:31:24Z</time>
      </trkpt>
      <trkpt lat="43.95217" lon="6.50786">
        <ele>967.9</ele>
        <time>2021-09-12T13:31:42Z</time>
      </trkpt>
      <trkpt lat="43.95208" lon="6.50787">
        <ele>969.7</ele>
        <time>2021-09-12T13:32:03Z</time>
      </trkpt>
      <trkpt lat="43.95197" lon="6.50786">
        <ele>972.1</ele>
        <time>2021-09-12T13:32:28Z</time>
      </trkpt>
      <trkpt lat="43.95193" lon="6.50784">
        <ele>973.1</ele>
        <time>2021-09-12T13:32:38Z</time>
      </trkpt>
      <trkpt lat="43.95189" lon="6.5078">
        <ele>974</ele>
        <time>2021-09-12T13:32:49Z</time>
      </trkpt>
      <trkpt lat="43.95185" lon="6.50785">
        <ele>975</ele>
        <time>2021-09-12T13:33:02Z</time>
      </trkpt>
      <trkpt lat="43.95175" lon="6.50782">
        <ele>976.9</ele>
        <time>2021-09-12T13:33:25Z</time>
      </trkpt>
      <trkpt lat="43.95165" lon="6.50783">
        <ele>978.9</ele>
        <time>2021-09-12T13:33:48Z</time>
      </trkpt>
      <trkpt lat="43.95154" lon="6.50785">
        <ele>981.2</ele>
        <time>2021-09-12T13:34:13Z</time>
      </trkpt>
      <trkpt lat="43.95147" lon="6.50784">
        <ele>982.6</ele>
        <time>2021-09-12T13:34:29Z</time>
      </trkpt>
      <trkpt lat="43.95139" lon="6.5078">
        <ele>984.3</ele>
        <time>2021-09-12T13:34:49Z</time>
      </trkpt>
      <trkpt lat="43.95126" lon="6.50779">
        <ele>986.8</ele>
        <time>2021-09-12T13:35:19Z</time>
      </trkpt>
      <trkpt lat="43.95124" lon="6.5078">
        <ele>987.1</ele>
        <time>2021-09-12T13:35:24Z</time>
      </trkpt>
      <trkpt lat="43.95122" lon="6.5078">
        <ele>987.5</ele>
        <time>2021-09-12T13:35:28Z</time>
      </trkpt>
      <trkpt lat="43.95116" lon="6.50782">
        <ele>988.4</ele>
        <time>2021-09-12T13:35:42Z</time>
      </trkpt>
      <trkpt lat="43.95112" lon="6.50781">
        <ele>989</ele>
        <time>2021-09-12T13:35:52Z</time>
      </trkpt>
      <trkpt lat="43.95108" lon="6.50777">
        <ele>989.7</ele>
        <time>2021-09-12T13:36:03Z</time>
      </trkpt>
      <trkpt lat="43.95104" lon="6.50771">
        <ele>990.5</ele>
        <time>2021-09-12T13:36:16Z</time>
      </trkpt>
      <trkpt lat="43.95096" lon="6.50758">
        <ele>992</ele>
        <time>2021-09-12T13:36:44Z</time>
      </trkpt>
      <trkpt lat="43.95084" lon="6.50738">
        <ele>994.5</ele>
        <time>2021-09-12T13:37:27Z</time>
      </trkpt>
      <trkpt lat="43.95081" lon="6.50735">
        <ele>995</ele>
        <time>2021-09-12T13:37:36Z</time>
      </trkpt>
      <trkpt lat="43.95072" lon="6.5073">
        <ele>995.9</ele>
        <time>2021-09-12T13:37:58Z</time>
      </trkpt>
      <trkpt lat="43.95063" lon="6.50726">
        <ele>997.3</ele>
        <time>2021-09-12T13:38:20Z</time>
      </trkpt>
      <trkpt lat="43.95052" lon="6.50725">
        <ele>999.5</ele>
        <time>2021-09-12T13:38:45Z</time>
      </trkpt>
      <trkpt lat="43.95039" lon="6.50721">
        <ele>1002.6</ele>
        <time>2021-09-12T13:39:15Z</time>
      </trkpt>
      <trkpt lat="43.95027" lon="6.5072">
        <ele>1005.4</ele>
        <time>2021-09-12T13:39:43Z</time>
      </trkpt>
      <trkpt lat="43.9502" lon="6.50719">
        <ele>1006.9</ele>
        <time>2021-09-12T13:39:59Z</time>
      </trkpt>
      <trkpt lat="43.95007" lon="6.50715">
        <ele>1009.6</ele>
        <time>2021-09-12T13:40:29Z</time>
      </trkpt>
      <trkpt lat="43.95001" lon="6.50714">
        <ele>1010.9</ele>
        <time>2021-09-12T13:40:43Z</time>
      </trkpt>
      <trkpt lat="43.94996" lon="6.50716">
        <ele>1012.1</ele>
        <time>2021-09-12T13:40:55Z</time>
      </trkpt>
      <trkpt lat="43.94988" lon="6.50719">
        <ele>1014.2</ele>
        <time>2021-09-12T13:41:14Z</time>
      </trkpt>
      <trkpt lat="43.94976" lon="6.50722">
        <ele>1017.4</ele>
        <time>2021-09-12T13:41:42Z</time>
      </trkpt>
      <trkpt lat="43.94959" lon="6.50723">
        <ele>1022</ele>
        <time>2021-09-12T13:42:21Z</time>
      </trkpt>
      <trkpt lat="43.94953" lon="6.50725">
        <ele>1023.7</ele>
        <time>2021-09-12T13:42:35Z</time>
      </trkpt>
      <trkpt lat="43.94944" lon="6.50728">
        <ele>1026.1</ele>
        <time>2021-09-12T13:42:56Z</time>
      </trkpt>
      <trkpt lat="43.94934" lon="6.50729">
        <ele>1028.6</ele>
        <time>2021-09-12T13:43:19Z</time>
      </trkpt>
      <trkpt lat="43.94925" lon="6.50727">
        <ele>1030.6</ele>
        <time>2021-09-12T13:43:40Z</time>
      </trkpt>
      <trkpt lat="43.94919" lon="6.50729">
        <ele>1031.7</ele>
        <time>2021-09-12T13:43:54Z</time>
      </trkpt>
      <trkpt lat="43.94901" lon="6.5074">
        <ele>1034.1</ele>
        <time>2021-09-12T13:44:39Z</time>
      </trkpt>
      <trkpt lat="43.94898" lon="6.50741">
        <ele>1034.2</ele>
        <time>2021-09-12T13:44:46Z</time>
      </trkpt>
      <trkpt lat="43.94894" lon="6.50746">
        <ele>1034.3</ele>
        <time>2021-09-12T13:44:58Z</time>
      </trkpt>
      <trkpt lat="43.94889" lon="6.50751">
        <ele>1034.4</ele>
        <time>2021-09-12T13:45:11Z</time>
      </trkpt>
      <trkpt lat="43.94883" lon="6.50757">
        <ele>1034.6</ele>
        <time>2021-09-12T13:45:22Z</time>
      </trkpt>
      <trkpt lat="43.94874" lon="6.50764">
        <ele>1035</ele>
        <time>2021-09-12T13:45:34Z</time>
      </trkpt>
      <trkpt lat="43.94866" lon="6.50768">
        <ele>1035.7</ele>
        <time>2021-09-12T13:45:42Z</time>
      </trkpt>
      <trkpt lat="43.9486" lon="6.5077">
        <ele>1036.5</ele>
        <time>2021-09-12T13:45:47Z</time>
      </trkpt>
      <trkpt lat="43.94844" lon="6.50777">
        <ele>1039.4</ele>
        <time>2021-09-12T13:46:00Z</time>
      </trkpt>
      <trkpt lat="43.94831" lon="6.5078">
        <ele>1041.4</ele>
        <time>2021-09-12T13:46:10Z</time>
      </trkpt>
      <trkpt lat="43.94817" lon="6.50784">
        <ele>1043.3</ele>
        <time>2021-09-12T13:46:21Z</time>
      </trkpt>
      <trkpt lat="43.94804" lon="6.50782">
        <ele>1045</ele>
        <time>2021-09-12T13:46:31Z</time>
      </trkpt>
      <trkpt lat="43.94796" lon="6.50778">
        <ele>1046.1</ele>
        <time>2021-09-12T13:46:38Z</time>
      </trkpt>
      <trkpt lat="43.94788" lon="6.50776">
        <ele>1046.9</ele>
        <time>2021-09-12T13:46:45Z</time>
      </trkpt>
      <trkpt lat="43.94781" lon="6.50775">
        <ele>1047.6</ele>
        <time>2021-09-12T13:46:51Z</time>
      </trkpt>
      <trkpt lat="43.94779" lon="6.50772">
        <ele>1047.9</ele>
        <time>2021-09-12T13:46:55Z</time>
      </trkpt>
      <trkpt lat="43.94776" lon="6.5077">
        <ele>1048.2</ele>
        <time>2021-09-12T13:47:00Z</time>
      </trkpt>
      <trkpt lat="43.94766" lon="6.50768">
        <ele>1049.2</ele>
        <time>2021-09-12T13:47:20Z</time>
      </trkpt>
      <trkpt lat="43.94762" lon="6.50766">
        <ele>1049.6</ele>
        <time>2021-09-12T13:47:30Z</time>
      </trkpt>
      <trkpt lat="43.94766" lon="6.5079">
        <ele>1051.7</ele>
        <time>2021-09-12T13:48:10Z</time>
      </trkpt>
      <trkpt lat="43.94766" lon="6.50796">
        <ele>1052.2</ele>
        <time>2021-09-12T13:48:19Z</time>
      </trkpt>
      <trkpt lat="43.94765" lon="6.50799">
        <ele>1052.5</ele>
        <time>2021-09-12T13:48:22Z</time>
      </trkpt>
      <trkpt lat="43.94765" lon="6.508">
        <ele>1052.6</ele>
        <time>2021-09-12T13:48:23Z</time>
      </trkpt>
      <trkpt lat="43.94726" lon="6.50759">
        <ele>1057.9</ele>
        <time>2021-09-12T13:48:58Z</time>
      </trkpt>
      <trkpt lat="43.94724" lon="6.50757">
        <ele>1058</ele>
        <time>2021-09-12T13:48:59Z</time>
      </trkpt>
      <trkpt lat="43.94721" lon="6.50754">
        <ele>1058.2</ele>
        <time>2021-09-12T13:49:01Z</time>
      </trkpt>
      <trkpt lat="43.94716" lon="6.50751">
        <ele>1058.5</ele>
        <time>2021-09-12T13:49:03Z</time>
      </trkpt>
      <trkpt lat="43.94711" lon="6.50747">
        <ele>1058.7</ele>
        <time>2021-09-12T13:49:06Z</time>
      </trkpt>
      <trkpt lat="43.94709" lon="6.50744">
        <ele>1058.8</ele>
        <time>2021-09-12T13:49:07Z</time>
      </trkpt>
      <trkpt lat="43.94705" lon="6.5074">
        <ele>1058.9</ele>
        <time>2021-09-12T13:49:09Z</time>
      </trkpt>
      <trkpt lat="43.94703" lon="6.50736">
        <ele>1059</ele>
        <time>2021-09-12T13:49:10Z</time>
      </trkpt>
      <trkpt lat="43.94699" lon="6.50731">
        <ele>1059.1</ele>
        <time>2021-09-12T13:49:12Z</time>
      </trkpt>
      <trkpt lat="43.94695" lon="6.50725">
        <ele>1059.1</ele>
        <time>2021-09-12T13:49:14Z</time>
      </trkpt>
      <trkpt lat="43.9469" lon="6.50719">
        <ele>1059.2</ele>
        <time>2021-09-12T13:49:16Z</time>
      </trkpt>
      <trkpt lat="43.94687" lon="6.50714">
        <ele>1059.2</ele>
        <time>2021-09-12T13:49:18Z</time>
      </trkpt>
      <trkpt lat="43.94684" lon="6.50712">
        <ele>1059.2</ele>
        <time>2021-09-12T13:49:19Z</time>
      </trkpt>
      <trkpt lat="43.94682" lon="6.5071">
        <ele>1059.3</ele>
        <time>2021-09-12T13:49:20Z</time>
      </trkpt>
      <trkpt lat="43.94679" lon="6.50709">
        <ele>1059.3</ele>
        <time>2021-09-12T13:49:21Z</time>
      </trkpt>
      <trkpt lat="43.94675" lon="6.50707">
        <ele>1059.3</ele>
        <time>2021-09-12T13:49:22Z</time>
      </trkpt>
      <trkpt lat="43.94669" lon="6.50705">
        <ele>1059.4</ele>
        <time>2021-09-12T13:49:24Z</time>
      </trkpt>
      <trkpt lat="43.94665" lon="6.50703">
        <ele>1059.4</ele>
        <time>2021-09-12T13:49:25Z</time>
      </trkpt>
      <trkpt lat="43.94662" lon="6.50702">
        <ele>1059.4</ele>
        <time>2021-09-12T13:49:26Z</time>
      </trkpt>
      <trkpt lat="43.94658" lon="6.507">
        <ele>1059.4</ele>
        <time>2021-09-12T13:49:27Z</time>
      </trkpt>
      <trkpt lat="43.94653" lon="6.50699">
        <ele>1059.5</ele>
        <time>2021-09-12T13:49:29Z</time>
      </trkpt>
      <trkpt lat="43.94649" lon="6.50699">
        <ele>1059.5</ele>
        <time>2021-09-12T13:49:30Z</time>
      </trkpt>
      <trkpt lat="43.94642" lon="6.50698">
        <ele>1059.6</ele>
        <time>2021-09-12T13:49:32Z</time>
      </trkpt>
      <trkpt lat="43.94638" lon="6.50698">
        <ele>1059.6</ele>
        <time>2021-09-12T13:49:33Z</time>
      </trkpt>
      <trkpt lat="43.94632" lon="6.50697">
        <ele>1059.7</ele>
        <time>2021-09-12T13:49:35Z</time>
      </trkpt>
      <trkpt lat="43.94628" lon="6.50696">
        <ele>1059.7</ele>
        <time>2021-09-12T13:49:36Z</time>
      </trkpt>
      <trkpt lat="43.94625" lon="6.50695">
        <ele>1059.7</ele>
        <time>2021-09-12T13:49:37Z</time>
      </trkpt>
      <trkpt lat="43.94622" lon="6.50695">
        <ele>1059.7</ele>
        <time>2021-09-12T13:49:38Z</time>
      </trkpt>
      <trkpt lat="43.94618" lon="6.50695">
        <ele>1059.8</ele>
        <time>2021-09-12T13:49:39Z</time>
      </trkpt>
      <trkpt lat="43.94614" lon="6.50693">
        <ele>1059.8</ele>
        <time>2021-09-12T13:49:40Z</time>
      </trkpt>
      <trkpt lat="43.94611" lon="6.50691">
        <ele>1059.8</ele>
        <time>2021-09-12T13:49:41Z</time>
      </trkpt>
      <trkpt lat="43.94609" lon="6.50688">
        <ele>1059.8</ele>
        <time>2021-09-12T13:49:42Z</time>
      </trkpt>
      <trkpt lat="43.94605" lon="6.50684">
        <ele>1059.9</ele>
        <time>2021-09-12T13:49:43Z</time>
      </trkpt>
      <trkpt lat="43.94602" lon="6.50681">
        <ele>1059.9</ele>
        <time>2021-09-12T13:49:44Z</time>
      </trkpt>
      <trkpt lat="43.94599" lon="6.50686">
        <ele>1059.9</ele>
        <time>2021-09-12T13:49:45Z</time>
      </trkpt>
      <trkpt lat="43.94596" lon="6.50689">
        <ele>1060</ele>
        <time>2021-09-12T13:49:46Z</time>
      </trkpt>
      <trkpt lat="43.94592" lon="6.50688">
        <ele>1060</ele>
        <time>2021-09-12T13:49:47Z</time>
      </trkpt>
      <trkpt lat="43.94588" lon="6.5068">
        <ele>1060.1</ele>
        <time>2021-09-12T13:49:49Z</time>
      </trkpt>
      <trkpt lat="43.94583" lon="6.50673">
        <ele>1060.2</ele>
        <time>2021-09-12T13:49:51Z</time>
      </trkpt>
      <trkpt lat="43.94578" lon="6.50669">
        <ele>1060.3</ele>
        <time>2021-09-12T13:49:53Z</time>
      </trkpt>
      <trkpt lat="43.94572" lon="6.50663">
        <ele>1060.5</ele>
        <time>2021-09-12T13:49:55Z</time>
      </trkpt>
      <trkpt lat="43.94567" lon="6.50658">
        <ele>1060.6</ele>
        <time>2021-09-12T13:49:57Z</time>
      </trkpt>
      <trkpt lat="43.94564" lon="6.50653">
        <ele>1060.7</ele>
        <time>2021-09-12T13:49:58Z</time>
      </trkpt>
      <trkpt lat="43.94559" lon="6.50648">
        <ele>1060.9</ele>
        <time>2021-09-12T13:50:00Z</time>
      </trkpt>
      <trkpt lat="43.94555" lon="6.50643">
        <ele>1061.1</ele>
        <time>2021-09-12T13:50:02Z</time>
      </trkpt>
      <trkpt lat="43.9455" lon="6.50638">
        <ele>1061.3</ele>
        <time>2021-09-12T13:50:04Z</time>
      </trkpt>
      <trkpt lat="43.94547" lon="6.50636">
        <ele>1061.5</ele>
        <time>2021-09-12T13:50:05Z</time>
      </trkpt>
      <trkpt lat="43.94543" lon="6.50633">
        <ele>1061.6</ele>
        <time>2021-09-12T13:50:06Z</time>
      </trkpt>
      <trkpt lat="43.94539" lon="6.50631">
        <ele>1061.8</ele>
        <time>2021-09-12T13:50:07Z</time>
      </trkpt>
      <trkpt lat="43.94536" lon="6.5063">
        <ele>1062</ele>
        <time>2021-09-12T13:50:09Z</time>
      </trkpt>
      <trkpt lat="43.94533" lon="6.50628">
        <ele>1062.2</ele>
        <time>2021-09-12T13:50:10Z</time>
      </trkpt>
      <trkpt lat="43.94529" lon="6.50626">
        <ele>1062.4</ele>
        <time>2021-09-12T13:50:11Z</time>
      </trkpt>
      <trkpt lat="43.94526" lon="6.50623">
        <ele>1062.6</ele>
        <time>2021-09-12T13:50:13Z</time>
      </trkpt>
      <trkpt lat="43.94522" lon="6.50621">
        <ele>1062.8</ele>
        <time>2021-09-12T13:50:14Z</time>
      </trkpt>
      <trkpt lat="43.94519" lon="6.50619">
        <ele>1062.9</ele>
        <time>2021-09-12T13:50:16Z</time>
      </trkpt>
      <trkpt lat="43.94516" lon="6.50617">
        <ele>1063.1</ele>
        <time>2021-09-12T13:50:17Z</time>
      </trkpt>
      <trkpt lat="43.94513" lon="6.50616">
        <ele>1063.3</ele>
        <time>2021-09-12T13:50:18Z</time>
      </trkpt>
      <trkpt lat="43.94508" lon="6.50615">
        <ele>1063.5</ele>
        <time>2021-09-12T13:50:20Z</time>
      </trkpt>
      <trkpt lat="43.94507" lon="6.50614">
        <ele>1063.6</ele>
        <time>2021-09-12T13:50:21Z</time>
      </trkpt>
      <trkpt lat="43.94503" lon="6.50612">
        <ele>1063.8</ele>
        <time>2021-09-12T13:50:22Z</time>
      </trkpt>
      <trkpt lat="43.94502" lon="6.50612">
        <ele>1063.9</ele>
        <time>2021-09-12T13:50:23Z</time>
      </trkpt>
      <trkpt lat="43.94498" lon="6.50612">
        <ele>1064.1</ele>
        <time>2021-09-12T13:50:25Z</time>
      </trkpt>
      <trkpt lat="43.94492" lon="6.50613">
        <ele>1064.5</ele>
        <time>2021-09-12T13:50:27Z</time>
      </trkpt>
      <trkpt lat="43.94487" lon="6.50613">
        <ele>1064.8</ele>
        <time>2021-09-12T13:50:30Z</time>
      </trkpt>
      <trkpt lat="43.94482" lon="6.50614">
        <ele>1065.1</ele>
        <time>2021-09-12T13:50:32Z</time>
      </trkpt>
      <trkpt lat="43.94477" lon="6.50613">
        <ele>1065.4</ele>
        <time>2021-09-12T13:50:34Z</time>
      </trkpt>
      <trkpt lat="43.94474" lon="6.50611">
        <ele>1065.5</ele>
        <time>2021-09-12T13:50:36Z</time>
      </trkpt>
      <trkpt lat="43.94471" lon="6.50609">
        <ele>1065.7</ele>
        <time>2021-09-12T13:50:37Z</time>
      </trkpt>
      <trkpt lat="43.94468" lon="6.50608">
        <ele>1065.9</ele>
        <time>2021-09-12T13:50:39Z</time>
      </trkpt>
      <trkpt lat="43.94464" lon="6.50607">
        <ele>1066.1</ele>
        <time>2021-09-12T13:50:41Z</time>
      </trkpt>
      <trkpt lat="43.94461" lon="6.50605">
        <ele>1066.3</ele>
        <time>2021-09-12T13:50:42Z</time>
      </trkpt>
      <trkpt lat="43.94457" lon="6.50604">
        <ele>1066.6</ele>
        <time>2021-09-12T13:50:44Z</time>
      </trkpt>
      <trkpt lat="43.94456" lon="6.50604">
        <ele>1066.7</ele>
        <time>2021-09-12T13:50:45Z</time>
      </trkpt>
      <trkpt lat="43.94454" lon="6.50601">
        <ele>1066.8</ele>
        <time>2021-09-12T13:50:46Z</time>
      </trkpt>
      <trkpt lat="43.94454" lon="6.50598">
        <ele>1067</ele>
        <time>2021-09-12T13:50:47Z</time>
      </trkpt>
      <trkpt lat="43.94452" lon="6.50597">
        <ele>1067.1</ele>
        <time>2021-09-12T13:50:48Z</time>
      </trkpt>
      <trkpt lat="43.9445" lon="6.50595">
        <ele>1067.2</ele>
        <time>2021-09-12T13:50:49Z</time>
      </trkpt>
      <trkpt lat="43.94447" lon="6.50593">
        <ele>1067.4</ele>
        <time>2021-09-12T13:50:51Z</time>
      </trkpt>
      <trkpt lat="43.94445" lon="6.50592">
        <ele>1067.5</ele>
        <time>2021-09-12T13:50:52Z</time>
      </trkpt>
      <trkpt lat="43.94443" lon="6.5059">
        <ele>1067.7</ele>
        <time>2021-09-12T13:50:53Z</time>
      </trkpt>
      <trkpt lat="43.94438" lon="6.50588">
        <ele>1068</ele>
        <time>2021-09-12T13:50:55Z</time>
      </trkpt>
      <trkpt lat="43.94437" lon="6.50586">
        <ele>1068.1</ele>
        <time>2021-09-12T13:50:56Z</time>
      </trkpt>
      <trkpt lat="43.94437" lon="6.50581">
        <ele>1068.3</ele>
        <time>2021-09-12T13:50:58Z</time>
      </trkpt>
      <trkpt lat="43.94438" lon="6.50576">
        <ele>1068.5</ele>
        <time>2021-09-12T13:51:00Z</time>
      </trkpt>
      <trkpt lat="43.94438" lon="6.50574">
        <ele>1068.6</ele>
        <time>2021-09-12T13:51:01Z</time>
      </trkpt>
      <trkpt lat="43.94438" lon="6.50572">
        <ele>1068.7</ele>
        <time>2021-09-12T13:51:02Z</time>
      </trkpt>
      <trkpt lat="43.94438" lon="6.50568">
        <ele>1068.9</ele>
        <time>2021-09-12T13:51:03Z</time>
      </trkpt>
      <trkpt lat="43.94433" lon="6.50556">
        <ele>1069.5</ele>
        <time>2021-09-12T13:51:08Z</time>
      </trkpt>
      <trkpt lat="43.94431" lon="6.50554">
        <ele>1069.6</ele>
        <time>2021-09-12T13:51:09Z</time>
      </trkpt>
      <trkpt lat="43.94425" lon="6.50554">
        <ele>1069.9</ele>
        <time>2021-09-12T13:51:12Z</time>
      </trkpt>
      <trkpt lat="43.9442" lon="6.50553">
        <ele>1070.2</ele>
        <time>2021-09-12T13:51:15Z</time>
      </trkpt>
      <trkpt lat="43.94417" lon="6.50552">
        <ele>1070.4</ele>
        <time>2021-09-12T13:51:16Z</time>
      </trkpt>
      <trkpt lat="43.94414" lon="6.50548">
        <ele>1070.6</ele>
        <time>2021-09-12T13:51:18Z</time>
      </trkpt>
      <trkpt lat="43.94413" lon="6.50547">
        <ele>1070.7</ele>
        <time>2021-09-12T13:51:19Z</time>
      </trkpt>
      <trkpt lat="43.94408" lon="6.50546">
        <ele>1070.9</ele>
        <time>2021-09-12T13:51:21Z</time>
      </trkpt>
      <trkpt lat="43.94406" lon="6.50546">
        <ele>1071</ele>
        <time>2021-09-12T13:51:22Z</time>
      </trkpt>
      <trkpt lat="43.94402" lon="6.50549">
        <ele>1071.3</ele>
        <time>2021-09-12T13:51:24Z</time>
      </trkpt>
      <trkpt lat="43.944" lon="6.50549">
        <ele>1071.4</ele>
        <time>2021-09-12T13:51:25Z</time>
      </trkpt>
      <trkpt lat="43.94378" lon="6.5052">
        <ele>1072.9</ele>
        <time>2021-09-12T13:51:39Z</time>
      </trkpt>
      <trkpt lat="43.94376" lon="6.50518">
        <ele>1073</ele>
        <time>2021-09-12T13:51:40Z</time>
      </trkpt>
      <trkpt lat="43.94372" lon="6.50515">
        <ele>1073.3</ele>
        <time>2021-09-12T13:51:42Z</time>
      </trkpt>
      <trkpt lat="43.94365" lon="6.50515">
        <ele>1073.6</ele>
        <time>2021-09-12T13:51:45Z</time>
      </trkpt>
      <trkpt lat="43.94358" lon="6.50514">
        <ele>1074</ele>
        <time>2021-09-12T13:51:48Z</time>
      </trkpt>
      <trkpt lat="43.94354" lon="6.50514">
        <ele>1074.2</ele>
        <time>2021-09-12T13:51:50Z</time>
      </trkpt>
      <trkpt lat="43.94351" lon="6.50513">
        <ele>1074.4</ele>
        <time>2021-09-12T13:51:51Z</time>
      </trkpt>
      <trkpt lat="43.94347" lon="6.5051">
        <ele>1074.6</ele>
        <time>2021-09-12T13:51:53Z</time>
      </trkpt>
      <trkpt lat="43.94349" lon="6.50506">
        <ele>1074.8</ele>
        <time>2021-09-12T13:51:55Z</time>
      </trkpt>
      <trkpt lat="43.94351" lon="6.50505">
        <ele>1074.9</ele>
        <time>2021-09-12T13:51:56Z</time>
      </trkpt>
      <trkpt lat="43.94351" lon="6.505">
        <ele>1075.1</ele>
        <time>2021-09-12T13:51:57Z</time>
      </trkpt>
      <trkpt lat="43.9435" lon="6.50497">
        <ele>1075.3</ele>
        <time>2021-09-12T13:51:58Z</time>
      </trkpt>
      <trkpt lat="43.9435" lon="6.50491">
        <ele>1075.5</ele>
        <time>2021-09-12T13:52:00Z</time>
      </trkpt>
      <trkpt lat="43.94349" lon="6.50488">
        <ele>1075.7</ele>
        <time>2021-09-12T13:52:01Z</time>
      </trkpt>
      <trkpt lat="43.94346" lon="6.50486">
        <ele>1075.9</ele>
        <time>2021-09-12T13:52:03Z</time>
      </trkpt>
      <trkpt lat="43.9434" lon="6.50485">
        <ele>1076.3</ele>
        <time>2021-09-12T13:52:06Z</time>
      </trkpt>
      <trkpt lat="43.94337" lon="6.50483">
        <ele>1076.5</ele>
        <time>2021-09-12T13:52:08Z</time>
      </trkpt>
      <trkpt lat="43.94334" lon="6.50481">
        <ele>1076.7</ele>
        <time>2021-09-12T13:52:09Z</time>
      </trkpt>
      <trkpt lat="43.94332" lon="6.50478">
        <ele>1076.9</ele>
        <time>2021-09-12T13:52:11Z</time>
      </trkpt>
      <trkpt lat="43.94328" lon="6.50475">
        <ele>1077.2</ele>
        <time>2021-09-12T13:52:13Z</time>
      </trkpt>
      <trkpt lat="43.94326" lon="6.50473">
        <ele>1077.4</ele>
        <time>2021-09-12T13:52:14Z</time>
      </trkpt>
      <trkpt lat="43.94324" lon="6.50471">
        <ele>1077.6</ele>
        <time>2021-09-12T13:52:16Z</time>
      </trkpt>
      <trkpt lat="43.94322" lon="6.50469">
        <ele>1077.8</ele>
        <time>2021-09-12T13:52:17Z</time>
      </trkpt>
      <trkpt lat="43.94321" lon="6.50469">
        <ele>1077.9</ele>
        <time>2021-09-12T13:52:18Z</time>
      </trkpt>
      <trkpt lat="43.94319" lon="6.50469">
        <ele>1078</ele>
        <time>2021-09-12T13:52:19Z</time>
      </trkpt>
      <trkpt lat="43.94316" lon="6.50469">
        <ele>1078.2</ele>
        <time>2021-09-12T13:52:20Z</time>
      </trkpt>
      <trkpt lat="43.94313" lon="6.5047">
        <ele>1078.5</ele>
        <time>2021-09-12T13:52:22Z</time>
      </trkpt>
      <trkpt lat="43.94311" lon="6.5047">
        <ele>1078.6</ele>
        <time>2021-09-12T13:52:23Z</time>
      </trkpt>
      <trkpt lat="43.94308" lon="6.50469">
        <ele>1078.9</ele>
        <time>2021-09-12T13:52:25Z</time>
      </trkpt>
      <trkpt lat="43.94306" lon="6.50467">
        <ele>1079.1</ele>
        <time>2021-09-12T13:52:27Z</time>
      </trkpt>
      <trkpt lat="43.94305" lon="6.50465">
        <ele>1079.2</ele>
        <time>2021-09-12T13:52:28Z</time>
      </trkpt>
      <trkpt lat="43.94303" lon="6.50464">
        <ele>1079.4</ele>
        <time>2021-09-12T13:52:29Z</time>
      </trkpt>
      <trkpt lat="43.94302" lon="6.50463">
        <ele>1079.5</ele>
        <time>2021-09-12T13:52:30Z</time>
      </trkpt>
      <trkpt lat="43.943" lon="6.50462">
        <ele>1079.7</ele>
        <time>2021-09-12T13:52:31Z</time>
      </trkpt>
      <trkpt lat="43.94299" lon="6.50462">
        <ele>1079.7</ele>
        <time>2021-09-12T13:52:32Z</time>
      </trkpt>
      <trkpt lat="43.94299" lon="6.50461">
        <ele>1079.8</ele>
        <time>2021-09-12T13:52:33Z</time>
      </trkpt>
      <trkpt lat="43.94296" lon="6.50459">
        <ele>1080</ele>
        <time>2021-09-12T13:52:34Z</time>
      </trkpt>
      <trkpt lat="43.94296" lon="6.50459">
        <ele>1080.1</ele>
        <time>2021-09-12T13:52:35Z</time>
      </trkpt>
      <trkpt lat="43.94294" lon="6.50457">
        <ele>1080.2</ele>
        <time>2021-09-12T13:52:36Z</time>
      </trkpt>
      <trkpt lat="43.94293" lon="6.50457">
        <ele>1080.3</ele>
        <time>2021-09-12T13:52:37Z</time>
      </trkpt>
      <trkpt lat="43.9429" lon="6.50456">
        <ele>1080.6</ele>
        <time>2021-09-12T13:52:39Z</time>
      </trkpt>
      <trkpt lat="43.94286" lon="6.50457">
        <ele>1080.8</ele>
        <time>2021-09-12T13:52:41Z</time>
      </trkpt>
      <trkpt lat="43.94284" lon="6.50457">
        <ele>1080.9</ele>
        <time>2021-09-12T13:52:42Z</time>
      </trkpt>
      <trkpt lat="43.94283" lon="6.50457">
        <ele>1081</ele>
        <time>2021-09-12T13:52:43Z</time>
      </trkpt>
      <trkpt lat="43.94275" lon="6.50458">
        <ele>1081.5</ele>
        <time>2021-09-12T13:52:47Z</time>
      </trkpt>
      <trkpt lat="43.94268" lon="6.50458">
        <ele>1081.9</ele>
        <time>2021-09-12T13:52:51Z</time>
      </trkpt>
      <trkpt lat="43.94264" lon="6.50457">
        <ele>1082.1</ele>
        <time>2021-09-12T13:52:53Z</time>
      </trkpt>
      <trkpt lat="43.94261" lon="6.50457">
        <ele>1082.3</ele>
        <time>2021-09-12T13:52:55Z</time>
      </trkpt>
      <trkpt lat="43.94257" lon="6.50457">
        <ele>1082.5</ele>
        <time>2021-09-12T13:52:57Z</time>
      </trkpt>
      <trkpt lat="43.94254" lon="6.50458">
        <ele>1082.6</ele>
        <time>2021-09-12T13:52:58Z</time>
      </trkpt>
      <trkpt lat="43.94251" lon="6.50456">
        <ele>1082.7</ele>
        <time>2021-09-12T13:53:00Z</time>
      </trkpt>
      <trkpt lat="43.94248" lon="6.50456">
        <ele>1082.9</ele>
        <time>2021-09-12T13:53:01Z</time>
      </trkpt>
      <trkpt lat="43.94245" lon="6.50457">
        <ele>1083</ele>
        <time>2021-09-12T13:53:02Z</time>
      </trkpt>
      <trkpt lat="43.94241" lon="6.50456">
        <ele>1083.2</ele>
        <time>2021-09-12T13:53:04Z</time>
      </trkpt>
      <trkpt lat="43.94238" lon="6.50456">
        <ele>1083.3</ele>
        <time>2021-09-12T13:53:05Z</time>
      </trkpt>
      <trkpt lat="43.94236" lon="6.50458">
        <ele>1083.4</ele>
        <time>2021-09-12T13:53:06Z</time>
      </trkpt>
      <trkpt lat="43.94233" lon="6.5046">
        <ele>1083.5</ele>
        <time>2021-09-12T13:53:07Z</time>
      </trkpt>
      <trkpt lat="43.94232" lon="6.5046">
        <ele>1083.5</ele>
        <time>2021-09-12T13:53:08Z</time>
      </trkpt>
      <trkpt lat="43.94227" lon="6.50461">
        <ele>1083.7</ele>
        <time>2021-09-12T13:53:10Z</time>
      </trkpt>
      <trkpt lat="43.94224" lon="6.50462">
        <ele>1083.8</ele>
        <time>2021-09-12T13:53:11Z</time>
      </trkpt>
      <trkpt lat="43.9422" lon="6.50463">
        <ele>1083.9</ele>
        <time>2021-09-12T13:53:12Z</time>
      </trkpt>
      <trkpt lat="43.94217" lon="6.50462">
        <ele>1084</ele>
        <time>2021-09-12T13:53:14Z</time>
      </trkpt>
      <trkpt lat="43.94214" lon="6.50462">
        <ele>1084.1</ele>
        <time>2021-09-12T13:53:15Z</time>
      </trkpt>
      <trkpt lat="43.9421" lon="6.5046">
        <ele>1084.2</ele>
        <time>2021-09-12T13:53:16Z</time>
      </trkpt>
      <trkpt lat="43.94209" lon="6.5046">
        <ele>1084.2</ele>
        <time>2021-09-12T13:53:17Z</time>
      </trkpt>
      <trkpt lat="43.94205" lon="6.50458">
        <ele>1084.4</ele>
        <time>2021-09-12T13:53:18Z</time>
      </trkpt>
      <trkpt lat="43.94201" lon="6.50457">
        <ele>1084.4</ele>
        <time>2021-09-12T13:53:19Z</time>
      </trkpt>
      <trkpt lat="43.942" lon="6.50457">
        <ele>1084.5</ele>
        <time>2021-09-12T13:53:20Z</time>
      </trkpt>
      <trkpt lat="43.94197" lon="6.50455">
        <ele>1084.6</ele>
        <time>2021-09-12T13:53:21Z</time>
      </trkpt>
      <trkpt lat="43.94194" lon="6.50454">
        <ele>1084.7</ele>
        <time>2021-09-12T13:53:22Z</time>
      </trkpt>
      <trkpt lat="43.9419" lon="6.50452">
        <ele>1084.8</ele>
        <time>2021-09-12T13:53:23Z</time>
      </trkpt>
      <trkpt lat="43.94188" lon="6.5045">
        <ele>1084.9</ele>
        <time>2021-09-12T13:53:24Z</time>
      </trkpt>
      <trkpt lat="43.94186" lon="6.50446">
        <ele>1085</ele>
        <time>2021-09-12T13:53:25Z</time>
      </trkpt>
      <trkpt lat="43.94184" lon="6.50444">
        <ele>1085</ele>
        <time>2021-09-12T13:53:26Z</time>
      </trkpt>
      <trkpt lat="43.94181" lon="6.50442">
        <ele>1085.1</ele>
        <time>2021-09-12T13:53:27Z</time>
      </trkpt>
      <trkpt lat="43.94178" lon="6.50441">
        <ele>1085.3</ele>
        <time>2021-09-12T13:53:29Z</time>
      </trkpt>
      <trkpt lat="43.94174" lon="6.5044">
        <ele>1085.4</ele>
        <time>2021-09-12T13:53:30Z</time>
      </trkpt>
      <trkpt lat="43.94172" lon="6.50438">
        <ele>1085.5</ele>
        <time>2021-09-12T13:53:31Z</time>
      </trkpt>
      <trkpt lat="43.94168" lon="6.50436">
        <ele>1085.7</ele>
        <time>2021-09-12T13:53:32Z</time>
      </trkpt>
      <trkpt lat="43.94165" lon="6.50433">
        <ele>1085.9</ele>
        <time>2021-09-12T13:53:34Z</time>
      </trkpt>
      <trkpt lat="43.94161" lon="6.50429">
        <ele>1086.2</ele>
        <time>2021-09-12T13:53:35Z</time>
      </trkpt>
      <trkpt lat="43.94158" lon="6.50427">
        <ele>1086.3</ele>
        <time>2021-09-12T13:53:36Z</time>
      </trkpt>
      <trkpt lat="43.94154" lon="6.50424">
        <ele>1086.6</ele>
        <time>2021-09-12T13:53:38Z</time>
      </trkpt>
      <trkpt lat="43.94152" lon="6.50423">
        <ele>1086.7</ele>
        <time>2021-09-12T13:53:39Z</time>
      </trkpt>
      <trkpt lat="43.94148" lon="6.50423">
        <ele>1086.9</ele>
        <time>2021-09-12T13:53:41Z</time>
      </trkpt>
      <trkpt lat="43.94143" lon="6.50422">
        <ele>1087.2</ele>
        <time>2021-09-12T13:53:43Z</time>
      </trkpt>
      <trkpt lat="43.94139" lon="6.50422">
        <ele>1087.5</ele>
        <time>2021-09-12T13:53:44Z</time>
      </trkpt>
      <trkpt lat="43.94136" lon="6.50421">
        <ele>1087.7</ele>
        <time>2021-09-12T13:53:46Z</time>
      </trkpt>
      <trkpt lat="43.94133" lon="6.50421">
        <ele>1087.9</ele>
        <time>2021-09-12T13:53:47Z</time>
      </trkpt>
      <trkpt lat="43.94129" lon="6.5042">
        <ele>1088.2</ele>
        <time>2021-09-12T13:53:49Z</time>
      </trkpt>
      <trkpt lat="43.94126" lon="6.50419">
        <ele>1088.4</ele>
        <time>2021-09-12T13:53:50Z</time>
      </trkpt>
      <trkpt lat="43.94122" lon="6.50417">
        <ele>1088.7</ele>
        <time>2021-09-12T13:53:53Z</time>
      </trkpt>
      <trkpt lat="43.94119" lon="6.50415">
        <ele>1088.9</ele>
        <time>2021-09-12T13:53:54Z</time>
      </trkpt>
      <trkpt lat="43.94117" lon="6.50413">
        <ele>1089</ele>
        <time>2021-09-12T13:53:55Z</time>
      </trkpt>
      <trkpt lat="43.94113" lon="6.5041">
        <ele>1089.3</ele>
        <time>2021-09-12T13:53:57Z</time>
      </trkpt>
      <trkpt lat="43.9411" lon="6.50407">
        <ele>1089.5</ele>
        <time>2021-09-12T13:53:59Z</time>
      </trkpt>
      <trkpt lat="43.94108" lon="6.50405">
        <ele>1089.7</ele>
        <time>2021-09-12T13:54:01Z</time>
      </trkpt>
      <trkpt lat="43.94106" lon="6.50402">
        <ele>1089.8</ele>
        <time>2021-09-12T13:54:02Z</time>
      </trkpt>
      <trkpt lat="43.94104" lon="6.50399">
        <ele>1090</ele>
        <time>2021-09-12T13:54:04Z</time>
      </trkpt>
      <trkpt lat="43.94103" lon="6.50397">
        <ele>1090.2</ele>
        <time>2021-09-12T13:54:05Z</time>
      </trkpt>
      <trkpt lat="43.94101" lon="6.50395">
        <ele>1090.3</ele>
        <time>2021-09-12T13:54:06Z</time>
      </trkpt>
      <trkpt lat="43.94097" lon="6.50392">
        <ele>1090.6</ele>
        <time>2021-09-12T13:54:08Z</time>
      </trkpt>
      <trkpt lat="43.94096" lon="6.50391">
        <ele>1090.7</ele>
        <time>2021-09-12T13:54:09Z</time>
      </trkpt>
      <trkpt lat="43.94094" lon="6.50388">
        <ele>1090.8</ele>
        <time>2021-09-12T13:54:10Z</time>
      </trkpt>
      <trkpt lat="43.94092" lon="6.50387">
        <ele>1090.9</ele>
        <time>2021-09-12T13:54:11Z</time>
      </trkpt>
      <trkpt lat="43.9409" lon="6.50385">
        <ele>1091.1</ele>
        <time>2021-09-12T13:54:12Z</time>
      </trkpt>
      <trkpt lat="43.94087" lon="6.50382">
        <ele>1091.3</ele>
        <time>2021-09-12T13:54:14Z</time>
      </trkpt>
      <trkpt lat="43.94085" lon="6.5038">
        <ele>1091.4</ele>
        <time>2021-09-12T13:54:15Z</time>
      </trkpt>
      <trkpt lat="43.94084" lon="6.50379">
        <ele>1091.5</ele>
        <time>2021-09-12T13:54:16Z</time>
      </trkpt>
      <trkpt lat="43.94083" lon="6.50375">
        <ele>1091.7</ele>
        <time>2021-09-12T13:54:17Z</time>
      </trkpt>
      <trkpt lat="43.94082" lon="6.50373">
        <ele>1091.8</ele>
        <time>2021-09-12T13:54:18Z</time>
      </trkpt>
      <trkpt lat="43.94081" lon="6.50372">
        <ele>1091.9</ele>
        <time>2021-09-12T13:54:19Z</time>
      </trkpt>
      <trkpt lat="43.94079" lon="6.50371">
        <ele>1092</ele>
        <time>2021-09-12T13:54:20Z</time>
      </trkpt>
      <trkpt lat="43.94077" lon="6.5037">
        <ele>1092.1</ele>
        <time>2021-09-12T13:54:21Z</time>
      </trkpt>
      <trkpt lat="43.94074" lon="6.50368">
        <ele>1092.3</ele>
        <time>2021-09-12T13:54:22Z</time>
      </trkpt>
      <trkpt lat="43.94071" lon="6.50366">
        <ele>1092.5</ele>
        <time>2021-09-12T13:54:24Z</time>
      </trkpt>
      <trkpt lat="43.94068" lon="6.50366">
        <ele>1092.7</ele>
        <time>2021-09-12T13:54:25Z</time>
      </trkpt>
      <trkpt lat="43.94064" lon="6.50364">
        <ele>1092.9</ele>
        <time>2021-09-12T13:54:27Z</time>
      </trkpt>
      <trkpt lat="43.94062" lon="6.50364">
        <ele>1093</ele>
        <time>2021-09-12T13:54:28Z</time>
      </trkpt>
      <trkpt lat="43.9406" lon="6.50364">
        <ele>1093.1</ele>
        <time>2021-09-12T13:54:29Z</time>
      </trkpt>
      <trkpt lat="43.94057" lon="6.50364">
        <ele>1093.3</ele>
        <time>2021-09-12T13:54:30Z</time>
      </trkpt>
      <trkpt lat="43.94054" lon="6.50364">
        <ele>1093.5</ele>
        <time>2021-09-12T13:54:32Z</time>
      </trkpt>
      <trkpt lat="43.94051" lon="6.50364">
        <ele>1093.6</ele>
        <time>2021-09-12T13:54:33Z</time>
      </trkpt>
      <trkpt lat="43.94049" lon="6.50364">
        <ele>1093.8</ele>
        <time>2021-09-12T13:54:34Z</time>
      </trkpt>
      <trkpt lat="43.94045" lon="6.50363">
        <ele>1094</ele>
        <time>2021-09-12T13:54:35Z</time>
      </trkpt>
      <trkpt lat="43.94044" lon="6.50362">
        <ele>1094.1</ele>
        <time>2021-09-12T13:54:36Z</time>
      </trkpt>
      <trkpt lat="43.94042" lon="6.50361">
        <ele>1094.3</ele>
        <time>2021-09-12T13:54:37Z</time>
      </trkpt>
      <trkpt lat="43.94039" lon="6.5036">
        <ele>1094.5</ele>
        <time>2021-09-12T13:54:39Z</time>
      </trkpt>
      <trkpt lat="43.94036" lon="6.50358">
        <ele>1094.7</ele>
        <time>2021-09-12T13:54:40Z</time>
      </trkpt>
      <trkpt lat="43.94034" lon="6.50358">
        <ele>1094.9</ele>
        <time>2021-09-12T13:54:42Z</time>
      </trkpt>
      <trkpt lat="43.9403" lon="6.50357">
        <ele>1095.1</ele>
        <time>2021-09-12T13:54:43Z</time>
      </trkpt>
      <trkpt lat="43.94028" lon="6.50357">
        <ele>1095.3</ele>
        <time>2021-09-12T13:54:44Z</time>
      </trkpt>
      <trkpt lat="43.94025" lon="6.50356">
        <ele>1095.5</ele>
        <time>2021-09-12T13:54:46Z</time>
      </trkpt>
      <trkpt lat="43.94024" lon="6.50356">
        <ele>1095.6</ele>
        <time>2021-09-12T13:54:47Z</time>
      </trkpt>
      <trkpt lat="43.94022" lon="6.50356">
        <ele>1095.7</ele>
        <time>2021-09-12T13:54:48Z</time>
      </trkpt>
      <trkpt lat="43.9402" lon="6.50355">
        <ele>1095.9</ele>
        <time>2021-09-12T13:54:49Z</time>
      </trkpt>
      <trkpt lat="43.94018" lon="6.50352">
        <ele>1096.1</ele>
        <time>2021-09-12T13:54:50Z</time>
      </trkpt>
      <trkpt lat="43.94016" lon="6.5035">
        <ele>1096.3</ele>
        <time>2021-09-12T13:54:52Z</time>
      </trkpt>
      <trkpt lat="43.94015" lon="6.50349">
        <ele>1096.4</ele>
        <time>2021-09-12T13:54:53Z</time>
      </trkpt>
      <trkpt lat="43.94014" lon="6.50348">
        <ele>1096.5</ele>
        <time>2021-09-12T13:54:54Z</time>
      </trkpt>
      <trkpt lat="43.94012" lon="6.50347">
        <ele>1096.6</ele>
        <time>2021-09-12T13:54:55Z</time>
      </trkpt>
      <trkpt lat="43.9401" lon="6.50346">
        <ele>1096.8</ele>
        <time>2021-09-12T13:54:56Z</time>
      </trkpt>
      <trkpt lat="43.94007" lon="6.50346">
        <ele>1097.1</ele>
        <time>2021-09-12T13:54:58Z</time>
      </trkpt>
      <trkpt lat="43.94003" lon="6.50345">
        <ele>1097.4</ele>
        <time>2021-09-12T13:55:00Z</time>
      </trkpt>
      <trkpt lat="43.94002" lon="6.50345">
        <ele>1097.5</ele>
        <time>2021-09-12T13:55:01Z</time>
      </trkpt>
      <trkpt lat="43.93999" lon="6.50343">
        <ele>1097.7</ele>
        <time>2021-09-12T13:55:03Z</time>
      </trkpt>
      <trkpt lat="43.93996" lon="6.50343">
        <ele>1098</ele>
        <time>2021-09-12T13:55:05Z</time>
      </trkpt>
      <trkpt lat="43.93994" lon="6.50343">
        <ele>1098.2</ele>
        <time>2021-09-12T13:55:06Z</time>
      </trkpt>
      <trkpt lat="43.93992" lon="6.50342">
        <ele>1098.4</ele>
        <time>2021-09-12T13:55:08Z</time>
      </trkpt>
      <trkpt lat="43.9399" lon="6.50342">
        <ele>1098.5</ele>
        <time>2021-09-12T13:55:09Z</time>
      </trkpt>
      <trkpt lat="43.93989" lon="6.50342">
        <ele>1098.6</ele>
        <time>2021-09-12T13:55:10Z</time>
      </trkpt>
      <trkpt lat="43.93987" lon="6.50342">
        <ele>1098.8</ele>
        <time>2021-09-12T13:55:11Z</time>
      </trkpt>
      <trkpt lat="43.93986" lon="6.50341">
        <ele>1098.9</ele>
        <time>2021-09-12T13:55:12Z</time>
      </trkpt>
      <trkpt lat="43.93985" lon="6.50341">
        <ele>1099</ele>
        <time>2021-09-12T13:55:13Z</time>
      </trkpt>
      <trkpt lat="43.93983" lon="6.50341">
        <ele>1099.1</ele>
        <time>2021-09-12T13:55:15Z</time>
      </trkpt>
      <trkpt lat="43.93979" lon="6.5034">
        <ele>1099.4</ele>
        <time>2021-09-12T13:55:17Z</time>
      </trkpt>
      <trkpt lat="43.93978" lon="6.5034">
        <ele>1099.5</ele>
        <time>2021-09-12T13:55:18Z</time>
      </trkpt>
      <trkpt lat="43.93977" lon="6.50339">
        <ele>1099.5</ele>
        <time>2021-09-12T13:55:19Z</time>
      </trkpt>
      <trkpt lat="43.93976" lon="6.50339">
        <ele>1099.6</ele>
        <time>2021-09-12T13:55:20Z</time>
      </trkpt>
      <trkpt lat="43.93974" lon="6.50338">
        <ele>1099.8</ele>
        <time>2021-09-12T13:55:21Z</time>
      </trkpt>
      <trkpt lat="43.93972" lon="6.50337">
        <ele>1099.9</ele>
        <time>2021-09-12T13:55:22Z</time>
      </trkpt>
      <trkpt lat="43.93971" lon="6.50336">
        <ele>1100</ele>
        <time>2021-09-12T13:55:23Z</time>
      </trkpt>
      <trkpt lat="43.93969" lon="6.50335">
        <ele>1100.2</ele>
        <time>2021-09-12T13:55:24Z</time>
      </trkpt>
      <trkpt lat="43.93968" lon="6.50334">
        <ele>1100.3</ele>
        <time>2021-09-12T13:55:25Z</time>
      </trkpt>
      <trkpt lat="43.93964" lon="6.50331">
        <ele>1100.6</ele>
        <time>2021-09-12T13:55:27Z</time>
      </trkpt>
      <trkpt lat="43.93962" lon="6.5033">
        <ele>1100.7</ele>
        <time>2021-09-12T13:55:28Z</time>
      </trkpt>
      <trkpt lat="43.9396" lon="6.50327">
        <ele>1100.9</ele>
        <time>2021-09-12T13:55:30Z</time>
      </trkpt>
      <trkpt lat="43.93958" lon="6.50326">
        <ele>1101</ele>
        <time>2021-09-12T13:55:31Z</time>
      </trkpt>
      <trkpt lat="43.93955" lon="6.50323">
        <ele>1101.3</ele>
        <time>2021-09-12T13:55:33Z</time>
      </trkpt>
      <trkpt lat="43.93954" lon="6.50322">
        <ele>1101.3</ele>
        <time>2021-09-12T13:55:34Z</time>
      </trkpt>
      <trkpt lat="43.93953" lon="6.50321">
        <ele>1101.4</ele>
        <time>2021-09-12T13:55:35Z</time>
      </trkpt>
      <trkpt lat="43.9395" lon="6.50316">
        <ele>1101.7</ele>
        <time>2021-09-12T13:55:37Z</time>
      </trkpt>
      <trkpt lat="43.93949" lon="6.50313">
        <ele>1101.8</ele>
        <time>2021-09-12T13:55:38Z</time>
      </trkpt>
      <trkpt lat="43.93947" lon="6.5031">
        <ele>1102</ele>
        <time>2021-09-12T13:55:40Z</time>
      </trkpt>
      <trkpt lat="43.93949" lon="6.50308">
        <ele>1102.1</ele>
        <time>2021-09-12T13:55:41Z</time>
      </trkpt>
      <trkpt lat="43.93952" lon="6.50306">
        <ele>1102.3</ele>
        <time>2021-09-12T13:55:43Z</time>
      </trkpt>
      <trkpt lat="43.93954" lon="6.50305">
        <ele>1102.4</ele>
        <time>2021-09-12T13:55:44Z</time>
      </trkpt>
      <trkpt lat="43.93956" lon="6.50306">
        <ele>1102.5</ele>
        <time>2021-09-12T13:55:45Z</time>
      </trkpt>
      <trkpt lat="43.93957" lon="6.50306">
        <ele>1102.6</ele>
        <time>2021-09-12T13:55:46Z</time>
      </trkpt>
      <trkpt lat="43.93959" lon="6.50307">
        <ele>1103.9</ele>
        <time>2021-09-12T13:55:47Z</time>
      </trkpt>
      <trkpt lat="43.93962" lon="6.50311">
        <ele>1104.2</ele>
        <time>2021-09-12T13:55:49Z</time>
      </trkpt>
      <trkpt lat="43.93964" lon="6.50312">
        <ele>1104.3</ele>
        <time>2021-09-12T13:55:51Z</time>
      </trkpt>
      <trkpt lat="43.93965" lon="6.50314">
        <ele>1104.4</ele>
        <time>2021-09-12T13:55:52Z</time>
      </trkpt>
      <trkpt lat="43.93967" lon="6.50317">
        <ele>1104.6</ele>
        <time>2021-09-12T13:55:54Z</time>
      </trkpt>
      <trkpt lat="43.93967" lon="6.50318">
        <ele>1104.7</ele>
        <time>2021-09-12T13:55:55Z</time>
      </trkpt>
      <trkpt lat="43.9397" lon="6.5032">
        <ele>1105</ele>
        <time>2021-09-12T13:55:58Z</time>
      </trkpt>
      <trkpt lat="43.93973" lon="6.50323">
        <ele>1105.2</ele>
        <time>2021-09-12T13:56:00Z</time>
      </trkpt>
      <trkpt lat="43.93974" lon="6.50324">
        <ele>1105.3</ele>
        <time>2021-09-12T13:56:02Z</time>
      </trkpt>
      <trkpt lat="43.93976" lon="6.50325">
        <ele>1105.4</ele>
        <time>2021-09-12T13:56:03Z</time>
      </trkpt>
      <trkpt lat="43.9398" lon="6.50326">
        <ele>1105.7</ele>
        <time>2021-09-12T13:56:06Z</time>
      </trkpt>
      <trkpt lat="43.93982" lon="6.50326">
        <ele>1105.9</ele>
        <time>2021-09-12T13:56:08Z</time>
      </trkpt>
      <trkpt lat="43.93985" lon="6.50326">
        <ele>1106.1</ele>
        <time>2021-09-12T13:56:09Z</time>
      </trkpt>
      <trkpt lat="43.93987" lon="6.50326">
        <ele>1106.2</ele>
        <time>2021-09-12T13:56:11Z</time>
      </trkpt>
      <trkpt lat="43.9399" lon="6.50326">
        <ele>1106.4</ele>
        <time>2021-09-12T13:56:12Z</time>
      </trkpt>
      <trkpt lat="43.93992" lon="6.50326">
        <ele>1106.6</ele>
        <time>2021-09-12T13:56:14Z</time>
      </trkpt>
      <trkpt lat="43.93994" lon="6.50325">
        <ele>1106.7</ele>
        <time>2021-09-12T13:56:15Z</time>
      </trkpt>
      <trkpt lat="43.93996" lon="6.50323">
        <ele>1106.9</ele>
        <time>2021-09-12T13:56:16Z</time>
      </trkpt>
      <trkpt lat="43.93999" lon="6.50321">
        <ele>1107.1</ele>
        <time>2021-09-12T13:56:18Z</time>
      </trkpt>
      <trkpt lat="43.94" lon="6.50319">
        <ele>1107.2</ele>
        <time>2021-09-12T13:56:19Z</time>
      </trkpt>
      <trkpt lat="43.94002" lon="6.50318">
        <ele>1107.3</ele>
        <time>2021-09-12T13:56:20Z</time>
      </trkpt>
      <trkpt lat="43.94003" lon="6.50317">
        <ele>1107.3</ele>
        <time>2021-09-12T13:56:21Z</time>
      </trkpt>
      <trkpt lat="43.94005" lon="6.50314">
        <ele>1107.5</ele>
        <time>2021-09-12T13:56:22Z</time>
      </trkpt>
      <trkpt lat="43.94007" lon="6.50312">
        <ele>1107.7</ele>
        <time>2021-09-12T13:56:24Z</time>
      </trkpt>
      <trkpt lat="43.94009" lon="6.5031">
        <ele>1107.8</ele>
        <time>2021-09-12T13:56:25Z</time>
      </trkpt>
      <trkpt lat="43.94011" lon="6.50306">
        <ele>1108</ele>
        <time>2021-09-12T13:56:27Z</time>
      </trkpt>
      <trkpt lat="43.94013" lon="6.50303">
        <ele>1108.2</ele>
        <time>2021-09-12T13:56:28Z</time>
      </trkpt>
      <trkpt lat="43.94014" lon="6.503">
        <ele>1108.3</ele>
        <time>2021-09-12T13:56:29Z</time>
      </trkpt>
      <trkpt lat="43.94016" lon="6.50295">
        <ele>1108.6</ele>
        <time>2021-09-12T13:56:31Z</time>
      </trkpt>
      <trkpt lat="43.94017" lon="6.50293">
        <ele>1108.7</ele>
        <time>2021-09-12T13:56:32Z</time>
      </trkpt>
      <trkpt lat="43.94019" lon="6.5029">
        <ele>1108.9</ele>
        <time>2021-09-12T13:56:34Z</time>
      </trkpt>
      <trkpt lat="43.94021" lon="6.50288">
        <ele>1109</ele>
        <time>2021-09-12T13:56:35Z</time>
      </trkpt>
      <trkpt lat="43.94022" lon="6.50285">
        <ele>1109.2</ele>
        <time>2021-09-12T13:56:36Z</time>
      </trkpt>
      <trkpt lat="43.94025" lon="6.50279">
        <ele>1109.5</ele>
        <time>2021-09-12T13:56:38Z</time>
      </trkpt>
      <trkpt lat="43.94027" lon="6.50277">
        <ele>1109.7</ele>
        <time>2021-09-12T13:56:39Z</time>
      </trkpt>
      <trkpt lat="43.94027" lon="6.50273">
        <ele>1109.8</ele>
        <time>2021-09-12T13:56:41Z</time>
      </trkpt>
      <trkpt lat="43.94027" lon="6.50269">
        <ele>1110.1</ele>
        <time>2021-09-12T13:56:42Z</time>
      </trkpt>
      <trkpt lat="43.94028" lon="6.50268">
        <ele>1110.1</ele>
        <time>2021-09-12T13:56:43Z</time>
      </trkpt>
      <trkpt lat="43.94029" lon="6.50264">
        <ele>1110.3</ele>
        <time>2021-09-12T13:56:44Z</time>
      </trkpt>
      <trkpt lat="43.9403" lon="6.50261">
        <ele>1110.5</ele>
        <time>2021-09-12T13:56:46Z</time>
      </trkpt>
      <trkpt lat="43.94032" lon="6.50258">
        <ele>1110.7</ele>
        <time>2021-09-12T13:56:47Z</time>
      </trkpt>
      <trkpt lat="43.94033" lon="6.50256">
        <ele>1110.8</ele>
        <time>2021-09-12T13:56:48Z</time>
      </trkpt>
      <trkpt lat="43.94034" lon="6.50253">
        <ele>1111</ele>
        <time>2021-09-12T13:56:50Z</time>
      </trkpt>
      <trkpt lat="43.94036" lon="6.50249">
        <ele>1111.2</ele>
        <time>2021-09-12T13:56:51Z</time>
      </trkpt>
      <trkpt lat="43.94036" lon="6.50248">
        <ele>1111.2</ele>
        <time>2021-09-12T13:56:52Z</time>
      </trkpt>
      <trkpt lat="43.94037" lon="6.50246">
        <ele>1111.3</ele>
        <time>2021-09-12T13:56:53Z</time>
      </trkpt>
      <trkpt lat="43.94037" lon="6.50243">
        <ele>1111.4</ele>
        <time>2021-09-12T13:56:54Z</time>
      </trkpt>
      <trkpt lat="43.94038" lon="6.50238">
        <ele>1111.7</ele>
        <time>2021-09-12T13:56:56Z</time>
      </trkpt>
      <trkpt lat="43.94038" lon="6.50232">
        <ele>1112</ele>
        <time>2021-09-12T13:56:58Z</time>
      </trkpt>
      <trkpt lat="43.94038" lon="6.50231">
        <ele>1112.1</ele>
        <time>2021-09-12T13:56:59Z</time>
      </trkpt>
      <trkpt lat="43.94038" lon="6.50229">
        <ele>1112.2</ele>
        <time>2021-09-12T13:57:00Z</time>
      </trkpt>
      <trkpt lat="43.94035" lon="6.50224">
        <ele>1112.5</ele>
        <time>2021-09-12T13:57:02Z</time>
      </trkpt>
      <trkpt lat="43.94034" lon="6.50222">
        <ele>1112.6</ele>
        <time>2021-09-12T13:57:03Z</time>
      </trkpt>
      <trkpt lat="43.94033" lon="6.50221">
        <ele>1112.7</ele>
        <time>2021-09-12T13:57:04Z</time>
      </trkpt>
      <trkpt lat="43.94031" lon="6.50219">
        <ele>1112.8</ele>
        <time>2021-09-12T13:57:05Z</time>
      </trkpt>
      <trkpt lat="43.94029" lon="6.50218">
        <ele>1113.1</ele>
        <time>2021-09-12T13:57:07Z</time>
      </trkpt>
      <trkpt lat="43.94025" lon="6.50218">
        <ele>1113.3</ele>
        <time>2021-09-12T13:57:09Z</time>
      </trkpt>
      <trkpt lat="43.94024" lon="6.50217">
        <ele>1113.4</ele>
        <time>2021-09-12T13:57:10Z</time>
      </trkpt>
      <trkpt lat="43.94021" lon="6.50218">
        <ele>1113.6</ele>
        <time>2021-09-12T13:57:12Z</time>
      </trkpt>
      <trkpt lat="43.94018" lon="6.50219">
        <ele>1113.8</ele>
        <time>2021-09-12T13:57:13Z</time>
      </trkpt>
      <trkpt lat="43.94014" lon="6.50221">
        <ele>1114</ele>
        <time>2021-09-12T13:57:15Z</time>
      </trkpt>
      <trkpt lat="43.94013" lon="6.50222">
        <ele>1114.1</ele>
        <time>2021-09-12T13:57:16Z</time>
      </trkpt>
      <trkpt lat="43.94011" lon="6.50224">
        <ele>1114.3</ele>
        <time>2021-09-12T13:57:17Z</time>
      </trkpt>
      <trkpt lat="43.94009" lon="6.50226">
        <ele>1114.5</ele>
        <time>2021-09-12T13:57:19Z</time>
      </trkpt>
      <trkpt lat="43.94005" lon="6.50228">
        <ele>1114.8</ele>
        <time>2021-09-12T13:57:21Z</time>
      </trkpt>
      <trkpt lat="43.94002" lon="6.50228">
        <ele>1114.9</ele>
        <time>2021-09-12T13:57:23Z</time>
      </trkpt>
      <trkpt lat="43.93999" lon="6.5023">
        <ele>1115.1</ele>
        <time>2021-09-12T13:57:24Z</time>
      </trkpt>
      <trkpt lat="43.93996" lon="6.50233">
        <ele>1115.3</ele>
        <time>2021-09-12T13:57:26Z</time>
      </trkpt>
      <trkpt lat="43.93994" lon="6.50234">
        <ele>1115.4</ele>
        <time>2021-09-12T13:57:27Z</time>
      </trkpt>
      <trkpt lat="43.93993" lon="6.50236">
        <ele>1115.5</ele>
        <time>2021-09-12T13:57:28Z</time>
      </trkpt>
      <trkpt lat="43.93991" lon="6.50237">
        <ele>1115.6</ele>
        <time>2021-09-12T13:57:29Z</time>
      </trkpt>
      <trkpt lat="43.93989" lon="6.50239">
        <ele>1115.7</ele>
        <time>2021-09-12T13:57:30Z</time>
      </trkpt>
      <trkpt lat="43.93985" lon="6.50242">
        <ele>1116</ele>
        <time>2021-09-12T13:57:32Z</time>
      </trkpt>
      <trkpt lat="43.93981" lon="6.50244">
        <ele>1116.2</ele>
        <time>2021-09-12T13:57:34Z</time>
      </trkpt>
      <trkpt lat="43.93978" lon="6.50243">
        <ele>1116.4</ele>
        <time>2021-09-12T13:57:35Z</time>
      </trkpt>
      <trkpt lat="43.93975" lon="6.5024">
        <ele>1116.5</ele>
        <time>2021-09-12T13:57:37Z</time>
      </trkpt>
      <trkpt lat="43.93974" lon="6.50235">
        <ele>1116.7</ele>
        <time>2021-09-12T13:57:39Z</time>
      </trkpt>
      <trkpt lat="43.93972" lon="6.5023">
        <ele>1116.9</ele>
        <time>2021-09-12T13:57:41Z</time>
      </trkpt>
      <trkpt lat="43.93974" lon="6.50228">
        <ele>1117</ele>
        <time>2021-09-12T13:57:42Z</time>
      </trkpt>
      <trkpt lat="43.93973" lon="6.50226">
        <ele>1117.1</ele>
        <time>2021-09-12T13:57:43Z</time>
      </trkpt>
      <trkpt lat="43.93973" lon="6.50221">
        <ele>1117.2</ele>
        <time>2021-09-12T13:57:44Z</time>
      </trkpt>
      <trkpt lat="43.93973" lon="6.50219">
        <ele>1117.3</ele>
        <time>2021-09-12T13:57:45Z</time>
      </trkpt>
      <trkpt lat="43.93975" lon="6.50216">
        <ele>1117.5</ele>
        <time>2021-09-12T13:57:46Z</time>
      </trkpt>
      <trkpt lat="43.93976" lon="6.50215">
        <ele>1117.5</ele>
        <time>2021-09-12T13:57:47Z</time>
      </trkpt>
      <trkpt lat="43.93978" lon="6.50213">
        <ele>1117.6</ele>
        <time>2021-09-12T13:57:48Z</time>
      </trkpt>
      <trkpt lat="43.93982" lon="6.50209">
        <ele>1117.9</ele>
        <time>2021-09-12T13:57:50Z</time>
      </trkpt>
      <trkpt lat="43.93984" lon="6.50208">
        <ele>1118</ele>
        <time>2021-09-12T13:57:51Z</time>
      </trkpt>
      <trkpt lat="43.93987" lon="6.50206">
        <ele>1118.3</ele>
        <time>2021-09-12T13:57:52Z</time>
      </trkpt>
      <trkpt lat="43.9399" lon="6.50203">
        <ele>1118.5</ele>
        <time>2021-09-12T13:57:53Z</time>
      </trkpt>
      <trkpt lat="43.93992" lon="6.50202">
        <ele>1118.6</ele>
        <time>2021-09-12T13:57:54Z</time>
      </trkpt>
      <trkpt lat="43.93995" lon="6.50199">
        <ele>1119.1</ele>
        <time>2021-09-12T13:57:56Z</time>
      </trkpt>
      <trkpt lat="43.93999" lon="6.50196">
        <ele>1119.5</ele>
        <time>2021-09-12T13:57:58Z</time>
      </trkpt>
      <trkpt lat="43.94003" lon="6.50193">
        <ele>1119.9</ele>
        <time>2021-09-12T13:58:00Z</time>
      </trkpt>
      <trkpt lat="43.94004" lon="6.50191">
        <ele>1120</ele>
        <time>2021-09-12T13:58:01Z</time>
      </trkpt>
      <trkpt lat="43.94006" lon="6.50188">
        <ele>1120.3</ele>
        <time>2021-09-12T13:58:03Z</time>
      </trkpt>
      <trkpt lat="43.94008" lon="6.50186">
        <ele>1120.5</ele>
        <time>2021-09-12T13:58:05Z</time>
      </trkpt>
      <trkpt lat="43.94008" lon="6.50184">
        <ele>1120.6</ele>
        <time>2021-09-12T13:58:06Z</time>
      </trkpt>
      <trkpt lat="43.94009" lon="6.50183">
        <ele>1120.7</ele>
        <time>2021-09-12T13:58:07Z</time>
      </trkpt>
      <trkpt lat="43.9401" lon="6.50181">
        <ele>1120.8</ele>
        <time>2021-09-12T13:58:08Z</time>
      </trkpt>
      <trkpt lat="43.94011" lon="6.50178">
        <ele>1121</ele>
        <time>2021-09-12T13:58:09Z</time>
      </trkpt>
      <trkpt lat="43.94012" lon="6.50177">
        <ele>1121.2</ele>
        <time>2021-09-12T13:58:10Z</time>
      </trkpt>
      <trkpt lat="43.94015" lon="6.50173">
        <ele>1121.5</ele>
        <time>2021-09-12T13:58:13Z</time>
      </trkpt>
      <trkpt lat="43.94015" lon="6.50172">
        <ele>1121.6</ele>
        <time>2021-09-12T13:58:14Z</time>
      </trkpt>
      <trkpt lat="43.94017" lon="6.50169">
        <ele>1121.8</ele>
        <time>2021-09-12T13:58:16Z</time>
      </trkpt>
      <trkpt lat="43.94019" lon="6.50166">
        <ele>1122</ele>
        <time>2021-09-12T13:58:18Z</time>
      </trkpt>
      <trkpt lat="43.94022" lon="6.50161">
        <ele>1122.4</ele>
        <time>2021-09-12T13:58:21Z</time>
      </trkpt>
      <trkpt lat="43.94023" lon="6.5016">
        <ele>1122.5</ele>
        <time>2021-09-12T13:58:22Z</time>
      </trkpt>
      <trkpt lat="43.94024" lon="6.50158">
        <ele>1122.7</ele>
        <time>2021-09-12T13:58:23Z</time>
      </trkpt>
      <trkpt lat="43.94027" lon="6.50154">
        <ele>1123</ele>
        <time>2021-09-12T13:58:26Z</time>
      </trkpt>
      <trkpt lat="43.94029" lon="6.50151">
        <ele>1123.2</ele>
        <time>2021-09-12T13:58:28Z</time>
      </trkpt>
      <trkpt lat="43.94029" lon="6.50149">
        <ele>1123.3</ele>
        <time>2021-09-12T13:58:29Z</time>
      </trkpt>
      <trkpt lat="43.94029" lon="6.50146">
        <ele>1123.5</ele>
        <time>2021-09-12T13:58:30Z</time>
      </trkpt>
      <trkpt lat="43.94029" lon="6.50143">
        <ele>1123.6</ele>
        <time>2021-09-12T13:58:32Z</time>
      </trkpt>
      <trkpt lat="43.9403" lon="6.50139">
        <ele>1123.9</ele>
        <time>2021-09-12T13:58:34Z</time>
      </trkpt>
      <trkpt lat="43.94029" lon="6.50136">
        <ele>1124.1</ele>
        <time>2021-09-12T13:58:36Z</time>
      </trkpt>
      <trkpt lat="43.94027" lon="6.50133">
        <ele>1124.3</ele>
        <time>2021-09-12T13:58:38Z</time>
      </trkpt>
      <trkpt lat="43.94025" lon="6.50132">
        <ele>1124.4</ele>
        <time>2021-09-12T13:58:39Z</time>
      </trkpt>
      <trkpt lat="43.94024" lon="6.50131">
        <ele>1124.5</ele>
        <time>2021-09-12T13:58:40Z</time>
      </trkpt>
      <trkpt lat="43.94022" lon="6.5013">
        <ele>1124.7</ele>
        <time>2021-09-12T13:58:41Z</time>
      </trkpt>
      <trkpt lat="43.94021" lon="6.50131">
        <ele>1124.8</ele>
        <time>2021-09-12T13:58:42Z</time>
      </trkpt>
      <trkpt lat="43.94019" lon="6.50131">
        <ele>1124.9</ele>
        <time>2021-09-12T13:58:43Z</time>
      </trkpt>
      <trkpt lat="43.94017" lon="6.50133">
        <ele>1125.1</ele>
        <time>2021-09-12T13:58:45Z</time>
      </trkpt>
      <trkpt lat="43.94015" lon="6.50134">
        <ele>1125.2</ele>
        <time>2021-09-12T13:58:46Z</time>
      </trkpt>
      <trkpt lat="43.94013" lon="6.50135">
        <ele>1125.4</ele>
        <time>2021-09-12T13:58:47Z</time>
      </trkpt>
      <trkpt lat="43.94011" lon="6.50138">
        <ele>1125.7</ele>
        <time>2021-09-12T13:58:49Z</time>
      </trkpt>
      <trkpt lat="43.9401" lon="6.50139">
        <ele>1125.7</ele>
        <time>2021-09-12T13:58:50Z</time>
      </trkpt>
      <trkpt lat="43.94007" lon="6.50144">
        <ele>1126.1</ele>
        <time>2021-09-12T13:58:52Z</time>
      </trkpt>
      <trkpt lat="43.94006" lon="6.50145">
        <ele>1126.2</ele>
        <time>2021-09-12T13:58:53Z</time>
      </trkpt>
      <trkpt lat="43.94006" lon="6.50147">
        <ele>1126.3</ele>
        <time>2021-09-12T13:58:54Z</time>
      </trkpt>
      <trkpt lat="43.94004" lon="6.50152">
        <ele>1126.6</ele>
        <time>2021-09-12T13:58:56Z</time>
      </trkpt>
      <trkpt lat="43.94003" lon="6.50154">
        <ele>1126.7</ele>
        <time>2021-09-12T13:58:58Z</time>
      </trkpt>
      <trkpt lat="43.94002" lon="6.50157">
        <ele>1126.9</ele>
        <time>2021-09-12T13:58:59Z</time>
      </trkpt>
      <trkpt lat="43.94" lon="6.50159">
        <ele>1127.1</ele>
        <time>2021-09-12T13:59:01Z</time>
      </trkpt>
      <trkpt lat="43.93999" lon="6.5016">
        <ele>1127.2</ele>
        <time>2021-09-12T13:59:02Z</time>
      </trkpt>
      <trkpt lat="43.93997" lon="6.50161">
        <ele>1127.3</ele>
        <time>2021-09-12T13:59:03Z</time>
      </trkpt>
      <trkpt lat="43.93996" lon="6.50162">
        <ele>1127.4</ele>
        <time>2021-09-12T13:59:04Z</time>
      </trkpt>
      <trkpt lat="43.93993" lon="6.50164">
        <ele>1127.7</ele>
        <time>2021-09-12T13:59:05Z</time>
      </trkpt>
      <trkpt lat="43.93991" lon="6.50165">
        <ele>1127.9</ele>
        <time>2021-09-12T13:59:07Z</time>
      </trkpt>
      <trkpt lat="43.9399" lon="6.50166">
        <ele>1128</ele>
        <time>2021-09-12T13:59:08Z</time>
      </trkpt>
      <trkpt lat="43.93988" lon="6.50165">
        <ele>1128.1</ele>
        <time>2021-09-12T13:59:09Z</time>
      </trkpt>
      <trkpt lat="43.93986" lon="6.50165">
        <ele>1128.3</ele>
        <time>2021-09-12T13:59:10Z</time>
      </trkpt>
      <trkpt lat="43.93985" lon="6.50164">
        <ele>1128.4</ele>
        <time>2021-09-12T13:59:11Z</time>
      </trkpt>
      <trkpt lat="43.93982" lon="6.50164">
        <ele>1128.6</ele>
        <time>2021-09-12T13:59:13Z</time>
      </trkpt>
      <trkpt lat="43.93981" lon="6.50164">
        <ele>1128.7</ele>
        <time>2021-09-12T13:59:14Z</time>
      </trkpt>
      <trkpt lat="43.93981" lon="6.50162">
        <ele>1128.8</ele>
        <time>2021-09-12T13:59:15Z</time>
      </trkpt>
      <trkpt lat="43.9398" lon="6.50162">
        <ele>1128.9</ele>
        <time>2021-09-12T13:59:16Z</time>
      </trkpt>
      <trkpt lat="43.93979" lon="6.50161">
        <ele>1129</ele>
        <time>2021-09-12T13:59:17Z</time>
      </trkpt>
      <trkpt lat="43.93984" lon="6.50159">
        <ele>1129.4</ele>
        <time>2021-09-12T13:59:20Z</time>
      </trkpt>
      <trkpt lat="43.93986" lon="6.50157">
        <ele>1129.6</ele>
        <time>2021-09-12T13:59:22Z</time>
      </trkpt>
      <trkpt lat="43.93985" lon="6.50156">
        <ele>1129.7</ele>
        <time>2021-09-12T13:59:23Z</time>
      </trkpt>
      <trkpt lat="43.93983" lon="6.50156">
        <ele>1129.8</ele>
        <time>2021-09-12T13:59:24Z</time>
      </trkpt>
      <trkpt lat="43.9398" lon="6.50156">
        <ele>1130</ele>
        <time>2021-09-12T13:59:26Z</time>
      </trkpt>
      <trkpt lat="43.93976" lon="6.50156">
        <ele>1130.4</ele>
        <time>2021-09-12T13:59:28Z</time>
      </trkpt>
      <trkpt lat="43.93972" lon="6.50156">
        <ele>1130.7</ele>
        <time>2021-09-12T13:59:31Z</time>
      </trkpt>
      <trkpt lat="43.9397" lon="6.50157">
        <ele>1130.8</ele>
        <time>2021-09-12T13:59:33Z</time>
      </trkpt>
      <trkpt lat="43.93969" lon="6.50157">
        <ele>1131.5</ele>
        <time>2021-09-12T13:59:34Z</time>
      </trkpt>
      <trkpt lat="43.93966" lon="6.50158">
        <ele>1131.5</ele>
        <time>2021-09-12T13:59:36Z</time>
      </trkpt>
      <trkpt lat="43.93965" lon="6.5016">
        <ele>1131.4</ele>
        <time>2021-09-12T13:59:38Z</time>
      </trkpt>
      <trkpt lat="43.93991" lon="6.5013">
        <ele>1131.5</ele>
        <time>2021-09-12T14:00:06Z</time>
      </trkpt>
      <trkpt lat="43.93993" lon="6.50127">
        <ele>1132.4</ele>
        <time>2021-09-12T14:00:09Z</time>
      </trkpt>
      <trkpt lat="43.93994" lon="6.50125">
        <ele>1131.7</ele>
        <time>2021-09-12T14:00:10Z</time>
      </trkpt>
      <trkpt lat="43.93995" lon="6.50123">
        <ele>1132.6</ele>
        <time>2021-09-12T14:00:11Z</time>
      </trkpt>
      <trkpt lat="43.93996" lon="6.50121">
        <ele>1132.6</ele>
        <time>2021-09-12T14:00:12Z</time>
      </trkpt>
      <trkpt lat="43.93997" lon="6.50119">
        <ele>1132.7</ele>
        <time>2021-09-12T14:00:14Z</time>
      </trkpt>
      <trkpt lat="43.93998" lon="6.50115">
        <ele>1133.4</ele>
        <time>2021-09-12T14:00:16Z</time>
      </trkpt>
      <trkpt lat="43.93998" lon="6.50112">
        <ele>1134.2</ele>
        <time>2021-09-12T14:00:18Z</time>
      </trkpt>
      <trkpt lat="43.93998" lon="6.50111">
        <ele>1134.2</ele>
        <time>2021-09-12T14:00:19Z</time>
      </trkpt>
      <trkpt lat="43.93998" lon="6.50109">
        <ele>1134.3</ele>
        <time>2021-09-12T14:00:20Z</time>
      </trkpt>
      <trkpt lat="43.93997" lon="6.50108">
        <ele>1134.4</ele>
        <time>2021-09-12T14:00:21Z</time>
      </trkpt>
      <trkpt lat="43.93997" lon="6.50107">
        <ele>1135.1</ele>
        <time>2021-09-12T14:00:23Z</time>
      </trkpt>
      <trkpt lat="43.93994" lon="6.50104">
        <ele>1136</ele>
        <time>2021-09-12T14:00:32Z</time>
      </trkpt>
      <trkpt lat="43.93991" lon="6.50102">
        <ele>1137.5</ele>
        <time>2021-09-12T14:00:39Z</time>
      </trkpt>
      <trkpt lat="43.9399" lon="6.50102">
        <ele>1137.6</ele>
        <time>2021-09-12T14:00:40Z</time>
      </trkpt>
      <trkpt lat="43.93989" lon="6.50101">
        <ele>1138.4</ele>
        <time>2021-09-12T14:00:44Z</time>
      </trkpt>
      <trkpt lat="43.93987" lon="6.50102">
        <ele>1139.2</ele>
        <time>2021-09-12T14:00:50Z</time>
      </trkpt>
      <trkpt lat="43.93985" lon="6.50102">
        <ele>1139.3</ele>
        <time>2021-09-12T14:00:54Z</time>
      </trkpt>
      <trkpt lat="43.93982" lon="6.50101">
        <ele>1140</ele>
        <time>2021-09-12T14:01:01Z</time>
      </trkpt>
      <trkpt lat="43.9398" lon="6.501">
        <ele>1140.7</ele>
        <time>2021-09-12T14:01:06Z</time>
      </trkpt>
      <trkpt lat="43.93977" lon="6.50096">
        <ele>1142.1</ele>
        <time>2021-09-12T14:01:15Z</time>
      </trkpt>
      <trkpt lat="43.93977" lon="6.50095">
        <ele>1142.2</ele>
        <time>2021-09-12T14:01:17Z</time>
      </trkpt>
      <trkpt lat="43.93978" lon="6.50094">
        <ele>1142.2</ele>
        <time>2021-09-12T14:01:20Z</time>
      </trkpt>
      <trkpt lat="43.93978" lon="6.50093">
        <ele>1142.3</ele>
        <time>2021-09-12T14:01:21Z</time>
      </trkpt>
      <trkpt lat="43.93979" lon="6.50093">
        <ele>1142.4</ele>
        <time>2021-09-12T14:01:23Z</time>
      </trkpt>
      <trkpt lat="43.93982" lon="6.50092">
        <ele>1141.8</ele>
        <time>2021-09-12T14:01:27Z</time>
      </trkpt>
      <trkpt lat="43.93983" lon="6.5009">
        <ele>1142.5</ele>
        <time>2021-09-12T14:01:29Z</time>
      </trkpt>
      <trkpt lat="43.93983" lon="6.50089">
        <ele>1142.6</ele>
        <time>2021-09-12T14:01:30Z</time>
      </trkpt>
      <trkpt lat="43.93984" lon="6.50088">
        <ele>1142.6</ele>
        <time>2021-09-12T14:01:31Z</time>
      </trkpt>
      <trkpt lat="43.93984" lon="6.50086">
        <ele>1142.7</ele>
        <time>2021-09-12T14:01:32Z</time>
      </trkpt>
      <trkpt lat="43.93986" lon="6.50085">
        <ele>1142.8</ele>
        <time>2021-09-12T14:01:34Z</time>
      </trkpt>
      <trkpt lat="43.93987" lon="6.50086">
        <ele>1142.8</ele>
        <time>2021-09-12T14:01:35Z</time>
      </trkpt>
      <trkpt lat="43.93989" lon="6.50088">
        <ele>1141.5</ele>
        <time>2021-09-12T14:01:36Z</time>
      </trkpt>
      <trkpt lat="43.94002" lon="6.50072">
        <ele>1140.9</ele>
        <time>2021-09-12T14:01:41Z</time>
      </trkpt>
      <trkpt lat="43.94001" lon="6.50067">
        <ele>1141.5</ele>
        <time>2021-09-12T14:01:42Z</time>
      </trkpt>
      <trkpt lat="43.93999" lon="6.50058">
        <ele>1143.6</ele>
        <time>2021-09-12T14:01:43Z</time>
      </trkpt>
      <trkpt lat="43.93998" lon="6.50052">
        <ele>1144.2</ele>
        <time>2021-09-12T14:01:44Z</time>
      </trkpt>
      <trkpt lat="43.93997" lon="6.50048">
        <ele>1144.8</ele>
        <time>2021-09-12T14:01:45Z</time>
      </trkpt>
      <trkpt lat="43.93996" lon="6.50042">
        <ele>1146.7</ele>
        <time>2021-09-12T14:01:46Z</time>
      </trkpt>
      <trkpt lat="43.93995" lon="6.50038">
        <ele>1147.3</ele>
        <time>2021-09-12T14:01:47Z</time>
      </trkpt>
      <trkpt lat="43.93994" lon="6.50034">
        <ele>1147.9</ele>
        <time>2021-09-12T14:01:49Z</time>
      </trkpt>
      <trkpt lat="43.93992" lon="6.5003">
        <ele>1149.2</ele>
        <time>2021-09-12T14:01:52Z</time>
      </trkpt>
      <trkpt lat="43.93992" lon="6.50029">
        <ele>1149.3</ele>
        <time>2021-09-12T14:01:53Z</time>
      </trkpt>
      <trkpt lat="43.93991" lon="6.50025">
        <ele>1149.9</ele>
        <time>2021-09-12T14:02:00Z</time>
      </trkpt>
      <trkpt lat="43.93991" lon="6.50023">
        <ele>1149.9</ele>
        <time>2021-09-12T14:02:04Z</time>
      </trkpt>
      <trkpt lat="43.93991" lon="6.50021">
        <ele>1150.5</ele>
        <time>2021-09-12T14:02:07Z</time>
      </trkpt>
      <trkpt lat="43.93991" lon="6.50018">
        <ele>1150.5</ele>
        <time>2021-09-12T14:02:11Z</time>
      </trkpt>
      <trkpt lat="43.93991" lon="6.50017">
        <ele>1151</ele>
        <time>2021-09-12T14:02:14Z</time>
      </trkpt>
      <trkpt lat="43.93992" lon="6.50013">
        <ele>1151.5</ele>
        <time>2021-09-12T14:02:21Z</time>
      </trkpt>
      <trkpt lat="43.93993" lon="6.5001">
        <ele>1151.6</ele>
        <time>2021-09-12T14:02:25Z</time>
      </trkpt>
      <trkpt lat="43.93993" lon="6.50008">
        <ele>1152.1</ele>
        <time>2021-09-12T14:02:29Z</time>
      </trkpt>
      <trkpt lat="43.93994" lon="6.50006">
        <ele>1151.5</ele>
        <time>2021-09-12T14:02:32Z</time>
      </trkpt>
      <trkpt lat="43.93994" lon="6.50002">
        <ele>1152</ele>
        <time>2021-09-12T14:02:35Z</time>
      </trkpt>
      <trkpt lat="43.93994" lon="6.49999">
        <ele>1152.6</ele>
        <time>2021-09-12T14:02:38Z</time>
      </trkpt>
      <trkpt lat="43.93994" lon="6.49998">
        <ele>1152.6</ele>
        <time>2021-09-12T14:02:39Z</time>
      </trkpt>
      <trkpt lat="43.93995" lon="6.49997">
        <ele>1152.7</ele>
        <time>2021-09-12T14:02:40Z</time>
      </trkpt>
      <trkpt lat="43.93995" lon="6.49995">
        <ele>1153.3</ele>
        <time>2021-09-12T14:02:41Z</time>
      </trkpt>
      <trkpt lat="43.93996" lon="6.49993">
        <ele>1153.3</ele>
        <time>2021-09-12T14:02:42Z</time>
      </trkpt>
      <trkpt lat="43.93997" lon="6.4999">
        <ele>1153.2</ele>
        <time>2021-09-12T14:02:44Z</time>
      </trkpt>
      <trkpt lat="43.93998" lon="6.49988">
        <ele>1153.2</ele>
        <time>2021-09-12T14:02:45Z</time>
      </trkpt>
      <trkpt lat="43.93999" lon="6.49987">
        <ele>1153.8</ele>
        <time>2021-09-12T14:02:46Z</time>
      </trkpt>
      <trkpt lat="43.94001" lon="6.49983">
        <ele>1153.1</ele>
        <time>2021-09-12T14:02:48Z</time>
      </trkpt>
      <trkpt lat="43.94001" lon="6.49981">
        <ele>1153.7</ele>
        <time>2021-09-12T14:02:49Z</time>
      </trkpt>
      <trkpt lat="43.94004" lon="6.49976">
        <ele>1153.5</ele>
        <time>2021-09-12T14:02:51Z</time>
      </trkpt>
      <trkpt lat="43.94006" lon="6.49973">
        <ele>1153.2</ele>
        <time>2021-09-12T14:02:54Z</time>
      </trkpt>
      <trkpt lat="43.94008" lon="6.49971">
        <ele>1153.3</ele>
        <time>2021-09-12T14:02:57Z</time>
      </trkpt>
      <trkpt lat="43.9401" lon="6.49968">
        <ele>1153.1</ele>
        <time>2021-09-12T14:03:01Z</time>
      </trkpt>
      <trkpt lat="43.94011" lon="6.49965">
        <ele>1153.6</ele>
        <time>2021-09-12T14:03:03Z</time>
      </trkpt>
      <trkpt lat="43.94013" lon="6.49963">
        <ele>1153</ele>
        <time>2021-09-12T14:03:05Z</time>
      </trkpt>
      <trkpt lat="43.94015" lon="6.4996">
        <ele>1152.8</ele>
        <time>2021-09-12T14:03:06Z</time>
      </trkpt>
      <trkpt lat="43.94017" lon="6.49958">
        <ele>1152.9</ele>
        <time>2021-09-12T14:03:07Z</time>
      </trkpt>
      <trkpt lat="43.94019" lon="6.49956">
        <ele>1152.6</ele>
        <time>2021-09-12T14:03:08Z</time>
      </trkpt>
      <trkpt lat="43.94023" lon="6.49952">
        <ele>1152.3</ele>
        <time>2021-09-12T14:03:09Z</time>
      </trkpt>
      <trkpt lat="43.94027" lon="6.49947">
        <ele>1151</ele>
        <time>2021-09-12T14:03:10Z</time>
      </trkpt>
      <trkpt lat="43.94034" lon="6.49939">
        <ele>1149.9</ele>
        <time>2021-09-12T14:03:11Z</time>
      </trkpt>
      <trkpt lat="43.94037" lon="6.49934">
        <ele>1150.3</ele>
        <time>2021-09-12T14:03:12Z</time>
      </trkpt>
      <trkpt lat="43.94036" lon="6.49927">
        <ele>1150.8</ele>
        <time>2021-09-12T14:03:13Z</time>
      </trkpt>
      <trkpt lat="43.94038" lon="6.49919">
        <ele>1150.1</ele>
        <time>2021-09-12T14:03:14Z</time>
      </trkpt>
      <trkpt lat="43.94039" lon="6.49915">
        <ele>1150.4</ele>
        <time>2021-09-12T14:03:15Z</time>
      </trkpt>
      <trkpt lat="43.94039" lon="6.49914">
        <ele>1150.6</ele>
        <time>2021-09-12T14:03:16Z</time>
      </trkpt>
      <trkpt lat="43.94038" lon="6.4991">
        <ele>1150.8</ele>
        <time>2021-09-12T14:03:17Z</time>
      </trkpt>
      <trkpt lat="43.94037" lon="6.49911">
        <ele>1151.6</ele>
        <time>2021-09-12T14:03:18Z</time>
      </trkpt>
      <trkpt lat="43.94035" lon="6.49913">
        <ele>1151.7</ele>
        <time>2021-09-12T14:03:19Z</time>
      </trkpt>
      <trkpt lat="43.94034" lon="6.49915">
        <ele>1151.6</ele>
        <time>2021-09-12T14:03:20Z</time>
      </trkpt>
      <trkpt lat="43.94033" lon="6.49917">
        <ele>1152.6</ele>
        <time>2021-09-12T14:03:21Z</time>
      </trkpt>
      <trkpt lat="43.94032" lon="6.49919">
        <ele>1152.6</ele>
        <time>2021-09-12T14:03:22Z</time>
      </trkpt>
      <trkpt lat="43.94031" lon="6.49921">
        <ele>1152.6</ele>
        <time>2021-09-12T14:03:23Z</time>
      </trkpt>
      <trkpt lat="43.94029" lon="6.49924">
        <ele>1153.5</ele>
        <time>2021-09-12T14:03:25Z</time>
      </trkpt>
      <trkpt lat="43.94027" lon="6.49927">
        <ele>1153.7</ele>
        <time>2021-09-12T14:03:27Z</time>
      </trkpt>
      <trkpt lat="43.94024" lon="6.49929">
        <ele>1153.9</ele>
        <time>2021-09-12T14:03:29Z</time>
      </trkpt>
      <trkpt lat="43.94022" lon="6.49933">
        <ele>1154.1</ele>
        <time>2021-09-12T14:03:31Z</time>
      </trkpt>
      <trkpt lat="43.94021" lon="6.49938">
        <ele>1154.4</ele>
        <time>2021-09-12T14:03:33Z</time>
      </trkpt>
      <trkpt lat="43.9402" lon="6.4994">
        <ele>1154.5</ele>
        <time>2021-09-12T14:03:34Z</time>
      </trkpt>
      <trkpt lat="43.94019" lon="6.49943">
        <ele>1154.7</ele>
        <time>2021-09-12T14:03:35Z</time>
      </trkpt>
      <trkpt lat="43.94019" lon="6.49947">
        <ele>1154.8</ele>
        <time>2021-09-12T14:03:36Z</time>
      </trkpt>
      <trkpt lat="43.94018" lon="6.4995">
        <ele>1155</ele>
        <time>2021-09-12T14:03:37Z</time>
      </trkpt>
      <trkpt lat="43.94018" lon="6.49952">
        <ele>1155.1</ele>
        <time>2021-09-12T14:03:38Z</time>
      </trkpt>
      <trkpt lat="43.94017" lon="6.49954">
        <ele>1155.2</ele>
        <time>2021-09-12T14:03:39Z</time>
      </trkpt>
      <trkpt lat="43.94016" lon="6.49957">
        <ele>1155.3</ele>
        <time>2021-09-12T14:03:40Z</time>
      </trkpt>
      <trkpt lat="43.94014" lon="6.4996">
        <ele>1155.6</ele>
        <time>2021-09-12T14:03:42Z</time>
      </trkpt>
      <trkpt lat="43.94012" lon="6.49964">
        <ele>1155.8</ele>
        <time>2021-09-12T14:03:44Z</time>
      </trkpt>
      <trkpt lat="43.94011" lon="6.49966">
        <ele>1155.9</ele>
        <time>2021-09-12T14:03:45Z</time>
      </trkpt>
      <trkpt lat="43.94009" lon="6.49968">
        <ele>1156.1</ele>
        <time>2021-09-12T14:03:46Z</time>
      </trkpt>
      <trkpt lat="43.94006" lon="6.4997">
        <ele>1156.3</ele>
        <time>2021-09-12T14:03:48Z</time>
      </trkpt>
      <trkpt lat="43.94005" lon="6.49971">
        <ele>1156.4</ele>
        <time>2021-09-12T14:03:49Z</time>
      </trkpt>
      <trkpt lat="43.94003" lon="6.49972">
        <ele>1156.6</ele>
        <time>2021-09-12T14:03:50Z</time>
      </trkpt>
      <trkpt lat="43.94001" lon="6.49973">
        <ele>1156.7</ele>
        <time>2021-09-12T14:03:51Z</time>
      </trkpt>
      <trkpt lat="43.93998" lon="6.49973">
        <ele>1157</ele>
        <time>2021-09-12T14:03:53Z</time>
      </trkpt>
      <trkpt lat="43.93996" lon="6.49972">
        <ele>1157.1</ele>
        <time>2021-09-12T14:03:54Z</time>
      </trkpt>
      <trkpt lat="43.93993" lon="6.49971">
        <ele>1157.3</ele>
        <time>2021-09-12T14:03:56Z</time>
      </trkpt>
      <trkpt lat="43.9399" lon="6.49971">
        <ele>1157.5</ele>
        <time>2021-09-12T14:03:57Z</time>
      </trkpt>
      <trkpt lat="43.93989" lon="6.49971">
        <ele>1157.6</ele>
        <time>2021-09-12T14:03:58Z</time>
      </trkpt>
      <trkpt lat="43.93986" lon="6.49971">
        <ele>1157.8</ele>
        <time>2021-09-12T14:04:00Z</time>
      </trkpt>
      <trkpt lat="43.93983" lon="6.4997">
        <ele>1158</ele>
        <time>2021-09-12T14:04:02Z</time>
      </trkpt>
      <trkpt lat="43.93982" lon="6.4997">
        <ele>1158.1</ele>
        <time>2021-09-12T14:04:03Z</time>
      </trkpt>
      <trkpt lat="43.93978" lon="6.4997">
        <ele>1158.4</ele>
        <time>2021-09-12T14:04:05Z</time>
      </trkpt>
      <trkpt lat="43.93976" lon="6.49968">
        <ele>1158.6</ele>
        <time>2021-09-12T14:04:07Z</time>
      </trkpt>
      <trkpt lat="43.93973" lon="6.49968">
        <ele>1158.8</ele>
        <time>2021-09-12T14:04:08Z</time>
      </trkpt>
      <trkpt lat="43.93972" lon="6.49968">
        <ele>1158.9</ele>
        <time>2021-09-12T14:04:09Z</time>
      </trkpt>
      <trkpt lat="43.93968" lon="6.49968">
        <ele>1159.2</ele>
        <time>2021-09-12T14:04:11Z</time>
      </trkpt>
      <trkpt lat="43.93966" lon="6.49968">
        <ele>1159.3</ele>
        <time>2021-09-12T14:04:12Z</time>
      </trkpt>
      <trkpt lat="43.93963" lon="6.49969">
        <ele>1159.5</ele>
        <time>2021-09-12T14:04:14Z</time>
      </trkpt>
      <trkpt lat="43.93959" lon="6.49969">
        <ele>1159.8</ele>
        <time>2021-09-12T14:04:16Z</time>
      </trkpt>
      <trkpt lat="43.93955" lon="6.49969">
        <ele>1160.1</ele>
        <time>2021-09-12T14:04:18Z</time>
      </trkpt>
      <trkpt lat="43.93951" lon="6.49968">
        <ele>1160.4</ele>
        <time>2021-09-12T14:04:21Z</time>
      </trkpt>
      <trkpt lat="43.93949" lon="6.49968">
        <ele>1160.5</ele>
        <time>2021-09-12T14:04:22Z</time>
      </trkpt>
      <trkpt lat="43.93948" lon="6.49968">
        <ele>1160.7</ele>
        <time>2021-09-12T14:04:23Z</time>
      </trkpt>
      <trkpt lat="43.93946" lon="6.49968">
        <ele>1160.8</ele>
        <time>2021-09-12T14:04:24Z</time>
      </trkpt>
      <trkpt lat="43.93942" lon="6.49967">
        <ele>1161.1</ele>
        <time>2021-09-12T14:04:26Z</time>
      </trkpt>
      <trkpt lat="43.93939" lon="6.49965">
        <ele>1161.4</ele>
        <time>2021-09-12T14:04:28Z</time>
      </trkpt>
      <trkpt lat="43.93937" lon="6.49963">
        <ele>1161.6</ele>
        <time>2021-09-12T14:04:29Z</time>
      </trkpt>
      <trkpt lat="43.93935" lon="6.49961">
        <ele>1161.8</ele>
        <time>2021-09-12T14:04:31Z</time>
      </trkpt>
      <trkpt lat="43.93933" lon="6.49957">
        <ele>1162.1</ele>
        <time>2021-09-12T14:04:33Z</time>
      </trkpt>
      <trkpt lat="43.93932" lon="6.49956">
        <ele>1162.2</ele>
        <time>2021-09-12T14:04:34Z</time>
      </trkpt>
      <trkpt lat="43.9393" lon="6.49954">
        <ele>1162.3</ele>
        <time>2021-09-12T14:04:36Z</time>
      </trkpt>
      <trkpt lat="43.93929" lon="6.49952">
        <ele>1162.5</ele>
        <time>2021-09-12T14:04:37Z</time>
      </trkpt>
      <trkpt lat="43.93928" lon="6.49951">
        <ele>1162.6</ele>
        <time>2021-09-12T14:04:38Z</time>
      </trkpt>
      <trkpt lat="43.93927" lon="6.49947">
        <ele>1162.8</ele>
        <time>2021-09-12T14:04:40Z</time>
      </trkpt>
      <trkpt lat="43.93926" lon="6.49946">
        <ele>1162.9</ele>
        <time>2021-09-12T14:04:41Z</time>
      </trkpt>
      <trkpt lat="43.93924" lon="6.49942">
        <ele>1163.2</ele>
        <time>2021-09-12T14:04:44Z</time>
      </trkpt>
      <trkpt lat="43.93923" lon="6.49941">
        <ele>1163.3</ele>
        <time>2021-09-12T14:04:45Z</time>
      </trkpt>
      <trkpt lat="43.93921" lon="6.49938">
        <ele>1163.5</ele>
        <time>2021-09-12T14:04:47Z</time>
      </trkpt>
      <trkpt lat="43.9392" lon="6.49937">
        <ele>1163.6</ele>
        <time>2021-09-12T14:04:48Z</time>
      </trkpt>
      <trkpt lat="43.93918" lon="6.49935">
        <ele>1163.7</ele>
        <time>2021-09-12T14:04:50Z</time>
      </trkpt>
      <trkpt lat="43.93918" lon="6.49934">
        <ele>1163.8</ele>
        <time>2021-09-12T14:04:51Z</time>
      </trkpt>
      <trkpt lat="43.93916" lon="6.49933">
        <ele>1163.9</ele>
        <time>2021-09-12T14:04:52Z</time>
      </trkpt>
      <trkpt lat="43.93915" lon="6.49932">
        <ele>1164</ele>
        <time>2021-09-12T14:04:53Z</time>
      </trkpt>
      <trkpt lat="43.9391" lon="6.4993">
        <ele>1164.4</ele>
        <time>2021-09-12T14:04:55Z</time>
      </trkpt>
      <trkpt lat="43.93907" lon="6.4993">
        <ele>1164.6</ele>
        <time>2021-09-12T14:04:57Z</time>
      </trkpt>
      <trkpt lat="43.93904" lon="6.4993">
        <ele>1164.8</ele>
        <time>2021-09-12T14:04:59Z</time>
      </trkpt>
      <trkpt lat="43.93903" lon="6.49929">
        <ele>1164.9</ele>
        <time>2021-09-12T14:05:00Z</time>
      </trkpt>
      <trkpt lat="43.93899" lon="6.49929">
        <ele>1165.2</ele>
        <time>2021-09-12T14:05:02Z</time>
      </trkpt>
      <trkpt lat="43.93896" lon="6.49928">
        <ele>1165.4</ele>
        <time>2021-09-12T14:05:03Z</time>
      </trkpt>
      <trkpt lat="43.93892" lon="6.49927">
        <ele>1165.7</ele>
        <time>2021-09-12T14:05:05Z</time>
      </trkpt>
      <trkpt lat="43.93891" lon="6.49926">
        <ele>1165.8</ele>
        <time>2021-09-12T14:05:06Z</time>
      </trkpt>
      <trkpt lat="43.93889" lon="6.49926">
        <ele>1165.9</ele>
        <time>2021-09-12T14:05:07Z</time>
      </trkpt>
      <trkpt lat="43.93888" lon="6.49925">
        <ele>1166</ele>
        <time>2021-09-12T14:05:08Z</time>
      </trkpt>
      <trkpt lat="43.93885" lon="6.49923">
        <ele>1166.3</ele>
        <time>2021-09-12T14:05:09Z</time>
      </trkpt>
      <trkpt lat="43.93884" lon="6.49922">
        <ele>1166.3</ele>
        <time>2021-09-12T14:05:10Z</time>
      </trkpt>
      <trkpt lat="43.93881" lon="6.49921">
        <ele>1166.5</ele>
        <time>2021-09-12T14:05:11Z</time>
      </trkpt>
      <trkpt lat="43.9388" lon="6.4992">
        <ele>1166.7</ele>
        <time>2021-09-12T14:05:12Z</time>
      </trkpt>
      <trkpt lat="43.93878" lon="6.49919">
        <ele>1166.8</ele>
        <time>2021-09-12T14:05:13Z</time>
      </trkpt>
      <trkpt lat="43.93877" lon="6.49918">
        <ele>1166.9</ele>
        <time>2021-09-12T14:05:14Z</time>
      </trkpt>
      <trkpt lat="43.93875" lon="6.49916">
        <ele>1167.1</ele>
        <time>2021-09-12T14:05:16Z</time>
      </trkpt>
      <trkpt lat="43.93874" lon="6.49914">
        <ele>1167.2</ele>
        <time>2021-09-12T14:05:17Z</time>
      </trkpt>
      <trkpt lat="43.93873" lon="6.49912">
        <ele>1167.3</ele>
        <time>2021-09-12T14:05:18Z</time>
      </trkpt>
      <trkpt lat="43.93872" lon="6.4991">
        <ele>1167.4</ele>
        <time>2021-09-12T14:05:19Z</time>
      </trkpt>
      <trkpt lat="43.93871" lon="6.49908">
        <ele>1167.6</ele>
        <time>2021-09-12T14:05:20Z</time>
      </trkpt>
      <trkpt lat="43.9387" lon="6.49901">
        <ele>1168</ele>
        <time>2021-09-12T14:05:23Z</time>
      </trkpt>
      <trkpt lat="43.9387" lon="6.49898">
        <ele>1168.1</ele>
        <time>2021-09-12T14:05:24Z</time>
      </trkpt>
      <trkpt lat="43.93871" lon="6.49894">
        <ele>1168.3</ele>
        <time>2021-09-12T14:05:26Z</time>
      </trkpt>
      <trkpt lat="43.93871" lon="6.49889">
        <ele>1168.6</ele>
        <time>2021-09-12T14:05:28Z</time>
      </trkpt>
      <trkpt lat="43.93871" lon="6.49884">
        <ele>1168.8</ele>
        <time>2021-09-12T14:05:30Z</time>
      </trkpt>
      <trkpt lat="43.93871" lon="6.49883">
        <ele>1168.9</ele>
        <time>2021-09-12T14:05:31Z</time>
      </trkpt>
      <trkpt lat="43.93872" lon="6.49879">
        <ele>1169.1</ele>
        <time>2021-09-12T14:05:32Z</time>
      </trkpt>
      <trkpt lat="43.93872" lon="6.49877">
        <ele>1169.2</ele>
        <time>2021-09-12T14:05:33Z</time>
      </trkpt>
      <trkpt lat="43.93872" lon="6.49871">
        <ele>1169.5</ele>
        <time>2021-09-12T14:05:35Z</time>
      </trkpt>
      <trkpt lat="43.93872" lon="6.49869">
        <ele>1169.6</ele>
        <time>2021-09-12T14:05:36Z</time>
      </trkpt>
      <trkpt lat="43.93872" lon="6.49867">
        <ele>1169.7</ele>
        <time>2021-09-12T14:05:37Z</time>
      </trkpt>
      <trkpt lat="43.93871" lon="6.49865">
        <ele>1169.9</ele>
        <time>2021-09-12T14:05:38Z</time>
      </trkpt>
      <trkpt lat="43.9387" lon="6.49862">
        <ele>1170</ele>
        <time>2021-09-12T14:05:39Z</time>
      </trkpt>
      <trkpt lat="43.9387" lon="6.49858">
        <ele>1170.2</ele>
        <time>2021-09-12T14:05:40Z</time>
      </trkpt>
      <trkpt lat="43.93871" lon="6.49855">
        <ele>1170.3</ele>
        <time>2021-09-12T14:05:41Z</time>
      </trkpt>
      <trkpt lat="43.93872" lon="6.49853">
        <ele>1170.4</ele>
        <time>2021-09-12T14:05:42Z</time>
      </trkpt>
      <trkpt lat="43.93873" lon="6.49852">
        <ele>1170.6</ele>
        <time>2021-09-12T14:05:44Z</time>
      </trkpt>
      <trkpt lat="43.93876" lon="6.49849">
        <ele>1170.8</ele>
        <time>2021-09-12T14:05:45Z</time>
      </trkpt>
      <trkpt lat="43.93877" lon="6.49849">
        <ele>1170.8</ele>
        <time>2021-09-12T14:05:46Z</time>
      </trkpt>
      <trkpt lat="43.93881" lon="6.49847">
        <ele>1171.1</ele>
        <time>2021-09-12T14:05:48Z</time>
      </trkpt>
      <trkpt lat="43.93883" lon="6.49846">
        <ele>1171.3</ele>
        <time>2021-09-12T14:05:50Z</time>
      </trkpt>
      <trkpt lat="43.93884" lon="6.49843">
        <ele>1171.4</ele>
        <time>2021-09-12T14:05:51Z</time>
      </trkpt>
      <trkpt lat="43.93886" lon="6.49842">
        <ele>1171.5</ele>
        <time>2021-09-12T14:05:52Z</time>
      </trkpt>
      <trkpt lat="43.93887" lon="6.4984">
        <ele>1171.6</ele>
        <time>2021-09-12T14:05:53Z</time>
      </trkpt>
      <trkpt lat="43.93887" lon="6.49837">
        <ele>1171.7</ele>
        <time>2021-09-12T14:05:54Z</time>
      </trkpt>
      <trkpt lat="43.93887" lon="6.49834">
        <ele>1171.8</ele>
        <time>2021-09-12T14:05:56Z</time>
      </trkpt>
      <trkpt lat="43.93887" lon="6.49831">
        <ele>1171.9</ele>
        <time>2021-09-12T14:05:57Z</time>
      </trkpt>
      <trkpt lat="43.93887" lon="6.49827">
        <ele>1172.1</ele>
        <time>2021-09-12T14:05:58Z</time>
      </trkpt>
      <trkpt lat="43.93887" lon="6.49825">
        <ele>1172.2</ele>
        <time>2021-09-12T14:05:59Z</time>
      </trkpt>
      <trkpt lat="43.93888" lon="6.49822">
        <ele>1172.3</ele>
        <time>2021-09-12T14:06:00Z</time>
      </trkpt>
      <trkpt lat="43.9389" lon="6.49817">
        <ele>1172.6</ele>
        <time>2021-09-12T14:06:02Z</time>
      </trkpt>
      <trkpt lat="43.93891" lon="6.49815">
        <ele>1172.6</ele>
        <time>2021-09-12T14:06:03Z</time>
      </trkpt>
      <trkpt lat="43.93891" lon="6.49811">
        <ele>1172.8</ele>
        <time>2021-09-12T14:06:05Z</time>
      </trkpt>
      <trkpt lat="43.93892" lon="6.49807">
        <ele>1173</ele>
        <time>2021-09-12T14:06:06Z</time>
      </trkpt>
      <trkpt lat="43.93892" lon="6.49805">
        <ele>1173.1</ele>
        <time>2021-09-12T14:06:07Z</time>
      </trkpt>
      <trkpt lat="43.93892" lon="6.498">
        <ele>1173.3</ele>
        <time>2021-09-12T14:06:09Z</time>
      </trkpt>
      <trkpt lat="43.93892" lon="6.49795">
        <ele>1173.4</ele>
        <time>2021-09-12T14:06:10Z</time>
      </trkpt>
      <trkpt lat="43.93892" lon="6.49791">
        <ele>1173.6</ele>
        <time>2021-09-12T14:06:12Z</time>
      </trkpt>
      <trkpt lat="43.93888" lon="6.49784">
        <ele>1173.9</ele>
        <time>2021-09-12T14:06:15Z</time>
      </trkpt>
      <trkpt lat="43.93884" lon="6.49779">
        <ele>1174.2</ele>
        <time>2021-09-12T14:06:17Z</time>
      </trkpt>
      <trkpt lat="43.93881" lon="6.49776">
        <ele>1174.4</ele>
        <time>2021-09-12T14:06:19Z</time>
      </trkpt>
      <trkpt lat="43.93879" lon="6.49774">
        <ele>1174.5</ele>
        <time>2021-09-12T14:06:21Z</time>
      </trkpt>
      <trkpt lat="43.93875" lon="6.49772">
        <ele>1174.7</ele>
        <time>2021-09-12T14:06:22Z</time>
      </trkpt>
      <trkpt lat="43.93871" lon="6.49771">
        <ele>1174.9</ele>
        <time>2021-09-12T14:06:24Z</time>
      </trkpt>
      <trkpt lat="43.93867" lon="6.49769">
        <ele>1175.1</ele>
        <time>2021-09-12T14:06:26Z</time>
      </trkpt>
      <trkpt lat="43.93862" lon="6.49769">
        <ele>1175.3</ele>
        <time>2021-09-12T14:06:28Z</time>
      </trkpt>
      <trkpt lat="43.93861" lon="6.49769">
        <ele>1175.4</ele>
        <time>2021-09-12T14:06:29Z</time>
      </trkpt>
      <trkpt lat="43.93858" lon="6.4977">
        <ele>1175.5</ele>
        <time>2021-09-12T14:06:30Z</time>
      </trkpt>
      <trkpt lat="43.93856" lon="6.4977">
        <ele>1175.6</ele>
        <time>2021-09-12T14:06:31Z</time>
      </trkpt>
      <trkpt lat="43.93854" lon="6.49771">
        <ele>1175.8</ele>
        <time>2021-09-12T14:06:32Z</time>
      </trkpt>
      <trkpt lat="43.93852" lon="6.49772">
        <ele>1175.9</ele>
        <time>2021-09-12T14:06:33Z</time>
      </trkpt>
      <trkpt lat="43.93851" lon="6.49776">
        <ele>1176</ele>
        <time>2021-09-12T14:06:34Z</time>
      </trkpt>
      <trkpt lat="43.9385" lon="6.49778">
        <ele>1176.1</ele>
        <time>2021-09-12T14:06:35Z</time>
      </trkpt>
      <trkpt lat="43.93848" lon="6.4978">
        <ele>1176.2</ele>
        <time>2021-09-12T14:06:36Z</time>
      </trkpt>
      <trkpt lat="43.93847" lon="6.49781">
        <ele>1176.3</ele>
        <time>2021-09-12T14:06:37Z</time>
      </trkpt>
      <trkpt lat="43.93844" lon="6.49783">
        <ele>1176.5</ele>
        <time>2021-09-12T14:06:38Z</time>
      </trkpt>
      <trkpt lat="43.93843" lon="6.49785">
        <ele>1176.6</ele>
        <time>2021-09-12T14:06:39Z</time>
      </trkpt>
      <trkpt lat="43.93842" lon="6.49788">
        <ele>1176.8</ele>
        <time>2021-09-12T14:06:40Z</time>
      </trkpt>
      <trkpt lat="43.93839" lon="6.49792">
        <ele>1177</ele>
        <time>2021-09-12T14:06:41Z</time>
      </trkpt>
      <trkpt lat="43.93836" lon="6.49794">
        <ele>1177.2</ele>
        <time>2021-09-12T14:06:42Z</time>
      </trkpt>
      <trkpt lat="43.93833" lon="6.49794">
        <ele>1177.4</ele>
        <time>2021-09-12T14:06:43Z</time>
      </trkpt>
      <trkpt lat="43.93831" lon="6.49796">
        <ele>1177.6</ele>
        <time>2021-09-12T14:06:45Z</time>
      </trkpt>
      <trkpt lat="43.9383" lon="6.49797">
        <ele>1177.7</ele>
        <time>2021-09-12T14:06:46Z</time>
      </trkpt>
      <trkpt lat="43.93826" lon="6.498">
        <ele>1178</ele>
        <time>2021-09-12T14:06:48Z</time>
      </trkpt>
      <trkpt lat="43.93825" lon="6.498">
        <ele>1178.1</ele>
        <time>2021-09-12T14:06:49Z</time>
      </trkpt>
      <trkpt lat="43.93822" lon="6.49801">
        <ele>1178.3</ele>
        <time>2021-09-12T14:06:51Z</time>
      </trkpt>
      <trkpt lat="43.93819" lon="6.49801">
        <ele>1178.5</ele>
        <time>2021-09-12T14:06:53Z</time>
      </trkpt>
      <trkpt lat="43.93816" lon="6.49802">
        <ele>1178.7</ele>
        <time>2021-09-12T14:06:54Z</time>
      </trkpt>
      <trkpt lat="43.93815" lon="6.49802">
        <ele>1178.8</ele>
        <time>2021-09-12T14:06:55Z</time>
      </trkpt>
      <trkpt lat="43.93814" lon="6.49802">
        <ele>1178.9</ele>
        <time>2021-09-12T14:06:56Z</time>
      </trkpt>
      <trkpt lat="43.93812" lon="6.49801">
        <ele>1179</ele>
        <time>2021-09-12T14:06:57Z</time>
      </trkpt>
      <trkpt lat="43.93809" lon="6.49801">
        <ele>1179</ele>
        <time>2021-09-12T14:06:58Z</time>
      </trkpt>
      <trkpt lat="43.93808" lon="6.49801">
        <ele>1179.1</ele>
        <time>2021-09-12T14:06:59Z</time>
      </trkpt>
      <trkpt lat="43.93804" lon="6.498">
        <ele>1179.1</ele>
        <time>2021-09-12T14:07:01Z</time>
      </trkpt>
      <trkpt lat="43.93801" lon="6.498">
        <ele>1179.1</ele>
        <time>2021-09-12T14:07:02Z</time>
      </trkpt>
      <trkpt lat="43.93798" lon="6.49799">
        <ele>1179.1</ele>
        <time>2021-09-12T14:07:03Z</time>
      </trkpt>
      <trkpt lat="43.93796" lon="6.49799">
        <ele>1179.2</ele>
        <time>2021-09-12T14:07:04Z</time>
      </trkpt>
      <trkpt lat="43.93792" lon="6.49798">
        <ele>1179.2</ele>
        <time>2021-09-12T14:07:05Z</time>
      </trkpt>
      <trkpt lat="43.93792" lon="6.49796">
        <ele>1179.5</ele>
        <time>2021-09-12T14:07:06Z</time>
      </trkpt>
      <trkpt lat="43.93791" lon="6.49792">
        <ele>1179.7</ele>
        <time>2021-09-12T14:07:07Z</time>
      </trkpt>
      <trkpt lat="43.9379" lon="6.4979">
        <ele>1180</ele>
        <time>2021-09-12T14:07:08Z</time>
      </trkpt>
      <trkpt lat="43.93789" lon="6.49788">
        <ele>1180.5</ele>
        <time>2021-09-12T14:07:09Z</time>
      </trkpt>
      <trkpt lat="43.93788" lon="6.49787">
        <ele>1180.8</ele>
        <time>2021-09-12T14:07:10Z</time>
      </trkpt>
      <trkpt lat="43.93788" lon="6.49787">
        <ele>1181.2</ele>
        <time>2021-09-12T14:07:11Z</time>
      </trkpt>
      <trkpt lat="43.93787" lon="6.49787">
        <ele>1181.6</ele>
        <time>2021-09-12T14:07:12Z</time>
      </trkpt>
      <trkpt lat="43.93787" lon="6.49786">
        <ele>1181.9</ele>
        <time>2021-09-12T14:07:14Z</time>
      </trkpt>
      <trkpt lat="43.93785" lon="6.49786">
        <ele>1182.6</ele>
        <time>2021-09-12T14:07:19Z</time>
      </trkpt>
      <trkpt lat="43.9378" lon="6.49787">
        <ele>1183.6</ele>
        <time>2021-09-12T14:07:29Z</time>
      </trkpt>
      <trkpt lat="43.93777" lon="6.49788">
        <ele>1184.3</ele>
        <time>2021-09-12T14:07:37Z</time>
      </trkpt>
      <trkpt lat="43.93775" lon="6.49788">
        <ele>1184.4</ele>
        <time>2021-09-12T14:07:42Z</time>
      </trkpt>
      <trkpt lat="43.93767" lon="6.49793">
        <ele>1184.5</ele>
        <time>2021-09-12T14:08:02Z</time>
      </trkpt>
      <trkpt lat="43.93765" lon="6.49797">
        <ele>1184.6</ele>
        <time>2021-09-12T14:08:09Z</time>
      </trkpt>
      <trkpt lat="43.93763" lon="6.49801">
        <ele>1184.6</ele>
        <time>2021-09-12T14:08:13Z</time>
      </trkpt>
      <trkpt lat="43.93763" lon="6.49804">
        <ele>1184.6</ele>
        <time>2021-09-12T14:08:16Z</time>
      </trkpt>
      <trkpt lat="43.93764" lon="6.49806">
        <ele>1184.7</ele>
        <time>2021-09-12T14:08:17Z</time>
      </trkpt>
      <trkpt lat="43.93764" lon="6.49808">
        <ele>1184.7</ele>
        <time>2021-09-12T14:08:18Z</time>
      </trkpt>
      <trkpt lat="43.93766" lon="6.4981">
        <ele>1184.7</ele>
        <time>2021-09-12T14:08:19Z</time>
      </trkpt>
      <trkpt lat="43.9377" lon="6.49811">
        <ele>1184.8</ele>
        <time>2021-09-12T14:08:21Z</time>
      </trkpt>
      <trkpt lat="43.93774" lon="6.49811">
        <ele>1184.9</ele>
        <time>2021-09-12T14:08:22Z</time>
      </trkpt>
      <trkpt lat="43.93776" lon="6.49811">
        <ele>1184.9</ele>
        <time>2021-09-12T14:08:23Z</time>
      </trkpt>
      <trkpt lat="43.93779" lon="6.49812">
        <ele>1185</ele>
        <time>2021-09-12T14:08:24Z</time>
      </trkpt>
      <trkpt lat="43.93783" lon="6.49812">
        <ele>1185</ele>
        <time>2021-09-12T14:08:25Z</time>
      </trkpt>
      <trkpt lat="43.93786" lon="6.49811">
        <ele>1185.1</ele>
        <time>2021-09-12T14:08:26Z</time>
      </trkpt>
      <trkpt lat="43.93789" lon="6.49812">
        <ele>1185.1</ele>
        <time>2021-09-12T14:08:27Z</time>
      </trkpt>
      <trkpt lat="43.93792" lon="6.49814">
        <ele>1185.2</ele>
        <time>2021-09-12T14:08:28Z</time>
      </trkpt>
      <trkpt lat="43.93795" lon="6.49817">
        <ele>1185.3</ele>
        <time>2021-09-12T14:08:29Z</time>
      </trkpt>
      <trkpt lat="43.93799" lon="6.49818">
        <ele>1185.3</ele>
        <time>2021-09-12T14:08:30Z</time>
      </trkpt>
      <trkpt lat="43.93801" lon="6.4982">
        <ele>1185.4</ele>
        <time>2021-09-12T14:08:31Z</time>
      </trkpt>
      <trkpt lat="43.93805" lon="6.49824">
        <ele>1185.5</ele>
        <time>2021-09-12T14:08:32Z</time>
      </trkpt>
      <trkpt lat="43.93806" lon="6.49825">
        <ele>1185.5</ele>
        <time>2021-09-12T14:08:33Z</time>
      </trkpt>
      <trkpt lat="43.93805" lon="6.49831">
        <ele>1185.6</ele>
        <time>2021-09-12T14:08:34Z</time>
      </trkpt>
      <trkpt lat="43.93803" lon="6.49834">
        <ele>1185.6</ele>
        <time>2021-09-12T14:08:35Z</time>
      </trkpt>
      <trkpt lat="43.938" lon="6.49838">
        <ele>1185.8</ele>
        <time>2021-09-12T14:08:36Z</time>
      </trkpt>
      <trkpt lat="43.93797" lon="6.49844">
        <ele>1186</ele>
        <time>2021-09-12T14:08:38Z</time>
      </trkpt>
      <trkpt lat="43.93796" lon="6.49846">
        <ele>1186.1</ele>
        <time>2021-09-12T14:08:39Z</time>
      </trkpt>
      <trkpt lat="43.93794" lon="6.4985">
        <ele>1186.2</ele>
        <time>2021-09-12T14:08:40Z</time>
      </trkpt>
      <trkpt lat="43.93793" lon="6.49852">
        <ele>1186.3</ele>
        <time>2021-09-12T14:08:41Z</time>
      </trkpt>
      <trkpt lat="43.9379" lon="6.49855">
        <ele>1186.4</ele>
        <time>2021-09-12T14:08:42Z</time>
      </trkpt>
      <trkpt lat="43.93788" lon="6.49859">
        <ele>1186.6</ele>
        <time>2021-09-12T14:08:43Z</time>
      </trkpt>
      <trkpt lat="43.93786" lon="6.49864">
        <ele>1186.7</ele>
        <time>2021-09-12T14:08:45Z</time>
      </trkpt>
      <trkpt lat="43.93783" lon="6.49871">
        <ele>1187</ele>
        <time>2021-09-12T14:08:47Z</time>
      </trkpt>
      <trkpt lat="43.93781" lon="6.49874">
        <ele>1187.1</ele>
        <time>2021-09-12T14:08:48Z</time>
      </trkpt>
      <trkpt lat="43.93776" lon="6.49878">
        <ele>1187.4</ele>
        <time>2021-09-12T14:08:50Z</time>
      </trkpt>
      <trkpt lat="43.93773" lon="6.49882">
        <ele>1187.6</ele>
        <time>2021-09-12T14:08:51Z</time>
      </trkpt>
      <trkpt lat="43.9377" lon="6.49886">
        <ele>1187.9</ele>
        <time>2021-09-12T14:08:53Z</time>
      </trkpt>
      <trkpt lat="43.93766" lon="6.49891">
        <ele>1188.2</ele>
        <time>2021-09-12T14:08:55Z</time>
      </trkpt>
      <trkpt lat="43.93765" lon="6.49893">
        <ele>1188.4</ele>
        <time>2021-09-12T14:08:56Z</time>
      </trkpt>
      <trkpt lat="43.93764" lon="6.49894">
        <ele>1188.4</ele>
        <time>2021-09-12T14:08:57Z</time>
      </trkpt>
      <trkpt lat="43.9376" lon="6.49894">
        <ele>1188.7</ele>
        <time>2021-09-12T14:08:58Z</time>
      </trkpt>
      <trkpt lat="43.93759" lon="6.49893">
        <ele>1188.7</ele>
        <time>2021-09-12T14:08:59Z</time>
      </trkpt>
      <trkpt lat="43.93755" lon="6.49893">
        <ele>1189</ele>
        <time>2021-09-12T14:09:00Z</time>
      </trkpt>
      <trkpt lat="43.93753" lon="6.49893">
        <ele>1189.1</ele>
        <time>2021-09-12T14:09:01Z</time>
      </trkpt>
      <trkpt lat="43.93752" lon="6.49894">
        <ele>1189.2</ele>
        <time>2021-09-12T14:09:02Z</time>
      </trkpt>
      <trkpt lat="43.93749" lon="6.49895">
        <ele>1189.4</ele>
        <time>2021-09-12T14:09:03Z</time>
      </trkpt>
      <trkpt lat="43.93747" lon="6.49895">
        <ele>1189.5</ele>
        <time>2021-09-12T14:09:04Z</time>
      </trkpt>
      <trkpt lat="43.93746" lon="6.49896">
        <ele>1189.7</ele>
        <time>2021-09-12T14:09:05Z</time>
      </trkpt>
      <trkpt lat="43.93744" lon="6.49899">
        <ele>1189.9</ele>
        <time>2021-09-12T14:09:06Z</time>
      </trkpt>
      <trkpt lat="43.93742" lon="6.49901">
        <ele>1190</ele>
        <time>2021-09-12T14:09:07Z</time>
      </trkpt>
      <trkpt lat="43.9374" lon="6.49902">
        <ele>1190.2</ele>
        <time>2021-09-12T14:09:09Z</time>
      </trkpt>
      <trkpt lat="43.93738" lon="6.49903">
        <ele>1190.4</ele>
        <time>2021-09-12T14:09:10Z</time>
      </trkpt>
      <trkpt lat="43.93735" lon="6.49903">
        <ele>1190.6</ele>
        <time>2021-09-12T14:09:11Z</time>
      </trkpt>
      <trkpt lat="43.93734" lon="6.49904">
        <ele>1190.7</ele>
        <time>2021-09-12T14:09:12Z</time>
      </trkpt>
      <trkpt lat="43.93733" lon="6.49904">
        <ele>1190.8</ele>
        <time>2021-09-12T14:09:13Z</time>
      </trkpt>
      <trkpt lat="43.93731" lon="6.49905">
        <ele>1190.9</ele>
        <time>2021-09-12T14:09:14Z</time>
      </trkpt>
      <trkpt lat="43.93729" lon="6.49907">
        <ele>1191.1</ele>
        <time>2021-09-12T14:09:15Z</time>
      </trkpt>
      <trkpt lat="43.93727" lon="6.49913">
        <ele>1191.5</ele>
        <time>2021-09-12T14:09:18Z</time>
      </trkpt>
      <trkpt lat="43.93727" lon="6.49915">
        <ele>1191.6</ele>
        <time>2021-09-12T14:09:19Z</time>
      </trkpt>
      <trkpt lat="43.93726" lon="6.49917">
        <ele>1191.7</ele>
        <time>2021-09-12T14:09:20Z</time>
      </trkpt>
      <trkpt lat="43.93725" lon="6.49918">
        <ele>1191.8</ele>
        <time>2021-09-12T14:09:21Z</time>
      </trkpt>
      <trkpt lat="43.93723" lon="6.4992">
        <ele>1192</ele>
        <time>2021-09-12T14:09:22Z</time>
      </trkpt>
      <trkpt lat="43.9372" lon="6.4992">
        <ele>1192.2</ele>
        <time>2021-09-12T14:09:24Z</time>
      </trkpt>
      <trkpt lat="43.93719" lon="6.4992">
        <ele>1192.3</ele>
        <time>2021-09-12T14:09:25Z</time>
      </trkpt>
      <trkpt lat="43.93717" lon="6.49921">
        <ele>1192.5</ele>
        <time>2021-09-12T14:09:26Z</time>
      </trkpt>
      <trkpt lat="43.93715" lon="6.49921">
        <ele>1192.6</ele>
        <time>2021-09-12T14:09:27Z</time>
      </trkpt>
      <trkpt lat="43.93714" lon="6.49923">
        <ele>1192.8</ele>
        <time>2021-09-12T14:09:29Z</time>
      </trkpt>
      <trkpt lat="43.93712" lon="6.49923">
        <ele>1192.9</ele>
        <time>2021-09-12T14:09:30Z</time>
      </trkpt>
      <trkpt lat="43.9371" lon="6.49924">
        <ele>1193.1</ele>
        <time>2021-09-12T14:09:31Z</time>
      </trkpt>
      <trkpt lat="43.93709" lon="6.49924">
        <ele>1193.2</ele>
        <time>2021-09-12T14:09:32Z</time>
      </trkpt>
      <trkpt lat="43.93708" lon="6.49925">
        <ele>1193.3</ele>
        <time>2021-09-12T14:09:33Z</time>
      </trkpt>
      <trkpt lat="43.93705" lon="6.49926">
        <ele>1193.5</ele>
        <time>2021-09-12T14:09:35Z</time>
      </trkpt>
      <trkpt lat="43.93704" lon="6.49927">
        <ele>1193.6</ele>
        <time>2021-09-12T14:09:36Z</time>
      </trkpt>
      <trkpt lat="43.93703" lon="6.49928">
        <ele>1193.7</ele>
        <time>2021-09-12T14:09:37Z</time>
      </trkpt>
      <trkpt lat="43.93702" lon="6.49929">
        <ele>1193.8</ele>
        <time>2021-09-12T14:09:38Z</time>
      </trkpt>
      <trkpt lat="43.93699" lon="6.49931">
        <ele>1194</ele>
        <time>2021-09-12T14:09:40Z</time>
      </trkpt>
      <trkpt lat="43.93697" lon="6.49932">
        <ele>1194.1</ele>
        <time>2021-09-12T14:09:41Z</time>
      </trkpt>
      <trkpt lat="43.93695" lon="6.49933">
        <ele>1194.3</ele>
        <time>2021-09-12T14:09:42Z</time>
      </trkpt>
      <trkpt lat="43.93694" lon="6.49934">
        <ele>1194.4</ele>
        <time>2021-09-12T14:09:43Z</time>
      </trkpt>
      <trkpt lat="43.9369" lon="6.49936">
        <ele>1194.6</ele>
        <time>2021-09-12T14:09:45Z</time>
      </trkpt>
      <trkpt lat="43.93689" lon="6.49937">
        <ele>1194.7</ele>
        <time>2021-09-12T14:09:46Z</time>
      </trkpt>
      <trkpt lat="43.93688" lon="6.49939">
        <ele>1194.8</ele>
        <time>2021-09-12T14:09:47Z</time>
      </trkpt>
      <trkpt lat="43.93687" lon="6.4994">
        <ele>1194.9</ele>
        <time>2021-09-12T14:09:48Z</time>
      </trkpt>
      <trkpt lat="43.93686" lon="6.49942">
        <ele>1195</ele>
        <time>2021-09-12T14:09:49Z</time>
      </trkpt>
      <trkpt lat="43.93685" lon="6.49944">
        <ele>1195.2</ele>
        <time>2021-09-12T14:09:50Z</time>
      </trkpt>
      <trkpt lat="43.93681" lon="6.49945">
        <ele>1195.4</ele>
        <time>2021-09-12T14:09:52Z</time>
      </trkpt>
      <trkpt lat="43.93678" lon="6.49945">
        <ele>1195.7</ele>
        <time>2021-09-12T14:09:54Z</time>
      </trkpt>
      <trkpt lat="43.93676" lon="6.49945">
        <ele>1195.8</ele>
        <time>2021-09-12T14:09:55Z</time>
      </trkpt>
      <trkpt lat="43.93673" lon="6.49946">
        <ele>1196</ele>
        <time>2021-09-12T14:09:56Z</time>
      </trkpt>
      <trkpt lat="43.9367" lon="6.49947">
        <ele>1196.2</ele>
        <time>2021-09-12T14:09:58Z</time>
      </trkpt>
      <trkpt lat="43.93667" lon="6.49948">
        <ele>1196.4</ele>
        <time>2021-09-12T14:09:59Z</time>
      </trkpt>
      <trkpt lat="43.93665" lon="6.49948">
        <ele>1196.5</ele>
        <time>2021-09-12T14:10:00Z</time>
      </trkpt>
      <trkpt lat="43.93662" lon="6.49949">
        <ele>1196.7</ele>
        <time>2021-09-12T14:10:02Z</time>
      </trkpt>
      <trkpt lat="43.93661" lon="6.49949">
        <ele>1196.8</ele>
        <time>2021-09-12T14:10:03Z</time>
      </trkpt>
      <trkpt lat="43.93658" lon="6.4995">
        <ele>1197</ele>
        <time>2021-09-12T14:10:04Z</time>
      </trkpt>
      <trkpt lat="43.93656" lon="6.49951">
        <ele>1197.1</ele>
        <time>2021-09-12T14:10:05Z</time>
      </trkpt>
      <trkpt lat="43.93654" lon="6.49952">
        <ele>1197.2</ele>
        <time>2021-09-12T14:10:06Z</time>
      </trkpt>
      <trkpt lat="43.9365" lon="6.49952">
        <ele>1197.5</ele>
        <time>2021-09-12T14:10:08Z</time>
      </trkpt>
      <trkpt lat="43.93645" lon="6.49955">
        <ele>1197.8</ele>
        <time>2021-09-12T14:10:11Z</time>
      </trkpt>
      <trkpt lat="43.93644" lon="6.49956">
        <ele>1197.9</ele>
        <time>2021-09-12T14:10:12Z</time>
      </trkpt>
      <trkpt lat="43.93642" lon="6.49957">
        <ele>1198</ele>
        <time>2021-09-12T14:10:13Z</time>
      </trkpt>
      <trkpt lat="43.93641" lon="6.49959">
        <ele>1198.1</ele>
        <time>2021-09-12T14:10:14Z</time>
      </trkpt>
      <trkpt lat="43.93639" lon="6.49961">
        <ele>1198.2</ele>
        <time>2021-09-12T14:10:15Z</time>
      </trkpt>
      <trkpt lat="43.93637" lon="6.49963">
        <ele>1198.4</ele>
        <time>2021-09-12T14:10:16Z</time>
      </trkpt>
      <trkpt lat="43.93634" lon="6.49965">
        <ele>1198.6</ele>
        <time>2021-09-12T14:10:17Z</time>
      </trkpt>
      <trkpt lat="43.93631" lon="6.49968">
        <ele>1198.8</ele>
        <time>2021-09-12T14:10:19Z</time>
      </trkpt>
      <trkpt lat="43.93628" lon="6.49972">
        <ele>1199.1</ele>
        <time>2021-09-12T14:10:21Z</time>
      </trkpt>
      <trkpt lat="43.93626" lon="6.49974">
        <ele>1199.2</ele>
        <time>2021-09-12T14:10:22Z</time>
      </trkpt>
      <trkpt lat="43.93625" lon="6.49976">
        <ele>1199.4</ele>
        <time>2021-09-12T14:10:24Z</time>
      </trkpt>
      <trkpt lat="43.93623" lon="6.49979">
        <ele>1199.6</ele>
        <time>2021-09-12T14:10:25Z</time>
      </trkpt>
      <trkpt lat="43.93622" lon="6.49981">
        <ele>1199.7</ele>
        <time>2021-09-12T14:10:26Z</time>
      </trkpt>
      <trkpt lat="43.93621" lon="6.49983">
        <ele>1199.8</ele>
        <time>2021-09-12T14:10:27Z</time>
      </trkpt>
      <trkpt lat="43.93619" lon="6.49985">
        <ele>1199.9</ele>
        <time>2021-09-12T14:10:28Z</time>
      </trkpt>
      <trkpt lat="43.93618" lon="6.49987">
        <ele>1200.1</ele>
        <time>2021-09-12T14:10:29Z</time>
      </trkpt>
      <trkpt lat="43.93614" lon="6.4999">
        <ele>1200.3</ele>
        <time>2021-09-12T14:10:31Z</time>
      </trkpt>
      <trkpt lat="43.93612" lon="6.49992">
        <ele>1200.5</ele>
        <time>2021-09-12T14:10:32Z</time>
      </trkpt>
      <trkpt lat="43.93611" lon="6.49993">
        <ele>1200.5</ele>
        <time>2021-09-12T14:10:33Z</time>
      </trkpt>
      <trkpt lat="43.9361" lon="6.49994">
        <ele>1200.6</ele>
        <time>2021-09-12T14:10:34Z</time>
      </trkpt>
      <trkpt lat="43.93607" lon="6.49995">
        <ele>1200.8</ele>
        <time>2021-09-12T14:10:35Z</time>
      </trkpt>
      <trkpt lat="43.93604" lon="6.49996">
        <ele>1201</ele>
        <time>2021-09-12T14:10:36Z</time>
      </trkpt>
      <trkpt lat="43.93603" lon="6.49996">
        <ele>1201.1</ele>
        <time>2021-09-12T14:10:37Z</time>
      </trkpt>
      <trkpt lat="43.936" lon="6.49994">
        <ele>1201.3</ele>
        <time>2021-09-12T14:10:38Z</time>
      </trkpt>
      <trkpt lat="43.93598" lon="6.49992">
        <ele>1201.4</ele>
        <time>2021-09-12T14:10:39Z</time>
      </trkpt>
      <trkpt lat="43.93597" lon="6.49991">
        <ele>1201.5</ele>
        <time>2021-09-12T14:10:40Z</time>
      </trkpt>
      <trkpt lat="43.93595" lon="6.49985">
        <ele>1201.8</ele>
        <time>2021-09-12T14:10:42Z</time>
      </trkpt>
      <trkpt lat="43.93594" lon="6.49982">
        <ele>1201.9</ele>
        <time>2021-09-12T14:10:43Z</time>
      </trkpt>
      <trkpt lat="43.93594" lon="6.49977">
        <ele>1202.1</ele>
        <time>2021-09-12T14:10:45Z</time>
      </trkpt>
      <trkpt lat="43.93595" lon="6.49975">
        <ele>1202.2</ele>
        <time>2021-09-12T14:10:46Z</time>
      </trkpt>
      <trkpt lat="43.93596" lon="6.49972">
        <ele>1202.3</ele>
        <time>2021-09-12T14:10:47Z</time>
      </trkpt>
      <trkpt lat="43.93598" lon="6.49968">
        <ele>1202.5</ele>
        <time>2021-09-12T14:10:49Z</time>
      </trkpt>
      <trkpt lat="43.93599" lon="6.49966">
        <ele>1202.6</ele>
        <time>2021-09-12T14:10:50Z</time>
      </trkpt>
      <trkpt lat="43.93601" lon="6.49964">
        <ele>1202.7</ele>
        <time>2021-09-12T14:10:51Z</time>
      </trkpt>
      <trkpt lat="43.93605" lon="6.49962">
        <ele>1202.9</ele>
        <time>2021-09-12T14:10:53Z</time>
      </trkpt>
      <trkpt lat="43.93606" lon="6.49961">
        <ele>1203</ele>
        <time>2021-09-12T14:10:54Z</time>
      </trkpt>
      <trkpt lat="43.93609" lon="6.49959">
        <ele>1203.2</ele>
        <time>2021-09-12T14:10:55Z</time>
      </trkpt>
      <trkpt lat="43.93613" lon="6.49957">
        <ele>1203.5</ele>
        <time>2021-09-12T14:10:57Z</time>
      </trkpt>
      <trkpt lat="43.93617" lon="6.49953">
        <ele>1203.7</ele>
        <time>2021-09-12T14:10:59Z</time>
      </trkpt>
      <trkpt lat="43.93619" lon="6.4995">
        <ele>1203.9</ele>
        <time>2021-09-12T14:11:00Z</time>
      </trkpt>
      <trkpt lat="43.93621" lon="6.49945">
        <ele>1204.1</ele>
        <time>2021-09-12T14:11:02Z</time>
      </trkpt>
      <trkpt lat="43.93623" lon="6.49942">
        <ele>1204.3</ele>
        <time>2021-09-12T14:11:04Z</time>
      </trkpt>
      <trkpt lat="43.93624" lon="6.49938">
        <ele>1204.5</ele>
        <time>2021-09-12T14:11:05Z</time>
      </trkpt>
      <trkpt lat="43.93626" lon="6.49936">
        <ele>1204.6</ele>
        <time>2021-09-12T14:11:06Z</time>
      </trkpt>
      <trkpt lat="43.93628" lon="6.49935">
        <ele>1204.7</ele>
        <time>2021-09-12T14:11:07Z</time>
      </trkpt>
      <trkpt lat="43.93631" lon="6.49932">
        <ele>1205</ele>
        <time>2021-09-12T14:11:09Z</time>
      </trkpt>
      <trkpt lat="43.93633" lon="6.49929">
        <ele>1205.2</ele>
        <time>2021-09-12T14:11:10Z</time>
      </trkpt>
      <trkpt lat="43.93633" lon="6.49928">
        <ele>1205.3</ele>
        <time>2021-09-12T14:11:11Z</time>
      </trkpt>
      <trkpt lat="43.93636" lon="6.49924">
        <ele>1205.5</ele>
        <time>2021-09-12T14:11:12Z</time>
      </trkpt>
      <trkpt lat="43.93638" lon="6.4992">
        <ele>1205.8</ele>
        <time>2021-09-12T14:11:14Z</time>
      </trkpt>
      <trkpt lat="43.9364" lon="6.49915">
        <ele>1206.1</ele>
        <time>2021-09-12T14:11:16Z</time>
      </trkpt>
      <trkpt lat="43.9364" lon="6.49911">
        <ele>1206.3</ele>
        <time>2021-09-12T14:11:18Z</time>
      </trkpt>
      <trkpt lat="43.9364" lon="6.49909">
        <ele>1206.4</ele>
        <time>2021-09-12T14:11:19Z</time>
      </trkpt>
      <trkpt lat="43.93641" lon="6.49907">
        <ele>1206.5</ele>
        <time>2021-09-12T14:11:20Z</time>
      </trkpt>
      <trkpt lat="43.93642" lon="6.49905">
        <ele>1206.6</ele>
        <time>2021-09-12T14:11:21Z</time>
      </trkpt>
      <trkpt lat="43.93643" lon="6.49903">
        <ele>1206.8</ele>
        <time>2021-09-12T14:11:22Z</time>
      </trkpt>
      <trkpt lat="43.93645" lon="6.49901">
        <ele>1207</ele>
        <time>2021-09-12T14:11:23Z</time>
      </trkpt>
      <trkpt lat="43.93646" lon="6.49899">
        <ele>1207.1</ele>
        <time>2021-09-12T14:11:25Z</time>
      </trkpt>
      <trkpt lat="43.93648" lon="6.49894">
        <ele>1207.4</ele>
        <time>2021-09-12T14:11:27Z</time>
      </trkpt>
      <trkpt lat="43.93649" lon="6.49893">
        <ele>1207.5</ele>
        <time>2021-09-12T14:11:28Z</time>
      </trkpt>
      <trkpt lat="43.9365" lon="6.49891">
        <ele>1207.6</ele>
        <time>2021-09-12T14:11:29Z</time>
      </trkpt>
      <trkpt lat="43.93651" lon="6.49889">
        <ele>1207.8</ele>
        <time>2021-09-12T14:11:31Z</time>
      </trkpt>
      <trkpt lat="43.93652" lon="6.49886">
        <ele>1207.9</ele>
        <time>2021-09-12T14:11:32Z</time>
      </trkpt>
      <trkpt lat="43.93654" lon="6.49883">
        <ele>1208.2</ele>
        <time>2021-09-12T14:11:34Z</time>
      </trkpt>
      <trkpt lat="43.93656" lon="6.49876">
        <ele>1208.5</ele>
        <time>2021-09-12T14:11:38Z</time>
      </trkpt>
      <trkpt lat="43.93657" lon="6.49874">
        <ele>1208.7</ele>
        <time>2021-09-12T14:11:39Z</time>
      </trkpt>
      <trkpt lat="43.93658" lon="6.49872">
        <ele>1208.8</ele>
        <time>2021-09-12T14:11:40Z</time>
      </trkpt>
      <trkpt lat="43.93659" lon="6.49869">
        <ele>1208.9</ele>
        <time>2021-09-12T14:11:42Z</time>
      </trkpt>
      <trkpt lat="43.93661" lon="6.49865">
        <ele>1209.1</ele>
        <time>2021-09-12T14:11:43Z</time>
      </trkpt>
      <trkpt lat="43.93661" lon="6.49864">
        <ele>1209.2</ele>
        <time>2021-09-12T14:11:44Z</time>
      </trkpt>
      <trkpt lat="43.93662" lon="6.49859">
        <ele>1209.4</ele>
        <time>2021-09-12T14:11:46Z</time>
      </trkpt>
      <trkpt lat="43.93662" lon="6.49857">
        <ele>1209.5</ele>
        <time>2021-09-12T14:11:47Z</time>
      </trkpt>
      <trkpt lat="43.93662" lon="6.49853">
        <ele>1209.7</ele>
        <time>2021-09-12T14:11:49Z</time>
      </trkpt>
      <trkpt lat="43.93662" lon="6.49848">
        <ele>1210</ele>
        <time>2021-09-12T14:11:50Z</time>
      </trkpt>
      <trkpt lat="43.93661" lon="6.49843">
        <ele>1210</ele>
        <time>2021-09-12T14:11:52Z</time>
      </trkpt>
      <trkpt lat="43.93659" lon="6.4984">
        <ele>1210</ele>
        <time>2021-09-12T14:11:54Z</time>
      </trkpt>
      <trkpt lat="43.93658" lon="6.49839">
        <ele>1210</ele>
        <time>2021-09-12T14:11:55Z</time>
      </trkpt>
      <trkpt lat="43.93655" lon="6.49838">
        <ele>1210.1</ele>
        <time>2021-09-12T14:11:56Z</time>
      </trkpt>
      <trkpt lat="43.93652" lon="6.4984">
        <ele>1210.1</ele>
        <time>2021-09-12T14:11:57Z</time>
      </trkpt>
      <trkpt lat="43.93651" lon="6.49842">
        <ele>1210.2</ele>
        <time>2021-09-12T14:11:58Z</time>
      </trkpt>
      <trkpt lat="43.9365" lon="6.49846">
        <ele>1210.4</ele>
        <time>2021-09-12T14:11:59Z</time>
      </trkpt>
      <trkpt lat="43.93649" lon="6.49851">
        <ele>1210.6</ele>
        <time>2021-09-12T14:12:00Z</time>
      </trkpt>
      <trkpt lat="43.93649" lon="6.49855">
        <ele>1210.7</ele>
        <time>2021-09-12T14:12:01Z</time>
      </trkpt>
      <trkpt lat="43.93648" lon="6.49859">
        <ele>1210.9</ele>
        <time>2021-09-12T14:12:02Z</time>
      </trkpt>
      <trkpt lat="43.93648" lon="6.49863">
        <ele>1211.1</ele>
        <time>2021-09-12T14:12:03Z</time>
      </trkpt>
      <trkpt lat="43.93647" lon="6.49868">
        <ele>1211.2</ele>
        <time>2021-09-12T14:12:04Z</time>
      </trkpt>
      <trkpt lat="43.93646" lon="6.49871">
        <ele>1211.4</ele>
        <time>2021-09-12T14:12:05Z</time>
      </trkpt>
      <trkpt lat="43.93645" lon="6.49873">
        <ele>1211.5</ele>
        <time>2021-09-12T14:12:06Z</time>
      </trkpt>
      <trkpt lat="43.93645" lon="6.49875">
        <ele>1211.6</ele>
        <time>2021-09-12T14:12:07Z</time>
      </trkpt>
      <trkpt lat="43.93644" lon="6.49877">
        <ele>1211.7</ele>
        <time>2021-09-12T14:12:08Z</time>
      </trkpt>
      <trkpt lat="43.93642" lon="6.4988">
        <ele>1211.9</ele>
        <time>2021-09-12T14:12:09Z</time>
      </trkpt>
      <trkpt lat="43.93641" lon="6.49881">
        <ele>1211.9</ele>
        <time>2021-09-12T14:12:10Z</time>
      </trkpt>
      <trkpt lat="43.93639" lon="6.49883">
        <ele>1212.1</ele>
        <time>2021-09-12T14:12:11Z</time>
      </trkpt>
      <trkpt lat="43.93637" lon="6.49885">
        <ele>1212.2</ele>
        <time>2021-09-12T14:12:12Z</time>
      </trkpt>
      <trkpt lat="43.93635" lon="6.49887">
        <ele>1212.4</ele>
        <time>2021-09-12T14:12:13Z</time>
      </trkpt>
      <trkpt lat="43.93631" lon="6.49891">
        <ele>1212.6</ele>
        <time>2021-09-12T14:12:15Z</time>
      </trkpt>
      <trkpt lat="43.93629" lon="6.49896">
        <ele>1212.9</ele>
        <time>2021-09-12T14:12:17Z</time>
      </trkpt>
      <trkpt lat="43.93628" lon="6.49899">
        <ele>1213</ele>
        <time>2021-09-12T14:12:18Z</time>
      </trkpt>
      <trkpt lat="43.93626" lon="6.49904">
        <ele>1213.3</ele>
        <time>2021-09-12T14:12:20Z</time>
      </trkpt>
      <trkpt lat="43.93623" lon="6.49907">
        <ele>1213.5</ele>
        <time>2021-09-12T14:12:22Z</time>
      </trkpt>
      <trkpt lat="43.93619" lon="6.49911">
        <ele>1213.7</ele>
        <time>2021-09-12T14:12:24Z</time>
      </trkpt>
      <trkpt lat="43.93617" lon="6.49913">
        <ele>1213.9</ele>
        <time>2021-09-12T14:12:26Z</time>
      </trkpt>
      <trkpt lat="43.93614" lon="6.49912">
        <ele>1214.1</ele>
        <time>2021-09-12T14:12:27Z</time>
      </trkpt>
      <trkpt lat="43.93612" lon="6.49912">
        <ele>1214.2</ele>
        <time>2021-09-12T14:12:28Z</time>
      </trkpt>
      <trkpt lat="43.9361" lon="6.49912">
        <ele>1214.4</ele>
        <time>2021-09-12T14:12:29Z</time>
      </trkpt>
      <trkpt lat="43.93607" lon="6.49913">
        <ele>1214.5</ele>
        <time>2021-09-12T14:12:30Z</time>
      </trkpt>
      <trkpt lat="43.93605" lon="6.49915">
        <ele>1214.7</ele>
        <time>2021-09-12T14:12:31Z</time>
      </trkpt>
      <trkpt lat="43.93605" lon="6.49916">
        <ele>1214.7</ele>
        <time>2021-09-12T14:12:32Z</time>
      </trkpt>
      <trkpt lat="43.93602" lon="6.49918">
        <ele>1214.9</ele>
        <time>2021-09-12T14:12:33Z</time>
      </trkpt>
      <trkpt lat="43.93601" lon="6.49918">
        <ele>1215</ele>
        <time>2021-09-12T14:12:34Z</time>
      </trkpt>
      <trkpt lat="43.93598" lon="6.49921">
        <ele>1215.2</ele>
        <time>2021-09-12T14:12:35Z</time>
      </trkpt>
      <trkpt lat="43.93598" lon="6.49922">
        <ele>1215.3</ele>
        <time>2021-09-12T14:12:36Z</time>
      </trkpt>
      <trkpt lat="43.93596" lon="6.49924">
        <ele>1215.4</ele>
        <time>2021-09-12T14:12:37Z</time>
      </trkpt>
      <trkpt lat="43.93593" lon="6.49926">
        <ele>1215.7</ele>
        <time>2021-09-12T14:12:39Z</time>
      </trkpt>
      <trkpt lat="43.93591" lon="6.49927">
        <ele>1215.8</ele>
        <time>2021-09-12T14:12:40Z</time>
      </trkpt>
      <trkpt lat="43.9359" lon="6.49929">
        <ele>1216</ele>
        <time>2021-09-12T14:12:41Z</time>
      </trkpt>
      <trkpt lat="43.93588" lon="6.49931">
        <ele>1216.1</ele>
        <time>2021-09-12T14:12:42Z</time>
      </trkpt>
      <trkpt lat="43.93587" lon="6.49934">
        <ele>1216.3</ele>
        <time>2021-09-12T14:12:43Z</time>
      </trkpt>
      <trkpt lat="43.93587" lon="6.49935">
        <ele>1216.4</ele>
        <time>2021-09-12T14:12:44Z</time>
      </trkpt>
      <trkpt lat="43.93586" lon="6.49939">
        <ele>1216.6</ele>
        <time>2021-09-12T14:12:45Z</time>
      </trkpt>
      <trkpt lat="43.93585" lon="6.49939">
        <ele>1216.7</ele>
        <time>2021-09-12T14:12:46Z</time>
      </trkpt>
      <trkpt lat="43.93582" lon="6.4994">
        <ele>1217</ele>
        <time>2021-09-12T14:12:48Z</time>
      </trkpt>
      <trkpt lat="43.93581" lon="6.49941">
        <ele>1217.1</ele>
        <time>2021-09-12T14:12:49Z</time>
      </trkpt>
      <trkpt lat="43.93579" lon="6.49941">
        <ele>1217.2</ele>
        <time>2021-09-12T14:12:50Z</time>
      </trkpt>
      <trkpt lat="43.93575" lon="6.49942">
        <ele>1217.5</ele>
        <time>2021-09-12T14:12:53Z</time>
      </trkpt>
      <trkpt lat="43.93571" lon="6.49942">
        <ele>1217.8</ele>
        <time>2021-09-12T14:12:55Z</time>
      </trkpt>
      <trkpt lat="43.93569" lon="6.49941">
        <ele>1218</ele>
        <time>2021-09-12T14:12:56Z</time>
      </trkpt>
      <trkpt lat="43.93566" lon="6.49941">
        <ele>1218.2</ele>
        <time>2021-09-12T14:12:58Z</time>
      </trkpt>
      <trkpt lat="43.93565" lon="6.49942">
        <ele>1218.3</ele>
        <time>2021-09-12T14:12:59Z</time>
      </trkpt>
      <trkpt lat="43.93563" lon="6.49943">
        <ele>1218.5</ele>
        <time>2021-09-12T14:13:01Z</time>
      </trkpt>
      <trkpt lat="43.93561" lon="6.49945">
        <ele>1218.6</ele>
        <time>2021-09-12T14:13:02Z</time>
      </trkpt>
      <trkpt lat="43.9356" lon="6.49946">
        <ele>1218.8</ele>
        <time>2021-09-12T14:13:03Z</time>
      </trkpt>
      <trkpt lat="43.93557" lon="6.49946">
        <ele>1218.9</ele>
        <time>2021-09-12T14:13:05Z</time>
      </trkpt>
      <trkpt lat="43.93556" lon="6.49947">
        <ele>1219</ele>
        <time>2021-09-12T14:13:06Z</time>
      </trkpt>
      <trkpt lat="43.93553" lon="6.49948">
        <ele>1219.3</ele>
        <time>2021-09-12T14:13:08Z</time>
      </trkpt>
      <trkpt lat="43.93551" lon="6.49949">
        <ele>1219.4</ele>
        <time>2021-09-12T14:13:09Z</time>
      </trkpt>
      <trkpt lat="43.9355" lon="6.4995">
        <ele>1219.5</ele>
        <time>2021-09-12T14:13:10Z</time>
      </trkpt>
      <trkpt lat="43.93547" lon="6.49952">
        <ele>1219.7</ele>
        <time>2021-09-12T14:13:12Z</time>
      </trkpt>
      <trkpt lat="43.93544" lon="6.49954">
        <ele>1220</ele>
        <time>2021-09-12T14:13:14Z</time>
      </trkpt>
      <trkpt lat="43.93543" lon="6.49955">
        <ele>1220.1</ele>
        <time>2021-09-12T14:13:15Z</time>
      </trkpt>
      <trkpt lat="43.93542" lon="6.49956">
        <ele>1220.2</ele>
        <time>2021-09-12T14:13:16Z</time>
      </trkpt>
      <trkpt lat="43.93541" lon="6.49958">
        <ele>1220.3</ele>
        <time>2021-09-12T14:13:17Z</time>
      </trkpt>
      <trkpt lat="43.93539" lon="6.49961">
        <ele>1220.5</ele>
        <time>2021-09-12T14:13:19Z</time>
      </trkpt>
      <trkpt lat="43.93537" lon="6.49964">
        <ele>1220.7</ele>
        <time>2021-09-12T14:13:20Z</time>
      </trkpt>
      <trkpt lat="43.93535" lon="6.49967">
        <ele>1220.9</ele>
        <time>2021-09-12T14:13:22Z</time>
      </trkpt>
      <trkpt lat="43.93534" lon="6.49969">
        <ele>1221</ele>
        <time>2021-09-12T14:13:23Z</time>
      </trkpt>
      <trkpt lat="43.93532" lon="6.4997">
        <ele>1221.2</ele>
        <time>2021-09-12T14:13:24Z</time>
      </trkpt>
      <trkpt lat="43.9353" lon="6.49974">
        <ele>1221.4</ele>
        <time>2021-09-12T14:13:26Z</time>
      </trkpt>
      <trkpt lat="43.93529" lon="6.49975">
        <ele>1221.5</ele>
        <time>2021-09-12T14:13:27Z</time>
      </trkpt>
      <trkpt lat="43.93527" lon="6.49979">
        <ele>1221.7</ele>
        <time>2021-09-12T14:13:28Z</time>
      </trkpt>
      <trkpt lat="43.93526" lon="6.49979">
        <ele>1221.8</ele>
        <time>2021-09-12T14:13:29Z</time>
      </trkpt>
      <trkpt lat="43.93524" lon="6.49981">
        <ele>1221.9</ele>
        <time>2021-09-12T14:13:31Z</time>
      </trkpt>
      <trkpt lat="43.93522" lon="6.49983">
        <ele>1222.1</ele>
        <time>2021-09-12T14:13:32Z</time>
      </trkpt>
      <trkpt lat="43.9352" lon="6.49986">
        <ele>1222.3</ele>
        <time>2021-09-12T14:13:34Z</time>
      </trkpt>
      <trkpt lat="43.93517" lon="6.4999">
        <ele>1222.5</ele>
        <time>2021-09-12T14:13:36Z</time>
      </trkpt>
      <trkpt lat="43.93513" lon="6.49994">
        <ele>1222.8</ele>
        <time>2021-09-12T14:13:39Z</time>
      </trkpt>
      <trkpt lat="43.9351" lon="6.49997">
        <ele>1223</ele>
        <time>2021-09-12T14:13:41Z</time>
      </trkpt>
      <trkpt lat="43.93506" lon="6.49999">
        <ele>1223.3</ele>
        <time>2021-09-12T14:13:43Z</time>
      </trkpt>
      <trkpt lat="43.93501" lon="6.49999">
        <ele>1223.6</ele>
        <time>2021-09-12T14:13:45Z</time>
      </trkpt>
      <trkpt lat="43.935" lon="6.49999">
        <ele>1223.7</ele>
        <time>2021-09-12T14:13:46Z</time>
      </trkpt>
      <trkpt lat="43.93499" lon="6.49999">
        <ele>1223.7</ele>
        <time>2021-09-12T14:13:47Z</time>
      </trkpt>
      <trkpt lat="43.93496" lon="6.50001">
        <ele>1223.9</ele>
        <time>2021-09-12T14:13:48Z</time>
      </trkpt>
      <trkpt lat="43.93495" lon="6.50001">
        <ele>1224</ele>
        <time>2021-09-12T14:13:49Z</time>
      </trkpt>
      <trkpt lat="43.93492" lon="6.50002">
        <ele>1224.2</ele>
        <time>2021-09-12T14:13:50Z</time>
      </trkpt>
      <trkpt lat="43.9349" lon="6.50004">
        <ele>1224.4</ele>
        <time>2021-09-12T14:13:51Z</time>
      </trkpt>
      <trkpt lat="43.93489" lon="6.50005">
        <ele>1224.5</ele>
        <time>2021-09-12T14:13:52Z</time>
      </trkpt>
      <trkpt lat="43.93487" lon="6.50005">
        <ele>1224.6</ele>
        <time>2021-09-12T14:13:53Z</time>
      </trkpt>
      <trkpt lat="43.93486" lon="6.50006">
        <ele>1224.7</ele>
        <time>2021-09-12T14:13:54Z</time>
      </trkpt>
      <trkpt lat="43.93484" lon="6.50007">
        <ele>1224.8</ele>
        <time>2021-09-12T14:13:55Z</time>
      </trkpt>
      <trkpt lat="43.93483" lon="6.50007">
        <ele>1225</ele>
        <time>2021-09-12T14:13:56Z</time>
      </trkpt>
      <trkpt lat="43.93479" lon="6.50007">
        <ele>1225.2</ele>
        <time>2021-09-12T14:13:57Z</time>
      </trkpt>
      <trkpt lat="43.93479" lon="6.50007">
        <ele>1225.2</ele>
        <time>2021-09-12T14:13:58Z</time>
      </trkpt>
      <trkpt lat="43.93476" lon="6.50008">
        <ele>1225.4</ele>
        <time>2021-09-12T14:13:59Z</time>
      </trkpt>
      <trkpt lat="43.93475" lon="6.50008">
        <ele>1225.6</ele>
        <time>2021-09-12T14:14:00Z</time>
      </trkpt>
      <trkpt lat="43.93473" lon="6.50008">
        <ele>1225.7</ele>
        <time>2021-09-12T14:14:01Z</time>
      </trkpt>
      <trkpt lat="43.93471" lon="6.50008">
        <ele>1225.8</ele>
        <time>2021-09-12T14:14:02Z</time>
      </trkpt>
      <trkpt lat="43.93469" lon="6.50007">
        <ele>1226</ele>
        <time>2021-09-12T14:14:03Z</time>
      </trkpt>
      <trkpt lat="43.93465" lon="6.50008">
        <ele>1226.3</ele>
        <time>2021-09-12T14:14:05Z</time>
      </trkpt>
      <trkpt lat="43.93462" lon="6.50008">
        <ele>1226.5</ele>
        <time>2021-09-12T14:14:07Z</time>
      </trkpt>
      <trkpt lat="43.93459" lon="6.50009">
        <ele>1226.7</ele>
        <time>2021-09-12T14:14:08Z</time>
      </trkpt>
      <trkpt lat="43.93457" lon="6.5001">
        <ele>1226.9</ele>
        <time>2021-09-12T14:14:10Z</time>
      </trkpt>
      <trkpt lat="43.93452" lon="6.50011">
        <ele>1227.2</ele>
        <time>2021-09-12T14:14:12Z</time>
      </trkpt>
      <trkpt lat="43.93449" lon="6.50011">
        <ele>1227.5</ele>
        <time>2021-09-12T14:14:15Z</time>
      </trkpt>
      <trkpt lat="43.93446" lon="6.50011">
        <ele>1227.7</ele>
        <time>2021-09-12T14:14:16Z</time>
      </trkpt>
      <trkpt lat="43.93443" lon="6.50013">
        <ele>1227.9</ele>
        <time>2021-09-12T14:14:18Z</time>
      </trkpt>
      <trkpt lat="43.93442" lon="6.50014">
        <ele>1228</ele>
        <time>2021-09-12T14:14:19Z</time>
      </trkpt>
      <trkpt lat="43.93441" lon="6.50013">
        <ele>1228.1</ele>
        <time>2021-09-12T14:14:20Z</time>
      </trkpt>
      <trkpt lat="43.93443" lon="6.50014">
        <ele>1228.2</ele>
        <time>2021-09-12T14:14:21Z</time>
      </trkpt>
      <trkpt lat="43.93444" lon="6.50016">
        <ele>1228.4</ele>
        <time>2021-09-12T14:14:22Z</time>
      </trkpt>
      <trkpt lat="43.93444" lon="6.50018">
        <ele>1228.5</ele>
        <time>2021-09-12T14:14:23Z</time>
      </trkpt>
      <trkpt lat="43.93444" lon="6.50019">
        <ele>1228.5</ele>
        <time>2021-09-12T14:14:24Z</time>
      </trkpt>
      <trkpt lat="43.93439" lon="6.50046">
        <ele>1230</ele>
        <time>2021-09-12T14:14:36Z</time>
      </trkpt>
      <trkpt lat="43.93437" lon="6.50049">
        <ele>1230.3</ele>
        <time>2021-09-12T14:14:37Z</time>
      </trkpt>
      <trkpt lat="43.93434" lon="6.5005">
        <ele>1230.5</ele>
        <time>2021-09-12T14:14:39Z</time>
      </trkpt>
      <trkpt lat="43.93432" lon="6.50051">
        <ele>1230.6</ele>
        <time>2021-09-12T14:14:40Z</time>
      </trkpt>
      <trkpt lat="43.93431" lon="6.50049">
        <ele>1230.7</ele>
        <time>2021-09-12T14:14:41Z</time>
      </trkpt>
      <trkpt lat="43.9343" lon="6.50048">
        <ele>1230.8</ele>
        <time>2021-09-12T14:14:42Z</time>
      </trkpt>
      <trkpt lat="43.93429" lon="6.50047">
        <ele>1230.9</ele>
        <time>2021-09-12T14:14:43Z</time>
      </trkpt>
      <trkpt lat="43.93428" lon="6.50045">
        <ele>1231</ele>
        <time>2021-09-12T14:14:44Z</time>
      </trkpt>
      <trkpt lat="43.93428" lon="6.50043">
        <ele>1231.1</ele>
        <time>2021-09-12T14:14:45Z</time>
      </trkpt>
      <trkpt lat="43.93427" lon="6.50041">
        <ele>1231.2</ele>
        <time>2021-09-12T14:14:46Z</time>
      </trkpt>
      <trkpt lat="43.93427" lon="6.50035">
        <ele>1231.6</ele>
        <time>2021-09-12T14:14:48Z</time>
      </trkpt>
      <trkpt lat="43.93427" lon="6.5003">
        <ele>1231.8</ele>
        <time>2021-09-12T14:14:50Z</time>
      </trkpt>
      <trkpt lat="43.93427" lon="6.50024">
        <ele>1232.1</ele>
        <time>2021-09-12T14:14:52Z</time>
      </trkpt>
      <trkpt lat="43.93427" lon="6.50019">
        <ele>1232.3</ele>
        <time>2021-09-12T14:14:54Z</time>
      </trkpt>
      <trkpt lat="43.93432" lon="6.50014">
        <ele>1232.7</ele>
        <time>2021-09-12T14:14:57Z</time>
      </trkpt>
      <trkpt lat="43.93433" lon="6.50012">
        <ele>1232.8</ele>
        <time>2021-09-12T14:14:58Z</time>
      </trkpt>
      <trkpt lat="43.93435" lon="6.50011">
        <ele>1233</ele>
        <time>2021-09-12T14:14:59Z</time>
      </trkpt>
      <trkpt lat="43.93437" lon="6.50009">
        <ele>1233.2</ele>
        <time>2021-09-12T14:15:01Z</time>
      </trkpt>
      <trkpt lat="43.93439" lon="6.50006">
        <ele>1233.4</ele>
        <time>2021-09-12T14:15:02Z</time>
      </trkpt>
      <trkpt lat="43.9344" lon="6.50004">
        <ele>1233.5</ele>
        <time>2021-09-12T14:15:04Z</time>
      </trkpt>
      <trkpt lat="43.93441" lon="6.50002">
        <ele>1233.6</ele>
        <time>2021-09-12T14:15:05Z</time>
      </trkpt>
      <trkpt lat="43.93442" lon="6.5">
        <ele>1233.8</ele>
        <time>2021-09-12T14:15:06Z</time>
      </trkpt>
      <trkpt lat="43.93443" lon="6.49999">
        <ele>1233.8</ele>
        <time>2021-09-12T14:15:07Z</time>
      </trkpt>
      <trkpt lat="43.93443" lon="6.49997">
        <ele>1233.9</ele>
        <time>2021-09-12T14:15:08Z</time>
      </trkpt>
      <trkpt lat="43.93444" lon="6.49995">
        <ele>1234</ele>
        <time>2021-09-12T14:15:09Z</time>
      </trkpt>
      <trkpt lat="43.93444" lon="6.49992">
        <ele>1234.2</ele>
        <time>2021-09-12T14:15:10Z</time>
      </trkpt>
      <trkpt lat="43.93445" lon="6.4999">
        <ele>1234.3</ele>
        <time>2021-09-12T14:15:12Z</time>
      </trkpt>
      <trkpt lat="43.93445" lon="6.49988">
        <ele>1234.4</ele>
        <time>2021-09-12T14:15:13Z</time>
      </trkpt>
      <trkpt lat="43.93445" lon="6.49986">
        <ele>1234.5</ele>
        <time>2021-09-12T14:15:14Z</time>
      </trkpt>
      <trkpt lat="43.93446" lon="6.49982">
        <ele>1234.7</ele>
        <time>2021-09-12T14:15:15Z</time>
      </trkpt>
      <trkpt lat="43.93446" lon="6.49979">
        <ele>1234.8</ele>
        <time>2021-09-12T14:15:17Z</time>
      </trkpt>
      <trkpt lat="43.93447" lon="6.49977">
        <ele>1235</ele>
        <time>2021-09-12T14:15:18Z</time>
      </trkpt>
      <trkpt lat="43.93449" lon="6.49975">
        <ele>1235.2</ele>
        <time>2021-09-12T14:15:19Z</time>
      </trkpt>
      <trkpt lat="43.9345" lon="6.49972">
        <ele>1235.3</ele>
        <time>2021-09-12T14:15:20Z</time>
      </trkpt>
      <trkpt lat="43.93451" lon="6.4997">
        <ele>1235.5</ele>
        <time>2021-09-12T14:15:21Z</time>
      </trkpt>
      <trkpt lat="43.93452" lon="6.49968">
        <ele>1235.6</ele>
        <time>2021-09-12T14:15:22Z</time>
      </trkpt>
      <trkpt lat="43.93453" lon="6.49966">
        <ele>1235.7</ele>
        <time>2021-09-12T14:15:23Z</time>
      </trkpt>
      <trkpt lat="43.93455" lon="6.49962">
        <ele>1236</ele>
        <time>2021-09-12T14:15:25Z</time>
      </trkpt>
      <trkpt lat="43.93455" lon="6.49961">
        <ele>1236.1</ele>
        <time>2021-09-12T14:15:26Z</time>
      </trkpt>
      <trkpt lat="43.93455" lon="6.49959">
        <ele>1236.2</ele>
        <time>2021-09-12T14:15:27Z</time>
      </trkpt>
      <trkpt lat="43.93456" lon="6.49956">
        <ele>1236.4</ele>
        <time>2021-09-12T14:15:29Z</time>
      </trkpt>
      <trkpt lat="43.93457" lon="6.4995">
        <ele>1236.7</ele>
        <time>2021-09-12T14:15:31Z</time>
      </trkpt>
      <trkpt lat="43.93458" lon="6.49946">
        <ele>1237</ele>
        <time>2021-09-12T14:15:33Z</time>
      </trkpt>
      <trkpt lat="43.93459" lon="6.49945">
        <ele>1237.1</ele>
        <time>2021-09-12T14:15:34Z</time>
      </trkpt>
      <trkpt lat="43.9346" lon="6.49942">
        <ele>1237.2</ele>
        <time>2021-09-12T14:15:35Z</time>
      </trkpt>
      <trkpt lat="43.93463" lon="6.49942">
        <ele>1237.5</ele>
        <time>2021-09-12T14:15:37Z</time>
      </trkpt>
      <trkpt lat="43.93464" lon="6.49941">
        <ele>1237.6</ele>
        <time>2021-09-12T14:15:38Z</time>
      </trkpt>
      <trkpt lat="43.93465" lon="6.49939">
        <ele>1237.7</ele>
        <time>2021-09-12T14:15:39Z</time>
      </trkpt>
      <trkpt lat="43.93465" lon="6.49938">
        <ele>1237.8</ele>
        <time>2021-09-12T14:15:40Z</time>
      </trkpt>
      <trkpt lat="43.93465" lon="6.49934">
        <ele>1238</ele>
        <time>2021-09-12T14:15:42Z</time>
      </trkpt>
      <trkpt lat="43.93465" lon="6.49931">
        <ele>1238.1</ele>
        <time>2021-09-12T14:15:43Z</time>
      </trkpt>
      <trkpt lat="43.93466" lon="6.49927">
        <ele>1238.4</ele>
        <time>2021-09-12T14:15:45Z</time>
      </trkpt>
      <trkpt lat="43.93466" lon="6.49925">
        <ele>1238.5</ele>
        <time>2021-09-12T14:15:46Z</time>
      </trkpt>
      <trkpt lat="43.93467" lon="6.49923">
        <ele>1238.6</ele>
        <time>2021-09-12T14:15:47Z</time>
      </trkpt>
      <trkpt lat="43.93467" lon="6.49921">
        <ele>1238.7</ele>
        <time>2021-09-12T14:15:48Z</time>
      </trkpt>
      <trkpt lat="43.93466" lon="6.49917">
        <ele>1238.9</ele>
        <time>2021-09-12T14:15:49Z</time>
      </trkpt>
      <trkpt lat="43.93466" lon="6.49917">
        <ele>1239</ele>
        <time>2021-09-12T14:15:50Z</time>
      </trkpt>
      <trkpt lat="43.93465" lon="6.49917">
        <ele>1239.1</ele>
        <time>2021-09-12T14:15:51Z</time>
      </trkpt>
      <trkpt lat="43.93463" lon="6.49918">
        <ele>1239.1</ele>
        <time>2021-09-12T14:15:52Z</time>
      </trkpt>
      <trkpt lat="43.93458" lon="6.49917">
        <ele>1239.6</ele>
        <time>2021-09-12T14:15:54Z</time>
      </trkpt>
      <trkpt lat="43.93456" lon="6.49919">
        <ele>1239.8</ele>
        <time>2021-09-12T14:15:55Z</time>
      </trkpt>
      <trkpt lat="43.93454" lon="6.4992">
        <ele>1240.1</ele>
        <time>2021-09-12T14:15:57Z</time>
      </trkpt>
      <trkpt lat="43.93452" lon="6.4992">
        <ele>1240.2</ele>
        <time>2021-09-12T14:15:58Z</time>
      </trkpt>
      <trkpt lat="43.9345" lon="6.49919">
        <ele>1240.4</ele>
        <time>2021-09-12T14:15:59Z</time>
      </trkpt>
      <trkpt lat="43.9345" lon="6.49919">
        <ele>1240.4</ele>
        <time>2021-09-12T14:16:00Z</time>
      </trkpt>
      <trkpt lat="43.93449" lon="6.49917">
        <ele>1240.5</ele>
        <time>2021-09-12T14:16:01Z</time>
      </trkpt>
      <trkpt lat="43.93448" lon="6.49915">
        <ele>1240.7</ele>
        <time>2021-09-12T14:16:02Z</time>
      </trkpt>
      <trkpt lat="43.93448" lon="6.49914">
        <ele>1240.8</ele>
        <time>2021-09-12T14:16:03Z</time>
      </trkpt>
      <trkpt lat="43.93448" lon="6.49913">
        <ele>1240.9</ele>
        <time>2021-09-12T14:16:04Z</time>
      </trkpt>
      <trkpt lat="43.93447" lon="6.49913">
        <ele>1240.9</ele>
        <time>2021-09-12T14:16:05Z</time>
      </trkpt>
      <trkpt lat="43.93447" lon="6.49913">
        <ele>1241</ele>
        <time>2021-09-12T14:16:06Z</time>
      </trkpt>
      <trkpt lat="43.93446" lon="6.49913">
        <ele>1241.1</ele>
        <time>2021-09-12T14:16:07Z</time>
      </trkpt>
      <trkpt lat="43.93445" lon="6.49913">
        <ele>1241.2</ele>
        <time>2021-09-12T14:16:08Z</time>
      </trkpt>
      <trkpt lat="43.93443" lon="6.49913">
        <ele>1241.4</ele>
        <time>2021-09-12T14:16:10Z</time>
      </trkpt>
      <trkpt lat="43.9344" lon="6.49914">
        <ele>1241.6</ele>
        <time>2021-09-12T14:16:14Z</time>
      </trkpt>
      <trkpt lat="43.93437" lon="6.49914">
        <ele>1242</ele>
        <time>2021-09-12T14:16:19Z</time>
      </trkpt>
      <trkpt lat="43.93435" lon="6.49914">
        <ele>1242.1</ele>
        <time>2021-09-12T14:16:21Z</time>
      </trkpt>
      <trkpt lat="43.93434" lon="6.49913">
        <ele>1242.3</ele>
        <time>2021-09-12T14:16:23Z</time>
      </trkpt>
      <trkpt lat="43.93432" lon="6.49913">
        <ele>1242.4</ele>
        <time>2021-09-12T14:16:25Z</time>
      </trkpt>
      <trkpt lat="43.93431" lon="6.49913">
        <ele>1242.5</ele>
        <time>2021-09-12T14:16:27Z</time>
      </trkpt>
      <trkpt lat="43.9343" lon="6.49913">
        <ele>1242.7</ele>
        <time>2021-09-12T14:16:29Z</time>
      </trkpt>
      <trkpt lat="43.93428" lon="6.49913">
        <ele>1242.9</ele>
        <time>2021-09-12T14:16:31Z</time>
      </trkpt>
      <trkpt lat="43.93428" lon="6.49913">
        <ele>1242.9</ele>
        <time>2021-09-12T14:16:32Z</time>
      </trkpt>
      <trkpt lat="43.93427" lon="6.49913">
        <ele>1243</ele>
        <time>2021-09-12T14:16:33Z</time>
      </trkpt>
      <trkpt lat="43.93427" lon="6.49915">
        <ele>1243.1</ele>
        <time>2021-09-12T14:16:34Z</time>
      </trkpt>
      <trkpt lat="43.93427" lon="6.49916">
        <ele>1243.1</ele>
        <time>2021-09-12T14:16:35Z</time>
      </trkpt>
      <trkpt lat="43.93425" lon="6.49918">
        <ele>1243.3</ele>
        <time>2021-09-12T14:16:36Z</time>
      </trkpt>
      <trkpt lat="43.93423" lon="6.4992">
        <ele>1243.5</ele>
        <time>2021-09-12T14:16:38Z</time>
      </trkpt>
      <trkpt lat="43.93422" lon="6.49922">
        <ele>1243.6</ele>
        <time>2021-09-12T14:16:39Z</time>
      </trkpt>
      <trkpt lat="43.93411" lon="6.4994">
        <ele>1245</ele>
        <time>2021-09-12T14:16:51Z</time>
      </trkpt>
      <trkpt lat="43.93408" lon="6.49945">
        <ele>1245.3</ele>
        <time>2021-09-12T14:16:54Z</time>
      </trkpt>
      <trkpt lat="43.93407" lon="6.49946">
        <ele>1245.4</ele>
        <time>2021-09-12T14:16:55Z</time>
      </trkpt>
      <trkpt lat="43.93406" lon="6.4995">
        <ele>1245.6</ele>
        <time>2021-09-12T14:16:57Z</time>
      </trkpt>
      <trkpt lat="43.93405" lon="6.49951">
        <ele>1245.7</ele>
        <time>2021-09-12T14:16:58Z</time>
      </trkpt>
      <trkpt lat="43.93404" lon="6.49954">
        <ele>1245.9</ele>
        <time>2021-09-12T14:16:59Z</time>
      </trkpt>
      <trkpt lat="43.93406" lon="6.49955">
        <ele>1246</ele>
        <time>2021-09-12T14:17:00Z</time>
      </trkpt>
      <trkpt lat="43.93406" lon="6.49957">
        <ele>1246.1</ele>
        <time>2021-09-12T14:17:01Z</time>
      </trkpt>
      <trkpt lat="43.93406" lon="6.49957">
        <ele>1246.2</ele>
        <time>2021-09-12T14:17:02Z</time>
      </trkpt>
      <trkpt lat="43.93405" lon="6.49958">
        <ele>1246.2</ele>
        <time>2021-09-12T14:17:03Z</time>
      </trkpt>
      <trkpt lat="43.93403" lon="6.4996">
        <ele>1246.4</ele>
        <time>2021-09-12T14:17:04Z</time>
      </trkpt>
      <trkpt lat="43.93395" lon="6.49969">
        <ele>1247.2</ele>
        <time>2021-09-12T14:17:12Z</time>
      </trkpt>
      <trkpt lat="43.93393" lon="6.49972">
        <ele>1247.4</ele>
        <time>2021-09-12T14:17:13Z</time>
      </trkpt>
      <trkpt lat="43.93393" lon="6.49974">
        <ele>1247.6</ele>
        <time>2021-09-12T14:17:15Z</time>
      </trkpt>
      <trkpt lat="43.93392" lon="6.49977">
        <ele>1247.7</ele>
        <time>2021-09-12T14:17:16Z</time>
      </trkpt>
      <trkpt lat="43.93391" lon="6.4998">
        <ele>1247.9</ele>
        <time>2021-09-12T14:17:17Z</time>
      </trkpt>
      <trkpt lat="43.9339" lon="6.49982">
        <ele>1248</ele>
        <time>2021-09-12T14:17:18Z</time>
      </trkpt>
      <trkpt lat="43.9339" lon="6.49983">
        <ele>1248.1</ele>
        <time>2021-09-12T14:17:19Z</time>
      </trkpt>
      <trkpt lat="43.9339" lon="6.49986">
        <ele>1248.3</ele>
        <time>2021-09-12T14:17:20Z</time>
      </trkpt>
      <trkpt lat="43.9339" lon="6.49987">
        <ele>1248.3</ele>
        <time>2021-09-12T14:17:21Z</time>
      </trkpt>
      <trkpt lat="43.93389" lon="6.49989">
        <ele>1248.5</ele>
        <time>2021-09-12T14:17:22Z</time>
      </trkpt>
      <trkpt lat="43.93387" lon="6.49991">
        <ele>1248.6</ele>
        <time>2021-09-12T14:17:23Z</time>
      </trkpt>
      <trkpt lat="43.93386" lon="6.49995">
        <ele>1248.9</ele>
        <time>2021-09-12T14:17:25Z</time>
      </trkpt>
      <trkpt lat="43.93385" lon="6.49996">
        <ele>1249</ele>
        <time>2021-09-12T14:17:26Z</time>
      </trkpt>
      <trkpt lat="43.93383" lon="6.50001">
        <ele>1249.3</ele>
        <time>2021-09-12T14:17:28Z</time>
      </trkpt>
      <trkpt lat="43.9338" lon="6.50006">
        <ele>1249.6</ele>
        <time>2021-09-12T14:17:31Z</time>
      </trkpt>
      <trkpt lat="43.93379" lon="6.5001">
        <ele>1249.9</ele>
        <time>2021-09-12T14:17:33Z</time>
      </trkpt>
      <trkpt lat="43.93378" lon="6.50012">
        <ele>1250</ele>
        <time>2021-09-12T14:17:34Z</time>
      </trkpt>
      <trkpt lat="43.93378" lon="6.50017">
        <ele>1250.3</ele>
        <time>2021-09-12T14:17:36Z</time>
      </trkpt>
      <trkpt lat="43.93378" lon="6.50018">
        <ele>1250.3</ele>
        <time>2021-09-12T14:17:37Z</time>
      </trkpt>
      <trkpt lat="43.93378" lon="6.50024">
        <ele>1250.6</ele>
        <time>2021-09-12T14:17:40Z</time>
      </trkpt>
      <trkpt lat="43.93378" lon="6.50028">
        <ele>1250.9</ele>
        <time>2021-09-12T14:17:42Z</time>
      </trkpt>
      <trkpt lat="43.93379" lon="6.50033">
        <ele>1251.2</ele>
        <time>2021-09-12T14:17:45Z</time>
      </trkpt>
      <trkpt lat="43.93378" lon="6.50036">
        <ele>1251.3</ele>
        <time>2021-09-12T14:17:46Z</time>
      </trkpt>
      <trkpt lat="43.93378" lon="6.50038">
        <ele>1251.4</ele>
        <time>2021-09-12T14:17:47Z</time>
      </trkpt>
      <trkpt lat="43.93376" lon="6.50042">
        <ele>1251.7</ele>
        <time>2021-09-12T14:17:49Z</time>
      </trkpt>
      <trkpt lat="43.93376" lon="6.50044">
        <ele>1251.8</ele>
        <time>2021-09-12T14:17:50Z</time>
      </trkpt>
      <trkpt lat="43.93375" lon="6.50045">
        <ele>1251.9</ele>
        <time>2021-09-12T14:17:51Z</time>
      </trkpt>
      <trkpt lat="43.93375" lon="6.50047">
        <ele>1252</ele>
        <time>2021-09-12T14:17:52Z</time>
      </trkpt>
      <trkpt lat="43.93374" lon="6.50049">
        <ele>1252.1</ele>
        <time>2021-09-12T14:17:53Z</time>
      </trkpt>
      <trkpt lat="43.93373" lon="6.50051">
        <ele>1252.2</ele>
        <time>2021-09-12T14:17:54Z</time>
      </trkpt>
      <trkpt lat="43.93372" lon="6.50053">
        <ele>1252.3</ele>
        <time>2021-09-12T14:17:55Z</time>
      </trkpt>
      <trkpt lat="43.93371" lon="6.50057">
        <ele>1252.5</ele>
        <time>2021-09-12T14:17:56Z</time>
      </trkpt>
      <trkpt lat="43.93371" lon="6.50059">
        <ele>1252.6</ele>
        <time>2021-09-12T14:17:57Z</time>
      </trkpt>
      <trkpt lat="43.9337" lon="6.50061">
        <ele>1252.8</ele>
        <time>2021-09-12T14:17:58Z</time>
      </trkpt>
      <trkpt lat="43.93369" lon="6.50063">
        <ele>1252.9</ele>
        <time>2021-09-12T14:17:59Z</time>
      </trkpt>
      <trkpt lat="43.93368" lon="6.50067">
        <ele>1253.1</ele>
        <time>2021-09-12T14:18:01Z</time>
      </trkpt>
      <trkpt lat="43.93367" lon="6.50071">
        <ele>1253.3</ele>
        <time>2021-09-12T14:18:03Z</time>
      </trkpt>
      <trkpt lat="43.93366" lon="6.50074">
        <ele>1253.5</ele>
        <time>2021-09-12T14:18:04Z</time>
      </trkpt>
      <trkpt lat="43.93366" lon="6.50076">
        <ele>1253.5</ele>
        <time>2021-09-12T14:18:05Z</time>
      </trkpt>
      <trkpt lat="43.93365" lon="6.50078">
        <ele>1253.6</ele>
        <time>2021-09-12T14:18:06Z</time>
      </trkpt>
      <trkpt lat="43.93364" lon="6.5008">
        <ele>1253.7</ele>
        <time>2021-09-12T14:18:07Z</time>
      </trkpt>
      <trkpt lat="43.93363" lon="6.50085">
        <ele>1254</ele>
        <time>2021-09-12T14:18:09Z</time>
      </trkpt>
      <trkpt lat="43.93361" lon="6.50089">
        <ele>1254.2</ele>
        <time>2021-09-12T14:18:11Z</time>
      </trkpt>
      <trkpt lat="43.9336" lon="6.50091">
        <ele>1254.3</ele>
        <time>2021-09-12T14:18:12Z</time>
      </trkpt>
      <trkpt lat="43.93359" lon="6.50094">
        <ele>1254.5</ele>
        <time>2021-09-12T14:18:13Z</time>
      </trkpt>
      <trkpt lat="43.93357" lon="6.50097">
        <ele>1254.7</ele>
        <time>2021-09-12T14:18:15Z</time>
      </trkpt>
      <trkpt lat="43.93356" lon="6.50099">
        <ele>1254.8</ele>
        <time>2021-09-12T14:18:16Z</time>
      </trkpt>
      <trkpt lat="43.93355" lon="6.50101">
        <ele>1255</ele>
        <time>2021-09-12T14:18:17Z</time>
      </trkpt>
      <trkpt lat="43.93354" lon="6.50104">
        <ele>1255.1</ele>
        <time>2021-09-12T14:18:18Z</time>
      </trkpt>
      <trkpt lat="43.93353" lon="6.50107">
        <ele>1255.3</ele>
        <time>2021-09-12T14:18:19Z</time>
      </trkpt>
      <trkpt lat="43.93352" lon="6.50109">
        <ele>1255.5</ele>
        <time>2021-09-12T14:18:20Z</time>
      </trkpt>
      <trkpt lat="43.93352" lon="6.50111">
        <ele>1255.6</ele>
        <time>2021-09-12T14:18:21Z</time>
      </trkpt>
      <trkpt lat="43.93353" lon="6.50115">
        <ele>1255.8</ele>
        <time>2021-09-12T14:18:22Z</time>
      </trkpt>
      <trkpt lat="43.93353" lon="6.50116">
        <ele>1255.9</ele>
        <time>2021-09-12T14:18:23Z</time>
      </trkpt>
      <trkpt lat="43.93354" lon="6.50118">
        <ele>1256</ele>
        <time>2021-09-12T14:18:24Z</time>
      </trkpt>
      <trkpt lat="43.93353" lon="6.5012">
        <ele>1256.2</ele>
        <time>2021-09-12T14:18:25Z</time>
      </trkpt>
      <trkpt lat="43.93353" lon="6.50123">
        <ele>1256.3</ele>
        <time>2021-09-12T14:18:26Z</time>
      </trkpt>
      <trkpt lat="43.93352" lon="6.50126">
        <ele>1256.5</ele>
        <time>2021-09-12T14:18:28Z</time>
      </trkpt>
      <trkpt lat="43.93351" lon="6.5013">
        <ele>1256.8</ele>
        <time>2021-09-12T14:18:30Z</time>
      </trkpt>
      <trkpt lat="43.93351" lon="6.50133">
        <ele>1257</ele>
        <time>2021-09-12T14:18:31Z</time>
      </trkpt>
      <trkpt lat="43.93351" lon="6.50137">
        <ele>1257.2</ele>
        <time>2021-09-12T14:18:33Z</time>
      </trkpt>
      <trkpt lat="43.93351" lon="6.50138">
        <ele>1257.3</ele>
        <time>2021-09-12T14:18:34Z</time>
      </trkpt>
      <trkpt lat="43.93351" lon="6.50141">
        <ele>1257.4</ele>
        <time>2021-09-12T14:18:35Z</time>
      </trkpt>
      <trkpt lat="43.93351" lon="6.50143">
        <ele>1257.6</ele>
        <time>2021-09-12T14:18:36Z</time>
      </trkpt>
      <trkpt lat="43.9335" lon="6.50144">
        <ele>1257.7</ele>
        <time>2021-09-12T14:18:37Z</time>
      </trkpt>
      <trkpt lat="43.93351" lon="6.50146">
        <ele>1257.8</ele>
        <time>2021-09-12T14:18:38Z</time>
      </trkpt>
      <trkpt lat="43.93353" lon="6.50147">
        <ele>1258</ele>
        <time>2021-09-12T14:18:39Z</time>
      </trkpt>
      <trkpt lat="43.93354" lon="6.50149">
        <ele>1258.1</ele>
        <time>2021-09-12T14:18:40Z</time>
      </trkpt>
      <trkpt lat="43.93355" lon="6.5015">
        <ele>1258.2</ele>
        <time>2021-09-12T14:18:41Z</time>
      </trkpt>
      <trkpt lat="43.93357" lon="6.50154">
        <ele>1258.5</ele>
        <time>2021-09-12T14:18:43Z</time>
      </trkpt>
      <trkpt lat="43.93358" lon="6.50155">
        <ele>1258.6</ele>
        <time>2021-09-12T14:18:44Z</time>
      </trkpt>
      <trkpt lat="43.93359" lon="6.50156">
        <ele>1258.8</ele>
        <time>2021-09-12T14:18:45Z</time>
      </trkpt>
      <trkpt lat="43.93362" lon="6.50158">
        <ele>1259</ele>
        <time>2021-09-12T14:18:47Z</time>
      </trkpt>
      <trkpt lat="43.93365" lon="6.50159">
        <ele>1259.2</ele>
        <time>2021-09-12T14:18:49Z</time>
      </trkpt>
      <trkpt lat="43.93366" lon="6.50159">
        <ele>1259.3</ele>
        <time>2021-09-12T14:18:50Z</time>
      </trkpt>
      <trkpt lat="43.9337" lon="6.50158">
        <ele>1259.6</ele>
        <time>2021-09-12T14:18:53Z</time>
      </trkpt>
      <trkpt lat="43.93374" lon="6.50158">
        <ele>1259.9</ele>
        <time>2021-09-12T14:18:56Z</time>
      </trkpt>
      <trkpt lat="43.93375" lon="6.50159">
        <ele>1259.9</ele>
        <time>2021-09-12T14:18:57Z</time>
      </trkpt>
      <trkpt lat="43.93377" lon="6.50159">
        <ele>1260</ele>
        <time>2021-09-12T14:18:58Z</time>
      </trkpt>
      <trkpt lat="43.93379" lon="6.50165">
        <ele>1260.3</ele>
        <time>2021-09-12T14:19:00Z</time>
      </trkpt>
      <trkpt lat="43.93379" lon="6.5017">
        <ele>1260.4</ele>
        <time>2021-09-12T14:19:03Z</time>
      </trkpt>
      <trkpt lat="43.9338" lon="6.50172">
        <ele>1260.5</ele>
        <time>2021-09-12T14:19:04Z</time>
      </trkpt>
      <trkpt lat="43.9338" lon="6.50176">
        <ele>1260.6</ele>
        <time>2021-09-12T14:19:05Z</time>
      </trkpt>
      <trkpt lat="43.93381" lon="6.5018">
        <ele>1260.8</ele>
        <time>2021-09-12T14:19:06Z</time>
      </trkpt>
      <trkpt lat="43.93381" lon="6.50183">
        <ele>1260.9</ele>
        <time>2021-09-12T14:19:07Z</time>
      </trkpt>
      <trkpt lat="43.93381" lon="6.50185">
        <ele>1260.9</ele>
        <time>2021-09-12T14:19:08Z</time>
      </trkpt>
      <trkpt lat="43.93379" lon="6.5019">
        <ele>1261.1</ele>
        <time>2021-09-12T14:19:10Z</time>
      </trkpt>
      <trkpt lat="43.93377" lon="6.50192">
        <ele>1261.2</ele>
        <time>2021-09-12T14:19:11Z</time>
      </trkpt>
      <trkpt lat="43.93375" lon="6.50193">
        <ele>1261.2</ele>
        <time>2021-09-12T14:19:12Z</time>
      </trkpt>
      <trkpt lat="43.93372" lon="6.50194">
        <ele>1261.4</ele>
        <time>2021-09-12T14:19:13Z</time>
      </trkpt>
      <trkpt lat="43.93369" lon="6.50193">
        <ele>1261.5</ele>
        <time>2021-09-12T14:19:14Z</time>
      </trkpt>
      <trkpt lat="43.93367" lon="6.50192">
        <ele>1261.6</ele>
        <time>2021-09-12T14:19:15Z</time>
      </trkpt>
      <trkpt lat="43.93364" lon="6.50189">
        <ele>1261.7</ele>
        <time>2021-09-12T14:19:16Z</time>
      </trkpt>
      <trkpt lat="43.93363" lon="6.50189">
        <ele>1261.8</ele>
        <time>2021-09-12T14:19:17Z</time>
      </trkpt>
      <trkpt lat="43.93361" lon="6.50186">
        <ele>1261.9</ele>
        <time>2021-09-12T14:19:18Z</time>
      </trkpt>
      <trkpt lat="43.93359" lon="6.50183">
        <ele>1262</ele>
        <time>2021-09-12T14:19:19Z</time>
      </trkpt>
      <trkpt lat="43.93356" lon="6.50178">
        <ele>1262.2</ele>
        <time>2021-09-12T14:19:20Z</time>
      </trkpt>
      <trkpt lat="43.93352" lon="6.50174">
        <ele>1262.5</ele>
        <time>2021-09-12T14:19:22Z</time>
      </trkpt>
      <trkpt lat="43.93349" lon="6.50173">
        <ele>1262.6</ele>
        <time>2021-09-12T14:19:23Z</time>
      </trkpt>
      <trkpt lat="43.93346" lon="6.50173">
        <ele>1262.8</ele>
        <time>2021-09-12T14:19:25Z</time>
      </trkpt>
      <trkpt lat="43.93342" lon="6.50171">
        <ele>1263</ele>
        <time>2021-09-12T14:19:26Z</time>
      </trkpt>
      <trkpt lat="43.93338" lon="6.50169">
        <ele>1263.3</ele>
        <time>2021-09-12T14:19:28Z</time>
      </trkpt>
      <trkpt lat="43.93335" lon="6.50167">
        <ele>1263.5</ele>
        <time>2021-09-12T14:19:29Z</time>
      </trkpt>
      <trkpt lat="43.93332" lon="6.50165">
        <ele>1263.6</ele>
        <time>2021-09-12T14:19:31Z</time>
      </trkpt>
      <trkpt lat="43.9333" lon="6.50163">
        <ele>1263.8</ele>
        <time>2021-09-12T14:19:32Z</time>
      </trkpt>
      <trkpt lat="43.93325" lon="6.50161">
        <ele>1264.1</ele>
        <time>2021-09-12T14:19:34Z</time>
      </trkpt>
      <trkpt lat="43.93322" lon="6.50159">
        <ele>1264.3</ele>
        <time>2021-09-12T14:19:35Z</time>
      </trkpt>
      <trkpt lat="43.93318" lon="6.50159">
        <ele>1264.5</ele>
        <time>2021-09-12T14:19:37Z</time>
      </trkpt>
      <trkpt lat="43.93315" lon="6.5016">
        <ele>1264.7</ele>
        <time>2021-09-12T14:19:38Z</time>
      </trkpt>
      <trkpt lat="43.93314" lon="6.50161">
        <ele>1264.8</ele>
        <time>2021-09-12T14:19:39Z</time>
      </trkpt>
      <trkpt lat="43.93312" lon="6.50161">
        <ele>1264.9</ele>
        <time>2021-09-12T14:19:40Z</time>
      </trkpt>
      <trkpt lat="43.93309" lon="6.50162">
        <ele>1265.1</ele>
        <time>2021-09-12T14:19:42Z</time>
      </trkpt>
      <trkpt lat="43.93306" lon="6.50164">
        <ele>1265.3</ele>
        <time>2021-09-12T14:19:43Z</time>
      </trkpt>
      <trkpt lat="43.93305" lon="6.50164">
        <ele>1265.4</ele>
        <time>2021-09-12T14:19:44Z</time>
      </trkpt>
      <trkpt lat="43.93302" lon="6.50167">
        <ele>1265.6</ele>
        <time>2021-09-12T14:19:45Z</time>
      </trkpt>
      <trkpt lat="43.93302" lon="6.50169">
        <ele>1265.7</ele>
        <time>2021-09-12T14:19:46Z</time>
      </trkpt>
      <trkpt lat="43.93297" lon="6.50175">
        <ele>1266.2</ele>
        <time>2021-09-12T14:19:49Z</time>
      </trkpt>
      <trkpt lat="43.93296" lon="6.50177">
        <ele>1266.3</ele>
        <time>2021-09-12T14:19:50Z</time>
      </trkpt>
      <trkpt lat="43.93294" lon="6.5018">
        <ele>1266.6</ele>
        <time>2021-09-12T14:19:52Z</time>
      </trkpt>
      <trkpt lat="43.93292" lon="6.50182">
        <ele>1266.7</ele>
        <time>2021-09-12T14:19:54Z</time>
      </trkpt>
      <trkpt lat="43.9329" lon="6.50183">
        <ele>1266.9</ele>
        <time>2021-09-12T14:19:55Z</time>
      </trkpt>
      <trkpt lat="43.93289" lon="6.50186">
        <ele>1267.1</ele>
        <time>2021-09-12T14:19:56Z</time>
      </trkpt>
      <trkpt lat="43.93288" lon="6.50188">
        <ele>1267.2</ele>
        <time>2021-09-12T14:19:57Z</time>
      </trkpt>
      <trkpt lat="43.93286" lon="6.50188">
        <ele>1267.3</ele>
        <time>2021-09-12T14:19:58Z</time>
      </trkpt>
      <trkpt lat="43.93285" lon="6.50187">
        <ele>1267.5</ele>
        <time>2021-09-12T14:20:00Z</time>
      </trkpt>
      <trkpt lat="43.93282" lon="6.50184">
        <ele>1267.7</ele>
        <time>2021-09-12T14:20:01Z</time>
      </trkpt>
      <trkpt lat="43.93279" lon="6.50182">
        <ele>1268</ele>
        <time>2021-09-12T14:20:03Z</time>
      </trkpt>
      <trkpt lat="43.93278" lon="6.5018">
        <ele>1268.2</ele>
        <time>2021-09-12T14:20:05Z</time>
      </trkpt>
      <trkpt lat="43.93276" lon="6.50175">
        <ele>1268.4</ele>
        <time>2021-09-12T14:20:07Z</time>
      </trkpt>
      <trkpt lat="43.93274" lon="6.50169">
        <ele>1268.8</ele>
        <time>2021-09-12T14:20:09Z</time>
      </trkpt>
      <trkpt lat="43.93274" lon="6.50166">
        <ele>1269</ele>
        <time>2021-09-12T14:20:10Z</time>
      </trkpt>
      <trkpt lat="43.93274" lon="6.50164">
        <ele>1269.1</ele>
        <time>2021-09-12T14:20:11Z</time>
      </trkpt>
      <trkpt lat="43.93274" lon="6.50162">
        <ele>1269.2</ele>
        <time>2021-09-12T14:20:12Z</time>
      </trkpt>
      <trkpt lat="43.93274" lon="6.50161">
        <ele>1269.3</ele>
        <time>2021-09-12T14:20:13Z</time>
      </trkpt>
      <trkpt lat="43.93273" lon="6.50159">
        <ele>1269.4</ele>
        <time>2021-09-12T14:20:14Z</time>
      </trkpt>
      <trkpt lat="43.93263" lon="6.50148">
        <ele>1270.4</ele>
        <time>2021-09-12T14:20:24Z</time>
      </trkpt>
      <trkpt lat="43.93259" lon="6.50146">
        <ele>1270.7</ele>
        <time>2021-09-12T14:20:28Z</time>
      </trkpt>
      <trkpt lat="43.93257" lon="6.50144">
        <ele>1270.9</ele>
        <time>2021-09-12T14:20:29Z</time>
      </trkpt>
      <trkpt lat="43.93255" lon="6.5014">
        <ele>1271.2</ele>
        <time>2021-09-12T14:20:32Z</time>
      </trkpt>
      <trkpt lat="43.93253" lon="6.50137">
        <ele>1271.4</ele>
        <time>2021-09-12T14:20:34Z</time>
      </trkpt>
      <trkpt lat="43.93252" lon="6.50133">
        <ele>1271.6</ele>
        <time>2021-09-12T14:20:36Z</time>
      </trkpt>
      <trkpt lat="43.93252" lon="6.50128">
        <ele>1271.9</ele>
        <time>2021-09-12T14:20:39Z</time>
      </trkpt>
      <trkpt lat="43.93253" lon="6.50126">
        <ele>1272</ele>
        <time>2021-09-12T14:20:40Z</time>
      </trkpt>
      <trkpt lat="43.93253" lon="6.50125">
        <ele>1272.1</ele>
        <time>2021-09-12T14:20:41Z</time>
      </trkpt>
      <trkpt lat="43.93257" lon="6.50124">
        <ele>1272.4</ele>
        <time>2021-09-12T14:20:43Z</time>
      </trkpt>
      <trkpt lat="43.93259" lon="6.50123">
        <ele>1272.5</ele>
        <time>2021-09-12T14:20:44Z</time>
      </trkpt>
      <trkpt lat="43.9326" lon="6.50122">
        <ele>1272.6</ele>
        <time>2021-09-12T14:20:45Z</time>
      </trkpt>
      <trkpt lat="43.93261" lon="6.5012">
        <ele>1272.8</ele>
        <time>2021-09-12T14:20:46Z</time>
      </trkpt>
      <trkpt lat="43.93262" lon="6.50119">
        <ele>1272.9</ele>
        <time>2021-09-12T14:20:47Z</time>
      </trkpt>
      <trkpt lat="43.93263" lon="6.50119">
        <ele>1272.9</ele>
        <time>2021-09-12T14:20:48Z</time>
      </trkpt>
      <trkpt lat="43.93264" lon="6.50117">
        <ele>1273.1</ele>
        <time>2021-09-12T14:20:49Z</time>
      </trkpt>
      <trkpt lat="43.93266" lon="6.50116">
        <ele>1273.2</ele>
        <time>2021-09-12T14:20:50Z</time>
      </trkpt>
      <trkpt lat="43.93268" lon="6.50114">
        <ele>1273.4</ele>
        <time>2021-09-12T14:20:51Z</time>
      </trkpt>
      <trkpt lat="43.93269" lon="6.50114">
        <ele>1273.5</ele>
        <time>2021-09-12T14:20:52Z</time>
      </trkpt>
      <trkpt lat="43.93271" lon="6.50114">
        <ele>1273.6</ele>
        <time>2021-09-12T14:20:53Z</time>
      </trkpt>
      <trkpt lat="43.93276" lon="6.50094">
        <ele>1274.7</ele>
        <time>2021-09-12T14:21:03Z</time>
      </trkpt>
      <trkpt lat="43.93277" lon="6.50091">
        <ele>1274.9</ele>
        <time>2021-09-12T14:21:05Z</time>
      </trkpt>
      <trkpt lat="43.9328" lon="6.50086">
        <ele>1275.2</ele>
        <time>2021-09-12T14:21:08Z</time>
      </trkpt>
      <trkpt lat="43.93282" lon="6.50082">
        <ele>1275.5</ele>
        <time>2021-09-12T14:21:10Z</time>
      </trkpt>
      <trkpt lat="43.93284" lon="6.50079">
        <ele>1275.7</ele>
        <time>2021-09-12T14:21:12Z</time>
      </trkpt>
      <trkpt lat="43.93285" lon="6.50077">
        <ele>1275.8</ele>
        <time>2021-09-12T14:21:13Z</time>
      </trkpt>
      <trkpt lat="43.93286" lon="6.50074">
        <ele>1276</ele>
        <time>2021-09-12T14:21:15Z</time>
      </trkpt>
      <trkpt lat="43.93286" lon="6.50072">
        <ele>1276.1</ele>
        <time>2021-09-12T14:21:16Z</time>
      </trkpt>
      <trkpt lat="43.93287" lon="6.50068">
        <ele>1276.3</ele>
        <time>2021-09-12T14:21:18Z</time>
      </trkpt>
      <trkpt lat="43.93288" lon="6.50066">
        <ele>1276.5</ele>
        <time>2021-09-12T14:21:19Z</time>
      </trkpt>
      <trkpt lat="43.93289" lon="6.50064">
        <ele>1276.6</ele>
        <time>2021-09-12T14:21:20Z</time>
      </trkpt>
      <trkpt lat="43.93291" lon="6.50061">
        <ele>1276.9</ele>
        <time>2021-09-12T14:21:22Z</time>
      </trkpt>
      <trkpt lat="43.93292" lon="6.5006">
        <ele>1276.9</ele>
        <time>2021-09-12T14:21:23Z</time>
      </trkpt>
      <trkpt lat="43.93292" lon="6.50059">
        <ele>1277</ele>
        <time>2021-09-12T14:21:24Z</time>
      </trkpt>
      <trkpt lat="43.93293" lon="6.50056">
        <ele>1277.2</ele>
        <time>2021-09-12T14:21:25Z</time>
      </trkpt>
      <trkpt lat="43.93292" lon="6.50053">
        <ele>1277.3</ele>
        <time>2021-09-12T14:21:26Z</time>
      </trkpt>
      <trkpt lat="43.93291" lon="6.50053">
        <ele>1277.4</ele>
        <time>2021-09-12T14:21:27Z</time>
      </trkpt>
      <trkpt lat="43.9329" lon="6.5005">
        <ele>1277.5</ele>
        <time>2021-09-12T14:21:29Z</time>
      </trkpt>
      <trkpt lat="43.93289" lon="6.50049">
        <ele>1277.6</ele>
        <time>2021-09-12T14:21:30Z</time>
      </trkpt>
      <trkpt lat="43.93288" lon="6.50047">
        <ele>1277.8</ele>
        <time>2021-09-12T14:21:31Z</time>
      </trkpt>
      <trkpt lat="43.93287" lon="6.50044">
        <ele>1277.9</ele>
        <time>2021-09-12T14:21:32Z</time>
      </trkpt>
      <trkpt lat="43.93285" lon="6.50039">
        <ele>1278.2</ele>
        <time>2021-09-12T14:21:35Z</time>
      </trkpt>
      <trkpt lat="43.93284" lon="6.50036">
        <ele>1278.4</ele>
        <time>2021-09-12T14:21:37Z</time>
      </trkpt>
      <trkpt lat="43.93283" lon="6.50033">
        <ele>1278.6</ele>
        <time>2021-09-12T14:21:38Z</time>
      </trkpt>
      <trkpt lat="43.93281" lon="6.50029">
        <ele>1278.8</ele>
        <time>2021-09-12T14:21:40Z</time>
      </trkpt>
      <trkpt lat="43.93278" lon="6.50025">
        <ele>1279</ele>
        <time>2021-09-12T14:21:42Z</time>
      </trkpt>
      <trkpt lat="43.93277" lon="6.50023">
        <ele>1279.2</ele>
        <time>2021-09-12T14:21:44Z</time>
      </trkpt>
      <trkpt lat="43.93276" lon="6.50019">
        <ele>1279.3</ele>
        <time>2021-09-12T14:21:45Z</time>
      </trkpt>
      <trkpt lat="43.93276" lon="6.50016">
        <ele>1279.5</ele>
        <time>2021-09-12T14:21:46Z</time>
      </trkpt>
      <trkpt lat="43.93275" lon="6.50014">
        <ele>1279.6</ele>
        <time>2021-09-12T14:21:47Z</time>
      </trkpt>
      <trkpt lat="43.93274" lon="6.50012">
        <ele>1279.7</ele>
        <time>2021-09-12T14:21:48Z</time>
      </trkpt>
      <trkpt lat="43.93273" lon="6.50008">
        <ele>1279.8</ele>
        <time>2021-09-12T14:21:49Z</time>
      </trkpt>
      <trkpt lat="43.93271" lon="6.50004">
        <ele>1280</ele>
        <time>2021-09-12T14:21:51Z</time>
      </trkpt>
      <trkpt lat="43.9327" lon="6.50002">
        <ele>1279.9</ele>
        <time>2021-09-12T14:21:52Z</time>
      </trkpt>
      <trkpt lat="43.93269" lon="6.5">
        <ele>1279.9</ele>
        <time>2021-09-12T14:21:53Z</time>
      </trkpt>
      <trkpt lat="43.93267" lon="6.49996">
        <ele>1279.8</ele>
        <time>2021-09-12T14:21:54Z</time>
      </trkpt>
      <trkpt lat="43.93265" lon="6.49994">
        <ele>1279.8</ele>
        <time>2021-09-12T14:21:55Z</time>
      </trkpt>
      <trkpt lat="43.93264" lon="6.49991">
        <ele>1279.8</ele>
        <time>2021-09-12T14:21:56Z</time>
      </trkpt>
      <trkpt lat="43.93264" lon="6.49985">
        <ele>1279.7</ele>
        <time>2021-09-12T14:21:57Z</time>
      </trkpt>
      <trkpt lat="43.93263" lon="6.49981">
        <ele>1279.7</ele>
        <time>2021-09-12T14:21:58Z</time>
      </trkpt>
      <trkpt lat="43.9326" lon="6.49973">
        <ele>1279.7</ele>
        <time>2021-09-12T14:21:59Z</time>
      </trkpt>
      <trkpt lat="43.93257" lon="6.4997">
        <ele>1279.7</ele>
        <time>2021-09-12T14:22:00Z</time>
      </trkpt>
      <trkpt lat="43.93254" lon="6.49967">
        <ele>1279.7</ele>
        <time>2021-09-12T14:22:01Z</time>
      </trkpt>
      <trkpt lat="43.93252" lon="6.49965">
        <ele>1279.7</ele>
        <time>2021-09-12T14:22:02Z</time>
      </trkpt>
      <trkpt lat="43.93249" lon="6.49962">
        <ele>1279.7</ele>
        <time>2021-09-12T14:22:03Z</time>
      </trkpt>
      <trkpt lat="43.93245" lon="6.4996">
        <ele>1279.7</ele>
        <time>2021-09-12T14:22:04Z</time>
      </trkpt>
      <trkpt lat="43.93243" lon="6.49959">
        <ele>1279.8</ele>
        <time>2021-09-12T14:22:05Z</time>
      </trkpt>
      <trkpt lat="43.9324" lon="6.49958">
        <ele>1279.8</ele>
        <time>2021-09-12T14:22:06Z</time>
      </trkpt>
      <trkpt lat="43.93237" lon="6.49954">
        <ele>1279.8</ele>
        <time>2021-09-12T14:22:07Z</time>
      </trkpt>
      <trkpt lat="43.93236" lon="6.49953">
        <ele>1279.8</ele>
        <time>2021-09-12T14:22:08Z</time>
      </trkpt>
      <trkpt lat="43.93234" lon="6.49949">
        <ele>1279.8</ele>
        <time>2021-09-12T14:22:09Z</time>
      </trkpt>
      <trkpt lat="43.93231" lon="6.49946">
        <ele>1279.8</ele>
        <time>2021-09-12T14:22:10Z</time>
      </trkpt>
      <trkpt lat="43.93227" lon="6.4994">
        <ele>1279.8</ele>
        <time>2021-09-12T14:22:12Z</time>
      </trkpt>
      <trkpt lat="43.93224" lon="6.49938">
        <ele>1279.8</ele>
        <time>2021-09-12T14:22:13Z</time>
      </trkpt>
      <trkpt lat="43.93221" lon="6.49937">
        <ele>1279.8</ele>
        <time>2021-09-12T14:22:14Z</time>
      </trkpt>
      <trkpt lat="43.93217" lon="6.49937">
        <ele>1279.7</ele>
        <time>2021-09-12T14:22:15Z</time>
      </trkpt>
      <trkpt lat="43.93215" lon="6.4994">
        <ele>1280</ele>
        <time>2021-09-12T14:22:16Z</time>
      </trkpt>
      <trkpt lat="43.93214" lon="6.49949">
        <ele>1280.7</ele>
        <time>2021-09-12T14:22:18Z</time>
      </trkpt>
      <trkpt lat="43.93215" lon="6.49954">
        <ele>1281.1</ele>
        <time>2021-09-12T14:22:19Z</time>
      </trkpt>
      <trkpt lat="43.93216" lon="6.49959">
        <ele>1281.5</ele>
        <time>2021-09-12T14:22:21Z</time>
      </trkpt>
      <trkpt lat="43.93216" lon="6.49963">
        <ele>1281.8</ele>
        <time>2021-09-12T14:22:22Z</time>
      </trkpt>
      <trkpt lat="43.93216" lon="6.49965">
        <ele>1281.9</ele>
        <time>2021-09-12T14:22:23Z</time>
      </trkpt>
      <trkpt lat="43.93217" lon="6.49968">
        <ele>1282.1</ele>
        <time>2021-09-12T14:22:24Z</time>
      </trkpt>
      <trkpt lat="43.93217" lon="6.49974">
        <ele>1282.5</ele>
        <time>2021-09-12T14:22:27Z</time>
      </trkpt>
      <trkpt lat="43.93218" lon="6.49977">
        <ele>1282.7</ele>
        <time>2021-09-12T14:22:29Z</time>
      </trkpt>
      <trkpt lat="43.93218" lon="6.49983">
        <ele>1283.1</ele>
        <time>2021-09-12T14:22:33Z</time>
      </trkpt>
      <trkpt lat="43.93219" lon="6.49988">
        <ele>1283.4</ele>
        <time>2021-09-12T14:22:37Z</time>
      </trkpt>
      <trkpt lat="43.9322" lon="6.49991">
        <ele>1283.7</ele>
        <time>2021-09-12T14:22:40Z</time>
      </trkpt>
      <trkpt lat="43.9322" lon="6.49993">
        <ele>1283.8</ele>
        <time>2021-09-12T14:22:41Z</time>
      </trkpt>
      <trkpt lat="43.93221" lon="6.49995">
        <ele>1284</ele>
        <time>2021-09-12T14:22:42Z</time>
      </trkpt>
      <trkpt lat="43.9322" lon="6.49999">
        <ele>1284.3</ele>
        <time>2021-09-12T14:22:45Z</time>
      </trkpt>
      <trkpt lat="43.9322" lon="6.50002">
        <ele>1284.4</ele>
        <time>2021-09-12T14:22:47Z</time>
      </trkpt>
      <trkpt lat="43.9322" lon="6.50003">
        <ele>1284.6</ele>
        <time>2021-09-12T14:22:48Z</time>
      </trkpt>
      <trkpt lat="43.93221" lon="6.50006">
        <ele>1284.8</ele>
        <time>2021-09-12T14:22:50Z</time>
      </trkpt>
      <trkpt lat="43.9322" lon="6.50008">
        <ele>1284.9</ele>
        <time>2021-09-12T14:22:52Z</time>
      </trkpt>
      <trkpt lat="43.9322" lon="6.5001">
        <ele>1285.1</ele>
        <time>2021-09-12T14:22:53Z</time>
      </trkpt>
      <trkpt lat="43.93219" lon="6.50011">
        <ele>1285.2</ele>
        <time>2021-09-12T14:22:55Z</time>
      </trkpt>
      <trkpt lat="43.93218" lon="6.50015">
        <ele>1285.5</ele>
        <time>2021-09-12T14:22:58Z</time>
      </trkpt>
      <trkpt lat="43.93218" lon="6.50016">
        <ele>1285.6</ele>
        <time>2021-09-12T14:22:59Z</time>
      </trkpt>
      <trkpt lat="43.93216" lon="6.5002">
        <ele>1285.9</ele>
        <time>2021-09-12T14:23:03Z</time>
      </trkpt>
      <trkpt lat="43.93216" lon="6.50021">
        <ele>1286</ele>
        <time>2021-09-12T14:23:04Z</time>
      </trkpt>
      <trkpt lat="43.93215" lon="6.50024">
        <ele>1286.2</ele>
        <time>2021-09-12T14:23:06Z</time>
      </trkpt>
      <trkpt lat="43.93215" lon="6.50026">
        <ele>1286.4</ele>
        <time>2021-09-12T14:23:08Z</time>
      </trkpt>
      <trkpt lat="43.93214" lon="6.5003">
        <ele>1286.7</ele>
        <time>2021-09-12T14:23:12Z</time>
      </trkpt>
      <trkpt lat="43.93214" lon="6.50033">
        <ele>1286.9</ele>
        <time>2021-09-12T14:23:15Z</time>
      </trkpt>
      <trkpt lat="43.93215" lon="6.50037">
        <ele>1287.3</ele>
        <time>2021-09-12T14:23:20Z</time>
      </trkpt>
      <trkpt lat="43.93215" lon="6.5004">
        <ele>1287.4</ele>
        <time>2021-09-12T14:23:22Z</time>
      </trkpt>
      <trkpt lat="43.93214" lon="6.50042">
        <ele>1287.6</ele>
        <time>2021-09-12T14:23:25Z</time>
      </trkpt>
      <trkpt lat="43.93214" lon="6.50044">
        <ele>1287.8</ele>
        <time>2021-09-12T14:23:27Z</time>
      </trkpt>
      <trkpt lat="43.93213" lon="6.50046">
        <ele>1288</ele>
        <time>2021-09-12T14:23:29Z</time>
      </trkpt>
      <trkpt lat="43.93212" lon="6.50051">
        <ele>1288.4</ele>
        <time>2021-09-12T14:23:34Z</time>
      </trkpt>
      <trkpt lat="43.93211" lon="6.50053">
        <ele>1288.6</ele>
        <time>2021-09-12T14:23:37Z</time>
      </trkpt>
      <trkpt lat="43.93211" lon="6.50057">
        <ele>1288.9</ele>
        <time>2021-09-12T14:23:41Z</time>
      </trkpt>
      <trkpt lat="43.9321" lon="6.5006">
        <ele>1289</ele>
        <time>2021-09-12T14:23:44Z</time>
      </trkpt>
      <trkpt lat="43.93211" lon="6.50062">
        <ele>1289.2</ele>
        <time>2021-09-12T14:23:46Z</time>
      </trkpt>
      <trkpt lat="43.93211" lon="6.50064">
        <ele>1289.4</ele>
        <time>2021-09-12T14:23:48Z</time>
      </trkpt>
      <trkpt lat="43.93212" lon="6.50066">
        <ele>1289.6</ele>
        <time>2021-09-12T14:23:51Z</time>
      </trkpt>
      <trkpt lat="43.93212" lon="6.5007">
        <ele>1289.9</ele>
        <time>2021-09-12T14:23:56Z</time>
      </trkpt>
      <trkpt lat="43.93213" lon="6.50071">
        <ele>1290</ele>
        <time>2021-09-12T14:23:57Z</time>
      </trkpt>
      <trkpt lat="43.93213" lon="6.50073">
        <ele>1290.1</ele>
        <time>2021-09-12T14:23:59Z</time>
      </trkpt>
      <trkpt lat="43.93212" lon="6.50076">
        <ele>1290.3</ele>
        <time>2021-09-12T14:24:02Z</time>
      </trkpt>
      <trkpt lat="43.93212" lon="6.50078">
        <ele>1290.5</ele>
        <time>2021-09-12T14:24:05Z</time>
      </trkpt>
      <trkpt lat="43.93211" lon="6.50083">
        <ele>1290.9</ele>
        <time>2021-09-12T14:24:10Z</time>
      </trkpt>
      <trkpt lat="43.9321" lon="6.50087">
        <ele>1291.1</ele>
        <time>2021-09-12T14:24:13Z</time>
      </trkpt>
      <trkpt lat="43.93209" lon="6.50092">
        <ele>1291.3</ele>
        <time>2021-09-12T14:24:18Z</time>
      </trkpt>
      <trkpt lat="43.93209" lon="6.50096">
        <ele>1291.5</ele>
        <time>2021-09-12T14:24:21Z</time>
      </trkpt>
      <trkpt lat="43.93208" lon="6.50102">
        <ele>1291.7</ele>
        <time>2021-09-12T14:24:24Z</time>
      </trkpt>
      <trkpt lat="43.93207" lon="6.50107">
        <ele>1291.9</ele>
        <time>2021-09-12T14:24:27Z</time>
      </trkpt>
      <trkpt lat="43.93206" lon="6.50112">
        <ele>1292.2</ele>
        <time>2021-09-12T14:24:30Z</time>
      </trkpt>
      <trkpt lat="43.93206" lon="6.50116">
        <ele>1292.4</ele>
        <time>2021-09-12T14:24:32Z</time>
      </trkpt>
      <trkpt lat="43.93206" lon="6.50121">
        <ele>1292.6</ele>
        <time>2021-09-12T14:24:33Z</time>
      </trkpt>
      <trkpt lat="43.93206" lon="6.50123">
        <ele>1292.7</ele>
        <time>2021-09-12T14:24:34Z</time>
      </trkpt>
      <trkpt lat="43.93205" lon="6.50127">
        <ele>1292.8</ele>
        <time>2021-09-12T14:24:36Z</time>
      </trkpt>
      <trkpt lat="43.93202" lon="6.50131">
        <ele>1293.1</ele>
        <time>2021-09-12T14:24:37Z</time>
      </trkpt>
      <trkpt lat="43.93201" lon="6.50133">
        <ele>1293.2</ele>
        <time>2021-09-12T14:24:38Z</time>
      </trkpt>
      <trkpt lat="43.93201" lon="6.50136">
        <ele>1293.3</ele>
        <time>2021-09-12T14:24:39Z</time>
      </trkpt>
      <trkpt lat="43.932" lon="6.50139">
        <ele>1293.4</ele>
        <time>2021-09-12T14:24:40Z</time>
      </trkpt>
      <trkpt lat="43.93199" lon="6.50142">
        <ele>1293.6</ele>
        <time>2021-09-12T14:24:42Z</time>
      </trkpt>
      <trkpt lat="43.93197" lon="6.50145">
        <ele>1293.8</ele>
        <time>2021-09-12T14:24:43Z</time>
      </trkpt>
      <trkpt lat="43.93197" lon="6.50147">
        <ele>1293.8</ele>
        <time>2021-09-12T14:24:44Z</time>
      </trkpt>
      <trkpt lat="43.93196" lon="6.50152">
        <ele>1294</ele>
        <time>2021-09-12T14:24:45Z</time>
      </trkpt>
      <trkpt lat="43.93196" lon="6.50153">
        <ele>1294.1</ele>
        <time>2021-09-12T14:24:46Z</time>
      </trkpt>
      <trkpt lat="43.93199" lon="6.50159">
        <ele>1294.3</ele>
        <time>2021-09-12T14:24:48Z</time>
      </trkpt>
      <trkpt lat="43.93201" lon="6.50161">
        <ele>1294.5</ele>
        <time>2021-09-12T14:24:49Z</time>
      </trkpt>
      <trkpt lat="43.93202" lon="6.50162">
        <ele>1294.5</ele>
        <time>2021-09-12T14:24:50Z</time>
      </trkpt>
      <trkpt lat="43.93201" lon="6.50165">
        <ele>1294.6</ele>
        <time>2021-09-12T14:24:51Z</time>
      </trkpt>
      <trkpt lat="43.93197" lon="6.50172">
        <ele>1294.9</ele>
        <time>2021-09-12T14:24:53Z</time>
      </trkpt>
      <trkpt lat="43.93195" lon="6.50174">
        <ele>1295.1</ele>
        <time>2021-09-12T14:24:54Z</time>
      </trkpt>
      <trkpt lat="43.93193" lon="6.50174">
        <ele>1295.1</ele>
        <time>2021-09-12T14:24:55Z</time>
      </trkpt>
      <trkpt lat="43.93191" lon="6.50171">
        <ele>1295.3</ele>
        <time>2021-09-12T14:24:56Z</time>
      </trkpt>
      <trkpt lat="43.9319" lon="6.50169">
        <ele>1295.4</ele>
        <time>2021-09-12T14:24:57Z</time>
      </trkpt>
      <trkpt lat="43.93187" lon="6.50167">
        <ele>1295.5</ele>
        <time>2021-09-12T14:24:58Z</time>
      </trkpt>
      <trkpt lat="43.93185" lon="6.50165">
        <ele>1295.6</ele>
        <time>2021-09-12T14:24:59Z</time>
      </trkpt>
      <trkpt lat="43.93184" lon="6.50164">
        <ele>1295.7</ele>
        <time>2021-09-12T14:25:00Z</time>
      </trkpt>
      <trkpt lat="43.93181" lon="6.50161">
        <ele>1295.9</ele>
        <time>2021-09-12T14:25:01Z</time>
      </trkpt>
      <trkpt lat="43.93181" lon="6.50157">
        <ele>1296</ele>
        <time>2021-09-12T14:25:02Z</time>
      </trkpt>
      <trkpt lat="43.93182" lon="6.50155">
        <ele>1296.1</ele>
        <time>2021-09-12T14:25:03Z</time>
      </trkpt>
      <trkpt lat="43.93182" lon="6.50148">
        <ele>1296.3</ele>
        <time>2021-09-12T14:25:05Z</time>
      </trkpt>
      <trkpt lat="43.93182" lon="6.50145">
        <ele>1296.4</ele>
        <time>2021-09-12T14:25:06Z</time>
      </trkpt>
      <trkpt lat="43.93182" lon="6.50141">
        <ele>1296.6</ele>
        <time>2021-09-12T14:25:07Z</time>
      </trkpt>
      <trkpt lat="43.93181" lon="6.50135">
        <ele>1296.8</ele>
        <time>2021-09-12T14:25:09Z</time>
      </trkpt>
      <trkpt lat="43.9318" lon="6.50133">
        <ele>1296.9</ele>
        <time>2021-09-12T14:25:10Z</time>
      </trkpt>
      <trkpt lat="43.93179" lon="6.5013">
        <ele>1297</ele>
        <time>2021-09-12T14:25:11Z</time>
      </trkpt>
      <trkpt lat="43.93177" lon="6.50128">
        <ele>1298</ele>
        <time>2021-09-12T14:25:12Z</time>
      </trkpt>
      <trkpt lat="43.93173" lon="6.50128">
        <ele>1298</ele>
        <time>2021-09-12T14:25:14Z</time>
      </trkpt>
      <trkpt lat="43.9317" lon="6.50129">
        <ele>1298</ele>
        <time>2021-09-12T14:25:16Z</time>
      </trkpt>
      <trkpt lat="43.93166" lon="6.5013">
        <ele>1298.6</ele>
        <time>2021-09-12T14:25:18Z</time>
      </trkpt>
      <trkpt lat="43.93165" lon="6.50131">
        <ele>1298.8</ele>
        <time>2021-09-12T14:25:19Z</time>
      </trkpt>
      <trkpt lat="43.93162" lon="6.50132">
        <ele>1299</ele>
        <time>2021-09-12T14:25:21Z</time>
      </trkpt>
      <trkpt lat="43.93161" lon="6.50134">
        <ele>1299.1</ele>
        <time>2021-09-12T14:25:22Z</time>
      </trkpt>
      <trkpt lat="43.9316" lon="6.50135">
        <ele>1299.2</ele>
        <time>2021-09-12T14:25:23Z</time>
      </trkpt>
      <trkpt lat="43.93159" lon="6.50138">
        <ele>1299.4</ele>
        <time>2021-09-12T14:25:25Z</time>
      </trkpt>
      <trkpt lat="43.93157" lon="6.50139">
        <ele>1299.5</ele>
        <time>2021-09-12T14:25:27Z</time>
      </trkpt>
      <trkpt lat="43.93156" lon="6.50142">
        <ele>1299.7</ele>
        <time>2021-09-12T14:25:29Z</time>
      </trkpt>
      <trkpt lat="43.93156" lon="6.50144">
        <ele>1299.8</ele>
        <time>2021-09-12T14:25:30Z</time>
      </trkpt>
      <trkpt lat="43.93156" lon="6.50146">
        <ele>1299.9</ele>
        <time>2021-09-12T14:25:31Z</time>
      </trkpt>
      <trkpt lat="43.93154" lon="6.50149">
        <ele>1300.1</ele>
        <time>2021-09-12T14:25:33Z</time>
      </trkpt>
      <trkpt lat="43.93152" lon="6.50155">
        <ele>1300.4</ele>
        <time>2021-09-12T14:25:36Z</time>
      </trkpt>
      <trkpt lat="43.93152" lon="6.50157">
        <ele>1300.5</ele>
        <time>2021-09-12T14:25:37Z</time>
      </trkpt>
      <trkpt lat="43.93151" lon="6.50158">
        <ele>1300.6</ele>
        <time>2021-09-12T14:25:38Z</time>
      </trkpt>
      <trkpt lat="43.93148" lon="6.50166">
        <ele>1301</ele>
        <time>2021-09-12T14:25:41Z</time>
      </trkpt>
      <trkpt lat="43.93147" lon="6.50168">
        <ele>1301.1</ele>
        <time>2021-09-12T14:25:42Z</time>
      </trkpt>
      <trkpt lat="43.93145" lon="6.50171">
        <ele>1301.3</ele>
        <time>2021-09-12T14:25:44Z</time>
      </trkpt>
      <trkpt lat="43.93143" lon="6.50177">
        <ele>1301.5</ele>
        <time>2021-09-12T14:25:46Z</time>
      </trkpt>
      <trkpt lat="43.93141" lon="6.50181">
        <ele>1301.7</ele>
        <time>2021-09-12T14:25:48Z</time>
      </trkpt>
      <trkpt lat="43.93139" lon="6.50186">
        <ele>1301.8</ele>
        <time>2021-09-12T14:25:50Z</time>
      </trkpt>
      <trkpt lat="43.93137" lon="6.50188">
        <ele>1301.8</ele>
        <time>2021-09-12T14:25:51Z</time>
      </trkpt>
      <trkpt lat="43.93135" lon="6.50191">
        <ele>1301.9</ele>
        <time>2021-09-12T14:25:52Z</time>
      </trkpt>
      <trkpt lat="43.93134" lon="6.50194">
        <ele>1301.9</ele>
        <time>2021-09-12T14:25:53Z</time>
      </trkpt>
      <trkpt lat="43.93132" lon="6.50199">
        <ele>1302</ele>
        <time>2021-09-12T14:25:55Z</time>
      </trkpt>
      <trkpt lat="43.93129" lon="6.50202">
        <ele>1302</ele>
        <time>2021-09-12T14:25:56Z</time>
      </trkpt>
      <trkpt lat="43.93125" lon="6.50209">
        <ele>1302.1</ele>
        <time>2021-09-12T14:25:58Z</time>
      </trkpt>
      <trkpt lat="43.93121" lon="6.50216">
        <ele>1302.1</ele>
        <time>2021-09-12T14:26:00Z</time>
      </trkpt>
      <trkpt lat="43.93118" lon="6.50221">
        <ele>1302.1</ele>
        <time>2021-09-12T14:26:02Z</time>
      </trkpt>
      <trkpt lat="43.93115" lon="6.50227">
        <ele>1302</ele>
        <time>2021-09-12T14:26:04Z</time>
      </trkpt>
      <trkpt lat="43.9311" lon="6.50238">
        <ele>1301.9</ele>
        <time>2021-09-12T14:26:06Z</time>
      </trkpt>
      <trkpt lat="43.93103" lon="6.50253">
        <ele>1301.7</ele>
        <time>2021-09-12T14:26:10Z</time>
      </trkpt>
      <trkpt lat="43.931" lon="6.50261">
        <ele>1301.6</ele>
        <time>2021-09-12T14:26:12Z</time>
      </trkpt>
      <trkpt lat="43.93095" lon="6.50277">
        <ele>1301.6</ele>
        <time>2021-09-12T14:26:15Z</time>
      </trkpt>
      <trkpt lat="43.93093" lon="6.50285">
        <ele>1301.7</ele>
        <time>2021-09-12T14:26:17Z</time>
      </trkpt>
      <trkpt lat="43.93092" lon="6.50293">
        <ele>1301.8</ele>
        <time>2021-09-12T14:26:19Z</time>
      </trkpt>
      <trkpt lat="43.93091" lon="6.50308">
        <ele>1302.3</ele>
        <time>2021-09-12T14:26:22Z</time>
      </trkpt>
      <trkpt lat="43.9309" lon="6.50316">
        <ele>1302.6</ele>
        <time>2021-09-12T14:26:23Z</time>
      </trkpt>
      <trkpt lat="43.93089" lon="6.50323">
        <ele>1302.9</ele>
        <time>2021-09-12T14:26:25Z</time>
      </trkpt>
      <trkpt lat="43.93087" lon="6.50336">
        <ele>1303.3</ele>
        <time>2021-09-12T14:26:27Z</time>
      </trkpt>
      <trkpt lat="43.93086" lon="6.50342">
        <ele>1303.5</ele>
        <time>2021-09-12T14:26:29Z</time>
      </trkpt>
      <trkpt lat="43.93084" lon="6.50353">
        <ele>1303.8</ele>
        <time>2021-09-12T14:26:31Z</time>
      </trkpt>
      <trkpt lat="43.93081" lon="6.50364">
        <ele>1304.2</ele>
        <time>2021-09-12T14:26:34Z</time>
      </trkpt>
      <trkpt lat="43.93076" lon="6.50373">
        <ele>1304.6</ele>
        <time>2021-09-12T14:26:37Z</time>
      </trkpt>
      <trkpt lat="43.93072" lon="6.50378">
        <ele>1304.8</ele>
        <time>2021-09-12T14:26:39Z</time>
      </trkpt>
      <trkpt lat="43.9307" lon="6.50381">
        <ele>1304.9</ele>
        <time>2021-09-12T14:26:40Z</time>
      </trkpt>
      <trkpt lat="43.93066" lon="6.50388">
        <ele>1305.2</ele>
        <time>2021-09-12T14:26:43Z</time>
      </trkpt>
      <trkpt lat="43.93063" lon="6.50392">
        <ele>1305.2</ele>
        <time>2021-09-12T14:26:44Z</time>
      </trkpt>
      <trkpt lat="43.93058" lon="6.50393">
        <ele>1305.3</ele>
        <time>2021-09-12T14:26:46Z</time>
      </trkpt>
      <trkpt lat="43.93055" lon="6.50397">
        <ele>1305.4</ele>
        <time>2021-09-12T14:26:48Z</time>
      </trkpt>
      <trkpt lat="43.93052" lon="6.50404">
        <ele>1305.3</ele>
        <time>2021-09-12T14:26:50Z</time>
      </trkpt>
      <trkpt lat="43.9305" lon="6.50408">
        <ele>1305.3</ele>
        <time>2021-09-12T14:26:51Z</time>
      </trkpt>
      <trkpt lat="43.93046" lon="6.50414">
        <ele>1305.2</ele>
        <time>2021-09-12T14:26:53Z</time>
      </trkpt>
      <trkpt lat="43.93043" lon="6.50419">
        <ele>1305.1</ele>
        <time>2021-09-12T14:26:54Z</time>
      </trkpt>
      <trkpt lat="43.93039" lon="6.50426">
        <ele>1304.9</ele>
        <time>2021-09-12T14:26:56Z</time>
      </trkpt>
      <trkpt lat="43.93035" lon="6.50432">
        <ele>1304.7</ele>
        <time>2021-09-12T14:26:58Z</time>
      </trkpt>
      <trkpt lat="43.93029" lon="6.50442">
        <ele>1304.4</ele>
        <time>2021-09-12T14:27:01Z</time>
      </trkpt>
      <trkpt lat="43.93024" lon="6.50449">
        <ele>1304.2</ele>
        <time>2021-09-12T14:27:02Z</time>
      </trkpt>
      <trkpt lat="43.93019" lon="6.50455">
        <ele>1304</ele>
        <time>2021-09-12T14:27:04Z</time>
      </trkpt>
      <trkpt lat="43.93008" lon="6.50467">
        <ele>1303.6</ele>
        <time>2021-09-12T14:27:07Z</time>
      </trkpt>
      <trkpt lat="43.93001" lon="6.50472">
        <ele>1303.3</ele>
        <time>2021-09-12T14:27:09Z</time>
      </trkpt>
      <trkpt lat="43.92994" lon="6.50477">
        <ele>1303.1</ele>
        <time>2021-09-12T14:27:10Z</time>
      </trkpt>
      <trkpt lat="43.92981" lon="6.50488">
        <ele>1302.6</ele>
        <time>2021-09-12T14:27:13Z</time>
      </trkpt>
      <trkpt lat="43.92968" lon="6.50499">
        <ele>1302.4</ele>
        <time>2021-09-12T14:27:16Z</time>
      </trkpt>
      <trkpt lat="43.92961" lon="6.50506">
        <ele>1302.3</ele>
        <time>2021-09-12T14:27:18Z</time>
      </trkpt>
      <trkpt lat="43.9295" lon="6.50515">
        <ele>1302.3</ele>
        <time>2021-09-12T14:27:20Z</time>
      </trkpt>
      <trkpt lat="43.92939" lon="6.50523">
        <ele>1302.5</ele>
        <time>2021-09-12T14:27:23Z</time>
      </trkpt>
      <trkpt lat="43.92933" lon="6.50527">
        <ele>1302.6</ele>
        <time>2021-09-12T14:27:24Z</time>
      </trkpt>
      <trkpt lat="43.92927" lon="6.5053">
        <ele>1302.7</ele>
        <time>2021-09-12T14:27:25Z</time>
      </trkpt>
      <trkpt lat="43.92922" lon="6.50533">
        <ele>1302.9</ele>
        <time>2021-09-12T14:27:27Z</time>
      </trkpt>
      <trkpt lat="43.9291" lon="6.50537">
        <ele>1303.1</ele>
        <time>2021-09-12T14:27:29Z</time>
      </trkpt>
      <trkpt lat="43.92904" lon="6.5054">
        <ele>1303.2</ele>
        <time>2021-09-12T14:27:31Z</time>
      </trkpt>
      <trkpt lat="43.92899" lon="6.50542">
        <ele>1303.3</ele>
        <time>2021-09-12T14:27:32Z</time>
      </trkpt>
      <trkpt lat="43.92893" lon="6.50545">
        <ele>1303.4</ele>
        <time>2021-09-12T14:27:34Z</time>
      </trkpt>
      <trkpt lat="43.92888" lon="6.50548">
        <ele>1303.4</ele>
        <time>2021-09-12T14:27:36Z</time>
      </trkpt>
      <trkpt lat="43.92876" lon="6.50554">
        <ele>1303.3</ele>
        <time>2021-09-12T14:27:39Z</time>
      </trkpt>
      <trkpt lat="43.9287" lon="6.50557">
        <ele>1303.1</ele>
        <time>2021-09-12T14:27:41Z</time>
      </trkpt>
      <trkpt lat="43.92863" lon="6.50559">
        <ele>1302.9</ele>
        <time>2021-09-12T14:27:44Z</time>
      </trkpt>
      <trkpt lat="43.92849" lon="6.50567">
        <ele>1302.4</ele>
        <time>2021-09-12T14:27:48Z</time>
      </trkpt>
      <trkpt lat="43.92836" lon="6.50577">
        <ele>1301.8</ele>
        <time>2021-09-12T14:27:52Z</time>
      </trkpt>
      <trkpt lat="43.92823" lon="6.50589">
        <ele>1301.4</ele>
        <time>2021-09-12T14:27:56Z</time>
      </trkpt>
      <trkpt lat="43.92816" lon="6.50594">
        <ele>1301.2</ele>
        <time>2021-09-12T14:27:58Z</time>
      </trkpt>
      <trkpt lat="43.92802" lon="6.50605">
        <ele>1300.8</ele>
        <time>2021-09-12T14:28:01Z</time>
      </trkpt>
      <trkpt lat="43.92796" lon="6.50611">
        <ele>1300.6</ele>
        <time>2021-09-12T14:28:03Z</time>
      </trkpt>
      <trkpt lat="43.92783" lon="6.50627">
        <ele>1300.3</ele>
        <time>2021-09-12T14:28:07Z</time>
      </trkpt>
      <trkpt lat="43.92777" lon="6.50635">
        <ele>1300.2</ele>
        <time>2021-09-12T14:28:09Z</time>
      </trkpt>
      <trkpt lat="43.92766" lon="6.5065">
        <ele>1300</ele>
        <time>2021-09-12T14:28:12Z</time>
      </trkpt>
      <trkpt lat="43.92753" lon="6.50662">
        <ele>1299.5</ele>
        <time>2021-09-12T14:28:15Z</time>
      </trkpt>
      <trkpt lat="43.92745" lon="6.50666">
        <ele>1299.1</ele>
        <time>2021-09-12T14:28:17Z</time>
      </trkpt>
      <trkpt lat="43.92728" lon="6.50671">
        <ele>1298.2</ele>
        <time>2021-09-12T14:28:20Z</time>
      </trkpt>
      <trkpt lat="43.9272" lon="6.50674">
        <ele>1297.8</ele>
        <time>2021-09-12T14:28:22Z</time>
      </trkpt>
      <trkpt lat="43.92706" lon="6.50683">
        <ele>1297.1</ele>
        <time>2021-09-12T14:28:25Z</time>
      </trkpt>
      <trkpt lat="43.92699" lon="6.50688">
        <ele>1296.8</ele>
        <time>2021-09-12T14:28:26Z</time>
      </trkpt>
      <trkpt lat="43.92692" lon="6.50693">
        <ele>1296.4</ele>
        <time>2021-09-12T14:28:28Z</time>
      </trkpt>
      <trkpt lat="43.92686" lon="6.50699">
        <ele>1296.1</ele>
        <time>2021-09-12T14:28:29Z</time>
      </trkpt>
      <trkpt lat="43.92674" lon="6.50713">
        <ele>1295.3</ele>
        <time>2021-09-12T14:28:32Z</time>
      </trkpt>
      <trkpt lat="43.9267" lon="6.50721">
        <ele>1294.9</ele>
        <time>2021-09-12T14:28:33Z</time>
      </trkpt>
      <trkpt lat="43.92666" lon="6.50739">
        <ele>1294.2</ele>
        <time>2021-09-12T14:28:35Z</time>
      </trkpt>
      <trkpt lat="43.92669" lon="6.5076">
        <ele>1293.6</ele>
        <time>2021-09-12T14:28:38Z</time>
      </trkpt>
      <trkpt lat="43.92669" lon="6.50771">
        <ele>1293.4</ele>
        <time>2021-09-12T14:28:39Z</time>
      </trkpt>
      <trkpt lat="43.92666" lon="6.5079">
        <ele>1293.2</ele>
        <time>2021-09-12T14:28:42Z</time>
      </trkpt>
      <trkpt lat="43.92663" lon="6.50799">
        <ele>1293.1</ele>
        <time>2021-09-12T14:28:43Z</time>
      </trkpt>
      <trkpt lat="43.92655" lon="6.50814">
        <ele>1293.1</ele>
        <time>2021-09-12T14:28:45Z</time>
      </trkpt>
      <trkpt lat="43.92647" lon="6.50826">
        <ele>1292.9</ele>
        <time>2021-09-12T14:28:48Z</time>
      </trkpt>
      <trkpt lat="43.92642" lon="6.5083">
        <ele>1292.8</ele>
        <time>2021-09-12T14:28:49Z</time>
      </trkpt>
      <trkpt lat="43.92635" lon="6.50836">
        <ele>1292.7</ele>
        <time>2021-09-12T14:28:50Z</time>
      </trkpt>
      <trkpt lat="43.92628" lon="6.50841">
        <ele>1292.6</ele>
        <time>2021-09-12T14:28:52Z</time>
      </trkpt>
      <trkpt lat="43.92615" lon="6.50848">
        <ele>1292.4</ele>
        <time>2021-09-12T14:28:55Z</time>
      </trkpt>
      <trkpt lat="43.92602" lon="6.50853">
        <ele>1292.6</ele>
        <time>2021-09-12T14:28:58Z</time>
      </trkpt>
      <trkpt lat="43.92595" lon="6.50856">
        <ele>1292.8</ele>
        <time>2021-09-12T14:28:59Z</time>
      </trkpt>
      <trkpt lat="43.9259" lon="6.50858">
        <ele>1293</ele>
        <time>2021-09-12T14:29:01Z</time>
      </trkpt>
      <trkpt lat="43.9258" lon="6.50862">
        <ele>1293.5</ele>
        <time>2021-09-12T14:29:03Z</time>
      </trkpt>
      <trkpt lat="43.92576" lon="6.50864">
        <ele>1293.8</ele>
        <time>2021-09-12T14:29:04Z</time>
      </trkpt>
      <trkpt lat="43.92568" lon="6.50867">
        <ele>1294.3</ele>
        <time>2021-09-12T14:29:06Z</time>
      </trkpt>
      <trkpt lat="43.92563" lon="6.50869">
        <ele>1294.2</ele>
        <time>2021-09-12T14:29:08Z</time>
      </trkpt>
      <trkpt lat="43.92559" lon="6.5087">
        <ele>1293.5</ele>
        <time>2021-09-12T14:29:09Z</time>
      </trkpt>
      <trkpt lat="43.9255" lon="6.50874">
        <ele>1291.9</ele>
        <time>2021-09-12T14:29:12Z</time>
      </trkpt>
      <trkpt lat="43.92539" lon="6.5088">
        <ele>1289.5</ele>
        <time>2021-09-12T14:29:15Z</time>
      </trkpt>
      <trkpt lat="43.92527" lon="6.50891">
        <ele>1288.4</ele>
        <time>2021-09-12T14:29:18Z</time>
      </trkpt>
      <trkpt lat="43.92521" lon="6.50895">
        <ele>1288.4</ele>
        <time>2021-09-12T14:29:20Z</time>
      </trkpt>
      <trkpt lat="43.92515" lon="6.50899">
        <ele>1288.3</ele>
        <time>2021-09-12T14:29:21Z</time>
      </trkpt>
      <trkpt lat="43.92503" lon="6.50901">
        <ele>1288.1</ele>
        <time>2021-09-12T14:29:23Z</time>
      </trkpt>
      <trkpt lat="43.92497" lon="6.50902">
        <ele>1288.1</ele>
        <time>2021-09-12T14:29:24Z</time>
      </trkpt>
      <trkpt lat="43.92484" lon="6.50905">
        <ele>1287</ele>
        <time>2021-09-12T14:29:27Z</time>
      </trkpt>
      <trkpt lat="43.9247" lon="6.50914">
        <ele>1285.6</ele>
        <time>2021-09-12T14:29:29Z</time>
      </trkpt>
      <trkpt lat="43.92463" lon="6.50919">
        <ele>1284.9</ele>
        <time>2021-09-12T14:29:30Z</time>
      </trkpt>
      <trkpt lat="43.9245" lon="6.50927">
        <ele>1283.7</ele>
        <time>2021-09-12T14:29:33Z</time>
      </trkpt>
      <trkpt lat="43.92443" lon="6.50931">
        <ele>1283.1</ele>
        <time>2021-09-12T14:29:34Z</time>
      </trkpt>
      <trkpt lat="43.92429" lon="6.50936">
        <ele>1282</ele>
        <time>2021-09-12T14:29:36Z</time>
      </trkpt>
      <trkpt lat="43.92422" lon="6.50939">
        <ele>1281.5</ele>
        <time>2021-09-12T14:29:38Z</time>
      </trkpt>
      <trkpt lat="43.92408" lon="6.50945">
        <ele>1280.5</ele>
        <time>2021-09-12T14:29:40Z</time>
      </trkpt>
      <trkpt lat="43.92394" lon="6.5095">
        <ele>1279.6</ele>
        <time>2021-09-12T14:29:42Z</time>
      </trkpt>
      <trkpt lat="43.92387" lon="6.50953">
        <ele>1279.1</ele>
        <time>2021-09-12T14:29:43Z</time>
      </trkpt>
      <trkpt lat="43.92374" lon="6.50957">
        <ele>1278.3</ele>
        <time>2021-09-12T14:29:46Z</time>
      </trkpt>
      <trkpt lat="43.92368" lon="6.50959">
        <ele>1278</ele>
        <time>2021-09-12T14:29:47Z</time>
      </trkpt>
      <trkpt lat="43.92361" lon="6.5096">
        <ele>1277.7</ele>
        <time>2021-09-12T14:29:48Z</time>
      </trkpt>
      <trkpt lat="43.92349" lon="6.50962">
        <ele>1277.3</ele>
        <time>2021-09-12T14:29:49Z</time>
      </trkpt>
      <trkpt lat="43.92344" lon="6.50963">
        <ele>1277.2</ele>
        <time>2021-09-12T14:29:50Z</time>
      </trkpt>
      <trkpt lat="43.92339" lon="6.50964">
        <ele>1277.1</ele>
        <time>2021-09-12T14:29:51Z</time>
      </trkpt>
      <trkpt lat="43.9233" lon="6.50966">
        <ele>1276.8</ele>
        <time>2021-09-12T14:29:53Z</time>
      </trkpt>
      <trkpt lat="43.92321" lon="6.50968">
        <ele>1276.5</ele>
        <time>2021-09-12T14:29:54Z</time>
      </trkpt>
      <trkpt lat="43.92308" lon="6.50971">
        <ele>1276.2</ele>
        <time>2021-09-12T14:29:56Z</time>
      </trkpt>
      <trkpt lat="43.92301" lon="6.50972">
        <ele>1276</ele>
        <time>2021-09-12T14:29:58Z</time>
      </trkpt>
      <trkpt lat="43.92294" lon="6.50975">
        <ele>1275.9</ele>
        <time>2021-09-12T14:29:59Z</time>
      </trkpt>
      <trkpt lat="43.9229" lon="6.50977">
        <ele>1275.8</ele>
        <time>2021-09-12T14:30:00Z</time>
      </trkpt>
      <trkpt lat="43.92282" lon="6.50978">
        <ele>1275.8</ele>
        <time>2021-09-12T14:30:01Z</time>
      </trkpt>
      <trkpt lat="43.92277" lon="6.50981">
        <ele>1275.9</ele>
        <time>2021-09-12T14:30:02Z</time>
      </trkpt>
      <trkpt lat="43.92274" lon="6.50981">
        <ele>1276</ele>
        <time>2021-09-12T14:30:03Z</time>
      </trkpt>
      <trkpt lat="43.92269" lon="6.50983">
        <ele>1276.2</ele>
        <time>2021-09-12T14:30:04Z</time>
      </trkpt>
      <trkpt lat="43.92266" lon="6.50985">
        <ele>1276.4</ele>
        <time>2021-09-12T14:30:05Z</time>
      </trkpt>
      <trkpt lat="43.92262" lon="6.50988">
        <ele>1276.6</ele>
        <time>2021-09-12T14:30:06Z</time>
      </trkpt>
      <trkpt lat="43.92261" lon="6.50989">
        <ele>1276.7</ele>
        <time>2021-09-12T14:30:07Z</time>
      </trkpt>
      <trkpt lat="43.92258" lon="6.50993">
        <ele>1276.9</ele>
        <time>2021-09-12T14:30:08Z</time>
      </trkpt>
      <trkpt lat="43.92256" lon="6.50996">
        <ele>1277.1</ele>
        <time>2021-09-12T14:30:09Z</time>
      </trkpt>
      <trkpt lat="43.92253" lon="6.51">
        <ele>1277.3</ele>
        <time>2021-09-12T14:30:10Z</time>
      </trkpt>
      <trkpt lat="43.92253" lon="6.51001">
        <ele>1277.4</ele>
        <time>2021-09-12T14:30:11Z</time>
      </trkpt>
      <trkpt lat="43.92247" lon="6.51004">
        <ele>1277.7</ele>
        <time>2021-09-12T14:30:13Z</time>
      </trkpt>
      <trkpt lat="43.92242" lon="6.51007">
        <ele>1278.1</ele>
        <time>2021-09-12T14:30:16Z</time>
      </trkpt>
      <trkpt lat="43.92241" lon="6.51008">
        <ele>1278.1</ele>
        <time>2021-09-12T14:30:17Z</time>
      </trkpt>
      <trkpt lat="43.92238" lon="6.51011">
        <ele>1278.3</ele>
        <time>2021-09-12T14:30:19Z</time>
      </trkpt>
      <trkpt lat="43.92234" lon="6.51013">
        <ele>1278.4</ele>
        <time>2021-09-12T14:30:20Z</time>
      </trkpt>
      <trkpt lat="43.92232" lon="6.51015">
        <ele>1278.5</ele>
        <time>2021-09-12T14:30:22Z</time>
      </trkpt>
      <trkpt lat="43.92227" lon="6.51016">
        <ele>1278.5</ele>
        <time>2021-09-12T14:30:24Z</time>
      </trkpt>
      <trkpt lat="43.92223" lon="6.51017">
        <ele>1278.6</ele>
        <time>2021-09-12T14:30:26Z</time>
      </trkpt>
      <trkpt lat="43.92216" lon="6.51017">
        <ele>1278.8</ele>
        <time>2021-09-12T14:30:28Z</time>
      </trkpt>
      <trkpt lat="43.92211" lon="6.5102">
        <ele>1278.8</ele>
        <time>2021-09-12T14:30:30Z</time>
      </trkpt>
      <trkpt lat="43.922" lon="6.5102">
        <ele>1278.5</ele>
        <time>2021-09-12T14:30:34Z</time>
      </trkpt>
      <trkpt lat="43.9219" lon="6.5102">
        <ele>1278.1</ele>
        <time>2021-09-12T14:30:38Z</time>
      </trkpt>
      <trkpt lat="43.92184" lon="6.51019">
        <ele>1277.8</ele>
        <time>2021-09-12T14:30:40Z</time>
      </trkpt>
      <trkpt lat="43.92172" lon="6.51021">
        <ele>1277.3</ele>
        <time>2021-09-12T14:30:43Z</time>
      </trkpt>
      <trkpt lat="43.92165" lon="6.51022">
        <ele>1276.9</ele>
        <time>2021-09-12T14:30:45Z</time>
      </trkpt>
      <trkpt lat="43.92153" lon="6.51024">
        <ele>1276.2</ele>
        <time>2021-09-12T14:30:48Z</time>
      </trkpt>
      <trkpt lat="43.92142" lon="6.51023">
        <ele>1275.6</ele>
        <time>2021-09-12T14:30:50Z</time>
      </trkpt>
      <trkpt lat="43.92131" lon="6.5102">
        <ele>1275.1</ele>
        <time>2021-09-12T14:30:53Z</time>
      </trkpt>
      <trkpt lat="43.92126" lon="6.51016">
        <ele>1274.9</ele>
        <time>2021-09-12T14:30:54Z</time>
      </trkpt>
      <trkpt lat="43.92121" lon="6.51013">
        <ele>1274.7</ele>
        <time>2021-09-12T14:30:55Z</time>
      </trkpt>
      <trkpt lat="43.92118" lon="6.51009">
        <ele>1274.6</ele>
        <time>2021-09-12T14:30:56Z</time>
      </trkpt>
      <trkpt lat="43.92114" lon="6.51006">
        <ele>1274.5</ele>
        <time>2021-09-12T14:30:57Z</time>
      </trkpt>
      <trkpt lat="43.92108" lon="6.51001">
        <ele>1274.3</ele>
        <time>2021-09-12T14:30:58Z</time>
      </trkpt>
      <trkpt lat="43.92097" lon="6.50993">
        <ele>1273.9</ele>
        <time>2021-09-12T14:31:00Z</time>
      </trkpt>
      <trkpt lat="43.92091" lon="6.50989">
        <ele>1273.5</ele>
        <time>2021-09-12T14:31:01Z</time>
      </trkpt>
      <trkpt lat="43.92085" lon="6.50985">
        <ele>1273.1</ele>
        <time>2021-09-12T14:31:02Z</time>
      </trkpt>
      <trkpt lat="43.92072" lon="6.50977">
        <ele>1272.3</ele>
        <time>2021-09-12T14:31:05Z</time>
      </trkpt>
      <trkpt lat="43.92057" lon="6.50968">
        <ele>1271.4</ele>
        <time>2021-09-12T14:31:08Z</time>
      </trkpt>
      <trkpt lat="43.9205" lon="6.50962">
        <ele>1270.8</ele>
        <time>2021-09-12T14:31:09Z</time>
      </trkpt>
      <trkpt lat="43.92043" lon="6.50956">
        <ele>1270.4</ele>
        <time>2021-09-12T14:31:11Z</time>
      </trkpt>
      <trkpt lat="43.92027" lon="6.50947">
        <ele>1269.4</ele>
        <time>2021-09-12T14:31:14Z</time>
      </trkpt>
      <trkpt lat="43.92012" lon="6.50942">
        <ele>1268.6</ele>
        <time>2021-09-12T14:31:16Z</time>
      </trkpt>
      <trkpt lat="43.92005" lon="6.50941">
        <ele>1268.4</ele>
        <time>2021-09-12T14:31:18Z</time>
      </trkpt>
      <trkpt lat="43.91998" lon="6.50941">
        <ele>1268.3</ele>
        <time>2021-09-12T14:31:19Z</time>
      </trkpt>
      <trkpt lat="43.91987" lon="6.50945">
        <ele>1268.5</ele>
        <time>2021-09-12T14:31:21Z</time>
      </trkpt>
      <trkpt lat="43.91978" lon="6.50941">
        <ele>1268.9</ele>
        <time>2021-09-12T14:31:22Z</time>
      </trkpt>
      <trkpt lat="43.9197" lon="6.50929">
        <ele>1269.6</ele>
        <time>2021-09-12T14:31:24Z</time>
      </trkpt>
      <trkpt lat="43.91965" lon="6.50919">
        <ele>1270.1</ele>
        <time>2021-09-12T14:31:26Z</time>
      </trkpt>
      <trkpt lat="43.9196" lon="6.50904">
        <ele>1270.6</ele>
        <time>2021-09-12T14:31:29Z</time>
      </trkpt>
      <trkpt lat="43.91956" lon="6.50902">
        <ele>1270.7</ele>
        <time>2021-09-12T14:31:30Z</time>
      </trkpt>
      <trkpt lat="43.91949" lon="6.50899">
        <ele>1270.8</ele>
        <time>2021-09-12T14:31:32Z</time>
      </trkpt>
      <trkpt lat="43.91945" lon="6.50899">
        <ele>1270.9</ele>
        <time>2021-09-12T14:31:33Z</time>
      </trkpt>
      <trkpt lat="43.91938" lon="6.50899">
        <ele>1270.9</ele>
        <time>2021-09-12T14:31:36Z</time>
      </trkpt>
      <trkpt lat="43.91932" lon="6.50898">
        <ele>1270.9</ele>
        <time>2021-09-12T14:31:38Z</time>
      </trkpt>
      <trkpt lat="43.91928" lon="6.50897">
        <ele>1270.9</ele>
        <time>2021-09-12T14:31:39Z</time>
      </trkpt>
      <trkpt lat="43.91924" lon="6.50897">
        <ele>1270.9</ele>
        <time>2021-09-12T14:31:40Z</time>
      </trkpt>
      <trkpt lat="43.9192" lon="6.50896">
        <ele>1270.9</ele>
        <time>2021-09-12T14:31:42Z</time>
      </trkpt>
      <trkpt lat="43.91913" lon="6.50895">
        <ele>1270.9</ele>
        <time>2021-09-12T14:31:44Z</time>
      </trkpt>
      <trkpt lat="43.91906" lon="6.50896">
        <ele>1270.8</ele>
        <time>2021-09-12T14:31:46Z</time>
      </trkpt>
      <trkpt lat="43.919" lon="6.50896">
        <ele>1270.8</ele>
        <time>2021-09-12T14:31:48Z</time>
      </trkpt>
      <trkpt lat="43.9189" lon="6.50895">
        <ele>1270.7</ele>
        <time>2021-09-12T14:31:51Z</time>
      </trkpt>
      <trkpt lat="43.91885" lon="6.50893">
        <ele>1270.7</ele>
        <time>2021-09-12T14:31:53Z</time>
      </trkpt>
      <trkpt lat="43.91876" lon="6.50891">
        <ele>1270.5</ele>
        <time>2021-09-12T14:31:56Z</time>
      </trkpt>
      <trkpt lat="43.91865" lon="6.50891">
        <ele>1270.4</ele>
        <time>2021-09-12T14:31:58Z</time>
      </trkpt>
      <trkpt lat="43.9186" lon="6.50891">
        <ele>1270.3</ele>
        <time>2021-09-12T14:32:00Z</time>
      </trkpt>
      <trkpt lat="43.91855" lon="6.50892">
        <ele>1270.2</ele>
        <time>2021-09-12T14:32:01Z</time>
      </trkpt>
      <trkpt lat="43.91844" lon="6.50895">
        <ele>1270</ele>
        <time>2021-09-12T14:32:04Z</time>
      </trkpt>
      <trkpt lat="43.91839" lon="6.50895">
        <ele>1269.9</ele>
        <time>2021-09-12T14:32:05Z</time>
      </trkpt>
      <trkpt lat="43.91829" lon="6.50898">
        <ele>1269.7</ele>
        <time>2021-09-12T14:32:08Z</time>
      </trkpt>
      <trkpt lat="43.91822" lon="6.50901">
        <ele>1269.6</ele>
        <time>2021-09-12T14:32:09Z</time>
      </trkpt>
      <trkpt lat="43.91818" lon="6.50906">
        <ele>1269.4</ele>
        <time>2021-09-12T14:32:11Z</time>
      </trkpt>
      <trkpt lat="43.91813" lon="6.50907">
        <ele>1269.3</ele>
        <time>2021-09-12T14:32:12Z</time>
      </trkpt>
      <trkpt lat="43.91802" lon="6.50907">
        <ele>1269.1</ele>
        <time>2021-09-12T14:32:14Z</time>
      </trkpt>
      <trkpt lat="43.91797" lon="6.50908">
        <ele>1269</ele>
        <time>2021-09-12T14:32:15Z</time>
      </trkpt>
      <trkpt lat="43.91785" lon="6.50909">
        <ele>1268.6</ele>
        <time>2021-09-12T14:32:18Z</time>
      </trkpt>
      <trkpt lat="43.91774" lon="6.5091">
        <ele>1268.1</ele>
        <time>2021-09-12T14:32:20Z</time>
      </trkpt>
      <trkpt lat="43.91767" lon="6.5091">
        <ele>1267.8</ele>
        <time>2021-09-12T14:32:21Z</time>
      </trkpt>
      <trkpt lat="43.91761" lon="6.50908">
        <ele>1267.5</ele>
        <time>2021-09-12T14:32:23Z</time>
      </trkpt>
      <trkpt lat="43.91754" lon="6.50906">
        <ele>1267.2</ele>
        <time>2021-09-12T14:32:24Z</time>
      </trkpt>
      <trkpt lat="43.91748" lon="6.50904">
        <ele>1267</ele>
        <time>2021-09-12T14:32:25Z</time>
      </trkpt>
      <trkpt lat="43.91736" lon="6.50905">
        <ele>1266.7</ele>
        <time>2021-09-12T14:32:27Z</time>
      </trkpt>
      <trkpt lat="43.91732" lon="6.50905">
        <ele>1266.6</ele>
        <time>2021-09-12T14:32:28Z</time>
      </trkpt>
      <trkpt lat="43.91722" lon="6.50907">
        <ele>1266.3</ele>
        <time>2021-09-12T14:32:30Z</time>
      </trkpt>
      <trkpt lat="43.91717" lon="6.50907">
        <ele>1266.1</ele>
        <time>2021-09-12T14:32:31Z</time>
      </trkpt>
      <trkpt lat="43.91712" lon="6.50908">
        <ele>1265.9</ele>
        <time>2021-09-12T14:32:32Z</time>
      </trkpt>
      <trkpt lat="43.91701" lon="6.50908">
        <ele>1265.5</ele>
        <time>2021-09-12T14:32:34Z</time>
      </trkpt>
      <trkpt lat="43.91695" lon="6.50909">
        <ele>1265.3</ele>
        <time>2021-09-12T14:32:35Z</time>
      </trkpt>
      <trkpt lat="43.91685" lon="6.50911">
        <ele>1265.1</ele>
        <time>2021-09-12T14:32:37Z</time>
      </trkpt>
      <trkpt lat="43.91679" lon="6.50911">
        <ele>1264.9</ele>
        <time>2021-09-12T14:32:38Z</time>
      </trkpt>
      <trkpt lat="43.91667" lon="6.50911">
        <ele>1264.7</ele>
        <time>2021-09-12T14:32:40Z</time>
      </trkpt>
      <trkpt lat="43.91661" lon="6.50912">
        <ele>1264.5</ele>
        <time>2021-09-12T14:32:41Z</time>
      </trkpt>
      <trkpt lat="43.91649" lon="6.50916">
        <ele>1264</ele>
        <time>2021-09-12T14:32:44Z</time>
      </trkpt>
      <trkpt lat="43.91637" lon="6.50921">
        <ele>1263.3</ele>
        <time>2021-09-12T14:32:46Z</time>
      </trkpt>
      <trkpt lat="43.91634" lon="6.50923">
        <ele>1263.2</ele>
        <time>2021-09-12T14:32:47Z</time>
      </trkpt>
      <trkpt lat="43.91629" lon="6.50929">
        <ele>1263</ele>
        <time>2021-09-12T14:32:48Z</time>
      </trkpt>
      <trkpt lat="43.91624" lon="6.50934">
        <ele>1263</ele>
        <time>2021-09-12T14:32:49Z</time>
      </trkpt>
      <trkpt lat="43.91619" lon="6.50936">
        <ele>1263</ele>
        <time>2021-09-12T14:32:50Z</time>
      </trkpt>
      <trkpt lat="43.91614" lon="6.50939">
        <ele>1263.1</ele>
        <time>2021-09-12T14:32:51Z</time>
      </trkpt>
      <trkpt lat="43.9161" lon="6.5094">
        <ele>1263.2</ele>
        <time>2021-09-12T14:32:52Z</time>
      </trkpt>
      <trkpt lat="43.91604" lon="6.50941">
        <ele>1263.3</ele>
        <time>2021-09-12T14:32:53Z</time>
      </trkpt>
      <trkpt lat="43.916" lon="6.50942">
        <ele>1263.4</ele>
        <time>2021-09-12T14:32:54Z</time>
      </trkpt>
      <trkpt lat="43.91597" lon="6.50942">
        <ele>1263.5</ele>
        <time>2021-09-12T14:32:55Z</time>
      </trkpt>
      <trkpt lat="43.91591" lon="6.50942">
        <ele>1263.6</ele>
        <time>2021-09-12T14:32:57Z</time>
      </trkpt>
      <trkpt lat="43.91586" lon="6.50942">
        <ele>1263.7</ele>
        <time>2021-09-12T14:32:58Z</time>
      </trkpt>
      <trkpt lat="43.91578" lon="6.50942">
        <ele>1263.9</ele>
        <time>2021-09-12T14:33:00Z</time>
      </trkpt>
      <trkpt lat="43.91574" lon="6.50942">
        <ele>1263.9</ele>
        <time>2021-09-12T14:33:02Z</time>
      </trkpt>
      <trkpt lat="43.91567" lon="6.50942">
        <ele>1264.1</ele>
        <time>2021-09-12T14:33:04Z</time>
      </trkpt>
      <trkpt lat="43.91562" lon="6.50943">
        <ele>1264.2</ele>
        <time>2021-09-12T14:33:06Z</time>
      </trkpt>
      <trkpt lat="43.91556" lon="6.50944">
        <ele>1264.3</ele>
        <time>2021-09-12T14:33:07Z</time>
      </trkpt>
      <trkpt lat="43.9155" lon="6.50946">
        <ele>1264.4</ele>
        <time>2021-09-12T14:33:09Z</time>
      </trkpt>
      <trkpt lat="43.91547" lon="6.50946">
        <ele>1264.5</ele>
        <time>2021-09-12T14:33:10Z</time>
      </trkpt>
      <trkpt lat="43.91542" lon="6.50947">
        <ele>1264.7</ele>
        <time>2021-09-12T14:33:12Z</time>
      </trkpt>
      <trkpt lat="43.91539" lon="6.50947">
        <ele>1264.7</ele>
        <time>2021-09-12T14:33:13Z</time>
      </trkpt>
      <trkpt lat="43.91536" lon="6.50946">
        <ele>1264.8</ele>
        <time>2021-09-12T14:33:14Z</time>
      </trkpt>
      <trkpt lat="43.91531" lon="6.50945">
        <ele>1265</ele>
        <time>2021-09-12T14:33:15Z</time>
      </trkpt>
      <trkpt lat="43.91527" lon="6.50943">
        <ele>1265.1</ele>
        <time>2021-09-12T14:33:17Z</time>
      </trkpt>
      <trkpt lat="43.91523" lon="6.50941">
        <ele>1265.2</ele>
        <time>2021-09-12T14:33:18Z</time>
      </trkpt>
      <trkpt lat="43.9152" lon="6.50941">
        <ele>1265.3</ele>
        <time>2021-09-12T14:33:19Z</time>
      </trkpt>
      <trkpt lat="43.91517" lon="6.5094">
        <ele>1265.5</ele>
        <time>2021-09-12T14:33:20Z</time>
      </trkpt>
      <trkpt lat="43.91516" lon="6.5094">
        <ele>1265.5</ele>
        <time>2021-09-12T14:33:21Z</time>
      </trkpt>
      <trkpt lat="43.91512" lon="6.50939">
        <ele>1265.6</ele>
        <time>2021-09-12T14:33:22Z</time>
      </trkpt>
      <trkpt lat="43.91509" lon="6.50939">
        <ele>1265.8</ele>
        <time>2021-09-12T14:33:23Z</time>
      </trkpt>
      <trkpt lat="43.91506" lon="6.50937">
        <ele>1265.9</ele>
        <time>2021-09-12T14:33:24Z</time>
      </trkpt>
      <trkpt lat="43.91502" lon="6.50936">
        <ele>1266.1</ele>
        <time>2021-09-12T14:33:26Z</time>
      </trkpt>
      <trkpt lat="43.91499" lon="6.50935">
        <ele>1266.3</ele>
        <time>2021-09-12T14:33:27Z</time>
      </trkpt>
      <trkpt lat="43.91495" lon="6.50934">
        <ele>1266.4</ele>
        <time>2021-09-12T14:33:28Z</time>
      </trkpt>
      <trkpt lat="43.91494" lon="6.50933">
        <ele>1266.5</ele>
        <time>2021-09-12T14:33:29Z</time>
      </trkpt>
      <trkpt lat="43.9149" lon="6.50933">
        <ele>1266.7</ele>
        <time>2021-09-12T14:33:30Z</time>
      </trkpt>
      <trkpt lat="43.91488" lon="6.50933">
        <ele>1266.8</ele>
        <time>2021-09-12T14:33:31Z</time>
      </trkpt>
      <trkpt lat="43.91485" lon="6.50933">
        <ele>1267</ele>
        <time>2021-09-12T14:33:32Z</time>
      </trkpt>
      <trkpt lat="43.91483" lon="6.50931">
        <ele>1267.1</ele>
        <time>2021-09-12T14:33:33Z</time>
      </trkpt>
      <trkpt lat="43.91481" lon="6.50931">
        <ele>1267.2</ele>
        <time>2021-09-12T14:33:34Z</time>
      </trkpt>
      <trkpt lat="43.91476" lon="6.50932">
        <ele>1267.5</ele>
        <time>2021-09-12T14:33:36Z</time>
      </trkpt>
      <trkpt lat="43.91473" lon="6.50934">
        <ele>1267.6</ele>
        <time>2021-09-12T14:33:37Z</time>
      </trkpt>
      <trkpt lat="43.9147" lon="6.50938">
        <ele>1267.8</ele>
        <time>2021-09-12T14:33:39Z</time>
      </trkpt>
      <trkpt lat="43.91468" lon="6.5094">
        <ele>1267.8</ele>
        <time>2021-09-12T14:33:40Z</time>
      </trkpt>
      <trkpt lat="43.91466" lon="6.50943">
        <ele>1267.9</ele>
        <time>2021-09-12T14:33:41Z</time>
      </trkpt>
      <trkpt lat="43.91467" lon="6.50941">
        <ele>1267.9</ele>
        <time>2021-09-12T14:33:42Z</time>
      </trkpt>
      <trkpt lat="43.91453" lon="6.50932">
        <ele>1267.8</ele>
        <time>2021-09-12T14:33:47Z</time>
      </trkpt>
      <trkpt lat="43.91447" lon="6.50934">
        <ele>1267.6</ele>
        <time>2021-09-12T14:33:49Z</time>
      </trkpt>
      <trkpt lat="43.91439" lon="6.50938">
        <ele>1267.2</ele>
        <time>2021-09-12T14:33:51Z</time>
      </trkpt>
      <trkpt lat="43.91432" lon="6.50941">
        <ele>1266.7</ele>
        <time>2021-09-12T14:33:54Z</time>
      </trkpt>
      <trkpt lat="43.91423" lon="6.50945">
        <ele>1265.8</ele>
        <time>2021-09-12T14:33:56Z</time>
      </trkpt>
      <trkpt lat="43.91417" lon="6.50947">
        <ele>1265.2</ele>
        <time>2021-09-12T14:33:57Z</time>
      </trkpt>
      <trkpt lat="43.91405" lon="6.5095">
        <ele>1263.8</ele>
        <time>2021-09-12T14:34:00Z</time>
      </trkpt>
      <trkpt lat="43.91399" lon="6.50951">
        <ele>1263.1</ele>
        <time>2021-09-12T14:34:01Z</time>
      </trkpt>
      <trkpt lat="43.91394" lon="6.50952">
        <ele>1262.5</ele>
        <time>2021-09-12T14:34:02Z</time>
      </trkpt>
      <trkpt lat="43.91382" lon="6.50956">
        <ele>1261.2</ele>
        <time>2021-09-12T14:34:04Z</time>
      </trkpt>
      <trkpt lat="43.91378" lon="6.50959">
        <ele>1260.6</ele>
        <time>2021-09-12T14:34:05Z</time>
      </trkpt>
      <trkpt lat="43.91371" lon="6.50957">
        <ele>1259.8</ele>
        <time>2021-09-12T14:34:06Z</time>
      </trkpt>
      <trkpt lat="43.91367" lon="6.5096">
        <ele>1259.4</ele>
        <time>2021-09-12T14:34:07Z</time>
      </trkpt>
      <trkpt lat="43.91361" lon="6.50962">
        <ele>1258.8</ele>
        <time>2021-09-12T14:34:08Z</time>
      </trkpt>
      <trkpt lat="43.91353" lon="6.50965">
        <ele>1257.9</ele>
        <time>2021-09-12T14:34:09Z</time>
      </trkpt>
      <trkpt lat="43.91344" lon="6.50968">
        <ele>1256.1</ele>
        <time>2021-09-12T14:34:10Z</time>
      </trkpt>
      <trkpt lat="43.91342" lon="6.50976">
        <ele>1254.7</ele>
        <time>2021-09-12T14:34:11Z</time>
      </trkpt>
      <trkpt lat="43.91336" lon="6.50978">
        <ele>1253.5</ele>
        <time>2021-09-12T14:34:12Z</time>
      </trkpt>
      <trkpt lat="43.91328" lon="6.50982">
        <ele>1252</ele>
        <time>2021-09-12T14:34:13Z</time>
      </trkpt>
      <trkpt lat="43.91324" lon="6.50984">
        <ele>1251.3</ele>
        <time>2021-09-12T14:34:14Z</time>
      </trkpt>
      <trkpt lat="43.91313" lon="6.50993">
        <ele>1249.6</ele>
        <time>2021-09-12T14:34:15Z</time>
      </trkpt>
      <trkpt lat="43.91309" lon="6.50998">
        <ele>1249</ele>
        <time>2021-09-12T14:34:16Z</time>
      </trkpt>
      <trkpt lat="43.91299" lon="6.50998">
        <ele>1247.4</ele>
        <time>2021-09-12T14:34:17Z</time>
      </trkpt>
      <trkpt lat="43.91291" lon="6.50996">
        <ele>1245.8</ele>
        <time>2021-09-12T14:34:18Z</time>
      </trkpt>
      <trkpt lat="43.91284" lon="6.50994">
        <ele>1244.2</ele>
        <time>2021-09-12T14:34:20Z</time>
      </trkpt>
      <trkpt lat="43.91277" lon="6.50985">
        <ele>1242.4</ele>
        <time>2021-09-12T14:34:21Z</time>
      </trkpt>
      <trkpt lat="43.91271" lon="6.50979">
        <ele>1241.5</ele>
        <time>2021-09-12T14:34:22Z</time>
      </trkpt>
      <trkpt lat="43.91264" lon="6.50971">
        <ele>1240</ele>
        <time>2021-09-12T14:34:23Z</time>
      </trkpt>
      <trkpt lat="43.91257" lon="6.50962">
        <ele>1238</ele>
        <time>2021-09-12T14:34:24Z</time>
      </trkpt>
      <trkpt lat="43.91251" lon="6.50955">
        <ele>1236.3</ele>
        <time>2021-09-12T14:34:25Z</time>
      </trkpt>
      <trkpt lat="43.91245" lon="6.50948">
        <ele>1234.6</ele>
        <time>2021-09-12T14:34:26Z</time>
      </trkpt>
      <trkpt lat="43.91243" lon="6.50946">
        <ele>1234</ele>
        <time>2021-09-12T14:34:27Z</time>
      </trkpt>
      <trkpt lat="43.91235" lon="6.50943">
        <ele>1232.1</ele>
        <time>2021-09-12T14:34:28Z</time>
      </trkpt>
      <trkpt lat="43.91226" lon="6.50941">
        <ele>1230.2</ele>
        <time>2021-09-12T14:34:29Z</time>
      </trkpt>
      <trkpt lat="43.91218" lon="6.50937">
        <ele>1228.3</ele>
        <time>2021-09-12T14:34:30Z</time>
      </trkpt>
      <trkpt lat="43.9121" lon="6.50932">
        <ele>1226.6</ele>
        <time>2021-09-12T14:34:31Z</time>
      </trkpt>
      <trkpt lat="43.91205" lon="6.50929">
        <ele>1225.5</ele>
        <time>2021-09-12T14:34:32Z</time>
      </trkpt>
      <trkpt lat="43.91197" lon="6.50926">
        <ele>1223.4</ele>
        <time>2021-09-12T14:34:33Z</time>
      </trkpt>
      <trkpt lat="43.9119" lon="6.50919">
        <ele>1220.8</ele>
        <time>2021-09-12T14:34:34Z</time>
      </trkpt>
      <trkpt lat="43.91182" lon="6.50918">
        <ele>1218.3</ele>
        <time>2021-09-12T14:34:35Z</time>
      </trkpt>
      <trkpt lat="43.91174" lon="6.50913">
        <ele>1214.9</ele>
        <time>2021-09-12T14:34:36Z</time>
      </trkpt>
      <trkpt lat="43.91168" lon="6.50909">
        <ele>1212.4</ele>
        <time>2021-09-12T14:34:37Z</time>
      </trkpt>
      <trkpt lat="43.91159" lon="6.50909">
        <ele>1209.5</ele>
        <time>2021-09-12T14:34:38Z</time>
      </trkpt>
      <trkpt lat="43.91153" lon="6.50911">
        <ele>1208.4</ele>
        <time>2021-09-12T14:34:39Z</time>
      </trkpt>
      <trkpt lat="43.91144" lon="6.50914">
        <ele>1208.1</ele>
        <time>2021-09-12T14:34:40Z</time>
      </trkpt>
      <trkpt lat="43.91138" lon="6.50916">
        <ele>1208.5</ele>
        <time>2021-09-12T14:34:41Z</time>
      </trkpt>
      <trkpt lat="43.91135" lon="6.50917">
        <ele>1208.6</ele>
        <time>2021-09-12T14:34:42Z</time>
      </trkpt>
      <trkpt lat="43.91134" lon="6.50922">
        <ele>1208.7</ele>
        <time>2021-09-12T14:34:43Z</time>
      </trkpt>
      <trkpt lat="43.9113" lon="6.5093">
        <ele>1208.8</ele>
        <time>2021-09-12T14:34:44Z</time>
      </trkpt>
      <trkpt lat="43.91126" lon="6.50939">
        <ele>1208.8</ele>
        <time>2021-09-12T14:34:45Z</time>
      </trkpt>
      <trkpt lat="43.91124" lon="6.50943">
        <ele>1208.8</ele>
        <time>2021-09-12T14:34:46Z</time>
      </trkpt>
      <trkpt lat="43.91123" lon="6.50944">
        <ele>1208.8</ele>
        <time>2021-09-12T14:34:47Z</time>
      </trkpt>
      <trkpt lat="43.91121" lon="6.50947">
        <ele>1208.8</ele>
        <time>2021-09-12T14:34:48Z</time>
      </trkpt>
      <trkpt lat="43.91119" lon="6.50952">
        <ele>1208.9</ele>
        <time>2021-09-12T14:34:49Z</time>
      </trkpt>
      <trkpt lat="43.91117" lon="6.50956">
        <ele>1209</ele>
        <time>2021-09-12T14:34:50Z</time>
      </trkpt>
      <trkpt lat="43.91115" lon="6.5096">
        <ele>1209.1</ele>
        <time>2021-09-12T14:34:51Z</time>
      </trkpt>
      <trkpt lat="43.91117" lon="6.50964">
        <ele>1209.3</ele>
        <time>2021-09-12T14:34:52Z</time>
      </trkpt>
      <trkpt lat="43.91116" lon="6.50969">
        <ele>1209.4</ele>
        <time>2021-09-12T14:34:53Z</time>
      </trkpt>
      <trkpt lat="43.91116" lon="6.50972">
        <ele>1209.5</ele>
        <time>2021-09-12T14:34:54Z</time>
      </trkpt>
      <trkpt lat="43.91115" lon="6.50975">
        <ele>1209.7</ele>
        <time>2021-09-12T14:34:55Z</time>
      </trkpt>
      <trkpt lat="43.91115" lon="6.50982">
        <ele>1209.9</ele>
        <time>2021-09-12T14:34:57Z</time>
      </trkpt>
      <trkpt lat="43.91114" lon="6.50985">
        <ele>1210</ele>
        <time>2021-09-12T14:34:58Z</time>
      </trkpt>
      <trkpt lat="43.91112" lon="6.50985">
        <ele>1210.1</ele>
        <time>2021-09-12T14:34:59Z</time>
      </trkpt>
      <trkpt lat="43.9111" lon="6.50989">
        <ele>1210.2</ele>
        <time>2021-09-12T14:35:00Z</time>
      </trkpt>
      <trkpt lat="43.91111" lon="6.50993">
        <ele>1210.3</ele>
        <time>2021-09-12T14:35:01Z</time>
      </trkpt>
      <trkpt lat="43.91111" lon="6.50996">
        <ele>1210.4</ele>
        <time>2021-09-12T14:35:02Z</time>
      </trkpt>
      <trkpt lat="43.91111" lon="6.51">
        <ele>1210.5</ele>
        <time>2021-09-12T14:35:03Z</time>
      </trkpt>
      <trkpt lat="43.91111" lon="6.51001">
        <ele>1210.5</ele>
        <time>2021-09-12T14:35:04Z</time>
      </trkpt>
      <trkpt lat="43.91109" lon="6.51006">
        <ele>1210.7</ele>
        <time>2021-09-12T14:35:05Z</time>
      </trkpt>
      <trkpt lat="43.91108" lon="6.51008">
        <ele>1210.7</ele>
        <time>2021-09-12T14:35:06Z</time>
      </trkpt>
      <trkpt lat="43.91106" lon="6.51011">
        <ele>1210.9</ele>
        <time>2021-09-12T14:35:07Z</time>
      </trkpt>
      <trkpt lat="43.91105" lon="6.51012">
        <ele>1210.9</ele>
        <time>2021-09-12T14:35:08Z</time>
      </trkpt>
      <trkpt lat="43.91103" lon="6.51016">
        <ele>1211.1</ele>
        <time>2021-09-12T14:35:09Z</time>
      </trkpt>
      <trkpt lat="43.91102" lon="6.51022">
        <ele>1211.2</ele>
        <time>2021-09-12T14:35:11Z</time>
      </trkpt>
      <trkpt lat="43.911" lon="6.51026">
        <ele>1211.3</ele>
        <time>2021-09-12T14:35:13Z</time>
      </trkpt>
      <trkpt lat="43.91097" lon="6.51036">
        <ele>1211.3</ele>
        <time>2021-09-12T14:35:16Z</time>
      </trkpt>
      <trkpt lat="43.91093" lon="6.51051">
        <ele>1210.7</ele>
        <time>2021-09-12T14:35:21Z</time>
      </trkpt>
      <trkpt lat="43.91089" lon="6.51068">
        <ele>1209.6</ele>
        <time>2021-09-12T14:35:25Z</time>
      </trkpt>
      <trkpt lat="43.91084" lon="6.51087">
        <ele>1208.1</ele>
        <time>2021-09-12T14:35:30Z</time>
      </trkpt>
      <trkpt lat="43.9108" lon="6.51096">
        <ele>1207.3</ele>
        <time>2021-09-12T14:35:32Z</time>
      </trkpt>
      <trkpt lat="43.91072" lon="6.51113">
        <ele>1205.8</ele>
        <time>2021-09-12T14:35:36Z</time>
      </trkpt>
      <trkpt lat="43.91063" lon="6.51128">
        <ele>1204.6</ele>
        <time>2021-09-12T14:35:39Z</time>
      </trkpt>
      <trkpt lat="43.91059" lon="6.51136">
        <ele>1204.3</ele>
        <time>2021-09-12T14:35:40Z</time>
      </trkpt>
      <trkpt lat="43.91055" lon="6.5115">
        <ele>1204</ele>
        <time>2021-09-12T14:35:43Z</time>
      </trkpt>
      <trkpt lat="43.9105" lon="6.51159">
        <ele>1203.8</ele>
        <time>2021-09-12T14:35:44Z</time>
      </trkpt>
      <trkpt lat="43.91048" lon="6.51169">
        <ele>1203.7</ele>
        <time>2021-09-12T14:35:45Z</time>
      </trkpt>
      <trkpt lat="43.91047" lon="6.51175">
        <ele>1203.6</ele>
        <time>2021-09-12T14:35:46Z</time>
      </trkpt>
      <trkpt lat="43.91046" lon="6.51184">
        <ele>1203.4</ele>
        <time>2021-09-12T14:35:47Z</time>
      </trkpt>
      <trkpt lat="43.91049" lon="6.51185">
        <ele>1203.3</ele>
        <time>2021-09-12T14:35:48Z</time>
      </trkpt>
      <trkpt lat="43.91048" lon="6.51197">
        <ele>1203</ele>
        <time>2021-09-12T14:35:49Z</time>
      </trkpt>
      <trkpt lat="43.91047" lon="6.51207">
        <ele>1202.7</ele>
        <time>2021-09-12T14:35:50Z</time>
      </trkpt>
      <trkpt lat="43.91045" lon="6.51217">
        <ele>1202.3</ele>
        <time>2021-09-12T14:35:52Z</time>
      </trkpt>
      <trkpt lat="43.91039" lon="6.51236">
        <ele>1201.4</ele>
        <time>2021-09-12T14:35:54Z</time>
      </trkpt>
      <trkpt lat="43.91037" lon="6.51242">
        <ele>1201.2</ele>
        <time>2021-09-12T14:35:55Z</time>
      </trkpt>
      <trkpt lat="43.91034" lon="6.51249">
        <ele>1201</ele>
        <time>2021-09-12T14:35:56Z</time>
      </trkpt>
      <trkpt lat="43.91032" lon="6.51255">
        <ele>1201</ele>
        <time>2021-09-12T14:35:57Z</time>
      </trkpt>
      <trkpt lat="43.91029" lon="6.51259">
        <ele>1201</ele>
        <time>2021-09-12T14:35:58Z</time>
      </trkpt>
      <trkpt lat="43.91026" lon="6.51265">
        <ele>1200.9</ele>
        <time>2021-09-12T14:35:59Z</time>
      </trkpt>
      <trkpt lat="43.91022" lon="6.51275">
        <ele>1200.8</ele>
        <time>2021-09-12T14:36:00Z</time>
      </trkpt>
      <trkpt lat="43.91017" lon="6.51282">
        <ele>1200.7</ele>
        <time>2021-09-12T14:36:02Z</time>
      </trkpt>
      <trkpt lat="43.91014" lon="6.51286">
        <ele>1200.6</ele>
        <time>2021-09-12T14:36:03Z</time>
      </trkpt>
      <trkpt lat="43.9101" lon="6.51292">
        <ele>1200.5</ele>
        <time>2021-09-12T14:36:04Z</time>
      </trkpt>
      <trkpt lat="43.91006" lon="6.51299">
        <ele>1200.4</ele>
        <time>2021-09-12T14:36:05Z</time>
      </trkpt>
      <trkpt lat="43.91004" lon="6.51303">
        <ele>1200.2</ele>
        <time>2021-09-12T14:36:06Z</time>
      </trkpt>
      <trkpt lat="43.91001" lon="6.51307">
        <ele>1200.1</ele>
        <time>2021-09-12T14:36:07Z</time>
      </trkpt>
      <trkpt lat="43.90995" lon="6.51314">
        <ele>1199.9</ele>
        <time>2021-09-12T14:36:08Z</time>
      </trkpt>
      <trkpt lat="43.90993" lon="6.51318">
        <ele>1199.8</ele>
        <time>2021-09-12T14:36:09Z</time>
      </trkpt>
      <trkpt lat="43.9099" lon="6.5132">
        <ele>1199.8</ele>
        <time>2021-09-12T14:36:10Z</time>
      </trkpt>
      <trkpt lat="43.90984" lon="6.51323">
        <ele>1199.9</ele>
        <time>2021-09-12T14:36:11Z</time>
      </trkpt>
      <trkpt lat="43.9098" lon="6.51326">
        <ele>1200</ele>
        <time>2021-09-12T14:36:12Z</time>
      </trkpt>
      <trkpt lat="43.90978" lon="6.51327">
        <ele>1200</ele>
        <time>2021-09-12T14:36:13Z</time>
      </trkpt>
      <trkpt lat="43.90972" lon="6.5133">
        <ele>1200.1</ele>
        <time>2021-09-12T14:36:16Z</time>
      </trkpt>
      <trkpt lat="43.90968" lon="6.51332">
        <ele>1200.3</ele>
        <time>2021-09-12T14:36:17Z</time>
      </trkpt>
      <trkpt lat="43.9096" lon="6.51337">
        <ele>1200.6</ele>
        <time>2021-09-12T14:36:20Z</time>
      </trkpt>
      <trkpt lat="43.90954" lon="6.51342">
        <ele>1200.9</ele>
        <time>2021-09-12T14:36:23Z</time>
      </trkpt>
      <trkpt lat="43.90948" lon="6.51348">
        <ele>1201.1</ele>
        <time>2021-09-12T14:36:25Z</time>
      </trkpt>
      <trkpt lat="43.90944" lon="6.51353">
        <ele>1201.3</ele>
        <time>2021-09-12T14:36:27Z</time>
      </trkpt>
      <trkpt lat="43.9094" lon="6.51358">
        <ele>1201.5</ele>
        <time>2021-09-12T14:36:28Z</time>
      </trkpt>
      <trkpt lat="43.90937" lon="6.51366">
        <ele>1201.9</ele>
        <time>2021-09-12T14:36:31Z</time>
      </trkpt>
      <trkpt lat="43.90933" lon="6.51371">
        <ele>1202.2</ele>
        <time>2021-09-12T14:36:32Z</time>
      </trkpt>
      <trkpt lat="43.9093" lon="6.51375">
        <ele>1202.5</ele>
        <time>2021-09-12T14:36:34Z</time>
      </trkpt>
      <trkpt lat="43.90929" lon="6.51379">
        <ele>1202.7</ele>
        <time>2021-09-12T14:36:35Z</time>
      </trkpt>
      <trkpt lat="43.90927" lon="6.51384">
        <ele>1203</ele>
        <time>2021-09-12T14:36:36Z</time>
      </trkpt>
      <trkpt lat="43.90926" lon="6.51386">
        <ele>1203.1</ele>
        <time>2021-09-12T14:36:37Z</time>
      </trkpt>
      <trkpt lat="43.90924" lon="6.51389">
        <ele>1203.2</ele>
        <time>2021-09-12T14:36:38Z</time>
      </trkpt>
      <trkpt lat="43.9092" lon="6.51393">
        <ele>1203.4</ele>
        <time>2021-09-12T14:36:40Z</time>
      </trkpt>
      <trkpt lat="43.90919" lon="6.51397">
        <ele>1203.5</ele>
        <time>2021-09-12T14:36:42Z</time>
      </trkpt>
      <trkpt lat="43.90918" lon="6.514">
        <ele>1203.5</ele>
        <time>2021-09-12T14:36:43Z</time>
      </trkpt>
      <trkpt lat="43.90917" lon="6.51404">
        <ele>1203.5</ele>
        <time>2021-09-12T14:36:44Z</time>
      </trkpt>
      <trkpt lat="43.90915" lon="6.51407">
        <ele>1203.5</ele>
        <time>2021-09-12T14:36:45Z</time>
      </trkpt>
      <trkpt lat="43.90914" lon="6.5141">
        <ele>1203.5</ele>
        <time>2021-09-12T14:36:46Z</time>
      </trkpt>
      <trkpt lat="43.90912" lon="6.51414">
        <ele>1203.5</ele>
        <time>2021-09-12T14:36:47Z</time>
      </trkpt>
      <trkpt lat="43.9091" lon="6.5142">
        <ele>1203.4</ele>
        <time>2021-09-12T14:36:49Z</time>
      </trkpt>
      <trkpt lat="43.90909" lon="6.51423">
        <ele>1203.3</ele>
        <time>2021-09-12T14:36:50Z</time>
      </trkpt>
      <trkpt lat="43.90905" lon="6.51427">
        <ele>1203.2</ele>
        <time>2021-09-12T14:36:51Z</time>
      </trkpt>
      <trkpt lat="43.90903" lon="6.51431">
        <ele>1203.2</ele>
        <time>2021-09-12T14:36:52Z</time>
      </trkpt>
      <trkpt lat="43.909" lon="6.51437">
        <ele>1203.1</ele>
        <time>2021-09-12T14:36:53Z</time>
      </trkpt>
      <trkpt lat="43.90897" lon="6.51441">
        <ele>1203.1</ele>
        <time>2021-09-12T14:36:54Z</time>
      </trkpt>
      <trkpt lat="43.90892" lon="6.51452">
        <ele>1203</ele>
        <time>2021-09-12T14:36:56Z</time>
      </trkpt>
      <trkpt lat="43.90886" lon="6.5146">
        <ele>1203.1</ele>
        <time>2021-09-12T14:36:58Z</time>
      </trkpt>
      <trkpt lat="43.90883" lon="6.51463">
        <ele>1203.1</ele>
        <time>2021-09-12T14:36:59Z</time>
      </trkpt>
      <trkpt lat="43.90879" lon="6.5147">
        <ele>1203.2</ele>
        <time>2021-09-12T14:37:01Z</time>
      </trkpt>
      <trkpt lat="43.90877" lon="6.51473">
        <ele>1203.3</ele>
        <time>2021-09-12T14:37:02Z</time>
      </trkpt>
      <trkpt lat="43.90873" lon="6.51479">
        <ele>1203.4</ele>
        <time>2021-09-12T14:37:03Z</time>
      </trkpt>
      <trkpt lat="43.90871" lon="6.51485">
        <ele>1203.5</ele>
        <time>2021-09-12T14:37:04Z</time>
      </trkpt>
      <trkpt lat="43.90871" lon="6.51488">
        <ele>1203.6</ele>
        <time>2021-09-12T14:37:05Z</time>
      </trkpt>
      <trkpt lat="43.90869" lon="6.51493">
        <ele>1203.7</ele>
        <time>2021-09-12T14:37:06Z</time>
      </trkpt>
      <trkpt lat="43.90867" lon="6.51496">
        <ele>1203.8</ele>
        <time>2021-09-12T14:37:07Z</time>
      </trkpt>
      <trkpt lat="43.90865" lon="6.51497">
        <ele>1203.8</ele>
        <time>2021-09-12T14:37:08Z</time>
      </trkpt>
      <trkpt lat="43.90859" lon="6.51499">
        <ele>1203.9</ele>
        <time>2021-09-12T14:37:09Z</time>
      </trkpt>
      <trkpt lat="43.90857" lon="6.515">
        <ele>1203.9</ele>
        <time>2021-09-12T14:37:10Z</time>
      </trkpt>
      <trkpt lat="43.90853" lon="6.51503">
        <ele>1203.9</ele>
        <time>2021-09-12T14:37:12Z</time>
      </trkpt>
      <trkpt lat="43.90849" lon="6.51505">
        <ele>1203.8</ele>
        <time>2021-09-12T14:37:13Z</time>
      </trkpt>
      <trkpt lat="43.90845" lon="6.51508">
        <ele>1203.7</ele>
        <time>2021-09-12T14:37:14Z</time>
      </trkpt>
      <trkpt lat="43.90842" lon="6.5151">
        <ele>1203.5</ele>
        <time>2021-09-12T14:37:15Z</time>
      </trkpt>
      <trkpt lat="43.90839" lon="6.51512">
        <ele>1203.4</ele>
        <time>2021-09-12T14:37:16Z</time>
      </trkpt>
      <trkpt lat="43.90833" lon="6.51514">
        <ele>1203.2</ele>
        <time>2021-09-12T14:37:18Z</time>
      </trkpt>
      <trkpt lat="43.90827" lon="6.51515">
        <ele>1203</ele>
        <time>2021-09-12T14:37:19Z</time>
      </trkpt>
      <trkpt lat="43.90823" lon="6.51518">
        <ele>1202.9</ele>
        <time>2021-09-12T14:37:20Z</time>
      </trkpt>
      <trkpt lat="43.9082" lon="6.5152">
        <ele>1202.8</ele>
        <time>2021-09-12T14:37:21Z</time>
      </trkpt>
      <trkpt lat="43.90816" lon="6.51523">
        <ele>1202.7</ele>
        <time>2021-09-12T14:37:22Z</time>
      </trkpt>
      <trkpt lat="43.90812" lon="6.51525">
        <ele>1202.6</ele>
        <time>2021-09-12T14:37:23Z</time>
      </trkpt>
      <trkpt lat="43.90807" lon="6.51528">
        <ele>1202.5</ele>
        <time>2021-09-12T14:37:24Z</time>
      </trkpt>
      <trkpt lat="43.90803" lon="6.51532">
        <ele>1202.4</ele>
        <time>2021-09-12T14:37:25Z</time>
      </trkpt>
      <trkpt lat="43.90798" lon="6.51537">
        <ele>1202.3</ele>
        <time>2021-09-12T14:37:26Z</time>
      </trkpt>
      <trkpt lat="43.90794" lon="6.51541">
        <ele>1202.3</ele>
        <time>2021-09-12T14:37:27Z</time>
      </trkpt>
      <trkpt lat="43.90789" lon="6.51544">
        <ele>1202.3</ele>
        <time>2021-09-12T14:37:28Z</time>
      </trkpt>
      <trkpt lat="43.90786" lon="6.51548">
        <ele>1202.3</ele>
        <time>2021-09-12T14:37:29Z</time>
      </trkpt>
      <trkpt lat="43.90781" lon="6.51551">
        <ele>1202.4</ele>
        <time>2021-09-12T14:37:30Z</time>
      </trkpt>
      <trkpt lat="43.90777" lon="6.51554">
        <ele>1202.4</ele>
        <time>2021-09-12T14:37:31Z</time>
      </trkpt>
      <trkpt lat="43.90772" lon="6.51557">
        <ele>1202.4</ele>
        <time>2021-09-12T14:37:32Z</time>
      </trkpt>
      <trkpt lat="43.90768" lon="6.51559">
        <ele>1202.4</ele>
        <time>2021-09-12T14:37:33Z</time>
      </trkpt>
      <trkpt lat="43.90766" lon="6.51562">
        <ele>1202.4</ele>
        <time>2021-09-12T14:37:34Z</time>
      </trkpt>
      <trkpt lat="43.90763" lon="6.51566">
        <ele>1202.4</ele>
        <time>2021-09-12T14:37:35Z</time>
      </trkpt>
      <trkpt lat="43.9076" lon="6.51569">
        <ele>1202.3</ele>
        <time>2021-09-12T14:37:36Z</time>
      </trkpt>
      <trkpt lat="43.90757" lon="6.51573">
        <ele>1202.3</ele>
        <time>2021-09-12T14:37:37Z</time>
      </trkpt>
      <trkpt lat="43.90752" lon="6.51577">
        <ele>1202.1</ele>
        <time>2021-09-12T14:37:39Z</time>
      </trkpt>
      <trkpt lat="43.90744" lon="6.5158">
        <ele>1201.7</ele>
        <time>2021-09-12T14:37:41Z</time>
      </trkpt>
      <trkpt lat="43.90737" lon="6.51582">
        <ele>1201.3</ele>
        <time>2021-09-12T14:37:43Z</time>
      </trkpt>
      <trkpt lat="43.90733" lon="6.51584">
        <ele>1201</ele>
        <time>2021-09-12T14:37:44Z</time>
      </trkpt>
      <trkpt lat="43.90728" lon="6.51584">
        <ele>1200.7</ele>
        <time>2021-09-12T14:37:45Z</time>
      </trkpt>
      <trkpt lat="43.90723" lon="6.51586">
        <ele>1200.3</ele>
        <time>2021-09-12T14:37:47Z</time>
      </trkpt>
      <trkpt lat="43.90713" lon="6.51589">
        <ele>1199.6</ele>
        <time>2021-09-12T14:37:48Z</time>
      </trkpt>
      <trkpt lat="43.90707" lon="6.51591">
        <ele>1199.2</ele>
        <time>2021-09-12T14:37:50Z</time>
      </trkpt>
      <trkpt lat="43.90695" lon="6.51595">
        <ele>1198.7</ele>
        <time>2021-09-12T14:37:52Z</time>
      </trkpt>
      <trkpt lat="43.90689" lon="6.51597">
        <ele>1198.6</ele>
        <time>2021-09-12T14:37:53Z</time>
      </trkpt>
      <trkpt lat="43.90676" lon="6.51602">
        <ele>1198.5</ele>
        <time>2021-09-12T14:37:55Z</time>
      </trkpt>
      <trkpt lat="43.90671" lon="6.51604">
        <ele>1198.5</ele>
        <time>2021-09-12T14:37:56Z</time>
      </trkpt>
      <trkpt lat="43.90666" lon="6.51603">
        <ele>1198.5</ele>
        <time>2021-09-12T14:37:57Z</time>
      </trkpt>
      <trkpt lat="43.90657" lon="6.51605">
        <ele>1198.6</ele>
        <time>2021-09-12T14:37:59Z</time>
      </trkpt>
      <trkpt lat="43.9065" lon="6.51608">
        <ele>1198.6</ele>
        <time>2021-09-12T14:38:00Z</time>
      </trkpt>
      <trkpt lat="43.90647" lon="6.51608">
        <ele>1198.5</ele>
        <time>2021-09-12T14:38:01Z</time>
      </trkpt>
      <trkpt lat="43.90643" lon="6.51612">
        <ele>1198.4</ele>
        <time>2021-09-12T14:38:02Z</time>
      </trkpt>
      <trkpt lat="43.90642" lon="6.51614">
        <ele>1198.3</ele>
        <time>2021-09-12T14:38:03Z</time>
      </trkpt>
      <trkpt lat="43.90638" lon="6.51619">
        <ele>1198.1</ele>
        <time>2021-09-12T14:38:04Z</time>
      </trkpt>
      <trkpt lat="43.90636" lon="6.51624">
        <ele>1197.8</ele>
        <time>2021-09-12T14:38:05Z</time>
      </trkpt>
      <trkpt lat="43.90636" lon="6.51631">
        <ele>1197.6</ele>
        <time>2021-09-12T14:38:06Z</time>
      </trkpt>
      <trkpt lat="43.9064" lon="6.51641">
        <ele>1197.3</ele>
        <time>2021-09-12T14:38:07Z</time>
      </trkpt>
      <trkpt lat="43.9064" lon="6.51646">
        <ele>1197.1</ele>
        <time>2021-09-12T14:38:08Z</time>
      </trkpt>
      <trkpt lat="43.90638" lon="6.51655">
        <ele>1197</ele>
        <time>2021-09-12T14:38:09Z</time>
      </trkpt>
      <trkpt lat="43.90638" lon="6.5166">
        <ele>1196.9</ele>
        <time>2021-09-12T14:38:10Z</time>
      </trkpt>
      <trkpt lat="43.90637" lon="6.51671">
        <ele>1196.7</ele>
        <time>2021-09-12T14:38:11Z</time>
      </trkpt>
      <trkpt lat="43.90638" lon="6.51678">
        <ele>1196.6</ele>
        <time>2021-09-12T14:38:12Z</time>
      </trkpt>
      <trkpt lat="43.9064" lon="6.51683">
        <ele>1196.4</ele>
        <time>2021-09-12T14:38:13Z</time>
      </trkpt>
      <trkpt lat="43.9064" lon="6.5169">
        <ele>1196.1</ele>
        <time>2021-09-12T14:38:14Z</time>
      </trkpt>
      <trkpt lat="43.9064" lon="6.51699">
        <ele>1195.7</ele>
        <time>2021-09-12T14:38:15Z</time>
      </trkpt>
      <trkpt lat="43.9064" lon="6.51706">
        <ele>1195.3</ele>
        <time>2021-09-12T14:38:16Z</time>
      </trkpt>
      <trkpt lat="43.90638" lon="6.51712">
        <ele>1195</ele>
        <time>2021-09-12T14:38:17Z</time>
      </trkpt>
      <trkpt lat="43.90636" lon="6.51717">
        <ele>1194.7</ele>
        <time>2021-09-12T14:38:18Z</time>
      </trkpt>
      <trkpt lat="43.90631" lon="6.51727">
        <ele>1194.2</ele>
        <time>2021-09-12T14:38:19Z</time>
      </trkpt>
      <trkpt lat="43.90628" lon="6.51729">
        <ele>1194</ele>
        <time>2021-09-12T14:38:20Z</time>
      </trkpt>
      <trkpt lat="43.9062" lon="6.51733">
        <ele>1193.7</ele>
        <time>2021-09-12T14:38:21Z</time>
      </trkpt>
      <trkpt lat="43.90617" lon="6.51735">
        <ele>1193.5</ele>
        <time>2021-09-12T14:38:22Z</time>
      </trkpt>
      <trkpt lat="43.90612" lon="6.51742">
        <ele>1193.1</ele>
        <time>2021-09-12T14:38:23Z</time>
      </trkpt>
      <trkpt lat="43.90608" lon="6.51749">
        <ele>1192.8</ele>
        <time>2021-09-12T14:38:24Z</time>
      </trkpt>
      <trkpt lat="43.90605" lon="6.51754">
        <ele>1192.6</ele>
        <time>2021-09-12T14:38:25Z</time>
      </trkpt>
      <trkpt lat="43.90599" lon="6.51766">
        <ele>1192</ele>
        <time>2021-09-12T14:38:26Z</time>
      </trkpt>
      <trkpt lat="43.906" lon="6.51774">
        <ele>1191.6</ele>
        <time>2021-09-12T14:38:27Z</time>
      </trkpt>
      <trkpt lat="43.90596" lon="6.51786">
        <ele>1190.6</ele>
        <time>2021-09-12T14:38:29Z</time>
      </trkpt>
      <trkpt lat="43.9059" lon="6.51801">
        <ele>1189.4</ele>
        <time>2021-09-12T14:38:31Z</time>
      </trkpt>
      <trkpt lat="43.90583" lon="6.51816">
        <ele>1188.2</ele>
        <time>2021-09-12T14:38:33Z</time>
      </trkpt>
      <trkpt lat="43.9058" lon="6.51823">
        <ele>1187.8</ele>
        <time>2021-09-12T14:38:34Z</time>
      </trkpt>
      <trkpt lat="43.90577" lon="6.51832">
        <ele>1187.4</ele>
        <time>2021-09-12T14:38:35Z</time>
      </trkpt>
      <trkpt lat="43.90571" lon="6.51848">
        <ele>1187</ele>
        <time>2021-09-12T14:38:37Z</time>
      </trkpt>
      <trkpt lat="43.90567" lon="6.51856">
        <ele>1186.6</ele>
        <time>2021-09-12T14:38:38Z</time>
      </trkpt>
      <trkpt lat="43.90563" lon="6.51864">
        <ele>1186.2</ele>
        <time>2021-09-12T14:38:39Z</time>
      </trkpt>
      <trkpt lat="43.9056" lon="6.5187">
        <ele>1185.8</ele>
        <time>2021-09-12T14:38:40Z</time>
      </trkpt>
      <trkpt lat="43.90558" lon="6.51875">
        <ele>1185.5</ele>
        <time>2021-09-12T14:38:41Z</time>
      </trkpt>
      <trkpt lat="43.90554" lon="6.51889">
        <ele>1184.7</ele>
        <time>2021-09-12T14:38:43Z</time>
      </trkpt>
      <trkpt lat="43.90548" lon="6.51904">
        <ele>1183.8</ele>
        <time>2021-09-12T14:38:45Z</time>
      </trkpt>
      <trkpt lat="43.90544" lon="6.51912">
        <ele>1183.4</ele>
        <time>2021-09-12T14:38:46Z</time>
      </trkpt>
      <trkpt lat="43.90538" lon="6.51926">
        <ele>1182.9</ele>
        <time>2021-09-12T14:38:48Z</time>
      </trkpt>
      <trkpt lat="43.90533" lon="6.5194">
        <ele>1182.6</ele>
        <time>2021-09-12T14:38:49Z</time>
      </trkpt>
      <trkpt lat="43.9053" lon="6.51947">
        <ele>1182.4</ele>
        <time>2021-09-12T14:38:50Z</time>
      </trkpt>
      <trkpt lat="43.90527" lon="6.51953">
        <ele>1182.3</ele>
        <time>2021-09-12T14:38:51Z</time>
      </trkpt>
      <trkpt lat="43.90523" lon="6.51965">
        <ele>1182.2</ele>
        <time>2021-09-12T14:38:53Z</time>
      </trkpt>
      <trkpt lat="43.90521" lon="6.51971">
        <ele>1182.1</ele>
        <time>2021-09-12T14:38:54Z</time>
      </trkpt>
      <trkpt lat="43.90518" lon="6.51983">
        <ele>1182.1</ele>
        <time>2021-09-12T14:38:55Z</time>
      </trkpt>
      <trkpt lat="43.90516" lon="6.5199">
        <ele>1182</ele>
        <time>2021-09-12T14:38:56Z</time>
      </trkpt>
      <trkpt lat="43.90515" lon="6.51996">
        <ele>1182</ele>
        <time>2021-09-12T14:38:57Z</time>
      </trkpt>
      <trkpt lat="43.90513" lon="6.52007">
        <ele>1181.9</ele>
        <time>2021-09-12T14:38:58Z</time>
      </trkpt>
      <trkpt lat="43.90512" lon="6.52012">
        <ele>1181.9</ele>
        <time>2021-09-12T14:38:59Z</time>
      </trkpt>
      <trkpt lat="43.9051" lon="6.52019">
        <ele>1181.9</ele>
        <time>2021-09-12T14:39:00Z</time>
      </trkpt>
      <trkpt lat="43.90509" lon="6.5203">
        <ele>1181.8</ele>
        <time>2021-09-12T14:39:02Z</time>
      </trkpt>
      <trkpt lat="43.90508" lon="6.52042">
        <ele>1181.7</ele>
        <time>2021-09-12T14:39:04Z</time>
      </trkpt>
      <trkpt lat="43.90506" lon="6.52046">
        <ele>1181.7</ele>
        <time>2021-09-12T14:39:05Z</time>
      </trkpt>
      <trkpt lat="43.90504" lon="6.52049">
        <ele>1181.6</ele>
        <time>2021-09-12T14:39:06Z</time>
      </trkpt>
      <trkpt lat="43.90502" lon="6.52052">
        <ele>1181.4</ele>
        <time>2021-09-12T14:39:07Z</time>
      </trkpt>
      <trkpt lat="43.905" lon="6.52055">
        <ele>1181.3</ele>
        <time>2021-09-12T14:39:08Z</time>
      </trkpt>
      <trkpt lat="43.90495" lon="6.52064">
        <ele>1180.9</ele>
        <time>2021-09-12T14:39:09Z</time>
      </trkpt>
      <trkpt lat="43.90493" lon="6.5207">
        <ele>1180.6</ele>
        <time>2021-09-12T14:39:10Z</time>
      </trkpt>
      <trkpt lat="43.90491" lon="6.52083">
        <ele>1180</ele>
        <time>2021-09-12T14:39:12Z</time>
      </trkpt>
      <trkpt lat="43.9049" lon="6.52089">
        <ele>1179.7</ele>
        <time>2021-09-12T14:39:13Z</time>
      </trkpt>
      <trkpt lat="43.90489" lon="6.52096">
        <ele>1179.4</ele>
        <time>2021-09-12T14:39:14Z</time>
      </trkpt>
      <trkpt lat="43.90487" lon="6.52112">
        <ele>1178.3</ele>
        <time>2021-09-12T14:39:16Z</time>
      </trkpt>
      <trkpt lat="43.90486" lon="6.52133">
        <ele>1176.1</ele>
        <time>2021-09-12T14:39:18Z</time>
      </trkpt>
      <trkpt lat="43.90486" lon="6.52143">
        <ele>1174.9</ele>
        <time>2021-09-12T14:39:19Z</time>
      </trkpt>
      <trkpt lat="43.90485" lon="6.5215">
        <ele>1173.9</ele>
        <time>2021-09-12T14:39:20Z</time>
      </trkpt>
      <trkpt lat="43.90481" lon="6.52159">
        <ele>1172.4</ele>
        <time>2021-09-12T14:39:21Z</time>
      </trkpt>
      <trkpt lat="43.90472" lon="6.52157">
        <ele>1170.5</ele>
        <time>2021-09-12T14:39:22Z</time>
      </trkpt>
      <trkpt lat="43.90464" lon="6.52155">
        <ele>1169</ele>
        <time>2021-09-12T14:39:23Z</time>
      </trkpt>
      <trkpt lat="43.90461" lon="6.52156">
        <ele>1168.3</ele>
        <time>2021-09-12T14:39:24Z</time>
      </trkpt>
      <trkpt lat="43.90456" lon="6.52158">
        <ele>1167.5</ele>
        <time>2021-09-12T14:39:25Z</time>
      </trkpt>
      <trkpt lat="43.90448" lon="6.52167">
        <ele>1165.8</ele>
        <time>2021-09-12T14:39:26Z</time>
      </trkpt>
      <trkpt lat="43.90441" lon="6.52176">
        <ele>1164.4</ele>
        <time>2021-09-12T14:39:27Z</time>
      </trkpt>
      <trkpt lat="43.90435" lon="6.52181">
        <ele>1163.4</ele>
        <time>2021-09-12T14:39:28Z</time>
      </trkpt>
      <trkpt lat="43.90428" lon="6.52189">
        <ele>1162.4</ele>
        <time>2021-09-12T14:39:29Z</time>
      </trkpt>
      <trkpt lat="43.90421" lon="6.52196">
        <ele>1161.7</ele>
        <time>2021-09-12T14:39:30Z</time>
      </trkpt>
      <trkpt lat="43.90414" lon="6.52202">
        <ele>1161.3</ele>
        <time>2021-09-12T14:39:31Z</time>
      </trkpt>
      <trkpt lat="43.90405" lon="6.52205">
        <ele>1161</ele>
        <time>2021-09-12T14:39:33Z</time>
      </trkpt>
      <trkpt lat="43.90398" lon="6.52206">
        <ele>1160.8</ele>
        <time>2021-09-12T14:39:34Z</time>
      </trkpt>
      <trkpt lat="43.90391" lon="6.52206">
        <ele>1160.6</ele>
        <time>2021-09-12T14:39:35Z</time>
      </trkpt>
      <trkpt lat="43.9038" lon="6.522">
        <ele>1160.3</ele>
        <time>2021-09-12T14:39:36Z</time>
      </trkpt>
      <trkpt lat="43.90376" lon="6.522">
        <ele>1160</ele>
        <time>2021-09-12T14:39:37Z</time>
      </trkpt>
      <trkpt lat="43.9037" lon="6.52196">
        <ele>1159.3</ele>
        <time>2021-09-12T14:39:38Z</time>
      </trkpt>
      <trkpt lat="43.90364" lon="6.52191">
        <ele>1158.3</ele>
        <time>2021-09-12T14:39:39Z</time>
      </trkpt>
      <trkpt lat="43.9036" lon="6.5219">
        <ele>1157.6</ele>
        <time>2021-09-12T14:39:40Z</time>
      </trkpt>
      <trkpt lat="43.90356" lon="6.52179">
        <ele>1156</ele>
        <time>2021-09-12T14:39:41Z</time>
      </trkpt>
      <trkpt lat="43.90352" lon="6.52171">
        <ele>1154.7</ele>
        <time>2021-09-12T14:39:42Z</time>
      </trkpt>
      <trkpt lat="43.90348" lon="6.52163">
        <ele>1153.6</ele>
        <time>2021-09-12T14:39:43Z</time>
      </trkpt>
      <trkpt lat="43.90344" lon="6.52156">
        <ele>1152.4</ele>
        <time>2021-09-12T14:39:44Z</time>
      </trkpt>
      <trkpt lat="43.90341" lon="6.52148">
        <ele>1151</ele>
        <time>2021-09-12T14:39:45Z</time>
      </trkpt>
      <trkpt lat="43.90336" lon="6.52138">
        <ele>1149.4</ele>
        <time>2021-09-12T14:39:46Z</time>
      </trkpt>
      <trkpt lat="43.90333" lon="6.52134">
        <ele>1148.4</ele>
        <time>2021-09-12T14:39:47Z</time>
      </trkpt>
      <trkpt lat="43.90327" lon="6.52121">
        <ele>1146.1</ele>
        <time>2021-09-12T14:39:48Z</time>
      </trkpt>
      <trkpt lat="43.9032" lon="6.52104">
        <ele>1143.8</ele>
        <time>2021-09-12T14:39:50Z</time>
      </trkpt>
      <trkpt lat="43.90317" lon="6.52094">
        <ele>1142.7</ele>
        <time>2021-09-12T14:39:51Z</time>
      </trkpt>
      <trkpt lat="43.90312" lon="6.52074">
        <ele>1141.3</ele>
        <time>2021-09-12T14:39:53Z</time>
      </trkpt>
      <trkpt lat="43.90305" lon="6.52054">
        <ele>1140.2</ele>
        <time>2021-09-12T14:39:55Z</time>
      </trkpt>
      <trkpt lat="43.90301" lon="6.52043">
        <ele>1139.5</ele>
        <time>2021-09-12T14:39:56Z</time>
      </trkpt>
      <trkpt lat="43.90299" lon="6.52037">
        <ele>1139.1</ele>
        <time>2021-09-12T14:39:57Z</time>
      </trkpt>
      <trkpt lat="43.90293" lon="6.52025">
        <ele>1138.1</ele>
        <time>2021-09-12T14:39:59Z</time>
      </trkpt>
      <trkpt lat="43.90285" lon="6.52014">
        <ele>1137.1</ele>
        <time>2021-09-12T14:40:00Z</time>
      </trkpt>
      <trkpt lat="43.90278" lon="6.52007">
        <ele>1136.2</ele>
        <time>2021-09-12T14:40:01Z</time>
      </trkpt>
      <trkpt lat="43.90271" lon="6.52005">
        <ele>1135.5</ele>
        <time>2021-09-12T14:40:02Z</time>
      </trkpt>
      <trkpt lat="43.90268" lon="6.51999">
        <ele>1134.8</ele>
        <time>2021-09-12T14:40:03Z</time>
      </trkpt>
      <trkpt lat="43.90265" lon="6.51993">
        <ele>1134.2</ele>
        <time>2021-09-12T14:40:04Z</time>
      </trkpt>
      <trkpt lat="43.9026" lon="6.51986">
        <ele>1133.2</ele>
        <time>2021-09-12T14:40:05Z</time>
      </trkpt>
      <trkpt lat="43.90252" lon="6.51978">
        <ele>1131.9</ele>
        <time>2021-09-12T14:40:06Z</time>
      </trkpt>
      <trkpt lat="43.90247" lon="6.51978">
        <ele>1131.9</ele>
        <time>2021-09-12T14:40:07Z</time>
      </trkpt>
      <trkpt lat="43.9024" lon="6.51985">
        <ele>1131.9</ele>
        <time>2021-09-12T14:40:08Z</time>
      </trkpt>
      <trkpt lat="43.90236" lon="6.51987">
        <ele>1131.9</ele>
        <time>2021-09-12T14:40:09Z</time>
      </trkpt>
      <trkpt lat="43.90226" lon="6.51988">
        <ele>1126.6</ele>
        <time>2021-09-12T14:40:10Z</time>
      </trkpt>
      <trkpt lat="43.9022" lon="6.51988">
        <ele>1122.4</ele>
        <time>2021-09-12T14:40:11Z</time>
      </trkpt>
      <trkpt lat="43.90216" lon="6.51997">
        <ele>1117.8</ele>
        <time>2021-09-12T14:40:12Z</time>
      </trkpt>
      <trkpt lat="43.90219" lon="6.52001">
        <ele>1111.5</ele>
        <time>2021-09-12T14:40:13Z</time>
      </trkpt>
      <trkpt lat="43.90224" lon="6.52005">
        <ele>1110.6</ele>
        <time>2021-09-12T14:40:14Z</time>
      </trkpt>
      <trkpt lat="43.90236" lon="6.5201">
        <ele>1109</ele>
        <time>2021-09-12T14:40:15Z</time>
      </trkpt>
      <trkpt lat="43.9024" lon="6.52017">
        <ele>1108.1</ele>
        <time>2021-09-12T14:40:16Z</time>
      </trkpt>
      <trkpt lat="43.90241" lon="6.52023">
        <ele>1107.4</ele>
        <time>2021-09-12T14:40:17Z</time>
      </trkpt>
      <trkpt lat="43.9024" lon="6.52037">
        <ele>1105.6</ele>
        <time>2021-09-12T14:40:18Z</time>
      </trkpt>
      <trkpt lat="43.90238" lon="6.52042">
        <ele>1104.7</ele>
        <time>2021-09-12T14:40:19Z</time>
      </trkpt>
      <trkpt lat="43.9023" lon="6.5205">
        <ele>1102.7</ele>
        <time>2021-09-12T14:40:20Z</time>
      </trkpt>
      <trkpt lat="43.90228" lon="6.52059">
        <ele>1101.4</ele>
        <time>2021-09-12T14:40:21Z</time>
      </trkpt>
      <trkpt lat="43.90231" lon="6.52068">
        <ele>1100.3</ele>
        <time>2021-09-12T14:40:22Z</time>
      </trkpt>
      <trkpt lat="43.90234" lon="6.52076">
        <ele>1099.3</ele>
        <time>2021-09-12T14:40:23Z</time>
      </trkpt>
      <trkpt lat="43.90239" lon="6.52091">
        <ele>1097.9</ele>
        <time>2021-09-12T14:40:24Z</time>
      </trkpt>
      <trkpt lat="43.90241" lon="6.52097">
        <ele>1097.3</ele>
        <time>2021-09-12T14:40:25Z</time>
      </trkpt>
      <trkpt lat="43.90243" lon="6.5211">
        <ele>1096.2</ele>
        <time>2021-09-12T14:40:26Z</time>
      </trkpt>
      <trkpt lat="43.90238" lon="6.52109">
        <ele>1095.6</ele>
        <time>2021-09-12T14:40:27Z</time>
      </trkpt>
      <trkpt lat="43.90237" lon="6.52126">
        <ele>1094.3</ele>
        <time>2021-09-12T14:40:29Z</time>
      </trkpt>
      <trkpt lat="43.9024" lon="6.52135">
        <ele>1093.7</ele>
        <time>2021-09-12T14:40:30Z</time>
      </trkpt>
      <trkpt lat="43.90242" lon="6.52142">
        <ele>1093.2</ele>
        <time>2021-09-12T14:40:31Z</time>
      </trkpt>
      <trkpt lat="43.90245" lon="6.52148">
        <ele>1092.7</ele>
        <time>2021-09-12T14:40:32Z</time>
      </trkpt>
      <trkpt lat="43.90246" lon="6.52165">
        <ele>1091.6</ele>
        <time>2021-09-12T14:40:33Z</time>
      </trkpt>
      <trkpt lat="43.90244" lon="6.52172">
        <ele>1091</ele>
        <time>2021-09-12T14:40:34Z</time>
      </trkpt>
      <trkpt lat="43.90241" lon="6.52179">
        <ele>1090.4</ele>
        <time>2021-09-12T14:40:35Z</time>
      </trkpt>
      <trkpt lat="43.90237" lon="6.52186">
        <ele>1089.5</ele>
        <time>2021-09-12T14:40:36Z</time>
      </trkpt>
      <trkpt lat="43.90232" lon="6.52192">
        <ele>1088.5</ele>
        <time>2021-09-12T14:40:37Z</time>
      </trkpt>
      <trkpt lat="43.90225" lon="6.52199">
        <ele>1087.1</ele>
        <time>2021-09-12T14:40:38Z</time>
      </trkpt>
      <trkpt lat="43.90222" lon="6.52203">
        <ele>1086.4</ele>
        <time>2021-09-12T14:40:39Z</time>
      </trkpt>
      <trkpt lat="43.90211" lon="6.5221">
        <ele>1084.2</ele>
        <time>2021-09-12T14:40:40Z</time>
      </trkpt>
      <trkpt lat="43.90207" lon="6.52212">
        <ele>1083.3</ele>
        <time>2021-09-12T14:40:41Z</time>
      </trkpt>
      <trkpt lat="43.90198" lon="6.5222">
        <ele>1081</ele>
        <time>2021-09-12T14:40:42Z</time>
      </trkpt>
      <trkpt lat="43.90191" lon="6.52226">
        <ele>1079.4</ele>
        <time>2021-09-12T14:40:43Z</time>
      </trkpt>
      <trkpt lat="43.9019" lon="6.52232">
        <ele>1078.5</ele>
        <time>2021-09-12T14:40:44Z</time>
      </trkpt>
      <trkpt lat="43.90189" lon="6.52247">
        <ele>1076.6</ele>
        <time>2021-09-12T14:40:45Z</time>
      </trkpt>
      <trkpt lat="43.90189" lon="6.52255">
        <ele>1075.7</ele>
        <time>2021-09-12T14:40:46Z</time>
      </trkpt>
      <trkpt lat="43.90188" lon="6.52263">
        <ele>1074.8</ele>
        <time>2021-09-12T14:40:47Z</time>
      </trkpt>
      <trkpt lat="43.90187" lon="6.52279">
        <ele>1073.4</ele>
        <time>2021-09-12T14:40:48Z</time>
      </trkpt>
      <trkpt lat="43.90185" lon="6.52287">
        <ele>1072.7</ele>
        <time>2021-09-12T14:40:49Z</time>
      </trkpt>
      <trkpt lat="43.90178" lon="6.52302">
        <ele>1071.1</ele>
        <time>2021-09-12T14:40:51Z</time>
      </trkpt>
      <trkpt lat="43.90169" lon="6.52318">
        <ele>1069.2</ele>
        <time>2021-09-12T14:40:53Z</time>
      </trkpt>
      <trkpt lat="43.90164" lon="6.52327">
        <ele>1068.1</ele>
        <time>2021-09-12T14:40:54Z</time>
      </trkpt>
      <trkpt lat="43.90158" lon="6.52336">
        <ele>1066.9</ele>
        <time>2021-09-12T14:40:55Z</time>
      </trkpt>
      <trkpt lat="43.90152" lon="6.52345">
        <ele>1066</ele>
        <time>2021-09-12T14:40:56Z</time>
      </trkpt>
      <trkpt lat="43.90146" lon="6.52353">
        <ele>1065.2</ele>
        <time>2021-09-12T14:40:57Z</time>
      </trkpt>
      <trkpt lat="43.90136" lon="6.52364">
        <ele>1064.1</ele>
        <time>2021-09-12T14:40:59Z</time>
      </trkpt>
      <trkpt lat="43.9013" lon="6.52367">
        <ele>1063.5</ele>
        <time>2021-09-12T14:41:00Z</time>
      </trkpt>
      <trkpt lat="43.90125" lon="6.52368">
        <ele>1062.8</ele>
        <time>2021-09-12T14:41:01Z</time>
      </trkpt>
      <trkpt lat="43.90115" lon="6.52364">
        <ele>1061.1</ele>
        <time>2021-09-12T14:41:02Z</time>
      </trkpt>
      <trkpt lat="43.9011" lon="6.52359">
        <ele>1060.9</ele>
        <time>2021-09-12T14:41:03Z</time>
      </trkpt>
      <trkpt lat="43.90105" lon="6.52339">
        <ele>1058.5</ele>
        <time>2021-09-12T14:41:05Z</time>
      </trkpt>
      <trkpt lat="43.90103" lon="6.52328">
        <ele>1057.3</ele>
        <time>2021-09-12T14:41:06Z</time>
      </trkpt>
      <trkpt lat="43.90095" lon="6.5231">
        <ele>1055.4</ele>
        <time>2021-09-12T14:41:08Z</time>
      </trkpt>
      <trkpt lat="43.90091" lon="6.52301">
        <ele>1054.6</ele>
        <time>2021-09-12T14:41:09Z</time>
      </trkpt>
      <trkpt lat="43.90084" lon="6.52287">
        <ele>1053.1</ele>
        <time>2021-09-12T14:41:11Z</time>
      </trkpt>
      <trkpt lat="43.9008" lon="6.52283">
        <ele>1052.5</ele>
        <time>2021-09-12T14:41:12Z</time>
      </trkpt>
      <trkpt lat="43.90073" lon="6.52277">
        <ele>1051.6</ele>
        <time>2021-09-12T14:41:13Z</time>
      </trkpt>
      <trkpt lat="43.90064" lon="6.52277">
        <ele>1050.6</ele>
        <time>2021-09-12T14:41:14Z</time>
      </trkpt>
      <trkpt lat="43.90053" lon="6.52283">
        <ele>1049.3</ele>
        <time>2021-09-12T14:41:16Z</time>
      </trkpt>
      <trkpt lat="43.90047" lon="6.52286">
        <ele>1048.6</ele>
        <time>2021-09-12T14:41:17Z</time>
      </trkpt>
      <trkpt lat="43.90035" lon="6.52291">
        <ele>1047.5</ele>
        <time>2021-09-12T14:41:18Z</time>
      </trkpt>
      <trkpt lat="43.9003" lon="6.52292">
        <ele>1047.2</ele>
        <time>2021-09-12T14:41:19Z</time>
      </trkpt>
      <trkpt lat="43.90022" lon="6.52289">
        <ele>1046.5</ele>
        <time>2021-09-12T14:41:20Z</time>
      </trkpt>
      <trkpt lat="43.90013" lon="6.52288">
        <ele>1045.9</ele>
        <time>2021-09-12T14:41:21Z</time>
      </trkpt>
      <trkpt lat="43.90009" lon="6.52285">
        <ele>1045.6</ele>
        <time>2021-09-12T14:41:22Z</time>
      </trkpt>
      <trkpt lat="43.90005" lon="6.52278">
        <ele>1046.3</ele>
        <time>2021-09-12T14:41:23Z</time>
      </trkpt>
      <trkpt lat="43.90006" lon="6.52271">
        <ele>1046.5</ele>
        <time>2021-09-12T14:41:24Z</time>
      </trkpt>
      <trkpt lat="43.90005" lon="6.52266">
        <ele>1046.8</ele>
        <time>2021-09-12T14:41:25Z</time>
      </trkpt>
      <trkpt lat="43.90004" lon="6.52258">
        <ele>1047.1</ele>
        <time>2021-09-12T14:41:26Z</time>
      </trkpt>
      <trkpt lat="43.90004" lon="6.52254">
        <ele>1047.3</ele>
        <time>2021-09-12T14:41:27Z</time>
      </trkpt>
      <trkpt lat="43.90004" lon="6.52251">
        <ele>1047.5</ele>
        <time>2021-09-12T14:41:28Z</time>
      </trkpt>
      <trkpt lat="43.90003" lon="6.52244">
        <ele>1047.9</ele>
        <time>2021-09-12T14:41:31Z</time>
      </trkpt>
      <trkpt lat="43.90002" lon="6.5224">
        <ele>1048.1</ele>
        <time>2021-09-12T14:41:32Z</time>
      </trkpt>
      <trkpt lat="43.90001" lon="6.52236">
        <ele>1048.3</ele>
        <time>2021-09-12T14:41:33Z</time>
      </trkpt>
      <trkpt lat="43.89999" lon="6.52227">
        <ele>1048.7</ele>
        <time>2021-09-12T14:41:36Z</time>
      </trkpt>
      <trkpt lat="43.89999" lon="6.52223">
        <ele>1048.9</ele>
        <time>2021-09-12T14:41:38Z</time>
      </trkpt>
      <trkpt lat="43.89999" lon="6.52215">
        <ele>1049.2</ele>
        <time>2021-09-12T14:41:40Z</time>
      </trkpt>
      <trkpt lat="43.89999" lon="6.52211">
        <ele>1049.4</ele>
        <time>2021-09-12T14:41:42Z</time>
      </trkpt>
      <trkpt lat="43.89998" lon="6.52208">
        <ele>1049.6</ele>
        <time>2021-09-12T14:41:43Z</time>
      </trkpt>
      <trkpt lat="43.89998" lon="6.522">
        <ele>1049.9</ele>
        <time>2021-09-12T14:41:46Z</time>
      </trkpt>
      <trkpt lat="43.89996" lon="6.52193">
        <ele>1050.1</ele>
        <time>2021-09-12T14:41:49Z</time>
      </trkpt>
      <trkpt lat="43.89994" lon="6.52188">
        <ele>1050.4</ele>
        <time>2021-09-12T14:41:51Z</time>
      </trkpt>
      <trkpt lat="43.8999" lon="6.52182">
        <ele>1050.6</ele>
        <time>2021-09-12T14:41:54Z</time>
      </trkpt>
      <trkpt lat="43.89989" lon="6.52175">
        <ele>1050.8</ele>
        <time>2021-09-12T14:41:57Z</time>
      </trkpt>
      <trkpt lat="43.89989" lon="6.52171">
        <ele>1050.9</ele>
        <time>2021-09-12T14:41:58Z</time>
      </trkpt>
      <trkpt lat="43.89989" lon="6.52167">
        <ele>1051.1</ele>
        <time>2021-09-12T14:41:59Z</time>
      </trkpt>
      <trkpt lat="43.89989" lon="6.52165">
        <ele>1051.1</ele>
        <time>2021-09-12T14:42:00Z</time>
      </trkpt>
      <trkpt lat="43.89988" lon="6.52161">
        <ele>1051.2</ele>
        <time>2021-09-12T14:42:01Z</time>
      </trkpt>
      <trkpt lat="43.89987" lon="6.52159">
        <ele>1051.3</ele>
        <time>2021-09-12T14:42:02Z</time>
      </trkpt>
      <trkpt lat="43.89987" lon="6.52156">
        <ele>1051.4</ele>
        <time>2021-09-12T14:42:03Z</time>
      </trkpt>
      <trkpt lat="43.89987" lon="6.52153">
        <ele>1051.4</ele>
        <time>2021-09-12T14:42:04Z</time>
      </trkpt>
      <trkpt lat="43.89988" lon="6.52148">
        <ele>1051.5</ele>
        <time>2021-09-12T14:42:05Z</time>
      </trkpt>
      <trkpt lat="43.89988" lon="6.52141">
        <ele>1051.7</ele>
        <time>2021-09-12T14:42:07Z</time>
      </trkpt>
      <trkpt lat="43.89986" lon="6.52137">
        <ele>1051.8</ele>
        <time>2021-09-12T14:42:08Z</time>
      </trkpt>
      <trkpt lat="43.89985" lon="6.52135">
        <ele>1051.8</ele>
        <time>2021-09-12T14:42:09Z</time>
      </trkpt>
      <trkpt lat="43.89984" lon="6.52132">
        <ele>1051.9</ele>
        <time>2021-09-12T14:42:10Z</time>
      </trkpt>
      <trkpt lat="43.89984" lon="6.52127">
        <ele>1052</ele>
        <time>2021-09-12T14:42:11Z</time>
      </trkpt>
      <trkpt lat="43.89984" lon="6.52124">
        <ele>1052</ele>
        <time>2021-09-12T14:42:12Z</time>
      </trkpt>
      <trkpt lat="43.89982" lon="6.52117">
        <ele>1052.1</ele>
        <time>2021-09-12T14:42:14Z</time>
      </trkpt>
      <trkpt lat="43.8998" lon="6.52111">
        <ele>1052.2</ele>
        <time>2021-09-12T14:42:15Z</time>
      </trkpt>
      <trkpt lat="43.89978" lon="6.52108">
        <ele>1052.2</ele>
        <time>2021-09-12T14:42:16Z</time>
      </trkpt>
      <trkpt lat="43.89974" lon="6.52106">
        <ele>1052.3</ele>
        <time>2021-09-12T14:42:18Z</time>
      </trkpt>
      <trkpt lat="43.8997" lon="6.52104">
        <ele>1052.4</ele>
        <time>2021-09-12T14:42:19Z</time>
      </trkpt>
      <trkpt lat="43.8996" lon="6.521">
        <ele>1052.7</ele>
        <time>2021-09-12T14:42:23Z</time>
      </trkpt>
      <trkpt lat="43.89954" lon="6.52096">
        <ele>1053</ele>
        <time>2021-09-12T14:42:25Z</time>
      </trkpt>
      <trkpt lat="43.89949" lon="6.52095">
        <ele>1053.3</ele>
        <time>2021-09-12T14:42:27Z</time>
      </trkpt>
      <trkpt lat="43.89943" lon="6.52093">
        <ele>1053.7</ele>
        <time>2021-09-12T14:42:29Z</time>
      </trkpt>
      <trkpt lat="43.89938" lon="6.5209">
        <ele>1054.1</ele>
        <time>2021-09-12T14:42:31Z</time>
      </trkpt>
      <trkpt lat="43.89935" lon="6.52089">
        <ele>1054.3</ele>
        <time>2021-09-12T14:42:32Z</time>
      </trkpt>
      <trkpt lat="43.89932" lon="6.52088">
        <ele>1054.5</ele>
        <time>2021-09-12T14:42:33Z</time>
      </trkpt>
      <trkpt lat="43.89928" lon="6.52086">
        <ele>1054.9</ele>
        <time>2021-09-12T14:42:34Z</time>
      </trkpt>
      <trkpt lat="43.89926" lon="6.52084">
        <ele>1055.1</ele>
        <time>2021-09-12T14:42:35Z</time>
      </trkpt>
      <trkpt lat="43.89924" lon="6.52081">
        <ele>1055.4</ele>
        <time>2021-09-12T14:42:36Z</time>
      </trkpt>
      <trkpt lat="43.8992" lon="6.5208">
        <ele>1055.9</ele>
        <time>2021-09-12T14:42:38Z</time>
      </trkpt>
      <trkpt lat="43.89918" lon="6.5208">
        <ele>1056.1</ele>
        <time>2021-09-12T14:42:40Z</time>
      </trkpt>
      <trkpt lat="43.89916" lon="6.52077">
        <ele>1056.4</ele>
        <time>2021-09-12T14:42:41Z</time>
      </trkpt>
      <trkpt lat="43.89915" lon="6.52076">
        <ele>1056.5</ele>
        <time>2021-09-12T14:42:42Z</time>
      </trkpt>
      <trkpt lat="43.89913" lon="6.52075">
        <ele>1056.7</ele>
        <time>2021-09-12T14:42:44Z</time>
      </trkpt>
      <trkpt lat="43.89912" lon="6.52074">
        <ele>1056.8</ele>
        <time>2021-09-12T14:42:45Z</time>
      </trkpt>
      <trkpt lat="43.8991" lon="6.52073">
        <ele>1057.1</ele>
        <time>2021-09-12T14:42:47Z</time>
      </trkpt>
      <trkpt lat="43.89909" lon="6.52072">
        <ele>1057.2</ele>
        <time>2021-09-12T14:42:48Z</time>
      </trkpt>
      <trkpt lat="43.89906" lon="6.52071">
        <ele>1057.6</ele>
        <time>2021-09-12T14:42:52Z</time>
      </trkpt>
      <trkpt lat="43.89905" lon="6.5207">
        <ele>1057.7</ele>
        <time>2021-09-12T14:42:53Z</time>
      </trkpt>
      <trkpt lat="43.89904" lon="6.5207">
        <ele>1057.8</ele>
        <time>2021-09-12T14:42:55Z</time>
      </trkpt>
      <trkpt lat="43.89903" lon="6.52069">
        <ele>1057.9</ele>
        <time>2021-09-12T14:42:56Z</time>
      </trkpt>
      <trkpt lat="43.89903" lon="6.52068">
        <ele>1057.9</ele>
        <time>2021-09-12T14:42:57Z</time>
      </trkpt>
      <trkpt lat="43.89902" lon="6.52067">
        <ele>1058.1</ele>
        <time>2021-09-12T14:42:58Z</time>
      </trkpt>
      <trkpt lat="43.89898" lon="6.52063">
        <ele>1058.5</ele>
        <time>2021-09-12T14:43:03Z</time>
      </trkpt>
      <trkpt lat="43.89895" lon="6.52061">
        <ele>1058.7</ele>
        <time>2021-09-12T14:43:05Z</time>
      </trkpt>
      <trkpt lat="43.89892" lon="6.52057">
        <ele>1059</ele>
        <time>2021-09-12T14:43:10Z</time>
      </trkpt>
      <trkpt lat="43.8989" lon="6.52056">
        <ele>1059.1</ele>
        <time>2021-09-12T14:43:11Z</time>
      </trkpt>
      <trkpt lat="43.89889" lon="6.52055">
        <ele>1059.2</ele>
        <time>2021-09-12T14:43:12Z</time>
      </trkpt>
      <trkpt lat="43.89887" lon="6.5205">
        <ele>1059.4</ele>
        <time>2021-09-12T14:43:15Z</time>
      </trkpt>
      <trkpt lat="43.89886" lon="6.52047">
        <ele>1059.6</ele>
        <time>2021-09-12T14:43:17Z</time>
      </trkpt>
      <trkpt lat="43.89885" lon="6.52044">
        <ele>1059.6</ele>
        <time>2021-09-12T14:43:18Z</time>
      </trkpt>
      <trkpt lat="43.89884" lon="6.52038">
        <ele>1059.8</ele>
        <time>2021-09-12T14:43:21Z</time>
      </trkpt>
      <trkpt lat="43.89884" lon="6.52033">
        <ele>1059.9</ele>
        <time>2021-09-12T14:43:23Z</time>
      </trkpt>
      <trkpt lat="43.89885" lon="6.52027">
        <ele>1060</ele>
        <time>2021-09-12T14:43:26Z</time>
      </trkpt>
      <trkpt lat="43.89884" lon="6.52023">
        <ele>1060.1</ele>
        <time>2021-09-12T14:43:27Z</time>
      </trkpt>
      <trkpt lat="43.89884" lon="6.52019">
        <ele>1060.1</ele>
        <time>2021-09-12T14:43:29Z</time>
      </trkpt>
      <trkpt lat="43.89887" lon="6.52012">
        <ele>1060.2</ele>
        <time>2021-09-12T14:43:31Z</time>
      </trkpt>
      <trkpt lat="43.89889" lon="6.52007">
        <ele>1060.2</ele>
        <time>2021-09-12T14:43:33Z</time>
      </trkpt>
      <trkpt lat="43.89891" lon="6.52002">
        <ele>1060.3</ele>
        <time>2021-09-12T14:43:34Z</time>
      </trkpt>
      <trkpt lat="43.89894" lon="6.51994">
        <ele>1060.3</ele>
        <time>2021-09-12T14:43:36Z</time>
      </trkpt>
      <trkpt lat="43.89897" lon="6.51985">
        <ele>1060.4</ele>
        <time>2021-09-12T14:43:39Z</time>
      </trkpt>
      <trkpt lat="43.89898" lon="6.51978">
        <ele>1060.4</ele>
        <time>2021-09-12T14:43:40Z</time>
      </trkpt>
      <trkpt lat="43.89898" lon="6.51971">
        <ele>1060.5</ele>
        <time>2021-09-12T14:43:42Z</time>
      </trkpt>
      <trkpt lat="43.89899" lon="6.51963">
        <ele>1060.6</ele>
        <time>2021-09-12T14:43:44Z</time>
      </trkpt>
      <trkpt lat="43.899" lon="6.51958">
        <ele>1060.7</ele>
        <time>2021-09-12T14:43:45Z</time>
      </trkpt>
      <trkpt lat="43.89902" lon="6.51949">
        <ele>1060.8</ele>
        <time>2021-09-12T14:43:47Z</time>
      </trkpt>
      <trkpt lat="43.89904" lon="6.5194">
        <ele>1061</ele>
        <time>2021-09-12T14:43:49Z</time>
      </trkpt>
      <trkpt lat="43.89904" lon="6.51932">
        <ele>1061.1</ele>
        <time>2021-09-12T14:43:50Z</time>
      </trkpt>
      <trkpt lat="43.89905" lon="6.51926">
        <ele>1061.2</ele>
        <time>2021-09-12T14:43:52Z</time>
      </trkpt>
      <trkpt lat="43.89905" lon="6.51922">
        <ele>1061.3</ele>
        <time>2021-09-12T14:43:53Z</time>
      </trkpt>
      <trkpt lat="43.89906" lon="6.51917">
        <ele>1061.4</ele>
        <time>2021-09-12T14:43:54Z</time>
      </trkpt>
      <trkpt lat="43.89907" lon="6.51913">
        <ele>1061.4</ele>
        <time>2021-09-12T14:43:55Z</time>
      </trkpt>
      <trkpt lat="43.89909" lon="6.51909">
        <ele>1061.5</ele>
        <time>2021-09-12T14:43:56Z</time>
      </trkpt>
      <trkpt lat="43.89911" lon="6.51901">
        <ele>1061.6</ele>
        <time>2021-09-12T14:43:58Z</time>
      </trkpt>
      <trkpt lat="43.89912" lon="6.51898">
        <ele>1061.7</ele>
        <time>2021-09-12T14:43:59Z</time>
      </trkpt>
      <trkpt lat="43.89913" lon="6.5189">
        <ele>1061.7</ele>
        <time>2021-09-12T14:44:00Z</time>
      </trkpt>
      <trkpt lat="43.89913" lon="6.51882">
        <ele>1061.7</ele>
        <time>2021-09-12T14:44:02Z</time>
      </trkpt>
      <trkpt lat="43.89913" lon="6.51877">
        <ele>1061.7</ele>
        <time>2021-09-12T14:44:03Z</time>
      </trkpt>
      <trkpt lat="43.89912" lon="6.51873">
        <ele>1061.7</ele>
        <time>2021-09-12T14:44:04Z</time>
      </trkpt>
      <trkpt lat="43.89912" lon="6.51869">
        <ele>1061.7</ele>
        <time>2021-09-12T14:44:05Z</time>
      </trkpt>
      <trkpt lat="43.89913" lon="6.51861">
        <ele>1061.7</ele>
        <time>2021-09-12T14:44:07Z</time>
      </trkpt>
      <trkpt lat="43.89912" lon="6.51855">
        <ele>1061.7</ele>
        <time>2021-09-12T14:44:08Z</time>
      </trkpt>
      <trkpt lat="43.8991" lon="6.51844">
        <ele>1061.7</ele>
        <time>2021-09-12T14:44:11Z</time>
      </trkpt>
      <trkpt lat="43.89908" lon="6.51835">
        <ele>1061.7</ele>
        <time>2021-09-12T14:44:13Z</time>
      </trkpt>
      <trkpt lat="43.89907" lon="6.51826">
        <ele>1061.8</ele>
        <time>2021-09-12T14:44:15Z</time>
      </trkpt>
      <trkpt lat="43.89906" lon="6.51817">
        <ele>1061.8</ele>
        <time>2021-09-12T14:44:17Z</time>
      </trkpt>
      <trkpt lat="43.89908" lon="6.51809">
        <ele>1061.9</ele>
        <time>2021-09-12T14:44:19Z</time>
      </trkpt>
      <trkpt lat="43.89908" lon="6.51798">
        <ele>1062</ele>
        <time>2021-09-12T14:44:21Z</time>
      </trkpt>
      <trkpt lat="43.89909" lon="6.5179">
        <ele>1062</ele>
        <time>2021-09-12T14:44:23Z</time>
      </trkpt>
      <trkpt lat="43.8991" lon="6.51783">
        <ele>1062.1</ele>
        <time>2021-09-12T14:44:25Z</time>
      </trkpt>
      <trkpt lat="43.89912" lon="6.51774">
        <ele>1062.2</ele>
        <time>2021-09-12T14:44:27Z</time>
      </trkpt>
      <trkpt lat="43.89913" lon="6.51763">
        <ele>1062.3</ele>
        <time>2021-09-12T14:44:29Z</time>
      </trkpt>
      <trkpt lat="43.89912" lon="6.51754">
        <ele>1062.3</ele>
        <time>2021-09-12T14:44:31Z</time>
      </trkpt>
      <trkpt lat="43.89909" lon="6.51748">
        <ele>1062.4</ele>
        <time>2021-09-12T14:44:32Z</time>
      </trkpt>
      <trkpt lat="43.89908" lon="6.5174">
        <ele>1062.5</ele>
        <time>2021-09-12T14:44:34Z</time>
      </trkpt>
      <trkpt lat="43.89904" lon="6.51734">
        <ele>1062.6</ele>
        <time>2021-09-12T14:44:36Z</time>
      </trkpt>
      <trkpt lat="43.8989" lon="6.51728">
        <ele>1062.8</ele>
        <time>2021-09-12T14:44:40Z</time>
      </trkpt>
      <trkpt lat="43.89885" lon="6.51726">
        <ele>1062.8</ele>
        <time>2021-09-12T14:44:42Z</time>
      </trkpt>
      <trkpt lat="43.8988" lon="6.51724">
        <ele>1062.9</ele>
        <time>2021-09-12T14:44:43Z</time>
      </trkpt>
      <trkpt lat="43.89875" lon="6.51725">
        <ele>1062.8</ele>
        <time>2021-09-12T14:44:45Z</time>
      </trkpt>
      <trkpt lat="43.89868" lon="6.51725">
        <ele>1062.9</ele>
        <time>2021-09-12T14:44:47Z</time>
      </trkpt>
      <trkpt lat="43.89861" lon="6.51726">
        <ele>1063</ele>
        <time>2021-09-12T14:44:49Z</time>
      </trkpt>
      <trkpt lat="43.89857" lon="6.5173">
        <ele>1063.1</ele>
        <time>2021-09-12T14:44:50Z</time>
      </trkpt>
      <trkpt lat="43.89854" lon="6.51733">
        <ele>1063.2</ele>
        <time>2021-09-12T14:44:51Z</time>
      </trkpt>
      <trkpt lat="43.89852" lon="6.51738">
        <ele>1063.3</ele>
        <time>2021-09-12T14:44:52Z</time>
      </trkpt>
      <trkpt lat="43.89851" lon="6.51743">
        <ele>1063.5</ele>
        <time>2021-09-12T14:44:54Z</time>
      </trkpt>
      <trkpt lat="43.89847" lon="6.51751">
        <ele>1063.7</ele>
        <time>2021-09-12T14:44:56Z</time>
      </trkpt>
      <trkpt lat="43.89842" lon="6.51756">
        <ele>1063.9</ele>
        <time>2021-09-12T14:44:58Z</time>
      </trkpt>
      <trkpt lat="43.89838" lon="6.51759">
        <ele>1064.1</ele>
        <time>2021-09-12T14:44:59Z</time>
      </trkpt>
      <trkpt lat="43.89834" lon="6.5176">
        <ele>1064.3</ele>
        <time>2021-09-12T14:45:00Z</time>
      </trkpt>
      <trkpt lat="43.89829" lon="6.51761">
        <ele>1064.5</ele>
        <time>2021-09-12T14:45:02Z</time>
      </trkpt>
      <trkpt lat="43.89824" lon="6.51761">
        <ele>1064.7</ele>
        <time>2021-09-12T14:45:03Z</time>
      </trkpt>
      <trkpt lat="43.89821" lon="6.51762">
        <ele>1064.9</ele>
        <time>2021-09-12T14:45:04Z</time>
      </trkpt>
      <trkpt lat="43.8982" lon="6.51763">
        <ele>1065</ele>
        <time>2021-09-12T14:45:05Z</time>
      </trkpt>
      <trkpt lat="43.89816" lon="6.51765">
        <ele>1065.2</ele>
        <time>2021-09-12T14:45:07Z</time>
      </trkpt>
      <trkpt lat="43.89813" lon="6.51766">
        <ele>1065.4</ele>
        <time>2021-09-12T14:45:08Z</time>
      </trkpt>
      <trkpt lat="43.8981" lon="6.51768">
        <ele>1065.6</ele>
        <time>2021-09-12T14:45:09Z</time>
      </trkpt>
      <trkpt lat="43.89806" lon="6.51769">
        <ele>1065.9</ele>
        <time>2021-09-12T14:45:11Z</time>
      </trkpt>
      <trkpt lat="43.89803" lon="6.5177">
        <ele>1066.1</ele>
        <time>2021-09-12T14:45:12Z</time>
      </trkpt>
      <trkpt lat="43.89799" lon="6.51772">
        <ele>1066.3</ele>
        <time>2021-09-12T14:45:14Z</time>
      </trkpt>
      <trkpt lat="43.89796" lon="6.51775">
        <ele>1066.6</ele>
        <time>2021-09-12T14:45:16Z</time>
      </trkpt>
      <trkpt lat="43.89795" lon="6.51778">
        <ele>1066.8</ele>
        <time>2021-09-12T14:45:17Z</time>
      </trkpt>
      <trkpt lat="43.89792" lon="6.51781">
        <ele>1067</ele>
        <time>2021-09-12T14:45:19Z</time>
      </trkpt>
      <trkpt lat="43.89788" lon="6.51783">
        <ele>1067.2</ele>
        <time>2021-09-12T14:45:21Z</time>
      </trkpt>
      <trkpt lat="43.89784" lon="6.51785">
        <ele>1067.5</ele>
        <time>2021-09-12T14:45:23Z</time>
      </trkpt>
      <trkpt lat="43.89783" lon="6.51787">
        <ele>1067.7</ele>
        <time>2021-09-12T14:45:25Z</time>
      </trkpt>
      <trkpt lat="43.89779" lon="6.5179">
        <ele>1067.9</ele>
        <time>2021-09-12T14:45:27Z</time>
      </trkpt>
      <trkpt lat="43.89776" lon="6.51792">
        <ele>1068.1</ele>
        <time>2021-09-12T14:45:28Z</time>
      </trkpt>
      <trkpt lat="43.89773" lon="6.51793">
        <ele>1068.3</ele>
        <time>2021-09-12T14:45:30Z</time>
      </trkpt>
      <trkpt lat="43.89771" lon="6.51794">
        <ele>1068.5</ele>
        <time>2021-09-12T14:45:31Z</time>
      </trkpt>
      <trkpt lat="43.89769" lon="6.51796">
        <ele>1068.7</ele>
        <time>2021-09-12T14:45:33Z</time>
      </trkpt>
      <trkpt lat="43.89765" lon="6.51798">
        <ele>1069</ele>
        <time>2021-09-12T14:45:35Z</time>
      </trkpt>
      <trkpt lat="43.89763" lon="6.51802">
        <ele>1069.2</ele>
        <time>2021-09-12T14:45:37Z</time>
      </trkpt>
      <trkpt lat="43.89759" lon="6.51806">
        <ele>1069.5</ele>
        <time>2021-09-12T14:45:39Z</time>
      </trkpt>
      <trkpt lat="43.89758" lon="6.51806">
        <ele>1069.6</ele>
        <time>2021-09-12T14:45:40Z</time>
      </trkpt>
      <trkpt lat="43.89756" lon="6.51808">
        <ele>1069.8</ele>
        <time>2021-09-12T14:45:41Z</time>
      </trkpt>
      <trkpt lat="43.89754" lon="6.51809">
        <ele>1069.9</ele>
        <time>2021-09-12T14:45:42Z</time>
      </trkpt>
      <trkpt lat="43.89752" lon="6.51809">
        <ele>1070.1</ele>
        <time>2021-09-12T14:45:43Z</time>
      </trkpt>
      <trkpt lat="43.89749" lon="6.51809">
        <ele>1070.4</ele>
        <time>2021-09-12T14:45:45Z</time>
      </trkpt>
      <trkpt lat="43.89743" lon="6.51808">
        <ele>1070.7</ele>
        <time>2021-09-12T14:45:48Z</time>
      </trkpt>
      <trkpt lat="43.89739" lon="6.51809">
        <ele>1071</ele>
        <time>2021-09-12T14:45:51Z</time>
      </trkpt>
      <trkpt lat="43.89738" lon="6.5181">
        <ele>1071.1</ele>
        <time>2021-09-12T14:45:52Z</time>
      </trkpt>
      <trkpt lat="43.89736" lon="6.5181">
        <ele>1071.2</ele>
        <time>2021-09-12T14:45:53Z</time>
      </trkpt>
      <trkpt lat="43.89733" lon="6.51811">
        <ele>1071.4</ele>
        <time>2021-09-12T14:45:55Z</time>
      </trkpt>
      <trkpt lat="43.89731" lon="6.51811">
        <ele>1071.5</ele>
        <time>2021-09-12T14:45:56Z</time>
      </trkpt>
      <trkpt lat="43.89727" lon="6.51814">
        <ele>1071.8</ele>
        <time>2021-09-12T14:45:58Z</time>
      </trkpt>
      <trkpt lat="43.89726" lon="6.51815">
        <ele>1071.9</ele>
        <time>2021-09-12T14:45:59Z</time>
      </trkpt>
      <trkpt lat="43.89724" lon="6.51816">
        <ele>1072</ele>
        <time>2021-09-12T14:46:00Z</time>
      </trkpt>
      <trkpt lat="43.89723" lon="6.51816">
        <ele>1072.2</ele>
        <time>2021-09-12T14:46:01Z</time>
      </trkpt>
      <trkpt lat="43.89718" lon="6.51816">
        <ele>1072.4</ele>
        <time>2021-09-12T14:46:03Z</time>
      </trkpt>
      <trkpt lat="43.89715" lon="6.51816">
        <ele>1072.6</ele>
        <time>2021-09-12T14:46:05Z</time>
      </trkpt>
      <trkpt lat="43.89711" lon="6.51816">
        <ele>1072.8</ele>
        <time>2021-09-12T14:46:07Z</time>
      </trkpt>
      <trkpt lat="43.89708" lon="6.51816">
        <ele>1072.9</ele>
        <time>2021-09-12T14:46:09Z</time>
      </trkpt>
      <trkpt lat="43.89706" lon="6.51816">
        <ele>1073</ele>
        <time>2021-09-12T14:46:10Z</time>
      </trkpt>
      <trkpt lat="43.89705" lon="6.51816">
        <ele>1073.1</ele>
        <time>2021-09-12T14:46:11Z</time>
      </trkpt>
      <trkpt lat="43.89702" lon="6.51815">
        <ele>1073.3</ele>
        <time>2021-09-12T14:46:12Z</time>
      </trkpt>
      <trkpt lat="43.897" lon="6.51815">
        <ele>1073.4</ele>
        <time>2021-09-12T14:46:13Z</time>
      </trkpt>
      <trkpt lat="43.89698" lon="6.51814">
        <ele>1073.5</ele>
        <time>2021-09-12T14:46:14Z</time>
      </trkpt>
      <trkpt lat="43.89693" lon="6.51813">
        <ele>1073.8</ele>
        <time>2021-09-12T14:46:17Z</time>
      </trkpt>
      <trkpt lat="43.89688" lon="6.5181">
        <ele>1074</ele>
        <time>2021-09-12T14:46:19Z</time>
      </trkpt>
      <trkpt lat="43.89685" lon="6.51809">
        <ele>1074.2</ele>
        <time>2021-09-12T14:46:21Z</time>
      </trkpt>
      <trkpt lat="43.89683" lon="6.51807">
        <ele>1074.3</ele>
        <time>2021-09-12T14:46:22Z</time>
      </trkpt>
      <trkpt lat="43.89682" lon="6.51806">
        <ele>1074.4</ele>
        <time>2021-09-12T14:46:23Z</time>
      </trkpt>
      <trkpt lat="43.89677" lon="6.51802">
        <ele>1074.7</ele>
        <time>2021-09-12T14:46:25Z</time>
      </trkpt>
      <trkpt lat="43.89676" lon="6.518">
        <ele>1074.8</ele>
        <time>2021-09-12T14:46:26Z</time>
      </trkpt>
      <trkpt lat="43.89674" lon="6.51796">
        <ele>1075</ele>
        <time>2021-09-12T14:46:28Z</time>
      </trkpt>
      <trkpt lat="43.89672" lon="6.5179">
        <ele>1075.3</ele>
        <time>2021-09-12T14:46:30Z</time>
      </trkpt>
      <trkpt lat="43.89672" lon="6.51786">
        <ele>1075.4</ele>
        <time>2021-09-12T14:46:31Z</time>
      </trkpt>
      <trkpt lat="43.89672" lon="6.51784">
        <ele>1075.5</ele>
        <time>2021-09-12T14:46:32Z</time>
      </trkpt>
      <trkpt lat="43.8967" lon="6.51781">
        <ele>1075.7</ele>
        <time>2021-09-12T14:46:33Z</time>
      </trkpt>
      <trkpt lat="43.89669" lon="6.51778">
        <ele>1075.8</ele>
        <time>2021-09-12T14:46:35Z</time>
      </trkpt>
      <trkpt lat="43.89666" lon="6.51774">
        <ele>1076</ele>
        <time>2021-09-12T14:46:36Z</time>
      </trkpt>
      <trkpt lat="43.89666" lon="6.51773">
        <ele>1076.1</ele>
        <time>2021-09-12T14:46:37Z</time>
      </trkpt>
      <trkpt lat="43.89663" lon="6.51768">
        <ele>1076.3</ele>
        <time>2021-09-12T14:46:39Z</time>
      </trkpt>
      <trkpt lat="43.89661" lon="6.51764">
        <ele>1076.5</ele>
        <time>2021-09-12T14:46:40Z</time>
      </trkpt>
      <trkpt lat="43.89661" lon="6.51761">
        <ele>1076.6</ele>
        <time>2021-09-12T14:46:41Z</time>
      </trkpt>
      <trkpt lat="43.89659" lon="6.51757">
        <ele>1076.8</ele>
        <time>2021-09-12T14:46:43Z</time>
      </trkpt>
      <trkpt lat="43.89657" lon="6.51753">
        <ele>1077</ele>
        <time>2021-09-12T14:46:45Z</time>
      </trkpt>
      <trkpt lat="43.89654" lon="6.5175">
        <ele>1077.3</ele>
        <time>2021-09-12T14:46:46Z</time>
      </trkpt>
      <trkpt lat="43.89653" lon="6.5175">
        <ele>1077.3</ele>
        <time>2021-09-12T14:46:47Z</time>
      </trkpt>
      <trkpt lat="43.89651" lon="6.51747">
        <ele>1077.5</ele>
        <time>2021-09-12T14:46:48Z</time>
      </trkpt>
      <trkpt lat="43.89649" lon="6.51744">
        <ele>1077.7</ele>
        <time>2021-09-12T14:46:50Z</time>
      </trkpt>
      <trkpt lat="43.89647" lon="6.5174">
        <ele>1077.9</ele>
        <time>2021-09-12T14:46:51Z</time>
      </trkpt>
      <trkpt lat="43.89646" lon="6.51737">
        <ele>1078.1</ele>
        <time>2021-09-12T14:46:53Z</time>
      </trkpt>
      <trkpt lat="43.89643" lon="6.51732">
        <ele>1078.4</ele>
        <time>2021-09-12T14:46:55Z</time>
      </trkpt>
      <trkpt lat="43.89642" lon="6.51727">
        <ele>1078.7</ele>
        <time>2021-09-12T14:46:57Z</time>
      </trkpt>
      <trkpt lat="43.8964" lon="6.51723">
        <ele>1079</ele>
        <time>2021-09-12T14:46:58Z</time>
      </trkpt>
      <trkpt lat="43.8964" lon="6.51721">
        <ele>1079.1</ele>
        <time>2021-09-12T14:46:59Z</time>
      </trkpt>
      <trkpt lat="43.8964" lon="6.51719">
        <ele>1079.2</ele>
        <time>2021-09-12T14:47:00Z</time>
      </trkpt>
      <trkpt lat="43.89638" lon="6.51716">
        <ele>1079.5</ele>
        <time>2021-09-12T14:47:02Z</time>
      </trkpt>
      <trkpt lat="43.89636" lon="6.51714">
        <ele>1079.7</ele>
        <time>2021-09-12T14:47:03Z</time>
      </trkpt>
      <trkpt lat="43.89634" lon="6.51712">
        <ele>1079.9</ele>
        <time>2021-09-12T14:47:05Z</time>
      </trkpt>
      <trkpt lat="43.8963" lon="6.51708">
        <ele>1080.3</ele>
        <time>2021-09-12T14:47:08Z</time>
      </trkpt>
      <trkpt lat="43.89629" lon="6.51706">
        <ele>1080.6</ele>
        <time>2021-09-12T14:47:09Z</time>
      </trkpt>
      <trkpt lat="43.89626" lon="6.51703">
        <ele>1080.9</ele>
        <time>2021-09-12T14:47:13Z</time>
      </trkpt>
      <trkpt lat="43.89624" lon="6.51701">
        <ele>1081.1</ele>
        <time>2021-09-12T14:47:14Z</time>
      </trkpt>
      <trkpt lat="43.89624" lon="6.51701">
        <ele>1081.1</ele>
        <time>2021-09-12T14:47:15Z</time>
      </trkpt>
      <trkpt lat="43.89622" lon="6.51698">
        <ele>1081.3</ele>
        <time>2021-09-12T14:47:16Z</time>
      </trkpt>
      <trkpt lat="43.89619" lon="6.51695">
        <ele>1081.7</ele>
        <time>2021-09-12T14:47:19Z</time>
      </trkpt>
      <trkpt lat="43.89616" lon="6.51693">
        <ele>1082</ele>
        <time>2021-09-12T14:47:22Z</time>
      </trkpt>
      <trkpt lat="43.89614" lon="6.51692">
        <ele>1082.3</ele>
        <time>2021-09-12T14:47:24Z</time>
      </trkpt>
      <trkpt lat="43.8961" lon="6.5169">
        <ele>1082.7</ele>
        <time>2021-09-12T14:47:26Z</time>
      </trkpt>
      <trkpt lat="43.89608" lon="6.51689">
        <ele>1082.9</ele>
        <time>2021-09-12T14:47:28Z</time>
      </trkpt>
      <trkpt lat="43.89605" lon="6.51687">
        <ele>1083.2</ele>
        <time>2021-09-12T14:47:30Z</time>
      </trkpt>
      <trkpt lat="43.89602" lon="6.51686">
        <ele>1083.4</ele>
        <time>2021-09-12T14:47:32Z</time>
      </trkpt>
      <trkpt lat="43.896" lon="6.51684">
        <ele>1083.8</ele>
        <time>2021-09-12T14:47:35Z</time>
      </trkpt>
      <trkpt lat="43.89599" lon="6.51683">
        <ele>1083.9</ele>
        <time>2021-09-12T14:47:36Z</time>
      </trkpt>
      <trkpt lat="43.89596" lon="6.5168">
        <ele>1084.1</ele>
        <time>2021-09-12T14:47:38Z</time>
      </trkpt>
      <trkpt lat="43.89595" lon="6.51679">
        <ele>1084.3</ele>
        <time>2021-09-12T14:47:39Z</time>
      </trkpt>
      <trkpt lat="43.89593" lon="6.51677">
        <ele>1084.5</ele>
        <time>2021-09-12T14:47:42Z</time>
      </trkpt>
      <trkpt lat="43.89592" lon="6.51673">
        <ele>1084.8</ele>
        <time>2021-09-12T14:47:45Z</time>
      </trkpt>
      <trkpt lat="43.89591" lon="6.51669">
        <ele>1085.1</ele>
        <time>2021-09-12T14:47:48Z</time>
      </trkpt>
      <trkpt lat="43.89589" lon="6.51666">
        <ele>1085.4</ele>
        <time>2021-09-12T14:47:51Z</time>
      </trkpt>
      <trkpt lat="43.89586" lon="6.51662">
        <ele>1085.7</ele>
        <time>2021-09-12T14:47:54Z</time>
      </trkpt>
      <trkpt lat="43.89585" lon="6.51658">
        <ele>1085.9</ele>
        <time>2021-09-12T14:47:57Z</time>
      </trkpt>
      <trkpt lat="43.89582" lon="6.51654">
        <ele>1086.3</ele>
        <time>2021-09-12T14:48:01Z</time>
      </trkpt>
      <trkpt lat="43.8958" lon="6.5165">
        <ele>1086.6</ele>
        <time>2021-09-12T14:48:04Z</time>
      </trkpt>
      <trkpt lat="43.89577" lon="6.51647">
        <ele>1086.9</ele>
        <time>2021-09-12T14:48:07Z</time>
      </trkpt>
      <trkpt lat="43.89576" lon="6.51647">
        <ele>1086.9</ele>
        <time>2021-09-12T14:48:08Z</time>
      </trkpt>
      <trkpt lat="43.89573" lon="6.51643">
        <ele>1087.3</ele>
        <time>2021-09-12T14:48:11Z</time>
      </trkpt>
      <trkpt lat="43.8957" lon="6.5164">
        <ele>1087.5</ele>
        <time>2021-09-12T14:48:13Z</time>
      </trkpt>
      <trkpt lat="43.89567" lon="6.51636">
        <ele>1087.9</ele>
        <time>2021-09-12T14:48:16Z</time>
      </trkpt>
      <trkpt lat="43.89565" lon="6.51633">
        <ele>1088</ele>
        <time>2021-09-12T14:48:18Z</time>
      </trkpt>
      <trkpt lat="43.89562" lon="6.5163">
        <ele>1088.3</ele>
        <time>2021-09-12T14:48:20Z</time>
      </trkpt>
      <trkpt lat="43.8956" lon="6.51627">
        <ele>1088.5</ele>
        <time>2021-09-12T14:48:22Z</time>
      </trkpt>
      <trkpt lat="43.89557" lon="6.51623">
        <ele>1088.7</ele>
        <time>2021-09-12T14:48:24Z</time>
      </trkpt>
      <trkpt lat="43.89556" lon="6.51621">
        <ele>1088.9</ele>
        <time>2021-09-12T14:48:25Z</time>
      </trkpt>
      <trkpt lat="43.89553" lon="6.5162">
        <ele>1089</ele>
        <time>2021-09-12T14:48:27Z</time>
      </trkpt>
      <trkpt lat="43.8955" lon="6.51617">
        <ele>1089.2</ele>
        <time>2021-09-12T14:48:29Z</time>
      </trkpt>
      <trkpt lat="43.89549" lon="6.51616">
        <ele>1089.3</ele>
        <time>2021-09-12T14:48:30Z</time>
      </trkpt>
      <trkpt lat="43.89548" lon="6.51613">
        <ele>1089.4</ele>
        <time>2021-09-12T14:48:31Z</time>
      </trkpt>
      <trkpt lat="43.89548" lon="6.51611">
        <ele>1089.4</ele>
        <time>2021-09-12T14:48:32Z</time>
      </trkpt>
      <trkpt lat="43.89547" lon="6.51609">
        <ele>1089.5</ele>
        <time>2021-09-12T14:48:33Z</time>
      </trkpt>
      <trkpt lat="43.89545" lon="6.51606">
        <ele>1089.6</ele>
        <time>2021-09-12T14:48:34Z</time>
      </trkpt>
      <trkpt lat="43.89543" lon="6.51603">
        <ele>1089.7</ele>
        <time>2021-09-12T14:48:35Z</time>
      </trkpt>
      <trkpt lat="43.89543" lon="6.51602">
        <ele>1089.8</ele>
        <time>2021-09-12T14:48:36Z</time>
      </trkpt>
      <trkpt lat="43.8954" lon="6.51599">
        <ele>1089.9</ele>
        <time>2021-09-12T14:48:37Z</time>
      </trkpt>
      <trkpt lat="43.89538" lon="6.51594">
        <ele>1090</ele>
        <time>2021-09-12T14:48:39Z</time>
      </trkpt>
      <trkpt lat="43.89535" lon="6.51591">
        <ele>1090.1</ele>
        <time>2021-09-12T14:48:40Z</time>
      </trkpt>
      <trkpt lat="43.89534" lon="6.51586">
        <ele>1090.2</ele>
        <time>2021-09-12T14:48:42Z</time>
      </trkpt>
      <trkpt lat="43.89531" lon="6.51581">
        <ele>1090.3</ele>
        <time>2021-09-12T14:48:43Z</time>
      </trkpt>
      <trkpt lat="43.89529" lon="6.51578">
        <ele>1090.4</ele>
        <time>2021-09-12T14:48:45Z</time>
      </trkpt>
      <trkpt lat="43.89527" lon="6.51576">
        <ele>1090.5</ele>
        <time>2021-09-12T14:48:46Z</time>
      </trkpt>
      <trkpt lat="43.89525" lon="6.51574">
        <ele>1090.6</ele>
        <time>2021-09-12T14:48:47Z</time>
      </trkpt>
      <trkpt lat="43.89522" lon="6.51571">
        <ele>1090.7</ele>
        <time>2021-09-12T14:48:48Z</time>
      </trkpt>
      <trkpt lat="43.8952" lon="6.51568">
        <ele>1090.8</ele>
        <time>2021-09-12T14:48:49Z</time>
      </trkpt>
      <trkpt lat="43.89517" lon="6.51565">
        <ele>1090.9</ele>
        <time>2021-09-12T14:48:50Z</time>
      </trkpt>
      <trkpt lat="43.89514" lon="6.5156">
        <ele>1091.1</ele>
        <time>2021-09-12T14:48:52Z</time>
      </trkpt>
      <trkpt lat="43.89511" lon="6.51555">
        <ele>1091.3</ele>
        <time>2021-09-12T14:48:53Z</time>
      </trkpt>
      <trkpt lat="43.89509" lon="6.51551">
        <ele>1091.4</ele>
        <time>2021-09-12T14:48:55Z</time>
      </trkpt>
      <trkpt lat="43.89507" lon="6.51548">
        <ele>1091.6</ele>
        <time>2021-09-12T14:48:56Z</time>
      </trkpt>
      <trkpt lat="43.89506" lon="6.51546">
        <ele>1091.6</ele>
        <time>2021-09-12T14:48:57Z</time>
      </trkpt>
      <trkpt lat="43.89503" lon="6.51542">
        <ele>1091.8</ele>
        <time>2021-09-12T14:48:58Z</time>
      </trkpt>
      <trkpt lat="43.895" lon="6.51539">
        <ele>1091.9</ele>
        <time>2021-09-12T14:48:59Z</time>
      </trkpt>
      <trkpt lat="43.89497" lon="6.51536">
        <ele>1092.1</ele>
        <time>2021-09-12T14:49:01Z</time>
      </trkpt>
      <trkpt lat="43.89493" lon="6.51531">
        <ele>1092.3</ele>
        <time>2021-09-12T14:49:03Z</time>
      </trkpt>
      <trkpt lat="43.8949" lon="6.51525">
        <ele>1092.5</ele>
        <time>2021-09-12T14:49:04Z</time>
      </trkpt>
      <trkpt lat="43.89489" lon="6.51522">
        <ele>1092.6</ele>
        <time>2021-09-12T14:49:06Z</time>
      </trkpt>
      <trkpt lat="43.89487" lon="6.51517">
        <ele>1092.7</ele>
        <time>2021-09-12T14:49:07Z</time>
      </trkpt>
      <trkpt lat="43.89486" lon="6.51514">
        <ele>1092.8</ele>
        <time>2021-09-12T14:49:08Z</time>
      </trkpt>
      <trkpt lat="43.89486" lon="6.51508">
        <ele>1093</ele>
        <time>2021-09-12T14:49:09Z</time>
      </trkpt>
      <trkpt lat="43.89487" lon="6.51503">
        <ele>1093.2</ele>
        <time>2021-09-12T14:49:11Z</time>
      </trkpt>
      <trkpt lat="43.89488" lon="6.51501">
        <ele>1093.2</ele>
        <time>2021-09-12T14:49:12Z</time>
      </trkpt>
      <trkpt lat="43.8949" lon="6.51497">
        <ele>1093.4</ele>
        <time>2021-09-12T14:49:13Z</time>
      </trkpt>
      <trkpt lat="43.89489" lon="6.51494">
        <ele>1093.4</ele>
        <time>2021-09-12T14:49:14Z</time>
      </trkpt>
      <trkpt lat="43.89488" lon="6.51489">
        <ele>1093.6</ele>
        <time>2021-09-12T14:49:15Z</time>
      </trkpt>
      <trkpt lat="43.89487" lon="6.51482">
        <ele>1093.8</ele>
        <time>2021-09-12T14:49:17Z</time>
      </trkpt>
      <trkpt lat="43.89485" lon="6.51477">
        <ele>1094</ele>
        <time>2021-09-12T14:49:19Z</time>
      </trkpt>
      <trkpt lat="43.89483" lon="6.51473">
        <ele>1094.1</ele>
        <time>2021-09-12T14:49:20Z</time>
      </trkpt>
      <trkpt lat="43.89481" lon="6.51469">
        <ele>1094.3</ele>
        <time>2021-09-12T14:49:22Z</time>
      </trkpt>
      <trkpt lat="43.89478" lon="6.51464">
        <ele>1094.5</ele>
        <time>2021-09-12T14:49:24Z</time>
      </trkpt>
      <trkpt lat="43.89475" lon="6.51458">
        <ele>1094.8</ele>
        <time>2021-09-12T14:49:26Z</time>
      </trkpt>
      <trkpt lat="43.89473" lon="6.51453">
        <ele>1095</ele>
        <time>2021-09-12T14:49:27Z</time>
      </trkpt>
      <trkpt lat="43.89469" lon="6.51446">
        <ele>1095.3</ele>
        <time>2021-09-12T14:49:30Z</time>
      </trkpt>
      <trkpt lat="43.89467" lon="6.51443">
        <ele>1095.4</ele>
        <time>2021-09-12T14:49:31Z</time>
      </trkpt>
      <trkpt lat="43.89466" lon="6.5144">
        <ele>1095.6</ele>
        <time>2021-09-12T14:49:32Z</time>
      </trkpt>
      <trkpt lat="43.89463" lon="6.51436">
        <ele>1095.8</ele>
        <time>2021-09-12T14:49:34Z</time>
      </trkpt>
      <trkpt lat="43.8946" lon="6.51432">
        <ele>1096</ele>
        <time>2021-09-12T14:49:35Z</time>
      </trkpt>
      <trkpt lat="43.89457" lon="6.51426">
        <ele>1096.3</ele>
        <time>2021-09-12T14:49:37Z</time>
      </trkpt>
      <trkpt lat="43.89452" lon="6.5142">
        <ele>1096.6</ele>
        <time>2021-09-12T14:49:40Z</time>
      </trkpt>
      <trkpt lat="43.89449" lon="6.51415">
        <ele>1096.8</ele>
        <time>2021-09-12T14:49:42Z</time>
      </trkpt>
      <trkpt lat="43.89447" lon="6.51411">
        <ele>1097</ele>
        <time>2021-09-12T14:49:43Z</time>
      </trkpt>
      <trkpt lat="43.89445" lon="6.51407">
        <ele>1097.2</ele>
        <time>2021-09-12T14:49:45Z</time>
      </trkpt>
      <trkpt lat="43.89443" lon="6.51402">
        <ele>1097.4</ele>
        <time>2021-09-12T14:49:46Z</time>
      </trkpt>
      <trkpt lat="43.89443" lon="6.51401">
        <ele>1097.5</ele>
        <time>2021-09-12T14:49:47Z</time>
      </trkpt>
      <trkpt lat="43.89441" lon="6.51393">
        <ele>1097.7</ele>
        <time>2021-09-12T14:49:49Z</time>
      </trkpt>
      <trkpt lat="43.8944" lon="6.5139">
        <ele>1097.9</ele>
        <time>2021-09-12T14:49:50Z</time>
      </trkpt>
      <trkpt lat="43.89438" lon="6.51383">
        <ele>1098.1</ele>
        <time>2021-09-12T14:49:52Z</time>
      </trkpt>
      <trkpt lat="43.89438" lon="6.5138">
        <ele>1098.2</ele>
        <time>2021-09-12T14:49:53Z</time>
      </trkpt>
      <trkpt lat="43.89438" lon="6.51374">
        <ele>1098.4</ele>
        <time>2021-09-12T14:49:55Z</time>
      </trkpt>
      <trkpt lat="43.89436" lon="6.51371">
        <ele>1098.5</ele>
        <time>2021-09-12T14:49:56Z</time>
      </trkpt>
      <trkpt lat="43.89436" lon="6.51372">
        <ele>1098.6</ele>
        <time>2021-09-12T14:49:57Z</time>
      </trkpt>
      <trkpt lat="43.89435" lon="6.5137">
        <ele>1098.6</ele>
        <time>2021-09-12T14:49:58Z</time>
      </trkpt>
      <trkpt lat="43.89436" lon="6.51366">
        <ele>1098.8</ele>
        <time>2021-09-12T14:49:59Z</time>
      </trkpt>
      <trkpt lat="43.89435" lon="6.51362">
        <ele>1098.9</ele>
        <time>2021-09-12T14:50:00Z</time>
      </trkpt>
      <trkpt lat="43.89435" lon="6.51356">
        <ele>1099.1</ele>
        <time>2021-09-12T14:50:02Z</time>
      </trkpt>
      <trkpt lat="43.89433" lon="6.51351">
        <ele>1099.3</ele>
        <time>2021-09-12T14:50:03Z</time>
      </trkpt>
      <trkpt lat="43.89433" lon="6.51345">
        <ele>1099.5</ele>
        <time>2021-09-12T14:50:05Z</time>
      </trkpt>
      <trkpt lat="43.89433" lon="6.51339">
        <ele>1099.6</ele>
        <time>2021-09-12T14:50:07Z</time>
      </trkpt>
      <trkpt lat="43.89432" lon="6.51335">
        <ele>1099.8</ele>
        <time>2021-09-12T14:50:08Z</time>
      </trkpt>
      <trkpt lat="43.89431" lon="6.51329">
        <ele>1100</ele>
        <time>2021-09-12T14:50:10Z</time>
      </trkpt>
      <trkpt lat="43.8943" lon="6.51322">
        <ele>1100.2</ele>
        <time>2021-09-12T14:50:12Z</time>
      </trkpt>
      <trkpt lat="43.89429" lon="6.51317">
        <ele>1100.4</ele>
        <time>2021-09-12T14:50:14Z</time>
      </trkpt>
      <trkpt lat="43.89428" lon="6.51313">
        <ele>1100.5</ele>
        <time>2021-09-12T14:50:15Z</time>
      </trkpt>
      <trkpt lat="43.89426" lon="6.51309">
        <ele>1100.7</ele>
        <time>2021-09-12T14:50:16Z</time>
      </trkpt>
      <trkpt lat="43.89424" lon="6.51305">
        <ele>1100.8</ele>
        <time>2021-09-12T14:50:18Z</time>
      </trkpt>
      <trkpt lat="43.89424" lon="6.51303">
        <ele>1100.9</ele>
        <time>2021-09-12T14:50:19Z</time>
      </trkpt>
      <trkpt lat="43.89421" lon="6.51298">
        <ele>1101.2</ele>
        <time>2021-09-12T14:50:20Z</time>
      </trkpt>
      <trkpt lat="43.8942" lon="6.51293">
        <ele>1101.4</ele>
        <time>2021-09-12T14:50:22Z</time>
      </trkpt>
      <trkpt lat="43.8942" lon="6.51289">
        <ele>1101.6</ele>
        <time>2021-09-12T14:50:23Z</time>
      </trkpt>
      <trkpt lat="43.89419" lon="6.51283">
        <ele>1101.8</ele>
        <time>2021-09-12T14:50:25Z</time>
      </trkpt>
      <trkpt lat="43.89417" lon="6.51282">
        <ele>1102</ele>
        <time>2021-09-12T14:50:26Z</time>
      </trkpt>
      <trkpt lat="43.89416" lon="6.51277">
        <ele>1102.2</ele>
        <time>2021-09-12T14:50:28Z</time>
      </trkpt>
      <trkpt lat="43.89415" lon="6.51274">
        <ele>1102.3</ele>
        <time>2021-09-12T14:50:29Z</time>
      </trkpt>
      <trkpt lat="43.89415" lon="6.51273">
        <ele>1102.4</ele>
        <time>2021-09-12T14:50:30Z</time>
      </trkpt>
      <trkpt lat="43.89414" lon="6.5127">
        <ele>1102.6</ele>
        <time>2021-09-12T14:50:31Z</time>
      </trkpt>
      <trkpt lat="43.89412" lon="6.51267">
        <ele>1102.8</ele>
        <time>2021-09-12T14:50:32Z</time>
      </trkpt>
      <trkpt lat="43.8941" lon="6.51264">
        <ele>1103.1</ele>
        <time>2021-09-12T14:50:34Z</time>
      </trkpt>
      <trkpt lat="43.89407" lon="6.51261">
        <ele>1103.4</ele>
        <time>2021-09-12T14:50:36Z</time>
      </trkpt>
      <trkpt lat="43.89405" lon="6.51258">
        <ele>1103.6</ele>
        <time>2021-09-12T14:50:38Z</time>
      </trkpt>
      <trkpt lat="43.89402" lon="6.51253">
        <ele>1104</ele>
        <time>2021-09-12T14:50:41Z</time>
      </trkpt>
      <trkpt lat="43.89402" lon="6.5125">
        <ele>1104.2</ele>
        <time>2021-09-12T14:50:42Z</time>
      </trkpt>
      <trkpt lat="43.894" lon="6.51246">
        <ele>1104.5</ele>
        <time>2021-09-12T14:50:44Z</time>
      </trkpt>
      <trkpt lat="43.89398" lon="6.51242">
        <ele>1104.9</ele>
        <time>2021-09-12T14:50:46Z</time>
      </trkpt>
      <trkpt lat="43.89396" lon="6.51238">
        <ele>1105.2</ele>
        <time>2021-09-12T14:50:49Z</time>
      </trkpt>
      <trkpt lat="43.89394" lon="6.51235">
        <ele>1105.4</ele>
        <time>2021-09-12T14:50:51Z</time>
      </trkpt>
      <trkpt lat="43.89393" lon="6.51234">
        <ele>1105.5</ele>
        <time>2021-09-12T14:50:52Z</time>
      </trkpt>
      <trkpt lat="43.8939" lon="6.51229">
        <ele>1105.9</ele>
        <time>2021-09-12T14:50:55Z</time>
      </trkpt>
      <trkpt lat="43.89388" lon="6.51228">
        <ele>1106.1</ele>
        <time>2021-09-12T14:50:57Z</time>
      </trkpt>
      <trkpt lat="43.89386" lon="6.51226">
        <ele>1106.3</ele>
        <time>2021-09-12T14:50:59Z</time>
      </trkpt>
      <trkpt lat="43.89384" lon="6.51223">
        <ele>1106.6</ele>
        <time>2021-09-12T14:51:01Z</time>
      </trkpt>
      <trkpt lat="43.89383" lon="6.51223">
        <ele>1106.7</ele>
        <time>2021-09-12T14:51:02Z</time>
      </trkpt>
      <trkpt lat="43.89382" lon="6.51221">
        <ele>1106.8</ele>
        <time>2021-09-12T14:51:04Z</time>
      </trkpt>
      <trkpt lat="43.89379" lon="6.51218">
        <ele>1107.1</ele>
        <time>2021-09-12T14:51:07Z</time>
      </trkpt>
      <trkpt lat="43.89376" lon="6.51215">
        <ele>1107.5</ele>
        <time>2021-09-12T14:51:10Z</time>
      </trkpt>
      <trkpt lat="43.89373" lon="6.51212">
        <ele>1107.8</ele>
        <time>2021-09-12T14:51:13Z</time>
      </trkpt>
      <trkpt lat="43.89371" lon="6.51211">
        <ele>1108</ele>
        <time>2021-09-12T14:51:15Z</time>
      </trkpt>
      <trkpt lat="43.89369" lon="6.5121">
        <ele>1108.2</ele>
        <time>2021-09-12T14:51:17Z</time>
      </trkpt>
      <trkpt lat="43.89368" lon="6.51206">
        <ele>1108.5</ele>
        <time>2021-09-12T14:51:19Z</time>
      </trkpt>
      <trkpt lat="43.89367" lon="6.51205">
        <ele>1108.6</ele>
        <time>2021-09-12T14:51:20Z</time>
      </trkpt>
      <trkpt lat="43.89364" lon="6.51201">
        <ele>1109</ele>
        <time>2021-09-12T14:51:24Z</time>
      </trkpt>
      <trkpt lat="43.89363" lon="6.51199">
        <ele>1109.1</ele>
        <time>2021-09-12T14:51:26Z</time>
      </trkpt>
      <trkpt lat="43.89361" lon="6.51196">
        <ele>1109.4</ele>
        <time>2021-09-12T14:51:29Z</time>
      </trkpt>
      <trkpt lat="43.89359" lon="6.51191">
        <ele>1109.8</ele>
        <time>2021-09-12T14:51:32Z</time>
      </trkpt>
      <trkpt lat="43.89356" lon="6.51189">
        <ele>1110.1</ele>
        <time>2021-09-12T14:51:35Z</time>
      </trkpt>
      <trkpt lat="43.89354" lon="6.51187">
        <ele>1110.4</ele>
        <time>2021-09-12T14:51:38Z</time>
      </trkpt>
      <trkpt lat="43.89353" lon="6.51184">
        <ele>1110.6</ele>
        <time>2021-09-12T14:51:40Z</time>
      </trkpt>
      <trkpt lat="43.89352" lon="6.51182">
        <ele>1110.8</ele>
        <time>2021-09-12T14:51:42Z</time>
      </trkpt>
      <trkpt lat="43.8935" lon="6.51179">
        <ele>1111.1</ele>
        <time>2021-09-12T14:51:45Z</time>
      </trkpt>
      <trkpt lat="43.89346" lon="6.51176">
        <ele>1111.5</ele>
        <time>2021-09-12T14:51:49Z</time>
      </trkpt>
      <trkpt lat="43.89344" lon="6.51174">
        <ele>1111.7</ele>
        <time>2021-09-12T14:51:51Z</time>
      </trkpt>
      <trkpt lat="43.89342" lon="6.51171">
        <ele>1112</ele>
        <time>2021-09-12T14:51:54Z</time>
      </trkpt>
      <trkpt lat="43.89341" lon="6.51167">
        <ele>1112.3</ele>
        <time>2021-09-12T14:51:57Z</time>
      </trkpt>
      <trkpt lat="43.89341" lon="6.51165">
        <ele>1112.4</ele>
        <time>2021-09-12T14:51:58Z</time>
      </trkpt>
      <trkpt lat="43.89341" lon="6.51161">
        <ele>1112.7</ele>
        <time>2021-09-12T14:52:01Z</time>
      </trkpt>
      <trkpt lat="43.89341" lon="6.5116">
        <ele>1112.8</ele>
        <time>2021-09-12T14:52:02Z</time>
      </trkpt>
      <trkpt lat="43.8934" lon="6.51156">
        <ele>1113</ele>
        <time>2021-09-12T14:52:04Z</time>
      </trkpt>
      <trkpt lat="43.8934" lon="6.51154">
        <ele>1113.1</ele>
        <time>2021-09-12T14:52:05Z</time>
      </trkpt>
      <trkpt lat="43.8934" lon="6.51152">
        <ele>1113.3</ele>
        <time>2021-09-12T14:52:07Z</time>
      </trkpt>
      <trkpt lat="43.89339" lon="6.5115">
        <ele>1113.4</ele>
        <time>2021-09-12T14:52:08Z</time>
      </trkpt>
      <trkpt lat="43.89339" lon="6.51148">
        <ele>1113.5</ele>
        <time>2021-09-12T14:52:09Z</time>
      </trkpt>
      <trkpt lat="43.89338" lon="6.51145">
        <ele>1113.7</ele>
        <time>2021-09-12T14:52:12Z</time>
      </trkpt>
      <trkpt lat="43.89336" lon="6.5114">
        <ele>1114.1</ele>
        <time>2021-09-12T14:52:15Z</time>
      </trkpt>
      <trkpt lat="43.89335" lon="6.51138">
        <ele>1114.2</ele>
        <time>2021-09-12T14:52:17Z</time>
      </trkpt>
      <trkpt lat="43.89335" lon="6.51136">
        <ele>1114.3</ele>
        <time>2021-09-12T14:52:18Z</time>
      </trkpt>
      <trkpt lat="43.89336" lon="6.51129">
        <ele>1114.7</ele>
        <time>2021-09-12T14:52:22Z</time>
      </trkpt>
      <trkpt lat="43.89336" lon="6.51127">
        <ele>1114.9</ele>
        <time>2021-09-12T14:52:23Z</time>
      </trkpt>
      <trkpt lat="43.89337" lon="6.51125">
        <ele>1115</ele>
        <time>2021-09-12T14:52:24Z</time>
      </trkpt>
      <trkpt lat="43.89336" lon="6.51122">
        <ele>1115.2</ele>
        <time>2021-09-12T14:52:26Z</time>
      </trkpt>
      <trkpt lat="43.89335" lon="6.51119">
        <ele>1115.4</ele>
        <time>2021-09-12T14:52:28Z</time>
      </trkpt>
      <trkpt lat="43.89333" lon="6.51117">
        <ele>1115.7</ele>
        <time>2021-09-12T14:52:30Z</time>
      </trkpt>
      <trkpt lat="43.8933" lon="6.51115">
        <ele>1115.9</ele>
        <time>2021-09-12T14:52:32Z</time>
      </trkpt>
      <trkpt lat="43.89329" lon="6.51113">
        <ele>1116.1</ele>
        <time>2021-09-12T14:52:33Z</time>
      </trkpt>
      <trkpt lat="43.89327" lon="6.51112">
        <ele>1116.3</ele>
        <time>2021-09-12T14:52:35Z</time>
      </trkpt>
      <trkpt lat="43.89325" lon="6.5111">
        <ele>1116.4</ele>
        <time>2021-09-12T14:52:37Z</time>
      </trkpt>
      <trkpt lat="43.89324" lon="6.51109">
        <ele>1116.6</ele>
        <time>2021-09-12T14:52:38Z</time>
      </trkpt>
      <trkpt lat="43.89323" lon="6.51106">
        <ele>1116.8</ele>
        <time>2021-09-12T14:52:39Z</time>
      </trkpt>
      <trkpt lat="43.89321" lon="6.51105">
        <ele>1116.9</ele>
        <time>2021-09-12T14:52:41Z</time>
      </trkpt>
      <trkpt lat="43.8932" lon="6.51104">
        <ele>1117.1</ele>
        <time>2021-09-12T14:52:42Z</time>
      </trkpt>
      <trkpt lat="43.89318" lon="6.51104">
        <ele>1117.3</ele>
        <time>2021-09-12T14:52:44Z</time>
      </trkpt>
      <trkpt lat="43.89315" lon="6.51104">
        <ele>1117.5</ele>
        <time>2021-09-12T14:52:45Z</time>
      </trkpt>
      <trkpt lat="43.89312" lon="6.51103">
        <ele>1117.8</ele>
        <time>2021-09-12T14:52:47Z</time>
      </trkpt>
      <trkpt lat="43.89309" lon="6.51104">
        <ele>1118</ele>
        <time>2021-09-12T14:52:49Z</time>
      </trkpt>
      <trkpt lat="43.89307" lon="6.51103">
        <ele>1118.1</ele>
        <time>2021-09-12T14:52:50Z</time>
      </trkpt>
      <trkpt lat="43.89306" lon="6.51101">
        <ele>1118.3</ele>
        <time>2021-09-12T14:52:51Z</time>
      </trkpt>
      <trkpt lat="43.89304" lon="6.511">
        <ele>1118.4</ele>
        <time>2021-09-12T14:52:52Z</time>
      </trkpt>
      <trkpt lat="43.89302" lon="6.51098">
        <ele>1118.6</ele>
        <time>2021-09-12T14:52:54Z</time>
      </trkpt>
      <trkpt lat="43.89301" lon="6.51097">
        <ele>1118.7</ele>
        <time>2021-09-12T14:52:55Z</time>
      </trkpt>
      <trkpt lat="43.89299" lon="6.51095">
        <ele>1118.8</ele>
        <time>2021-09-12T14:52:56Z</time>
      </trkpt>
      <trkpt lat="43.89297" lon="6.51091">
        <ele>1119</ele>
        <time>2021-09-12T14:52:58Z</time>
      </trkpt>
      <trkpt lat="43.89296" lon="6.51088">
        <ele>1119.1</ele>
        <time>2021-09-12T14:52:59Z</time>
      </trkpt>
      <trkpt lat="43.89295" lon="6.51086">
        <ele>1119.3</ele>
        <time>2021-09-12T14:53:01Z</time>
      </trkpt>
      <trkpt lat="43.89293" lon="6.51082">
        <ele>1119.4</ele>
        <time>2021-09-12T14:53:02Z</time>
      </trkpt>
      <trkpt lat="43.89292" lon="6.51077">
        <ele>1119.6</ele>
        <time>2021-09-12T14:53:04Z</time>
      </trkpt>
      <trkpt lat="43.89291" lon="6.51073">
        <ele>1119.8</ele>
        <time>2021-09-12T14:53:06Z</time>
      </trkpt>
      <trkpt lat="43.8929" lon="6.51071">
        <ele>1119.9</ele>
        <time>2021-09-12T14:53:07Z</time>
      </trkpt>
      <trkpt lat="43.8929" lon="6.51069">
        <ele>1120</ele>
        <time>2021-09-12T14:53:08Z</time>
      </trkpt>
      <trkpt lat="43.89289" lon="6.51064">
        <ele>1120.2</ele>
        <time>2021-09-12T14:53:09Z</time>
      </trkpt>
      <trkpt lat="43.89288" lon="6.51063">
        <ele>1120.2</ele>
        <time>2021-09-12T14:53:10Z</time>
      </trkpt>
      <trkpt lat="43.89284" lon="6.51057">
        <ele>1120.5</ele>
        <time>2021-09-12T14:53:12Z</time>
      </trkpt>
      <trkpt lat="43.89283" lon="6.51056">
        <ele>1120.6</ele>
        <time>2021-09-12T14:53:13Z</time>
      </trkpt>
      <trkpt lat="43.8928" lon="6.51053">
        <ele>1120.8</ele>
        <time>2021-09-12T14:53:15Z</time>
      </trkpt>
      <trkpt lat="43.89277" lon="6.51051">
        <ele>1121</ele>
        <time>2021-09-12T14:53:16Z</time>
      </trkpt>
      <trkpt lat="43.89272" lon="6.51048">
        <ele>1121.4</ele>
        <time>2021-09-12T14:53:18Z</time>
      </trkpt>
      <trkpt lat="43.8927" lon="6.51046">
        <ele>1121.6</ele>
        <time>2021-09-12T14:53:20Z</time>
      </trkpt>
      <trkpt lat="43.89268" lon="6.51045">
        <ele>1121.7</ele>
        <time>2021-09-12T14:53:21Z</time>
      </trkpt>
      <trkpt lat="43.89267" lon="6.5104">
        <ele>1121.9</ele>
        <time>2021-09-12T14:53:22Z</time>
      </trkpt>
      <trkpt lat="43.89265" lon="6.51038">
        <ele>1122</ele>
        <time>2021-09-12T14:53:23Z</time>
      </trkpt>
      <trkpt lat="43.89263" lon="6.51033">
        <ele>1122.2</ele>
        <time>2021-09-12T14:53:25Z</time>
      </trkpt>
      <trkpt lat="43.89262" lon="6.51029">
        <ele>1122.4</ele>
        <time>2021-09-12T14:53:27Z</time>
      </trkpt>
      <trkpt lat="43.89261" lon="6.51024">
        <ele>1122.1</ele>
        <time>2021-09-12T14:53:28Z</time>
      </trkpt>
      <trkpt lat="43.89262" lon="6.51019">
        <ele>1122</ele>
        <time>2021-09-12T14:53:30Z</time>
      </trkpt>
      <trkpt lat="43.89263" lon="6.51017">
        <ele>1122</ele>
        <time>2021-09-12T14:53:31Z</time>
      </trkpt>
      <trkpt lat="43.89263" lon="6.51012">
        <ele>1122.1</ele>
        <time>2021-09-12T14:53:32Z</time>
      </trkpt>
      <trkpt lat="43.89263" lon="6.51008">
        <ele>1122.1</ele>
        <time>2021-09-12T14:53:33Z</time>
      </trkpt>
      <trkpt lat="43.89263" lon="6.51003">
        <ele>1122.2</ele>
        <time>2021-09-12T14:53:34Z</time>
      </trkpt>
      <trkpt lat="43.89263" lon="6.51001">
        <ele>1122.2</ele>
        <time>2021-09-12T14:53:35Z</time>
      </trkpt>
      <trkpt lat="43.89264" lon="6.50994">
        <ele>1122.3</ele>
        <time>2021-09-12T14:53:36Z</time>
      </trkpt>
      <trkpt lat="43.89263" lon="6.5099">
        <ele>1122.3</ele>
        <time>2021-09-12T14:53:37Z</time>
      </trkpt>
      <trkpt lat="43.89263" lon="6.50986">
        <ele>1122.4</ele>
        <time>2021-09-12T14:53:38Z</time>
      </trkpt>
      <trkpt lat="43.89263" lon="6.50981">
        <ele>1122.4</ele>
        <time>2021-09-12T14:53:39Z</time>
      </trkpt>
      <trkpt lat="43.89265" lon="6.50975">
        <ele>1122.5</ele>
        <time>2021-09-12T14:53:40Z</time>
      </trkpt>
      <trkpt lat="43.89265" lon="6.50969">
        <ele>1122.6</ele>
        <time>2021-09-12T14:53:41Z</time>
      </trkpt>
      <trkpt lat="43.89264" lon="6.50961">
        <ele>1122.7</ele>
        <time>2021-09-12T14:53:43Z</time>
      </trkpt>
      <trkpt lat="43.89263" lon="6.50958">
        <ele>1122.8</ele>
        <time>2021-09-12T14:53:44Z</time>
      </trkpt>
      <trkpt lat="43.89263" lon="6.50953">
        <ele>1122.9</ele>
        <time>2021-09-12T14:53:45Z</time>
      </trkpt>
      <trkpt lat="43.89262" lon="6.5095">
        <ele>1123</ele>
        <time>2021-09-12T14:53:46Z</time>
      </trkpt>
      <trkpt lat="43.8926" lon="6.50945">
        <ele>1123.1</ele>
        <time>2021-09-12T14:53:47Z</time>
      </trkpt>
      <trkpt lat="43.89258" lon="6.50936">
        <ele>1123.3</ele>
        <time>2021-09-12T14:53:49Z</time>
      </trkpt>
      <trkpt lat="43.89257" lon="6.50934">
        <ele>1123.4</ele>
        <time>2021-09-12T14:53:50Z</time>
      </trkpt>
      <trkpt lat="43.89255" lon="6.50928">
        <ele>1123.5</ele>
        <time>2021-09-12T14:53:51Z</time>
      </trkpt>
      <trkpt lat="43.89253" lon="6.50922">
        <ele>1123.7</ele>
        <time>2021-09-12T14:53:53Z</time>
      </trkpt>
      <trkpt lat="43.89252" lon="6.50916">
        <ele>1123.8</ele>
        <time>2021-09-12T14:53:54Z</time>
      </trkpt>
      <trkpt lat="43.8925" lon="6.5091">
        <ele>1124</ele>
        <time>2021-09-12T14:53:56Z</time>
      </trkpt>
      <trkpt lat="43.89249" lon="6.50906">
        <ele>1124.1</ele>
        <time>2021-09-12T14:53:57Z</time>
      </trkpt>
      <trkpt lat="43.89247" lon="6.50903">
        <ele>1124.1</ele>
        <time>2021-09-12T14:53:58Z</time>
      </trkpt>
      <trkpt lat="43.89243" lon="6.50897">
        <ele>1124.3</ele>
        <time>2021-09-12T14:54:00Z</time>
      </trkpt>
      <trkpt lat="43.89239" lon="6.50889">
        <ele>1124.4</ele>
        <time>2021-09-12T14:54:03Z</time>
      </trkpt>
      <trkpt lat="43.89238" lon="6.50886">
        <ele>1124.5</ele>
        <time>2021-09-12T14:54:04Z</time>
      </trkpt>
      <trkpt lat="43.89236" lon="6.50879">
        <ele>1124.6</ele>
        <time>2021-09-12T14:54:05Z</time>
      </trkpt>
      <trkpt lat="43.89235" lon="6.50874">
        <ele>1124.7</ele>
        <time>2021-09-12T14:54:07Z</time>
      </trkpt>
      <trkpt lat="43.89232" lon="6.50865">
        <ele>1124.9</ele>
        <time>2021-09-12T14:54:09Z</time>
      </trkpt>
      <trkpt lat="43.8923" lon="6.50861">
        <ele>1125</ele>
        <time>2021-09-12T14:54:10Z</time>
      </trkpt>
      <trkpt lat="43.89227" lon="6.50854">
        <ele>1125.2</ele>
        <time>2021-09-12T14:54:12Z</time>
      </trkpt>
      <trkpt lat="43.89226" lon="6.50851">
        <ele>1125.3</ele>
        <time>2021-09-12T14:54:13Z</time>
      </trkpt>
      <trkpt lat="43.89223" lon="6.50844">
        <ele>1125.4</ele>
        <time>2021-09-12T14:54:15Z</time>
      </trkpt>
      <trkpt lat="43.89221" lon="6.5084">
        <ele>1125.5</ele>
        <time>2021-09-12T14:54:16Z</time>
      </trkpt>
      <trkpt lat="43.89219" lon="6.50837">
        <ele>1125.7</ele>
        <time>2021-09-12T14:54:17Z</time>
      </trkpt>
      <trkpt lat="43.89216" lon="6.50832">
        <ele>1125.8</ele>
        <time>2021-09-12T14:54:19Z</time>
      </trkpt>
      <trkpt lat="43.89214" lon="6.50828">
        <ele>1125.9</ele>
        <time>2021-09-12T14:54:20Z</time>
      </trkpt>
      <trkpt lat="43.89211" lon="6.50823">
        <ele>1126.1</ele>
        <time>2021-09-12T14:54:21Z</time>
      </trkpt>
      <trkpt lat="43.8921" lon="6.5082">
        <ele>1126.2</ele>
        <time>2021-09-12T14:54:22Z</time>
      </trkpt>
      <trkpt lat="43.89208" lon="6.50815">
        <ele>1126.4</ele>
        <time>2021-09-12T14:54:24Z</time>
      </trkpt>
      <trkpt lat="43.89204" lon="6.50807">
        <ele>1126.7</ele>
        <time>2021-09-12T14:54:26Z</time>
      </trkpt>
      <trkpt lat="43.89202" lon="6.50799">
        <ele>1127</ele>
        <time>2021-09-12T14:54:28Z</time>
      </trkpt>
      <trkpt lat="43.89201" lon="6.50795">
        <ele>1127.1</ele>
        <time>2021-09-12T14:54:29Z</time>
      </trkpt>
      <trkpt lat="43.892" lon="6.50787">
        <ele>1127.4</ele>
        <time>2021-09-12T14:54:32Z</time>
      </trkpt>
      <trkpt lat="43.89201" lon="6.50781">
        <ele>1127.6</ele>
        <time>2021-09-12T14:54:33Z</time>
      </trkpt>
      <trkpt lat="43.892" lon="6.50775">
        <ele>1127.7</ele>
        <time>2021-09-12T14:54:35Z</time>
      </trkpt>
      <trkpt lat="43.89201" lon="6.50771">
        <ele>1127.8</ele>
        <time>2021-09-12T14:54:36Z</time>
      </trkpt>
      <trkpt lat="43.89202" lon="6.50767">
        <ele>1127.8</ele>
        <time>2021-09-12T14:54:37Z</time>
      </trkpt>
      <trkpt lat="43.89204" lon="6.50764">
        <ele>1127.9</ele>
        <time>2021-09-12T14:54:38Z</time>
      </trkpt>
      <trkpt lat="43.89207" lon="6.50759">
        <ele>1128</ele>
        <time>2021-09-12T14:54:40Z</time>
      </trkpt>
      <trkpt lat="43.89208" lon="6.50755">
        <ele>1128</ele>
        <time>2021-09-12T14:54:41Z</time>
      </trkpt>
      <trkpt lat="43.8921" lon="6.50749">
        <ele>1128.1</ele>
        <time>2021-09-12T14:54:43Z</time>
      </trkpt>
      <trkpt lat="43.89212" lon="6.50744">
        <ele>1128.2</ele>
        <time>2021-09-12T14:54:44Z</time>
      </trkpt>
      <trkpt lat="43.89216" lon="6.50734">
        <ele>1128.5</ele>
        <time>2021-09-12T14:54:47Z</time>
      </trkpt>
      <trkpt lat="43.89218" lon="6.50728">
        <ele>1128.8</ele>
        <time>2021-09-12T14:54:49Z</time>
      </trkpt>
      <trkpt lat="43.89219" lon="6.50722">
        <ele>1129.1</ele>
        <time>2021-09-12T14:54:50Z</time>
      </trkpt>
      <trkpt lat="43.89219" lon="6.50717">
        <ele>1129.2</ele>
        <time>2021-09-12T14:54:51Z</time>
      </trkpt>
      <trkpt lat="43.89219" lon="6.50713">
        <ele>1129.4</ele>
        <time>2021-09-12T14:54:52Z</time>
      </trkpt>
      <trkpt lat="43.89221" lon="6.50706">
        <ele>1129.7</ele>
        <time>2021-09-12T14:54:54Z</time>
      </trkpt>
      <trkpt lat="43.89223" lon="6.507">
        <ele>1130</ele>
        <time>2021-09-12T14:54:56Z</time>
      </trkpt>
      <trkpt lat="43.89224" lon="6.50696">
        <ele>1130.2</ele>
        <time>2021-09-12T14:54:57Z</time>
      </trkpt>
      <trkpt lat="43.89226" lon="6.50689">
        <ele>1130.4</ele>
        <time>2021-09-12T14:54:59Z</time>
      </trkpt>
      <trkpt lat="43.89227" lon="6.50682">
        <ele>1130.7</ele>
        <time>2021-09-12T14:55:01Z</time>
      </trkpt>
      <trkpt lat="43.89227" lon="6.50678">
        <ele>1130.8</ele>
        <time>2021-09-12T14:55:03Z</time>
      </trkpt>
      <trkpt lat="43.89227" lon="6.50674">
        <ele>1130.9</ele>
        <time>2021-09-12T14:55:04Z</time>
      </trkpt>
      <trkpt lat="43.89227" lon="6.5067">
        <ele>1130.9</ele>
        <time>2021-09-12T14:55:05Z</time>
      </trkpt>
      <trkpt lat="43.89227" lon="6.50663">
        <ele>1131.1</ele>
        <time>2021-09-12T14:55:07Z</time>
      </trkpt>
      <trkpt lat="43.89228" lon="6.50657">
        <ele>1131.1</ele>
        <time>2021-09-12T14:55:09Z</time>
      </trkpt>
      <trkpt lat="43.89228" lon="6.50653">
        <ele>1131.2</ele>
        <time>2021-09-12T14:55:10Z</time>
      </trkpt>
      <trkpt lat="43.89229" lon="6.50642">
        <ele>1131.3</ele>
        <time>2021-09-12T14:55:13Z</time>
      </trkpt>
      <trkpt lat="43.89229" lon="6.50637">
        <ele>1131.3</ele>
        <time>2021-09-12T14:55:14Z</time>
      </trkpt>
      <trkpt lat="43.89229" lon="6.50625">
        <ele>1131.3</ele>
        <time>2021-09-12T14:55:17Z</time>
      </trkpt>
      <trkpt lat="43.89229" lon="6.50621">
        <ele>1131.3</ele>
        <time>2021-09-12T14:55:18Z</time>
      </trkpt>
      <trkpt lat="43.89228" lon="6.50616">
        <ele>1131.3</ele>
        <time>2021-09-12T14:55:19Z</time>
      </trkpt>
      <trkpt lat="43.89227" lon="6.50608">
        <ele>1131.3</ele>
        <time>2021-09-12T14:55:21Z</time>
      </trkpt>
      <trkpt lat="43.89226" lon="6.50601">
        <ele>1131.3</ele>
        <time>2021-09-12T14:55:23Z</time>
      </trkpt>
      <trkpt lat="43.89227" lon="6.50594">
        <ele>1131.4</ele>
        <time>2021-09-12T14:55:24Z</time>
      </trkpt>
      <trkpt lat="43.89228" lon="6.50588">
        <ele>1131.4</ele>
        <time>2021-09-12T14:55:26Z</time>
      </trkpt>
      <trkpt lat="43.89228" lon="6.50583">
        <ele>1131.5</ele>
        <time>2021-09-12T14:55:27Z</time>
      </trkpt>
      <trkpt lat="43.89228" lon="6.50573">
        <ele>1131.5</ele>
        <time>2021-09-12T14:55:29Z</time>
      </trkpt>
      <trkpt lat="43.89228" lon="6.50568">
        <ele>1131.6</ele>
        <time>2021-09-12T14:55:30Z</time>
      </trkpt>
      <trkpt lat="43.89229" lon="6.5056">
        <ele>1131.6</ele>
        <time>2021-09-12T14:55:32Z</time>
      </trkpt>
      <trkpt lat="43.89229" lon="6.50555">
        <ele>1131.6</ele>
        <time>2021-09-12T14:55:33Z</time>
      </trkpt>
      <trkpt lat="43.89228" lon="6.50551">
        <ele>1131.5</ele>
        <time>2021-09-12T14:55:34Z</time>
      </trkpt>
      <trkpt lat="43.89229" lon="6.50546">
        <ele>1131.5</ele>
        <time>2021-09-12T14:55:35Z</time>
      </trkpt>
      <trkpt lat="43.8923" lon="6.50537">
        <ele>1131.4</ele>
        <time>2021-09-12T14:55:37Z</time>
      </trkpt>
      <trkpt lat="43.89229" lon="6.50527">
        <ele>1131.2</ele>
        <time>2021-09-12T14:55:39Z</time>
      </trkpt>
      <trkpt lat="43.89229" lon="6.50522">
        <ele>1131.1</ele>
        <time>2021-09-12T14:55:40Z</time>
      </trkpt>
      <trkpt lat="43.89229" lon="6.50517">
        <ele>1131</ele>
        <time>2021-09-12T14:55:41Z</time>
      </trkpt>
      <trkpt lat="43.89228" lon="6.50507">
        <ele>1130.7</ele>
        <time>2021-09-12T14:55:42Z</time>
      </trkpt>
      <trkpt lat="43.8923" lon="6.50502">
        <ele>1130.6</ele>
        <time>2021-09-12T14:55:43Z</time>
      </trkpt>
      <trkpt lat="43.89235" lon="6.50495">
        <ele>1130.5</ele>
        <time>2021-09-12T14:55:45Z</time>
      </trkpt>
      <trkpt lat="43.89237" lon="6.50489">
        <ele>1130.4</ele>
        <time>2021-09-12T14:55:46Z</time>
      </trkpt>
      <trkpt lat="43.89239" lon="6.50478">
        <ele>1130.3</ele>
        <time>2021-09-12T14:55:48Z</time>
      </trkpt>
      <trkpt lat="43.89236" lon="6.50462">
        <ele>1130</ele>
        <time>2021-09-12T14:55:50Z</time>
      </trkpt>
      <trkpt lat="43.89237" lon="6.50446">
        <ele>1129.6</ele>
        <time>2021-09-12T14:55:52Z</time>
      </trkpt>
      <trkpt lat="43.89239" lon="6.50437">
        <ele>1129.3</ele>
        <time>2021-09-12T14:55:54Z</time>
      </trkpt>
      <trkpt lat="43.8924" lon="6.50419">
        <ele>1128.7</ele>
        <time>2021-09-12T14:55:56Z</time>
      </trkpt>
      <trkpt lat="43.89241" lon="6.50409">
        <ele>1128.3</ele>
        <time>2021-09-12T14:55:57Z</time>
      </trkpt>
      <trkpt lat="43.89241" lon="6.5039">
        <ele>1127.6</ele>
        <time>2021-09-12T14:56:00Z</time>
      </trkpt>
      <trkpt lat="43.89241" lon="6.50372">
        <ele>1127.1</ele>
        <time>2021-09-12T14:56:03Z</time>
      </trkpt>
      <trkpt lat="43.8924" lon="6.50363">
        <ele>1126.8</ele>
        <time>2021-09-12T14:56:04Z</time>
      </trkpt>
      <trkpt lat="43.89239" lon="6.50346">
        <ele>1126.4</ele>
        <time>2021-09-12T14:56:06Z</time>
      </trkpt>
      <trkpt lat="43.89239" lon="6.50337">
        <ele>1126.1</ele>
        <time>2021-09-12T14:56:07Z</time>
      </trkpt>
      <trkpt lat="43.89238" lon="6.50326">
        <ele>1125.8</ele>
        <time>2021-09-12T14:56:09Z</time>
      </trkpt>
      <trkpt lat="43.8924" lon="6.50305">
        <ele>1125.2</ele>
        <time>2021-09-12T14:56:11Z</time>
      </trkpt>
      <trkpt lat="43.89243" lon="6.50296">
        <ele>1125.1</ele>
        <time>2021-09-12T14:56:13Z</time>
      </trkpt>
      <trkpt lat="43.89253" lon="6.50281">
        <ele>1125.3</ele>
        <time>2021-09-12T14:56:15Z</time>
      </trkpt>
      <trkpt lat="43.89257" lon="6.50276">
        <ele>1125.5</ele>
        <time>2021-09-12T14:56:16Z</time>
      </trkpt>
      <trkpt lat="43.89266" lon="6.50268">
        <ele>1126.2</ele>
        <time>2021-09-12T14:56:18Z</time>
      </trkpt>
      <trkpt lat="43.8927" lon="6.50266">
        <ele>1126.6</ele>
        <time>2021-09-12T14:56:19Z</time>
      </trkpt>
      <trkpt lat="43.89276" lon="6.50262">
        <ele>1127.2</ele>
        <time>2021-09-12T14:56:21Z</time>
      </trkpt>
      <trkpt lat="43.8928" lon="6.50259">
        <ele>1127.6</ele>
        <time>2021-09-12T14:56:22Z</time>
      </trkpt>
      <trkpt lat="43.89282" lon="6.50255">
        <ele>1127.6</ele>
        <time>2021-09-12T14:56:23Z</time>
      </trkpt>
      <trkpt lat="43.89285" lon="6.50243">
        <ele>1127.6</ele>
        <time>2021-09-12T14:56:25Z</time>
      </trkpt>
      <trkpt lat="43.89286" lon="6.50238">
        <ele>1127.6</ele>
        <time>2021-09-12T14:56:26Z</time>
      </trkpt>
      <trkpt lat="43.89287" lon="6.50234">
        <ele>1127.6</ele>
        <time>2021-09-12T14:56:27Z</time>
      </trkpt>
      <trkpt lat="43.89286" lon="6.50233">
        <ele>1127.6</ele>
        <time>2021-09-12T14:56:28Z</time>
      </trkpt>
      <trkpt lat="43.8928" lon="6.50229">
        <ele>1127.6</ele>
        <time>2021-09-12T14:56:30Z</time>
      </trkpt>
      <trkpt lat="43.89277" lon="6.50226">
        <ele>1127.7</ele>
        <time>2021-09-12T14:56:32Z</time>
      </trkpt>
      <trkpt lat="43.89273" lon="6.50224">
        <ele>1128.1</ele>
        <time>2021-09-12T14:56:34Z</time>
      </trkpt>
      <trkpt lat="43.8927" lon="6.5022">
        <ele>1128.5</ele>
        <time>2021-09-12T14:56:35Z</time>
      </trkpt>
      <trkpt lat="43.89268" lon="6.50218">
        <ele>1128.7</ele>
        <time>2021-09-12T14:56:36Z</time>
      </trkpt>
      <trkpt lat="43.89265" lon="6.50216">
        <ele>1129</ele>
        <time>2021-09-12T14:56:37Z</time>
      </trkpt>
      <trkpt lat="43.89263" lon="6.50215">
        <ele>1129.1</ele>
        <time>2021-09-12T14:56:38Z</time>
      </trkpt>
      <trkpt lat="43.89258" lon="6.50213">
        <ele>1129.5</ele>
        <time>2021-09-12T14:56:40Z</time>
      </trkpt>
      <trkpt lat="43.89253" lon="6.5021">
        <ele>1130</ele>
        <time>2021-09-12T14:56:43Z</time>
      </trkpt>
      <trkpt lat="43.89246" lon="6.50206">
        <ele>1130.5</ele>
        <time>2021-09-12T14:56:46Z</time>
      </trkpt>
      <trkpt lat="43.89243" lon="6.50203">
        <ele>1130.8</ele>
        <time>2021-09-12T14:56:48Z</time>
      </trkpt>
      <trkpt lat="43.89239" lon="6.50201">
        <ele>1131.1</ele>
        <time>2021-09-12T14:56:50Z</time>
      </trkpt>
      <trkpt lat="43.89235" lon="6.50197">
        <ele>1131.5</ele>
        <time>2021-09-12T14:56:53Z</time>
      </trkpt>
      <trkpt lat="43.89231" lon="6.50194">
        <ele>1131.8</ele>
        <time>2021-09-12T14:56:56Z</time>
      </trkpt>
      <trkpt lat="43.89228" lon="6.50192">
        <ele>1132.2</ele>
        <time>2021-09-12T14:56:58Z</time>
      </trkpt>
      <trkpt lat="43.89228" lon="6.50189">
        <ele>1132.3</ele>
        <time>2021-09-12T14:57:00Z</time>
      </trkpt>
      <trkpt lat="43.89227" lon="6.50188">
        <ele>1132.4</ele>
        <time>2021-09-12T14:57:01Z</time>
      </trkpt>
      <trkpt lat="43.89223" lon="6.50186">
        <ele>1132.8</ele>
        <time>2021-09-12T14:57:04Z</time>
      </trkpt>
      <trkpt lat="43.8922" lon="6.50186">
        <ele>1133.1</ele>
        <time>2021-09-12T14:57:06Z</time>
      </trkpt>
      <trkpt lat="43.89217" lon="6.50185">
        <ele>1133.2</ele>
        <time>2021-09-12T14:57:09Z</time>
      </trkpt>
      <trkpt lat="43.89215" lon="6.50185">
        <ele>1133.3</ele>
        <time>2021-09-12T14:57:10Z</time>
      </trkpt>
      <trkpt lat="43.89209" lon="6.50184">
        <ele>1133.5</ele>
        <time>2021-09-12T14:57:14Z</time>
      </trkpt>
      <trkpt lat="43.89205" lon="6.50183">
        <ele>1133.6</ele>
        <time>2021-09-12T14:57:16Z</time>
      </trkpt>
      <trkpt lat="43.89201" lon="6.50183">
        <ele>1133.7</ele>
        <time>2021-09-12T14:57:19Z</time>
      </trkpt>
      <trkpt lat="43.89198" lon="6.50182">
        <ele>1133.7</ele>
        <time>2021-09-12T14:57:21Z</time>
      </trkpt>
      <trkpt lat="43.89194" lon="6.50184">
        <ele>1133.6</ele>
        <time>2021-09-12T14:57:22Z</time>
      </trkpt>
      <trkpt lat="43.8919" lon="6.50192">
        <ele>1133</ele>
        <time>2021-09-12T14:57:25Z</time>
      </trkpt>
      <trkpt lat="43.89185" lon="6.50198">
        <ele>1132.2</ele>
        <time>2021-09-12T14:57:28Z</time>
      </trkpt>
      <trkpt lat="43.8918" lon="6.50201">
        <ele>1131.2</ele>
        <time>2021-09-12T14:57:29Z</time>
      </trkpt>
      <trkpt lat="43.89173" lon="6.50202">
        <ele>1129.9</ele>
        <time>2021-09-12T14:57:31Z</time>
      </trkpt>
      <trkpt lat="43.89168" lon="6.502">
        <ele>1128.9</ele>
        <time>2021-09-12T14:57:32Z</time>
      </trkpt>
      <trkpt lat="43.89163" lon="6.50198">
        <ele>1127.8</ele>
        <time>2021-09-12T14:57:33Z</time>
      </trkpt>
      <trkpt lat="43.89157" lon="6.50194">
        <ele>1126.5</ele>
        <time>2021-09-12T14:57:34Z</time>
      </trkpt>
      <trkpt lat="43.89154" lon="6.50191">
        <ele>1125.8</ele>
        <time>2021-09-12T14:57:35Z</time>
      </trkpt>
      <trkpt lat="43.89149" lon="6.50188">
        <ele>1124.8</ele>
        <time>2021-09-12T14:57:36Z</time>
      </trkpt>
      <trkpt lat="43.89139" lon="6.5018">
        <ele>1123.5</ele>
        <time>2021-09-12T14:57:37Z</time>
      </trkpt>
      <trkpt lat="43.89132" lon="6.50177">
        <ele>1123.1</ele>
        <time>2021-09-12T14:57:38Z</time>
      </trkpt>
      <trkpt lat="43.89126" lon="6.50174">
        <ele>1123.1</ele>
        <time>2021-09-12T14:57:39Z</time>
      </trkpt>
      <trkpt lat="43.8912" lon="6.50173">
        <ele>1123.2</ele>
        <time>2021-09-12T14:57:40Z</time>
      </trkpt>
      <trkpt lat="43.89114" lon="6.50173">
        <ele>1123.2</ele>
        <time>2021-09-12T14:57:41Z</time>
      </trkpt>
      <trkpt lat="43.89107" lon="6.50173">
        <ele>1123.2</ele>
        <time>2021-09-12T14:57:42Z</time>
      </trkpt>
      <trkpt lat="43.891" lon="6.50171">
        <ele>1123.2</ele>
        <time>2021-09-12T14:57:43Z</time>
      </trkpt>
      <trkpt lat="43.89096" lon="6.50169">
        <ele>1123.3</ele>
        <time>2021-09-12T14:57:44Z</time>
      </trkpt>
      <trkpt lat="43.89091" lon="6.50168">
        <ele>1123.2</ele>
        <time>2021-09-12T14:57:45Z</time>
      </trkpt>
      <trkpt lat="43.89085" lon="6.50168">
        <ele>1123.1</ele>
        <time>2021-09-12T14:57:46Z</time>
      </trkpt>
      <trkpt lat="43.89081" lon="6.50168">
        <ele>1123</ele>
        <time>2021-09-12T14:57:47Z</time>
      </trkpt>
      <trkpt lat="43.89078" lon="6.50167">
        <ele>1122.9</ele>
        <time>2021-09-12T14:57:48Z</time>
      </trkpt>
      <trkpt lat="43.89072" lon="6.50165">
        <ele>1122.6</ele>
        <time>2021-09-12T14:57:49Z</time>
      </trkpt>
      <trkpt lat="43.89065" lon="6.50163">
        <ele>1122.1</ele>
        <time>2021-09-12T14:57:51Z</time>
      </trkpt>
      <trkpt lat="43.89058" lon="6.50161">
        <ele>1121.3</ele>
        <time>2021-09-12T14:57:52Z</time>
      </trkpt>
      <trkpt lat="43.89054" lon="6.50159">
        <ele>1120.7</ele>
        <time>2021-09-12T14:57:53Z</time>
      </trkpt>
      <trkpt lat="43.89051" lon="6.50156">
        <ele>1120.2</ele>
        <time>2021-09-12T14:57:54Z</time>
      </trkpt>
      <trkpt lat="43.89041" lon="6.50154">
        <ele>1118.7</ele>
        <time>2021-09-12T14:57:55Z</time>
      </trkpt>
      <trkpt lat="43.89037" lon="6.50152">
        <ele>1117.8</ele>
        <time>2021-09-12T14:57:56Z</time>
      </trkpt>
      <trkpt lat="43.89028" lon="6.50154">
        <ele>1116</ele>
        <time>2021-09-12T14:57:57Z</time>
      </trkpt>
      <trkpt lat="43.89019" lon="6.50158">
        <ele>1113.9</ele>
        <time>2021-09-12T14:57:58Z</time>
      </trkpt>
      <trkpt lat="43.89013" lon="6.50161">
        <ele>1112.1</ele>
        <time>2021-09-12T14:57:59Z</time>
      </trkpt>
      <trkpt lat="43.89007" lon="6.50164">
        <ele>1110.5</ele>
        <time>2021-09-12T14:58:00Z</time>
      </trkpt>
      <trkpt lat="43.88998" lon="6.50169">
        <ele>1108</ele>
        <time>2021-09-12T14:58:01Z</time>
      </trkpt>
      <trkpt lat="43.88995" lon="6.50171">
        <ele>1107</ele>
        <time>2021-09-12T14:58:02Z</time>
      </trkpt>
      <trkpt lat="43.88989" lon="6.50176">
        <ele>1105.3</ele>
        <time>2021-09-12T14:58:03Z</time>
      </trkpt>
      <trkpt lat="43.88982" lon="6.50181">
        <ele>1103.4</ele>
        <time>2021-09-12T14:58:04Z</time>
      </trkpt>
      <trkpt lat="43.88977" lon="6.50186">
        <ele>1102</ele>
        <time>2021-09-12T14:58:05Z</time>
      </trkpt>
      <trkpt lat="43.88966" lon="6.50198">
        <ele>1099.1</ele>
        <time>2021-09-12T14:58:06Z</time>
      </trkpt>
      <trkpt lat="43.88961" lon="6.50206">
        <ele>1097.8</ele>
        <time>2021-09-12T14:58:07Z</time>
      </trkpt>
      <trkpt lat="43.88948" lon="6.50218">
        <ele>1095.6</ele>
        <time>2021-09-12T14:58:09Z</time>
      </trkpt>
      <trkpt lat="43.88943" lon="6.5022">
        <ele>1095</ele>
        <time>2021-09-12T14:58:10Z</time>
      </trkpt>
      <trkpt lat="43.88935" lon="6.50224">
        <ele>1094.4</ele>
        <time>2021-09-12T14:58:11Z</time>
      </trkpt>
      <trkpt lat="43.88927" lon="6.50228">
        <ele>1093.9</ele>
        <time>2021-09-12T14:58:12Z</time>
      </trkpt>
      <trkpt lat="43.88925" lon="6.50229">
        <ele>1093.8</ele>
        <time>2021-09-12T14:58:13Z</time>
      </trkpt>
      <trkpt lat="43.88913" lon="6.50229">
        <ele>1093.3</ele>
        <time>2021-09-12T14:58:14Z</time>
      </trkpt>
      <trkpt lat="43.88908" lon="6.50229">
        <ele>1092.9</ele>
        <time>2021-09-12T14:58:15Z</time>
      </trkpt>
      <trkpt lat="43.88901" lon="6.50227">
        <ele>1092.2</ele>
        <time>2021-09-12T14:58:17Z</time>
      </trkpt>
      <trkpt lat="43.88886" lon="6.50224">
        <ele>1090.8</ele>
        <time>2021-09-12T14:58:19Z</time>
      </trkpt>
      <trkpt lat="43.88876" lon="6.50222">
        <ele>1089.9</ele>
        <time>2021-09-12T14:58:20Z</time>
      </trkpt>
      <trkpt lat="43.88873" lon="6.50221">
        <ele>1089.7</ele>
        <time>2021-09-12T14:58:21Z</time>
      </trkpt>
      <trkpt lat="43.88865" lon="6.50215">
        <ele>1088.7</ele>
        <time>2021-09-12T14:58:22Z</time>
      </trkpt>
      <trkpt lat="43.88861" lon="6.50208">
        <ele>1088.1</ele>
        <time>2021-09-12T14:58:23Z</time>
      </trkpt>
      <trkpt lat="43.88851" lon="6.50194">
        <ele>1086.6</ele>
        <time>2021-09-12T14:58:25Z</time>
      </trkpt>
      <trkpt lat="43.88848" lon="6.50186">
        <ele>1086</ele>
        <time>2021-09-12T14:58:26Z</time>
      </trkpt>
      <trkpt lat="43.88845" lon="6.50181">
        <ele>1085.6</ele>
        <time>2021-09-12T14:58:27Z</time>
      </trkpt>
      <trkpt lat="43.88837" lon="6.50176">
        <ele>1085.2</ele>
        <time>2021-09-12T14:58:28Z</time>
      </trkpt>
      <trkpt lat="43.88832" lon="6.50176">
        <ele>1085</ele>
        <time>2021-09-12T14:58:29Z</time>
      </trkpt>
      <trkpt lat="43.8884" lon="6.50178">
        <ele>1084.6</ele>
        <time>2021-09-12T14:58:30Z</time>
      </trkpt>
      <trkpt lat="43.88838" lon="6.50182">
        <ele>1084.4</ele>
        <time>2021-09-12T14:58:31Z</time>
      </trkpt>
      <trkpt lat="43.88836" lon="6.50186">
        <ele>1084.3</ele>
        <time>2021-09-12T14:58:32Z</time>
      </trkpt>
      <trkpt lat="43.8883" lon="6.50195">
        <ele>1083.9</ele>
        <time>2021-09-12T14:58:33Z</time>
      </trkpt>
      <trkpt lat="43.88824" lon="6.502">
        <ele>1083.7</ele>
        <time>2021-09-12T14:58:35Z</time>
      </trkpt>
      <trkpt lat="43.88819" lon="6.50205">
        <ele>1083.6</ele>
        <time>2021-09-12T14:58:36Z</time>
      </trkpt>
      <trkpt lat="43.88811" lon="6.50208">
        <ele>1083.5</ele>
        <time>2021-09-12T14:58:37Z</time>
      </trkpt>
      <trkpt lat="43.88801" lon="6.50213">
        <ele>1083.5</ele>
        <time>2021-09-12T14:58:39Z</time>
      </trkpt>
      <trkpt lat="43.88794" lon="6.50215">
        <ele>1083.6</ele>
        <time>2021-09-12T14:58:41Z</time>
      </trkpt>
      <trkpt lat="43.88785" lon="6.50217">
        <ele>1083.9</ele>
        <time>2021-09-12T14:58:42Z</time>
      </trkpt>
      <trkpt lat="43.88774" lon="6.50219">
        <ele>1084.4</ele>
        <time>2021-09-12T14:58:45Z</time>
      </trkpt>
      <trkpt lat="43.8877" lon="6.50217">
        <ele>1084.6</ele>
        <time>2021-09-12T14:58:46Z</time>
      </trkpt>
      <trkpt lat="43.88763" lon="6.50216">
        <ele>1084.9</ele>
        <time>2021-09-12T14:58:47Z</time>
      </trkpt>
      <trkpt lat="43.88755" lon="6.50214">
        <ele>1085</ele>
        <time>2021-09-12T14:58:49Z</time>
      </trkpt>
      <trkpt lat="43.88742" lon="6.50205">
        <ele>1084.6</ele>
        <time>2021-09-12T14:58:53Z</time>
      </trkpt>
      <trkpt lat="43.88732" lon="6.50197">
        <ele>1083.7</ele>
        <time>2021-09-12T14:58:56Z</time>
      </trkpt>
      <trkpt lat="43.88729" lon="6.50195">
        <ele>1083.4</ele>
        <time>2021-09-12T14:58:57Z</time>
      </trkpt>
      <trkpt lat="43.88729" lon="6.502">
        <ele>1083.1</ele>
        <time>2021-09-12T14:58:58Z</time>
      </trkpt>
      <trkpt lat="43.88727" lon="6.50197">
        <ele>1082.8</ele>
        <time>2021-09-12T14:58:59Z</time>
      </trkpt>
      <trkpt lat="43.8872" lon="6.50193">
        <ele>1082.1</ele>
        <time>2021-09-12T14:59:00Z</time>
      </trkpt>
      <trkpt lat="43.88717" lon="6.5019">
        <ele>1081.7</ele>
        <time>2021-09-12T14:59:01Z</time>
      </trkpt>
      <trkpt lat="43.8871" lon="6.50191">
        <ele>1080.9</ele>
        <time>2021-09-12T14:59:02Z</time>
      </trkpt>
      <trkpt lat="43.88704" lon="6.50193">
        <ele>1080.4</ele>
        <time>2021-09-12T14:59:03Z</time>
      </trkpt>
      <trkpt lat="43.88699" lon="6.50193">
        <ele>1079.9</ele>
        <time>2021-09-12T14:59:04Z</time>
      </trkpt>
      <trkpt lat="43.88691" lon="6.50192">
        <ele>1079</ele>
        <time>2021-09-12T14:59:05Z</time>
      </trkpt>
      <trkpt lat="43.88687" lon="6.50193">
        <ele>1079</ele>
        <time>2021-09-12T14:59:06Z</time>
      </trkpt>
      <trkpt lat="43.88682" lon="6.50195">
        <ele>1078.7</ele>
        <time>2021-09-12T14:59:07Z</time>
      </trkpt>
      <trkpt lat="43.88669" lon="6.502">
        <ele>1078</ele>
        <time>2021-09-12T14:59:08Z</time>
      </trkpt>
      <trkpt lat="43.88661" lon="6.50204">
        <ele>1077.7</ele>
        <time>2021-09-12T14:59:10Z</time>
      </trkpt>
      <trkpt lat="43.88654" lon="6.50209">
        <ele>1077.3</ele>
        <time>2021-09-12T14:59:11Z</time>
      </trkpt>
      <trkpt lat="43.88647" lon="6.50213">
        <ele>1077.1</ele>
        <time>2021-09-12T14:59:12Z</time>
      </trkpt>
      <trkpt lat="43.88644" lon="6.50218">
        <ele>1076.9</ele>
        <time>2021-09-12T14:59:13Z</time>
      </trkpt>
      <trkpt lat="43.8864" lon="6.50223">
        <ele>1076.6</ele>
        <time>2021-09-12T14:59:14Z</time>
      </trkpt>
      <trkpt lat="43.88634" lon="6.50228">
        <ele>1076.4</ele>
        <time>2021-09-12T14:59:15Z</time>
      </trkpt>
      <trkpt lat="43.88627" lon="6.50231">
        <ele>1076.2</ele>
        <time>2021-09-12T14:59:16Z</time>
      </trkpt>
      <trkpt lat="43.88621" lon="6.50232">
        <ele>1076.1</ele>
        <time>2021-09-12T14:59:17Z</time>
      </trkpt>
      <trkpt lat="43.8861" lon="6.50236">
        <ele>1075.8</ele>
        <time>2021-09-12T14:59:19Z</time>
      </trkpt>
      <trkpt lat="43.88605" lon="6.50238">
        <ele>1075.7</ele>
        <time>2021-09-12T14:59:20Z</time>
      </trkpt>
      <trkpt lat="43.88599" lon="6.50239">
        <ele>1075.5</ele>
        <time>2021-09-12T14:59:21Z</time>
      </trkpt>
      <trkpt lat="43.88594" lon="6.50242">
        <ele>1075.3</ele>
        <time>2021-09-12T14:59:22Z</time>
      </trkpt>
      <trkpt lat="43.88586" lon="6.50249">
        <ele>1074.9</ele>
        <time>2021-09-12T14:59:24Z</time>
      </trkpt>
      <trkpt lat="43.88579" lon="6.50255">
        <ele>1074.6</ele>
        <time>2021-09-12T14:59:26Z</time>
      </trkpt>
      <trkpt lat="43.88575" lon="6.50262">
        <ele>1074.2</ele>
        <time>2021-09-12T14:59:27Z</time>
      </trkpt>
      <trkpt lat="43.8857" lon="6.50266">
        <ele>1073.8</ele>
        <time>2021-09-12T14:59:28Z</time>
      </trkpt>
      <trkpt lat="43.88565" lon="6.5027">
        <ele>1073.6</ele>
        <time>2021-09-12T14:59:29Z</time>
      </trkpt>
      <trkpt lat="43.88557" lon="6.50278">
        <ele>1073.2</ele>
        <time>2021-09-12T14:59:31Z</time>
      </trkpt>
      <trkpt lat="43.88552" lon="6.50282">
        <ele>1073.1</ele>
        <time>2021-09-12T14:59:32Z</time>
      </trkpt>
      <trkpt lat="43.88546" lon="6.50287">
        <ele>1073.1</ele>
        <time>2021-09-12T14:59:33Z</time>
      </trkpt>
      <trkpt lat="43.88542" lon="6.50292">
        <ele>1073.1</ele>
        <time>2021-09-12T14:59:34Z</time>
      </trkpt>
      <trkpt lat="43.88536" lon="6.50297">
        <ele>1073.1</ele>
        <time>2021-09-12T14:59:35Z</time>
      </trkpt>
      <trkpt lat="43.88533" lon="6.50303">
        <ele>1073.1</ele>
        <time>2021-09-12T14:59:37Z</time>
      </trkpt>
      <trkpt lat="43.88528" lon="6.5031">
        <ele>1073</ele>
        <time>2021-09-12T14:59:38Z</time>
      </trkpt>
      <trkpt lat="43.88524" lon="6.50314">
        <ele>1072.9</ele>
        <time>2021-09-12T14:59:39Z</time>
      </trkpt>
      <trkpt lat="43.8852" lon="6.50317">
        <ele>1072.7</ele>
        <time>2021-09-12T14:59:40Z</time>
      </trkpt>
      <trkpt lat="43.88516" lon="6.50323">
        <ele>1072.5</ele>
        <time>2021-09-12T14:59:41Z</time>
      </trkpt>
      <trkpt lat="43.88515" lon="6.50327">
        <ele>1072.4</ele>
        <time>2021-09-12T14:59:42Z</time>
      </trkpt>
      <trkpt lat="43.88512" lon="6.50333">
        <ele>1072.2</ele>
        <time>2021-09-12T14:59:43Z</time>
      </trkpt>
      <trkpt lat="43.8851" lon="6.50341">
        <ele>1071.8</ele>
        <time>2021-09-12T14:59:44Z</time>
      </trkpt>
      <trkpt lat="43.88507" lon="6.50345">
        <ele>1071.6</ele>
        <time>2021-09-12T14:59:45Z</time>
      </trkpt>
      <trkpt lat="43.88503" lon="6.50351">
        <ele>1071.2</ele>
        <time>2021-09-12T14:59:46Z</time>
      </trkpt>
      <trkpt lat="43.8849" lon="6.50366">
        <ele>1070.3</ele>
        <time>2021-09-12T14:59:49Z</time>
      </trkpt>
      <trkpt lat="43.88477" lon="6.5038">
        <ele>1069.6</ele>
        <time>2021-09-12T14:59:52Z</time>
      </trkpt>
      <trkpt lat="43.88466" lon="6.5039">
        <ele>1069.1</ele>
        <time>2021-09-12T14:59:55Z</time>
      </trkpt>
      <trkpt lat="43.88457" lon="6.50401">
        <ele>1068.6</ele>
        <time>2021-09-12T14:59:57Z</time>
      </trkpt>
      <trkpt lat="43.88447" lon="6.50413">
        <ele>1068.2</ele>
        <time>2021-09-12T14:59:59Z</time>
      </trkpt>
      <trkpt lat="43.88442" lon="6.50418">
        <ele>1068</ele>
        <time>2021-09-12T15:00:00Z</time>
      </trkpt>
      <trkpt lat="43.88434" lon="6.5043">
        <ele>1067.8</ele>
        <time>2021-09-12T15:00:02Z</time>
      </trkpt>
      <trkpt lat="43.88429" lon="6.50436">
        <ele>1067.7</ele>
        <time>2021-09-12T15:00:03Z</time>
      </trkpt>
      <trkpt lat="43.88425" lon="6.50449">
        <ele>1067.6</ele>
        <time>2021-09-12T15:00:05Z</time>
      </trkpt>
      <trkpt lat="43.88423" lon="6.50455">
        <ele>1067.7</ele>
        <time>2021-09-12T15:00:06Z</time>
      </trkpt>
      <trkpt lat="43.88418" lon="6.50467">
        <ele>1067.9</ele>
        <time>2021-09-12T15:00:08Z</time>
      </trkpt>
      <trkpt lat="43.88414" lon="6.50475">
        <ele>1068.2</ele>
        <time>2021-09-12T15:00:09Z</time>
      </trkpt>
      <trkpt lat="43.88412" lon="6.50478">
        <ele>1068.4</ele>
        <time>2021-09-12T15:00:10Z</time>
      </trkpt>
      <trkpt lat="43.8841" lon="6.5048">
        <ele>1068.5</ele>
        <time>2021-09-12T15:00:11Z</time>
      </trkpt>
      <trkpt lat="43.88403" lon="6.50486">
        <ele>1068.8</ele>
        <time>2021-09-12T15:00:13Z</time>
      </trkpt>
      <trkpt lat="43.88399" lon="6.5049">
        <ele>1069</ele>
        <time>2021-09-12T15:00:14Z</time>
      </trkpt>
      <trkpt lat="43.88397" lon="6.50492">
        <ele>1069.1</ele>
        <time>2021-09-12T15:00:15Z</time>
      </trkpt>
      <trkpt lat="43.88393" lon="6.50502">
        <ele>1069.3</ele>
        <time>2021-09-12T15:00:18Z</time>
      </trkpt>
      <trkpt lat="43.88391" lon="6.50506">
        <ele>1069.4</ele>
        <time>2021-09-12T15:00:19Z</time>
      </trkpt>
      <trkpt lat="43.88389" lon="6.5051">
        <ele>1069.4</ele>
        <time>2021-09-12T15:00:21Z</time>
      </trkpt>
      <trkpt lat="43.88387" lon="6.50514">
        <ele>1069.5</ele>
        <time>2021-09-12T15:00:22Z</time>
      </trkpt>
      <trkpt lat="43.88384" lon="6.50521">
        <ele>1069.4</ele>
        <time>2021-09-12T15:00:24Z</time>
      </trkpt>
      <trkpt lat="43.88381" lon="6.50528">
        <ele>1069.4</ele>
        <time>2021-09-12T15:00:26Z</time>
      </trkpt>
      <trkpt lat="43.88377" lon="6.50536">
        <ele>1069.3</ele>
        <time>2021-09-12T15:00:28Z</time>
      </trkpt>
      <trkpt lat="43.88374" lon="6.50543">
        <ele>1069.2</ele>
        <time>2021-09-12T15:00:30Z</time>
      </trkpt>
      <trkpt lat="43.88373" lon="6.50547">
        <ele>1069.1</ele>
        <time>2021-09-12T15:00:31Z</time>
      </trkpt>
      <trkpt lat="43.8837" lon="6.50553">
        <ele>1069.1</ele>
        <time>2021-09-12T15:00:33Z</time>
      </trkpt>
      <trkpt lat="43.88366" lon="6.50562">
        <ele>1068.9</ele>
        <time>2021-09-12T15:00:35Z</time>
      </trkpt>
      <trkpt lat="43.88363" lon="6.50568">
        <ele>1068.9</ele>
        <time>2021-09-12T15:00:36Z</time>
      </trkpt>
      <trkpt lat="43.8836" lon="6.50572">
        <ele>1068.8</ele>
        <time>2021-09-12T15:00:37Z</time>
      </trkpt>
      <trkpt lat="43.88358" lon="6.50577">
        <ele>1068.8</ele>
        <time>2021-09-12T15:00:38Z</time>
      </trkpt>
      <trkpt lat="43.88352" lon="6.50586">
        <ele>1068.8</ele>
        <time>2021-09-12T15:00:40Z</time>
      </trkpt>
      <trkpt lat="43.88349" lon="6.50592">
        <ele>1068.8</ele>
        <time>2021-09-12T15:00:42Z</time>
      </trkpt>
      <trkpt lat="43.88344" lon="6.50596">
        <ele>1068.9</ele>
        <time>2021-09-12T15:00:43Z</time>
      </trkpt>
      <trkpt lat="43.8834" lon="6.50598">
        <ele>1068.9</ele>
        <time>2021-09-12T15:00:44Z</time>
      </trkpt>
      <trkpt lat="43.88332" lon="6.50602">
        <ele>1069.1</ele>
        <time>2021-09-12T15:00:47Z</time>
      </trkpt>
      <trkpt lat="43.88327" lon="6.50605">
        <ele>1069.2</ele>
        <time>2021-09-12T15:00:48Z</time>
      </trkpt>
      <trkpt lat="43.88325" lon="6.50609">
        <ele>1069.3</ele>
        <time>2021-09-12T15:00:49Z</time>
      </trkpt>
      <trkpt lat="43.88324" lon="6.50613">
        <ele>1069.4</ele>
        <time>2021-09-12T15:00:50Z</time>
      </trkpt>
      <trkpt lat="43.88319" lon="6.5062">
        <ele>1069.6</ele>
        <time>2021-09-12T15:00:52Z</time>
      </trkpt>
      <trkpt lat="43.88315" lon="6.50626">
        <ele>1069.8</ele>
        <time>2021-09-12T15:00:53Z</time>
      </trkpt>
      <trkpt lat="43.88312" lon="6.50628">
        <ele>1069.9</ele>
        <time>2021-09-12T15:00:54Z</time>
      </trkpt>
      <trkpt lat="43.8831" lon="6.50631">
        <ele>1070.1</ele>
        <time>2021-09-12T15:00:55Z</time>
      </trkpt>
      <trkpt lat="43.88309" lon="6.50633">
        <ele>1070.1</ele>
        <time>2021-09-12T15:00:56Z</time>
      </trkpt>
      <trkpt lat="43.88308" lon="6.50634">
        <ele>1070.2</ele>
        <time>2021-09-12T15:00:57Z</time>
      </trkpt>
      <trkpt lat="43.88307" lon="6.50638">
        <ele>1070.3</ele>
        <time>2021-09-12T15:00:58Z</time>
      </trkpt>
      <trkpt lat="43.88305" lon="6.50643">
        <ele>1070.5</ele>
        <time>2021-09-12T15:00:59Z</time>
      </trkpt>
      <trkpt lat="43.88303" lon="6.50646">
        <ele>1070.5</ele>
        <time>2021-09-12T15:01:00Z</time>
      </trkpt>
      <trkpt lat="43.88302" lon="6.50649">
        <ele>1070.6</ele>
        <time>2021-09-12T15:01:01Z</time>
      </trkpt>
      <trkpt lat="43.883" lon="6.50653">
        <ele>1070.8</ele>
        <time>2021-09-12T15:01:03Z</time>
      </trkpt>
      <trkpt lat="43.88297" lon="6.50656">
        <ele>1070.8</ele>
        <time>2021-09-12T15:01:04Z</time>
      </trkpt>
      <trkpt lat="43.88295" lon="6.50659">
        <ele>1071</ele>
        <time>2021-09-12T15:01:05Z</time>
      </trkpt>
      <trkpt lat="43.88292" lon="6.50664">
        <ele>1071.1</ele>
        <time>2021-09-12T15:01:07Z</time>
      </trkpt>
      <trkpt lat="43.8829" lon="6.50668">
        <ele>1071.2</ele>
        <time>2021-09-12T15:01:08Z</time>
      </trkpt>
      <trkpt lat="43.88289" lon="6.50673">
        <ele>1071.2</ele>
        <time>2021-09-12T15:01:09Z</time>
      </trkpt>
      <trkpt lat="43.88287" lon="6.50676">
        <ele>1071.2</ele>
        <time>2021-09-12T15:01:10Z</time>
      </trkpt>
      <trkpt lat="43.88282" lon="6.5068">
        <ele>1071.1</ele>
        <time>2021-09-12T15:01:12Z</time>
      </trkpt>
      <trkpt lat="43.88279" lon="6.50681">
        <ele>1071.1</ele>
        <time>2021-09-12T15:01:13Z</time>
      </trkpt>
      <trkpt lat="43.88276" lon="6.50681">
        <ele>1071.3</ele>
        <time>2021-09-12T15:01:14Z</time>
      </trkpt>
      <trkpt lat="43.88273" lon="6.50678">
        <ele>1071.4</ele>
        <time>2021-09-12T15:01:15Z</time>
      </trkpt>
      <trkpt lat="43.8827" lon="6.50676">
        <ele>1071.5</ele>
        <time>2021-09-12T15:01:16Z</time>
      </trkpt>
      <trkpt lat="43.88268" lon="6.50672">
        <ele>1071.6</ele>
        <time>2021-09-12T15:01:17Z</time>
      </trkpt>
      <trkpt lat="43.88263" lon="6.5067">
        <ele>1071.5</ele>
        <time>2021-09-12T15:01:18Z</time>
      </trkpt>
      <trkpt lat="43.8826" lon="6.5067">
        <ele>1071.4</ele>
        <time>2021-09-12T15:01:19Z</time>
      </trkpt>
      <trkpt lat="43.88256" lon="6.50669">
        <ele>1071.3</ele>
        <time>2021-09-12T15:01:20Z</time>
      </trkpt>
      <trkpt lat="43.88252" lon="6.50666">
        <ele>1068.9</ele>
        <time>2021-09-12T15:01:21Z</time>
      </trkpt>
      <trkpt lat="43.88249" lon="6.50664">
        <ele>1068.2</ele>
        <time>2021-09-12T15:01:22Z</time>
      </trkpt>
      <trkpt lat="43.88248" lon="6.50662">
        <ele>1067.8</ele>
        <time>2021-09-12T15:01:23Z</time>
      </trkpt>
      <trkpt lat="43.88243" lon="6.5065">
        <ele>1065.9</ele>
        <time>2021-09-12T15:01:24Z</time>
      </trkpt>
      <trkpt lat="43.88241" lon="6.50639">
        <ele>1064.3</ele>
        <time>2021-09-12T15:01:25Z</time>
      </trkpt>
      <trkpt lat="43.88238" lon="6.50631">
        <ele>1063</ele>
        <time>2021-09-12T15:01:26Z</time>
      </trkpt>
      <trkpt lat="43.88234" lon="6.50622">
        <ele>1061.5</ele>
        <time>2021-09-12T15:01:27Z</time>
      </trkpt>
      <trkpt lat="43.88231" lon="6.50613">
        <ele>1060</ele>
        <time>2021-09-12T15:01:28Z</time>
      </trkpt>
      <trkpt lat="43.88225" lon="6.50606">
        <ele>1058.5</ele>
        <time>2021-09-12T15:01:29Z</time>
      </trkpt>
      <trkpt lat="43.88221" lon="6.50597">
        <ele>1057</ele>
        <time>2021-09-12T15:01:30Z</time>
      </trkpt>
      <trkpt lat="43.88215" lon="6.50587">
        <ele>1055.1</ele>
        <time>2021-09-12T15:01:31Z</time>
      </trkpt>
      <trkpt lat="43.8821" lon="6.50579">
        <ele>1053.6</ele>
        <time>2021-09-12T15:01:32Z</time>
      </trkpt>
      <trkpt lat="43.88205" lon="6.5057">
        <ele>1052</ele>
        <time>2021-09-12T15:01:33Z</time>
      </trkpt>
      <trkpt lat="43.88202" lon="6.50562">
        <ele>1050.8</ele>
        <time>2021-09-12T15:01:34Z</time>
      </trkpt>
      <trkpt lat="43.88197" lon="6.50553">
        <ele>1049.1</ele>
        <time>2021-09-12T15:01:35Z</time>
      </trkpt>
      <trkpt lat="43.88194" lon="6.50544">
        <ele>1047.4</ele>
        <time>2021-09-12T15:01:36Z</time>
      </trkpt>
      <trkpt lat="43.88186" lon="6.50544">
        <ele>1045.4</ele>
        <time>2021-09-12T15:01:37Z</time>
      </trkpt>
      <trkpt lat="43.88183" lon="6.5055">
        <ele>1044.1</ele>
        <time>2021-09-12T15:01:38Z</time>
      </trkpt>
      <trkpt lat="43.88182" lon="6.50557">
        <ele>1043.1</ele>
        <time>2021-09-12T15:01:39Z</time>
      </trkpt>
      <trkpt lat="43.88183" lon="6.50572">
        <ele>1041</ele>
        <time>2021-09-12T15:01:40Z</time>
      </trkpt>
      <trkpt lat="43.88183" lon="6.50581">
        <ele>1039.6</ele>
        <time>2021-09-12T15:01:41Z</time>
      </trkpt>
      <trkpt lat="43.88185" lon="6.50592">
        <ele>1037.5</ele>
        <time>2021-09-12T15:01:42Z</time>
      </trkpt>
      <trkpt lat="43.88188" lon="6.50601">
        <ele>1035.5</ele>
        <time>2021-09-12T15:01:43Z</time>
      </trkpt>
      <trkpt lat="43.88191" lon="6.50612">
        <ele>1033.4</ele>
        <time>2021-09-12T15:01:44Z</time>
      </trkpt>
      <trkpt lat="43.88184" lon="6.50613">
        <ele>1032.1</ele>
        <time>2021-09-12T15:01:45Z</time>
      </trkpt>
      <trkpt lat="43.88179" lon="6.50605">
        <ele>1030.7</ele>
        <time>2021-09-12T15:01:46Z</time>
      </trkpt>
      <trkpt lat="43.88178" lon="6.50602">
        <ele>1030.2</ele>
        <time>2021-09-12T15:01:47Z</time>
      </trkpt>
      <trkpt lat="43.88174" lon="6.50593">
        <ele>1029.1</ele>
        <time>2021-09-12T15:01:48Z</time>
      </trkpt>
      <trkpt lat="43.88172" lon="6.50573">
        <ele>1027.5</ele>
        <time>2021-09-12T15:01:49Z</time>
      </trkpt>
      <trkpt lat="43.88172" lon="6.50563">
        <ele>1026.7</ele>
        <time>2021-09-12T15:01:50Z</time>
      </trkpt>
      <trkpt lat="43.88171" lon="6.50553">
        <ele>1026</ele>
        <time>2021-09-12T15:01:51Z</time>
      </trkpt>
      <trkpt lat="43.88169" lon="6.50548">
        <ele>1025.5</ele>
        <time>2021-09-12T15:01:52Z</time>
      </trkpt>
      <trkpt lat="43.88162" lon="6.50537">
        <ele>1024</ele>
        <time>2021-09-12T15:01:53Z</time>
      </trkpt>
      <trkpt lat="43.88158" lon="6.50533">
        <ele>1023.2</ele>
        <time>2021-09-12T15:01:54Z</time>
      </trkpt>
      <trkpt lat="43.88152" lon="6.50524">
        <ele>1021.5</ele>
        <time>2021-09-12T15:01:55Z</time>
      </trkpt>
      <trkpt lat="43.88146" lon="6.5052">
        <ele>1020.1</ele>
        <time>2021-09-12T15:01:56Z</time>
      </trkpt>
      <trkpt lat="43.88138" lon="6.50516">
        <ele>1018.4</ele>
        <time>2021-09-12T15:01:57Z</time>
      </trkpt>
      <trkpt lat="43.8813" lon="6.5051">
        <ele>1016</ele>
        <time>2021-09-12T15:01:58Z</time>
      </trkpt>
      <trkpt lat="43.88125" lon="6.50508">
        <ele>1014.6</ele>
        <time>2021-09-12T15:01:59Z</time>
      </trkpt>
      <trkpt lat="43.88116" lon="6.50503">
        <ele>1012.1</ele>
        <time>2021-09-12T15:02:00Z</time>
      </trkpt>
      <trkpt lat="43.88112" lon="6.50497">
        <ele>1010.5</ele>
        <time>2021-09-12T15:02:01Z</time>
      </trkpt>
      <trkpt lat="43.88106" lon="6.50486">
        <ele>1008</ele>
        <time>2021-09-12T15:02:02Z</time>
      </trkpt>
      <trkpt lat="43.88102" lon="6.50477">
        <ele>1006</ele>
        <time>2021-09-12T15:02:03Z</time>
      </trkpt>
      <trkpt lat="43.88101" lon="6.50467">
        <ele>1004.3</ele>
        <time>2021-09-12T15:02:04Z</time>
      </trkpt>
      <trkpt lat="43.88101" lon="6.50457">
        <ele>1002.6</ele>
        <time>2021-09-12T15:02:05Z</time>
      </trkpt>
      <trkpt lat="43.88099" lon="6.5045">
        <ele>1001.3</ele>
        <time>2021-09-12T15:02:06Z</time>
      </trkpt>
      <trkpt lat="43.88097" lon="6.50437">
        <ele>999</ele>
        <time>2021-09-12T15:02:07Z</time>
      </trkpt>
      <trkpt lat="43.88096" lon="6.5043">
        <ele>997.8</ele>
        <time>2021-09-12T15:02:08Z</time>
      </trkpt>
      <trkpt lat="43.88094" lon="6.5042">
        <ele>996</ele>
        <time>2021-09-12T15:02:09Z</time>
      </trkpt>
      <trkpt lat="43.88092" lon="6.50407">
        <ele>993.8</ele>
        <time>2021-09-12T15:02:10Z</time>
      </trkpt>
      <trkpt lat="43.8809" lon="6.50397">
        <ele>991.9</ele>
        <time>2021-09-12T15:02:11Z</time>
      </trkpt>
      <trkpt lat="43.88089" lon="6.50384">
        <ele>989.7</ele>
        <time>2021-09-12T15:02:12Z</time>
      </trkpt>
      <trkpt lat="43.88088" lon="6.50376">
        <ele>988.3</ele>
        <time>2021-09-12T15:02:13Z</time>
      </trkpt>
      <trkpt lat="43.88085" lon="6.50365">
        <ele>986.4</ele>
        <time>2021-09-12T15:02:14Z</time>
      </trkpt>
      <trkpt lat="43.88084" lon="6.50354">
        <ele>984.5</ele>
        <time>2021-09-12T15:02:15Z</time>
      </trkpt>
      <trkpt lat="43.88083" lon="6.50345">
        <ele>982.9</ele>
        <time>2021-09-12T15:02:16Z</time>
      </trkpt>
      <trkpt lat="43.88081" lon="6.50332">
        <ele>980.4</ele>
        <time>2021-09-12T15:02:17Z</time>
      </trkpt>
      <trkpt lat="43.88082" lon="6.50326">
        <ele>979</ele>
        <time>2021-09-12T15:02:18Z</time>
      </trkpt>
      <trkpt lat="43.88078" lon="6.50317">
        <ele>976.9</ele>
        <time>2021-09-12T15:02:19Z</time>
      </trkpt>
      <trkpt lat="43.88073" lon="6.50309">
        <ele>974.7</ele>
        <time>2021-09-12T15:02:20Z</time>
      </trkpt>
      <trkpt lat="43.88068" lon="6.503">
        <ele>972.7</ele>
        <time>2021-09-12T15:02:21Z</time>
      </trkpt>
      <trkpt lat="43.88067" lon="6.50286">
        <ele>970.4</ele>
        <time>2021-09-12T15:02:22Z</time>
      </trkpt>
      <trkpt lat="43.88064" lon="6.50277">
        <ele>968.4</ele>
        <time>2021-09-12T15:02:23Z</time>
      </trkpt>
      <trkpt lat="43.88059" lon="6.5027">
        <ele>966.5</ele>
        <time>2021-09-12T15:02:24Z</time>
      </trkpt>
      <trkpt lat="43.88052" lon="6.50263">
        <ele>964.2</ele>
        <time>2021-09-12T15:02:25Z</time>
      </trkpt>
      <trkpt lat="43.88045" lon="6.50263">
        <ele>962</ele>
        <time>2021-09-12T15:02:26Z</time>
      </trkpt>
      <trkpt lat="43.8804" lon="6.50261">
        <ele>960.9</ele>
        <time>2021-09-12T15:02:27Z</time>
      </trkpt>
      <trkpt lat="43.8803" lon="6.50262">
        <ele>958.1</ele>
        <time>2021-09-12T15:02:28Z</time>
      </trkpt>
      <trkpt lat="43.88025" lon="6.50263">
        <ele>956.8</ele>
        <time>2021-09-12T15:02:29Z</time>
      </trkpt>
      <trkpt lat="43.88015" lon="6.50263">
        <ele>954.4</ele>
        <time>2021-09-12T15:02:30Z</time>
      </trkpt>
      <trkpt lat="43.88007" lon="6.50261">
        <ele>952.4</ele>
        <time>2021-09-12T15:02:31Z</time>
      </trkpt>
      <trkpt lat="43.88003" lon="6.50257">
        <ele>951.4</ele>
        <time>2021-09-12T15:02:32Z</time>
      </trkpt>
      <trkpt lat="43.87999" lon="6.50247">
        <ele>950.7</ele>
        <time>2021-09-12T15:02:33Z</time>
      </trkpt>
      <trkpt lat="43.87996" lon="6.50243">
        <ele>950.3</ele>
        <time>2021-09-12T15:02:34Z</time>
      </trkpt>
      <trkpt lat="43.87988" lon="6.50269">
        <ele>948.8</ele>
        <time>2021-09-12T15:02:38Z</time>
      </trkpt>
      <trkpt lat="43.87985" lon="6.50271">
        <ele>948.5</ele>
        <time>2021-09-12T15:02:39Z</time>
      </trkpt>
      <trkpt lat="43.87954" lon="6.50272">
        <ele>946.2</ele>
        <time>2021-09-12T15:02:44Z</time>
      </trkpt>
      <trkpt lat="43.87947" lon="6.50273">
        <ele>945.7</ele>
        <time>2021-09-12T15:02:45Z</time>
      </trkpt>
      <trkpt lat="43.87925" lon="6.50285">
        <ele>943.8</ele>
        <time>2021-09-12T15:02:49Z</time>
      </trkpt>
      <trkpt lat="43.87904" lon="6.50299">
        <ele>942.5</ele>
        <time>2021-09-12T15:02:54Z</time>
      </trkpt>
      <trkpt lat="43.87894" lon="6.50306">
        <ele>941.9</ele>
        <time>2021-09-12T15:02:55Z</time>
      </trkpt>
      <trkpt lat="43.87885" lon="6.50312">
        <ele>941.4</ele>
        <time>2021-09-12T15:02:57Z</time>
      </trkpt>
      <trkpt lat="43.87875" lon="6.50318">
        <ele>940.9</ele>
        <time>2021-09-12T15:02:59Z</time>
      </trkpt>
      <trkpt lat="43.87866" lon="6.50325">
        <ele>940.3</ele>
        <time>2021-09-12T15:03:01Z</time>
      </trkpt>
      <trkpt lat="43.87851" lon="6.5034">
        <ele>939.3</ele>
        <time>2021-09-12T15:03:04Z</time>
      </trkpt>
      <trkpt lat="43.87835" lon="6.50359">
        <ele>938.1</ele>
        <time>2021-09-12T15:03:07Z</time>
      </trkpt>
      <trkpt lat="43.87827" lon="6.50369">
        <ele>937.4</ele>
        <time>2021-09-12T15:03:09Z</time>
      </trkpt>
      <trkpt lat="43.8782" lon="6.50378">
        <ele>936.8</ele>
        <time>2021-09-12T15:03:11Z</time>
      </trkpt>
      <trkpt lat="43.87806" lon="6.50397">
        <ele>935.5</ele>
        <time>2021-09-12T15:03:14Z</time>
      </trkpt>
      <trkpt lat="43.87799" lon="6.50407">
        <ele>934.9</ele>
        <time>2021-09-12T15:03:16Z</time>
      </trkpt>
      <trkpt lat="43.87794" lon="6.50418">
        <ele>934.4</ele>
        <time>2021-09-12T15:03:17Z</time>
      </trkpt>
      <trkpt lat="43.87788" lon="6.5043">
        <ele>933.7</ele>
        <time>2021-09-12T15:03:19Z</time>
      </trkpt>
      <trkpt lat="43.87782" lon="6.50441">
        <ele>933.2</ele>
        <time>2021-09-12T15:03:21Z</time>
      </trkpt>
      <trkpt lat="43.87769" lon="6.50463">
        <ele>932.3</ele>
        <time>2021-09-12T15:03:24Z</time>
      </trkpt>
      <trkpt lat="43.87756" lon="6.50483">
        <ele>931</ele>
        <time>2021-09-12T15:03:27Z</time>
      </trkpt>
      <trkpt lat="43.8775" lon="6.50493">
        <ele>930.4</ele>
        <time>2021-09-12T15:03:29Z</time>
      </trkpt>
      <trkpt lat="43.87737" lon="6.50513">
        <ele>929.4</ele>
        <time>2021-09-12T15:03:32Z</time>
      </trkpt>
      <trkpt lat="43.87731" lon="6.50522">
        <ele>929</ele>
        <time>2021-09-12T15:03:33Z</time>
      </trkpt>
      <trkpt lat="43.87726" lon="6.50531">
        <ele>928.6</ele>
        <time>2021-09-12T15:03:34Z</time>
      </trkpt>
      <trkpt lat="43.87714" lon="6.50549">
        <ele>927.8</ele>
        <time>2021-09-12T15:03:37Z</time>
      </trkpt>
      <trkpt lat="43.87701" lon="6.50569">
        <ele>926.9</ele>
        <time>2021-09-12T15:03:40Z</time>
      </trkpt>
      <trkpt lat="43.87696" lon="6.50578">
        <ele>926.5</ele>
        <time>2021-09-12T15:03:42Z</time>
      </trkpt>
      <trkpt lat="43.87685" lon="6.50596">
        <ele>925.7</ele>
        <time>2021-09-12T15:03:45Z</time>
      </trkpt>
      <trkpt lat="43.8768" lon="6.50606">
        <ele>925.3</ele>
        <time>2021-09-12T15:03:46Z</time>
      </trkpt>
      <trkpt lat="43.87676" lon="6.50615">
        <ele>924.9</ele>
        <time>2021-09-12T15:03:47Z</time>
      </trkpt>
      <trkpt lat="43.87669" lon="6.50635">
        <ele>924.1</ele>
        <time>2021-09-12T15:03:50Z</time>
      </trkpt>
      <trkpt lat="43.87666" lon="6.50644">
        <ele>923.7</ele>
        <time>2021-09-12T15:03:51Z</time>
      </trkpt>
      <trkpt lat="43.8766" lon="6.50663">
        <ele>922.9</ele>
        <time>2021-09-12T15:03:54Z</time>
      </trkpt>
      <trkpt lat="43.87655" lon="6.50684">
        <ele>922</ele>
        <time>2021-09-12T15:03:56Z</time>
      </trkpt>
      <trkpt lat="43.87653" lon="6.50696">
        <ele>921.5</ele>
        <time>2021-09-12T15:03:58Z</time>
      </trkpt>
      <trkpt lat="43.87648" lon="6.50719">
        <ele>920.5</ele>
        <time>2021-09-12T15:04:01Z</time>
      </trkpt>
      <trkpt lat="43.87645" lon="6.50731">
        <ele>920</ele>
        <time>2021-09-12T15:04:02Z</time>
      </trkpt>
      <trkpt lat="43.87641" lon="6.50743">
        <ele>919.4</ele>
        <time>2021-09-12T15:04:04Z</time>
      </trkpt>
      <trkpt lat="43.87632" lon="6.50767">
        <ele>918.4</ele>
        <time>2021-09-12T15:04:07Z</time>
      </trkpt>
      <trkpt lat="43.87623" lon="6.5079">
        <ele>917.8</ele>
        <time>2021-09-12T15:04:10Z</time>
      </trkpt>
      <trkpt lat="43.87615" lon="6.5081">
        <ele>917.3</ele>
        <time>2021-09-12T15:04:13Z</time>
      </trkpt>
      <trkpt lat="43.87604" lon="6.50828">
        <ele>917</ele>
        <time>2021-09-12T15:04:16Z</time>
      </trkpt>
      <trkpt lat="43.87592" lon="6.50843">
        <ele>916.9</ele>
        <time>2021-09-12T15:04:19Z</time>
      </trkpt>
      <trkpt lat="43.87581" lon="6.50852">
        <ele>916.8</ele>
        <time>2021-09-12T15:04:21Z</time>
      </trkpt>
      <trkpt lat="43.87572" lon="6.50853">
        <ele>916.6</ele>
        <time>2021-09-12T15:04:22Z</time>
      </trkpt>
      <trkpt lat="43.87569" lon="6.50852">
        <ele>916.5</ele>
        <time>2021-09-12T15:04:23Z</time>
      </trkpt>
      <trkpt lat="43.87562" lon="6.50849">
        <ele>916.3</ele>
        <time>2021-09-12T15:04:24Z</time>
      </trkpt>
      <trkpt lat="43.87559" lon="6.50848">
        <ele>916.2</ele>
        <time>2021-09-12T15:04:25Z</time>
      </trkpt>
      <trkpt lat="43.87551" lon="6.50842">
        <ele>915.8</ele>
        <time>2021-09-12T15:04:27Z</time>
      </trkpt>
      <trkpt lat="43.87542" lon="6.50836">
        <ele>915.3</ele>
        <time>2021-09-12T15:04:29Z</time>
      </trkpt>
      <trkpt lat="43.87537" lon="6.50834">
        <ele>915</ele>
        <time>2021-09-12T15:04:30Z</time>
      </trkpt>
      <trkpt lat="43.87531" lon="6.50832">
        <ele>914.8</ele>
        <time>2021-09-12T15:04:31Z</time>
      </trkpt>
      <trkpt lat="43.87518" lon="6.50832">
        <ele>914.2</ele>
        <time>2021-09-12T15:04:33Z</time>
      </trkpt>
      <trkpt lat="43.87512" lon="6.50835">
        <ele>913.9</ele>
        <time>2021-09-12T15:04:35Z</time>
      </trkpt>
      <trkpt lat="43.87506" lon="6.50839">
        <ele>913.6</ele>
        <time>2021-09-12T15:04:36Z</time>
      </trkpt>
      <trkpt lat="43.87502" lon="6.50846">
        <ele>913.3</ele>
        <time>2021-09-12T15:04:37Z</time>
      </trkpt>
      <trkpt lat="43.87492" lon="6.5086">
        <ele>912.7</ele>
        <time>2021-09-12T15:04:40Z</time>
      </trkpt>
      <trkpt lat="43.87487" lon="6.50868">
        <ele>912.4</ele>
        <time>2021-09-12T15:04:41Z</time>
      </trkpt>
      <trkpt lat="43.87476" lon="6.50884">
        <ele>911.6</ele>
        <time>2021-09-12T15:04:44Z</time>
      </trkpt>
      <trkpt lat="43.87471" lon="6.50893">
        <ele>911.2</ele>
        <time>2021-09-12T15:04:45Z</time>
      </trkpt>
      <trkpt lat="43.87467" lon="6.50903">
        <ele>910.7</ele>
        <time>2021-09-12T15:04:47Z</time>
      </trkpt>
      <trkpt lat="43.87459" lon="6.50924">
        <ele>910</ele>
        <time>2021-09-12T15:04:49Z</time>
      </trkpt>
      <trkpt lat="43.87455" lon="6.50933">
        <ele>909.6</ele>
        <time>2021-09-12T15:04:51Z</time>
      </trkpt>
      <trkpt lat="43.87446" lon="6.50951">
        <ele>908.8</ele>
        <time>2021-09-12T15:04:54Z</time>
      </trkpt>
      <trkpt lat="43.87436" lon="6.50968">
        <ele>908</ele>
        <time>2021-09-12T15:04:56Z</time>
      </trkpt>
      <trkpt lat="43.87431" lon="6.50975">
        <ele>907.6</ele>
        <time>2021-09-12T15:04:57Z</time>
      </trkpt>
      <trkpt lat="43.8742" lon="6.5099">
        <ele>906.9</ele>
        <time>2021-09-12T15:05:00Z</time>
      </trkpt>
      <trkpt lat="43.87414" lon="6.50998">
        <ele>906.5</ele>
        <time>2021-09-12T15:05:01Z</time>
      </trkpt>
      <trkpt lat="43.87402" lon="6.51013">
        <ele>905.7</ele>
        <time>2021-09-12T15:05:04Z</time>
      </trkpt>
      <trkpt lat="43.87395" lon="6.5102">
        <ele>905.3</ele>
        <time>2021-09-12T15:05:06Z</time>
      </trkpt>
      <trkpt lat="43.87386" lon="6.51027">
        <ele>904.9</ele>
        <time>2021-09-12T15:05:07Z</time>
      </trkpt>
      <trkpt lat="43.8737" lon="6.51038">
        <ele>904.1</ele>
        <time>2021-09-12T15:05:10Z</time>
      </trkpt>
      <trkpt lat="43.87354" lon="6.51048">
        <ele>903.3</ele>
        <time>2021-09-12T15:05:13Z</time>
      </trkpt>
      <trkpt lat="43.87346" lon="6.51053">
        <ele>902.9</ele>
        <time>2021-09-12T15:05:15Z</time>
      </trkpt>
      <trkpt lat="43.87338" lon="6.51057">
        <ele>902.5</ele>
        <time>2021-09-12T15:05:16Z</time>
      </trkpt>
      <trkpt lat="43.8733" lon="6.51061">
        <ele>902</ele>
        <time>2021-09-12T15:05:18Z</time>
      </trkpt>
      <trkpt lat="43.87314" lon="6.51069">
        <ele>901.2</ele>
        <time>2021-09-12T15:05:21Z</time>
      </trkpt>
      <trkpt lat="43.87307" lon="6.51073">
        <ele>900.8</ele>
        <time>2021-09-12T15:05:22Z</time>
      </trkpt>
      <trkpt lat="43.87291" lon="6.51081">
        <ele>900</ele>
        <time>2021-09-12T15:05:25Z</time>
      </trkpt>
      <trkpt lat="43.87284" lon="6.51085">
        <ele>899.7</ele>
        <time>2021-09-12T15:05:26Z</time>
      </trkpt>
      <trkpt lat="43.8727" lon="6.51093">
        <ele>899.1</ele>
        <time>2021-09-12T15:05:29Z</time>
      </trkpt>
      <trkpt lat="43.87254" lon="6.51099">
        <ele>898.4</ele>
        <time>2021-09-12T15:05:31Z</time>
      </trkpt>
      <trkpt lat="43.87246" lon="6.51102">
        <ele>898.1</ele>
        <time>2021-09-12T15:05:33Z</time>
      </trkpt>
      <trkpt lat="43.87231" lon="6.51108">
        <ele>897.5</ele>
        <time>2021-09-12T15:05:36Z</time>
      </trkpt>
      <trkpt lat="43.87215" lon="6.51115">
        <ele>897</ele>
        <time>2021-09-12T15:05:38Z</time>
      </trkpt>
      <trkpt lat="43.87207" lon="6.51119">
        <ele>896.6</ele>
        <time>2021-09-12T15:05:40Z</time>
      </trkpt>
      <trkpt lat="43.87192" lon="6.51128">
        <ele>896</ele>
        <time>2021-09-12T15:05:43Z</time>
      </trkpt>
      <trkpt lat="43.87185" lon="6.51132">
        <ele>895.7</ele>
        <time>2021-09-12T15:05:44Z</time>
      </trkpt>
      <trkpt lat="43.87177" lon="6.51136">
        <ele>895.5</ele>
        <time>2021-09-12T15:05:46Z</time>
      </trkpt>
      <trkpt lat="43.8716" lon="6.51143">
        <ele>895.1</ele>
        <time>2021-09-12T15:05:49Z</time>
      </trkpt>
      <trkpt lat="43.87152" lon="6.51145">
        <ele>894.9</ele>
        <time>2021-09-12T15:05:50Z</time>
      </trkpt>
      <trkpt lat="43.87137" lon="6.51148">
        <ele>894.7</ele>
        <time>2021-09-12T15:05:53Z</time>
      </trkpt>
      <trkpt lat="43.8713" lon="6.51151">
        <ele>894.6</ele>
        <time>2021-09-12T15:05:54Z</time>
      </trkpt>
      <trkpt lat="43.87118" lon="6.51156">
        <ele>894.4</ele>
        <time>2021-09-12T15:05:57Z</time>
      </trkpt>
      <trkpt lat="43.87112" lon="6.5116">
        <ele>894.2</ele>
        <time>2021-09-12T15:05:58Z</time>
      </trkpt>
      <trkpt lat="43.87101" lon="6.51169">
        <ele>893.7</ele>
        <time>2021-09-12T15:06:01Z</time>
      </trkpt>
      <trkpt lat="43.87091" lon="6.51181">
        <ele>893.3</ele>
        <time>2021-09-12T15:06:03Z</time>
      </trkpt>
      <trkpt lat="43.87081" lon="6.51191">
        <ele>892.8</ele>
        <time>2021-09-12T15:06:05Z</time>
      </trkpt>
      <trkpt lat="43.87076" lon="6.51194">
        <ele>892.7</ele>
        <time>2021-09-12T15:06:07Z</time>
      </trkpt>
      <trkpt lat="43.8707" lon="6.51195">
        <ele>892.6</ele>
        <time>2021-09-12T15:06:08Z</time>
      </trkpt>
      <trkpt lat="43.87059" lon="6.51191">
        <ele>892.3</ele>
        <time>2021-09-12T15:06:10Z</time>
      </trkpt>
      <trkpt lat="43.87053" lon="6.51185">
        <ele>892.1</ele>
        <time>2021-09-12T15:06:11Z</time>
      </trkpt>
      <trkpt lat="43.87047" lon="6.51178">
        <ele>891.9</ele>
        <time>2021-09-12T15:06:13Z</time>
      </trkpt>
      <trkpt lat="43.87035" lon="6.51163">
        <ele>891.3</ele>
        <time>2021-09-12T15:06:16Z</time>
      </trkpt>
      <trkpt lat="43.87028" lon="6.51155">
        <ele>890.9</ele>
        <time>2021-09-12T15:06:18Z</time>
      </trkpt>
      <trkpt lat="43.87015" lon="6.51138">
        <ele>890.2</ele>
        <time>2021-09-12T15:06:21Z</time>
      </trkpt>
      <trkpt lat="43.87009" lon="6.51131">
        <ele>889.8</ele>
        <time>2021-09-12T15:06:23Z</time>
      </trkpt>
      <trkpt lat="43.86997" lon="6.51117">
        <ele>889.1</ele>
        <time>2021-09-12T15:06:26Z</time>
      </trkpt>
      <trkpt lat="43.86991" lon="6.5111">
        <ele>888.7</ele>
        <time>2021-09-12T15:06:27Z</time>
      </trkpt>
      <trkpt lat="43.8698" lon="6.51096">
        <ele>888</ele>
        <time>2021-09-12T15:06:30Z</time>
      </trkpt>
      <trkpt lat="43.86975" lon="6.5109">
        <ele>887.6</ele>
        <time>2021-09-12T15:06:31Z</time>
      </trkpt>
      <trkpt lat="43.86964" lon="6.5108">
        <ele>886.9</ele>
        <time>2021-09-12T15:06:34Z</time>
      </trkpt>
      <trkpt lat="43.86956" lon="6.51075">
        <ele>886.5</ele>
        <time>2021-09-12T15:06:35Z</time>
      </trkpt>
      <trkpt lat="43.8695" lon="6.51075">
        <ele>886.4</ele>
        <time>2021-09-12T15:06:36Z</time>
      </trkpt>
      <trkpt lat="43.86944" lon="6.5108">
        <ele>886.4</ele>
        <time>2021-09-12T15:06:38Z</time>
      </trkpt>
      <trkpt lat="43.86941" lon="6.51086">
        <ele>886.3</ele>
        <time>2021-09-12T15:06:39Z</time>
      </trkpt>
      <trkpt lat="43.86933" lon="6.51103">
        <ele>885.6</ele>
        <time>2021-09-12T15:06:41Z</time>
      </trkpt>
      <trkpt lat="43.8693" lon="6.51113">
        <ele>885.2</ele>
        <time>2021-09-12T15:06:42Z</time>
      </trkpt>
      <trkpt lat="43.86927" lon="6.51122">
        <ele>884.9</ele>
        <time>2021-09-12T15:06:44Z</time>
      </trkpt>
      <trkpt lat="43.86924" lon="6.51131">
        <ele>884.6</ele>
        <time>2021-09-12T15:06:45Z</time>
      </trkpt>
      <trkpt lat="43.86919" lon="6.51149">
        <ele>884.1</ele>
        <time>2021-09-12T15:06:47Z</time>
      </trkpt>
      <trkpt lat="43.86915" lon="6.51157">
        <ele>883.9</ele>
        <time>2021-09-12T15:06:49Z</time>
      </trkpt>
      <trkpt lat="43.86911" lon="6.51166">
        <ele>883.7</ele>
        <time>2021-09-12T15:06:50Z</time>
      </trkpt>
      <trkpt lat="43.86907" lon="6.51172">
        <ele>883.5</ele>
        <time>2021-09-12T15:06:51Z</time>
      </trkpt>
      <trkpt lat="43.86898" lon="6.51179">
        <ele>883.2</ele>
        <time>2021-09-12T15:06:53Z</time>
      </trkpt>
      <trkpt lat="43.86893" lon="6.51178">
        <ele>883</ele>
        <time>2021-09-12T15:06:54Z</time>
      </trkpt>
      <trkpt lat="43.86884" lon="6.51174">
        <ele>882.6</ele>
        <time>2021-09-12T15:06:56Z</time>
      </trkpt>
      <trkpt lat="43.86873" lon="6.51167">
        <ele>881.9</ele>
        <time>2021-09-12T15:06:58Z</time>
      </trkpt>
      <trkpt lat="43.86868" lon="6.51165">
        <ele>881.5</ele>
        <time>2021-09-12T15:06:59Z</time>
      </trkpt>
      <trkpt lat="43.86862" lon="6.51169">
        <ele>881</ele>
        <time>2021-09-12T15:07:00Z</time>
      </trkpt>
      <trkpt lat="43.86859" lon="6.51165">
        <ele>880.5</ele>
        <time>2021-09-12T15:07:01Z</time>
      </trkpt>
      <trkpt lat="43.86855" lon="6.5116">
        <ele>879.9</ele>
        <time>2021-09-12T15:07:02Z</time>
      </trkpt>
      <trkpt lat="43.8685" lon="6.51153">
        <ele>879.1</ele>
        <time>2021-09-12T15:07:03Z</time>
      </trkpt>
      <trkpt lat="43.86842" lon="6.51147">
        <ele>878.3</ele>
        <time>2021-09-12T15:07:04Z</time>
      </trkpt>
      <trkpt lat="43.86838" lon="6.51145">
        <ele>877.8</ele>
        <time>2021-09-12T15:07:05Z</time>
      </trkpt>
      <trkpt lat="43.86834" lon="6.51137">
        <ele>877.1</ele>
        <time>2021-09-12T15:07:06Z</time>
      </trkpt>
      <trkpt lat="43.86839" lon="6.51133">
        <ele>876.6</ele>
        <time>2021-09-12T15:07:07Z</time>
      </trkpt>
      <trkpt lat="43.86847" lon="6.51133">
        <ele>875.9</ele>
        <time>2021-09-12T15:07:08Z</time>
      </trkpt>
      <trkpt lat="43.86854" lon="6.51136">
        <ele>875.2</ele>
        <time>2021-09-12T15:07:09Z</time>
      </trkpt>
      <trkpt lat="43.86858" lon="6.51137">
        <ele>874.8</ele>
        <time>2021-09-12T15:07:10Z</time>
      </trkpt>
      <trkpt lat="43.86861" lon="6.51135">
        <ele>874.5</ele>
        <time>2021-09-12T15:07:11Z</time>
      </trkpt>
      <trkpt lat="43.86861" lon="6.51131">
        <ele>874.3</ele>
        <time>2021-09-12T15:07:12Z</time>
      </trkpt>
      <trkpt lat="43.86855" lon="6.51127">
        <ele>873.7</ele>
        <time>2021-09-12T15:07:13Z</time>
      </trkpt>
      <trkpt lat="43.86847" lon="6.5112">
        <ele>873</ele>
        <time>2021-09-12T15:07:14Z</time>
      </trkpt>
      <trkpt lat="43.86843" lon="6.51113">
        <ele>872.5</ele>
        <time>2021-09-12T15:07:15Z</time>
      </trkpt>
      <trkpt lat="43.86837" lon="6.51109">
        <ele>872.2</ele>
        <time>2021-09-12T15:07:16Z</time>
      </trkpt>
      <trkpt lat="43.8683" lon="6.511">
        <ele>871.8</ele>
        <time>2021-09-12T15:07:18Z</time>
      </trkpt>
      <trkpt lat="43.86821" lon="6.51091">
        <ele>871.6</ele>
        <time>2021-09-12T15:07:20Z</time>
      </trkpt>
      <trkpt lat="43.86813" lon="6.51083">
        <ele>871.7</ele>
        <time>2021-09-12T15:07:21Z</time>
      </trkpt>
      <trkpt lat="43.86808" lon="6.5108">
        <ele>871.8</ele>
        <time>2021-09-12T15:07:22Z</time>
      </trkpt>
      <trkpt lat="43.86802" lon="6.51076">
        <ele>872.1</ele>
        <time>2021-09-12T15:07:23Z</time>
      </trkpt>
      <trkpt lat="43.86792" lon="6.51075">
        <ele>872.7</ele>
        <time>2021-09-12T15:07:26Z</time>
      </trkpt>
      <trkpt lat="43.86787" lon="6.51075">
        <ele>873</ele>
        <time>2021-09-12T15:07:27Z</time>
      </trkpt>
      <trkpt lat="43.86782" lon="6.51076">
        <ele>873.3</ele>
        <time>2021-09-12T15:07:28Z</time>
      </trkpt>
      <trkpt lat="43.86773" lon="6.51076">
        <ele>873.7</ele>
        <time>2021-09-12T15:07:30Z</time>
      </trkpt>
      <trkpt lat="43.86771" lon="6.51078">
        <ele>873.9</ele>
        <time>2021-09-12T15:07:31Z</time>
      </trkpt>
      <trkpt lat="43.86767" lon="6.51081">
        <ele>874</ele>
        <time>2021-09-12T15:07:32Z</time>
      </trkpt>
      <trkpt lat="43.8676" lon="6.51084">
        <ele>874.1</ele>
        <time>2021-09-12T15:07:35Z</time>
      </trkpt>
      <trkpt lat="43.86757" lon="6.51084">
        <ele>874.1</ele>
        <time>2021-09-12T15:07:36Z</time>
      </trkpt>
      <trkpt lat="43.8675" lon="6.5108">
        <ele>874.1</ele>
        <time>2021-09-12T15:07:39Z</time>
      </trkpt>
      <trkpt lat="43.86747" lon="6.51079">
        <ele>874.1</ele>
        <time>2021-09-12T15:07:40Z</time>
      </trkpt>
      <trkpt lat="43.86742" lon="6.51082">
        <ele>874.1</ele>
        <time>2021-09-12T15:07:42Z</time>
      </trkpt>
      <trkpt lat="43.86737" lon="6.51086">
        <ele>874.1</ele>
        <time>2021-09-12T15:07:44Z</time>
      </trkpt>
      <trkpt lat="43.8673" lon="6.51091">
        <ele>874.1</ele>
        <time>2021-09-12T15:07:46Z</time>
      </trkpt>
      <trkpt lat="43.86724" lon="6.51096">
        <ele>874.1</ele>
        <time>2021-09-12T15:07:49Z</time>
      </trkpt>
      <trkpt lat="43.86719" lon="6.51099">
        <ele>874.1</ele>
        <time>2021-09-12T15:07:51Z</time>
      </trkpt>
      <trkpt lat="43.86715" lon="6.51102">
        <ele>874.1</ele>
        <time>2021-09-12T15:07:52Z</time>
      </trkpt>
      <trkpt lat="43.8671" lon="6.51104">
        <ele>874.1</ele>
        <time>2021-09-12T15:07:54Z</time>
      </trkpt>
      <trkpt lat="43.86705" lon="6.51105">
        <ele>874</ele>
        <time>2021-09-12T15:07:55Z</time>
      </trkpt>
      <trkpt lat="43.86702" lon="6.51107">
        <ele>873.9</ele>
        <time>2021-09-12T15:07:56Z</time>
      </trkpt>
      <trkpt lat="43.86698" lon="6.51108">
        <ele>873.8</ele>
        <time>2021-09-12T15:07:57Z</time>
      </trkpt>
      <trkpt lat="43.86693" lon="6.51109">
        <ele>873.6</ele>
        <time>2021-09-12T15:07:59Z</time>
      </trkpt>
      <trkpt lat="43.86688" lon="6.51109">
        <ele>873.4</ele>
        <time>2021-09-12T15:08:00Z</time>
      </trkpt>
      <trkpt lat="43.86684" lon="6.51109">
        <ele>873.2</ele>
        <time>2021-09-12T15:08:01Z</time>
      </trkpt>
      <trkpt lat="43.8668" lon="6.5111">
        <ele>872.9</ele>
        <time>2021-09-12T15:08:02Z</time>
      </trkpt>
      <trkpt lat="43.86672" lon="6.5111">
        <ele>872.3</ele>
        <time>2021-09-12T15:08:04Z</time>
      </trkpt>
      <trkpt lat="43.86661" lon="6.51109">
        <ele>871.3</ele>
        <time>2021-09-12T15:08:06Z</time>
      </trkpt>
      <trkpt lat="43.86655" lon="6.51109">
        <ele>870.8</ele>
        <time>2021-09-12T15:08:07Z</time>
      </trkpt>
      <trkpt lat="43.86642" lon="6.51109">
        <ele>869.7</ele>
        <time>2021-09-12T15:08:09Z</time>
      </trkpt>
      <trkpt lat="43.86635" lon="6.51109">
        <ele>869.2</ele>
        <time>2021-09-12T15:08:10Z</time>
      </trkpt>
      <trkpt lat="43.86619" lon="6.5111">
        <ele>868.2</ele>
        <time>2021-09-12T15:08:13Z</time>
      </trkpt>
      <trkpt lat="43.86611" lon="6.5111">
        <ele>867.9</ele>
        <time>2021-09-12T15:08:14Z</time>
      </trkpt>
      <trkpt lat="43.86603" lon="6.5111">
        <ele>867.6</ele>
        <time>2021-09-12T15:08:15Z</time>
      </trkpt>
      <trkpt lat="43.86587" lon="6.5111">
        <ele>867</ele>
        <time>2021-09-12T15:08:18Z</time>
      </trkpt>
      <trkpt lat="43.8658" lon="6.5111">
        <ele>866.7</ele>
        <time>2021-09-12T15:08:19Z</time>
      </trkpt>
      <trkpt lat="43.86573" lon="6.51111">
        <ele>866.4</ele>
        <time>2021-09-12T15:08:20Z</time>
      </trkpt>
      <trkpt lat="43.86559" lon="6.51113">
        <ele>866</ele>
        <time>2021-09-12T15:08:22Z</time>
      </trkpt>
      <trkpt lat="43.86545" lon="6.51113">
        <ele>865.8</ele>
        <time>2021-09-12T15:08:25Z</time>
      </trkpt>
      <trkpt lat="43.86534" lon="6.51115">
        <ele>865.6</ele>
        <time>2021-09-12T15:08:27Z</time>
      </trkpt>
      <trkpt lat="43.86528" lon="6.51116">
        <ele>865.5</ele>
        <time>2021-09-12T15:08:28Z</time>
      </trkpt>
      <trkpt lat="43.86515" lon="6.51123">
        <ele>865.3</ele>
        <time>2021-09-12T15:08:30Z</time>
      </trkpt>
      <trkpt lat="43.86508" lon="6.51127">
        <ele>865.3</ele>
        <time>2021-09-12T15:08:32Z</time>
      </trkpt>
      <trkpt lat="43.86495" lon="6.51135">
        <ele>865.4</ele>
        <time>2021-09-12T15:08:34Z</time>
      </trkpt>
      <trkpt lat="43.86488" lon="6.5114">
        <ele>865.6</ele>
        <time>2021-09-12T15:08:36Z</time>
      </trkpt>
      <trkpt lat="43.86482" lon="6.51144">
        <ele>865.8</ele>
        <time>2021-09-12T15:08:37Z</time>
      </trkpt>
      <trkpt lat="43.86471" lon="6.51153">
        <ele>866.3</ele>
        <time>2021-09-12T15:08:40Z</time>
      </trkpt>
      <trkpt lat="43.86461" lon="6.5116">
        <ele>866.7</ele>
        <time>2021-09-12T15:08:43Z</time>
      </trkpt>
      <trkpt lat="43.86457" lon="6.51163">
        <ele>866.9</ele>
        <time>2021-09-12T15:08:44Z</time>
      </trkpt>
      <trkpt lat="43.86452" lon="6.51166">
        <ele>866.9</ele>
        <time>2021-09-12T15:08:46Z</time>
      </trkpt>
      <trkpt lat="43.86442" lon="6.51171">
        <ele>866.9</ele>
        <time>2021-09-12T15:08:48Z</time>
      </trkpt>
      <trkpt lat="43.86437" lon="6.51173">
        <ele>866.7</ele>
        <time>2021-09-12T15:08:50Z</time>
      </trkpt>
      <trkpt lat="43.86426" lon="6.51179">
        <ele>866.4</ele>
        <time>2021-09-12T15:08:54Z</time>
      </trkpt>
      <trkpt lat="43.86422" lon="6.51184">
        <ele>866.3</ele>
        <time>2021-09-12T15:08:55Z</time>
      </trkpt>
      <trkpt lat="43.86417" lon="6.51196">
        <ele>866.2</ele>
        <time>2021-09-12T15:08:58Z</time>
      </trkpt>
      <trkpt lat="43.86412" lon="6.51208">
        <ele>866.1</ele>
        <time>2021-09-12T15:09:01Z</time>
      </trkpt>
      <trkpt lat="43.86409" lon="6.51214">
        <ele>866.1</ele>
        <time>2021-09-12T15:09:02Z</time>
      </trkpt>
      <trkpt lat="43.86405" lon="6.51219">
        <ele>866.1</ele>
        <time>2021-09-12T15:09:04Z</time>
      </trkpt>
      <trkpt lat="43.86399" lon="6.51229">
        <ele>866.2</ele>
        <time>2021-09-12T15:09:06Z</time>
      </trkpt>
      <trkpt lat="43.86397" lon="6.51233">
        <ele>866.2</ele>
        <time>2021-09-12T15:09:07Z</time>
      </trkpt>
      <trkpt lat="43.86395" lon="6.51238">
        <ele>866.2</ele>
        <time>2021-09-12T15:09:08Z</time>
      </trkpt>
      <trkpt lat="43.8639" lon="6.51248">
        <ele>866.2</ele>
        <time>2021-09-12T15:09:10Z</time>
      </trkpt>
      <trkpt lat="43.86386" lon="6.51253">
        <ele>866.1</ele>
        <time>2021-09-12T15:09:11Z</time>
      </trkpt>
      <trkpt lat="43.8638" lon="6.51262">
        <ele>866</ele>
        <time>2021-09-12T15:09:14Z</time>
      </trkpt>
      <trkpt lat="43.86376" lon="6.51266">
        <ele>865.9</ele>
        <time>2021-09-12T15:09:15Z</time>
      </trkpt>
      <trkpt lat="43.86368" lon="6.51274">
        <ele>865.8</ele>
        <time>2021-09-12T15:09:18Z</time>
      </trkpt>
      <trkpt lat="43.86364" lon="6.51278">
        <ele>865.7</ele>
        <time>2021-09-12T15:09:19Z</time>
      </trkpt>
      <trkpt lat="43.8636" lon="6.51281">
        <ele>865.6</ele>
        <time>2021-09-12T15:09:20Z</time>
      </trkpt>
      <trkpt lat="43.86356" lon="6.51285">
        <ele>865.4</ele>
        <time>2021-09-12T15:09:21Z</time>
      </trkpt>
      <trkpt lat="43.86347" lon="6.51294">
        <ele>865</ele>
        <time>2021-09-12T15:09:24Z</time>
      </trkpt>
      <trkpt lat="43.86343" lon="6.513">
        <ele>864.8</ele>
        <time>2021-09-12T15:09:25Z</time>
      </trkpt>
      <trkpt lat="43.86334" lon="6.51312">
        <ele>864.2</ele>
        <time>2021-09-12T15:09:28Z</time>
      </trkpt>
      <trkpt lat="43.8633" lon="6.51318">
        <ele>863.9</ele>
        <time>2021-09-12T15:09:29Z</time>
      </trkpt>
      <trkpt lat="43.86326" lon="6.51324">
        <ele>863.7</ele>
        <time>2021-09-12T15:09:31Z</time>
      </trkpt>
      <trkpt lat="43.86322" lon="6.5133">
        <ele>863.4</ele>
        <time>2021-09-12T15:09:32Z</time>
      </trkpt>
      <trkpt lat="43.86313" lon="6.51341">
        <ele>862.9</ele>
        <time>2021-09-12T15:09:34Z</time>
      </trkpt>
      <trkpt lat="43.86303" lon="6.51354">
        <ele>862.5</ele>
        <time>2021-09-12T15:09:36Z</time>
      </trkpt>
      <trkpt lat="43.86293" lon="6.51366">
        <ele>862.2</ele>
        <time>2021-09-12T15:09:39Z</time>
      </trkpt>
      <trkpt lat="43.86288" lon="6.51371">
        <ele>862.1</ele>
        <time>2021-09-12T15:09:40Z</time>
      </trkpt>
      <trkpt lat="43.86283" lon="6.51375">
        <ele>862</ele>
        <time>2021-09-12T15:09:41Z</time>
      </trkpt>
      <trkpt lat="43.8627" lon="6.51381">
        <ele>862</ele>
        <time>2021-09-12T15:09:44Z</time>
      </trkpt>
      <trkpt lat="43.86256" lon="6.51384">
        <ele>862.1</ele>
        <time>2021-09-12T15:09:46Z</time>
      </trkpt>
      <trkpt lat="43.86249" lon="6.51386">
        <ele>862.2</ele>
        <time>2021-09-12T15:09:48Z</time>
      </trkpt>
      <trkpt lat="43.86244" lon="6.51388">
        <ele>862.2</ele>
        <time>2021-09-12T15:09:49Z</time>
      </trkpt>
      <trkpt lat="43.86233" lon="6.51392">
        <ele>862.4</ele>
        <time>2021-09-12T15:09:51Z</time>
      </trkpt>
      <trkpt lat="43.86228" lon="6.51395">
        <ele>862.5</ele>
        <time>2021-09-12T15:09:52Z</time>
      </trkpt>
      <trkpt lat="43.86219" lon="6.51401">
        <ele>862.6</ele>
        <time>2021-09-12T15:09:55Z</time>
      </trkpt>
      <trkpt lat="43.86211" lon="6.51407">
        <ele>862.7</ele>
        <time>2021-09-12T15:09:57Z</time>
      </trkpt>
      <trkpt lat="43.86208" lon="6.5141">
        <ele>862.7</ele>
        <time>2021-09-12T15:09:58Z</time>
      </trkpt>
      <trkpt lat="43.862" lon="6.51414">
        <ele>862.7</ele>
        <time>2021-09-12T15:10:00Z</time>
      </trkpt>
      <trkpt lat="43.86192" lon="6.51417">
        <ele>862.6</ele>
        <time>2021-09-12T15:10:03Z</time>
      </trkpt>
      <trkpt lat="43.8618" lon="6.51423">
        <ele>862.2</ele>
        <time>2021-09-12T15:10:07Z</time>
      </trkpt>
      <trkpt lat="43.86174" lon="6.51425">
        <ele>862</ele>
        <time>2021-09-12T15:10:08Z</time>
      </trkpt>
      <trkpt lat="43.86164" lon="6.51429">
        <ele>861.5</ele>
        <time>2021-09-12T15:10:11Z</time>
      </trkpt>
      <trkpt lat="43.86154" lon="6.51434">
        <ele>860.9</ele>
        <time>2021-09-12T15:10:14Z</time>
      </trkpt>
      <trkpt lat="43.86143" lon="6.51445">
        <ele>860.1</ele>
        <time>2021-09-12T15:10:17Z</time>
      </trkpt>
      <trkpt lat="43.86133" lon="6.51456">
        <ele>859.3</ele>
        <time>2021-09-12T15:10:20Z</time>
      </trkpt>
      <trkpt lat="43.86128" lon="6.51461">
        <ele>858.9</ele>
        <time>2021-09-12T15:10:21Z</time>
      </trkpt>
      <trkpt lat="43.86124" lon="6.51468">
        <ele>858.4</ele>
        <time>2021-09-12T15:10:22Z</time>
      </trkpt>
      <trkpt lat="43.86119" lon="6.51475">
        <ele>858</ele>
        <time>2021-09-12T15:10:23Z</time>
      </trkpt>
      <trkpt lat="43.86114" lon="6.51482">
        <ele>857.5</ele>
        <time>2021-09-12T15:10:25Z</time>
      </trkpt>
      <trkpt lat="43.86103" lon="6.51496">
        <ele>856.5</ele>
        <time>2021-09-12T15:10:27Z</time>
      </trkpt>
      <trkpt lat="43.86098" lon="6.51504">
        <ele>856</ele>
        <time>2021-09-12T15:10:28Z</time>
      </trkpt>
      <trkpt lat="43.86094" lon="6.51512">
        <ele>855.5</ele>
        <time>2021-09-12T15:10:30Z</time>
      </trkpt>
      <trkpt lat="43.86086" lon="6.51528">
        <ele>854.5</ele>
        <time>2021-09-12T15:10:32Z</time>
      </trkpt>
      <trkpt lat="43.86081" lon="6.51535">
        <ele>854</ele>
        <time>2021-09-12T15:10:33Z</time>
      </trkpt>
      <trkpt lat="43.86068" lon="6.51548">
        <ele>853</ele>
        <time>2021-09-12T15:10:36Z</time>
      </trkpt>
      <trkpt lat="43.86062" lon="6.51553">
        <ele>852.6</ele>
        <time>2021-09-12T15:10:37Z</time>
      </trkpt>
      <trkpt lat="43.8605" lon="6.51563">
        <ele>852.3</ele>
        <time>2021-09-12T15:10:39Z</time>
      </trkpt>
      <trkpt lat="43.86038" lon="6.5157">
        <ele>852.3</ele>
        <time>2021-09-12T15:10:41Z</time>
      </trkpt>
      <trkpt lat="43.86032" lon="6.51572">
        <ele>852.3</ele>
        <time>2021-09-12T15:10:42Z</time>
      </trkpt>
      <trkpt lat="43.86026" lon="6.51571">
        <ele>852.2</ele>
        <time>2021-09-12T15:10:43Z</time>
      </trkpt>
      <trkpt lat="43.86015" lon="6.51564">
        <ele>851.7</ele>
        <time>2021-09-12T15:10:45Z</time>
      </trkpt>
      <trkpt lat="43.86007" lon="6.51551">
        <ele>850.8</ele>
        <time>2021-09-12T15:10:47Z</time>
      </trkpt>
      <trkpt lat="43.86" lon="6.51536">
        <ele>850</ele>
        <time>2021-09-12T15:10:50Z</time>
      </trkpt>
      <trkpt lat="43.85992" lon="6.51526">
        <ele>849.2</ele>
        <time>2021-09-12T15:10:52Z</time>
      </trkpt>
      <trkpt lat="43.85988" lon="6.5152">
        <ele>848.8</ele>
        <time>2021-09-12T15:10:53Z</time>
      </trkpt>
      <trkpt lat="43.85984" lon="6.51513">
        <ele>848.4</ele>
        <time>2021-09-12T15:10:54Z</time>
      </trkpt>
      <trkpt lat="43.85975" lon="6.51495">
        <ele>847.5</ele>
        <time>2021-09-12T15:10:57Z</time>
      </trkpt>
      <trkpt lat="43.85971" lon="6.51487">
        <ele>847.1</ele>
        <time>2021-09-12T15:10:58Z</time>
      </trkpt>
      <trkpt lat="43.85966" lon="6.5148">
        <ele>846.7</ele>
        <time>2021-09-12T15:10:59Z</time>
      </trkpt>
      <trkpt lat="43.85955" lon="6.51464">
        <ele>845.7</ele>
        <time>2021-09-12T15:11:02Z</time>
      </trkpt>
      <trkpt lat="43.8595" lon="6.51458">
        <ele>845.2</ele>
        <time>2021-09-12T15:11:03Z</time>
      </trkpt>
      <trkpt lat="43.85938" lon="6.51447">
        <ele>843.9</ele>
        <time>2021-09-12T15:11:05Z</time>
      </trkpt>
      <trkpt lat="43.85932" lon="6.51445">
        <ele>843.4</ele>
        <time>2021-09-12T15:11:06Z</time>
      </trkpt>
      <trkpt lat="43.85918" lon="6.5144">
        <ele>841.8</ele>
        <time>2021-09-12T15:11:08Z</time>
      </trkpt>
      <trkpt lat="43.8591" lon="6.51435">
        <ele>840.8</ele>
        <time>2021-09-12T15:11:10Z</time>
      </trkpt>
      <trkpt lat="43.85892" lon="6.51427">
        <ele>838.8</ele>
        <time>2021-09-12T15:11:13Z</time>
      </trkpt>
      <trkpt lat="43.85884" lon="6.51423">
        <ele>837.6</ele>
        <time>2021-09-12T15:11:14Z</time>
      </trkpt>
      <trkpt lat="43.85867" lon="6.51414">
        <ele>835.2</ele>
        <time>2021-09-12T15:11:17Z</time>
      </trkpt>
      <trkpt lat="43.85859" lon="6.5141">
        <ele>834.1</ele>
        <time>2021-09-12T15:11:18Z</time>
      </trkpt>
      <trkpt lat="43.85853" lon="6.51405">
        <ele>833.2</ele>
        <time>2021-09-12T15:11:19Z</time>
      </trkpt>
      <trkpt lat="43.85841" lon="6.51396">
        <ele>832.1</ele>
        <time>2021-09-12T15:11:21Z</time>
      </trkpt>
      <trkpt lat="43.85835" lon="6.51393">
        <ele>831.8</ele>
        <time>2021-09-12T15:11:22Z</time>
      </trkpt>
      <trkpt lat="43.85827" lon="6.51388">
        <ele>831.2</ele>
        <time>2021-09-12T15:11:23Z</time>
      </trkpt>
      <trkpt lat="43.8582" lon="6.51383">
        <ele>830.7</ele>
        <time>2021-09-12T15:11:24Z</time>
      </trkpt>
      <trkpt lat="43.85815" lon="6.51378">
        <ele>830.4</ele>
        <time>2021-09-12T15:11:25Z</time>
      </trkpt>
      <trkpt lat="43.8581" lon="6.5137">
        <ele>829.6</ele>
        <time>2021-09-12T15:11:26Z</time>
      </trkpt>
      <trkpt lat="43.85806" lon="6.51359">
        <ele>828.8</ele>
        <time>2021-09-12T15:11:28Z</time>
      </trkpt>
      <trkpt lat="43.85804" lon="6.51345">
        <ele>828</ele>
        <time>2021-09-12T15:11:29Z</time>
      </trkpt>
      <trkpt lat="43.85802" lon="6.51337">
        <ele>827.7</ele>
        <time>2021-09-12T15:11:30Z</time>
      </trkpt>
      <trkpt lat="43.858" lon="6.51331">
        <ele>827.5</ele>
        <time>2021-09-12T15:11:31Z</time>
      </trkpt>
      <trkpt lat="43.85799" lon="6.5132">
        <ele>827.2</ele>
        <time>2021-09-12T15:11:32Z</time>
      </trkpt>
      <trkpt lat="43.85796" lon="6.51317">
        <ele>827.1</ele>
        <time>2021-09-12T15:11:33Z</time>
      </trkpt>
      <trkpt lat="43.85791" lon="6.51312">
        <ele>826.9</ele>
        <time>2021-09-12T15:11:34Z</time>
      </trkpt>
      <trkpt lat="43.85787" lon="6.51298">
        <ele>826.6</ele>
        <time>2021-09-12T15:11:35Z</time>
      </trkpt>
      <trkpt lat="43.85789" lon="6.51286">
        <ele>826.3</ele>
        <time>2021-09-12T15:11:37Z</time>
      </trkpt>
      <trkpt lat="43.85788" lon="6.51279">
        <ele>826.1</ele>
        <time>2021-09-12T15:11:38Z</time>
      </trkpt>
      <trkpt lat="43.85782" lon="6.51265">
        <ele>825.7</ele>
        <time>2021-09-12T15:11:40Z</time>
      </trkpt>
      <trkpt lat="43.85779" lon="6.51254">
        <ele>825.3</ele>
        <time>2021-09-12T15:11:41Z</time>
      </trkpt>
      <trkpt lat="43.85776" lon="6.51244">
        <ele>824.9</ele>
        <time>2021-09-12T15:11:43Z</time>
      </trkpt>
      <trkpt lat="43.85774" lon="6.51221">
        <ele>823.9</ele>
        <time>2021-09-12T15:11:46Z</time>
      </trkpt>
      <trkpt lat="43.85772" lon="6.51212">
        <ele>823.5</ele>
        <time>2021-09-12T15:11:47Z</time>
      </trkpt>
      <trkpt lat="43.8577" lon="6.51204">
        <ele>823.2</ele>
        <time>2021-09-12T15:11:48Z</time>
      </trkpt>
      <trkpt lat="43.85768" lon="6.51198">
        <ele>822.9</ele>
        <time>2021-09-12T15:11:49Z</time>
      </trkpt>
      <trkpt lat="43.85765" lon="6.51191">
        <ele>822.6</ele>
        <time>2021-09-12T15:11:50Z</time>
      </trkpt>
      <trkpt lat="43.85766" lon="6.51185">
        <ele>822.4</ele>
        <time>2021-09-12T15:11:51Z</time>
      </trkpt>
      <trkpt lat="43.85769" lon="6.51193">
        <ele>822.2</ele>
        <time>2021-09-12T15:11:52Z</time>
      </trkpt>
      <trkpt lat="43.8577" lon="6.51195">
        <ele>822.1</ele>
        <time>2021-09-12T15:11:53Z</time>
      </trkpt>
      <trkpt lat="43.84565" lon="6.51071">
        <ele>725.2</ele>
        <time>2021-09-18T07:54:15Z</time>
      </trkpt>
      <trkpt lat="43.84565" lon="6.51071">
        <ele>725.2</ele>
        <time>2021-09-18T07:54:15Z</time>
      </trkpt>
      <trkpt lat="43.84566" lon="6.51072">
        <ele>725.2</ele>
        <time>2021-09-18T07:54:16Z</time>
      </trkpt>
      <trkpt lat="43.84558" lon="6.51074">
        <ele>725.1</ele>
        <time>2021-09-18T07:54:22Z</time>
      </trkpt>
      <trkpt lat="43.84555" lon="6.50762">
        <ele>724.2</ele>
        <time>2021-09-18T07:54:24Z</time>
      </trkpt>
      <trkpt lat="43.84559" lon="6.50926">
        <ele>724.5</ele>
        <time>2021-09-18T07:54:26Z</time>
      </trkpt>
      <trkpt lat="43.84559" lon="6.50994">
        <ele>725.1</ele>
        <time>2021-09-18T07:54:27Z</time>
      </trkpt>
      <trkpt lat="43.84559" lon="6.50998">
        <ele>725.1</ele>
        <time>2021-09-18T07:54:29Z</time>
      </trkpt>
      <trkpt lat="43.84559" lon="6.50998">
        <ele>725.1</ele>
        <time>2021-09-18T07:54:30Z</time>
      </trkpt>
      <trkpt lat="43.84559" lon="6.51001">
        <ele>725.1</ele>
        <time>2021-09-18T07:54:31Z</time>
      </trkpt>
      <trkpt lat="43.84559" lon="6.51015">
        <ele>725.2</ele>
        <time>2021-09-18T07:54:33Z</time>
      </trkpt>
      <trkpt lat="43.84558" lon="6.51023">
        <ele>725.2</ele>
        <time>2021-09-18T07:54:34Z</time>
      </trkpt>
      <trkpt lat="43.84558" lon="6.51029">
        <ele>725.3</ele>
        <time>2021-09-18T07:54:35Z</time>
      </trkpt>
      <trkpt lat="43.84558" lon="6.51042">
        <ele>725.2</ele>
        <time>2021-09-18T07:54:36Z</time>
      </trkpt>
      <trkpt lat="43.84558" lon="6.51052">
        <ele>725.2</ele>
        <time>2021-09-18T07:54:38Z</time>
      </trkpt>
      <trkpt lat="43.84558" lon="6.51062">
        <ele>725.2</ele>
        <time>2021-09-18T07:54:40Z</time>
      </trkpt>
      <trkpt lat="43.84558" lon="6.51074">
        <ele>725.2</ele>
        <time>2021-09-18T07:54:42Z</time>
      </trkpt>
      <trkpt lat="43.84558" lon="6.51075">
        <ele>725.2</ele>
        <time>2021-09-18T07:54:43Z</time>
      </trkpt>
      <trkpt lat="43.84558" lon="6.51075">
        <ele>725.2</ele>
        <time>2021-09-18T07:54:44Z</time>
      </trkpt>
      <trkpt lat="43.84557" lon="6.51075">
        <ele>725.2</ele>
        <time>2021-09-18T07:54:45Z</time>
      </trkpt>
      <trkpt lat="43.84557" lon="6.51075">
        <ele>725.2</ele>
        <time>2021-09-18T07:54:47Z</time>
      </trkpt>
      <trkpt lat="43.84557" lon="6.51076">
        <ele>725.2</ele>
        <time>2021-09-18T07:54:48Z</time>
      </trkpt>
      <trkpt lat="43.84557" lon="6.51076">
        <ele>725.2</ele>
        <time>2021-09-18T07:54:50Z</time>
      </trkpt>
      <trkpt lat="43.84556" lon="6.51076">
        <ele>725.2</ele>
        <time>2021-09-18T07:54:51Z</time>
      </trkpt>
      <trkpt lat="43.84556" lon="6.51076">
        <ele>725.2</ele>
        <time>2021-09-18T07:54:53Z</time>
      </trkpt>
      <trkpt lat="43.84555" lon="6.51076">
        <ele>725.2</ele>
        <time>2021-09-18T07:54:54Z</time>
      </trkpt>
      <trkpt lat="43.84554" lon="6.51076">
        <ele>725.2</ele>
        <time>2021-09-18T07:54:56Z</time>
      </trkpt>
      <trkpt lat="43.84554" lon="6.51076">
        <ele>725.2</ele>
        <time>2021-09-18T07:54:57Z</time>
      </trkpt>
      <trkpt lat="43.84553" lon="6.51076">
        <ele>725.2</ele>
        <time>2021-09-18T07:54:58Z</time>
      </trkpt>
      <trkpt lat="43.84553" lon="6.51076">
        <ele>725.2</ele>
        <time>2021-09-18T07:55:00Z</time>
      </trkpt>
      <trkpt lat="43.84552" lon="6.51076">
        <ele>725.2</ele>
        <time>2021-09-18T07:55:01Z</time>
      </trkpt>
      <trkpt lat="43.84552" lon="6.51076">
        <ele>725.2</ele>
        <time>2021-09-18T07:55:02Z</time>
      </trkpt>
      <trkpt lat="43.84551" lon="6.51075">
        <ele>725.2</ele>
        <time>2021-09-18T07:55:04Z</time>
      </trkpt>
      <trkpt lat="43.84562" lon="6.51053">
        <ele>725.2</ele>
        <time>2021-09-18T07:55:27Z</time>
      </trkpt>
      <trkpt lat="43.84564" lon="6.51049">
        <ele>725.2</ele>
        <time>2021-09-18T07:55:28Z</time>
      </trkpt>
      <trkpt lat="43.84564" lon="6.51049">
        <ele>725.2</ele>
        <time>2021-09-18T07:55:30Z</time>
      </trkpt>
      <trkpt lat="43.84563" lon="6.5105">
        <ele>725.2</ele>
        <time>2021-09-18T07:55:31Z</time>
      </trkpt>
      <trkpt lat="43.84563" lon="6.51051">
        <ele>725.2</ele>
        <time>2021-09-18T07:55:32Z</time>
      </trkpt>
      <trkpt lat="43.84562" lon="6.51051">
        <ele>725.2</ele>
        <time>2021-09-18T07:55:33Z</time>
      </trkpt>
      <trkpt lat="43.84561" lon="6.51052">
        <ele>725.2</ele>
        <time>2021-09-18T07:55:34Z</time>
      </trkpt>
      <trkpt lat="43.84559" lon="6.51053">
        <ele>725.2</ele>
        <time>2021-09-18T07:55:36Z</time>
      </trkpt>
      <trkpt lat="43.8456" lon="6.51052">
        <ele>725.2</ele>
        <time>2021-09-18T07:55:38Z</time>
      </trkpt>
      <trkpt lat="43.84561" lon="6.51057">
        <ele>725.2</ele>
        <time>2021-09-18T07:55:50Z</time>
      </trkpt>
      <trkpt lat="43.84562" lon="6.51059">
        <ele>725.2</ele>
        <time>2021-09-18T07:55:52Z</time>
      </trkpt>
      <trkpt lat="43.84562" lon="6.51061">
        <ele>725.2</ele>
        <time>2021-09-18T07:55:54Z</time>
      </trkpt>
      <trkpt lat="43.84562" lon="6.51062">
        <ele>725.2</ele>
        <time>2021-09-18T07:55:56Z</time>
      </trkpt>
      <trkpt lat="43.84562" lon="6.51063">
        <ele>725.2</ele>
        <time>2021-09-18T07:55:57Z</time>
      </trkpt>
      <trkpt lat="43.84562" lon="6.51063">
        <ele>725.2</ele>
        <time>2021-09-18T07:55:58Z</time>
      </trkpt>
      <trkpt lat="43.84562" lon="6.51063">
        <ele>725.2</ele>
        <time>2021-09-18T07:56:00Z</time>
      </trkpt>
      <trkpt lat="43.84562" lon="6.51062">
        <ele>725.2</ele>
        <time>2021-09-18T07:56:02Z</time>
      </trkpt>
      <trkpt lat="43.84562" lon="6.51061">
        <ele>725.2</ele>
        <time>2021-09-18T07:56:04Z</time>
      </trkpt>
      <trkpt lat="43.84562" lon="6.51057">
        <ele>725.2</ele>
        <time>2021-09-18T07:56:05Z</time>
      </trkpt>
      <trkpt lat="43.84561" lon="6.51056">
        <ele>725.2</ele>
        <time>2021-09-18T07:56:07Z</time>
      </trkpt>
      <trkpt lat="43.84561" lon="6.51057">
        <ele>725.2</ele>
        <time>2021-09-18T07:56:08Z</time>
      </trkpt>
      <trkpt lat="43.8456" lon="6.51057">
        <ele>725.2</ele>
        <time>2021-09-18T07:56:10Z</time>
      </trkpt>
      <trkpt lat="43.84559" lon="6.51058">
        <ele>725.2</ele>
        <time>2021-09-18T07:56:12Z</time>
      </trkpt>
      <trkpt lat="43.84558" lon="6.51059">
        <ele>725.2</ele>
        <time>2021-09-18T07:56:13Z</time>
      </trkpt>
      <trkpt lat="43.84558" lon="6.51059">
        <ele>725.2</ele>
        <time>2021-09-18T07:56:14Z</time>
      </trkpt>
      <trkpt lat="43.84557" lon="6.5106">
        <ele>725.2</ele>
        <time>2021-09-18T07:56:16Z</time>
      </trkpt>
      <trkpt lat="43.84556" lon="6.51061">
        <ele>725.2</ele>
        <time>2021-09-18T07:56:18Z</time>
      </trkpt>
      <trkpt lat="43.84555" lon="6.51061">
        <ele>725.2</ele>
        <time>2021-09-18T07:56:19Z</time>
      </trkpt>
      <trkpt lat="43.84555" lon="6.51062">
        <ele>725.2</ele>
        <time>2021-09-18T07:56:21Z</time>
      </trkpt>
      <trkpt lat="43.84554" lon="6.51063">
        <ele>725.2</ele>
        <time>2021-09-18T07:56:23Z</time>
      </trkpt>
      <trkpt lat="43.84553" lon="6.51063">
        <ele>725.2</ele>
        <time>2021-09-18T07:56:35Z</time>
      </trkpt>
      <trkpt lat="43.84553" lon="6.51064">
        <ele>725.2</ele>
        <time>2021-09-18T07:56:36Z</time>
      </trkpt>
      <trkpt lat="43.84552" lon="6.51065">
        <ele>725.2</ele>
        <time>2021-09-18T07:56:38Z</time>
      </trkpt>
      <trkpt lat="43.84551" lon="6.51065">
        <ele>725.2</ele>
        <time>2021-09-18T07:56:40Z</time>
      </trkpt>
      <trkpt lat="43.8455" lon="6.51066">
        <ele>725.2</ele>
        <time>2021-09-18T07:56:41Z</time>
      </trkpt>
      <trkpt lat="43.8455" lon="6.51066">
        <ele>725.2</ele>
        <time>2021-09-18T07:56:42Z</time>
      </trkpt>
      <trkpt lat="43.84547" lon="6.51068">
        <ele>725.2</ele>
        <time>2021-09-18T07:56:44Z</time>
      </trkpt>
      <trkpt lat="43.8454" lon="6.51072">
        <ele>725.3</ele>
        <time>2021-09-18T07:56:46Z</time>
      </trkpt>
      <trkpt lat="43.84533" lon="6.51076">
        <ele>725.3</ele>
        <time>2021-09-18T07:56:47Z</time>
      </trkpt>
      <trkpt lat="43.84527" lon="6.51079">
        <ele>725.3</ele>
        <time>2021-09-18T07:56:48Z</time>
      </trkpt>
      <trkpt lat="43.8452" lon="6.51085">
        <ele>725.4</ele>
        <time>2021-09-18T07:56:50Z</time>
      </trkpt>
      <trkpt lat="43.84515" lon="6.5109">
        <ele>725.4</ele>
        <time>2021-09-18T07:56:51Z</time>
      </trkpt>
      <trkpt lat="43.84512" lon="6.51096">
        <ele>725.6</ele>
        <time>2021-09-18T07:56:53Z</time>
      </trkpt>
      <trkpt lat="43.8451" lon="6.511">
        <ele>725.7</ele>
        <time>2021-09-18T07:56:54Z</time>
      </trkpt>
      <trkpt lat="43.8451" lon="6.51103">
        <ele>726.4</ele>
        <time>2021-09-18T07:56:55Z</time>
      </trkpt>
      <trkpt lat="43.84509" lon="6.51107">
        <ele>726.4</ele>
        <time>2021-09-18T07:56:56Z</time>
      </trkpt>
      <trkpt lat="43.84509" lon="6.51112">
        <ele>726.4</ele>
        <time>2021-09-18T07:56:58Z</time>
      </trkpt>
      <trkpt lat="43.84509" lon="6.51117">
        <ele>726.5</ele>
        <time>2021-09-18T07:57:00Z</time>
      </trkpt>
      <trkpt lat="43.84507" lon="6.51124">
        <ele>726.5</ele>
        <time>2021-09-18T07:57:02Z</time>
      </trkpt>
      <trkpt lat="43.84507" lon="6.51131">
        <ele>726.6</ele>
        <time>2021-09-18T07:57:04Z</time>
      </trkpt>
      <trkpt lat="43.84508" lon="6.51136">
        <ele>726.6</ele>
        <time>2021-09-18T07:57:05Z</time>
      </trkpt>
      <trkpt lat="43.84508" lon="6.51142">
        <ele>726.6</ele>
        <time>2021-09-18T07:57:07Z</time>
      </trkpt>
      <trkpt lat="43.84508" lon="6.51148">
        <ele>726.7</ele>
        <time>2021-09-18T07:57:08Z</time>
      </trkpt>
      <trkpt lat="43.84508" lon="6.51152">
        <ele>726.7</ele>
        <time>2021-09-18T07:57:09Z</time>
      </trkpt>
      <trkpt lat="43.84509" lon="6.51156">
        <ele>726.8</ele>
        <time>2021-09-18T07:57:10Z</time>
      </trkpt>
      <trkpt lat="43.84509" lon="6.5116">
        <ele>726.8</ele>
        <time>2021-09-18T07:57:11Z</time>
      </trkpt>
      <trkpt lat="43.8451" lon="6.51165">
        <ele>726.8</ele>
        <time>2021-09-18T07:57:12Z</time>
      </trkpt>
      <trkpt lat="43.84511" lon="6.51171">
        <ele>726.9</ele>
        <time>2021-09-18T07:57:13Z</time>
      </trkpt>
      <trkpt lat="43.84512" lon="6.51175">
        <ele>727</ele>
        <time>2021-09-18T07:57:15Z</time>
      </trkpt>
      <trkpt lat="43.84513" lon="6.51181">
        <ele>727</ele>
        <time>2021-09-18T07:57:16Z</time>
      </trkpt>
      <trkpt lat="43.84513" lon="6.51185">
        <ele>727</ele>
        <time>2021-09-18T07:57:17Z</time>
      </trkpt>
      <trkpt lat="43.84514" lon="6.5119">
        <ele>727.1</ele>
        <time>2021-09-18T07:57:18Z</time>
      </trkpt>
      <trkpt lat="43.84515" lon="6.51197">
        <ele>727.1</ele>
        <time>2021-09-18T07:57:19Z</time>
      </trkpt>
      <trkpt lat="43.84517" lon="6.51205">
        <ele>727.2</ele>
        <time>2021-09-18T07:57:21Z</time>
      </trkpt>
      <trkpt lat="43.84519" lon="6.51214">
        <ele>727.3</ele>
        <time>2021-09-18T07:57:23Z</time>
      </trkpt>
      <trkpt lat="43.84521" lon="6.51221">
        <ele>727.3</ele>
        <time>2021-09-18T07:57:25Z</time>
      </trkpt>
      <trkpt lat="43.84522" lon="6.51227">
        <ele>727.3</ele>
        <time>2021-09-18T07:57:26Z</time>
      </trkpt>
      <trkpt lat="43.84524" lon="6.51234">
        <ele>727.3</ele>
        <time>2021-09-18T07:57:27Z</time>
      </trkpt>
      <trkpt lat="43.84526" lon="6.51239">
        <ele>727.4</ele>
        <time>2021-09-18T07:57:29Z</time>
      </trkpt>
      <trkpt lat="43.84528" lon="6.51244">
        <ele>727.4</ele>
        <time>2021-09-18T07:57:30Z</time>
      </trkpt>
      <trkpt lat="43.8453" lon="6.51249">
        <ele>727.4</ele>
        <time>2021-09-18T07:57:32Z</time>
      </trkpt>
      <trkpt lat="43.84532" lon="6.51253">
        <ele>727.4</ele>
        <time>2021-09-18T07:57:33Z</time>
      </trkpt>
      <trkpt lat="43.84534" lon="6.5126">
        <ele>727.4</ele>
        <time>2021-09-18T07:57:35Z</time>
      </trkpt>
      <trkpt lat="43.84536" lon="6.51267">
        <ele>727.4</ele>
        <time>2021-09-18T07:57:37Z</time>
      </trkpt>
      <trkpt lat="43.84536" lon="6.51272">
        <ele>727.5</ele>
        <time>2021-09-18T07:57:38Z</time>
      </trkpt>
      <trkpt lat="43.84537" lon="6.51276">
        <ele>727.5</ele>
        <time>2021-09-18T07:57:39Z</time>
      </trkpt>
      <trkpt lat="43.84538" lon="6.51281">
        <ele>727.5</ele>
        <time>2021-09-18T07:57:40Z</time>
      </trkpt>
      <trkpt lat="43.8454" lon="6.51285">
        <ele>727.5</ele>
        <time>2021-09-18T07:57:41Z</time>
      </trkpt>
      <trkpt lat="43.84542" lon="6.51291">
        <ele>727.6</ele>
        <time>2021-09-18T07:57:43Z</time>
      </trkpt>
      <trkpt lat="43.84543" lon="6.51297">
        <ele>727.6</ele>
        <time>2021-09-18T07:57:44Z</time>
      </trkpt>
      <trkpt lat="43.84544" lon="6.51302">
        <ele>727.6</ele>
        <time>2021-09-18T07:57:46Z</time>
      </trkpt>
      <trkpt lat="43.84545" lon="6.51307">
        <ele>727.7</ele>
        <time>2021-09-18T07:57:47Z</time>
      </trkpt>
      <trkpt lat="43.84546" lon="6.51311">
        <ele>727.7</ele>
        <time>2021-09-18T07:57:48Z</time>
      </trkpt>
      <trkpt lat="43.84548" lon="6.51318">
        <ele>727.7</ele>
        <time>2021-09-18T07:57:50Z</time>
      </trkpt>
      <trkpt lat="43.8455" lon="6.51326">
        <ele>727.8</ele>
        <time>2021-09-18T07:57:52Z</time>
      </trkpt>
      <trkpt lat="43.84552" lon="6.51334">
        <ele>727.8</ele>
        <time>2021-09-18T07:57:54Z</time>
      </trkpt>
      <trkpt lat="43.84553" lon="6.51338">
        <ele>727.9</ele>
        <time>2021-09-18T07:57:55Z</time>
      </trkpt>
      <trkpt lat="43.84553" lon="6.51345">
        <ele>727.9</ele>
        <time>2021-09-18T07:57:57Z</time>
      </trkpt>
      <trkpt lat="43.84554" lon="6.5135">
        <ele>727.9</ele>
        <time>2021-09-18T07:57:58Z</time>
      </trkpt>
      <trkpt lat="43.84555" lon="6.51356">
        <ele>728</ele>
        <time>2021-09-18T07:57:59Z</time>
      </trkpt>
      <trkpt lat="43.84556" lon="6.51358">
        <ele>728</ele>
        <time>2021-09-18T07:58:00Z</time>
      </trkpt>
      <trkpt lat="43.84558" lon="6.51364">
        <ele>728.1</ele>
        <time>2021-09-18T07:58:02Z</time>
      </trkpt>
      <trkpt lat="43.8456" lon="6.51369">
        <ele>728.1</ele>
        <time>2021-09-18T07:58:03Z</time>
      </trkpt>
      <trkpt lat="43.84562" lon="6.51374">
        <ele>728.2</ele>
        <time>2021-09-18T07:58:04Z</time>
      </trkpt>
      <trkpt lat="43.84564" lon="6.51379">
        <ele>728.2</ele>
        <time>2021-09-18T07:58:06Z</time>
      </trkpt>
      <trkpt lat="43.84566" lon="6.51384">
        <ele>728.3</ele>
        <time>2021-09-18T07:58:07Z</time>
      </trkpt>
      <trkpt lat="43.84566" lon="6.51389">
        <ele>728.3</ele>
        <time>2021-09-18T07:58:09Z</time>
      </trkpt>
      <trkpt lat="43.84567" lon="6.51391">
        <ele>728.3</ele>
        <time>2021-09-18T07:58:10Z</time>
      </trkpt>
      <trkpt lat="43.84568" lon="6.51393">
        <ele>728.3</ele>
        <time>2021-09-18T07:58:11Z</time>
      </trkpt>
      <trkpt lat="43.84569" lon="6.51394">
        <ele>728.3</ele>
        <time>2021-09-18T07:58:12Z</time>
      </trkpt>
      <trkpt lat="43.84569" lon="6.51396">
        <ele>728.4</ele>
        <time>2021-09-18T07:58:13Z</time>
      </trkpt>
      <trkpt lat="43.84569" lon="6.51394">
        <ele>728.4</ele>
        <time>2021-09-18T07:58:15Z</time>
      </trkpt>
      <trkpt lat="43.84568" lon="6.51394">
        <ele>728.4</ele>
        <time>2021-09-18T07:58:16Z</time>
      </trkpt>
      <trkpt lat="43.84569" lon="6.51393">
        <ele>728.4</ele>
        <time>2021-09-18T07:58:18Z</time>
      </trkpt>
      <trkpt lat="43.84569" lon="6.51393">
        <ele>728.4</ele>
        <time>2021-09-18T07:58:19Z</time>
      </trkpt>
      <trkpt lat="43.84569" lon="6.51394">
        <ele>728.4</ele>
        <time>2021-09-18T07:58:20Z</time>
      </trkpt>
      <trkpt lat="43.84569" lon="6.51395">
        <ele>728.4</ele>
        <time>2021-09-18T07:58:21Z</time>
      </trkpt>
      <trkpt lat="43.84569" lon="6.51396">
        <ele>728.4</ele>
        <time>2021-09-18T07:58:22Z</time>
      </trkpt>
      <trkpt lat="43.84568" lon="6.51399">
        <ele>728.4</ele>
        <time>2021-09-18T07:58:24Z</time>
      </trkpt>
      <trkpt lat="43.84565" lon="6.51404">
        <ele>728.6</ele>
        <time>2021-09-18T07:58:26Z</time>
      </trkpt>
      <trkpt lat="43.84563" lon="6.51406">
        <ele>728.6</ele>
        <time>2021-09-18T07:58:27Z</time>
      </trkpt>
      <trkpt lat="43.84562" lon="6.51408">
        <ele>728.7</ele>
        <time>2021-09-18T07:58:28Z</time>
      </trkpt>
      <trkpt lat="43.84559" lon="6.5141">
        <ele>728.7</ele>
        <time>2021-09-18T07:58:29Z</time>
      </trkpt>
      <trkpt lat="43.84553" lon="6.51418">
        <ele>728.9</ele>
        <time>2021-09-18T07:58:31Z</time>
      </trkpt>
      <trkpt lat="43.84549" lon="6.51425">
        <ele>729.1</ele>
        <time>2021-09-18T07:58:32Z</time>
      </trkpt>
      <trkpt lat="43.84545" lon="6.51431">
        <ele>729.3</ele>
        <time>2021-09-18T07:58:34Z</time>
      </trkpt>
      <trkpt lat="43.84542" lon="6.51435">
        <ele>729.4</ele>
        <time>2021-09-18T07:58:35Z</time>
      </trkpt>
      <trkpt lat="43.84538" lon="6.5144">
        <ele>729.6</ele>
        <time>2021-09-18T07:58:36Z</time>
      </trkpt>
      <trkpt lat="43.84534" lon="6.51447">
        <ele>729.7</ele>
        <time>2021-09-18T07:58:38Z</time>
      </trkpt>
      <trkpt lat="43.84531" lon="6.51452">
        <ele>729.9</ele>
        <time>2021-09-18T07:58:40Z</time>
      </trkpt>
      <trkpt lat="43.84529" lon="6.51455">
        <ele>730.1</ele>
        <time>2021-09-18T07:58:41Z</time>
      </trkpt>
      <trkpt lat="43.84527" lon="6.51458">
        <ele>730.2</ele>
        <time>2021-09-18T07:58:42Z</time>
      </trkpt>
      <trkpt lat="43.84523" lon="6.51463">
        <ele>730.5</ele>
        <time>2021-09-18T07:58:44Z</time>
      </trkpt>
      <trkpt lat="43.84521" lon="6.51465">
        <ele>730.6</ele>
        <time>2021-09-18T07:58:45Z</time>
      </trkpt>
      <trkpt lat="43.84517" lon="6.51471">
        <ele>730.9</ele>
        <time>2021-09-18T07:58:47Z</time>
      </trkpt>
      <trkpt lat="43.84516" lon="6.51475">
        <ele>731.1</ele>
        <time>2021-09-18T07:58:48Z</time>
      </trkpt>
      <trkpt lat="43.84514" lon="6.51482">
        <ele>731.3</ele>
        <time>2021-09-18T07:58:50Z</time>
      </trkpt>
      <trkpt lat="43.84512" lon="6.51486">
        <ele>731.5</ele>
        <time>2021-09-18T07:58:51Z</time>
      </trkpt>
      <trkpt lat="43.84511" lon="6.51489">
        <ele>731.6</ele>
        <time>2021-09-18T07:58:52Z</time>
      </trkpt>
      <trkpt lat="43.84511" lon="6.51496">
        <ele>731.7</ele>
        <time>2021-09-18T07:58:54Z</time>
      </trkpt>
      <trkpt lat="43.84511" lon="6.51502">
        <ele>731.7</ele>
        <time>2021-09-18T07:58:56Z</time>
      </trkpt>
      <trkpt lat="43.8451" lon="6.51507">
        <ele>731.8</ele>
        <time>2021-09-18T07:58:57Z</time>
      </trkpt>
      <trkpt lat="43.84511" lon="6.51514">
        <ele>732</ele>
        <time>2021-09-18T07:58:59Z</time>
      </trkpt>
      <trkpt lat="43.8451" lon="6.51518">
        <ele>732.2</ele>
        <time>2021-09-18T07:59:00Z</time>
      </trkpt>
      <trkpt lat="43.84509" lon="6.51524">
        <ele>732.4</ele>
        <time>2021-09-18T07:59:02Z</time>
      </trkpt>
      <trkpt lat="43.84509" lon="6.51527">
        <ele>732.5</ele>
        <time>2021-09-18T07:59:03Z</time>
      </trkpt>
      <trkpt lat="43.8451" lon="6.51534">
        <ele>732.7</ele>
        <time>2021-09-18T07:59:05Z</time>
      </trkpt>
      <trkpt lat="43.84511" lon="6.51538">
        <ele>732.9</ele>
        <time>2021-09-18T07:59:06Z</time>
      </trkpt>
      <trkpt lat="43.84511" lon="6.5154">
        <ele>733</ele>
        <time>2021-09-18T07:59:07Z</time>
      </trkpt>
      <trkpt lat="43.84512" lon="6.51545">
        <ele>733.2</ele>
        <time>2021-09-18T07:59:08Z</time>
      </trkpt>
      <trkpt lat="43.84512" lon="6.51552">
        <ele>733.5</ele>
        <time>2021-09-18T07:59:10Z</time>
      </trkpt>
      <trkpt lat="43.84512" lon="6.51556">
        <ele>733.7</ele>
        <time>2021-09-18T07:59:11Z</time>
      </trkpt>
      <trkpt lat="43.84512" lon="6.51561">
        <ele>733.8</ele>
        <time>2021-09-18T07:59:12Z</time>
      </trkpt>
      <trkpt lat="43.84512" lon="6.51565">
        <ele>734</ele>
        <time>2021-09-18T07:59:13Z</time>
      </trkpt>
      <trkpt lat="43.84514" lon="6.51573">
        <ele>734.4</ele>
        <time>2021-09-18T07:59:15Z</time>
      </trkpt>
      <trkpt lat="43.84516" lon="6.51579">
        <ele>734.6</ele>
        <time>2021-09-18T07:59:17Z</time>
      </trkpt>
      <trkpt lat="43.84517" lon="6.51584">
        <ele>734.8</ele>
        <time>2021-09-18T07:59:18Z</time>
      </trkpt>
      <trkpt lat="43.84517" lon="6.51587">
        <ele>734.9</ele>
        <time>2021-09-18T07:59:19Z</time>
      </trkpt>
      <trkpt lat="43.84517" lon="6.51594">
        <ele>735.2</ele>
        <time>2021-09-18T07:59:21Z</time>
      </trkpt>
      <trkpt lat="43.84516" lon="6.51597">
        <ele>735.3</ele>
        <time>2021-09-18T07:59:22Z</time>
      </trkpt>
      <trkpt lat="43.84515" lon="6.51601">
        <ele>735.5</ele>
        <time>2021-09-18T07:59:23Z</time>
      </trkpt>
      <trkpt lat="43.84515" lon="6.51605">
        <ele>735.6</ele>
        <time>2021-09-18T07:59:24Z</time>
      </trkpt>
      <trkpt lat="43.84515" lon="6.51613">
        <ele>735.8</ele>
        <time>2021-09-18T07:59:26Z</time>
      </trkpt>
      <trkpt lat="43.84514" lon="6.51618">
        <ele>735.9</ele>
        <time>2021-09-18T07:59:27Z</time>
      </trkpt>
      <trkpt lat="43.84514" lon="6.51623">
        <ele>736</ele>
        <time>2021-09-18T07:59:28Z</time>
      </trkpt>
      <trkpt lat="43.84513" lon="6.51629">
        <ele>736.1</ele>
        <time>2021-09-18T07:59:30Z</time>
      </trkpt>
      <trkpt lat="43.84512" lon="6.51633">
        <ele>736.2</ele>
        <time>2021-09-18T07:59:31Z</time>
      </trkpt>
      <trkpt lat="43.84511" lon="6.51638">
        <ele>736.3</ele>
        <time>2021-09-18T07:59:32Z</time>
      </trkpt>
      <trkpt lat="43.8451" lon="6.51642">
        <ele>736.3</ele>
        <time>2021-09-18T07:59:33Z</time>
      </trkpt>
      <trkpt lat="43.8451" lon="6.5165">
        <ele>736.5</ele>
        <time>2021-09-18T07:59:35Z</time>
      </trkpt>
      <trkpt lat="43.8451" lon="6.51655">
        <ele>736.5</ele>
        <time>2021-09-18T07:59:36Z</time>
      </trkpt>
      <trkpt lat="43.8451" lon="6.51659">
        <ele>736.5</ele>
        <time>2021-09-18T07:59:37Z</time>
      </trkpt>
      <trkpt lat="43.84511" lon="6.51664">
        <ele>736.5</ele>
        <time>2021-09-18T07:59:38Z</time>
      </trkpt>
      <trkpt lat="43.84512" lon="6.51671">
        <ele>736.6</ele>
        <time>2021-09-18T07:59:40Z</time>
      </trkpt>
      <trkpt lat="43.84513" lon="6.51678">
        <ele>736.6</ele>
        <time>2021-09-18T07:59:41Z</time>
      </trkpt>
      <trkpt lat="43.84514" lon="6.51686">
        <ele>736.6</ele>
        <time>2021-09-18T07:59:43Z</time>
      </trkpt>
      <trkpt lat="43.84514" lon="6.51691">
        <ele>736.6</ele>
        <time>2021-09-18T07:59:44Z</time>
      </trkpt>
      <trkpt lat="43.84514" lon="6.51696">
        <ele>736.7</ele>
        <time>2021-09-18T07:59:45Z</time>
      </trkpt>
      <trkpt lat="43.84515" lon="6.51701">
        <ele>736.7</ele>
        <time>2021-09-18T07:59:46Z</time>
      </trkpt>
      <trkpt lat="43.84516" lon="6.51707">
        <ele>736.7</ele>
        <time>2021-09-18T07:59:47Z</time>
      </trkpt>
      <trkpt lat="43.84517" lon="6.51713">
        <ele>736.7</ele>
        <time>2021-09-18T07:59:48Z</time>
      </trkpt>
      <trkpt lat="43.84517" lon="6.51722">
        <ele>736.7</ele>
        <time>2021-09-18T07:59:50Z</time>
      </trkpt>
      <trkpt lat="43.84516" lon="6.51729">
        <ele>736.7</ele>
        <time>2021-09-18T07:59:51Z</time>
      </trkpt>
      <trkpt lat="43.84515" lon="6.51734">
        <ele>736.8</ele>
        <time>2021-09-18T07:59:52Z</time>
      </trkpt>
      <trkpt lat="43.84512" lon="6.51745">
        <ele>736.8</ele>
        <time>2021-09-18T07:59:54Z</time>
      </trkpt>
      <trkpt lat="43.8451" lon="6.51755">
        <ele>736.8</ele>
        <time>2021-09-18T07:59:56Z</time>
      </trkpt>
      <trkpt lat="43.84507" lon="6.51762">
        <ele>736.9</ele>
        <time>2021-09-18T07:59:57Z</time>
      </trkpt>
      <trkpt lat="43.84504" lon="6.51772">
        <ele>736.9</ele>
        <time>2021-09-18T07:59:59Z</time>
      </trkpt>
      <trkpt lat="43.84503" lon="6.51778">
        <ele>736.9</ele>
        <time>2021-09-18T08:00:00Z</time>
      </trkpt>
      <trkpt lat="43.84503" lon="6.51785">
        <ele>736.9</ele>
        <time>2021-09-18T08:00:01Z</time>
      </trkpt>
      <trkpt lat="43.84504" lon="6.51797">
        <ele>736.9</ele>
        <time>2021-09-18T08:00:03Z</time>
      </trkpt>
      <trkpt lat="43.84503" lon="6.51806">
        <ele>736.9</ele>
        <time>2021-09-18T08:00:04Z</time>
      </trkpt>
      <trkpt lat="43.84502" lon="6.51812">
        <ele>737</ele>
        <time>2021-09-18T08:00:05Z</time>
      </trkpt>
      <trkpt lat="43.845" lon="6.51817">
        <ele>737</ele>
        <time>2021-09-18T08:00:06Z</time>
      </trkpt>
      <trkpt lat="43.84498" lon="6.51827">
        <ele>737</ele>
        <time>2021-09-18T08:00:08Z</time>
      </trkpt>
      <trkpt lat="43.84497" lon="6.51834">
        <ele>737</ele>
        <time>2021-09-18T08:00:09Z</time>
      </trkpt>
      <trkpt lat="43.84496" lon="6.51839">
        <ele>737</ele>
        <time>2021-09-18T08:00:10Z</time>
      </trkpt>
      <trkpt lat="43.84495" lon="6.51844">
        <ele>737</ele>
        <time>2021-09-18T08:00:11Z</time>
      </trkpt>
      <trkpt lat="43.84493" lon="6.51849">
        <ele>736.9</ele>
        <time>2021-09-18T08:00:12Z</time>
      </trkpt>
      <trkpt lat="43.84491" lon="6.51853">
        <ele>736.9</ele>
        <time>2021-09-18T08:00:13Z</time>
      </trkpt>
      <trkpt lat="43.8449" lon="6.51858">
        <ele>736.9</ele>
        <time>2021-09-18T08:00:14Z</time>
      </trkpt>
      <trkpt lat="43.84486" lon="6.51866">
        <ele>736.9</ele>
        <time>2021-09-18T08:00:16Z</time>
      </trkpt>
      <trkpt lat="43.84483" lon="6.51873">
        <ele>736.9</ele>
        <time>2021-09-18T08:00:17Z</time>
      </trkpt>
      <trkpt lat="43.84481" lon="6.51878">
        <ele>736.8</ele>
        <time>2021-09-18T08:00:18Z</time>
      </trkpt>
      <trkpt lat="43.84476" lon="6.51886">
        <ele>736.8</ele>
        <time>2021-09-18T08:00:20Z</time>
      </trkpt>
      <trkpt lat="43.8447" lon="6.51894">
        <ele>736.7</ele>
        <time>2021-09-18T08:00:22Z</time>
      </trkpt>
      <trkpt lat="43.84466" lon="6.51898">
        <ele>736.6</ele>
        <time>2021-09-18T08:00:23Z</time>
      </trkpt>
      <trkpt lat="43.84462" lon="6.51904">
        <ele>736.5</ele>
        <time>2021-09-18T08:00:25Z</time>
      </trkpt>
      <trkpt lat="43.84462" lon="6.51906">
        <ele>736.5</ele>
        <time>2021-09-18T08:00:26Z</time>
      </trkpt>
      <trkpt lat="43.8446" lon="6.51912">
        <ele>736.4</ele>
        <time>2021-09-18T08:00:28Z</time>
      </trkpt>
      <trkpt lat="43.84455" lon="6.51918">
        <ele>736.3</ele>
        <time>2021-09-18T08:00:30Z</time>
      </trkpt>
      <trkpt lat="43.84452" lon="6.51921">
        <ele>736.3</ele>
        <time>2021-09-18T08:00:31Z</time>
      </trkpt>
      <trkpt lat="43.84444" lon="6.5193">
        <ele>736.2</ele>
        <time>2021-09-18T08:00:33Z</time>
      </trkpt>
      <trkpt lat="43.8444" lon="6.51935">
        <ele>736.2</ele>
        <time>2021-09-18T08:00:34Z</time>
      </trkpt>
      <trkpt lat="43.84429" lon="6.51943">
        <ele>736.2</ele>
        <time>2021-09-18T08:00:36Z</time>
      </trkpt>
      <trkpt lat="43.8442" lon="6.5195">
        <ele>736.2</ele>
        <time>2021-09-18T08:00:37Z</time>
      </trkpt>
      <trkpt lat="43.84405" lon="6.51985">
        <ele>736.4</ele>
        <time>2021-09-18T08:00:39Z</time>
      </trkpt>
      <trkpt lat="43.84399" lon="6.52006">
        <ele>736.5</ele>
        <time>2021-09-18T08:00:41Z</time>
      </trkpt>
      <trkpt lat="43.84395" lon="6.52014">
        <ele>736.6</ele>
        <time>2021-09-18T08:00:42Z</time>
      </trkpt>
      <trkpt lat="43.8439" lon="6.52027">
        <ele>736.6</ele>
        <time>2021-09-18T08:00:44Z</time>
      </trkpt>
      <trkpt lat="43.84386" lon="6.5204">
        <ele>736.6</ele>
        <time>2021-09-18T08:00:46Z</time>
      </trkpt>
      <trkpt lat="43.84383" lon="6.52052">
        <ele>736.7</ele>
        <time>2021-09-18T08:00:48Z</time>
      </trkpt>
      <trkpt lat="43.84381" lon="6.52063">
        <ele>736.7</ele>
        <time>2021-09-18T08:00:50Z</time>
      </trkpt>
      <trkpt lat="43.84378" lon="6.52069">
        <ele>736.8</ele>
        <time>2021-09-18T08:00:51Z</time>
      </trkpt>
      <trkpt lat="43.84376" lon="6.5208">
        <ele>736.8</ele>
        <time>2021-09-18T08:00:53Z</time>
      </trkpt>
      <trkpt lat="43.84375" lon="6.52088">
        <ele>736.8</ele>
        <time>2021-09-18T08:00:55Z</time>
      </trkpt>
      <trkpt lat="43.84371" lon="6.52097">
        <ele>736.8</ele>
        <time>2021-09-18T08:00:57Z</time>
      </trkpt>
      <trkpt lat="43.84366" lon="6.52108">
        <ele>736.9</ele>
        <time>2021-09-18T08:00:59Z</time>
      </trkpt>
      <trkpt lat="43.84366" lon="6.52109">
        <ele>736.9</ele>
        <time>2021-09-18T08:01:01Z</time>
      </trkpt>
      <trkpt lat="43.84308" lon="6.52217">
        <ele>737.1</ele>
        <time>2021-09-18T08:01:20Z</time>
      </trkpt>
      <trkpt lat="43.843" lon="6.52235">
        <ele>737.2</ele>
        <time>2021-09-18T08:01:21Z</time>
      </trkpt>
      <trkpt lat="43.84294" lon="6.52249">
        <ele>737.3</ele>
        <time>2021-09-18T08:01:22Z</time>
      </trkpt>
      <trkpt lat="43.84284" lon="6.52268">
        <ele>737.3</ele>
        <time>2021-09-18T08:01:24Z</time>
      </trkpt>
      <trkpt lat="43.84281" lon="6.52275">
        <ele>737.3</ele>
        <time>2021-09-18T08:01:25Z</time>
      </trkpt>
      <trkpt lat="43.84279" lon="6.52281">
        <ele>737.3</ele>
        <time>2021-09-18T08:01:26Z</time>
      </trkpt>
      <trkpt lat="43.84279" lon="6.52292">
        <ele>737.3</ele>
        <time>2021-09-18T08:01:28Z</time>
      </trkpt>
      <trkpt lat="43.84275" lon="6.523">
        <ele>737.3</ele>
        <time>2021-09-18T08:01:29Z</time>
      </trkpt>
      <trkpt lat="43.8427" lon="6.52315">
        <ele>737.4</ele>
        <time>2021-09-18T08:01:31Z</time>
      </trkpt>
      <trkpt lat="43.84267" lon="6.52332">
        <ele>737.4</ele>
        <time>2021-09-18T08:01:33Z</time>
      </trkpt>
      <trkpt lat="43.84266" lon="6.5234">
        <ele>737.5</ele>
        <time>2021-09-18T08:01:34Z</time>
      </trkpt>
      <trkpt lat="43.84265" lon="6.52348">
        <ele>737.5</ele>
        <time>2021-09-18T08:01:35Z</time>
      </trkpt>
      <trkpt lat="43.84262" lon="6.52355">
        <ele>737.5</ele>
        <time>2021-09-18T08:01:36Z</time>
      </trkpt>
      <trkpt lat="43.84258" lon="6.52367">
        <ele>737.6</ele>
        <time>2021-09-18T08:01:38Z</time>
      </trkpt>
      <trkpt lat="43.8425" lon="6.52373">
        <ele>737.7</ele>
        <time>2021-09-18T08:01:40Z</time>
      </trkpt>
      <trkpt lat="43.84247" lon="6.52371">
        <ele>737.7</ele>
        <time>2021-09-18T08:01:41Z</time>
      </trkpt>
      <trkpt lat="43.84243" lon="6.52371">
        <ele>737.7</ele>
        <time>2021-09-18T08:01:42Z</time>
      </trkpt>
      <trkpt lat="43.84239" lon="6.52383">
        <ele>737.8</ele>
        <time>2021-09-18T08:01:44Z</time>
      </trkpt>
      <trkpt lat="43.84236" lon="6.52393">
        <ele>737.7</ele>
        <time>2021-09-18T08:01:45Z</time>
      </trkpt>
      <trkpt lat="43.84235" lon="6.52399">
        <ele>737.7</ele>
        <time>2021-09-18T08:01:46Z</time>
      </trkpt>
      <trkpt lat="43.84235" lon="6.52403">
        <ele>737.7</ele>
        <time>2021-09-18T08:01:47Z</time>
      </trkpt>
      <trkpt lat="43.84234" lon="6.5241">
        <ele>737.7</ele>
        <time>2021-09-18T08:01:49Z</time>
      </trkpt>
      <trkpt lat="43.84233" lon="6.52417">
        <ele>737.6</ele>
        <time>2021-09-18T08:01:50Z</time>
      </trkpt>
      <trkpt lat="43.84231" lon="6.52438">
        <ele>737.4</ele>
        <time>2021-09-18T08:01:51Z</time>
      </trkpt>
      <trkpt lat="43.84229" lon="6.52457">
        <ele>737.2</ele>
        <time>2021-09-18T08:01:53Z</time>
      </trkpt>
      <trkpt lat="43.84228" lon="6.52465">
        <ele>737.1</ele>
        <time>2021-09-18T08:01:54Z</time>
      </trkpt>
      <trkpt lat="43.84227" lon="6.52472">
        <ele>737.1</ele>
        <time>2021-09-18T08:01:55Z</time>
      </trkpt>
      <trkpt lat="43.84227" lon="6.52479">
        <ele>737</ele>
        <time>2021-09-18T08:01:56Z</time>
      </trkpt>
      <trkpt lat="43.84225" lon="6.52486">
        <ele>736.9</ele>
        <time>2021-09-18T08:01:57Z</time>
      </trkpt>
      <trkpt lat="43.84224" lon="6.52504">
        <ele>736.6</ele>
        <time>2021-09-18T08:01:59Z</time>
      </trkpt>
      <trkpt lat="43.84224" lon="6.52514">
        <ele>736.5</ele>
        <time>2021-09-18T08:02:00Z</time>
      </trkpt>
      <trkpt lat="43.84222" lon="6.52525">
        <ele>736.4</ele>
        <time>2021-09-18T08:02:01Z</time>
      </trkpt>
      <trkpt lat="43.8422" lon="6.52537">
        <ele>736.2</ele>
        <time>2021-09-18T08:02:02Z</time>
      </trkpt>
      <trkpt lat="43.84217" lon="6.52556">
        <ele>736</ele>
        <time>2021-09-18T08:02:04Z</time>
      </trkpt>
      <trkpt lat="43.84213" lon="6.5257">
        <ele>735.8</ele>
        <time>2021-09-18T08:02:06Z</time>
      </trkpt>
      <trkpt lat="43.84212" lon="6.52576">
        <ele>735.3</ele>
        <time>2021-09-18T08:02:07Z</time>
      </trkpt>
      <trkpt lat="43.84214" lon="6.52582">
        <ele>735.2</ele>
        <time>2021-09-18T08:02:08Z</time>
      </trkpt>
      <trkpt lat="43.8422" lon="6.52586">
        <ele>734.4</ele>
        <time>2021-09-18T08:02:10Z</time>
      </trkpt>
      <trkpt lat="43.84222" lon="6.52587">
        <ele>734.2</ele>
        <time>2021-09-18T08:02:11Z</time>
      </trkpt>
      <trkpt lat="43.84224" lon="6.52591">
        <ele>733.8</ele>
        <time>2021-09-18T08:02:13Z</time>
      </trkpt>
      <trkpt lat="43.84226" lon="6.52595">
        <ele>733.9</ele>
        <time>2021-09-18T08:02:14Z</time>
      </trkpt>
      <trkpt lat="43.84228" lon="6.52599">
        <ele>733.7</ele>
        <time>2021-09-18T08:02:16Z</time>
      </trkpt>
      <trkpt lat="43.84229" lon="6.52599">
        <ele>733.9</ele>
        <time>2021-09-18T08:02:17Z</time>
      </trkpt>
      <trkpt lat="43.84229" lon="6.52603">
        <ele>733.9</ele>
        <time>2021-09-18T08:02:18Z</time>
      </trkpt>
      <trkpt lat="43.8423" lon="6.52608">
        <ele>733.9</ele>
        <time>2021-09-18T08:02:20Z</time>
      </trkpt>
      <trkpt lat="43.8423" lon="6.52614">
        <ele>733.8</ele>
        <time>2021-09-18T08:02:21Z</time>
      </trkpt>
      <trkpt lat="43.8423" lon="6.52616">
        <ele>733.9</ele>
        <time>2021-09-18T08:02:22Z</time>
      </trkpt>
      <trkpt lat="43.84231" lon="6.52622">
        <ele>734</ele>
        <time>2021-09-18T08:02:24Z</time>
      </trkpt>
      <trkpt lat="43.84232" lon="6.52625">
        <ele>734.2</ele>
        <time>2021-09-18T08:02:25Z</time>
      </trkpt>
      <trkpt lat="43.84233" lon="6.52627">
        <ele>734.4</ele>
        <time>2021-09-18T08:02:26Z</time>
      </trkpt>
      <trkpt lat="43.84235" lon="6.52631">
        <ele>734.5</ele>
        <time>2021-09-18T08:02:28Z</time>
      </trkpt>
      <trkpt lat="43.84237" lon="6.52634">
        <ele>734.6</ele>
        <time>2021-09-18T08:02:29Z</time>
      </trkpt>
      <trkpt lat="43.84239" lon="6.52639">
        <ele>734.6</ele>
        <time>2021-09-18T08:02:30Z</time>
      </trkpt>
      <trkpt lat="43.84242" lon="6.52643">
        <ele>734.7</ele>
        <time>2021-09-18T08:02:31Z</time>
      </trkpt>
      <trkpt lat="43.84246" lon="6.52649">
        <ele>733.8</ele>
        <time>2021-09-18T08:02:33Z</time>
      </trkpt>
      <trkpt lat="43.84251" lon="6.52656">
        <ele>732.8</ele>
        <time>2021-09-18T08:02:35Z</time>
      </trkpt>
      <trkpt lat="43.84256" lon="6.52661">
        <ele>731.7</ele>
        <time>2021-09-18T08:02:36Z</time>
      </trkpt>
      <trkpt lat="43.84263" lon="6.52669">
        <ele>730.6</ele>
        <time>2021-09-18T08:02:38Z</time>
      </trkpt>
      <trkpt lat="43.84267" lon="6.52673">
        <ele>729.8</ele>
        <time>2021-09-18T08:02:39Z</time>
      </trkpt>
      <trkpt lat="43.84274" lon="6.52681">
        <ele>729.2</ele>
        <time>2021-09-18T08:02:41Z</time>
      </trkpt>
      <trkpt lat="43.84278" lon="6.52685">
        <ele>729.3</ele>
        <time>2021-09-18T08:02:42Z</time>
      </trkpt>
      <trkpt lat="43.84285" lon="6.52693">
        <ele>729.4</ele>
        <time>2021-09-18T08:02:44Z</time>
      </trkpt>
      <trkpt lat="43.84289" lon="6.52697">
        <ele>729.6</ele>
        <time>2021-09-18T08:02:45Z</time>
      </trkpt>
      <trkpt lat="43.84295" lon="6.52702">
        <ele>729.8</ele>
        <time>2021-09-18T08:02:46Z</time>
      </trkpt>
      <trkpt lat="43.843" lon="6.52707">
        <ele>730.1</ele>
        <time>2021-09-18T08:02:48Z</time>
      </trkpt>
      <trkpt lat="43.84304" lon="6.52711">
        <ele>730.3</ele>
        <time>2021-09-18T08:02:49Z</time>
      </trkpt>
      <trkpt lat="43.84309" lon="6.52715">
        <ele>730.4</ele>
        <time>2021-09-18T08:02:50Z</time>
      </trkpt>
      <trkpt lat="43.84313" lon="6.5272">
        <ele>730.6</ele>
        <time>2021-09-18T08:02:52Z</time>
      </trkpt>
      <trkpt lat="43.84317" lon="6.52725">
        <ele>730.9</ele>
        <time>2021-09-18T08:02:53Z</time>
      </trkpt>
      <trkpt lat="43.84321" lon="6.52728">
        <ele>731.1</ele>
        <time>2021-09-18T08:02:54Z</time>
      </trkpt>
      <trkpt lat="43.84327" lon="6.52734">
        <ele>731.4</ele>
        <time>2021-09-18T08:02:56Z</time>
      </trkpt>
      <trkpt lat="43.84333" lon="6.52739">
        <ele>731.7</ele>
        <time>2021-09-18T08:02:58Z</time>
      </trkpt>
      <trkpt lat="43.84337" lon="6.52743">
        <ele>732</ele>
        <time>2021-09-18T08:02:59Z</time>
      </trkpt>
      <trkpt lat="43.84339" lon="6.52748">
        <ele>732.2</ele>
        <time>2021-09-18T08:03:00Z</time>
      </trkpt>
      <trkpt lat="43.84339" lon="6.52755">
        <ele>732.3</ele>
        <time>2021-09-18T08:03:02Z</time>
      </trkpt>
      <trkpt lat="43.84337" lon="6.52762">
        <ele>732.3</ele>
        <time>2021-09-18T08:03:04Z</time>
      </trkpt>
      <trkpt lat="43.84335" lon="6.52768">
        <ele>732.5</ele>
        <time>2021-09-18T08:03:05Z</time>
      </trkpt>
      <trkpt lat="43.84334" lon="6.52773">
        <ele>732.7</ele>
        <time>2021-09-18T08:03:06Z</time>
      </trkpt>
      <trkpt lat="43.84333" lon="6.52782">
        <ele>733</ele>
        <time>2021-09-18T08:03:08Z</time>
      </trkpt>
      <trkpt lat="43.84333" lon="6.52788">
        <ele>733.3</ele>
        <time>2021-09-18T08:03:09Z</time>
      </trkpt>
      <trkpt lat="43.84332" lon="6.52797">
        <ele>733.6</ele>
        <time>2021-09-18T08:03:11Z</time>
      </trkpt>
      <trkpt lat="43.84333" lon="6.52805">
        <ele>733.9</ele>
        <time>2021-09-18T08:03:12Z</time>
      </trkpt>
      <trkpt lat="43.84333" lon="6.52813">
        <ele>734.3</ele>
        <time>2021-09-18T08:03:14Z</time>
      </trkpt>
      <trkpt lat="43.84332" lon="6.52822">
        <ele>734.6</ele>
        <time>2021-09-18T08:03:16Z</time>
      </trkpt>
      <trkpt lat="43.84332" lon="6.52828">
        <ele>734.8</ele>
        <time>2021-09-18T08:03:17Z</time>
      </trkpt>
      <trkpt lat="43.84332" lon="6.52833">
        <ele>735.2</ele>
        <time>2021-09-18T08:03:18Z</time>
      </trkpt>
      <trkpt lat="43.84332" lon="6.5284">
        <ele>735.4</ele>
        <time>2021-09-18T08:03:19Z</time>
      </trkpt>
      <trkpt lat="43.84333" lon="6.52848">
        <ele>735.7</ele>
        <time>2021-09-18T08:03:21Z</time>
      </trkpt>
      <trkpt lat="43.84334" lon="6.52852">
        <ele>735.9</ele>
        <time>2021-09-18T08:03:22Z</time>
      </trkpt>
      <trkpt lat="43.84337" lon="6.5286">
        <ele>736.2</ele>
        <time>2021-09-18T08:03:24Z</time>
      </trkpt>
      <trkpt lat="43.84338" lon="6.52864">
        <ele>736.5</ele>
        <time>2021-09-18T08:03:25Z</time>
      </trkpt>
      <trkpt lat="43.84336" lon="6.5287">
        <ele>736.7</ele>
        <time>2021-09-18T08:03:27Z</time>
      </trkpt>
      <trkpt lat="43.84335" lon="6.52873">
        <ele>737</ele>
        <time>2021-09-18T08:03:28Z</time>
      </trkpt>
      <trkpt lat="43.84333" lon="6.52876">
        <ele>737</ele>
        <time>2021-09-18T08:03:29Z</time>
      </trkpt>
      <trkpt lat="43.84331" lon="6.52881">
        <ele>737</ele>
        <time>2021-09-18T08:03:31Z</time>
      </trkpt>
      <trkpt lat="43.8433" lon="6.52885">
        <ele>737</ele>
        <time>2021-09-18T08:03:32Z</time>
      </trkpt>
      <trkpt lat="43.84329" lon="6.5289">
        <ele>737.1</ele>
        <time>2021-09-18T08:03:33Z</time>
      </trkpt>
      <trkpt lat="43.84328" lon="6.52895">
        <ele>737.1</ele>
        <time>2021-09-18T08:03:35Z</time>
      </trkpt>
      <trkpt lat="43.84327" lon="6.529">
        <ele>737.1</ele>
        <time>2021-09-18T08:03:36Z</time>
      </trkpt>
      <trkpt lat="43.84326" lon="6.52905">
        <ele>737.1</ele>
        <time>2021-09-18T08:03:37Z</time>
      </trkpt>
      <trkpt lat="43.84326" lon="6.52911">
        <ele>737.2</ele>
        <time>2021-09-18T08:03:39Z</time>
      </trkpt>
      <trkpt lat="43.84325" lon="6.52919">
        <ele>737.2</ele>
        <time>2021-09-18T08:03:40Z</time>
      </trkpt>
      <trkpt lat="43.84325" lon="6.52925">
        <ele>737.3</ele>
        <time>2021-09-18T08:03:42Z</time>
      </trkpt>
      <trkpt lat="43.84325" lon="6.52932">
        <ele>737.3</ele>
        <time>2021-09-18T08:03:44Z</time>
      </trkpt>
      <trkpt lat="43.84324" lon="6.52938">
        <ele>737.3</ele>
        <time>2021-09-18T08:03:45Z</time>
      </trkpt>
      <trkpt lat="43.84324" lon="6.52945">
        <ele>737.4</ele>
        <time>2021-09-18T08:03:47Z</time>
      </trkpt>
      <trkpt lat="43.84323" lon="6.5295">
        <ele>737.4</ele>
        <time>2021-09-18T08:03:48Z</time>
      </trkpt>
      <trkpt lat="43.84323" lon="6.52959">
        <ele>737.4</ele>
        <time>2021-09-18T08:03:50Z</time>
      </trkpt>
      <trkpt lat="43.84322" lon="6.52965">
        <ele>737.4</ele>
        <time>2021-09-18T08:03:51Z</time>
      </trkpt>
      <trkpt lat="43.84321" lon="6.52971">
        <ele>737.4</ele>
        <time>2021-09-18T08:03:52Z</time>
      </trkpt>
      <trkpt lat="43.8432" lon="6.52979">
        <ele>737.5</ele>
        <time>2021-09-18T08:03:54Z</time>
      </trkpt>
      <trkpt lat="43.84319" lon="6.52986">
        <ele>737.5</ele>
        <time>2021-09-18T08:03:55Z</time>
      </trkpt>
      <trkpt lat="43.8432" lon="6.52997">
        <ele>737.6</ele>
        <time>2021-09-18T08:03:57Z</time>
      </trkpt>
      <trkpt lat="43.8432" lon="6.53007">
        <ele>737.7</ele>
        <time>2021-09-18T08:03:59Z</time>
      </trkpt>
      <trkpt lat="43.8432" lon="6.53015">
        <ele>737.8</ele>
        <time>2021-09-18T08:04:00Z</time>
      </trkpt>
      <trkpt lat="43.84318" lon="6.53026">
        <ele>737.9</ele>
        <time>2021-09-18T08:04:02Z</time>
      </trkpt>
      <trkpt lat="43.84318" lon="6.53032">
        <ele>738</ele>
        <time>2021-09-18T08:04:03Z</time>
      </trkpt>
      <trkpt lat="43.84319" lon="6.53038">
        <ele>738</ele>
        <time>2021-09-18T08:04:04Z</time>
      </trkpt>
      <trkpt lat="43.84319" lon="6.53044">
        <ele>738</ele>
        <time>2021-09-18T08:04:05Z</time>
      </trkpt>
      <trkpt lat="43.8432" lon="6.53055">
        <ele>738</ele>
        <time>2021-09-18T08:04:07Z</time>
      </trkpt>
      <trkpt lat="43.84321" lon="6.53061">
        <ele>738</ele>
        <time>2021-09-18T08:04:08Z</time>
      </trkpt>
      <trkpt lat="43.84324" lon="6.53072">
        <ele>738</ele>
        <time>2021-09-18T08:04:10Z</time>
      </trkpt>
      <trkpt lat="43.84326" lon="6.53077">
        <ele>738.1</ele>
        <time>2021-09-18T08:04:11Z</time>
      </trkpt>
      <trkpt lat="43.84329" lon="6.5308">
        <ele>738.1</ele>
        <time>2021-09-18T08:04:12Z</time>
      </trkpt>
      <trkpt lat="43.84335" lon="6.53083">
        <ele>738.2</ele>
        <time>2021-09-18T08:04:14Z</time>
      </trkpt>
      <trkpt lat="43.84338" lon="6.53085">
        <ele>738.2</ele>
        <time>2021-09-18T08:04:15Z</time>
      </trkpt>
      <trkpt lat="43.84341" lon="6.53091">
        <ele>738.4</ele>
        <time>2021-09-18T08:04:17Z</time>
      </trkpt>
      <trkpt lat="43.84344" lon="6.53095">
        <ele>738.5</ele>
        <time>2021-09-18T08:04:18Z</time>
      </trkpt>
      <trkpt lat="43.84345" lon="6.53097">
        <ele>738.5</ele>
        <time>2021-09-18T08:04:19Z</time>
      </trkpt>
      <trkpt lat="43.84347" lon="6.53104">
        <ele>738.6</ele>
        <time>2021-09-18T08:04:21Z</time>
      </trkpt>
      <trkpt lat="43.84347" lon="6.53107">
        <ele>738.7</ele>
        <time>2021-09-18T08:04:23Z</time>
      </trkpt>
      <trkpt lat="43.84348" lon="6.53109">
        <ele>738.8</ele>
        <time>2021-09-18T08:04:24Z</time>
      </trkpt>
      <trkpt lat="43.84348" lon="6.53112">
        <ele>738.8</ele>
        <time>2021-09-18T08:04:25Z</time>
      </trkpt>
      <trkpt lat="43.8435" lon="6.53117">
        <ele>739</ele>
        <time>2021-09-18T08:04:26Z</time>
      </trkpt>
      <trkpt lat="43.8435" lon="6.5312">
        <ele>739</ele>
        <time>2021-09-18T08:04:27Z</time>
      </trkpt>
      <trkpt lat="43.84351" lon="6.53124">
        <ele>739.2</ele>
        <time>2021-09-18T08:04:29Z</time>
      </trkpt>
      <trkpt lat="43.84351" lon="6.53129">
        <ele>739.3</ele>
        <time>2021-09-18T08:04:30Z</time>
      </trkpt>
      <trkpt lat="43.84351" lon="6.53133">
        <ele>739.4</ele>
        <time>2021-09-18T08:04:31Z</time>
      </trkpt>
      <trkpt lat="43.84351" lon="6.53139">
        <ele>739.6</ele>
        <time>2021-09-18T08:04:32Z</time>
      </trkpt>
      <trkpt lat="43.8435" lon="6.53141">
        <ele>739.6</ele>
        <time>2021-09-18T08:04:33Z</time>
      </trkpt>
      <trkpt lat="43.8435" lon="6.53147">
        <ele>739.8</ele>
        <time>2021-09-18T08:04:35Z</time>
      </trkpt>
      <trkpt lat="43.84351" lon="6.53153">
        <ele>739.9</ele>
        <time>2021-09-18T08:04:36Z</time>
      </trkpt>
      <trkpt lat="43.84351" lon="6.53158">
        <ele>740</ele>
        <time>2021-09-18T08:04:37Z</time>
      </trkpt>
      <trkpt lat="43.84349" lon="6.53164">
        <ele>740.1</ele>
        <time>2021-09-18T08:04:39Z</time>
      </trkpt>
      <trkpt lat="43.84347" lon="6.5317">
        <ele>740.3</ele>
        <time>2021-09-18T08:04:41Z</time>
      </trkpt>
      <trkpt lat="43.84345" lon="6.53173">
        <ele>740.4</ele>
        <time>2021-09-18T08:04:42Z</time>
      </trkpt>
      <trkpt lat="43.84343" lon="6.53177">
        <ele>740.6</ele>
        <time>2021-09-18T08:04:43Z</time>
      </trkpt>
      <trkpt lat="43.84341" lon="6.53182">
        <ele>740.8</ele>
        <time>2021-09-18T08:04:45Z</time>
      </trkpt>
      <trkpt lat="43.84339" lon="6.53187">
        <ele>741</ele>
        <time>2021-09-18T08:04:46Z</time>
      </trkpt>
      <trkpt lat="43.84335" lon="6.53191">
        <ele>741.3</ele>
        <time>2021-09-18T08:04:48Z</time>
      </trkpt>
      <trkpt lat="43.84336" lon="6.53197">
        <ele>742.3</ele>
        <time>2021-09-18T08:04:50Z</time>
      </trkpt>
      <trkpt lat="43.84338" lon="6.532">
        <ele>742.3</ele>
        <time>2021-09-18T08:04:51Z</time>
      </trkpt>
      <trkpt lat="43.84341" lon="6.53201">
        <ele>742.3</ele>
        <time>2021-09-18T08:04:53Z</time>
      </trkpt>
      <trkpt lat="43.8434" lon="6.53199">
        <ele>742.3</ele>
        <time>2021-09-18T08:04:54Z</time>
      </trkpt>
      <trkpt lat="43.84339" lon="6.53197">
        <ele>742.3</ele>
        <time>2021-09-18T08:04:56Z</time>
      </trkpt>
      <trkpt lat="43.84339" lon="6.53198">
        <ele>742.3</ele>
        <time>2021-09-18T08:04:57Z</time>
      </trkpt>
      <trkpt lat="43.8434" lon="6.53198">
        <ele>742.3</ele>
        <time>2021-09-18T08:04:59Z</time>
      </trkpt>
      <trkpt lat="43.8434" lon="6.53199">
        <ele>742.3</ele>
        <time>2021-09-18T08:05:01Z</time>
      </trkpt>
      <trkpt lat="43.8434" lon="6.532">
        <ele>742.3</ele>
        <time>2021-09-18T08:05:02Z</time>
      </trkpt>
      <trkpt lat="43.8434" lon="6.53201">
        <ele>742.3</ele>
        <time>2021-09-18T08:05:03Z</time>
      </trkpt>
      <trkpt lat="43.84338" lon="6.53206">
        <ele>742.3</ele>
        <time>2021-09-18T08:05:05Z</time>
      </trkpt>
      <trkpt lat="43.84337" lon="6.5321">
        <ele>742.3</ele>
        <time>2021-09-18T08:05:08Z</time>
      </trkpt>
      <trkpt lat="43.84335" lon="6.53214">
        <ele>742.3</ele>
        <time>2021-09-18T08:05:09Z</time>
      </trkpt>
      <trkpt lat="43.84334" lon="6.53218">
        <ele>742.4</ele>
        <time>2021-09-18T08:05:10Z</time>
      </trkpt>
      <trkpt lat="43.84333" lon="6.53221">
        <ele>742.4</ele>
        <time>2021-09-18T08:05:11Z</time>
      </trkpt>
      <trkpt lat="43.84331" lon="6.53225">
        <ele>742.4</ele>
        <time>2021-09-18T08:05:13Z</time>
      </trkpt>
      <trkpt lat="43.84331" lon="6.53235">
        <ele>742.4</ele>
        <time>2021-09-18T08:05:15Z</time>
      </trkpt>
      <trkpt lat="43.84332" lon="6.53243">
        <ele>742.5</ele>
        <time>2021-09-18T08:05:16Z</time>
      </trkpt>
      <trkpt lat="43.84333" lon="6.5325">
        <ele>742.5</ele>
        <time>2021-09-18T08:05:17Z</time>
      </trkpt>
      <trkpt lat="43.84335" lon="6.53258">
        <ele>742.5</ele>
        <time>2021-09-18T08:05:19Z</time>
      </trkpt>
      <trkpt lat="43.84336" lon="6.53268">
        <ele>742.6</ele>
        <time>2021-09-18T08:05:21Z</time>
      </trkpt>
      <trkpt lat="43.84338" lon="6.53275">
        <ele>742.6</ele>
        <time>2021-09-18T08:05:22Z</time>
      </trkpt>
      <trkpt lat="43.84339" lon="6.53281">
        <ele>742.6</ele>
        <time>2021-09-18T08:05:23Z</time>
      </trkpt>
      <trkpt lat="43.8434" lon="6.53286">
        <ele>742.6</ele>
        <time>2021-09-18T08:05:24Z</time>
      </trkpt>
      <trkpt lat="43.84342" lon="6.53293">
        <ele>742.5</ele>
        <time>2021-09-18T08:05:26Z</time>
      </trkpt>
      <trkpt lat="43.84344" lon="6.533">
        <ele>742.5</ele>
        <time>2021-09-18T08:05:27Z</time>
      </trkpt>
      <trkpt lat="43.84347" lon="6.53308">
        <ele>742.5</ele>
        <time>2021-09-18T08:05:29Z</time>
      </trkpt>
      <trkpt lat="43.84349" lon="6.53315">
        <ele>742.5</ele>
        <time>2021-09-18T08:05:30Z</time>
      </trkpt>
      <trkpt lat="43.8435" lon="6.5332">
        <ele>742.5</ele>
        <time>2021-09-18T08:05:31Z</time>
      </trkpt>
      <trkpt lat="43.84351" lon="6.53325">
        <ele>742.5</ele>
        <time>2021-09-18T08:05:32Z</time>
      </trkpt>
      <trkpt lat="43.84354" lon="6.53333">
        <ele>742.6</ele>
        <time>2021-09-18T08:05:34Z</time>
      </trkpt>
      <trkpt lat="43.84355" lon="6.53338">
        <ele>742.6</ele>
        <time>2021-09-18T08:05:35Z</time>
      </trkpt>
      <trkpt lat="43.84357" lon="6.53347">
        <ele>742.6</ele>
        <time>2021-09-18T08:05:37Z</time>
      </trkpt>
      <trkpt lat="43.84358" lon="6.53353">
        <ele>742.7</ele>
        <time>2021-09-18T08:05:38Z</time>
      </trkpt>
      <trkpt lat="43.84359" lon="6.53358">
        <ele>742.7</ele>
        <time>2021-09-18T08:05:39Z</time>
      </trkpt>
      <trkpt lat="43.8436" lon="6.53367">
        <ele>742.8</ele>
        <time>2021-09-18T08:05:41Z</time>
      </trkpt>
      <trkpt lat="43.84361" lon="6.53374">
        <ele>742.8</ele>
        <time>2021-09-18T08:05:42Z</time>
      </trkpt>
      <trkpt lat="43.84362" lon="6.53379">
        <ele>742.9</ele>
        <time>2021-09-18T08:05:43Z</time>
      </trkpt>
      <trkpt lat="43.84363" lon="6.53389">
        <ele>743.1</ele>
        <time>2021-09-18T08:05:45Z</time>
      </trkpt>
      <trkpt lat="43.84363" lon="6.53395">
        <ele>743.2</ele>
        <time>2021-09-18T08:05:46Z</time>
      </trkpt>
      <trkpt lat="43.84362" lon="6.53399">
        <ele>743.3</ele>
        <time>2021-09-18T08:05:47Z</time>
      </trkpt>
      <trkpt lat="43.84362" lon="6.53407">
        <ele>743.5</ele>
        <time>2021-09-18T08:05:49Z</time>
      </trkpt>
      <trkpt lat="43.84362" lon="6.53411">
        <ele>743.6</ele>
        <time>2021-09-18T08:05:50Z</time>
      </trkpt>
      <trkpt lat="43.84362" lon="6.53415">
        <ele>743.7</ele>
        <time>2021-09-18T08:05:51Z</time>
      </trkpt>
      <trkpt lat="43.84365" lon="6.53423">
        <ele>744</ele>
        <time>2021-09-18T08:05:53Z</time>
      </trkpt>
      <trkpt lat="43.84366" lon="6.53427">
        <ele>744.1</ele>
        <time>2021-09-18T08:05:54Z</time>
      </trkpt>
      <trkpt lat="43.84368" lon="6.53436">
        <ele>742.4</ele>
        <time>2021-09-18T08:05:56Z</time>
      </trkpt>
      <trkpt lat="43.84372" lon="6.53443">
        <ele>740.7</ele>
        <time>2021-09-18T08:05:58Z</time>
      </trkpt>
      <trkpt lat="43.84374" lon="6.53449">
        <ele>739.3</ele>
        <time>2021-09-18T08:05:59Z</time>
      </trkpt>
      <trkpt lat="43.84377" lon="6.53456">
        <ele>738.9</ele>
        <time>2021-09-18T08:06:01Z</time>
      </trkpt>
      <trkpt lat="43.84379" lon="6.5346">
        <ele>739.1</ele>
        <time>2021-09-18T08:06:02Z</time>
      </trkpt>
      <trkpt lat="43.8438" lon="6.53464">
        <ele>739.2</ele>
        <time>2021-09-18T08:06:03Z</time>
      </trkpt>
      <trkpt lat="43.84381" lon="6.5347">
        <ele>739.4</ele>
        <time>2021-09-18T08:06:05Z</time>
      </trkpt>
      <trkpt lat="43.84381" lon="6.53475">
        <ele>739.6</ele>
        <time>2021-09-18T08:06:06Z</time>
      </trkpt>
      <trkpt lat="43.84381" lon="6.53481">
        <ele>739.9</ele>
        <time>2021-09-18T08:06:08Z</time>
      </trkpt>
      <trkpt lat="43.84382" lon="6.53481">
        <ele>739.9</ele>
        <time>2021-09-18T08:06:09Z</time>
      </trkpt>
      <trkpt lat="43.84382" lon="6.53482">
        <ele>739.9</ele>
        <time>2021-09-18T08:06:11Z</time>
      </trkpt>
      <trkpt lat="43.84383" lon="6.53484">
        <ele>740</ele>
        <time>2021-09-18T08:06:12Z</time>
      </trkpt>
      <trkpt lat="43.84383" lon="6.53487">
        <ele>740.1</ele>
        <time>2021-09-18T08:06:13Z</time>
      </trkpt>
      <trkpt lat="43.84384" lon="6.53491">
        <ele>740.3</ele>
        <time>2021-09-18T08:06:15Z</time>
      </trkpt>
      <trkpt lat="43.84384" lon="6.53494">
        <ele>740.5</ele>
        <time>2021-09-18T08:06:17Z</time>
      </trkpt>
      <trkpt lat="43.84384" lon="6.53495">
        <ele>740.5</ele>
        <time>2021-09-18T08:06:18Z</time>
      </trkpt>
      <trkpt lat="43.84384" lon="6.53497">
        <ele>740.6</ele>
        <time>2021-09-18T08:06:19Z</time>
      </trkpt>
      <trkpt lat="43.84384" lon="6.53499">
        <ele>740.7</ele>
        <time>2021-09-18T08:06:21Z</time>
      </trkpt>
      <trkpt lat="43.84382" lon="6.53503">
        <ele>741</ele>
        <time>2021-09-18T08:06:23Z</time>
      </trkpt>
      <trkpt lat="43.84381" lon="6.53508">
        <ele>741.2</ele>
        <time>2021-09-18T08:06:24Z</time>
      </trkpt>
      <trkpt lat="43.8438" lon="6.53514">
        <ele>741.5</ele>
        <time>2021-09-18T08:06:25Z</time>
      </trkpt>
      <trkpt lat="43.8438" lon="6.53521">
        <ele>741.8</ele>
        <time>2021-09-18T08:06:27Z</time>
      </trkpt>
      <trkpt lat="43.84379" lon="6.5353">
        <ele>742.2</ele>
        <time>2021-09-18T08:06:29Z</time>
      </trkpt>
      <trkpt lat="43.84379" lon="6.53537">
        <ele>742.5</ele>
        <time>2021-09-18T08:06:30Z</time>
      </trkpt>
      <trkpt lat="43.84378" lon="6.53542">
        <ele>742.7</ele>
        <time>2021-09-18T08:06:31Z</time>
      </trkpt>
      <trkpt lat="43.84377" lon="6.5355">
        <ele>742.9</ele>
        <time>2021-09-18T08:06:33Z</time>
      </trkpt>
      <trkpt lat="43.84377" lon="6.53557">
        <ele>743.2</ele>
        <time>2021-09-18T08:06:34Z</time>
      </trkpt>
      <trkpt lat="43.84376" lon="6.53567">
        <ele>743.5</ele>
        <time>2021-09-18T08:06:36Z</time>
      </trkpt>
      <trkpt lat="43.84376" lon="6.53576">
        <ele>743.8</ele>
        <time>2021-09-18T08:06:38Z</time>
      </trkpt>
      <trkpt lat="43.84375" lon="6.53585">
        <ele>744.1</ele>
        <time>2021-09-18T08:06:40Z</time>
      </trkpt>
      <trkpt lat="43.84375" lon="6.53591">
        <ele>744.2</ele>
        <time>2021-09-18T08:06:41Z</time>
      </trkpt>
      <trkpt lat="43.84375" lon="6.53596">
        <ele>744.4</ele>
        <time>2021-09-18T08:06:42Z</time>
      </trkpt>
      <trkpt lat="43.84372" lon="6.53603">
        <ele>744.6</ele>
        <time>2021-09-18T08:06:44Z</time>
      </trkpt>
      <trkpt lat="43.84371" lon="6.53608">
        <ele>744.7</ele>
        <time>2021-09-18T08:06:45Z</time>
      </trkpt>
      <trkpt lat="43.84372" lon="6.53612">
        <ele>744.8</ele>
        <time>2021-09-18T08:06:47Z</time>
      </trkpt>
      <trkpt lat="43.84373" lon="6.53613">
        <ele>744.9</ele>
        <time>2021-09-18T08:06:48Z</time>
      </trkpt>
      <trkpt lat="43.84374" lon="6.53616">
        <ele>745</ele>
        <time>2021-09-18T08:06:49Z</time>
      </trkpt>
      <trkpt lat="43.84374" lon="6.53619">
        <ele>745.8</ele>
        <time>2021-09-18T08:06:51Z</time>
      </trkpt>
      <trkpt lat="43.84374" lon="6.5362">
        <ele>745.9</ele>
        <time>2021-09-18T08:06:52Z</time>
      </trkpt>
      <trkpt lat="43.84373" lon="6.53621">
        <ele>746.1</ele>
        <time>2021-09-18T08:06:54Z</time>
      </trkpt>
      <trkpt lat="43.84372" lon="6.53621">
        <ele>746.7</ele>
        <time>2021-09-18T08:06:55Z</time>
      </trkpt>
      <trkpt lat="43.84371" lon="6.53621">
        <ele>746.8</ele>
        <time>2021-09-18T08:06:57Z</time>
      </trkpt>
      <trkpt lat="43.84369" lon="6.53621">
        <ele>747</ele>
        <time>2021-09-18T08:06:59Z</time>
      </trkpt>
      <trkpt lat="43.84369" lon="6.53621">
        <ele>747.5</ele>
        <time>2021-09-18T08:07:00Z</time>
      </trkpt>
      <trkpt lat="43.84369" lon="6.5362">
        <ele>747.7</ele>
        <time>2021-09-18T08:07:01Z</time>
      </trkpt>
      <trkpt lat="43.84369" lon="6.53619">
        <ele>747.8</ele>
        <time>2021-09-18T08:07:03Z</time>
      </trkpt>
      <trkpt lat="43.84368" lon="6.53618">
        <ele>748</ele>
        <time>2021-09-18T08:07:04Z</time>
      </trkpt>
      <trkpt lat="43.8437" lon="6.53613">
        <ele>746.4</ele>
        <time>2021-09-18T08:08:14Z</time>
      </trkpt>
      <trkpt lat="43.84364" lon="6.53615">
        <ele>748</ele>
        <time>2021-09-18T08:08:16Z</time>
      </trkpt>
      <trkpt lat="43.84353" lon="6.53619">
        <ele>750.6</ele>
        <time>2021-09-18T08:08:17Z</time>
      </trkpt>
      <trkpt lat="43.84347" lon="6.53621">
        <ele>751.4</ele>
        <time>2021-09-18T08:08:19Z</time>
      </trkpt>
      <trkpt lat="43.84345" lon="6.53622">
        <ele>751.6</ele>
        <time>2021-09-18T08:08:20Z</time>
      </trkpt>
      <trkpt lat="43.84342" lon="6.53624">
        <ele>752.9</ele>
        <time>2021-09-18T08:08:22Z</time>
      </trkpt>
      <trkpt lat="43.84341" lon="6.53626">
        <ele>753.3</ele>
        <time>2021-09-18T08:08:23Z</time>
      </trkpt>
      <trkpt lat="43.8434" lon="6.53628">
        <ele>754.3</ele>
        <time>2021-09-18T08:08:25Z</time>
      </trkpt>
      <trkpt lat="43.84335" lon="6.53632">
        <ele>755.7</ele>
        <time>2021-09-18T08:08:26Z</time>
      </trkpt>
      <trkpt lat="43.84334" lon="6.53635">
        <ele>756.2</ele>
        <time>2021-09-18T08:08:28Z</time>
      </trkpt>
      <trkpt lat="43.84343" lon="6.53688">
        <ele>764.6</ele>
        <time>2021-09-18T08:10:21Z</time>
      </trkpt>
      <trkpt lat="43.84343" lon="6.53691">
        <ele>764.7</ele>
        <time>2021-09-18T08:10:22Z</time>
      </trkpt>
      <trkpt lat="43.84346" lon="6.53698">
        <ele>765.4</ele>
        <time>2021-09-18T08:10:24Z</time>
      </trkpt>
      <trkpt lat="43.84349" lon="6.53703">
        <ele>765.5</ele>
        <time>2021-09-18T08:10:25Z</time>
      </trkpt>
      <trkpt lat="43.84351" lon="6.53708">
        <ele>765.5</ele>
        <time>2021-09-18T08:10:26Z</time>
      </trkpt>
      <trkpt lat="43.84351" lon="6.53709">
        <ele>766.3</ele>
        <time>2021-09-18T08:10:27Z</time>
      </trkpt>
      <trkpt lat="43.84353" lon="6.53714">
        <ele>767.1</ele>
        <time>2021-09-18T08:10:28Z</time>
      </trkpt>
      <trkpt lat="43.84353" lon="6.53715">
        <ele>767.2</ele>
        <time>2021-09-18T08:10:29Z</time>
      </trkpt>
      <trkpt lat="43.84354" lon="6.53721">
        <ele>767.2</ele>
        <time>2021-09-18T08:10:31Z</time>
      </trkpt>
      <trkpt lat="43.84356" lon="6.53724">
        <ele>768</ele>
        <time>2021-09-18T08:10:32Z</time>
      </trkpt>
      <trkpt lat="43.84357" lon="6.53725">
        <ele>767.9</ele>
        <time>2021-09-18T08:10:33Z</time>
      </trkpt>
      <trkpt lat="43.84358" lon="6.53729">
        <ele>768.1</ele>
        <time>2021-09-18T08:10:34Z</time>
      </trkpt>
      <trkpt lat="43.8436" lon="6.53734">
        <ele>768.5</ele>
        <time>2021-09-18T08:10:36Z</time>
      </trkpt>
      <trkpt lat="43.84361" lon="6.53736">
        <ele>768.6</ele>
        <time>2021-09-18T08:10:38Z</time>
      </trkpt>
      <trkpt lat="43.84362" lon="6.53738">
        <ele>768.8</ele>
        <time>2021-09-18T08:10:39Z</time>
      </trkpt>
      <trkpt lat="43.84364" lon="6.53741">
        <ele>768.6</ele>
        <time>2021-09-18T08:10:41Z</time>
      </trkpt>
      <trkpt lat="43.84365" lon="6.53742">
        <ele>769.3</ele>
        <time>2021-09-18T08:10:42Z</time>
      </trkpt>
      <trkpt lat="43.84368" lon="6.53743">
        <ele>768.6</ele>
        <time>2021-09-18T08:10:43Z</time>
      </trkpt>
      <trkpt lat="43.8437" lon="6.53745">
        <ele>767.9</ele>
        <time>2021-09-18T08:10:45Z</time>
      </trkpt>
      <trkpt lat="43.84371" lon="6.53746">
        <ele>768.1</ele>
        <time>2021-09-18T08:10:46Z</time>
      </trkpt>
      <trkpt lat="43.84371" lon="6.53747">
        <ele>768.8</ele>
        <time>2021-09-18T08:10:47Z</time>
      </trkpt>
      <trkpt lat="43.84372" lon="6.5375">
        <ele>768.9</ele>
        <time>2021-09-18T08:10:49Z</time>
      </trkpt>
      <trkpt lat="43.84371" lon="6.53751">
        <ele>769.7</ele>
        <time>2021-09-18T08:10:50Z</time>
      </trkpt>
      <trkpt lat="43.84369" lon="6.53752">
        <ele>769.8</ele>
        <time>2021-09-18T08:10:52Z</time>
      </trkpt>
      <trkpt lat="43.84369" lon="6.53755">
        <ele>770.8</ele>
        <time>2021-09-18T08:10:53Z</time>
      </trkpt>
      <trkpt lat="43.84368" lon="6.53758">
        <ele>771.6</ele>
        <time>2021-09-18T08:10:55Z</time>
      </trkpt>
      <trkpt lat="43.84367" lon="6.5376">
        <ele>772.4</ele>
        <time>2021-09-18T08:10:56Z</time>
      </trkpt>
      <trkpt lat="43.84366" lon="6.53762">
        <ele>772.5</ele>
        <time>2021-09-18T08:10:57Z</time>
      </trkpt>
      <trkpt lat="43.84366" lon="6.53763">
        <ele>773.5</ele>
        <time>2021-09-18T08:10:58Z</time>
      </trkpt>
      <trkpt lat="43.84365" lon="6.53765">
        <ele>774.2</ele>
        <time>2021-09-18T08:11:00Z</time>
      </trkpt>
      <trkpt lat="43.84365" lon="6.53764">
        <ele>774.4</ele>
        <time>2021-09-18T08:11:01Z</time>
      </trkpt>
      <trkpt lat="43.84366" lon="6.53763">
        <ele>773.1</ele>
        <time>2021-09-18T08:11:03Z</time>
      </trkpt>
      <trkpt lat="43.84367" lon="6.53763">
        <ele>773.3</ele>
        <time>2021-09-18T08:11:04Z</time>
      </trkpt>
      <trkpt lat="43.84367" lon="6.53762">
        <ele>773.4</ele>
        <time>2021-09-18T08:11:05Z</time>
      </trkpt>
      <trkpt lat="43.84368" lon="6.53762">
        <ele>773.6</ele>
        <time>2021-09-18T08:11:06Z</time>
      </trkpt>
      <trkpt lat="43.84368" lon="6.53762">
        <ele>773.7</ele>
        <time>2021-09-18T08:11:07Z</time>
      </trkpt>
      <trkpt lat="43.84368" lon="6.53762">
        <ele>773.9</ele>
        <time>2021-09-18T08:11:09Z</time>
      </trkpt>
      <trkpt lat="43.84368" lon="6.53762">
        <ele>774</ele>
        <time>2021-09-18T08:11:10Z</time>
      </trkpt>
      <trkpt lat="43.84369" lon="6.53824">
        <ele>782.8</ele>
        <time>2021-09-18T08:12:17Z</time>
      </trkpt>
      <trkpt lat="43.84373" lon="6.53831">
        <ele>782.7</ele>
        <time>2021-09-18T08:12:19Z</time>
      </trkpt>
      <trkpt lat="43.84376" lon="6.53836">
        <ele>782.6</ele>
        <time>2021-09-18T08:12:20Z</time>
      </trkpt>
      <trkpt lat="43.84379" lon="6.53842">
        <ele>782.5</ele>
        <time>2021-09-18T08:12:21Z</time>
      </trkpt>
      <trkpt lat="43.84381" lon="6.53849">
        <ele>782.4</ele>
        <time>2021-09-18T08:12:23Z</time>
      </trkpt>
      <trkpt lat="43.84382" lon="6.53857">
        <ele>782.3</ele>
        <time>2021-09-18T08:12:25Z</time>
      </trkpt>
      <trkpt lat="43.84382" lon="6.53861">
        <ele>782.3</ele>
        <time>2021-09-18T08:12:26Z</time>
      </trkpt>
      <trkpt lat="43.84383" lon="6.53869">
        <ele>782.1</ele>
        <time>2021-09-18T08:12:28Z</time>
      </trkpt>
      <trkpt lat="43.84383" lon="6.53875">
        <ele>782.1</ele>
        <time>2021-09-18T08:12:30Z</time>
      </trkpt>
      <trkpt lat="43.84384" lon="6.5388">
        <ele>782.5</ele>
        <time>2021-09-18T08:12:31Z</time>
      </trkpt>
      <trkpt lat="43.84385" lon="6.53884">
        <ele>782.7</ele>
        <time>2021-09-18T08:12:32Z</time>
      </trkpt>
      <trkpt lat="43.84386" lon="6.53888">
        <ele>783</ele>
        <time>2021-09-18T08:12:33Z</time>
      </trkpt>
      <trkpt lat="43.84387" lon="6.53892">
        <ele>783.3</ele>
        <time>2021-09-18T08:12:34Z</time>
      </trkpt>
      <trkpt lat="43.84389" lon="6.53898">
        <ele>783.7</ele>
        <time>2021-09-18T08:12:36Z</time>
      </trkpt>
      <trkpt lat="43.84391" lon="6.53905">
        <ele>784.2</ele>
        <time>2021-09-18T08:12:38Z</time>
      </trkpt>
      <trkpt lat="43.84393" lon="6.53909">
        <ele>784.5</ele>
        <time>2021-09-18T08:12:39Z</time>
      </trkpt>
      <trkpt lat="43.84395" lon="6.53918">
        <ele>785.1</ele>
        <time>2021-09-18T08:12:41Z</time>
      </trkpt>
      <trkpt lat="43.84396" lon="6.53921">
        <ele>785.4</ele>
        <time>2021-09-18T08:12:42Z</time>
      </trkpt>
      <trkpt lat="43.84398" lon="6.53926">
        <ele>785.8</ele>
        <time>2021-09-18T08:12:43Z</time>
      </trkpt>
      <trkpt lat="43.84401" lon="6.5393">
        <ele>786.2</ele>
        <time>2021-09-18T08:12:45Z</time>
      </trkpt>
      <trkpt lat="43.84403" lon="6.53933">
        <ele>786.5</ele>
        <time>2021-09-18T08:12:46Z</time>
      </trkpt>
      <trkpt lat="43.84404" lon="6.53934">
        <ele>786.6</ele>
        <time>2021-09-18T08:12:47Z</time>
      </trkpt>
      <trkpt lat="43.84406" lon="6.53937">
        <ele>786.9</ele>
        <time>2021-09-18T08:12:48Z</time>
      </trkpt>
      <trkpt lat="43.84407" lon="6.53939">
        <ele>787.1</ele>
        <time>2021-09-18T08:12:50Z</time>
      </trkpt>
      <trkpt lat="43.84408" lon="6.5394">
        <ele>787.6</ele>
        <time>2021-09-18T08:12:52Z</time>
      </trkpt>
      <trkpt lat="43.84409" lon="6.53942">
        <ele>787.6</ele>
        <time>2021-09-18T08:12:53Z</time>
      </trkpt>
      <trkpt lat="43.84411" lon="6.53948">
        <ele>787.7</ele>
        <time>2021-09-18T08:12:55Z</time>
      </trkpt>
      <trkpt lat="43.84413" lon="6.5395">
        <ele>787.7</ele>
        <time>2021-09-18T08:12:57Z</time>
      </trkpt>
      <trkpt lat="43.84414" lon="6.53952">
        <ele>787.8</ele>
        <time>2021-09-18T08:12:58Z</time>
      </trkpt>
      <trkpt lat="43.84415" lon="6.53954">
        <ele>787.8</ele>
        <time>2021-09-18T08:12:59Z</time>
      </trkpt>
      <trkpt lat="43.84418" lon="6.53957">
        <ele>787.9</ele>
        <time>2021-09-18T08:13:01Z</time>
      </trkpt>
      <trkpt lat="43.84421" lon="6.53961">
        <ele>788</ele>
        <time>2021-09-18T08:13:02Z</time>
      </trkpt>
      <trkpt lat="43.84422" lon="6.53963">
        <ele>788</ele>
        <time>2021-09-18T08:13:03Z</time>
      </trkpt>
      <trkpt lat="43.84425" lon="6.53967">
        <ele>788.1</ele>
        <time>2021-09-18T08:13:05Z</time>
      </trkpt>
      <trkpt lat="43.84427" lon="6.5397">
        <ele>788.2</ele>
        <time>2021-09-18T08:13:06Z</time>
      </trkpt>
      <trkpt lat="43.84429" lon="6.53975">
        <ele>788.3</ele>
        <time>2021-09-18T08:13:08Z</time>
      </trkpt>
      <trkpt lat="43.84431" lon="6.53979">
        <ele>788.3</ele>
        <time>2021-09-18T08:13:09Z</time>
      </trkpt>
      <trkpt lat="43.84434" lon="6.53986">
        <ele>788.4</ele>
        <time>2021-09-18T08:13:11Z</time>
      </trkpt>
      <trkpt lat="43.84437" lon="6.53989">
        <ele>788.5</ele>
        <time>2021-09-18T08:13:12Z</time>
      </trkpt>
      <trkpt lat="43.8444" lon="6.53992">
        <ele>788.5</ele>
        <time>2021-09-18T08:13:13Z</time>
      </trkpt>
      <trkpt lat="43.84443" lon="6.53995">
        <ele>788.6</ele>
        <time>2021-09-18T08:13:14Z</time>
      </trkpt>
      <trkpt lat="43.84446" lon="6.54">
        <ele>788.7</ele>
        <time>2021-09-18T08:13:16Z</time>
      </trkpt>
      <trkpt lat="43.84448" lon="6.54002">
        <ele>788.7</ele>
        <time>2021-09-18T08:13:17Z</time>
      </trkpt>
      <trkpt lat="43.84451" lon="6.54005">
        <ele>788.7</ele>
        <time>2021-09-18T08:13:18Z</time>
      </trkpt>
      <trkpt lat="43.84457" lon="6.54008">
        <ele>788.8</ele>
        <time>2021-09-18T08:13:20Z</time>
      </trkpt>
      <trkpt lat="43.84462" lon="6.54011">
        <ele>788.9</ele>
        <time>2021-09-18T08:13:22Z</time>
      </trkpt>
      <trkpt lat="43.84467" lon="6.54013">
        <ele>788.9</ele>
        <time>2021-09-18T08:13:23Z</time>
      </trkpt>
      <trkpt lat="43.84472" lon="6.54015">
        <ele>789</ele>
        <time>2021-09-18T08:13:24Z</time>
      </trkpt>
      <trkpt lat="43.84478" lon="6.54016">
        <ele>789.1</ele>
        <time>2021-09-18T08:13:26Z</time>
      </trkpt>
      <trkpt lat="43.84485" lon="6.54018">
        <ele>789.2</ele>
        <time>2021-09-18T08:13:28Z</time>
      </trkpt>
      <trkpt lat="43.84493" lon="6.54019">
        <ele>789.2</ele>
        <time>2021-09-18T08:13:30Z</time>
      </trkpt>
      <trkpt lat="43.84498" lon="6.5402">
        <ele>789.3</ele>
        <time>2021-09-18T08:13:31Z</time>
      </trkpt>
      <trkpt lat="43.84502" lon="6.5402">
        <ele>789.3</ele>
        <time>2021-09-18T08:13:32Z</time>
      </trkpt>
      <trkpt lat="43.84505" lon="6.5402">
        <ele>789.3</ele>
        <time>2021-09-18T08:13:33Z</time>
      </trkpt>
      <trkpt lat="43.84511" lon="6.54019">
        <ele>789.4</ele>
        <time>2021-09-18T08:13:35Z</time>
      </trkpt>
      <trkpt lat="43.84516" lon="6.54019">
        <ele>789.4</ele>
        <time>2021-09-18T08:13:37Z</time>
      </trkpt>
      <trkpt lat="43.84519" lon="6.54019">
        <ele>789.4</ele>
        <time>2021-09-18T08:13:38Z</time>
      </trkpt>
      <trkpt lat="43.84523" lon="6.5402">
        <ele>789.5</ele>
        <time>2021-09-18T08:13:39Z</time>
      </trkpt>
      <trkpt lat="43.84527" lon="6.54021">
        <ele>789.5</ele>
        <time>2021-09-18T08:13:41Z</time>
      </trkpt>
      <trkpt lat="43.8453" lon="6.54022">
        <ele>789.5</ele>
        <time>2021-09-18T08:13:42Z</time>
      </trkpt>
      <trkpt lat="43.84536" lon="6.5402">
        <ele>789.6</ele>
        <time>2021-09-18T08:13:44Z</time>
      </trkpt>
      <trkpt lat="43.84541" lon="6.54018">
        <ele>789.7</ele>
        <time>2021-09-18T08:13:45Z</time>
      </trkpt>
      <trkpt lat="43.84546" lon="6.54016">
        <ele>789.7</ele>
        <time>2021-09-18T08:13:46Z</time>
      </trkpt>
      <trkpt lat="43.84552" lon="6.54014">
        <ele>789.8</ele>
        <time>2021-09-18T08:13:48Z</time>
      </trkpt>
      <trkpt lat="43.84559" lon="6.54012">
        <ele>789.9</ele>
        <time>2021-09-18T08:13:50Z</time>
      </trkpt>
      <trkpt lat="43.84566" lon="6.54013">
        <ele>790</ele>
        <time>2021-09-18T08:13:52Z</time>
      </trkpt>
      <trkpt lat="43.84571" lon="6.54017">
        <ele>790</ele>
        <time>2021-09-18T08:13:53Z</time>
      </trkpt>
      <trkpt lat="43.84575" lon="6.5402">
        <ele>790</ele>
        <time>2021-09-18T08:13:55Z</time>
      </trkpt>
      <trkpt lat="43.84577" lon="6.54025">
        <ele>790.1</ele>
        <time>2021-09-18T08:13:56Z</time>
      </trkpt>
      <trkpt lat="43.8458" lon="6.54029">
        <ele>790.1</ele>
        <time>2021-09-18T08:13:57Z</time>
      </trkpt>
      <trkpt lat="43.84583" lon="6.54035">
        <ele>790.2</ele>
        <time>2021-09-18T08:13:58Z</time>
      </trkpt>
      <trkpt lat="43.84585" lon="6.54043">
        <ele>790.2</ele>
        <time>2021-09-18T08:14:00Z</time>
      </trkpt>
      <trkpt lat="43.84587" lon="6.54054">
        <ele>790.3</ele>
        <time>2021-09-18T08:14:02Z</time>
      </trkpt>
      <trkpt lat="43.84588" lon="6.54064">
        <ele>790.4</ele>
        <time>2021-09-18T08:14:04Z</time>
      </trkpt>
      <trkpt lat="43.84589" lon="6.54073">
        <ele>790.5</ele>
        <time>2021-09-18T08:14:05Z</time>
      </trkpt>
      <trkpt lat="43.84591" lon="6.54079">
        <ele>790.5</ele>
        <time>2021-09-18T08:14:06Z</time>
      </trkpt>
      <trkpt lat="43.84593" lon="6.54089">
        <ele>790.7</ele>
        <time>2021-09-18T08:14:08Z</time>
      </trkpt>
      <trkpt lat="43.84596" lon="6.54096">
        <ele>790.8</ele>
        <time>2021-09-18T08:14:09Z</time>
      </trkpt>
      <trkpt lat="43.84598" lon="6.54103">
        <ele>790.9</ele>
        <time>2021-09-18T08:14:10Z</time>
      </trkpt>
      <trkpt lat="43.846" lon="6.54109">
        <ele>791</ele>
        <time>2021-09-18T08:14:11Z</time>
      </trkpt>
      <trkpt lat="43.84605" lon="6.54121">
        <ele>791.2</ele>
        <time>2021-09-18T08:14:13Z</time>
      </trkpt>
      <trkpt lat="43.84607" lon="6.54128">
        <ele>791.2</ele>
        <time>2021-09-18T08:14:14Z</time>
      </trkpt>
      <trkpt lat="43.84609" lon="6.5413">
        <ele>791.2</ele>
        <time>2021-09-18T08:14:16Z</time>
      </trkpt>
      <trkpt lat="43.8461" lon="6.54133">
        <ele>791.2</ele>
        <time>2021-09-18T08:14:18Z</time>
      </trkpt>
      <trkpt lat="43.84611" lon="6.54137">
        <ele>791.1</ele>
        <time>2021-09-18T08:14:20Z</time>
      </trkpt>
      <trkpt lat="43.84612" lon="6.5414">
        <ele>791.1</ele>
        <time>2021-09-18T08:14:21Z</time>
      </trkpt>
      <trkpt lat="43.84613" lon="6.54142">
        <ele>791.1</ele>
        <time>2021-09-18T08:14:23Z</time>
      </trkpt>
      <trkpt lat="43.84613" lon="6.5425">
        <ele>792.1</ele>
        <time>2021-09-18T08:14:40Z</time>
      </trkpt>
      <trkpt lat="43.84616" lon="6.5426">
        <ele>792.3</ele>
        <time>2021-09-18T08:14:42Z</time>
      </trkpt>
      <trkpt lat="43.84617" lon="6.54268">
        <ele>792.4</ele>
        <time>2021-09-18T08:14:43Z</time>
      </trkpt>
      <trkpt lat="43.84618" lon="6.54279">
        <ele>792.5</ele>
        <time>2021-09-18T08:14:45Z</time>
      </trkpt>
      <trkpt lat="43.8462" lon="6.54287">
        <ele>792.6</ele>
        <time>2021-09-18T08:14:46Z</time>
      </trkpt>
      <trkpt lat="43.84623" lon="6.54292">
        <ele>792.6</ele>
        <time>2021-09-18T08:14:47Z</time>
      </trkpt>
      <trkpt lat="43.84627" lon="6.54298">
        <ele>792.7</ele>
        <time>2021-09-18T08:14:49Z</time>
      </trkpt>
      <trkpt lat="43.84629" lon="6.54306">
        <ele>792.7</ele>
        <time>2021-09-18T08:14:51Z</time>
      </trkpt>
      <trkpt lat="43.84629" lon="6.54313">
        <ele>792.8</ele>
        <time>2021-09-18T08:14:52Z</time>
      </trkpt>
      <trkpt lat="43.84629" lon="6.54319">
        <ele>792.8</ele>
        <time>2021-09-18T08:14:53Z</time>
      </trkpt>
      <trkpt lat="43.84629" lon="6.54322">
        <ele>792.9</ele>
        <time>2021-09-18T08:14:54Z</time>
      </trkpt>
      <trkpt lat="43.8463" lon="6.54327">
        <ele>792.9</ele>
        <time>2021-09-18T08:14:56Z</time>
      </trkpt>
      <trkpt lat="43.84631" lon="6.54333">
        <ele>792.9</ele>
        <time>2021-09-18T08:14:57Z</time>
      </trkpt>
      <trkpt lat="43.84633" lon="6.54341">
        <ele>793</ele>
        <time>2021-09-18T08:14:58Z</time>
      </trkpt>
      <trkpt lat="43.84634" lon="6.54347">
        <ele>793.1</ele>
        <time>2021-09-18T08:14:59Z</time>
      </trkpt>
      <trkpt lat="43.84637" lon="6.54357">
        <ele>793.1</ele>
        <time>2021-09-18T08:15:01Z</time>
      </trkpt>
      <trkpt lat="43.84637" lon="6.54359">
        <ele>793.2</ele>
        <time>2021-09-18T08:15:02Z</time>
      </trkpt>
      <trkpt lat="43.8464" lon="6.54371">
        <ele>793.3</ele>
        <time>2021-09-18T08:15:04Z</time>
      </trkpt>
      <trkpt lat="43.84643" lon="6.54376">
        <ele>793.3</ele>
        <time>2021-09-18T08:15:05Z</time>
      </trkpt>
      <trkpt lat="43.84644" lon="6.54379">
        <ele>793.3</ele>
        <time>2021-09-18T08:15:06Z</time>
      </trkpt>
      <trkpt lat="43.84645" lon="6.54379">
        <ele>793.3</ele>
        <time>2021-09-18T08:15:07Z</time>
      </trkpt>
      <trkpt lat="43.84649" lon="6.54389">
        <ele>793.5</ele>
        <time>2021-09-18T08:15:09Z</time>
      </trkpt>
      <trkpt lat="43.84656" lon="6.54397">
        <ele>793.6</ele>
        <time>2021-09-18T08:15:11Z</time>
      </trkpt>
      <trkpt lat="43.84663" lon="6.54404">
        <ele>793.7</ele>
        <time>2021-09-18T08:15:12Z</time>
      </trkpt>
      <trkpt lat="43.8467" lon="6.54413">
        <ele>793.9</ele>
        <time>2021-09-18T08:15:14Z</time>
      </trkpt>
      <trkpt lat="43.84676" lon="6.54419">
        <ele>794</ele>
        <time>2021-09-18T08:15:15Z</time>
      </trkpt>
      <trkpt lat="43.84677" lon="6.54421">
        <ele>794.1</ele>
        <time>2021-09-18T08:15:16Z</time>
      </trkpt>
      <trkpt lat="43.84679" lon="6.54426">
        <ele>794.1</ele>
        <time>2021-09-18T08:15:18Z</time>
      </trkpt>
      <trkpt lat="43.84682" lon="6.54433">
        <ele>794.2</ele>
        <time>2021-09-18T08:15:19Z</time>
      </trkpt>
      <trkpt lat="43.84683" lon="6.54436">
        <ele>794.2</ele>
        <time>2021-09-18T08:15:21Z</time>
      </trkpt>
      <trkpt lat="43.84683" lon="6.54441">
        <ele>794.3</ele>
        <time>2021-09-18T08:15:23Z</time>
      </trkpt>
      <trkpt lat="43.84683" lon="6.54446">
        <ele>794.3</ele>
        <time>2021-09-18T08:15:24Z</time>
      </trkpt>
      <trkpt lat="43.84683" lon="6.54449">
        <ele>794.4</ele>
        <time>2021-09-18T08:15:25Z</time>
      </trkpt>
      <trkpt lat="43.84918" lon="6.54589">
        <ele>797</ele>
        <time>2021-09-18T08:16:48Z</time>
      </trkpt>
      <trkpt lat="43.84916" lon="6.54584">
        <ele>797</ele>
        <time>2021-09-18T08:16:50Z</time>
      </trkpt>
      <trkpt lat="43.84914" lon="6.54583">
        <ele>797</ele>
        <time>2021-09-18T08:16:51Z</time>
      </trkpt>
      <trkpt lat="43.84913" lon="6.54582">
        <ele>797</ele>
        <time>2021-09-18T08:16:52Z</time>
      </trkpt>
      <trkpt lat="43.84909" lon="6.54579">
        <ele>797</ele>
        <time>2021-09-18T08:16:54Z</time>
      </trkpt>
      <trkpt lat="43.84909" lon="6.54578">
        <ele>797</ele>
        <time>2021-09-18T08:16:55Z</time>
      </trkpt>
      <trkpt lat="43.84907" lon="6.54577">
        <ele>797</ele>
        <time>2021-09-18T08:16:57Z</time>
      </trkpt>
      <trkpt lat="43.84907" lon="6.54577">
        <ele>797</ele>
        <time>2021-09-18T08:16:58Z</time>
      </trkpt>
      <trkpt lat="43.84906" lon="6.54577">
        <ele>797</ele>
        <time>2021-09-18T08:16:59Z</time>
      </trkpt>
      <trkpt lat="43.84905" lon="6.54577">
        <ele>797</ele>
        <time>2021-09-18T08:17:00Z</time>
      </trkpt>
      <trkpt lat="43.84904" lon="6.54576">
        <ele>797</ele>
        <time>2021-09-18T08:17:02Z</time>
      </trkpt>
      <trkpt lat="43.84903" lon="6.54576">
        <ele>797</ele>
        <time>2021-09-18T08:17:04Z</time>
      </trkpt>
      <trkpt lat="43.84903" lon="6.54576">
        <ele>797</ele>
        <time>2021-09-18T08:17:05Z</time>
      </trkpt>
      <trkpt lat="43.84988" lon="6.547">
        <ele>797</ele>
        <time>2021-09-18T08:18:28Z</time>
      </trkpt>
      <trkpt lat="43.84994" lon="6.5471">
        <ele>797</ele>
        <time>2021-09-18T08:18:30Z</time>
      </trkpt>
      <trkpt lat="43.84997" lon="6.54715">
        <ele>797</ele>
        <time>2021-09-18T08:18:31Z</time>
      </trkpt>
      <trkpt lat="43.85" lon="6.54719">
        <ele>797</ele>
        <time>2021-09-18T08:18:32Z</time>
      </trkpt>
      <trkpt lat="43.85005" lon="6.54727">
        <ele>796.9</ele>
        <time>2021-09-18T08:18:34Z</time>
      </trkpt>
      <trkpt lat="43.85007" lon="6.54732">
        <ele>796.9</ele>
        <time>2021-09-18T08:18:35Z</time>
      </trkpt>
      <trkpt lat="43.85013" lon="6.54738">
        <ele>796.9</ele>
        <time>2021-09-18T08:18:37Z</time>
      </trkpt>
      <trkpt lat="43.8502" lon="6.54744">
        <ele>796.9</ele>
        <time>2021-09-18T08:18:39Z</time>
      </trkpt>
      <trkpt lat="43.85024" lon="6.54747">
        <ele>796.9</ele>
        <time>2021-09-18T08:18:40Z</time>
      </trkpt>
      <trkpt lat="43.85028" lon="6.54751">
        <ele>796.9</ele>
        <time>2021-09-18T08:18:41Z</time>
      </trkpt>
      <trkpt lat="43.85035" lon="6.54757">
        <ele>796.9</ele>
        <time>2021-09-18T08:18:43Z</time>
      </trkpt>
      <trkpt lat="43.8504" lon="6.54759">
        <ele>796.9</ele>
        <time>2021-09-18T08:18:44Z</time>
      </trkpt>
      <trkpt lat="43.85047" lon="6.5476">
        <ele>796.9</ele>
        <time>2021-09-18T08:18:45Z</time>
      </trkpt>
      <trkpt lat="43.85055" lon="6.54762">
        <ele>796.9</ele>
        <time>2021-09-18T08:18:46Z</time>
      </trkpt>
      <trkpt lat="43.85061" lon="6.54765">
        <ele>796.9</ele>
        <time>2021-09-18T08:18:47Z</time>
      </trkpt>
      <trkpt lat="43.85067" lon="6.5477">
        <ele>796.9</ele>
        <time>2021-09-18T08:18:49Z</time>
      </trkpt>
      <trkpt lat="43.85075" lon="6.54776">
        <ele>796.9</ele>
        <time>2021-09-18T08:18:51Z</time>
      </trkpt>
      <trkpt lat="43.85083" lon="6.54782">
        <ele>796.9</ele>
        <time>2021-09-18T08:18:53Z</time>
      </trkpt>
      <trkpt lat="43.85089" lon="6.54785">
        <ele>796.9</ele>
        <time>2021-09-18T08:18:54Z</time>
      </trkpt>
      <trkpt lat="43.85097" lon="6.54792">
        <ele>796.9</ele>
        <time>2021-09-18T08:18:56Z</time>
      </trkpt>
      <trkpt lat="43.85104" lon="6.54799">
        <ele>797</ele>
        <time>2021-09-18T08:18:58Z</time>
      </trkpt>
      <trkpt lat="43.85108" lon="6.54804">
        <ele>797</ele>
        <time>2021-09-18T08:18:59Z</time>
      </trkpt>
      <trkpt lat="43.85112" lon="6.54807">
        <ele>797</ele>
        <time>2021-09-18T08:19:00Z</time>
      </trkpt>
      <trkpt lat="43.85117" lon="6.54811">
        <ele>797</ele>
        <time>2021-09-18T08:19:01Z</time>
      </trkpt>
      <trkpt lat="43.85121" lon="6.54814">
        <ele>797</ele>
        <time>2021-09-18T08:19:02Z</time>
      </trkpt>
      <trkpt lat="43.85127" lon="6.5482">
        <ele>797</ele>
        <time>2021-09-18T08:19:04Z</time>
      </trkpt>
      <trkpt lat="43.85132" lon="6.54824">
        <ele>797.1</ele>
        <time>2021-09-18T08:19:05Z</time>
      </trkpt>
      <trkpt lat="43.85136" lon="6.54828">
        <ele>797.1</ele>
        <time>2021-09-18T08:19:07Z</time>
      </trkpt>
      <trkpt lat="43.85141" lon="6.54832">
        <ele>797.1</ele>
        <time>2021-09-18T08:19:08Z</time>
      </trkpt>
      <trkpt lat="43.85144" lon="6.54834">
        <ele>797.1</ele>
        <time>2021-09-18T08:19:09Z</time>
      </trkpt>
      <trkpt lat="43.85149" lon="6.54838">
        <ele>797.1</ele>
        <time>2021-09-18T08:19:10Z</time>
      </trkpt>
      <trkpt lat="43.85155" lon="6.54843">
        <ele>797.1</ele>
        <time>2021-09-18T08:19:12Z</time>
      </trkpt>
      <trkpt lat="43.85162" lon="6.54847">
        <ele>797</ele>
        <time>2021-09-18T08:19:14Z</time>
      </trkpt>
      <trkpt lat="43.85167" lon="6.54849">
        <ele>797</ele>
        <time>2021-09-18T08:19:15Z</time>
      </trkpt>
      <trkpt lat="43.85172" lon="6.5485">
        <ele>797</ele>
        <time>2021-09-18T08:19:16Z</time>
      </trkpt>
      <trkpt lat="43.85176" lon="6.54852">
        <ele>797</ele>
        <time>2021-09-18T08:19:17Z</time>
      </trkpt>
      <trkpt lat="43.85182" lon="6.54855">
        <ele>797.1</ele>
        <time>2021-09-18T08:19:18Z</time>
      </trkpt>
      <trkpt lat="43.85188" lon="6.54859">
        <ele>797.1</ele>
        <time>2021-09-18T08:19:20Z</time>
      </trkpt>
      <trkpt lat="43.85196" lon="6.54865">
        <ele>797.1</ele>
        <time>2021-09-18T08:19:22Z</time>
      </trkpt>
      <trkpt lat="43.85209" lon="6.54869">
        <ele>797.2</ele>
        <time>2021-09-18T08:19:24Z</time>
      </trkpt>
      <trkpt lat="43.85214" lon="6.54871">
        <ele>797.2</ele>
        <time>2021-09-18T08:19:25Z</time>
      </trkpt>
      <trkpt lat="43.85219" lon="6.54874">
        <ele>797.3</ele>
        <time>2021-09-18T08:19:26Z</time>
      </trkpt>
      <trkpt lat="43.85228" lon="6.54879">
        <ele>797.3</ele>
        <time>2021-09-18T08:19:28Z</time>
      </trkpt>
      <trkpt lat="43.85233" lon="6.54882">
        <ele>797.3</ele>
        <time>2021-09-18T08:19:29Z</time>
      </trkpt>
      <trkpt lat="43.85236" lon="6.54885">
        <ele>797.3</ele>
        <time>2021-09-18T08:19:30Z</time>
      </trkpt>
      <trkpt lat="43.85241" lon="6.54892">
        <ele>797.3</ele>
        <time>2021-09-18T08:19:32Z</time>
      </trkpt>
      <trkpt lat="43.85248" lon="6.54899">
        <ele>797.4</ele>
        <time>2021-09-18T08:19:34Z</time>
      </trkpt>
      <trkpt lat="43.85253" lon="6.54905">
        <ele>797.4</ele>
        <time>2021-09-18T08:19:35Z</time>
      </trkpt>
      <trkpt lat="43.85257" lon="6.5491">
        <ele>797.4</ele>
        <time>2021-09-18T08:19:36Z</time>
      </trkpt>
      <trkpt lat="43.85264" lon="6.54919">
        <ele>797.4</ele>
        <time>2021-09-18T08:19:38Z</time>
      </trkpt>
      <trkpt lat="43.8527" lon="6.54926">
        <ele>797.4</ele>
        <time>2021-09-18T08:19:40Z</time>
      </trkpt>
      <trkpt lat="43.85274" lon="6.54928">
        <ele>797.4</ele>
        <time>2021-09-18T08:19:41Z</time>
      </trkpt>
      <trkpt lat="43.85278" lon="6.5493">
        <ele>797.4</ele>
        <time>2021-09-18T08:19:42Z</time>
      </trkpt>
      <trkpt lat="43.85284" lon="6.54931">
        <ele>797.5</ele>
        <time>2021-09-18T08:19:44Z</time>
      </trkpt>
      <trkpt lat="43.85289" lon="6.54931">
        <ele>797.5</ele>
        <time>2021-09-18T08:19:46Z</time>
      </trkpt>
      <trkpt lat="43.85292" lon="6.54929">
        <ele>797.5</ele>
        <time>2021-09-18T08:19:47Z</time>
      </trkpt>
      <trkpt lat="43.85301" lon="6.54924">
        <ele>797.5</ele>
        <time>2021-09-18T08:19:49Z</time>
      </trkpt>
      <trkpt lat="43.85306" lon="6.54922">
        <ele>797.6</ele>
        <time>2021-09-18T08:19:50Z</time>
      </trkpt>
      <trkpt lat="43.85313" lon="6.54916">
        <ele>797.6</ele>
        <time>2021-09-18T08:19:52Z</time>
      </trkpt>
      <trkpt lat="43.8532" lon="6.54919">
        <ele>797.6</ele>
        <time>2021-09-18T08:19:54Z</time>
      </trkpt>
      <trkpt lat="43.85326" lon="6.54923">
        <ele>797.7</ele>
        <time>2021-09-18T08:19:55Z</time>
      </trkpt>
      <trkpt lat="43.85333" lon="6.54926">
        <ele>797.7</ele>
        <time>2021-09-18T08:19:57Z</time>
      </trkpt>
      <trkpt lat="43.85336" lon="6.54928">
        <ele>797.8</ele>
        <time>2021-09-18T08:19:58Z</time>
      </trkpt>
      <trkpt lat="43.85342" lon="6.54934">
        <ele>797.8</ele>
        <time>2021-09-18T08:20:00Z</time>
      </trkpt>
      <trkpt lat="43.8535" lon="6.5494">
        <ele>797.8</ele>
        <time>2021-09-18T08:20:02Z</time>
      </trkpt>
      <trkpt lat="43.85355" lon="6.54943">
        <ele>797.8</ele>
        <time>2021-09-18T08:20:03Z</time>
      </trkpt>
      <trkpt lat="43.85357" lon="6.54946">
        <ele>797.8</ele>
        <time>2021-09-18T08:20:04Z</time>
      </trkpt>
      <trkpt lat="43.85358" lon="6.54947">
        <ele>797.8</ele>
        <time>2021-09-18T08:20:05Z</time>
      </trkpt>
      <trkpt lat="43.85361" lon="6.54949">
        <ele>797.9</ele>
        <time>2021-09-18T08:20:07Z</time>
      </trkpt>
      <trkpt lat="43.85403" lon="6.55026">
        <ele>798.2</ele>
        <time>2021-09-18T08:20:30Z</time>
      </trkpt>
      <trkpt lat="43.8541" lon="6.55026">
        <ele>798.1</ele>
        <time>2021-09-18T08:20:31Z</time>
      </trkpt>
      <trkpt lat="43.85416" lon="6.55026">
        <ele>798.1</ele>
        <time>2021-09-18T08:20:32Z</time>
      </trkpt>
      <trkpt lat="43.85423" lon="6.55028">
        <ele>798</ele>
        <time>2021-09-18T08:20:34Z</time>
      </trkpt>
      <trkpt lat="43.85429" lon="6.5503">
        <ele>798</ele>
        <time>2021-09-18T08:20:35Z</time>
      </trkpt>
      <trkpt lat="43.85436" lon="6.55033">
        <ele>798</ele>
        <time>2021-09-18T08:20:37Z</time>
      </trkpt>
      <trkpt lat="43.85441" lon="6.55036">
        <ele>798</ele>
        <time>2021-09-18T08:20:39Z</time>
      </trkpt>
      <trkpt lat="43.85445" lon="6.55039">
        <ele>798</ele>
        <time>2021-09-18T08:20:40Z</time>
      </trkpt>
      <trkpt lat="43.85446" lon="6.55023">
        <ele>798.1</ele>
        <time>2021-09-18T08:20:42Z</time>
      </trkpt>
      <trkpt lat="43.85481" lon="6.5502">
        <ele>798.1</ele>
        <time>2021-09-18T08:20:44Z</time>
      </trkpt>
      <trkpt lat="43.85495" lon="6.55023">
        <ele>798.2</ele>
        <time>2021-09-18T08:20:46Z</time>
      </trkpt>
      <trkpt lat="43.85499" lon="6.55029">
        <ele>798.2</ele>
        <time>2021-09-18T08:20:48Z</time>
      </trkpt>
      <trkpt lat="43.855" lon="6.5503">
        <ele>798.2</ele>
        <time>2021-09-18T08:20:49Z</time>
      </trkpt>
      <trkpt lat="43.85503" lon="6.55038">
        <ele>798.2</ele>
        <time>2021-09-18T08:20:51Z</time>
      </trkpt>
      <trkpt lat="43.85506" lon="6.55047">
        <ele>798.3</ele>
        <time>2021-09-18T08:20:52Z</time>
      </trkpt>
      <trkpt lat="43.85624" lon="6.55199">
        <ele>798.5</ele>
        <time>2021-09-18T08:21:29Z</time>
      </trkpt>
      <trkpt lat="43.85628" lon="6.55202">
        <ele>798.5</ele>
        <time>2021-09-18T08:21:30Z</time>
      </trkpt>
      <trkpt lat="43.85633" lon="6.5521">
        <ele>798.5</ele>
        <time>2021-09-18T08:21:32Z</time>
      </trkpt>
      <trkpt lat="43.85637" lon="6.55217">
        <ele>798.5</ele>
        <time>2021-09-18T08:21:33Z</time>
      </trkpt>
      <trkpt lat="43.85641" lon="6.55222">
        <ele>798.5</ele>
        <time>2021-09-18T08:21:34Z</time>
      </trkpt>
      <trkpt lat="43.85645" lon="6.55227">
        <ele>798.4</ele>
        <time>2021-09-18T08:21:36Z</time>
      </trkpt>
      <trkpt lat="43.85648" lon="6.55225">
        <ele>798.4</ele>
        <time>2021-09-18T08:21:37Z</time>
      </trkpt>
      <trkpt lat="43.85649" lon="6.55225">
        <ele>798.4</ele>
        <time>2021-09-18T08:21:38Z</time>
      </trkpt>
      <trkpt lat="43.85655" lon="6.55225">
        <ele>798.4</ele>
        <time>2021-09-18T08:21:39Z</time>
      </trkpt>
      <trkpt lat="43.85661" lon="6.55234">
        <ele>798.4</ele>
        <time>2021-09-18T08:21:41Z</time>
      </trkpt>
      <trkpt lat="43.85664" lon="6.55239">
        <ele>798.4</ele>
        <time>2021-09-18T08:21:42Z</time>
      </trkpt>
      <trkpt lat="43.85669" lon="6.5525">
        <ele>798.3</ele>
        <time>2021-09-18T08:21:44Z</time>
      </trkpt>
      <trkpt lat="43.85671" lon="6.55256">
        <ele>798.3</ele>
        <time>2021-09-18T08:21:45Z</time>
      </trkpt>
      <trkpt lat="43.85675" lon="6.55262">
        <ele>798.3</ele>
        <time>2021-09-18T08:21:46Z</time>
      </trkpt>
      <trkpt lat="43.85679" lon="6.55275">
        <ele>798.3</ele>
        <time>2021-09-18T08:21:48Z</time>
      </trkpt>
      <trkpt lat="43.85681" lon="6.55281">
        <ele>798.3</ele>
        <time>2021-09-18T08:21:49Z</time>
      </trkpt>
      <trkpt lat="43.85686" lon="6.55292">
        <ele>798.3</ele>
        <time>2021-09-18T08:21:51Z</time>
      </trkpt>
      <trkpt lat="43.85691" lon="6.55302">
        <ele>798.3</ele>
        <time>2021-09-18T08:21:53Z</time>
      </trkpt>
      <trkpt lat="43.85695" lon="6.55312">
        <ele>798.3</ele>
        <time>2021-09-18T08:21:55Z</time>
      </trkpt>
      <trkpt lat="43.857" lon="6.55324">
        <ele>798.2</ele>
        <time>2021-09-18T08:21:57Z</time>
      </trkpt>
      <trkpt lat="43.85705" lon="6.55333">
        <ele>798.2</ele>
        <time>2021-09-18T08:21:59Z</time>
      </trkpt>
      <trkpt lat="43.85711" lon="6.55342">
        <ele>798.2</ele>
        <time>2021-09-18T08:22:01Z</time>
      </trkpt>
      <trkpt lat="43.85714" lon="6.55348">
        <ele>798.2</ele>
        <time>2021-09-18T08:22:02Z</time>
      </trkpt>
      <trkpt lat="43.85718" lon="6.55354">
        <ele>798.1</ele>
        <time>2021-09-18T08:22:03Z</time>
      </trkpt>
      <trkpt lat="43.85724" lon="6.5536">
        <ele>798.1</ele>
        <time>2021-09-18T08:22:05Z</time>
      </trkpt>
      <trkpt lat="43.85727" lon="6.55363">
        <ele>798.1</ele>
        <time>2021-09-18T08:22:06Z</time>
      </trkpt>
      <trkpt lat="43.85731" lon="6.55366">
        <ele>798.1</ele>
        <time>2021-09-18T08:22:07Z</time>
      </trkpt>
      <trkpt lat="43.85738" lon="6.55372">
        <ele>798</ele>
        <time>2021-09-18T08:22:09Z</time>
      </trkpt>
      <trkpt lat="43.85744" lon="6.55378">
        <ele>798</ele>
        <time>2021-09-18T08:22:10Z</time>
      </trkpt>
      <trkpt lat="43.85748" lon="6.55385">
        <ele>798</ele>
        <time>2021-09-18T08:22:12Z</time>
      </trkpt>
      <trkpt lat="43.85753" lon="6.55394">
        <ele>798</ele>
        <time>2021-09-18T08:22:14Z</time>
      </trkpt>
      <trkpt lat="43.85756" lon="6.55402">
        <ele>798</ele>
        <time>2021-09-18T08:22:15Z</time>
      </trkpt>
      <trkpt lat="43.85759" lon="6.5541">
        <ele>798</ele>
        <time>2021-09-18T08:22:16Z</time>
      </trkpt>
      <trkpt lat="43.85761" lon="6.5542">
        <ele>797.9</ele>
        <time>2021-09-18T08:22:18Z</time>
      </trkpt>
      <trkpt lat="43.85762" lon="6.55426">
        <ele>797.9</ele>
        <time>2021-09-18T08:22:19Z</time>
      </trkpt>
      <trkpt lat="43.85762" lon="6.55439">
        <ele>797.8</ele>
        <time>2021-09-18T08:22:21Z</time>
      </trkpt>
      <trkpt lat="43.85763" lon="6.55449">
        <ele>797.8</ele>
        <time>2021-09-18T08:22:22Z</time>
      </trkpt>
      <trkpt lat="43.85764" lon="6.55458">
        <ele>797.8</ele>
        <time>2021-09-18T08:22:24Z</time>
      </trkpt>
      <trkpt lat="43.85764" lon="6.55468">
        <ele>797.8</ele>
        <time>2021-09-18T08:22:25Z</time>
      </trkpt>
      <trkpt lat="43.85764" lon="6.55477">
        <ele>797.8</ele>
        <time>2021-09-18T08:22:27Z</time>
      </trkpt>
      <trkpt lat="43.85764" lon="6.55484">
        <ele>797.7</ele>
        <time>2021-09-18T08:22:28Z</time>
      </trkpt>
      <trkpt lat="43.85765" lon="6.55491">
        <ele>797.7</ele>
        <time>2021-09-18T08:22:29Z</time>
      </trkpt>
      <trkpt lat="43.85766" lon="6.55498">
        <ele>797.7</ele>
        <time>2021-09-18T08:22:30Z</time>
      </trkpt>
      <trkpt lat="43.8577" lon="6.55508">
        <ele>797.7</ele>
        <time>2021-09-18T08:22:32Z</time>
      </trkpt>
      <trkpt lat="43.85775" lon="6.55517">
        <ele>797.7</ele>
        <time>2021-09-18T08:22:34Z</time>
      </trkpt>
      <trkpt lat="43.8578" lon="6.55521">
        <ele>797.7</ele>
        <time>2021-09-18T08:22:35Z</time>
      </trkpt>
      <trkpt lat="43.85784" lon="6.55523">
        <ele>797.8</ele>
        <time>2021-09-18T08:22:36Z</time>
      </trkpt>
      <trkpt lat="43.85788" lon="6.55524">
        <ele>797.8</ele>
        <time>2021-09-18T08:22:37Z</time>
      </trkpt>
      <trkpt lat="43.85796" lon="6.55523">
        <ele>797.8</ele>
        <time>2021-09-18T08:22:39Z</time>
      </trkpt>
      <trkpt lat="43.85803" lon="6.55523">
        <ele>797.8</ele>
        <time>2021-09-18T08:22:41Z</time>
      </trkpt>
      <trkpt lat="43.85808" lon="6.55523">
        <ele>797.8</ele>
        <time>2021-09-18T08:22:42Z</time>
      </trkpt>
      <trkpt lat="43.85813" lon="6.55522">
        <ele>797.7</ele>
        <time>2021-09-18T08:22:43Z</time>
      </trkpt>
      <trkpt lat="43.85818" lon="6.55521">
        <ele>797.7</ele>
        <time>2021-09-18T08:22:44Z</time>
      </trkpt>
      <trkpt lat="43.85822" lon="6.55521">
        <ele>797.7</ele>
        <time>2021-09-18T08:22:45Z</time>
      </trkpt>
      <trkpt lat="43.85833" lon="6.5552">
        <ele>797.6</ele>
        <time>2021-09-18T08:22:47Z</time>
      </trkpt>
      <trkpt lat="43.85838" lon="6.55519">
        <ele>797.5</ele>
        <time>2021-09-18T08:22:48Z</time>
      </trkpt>
      <trkpt lat="43.85848" lon="6.55521">
        <ele>797.5</ele>
        <time>2021-09-18T08:22:49Z</time>
      </trkpt>
      <trkpt lat="43.85855" lon="6.55522">
        <ele>797.4</ele>
        <time>2021-09-18T08:22:50Z</time>
      </trkpt>
      <trkpt lat="43.85866" lon="6.55526">
        <ele>797.4</ele>
        <time>2021-09-18T08:22:52Z</time>
      </trkpt>
      <trkpt lat="43.85872" lon="6.55528">
        <ele>797.4</ele>
        <time>2021-09-18T08:22:53Z</time>
      </trkpt>
      <trkpt lat="43.85884" lon="6.55532">
        <ele>797.4</ele>
        <time>2021-09-18T08:22:55Z</time>
      </trkpt>
      <trkpt lat="43.85888" lon="6.55533">
        <ele>797.4</ele>
        <time>2021-09-18T08:22:56Z</time>
      </trkpt>
      <trkpt lat="43.85893" lon="6.55534">
        <ele>797.4</ele>
        <time>2021-09-18T08:22:57Z</time>
      </trkpt>
      <trkpt lat="43.85901" lon="6.55538">
        <ele>797.3</ele>
        <time>2021-09-18T08:22:59Z</time>
      </trkpt>
      <trkpt lat="43.85906" lon="6.5554">
        <ele>797.3</ele>
        <time>2021-09-18T08:23:00Z</time>
      </trkpt>
      <trkpt lat="43.85916" lon="6.55545">
        <ele>797.3</ele>
        <time>2021-09-18T08:23:02Z</time>
      </trkpt>
      <trkpt lat="43.85924" lon="6.55547">
        <ele>797.3</ele>
        <time>2021-09-18T08:23:04Z</time>
      </trkpt>
      <trkpt lat="43.85927" lon="6.55549">
        <ele>797.3</ele>
        <time>2021-09-18T08:23:05Z</time>
      </trkpt>
      <trkpt lat="43.85936" lon="6.55555">
        <ele>797.2</ele>
        <time>2021-09-18T08:23:07Z</time>
      </trkpt>
      <trkpt lat="43.8594" lon="6.55559">
        <ele>797.2</ele>
        <time>2021-09-18T08:23:08Z</time>
      </trkpt>
      <trkpt lat="43.85943" lon="6.55563">
        <ele>797.1</ele>
        <time>2021-09-18T08:23:09Z</time>
      </trkpt>
      <trkpt lat="43.85947" lon="6.55569">
        <ele>797.1</ele>
        <time>2021-09-18T08:23:11Z</time>
      </trkpt>
      <trkpt lat="43.85945" lon="6.55572">
        <ele>797.1</ele>
        <time>2021-09-18T08:23:12Z</time>
      </trkpt>
      <trkpt lat="43.85952" lon="6.5558">
        <ele>797</ele>
        <time>2021-09-18T08:23:14Z</time>
      </trkpt>
      <trkpt lat="43.85959" lon="6.55586">
        <ele>797</ele>
        <time>2021-09-18T08:23:15Z</time>
      </trkpt>
      <trkpt lat="43.85962" lon="6.55591">
        <ele>796.9</ele>
        <time>2021-09-18T08:23:16Z</time>
      </trkpt>
      <trkpt lat="43.85966" lon="6.55597">
        <ele>796.9</ele>
        <time>2021-09-18T08:23:17Z</time>
      </trkpt>
      <trkpt lat="43.85971" lon="6.55604">
        <ele>796.9</ele>
        <time>2021-09-18T08:23:19Z</time>
      </trkpt>
      <trkpt lat="43.85977" lon="6.55611">
        <ele>796.8</ele>
        <time>2021-09-18T08:23:21Z</time>
      </trkpt>
      <trkpt lat="43.85981" lon="6.55614">
        <ele>796.8</ele>
        <time>2021-09-18T08:23:23Z</time>
      </trkpt>
      <trkpt lat="43.85984" lon="6.55618">
        <ele>796.8</ele>
        <time>2021-09-18T08:23:24Z</time>
      </trkpt>
      <trkpt lat="43.85987" lon="6.55622">
        <ele>796.8</ele>
        <time>2021-09-18T08:23:25Z</time>
      </trkpt>
      <trkpt lat="43.8599" lon="6.55624">
        <ele>796.7</ele>
        <time>2021-09-18T08:23:26Z</time>
      </trkpt>
      <trkpt lat="43.85994" lon="6.55626">
        <ele>796.7</ele>
        <time>2021-09-18T08:23:28Z</time>
      </trkpt>
      <trkpt lat="43.85998" lon="6.55629">
        <ele>796.7</ele>
        <time>2021-09-18T08:23:30Z</time>
      </trkpt>
      <trkpt lat="43.86" lon="6.55631">
        <ele>796.7</ele>
        <time>2021-09-18T08:23:32Z</time>
      </trkpt>
      <trkpt lat="43.86095" lon="6.55722">
        <ele>796.3</ele>
        <time>2021-09-18T08:23:54Z</time>
      </trkpt>
      <trkpt lat="43.86101" lon="6.55722">
        <ele>796.3</ele>
        <time>2021-09-18T08:23:56Z</time>
      </trkpt>
      <trkpt lat="43.86104" lon="6.55722">
        <ele>796.3</ele>
        <time>2021-09-18T08:23:57Z</time>
      </trkpt>
      <trkpt lat="43.86106" lon="6.55722">
        <ele>796.3</ele>
        <time>2021-09-18T08:23:58Z</time>
      </trkpt>
      <trkpt lat="43.86113" lon="6.5572">
        <ele>796.3</ele>
        <time>2021-09-18T08:23:59Z</time>
      </trkpt>
      <trkpt lat="43.8612" lon="6.55718">
        <ele>796.2</ele>
        <time>2021-09-18T08:24:01Z</time>
      </trkpt>
      <trkpt lat="43.86124" lon="6.55717">
        <ele>796.2</ele>
        <time>2021-09-18T08:24:02Z</time>
      </trkpt>
      <trkpt lat="43.86133" lon="6.55716">
        <ele>796.2</ele>
        <time>2021-09-18T08:24:04Z</time>
      </trkpt>
      <trkpt lat="43.86138" lon="6.55716">
        <ele>796.1</ele>
        <time>2021-09-18T08:24:05Z</time>
      </trkpt>
      <trkpt lat="43.86144" lon="6.55717">
        <ele>796.1</ele>
        <time>2021-09-18T08:24:06Z</time>
      </trkpt>
      <trkpt lat="43.86155" lon="6.55718">
        <ele>796</ele>
        <time>2021-09-18T08:24:08Z</time>
      </trkpt>
      <trkpt lat="43.86166" lon="6.55717">
        <ele>795.9</ele>
        <time>2021-09-18T08:24:10Z</time>
      </trkpt>
      <trkpt lat="43.86177" lon="6.55717">
        <ele>795.9</ele>
        <time>2021-09-18T08:24:12Z</time>
      </trkpt>
      <trkpt lat="43.86187" lon="6.55719">
        <ele>795.9</ele>
        <time>2021-09-18T08:24:14Z</time>
      </trkpt>
      <trkpt lat="43.86196" lon="6.55721">
        <ele>796</ele>
        <time>2021-09-18T08:24:16Z</time>
      </trkpt>
      <trkpt lat="43.86203" lon="6.55722">
        <ele>796</ele>
        <time>2021-09-18T08:24:17Z</time>
      </trkpt>
      <trkpt lat="43.86207" lon="6.55722">
        <ele>796</ele>
        <time>2021-09-18T08:24:18Z</time>
      </trkpt>
      <trkpt lat="43.86212" lon="6.55722">
        <ele>796</ele>
        <time>2021-09-18T08:24:19Z</time>
      </trkpt>
      <trkpt lat="43.86217" lon="6.55721">
        <ele>795.9</ele>
        <time>2021-09-18T08:24:20Z</time>
      </trkpt>
      <trkpt lat="43.86223" lon="6.5572">
        <ele>795.9</ele>
        <time>2021-09-18T08:24:21Z</time>
      </trkpt>
      <trkpt lat="43.86228" lon="6.55719">
        <ele>795.8</ele>
        <time>2021-09-18T08:24:22Z</time>
      </trkpt>
      <trkpt lat="43.86235" lon="6.55719">
        <ele>795.8</ele>
        <time>2021-09-18T08:24:24Z</time>
      </trkpt>
      <trkpt lat="43.86241" lon="6.55718">
        <ele>795.8</ele>
        <time>2021-09-18T08:24:25Z</time>
      </trkpt>
      <trkpt lat="43.86249" lon="6.55717">
        <ele>795.8</ele>
        <time>2021-09-18T08:24:27Z</time>
      </trkpt>
      <trkpt lat="43.86258" lon="6.55716">
        <ele>795.8</ele>
        <time>2021-09-18T08:24:29Z</time>
      </trkpt>
      <trkpt lat="43.86267" lon="6.55717">
        <ele>795.8</ele>
        <time>2021-09-18T08:24:31Z</time>
      </trkpt>
      <trkpt lat="43.86274" lon="6.55719">
        <ele>795.8</ele>
        <time>2021-09-18T08:24:32Z</time>
      </trkpt>
      <trkpt lat="43.86282" lon="6.5572">
        <ele>795.8</ele>
        <time>2021-09-18T08:24:33Z</time>
      </trkpt>
      <trkpt lat="43.86294" lon="6.55722">
        <ele>795.9</ele>
        <time>2021-09-18T08:24:35Z</time>
      </trkpt>
      <trkpt lat="43.86306" lon="6.55727">
        <ele>796.1</ele>
        <time>2021-09-18T08:24:37Z</time>
      </trkpt>
      <trkpt lat="43.86313" lon="6.55731">
        <ele>796.3</ele>
        <time>2021-09-18T08:24:38Z</time>
      </trkpt>
      <trkpt lat="43.86317" lon="6.55735">
        <ele>796.4</ele>
        <time>2021-09-18T08:24:39Z</time>
      </trkpt>
      <trkpt lat="43.86323" lon="6.55744">
        <ele>796.7</ele>
        <time>2021-09-18T08:24:41Z</time>
      </trkpt>
      <trkpt lat="43.86327" lon="6.55753">
        <ele>797</ele>
        <time>2021-09-18T08:24:43Z</time>
      </trkpt>
      <trkpt lat="43.86328" lon="6.55759">
        <ele>797.2</ele>
        <time>2021-09-18T08:24:44Z</time>
      </trkpt>
      <trkpt lat="43.86329" lon="6.55765">
        <ele>797.4</ele>
        <time>2021-09-18T08:24:45Z</time>
      </trkpt>
      <trkpt lat="43.86329" lon="6.55774">
        <ele>797.8</ele>
        <time>2021-09-18T08:24:47Z</time>
      </trkpt>
      <trkpt lat="43.86329" lon="6.55783">
        <ele>798.2</ele>
        <time>2021-09-18T08:24:48Z</time>
      </trkpt>
      <trkpt lat="43.86328" lon="6.55791">
        <ele>798.7</ele>
        <time>2021-09-18T08:24:50Z</time>
      </trkpt>
      <trkpt lat="43.86327" lon="6.558">
        <ele>799.2</ele>
        <time>2021-09-18T08:24:52Z</time>
      </trkpt>
      <trkpt lat="43.86326" lon="6.55806">
        <ele>799.6</ele>
        <time>2021-09-18T08:24:53Z</time>
      </trkpt>
      <trkpt lat="43.86326" lon="6.55811">
        <ele>799.8</ele>
        <time>2021-09-18T08:24:54Z</time>
      </trkpt>
      <trkpt lat="43.86326" lon="6.55816">
        <ele>800.2</ele>
        <time>2021-09-18T08:24:56Z</time>
      </trkpt>
      <trkpt lat="43.86324" lon="6.55822">
        <ele>800.6</ele>
        <time>2021-09-18T08:24:57Z</time>
      </trkpt>
      <trkpt lat="43.86323" lon="6.55829">
        <ele>801.1</ele>
        <time>2021-09-18T08:24:59Z</time>
      </trkpt>
      <trkpt lat="43.86322" lon="6.55835">
        <ele>801.5</ele>
        <time>2021-09-18T08:25:00Z</time>
      </trkpt>
      <trkpt lat="43.86321" lon="6.55841">
        <ele>801.8</ele>
        <time>2021-09-18T08:25:02Z</time>
      </trkpt>
      <trkpt lat="43.86321" lon="6.55846">
        <ele>802.1</ele>
        <time>2021-09-18T08:25:04Z</time>
      </trkpt>
      <trkpt lat="43.86321" lon="6.55851">
        <ele>802.4</ele>
        <time>2021-09-18T08:25:06Z</time>
      </trkpt>
      <trkpt lat="43.86322" lon="6.55855">
        <ele>802.6</ele>
        <time>2021-09-18T08:25:07Z</time>
      </trkpt>
      <trkpt lat="43.86324" lon="6.55858">
        <ele>802.8</ele>
        <time>2021-09-18T08:25:08Z</time>
      </trkpt>
      <trkpt lat="43.86325" lon="6.55865">
        <ele>803.2</ele>
        <time>2021-09-18T08:25:10Z</time>
      </trkpt>
      <trkpt lat="43.86325" lon="6.55867">
        <ele>803.4</ele>
        <time>2021-09-18T08:25:12Z</time>
      </trkpt>
      <trkpt lat="43.86324" lon="6.5587">
        <ele>803.5</ele>
        <time>2021-09-18T08:25:13Z</time>
      </trkpt>
      <trkpt lat="43.86324" lon="6.55873">
        <ele>803.6</ele>
        <time>2021-09-18T08:25:14Z</time>
      </trkpt>
      <trkpt lat="43.86324" lon="6.55877">
        <ele>803.9</ele>
        <time>2021-09-18T08:25:16Z</time>
      </trkpt>
      <trkpt lat="43.86324" lon="6.55881">
        <ele>804.1</ele>
        <time>2021-09-18T08:25:17Z</time>
      </trkpt>
      <trkpt lat="43.86324" lon="6.55885">
        <ele>804.3</ele>
        <time>2021-09-18T08:25:19Z</time>
      </trkpt>
      <trkpt lat="43.86324" lon="6.55887">
        <ele>804.5</ele>
        <time>2021-09-18T08:25:20Z</time>
      </trkpt>
      <trkpt lat="43.86323" lon="6.55892">
        <ele>804.7</ele>
        <time>2021-09-18T08:25:22Z</time>
      </trkpt>
      <trkpt lat="43.86324" lon="6.55898">
        <ele>805.1</ele>
        <time>2021-09-18T08:25:24Z</time>
      </trkpt>
      <trkpt lat="43.86324" lon="6.559">
        <ele>805.2</ele>
        <time>2021-09-18T08:25:25Z</time>
      </trkpt>
      <trkpt lat="43.86325" lon="6.55903">
        <ele>805.3</ele>
        <time>2021-09-18T08:25:26Z</time>
      </trkpt>
      <trkpt lat="43.86324" lon="6.55907">
        <ele>805.5</ele>
        <time>2021-09-18T08:25:28Z</time>
      </trkpt>
      <trkpt lat="43.86324" lon="6.55909">
        <ele>805.7</ele>
        <time>2021-09-18T08:25:29Z</time>
      </trkpt>
      <trkpt lat="43.86324" lon="6.55914">
        <ele>805.9</ele>
        <time>2021-09-18T08:25:31Z</time>
      </trkpt>
      <trkpt lat="43.86324" lon="6.55916">
        <ele>806.1</ele>
        <time>2021-09-18T08:25:32Z</time>
      </trkpt>
      <trkpt lat="43.86324" lon="6.5592">
        <ele>806.3</ele>
        <time>2021-09-18T08:25:34Z</time>
      </trkpt>
      <trkpt lat="43.86323" lon="6.5592">
        <ele>806.4</ele>
        <time>2021-09-18T08:25:35Z</time>
      </trkpt>
      <trkpt lat="43.86321" lon="6.55918">
        <ele>806.6</ele>
        <time>2021-09-18T08:25:37Z</time>
      </trkpt>
      <trkpt lat="43.8632" lon="6.55919">
        <ele>806.7</ele>
        <time>2021-09-18T08:25:39Z</time>
      </trkpt>
      <trkpt lat="43.8632" lon="6.5592">
        <ele>806.7</ele>
        <time>2021-09-18T08:25:41Z</time>
      </trkpt>
      <trkpt lat="43.8632" lon="6.5592">
        <ele>806.8</ele>
        <time>2021-09-18T08:25:42Z</time>
      </trkpt>
      <trkpt lat="43.86321" lon="6.5592">
        <ele>806.8</ele>
        <time>2021-09-18T08:25:44Z</time>
      </trkpt>
      <trkpt lat="43.86321" lon="6.55919">
        <ele>806.9</ele>
        <time>2021-09-18T08:25:45Z</time>
      </trkpt>
      <trkpt lat="43.86321" lon="6.5592">
        <ele>806.9</ele>
        <time>2021-09-18T08:25:47Z</time>
      </trkpt>
      <trkpt lat="43.86321" lon="6.5592">
        <ele>806.9</ele>
        <time>2021-09-18T08:25:48Z</time>
      </trkpt>
      <trkpt lat="43.86321" lon="6.55921">
        <ele>806.9</ele>
        <time>2021-09-18T08:25:50Z</time>
      </trkpt>
      <trkpt lat="43.86321" lon="6.55922">
        <ele>807</ele>
        <time>2021-09-18T08:25:51Z</time>
      </trkpt>
      <trkpt lat="43.86325" lon="6.55935">
        <ele>807.9</ele>
        <time>2021-09-18T08:25:59Z</time>
      </trkpt>
      <trkpt lat="43.86326" lon="6.5594">
        <ele>808.1</ele>
        <time>2021-09-18T08:26:00Z</time>
      </trkpt>
      <trkpt lat="43.86326" lon="6.55946">
        <ele>808.5</ele>
        <time>2021-09-18T08:26:02Z</time>
      </trkpt>
      <trkpt lat="43.86326" lon="6.55954">
        <ele>808.9</ele>
        <time>2021-09-18T08:26:04Z</time>
      </trkpt>
      <trkpt lat="43.86326" lon="6.55957">
        <ele>809.2</ele>
        <time>2021-09-18T08:26:05Z</time>
      </trkpt>
      <trkpt lat="43.86325" lon="6.55964">
        <ele>809.6</ele>
        <time>2021-09-18T08:26:07Z</time>
      </trkpt>
      <trkpt lat="43.86324" lon="6.55971">
        <ele>810</ele>
        <time>2021-09-18T08:26:09Z</time>
      </trkpt>
      <trkpt lat="43.86323" lon="6.55976">
        <ele>810.2</ele>
        <time>2021-09-18T08:26:10Z</time>
      </trkpt>
      <trkpt lat="43.86323" lon="6.55978">
        <ele>810.3</ele>
        <time>2021-09-18T08:26:11Z</time>
      </trkpt>
      <trkpt lat="43.86323" lon="6.55981">
        <ele>810.5</ele>
        <time>2021-09-18T08:26:12Z</time>
      </trkpt>
      <trkpt lat="43.86322" lon="6.55986">
        <ele>810.8</ele>
        <time>2021-09-18T08:26:14Z</time>
      </trkpt>
      <trkpt lat="43.86322" lon="6.55989">
        <ele>810.9</ele>
        <time>2021-09-18T08:26:15Z</time>
      </trkpt>
      <trkpt lat="43.86322" lon="6.55993">
        <ele>811.2</ele>
        <time>2021-09-18T08:26:17Z</time>
      </trkpt>
      <trkpt lat="43.86322" lon="6.55996">
        <ele>811.3</ele>
        <time>2021-09-18T08:26:18Z</time>
      </trkpt>
      <trkpt lat="43.86322" lon="6.55998">
        <ele>811.4</ele>
        <time>2021-09-18T08:26:19Z</time>
      </trkpt>
      <trkpt lat="43.86322" lon="6.56">
        <ele>811.5</ele>
        <time>2021-09-18T08:26:20Z</time>
      </trkpt>
      <trkpt lat="43.86323" lon="6.56003">
        <ele>811.7</ele>
        <time>2021-09-18T08:26:22Z</time>
      </trkpt>
      <trkpt lat="43.86325" lon="6.56007">
        <ele>811.9</ele>
        <time>2021-09-18T08:26:24Z</time>
      </trkpt>
      <trkpt lat="43.86325" lon="6.56009">
        <ele>812</ele>
        <time>2021-09-18T08:26:25Z</time>
      </trkpt>
      <trkpt lat="43.86326" lon="6.56012">
        <ele>812.2</ele>
        <time>2021-09-18T08:26:27Z</time>
      </trkpt>
      <trkpt lat="43.86326" lon="6.56015">
        <ele>812.4</ele>
        <time>2021-09-18T08:26:28Z</time>
      </trkpt>
      <trkpt lat="43.86327" lon="6.56019">
        <ele>812.5</ele>
        <time>2021-09-18T08:26:30Z</time>
      </trkpt>
      <trkpt lat="43.86327" lon="6.56021">
        <ele>812.7</ele>
        <time>2021-09-18T08:26:31Z</time>
      </trkpt>
      <trkpt lat="43.86327" lon="6.56023">
        <ele>812.8</ele>
        <time>2021-09-18T08:26:32Z</time>
      </trkpt>
      <trkpt lat="43.86326" lon="6.56025">
        <ele>812.9</ele>
        <time>2021-09-18T08:26:33Z</time>
      </trkpt>
      <trkpt lat="43.86326" lon="6.56032">
        <ele>813.3</ele>
        <time>2021-09-18T08:26:35Z</time>
      </trkpt>
      <trkpt lat="43.86326" lon="6.56037">
        <ele>813.6</ele>
        <time>2021-09-18T08:26:36Z</time>
      </trkpt>
      <trkpt lat="43.86326" lon="6.56042">
        <ele>813.8</ele>
        <time>2021-09-18T08:26:37Z</time>
      </trkpt>
      <trkpt lat="43.86326" lon="6.56044">
        <ele>813.9</ele>
        <time>2021-09-18T08:26:38Z</time>
      </trkpt>
      <trkpt lat="43.86326" lon="6.56049">
        <ele>814.2</ele>
        <time>2021-09-18T08:26:40Z</time>
      </trkpt>
      <trkpt lat="43.86325" lon="6.56053">
        <ele>814.4</ele>
        <time>2021-09-18T08:26:41Z</time>
      </trkpt>
      <trkpt lat="43.86324" lon="6.56056">
        <ele>814.5</ele>
        <time>2021-09-18T08:26:42Z</time>
      </trkpt>
      <trkpt lat="43.86323" lon="6.56061">
        <ele>814.8</ele>
        <time>2021-09-18T08:26:44Z</time>
      </trkpt>
      <trkpt lat="43.86322" lon="6.56063">
        <ele>815</ele>
        <time>2021-09-18T08:26:45Z</time>
      </trkpt>
      <trkpt lat="43.8632" lon="6.56068">
        <ele>815.2</ele>
        <time>2021-09-18T08:26:47Z</time>
      </trkpt>
      <trkpt lat="43.86319" lon="6.56075">
        <ele>815.6</ele>
        <time>2021-09-18T08:26:49Z</time>
      </trkpt>
      <trkpt lat="43.86319" lon="6.56079">
        <ele>815.8</ele>
        <time>2021-09-18T08:26:50Z</time>
      </trkpt>
      <trkpt lat="43.8632" lon="6.56085">
        <ele>816.1</ele>
        <time>2021-09-18T08:26:52Z</time>
      </trkpt>
      <trkpt lat="43.8632" lon="6.56088">
        <ele>816.2</ele>
        <time>2021-09-18T08:26:53Z</time>
      </trkpt>
      <trkpt lat="43.8632" lon="6.56094">
        <ele>816.5</ele>
        <time>2021-09-18T08:26:55Z</time>
      </trkpt>
      <trkpt lat="43.8632" lon="6.56099">
        <ele>816.8</ele>
        <time>2021-09-18T08:26:57Z</time>
      </trkpt>
      <trkpt lat="43.8632" lon="6.56104">
        <ele>817</ele>
        <time>2021-09-18T08:26:58Z</time>
      </trkpt>
      <trkpt lat="43.8632" lon="6.56106">
        <ele>817.1</ele>
        <time>2021-09-18T08:26:59Z</time>
      </trkpt>
      <trkpt lat="43.86321" lon="6.56111">
        <ele>817.3</ele>
        <time>2021-09-18T08:27:01Z</time>
      </trkpt>
      <trkpt lat="43.86322" lon="6.56114">
        <ele>817.5</ele>
        <time>2021-09-18T08:27:03Z</time>
      </trkpt>
      <trkpt lat="43.86321" lon="6.56115">
        <ele>817.6</ele>
        <time>2021-09-18T08:27:04Z</time>
      </trkpt>
      <trkpt lat="43.86319" lon="6.56116">
        <ele>817.7</ele>
        <time>2021-09-18T08:27:05Z</time>
      </trkpt>
      <trkpt lat="43.86319" lon="6.56117">
        <ele>817.7</ele>
        <time>2021-09-18T08:27:07Z</time>
      </trkpt>
      <trkpt lat="43.86319" lon="6.56118">
        <ele>817.8</ele>
        <time>2021-09-18T08:27:09Z</time>
      </trkpt>
      <trkpt lat="43.86319" lon="6.56122">
        <ele>818</ele>
        <time>2021-09-18T08:27:10Z</time>
      </trkpt>
      <trkpt lat="43.86318" lon="6.56125">
        <ele>818.1</ele>
        <time>2021-09-18T08:27:11Z</time>
      </trkpt>
      <trkpt lat="43.86319" lon="6.56133">
        <ele>818.5</ele>
        <time>2021-09-18T08:27:13Z</time>
      </trkpt>
      <trkpt lat="43.86319" lon="6.5614">
        <ele>818.9</ele>
        <time>2021-09-18T08:27:15Z</time>
      </trkpt>
      <trkpt lat="43.86319" lon="6.56145">
        <ele>819.1</ele>
        <time>2021-09-18T08:27:16Z</time>
      </trkpt>
      <trkpt lat="43.86318" lon="6.56153">
        <ele>819.5</ele>
        <time>2021-09-18T08:27:18Z</time>
      </trkpt>
      <trkpt lat="43.86318" lon="6.56158">
        <ele>819.7</ele>
        <time>2021-09-18T08:27:19Z</time>
      </trkpt>
      <trkpt lat="43.86318" lon="6.56161">
        <ele>819.8</ele>
        <time>2021-09-18T08:27:20Z</time>
      </trkpt>
      <trkpt lat="43.86318" lon="6.56165">
        <ele>820</ele>
        <time>2021-09-18T08:27:21Z</time>
      </trkpt>
      <trkpt lat="43.86319" lon="6.56171">
        <ele>820.3</ele>
        <time>2021-09-18T08:27:23Z</time>
      </trkpt>
      <trkpt lat="43.8632" lon="6.56176">
        <ele>820.5</ele>
        <time>2021-09-18T08:27:24Z</time>
      </trkpt>
      <trkpt lat="43.86321" lon="6.56177">
        <ele>820.5</ele>
        <time>2021-09-18T08:27:25Z</time>
      </trkpt>
      <trkpt lat="43.86323" lon="6.56184">
        <ele>820.8</ele>
        <time>2021-09-18T08:27:27Z</time>
      </trkpt>
      <trkpt lat="43.86324" lon="6.56189">
        <ele>821.1</ele>
        <time>2021-09-18T08:27:29Z</time>
      </trkpt>
      <trkpt lat="43.86326" lon="6.56194">
        <ele>821.3</ele>
        <time>2021-09-18T08:27:30Z</time>
      </trkpt>
      <trkpt lat="43.86327" lon="6.56197">
        <ele>821.4</ele>
        <time>2021-09-18T08:27:31Z</time>
      </trkpt>
      <trkpt lat="43.86328" lon="6.56201">
        <ele>821.6</ele>
        <time>2021-09-18T08:27:32Z</time>
      </trkpt>
      <trkpt lat="43.86328" lon="6.56206">
        <ele>821.8</ele>
        <time>2021-09-18T08:27:34Z</time>
      </trkpt>
      <trkpt lat="43.86328" lon="6.56211">
        <ele>822</ele>
        <time>2021-09-18T08:27:35Z</time>
      </trkpt>
      <trkpt lat="43.86328" lon="6.56212">
        <ele>822.1</ele>
        <time>2021-09-18T08:27:36Z</time>
      </trkpt>
      <trkpt lat="43.86328" lon="6.56213">
        <ele>822.1</ele>
        <time>2021-09-18T08:27:38Z</time>
      </trkpt>
      <trkpt lat="43.86329" lon="6.56216">
        <ele>822.2</ele>
        <time>2021-09-18T08:27:39Z</time>
      </trkpt>
      <trkpt lat="43.8633" lon="6.56222">
        <ele>822.5</ele>
        <time>2021-09-18T08:27:41Z</time>
      </trkpt>
      <trkpt lat="43.86332" lon="6.56225">
        <ele>822.6</ele>
        <time>2021-09-18T08:27:42Z</time>
      </trkpt>
      <trkpt lat="43.86332" lon="6.56227">
        <ele>822.7</ele>
        <time>2021-09-18T08:27:43Z</time>
      </trkpt>
      <trkpt lat="43.86333" lon="6.56231">
        <ele>822.8</ele>
        <time>2021-09-18T08:27:45Z</time>
      </trkpt>
      <trkpt lat="43.86333" lon="6.56233">
        <ele>822.9</ele>
        <time>2021-09-18T08:27:46Z</time>
      </trkpt>
      <trkpt lat="43.86334" lon="6.56237">
        <ele>823</ele>
        <time>2021-09-18T08:27:48Z</time>
      </trkpt>
      <trkpt lat="43.86334" lon="6.5624">
        <ele>823.1</ele>
        <time>2021-09-18T08:27:49Z</time>
      </trkpt>
      <trkpt lat="43.86336" lon="6.56244">
        <ele>823.2</ele>
        <time>2021-09-18T08:27:51Z</time>
      </trkpt>
      <trkpt lat="43.86338" lon="6.56248">
        <ele>823.4</ele>
        <time>2021-09-18T08:27:52Z</time>
      </trkpt>
      <trkpt lat="43.8634" lon="6.56253">
        <ele>823.5</ele>
        <time>2021-09-18T08:27:53Z</time>
      </trkpt>
      <trkpt lat="43.86342" lon="6.5626">
        <ele>823.7</ele>
        <time>2021-09-18T08:27:55Z</time>
      </trkpt>
      <trkpt lat="43.86345" lon="6.56265">
        <ele>823.9</ele>
        <time>2021-09-18T08:27:56Z</time>
      </trkpt>
      <trkpt lat="43.86345" lon="6.56269">
        <ele>824</ele>
        <time>2021-09-18T08:27:57Z</time>
      </trkpt>
      <trkpt lat="43.86347" lon="6.56275">
        <ele>824.2</ele>
        <time>2021-09-18T08:27:59Z</time>
      </trkpt>
      <trkpt lat="43.86349" lon="6.5628">
        <ele>824.3</ele>
        <time>2021-09-18T08:28:01Z</time>
      </trkpt>
      <trkpt lat="43.86351" lon="6.56283">
        <ele>824.5</ele>
        <time>2021-09-18T08:28:02Z</time>
      </trkpt>
      <trkpt lat="43.86352" lon="6.56287">
        <ele>824.6</ele>
        <time>2021-09-18T08:28:03Z</time>
      </trkpt>
      <trkpt lat="43.86354" lon="6.5629">
        <ele>824.7</ele>
        <time>2021-09-18T08:28:04Z</time>
      </trkpt>
      <trkpt lat="43.86355" lon="6.56295">
        <ele>824.9</ele>
        <time>2021-09-18T08:28:06Z</time>
      </trkpt>
      <trkpt lat="43.86356" lon="6.56297">
        <ele>825</ele>
        <time>2021-09-18T08:28:07Z</time>
      </trkpt>
      <trkpt lat="43.86357" lon="6.56301">
        <ele>825.2</ele>
        <time>2021-09-18T08:28:09Z</time>
      </trkpt>
      <trkpt lat="43.86357" lon="6.56302">
        <ele>825.2</ele>
        <time>2021-09-18T08:28:10Z</time>
      </trkpt>
      <trkpt lat="43.86358" lon="6.56305">
        <ele>825.4</ele>
        <time>2021-09-18T08:28:12Z</time>
      </trkpt>
      <trkpt lat="43.86358" lon="6.56307">
        <ele>825.5</ele>
        <time>2021-09-18T08:28:14Z</time>
      </trkpt>
      <trkpt lat="43.86358" lon="6.5631">
        <ele>825.7</ele>
        <time>2021-09-18T08:28:15Z</time>
      </trkpt>
      <trkpt lat="43.86358" lon="6.56312">
        <ele>825.8</ele>
        <time>2021-09-18T08:28:16Z</time>
      </trkpt>
      <trkpt lat="43.86359" lon="6.56317">
        <ele>826.1</ele>
        <time>2021-09-18T08:28:18Z</time>
      </trkpt>
      <trkpt lat="43.86361" lon="6.56321">
        <ele>826.4</ele>
        <time>2021-09-18T08:28:19Z</time>
      </trkpt>
      <trkpt lat="43.86361" lon="6.56325">
        <ele>826.7</ele>
        <time>2021-09-18T08:28:21Z</time>
      </trkpt>
      <trkpt lat="43.86362" lon="6.5633">
        <ele>827</ele>
        <time>2021-09-18T08:28:23Z</time>
      </trkpt>
      <trkpt lat="43.86363" lon="6.56334">
        <ele>827.2</ele>
        <time>2021-09-18T08:28:24Z</time>
      </trkpt>
      <trkpt lat="43.86364" lon="6.56338">
        <ele>827.5</ele>
        <time>2021-09-18T08:28:25Z</time>
      </trkpt>
      <trkpt lat="43.86365" lon="6.56343">
        <ele>827.8</ele>
        <time>2021-09-18T08:28:27Z</time>
      </trkpt>
      <trkpt lat="43.86366" lon="6.56348">
        <ele>828.1</ele>
        <time>2021-09-18T08:28:29Z</time>
      </trkpt>
      <trkpt lat="43.86367" lon="6.56352">
        <ele>828.4</ele>
        <time>2021-09-18T08:28:30Z</time>
      </trkpt>
      <trkpt lat="43.86367" lon="6.56358">
        <ele>828.7</ele>
        <time>2021-09-18T08:28:32Z</time>
      </trkpt>
      <trkpt lat="43.86367" lon="6.56362">
        <ele>828.9</ele>
        <time>2021-09-18T08:28:34Z</time>
      </trkpt>
      <trkpt lat="43.86365" lon="6.56365">
        <ele>829.1</ele>
        <time>2021-09-18T08:28:35Z</time>
      </trkpt>
      <trkpt lat="43.86363" lon="6.56369">
        <ele>829.4</ele>
        <time>2021-09-18T08:28:37Z</time>
      </trkpt>
      <trkpt lat="43.86359" lon="6.56373">
        <ele>829.8</ele>
        <time>2021-09-18T08:28:39Z</time>
      </trkpt>
      <trkpt lat="43.86358" lon="6.56374">
        <ele>829.9</ele>
        <time>2021-09-18T08:28:40Z</time>
      </trkpt>
      <trkpt lat="43.86357" lon="6.56375">
        <ele>830</ele>
        <time>2021-09-18T08:28:41Z</time>
      </trkpt>
      <trkpt lat="43.86354" lon="6.56378">
        <ele>830.3</ele>
        <time>2021-09-18T08:28:43Z</time>
      </trkpt>
      <trkpt lat="43.86352" lon="6.5638">
        <ele>830.5</ele>
        <time>2021-09-18T08:28:44Z</time>
      </trkpt>
      <trkpt lat="43.86349" lon="6.56382">
        <ele>830.8</ele>
        <time>2021-09-18T08:28:46Z</time>
      </trkpt>
      <trkpt lat="43.86346" lon="6.56385">
        <ele>831</ele>
        <time>2021-09-18T08:28:47Z</time>
      </trkpt>
      <trkpt lat="43.86345" lon="6.56386">
        <ele>831.1</ele>
        <time>2021-09-18T08:28:48Z</time>
      </trkpt>
      <trkpt lat="43.86342" lon="6.5639">
        <ele>831.4</ele>
        <time>2021-09-18T08:28:50Z</time>
      </trkpt>
      <trkpt lat="43.8634" lon="6.56394">
        <ele>831.7</ele>
        <time>2021-09-18T08:28:52Z</time>
      </trkpt>
      <trkpt lat="43.86338" lon="6.56398">
        <ele>831.9</ele>
        <time>2021-09-18T08:28:53Z</time>
      </trkpt>
      <trkpt lat="43.86338" lon="6.56399">
        <ele>832</ele>
        <time>2021-09-18T08:28:54Z</time>
      </trkpt>
      <trkpt lat="43.86336" lon="6.56403">
        <ele>832.3</ele>
        <time>2021-09-18T08:28:56Z</time>
      </trkpt>
      <trkpt lat="43.86334" lon="6.56408">
        <ele>832.6</ele>
        <time>2021-09-18T08:28:58Z</time>
      </trkpt>
      <trkpt lat="43.86332" lon="6.56411">
        <ele>832.8</ele>
        <time>2021-09-18T08:28:59Z</time>
      </trkpt>
      <trkpt lat="43.86331" lon="6.56417">
        <ele>833.1</ele>
        <time>2021-09-18T08:29:01Z</time>
      </trkpt>
      <trkpt lat="43.86331" lon="6.56419">
        <ele>833.2</ele>
        <time>2021-09-18T08:29:02Z</time>
      </trkpt>
      <trkpt lat="43.86331" lon="6.56421">
        <ele>833.2</ele>
        <time>2021-09-18T08:29:03Z</time>
      </trkpt>
      <trkpt lat="43.8633" lon="6.56423">
        <ele>833.4</ele>
        <time>2021-09-18T08:29:04Z</time>
      </trkpt>
      <trkpt lat="43.86329" lon="6.56427">
        <ele>833.6</ele>
        <time>2021-09-18T08:29:06Z</time>
      </trkpt>
      <trkpt lat="43.86329" lon="6.5643">
        <ele>833.7</ele>
        <time>2021-09-18T08:29:07Z</time>
      </trkpt>
      <trkpt lat="43.86329" lon="6.56434">
        <ele>833.9</ele>
        <time>2021-09-18T08:29:09Z</time>
      </trkpt>
      <trkpt lat="43.86329" lon="6.56436">
        <ele>834</ele>
        <time>2021-09-18T08:29:10Z</time>
      </trkpt>
      <trkpt lat="43.86328" lon="6.56438">
        <ele>834.1</ele>
        <time>2021-09-18T08:29:11Z</time>
      </trkpt>
      <trkpt lat="43.86328" lon="6.5644">
        <ele>834.2</ele>
        <time>2021-09-18T08:29:13Z</time>
      </trkpt>
      <trkpt lat="43.86328" lon="6.56443">
        <ele>834.3</ele>
        <time>2021-09-18T08:29:15Z</time>
      </trkpt>
      <trkpt lat="43.86327" lon="6.56445">
        <ele>834.4</ele>
        <time>2021-09-18T08:29:16Z</time>
      </trkpt>
      <trkpt lat="43.86327" lon="6.56447">
        <ele>834.5</ele>
        <time>2021-09-18T08:29:17Z</time>
      </trkpt>
      <trkpt lat="43.86328" lon="6.56454">
        <ele>834.8</ele>
        <time>2021-09-18T08:29:19Z</time>
      </trkpt>
      <trkpt lat="43.86329" lon="6.5646">
        <ele>835.1</ele>
        <time>2021-09-18T08:29:20Z</time>
      </trkpt>
      <trkpt lat="43.8633" lon="6.56468">
        <ele>835.5</ele>
        <time>2021-09-18T08:29:22Z</time>
      </trkpt>
      <trkpt lat="43.86332" lon="6.56476">
        <ele>835.9</ele>
        <time>2021-09-18T08:29:24Z</time>
      </trkpt>
      <trkpt lat="43.86333" lon="6.56481">
        <ele>836.1</ele>
        <time>2021-09-18T08:29:25Z</time>
      </trkpt>
      <trkpt lat="43.86333" lon="6.56489">
        <ele>836.5</ele>
        <time>2021-09-18T08:29:27Z</time>
      </trkpt>
      <trkpt lat="43.86334" lon="6.56493">
        <ele>836.7</ele>
        <time>2021-09-18T08:29:28Z</time>
      </trkpt>
      <trkpt lat="43.86334" lon="6.56498">
        <ele>837</ele>
        <time>2021-09-18T08:29:29Z</time>
      </trkpt>
      <trkpt lat="43.86334" lon="6.56499">
        <ele>837</ele>
        <time>2021-09-18T08:29:30Z</time>
      </trkpt>
      <trkpt lat="43.86335" lon="6.56504">
        <ele>837.3</ele>
        <time>2021-09-18T08:29:32Z</time>
      </trkpt>
      <trkpt lat="43.86335" lon="6.56509">
        <ele>837.5</ele>
        <time>2021-09-18T08:29:33Z</time>
      </trkpt>
      <trkpt lat="43.86335" lon="6.5651">
        <ele>837.6</ele>
        <time>2021-09-18T08:29:34Z</time>
      </trkpt>
      <trkpt lat="43.86334" lon="6.56516">
        <ele>837.9</ele>
        <time>2021-09-18T08:29:36Z</time>
      </trkpt>
      <trkpt lat="43.86333" lon="6.56518">
        <ele>837.9</ele>
        <time>2021-09-18T08:29:37Z</time>
      </trkpt>
      <trkpt lat="43.86333" lon="6.5652">
        <ele>838</ele>
        <time>2021-09-18T08:29:38Z</time>
      </trkpt>
      <trkpt lat="43.86332" lon="6.56522">
        <ele>838.1</ele>
        <time>2021-09-18T08:29:39Z</time>
      </trkpt>
      <trkpt lat="43.86332" lon="6.56526">
        <ele>838.4</ele>
        <time>2021-09-18T08:29:41Z</time>
      </trkpt>
      <trkpt lat="43.86332" lon="6.5653">
        <ele>838.6</ele>
        <time>2021-09-18T08:29:42Z</time>
      </trkpt>
      <trkpt lat="43.86331" lon="6.56535">
        <ele>838.8</ele>
        <time>2021-09-18T08:29:44Z</time>
      </trkpt>
      <trkpt lat="43.8633" lon="6.56538">
        <ele>839</ele>
        <time>2021-09-18T08:29:45Z</time>
      </trkpt>
      <trkpt lat="43.86328" lon="6.56541">
        <ele>839.2</ele>
        <time>2021-09-18T08:29:47Z</time>
      </trkpt>
      <trkpt lat="43.86326" lon="6.56543">
        <ele>839.4</ele>
        <time>2021-09-18T08:29:48Z</time>
      </trkpt>
      <trkpt lat="43.86323" lon="6.56546">
        <ele>839.6</ele>
        <time>2021-09-18T08:29:49Z</time>
      </trkpt>
      <trkpt lat="43.86322" lon="6.56547">
        <ele>839.7</ele>
        <time>2021-09-18T08:29:50Z</time>
      </trkpt>
      <trkpt lat="43.86318" lon="6.5655">
        <ele>840.1</ele>
        <time>2021-09-18T08:29:52Z</time>
      </trkpt>
      <trkpt lat="43.86316" lon="6.56555">
        <ele>840.3</ele>
        <time>2021-09-18T08:29:53Z</time>
      </trkpt>
      <trkpt lat="43.86315" lon="6.56556">
        <ele>840.4</ele>
        <time>2021-09-18T08:29:54Z</time>
      </trkpt>
      <trkpt lat="43.86315" lon="6.56561">
        <ele>840.6</ele>
        <time>2021-09-18T08:29:55Z</time>
      </trkpt>
      <trkpt lat="43.86314" lon="6.56568">
        <ele>841</ele>
        <time>2021-09-18T08:29:57Z</time>
      </trkpt>
      <trkpt lat="43.86314" lon="6.5657">
        <ele>841.1</ele>
        <time>2021-09-18T08:29:58Z</time>
      </trkpt>
      <trkpt lat="43.86314" lon="6.56573">
        <ele>841.2</ele>
        <time>2021-09-18T08:29:59Z</time>
      </trkpt>
      <trkpt lat="43.86315" lon="6.56576">
        <ele>841.4</ele>
        <time>2021-09-18T08:30:00Z</time>
      </trkpt>
      <trkpt lat="43.86318" lon="6.56583">
        <ele>841.7</ele>
        <time>2021-09-18T08:30:02Z</time>
      </trkpt>
      <trkpt lat="43.86321" lon="6.56591">
        <ele>841.8</ele>
        <time>2021-09-18T08:30:04Z</time>
      </trkpt>
      <trkpt lat="43.86324" lon="6.56596">
        <ele>841.9</ele>
        <time>2021-09-18T08:30:06Z</time>
      </trkpt>
      <trkpt lat="43.86326" lon="6.566">
        <ele>841.9</ele>
        <time>2021-09-18T08:30:07Z</time>
      </trkpt>
      <trkpt lat="43.8633" lon="6.56604">
        <ele>841.9</ele>
        <time>2021-09-18T08:30:09Z</time>
      </trkpt>
      <trkpt lat="43.86333" lon="6.56609">
        <ele>842</ele>
        <time>2021-09-18T08:30:10Z</time>
      </trkpt>
      <trkpt lat="43.86337" lon="6.56614">
        <ele>842</ele>
        <time>2021-09-18T08:30:12Z</time>
      </trkpt>
      <trkpt lat="43.86341" lon="6.5662">
        <ele>842.2</ele>
        <time>2021-09-18T08:30:14Z</time>
      </trkpt>
      <trkpt lat="43.86344" lon="6.56624">
        <ele>842.4</ele>
        <time>2021-09-18T08:30:15Z</time>
      </trkpt>
      <trkpt lat="43.86346" lon="6.56628">
        <ele>842.5</ele>
        <time>2021-09-18T08:30:17Z</time>
      </trkpt>
      <trkpt lat="43.86346" lon="6.5663">
        <ele>842.6</ele>
        <time>2021-09-18T08:30:18Z</time>
      </trkpt>
      <trkpt lat="43.86347" lon="6.56631">
        <ele>842.7</ele>
        <time>2021-09-18T08:30:19Z</time>
      </trkpt>
      <trkpt lat="43.8635" lon="6.5663">
        <ele>842.9</ele>
        <time>2021-09-18T08:30:21Z</time>
      </trkpt>
      <trkpt lat="43.86352" lon="6.56629">
        <ele>843.1</ele>
        <time>2021-09-18T08:30:23Z</time>
      </trkpt>
      <trkpt lat="43.86355" lon="6.56629">
        <ele>843.2</ele>
        <time>2021-09-18T08:30:24Z</time>
      </trkpt>
      <trkpt lat="43.86355" lon="6.56629">
        <ele>843.3</ele>
        <time>2021-09-18T08:30:25Z</time>
      </trkpt>
      <trkpt lat="43.86356" lon="6.56629">
        <ele>843.3</ele>
        <time>2021-09-18T08:30:26Z</time>
      </trkpt>
      <trkpt lat="43.8636" lon="6.5663">
        <ele>843.6</ele>
        <time>2021-09-18T08:30:28Z</time>
      </trkpt>
      <trkpt lat="43.86362" lon="6.5663">
        <ele>843.8</ele>
        <time>2021-09-18T08:30:29Z</time>
      </trkpt>
      <trkpt lat="43.86363" lon="6.5663">
        <ele>843.8</ele>
        <time>2021-09-18T08:30:30Z</time>
      </trkpt>
      <trkpt lat="43.86368" lon="6.56626">
        <ele>844.2</ele>
        <time>2021-09-18T08:30:32Z</time>
      </trkpt>
      <trkpt lat="43.86369" lon="6.56624">
        <ele>844.3</ele>
        <time>2021-09-18T08:30:33Z</time>
      </trkpt>
      <trkpt lat="43.86371" lon="6.56622">
        <ele>844.4</ele>
        <time>2021-09-18T08:30:34Z</time>
      </trkpt>
      <trkpt lat="43.86373" lon="6.56618">
        <ele>844.7</ele>
        <time>2021-09-18T08:30:36Z</time>
      </trkpt>
      <trkpt lat="43.86375" lon="6.56615">
        <ele>844.9</ele>
        <time>2021-09-18T08:30:37Z</time>
      </trkpt>
      <trkpt lat="43.86377" lon="6.56613">
        <ele>845.1</ele>
        <time>2021-09-18T08:30:38Z</time>
      </trkpt>
      <trkpt lat="43.86382" lon="6.5661">
        <ele>845.4</ele>
        <time>2021-09-18T08:30:40Z</time>
      </trkpt>
      <trkpt lat="43.86387" lon="6.56607">
        <ele>845.7</ele>
        <time>2021-09-18T08:30:41Z</time>
      </trkpt>
      <trkpt lat="43.8639" lon="6.56605">
        <ele>845.9</ele>
        <time>2021-09-18T08:30:42Z</time>
      </trkpt>
      <trkpt lat="43.86395" lon="6.56601">
        <ele>846.3</ele>
        <time>2021-09-18T08:30:44Z</time>
      </trkpt>
      <trkpt lat="43.86399" lon="6.56598">
        <ele>846.5</ele>
        <time>2021-09-18T08:30:45Z</time>
      </trkpt>
      <trkpt lat="43.86403" lon="6.56594">
        <ele>846.8</ele>
        <time>2021-09-18T08:30:47Z</time>
      </trkpt>
      <trkpt lat="43.86407" lon="6.5659">
        <ele>847.2</ele>
        <time>2021-09-18T08:30:48Z</time>
      </trkpt>
      <trkpt lat="43.8641" lon="6.56587">
        <ele>847.4</ele>
        <time>2021-09-18T08:30:49Z</time>
      </trkpt>
      <trkpt lat="43.86413" lon="6.56584">
        <ele>847.6</ele>
        <time>2021-09-18T08:30:50Z</time>
      </trkpt>
      <trkpt lat="43.86415" lon="6.56581">
        <ele>847.8</ele>
        <time>2021-09-18T08:30:51Z</time>
      </trkpt>
      <trkpt lat="43.86417" lon="6.56576">
        <ele>848.1</ele>
        <time>2021-09-18T08:30:52Z</time>
      </trkpt>
      <trkpt lat="43.86417" lon="6.56574">
        <ele>848.2</ele>
        <time>2021-09-18T08:30:53Z</time>
      </trkpt>
      <trkpt lat="43.86419" lon="6.56569">
        <ele>848.4</ele>
        <time>2021-09-18T08:30:55Z</time>
      </trkpt>
      <trkpt lat="43.86419" lon="6.56568">
        <ele>848.4</ele>
        <time>2021-09-18T08:30:57Z</time>
      </trkpt>
      <trkpt lat="43.86419" lon="6.56567">
        <ele>848.5</ele>
        <time>2021-09-18T08:30:58Z</time>
      </trkpt>
      <trkpt lat="43.86419" lon="6.56567">
        <ele>848.5</ele>
        <time>2021-09-18T08:31:00Z</time>
      </trkpt>
      <trkpt lat="43.86418" lon="6.56566">
        <ele>848.5</ele>
        <time>2021-09-18T08:31:02Z</time>
      </trkpt>
      <trkpt lat="43.86418" lon="6.56565">
        <ele>848.6</ele>
        <time>2021-09-18T08:31:03Z</time>
      </trkpt>
      <trkpt lat="43.86418" lon="6.56564">
        <ele>848.6</ele>
        <time>2021-09-18T08:31:04Z</time>
      </trkpt>
      <trkpt lat="43.86419" lon="6.56563">
        <ele>848.7</ele>
        <time>2021-09-18T08:31:05Z</time>
      </trkpt>
      <trkpt lat="43.86429" lon="6.56557">
        <ele>849.4</ele>
        <time>2021-09-18T08:31:09Z</time>
      </trkpt>
      <trkpt lat="43.86436" lon="6.56554">
        <ele>849.9</ele>
        <time>2021-09-18T08:31:11Z</time>
      </trkpt>
      <trkpt lat="43.8644" lon="6.56552">
        <ele>850.2</ele>
        <time>2021-09-18T08:31:12Z</time>
      </trkpt>
      <trkpt lat="43.86444" lon="6.5655">
        <ele>850.5</ele>
        <time>2021-09-18T08:31:13Z</time>
      </trkpt>
      <trkpt lat="43.86447" lon="6.56547">
        <ele>850.8</ele>
        <time>2021-09-18T08:31:15Z</time>
      </trkpt>
      <trkpt lat="43.86449" lon="6.56545">
        <ele>850.9</ele>
        <time>2021-09-18T08:31:16Z</time>
      </trkpt>
      <trkpt lat="43.86449" lon="6.56543">
        <ele>851</ele>
        <time>2021-09-18T08:31:18Z</time>
      </trkpt>
      <trkpt lat="43.8645" lon="6.56539">
        <ele>851.3</ele>
        <time>2021-09-18T08:31:20Z</time>
      </trkpt>
      <trkpt lat="43.86449" lon="6.56536">
        <ele>851.4</ele>
        <time>2021-09-18T08:31:21Z</time>
      </trkpt>
      <trkpt lat="43.86449" lon="6.56533">
        <ele>851.6</ele>
        <time>2021-09-18T08:31:23Z</time>
      </trkpt>
      <trkpt lat="43.86449" lon="6.56527">
        <ele>851.9</ele>
        <time>2021-09-18T08:31:24Z</time>
      </trkpt>
      <trkpt lat="43.86449" lon="6.56525">
        <ele>852</ele>
        <time>2021-09-18T08:31:25Z</time>
      </trkpt>
      <trkpt lat="43.86449" lon="6.5652">
        <ele>852.2</ele>
        <time>2021-09-18T08:31:27Z</time>
      </trkpt>
      <trkpt lat="43.8645" lon="6.56517">
        <ele>852.4</ele>
        <time>2021-09-18T08:31:28Z</time>
      </trkpt>
      <trkpt lat="43.86449" lon="6.56514">
        <ele>852.5</ele>
        <time>2021-09-18T08:31:30Z</time>
      </trkpt>
      <trkpt lat="43.86449" lon="6.5651">
        <ele>852.7</ele>
        <time>2021-09-18T08:31:32Z</time>
      </trkpt>
      <trkpt lat="43.86449" lon="6.56509">
        <ele>852.8</ele>
        <time>2021-09-18T08:31:33Z</time>
      </trkpt>
      <trkpt lat="43.86449" lon="6.56506">
        <ele>852.9</ele>
        <time>2021-09-18T08:31:34Z</time>
      </trkpt>
      <trkpt lat="43.86449" lon="6.56499">
        <ele>853.3</ele>
        <time>2021-09-18T08:31:35Z</time>
      </trkpt>
      <trkpt lat="43.86449" lon="6.56496">
        <ele>853.4</ele>
        <time>2021-09-18T08:31:36Z</time>
      </trkpt>
      <trkpt lat="43.8645" lon="6.56488">
        <ele>853.8</ele>
        <time>2021-09-18T08:31:38Z</time>
      </trkpt>
      <trkpt lat="43.8645" lon="6.56477">
        <ele>854.4</ele>
        <time>2021-09-18T08:31:40Z</time>
      </trkpt>
      <trkpt lat="43.86449" lon="6.56471">
        <ele>854.8</ele>
        <time>2021-09-18T08:31:42Z</time>
      </trkpt>
      <trkpt lat="43.86448" lon="6.56466">
        <ele>855.1</ele>
        <time>2021-09-18T08:31:43Z</time>
      </trkpt>
      <trkpt lat="43.86447" lon="6.56465">
        <ele>855.2</ele>
        <time>2021-09-18T08:31:44Z</time>
      </trkpt>
      <trkpt lat="43.86447" lon="6.56464">
        <ele>855.3</ele>
        <time>2021-09-18T08:31:45Z</time>
      </trkpt>
      <trkpt lat="43.86446" lon="6.56462">
        <ele>855.4</ele>
        <time>2021-09-18T08:31:47Z</time>
      </trkpt>
      <trkpt lat="43.86446" lon="6.56461">
        <ele>855.5</ele>
        <time>2021-09-18T08:31:48Z</time>
      </trkpt>
      <trkpt lat="43.86447" lon="6.56459">
        <ele>855.5</ele>
        <time>2021-09-18T08:31:49Z</time>
      </trkpt>
      <trkpt lat="43.86447" lon="6.56458">
        <ele>855.6</ele>
        <time>2021-09-18T08:31:51Z</time>
      </trkpt>
      <trkpt lat="43.86451" lon="6.56458">
        <ele>855.9</ele>
        <time>2021-09-18T08:31:58Z</time>
      </trkpt>
      <trkpt lat="43.86454" lon="6.56458">
        <ele>856.2</ele>
        <time>2021-09-18T08:31:59Z</time>
      </trkpt>
      <trkpt lat="43.86457" lon="6.56458">
        <ele>856.4</ele>
        <time>2021-09-18T08:32:00Z</time>
      </trkpt>
      <trkpt lat="43.8646" lon="6.56457">
        <ele>856.6</ele>
        <time>2021-09-18T08:32:02Z</time>
      </trkpt>
      <trkpt lat="43.86463" lon="6.56455">
        <ele>856.9</ele>
        <time>2021-09-18T08:32:03Z</time>
      </trkpt>
      <trkpt lat="43.86468" lon="6.5645">
        <ele>857.4</ele>
        <time>2021-09-18T08:32:04Z</time>
      </trkpt>
      <trkpt lat="43.86472" lon="6.56446">
        <ele>857.8</ele>
        <time>2021-09-18T08:32:05Z</time>
      </trkpt>
      <trkpt lat="43.86477" lon="6.56442">
        <ele>858.2</ele>
        <time>2021-09-18T08:32:07Z</time>
      </trkpt>
      <trkpt lat="43.86479" lon="6.56439">
        <ele>858.4</ele>
        <time>2021-09-18T08:32:08Z</time>
      </trkpt>
      <trkpt lat="43.86484" lon="6.56434">
        <ele>858.8</ele>
        <time>2021-09-18T08:32:10Z</time>
      </trkpt>
      <trkpt lat="43.86486" lon="6.56432">
        <ele>859</ele>
        <time>2021-09-18T08:32:11Z</time>
      </trkpt>
      <trkpt lat="43.86489" lon="6.56428">
        <ele>859.3</ele>
        <time>2021-09-18T08:32:13Z</time>
      </trkpt>
      <trkpt lat="43.86489" lon="6.56427">
        <ele>859.4</ele>
        <time>2021-09-18T08:32:14Z</time>
      </trkpt>
      <trkpt lat="43.8649" lon="6.56428">
        <ele>859.4</ele>
        <time>2021-09-18T08:32:16Z</time>
      </trkpt>
      <trkpt lat="43.8649" lon="6.56426">
        <ele>859.5</ele>
        <time>2021-09-18T08:32:17Z</time>
      </trkpt>
      <trkpt lat="43.8649" lon="6.56424">
        <ele>859.6</ele>
        <time>2021-09-18T08:32:18Z</time>
      </trkpt>
      <trkpt lat="43.86489" lon="6.56423">
        <ele>859.7</ele>
        <time>2021-09-18T08:32:19Z</time>
      </trkpt>
      <trkpt lat="43.86488" lon="6.5642">
        <ele>859.8</ele>
        <time>2021-09-18T08:32:21Z</time>
      </trkpt>
      <trkpt lat="43.86488" lon="6.56418">
        <ele>859.9</ele>
        <time>2021-09-18T08:32:23Z</time>
      </trkpt>
      <trkpt lat="43.86488" lon="6.56417">
        <ele>860.1</ele>
        <time>2021-09-18T08:32:24Z</time>
      </trkpt>
      <trkpt lat="43.86489" lon="6.56416">
        <ele>860.2</ele>
        <time>2021-09-18T08:32:25Z</time>
      </trkpt>
      <trkpt lat="43.86491" lon="6.56412">
        <ele>860.5</ele>
        <time>2021-09-18T08:32:26Z</time>
      </trkpt>
      <trkpt lat="43.86494" lon="6.56406">
        <ele>860.8</ele>
        <time>2021-09-18T08:32:28Z</time>
      </trkpt>
      <trkpt lat="43.86498" lon="6.56398">
        <ele>861.3</ele>
        <time>2021-09-18T08:32:30Z</time>
      </trkpt>
      <trkpt lat="43.86501" lon="6.56392">
        <ele>861.7</ele>
        <time>2021-09-18T08:32:31Z</time>
      </trkpt>
      <trkpt lat="43.86504" lon="6.56389">
        <ele>862</ele>
        <time>2021-09-18T08:32:32Z</time>
      </trkpt>
      <trkpt lat="43.86507" lon="6.56381">
        <ele>862.4</ele>
        <time>2021-09-18T08:32:34Z</time>
      </trkpt>
      <trkpt lat="43.86507" lon="6.56374">
        <ele>862.8</ele>
        <time>2021-09-18T08:32:36Z</time>
      </trkpt>
      <trkpt lat="43.86507" lon="6.56368">
        <ele>863.1</ele>
        <time>2021-09-18T08:32:37Z</time>
      </trkpt>
      <trkpt lat="43.86508" lon="6.56362">
        <ele>863.5</ele>
        <time>2021-09-18T08:32:39Z</time>
      </trkpt>
      <trkpt lat="43.86509" lon="6.56356">
        <ele>863.7</ele>
        <time>2021-09-18T08:32:40Z</time>
      </trkpt>
      <trkpt lat="43.86511" lon="6.5635">
        <ele>864</ele>
        <time>2021-09-18T08:32:42Z</time>
      </trkpt>
      <trkpt lat="43.86511" lon="6.56347">
        <ele>864.2</ele>
        <time>2021-09-18T08:32:43Z</time>
      </trkpt>
      <trkpt lat="43.86511" lon="6.5634">
        <ele>864.4</ele>
        <time>2021-09-18T08:32:45Z</time>
      </trkpt>
      <trkpt lat="43.86511" lon="6.56337">
        <ele>864.6</ele>
        <time>2021-09-18T08:32:46Z</time>
      </trkpt>
      <trkpt lat="43.86512" lon="6.5633">
        <ele>864.8</ele>
        <time>2021-09-18T08:32:48Z</time>
      </trkpt>
      <trkpt lat="43.86512" lon="6.56325">
        <ele>865</ele>
        <time>2021-09-18T08:32:49Z</time>
      </trkpt>
      <trkpt lat="43.86512" lon="6.56323">
        <ele>865.1</ele>
        <time>2021-09-18T08:32:50Z</time>
      </trkpt>
      <trkpt lat="43.86514" lon="6.56319">
        <ele>865.3</ele>
        <time>2021-09-18T08:32:52Z</time>
      </trkpt>
      <trkpt lat="43.86514" lon="6.56316">
        <ele>865.4</ele>
        <time>2021-09-18T08:32:53Z</time>
      </trkpt>
      <trkpt lat="43.86513" lon="6.56312">
        <ele>865.5</ele>
        <time>2021-09-18T08:32:55Z</time>
      </trkpt>
      <trkpt lat="43.86512" lon="6.56308">
        <ele>865.7</ele>
        <time>2021-09-18T08:32:56Z</time>
      </trkpt>
      <trkpt lat="43.86511" lon="6.56306">
        <ele>865.8</ele>
        <time>2021-09-18T08:32:57Z</time>
      </trkpt>
      <trkpt lat="43.8651" lon="6.56301">
        <ele>865.9</ele>
        <time>2021-09-18T08:32:59Z</time>
      </trkpt>
      <trkpt lat="43.8651" lon="6.56297">
        <ele>866.1</ele>
        <time>2021-09-18T08:33:00Z</time>
      </trkpt>
      <trkpt lat="43.86511" lon="6.56293">
        <ele>866.2</ele>
        <time>2021-09-18T08:33:01Z</time>
      </trkpt>
      <trkpt lat="43.86512" lon="6.56287">
        <ele>866.5</ele>
        <time>2021-09-18T08:33:03Z</time>
      </trkpt>
      <trkpt lat="43.86513" lon="6.56282">
        <ele>866.6</ele>
        <time>2021-09-18T08:33:04Z</time>
      </trkpt>
      <trkpt lat="43.86514" lon="6.56278">
        <ele>866.8</ele>
        <time>2021-09-18T08:33:05Z</time>
      </trkpt>
      <trkpt lat="43.86516" lon="6.56273">
        <ele>867</ele>
        <time>2021-09-18T08:33:07Z</time>
      </trkpt>
      <trkpt lat="43.86518" lon="6.56268">
        <ele>867.3</ele>
        <time>2021-09-18T08:33:09Z</time>
      </trkpt>
      <trkpt lat="43.8652" lon="6.56264">
        <ele>867.5</ele>
        <time>2021-09-18T08:33:10Z</time>
      </trkpt>
      <trkpt lat="43.86521" lon="6.56263">
        <ele>867.5</ele>
        <time>2021-09-18T08:33:11Z</time>
      </trkpt>
      <trkpt lat="43.86522" lon="6.56258">
        <ele>867.8</ele>
        <time>2021-09-18T08:33:13Z</time>
      </trkpt>
      <trkpt lat="43.86523" lon="6.56256">
        <ele>867.8</ele>
        <time>2021-09-18T08:33:14Z</time>
      </trkpt>
      <trkpt lat="43.86523" lon="6.56252">
        <ele>868</ele>
        <time>2021-09-18T08:33:16Z</time>
      </trkpt>
      <trkpt lat="43.86523" lon="6.56247">
        <ele>868.2</ele>
        <time>2021-09-18T08:33:17Z</time>
      </trkpt>
      <trkpt lat="43.86523" lon="6.56246">
        <ele>868.3</ele>
        <time>2021-09-18T08:33:18Z</time>
      </trkpt>
      <trkpt lat="43.86524" lon="6.56239">
        <ele>868.5</ele>
        <time>2021-09-18T08:33:20Z</time>
      </trkpt>
      <trkpt lat="43.86524" lon="6.56233">
        <ele>868.7</ele>
        <time>2021-09-18T08:33:22Z</time>
      </trkpt>
      <trkpt lat="43.86523" lon="6.56233">
        <ele>868.8</ele>
        <time>2021-09-18T08:33:23Z</time>
      </trkpt>
      <trkpt lat="43.86523" lon="6.5623">
        <ele>868.9</ele>
        <time>2021-09-18T08:33:24Z</time>
      </trkpt>
      <trkpt lat="43.86522" lon="6.56228">
        <ele>869</ele>
        <time>2021-09-18T08:33:25Z</time>
      </trkpt>
      <trkpt lat="43.86523" lon="6.56227">
        <ele>869</ele>
        <time>2021-09-18T08:33:27Z</time>
      </trkpt>
      <trkpt lat="43.86523" lon="6.56226">
        <ele>869.1</ele>
        <time>2021-09-18T08:33:29Z</time>
      </trkpt>
      <trkpt lat="43.86523" lon="6.56225">
        <ele>869.1</ele>
        <time>2021-09-18T08:33:30Z</time>
      </trkpt>
      <trkpt lat="43.86523" lon="6.56224">
        <ele>869.1</ele>
        <time>2021-09-18T08:33:32Z</time>
      </trkpt>
      <trkpt lat="43.86524" lon="6.56223">
        <ele>869.2</ele>
        <time>2021-09-18T08:33:33Z</time>
      </trkpt>
      <trkpt lat="43.86524" lon="6.5622">
        <ele>869.3</ele>
        <time>2021-09-18T08:33:34Z</time>
      </trkpt>
      <trkpt lat="43.86524" lon="6.56219">
        <ele>869.4</ele>
        <time>2021-09-18T08:33:36Z</time>
      </trkpt>
      <trkpt lat="43.86525" lon="6.56217">
        <ele>869.4</ele>
        <time>2021-09-18T08:33:37Z</time>
      </trkpt>
      <trkpt lat="43.86525" lon="6.56216">
        <ele>869.5</ele>
        <time>2021-09-18T08:33:38Z</time>
      </trkpt>
      <trkpt lat="43.86525" lon="6.56211">
        <ele>869.7</ele>
        <time>2021-09-18T08:33:40Z</time>
      </trkpt>
      <trkpt lat="43.86525" lon="6.56206">
        <ele>869.8</ele>
        <time>2021-09-18T08:33:41Z</time>
      </trkpt>
      <trkpt lat="43.86526" lon="6.56203">
        <ele>869.9</ele>
        <time>2021-09-18T08:33:42Z</time>
      </trkpt>
      <trkpt lat="43.86527" lon="6.56195">
        <ele>870.2</ele>
        <time>2021-09-18T08:33:44Z</time>
      </trkpt>
      <trkpt lat="43.86529" lon="6.56189">
        <ele>870.4</ele>
        <time>2021-09-18T08:33:45Z</time>
      </trkpt>
      <trkpt lat="43.86532" lon="6.56182">
        <ele>870.7</ele>
        <time>2021-09-18T08:33:47Z</time>
      </trkpt>
      <trkpt lat="43.86533" lon="6.56179">
        <ele>870.8</ele>
        <time>2021-09-18T08:33:48Z</time>
      </trkpt>
      <trkpt lat="43.86536" lon="6.56174">
        <ele>871.1</ele>
        <time>2021-09-18T08:33:50Z</time>
      </trkpt>
      <trkpt lat="43.86537" lon="6.56172">
        <ele>871.2</ele>
        <time>2021-09-18T08:33:51Z</time>
      </trkpt>
      <trkpt lat="43.86537" lon="6.56171">
        <ele>871.2</ele>
        <time>2021-09-18T08:33:52Z</time>
      </trkpt>
      <trkpt lat="43.86537" lon="6.56166">
        <ele>871.4</ele>
        <time>2021-09-18T08:33:54Z</time>
      </trkpt>
      <trkpt lat="43.86537" lon="6.56164">
        <ele>871.5</ele>
        <time>2021-09-18T08:33:55Z</time>
      </trkpt>
      <trkpt lat="43.86538" lon="6.56163">
        <ele>871.5</ele>
        <time>2021-09-18T08:33:56Z</time>
      </trkpt>
      <trkpt lat="43.86539" lon="6.56159">
        <ele>871.7</ele>
        <time>2021-09-18T08:33:58Z</time>
      </trkpt>
      <trkpt lat="43.86542" lon="6.56155">
        <ele>871.9</ele>
        <time>2021-09-18T08:33:59Z</time>
      </trkpt>
      <trkpt lat="43.86546" lon="6.5615">
        <ele>872.4</ele>
        <time>2021-09-18T08:34:01Z</time>
      </trkpt>
      <trkpt lat="43.86549" lon="6.56147">
        <ele>872.6</ele>
        <time>2021-09-18T08:34:02Z</time>
      </trkpt>
      <trkpt lat="43.86553" lon="6.56145">
        <ele>873</ele>
        <time>2021-09-18T08:34:04Z</time>
      </trkpt>
      <trkpt lat="43.86557" lon="6.56143">
        <ele>873.3</ele>
        <time>2021-09-18T08:34:05Z</time>
      </trkpt>
      <trkpt lat="43.86558" lon="6.56142">
        <ele>873.4</ele>
        <time>2021-09-18T08:34:06Z</time>
      </trkpt>
      <trkpt lat="43.86561" lon="6.5614">
        <ele>873.7</ele>
        <time>2021-09-18T08:34:08Z</time>
      </trkpt>
      <trkpt lat="43.86564" lon="6.56138">
        <ele>874</ele>
        <time>2021-09-18T08:34:09Z</time>
      </trkpt>
      <trkpt lat="43.86567" lon="6.56138">
        <ele>874.2</ele>
        <time>2021-09-18T08:34:10Z</time>
      </trkpt>
      <trkpt lat="43.86572" lon="6.56139">
        <ele>874.6</ele>
        <time>2021-09-18T08:34:12Z</time>
      </trkpt>
      <trkpt lat="43.86576" lon="6.5614">
        <ele>874.9</ele>
        <time>2021-09-18T08:34:13Z</time>
      </trkpt>
      <trkpt lat="43.86579" lon="6.56141">
        <ele>875.1</ele>
        <time>2021-09-18T08:34:14Z</time>
      </trkpt>
      <trkpt lat="43.86585" lon="6.56138">
        <ele>875.7</ele>
        <time>2021-09-18T08:34:16Z</time>
      </trkpt>
      <trkpt lat="43.86591" lon="6.56136">
        <ele>876.1</ele>
        <time>2021-09-18T08:34:17Z</time>
      </trkpt>
      <trkpt lat="43.86595" lon="6.56134">
        <ele>876.4</ele>
        <time>2021-09-18T08:34:18Z</time>
      </trkpt>
      <trkpt lat="43.866" lon="6.56134">
        <ele>876.8</ele>
        <time>2021-09-18T08:34:20Z</time>
      </trkpt>
      <trkpt lat="43.86603" lon="6.56134">
        <ele>877</ele>
        <time>2021-09-18T08:34:21Z</time>
      </trkpt>
      <trkpt lat="43.86605" lon="6.56135">
        <ele>877.2</ele>
        <time>2021-09-18T08:34:22Z</time>
      </trkpt>
      <trkpt lat="43.8661" lon="6.56135">
        <ele>877.5</ele>
        <time>2021-09-18T08:34:24Z</time>
      </trkpt>
      <trkpt lat="43.86612" lon="6.56134">
        <ele>877.6</ele>
        <time>2021-09-18T08:34:25Z</time>
      </trkpt>
      <trkpt lat="43.86612" lon="6.56135">
        <ele>877.7</ele>
        <time>2021-09-18T08:34:27Z</time>
      </trkpt>
      <trkpt lat="43.86615" lon="6.56136">
        <ele>877.9</ele>
        <time>2021-09-18T08:34:29Z</time>
      </trkpt>
      <trkpt lat="43.86618" lon="6.56138">
        <ele>878.1</ele>
        <time>2021-09-18T08:34:30Z</time>
      </trkpt>
      <trkpt lat="43.86623" lon="6.56142">
        <ele>878.6</ele>
        <time>2021-09-18T08:34:32Z</time>
      </trkpt>
      <trkpt lat="43.86628" lon="6.56146">
        <ele>879</ele>
        <time>2021-09-18T08:34:34Z</time>
      </trkpt>
      <trkpt lat="43.86632" lon="6.56148">
        <ele>879.2</ele>
        <time>2021-09-18T08:34:35Z</time>
      </trkpt>
      <trkpt lat="43.86632" lon="6.56149">
        <ele>879.3</ele>
        <time>2021-09-18T08:34:36Z</time>
      </trkpt>
      <trkpt lat="43.86632" lon="6.56152">
        <ele>879.5</ele>
        <time>2021-09-18T08:34:38Z</time>
      </trkpt>
      <trkpt lat="43.86633" lon="6.56153">
        <ele>879.6</ele>
        <time>2021-09-18T08:34:39Z</time>
      </trkpt>
      <trkpt lat="43.86634" lon="6.56155">
        <ele>879.7</ele>
        <time>2021-09-18T08:34:41Z</time>
      </trkpt>
      <trkpt lat="43.86634" lon="6.56156">
        <ele>879.8</ele>
        <time>2021-09-18T08:34:42Z</time>
      </trkpt>
      <trkpt lat="43.86635" lon="6.56157">
        <ele>879.8</ele>
        <time>2021-09-18T08:34:43Z</time>
      </trkpt>
      <trkpt lat="43.86636" lon="6.56158">
        <ele>879.9</ele>
        <time>2021-09-18T08:34:45Z</time>
      </trkpt>
      <trkpt lat="43.86635" lon="6.5612">
        <ele>881.8</ele>
        <time>2021-09-18T08:35:10Z</time>
      </trkpt>
      <trkpt lat="43.86636" lon="6.56115">
        <ele>882</ele>
        <time>2021-09-18T08:35:11Z</time>
      </trkpt>
      <trkpt lat="43.86636" lon="6.56106">
        <ele>882.4</ele>
        <time>2021-09-18T08:35:13Z</time>
      </trkpt>
      <trkpt lat="43.86637" lon="6.56099">
        <ele>882.7</ele>
        <time>2021-09-18T08:35:14Z</time>
      </trkpt>
      <trkpt lat="43.86639" lon="6.56094">
        <ele>882.9</ele>
        <time>2021-09-18T08:35:15Z</time>
      </trkpt>
      <trkpt lat="43.86641" lon="6.56089">
        <ele>883.1</ele>
        <time>2021-09-18T08:35:16Z</time>
      </trkpt>
      <trkpt lat="43.86642" lon="6.56087">
        <ele>883.3</ele>
        <time>2021-09-18T08:35:17Z</time>
      </trkpt>
      <trkpt lat="43.86646" lon="6.56083">
        <ele>883.5</ele>
        <time>2021-09-18T08:35:19Z</time>
      </trkpt>
      <trkpt lat="43.86649" lon="6.56079">
        <ele>883.7</ele>
        <time>2021-09-18T08:35:21Z</time>
      </trkpt>
      <trkpt lat="43.8665" lon="6.56076">
        <ele>883.9</ele>
        <time>2021-09-18T08:35:22Z</time>
      </trkpt>
      <trkpt lat="43.86653" lon="6.56073">
        <ele>884.1</ele>
        <time>2021-09-18T08:35:24Z</time>
      </trkpt>
      <trkpt lat="43.86654" lon="6.56071">
        <ele>884.2</ele>
        <time>2021-09-18T08:35:25Z</time>
      </trkpt>
      <trkpt lat="43.86658" lon="6.56069">
        <ele>884.4</ele>
        <time>2021-09-18T08:35:27Z</time>
      </trkpt>
      <trkpt lat="43.86661" lon="6.56068">
        <ele>884.7</ele>
        <time>2021-09-18T08:35:28Z</time>
      </trkpt>
      <trkpt lat="43.86665" lon="6.56066">
        <ele>884.9</ele>
        <time>2021-09-18T08:35:29Z</time>
      </trkpt>
      <trkpt lat="43.86666" lon="6.56066">
        <ele>885</ele>
        <time>2021-09-18T08:35:30Z</time>
      </trkpt>
      <trkpt lat="43.8667" lon="6.56064">
        <ele>885.2</ele>
        <time>2021-09-18T08:35:32Z</time>
      </trkpt>
      <trkpt lat="43.86675" lon="6.56062">
        <ele>885.6</ele>
        <time>2021-09-18T08:35:34Z</time>
      </trkpt>
      <trkpt lat="43.86676" lon="6.56061">
        <ele>885.6</ele>
        <time>2021-09-18T08:35:35Z</time>
      </trkpt>
      <trkpt lat="43.86677" lon="6.5606">
        <ele>885.7</ele>
        <time>2021-09-18T08:35:36Z</time>
      </trkpt>
      <trkpt lat="43.8668" lon="6.56057">
        <ele>886</ele>
        <time>2021-09-18T08:35:38Z</time>
      </trkpt>
      <trkpt lat="43.86682" lon="6.56055">
        <ele>886.1</ele>
        <time>2021-09-18T08:35:39Z</time>
      </trkpt>
      <trkpt lat="43.86684" lon="6.56052">
        <ele>886.3</ele>
        <time>2021-09-18T08:35:41Z</time>
      </trkpt>
      <trkpt lat="43.86686" lon="6.56049">
        <ele>886.5</ele>
        <time>2021-09-18T08:35:42Z</time>
      </trkpt>
      <trkpt lat="43.86689" lon="6.56047">
        <ele>886.8</ele>
        <time>2021-09-18T08:35:44Z</time>
      </trkpt>
      <trkpt lat="43.86692" lon="6.56044">
        <ele>887</ele>
        <time>2021-09-18T08:35:46Z</time>
      </trkpt>
      <trkpt lat="43.86692" lon="6.56044">
        <ele>887</ele>
        <time>2021-09-18T08:35:47Z</time>
      </trkpt>
      <trkpt lat="43.86694" lon="6.56043">
        <ele>887.1</ele>
        <time>2021-09-18T08:35:48Z</time>
      </trkpt>
      <trkpt lat="43.86695" lon="6.56042">
        <ele>887.2</ele>
        <time>2021-09-18T08:35:50Z</time>
      </trkpt>
      <trkpt lat="43.86697" lon="6.56041">
        <ele>887.4</ele>
        <time>2021-09-18T08:35:51Z</time>
      </trkpt>
      <trkpt lat="43.86699" lon="6.56041">
        <ele>887.5</ele>
        <time>2021-09-18T08:35:53Z</time>
      </trkpt>
      <trkpt lat="43.86703" lon="6.56039">
        <ele>887.8</ele>
        <time>2021-09-18T08:35:55Z</time>
      </trkpt>
      <trkpt lat="43.86704" lon="6.56039">
        <ele>887.9</ele>
        <time>2021-09-18T08:35:56Z</time>
      </trkpt>
      <trkpt lat="43.86707" lon="6.56038">
        <ele>888</ele>
        <time>2021-09-18T08:35:58Z</time>
      </trkpt>
      <trkpt lat="43.86709" lon="6.56037">
        <ele>888.2</ele>
        <time>2021-09-18T08:35:59Z</time>
      </trkpt>
      <trkpt lat="43.86713" lon="6.56036">
        <ele>888.4</ele>
        <time>2021-09-18T08:36:01Z</time>
      </trkpt>
      <trkpt lat="43.86716" lon="6.56035">
        <ele>888.6</ele>
        <time>2021-09-18T08:36:03Z</time>
      </trkpt>
      <trkpt lat="43.86719" lon="6.56033">
        <ele>888.8</ele>
        <time>2021-09-18T08:36:04Z</time>
      </trkpt>
      <trkpt lat="43.86722" lon="6.56032">
        <ele>889</ele>
        <time>2021-09-18T08:36:06Z</time>
      </trkpt>
      <trkpt lat="43.86725" lon="6.56031">
        <ele>889.2</ele>
        <time>2021-09-18T08:36:07Z</time>
      </trkpt>
      <trkpt lat="43.8673" lon="6.56029">
        <ele>889.4</ele>
        <time>2021-09-18T08:36:09Z</time>
      </trkpt>
      <trkpt lat="43.86734" lon="6.56027">
        <ele>889.7</ele>
        <time>2021-09-18T08:36:11Z</time>
      </trkpt>
      <trkpt lat="43.86737" lon="6.56026">
        <ele>889.9</ele>
        <time>2021-09-18T08:36:12Z</time>
      </trkpt>
      <trkpt lat="43.86738" lon="6.56025">
        <ele>889.9</ele>
        <time>2021-09-18T08:36:13Z</time>
      </trkpt>
      <trkpt lat="43.86739" lon="6.56025">
        <ele>890</ele>
        <time>2021-09-18T08:36:15Z</time>
      </trkpt>
      <trkpt lat="43.86741" lon="6.56023">
        <ele>890</ele>
        <time>2021-09-18T08:36:16Z</time>
      </trkpt>
      <trkpt lat="43.86743" lon="6.56021">
        <ele>890.2</ele>
        <time>2021-09-18T08:36:18Z</time>
      </trkpt>
      <trkpt lat="43.86743" lon="6.5602">
        <ele>890.2</ele>
        <time>2021-09-18T08:36:19Z</time>
      </trkpt>
      <trkpt lat="43.86746" lon="6.56018">
        <ele>890.4</ele>
        <time>2021-09-18T08:36:20Z</time>
      </trkpt>
      <trkpt lat="43.86747" lon="6.56018">
        <ele>890.4</ele>
        <time>2021-09-18T08:36:21Z</time>
      </trkpt>
      <trkpt lat="43.8675" lon="6.56015">
        <ele>890.6</ele>
        <time>2021-09-18T08:36:23Z</time>
      </trkpt>
      <trkpt lat="43.86753" lon="6.56012">
        <ele>890.7</ele>
        <time>2021-09-18T08:36:25Z</time>
      </trkpt>
      <trkpt lat="43.86754" lon="6.56008">
        <ele>890.9</ele>
        <time>2021-09-18T08:36:26Z</time>
      </trkpt>
      <trkpt lat="43.86754" lon="6.56007">
        <ele>890.9</ele>
        <time>2021-09-18T08:36:27Z</time>
      </trkpt>
      <trkpt lat="43.86755" lon="6.56001">
        <ele>891.1</ele>
        <time>2021-09-18T08:36:29Z</time>
      </trkpt>
      <trkpt lat="43.86755" lon="6.55996">
        <ele>891.3</ele>
        <time>2021-09-18T08:36:31Z</time>
      </trkpt>
      <trkpt lat="43.86754" lon="6.55992">
        <ele>891.4</ele>
        <time>2021-09-18T08:36:33Z</time>
      </trkpt>
      <trkpt lat="43.86754" lon="6.5599">
        <ele>891.5</ele>
        <time>2021-09-18T08:36:34Z</time>
      </trkpt>
      <trkpt lat="43.86754" lon="6.55989">
        <ele>891.5</ele>
        <time>2021-09-18T08:36:35Z</time>
      </trkpt>
      <trkpt lat="43.86754" lon="6.55988">
        <ele>891.6</ele>
        <time>2021-09-18T08:36:36Z</time>
      </trkpt>
      <trkpt lat="43.86754" lon="6.55986">
        <ele>891.6</ele>
        <time>2021-09-18T08:36:37Z</time>
      </trkpt>
      <trkpt lat="43.86755" lon="6.55983">
        <ele>891.7</ele>
        <time>2021-09-18T08:36:39Z</time>
      </trkpt>
      <trkpt lat="43.86756" lon="6.55979">
        <ele>891.9</ele>
        <time>2021-09-18T08:36:41Z</time>
      </trkpt>
      <trkpt lat="43.86758" lon="6.55975">
        <ele>892.1</ele>
        <time>2021-09-18T08:36:42Z</time>
      </trkpt>
      <trkpt lat="43.86759" lon="6.55973">
        <ele>892.2</ele>
        <time>2021-09-18T08:36:43Z</time>
      </trkpt>
      <trkpt lat="43.8676" lon="6.55969">
        <ele>892.4</ele>
        <time>2021-09-18T08:36:44Z</time>
      </trkpt>
      <trkpt lat="43.86761" lon="6.55968">
        <ele>892.4</ele>
        <time>2021-09-18T08:36:45Z</time>
      </trkpt>
      <trkpt lat="43.86763" lon="6.55965">
        <ele>892.6</ele>
        <time>2021-09-18T08:36:46Z</time>
      </trkpt>
      <trkpt lat="43.86765" lon="6.55961">
        <ele>892.8</ele>
        <time>2021-09-18T08:36:48Z</time>
      </trkpt>
      <trkpt lat="43.86767" lon="6.55958">
        <ele>892.9</ele>
        <time>2021-09-18T08:36:49Z</time>
      </trkpt>
      <trkpt lat="43.8677" lon="6.55954">
        <ele>893.2</ele>
        <time>2021-09-18T08:36:51Z</time>
      </trkpt>
      <trkpt lat="43.86771" lon="6.5595">
        <ele>893.3</ele>
        <time>2021-09-18T08:36:52Z</time>
      </trkpt>
      <trkpt lat="43.86774" lon="6.55948">
        <ele>893.6</ele>
        <time>2021-09-18T08:36:54Z</time>
      </trkpt>
      <trkpt lat="43.86777" lon="6.55944">
        <ele>893.8</ele>
        <time>2021-09-18T08:36:56Z</time>
      </trkpt>
      <trkpt lat="43.86778" lon="6.55939">
        <ele>894</ele>
        <time>2021-09-18T08:36:57Z</time>
      </trkpt>
      <trkpt lat="43.86781" lon="6.55935">
        <ele>894.3</ele>
        <time>2021-09-18T08:36:59Z</time>
      </trkpt>
      <trkpt lat="43.86782" lon="6.55934">
        <ele>894.4</ele>
        <time>2021-09-18T08:37:00Z</time>
      </trkpt>
      <trkpt lat="43.86783" lon="6.55932">
        <ele>894.5</ele>
        <time>2021-09-18T08:37:01Z</time>
      </trkpt>
      <trkpt lat="43.86784" lon="6.5593">
        <ele>894.6</ele>
        <time>2021-09-18T08:37:03Z</time>
      </trkpt>
      <trkpt lat="43.86785" lon="6.55929">
        <ele>894.7</ele>
        <time>2021-09-18T08:37:04Z</time>
      </trkpt>
      <trkpt lat="43.86789" lon="6.55926">
        <ele>895</ele>
        <time>2021-09-18T08:37:06Z</time>
      </trkpt>
      <trkpt lat="43.86792" lon="6.55924">
        <ele>895.2</ele>
        <time>2021-09-18T08:37:07Z</time>
      </trkpt>
      <trkpt lat="43.86795" lon="6.55922">
        <ele>895.5</ele>
        <time>2021-09-18T08:37:09Z</time>
      </trkpt>
      <trkpt lat="43.86797" lon="6.55921">
        <ele>895.6</ele>
        <time>2021-09-18T08:37:10Z</time>
      </trkpt>
      <trkpt lat="43.86799" lon="6.55921">
        <ele>895.7</ele>
        <time>2021-09-18T08:37:11Z</time>
      </trkpt>
      <trkpt lat="43.86801" lon="6.55919">
        <ele>895.8</ele>
        <time>2021-09-18T08:37:12Z</time>
      </trkpt>
      <trkpt lat="43.86803" lon="6.55919">
        <ele>896</ele>
        <time>2021-09-18T08:37:14Z</time>
      </trkpt>
      <trkpt lat="43.86808" lon="6.55917">
        <ele>896.3</ele>
        <time>2021-09-18T08:37:16Z</time>
      </trkpt>
      <trkpt lat="43.8681" lon="6.55916">
        <ele>896.4</ele>
        <time>2021-09-18T08:37:17Z</time>
      </trkpt>
      <trkpt lat="43.86811" lon="6.55915">
        <ele>896.5</ele>
        <time>2021-09-18T08:37:18Z</time>
      </trkpt>
      <trkpt lat="43.86814" lon="6.55914">
        <ele>896.7</ele>
        <time>2021-09-18T08:37:19Z</time>
      </trkpt>
      <trkpt lat="43.86816" lon="6.55912">
        <ele>896.9</ele>
        <time>2021-09-18T08:37:21Z</time>
      </trkpt>
      <trkpt lat="43.86818" lon="6.5591">
        <ele>897</ele>
        <time>2021-09-18T08:37:22Z</time>
      </trkpt>
      <trkpt lat="43.86819" lon="6.55909">
        <ele>897.1</ele>
        <time>2021-09-18T08:37:24Z</time>
      </trkpt>
      <trkpt lat="43.86821" lon="6.55906">
        <ele>897.3</ele>
        <time>2021-09-18T08:37:25Z</time>
      </trkpt>
      <trkpt lat="43.86822" lon="6.55905">
        <ele>897.4</ele>
        <time>2021-09-18T08:37:26Z</time>
      </trkpt>
      <trkpt lat="43.86825" lon="6.55901">
        <ele>897.7</ele>
        <time>2021-09-18T08:37:28Z</time>
      </trkpt>
      <trkpt lat="43.86829" lon="6.55896">
        <ele>898</ele>
        <time>2021-09-18T08:37:29Z</time>
      </trkpt>
      <trkpt lat="43.86831" lon="6.55892">
        <ele>898.2</ele>
        <time>2021-09-18T08:37:30Z</time>
      </trkpt>
      <trkpt lat="43.86834" lon="6.55887">
        <ele>898.5</ele>
        <time>2021-09-18T08:37:31Z</time>
      </trkpt>
      <trkpt lat="43.86838" lon="6.55883">
        <ele>898.8</ele>
        <time>2021-09-18T08:37:32Z</time>
      </trkpt>
      <trkpt lat="43.86841" lon="6.55877">
        <ele>899.2</ele>
        <time>2021-09-18T08:37:34Z</time>
      </trkpt>
      <trkpt lat="43.86844" lon="6.55872">
        <ele>899.5</ele>
        <time>2021-09-18T08:37:35Z</time>
      </trkpt>
      <trkpt lat="43.86846" lon="6.5587">
        <ele>899.7</ele>
        <time>2021-09-18T08:37:36Z</time>
      </trkpt>
      <trkpt lat="43.86851" lon="6.55866">
        <ele>900</ele>
        <time>2021-09-18T08:37:38Z</time>
      </trkpt>
      <trkpt lat="43.86854" lon="6.55864">
        <ele>900.2</ele>
        <time>2021-09-18T08:37:40Z</time>
      </trkpt>
      <trkpt lat="43.86855" lon="6.55864">
        <ele>900.3</ele>
        <time>2021-09-18T08:37:41Z</time>
      </trkpt>
      <trkpt lat="43.86859" lon="6.55861">
        <ele>900.5</ele>
        <time>2021-09-18T08:37:43Z</time>
      </trkpt>
      <trkpt lat="43.8686" lon="6.5586">
        <ele>900.6</ele>
        <time>2021-09-18T08:37:45Z</time>
      </trkpt>
      <trkpt lat="43.86861" lon="6.55859">
        <ele>900.7</ele>
        <time>2021-09-18T08:37:46Z</time>
      </trkpt>
      <trkpt lat="43.86864" lon="6.55858">
        <ele>900.8</ele>
        <time>2021-09-18T08:37:47Z</time>
      </trkpt>
      <trkpt lat="43.86865" lon="6.55857">
        <ele>900.9</ele>
        <time>2021-09-18T08:37:48Z</time>
      </trkpt>
      <trkpt lat="43.86866" lon="6.55857">
        <ele>900.9</ele>
        <time>2021-09-18T08:37:49Z</time>
      </trkpt>
      <trkpt lat="43.86867" lon="6.55856">
        <ele>901</ele>
        <time>2021-09-18T08:37:51Z</time>
      </trkpt>
      <trkpt lat="43.86869" lon="6.55855">
        <ele>901.1</ele>
        <time>2021-09-18T08:37:53Z</time>
      </trkpt>
      <trkpt lat="43.86872" lon="6.55852">
        <ele>901.3</ele>
        <time>2021-09-18T08:37:54Z</time>
      </trkpt>
      <trkpt lat="43.86873" lon="6.55851">
        <ele>901.3</ele>
        <time>2021-09-18T08:37:55Z</time>
      </trkpt>
      <trkpt lat="43.86876" lon="6.55849">
        <ele>901.5</ele>
        <time>2021-09-18T08:37:57Z</time>
      </trkpt>
      <trkpt lat="43.86877" lon="6.55849">
        <ele>901.5</ele>
        <time>2021-09-18T08:37:58Z</time>
      </trkpt>
      <trkpt lat="43.86879" lon="6.55847">
        <ele>901.7</ele>
        <time>2021-09-18T08:38:00Z</time>
      </trkpt>
      <trkpt lat="43.86881" lon="6.55846">
        <ele>901.8</ele>
        <time>2021-09-18T08:38:01Z</time>
      </trkpt>
      <trkpt lat="43.86882" lon="6.55846">
        <ele>901.8</ele>
        <time>2021-09-18T08:38:02Z</time>
      </trkpt>
      <trkpt lat="43.86884" lon="6.55848">
        <ele>901.9</ele>
        <time>2021-09-18T08:38:03Z</time>
      </trkpt>
      <trkpt lat="43.86885" lon="6.55851">
        <ele>902.1</ele>
        <time>2021-09-18T08:38:05Z</time>
      </trkpt>
      <trkpt lat="43.86884" lon="6.55858">
        <ele>902.3</ele>
        <time>2021-09-18T08:38:07Z</time>
      </trkpt>
      <trkpt lat="43.86884" lon="6.5586">
        <ele>902.4</ele>
        <time>2021-09-18T08:38:08Z</time>
      </trkpt>
      <trkpt lat="43.86883" lon="6.55862">
        <ele>902.5</ele>
        <time>2021-09-18T08:38:09Z</time>
      </trkpt>
      <trkpt lat="43.86881" lon="6.55864">
        <ele>902.7</ele>
        <time>2021-09-18T08:38:11Z</time>
      </trkpt>
      <trkpt lat="43.86879" lon="6.55865">
        <ele>902.8</ele>
        <time>2021-09-18T08:38:12Z</time>
      </trkpt>
      <trkpt lat="43.86875" lon="6.55868">
        <ele>903.1</ele>
        <time>2021-09-18T08:38:14Z</time>
      </trkpt>
      <trkpt lat="43.86871" lon="6.55872">
        <ele>903.4</ele>
        <time>2021-09-18T08:38:16Z</time>
      </trkpt>
      <trkpt lat="43.8687" lon="6.55874">
        <ele>903.5</ele>
        <time>2021-09-18T08:38:17Z</time>
      </trkpt>
      <trkpt lat="43.86869" lon="6.55875">
        <ele>903.5</ele>
        <time>2021-09-18T08:38:18Z</time>
      </trkpt>
      <trkpt lat="43.86868" lon="6.55877">
        <ele>903.6</ele>
        <time>2021-09-18T08:38:19Z</time>
      </trkpt>
      <trkpt lat="43.86866" lon="6.55881">
        <ele>903.9</ele>
        <time>2021-09-18T08:38:21Z</time>
      </trkpt>
      <trkpt lat="43.86864" lon="6.55886">
        <ele>904.1</ele>
        <time>2021-09-18T08:38:23Z</time>
      </trkpt>
      <trkpt lat="43.86863" lon="6.55892">
        <ele>904.4</ele>
        <time>2021-09-18T08:38:24Z</time>
      </trkpt>
      <trkpt lat="43.86862" lon="6.55897">
        <ele>904.5</ele>
        <time>2021-09-18T08:38:26Z</time>
      </trkpt>
      <trkpt lat="43.86862" lon="6.55899">
        <ele>904.7</ele>
        <time>2021-09-18T08:38:27Z</time>
      </trkpt>
      <trkpt lat="43.8686" lon="6.55903">
        <ele>904.9</ele>
        <time>2021-09-18T08:38:29Z</time>
      </trkpt>
      <trkpt lat="43.86858" lon="6.55908">
        <ele>905.1</ele>
        <time>2021-09-18T08:38:30Z</time>
      </trkpt>
      <trkpt lat="43.86858" lon="6.55909">
        <ele>905.2</ele>
        <time>2021-09-18T08:38:31Z</time>
      </trkpt>
      <trkpt lat="43.86856" lon="6.55915">
        <ele>905.4</ele>
        <time>2021-09-18T08:38:33Z</time>
      </trkpt>
      <trkpt lat="43.86855" lon="6.55917">
        <ele>905.5</ele>
        <time>2021-09-18T08:38:35Z</time>
      </trkpt>
      <trkpt lat="43.86854" lon="6.55919">
        <ele>905.6</ele>
        <time>2021-09-18T08:38:36Z</time>
      </trkpt>
      <trkpt lat="43.86853" lon="6.55921">
        <ele>905.7</ele>
        <time>2021-09-18T08:38:37Z</time>
      </trkpt>
      <trkpt lat="43.86852" lon="6.55925">
        <ele>905.9</ele>
        <time>2021-09-18T08:38:39Z</time>
      </trkpt>
      <trkpt lat="43.86851" lon="6.55929">
        <ele>906.1</ele>
        <time>2021-09-18T08:38:41Z</time>
      </trkpt>
      <trkpt lat="43.8685" lon="6.55933">
        <ele>906.3</ele>
        <time>2021-09-18T08:38:42Z</time>
      </trkpt>
      <trkpt lat="43.86849" lon="6.5594">
        <ele>906.6</ele>
        <time>2021-09-18T08:38:44Z</time>
      </trkpt>
      <trkpt lat="43.86848" lon="6.55946">
        <ele>906.9</ele>
        <time>2021-09-18T08:38:46Z</time>
      </trkpt>
      <trkpt lat="43.86847" lon="6.55951">
        <ele>907.1</ele>
        <time>2021-09-18T08:38:47Z</time>
      </trkpt>
      <trkpt lat="43.86846" lon="6.55954">
        <ele>907.3</ele>
        <time>2021-09-18T08:38:48Z</time>
      </trkpt>
      <trkpt lat="43.86844" lon="6.55959">
        <ele>907.6</ele>
        <time>2021-09-18T08:38:50Z</time>
      </trkpt>
      <trkpt lat="43.86843" lon="6.55963">
        <ele>907.8</ele>
        <time>2021-09-18T08:38:51Z</time>
      </trkpt>
      <trkpt lat="43.86841" lon="6.55968">
        <ele>908.2</ele>
        <time>2021-09-18T08:38:53Z</time>
      </trkpt>
      <trkpt lat="43.86841" lon="6.5597">
        <ele>908.3</ele>
        <time>2021-09-18T08:38:54Z</time>
      </trkpt>
      <trkpt lat="43.86841" lon="6.55972">
        <ele>908.4</ele>
        <time>2021-09-18T08:38:55Z</time>
      </trkpt>
      <trkpt lat="43.86839" lon="6.55975">
        <ele>908.6</ele>
        <time>2021-09-18T08:38:57Z</time>
      </trkpt>
      <trkpt lat="43.86838" lon="6.55976">
        <ele>908.7</ele>
        <time>2021-09-18T08:38:58Z</time>
      </trkpt>
      <trkpt lat="43.86837" lon="6.55978">
        <ele>908.9</ele>
        <time>2021-09-18T08:38:59Z</time>
      </trkpt>
      <trkpt lat="43.86837" lon="6.5598">
        <ele>909</ele>
        <time>2021-09-18T08:39:01Z</time>
      </trkpt>
      <trkpt lat="43.86837" lon="6.55982">
        <ele>909.2</ele>
        <time>2021-09-18T08:39:02Z</time>
      </trkpt>
      <trkpt lat="43.86837" lon="6.55984">
        <ele>909.3</ele>
        <time>2021-09-18T08:39:03Z</time>
      </trkpt>
      <trkpt lat="43.86837" lon="6.55986">
        <ele>909.5</ele>
        <time>2021-09-18T08:39:05Z</time>
      </trkpt>
      <trkpt lat="43.86836" lon="6.55988">
        <ele>909.7</ele>
        <time>2021-09-18T08:39:06Z</time>
      </trkpt>
      <trkpt lat="43.86836" lon="6.55991">
        <ele>909.9</ele>
        <time>2021-09-18T08:39:07Z</time>
      </trkpt>
      <trkpt lat="43.86835" lon="6.55997">
        <ele>910.3</ele>
        <time>2021-09-18T08:39:09Z</time>
      </trkpt>
      <trkpt lat="43.86833" lon="6.56008">
        <ele>911.1</ele>
        <time>2021-09-18T08:39:11Z</time>
      </trkpt>
      <trkpt lat="43.86832" lon="6.56014">
        <ele>911.7</ele>
        <time>2021-09-18T08:39:12Z</time>
      </trkpt>
      <trkpt lat="43.86831" lon="6.56019">
        <ele>912</ele>
        <time>2021-09-18T08:39:13Z</time>
      </trkpt>
      <trkpt lat="43.86828" lon="6.56025">
        <ele>912.5</ele>
        <time>2021-09-18T08:39:15Z</time>
      </trkpt>
      <trkpt lat="43.86827" lon="6.56026">
        <ele>912.6</ele>
        <time>2021-09-18T08:39:16Z</time>
      </trkpt>
      <trkpt lat="43.86824" lon="6.56028">
        <ele>912.9</ele>
        <time>2021-09-18T08:39:18Z</time>
      </trkpt>
      <trkpt lat="43.86824" lon="6.56028">
        <ele>912.9</ele>
        <time>2021-09-18T08:39:20Z</time>
      </trkpt>
      <trkpt lat="43.86823" lon="6.5603">
        <ele>913</ele>
        <time>2021-09-18T08:39:21Z</time>
      </trkpt>
      <trkpt lat="43.86822" lon="6.56032">
        <ele>913.2</ele>
        <time>2021-09-18T08:39:23Z</time>
      </trkpt>
      <trkpt lat="43.86819" lon="6.56034">
        <ele>913.4</ele>
        <time>2021-09-18T08:39:25Z</time>
      </trkpt>
      <trkpt lat="43.86818" lon="6.56035">
        <ele>913.5</ele>
        <time>2021-09-18T08:39:26Z</time>
      </trkpt>
      <trkpt lat="43.86816" lon="6.56038">
        <ele>913.7</ele>
        <time>2021-09-18T08:39:28Z</time>
      </trkpt>
      <trkpt lat="43.86816" lon="6.56039">
        <ele>913.8</ele>
        <time>2021-09-18T08:39:29Z</time>
      </trkpt>
      <trkpt lat="43.86815" lon="6.5604">
        <ele>913.9</ele>
        <time>2021-09-18T08:39:30Z</time>
      </trkpt>
      <trkpt lat="43.86815" lon="6.56041">
        <ele>913.9</ele>
        <time>2021-09-18T08:39:31Z</time>
      </trkpt>
      <trkpt lat="43.86814" lon="6.56044">
        <ele>914.1</ele>
        <time>2021-09-18T08:39:33Z</time>
      </trkpt>
      <trkpt lat="43.86813" lon="6.56048">
        <ele>914.3</ele>
        <time>2021-09-18T08:39:34Z</time>
      </trkpt>
      <trkpt lat="43.86813" lon="6.56049">
        <ele>914.4</ele>
        <time>2021-09-18T08:39:35Z</time>
      </trkpt>
      <trkpt lat="43.86811" lon="6.56056">
        <ele>914.7</ele>
        <time>2021-09-18T08:39:37Z</time>
      </trkpt>
      <trkpt lat="43.8681" lon="6.56059">
        <ele>914.9</ele>
        <time>2021-09-18T08:39:39Z</time>
      </trkpt>
      <trkpt lat="43.86809" lon="6.56061">
        <ele>915</ele>
        <time>2021-09-18T08:39:40Z</time>
      </trkpt>
      <trkpt lat="43.86809" lon="6.56064">
        <ele>915.2</ele>
        <time>2021-09-18T08:39:41Z</time>
      </trkpt>
      <trkpt lat="43.86806" lon="6.5607">
        <ele>915.6</ele>
        <time>2021-09-18T08:39:43Z</time>
      </trkpt>
      <trkpt lat="43.86805" lon="6.56072">
        <ele>915.7</ele>
        <time>2021-09-18T08:39:44Z</time>
      </trkpt>
      <trkpt lat="43.86804" lon="6.56075">
        <ele>915.8</ele>
        <time>2021-09-18T08:39:45Z</time>
      </trkpt>
      <trkpt lat="43.86803" lon="6.56079">
        <ele>916.1</ele>
        <time>2021-09-18T08:39:47Z</time>
      </trkpt>
      <trkpt lat="43.86802" lon="6.56085">
        <ele>916.4</ele>
        <time>2021-09-18T08:39:49Z</time>
      </trkpt>
      <trkpt lat="43.868" lon="6.56089">
        <ele>916.6</ele>
        <time>2021-09-18T08:39:50Z</time>
      </trkpt>
      <trkpt lat="43.86799" lon="6.56092">
        <ele>916.8</ele>
        <time>2021-09-18T08:39:51Z</time>
      </trkpt>
      <trkpt lat="43.86798" lon="6.56098">
        <ele>917.2</ele>
        <time>2021-09-18T08:39:53Z</time>
      </trkpt>
      <trkpt lat="43.86797" lon="6.56103">
        <ele>917.5</ele>
        <time>2021-09-18T08:39:55Z</time>
      </trkpt>
      <trkpt lat="43.86796" lon="6.56107">
        <ele>917.8</ele>
        <time>2021-09-18T08:39:56Z</time>
      </trkpt>
      <trkpt lat="43.86795" lon="6.56109">
        <ele>917.9</ele>
        <time>2021-09-18T08:39:57Z</time>
      </trkpt>
      <trkpt lat="43.86793" lon="6.56114">
        <ele>918.2</ele>
        <time>2021-09-18T08:39:59Z</time>
      </trkpt>
      <trkpt lat="43.86792" lon="6.56115">
        <ele>918.3</ele>
        <time>2021-09-18T08:40:00Z</time>
      </trkpt>
      <trkpt lat="43.86791" lon="6.56117">
        <ele>918.4</ele>
        <time>2021-09-18T08:40:01Z</time>
      </trkpt>
      <trkpt lat="43.86791" lon="6.56119">
        <ele>918.6</ele>
        <time>2021-09-18T08:40:02Z</time>
      </trkpt>
      <trkpt lat="43.86789" lon="6.56123">
        <ele>918.9</ele>
        <time>2021-09-18T08:40:04Z</time>
      </trkpt>
      <trkpt lat="43.86788" lon="6.56127">
        <ele>919.1</ele>
        <time>2021-09-18T08:40:06Z</time>
      </trkpt>
      <trkpt lat="43.86787" lon="6.56129">
        <ele>919.3</ele>
        <time>2021-09-18T08:40:08Z</time>
      </trkpt>
      <trkpt lat="43.86787" lon="6.56132">
        <ele>919.5</ele>
        <time>2021-09-18T08:40:09Z</time>
      </trkpt>
      <trkpt lat="43.86786" lon="6.56137">
        <ele>919.8</ele>
        <time>2021-09-18T08:40:11Z</time>
      </trkpt>
      <trkpt lat="43.86785" lon="6.56141">
        <ele>920</ele>
        <time>2021-09-18T08:40:12Z</time>
      </trkpt>
      <trkpt lat="43.86784" lon="6.56145">
        <ele>920.3</ele>
        <time>2021-09-18T08:40:14Z</time>
      </trkpt>
      <trkpt lat="43.86782" lon="6.56146">
        <ele>920.4</ele>
        <time>2021-09-18T08:40:15Z</time>
      </trkpt>
      <trkpt lat="43.86781" lon="6.56149">
        <ele>920.6</ele>
        <time>2021-09-18T08:40:17Z</time>
      </trkpt>
      <trkpt lat="43.86781" lon="6.56148">
        <ele>920.6</ele>
        <time>2021-09-18T08:40:18Z</time>
      </trkpt>
      <trkpt lat="43.8678" lon="6.5615">
        <ele>920.8</ele>
        <time>2021-09-18T08:40:20Z</time>
      </trkpt>
      <trkpt lat="43.86779" lon="6.56152">
        <ele>920.9</ele>
        <time>2021-09-18T08:40:21Z</time>
      </trkpt>
      <trkpt lat="43.86778" lon="6.56156">
        <ele>921.2</ele>
        <time>2021-09-18T08:40:23Z</time>
      </trkpt>
      <trkpt lat="43.86777" lon="6.56159">
        <ele>921.3</ele>
        <time>2021-09-18T08:40:24Z</time>
      </trkpt>
      <trkpt lat="43.86776" lon="6.56163">
        <ele>921.6</ele>
        <time>2021-09-18T08:40:26Z</time>
      </trkpt>
      <trkpt lat="43.86776" lon="6.56167">
        <ele>921.9</ele>
        <time>2021-09-18T08:40:27Z</time>
      </trkpt>
      <trkpt lat="43.86776" lon="6.56168">
        <ele>922</ele>
        <time>2021-09-18T08:40:28Z</time>
      </trkpt>
      <trkpt lat="43.86776" lon="6.56173">
        <ele>922.2</ele>
        <time>2021-09-18T08:40:30Z</time>
      </trkpt>
      <trkpt lat="43.86775" lon="6.56173">
        <ele>922.3</ele>
        <time>2021-09-18T08:40:31Z</time>
      </trkpt>
      <trkpt lat="43.86775" lon="6.56174">
        <ele>922.3</ele>
        <time>2021-09-18T08:40:32Z</time>
      </trkpt>
      <trkpt lat="43.86774" lon="6.56177">
        <ele>922.5</ele>
        <time>2021-09-18T08:40:34Z</time>
      </trkpt>
      <trkpt lat="43.86774" lon="6.56179">
        <ele>922.7</ele>
        <time>2021-09-18T08:40:36Z</time>
      </trkpt>
      <trkpt lat="43.86775" lon="6.56181">
        <ele>922.8</ele>
        <time>2021-09-18T08:40:37Z</time>
      </trkpt>
      <trkpt lat="43.86775" lon="6.56183">
        <ele>922.9</ele>
        <time>2021-09-18T08:40:38Z</time>
      </trkpt>
      <trkpt lat="43.86775" lon="6.56183">
        <ele>922.9</ele>
        <time>2021-09-18T08:40:39Z</time>
      </trkpt>
      <trkpt lat="43.86775" lon="6.56183">
        <ele>922.9</ele>
        <time>2021-09-18T08:40:40Z</time>
      </trkpt>
      <trkpt lat="43.86774" lon="6.56185">
        <ele>923</ele>
        <time>2021-09-18T08:40:42Z</time>
      </trkpt>
      <trkpt lat="43.86774" lon="6.56186">
        <ele>923.1</ele>
        <time>2021-09-18T08:40:43Z</time>
      </trkpt>
      <trkpt lat="43.86775" lon="6.5619">
        <ele>923.3</ele>
        <time>2021-09-18T08:40:45Z</time>
      </trkpt>
      <trkpt lat="43.86775" lon="6.56191">
        <ele>923.4</ele>
        <time>2021-09-18T08:40:46Z</time>
      </trkpt>
      <trkpt lat="43.86776" lon="6.56196">
        <ele>923.7</ele>
        <time>2021-09-18T08:40:48Z</time>
      </trkpt>
      <trkpt lat="43.86778" lon="6.56205">
        <ele>924.2</ele>
        <time>2021-09-18T08:40:51Z</time>
      </trkpt>
      <trkpt lat="43.86779" lon="6.56208">
        <ele>924.4</ele>
        <time>2021-09-18T08:40:52Z</time>
      </trkpt>
      <trkpt lat="43.86779" lon="6.56212">
        <ele>924.7</ele>
        <time>2021-09-18T08:40:53Z</time>
      </trkpt>
      <trkpt lat="43.86781" lon="6.5622">
        <ele>925.1</ele>
        <time>2021-09-18T08:40:55Z</time>
      </trkpt>
      <trkpt lat="43.86781" lon="6.56225">
        <ele>925.4</ele>
        <time>2021-09-18T08:40:56Z</time>
      </trkpt>
      <trkpt lat="43.86781" lon="6.56227">
        <ele>925.6</ele>
        <time>2021-09-18T08:40:57Z</time>
      </trkpt>
      <trkpt lat="43.86782" lon="6.56232">
        <ele>925.8</ele>
        <time>2021-09-18T08:40:59Z</time>
      </trkpt>
      <trkpt lat="43.86782" lon="6.56233">
        <ele>926</ele>
        <time>2021-09-18T08:41:00Z</time>
      </trkpt>
      <trkpt lat="43.86783" lon="6.56235">
        <ele>926.1</ele>
        <time>2021-09-18T08:41:01Z</time>
      </trkpt>
      <trkpt lat="43.86784" lon="6.56237">
        <ele>926.2</ele>
        <time>2021-09-18T08:41:02Z</time>
      </trkpt>
      <trkpt lat="43.86786" lon="6.56239">
        <ele>926.4</ele>
        <time>2021-09-18T08:41:04Z</time>
      </trkpt>
      <trkpt lat="43.86787" lon="6.56242">
        <ele>926.6</ele>
        <time>2021-09-18T08:41:05Z</time>
      </trkpt>
      <trkpt lat="43.86787" lon="6.56244">
        <ele>926.8</ele>
        <time>2021-09-18T08:41:07Z</time>
      </trkpt>
      <trkpt lat="43.86787" lon="6.56245">
        <ele>926.8</ele>
        <time>2021-09-18T08:41:08Z</time>
      </trkpt>
      <trkpt lat="43.86787" lon="6.56246">
        <ele>926.9</ele>
        <time>2021-09-18T08:41:09Z</time>
      </trkpt>
      <trkpt lat="43.86788" lon="6.56251">
        <ele>927.2</ele>
        <time>2021-09-18T08:41:11Z</time>
      </trkpt>
      <trkpt lat="43.86788" lon="6.56252">
        <ele>927.2</ele>
        <time>2021-09-18T08:41:12Z</time>
      </trkpt>
      <trkpt lat="43.86788" lon="6.56252">
        <ele>927.2</ele>
        <time>2021-09-18T08:41:14Z</time>
      </trkpt>
      <trkpt lat="43.86788" lon="6.56253">
        <ele>927.3</ele>
        <time>2021-09-18T08:41:15Z</time>
      </trkpt>
      <trkpt lat="43.86787" lon="6.56255">
        <ele>927.5</ele>
        <time>2021-09-18T08:41:17Z</time>
      </trkpt>
      <trkpt lat="43.86786" lon="6.56257">
        <ele>927.6</ele>
        <time>2021-09-18T08:41:18Z</time>
      </trkpt>
      <trkpt lat="43.86785" lon="6.56258">
        <ele>927.7</ele>
        <time>2021-09-18T08:41:19Z</time>
      </trkpt>
      <trkpt lat="43.86785" lon="6.56258">
        <ele>927.7</ele>
        <time>2021-09-18T08:41:20Z</time>
      </trkpt>
      <trkpt lat="43.86784" lon="6.56258">
        <ele>927.8</ele>
        <time>2021-09-18T08:41:21Z</time>
      </trkpt>
      <trkpt lat="43.86784" lon="6.56259">
        <ele>927.8</ele>
        <time>2021-09-18T08:41:23Z</time>
      </trkpt>
      <trkpt lat="43.86783" lon="6.56259">
        <ele>927.9</ele>
        <time>2021-09-18T08:41:24Z</time>
      </trkpt>
      <trkpt lat="43.86782" lon="6.5626">
        <ele>928</ele>
        <time>2021-09-18T08:41:25Z</time>
      </trkpt>
      <trkpt lat="43.86782" lon="6.56261">
        <ele>928</ele>
        <time>2021-09-18T08:41:27Z</time>
      </trkpt>
      <trkpt lat="43.86781" lon="6.56262">
        <ele>928.1</ele>
        <time>2021-09-18T08:41:28Z</time>
      </trkpt>
      <trkpt lat="43.8678" lon="6.56263">
        <ele>928.2</ele>
        <time>2021-09-18T08:41:30Z</time>
      </trkpt>
      <trkpt lat="43.86774" lon="6.5629">
        <ele>929.8</ele>
        <time>2021-09-18T08:41:43Z</time>
      </trkpt>
      <trkpt lat="43.86773" lon="6.56295">
        <ele>930</ele>
        <time>2021-09-18T08:41:45Z</time>
      </trkpt>
      <trkpt lat="43.86772" lon="6.56301">
        <ele>930.4</ele>
        <time>2021-09-18T08:41:47Z</time>
      </trkpt>
      <trkpt lat="43.86771" lon="6.56305">
        <ele>930.6</ele>
        <time>2021-09-18T08:41:48Z</time>
      </trkpt>
      <trkpt lat="43.86769" lon="6.56309">
        <ele>930.9</ele>
        <time>2021-09-18T08:41:49Z</time>
      </trkpt>
      <trkpt lat="43.86767" lon="6.56313">
        <ele>931.1</ele>
        <time>2021-09-18T08:41:51Z</time>
      </trkpt>
      <trkpt lat="43.86767" lon="6.56316">
        <ele>931.3</ele>
        <time>2021-09-18T08:41:52Z</time>
      </trkpt>
      <trkpt lat="43.86766" lon="6.56318">
        <ele>931.4</ele>
        <time>2021-09-18T08:41:53Z</time>
      </trkpt>
      <trkpt lat="43.86766" lon="6.5632">
        <ele>931.6</ele>
        <time>2021-09-18T08:41:54Z</time>
      </trkpt>
      <trkpt lat="43.86765" lon="6.56325">
        <ele>931.8</ele>
        <time>2021-09-18T08:41:56Z</time>
      </trkpt>
      <trkpt lat="43.86765" lon="6.56327">
        <ele>931.9</ele>
        <time>2021-09-18T08:41:57Z</time>
      </trkpt>
      <trkpt lat="43.86765" lon="6.56329">
        <ele>932.1</ele>
        <time>2021-09-18T08:41:58Z</time>
      </trkpt>
      <trkpt lat="43.86765" lon="6.56333">
        <ele>932.3</ele>
        <time>2021-09-18T08:42:00Z</time>
      </trkpt>
      <trkpt lat="43.86765" lon="6.56337">
        <ele>932.5</ele>
        <time>2021-09-18T08:42:02Z</time>
      </trkpt>
      <trkpt lat="43.86765" lon="6.5634">
        <ele>932.6</ele>
        <time>2021-09-18T08:42:03Z</time>
      </trkpt>
      <trkpt lat="43.86765" lon="6.56343">
        <ele>932.8</ele>
        <time>2021-09-18T08:42:05Z</time>
      </trkpt>
      <trkpt lat="43.86764" lon="6.56347">
        <ele>933</ele>
        <time>2021-09-18T08:42:06Z</time>
      </trkpt>
      <trkpt lat="43.86764" lon="6.56348">
        <ele>933.1</ele>
        <time>2021-09-18T08:42:07Z</time>
      </trkpt>
      <trkpt lat="43.86764" lon="6.5635">
        <ele>933.2</ele>
        <time>2021-09-18T08:42:08Z</time>
      </trkpt>
      <trkpt lat="43.86764" lon="6.56352">
        <ele>933.3</ele>
        <time>2021-09-18T08:42:09Z</time>
      </trkpt>
      <trkpt lat="43.86764" lon="6.56355">
        <ele>933.4</ele>
        <time>2021-09-18T08:42:10Z</time>
      </trkpt>
      <trkpt lat="43.86763" lon="6.56359">
        <ele>933.7</ele>
        <time>2021-09-18T08:42:12Z</time>
      </trkpt>
      <trkpt lat="43.86763" lon="6.56364">
        <ele>933.9</ele>
        <time>2021-09-18T08:42:14Z</time>
      </trkpt>
      <trkpt lat="43.86763" lon="6.5637">
        <ele>934.2</ele>
        <time>2021-09-18T08:42:16Z</time>
      </trkpt>
      <trkpt lat="43.86763" lon="6.56374">
        <ele>934.4</ele>
        <time>2021-09-18T08:42:17Z</time>
      </trkpt>
      <trkpt lat="43.86762" lon="6.56377">
        <ele>934.6</ele>
        <time>2021-09-18T08:42:18Z</time>
      </trkpt>
      <trkpt lat="43.86761" lon="6.56379">
        <ele>934.7</ele>
        <time>2021-09-18T08:42:20Z</time>
      </trkpt>
      <trkpt lat="43.8676" lon="6.56381">
        <ele>934.8</ele>
        <time>2021-09-18T08:42:22Z</time>
      </trkpt>
      <trkpt lat="43.86759" lon="6.56383">
        <ele>934.9</ele>
        <time>2021-09-18T08:42:24Z</time>
      </trkpt>
      <trkpt lat="43.86757" lon="6.56386">
        <ele>935.1</ele>
        <time>2021-09-18T08:42:25Z</time>
      </trkpt>
      <trkpt lat="43.86757" lon="6.56388">
        <ele>935.2</ele>
        <time>2021-09-18T08:42:26Z</time>
      </trkpt>
      <trkpt lat="43.86755" lon="6.56393">
        <ele>935.4</ele>
        <time>2021-09-18T08:42:28Z</time>
      </trkpt>
      <trkpt lat="43.86754" lon="6.56398">
        <ele>935.7</ele>
        <time>2021-09-18T08:42:30Z</time>
      </trkpt>
      <trkpt lat="43.86752" lon="6.56403">
        <ele>935.9</ele>
        <time>2021-09-18T08:42:31Z</time>
      </trkpt>
      <trkpt lat="43.86751" lon="6.56406">
        <ele>936</ele>
        <time>2021-09-18T08:42:32Z</time>
      </trkpt>
      <trkpt lat="43.86749" lon="6.56411">
        <ele>936.3</ele>
        <time>2021-09-18T08:42:34Z</time>
      </trkpt>
      <trkpt lat="43.86748" lon="6.56415">
        <ele>936.5</ele>
        <time>2021-09-18T08:42:35Z</time>
      </trkpt>
      <trkpt lat="43.86747" lon="6.56419">
        <ele>936.7</ele>
        <time>2021-09-18T08:42:36Z</time>
      </trkpt>
      <trkpt lat="43.86744" lon="6.56424">
        <ele>937</ele>
        <time>2021-09-18T08:42:38Z</time>
      </trkpt>
      <trkpt lat="43.86741" lon="6.56427">
        <ele>937.3</ele>
        <time>2021-09-18T08:42:40Z</time>
      </trkpt>
      <trkpt lat="43.86738" lon="6.56429">
        <ele>937.5</ele>
        <time>2021-09-18T08:42:41Z</time>
      </trkpt>
      <trkpt lat="43.86737" lon="6.5643">
        <ele>937.6</ele>
        <time>2021-09-18T08:42:42Z</time>
      </trkpt>
      <trkpt lat="43.86735" lon="6.56432">
        <ele>937.8</ele>
        <time>2021-09-18T08:42:44Z</time>
      </trkpt>
      <trkpt lat="43.86732" lon="6.56435">
        <ele>938</ele>
        <time>2021-09-18T08:42:46Z</time>
      </trkpt>
      <trkpt lat="43.86731" lon="6.56435">
        <ele>938.1</ele>
        <time>2021-09-18T08:42:47Z</time>
      </trkpt>
      <trkpt lat="43.8673" lon="6.56435">
        <ele>938.2</ele>
        <time>2021-09-18T08:42:48Z</time>
      </trkpt>
      <trkpt lat="43.86727" lon="6.56435">
        <ele>938.4</ele>
        <time>2021-09-18T08:42:50Z</time>
      </trkpt>
      <trkpt lat="43.86726" lon="6.56435">
        <ele>938.5</ele>
        <time>2021-09-18T08:42:52Z</time>
      </trkpt>
      <trkpt lat="43.86725" lon="6.56435">
        <ele>938.6</ele>
        <time>2021-09-18T08:42:53Z</time>
      </trkpt>
      <trkpt lat="43.86724" lon="6.56436">
        <ele>938.6</ele>
        <time>2021-09-18T08:42:54Z</time>
      </trkpt>
      <trkpt lat="43.86724" lon="6.56436">
        <ele>938.7</ele>
        <time>2021-09-18T08:42:56Z</time>
      </trkpt>
      <trkpt lat="43.8672" lon="6.56438">
        <ele>939</ele>
        <time>2021-09-18T08:42:59Z</time>
      </trkpt>
      <trkpt lat="43.86716" lon="6.56437">
        <ele>939.3</ele>
        <time>2021-09-18T08:43:01Z</time>
      </trkpt>
      <trkpt lat="43.86712" lon="6.56437">
        <ele>939.6</ele>
        <time>2021-09-18T08:43:03Z</time>
      </trkpt>
      <trkpt lat="43.86708" lon="6.56437">
        <ele>939.9</ele>
        <time>2021-09-18T08:43:04Z</time>
      </trkpt>
      <trkpt lat="43.86704" lon="6.56437">
        <ele>940.2</ele>
        <time>2021-09-18T08:43:05Z</time>
      </trkpt>
      <trkpt lat="43.86699" lon="6.56436">
        <ele>940.5</ele>
        <time>2021-09-18T08:43:06Z</time>
      </trkpt>
      <trkpt lat="43.86695" lon="6.56436">
        <ele>940.8</ele>
        <time>2021-09-18T08:43:08Z</time>
      </trkpt>
      <trkpt lat="43.86694" lon="6.56436">
        <ele>940.9</ele>
        <time>2021-09-18T08:43:09Z</time>
      </trkpt>
      <trkpt lat="43.86692" lon="6.56436">
        <ele>941</ele>
        <time>2021-09-18T08:43:10Z</time>
      </trkpt>
      <trkpt lat="43.86689" lon="6.56434">
        <ele>941.2</ele>
        <time>2021-09-18T08:43:12Z</time>
      </trkpt>
      <trkpt lat="43.86687" lon="6.56434">
        <ele>941.3</ele>
        <time>2021-09-18T08:43:13Z</time>
      </trkpt>
      <trkpt lat="43.86685" lon="6.56433">
        <ele>941.5</ele>
        <time>2021-09-18T08:43:14Z</time>
      </trkpt>
      <trkpt lat="43.86685" lon="6.56433">
        <ele>941.5</ele>
        <time>2021-09-18T08:43:16Z</time>
      </trkpt>
      <trkpt lat="43.86682" lon="6.56434">
        <ele>941.7</ele>
        <time>2021-09-18T08:43:17Z</time>
      </trkpt>
      <trkpt lat="43.86681" lon="6.56434">
        <ele>941.8</ele>
        <time>2021-09-18T08:43:19Z</time>
      </trkpt>
      <trkpt lat="43.86678" lon="6.56437">
        <ele>942</ele>
        <time>2021-09-18T08:43:21Z</time>
      </trkpt>
      <trkpt lat="43.86676" lon="6.56439">
        <ele>942.2</ele>
        <time>2021-09-18T08:43:22Z</time>
      </trkpt>
      <trkpt lat="43.86675" lon="6.5644">
        <ele>942.3</ele>
        <time>2021-09-18T08:43:23Z</time>
      </trkpt>
      <trkpt lat="43.86673" lon="6.5644">
        <ele>942.4</ele>
        <time>2021-09-18T08:43:24Z</time>
      </trkpt>
      <trkpt lat="43.8667" lon="6.56441">
        <ele>942.7</ele>
        <time>2021-09-18T08:43:26Z</time>
      </trkpt>
      <trkpt lat="43.86667" lon="6.56441">
        <ele>942.8</ele>
        <time>2021-09-18T08:43:27Z</time>
      </trkpt>
      <trkpt lat="43.86663" lon="6.5644">
        <ele>943.1</ele>
        <time>2021-09-18T08:43:29Z</time>
      </trkpt>
      <trkpt lat="43.8666" lon="6.5644">
        <ele>943.3</ele>
        <time>2021-09-18T08:43:31Z</time>
      </trkpt>
      <trkpt lat="43.8666" lon="6.56439">
        <ele>943.3</ele>
        <time>2021-09-18T08:43:32Z</time>
      </trkpt>
      <trkpt lat="43.86659" lon="6.56439">
        <ele>943.4</ele>
        <time>2021-09-18T08:43:33Z</time>
      </trkpt>
      <trkpt lat="43.86659" lon="6.5644">
        <ele>943.4</ele>
        <time>2021-09-18T08:43:34Z</time>
      </trkpt>
      <trkpt lat="43.86659" lon="6.56441">
        <ele>943.5</ele>
        <time>2021-09-18T08:43:36Z</time>
      </trkpt>
      <trkpt lat="43.8666" lon="6.56441">
        <ele>943.5</ele>
        <time>2021-09-18T08:43:37Z</time>
      </trkpt>
      <trkpt lat="43.86661" lon="6.56442">
        <ele>943.6</ele>
        <time>2021-09-18T08:43:39Z</time>
      </trkpt>
      <trkpt lat="43.86661" lon="6.56443">
        <ele>943.6</ele>
        <time>2021-09-18T08:43:40Z</time>
      </trkpt>
      <trkpt lat="43.86661" lon="6.56443">
        <ele>943.6</ele>
        <time>2021-09-18T08:43:41Z</time>
      </trkpt>
      <trkpt lat="43.8666" lon="6.56443">
        <ele>943.7</ele>
        <time>2021-09-18T08:43:43Z</time>
      </trkpt>
      <trkpt lat="43.86659" lon="6.56444">
        <ele>943.7</ele>
        <time>2021-09-18T08:43:45Z</time>
      </trkpt>
      <trkpt lat="43.86634" lon="6.5644">
        <ele>945.4</ele>
        <time>2021-09-18T08:43:58Z</time>
      </trkpt>
      <trkpt lat="43.86628" lon="6.56442">
        <ele>945.7</ele>
        <time>2021-09-18T08:44:00Z</time>
      </trkpt>
      <trkpt lat="43.86624" lon="6.56444">
        <ele>946</ele>
        <time>2021-09-18T08:44:01Z</time>
      </trkpt>
      <trkpt lat="43.86621" lon="6.56445">
        <ele>946.2</ele>
        <time>2021-09-18T08:44:02Z</time>
      </trkpt>
      <trkpt lat="43.86619" lon="6.5645">
        <ele>946.5</ele>
        <time>2021-09-18T08:44:04Z</time>
      </trkpt>
      <trkpt lat="43.86619" lon="6.56452">
        <ele>946.5</ele>
        <time>2021-09-18T08:44:05Z</time>
      </trkpt>
      <trkpt lat="43.86619" lon="6.56454">
        <ele>946.6</ele>
        <time>2021-09-18T08:44:06Z</time>
      </trkpt>
      <trkpt lat="43.86619" lon="6.56459">
        <ele>946.9</ele>
        <time>2021-09-18T08:44:08Z</time>
      </trkpt>
      <trkpt lat="43.8662" lon="6.56464">
        <ele>947.2</ele>
        <time>2021-09-18T08:44:10Z</time>
      </trkpt>
      <trkpt lat="43.8662" lon="6.56465">
        <ele>947.3</ele>
        <time>2021-09-18T08:44:11Z</time>
      </trkpt>
      <trkpt lat="43.86621" lon="6.56466">
        <ele>947.4</ele>
        <time>2021-09-18T08:44:12Z</time>
      </trkpt>
      <trkpt lat="43.86622" lon="6.56467">
        <ele>947.4</ele>
        <time>2021-09-18T08:44:13Z</time>
      </trkpt>
      <trkpt lat="43.86624" lon="6.56468">
        <ele>947.6</ele>
        <time>2021-09-18T08:44:15Z</time>
      </trkpt>
      <trkpt lat="43.86626" lon="6.56468">
        <ele>947.8</ele>
        <time>2021-09-18T08:44:17Z</time>
      </trkpt>
      <trkpt lat="43.86628" lon="6.56467">
        <ele>947.9</ele>
        <time>2021-09-18T08:44:18Z</time>
      </trkpt>
      <trkpt lat="43.86629" lon="6.56467">
        <ele>948</ele>
        <time>2021-09-18T08:44:19Z</time>
      </trkpt>
      <trkpt lat="43.86631" lon="6.56467">
        <ele>948.2</ele>
        <time>2021-09-18T08:44:21Z</time>
      </trkpt>
      <trkpt lat="43.86632" lon="6.56467">
        <ele>948.3</ele>
        <time>2021-09-18T08:44:22Z</time>
      </trkpt>
      <trkpt lat="43.86634" lon="6.56467">
        <ele>948.4</ele>
        <time>2021-09-18T08:44:24Z</time>
      </trkpt>
      <trkpt lat="43.86636" lon="6.56468">
        <ele>948.7</ele>
        <time>2021-09-18T08:44:25Z</time>
      </trkpt>
      <trkpt lat="43.86638" lon="6.56468">
        <ele>948.8</ele>
        <time>2021-09-18T08:44:27Z</time>
      </trkpt>
      <trkpt lat="43.86639" lon="6.56468">
        <ele>948.9</ele>
        <time>2021-09-18T08:44:28Z</time>
      </trkpt>
      <trkpt lat="43.8664" lon="6.56468">
        <ele>949</ele>
        <time>2021-09-18T08:44:29Z</time>
      </trkpt>
      <trkpt lat="43.86641" lon="6.56468">
        <ele>949.1</ele>
        <time>2021-09-18T08:44:30Z</time>
      </trkpt>
      <trkpt lat="43.86644" lon="6.56468">
        <ele>949.3</ele>
        <time>2021-09-18T08:44:32Z</time>
      </trkpt>
      <trkpt lat="43.86645" lon="6.56468">
        <ele>949.4</ele>
        <time>2021-09-18T08:44:33Z</time>
      </trkpt>
      <trkpt lat="43.86647" lon="6.56468">
        <ele>949.5</ele>
        <time>2021-09-18T08:44:34Z</time>
      </trkpt>
      <trkpt lat="43.8665" lon="6.56468">
        <ele>949.8</ele>
        <time>2021-09-18T08:44:36Z</time>
      </trkpt>
      <trkpt lat="43.86653" lon="6.56469">
        <ele>950.1</ele>
        <time>2021-09-18T08:44:37Z</time>
      </trkpt>
      <trkpt lat="43.86654" lon="6.5647">
        <ele>950.2</ele>
        <time>2021-09-18T08:44:38Z</time>
      </trkpt>
      <trkpt lat="43.86656" lon="6.56471">
        <ele>950.4</ele>
        <time>2021-09-18T08:44:40Z</time>
      </trkpt>
      <trkpt lat="43.86659" lon="6.56473">
        <ele>950.7</ele>
        <time>2021-09-18T08:44:42Z</time>
      </trkpt>
      <trkpt lat="43.86661" lon="6.56475">
        <ele>950.9</ele>
        <time>2021-09-18T08:44:43Z</time>
      </trkpt>
      <trkpt lat="43.86664" lon="6.56475">
        <ele>951.1</ele>
        <time>2021-09-18T08:44:45Z</time>
      </trkpt>
      <trkpt lat="43.86668" lon="6.56475">
        <ele>951.4</ele>
        <time>2021-09-18T08:44:46Z</time>
      </trkpt>
      <trkpt lat="43.86669" lon="6.56475">
        <ele>951.5</ele>
        <time>2021-09-18T08:44:47Z</time>
      </trkpt>
      <trkpt lat="43.86673" lon="6.56477">
        <ele>951.8</ele>
        <time>2021-09-18T08:44:49Z</time>
      </trkpt>
      <trkpt lat="43.86675" lon="6.56477">
        <ele>951.9</ele>
        <time>2021-09-18T08:44:50Z</time>
      </trkpt>
      <trkpt lat="43.86676" lon="6.56477">
        <ele>952.1</ele>
        <time>2021-09-18T08:44:51Z</time>
      </trkpt>
      <trkpt lat="43.86678" lon="6.56477">
        <ele>952.2</ele>
        <time>2021-09-18T08:44:53Z</time>
      </trkpt>
      <trkpt lat="43.86679" lon="6.56477">
        <ele>952.3</ele>
        <time>2021-09-18T08:44:54Z</time>
      </trkpt>
      <trkpt lat="43.86679" lon="6.56477">
        <ele>952.3</ele>
        <time>2021-09-18T08:44:55Z</time>
      </trkpt>
      <trkpt lat="43.86681" lon="6.56477">
        <ele>952.4</ele>
        <time>2021-09-18T08:44:57Z</time>
      </trkpt>
      <trkpt lat="43.86684" lon="6.56476">
        <ele>952.7</ele>
        <time>2021-09-18T08:44:59Z</time>
      </trkpt>
      <trkpt lat="43.86688" lon="6.56476">
        <ele>953</ele>
        <time>2021-09-18T08:45:01Z</time>
      </trkpt>
      <trkpt lat="43.86691" lon="6.56475">
        <ele>953.2</ele>
        <time>2021-09-18T08:45:02Z</time>
      </trkpt>
      <trkpt lat="43.86695" lon="6.56475">
        <ele>953.5</ele>
        <time>2021-09-18T08:45:04Z</time>
      </trkpt>
      <trkpt lat="43.86697" lon="6.56475">
        <ele>953.6</ele>
        <time>2021-09-18T08:45:05Z</time>
      </trkpt>
      <trkpt lat="43.86698" lon="6.56475">
        <ele>953.7</ele>
        <time>2021-09-18T08:45:06Z</time>
      </trkpt>
      <trkpt lat="43.86701" lon="6.56475">
        <ele>954</ele>
        <time>2021-09-18T08:45:08Z</time>
      </trkpt>
      <trkpt lat="43.86703" lon="6.56475">
        <ele>954.1</ele>
        <time>2021-09-18T08:45:09Z</time>
      </trkpt>
      <trkpt lat="43.86704" lon="6.56475">
        <ele>954.2</ele>
        <time>2021-09-18T08:45:10Z</time>
      </trkpt>
      <trkpt lat="43.86706" lon="6.56475">
        <ele>954.3</ele>
        <time>2021-09-18T08:45:11Z</time>
      </trkpt>
      <trkpt lat="43.86707" lon="6.56476">
        <ele>954.4</ele>
        <time>2021-09-18T08:45:12Z</time>
      </trkpt>
      <trkpt lat="43.86709" lon="6.56477">
        <ele>954.5</ele>
        <time>2021-09-18T08:45:14Z</time>
      </trkpt>
      <trkpt lat="43.8671" lon="6.56477">
        <ele>954.6</ele>
        <time>2021-09-18T08:45:15Z</time>
      </trkpt>
      <trkpt lat="43.86712" lon="6.56478">
        <ele>954.8</ele>
        <time>2021-09-18T08:45:17Z</time>
      </trkpt>
      <trkpt lat="43.86714" lon="6.56479">
        <ele>955</ele>
        <time>2021-09-18T08:45:18Z</time>
      </trkpt>
      <trkpt lat="43.86716" lon="6.56481">
        <ele>955.1</ele>
        <time>2021-09-18T08:45:20Z</time>
      </trkpt>
      <trkpt lat="43.86719" lon="6.56481">
        <ele>955.4</ele>
        <time>2021-09-18T08:45:21Z</time>
      </trkpt>
      <trkpt lat="43.8672" lon="6.56481">
        <ele>955.4</ele>
        <time>2021-09-18T08:45:22Z</time>
      </trkpt>
      <trkpt lat="43.86723" lon="6.56481">
        <ele>955.7</ele>
        <time>2021-09-18T08:45:23Z</time>
      </trkpt>
      <trkpt lat="43.86724" lon="6.56481">
        <ele>955.7</ele>
        <time>2021-09-18T08:45:24Z</time>
      </trkpt>
      <trkpt lat="43.86727" lon="6.56483">
        <ele>956</ele>
        <time>2021-09-18T08:45:26Z</time>
      </trkpt>
      <trkpt lat="43.86729" lon="6.56483">
        <ele>956.2</ele>
        <time>2021-09-18T08:45:27Z</time>
      </trkpt>
      <trkpt lat="43.86733" lon="6.56483">
        <ele>956.5</ele>
        <time>2021-09-18T08:45:29Z</time>
      </trkpt>
      <trkpt lat="43.86736" lon="6.56484">
        <ele>956.8</ele>
        <time>2021-09-18T08:45:30Z</time>
      </trkpt>
      <trkpt lat="43.86737" lon="6.56485">
        <ele>956.8</ele>
        <time>2021-09-18T08:45:31Z</time>
      </trkpt>
      <trkpt lat="43.86738" lon="6.56485">
        <ele>956.9</ele>
        <time>2021-09-18T08:45:33Z</time>
      </trkpt>
      <trkpt lat="43.86738" lon="6.56485">
        <ele>956.9</ele>
        <time>2021-09-18T08:45:34Z</time>
      </trkpt>
      <trkpt lat="43.86739" lon="6.56484">
        <ele>957</ele>
        <time>2021-09-18T08:45:36Z</time>
      </trkpt>
      <trkpt lat="43.86742" lon="6.56484">
        <ele>957.2</ele>
        <time>2021-09-18T08:45:38Z</time>
      </trkpt>
      <trkpt lat="43.86743" lon="6.56484">
        <ele>957.3</ele>
        <time>2021-09-18T08:45:39Z</time>
      </trkpt>
      <trkpt lat="43.86747" lon="6.56484">
        <ele>957.6</ele>
        <time>2021-09-18T08:45:41Z</time>
      </trkpt>
      <trkpt lat="43.86749" lon="6.56484">
        <ele>957.8</ele>
        <time>2021-09-18T08:45:42Z</time>
      </trkpt>
      <trkpt lat="43.86753" lon="6.56484">
        <ele>958.1</ele>
        <time>2021-09-18T08:45:44Z</time>
      </trkpt>
      <trkpt lat="43.86756" lon="6.56486">
        <ele>958.3</ele>
        <time>2021-09-18T08:45:45Z</time>
      </trkpt>
      <trkpt lat="43.8676" lon="6.56486">
        <ele>958.6</ele>
        <time>2021-09-18T08:45:46Z</time>
      </trkpt>
      <trkpt lat="43.86765" lon="6.56487">
        <ele>959</ele>
        <time>2021-09-18T08:45:48Z</time>
      </trkpt>
      <trkpt lat="43.86766" lon="6.56486">
        <ele>959.1</ele>
        <time>2021-09-18T08:45:49Z</time>
      </trkpt>
      <trkpt lat="43.86768" lon="6.56486">
        <ele>959.3</ele>
        <time>2021-09-18T08:45:50Z</time>
      </trkpt>
      <trkpt lat="43.86771" lon="6.56487">
        <ele>959.5</ele>
        <time>2021-09-18T08:45:52Z</time>
      </trkpt>
      <trkpt lat="43.86773" lon="6.56487">
        <ele>959.7</ele>
        <time>2021-09-18T08:45:53Z</time>
      </trkpt>
      <trkpt lat="43.86777" lon="6.56488">
        <ele>960</ele>
        <time>2021-09-18T08:45:55Z</time>
      </trkpt>
      <trkpt lat="43.8678" lon="6.56489">
        <ele>960.2</ele>
        <time>2021-09-18T08:45:56Z</time>
      </trkpt>
      <trkpt lat="43.86781" lon="6.5649">
        <ele>960.3</ele>
        <time>2021-09-18T08:45:57Z</time>
      </trkpt>
      <trkpt lat="43.86783" lon="6.5649">
        <ele>960.4</ele>
        <time>2021-09-18T08:45:59Z</time>
      </trkpt>
      <trkpt lat="43.86784" lon="6.5649">
        <ele>960.5</ele>
        <time>2021-09-18T08:46:00Z</time>
      </trkpt>
      <trkpt lat="43.86785" lon="6.56491">
        <ele>960.7</ele>
        <time>2021-09-18T08:46:02Z</time>
      </trkpt>
      <trkpt lat="43.86786" lon="6.56494">
        <ele>960.8</ele>
        <time>2021-09-18T08:46:04Z</time>
      </trkpt>
      <trkpt lat="43.86787" lon="6.56496">
        <ele>961</ele>
        <time>2021-09-18T08:46:06Z</time>
      </trkpt>
      <trkpt lat="43.8679" lon="6.56497">
        <ele>961.1</ele>
        <time>2021-09-18T08:46:08Z</time>
      </trkpt>
      <trkpt lat="43.86792" lon="6.56497">
        <ele>961.3</ele>
        <time>2021-09-18T08:46:09Z</time>
      </trkpt>
      <trkpt lat="43.86795" lon="6.56496">
        <ele>961.5</ele>
        <time>2021-09-18T08:46:11Z</time>
      </trkpt>
      <trkpt lat="43.86795" lon="6.56496">
        <ele>961.6</ele>
        <time>2021-09-18T08:46:12Z</time>
      </trkpt>
      <trkpt lat="43.86796" lon="6.56494">
        <ele>961.7</ele>
        <time>2021-09-18T08:46:13Z</time>
      </trkpt>
      <trkpt lat="43.86798" lon="6.56493">
        <ele>961.8</ele>
        <time>2021-09-18T08:46:15Z</time>
      </trkpt>
      <trkpt lat="43.86801" lon="6.56489">
        <ele>962.2</ele>
        <time>2021-09-18T08:46:17Z</time>
      </trkpt>
      <trkpt lat="43.86803" lon="6.56489">
        <ele>962.3</ele>
        <time>2021-09-18T08:46:19Z</time>
      </trkpt>
      <trkpt lat="43.86804" lon="6.56488">
        <ele>962.4</ele>
        <time>2021-09-18T08:46:20Z</time>
      </trkpt>
      <trkpt lat="43.86807" lon="6.56487">
        <ele>962.6</ele>
        <time>2021-09-18T08:46:21Z</time>
      </trkpt>
      <trkpt lat="43.86811" lon="6.56487">
        <ele>962.9</ele>
        <time>2021-09-18T08:46:23Z</time>
      </trkpt>
      <trkpt lat="43.86814" lon="6.56485">
        <ele>963.2</ele>
        <time>2021-09-18T08:46:25Z</time>
      </trkpt>
      <trkpt lat="43.86817" lon="6.56483">
        <ele>963.4</ele>
        <time>2021-09-18T08:46:26Z</time>
      </trkpt>
      <trkpt lat="43.8682" lon="6.56482">
        <ele>963.6</ele>
        <time>2021-09-18T08:46:27Z</time>
      </trkpt>
      <trkpt lat="43.86821" lon="6.56483">
        <ele>963.7</ele>
        <time>2021-09-18T08:46:28Z</time>
      </trkpt>
      <trkpt lat="43.86823" lon="6.56484">
        <ele>963.9</ele>
        <time>2021-09-18T08:46:30Z</time>
      </trkpt>
      <trkpt lat="43.86825" lon="6.56485">
        <ele>964</ele>
        <time>2021-09-18T08:46:32Z</time>
      </trkpt>
      <trkpt lat="43.86827" lon="6.56483">
        <ele>964.2</ele>
        <time>2021-09-18T08:46:33Z</time>
      </trkpt>
      <trkpt lat="43.86828" lon="6.56482">
        <ele>964.2</ele>
        <time>2021-09-18T08:46:35Z</time>
      </trkpt>
      <trkpt lat="43.86828" lon="6.56482">
        <ele>964.2</ele>
        <time>2021-09-18T08:46:36Z</time>
      </trkpt>
      <trkpt lat="43.86829" lon="6.56479">
        <ele>964.4</ele>
        <time>2021-09-18T08:46:38Z</time>
      </trkpt>
      <trkpt lat="43.8683" lon="6.56476">
        <ele>964.6</ele>
        <time>2021-09-18T08:46:40Z</time>
      </trkpt>
      <trkpt lat="43.86831" lon="6.56475">
        <ele>964.6</ele>
        <time>2021-09-18T08:46:41Z</time>
      </trkpt>
      <trkpt lat="43.86832" lon="6.56474">
        <ele>964.7</ele>
        <time>2021-09-18T08:46:42Z</time>
      </trkpt>
      <trkpt lat="43.86833" lon="6.56473">
        <ele>964.8</ele>
        <time>2021-09-18T08:46:43Z</time>
      </trkpt>
      <trkpt lat="43.86835" lon="6.56469">
        <ele>965</ele>
        <time>2021-09-18T08:46:45Z</time>
      </trkpt>
      <trkpt lat="43.86837" lon="6.56465">
        <ele>965.2</ele>
        <time>2021-09-18T08:46:46Z</time>
      </trkpt>
      <trkpt lat="43.86838" lon="6.56464">
        <ele>965.3</ele>
        <time>2021-09-18T08:46:47Z</time>
      </trkpt>
      <trkpt lat="43.8684" lon="6.56461">
        <ele>965.5</ele>
        <time>2021-09-18T08:46:49Z</time>
      </trkpt>
      <trkpt lat="43.8684" lon="6.5646">
        <ele>965.5</ele>
        <time>2021-09-18T08:46:50Z</time>
      </trkpt>
      <trkpt lat="43.86841" lon="6.56459">
        <ele>965.6</ele>
        <time>2021-09-18T08:46:52Z</time>
      </trkpt>
      <trkpt lat="43.86841" lon="6.56457">
        <ele>965.6</ele>
        <time>2021-09-18T08:46:53Z</time>
      </trkpt>
      <trkpt lat="43.86842" lon="6.56456">
        <ele>965.7</ele>
        <time>2021-09-18T08:46:54Z</time>
      </trkpt>
      <trkpt lat="43.86843" lon="6.56455">
        <ele>965.8</ele>
        <time>2021-09-18T08:46:55Z</time>
      </trkpt>
      <trkpt lat="43.86843" lon="6.56454">
        <ele>965.8</ele>
        <time>2021-09-18T08:46:56Z</time>
      </trkpt>
      <trkpt lat="43.86844" lon="6.56453">
        <ele>965.9</ele>
        <time>2021-09-18T08:46:57Z</time>
      </trkpt>
      <trkpt lat="43.86845" lon="6.56452">
        <ele>966</ele>
        <time>2021-09-18T08:46:59Z</time>
      </trkpt>
      <trkpt lat="43.86849" lon="6.56447">
        <ele>966.3</ele>
        <time>2021-09-18T08:47:01Z</time>
      </trkpt>
      <trkpt lat="43.8685" lon="6.56445">
        <ele>966.4</ele>
        <time>2021-09-18T08:47:02Z</time>
      </trkpt>
      <trkpt lat="43.8685" lon="6.56443">
        <ele>966.5</ele>
        <time>2021-09-18T08:47:03Z</time>
      </trkpt>
      <trkpt lat="43.86851" lon="6.56442">
        <ele>966.6</ele>
        <time>2021-09-18T08:47:05Z</time>
      </trkpt>
      <trkpt lat="43.86853" lon="6.56439">
        <ele>966.7</ele>
        <time>2021-09-18T08:47:07Z</time>
      </trkpt>
      <trkpt lat="43.86855" lon="6.56436">
        <ele>966.9</ele>
        <time>2021-09-18T08:47:09Z</time>
      </trkpt>
      <trkpt lat="43.86856" lon="6.56435">
        <ele>967</ele>
        <time>2021-09-18T08:47:10Z</time>
      </trkpt>
      <trkpt lat="43.86857" lon="6.56434">
        <ele>967.1</ele>
        <time>2021-09-18T08:47:11Z</time>
      </trkpt>
      <trkpt lat="43.86859" lon="6.56432">
        <ele>967.2</ele>
        <time>2021-09-18T08:47:13Z</time>
      </trkpt>
      <trkpt lat="43.86863" lon="6.56426">
        <ele>967.6</ele>
        <time>2021-09-18T08:47:16Z</time>
      </trkpt>
      <trkpt lat="43.86867" lon="6.56421">
        <ele>968</ele>
        <time>2021-09-18T08:47:18Z</time>
      </trkpt>
      <trkpt lat="43.86871" lon="6.56415">
        <ele>968.4</ele>
        <time>2021-09-18T08:47:19Z</time>
      </trkpt>
      <trkpt lat="43.86873" lon="6.56411">
        <ele>968.7</ele>
        <time>2021-09-18T08:47:20Z</time>
      </trkpt>
      <trkpt lat="43.86873" lon="6.56409">
        <ele>968.8</ele>
        <time>2021-09-18T08:47:21Z</time>
      </trkpt>
      <trkpt lat="43.86875" lon="6.56404">
        <ele>969.1</ele>
        <time>2021-09-18T08:47:22Z</time>
      </trkpt>
      <trkpt lat="43.86877" lon="6.56398">
        <ele>969.5</ele>
        <time>2021-09-18T08:47:24Z</time>
      </trkpt>
      <trkpt lat="43.8688" lon="6.56392">
        <ele>969.9</ele>
        <time>2021-09-18T08:47:26Z</time>
      </trkpt>
      <trkpt lat="43.86882" lon="6.56389">
        <ele>970.2</ele>
        <time>2021-09-18T08:47:27Z</time>
      </trkpt>
      <trkpt lat="43.86884" lon="6.56386">
        <ele>970.4</ele>
        <time>2021-09-18T08:47:28Z</time>
      </trkpt>
      <trkpt lat="43.86886" lon="6.56383">
        <ele>970.7</ele>
        <time>2021-09-18T08:47:30Z</time>
      </trkpt>
      <trkpt lat="43.86888" lon="6.56379">
        <ele>971</ele>
        <time>2021-09-18T08:47:32Z</time>
      </trkpt>
      <trkpt lat="43.86888" lon="6.5638">
        <ele>971</ele>
        <time>2021-09-18T08:47:34Z</time>
      </trkpt>
      <trkpt lat="43.86888" lon="6.5638">
        <ele>971</ele>
        <time>2021-09-18T08:47:35Z</time>
      </trkpt>
      <trkpt lat="43.86888" lon="6.56379">
        <ele>971.1</ele>
        <time>2021-09-18T08:47:36Z</time>
      </trkpt>
      <trkpt lat="43.86889" lon="6.56378">
        <ele>971.1</ele>
        <time>2021-09-18T08:47:37Z</time>
      </trkpt>
      <trkpt lat="43.86889" lon="6.56377">
        <ele>971.2</ele>
        <time>2021-09-18T08:47:39Z</time>
      </trkpt>
      <trkpt lat="43.8689" lon="6.56372">
        <ele>971.5</ele>
        <time>2021-09-18T08:47:41Z</time>
      </trkpt>
      <trkpt lat="43.8689" lon="6.56372">
        <ele>971.5</ele>
        <time>2021-09-18T08:47:41Z</time>
      </trkpt>
      <trkpt lat="43.86892" lon="6.56365">
        <ele>972</ele>
        <time>2021-09-18T08:47:43Z</time>
      </trkpt>
      <trkpt lat="43.86892" lon="6.56362">
        <ele>972.2</ele>
        <time>2021-09-18T08:47:44Z</time>
      </trkpt>
      <trkpt lat="43.86892" lon="6.56359">
        <ele>972.4</ele>
        <time>2021-09-18T08:47:45Z</time>
      </trkpt>
      <trkpt lat="43.86893" lon="6.56352">
        <ele>972.8</ele>
        <time>2021-09-18T08:47:46Z</time>
      </trkpt>
      <trkpt lat="43.86894" lon="6.56346">
        <ele>973.2</ele>
        <time>2021-09-18T08:47:48Z</time>
      </trkpt>
      <trkpt lat="43.86896" lon="6.56342">
        <ele>973.5</ele>
        <time>2021-09-18T08:47:49Z</time>
      </trkpt>
      <trkpt lat="43.86896" lon="6.56341">
        <ele>973.6</ele>
        <time>2021-09-18T08:47:50Z</time>
      </trkpt>
      <trkpt lat="43.86898" lon="6.56334">
        <ele>974</ele>
        <time>2021-09-18T08:47:52Z</time>
      </trkpt>
      <trkpt lat="43.869" lon="6.5633">
        <ele>974.3</ele>
        <time>2021-09-18T08:47:53Z</time>
      </trkpt>
      <trkpt lat="43.86902" lon="6.56325">
        <ele>974.6</ele>
        <time>2021-09-18T08:47:55Z</time>
      </trkpt>
      <trkpt lat="43.86904" lon="6.56321">
        <ele>974.9</ele>
        <time>2021-09-18T08:47:56Z</time>
      </trkpt>
      <trkpt lat="43.86905" lon="6.56318">
        <ele>975.1</ele>
        <time>2021-09-18T08:47:57Z</time>
      </trkpt>
      <trkpt lat="43.86905" lon="6.56316">
        <ele>975.2</ele>
        <time>2021-09-18T08:47:58Z</time>
      </trkpt>
      <trkpt lat="43.86908" lon="6.56312">
        <ele>975.5</ele>
        <time>2021-09-18T08:48:00Z</time>
      </trkpt>
      <trkpt lat="43.86909" lon="6.5631">
        <ele>975.6</ele>
        <time>2021-09-18T08:48:01Z</time>
      </trkpt>
      <trkpt lat="43.8691" lon="6.56305">
        <ele>975.9</ele>
        <time>2021-09-18T08:48:03Z</time>
      </trkpt>
      <trkpt lat="43.86912" lon="6.56303">
        <ele>976.1</ele>
        <time>2021-09-18T08:48:05Z</time>
      </trkpt>
      <trkpt lat="43.86912" lon="6.56303">
        <ele>976.1</ele>
        <time>2021-09-18T08:48:06Z</time>
      </trkpt>
      <trkpt lat="43.86912" lon="6.56303">
        <ele>976.1</ele>
        <time>2021-09-18T08:48:07Z</time>
      </trkpt>
      <trkpt lat="43.86913" lon="6.56303">
        <ele>976.1</ele>
        <time>2021-09-18T08:48:08Z</time>
      </trkpt>
      <trkpt lat="43.86913" lon="6.56302">
        <ele>976.2</ele>
        <time>2021-09-18T08:48:09Z</time>
      </trkpt>
      <trkpt lat="43.86915" lon="6.56301">
        <ele>976.3</ele>
        <time>2021-09-18T08:48:11Z</time>
      </trkpt>
      <trkpt lat="43.86916" lon="6.56298">
        <ele>976.5</ele>
        <time>2021-09-18T08:48:13Z</time>
      </trkpt>
      <trkpt lat="43.8692" lon="6.5629">
        <ele>977.1</ele>
        <time>2021-09-18T08:48:19Z</time>
      </trkpt>
      <trkpt lat="43.86922" lon="6.56284">
        <ele>977.5</ele>
        <time>2021-09-18T08:48:21Z</time>
      </trkpt>
      <trkpt lat="43.86924" lon="6.5628">
        <ele>977.7</ele>
        <time>2021-09-18T08:48:22Z</time>
      </trkpt>
      <trkpt lat="43.86926" lon="6.56277">
        <ele>978</ele>
        <time>2021-09-18T08:48:23Z</time>
      </trkpt>
      <trkpt lat="43.86929" lon="6.56275">
        <ele>978.2</ele>
        <time>2021-09-18T08:48:25Z</time>
      </trkpt>
      <trkpt lat="43.86931" lon="6.56273">
        <ele>978.5</ele>
        <time>2021-09-18T08:48:26Z</time>
      </trkpt>
      <trkpt lat="43.86934" lon="6.56272">
        <ele>978.7</ele>
        <time>2021-09-18T08:48:27Z</time>
      </trkpt>
      <trkpt lat="43.86937" lon="6.56269">
        <ele>979</ele>
        <time>2021-09-18T08:48:28Z</time>
      </trkpt>
      <trkpt lat="43.8694" lon="6.56266">
        <ele>979.3</ele>
        <time>2021-09-18T08:48:29Z</time>
      </trkpt>
      <trkpt lat="43.86942" lon="6.56264">
        <ele>979.5</ele>
        <time>2021-09-18T08:48:31Z</time>
      </trkpt>
      <trkpt lat="43.86942" lon="6.56262">
        <ele>979.6</ele>
        <time>2021-09-18T08:48:32Z</time>
      </trkpt>
      <trkpt lat="43.86944" lon="6.56262">
        <ele>979.7</ele>
        <time>2021-09-18T08:48:34Z</time>
      </trkpt>
      <trkpt lat="43.86943" lon="6.56263">
        <ele>979.8</ele>
        <time>2021-09-18T08:48:35Z</time>
      </trkpt>
      <trkpt lat="43.86944" lon="6.56264">
        <ele>979.9</ele>
        <time>2021-09-18T08:48:37Z</time>
      </trkpt>
      <trkpt lat="43.86944" lon="6.56265">
        <ele>980</ele>
        <time>2021-09-18T08:48:38Z</time>
      </trkpt>
      <trkpt lat="43.86944" lon="6.56265">
        <ele>980</ele>
        <time>2021-09-18T08:48:39Z</time>
      </trkpt>
      <trkpt lat="43.86946" lon="6.56266">
        <ele>980.1</ele>
        <time>2021-09-18T08:48:41Z</time>
      </trkpt>
      <trkpt lat="43.86947" lon="6.56266">
        <ele>980.2</ele>
        <time>2021-09-18T08:48:42Z</time>
      </trkpt>
      <trkpt lat="43.86949" lon="6.56267">
        <ele>980.4</ele>
        <time>2021-09-18T08:48:43Z</time>
      </trkpt>
      <trkpt lat="43.86964" lon="6.56263">
        <ele>981.4</ele>
        <time>2021-09-18T08:48:45Z</time>
      </trkpt>
      <trkpt lat="43.86978" lon="6.56258">
        <ele>982</ele>
        <time>2021-09-18T08:49:08Z</time>
      </trkpt>
      <trkpt lat="43.86991" lon="6.56254">
        <ele>982.4</ele>
        <time>2021-09-18T08:49:09Z</time>
      </trkpt>
      <trkpt lat="43.86995" lon="6.56254">
        <ele>982.5</ele>
        <time>2021-09-18T08:49:11Z</time>
      </trkpt>
      <trkpt lat="43.86998" lon="6.56255">
        <ele>982.5</ele>
        <time>2021-09-18T08:49:12Z</time>
      </trkpt>
      <trkpt lat="43.87003" lon="6.56256">
        <ele>982.7</ele>
        <time>2021-09-18T08:49:14Z</time>
      </trkpt>
      <trkpt lat="43.87007" lon="6.56256">
        <ele>982.8</ele>
        <time>2021-09-18T08:49:15Z</time>
      </trkpt>
      <trkpt lat="43.87012" lon="6.56257">
        <ele>983</ele>
        <time>2021-09-18T08:49:17Z</time>
      </trkpt>
      <trkpt lat="43.87012" lon="6.56257">
        <ele>984.1</ele>
        <time>2021-09-18T08:49:18Z</time>
      </trkpt>
      <trkpt lat="43.87012" lon="6.56258">
        <ele>984.1</ele>
        <time>2021-09-18T08:49:19Z</time>
      </trkpt>
      <trkpt lat="43.87011" lon="6.5626">
        <ele>984.2</ele>
        <time>2021-09-18T08:49:21Z</time>
      </trkpt>
      <trkpt lat="43.87011" lon="6.56265">
        <ele>984.4</ele>
        <time>2021-09-18T08:49:23Z</time>
      </trkpt>
      <trkpt lat="43.87008" lon="6.56267">
        <ele>984.6</ele>
        <time>2021-09-18T08:49:24Z</time>
      </trkpt>
      <trkpt lat="43.87005" lon="6.56269">
        <ele>984.8</ele>
        <time>2021-09-18T08:49:25Z</time>
      </trkpt>
      <trkpt lat="43.87" lon="6.56271">
        <ele>985.2</ele>
        <time>2021-09-18T08:49:27Z</time>
      </trkpt>
      <trkpt lat="43.86998" lon="6.56271">
        <ele>985.3</ele>
        <time>2021-09-18T08:49:28Z</time>
      </trkpt>
      <trkpt lat="43.86997" lon="6.56272">
        <ele>985.4</ele>
        <time>2021-09-18T08:49:29Z</time>
      </trkpt>
      <trkpt lat="43.86995" lon="6.56272">
        <ele>985.5</ele>
        <time>2021-09-18T08:49:30Z</time>
      </trkpt>
      <trkpt lat="43.86991" lon="6.56273">
        <ele>985.8</ele>
        <time>2021-09-18T08:49:32Z</time>
      </trkpt>
      <trkpt lat="43.86988" lon="6.56276">
        <ele>986</ele>
        <time>2021-09-18T08:49:34Z</time>
      </trkpt>
      <trkpt lat="43.86987" lon="6.56279">
        <ele>986.1</ele>
        <time>2021-09-18T08:49:35Z</time>
      </trkpt>
      <trkpt lat="43.86987" lon="6.56278">
        <ele>986.1</ele>
        <time>2021-09-18T08:49:37Z</time>
      </trkpt>
      <trkpt lat="43.86986" lon="6.56279">
        <ele>986.2</ele>
        <time>2021-09-18T08:49:38Z</time>
      </trkpt>
      <trkpt lat="43.86986" lon="6.5628">
        <ele>986.2</ele>
        <time>2021-09-18T08:49:39Z</time>
      </trkpt>
      <trkpt lat="43.86986" lon="6.56281">
        <ele>986.3</ele>
        <time>2021-09-18T08:49:41Z</time>
      </trkpt>
      <trkpt lat="43.86985" lon="6.56282">
        <ele>986.4</ele>
        <time>2021-09-18T08:49:43Z</time>
      </trkpt>
      <trkpt lat="43.86984" lon="6.56283">
        <ele>986.5</ele>
        <time>2021-09-18T08:49:44Z</time>
      </trkpt>
      <trkpt lat="43.86983" lon="6.56284">
        <ele>986.6</ele>
        <time>2021-09-18T08:49:46Z</time>
      </trkpt>
      <trkpt lat="43.86982" lon="6.56285">
        <ele>986.7</ele>
        <time>2021-09-18T08:49:48Z</time>
      </trkpt>
      <trkpt lat="43.86959" lon="6.56309">
        <ele>989.2</ele>
        <time>2021-09-18T08:50:09Z</time>
      </trkpt>
      <trkpt lat="43.86956" lon="6.56315">
        <ele>989.6</ele>
        <time>2021-09-18T08:50:11Z</time>
      </trkpt>
      <trkpt lat="43.86952" lon="6.56321">
        <ele>990</ele>
        <time>2021-09-18T08:50:13Z</time>
      </trkpt>
      <trkpt lat="43.8695" lon="6.56324">
        <ele>990.2</ele>
        <time>2021-09-18T08:50:14Z</time>
      </trkpt>
      <trkpt lat="43.86949" lon="6.56325">
        <ele>990.3</ele>
        <time>2021-09-18T08:50:15Z</time>
      </trkpt>
      <trkpt lat="43.86948" lon="6.56327">
        <ele>990.4</ele>
        <time>2021-09-18T08:50:16Z</time>
      </trkpt>
      <trkpt lat="43.86946" lon="6.56329">
        <ele>990.6</ele>
        <time>2021-09-18T08:50:17Z</time>
      </trkpt>
      <trkpt lat="43.86945" lon="6.56331">
        <ele>990.7</ele>
        <time>2021-09-18T08:50:18Z</time>
      </trkpt>
      <trkpt lat="43.86943" lon="6.56335">
        <ele>990.9</ele>
        <time>2021-09-18T08:50:19Z</time>
      </trkpt>
      <trkpt lat="43.86941" lon="6.56339">
        <ele>991.1</ele>
        <time>2021-09-18T08:50:21Z</time>
      </trkpt>
      <trkpt lat="43.86939" lon="6.56343">
        <ele>991.4</ele>
        <time>2021-09-18T08:50:23Z</time>
      </trkpt>
      <trkpt lat="43.86937" lon="6.56348">
        <ele>991.6</ele>
        <time>2021-09-18T08:50:25Z</time>
      </trkpt>
      <trkpt lat="43.86937" lon="6.56354">
        <ele>991.9</ele>
        <time>2021-09-18T08:50:26Z</time>
      </trkpt>
      <trkpt lat="43.86936" lon="6.56357">
        <ele>992</ele>
        <time>2021-09-18T08:50:27Z</time>
      </trkpt>
      <trkpt lat="43.86935" lon="6.56364">
        <ele>992.4</ele>
        <time>2021-09-18T08:50:29Z</time>
      </trkpt>
      <trkpt lat="43.86934" lon="6.56367">
        <ele>992.5</ele>
        <time>2021-09-18T08:50:30Z</time>
      </trkpt>
      <trkpt lat="43.86933" lon="6.5637">
        <ele>992.7</ele>
        <time>2021-09-18T08:50:32Z</time>
      </trkpt>
      <trkpt lat="43.86932" lon="6.56373">
        <ele>992.8</ele>
        <time>2021-09-18T08:50:33Z</time>
      </trkpt>
      <trkpt lat="43.86931" lon="6.56374">
        <ele>992.9</ele>
        <time>2021-09-18T08:50:34Z</time>
      </trkpt>
      <trkpt lat="43.86931" lon="6.56375">
        <ele>992.9</ele>
        <time>2021-09-18T08:50:36Z</time>
      </trkpt>
      <trkpt lat="43.8693" lon="6.56377">
        <ele>993</ele>
        <time>2021-09-18T08:50:37Z</time>
      </trkpt>
      <trkpt lat="43.8693" lon="6.56379">
        <ele>993.1</ele>
        <time>2021-09-18T08:50:38Z</time>
      </trkpt>
      <trkpt lat="43.86929" lon="6.5638">
        <ele>993.2</ele>
        <time>2021-09-18T08:50:40Z</time>
      </trkpt>
      <trkpt lat="43.86928" lon="6.56382">
        <ele>993.3</ele>
        <time>2021-09-18T08:50:42Z</time>
      </trkpt>
      <trkpt lat="43.86928" lon="6.56384">
        <ele>993.3</ele>
        <time>2021-09-18T08:50:43Z</time>
      </trkpt>
      <trkpt lat="43.86927" lon="6.56387">
        <ele>993.5</ele>
        <time>2021-09-18T08:50:44Z</time>
      </trkpt>
      <trkpt lat="43.86927" lon="6.56391">
        <ele>993.7</ele>
        <time>2021-09-18T08:50:46Z</time>
      </trkpt>
      <trkpt lat="43.86927" lon="6.56394">
        <ele>993.8</ele>
        <time>2021-09-18T08:50:47Z</time>
      </trkpt>
      <trkpt lat="43.86927" lon="6.56396">
        <ele>993.9</ele>
        <time>2021-09-18T08:50:48Z</time>
      </trkpt>
      <trkpt lat="43.86927" lon="6.56399">
        <ele>993.9</ele>
        <time>2021-09-18T08:50:49Z</time>
      </trkpt>
      <trkpt lat="43.86927" lon="6.56402">
        <ele>994.1</ele>
        <time>2021-09-18T08:50:51Z</time>
      </trkpt>
      <trkpt lat="43.86927" lon="6.56404">
        <ele>994.2</ele>
        <time>2021-09-18T08:50:53Z</time>
      </trkpt>
      <trkpt lat="43.86927" lon="6.5641">
        <ele>994.4</ele>
        <time>2021-09-18T08:50:55Z</time>
      </trkpt>
      <trkpt lat="43.86927" lon="6.56415">
        <ele>994.6</ele>
        <time>2021-09-18T08:50:56Z</time>
      </trkpt>
      <trkpt lat="43.86928" lon="6.56419">
        <ele>994.7</ele>
        <time>2021-09-18T08:50:57Z</time>
      </trkpt>
      <trkpt lat="43.86927" lon="6.56424">
        <ele>994.9</ele>
        <time>2021-09-18T08:50:59Z</time>
      </trkpt>
      <trkpt lat="43.86927" lon="6.56429">
        <ele>995.1</ele>
        <time>2021-09-18T08:51:00Z</time>
      </trkpt>
      <trkpt lat="43.86927" lon="6.56434">
        <ele>995.3</ele>
        <time>2021-09-18T08:51:02Z</time>
      </trkpt>
      <trkpt lat="43.86926" lon="6.56439">
        <ele>995.5</ele>
        <time>2021-09-18T08:51:03Z</time>
      </trkpt>
      <trkpt lat="43.86926" lon="6.56443">
        <ele>995.6</ele>
        <time>2021-09-18T08:51:05Z</time>
      </trkpt>
      <trkpt lat="43.86926" lon="6.56447">
        <ele>995.8</ele>
        <time>2021-09-18T08:51:06Z</time>
      </trkpt>
      <trkpt lat="43.86926" lon="6.56451">
        <ele>995.9</ele>
        <time>2021-09-18T08:51:08Z</time>
      </trkpt>
      <trkpt lat="43.86926" lon="6.56456">
        <ele>996.1</ele>
        <time>2021-09-18T08:51:10Z</time>
      </trkpt>
      <trkpt lat="43.86925" lon="6.5646">
        <ele>996.3</ele>
        <time>2021-09-18T08:51:12Z</time>
      </trkpt>
      <trkpt lat="43.86924" lon="6.56463">
        <ele>996.4</ele>
        <time>2021-09-18T08:51:13Z</time>
      </trkpt>
      <trkpt lat="43.86924" lon="6.56462">
        <ele>996.4</ele>
        <time>2021-09-18T08:51:14Z</time>
      </trkpt>
      <trkpt lat="43.86923" lon="6.56465">
        <ele>996.5</ele>
        <time>2021-09-18T08:51:16Z</time>
      </trkpt>
      <trkpt lat="43.86921" lon="6.56466">
        <ele>996.6</ele>
        <time>2021-09-18T08:51:17Z</time>
      </trkpt>
      <trkpt lat="43.86921" lon="6.56468">
        <ele>996.6</ele>
        <time>2021-09-18T08:51:18Z</time>
      </trkpt>
      <trkpt lat="43.8692" lon="6.56468">
        <ele>996.7</ele>
        <time>2021-09-18T08:51:19Z</time>
      </trkpt>
      <trkpt lat="43.8692" lon="6.56469">
        <ele>996.7</ele>
        <time>2021-09-18T08:51:21Z</time>
      </trkpt>
      <trkpt lat="43.8692" lon="6.56469">
        <ele>996.8</ele>
        <time>2021-09-18T08:51:23Z</time>
      </trkpt>
      <trkpt lat="43.86919" lon="6.56471">
        <ele>996.8</ele>
        <time>2021-09-18T08:51:25Z</time>
      </trkpt>
      <trkpt lat="43.86919" lon="6.56475">
        <ele>997</ele>
        <time>2021-09-18T08:51:27Z</time>
      </trkpt>
      <trkpt lat="43.8692" lon="6.56477">
        <ele>997.1</ele>
        <time>2021-09-18T08:51:28Z</time>
      </trkpt>
      <trkpt lat="43.86921" lon="6.56479">
        <ele>997.2</ele>
        <time>2021-09-18T08:51:29Z</time>
      </trkpt>
      <trkpt lat="43.86923" lon="6.56483">
        <ele>997.4</ele>
        <time>2021-09-18T08:51:31Z</time>
      </trkpt>
      <trkpt lat="43.86923" lon="6.56484">
        <ele>997.5</ele>
        <time>2021-09-18T08:51:32Z</time>
      </trkpt>
      <trkpt lat="43.86924" lon="6.56485">
        <ele>997.5</ele>
        <time>2021-09-18T08:51:33Z</time>
      </trkpt>
      <trkpt lat="43.86925" lon="6.56488">
        <ele>997.7</ele>
        <time>2021-09-18T08:51:34Z</time>
      </trkpt>
      <trkpt lat="43.86925" lon="6.56492">
        <ele>997.9</ele>
        <time>2021-09-18T08:51:36Z</time>
      </trkpt>
      <trkpt lat="43.86925" lon="6.56494">
        <ele>998</ele>
        <time>2021-09-18T08:51:37Z</time>
      </trkpt>
      <trkpt lat="43.86925" lon="6.565">
        <ele>998.3</ele>
        <time>2021-09-18T08:51:39Z</time>
      </trkpt>
      <trkpt lat="43.86925" lon="6.56502">
        <ele>998.4</ele>
        <time>2021-09-18T08:51:40Z</time>
      </trkpt>
      <trkpt lat="43.86924" lon="6.56504">
        <ele>998.5</ele>
        <time>2021-09-18T08:51:41Z</time>
      </trkpt>
      <trkpt lat="43.86924" lon="6.56507">
        <ele>998.7</ele>
        <time>2021-09-18T08:51:42Z</time>
      </trkpt>
      <trkpt lat="43.86923" lon="6.5651">
        <ele>998.9</ele>
        <time>2021-09-18T08:51:44Z</time>
      </trkpt>
      <trkpt lat="43.86923" lon="6.56514">
        <ele>999.1</ele>
        <time>2021-09-18T08:51:45Z</time>
      </trkpt>
      <trkpt lat="43.86923" lon="6.56518">
        <ele>999.3</ele>
        <time>2021-09-18T08:51:47Z</time>
      </trkpt>
      <trkpt lat="43.86923" lon="6.56522">
        <ele>999.6</ele>
        <time>2021-09-18T08:51:49Z</time>
      </trkpt>
      <trkpt lat="43.86924" lon="6.56525">
        <ele>999.8</ele>
        <time>2021-09-18T08:51:50Z</time>
      </trkpt>
      <trkpt lat="43.86922" lon="6.56526">
        <ele>1000</ele>
        <time>2021-09-18T08:51:51Z</time>
      </trkpt>
      <trkpt lat="43.8692" lon="6.56531">
        <ele>1000.4</ele>
        <time>2021-09-18T08:51:53Z</time>
      </trkpt>
      <trkpt lat="43.8692" lon="6.56533">
        <ele>1000.5</ele>
        <time>2021-09-18T08:51:54Z</time>
      </trkpt>
      <trkpt lat="43.8692" lon="6.56537">
        <ele>1000.8</ele>
        <time>2021-09-18T08:51:56Z</time>
      </trkpt>
      <trkpt lat="43.86919" lon="6.5654">
        <ele>1001</ele>
        <time>2021-09-18T08:51:57Z</time>
      </trkpt>
      <trkpt lat="43.86917" lon="6.5654">
        <ele>1001.2</ele>
        <time>2021-09-18T08:51:58Z</time>
      </trkpt>
      <trkpt lat="43.86914" lon="6.5654">
        <ele>1001.5</ele>
        <time>2021-09-18T08:52:00Z</time>
      </trkpt>
      <trkpt lat="43.86913" lon="6.5654">
        <ele>1001.6</ele>
        <time>2021-09-18T08:52:01Z</time>
      </trkpt>
      <trkpt lat="43.86912" lon="6.5654">
        <ele>1001.8</ele>
        <time>2021-09-18T08:52:02Z</time>
      </trkpt>
      <trkpt lat="43.8691" lon="6.5654">
        <ele>1001.9</ele>
        <time>2021-09-18T08:52:03Z</time>
      </trkpt>
      <trkpt lat="43.86909" lon="6.56541">
        <ele>1002.1</ele>
        <time>2021-09-18T08:52:05Z</time>
      </trkpt>
      <trkpt lat="43.86908" lon="6.56544">
        <ele>1002.3</ele>
        <time>2021-09-18T08:52:06Z</time>
      </trkpt>
      <trkpt lat="43.86906" lon="6.56549">
        <ele>1002.7</ele>
        <time>2021-09-18T08:52:08Z</time>
      </trkpt>
      <trkpt lat="43.86905" lon="6.56551">
        <ele>1002.8</ele>
        <time>2021-09-18T08:52:09Z</time>
      </trkpt>
      <trkpt lat="43.86905" lon="6.56552">
        <ele>1002.9</ele>
        <time>2021-09-18T08:52:10Z</time>
      </trkpt>
      <trkpt lat="43.86903" lon="6.56554">
        <ele>1003.1</ele>
        <time>2021-09-18T08:52:12Z</time>
      </trkpt>
      <trkpt lat="43.86902" lon="6.56556">
        <ele>1003.3</ele>
        <time>2021-09-18T08:52:14Z</time>
      </trkpt>
      <trkpt lat="43.86901" lon="6.56557">
        <ele>1003.4</ele>
        <time>2021-09-18T08:52:15Z</time>
      </trkpt>
      <trkpt lat="43.86901" lon="6.56558">
        <ele>1003.5</ele>
        <time>2021-09-18T08:52:17Z</time>
      </trkpt>
      <trkpt lat="43.869" lon="6.56558">
        <ele>1003.5</ele>
        <time>2021-09-18T08:52:18Z</time>
      </trkpt>
      <trkpt lat="43.869" lon="6.56558">
        <ele>1003.5</ele>
        <time>2021-09-18T08:52:19Z</time>
      </trkpt>
      <trkpt lat="43.869" lon="6.56558">
        <ele>1003.5</ele>
        <time>2021-09-18T08:52:20Z</time>
      </trkpt>
      <trkpt lat="43.86899" lon="6.56559">
        <ele>1003.6</ele>
        <time>2021-09-18T08:52:22Z</time>
      </trkpt>
      <trkpt lat="43.86898" lon="6.56559">
        <ele>1003.7</ele>
        <time>2021-09-18T08:52:23Z</time>
      </trkpt>
      <trkpt lat="43.86897" lon="6.5656">
        <ele>1003.8</ele>
        <time>2021-09-18T08:52:24Z</time>
      </trkpt>
      <trkpt lat="43.86895" lon="6.5656">
        <ele>1003.9</ele>
        <time>2021-09-18T08:52:25Z</time>
      </trkpt>
      <trkpt lat="43.86889" lon="6.56561">
        <ele>1004.4</ele>
        <time>2021-09-18T08:52:30Z</time>
      </trkpt>
      <trkpt lat="43.86888" lon="6.5656">
        <ele>1004.5</ele>
        <time>2021-09-18T08:52:31Z</time>
      </trkpt>
      <trkpt lat="43.86884" lon="6.56557">
        <ele>1004.8</ele>
        <time>2021-09-18T08:52:33Z</time>
      </trkpt>
      <trkpt lat="43.8688" lon="6.56555">
        <ele>1005.1</ele>
        <time>2021-09-18T08:52:34Z</time>
      </trkpt>
      <trkpt lat="43.86878" lon="6.56555">
        <ele>1005.2</ele>
        <time>2021-09-18T08:52:35Z</time>
      </trkpt>
      <trkpt lat="43.86875" lon="6.56556">
        <ele>1005.5</ele>
        <time>2021-09-18T08:52:37Z</time>
      </trkpt>
      <trkpt lat="43.86874" lon="6.56557">
        <ele>1005.5</ele>
        <time>2021-09-18T08:52:38Z</time>
      </trkpt>
      <trkpt lat="43.86873" lon="6.56558">
        <ele>1005.7</ele>
        <time>2021-09-18T08:52:39Z</time>
      </trkpt>
      <trkpt lat="43.8687" lon="6.56564">
        <ele>1006</ele>
        <time>2021-09-18T08:52:41Z</time>
      </trkpt>
      <trkpt lat="43.86869" lon="6.56566">
        <ele>1006.1</ele>
        <time>2021-09-18T08:52:43Z</time>
      </trkpt>
      <trkpt lat="43.86868" lon="6.56567">
        <ele>1006.2</ele>
        <time>2021-09-18T08:52:44Z</time>
      </trkpt>
      <trkpt lat="43.86867" lon="6.56569">
        <ele>1006.3</ele>
        <time>2021-09-18T08:52:45Z</time>
      </trkpt>
      <trkpt lat="43.86864" lon="6.56576">
        <ele>1006.8</ele>
        <time>2021-09-18T08:52:46Z</time>
      </trkpt>
      <trkpt lat="43.86862" lon="6.56582">
        <ele>1007.2</ele>
        <time>2021-09-18T08:52:48Z</time>
      </trkpt>
      <trkpt lat="43.86858" lon="6.56587">
        <ele>1007.6</ele>
        <time>2021-09-18T08:52:50Z</time>
      </trkpt>
      <trkpt lat="43.86854" lon="6.56591">
        <ele>1008</ele>
        <time>2021-09-18T08:52:52Z</time>
      </trkpt>
      <trkpt lat="43.8685" lon="6.56595">
        <ele>1008.4</ele>
        <time>2021-09-18T08:52:54Z</time>
      </trkpt>
      <trkpt lat="43.86848" lon="6.56596">
        <ele>1008.5</ele>
        <time>2021-09-18T08:52:56Z</time>
      </trkpt>
      <trkpt lat="43.86846" lon="6.56596">
        <ele>1008.7</ele>
        <time>2021-09-18T08:52:58Z</time>
      </trkpt>
      <trkpt lat="43.86844" lon="6.56596">
        <ele>1008.8</ele>
        <time>2021-09-18T08:52:59Z</time>
      </trkpt>
      <trkpt lat="43.86842" lon="6.56597">
        <ele>1009</ele>
        <time>2021-09-18T08:53:00Z</time>
      </trkpt>
      <trkpt lat="43.8684" lon="6.56598">
        <ele>1009.2</ele>
        <time>2021-09-18T08:53:01Z</time>
      </trkpt>
      <trkpt lat="43.86836" lon="6.56599">
        <ele>1009.4</ele>
        <time>2021-09-18T08:53:03Z</time>
      </trkpt>
      <trkpt lat="43.86834" lon="6.56599">
        <ele>1009.6</ele>
        <time>2021-09-18T08:53:04Z</time>
      </trkpt>
      <trkpt lat="43.8683" lon="6.56598">
        <ele>1009.8</ele>
        <time>2021-09-18T08:53:06Z</time>
      </trkpt>
      <trkpt lat="43.86829" lon="6.56598">
        <ele>1009.9</ele>
        <time>2021-09-18T08:53:07Z</time>
      </trkpt>
      <trkpt lat="43.86826" lon="6.56598">
        <ele>1010.1</ele>
        <time>2021-09-18T08:53:09Z</time>
      </trkpt>
      <trkpt lat="43.86825" lon="6.56598">
        <ele>1010.2</ele>
        <time>2021-09-18T08:53:10Z</time>
      </trkpt>
      <trkpt lat="43.86823" lon="6.56598">
        <ele>1010.3</ele>
        <time>2021-09-18T08:53:11Z</time>
      </trkpt>
      <trkpt lat="43.86821" lon="6.56599">
        <ele>1010.4</ele>
        <time>2021-09-18T08:53:12Z</time>
      </trkpt>
      <trkpt lat="43.86818" lon="6.56601">
        <ele>1010.6</ele>
        <time>2021-09-18T08:53:14Z</time>
      </trkpt>
      <trkpt lat="43.86817" lon="6.56604">
        <ele>1010.7</ele>
        <time>2021-09-18T08:53:16Z</time>
      </trkpt>
      <trkpt lat="43.86814" lon="6.56607">
        <ele>1010.9</ele>
        <time>2021-09-18T08:53:18Z</time>
      </trkpt>
      <trkpt lat="43.86812" lon="6.56612">
        <ele>1011.1</ele>
        <time>2021-09-18T08:53:19Z</time>
      </trkpt>
      <trkpt lat="43.8681" lon="6.56615">
        <ele>1011.3</ele>
        <time>2021-09-18T08:53:20Z</time>
      </trkpt>
      <trkpt lat="43.86808" lon="6.5662">
        <ele>1011.5</ele>
        <time>2021-09-18T08:53:22Z</time>
      </trkpt>
      <trkpt lat="43.86806" lon="6.56622">
        <ele>1011.6</ele>
        <time>2021-09-18T08:53:23Z</time>
      </trkpt>
      <trkpt lat="43.86804" lon="6.56623">
        <ele>1011.7</ele>
        <time>2021-09-18T08:53:24Z</time>
      </trkpt>
      <trkpt lat="43.86803" lon="6.56624">
        <ele>1011.8</ele>
        <time>2021-09-18T08:53:26Z</time>
      </trkpt>
      <trkpt lat="43.86802" lon="6.56624">
        <ele>1011.8</ele>
        <time>2021-09-18T08:53:27Z</time>
      </trkpt>
      <trkpt lat="43.868" lon="6.56623">
        <ele>1011.9</ele>
        <time>2021-09-18T08:53:28Z</time>
      </trkpt>
      <trkpt lat="43.86799" lon="6.56621">
        <ele>1012.1</ele>
        <time>2021-09-18T08:53:29Z</time>
      </trkpt>
      <trkpt lat="43.86797" lon="6.56619">
        <ele>1012.1</ele>
        <time>2021-09-18T08:53:30Z</time>
      </trkpt>
      <trkpt lat="43.86795" lon="6.56619">
        <ele>1012.3</ele>
        <time>2021-09-18T08:53:31Z</time>
      </trkpt>
      <trkpt lat="43.86794" lon="6.56618">
        <ele>1012.3</ele>
        <time>2021-09-18T08:53:32Z</time>
      </trkpt>
      <trkpt lat="43.86791" lon="6.5662">
        <ele>1012.5</ele>
        <time>2021-09-18T08:53:34Z</time>
      </trkpt>
      <trkpt lat="43.86788" lon="6.56623">
        <ele>1012.7</ele>
        <time>2021-09-18T08:53:36Z</time>
      </trkpt>
      <trkpt lat="43.86786" lon="6.56624">
        <ele>1012.8</ele>
        <time>2021-09-18T08:53:37Z</time>
      </trkpt>
      <trkpt lat="43.86783" lon="6.56624">
        <ele>1013</ele>
        <time>2021-09-18T08:53:39Z</time>
      </trkpt>
      <trkpt lat="43.86782" lon="6.56624">
        <ele>1013.1</ele>
        <time>2021-09-18T08:53:40Z</time>
      </trkpt>
      <trkpt lat="43.8678" lon="6.56626">
        <ele>1013.3</ele>
        <time>2021-09-18T08:53:42Z</time>
      </trkpt>
      <trkpt lat="43.86776" lon="6.56629">
        <ele>1013.5</ele>
        <time>2021-09-18T08:53:44Z</time>
      </trkpt>
      <trkpt lat="43.86774" lon="6.56633">
        <ele>1013.7</ele>
        <time>2021-09-18T08:53:45Z</time>
      </trkpt>
      <trkpt lat="43.86774" lon="6.56634">
        <ele>1013.8</ele>
        <time>2021-09-18T08:53:46Z</time>
      </trkpt>
      <trkpt lat="43.86772" lon="6.56639">
        <ele>1014.2</ele>
        <time>2021-09-18T08:53:48Z</time>
      </trkpt>
      <trkpt lat="43.8677" lon="6.56642">
        <ele>1014.4</ele>
        <time>2021-09-18T08:53:49Z</time>
      </trkpt>
      <trkpt lat="43.86768" lon="6.56646">
        <ele>1014.7</ele>
        <time>2021-09-18T08:53:51Z</time>
      </trkpt>
      <trkpt lat="43.86767" lon="6.5665">
        <ele>1014.9</ele>
        <time>2021-09-18T08:53:52Z</time>
      </trkpt>
      <trkpt lat="43.86767" lon="6.56654">
        <ele>1015.2</ele>
        <time>2021-09-18T08:53:53Z</time>
      </trkpt>
      <trkpt lat="43.86767" lon="6.5666">
        <ele>1015.5</ele>
        <time>2021-09-18T08:53:55Z</time>
      </trkpt>
      <trkpt lat="43.86767" lon="6.56666">
        <ele>1015.8</ele>
        <time>2021-09-18T08:53:56Z</time>
      </trkpt>
      <trkpt lat="43.86767" lon="6.56672">
        <ele>1016.1</ele>
        <time>2021-09-18T08:53:57Z</time>
      </trkpt>
      <trkpt lat="43.86767" lon="6.56675">
        <ele>1016.2</ele>
        <time>2021-09-18T08:53:58Z</time>
      </trkpt>
      <trkpt lat="43.86767" lon="6.5668">
        <ele>1016.5</ele>
        <time>2021-09-18T08:53:59Z</time>
      </trkpt>
      <trkpt lat="43.86767" lon="6.56682">
        <ele>1016.6</ele>
        <time>2021-09-18T08:54:00Z</time>
      </trkpt>
      <trkpt lat="43.86767" lon="6.56686">
        <ele>1016.8</ele>
        <time>2021-09-18T08:54:01Z</time>
      </trkpt>
      <trkpt lat="43.86767" lon="6.5669">
        <ele>1017</ele>
        <time>2021-09-18T08:54:03Z</time>
      </trkpt>
      <trkpt lat="43.86766" lon="6.56696">
        <ele>1017.3</ele>
        <time>2021-09-18T08:54:04Z</time>
      </trkpt>
      <trkpt lat="43.86766" lon="6.567">
        <ele>1017.5</ele>
        <time>2021-09-18T08:54:05Z</time>
      </trkpt>
      <trkpt lat="43.86765" lon="6.56705">
        <ele>1017.7</ele>
        <time>2021-09-18T08:54:07Z</time>
      </trkpt>
      <trkpt lat="43.86765" lon="6.56709">
        <ele>1017.9</ele>
        <time>2021-09-18T08:54:08Z</time>
      </trkpt>
      <trkpt lat="43.86765" lon="6.56713">
        <ele>1018.1</ele>
        <time>2021-09-18T08:54:10Z</time>
      </trkpt>
      <trkpt lat="43.86765" lon="6.56715">
        <ele>1018.2</ele>
        <time>2021-09-18T08:54:11Z</time>
      </trkpt>
      <trkpt lat="43.86765" lon="6.56717">
        <ele>1018.3</ele>
        <time>2021-09-18T08:54:12Z</time>
      </trkpt>
      <trkpt lat="43.86766" lon="6.56718">
        <ele>1018.4</ele>
        <time>2021-09-18T08:54:13Z</time>
      </trkpt>
      <trkpt lat="43.86766" lon="6.56719">
        <ele>1018.4</ele>
        <time>2021-09-18T08:54:14Z</time>
      </trkpt>
      <trkpt lat="43.86767" lon="6.56719">
        <ele>1018.5</ele>
        <time>2021-09-18T08:54:16Z</time>
      </trkpt>
      <trkpt lat="43.86767" lon="6.5672">
        <ele>1018.6</ele>
        <time>2021-09-18T08:54:17Z</time>
      </trkpt>
      <trkpt lat="43.86767" lon="6.56722">
        <ele>1018.7</ele>
        <time>2021-09-18T08:54:18Z</time>
      </trkpt>
      <trkpt lat="43.86766" lon="6.56724">
        <ele>1018.8</ele>
        <time>2021-09-18T08:54:19Z</time>
      </trkpt>
      <trkpt lat="43.86766" lon="6.56726">
        <ele>1018.9</ele>
        <time>2021-09-18T08:54:21Z</time>
      </trkpt>
      <trkpt lat="43.86766" lon="6.56728">
        <ele>1019</ele>
        <time>2021-09-18T08:54:22Z</time>
      </trkpt>
      <trkpt lat="43.86765" lon="6.56732">
        <ele>1019.2</ele>
        <time>2021-09-18T08:54:24Z</time>
      </trkpt>
      <trkpt lat="43.86764" lon="6.56734">
        <ele>1019.4</ele>
        <time>2021-09-18T08:54:25Z</time>
      </trkpt>
      <trkpt lat="43.86764" lon="6.56737">
        <ele>1019.6</ele>
        <time>2021-09-18T08:54:27Z</time>
      </trkpt>
      <trkpt lat="43.86763" lon="6.5674">
        <ele>1019.7</ele>
        <time>2021-09-18T08:54:28Z</time>
      </trkpt>
      <trkpt lat="43.86763" lon="6.56744">
        <ele>1020</ele>
        <time>2021-09-18T08:54:30Z</time>
      </trkpt>
      <trkpt lat="43.86763" lon="6.56748">
        <ele>1020.2</ele>
        <time>2021-09-18T08:54:31Z</time>
      </trkpt>
      <trkpt lat="43.86762" lon="6.56753">
        <ele>1020.6</ele>
        <time>2021-09-18T08:54:33Z</time>
      </trkpt>
      <trkpt lat="43.86761" lon="6.56759">
        <ele>1021</ele>
        <time>2021-09-18T08:54:34Z</time>
      </trkpt>
      <trkpt lat="43.86761" lon="6.5676">
        <ele>1021.1</ele>
        <time>2021-09-18T08:54:35Z</time>
      </trkpt>
      <trkpt lat="43.8676" lon="6.56764">
        <ele>1021.4</ele>
        <time>2021-09-18T08:54:37Z</time>
      </trkpt>
      <trkpt lat="43.8676" lon="6.56768">
        <ele>1021.7</ele>
        <time>2021-09-18T08:54:38Z</time>
      </trkpt>
      <trkpt lat="43.86759" lon="6.56772">
        <ele>1022</ele>
        <time>2021-09-18T08:54:40Z</time>
      </trkpt>
      <trkpt lat="43.86759" lon="6.56775">
        <ele>1022.3</ele>
        <time>2021-09-18T08:54:41Z</time>
      </trkpt>
      <trkpt lat="43.86759" lon="6.5678">
        <ele>1022.6</ele>
        <time>2021-09-18T08:54:43Z</time>
      </trkpt>
      <trkpt lat="43.86759" lon="6.56783">
        <ele>1022.8</ele>
        <time>2021-09-18T08:54:44Z</time>
      </trkpt>
      <trkpt lat="43.86758" lon="6.56786">
        <ele>1023.1</ele>
        <time>2021-09-18T08:54:46Z</time>
      </trkpt>
      <trkpt lat="43.86757" lon="6.5679">
        <ele>1023.3</ele>
        <time>2021-09-18T08:54:48Z</time>
      </trkpt>
      <trkpt lat="43.86756" lon="6.56793">
        <ele>1023.6</ele>
        <time>2021-09-18T08:54:50Z</time>
      </trkpt>
      <trkpt lat="43.86756" lon="6.56799">
        <ele>1024</ele>
        <time>2021-09-18T08:54:52Z</time>
      </trkpt>
      <trkpt lat="43.86756" lon="6.56802">
        <ele>1024.2</ele>
        <time>2021-09-18T08:54:54Z</time>
      </trkpt>
      <trkpt lat="43.86756" lon="6.56804">
        <ele>1024.4</ele>
        <time>2021-09-18T08:54:56Z</time>
      </trkpt>
      <trkpt lat="43.86756" lon="6.56807">
        <ele>1024.5</ele>
        <time>2021-09-18T08:54:57Z</time>
      </trkpt>
      <trkpt lat="43.86756" lon="6.56809">
        <ele>1024.7</ele>
        <time>2021-09-18T08:54:59Z</time>
      </trkpt>
      <trkpt lat="43.86756" lon="6.56811">
        <ele>1024.9</ele>
        <time>2021-09-18T08:55:00Z</time>
      </trkpt>
      <trkpt lat="43.86757" lon="6.56813">
        <ele>1025</ele>
        <time>2021-09-18T08:55:02Z</time>
      </trkpt>
      <trkpt lat="43.86758" lon="6.56816">
        <ele>1025.2</ele>
        <time>2021-09-18T08:55:04Z</time>
      </trkpt>
      <trkpt lat="43.86758" lon="6.56819">
        <ele>1025.4</ele>
        <time>2021-09-18T08:55:05Z</time>
      </trkpt>
      <trkpt lat="43.86759" lon="6.56822">
        <ele>1025.6</ele>
        <time>2021-09-18T08:55:07Z</time>
      </trkpt>
      <trkpt lat="43.86759" lon="6.56824">
        <ele>1025.7</ele>
        <time>2021-09-18T08:55:08Z</time>
      </trkpt>
      <trkpt lat="43.86758" lon="6.56825">
        <ele>1025.8</ele>
        <time>2021-09-18T08:55:09Z</time>
      </trkpt>
      <trkpt lat="43.86759" lon="6.56829">
        <ele>1026.1</ele>
        <time>2021-09-18T08:55:11Z</time>
      </trkpt>
      <trkpt lat="43.86759" lon="6.56834">
        <ele>1026.4</ele>
        <time>2021-09-18T08:55:12Z</time>
      </trkpt>
      <trkpt lat="43.86758" lon="6.56836">
        <ele>1026.5</ele>
        <time>2021-09-18T08:55:13Z</time>
      </trkpt>
      <trkpt lat="43.86758" lon="6.5684">
        <ele>1026.7</ele>
        <time>2021-09-18T08:55:15Z</time>
      </trkpt>
      <trkpt lat="43.86758" lon="6.56844">
        <ele>1027</ele>
        <time>2021-09-18T08:55:16Z</time>
      </trkpt>
      <trkpt lat="43.86758" lon="6.56848">
        <ele>1027.2</ele>
        <time>2021-09-18T08:55:17Z</time>
      </trkpt>
      <trkpt lat="43.86758" lon="6.56852">
        <ele>1027.4</ele>
        <time>2021-09-18T08:55:19Z</time>
      </trkpt>
      <trkpt lat="43.86759" lon="6.56855">
        <ele>1027.6</ele>
        <time>2021-09-18T08:55:20Z</time>
      </trkpt>
      <trkpt lat="43.86761" lon="6.56861">
        <ele>1027.9</ele>
        <time>2021-09-18T08:55:22Z</time>
      </trkpt>
      <trkpt lat="43.86763" lon="6.56864">
        <ele>1028</ele>
        <time>2021-09-18T08:55:23Z</time>
      </trkpt>
      <trkpt lat="43.86764" lon="6.56867">
        <ele>1028.2</ele>
        <time>2021-09-18T08:55:25Z</time>
      </trkpt>
      <trkpt lat="43.86767" lon="6.56871">
        <ele>1028.4</ele>
        <time>2021-09-18T08:55:26Z</time>
      </trkpt>
      <trkpt lat="43.86767" lon="6.56872">
        <ele>1028.5</ele>
        <time>2021-09-18T08:55:27Z</time>
      </trkpt>
      <trkpt lat="43.86768" lon="6.56876">
        <ele>1028.7</ele>
        <time>2021-09-18T08:55:29Z</time>
      </trkpt>
      <trkpt lat="43.86768" lon="6.56878">
        <ele>1028.7</ele>
        <time>2021-09-18T08:55:30Z</time>
      </trkpt>
      <trkpt lat="43.86768" lon="6.5688">
        <ele>1028.8</ele>
        <time>2021-09-18T08:55:32Z</time>
      </trkpt>
      <trkpt lat="43.86768" lon="6.56883">
        <ele>1028.9</ele>
        <time>2021-09-18T08:55:34Z</time>
      </trkpt>
      <trkpt lat="43.86768" lon="6.56885">
        <ele>1028.9</ele>
        <time>2021-09-18T08:55:35Z</time>
      </trkpt>
      <trkpt lat="43.86766" lon="6.56888">
        <ele>1029.1</ele>
        <time>2021-09-18T08:55:37Z</time>
      </trkpt>
      <trkpt lat="43.86766" lon="6.56891">
        <ele>1029.1</ele>
        <time>2021-09-18T08:55:38Z</time>
      </trkpt>
      <trkpt lat="43.86765" lon="6.56892">
        <ele>1029.2</ele>
        <time>2021-09-18T08:55:40Z</time>
      </trkpt>
      <trkpt lat="43.86765" lon="6.56893">
        <ele>1029.2</ele>
        <time>2021-09-18T08:55:41Z</time>
      </trkpt>
      <trkpt lat="43.86764" lon="6.56895">
        <ele>1029.3</ele>
        <time>2021-09-18T08:55:43Z</time>
      </trkpt>
      <trkpt lat="43.86763" lon="6.56896">
        <ele>1029.3</ele>
        <time>2021-09-18T08:55:44Z</time>
      </trkpt>
      <trkpt lat="43.86759" lon="6.56901">
        <ele>1029.5</ele>
        <time>2021-09-18T08:55:46Z</time>
      </trkpt>
      <trkpt lat="43.86756" lon="6.56907">
        <ele>1029.7</ele>
        <time>2021-09-18T08:55:48Z</time>
      </trkpt>
      <trkpt lat="43.86752" lon="6.56913">
        <ele>1029.9</ele>
        <time>2021-09-18T08:55:50Z</time>
      </trkpt>
      <trkpt lat="43.8675" lon="6.56917">
        <ele>1030</ele>
        <time>2021-09-18T08:55:51Z</time>
      </trkpt>
      <trkpt lat="43.86749" lon="6.56924">
        <ele>1030.2</ele>
        <time>2021-09-18T08:55:53Z</time>
      </trkpt>
      <trkpt lat="43.86748" lon="6.56929">
        <ele>1030.4</ele>
        <time>2021-09-18T08:55:54Z</time>
      </trkpt>
      <trkpt lat="43.86748" lon="6.56933">
        <ele>1030.5</ele>
        <time>2021-09-18T08:55:55Z</time>
      </trkpt>
      <trkpt lat="43.86748" lon="6.56939">
        <ele>1030.7</ele>
        <time>2021-09-18T08:55:56Z</time>
      </trkpt>
      <trkpt lat="43.86749" lon="6.56946">
        <ele>1031</ele>
        <time>2021-09-18T08:55:58Z</time>
      </trkpt>
      <trkpt lat="43.86749" lon="6.56948">
        <ele>1031.1</ele>
        <time>2021-09-18T08:55:59Z</time>
      </trkpt>
      <trkpt lat="43.86749" lon="6.5695">
        <ele>1031.1</ele>
        <time>2021-09-18T08:56:00Z</time>
      </trkpt>
      <trkpt lat="43.8675" lon="6.56955">
        <ele>1031.4</ele>
        <time>2021-09-18T08:56:02Z</time>
      </trkpt>
      <trkpt lat="43.8675" lon="6.56958">
        <ele>1031.4</ele>
        <time>2021-09-18T08:56:03Z</time>
      </trkpt>
      <trkpt lat="43.86751" lon="6.56962">
        <ele>1031.6</ele>
        <time>2021-09-18T08:56:05Z</time>
      </trkpt>
      <trkpt lat="43.86751" lon="6.56964">
        <ele>1031.7</ele>
        <time>2021-09-18T08:56:06Z</time>
      </trkpt>
      <trkpt lat="43.86751" lon="6.56967">
        <ele>1031.8</ele>
        <time>2021-09-18T08:56:08Z</time>
      </trkpt>
      <trkpt lat="43.86752" lon="6.56969">
        <ele>1031.9</ele>
        <time>2021-09-18T08:56:09Z</time>
      </trkpt>
      <trkpt lat="43.86752" lon="6.56971">
        <ele>1032</ele>
        <time>2021-09-18T08:56:10Z</time>
      </trkpt>
      <trkpt lat="43.86753" lon="6.56976">
        <ele>1032.2</ele>
        <time>2021-09-18T08:56:12Z</time>
      </trkpt>
      <trkpt lat="43.86754" lon="6.56978">
        <ele>1032.3</ele>
        <time>2021-09-18T08:56:13Z</time>
      </trkpt>
      <trkpt lat="43.86755" lon="6.5698">
        <ele>1032.4</ele>
        <time>2021-09-18T08:56:14Z</time>
      </trkpt>
      <trkpt lat="43.86757" lon="6.56983">
        <ele>1032.6</ele>
        <time>2021-09-18T08:56:16Z</time>
      </trkpt>
      <trkpt lat="43.8676" lon="6.56987">
        <ele>1032.9</ele>
        <time>2021-09-18T08:56:18Z</time>
      </trkpt>
      <trkpt lat="43.86762" lon="6.56988">
        <ele>1033</ele>
        <time>2021-09-18T08:56:19Z</time>
      </trkpt>
      <trkpt lat="43.86763" lon="6.5699">
        <ele>1033.1</ele>
        <time>2021-09-18T08:56:20Z</time>
      </trkpt>
      <trkpt lat="43.86765" lon="6.56994">
        <ele>1033.3</ele>
        <time>2021-09-18T08:56:22Z</time>
      </trkpt>
      <trkpt lat="43.86768" lon="6.56998">
        <ele>1033.6</ele>
        <time>2021-09-18T08:56:24Z</time>
      </trkpt>
      <trkpt lat="43.86768" lon="6.57002">
        <ele>1033.8</ele>
        <time>2021-09-18T08:56:25Z</time>
      </trkpt>
      <trkpt lat="43.86768" lon="6.57004">
        <ele>1033.8</ele>
        <time>2021-09-18T08:56:26Z</time>
      </trkpt>
      <trkpt lat="43.86769" lon="6.57006">
        <ele>1033.9</ele>
        <time>2021-09-18T08:56:27Z</time>
      </trkpt>
      <trkpt lat="43.8677" lon="6.5701">
        <ele>1034.1</ele>
        <time>2021-09-18T08:56:29Z</time>
      </trkpt>
      <trkpt lat="43.86771" lon="6.57014">
        <ele>1034.3</ele>
        <time>2021-09-18T08:56:30Z</time>
      </trkpt>
      <trkpt lat="43.86771" lon="6.57015">
        <ele>1034.3</ele>
        <time>2021-09-18T08:56:31Z</time>
      </trkpt>
      <trkpt lat="43.86772" lon="6.57019">
        <ele>1034.6</ele>
        <time>2021-09-18T08:56:33Z</time>
      </trkpt>
      <trkpt lat="43.86773" lon="6.57021">
        <ele>1034.7</ele>
        <time>2021-09-18T08:56:34Z</time>
      </trkpt>
      <trkpt lat="43.86772" lon="6.57024">
        <ele>1034.8</ele>
        <time>2021-09-18T08:56:36Z</time>
      </trkpt>
      <trkpt lat="43.86772" lon="6.57025">
        <ele>1034.8</ele>
        <time>2021-09-18T08:56:37Z</time>
      </trkpt>
      <trkpt lat="43.86774" lon="6.57031">
        <ele>1035.1</ele>
        <time>2021-09-18T08:56:39Z</time>
      </trkpt>
      <trkpt lat="43.86773" lon="6.57037">
        <ele>1035.4</ele>
        <time>2021-09-18T08:56:41Z</time>
      </trkpt>
      <trkpt lat="43.86773" lon="6.57043">
        <ele>1035.6</ele>
        <time>2021-09-18T08:56:43Z</time>
      </trkpt>
      <trkpt lat="43.86774" lon="6.57045">
        <ele>1035.8</ele>
        <time>2021-09-18T08:56:44Z</time>
      </trkpt>
      <trkpt lat="43.86774" lon="6.5705">
        <ele>1036</ele>
        <time>2021-09-18T08:56:46Z</time>
      </trkpt>
      <trkpt lat="43.86775" lon="6.57054">
        <ele>1036.2</ele>
        <time>2021-09-18T08:56:47Z</time>
      </trkpt>
      <trkpt lat="43.86775" lon="6.57056">
        <ele>1036.3</ele>
        <time>2021-09-18T08:56:48Z</time>
      </trkpt>
      <trkpt lat="43.86776" lon="6.5706">
        <ele>1036.4</ele>
        <time>2021-09-18T08:56:49Z</time>
      </trkpt>
      <trkpt lat="43.86776" lon="6.57061">
        <ele>1036.5</ele>
        <time>2021-09-18T08:56:50Z</time>
      </trkpt>
      <trkpt lat="43.86776" lon="6.57067">
        <ele>1036.7</ele>
        <time>2021-09-18T08:56:52Z</time>
      </trkpt>
      <trkpt lat="43.86776" lon="6.57069">
        <ele>1036.8</ele>
        <time>2021-09-18T08:56:53Z</time>
      </trkpt>
      <trkpt lat="43.86776" lon="6.57073">
        <ele>1037</ele>
        <time>2021-09-18T08:56:55Z</time>
      </trkpt>
      <trkpt lat="43.86776" lon="6.57076">
        <ele>1037.1</ele>
        <time>2021-09-18T08:56:56Z</time>
      </trkpt>
      <trkpt lat="43.86778" lon="6.57079">
        <ele>1037.3</ele>
        <time>2021-09-18T08:56:58Z</time>
      </trkpt>
      <trkpt lat="43.86782" lon="6.57082">
        <ele>1037.6</ele>
        <time>2021-09-18T08:57:00Z</time>
      </trkpt>
      <trkpt lat="43.86783" lon="6.57084">
        <ele>1037.7</ele>
        <time>2021-09-18T08:57:01Z</time>
      </trkpt>
      <trkpt lat="43.86784" lon="6.57086">
        <ele>1037.8</ele>
        <time>2021-09-18T08:57:02Z</time>
      </trkpt>
      <trkpt lat="43.86785" lon="6.57091">
        <ele>1038</ele>
        <time>2021-09-18T08:57:03Z</time>
      </trkpt>
      <trkpt lat="43.86786" lon="6.57092">
        <ele>1038</ele>
        <time>2021-09-18T08:57:04Z</time>
      </trkpt>
      <trkpt lat="43.86786" lon="6.57095">
        <ele>1038.2</ele>
        <time>2021-09-18T08:57:06Z</time>
      </trkpt>
      <trkpt lat="43.86788" lon="6.571">
        <ele>1038.4</ele>
        <time>2021-09-18T08:57:08Z</time>
      </trkpt>
      <trkpt lat="43.86788" lon="6.57106">
        <ele>1038.6</ele>
        <time>2021-09-18T08:57:10Z</time>
      </trkpt>
      <trkpt lat="43.86788" lon="6.57108">
        <ele>1038.7</ele>
        <time>2021-09-18T08:57:11Z</time>
      </trkpt>
      <trkpt lat="43.86788" lon="6.57109">
        <ele>1038.8</ele>
        <time>2021-09-18T08:57:12Z</time>
      </trkpt>
      <trkpt lat="43.8679" lon="6.57114">
        <ele>1039</ele>
        <time>2021-09-18T08:57:14Z</time>
      </trkpt>
      <trkpt lat="43.86791" lon="6.57116">
        <ele>1039.1</ele>
        <time>2021-09-18T08:57:15Z</time>
      </trkpt>
      <trkpt lat="43.86792" lon="6.5712">
        <ele>1039.3</ele>
        <time>2021-09-18T08:57:17Z</time>
      </trkpt>
      <trkpt lat="43.86793" lon="6.57124">
        <ele>1039.4</ele>
        <time>2021-09-18T08:57:19Z</time>
      </trkpt>
      <trkpt lat="43.86793" lon="6.57126">
        <ele>1039.5</ele>
        <time>2021-09-18T08:57:20Z</time>
      </trkpt>
      <trkpt lat="43.86793" lon="6.57128">
        <ele>1039.6</ele>
        <time>2021-09-18T08:57:21Z</time>
      </trkpt>
      <trkpt lat="43.86793" lon="6.5713">
        <ele>1039.7</ele>
        <time>2021-09-18T08:57:22Z</time>
      </trkpt>
      <trkpt lat="43.86794" lon="6.57134">
        <ele>1039.9</ele>
        <time>2021-09-18T08:57:24Z</time>
      </trkpt>
      <trkpt lat="43.86793" lon="6.57136">
        <ele>1040</ele>
        <time>2021-09-18T08:57:25Z</time>
      </trkpt>
      <trkpt lat="43.86793" lon="6.57139">
        <ele>1040.1</ele>
        <time>2021-09-18T08:57:26Z</time>
      </trkpt>
      <trkpt lat="43.86793" lon="6.57142">
        <ele>1040.2</ele>
        <time>2021-09-18T08:57:27Z</time>
      </trkpt>
      <trkpt lat="43.86794" lon="6.57145">
        <ele>1040.4</ele>
        <time>2021-09-18T08:57:29Z</time>
      </trkpt>
      <trkpt lat="43.86796" lon="6.57148">
        <ele>1040.5</ele>
        <time>2021-09-18T08:57:30Z</time>
      </trkpt>
      <trkpt lat="43.86796" lon="6.57149">
        <ele>1040.6</ele>
        <time>2021-09-18T08:57:31Z</time>
      </trkpt>
      <trkpt lat="43.86797" lon="6.57152">
        <ele>1040.7</ele>
        <time>2021-09-18T08:57:32Z</time>
      </trkpt>
      <trkpt lat="43.86798" lon="6.57157">
        <ele>1041</ele>
        <time>2021-09-18T08:57:34Z</time>
      </trkpt>
      <trkpt lat="43.86799" lon="6.57161">
        <ele>1041.2</ele>
        <time>2021-09-18T08:57:35Z</time>
      </trkpt>
      <trkpt lat="43.86799" lon="6.57162">
        <ele>1041.2</ele>
        <time>2021-09-18T08:57:36Z</time>
      </trkpt>
      <trkpt lat="43.868" lon="6.57167">
        <ele>1041.5</ele>
        <time>2021-09-18T08:57:38Z</time>
      </trkpt>
      <trkpt lat="43.86801" lon="6.57171">
        <ele>1041.7</ele>
        <time>2021-09-18T08:57:39Z</time>
      </trkpt>
      <trkpt lat="43.86803" lon="6.57178">
        <ele>1042</ele>
        <time>2021-09-18T08:57:41Z</time>
      </trkpt>
      <trkpt lat="43.86806" lon="6.57183">
        <ele>1042.3</ele>
        <time>2021-09-18T08:57:42Z</time>
      </trkpt>
      <trkpt lat="43.86808" lon="6.57187">
        <ele>1042.5</ele>
        <time>2021-09-18T08:57:43Z</time>
      </trkpt>
      <trkpt lat="43.86811" lon="6.57192">
        <ele>1042.8</ele>
        <time>2021-09-18T08:57:44Z</time>
      </trkpt>
      <trkpt lat="43.86813" lon="6.57198">
        <ele>1043.1</ele>
        <time>2021-09-18T08:57:46Z</time>
      </trkpt>
      <trkpt lat="43.86814" lon="6.57203">
        <ele>1043.3</ele>
        <time>2021-09-18T08:57:47Z</time>
      </trkpt>
      <trkpt lat="43.86815" lon="6.57206">
        <ele>1043.5</ele>
        <time>2021-09-18T08:57:48Z</time>
      </trkpt>
      <trkpt lat="43.86817" lon="6.5721">
        <ele>1043.7</ele>
        <time>2021-09-18T08:57:50Z</time>
      </trkpt>
      <trkpt lat="43.86819" lon="6.57213">
        <ele>1043.9</ele>
        <time>2021-09-18T08:57:51Z</time>
      </trkpt>
      <trkpt lat="43.8682" lon="6.57215">
        <ele>1044</ele>
        <time>2021-09-18T08:57:53Z</time>
      </trkpt>
      <trkpt lat="43.8682" lon="6.57217">
        <ele>1044.1</ele>
        <time>2021-09-18T08:57:54Z</time>
      </trkpt>
      <trkpt lat="43.86819" lon="6.57219">
        <ele>1044.2</ele>
        <time>2021-09-18T08:57:55Z</time>
      </trkpt>
      <trkpt lat="43.86819" lon="6.57219">
        <ele>1044.2</ele>
        <time>2021-09-18T08:57:56Z</time>
      </trkpt>
      <trkpt lat="43.86819" lon="6.5722">
        <ele>1044.3</ele>
        <time>2021-09-18T08:57:58Z</time>
      </trkpt>
      <trkpt lat="43.86819" lon="6.57221">
        <ele>1044.3</ele>
        <time>2021-09-18T08:57:59Z</time>
      </trkpt>
      <trkpt lat="43.86819" lon="6.57223">
        <ele>1044.4</ele>
        <time>2021-09-18T08:58:00Z</time>
      </trkpt>
      <trkpt lat="43.86819" lon="6.57224">
        <ele>1044.5</ele>
        <time>2021-09-18T08:58:01Z</time>
      </trkpt>
      <trkpt lat="43.86819" lon="6.57225">
        <ele>1044.5</ele>
        <time>2021-09-18T08:58:02Z</time>
      </trkpt>
      <trkpt lat="43.86819" lon="6.57226">
        <ele>1044.6</ele>
        <time>2021-09-18T08:58:03Z</time>
      </trkpt>
      <trkpt lat="43.86819" lon="6.57227">
        <ele>1044.6</ele>
        <time>2021-09-18T08:58:04Z</time>
      </trkpt>
      <trkpt lat="43.86819" lon="6.57227">
        <ele>1044.6</ele>
        <time>2021-09-18T08:58:05Z</time>
      </trkpt>
      <trkpt lat="43.86819" lon="6.57228">
        <ele>1044.6</ele>
        <time>2021-09-18T08:58:06Z</time>
      </trkpt>
      <trkpt lat="43.86819" lon="6.5723">
        <ele>1044.8</ele>
        <time>2021-09-18T08:58:07Z</time>
      </trkpt>
      <trkpt lat="43.86819" lon="6.57232">
        <ele>1044.9</ele>
        <time>2021-09-18T08:58:08Z</time>
      </trkpt>
      <trkpt lat="43.86818" lon="6.57233">
        <ele>1044.9</ele>
        <time>2021-09-18T08:58:09Z</time>
      </trkpt>
      <trkpt lat="43.86818" lon="6.57234">
        <ele>1045</ele>
        <time>2021-09-18T08:58:11Z</time>
      </trkpt>
      <trkpt lat="43.86818" lon="6.57236">
        <ele>1045.1</ele>
        <time>2021-09-18T08:58:12Z</time>
      </trkpt>
      <trkpt lat="43.86817" lon="6.57237">
        <ele>1045.2</ele>
        <time>2021-09-18T08:58:13Z</time>
      </trkpt>
      <trkpt lat="43.86817" lon="6.57239">
        <ele>1045.3</ele>
        <time>2021-09-18T08:58:14Z</time>
      </trkpt>
      <trkpt lat="43.86817" lon="6.57242">
        <ele>1045.4</ele>
        <time>2021-09-18T08:58:16Z</time>
      </trkpt>
      <trkpt lat="43.86818" lon="6.57243">
        <ele>1049.1</ele>
        <time>2021-09-18T08:58:17Z</time>
      </trkpt>
      <trkpt lat="43.86819" lon="6.57246">
        <ele>1049.1</ele>
        <time>2021-09-18T08:58:19Z</time>
      </trkpt>
      <trkpt lat="43.86819" lon="6.57249">
        <ele>1049.2</ele>
        <time>2021-09-18T08:58:20Z</time>
      </trkpt>
      <trkpt lat="43.86818" lon="6.57252">
        <ele>1049.2</ele>
        <time>2021-09-18T08:58:22Z</time>
      </trkpt>
      <trkpt lat="43.86816" lon="6.57255">
        <ele>1049.3</ele>
        <time>2021-09-18T08:58:24Z</time>
      </trkpt>
      <trkpt lat="43.86816" lon="6.57255">
        <ele>1049.3</ele>
        <time>2021-09-18T08:58:37Z</time>
      </trkpt>
      <trkpt lat="43.86815" lon="6.57255">
        <ele>1049.3</ele>
        <time>2021-09-18T08:58:38Z</time>
      </trkpt>
      <trkpt lat="43.86814" lon="6.57255">
        <ele>1049.3</ele>
        <time>2021-09-18T08:58:39Z</time>
      </trkpt>
      <trkpt lat="43.86813" lon="6.5725">
        <ele>1049.4</ele>
        <time>2021-09-18T08:58:41Z</time>
      </trkpt>
      <trkpt lat="43.86813" lon="6.57245">
        <ele>1049.5</ele>
        <time>2021-09-18T08:58:43Z</time>
      </trkpt>
      <trkpt lat="43.86812" lon="6.5724">
        <ele>1049.6</ele>
        <time>2021-09-18T08:58:44Z</time>
      </trkpt>
      <trkpt lat="43.86811" lon="6.57236">
        <ele>1049.7</ele>
        <time>2021-09-18T08:58:45Z</time>
      </trkpt>
      <trkpt lat="43.86811" lon="6.5723">
        <ele>1049.8</ele>
        <time>2021-09-18T08:58:47Z</time>
      </trkpt>
      <trkpt lat="43.8681" lon="6.57226">
        <ele>1049.9</ele>
        <time>2021-09-18T08:58:48Z</time>
      </trkpt>
      <trkpt lat="43.8681" lon="6.57219">
        <ele>1050</ele>
        <time>2021-09-18T08:58:50Z</time>
      </trkpt>
      <trkpt lat="43.8681" lon="6.57212">
        <ele>1050.1</ele>
        <time>2021-09-18T08:58:52Z</time>
      </trkpt>
      <trkpt lat="43.86809" lon="6.57206">
        <ele>1050.3</ele>
        <time>2021-09-18T08:58:53Z</time>
      </trkpt>
      <trkpt lat="43.86809" lon="6.57202">
        <ele>1050.4</ele>
        <time>2021-09-18T08:58:54Z</time>
      </trkpt>
      <trkpt lat="43.86808" lon="6.57198">
        <ele>1050.5</ele>
        <time>2021-09-18T08:58:55Z</time>
      </trkpt>
      <trkpt lat="43.86807" lon="6.57193">
        <ele>1050.7</ele>
        <time>2021-09-18T08:58:56Z</time>
      </trkpt>
      <trkpt lat="43.86807" lon="6.57189">
        <ele>1050.8</ele>
        <time>2021-09-18T08:58:58Z</time>
      </trkpt>
      <trkpt lat="43.86807" lon="6.57187">
        <ele>1050.8</ele>
        <time>2021-09-18T08:58:59Z</time>
      </trkpt>
      <trkpt lat="43.86807" lon="6.57183">
        <ele>1050.9</ele>
        <time>2021-09-18T08:59:00Z</time>
      </trkpt>
      <trkpt lat="43.86807" lon="6.5718">
        <ele>1051</ele>
        <time>2021-09-18T08:59:01Z</time>
      </trkpt>
      <trkpt lat="43.86806" lon="6.57175">
        <ele>1051.2</ele>
        <time>2021-09-18T08:59:03Z</time>
      </trkpt>
      <trkpt lat="43.86806" lon="6.5717">
        <ele>1051.4</ele>
        <time>2021-09-18T08:59:04Z</time>
      </trkpt>
      <trkpt lat="43.86807" lon="6.57166">
        <ele>1051.5</ele>
        <time>2021-09-18T08:59:06Z</time>
      </trkpt>
      <trkpt lat="43.86808" lon="6.57161">
        <ele>1051.7</ele>
        <time>2021-09-18T08:59:07Z</time>
      </trkpt>
      <trkpt lat="43.86809" lon="6.57157">
        <ele>1051.8</ele>
        <time>2021-09-18T08:59:09Z</time>
      </trkpt>
      <trkpt lat="43.86809" lon="6.57156">
        <ele>1051.9</ele>
        <time>2021-09-18T08:59:10Z</time>
      </trkpt>
      <trkpt lat="43.8681" lon="6.57152">
        <ele>1052</ele>
        <time>2021-09-18T08:59:11Z</time>
      </trkpt>
      <trkpt lat="43.86812" lon="6.57144">
        <ele>1052.3</ele>
        <time>2021-09-18T08:59:13Z</time>
      </trkpt>
      <trkpt lat="43.86813" lon="6.57138">
        <ele>1052.6</ele>
        <time>2021-09-18T08:59:15Z</time>
      </trkpt>
      <trkpt lat="43.86814" lon="6.57133">
        <ele>1052.8</ele>
        <time>2021-09-18T08:59:16Z</time>
      </trkpt>
      <trkpt lat="43.86816" lon="6.57129">
        <ele>1052.9</ele>
        <time>2021-09-18T08:59:17Z</time>
      </trkpt>
      <trkpt lat="43.86817" lon="6.57125">
        <ele>1053.1</ele>
        <time>2021-09-18T08:59:18Z</time>
      </trkpt>
      <trkpt lat="43.86818" lon="6.57121">
        <ele>1053.3</ele>
        <time>2021-09-18T08:59:19Z</time>
      </trkpt>
      <trkpt lat="43.86819" lon="6.57119">
        <ele>1053.4</ele>
        <time>2021-09-18T08:59:20Z</time>
      </trkpt>
      <trkpt lat="43.8682" lon="6.57115">
        <ele>1053.5</ele>
        <time>2021-09-18T08:59:21Z</time>
      </trkpt>
      <trkpt lat="43.8682" lon="6.5711">
        <ele>1053.7</ele>
        <time>2021-09-18T08:59:23Z</time>
      </trkpt>
      <trkpt lat="43.8682" lon="6.57108">
        <ele>1053.8</ele>
        <time>2021-09-18T08:59:24Z</time>
      </trkpt>
      <trkpt lat="43.8682" lon="6.57101">
        <ele>1054.1</ele>
        <time>2021-09-18T08:59:26Z</time>
      </trkpt>
      <trkpt lat="43.8682" lon="6.57098">
        <ele>1054.2</ele>
        <time>2021-09-18T08:59:28Z</time>
      </trkpt>
      <trkpt lat="43.86819" lon="6.57095">
        <ele>1054.3</ele>
        <time>2021-09-18T08:59:29Z</time>
      </trkpt>
      <trkpt lat="43.86819" lon="6.57092">
        <ele>1054.4</ele>
        <time>2021-09-18T08:59:30Z</time>
      </trkpt>
      <trkpt lat="43.86819" lon="6.57087">
        <ele>1054.6</ele>
        <time>2021-09-18T08:59:32Z</time>
      </trkpt>
      <trkpt lat="43.86819" lon="6.57082">
        <ele>1054.8</ele>
        <time>2021-09-18T08:59:33Z</time>
      </trkpt>
      <trkpt lat="43.86819" lon="6.57078">
        <ele>1055</ele>
        <time>2021-09-18T08:59:35Z</time>
      </trkpt>
      <trkpt lat="43.86817" lon="6.57073">
        <ele>1055.2</ele>
        <time>2021-09-18T08:59:37Z</time>
      </trkpt>
      <trkpt lat="43.86814" lon="6.57068">
        <ele>1055.4</ele>
        <time>2021-09-18T08:59:39Z</time>
      </trkpt>
      <trkpt lat="43.86813" lon="6.57063">
        <ele>1055.6</ele>
        <time>2021-09-18T08:59:40Z</time>
      </trkpt>
      <trkpt lat="43.86812" lon="6.57062">
        <ele>1055.7</ele>
        <time>2021-09-18T08:59:41Z</time>
      </trkpt>
      <trkpt lat="43.86813" lon="6.57057">
        <ele>1055.9</ele>
        <time>2021-09-18T08:59:42Z</time>
      </trkpt>
      <trkpt lat="43.86813" lon="6.5705">
        <ele>1056.2</ele>
        <time>2021-09-18T08:59:44Z</time>
      </trkpt>
      <trkpt lat="43.86813" lon="6.57047">
        <ele>1056.3</ele>
        <time>2021-09-18T08:59:45Z</time>
      </trkpt>
      <trkpt lat="43.86813" lon="6.57042">
        <ele>1056.5</ele>
        <time>2021-09-18T08:59:47Z</time>
      </trkpt>
      <trkpt lat="43.86813" lon="6.57039">
        <ele>1056.6</ele>
        <time>2021-09-18T08:59:48Z</time>
      </trkpt>
      <trkpt lat="43.86814" lon="6.57033">
        <ele>1056.9</ele>
        <time>2021-09-18T08:59:50Z</time>
      </trkpt>
      <trkpt lat="43.86816" lon="6.57029">
        <ele>1057.1</ele>
        <time>2021-09-18T08:59:52Z</time>
      </trkpt>
      <trkpt lat="43.86818" lon="6.57024">
        <ele>1057.3</ele>
        <time>2021-09-18T08:59:53Z</time>
      </trkpt>
      <trkpt lat="43.86819" lon="6.57022">
        <ele>1057.4</ele>
        <time>2021-09-18T08:59:54Z</time>
      </trkpt>
      <trkpt lat="43.8682" lon="6.57019">
        <ele>1057.5</ele>
        <time>2021-09-18T08:59:56Z</time>
      </trkpt>
      <trkpt lat="43.86822" lon="6.57016">
        <ele>1057.7</ele>
        <time>2021-09-18T08:59:58Z</time>
      </trkpt>
      <trkpt lat="43.86824" lon="6.57013">
        <ele>1057.8</ele>
        <time>2021-09-18T09:00:00Z</time>
      </trkpt>
      <trkpt lat="43.86826" lon="6.57011">
        <ele>1058</ele>
        <time>2021-09-18T09:00:02Z</time>
      </trkpt>
      <trkpt lat="43.86829" lon="6.57004">
        <ele>1058.2</ele>
        <time>2021-09-18T09:00:03Z</time>
      </trkpt>
      <trkpt lat="43.8683" lon="6.57001">
        <ele>1058.4</ele>
        <time>2021-09-18T09:00:04Z</time>
      </trkpt>
      <trkpt lat="43.86832" lon="6.56995">
        <ele>1058.7</ele>
        <time>2021-09-18T09:00:06Z</time>
      </trkpt>
      <trkpt lat="43.86836" lon="6.56991">
        <ele>1058.9</ele>
        <time>2021-09-18T09:00:08Z</time>
      </trkpt>
      <trkpt lat="43.86839" lon="6.5699">
        <ele>1059.1</ele>
        <time>2021-09-18T09:00:09Z</time>
      </trkpt>
      <trkpt lat="43.86843" lon="6.56986">
        <ele>1059.3</ele>
        <time>2021-09-18T09:00:11Z</time>
      </trkpt>
      <trkpt lat="43.86845" lon="6.56984">
        <ele>1059.5</ele>
        <time>2021-09-18T09:00:12Z</time>
      </trkpt>
      <trkpt lat="43.86846" lon="6.56985">
        <ele>1059.5</ele>
        <time>2021-09-18T09:00:14Z</time>
      </trkpt>
      <trkpt lat="43.86848" lon="6.56986">
        <ele>1059.7</ele>
        <time>2021-09-18T09:00:15Z</time>
      </trkpt>
      <trkpt lat="43.86853" lon="6.56987">
        <ele>1060</ele>
        <time>2021-09-18T09:00:17Z</time>
      </trkpt>
      <trkpt lat="43.86856" lon="6.56991">
        <ele>1060.2</ele>
        <time>2021-09-18T09:00:19Z</time>
      </trkpt>
      <trkpt lat="43.86858" lon="6.56994">
        <ele>1060.4</ele>
        <time>2021-09-18T09:00:21Z</time>
      </trkpt>
      <trkpt lat="43.86861" lon="6.56998">
        <ele>1060.6</ele>
        <time>2021-09-18T09:00:22Z</time>
      </trkpt>
      <trkpt lat="43.86863" lon="6.57001">
        <ele>1060.8</ele>
        <time>2021-09-18T09:00:24Z</time>
      </trkpt>
      <trkpt lat="43.86865" lon="6.57002">
        <ele>1060.9</ele>
        <time>2021-09-18T09:00:25Z</time>
      </trkpt>
      <trkpt lat="43.86867" lon="6.57001">
        <ele>1061</ele>
        <time>2021-09-18T09:00:27Z</time>
      </trkpt>
      <trkpt lat="43.86868" lon="6.56998">
        <ele>1061.2</ele>
        <time>2021-09-18T09:00:28Z</time>
      </trkpt>
      <trkpt lat="43.86868" lon="6.56996">
        <ele>1061.3</ele>
        <time>2021-09-18T09:00:29Z</time>
      </trkpt>
      <trkpt lat="43.86869" lon="6.56989">
        <ele>1061.5</ele>
        <time>2021-09-18T09:00:31Z</time>
      </trkpt>
      <trkpt lat="43.86869" lon="6.56985">
        <ele>1061.7</ele>
        <time>2021-09-18T09:00:33Z</time>
      </trkpt>
      <trkpt lat="43.86871" lon="6.56979">
        <ele>1062</ele>
        <time>2021-09-18T09:00:34Z</time>
      </trkpt>
      <trkpt lat="43.86872" lon="6.56972">
        <ele>1062.3</ele>
        <time>2021-09-18T09:00:36Z</time>
      </trkpt>
      <trkpt lat="43.86873" lon="6.56966">
        <ele>1062.5</ele>
        <time>2021-09-18T09:00:37Z</time>
      </trkpt>
      <trkpt lat="43.86875" lon="6.56957">
        <ele>1062.9</ele>
        <time>2021-09-18T09:00:39Z</time>
      </trkpt>
      <trkpt lat="43.86877" lon="6.56947">
        <ele>1063.4</ele>
        <time>2021-09-18T09:00:40Z</time>
      </trkpt>
      <trkpt lat="43.8688" lon="6.56937">
        <ele>1063.8</ele>
        <time>2021-09-18T09:00:42Z</time>
      </trkpt>
      <trkpt lat="43.86881" lon="6.56928">
        <ele>1064.1</ele>
        <time>2021-09-18T09:00:44Z</time>
      </trkpt>
      <trkpt lat="43.86881" lon="6.56928">
        <ele>1064.2</ele>
        <time>2021-09-18T09:00:46Z</time>
      </trkpt>
      <trkpt lat="43.86881" lon="6.56928">
        <ele>1064.2</ele>
        <time>2021-09-18T09:00:47Z</time>
      </trkpt>
      <trkpt lat="43.8688" lon="6.56922">
        <ele>1064.4</ele>
        <time>2021-09-18T09:00:49Z</time>
      </trkpt>
      <trkpt lat="43.8688" lon="6.56917">
        <ele>1064.6</ele>
        <time>2021-09-18T09:00:51Z</time>
      </trkpt>
      <trkpt lat="43.86881" lon="6.56914">
        <ele>1064.7</ele>
        <time>2021-09-18T09:00:52Z</time>
      </trkpt>
      <trkpt lat="43.86882" lon="6.56907">
        <ele>1065.1</ele>
        <time>2021-09-18T09:00:54Z</time>
      </trkpt>
      <trkpt lat="43.86907" lon="6.56893">
        <ele>1067.2</ele>
        <time>2021-09-18T09:01:23Z</time>
      </trkpt>
      <trkpt lat="43.86906" lon="6.56897">
        <ele>1067.4</ele>
        <time>2021-09-18T09:01:24Z</time>
      </trkpt>
      <trkpt lat="43.86905" lon="6.569">
        <ele>1067.5</ele>
        <time>2021-09-18T09:01:26Z</time>
      </trkpt>
      <trkpt lat="43.86903" lon="6.56904">
        <ele>1067.7</ele>
        <time>2021-09-18T09:01:27Z</time>
      </trkpt>
      <trkpt lat="43.86901" lon="6.5691">
        <ele>1067.9</ele>
        <time>2021-09-18T09:01:29Z</time>
      </trkpt>
      <trkpt lat="43.86899" lon="6.5692">
        <ele>1068.2</ele>
        <time>2021-09-18T09:01:30Z</time>
      </trkpt>
      <trkpt lat="43.86898" lon="6.56924">
        <ele>1068.3</ele>
        <time>2021-09-18T09:01:32Z</time>
      </trkpt>
      <trkpt lat="43.86897" lon="6.56925">
        <ele>1068.3</ele>
        <time>2021-09-18T09:01:33Z</time>
      </trkpt>
      <trkpt lat="43.86896" lon="6.56929">
        <ele>1068.4</ele>
        <time>2021-09-18T09:01:35Z</time>
      </trkpt>
      <trkpt lat="43.86895" lon="6.5693">
        <ele>1068.5</ele>
        <time>2021-09-18T09:01:37Z</time>
      </trkpt>
      <trkpt lat="43.86895" lon="6.5693">
        <ele>1068.5</ele>
        <time>2021-09-18T09:01:38Z</time>
      </trkpt>
      <trkpt lat="43.86894" lon="6.5693">
        <ele>1068.5</ele>
        <time>2021-09-18T09:01:40Z</time>
      </trkpt>
      <trkpt lat="43.86891" lon="6.56935">
        <ele>1068.7</ele>
        <time>2021-09-18T09:01:47Z</time>
      </trkpt>
      <trkpt lat="43.86891" lon="6.56938">
        <ele>1068.8</ele>
        <time>2021-09-18T09:01:48Z</time>
      </trkpt>
      <trkpt lat="43.86893" lon="6.5695">
        <ele>1069.1</ele>
        <time>2021-09-18T09:01:50Z</time>
      </trkpt>
      <trkpt lat="43.86894" lon="6.56961">
        <ele>1069.5</ele>
        <time>2021-09-18T09:01:52Z</time>
      </trkpt>
      <trkpt lat="43.86894" lon="6.56966">
        <ele>1069.6</ele>
        <time>2021-09-18T09:01:53Z</time>
      </trkpt>
      <trkpt lat="43.86893" lon="6.56974">
        <ele>1069.9</ele>
        <time>2021-09-18T09:01:54Z</time>
      </trkpt>
      <trkpt lat="43.86892" lon="6.5698">
        <ele>1070.1</ele>
        <time>2021-09-18T09:01:55Z</time>
      </trkpt>
      <trkpt lat="43.86891" lon="6.56985">
        <ele>1070.3</ele>
        <time>2021-09-18T09:01:57Z</time>
      </trkpt>
      <trkpt lat="43.86888" lon="6.5699">
        <ele>1070.6</ele>
        <time>2021-09-18T09:01:58Z</time>
      </trkpt>
      <trkpt lat="43.86886" lon="6.56992">
        <ele>1070.7</ele>
        <time>2021-09-18T09:02:00Z</time>
      </trkpt>
      <trkpt lat="43.86884" lon="6.56992">
        <ele>1070.8</ele>
        <time>2021-09-18T09:02:02Z</time>
      </trkpt>
      <trkpt lat="43.86883" lon="6.56992">
        <ele>1070.9</ele>
        <time>2021-09-18T09:02:03Z</time>
      </trkpt>
      <trkpt lat="43.86882" lon="6.56994">
        <ele>1071</ele>
        <time>2021-09-18T09:02:05Z</time>
      </trkpt>
      <trkpt lat="43.86882" lon="6.56996">
        <ele>1071.1</ele>
        <time>2021-09-18T09:02:06Z</time>
      </trkpt>
      <trkpt lat="43.86881" lon="6.57001">
        <ele>1071.3</ele>
        <time>2021-09-18T09:02:07Z</time>
      </trkpt>
      <trkpt lat="43.86878" lon="6.57004">
        <ele>1071.5</ele>
        <time>2021-09-18T09:02:09Z</time>
      </trkpt>
      <trkpt lat="43.86876" lon="6.57006">
        <ele>1071.6</ele>
        <time>2021-09-18T09:02:10Z</time>
      </trkpt>
      <trkpt lat="43.86872" lon="6.5701">
        <ele>1071.9</ele>
        <time>2021-09-18T09:02:12Z</time>
      </trkpt>
      <trkpt lat="43.86869" lon="6.57014">
        <ele>1072.2</ele>
        <time>2021-09-18T09:02:13Z</time>
      </trkpt>
      <trkpt lat="43.86867" lon="6.57017">
        <ele>1072.3</ele>
        <time>2021-09-18T09:02:14Z</time>
      </trkpt>
      <trkpt lat="43.86865" lon="6.57022">
        <ele>1072.6</ele>
        <time>2021-09-18T09:02:16Z</time>
      </trkpt>
      <trkpt lat="43.86861" lon="6.57029">
        <ele>1072.9</ele>
        <time>2021-09-18T09:02:18Z</time>
      </trkpt>
      <trkpt lat="43.8686" lon="6.57031">
        <ele>1073</ele>
        <time>2021-09-18T09:02:19Z</time>
      </trkpt>
      <trkpt lat="43.86859" lon="6.57034">
        <ele>1073.2</ele>
        <time>2021-09-18T09:02:20Z</time>
      </trkpt>
      <trkpt lat="43.86856" lon="6.57039">
        <ele>1073.5</ele>
        <time>2021-09-18T09:02:22Z</time>
      </trkpt>
      <trkpt lat="43.86855" lon="6.57041">
        <ele>1073.6</ele>
        <time>2021-09-18T09:02:24Z</time>
      </trkpt>
      <trkpt lat="43.86853" lon="6.57042">
        <ele>1073.7</ele>
        <time>2021-09-18T09:02:25Z</time>
      </trkpt>
      <trkpt lat="43.86852" lon="6.57043">
        <ele>1073.8</ele>
        <time>2021-09-18T09:02:26Z</time>
      </trkpt>
      <trkpt lat="43.86851" lon="6.57047">
        <ele>1074</ele>
        <time>2021-09-18T09:02:28Z</time>
      </trkpt>
      <trkpt lat="43.86851" lon="6.57048">
        <ele>1074</ele>
        <time>2021-09-18T09:02:29Z</time>
      </trkpt>
      <trkpt lat="43.86851" lon="6.57049">
        <ele>1074.1</ele>
        <time>2021-09-18T09:02:30Z</time>
      </trkpt>
      <trkpt lat="43.86851" lon="6.57056">
        <ele>1074.4</ele>
        <time>2021-09-18T09:02:31Z</time>
      </trkpt>
      <trkpt lat="43.86852" lon="6.57061">
        <ele>1074.6</ele>
        <time>2021-09-18T09:02:32Z</time>
      </trkpt>
      <trkpt lat="43.86852" lon="6.57068">
        <ele>1074.9</ele>
        <time>2021-09-18T09:02:34Z</time>
      </trkpt>
      <trkpt lat="43.86852" lon="6.57076">
        <ele>1075.3</ele>
        <time>2021-09-18T09:02:35Z</time>
      </trkpt>
      <trkpt lat="43.86852" lon="6.57083">
        <ele>1075.6</ele>
        <time>2021-09-18T09:02:37Z</time>
      </trkpt>
      <trkpt lat="43.86851" lon="6.57087">
        <ele>1075.8</ele>
        <time>2021-09-18T09:02:38Z</time>
      </trkpt>
      <trkpt lat="43.86852" lon="6.57092">
        <ele>1076</ele>
        <time>2021-09-18T09:02:39Z</time>
      </trkpt>
      <trkpt lat="43.86852" lon="6.57096">
        <ele>1076.2</ele>
        <time>2021-09-18T09:02:41Z</time>
      </trkpt>
      <trkpt lat="43.86853" lon="6.57099">
        <ele>1076.3</ele>
        <time>2021-09-18T09:02:42Z</time>
      </trkpt>
      <trkpt lat="43.86855" lon="6.57104">
        <ele>1076.6</ele>
        <time>2021-09-18T09:02:44Z</time>
      </trkpt>
      <trkpt lat="43.86858" lon="6.57106">
        <ele>1076.8</ele>
        <time>2021-09-18T09:02:46Z</time>
      </trkpt>
      <trkpt lat="43.86859" lon="6.57109">
        <ele>1077</ele>
        <time>2021-09-18T09:02:47Z</time>
      </trkpt>
      <trkpt lat="43.86862" lon="6.57116">
        <ele>1077.3</ele>
        <time>2021-09-18T09:02:49Z</time>
      </trkpt>
      <trkpt lat="43.86865" lon="6.57122">
        <ele>1077.6</ele>
        <time>2021-09-18T09:02:51Z</time>
      </trkpt>
      <trkpt lat="43.86866" lon="6.57127">
        <ele>1077.9</ele>
        <time>2021-09-18T09:02:52Z</time>
      </trkpt>
      <trkpt lat="43.86868" lon="6.57131">
        <ele>1078.1</ele>
        <time>2021-09-18T09:02:54Z</time>
      </trkpt>
      <trkpt lat="43.86868" lon="6.57132">
        <ele>1078.1</ele>
        <time>2021-09-18T09:02:55Z</time>
      </trkpt>
      <trkpt lat="43.86869" lon="6.57136">
        <ele>1078.3</ele>
        <time>2021-09-18T09:02:56Z</time>
      </trkpt>
      <trkpt lat="43.86869" lon="6.57138">
        <ele>1078.4</ele>
        <time>2021-09-18T09:02:57Z</time>
      </trkpt>
      <trkpt lat="43.86869" lon="6.57142">
        <ele>1078.6</ele>
        <time>2021-09-18T09:02:58Z</time>
      </trkpt>
      <trkpt lat="43.86869" lon="6.57144">
        <ele>1078.6</ele>
        <time>2021-09-18T09:02:59Z</time>
      </trkpt>
      <trkpt lat="43.86869" lon="6.57147">
        <ele>1078.8</ele>
        <time>2021-09-18T09:03:00Z</time>
      </trkpt>
      <trkpt lat="43.8687" lon="6.57153">
        <ele>1079</ele>
        <time>2021-09-18T09:03:02Z</time>
      </trkpt>
      <trkpt lat="43.86871" lon="6.57159">
        <ele>1079.3</ele>
        <time>2021-09-18T09:03:03Z</time>
      </trkpt>
      <trkpt lat="43.86871" lon="6.57161">
        <ele>1079.4</ele>
        <time>2021-09-18T09:03:05Z</time>
      </trkpt>
      <trkpt lat="43.86871" lon="6.57163">
        <ele>1079.5</ele>
        <time>2021-09-18T09:03:06Z</time>
      </trkpt>
      <trkpt lat="43.86871" lon="6.57166">
        <ele>1079.6</ele>
        <time>2021-09-18T09:03:07Z</time>
      </trkpt>
      <trkpt lat="43.86871" lon="6.57167">
        <ele>1079.6</ele>
        <time>2021-09-18T09:03:09Z</time>
      </trkpt>
      <trkpt lat="43.86871" lon="6.57168">
        <ele>1079.7</ele>
        <time>2021-09-18T09:03:10Z</time>
      </trkpt>
      <trkpt lat="43.86872" lon="6.5717">
        <ele>1079.8</ele>
        <time>2021-09-18T09:03:11Z</time>
      </trkpt>
      <trkpt lat="43.86873" lon="6.57172">
        <ele>1079.9</ele>
        <time>2021-09-18T09:03:12Z</time>
      </trkpt>
      <trkpt lat="43.86873" lon="6.57173">
        <ele>1079.9</ele>
        <time>2021-09-18T09:03:13Z</time>
      </trkpt>
      <trkpt lat="43.86875" lon="6.57176">
        <ele>1080.1</ele>
        <time>2021-09-18T09:03:15Z</time>
      </trkpt>
      <trkpt lat="43.86876" lon="6.57178">
        <ele>1080.2</ele>
        <time>2021-09-18T09:03:16Z</time>
      </trkpt>
      <trkpt lat="43.86877" lon="6.5718">
        <ele>1080.3</ele>
        <time>2021-09-18T09:03:17Z</time>
      </trkpt>
      <trkpt lat="43.86879" lon="6.57185">
        <ele>1080.6</ele>
        <time>2021-09-18T09:03:19Z</time>
      </trkpt>
      <trkpt lat="43.86879" lon="6.57187">
        <ele>1080.6</ele>
        <time>2021-09-18T09:03:21Z</time>
      </trkpt>
      <trkpt lat="43.86879" lon="6.57189">
        <ele>1080.7</ele>
        <time>2021-09-18T09:03:22Z</time>
      </trkpt>
      <trkpt lat="43.8688" lon="6.57191">
        <ele>1080.8</ele>
        <time>2021-09-18T09:03:23Z</time>
      </trkpt>
      <trkpt lat="43.8688" lon="6.57193">
        <ele>1080.9</ele>
        <time>2021-09-18T09:03:24Z</time>
      </trkpt>
      <trkpt lat="43.86881" lon="6.57199">
        <ele>1081.2</ele>
        <time>2021-09-18T09:03:26Z</time>
      </trkpt>
      <trkpt lat="43.86882" lon="6.57205">
        <ele>1081.4</ele>
        <time>2021-09-18T09:03:28Z</time>
      </trkpt>
      <trkpt lat="43.86882" lon="6.5721">
        <ele>1081.7</ele>
        <time>2021-09-18T09:03:30Z</time>
      </trkpt>
      <trkpt lat="43.86881" lon="6.57215">
        <ele>1081.9</ele>
        <time>2021-09-18T09:03:32Z</time>
      </trkpt>
      <trkpt lat="43.86879" lon="6.5722">
        <ele>1082.1</ele>
        <time>2021-09-18T09:03:34Z</time>
      </trkpt>
      <trkpt lat="43.86878" lon="6.57224">
        <ele>1082.3</ele>
        <time>2021-09-18T09:03:36Z</time>
      </trkpt>
      <trkpt lat="43.86877" lon="6.57226">
        <ele>1082.4</ele>
        <time>2021-09-18T09:03:37Z</time>
      </trkpt>
      <trkpt lat="43.86877" lon="6.57228">
        <ele>1082.5</ele>
        <time>2021-09-18T09:03:39Z</time>
      </trkpt>
      <trkpt lat="43.86876" lon="6.57229">
        <ele>1082.5</ele>
        <time>2021-09-18T09:03:40Z</time>
      </trkpt>
      <trkpt lat="43.86876" lon="6.57231">
        <ele>1082.6</ele>
        <time>2021-09-18T09:03:41Z</time>
      </trkpt>
      <trkpt lat="43.86875" lon="6.57233">
        <ele>1082.7</ele>
        <time>2021-09-18T09:03:43Z</time>
      </trkpt>
      <trkpt lat="43.86874" lon="6.57234">
        <ele>1082.8</ele>
        <time>2021-09-18T09:03:44Z</time>
      </trkpt>
      <trkpt lat="43.86869" lon="6.57244">
        <ele>1083.2</ele>
        <time>2021-09-18T09:03:49Z</time>
      </trkpt>
      <trkpt lat="43.86868" lon="6.57245">
        <ele>1083.3</ele>
        <time>2021-09-18T09:03:51Z</time>
      </trkpt>
      <trkpt lat="43.86867" lon="6.57247">
        <ele>1083.4</ele>
        <time>2021-09-18T09:03:52Z</time>
      </trkpt>
      <trkpt lat="43.86867" lon="6.57252">
        <ele>1083.5</ele>
        <time>2021-09-18T09:03:54Z</time>
      </trkpt>
      <trkpt lat="43.86867" lon="6.57258">
        <ele>1083.8</ele>
        <time>2021-09-18T09:03:56Z</time>
      </trkpt>
      <trkpt lat="43.86868" lon="6.57262">
        <ele>1083.9</ele>
        <time>2021-09-18T09:03:57Z</time>
      </trkpt>
      <trkpt lat="43.86869" lon="6.57264">
        <ele>1084</ele>
        <time>2021-09-18T09:03:58Z</time>
      </trkpt>
      <trkpt lat="43.86871" lon="6.57268">
        <ele>1084.2</ele>
        <time>2021-09-18T09:03:59Z</time>
      </trkpt>
      <trkpt lat="43.86873" lon="6.57272">
        <ele>1084.4</ele>
        <time>2021-09-18T09:04:01Z</time>
      </trkpt>
      <trkpt lat="43.86876" lon="6.57276">
        <ele>1084.6</ele>
        <time>2021-09-18T09:04:02Z</time>
      </trkpt>
      <trkpt lat="43.86877" lon="6.5728">
        <ele>1084.8</ele>
        <time>2021-09-18T09:04:03Z</time>
      </trkpt>
      <trkpt lat="43.8688" lon="6.57289">
        <ele>1085.1</ele>
        <time>2021-09-18T09:04:05Z</time>
      </trkpt>
      <trkpt lat="43.86882" lon="6.57297">
        <ele>1085.5</ele>
        <time>2021-09-18T09:04:07Z</time>
      </trkpt>
      <trkpt lat="43.86884" lon="6.57301">
        <ele>1085.7</ele>
        <time>2021-09-18T09:04:08Z</time>
      </trkpt>
      <trkpt lat="43.86886" lon="6.57308">
        <ele>1085.9</ele>
        <time>2021-09-18T09:04:09Z</time>
      </trkpt>
      <trkpt lat="43.86887" lon="6.57312">
        <ele>1086.1</ele>
        <time>2021-09-18T09:04:11Z</time>
      </trkpt>
      <trkpt lat="43.86888" lon="6.57317">
        <ele>1086.3</ele>
        <time>2021-09-18T09:04:12Z</time>
      </trkpt>
      <trkpt lat="43.8689" lon="6.57321">
        <ele>1086.5</ele>
        <time>2021-09-18T09:04:14Z</time>
      </trkpt>
      <trkpt lat="43.86893" lon="6.57326">
        <ele>1086.8</ele>
        <time>2021-09-18T09:04:15Z</time>
      </trkpt>
      <trkpt lat="43.86895" lon="6.5733">
        <ele>1087</ele>
        <time>2021-09-18T09:04:16Z</time>
      </trkpt>
      <trkpt lat="43.86897" lon="6.57334">
        <ele>1087.2</ele>
        <time>2021-09-18T09:04:18Z</time>
      </trkpt>
      <trkpt lat="43.869" lon="6.5734">
        <ele>1087.6</ele>
        <time>2021-09-18T09:04:20Z</time>
      </trkpt>
      <trkpt lat="43.86901" lon="6.57343">
        <ele>1087.7</ele>
        <time>2021-09-18T09:04:21Z</time>
      </trkpt>
      <trkpt lat="43.86903" lon="6.57346">
        <ele>1087.9</ele>
        <time>2021-09-18T09:04:22Z</time>
      </trkpt>
      <trkpt lat="43.86906" lon="6.57351">
        <ele>1088.2</ele>
        <time>2021-09-18T09:04:23Z</time>
      </trkpt>
      <trkpt lat="43.86908" lon="6.57354">
        <ele>1088.4</ele>
        <time>2021-09-18T09:04:25Z</time>
      </trkpt>
      <trkpt lat="43.86911" lon="6.57357">
        <ele>1088.6</ele>
        <time>2021-09-18T09:04:26Z</time>
      </trkpt>
      <trkpt lat="43.86912" lon="6.5736">
        <ele>1088.8</ele>
        <time>2021-09-18T09:04:27Z</time>
      </trkpt>
      <trkpt lat="43.86912" lon="6.57361">
        <ele>1088.8</ele>
        <time>2021-09-18T09:04:29Z</time>
      </trkpt>
      <trkpt lat="43.86908" lon="6.57359">
        <ele>1089</ele>
        <time>2021-09-18T09:04:31Z</time>
      </trkpt>
      <trkpt lat="43.86907" lon="6.57359">
        <ele>1089.1</ele>
        <time>2021-09-18T09:04:32Z</time>
      </trkpt>
      <trkpt lat="43.86907" lon="6.57359">
        <ele>1089.1</ele>
        <time>2021-09-18T09:04:33Z</time>
      </trkpt>
      <trkpt lat="43.86907" lon="6.5736">
        <ele>1089.2</ele>
        <time>2021-09-18T09:04:34Z</time>
      </trkpt>
      <trkpt lat="43.86907" lon="6.57362">
        <ele>1089.2</ele>
        <time>2021-09-18T09:04:36Z</time>
      </trkpt>
      <trkpt lat="43.86907" lon="6.57363">
        <ele>1089.3</ele>
        <time>2021-09-18T09:04:37Z</time>
      </trkpt>
      <trkpt lat="43.86913" lon="6.57382">
        <ele>1090.4</ele>
        <time>2021-09-18T09:04:49Z</time>
      </trkpt>
      <trkpt lat="43.86915" lon="6.57388">
        <ele>1090.7</ele>
        <time>2021-09-18T09:04:51Z</time>
      </trkpt>
      <trkpt lat="43.86917" lon="6.57396">
        <ele>1091.2</ele>
        <time>2021-09-18T09:04:53Z</time>
      </trkpt>
      <trkpt lat="43.86916" lon="6.57402">
        <ele>1091.6</ele>
        <time>2021-09-18T09:04:55Z</time>
      </trkpt>
      <trkpt lat="43.86915" lon="6.57405">
        <ele>1091.8</ele>
        <time>2021-09-18T09:04:56Z</time>
      </trkpt>
      <trkpt lat="43.86915" lon="6.57407">
        <ele>1091.9</ele>
        <time>2021-09-18T09:04:58Z</time>
      </trkpt>
      <trkpt lat="43.86916" lon="6.57409">
        <ele>1092.1</ele>
        <time>2021-09-18T09:05:00Z</time>
      </trkpt>
      <trkpt lat="43.86916" lon="6.5741">
        <ele>1092.1</ele>
        <time>2021-09-18T09:05:01Z</time>
      </trkpt>
      <trkpt lat="43.86916" lon="6.57411">
        <ele>1092.2</ele>
        <time>2021-09-18T09:05:02Z</time>
      </trkpt>
      <trkpt lat="43.86917" lon="6.57412">
        <ele>1092.2</ele>
        <time>2021-09-18T09:05:03Z</time>
      </trkpt>
      <trkpt lat="43.86918" lon="6.57415">
        <ele>1092.5</ele>
        <time>2021-09-18T09:05:05Z</time>
      </trkpt>
      <trkpt lat="43.86919" lon="6.57418">
        <ele>1092.7</ele>
        <time>2021-09-18T09:05:06Z</time>
      </trkpt>
      <trkpt lat="43.86917" lon="6.57427">
        <ele>1093.3</ele>
        <time>2021-09-18T09:05:15Z</time>
      </trkpt>
      <trkpt lat="43.86915" lon="6.57432">
        <ele>1093.6</ele>
        <time>2021-09-18T09:05:17Z</time>
      </trkpt>
      <trkpt lat="43.86913" lon="6.57438">
        <ele>1093.9</ele>
        <time>2021-09-18T09:05:18Z</time>
      </trkpt>
      <trkpt lat="43.86912" lon="6.57441">
        <ele>1094.2</ele>
        <time>2021-09-18T09:05:19Z</time>
      </trkpt>
      <trkpt lat="43.8691" lon="6.57443">
        <ele>1094.3</ele>
        <time>2021-09-18T09:05:20Z</time>
      </trkpt>
      <trkpt lat="43.86908" lon="6.57446">
        <ele>1094.6</ele>
        <time>2021-09-18T09:05:22Z</time>
      </trkpt>
      <trkpt lat="43.86907" lon="6.57448">
        <ele>1094.7</ele>
        <time>2021-09-18T09:05:23Z</time>
      </trkpt>
      <trkpt lat="43.86905" lon="6.5745">
        <ele>1094.8</ele>
        <time>2021-09-18T09:05:24Z</time>
      </trkpt>
      <trkpt lat="43.86901" lon="6.57453">
        <ele>1095.2</ele>
        <time>2021-09-18T09:05:26Z</time>
      </trkpt>
      <trkpt lat="43.869" lon="6.57453">
        <ele>1095.3</ele>
        <time>2021-09-18T09:05:27Z</time>
      </trkpt>
      <trkpt lat="43.86898" lon="6.57454">
        <ele>1095.4</ele>
        <time>2021-09-18T09:05:29Z</time>
      </trkpt>
      <trkpt lat="43.86896" lon="6.57454">
        <ele>1095.6</ele>
        <time>2021-09-18T09:05:30Z</time>
      </trkpt>
      <trkpt lat="43.86895" lon="6.57455">
        <ele>1095.7</ele>
        <time>2021-09-18T09:05:31Z</time>
      </trkpt>
      <trkpt lat="43.86894" lon="6.57456">
        <ele>1095.8</ele>
        <time>2021-09-18T09:05:32Z</time>
      </trkpt>
      <trkpt lat="43.86893" lon="6.57458">
        <ele>1095.9</ele>
        <time>2021-09-18T09:05:34Z</time>
      </trkpt>
      <trkpt lat="43.86893" lon="6.57461">
        <ele>1096.1</ele>
        <time>2021-09-18T09:05:35Z</time>
      </trkpt>
      <trkpt lat="43.86892" lon="6.57463">
        <ele>1096.2</ele>
        <time>2021-09-18T09:05:36Z</time>
      </trkpt>
      <trkpt lat="43.86891" lon="6.57466">
        <ele>1096.3</ele>
        <time>2021-09-18T09:05:38Z</time>
      </trkpt>
      <trkpt lat="43.86892" lon="6.5747">
        <ele>1096.6</ele>
        <time>2021-09-18T09:05:39Z</time>
      </trkpt>
      <trkpt lat="43.86892" lon="6.57471">
        <ele>1096.6</ele>
        <time>2021-09-18T09:05:40Z</time>
      </trkpt>
      <trkpt lat="43.86894" lon="6.57477">
        <ele>1097</ele>
        <time>2021-09-18T09:05:42Z</time>
      </trkpt>
      <trkpt lat="43.86899" lon="6.57483">
        <ele>1097.5</ele>
        <time>2021-09-18T09:05:43Z</time>
      </trkpt>
      <trkpt lat="43.86901" lon="6.57485">
        <ele>1097.8</ele>
        <time>2021-09-18T09:05:45Z</time>
      </trkpt>
      <trkpt lat="43.86902" lon="6.57485">
        <ele>1097.8</ele>
        <time>2021-09-18T09:05:46Z</time>
      </trkpt>
      <trkpt lat="43.86908" lon="6.57484">
        <ele>1098.3</ele>
        <time>2021-09-18T09:05:48Z</time>
      </trkpt>
      <trkpt lat="43.86912" lon="6.57482">
        <ele>1098.6</ele>
        <time>2021-09-18T09:05:49Z</time>
      </trkpt>
      <trkpt lat="43.86915" lon="6.5748">
        <ele>1098.9</ele>
        <time>2021-09-18T09:05:50Z</time>
      </trkpt>
      <trkpt lat="43.86918" lon="6.57474">
        <ele>1099.3</ele>
        <time>2021-09-18T09:05:52Z</time>
      </trkpt>
      <trkpt lat="43.8692" lon="6.57469">
        <ele>1099.5</ele>
        <time>2021-09-18T09:05:54Z</time>
      </trkpt>
      <trkpt lat="43.86922" lon="6.57465">
        <ele>1099.8</ele>
        <time>2021-09-18T09:05:55Z</time>
      </trkpt>
      <trkpt lat="43.86923" lon="6.57463">
        <ele>1099.9</ele>
        <time>2021-09-18T09:05:57Z</time>
      </trkpt>
      <trkpt lat="43.86923" lon="6.57465">
        <ele>1100</ele>
        <time>2021-09-18T09:05:58Z</time>
      </trkpt>
      <trkpt lat="43.86924" lon="6.57465">
        <ele>1100</ele>
        <time>2021-09-18T09:05:59Z</time>
      </trkpt>
      <trkpt lat="43.86924" lon="6.57465">
        <ele>1100</ele>
        <time>2021-09-18T09:06:01Z</time>
      </trkpt>
      <trkpt lat="43.86925" lon="6.57464">
        <ele>1100.1</ele>
        <time>2021-09-18T09:06:02Z</time>
      </trkpt>
      <trkpt lat="43.86926" lon="6.57464">
        <ele>1100.1</ele>
        <time>2021-09-18T09:06:03Z</time>
      </trkpt>
      <trkpt lat="43.86927" lon="6.57464">
        <ele>1100.2</ele>
        <time>2021-09-18T09:06:05Z</time>
      </trkpt>
      <trkpt lat="43.86938" lon="6.57455">
        <ele>1101</ele>
        <time>2021-09-18T09:06:16Z</time>
      </trkpt>
      <trkpt lat="43.8694" lon="6.5745">
        <ele>1101.3</ele>
        <time>2021-09-18T09:06:18Z</time>
      </trkpt>
      <trkpt lat="43.8694" lon="6.5745">
        <ele>1101.3</ele>
        <time>2021-09-18T09:06:20Z</time>
      </trkpt>
      <trkpt lat="43.86944" lon="6.57437">
        <ele>1101.9</ele>
        <time>2021-09-18T09:06:22Z</time>
      </trkpt>
      <trkpt lat="43.86949" lon="6.57419">
        <ele>1102.8</ele>
        <time>2021-09-18T09:06:23Z</time>
      </trkpt>
      <trkpt lat="43.86951" lon="6.57413">
        <ele>1102.9</ele>
        <time>2021-09-18T09:06:24Z</time>
      </trkpt>
      <trkpt lat="43.86952" lon="6.57412">
        <ele>1103.2</ele>
        <time>2021-09-18T09:06:25Z</time>
      </trkpt>
      <trkpt lat="43.86953" lon="6.57411">
        <ele>1103.4</ele>
        <time>2021-09-18T09:06:27Z</time>
      </trkpt>
      <trkpt lat="43.86953" lon="6.57411">
        <ele>1103.6</ele>
        <time>2021-09-18T09:06:28Z</time>
      </trkpt>
      <trkpt lat="43.86954" lon="6.57413">
        <ele>1103.9</ele>
        <time>2021-09-18T09:06:29Z</time>
      </trkpt>
      <trkpt lat="43.86955" lon="6.57417">
        <ele>1104.6</ele>
        <time>2021-09-18T09:06:30Z</time>
      </trkpt>
      <trkpt lat="43.86956" lon="6.5742">
        <ele>1105.3</ele>
        <time>2021-09-18T09:06:31Z</time>
      </trkpt>
      <trkpt lat="43.86957" lon="6.57424">
        <ele>1106.1</ele>
        <time>2021-09-18T09:06:32Z</time>
      </trkpt>
      <trkpt lat="43.86959" lon="6.57431">
        <ele>1107.5</ele>
        <time>2021-09-18T09:06:34Z</time>
      </trkpt>
      <trkpt lat="43.8696" lon="6.57436">
        <ele>1108.6</ele>
        <time>2021-09-18T09:06:35Z</time>
      </trkpt>
      <trkpt lat="43.8696" lon="6.5744">
        <ele>1109.5</ele>
        <time>2021-09-18T09:06:36Z</time>
      </trkpt>
      <trkpt lat="43.86959" lon="6.57444">
        <ele>1110.3</ele>
        <time>2021-09-18T09:06:38Z</time>
      </trkpt>
      <trkpt lat="43.86958" lon="6.57448">
        <ele>1111.2</ele>
        <time>2021-09-18T09:06:39Z</time>
      </trkpt>
      <trkpt lat="43.86957" lon="6.57451">
        <ele>1111.9</ele>
        <time>2021-09-18T09:06:41Z</time>
      </trkpt>
      <trkpt lat="43.86957" lon="6.57452">
        <ele>1112.1</ele>
        <time>2021-09-18T09:06:42Z</time>
      </trkpt>
      <trkpt lat="43.86956" lon="6.57453">
        <ele>1112.5</ele>
        <time>2021-09-18T09:06:43Z</time>
      </trkpt>
      <trkpt lat="43.86955" lon="6.57455">
        <ele>1112.9</ele>
        <time>2021-09-18T09:06:45Z</time>
      </trkpt>
      <trkpt lat="43.86953" lon="6.57457">
        <ele>1113.7</ele>
        <time>2021-09-18T09:06:46Z</time>
      </trkpt>
      <trkpt lat="43.86949" lon="6.57462">
        <ele>1115</ele>
        <time>2021-09-18T09:06:49Z</time>
      </trkpt>
      <trkpt lat="43.86947" lon="6.57466">
        <ele>1116</ele>
        <time>2021-09-18T09:06:50Z</time>
      </trkpt>
      <trkpt lat="43.86946" lon="6.57467">
        <ele>1116.5</ele>
        <time>2021-09-18T09:06:51Z</time>
      </trkpt>
      <trkpt lat="43.86944" lon="6.57469">
        <ele>1117</ele>
        <time>2021-09-18T09:06:52Z</time>
      </trkpt>
      <trkpt lat="43.86942" lon="6.57473">
        <ele>1118</ele>
        <time>2021-09-18T09:06:54Z</time>
      </trkpt>
      <trkpt lat="43.86941" lon="6.57477">
        <ele>1118.8</ele>
        <time>2021-09-18T09:06:55Z</time>
      </trkpt>
      <trkpt lat="43.86939" lon="6.57484">
        <ele>1120.1</ele>
        <time>2021-09-18T09:06:56Z</time>
      </trkpt>
      <trkpt lat="43.86938" lon="6.57488">
        <ele>1120.9</ele>
        <time>2021-09-18T09:06:58Z</time>
      </trkpt>
      <trkpt lat="43.86937" lon="6.57489">
        <ele>1121.2</ele>
        <time>2021-09-18T09:06:59Z</time>
      </trkpt>
      <trkpt lat="43.86936" lon="6.57491">
        <ele>1121.7</ele>
        <time>2021-09-18T09:07:00Z</time>
      </trkpt>
      <trkpt lat="43.86933" lon="6.57494">
        <ele>1122.8</ele>
        <time>2021-09-18T09:07:02Z</time>
      </trkpt>
      <trkpt lat="43.8693" lon="6.57499">
        <ele>1124.5</ele>
        <time>2021-09-18T09:07:03Z</time>
      </trkpt>
      <trkpt lat="43.86927" lon="6.57503">
        <ele>1125.6</ele>
        <time>2021-09-18T09:07:04Z</time>
      </trkpt>
      <trkpt lat="43.86925" lon="6.57506">
        <ele>1126.7</ele>
        <time>2021-09-18T09:07:05Z</time>
      </trkpt>
      <trkpt lat="43.86923" lon="6.57508">
        <ele>1127.7</ele>
        <time>2021-09-18T09:07:07Z</time>
      </trkpt>
      <trkpt lat="43.86921" lon="6.57512">
        <ele>1127.4</ele>
        <time>2021-09-18T09:07:08Z</time>
      </trkpt>
      <trkpt lat="43.86918" lon="6.57515">
        <ele>1126.6</ele>
        <time>2021-09-18T09:07:09Z</time>
      </trkpt>
      <trkpt lat="43.86917" lon="6.57515">
        <ele>1127.3</ele>
        <time>2021-09-18T09:07:10Z</time>
      </trkpt>
      <trkpt lat="43.86917" lon="6.57515">
        <ele>1127.6</ele>
        <time>2021-09-18T09:07:11Z</time>
      </trkpt>
      <trkpt lat="43.86916" lon="6.57514">
        <ele>1126.2</ele>
        <time>2021-09-18T09:07:12Z</time>
      </trkpt>
      <trkpt lat="43.86914" lon="6.57512">
        <ele>1126.5</ele>
        <time>2021-09-18T09:07:14Z</time>
      </trkpt>
      <trkpt lat="43.86913" lon="6.5751">
        <ele>1125.2</ele>
        <time>2021-09-18T09:07:16Z</time>
      </trkpt>
      <trkpt lat="43.86912" lon="6.5751">
        <ele>1125.5</ele>
        <time>2021-09-18T09:07:17Z</time>
      </trkpt>
      <trkpt lat="43.86911" lon="6.5751">
        <ele>1126.3</ele>
        <time>2021-09-18T09:07:18Z</time>
      </trkpt>
      <trkpt lat="43.86909" lon="6.5751">
        <ele>1125.1</ele>
        <time>2021-09-18T09:07:20Z</time>
      </trkpt>
      <trkpt lat="43.86908" lon="6.5751">
        <ele>1125.4</ele>
        <time>2021-09-18T09:07:21Z</time>
      </trkpt>
      <trkpt lat="43.86907" lon="6.57508">
        <ele>1125.6</ele>
        <time>2021-09-18T09:07:23Z</time>
      </trkpt>
      <trkpt lat="43.86906" lon="6.5751">
        <ele>1125</ele>
        <time>2021-09-18T09:07:24Z</time>
      </trkpt>
      <trkpt lat="43.86905" lon="6.5751">
        <ele>1125.3</ele>
        <time>2021-09-18T09:07:26Z</time>
      </trkpt>
      <trkpt lat="43.86904" lon="6.5751">
        <ele>1125.5</ele>
        <time>2021-09-18T09:07:27Z</time>
      </trkpt>
      <trkpt lat="43.86902" lon="6.5751">
        <ele>1124.9</ele>
        <time>2021-09-18T09:07:29Z</time>
      </trkpt>
      <trkpt lat="43.86901" lon="6.5751">
        <ele>1125.7</ele>
        <time>2021-09-18T09:07:31Z</time>
      </trkpt>
      <trkpt lat="43.869" lon="6.57511">
        <ele>1126</ele>
        <time>2021-09-18T09:07:32Z</time>
      </trkpt>
      <trkpt lat="43.86899" lon="6.57514">
        <ele>1125.4</ele>
        <time>2021-09-18T09:07:33Z</time>
      </trkpt>
      <trkpt lat="43.86898" lon="6.57515">
        <ele>1126.2</ele>
        <time>2021-09-18T09:07:34Z</time>
      </trkpt>
      <trkpt lat="43.86896" lon="6.5752">
        <ele>1126.1</ele>
        <time>2021-09-18T09:07:36Z</time>
      </trkpt>
      <trkpt lat="43.86895" lon="6.57522">
        <ele>1126.3</ele>
        <time>2021-09-18T09:07:37Z</time>
      </trkpt>
      <trkpt lat="43.86894" lon="6.57528">
        <ele>1126.8</ele>
        <time>2021-09-18T09:07:39Z</time>
      </trkpt>
      <trkpt lat="43.86892" lon="6.57535">
        <ele>1127.4</ele>
        <time>2021-09-18T09:07:41Z</time>
      </trkpt>
      <trkpt lat="43.8689" lon="6.57537">
        <ele>1127.7</ele>
        <time>2021-09-18T09:07:42Z</time>
      </trkpt>
      <trkpt lat="43.86889" lon="6.57537">
        <ele>1127.8</ele>
        <time>2021-09-18T09:07:43Z</time>
      </trkpt>
      <trkpt lat="43.86886" lon="6.57536">
        <ele>1128</ele>
        <time>2021-09-18T09:07:45Z</time>
      </trkpt>
      <trkpt lat="43.86885" lon="6.57536">
        <ele>1128.1</ele>
        <time>2021-09-18T09:07:46Z</time>
      </trkpt>
      <trkpt lat="43.86883" lon="6.57537">
        <ele>1128.2</ele>
        <time>2021-09-18T09:07:47Z</time>
      </trkpt>
      <trkpt lat="43.86879" lon="6.57539">
        <ele>1128.4</ele>
        <time>2021-09-18T09:07:49Z</time>
      </trkpt>
      <trkpt lat="43.86878" lon="6.57542">
        <ele>1128.6</ele>
        <time>2021-09-18T09:07:50Z</time>
      </trkpt>
      <trkpt lat="43.86875" lon="6.57549">
        <ele>1128.8</ele>
        <time>2021-09-18T09:07:52Z</time>
      </trkpt>
      <trkpt lat="43.86874" lon="6.57554">
        <ele>1128.9</ele>
        <time>2021-09-18T09:07:53Z</time>
      </trkpt>
      <trkpt lat="43.86872" lon="6.57559">
        <ele>1129</ele>
        <time>2021-09-18T09:07:54Z</time>
      </trkpt>
      <trkpt lat="43.86872" lon="6.57565">
        <ele>1129.1</ele>
        <time>2021-09-18T09:07:55Z</time>
      </trkpt>
      <trkpt lat="43.86871" lon="6.57572">
        <ele>1129.2</ele>
        <time>2021-09-18T09:07:57Z</time>
      </trkpt>
      <trkpt lat="43.86871" lon="6.57579">
        <ele>1129.3</ele>
        <time>2021-09-18T09:07:59Z</time>
      </trkpt>
      <trkpt lat="43.86871" lon="6.57579">
        <ele>1129.3</ele>
        <time>2021-09-18T09:08:00Z</time>
      </trkpt>
      <trkpt lat="43.86871" lon="6.5758">
        <ele>1129.3</ele>
        <time>2021-09-18T09:08:01Z</time>
      </trkpt>
      <trkpt lat="43.86872" lon="6.57581">
        <ele>1129.3</ele>
        <time>2021-09-18T09:08:02Z</time>
      </trkpt>
      <trkpt lat="43.86873" lon="6.57586">
        <ele>1129.4</ele>
        <time>2021-09-18T09:08:04Z</time>
      </trkpt>
      <trkpt lat="43.86873" lon="6.5759">
        <ele>1129.6</ele>
        <time>2021-09-18T09:08:05Z</time>
      </trkpt>
      <trkpt lat="43.86874" lon="6.57592">
        <ele>1129.6</ele>
        <time>2021-09-18T09:08:06Z</time>
      </trkpt>
      <trkpt lat="43.86875" lon="6.57597">
        <ele>1129.9</ele>
        <time>2021-09-18T09:08:07Z</time>
      </trkpt>
      <trkpt lat="43.86877" lon="6.57601">
        <ele>1130</ele>
        <time>2021-09-18T09:08:08Z</time>
      </trkpt>
      <trkpt lat="43.86877" lon="6.57602">
        <ele>1130.1</ele>
        <time>2021-09-18T09:08:09Z</time>
      </trkpt>
      <trkpt lat="43.86878" lon="6.57606">
        <ele>1130.3</ele>
        <time>2021-09-18T09:08:11Z</time>
      </trkpt>
      <trkpt lat="43.86878" lon="6.57608">
        <ele>1130.4</ele>
        <time>2021-09-18T09:08:12Z</time>
      </trkpt>
      <trkpt lat="43.86878" lon="6.5761">
        <ele>1130.5</ele>
        <time>2021-09-18T09:08:13Z</time>
      </trkpt>
      <trkpt lat="43.86879" lon="6.57613">
        <ele>1130.6</ele>
        <time>2021-09-18T09:08:15Z</time>
      </trkpt>
      <trkpt lat="43.8688" lon="6.57615">
        <ele>1130.8</ele>
        <time>2021-09-18T09:08:16Z</time>
      </trkpt>
      <trkpt lat="43.86881" lon="6.57618">
        <ele>1131</ele>
        <time>2021-09-18T09:08:18Z</time>
      </trkpt>
      <trkpt lat="43.86882" lon="6.57622">
        <ele>1131.2</ele>
        <time>2021-09-18T09:08:19Z</time>
      </trkpt>
      <trkpt lat="43.86883" lon="6.57624">
        <ele>1131.3</ele>
        <time>2021-09-18T09:08:20Z</time>
      </trkpt>
      <trkpt lat="43.86884" lon="6.57628">
        <ele>1131.6</ele>
        <time>2021-09-18T09:08:22Z</time>
      </trkpt>
      <trkpt lat="43.86885" lon="6.5763">
        <ele>1131.7</ele>
        <time>2021-09-18T09:08:23Z</time>
      </trkpt>
      <trkpt lat="43.86886" lon="6.57634">
        <ele>1131.9</ele>
        <time>2021-09-18T09:08:25Z</time>
      </trkpt>
      <trkpt lat="43.86886" lon="6.57635">
        <ele>1132</ele>
        <time>2021-09-18T09:08:26Z</time>
      </trkpt>
      <trkpt lat="43.86888" lon="6.57637">
        <ele>1132.2</ele>
        <time>2021-09-18T09:08:27Z</time>
      </trkpt>
      <trkpt lat="43.8689" lon="6.57639">
        <ele>1132.4</ele>
        <time>2021-09-18T09:08:29Z</time>
      </trkpt>
      <trkpt lat="43.86892" lon="6.57641">
        <ele>1132.5</ele>
        <time>2021-09-18T09:08:30Z</time>
      </trkpt>
      <trkpt lat="43.86892" lon="6.5764">
        <ele>1132.6</ele>
        <time>2021-09-18T09:08:31Z</time>
      </trkpt>
      <trkpt lat="43.86893" lon="6.5764">
        <ele>1132.6</ele>
        <time>2021-09-18T09:08:32Z</time>
      </trkpt>
      <trkpt lat="43.86893" lon="6.5764">
        <ele>1132.6</ele>
        <time>2021-09-18T09:08:33Z</time>
      </trkpt>
      <trkpt lat="43.86892" lon="6.57641">
        <ele>1132.6</ele>
        <time>2021-09-18T09:08:35Z</time>
      </trkpt>
      <trkpt lat="43.86891" lon="6.57642">
        <ele>1132.7</ele>
        <time>2021-09-18T09:08:36Z</time>
      </trkpt>
      <trkpt lat="43.8689" lon="6.57643">
        <ele>1132.8</ele>
        <time>2021-09-18T09:08:38Z</time>
      </trkpt>
      <trkpt lat="43.8689" lon="6.57643">
        <ele>1132.8</ele>
        <time>2021-09-18T09:08:39Z</time>
      </trkpt>
      <trkpt lat="43.86889" lon="6.57643">
        <ele>1132.9</ele>
        <time>2021-09-18T09:08:41Z</time>
      </trkpt>
      <trkpt lat="43.86888" lon="6.57644">
        <ele>1132.9</ele>
        <time>2021-09-18T09:08:42Z</time>
      </trkpt>
      <trkpt lat="43.86888" lon="6.57644">
        <ele>1133</ele>
        <time>2021-09-18T09:08:43Z</time>
      </trkpt>
      <trkpt lat="43.86888" lon="6.57644">
        <ele>1133</ele>
        <time>2021-09-18T09:08:45Z</time>
      </trkpt>
      <trkpt lat="43.86889" lon="6.57645">
        <ele>1133</ele>
        <time>2021-09-18T09:08:46Z</time>
      </trkpt>
      <trkpt lat="43.86889" lon="6.57646">
        <ele>1133.1</ele>
        <time>2021-09-18T09:08:48Z</time>
      </trkpt>
      <trkpt lat="43.86889" lon="6.57647">
        <ele>1133.1</ele>
        <time>2021-09-18T09:08:49Z</time>
      </trkpt>
      <trkpt lat="43.8689" lon="6.57648">
        <ele>1133.2</ele>
        <time>2021-09-18T09:08:51Z</time>
      </trkpt>
      <trkpt lat="43.8689" lon="6.57649">
        <ele>1133.2</ele>
        <time>2021-09-18T09:08:52Z</time>
      </trkpt>
      <trkpt lat="43.86895" lon="6.57667">
        <ele>1134.1</ele>
        <time>2021-09-18T09:09:04Z</time>
      </trkpt>
      <trkpt lat="43.86896" lon="6.57672">
        <ele>1134.3</ele>
        <time>2021-09-18T09:09:07Z</time>
      </trkpt>
      <trkpt lat="43.86896" lon="6.57674">
        <ele>1134.4</ele>
        <time>2021-09-18T09:09:08Z</time>
      </trkpt>
      <trkpt lat="43.86896" lon="6.57676">
        <ele>1134.6</ele>
        <time>2021-09-18T09:09:09Z</time>
      </trkpt>
      <trkpt lat="43.86897" lon="6.57677">
        <ele>1134.6</ele>
        <time>2021-09-18T09:09:10Z</time>
      </trkpt>
      <trkpt lat="43.86897" lon="6.57678">
        <ele>1134.7</ele>
        <time>2021-09-18T09:09:11Z</time>
      </trkpt>
      <trkpt lat="43.86898" lon="6.57679">
        <ele>1134.7</ele>
        <time>2021-09-18T09:09:13Z</time>
      </trkpt>
      <trkpt lat="43.86899" lon="6.5768">
        <ele>1134.8</ele>
        <time>2021-09-18T09:09:14Z</time>
      </trkpt>
      <trkpt lat="43.86899" lon="6.57681">
        <ele>1134.9</ele>
        <time>2021-09-18T09:09:15Z</time>
      </trkpt>
      <trkpt lat="43.86901" lon="6.57683">
        <ele>1135</ele>
        <time>2021-09-18T09:09:17Z</time>
      </trkpt>
      <trkpt lat="43.86901" lon="6.57684">
        <ele>1135.1</ele>
        <time>2021-09-18T09:09:18Z</time>
      </trkpt>
      <trkpt lat="43.86902" lon="6.57685">
        <ele>1135.2</ele>
        <time>2021-09-18T09:09:20Z</time>
      </trkpt>
      <trkpt lat="43.86902" lon="6.57686">
        <ele>1135.2</ele>
        <time>2021-09-18T09:09:21Z</time>
      </trkpt>
      <trkpt lat="43.86904" lon="6.57694">
        <ele>1135.7</ele>
        <time>2021-09-18T09:09:24Z</time>
      </trkpt>
      <trkpt lat="43.86906" lon="6.57699">
        <ele>1135.9</ele>
        <time>2021-09-18T09:09:26Z</time>
      </trkpt>
      <trkpt lat="43.86907" lon="6.577">
        <ele>1135.9</ele>
        <time>2021-09-18T09:09:27Z</time>
      </trkpt>
      <trkpt lat="43.86908" lon="6.57701">
        <ele>1136</ele>
        <time>2021-09-18T09:09:28Z</time>
      </trkpt>
      <trkpt lat="43.86909" lon="6.57703">
        <ele>1136.2</ele>
        <time>2021-09-18T09:09:29Z</time>
      </trkpt>
      <trkpt lat="43.86911" lon="6.57704">
        <ele>1136.3</ele>
        <time>2021-09-18T09:09:31Z</time>
      </trkpt>
      <trkpt lat="43.86912" lon="6.57705">
        <ele>1136.4</ele>
        <time>2021-09-18T09:09:32Z</time>
      </trkpt>
      <trkpt lat="43.86913" lon="6.57705">
        <ele>1136.5</ele>
        <time>2021-09-18T09:09:33Z</time>
      </trkpt>
      <trkpt lat="43.86913" lon="6.57704">
        <ele>1136.5</ele>
        <time>2021-09-18T09:09:35Z</time>
      </trkpt>
      <trkpt lat="43.86913" lon="6.57703">
        <ele>1136.6</ele>
        <time>2021-09-18T09:09:36Z</time>
      </trkpt>
      <trkpt lat="43.86913" lon="6.57701">
        <ele>1136.7</ele>
        <time>2021-09-18T09:09:37Z</time>
      </trkpt>
      <trkpt lat="43.86912" lon="6.57699">
        <ele>1136.9</ele>
        <time>2021-09-18T09:09:39Z</time>
      </trkpt>
      <trkpt lat="43.86912" lon="6.57697">
        <ele>1136.9</ele>
        <time>2021-09-18T09:09:40Z</time>
      </trkpt>
      <trkpt lat="43.86912" lon="6.57696">
        <ele>1137</ele>
        <time>2021-09-18T09:09:41Z</time>
      </trkpt>
      <trkpt lat="43.86912" lon="6.57694">
        <ele>1137.1</ele>
        <time>2021-09-18T09:09:42Z</time>
      </trkpt>
      <trkpt lat="43.86912" lon="6.57692">
        <ele>1137.2</ele>
        <time>2021-09-18T09:09:43Z</time>
      </trkpt>
      <trkpt lat="43.86912" lon="6.5769">
        <ele>1137.3</ele>
        <time>2021-09-18T09:09:45Z</time>
      </trkpt>
      <trkpt lat="43.86916" lon="6.57682">
        <ele>1137.8</ele>
        <time>2021-09-18T09:09:49Z</time>
      </trkpt>
      <trkpt lat="43.86918" lon="6.57681">
        <ele>1137.9</ele>
        <time>2021-09-18T09:09:50Z</time>
      </trkpt>
      <trkpt lat="43.8692" lon="6.5768">
        <ele>1138.1</ele>
        <time>2021-09-18T09:09:52Z</time>
      </trkpt>
      <trkpt lat="43.86923" lon="6.57678">
        <ele>1138.3</ele>
        <time>2021-09-18T09:09:53Z</time>
      </trkpt>
      <trkpt lat="43.86924" lon="6.57675">
        <ele>1138.5</ele>
        <time>2021-09-18T09:09:55Z</time>
      </trkpt>
      <trkpt lat="43.86924" lon="6.57675">
        <ele>1138.5</ele>
        <time>2021-09-18T09:09:56Z</time>
      </trkpt>
      <trkpt lat="43.86925" lon="6.57674">
        <ele>1138.6</ele>
        <time>2021-09-18T09:09:57Z</time>
      </trkpt>
      <trkpt lat="43.86927" lon="6.5767">
        <ele>1138.8</ele>
        <time>2021-09-18T09:09:59Z</time>
      </trkpt>
      <trkpt lat="43.86927" lon="6.57668">
        <ele>1138.9</ele>
        <time>2021-09-18T09:10:00Z</time>
      </trkpt>
      <trkpt lat="43.86929" lon="6.57663">
        <ele>1139.2</ele>
        <time>2021-09-18T09:10:01Z</time>
      </trkpt>
      <trkpt lat="43.86931" lon="6.57659">
        <ele>1139.4</ele>
        <time>2021-09-18T09:10:03Z</time>
      </trkpt>
      <trkpt lat="43.86933" lon="6.57658">
        <ele>1139.5</ele>
        <time>2021-09-18T09:10:04Z</time>
      </trkpt>
      <trkpt lat="43.86933" lon="6.57654">
        <ele>1139.6</ele>
        <time>2021-09-18T09:10:05Z</time>
      </trkpt>
      <trkpt lat="43.86934" lon="6.57651">
        <ele>1139.7</ele>
        <time>2021-09-18T09:10:06Z</time>
      </trkpt>
      <trkpt lat="43.86934" lon="6.57649">
        <ele>1139.8</ele>
        <time>2021-09-18T09:10:07Z</time>
      </trkpt>
      <trkpt lat="43.86934" lon="6.57647">
        <ele>1139.8</ele>
        <time>2021-09-18T09:10:09Z</time>
      </trkpt>
      <trkpt lat="43.86934" lon="6.57646">
        <ele>1139.8</ele>
        <time>2021-09-18T09:10:10Z</time>
      </trkpt>
      <trkpt lat="43.86934" lon="6.57644">
        <ele>1139.9</ele>
        <time>2021-09-18T09:10:11Z</time>
      </trkpt>
      <trkpt lat="43.86934" lon="6.57644">
        <ele>1139.9</ele>
        <time>2021-09-18T09:10:12Z</time>
      </trkpt>
      <trkpt lat="43.86933" lon="6.57645">
        <ele>1139.9</ele>
        <time>2021-09-18T09:10:14Z</time>
      </trkpt>
      <trkpt lat="43.86932" lon="6.57643">
        <ele>1139.8</ele>
        <time>2021-09-18T09:10:15Z</time>
      </trkpt>
      <trkpt lat="43.86931" lon="6.57642">
        <ele>1139.8</ele>
        <time>2021-09-18T09:10:16Z</time>
      </trkpt>
      <trkpt lat="43.86931" lon="6.57639">
        <ele>1139.6</ele>
        <time>2021-09-18T09:10:17Z</time>
      </trkpt>
      <trkpt lat="43.86932" lon="6.57637">
        <ele>1139.7</ele>
        <time>2021-09-18T09:10:18Z</time>
      </trkpt>
      <trkpt lat="43.86933" lon="6.57636">
        <ele>1139.7</ele>
        <time>2021-09-18T09:10:20Z</time>
      </trkpt>
      <trkpt lat="43.86933" lon="6.57635">
        <ele>1139.5</ele>
        <time>2021-09-18T09:10:21Z</time>
      </trkpt>
      <trkpt lat="43.86934" lon="6.57633">
        <ele>1139.5</ele>
        <time>2021-09-18T09:10:22Z</time>
      </trkpt>
      <trkpt lat="43.86935" lon="6.57632">
        <ele>1140.2</ele>
        <time>2021-09-18T09:10:23Z</time>
      </trkpt>
      <trkpt lat="43.86937" lon="6.5763">
        <ele>1140</ele>
        <time>2021-09-18T09:10:24Z</time>
      </trkpt>
      <trkpt lat="43.86938" lon="6.57627">
        <ele>1140.7</ele>
        <time>2021-09-18T09:10:25Z</time>
      </trkpt>
      <trkpt lat="43.8694" lon="6.57625">
        <ele>1140.5</ele>
        <time>2021-09-18T09:10:27Z</time>
      </trkpt>
      <trkpt lat="43.86941" lon="6.57624">
        <ele>1141.3</ele>
        <time>2021-09-18T09:10:28Z</time>
      </trkpt>
      <trkpt lat="43.86942" lon="6.5762">
        <ele>1141.1</ele>
        <time>2021-09-18T09:10:29Z</time>
      </trkpt>
      <trkpt lat="43.86943" lon="6.57616">
        <ele>1140.8</ele>
        <time>2021-09-18T09:10:30Z</time>
      </trkpt>
      <trkpt lat="43.86944" lon="6.57613">
        <ele>1141.4</ele>
        <time>2021-09-18T09:10:31Z</time>
      </trkpt>
      <trkpt lat="43.86946" lon="6.57607">
        <ele>1141.1</ele>
        <time>2021-09-18T09:10:32Z</time>
      </trkpt>
      <trkpt lat="43.86947" lon="6.57604">
        <ele>1141.7</ele>
        <time>2021-09-18T09:10:33Z</time>
      </trkpt>
      <trkpt lat="43.86948" lon="6.57602">
        <ele>1141.7</ele>
        <time>2021-09-18T09:10:35Z</time>
      </trkpt>
      <trkpt lat="43.86948" lon="6.57598">
        <ele>1141.4</ele>
        <time>2021-09-18T09:10:37Z</time>
      </trkpt>
      <trkpt lat="43.86947" lon="6.57597">
        <ele>1141.4</ele>
        <time>2021-09-18T09:10:38Z</time>
      </trkpt>
      <trkpt lat="43.86944" lon="6.57597">
        <ele>1140.6</ele>
        <time>2021-09-18T09:10:39Z</time>
      </trkpt>
      <trkpt lat="43.86943" lon="6.57596">
        <ele>1139.4</ele>
        <time>2021-09-18T09:10:40Z</time>
      </trkpt>
      <trkpt lat="43.86943" lon="6.57595">
        <ele>1139.5</ele>
        <time>2021-09-18T09:10:42Z</time>
      </trkpt>
      <trkpt lat="43.86943" lon="6.57594">
        <ele>1139.5</ele>
        <time>2021-09-18T09:10:43Z</time>
      </trkpt>
      <trkpt lat="43.86943" lon="6.57593">
        <ele>1139.5</ele>
        <time>2021-09-18T09:10:44Z</time>
      </trkpt>
      <trkpt lat="43.86943" lon="6.57593">
        <ele>1139.5</ele>
        <time>2021-09-18T09:10:46Z</time>
      </trkpt>
      <trkpt lat="43.86942" lon="6.57591">
        <ele>1139.2</ele>
        <time>2021-09-18T09:10:47Z</time>
      </trkpt>
      <trkpt lat="43.86939" lon="6.57586">
        <ele>1138</ele>
        <time>2021-09-18T09:10:49Z</time>
      </trkpt>
      <trkpt lat="43.86938" lon="6.57587">
        <ele>1138</ele>
        <time>2021-09-18T09:10:50Z</time>
      </trkpt>
      <trkpt lat="43.86938" lon="6.57589">
        <ele>1138.4</ele>
        <time>2021-09-18T09:10:51Z</time>
      </trkpt>
      <trkpt lat="43.86938" lon="6.5759">
        <ele>1138.4</ele>
        <time>2021-09-18T09:10:53Z</time>
      </trkpt>
      <trkpt lat="43.86938" lon="6.57592">
        <ele>1138.7</ele>
        <time>2021-09-18T09:10:54Z</time>
      </trkpt>
      <trkpt lat="43.86938" lon="6.57593">
        <ele>1138.7</ele>
        <time>2021-09-18T09:10:55Z</time>
      </trkpt>
      <trkpt lat="43.86938" lon="6.57596">
        <ele>1138.7</ele>
        <time>2021-09-18T09:10:57Z</time>
      </trkpt>
      <trkpt lat="43.86938" lon="6.57597">
        <ele>1139.1</ele>
        <time>2021-09-18T09:10:58Z</time>
      </trkpt>
      <trkpt lat="43.86939" lon="6.57599">
        <ele>1139.1</ele>
        <time>2021-09-18T09:10:59Z</time>
      </trkpt>
      <trkpt lat="43.86939" lon="6.57601">
        <ele>1139.4</ele>
        <time>2021-09-18T09:11:00Z</time>
      </trkpt>
      <trkpt lat="43.86939" lon="6.57602">
        <ele>1139.4</ele>
        <time>2021-09-18T09:11:01Z</time>
      </trkpt>
      <trkpt lat="43.8694" lon="6.57604">
        <ele>1139.4</ele>
        <time>2021-09-18T09:11:03Z</time>
      </trkpt>
      <trkpt lat="43.8694" lon="6.57605">
        <ele>1139.7</ele>
        <time>2021-09-18T09:11:04Z</time>
      </trkpt>
      <trkpt lat="43.8694" lon="6.57607">
        <ele>1139.8</ele>
        <time>2021-09-18T09:11:05Z</time>
      </trkpt>
      <trkpt lat="43.86941" lon="6.57609">
        <ele>1140.6</ele>
        <time>2021-09-18T09:11:06Z</time>
      </trkpt>
      <trkpt lat="43.86942" lon="6.57611">
        <ele>1140.9</ele>
        <time>2021-09-18T09:11:07Z</time>
      </trkpt>
      <trkpt lat="43.86948" lon="6.57622">
        <ele>1143.1</ele>
        <time>2021-09-18T09:11:16Z</time>
      </trkpt>
      <trkpt lat="43.86951" lon="6.57622">
        <ele>1143.5</ele>
        <time>2021-09-18T09:11:17Z</time>
      </trkpt>
      <trkpt lat="43.86953" lon="6.57622">
        <ele>1143.8</ele>
        <time>2021-09-18T09:11:18Z</time>
      </trkpt>
      <trkpt lat="43.86954" lon="6.57622">
        <ele>1144</ele>
        <time>2021-09-18T09:11:20Z</time>
      </trkpt>
      <trkpt lat="43.86955" lon="6.57621">
        <ele>1144.2</ele>
        <time>2021-09-18T09:11:21Z</time>
      </trkpt>
      <trkpt lat="43.86956" lon="6.5762">
        <ele>1144.3</ele>
        <time>2021-09-18T09:11:22Z</time>
      </trkpt>
      <trkpt lat="43.86956" lon="6.57619">
        <ele>1144.4</ele>
        <time>2021-09-18T09:11:23Z</time>
      </trkpt>
      <trkpt lat="43.86956" lon="6.57618">
        <ele>1144.5</ele>
        <time>2021-09-18T09:11:25Z</time>
      </trkpt>
      <trkpt lat="43.86956" lon="6.57618">
        <ele>1144.6</ele>
        <time>2021-09-18T09:11:26Z</time>
      </trkpt>
      <trkpt lat="43.86956" lon="6.57617">
        <ele>1144.7</ele>
        <time>2021-09-18T09:11:28Z</time>
      </trkpt>
      <trkpt lat="43.86956" lon="6.57616">
        <ele>1144.7</ele>
        <time>2021-09-18T09:11:29Z</time>
      </trkpt>
      <trkpt lat="43.86955" lon="6.57617">
        <ele>1144.9</ele>
        <time>2021-09-18T09:11:30Z</time>
      </trkpt>
      <trkpt lat="43.86955" lon="6.57617">
        <ele>1144.9</ele>
        <time>2021-09-18T09:11:31Z</time>
      </trkpt>
      <trkpt lat="43.86954" lon="6.57616">
        <ele>1145</ele>
        <time>2021-09-18T09:11:32Z</time>
      </trkpt>
      <trkpt lat="43.86954" lon="6.57615">
        <ele>1145.1</ele>
        <time>2021-09-18T09:11:34Z</time>
      </trkpt>
      <trkpt lat="43.86954" lon="6.57615">
        <ele>1145.2</ele>
        <time>2021-09-18T09:11:35Z</time>
      </trkpt>
      <trkpt lat="43.86955" lon="6.57614">
        <ele>1145.3</ele>
        <time>2021-09-18T09:11:36Z</time>
      </trkpt>
      <trkpt lat="43.86955" lon="6.57612">
        <ele>1145.5</ele>
        <time>2021-09-18T09:11:37Z</time>
      </trkpt>
      <trkpt lat="43.86959" lon="6.57611">
        <ele>1146</ele>
        <time>2021-09-18T09:11:38Z</time>
      </trkpt>
      <trkpt lat="43.86961" lon="6.5761">
        <ele>1146.3</ele>
        <time>2021-09-18T09:11:44Z</time>
      </trkpt>
      <trkpt lat="43.86964" lon="6.57609">
        <ele>1146.7</ele>
        <time>2021-09-18T09:11:45Z</time>
      </trkpt>
      <trkpt lat="43.86967" lon="6.57609">
        <ele>1147.1</ele>
        <time>2021-09-18T09:11:46Z</time>
      </trkpt>
      <trkpt lat="43.86968" lon="6.57608">
        <ele>1147.2</ele>
        <time>2021-09-18T09:11:47Z</time>
      </trkpt>
      <trkpt lat="43.86968" lon="6.57607">
        <ele>1147.3</ele>
        <time>2021-09-18T09:11:49Z</time>
      </trkpt>
      <trkpt lat="43.86968" lon="6.57607">
        <ele>1147.4</ele>
        <time>2021-09-18T09:11:50Z</time>
      </trkpt>
      <trkpt lat="43.86969" lon="6.57606">
        <ele>1147.5</ele>
        <time>2021-09-18T09:11:51Z</time>
      </trkpt>
      <trkpt lat="43.86969" lon="6.57605">
        <ele>1147.6</ele>
        <time>2021-09-18T09:11:52Z</time>
      </trkpt>
      <trkpt lat="43.8697" lon="6.57605">
        <ele>1147.7</ele>
        <time>2021-09-18T09:11:53Z</time>
      </trkpt>
      <trkpt lat="43.86971" lon="6.57604">
        <ele>1147.9</ele>
        <time>2021-09-18T09:11:55Z</time>
      </trkpt>
      <trkpt lat="43.86972" lon="6.57604">
        <ele>1148.1</ele>
        <time>2021-09-18T09:11:57Z</time>
      </trkpt>
      <trkpt lat="43.87013" lon="6.57642">
        <ele>1153.9</ele>
        <time>2021-09-18T09:13:29Z</time>
      </trkpt>
      <trkpt lat="43.87013" lon="6.57643">
        <ele>1154</ele>
        <time>2021-09-18T09:13:30Z</time>
      </trkpt>
      <trkpt lat="43.87013" lon="6.57644">
        <ele>1154</ele>
        <time>2021-09-18T09:13:31Z</time>
      </trkpt>
      <trkpt lat="43.87013" lon="6.57646">
        <ele>1154.1</ele>
        <time>2021-09-18T09:13:33Z</time>
      </trkpt>
      <trkpt lat="43.87014" lon="6.57646">
        <ele>1154.1</ele>
        <time>2021-09-18T09:13:34Z</time>
      </trkpt>
      <trkpt lat="43.87014" lon="6.57647">
        <ele>1154.2</ele>
        <time>2021-09-18T09:13:35Z</time>
      </trkpt>
      <trkpt lat="43.87014" lon="6.5765">
        <ele>1154.3</ele>
        <time>2021-09-18T09:13:36Z</time>
      </trkpt>
      <trkpt lat="43.87015" lon="6.57652">
        <ele>1154.5</ele>
        <time>2021-09-18T09:13:38Z</time>
      </trkpt>
      <trkpt lat="43.87015" lon="6.57654">
        <ele>1154.7</ele>
        <time>2021-09-18T09:13:39Z</time>
      </trkpt>
      <trkpt lat="43.87016" lon="6.57655">
        <ele>1154.7</ele>
        <time>2021-09-18T09:13:41Z</time>
      </trkpt>
      <trkpt lat="43.87017" lon="6.57655">
        <ele>1154.8</ele>
        <time>2021-09-18T09:13:42Z</time>
      </trkpt>
      <trkpt lat="43.87018" lon="6.57656">
        <ele>1154.9</ele>
        <time>2021-09-18T09:13:43Z</time>
      </trkpt>
      <trkpt lat="43.87019" lon="6.57656">
        <ele>1155.1</ele>
        <time>2021-09-18T09:13:45Z</time>
      </trkpt>
      <trkpt lat="43.8702" lon="6.57657">
        <ele>1155.2</ele>
        <time>2021-09-18T09:13:47Z</time>
      </trkpt>
      <trkpt lat="43.87021" lon="6.57657">
        <ele>1155.3</ele>
        <time>2021-09-18T09:13:48Z</time>
      </trkpt>
      <trkpt lat="43.87022" lon="6.57657">
        <ele>1155.3</ele>
        <time>2021-09-18T09:13:49Z</time>
      </trkpt>
      <trkpt lat="43.87022" lon="6.57656">
        <ele>1155.4</ele>
        <time>2021-09-18T09:13:51Z</time>
      </trkpt>
      <trkpt lat="43.87023" lon="6.57656">
        <ele>1155.5</ele>
        <time>2021-09-18T09:13:52Z</time>
      </trkpt>
      <trkpt lat="43.87024" lon="6.57655">
        <ele>1155.6</ele>
        <time>2021-09-18T09:13:54Z</time>
      </trkpt>
      <trkpt lat="43.87024" lon="6.57655">
        <ele>1155.6</ele>
        <time>2021-09-18T09:13:55Z</time>
      </trkpt>
      <trkpt lat="43.87024" lon="6.57654">
        <ele>1155.7</ele>
        <time>2021-09-18T09:13:56Z</time>
      </trkpt>
      <trkpt lat="43.87025" lon="6.57654">
        <ele>1155.7</ele>
        <time>2021-09-18T09:13:57Z</time>
      </trkpt>
      <trkpt lat="43.87025" lon="6.57654">
        <ele>1155.7</ele>
        <time>2021-09-18T09:13:58Z</time>
      </trkpt>
      <trkpt lat="43.87025" lon="6.57654">
        <ele>1155.8</ele>
        <time>2021-09-18T09:14:00Z</time>
      </trkpt>
      <trkpt lat="43.87025" lon="6.57654">
        <ele>1155.8</ele>
        <time>2021-09-18T09:14:02Z</time>
      </trkpt>
      <trkpt lat="43.87026" lon="6.57655">
        <ele>1155.9</ele>
        <time>2021-09-18T09:14:03Z</time>
      </trkpt>
      <trkpt lat="43.87027" lon="6.57655">
        <ele>1156</ele>
        <time>2021-09-18T09:14:05Z</time>
      </trkpt>
      <trkpt lat="43.87027" lon="6.57656">
        <ele>1156</ele>
        <time>2021-09-18T09:14:06Z</time>
      </trkpt>
      <trkpt lat="43.87027" lon="6.57656">
        <ele>1156</ele>
        <time>2021-09-18T09:14:08Z</time>
      </trkpt>
      <trkpt lat="43.87027" lon="6.57656">
        <ele>1156.1</ele>
        <time>2021-09-18T09:14:10Z</time>
      </trkpt>
      <trkpt lat="43.87027" lon="6.57657">
        <ele>1156.1</ele>
        <time>2021-09-18T09:14:11Z</time>
      </trkpt>
      <trkpt lat="43.87028" lon="6.57657">
        <ele>1156.1</ele>
        <time>2021-09-18T09:14:12Z</time>
      </trkpt>
      <trkpt lat="43.87028" lon="6.57657">
        <ele>1156.1</ele>
        <time>2021-09-18T09:14:13Z</time>
      </trkpt>
      <trkpt lat="43.87029" lon="6.57657">
        <ele>1156.2</ele>
        <time>2021-09-18T09:14:15Z</time>
      </trkpt>
      <trkpt lat="43.87029" lon="6.57658">
        <ele>1156.3</ele>
        <time>2021-09-18T09:14:17Z</time>
      </trkpt>
      <trkpt lat="43.8703" lon="6.5766">
        <ele>1156.6</ele>
        <time>2021-09-18T09:14:19Z</time>
      </trkpt>
      <trkpt lat="43.8703" lon="6.57662">
        <ele>1156.6</ele>
        <time>2021-09-18T09:14:20Z</time>
      </trkpt>
      <trkpt lat="43.8703" lon="6.57665">
        <ele>1156.8</ele>
        <time>2021-09-18T09:14:21Z</time>
      </trkpt>
      <trkpt lat="43.8703" lon="6.57667">
        <ele>1156.8</ele>
        <time>2021-09-18T09:14:23Z</time>
      </trkpt>
      <trkpt lat="43.87031" lon="6.57668">
        <ele>1156.9</ele>
        <time>2021-09-18T09:14:24Z</time>
      </trkpt>
      <trkpt lat="43.87031" lon="6.57671">
        <ele>1157</ele>
        <time>2021-09-18T09:14:26Z</time>
      </trkpt>
      <trkpt lat="43.87032" lon="6.57674">
        <ele>1157.1</ele>
        <time>2021-09-18T09:14:28Z</time>
      </trkpt>
      <trkpt lat="43.87032" lon="6.57678">
        <ele>1157.3</ele>
        <time>2021-09-18T09:14:29Z</time>
      </trkpt>
      <trkpt lat="43.87032" lon="6.57685">
        <ele>1157.6</ele>
        <time>2021-09-18T09:14:31Z</time>
      </trkpt>
      <trkpt lat="43.87035" lon="6.57695">
        <ele>1158</ele>
        <time>2021-09-18T09:14:33Z</time>
      </trkpt>
      <trkpt lat="43.87037" lon="6.57699">
        <ele>1158.1</ele>
        <time>2021-09-18T09:14:34Z</time>
      </trkpt>
      <trkpt lat="43.87038" lon="6.57703">
        <ele>1158.3</ele>
        <time>2021-09-18T09:14:35Z</time>
      </trkpt>
      <trkpt lat="43.8704" lon="6.57711">
        <ele>1158.5</ele>
        <time>2021-09-18T09:14:37Z</time>
      </trkpt>
      <trkpt lat="43.87039" lon="6.57718">
        <ele>1158.7</ele>
        <time>2021-09-18T09:14:38Z</time>
      </trkpt>
      <trkpt lat="43.87038" lon="6.57723">
        <ele>1158.8</ele>
        <time>2021-09-18T09:14:40Z</time>
      </trkpt>
      <trkpt lat="43.87036" lon="6.57729">
        <ele>1159</ele>
        <time>2021-09-18T09:14:42Z</time>
      </trkpt>
      <trkpt lat="43.87036" lon="6.57731">
        <ele>1159.1</ele>
        <time>2021-09-18T09:14:43Z</time>
      </trkpt>
      <trkpt lat="43.87035" lon="6.57733">
        <ele>1159.1</ele>
        <time>2021-09-18T09:14:44Z</time>
      </trkpt>
      <trkpt lat="43.87034" lon="6.57736">
        <ele>1159.2</ele>
        <time>2021-09-18T09:14:45Z</time>
      </trkpt>
      <trkpt lat="43.87033" lon="6.57739">
        <ele>1159.3</ele>
        <time>2021-09-18T09:14:47Z</time>
      </trkpt>
      <trkpt lat="43.87031" lon="6.57741">
        <ele>1159.4</ele>
        <time>2021-09-18T09:14:48Z</time>
      </trkpt>
      <trkpt lat="43.8703" lon="6.57743">
        <ele>1159.5</ele>
        <time>2021-09-18T09:14:49Z</time>
      </trkpt>
      <trkpt lat="43.8703" lon="6.57745">
        <ele>1159.5</ele>
        <time>2021-09-18T09:14:50Z</time>
      </trkpt>
      <trkpt lat="43.87028" lon="6.57748">
        <ele>1159.6</ele>
        <time>2021-09-18T09:14:52Z</time>
      </trkpt>
      <trkpt lat="43.87028" lon="6.5775">
        <ele>1159.7</ele>
        <time>2021-09-18T09:14:53Z</time>
      </trkpt>
      <trkpt lat="43.87027" lon="6.57752">
        <ele>1159.7</ele>
        <time>2021-09-18T09:14:54Z</time>
      </trkpt>
      <trkpt lat="43.87025" lon="6.57755">
        <ele>1159.9</ele>
        <time>2021-09-18T09:14:56Z</time>
      </trkpt>
      <trkpt lat="43.87022" lon="6.57759">
        <ele>1160</ele>
        <time>2021-09-18T09:14:58Z</time>
      </trkpt>
      <trkpt lat="43.87022" lon="6.57761">
        <ele>1160.1</ele>
        <time>2021-09-18T09:14:59Z</time>
      </trkpt>
      <trkpt lat="43.87021" lon="6.57762">
        <ele>1160.1</ele>
        <time>2021-09-18T09:15:00Z</time>
      </trkpt>
      <trkpt lat="43.8702" lon="6.57764">
        <ele>1160.2</ele>
        <time>2021-09-18T09:15:01Z</time>
      </trkpt>
      <trkpt lat="43.8702" lon="6.57767">
        <ele>1160.3</ele>
        <time>2021-09-18T09:15:03Z</time>
      </trkpt>
      <trkpt lat="43.87019" lon="6.57769">
        <ele>1160.4</ele>
        <time>2021-09-18T09:15:04Z</time>
      </trkpt>
      <trkpt lat="43.87018" lon="6.57772">
        <ele>1160.5</ele>
        <time>2021-09-18T09:15:06Z</time>
      </trkpt>
      <trkpt lat="43.87017" lon="6.57776">
        <ele>1160.6</ele>
        <time>2021-09-18T09:15:07Z</time>
      </trkpt>
      <trkpt lat="43.87016" lon="6.57777">
        <ele>1160.7</ele>
        <time>2021-09-18T09:15:08Z</time>
      </trkpt>
      <trkpt lat="43.87014" lon="6.5778">
        <ele>1160.8</ele>
        <time>2021-09-18T09:15:10Z</time>
      </trkpt>
      <trkpt lat="43.87013" lon="6.57784">
        <ele>1161</ele>
        <time>2021-09-18T09:15:12Z</time>
      </trkpt>
      <trkpt lat="43.87011" lon="6.57788">
        <ele>1161.1</ele>
        <time>2021-09-18T09:15:13Z</time>
      </trkpt>
      <trkpt lat="43.8701" lon="6.5779">
        <ele>1161.2</ele>
        <time>2021-09-18T09:15:15Z</time>
      </trkpt>
      <trkpt lat="43.87007" lon="6.57793">
        <ele>1161.4</ele>
        <time>2021-09-18T09:15:16Z</time>
      </trkpt>
      <trkpt lat="43.87006" lon="6.57794">
        <ele>1161.5</ele>
        <time>2021-09-18T09:15:17Z</time>
      </trkpt>
      <trkpt lat="43.87003" lon="6.57798">
        <ele>1161.8</ele>
        <time>2021-09-18T09:15:19Z</time>
      </trkpt>
      <trkpt lat="43.87001" lon="6.578">
        <ele>1161.9</ele>
        <time>2021-09-18T09:15:20Z</time>
      </trkpt>
      <trkpt lat="43.86999" lon="6.57802">
        <ele>1162.1</ele>
        <time>2021-09-18T09:15:21Z</time>
      </trkpt>
      <trkpt lat="43.86997" lon="6.57805">
        <ele>1162.2</ele>
        <time>2021-09-18T09:15:22Z</time>
      </trkpt>
      <trkpt lat="43.86995" lon="6.57807">
        <ele>1162.4</ele>
        <time>2021-09-18T09:15:23Z</time>
      </trkpt>
      <trkpt lat="43.86993" lon="6.57809">
        <ele>1162.6</ele>
        <time>2021-09-18T09:15:25Z</time>
      </trkpt>
      <trkpt lat="43.8699" lon="6.57812">
        <ele>1162.8</ele>
        <time>2021-09-18T09:15:26Z</time>
      </trkpt>
      <trkpt lat="43.86989" lon="6.57812">
        <ele>1162.8</ele>
        <time>2021-09-18T09:15:27Z</time>
      </trkpt>
      <trkpt lat="43.86987" lon="6.57813">
        <ele>1163</ele>
        <time>2021-09-18T09:15:28Z</time>
      </trkpt>
      <trkpt lat="43.86983" lon="6.57815">
        <ele>1163.2</ele>
        <time>2021-09-18T09:15:30Z</time>
      </trkpt>
      <trkpt lat="43.8698" lon="6.57816">
        <ele>1163.3</ele>
        <time>2021-09-18T09:15:31Z</time>
      </trkpt>
      <trkpt lat="43.86979" lon="6.57817">
        <ele>1163.4</ele>
        <time>2021-09-18T09:15:32Z</time>
      </trkpt>
      <trkpt lat="43.86977" lon="6.57818">
        <ele>1163.5</ele>
        <time>2021-09-18T09:15:34Z</time>
      </trkpt>
      <trkpt lat="43.86976" lon="6.5782">
        <ele>1163.6</ele>
        <time>2021-09-18T09:15:35Z</time>
      </trkpt>
      <trkpt lat="43.86975" lon="6.57821">
        <ele>1163.6</ele>
        <time>2021-09-18T09:15:36Z</time>
      </trkpt>
      <trkpt lat="43.86974" lon="6.57822">
        <ele>1163.7</ele>
        <time>2021-09-18T09:15:37Z</time>
      </trkpt>
      <trkpt lat="43.86972" lon="6.57825">
        <ele>1163.8</ele>
        <time>2021-09-18T09:15:38Z</time>
      </trkpt>
      <trkpt lat="43.86971" lon="6.57828">
        <ele>1163.9</ele>
        <time>2021-09-18T09:15:40Z</time>
      </trkpt>
      <trkpt lat="43.8697" lon="6.57832">
        <ele>1164</ele>
        <time>2021-09-18T09:15:41Z</time>
      </trkpt>
      <trkpt lat="43.86968" lon="6.57836">
        <ele>1164.1</ele>
        <time>2021-09-18T09:15:43Z</time>
      </trkpt>
      <trkpt lat="43.86967" lon="6.57838">
        <ele>1164.2</ele>
        <time>2021-09-18T09:15:44Z</time>
      </trkpt>
      <trkpt lat="43.86965" lon="6.57842">
        <ele>1164.3</ele>
        <time>2021-09-18T09:15:46Z</time>
      </trkpt>
      <trkpt lat="43.86964" lon="6.57843">
        <ele>1164.3</ele>
        <time>2021-09-18T09:15:47Z</time>
      </trkpt>
      <trkpt lat="43.86962" lon="6.57847">
        <ele>1164.4</ele>
        <time>2021-09-18T09:15:49Z</time>
      </trkpt>
      <trkpt lat="43.8696" lon="6.57851">
        <ele>1164.6</ele>
        <time>2021-09-18T09:15:50Z</time>
      </trkpt>
      <trkpt lat="43.86958" lon="6.57858">
        <ele>1164.7</ele>
        <time>2021-09-18T09:15:52Z</time>
      </trkpt>
      <trkpt lat="43.86957" lon="6.57862">
        <ele>1164.8</ele>
        <time>2021-09-18T09:15:53Z</time>
      </trkpt>
      <trkpt lat="43.86957" lon="6.57865">
        <ele>1164.8</ele>
        <time>2021-09-18T09:15:54Z</time>
      </trkpt>
      <trkpt lat="43.86956" lon="6.57871">
        <ele>1164.9</ele>
        <time>2021-09-18T09:15:56Z</time>
      </trkpt>
      <trkpt lat="43.86956" lon="6.57879">
        <ele>1165.1</ele>
        <time>2021-09-18T09:15:58Z</time>
      </trkpt>
      <trkpt lat="43.86957" lon="6.57883">
        <ele>1165.1</ele>
        <time>2021-09-18T09:15:59Z</time>
      </trkpt>
      <trkpt lat="43.86957" lon="6.57888">
        <ele>1165.2</ele>
        <time>2021-09-18T09:16:00Z</time>
      </trkpt>
      <trkpt lat="43.86958" lon="6.57892">
        <ele>1165.3</ele>
        <time>2021-09-18T09:16:01Z</time>
      </trkpt>
      <trkpt lat="43.86958" lon="6.57901">
        <ele>1165.4</ele>
        <time>2021-09-18T09:16:03Z</time>
      </trkpt>
      <trkpt lat="43.86959" lon="6.5791">
        <ele>1165.6</ele>
        <time>2021-09-18T09:16:05Z</time>
      </trkpt>
      <trkpt lat="43.86959" lon="6.57918">
        <ele>1165.7</ele>
        <time>2021-09-18T09:16:07Z</time>
      </trkpt>
      <trkpt lat="43.86959" lon="6.57923">
        <ele>1165.8</ele>
        <time>2021-09-18T09:16:08Z</time>
      </trkpt>
      <trkpt lat="43.86959" lon="6.57929">
        <ele>1165.8</ele>
        <time>2021-09-18T09:16:09Z</time>
      </trkpt>
      <trkpt lat="43.86958" lon="6.57934">
        <ele>1165.9</ele>
        <time>2021-09-18T09:16:11Z</time>
      </trkpt>
      <trkpt lat="43.86957" lon="6.5794">
        <ele>1166</ele>
        <time>2021-09-18T09:16:12Z</time>
      </trkpt>
      <trkpt lat="43.86956" lon="6.57945">
        <ele>1166.1</ele>
        <time>2021-09-18T09:16:14Z</time>
      </trkpt>
      <trkpt lat="43.86957" lon="6.57952">
        <ele>1166.2</ele>
        <time>2021-09-18T09:16:16Z</time>
      </trkpt>
      <trkpt lat="43.86957" lon="6.57958">
        <ele>1166.3</ele>
        <time>2021-09-18T09:16:17Z</time>
      </trkpt>
      <trkpt lat="43.86957" lon="6.57961">
        <ele>1166.3</ele>
        <time>2021-09-18T09:16:18Z</time>
      </trkpt>
      <trkpt lat="43.86956" lon="6.57965">
        <ele>1166.4</ele>
        <time>2021-09-18T09:16:20Z</time>
      </trkpt>
      <trkpt lat="43.86954" lon="6.5797">
        <ele>1166.4</ele>
        <time>2021-09-18T09:16:21Z</time>
      </trkpt>
      <trkpt lat="43.86953" lon="6.57974">
        <ele>1166.4</ele>
        <time>2021-09-18T09:16:22Z</time>
      </trkpt>
      <trkpt lat="43.86951" lon="6.57979">
        <ele>1166.4</ele>
        <time>2021-09-18T09:16:24Z</time>
      </trkpt>
      <trkpt lat="43.8695" lon="6.57982">
        <ele>1166.4</ele>
        <time>2021-09-18T09:16:25Z</time>
      </trkpt>
      <trkpt lat="43.86949" lon="6.57985">
        <ele>1166.4</ele>
        <time>2021-09-18T09:16:26Z</time>
      </trkpt>
      <trkpt lat="43.86946" lon="6.57992">
        <ele>1166.4</ele>
        <time>2021-09-18T09:16:27Z</time>
      </trkpt>
      <trkpt lat="43.86943" lon="6.57996">
        <ele>1166.4</ele>
        <time>2021-09-18T09:16:29Z</time>
      </trkpt>
      <trkpt lat="43.86942" lon="6.58">
        <ele>1166.4</ele>
        <time>2021-09-18T09:16:30Z</time>
      </trkpt>
      <trkpt lat="43.86941" lon="6.58005">
        <ele>1166.4</ele>
        <time>2021-09-18T09:16:31Z</time>
      </trkpt>
      <trkpt lat="43.8694" lon="6.58008">
        <ele>1166.4</ele>
        <time>2021-09-18T09:16:32Z</time>
      </trkpt>
      <trkpt lat="43.86938" lon="6.58012">
        <ele>1166.4</ele>
        <time>2021-09-18T09:16:33Z</time>
      </trkpt>
      <trkpt lat="43.86937" lon="6.58015">
        <ele>1166.4</ele>
        <time>2021-09-18T09:16:34Z</time>
      </trkpt>
      <trkpt lat="43.86935" lon="6.5802">
        <ele>1166.4</ele>
        <time>2021-09-18T09:16:36Z</time>
      </trkpt>
      <trkpt lat="43.86933" lon="6.58026">
        <ele>1166.4</ele>
        <time>2021-09-18T09:16:37Z</time>
      </trkpt>
      <trkpt lat="43.86933" lon="6.5803">
        <ele>1166.4</ele>
        <time>2021-09-18T09:16:38Z</time>
      </trkpt>
      <trkpt lat="43.86932" lon="6.58034">
        <ele>1166.5</ele>
        <time>2021-09-18T09:16:39Z</time>
      </trkpt>
      <trkpt lat="43.86932" lon="6.58038">
        <ele>1166.6</ele>
        <time>2021-09-18T09:16:40Z</time>
      </trkpt>
      <trkpt lat="43.86932" lon="6.58042">
        <ele>1166.7</ele>
        <time>2021-09-18T09:16:41Z</time>
      </trkpt>
      <trkpt lat="43.86933" lon="6.58046">
        <ele>1166.8</ele>
        <time>2021-09-18T09:16:42Z</time>
      </trkpt>
      <trkpt lat="43.86933" lon="6.5805">
        <ele>1166.9</ele>
        <time>2021-09-18T09:16:44Z</time>
      </trkpt>
      <trkpt lat="43.86934" lon="6.58054">
        <ele>1167</ele>
        <time>2021-09-18T09:16:45Z</time>
      </trkpt>
      <trkpt lat="43.86934" lon="6.58061">
        <ele>1167.2</ele>
        <time>2021-09-18T09:16:46Z</time>
      </trkpt>
      <trkpt lat="43.86934" lon="6.58066">
        <ele>1167.3</ele>
        <time>2021-09-18T09:16:48Z</time>
      </trkpt>
      <trkpt lat="43.86934" lon="6.5807">
        <ele>1167.4</ele>
        <time>2021-09-18T09:16:49Z</time>
      </trkpt>
      <trkpt lat="43.86934" lon="6.58077">
        <ele>1167.7</ele>
        <time>2021-09-18T09:16:51Z</time>
      </trkpt>
      <trkpt lat="43.86935" lon="6.5808">
        <ele>1167.8</ele>
        <time>2021-09-18T09:16:52Z</time>
      </trkpt>
      <trkpt lat="43.86935" lon="6.58082">
        <ele>1167.8</ele>
        <time>2021-09-18T09:16:53Z</time>
      </trkpt>
      <trkpt lat="43.86935" lon="6.58086">
        <ele>1168</ele>
        <time>2021-09-18T09:16:55Z</time>
      </trkpt>
      <trkpt lat="43.86935" lon="6.58089">
        <ele>1168.1</ele>
        <time>2021-09-18T09:16:56Z</time>
      </trkpt>
      <trkpt lat="43.86935" lon="6.58094">
        <ele>1168.3</ele>
        <time>2021-09-18T09:16:58Z</time>
      </trkpt>
      <trkpt lat="43.86934" lon="6.581">
        <ele>1168.5</ele>
        <time>2021-09-18T09:16:59Z</time>
      </trkpt>
      <trkpt lat="43.86933" lon="6.58102">
        <ele>1168.6</ele>
        <time>2021-09-18T09:17:00Z</time>
      </trkpt>
      <trkpt lat="43.86933" lon="6.58107">
        <ele>1168.8</ele>
        <time>2021-09-18T09:17:01Z</time>
      </trkpt>
      <trkpt lat="43.86932" lon="6.58112">
        <ele>1169</ele>
        <time>2021-09-18T09:17:03Z</time>
      </trkpt>
      <trkpt lat="43.86932" lon="6.58116">
        <ele>1169.2</ele>
        <time>2021-09-18T09:17:05Z</time>
      </trkpt>
      <trkpt lat="43.86931" lon="6.5812">
        <ele>1169.3</ele>
        <time>2021-09-18T09:17:06Z</time>
      </trkpt>
      <trkpt lat="43.8693" lon="6.58124">
        <ele>1169.6</ele>
        <time>2021-09-18T09:17:08Z</time>
      </trkpt>
      <trkpt lat="43.86929" lon="6.58129">
        <ele>1169.7</ele>
        <time>2021-09-18T09:17:09Z</time>
      </trkpt>
      <trkpt lat="43.86928" lon="6.58133">
        <ele>1169.9</ele>
        <time>2021-09-18T09:17:10Z</time>
      </trkpt>
      <trkpt lat="43.86927" lon="6.58137">
        <ele>1170.1</ele>
        <time>2021-09-18T09:17:12Z</time>
      </trkpt>
      <trkpt lat="43.86924" lon="6.5814">
        <ele>1170.2</ele>
        <time>2021-09-18T09:17:13Z</time>
      </trkpt>
      <trkpt lat="43.86923" lon="6.58144">
        <ele>1170.4</ele>
        <time>2021-09-18T09:17:15Z</time>
      </trkpt>
      <trkpt lat="43.8692" lon="6.58147">
        <ele>1170.5</ele>
        <time>2021-09-18T09:17:16Z</time>
      </trkpt>
      <trkpt lat="43.86918" lon="6.58151">
        <ele>1170.7</ele>
        <time>2021-09-18T09:17:18Z</time>
      </trkpt>
      <trkpt lat="43.86915" lon="6.58157">
        <ele>1170.9</ele>
        <time>2021-09-18T09:17:20Z</time>
      </trkpt>
      <trkpt lat="43.86912" lon="6.5816">
        <ele>1171.1</ele>
        <time>2021-09-18T09:17:21Z</time>
      </trkpt>
      <trkpt lat="43.86909" lon="6.58161">
        <ele>1171.2</ele>
        <time>2021-09-18T09:17:23Z</time>
      </trkpt>
      <trkpt lat="43.86905" lon="6.58164">
        <ele>1171.4</ele>
        <time>2021-09-18T09:17:25Z</time>
      </trkpt>
      <trkpt lat="43.86902" lon="6.58166">
        <ele>1171.5</ele>
        <time>2021-09-18T09:17:26Z</time>
      </trkpt>
      <trkpt lat="43.86899" lon="6.58169">
        <ele>1171.6</ele>
        <time>2021-09-18T09:17:28Z</time>
      </trkpt>
      <trkpt lat="43.86898" lon="6.58169">
        <ele>1171.7</ele>
        <time>2021-09-18T09:17:29Z</time>
      </trkpt>
      <trkpt lat="43.86895" lon="6.58172">
        <ele>1171.8</ele>
        <time>2021-09-18T09:17:30Z</time>
      </trkpt>
      <trkpt lat="43.86893" lon="6.58173">
        <ele>1171.9</ele>
        <time>2021-09-18T09:17:31Z</time>
      </trkpt>
      <trkpt lat="43.86891" lon="6.58176">
        <ele>1172</ele>
        <time>2021-09-18T09:17:33Z</time>
      </trkpt>
      <trkpt lat="43.86889" lon="6.58179">
        <ele>1172.1</ele>
        <time>2021-09-18T09:17:34Z</time>
      </trkpt>
      <trkpt lat="43.86886" lon="6.58183">
        <ele>1172.3</ele>
        <time>2021-09-18T09:17:35Z</time>
      </trkpt>
      <trkpt lat="43.86884" lon="6.58187">
        <ele>1172.4</ele>
        <time>2021-09-18T09:17:36Z</time>
      </trkpt>
      <trkpt lat="43.86882" lon="6.58191">
        <ele>1172.5</ele>
        <time>2021-09-18T09:17:38Z</time>
      </trkpt>
      <trkpt lat="43.8688" lon="6.58195">
        <ele>1172.7</ele>
        <time>2021-09-18T09:17:39Z</time>
      </trkpt>
      <trkpt lat="43.86879" lon="6.58198">
        <ele>1172.8</ele>
        <time>2021-09-18T09:17:40Z</time>
      </trkpt>
      <trkpt lat="43.86877" lon="6.58201">
        <ele>1172.9</ele>
        <time>2021-09-18T09:17:41Z</time>
      </trkpt>
      <trkpt lat="43.86875" lon="6.58204">
        <ele>1173</ele>
        <time>2021-09-18T09:17:42Z</time>
      </trkpt>
      <trkpt lat="43.86872" lon="6.58209">
        <ele>1173.2</ele>
        <time>2021-09-18T09:17:43Z</time>
      </trkpt>
      <trkpt lat="43.86869" lon="6.58213">
        <ele>1173.4</ele>
        <time>2021-09-18T09:17:45Z</time>
      </trkpt>
      <trkpt lat="43.86866" lon="6.58219">
        <ele>1173.6</ele>
        <time>2021-09-18T09:17:47Z</time>
      </trkpt>
      <trkpt lat="43.86864" lon="6.58225">
        <ele>1173.8</ele>
        <time>2021-09-18T09:17:49Z</time>
      </trkpt>
      <trkpt lat="43.86864" lon="6.5823">
        <ele>1174</ele>
        <time>2021-09-18T09:17:51Z</time>
      </trkpt>
      <trkpt lat="43.86862" lon="6.58235">
        <ele>1174.2</ele>
        <time>2021-09-18T09:17:52Z</time>
      </trkpt>
      <trkpt lat="43.86861" lon="6.5824">
        <ele>1174.4</ele>
        <time>2021-09-18T09:17:54Z</time>
      </trkpt>
      <trkpt lat="43.8686" lon="6.58242">
        <ele>1174.5</ele>
        <time>2021-09-18T09:17:55Z</time>
      </trkpt>
      <trkpt lat="43.86858" lon="6.58244">
        <ele>1174.6</ele>
        <time>2021-09-18T09:17:57Z</time>
      </trkpt>
      <trkpt lat="43.86856" lon="6.58247">
        <ele>1174.8</ele>
        <time>2021-09-18T09:17:58Z</time>
      </trkpt>
      <trkpt lat="43.86855" lon="6.5825">
        <ele>1174.9</ele>
        <time>2021-09-18T09:17:59Z</time>
      </trkpt>
      <trkpt lat="43.86854" lon="6.58253">
        <ele>1175</ele>
        <time>2021-09-18T09:18:01Z</time>
      </trkpt>
      <trkpt lat="43.86853" lon="6.58256">
        <ele>1175.1</ele>
        <time>2021-09-18T09:18:02Z</time>
      </trkpt>
      <trkpt lat="43.86853" lon="6.58262">
        <ele>1175.3</ele>
        <time>2021-09-18T09:18:04Z</time>
      </trkpt>
      <trkpt lat="43.86852" lon="6.58267">
        <ele>1175.5</ele>
        <time>2021-09-18T09:18:05Z</time>
      </trkpt>
      <trkpt lat="43.86851" lon="6.58268">
        <ele>1175.6</ele>
        <time>2021-09-18T09:18:06Z</time>
      </trkpt>
      <trkpt lat="43.8685" lon="6.58275">
        <ele>1175.9</ele>
        <time>2021-09-18T09:18:08Z</time>
      </trkpt>
      <trkpt lat="43.8685" lon="6.58281">
        <ele>1176.1</ele>
        <time>2021-09-18T09:18:10Z</time>
      </trkpt>
      <trkpt lat="43.86852" lon="6.58286">
        <ele>1176.4</ele>
        <time>2021-09-18T09:18:11Z</time>
      </trkpt>
      <trkpt lat="43.86852" lon="6.58289">
        <ele>1176.5</ele>
        <time>2021-09-18T09:18:12Z</time>
      </trkpt>
      <trkpt lat="43.86853" lon="6.58291">
        <ele>1176.6</ele>
        <time>2021-09-18T09:18:13Z</time>
      </trkpt>
      <trkpt lat="43.86854" lon="6.58294">
        <ele>1176.7</ele>
        <time>2021-09-18T09:18:15Z</time>
      </trkpt>
      <trkpt lat="43.86855" lon="6.58299">
        <ele>1176.9</ele>
        <time>2021-09-18T09:18:16Z</time>
      </trkpt>
      <trkpt lat="43.86855" lon="6.58306">
        <ele>1177.2</ele>
        <time>2021-09-18T09:18:18Z</time>
      </trkpt>
      <trkpt lat="43.86856" lon="6.58309">
        <ele>1177.4</ele>
        <time>2021-09-18T09:18:19Z</time>
      </trkpt>
      <trkpt lat="43.86856" lon="6.58312">
        <ele>1177.5</ele>
        <time>2021-09-18T09:18:20Z</time>
      </trkpt>
      <trkpt lat="43.86857" lon="6.58317">
        <ele>1177.7</ele>
        <time>2021-09-18T09:18:22Z</time>
      </trkpt>
      <trkpt lat="43.86857" lon="6.58322">
        <ele>1178</ele>
        <time>2021-09-18T09:18:23Z</time>
      </trkpt>
      <trkpt lat="43.86857" lon="6.58326">
        <ele>1178.1</ele>
        <time>2021-09-18T09:18:25Z</time>
      </trkpt>
      <trkpt lat="43.86858" lon="6.58329">
        <ele>1178.3</ele>
        <time>2021-09-18T09:18:26Z</time>
      </trkpt>
      <trkpt lat="43.8686" lon="6.58336">
        <ele>1178.6</ele>
        <time>2021-09-18T09:18:28Z</time>
      </trkpt>
      <trkpt lat="43.86861" lon="6.5834">
        <ele>1178.8</ele>
        <time>2021-09-18T09:18:29Z</time>
      </trkpt>
      <trkpt lat="43.86861" lon="6.58346">
        <ele>1179</ele>
        <time>2021-09-18T09:18:30Z</time>
      </trkpt>
      <trkpt lat="43.86861" lon="6.58349">
        <ele>1179.1</ele>
        <time>2021-09-18T09:18:31Z</time>
      </trkpt>
      <trkpt lat="43.86861" lon="6.58354">
        <ele>1179.4</ele>
        <time>2021-09-18T09:18:33Z</time>
      </trkpt>
      <trkpt lat="43.86861" lon="6.58359">
        <ele>1179.6</ele>
        <time>2021-09-18T09:18:34Z</time>
      </trkpt>
      <trkpt lat="43.86861" lon="6.58361">
        <ele>1179.7</ele>
        <time>2021-09-18T09:18:35Z</time>
      </trkpt>
      <trkpt lat="43.86861" lon="6.58367">
        <ele>1179.9</ele>
        <time>2021-09-18T09:18:36Z</time>
      </trkpt>
      <trkpt lat="43.86861" lon="6.58374">
        <ele>1180.2</ele>
        <time>2021-09-18T09:18:38Z</time>
      </trkpt>
      <trkpt lat="43.86862" lon="6.58376">
        <ele>1180.2</ele>
        <time>2021-09-18T09:18:39Z</time>
      </trkpt>
      <trkpt lat="43.86862" lon="6.58378">
        <ele>1180.3</ele>
        <time>2021-09-18T09:18:40Z</time>
      </trkpt>
      <trkpt lat="43.86863" lon="6.58384">
        <ele>1180.6</ele>
        <time>2021-09-18T09:18:41Z</time>
      </trkpt>
      <trkpt lat="43.86865" lon="6.58391">
        <ele>1180.8</ele>
        <time>2021-09-18T09:18:43Z</time>
      </trkpt>
      <trkpt lat="43.86866" lon="6.58394">
        <ele>1180.9</ele>
        <time>2021-09-18T09:18:44Z</time>
      </trkpt>
      <trkpt lat="43.86867" lon="6.58397">
        <ele>1181</ele>
        <time>2021-09-18T09:18:45Z</time>
      </trkpt>
      <trkpt lat="43.86868" lon="6.58402">
        <ele>1181.2</ele>
        <time>2021-09-18T09:18:47Z</time>
      </trkpt>
      <trkpt lat="43.8687" lon="6.58405">
        <ele>1181.4</ele>
        <time>2021-09-18T09:18:48Z</time>
      </trkpt>
      <trkpt lat="43.86871" lon="6.58409">
        <ele>1181.5</ele>
        <time>2021-09-18T09:18:49Z</time>
      </trkpt>
      <trkpt lat="43.86874" lon="6.58415">
        <ele>1181.8</ele>
        <time>2021-09-18T09:18:51Z</time>
      </trkpt>
      <trkpt lat="43.86875" lon="6.5842">
        <ele>1182</ele>
        <time>2021-09-18T09:18:52Z</time>
      </trkpt>
      <trkpt lat="43.86875" lon="6.58422">
        <ele>1182</ele>
        <time>2021-09-18T09:18:53Z</time>
      </trkpt>
      <trkpt lat="43.86876" lon="6.58426">
        <ele>1182.2</ele>
        <time>2021-09-18T09:18:54Z</time>
      </trkpt>
      <trkpt lat="43.86876" lon="6.58428">
        <ele>1182.3</ele>
        <time>2021-09-18T09:18:55Z</time>
      </trkpt>
      <trkpt lat="43.86877" lon="6.58433">
        <ele>1182.5</ele>
        <time>2021-09-18T09:18:56Z</time>
      </trkpt>
      <trkpt lat="43.86877" lon="6.58436">
        <ele>1182.6</ele>
        <time>2021-09-18T09:18:57Z</time>
      </trkpt>
      <trkpt lat="43.86878" lon="6.58441">
        <ele>1182.9</ele>
        <time>2021-09-18T09:18:59Z</time>
      </trkpt>
      <trkpt lat="43.86879" lon="6.58443">
        <ele>1183</ele>
        <time>2021-09-18T09:19:00Z</time>
      </trkpt>
      <trkpt lat="43.8688" lon="6.58445">
        <ele>1183.1</ele>
        <time>2021-09-18T09:19:01Z</time>
      </trkpt>
      <trkpt lat="43.86881" lon="6.58449">
        <ele>1183.4</ele>
        <time>2021-09-18T09:19:03Z</time>
      </trkpt>
      <trkpt lat="43.86881" lon="6.58451">
        <ele>1183.5</ele>
        <time>2021-09-18T09:19:04Z</time>
      </trkpt>
      <trkpt lat="43.86881" lon="6.58453">
        <ele>1183.6</ele>
        <time>2021-09-18T09:19:05Z</time>
      </trkpt>
      <trkpt lat="43.86881" lon="6.58455">
        <ele>1183.7</ele>
        <time>2021-09-18T09:19:06Z</time>
      </trkpt>
      <trkpt lat="43.8688" lon="6.5846">
        <ele>1183.9</ele>
        <time>2021-09-18T09:19:07Z</time>
      </trkpt>
      <trkpt lat="43.8688" lon="6.58462">
        <ele>1184.1</ele>
        <time>2021-09-18T09:19:08Z</time>
      </trkpt>
      <trkpt lat="43.86881" lon="6.58465">
        <ele>1184.3</ele>
        <time>2021-09-18T09:19:10Z</time>
      </trkpt>
      <trkpt lat="43.86882" lon="6.5847">
        <ele>1184.5</ele>
        <time>2021-09-18T09:19:12Z</time>
      </trkpt>
      <trkpt lat="43.86882" lon="6.58473">
        <ele>1184.7</ele>
        <time>2021-09-18T09:19:13Z</time>
      </trkpt>
      <trkpt lat="43.86883" lon="6.58476">
        <ele>1184.9</ele>
        <time>2021-09-18T09:19:15Z</time>
      </trkpt>
      <trkpt lat="43.86883" lon="6.5848">
        <ele>1185.1</ele>
        <time>2021-09-18T09:19:16Z</time>
      </trkpt>
      <trkpt lat="43.86884" lon="6.58481">
        <ele>1185.1</ele>
        <time>2021-09-18T09:19:17Z</time>
      </trkpt>
      <trkpt lat="43.86883" lon="6.58484">
        <ele>1185.3</ele>
        <time>2021-09-18T09:19:18Z</time>
      </trkpt>
      <trkpt lat="43.86884" lon="6.58488">
        <ele>1185.5</ele>
        <time>2021-09-18T09:19:20Z</time>
      </trkpt>
      <trkpt lat="43.86885" lon="6.58493">
        <ele>1185.8</ele>
        <time>2021-09-18T09:19:21Z</time>
      </trkpt>
      <trkpt lat="43.86887" lon="6.58498">
        <ele>1186.1</ele>
        <time>2021-09-18T09:19:23Z</time>
      </trkpt>
      <trkpt lat="43.86888" lon="6.58504">
        <ele>1186.4</ele>
        <time>2021-09-18T09:19:25Z</time>
      </trkpt>
      <trkpt lat="43.86889" lon="6.58506">
        <ele>1186.5</ele>
        <time>2021-09-18T09:19:26Z</time>
      </trkpt>
      <trkpt lat="43.86889" lon="6.58508">
        <ele>1186.6</ele>
        <time>2021-09-18T09:19:27Z</time>
      </trkpt>
      <trkpt lat="43.86888" lon="6.58514">
        <ele>1186.9</ele>
        <time>2021-09-18T09:19:29Z</time>
      </trkpt>
      <trkpt lat="43.86888" lon="6.58515">
        <ele>1186.9</ele>
        <time>2021-09-18T09:19:30Z</time>
      </trkpt>
      <trkpt lat="43.86888" lon="6.58517">
        <ele>1187</ele>
        <time>2021-09-18T09:19:31Z</time>
      </trkpt>
      <trkpt lat="43.86887" lon="6.58521">
        <ele>1187.2</ele>
        <time>2021-09-18T09:19:33Z</time>
      </trkpt>
      <trkpt lat="43.86886" lon="6.58525">
        <ele>1187.4</ele>
        <time>2021-09-18T09:19:35Z</time>
      </trkpt>
      <trkpt lat="43.86886" lon="6.58529">
        <ele>1187.7</ele>
        <time>2021-09-18T09:19:37Z</time>
      </trkpt>
      <trkpt lat="43.86885" lon="6.58533">
        <ele>1187.9</ele>
        <time>2021-09-18T09:19:38Z</time>
      </trkpt>
      <trkpt lat="43.86884" lon="6.58535">
        <ele>1188</ele>
        <time>2021-09-18T09:19:40Z</time>
      </trkpt>
      <trkpt lat="43.86884" lon="6.58538">
        <ele>1188.1</ele>
        <time>2021-09-18T09:19:41Z</time>
      </trkpt>
      <trkpt lat="43.86883" lon="6.5854">
        <ele>1188.2</ele>
        <time>2021-09-18T09:19:42Z</time>
      </trkpt>
      <trkpt lat="43.86883" lon="6.58542">
        <ele>1188.3</ele>
        <time>2021-09-18T09:19:43Z</time>
      </trkpt>
      <trkpt lat="43.86883" lon="6.58545">
        <ele>1188.4</ele>
        <time>2021-09-18T09:19:44Z</time>
      </trkpt>
      <trkpt lat="43.86883" lon="6.58548">
        <ele>1188.6</ele>
        <time>2021-09-18T09:19:46Z</time>
      </trkpt>
      <trkpt lat="43.86884" lon="6.5855">
        <ele>1188.7</ele>
        <time>2021-09-18T09:19:47Z</time>
      </trkpt>
      <trkpt lat="43.86884" lon="6.58552">
        <ele>1188.8</ele>
        <time>2021-09-18T09:19:48Z</time>
      </trkpt>
      <trkpt lat="43.86885" lon="6.58555">
        <ele>1188.9</ele>
        <time>2021-09-18T09:19:49Z</time>
      </trkpt>
      <trkpt lat="43.86886" lon="6.58559">
        <ele>1189.2</ele>
        <time>2021-09-18T09:19:51Z</time>
      </trkpt>
      <trkpt lat="43.86886" lon="6.58563">
        <ele>1189.4</ele>
        <time>2021-09-18T09:19:52Z</time>
      </trkpt>
      <trkpt lat="43.86886" lon="6.58565">
        <ele>1189.5</ele>
        <time>2021-09-18T09:19:53Z</time>
      </trkpt>
      <trkpt lat="43.86886" lon="6.5857">
        <ele>1189.7</ele>
        <time>2021-09-18T09:19:55Z</time>
      </trkpt>
      <trkpt lat="43.86887" lon="6.58576">
        <ele>1190</ele>
        <time>2021-09-18T09:19:57Z</time>
      </trkpt>
      <trkpt lat="43.86888" lon="6.5858">
        <ele>1190.2</ele>
        <time>2021-09-18T09:19:59Z</time>
      </trkpt>
      <trkpt lat="43.86889" lon="6.58584">
        <ele>1190.4</ele>
        <time>2021-09-18T09:20:00Z</time>
      </trkpt>
      <trkpt lat="43.86889" lon="6.58588">
        <ele>1190.6</ele>
        <time>2021-09-18T09:20:01Z</time>
      </trkpt>
      <trkpt lat="43.8689" lon="6.58592">
        <ele>1190.8</ele>
        <time>2021-09-18T09:20:03Z</time>
      </trkpt>
      <trkpt lat="43.86889" lon="6.58597">
        <ele>1191</ele>
        <time>2021-09-18T09:20:05Z</time>
      </trkpt>
      <trkpt lat="43.8689" lon="6.58603">
        <ele>1191.3</ele>
        <time>2021-09-18T09:20:07Z</time>
      </trkpt>
      <trkpt lat="43.86891" lon="6.58605">
        <ele>1191.4</ele>
        <time>2021-09-18T09:20:08Z</time>
      </trkpt>
      <trkpt lat="43.86891" lon="6.58606">
        <ele>1191.5</ele>
        <time>2021-09-18T09:20:09Z</time>
      </trkpt>
      <trkpt lat="43.86892" lon="6.5861">
        <ele>1191.7</ele>
        <time>2021-09-18T09:20:12Z</time>
      </trkpt>
      <trkpt lat="43.86894" lon="6.58613">
        <ele>1191.9</ele>
        <time>2021-09-18T09:20:13Z</time>
      </trkpt>
      <trkpt lat="43.86896" lon="6.58616">
        <ele>1192.2</ele>
        <time>2021-09-18T09:20:15Z</time>
      </trkpt>
      <trkpt lat="43.86899" lon="6.5862">
        <ele>1192.5</ele>
        <time>2021-09-18T09:20:17Z</time>
      </trkpt>
      <trkpt lat="43.869" lon="6.58621">
        <ele>1192.6</ele>
        <time>2021-09-18T09:20:19Z</time>
      </trkpt>
      <trkpt lat="43.86902" lon="6.58622">
        <ele>1192.7</ele>
        <time>2021-09-18T09:20:20Z</time>
      </trkpt>
      <trkpt lat="43.86904" lon="6.58624">
        <ele>1192.9</ele>
        <time>2021-09-18T09:20:22Z</time>
      </trkpt>
      <trkpt lat="43.86905" lon="6.58625">
        <ele>1193</ele>
        <time>2021-09-18T09:20:23Z</time>
      </trkpt>
      <trkpt lat="43.86907" lon="6.58628">
        <ele>1193.2</ele>
        <time>2021-09-18T09:20:24Z</time>
      </trkpt>
      <trkpt lat="43.86908" lon="6.58629">
        <ele>1193.3</ele>
        <time>2021-09-18T09:20:25Z</time>
      </trkpt>
      <trkpt lat="43.86909" lon="6.58631">
        <ele>1193.4</ele>
        <time>2021-09-18T09:20:26Z</time>
      </trkpt>
      <trkpt lat="43.86912" lon="6.58633">
        <ele>1193.6</ele>
        <time>2021-09-18T09:20:28Z</time>
      </trkpt>
      <trkpt lat="43.86913" lon="6.58634">
        <ele>1193.8</ele>
        <time>2021-09-18T09:20:29Z</time>
      </trkpt>
      <trkpt lat="43.86914" lon="6.58636">
        <ele>1193.9</ele>
        <time>2021-09-18T09:20:30Z</time>
      </trkpt>
      <trkpt lat="43.86916" lon="6.58639">
        <ele>1194.1</ele>
        <time>2021-09-18T09:20:31Z</time>
      </trkpt>
      <trkpt lat="43.86916" lon="6.5864">
        <ele>1194.1</ele>
        <time>2021-09-18T09:20:32Z</time>
      </trkpt>
      <trkpt lat="43.86917" lon="6.58645">
        <ele>1194.4</ele>
        <time>2021-09-18T09:20:34Z</time>
      </trkpt>
      <trkpt lat="43.86919" lon="6.58649">
        <ele>1194.6</ele>
        <time>2021-09-18T09:20:36Z</time>
      </trkpt>
      <trkpt lat="43.8692" lon="6.58651">
        <ele>1194.8</ele>
        <time>2021-09-18T09:20:37Z</time>
      </trkpt>
      <trkpt lat="43.86921" lon="6.58653">
        <ele>1194.9</ele>
        <time>2021-09-18T09:20:38Z</time>
      </trkpt>
      <trkpt lat="43.86923" lon="6.58657">
        <ele>1195.1</ele>
        <time>2021-09-18T09:20:39Z</time>
      </trkpt>
      <trkpt lat="43.86924" lon="6.58663">
        <ele>1195.4</ele>
        <time>2021-09-18T09:20:41Z</time>
      </trkpt>
      <trkpt lat="43.86924" lon="6.58666">
        <ele>1195.5</ele>
        <time>2021-09-18T09:20:43Z</time>
      </trkpt>
      <trkpt lat="43.86924" lon="6.58668">
        <ele>1195.6</ele>
        <time>2021-09-18T09:20:44Z</time>
      </trkpt>
      <trkpt lat="43.86923" lon="6.58671">
        <ele>1195.8</ele>
        <time>2021-09-18T09:20:45Z</time>
      </trkpt>
      <trkpt lat="43.86922" lon="6.58675">
        <ele>1195.9</ele>
        <time>2021-09-18T09:20:47Z</time>
      </trkpt>
      <trkpt lat="43.8692" lon="6.58678">
        <ele>1196.1</ele>
        <time>2021-09-18T09:20:48Z</time>
      </trkpt>
      <trkpt lat="43.86916" lon="6.58685">
        <ele>1196.4</ele>
        <time>2021-09-18T09:20:50Z</time>
      </trkpt>
      <trkpt lat="43.86914" lon="6.58689">
        <ele>1196.6</ele>
        <time>2021-09-18T09:20:51Z</time>
      </trkpt>
      <trkpt lat="43.86911" lon="6.58696">
        <ele>1197</ele>
        <time>2021-09-18T09:20:53Z</time>
      </trkpt>
      <trkpt lat="43.8691" lon="6.587">
        <ele>1197.1</ele>
        <time>2021-09-18T09:20:54Z</time>
      </trkpt>
      <trkpt lat="43.86909" lon="6.58706">
        <ele>1197.4</ele>
        <time>2021-09-18T09:20:56Z</time>
      </trkpt>
      <trkpt lat="43.86909" lon="6.58709">
        <ele>1197.5</ele>
        <time>2021-09-18T09:20:57Z</time>
      </trkpt>
      <trkpt lat="43.86907" lon="6.58714">
        <ele>1197.7</ele>
        <time>2021-09-18T09:20:59Z</time>
      </trkpt>
      <trkpt lat="43.86905" lon="6.58717">
        <ele>1197.9</ele>
        <time>2021-09-18T09:21:00Z</time>
      </trkpt>
      <trkpt lat="43.86904" lon="6.5872">
        <ele>1198</ele>
        <time>2021-09-18T09:21:02Z</time>
      </trkpt>
      <trkpt lat="43.86904" lon="6.58722">
        <ele>1198.1</ele>
        <time>2021-09-18T09:21:04Z</time>
      </trkpt>
      <trkpt lat="43.86903" lon="6.58724">
        <ele>1198.2</ele>
        <time>2021-09-18T09:21:05Z</time>
      </trkpt>
      <trkpt lat="43.86903" lon="6.58728">
        <ele>1198.3</ele>
        <time>2021-09-18T09:21:07Z</time>
      </trkpt>
      <trkpt lat="43.86902" lon="6.5873">
        <ele>1198.4</ele>
        <time>2021-09-18T09:21:08Z</time>
      </trkpt>
      <trkpt lat="43.869" lon="6.58733">
        <ele>1198.5</ele>
        <time>2021-09-18T09:21:10Z</time>
      </trkpt>
      <trkpt lat="43.869" lon="6.58734">
        <ele>1198.6</ele>
        <time>2021-09-18T09:21:11Z</time>
      </trkpt>
      <trkpt lat="43.86898" lon="6.58736">
        <ele>1198.7</ele>
        <time>2021-09-18T09:21:12Z</time>
      </trkpt>
      <trkpt lat="43.86895" lon="6.5874">
        <ele>1198.9</ele>
        <time>2021-09-18T09:21:14Z</time>
      </trkpt>
      <trkpt lat="43.86893" lon="6.58745">
        <ele>1199.2</ele>
        <time>2021-09-18T09:21:16Z</time>
      </trkpt>
      <trkpt lat="43.86891" lon="6.58746">
        <ele>1199.2</ele>
        <time>2021-09-18T09:21:17Z</time>
      </trkpt>
      <trkpt lat="43.8689" lon="6.58747">
        <ele>1199.3</ele>
        <time>2021-09-18T09:21:18Z</time>
      </trkpt>
      <trkpt lat="43.86889" lon="6.58749">
        <ele>1199.4</ele>
        <time>2021-09-18T09:21:19Z</time>
      </trkpt>
      <trkpt lat="43.86887" lon="6.5875">
        <ele>1199.5</ele>
        <time>2021-09-18T09:21:20Z</time>
      </trkpt>
      <trkpt lat="43.86886" lon="6.58752">
        <ele>1199.6</ele>
        <time>2021-09-18T09:21:21Z</time>
      </trkpt>
      <trkpt lat="43.86884" lon="6.58755">
        <ele>1199.7</ele>
        <time>2021-09-18T09:21:23Z</time>
      </trkpt>
      <trkpt lat="43.86884" lon="6.58757">
        <ele>1199.9</ele>
        <time>2021-09-18T09:21:24Z</time>
      </trkpt>
      <trkpt lat="43.86883" lon="6.58762">
        <ele>1200</ele>
        <time>2021-09-18T09:21:26Z</time>
      </trkpt>
      <trkpt lat="43.86881" lon="6.58765">
        <ele>1200.2</ele>
        <time>2021-09-18T09:21:27Z</time>
      </trkpt>
      <trkpt lat="43.8688" lon="6.58769">
        <ele>1200.4</ele>
        <time>2021-09-18T09:21:29Z</time>
      </trkpt>
      <trkpt lat="43.86877" lon="6.58774">
        <ele>1200.7</ele>
        <time>2021-09-18T09:21:31Z</time>
      </trkpt>
      <trkpt lat="43.86874" lon="6.58778">
        <ele>1200.9</ele>
        <time>2021-09-18T09:21:33Z</time>
      </trkpt>
      <trkpt lat="43.86871" lon="6.58782">
        <ele>1201.2</ele>
        <time>2021-09-18T09:21:34Z</time>
      </trkpt>
      <trkpt lat="43.86871" lon="6.58784">
        <ele>1201.3</ele>
        <time>2021-09-18T09:21:35Z</time>
      </trkpt>
      <trkpt lat="43.86869" lon="6.58787">
        <ele>1201.4</ele>
        <time>2021-09-18T09:21:36Z</time>
      </trkpt>
      <trkpt lat="43.86865" lon="6.5879">
        <ele>1201.7</ele>
        <time>2021-09-18T09:21:38Z</time>
      </trkpt>
      <trkpt lat="43.86862" lon="6.58794">
        <ele>1202</ele>
        <time>2021-09-18T09:21:39Z</time>
      </trkpt>
      <trkpt lat="43.86859" lon="6.58797">
        <ele>1202.3</ele>
        <time>2021-09-18T09:21:41Z</time>
      </trkpt>
      <trkpt lat="43.86857" lon="6.588">
        <ele>1202.5</ele>
        <time>2021-09-18T09:21:43Z</time>
      </trkpt>
      <trkpt lat="43.86856" lon="6.58801">
        <ele>1202.6</ele>
        <time>2021-09-18T09:21:44Z</time>
      </trkpt>
      <trkpt lat="43.86855" lon="6.58804">
        <ele>1202.8</ele>
        <time>2021-09-18T09:21:45Z</time>
      </trkpt>
      <trkpt lat="43.86853" lon="6.58806">
        <ele>1202.9</ele>
        <time>2021-09-18T09:21:47Z</time>
      </trkpt>
      <trkpt lat="43.86852" lon="6.58808">
        <ele>1203.1</ele>
        <time>2021-09-18T09:21:48Z</time>
      </trkpt>
      <trkpt lat="43.86851" lon="6.5881">
        <ele>1203.2</ele>
        <time>2021-09-18T09:21:50Z</time>
      </trkpt>
      <trkpt lat="43.86849" lon="6.58812">
        <ele>1203.4</ele>
        <time>2021-09-18T09:21:51Z</time>
      </trkpt>
      <trkpt lat="43.86848" lon="6.58813">
        <ele>1203.5</ele>
        <time>2021-09-18T09:21:53Z</time>
      </trkpt>
      <trkpt lat="43.86846" lon="6.58816">
        <ele>1203.7</ele>
        <time>2021-09-18T09:21:54Z</time>
      </trkpt>
      <trkpt lat="43.86844" lon="6.5882">
        <ele>1203.9</ele>
        <time>2021-09-18T09:21:56Z</time>
      </trkpt>
      <trkpt lat="43.86843" lon="6.58825">
        <ele>1204.2</ele>
        <time>2021-09-18T09:21:58Z</time>
      </trkpt>
      <trkpt lat="43.86843" lon="6.58826">
        <ele>1204.2</ele>
        <time>2021-09-18T09:21:59Z</time>
      </trkpt>
      <trkpt lat="43.86842" lon="6.58832">
        <ele>1204.5</ele>
        <time>2021-09-18T09:22:00Z</time>
      </trkpt>
      <trkpt lat="43.86842" lon="6.58835">
        <ele>1204.7</ele>
        <time>2021-09-18T09:22:01Z</time>
      </trkpt>
      <trkpt lat="43.86842" lon="6.58839">
        <ele>1204.9</ele>
        <time>2021-09-18T09:22:02Z</time>
      </trkpt>
      <trkpt lat="43.86843" lon="6.58845">
        <ele>1205.2</ele>
        <time>2021-09-18T09:22:04Z</time>
      </trkpt>
      <trkpt lat="43.86843" lon="6.5885">
        <ele>1205.4</ele>
        <time>2021-09-18T09:22:05Z</time>
      </trkpt>
      <trkpt lat="43.86844" lon="6.58852">
        <ele>1205.5</ele>
        <time>2021-09-18T09:22:06Z</time>
      </trkpt>
      <trkpt lat="43.86844" lon="6.58855">
        <ele>1205.7</ele>
        <time>2021-09-18T09:22:07Z</time>
      </trkpt>
      <trkpt lat="43.86844" lon="6.58861">
        <ele>1205.9</ele>
        <time>2021-09-18T09:22:09Z</time>
      </trkpt>
      <trkpt lat="43.86843" lon="6.58867">
        <ele>1206.2</ele>
        <time>2021-09-18T09:22:11Z</time>
      </trkpt>
      <trkpt lat="43.86843" lon="6.58869">
        <ele>1206.3</ele>
        <time>2021-09-18T09:22:13Z</time>
      </trkpt>
      <trkpt lat="43.86843" lon="6.58871">
        <ele>1206.4</ele>
        <time>2021-09-18T09:22:14Z</time>
      </trkpt>
      <trkpt lat="43.86844" lon="6.58873">
        <ele>1206.5</ele>
        <time>2021-09-18T09:22:16Z</time>
      </trkpt>
      <trkpt lat="43.86844" lon="6.58875">
        <ele>1206.6</ele>
        <time>2021-09-18T09:22:17Z</time>
      </trkpt>
      <trkpt lat="43.86844" lon="6.58878">
        <ele>1206.7</ele>
        <time>2021-09-18T09:22:18Z</time>
      </trkpt>
      <trkpt lat="43.86843" lon="6.58882">
        <ele>1206.9</ele>
        <time>2021-09-18T09:22:20Z</time>
      </trkpt>
      <trkpt lat="43.86843" lon="6.58886">
        <ele>1207.1</ele>
        <time>2021-09-18T09:22:22Z</time>
      </trkpt>
      <trkpt lat="43.86843" lon="6.58888">
        <ele>1207.2</ele>
        <time>2021-09-18T09:22:23Z</time>
      </trkpt>
      <trkpt lat="43.86843" lon="6.5889">
        <ele>1207.3</ele>
        <time>2021-09-18T09:22:24Z</time>
      </trkpt>
      <trkpt lat="43.86843" lon="6.58892">
        <ele>1207.3</ele>
        <time>2021-09-18T09:22:25Z</time>
      </trkpt>
      <trkpt lat="43.86842" lon="6.58894">
        <ele>1207.5</ele>
        <time>2021-09-18T09:22:26Z</time>
      </trkpt>
      <trkpt lat="43.86842" lon="6.58897">
        <ele>1207.6</ele>
        <time>2021-09-18T09:22:27Z</time>
      </trkpt>
      <trkpt lat="43.86843" lon="6.589">
        <ele>1207.8</ele>
        <time>2021-09-18T09:22:29Z</time>
      </trkpt>
      <trkpt lat="43.86843" lon="6.58902">
        <ele>1207.9</ele>
        <time>2021-09-18T09:22:30Z</time>
      </trkpt>
      <trkpt lat="43.86844" lon="6.58907">
        <ele>1208.1</ele>
        <time>2021-09-18T09:22:32Z</time>
      </trkpt>
      <trkpt lat="43.86844" lon="6.58911">
        <ele>1208.3</ele>
        <time>2021-09-18T09:22:34Z</time>
      </trkpt>
      <trkpt lat="43.86844" lon="6.58913">
        <ele>1208.4</ele>
        <time>2021-09-18T09:22:35Z</time>
      </trkpt>
      <trkpt lat="43.86844" lon="6.58915">
        <ele>1208.6</ele>
        <time>2021-09-18T09:22:36Z</time>
      </trkpt>
      <trkpt lat="43.86844" lon="6.5892">
        <ele>1208.8</ele>
        <time>2021-09-18T09:22:38Z</time>
      </trkpt>
      <trkpt lat="43.86843" lon="6.58923">
        <ele>1208.9</ele>
        <time>2021-09-18T09:22:39Z</time>
      </trkpt>
      <trkpt lat="43.86842" lon="6.58928">
        <ele>1209.2</ele>
        <time>2021-09-18T09:22:41Z</time>
      </trkpt>
      <trkpt lat="43.86841" lon="6.5893">
        <ele>1209.4</ele>
        <time>2021-09-18T09:22:42Z</time>
      </trkpt>
      <trkpt lat="43.8684" lon="6.58935">
        <ele>1209.7</ele>
        <time>2021-09-18T09:22:44Z</time>
      </trkpt>
      <trkpt lat="43.86839" lon="6.5894">
        <ele>1209.9</ele>
        <time>2021-09-18T09:22:45Z</time>
      </trkpt>
      <trkpt lat="43.86839" lon="6.58943">
        <ele>1210.1</ele>
        <time>2021-09-18T09:22:46Z</time>
      </trkpt>
      <trkpt lat="43.86838" lon="6.58946">
        <ele>1210.2</ele>
        <time>2021-09-18T09:22:48Z</time>
      </trkpt>
      <trkpt lat="43.86836" lon="6.58949">
        <ele>1210.5</ele>
        <time>2021-09-18T09:22:49Z</time>
      </trkpt>
      <trkpt lat="43.86835" lon="6.58953">
        <ele>1210.7</ele>
        <time>2021-09-18T09:22:50Z</time>
      </trkpt>
      <trkpt lat="43.86834" lon="6.58955">
        <ele>1210.8</ele>
        <time>2021-09-18T09:22:52Z</time>
      </trkpt>
      <trkpt lat="43.86834" lon="6.58956">
        <ele>1210.9</ele>
        <time>2021-09-18T09:22:53Z</time>
      </trkpt>
      <trkpt lat="43.86833" lon="6.58958">
        <ele>1211</ele>
        <time>2021-09-18T09:22:54Z</time>
      </trkpt>
      <trkpt lat="43.86833" lon="6.5896">
        <ele>1211.1</ele>
        <time>2021-09-18T09:22:55Z</time>
      </trkpt>
      <trkpt lat="43.86833" lon="6.58964">
        <ele>1211.3</ele>
        <time>2021-09-18T09:22:57Z</time>
      </trkpt>
      <trkpt lat="43.86833" lon="6.58968">
        <ele>1211.5</ele>
        <time>2021-09-18T09:22:58Z</time>
      </trkpt>
      <trkpt lat="43.86832" lon="6.58973">
        <ele>1211.7</ele>
        <time>2021-09-18T09:23:00Z</time>
      </trkpt>
      <trkpt lat="43.86832" lon="6.58974">
        <ele>1211.8</ele>
        <time>2021-09-18T09:23:01Z</time>
      </trkpt>
      <trkpt lat="43.86831" lon="6.58979">
        <ele>1212.1</ele>
        <time>2021-09-18T09:23:03Z</time>
      </trkpt>
      <trkpt lat="43.8683" lon="6.58983">
        <ele>1212.3</ele>
        <time>2021-09-18T09:23:04Z</time>
      </trkpt>
      <trkpt lat="43.8683" lon="6.58988">
        <ele>1212.5</ele>
        <time>2021-09-18T09:23:06Z</time>
      </trkpt>
      <trkpt lat="43.8683" lon="6.5899">
        <ele>1212.6</ele>
        <time>2021-09-18T09:23:07Z</time>
      </trkpt>
      <trkpt lat="43.8683" lon="6.58994">
        <ele>1212.8</ele>
        <time>2021-09-18T09:23:08Z</time>
      </trkpt>
      <trkpt lat="43.86831" lon="6.58996">
        <ele>1212.9</ele>
        <time>2021-09-18T09:23:10Z</time>
      </trkpt>
      <trkpt lat="43.86831" lon="6.59">
        <ele>1213.1</ele>
        <time>2021-09-18T09:23:11Z</time>
      </trkpt>
      <trkpt lat="43.86832" lon="6.59002">
        <ele>1213.2</ele>
        <time>2021-09-18T09:23:12Z</time>
      </trkpt>
      <trkpt lat="43.86832" lon="6.59006">
        <ele>1213.4</ele>
        <time>2021-09-18T09:23:14Z</time>
      </trkpt>
      <trkpt lat="43.86832" lon="6.59007">
        <ele>1213.4</ele>
        <time>2021-09-18T09:23:15Z</time>
      </trkpt>
      <trkpt lat="43.86832" lon="6.59011">
        <ele>1213.6</ele>
        <time>2021-09-18T09:23:17Z</time>
      </trkpt>
      <trkpt lat="43.86831" lon="6.59014">
        <ele>1213.7</ele>
        <time>2021-09-18T09:23:18Z</time>
      </trkpt>
      <trkpt lat="43.86832" lon="6.59019">
        <ele>1214</ele>
        <time>2021-09-18T09:23:20Z</time>
      </trkpt>
      <trkpt lat="43.86832" lon="6.59021">
        <ele>1214.1</ele>
        <time>2021-09-18T09:23:21Z</time>
      </trkpt>
      <trkpt lat="43.86831" lon="6.59026">
        <ele>1214.4</ele>
        <time>2021-09-18T09:23:23Z</time>
      </trkpt>
      <trkpt lat="43.86829" lon="6.5903">
        <ele>1214.6</ele>
        <time>2021-09-18T09:23:24Z</time>
      </trkpt>
      <trkpt lat="43.86829" lon="6.59032">
        <ele>1214.7</ele>
        <time>2021-09-18T09:23:25Z</time>
      </trkpt>
      <trkpt lat="43.86827" lon="6.59038">
        <ele>1215.1</ele>
        <time>2021-09-18T09:23:27Z</time>
      </trkpt>
      <trkpt lat="43.86826" lon="6.5904">
        <ele>1215.2</ele>
        <time>2021-09-18T09:23:29Z</time>
      </trkpt>
      <trkpt lat="43.86826" lon="6.59042">
        <ele>1215.3</ele>
        <time>2021-09-18T09:23:30Z</time>
      </trkpt>
      <trkpt lat="43.86825" lon="6.59045">
        <ele>1215.5</ele>
        <time>2021-09-18T09:23:31Z</time>
      </trkpt>
      <trkpt lat="43.86823" lon="6.59049">
        <ele>1215.8</ele>
        <time>2021-09-18T09:23:33Z</time>
      </trkpt>
      <trkpt lat="43.86821" lon="6.59054">
        <ele>1216.1</ele>
        <time>2021-09-18T09:23:35Z</time>
      </trkpt>
      <trkpt lat="43.86821" lon="6.59059">
        <ele>1216.4</ele>
        <time>2021-09-18T09:23:37Z</time>
      </trkpt>
      <trkpt lat="43.86821" lon="6.59062">
        <ele>1216.5</ele>
        <time>2021-09-18T09:23:38Z</time>
      </trkpt>
      <trkpt lat="43.86821" lon="6.59068">
        <ele>1216.9</ele>
        <time>2021-09-18T09:23:40Z</time>
      </trkpt>
      <trkpt lat="43.86822" lon="6.59072">
        <ele>1217.1</ele>
        <time>2021-09-18T09:23:41Z</time>
      </trkpt>
      <trkpt lat="43.86822" lon="6.59074">
        <ele>1217.2</ele>
        <time>2021-09-18T09:23:42Z</time>
      </trkpt>
      <trkpt lat="43.86821" lon="6.59079">
        <ele>1217.5</ele>
        <time>2021-09-18T09:23:44Z</time>
      </trkpt>
      <trkpt lat="43.8682" lon="6.59081">
        <ele>1217.6</ele>
        <time>2021-09-18T09:23:45Z</time>
      </trkpt>
      <trkpt lat="43.86819" lon="6.59085">
        <ele>1217.8</ele>
        <time>2021-09-18T09:23:47Z</time>
      </trkpt>
      <trkpt lat="43.86819" lon="6.59087">
        <ele>1217.9</ele>
        <time>2021-09-18T09:23:48Z</time>
      </trkpt>
      <trkpt lat="43.86818" lon="6.59089">
        <ele>1218</ele>
        <time>2021-09-18T09:23:49Z</time>
      </trkpt>
      <trkpt lat="43.86818" lon="6.59093">
        <ele>1218.3</ele>
        <time>2021-09-18T09:23:50Z</time>
      </trkpt>
      <trkpt lat="43.86818" lon="6.59095">
        <ele>1218.4</ele>
        <time>2021-09-18T09:23:51Z</time>
      </trkpt>
      <trkpt lat="43.86818" lon="6.591">
        <ele>1218.7</ele>
        <time>2021-09-18T09:23:53Z</time>
      </trkpt>
      <trkpt lat="43.86818" lon="6.59102">
        <ele>1218.8</ele>
        <time>2021-09-18T09:23:54Z</time>
      </trkpt>
      <trkpt lat="43.86818" lon="6.59106">
        <ele>1218.9</ele>
        <time>2021-09-18T09:23:55Z</time>
      </trkpt>
      <trkpt lat="43.86817" lon="6.59109">
        <ele>1219.1</ele>
        <time>2021-09-18T09:23:57Z</time>
      </trkpt>
      <trkpt lat="43.86816" lon="6.59113">
        <ele>1219.3</ele>
        <time>2021-09-18T09:23:58Z</time>
      </trkpt>
      <trkpt lat="43.86816" lon="6.59118">
        <ele>1219.6</ele>
        <time>2021-09-18T09:24:00Z</time>
      </trkpt>
      <trkpt lat="43.86816" lon="6.59119">
        <ele>1219.6</ele>
        <time>2021-09-18T09:24:01Z</time>
      </trkpt>
      <trkpt lat="43.86816" lon="6.59122">
        <ele>1219.7</ele>
        <time>2021-09-18T09:24:02Z</time>
      </trkpt>
      <trkpt lat="43.86816" lon="6.59126">
        <ele>1220</ele>
        <time>2021-09-18T09:24:04Z</time>
      </trkpt>
      <trkpt lat="43.86816" lon="6.5913">
        <ele>1220.2</ele>
        <time>2021-09-18T09:24:05Z</time>
      </trkpt>
      <trkpt lat="43.86816" lon="6.59132">
        <ele>1220.2</ele>
        <time>2021-09-18T09:24:06Z</time>
      </trkpt>
      <trkpt lat="43.86816" lon="6.59134">
        <ele>1220.3</ele>
        <time>2021-09-18T09:24:07Z</time>
      </trkpt>
      <trkpt lat="43.86816" lon="6.59136">
        <ele>1220.5</ele>
        <time>2021-09-18T09:24:08Z</time>
      </trkpt>
      <trkpt lat="43.86818" lon="6.5914">
        <ele>1220.7</ele>
        <time>2021-09-18T09:24:10Z</time>
      </trkpt>
      <trkpt lat="43.86818" lon="6.59141">
        <ele>1220.7</ele>
        <time>2021-09-18T09:24:11Z</time>
      </trkpt>
      <trkpt lat="43.86819" lon="6.59145">
        <ele>1220.9</ele>
        <time>2021-09-18T09:24:12Z</time>
      </trkpt>
      <trkpt lat="43.8682" lon="6.59146">
        <ele>1221</ele>
        <time>2021-09-18T09:24:13Z</time>
      </trkpt>
      <trkpt lat="43.8682" lon="6.59149">
        <ele>1221.1</ele>
        <time>2021-09-18T09:24:14Z</time>
      </trkpt>
      <trkpt lat="43.8682" lon="6.59151">
        <ele>1221.2</ele>
        <time>2021-09-18T09:24:15Z</time>
      </trkpt>
      <trkpt lat="43.8682" lon="6.59155">
        <ele>1221.4</ele>
        <time>2021-09-18T09:24:17Z</time>
      </trkpt>
      <trkpt lat="43.86821" lon="6.59157">
        <ele>1221.5</ele>
        <time>2021-09-18T09:24:18Z</time>
      </trkpt>
      <trkpt lat="43.86821" lon="6.59161">
        <ele>1221.7</ele>
        <time>2021-09-18T09:24:19Z</time>
      </trkpt>
      <trkpt lat="43.86821" lon="6.59163">
        <ele>1221.8</ele>
        <time>2021-09-18T09:24:20Z</time>
      </trkpt>
      <trkpt lat="43.86822" lon="6.59167">
        <ele>1222</ele>
        <time>2021-09-18T09:24:22Z</time>
      </trkpt>
      <trkpt lat="43.86822" lon="6.59168">
        <ele>1222.1</ele>
        <time>2021-09-18T09:24:23Z</time>
      </trkpt>
      <trkpt lat="43.86823" lon="6.59173">
        <ele>1222.3</ele>
        <time>2021-09-18T09:24:24Z</time>
      </trkpt>
      <trkpt lat="43.86824" lon="6.59174">
        <ele>1222.4</ele>
        <time>2021-09-18T09:24:25Z</time>
      </trkpt>
      <trkpt lat="43.86824" lon="6.59176">
        <ele>1222.5</ele>
        <time>2021-09-18T09:24:26Z</time>
      </trkpt>
      <trkpt lat="43.86826" lon="6.59182">
        <ele>1223</ele>
        <time>2021-09-18T09:24:28Z</time>
      </trkpt>
      <trkpt lat="43.86827" lon="6.59187">
        <ele>1223.2</ele>
        <time>2021-09-18T09:24:30Z</time>
      </trkpt>
      <trkpt lat="43.86828" lon="6.59189">
        <ele>1223.3</ele>
        <time>2021-09-18T09:24:31Z</time>
      </trkpt>
      <trkpt lat="43.86829" lon="6.59191">
        <ele>1223.4</ele>
        <time>2021-09-18T09:24:32Z</time>
      </trkpt>
      <trkpt lat="43.86831" lon="6.59194">
        <ele>1223.5</ele>
        <time>2021-09-18T09:24:34Z</time>
      </trkpt>
      <trkpt lat="43.86832" lon="6.59196">
        <ele>1223.6</ele>
        <time>2021-09-18T09:24:36Z</time>
      </trkpt>
      <trkpt lat="43.86833" lon="6.59197">
        <ele>1223.7</ele>
        <time>2021-09-18T09:24:37Z</time>
      </trkpt>
      <trkpt lat="43.86834" lon="6.59198">
        <ele>1223.7</ele>
        <time>2021-09-18T09:24:38Z</time>
      </trkpt>
      <trkpt lat="43.86837" lon="6.59201">
        <ele>1223.9</ele>
        <time>2021-09-18T09:24:40Z</time>
      </trkpt>
      <trkpt lat="43.86838" lon="6.59203">
        <ele>1224</ele>
        <time>2021-09-18T09:24:41Z</time>
      </trkpt>
      <trkpt lat="43.86839" lon="6.59205">
        <ele>1224.1</ele>
        <time>2021-09-18T09:24:42Z</time>
      </trkpt>
      <trkpt lat="43.8684" lon="6.59206">
        <ele>1224.1</ele>
        <time>2021-09-18T09:24:44Z</time>
      </trkpt>
      <trkpt lat="43.86842" lon="6.59207">
        <ele>1224.2</ele>
        <time>2021-09-18T09:24:45Z</time>
      </trkpt>
      <trkpt lat="43.86843" lon="6.59208">
        <ele>1224.3</ele>
        <time>2021-09-18T09:24:46Z</time>
      </trkpt>
      <trkpt lat="43.86845" lon="6.59211">
        <ele>1224.4</ele>
        <time>2021-09-18T09:24:47Z</time>
      </trkpt>
      <trkpt lat="43.86846" lon="6.59211">
        <ele>1224.5</ele>
        <time>2021-09-18T09:24:48Z</time>
      </trkpt>
      <trkpt lat="43.86848" lon="6.59213">
        <ele>1224.6</ele>
        <time>2021-09-18T09:24:49Z</time>
      </trkpt>
      <trkpt lat="43.8685" lon="6.59215">
        <ele>1224.7</ele>
        <time>2021-09-18T09:24:51Z</time>
      </trkpt>
      <trkpt lat="43.86852" lon="6.59217">
        <ele>1224.8</ele>
        <time>2021-09-18T09:24:52Z</time>
      </trkpt>
      <trkpt lat="43.86855" lon="6.59219">
        <ele>1225</ele>
        <time>2021-09-18T09:24:53Z</time>
      </trkpt>
      <trkpt lat="43.86855" lon="6.59219">
        <ele>1225</ele>
        <time>2021-09-18T09:24:54Z</time>
      </trkpt>
      <trkpt lat="43.86858" lon="6.59222">
        <ele>1225.2</ele>
        <time>2021-09-18T09:24:56Z</time>
      </trkpt>
      <trkpt lat="43.86859" lon="6.59222">
        <ele>1225.2</ele>
        <time>2021-09-18T09:24:57Z</time>
      </trkpt>
      <trkpt lat="43.86861" lon="6.59224">
        <ele>1225.4</ele>
        <time>2021-09-18T09:24:58Z</time>
      </trkpt>
      <trkpt lat="43.86862" lon="6.59225">
        <ele>1225.4</ele>
        <time>2021-09-18T09:24:59Z</time>
      </trkpt>
      <trkpt lat="43.86865" lon="6.59228">
        <ele>1225.6</ele>
        <time>2021-09-18T09:25:00Z</time>
      </trkpt>
      <trkpt lat="43.86865" lon="6.59229">
        <ele>1225.7</ele>
        <time>2021-09-18T09:25:01Z</time>
      </trkpt>
      <trkpt lat="43.86867" lon="6.59233">
        <ele>1225.8</ele>
        <time>2021-09-18T09:25:02Z</time>
      </trkpt>
      <trkpt lat="43.86871" lon="6.59237">
        <ele>1226</ele>
        <time>2021-09-18T09:25:04Z</time>
      </trkpt>
      <trkpt lat="43.86871" lon="6.59239">
        <ele>1226.1</ele>
        <time>2021-09-18T09:25:05Z</time>
      </trkpt>
      <trkpt lat="43.86872" lon="6.5924">
        <ele>1226.1</ele>
        <time>2021-09-18T09:25:06Z</time>
      </trkpt>
      <trkpt lat="43.86875" lon="6.59244">
        <ele>1226.3</ele>
        <time>2021-09-18T09:25:08Z</time>
      </trkpt>
      <trkpt lat="43.86876" lon="6.59246">
        <ele>1226.3</ele>
        <time>2021-09-18T09:25:09Z</time>
      </trkpt>
      <trkpt lat="43.86878" lon="6.5925">
        <ele>1226.4</ele>
        <time>2021-09-18T09:25:11Z</time>
      </trkpt>
      <trkpt lat="43.86879" lon="6.59253">
        <ele>1226.5</ele>
        <time>2021-09-18T09:25:13Z</time>
      </trkpt>
      <trkpt lat="43.86878" lon="6.59255">
        <ele>1226.6</ele>
        <time>2021-09-18T09:25:14Z</time>
      </trkpt>
      <trkpt lat="43.86878" lon="6.59258">
        <ele>1226.7</ele>
        <time>2021-09-18T09:25:15Z</time>
      </trkpt>
      <trkpt lat="43.86877" lon="6.59263">
        <ele>1226.8</ele>
        <time>2021-09-18T09:25:17Z</time>
      </trkpt>
      <trkpt lat="43.86875" lon="6.59267">
        <ele>1226.9</ele>
        <time>2021-09-18T09:25:18Z</time>
      </trkpt>
      <trkpt lat="43.86875" lon="6.59268">
        <ele>1227</ele>
        <time>2021-09-18T09:25:19Z</time>
      </trkpt>
      <trkpt lat="43.86874" lon="6.59271">
        <ele>1227</ele>
        <time>2021-09-18T09:25:20Z</time>
      </trkpt>
      <trkpt lat="43.86873" lon="6.59278">
        <ele>1227.2</ele>
        <time>2021-09-18T09:25:22Z</time>
      </trkpt>
      <trkpt lat="43.86872" lon="6.59282">
        <ele>1227.3</ele>
        <time>2021-09-18T09:25:23Z</time>
      </trkpt>
      <trkpt lat="43.86869" lon="6.59287">
        <ele>1227.5</ele>
        <time>2021-09-18T09:25:24Z</time>
      </trkpt>
      <trkpt lat="43.86868" lon="6.59291">
        <ele>1227.6</ele>
        <time>2021-09-18T09:25:26Z</time>
      </trkpt>
      <trkpt lat="43.86866" lon="6.59294">
        <ele>1227.7</ele>
        <time>2021-09-18T09:25:27Z</time>
      </trkpt>
      <trkpt lat="43.86864" lon="6.59299">
        <ele>1227.8</ele>
        <time>2021-09-18T09:25:28Z</time>
      </trkpt>
      <trkpt lat="43.86863" lon="6.593">
        <ele>1227.8</ele>
        <time>2021-09-18T09:25:29Z</time>
      </trkpt>
      <trkpt lat="43.86861" lon="6.59305">
        <ele>1228</ele>
        <time>2021-09-18T09:25:30Z</time>
      </trkpt>
      <trkpt lat="43.86859" lon="6.59309">
        <ele>1228.1</ele>
        <time>2021-09-18T09:25:32Z</time>
      </trkpt>
      <trkpt lat="43.86855" lon="6.59313">
        <ele>1228.3</ele>
        <time>2021-09-18T09:25:34Z</time>
      </trkpt>
      <trkpt lat="43.86854" lon="6.59314">
        <ele>1228.4</ele>
        <time>2021-09-18T09:25:35Z</time>
      </trkpt>
      <trkpt lat="43.86852" lon="6.59316">
        <ele>1228.5</ele>
        <time>2021-09-18T09:25:36Z</time>
      </trkpt>
      <trkpt lat="43.8685" lon="6.59318">
        <ele>1228.6</ele>
        <time>2021-09-18T09:25:37Z</time>
      </trkpt>
      <trkpt lat="43.86848" lon="6.5932">
        <ele>1228.7</ele>
        <time>2021-09-18T09:25:39Z</time>
      </trkpt>
      <trkpt lat="43.86845" lon="6.59323">
        <ele>1228.8</ele>
        <time>2021-09-18T09:25:41Z</time>
      </trkpt>
      <trkpt lat="43.86843" lon="6.59325">
        <ele>1228.9</ele>
        <time>2021-09-18T09:25:42Z</time>
      </trkpt>
      <trkpt lat="43.8684" lon="6.5933">
        <ele>1229.1</ele>
        <time>2021-09-18T09:25:44Z</time>
      </trkpt>
      <trkpt lat="43.86839" lon="6.59332">
        <ele>1229.2</ele>
        <time>2021-09-18T09:25:46Z</time>
      </trkpt>
      <trkpt lat="43.86838" lon="6.59334">
        <ele>1229.2</ele>
        <time>2021-09-18T09:25:47Z</time>
      </trkpt>
      <trkpt lat="43.86837" lon="6.59336">
        <ele>1229.3</ele>
        <time>2021-09-18T09:25:48Z</time>
      </trkpt>
      <trkpt lat="43.86835" lon="6.59341">
        <ele>1229.5</ele>
        <time>2021-09-18T09:25:50Z</time>
      </trkpt>
      <trkpt lat="43.86833" lon="6.59347">
        <ele>1229.6</ele>
        <time>2021-09-18T09:25:51Z</time>
      </trkpt>
      <trkpt lat="43.8683" lon="6.59354">
        <ele>1229.9</ele>
        <time>2021-09-18T09:25:54Z</time>
      </trkpt>
      <trkpt lat="43.86828" lon="6.59361">
        <ele>1230.1</ele>
        <time>2021-09-18T09:25:55Z</time>
      </trkpt>
      <trkpt lat="43.86826" lon="6.59364">
        <ele>1230.2</ele>
        <time>2021-09-18T09:25:56Z</time>
      </trkpt>
      <trkpt lat="43.86825" lon="6.59368">
        <ele>1230.3</ele>
        <time>2021-09-18T09:25:58Z</time>
      </trkpt>
      <trkpt lat="43.86823" lon="6.59373">
        <ele>1230.4</ele>
        <time>2021-09-18T09:25:59Z</time>
      </trkpt>
      <trkpt lat="43.86822" lon="6.59377">
        <ele>1230.5</ele>
        <time>2021-09-18T09:26:00Z</time>
      </trkpt>
      <trkpt lat="43.8682" lon="6.59383">
        <ele>1230.7</ele>
        <time>2021-09-18T09:26:02Z</time>
      </trkpt>
      <trkpt lat="43.86819" lon="6.59386">
        <ele>1230.8</ele>
        <time>2021-09-18T09:26:04Z</time>
      </trkpt>
      <trkpt lat="43.86818" lon="6.5939">
        <ele>1230.9</ele>
        <time>2021-09-18T09:26:05Z</time>
      </trkpt>
      <trkpt lat="43.86817" lon="6.59395">
        <ele>1231.1</ele>
        <time>2021-09-18T09:26:07Z</time>
      </trkpt>
      <trkpt lat="43.86816" lon="6.59399">
        <ele>1231.2</ele>
        <time>2021-09-18T09:26:08Z</time>
      </trkpt>
      <trkpt lat="43.86815" lon="6.59403">
        <ele>1231.3</ele>
        <time>2021-09-18T09:26:09Z</time>
      </trkpt>
      <trkpt lat="43.86815" lon="6.59404">
        <ele>1231.4</ele>
        <time>2021-09-18T09:26:10Z</time>
      </trkpt>
      <trkpt lat="43.86815" lon="6.59409">
        <ele>1231.5</ele>
        <time>2021-09-18T09:26:11Z</time>
      </trkpt>
      <trkpt lat="43.86815" lon="6.5941">
        <ele>1231.5</ele>
        <time>2021-09-18T09:26:12Z</time>
      </trkpt>
      <trkpt lat="43.86816" lon="6.59413">
        <ele>1231.6</ele>
        <time>2021-09-18T09:26:13Z</time>
      </trkpt>
      <trkpt lat="43.86817" lon="6.59417">
        <ele>1231.8</ele>
        <time>2021-09-18T09:26:15Z</time>
      </trkpt>
      <trkpt lat="43.86817" lon="6.59422">
        <ele>1231.9</ele>
        <time>2021-09-18T09:26:16Z</time>
      </trkpt>
      <trkpt lat="43.86818" lon="6.59427">
        <ele>1232.1</ele>
        <time>2021-09-18T09:26:17Z</time>
      </trkpt>
      <trkpt lat="43.86819" lon="6.59429">
        <ele>1232.2</ele>
        <time>2021-09-18T09:26:18Z</time>
      </trkpt>
      <trkpt lat="43.86821" lon="6.59434">
        <ele>1232.4</ele>
        <time>2021-09-18T09:26:20Z</time>
      </trkpt>
      <trkpt lat="43.86822" lon="6.59435">
        <ele>1232.4</ele>
        <time>2021-09-18T09:26:21Z</time>
      </trkpt>
      <trkpt lat="43.86822" lon="6.59437">
        <ele>1232.5</ele>
        <time>2021-09-18T09:26:22Z</time>
      </trkpt>
      <trkpt lat="43.86824" lon="6.5944">
        <ele>1232.6</ele>
        <time>2021-09-18T09:26:24Z</time>
      </trkpt>
      <trkpt lat="43.86827" lon="6.59442">
        <ele>1232.7</ele>
        <time>2021-09-18T09:26:25Z</time>
      </trkpt>
      <trkpt lat="43.86829" lon="6.59444">
        <ele>1232.9</ele>
        <time>2021-09-18T09:26:26Z</time>
      </trkpt>
      <trkpt lat="43.8683" lon="6.59445">
        <ele>1232.9</ele>
        <time>2021-09-18T09:26:27Z</time>
      </trkpt>
      <trkpt lat="43.86833" lon="6.59448">
        <ele>1233.1</ele>
        <time>2021-09-18T09:26:28Z</time>
      </trkpt>
      <trkpt lat="43.86833" lon="6.59449">
        <ele>1233.1</ele>
        <time>2021-09-18T09:26:29Z</time>
      </trkpt>
      <trkpt lat="43.86834" lon="6.59455">
        <ele>1233.3</ele>
        <time>2021-09-18T09:26:31Z</time>
      </trkpt>
      <trkpt lat="43.86838" lon="6.59458">
        <ele>1233.5</ele>
        <time>2021-09-18T09:26:33Z</time>
      </trkpt>
      <trkpt lat="43.8684" lon="6.59459">
        <ele>1233.5</ele>
        <time>2021-09-18T09:26:34Z</time>
      </trkpt>
      <trkpt lat="43.86841" lon="6.5946">
        <ele>1233.6</ele>
        <time>2021-09-18T09:26:35Z</time>
      </trkpt>
      <trkpt lat="43.86844" lon="6.59464">
        <ele>1233.8</ele>
        <time>2021-09-18T09:26:37Z</time>
      </trkpt>
      <trkpt lat="43.86845" lon="6.59465">
        <ele>1233.8</ele>
        <time>2021-09-18T09:26:38Z</time>
      </trkpt>
      <trkpt lat="43.86846" lon="6.59469">
        <ele>1234</ele>
        <time>2021-09-18T09:26:40Z</time>
      </trkpt>
      <trkpt lat="43.86847" lon="6.59471">
        <ele>1234</ele>
        <time>2021-09-18T09:26:41Z</time>
      </trkpt>
      <trkpt lat="43.86848" lon="6.59473">
        <ele>1234.1</ele>
        <time>2021-09-18T09:26:42Z</time>
      </trkpt>
      <trkpt lat="43.8685" lon="6.59475">
        <ele>1234.2</ele>
        <time>2021-09-18T09:26:43Z</time>
      </trkpt>
      <trkpt lat="43.86852" lon="6.5948">
        <ele>1234.4</ele>
        <time>2021-09-18T09:26:45Z</time>
      </trkpt>
      <trkpt lat="43.86853" lon="6.59487">
        <ele>1234.6</ele>
        <time>2021-09-18T09:26:46Z</time>
      </trkpt>
      <trkpt lat="43.86855" lon="6.59495">
        <ele>1234.8</ele>
        <time>2021-09-18T09:26:48Z</time>
      </trkpt>
      <trkpt lat="43.86856" lon="6.59499">
        <ele>1234.9</ele>
        <time>2021-09-18T09:26:50Z</time>
      </trkpt>
      <trkpt lat="43.86858" lon="6.59505">
        <ele>1235.1</ele>
        <time>2021-09-18T09:26:51Z</time>
      </trkpt>
      <trkpt lat="43.86861" lon="6.59512">
        <ele>1235.3</ele>
        <time>2021-09-18T09:26:53Z</time>
      </trkpt>
      <trkpt lat="43.86862" lon="6.59517">
        <ele>1235.5</ele>
        <time>2021-09-18T09:26:54Z</time>
      </trkpt>
      <trkpt lat="43.86864" lon="6.59523">
        <ele>1235.6</ele>
        <time>2021-09-18T09:26:55Z</time>
      </trkpt>
      <trkpt lat="43.86866" lon="6.59529">
        <ele>1235.8</ele>
        <time>2021-09-18T09:26:57Z</time>
      </trkpt>
      <trkpt lat="43.8687" lon="6.59535">
        <ele>1236.1</ele>
        <time>2021-09-18T09:26:59Z</time>
      </trkpt>
      <trkpt lat="43.86872" lon="6.59538">
        <ele>1236.2</ele>
        <time>2021-09-18T09:27:00Z</time>
      </trkpt>
      <trkpt lat="43.86875" lon="6.59543">
        <ele>1236.3</ele>
        <time>2021-09-18T09:27:02Z</time>
      </trkpt>
      <trkpt lat="43.86877" lon="6.59548">
        <ele>1236.5</ele>
        <time>2021-09-18T09:27:03Z</time>
      </trkpt>
      <trkpt lat="43.86878" lon="6.59553">
        <ele>1236.7</ele>
        <time>2021-09-18T09:27:06Z</time>
      </trkpt>
      <trkpt lat="43.86878" lon="6.59555">
        <ele>1236.7</ele>
        <time>2021-09-18T09:27:07Z</time>
      </trkpt>
      <trkpt lat="43.86879" lon="6.59558">
        <ele>1236.8</ele>
        <time>2021-09-18T09:27:08Z</time>
      </trkpt>
      <trkpt lat="43.86879" lon="6.5956">
        <ele>1236.9</ele>
        <time>2021-09-18T09:27:09Z</time>
      </trkpt>
      <trkpt lat="43.86879" lon="6.59563">
        <ele>1236.9</ele>
        <time>2021-09-18T09:27:10Z</time>
      </trkpt>
      <trkpt lat="43.86879" lon="6.59565">
        <ele>1237</ele>
        <time>2021-09-18T09:27:11Z</time>
      </trkpt>
      <trkpt lat="43.86878" lon="6.59567">
        <ele>1237.1</ele>
        <time>2021-09-18T09:27:12Z</time>
      </trkpt>
      <trkpt lat="43.86877" lon="6.59572">
        <ele>1237.2</ele>
        <time>2021-09-18T09:27:14Z</time>
      </trkpt>
      <trkpt lat="43.86877" lon="6.59574">
        <ele>1237.3</ele>
        <time>2021-09-18T09:27:15Z</time>
      </trkpt>
      <trkpt lat="43.86877" lon="6.5958">
        <ele>1237.4</ele>
        <time>2021-09-18T09:27:17Z</time>
      </trkpt>
      <trkpt lat="43.86877" lon="6.59583">
        <ele>1237.5</ele>
        <time>2021-09-18T09:27:18Z</time>
      </trkpt>
      <trkpt lat="43.86878" lon="6.5959">
        <ele>1237.7</ele>
        <time>2021-09-18T09:27:20Z</time>
      </trkpt>
      <trkpt lat="43.86878" lon="6.59593">
        <ele>1237.9</ele>
        <time>2021-09-18T09:27:21Z</time>
      </trkpt>
      <trkpt lat="43.86877" lon="6.59597">
        <ele>1238</ele>
        <time>2021-09-18T09:27:22Z</time>
      </trkpt>
      <trkpt lat="43.86874" lon="6.59603">
        <ele>1238.2</ele>
        <time>2021-09-18T09:27:24Z</time>
      </trkpt>
      <trkpt lat="43.8687" lon="6.59608">
        <ele>1238.4</ele>
        <time>2021-09-18T09:27:26Z</time>
      </trkpt>
      <trkpt lat="43.86868" lon="6.59613">
        <ele>1238.6</ele>
        <time>2021-09-18T09:27:27Z</time>
      </trkpt>
      <trkpt lat="43.86867" lon="6.59614">
        <ele>1238.7</ele>
        <time>2021-09-18T09:27:28Z</time>
      </trkpt>
      <trkpt lat="43.86865" lon="6.5962">
        <ele>1239</ele>
        <time>2021-09-18T09:27:30Z</time>
      </trkpt>
      <trkpt lat="43.86864" lon="6.59624">
        <ele>1239.1</ele>
        <time>2021-09-18T09:27:31Z</time>
      </trkpt>
      <trkpt lat="43.86862" lon="6.59629">
        <ele>1239.4</ele>
        <time>2021-09-18T09:27:33Z</time>
      </trkpt>
      <trkpt lat="43.86859" lon="6.59633">
        <ele>1239.6</ele>
        <time>2021-09-18T09:27:35Z</time>
      </trkpt>
      <trkpt lat="43.86856" lon="6.59637">
        <ele>1239.8</ele>
        <time>2021-09-18T09:27:36Z</time>
      </trkpt>
      <trkpt lat="43.86855" lon="6.59638">
        <ele>1239.9</ele>
        <time>2021-09-18T09:27:37Z</time>
      </trkpt>
      <trkpt lat="43.8685" lon="6.59641">
        <ele>1240.2</ele>
        <time>2021-09-18T09:27:39Z</time>
      </trkpt>
      <trkpt lat="43.86847" lon="6.59644">
        <ele>1240.4</ele>
        <time>2021-09-18T09:27:40Z</time>
      </trkpt>
      <trkpt lat="43.86846" lon="6.59647">
        <ele>1240.6</ele>
        <time>2021-09-18T09:27:41Z</time>
      </trkpt>
      <trkpt lat="43.86844" lon="6.59653">
        <ele>1240.9</ele>
        <time>2021-09-18T09:27:43Z</time>
      </trkpt>
      <trkpt lat="43.86843" lon="6.59656">
        <ele>1241</ele>
        <time>2021-09-18T09:27:44Z</time>
      </trkpt>
      <trkpt lat="43.86842" lon="6.59659">
        <ele>1241.1</ele>
        <time>2021-09-18T09:27:45Z</time>
      </trkpt>
      <trkpt lat="43.86842" lon="6.59663">
        <ele>1241.2</ele>
        <time>2021-09-18T09:27:46Z</time>
      </trkpt>
      <trkpt lat="43.86842" lon="6.59667">
        <ele>1241.4</ele>
        <time>2021-09-18T09:27:48Z</time>
      </trkpt>
      <trkpt lat="43.86842" lon="6.59672">
        <ele>1241.6</ele>
        <time>2021-09-18T09:27:49Z</time>
      </trkpt>
      <trkpt lat="43.86842" lon="6.59673">
        <ele>1241.7</ele>
        <time>2021-09-18T09:27:50Z</time>
      </trkpt>
      <trkpt lat="43.86842" lon="6.59679">
        <ele>1241.9</ele>
        <time>2021-09-18T09:27:51Z</time>
      </trkpt>
      <trkpt lat="43.86842" lon="6.59685">
        <ele>1242.2</ele>
        <time>2021-09-18T09:27:53Z</time>
      </trkpt>
      <trkpt lat="43.86843" lon="6.59688">
        <ele>1242.3</ele>
        <time>2021-09-18T09:27:54Z</time>
      </trkpt>
      <trkpt lat="43.86843" lon="6.5969">
        <ele>1242.4</ele>
        <time>2021-09-18T09:27:55Z</time>
      </trkpt>
      <trkpt lat="43.86843" lon="6.59695">
        <ele>1242.6</ele>
        <time>2021-09-18T09:27:56Z</time>
      </trkpt>
      <trkpt lat="43.86842" lon="6.597">
        <ele>1242.8</ele>
        <time>2021-09-18T09:27:58Z</time>
      </trkpt>
      <trkpt lat="43.86841" lon="6.59705">
        <ele>1243</ele>
        <time>2021-09-18T09:27:59Z</time>
      </trkpt>
      <trkpt lat="43.86841" lon="6.59707">
        <ele>1243</ele>
        <time>2021-09-18T09:28:00Z</time>
      </trkpt>
      <trkpt lat="43.8684" lon="6.59712">
        <ele>1243.3</ele>
        <time>2021-09-18T09:28:01Z</time>
      </trkpt>
      <trkpt lat="43.86839" lon="6.59715">
        <ele>1243.4</ele>
        <time>2021-09-18T09:28:02Z</time>
      </trkpt>
      <trkpt lat="43.86838" lon="6.59718">
        <ele>1243.5</ele>
        <time>2021-09-18T09:28:04Z</time>
      </trkpt>
      <trkpt lat="43.86837" lon="6.59722">
        <ele>1243.7</ele>
        <time>2021-09-18T09:28:05Z</time>
      </trkpt>
      <trkpt lat="43.86837" lon="6.59723">
        <ele>1243.8</ele>
        <time>2021-09-18T09:28:06Z</time>
      </trkpt>
      <trkpt lat="43.86836" lon="6.59726">
        <ele>1243.9</ele>
        <time>2021-09-18T09:28:07Z</time>
      </trkpt>
      <trkpt lat="43.86835" lon="6.59729">
        <ele>1244</ele>
        <time>2021-09-18T09:28:09Z</time>
      </trkpt>
      <trkpt lat="43.86834" lon="6.59733">
        <ele>1244.2</ele>
        <time>2021-09-18T09:28:11Z</time>
      </trkpt>
      <trkpt lat="43.86833" lon="6.59738">
        <ele>1244.4</ele>
        <time>2021-09-18T09:28:13Z</time>
      </trkpt>
      <trkpt lat="43.86833" lon="6.5974">
        <ele>1244.5</ele>
        <time>2021-09-18T09:28:14Z</time>
      </trkpt>
      <trkpt lat="43.86831" lon="6.59746">
        <ele>1244.8</ele>
        <time>2021-09-18T09:28:16Z</time>
      </trkpt>
      <trkpt lat="43.8683" lon="6.59752">
        <ele>1245</ele>
        <time>2021-09-18T09:28:18Z</time>
      </trkpt>
      <trkpt lat="43.86831" lon="6.59757">
        <ele>1245.3</ele>
        <time>2021-09-18T09:28:20Z</time>
      </trkpt>
      <trkpt lat="43.86832" lon="6.59763">
        <ele>1245.5</ele>
        <time>2021-09-18T09:28:22Z</time>
      </trkpt>
      <trkpt lat="43.86832" lon="6.59766">
        <ele>1245.6</ele>
        <time>2021-09-18T09:28:23Z</time>
      </trkpt>
      <trkpt lat="43.86831" lon="6.59771">
        <ele>1245.8</ele>
        <time>2021-09-18T09:28:25Z</time>
      </trkpt>
      <trkpt lat="43.86831" lon="6.59773">
        <ele>1245.9</ele>
        <time>2021-09-18T09:28:26Z</time>
      </trkpt>
      <trkpt lat="43.86829" lon="6.59778">
        <ele>1246.2</ele>
        <time>2021-09-18T09:28:28Z</time>
      </trkpt>
      <trkpt lat="43.86829" lon="6.5978">
        <ele>1246.3</ele>
        <time>2021-09-18T09:28:29Z</time>
      </trkpt>
      <trkpt lat="43.86826" lon="6.59786">
        <ele>1246.6</ele>
        <time>2021-09-18T09:28:31Z</time>
      </trkpt>
      <trkpt lat="43.86824" lon="6.5979">
        <ele>1246.9</ele>
        <time>2021-09-18T09:28:32Z</time>
      </trkpt>
      <trkpt lat="43.86821" lon="6.59795">
        <ele>1247.1</ele>
        <time>2021-09-18T09:28:34Z</time>
      </trkpt>
      <trkpt lat="43.86819" lon="6.59797">
        <ele>1247.3</ele>
        <time>2021-09-18T09:28:35Z</time>
      </trkpt>
      <trkpt lat="43.86817" lon="6.59803">
        <ele>1247.6</ele>
        <time>2021-09-18T09:28:36Z</time>
      </trkpt>
      <trkpt lat="43.86816" lon="6.59805">
        <ele>1247.7</ele>
        <time>2021-09-18T09:28:37Z</time>
      </trkpt>
      <trkpt lat="43.86814" lon="6.59812">
        <ele>1248.1</ele>
        <time>2021-09-18T09:28:39Z</time>
      </trkpt>
      <trkpt lat="43.86814" lon="6.59815">
        <ele>1248.2</ele>
        <time>2021-09-18T09:28:40Z</time>
      </trkpt>
      <trkpt lat="43.86813" lon="6.59817">
        <ele>1248.3</ele>
        <time>2021-09-18T09:28:41Z</time>
      </trkpt>
      <trkpt lat="43.86811" lon="6.59822">
        <ele>1248.6</ele>
        <time>2021-09-18T09:28:43Z</time>
      </trkpt>
      <trkpt lat="43.8681" lon="6.59824">
        <ele>1248.7</ele>
        <time>2021-09-18T09:28:44Z</time>
      </trkpt>
      <trkpt lat="43.86809" lon="6.59825">
        <ele>1248.8</ele>
        <time>2021-09-18T09:28:45Z</time>
      </trkpt>
      <trkpt lat="43.86808" lon="6.59829">
        <ele>1249</ele>
        <time>2021-09-18T09:28:46Z</time>
      </trkpt>
      <trkpt lat="43.86807" lon="6.5983">
        <ele>1249</ele>
        <time>2021-09-18T09:28:47Z</time>
      </trkpt>
      <trkpt lat="43.86807" lon="6.59832">
        <ele>1249.1</ele>
        <time>2021-09-18T09:28:48Z</time>
      </trkpt>
      <trkpt lat="43.86807" lon="6.59834">
        <ele>1249.2</ele>
        <time>2021-09-18T09:28:49Z</time>
      </trkpt>
      <trkpt lat="43.86807" lon="6.59836">
        <ele>1249.3</ele>
        <time>2021-09-18T09:28:50Z</time>
      </trkpt>
      <trkpt lat="43.86806" lon="6.59838">
        <ele>1249.4</ele>
        <time>2021-09-18T09:28:51Z</time>
      </trkpt>
      <trkpt lat="43.86806" lon="6.5984">
        <ele>1249.5</ele>
        <time>2021-09-18T09:28:52Z</time>
      </trkpt>
      <trkpt lat="43.86806" lon="6.59843">
        <ele>1249.6</ele>
        <time>2021-09-18T09:28:53Z</time>
      </trkpt>
      <trkpt lat="43.86807" lon="6.59847">
        <ele>1249.8</ele>
        <time>2021-09-18T09:28:54Z</time>
      </trkpt>
      <trkpt lat="43.86807" lon="6.59848">
        <ele>1249.8</ele>
        <time>2021-09-18T09:28:55Z</time>
      </trkpt>
      <trkpt lat="43.86806" lon="6.59851">
        <ele>1250</ele>
        <time>2021-09-18T09:28:56Z</time>
      </trkpt>
      <trkpt lat="43.86806" lon="6.59855">
        <ele>1250.1</ele>
        <time>2021-09-18T09:28:58Z</time>
      </trkpt>
      <trkpt lat="43.86806" lon="6.5986">
        <ele>1250.4</ele>
        <time>2021-09-18T09:29:00Z</time>
      </trkpt>
      <trkpt lat="43.86805" lon="6.59862">
        <ele>1250.4</ele>
        <time>2021-09-18T09:29:01Z</time>
      </trkpt>
      <trkpt lat="43.86805" lon="6.59865">
        <ele>1250.6</ele>
        <time>2021-09-18T09:29:02Z</time>
      </trkpt>
      <trkpt lat="43.86804" lon="6.59869">
        <ele>1250.7</ele>
        <time>2021-09-18T09:29:04Z</time>
      </trkpt>
      <trkpt lat="43.86803" lon="6.59874">
        <ele>1250.9</ele>
        <time>2021-09-18T09:29:05Z</time>
      </trkpt>
      <trkpt lat="43.86802" lon="6.59876">
        <ele>1251</ele>
        <time>2021-09-18T09:29:06Z</time>
      </trkpt>
      <trkpt lat="43.86801" lon="6.5988">
        <ele>1251.2</ele>
        <time>2021-09-18T09:29:08Z</time>
      </trkpt>
      <trkpt lat="43.868" lon="6.59884">
        <ele>1251.3</ele>
        <time>2021-09-18T09:29:09Z</time>
      </trkpt>
      <trkpt lat="43.86799" lon="6.59888">
        <ele>1251.5</ele>
        <time>2021-09-18T09:29:10Z</time>
      </trkpt>
      <trkpt lat="43.86797" lon="6.59892">
        <ele>1251.6</ele>
        <time>2021-09-18T09:29:12Z</time>
      </trkpt>
      <trkpt lat="43.86796" lon="6.59896">
        <ele>1251.8</ele>
        <time>2021-09-18T09:29:13Z</time>
      </trkpt>
      <trkpt lat="43.86795" lon="6.59902">
        <ele>1252</ele>
        <time>2021-09-18T09:29:15Z</time>
      </trkpt>
      <trkpt lat="43.86794" lon="6.59908">
        <ele>1252.2</ele>
        <time>2021-09-18T09:29:17Z</time>
      </trkpt>
      <trkpt lat="43.86793" lon="6.59912">
        <ele>1252.3</ele>
        <time>2021-09-18T09:29:18Z</time>
      </trkpt>
      <trkpt lat="43.86792" lon="6.59914">
        <ele>1252.4</ele>
        <time>2021-09-18T09:29:19Z</time>
      </trkpt>
      <trkpt lat="43.86791" lon="6.59919">
        <ele>1252.5</ele>
        <time>2021-09-18T09:29:20Z</time>
      </trkpt>
      <trkpt lat="43.8679" lon="6.59921">
        <ele>1252.6</ele>
        <time>2021-09-18T09:29:21Z</time>
      </trkpt>
      <trkpt lat="43.8679" lon="6.59926">
        <ele>1252.7</ele>
        <time>2021-09-18T09:29:22Z</time>
      </trkpt>
      <trkpt lat="43.86789" lon="6.59931">
        <ele>1252.8</ele>
        <time>2021-09-18T09:29:24Z</time>
      </trkpt>
      <trkpt lat="43.86788" lon="6.59934">
        <ele>1252.9</ele>
        <time>2021-09-18T09:29:25Z</time>
      </trkpt>
      <trkpt lat="43.86787" lon="6.5994">
        <ele>1253.1</ele>
        <time>2021-09-18T09:29:26Z</time>
      </trkpt>
      <trkpt lat="43.86786" lon="6.59944">
        <ele>1253.2</ele>
        <time>2021-09-18T09:29:27Z</time>
      </trkpt>
      <trkpt lat="43.86786" lon="6.59949">
        <ele>1253.2</ele>
        <time>2021-09-18T09:29:29Z</time>
      </trkpt>
      <trkpt lat="43.86786" lon="6.59953">
        <ele>1253.3</ele>
        <time>2021-09-18T09:29:30Z</time>
      </trkpt>
      <trkpt lat="43.86787" lon="6.59959">
        <ele>1253.4</ele>
        <time>2021-09-18T09:29:31Z</time>
      </trkpt>
      <trkpt lat="43.86787" lon="6.59962">
        <ele>1253.5</ele>
        <time>2021-09-18T09:29:32Z</time>
      </trkpt>
      <trkpt lat="43.86788" lon="6.59966">
        <ele>1253.6</ele>
        <time>2021-09-18T09:29:34Z</time>
      </trkpt>
      <trkpt lat="43.86788" lon="6.59971">
        <ele>1253.7</ele>
        <time>2021-09-18T09:29:35Z</time>
      </trkpt>
      <trkpt lat="43.8679" lon="6.59977">
        <ele>1253.8</ele>
        <time>2021-09-18T09:29:37Z</time>
      </trkpt>
      <trkpt lat="43.86791" lon="6.59979">
        <ele>1253.8</ele>
        <time>2021-09-18T09:29:38Z</time>
      </trkpt>
      <trkpt lat="43.86792" lon="6.59981">
        <ele>1253.9</ele>
        <time>2021-09-18T09:29:39Z</time>
      </trkpt>
      <trkpt lat="43.86794" lon="6.59986">
        <ele>1254</ele>
        <time>2021-09-18T09:29:40Z</time>
      </trkpt>
      <trkpt lat="43.86795" lon="6.59987">
        <ele>1254</ele>
        <time>2021-09-18T09:29:41Z</time>
      </trkpt>
      <trkpt lat="43.86798" lon="6.59991">
        <ele>1254.1</ele>
        <time>2021-09-18T09:29:42Z</time>
      </trkpt>
      <trkpt lat="43.86801" lon="6.59993">
        <ele>1254.1</ele>
        <time>2021-09-18T09:29:44Z</time>
      </trkpt>
      <trkpt lat="43.86805" lon="6.59996">
        <ele>1254.2</ele>
        <time>2021-09-18T09:29:45Z</time>
      </trkpt>
      <trkpt lat="43.86808" lon="6.59998">
        <ele>1254.3</ele>
        <time>2021-09-18T09:29:47Z</time>
      </trkpt>
      <trkpt lat="43.86811" lon="6.6">
        <ele>1254.4</ele>
        <time>2021-09-18T09:29:48Z</time>
      </trkpt>
      <trkpt lat="43.86814" lon="6.60004">
        <ele>1254.5</ele>
        <time>2021-09-18T09:29:49Z</time>
      </trkpt>
      <trkpt lat="43.86817" lon="6.60008">
        <ele>1254.6</ele>
        <time>2021-09-18T09:29:50Z</time>
      </trkpt>
      <trkpt lat="43.86817" lon="6.60009">
        <ele>1254.6</ele>
        <time>2021-09-18T09:29:51Z</time>
      </trkpt>
      <trkpt lat="43.86821" lon="6.60012">
        <ele>1254.7</ele>
        <time>2021-09-18T09:29:53Z</time>
      </trkpt>
      <trkpt lat="43.86824" lon="6.60013">
        <ele>1254.8</ele>
        <time>2021-09-18T09:29:54Z</time>
      </trkpt>
      <trkpt lat="43.86828" lon="6.60015">
        <ele>1254.9</ele>
        <time>2021-09-18T09:29:55Z</time>
      </trkpt>
      <trkpt lat="43.86831" lon="6.60018">
        <ele>1255</ele>
        <time>2021-09-18T09:29:57Z</time>
      </trkpt>
      <trkpt lat="43.86832" lon="6.60019">
        <ele>1255</ele>
        <time>2021-09-18T09:29:58Z</time>
      </trkpt>
      <trkpt lat="43.86834" lon="6.60021">
        <ele>1255.1</ele>
        <time>2021-09-18T09:29:59Z</time>
      </trkpt>
      <trkpt lat="43.86837" lon="6.60025">
        <ele>1255.2</ele>
        <time>2021-09-18T09:30:01Z</time>
      </trkpt>
      <trkpt lat="43.86838" lon="6.60028">
        <ele>1255.3</ele>
        <time>2021-09-18T09:30:02Z</time>
      </trkpt>
      <trkpt lat="43.86839" lon="6.60033">
        <ele>1255.4</ele>
        <time>2021-09-18T09:30:04Z</time>
      </trkpt>
      <trkpt lat="43.8684" lon="6.60039">
        <ele>1255.5</ele>
        <time>2021-09-18T09:30:06Z</time>
      </trkpt>
      <trkpt lat="43.8684" lon="6.60042">
        <ele>1255.6</ele>
        <time>2021-09-18T09:30:08Z</time>
      </trkpt>
      <trkpt lat="43.86839" lon="6.60045">
        <ele>1255.6</ele>
        <time>2021-09-18T09:30:10Z</time>
      </trkpt>
      <trkpt lat="43.86838" lon="6.60048">
        <ele>1255.7</ele>
        <time>2021-09-18T09:30:12Z</time>
      </trkpt>
      <trkpt lat="43.86837" lon="6.60051">
        <ele>1255.8</ele>
        <time>2021-09-18T09:30:13Z</time>
      </trkpt>
      <trkpt lat="43.86836" lon="6.60053">
        <ele>1255.8</ele>
        <time>2021-09-18T09:30:14Z</time>
      </trkpt>
      <trkpt lat="43.86835" lon="6.60056">
        <ele>1255.9</ele>
        <time>2021-09-18T09:30:15Z</time>
      </trkpt>
      <trkpt lat="43.86832" lon="6.6006">
        <ele>1256</ele>
        <time>2021-09-18T09:30:17Z</time>
      </trkpt>
      <trkpt lat="43.86828" lon="6.60064">
        <ele>1256.2</ele>
        <time>2021-09-18T09:30:19Z</time>
      </trkpt>
      <trkpt lat="43.86825" lon="6.60066">
        <ele>1256.3</ele>
        <time>2021-09-18T09:30:20Z</time>
      </trkpt>
      <trkpt lat="43.86821" lon="6.60071">
        <ele>1256.5</ele>
        <time>2021-09-18T09:30:22Z</time>
      </trkpt>
      <trkpt lat="43.86818" lon="6.60075">
        <ele>1256.6</ele>
        <time>2021-09-18T09:30:23Z</time>
      </trkpt>
      <trkpt lat="43.86817" lon="6.60081">
        <ele>1256.7</ele>
        <time>2021-09-18T09:30:25Z</time>
      </trkpt>
      <trkpt lat="43.86817" lon="6.60084">
        <ele>1256.8</ele>
        <time>2021-09-18T09:30:26Z</time>
      </trkpt>
      <trkpt lat="43.86816" lon="6.60086">
        <ele>1256.8</ele>
        <time>2021-09-18T09:30:27Z</time>
      </trkpt>
      <trkpt lat="43.86816" lon="6.6009">
        <ele>1256.9</ele>
        <time>2021-09-18T09:30:28Z</time>
      </trkpt>
      <trkpt lat="43.86817" lon="6.60096">
        <ele>1257</ele>
        <time>2021-09-18T09:30:30Z</time>
      </trkpt>
      <trkpt lat="43.86818" lon="6.60103">
        <ele>1257.2</ele>
        <time>2021-09-18T09:30:32Z</time>
      </trkpt>
      <trkpt lat="43.86819" lon="6.60107">
        <ele>1257.2</ele>
        <time>2021-09-18T09:30:33Z</time>
      </trkpt>
      <trkpt lat="43.86821" lon="6.60113">
        <ele>1257.4</ele>
        <time>2021-09-18T09:30:34Z</time>
      </trkpt>
      <trkpt lat="43.86821" lon="6.60117">
        <ele>1257.4</ele>
        <time>2021-09-18T09:30:35Z</time>
      </trkpt>
      <trkpt lat="43.86822" lon="6.60121">
        <ele>1257.5</ele>
        <time>2021-09-18T09:30:36Z</time>
      </trkpt>
      <trkpt lat="43.86823" lon="6.60125">
        <ele>1257.6</ele>
        <time>2021-09-18T09:30:37Z</time>
      </trkpt>
      <trkpt lat="43.86824" lon="6.60129">
        <ele>1257.6</ele>
        <time>2021-09-18T09:30:38Z</time>
      </trkpt>
      <trkpt lat="43.86826" lon="6.60133">
        <ele>1257.7</ele>
        <time>2021-09-18T09:30:40Z</time>
      </trkpt>
      <trkpt lat="43.8683" lon="6.60136">
        <ele>1257.8</ele>
        <time>2021-09-18T09:30:41Z</time>
      </trkpt>
      <trkpt lat="43.86833" lon="6.60138">
        <ele>1257.9</ele>
        <time>2021-09-18T09:30:43Z</time>
      </trkpt>
      <trkpt lat="43.86836" lon="6.60139">
        <ele>1258</ele>
        <time>2021-09-18T09:30:44Z</time>
      </trkpt>
      <trkpt lat="43.86842" lon="6.60141">
        <ele>1258.2</ele>
        <time>2021-09-18T09:30:46Z</time>
      </trkpt>
      <trkpt lat="43.86848" lon="6.60142">
        <ele>1258.3</ele>
        <time>2021-09-18T09:30:48Z</time>
      </trkpt>
      <trkpt lat="43.86852" lon="6.60146">
        <ele>1258.5</ele>
        <time>2021-09-18T09:30:50Z</time>
      </trkpt>
      <trkpt lat="43.86854" lon="6.6015">
        <ele>1258.6</ele>
        <time>2021-09-18T09:30:51Z</time>
      </trkpt>
      <trkpt lat="43.86855" lon="6.60155">
        <ele>1258.7</ele>
        <time>2021-09-18T09:30:52Z</time>
      </trkpt>
      <trkpt lat="43.86855" lon="6.60161">
        <ele>1258.8</ele>
        <time>2021-09-18T09:30:54Z</time>
      </trkpt>
      <trkpt lat="43.86855" lon="6.60165">
        <ele>1258.9</ele>
        <time>2021-09-18T09:30:55Z</time>
      </trkpt>
      <trkpt lat="43.86855" lon="6.60169">
        <ele>1259</ele>
        <time>2021-09-18T09:30:56Z</time>
      </trkpt>
      <trkpt lat="43.86854" lon="6.60176">
        <ele>1259.2</ele>
        <time>2021-09-18T09:30:58Z</time>
      </trkpt>
      <trkpt lat="43.86854" lon="6.6018">
        <ele>1259.3</ele>
        <time>2021-09-18T09:30:59Z</time>
      </trkpt>
      <trkpt lat="43.86853" lon="6.60187">
        <ele>1259.5</ele>
        <time>2021-09-18T09:31:01Z</time>
      </trkpt>
      <trkpt lat="43.86855" lon="6.60192">
        <ele>1259.7</ele>
        <time>2021-09-18T09:31:02Z</time>
      </trkpt>
      <trkpt lat="43.86856" lon="6.60194">
        <ele>1259.8</ele>
        <time>2021-09-18T09:31:03Z</time>
      </trkpt>
      <trkpt lat="43.86859" lon="6.60197">
        <ele>1259.9</ele>
        <time>2021-09-18T09:31:04Z</time>
      </trkpt>
      <trkpt lat="43.86861" lon="6.602">
        <ele>1260</ele>
        <time>2021-09-18T09:31:06Z</time>
      </trkpt>
      <trkpt lat="43.86864" lon="6.60203">
        <ele>1260.1</ele>
        <time>2021-09-18T09:31:07Z</time>
      </trkpt>
      <trkpt lat="43.86867" lon="6.60207">
        <ele>1260.3</ele>
        <time>2021-09-18T09:31:08Z</time>
      </trkpt>
      <trkpt lat="43.86868" lon="6.60208">
        <ele>1260.4</ele>
        <time>2021-09-18T09:31:09Z</time>
      </trkpt>
      <trkpt lat="43.86868" lon="6.60212">
        <ele>1260.5</ele>
        <time>2021-09-18T09:31:10Z</time>
      </trkpt>
      <trkpt lat="43.86869" lon="6.60216">
        <ele>1260.6</ele>
        <time>2021-09-18T09:31:11Z</time>
      </trkpt>
      <trkpt lat="43.86869" lon="6.6022">
        <ele>1260.7</ele>
        <time>2021-09-18T09:31:13Z</time>
      </trkpt>
      <trkpt lat="43.86868" lon="6.60224">
        <ele>1260.9</ele>
        <time>2021-09-18T09:31:14Z</time>
      </trkpt>
      <trkpt lat="43.86867" lon="6.60228">
        <ele>1261</ele>
        <time>2021-09-18T09:31:15Z</time>
      </trkpt>
      <trkpt lat="43.86866" lon="6.60236">
        <ele>1261.3</ele>
        <time>2021-09-18T09:31:17Z</time>
      </trkpt>
      <trkpt lat="43.86867" lon="6.60239">
        <ele>1261.4</ele>
        <time>2021-09-18T09:31:18Z</time>
      </trkpt>
      <trkpt lat="43.86868" lon="6.60242">
        <ele>1261.5</ele>
        <time>2021-09-18T09:31:19Z</time>
      </trkpt>
      <trkpt lat="43.86868" lon="6.60246">
        <ele>1261.6</ele>
        <time>2021-09-18T09:31:20Z</time>
      </trkpt>
      <trkpt lat="43.86869" lon="6.60248">
        <ele>1261.7</ele>
        <time>2021-09-18T09:31:21Z</time>
      </trkpt>
      <trkpt lat="43.86869" lon="6.60255">
        <ele>1261.9</ele>
        <time>2021-09-18T09:31:23Z</time>
      </trkpt>
      <trkpt lat="43.8687" lon="6.6026">
        <ele>1262.1</ele>
        <time>2021-09-18T09:31:24Z</time>
      </trkpt>
      <trkpt lat="43.8687" lon="6.60262">
        <ele>1262.2</ele>
        <time>2021-09-18T09:31:25Z</time>
      </trkpt>
      <trkpt lat="43.8687" lon="6.60266">
        <ele>1262.3</ele>
        <time>2021-09-18T09:31:26Z</time>
      </trkpt>
      <trkpt lat="43.8687" lon="6.60267">
        <ele>1262.3</ele>
        <time>2021-09-18T09:31:27Z</time>
      </trkpt>
      <trkpt lat="43.8687" lon="6.60272">
        <ele>1262.5</ele>
        <time>2021-09-18T09:31:28Z</time>
      </trkpt>
      <trkpt lat="43.8687" lon="6.60273">
        <ele>1262.5</ele>
        <time>2021-09-18T09:31:29Z</time>
      </trkpt>
      <trkpt lat="43.86871" lon="6.60276">
        <ele>1262.6</ele>
        <time>2021-09-18T09:31:30Z</time>
      </trkpt>
      <trkpt lat="43.8687" lon="6.60281">
        <ele>1262.8</ele>
        <time>2021-09-18T09:31:32Z</time>
      </trkpt>
      <trkpt lat="43.86869" lon="6.60286">
        <ele>1262.9</ele>
        <time>2021-09-18T09:31:33Z</time>
      </trkpt>
      <trkpt lat="43.86869" lon="6.60294">
        <ele>1263.2</ele>
        <time>2021-09-18T09:31:34Z</time>
      </trkpt>
      <trkpt lat="43.86869" lon="6.60298">
        <ele>1263.4</ele>
        <time>2021-09-18T09:31:35Z</time>
      </trkpt>
      <trkpt lat="43.8687" lon="6.60303">
        <ele>1263.5</ele>
        <time>2021-09-18T09:31:36Z</time>
      </trkpt>
      <trkpt lat="43.86871" lon="6.60306">
        <ele>1263.6</ele>
        <time>2021-09-18T09:31:37Z</time>
      </trkpt>
      <trkpt lat="43.86872" lon="6.6031">
        <ele>1263.8</ele>
        <time>2021-09-18T09:31:39Z</time>
      </trkpt>
      <trkpt lat="43.86874" lon="6.60315">
        <ele>1264</ele>
        <time>2021-09-18T09:31:40Z</time>
      </trkpt>
      <trkpt lat="43.86875" lon="6.60322">
        <ele>1264.2</ele>
        <time>2021-09-18T09:31:42Z</time>
      </trkpt>
      <trkpt lat="43.86876" lon="6.60325">
        <ele>1264.4</ele>
        <time>2021-09-18T09:31:43Z</time>
      </trkpt>
      <trkpt lat="43.86878" lon="6.60329">
        <ele>1264.5</ele>
        <time>2021-09-18T09:31:44Z</time>
      </trkpt>
      <trkpt lat="43.8688" lon="6.60334">
        <ele>1264.7</ele>
        <time>2021-09-18T09:31:46Z</time>
      </trkpt>
      <trkpt lat="43.8688" lon="6.60337">
        <ele>1264.9</ele>
        <time>2021-09-18T09:31:47Z</time>
      </trkpt>
      <trkpt lat="43.86881" lon="6.60341">
        <ele>1265</ele>
        <time>2021-09-18T09:31:48Z</time>
      </trkpt>
      <trkpt lat="43.86881" lon="6.60348">
        <ele>1265.3</ele>
        <time>2021-09-18T09:31:49Z</time>
      </trkpt>
      <trkpt lat="43.86881" lon="6.60354">
        <ele>1265.5</ele>
        <time>2021-09-18T09:31:51Z</time>
      </trkpt>
      <trkpt lat="43.8688" lon="6.60359">
        <ele>1265.7</ele>
        <time>2021-09-18T09:31:52Z</time>
      </trkpt>
      <trkpt lat="43.86879" lon="6.60363">
        <ele>1265.9</ele>
        <time>2021-09-18T09:31:53Z</time>
      </trkpt>
      <trkpt lat="43.86878" lon="6.6037">
        <ele>1266.2</ele>
        <time>2021-09-18T09:31:55Z</time>
      </trkpt>
      <trkpt lat="43.86877" lon="6.60374">
        <ele>1266.4</ele>
        <time>2021-09-18T09:31:56Z</time>
      </trkpt>
      <trkpt lat="43.86873" lon="6.60381">
        <ele>1266.8</ele>
        <time>2021-09-18T09:31:58Z</time>
      </trkpt>
      <trkpt lat="43.86871" lon="6.60385">
        <ele>1267</ele>
        <time>2021-09-18T09:31:59Z</time>
      </trkpt>
      <trkpt lat="43.86868" lon="6.6039">
        <ele>1267.3</ele>
        <time>2021-09-18T09:32:01Z</time>
      </trkpt>
      <trkpt lat="43.86865" lon="6.60392">
        <ele>1267.5</ele>
        <time>2021-09-18T09:32:02Z</time>
      </trkpt>
      <trkpt lat="43.86864" lon="6.60393">
        <ele>1267.6</ele>
        <time>2021-09-18T09:32:03Z</time>
      </trkpt>
      <trkpt lat="43.86862" lon="6.60395">
        <ele>1267.7</ele>
        <time>2021-09-18T09:32:04Z</time>
      </trkpt>
      <trkpt lat="43.8686" lon="6.60398">
        <ele>1267.9</ele>
        <time>2021-09-18T09:32:06Z</time>
      </trkpt>
      <trkpt lat="43.86859" lon="6.60402">
        <ele>1268.1</ele>
        <time>2021-09-18T09:32:07Z</time>
      </trkpt>
      <trkpt lat="43.86858" lon="6.60403">
        <ele>1268.2</ele>
        <time>2021-09-18T09:32:08Z</time>
      </trkpt>
      <trkpt lat="43.86857" lon="6.60405">
        <ele>1268.3</ele>
        <time>2021-09-18T09:32:09Z</time>
      </trkpt>
      <trkpt lat="43.86857" lon="6.60406">
        <ele>1268.4</ele>
        <time>2021-09-18T09:32:10Z</time>
      </trkpt>
      <trkpt lat="43.86856" lon="6.60407">
        <ele>1268.4</ele>
        <time>2021-09-18T09:32:11Z</time>
      </trkpt>
      <trkpt lat="43.86856" lon="6.60408">
        <ele>1268.5</ele>
        <time>2021-09-18T09:32:12Z</time>
      </trkpt>
      <trkpt lat="43.86855" lon="6.60409">
        <ele>1268.5</ele>
        <time>2021-09-18T09:32:13Z</time>
      </trkpt>
      <trkpt lat="43.86854" lon="6.60411">
        <ele>1268.6</ele>
        <time>2021-09-18T09:32:14Z</time>
      </trkpt>
      <trkpt lat="43.86853" lon="6.60412">
        <ele>1268.7</ele>
        <time>2021-09-18T09:32:16Z</time>
      </trkpt>
      <trkpt lat="43.86852" lon="6.60413">
        <ele>1268.8</ele>
        <time>2021-09-18T09:32:17Z</time>
      </trkpt>
      <trkpt lat="43.8685" lon="6.6042">
        <ele>1269.2</ele>
        <time>2021-09-18T09:32:19Z</time>
      </trkpt>
      <trkpt lat="43.86849" lon="6.60422">
        <ele>1269.3</ele>
        <time>2021-09-18T09:32:20Z</time>
      </trkpt>
      <trkpt lat="43.86849" lon="6.60425">
        <ele>1269.5</ele>
        <time>2021-09-18T09:32:21Z</time>
      </trkpt>
      <trkpt lat="43.86848" lon="6.60429">
        <ele>1269.7</ele>
        <time>2021-09-18T09:32:23Z</time>
      </trkpt>
      <trkpt lat="43.86848" lon="6.60432">
        <ele>1269.9</ele>
        <time>2021-09-18T09:32:24Z</time>
      </trkpt>
      <trkpt lat="43.86846" lon="6.60439">
        <ele>1270.3</ele>
        <time>2021-09-18T09:32:26Z</time>
      </trkpt>
      <trkpt lat="43.86845" lon="6.60445">
        <ele>1270.6</ele>
        <time>2021-09-18T09:32:27Z</time>
      </trkpt>
      <trkpt lat="43.86844" lon="6.60449">
        <ele>1270.8</ele>
        <time>2021-09-18T09:32:28Z</time>
      </trkpt>
      <trkpt lat="43.86843" lon="6.60452">
        <ele>1271</ele>
        <time>2021-09-18T09:32:29Z</time>
      </trkpt>
      <trkpt lat="43.86842" lon="6.60458">
        <ele>1271.2</ele>
        <time>2021-09-18T09:32:31Z</time>
      </trkpt>
      <trkpt lat="43.86842" lon="6.60462">
        <ele>1271.5</ele>
        <time>2021-09-18T09:32:32Z</time>
      </trkpt>
      <trkpt lat="43.8684" lon="6.60469">
        <ele>1271.9</ele>
        <time>2021-09-18T09:32:33Z</time>
      </trkpt>
      <trkpt lat="43.86839" lon="6.60473">
        <ele>1272.1</ele>
        <time>2021-09-18T09:32:34Z</time>
      </trkpt>
      <trkpt lat="43.86837" lon="6.60477">
        <ele>1272.3</ele>
        <time>2021-09-18T09:32:35Z</time>
      </trkpt>
      <trkpt lat="43.86836" lon="6.60482">
        <ele>1272.6</ele>
        <time>2021-09-18T09:32:36Z</time>
      </trkpt>
      <trkpt lat="43.86835" lon="6.60487">
        <ele>1272.8</ele>
        <time>2021-09-18T09:32:38Z</time>
      </trkpt>
      <trkpt lat="43.86834" lon="6.60493">
        <ele>1273.1</ele>
        <time>2021-09-18T09:32:39Z</time>
      </trkpt>
      <trkpt lat="43.86834" lon="6.60497">
        <ele>1273.3</ele>
        <time>2021-09-18T09:32:40Z</time>
      </trkpt>
      <trkpt lat="43.86833" lon="6.605">
        <ele>1273.5</ele>
        <time>2021-09-18T09:32:41Z</time>
      </trkpt>
      <trkpt lat="43.86832" lon="6.60505">
        <ele>1273.7</ele>
        <time>2021-09-18T09:32:43Z</time>
      </trkpt>
      <trkpt lat="43.86831" lon="6.60509">
        <ele>1273.9</ele>
        <time>2021-09-18T09:32:44Z</time>
      </trkpt>
      <trkpt lat="43.86829" lon="6.60517">
        <ele>1274.2</ele>
        <time>2021-09-18T09:32:46Z</time>
      </trkpt>
      <trkpt lat="43.86828" lon="6.6052">
        <ele>1274.4</ele>
        <time>2021-09-18T09:32:47Z</time>
      </trkpt>
      <trkpt lat="43.86828" lon="6.60525">
        <ele>1274.5</ele>
        <time>2021-09-18T09:32:49Z</time>
      </trkpt>
      <trkpt lat="43.86827" lon="6.60529">
        <ele>1274.7</ele>
        <time>2021-09-18T09:32:50Z</time>
      </trkpt>
      <trkpt lat="43.86826" lon="6.60535">
        <ele>1274.9</ele>
        <time>2021-09-18T09:32:51Z</time>
      </trkpt>
      <trkpt lat="43.86824" lon="6.60541">
        <ele>1275.1</ele>
        <time>2021-09-18T09:32:53Z</time>
      </trkpt>
      <trkpt lat="43.86824" lon="6.60543">
        <ele>1275.1</ele>
        <time>2021-09-18T09:32:54Z</time>
      </trkpt>
      <trkpt lat="43.86823" lon="6.60545">
        <ele>1275.2</ele>
        <time>2021-09-18T09:32:55Z</time>
      </trkpt>
      <trkpt lat="43.86822" lon="6.60552">
        <ele>1275.3</ele>
        <time>2021-09-18T09:32:57Z</time>
      </trkpt>
      <trkpt lat="43.86822" lon="6.60555">
        <ele>1275.4</ele>
        <time>2021-09-18T09:32:58Z</time>
      </trkpt>
      <trkpt lat="43.86822" lon="6.60557">
        <ele>1275.4</ele>
        <time>2021-09-18T09:32:59Z</time>
      </trkpt>
      <trkpt lat="43.86821" lon="6.60562">
        <ele>1275.5</ele>
        <time>2021-09-18T09:33:00Z</time>
      </trkpt>
      <trkpt lat="43.86821" lon="6.60564">
        <ele>1275.6</ele>
        <time>2021-09-18T09:33:01Z</time>
      </trkpt>
      <trkpt lat="43.8682" lon="6.6057">
        <ele>1275.7</ele>
        <time>2021-09-18T09:33:03Z</time>
      </trkpt>
      <trkpt lat="43.86818" lon="6.60574">
        <ele>1275.8</ele>
        <time>2021-09-18T09:33:04Z</time>
      </trkpt>
      <trkpt lat="43.86816" lon="6.6058">
        <ele>1275.8</ele>
        <time>2021-09-18T09:33:05Z</time>
      </trkpt>
      <trkpt lat="43.86815" lon="6.60582">
        <ele>1275.9</ele>
        <time>2021-09-18T09:33:06Z</time>
      </trkpt>
      <trkpt lat="43.86813" lon="6.60587">
        <ele>1275.9</ele>
        <time>2021-09-18T09:33:08Z</time>
      </trkpt>
      <trkpt lat="43.86811" lon="6.60593">
        <ele>1276</ele>
        <time>2021-09-18T09:33:10Z</time>
      </trkpt>
      <trkpt lat="43.86807" lon="6.60598">
        <ele>1276.1</ele>
        <time>2021-09-18T09:33:11Z</time>
      </trkpt>
      <trkpt lat="43.86806" lon="6.60601">
        <ele>1276.2</ele>
        <time>2021-09-18T09:33:12Z</time>
      </trkpt>
      <trkpt lat="43.86804" lon="6.60604">
        <ele>1276.2</ele>
        <time>2021-09-18T09:33:14Z</time>
      </trkpt>
      <trkpt lat="43.86802" lon="6.60608">
        <ele>1276.3</ele>
        <time>2021-09-18T09:33:15Z</time>
      </trkpt>
      <trkpt lat="43.86801" lon="6.60609">
        <ele>1276.3</ele>
        <time>2021-09-18T09:33:16Z</time>
      </trkpt>
      <trkpt lat="43.868" lon="6.60615">
        <ele>1276.4</ele>
        <time>2021-09-18T09:33:18Z</time>
      </trkpt>
      <trkpt lat="43.868" lon="6.6062">
        <ele>1276.4</ele>
        <time>2021-09-18T09:33:19Z</time>
      </trkpt>
      <trkpt lat="43.86799" lon="6.60624">
        <ele>1276.5</ele>
        <time>2021-09-18T09:33:20Z</time>
      </trkpt>
      <trkpt lat="43.86797" lon="6.60631">
        <ele>1276.6</ele>
        <time>2021-09-18T09:33:22Z</time>
      </trkpt>
      <trkpt lat="43.86796" lon="6.60635">
        <ele>1276.6</ele>
        <time>2021-09-18T09:33:23Z</time>
      </trkpt>
      <trkpt lat="43.86796" lon="6.60638">
        <ele>1276.7</ele>
        <time>2021-09-18T09:33:24Z</time>
      </trkpt>
      <trkpt lat="43.86795" lon="6.60644">
        <ele>1276.8</ele>
        <time>2021-09-18T09:33:25Z</time>
      </trkpt>
      <trkpt lat="43.86795" lon="6.60649">
        <ele>1276.9</ele>
        <time>2021-09-18T09:33:26Z</time>
      </trkpt>
      <trkpt lat="43.86795" lon="6.60653">
        <ele>1277</ele>
        <time>2021-09-18T09:33:27Z</time>
      </trkpt>
      <trkpt lat="43.86795" lon="6.60659">
        <ele>1277.1</ele>
        <time>2021-09-18T09:33:29Z</time>
      </trkpt>
      <trkpt lat="43.86796" lon="6.60665">
        <ele>1277.2</ele>
        <time>2021-09-18T09:33:30Z</time>
      </trkpt>
      <trkpt lat="43.86798" lon="6.60669">
        <ele>1277.3</ele>
        <time>2021-09-18T09:33:31Z</time>
      </trkpt>
      <trkpt lat="43.86799" lon="6.60674">
        <ele>1277.4</ele>
        <time>2021-09-18T09:33:32Z</time>
      </trkpt>
      <trkpt lat="43.86801" lon="6.60682">
        <ele>1277.6</ele>
        <time>2021-09-18T09:33:34Z</time>
      </trkpt>
      <trkpt lat="43.86801" lon="6.60687">
        <ele>1277.7</ele>
        <time>2021-09-18T09:33:35Z</time>
      </trkpt>
      <trkpt lat="43.86801" lon="6.60695">
        <ele>1277.9</ele>
        <time>2021-09-18T09:33:37Z</time>
      </trkpt>
      <trkpt lat="43.868" lon="6.60699">
        <ele>1278</ele>
        <time>2021-09-18T09:33:38Z</time>
      </trkpt>
      <trkpt lat="43.868" lon="6.60702">
        <ele>1278</ele>
        <time>2021-09-18T09:33:39Z</time>
      </trkpt>
      <trkpt lat="43.86797" lon="6.60705">
        <ele>1278.2</ele>
        <time>2021-09-18T09:33:41Z</time>
      </trkpt>
      <trkpt lat="43.86796" lon="6.60707">
        <ele>1278.2</ele>
        <time>2021-09-18T09:33:42Z</time>
      </trkpt>
      <trkpt lat="43.86793" lon="6.60715">
        <ele>1278.5</ele>
        <time>2021-09-18T09:33:44Z</time>
      </trkpt>
      <trkpt lat="43.86791" lon="6.60718">
        <ele>1278.6</ele>
        <time>2021-09-18T09:33:45Z</time>
      </trkpt>
      <trkpt lat="43.8679" lon="6.60723">
        <ele>1278.8</ele>
        <time>2021-09-18T09:33:47Z</time>
      </trkpt>
      <trkpt lat="43.86788" lon="6.60729">
        <ele>1278.9</ele>
        <time>2021-09-18T09:33:48Z</time>
      </trkpt>
      <trkpt lat="43.86788" lon="6.6073">
        <ele>1279</ele>
        <time>2021-09-18T09:33:49Z</time>
      </trkpt>
      <trkpt lat="43.86787" lon="6.60731">
        <ele>1279</ele>
        <time>2021-09-18T09:33:51Z</time>
      </trkpt>
      <trkpt lat="43.86788" lon="6.60732">
        <ele>1279.1</ele>
        <time>2021-09-18T09:33:52Z</time>
      </trkpt>
      <trkpt lat="43.86788" lon="6.60734">
        <ele>1279.1</ele>
        <time>2021-09-18T09:33:54Z</time>
      </trkpt>
      <trkpt lat="43.86788" lon="6.60735">
        <ele>1279.2</ele>
        <time>2021-09-18T09:33:55Z</time>
      </trkpt>
      <trkpt lat="43.86788" lon="6.60737">
        <ele>1279.2</ele>
        <time>2021-09-18T09:33:56Z</time>
      </trkpt>
      <trkpt lat="43.86788" lon="6.60742">
        <ele>1279.4</ele>
        <time>2021-09-18T09:33:58Z</time>
      </trkpt>
      <trkpt lat="43.86787" lon="6.60746">
        <ele>1279.6</ele>
        <time>2021-09-18T09:33:59Z</time>
      </trkpt>
      <trkpt lat="43.86787" lon="6.60754">
        <ele>1279.9</ele>
        <time>2021-09-18T09:34:02Z</time>
      </trkpt>
      <trkpt lat="43.86787" lon="6.60762">
        <ele>1280.2</ele>
        <time>2021-09-18T09:34:03Z</time>
      </trkpt>
      <trkpt lat="43.86788" lon="6.60769">
        <ele>1280.5</ele>
        <time>2021-09-18T09:34:05Z</time>
      </trkpt>
      <trkpt lat="43.86789" lon="6.60772">
        <ele>1280.6</ele>
        <time>2021-09-18T09:34:07Z</time>
      </trkpt>
      <trkpt lat="43.86789" lon="6.60774">
        <ele>1280.7</ele>
        <time>2021-09-18T09:34:08Z</time>
      </trkpt>
      <trkpt lat="43.8679" lon="6.60782">
        <ele>1281</ele>
        <time>2021-09-18T09:34:10Z</time>
      </trkpt>
      <trkpt lat="43.86791" lon="6.60788">
        <ele>1281.3</ele>
        <time>2021-09-18T09:34:11Z</time>
      </trkpt>
      <trkpt lat="43.86792" lon="6.60795">
        <ele>1281.6</ele>
        <time>2021-09-18T09:34:13Z</time>
      </trkpt>
      <trkpt lat="43.86792" lon="6.60801">
        <ele>1281.8</ele>
        <time>2021-09-18T09:34:15Z</time>
      </trkpt>
      <trkpt lat="43.86792" lon="6.60804">
        <ele>1281.9</ele>
        <time>2021-09-18T09:34:16Z</time>
      </trkpt>
      <trkpt lat="43.86792" lon="6.60811">
        <ele>1282.2</ele>
        <time>2021-09-18T09:34:18Z</time>
      </trkpt>
      <trkpt lat="43.86792" lon="6.60817">
        <ele>1282.5</ele>
        <time>2021-09-18T09:34:19Z</time>
      </trkpt>
      <trkpt lat="43.86791" lon="6.6082">
        <ele>1282.6</ele>
        <time>2021-09-18T09:34:20Z</time>
      </trkpt>
      <trkpt lat="43.86791" lon="6.60829">
        <ele>1283</ele>
        <time>2021-09-18T09:34:22Z</time>
      </trkpt>
      <trkpt lat="43.8679" lon="6.60838">
        <ele>1283.4</ele>
        <time>2021-09-18T09:34:24Z</time>
      </trkpt>
      <trkpt lat="43.86789" lon="6.60845">
        <ele>1283.7</ele>
        <time>2021-09-18T09:34:25Z</time>
      </trkpt>
      <trkpt lat="43.86786" lon="6.60853">
        <ele>1284</ele>
        <time>2021-09-18T09:34:27Z</time>
      </trkpt>
      <trkpt lat="43.86786" lon="6.60859">
        <ele>1284.3</ele>
        <time>2021-09-18T09:34:29Z</time>
      </trkpt>
      <trkpt lat="43.86786" lon="6.60865">
        <ele>1284.5</ele>
        <time>2021-09-18T09:34:30Z</time>
      </trkpt>
      <trkpt lat="43.86785" lon="6.60867">
        <ele>1284.6</ele>
        <time>2021-09-18T09:34:31Z</time>
      </trkpt>
      <trkpt lat="43.86786" lon="6.60873">
        <ele>1284.9</ele>
        <time>2021-09-18T09:34:32Z</time>
      </trkpt>
      <trkpt lat="43.86786" lon="6.60878">
        <ele>1285.1</ele>
        <time>2021-09-18T09:34:33Z</time>
      </trkpt>
      <trkpt lat="43.86786" lon="6.60887">
        <ele>1285.5</ele>
        <time>2021-09-18T09:34:35Z</time>
      </trkpt>
      <trkpt lat="43.86786" lon="6.60894">
        <ele>1285.8</ele>
        <time>2021-09-18T09:34:36Z</time>
      </trkpt>
      <trkpt lat="43.86786" lon="6.60899">
        <ele>1286</ele>
        <time>2021-09-18T09:34:38Z</time>
      </trkpt>
      <trkpt lat="43.86785" lon="6.60906">
        <ele>1286.3</ele>
        <time>2021-09-18T09:34:39Z</time>
      </trkpt>
      <trkpt lat="43.86784" lon="6.6091">
        <ele>1286.5</ele>
        <time>2021-09-18T09:34:40Z</time>
      </trkpt>
      <trkpt lat="43.86783" lon="6.60915">
        <ele>1286.7</ele>
        <time>2021-09-18T09:34:42Z</time>
      </trkpt>
      <trkpt lat="43.86783" lon="6.60921">
        <ele>1287</ele>
        <time>2021-09-18T09:34:43Z</time>
      </trkpt>
      <trkpt lat="43.86783" lon="6.60926">
        <ele>1287.2</ele>
        <time>2021-09-18T09:34:45Z</time>
      </trkpt>
      <trkpt lat="43.86784" lon="6.60931">
        <ele>1287.4</ele>
        <time>2021-09-18T09:34:46Z</time>
      </trkpt>
      <trkpt lat="43.86786" lon="6.60935">
        <ele>1287.6</ele>
        <time>2021-09-18T09:34:48Z</time>
      </trkpt>
      <trkpt lat="43.86787" lon="6.60939">
        <ele>1287.8</ele>
        <time>2021-09-18T09:34:49Z</time>
      </trkpt>
      <trkpt lat="43.86788" lon="6.60945">
        <ele>1288.1</ele>
        <time>2021-09-18T09:34:51Z</time>
      </trkpt>
      <trkpt lat="43.86789" lon="6.60952">
        <ele>1288.4</ele>
        <time>2021-09-18T09:34:53Z</time>
      </trkpt>
      <trkpt lat="43.8679" lon="6.60958">
        <ele>1288.7</ele>
        <time>2021-09-18T09:34:54Z</time>
      </trkpt>
      <trkpt lat="43.86792" lon="6.60963">
        <ele>1288.9</ele>
        <time>2021-09-18T09:34:56Z</time>
      </trkpt>
      <trkpt lat="43.86793" lon="6.60969">
        <ele>1289.2</ele>
        <time>2021-09-18T09:34:57Z</time>
      </trkpt>
      <trkpt lat="43.86793" lon="6.60973">
        <ele>1289.4</ele>
        <time>2021-09-18T09:34:58Z</time>
      </trkpt>
      <trkpt lat="43.86793" lon="6.60977">
        <ele>1289.5</ele>
        <time>2021-09-18T09:35:00Z</time>
      </trkpt>
      <trkpt lat="43.86792" lon="6.60981">
        <ele>1289.7</ele>
        <time>2021-09-18T09:35:01Z</time>
      </trkpt>
      <trkpt lat="43.8679" lon="6.60982">
        <ele>1289.9</ele>
        <time>2021-09-18T09:35:03Z</time>
      </trkpt>
      <trkpt lat="43.86785" lon="6.60985">
        <ele>1290.2</ele>
        <time>2021-09-18T09:35:05Z</time>
      </trkpt>
      <trkpt lat="43.86781" lon="6.60987">
        <ele>1290.4</ele>
        <time>2021-09-18T09:35:06Z</time>
      </trkpt>
      <trkpt lat="43.8678" lon="6.60991">
        <ele>1290.6</ele>
        <time>2021-09-18T09:35:08Z</time>
      </trkpt>
      <trkpt lat="43.8678" lon="6.60992">
        <ele>1290.7</ele>
        <time>2021-09-18T09:35:09Z</time>
      </trkpt>
      <trkpt lat="43.86779" lon="6.60998">
        <ele>1290.9</ele>
        <time>2021-09-18T09:35:11Z</time>
      </trkpt>
      <trkpt lat="43.86778" lon="6.61004">
        <ele>1291.2</ele>
        <time>2021-09-18T09:35:12Z</time>
      </trkpt>
      <trkpt lat="43.86778" lon="6.61009">
        <ele>1291.4</ele>
        <time>2021-09-18T09:35:14Z</time>
      </trkpt>
      <trkpt lat="43.86779" lon="6.61014">
        <ele>1291.6</ele>
        <time>2021-09-18T09:35:15Z</time>
      </trkpt>
      <trkpt lat="43.86779" lon="6.61018">
        <ele>1291.8</ele>
        <time>2021-09-18T09:35:16Z</time>
      </trkpt>
      <trkpt lat="43.8678" lon="6.61023">
        <ele>1292</ele>
        <time>2021-09-18T09:35:18Z</time>
      </trkpt>
      <trkpt lat="43.86781" lon="6.61027">
        <ele>1292.2</ele>
        <time>2021-09-18T09:35:19Z</time>
      </trkpt>
      <trkpt lat="43.86781" lon="6.61032">
        <ele>1292.4</ele>
        <time>2021-09-18T09:35:21Z</time>
      </trkpt>
      <trkpt lat="43.8678" lon="6.61038">
        <ele>1292.7</ele>
        <time>2021-09-18T09:35:22Z</time>
      </trkpt>
      <trkpt lat="43.86779" lon="6.61044">
        <ele>1293</ele>
        <time>2021-09-18T09:35:24Z</time>
      </trkpt>
      <trkpt lat="43.86779" lon="6.6105">
        <ele>1293.2</ele>
        <time>2021-09-18T09:35:26Z</time>
      </trkpt>
      <trkpt lat="43.86778" lon="6.61052">
        <ele>1293.3</ele>
        <time>2021-09-18T09:35:27Z</time>
      </trkpt>
      <trkpt lat="43.86778" lon="6.61055">
        <ele>1293.5</ele>
        <time>2021-09-18T09:35:28Z</time>
      </trkpt>
      <trkpt lat="43.86778" lon="6.61058">
        <ele>1293.6</ele>
        <time>2021-09-18T09:35:30Z</time>
      </trkpt>
      <trkpt lat="43.86778" lon="6.61063">
        <ele>1293.8</ele>
        <time>2021-09-18T09:35:31Z</time>
      </trkpt>
      <trkpt lat="43.86777" lon="6.61065">
        <ele>1293.9</ele>
        <time>2021-09-18T09:35:32Z</time>
      </trkpt>
      <trkpt lat="43.86777" lon="6.6107">
        <ele>1294.1</ele>
        <time>2021-09-18T09:35:34Z</time>
      </trkpt>
      <trkpt lat="43.86777" lon="6.61071">
        <ele>1294.2</ele>
        <time>2021-09-18T09:35:35Z</time>
      </trkpt>
      <trkpt lat="43.86777" lon="6.61074">
        <ele>1294.3</ele>
        <time>2021-09-18T09:35:36Z</time>
      </trkpt>
      <trkpt lat="43.86777" lon="6.61076">
        <ele>1294.4</ele>
        <time>2021-09-18T09:35:37Z</time>
      </trkpt>
      <trkpt lat="43.86776" lon="6.61081">
        <ele>1294.6</ele>
        <time>2021-09-18T09:35:39Z</time>
      </trkpt>
      <trkpt lat="43.86776" lon="6.61082">
        <ele>1294.7</ele>
        <time>2021-09-18T09:35:40Z</time>
      </trkpt>
      <trkpt lat="43.86775" lon="6.61085">
        <ele>1294.8</ele>
        <time>2021-09-18T09:35:41Z</time>
      </trkpt>
      <trkpt lat="43.86774" lon="6.61087">
        <ele>1294.9</ele>
        <time>2021-09-18T09:35:43Z</time>
      </trkpt>
      <trkpt lat="43.86772" lon="6.61091">
        <ele>1295</ele>
        <time>2021-09-18T09:35:44Z</time>
      </trkpt>
      <trkpt lat="43.86772" lon="6.61092">
        <ele>1295.1</ele>
        <time>2021-09-18T09:35:45Z</time>
      </trkpt>
      <trkpt lat="43.8677" lon="6.61095">
        <ele>1295.2</ele>
        <time>2021-09-18T09:35:46Z</time>
      </trkpt>
      <trkpt lat="43.86769" lon="6.61096">
        <ele>1295.3</ele>
        <time>2021-09-18T09:35:47Z</time>
      </trkpt>
      <trkpt lat="43.86768" lon="6.61101">
        <ele>1295.5</ele>
        <time>2021-09-18T09:35:49Z</time>
      </trkpt>
      <trkpt lat="43.86767" lon="6.61106">
        <ele>1295.7</ele>
        <time>2021-09-18T09:35:51Z</time>
      </trkpt>
      <trkpt lat="43.86766" lon="6.61111">
        <ele>1295.8</ele>
        <time>2021-09-18T09:35:52Z</time>
      </trkpt>
      <trkpt lat="43.86766" lon="6.61112">
        <ele>1295.9</ele>
        <time>2021-09-18T09:35:53Z</time>
      </trkpt>
      <trkpt lat="43.86765" lon="6.61118">
        <ele>1296</ele>
        <time>2021-09-18T09:35:55Z</time>
      </trkpt>
      <trkpt lat="43.86765" lon="6.61122">
        <ele>1296.2</ele>
        <time>2021-09-18T09:35:56Z</time>
      </trkpt>
      <trkpt lat="43.86765" lon="6.61124">
        <ele>1296.2</ele>
        <time>2021-09-18T09:35:57Z</time>
      </trkpt>
      <trkpt lat="43.86765" lon="6.61127">
        <ele>1296.3</ele>
        <time>2021-09-18T09:35:58Z</time>
      </trkpt>
      <trkpt lat="43.86766" lon="6.61131">
        <ele>1296.4</ele>
        <time>2021-09-18T09:35:59Z</time>
      </trkpt>
      <trkpt lat="43.86766" lon="6.61136">
        <ele>1296.6</ele>
        <time>2021-09-18T09:36:01Z</time>
      </trkpt>
      <trkpt lat="43.86764" lon="6.6114">
        <ele>1296.7</ele>
        <time>2021-09-18T09:36:03Z</time>
      </trkpt>
      <trkpt lat="43.86764" lon="6.61143">
        <ele>1296.8</ele>
        <time>2021-09-18T09:36:05Z</time>
      </trkpt>
      <trkpt lat="43.86764" lon="6.61145">
        <ele>1296.9</ele>
        <time>2021-09-18T09:36:06Z</time>
      </trkpt>
      <trkpt lat="43.86763" lon="6.61149">
        <ele>1297</ele>
        <time>2021-09-18T09:36:08Z</time>
      </trkpt>
      <trkpt lat="43.86761" lon="6.61153">
        <ele>1297.2</ele>
        <time>2021-09-18T09:36:09Z</time>
      </trkpt>
      <trkpt lat="43.8676" lon="6.61157">
        <ele>1297.3</ele>
        <time>2021-09-18T09:36:11Z</time>
      </trkpt>
      <trkpt lat="43.8676" lon="6.61158">
        <ele>1297.4</ele>
        <time>2021-09-18T09:36:12Z</time>
      </trkpt>
      <trkpt lat="43.86758" lon="6.61162">
        <ele>1297.5</ele>
        <time>2021-09-18T09:36:13Z</time>
      </trkpt>
      <trkpt lat="43.86758" lon="6.61165">
        <ele>1297.6</ele>
        <time>2021-09-18T09:36:15Z</time>
      </trkpt>
      <trkpt lat="43.86757" lon="6.61169">
        <ele>1297.7</ele>
        <time>2021-09-18T09:36:17Z</time>
      </trkpt>
      <trkpt lat="43.86757" lon="6.61172">
        <ele>1297.8</ele>
        <time>2021-09-18T09:36:18Z</time>
      </trkpt>
      <trkpt lat="43.86757" lon="6.61177">
        <ele>1298</ele>
        <time>2021-09-18T09:36:20Z</time>
      </trkpt>
      <trkpt lat="43.86757" lon="6.61185">
        <ele>1298.2</ele>
        <time>2021-09-18T09:36:22Z</time>
      </trkpt>
      <trkpt lat="43.86757" lon="6.61189">
        <ele>1298.3</ele>
        <time>2021-09-18T09:36:23Z</time>
      </trkpt>
      <trkpt lat="43.86756" lon="6.61197">
        <ele>1298.6</ele>
        <time>2021-09-18T09:36:25Z</time>
      </trkpt>
      <trkpt lat="43.86755" lon="6.61205">
        <ele>1298.8</ele>
        <time>2021-09-18T09:36:26Z</time>
      </trkpt>
      <trkpt lat="43.86754" lon="6.61211">
        <ele>1299.1</ele>
        <time>2021-09-18T09:36:28Z</time>
      </trkpt>
      <trkpt lat="43.86754" lon="6.61213">
        <ele>1299.1</ele>
        <time>2021-09-18T09:36:29Z</time>
      </trkpt>
      <trkpt lat="43.86753" lon="6.61216">
        <ele>1299.2</ele>
        <time>2021-09-18T09:36:30Z</time>
      </trkpt>
      <trkpt lat="43.86751" lon="6.6122">
        <ele>1299.4</ele>
        <time>2021-09-18T09:36:31Z</time>
      </trkpt>
      <trkpt lat="43.86749" lon="6.61227">
        <ele>1299.7</ele>
        <time>2021-09-18T09:36:33Z</time>
      </trkpt>
      <trkpt lat="43.86747" lon="6.61229">
        <ele>1299.8</ele>
        <time>2021-09-18T09:36:35Z</time>
      </trkpt>
      <trkpt lat="43.86746" lon="6.61232">
        <ele>1299.9</ele>
        <time>2021-09-18T09:36:36Z</time>
      </trkpt>
      <trkpt lat="43.86746" lon="6.61232">
        <ele>1299.9</ele>
        <time>2021-09-18T09:36:38Z</time>
      </trkpt>
      <trkpt lat="43.86745" lon="6.61237">
        <ele>1300.1</ele>
        <time>2021-09-18T09:36:40Z</time>
      </trkpt>
      <trkpt lat="43.86746" lon="6.61242">
        <ele>1300.2</ele>
        <time>2021-09-18T09:36:41Z</time>
      </trkpt>
      <trkpt lat="43.86744" lon="6.61246">
        <ele>1300.4</ele>
        <time>2021-09-18T09:36:43Z</time>
      </trkpt>
      <trkpt lat="43.86744" lon="6.61248">
        <ele>1300.5</ele>
        <time>2021-09-18T09:36:44Z</time>
      </trkpt>
      <trkpt lat="43.86743" lon="6.61252">
        <ele>1300.6</ele>
        <time>2021-09-18T09:36:45Z</time>
      </trkpt>
      <trkpt lat="43.86743" lon="6.61255">
        <ele>1300.7</ele>
        <time>2021-09-18T09:36:47Z</time>
      </trkpt>
      <trkpt lat="43.86743" lon="6.61264">
        <ele>1301.1</ele>
        <time>2021-09-18T09:36:49Z</time>
      </trkpt>
      <trkpt lat="43.86743" lon="6.61268">
        <ele>1301.2</ele>
        <time>2021-09-18T09:36:50Z</time>
      </trkpt>
      <trkpt lat="43.86743" lon="6.61275">
        <ele>1301.5</ele>
        <time>2021-09-18T09:36:51Z</time>
      </trkpt>
      <trkpt lat="43.86742" lon="6.6128">
        <ele>1301.7</ele>
        <time>2021-09-18T09:36:53Z</time>
      </trkpt>
      <trkpt lat="43.86742" lon="6.61284">
        <ele>1301.8</ele>
        <time>2021-09-18T09:36:54Z</time>
      </trkpt>
      <trkpt lat="43.86739" lon="6.61288">
        <ele>1302</ele>
        <time>2021-09-18T09:36:56Z</time>
      </trkpt>
      <trkpt lat="43.86736" lon="6.6129">
        <ele>1302.1</ele>
        <time>2021-09-18T09:36:57Z</time>
      </trkpt>
      <trkpt lat="43.86735" lon="6.61296">
        <ele>1302.3</ele>
        <time>2021-09-18T09:36:59Z</time>
      </trkpt>
      <trkpt lat="43.86735" lon="6.61299">
        <ele>1302.4</ele>
        <time>2021-09-18T09:37:01Z</time>
      </trkpt>
      <trkpt lat="43.86735" lon="6.61301">
        <ele>1302.5</ele>
        <time>2021-09-18T09:37:02Z</time>
      </trkpt>
      <trkpt lat="43.86735" lon="6.6131">
        <ele>1302.8</ele>
        <time>2021-09-18T09:37:03Z</time>
      </trkpt>
      <trkpt lat="43.86736" lon="6.61316">
        <ele>1303</ele>
        <time>2021-09-18T09:37:05Z</time>
      </trkpt>
      <trkpt lat="43.86736" lon="6.6132">
        <ele>1303.2</ele>
        <time>2021-09-18T09:37:06Z</time>
      </trkpt>
      <trkpt lat="43.86735" lon="6.61328">
        <ele>1303.5</ele>
        <time>2021-09-18T09:37:08Z</time>
      </trkpt>
      <trkpt lat="43.86734" lon="6.61332">
        <ele>1303.6</ele>
        <time>2021-09-18T09:37:09Z</time>
      </trkpt>
      <trkpt lat="43.86735" lon="6.61336">
        <ele>1303.8</ele>
        <time>2021-09-18T09:37:10Z</time>
      </trkpt>
      <trkpt lat="43.86737" lon="6.61342">
        <ele>1304</ele>
        <time>2021-09-18T09:37:11Z</time>
      </trkpt>
      <trkpt lat="43.86738" lon="6.61347">
        <ele>1304.2</ele>
        <time>2021-09-18T09:37:13Z</time>
      </trkpt>
      <trkpt lat="43.86739" lon="6.61353">
        <ele>1304.4</ele>
        <time>2021-09-18T09:37:14Z</time>
      </trkpt>
      <trkpt lat="43.86739" lon="6.61355">
        <ele>1304.5</ele>
        <time>2021-09-18T09:37:15Z</time>
      </trkpt>
      <trkpt lat="43.86739" lon="6.61358">
        <ele>1304.6</ele>
        <time>2021-09-18T09:37:17Z</time>
      </trkpt>
      <trkpt lat="43.86739" lon="6.6136">
        <ele>1304.7</ele>
        <time>2021-09-18T09:37:18Z</time>
      </trkpt>
      <trkpt lat="43.86738" lon="6.61364">
        <ele>1304.8</ele>
        <time>2021-09-18T09:37:20Z</time>
      </trkpt>
      <trkpt lat="43.86737" lon="6.61368">
        <ele>1305</ele>
        <time>2021-09-18T09:37:21Z</time>
      </trkpt>
      <trkpt lat="43.86737" lon="6.61371">
        <ele>1305.1</ele>
        <time>2021-09-18T09:37:23Z</time>
      </trkpt>
      <trkpt lat="43.86739" lon="6.61376">
        <ele>1305.2</ele>
        <time>2021-09-18T09:37:25Z</time>
      </trkpt>
      <trkpt lat="43.8674" lon="6.61382">
        <ele>1305.4</ele>
        <time>2021-09-18T09:37:26Z</time>
      </trkpt>
      <trkpt lat="43.8674" lon="6.61385">
        <ele>1305.5</ele>
        <time>2021-09-18T09:37:27Z</time>
      </trkpt>
      <trkpt lat="43.8674" lon="6.61388">
        <ele>1305.6</ele>
        <time>2021-09-18T09:37:29Z</time>
      </trkpt>
      <trkpt lat="43.86741" lon="6.61389">
        <ele>1305.7</ele>
        <time>2021-09-18T09:37:30Z</time>
      </trkpt>
      <trkpt lat="43.86743" lon="6.61395">
        <ele>1305.9</ele>
        <time>2021-09-18T09:37:32Z</time>
      </trkpt>
      <trkpt lat="43.86743" lon="6.61398">
        <ele>1306</ele>
        <time>2021-09-18T09:37:33Z</time>
      </trkpt>
      <trkpt lat="43.86743" lon="6.61399">
        <ele>1306</ele>
        <time>2021-09-18T09:37:34Z</time>
      </trkpt>
      <trkpt lat="43.86743" lon="6.614">
        <ele>1306.1</ele>
        <time>2021-09-18T09:37:35Z</time>
      </trkpt>
      <trkpt lat="43.86743" lon="6.61402">
        <ele>1306.1</ele>
        <time>2021-09-18T09:37:36Z</time>
      </trkpt>
      <trkpt lat="43.86743" lon="6.61404">
        <ele>1306.2</ele>
        <time>2021-09-18T09:37:38Z</time>
      </trkpt>
      <trkpt lat="43.86743" lon="6.61409">
        <ele>1306.3</ele>
        <time>2021-09-18T09:37:40Z</time>
      </trkpt>
      <trkpt lat="43.86744" lon="6.61414">
        <ele>1306.5</ele>
        <time>2021-09-18T09:37:41Z</time>
      </trkpt>
      <trkpt lat="43.86744" lon="6.61416">
        <ele>1306.6</ele>
        <time>2021-09-18T09:37:42Z</time>
      </trkpt>
      <trkpt lat="43.86745" lon="6.61421">
        <ele>1306.7</ele>
        <time>2021-09-18T09:37:44Z</time>
      </trkpt>
      <trkpt lat="43.86744" lon="6.61424">
        <ele>1306.8</ele>
        <time>2021-09-18T09:37:45Z</time>
      </trkpt>
      <trkpt lat="43.86743" lon="6.61426">
        <ele>1306.9</ele>
        <time>2021-09-18T09:37:46Z</time>
      </trkpt>
      <trkpt lat="43.86741" lon="6.61429">
        <ele>1307</ele>
        <time>2021-09-18T09:37:48Z</time>
      </trkpt>
      <trkpt lat="43.8674" lon="6.6143">
        <ele>1307.1</ele>
        <time>2021-09-18T09:37:49Z</time>
      </trkpt>
      <trkpt lat="43.86737" lon="6.61433">
        <ele>1307.2</ele>
        <time>2021-09-18T09:37:50Z</time>
      </trkpt>
      <trkpt lat="43.86735" lon="6.61435">
        <ele>1307.4</ele>
        <time>2021-09-18T09:37:51Z</time>
      </trkpt>
      <trkpt lat="43.86735" lon="6.61438">
        <ele>1307.5</ele>
        <time>2021-09-18T09:37:53Z</time>
      </trkpt>
      <trkpt lat="43.86735" lon="6.6144">
        <ele>1307.5</ele>
        <time>2021-09-18T09:37:54Z</time>
      </trkpt>
      <trkpt lat="43.86736" lon="6.61443">
        <ele>1307.7</ele>
        <time>2021-09-18T09:37:55Z</time>
      </trkpt>
      <trkpt lat="43.86735" lon="6.61449">
        <ele>1307.9</ele>
        <time>2021-09-18T09:37:56Z</time>
      </trkpt>
      <trkpt lat="43.86737" lon="6.61457">
        <ele>1308.1</ele>
        <time>2021-09-18T09:37:58Z</time>
      </trkpt>
      <trkpt lat="43.86737" lon="6.61462">
        <ele>1308.3</ele>
        <time>2021-09-18T09:37:59Z</time>
      </trkpt>
      <trkpt lat="43.86736" lon="6.61467">
        <ele>1308.4</ele>
        <time>2021-09-18T09:38:00Z</time>
      </trkpt>
      <trkpt lat="43.86736" lon="6.61471">
        <ele>1308.6</ele>
        <time>2021-09-18T09:38:02Z</time>
      </trkpt>
      <trkpt lat="43.86736" lon="6.61472">
        <ele>1308.6</ele>
        <time>2021-09-18T09:38:03Z</time>
      </trkpt>
      <trkpt lat="43.86736" lon="6.61474">
        <ele>1308.7</ele>
        <time>2021-09-18T09:38:04Z</time>
      </trkpt>
      <trkpt lat="43.86735" lon="6.61475">
        <ele>1308.7</ele>
        <time>2021-09-18T09:38:05Z</time>
      </trkpt>
      <trkpt lat="43.86733" lon="6.61478">
        <ele>1308.8</ele>
        <time>2021-09-18T09:38:07Z</time>
      </trkpt>
      <trkpt lat="43.86732" lon="6.6148">
        <ele>1308.9</ele>
        <time>2021-09-18T09:38:08Z</time>
      </trkpt>
      <trkpt lat="43.86729" lon="6.61492">
        <ele>1309.3</ele>
        <time>2021-09-18T09:38:13Z</time>
      </trkpt>
      <trkpt lat="43.86729" lon="6.61497">
        <ele>1309.5</ele>
        <time>2021-09-18T09:38:14Z</time>
      </trkpt>
      <trkpt lat="43.86729" lon="6.61505">
        <ele>1309.8</ele>
        <time>2021-09-18T09:38:15Z</time>
      </trkpt>
      <trkpt lat="43.86729" lon="6.61509">
        <ele>1309.9</ele>
        <time>2021-09-18T09:38:16Z</time>
      </trkpt>
      <trkpt lat="43.86728" lon="6.61521">
        <ele>1310.3</ele>
        <time>2021-09-18T09:38:18Z</time>
      </trkpt>
      <trkpt lat="43.86728" lon="6.61525">
        <ele>1310.4</ele>
        <time>2021-09-18T09:38:20Z</time>
      </trkpt>
      <trkpt lat="43.86729" lon="6.61529">
        <ele>1310.6</ele>
        <time>2021-09-18T09:38:21Z</time>
      </trkpt>
      <trkpt lat="43.8673" lon="6.61534">
        <ele>1310.7</ele>
        <time>2021-09-18T09:38:22Z</time>
      </trkpt>
      <trkpt lat="43.86731" lon="6.61541">
        <ele>1311</ele>
        <time>2021-09-18T09:38:23Z</time>
      </trkpt>
      <trkpt lat="43.86733" lon="6.61548">
        <ele>1311.2</ele>
        <time>2021-09-18T09:38:25Z</time>
      </trkpt>
      <trkpt lat="43.86734" lon="6.61555">
        <ele>1311.4</ele>
        <time>2021-09-18T09:38:26Z</time>
      </trkpt>
      <trkpt lat="43.86736" lon="6.61564">
        <ele>1311.7</ele>
        <time>2021-09-18T09:38:27Z</time>
      </trkpt>
      <trkpt lat="43.86739" lon="6.61575">
        <ele>1312.1</ele>
        <time>2021-09-18T09:38:28Z</time>
      </trkpt>
      <trkpt lat="43.86742" lon="6.61582">
        <ele>1312.3</ele>
        <time>2021-09-18T09:38:30Z</time>
      </trkpt>
      <trkpt lat="43.86741" lon="6.61586">
        <ele>1312.4</ele>
        <time>2021-09-18T09:38:31Z</time>
      </trkpt>
      <trkpt lat="43.86741" lon="6.61587">
        <ele>1312.5</ele>
        <time>2021-09-18T09:38:32Z</time>
      </trkpt>
      <trkpt lat="43.86741" lon="6.61589">
        <ele>1312.5</ele>
        <time>2021-09-18T09:38:33Z</time>
      </trkpt>
      <trkpt lat="43.86741" lon="6.61589">
        <ele>1312.5</ele>
        <time>2021-09-18T09:38:35Z</time>
      </trkpt>
      <trkpt lat="43.86741" lon="6.6159">
        <ele>1312.5</ele>
        <time>2021-09-18T09:38:36Z</time>
      </trkpt>
      <trkpt lat="43.86741" lon="6.61591">
        <ele>1312.6</ele>
        <time>2021-09-18T09:38:37Z</time>
      </trkpt>
      <trkpt lat="43.86741" lon="6.61593">
        <ele>1312.6</ele>
        <time>2021-09-18T09:38:39Z</time>
      </trkpt>
      <trkpt lat="43.86741" lon="6.61595">
        <ele>1312.7</ele>
        <time>2021-09-18T09:38:40Z</time>
      </trkpt>
      <trkpt lat="43.86738" lon="6.61633">
        <ele>1313.4</ele>
        <time>2021-09-18T09:38:56Z</time>
      </trkpt>
      <trkpt lat="43.86738" lon="6.61641">
        <ele>1313.6</ele>
        <time>2021-09-18T09:38:57Z</time>
      </trkpt>
      <trkpt lat="43.86737" lon="6.61645">
        <ele>1313.7</ele>
        <time>2021-09-18T09:38:59Z</time>
      </trkpt>
      <trkpt lat="43.86737" lon="6.6165">
        <ele>1313.7</ele>
        <time>2021-09-18T09:39:00Z</time>
      </trkpt>
      <trkpt lat="43.86737" lon="6.61654">
        <ele>1313.8</ele>
        <time>2021-09-18T09:39:01Z</time>
      </trkpt>
      <trkpt lat="43.86737" lon="6.61661">
        <ele>1313.9</ele>
        <time>2021-09-18T09:39:02Z</time>
      </trkpt>
      <trkpt lat="43.86738" lon="6.61669">
        <ele>1314.1</ele>
        <time>2021-09-18T09:39:05Z</time>
      </trkpt>
      <trkpt lat="43.86738" lon="6.61674">
        <ele>1314.1</ele>
        <time>2021-09-18T09:39:06Z</time>
      </trkpt>
      <trkpt lat="43.86739" lon="6.61677">
        <ele>1314.2</ele>
        <time>2021-09-18T09:39:07Z</time>
      </trkpt>
      <trkpt lat="43.8674" lon="6.61682">
        <ele>1314.3</ele>
        <time>2021-09-18T09:39:09Z</time>
      </trkpt>
      <trkpt lat="43.86742" lon="6.61689">
        <ele>1314.4</ele>
        <time>2021-09-18T09:39:10Z</time>
      </trkpt>
      <trkpt lat="43.86742" lon="6.61692">
        <ele>1314.4</ele>
        <time>2021-09-18T09:39:11Z</time>
      </trkpt>
      <trkpt lat="43.86743" lon="6.61697">
        <ele>1314.5</ele>
        <time>2021-09-18T09:39:13Z</time>
      </trkpt>
      <trkpt lat="43.86744" lon="6.61704">
        <ele>1314.6</ele>
        <time>2021-09-18T09:39:14Z</time>
      </trkpt>
      <trkpt lat="43.86745" lon="6.6171">
        <ele>1314.7</ele>
        <time>2021-09-18T09:39:16Z</time>
      </trkpt>
      <trkpt lat="43.86745" lon="6.61712">
        <ele>1314.7</ele>
        <time>2021-09-18T09:39:17Z</time>
      </trkpt>
      <trkpt lat="43.86745" lon="6.61713">
        <ele>1314.7</ele>
        <time>2021-09-18T09:39:18Z</time>
      </trkpt>
      <trkpt lat="43.86747" lon="6.61718">
        <ele>1314.8</ele>
        <time>2021-09-18T09:39:20Z</time>
      </trkpt>
      <trkpt lat="43.86748" lon="6.61721">
        <ele>1314.9</ele>
        <time>2021-09-18T09:39:21Z</time>
      </trkpt>
      <trkpt lat="43.8675" lon="6.61727">
        <ele>1315</ele>
        <time>2021-09-18T09:39:23Z</time>
      </trkpt>
      <trkpt lat="43.86752" lon="6.61729">
        <ele>1315</ele>
        <time>2021-09-18T09:39:24Z</time>
      </trkpt>
      <trkpt lat="43.86755" lon="6.61737">
        <ele>1315.2</ele>
        <time>2021-09-18T09:39:26Z</time>
      </trkpt>
      <trkpt lat="43.86757" lon="6.61741">
        <ele>1315.3</ele>
        <time>2021-09-18T09:39:27Z</time>
      </trkpt>
      <trkpt lat="43.86759" lon="6.61745">
        <ele>1315.3</ele>
        <time>2021-09-18T09:39:28Z</time>
      </trkpt>
      <trkpt lat="43.86759" lon="6.61751">
        <ele>1315.5</ele>
        <time>2021-09-18T09:39:30Z</time>
      </trkpt>
      <trkpt lat="43.86761" lon="6.61759">
        <ele>1315.6</ele>
        <time>2021-09-18T09:39:32Z</time>
      </trkpt>
      <trkpt lat="43.86764" lon="6.61766">
        <ele>1315.8</ele>
        <time>2021-09-18T09:39:34Z</time>
      </trkpt>
      <trkpt lat="43.86765" lon="6.61771">
        <ele>1315.9</ele>
        <time>2021-09-18T09:39:35Z</time>
      </trkpt>
      <trkpt lat="43.86766" lon="6.61778">
        <ele>1316</ele>
        <time>2021-09-18T09:39:36Z</time>
      </trkpt>
      <trkpt lat="43.86767" lon="6.61783">
        <ele>1316.2</ele>
        <time>2021-09-18T09:39:38Z</time>
      </trkpt>
      <trkpt lat="43.86769" lon="6.61789">
        <ele>1316.3</ele>
        <time>2021-09-18T09:39:40Z</time>
      </trkpt>
      <trkpt lat="43.8677" lon="6.61794">
        <ele>1316.5</ele>
        <time>2021-09-18T09:39:41Z</time>
      </trkpt>
      <trkpt lat="43.8677" lon="6.61796">
        <ele>1316.5</ele>
        <time>2021-09-18T09:39:42Z</time>
      </trkpt>
      <trkpt lat="43.86772" lon="6.61801">
        <ele>1316.7</ele>
        <time>2021-09-18T09:39:44Z</time>
      </trkpt>
      <trkpt lat="43.86773" lon="6.61803">
        <ele>1316.8</ele>
        <time>2021-09-18T09:39:45Z</time>
      </trkpt>
      <trkpt lat="43.86775" lon="6.61806">
        <ele>1316.9</ele>
        <time>2021-09-18T09:39:47Z</time>
      </trkpt>
      <trkpt lat="43.86777" lon="6.61809">
        <ele>1316.9</ele>
        <time>2021-09-18T09:39:48Z</time>
      </trkpt>
      <trkpt lat="43.86778" lon="6.61813">
        <ele>1317.1</ele>
        <time>2021-09-18T09:39:50Z</time>
      </trkpt>
      <trkpt lat="43.86779" lon="6.6182">
        <ele>1317.3</ele>
        <time>2021-09-18T09:39:52Z</time>
      </trkpt>
      <trkpt lat="43.8678" lon="6.61827">
        <ele>1317.4</ele>
        <time>2021-09-18T09:39:53Z</time>
      </trkpt>
      <trkpt lat="43.86781" lon="6.6183">
        <ele>1317.5</ele>
        <time>2021-09-18T09:39:54Z</time>
      </trkpt>
      <trkpt lat="43.86781" lon="6.61837">
        <ele>1317.7</ele>
        <time>2021-09-18T09:39:56Z</time>
      </trkpt>
      <trkpt lat="43.86781" lon="6.61841">
        <ele>1317.8</ele>
        <time>2021-09-18T09:39:57Z</time>
      </trkpt>
      <trkpt lat="43.86782" lon="6.61855">
        <ele>1318.1</ele>
        <time>2021-09-18T09:39:59Z</time>
      </trkpt>
      <trkpt lat="43.86782" lon="6.61865">
        <ele>1318.3</ele>
        <time>2021-09-18T09:40:00Z</time>
      </trkpt>
      <trkpt lat="43.86783" lon="6.61871">
        <ele>1318.5</ele>
        <time>2021-09-18T09:40:01Z</time>
      </trkpt>
      <trkpt lat="43.86783" lon="6.61877">
        <ele>1318.6</ele>
        <time>2021-09-18T09:40:02Z</time>
      </trkpt>
      <trkpt lat="43.86784" lon="6.61884">
        <ele>1318.8</ele>
        <time>2021-09-18T09:40:04Z</time>
      </trkpt>
      <trkpt lat="43.86785" lon="6.61891">
        <ele>1319</ele>
        <time>2021-09-18T09:40:05Z</time>
      </trkpt>
      <trkpt lat="43.86787" lon="6.61895">
        <ele>1319.1</ele>
        <time>2021-09-18T09:40:06Z</time>
      </trkpt>
      <trkpt lat="43.86787" lon="6.61895">
        <ele>1319.1</ele>
        <time>2021-09-18T09:40:07Z</time>
      </trkpt>
      <trkpt lat="43.86787" lon="6.61897">
        <ele>1319.1</ele>
        <time>2021-09-18T09:40:08Z</time>
      </trkpt>
      <trkpt lat="43.86788" lon="6.619">
        <ele>1319.2</ele>
        <time>2021-09-18T09:40:10Z</time>
      </trkpt>
      <trkpt lat="43.86788" lon="6.61903">
        <ele>1319.3</ele>
        <time>2021-09-18T09:40:11Z</time>
      </trkpt>
      <trkpt lat="43.86788" lon="6.61907">
        <ele>1319.4</ele>
        <time>2021-09-18T09:40:13Z</time>
      </trkpt>
      <trkpt lat="43.86789" lon="6.61911">
        <ele>1319.5</ele>
        <time>2021-09-18T09:40:14Z</time>
      </trkpt>
      <trkpt lat="43.86789" lon="6.61913">
        <ele>1319.6</ele>
        <time>2021-09-18T09:40:15Z</time>
      </trkpt>
      <trkpt lat="43.8679" lon="6.61918">
        <ele>1319.7</ele>
        <time>2021-09-18T09:40:16Z</time>
      </trkpt>
      <trkpt lat="43.86789" lon="6.61923">
        <ele>1319.8</ele>
        <time>2021-09-18T09:40:17Z</time>
      </trkpt>
      <trkpt lat="43.86789" lon="6.61924">
        <ele>1319.9</ele>
        <time>2021-09-18T09:40:18Z</time>
      </trkpt>
      <trkpt lat="43.86789" lon="6.61929">
        <ele>1320</ele>
        <time>2021-09-18T09:40:19Z</time>
      </trkpt>
      <trkpt lat="43.86789" lon="6.61931">
        <ele>1320.1</ele>
        <time>2021-09-18T09:40:20Z</time>
      </trkpt>
      <trkpt lat="43.86789" lon="6.61936">
        <ele>1320.2</ele>
        <time>2021-09-18T09:40:22Z</time>
      </trkpt>
      <trkpt lat="43.86789" lon="6.61942">
        <ele>1320.4</ele>
        <time>2021-09-18T09:40:23Z</time>
      </trkpt>
      <trkpt lat="43.86789" lon="6.61946">
        <ele>1320.5</ele>
        <time>2021-09-18T09:40:24Z</time>
      </trkpt>
      <trkpt lat="43.86788" lon="6.61954">
        <ele>1320.8</ele>
        <time>2021-09-18T09:40:26Z</time>
      </trkpt>
      <trkpt lat="43.86787" lon="6.61957">
        <ele>1320.9</ele>
        <time>2021-09-18T09:40:27Z</time>
      </trkpt>
      <trkpt lat="43.86787" lon="6.61961">
        <ele>1321</ele>
        <time>2021-09-18T09:40:28Z</time>
      </trkpt>
      <trkpt lat="43.86786" lon="6.61966">
        <ele>1321.2</ele>
        <time>2021-09-18T09:40:30Z</time>
      </trkpt>
      <trkpt lat="43.86784" lon="6.61971">
        <ele>1321.3</ele>
        <time>2021-09-18T09:40:31Z</time>
      </trkpt>
      <trkpt lat="43.86782" lon="6.61977">
        <ele>1321.5</ele>
        <time>2021-09-18T09:40:33Z</time>
      </trkpt>
      <trkpt lat="43.86782" lon="6.6198">
        <ele>1321.6</ele>
        <time>2021-09-18T09:40:34Z</time>
      </trkpt>
      <trkpt lat="43.86779" lon="6.61986">
        <ele>1321.8</ele>
        <time>2021-09-18T09:40:36Z</time>
      </trkpt>
      <trkpt lat="43.86777" lon="6.61991">
        <ele>1322</ele>
        <time>2021-09-18T09:40:37Z</time>
      </trkpt>
      <trkpt lat="43.86775" lon="6.61995">
        <ele>1322.1</ele>
        <time>2021-09-18T09:40:38Z</time>
      </trkpt>
      <trkpt lat="43.86774" lon="6.61998">
        <ele>1322.3</ele>
        <time>2021-09-18T09:40:40Z</time>
      </trkpt>
      <trkpt lat="43.86773" lon="6.62002">
        <ele>1322.4</ele>
        <time>2021-09-18T09:40:41Z</time>
      </trkpt>
      <trkpt lat="43.8677" lon="6.62006">
        <ele>1322.5</ele>
        <time>2021-09-18T09:40:42Z</time>
      </trkpt>
      <trkpt lat="43.86768" lon="6.62011">
        <ele>1322.7</ele>
        <time>2021-09-18T09:40:44Z</time>
      </trkpt>
      <trkpt lat="43.86766" lon="6.62016">
        <ele>1322.9</ele>
        <time>2021-09-18T09:40:45Z</time>
      </trkpt>
      <trkpt lat="43.86764" lon="6.62021">
        <ele>1323</ele>
        <time>2021-09-18T09:40:47Z</time>
      </trkpt>
      <trkpt lat="43.86762" lon="6.62028">
        <ele>1323.3</ele>
        <time>2021-09-18T09:40:49Z</time>
      </trkpt>
      <trkpt lat="43.86761" lon="6.62032">
        <ele>1323.4</ele>
        <time>2021-09-18T09:40:50Z</time>
      </trkpt>
      <trkpt lat="43.86759" lon="6.6204">
        <ele>1323.7</ele>
        <time>2021-09-18T09:40:52Z</time>
      </trkpt>
      <trkpt lat="43.86758" lon="6.62044">
        <ele>1323.8</ele>
        <time>2021-09-18T09:40:53Z</time>
      </trkpt>
      <trkpt lat="43.86757" lon="6.62048">
        <ele>1323.9</ele>
        <time>2021-09-18T09:40:54Z</time>
      </trkpt>
      <trkpt lat="43.86756" lon="6.62052">
        <ele>1324.1</ele>
        <time>2021-09-18T09:40:55Z</time>
      </trkpt>
      <trkpt lat="43.86754" lon="6.62055">
        <ele>1324.2</ele>
        <time>2021-09-18T09:40:56Z</time>
      </trkpt>
      <trkpt lat="43.86753" lon="6.6206">
        <ele>1324.4</ele>
        <time>2021-09-18T09:40:57Z</time>
      </trkpt>
      <trkpt lat="43.86751" lon="6.62065">
        <ele>1324.5</ele>
        <time>2021-09-18T09:40:59Z</time>
      </trkpt>
      <trkpt lat="43.8675" lon="6.62071">
        <ele>1324.7</ele>
        <time>2021-09-18T09:41:00Z</time>
      </trkpt>
      <trkpt lat="43.8675" lon="6.62074">
        <ele>1324.8</ele>
        <time>2021-09-18T09:41:01Z</time>
      </trkpt>
      <trkpt lat="43.86748" lon="6.62078">
        <ele>1325</ele>
        <time>2021-09-18T09:41:03Z</time>
      </trkpt>
      <trkpt lat="43.86747" lon="6.6208">
        <ele>1325.1</ele>
        <time>2021-09-18T09:41:04Z</time>
      </trkpt>
      <trkpt lat="43.86744" lon="6.62086">
        <ele>1325.3</ele>
        <time>2021-09-18T09:41:06Z</time>
      </trkpt>
      <trkpt lat="43.86742" lon="6.62092">
        <ele>1325.5</ele>
        <time>2021-09-18T09:41:07Z</time>
      </trkpt>
      <trkpt lat="43.86741" lon="6.62095">
        <ele>1325.6</ele>
        <time>2021-09-18T09:41:08Z</time>
      </trkpt>
      <trkpt lat="43.8674" lon="6.62103">
        <ele>1325.8</ele>
        <time>2021-09-18T09:41:10Z</time>
      </trkpt>
      <trkpt lat="43.86739" lon="6.62107">
        <ele>1325.9</ele>
        <time>2021-09-18T09:41:11Z</time>
      </trkpt>
      <trkpt lat="43.86738" lon="6.62113">
        <ele>1326.1</ele>
        <time>2021-09-18T09:41:13Z</time>
      </trkpt>
      <trkpt lat="43.86738" lon="6.62117">
        <ele>1326.2</ele>
        <time>2021-09-18T09:41:14Z</time>
      </trkpt>
      <trkpt lat="43.86737" lon="6.62126">
        <ele>1326.5</ele>
        <time>2021-09-18T09:41:16Z</time>
      </trkpt>
      <trkpt lat="43.86735" lon="6.62133">
        <ele>1326.6</ele>
        <time>2021-09-18T09:41:18Z</time>
      </trkpt>
      <trkpt lat="43.86734" lon="6.62137">
        <ele>1326.7</ele>
        <time>2021-09-18T09:41:19Z</time>
      </trkpt>
      <trkpt lat="43.86731" lon="6.62144">
        <ele>1326.9</ele>
        <time>2021-09-18T09:41:21Z</time>
      </trkpt>
      <trkpt lat="43.86729" lon="6.6215">
        <ele>1327</ele>
        <time>2021-09-18T09:41:22Z</time>
      </trkpt>
      <trkpt lat="43.86727" lon="6.62156">
        <ele>1327.2</ele>
        <time>2021-09-18T09:41:24Z</time>
      </trkpt>
      <trkpt lat="43.86727" lon="6.62158">
        <ele>1327.2</ele>
        <time>2021-09-18T09:41:25Z</time>
      </trkpt>
      <trkpt lat="43.86727" lon="6.62161">
        <ele>1327.3</ele>
        <time>2021-09-18T09:41:26Z</time>
      </trkpt>
      <trkpt lat="43.86726" lon="6.62165">
        <ele>1327.3</ele>
        <time>2021-09-18T09:41:27Z</time>
      </trkpt>
      <trkpt lat="43.86725" lon="6.6217">
        <ele>1327.4</ele>
        <time>2021-09-18T09:41:29Z</time>
      </trkpt>
      <trkpt lat="43.86723" lon="6.62177">
        <ele>1327.6</ele>
        <time>2021-09-18T09:41:31Z</time>
      </trkpt>
      <trkpt lat="43.86722" lon="6.6218">
        <ele>1327.6</ele>
        <time>2021-09-18T09:41:32Z</time>
      </trkpt>
      <trkpt lat="43.86718" lon="6.62186">
        <ele>1327.7</ele>
        <time>2021-09-18T09:41:33Z</time>
      </trkpt>
      <trkpt lat="43.86717" lon="6.62191">
        <ele>1327.8</ele>
        <time>2021-09-18T09:41:35Z</time>
      </trkpt>
      <trkpt lat="43.86715" lon="6.62194">
        <ele>1327.9</ele>
        <time>2021-09-18T09:41:36Z</time>
      </trkpt>
      <trkpt lat="43.86714" lon="6.62201">
        <ele>1328</ele>
        <time>2021-09-18T09:41:37Z</time>
      </trkpt>
      <trkpt lat="43.86712" lon="6.62205">
        <ele>1328</ele>
        <time>2021-09-18T09:41:39Z</time>
      </trkpt>
      <trkpt lat="43.86712" lon="6.62209">
        <ele>1328.1</ele>
        <time>2021-09-18T09:41:40Z</time>
      </trkpt>
      <trkpt lat="43.86712" lon="6.62213">
        <ele>1328.1</ele>
        <time>2021-09-18T09:41:41Z</time>
      </trkpt>
      <trkpt lat="43.86711" lon="6.62218">
        <ele>1328.2</ele>
        <time>2021-09-18T09:41:42Z</time>
      </trkpt>
      <trkpt lat="43.86711" lon="6.62222">
        <ele>1328.3</ele>
        <time>2021-09-18T09:41:43Z</time>
      </trkpt>
      <trkpt lat="43.86711" lon="6.62226">
        <ele>1328.3</ele>
        <time>2021-09-18T09:41:44Z</time>
      </trkpt>
      <trkpt lat="43.86709" lon="6.62234">
        <ele>1328.5</ele>
        <time>2021-09-18T09:41:45Z</time>
      </trkpt>
      <trkpt lat="43.86709" lon="6.62239">
        <ele>1328.5</ele>
        <time>2021-09-18T09:41:47Z</time>
      </trkpt>
      <trkpt lat="43.86706" lon="6.62246">
        <ele>1328.7</ele>
        <time>2021-09-18T09:41:49Z</time>
      </trkpt>
      <trkpt lat="43.86705" lon="6.6225">
        <ele>1328.7</ele>
        <time>2021-09-18T09:41:50Z</time>
      </trkpt>
      <trkpt lat="43.86702" lon="6.62256">
        <ele>1328.8</ele>
        <time>2021-09-18T09:41:52Z</time>
      </trkpt>
      <trkpt lat="43.86701" lon="6.62261">
        <ele>1328.9</ele>
        <time>2021-09-18T09:41:53Z</time>
      </trkpt>
      <trkpt lat="43.867" lon="6.62263">
        <ele>1328.9</ele>
        <time>2021-09-18T09:41:54Z</time>
      </trkpt>
      <trkpt lat="43.86698" lon="6.62267">
        <ele>1329</ele>
        <time>2021-09-18T09:41:55Z</time>
      </trkpt>
      <trkpt lat="43.86696" lon="6.62273">
        <ele>1329.1</ele>
        <time>2021-09-18T09:41:57Z</time>
      </trkpt>
      <trkpt lat="43.86696" lon="6.62275">
        <ele>1329.1</ele>
        <time>2021-09-18T09:41:58Z</time>
      </trkpt>
      <trkpt lat="43.86695" lon="6.62277">
        <ele>1329.2</ele>
        <time>2021-09-18T09:41:59Z</time>
      </trkpt>
      <trkpt lat="43.86694" lon="6.62284">
        <ele>1329.2</ele>
        <time>2021-09-18T09:42:01Z</time>
      </trkpt>
      <trkpt lat="43.86693" lon="6.62288">
        <ele>1329.3</ele>
        <time>2021-09-18T09:42:02Z</time>
      </trkpt>
      <trkpt lat="43.86693" lon="6.62289">
        <ele>1329.3</ele>
        <time>2021-09-18T09:42:03Z</time>
      </trkpt>
      <trkpt lat="43.86692" lon="6.62294">
        <ele>1329.3</ele>
        <time>2021-09-18T09:42:04Z</time>
      </trkpt>
      <trkpt lat="43.86691" lon="6.62299">
        <ele>1329.3</ele>
        <time>2021-09-18T09:42:05Z</time>
      </trkpt>
      <trkpt lat="43.8669" lon="6.62304">
        <ele>1329.4</ele>
        <time>2021-09-18T09:42:06Z</time>
      </trkpt>
      <trkpt lat="43.86689" lon="6.62306">
        <ele>1329.4</ele>
        <time>2021-09-18T09:42:07Z</time>
      </trkpt>
      <trkpt lat="43.86688" lon="6.6231">
        <ele>1329.5</ele>
        <time>2021-09-18T09:42:08Z</time>
      </trkpt>
      <trkpt lat="43.86687" lon="6.62314">
        <ele>1329.5</ele>
        <time>2021-09-18T09:42:09Z</time>
      </trkpt>
      <trkpt lat="43.86685" lon="6.62319">
        <ele>1329.6</ele>
        <time>2021-09-18T09:42:10Z</time>
      </trkpt>
      <trkpt lat="43.86685" lon="6.62321">
        <ele>1329.7</ele>
        <time>2021-09-18T09:42:11Z</time>
      </trkpt>
      <trkpt lat="43.86684" lon="6.62324">
        <ele>1329.7</ele>
        <time>2021-09-18T09:42:12Z</time>
      </trkpt>
      <trkpt lat="43.86682" lon="6.62327">
        <ele>1329.8</ele>
        <time>2021-09-18T09:42:14Z</time>
      </trkpt>
      <trkpt lat="43.86681" lon="6.62333">
        <ele>1329.9</ele>
        <time>2021-09-18T09:42:15Z</time>
      </trkpt>
      <trkpt lat="43.8668" lon="6.62334">
        <ele>1329.9</ele>
        <time>2021-09-18T09:42:16Z</time>
      </trkpt>
      <trkpt lat="43.86679" lon="6.62339">
        <ele>1330</ele>
        <time>2021-09-18T09:42:17Z</time>
      </trkpt>
      <trkpt lat="43.86677" lon="6.62344">
        <ele>1330.1</ele>
        <time>2021-09-18T09:42:19Z</time>
      </trkpt>
      <trkpt lat="43.86676" lon="6.62349">
        <ele>1330.1</ele>
        <time>2021-09-18T09:42:20Z</time>
      </trkpt>
      <trkpt lat="43.86675" lon="6.62353">
        <ele>1330.2</ele>
        <time>2021-09-18T09:42:21Z</time>
      </trkpt>
      <trkpt lat="43.86674" lon="6.62357">
        <ele>1330.2</ele>
        <time>2021-09-18T09:42:22Z</time>
      </trkpt>
      <trkpt lat="43.86671" lon="6.62363">
        <ele>1330.3</ele>
        <time>2021-09-18T09:42:24Z</time>
      </trkpt>
      <trkpt lat="43.8667" lon="6.62366">
        <ele>1330.4</ele>
        <time>2021-09-18T09:42:25Z</time>
      </trkpt>
      <trkpt lat="43.86669" lon="6.62371">
        <ele>1330.5</ele>
        <time>2021-09-18T09:42:27Z</time>
      </trkpt>
      <trkpt lat="43.86668" lon="6.62375">
        <ele>1330.5</ele>
        <time>2021-09-18T09:42:28Z</time>
      </trkpt>
      <trkpt lat="43.86667" lon="6.62381">
        <ele>1330.6</ele>
        <time>2021-09-18T09:42:30Z</time>
      </trkpt>
      <trkpt lat="43.86666" lon="6.62385">
        <ele>1330.6</ele>
        <time>2021-09-18T09:42:31Z</time>
      </trkpt>
      <trkpt lat="43.86665" lon="6.62389">
        <ele>1330.7</ele>
        <time>2021-09-18T09:42:32Z</time>
      </trkpt>
      <trkpt lat="43.86663" lon="6.62395">
        <ele>1330.8</ele>
        <time>2021-09-18T09:42:34Z</time>
      </trkpt>
      <trkpt lat="43.86661" lon="6.624">
        <ele>1330.9</ele>
        <time>2021-09-18T09:42:35Z</time>
      </trkpt>
      <trkpt lat="43.8666" lon="6.62402">
        <ele>1330.9</ele>
        <time>2021-09-18T09:42:36Z</time>
      </trkpt>
      <trkpt lat="43.86658" lon="6.62407">
        <ele>1331</ele>
        <time>2021-09-18T09:42:37Z</time>
      </trkpt>
      <trkpt lat="43.86657" lon="6.62413">
        <ele>1331.2</ele>
        <time>2021-09-18T09:42:39Z</time>
      </trkpt>
      <trkpt lat="43.86656" lon="6.62415">
        <ele>1331.2</ele>
        <time>2021-09-18T09:42:40Z</time>
      </trkpt>
      <trkpt lat="43.86656" lon="6.62417">
        <ele>1331.2</ele>
        <time>2021-09-18T09:42:41Z</time>
      </trkpt>
      <trkpt lat="43.86654" lon="6.62423">
        <ele>1331.3</ele>
        <time>2021-09-18T09:42:43Z</time>
      </trkpt>
      <trkpt lat="43.86653" lon="6.62426">
        <ele>1331.4</ele>
        <time>2021-09-18T09:42:44Z</time>
      </trkpt>
      <trkpt lat="43.86652" lon="6.62432">
        <ele>1331.5</ele>
        <time>2021-09-18T09:42:46Z</time>
      </trkpt>
      <trkpt lat="43.8665" lon="6.62437">
        <ele>1331.6</ele>
        <time>2021-09-18T09:42:47Z</time>
      </trkpt>
      <trkpt lat="43.86648" lon="6.62442">
        <ele>1331.7</ele>
        <time>2021-09-18T09:42:49Z</time>
      </trkpt>
      <trkpt lat="43.86646" lon="6.62449">
        <ele>1331.9</ele>
        <time>2021-09-18T09:42:50Z</time>
      </trkpt>
      <trkpt lat="43.86644" lon="6.62456">
        <ele>1332</ele>
        <time>2021-09-18T09:42:52Z</time>
      </trkpt>
      <trkpt lat="43.86643" lon="6.62461">
        <ele>1332.1</ele>
        <time>2021-09-18T09:42:54Z</time>
      </trkpt>
      <trkpt lat="43.86642" lon="6.62466">
        <ele>1332.2</ele>
        <time>2021-09-18T09:42:55Z</time>
      </trkpt>
      <trkpt lat="43.86642" lon="6.62468">
        <ele>1332.3</ele>
        <time>2021-09-18T09:42:56Z</time>
      </trkpt>
      <trkpt lat="43.8664" lon="6.62474">
        <ele>1332.4</ele>
        <time>2021-09-18T09:42:58Z</time>
      </trkpt>
      <trkpt lat="43.86637" lon="6.62479">
        <ele>1332.6</ele>
        <time>2021-09-18T09:43:00Z</time>
      </trkpt>
      <trkpt lat="43.86636" lon="6.62486">
        <ele>1332.7</ele>
        <time>2021-09-18T09:43:01Z</time>
      </trkpt>
      <trkpt lat="43.86635" lon="6.62492">
        <ele>1332.9</ele>
        <time>2021-09-18T09:43:03Z</time>
      </trkpt>
      <trkpt lat="43.86634" lon="6.62496">
        <ele>1333</ele>
        <time>2021-09-18T09:43:04Z</time>
      </trkpt>
      <trkpt lat="43.86632" lon="6.62499">
        <ele>1333.1</ele>
        <time>2021-09-18T09:43:05Z</time>
      </trkpt>
      <trkpt lat="43.8663" lon="6.62507">
        <ele>1333.3</ele>
        <time>2021-09-18T09:43:07Z</time>
      </trkpt>
      <trkpt lat="43.86627" lon="6.62514">
        <ele>1333.5</ele>
        <time>2021-09-18T09:43:09Z</time>
      </trkpt>
      <trkpt lat="43.86625" lon="6.62523">
        <ele>1333.8</ele>
        <time>2021-09-18T09:43:11Z</time>
      </trkpt>
      <trkpt lat="43.86623" lon="6.6253">
        <ele>1334</ele>
        <time>2021-09-18T09:43:13Z</time>
      </trkpt>
      <trkpt lat="43.86622" lon="6.62533">
        <ele>1334.1</ele>
        <time>2021-09-18T09:43:14Z</time>
      </trkpt>
      <trkpt lat="43.8662" lon="6.6254">
        <ele>1334.3</ele>
        <time>2021-09-18T09:43:16Z</time>
      </trkpt>
      <trkpt lat="43.86619" lon="6.62544">
        <ele>1334.4</ele>
        <time>2021-09-18T09:43:17Z</time>
      </trkpt>
      <trkpt lat="43.86619" lon="6.62549">
        <ele>1334.6</ele>
        <time>2021-09-18T09:43:18Z</time>
      </trkpt>
      <trkpt lat="43.86619" lon="6.62551">
        <ele>1334.6</ele>
        <time>2021-09-18T09:43:19Z</time>
      </trkpt>
      <trkpt lat="43.86618" lon="6.62554">
        <ele>1334.7</ele>
        <time>2021-09-18T09:43:20Z</time>
      </trkpt>
      <trkpt lat="43.86618" lon="6.62561">
        <ele>1335</ele>
        <time>2021-09-18T09:43:22Z</time>
      </trkpt>
      <trkpt lat="43.86617" lon="6.62565">
        <ele>1335.1</ele>
        <time>2021-09-18T09:43:23Z</time>
      </trkpt>
      <trkpt lat="43.86616" lon="6.62569">
        <ele>1335.2</ele>
        <time>2021-09-18T09:43:24Z</time>
      </trkpt>
      <trkpt lat="43.86615" lon="6.62573">
        <ele>1335.3</ele>
        <time>2021-09-18T09:43:25Z</time>
      </trkpt>
      <trkpt lat="43.86614" lon="6.62577">
        <ele>1335.4</ele>
        <time>2021-09-18T09:43:26Z</time>
      </trkpt>
      <trkpt lat="43.86613" lon="6.62581">
        <ele>1335.6</ele>
        <time>2021-09-18T09:43:27Z</time>
      </trkpt>
      <trkpt lat="43.86612" lon="6.62584">
        <ele>1335.7</ele>
        <time>2021-09-18T09:43:28Z</time>
      </trkpt>
      <trkpt lat="43.86611" lon="6.62588">
        <ele>1335.8</ele>
        <time>2021-09-18T09:43:29Z</time>
      </trkpt>
      <trkpt lat="43.8661" lon="6.62595">
        <ele>1336</ele>
        <time>2021-09-18T09:43:31Z</time>
      </trkpt>
      <trkpt lat="43.86608" lon="6.62601">
        <ele>1336.3</ele>
        <time>2021-09-18T09:43:33Z</time>
      </trkpt>
      <trkpt lat="43.86606" lon="6.62605">
        <ele>1336.4</ele>
        <time>2021-09-18T09:43:34Z</time>
      </trkpt>
      <trkpt lat="43.86604" lon="6.6261">
        <ele>1336.6</ele>
        <time>2021-09-18T09:43:35Z</time>
      </trkpt>
      <trkpt lat="43.86603" lon="6.62612">
        <ele>1336.7</ele>
        <time>2021-09-18T09:43:36Z</time>
      </trkpt>
      <trkpt lat="43.866" lon="6.62621">
        <ele>1337.1</ele>
        <time>2021-09-18T09:43:40Z</time>
      </trkpt>
      <trkpt lat="43.86598" lon="6.62626">
        <ele>1337.3</ele>
        <time>2021-09-18T09:43:42Z</time>
      </trkpt>
      <trkpt lat="43.86597" lon="6.62632">
        <ele>1337.5</ele>
        <time>2021-09-18T09:43:44Z</time>
      </trkpt>
      <trkpt lat="43.86596" lon="6.62635">
        <ele>1337.6</ele>
        <time>2021-09-18T09:43:45Z</time>
      </trkpt>
      <trkpt lat="43.86595" lon="6.62641">
        <ele>1337.8</ele>
        <time>2021-09-18T09:43:46Z</time>
      </trkpt>
      <trkpt lat="43.86595" lon="6.62646">
        <ele>1338.1</ele>
        <time>2021-09-18T09:43:48Z</time>
      </trkpt>
      <trkpt lat="43.86595" lon="6.6265">
        <ele>1338.2</ele>
        <time>2021-09-18T09:43:49Z</time>
      </trkpt>
      <trkpt lat="43.86595" lon="6.62656">
        <ele>1338.4</ele>
        <time>2021-09-18T09:43:51Z</time>
      </trkpt>
      <trkpt lat="43.86595" lon="6.6266">
        <ele>1338.6</ele>
        <time>2021-09-18T09:43:52Z</time>
      </trkpt>
      <trkpt lat="43.86594" lon="6.62666">
        <ele>1338.8</ele>
        <time>2021-09-18T09:43:54Z</time>
      </trkpt>
      <trkpt lat="43.86594" lon="6.62672">
        <ele>1339</ele>
        <time>2021-09-18T09:43:55Z</time>
      </trkpt>
      <trkpt lat="43.86593" lon="6.62676">
        <ele>1339.2</ele>
        <time>2021-09-18T09:43:56Z</time>
      </trkpt>
      <trkpt lat="43.86592" lon="6.6268">
        <ele>1339.4</ele>
        <time>2021-09-18T09:43:58Z</time>
      </trkpt>
      <trkpt lat="43.86591" lon="6.62685">
        <ele>1339.5</ele>
        <time>2021-09-18T09:43:59Z</time>
      </trkpt>
      <trkpt lat="43.8659" lon="6.6269">
        <ele>1339.8</ele>
        <time>2021-09-18T09:44:01Z</time>
      </trkpt>
      <trkpt lat="43.86589" lon="6.62694">
        <ele>1339.9</ele>
        <time>2021-09-18T09:44:02Z</time>
      </trkpt>
      <trkpt lat="43.86588" lon="6.627">
        <ele>1340.1</ele>
        <time>2021-09-18T09:44:04Z</time>
      </trkpt>
      <trkpt lat="43.86588" lon="6.62706">
        <ele>1340.3</ele>
        <time>2021-09-18T09:44:06Z</time>
      </trkpt>
      <trkpt lat="43.86587" lon="6.62709">
        <ele>1340.5</ele>
        <time>2021-09-18T09:44:07Z</time>
      </trkpt>
      <trkpt lat="43.86586" lon="6.62714">
        <ele>1340.6</ele>
        <time>2021-09-18T09:44:08Z</time>
      </trkpt>
      <trkpt lat="43.86585" lon="6.62719">
        <ele>1340.8</ele>
        <time>2021-09-18T09:44:10Z</time>
      </trkpt>
      <trkpt lat="43.86585" lon="6.62723">
        <ele>1340.9</ele>
        <time>2021-09-18T09:44:11Z</time>
      </trkpt>
      <trkpt lat="43.86584" lon="6.62728">
        <ele>1341.1</ele>
        <time>2021-09-18T09:44:13Z</time>
      </trkpt>
      <trkpt lat="43.86583" lon="6.62733">
        <ele>1341.3</ele>
        <time>2021-09-18T09:44:15Z</time>
      </trkpt>
      <trkpt lat="43.86583" lon="6.62739">
        <ele>1341.5</ele>
        <time>2021-09-18T09:44:16Z</time>
      </trkpt>
      <trkpt lat="43.86582" lon="6.62741">
        <ele>1341.6</ele>
        <time>2021-09-18T09:44:17Z</time>
      </trkpt>
      <trkpt lat="43.86581" lon="6.62746">
        <ele>1341.8</ele>
        <time>2021-09-18T09:44:19Z</time>
      </trkpt>
      <trkpt lat="43.8658" lon="6.62752">
        <ele>1342</ele>
        <time>2021-09-18T09:44:21Z</time>
      </trkpt>
      <trkpt lat="43.86579" lon="6.62757">
        <ele>1342.2</ele>
        <time>2021-09-18T09:44:22Z</time>
      </trkpt>
      <trkpt lat="43.86578" lon="6.62761">
        <ele>1342.3</ele>
        <time>2021-09-18T09:44:24Z</time>
      </trkpt>
      <trkpt lat="43.86578" lon="6.62765">
        <ele>1342.5</ele>
        <time>2021-09-18T09:44:25Z</time>
      </trkpt>
      <trkpt lat="43.86577" lon="6.62771">
        <ele>1342.6</ele>
        <time>2021-09-18T09:44:26Z</time>
      </trkpt>
      <trkpt lat="43.86577" lon="6.62775">
        <ele>1342.8</ele>
        <time>2021-09-18T09:44:28Z</time>
      </trkpt>
      <trkpt lat="43.86577" lon="6.62778">
        <ele>1342.9</ele>
        <time>2021-09-18T09:44:29Z</time>
      </trkpt>
      <trkpt lat="43.86576" lon="6.62785">
        <ele>1343.1</ele>
        <time>2021-09-18T09:44:31Z</time>
      </trkpt>
      <trkpt lat="43.86574" lon="6.6279">
        <ele>1343.3</ele>
        <time>2021-09-18T09:44:33Z</time>
      </trkpt>
      <trkpt lat="43.86573" lon="6.62796">
        <ele>1343.5</ele>
        <time>2021-09-18T09:44:35Z</time>
      </trkpt>
      <trkpt lat="43.86572" lon="6.62801">
        <ele>1343.6</ele>
        <time>2021-09-18T09:44:36Z</time>
      </trkpt>
      <trkpt lat="43.86571" lon="6.62804">
        <ele>1343.8</ele>
        <time>2021-09-18T09:44:37Z</time>
      </trkpt>
      <trkpt lat="43.8657" lon="6.6281">
        <ele>1344</ele>
        <time>2021-09-18T09:44:39Z</time>
      </trkpt>
      <trkpt lat="43.86569" lon="6.62815">
        <ele>1344.2</ele>
        <time>2021-09-18T09:44:40Z</time>
      </trkpt>
      <trkpt lat="43.86568" lon="6.62818">
        <ele>1344.3</ele>
        <time>2021-09-18T09:44:41Z</time>
      </trkpt>
      <trkpt lat="43.86566" lon="6.62823">
        <ele>1344.6</ele>
        <time>2021-09-18T09:44:43Z</time>
      </trkpt>
      <trkpt lat="43.86564" lon="6.62828">
        <ele>1344.8</ele>
        <time>2021-09-18T09:44:45Z</time>
      </trkpt>
      <trkpt lat="43.86565" lon="6.62833">
        <ele>1345</ele>
        <time>2021-09-18T09:44:46Z</time>
      </trkpt>
      <trkpt lat="43.86565" lon="6.62834">
        <ele>1345.1</ele>
        <time>2021-09-18T09:44:47Z</time>
      </trkpt>
      <trkpt lat="43.86565" lon="6.62839">
        <ele>1345.3</ele>
        <time>2021-09-18T09:44:48Z</time>
      </trkpt>
      <trkpt lat="43.86566" lon="6.6284">
        <ele>1345.4</ele>
        <time>2021-09-18T09:44:49Z</time>
      </trkpt>
      <trkpt lat="43.86565" lon="6.62845">
        <ele>1345.6</ele>
        <time>2021-09-18T09:44:50Z</time>
      </trkpt>
      <trkpt lat="43.86564" lon="6.62851">
        <ele>1345.9</ele>
        <time>2021-09-18T09:44:52Z</time>
      </trkpt>
      <trkpt lat="43.86563" lon="6.62854">
        <ele>1346</ele>
        <time>2021-09-18T09:44:53Z</time>
      </trkpt>
      <trkpt lat="43.86563" lon="6.62857">
        <ele>1346.2</ele>
        <time>2021-09-18T09:44:54Z</time>
      </trkpt>
      <trkpt lat="43.86563" lon="6.62861">
        <ele>1346.4</ele>
        <time>2021-09-18T09:44:56Z</time>
      </trkpt>
      <trkpt lat="43.86563" lon="6.62865">
        <ele>1346.5</ele>
        <time>2021-09-18T09:44:57Z</time>
      </trkpt>
      <trkpt lat="43.86562" lon="6.62869">
        <ele>1346.7</ele>
        <time>2021-09-18T09:44:59Z</time>
      </trkpt>
      <trkpt lat="43.86562" lon="6.62873">
        <ele>1346.9</ele>
        <time>2021-09-18T09:45:01Z</time>
      </trkpt>
      <trkpt lat="43.86561" lon="6.62877">
        <ele>1347.1</ele>
        <time>2021-09-18T09:45:02Z</time>
      </trkpt>
      <trkpt lat="43.86561" lon="6.62882">
        <ele>1347.3</ele>
        <time>2021-09-18T09:45:04Z</time>
      </trkpt>
      <trkpt lat="43.86561" lon="6.62883">
        <ele>1347.4</ele>
        <time>2021-09-18T09:45:05Z</time>
      </trkpt>
      <trkpt lat="43.86561" lon="6.62886">
        <ele>1347.6</ele>
        <time>2021-09-18T09:45:06Z</time>
      </trkpt>
      <trkpt lat="43.8656" lon="6.62891">
        <ele>1347.8</ele>
        <time>2021-09-18T09:45:08Z</time>
      </trkpt>
      <trkpt lat="43.86558" lon="6.62895">
        <ele>1348</ele>
        <time>2021-09-18T09:45:09Z</time>
      </trkpt>
      <trkpt lat="43.86558" lon="6.62897">
        <ele>1348.1</ele>
        <time>2021-09-18T09:45:10Z</time>
      </trkpt>
      <trkpt lat="43.86556" lon="6.62902">
        <ele>1348.4</ele>
        <time>2021-09-18T09:45:12Z</time>
      </trkpt>
      <trkpt lat="43.86554" lon="6.62907">
        <ele>1348.7</ele>
        <time>2021-09-18T09:45:14Z</time>
      </trkpt>
      <trkpt lat="43.86554" lon="6.62912">
        <ele>1348.9</ele>
        <time>2021-09-18T09:45:16Z</time>
      </trkpt>
      <trkpt lat="43.86553" lon="6.62916">
        <ele>1349.1</ele>
        <time>2021-09-18T09:45:17Z</time>
      </trkpt>
      <trkpt lat="43.86552" lon="6.6292">
        <ele>1349.3</ele>
        <time>2021-09-18T09:45:18Z</time>
      </trkpt>
      <trkpt lat="43.86552" lon="6.62925">
        <ele>1349.5</ele>
        <time>2021-09-18T09:45:20Z</time>
      </trkpt>
      <trkpt lat="43.86552" lon="6.62928">
        <ele>1349.7</ele>
        <time>2021-09-18T09:45:21Z</time>
      </trkpt>
      <trkpt lat="43.86552" lon="6.62933">
        <ele>1350</ele>
        <time>2021-09-18T09:45:23Z</time>
      </trkpt>
      <trkpt lat="43.86551" lon="6.62939">
        <ele>1350.2</ele>
        <time>2021-09-18T09:45:25Z</time>
      </trkpt>
      <trkpt lat="43.86549" lon="6.62944">
        <ele>1350.5</ele>
        <time>2021-09-18T09:45:26Z</time>
      </trkpt>
      <trkpt lat="43.86549" lon="6.62946">
        <ele>1350.6</ele>
        <time>2021-09-18T09:45:27Z</time>
      </trkpt>
      <trkpt lat="43.86549" lon="6.6295">
        <ele>1350.8</ele>
        <time>2021-09-18T09:45:29Z</time>
      </trkpt>
      <trkpt lat="43.86548" lon="6.62951">
        <ele>1350.9</ele>
        <time>2021-09-18T09:45:30Z</time>
      </trkpt>
      <trkpt lat="43.86547" lon="6.62954">
        <ele>1351.1</ele>
        <time>2021-09-18T09:45:32Z</time>
      </trkpt>
      <trkpt lat="43.86545" lon="6.62958">
        <ele>1351.3</ele>
        <time>2021-09-18T09:45:34Z</time>
      </trkpt>
      <trkpt lat="43.86542" lon="6.62962">
        <ele>1351.6</ele>
        <time>2021-09-18T09:45:36Z</time>
      </trkpt>
      <trkpt lat="43.86539" lon="6.62966">
        <ele>1351.9</ele>
        <time>2021-09-18T09:45:38Z</time>
      </trkpt>
      <trkpt lat="43.86538" lon="6.62972">
        <ele>1352.2</ele>
        <time>2021-09-18T09:45:40Z</time>
      </trkpt>
      <trkpt lat="43.86537" lon="6.62976">
        <ele>1352.5</ele>
        <time>2021-09-18T09:45:41Z</time>
      </trkpt>
      <trkpt lat="43.86537" lon="6.62981">
        <ele>1352.7</ele>
        <time>2021-09-18T09:45:42Z</time>
      </trkpt>
      <trkpt lat="43.86537" lon="6.62986">
        <ele>1352.9</ele>
        <time>2021-09-18T09:45:44Z</time>
      </trkpt>
      <trkpt lat="43.86537" lon="6.62989">
        <ele>1353.1</ele>
        <time>2021-09-18T09:45:45Z</time>
      </trkpt>
      <trkpt lat="43.86536" lon="6.62995">
        <ele>1353.4</ele>
        <time>2021-09-18T09:45:47Z</time>
      </trkpt>
      <trkpt lat="43.86535" lon="6.63001">
        <ele>1353.7</ele>
        <time>2021-09-18T09:45:49Z</time>
      </trkpt>
      <trkpt lat="43.86534" lon="6.63006">
        <ele>1354</ele>
        <time>2021-09-18T09:45:51Z</time>
      </trkpt>
      <trkpt lat="43.86533" lon="6.63011">
        <ele>1354.3</ele>
        <time>2021-09-18T09:45:52Z</time>
      </trkpt>
      <trkpt lat="43.86533" lon="6.63013">
        <ele>1354.3</ele>
        <time>2021-09-18T09:45:53Z</time>
      </trkpt>
      <trkpt lat="43.86533" lon="6.63016">
        <ele>1354.5</ele>
        <time>2021-09-18T09:45:54Z</time>
      </trkpt>
      <trkpt lat="43.86533" lon="6.63021">
        <ele>1354.7</ele>
        <time>2021-09-18T09:45:56Z</time>
      </trkpt>
      <trkpt lat="43.86532" lon="6.63026">
        <ele>1355</ele>
        <time>2021-09-18T09:45:58Z</time>
      </trkpt>
      <trkpt lat="43.86532" lon="6.63032">
        <ele>1355.3</ele>
        <time>2021-09-18T09:45:59Z</time>
      </trkpt>
      <trkpt lat="43.86531" lon="6.63036">
        <ele>1355.5</ele>
        <time>2021-09-18T09:46:01Z</time>
      </trkpt>
      <trkpt lat="43.86531" lon="6.63041">
        <ele>1355.7</ele>
        <time>2021-09-18T09:46:02Z</time>
      </trkpt>
      <trkpt lat="43.8653" lon="6.63046">
        <ele>1356</ele>
        <time>2021-09-18T09:46:03Z</time>
      </trkpt>
      <trkpt lat="43.86529" lon="6.6305">
        <ele>1356.2</ele>
        <time>2021-09-18T09:46:05Z</time>
      </trkpt>
      <trkpt lat="43.86527" lon="6.63056">
        <ele>1356.5</ele>
        <time>2021-09-18T09:46:06Z</time>
      </trkpt>
      <trkpt lat="43.86526" lon="6.63061">
        <ele>1356.8</ele>
        <time>2021-09-18T09:46:08Z</time>
      </trkpt>
      <trkpt lat="43.86526" lon="6.63064">
        <ele>1356.9</ele>
        <time>2021-09-18T09:46:09Z</time>
      </trkpt>
      <trkpt lat="43.86525" lon="6.63071">
        <ele>1357.2</ele>
        <time>2021-09-18T09:46:11Z</time>
      </trkpt>
      <trkpt lat="43.86524" lon="6.63077">
        <ele>1357.6</ele>
        <time>2021-09-18T09:46:13Z</time>
      </trkpt>
      <trkpt lat="43.86522" lon="6.63082">
        <ele>1357.8</ele>
        <time>2021-09-18T09:46:14Z</time>
      </trkpt>
      <trkpt lat="43.86521" lon="6.63088">
        <ele>1358.1</ele>
        <time>2021-09-18T09:46:16Z</time>
      </trkpt>
      <trkpt lat="43.86521" lon="6.6309">
        <ele>1358.2</ele>
        <time>2021-09-18T09:46:17Z</time>
      </trkpt>
      <trkpt lat="43.86521" lon="6.63092">
        <ele>1358.4</ele>
        <time>2021-09-18T09:46:18Z</time>
      </trkpt>
      <trkpt lat="43.8652" lon="6.63096">
        <ele>1358.6</ele>
        <time>2021-09-18T09:46:20Z</time>
      </trkpt>
      <trkpt lat="43.86519" lon="6.63102">
        <ele>1358.9</ele>
        <time>2021-09-18T09:46:22Z</time>
      </trkpt>
      <trkpt lat="43.86519" lon="6.63107">
        <ele>1359.1</ele>
        <time>2021-09-18T09:46:24Z</time>
      </trkpt>
      <trkpt lat="43.86518" lon="6.63112">
        <ele>1359.4</ele>
        <time>2021-09-18T09:46:25Z</time>
      </trkpt>
      <trkpt lat="43.86518" lon="6.63114">
        <ele>1359.5</ele>
        <time>2021-09-18T09:46:26Z</time>
      </trkpt>
      <trkpt lat="43.86518" lon="6.63119">
        <ele>1359.8</ele>
        <time>2021-09-18T09:46:27Z</time>
      </trkpt>
      <trkpt lat="43.86518" lon="6.63122">
        <ele>1360</ele>
        <time>2021-09-18T09:46:29Z</time>
      </trkpt>
      <trkpt lat="43.86518" lon="6.63127">
        <ele>1360.2</ele>
        <time>2021-09-18T09:46:30Z</time>
      </trkpt>
      <trkpt lat="43.86518" lon="6.63132">
        <ele>1360.5</ele>
        <time>2021-09-18T09:46:32Z</time>
      </trkpt>
      <trkpt lat="43.86518" lon="6.63134">
        <ele>1360.6</ele>
        <time>2021-09-18T09:46:33Z</time>
      </trkpt>
      <trkpt lat="43.86518" lon="6.63139">
        <ele>1360.8</ele>
        <time>2021-09-18T09:46:35Z</time>
      </trkpt>
      <trkpt lat="43.86518" lon="6.6314">
        <ele>1360.8</ele>
        <time>2021-09-18T09:46:36Z</time>
      </trkpt>
      <trkpt lat="43.86518" lon="6.63142">
        <ele>1361</ele>
        <time>2021-09-18T09:46:37Z</time>
      </trkpt>
      <trkpt lat="43.86519" lon="6.63147">
        <ele>1361.2</ele>
        <time>2021-09-18T09:46:39Z</time>
      </trkpt>
      <trkpt lat="43.86519" lon="6.63149">
        <ele>1361.3</ele>
        <time>2021-09-18T09:46:40Z</time>
      </trkpt>
      <trkpt lat="43.8652" lon="6.63151">
        <ele>1361.3</ele>
        <time>2021-09-18T09:46:41Z</time>
      </trkpt>
      <trkpt lat="43.8652" lon="6.63154">
        <ele>1361.3</ele>
        <time>2021-09-18T09:46:42Z</time>
      </trkpt>
      <trkpt lat="43.8652" lon="6.63156">
        <ele>1361.4</ele>
        <time>2021-09-18T09:46:44Z</time>
      </trkpt>
      <trkpt lat="43.8652" lon="6.63158">
        <ele>1361.4</ele>
        <time>2021-09-18T09:46:45Z</time>
      </trkpt>
      <trkpt lat="43.86519" lon="6.63161">
        <ele>1361.5</ele>
        <time>2021-09-18T09:46:47Z</time>
      </trkpt>
      <trkpt lat="43.86519" lon="6.63163">
        <ele>1361.5</ele>
        <time>2021-09-18T09:46:48Z</time>
      </trkpt>
      <trkpt lat="43.86519" lon="6.63165">
        <ele>1361.5</ele>
        <time>2021-09-18T09:46:49Z</time>
      </trkpt>
      <trkpt lat="43.8652" lon="6.63169">
        <ele>1361.6</ele>
        <time>2021-09-18T09:46:50Z</time>
      </trkpt>
      <trkpt lat="43.86521" lon="6.63171">
        <ele>1361.6</ele>
        <time>2021-09-18T09:46:52Z</time>
      </trkpt>
      <trkpt lat="43.86522" lon="6.63174">
        <ele>1361.6</ele>
        <time>2021-09-18T09:46:53Z</time>
      </trkpt>
      <trkpt lat="43.86523" lon="6.63176">
        <ele>1361.7</ele>
        <time>2021-09-18T09:46:55Z</time>
      </trkpt>
      <trkpt lat="43.86524" lon="6.63178">
        <ele>1361.7</ele>
        <time>2021-09-18T09:46:56Z</time>
      </trkpt>
      <trkpt lat="43.86525" lon="6.6318">
        <ele>1361.7</ele>
        <time>2021-09-18T09:46:57Z</time>
      </trkpt>
      <trkpt lat="43.86528" lon="6.63185">
        <ele>1361.8</ele>
        <time>2021-09-18T09:46:59Z</time>
      </trkpt>
      <trkpt lat="43.8653" lon="6.63188">
        <ele>1361.8</ele>
        <time>2021-09-18T09:47:00Z</time>
      </trkpt>
      <trkpt lat="43.8653" lon="6.63189">
        <ele>1361.9</ele>
        <time>2021-09-18T09:47:01Z</time>
      </trkpt>
      <trkpt lat="43.86532" lon="6.63189">
        <ele>1361.9</ele>
        <time>2021-09-18T09:47:03Z</time>
      </trkpt>
      <trkpt lat="43.86532" lon="6.63187">
        <ele>1361.9</ele>
        <time>2021-09-18T09:47:05Z</time>
      </trkpt>
      <trkpt lat="43.86532" lon="6.63187">
        <ele>1361.9</ele>
        <time>2021-09-18T09:47:07Z</time>
      </trkpt>
      <trkpt lat="43.86532" lon="6.63187">
        <ele>1361.9</ele>
        <time>2021-09-18T09:47:09Z</time>
      </trkpt>
      <trkpt lat="43.86532" lon="6.63187">
        <ele>1361.9</ele>
        <time>2021-09-18T09:47:10Z</time>
      </trkpt>
      <trkpt lat="43.86531" lon="6.63186">
        <ele>1361.9</ele>
        <time>2021-09-18T09:47:12Z</time>
      </trkpt>
      <trkpt lat="43.86531" lon="6.63186">
        <ele>1361.9</ele>
        <time>2021-09-18T09:47:14Z</time>
      </trkpt>
      <trkpt lat="43.86531" lon="6.63186">
        <ele>1361.9</ele>
        <time>2021-09-18T09:47:15Z</time>
      </trkpt>
      <trkpt lat="43.86531" lon="6.63187">
        <ele>1361.9</ele>
        <time>2021-09-18T09:47:17Z</time>
      </trkpt>
      <trkpt lat="43.8653" lon="6.63189">
        <ele>1361.9</ele>
        <time>2021-09-18T09:47:19Z</time>
      </trkpt>
      <trkpt lat="43.8653" lon="6.63202">
        <ele>1362</ele>
        <time>2021-09-18T09:54:12Z</time>
      </trkpt>
      <trkpt lat="43.86528" lon="6.63201">
        <ele>1362</ele>
        <time>2021-09-18T09:54:13Z</time>
      </trkpt>
      <trkpt lat="43.86524" lon="6.63199">
        <ele>1362</ele>
        <time>2021-09-18T09:54:14Z</time>
      </trkpt>
      <trkpt lat="43.86522" lon="6.63198">
        <ele>1362.1</ele>
        <time>2021-09-18T09:54:15Z</time>
      </trkpt>
      <trkpt lat="43.86519" lon="6.63196">
        <ele>1362.1</ele>
        <time>2021-09-18T09:54:17Z</time>
      </trkpt>
      <trkpt lat="43.86518" lon="6.63195">
        <ele>1362.1</ele>
        <time>2021-09-18T09:54:18Z</time>
      </trkpt>
      <trkpt lat="43.86515" lon="6.63192">
        <ele>1362.1</ele>
        <time>2021-09-18T09:54:19Z</time>
      </trkpt>
      <trkpt lat="43.86514" lon="6.63191">
        <ele>1362.1</ele>
        <time>2021-09-18T09:54:20Z</time>
      </trkpt>
      <trkpt lat="43.86514" lon="6.63188">
        <ele>1362.1</ele>
        <time>2021-09-18T09:54:22Z</time>
      </trkpt>
      <trkpt lat="43.86513" lon="6.63185">
        <ele>1362.2</ele>
        <time>2021-09-18T09:54:24Z</time>
      </trkpt>
      <trkpt lat="43.86515" lon="6.63181">
        <ele>1362.2</ele>
        <time>2021-09-18T09:54:26Z</time>
      </trkpt>
      <trkpt lat="43.86517" lon="6.6318">
        <ele>1362.2</ele>
        <time>2021-09-18T09:54:27Z</time>
      </trkpt>
      <trkpt lat="43.86517" lon="6.6318">
        <ele>1362.2</ele>
        <time>2021-09-18T09:54:28Z</time>
      </trkpt>
      <trkpt lat="43.86518" lon="6.6318">
        <ele>1362.2</ele>
        <time>2021-09-18T09:54:30Z</time>
      </trkpt>
      <trkpt lat="43.86518" lon="6.63181">
        <ele>1362.2</ele>
        <time>2021-09-18T09:54:31Z</time>
      </trkpt>
      <trkpt lat="43.86518" lon="6.63183">
        <ele>1362.2</ele>
        <time>2021-09-18T09:54:32Z</time>
      </trkpt>
      <trkpt lat="43.86518" lon="6.63184">
        <ele>1362.2</ele>
        <time>2021-09-18T09:54:34Z</time>
      </trkpt>
      <trkpt lat="43.86518" lon="6.63185">
        <ele>1362.2</ele>
        <time>2021-09-18T09:54:35Z</time>
      </trkpt>
      <trkpt lat="43.86519" lon="6.63186">
        <ele>1362.2</ele>
        <time>2021-09-18T09:54:36Z</time>
      </trkpt>
      <trkpt lat="43.86519" lon="6.63187">
        <ele>1362.2</ele>
        <time>2021-09-18T09:54:37Z</time>
      </trkpt>
      <trkpt lat="43.86519" lon="6.63188">
        <ele>1362.2</ele>
        <time>2021-09-18T09:54:39Z</time>
      </trkpt>
      <trkpt lat="43.86519" lon="6.63188">
        <ele>1362.2</ele>
        <time>2021-09-18T09:54:40Z</time>
      </trkpt>
      <trkpt lat="43.8652" lon="6.63189">
        <ele>1362.2</ele>
        <time>2021-09-18T09:54:41Z</time>
      </trkpt>
      <trkpt lat="43.86521" lon="6.63189">
        <ele>1362.2</ele>
        <time>2021-09-18T09:54:43Z</time>
      </trkpt>
      <trkpt lat="43.86521" lon="6.63189">
        <ele>1362.3</ele>
        <time>2021-09-18T09:54:44Z</time>
      </trkpt>
      <trkpt lat="43.8651" lon="6.63211">
        <ele>1363.3</ele>
        <time>2021-09-18T09:55:31Z</time>
      </trkpt>
      <trkpt lat="43.86509" lon="6.63213">
        <ele>1363.3</ele>
        <time>2021-09-18T09:55:32Z</time>
      </trkpt>
      <trkpt lat="43.86508" lon="6.63214">
        <ele>1363.2</ele>
        <time>2021-09-18T09:55:33Z</time>
      </trkpt>
      <trkpt lat="43.86509" lon="6.63212">
        <ele>1363.2</ele>
        <time>2021-09-18T09:55:35Z</time>
      </trkpt>
      <trkpt lat="43.8651" lon="6.6321">
        <ele>1363.1</ele>
        <time>2021-09-18T09:55:37Z</time>
      </trkpt>
      <trkpt lat="43.86512" lon="6.63207">
        <ele>1363.1</ele>
        <time>2021-09-18T09:55:38Z</time>
      </trkpt>
      <trkpt lat="43.86513" lon="6.63204">
        <ele>1363</ele>
        <time>2021-09-18T09:55:39Z</time>
      </trkpt>
      <trkpt lat="43.86514" lon="6.63201">
        <ele>1362.9</ele>
        <time>2021-09-18T09:55:41Z</time>
      </trkpt>
      <trkpt lat="43.86516" lon="6.63199">
        <ele>1362.8</ele>
        <time>2021-09-18T09:55:43Z</time>
      </trkpt>
      <trkpt lat="43.86517" lon="6.63196">
        <ele>1362.7</ele>
        <time>2021-09-18T09:55:45Z</time>
      </trkpt>
      <trkpt lat="43.86519" lon="6.63193">
        <ele>1362.6</ele>
        <time>2021-09-18T09:57:44Z</time>
      </trkpt>
      <trkpt lat="43.8652" lon="6.63191">
        <ele>1362</ele>
        <time>2021-09-18T09:57:45Z</time>
      </trkpt>
      <trkpt lat="43.86521" lon="6.63189">
        <ele>1362</ele>
        <time>2021-09-18T09:57:46Z</time>
      </trkpt>
      <trkpt lat="43.86523" lon="6.63188">
        <ele>1362.1</ele>
        <time>2021-09-18T09:57:47Z</time>
      </trkpt>
      <trkpt lat="43.86525" lon="6.63187">
        <ele>1362.2</ele>
        <time>2021-09-18T09:57:48Z</time>
      </trkpt>
      <trkpt lat="43.86525" lon="6.63187">
        <ele>1362.2</ele>
        <time>2021-09-18T09:57:50Z</time>
      </trkpt>
      <trkpt lat="43.86526" lon="6.63185">
        <ele>1362.3</ele>
        <time>2021-09-18T09:57:52Z</time>
      </trkpt>
      <trkpt lat="43.86526" lon="6.63184">
        <ele>1362.3</ele>
        <time>2021-09-18T09:57:53Z</time>
      </trkpt>
      <trkpt lat="43.86526" lon="6.63183">
        <ele>1362.3</ele>
        <time>2021-09-18T09:57:54Z</time>
      </trkpt>
      <trkpt lat="43.86526" lon="6.63181">
        <ele>1362.4</ele>
        <time>2021-09-18T09:57:56Z</time>
      </trkpt>
      <trkpt lat="43.86526" lon="6.6318">
        <ele>1362.4</ele>
        <time>2021-09-18T09:57:58Z</time>
      </trkpt>
      <trkpt lat="43.86526" lon="6.6318">
        <ele>1362.4</ele>
        <time>2021-09-18T09:57:59Z</time>
      </trkpt>
      <trkpt lat="43.86527" lon="6.63179">
        <ele>1362.4</ele>
        <time>2021-09-18T09:58:01Z</time>
      </trkpt>
      <trkpt lat="43.86527" lon="6.63178">
        <ele>1362.5</ele>
        <time>2021-09-18T09:58:02Z</time>
      </trkpt>
      <trkpt lat="43.86527" lon="6.63178">
        <ele>1362.5</ele>
        <time>2021-09-18T09:58:03Z</time>
      </trkpt>
      <trkpt lat="43.86527" lon="6.63179">
        <ele>1362.5</ele>
        <time>2021-09-18T09:58:05Z</time>
      </trkpt>
      <trkpt lat="43.86527" lon="6.63179">
        <ele>1362.5</ele>
        <time>2021-09-18T09:58:07Z</time>
      </trkpt>
      <trkpt lat="43.86527" lon="6.632">
        <ele>1363</ele>
        <time>2021-09-18T10:23:26Z</time>
      </trkpt>
      <trkpt lat="43.8653" lon="6.63207">
        <ele>1363.2</ele>
        <time>2021-09-18T10:23:28Z</time>
      </trkpt>
      <trkpt lat="43.86532" lon="6.63212">
        <ele>1363.3</ele>
        <time>2021-09-18T10:23:29Z</time>
      </trkpt>
      <trkpt lat="43.86533" lon="6.63215">
        <ele>1363.4</ele>
        <time>2021-09-18T10:23:30Z</time>
      </trkpt>
      <trkpt lat="43.86535" lon="6.63222">
        <ele>1363.5</ele>
        <time>2021-09-18T10:23:32Z</time>
      </trkpt>
      <trkpt lat="43.86536" lon="6.63225">
        <ele>1363.6</ele>
        <time>2021-09-18T10:23:34Z</time>
      </trkpt>
      <trkpt lat="43.86536" lon="6.63227">
        <ele>1363.6</ele>
        <time>2021-09-18T10:23:35Z</time>
      </trkpt>
      <trkpt lat="43.86537" lon="6.6323">
        <ele>1363.7</ele>
        <time>2021-09-18T10:23:36Z</time>
      </trkpt>
      <trkpt lat="43.86539" lon="6.63234">
        <ele>1363.8</ele>
        <time>2021-09-18T10:23:38Z</time>
      </trkpt>
      <trkpt lat="43.86541" lon="6.63238">
        <ele>1363.9</ele>
        <time>2021-09-18T10:23:39Z</time>
      </trkpt>
      <trkpt lat="43.86543" lon="6.63241">
        <ele>1364</ele>
        <time>2021-09-18T10:23:41Z</time>
      </trkpt>
      <trkpt lat="43.86545" lon="6.63247">
        <ele>1364.1</ele>
        <time>2021-09-18T10:23:43Z</time>
      </trkpt>
      <trkpt lat="43.86546" lon="6.63253">
        <ele>1364.3</ele>
        <time>2021-09-18T10:23:45Z</time>
      </trkpt>
      <trkpt lat="43.86548" lon="6.63257">
        <ele>1364.4</ele>
        <time>2021-09-18T10:23:46Z</time>
      </trkpt>
      <trkpt lat="43.86548" lon="6.63259">
        <ele>1364.5</ele>
        <time>2021-09-18T10:23:47Z</time>
      </trkpt>
      <trkpt lat="43.8655" lon="6.63262">
        <ele>1364.6</ele>
        <time>2021-09-18T10:23:48Z</time>
      </trkpt>
      <trkpt lat="43.86552" lon="6.63265">
        <ele>1364.7</ele>
        <time>2021-09-18T10:23:50Z</time>
      </trkpt>
      <trkpt lat="43.86554" lon="6.63269">
        <ele>1364.8</ele>
        <time>2021-09-18T10:23:52Z</time>
      </trkpt>
      <trkpt lat="43.86555" lon="6.63272">
        <ele>1364.9</ele>
        <time>2021-09-18T10:23:53Z</time>
      </trkpt>
      <trkpt lat="43.86557" lon="6.63277">
        <ele>1365</ele>
        <time>2021-09-18T10:23:55Z</time>
      </trkpt>
      <trkpt lat="43.8656" lon="6.6328">
        <ele>1365.1</ele>
        <time>2021-09-18T10:23:56Z</time>
      </trkpt>
      <trkpt lat="43.86562" lon="6.63285">
        <ele>1365.3</ele>
        <time>2021-09-18T10:23:58Z</time>
      </trkpt>
      <trkpt lat="43.86563" lon="6.63287">
        <ele>1365.4</ele>
        <time>2021-09-18T10:23:59Z</time>
      </trkpt>
      <trkpt lat="43.86564" lon="6.63288">
        <ele>1365.4</ele>
        <time>2021-09-18T10:24:00Z</time>
      </trkpt>
      <trkpt lat="43.86567" lon="6.63292">
        <ele>1365.6</ele>
        <time>2021-09-18T10:24:02Z</time>
      </trkpt>
      <trkpt lat="43.86569" lon="6.63297">
        <ele>1365.7</ele>
        <time>2021-09-18T10:24:04Z</time>
      </trkpt>
      <trkpt lat="43.8657" lon="6.63301">
        <ele>1365.8</ele>
        <time>2021-09-18T10:24:05Z</time>
      </trkpt>
      <trkpt lat="43.86572" lon="6.63304">
        <ele>1365.9</ele>
        <time>2021-09-18T10:24:07Z</time>
      </trkpt>
      <trkpt lat="43.86573" lon="6.63307">
        <ele>1366</ele>
        <time>2021-09-18T10:24:08Z</time>
      </trkpt>
      <trkpt lat="43.86574" lon="6.63311">
        <ele>1366.1</ele>
        <time>2021-09-18T10:24:10Z</time>
      </trkpt>
      <trkpt lat="43.86576" lon="6.63315">
        <ele>1366.2</ele>
        <time>2021-09-18T10:24:11Z</time>
      </trkpt>
      <trkpt lat="43.86576" lon="6.63317">
        <ele>1366.3</ele>
        <time>2021-09-18T10:24:12Z</time>
      </trkpt>
      <trkpt lat="43.86579" lon="6.63322">
        <ele>1366.5</ele>
        <time>2021-09-18T10:24:14Z</time>
      </trkpt>
      <trkpt lat="43.86581" lon="6.63326">
        <ele>1366.6</ele>
        <time>2021-09-18T10:24:15Z</time>
      </trkpt>
      <trkpt lat="43.86582" lon="6.63328">
        <ele>1366.7</ele>
        <time>2021-09-18T10:24:16Z</time>
      </trkpt>
      <trkpt lat="43.86584" lon="6.63333">
        <ele>1366.9</ele>
        <time>2021-09-18T10:24:18Z</time>
      </trkpt>
      <trkpt lat="43.86584" lon="6.63334">
        <ele>1366.9</ele>
        <time>2021-09-18T10:24:19Z</time>
      </trkpt>
      <trkpt lat="43.86585" lon="6.63336">
        <ele>1367</ele>
        <time>2021-09-18T10:24:20Z</time>
      </trkpt>
      <trkpt lat="43.86586" lon="6.63338">
        <ele>1367</ele>
        <time>2021-09-18T10:24:21Z</time>
      </trkpt>
      <trkpt lat="43.86588" lon="6.6334">
        <ele>1367.1</ele>
        <time>2021-09-18T10:24:22Z</time>
      </trkpt>
      <trkpt lat="43.86589" lon="6.63341">
        <ele>1367.2</ele>
        <time>2021-09-18T10:24:24Z</time>
      </trkpt>
      <trkpt lat="43.86589" lon="6.63343">
        <ele>1367.2</ele>
        <time>2021-09-18T10:24:25Z</time>
      </trkpt>
      <trkpt lat="43.8659" lon="6.63347">
        <ele>1367.4</ele>
        <time>2021-09-18T10:24:27Z</time>
      </trkpt>
      <trkpt lat="43.8659" lon="6.63348">
        <ele>1367.4</ele>
        <time>2021-09-18T10:24:28Z</time>
      </trkpt>
      <trkpt lat="43.8659" lon="6.6335">
        <ele>1367.5</ele>
        <time>2021-09-18T10:24:29Z</time>
      </trkpt>
      <trkpt lat="43.86592" lon="6.63354">
        <ele>1367.6</ele>
        <time>2021-09-18T10:24:31Z</time>
      </trkpt>
      <trkpt lat="43.86593" lon="6.63357">
        <ele>1367.8</ele>
        <time>2021-09-18T10:24:32Z</time>
      </trkpt>
      <trkpt lat="43.86593" lon="6.63359">
        <ele>1367.8</ele>
        <time>2021-09-18T10:24:33Z</time>
      </trkpt>
      <trkpt lat="43.86594" lon="6.63361">
        <ele>1367.9</ele>
        <time>2021-09-18T10:24:34Z</time>
      </trkpt>
      <trkpt lat="43.86596" lon="6.63365">
        <ele>1368.1</ele>
        <time>2021-09-18T10:24:36Z</time>
      </trkpt>
      <trkpt lat="43.86598" lon="6.63368">
        <ele>1368.2</ele>
        <time>2021-09-18T10:24:37Z</time>
      </trkpt>
      <trkpt lat="43.866" lon="6.63372">
        <ele>1368.4</ele>
        <time>2021-09-18T10:24:38Z</time>
      </trkpt>
      <trkpt lat="43.86601" lon="6.63373">
        <ele>1368.4</ele>
        <time>2021-09-18T10:24:39Z</time>
      </trkpt>
      <trkpt lat="43.86602" lon="6.63376">
        <ele>1368.5</ele>
        <time>2021-09-18T10:24:40Z</time>
      </trkpt>
      <trkpt lat="43.86603" lon="6.63379">
        <ele>1368.7</ele>
        <time>2021-09-18T10:24:42Z</time>
      </trkpt>
      <trkpt lat="43.86605" lon="6.63384">
        <ele>1368.9</ele>
        <time>2021-09-18T10:24:43Z</time>
      </trkpt>
      <trkpt lat="43.86606" lon="6.63386">
        <ele>1369</ele>
        <time>2021-09-18T10:24:44Z</time>
      </trkpt>
      <trkpt lat="43.86607" lon="6.6339">
        <ele>1369.2</ele>
        <time>2021-09-18T10:24:46Z</time>
      </trkpt>
      <trkpt lat="43.86607" lon="6.63392">
        <ele>1369.3</ele>
        <time>2021-09-18T10:24:47Z</time>
      </trkpt>
      <trkpt lat="43.86608" lon="6.63397">
        <ele>1369.5</ele>
        <time>2021-09-18T10:24:49Z</time>
      </trkpt>
      <trkpt lat="43.86609" lon="6.634">
        <ele>1369.7</ele>
        <time>2021-09-18T10:24:50Z</time>
      </trkpt>
      <trkpt lat="43.8661" lon="6.63405">
        <ele>1369.9</ele>
        <time>2021-09-18T10:24:52Z</time>
      </trkpt>
      <trkpt lat="43.8661" lon="6.63409">
        <ele>1370.1</ele>
        <time>2021-09-18T10:24:53Z</time>
      </trkpt>
      <trkpt lat="43.86611" lon="6.63411">
        <ele>1370.2</ele>
        <time>2021-09-18T10:24:54Z</time>
      </trkpt>
      <trkpt lat="43.86611" lon="6.63414">
        <ele>1370.4</ele>
        <time>2021-09-18T10:24:56Z</time>
      </trkpt>
      <trkpt lat="43.86612" lon="6.63419">
        <ele>1370.6</ele>
        <time>2021-09-18T10:24:58Z</time>
      </trkpt>
      <trkpt lat="43.86612" lon="6.6342">
        <ele>1370.7</ele>
        <time>2021-09-18T10:24:59Z</time>
      </trkpt>
      <trkpt lat="43.86613" lon="6.63424">
        <ele>1370.9</ele>
        <time>2021-09-18T10:25:01Z</time>
      </trkpt>
      <trkpt lat="43.86613" lon="6.63426">
        <ele>1371</ele>
        <time>2021-09-18T10:25:02Z</time>
      </trkpt>
      <trkpt lat="43.86614" lon="6.6343">
        <ele>1371.2</ele>
        <time>2021-09-18T10:25:04Z</time>
      </trkpt>
      <trkpt lat="43.86615" lon="6.63435">
        <ele>1371.4</ele>
        <time>2021-09-18T10:25:05Z</time>
      </trkpt>
      <trkpt lat="43.86616" lon="6.63437">
        <ele>1371.5</ele>
        <time>2021-09-18T10:25:06Z</time>
      </trkpt>
      <trkpt lat="43.86617" lon="6.63443">
        <ele>1371.8</ele>
        <time>2021-09-18T10:25:08Z</time>
      </trkpt>
      <trkpt lat="43.86617" lon="6.63446">
        <ele>1372</ele>
        <time>2021-09-18T10:25:10Z</time>
      </trkpt>
      <trkpt lat="43.86618" lon="6.63449">
        <ele>1372.1</ele>
        <time>2021-09-18T10:25:11Z</time>
      </trkpt>
      <trkpt lat="43.86618" lon="6.63451">
        <ele>1372.2</ele>
        <time>2021-09-18T10:25:12Z</time>
      </trkpt>
      <trkpt lat="43.8662" lon="6.63454">
        <ele>1372.3</ele>
        <time>2021-09-18T10:25:13Z</time>
      </trkpt>
      <trkpt lat="43.86622" lon="6.63459">
        <ele>1372.6</ele>
        <time>2021-09-18T10:25:15Z</time>
      </trkpt>
      <trkpt lat="43.86623" lon="6.63464">
        <ele>1372.8</ele>
        <time>2021-09-18T10:25:16Z</time>
      </trkpt>
      <trkpt lat="43.86624" lon="6.63465">
        <ele>1372.9</ele>
        <time>2021-09-18T10:25:17Z</time>
      </trkpt>
      <trkpt lat="43.86626" lon="6.6347">
        <ele>1373.1</ele>
        <time>2021-09-18T10:25:18Z</time>
      </trkpt>
      <trkpt lat="43.86629" lon="6.63474">
        <ele>1373.3</ele>
        <time>2021-09-18T10:25:20Z</time>
      </trkpt>
      <trkpt lat="43.86631" lon="6.63477">
        <ele>1373.6</ele>
        <time>2021-09-18T10:25:21Z</time>
      </trkpt>
      <trkpt lat="43.86632" lon="6.63479">
        <ele>1373.6</ele>
        <time>2021-09-18T10:25:22Z</time>
      </trkpt>
      <trkpt lat="43.86633" lon="6.63483">
        <ele>1373.8</ele>
        <time>2021-09-18T10:25:24Z</time>
      </trkpt>
      <trkpt lat="43.86634" lon="6.63485">
        <ele>1373.9</ele>
        <time>2021-09-18T10:25:25Z</time>
      </trkpt>
      <trkpt lat="43.86635" lon="6.6349">
        <ele>1374.1</ele>
        <time>2021-09-18T10:25:27Z</time>
      </trkpt>
      <trkpt lat="43.86636" lon="6.63496">
        <ele>1374.4</ele>
        <time>2021-09-18T10:25:28Z</time>
      </trkpt>
      <trkpt lat="43.86637" lon="6.63501">
        <ele>1374.6</ele>
        <time>2021-09-18T10:25:30Z</time>
      </trkpt>
      <trkpt lat="43.86639" lon="6.63506">
        <ele>1374.9</ele>
        <time>2021-09-18T10:25:31Z</time>
      </trkpt>
      <trkpt lat="43.86639" lon="6.6351">
        <ele>1375</ele>
        <time>2021-09-18T10:25:32Z</time>
      </trkpt>
      <trkpt lat="43.86641" lon="6.63515">
        <ele>1375.3</ele>
        <time>2021-09-18T10:25:34Z</time>
      </trkpt>
      <trkpt lat="43.86642" lon="6.63516">
        <ele>1375.3</ele>
        <time>2021-09-18T10:25:35Z</time>
      </trkpt>
      <trkpt lat="43.86642" lon="6.63518">
        <ele>1375.4</ele>
        <time>2021-09-18T10:25:36Z</time>
      </trkpt>
      <trkpt lat="43.86642" lon="6.6352">
        <ele>1375.5</ele>
        <time>2021-09-18T10:25:37Z</time>
      </trkpt>
      <trkpt lat="43.86641" lon="6.63523">
        <ele>1375.6</ele>
        <time>2021-09-18T10:25:39Z</time>
      </trkpt>
      <trkpt lat="43.8664" lon="6.63527">
        <ele>1375.8</ele>
        <time>2021-09-18T10:25:41Z</time>
      </trkpt>
      <trkpt lat="43.8664" lon="6.63533">
        <ele>1376.1</ele>
        <time>2021-09-18T10:25:43Z</time>
      </trkpt>
      <trkpt lat="43.86641" lon="6.63538">
        <ele>1376.3</ele>
        <time>2021-09-18T10:25:44Z</time>
      </trkpt>
      <trkpt lat="43.86643" lon="6.63543">
        <ele>1376.5</ele>
        <time>2021-09-18T10:25:46Z</time>
      </trkpt>
      <trkpt lat="43.86643" lon="6.63547">
        <ele>1376.7</ele>
        <time>2021-09-18T10:25:47Z</time>
      </trkpt>
      <trkpt lat="43.86644" lon="6.63552">
        <ele>1376.9</ele>
        <time>2021-09-18T10:25:49Z</time>
      </trkpt>
      <trkpt lat="43.86643" lon="6.63554">
        <ele>1377</ele>
        <time>2021-09-18T10:25:50Z</time>
      </trkpt>
      <trkpt lat="43.86643" lon="6.63556">
        <ele>1377.1</ele>
        <time>2021-09-18T10:25:51Z</time>
      </trkpt>
      <trkpt lat="43.86642" lon="6.63558">
        <ele>1377.2</ele>
        <time>2021-09-18T10:25:53Z</time>
      </trkpt>
      <trkpt lat="43.86643" lon="6.6356">
        <ele>1377.3</ele>
        <time>2021-09-18T10:25:55Z</time>
      </trkpt>
      <trkpt lat="43.86644" lon="6.63562">
        <ele>1377.4</ele>
        <time>2021-09-18T10:25:56Z</time>
      </trkpt>
      <trkpt lat="43.86645" lon="6.63564">
        <ele>1377.5</ele>
        <time>2021-09-18T10:25:58Z</time>
      </trkpt>
      <trkpt lat="43.86646" lon="6.63566">
        <ele>1377.7</ele>
        <time>2021-09-18T10:25:59Z</time>
      </trkpt>
      <trkpt lat="43.86647" lon="6.63569">
        <ele>1377.8</ele>
        <time>2021-09-18T10:26:01Z</time>
      </trkpt>
      <trkpt lat="43.86648" lon="6.63572">
        <ele>1377.9</ele>
        <time>2021-09-18T10:26:02Z</time>
      </trkpt>
      <trkpt lat="43.86649" lon="6.63576">
        <ele>1378.1</ele>
        <time>2021-09-18T10:26:04Z</time>
      </trkpt>
      <trkpt lat="43.86649" lon="6.63579">
        <ele>1378.3</ele>
        <time>2021-09-18T10:26:05Z</time>
      </trkpt>
      <trkpt lat="43.86649" lon="6.63583">
        <ele>1378.4</ele>
        <time>2021-09-18T10:26:07Z</time>
      </trkpt>
      <trkpt lat="43.86649" lon="6.63588">
        <ele>1378.7</ele>
        <time>2021-09-18T10:26:09Z</time>
      </trkpt>
      <trkpt lat="43.86649" lon="6.63593">
        <ele>1378.9</ele>
        <time>2021-09-18T10:26:10Z</time>
      </trkpt>
      <trkpt lat="43.86649" lon="6.63598">
        <ele>1379.1</ele>
        <time>2021-09-18T10:26:12Z</time>
      </trkpt>
      <trkpt lat="43.8665" lon="6.63603">
        <ele>1379.3</ele>
        <time>2021-09-18T10:26:13Z</time>
      </trkpt>
      <trkpt lat="43.86652" lon="6.6361">
        <ele>1379.7</ele>
        <time>2021-09-18T10:26:15Z</time>
      </trkpt>
      <trkpt lat="43.86653" lon="6.63612">
        <ele>1379.8</ele>
        <time>2021-09-18T10:26:16Z</time>
      </trkpt>
      <trkpt lat="43.86653" lon="6.63615">
        <ele>1379.9</ele>
        <time>2021-09-18T10:26:17Z</time>
      </trkpt>
      <trkpt lat="43.86655" lon="6.63619">
        <ele>1380.1</ele>
        <time>2021-09-18T10:26:18Z</time>
      </trkpt>
      <trkpt lat="43.86657" lon="6.63624">
        <ele>1380.4</ele>
        <time>2021-09-18T10:26:20Z</time>
      </trkpt>
      <trkpt lat="43.86657" lon="6.63626">
        <ele>1380.5</ele>
        <time>2021-09-18T10:26:21Z</time>
      </trkpt>
      <trkpt lat="43.86658" lon="6.63628">
        <ele>1380.6</ele>
        <time>2021-09-18T10:26:22Z</time>
      </trkpt>
      <trkpt lat="43.86658" lon="6.6363">
        <ele>1380.7</ele>
        <time>2021-09-18T10:26:23Z</time>
      </trkpt>
      <trkpt lat="43.86658" lon="6.63634">
        <ele>1380.9</ele>
        <time>2021-09-18T10:26:25Z</time>
      </trkpt>
      <trkpt lat="43.86658" lon="6.63639">
        <ele>1381.2</ele>
        <time>2021-09-18T10:26:26Z</time>
      </trkpt>
      <trkpt lat="43.86659" lon="6.6364">
        <ele>1381.2</ele>
        <time>2021-09-18T10:26:27Z</time>
      </trkpt>
      <trkpt lat="43.86659" lon="6.63645">
        <ele>1381.5</ele>
        <time>2021-09-18T10:26:28Z</time>
      </trkpt>
      <trkpt lat="43.86659" lon="6.63646">
        <ele>1381.5</ele>
        <time>2021-09-18T10:26:29Z</time>
      </trkpt>
      <trkpt lat="43.86659" lon="6.63649">
        <ele>1381.6</ele>
        <time>2021-09-18T10:26:30Z</time>
      </trkpt>
      <trkpt lat="43.86659" lon="6.63651">
        <ele>1381.8</ele>
        <time>2021-09-18T10:26:31Z</time>
      </trkpt>
      <trkpt lat="43.86659" lon="6.63656">
        <ele>1382</ele>
        <time>2021-09-18T10:26:33Z</time>
      </trkpt>
      <trkpt lat="43.86658" lon="6.63657">
        <ele>1382</ele>
        <time>2021-09-18T10:26:34Z</time>
      </trkpt>
      <trkpt lat="43.86658" lon="6.6366">
        <ele>1382.2</ele>
        <time>2021-09-18T10:26:35Z</time>
      </trkpt>
      <trkpt lat="43.86659" lon="6.63663">
        <ele>1382.4</ele>
        <time>2021-09-18T10:26:37Z</time>
      </trkpt>
      <trkpt lat="43.86659" lon="6.63666">
        <ele>1382.5</ele>
        <time>2021-09-18T10:26:38Z</time>
      </trkpt>
      <trkpt lat="43.86659" lon="6.63669">
        <ele>1382.7</ele>
        <time>2021-09-18T10:26:40Z</time>
      </trkpt>
      <trkpt lat="43.86659" lon="6.63673">
        <ele>1382.9</ele>
        <time>2021-09-18T10:26:41Z</time>
      </trkpt>
      <trkpt lat="43.8666" lon="6.63675">
        <ele>1383</ele>
        <time>2021-09-18T10:26:42Z</time>
      </trkpt>
      <trkpt lat="43.86659" lon="6.63679">
        <ele>1383.2</ele>
        <time>2021-09-18T10:26:43Z</time>
      </trkpt>
      <trkpt lat="43.86659" lon="6.63681">
        <ele>1383.3</ele>
        <time>2021-09-18T10:26:44Z</time>
      </trkpt>
      <trkpt lat="43.86659" lon="6.63685">
        <ele>1383.5</ele>
        <time>2021-09-18T10:26:46Z</time>
      </trkpt>
      <trkpt lat="43.86658" lon="6.63689">
        <ele>1383.7</ele>
        <time>2021-09-18T10:26:47Z</time>
      </trkpt>
      <trkpt lat="43.86657" lon="6.63694">
        <ele>1384</ele>
        <time>2021-09-18T10:26:49Z</time>
      </trkpt>
      <trkpt lat="43.86657" lon="6.63696">
        <ele>1384.1</ele>
        <time>2021-09-18T10:26:50Z</time>
      </trkpt>
      <trkpt lat="43.86657" lon="6.63698">
        <ele>1384.2</ele>
        <time>2021-09-18T10:26:51Z</time>
      </trkpt>
      <trkpt lat="43.86656" lon="6.63703">
        <ele>1384.5</ele>
        <time>2021-09-18T10:26:53Z</time>
      </trkpt>
      <trkpt lat="43.86656" lon="6.63704">
        <ele>1384.5</ele>
        <time>2021-09-18T10:26:54Z</time>
      </trkpt>
      <trkpt lat="43.86657" lon="6.63708">
        <ele>1384.8</ele>
        <time>2021-09-18T10:26:56Z</time>
      </trkpt>
      <trkpt lat="43.86657" lon="6.63709">
        <ele>1384.8</ele>
        <time>2021-09-18T10:26:57Z</time>
      </trkpt>
      <trkpt lat="43.86657" lon="6.63712">
        <ele>1385</ele>
        <time>2021-09-18T10:26:58Z</time>
      </trkpt>
      <trkpt lat="43.86658" lon="6.63716">
        <ele>1385.2</ele>
        <time>2021-09-18T10:27:00Z</time>
      </trkpt>
      <trkpt lat="43.8666" lon="6.63721">
        <ele>1385.5</ele>
        <time>2021-09-18T10:27:01Z</time>
      </trkpt>
      <trkpt lat="43.8666" lon="6.63727">
        <ele>1385.8</ele>
        <time>2021-09-18T10:27:03Z</time>
      </trkpt>
      <trkpt lat="43.86661" lon="6.6373">
        <ele>1386</ele>
        <time>2021-09-18T10:27:04Z</time>
      </trkpt>
      <trkpt lat="43.86662" lon="6.63736">
        <ele>1386.3</ele>
        <time>2021-09-18T10:27:06Z</time>
      </trkpt>
      <trkpt lat="43.86662" lon="6.63741">
        <ele>1386.6</ele>
        <time>2021-09-18T10:27:08Z</time>
      </trkpt>
      <trkpt lat="43.86662" lon="6.63745">
        <ele>1386.8</ele>
        <time>2021-09-18T10:27:10Z</time>
      </trkpt>
      <trkpt lat="43.86661" lon="6.63749">
        <ele>1387</ele>
        <time>2021-09-18T10:27:12Z</time>
      </trkpt>
      <trkpt lat="43.8666" lon="6.63753">
        <ele>1387.2</ele>
        <time>2021-09-18T10:27:14Z</time>
      </trkpt>
      <trkpt lat="43.86659" lon="6.63756">
        <ele>1387.4</ele>
        <time>2021-09-18T10:27:15Z</time>
      </trkpt>
      <trkpt lat="43.86659" lon="6.63758">
        <ele>1387.7</ele>
        <time>2021-09-18T10:27:17Z</time>
      </trkpt>
      <trkpt lat="43.86658" lon="6.6376">
        <ele>1387.8</ele>
        <time>2021-09-18T10:27:18Z</time>
      </trkpt>
      <trkpt lat="43.86659" lon="6.6376">
        <ele>1387.8</ele>
        <time>2021-09-18T10:27:19Z</time>
      </trkpt>
      <trkpt lat="43.8666" lon="6.63762">
        <ele>1387.9</ele>
        <time>2021-09-18T10:27:21Z</time>
      </trkpt>
      <trkpt lat="43.8666" lon="6.63764">
        <ele>1388</ele>
        <time>2021-09-18T10:27:22Z</time>
      </trkpt>
      <trkpt lat="43.86661" lon="6.63765">
        <ele>1388</ele>
        <time>2021-09-18T10:27:23Z</time>
      </trkpt>
      <trkpt lat="43.86661" lon="6.63767">
        <ele>1388.1</ele>
        <time>2021-09-18T10:27:24Z</time>
      </trkpt>
      <trkpt lat="43.86661" lon="6.6377">
        <ele>1388.2</ele>
        <time>2021-09-18T10:27:26Z</time>
      </trkpt>
      <trkpt lat="43.86662" lon="6.63772">
        <ele>1388.3</ele>
        <time>2021-09-18T10:27:27Z</time>
      </trkpt>
      <trkpt lat="43.86664" lon="6.63774">
        <ele>1388.4</ele>
        <time>2021-09-18T10:27:29Z</time>
      </trkpt>
      <trkpt lat="43.86666" lon="6.63776">
        <ele>1388.5</ele>
        <time>2021-09-18T10:27:31Z</time>
      </trkpt>
      <trkpt lat="43.86669" lon="6.63778">
        <ele>1388.6</ele>
        <time>2021-09-18T10:27:32Z</time>
      </trkpt>
      <trkpt lat="43.86672" lon="6.63779">
        <ele>1388.7</ele>
        <time>2021-09-18T10:27:34Z</time>
      </trkpt>
      <trkpt lat="43.86676" lon="6.63779">
        <ele>1388.8</ele>
        <time>2021-09-18T10:27:35Z</time>
      </trkpt>
      <trkpt lat="43.8668" lon="6.63779">
        <ele>1388.8</ele>
        <time>2021-09-18T10:27:37Z</time>
      </trkpt>
      <trkpt lat="43.86683" lon="6.63776">
        <ele>1388.9</ele>
        <time>2021-09-18T10:27:38Z</time>
      </trkpt>
      <trkpt lat="43.86685" lon="6.63774">
        <ele>1389</ele>
        <time>2021-09-18T10:27:39Z</time>
      </trkpt>
      <trkpt lat="43.86688" lon="6.63774">
        <ele>1389</ele>
        <time>2021-09-18T10:27:41Z</time>
      </trkpt>
      <trkpt lat="43.8669" lon="6.63773">
        <ele>1389.1</ele>
        <time>2021-09-18T10:27:42Z</time>
      </trkpt>
      <trkpt lat="43.86693" lon="6.6377">
        <ele>1389.2</ele>
        <time>2021-09-18T10:27:44Z</time>
      </trkpt>
      <trkpt lat="43.86696" lon="6.63768">
        <ele>1389.2</ele>
        <time>2021-09-18T10:27:45Z</time>
      </trkpt>
      <trkpt lat="43.86698" lon="6.63765">
        <ele>1389.3</ele>
        <time>2021-09-18T10:27:47Z</time>
      </trkpt>
      <trkpt lat="43.86698" lon="6.63762">
        <ele>1389.3</ele>
        <time>2021-09-18T10:27:48Z</time>
      </trkpt>
      <trkpt lat="43.86698" lon="6.63756">
        <ele>1389.5</ele>
        <time>2021-09-18T10:27:50Z</time>
      </trkpt>
      <trkpt lat="43.86697" lon="6.6375">
        <ele>1389.6</ele>
        <time>2021-09-18T10:27:51Z</time>
      </trkpt>
      <trkpt lat="43.86696" lon="6.63743">
        <ele>1389.7</ele>
        <time>2021-09-18T10:27:52Z</time>
      </trkpt>
      <trkpt lat="43.86695" lon="6.63736">
        <ele>1389.8</ele>
        <time>2021-09-18T10:27:54Z</time>
      </trkpt>
      <trkpt lat="43.86693" lon="6.6373">
        <ele>1390</ele>
        <time>2021-09-18T10:27:56Z</time>
      </trkpt>
      <trkpt lat="43.86692" lon="6.63726">
        <ele>1390.1</ele>
        <time>2021-09-18T10:27:57Z</time>
      </trkpt>
      <trkpt lat="43.86692" lon="6.63722">
        <ele>1390.1</ele>
        <time>2021-09-18T10:27:58Z</time>
      </trkpt>
      <trkpt lat="43.86691" lon="6.63716">
        <ele>1390.3</ele>
        <time>2021-09-18T10:28:00Z</time>
      </trkpt>
      <trkpt lat="43.8669" lon="6.63712">
        <ele>1390.4</ele>
        <time>2021-09-18T10:28:01Z</time>
      </trkpt>
      <trkpt lat="43.86689" lon="6.63705">
        <ele>1390.5</ele>
        <time>2021-09-18T10:28:03Z</time>
      </trkpt>
      <trkpt lat="43.86688" lon="6.63701">
        <ele>1390.6</ele>
        <time>2021-09-18T10:28:04Z</time>
      </trkpt>
      <trkpt lat="43.86688" lon="6.63697">
        <ele>1390.7</ele>
        <time>2021-09-18T10:28:05Z</time>
      </trkpt>
      <trkpt lat="43.86687" lon="6.63691">
        <ele>1390.8</ele>
        <time>2021-09-18T10:28:07Z</time>
      </trkpt>
      <trkpt lat="43.86686" lon="6.63686">
        <ele>1390.9</ele>
        <time>2021-09-18T10:28:08Z</time>
      </trkpt>
      <trkpt lat="43.86686" lon="6.63681">
        <ele>1391</ele>
        <time>2021-09-18T10:28:10Z</time>
      </trkpt>
      <trkpt lat="43.86686" lon="6.63676">
        <ele>1391.1</ele>
        <time>2021-09-18T10:28:11Z</time>
      </trkpt>
      <trkpt lat="43.86686" lon="6.63673">
        <ele>1391.1</ele>
        <time>2021-09-18T10:28:12Z</time>
      </trkpt>
      <trkpt lat="43.86685" lon="6.63667">
        <ele>1391.3</ele>
        <time>2021-09-18T10:28:14Z</time>
      </trkpt>
      <trkpt lat="43.86685" lon="6.63662">
        <ele>1391.4</ele>
        <time>2021-09-18T10:28:15Z</time>
      </trkpt>
      <trkpt lat="43.86685" lon="6.63661">
        <ele>1391.4</ele>
        <time>2021-09-18T10:28:16Z</time>
      </trkpt>
      <trkpt lat="43.86684" lon="6.63658">
        <ele>1391.4</ele>
        <time>2021-09-18T10:28:17Z</time>
      </trkpt>
      <trkpt lat="43.86684" lon="6.63652">
        <ele>1391.5</ele>
        <time>2021-09-18T10:28:19Z</time>
      </trkpt>
      <trkpt lat="43.86684" lon="6.63648">
        <ele>1391.6</ele>
        <time>2021-09-18T10:28:20Z</time>
      </trkpt>
      <trkpt lat="43.86684" lon="6.63644">
        <ele>1391.7</ele>
        <time>2021-09-18T10:28:21Z</time>
      </trkpt>
      <trkpt lat="43.86683" lon="6.63637">
        <ele>1391.9</ele>
        <time>2021-09-18T10:28:23Z</time>
      </trkpt>
      <trkpt lat="43.86682" lon="6.63631">
        <ele>1392</ele>
        <time>2021-09-18T10:28:25Z</time>
      </trkpt>
      <trkpt lat="43.86682" lon="6.63627">
        <ele>1392.1</ele>
        <time>2021-09-18T10:28:26Z</time>
      </trkpt>
      <trkpt lat="43.86682" lon="6.63625">
        <ele>1392.1</ele>
        <time>2021-09-18T10:28:27Z</time>
      </trkpt>
      <trkpt lat="43.86679" lon="6.63621">
        <ele>1392.2</ele>
        <time>2021-09-18T10:28:29Z</time>
      </trkpt>
      <trkpt lat="43.86677" lon="6.63617">
        <ele>1392.3</ele>
        <time>2021-09-18T10:28:30Z</time>
      </trkpt>
      <trkpt lat="43.86676" lon="6.63616">
        <ele>1392.3</ele>
        <time>2021-09-18T10:28:31Z</time>
      </trkpt>
      <trkpt lat="43.86675" lon="6.6361">
        <ele>1392.5</ele>
        <time>2021-09-18T10:28:33Z</time>
      </trkpt>
      <trkpt lat="43.86675" lon="6.63609">
        <ele>1392.5</ele>
        <time>2021-09-18T10:28:34Z</time>
      </trkpt>
      <trkpt lat="43.86675" lon="6.63607">
        <ele>1392.5</ele>
        <time>2021-09-18T10:28:36Z</time>
      </trkpt>
      <trkpt lat="43.86676" lon="6.63606">
        <ele>1392.6</ele>
        <time>2021-09-18T10:28:37Z</time>
      </trkpt>
      <trkpt lat="43.86677" lon="6.63602">
        <ele>1392.7</ele>
        <time>2021-09-18T10:28:38Z</time>
      </trkpt>
      <trkpt lat="43.86679" lon="6.636">
        <ele>1392.7</ele>
        <time>2021-09-18T10:28:40Z</time>
      </trkpt>
      <trkpt lat="43.86682" lon="6.63595">
        <ele>1392.9</ele>
        <time>2021-09-18T10:28:42Z</time>
      </trkpt>
      <trkpt lat="43.86683" lon="6.63593">
        <ele>1392.9</ele>
        <time>2021-09-18T10:28:43Z</time>
      </trkpt>
      <trkpt lat="43.86685" lon="6.63587">
        <ele>1393.1</ele>
        <time>2021-09-18T10:28:45Z</time>
      </trkpt>
      <trkpt lat="43.86686" lon="6.63583">
        <ele>1393.2</ele>
        <time>2021-09-18T10:28:46Z</time>
      </trkpt>
      <trkpt lat="43.86687" lon="6.63577">
        <ele>1393.3</ele>
        <time>2021-09-18T10:28:47Z</time>
      </trkpt>
      <trkpt lat="43.86687" lon="6.63574">
        <ele>1393.4</ele>
        <time>2021-09-18T10:28:48Z</time>
      </trkpt>
      <trkpt lat="43.86688" lon="6.63568">
        <ele>1393.5</ele>
        <time>2021-09-18T10:28:50Z</time>
      </trkpt>
      <trkpt lat="43.86689" lon="6.63563">
        <ele>1393.7</ele>
        <time>2021-09-18T10:28:51Z</time>
      </trkpt>
      <trkpt lat="43.86689" lon="6.63561">
        <ele>1393.7</ele>
        <time>2021-09-18T10:28:52Z</time>
      </trkpt>
      <trkpt lat="43.86689" lon="6.63558">
        <ele>1393.8</ele>
        <time>2021-09-18T10:28:54Z</time>
      </trkpt>
      <trkpt lat="43.8669" lon="6.63552">
        <ele>1394</ele>
        <time>2021-09-18T10:28:56Z</time>
      </trkpt>
      <trkpt lat="43.86689" lon="6.63547">
        <ele>1394.1</ele>
        <time>2021-09-18T10:28:57Z</time>
      </trkpt>
      <trkpt lat="43.86688" lon="6.6354">
        <ele>1394.3</ele>
        <time>2021-09-18T10:28:59Z</time>
      </trkpt>
      <trkpt lat="43.86687" lon="6.63538">
        <ele>1394.4</ele>
        <time>2021-09-18T10:29:00Z</time>
      </trkpt>
      <trkpt lat="43.86687" lon="6.63535">
        <ele>1394.5</ele>
        <time>2021-09-18T10:29:01Z</time>
      </trkpt>
      <trkpt lat="43.86685" lon="6.63529">
        <ele>1394.7</ele>
        <time>2021-09-18T10:29:03Z</time>
      </trkpt>
      <trkpt lat="43.86684" lon="6.63523">
        <ele>1394.9</ele>
        <time>2021-09-18T10:29:05Z</time>
      </trkpt>
      <trkpt lat="43.86683" lon="6.63518">
        <ele>1395</ele>
        <time>2021-09-18T10:29:06Z</time>
      </trkpt>
      <trkpt lat="43.86684" lon="6.63513">
        <ele>1395.2</ele>
        <time>2021-09-18T10:29:07Z</time>
      </trkpt>
      <trkpt lat="43.86684" lon="6.63511">
        <ele>1395.2</ele>
        <time>2021-09-18T10:29:08Z</time>
      </trkpt>
      <trkpt lat="43.86685" lon="6.63507">
        <ele>1395.3</ele>
        <time>2021-09-18T10:29:10Z</time>
      </trkpt>
      <trkpt lat="43.86685" lon="6.63502">
        <ele>1395.5</ele>
        <time>2021-09-18T10:29:11Z</time>
      </trkpt>
      <trkpt lat="43.86686" lon="6.63496">
        <ele>1395.7</ele>
        <time>2021-09-18T10:29:13Z</time>
      </trkpt>
      <trkpt lat="43.86687" lon="6.63494">
        <ele>1395.7</ele>
        <time>2021-09-18T10:29:14Z</time>
      </trkpt>
      <trkpt lat="43.86687" lon="6.63491">
        <ele>1395.8</ele>
        <time>2021-09-18T10:29:15Z</time>
      </trkpt>
      <trkpt lat="43.86687" lon="6.63486">
        <ele>1395.9</ele>
        <time>2021-09-18T10:29:17Z</time>
      </trkpt>
      <trkpt lat="43.86688" lon="6.6348">
        <ele>1396.1</ele>
        <time>2021-09-18T10:29:19Z</time>
      </trkpt>
      <trkpt lat="43.86688" lon="6.63474">
        <ele>1396.3</ele>
        <time>2021-09-18T10:29:20Z</time>
      </trkpt>
      <trkpt lat="43.86687" lon="6.6347">
        <ele>1396.4</ele>
        <time>2021-09-18T10:29:22Z</time>
      </trkpt>
      <trkpt lat="43.86686" lon="6.63466">
        <ele>1396.5</ele>
        <time>2021-09-18T10:29:23Z</time>
      </trkpt>
      <trkpt lat="43.86685" lon="6.6346">
        <ele>1396.7</ele>
        <time>2021-09-18T10:29:25Z</time>
      </trkpt>
      <trkpt lat="43.86684" lon="6.63454">
        <ele>1396.8</ele>
        <time>2021-09-18T10:29:27Z</time>
      </trkpt>
      <trkpt lat="43.86684" lon="6.6345">
        <ele>1397</ele>
        <time>2021-09-18T10:29:28Z</time>
      </trkpt>
      <trkpt lat="43.86683" lon="6.63445">
        <ele>1397.1</ele>
        <time>2021-09-18T10:29:29Z</time>
      </trkpt>
      <trkpt lat="43.86683" lon="6.63444">
        <ele>1397.1</ele>
        <time>2021-09-18T10:29:30Z</time>
      </trkpt>
      <trkpt lat="43.86683" lon="6.63441">
        <ele>1397.2</ele>
        <time>2021-09-18T10:29:31Z</time>
      </trkpt>
      <trkpt lat="43.86683" lon="6.63434">
        <ele>1397.4</ele>
        <time>2021-09-18T10:29:33Z</time>
      </trkpt>
      <trkpt lat="43.86684" lon="6.63429">
        <ele>1397.5</ele>
        <time>2021-09-18T10:29:34Z</time>
      </trkpt>
      <trkpt lat="43.86683" lon="6.63425">
        <ele>1397.6</ele>
        <time>2021-09-18T10:29:36Z</time>
      </trkpt>
      <trkpt lat="43.86683" lon="6.63419">
        <ele>1397.8</ele>
        <time>2021-09-18T10:29:38Z</time>
      </trkpt>
      <trkpt lat="43.86683" lon="6.63414">
        <ele>1398</ele>
        <time>2021-09-18T10:29:39Z</time>
      </trkpt>
      <trkpt lat="43.86684" lon="6.63409">
        <ele>1398.1</ele>
        <time>2021-09-18T10:29:41Z</time>
      </trkpt>
      <trkpt lat="43.86684" lon="6.63403">
        <ele>1398.3</ele>
        <time>2021-09-18T10:29:43Z</time>
      </trkpt>
      <trkpt lat="43.86685" lon="6.63398">
        <ele>1398.5</ele>
        <time>2021-09-18T10:29:44Z</time>
      </trkpt>
      <trkpt lat="43.86686" lon="6.63391">
        <ele>1398.7</ele>
        <time>2021-09-18T10:29:46Z</time>
      </trkpt>
      <trkpt lat="43.86686" lon="6.63389">
        <ele>1398.7</ele>
        <time>2021-09-18T10:29:47Z</time>
      </trkpt>
      <trkpt lat="43.86687" lon="6.63387">
        <ele>1398.8</ele>
        <time>2021-09-18T10:29:48Z</time>
      </trkpt>
      <trkpt lat="43.86687" lon="6.63381">
        <ele>1399</ele>
        <time>2021-09-18T10:29:50Z</time>
      </trkpt>
      <trkpt lat="43.86688" lon="6.63377">
        <ele>1399.1</ele>
        <time>2021-09-18T10:29:51Z</time>
      </trkpt>
      <trkpt lat="43.86688" lon="6.63372">
        <ele>1399.3</ele>
        <time>2021-09-18T10:29:52Z</time>
      </trkpt>
      <trkpt lat="43.86687" lon="6.6337">
        <ele>1399.4</ele>
        <time>2021-09-18T10:29:53Z</time>
      </trkpt>
      <trkpt lat="43.86687" lon="6.63365">
        <ele>1399.5</ele>
        <time>2021-09-18T10:29:54Z</time>
      </trkpt>
      <trkpt lat="43.86687" lon="6.63363">
        <ele>1399.6</ele>
        <time>2021-09-18T10:29:55Z</time>
      </trkpt>
      <trkpt lat="43.86686" lon="6.63358">
        <ele>1399.8</ele>
        <time>2021-09-18T10:29:57Z</time>
      </trkpt>
      <trkpt lat="43.86686" lon="6.63357">
        <ele>1399.8</ele>
        <time>2021-09-18T10:29:58Z</time>
      </trkpt>
      <trkpt lat="43.86686" lon="6.63353">
        <ele>1400</ele>
        <time>2021-09-18T10:29:59Z</time>
      </trkpt>
      <trkpt lat="43.86686" lon="6.63352">
        <ele>1400</ele>
        <time>2021-09-18T10:30:00Z</time>
      </trkpt>
      <trkpt lat="43.86687" lon="6.63349">
        <ele>1400.1</ele>
        <time>2021-09-18T10:30:01Z</time>
      </trkpt>
      <trkpt lat="43.86688" lon="6.63345">
        <ele>1400.2</ele>
        <time>2021-09-18T10:30:03Z</time>
      </trkpt>
      <trkpt lat="43.86686" lon="6.6334">
        <ele>1400.4</ele>
        <time>2021-09-18T10:30:04Z</time>
      </trkpt>
      <trkpt lat="43.86685" lon="6.63335">
        <ele>1400.6</ele>
        <time>2021-09-18T10:30:06Z</time>
      </trkpt>
      <trkpt lat="43.86682" lon="6.6333">
        <ele>1400.8</ele>
        <time>2021-09-18T10:30:07Z</time>
      </trkpt>
      <trkpt lat="43.86681" lon="6.63325">
        <ele>1401</ele>
        <time>2021-09-18T10:30:09Z</time>
      </trkpt>
      <trkpt lat="43.86681" lon="6.63318">
        <ele>1401.3</ele>
        <time>2021-09-18T10:30:11Z</time>
      </trkpt>
      <trkpt lat="43.86682" lon="6.63314">
        <ele>1401.4</ele>
        <time>2021-09-18T10:30:12Z</time>
      </trkpt>
      <trkpt lat="43.86683" lon="6.63309">
        <ele>1401.6</ele>
        <time>2021-09-18T10:30:13Z</time>
      </trkpt>
      <trkpt lat="43.86683" lon="6.63307">
        <ele>1401.7</ele>
        <time>2021-09-18T10:30:14Z</time>
      </trkpt>
      <trkpt lat="43.86685" lon="6.63302">
        <ele>1401.9</ele>
        <time>2021-09-18T10:30:16Z</time>
      </trkpt>
      <trkpt lat="43.86686" lon="6.63297">
        <ele>1402.1</ele>
        <time>2021-09-18T10:30:17Z</time>
      </trkpt>
      <trkpt lat="43.86688" lon="6.63293">
        <ele>1402.3</ele>
        <time>2021-09-18T10:30:19Z</time>
      </trkpt>
      <trkpt lat="43.86689" lon="6.63288">
        <ele>1402.4</ele>
        <time>2021-09-18T10:30:21Z</time>
      </trkpt>
      <trkpt lat="43.86689" lon="6.63285">
        <ele>1402.6</ele>
        <time>2021-09-18T10:30:22Z</time>
      </trkpt>
      <trkpt lat="43.86689" lon="6.63279">
        <ele>1402.8</ele>
        <time>2021-09-18T10:30:24Z</time>
      </trkpt>
      <trkpt lat="43.8669" lon="6.63274">
        <ele>1403</ele>
        <time>2021-09-18T10:30:25Z</time>
      </trkpt>
      <trkpt lat="43.86691" lon="6.63272">
        <ele>1403.1</ele>
        <time>2021-09-18T10:30:26Z</time>
      </trkpt>
      <trkpt lat="43.86691" lon="6.63268">
        <ele>1403.3</ele>
        <time>2021-09-18T10:30:28Z</time>
      </trkpt>
      <trkpt lat="43.8669" lon="6.63264">
        <ele>1403.5</ele>
        <time>2021-09-18T10:30:30Z</time>
      </trkpt>
      <trkpt lat="43.86689" lon="6.63259">
        <ele>1403.7</ele>
        <time>2021-09-18T10:30:31Z</time>
      </trkpt>
      <trkpt lat="43.86689" lon="6.63258">
        <ele>1403.7</ele>
        <time>2021-09-18T10:30:32Z</time>
      </trkpt>
      <trkpt lat="43.86689" lon="6.63254">
        <ele>1403.9</ele>
        <time>2021-09-18T10:30:34Z</time>
      </trkpt>
      <trkpt lat="43.86688" lon="6.63253">
        <ele>1404</ele>
        <time>2021-09-18T10:30:35Z</time>
      </trkpt>
      <trkpt lat="43.86689" lon="6.6325">
        <ele>1404.1</ele>
        <time>2021-09-18T10:30:36Z</time>
      </trkpt>
      <trkpt lat="43.86689" lon="6.63248">
        <ele>1404.2</ele>
        <time>2021-09-18T10:30:38Z</time>
      </trkpt>
      <trkpt lat="43.8669" lon="6.63245">
        <ele>1404.3</ele>
        <time>2021-09-18T10:30:39Z</time>
      </trkpt>
      <trkpt lat="43.86691" lon="6.63243">
        <ele>1404.5</ele>
        <time>2021-09-18T10:30:41Z</time>
      </trkpt>
      <trkpt lat="43.86694" lon="6.63239">
        <ele>1404.7</ele>
        <time>2021-09-18T10:30:42Z</time>
      </trkpt>
      <trkpt lat="43.86694" lon="6.63238">
        <ele>1404.8</ele>
        <time>2021-09-18T10:30:43Z</time>
      </trkpt>
      <trkpt lat="43.86698" lon="6.63233">
        <ele>1405.1</ele>
        <time>2021-09-18T10:30:44Z</time>
      </trkpt>
      <trkpt lat="43.867" lon="6.63228">
        <ele>1405.4</ele>
        <time>2021-09-18T10:30:46Z</time>
      </trkpt>
      <trkpt lat="43.86701" lon="6.63222">
        <ele>1405.7</ele>
        <time>2021-09-18T10:30:48Z</time>
      </trkpt>
      <trkpt lat="43.86702" lon="6.63218">
        <ele>1405.9</ele>
        <time>2021-09-18T10:30:49Z</time>
      </trkpt>
      <trkpt lat="43.86702" lon="6.63214">
        <ele>1406.1</ele>
        <time>2021-09-18T10:30:51Z</time>
      </trkpt>
      <trkpt lat="43.86703" lon="6.63213">
        <ele>1406.1</ele>
        <time>2021-09-18T10:30:52Z</time>
      </trkpt>
      <trkpt lat="43.86703" lon="6.6321">
        <ele>1406.2</ele>
        <time>2021-09-18T10:30:53Z</time>
      </trkpt>
      <trkpt lat="43.86703" lon="6.63207">
        <ele>1406.4</ele>
        <time>2021-09-18T10:30:55Z</time>
      </trkpt>
      <trkpt lat="43.86702" lon="6.63205">
        <ele>1406.5</ele>
        <time>2021-09-18T10:30:56Z</time>
      </trkpt>
      <trkpt lat="43.86703" lon="6.63203">
        <ele>1406.6</ele>
        <time>2021-09-18T10:30:57Z</time>
      </trkpt>
      <trkpt lat="43.86705" lon="6.63199">
        <ele>1406.8</ele>
        <time>2021-09-18T10:30:59Z</time>
      </trkpt>
      <trkpt lat="43.86705" lon="6.63198">
        <ele>1406.9</ele>
        <time>2021-09-18T10:31:00Z</time>
      </trkpt>
      <trkpt lat="43.86706" lon="6.63193">
        <ele>1407.1</ele>
        <time>2021-09-18T10:31:01Z</time>
      </trkpt>
      <trkpt lat="43.86707" lon="6.63191">
        <ele>1407.2</ele>
        <time>2021-09-18T10:31:02Z</time>
      </trkpt>
      <trkpt lat="43.86708" lon="6.63186">
        <ele>1407.5</ele>
        <time>2021-09-18T10:31:04Z</time>
      </trkpt>
      <trkpt lat="43.86707" lon="6.63184">
        <ele>1407.6</ele>
        <time>2021-09-18T10:31:06Z</time>
      </trkpt>
      <trkpt lat="43.86707" lon="6.63182">
        <ele>1407.7</ele>
        <time>2021-09-18T10:31:07Z</time>
      </trkpt>
      <trkpt lat="43.86707" lon="6.63176">
        <ele>1407.9</ele>
        <time>2021-09-18T10:31:09Z</time>
      </trkpt>
      <trkpt lat="43.86706" lon="6.6317">
        <ele>1408.2</ele>
        <time>2021-09-18T10:31:12Z</time>
      </trkpt>
      <trkpt lat="43.86706" lon="6.63166">
        <ele>1408.4</ele>
        <time>2021-09-18T10:31:13Z</time>
      </trkpt>
      <trkpt lat="43.86707" lon="6.63162">
        <ele>1408.6</ele>
        <time>2021-09-18T10:31:14Z</time>
      </trkpt>
      <trkpt lat="43.86707" lon="6.63158">
        <ele>1408.8</ele>
        <time>2021-09-18T10:31:16Z</time>
      </trkpt>
      <trkpt lat="43.86709" lon="6.63154">
        <ele>1409</ele>
        <time>2021-09-18T10:31:17Z</time>
      </trkpt>
      <trkpt lat="43.86711" lon="6.63149">
        <ele>1409.2</ele>
        <time>2021-09-18T10:31:19Z</time>
      </trkpt>
      <trkpt lat="43.86712" lon="6.63146">
        <ele>1409.4</ele>
        <time>2021-09-18T10:31:20Z</time>
      </trkpt>
      <trkpt lat="43.86713" lon="6.6314">
        <ele>1409.7</ele>
        <time>2021-09-18T10:31:22Z</time>
      </trkpt>
      <trkpt lat="43.86714" lon="6.63133">
        <ele>1409.9</ele>
        <time>2021-09-18T10:31:24Z</time>
      </trkpt>
      <trkpt lat="43.86715" lon="6.63132">
        <ele>1410</ele>
        <time>2021-09-18T10:31:26Z</time>
      </trkpt>
      <trkpt lat="43.86715" lon="6.6313">
        <ele>1410.1</ele>
        <time>2021-09-18T10:31:27Z</time>
      </trkpt>
      <trkpt lat="43.86716" lon="6.63126">
        <ele>1410.2</ele>
        <time>2021-09-18T10:31:29Z</time>
      </trkpt>
      <trkpt lat="43.86716" lon="6.63124">
        <ele>1410.3</ele>
        <time>2021-09-18T10:31:30Z</time>
      </trkpt>
      <trkpt lat="43.86717" lon="6.6312">
        <ele>1410.5</ele>
        <time>2021-09-18T10:31:32Z</time>
      </trkpt>
      <trkpt lat="43.86718" lon="6.63119">
        <ele>1410.6</ele>
        <time>2021-09-18T10:31:33Z</time>
      </trkpt>
      <trkpt lat="43.8672" lon="6.63115">
        <ele>1410.7</ele>
        <time>2021-09-18T10:31:35Z</time>
      </trkpt>
      <trkpt lat="43.8672" lon="6.63114">
        <ele>1410.8</ele>
        <time>2021-09-18T10:31:36Z</time>
      </trkpt>
      <trkpt lat="43.86722" lon="6.6311">
        <ele>1411</ele>
        <time>2021-09-18T10:31:37Z</time>
      </trkpt>
      <trkpt lat="43.86722" lon="6.63108">
        <ele>1411.1</ele>
        <time>2021-09-18T10:31:38Z</time>
      </trkpt>
      <trkpt lat="43.86724" lon="6.63102">
        <ele>1411.4</ele>
        <time>2021-09-18T10:31:40Z</time>
      </trkpt>
      <trkpt lat="43.86725" lon="6.63096">
        <ele>1411.6</ele>
        <time>2021-09-18T10:31:41Z</time>
      </trkpt>
      <trkpt lat="43.86726" lon="6.6309">
        <ele>1411.9</ele>
        <time>2021-09-18T10:31:42Z</time>
      </trkpt>
      <trkpt lat="43.86726" lon="6.63085">
        <ele>1412.1</ele>
        <time>2021-09-18T10:31:43Z</time>
      </trkpt>
      <trkpt lat="43.86727" lon="6.63082">
        <ele>1412.2</ele>
        <time>2021-09-18T10:31:44Z</time>
      </trkpt>
      <trkpt lat="43.86727" lon="6.63081">
        <ele>1412.3</ele>
        <time>2021-09-18T10:31:46Z</time>
      </trkpt>
      <trkpt lat="43.86728" lon="6.63081">
        <ele>1412.3</ele>
        <time>2021-09-18T10:31:47Z</time>
      </trkpt>
      <trkpt lat="43.86728" lon="6.63079">
        <ele>1412.4</ele>
        <time>2021-09-18T10:31:49Z</time>
      </trkpt>
      <trkpt lat="43.86728" lon="6.63078">
        <ele>1412.4</ele>
        <time>2021-09-18T10:31:50Z</time>
      </trkpt>
      <trkpt lat="43.86728" lon="6.63077">
        <ele>1412.5</ele>
        <time>2021-09-18T10:31:52Z</time>
      </trkpt>
      <trkpt lat="43.86728" lon="6.63076">
        <ele>1412.6</ele>
        <time>2021-09-18T10:31:53Z</time>
      </trkpt>
      <trkpt lat="43.86728" lon="6.63075">
        <ele>1412.6</ele>
        <time>2021-09-18T10:31:54Z</time>
      </trkpt>
      <trkpt lat="43.86727" lon="6.63074">
        <ele>1412.7</ele>
        <time>2021-09-18T10:31:56Z</time>
      </trkpt>
      <trkpt lat="43.86726" lon="6.63073">
        <ele>1412.7</ele>
        <time>2021-09-18T10:31:57Z</time>
      </trkpt>
      <trkpt lat="43.86725" lon="6.6307">
        <ele>1412.9</ele>
        <time>2021-09-18T10:31:59Z</time>
      </trkpt>
      <trkpt lat="43.86724" lon="6.63069">
        <ele>1413</ele>
        <time>2021-09-18T10:32:00Z</time>
      </trkpt>
      <trkpt lat="43.86724" lon="6.63064">
        <ele>1413.2</ele>
        <time>2021-09-18T10:32:02Z</time>
      </trkpt>
      <trkpt lat="43.86724" lon="6.63058">
        <ele>1413.5</ele>
        <time>2021-09-18T10:32:03Z</time>
      </trkpt>
      <trkpt lat="43.86725" lon="6.63053">
        <ele>1413.7</ele>
        <time>2021-09-18T10:32:05Z</time>
      </trkpt>
      <trkpt lat="43.86726" lon="6.63049">
        <ele>1413.9</ele>
        <time>2021-09-18T10:32:06Z</time>
      </trkpt>
      <trkpt lat="43.86728" lon="6.63045">
        <ele>1414.2</ele>
        <time>2021-09-18T10:32:08Z</time>
      </trkpt>
      <trkpt lat="43.8673" lon="6.6304">
        <ele>1414.4</ele>
        <time>2021-09-18T10:32:09Z</time>
      </trkpt>
      <trkpt lat="43.8673" lon="6.63035">
        <ele>1414.7</ele>
        <time>2021-09-18T10:32:11Z</time>
      </trkpt>
      <trkpt lat="43.86731" lon="6.63031">
        <ele>1414.9</ele>
        <time>2021-09-18T10:32:12Z</time>
      </trkpt>
      <trkpt lat="43.86732" lon="6.63028">
        <ele>1415.1</ele>
        <time>2021-09-18T10:32:13Z</time>
      </trkpt>
      <trkpt lat="43.86733" lon="6.63022">
        <ele>1415.3</ele>
        <time>2021-09-18T10:32:15Z</time>
      </trkpt>
      <trkpt lat="43.86733" lon="6.63018">
        <ele>1415.6</ele>
        <time>2021-09-18T10:32:16Z</time>
      </trkpt>
      <trkpt lat="43.86733" lon="6.63013">
        <ele>1415.8</ele>
        <time>2021-09-18T10:32:18Z</time>
      </trkpt>
      <trkpt lat="43.86733" lon="6.63012">
        <ele>1415.9</ele>
        <time>2021-09-18T10:32:19Z</time>
      </trkpt>
      <trkpt lat="43.86733" lon="6.6301">
        <ele>1416</ele>
        <time>2021-09-18T10:32:20Z</time>
      </trkpt>
      <trkpt lat="43.86734" lon="6.63006">
        <ele>1416.2</ele>
        <time>2021-09-18T10:32:22Z</time>
      </trkpt>
      <trkpt lat="43.86735" lon="6.63002">
        <ele>1416.4</ele>
        <time>2021-09-18T10:32:23Z</time>
      </trkpt>
      <trkpt lat="43.86736" lon="6.63001">
        <ele>1416.5</ele>
        <time>2021-09-18T10:32:24Z</time>
      </trkpt>
      <trkpt lat="43.86737" lon="6.62995">
        <ele>1416.8</ele>
        <time>2021-09-18T10:32:26Z</time>
      </trkpt>
      <trkpt lat="43.86739" lon="6.62991">
        <ele>1417.1</ele>
        <time>2021-09-18T10:32:27Z</time>
      </trkpt>
      <trkpt lat="43.86741" lon="6.62987">
        <ele>1417.3</ele>
        <time>2021-09-18T10:32:28Z</time>
      </trkpt>
      <trkpt lat="43.86743" lon="6.62982">
        <ele>1417.6</ele>
        <time>2021-09-18T10:32:30Z</time>
      </trkpt>
      <trkpt lat="43.86743" lon="6.6298">
        <ele>1417.7</ele>
        <time>2021-09-18T10:32:31Z</time>
      </trkpt>
      <trkpt lat="43.86746" lon="6.62975">
        <ele>1418</ele>
        <time>2021-09-18T10:32:33Z</time>
      </trkpt>
      <trkpt lat="43.86749" lon="6.62971">
        <ele>1418.3</ele>
        <time>2021-09-18T10:32:35Z</time>
      </trkpt>
      <trkpt lat="43.86751" lon="6.6297">
        <ele>1418.5</ele>
        <time>2021-09-18T10:32:37Z</time>
      </trkpt>
      <trkpt lat="43.86752" lon="6.6297">
        <ele>1418.5</ele>
        <time>2021-09-18T10:32:38Z</time>
      </trkpt>
      <trkpt lat="43.86755" lon="6.62967">
        <ele>1418.8</ele>
        <time>2021-09-18T10:32:40Z</time>
      </trkpt>
      <trkpt lat="43.86758" lon="6.62966">
        <ele>1419</ele>
        <time>2021-09-18T10:32:41Z</time>
      </trkpt>
      <trkpt lat="43.86759" lon="6.62965">
        <ele>1419.1</ele>
        <time>2021-09-18T10:32:42Z</time>
      </trkpt>
      <trkpt lat="43.86762" lon="6.62965">
        <ele>1419.3</ele>
        <time>2021-09-18T10:32:43Z</time>
      </trkpt>
      <trkpt lat="43.86767" lon="6.62964">
        <ele>1419.6</ele>
        <time>2021-09-18T10:32:45Z</time>
      </trkpt>
      <trkpt lat="43.86767" lon="6.62963">
        <ele>1419.7</ele>
        <time>2021-09-18T10:32:46Z</time>
      </trkpt>
      <trkpt lat="43.8677" lon="6.6296">
        <ele>1420</ele>
        <time>2021-09-18T10:32:48Z</time>
      </trkpt>
      <trkpt lat="43.86772" lon="6.62958">
        <ele>1420.2</ele>
        <time>2021-09-18T10:32:49Z</time>
      </trkpt>
      <trkpt lat="43.86775" lon="6.62955">
        <ele>1420.4</ele>
        <time>2021-09-18T10:32:51Z</time>
      </trkpt>
      <trkpt lat="43.86776" lon="6.62953">
        <ele>1420.6</ele>
        <time>2021-09-18T10:32:52Z</time>
      </trkpt>
      <trkpt lat="43.86777" lon="6.62952">
        <ele>1420.6</ele>
        <time>2021-09-18T10:32:53Z</time>
      </trkpt>
      <trkpt lat="43.86779" lon="6.62951">
        <ele>1420.7</ele>
        <time>2021-09-18T10:32:54Z</time>
      </trkpt>
      <trkpt lat="43.86778" lon="6.6295">
        <ele>1420.8</ele>
        <time>2021-09-18T10:32:55Z</time>
      </trkpt>
      <trkpt lat="43.8678" lon="6.62946">
        <ele>1421</ele>
        <time>2021-09-18T10:32:57Z</time>
      </trkpt>
      <trkpt lat="43.86781" lon="6.62943">
        <ele>1421.2</ele>
        <time>2021-09-18T10:32:58Z</time>
      </trkpt>
      <trkpt lat="43.86784" lon="6.62938">
        <ele>1421.5</ele>
        <time>2021-09-18T10:33:00Z</time>
      </trkpt>
      <trkpt lat="43.86786" lon="6.62933">
        <ele>1421.8</ele>
        <time>2021-09-18T10:33:01Z</time>
      </trkpt>
      <trkpt lat="43.86786" lon="6.62931">
        <ele>1421.9</ele>
        <time>2021-09-18T10:33:02Z</time>
      </trkpt>
      <trkpt lat="43.86786" lon="6.62925">
        <ele>1422.1</ele>
        <time>2021-09-18T10:33:04Z</time>
      </trkpt>
      <trkpt lat="43.86786" lon="6.6292">
        <ele>1422.3</ele>
        <time>2021-09-18T10:33:05Z</time>
      </trkpt>
      <trkpt lat="43.86785" lon="6.62917">
        <ele>1422.5</ele>
        <time>2021-09-18T10:33:06Z</time>
      </trkpt>
      <trkpt lat="43.86785" lon="6.62911">
        <ele>1422.8</ele>
        <time>2021-09-18T10:33:08Z</time>
      </trkpt>
      <trkpt lat="43.86786" lon="6.62906">
        <ele>1423</ele>
        <time>2021-09-18T10:33:09Z</time>
      </trkpt>
      <trkpt lat="43.86786" lon="6.62902">
        <ele>1423.2</ele>
        <time>2021-09-18T10:33:10Z</time>
      </trkpt>
      <trkpt lat="43.86787" lon="6.62897">
        <ele>1423.4</ele>
        <time>2021-09-18T10:33:11Z</time>
      </trkpt>
      <trkpt lat="43.86787" lon="6.62891">
        <ele>1423.7</ele>
        <time>2021-09-18T10:33:13Z</time>
      </trkpt>
      <trkpt lat="43.86786" lon="6.62887">
        <ele>1423.8</ele>
        <time>2021-09-18T10:33:14Z</time>
      </trkpt>
      <trkpt lat="43.86786" lon="6.62882">
        <ele>1424</ele>
        <time>2021-09-18T10:33:16Z</time>
      </trkpt>
      <trkpt lat="43.86786" lon="6.6288">
        <ele>1424.1</ele>
        <time>2021-09-18T10:33:17Z</time>
      </trkpt>
      <trkpt lat="43.86788" lon="6.62874">
        <ele>1424.4</ele>
        <time>2021-09-18T10:33:19Z</time>
      </trkpt>
      <trkpt lat="43.8679" lon="6.62871">
        <ele>1424.6</ele>
        <time>2021-09-18T10:33:20Z</time>
      </trkpt>
      <trkpt lat="43.86793" lon="6.62866">
        <ele>1424.8</ele>
        <time>2021-09-18T10:33:22Z</time>
      </trkpt>
      <trkpt lat="43.86794" lon="6.62864">
        <ele>1424.9</ele>
        <time>2021-09-18T10:33:23Z</time>
      </trkpt>
      <trkpt lat="43.86798" lon="6.62861">
        <ele>1425.2</ele>
        <time>2021-09-18T10:33:25Z</time>
      </trkpt>
      <trkpt lat="43.868" lon="6.62857">
        <ele>1425.4</ele>
        <time>2021-09-18T10:33:27Z</time>
      </trkpt>
      <trkpt lat="43.86803" lon="6.62853">
        <ele>1425.6</ele>
        <time>2021-09-18T10:33:29Z</time>
      </trkpt>
      <trkpt lat="43.86804" lon="6.62851">
        <ele>1425.7</ele>
        <time>2021-09-18T10:33:31Z</time>
      </trkpt>
      <trkpt lat="43.86805" lon="6.62849">
        <ele>1425.8</ele>
        <time>2021-09-18T10:33:32Z</time>
      </trkpt>
      <trkpt lat="43.86806" lon="6.62845">
        <ele>1426</ele>
        <time>2021-09-18T10:33:33Z</time>
      </trkpt>
      <trkpt lat="43.86807" lon="6.62843">
        <ele>1426.1</ele>
        <time>2021-09-18T10:33:34Z</time>
      </trkpt>
      <trkpt lat="43.86807" lon="6.6284">
        <ele>1426.2</ele>
        <time>2021-09-18T10:33:36Z</time>
      </trkpt>
      <trkpt lat="43.86808" lon="6.62836">
        <ele>1426.4</ele>
        <time>2021-09-18T10:33:37Z</time>
      </trkpt>
      <trkpt lat="43.86809" lon="6.62833">
        <ele>1426.5</ele>
        <time>2021-09-18T10:33:38Z</time>
      </trkpt>
      <trkpt lat="43.86811" lon="6.6283">
        <ele>1426.7</ele>
        <time>2021-09-18T10:33:40Z</time>
      </trkpt>
      <trkpt lat="43.86813" lon="6.62824">
        <ele>1427</ele>
        <time>2021-09-18T10:33:41Z</time>
      </trkpt>
      <trkpt lat="43.86815" lon="6.62819">
        <ele>1427.2</ele>
        <time>2021-09-18T10:33:43Z</time>
      </trkpt>
      <trkpt lat="43.86817" lon="6.62816">
        <ele>1427.4</ele>
        <time>2021-09-18T10:33:44Z</time>
      </trkpt>
      <trkpt lat="43.86819" lon="6.6281">
        <ele>1427.7</ele>
        <time>2021-09-18T10:33:46Z</time>
      </trkpt>
      <trkpt lat="43.86822" lon="6.62807">
        <ele>1427.9</ele>
        <time>2021-09-18T10:33:48Z</time>
      </trkpt>
      <trkpt lat="43.86824" lon="6.62805">
        <ele>1428.1</ele>
        <time>2021-09-18T10:33:50Z</time>
      </trkpt>
      <trkpt lat="43.86826" lon="6.62804">
        <ele>1428.2</ele>
        <time>2021-09-18T10:33:51Z</time>
      </trkpt>
      <trkpt lat="43.86826" lon="6.62804">
        <ele>1428.3</ele>
        <time>2021-09-18T10:33:53Z</time>
      </trkpt>
      <trkpt lat="43.86826" lon="6.62804">
        <ele>1428.3</ele>
        <time>2021-09-18T10:33:54Z</time>
      </trkpt>
      <trkpt lat="43.86828" lon="6.62804">
        <ele>1428.4</ele>
        <time>2021-09-18T10:33:56Z</time>
      </trkpt>
      <trkpt lat="43.86827" lon="6.62804">
        <ele>1428.4</ele>
        <time>2021-09-18T10:33:57Z</time>
      </trkpt>
      <trkpt lat="43.86826" lon="6.62804">
        <ele>1428.5</ele>
        <time>2021-09-18T10:33:58Z</time>
      </trkpt>
      <trkpt lat="43.86826" lon="6.62804">
        <ele>1428.5</ele>
        <time>2021-09-18T10:34:00Z</time>
      </trkpt>
      <trkpt lat="43.86827" lon="6.62802">
        <ele>1428.6</ele>
        <time>2021-09-18T10:34:01Z</time>
      </trkpt>
      <trkpt lat="43.86828" lon="6.62801">
        <ele>1428.7</ele>
        <time>2021-09-18T10:34:02Z</time>
      </trkpt>
      <trkpt lat="43.8683" lon="6.62798">
        <ele>1428.9</ele>
        <time>2021-09-18T10:34:04Z</time>
      </trkpt>
      <trkpt lat="43.86832" lon="6.62793">
        <ele>1429.2</ele>
        <time>2021-09-18T10:34:06Z</time>
      </trkpt>
      <trkpt lat="43.86834" lon="6.62788">
        <ele>1429.4</ele>
        <time>2021-09-18T10:34:08Z</time>
      </trkpt>
      <trkpt lat="43.86835" lon="6.62785">
        <ele>1429.6</ele>
        <time>2021-09-18T10:34:09Z</time>
      </trkpt>
      <trkpt lat="43.86834" lon="6.62781">
        <ele>1429.8</ele>
        <time>2021-09-18T10:34:10Z</time>
      </trkpt>
      <trkpt lat="43.86834" lon="6.62776">
        <ele>1430</ele>
        <time>2021-09-18T10:34:12Z</time>
      </trkpt>
      <trkpt lat="43.86835" lon="6.62771">
        <ele>1430.3</ele>
        <time>2021-09-18T10:34:14Z</time>
      </trkpt>
      <trkpt lat="43.86837" lon="6.62769">
        <ele>1430.4</ele>
        <time>2021-09-18T10:34:16Z</time>
      </trkpt>
      <trkpt lat="43.86839" lon="6.62767">
        <ele>1430.6</ele>
        <time>2021-09-18T10:34:17Z</time>
      </trkpt>
      <trkpt lat="43.8684" lon="6.62766">
        <ele>1430.7</ele>
        <time>2021-09-18T10:34:18Z</time>
      </trkpt>
      <trkpt lat="43.86842" lon="6.62762">
        <ele>1430.9</ele>
        <time>2021-09-18T10:34:20Z</time>
      </trkpt>
      <trkpt lat="43.86843" lon="6.62761">
        <ele>1431</ele>
        <time>2021-09-18T10:34:21Z</time>
      </trkpt>
      <trkpt lat="43.86846" lon="6.62759">
        <ele>1431.2</ele>
        <time>2021-09-18T10:34:23Z</time>
      </trkpt>
      <trkpt lat="43.86848" lon="6.62756">
        <ele>1431.4</ele>
        <time>2021-09-18T10:34:25Z</time>
      </trkpt>
      <trkpt lat="43.86851" lon="6.62753">
        <ele>1431.6</ele>
        <time>2021-09-18T10:34:27Z</time>
      </trkpt>
      <trkpt lat="43.86854" lon="6.62751">
        <ele>1431.8</ele>
        <time>2021-09-18T10:34:28Z</time>
      </trkpt>
      <trkpt lat="43.86855" lon="6.6275">
        <ele>1432</ele>
        <time>2021-09-18T10:34:29Z</time>
      </trkpt>
      <trkpt lat="43.86857" lon="6.62748">
        <ele>1432.1</ele>
        <time>2021-09-18T10:34:31Z</time>
      </trkpt>
      <trkpt lat="43.86861" lon="6.62746">
        <ele>1432.4</ele>
        <time>2021-09-18T10:34:32Z</time>
      </trkpt>
      <trkpt lat="43.86862" lon="6.62745">
        <ele>1432.5</ele>
        <time>2021-09-18T10:34:33Z</time>
      </trkpt>
      <trkpt lat="43.86864" lon="6.62742">
        <ele>1432.7</ele>
        <time>2021-09-18T10:34:35Z</time>
      </trkpt>
      <trkpt lat="43.86867" lon="6.62738">
        <ele>1432.9</ele>
        <time>2021-09-18T10:34:37Z</time>
      </trkpt>
      <trkpt lat="43.86868" lon="6.62735">
        <ele>1433.1</ele>
        <time>2021-09-18T10:34:38Z</time>
      </trkpt>
      <trkpt lat="43.86869" lon="6.62733">
        <ele>1433.2</ele>
        <time>2021-09-18T10:34:40Z</time>
      </trkpt>
      <trkpt lat="43.86871" lon="6.6273">
        <ele>1433.4</ele>
        <time>2021-09-18T10:34:41Z</time>
      </trkpt>
      <trkpt lat="43.86874" lon="6.62728">
        <ele>1433.6</ele>
        <time>2021-09-18T10:34:43Z</time>
      </trkpt>
      <trkpt lat="43.86876" lon="6.62727">
        <ele>1433.7</ele>
        <time>2021-09-18T10:34:45Z</time>
      </trkpt>
      <trkpt lat="43.86878" lon="6.62726">
        <ele>1433.9</ele>
        <time>2021-09-18T10:34:46Z</time>
      </trkpt>
      <trkpt lat="43.86879" lon="6.62725">
        <ele>1434</ele>
        <time>2021-09-18T10:34:47Z</time>
      </trkpt>
      <trkpt lat="43.86882" lon="6.62723">
        <ele>1434.2</ele>
        <time>2021-09-18T10:34:49Z</time>
      </trkpt>
      <trkpt lat="43.86883" lon="6.62723">
        <ele>1434.3</ele>
        <time>2021-09-18T10:34:50Z</time>
      </trkpt>
      <trkpt lat="43.86886" lon="6.62721">
        <ele>1434.4</ele>
        <time>2021-09-18T10:34:52Z</time>
      </trkpt>
      <trkpt lat="43.86889" lon="6.62719">
        <ele>1434.6</ele>
        <time>2021-09-18T10:34:54Z</time>
      </trkpt>
      <trkpt lat="43.86892" lon="6.62719">
        <ele>1434.8</ele>
        <time>2021-09-18T10:34:55Z</time>
      </trkpt>
      <trkpt lat="43.86895" lon="6.6272">
        <ele>1435</ele>
        <time>2021-09-18T10:34:56Z</time>
      </trkpt>
      <trkpt lat="43.86897" lon="6.6272">
        <ele>1435.1</ele>
        <time>2021-09-18T10:34:58Z</time>
      </trkpt>
      <trkpt lat="43.869" lon="6.62719">
        <ele>1435.3</ele>
        <time>2021-09-18T10:34:59Z</time>
      </trkpt>
      <trkpt lat="43.86902" lon="6.62718">
        <ele>1435.5</ele>
        <time>2021-09-18T10:35:01Z</time>
      </trkpt>
      <trkpt lat="43.86904" lon="6.62716">
        <ele>1435.6</ele>
        <time>2021-09-18T10:35:02Z</time>
      </trkpt>
      <trkpt lat="43.86907" lon="6.62713">
        <ele>1435.8</ele>
        <time>2021-09-18T10:35:04Z</time>
      </trkpt>
      <trkpt lat="43.86909" lon="6.6271">
        <ele>1436</ele>
        <time>2021-09-18T10:35:05Z</time>
      </trkpt>
      <trkpt lat="43.8691" lon="6.62709">
        <ele>1436.1</ele>
        <time>2021-09-18T10:35:06Z</time>
      </trkpt>
      <trkpt lat="43.86912" lon="6.62705">
        <ele>1436.3</ele>
        <time>2021-09-18T10:35:08Z</time>
      </trkpt>
      <trkpt lat="43.86914" lon="6.62703">
        <ele>1436.4</ele>
        <time>2021-09-18T10:35:09Z</time>
      </trkpt>
      <trkpt lat="43.86917" lon="6.62701">
        <ele>1436.6</ele>
        <time>2021-09-18T10:35:11Z</time>
      </trkpt>
      <trkpt lat="43.8692" lon="6.627">
        <ele>1436.9</ele>
        <time>2021-09-18T10:35:13Z</time>
      </trkpt>
      <trkpt lat="43.86923" lon="6.62699">
        <ele>1437</ele>
        <time>2021-09-18T10:35:14Z</time>
      </trkpt>
      <trkpt lat="43.86927" lon="6.62697">
        <ele>1437.2</ele>
        <time>2021-09-18T10:35:16Z</time>
      </trkpt>
      <trkpt lat="43.86928" lon="6.62696">
        <ele>1437.3</ele>
        <time>2021-09-18T10:35:17Z</time>
      </trkpt>
      <trkpt lat="43.86929" lon="6.62694">
        <ele>1437.4</ele>
        <time>2021-09-18T10:35:18Z</time>
      </trkpt>
      <trkpt lat="43.86932" lon="6.62695">
        <ele>1437.6</ele>
        <time>2021-09-18T10:35:20Z</time>
      </trkpt>
      <trkpt lat="43.86936" lon="6.62699">
        <ele>1437.8</ele>
        <time>2021-09-18T10:35:22Z</time>
      </trkpt>
      <trkpt lat="43.86938" lon="6.627">
        <ele>1437.9</ele>
        <time>2021-09-18T10:35:24Z</time>
      </trkpt>
      <trkpt lat="43.86939" lon="6.62701">
        <ele>1438.1</ele>
        <time>2021-09-18T10:35:25Z</time>
      </trkpt>
      <trkpt lat="43.86941" lon="6.62702">
        <ele>1438.2</ele>
        <time>2021-09-18T10:35:26Z</time>
      </trkpt>
      <trkpt lat="43.86944" lon="6.62703">
        <ele>1438.2</ele>
        <time>2021-09-18T10:35:28Z</time>
      </trkpt>
      <trkpt lat="43.86947" lon="6.62704">
        <ele>1438.4</ele>
        <time>2021-09-18T10:35:29Z</time>
      </trkpt>
      <trkpt lat="43.8695" lon="6.62705">
        <ele>1438.6</ele>
        <time>2021-09-18T10:35:30Z</time>
      </trkpt>
      <trkpt lat="43.86954" lon="6.62707">
        <ele>1438.9</ele>
        <time>2021-09-18T10:35:32Z</time>
      </trkpt>
      <trkpt lat="43.86958" lon="6.6271">
        <ele>1439.1</ele>
        <time>2021-09-18T10:35:34Z</time>
      </trkpt>
      <trkpt lat="43.86962" lon="6.62713">
        <ele>1439.4</ele>
        <time>2021-09-18T10:35:36Z</time>
      </trkpt>
      <trkpt lat="43.86965" lon="6.62717">
        <ele>1439.6</ele>
        <time>2021-09-18T10:35:38Z</time>
      </trkpt>
      <trkpt lat="43.86968" lon="6.62718">
        <ele>1439.8</ele>
        <time>2021-09-18T10:35:39Z</time>
      </trkpt>
      <trkpt lat="43.86969" lon="6.62718">
        <ele>1439.9</ele>
        <time>2021-09-18T10:35:40Z</time>
      </trkpt>
      <trkpt lat="43.8697" lon="6.62717">
        <ele>1440</ele>
        <time>2021-09-18T10:35:41Z</time>
      </trkpt>
      <trkpt lat="43.86971" lon="6.62717">
        <ele>1440.1</ele>
        <time>2021-09-18T10:35:43Z</time>
      </trkpt>
      <trkpt lat="43.86973" lon="6.62718">
        <ele>1440.2</ele>
        <time>2021-09-18T10:35:44Z</time>
      </trkpt>
      <trkpt lat="43.86975" lon="6.62718">
        <ele>1440.3</ele>
        <time>2021-09-18T10:35:46Z</time>
      </trkpt>
      <trkpt lat="43.86976" lon="6.62718">
        <ele>1440.4</ele>
        <time>2021-09-18T10:35:47Z</time>
      </trkpt>
      <trkpt lat="43.86978" lon="6.62717">
        <ele>1440.5</ele>
        <time>2021-09-18T10:35:48Z</time>
      </trkpt>
      <trkpt lat="43.8698" lon="6.62714">
        <ele>1440.7</ele>
        <time>2021-09-18T10:35:50Z</time>
      </trkpt>
      <trkpt lat="43.86981" lon="6.62713">
        <ele>1440.8</ele>
        <time>2021-09-18T10:35:51Z</time>
      </trkpt>
      <trkpt lat="43.86984" lon="6.6271">
        <ele>1441.1</ele>
        <time>2021-09-18T10:35:53Z</time>
      </trkpt>
      <trkpt lat="43.86985" lon="6.62708">
        <ele>1441.2</ele>
        <time>2021-09-18T10:35:54Z</time>
      </trkpt>
      <trkpt lat="43.86987" lon="6.62704">
        <ele>1441.5</ele>
        <time>2021-09-18T10:35:56Z</time>
      </trkpt>
      <trkpt lat="43.86988" lon="6.62702">
        <ele>1441.6</ele>
        <time>2021-09-18T10:35:57Z</time>
      </trkpt>
      <trkpt lat="43.86989" lon="6.62701">
        <ele>1441.7</ele>
        <time>2021-09-18T10:35:58Z</time>
      </trkpt>
      <trkpt lat="43.86992" lon="6.62697">
        <ele>1442</ele>
        <time>2021-09-18T10:36:00Z</time>
      </trkpt>
      <trkpt lat="43.86993" lon="6.62696">
        <ele>1442.1</ele>
        <time>2021-09-18T10:36:01Z</time>
      </trkpt>
      <trkpt lat="43.86996" lon="6.62693">
        <ele>1442.3</ele>
        <time>2021-09-18T10:36:03Z</time>
      </trkpt>
      <trkpt lat="43.86998" lon="6.6269">
        <ele>1442.5</ele>
        <time>2021-09-18T10:36:04Z</time>
      </trkpt>
      <trkpt lat="43.87" lon="6.62688">
        <ele>1442.7</ele>
        <time>2021-09-18T10:36:06Z</time>
      </trkpt>
      <trkpt lat="43.87002" lon="6.62685">
        <ele>1443</ele>
        <time>2021-09-18T10:36:07Z</time>
      </trkpt>
      <trkpt lat="43.87002" lon="6.62684">
        <ele>1443</ele>
        <time>2021-09-18T10:36:08Z</time>
      </trkpt>
      <trkpt lat="43.87005" lon="6.62681">
        <ele>1443.3</ele>
        <time>2021-09-18T10:36:10Z</time>
      </trkpt>
      <trkpt lat="43.87007" lon="6.6268">
        <ele>1443.5</ele>
        <time>2021-09-18T10:36:11Z</time>
      </trkpt>
      <trkpt lat="43.87008" lon="6.6268">
        <ele>1443.5</ele>
        <time>2021-09-18T10:36:12Z</time>
      </trkpt>
      <trkpt lat="43.8701" lon="6.6268">
        <ele>1443.7</ele>
        <time>2021-09-18T10:36:14Z</time>
      </trkpt>
      <trkpt lat="43.87013" lon="6.6268">
        <ele>1443.9</ele>
        <time>2021-09-18T10:36:16Z</time>
      </trkpt>
      <trkpt lat="43.87014" lon="6.6268">
        <ele>1444</ele>
        <time>2021-09-18T10:36:17Z</time>
      </trkpt>
      <trkpt lat="43.87016" lon="6.62679">
        <ele>1444.2</ele>
        <time>2021-09-18T10:36:18Z</time>
      </trkpt>
      <trkpt lat="43.87019" lon="6.62677">
        <ele>1444.5</ele>
        <time>2021-09-18T10:36:20Z</time>
      </trkpt>
      <trkpt lat="43.8702" lon="6.62675">
        <ele>1444.6</ele>
        <time>2021-09-18T10:36:21Z</time>
      </trkpt>
      <trkpt lat="43.87022" lon="6.62673">
        <ele>1444.8</ele>
        <time>2021-09-18T10:36:22Z</time>
      </trkpt>
      <trkpt lat="43.87023" lon="6.62672">
        <ele>1444.9</ele>
        <time>2021-09-18T10:36:23Z</time>
      </trkpt>
      <trkpt lat="43.87023" lon="6.6267">
        <ele>1445</ele>
        <time>2021-09-18T10:36:24Z</time>
      </trkpt>
      <trkpt lat="43.87025" lon="6.62667">
        <ele>1445.2</ele>
        <time>2021-09-18T10:36:26Z</time>
      </trkpt>
      <trkpt lat="43.87027" lon="6.62667">
        <ele>1445.4</ele>
        <time>2021-09-18T10:36:27Z</time>
      </trkpt>
      <trkpt lat="43.87029" lon="6.62666">
        <ele>1445.5</ele>
        <time>2021-09-18T10:36:29Z</time>
      </trkpt>
      <trkpt lat="43.87031" lon="6.62663">
        <ele>1445.8</ele>
        <time>2021-09-18T10:36:30Z</time>
      </trkpt>
      <trkpt lat="43.87032" lon="6.62661">
        <ele>1445.9</ele>
        <time>2021-09-18T10:36:31Z</time>
      </trkpt>
      <trkpt lat="43.87033" lon="6.62658">
        <ele>1446.1</ele>
        <time>2021-09-18T10:36:32Z</time>
      </trkpt>
      <trkpt lat="43.87035" lon="6.62652">
        <ele>1446.5</ele>
        <time>2021-09-18T10:36:34Z</time>
      </trkpt>
      <trkpt lat="43.87037" lon="6.62649">
        <ele>1446.7</ele>
        <time>2021-09-18T10:36:35Z</time>
      </trkpt>
      <trkpt lat="43.87039" lon="6.62645">
        <ele>1447</ele>
        <time>2021-09-18T10:36:37Z</time>
      </trkpt>
      <trkpt lat="43.87041" lon="6.62642">
        <ele>1447.2</ele>
        <time>2021-09-18T10:36:38Z</time>
      </trkpt>
      <trkpt lat="43.87044" lon="6.62638">
        <ele>1447.5</ele>
        <time>2021-09-18T10:36:40Z</time>
      </trkpt>
      <trkpt lat="43.87045" lon="6.62634">
        <ele>1447.7</ele>
        <time>2021-09-18T10:36:41Z</time>
      </trkpt>
      <trkpt lat="43.87047" lon="6.62633">
        <ele>1447.9</ele>
        <time>2021-09-18T10:36:42Z</time>
      </trkpt>
      <trkpt lat="43.87049" lon="6.62631">
        <ele>1448</ele>
        <time>2021-09-18T10:36:44Z</time>
      </trkpt>
      <trkpt lat="43.8705" lon="6.62631">
        <ele>1448.1</ele>
        <time>2021-09-18T10:36:45Z</time>
      </trkpt>
      <trkpt lat="43.87052" lon="6.62632">
        <ele>1448.3</ele>
        <time>2021-09-18T10:36:47Z</time>
      </trkpt>
      <trkpt lat="43.87054" lon="6.62633">
        <ele>1448.4</ele>
        <time>2021-09-18T10:36:49Z</time>
      </trkpt>
      <trkpt lat="43.87055" lon="6.62634">
        <ele>1448.5</ele>
        <time>2021-09-18T10:36:50Z</time>
      </trkpt>
      <trkpt lat="43.87057" lon="6.62634">
        <ele>1448.7</ele>
        <time>2021-09-18T10:36:52Z</time>
      </trkpt>
      <trkpt lat="43.87059" lon="6.62634">
        <ele>1448.8</ele>
        <time>2021-09-18T10:36:53Z</time>
      </trkpt>
      <trkpt lat="43.87062" lon="6.62634">
        <ele>1449</ele>
        <time>2021-09-18T10:36:55Z</time>
      </trkpt>
      <trkpt lat="43.87062" lon="6.62634">
        <ele>1449</ele>
        <time>2021-09-18T10:36:56Z</time>
      </trkpt>
      <trkpt lat="43.87065" lon="6.6263">
        <ele>1449.3</ele>
        <time>2021-09-18T10:36:58Z</time>
      </trkpt>
      <trkpt lat="43.87066" lon="6.62627">
        <ele>1449.5</ele>
        <time>2021-09-18T10:36:59Z</time>
      </trkpt>
      <trkpt lat="43.87069" lon="6.62624">
        <ele>1449.7</ele>
        <time>2021-09-18T10:37:00Z</time>
      </trkpt>
      <trkpt lat="43.87072" lon="6.62621">
        <ele>1450</ele>
        <time>2021-09-18T10:37:01Z</time>
      </trkpt>
      <trkpt lat="43.87073" lon="6.6262">
        <ele>1450.1</ele>
        <time>2021-09-18T10:37:02Z</time>
      </trkpt>
      <trkpt lat="43.87075" lon="6.62618">
        <ele>1450.2</ele>
        <time>2021-09-18T10:37:03Z</time>
      </trkpt>
      <trkpt lat="43.87077" lon="6.62617">
        <ele>1450.4</ele>
        <time>2021-09-18T10:37:05Z</time>
      </trkpt>
      <trkpt lat="43.87079" lon="6.62614">
        <ele>1450.6</ele>
        <time>2021-09-18T10:37:06Z</time>
      </trkpt>
      <trkpt lat="43.87079" lon="6.62612">
        <ele>1450.7</ele>
        <time>2021-09-18T10:37:07Z</time>
      </trkpt>
      <trkpt lat="43.87081" lon="6.6261">
        <ele>1450.8</ele>
        <time>2021-09-18T10:37:08Z</time>
      </trkpt>
      <trkpt lat="43.87083" lon="6.62608">
        <ele>1451</ele>
        <time>2021-09-18T10:37:10Z</time>
      </trkpt>
      <trkpt lat="43.87083" lon="6.62607">
        <ele>1451.1</ele>
        <time>2021-09-18T10:37:11Z</time>
      </trkpt>
      <trkpt lat="43.87084" lon="6.62603">
        <ele>1451.3</ele>
        <time>2021-09-18T10:37:13Z</time>
      </trkpt>
      <trkpt lat="43.87085" lon="6.62602">
        <ele>1451.4</ele>
        <time>2021-09-18T10:37:14Z</time>
      </trkpt>
      <trkpt lat="43.87087" lon="6.626">
        <ele>1451.5</ele>
        <time>2021-09-18T10:37:15Z</time>
      </trkpt>
      <trkpt lat="43.8709" lon="6.62597">
        <ele>1451.8</ele>
        <time>2021-09-18T10:37:17Z</time>
      </trkpt>
      <trkpt lat="43.87093" lon="6.62595">
        <ele>1452</ele>
        <time>2021-09-18T10:37:18Z</time>
      </trkpt>
      <trkpt lat="43.87093" lon="6.62594">
        <ele>1452.1</ele>
        <time>2021-09-18T10:37:19Z</time>
      </trkpt>
      <trkpt lat="43.87095" lon="6.62594">
        <ele>1452.2</ele>
        <time>2021-09-18T10:37:20Z</time>
      </trkpt>
      <trkpt lat="43.87098" lon="6.62594">
        <ele>1452.4</ele>
        <time>2021-09-18T10:37:22Z</time>
      </trkpt>
      <trkpt lat="43.871" lon="6.62593">
        <ele>1452.6</ele>
        <time>2021-09-18T10:37:23Z</time>
      </trkpt>
      <trkpt lat="43.87101" lon="6.62593">
        <ele>1452.6</ele>
        <time>2021-09-18T10:37:24Z</time>
      </trkpt>
      <trkpt lat="43.87103" lon="6.62594">
        <ele>1452.8</ele>
        <time>2021-09-18T10:37:26Z</time>
      </trkpt>
      <trkpt lat="43.87106" lon="6.62594">
        <ele>1453</ele>
        <time>2021-09-18T10:37:28Z</time>
      </trkpt>
      <trkpt lat="43.87109" lon="6.62593">
        <ele>1453.3</ele>
        <time>2021-09-18T10:37:30Z</time>
      </trkpt>
      <trkpt lat="43.8711" lon="6.62593">
        <ele>1453.3</ele>
        <time>2021-09-18T10:37:31Z</time>
      </trkpt>
      <trkpt lat="43.87111" lon="6.62591">
        <ele>1453.4</ele>
        <time>2021-09-18T10:37:32Z</time>
      </trkpt>
      <trkpt lat="43.87112" lon="6.62588">
        <ele>1453.6</ele>
        <time>2021-09-18T10:37:34Z</time>
      </trkpt>
      <trkpt lat="43.87115" lon="6.62586">
        <ele>1453.8</ele>
        <time>2021-09-18T10:37:35Z</time>
      </trkpt>
      <trkpt lat="43.87118" lon="6.62582">
        <ele>1454.1</ele>
        <time>2021-09-18T10:37:37Z</time>
      </trkpt>
      <trkpt lat="43.8712" lon="6.62579">
        <ele>1454.3</ele>
        <time>2021-09-18T10:37:38Z</time>
      </trkpt>
      <trkpt lat="43.8712" lon="6.62577">
        <ele>1454.4</ele>
        <time>2021-09-18T10:37:39Z</time>
      </trkpt>
      <trkpt lat="43.87122" lon="6.62573">
        <ele>1454.6</ele>
        <time>2021-09-18T10:37:40Z</time>
      </trkpt>
      <trkpt lat="43.87122" lon="6.62572">
        <ele>1454.7</ele>
        <time>2021-09-18T10:37:41Z</time>
      </trkpt>
      <trkpt lat="43.87125" lon="6.6257">
        <ele>1454.9</ele>
        <time>2021-09-18T10:37:43Z</time>
      </trkpt>
      <trkpt lat="43.87126" lon="6.62569">
        <ele>1455</ele>
        <time>2021-09-18T10:37:44Z</time>
      </trkpt>
      <trkpt lat="43.87129" lon="6.62566">
        <ele>1455.2</ele>
        <time>2021-09-18T10:37:46Z</time>
      </trkpt>
      <trkpt lat="43.8713" lon="6.62565">
        <ele>1455.3</ele>
        <time>2021-09-18T10:37:47Z</time>
      </trkpt>
      <trkpt lat="43.87131" lon="6.62563">
        <ele>1455.4</ele>
        <time>2021-09-18T10:37:48Z</time>
      </trkpt>
      <trkpt lat="43.87132" lon="6.62561">
        <ele>1455.5</ele>
        <time>2021-09-18T10:37:50Z</time>
      </trkpt>
      <trkpt lat="43.87134" lon="6.62559">
        <ele>1455.7</ele>
        <time>2021-09-18T10:37:51Z</time>
      </trkpt>
      <trkpt lat="43.87136" lon="6.62556">
        <ele>1455.9</ele>
        <time>2021-09-18T10:37:53Z</time>
      </trkpt>
      <trkpt lat="43.87138" lon="6.62553">
        <ele>1456.1</ele>
        <time>2021-09-18T10:37:55Z</time>
      </trkpt>
      <trkpt lat="43.87138" lon="6.62551">
        <ele>1456.2</ele>
        <time>2021-09-18T10:37:56Z</time>
      </trkpt>
      <trkpt lat="43.87139" lon="6.62549">
        <ele>1456.3</ele>
        <time>2021-09-18T10:37:58Z</time>
      </trkpt>
      <trkpt lat="43.87139" lon="6.62549">
        <ele>1456.3</ele>
        <time>2021-09-18T10:37:59Z</time>
      </trkpt>
      <trkpt lat="43.87139" lon="6.62547">
        <ele>1456.3</ele>
        <time>2021-09-18T10:38:00Z</time>
      </trkpt>
      <trkpt lat="43.87141" lon="6.62546">
        <ele>1456.4</ele>
        <time>2021-09-18T10:38:02Z</time>
      </trkpt>
      <trkpt lat="43.87143" lon="6.62543">
        <ele>1456.6</ele>
        <time>2021-09-18T10:38:04Z</time>
      </trkpt>
      <trkpt lat="43.87144" lon="6.62539">
        <ele>1456.8</ele>
        <time>2021-09-18T10:38:06Z</time>
      </trkpt>
      <trkpt lat="43.87144" lon="6.62536">
        <ele>1456.9</ele>
        <time>2021-09-18T10:38:07Z</time>
      </trkpt>
      <trkpt lat="43.87145" lon="6.62534">
        <ele>1457</ele>
        <time>2021-09-18T10:38:08Z</time>
      </trkpt>
      <trkpt lat="43.87146" lon="6.62529">
        <ele>1457.3</ele>
        <time>2021-09-18T10:38:10Z</time>
      </trkpt>
      <trkpt lat="43.87147" lon="6.62527">
        <ele>1457.4</ele>
        <time>2021-09-18T10:38:11Z</time>
      </trkpt>
      <trkpt lat="43.87148" lon="6.62522">
        <ele>1457.6</ele>
        <time>2021-09-18T10:38:13Z</time>
      </trkpt>
      <trkpt lat="43.87149" lon="6.62517">
        <ele>1457.8</ele>
        <time>2021-09-18T10:38:15Z</time>
      </trkpt>
      <trkpt lat="43.8715" lon="6.62513">
        <ele>1458</ele>
        <time>2021-09-18T10:38:16Z</time>
      </trkpt>
      <trkpt lat="43.8715" lon="6.62511">
        <ele>1458.1</ele>
        <time>2021-09-18T10:38:17Z</time>
      </trkpt>
      <trkpt lat="43.87152" lon="6.62508">
        <ele>1458.3</ele>
        <time>2021-09-18T10:38:19Z</time>
      </trkpt>
      <trkpt lat="43.87154" lon="6.62504">
        <ele>1458.5</ele>
        <time>2021-09-18T10:38:20Z</time>
      </trkpt>
      <trkpt lat="43.87156" lon="6.62501">
        <ele>1458.7</ele>
        <time>2021-09-18T10:38:22Z</time>
      </trkpt>
      <trkpt lat="43.87157" lon="6.62499">
        <ele>1458.8</ele>
        <time>2021-09-18T10:38:23Z</time>
      </trkpt>
      <trkpt lat="43.87158" lon="6.62497">
        <ele>1458.9</ele>
        <time>2021-09-18T10:38:24Z</time>
      </trkpt>
      <trkpt lat="43.87159" lon="6.62495">
        <ele>1459</ele>
        <time>2021-09-18T10:38:26Z</time>
      </trkpt>
      <trkpt lat="43.8716" lon="6.62492">
        <ele>1459.2</ele>
        <time>2021-09-18T10:38:27Z</time>
      </trkpt>
      <trkpt lat="43.87162" lon="6.6249">
        <ele>1459.3</ele>
        <time>2021-09-18T10:38:29Z</time>
      </trkpt>
      <trkpt lat="43.87163" lon="6.62486">
        <ele>1459.5</ele>
        <time>2021-09-18T10:38:30Z</time>
      </trkpt>
      <trkpt lat="43.87164" lon="6.62485">
        <ele>1459.6</ele>
        <time>2021-09-18T10:38:31Z</time>
      </trkpt>
      <trkpt lat="43.87165" lon="6.62483">
        <ele>1459.7</ele>
        <time>2021-09-18T10:38:32Z</time>
      </trkpt>
      <trkpt lat="43.87166" lon="6.6248">
        <ele>1459.9</ele>
        <time>2021-09-18T10:38:34Z</time>
      </trkpt>
      <trkpt lat="43.87167" lon="6.62479">
        <ele>1459.9</ele>
        <time>2021-09-18T10:38:35Z</time>
      </trkpt>
      <trkpt lat="43.87171" lon="6.62475">
        <ele>1460.3</ele>
        <time>2021-09-18T10:38:37Z</time>
      </trkpt>
      <trkpt lat="43.87174" lon="6.62471">
        <ele>1460.6</ele>
        <time>2021-09-18T10:38:39Z</time>
      </trkpt>
      <trkpt lat="43.87177" lon="6.62469">
        <ele>1460.8</ele>
        <time>2021-09-18T10:38:40Z</time>
      </trkpt>
      <trkpt lat="43.87179" lon="6.62468">
        <ele>1460.9</ele>
        <time>2021-09-18T10:38:41Z</time>
      </trkpt>
      <trkpt lat="43.87183" lon="6.62466">
        <ele>1461.2</ele>
        <time>2021-09-18T10:38:43Z</time>
      </trkpt>
      <trkpt lat="43.87185" lon="6.62464">
        <ele>1461.4</ele>
        <time>2021-09-18T10:38:44Z</time>
      </trkpt>
      <trkpt lat="43.87188" lon="6.62463">
        <ele>1461.6</ele>
        <time>2021-09-18T10:38:46Z</time>
      </trkpt>
      <trkpt lat="43.87191" lon="6.62464">
        <ele>1461.8</ele>
        <time>2021-09-18T10:38:47Z</time>
      </trkpt>
      <trkpt lat="43.87194" lon="6.62464">
        <ele>1462</ele>
        <time>2021-09-18T10:38:49Z</time>
      </trkpt>
      <trkpt lat="43.87197" lon="6.62467">
        <ele>1462.4</ele>
        <time>2021-09-18T10:38:51Z</time>
      </trkpt>
      <trkpt lat="43.872" lon="6.62469">
        <ele>1462.6</ele>
        <time>2021-09-18T10:38:52Z</time>
      </trkpt>
      <trkpt lat="43.87201" lon="6.62469">
        <ele>1462.7</ele>
        <time>2021-09-18T10:38:53Z</time>
      </trkpt>
      <trkpt lat="43.87202" lon="6.62471">
        <ele>1462.8</ele>
        <time>2021-09-18T10:38:54Z</time>
      </trkpt>
      <trkpt lat="43.87204" lon="6.62474">
        <ele>1463.1</ele>
        <time>2021-09-18T10:38:56Z</time>
      </trkpt>
      <trkpt lat="43.87206" lon="6.62476">
        <ele>1463.3</ele>
        <time>2021-09-18T10:38:58Z</time>
      </trkpt>
      <trkpt lat="43.87209" lon="6.62478">
        <ele>1463.5</ele>
        <time>2021-09-18T10:39:00Z</time>
      </trkpt>
      <trkpt lat="43.87211" lon="6.62478">
        <ele>1463.7</ele>
        <time>2021-09-18T10:39:01Z</time>
      </trkpt>
      <trkpt lat="43.87214" lon="6.62476">
        <ele>1464</ele>
        <time>2021-09-18T10:39:02Z</time>
      </trkpt>
      <trkpt lat="43.87216" lon="6.62475">
        <ele>1464.1</ele>
        <time>2021-09-18T10:39:03Z</time>
      </trkpt>
      <trkpt lat="43.87218" lon="6.62475">
        <ele>1464.4</ele>
        <time>2021-09-18T10:39:05Z</time>
      </trkpt>
      <trkpt lat="43.8722" lon="6.62476">
        <ele>1464.6</ele>
        <time>2021-09-18T10:39:07Z</time>
      </trkpt>
      <trkpt lat="43.87223" lon="6.62479">
        <ele>1464.9</ele>
        <time>2021-09-18T10:39:09Z</time>
      </trkpt>
      <trkpt lat="43.87226" lon="6.62481">
        <ele>1465.2</ele>
        <time>2021-09-18T10:39:10Z</time>
      </trkpt>
      <trkpt lat="43.87229" lon="6.62483">
        <ele>1465.5</ele>
        <time>2021-09-18T10:39:11Z</time>
      </trkpt>
      <trkpt lat="43.8723" lon="6.62484">
        <ele>1465.6</ele>
        <time>2021-09-18T10:39:12Z</time>
      </trkpt>
      <trkpt lat="43.87234" lon="6.62484">
        <ele>1465.9</ele>
        <time>2021-09-18T10:39:14Z</time>
      </trkpt>
      <trkpt lat="43.87237" lon="6.62485">
        <ele>1466.2</ele>
        <time>2021-09-18T10:39:16Z</time>
      </trkpt>
      <trkpt lat="43.87241" lon="6.62485">
        <ele>1466.5</ele>
        <time>2021-09-18T10:39:18Z</time>
      </trkpt>
      <trkpt lat="43.87244" lon="6.62482">
        <ele>1466.9</ele>
        <time>2021-09-18T10:39:20Z</time>
      </trkpt>
      <trkpt lat="43.87246" lon="6.6248">
        <ele>1467.1</ele>
        <time>2021-09-18T10:39:21Z</time>
      </trkpt>
      <trkpt lat="43.87248" lon="6.6248">
        <ele>1467.2</ele>
        <time>2021-09-18T10:39:23Z</time>
      </trkpt>
      <trkpt lat="43.8725" lon="6.6248">
        <ele>1467.4</ele>
        <time>2021-09-18T10:39:24Z</time>
      </trkpt>
      <trkpt lat="43.87252" lon="6.62481">
        <ele>1467.7</ele>
        <time>2021-09-18T10:39:26Z</time>
      </trkpt>
      <trkpt lat="43.87255" lon="6.62481">
        <ele>1467.9</ele>
        <time>2021-09-18T10:39:28Z</time>
      </trkpt>
      <trkpt lat="43.87258" lon="6.62481">
        <ele>1468.2</ele>
        <time>2021-09-18T10:39:29Z</time>
      </trkpt>
      <trkpt lat="43.87262" lon="6.62481">
        <ele>1468.5</ele>
        <time>2021-09-18T10:39:31Z</time>
      </trkpt>
      <trkpt lat="43.87263" lon="6.62481">
        <ele>1468.6</ele>
        <time>2021-09-18T10:39:32Z</time>
      </trkpt>
      <trkpt lat="43.87265" lon="6.62481">
        <ele>1468.8</ele>
        <time>2021-09-18T10:39:33Z</time>
      </trkpt>
      <trkpt lat="43.87269" lon="6.62482">
        <ele>1469.1</ele>
        <time>2021-09-18T10:39:35Z</time>
      </trkpt>
      <trkpt lat="43.87272" lon="6.62483">
        <ele>1469.3</ele>
        <time>2021-09-18T10:39:36Z</time>
      </trkpt>
      <trkpt lat="43.87273" lon="6.62483">
        <ele>1469.4</ele>
        <time>2021-09-18T10:39:37Z</time>
      </trkpt>
      <trkpt lat="43.87274" lon="6.62482">
        <ele>1469.6</ele>
        <time>2021-09-18T10:39:38Z</time>
      </trkpt>
      <trkpt lat="43.87276" lon="6.62483">
        <ele>1469.7</ele>
        <time>2021-09-18T10:39:39Z</time>
      </trkpt>
      <trkpt lat="43.87277" lon="6.62483">
        <ele>1469.8</ele>
        <time>2021-09-18T10:39:40Z</time>
      </trkpt>
      <trkpt lat="43.87282" lon="6.62484">
        <ele>1470.2</ele>
        <time>2021-09-18T10:39:42Z</time>
      </trkpt>
      <trkpt lat="43.87285" lon="6.62484">
        <ele>1470.4</ele>
        <time>2021-09-18T10:39:43Z</time>
      </trkpt>
      <trkpt lat="43.87286" lon="6.62483">
        <ele>1470.5</ele>
        <time>2021-09-18T10:39:44Z</time>
      </trkpt>
      <trkpt lat="43.87289" lon="6.62481">
        <ele>1470.8</ele>
        <time>2021-09-18T10:39:46Z</time>
      </trkpt>
      <trkpt lat="43.87291" lon="6.6248">
        <ele>1471</ele>
        <time>2021-09-18T10:39:48Z</time>
      </trkpt>
      <trkpt lat="43.87293" lon="6.62479">
        <ele>1471.1</ele>
        <time>2021-09-18T10:39:49Z</time>
      </trkpt>
      <trkpt lat="43.87294" lon="6.62478">
        <ele>1471.2</ele>
        <time>2021-09-18T10:39:50Z</time>
      </trkpt>
      <trkpt lat="43.87297" lon="6.62476">
        <ele>1471.5</ele>
        <time>2021-09-18T10:39:52Z</time>
      </trkpt>
      <trkpt lat="43.87298" lon="6.62476">
        <ele>1471.5</ele>
        <time>2021-09-18T10:39:53Z</time>
      </trkpt>
      <trkpt lat="43.87299" lon="6.62475">
        <ele>1471.6</ele>
        <time>2021-09-18T10:39:54Z</time>
      </trkpt>
      <trkpt lat="43.87301" lon="6.62473">
        <ele>1471.8</ele>
        <time>2021-09-18T10:39:56Z</time>
      </trkpt>
      <trkpt lat="43.87306" lon="6.62469">
        <ele>1472.2</ele>
        <time>2021-09-18T10:39:58Z</time>
      </trkpt>
      <trkpt lat="43.87308" lon="6.62468">
        <ele>1472.4</ele>
        <time>2021-09-18T10:40:00Z</time>
      </trkpt>
      <trkpt lat="43.8731" lon="6.62468">
        <ele>1472.5</ele>
        <time>2021-09-18T10:40:01Z</time>
      </trkpt>
      <trkpt lat="43.87314" lon="6.62469">
        <ele>1472.7</ele>
        <time>2021-09-18T10:40:03Z</time>
      </trkpt>
      <trkpt lat="43.87318" lon="6.62472">
        <ele>1473</ele>
        <time>2021-09-18T10:40:05Z</time>
      </trkpt>
      <trkpt lat="43.87322" lon="6.6247">
        <ele>1473.3</ele>
        <time>2021-09-18T10:40:07Z</time>
      </trkpt>
      <trkpt lat="43.87325" lon="6.62468">
        <ele>1473.6</ele>
        <time>2021-09-18T10:40:09Z</time>
      </trkpt>
      <trkpt lat="43.87327" lon="6.62468">
        <ele>1473.7</ele>
        <time>2021-09-18T10:40:10Z</time>
      </trkpt>
      <trkpt lat="43.8733" lon="6.62467">
        <ele>1473.9</ele>
        <time>2021-09-18T10:40:12Z</time>
      </trkpt>
      <trkpt lat="43.87333" lon="6.62466">
        <ele>1474.1</ele>
        <time>2021-09-18T10:40:14Z</time>
      </trkpt>
      <trkpt lat="43.87334" lon="6.62467">
        <ele>1474.2</ele>
        <time>2021-09-18T10:40:15Z</time>
      </trkpt>
      <trkpt lat="43.87334" lon="6.62468">
        <ele>1474.2</ele>
        <time>2021-09-18T10:40:17Z</time>
      </trkpt>
      <trkpt lat="43.87335" lon="6.62469">
        <ele>1474.3</ele>
        <time>2021-09-18T10:40:18Z</time>
      </trkpt>
      <trkpt lat="43.87337" lon="6.6247">
        <ele>1474.5</ele>
        <time>2021-09-18T10:40:19Z</time>
      </trkpt>
      <trkpt lat="43.87338" lon="6.6247">
        <ele>1474.5</ele>
        <time>2021-09-18T10:40:20Z</time>
      </trkpt>
      <trkpt lat="43.87339" lon="6.6247">
        <ele>1474.6</ele>
        <time>2021-09-18T10:40:21Z</time>
      </trkpt>
      <trkpt lat="43.87341" lon="6.62469">
        <ele>1474.7</ele>
        <time>2021-09-18T10:40:22Z</time>
      </trkpt>
      <trkpt lat="43.87342" lon="6.6247">
        <ele>1474.8</ele>
        <time>2021-09-18T10:40:23Z</time>
      </trkpt>
      <trkpt lat="43.87347" lon="6.62471">
        <ele>1475.2</ele>
        <time>2021-09-18T10:40:25Z</time>
      </trkpt>
      <trkpt lat="43.87349" lon="6.62472">
        <ele>1475.3</ele>
        <time>2021-09-18T10:40:26Z</time>
      </trkpt>
      <trkpt lat="43.87353" lon="6.62472">
        <ele>1475.6</ele>
        <time>2021-09-18T10:40:28Z</time>
      </trkpt>
      <trkpt lat="43.87354" lon="6.62472">
        <ele>1475.7</ele>
        <time>2021-09-18T10:40:29Z</time>
      </trkpt>
      <trkpt lat="43.87358" lon="6.62472">
        <ele>1475.9</ele>
        <time>2021-09-18T10:40:31Z</time>
      </trkpt>
      <trkpt lat="43.87359" lon="6.62471">
        <ele>1476</ele>
        <time>2021-09-18T10:40:32Z</time>
      </trkpt>
      <trkpt lat="43.8736" lon="6.62471">
        <ele>1476.1</ele>
        <time>2021-09-18T10:40:34Z</time>
      </trkpt>
      <trkpt lat="43.8736" lon="6.62471">
        <ele>1476.1</ele>
        <time>2021-09-18T10:40:35Z</time>
      </trkpt>
      <trkpt lat="43.87361" lon="6.62471">
        <ele>1476.2</ele>
        <time>2021-09-18T10:40:36Z</time>
      </trkpt>
      <trkpt lat="43.87364" lon="6.62471">
        <ele>1476.4</ele>
        <time>2021-09-18T10:40:38Z</time>
      </trkpt>
      <trkpt lat="43.87367" lon="6.6247">
        <ele>1476.7</ele>
        <time>2021-09-18T10:40:39Z</time>
      </trkpt>
      <trkpt lat="43.8737" lon="6.62468">
        <ele>1477</ele>
        <time>2021-09-18T10:40:41Z</time>
      </trkpt>
      <trkpt lat="43.87373" lon="6.62466">
        <ele>1477.3</ele>
        <time>2021-09-18T10:40:42Z</time>
      </trkpt>
      <trkpt lat="43.87374" lon="6.62465">
        <ele>1477.3</ele>
        <time>2021-09-18T10:40:43Z</time>
      </trkpt>
      <trkpt lat="43.87377" lon="6.62465">
        <ele>1477.6</ele>
        <time>2021-09-18T10:40:44Z</time>
      </trkpt>
      <trkpt lat="43.87378" lon="6.62465">
        <ele>1477.7</ele>
        <time>2021-09-18T10:40:45Z</time>
      </trkpt>
      <trkpt lat="43.87382" lon="6.62466">
        <ele>1478</ele>
        <time>2021-09-18T10:40:47Z</time>
      </trkpt>
      <trkpt lat="43.87382" lon="6.62466">
        <ele>1478</ele>
        <time>2021-09-18T10:40:48Z</time>
      </trkpt>
      <trkpt lat="43.87384" lon="6.62465">
        <ele>1478.2</ele>
        <time>2021-09-18T10:40:49Z</time>
      </trkpt>
      <trkpt lat="43.87385" lon="6.62465">
        <ele>1478.3</ele>
        <time>2021-09-18T10:40:50Z</time>
      </trkpt>
      <trkpt lat="43.87388" lon="6.62465">
        <ele>1478.6</ele>
        <time>2021-09-18T10:40:52Z</time>
      </trkpt>
      <trkpt lat="43.87389" lon="6.62465">
        <ele>1478.7</ele>
        <time>2021-09-18T10:40:53Z</time>
      </trkpt>
      <trkpt lat="43.8739" lon="6.62466">
        <ele>1478.8</ele>
        <time>2021-09-18T10:40:54Z</time>
      </trkpt>
      <trkpt lat="43.87392" lon="6.62469">
        <ele>1479</ele>
        <time>2021-09-18T10:40:56Z</time>
      </trkpt>
      <trkpt lat="43.87392" lon="6.6247">
        <ele>1479</ele>
        <time>2021-09-18T10:40:57Z</time>
      </trkpt>
      <trkpt lat="43.87393" lon="6.62473">
        <ele>1482</ele>
        <time>2021-09-18T10:40:59Z</time>
      </trkpt>
      <trkpt lat="43.87394" lon="6.62476">
        <ele>1485.1</ele>
        <time>2021-09-18T10:41:00Z</time>
      </trkpt>
      <trkpt lat="43.87394" lon="6.62479">
        <ele>1485.1</ele>
        <time>2021-09-18T10:41:02Z</time>
      </trkpt>
      <trkpt lat="43.87394" lon="6.62482">
        <ele>1487</ele>
        <time>2021-09-18T10:41:03Z</time>
      </trkpt>
      <trkpt lat="43.87394" lon="6.62482">
        <ele>1487</ele>
        <time>2021-09-18T10:41:04Z</time>
      </trkpt>
      <trkpt lat="43.87394" lon="6.62483">
        <ele>1487</ele>
        <time>2021-09-18T10:41:06Z</time>
      </trkpt>
      <trkpt lat="43.87393" lon="6.62486">
        <ele>1489</ele>
        <time>2021-09-18T10:41:08Z</time>
      </trkpt>
      <trkpt lat="43.87392" lon="6.62487">
        <ele>1489</ele>
        <time>2021-09-18T10:41:09Z</time>
      </trkpt>
      <trkpt lat="43.87392" lon="6.62488">
        <ele>1487.8</ele>
        <time>2021-09-18T10:41:11Z</time>
      </trkpt>
      <trkpt lat="43.87391" lon="6.62488">
        <ele>1487.8</ele>
        <time>2021-09-18T10:41:13Z</time>
      </trkpt>
      <trkpt lat="43.8739" lon="6.62488">
        <ele>1487.8</ele>
        <time>2021-09-18T10:41:14Z</time>
      </trkpt>
      <trkpt lat="43.87386" lon="6.62488">
        <ele>1486.7</ele>
        <time>2021-09-18T10:41:16Z</time>
      </trkpt>
      <trkpt lat="43.87385" lon="6.62488">
        <ele>1485.7</ele>
        <time>2021-09-18T10:41:17Z</time>
      </trkpt>
      <trkpt lat="43.87383" lon="6.62487">
        <ele>1485.6</ele>
        <time>2021-09-18T10:41:18Z</time>
      </trkpt>
      <trkpt lat="43.87379" lon="6.62484">
        <ele>1482</ele>
        <time>2021-09-18T10:41:20Z</time>
      </trkpt>
      <trkpt lat="43.87374" lon="6.6248">
        <ele>1481.3</ele>
        <time>2021-09-18T10:41:22Z</time>
      </trkpt>
      <trkpt lat="43.87371" lon="6.62479">
        <ele>1478.7</ele>
        <time>2021-09-18T10:41:23Z</time>
      </trkpt>
      <trkpt lat="43.87367" lon="6.62477">
        <ele>1477.2</ele>
        <time>2021-09-18T10:41:25Z</time>
      </trkpt>
      <trkpt lat="43.87364" lon="6.62474">
        <ele>1474.2</ele>
        <time>2021-09-18T10:41:26Z</time>
      </trkpt>
      <trkpt lat="43.87361" lon="6.62471">
        <ele>1471</ele>
        <time>2021-09-18T10:41:28Z</time>
      </trkpt>
      <trkpt lat="43.87358" lon="6.62467">
        <ele>1468.7</ele>
        <time>2021-09-18T10:41:30Z</time>
      </trkpt>
      <trkpt lat="43.87356" lon="6.62463">
        <ele>1468.7</ele>
        <time>2021-09-18T10:41:32Z</time>
      </trkpt>
      <trkpt lat="43.87354" lon="6.62461">
        <ele>1466.5</ele>
        <time>2021-09-18T10:41:33Z</time>
      </trkpt>
      <trkpt lat="43.87351" lon="6.62459">
        <ele>1466</ele>
        <time>2021-09-18T10:41:34Z</time>
      </trkpt>
      <trkpt lat="43.87349" lon="6.62457">
        <ele>1464.4</ele>
        <time>2021-09-18T10:41:36Z</time>
      </trkpt>
      <trkpt lat="43.87346" lon="6.62458">
        <ele>1463.8</ele>
        <time>2021-09-18T10:41:37Z</time>
      </trkpt>
      <trkpt lat="43.87345" lon="6.62458">
        <ele>1463.2</ele>
        <time>2021-09-18T10:41:38Z</time>
      </trkpt>
      <trkpt lat="43.87342" lon="6.62459">
        <ele>1464.2</ele>
        <time>2021-09-18T10:41:40Z</time>
      </trkpt>
      <trkpt lat="43.87339" lon="6.6246">
        <ele>1463.5</ele>
        <time>2021-09-18T10:41:42Z</time>
      </trkpt>
      <trkpt lat="43.87338" lon="6.62461">
        <ele>1463.5</ele>
        <time>2021-09-18T10:41:44Z</time>
      </trkpt>
      <trkpt lat="43.87336" lon="6.62462">
        <ele>1462.8</ele>
        <time>2021-09-18T10:41:45Z</time>
      </trkpt>
      <trkpt lat="43.87334" lon="6.62463">
        <ele>1464.4</ele>
        <time>2021-09-18T10:41:46Z</time>
      </trkpt>
      <trkpt lat="43.87332" lon="6.62466">
        <ele>1463.7</ele>
        <time>2021-09-18T10:41:48Z</time>
      </trkpt>
      <trkpt lat="43.8733" lon="6.62468">
        <ele>1464.6</ele>
        <time>2021-09-18T10:41:49Z</time>
      </trkpt>
      <trkpt lat="43.87329" lon="6.62469">
        <ele>1464.6</ele>
        <time>2021-09-18T10:41:50Z</time>
      </trkpt>
      <trkpt lat="43.87329" lon="6.62474">
        <ele>1466.2</ele>
        <time>2021-09-18T10:41:52Z</time>
      </trkpt>
      <trkpt lat="43.87329" lon="6.62475">
        <ele>1466.2</ele>
        <time>2021-09-18T10:41:53Z</time>
      </trkpt>
      <trkpt lat="43.87328" lon="6.62477">
        <ele>1468.9</ele>
        <time>2021-09-18T10:41:54Z</time>
      </trkpt>
      <trkpt lat="43.87326" lon="6.6248">
        <ele>1469.9</ele>
        <time>2021-09-18T10:41:56Z</time>
      </trkpt>
      <trkpt lat="43.87326" lon="6.62481">
        <ele>1469.9</ele>
        <time>2021-09-18T10:41:57Z</time>
      </trkpt>
      <trkpt lat="43.87325" lon="6.62482">
        <ele>1469.9</ele>
        <time>2021-09-18T10:41:58Z</time>
      </trkpt>
      <trkpt lat="43.87324" lon="6.62483">
        <ele>1469.9</ele>
        <time>2021-09-18T10:41:59Z</time>
      </trkpt>
      <trkpt lat="43.87322" lon="6.62486">
        <ele>1470.9</ele>
        <time>2021-09-18T10:42:01Z</time>
      </trkpt>
      <trkpt lat="43.87321" lon="6.62487">
        <ele>1470.3</ele>
        <time>2021-09-18T10:42:02Z</time>
      </trkpt>
      <trkpt lat="43.87318" lon="6.62491">
        <ele>1471.8</ele>
        <time>2021-09-18T10:42:04Z</time>
      </trkpt>
      <trkpt lat="43.87317" lon="6.62494">
        <ele>1472.8</ele>
        <time>2021-09-18T10:42:06Z</time>
      </trkpt>
      <trkpt lat="43.87315" lon="6.62497">
        <ele>1474.3</ele>
        <time>2021-09-18T10:42:08Z</time>
      </trkpt>
      <trkpt lat="43.87314" lon="6.62499">
        <ele>1473.7</ele>
        <time>2021-09-18T10:42:09Z</time>
      </trkpt>
      <trkpt lat="43.87313" lon="6.62501">
        <ele>1473.7</ele>
        <time>2021-09-18T10:42:10Z</time>
      </trkpt>
      <trkpt lat="43.87312" lon="6.62507">
        <ele>1476.5</ele>
        <time>2021-09-18T10:42:12Z</time>
      </trkpt>
      <trkpt lat="43.87312" lon="6.6251">
        <ele>1476.5</ele>
        <time>2021-09-18T10:42:13Z</time>
      </trkpt>
      <trkpt lat="43.87312" lon="6.62513">
        <ele>1477.9</ele>
        <time>2021-09-18T10:42:14Z</time>
      </trkpt>
      <trkpt lat="43.87314" lon="6.62521">
        <ele>1481</ele>
        <time>2021-09-18T10:42:16Z</time>
      </trkpt>
      <trkpt lat="43.87315" lon="6.62525">
        <ele>1482.6</ele>
        <time>2021-09-18T10:42:17Z</time>
      </trkpt>
      <trkpt lat="43.87315" lon="6.6253">
        <ele>1485</ele>
        <time>2021-09-18T10:42:19Z</time>
      </trkpt>
      <trkpt lat="43.87315" lon="6.62535">
        <ele>1485.9</ele>
        <time>2021-09-18T10:42:20Z</time>
      </trkpt>
      <trkpt lat="43.87315" lon="6.62536">
        <ele>1487.5</ele>
        <time>2021-09-18T10:42:21Z</time>
      </trkpt>
      <trkpt lat="43.87314" lon="6.62538">
        <ele>1487.5</ele>
        <time>2021-09-18T10:42:22Z</time>
      </trkpt>
      <trkpt lat="43.87313" lon="6.62541">
        <ele>1489</ele>
        <time>2021-09-18T10:42:24Z</time>
      </trkpt>
      <trkpt lat="43.87313" lon="6.62542">
        <ele>1489</ele>
        <time>2021-09-18T10:42:25Z</time>
      </trkpt>
      <trkpt lat="43.87313" lon="6.62543">
        <ele>1489</ele>
        <time>2021-09-18T10:42:26Z</time>
      </trkpt>
      <trkpt lat="43.87312" lon="6.62546">
        <ele>1489.8</ele>
        <time>2021-09-18T10:42:28Z</time>
      </trkpt>
      <trkpt lat="43.8731" lon="6.62549">
        <ele>1491.3</ele>
        <time>2021-09-18T10:42:29Z</time>
      </trkpt>
      <trkpt lat="43.87309" lon="6.6255">
        <ele>1491.3</ele>
        <time>2021-09-18T10:42:30Z</time>
      </trkpt>
      <trkpt lat="43.87307" lon="6.62552">
        <ele>1490.6</ele>
        <time>2021-09-18T10:42:32Z</time>
      </trkpt>
      <trkpt lat="43.87306" lon="6.62552">
        <ele>1489.9</ele>
        <time>2021-09-18T10:42:33Z</time>
      </trkpt>
      <trkpt lat="43.873" lon="6.62557">
        <ele>1490.7</ele>
        <time>2021-09-18T10:42:35Z</time>
      </trkpt>
      <trkpt lat="43.87298" lon="6.62558">
        <ele>1491.6</ele>
        <time>2021-09-18T10:42:37Z</time>
      </trkpt>
      <trkpt lat="43.87298" lon="6.62559">
        <ele>1491.6</ele>
        <time>2021-09-18T10:42:38Z</time>
      </trkpt>
      <trkpt lat="43.87295" lon="6.62562">
        <ele>1492.6</ele>
        <time>2021-09-18T10:42:40Z</time>
      </trkpt>
      <trkpt lat="43.87292" lon="6.62564">
        <ele>1492.1</ele>
        <time>2021-09-18T10:42:41Z</time>
      </trkpt>
      <trkpt lat="43.8729" lon="6.62565">
        <ele>1492.1</ele>
        <time>2021-09-18T10:42:42Z</time>
      </trkpt>
      <trkpt lat="43.87287" lon="6.62562">
        <ele>1491.1</ele>
        <time>2021-09-18T10:42:44Z</time>
      </trkpt>
      <trkpt lat="43.87284" lon="6.6256">
        <ele>1489.2</ele>
        <time>2021-09-18T10:42:45Z</time>
      </trkpt>
      <trkpt lat="43.87281" lon="6.6256">
        <ele>1489.2</ele>
        <time>2021-09-18T10:42:46Z</time>
      </trkpt>
      <trkpt lat="43.87277" lon="6.62559">
        <ele>1488.2</ele>
        <time>2021-09-18T10:42:48Z</time>
      </trkpt>
      <trkpt lat="43.87274" lon="6.62559">
        <ele>1487.7</ele>
        <time>2021-09-18T10:42:49Z</time>
      </trkpt>
      <trkpt lat="43.87274" lon="6.62558">
        <ele>1487.7</ele>
        <time>2021-09-18T10:42:50Z</time>
      </trkpt>
      <trkpt lat="43.8727" lon="6.62559">
        <ele>1487.4</ele>
        <time>2021-09-18T10:42:52Z</time>
      </trkpt>
      <trkpt lat="43.87269" lon="6.62561">
        <ele>1487.4</ele>
        <time>2021-09-18T10:42:54Z</time>
      </trkpt>
      <trkpt lat="43.87268" lon="6.62561">
        <ele>1487</ele>
        <time>2021-09-18T10:42:55Z</time>
      </trkpt>
      <trkpt lat="43.87266" lon="6.62563">
        <ele>1488.4</ele>
        <time>2021-09-18T10:42:57Z</time>
      </trkpt>
      <trkpt lat="43.87263" lon="6.62564">
        <ele>1488.1</ele>
        <time>2021-09-18T10:42:59Z</time>
      </trkpt>
      <trkpt lat="43.87262" lon="6.62564">
        <ele>1487.8</ele>
        <time>2021-09-18T10:43:00Z</time>
      </trkpt>
      <trkpt lat="43.8726" lon="6.62564">
        <ele>1487.8</ele>
        <time>2021-09-18T10:43:01Z</time>
      </trkpt>
      <trkpt lat="43.87256" lon="6.62565">
        <ele>1487.4</ele>
        <time>2021-09-18T10:43:03Z</time>
      </trkpt>
      <trkpt lat="43.87254" lon="6.62565">
        <ele>1487</ele>
        <time>2021-09-18T10:43:04Z</time>
      </trkpt>
      <trkpt lat="43.8725" lon="6.62567">
        <ele>1488</ele>
        <time>2021-09-18T10:43:06Z</time>
      </trkpt>
      <trkpt lat="43.87247" lon="6.62569">
        <ele>1487.6</ele>
        <time>2021-09-18T10:43:07Z</time>
      </trkpt>
      <trkpt lat="43.87245" lon="6.62571">
        <ele>1488.7</ele>
        <time>2021-09-18T10:43:08Z</time>
      </trkpt>
      <trkpt lat="43.87244" lon="6.62572">
        <ele>1488.7</ele>
        <time>2021-09-18T10:43:09Z</time>
      </trkpt>
      <trkpt lat="43.8724" lon="6.62577">
        <ele>1489.5</ele>
        <time>2021-09-18T10:43:11Z</time>
      </trkpt>
      <trkpt lat="43.87238" lon="6.62583">
        <ele>1492.2</ele>
        <time>2021-09-18T10:43:13Z</time>
      </trkpt>
      <trkpt lat="43.87237" lon="6.62588">
        <ele>1493.2</ele>
        <time>2021-09-18T10:43:14Z</time>
      </trkpt>
      <trkpt lat="43.87236" lon="6.62593">
        <ele>1494.4</ele>
        <time>2021-09-18T10:43:16Z</time>
      </trkpt>
      <trkpt lat="43.87236" lon="6.62596">
        <ele>1495.6</ele>
        <time>2021-09-18T10:43:17Z</time>
      </trkpt>
      <trkpt lat="43.87236" lon="6.62598">
        <ele>1495.6</ele>
        <time>2021-09-18T10:43:18Z</time>
      </trkpt>
      <trkpt lat="43.87237" lon="6.62601">
        <ele>1496.9</ele>
        <time>2021-09-18T10:43:20Z</time>
      </trkpt>
      <trkpt lat="43.87238" lon="6.62601">
        <ele>1497.2</ele>
        <time>2021-09-18T10:43:21Z</time>
      </trkpt>
      <trkpt lat="43.87238" lon="6.62602">
        <ele>1497.2</ele>
        <time>2021-09-18T10:43:23Z</time>
      </trkpt>
      <trkpt lat="43.87239" lon="6.62603">
        <ele>1497.2</ele>
        <time>2021-09-18T10:43:24Z</time>
      </trkpt>
      <trkpt lat="43.8724" lon="6.62604">
        <ele>1498.5</ele>
        <time>2021-09-18T10:43:25Z</time>
      </trkpt>
      <trkpt lat="43.87241" lon="6.62605">
        <ele>1498.5</ele>
        <time>2021-09-18T10:43:26Z</time>
      </trkpt>
      <trkpt lat="43.87241" lon="6.62606">
        <ele>1498.5</ele>
        <time>2021-09-18T10:43:27Z</time>
      </trkpt>
      <trkpt lat="43.87245" lon="6.62611">
        <ele>1498.9</ele>
        <time>2021-09-18T10:43:29Z</time>
      </trkpt>
      <trkpt lat="43.87249" lon="6.62615">
        <ele>1499.2</ele>
        <time>2021-09-18T10:43:31Z</time>
      </trkpt>
      <trkpt lat="43.87251" lon="6.62618">
        <ele>1499.5</ele>
        <time>2021-09-18T10:43:32Z</time>
      </trkpt>
      <trkpt lat="43.87254" lon="6.62622">
        <ele>1499.8</ele>
        <time>2021-09-18T10:43:33Z</time>
      </trkpt>
      <trkpt lat="43.87257" lon="6.62624">
        <ele>1500</ele>
        <time>2021-09-18T10:43:35Z</time>
      </trkpt>
      <trkpt lat="43.87259" lon="6.62625">
        <ele>1500.2</ele>
        <time>2021-09-18T10:43:36Z</time>
      </trkpt>
      <trkpt lat="43.87262" lon="6.62626">
        <ele>1500.5</ele>
        <time>2021-09-18T10:43:37Z</time>
      </trkpt>
      <trkpt lat="43.87263" lon="6.62627">
        <ele>1500.5</ele>
        <time>2021-09-18T10:43:38Z</time>
      </trkpt>
      <trkpt lat="43.87268" lon="6.62628">
        <ele>1500.9</ele>
        <time>2021-09-18T10:43:40Z</time>
      </trkpt>
      <trkpt lat="43.87269" lon="6.62628">
        <ele>1501</ele>
        <time>2021-09-18T10:43:41Z</time>
      </trkpt>
      <trkpt lat="43.8727" lon="6.62628">
        <ele>1501.1</ele>
        <time>2021-09-18T10:43:42Z</time>
      </trkpt>
      <trkpt lat="43.87272" lon="6.62629">
        <ele>1501.2</ele>
        <time>2021-09-18T10:43:43Z</time>
      </trkpt>
      <trkpt lat="43.87272" lon="6.6263">
        <ele>1501.3</ele>
        <time>2021-09-18T10:43:45Z</time>
      </trkpt>
      <trkpt lat="43.87271" lon="6.6263">
        <ele>1501.3</ele>
        <time>2021-09-18T10:43:46Z</time>
      </trkpt>
      <trkpt lat="43.87272" lon="6.6263">
        <ele>1501.3</ele>
        <time>2021-09-18T10:43:48Z</time>
      </trkpt>
      <trkpt lat="43.87272" lon="6.6263">
        <ele>1501.4</ele>
        <time>2021-09-18T10:43:49Z</time>
      </trkpt>
      <trkpt lat="43.87272" lon="6.6263">
        <ele>1501.4</ele>
        <time>2021-09-18T10:43:50Z</time>
      </trkpt>
      <trkpt lat="43.87273" lon="6.62629">
        <ele>1501.5</ele>
        <time>2021-09-18T10:43:51Z</time>
      </trkpt>
      <trkpt lat="43.87277" lon="6.62628">
        <ele>1501.7</ele>
        <time>2021-09-18T10:43:53Z</time>
      </trkpt>
      <trkpt lat="43.87278" lon="6.62627">
        <ele>1501.8</ele>
        <time>2021-09-18T10:43:55Z</time>
      </trkpt>
      <trkpt lat="43.8728" lon="6.62627">
        <ele>1501.9</ele>
        <time>2021-09-18T10:43:56Z</time>
      </trkpt>
      <trkpt lat="43.87281" lon="6.62627">
        <ele>1502</ele>
        <time>2021-09-18T10:43:57Z</time>
      </trkpt>
      <trkpt lat="43.87285" lon="6.62625">
        <ele>1502.3</ele>
        <time>2021-09-18T10:43:59Z</time>
      </trkpt>
      <trkpt lat="43.87287" lon="6.62624">
        <ele>1502.5</ele>
        <time>2021-09-18T10:44:00Z</time>
      </trkpt>
      <trkpt lat="43.8729" lon="6.62623">
        <ele>1502.7</ele>
        <time>2021-09-18T10:44:02Z</time>
      </trkpt>
      <trkpt lat="43.87294" lon="6.62621">
        <ele>1503</ele>
        <time>2021-09-18T10:44:04Z</time>
      </trkpt>
      <trkpt lat="43.87298" lon="6.6262">
        <ele>1503.2</ele>
        <time>2021-09-18T10:44:05Z</time>
      </trkpt>
      <trkpt lat="43.873" lon="6.62619">
        <ele>1503.4</ele>
        <time>2021-09-18T10:44:07Z</time>
      </trkpt>
      <trkpt lat="43.87304" lon="6.62618">
        <ele>1503.6</ele>
        <time>2021-09-18T10:44:08Z</time>
      </trkpt>
      <trkpt lat="43.87309" lon="6.62618">
        <ele>1503.9</ele>
        <time>2021-09-18T10:44:10Z</time>
      </trkpt>
      <trkpt lat="43.87313" lon="6.62618">
        <ele>1504.2</ele>
        <time>2021-09-18T10:44:12Z</time>
      </trkpt>
      <trkpt lat="43.87316" lon="6.62617">
        <ele>1504.4</ele>
        <time>2021-09-18T10:44:13Z</time>
      </trkpt>
      <trkpt lat="43.87319" lon="6.62616">
        <ele>1504.6</ele>
        <time>2021-09-18T10:44:15Z</time>
      </trkpt>
      <trkpt lat="43.87322" lon="6.62614">
        <ele>1504.8</ele>
        <time>2021-09-18T10:44:16Z</time>
      </trkpt>
      <trkpt lat="43.87324" lon="6.62611">
        <ele>1505</ele>
        <time>2021-09-18T10:44:17Z</time>
      </trkpt>
      <trkpt lat="43.87326" lon="6.62604">
        <ele>1505.4</ele>
        <time>2021-09-18T10:44:19Z</time>
      </trkpt>
      <trkpt lat="43.87328" lon="6.626">
        <ele>1505.6</ele>
        <time>2021-09-18T10:44:20Z</time>
      </trkpt>
      <trkpt lat="43.87328" lon="6.62599">
        <ele>1505.7</ele>
        <time>2021-09-18T10:44:22Z</time>
      </trkpt>
      <trkpt lat="43.87329" lon="6.62598">
        <ele>1505.8</ele>
        <time>2021-09-18T10:44:23Z</time>
      </trkpt>
      <trkpt lat="43.8733" lon="6.62596">
        <ele>1505.9</ele>
        <time>2021-09-18T10:44:25Z</time>
      </trkpt>
      <trkpt lat="43.87332" lon="6.62595">
        <ele>1506</ele>
        <time>2021-09-18T10:44:27Z</time>
      </trkpt>
      <trkpt lat="43.87334" lon="6.62594">
        <ele>1506.2</ele>
        <time>2021-09-18T10:44:29Z</time>
      </trkpt>
      <trkpt lat="43.87337" lon="6.62593">
        <ele>1506.4</ele>
        <time>2021-09-18T10:44:30Z</time>
      </trkpt>
      <trkpt lat="43.8734" lon="6.62592">
        <ele>1506.6</ele>
        <time>2021-09-18T10:44:32Z</time>
      </trkpt>
      <trkpt lat="43.87343" lon="6.6259">
        <ele>1506.8</ele>
        <time>2021-09-18T10:44:33Z</time>
      </trkpt>
      <trkpt lat="43.87345" lon="6.62587">
        <ele>1507</ele>
        <time>2021-09-18T10:44:35Z</time>
      </trkpt>
      <trkpt lat="43.87348" lon="6.62585">
        <ele>1507.2</ele>
        <time>2021-09-18T10:44:36Z</time>
      </trkpt>
      <trkpt lat="43.8735" lon="6.62582">
        <ele>1507.4</ele>
        <time>2021-09-18T10:44:37Z</time>
      </trkpt>
      <trkpt lat="43.87351" lon="6.62579">
        <ele>1507.6</ele>
        <time>2021-09-18T10:44:38Z</time>
      </trkpt>
      <trkpt lat="43.87354" lon="6.62575">
        <ele>1507.9</ele>
        <time>2021-09-18T10:44:40Z</time>
      </trkpt>
      <trkpt lat="43.87359" lon="6.62574">
        <ele>1508.2</ele>
        <time>2021-09-18T10:44:42Z</time>
      </trkpt>
      <trkpt lat="43.87361" lon="6.62575">
        <ele>1508.3</ele>
        <time>2021-09-18T10:44:43Z</time>
      </trkpt>
      <trkpt lat="43.87362" lon="6.62575">
        <ele>1508.4</ele>
        <time>2021-09-18T10:44:44Z</time>
      </trkpt>
      <trkpt lat="43.87365" lon="6.62576">
        <ele>1508.6</ele>
        <time>2021-09-18T10:44:46Z</time>
      </trkpt>
      <trkpt lat="43.87368" lon="6.62577">
        <ele>1508.9</ele>
        <time>2021-09-18T10:44:47Z</time>
      </trkpt>
      <trkpt lat="43.87369" lon="6.62576">
        <ele>1508.9</ele>
        <time>2021-09-18T10:44:48Z</time>
      </trkpt>
      <trkpt lat="43.87369" lon="6.62574">
        <ele>1509</ele>
        <time>2021-09-18T10:44:49Z</time>
      </trkpt>
      <trkpt lat="43.8737" lon="6.62564">
        <ele>1509.5</ele>
        <time>2021-09-18T10:44:51Z</time>
      </trkpt>
      <trkpt lat="43.87371" lon="6.62562">
        <ele>1509.6</ele>
        <time>2021-09-18T10:44:53Z</time>
      </trkpt>
      <trkpt lat="43.87372" lon="6.62562">
        <ele>1509.7</ele>
        <time>2021-09-18T10:44:54Z</time>
      </trkpt>
      <trkpt lat="43.87373" lon="6.62562">
        <ele>1509.8</ele>
        <time>2021-09-18T10:44:55Z</time>
      </trkpt>
      <trkpt lat="43.87377" lon="6.62563">
        <ele>1510</ele>
        <time>2021-09-18T10:44:57Z</time>
      </trkpt>
      <trkpt lat="43.8738" lon="6.62565">
        <ele>1510.3</ele>
        <time>2021-09-18T10:44:58Z</time>
      </trkpt>
      <trkpt lat="43.87383" lon="6.62567">
        <ele>1510.5</ele>
        <time>2021-09-18T10:44:59Z</time>
      </trkpt>
      <trkpt lat="43.87384" lon="6.62568">
        <ele>1510.6</ele>
        <time>2021-09-18T10:45:00Z</time>
      </trkpt>
      <trkpt lat="43.87388" lon="6.6257">
        <ele>1510.9</ele>
        <time>2021-09-18T10:45:02Z</time>
      </trkpt>
      <trkpt lat="43.87391" lon="6.62573">
        <ele>1511.2</ele>
        <time>2021-09-18T10:45:03Z</time>
      </trkpt>
      <trkpt lat="43.87396" lon="6.62576">
        <ele>1511.6</ele>
        <time>2021-09-18T10:45:05Z</time>
      </trkpt>
      <trkpt lat="43.87399" lon="6.62575">
        <ele>1511.8</ele>
        <time>2021-09-18T10:45:06Z</time>
      </trkpt>
      <trkpt lat="43.87401" lon="6.62572">
        <ele>1512.1</ele>
        <time>2021-09-18T10:45:08Z</time>
      </trkpt>
      <trkpt lat="43.87404" lon="6.62571">
        <ele>1512.3</ele>
        <time>2021-09-18T10:45:09Z</time>
      </trkpt>
      <trkpt lat="43.87406" lon="6.62571">
        <ele>1512.4</ele>
        <time>2021-09-18T10:45:10Z</time>
      </trkpt>
      <trkpt lat="43.87407" lon="6.62571">
        <ele>1512.6</ele>
        <time>2021-09-18T10:45:12Z</time>
      </trkpt>
      <trkpt lat="43.8741" lon="6.6257">
        <ele>1512.7</ele>
        <time>2021-09-18T10:45:13Z</time>
      </trkpt>
      <trkpt lat="43.87412" lon="6.62569">
        <ele>1512.9</ele>
        <time>2021-09-18T10:45:15Z</time>
      </trkpt>
      <trkpt lat="43.87413" lon="6.62569">
        <ele>1513</ele>
        <time>2021-09-18T10:45:16Z</time>
      </trkpt>
      <trkpt lat="43.87414" lon="6.62568">
        <ele>1513.1</ele>
        <time>2021-09-18T10:45:17Z</time>
      </trkpt>
      <trkpt lat="43.87415" lon="6.62568">
        <ele>1513.2</ele>
        <time>2021-09-18T10:45:18Z</time>
      </trkpt>
      <trkpt lat="43.87416" lon="6.62567">
        <ele>1513.3</ele>
        <time>2021-09-18T10:45:20Z</time>
      </trkpt>
      <trkpt lat="43.87417" lon="6.62567">
        <ele>1513.4</ele>
        <time>2021-09-18T10:45:22Z</time>
      </trkpt>
      <trkpt lat="43.87418" lon="6.62567">
        <ele>1513.5</ele>
        <time>2021-09-18T10:45:23Z</time>
      </trkpt>
      <trkpt lat="43.87419" lon="6.62566">
        <ele>1513.5</ele>
        <time>2021-09-18T10:45:24Z</time>
      </trkpt>
      <trkpt lat="43.8742" lon="6.62566">
        <ele>1513.7</ele>
        <time>2021-09-18T10:45:25Z</time>
      </trkpt>
      <trkpt lat="43.87421" lon="6.62565">
        <ele>1513.8</ele>
        <time>2021-09-18T10:45:27Z</time>
      </trkpt>
      <trkpt lat="43.87424" lon="6.62564">
        <ele>1514</ele>
        <time>2021-09-18T10:45:29Z</time>
      </trkpt>
      <trkpt lat="43.87428" lon="6.62564">
        <ele>1514.4</ele>
        <time>2021-09-18T10:45:31Z</time>
      </trkpt>
      <trkpt lat="43.87429" lon="6.62564">
        <ele>1514.5</ele>
        <time>2021-09-18T10:45:32Z</time>
      </trkpt>
      <trkpt lat="43.8743" lon="6.62564">
        <ele>1514.6</ele>
        <time>2021-09-18T10:45:34Z</time>
      </trkpt>
      <trkpt lat="43.87431" lon="6.62564">
        <ele>1514.7</ele>
        <time>2021-09-18T10:45:35Z</time>
      </trkpt>
      <trkpt lat="43.87434" lon="6.62563">
        <ele>1514.9</ele>
        <time>2021-09-18T10:45:36Z</time>
      </trkpt>
      <trkpt lat="43.87435" lon="6.62563">
        <ele>1515.1</ele>
        <time>2021-09-18T10:45:37Z</time>
      </trkpt>
      <trkpt lat="43.87437" lon="6.62563">
        <ele>1515.2</ele>
        <time>2021-09-18T10:45:38Z</time>
      </trkpt>
      <trkpt lat="43.87444" lon="6.62562">
        <ele>1515.8</ele>
        <time>2021-09-18T10:45:40Z</time>
      </trkpt>
      <trkpt lat="43.87449" lon="6.62561">
        <ele>1516.3</ele>
        <time>2021-09-18T10:45:42Z</time>
      </trkpt>
      <trkpt lat="43.87453" lon="6.62559">
        <ele>1516.6</ele>
        <time>2021-09-18T10:45:43Z</time>
      </trkpt>
      <trkpt lat="43.87455" lon="6.62559">
        <ele>1516.8</ele>
        <time>2021-09-18T10:45:44Z</time>
      </trkpt>
      <trkpt lat="43.87458" lon="6.62558">
        <ele>1517.1</ele>
        <time>2021-09-18T10:45:46Z</time>
      </trkpt>
      <trkpt lat="43.87461" lon="6.62555">
        <ele>1517.5</ele>
        <time>2021-09-18T10:45:47Z</time>
      </trkpt>
      <trkpt lat="43.87463" lon="6.62553">
        <ele>1517.7</ele>
        <time>2021-09-18T10:45:48Z</time>
      </trkpt>
      <trkpt lat="43.87464" lon="6.62552">
        <ele>1517.8</ele>
        <time>2021-09-18T10:45:50Z</time>
      </trkpt>
      <trkpt lat="43.87465" lon="6.62553">
        <ele>1517.8</ele>
        <time>2021-09-18T10:45:51Z</time>
      </trkpt>
      <trkpt lat="43.87466" lon="6.62553">
        <ele>1517.9</ele>
        <time>2021-09-18T10:45:52Z</time>
      </trkpt>
      <trkpt lat="43.87466" lon="6.62554">
        <ele>1518</ele>
        <time>2021-09-18T10:45:53Z</time>
      </trkpt>
      <trkpt lat="43.87466" lon="6.62555">
        <ele>1518</ele>
        <time>2021-09-18T10:45:54Z</time>
      </trkpt>
      <trkpt lat="43.87467" lon="6.62556">
        <ele>1518.1</ele>
        <time>2021-09-18T10:45:56Z</time>
      </trkpt>
      <trkpt lat="43.87469" lon="6.62555">
        <ele>1518.3</ele>
        <time>2021-09-18T10:45:57Z</time>
      </trkpt>
      <trkpt lat="43.87472" lon="6.62553">
        <ele>1518.5</ele>
        <time>2021-09-18T10:45:58Z</time>
      </trkpt>
      <trkpt lat="43.87472" lon="6.62552">
        <ele>1518.6</ele>
        <time>2021-09-18T10:45:59Z</time>
      </trkpt>
      <trkpt lat="43.87475" lon="6.62551">
        <ele>1518.9</ele>
        <time>2021-09-18T10:46:01Z</time>
      </trkpt>
      <trkpt lat="43.87478" lon="6.6255">
        <ele>1519.1</ele>
        <time>2021-09-18T10:46:02Z</time>
      </trkpt>
      <trkpt lat="43.87479" lon="6.62549">
        <ele>1519.3</ele>
        <time>2021-09-18T10:46:04Z</time>
      </trkpt>
      <trkpt lat="43.87482" lon="6.62548">
        <ele>1519.5</ele>
        <time>2021-09-18T10:46:05Z</time>
      </trkpt>
      <trkpt lat="43.87483" lon="6.62544">
        <ele>1519.8</ele>
        <time>2021-09-18T10:46:07Z</time>
      </trkpt>
      <trkpt lat="43.87484" lon="6.62539">
        <ele>1520.2</ele>
        <time>2021-09-18T10:46:09Z</time>
      </trkpt>
      <trkpt lat="43.87484" lon="6.62537">
        <ele>1520.3</ele>
        <time>2021-09-18T10:46:10Z</time>
      </trkpt>
      <trkpt lat="43.87484" lon="6.62535">
        <ele>1520.4</ele>
        <time>2021-09-18T10:46:12Z</time>
      </trkpt>
      <trkpt lat="43.87484" lon="6.62534">
        <ele>1520.4</ele>
        <time>2021-09-18T10:46:13Z</time>
      </trkpt>
      <trkpt lat="43.87484" lon="6.62532">
        <ele>1520.6</ele>
        <time>2021-09-18T10:46:15Z</time>
      </trkpt>
      <trkpt lat="43.87484" lon="6.62531">
        <ele>1520.6</ele>
        <time>2021-09-18T10:46:16Z</time>
      </trkpt>
      <trkpt lat="43.87484" lon="6.62527">
        <ele>1520.9</ele>
        <time>2021-09-18T10:46:18Z</time>
      </trkpt>
      <trkpt lat="43.87485" lon="6.62523">
        <ele>1521.2</ele>
        <time>2021-09-18T10:46:19Z</time>
      </trkpt>
      <trkpt lat="43.87485" lon="6.62522">
        <ele>1521.2</ele>
        <time>2021-09-18T10:46:20Z</time>
      </trkpt>
      <trkpt lat="43.87486" lon="6.62519">
        <ele>1521.4</ele>
        <time>2021-09-18T10:46:22Z</time>
      </trkpt>
      <trkpt lat="43.87489" lon="6.62517">
        <ele>1521.7</ele>
        <time>2021-09-18T10:46:24Z</time>
      </trkpt>
      <trkpt lat="43.87491" lon="6.62513">
        <ele>1522</ele>
        <time>2021-09-18T10:46:26Z</time>
      </trkpt>
      <trkpt lat="43.87492" lon="6.6251">
        <ele>1522.1</ele>
        <time>2021-09-18T10:46:27Z</time>
      </trkpt>
      <trkpt lat="43.87494" lon="6.62506">
        <ele>1522.4</ele>
        <time>2021-09-18T10:46:29Z</time>
      </trkpt>
      <trkpt lat="43.87496" lon="6.62504">
        <ele>1522.6</ele>
        <time>2021-09-18T10:46:30Z</time>
      </trkpt>
      <trkpt lat="43.87499" lon="6.62501">
        <ele>1522.8</ele>
        <time>2021-09-18T10:46:32Z</time>
      </trkpt>
      <trkpt lat="43.87503" lon="6.625">
        <ele>1523.2</ele>
        <time>2021-09-18T10:46:34Z</time>
      </trkpt>
      <trkpt lat="43.87506" lon="6.625">
        <ele>1523.4</ele>
        <time>2021-09-18T10:46:35Z</time>
      </trkpt>
      <trkpt lat="43.8751" lon="6.62499">
        <ele>1523.7</ele>
        <time>2021-09-18T10:46:37Z</time>
      </trkpt>
      <trkpt lat="43.87513" lon="6.62498">
        <ele>1523.9</ele>
        <time>2021-09-18T10:46:38Z</time>
      </trkpt>
      <trkpt lat="43.87516" lon="6.62496">
        <ele>1524.2</ele>
        <time>2021-09-18T10:46:40Z</time>
      </trkpt>
      <trkpt lat="43.8752" lon="6.62496">
        <ele>1524.5</ele>
        <time>2021-09-18T10:46:42Z</time>
      </trkpt>
      <trkpt lat="43.87521" lon="6.62497">
        <ele>1524.7</ele>
        <time>2021-09-18T10:46:44Z</time>
      </trkpt>
      <trkpt lat="43.87523" lon="6.625">
        <ele>1524.8</ele>
        <time>2021-09-18T10:46:46Z</time>
      </trkpt>
      <trkpt lat="43.87526" lon="6.62499">
        <ele>1525.1</ele>
        <time>2021-09-18T10:46:48Z</time>
      </trkpt>
      <trkpt lat="43.87527" lon="6.62499">
        <ele>1525.2</ele>
        <time>2021-09-18T10:46:49Z</time>
      </trkpt>
      <trkpt lat="43.87529" lon="6.62499">
        <ele>1525.3</ele>
        <time>2021-09-18T10:46:50Z</time>
      </trkpt>
      <trkpt lat="43.87532" lon="6.62499">
        <ele>1525.6</ele>
        <time>2021-09-18T10:46:52Z</time>
      </trkpt>
      <trkpt lat="43.87532" lon="6.62499">
        <ele>1525.6</ele>
        <time>2021-09-18T10:46:53Z</time>
      </trkpt>
      <trkpt lat="43.87531" lon="6.62498">
        <ele>1525.7</ele>
        <time>2021-09-18T10:46:54Z</time>
      </trkpt>
      <trkpt lat="43.87532" lon="6.62499">
        <ele>1525.7</ele>
        <time>2021-09-18T10:46:56Z</time>
      </trkpt>
      <trkpt lat="43.87532" lon="6.625">
        <ele>1525.8</ele>
        <time>2021-09-18T10:46:57Z</time>
      </trkpt>
      <trkpt lat="43.87533" lon="6.62501">
        <ele>1525.9</ele>
        <time>2021-09-18T10:46:58Z</time>
      </trkpt>
      <trkpt lat="43.87533" lon="6.62503">
        <ele>1526</ele>
        <time>2021-09-18T10:46:59Z</time>
      </trkpt>
      <trkpt lat="43.87534" lon="6.62504">
        <ele>1526</ele>
        <time>2021-09-18T10:47:00Z</time>
      </trkpt>
      <trkpt lat="43.87534" lon="6.62506">
        <ele>1526.1</ele>
        <time>2021-09-18T10:47:02Z</time>
      </trkpt>
      <trkpt lat="43.87536" lon="6.62508">
        <ele>1526.2</ele>
        <time>2021-09-18T10:47:04Z</time>
      </trkpt>
      <trkpt lat="43.87536" lon="6.62509">
        <ele>1526.3</ele>
        <time>2021-09-18T10:47:06Z</time>
      </trkpt>
      <trkpt lat="43.87537" lon="6.62513">
        <ele>1526.5</ele>
        <time>2021-09-18T10:47:08Z</time>
      </trkpt>
      <trkpt lat="43.87538" lon="6.62514">
        <ele>1526.5</ele>
        <time>2021-09-18T10:47:09Z</time>
      </trkpt>
      <trkpt lat="43.87538" lon="6.62516">
        <ele>1526.6</ele>
        <time>2021-09-18T10:47:10Z</time>
      </trkpt>
      <trkpt lat="43.8754" lon="6.62519">
        <ele>1526.8</ele>
        <time>2021-09-18T10:47:12Z</time>
      </trkpt>
      <trkpt lat="43.87543" lon="6.62524">
        <ele>1527.1</ele>
        <time>2021-09-18T10:47:14Z</time>
      </trkpt>
      <trkpt lat="43.87544" lon="6.62526">
        <ele>1527.2</ele>
        <time>2021-09-18T10:47:16Z</time>
      </trkpt>
      <trkpt lat="43.87545" lon="6.62528">
        <ele>1527.3</ele>
        <time>2021-09-18T10:47:17Z</time>
      </trkpt>
      <trkpt lat="43.87546" lon="6.62531">
        <ele>1527.5</ele>
        <time>2021-09-18T10:47:19Z</time>
      </trkpt>
      <trkpt lat="43.87548" lon="6.62535">
        <ele>1527.7</ele>
        <time>2021-09-18T10:47:20Z</time>
      </trkpt>
      <trkpt lat="43.87549" lon="6.62539">
        <ele>1527.9</ele>
        <time>2021-09-18T10:47:21Z</time>
      </trkpt>
      <trkpt lat="43.87551" lon="6.62544">
        <ele>1528.1</ele>
        <time>2021-09-18T10:47:23Z</time>
      </trkpt>
      <trkpt lat="43.87553" lon="6.62549">
        <ele>1528.4</ele>
        <time>2021-09-18T10:47:25Z</time>
      </trkpt>
      <trkpt lat="43.87554" lon="6.62554">
        <ele>1528.6</ele>
        <time>2021-09-18T10:47:27Z</time>
      </trkpt>
      <trkpt lat="43.87555" lon="6.62556">
        <ele>1528.7</ele>
        <time>2021-09-18T10:47:28Z</time>
      </trkpt>
      <trkpt lat="43.87556" lon="6.62557">
        <ele>1528.7</ele>
        <time>2021-09-18T10:47:29Z</time>
      </trkpt>
      <trkpt lat="43.87557" lon="6.62557">
        <ele>1528.8</ele>
        <time>2021-09-18T10:47:30Z</time>
      </trkpt>
      <trkpt lat="43.87557" lon="6.62556">
        <ele>1528.8</ele>
        <time>2021-09-18T10:47:32Z</time>
      </trkpt>
      <trkpt lat="43.87558" lon="6.62556">
        <ele>1528.9</ele>
        <time>2021-09-18T10:47:34Z</time>
      </trkpt>
      <trkpt lat="43.8756" lon="6.62559">
        <ele>1529.1</ele>
        <time>2021-09-18T10:47:36Z</time>
      </trkpt>
      <trkpt lat="43.87562" lon="6.6256">
        <ele>1529.2</ele>
        <time>2021-09-18T10:47:37Z</time>
      </trkpt>
      <trkpt lat="43.87563" lon="6.62562">
        <ele>1529.2</ele>
        <time>2021-09-18T10:47:39Z</time>
      </trkpt>
      <trkpt lat="43.87567" lon="6.62565">
        <ele>1529.5</ele>
        <time>2021-09-18T10:47:40Z</time>
      </trkpt>
      <trkpt lat="43.87569" lon="6.62566">
        <ele>1529.6</ele>
        <time>2021-09-18T10:47:41Z</time>
      </trkpt>
      <trkpt lat="43.8757" lon="6.62571">
        <ele>1529.8</ele>
        <time>2021-09-18T10:47:43Z</time>
      </trkpt>
      <trkpt lat="43.8757" lon="6.62573">
        <ele>1530</ele>
        <time>2021-09-18T10:47:44Z</time>
      </trkpt>
      <trkpt lat="43.87573" lon="6.62576">
        <ele>1530.2</ele>
        <time>2021-09-18T10:47:46Z</time>
      </trkpt>
      <trkpt lat="43.87574" lon="6.62577">
        <ele>1530.3</ele>
        <time>2021-09-18T10:47:47Z</time>
      </trkpt>
      <trkpt lat="43.87575" lon="6.62576">
        <ele>1530.4</ele>
        <time>2021-09-18T10:47:49Z</time>
      </trkpt>
      <trkpt lat="43.87578" lon="6.62578">
        <ele>1530.5</ele>
        <time>2021-09-18T10:47:51Z</time>
      </trkpt>
      <trkpt lat="43.87578" lon="6.62579">
        <ele>1530.6</ele>
        <time>2021-09-18T10:47:52Z</time>
      </trkpt>
      <trkpt lat="43.87578" lon="6.6258">
        <ele>1530.6</ele>
        <time>2021-09-18T10:47:53Z</time>
      </trkpt>
      <trkpt lat="43.87578" lon="6.62584">
        <ele>1530.8</ele>
        <time>2021-09-18T10:47:55Z</time>
      </trkpt>
      <trkpt lat="43.8758" lon="6.62587">
        <ele>1531</ele>
        <time>2021-09-18T10:47:56Z</time>
      </trkpt>
      <trkpt lat="43.87581" lon="6.62589">
        <ele>1531.1</ele>
        <time>2021-09-18T10:47:57Z</time>
      </trkpt>
      <trkpt lat="43.87583" lon="6.62592">
        <ele>1531.3</ele>
        <time>2021-09-18T10:47:59Z</time>
      </trkpt>
      <trkpt lat="43.87584" lon="6.62593">
        <ele>1531.4</ele>
        <time>2021-09-18T10:48:00Z</time>
      </trkpt>
      <trkpt lat="43.87585" lon="6.62594">
        <ele>1531.5</ele>
        <time>2021-09-18T10:48:01Z</time>
      </trkpt>
      <trkpt lat="43.87587" lon="6.62596">
        <ele>1531.7</ele>
        <time>2021-09-18T10:48:03Z</time>
      </trkpt>
      <trkpt lat="43.87589" lon="6.626">
        <ele>1531.9</ele>
        <time>2021-09-18T10:48:05Z</time>
      </trkpt>
      <trkpt lat="43.87589" lon="6.62601">
        <ele>1531.9</ele>
        <time>2021-09-18T10:48:06Z</time>
      </trkpt>
      <trkpt lat="43.87588" lon="6.62601">
        <ele>1532</ele>
        <time>2021-09-18T10:48:07Z</time>
      </trkpt>
      <trkpt lat="43.87588" lon="6.62602">
        <ele>1532</ele>
        <time>2021-09-18T10:48:08Z</time>
      </trkpt>
      <trkpt lat="43.87587" lon="6.62602">
        <ele>1532.1</ele>
        <time>2021-09-18T10:48:09Z</time>
      </trkpt>
      <trkpt lat="43.87586" lon="6.62603">
        <ele>1532.2</ele>
        <time>2021-09-18T10:48:11Z</time>
      </trkpt>
      <trkpt lat="43.87586" lon="6.62605">
        <ele>1532.3</ele>
        <time>2021-09-18T10:48:12Z</time>
      </trkpt>
      <trkpt lat="43.87586" lon="6.62607">
        <ele>1532.4</ele>
        <time>2021-09-18T10:48:13Z</time>
      </trkpt>
      <trkpt lat="43.87587" lon="6.6261">
        <ele>1532.6</ele>
        <time>2021-09-18T10:48:14Z</time>
      </trkpt>
      <trkpt lat="43.87588" lon="6.62611">
        <ele>1532.7</ele>
        <time>2021-09-18T10:48:16Z</time>
      </trkpt>
      <trkpt lat="43.87589" lon="6.62612">
        <ele>1532.7</ele>
        <time>2021-09-18T10:48:17Z</time>
      </trkpt>
      <trkpt lat="43.87589" lon="6.62613">
        <ele>1532.8</ele>
        <time>2021-09-18T10:48:19Z</time>
      </trkpt>
      <trkpt lat="43.87589" lon="6.62613">
        <ele>1532.8</ele>
        <time>2021-09-18T10:48:20Z</time>
      </trkpt>
      <trkpt lat="43.8759" lon="6.62613">
        <ele>1532.8</ele>
        <time>2021-09-18T10:48:22Z</time>
      </trkpt>
      <trkpt lat="43.87591" lon="6.62613">
        <ele>1532.9</ele>
        <time>2021-09-18T10:48:23Z</time>
      </trkpt>
      <trkpt lat="43.87591" lon="6.62613">
        <ele>1532.9</ele>
        <time>2021-09-18T10:48:24Z</time>
      </trkpt>
      <trkpt lat="43.87611" lon="6.62646">
        <ele>1535.3</ele>
        <time>2021-09-18T10:48:48Z</time>
      </trkpt>
      <trkpt lat="43.87613" lon="6.62648">
        <ele>1535.6</ele>
        <time>2021-09-18T10:48:49Z</time>
      </trkpt>
      <trkpt lat="43.87615" lon="6.6265">
        <ele>1535.7</ele>
        <time>2021-09-18T10:48:50Z</time>
      </trkpt>
      <trkpt lat="43.87618" lon="6.62654">
        <ele>1536</ele>
        <time>2021-09-18T10:48:52Z</time>
      </trkpt>
      <trkpt lat="43.8762" lon="6.62658">
        <ele>1536.3</ele>
        <time>2021-09-18T10:48:53Z</time>
      </trkpt>
      <trkpt lat="43.87621" lon="6.62659">
        <ele>1536.4</ele>
        <time>2021-09-18T10:48:54Z</time>
      </trkpt>
      <trkpt lat="43.87622" lon="6.62664">
        <ele>1536.6</ele>
        <time>2021-09-18T10:48:55Z</time>
      </trkpt>
      <trkpt lat="43.87622" lon="6.62666">
        <ele>1536.7</ele>
        <time>2021-09-18T10:48:56Z</time>
      </trkpt>
      <trkpt lat="43.87624" lon="6.62671">
        <ele>1537.1</ele>
        <time>2021-09-18T10:48:58Z</time>
      </trkpt>
      <trkpt lat="43.87625" lon="6.62672">
        <ele>1537.1</ele>
        <time>2021-09-18T10:48:59Z</time>
      </trkpt>
      <trkpt lat="43.8763" lon="6.62675">
        <ele>1537.5</ele>
        <time>2021-09-18T10:49:01Z</time>
      </trkpt>
      <trkpt lat="43.87632" lon="6.62678">
        <ele>1537.7</ele>
        <time>2021-09-18T10:49:03Z</time>
      </trkpt>
      <trkpt lat="43.87635" lon="6.62681">
        <ele>1538</ele>
        <time>2021-09-18T10:49:05Z</time>
      </trkpt>
      <trkpt lat="43.87637" lon="6.62684">
        <ele>1538.2</ele>
        <time>2021-09-18T10:49:06Z</time>
      </trkpt>
      <trkpt lat="43.87639" lon="6.62687">
        <ele>1538.4</ele>
        <time>2021-09-18T10:49:07Z</time>
      </trkpt>
      <trkpt lat="43.87642" lon="6.6269">
        <ele>1538.7</ele>
        <time>2021-09-18T10:49:08Z</time>
      </trkpt>
      <trkpt lat="43.87645" lon="6.62693">
        <ele>1538.9</ele>
        <time>2021-09-18T10:49:10Z</time>
      </trkpt>
      <trkpt lat="43.87652" lon="6.62701">
        <ele>1539.5</ele>
        <time>2021-09-18T10:49:12Z</time>
      </trkpt>
      <trkpt lat="43.87654" lon="6.62704">
        <ele>1539.7</ele>
        <time>2021-09-18T10:49:13Z</time>
      </trkpt>
      <trkpt lat="43.87655" lon="6.62705">
        <ele>1539.8</ele>
        <time>2021-09-18T10:49:14Z</time>
      </trkpt>
      <trkpt lat="43.87662" lon="6.62711">
        <ele>1540.3</ele>
        <time>2021-09-18T10:49:16Z</time>
      </trkpt>
      <trkpt lat="43.87666" lon="6.62716">
        <ele>1540.7</ele>
        <time>2021-09-18T10:49:18Z</time>
      </trkpt>
      <trkpt lat="43.87669" lon="6.62717">
        <ele>1540.9</ele>
        <time>2021-09-18T10:49:19Z</time>
      </trkpt>
      <trkpt lat="43.8767" lon="6.62717">
        <ele>1540.9</ele>
        <time>2021-09-18T10:49:20Z</time>
      </trkpt>
      <trkpt lat="43.87672" lon="6.62717">
        <ele>1541.1</ele>
        <time>2021-09-18T10:49:22Z</time>
      </trkpt>
      <trkpt lat="43.87673" lon="6.62718">
        <ele>1541.2</ele>
        <time>2021-09-18T10:49:23Z</time>
      </trkpt>
      <trkpt lat="43.87674" lon="6.62719">
        <ele>1541.2</ele>
        <time>2021-09-18T10:49:24Z</time>
      </trkpt>
      <trkpt lat="43.87674" lon="6.6272">
        <ele>1541.3</ele>
        <time>2021-09-18T10:49:25Z</time>
      </trkpt>
      <trkpt lat="43.87674" lon="6.62721">
        <ele>1541.3</ele>
        <time>2021-09-18T10:49:26Z</time>
      </trkpt>
      <trkpt lat="43.8768" lon="6.62746">
        <ele>1542.6</ele>
        <time>2021-09-18T10:49:38Z</time>
      </trkpt>
      <trkpt lat="43.87683" lon="6.62752">
        <ele>1542.9</ele>
        <time>2021-09-18T10:49:40Z</time>
      </trkpt>
      <trkpt lat="43.87685" lon="6.62756">
        <ele>1543.2</ele>
        <time>2021-09-18T10:49:41Z</time>
      </trkpt>
      <trkpt lat="43.87687" lon="6.6276">
        <ele>1543.4</ele>
        <time>2021-09-18T10:49:42Z</time>
      </trkpt>
      <trkpt lat="43.87688" lon="6.62761">
        <ele>1543.5</ele>
        <time>2021-09-18T10:49:43Z</time>
      </trkpt>
      <trkpt lat="43.8769" lon="6.62764">
        <ele>1543.7</ele>
        <time>2021-09-18T10:49:44Z</time>
      </trkpt>
      <trkpt lat="43.87692" lon="6.62768">
        <ele>1543.9</ele>
        <time>2021-09-18T10:49:46Z</time>
      </trkpt>
      <trkpt lat="43.87692" lon="6.6277">
        <ele>1544</ele>
        <time>2021-09-18T10:49:48Z</time>
      </trkpt>
      <trkpt lat="43.87691" lon="6.6277">
        <ele>1544</ele>
        <time>2021-09-18T10:49:49Z</time>
      </trkpt>
      <trkpt lat="43.87691" lon="6.6277">
        <ele>1544.1</ele>
        <time>2021-09-18T10:49:50Z</time>
      </trkpt>
      <trkpt lat="43.87691" lon="6.6277">
        <ele>1544.1</ele>
        <time>2021-09-18T10:49:51Z</time>
      </trkpt>
      <trkpt lat="43.87691" lon="6.62771">
        <ele>1544.1</ele>
        <time>2021-09-18T10:49:53Z</time>
      </trkpt>
      <trkpt lat="43.87692" lon="6.62772">
        <ele>1544.1</ele>
        <time>2021-09-18T10:49:54Z</time>
      </trkpt>
      <trkpt lat="43.87692" lon="6.62772">
        <ele>1544.1</ele>
        <time>2021-09-18T10:49:55Z</time>
      </trkpt>
      <trkpt lat="43.87692" lon="6.62774">
        <ele>1544.2</ele>
        <time>2021-09-18T10:49:57Z</time>
      </trkpt>
      <trkpt lat="43.87692" lon="6.62777">
        <ele>1544.4</ele>
        <time>2021-09-18T10:49:58Z</time>
      </trkpt>
      <trkpt lat="43.87691" lon="6.62778">
        <ele>1544.4</ele>
        <time>2021-09-18T10:49:59Z</time>
      </trkpt>
      <trkpt lat="43.8769" lon="6.6278">
        <ele>1544.5</ele>
        <time>2021-09-18T10:50:01Z</time>
      </trkpt>
      <trkpt lat="43.87688" lon="6.62782">
        <ele>1544.6</ele>
        <time>2021-09-18T10:50:02Z</time>
      </trkpt>
      <trkpt lat="43.87688" lon="6.62791">
        <ele>1545</ele>
        <time>2021-09-18T10:50:04Z</time>
      </trkpt>
      <trkpt lat="43.87688" lon="6.62798">
        <ele>1545.3</ele>
        <time>2021-09-18T10:50:10Z</time>
      </trkpt>
      <trkpt lat="43.87688" lon="6.62805">
        <ele>1545.6</ele>
        <time>2021-09-18T10:50:11Z</time>
      </trkpt>
      <trkpt lat="43.87688" lon="6.6281">
        <ele>1545.8</ele>
        <time>2021-09-18T10:50:12Z</time>
      </trkpt>
      <trkpt lat="43.87687" lon="6.6282">
        <ele>1546.2</ele>
        <time>2021-09-18T10:50:14Z</time>
      </trkpt>
      <trkpt lat="43.87687" lon="6.62825">
        <ele>1546.4</ele>
        <time>2021-09-18T10:50:15Z</time>
      </trkpt>
      <trkpt lat="43.87688" lon="6.6283">
        <ele>1546.6</ele>
        <time>2021-09-18T10:50:16Z</time>
      </trkpt>
      <trkpt lat="43.87688" lon="6.62832">
        <ele>1546.6</ele>
        <time>2021-09-18T10:50:17Z</time>
      </trkpt>
      <trkpt lat="43.87689" lon="6.62835">
        <ele>1546.8</ele>
        <time>2021-09-18T10:50:18Z</time>
      </trkpt>
      <trkpt lat="43.8769" lon="6.62841">
        <ele>1547</ele>
        <time>2021-09-18T10:50:20Z</time>
      </trkpt>
      <trkpt lat="43.87693" lon="6.62845">
        <ele>1547.2</ele>
        <time>2021-09-18T10:50:22Z</time>
      </trkpt>
      <trkpt lat="43.87695" lon="6.62849">
        <ele>1547.3</ele>
        <time>2021-09-18T10:50:23Z</time>
      </trkpt>
      <trkpt lat="43.87697" lon="6.62851">
        <ele>1547.4</ele>
        <time>2021-09-18T10:50:24Z</time>
      </trkpt>
      <trkpt lat="43.87701" lon="6.62856">
        <ele>1547.7</ele>
        <time>2021-09-18T10:50:26Z</time>
      </trkpt>
      <trkpt lat="43.87706" lon="6.6286">
        <ele>1547.9</ele>
        <time>2021-09-18T10:50:28Z</time>
      </trkpt>
      <trkpt lat="43.87708" lon="6.62863">
        <ele>1548.1</ele>
        <time>2021-09-18T10:50:29Z</time>
      </trkpt>
      <trkpt lat="43.87711" lon="6.62867">
        <ele>1548.3</ele>
        <time>2021-09-18T10:50:31Z</time>
      </trkpt>
      <trkpt lat="43.87712" lon="6.62866">
        <ele>1548.3</ele>
        <time>2021-09-18T10:50:32Z</time>
      </trkpt>
      <trkpt lat="43.87714" lon="6.62867">
        <ele>1548.4</ele>
        <time>2021-09-18T10:50:34Z</time>
      </trkpt>
      <trkpt lat="43.87715" lon="6.62868">
        <ele>1548.4</ele>
        <time>2021-09-18T10:50:35Z</time>
      </trkpt>
      <trkpt lat="43.87716" lon="6.6287">
        <ele>1548.5</ele>
        <time>2021-09-18T10:50:37Z</time>
      </trkpt>
      <trkpt lat="43.87718" lon="6.62874">
        <ele>1548.7</ele>
        <time>2021-09-18T10:50:38Z</time>
      </trkpt>
      <trkpt lat="43.87719" lon="6.62876">
        <ele>1548.8</ele>
        <time>2021-09-18T10:50:39Z</time>
      </trkpt>
      <trkpt lat="43.87722" lon="6.62881">
        <ele>1549</ele>
        <time>2021-09-18T10:50:41Z</time>
      </trkpt>
      <trkpt lat="43.87724" lon="6.62884">
        <ele>1549.1</ele>
        <time>2021-09-18T10:50:42Z</time>
      </trkpt>
      <trkpt lat="43.87726" lon="6.62886">
        <ele>1549.2</ele>
        <time>2021-09-18T10:50:43Z</time>
      </trkpt>
      <trkpt lat="43.87729" lon="6.62889">
        <ele>1549.4</ele>
        <time>2021-09-18T10:50:45Z</time>
      </trkpt>
      <trkpt lat="43.87732" lon="6.62891">
        <ele>1549.5</ele>
        <time>2021-09-18T10:50:46Z</time>
      </trkpt>
      <trkpt lat="43.87734" lon="6.62893">
        <ele>1549.6</ele>
        <time>2021-09-18T10:50:48Z</time>
      </trkpt>
      <trkpt lat="43.87736" lon="6.62894">
        <ele>1549.7</ele>
        <time>2021-09-18T10:50:49Z</time>
      </trkpt>
      <trkpt lat="43.87738" lon="6.62896">
        <ele>1549.8</ele>
        <time>2021-09-18T10:50:51Z</time>
      </trkpt>
      <trkpt lat="43.87742" lon="6.62896">
        <ele>1549.9</ele>
        <time>2021-09-18T10:50:52Z</time>
      </trkpt>
      <trkpt lat="43.87743" lon="6.62896">
        <ele>1550</ele>
        <time>2021-09-18T10:50:53Z</time>
      </trkpt>
      <trkpt lat="43.87745" lon="6.62893">
        <ele>1550.1</ele>
        <time>2021-09-18T10:50:55Z</time>
      </trkpt>
      <trkpt lat="43.87746" lon="6.62893">
        <ele>1550.1</ele>
        <time>2021-09-18T10:50:56Z</time>
      </trkpt>
      <trkpt lat="43.87748" lon="6.62893">
        <ele>1550.2</ele>
        <time>2021-09-18T10:50:57Z</time>
      </trkpt>
      <trkpt lat="43.8775" lon="6.62889">
        <ele>1550.3</ele>
        <time>2021-09-18T10:50:59Z</time>
      </trkpt>
      <trkpt lat="43.87751" lon="6.62888">
        <ele>1550.4</ele>
        <time>2021-09-18T10:51:00Z</time>
      </trkpt>
      <trkpt lat="43.87752" lon="6.62887">
        <ele>1550.4</ele>
        <time>2021-09-18T10:51:01Z</time>
      </trkpt>
      <trkpt lat="43.87753" lon="6.62886">
        <ele>1550.4</ele>
        <time>2021-09-18T10:51:03Z</time>
      </trkpt>
      <trkpt lat="43.87755" lon="6.62886">
        <ele>1550.5</ele>
        <time>2021-09-18T10:51:04Z</time>
      </trkpt>
      <trkpt lat="43.87757" lon="6.62886">
        <ele>1550.6</ele>
        <time>2021-09-18T10:51:06Z</time>
      </trkpt>
      <trkpt lat="43.8776" lon="6.62885">
        <ele>1550.7</ele>
        <time>2021-09-18T10:51:07Z</time>
      </trkpt>
      <trkpt lat="43.87762" lon="6.62886">
        <ele>1550.7</ele>
        <time>2021-09-18T10:51:08Z</time>
      </trkpt>
      <trkpt lat="43.87765" lon="6.62885">
        <ele>1550.8</ele>
        <time>2021-09-18T10:51:09Z</time>
      </trkpt>
      <trkpt lat="43.87771" lon="6.62883">
        <ele>1550.9</ele>
        <time>2021-09-18T10:51:11Z</time>
      </trkpt>
      <trkpt lat="43.87776" lon="6.6288">
        <ele>1551.1</ele>
        <time>2021-09-18T10:51:12Z</time>
      </trkpt>
      <trkpt lat="43.87781" lon="6.62876">
        <ele>1551.2</ele>
        <time>2021-09-18T10:51:14Z</time>
      </trkpt>
      <trkpt lat="43.87784" lon="6.62874">
        <ele>1551.3</ele>
        <time>2021-09-18T10:51:15Z</time>
      </trkpt>
      <trkpt lat="43.8779" lon="6.62869">
        <ele>1551.4</ele>
        <time>2021-09-18T10:51:17Z</time>
      </trkpt>
      <trkpt lat="43.87795" lon="6.62868">
        <ele>1551.6</ele>
        <time>2021-09-18T10:51:18Z</time>
      </trkpt>
      <trkpt lat="43.87798" lon="6.62866">
        <ele>1551.7</ele>
        <time>2021-09-18T10:51:19Z</time>
      </trkpt>
      <trkpt lat="43.87803" lon="6.62862">
        <ele>1551.8</ele>
        <time>2021-09-18T10:51:21Z</time>
      </trkpt>
      <trkpt lat="43.87807" lon="6.62856">
        <ele>1552</ele>
        <time>2021-09-18T10:51:23Z</time>
      </trkpt>
      <trkpt lat="43.8781" lon="6.62852">
        <ele>1552.1</ele>
        <time>2021-09-18T10:51:24Z</time>
      </trkpt>
      <trkpt lat="43.87814" lon="6.6285">
        <ele>1552.3</ele>
        <time>2021-09-18T10:51:26Z</time>
      </trkpt>
      <trkpt lat="43.87817" lon="6.62847">
        <ele>1552.4</ele>
        <time>2021-09-18T10:51:27Z</time>
      </trkpt>
      <trkpt lat="43.87821" lon="6.62845">
        <ele>1552.6</ele>
        <time>2021-09-18T10:51:29Z</time>
      </trkpt>
      <trkpt lat="43.87824" lon="6.62843">
        <ele>1552.7</ele>
        <time>2021-09-18T10:51:30Z</time>
      </trkpt>
      <trkpt lat="43.87827" lon="6.62842">
        <ele>1552.8</ele>
        <time>2021-09-18T10:51:31Z</time>
      </trkpt>
      <trkpt lat="43.87831" lon="6.6284">
        <ele>1553</ele>
        <time>2021-09-18T10:51:33Z</time>
      </trkpt>
      <trkpt lat="43.87834" lon="6.62839">
        <ele>1553.1</ele>
        <time>2021-09-18T10:51:34Z</time>
      </trkpt>
      <trkpt lat="43.87835" lon="6.62838">
        <ele>1553.2</ele>
        <time>2021-09-18T10:51:35Z</time>
      </trkpt>
      <trkpt lat="43.87838" lon="6.62837">
        <ele>1553.3</ele>
        <time>2021-09-18T10:51:36Z</time>
      </trkpt>
      <trkpt lat="43.87839" lon="6.62836">
        <ele>1553.3</ele>
        <time>2021-09-18T10:51:37Z</time>
      </trkpt>
      <trkpt lat="43.87842" lon="6.62834">
        <ele>1553.5</ele>
        <time>2021-09-18T10:51:38Z</time>
      </trkpt>
      <trkpt lat="43.87843" lon="6.62833">
        <ele>1553.5</ele>
        <time>2021-09-18T10:51:39Z</time>
      </trkpt>
      <trkpt lat="43.87845" lon="6.62829">
        <ele>1553.7</ele>
        <time>2021-09-18T10:51:41Z</time>
      </trkpt>
      <trkpt lat="43.87847" lon="6.62825">
        <ele>1553.9</ele>
        <time>2021-09-18T10:51:42Z</time>
      </trkpt>
      <trkpt lat="43.87848" lon="6.62823">
        <ele>1554</ele>
        <time>2021-09-18T10:51:43Z</time>
      </trkpt>
      <trkpt lat="43.8785" lon="6.62821">
        <ele>1554.1</ele>
        <time>2021-09-18T10:51:44Z</time>
      </trkpt>
      <trkpt lat="43.87853" lon="6.62817">
        <ele>1554.3</ele>
        <time>2021-09-18T10:51:46Z</time>
      </trkpt>
      <trkpt lat="43.87855" lon="6.62814">
        <ele>1554.5</ele>
        <time>2021-09-18T10:51:47Z</time>
      </trkpt>
      <trkpt lat="43.87858" lon="6.6281">
        <ele>1554.7</ele>
        <time>2021-09-18T10:51:48Z</time>
      </trkpt>
      <trkpt lat="43.8786" lon="6.62808">
        <ele>1554.8</ele>
        <time>2021-09-18T10:51:49Z</time>
      </trkpt>
      <trkpt lat="43.87864" lon="6.62804">
        <ele>1555.1</ele>
        <time>2021-09-18T10:51:51Z</time>
      </trkpt>
      <trkpt lat="43.87867" lon="6.628">
        <ele>1555.4</ele>
        <time>2021-09-18T10:51:52Z</time>
      </trkpt>
      <trkpt lat="43.8787" lon="6.62797">
        <ele>1555.6</ele>
        <time>2021-09-18T10:51:54Z</time>
      </trkpt>
      <trkpt lat="43.87873" lon="6.62794">
        <ele>1555.8</ele>
        <time>2021-09-18T10:51:55Z</time>
      </trkpt>
      <trkpt lat="43.87876" lon="6.62792">
        <ele>1556</ele>
        <time>2021-09-18T10:51:56Z</time>
      </trkpt>
      <trkpt lat="43.87881" lon="6.62789">
        <ele>1556.3</ele>
        <time>2021-09-18T10:51:58Z</time>
      </trkpt>
      <trkpt lat="43.87885" lon="6.62787">
        <ele>1556.6</ele>
        <time>2021-09-18T10:52:00Z</time>
      </trkpt>
      <trkpt lat="43.87888" lon="6.62787">
        <ele>1556.8</ele>
        <time>2021-09-18T10:52:01Z</time>
      </trkpt>
      <trkpt lat="43.87892" lon="6.62787">
        <ele>1557</ele>
        <time>2021-09-18T10:52:03Z</time>
      </trkpt>
      <trkpt lat="43.87894" lon="6.62788">
        <ele>1557.1</ele>
        <time>2021-09-18T10:52:04Z</time>
      </trkpt>
      <trkpt lat="43.87895" lon="6.62788">
        <ele>1557.2</ele>
        <time>2021-09-18T10:52:05Z</time>
      </trkpt>
      <trkpt lat="43.87898" lon="6.6279">
        <ele>1557.4</ele>
        <time>2021-09-18T10:52:07Z</time>
      </trkpt>
      <trkpt lat="43.87901" lon="6.6279">
        <ele>1557.5</ele>
        <time>2021-09-18T10:52:08Z</time>
      </trkpt>
      <trkpt lat="43.87904" lon="6.62791">
        <ele>1557.7</ele>
        <time>2021-09-18T10:52:09Z</time>
      </trkpt>
      <trkpt lat="43.87905" lon="6.6279">
        <ele>1557.8</ele>
        <time>2021-09-18T10:52:10Z</time>
      </trkpt>
      <trkpt lat="43.87907" lon="6.6279">
        <ele>1558</ele>
        <time>2021-09-18T10:52:11Z</time>
      </trkpt>
      <trkpt lat="43.8791" lon="6.62791">
        <ele>1558.2</ele>
        <time>2021-09-18T10:52:13Z</time>
      </trkpt>
      <trkpt lat="43.87913" lon="6.62792">
        <ele>1558.3</ele>
        <time>2021-09-18T10:52:14Z</time>
      </trkpt>
      <trkpt lat="43.87915" lon="6.62794">
        <ele>1558.5</ele>
        <time>2021-09-18T10:52:16Z</time>
      </trkpt>
      <trkpt lat="43.87918" lon="6.62795">
        <ele>1558.7</ele>
        <time>2021-09-18T10:52:17Z</time>
      </trkpt>
      <trkpt lat="43.87919" lon="6.62796">
        <ele>1558.9</ele>
        <time>2021-09-18T10:52:18Z</time>
      </trkpt>
      <trkpt lat="43.87922" lon="6.62799">
        <ele>1559.1</ele>
        <time>2021-09-18T10:52:20Z</time>
      </trkpt>
      <trkpt lat="43.87926" lon="6.62802">
        <ele>1559.4</ele>
        <time>2021-09-18T10:52:22Z</time>
      </trkpt>
      <trkpt lat="43.8793" lon="6.62803">
        <ele>1559.7</ele>
        <time>2021-09-18T10:52:24Z</time>
      </trkpt>
      <trkpt lat="43.87933" lon="6.62803">
        <ele>1559.9</ele>
        <time>2021-09-18T10:52:25Z</time>
      </trkpt>
      <trkpt lat="43.87936" lon="6.62803">
        <ele>1560.1</ele>
        <time>2021-09-18T10:52:26Z</time>
      </trkpt>
      <trkpt lat="43.8794" lon="6.628">
        <ele>1560.5</ele>
        <time>2021-09-18T10:52:28Z</time>
      </trkpt>
      <trkpt lat="43.87945" lon="6.62799">
        <ele>1560.8</ele>
        <time>2021-09-18T10:52:29Z</time>
      </trkpt>
      <trkpt lat="43.87947" lon="6.62798">
        <ele>1561</ele>
        <time>2021-09-18T10:52:30Z</time>
      </trkpt>
      <trkpt lat="43.87951" lon="6.62797">
        <ele>1561.2</ele>
        <time>2021-09-18T10:52:31Z</time>
      </trkpt>
      <trkpt lat="43.87952" lon="6.62797">
        <ele>1561.3</ele>
        <time>2021-09-18T10:52:32Z</time>
      </trkpt>
      <trkpt lat="43.87957" lon="6.62795">
        <ele>1561.7</ele>
        <time>2021-09-18T10:52:34Z</time>
      </trkpt>
      <trkpt lat="43.8796" lon="6.62794">
        <ele>1561.9</ele>
        <time>2021-09-18T10:52:35Z</time>
      </trkpt>
      <trkpt lat="43.87963" lon="6.62795">
        <ele>1562.2</ele>
        <time>2021-09-18T10:52:36Z</time>
      </trkpt>
      <trkpt lat="43.87967" lon="6.62795">
        <ele>1562.5</ele>
        <time>2021-09-18T10:52:37Z</time>
      </trkpt>
      <trkpt lat="43.87968" lon="6.62795">
        <ele>1562.6</ele>
        <time>2021-09-18T10:52:38Z</time>
      </trkpt>
      <trkpt lat="43.87971" lon="6.62795">
        <ele>1562.8</ele>
        <time>2021-09-18T10:52:40Z</time>
      </trkpt>
      <trkpt lat="43.87974" lon="6.62795">
        <ele>1563</ele>
        <time>2021-09-18T10:52:41Z</time>
      </trkpt>
      <trkpt lat="43.87976" lon="6.62795">
        <ele>1563.2</ele>
        <time>2021-09-18T10:52:42Z</time>
      </trkpt>
      <trkpt lat="43.8798" lon="6.62796">
        <ele>1563.4</ele>
        <time>2021-09-18T10:52:44Z</time>
      </trkpt>
      <trkpt lat="43.87983" lon="6.62796">
        <ele>1563.7</ele>
        <time>2021-09-18T10:52:46Z</time>
      </trkpt>
      <trkpt lat="43.87986" lon="6.62796">
        <ele>1563.9</ele>
        <time>2021-09-18T10:52:47Z</time>
      </trkpt>
      <trkpt lat="43.87989" lon="6.62796">
        <ele>1564</ele>
        <time>2021-09-18T10:52:48Z</time>
      </trkpt>
      <trkpt lat="43.87992" lon="6.62796">
        <ele>1564.2</ele>
        <time>2021-09-18T10:52:50Z</time>
      </trkpt>
      <trkpt lat="43.87996" lon="6.62796">
        <ele>1564.5</ele>
        <time>2021-09-18T10:52:51Z</time>
      </trkpt>
      <trkpt lat="43.88001" lon="6.62796">
        <ele>1564.7</ele>
        <time>2021-09-18T10:52:53Z</time>
      </trkpt>
      <trkpt lat="43.88005" lon="6.62796">
        <ele>1564.9</ele>
        <time>2021-09-18T10:52:54Z</time>
      </trkpt>
      <trkpt lat="43.88006" lon="6.62796">
        <ele>1565</ele>
        <time>2021-09-18T10:52:55Z</time>
      </trkpt>
      <trkpt lat="43.88011" lon="6.62798">
        <ele>1565.2</ele>
        <time>2021-09-18T10:52:57Z</time>
      </trkpt>
      <trkpt lat="43.88013" lon="6.628">
        <ele>1565.3</ele>
        <time>2021-09-18T10:52:58Z</time>
      </trkpt>
      <trkpt lat="43.88016" lon="6.62802">
        <ele>1565.5</ele>
        <time>2021-09-18T10:53:00Z</time>
      </trkpt>
      <trkpt lat="43.88019" lon="6.62804">
        <ele>1565.6</ele>
        <time>2021-09-18T10:53:01Z</time>
      </trkpt>
      <trkpt lat="43.88022" lon="6.62808">
        <ele>1565.8</ele>
        <time>2021-09-18T10:53:03Z</time>
      </trkpt>
      <trkpt lat="43.88026" lon="6.62811">
        <ele>1566</ele>
        <time>2021-09-18T10:53:05Z</time>
      </trkpt>
      <trkpt lat="43.88028" lon="6.62813">
        <ele>1566.1</ele>
        <time>2021-09-18T10:53:06Z</time>
      </trkpt>
      <trkpt lat="43.8803" lon="6.62815">
        <ele>1566.2</ele>
        <time>2021-09-18T10:53:07Z</time>
      </trkpt>
      <trkpt lat="43.88034" lon="6.62818">
        <ele>1566.4</ele>
        <time>2021-09-18T10:53:09Z</time>
      </trkpt>
      <trkpt lat="43.88037" lon="6.6282">
        <ele>1566.5</ele>
        <time>2021-09-18T10:53:10Z</time>
      </trkpt>
      <trkpt lat="43.88039" lon="6.62822">
        <ele>1566.6</ele>
        <time>2021-09-18T10:53:11Z</time>
      </trkpt>
      <trkpt lat="43.88043" lon="6.62825">
        <ele>1566.7</ele>
        <time>2021-09-18T10:53:12Z</time>
      </trkpt>
      <trkpt lat="43.88044" lon="6.62827">
        <ele>1566.8</ele>
        <time>2021-09-18T10:53:13Z</time>
      </trkpt>
      <trkpt lat="43.88048" lon="6.6283">
        <ele>1566.9</ele>
        <time>2021-09-18T10:53:15Z</time>
      </trkpt>
      <trkpt lat="43.88051" lon="6.62835">
        <ele>1567.1</ele>
        <time>2021-09-18T10:53:17Z</time>
      </trkpt>
      <trkpt lat="43.88055" lon="6.62839">
        <ele>1567.2</ele>
        <time>2021-09-18T10:53:19Z</time>
      </trkpt>
      <trkpt lat="43.88059" lon="6.62842">
        <ele>1567.3</ele>
        <time>2021-09-18T10:53:21Z</time>
      </trkpt>
      <trkpt lat="43.88061" lon="6.62845">
        <ele>1567.4</ele>
        <time>2021-09-18T10:53:22Z</time>
      </trkpt>
      <trkpt lat="43.88063" lon="6.62849">
        <ele>1567.5</ele>
        <time>2021-09-18T10:53:24Z</time>
      </trkpt>
      <trkpt lat="43.88066" lon="6.62852">
        <ele>1567.6</ele>
        <time>2021-09-18T10:53:25Z</time>
      </trkpt>
      <trkpt lat="43.88068" lon="6.62856">
        <ele>1567.7</ele>
        <time>2021-09-18T10:53:26Z</time>
      </trkpt>
      <trkpt lat="43.88069" lon="6.62857">
        <ele>1567.7</ele>
        <time>2021-09-18T10:53:27Z</time>
      </trkpt>
      <trkpt lat="43.88071" lon="6.62862">
        <ele>1567.8</ele>
        <time>2021-09-18T10:53:29Z</time>
      </trkpt>
      <trkpt lat="43.88074" lon="6.62866">
        <ele>1567.9</ele>
        <time>2021-09-18T10:53:31Z</time>
      </trkpt>
      <trkpt lat="43.88076" lon="6.62868">
        <ele>1567.9</ele>
        <time>2021-09-18T10:53:32Z</time>
      </trkpt>
      <trkpt lat="43.88078" lon="6.62871">
        <ele>1568</ele>
        <time>2021-09-18T10:53:34Z</time>
      </trkpt>
      <trkpt lat="43.88081" lon="6.62873">
        <ele>1568.1</ele>
        <time>2021-09-18T10:53:35Z</time>
      </trkpt>
      <trkpt lat="43.88082" lon="6.62874">
        <ele>1568.1</ele>
        <time>2021-09-18T10:53:36Z</time>
      </trkpt>
      <trkpt lat="43.88084" lon="6.62876">
        <ele>1568.2</ele>
        <time>2021-09-18T10:53:37Z</time>
      </trkpt>
      <trkpt lat="43.88085" lon="6.62877">
        <ele>1568.2</ele>
        <time>2021-09-18T10:53:38Z</time>
      </trkpt>
      <trkpt lat="43.88089" lon="6.62879">
        <ele>1568.3</ele>
        <time>2021-09-18T10:53:40Z</time>
      </trkpt>
      <trkpt lat="43.88093" lon="6.62883">
        <ele>1568.4</ele>
        <time>2021-09-18T10:53:42Z</time>
      </trkpt>
      <trkpt lat="43.88094" lon="6.62884">
        <ele>1568.4</ele>
        <time>2021-09-18T10:53:43Z</time>
      </trkpt>
      <trkpt lat="43.88096" lon="6.62886">
        <ele>1568.5</ele>
        <time>2021-09-18T10:53:44Z</time>
      </trkpt>
      <trkpt lat="43.88099" lon="6.62888">
        <ele>1568.5</ele>
        <time>2021-09-18T10:53:46Z</time>
      </trkpt>
      <trkpt lat="43.88102" lon="6.62891">
        <ele>1568.6</ele>
        <time>2021-09-18T10:53:47Z</time>
      </trkpt>
      <trkpt lat="43.88104" lon="6.62893">
        <ele>1568.7</ele>
        <time>2021-09-18T10:53:48Z</time>
      </trkpt>
      <trkpt lat="43.88107" lon="6.62897">
        <ele>1568.8</ele>
        <time>2021-09-18T10:53:49Z</time>
      </trkpt>
      <trkpt lat="43.88108" lon="6.62898">
        <ele>1568.8</ele>
        <time>2021-09-18T10:53:50Z</time>
      </trkpt>
      <trkpt lat="43.8811" lon="6.62902">
        <ele>1568.9</ele>
        <time>2021-09-18T10:53:52Z</time>
      </trkpt>
      <trkpt lat="43.88113" lon="6.62904">
        <ele>1569</ele>
        <time>2021-09-18T10:53:53Z</time>
      </trkpt>
      <trkpt lat="43.88115" lon="6.62907">
        <ele>1569.1</ele>
        <time>2021-09-18T10:53:54Z</time>
      </trkpt>
      <trkpt lat="43.88119" lon="6.62912">
        <ele>1569.2</ele>
        <time>2021-09-18T10:53:56Z</time>
      </trkpt>
      <trkpt lat="43.88123" lon="6.62916">
        <ele>1569.3</ele>
        <time>2021-09-18T10:53:58Z</time>
      </trkpt>
      <trkpt lat="43.88126" lon="6.6292">
        <ele>1569.5</ele>
        <time>2021-09-18T10:54:00Z</time>
      </trkpt>
      <trkpt lat="43.88128" lon="6.62923">
        <ele>1569.6</ele>
        <time>2021-09-18T10:54:01Z</time>
      </trkpt>
      <trkpt lat="43.88129" lon="6.62924">
        <ele>1569.6</ele>
        <time>2021-09-18T10:54:02Z</time>
      </trkpt>
      <trkpt lat="43.88132" lon="6.62926">
        <ele>1569.7</ele>
        <time>2021-09-18T10:54:03Z</time>
      </trkpt>
      <trkpt lat="43.88133" lon="6.62927">
        <ele>1569.7</ele>
        <time>2021-09-18T10:54:04Z</time>
      </trkpt>
      <trkpt lat="43.88135" lon="6.62928">
        <ele>1569.8</ele>
        <time>2021-09-18T10:54:05Z</time>
      </trkpt>
      <trkpt lat="43.88138" lon="6.62931">
        <ele>1569.9</ele>
        <time>2021-09-18T10:54:07Z</time>
      </trkpt>
      <trkpt lat="43.88142" lon="6.62935">
        <ele>1570</ele>
        <time>2021-09-18T10:54:09Z</time>
      </trkpt>
      <trkpt lat="43.88144" lon="6.62939">
        <ele>1570.1</ele>
        <time>2021-09-18T10:54:10Z</time>
      </trkpt>
      <trkpt lat="43.88147" lon="6.62942">
        <ele>1570.2</ele>
        <time>2021-09-18T10:54:12Z</time>
      </trkpt>
      <trkpt lat="43.8815" lon="6.62945">
        <ele>1570.3</ele>
        <time>2021-09-18T10:54:13Z</time>
      </trkpt>
      <trkpt lat="43.88152" lon="6.62948">
        <ele>1570.4</ele>
        <time>2021-09-18T10:54:14Z</time>
      </trkpt>
      <trkpt lat="43.88156" lon="6.62954">
        <ele>1570.5</ele>
        <time>2021-09-18T10:54:16Z</time>
      </trkpt>
      <trkpt lat="43.88158" lon="6.62959">
        <ele>1570.7</ele>
        <time>2021-09-18T10:54:18Z</time>
      </trkpt>
      <trkpt lat="43.8816" lon="6.62963">
        <ele>1570.8</ele>
        <time>2021-09-18T10:54:19Z</time>
      </trkpt>
      <trkpt lat="43.88163" lon="6.62967">
        <ele>1570.9</ele>
        <time>2021-09-18T10:54:20Z</time>
      </trkpt>
      <trkpt lat="43.88166" lon="6.62969">
        <ele>1571</ele>
        <time>2021-09-18T10:54:21Z</time>
      </trkpt>
      <trkpt lat="43.88167" lon="6.6297">
        <ele>1571</ele>
        <time>2021-09-18T10:54:22Z</time>
      </trkpt>
      <trkpt lat="43.88169" lon="6.62972">
        <ele>1571.1</ele>
        <time>2021-09-18T10:54:23Z</time>
      </trkpt>
      <trkpt lat="43.88173" lon="6.62976">
        <ele>1571.3</ele>
        <time>2021-09-18T10:54:25Z</time>
      </trkpt>
      <trkpt lat="43.88176" lon="6.62981">
        <ele>1571.5</ele>
        <time>2021-09-18T10:54:27Z</time>
      </trkpt>
      <trkpt lat="43.88181" lon="6.62985">
        <ele>1571.7</ele>
        <time>2021-09-18T10:54:29Z</time>
      </trkpt>
      <trkpt lat="43.88185" lon="6.62988">
        <ele>1571.9</ele>
        <time>2021-09-18T10:54:31Z</time>
      </trkpt>
      <trkpt lat="43.88187" lon="6.62991">
        <ele>1572</ele>
        <time>2021-09-18T10:54:32Z</time>
      </trkpt>
      <trkpt lat="43.88189" lon="6.62995">
        <ele>1572.2</ele>
        <time>2021-09-18T10:54:34Z</time>
      </trkpt>
      <trkpt lat="43.88192" lon="6.62998">
        <ele>1572.3</ele>
        <time>2021-09-18T10:54:35Z</time>
      </trkpt>
      <trkpt lat="43.88195" lon="6.63">
        <ele>1572.4</ele>
        <time>2021-09-18T10:54:36Z</time>
      </trkpt>
      <trkpt lat="43.88197" lon="6.63001">
        <ele>1572.5</ele>
        <time>2021-09-18T10:54:37Z</time>
      </trkpt>
      <trkpt lat="43.882" lon="6.63003">
        <ele>1572.6</ele>
        <time>2021-09-18T10:54:39Z</time>
      </trkpt>
      <trkpt lat="43.88201" lon="6.63005">
        <ele>1572.7</ele>
        <time>2021-09-18T10:54:40Z</time>
      </trkpt>
      <trkpt lat="43.88204" lon="6.63009">
        <ele>1572.9</ele>
        <time>2021-09-18T10:54:42Z</time>
      </trkpt>
      <trkpt lat="43.88207" lon="6.63011">
        <ele>1573</ele>
        <time>2021-09-18T10:54:43Z</time>
      </trkpt>
      <trkpt lat="43.88208" lon="6.63011">
        <ele>1573.1</ele>
        <time>2021-09-18T10:54:44Z</time>
      </trkpt>
      <trkpt lat="43.88212" lon="6.63013">
        <ele>1573.2</ele>
        <time>2021-09-18T10:54:46Z</time>
      </trkpt>
      <trkpt lat="43.88215" lon="6.63016">
        <ele>1573.4</ele>
        <time>2021-09-18T10:54:48Z</time>
      </trkpt>
      <trkpt lat="43.88218" lon="6.6302">
        <ele>1573.6</ele>
        <time>2021-09-18T10:54:50Z</time>
      </trkpt>
      <trkpt lat="43.88221" lon="6.63025">
        <ele>1573.8</ele>
        <time>2021-09-18T10:54:52Z</time>
      </trkpt>
      <trkpt lat="43.88222" lon="6.63029">
        <ele>1573.9</ele>
        <time>2021-09-18T10:54:53Z</time>
      </trkpt>
      <trkpt lat="43.88224" lon="6.63031">
        <ele>1574</ele>
        <time>2021-09-18T10:54:54Z</time>
      </trkpt>
      <trkpt lat="43.88226" lon="6.63034">
        <ele>1574.1</ele>
        <time>2021-09-18T10:54:56Z</time>
      </trkpt>
      <trkpt lat="43.88229" lon="6.63037">
        <ele>1574.3</ele>
        <time>2021-09-18T10:54:57Z</time>
      </trkpt>
      <trkpt lat="43.88233" lon="6.63043">
        <ele>1574.5</ele>
        <time>2021-09-18T10:54:59Z</time>
      </trkpt>
      <trkpt lat="43.88235" lon="6.63045">
        <ele>1574.6</ele>
        <time>2021-09-18T10:55:00Z</time>
      </trkpt>
      <trkpt lat="43.88236" lon="6.63047">
        <ele>1574.7</ele>
        <time>2021-09-18T10:55:01Z</time>
      </trkpt>
      <trkpt lat="43.88239" lon="6.63051">
        <ele>1574.9</ele>
        <time>2021-09-18T10:55:02Z</time>
      </trkpt>
      <trkpt lat="43.8824" lon="6.63052">
        <ele>1575</ele>
        <time>2021-09-18T10:55:03Z</time>
      </trkpt>
      <trkpt lat="43.88243" lon="6.63057">
        <ele>1575.2</ele>
        <time>2021-09-18T10:55:05Z</time>
      </trkpt>
      <trkpt lat="43.88245" lon="6.6306">
        <ele>1575.3</ele>
        <time>2021-09-18T10:55:06Z</time>
      </trkpt>
      <trkpt lat="43.88248" lon="6.63063">
        <ele>1575.5</ele>
        <time>2021-09-18T10:55:08Z</time>
      </trkpt>
      <trkpt lat="43.88251" lon="6.63066">
        <ele>1575.6</ele>
        <time>2021-09-18T10:55:10Z</time>
      </trkpt>
      <trkpt lat="43.88253" lon="6.63068">
        <ele>1575.7</ele>
        <time>2021-09-18T10:55:11Z</time>
      </trkpt>
      <trkpt lat="43.88257" lon="6.63072">
        <ele>1575.9</ele>
        <time>2021-09-18T10:55:13Z</time>
      </trkpt>
      <trkpt lat="43.88261" lon="6.63074">
        <ele>1576</ele>
        <time>2021-09-18T10:55:15Z</time>
      </trkpt>
      <trkpt lat="43.88267" lon="6.63074">
        <ele>1576.2</ele>
        <time>2021-09-18T10:55:17Z</time>
      </trkpt>
      <trkpt lat="43.88272" lon="6.63074">
        <ele>1576.4</ele>
        <time>2021-09-18T10:55:19Z</time>
      </trkpt>
      <trkpt lat="43.88276" lon="6.63073">
        <ele>1576.6</ele>
        <time>2021-09-18T10:55:20Z</time>
      </trkpt>
      <trkpt lat="43.88279" lon="6.63072">
        <ele>1576.7</ele>
        <time>2021-09-18T10:55:21Z</time>
      </trkpt>
      <trkpt lat="43.8828" lon="6.63072">
        <ele>1576.8</ele>
        <time>2021-09-18T10:55:22Z</time>
      </trkpt>
      <trkpt lat="43.88282" lon="6.63072">
        <ele>1576.8</ele>
        <time>2021-09-18T10:55:23Z</time>
      </trkpt>
      <trkpt lat="43.88285" lon="6.6307">
        <ele>1577</ele>
        <time>2021-09-18T10:55:25Z</time>
      </trkpt>
      <trkpt lat="43.88288" lon="6.63068">
        <ele>1577.1</ele>
        <time>2021-09-18T10:55:26Z</time>
      </trkpt>
      <trkpt lat="43.88292" lon="6.63065">
        <ele>1577.3</ele>
        <time>2021-09-18T10:55:28Z</time>
      </trkpt>
      <trkpt lat="43.88293" lon="6.63065">
        <ele>1577.4</ele>
        <time>2021-09-18T10:55:29Z</time>
      </trkpt>
      <trkpt lat="43.88294" lon="6.63064">
        <ele>1577.4</ele>
        <time>2021-09-18T10:55:30Z</time>
      </trkpt>
      <trkpt lat="43.88298" lon="6.63062">
        <ele>1577.6</ele>
        <time>2021-09-18T10:55:31Z</time>
      </trkpt>
      <trkpt lat="43.88299" lon="6.63061">
        <ele>1577.6</ele>
        <time>2021-09-18T10:55:32Z</time>
      </trkpt>
      <trkpt lat="43.88302" lon="6.63059">
        <ele>1577.8</ele>
        <time>2021-09-18T10:55:33Z</time>
      </trkpt>
      <trkpt lat="43.88303" lon="6.63058">
        <ele>1577.9</ele>
        <time>2021-09-18T10:55:34Z</time>
      </trkpt>
      <trkpt lat="43.88306" lon="6.63056">
        <ele>1578</ele>
        <time>2021-09-18T10:55:35Z</time>
      </trkpt>
      <trkpt lat="43.8831" lon="6.63055">
        <ele>1578.2</ele>
        <time>2021-09-18T10:55:37Z</time>
      </trkpt>
      <trkpt lat="43.8831" lon="6.63055">
        <ele>1578.2</ele>
        <time>2021-09-18T10:55:38Z</time>
      </trkpt>
      <trkpt lat="43.88313" lon="6.63054">
        <ele>1578.3</ele>
        <time>2021-09-18T10:55:39Z</time>
      </trkpt>
      <trkpt lat="43.88316" lon="6.63054">
        <ele>1578.4</ele>
        <time>2021-09-18T10:55:41Z</time>
      </trkpt>
      <trkpt lat="43.8832" lon="6.63052">
        <ele>1578.6</ele>
        <time>2021-09-18T10:55:42Z</time>
      </trkpt>
      <trkpt lat="43.88322" lon="6.63052">
        <ele>1578.7</ele>
        <time>2021-09-18T10:55:43Z</time>
      </trkpt>
      <trkpt lat="43.88326" lon="6.63052">
        <ele>1578.9</ele>
        <time>2021-09-18T10:55:44Z</time>
      </trkpt>
      <trkpt lat="43.88328" lon="6.63052">
        <ele>1578.9</ele>
        <time>2021-09-18T10:55:45Z</time>
      </trkpt>
      <trkpt lat="43.88332" lon="6.63052">
        <ele>1579.1</ele>
        <time>2021-09-18T10:55:47Z</time>
      </trkpt>
      <trkpt lat="43.88335" lon="6.63053">
        <ele>1579.2</ele>
        <time>2021-09-18T10:55:48Z</time>
      </trkpt>
      <trkpt lat="43.88339" lon="6.63054">
        <ele>1579.4</ele>
        <time>2021-09-18T10:55:50Z</time>
      </trkpt>
      <trkpt lat="43.88343" lon="6.63056">
        <ele>1579.5</ele>
        <time>2021-09-18T10:55:52Z</time>
      </trkpt>
      <trkpt lat="43.88346" lon="6.63056">
        <ele>1579.6</ele>
        <time>2021-09-18T10:55:53Z</time>
      </trkpt>
      <trkpt lat="43.88348" lon="6.63057">
        <ele>1579.7</ele>
        <time>2021-09-18T10:55:54Z</time>
      </trkpt>
      <trkpt lat="43.88351" lon="6.63059">
        <ele>1579.9</ele>
        <time>2021-09-18T10:55:56Z</time>
      </trkpt>
      <trkpt lat="43.88354" lon="6.6306">
        <ele>1580</ele>
        <time>2021-09-18T10:55:57Z</time>
      </trkpt>
      <trkpt lat="43.88358" lon="6.63061">
        <ele>1580.2</ele>
        <time>2021-09-18T10:55:58Z</time>
      </trkpt>
      <trkpt lat="43.8836" lon="6.63061">
        <ele>1580.2</ele>
        <time>2021-09-18T10:55:59Z</time>
      </trkpt>
      <trkpt lat="43.88365" lon="6.63063">
        <ele>1580.5</ele>
        <time>2021-09-18T10:56:01Z</time>
      </trkpt>
      <trkpt lat="43.88367" lon="6.63065">
        <ele>1580.6</ele>
        <time>2021-09-18T10:56:02Z</time>
      </trkpt>
      <trkpt lat="43.88372" lon="6.6307">
        <ele>1580.9</ele>
        <time>2021-09-18T10:56:04Z</time>
      </trkpt>
      <trkpt lat="43.88376" lon="6.63074">
        <ele>1581.2</ele>
        <time>2021-09-18T10:56:06Z</time>
      </trkpt>
      <trkpt lat="43.88379" lon="6.6308">
        <ele>1581.4</ele>
        <time>2021-09-18T10:56:08Z</time>
      </trkpt>
      <trkpt lat="43.88381" lon="6.63083">
        <ele>1581.5</ele>
        <time>2021-09-18T10:56:09Z</time>
      </trkpt>
      <trkpt lat="43.88384" lon="6.63086">
        <ele>1581.7</ele>
        <time>2021-09-18T10:56:10Z</time>
      </trkpt>
      <trkpt lat="43.88384" lon="6.63087">
        <ele>1581.7</ele>
        <time>2021-09-18T10:56:11Z</time>
      </trkpt>
      <trkpt lat="43.88387" lon="6.6309">
        <ele>1581.9</ele>
        <time>2021-09-18T10:56:13Z</time>
      </trkpt>
      <trkpt lat="43.88389" lon="6.63093">
        <ele>1582</ele>
        <time>2021-09-18T10:56:14Z</time>
      </trkpt>
      <trkpt lat="43.88392" lon="6.63099">
        <ele>1582.2</ele>
        <time>2021-09-18T10:56:16Z</time>
      </trkpt>
      <trkpt lat="43.88394" lon="6.63101">
        <ele>1582.3</ele>
        <time>2021-09-18T10:56:17Z</time>
      </trkpt>
      <trkpt lat="43.88395" lon="6.63103">
        <ele>1582.4</ele>
        <time>2021-09-18T10:56:18Z</time>
      </trkpt>
      <trkpt lat="43.88397" lon="6.63107">
        <ele>1582.6</ele>
        <time>2021-09-18T10:56:20Z</time>
      </trkpt>
      <trkpt lat="43.88399" lon="6.63112">
        <ele>1582.8</ele>
        <time>2021-09-18T10:56:22Z</time>
      </trkpt>
      <trkpt lat="43.88401" lon="6.63116">
        <ele>1582.9</ele>
        <time>2021-09-18T10:56:24Z</time>
      </trkpt>
      <trkpt lat="43.88404" lon="6.6312">
        <ele>1583.1</ele>
        <time>2021-09-18T10:56:26Z</time>
      </trkpt>
      <trkpt lat="43.88405" lon="6.63123">
        <ele>1583.2</ele>
        <time>2021-09-18T10:56:27Z</time>
      </trkpt>
      <trkpt lat="43.88408" lon="6.63129">
        <ele>1583.4</ele>
        <time>2021-09-18T10:56:29Z</time>
      </trkpt>
      <trkpt lat="43.88411" lon="6.63134">
        <ele>1583.6</ele>
        <time>2021-09-18T10:56:31Z</time>
      </trkpt>
      <trkpt lat="43.88413" lon="6.63139">
        <ele>1583.7</ele>
        <time>2021-09-18T10:56:32Z</time>
      </trkpt>
      <trkpt lat="43.88414" lon="6.63142">
        <ele>1583.8</ele>
        <time>2021-09-18T10:56:33Z</time>
      </trkpt>
      <trkpt lat="43.88416" lon="6.63147">
        <ele>1584</ele>
        <time>2021-09-18T10:56:35Z</time>
      </trkpt>
      <trkpt lat="43.88418" lon="6.63152">
        <ele>1584.1</ele>
        <time>2021-09-18T10:56:36Z</time>
      </trkpt>
      <trkpt lat="43.8842" lon="6.63157">
        <ele>1584.2</ele>
        <time>2021-09-18T10:56:38Z</time>
      </trkpt>
      <trkpt lat="43.88422" lon="6.63161">
        <ele>1584.4</ele>
        <time>2021-09-18T10:56:39Z</time>
      </trkpt>
      <trkpt lat="43.88422" lon="6.63164">
        <ele>1584.5</ele>
        <time>2021-09-18T10:56:40Z</time>
      </trkpt>
      <trkpt lat="43.88424" lon="6.6317">
        <ele>1584.6</ele>
        <time>2021-09-18T10:56:42Z</time>
      </trkpt>
      <trkpt lat="43.88424" lon="6.63172">
        <ele>1584.7</ele>
        <time>2021-09-18T10:56:43Z</time>
      </trkpt>
      <trkpt lat="43.88425" lon="6.63174">
        <ele>1584.7</ele>
        <time>2021-09-18T10:56:44Z</time>
      </trkpt>
      <trkpt lat="43.88426" lon="6.63176">
        <ele>1584.8</ele>
        <time>2021-09-18T10:56:45Z</time>
      </trkpt>
      <trkpt lat="43.88426" lon="6.6318">
        <ele>1584.9</ele>
        <time>2021-09-18T10:56:47Z</time>
      </trkpt>
      <trkpt lat="43.88427" lon="6.63184">
        <ele>1585</ele>
        <time>2021-09-18T10:56:48Z</time>
      </trkpt>
      <trkpt lat="43.88427" lon="6.63189">
        <ele>1585.1</ele>
        <time>2021-09-18T10:56:49Z</time>
      </trkpt>
      <trkpt lat="43.88428" lon="6.6319">
        <ele>1585.2</ele>
        <time>2021-09-18T10:56:50Z</time>
      </trkpt>
      <trkpt lat="43.88429" lon="6.63196">
        <ele>1585.3</ele>
        <time>2021-09-18T10:56:52Z</time>
      </trkpt>
      <trkpt lat="43.8843" lon="6.63201">
        <ele>1585.5</ele>
        <time>2021-09-18T10:56:54Z</time>
      </trkpt>
      <trkpt lat="43.88431" lon="6.63205">
        <ele>1585.6</ele>
        <time>2021-09-18T10:56:55Z</time>
      </trkpt>
      <trkpt lat="43.88431" lon="6.63207">
        <ele>1585.6</ele>
        <time>2021-09-18T10:56:56Z</time>
      </trkpt>
      <trkpt lat="43.88432" lon="6.63212">
        <ele>1585.8</ele>
        <time>2021-09-18T10:56:58Z</time>
      </trkpt>
      <trkpt lat="43.88433" lon="6.63215">
        <ele>1585.9</ele>
        <time>2021-09-18T10:56:59Z</time>
      </trkpt>
      <trkpt lat="43.88434" lon="6.63221">
        <ele>1586</ele>
        <time>2021-09-18T10:57:01Z</time>
      </trkpt>
      <trkpt lat="43.88434" lon="6.63226">
        <ele>1586.2</ele>
        <time>2021-09-18T10:57:02Z</time>
      </trkpt>
      <trkpt lat="43.88435" lon="6.63227">
        <ele>1586.2</ele>
        <time>2021-09-18T10:57:03Z</time>
      </trkpt>
      <trkpt lat="43.88436" lon="6.63231">
        <ele>1586.3</ele>
        <time>2021-09-18T10:57:05Z</time>
      </trkpt>
      <trkpt lat="43.88437" lon="6.63233">
        <ele>1586.4</ele>
        <time>2021-09-18T10:57:06Z</time>
      </trkpt>
      <trkpt lat="43.88437" lon="6.63237">
        <ele>1586.5</ele>
        <time>2021-09-18T10:57:08Z</time>
      </trkpt>
      <trkpt lat="43.88437" lon="6.63241">
        <ele>1586.6</ele>
        <time>2021-09-18T10:57:09Z</time>
      </trkpt>
      <trkpt lat="43.88437" lon="6.63246">
        <ele>1586.8</ele>
        <time>2021-09-18T10:57:11Z</time>
      </trkpt>
      <trkpt lat="43.88437" lon="6.6325">
        <ele>1586.9</ele>
        <time>2021-09-18T10:57:12Z</time>
      </trkpt>
      <trkpt lat="43.88437" lon="6.63254">
        <ele>1587</ele>
        <time>2021-09-18T10:57:13Z</time>
      </trkpt>
      <trkpt lat="43.88437" lon="6.63256">
        <ele>1587.1</ele>
        <time>2021-09-18T10:57:14Z</time>
      </trkpt>
      <trkpt lat="43.88437" lon="6.63261">
        <ele>1587.2</ele>
        <time>2021-09-18T10:57:16Z</time>
      </trkpt>
      <trkpt lat="43.88439" lon="6.63265">
        <ele>1587.4</ele>
        <time>2021-09-18T10:57:18Z</time>
      </trkpt>
      <trkpt lat="43.88439" lon="6.6327">
        <ele>1587.5</ele>
        <time>2021-09-18T10:57:20Z</time>
      </trkpt>
      <trkpt lat="43.8844" lon="6.63273">
        <ele>1587.6</ele>
        <time>2021-09-18T10:57:21Z</time>
      </trkpt>
      <trkpt lat="43.88441" lon="6.63278">
        <ele>1587.8</ele>
        <time>2021-09-18T10:57:23Z</time>
      </trkpt>
      <trkpt lat="43.88443" lon="6.63281">
        <ele>1587.9</ele>
        <time>2021-09-18T10:57:24Z</time>
      </trkpt>
      <trkpt lat="43.88445" lon="6.6329">
        <ele>1588.2</ele>
        <time>2021-09-18T10:57:26Z</time>
      </trkpt>
      <trkpt lat="43.88447" lon="6.63298">
        <ele>1588.4</ele>
        <time>2021-09-18T10:57:28Z</time>
      </trkpt>
      <trkpt lat="43.88448" lon="6.63301">
        <ele>1588.6</ele>
        <time>2021-09-18T10:57:29Z</time>
      </trkpt>
      <trkpt lat="43.8845" lon="6.63309">
        <ele>1588.8</ele>
        <time>2021-09-18T10:57:31Z</time>
      </trkpt>
      <trkpt lat="43.88452" lon="6.63312">
        <ele>1588.9</ele>
        <time>2021-09-18T10:57:32Z</time>
      </trkpt>
      <trkpt lat="43.88454" lon="6.63318">
        <ele>1589.1</ele>
        <time>2021-09-18T10:57:34Z</time>
      </trkpt>
      <trkpt lat="43.88456" lon="6.63322">
        <ele>1589.3</ele>
        <time>2021-09-18T10:57:35Z</time>
      </trkpt>
      <trkpt lat="43.88458" lon="6.63326">
        <ele>1589.4</ele>
        <time>2021-09-18T10:57:37Z</time>
      </trkpt>
      <trkpt lat="43.8846" lon="6.63331">
        <ele>1589.5</ele>
        <time>2021-09-18T10:57:38Z</time>
      </trkpt>
      <trkpt lat="43.88462" lon="6.63336">
        <ele>1589.7</ele>
        <time>2021-09-18T10:57:40Z</time>
      </trkpt>
      <trkpt lat="43.88464" lon="6.63341">
        <ele>1589.8</ele>
        <time>2021-09-18T10:57:41Z</time>
      </trkpt>
      <trkpt lat="43.88466" lon="6.63344">
        <ele>1589.9</ele>
        <time>2021-09-18T10:57:42Z</time>
      </trkpt>
      <trkpt lat="43.88468" lon="6.63351">
        <ele>1590.1</ele>
        <time>2021-09-18T10:57:44Z</time>
      </trkpt>
      <trkpt lat="43.8847" lon="6.63354">
        <ele>1590.2</ele>
        <time>2021-09-18T10:57:45Z</time>
      </trkpt>
      <trkpt lat="43.88472" lon="6.6336">
        <ele>1590.3</ele>
        <time>2021-09-18T10:57:47Z</time>
      </trkpt>
      <trkpt lat="43.88473" lon="6.63365">
        <ele>1590.4</ele>
        <time>2021-09-18T10:57:49Z</time>
      </trkpt>
      <trkpt lat="43.88475" lon="6.6337">
        <ele>1590.6</ele>
        <time>2021-09-18T10:57:51Z</time>
      </trkpt>
      <trkpt lat="43.88476" lon="6.63372">
        <ele>1590.6</ele>
        <time>2021-09-18T10:57:52Z</time>
      </trkpt>
      <trkpt lat="43.88478" lon="6.63377">
        <ele>1590.8</ele>
        <time>2021-09-18T10:57:54Z</time>
      </trkpt>
      <trkpt lat="43.8848" lon="6.63381">
        <ele>1590.9</ele>
        <time>2021-09-18T10:57:55Z</time>
      </trkpt>
      <trkpt lat="43.88481" lon="6.63382">
        <ele>1590.9</ele>
        <time>2021-09-18T10:57:56Z</time>
      </trkpt>
      <trkpt lat="43.88484" lon="6.63388">
        <ele>1591.1</ele>
        <time>2021-09-18T10:57:59Z</time>
      </trkpt>
      <trkpt lat="43.88486" lon="6.6339">
        <ele>1591.1</ele>
        <time>2021-09-18T10:58:00Z</time>
      </trkpt>
      <trkpt lat="43.88487" lon="6.63391">
        <ele>1591.2</ele>
        <time>2021-09-18T10:58:01Z</time>
      </trkpt>
      <trkpt lat="43.88488" lon="6.63393">
        <ele>1591.2</ele>
        <time>2021-09-18T10:58:02Z</time>
      </trkpt>
      <trkpt lat="43.88489" lon="6.63396">
        <ele>1591.3</ele>
        <time>2021-09-18T10:58:04Z</time>
      </trkpt>
      <trkpt lat="43.88489" lon="6.63397">
        <ele>1591.4</ele>
        <time>2021-09-18T10:58:05Z</time>
      </trkpt>
      <trkpt lat="43.88489" lon="6.63399">
        <ele>1591.4</ele>
        <time>2021-09-18T10:58:07Z</time>
      </trkpt>
      <trkpt lat="43.88489" lon="6.63399">
        <ele>1591.4</ele>
        <time>2021-09-18T10:58:08Z</time>
      </trkpt>
      <trkpt lat="43.88491" lon="6.634">
        <ele>1591.5</ele>
        <time>2021-09-18T10:58:10Z</time>
      </trkpt>
      <trkpt lat="43.8849" lon="6.63399">
        <ele>1591.5</ele>
        <time>2021-09-18T10:58:12Z</time>
      </trkpt>
      <trkpt lat="43.8849" lon="6.63398">
        <ele>1591.5</ele>
        <time>2021-09-18T10:58:13Z</time>
      </trkpt>
      <trkpt lat="43.88488" lon="6.63396">
        <ele>1591.6</ele>
        <time>2021-09-18T10:58:14Z</time>
      </trkpt>
      <trkpt lat="43.88485" lon="6.63393">
        <ele>1591.7</ele>
        <time>2021-09-18T10:58:16Z</time>
      </trkpt>
      <trkpt lat="43.88483" lon="6.63391">
        <ele>1591.8</ele>
        <time>2021-09-18T10:58:18Z</time>
      </trkpt>
      <trkpt lat="43.88483" lon="6.63391">
        <ele>1591.8</ele>
        <time>2021-09-18T10:58:19Z</time>
      </trkpt>
      <trkpt lat="43.88482" lon="6.63391">
        <ele>1591.8</ele>
        <time>2021-09-18T10:58:20Z</time>
      </trkpt>
      <trkpt lat="43.88481" lon="6.6339">
        <ele>1591.9</ele>
        <time>2021-09-18T10:58:22Z</time>
      </trkpt>
      <trkpt lat="43.88481" lon="6.6339">
        <ele>1591.9</ele>
        <time>2021-09-18T10:58:23Z</time>
      </trkpt>
      <trkpt lat="43.88482" lon="6.63391">
        <ele>1591.9</ele>
        <time>2021-09-18T10:58:25Z</time>
      </trkpt>
      <trkpt lat="43.88482" lon="6.63391">
        <ele>1591.9</ele>
        <time>2021-09-18T10:58:26Z</time>
      </trkpt>
      <trkpt lat="43.88482" lon="6.63391">
        <ele>1591.9</ele>
        <time>2021-09-18T10:58:27Z</time>
      </trkpt>
      <trkpt lat="43.88482" lon="6.63391">
        <ele>1591.9</ele>
        <time>2021-09-18T10:58:29Z</time>
      </trkpt>
      <trkpt lat="43.88482" lon="6.63392">
        <ele>1591.9</ele>
        <time>2021-09-18T10:58:31Z</time>
      </trkpt>
      <trkpt lat="43.88495" lon="6.63396">
        <ele>1592.4</ele>
        <time>2021-09-18T11:00:06Z</time>
      </trkpt>
      <trkpt lat="43.88497" lon="6.63404">
        <ele>1601.9</ele>
        <time>2021-09-18T11:00:08Z</time>
      </trkpt>
      <trkpt lat="43.885" lon="6.63413">
        <ele>1613.9</ele>
        <time>2021-09-18T11:00:09Z</time>
      </trkpt>
      <trkpt lat="43.88502" lon="6.63422">
        <ele>1613.9</ele>
        <time>2021-09-18T11:00:11Z</time>
      </trkpt>
      <trkpt lat="43.88505" lon="6.63429">
        <ele>1613.8</ele>
        <time>2021-09-18T11:00:13Z</time>
      </trkpt>
      <trkpt lat="43.88506" lon="6.63434">
        <ele>1613.7</ele>
        <time>2021-09-18T11:00:14Z</time>
      </trkpt>
      <trkpt lat="43.88507" lon="6.63439">
        <ele>1613.7</ele>
        <time>2021-09-18T11:00:15Z</time>
      </trkpt>
      <trkpt lat="43.88508" lon="6.63444">
        <ele>1613.6</ele>
        <time>2021-09-18T11:00:16Z</time>
      </trkpt>
      <trkpt lat="43.8851" lon="6.63448">
        <ele>1613.6</ele>
        <time>2021-09-18T11:00:18Z</time>
      </trkpt>
      <trkpt lat="43.8851" lon="6.63453">
        <ele>1613.6</ele>
        <time>2021-09-18T11:00:19Z</time>
      </trkpt>
      <trkpt lat="43.8851" lon="6.63457">
        <ele>1613.6</ele>
        <time>2021-09-18T11:00:20Z</time>
      </trkpt>
      <trkpt lat="43.88509" lon="6.63462">
        <ele>1613.6</ele>
        <time>2021-09-18T11:00:22Z</time>
      </trkpt>
      <trkpt lat="43.88509" lon="6.63465">
        <ele>1613.6</ele>
        <time>2021-09-18T11:00:23Z</time>
      </trkpt>
      <trkpt lat="43.88508" lon="6.63469">
        <ele>1613.6</ele>
        <time>2021-09-18T11:00:25Z</time>
      </trkpt>
      <trkpt lat="43.88508" lon="6.63473">
        <ele>1613.6</ele>
        <time>2021-09-18T11:00:26Z</time>
      </trkpt>
      <trkpt lat="43.88509" lon="6.63479">
        <ele>1613.7</ele>
        <time>2021-09-18T11:00:28Z</time>
      </trkpt>
      <trkpt lat="43.88511" lon="6.63483">
        <ele>1613.8</ele>
        <time>2021-09-18T11:00:30Z</time>
      </trkpt>
      <trkpt lat="43.88512" lon="6.63488">
        <ele>1613.8</ele>
        <time>2021-09-18T11:00:31Z</time>
      </trkpt>
      <trkpt lat="43.88513" lon="6.63489">
        <ele>1613.8</ele>
        <time>2021-09-18T11:00:32Z</time>
      </trkpt>
      <trkpt lat="43.88516" lon="6.63493">
        <ele>1613.8</ele>
        <time>2021-09-18T11:00:34Z</time>
      </trkpt>
      <trkpt lat="43.88517" lon="6.63495">
        <ele>1613.8</ele>
        <time>2021-09-18T11:00:35Z</time>
      </trkpt>
      <trkpt lat="43.88519" lon="6.63496">
        <ele>1613.8</ele>
        <time>2021-09-18T11:00:36Z</time>
      </trkpt>
      <trkpt lat="43.88519" lon="6.63494">
        <ele>1613.8</ele>
        <time>2021-09-18T11:00:38Z</time>
      </trkpt>
      <trkpt lat="43.88522" lon="6.63495">
        <ele>1613.8</ele>
        <time>2021-09-18T11:00:40Z</time>
      </trkpt>
      <trkpt lat="43.88524" lon="6.63496">
        <ele>1613.8</ele>
        <time>2021-09-18T11:00:42Z</time>
      </trkpt>
      <trkpt lat="43.88524" lon="6.63494">
        <ele>1613.8</ele>
        <time>2021-09-18T11:00:43Z</time>
      </trkpt>
      <trkpt lat="43.88525" lon="6.63494">
        <ele>1613.8</ele>
        <time>2021-09-18T11:00:45Z</time>
      </trkpt>
      <trkpt lat="43.88526" lon="6.63495">
        <ele>1613.8</ele>
        <time>2021-09-18T11:00:46Z</time>
      </trkpt>
      <trkpt lat="43.88526" lon="6.63494">
        <ele>1613.8</ele>
        <time>2021-09-18T11:00:48Z</time>
      </trkpt>
      <trkpt lat="43.88527" lon="6.63493">
        <ele>1613.8</ele>
        <time>2021-09-18T11:00:49Z</time>
      </trkpt>
      <trkpt lat="43.88528" lon="6.63492">
        <ele>1613.8</ele>
        <time>2021-09-18T11:00:51Z</time>
      </trkpt>
      <trkpt lat="43.88528" lon="6.63492">
        <ele>1613.8</ele>
        <time>2021-09-18T11:00:52Z</time>
      </trkpt>
      <trkpt lat="43.88529" lon="6.63492">
        <ele>1613.8</ele>
        <time>2021-09-18T11:00:53Z</time>
      </trkpt>
      <trkpt lat="43.88528" lon="6.63492">
        <ele>1613.8</ele>
        <time>2021-09-18T11:00:55Z</time>
      </trkpt>
      <trkpt lat="43.88522" lon="6.63509">
        <ele>1613.9</ele>
        <time>2021-09-18T11:17:28Z</time>
      </trkpt>
      <trkpt lat="43.88523" lon="6.6351">
        <ele>1613.9</ele>
        <time>2021-09-18T11:17:29Z</time>
      </trkpt>
      <trkpt lat="43.88524" lon="6.63511">
        <ele>1613.9</ele>
        <time>2021-09-18T11:17:30Z</time>
      </trkpt>
      <trkpt lat="43.88526" lon="6.63513">
        <ele>1614</ele>
        <time>2021-09-18T11:17:32Z</time>
      </trkpt>
      <trkpt lat="43.88527" lon="6.63514">
        <ele>1614</ele>
        <time>2021-09-18T11:17:34Z</time>
      </trkpt>
      <trkpt lat="43.88527" lon="6.63514">
        <ele>1614</ele>
        <time>2021-09-18T11:17:35Z</time>
      </trkpt>
      <trkpt lat="43.88527" lon="6.63514">
        <ele>1614</ele>
        <time>2021-09-18T11:17:36Z</time>
      </trkpt>
      <trkpt lat="43.88528" lon="6.63514">
        <ele>1614</ele>
        <time>2021-09-18T11:17:38Z</time>
      </trkpt>
      <trkpt lat="43.88528" lon="6.63514">
        <ele>1614</ele>
        <time>2021-09-18T11:17:40Z</time>
      </trkpt>
      <trkpt lat="43.88527" lon="6.63511">
        <ele>1614</ele>
        <time>2021-09-18T11:23:34Z</time>
      </trkpt>
      <trkpt lat="43.88528" lon="6.63511">
        <ele>1614</ele>
        <time>2021-09-18T11:23:36Z</time>
      </trkpt>
      <trkpt lat="43.88528" lon="6.63512">
        <ele>1614</ele>
        <time>2021-09-18T11:23:37Z</time>
      </trkpt>
      <trkpt lat="43.88528" lon="6.63511">
        <ele>1614</ele>
        <time>2021-09-18T11:23:38Z</time>
      </trkpt>
      <trkpt lat="43.88528" lon="6.63511">
        <ele>1614.1</ele>
        <time>2021-09-18T11:23:39Z</time>
      </trkpt>
      <trkpt lat="43.88529" lon="6.6351">
        <ele>1614.1</ele>
        <time>2021-09-18T11:23:41Z</time>
      </trkpt>
      <trkpt lat="43.88529" lon="6.63508">
        <ele>1614.1</ele>
        <time>2021-09-18T11:23:43Z</time>
      </trkpt>
      <trkpt lat="43.88529" lon="6.63507">
        <ele>1614.1</ele>
        <time>2021-09-18T11:23:44Z</time>
      </trkpt>
      <trkpt lat="43.88529" lon="6.63505">
        <ele>1614.1</ele>
        <time>2021-09-18T11:23:45Z</time>
      </trkpt>
      <trkpt lat="43.88529" lon="6.63504">
        <ele>1614.1</ele>
        <time>2021-09-18T11:23:46Z</time>
      </trkpt>
      <trkpt lat="43.88529" lon="6.635">
        <ele>1614</ele>
        <time>2021-09-18T11:23:47Z</time>
      </trkpt>
      <trkpt lat="43.88529" lon="6.63498">
        <ele>1614</ele>
        <time>2021-09-18T11:23:48Z</time>
      </trkpt>
      <trkpt lat="43.88528" lon="6.63495">
        <ele>1613.9</ele>
        <time>2021-09-18T11:23:50Z</time>
      </trkpt>
      <trkpt lat="43.88528" lon="6.63494">
        <ele>1613.9</ele>
        <time>2021-09-18T11:23:51Z</time>
      </trkpt>
      <trkpt lat="43.88525" lon="6.63487">
        <ele>1613.8</ele>
        <time>2021-09-18T11:23:53Z</time>
      </trkpt>
      <trkpt lat="43.88521" lon="6.63482">
        <ele>1613.8</ele>
        <time>2021-09-18T11:23:55Z</time>
      </trkpt>
      <trkpt lat="43.88518" lon="6.63476">
        <ele>1613.7</ele>
        <time>2021-09-18T11:23:57Z</time>
      </trkpt>
      <trkpt lat="43.88514" lon="6.63471">
        <ele>1613.6</ele>
        <time>2021-09-18T11:24:49Z</time>
      </trkpt>
      <trkpt lat="43.88511" lon="6.63465">
        <ele>1613.6</ele>
        <time>2021-09-18T11:24:50Z</time>
      </trkpt>
      <trkpt lat="43.8851" lon="6.63456">
        <ele>1613.6</ele>
        <time>2021-09-18T11:24:52Z</time>
      </trkpt>
      <trkpt lat="43.8851" lon="6.6345">
        <ele>1613.6</ele>
        <time>2021-09-18T11:24:53Z</time>
      </trkpt>
      <trkpt lat="43.8851" lon="6.63448">
        <ele>1613.2</ele>
        <time>2021-09-18T11:24:55Z</time>
      </trkpt>
      <trkpt lat="43.88508" lon="6.63447">
        <ele>1612.5</ele>
        <time>2021-09-18T11:24:56Z</time>
      </trkpt>
      <trkpt lat="43.88506" lon="6.63449">
        <ele>1611.8</ele>
        <time>2021-09-18T11:24:58Z</time>
      </trkpt>
      <trkpt lat="43.88505" lon="6.6345">
        <ele>1611.1</ele>
        <time>2021-09-18T11:24:59Z</time>
      </trkpt>
      <trkpt lat="43.88502" lon="6.63455">
        <ele>1610.3</ele>
        <time>2021-09-18T11:25:01Z</time>
      </trkpt>
      <trkpt lat="43.88501" lon="6.63459">
        <ele>1609.6</ele>
        <time>2021-09-18T11:25:02Z</time>
      </trkpt>
      <trkpt lat="43.885" lon="6.6346">
        <ele>1609</ele>
        <time>2021-09-18T11:25:03Z</time>
      </trkpt>
      <trkpt lat="43.88499" lon="6.63462">
        <ele>1608.3</ele>
        <time>2021-09-18T11:25:04Z</time>
      </trkpt>
      <trkpt lat="43.88497" lon="6.63465">
        <ele>1607.6</ele>
        <time>2021-09-18T11:25:06Z</time>
      </trkpt>
      <trkpt lat="43.88494" lon="6.63468">
        <ele>1606.7</ele>
        <time>2021-09-18T11:25:07Z</time>
      </trkpt>
      <trkpt lat="43.88493" lon="6.63469">
        <ele>1606</ele>
        <time>2021-09-18T11:25:08Z</time>
      </trkpt>
      <trkpt lat="43.8849" lon="6.63472">
        <ele>1605.1</ele>
        <time>2021-09-18T11:25:09Z</time>
      </trkpt>
      <trkpt lat="43.88488" lon="6.63475">
        <ele>1604.6</ele>
        <time>2021-09-18T11:25:10Z</time>
      </trkpt>
      <trkpt lat="43.88484" lon="6.63481">
        <ele>1603.4</ele>
        <time>2021-09-18T11:25:12Z</time>
      </trkpt>
      <trkpt lat="43.88481" lon="6.63485">
        <ele>1602.1</ele>
        <time>2021-09-18T11:25:13Z</time>
      </trkpt>
      <trkpt lat="43.88478" lon="6.63488">
        <ele>1601.4</ele>
        <time>2021-09-18T11:25:14Z</time>
      </trkpt>
      <trkpt lat="43.88474" lon="6.63492">
        <ele>1600.3</ele>
        <time>2021-09-18T11:25:15Z</time>
      </trkpt>
      <trkpt lat="43.88469" lon="6.63498">
        <ele>1598.9</ele>
        <time>2021-09-18T11:25:17Z</time>
      </trkpt>
      <trkpt lat="43.88467" lon="6.63501">
        <ele>1597.8</ele>
        <time>2021-09-18T11:25:18Z</time>
      </trkpt>
      <trkpt lat="43.88464" lon="6.63506">
        <ele>1596.6</ele>
        <time>2021-09-18T11:25:20Z</time>
      </trkpt>
      <trkpt lat="43.88462" lon="6.63509">
        <ele>1595.8</ele>
        <time>2021-09-18T11:25:21Z</time>
      </trkpt>
      <trkpt lat="43.8846" lon="6.63512">
        <ele>1595</ele>
        <time>2021-09-18T11:25:22Z</time>
      </trkpt>
      <trkpt lat="43.88457" lon="6.63514">
        <ele>1593.8</ele>
        <time>2021-09-18T11:25:23Z</time>
      </trkpt>
      <trkpt lat="43.88452" lon="6.63519">
        <ele>1592.4</ele>
        <time>2021-09-18T11:25:25Z</time>
      </trkpt>
      <trkpt lat="43.8845" lon="6.63523">
        <ele>1592.4</ele>
        <time>2021-09-18T11:25:26Z</time>
      </trkpt>
      <trkpt lat="43.88447" lon="6.63529">
        <ele>1592.3</ele>
        <time>2021-09-18T11:25:28Z</time>
      </trkpt>
      <trkpt lat="43.88444" lon="6.63534">
        <ele>1592.3</ele>
        <time>2021-09-18T11:25:29Z</time>
      </trkpt>
      <trkpt lat="43.88441" lon="6.63538">
        <ele>1592.3</ele>
        <time>2021-09-18T11:25:30Z</time>
      </trkpt>
      <trkpt lat="43.88438" lon="6.63542">
        <ele>1592.3</ele>
        <time>2021-09-18T11:25:31Z</time>
      </trkpt>
      <trkpt lat="43.88435" lon="6.63545">
        <ele>1592.3</ele>
        <time>2021-09-18T11:25:32Z</time>
      </trkpt>
      <trkpt lat="43.88431" lon="6.63553">
        <ele>1592.3</ele>
        <time>2021-09-18T11:25:34Z</time>
      </trkpt>
      <trkpt lat="43.8843" lon="6.63557">
        <ele>1592.3</ele>
        <time>2021-09-18T11:25:35Z</time>
      </trkpt>
      <trkpt lat="43.88429" lon="6.63565">
        <ele>1592.3</ele>
        <time>2021-09-18T11:25:37Z</time>
      </trkpt>
      <trkpt lat="43.88428" lon="6.6357">
        <ele>1592.3</ele>
        <time>2021-09-18T11:25:38Z</time>
      </trkpt>
      <trkpt lat="43.88426" lon="6.63573">
        <ele>1592.3</ele>
        <time>2021-09-18T11:25:39Z</time>
      </trkpt>
      <trkpt lat="43.88422" lon="6.63576">
        <ele>1592.3</ele>
        <time>2021-09-18T11:25:41Z</time>
      </trkpt>
      <trkpt lat="43.88419" lon="6.63579">
        <ele>1592.3</ele>
        <time>2021-09-18T11:25:42Z</time>
      </trkpt>
      <trkpt lat="43.88416" lon="6.63582">
        <ele>1592.3</ele>
        <time>2021-09-18T11:25:43Z</time>
      </trkpt>
      <trkpt lat="43.88411" lon="6.63594">
        <ele>1592.3</ele>
        <time>2021-09-18T11:25:45Z</time>
      </trkpt>
      <trkpt lat="43.88409" lon="6.636">
        <ele>1592.3</ele>
        <time>2021-09-18T11:25:46Z</time>
      </trkpt>
      <trkpt lat="43.88405" lon="6.63612">
        <ele>1592.3</ele>
        <time>2021-09-18T11:25:48Z</time>
      </trkpt>
      <trkpt lat="43.88405" lon="6.63618">
        <ele>1592.3</ele>
        <time>2021-09-18T11:25:49Z</time>
      </trkpt>
      <trkpt lat="43.88406" lon="6.6363">
        <ele>1592.3</ele>
        <time>2021-09-18T11:25:51Z</time>
      </trkpt>
      <trkpt lat="43.88407" lon="6.63639">
        <ele>1592.3</ele>
        <time>2021-09-18T11:25:53Z</time>
      </trkpt>
      <trkpt lat="43.88406" lon="6.63647">
        <ele>1592.3</ele>
        <time>2021-09-18T11:25:55Z</time>
      </trkpt>
      <trkpt lat="43.88407" lon="6.63654">
        <ele>1592.3</ele>
        <time>2021-09-18T11:25:57Z</time>
      </trkpt>
      <trkpt lat="43.88407" lon="6.63662">
        <ele>1592.3</ele>
        <time>2021-09-18T11:25:59Z</time>
      </trkpt>
      <trkpt lat="43.88408" lon="6.63669">
        <ele>1592.3</ele>
        <time>2021-09-18T11:26:01Z</time>
      </trkpt>
      <trkpt lat="43.88408" lon="6.63675">
        <ele>1592.3</ele>
        <time>2021-09-18T11:26:03Z</time>
      </trkpt>
      <trkpt lat="43.88408" lon="6.63682">
        <ele>1592.3</ele>
        <time>2021-09-18T11:26:05Z</time>
      </trkpt>
      <trkpt lat="43.88408" lon="6.63684">
        <ele>1592.3</ele>
        <time>2021-09-18T11:26:06Z</time>
      </trkpt>
      <trkpt lat="43.88408" lon="6.63689">
        <ele>1592.3</ele>
        <time>2021-09-18T11:26:08Z</time>
      </trkpt>
      <trkpt lat="43.8841" lon="6.63693">
        <ele>1592.3</ele>
        <time>2021-09-18T11:26:10Z</time>
      </trkpt>
      <trkpt lat="43.8841" lon="6.63695">
        <ele>1592.3</ele>
        <time>2021-09-18T11:26:11Z</time>
      </trkpt>
      <trkpt lat="43.8841" lon="6.63698">
        <ele>1592.3</ele>
        <time>2021-09-18T11:26:13Z</time>
      </trkpt>
      <trkpt lat="43.88409" lon="6.63702">
        <ele>1592.3</ele>
        <time>2021-09-18T11:26:15Z</time>
      </trkpt>
      <trkpt lat="43.88408" lon="6.63704">
        <ele>1592.3</ele>
        <time>2021-09-18T11:26:16Z</time>
      </trkpt>
      <trkpt lat="43.88407" lon="6.63706">
        <ele>1592.3</ele>
        <time>2021-09-18T11:26:17Z</time>
      </trkpt>
      <trkpt lat="43.88406" lon="6.63711">
        <ele>1592.3</ele>
        <time>2021-09-18T11:26:19Z</time>
      </trkpt>
      <trkpt lat="43.88404" lon="6.63717">
        <ele>1592.3</ele>
        <time>2021-09-18T11:26:21Z</time>
      </trkpt>
      <trkpt lat="43.88403" lon="6.63722">
        <ele>1592.3</ele>
        <time>2021-09-18T11:26:23Z</time>
      </trkpt>
      <trkpt lat="43.88401" lon="6.63727">
        <ele>1592.2</ele>
        <time>2021-09-18T11:26:25Z</time>
      </trkpt>
      <trkpt lat="43.884" lon="6.63728">
        <ele>1592.2</ele>
        <time>2021-09-18T11:26:26Z</time>
      </trkpt>
      <trkpt lat="43.88398" lon="6.63729">
        <ele>1592.2</ele>
        <time>2021-09-18T11:26:27Z</time>
      </trkpt>
      <trkpt lat="43.88395" lon="6.63733">
        <ele>1592.1</ele>
        <time>2021-09-18T11:26:29Z</time>
      </trkpt>
      <trkpt lat="43.88392" lon="6.63737">
        <ele>1592.1</ele>
        <time>2021-09-18T11:26:31Z</time>
      </trkpt>
      <trkpt lat="43.88389" lon="6.63741">
        <ele>1592</ele>
        <time>2021-09-18T11:26:33Z</time>
      </trkpt>
      <trkpt lat="43.88389" lon="6.63744">
        <ele>1592</ele>
        <time>2021-09-18T11:26:34Z</time>
      </trkpt>
      <trkpt lat="43.88388" lon="6.63746">
        <ele>1592</ele>
        <time>2021-09-18T11:26:35Z</time>
      </trkpt>
      <trkpt lat="43.88387" lon="6.63751">
        <ele>1592</ele>
        <time>2021-09-18T11:26:37Z</time>
      </trkpt>
      <trkpt lat="43.88387" lon="6.63754">
        <ele>1592</ele>
        <time>2021-09-18T11:26:39Z</time>
      </trkpt>
      <trkpt lat="43.88385" lon="6.63757">
        <ele>1592</ele>
        <time>2021-09-18T11:26:41Z</time>
      </trkpt>
      <trkpt lat="43.88384" lon="6.63759">
        <ele>1592</ele>
        <time>2021-09-18T11:26:43Z</time>
      </trkpt>
      <trkpt lat="43.88383" lon="6.63762">
        <ele>1592</ele>
        <time>2021-09-18T11:26:45Z</time>
      </trkpt>
      <trkpt lat="43.88383" lon="6.63767">
        <ele>1592.1</ele>
        <time>2021-09-18T11:26:47Z</time>
      </trkpt>
      <trkpt lat="43.88383" lon="6.63768">
        <ele>1592.1</ele>
        <time>2021-09-18T11:26:48Z</time>
      </trkpt>
      <trkpt lat="43.88382" lon="6.63771">
        <ele>1592.1</ele>
        <time>2021-09-18T11:26:49Z</time>
      </trkpt>
      <trkpt lat="43.88382" lon="6.63774">
        <ele>1592.1</ele>
        <time>2021-09-18T11:26:51Z</time>
      </trkpt>
      <trkpt lat="43.88381" lon="6.63779">
        <ele>1592.1</ele>
        <time>2021-09-18T11:26:52Z</time>
      </trkpt>
      <trkpt lat="43.8838" lon="6.6378">
        <ele>1592.1</ele>
        <time>2021-09-18T11:26:53Z</time>
      </trkpt>
      <trkpt lat="43.88381" lon="6.63782">
        <ele>1592.1</ele>
        <time>2021-09-18T11:26:54Z</time>
      </trkpt>
      <trkpt lat="43.88381" lon="6.63786">
        <ele>1592.1</ele>
        <time>2021-09-18T11:26:56Z</time>
      </trkpt>
      <trkpt lat="43.88382" lon="6.63789">
        <ele>1592.1</ele>
        <time>2021-09-18T11:26:57Z</time>
      </trkpt>
      <trkpt lat="43.8838" lon="6.63789">
        <ele>1592.1</ele>
        <time>2021-09-18T11:26:59Z</time>
      </trkpt>
      <trkpt lat="43.8838" lon="6.63791">
        <ele>1592.1</ele>
        <time>2021-09-18T11:27:01Z</time>
      </trkpt>
      <trkpt lat="43.88382" lon="6.6379">
        <ele>1592.1</ele>
        <time>2021-09-18T11:27:02Z</time>
      </trkpt>
      <trkpt lat="43.88383" lon="6.6379">
        <ele>1592.2</ele>
        <time>2021-09-18T11:27:04Z</time>
      </trkpt>
      <trkpt lat="43.88383" lon="6.63791">
        <ele>1592.2</ele>
        <time>2021-09-18T11:27:05Z</time>
      </trkpt>
      <trkpt lat="43.88383" lon="6.63791">
        <ele>1592.2</ele>
        <time>2021-09-18T11:27:06Z</time>
      </trkpt>
      <trkpt lat="43.88383" lon="6.6379">
        <ele>1592.2</ele>
        <time>2021-09-18T11:27:07Z</time>
      </trkpt>
      <trkpt lat="43.88382" lon="6.6379">
        <ele>1592.2</ele>
        <time>2021-09-18T11:27:08Z</time>
      </trkpt>
      <trkpt lat="43.88382" lon="6.6379">
        <ele>1592.2</ele>
        <time>2021-09-18T11:27:10Z</time>
      </trkpt>
      <trkpt lat="43.88382" lon="6.6379">
        <ele>1592.2</ele>
        <time>2021-09-18T11:27:11Z</time>
      </trkpt>
      <trkpt lat="43.88381" lon="6.63789">
        <ele>1592.2</ele>
        <time>2021-09-18T11:27:12Z</time>
      </trkpt>
      <trkpt lat="43.8838" lon="6.63788">
        <ele>1592.2</ele>
        <time>2021-09-18T11:27:14Z</time>
      </trkpt>
      <trkpt lat="43.8838" lon="6.63788">
        <ele>1592.2</ele>
        <time>2021-09-18T11:27:15Z</time>
      </trkpt>
      <trkpt lat="43.8838" lon="6.63818">
        <ele>1592.6</ele>
        <time>2021-09-18T11:27:39Z</time>
      </trkpt>
      <trkpt lat="43.8838" lon="6.63823">
        <ele>1592.6</ele>
        <time>2021-09-18T11:27:40Z</time>
      </trkpt>
      <trkpt lat="43.88379" lon="6.63828">
        <ele>1592.6</ele>
        <time>2021-09-18T11:27:41Z</time>
      </trkpt>
      <trkpt lat="43.88377" lon="6.63835">
        <ele>1592.7</ele>
        <time>2021-09-18T11:27:42Z</time>
      </trkpt>
      <trkpt lat="43.88376" lon="6.63839">
        <ele>1592.8</ele>
        <time>2021-09-18T11:27:43Z</time>
      </trkpt>
      <trkpt lat="43.88375" lon="6.63845">
        <ele>1592.9</ele>
        <time>2021-09-18T11:27:45Z</time>
      </trkpt>
      <trkpt lat="43.88374" lon="6.6385">
        <ele>1593</ele>
        <time>2021-09-18T11:27:46Z</time>
      </trkpt>
      <trkpt lat="43.88374" lon="6.63852">
        <ele>1593</ele>
        <time>2021-09-18T11:27:47Z</time>
      </trkpt>
      <trkpt lat="43.88373" lon="6.63856">
        <ele>1593.1</ele>
        <time>2021-09-18T11:27:49Z</time>
      </trkpt>
      <trkpt lat="43.88372" lon="6.63861">
        <ele>1593.2</ele>
        <time>2021-09-18T11:27:50Z</time>
      </trkpt>
      <trkpt lat="43.88372" lon="6.63866">
        <ele>1593.2</ele>
        <time>2021-09-18T11:27:51Z</time>
      </trkpt>
      <trkpt lat="43.88371" lon="6.63867">
        <ele>1593.2</ele>
        <time>2021-09-18T11:27:52Z</time>
      </trkpt>
      <trkpt lat="43.88371" lon="6.63872">
        <ele>1593.3</ele>
        <time>2021-09-18T11:27:54Z</time>
      </trkpt>
      <trkpt lat="43.88369" lon="6.63875">
        <ele>1593.3</ele>
        <time>2021-09-18T11:27:55Z</time>
      </trkpt>
      <trkpt lat="43.88368" lon="6.6388">
        <ele>1593.3</ele>
        <time>2021-09-18T11:27:56Z</time>
      </trkpt>
      <trkpt lat="43.88366" lon="6.63885">
        <ele>1593.3</ele>
        <time>2021-09-18T11:27:58Z</time>
      </trkpt>
      <trkpt lat="43.88365" lon="6.63888">
        <ele>1593.4</ele>
        <time>2021-09-18T11:27:59Z</time>
      </trkpt>
      <trkpt lat="43.88364" lon="6.63891">
        <ele>1593.4</ele>
        <time>2021-09-18T11:28:01Z</time>
      </trkpt>
      <trkpt lat="43.88362" lon="6.63895">
        <ele>1593.5</ele>
        <time>2021-09-18T11:28:02Z</time>
      </trkpt>
      <trkpt lat="43.88362" lon="6.63896">
        <ele>1593.6</ele>
        <time>2021-09-18T11:28:03Z</time>
      </trkpt>
      <trkpt lat="43.88362" lon="6.63897">
        <ele>1593.6</ele>
        <time>2021-09-18T11:28:05Z</time>
      </trkpt>
      <trkpt lat="43.88362" lon="6.63897">
        <ele>1593.7</ele>
        <time>2021-09-18T11:28:06Z</time>
      </trkpt>
      <trkpt lat="43.88362" lon="6.63893">
        <ele>1593.8</ele>
        <time>2021-09-18T11:28:07Z</time>
      </trkpt>
      <trkpt lat="43.88362" lon="6.63889">
        <ele>1594</ele>
        <time>2021-09-18T11:28:09Z</time>
      </trkpt>
      <trkpt lat="43.88362" lon="6.63889">
        <ele>1594</ele>
        <time>2021-09-18T11:28:10Z</time>
      </trkpt>
      <trkpt lat="43.88362" lon="6.63889">
        <ele>1594</ele>
        <time>2021-09-18T11:28:11Z</time>
      </trkpt>
      <trkpt lat="43.88361" lon="6.6389">
        <ele>1594</ele>
        <time>2021-09-18T11:28:12Z</time>
      </trkpt>
      <trkpt lat="43.88362" lon="6.63891">
        <ele>1594</ele>
        <time>2021-09-18T11:28:14Z</time>
      </trkpt>
      <trkpt lat="43.88361" lon="6.63891">
        <ele>1594.1</ele>
        <time>2021-09-18T11:28:15Z</time>
      </trkpt>
      <trkpt lat="43.88362" lon="6.63891">
        <ele>1594.1</ele>
        <time>2021-09-18T11:28:17Z</time>
      </trkpt>
      <trkpt lat="43.88362" lon="6.6389">
        <ele>1594.1</ele>
        <time>2021-09-18T11:28:18Z</time>
      </trkpt>
      <trkpt lat="43.88362" lon="6.6389">
        <ele>1594.1</ele>
        <time>2021-09-18T11:28:19Z</time>
      </trkpt>
      <trkpt lat="43.88362" lon="6.63889">
        <ele>1594.1</ele>
        <time>2021-09-18T11:28:20Z</time>
      </trkpt>
      <trkpt lat="43.88363" lon="6.63886">
        <ele>1594.2</ele>
        <time>2021-09-18T11:28:22Z</time>
      </trkpt>
      <trkpt lat="43.88364" lon="6.6388">
        <ele>1594.4</ele>
        <time>2021-09-18T11:28:27Z</time>
      </trkpt>
      <trkpt lat="43.88366" lon="6.63878">
        <ele>1594.5</ele>
        <time>2021-09-18T11:28:29Z</time>
      </trkpt>
      <trkpt lat="43.88368" lon="6.63878">
        <ele>1594.6</ele>
        <time>2021-09-18T11:28:30Z</time>
      </trkpt>
      <trkpt lat="43.88368" lon="6.63882">
        <ele>1594.6</ele>
        <time>2021-09-18T11:28:31Z</time>
      </trkpt>
      <trkpt lat="43.88367" lon="6.63886">
        <ele>1594.7</ele>
        <time>2021-09-18T11:28:33Z</time>
      </trkpt>
      <trkpt lat="43.88366" lon="6.63889">
        <ele>1594.7</ele>
        <time>2021-09-18T11:28:34Z</time>
      </trkpt>
      <trkpt lat="43.88366" lon="6.63893">
        <ele>1594.8</ele>
        <time>2021-09-18T11:28:37Z</time>
      </trkpt>
      <trkpt lat="43.88365" lon="6.63897">
        <ele>1594.8</ele>
        <time>2021-09-18T11:28:39Z</time>
      </trkpt>
      <trkpt lat="43.88364" lon="6.63901">
        <ele>1594.8</ele>
        <time>2021-09-18T11:28:41Z</time>
      </trkpt>
      <trkpt lat="43.88364" lon="6.63905">
        <ele>1594.9</ele>
        <time>2021-09-18T11:28:43Z</time>
      </trkpt>
      <trkpt lat="43.88363" lon="6.63909">
        <ele>1594.9</ele>
        <time>2021-09-18T11:28:45Z</time>
      </trkpt>
      <trkpt lat="43.88362" lon="6.63912">
        <ele>1594.9</ele>
        <time>2021-09-18T11:29:12Z</time>
      </trkpt>
      <trkpt lat="43.88362" lon="6.63916">
        <ele>1595</ele>
        <time>2021-09-18T11:29:13Z</time>
      </trkpt>
      <trkpt lat="43.88361" lon="6.6392">
        <ele>1595.1</ele>
        <time>2021-09-18T11:29:14Z</time>
      </trkpt>
      <trkpt lat="43.8836" lon="6.63924">
        <ele>1595.2</ele>
        <time>2021-09-18T11:29:15Z</time>
      </trkpt>
      <trkpt lat="43.88358" lon="6.6393">
        <ele>1595.3</ele>
        <time>2021-09-18T11:29:17Z</time>
      </trkpt>
      <trkpt lat="43.88357" lon="6.63934">
        <ele>1595.5</ele>
        <time>2021-09-18T11:29:18Z</time>
      </trkpt>
      <trkpt lat="43.88355" lon="6.6394">
        <ele>1595.6</ele>
        <time>2021-09-18T11:29:20Z</time>
      </trkpt>
      <trkpt lat="43.88355" lon="6.63942">
        <ele>1595.7</ele>
        <time>2021-09-18T11:29:21Z</time>
      </trkpt>
      <trkpt lat="43.88354" lon="6.63944">
        <ele>1595.8</ele>
        <time>2021-09-18T11:29:22Z</time>
      </trkpt>
      <trkpt lat="43.88353" lon="6.63946">
        <ele>1595.8</ele>
        <time>2021-09-18T11:29:23Z</time>
      </trkpt>
      <trkpt lat="43.88352" lon="6.63951">
        <ele>1595.9</ele>
        <time>2021-09-18T11:29:25Z</time>
      </trkpt>
      <trkpt lat="43.88351" lon="6.63956">
        <ele>1596</ele>
        <time>2021-09-18T11:29:26Z</time>
      </trkpt>
      <trkpt lat="43.88351" lon="6.63957">
        <ele>1596</ele>
        <time>2021-09-18T11:29:27Z</time>
      </trkpt>
      <trkpt lat="43.88351" lon="6.63962">
        <ele>1596.1</ele>
        <time>2021-09-18T11:29:28Z</time>
      </trkpt>
      <trkpt lat="43.88351" lon="6.63966">
        <ele>1596.3</ele>
        <time>2021-09-18T11:29:30Z</time>
      </trkpt>
      <trkpt lat="43.88352" lon="6.6397">
        <ele>1596.4</ele>
        <time>2021-09-18T11:29:31Z</time>
      </trkpt>
      <trkpt lat="43.88351" lon="6.63975">
        <ele>1596.5</ele>
        <time>2021-09-18T11:29:32Z</time>
      </trkpt>
      <trkpt lat="43.88351" lon="6.63976">
        <ele>1596.6</ele>
        <time>2021-09-18T11:29:33Z</time>
      </trkpt>
      <trkpt lat="43.88351" lon="6.63982">
        <ele>1596.6</ele>
        <time>2021-09-18T11:29:35Z</time>
      </trkpt>
      <trkpt lat="43.8835" lon="6.63987">
        <ele>1596.4</ele>
        <time>2021-09-18T11:29:37Z</time>
      </trkpt>
      <trkpt lat="43.88349" lon="6.63992">
        <ele>1596.1</ele>
        <time>2021-09-18T11:29:39Z</time>
      </trkpt>
      <trkpt lat="43.88348" lon="6.63997">
        <ele>1595.7</ele>
        <time>2021-09-18T11:29:40Z</time>
      </trkpt>
      <trkpt lat="43.88348" lon="6.63998">
        <ele>1595.6</ele>
        <time>2021-09-18T11:29:41Z</time>
      </trkpt>
      <trkpt lat="43.88347" lon="6.64002">
        <ele>1595.2</ele>
        <time>2021-09-18T11:29:43Z</time>
      </trkpt>
      <trkpt lat="43.88347" lon="6.64005">
        <ele>1594.8</ele>
        <time>2021-09-18T11:29:44Z</time>
      </trkpt>
      <trkpt lat="43.88347" lon="6.64009">
        <ele>1594.4</ele>
        <time>2021-09-18T11:29:46Z</time>
      </trkpt>
      <trkpt lat="43.88347" lon="6.64012">
        <ele>1594.2</ele>
        <time>2021-09-18T11:29:47Z</time>
      </trkpt>
      <trkpt lat="43.88346" lon="6.64014">
        <ele>1594.1</ele>
        <time>2021-09-18T11:29:48Z</time>
      </trkpt>
      <trkpt lat="43.88346" lon="6.64014">
        <ele>1594</ele>
        <time>2021-09-18T11:29:49Z</time>
      </trkpt>
      <trkpt lat="43.88345" lon="6.64017">
        <ele>1593.9</ele>
        <time>2021-09-18T11:29:51Z</time>
      </trkpt>
      <trkpt lat="43.88344" lon="6.64018">
        <ele>1593.8</ele>
        <time>2021-09-18T11:29:52Z</time>
      </trkpt>
      <trkpt lat="43.88343" lon="6.64019">
        <ele>1593.7</ele>
        <time>2021-09-18T11:29:54Z</time>
      </trkpt>
      <trkpt lat="43.88343" lon="6.64018">
        <ele>1593.7</ele>
        <time>2021-09-18T11:29:55Z</time>
      </trkpt>
      <trkpt lat="43.88343" lon="6.64018">
        <ele>1593.7</ele>
        <time>2021-09-18T11:29:57Z</time>
      </trkpt>
      <trkpt lat="43.88342" lon="6.64019">
        <ele>1593.7</ele>
        <time>2021-09-18T11:29:58Z</time>
      </trkpt>
      <trkpt lat="43.88342" lon="6.64019">
        <ele>1593.6</ele>
        <time>2021-09-18T11:29:59Z</time>
      </trkpt>
      <trkpt lat="43.88341" lon="6.6402">
        <ele>1593.6</ele>
        <time>2021-09-18T11:30:01Z</time>
      </trkpt>
      <trkpt lat="43.8834" lon="6.64021">
        <ele>1593.6</ele>
        <time>2021-09-18T11:30:03Z</time>
      </trkpt>
      <trkpt lat="43.88346" lon="6.64093">
        <ele>1594.3</ele>
        <time>2021-09-18T11:32:07Z</time>
      </trkpt>
      <trkpt lat="43.88348" lon="6.64098">
        <ele>1594.3</ele>
        <time>2021-09-18T11:32:09Z</time>
      </trkpt>
      <trkpt lat="43.88349" lon="6.64102">
        <ele>1594.3</ele>
        <time>2021-09-18T11:32:10Z</time>
      </trkpt>
      <trkpt lat="43.88349" lon="6.64103">
        <ele>1594.3</ele>
        <time>2021-09-18T11:32:11Z</time>
      </trkpt>
      <trkpt lat="43.8835" lon="6.64106">
        <ele>1594.3</ele>
        <time>2021-09-18T11:32:13Z</time>
      </trkpt>
      <trkpt lat="43.8835" lon="6.64109">
        <ele>1594.3</ele>
        <time>2021-09-18T11:32:15Z</time>
      </trkpt>
      <trkpt lat="43.88351" lon="6.64111">
        <ele>1594.2</ele>
        <time>2021-09-18T11:32:16Z</time>
      </trkpt>
      <trkpt lat="43.88351" lon="6.64113">
        <ele>1594.2</ele>
        <time>2021-09-18T11:32:17Z</time>
      </trkpt>
      <trkpt lat="43.88352" lon="6.64114">
        <ele>1594.1</ele>
        <time>2021-09-18T11:32:19Z</time>
      </trkpt>
      <trkpt lat="43.88353" lon="6.64117">
        <ele>1594.1</ele>
        <time>2021-09-18T11:32:20Z</time>
      </trkpt>
      <trkpt lat="43.88354" lon="6.64121">
        <ele>1593.9</ele>
        <time>2021-09-18T11:32:22Z</time>
      </trkpt>
      <trkpt lat="43.88355" lon="6.64122">
        <ele>1593.9</ele>
        <time>2021-09-18T11:32:23Z</time>
      </trkpt>
      <trkpt lat="43.88355" lon="6.64124">
        <ele>1593.9</ele>
        <time>2021-09-18T11:32:24Z</time>
      </trkpt>
      <trkpt lat="43.88355" lon="6.64125">
        <ele>1593.8</ele>
        <time>2021-09-18T11:32:25Z</time>
      </trkpt>
      <trkpt lat="43.88355" lon="6.64127">
        <ele>1593.8</ele>
        <time>2021-09-18T11:32:27Z</time>
      </trkpt>
      <trkpt lat="43.88356" lon="6.64129">
        <ele>1593.7</ele>
        <time>2021-09-18T11:32:28Z</time>
      </trkpt>
      <trkpt lat="43.88357" lon="6.64131">
        <ele>1593.7</ele>
        <time>2021-09-18T11:32:29Z</time>
      </trkpt>
      <trkpt lat="43.88358" lon="6.64131">
        <ele>1593.6</ele>
        <time>2021-09-18T11:32:30Z</time>
      </trkpt>
      <trkpt lat="43.88359" lon="6.64131">
        <ele>1593.6</ele>
        <time>2021-09-18T11:32:31Z</time>
      </trkpt>
      <trkpt lat="43.8836" lon="6.6413">
        <ele>1593.6</ele>
        <time>2021-09-18T11:32:33Z</time>
      </trkpt>
      <trkpt lat="43.88362" lon="6.64129">
        <ele>1593.5</ele>
        <time>2021-09-18T11:32:34Z</time>
      </trkpt>
      <trkpt lat="43.88363" lon="6.64128">
        <ele>1593.4</ele>
        <time>2021-09-18T11:32:35Z</time>
      </trkpt>
      <trkpt lat="43.88364" lon="6.64126">
        <ele>1593.4</ele>
        <time>2021-09-18T11:32:36Z</time>
      </trkpt>
      <trkpt lat="43.88365" lon="6.64125">
        <ele>1593.4</ele>
        <time>2021-09-18T11:32:37Z</time>
      </trkpt>
      <trkpt lat="43.88366" lon="6.64123">
        <ele>1593.3</ele>
        <time>2021-09-18T11:32:39Z</time>
      </trkpt>
      <trkpt lat="43.88366" lon="6.64121">
        <ele>1593.2</ele>
        <time>2021-09-18T11:32:40Z</time>
      </trkpt>
      <trkpt lat="43.88367" lon="6.64121">
        <ele>1593.2</ele>
        <time>2021-09-18T11:32:41Z</time>
      </trkpt>
      <trkpt lat="43.88369" lon="6.64121">
        <ele>1593.1</ele>
        <time>2021-09-18T11:32:42Z</time>
      </trkpt>
      <trkpt lat="43.88369" lon="6.64122">
        <ele>1593.1</ele>
        <time>2021-09-18T11:32:43Z</time>
      </trkpt>
      <trkpt lat="43.88369" lon="6.64124">
        <ele>1593</ele>
        <time>2021-09-18T11:32:44Z</time>
      </trkpt>
      <trkpt lat="43.88368" lon="6.64125">
        <ele>1592.9</ele>
        <time>2021-09-18T11:32:45Z</time>
      </trkpt>
      <trkpt lat="43.88368" lon="6.64126">
        <ele>1592.8</ele>
        <time>2021-09-18T11:32:47Z</time>
      </trkpt>
      <trkpt lat="43.88367" lon="6.64127">
        <ele>1592.8</ele>
        <time>2021-09-18T11:32:48Z</time>
      </trkpt>
      <trkpt lat="43.88367" lon="6.64128">
        <ele>1592.8</ele>
        <time>2021-09-18T11:32:49Z</time>
      </trkpt>
      <trkpt lat="43.88367" lon="6.64129">
        <ele>1592.7</ele>
        <time>2021-09-18T11:32:51Z</time>
      </trkpt>
      <trkpt lat="43.88367" lon="6.6413">
        <ele>1592.6</ele>
        <time>2021-09-18T11:32:52Z</time>
      </trkpt>
      <trkpt lat="43.88367" lon="6.64132">
        <ele>1592.5</ele>
        <time>2021-09-18T11:32:54Z</time>
      </trkpt>
      <trkpt lat="43.88383" lon="6.64168">
        <ele>1589.3</ele>
        <time>2021-09-18T11:33:34Z</time>
      </trkpt>
      <trkpt lat="43.88386" lon="6.64172">
        <ele>1588.7</ele>
        <time>2021-09-18T11:33:36Z</time>
      </trkpt>
      <trkpt lat="43.88388" lon="6.64175">
        <ele>1588.3</ele>
        <time>2021-09-18T11:33:37Z</time>
      </trkpt>
      <trkpt lat="43.8839" lon="6.64179">
        <ele>1587.7</ele>
        <time>2021-09-18T11:33:38Z</time>
      </trkpt>
      <trkpt lat="43.88391" lon="6.6418">
        <ele>1587.6</ele>
        <time>2021-09-18T11:33:39Z</time>
      </trkpt>
      <trkpt lat="43.88392" lon="6.64184">
        <ele>1587.1</ele>
        <time>2021-09-18T11:33:40Z</time>
      </trkpt>
      <trkpt lat="43.88393" lon="6.6419">
        <ele>1586.4</ele>
        <time>2021-09-18T11:33:41Z</time>
      </trkpt>
      <trkpt lat="43.88393" lon="6.64192">
        <ele>1586.1</ele>
        <time>2021-09-18T11:33:42Z</time>
      </trkpt>
      <trkpt lat="43.88394" lon="6.642">
        <ele>1585</ele>
        <time>2021-09-18T11:33:44Z</time>
      </trkpt>
      <trkpt lat="43.88396" lon="6.64206">
        <ele>1584.2</ele>
        <time>2021-09-18T11:33:45Z</time>
      </trkpt>
      <trkpt lat="43.88397" lon="6.64211">
        <ele>1583.5</ele>
        <time>2021-09-18T11:33:46Z</time>
      </trkpt>
      <trkpt lat="43.884" lon="6.64217">
        <ele>1582.5</ele>
        <time>2021-09-18T11:33:47Z</time>
      </trkpt>
      <trkpt lat="43.88402" lon="6.64224">
        <ele>1581.6</ele>
        <time>2021-09-18T11:33:49Z</time>
      </trkpt>
      <trkpt lat="43.88404" lon="6.64228">
        <ele>1581</ele>
        <time>2021-09-18T11:33:50Z</time>
      </trkpt>
      <trkpt lat="43.88406" lon="6.64233">
        <ele>1580.3</ele>
        <time>2021-09-18T11:33:51Z</time>
      </trkpt>
      <trkpt lat="43.88408" lon="6.64237">
        <ele>1579.6</ele>
        <time>2021-09-18T11:33:52Z</time>
      </trkpt>
      <trkpt lat="43.8841" lon="6.64241">
        <ele>1579.1</ele>
        <time>2021-09-18T11:33:53Z</time>
      </trkpt>
      <trkpt lat="43.88413" lon="6.64249">
        <ele>1578</ele>
        <time>2021-09-18T11:33:55Z</time>
      </trkpt>
      <trkpt lat="43.88415" lon="6.64256">
        <ele>1577.1</ele>
        <time>2021-09-18T11:33:57Z</time>
      </trkpt>
      <trkpt lat="43.88418" lon="6.64261">
        <ele>1576.4</ele>
        <time>2021-09-18T11:33:58Z</time>
      </trkpt>
      <trkpt lat="43.88419" lon="6.64265">
        <ele>1576</ele>
        <time>2021-09-18T11:33:59Z</time>
      </trkpt>
      <trkpt lat="43.88422" lon="6.64269">
        <ele>1575.4</ele>
        <time>2021-09-18T11:34:00Z</time>
      </trkpt>
      <trkpt lat="43.88422" lon="6.6427">
        <ele>1575.3</ele>
        <time>2021-09-18T11:34:01Z</time>
      </trkpt>
      <trkpt lat="43.88424" lon="6.64274">
        <ele>1574.8</ele>
        <time>2021-09-18T11:34:03Z</time>
      </trkpt>
      <trkpt lat="43.88426" lon="6.64278">
        <ele>1574.4</ele>
        <time>2021-09-18T11:34:04Z</time>
      </trkpt>
      <trkpt lat="43.88427" lon="6.64281">
        <ele>1574</ele>
        <time>2021-09-18T11:34:05Z</time>
      </trkpt>
      <trkpt lat="43.8843" lon="6.64286">
        <ele>1573.5</ele>
        <time>2021-09-18T11:34:07Z</time>
      </trkpt>
      <trkpt lat="43.88432" lon="6.64289">
        <ele>1572.9</ele>
        <time>2021-09-18T11:34:08Z</time>
      </trkpt>
      <trkpt lat="43.88434" lon="6.64292">
        <ele>1572.5</ele>
        <time>2021-09-18T11:34:10Z</time>
      </trkpt>
      <trkpt lat="43.88436" lon="6.64296">
        <ele>1571.9</ele>
        <time>2021-09-18T11:34:11Z</time>
      </trkpt>
      <trkpt lat="43.88437" lon="6.643">
        <ele>1571.4</ele>
        <time>2021-09-18T11:34:12Z</time>
      </trkpt>
      <trkpt lat="43.88438" lon="6.64302">
        <ele>1571.1</ele>
        <time>2021-09-18T11:34:13Z</time>
      </trkpt>
      <trkpt lat="43.8844" lon="6.64306">
        <ele>1570.4</ele>
        <time>2021-09-18T11:34:15Z</time>
      </trkpt>
      <trkpt lat="43.8844" lon="6.64308">
        <ele>1570.1</ele>
        <time>2021-09-18T11:34:16Z</time>
      </trkpt>
      <trkpt lat="43.88442" lon="6.64313">
        <ele>1569.3</ele>
        <time>2021-09-18T11:34:17Z</time>
      </trkpt>
      <trkpt lat="43.88446" lon="6.64321">
        <ele>1567.9</ele>
        <time>2021-09-18T11:34:19Z</time>
      </trkpt>
      <trkpt lat="43.8845" lon="6.64327">
        <ele>1567</ele>
        <time>2021-09-18T11:34:20Z</time>
      </trkpt>
      <trkpt lat="43.88452" lon="6.64331">
        <ele>1566.5</ele>
        <time>2021-09-18T11:34:21Z</time>
      </trkpt>
      <trkpt lat="43.88454" lon="6.64335">
        <ele>1566.1</ele>
        <time>2021-09-18T11:34:22Z</time>
      </trkpt>
      <trkpt lat="43.88456" lon="6.64338">
        <ele>1565.8</ele>
        <time>2021-09-18T11:34:23Z</time>
      </trkpt>
      <trkpt lat="43.88458" lon="6.64344">
        <ele>1565.4</ele>
        <time>2021-09-18T11:34:25Z</time>
      </trkpt>
      <trkpt lat="43.8846" lon="6.6435">
        <ele>1565.2</ele>
        <time>2021-09-18T11:34:27Z</time>
      </trkpt>
      <trkpt lat="43.88461" lon="6.64353">
        <ele>1565.1</ele>
        <time>2021-09-18T11:34:28Z</time>
      </trkpt>
      <trkpt lat="43.88462" lon="6.64356">
        <ele>1565</ele>
        <time>2021-09-18T11:34:30Z</time>
      </trkpt>
      <trkpt lat="43.88463" lon="6.64356">
        <ele>1564.9</ele>
        <time>2021-09-18T11:34:31Z</time>
      </trkpt>
      <trkpt lat="43.88466" lon="6.64355">
        <ele>1564.8</ele>
        <time>2021-09-18T11:34:33Z</time>
      </trkpt>
      <trkpt lat="43.88466" lon="6.64354">
        <ele>1564.7</ele>
        <time>2021-09-18T11:34:34Z</time>
      </trkpt>
      <trkpt lat="43.88466" lon="6.64352">
        <ele>1564.7</ele>
        <time>2021-09-18T11:34:36Z</time>
      </trkpt>
      <trkpt lat="43.88466" lon="6.64351">
        <ele>1564.6</ele>
        <time>2021-09-18T11:34:37Z</time>
      </trkpt>
      <trkpt lat="43.88466" lon="6.64351">
        <ele>1564.6</ele>
        <time>2021-09-18T11:34:38Z</time>
      </trkpt>
      <trkpt lat="43.88467" lon="6.64351">
        <ele>1564.5</ele>
        <time>2021-09-18T11:34:40Z</time>
      </trkpt>
      <trkpt lat="43.88468" lon="6.64352">
        <ele>1564.5</ele>
        <time>2021-09-18T11:34:41Z</time>
      </trkpt>
      <trkpt lat="43.88469" lon="6.64353">
        <ele>1564.4</ele>
        <time>2021-09-18T11:34:43Z</time>
      </trkpt>
      <trkpt lat="43.8847" lon="6.64354">
        <ele>1564.4</ele>
        <time>2021-09-18T11:34:44Z</time>
      </trkpt>
      <trkpt lat="43.88471" lon="6.64355">
        <ele>1564.3</ele>
        <time>2021-09-18T11:34:46Z</time>
      </trkpt>
      <trkpt lat="43.88471" lon="6.64356">
        <ele>1564.3</ele>
        <time>2021-09-18T11:34:48Z</time>
      </trkpt>
      <trkpt lat="43.88473" lon="6.64358">
        <ele>1564.2</ele>
        <time>2021-09-18T11:34:50Z</time>
      </trkpt>
      <trkpt lat="43.88473" lon="6.64358">
        <ele>1564.1</ele>
        <time>2021-09-18T11:34:51Z</time>
      </trkpt>
      <trkpt lat="43.88474" lon="6.64358">
        <ele>1564.1</ele>
        <time>2021-09-18T11:34:53Z</time>
      </trkpt>
      <trkpt lat="43.88475" lon="6.64359">
        <ele>1564</ele>
        <time>2021-09-18T11:34:54Z</time>
      </trkpt>
      <trkpt lat="43.88476" lon="6.64359">
        <ele>1564</ele>
        <time>2021-09-18T11:34:55Z</time>
      </trkpt>
      <trkpt lat="43.88477" lon="6.6436">
        <ele>1563.9</ele>
        <time>2021-09-18T11:34:56Z</time>
      </trkpt>
      <trkpt lat="43.88479" lon="6.64362">
        <ele>1563.8</ele>
        <time>2021-09-18T11:34:58Z</time>
      </trkpt>
      <trkpt lat="43.8848" lon="6.64363">
        <ele>1563.8</ele>
        <time>2021-09-18T11:34:59Z</time>
      </trkpt>
      <trkpt lat="43.88482" lon="6.64365">
        <ele>1563.7</ele>
        <time>2021-09-18T11:35:00Z</time>
      </trkpt>
      <trkpt lat="43.88485" lon="6.64369">
        <ele>1563.5</ele>
        <time>2021-09-18T11:35:02Z</time>
      </trkpt>
      <trkpt lat="43.88488" lon="6.64374">
        <ele>1563.2</ele>
        <time>2021-09-18T11:35:03Z</time>
      </trkpt>
      <trkpt lat="43.88489" lon="6.64376">
        <ele>1563.2</ele>
        <time>2021-09-18T11:35:04Z</time>
      </trkpt>
      <trkpt lat="43.88493" lon="6.64381">
        <ele>1562.9</ele>
        <time>2021-09-18T11:35:05Z</time>
      </trkpt>
      <trkpt lat="43.88498" lon="6.64387">
        <ele>1562.6</ele>
        <time>2021-09-18T11:35:07Z</time>
      </trkpt>
      <trkpt lat="43.88501" lon="6.64391">
        <ele>1562.5</ele>
        <time>2021-09-18T11:35:08Z</time>
      </trkpt>
      <trkpt lat="43.88505" lon="6.64398">
        <ele>1562.3</ele>
        <time>2021-09-18T11:35:09Z</time>
      </trkpt>
      <trkpt lat="43.88509" lon="6.64403">
        <ele>1562.2</ele>
        <time>2021-09-18T11:35:11Z</time>
      </trkpt>
      <trkpt lat="43.88513" lon="6.64407">
        <ele>1562</ele>
        <time>2021-09-18T11:35:12Z</time>
      </trkpt>
      <trkpt lat="43.88516" lon="6.64411">
        <ele>1561.9</ele>
        <time>2021-09-18T11:35:13Z</time>
      </trkpt>
      <trkpt lat="43.88519" lon="6.64414">
        <ele>1561.7</ele>
        <time>2021-09-18T11:35:14Z</time>
      </trkpt>
      <trkpt lat="43.88524" lon="6.64418">
        <ele>1561.5</ele>
        <time>2021-09-18T11:35:16Z</time>
      </trkpt>
      <trkpt lat="43.88527" lon="6.64423">
        <ele>1561.3</ele>
        <time>2021-09-18T11:35:17Z</time>
      </trkpt>
      <trkpt lat="43.88529" lon="6.64428">
        <ele>1561.1</ele>
        <time>2021-09-18T11:35:19Z</time>
      </trkpt>
      <trkpt lat="43.88531" lon="6.64431">
        <ele>1561</ele>
        <time>2021-09-18T11:35:20Z</time>
      </trkpt>
      <trkpt lat="43.88535" lon="6.64437">
        <ele>1560.7</ele>
        <time>2021-09-18T11:35:22Z</time>
      </trkpt>
      <trkpt lat="43.88537" lon="6.6444">
        <ele>1560.5</ele>
        <time>2021-09-18T11:35:23Z</time>
      </trkpt>
      <trkpt lat="43.8854" lon="6.64443">
        <ele>1560.3</ele>
        <time>2021-09-18T11:35:25Z</time>
      </trkpt>
      <trkpt lat="43.88544" lon="6.64447">
        <ele>1560</ele>
        <time>2021-09-18T11:35:26Z</time>
      </trkpt>
      <trkpt lat="43.88548" lon="6.64451">
        <ele>1559.7</ele>
        <time>2021-09-18T11:35:28Z</time>
      </trkpt>
      <trkpt lat="43.88552" lon="6.64454">
        <ele>1559.5</ele>
        <time>2021-09-18T11:35:29Z</time>
      </trkpt>
      <trkpt lat="43.88556" lon="6.64458">
        <ele>1559.3</ele>
        <time>2021-09-18T11:35:31Z</time>
      </trkpt>
      <trkpt lat="43.88559" lon="6.64461">
        <ele>1559.1</ele>
        <time>2021-09-18T11:35:32Z</time>
      </trkpt>
      <trkpt lat="43.88562" lon="6.64464">
        <ele>1558.9</ele>
        <time>2021-09-18T11:35:33Z</time>
      </trkpt>
      <trkpt lat="43.88564" lon="6.64466">
        <ele>1558.7</ele>
        <time>2021-09-18T11:35:34Z</time>
      </trkpt>
      <trkpt lat="43.88568" lon="6.64471">
        <ele>1558.3</ele>
        <time>2021-09-18T11:35:36Z</time>
      </trkpt>
      <trkpt lat="43.8857" lon="6.64474">
        <ele>1558</ele>
        <time>2021-09-18T11:35:38Z</time>
      </trkpt>
      <trkpt lat="43.88572" lon="6.64477">
        <ele>1557.8</ele>
        <time>2021-09-18T11:35:39Z</time>
      </trkpt>
      <trkpt lat="43.88575" lon="6.64483">
        <ele>1557.4</ele>
        <time>2021-09-18T11:35:40Z</time>
      </trkpt>
      <trkpt lat="43.88577" lon="6.64486">
        <ele>1557.1</ele>
        <time>2021-09-18T11:35:42Z</time>
      </trkpt>
      <trkpt lat="43.8858" lon="6.64488">
        <ele>1556.8</ele>
        <time>2021-09-18T11:35:43Z</time>
      </trkpt>
      <trkpt lat="43.88584" lon="6.64491">
        <ele>1556.5</ele>
        <time>2021-09-18T11:35:44Z</time>
      </trkpt>
      <trkpt lat="43.88587" lon="6.64494">
        <ele>1556.2</ele>
        <time>2021-09-18T11:35:45Z</time>
      </trkpt>
      <trkpt lat="43.88589" lon="6.64496">
        <ele>1556</ele>
        <time>2021-09-18T11:35:46Z</time>
      </trkpt>
      <trkpt lat="43.88592" lon="6.645">
        <ele>1555.6</ele>
        <time>2021-09-18T11:35:48Z</time>
      </trkpt>
      <trkpt lat="43.88595" lon="6.64503">
        <ele>1555.3</ele>
        <time>2021-09-18T11:35:49Z</time>
      </trkpt>
      <trkpt lat="43.88599" lon="6.64506">
        <ele>1554.9</ele>
        <time>2021-09-18T11:35:50Z</time>
      </trkpt>
      <trkpt lat="43.88601" lon="6.64508">
        <ele>1554.7</ele>
        <time>2021-09-18T11:35:51Z</time>
      </trkpt>
      <trkpt lat="43.88604" lon="6.64512">
        <ele>1554.4</ele>
        <time>2021-09-18T11:35:52Z</time>
      </trkpt>
      <trkpt lat="43.88608" lon="6.64517">
        <ele>1554</ele>
        <time>2021-09-18T11:35:54Z</time>
      </trkpt>
      <trkpt lat="43.88611" lon="6.6452">
        <ele>1553.7</ele>
        <time>2021-09-18T11:35:56Z</time>
      </trkpt>
      <trkpt lat="43.88614" lon="6.64522">
        <ele>1553.5</ele>
        <time>2021-09-18T11:35:57Z</time>
      </trkpt>
      <trkpt lat="43.88617" lon="6.64524">
        <ele>1553.2</ele>
        <time>2021-09-18T11:35:58Z</time>
      </trkpt>
      <trkpt lat="43.8862" lon="6.64527">
        <ele>1552.9</ele>
        <time>2021-09-18T11:35:59Z</time>
      </trkpt>
      <trkpt lat="43.88623" lon="6.64531">
        <ele>1552.6</ele>
        <time>2021-09-18T11:36:01Z</time>
      </trkpt>
      <trkpt lat="43.88626" lon="6.64534">
        <ele>1552.3</ele>
        <time>2021-09-18T11:36:02Z</time>
      </trkpt>
      <trkpt lat="43.88629" lon="6.64538">
        <ele>1551.9</ele>
        <time>2021-09-18T11:36:03Z</time>
      </trkpt>
      <trkpt lat="43.88633" lon="6.64543">
        <ele>1551.5</ele>
        <time>2021-09-18T11:36:05Z</time>
      </trkpt>
      <trkpt lat="43.88636" lon="6.64547">
        <ele>1551.2</ele>
        <time>2021-09-18T11:36:06Z</time>
      </trkpt>
      <trkpt lat="43.8864" lon="6.6455">
        <ele>1550.8</ele>
        <time>2021-09-18T11:36:07Z</time>
      </trkpt>
      <trkpt lat="43.88644" lon="6.64553">
        <ele>1550.5</ele>
        <time>2021-09-18T11:36:08Z</time>
      </trkpt>
      <trkpt lat="43.88649" lon="6.64557">
        <ele>1550.2</ele>
        <time>2021-09-18T11:36:09Z</time>
      </trkpt>
      <trkpt lat="43.88654" lon="6.64562">
        <ele>1549.8</ele>
        <time>2021-09-18T11:36:11Z</time>
      </trkpt>
      <trkpt lat="43.88658" lon="6.64566">
        <ele>1549.5</ele>
        <time>2021-09-18T11:36:12Z</time>
      </trkpt>
      <trkpt lat="43.88662" lon="6.6457">
        <ele>1549.1</ele>
        <time>2021-09-18T11:36:13Z</time>
      </trkpt>
      <trkpt lat="43.88666" lon="6.64573">
        <ele>1548.8</ele>
        <time>2021-09-18T11:36:14Z</time>
      </trkpt>
      <trkpt lat="43.88671" lon="6.64578">
        <ele>1548.5</ele>
        <time>2021-09-18T11:36:16Z</time>
      </trkpt>
      <trkpt lat="43.88676" lon="6.64582">
        <ele>1548.3</ele>
        <time>2021-09-18T11:36:17Z</time>
      </trkpt>
      <trkpt lat="43.8868" lon="6.64588">
        <ele>1548.1</ele>
        <time>2021-09-18T11:36:19Z</time>
      </trkpt>
      <trkpt lat="43.88684" lon="6.64591">
        <ele>1548.1</ele>
        <time>2021-09-18T11:36:20Z</time>
      </trkpt>
      <trkpt lat="43.88687" lon="6.64596">
        <ele>1548.2</ele>
        <time>2021-09-18T11:36:21Z</time>
      </trkpt>
      <trkpt lat="43.8869" lon="6.64598">
        <ele>1548.3</ele>
        <time>2021-09-18T11:36:22Z</time>
      </trkpt>
      <trkpt lat="43.88696" lon="6.64602">
        <ele>1548.6</ele>
        <time>2021-09-18T11:36:24Z</time>
      </trkpt>
      <trkpt lat="43.887" lon="6.64606">
        <ele>1548.8</ele>
        <time>2021-09-18T11:36:25Z</time>
      </trkpt>
      <trkpt lat="43.88705" lon="6.64611">
        <ele>1549.1</ele>
        <time>2021-09-18T11:36:27Z</time>
      </trkpt>
      <trkpt lat="43.88707" lon="6.64616">
        <ele>1549.2</ele>
        <time>2021-09-18T11:36:28Z</time>
      </trkpt>
      <trkpt lat="43.88709" lon="6.6462">
        <ele>1549.3</ele>
        <time>2021-09-18T11:36:29Z</time>
      </trkpt>
      <trkpt lat="43.88711" lon="6.64623">
        <ele>1549.4</ele>
        <time>2021-09-18T11:36:30Z</time>
      </trkpt>
      <trkpt lat="43.88713" lon="6.64626">
        <ele>1549.5</ele>
        <time>2021-09-18T11:36:31Z</time>
      </trkpt>
      <trkpt lat="43.88715" lon="6.6463">
        <ele>1549.6</ele>
        <time>2021-09-18T11:36:33Z</time>
      </trkpt>
      <trkpt lat="43.88718" lon="6.64634">
        <ele>1549.6</ele>
        <time>2021-09-18T11:36:34Z</time>
      </trkpt>
      <trkpt lat="43.88719" lon="6.64635">
        <ele>1549.6</ele>
        <time>2021-09-18T11:36:35Z</time>
      </trkpt>
      <trkpt lat="43.88722" lon="6.64639">
        <ele>1549.7</ele>
        <time>2021-09-18T11:36:36Z</time>
      </trkpt>
      <trkpt lat="43.88723" lon="6.6464">
        <ele>1549.7</ele>
        <time>2021-09-18T11:36:37Z</time>
      </trkpt>
      <trkpt lat="43.88726" lon="6.64645">
        <ele>1549.7</ele>
        <time>2021-09-18T11:36:39Z</time>
      </trkpt>
      <trkpt lat="43.88728" lon="6.64646">
        <ele>1549.8</ele>
        <time>2021-09-18T11:36:40Z</time>
      </trkpt>
      <trkpt lat="43.88729" lon="6.64648">
        <ele>1549.8</ele>
        <time>2021-09-18T11:36:41Z</time>
      </trkpt>
      <trkpt lat="43.88731" lon="6.64651">
        <ele>1549.9</ele>
        <time>2021-09-18T11:36:42Z</time>
      </trkpt>
      <trkpt lat="43.88732" lon="6.64653">
        <ele>1549.9</ele>
        <time>2021-09-18T11:36:43Z</time>
      </trkpt>
      <trkpt lat="43.88736" lon="6.64658">
        <ele>1550.1</ele>
        <time>2021-09-18T11:36:45Z</time>
      </trkpt>
      <trkpt lat="43.8874" lon="6.64663">
        <ele>1550.1</ele>
        <time>2021-09-18T11:36:47Z</time>
      </trkpt>
      <trkpt lat="43.88743" lon="6.64666">
        <ele>1550.1</ele>
        <time>2021-09-18T11:36:48Z</time>
      </trkpt>
      <trkpt lat="43.88744" lon="6.64667">
        <ele>1550</ele>
        <time>2021-09-18T11:36:49Z</time>
      </trkpt>
      <trkpt lat="43.88747" lon="6.64671">
        <ele>1549.8</ele>
        <time>2021-09-18T11:36:51Z</time>
      </trkpt>
      <trkpt lat="43.88749" lon="6.64674">
        <ele>1549.5</ele>
        <time>2021-09-18T11:36:52Z</time>
      </trkpt>
      <trkpt lat="43.88751" lon="6.64676">
        <ele>1549.3</ele>
        <time>2021-09-18T11:36:53Z</time>
      </trkpt>
      <trkpt lat="43.88753" lon="6.6468">
        <ele>1549</ele>
        <time>2021-09-18T11:36:55Z</time>
      </trkpt>
      <trkpt lat="43.88756" lon="6.64683">
        <ele>1548.6</ele>
        <time>2021-09-18T11:36:56Z</time>
      </trkpt>
      <trkpt lat="43.88758" lon="6.64686">
        <ele>1548.2</ele>
        <time>2021-09-18T11:36:57Z</time>
      </trkpt>
      <trkpt lat="43.88761" lon="6.64692">
        <ele>1547.4</ele>
        <time>2021-09-18T11:36:59Z</time>
      </trkpt>
      <trkpt lat="43.88766" lon="6.64699">
        <ele>1546.5</ele>
        <time>2021-09-18T11:37:01Z</time>
      </trkpt>
      <trkpt lat="43.8877" lon="6.64704">
        <ele>1545.6</ele>
        <time>2021-09-18T11:37:03Z</time>
      </trkpt>
      <trkpt lat="43.88773" lon="6.6471">
        <ele>1545</ele>
        <time>2021-09-18T11:37:04Z</time>
      </trkpt>
      <trkpt lat="43.88776" lon="6.64713">
        <ele>1544.6</ele>
        <time>2021-09-18T11:37:05Z</time>
      </trkpt>
      <trkpt lat="43.88779" lon="6.64716">
        <ele>1544.2</ele>
        <time>2021-09-18T11:37:06Z</time>
      </trkpt>
      <trkpt lat="43.88781" lon="6.64719">
        <ele>1543.7</ele>
        <time>2021-09-18T11:37:07Z</time>
      </trkpt>
      <trkpt lat="43.88786" lon="6.64724">
        <ele>1542.9</ele>
        <time>2021-09-18T11:37:09Z</time>
      </trkpt>
      <trkpt lat="43.88788" lon="6.64726">
        <ele>1542.5</ele>
        <time>2021-09-18T11:37:10Z</time>
      </trkpt>
      <trkpt lat="43.8879" lon="6.64729">
        <ele>1542</ele>
        <time>2021-09-18T11:37:11Z</time>
      </trkpt>
      <trkpt lat="43.88791" lon="6.64731">
        <ele>1541.9</ele>
        <time>2021-09-18T11:37:12Z</time>
      </trkpt>
      <trkpt lat="43.88792" lon="6.64733">
        <ele>1541.6</ele>
        <time>2021-09-18T11:37:13Z</time>
      </trkpt>
      <trkpt lat="43.88792" lon="6.64738">
        <ele>1541</ele>
        <time>2021-09-18T11:37:15Z</time>
      </trkpt>
      <trkpt lat="43.88794" lon="6.64742">
        <ele>1540.5</ele>
        <time>2021-09-18T11:37:16Z</time>
      </trkpt>
      <trkpt lat="43.88795" lon="6.64744">
        <ele>1540.3</ele>
        <time>2021-09-18T11:37:17Z</time>
      </trkpt>
      <trkpt lat="43.88797" lon="6.64751">
        <ele>1539.6</ele>
        <time>2021-09-18T11:37:19Z</time>
      </trkpt>
      <trkpt lat="43.88801" lon="6.6476">
        <ele>1538.9</ele>
        <time>2021-09-18T11:37:21Z</time>
      </trkpt>
      <trkpt lat="43.88805" lon="6.64767">
        <ele>1538.3</ele>
        <time>2021-09-18T11:37:23Z</time>
      </trkpt>
      <trkpt lat="43.88806" lon="6.64771">
        <ele>1538</ele>
        <time>2021-09-18T11:37:24Z</time>
      </trkpt>
      <trkpt lat="43.88809" lon="6.64774">
        <ele>1537.7</ele>
        <time>2021-09-18T11:37:25Z</time>
      </trkpt>
      <trkpt lat="43.88812" lon="6.64779">
        <ele>1537.3</ele>
        <time>2021-09-18T11:37:27Z</time>
      </trkpt>
      <trkpt lat="43.88814" lon="6.64783">
        <ele>1537</ele>
        <time>2021-09-18T11:37:28Z</time>
      </trkpt>
      <trkpt lat="43.88815" lon="6.64784">
        <ele>1536.9</ele>
        <time>2021-09-18T11:37:29Z</time>
      </trkpt>
      <trkpt lat="43.88817" lon="6.64789">
        <ele>1536.6</ele>
        <time>2021-09-18T11:37:31Z</time>
      </trkpt>
      <trkpt lat="43.8882" lon="6.64792">
        <ele>1536.4</ele>
        <time>2021-09-18T11:37:32Z</time>
      </trkpt>
      <trkpt lat="43.88822" lon="6.64797">
        <ele>1536</ele>
        <time>2021-09-18T11:37:34Z</time>
      </trkpt>
      <trkpt lat="43.88825" lon="6.64801">
        <ele>1535.6</ele>
        <time>2021-09-18T11:37:35Z</time>
      </trkpt>
      <trkpt lat="43.88827" lon="6.64806">
        <ele>1535</ele>
        <time>2021-09-18T11:37:36Z</time>
      </trkpt>
      <trkpt lat="43.88829" lon="6.6481">
        <ele>1534.5</ele>
        <time>2021-09-18T11:37:37Z</time>
      </trkpt>
      <trkpt lat="43.88833" lon="6.64815">
        <ele>1533.7</ele>
        <time>2021-09-18T11:37:39Z</time>
      </trkpt>
      <trkpt lat="43.88836" lon="6.64819">
        <ele>1533.1</ele>
        <time>2021-09-18T11:37:40Z</time>
      </trkpt>
      <trkpt lat="43.8884" lon="6.64826">
        <ele>1532.3</ele>
        <time>2021-09-18T11:37:41Z</time>
      </trkpt>
      <trkpt lat="43.88845" lon="6.64836">
        <ele>1531.5</ele>
        <time>2021-09-18T11:37:43Z</time>
      </trkpt>
      <trkpt lat="43.88849" lon="6.64843">
        <ele>1531.1</ele>
        <time>2021-09-18T11:37:45Z</time>
      </trkpt>
      <trkpt lat="43.88852" lon="6.64848">
        <ele>1530.8</ele>
        <time>2021-09-18T11:37:46Z</time>
      </trkpt>
      <trkpt lat="43.88854" lon="6.64852">
        <ele>1530.5</ele>
        <time>2021-09-18T11:37:47Z</time>
      </trkpt>
      <trkpt lat="43.88856" lon="6.64856">
        <ele>1530.2</ele>
        <time>2021-09-18T11:37:48Z</time>
      </trkpt>
      <trkpt lat="43.88858" lon="6.64859">
        <ele>1529.9</ele>
        <time>2021-09-18T11:37:49Z</time>
      </trkpt>
      <trkpt lat="43.88861" lon="6.64862">
        <ele>1529.6</ele>
        <time>2021-09-18T11:37:51Z</time>
      </trkpt>
      <trkpt lat="43.88862" lon="6.64865">
        <ele>1529.4</ele>
        <time>2021-09-18T11:37:52Z</time>
      </trkpt>
      <trkpt lat="43.88863" lon="6.64867">
        <ele>1529.1</ele>
        <time>2021-09-18T11:37:54Z</time>
      </trkpt>
      <trkpt lat="43.88865" lon="6.6487">
        <ele>1528.8</ele>
        <time>2021-09-18T11:37:55Z</time>
      </trkpt>
      <trkpt lat="43.88868" lon="6.64873">
        <ele>1528.3</ele>
        <time>2021-09-18T11:37:56Z</time>
      </trkpt>
      <trkpt lat="43.8887" lon="6.64878">
        <ele>1527.8</ele>
        <time>2021-09-18T11:37:57Z</time>
      </trkpt>
      <trkpt lat="43.88873" lon="6.64883">
        <ele>1527.2</ele>
        <time>2021-09-18T11:37:59Z</time>
      </trkpt>
      <trkpt lat="43.88875" lon="6.64888">
        <ele>1526.7</ele>
        <time>2021-09-18T11:38:00Z</time>
      </trkpt>
      <trkpt lat="43.88878" lon="6.64891">
        <ele>1526.3</ele>
        <time>2021-09-18T11:38:01Z</time>
      </trkpt>
      <trkpt lat="43.88881" lon="6.64893">
        <ele>1525.8</ele>
        <time>2021-09-18T11:38:03Z</time>
      </trkpt>
      <trkpt lat="43.88884" lon="6.64896">
        <ele>1525.3</ele>
        <time>2021-09-18T11:38:04Z</time>
      </trkpt>
      <trkpt lat="43.88885" lon="6.64898">
        <ele>1525</ele>
        <time>2021-09-18T11:38:05Z</time>
      </trkpt>
      <trkpt lat="43.88887" lon="6.64901">
        <ele>1524.7</ele>
        <time>2021-09-18T11:38:07Z</time>
      </trkpt>
      <trkpt lat="43.88888" lon="6.64905">
        <ele>1524.1</ele>
        <time>2021-09-18T11:38:08Z</time>
      </trkpt>
      <trkpt lat="43.88889" lon="6.64907">
        <ele>1523.9</ele>
        <time>2021-09-18T11:38:09Z</time>
      </trkpt>
      <trkpt lat="43.88891" lon="6.64911">
        <ele>1523.3</ele>
        <time>2021-09-18T11:38:10Z</time>
      </trkpt>
      <trkpt lat="43.88892" lon="6.64913">
        <ele>1523</ele>
        <time>2021-09-18T11:38:11Z</time>
      </trkpt>
      <trkpt lat="43.88894" lon="6.64918">
        <ele>1522.3</ele>
        <time>2021-09-18T11:38:13Z</time>
      </trkpt>
      <trkpt lat="43.88896" lon="6.64923">
        <ele>1521.7</ele>
        <time>2021-09-18T11:38:14Z</time>
      </trkpt>
      <trkpt lat="43.88897" lon="6.64927">
        <ele>1521.1</ele>
        <time>2021-09-18T11:38:15Z</time>
      </trkpt>
      <trkpt lat="43.88899" lon="6.64931">
        <ele>1520.7</ele>
        <time>2021-09-18T11:38:16Z</time>
      </trkpt>
      <trkpt lat="43.88901" lon="6.64936">
        <ele>1520.2</ele>
        <time>2021-09-18T11:38:17Z</time>
      </trkpt>
      <trkpt lat="43.88903" lon="6.64944">
        <ele>1519.4</ele>
        <time>2021-09-18T11:38:19Z</time>
      </trkpt>
      <trkpt lat="43.88905" lon="6.64952">
        <ele>1518.7</ele>
        <time>2021-09-18T11:38:20Z</time>
      </trkpt>
      <trkpt lat="43.88906" lon="6.64957">
        <ele>1518.3</ele>
        <time>2021-09-18T11:38:21Z</time>
      </trkpt>
      <trkpt lat="43.88908" lon="6.64963">
        <ele>1517.8</ele>
        <time>2021-09-18T11:38:22Z</time>
      </trkpt>
      <trkpt lat="43.88912" lon="6.64969">
        <ele>1517.3</ele>
        <time>2021-09-18T11:38:24Z</time>
      </trkpt>
      <trkpt lat="43.88914" lon="6.64975">
        <ele>1516.8</ele>
        <time>2021-09-18T11:38:25Z</time>
      </trkpt>
      <trkpt lat="43.88917" lon="6.64981">
        <ele>1516.4</ele>
        <time>2021-09-18T11:38:26Z</time>
      </trkpt>
      <trkpt lat="43.88918" lon="6.64988">
        <ele>1515.9</ele>
        <time>2021-09-18T11:38:28Z</time>
      </trkpt>
      <trkpt lat="43.8892" lon="6.64997">
        <ele>1515</ele>
        <time>2021-09-18T11:38:29Z</time>
      </trkpt>
      <trkpt lat="43.88921" lon="6.65006">
        <ele>1514.2</ele>
        <time>2021-09-18T11:38:31Z</time>
      </trkpt>
      <trkpt lat="43.88922" lon="6.65017">
        <ele>1513</ele>
        <time>2021-09-18T11:38:32Z</time>
      </trkpt>
      <trkpt lat="43.88926" lon="6.6503">
        <ele>1511.3</ele>
        <time>2021-09-18T11:38:33Z</time>
      </trkpt>
      <trkpt lat="43.88929" lon="6.65038">
        <ele>1510.5</ele>
        <time>2021-09-18T11:38:34Z</time>
      </trkpt>
      <trkpt lat="43.88932" lon="6.65044">
        <ele>1509.8</ele>
        <time>2021-09-18T11:38:35Z</time>
      </trkpt>
      <trkpt lat="43.88937" lon="6.65054">
        <ele>1508.7</ele>
        <time>2021-09-18T11:38:37Z</time>
      </trkpt>
      <trkpt lat="43.88941" lon="6.65064">
        <ele>1507.6</ele>
        <time>2021-09-18T11:38:39Z</time>
      </trkpt>
      <trkpt lat="43.88943" lon="6.6507">
        <ele>1506.9</ele>
        <time>2021-09-18T11:38:40Z</time>
      </trkpt>
      <trkpt lat="43.88945" lon="6.65076">
        <ele>1506.2</ele>
        <time>2021-09-18T11:38:41Z</time>
      </trkpt>
      <trkpt lat="43.88947" lon="6.65083">
        <ele>1505.4</ele>
        <time>2021-09-18T11:38:43Z</time>
      </trkpt>
      <trkpt lat="43.8895" lon="6.65086">
        <ele>1505</ele>
        <time>2021-09-18T11:38:44Z</time>
      </trkpt>
      <trkpt lat="43.88952" lon="6.65091">
        <ele>1504.3</ele>
        <time>2021-09-18T11:38:45Z</time>
      </trkpt>
      <trkpt lat="43.88954" lon="6.65097">
        <ele>1503.4</ele>
        <time>2021-09-18T11:38:46Z</time>
      </trkpt>
      <trkpt lat="43.88956" lon="6.65102">
        <ele>1502.7</ele>
        <time>2021-09-18T11:38:47Z</time>
      </trkpt>
      <trkpt lat="43.88958" lon="6.65108">
        <ele>1501.8</ele>
        <time>2021-09-18T11:38:49Z</time>
      </trkpt>
      <trkpt lat="43.88959" lon="6.65116">
        <ele>1500.6</ele>
        <time>2021-09-18T11:38:50Z</time>
      </trkpt>
      <trkpt lat="43.88962" lon="6.65121">
        <ele>1499.6</ele>
        <time>2021-09-18T11:38:52Z</time>
      </trkpt>
      <trkpt lat="43.88965" lon="6.65125">
        <ele>1498.9</ele>
        <time>2021-09-18T11:38:53Z</time>
      </trkpt>
      <trkpt lat="43.88968" lon="6.65129">
        <ele>1498</ele>
        <time>2021-09-18T11:38:55Z</time>
      </trkpt>
      <trkpt lat="43.88971" lon="6.65133">
        <ele>1497.2</ele>
        <time>2021-09-18T11:38:56Z</time>
      </trkpt>
      <trkpt lat="43.88974" lon="6.65139">
        <ele>1496.4</ele>
        <time>2021-09-18T11:38:57Z</time>
      </trkpt>
      <trkpt lat="43.88976" lon="6.65145">
        <ele>1495.6</ele>
        <time>2021-09-18T11:38:59Z</time>
      </trkpt>
      <trkpt lat="43.88979" lon="6.65153">
        <ele>1494.6</ele>
        <time>2021-09-18T11:39:00Z</time>
      </trkpt>
      <trkpt lat="43.8898" lon="6.6516">
        <ele>1493.6</ele>
        <time>2021-09-18T11:39:02Z</time>
      </trkpt>
      <trkpt lat="43.88981" lon="6.65165">
        <ele>1492.8</ele>
        <time>2021-09-18T11:39:03Z</time>
      </trkpt>
      <trkpt lat="43.88983" lon="6.65172">
        <ele>1491.7</ele>
        <time>2021-09-18T11:39:04Z</time>
      </trkpt>
      <trkpt lat="43.88986" lon="6.65181">
        <ele>1490.1</ele>
        <time>2021-09-18T11:39:06Z</time>
      </trkpt>
      <trkpt lat="43.88988" lon="6.65187">
        <ele>1488.9</ele>
        <time>2021-09-18T11:39:07Z</time>
      </trkpt>
      <trkpt lat="43.8899" lon="6.65194">
        <ele>1487.6</ele>
        <time>2021-09-18T11:39:08Z</time>
      </trkpt>
      <trkpt lat="43.88992" lon="6.652">
        <ele>1486.4</ele>
        <time>2021-09-18T11:39:09Z</time>
      </trkpt>
      <trkpt lat="43.88993" lon="6.65207">
        <ele>1485.1</ele>
        <time>2021-09-18T11:39:11Z</time>
      </trkpt>
      <trkpt lat="43.88995" lon="6.65215">
        <ele>1483.5</ele>
        <time>2021-09-18T11:39:12Z</time>
      </trkpt>
      <trkpt lat="43.88996" lon="6.65221">
        <ele>1482.3</ele>
        <time>2021-09-18T11:39:13Z</time>
      </trkpt>
      <trkpt lat="43.88997" lon="6.65227">
        <ele>1481.4</ele>
        <time>2021-09-18T11:39:14Z</time>
      </trkpt>
      <trkpt lat="43.88998" lon="6.65234">
        <ele>1480.4</ele>
        <time>2021-09-18T11:39:16Z</time>
      </trkpt>
      <trkpt lat="43.88999" lon="6.65239">
        <ele>1479.6</ele>
        <time>2021-09-18T11:39:17Z</time>
      </trkpt>
      <trkpt lat="43.89" lon="6.65244">
        <ele>1479.1</ele>
        <time>2021-09-18T11:39:18Z</time>
      </trkpt>
      <trkpt lat="43.89" lon="6.65248">
        <ele>1478.7</ele>
        <time>2021-09-18T11:39:19Z</time>
      </trkpt>
      <trkpt lat="43.89" lon="6.65252">
        <ele>1478.2</ele>
        <time>2021-09-18T11:39:20Z</time>
      </trkpt>
      <trkpt lat="43.89" lon="6.65256">
        <ele>1477.9</ele>
        <time>2021-09-18T11:39:21Z</time>
      </trkpt>
      <trkpt lat="43.89" lon="6.65259">
        <ele>1477.6</ele>
        <time>2021-09-18T11:39:23Z</time>
      </trkpt>
      <trkpt lat="43.89001" lon="6.65262">
        <ele>1477.1</ele>
        <time>2021-09-18T11:39:24Z</time>
      </trkpt>
      <trkpt lat="43.89003" lon="6.65266">
        <ele>1476.8</ele>
        <time>2021-09-18T11:39:25Z</time>
      </trkpt>
      <trkpt lat="43.89004" lon="6.6527">
        <ele>1476.3</ele>
        <time>2021-09-18T11:39:27Z</time>
      </trkpt>
      <trkpt lat="43.89005" lon="6.65274">
        <ele>1475.8</ele>
        <time>2021-09-18T11:39:28Z</time>
      </trkpt>
      <trkpt lat="43.89006" lon="6.65278">
        <ele>1475.4</ele>
        <time>2021-09-18T11:39:29Z</time>
      </trkpt>
      <trkpt lat="43.89007" lon="6.65285">
        <ele>1474.6</ele>
        <time>2021-09-18T11:39:31Z</time>
      </trkpt>
      <trkpt lat="43.89008" lon="6.6529">
        <ele>1473.9</ele>
        <time>2021-09-18T11:39:32Z</time>
      </trkpt>
      <trkpt lat="43.8901" lon="6.65298">
        <ele>1473</ele>
        <time>2021-09-18T11:39:33Z</time>
      </trkpt>
      <trkpt lat="43.89012" lon="6.65309">
        <ele>1471.7</ele>
        <time>2021-09-18T11:39:35Z</time>
      </trkpt>
      <trkpt lat="43.89014" lon="6.6532">
        <ele>1470.5</ele>
        <time>2021-09-18T11:39:37Z</time>
      </trkpt>
      <trkpt lat="43.89016" lon="6.65329">
        <ele>1469.3</ele>
        <time>2021-09-18T11:39:38Z</time>
      </trkpt>
      <trkpt lat="43.89019" lon="6.65343">
        <ele>1467.5</ele>
        <time>2021-09-18T11:39:40Z</time>
      </trkpt>
      <trkpt lat="43.89021" lon="6.65351">
        <ele>1466.2</ele>
        <time>2021-09-18T11:39:42Z</time>
      </trkpt>
      <trkpt lat="43.89023" lon="6.65357">
        <ele>1465.3</ele>
        <time>2021-09-18T11:39:43Z</time>
      </trkpt>
      <trkpt lat="43.89025" lon="6.65363">
        <ele>1464.4</ele>
        <time>2021-09-18T11:39:44Z</time>
      </trkpt>
      <trkpt lat="43.89026" lon="6.65368">
        <ele>1463.6</ele>
        <time>2021-09-18T11:39:45Z</time>
      </trkpt>
      <trkpt lat="43.89027" lon="6.65377">
        <ele>1462.2</ele>
        <time>2021-09-18T11:39:47Z</time>
      </trkpt>
      <trkpt lat="43.89028" lon="6.65385">
        <ele>1461</ele>
        <time>2021-09-18T11:39:48Z</time>
      </trkpt>
      <trkpt lat="43.89028" lon="6.65391">
        <ele>1460</ele>
        <time>2021-09-18T11:39:49Z</time>
      </trkpt>
      <trkpt lat="43.89028" lon="6.654">
        <ele>1458.7</ele>
        <time>2021-09-18T11:39:51Z</time>
      </trkpt>
      <trkpt lat="43.89027" lon="6.65408">
        <ele>1457.2</ele>
        <time>2021-09-18T11:39:52Z</time>
      </trkpt>
      <trkpt lat="43.89028" lon="6.65413">
        <ele>1455.8</ele>
        <time>2021-09-18T11:39:53Z</time>
      </trkpt>
      <trkpt lat="43.89029" lon="6.65418">
        <ele>1454.5</ele>
        <time>2021-09-18T11:39:54Z</time>
      </trkpt>
      <trkpt lat="43.89033" lon="6.65425">
        <ele>1452.3</ele>
        <time>2021-09-18T11:39:56Z</time>
      </trkpt>
      <trkpt lat="43.89035" lon="6.65429">
        <ele>1450.9</ele>
        <time>2021-09-18T11:39:57Z</time>
      </trkpt>
      <trkpt lat="43.89037" lon="6.65433">
        <ele>1449.4</ele>
        <time>2021-09-18T11:39:58Z</time>
      </trkpt>
      <trkpt lat="43.89038" lon="6.65432">
        <ele>1448.9</ele>
        <time>2021-09-18T11:39:59Z</time>
      </trkpt>
      <trkpt lat="43.89039" lon="6.65431">
        <ele>1448.5</ele>
        <time>2021-09-18T11:40:00Z</time>
      </trkpt>
      <trkpt lat="43.8904" lon="6.6543">
        <ele>1448</ele>
        <time>2021-09-18T11:40:02Z</time>
      </trkpt>
      <trkpt lat="43.8904" lon="6.65429">
        <ele>1447.6</ele>
        <time>2021-09-18T11:40:03Z</time>
      </trkpt>
      <trkpt lat="43.89041" lon="6.65429">
        <ele>1447.2</ele>
        <time>2021-09-18T11:40:04Z</time>
      </trkpt>
      <trkpt lat="43.89043" lon="6.65428">
        <ele>1446.7</ele>
        <time>2021-09-18T11:40:05Z</time>
      </trkpt>
      <trkpt lat="43.89043" lon="6.65429">
        <ele>1446.5</ele>
        <time>2021-09-18T11:40:07Z</time>
      </trkpt>
      <trkpt lat="43.89043" lon="6.65431">
        <ele>1445.8</ele>
        <time>2021-09-18T11:40:08Z</time>
      </trkpt>
      <trkpt lat="43.89043" lon="6.65433">
        <ele>1445.1</ele>
        <time>2021-09-18T11:40:09Z</time>
      </trkpt>
      <trkpt lat="43.89044" lon="6.65435">
        <ele>1444.5</ele>
        <time>2021-09-18T11:40:10Z</time>
      </trkpt>
      <trkpt lat="43.89045" lon="6.65439">
        <ele>1443.4</ele>
        <time>2021-09-18T11:40:12Z</time>
      </trkpt>
      <trkpt lat="43.89045" lon="6.6544">
        <ele>1442.9</ele>
        <time>2021-09-18T11:40:13Z</time>
      </trkpt>
      <trkpt lat="43.89049" lon="6.65439">
        <ele>1441.7</ele>
        <time>2021-09-18T11:40:15Z</time>
      </trkpt>
      <trkpt lat="43.89049" lon="6.65439">
        <ele>1440.5</ele>
        <time>2021-09-18T11:40:16Z</time>
      </trkpt>
      <trkpt lat="43.89052" lon="6.65436">
        <ele>1440.1</ele>
        <time>2021-09-18T11:40:18Z</time>
      </trkpt>
      <trkpt lat="43.89053" lon="6.65435">
        <ele>1439.9</ele>
        <time>2021-09-18T11:40:19Z</time>
      </trkpt>
      <trkpt lat="43.89055" lon="6.65431">
        <ele>1439.5</ele>
        <time>2021-09-18T11:40:20Z</time>
      </trkpt>
      <trkpt lat="43.89057" lon="6.65429">
        <ele>1439.1</ele>
        <time>2021-09-18T11:40:21Z</time>
      </trkpt>
      <trkpt lat="43.89061" lon="6.65426">
        <ele>1438.7</ele>
        <time>2021-09-18T11:40:22Z</time>
      </trkpt>
      <trkpt lat="43.89065" lon="6.65423">
        <ele>1438.2</ele>
        <time>2021-09-18T11:40:24Z</time>
      </trkpt>
      <trkpt lat="43.89069" lon="6.65419">
        <ele>1437.8</ele>
        <time>2021-09-18T11:40:25Z</time>
      </trkpt>
      <trkpt lat="43.89072" lon="6.65417">
        <ele>1437.5</ele>
        <time>2021-09-18T11:40:27Z</time>
      </trkpt>
      <trkpt lat="43.89074" lon="6.65416">
        <ele>1437.4</ele>
        <time>2021-09-18T11:40:28Z</time>
      </trkpt>
      <trkpt lat="43.89074" lon="6.65414">
        <ele>1437.3</ele>
        <time>2021-09-18T11:40:29Z</time>
      </trkpt>
      <trkpt lat="43.89075" lon="6.65414">
        <ele>1437.2</ele>
        <time>2021-09-18T11:40:30Z</time>
      </trkpt>
      <trkpt lat="43.89076" lon="6.65414">
        <ele>1437.2</ele>
        <time>2021-09-18T11:40:31Z</time>
      </trkpt>
      <trkpt lat="43.89076" lon="6.65416">
        <ele>1437.1</ele>
        <time>2021-09-18T11:40:32Z</time>
      </trkpt>
      <trkpt lat="43.89075" lon="6.65421">
        <ele>1436.8</ele>
        <time>2021-09-18T11:40:34Z</time>
      </trkpt>
      <trkpt lat="43.89075" lon="6.65421">
        <ele>1436.7</ele>
        <time>2021-09-18T11:40:35Z</time>
      </trkpt>
      <trkpt lat="43.89076" lon="6.6542">
        <ele>1436.7</ele>
        <time>2021-09-18T11:40:36Z</time>
      </trkpt>
      <trkpt lat="43.89077" lon="6.6542">
        <ele>1436.6</ele>
        <time>2021-09-18T11:40:37Z</time>
      </trkpt>
      <trkpt lat="43.89078" lon="6.6542">
        <ele>1436.5</ele>
        <time>2021-09-18T11:40:39Z</time>
      </trkpt>
      <trkpt lat="43.89079" lon="6.65419">
        <ele>1436.4</ele>
        <time>2021-09-18T11:40:40Z</time>
      </trkpt>
      <trkpt lat="43.8908" lon="6.65419">
        <ele>1436.3</ele>
        <time>2021-09-18T11:40:42Z</time>
      </trkpt>
      <trkpt lat="43.89081" lon="6.65418">
        <ele>1436.2</ele>
        <time>2021-09-18T11:40:43Z</time>
      </trkpt>
      <trkpt lat="43.89082" lon="6.65418">
        <ele>1436.1</ele>
        <time>2021-09-18T11:40:44Z</time>
      </trkpt>
      <trkpt lat="43.89082" lon="6.65418">
        <ele>1436</ele>
        <time>2021-09-18T11:40:51Z</time>
      </trkpt>
      <trkpt lat="43.89083" lon="6.65417">
        <ele>1435.9</ele>
        <time>2021-09-18T11:40:52Z</time>
      </trkpt>
      <trkpt lat="43.89084" lon="6.65417">
        <ele>1435.8</ele>
        <time>2021-09-18T11:40:53Z</time>
      </trkpt>
      <trkpt lat="43.89086" lon="6.6542">
        <ele>1435.5</ele>
        <time>2021-09-18T11:40:54Z</time>
      </trkpt>
      <trkpt lat="43.89088" lon="6.65426">
        <ele>1434.7</ele>
        <time>2021-09-18T11:40:56Z</time>
      </trkpt>
      <trkpt lat="43.89089" lon="6.65429">
        <ele>1434.3</ele>
        <time>2021-09-18T11:40:57Z</time>
      </trkpt>
      <trkpt lat="43.8909" lon="6.65437">
        <ele>1433.4</ele>
        <time>2021-09-18T11:40:59Z</time>
      </trkpt>
      <trkpt lat="43.89091" lon="6.65442">
        <ele>1432.6</ele>
        <time>2021-09-18T11:41:01Z</time>
      </trkpt>
      <trkpt lat="43.89093" lon="6.65446">
        <ele>1431.9</ele>
        <time>2021-09-18T11:41:02Z</time>
      </trkpt>
      <trkpt lat="43.89094" lon="6.65451">
        <ele>1431.2</ele>
        <time>2021-09-18T11:41:04Z</time>
      </trkpt>
      <trkpt lat="43.89094" lon="6.65453">
        <ele>1430.8</ele>
        <time>2021-09-18T11:41:05Z</time>
      </trkpt>
      <trkpt lat="43.89094" lon="6.65455">
        <ele>1430.5</ele>
        <time>2021-09-18T11:41:06Z</time>
      </trkpt>
      <trkpt lat="43.89094" lon="6.6546">
        <ele>1429.8</ele>
        <time>2021-09-18T11:41:08Z</time>
      </trkpt>
      <trkpt lat="43.89094" lon="6.65462">
        <ele>1429.6</ele>
        <time>2021-09-18T11:41:09Z</time>
      </trkpt>
      <trkpt lat="43.89094" lon="6.65464">
        <ele>1429.3</ele>
        <time>2021-09-18T11:41:10Z</time>
      </trkpt>
      <trkpt lat="43.89094" lon="6.65466">
        <ele>1429.1</ele>
        <time>2021-09-18T11:41:11Z</time>
      </trkpt>
      <trkpt lat="43.89094" lon="6.6547">
        <ele>1428.6</ele>
        <time>2021-09-18T11:41:13Z</time>
      </trkpt>
      <trkpt lat="43.89094" lon="6.65471">
        <ele>1428.5</ele>
        <time>2021-09-18T11:41:14Z</time>
      </trkpt>
      <trkpt lat="43.89095" lon="6.65475">
        <ele>1428.1</ele>
        <time>2021-09-18T11:41:15Z</time>
      </trkpt>
      <trkpt lat="43.89095" lon="6.65477">
        <ele>1428</ele>
        <time>2021-09-18T11:41:16Z</time>
      </trkpt>
      <trkpt lat="43.89095" lon="6.6548">
        <ele>1427.8</ele>
        <time>2021-09-18T11:41:17Z</time>
      </trkpt>
      <trkpt lat="43.89095" lon="6.65484">
        <ele>1427.5</ele>
        <time>2021-09-18T11:41:19Z</time>
      </trkpt>
      <trkpt lat="43.89095" lon="6.65489">
        <ele>1427.3</ele>
        <time>2021-09-18T11:41:21Z</time>
      </trkpt>
      <trkpt lat="43.89096" lon="6.6549">
        <ele>1427.2</ele>
        <time>2021-09-18T11:41:23Z</time>
      </trkpt>
      <trkpt lat="43.89096" lon="6.65492">
        <ele>1427.1</ele>
        <time>2021-09-18T11:41:25Z</time>
      </trkpt>
      <trkpt lat="43.89097" lon="6.65494">
        <ele>1427</ele>
        <time>2021-09-18T11:41:27Z</time>
      </trkpt>
      <trkpt lat="43.89097" lon="6.65496">
        <ele>1426.9</ele>
        <time>2021-09-18T11:41:28Z</time>
      </trkpt>
      <trkpt lat="43.89098" lon="6.65498">
        <ele>1426.7</ele>
        <time>2021-09-18T11:41:30Z</time>
      </trkpt>
      <trkpt lat="43.89098" lon="6.655">
        <ele>1426.6</ele>
        <time>2021-09-18T11:41:31Z</time>
      </trkpt>
      <trkpt lat="43.89099" lon="6.65501">
        <ele>1426.5</ele>
        <time>2021-09-18T11:41:33Z</time>
      </trkpt>
      <trkpt lat="43.89099" lon="6.65503">
        <ele>1426.4</ele>
        <time>2021-09-18T11:41:34Z</time>
      </trkpt>
      <trkpt lat="43.891" lon="6.65505">
        <ele>1426.3</ele>
        <time>2021-09-18T11:41:35Z</time>
      </trkpt>
      <trkpt lat="43.89101" lon="6.65507">
        <ele>1426.2</ele>
        <time>2021-09-18T11:41:46Z</time>
      </trkpt>
      <trkpt lat="43.89101" lon="6.65509">
        <ele>1426.1</ele>
        <time>2021-09-18T11:41:47Z</time>
      </trkpt>
      <trkpt lat="43.89102" lon="6.65517">
        <ele>1425.7</ele>
        <time>2021-09-18T11:41:48Z</time>
      </trkpt>
      <trkpt lat="43.89103" lon="6.65522">
        <ele>1425.3</ele>
        <time>2021-09-18T11:41:49Z</time>
      </trkpt>
      <trkpt lat="43.89104" lon="6.65528">
        <ele>1425</ele>
        <time>2021-09-18T11:41:50Z</time>
      </trkpt>
      <trkpt lat="43.89104" lon="6.65535">
        <ele>1424.4</ele>
        <time>2021-09-18T11:41:52Z</time>
      </trkpt>
      <trkpt lat="43.89106" lon="6.6554">
        <ele>1424</ele>
        <time>2021-09-18T11:41:53Z</time>
      </trkpt>
      <trkpt lat="43.89106" lon="6.65546">
        <ele>1423.5</ele>
        <time>2021-09-18T11:41:55Z</time>
      </trkpt>
      <trkpt lat="43.89108" lon="6.65549">
        <ele>1423.1</ele>
        <time>2021-09-18T11:41:56Z</time>
      </trkpt>
      <trkpt lat="43.89109" lon="6.65554">
        <ele>1422.5</ele>
        <time>2021-09-18T11:41:58Z</time>
      </trkpt>
      <trkpt lat="43.8911" lon="6.65558">
        <ele>1422.1</ele>
        <time>2021-09-18T11:41:59Z</time>
      </trkpt>
      <trkpt lat="43.89112" lon="6.65562">
        <ele>1421.6</ele>
        <time>2021-09-18T11:42:00Z</time>
      </trkpt>
      <trkpt lat="43.89113" lon="6.65567">
        <ele>1421</ele>
        <time>2021-09-18T11:42:02Z</time>
      </trkpt>
      <trkpt lat="43.89115" lon="6.6557">
        <ele>1420.6</ele>
        <time>2021-09-18T11:42:03Z</time>
      </trkpt>
      <trkpt lat="43.89118" lon="6.65572">
        <ele>1420.2</ele>
        <time>2021-09-18T11:42:05Z</time>
      </trkpt>
      <trkpt lat="43.89119" lon="6.65573">
        <ele>1420</ele>
        <time>2021-09-18T11:42:06Z</time>
      </trkpt>
      <trkpt lat="43.89119" lon="6.65571">
        <ele>1419.8</ele>
        <time>2021-09-18T11:42:07Z</time>
      </trkpt>
      <trkpt lat="43.89119" lon="6.65567">
        <ele>1419.5</ele>
        <time>2021-09-18T11:42:09Z</time>
      </trkpt>
      <trkpt lat="43.8912" lon="6.65563">
        <ele>1419.2</ele>
        <time>2021-09-18T11:42:10Z</time>
      </trkpt>
      <trkpt lat="43.8912" lon="6.65562">
        <ele>1419</ele>
        <time>2021-09-18T11:42:11Z</time>
      </trkpt>
      <trkpt lat="43.89121" lon="6.65559">
        <ele>1418.7</ele>
        <time>2021-09-18T11:42:12Z</time>
      </trkpt>
      <trkpt lat="43.89121" lon="6.65558">
        <ele>1418.6</ele>
        <time>2021-09-18T11:42:13Z</time>
      </trkpt>
      <trkpt lat="43.89122" lon="6.65557">
        <ele>1418.4</ele>
        <time>2021-09-18T11:42:14Z</time>
      </trkpt>
      <trkpt lat="43.89123" lon="6.65556">
        <ele>1418.3</ele>
        <time>2021-09-18T11:42:15Z</time>
      </trkpt>
      <trkpt lat="43.89125" lon="6.65555">
        <ele>1417.8</ele>
        <time>2021-09-18T11:42:17Z</time>
      </trkpt>
      <trkpt lat="43.89128" lon="6.65556">
        <ele>1417.4</ele>
        <time>2021-09-18T11:42:19Z</time>
      </trkpt>
      <trkpt lat="43.89129" lon="6.65556">
        <ele>1417.2</ele>
        <time>2021-09-18T11:42:21Z</time>
      </trkpt>
      <trkpt lat="43.89129" lon="6.65556">
        <ele>1417.1</ele>
        <time>2021-09-18T11:42:22Z</time>
      </trkpt>
      <trkpt lat="43.8913" lon="6.65556">
        <ele>1417</ele>
        <time>2021-09-18T11:42:23Z</time>
      </trkpt>
      <trkpt lat="43.8913" lon="6.65556">
        <ele>1417</ele>
        <time>2021-09-18T11:42:25Z</time>
      </trkpt>
      <trkpt lat="43.8913" lon="6.65556">
        <ele>1416.9</ele>
        <time>2021-09-18T11:42:26Z</time>
      </trkpt>
      <trkpt lat="43.8913" lon="6.65556">
        <ele>1416.9</ele>
        <time>2021-09-18T11:42:27Z</time>
      </trkpt>
      <trkpt lat="43.8913" lon="6.65555">
        <ele>1416.8</ele>
        <time>2021-09-18T11:42:28Z</time>
      </trkpt>
      <trkpt lat="43.89131" lon="6.65554">
        <ele>1416.6</ele>
        <time>2021-09-18T11:42:30Z</time>
      </trkpt>
      <trkpt lat="43.89132" lon="6.65554">
        <ele>1416.5</ele>
        <time>2021-09-18T11:42:31Z</time>
      </trkpt>
      <trkpt lat="43.89134" lon="6.65551">
        <ele>1416</ele>
        <time>2021-09-18T11:42:33Z</time>
      </trkpt>
      <trkpt lat="43.89136" lon="6.65549">
        <ele>1415.7</ele>
        <time>2021-09-18T11:42:34Z</time>
      </trkpt>
      <trkpt lat="43.89137" lon="6.65548">
        <ele>1415.5</ele>
        <time>2021-09-18T11:42:35Z</time>
      </trkpt>
      <trkpt lat="43.8914" lon="6.65546">
        <ele>1415</ele>
        <time>2021-09-18T11:42:37Z</time>
      </trkpt>
      <trkpt lat="43.89142" lon="6.65542">
        <ele>1414.6</ele>
        <time>2021-09-18T11:42:39Z</time>
      </trkpt>
      <trkpt lat="43.89145" lon="6.65539">
        <ele>1414.2</ele>
        <time>2021-09-18T11:42:40Z</time>
      </trkpt>
      <trkpt lat="43.89146" lon="6.65536">
        <ele>1414</ele>
        <time>2021-09-18T11:42:41Z</time>
      </trkpt>
      <trkpt lat="43.89148" lon="6.6553">
        <ele>1413.4</ele>
        <time>2021-09-18T11:42:43Z</time>
      </trkpt>
      <trkpt lat="43.89151" lon="6.65524">
        <ele>1412.9</ele>
        <time>2021-09-18T11:42:45Z</time>
      </trkpt>
      <trkpt lat="43.89152" lon="6.65521">
        <ele>1412.6</ele>
        <time>2021-09-18T11:42:46Z</time>
      </trkpt>
      <trkpt lat="43.89152" lon="6.6552">
        <ele>1412.5</ele>
        <time>2021-09-18T11:42:47Z</time>
      </trkpt>
      <trkpt lat="43.89152" lon="6.65519">
        <ele>1412.4</ele>
        <time>2021-09-18T11:42:49Z</time>
      </trkpt>
      <trkpt lat="43.89152" lon="6.65519">
        <ele>1412.4</ele>
        <time>2021-09-18T11:42:50Z</time>
      </trkpt>
      <trkpt lat="43.89151" lon="6.65519">
        <ele>1412.4</ele>
        <time>2021-09-18T11:42:52Z</time>
      </trkpt>
      <trkpt lat="43.89151" lon="6.65518">
        <ele>1412.3</ele>
        <time>2021-09-18T11:42:53Z</time>
      </trkpt>
      <trkpt lat="43.89151" lon="6.65517">
        <ele>1412.2</ele>
        <time>2021-09-18T11:42:55Z</time>
      </trkpt>
      <trkpt lat="43.89151" lon="6.65518">
        <ele>1412.2</ele>
        <time>2021-09-18T11:42:57Z</time>
      </trkpt>
      <trkpt lat="43.89151" lon="6.65518">
        <ele>1412.2</ele>
        <time>2021-09-18T11:42:58Z</time>
      </trkpt>
      <trkpt lat="43.89151" lon="6.65518">
        <ele>1412.2</ele>
        <time>2021-09-18T11:42:59Z</time>
      </trkpt>
      <trkpt lat="43.89152" lon="6.65518">
        <ele>1412.1</ele>
        <time>2021-09-18T11:43:01Z</time>
      </trkpt>
      <trkpt lat="43.89153" lon="6.65517">
        <ele>1412</ele>
        <time>2021-09-18T11:43:03Z</time>
      </trkpt>
      <trkpt lat="43.89153" lon="6.65517">
        <ele>1411.9</ele>
        <time>2021-09-18T11:43:04Z</time>
      </trkpt>
      <trkpt lat="43.89154" lon="6.65516">
        <ele>1411.8</ele>
        <time>2021-09-18T11:43:05Z</time>
      </trkpt>
      <trkpt lat="43.89154" lon="6.65515">
        <ele>1411.7</ele>
        <time>2021-09-18T11:43:07Z</time>
      </trkpt>
      <trkpt lat="43.89155" lon="6.65514">
        <ele>1411.6</ele>
        <time>2021-09-18T11:43:09Z</time>
      </trkpt>
      <trkpt lat="43.89156" lon="6.65514">
        <ele>1411.6</ele>
        <time>2021-09-18T11:43:10Z</time>
      </trkpt>
      <trkpt lat="43.89155" lon="6.65514">
        <ele>1411.5</ele>
        <time>2021-09-18T11:43:11Z</time>
      </trkpt>
      <trkpt lat="43.89154" lon="6.65513">
        <ele>1411.4</ele>
        <time>2021-09-18T11:43:13Z</time>
      </trkpt>
      <trkpt lat="43.89154" lon="6.65513">
        <ele>1411.3</ele>
        <time>2021-09-18T11:43:15Z</time>
      </trkpt>
      <trkpt lat="43.89153" lon="6.65513">
        <ele>1411.3</ele>
        <time>2021-09-18T11:43:16Z</time>
      </trkpt>
      <trkpt lat="43.89152" lon="6.65512">
        <ele>1411.2</ele>
        <time>2021-09-18T11:43:17Z</time>
      </trkpt>
      <trkpt lat="43.89152" lon="6.65512">
        <ele>1411.1</ele>
        <time>2021-09-18T11:43:19Z</time>
      </trkpt>
      <trkpt lat="43.89151" lon="6.65513">
        <ele>1411.1</ele>
        <time>2021-09-18T11:43:20Z</time>
      </trkpt>
      <trkpt lat="43.89144" lon="6.65504">
        <ele>1410.4</ele>
        <time>2021-09-18T11:43:27Z</time>
      </trkpt>
      <trkpt lat="43.89143" lon="6.655">
        <ele>1410.2</ele>
        <time>2021-09-18T11:43:28Z</time>
      </trkpt>
      <trkpt lat="43.89144" lon="6.65496">
        <ele>1410.1</ele>
        <time>2021-09-18T11:43:29Z</time>
      </trkpt>
      <trkpt lat="43.89145" lon="6.65495">
        <ele>1410.1</ele>
        <time>2021-09-18T11:43:30Z</time>
      </trkpt>
      <trkpt lat="43.89147" lon="6.65493">
        <ele>1409.9</ele>
        <time>2021-09-18T11:43:31Z</time>
      </trkpt>
      <trkpt lat="43.89153" lon="6.65491">
        <ele>1409.6</ele>
        <time>2021-09-18T11:43:33Z</time>
      </trkpt>
      <trkpt lat="43.89156" lon="6.65491">
        <ele>1408.8</ele>
        <time>2021-09-18T11:43:34Z</time>
      </trkpt>
      <trkpt lat="43.89158" lon="6.65491">
        <ele>1408.5</ele>
        <time>2021-09-18T11:43:35Z</time>
      </trkpt>
      <trkpt lat="43.89162" lon="6.65492">
        <ele>1407.2</ele>
        <time>2021-09-18T11:43:37Z</time>
      </trkpt>
      <trkpt lat="43.89162" lon="6.65494">
        <ele>1406.2</ele>
        <time>2021-09-18T11:43:38Z</time>
      </trkpt>
      <trkpt lat="43.89165" lon="6.65497">
        <ele>1405.4</ele>
        <time>2021-09-18T11:43:40Z</time>
      </trkpt>
      <trkpt lat="43.89168" lon="6.65501">
        <ele>1403.9</ele>
        <time>2021-09-18T11:43:41Z</time>
      </trkpt>
      <trkpt lat="43.89172" lon="6.65507">
        <ele>1401.8</ele>
        <time>2021-09-18T11:43:43Z</time>
      </trkpt>
      <trkpt lat="43.89173" lon="6.6551">
        <ele>1400.8</ele>
        <time>2021-09-18T11:43:44Z</time>
      </trkpt>
      <trkpt lat="43.89175" lon="6.65514">
        <ele>1400.1</ele>
        <time>2021-09-18T11:43:46Z</time>
      </trkpt>
      <trkpt lat="43.89175" lon="6.65517">
        <ele>1399.1</ele>
        <time>2021-09-18T11:43:47Z</time>
      </trkpt>
      <trkpt lat="43.89175" lon="6.65518">
        <ele>1398.8</ele>
        <time>2021-09-18T11:43:48Z</time>
      </trkpt>
      <trkpt lat="43.89175" lon="6.65518">
        <ele>1398.5</ele>
        <time>2021-09-18T11:43:49Z</time>
      </trkpt>
      <trkpt lat="43.89175" lon="6.65515">
        <ele>1398.2</ele>
        <time>2021-09-18T11:43:51Z</time>
      </trkpt>
      <trkpt lat="43.89175" lon="6.65515">
        <ele>1397.9</ele>
        <time>2021-09-18T11:43:52Z</time>
      </trkpt>
      <trkpt lat="43.89174" lon="6.65515">
        <ele>1397.6</ele>
        <time>2021-09-18T11:43:53Z</time>
      </trkpt>
      <trkpt lat="43.89174" lon="6.65515">
        <ele>1397.3</ele>
        <time>2021-09-18T11:43:54Z</time>
      </trkpt>
      <trkpt lat="43.89174" lon="6.65515">
        <ele>1397</ele>
        <time>2021-09-18T11:43:56Z</time>
      </trkpt>
      <trkpt lat="43.89174" lon="6.65515">
        <ele>1396.7</ele>
        <time>2021-09-18T11:43:57Z</time>
      </trkpt>
      <trkpt lat="43.89174" lon="6.65515">
        <ele>1396.8</ele>
        <time>2021-09-18T11:43:58Z</time>
      </trkpt>
      <trkpt lat="43.89174" lon="6.65516">
        <ele>1396.5</ele>
        <time>2021-09-18T11:44:00Z</time>
      </trkpt>
      <trkpt lat="43.89173" lon="6.65516">
        <ele>1396.2</ele>
        <time>2021-09-18T11:44:02Z</time>
      </trkpt>
      <trkpt lat="43.89174" lon="6.65516">
        <ele>1395.9</ele>
        <time>2021-09-18T11:44:04Z</time>
      </trkpt>
      <trkpt lat="43.89174" lon="6.65516">
        <ele>1395.6</ele>
        <time>2021-09-18T11:44:05Z</time>
      </trkpt>
      <trkpt lat="43.89175" lon="6.65514">
        <ele>1394.9</ele>
        <time>2021-09-18T11:44:07Z</time>
      </trkpt>
      <trkpt lat="43.89179" lon="6.6548">
        <ele>1400</ele>
        <time>2021-09-18T11:44:29Z</time>
      </trkpt>
      <trkpt lat="43.89179" lon="6.65482">
        <ele>1399.7</ele>
        <time>2021-09-18T11:44:30Z</time>
      </trkpt>
      <trkpt lat="43.89179" lon="6.65485">
        <ele>1398.7</ele>
        <time>2021-09-18T11:44:32Z</time>
      </trkpt>
      <trkpt lat="43.8918" lon="6.65487">
        <ele>1398.4</ele>
        <time>2021-09-18T11:44:33Z</time>
      </trkpt>
      <trkpt lat="43.8918" lon="6.65488">
        <ele>1398.1</ele>
        <time>2021-09-18T11:44:34Z</time>
      </trkpt>
      <trkpt lat="43.8918" lon="6.65489">
        <ele>1397</ele>
        <time>2021-09-18T11:44:35Z</time>
      </trkpt>
      <trkpt lat="43.89179" lon="6.6549">
        <ele>1396.7</ele>
        <time>2021-09-18T11:44:37Z</time>
      </trkpt>
      <trkpt lat="43.89177" lon="6.65491">
        <ele>1396.4</ele>
        <time>2021-09-18T11:44:39Z</time>
      </trkpt>
      <trkpt lat="43.89176" lon="6.65492">
        <ele>1396.4</ele>
        <time>2021-09-18T11:44:40Z</time>
      </trkpt>
      <trkpt lat="43.89176" lon="6.65493">
        <ele>1395.4</ele>
        <time>2021-09-18T11:44:41Z</time>
      </trkpt>
      <trkpt lat="43.89176" lon="6.65493">
        <ele>1395.1</ele>
        <time>2021-09-18T11:44:42Z</time>
      </trkpt>
      <trkpt lat="43.89175" lon="6.65494">
        <ele>1394.8</ele>
        <time>2021-09-18T11:44:43Z</time>
      </trkpt>
      <trkpt lat="43.89175" lon="6.65495">
        <ele>1394.5</ele>
        <time>2021-09-18T11:44:45Z</time>
      </trkpt>
      <trkpt lat="43.89206" lon="6.65483">
        <ele>1396.1</ele>
        <time>2021-09-18T11:46:56Z</time>
      </trkpt>
      <trkpt lat="43.89209" lon="6.65483">
        <ele>1396</ele>
        <time>2021-09-18T11:46:57Z</time>
      </trkpt>
      <trkpt lat="43.89212" lon="6.65485">
        <ele>1395.2</ele>
        <time>2021-09-18T11:46:59Z</time>
      </trkpt>
      <trkpt lat="43.89213" lon="6.65485">
        <ele>1394.9</ele>
        <time>2021-09-18T11:47:00Z</time>
      </trkpt>
      <trkpt lat="43.89215" lon="6.65486">
        <ele>1395.1</ele>
        <time>2021-09-18T11:47:02Z</time>
      </trkpt>
      <trkpt lat="43.89218" lon="6.65487">
        <ele>1394.9</ele>
        <time>2021-09-18T11:47:04Z</time>
      </trkpt>
      <trkpt lat="43.89219" lon="6.65488">
        <ele>1394.9</ele>
        <time>2021-09-18T11:47:05Z</time>
      </trkpt>
      <trkpt lat="43.89219" lon="6.65488">
        <ele>1394.8</ele>
        <time>2021-09-18T11:47:06Z</time>
      </trkpt>
      <trkpt lat="43.89219" lon="6.6549">
        <ele>1394.8</ele>
        <time>2021-09-18T11:47:08Z</time>
      </trkpt>
      <trkpt lat="43.89219" lon="6.6549">
        <ele>1394.8</ele>
        <time>2021-09-18T11:47:09Z</time>
      </trkpt>
      <trkpt lat="43.89219" lon="6.65492">
        <ele>1394.7</ele>
        <time>2021-09-18T11:47:11Z</time>
      </trkpt>
      <trkpt lat="43.89219" lon="6.65494">
        <ele>1394.7</ele>
        <time>2021-09-18T11:47:13Z</time>
      </trkpt>
      <trkpt lat="43.89219" lon="6.65494">
        <ele>1394.3</ele>
        <time>2021-09-18T11:47:14Z</time>
      </trkpt>
      <trkpt lat="43.89219" lon="6.65495">
        <ele>1394.2</ele>
        <time>2021-09-18T11:47:16Z</time>
      </trkpt>
      <trkpt lat="43.8923" lon="6.6553">
        <ele>1392.6</ele>
        <time>2021-09-18T11:48:47Z</time>
      </trkpt>
      <trkpt lat="43.89231" lon="6.65532">
        <ele>1392.5</ele>
        <time>2021-09-18T11:48:48Z</time>
      </trkpt>
      <trkpt lat="43.89232" lon="6.65533">
        <ele>1392.5</ele>
        <time>2021-09-18T11:48:49Z</time>
      </trkpt>
      <trkpt lat="43.89234" lon="6.65537">
        <ele>1392.5</ele>
        <time>2021-09-18T11:48:51Z</time>
      </trkpt>
      <trkpt lat="43.89236" lon="6.65543">
        <ele>1392.6</ele>
        <time>2021-09-18T11:48:53Z</time>
      </trkpt>
      <trkpt lat="43.89237" lon="6.65544">
        <ele>1392.7</ele>
        <time>2021-09-18T11:48:54Z</time>
      </trkpt>
      <trkpt lat="43.89238" lon="6.65547">
        <ele>1392.9</ele>
        <time>2021-09-18T11:48:56Z</time>
      </trkpt>
      <trkpt lat="43.89238" lon="6.65549">
        <ele>1393</ele>
        <time>2021-09-18T11:48:57Z</time>
      </trkpt>
      <trkpt lat="43.89239" lon="6.6555">
        <ele>1393.1</ele>
        <time>2021-09-18T11:48:59Z</time>
      </trkpt>
      <trkpt lat="43.8924" lon="6.65551">
        <ele>1393.2</ele>
        <time>2021-09-18T11:49:00Z</time>
      </trkpt>
      <trkpt lat="43.8924" lon="6.65553">
        <ele>1393.4</ele>
        <time>2021-09-18T11:49:02Z</time>
      </trkpt>
      <trkpt lat="43.8924" lon="6.65557">
        <ele>1393.6</ele>
        <time>2021-09-18T11:49:03Z</time>
      </trkpt>
      <trkpt lat="43.89241" lon="6.65561">
        <ele>1393.8</ele>
        <time>2021-09-18T11:49:04Z</time>
      </trkpt>
      <trkpt lat="43.89241" lon="6.65565">
        <ele>1393.9</ele>
        <time>2021-09-18T11:49:05Z</time>
      </trkpt>
      <trkpt lat="43.89242" lon="6.65568">
        <ele>1394.1</ele>
        <time>2021-09-18T11:49:06Z</time>
      </trkpt>
      <trkpt lat="43.89242" lon="6.65572">
        <ele>1394.2</ele>
        <time>2021-09-18T11:49:08Z</time>
      </trkpt>
      <trkpt lat="43.89243" lon="6.65576">
        <ele>1394.3</ele>
        <time>2021-09-18T11:49:09Z</time>
      </trkpt>
      <trkpt lat="43.89243" lon="6.6558">
        <ele>1394.5</ele>
        <time>2021-09-18T11:49:11Z</time>
      </trkpt>
      <trkpt lat="43.89244" lon="6.65583">
        <ele>1394.6</ele>
        <time>2021-09-18T11:49:12Z</time>
      </trkpt>
      <trkpt lat="43.89244" lon="6.65587">
        <ele>1394.8</ele>
        <time>2021-09-18T11:49:13Z</time>
      </trkpt>
      <trkpt lat="43.89245" lon="6.65591">
        <ele>1394.9</ele>
        <time>2021-09-18T11:49:14Z</time>
      </trkpt>
      <trkpt lat="43.89245" lon="6.65594">
        <ele>1395.1</ele>
        <time>2021-09-18T11:49:16Z</time>
      </trkpt>
      <trkpt lat="43.89246" lon="6.65598">
        <ele>1395.3</ele>
        <time>2021-09-18T11:50:09Z</time>
      </trkpt>
      <trkpt lat="43.89246" lon="6.65602">
        <ele>1395.5</ele>
        <time>2021-09-18T11:50:10Z</time>
      </trkpt>
      <trkpt lat="43.89247" lon="6.65606">
        <ele>1395.7</ele>
        <time>2021-09-18T11:50:11Z</time>
      </trkpt>
      <trkpt lat="43.89247" lon="6.65608">
        <ele>1395.8</ele>
        <time>2021-09-18T11:50:13Z</time>
      </trkpt>
      <trkpt lat="43.89247" lon="6.65608">
        <ele>1395.8</ele>
        <time>2021-09-18T11:50:15Z</time>
      </trkpt>
      <trkpt lat="43.89248" lon="6.65608">
        <ele>1395.9</ele>
        <time>2021-09-18T11:50:16Z</time>
      </trkpt>
      <trkpt lat="43.89248" lon="6.65608">
        <ele>1395.9</ele>
        <time>2021-09-18T11:50:18Z</time>
      </trkpt>
      <trkpt lat="43.89249" lon="6.65608">
        <ele>1395.9</ele>
        <time>2021-09-18T11:50:20Z</time>
      </trkpt>
      <trkpt lat="43.89249" lon="6.65608">
        <ele>1396</ele>
        <time>2021-09-18T11:50:21Z</time>
      </trkpt>
      <trkpt lat="43.89265" lon="6.65619">
        <ele>1396.7</ele>
        <time>2021-09-18T11:50:36Z</time>
      </trkpt>
      <trkpt lat="43.89265" lon="6.6562">
        <ele>1396.8</ele>
        <time>2021-09-18T11:50:37Z</time>
      </trkpt>
      <trkpt lat="43.89265" lon="6.65621">
        <ele>1396.8</ele>
        <time>2021-09-18T11:50:38Z</time>
      </trkpt>
      <trkpt lat="43.89265" lon="6.65623">
        <ele>1396.9</ele>
        <time>2021-09-18T11:50:40Z</time>
      </trkpt>
      <trkpt lat="43.89267" lon="6.65624">
        <ele>1396.9</ele>
        <time>2021-09-18T11:50:41Z</time>
      </trkpt>
      <trkpt lat="43.89267" lon="6.65625">
        <ele>1397</ele>
        <time>2021-09-18T11:50:43Z</time>
      </trkpt>
      <trkpt lat="43.89267" lon="6.65626">
        <ele>1397</ele>
        <time>2021-09-18T11:50:44Z</time>
      </trkpt>
      <trkpt lat="43.89268" lon="6.65627">
        <ele>1397.1</ele>
        <time>2021-09-18T11:50:45Z</time>
      </trkpt>
      <trkpt lat="43.89269" lon="6.65628">
        <ele>1397.1</ele>
        <time>2021-09-18T11:50:47Z</time>
      </trkpt>
      <trkpt lat="43.89269" lon="6.65629">
        <ele>1397.2</ele>
        <time>2021-09-18T11:50:48Z</time>
      </trkpt>
      <trkpt lat="43.89278" lon="6.65648">
        <ele>1399.4</ele>
        <time>2021-09-18T11:50:50Z</time>
      </trkpt>
      <trkpt lat="43.89286" lon="6.65667">
        <ele>1401.3</ele>
        <time>2021-09-18T11:50:51Z</time>
      </trkpt>
      <trkpt lat="43.89294" lon="6.65685">
        <ele>1402.9</ele>
        <time>2021-09-18T11:52:14Z</time>
      </trkpt>
      <trkpt lat="43.89302" lon="6.65704">
        <ele>1403.6</ele>
        <time>2021-09-18T11:52:15Z</time>
      </trkpt>
      <trkpt lat="43.89307" lon="6.6571">
        <ele>1403.4</ele>
        <time>2021-09-18T11:52:17Z</time>
      </trkpt>
      <trkpt lat="43.89311" lon="6.65714">
        <ele>1403.2</ele>
        <time>2021-09-18T11:52:18Z</time>
      </trkpt>
      <trkpt lat="43.89316" lon="6.65719">
        <ele>1402.8</ele>
        <time>2021-09-18T11:52:19Z</time>
      </trkpt>
      <trkpt lat="43.89319" lon="6.65722">
        <ele>1402.5</ele>
        <time>2021-09-18T11:52:20Z</time>
      </trkpt>
      <trkpt lat="43.89324" lon="6.65728">
        <ele>1401.9</ele>
        <time>2021-09-18T11:52:22Z</time>
      </trkpt>
      <trkpt lat="43.89328" lon="6.65732">
        <ele>1401.4</ele>
        <time>2021-09-18T11:52:23Z</time>
      </trkpt>
      <trkpt lat="43.89332" lon="6.65736">
        <ele>1400.9</ele>
        <time>2021-09-18T11:52:24Z</time>
      </trkpt>
      <trkpt lat="43.89338" lon="6.6574">
        <ele>1400.2</ele>
        <time>2021-09-18T11:52:25Z</time>
      </trkpt>
      <trkpt lat="43.89344" lon="6.65745">
        <ele>1399.4</ele>
        <time>2021-09-18T11:52:27Z</time>
      </trkpt>
      <trkpt lat="43.89349" lon="6.65749">
        <ele>1398.7</ele>
        <time>2021-09-18T11:52:28Z</time>
      </trkpt>
      <trkpt lat="43.89354" lon="6.65754">
        <ele>1398.1</ele>
        <time>2021-09-18T11:52:30Z</time>
      </trkpt>
      <trkpt lat="43.89354" lon="6.65754">
        <ele>1398.1</ele>
        <time>2021-09-18T11:52:31Z</time>
      </trkpt>
      <trkpt lat="43.89355" lon="6.65755">
        <ele>1397.9</ele>
        <time>2021-09-18T11:52:32Z</time>
      </trkpt>
      <trkpt lat="43.89355" lon="6.65756">
        <ele>1397.8</ele>
        <time>2021-09-18T11:52:34Z</time>
      </trkpt>
      <trkpt lat="43.89355" lon="6.65758">
        <ele>1397.7</ele>
        <time>2021-09-18T11:52:35Z</time>
      </trkpt>
      <trkpt lat="43.89356" lon="6.65759">
        <ele>1397.6</ele>
        <time>2021-09-18T11:52:36Z</time>
      </trkpt>
      <trkpt lat="43.89358" lon="6.65761">
        <ele>1397.4</ele>
        <time>2021-09-18T11:52:37Z</time>
      </trkpt>
      <trkpt lat="43.89361" lon="6.65763">
        <ele>1397.1</ele>
        <time>2021-09-18T11:52:39Z</time>
      </trkpt>
      <trkpt lat="43.89362" lon="6.65764">
        <ele>1397</ele>
        <time>2021-09-18T11:52:40Z</time>
      </trkpt>
      <trkpt lat="43.89366" lon="6.65765">
        <ele>1396.7</ele>
        <time>2021-09-18T11:52:41Z</time>
      </trkpt>
      <trkpt lat="43.89368" lon="6.65765">
        <ele>1396.5</ele>
        <time>2021-09-18T11:52:42Z</time>
      </trkpt>
      <trkpt lat="43.89369" lon="6.65765">
        <ele>1396.4</ele>
        <time>2021-09-18T11:52:43Z</time>
      </trkpt>
      <trkpt lat="43.89372" lon="6.65765">
        <ele>1396.3</ele>
        <time>2021-09-18T11:52:45Z</time>
      </trkpt>
      <trkpt lat="43.89373" lon="6.65765">
        <ele>1396.2</ele>
        <time>2021-09-18T11:52:46Z</time>
      </trkpt>
      <trkpt lat="43.89374" lon="6.65765">
        <ele>1396.1</ele>
        <time>2021-09-18T11:52:47Z</time>
      </trkpt>
      <trkpt lat="43.89375" lon="6.65765">
        <ele>1396.1</ele>
        <time>2021-09-18T11:52:48Z</time>
      </trkpt>
      <trkpt lat="43.89376" lon="6.65765">
        <ele>1396</ele>
        <time>2021-09-18T11:52:49Z</time>
      </trkpt>
      <trkpt lat="43.89378" lon="6.65766">
        <ele>1395.7</ele>
        <time>2021-09-18T11:52:51Z</time>
      </trkpt>
      <trkpt lat="43.89377" lon="6.65771">
        <ele>1395.4</ele>
        <time>2021-09-18T11:52:53Z</time>
      </trkpt>
      <trkpt lat="43.89377" lon="6.65772">
        <ele>1395.3</ele>
        <time>2021-09-18T11:52:54Z</time>
      </trkpt>
      <trkpt lat="43.89376" lon="6.65774">
        <ele>1395.2</ele>
        <time>2021-09-18T11:52:55Z</time>
      </trkpt>
      <trkpt lat="43.89375" lon="6.65774">
        <ele>1395.1</ele>
        <time>2021-09-18T11:52:57Z</time>
      </trkpt>
      <trkpt lat="43.89375" lon="6.65775">
        <ele>1395</ele>
        <time>2021-09-18T11:52:58Z</time>
      </trkpt>
      <trkpt lat="43.89374" lon="6.65775">
        <ele>1395</ele>
        <time>2021-09-18T11:52:59Z</time>
      </trkpt>
      <trkpt lat="43.89374" lon="6.65775">
        <ele>1394.9</ele>
        <time>2021-09-18T11:53:01Z</time>
      </trkpt>
      <trkpt lat="43.89372" lon="6.65776">
        <ele>1394.7</ele>
        <time>2021-09-18T11:53:03Z</time>
      </trkpt>
      <trkpt lat="43.89368" lon="6.65778">
        <ele>1394.5</ele>
        <time>2021-09-18T11:53:06Z</time>
      </trkpt>
      <trkpt lat="43.89368" lon="6.65779">
        <ele>1394.4</ele>
        <time>2021-09-18T11:53:07Z</time>
      </trkpt>
      <trkpt lat="43.89389" lon="6.65752">
        <ele>1395.4</ele>
        <time>2021-09-18T11:53:21Z</time>
      </trkpt>
      <trkpt lat="43.89391" lon="6.65751">
        <ele>1395.6</ele>
        <time>2021-09-18T11:53:22Z</time>
      </trkpt>
      <trkpt lat="43.89394" lon="6.65751">
        <ele>1395.8</ele>
        <time>2021-09-18T11:53:24Z</time>
      </trkpt>
      <trkpt lat="43.89396" lon="6.65753">
        <ele>1396</ele>
        <time>2021-09-18T11:53:25Z</time>
      </trkpt>
      <trkpt lat="43.89397" lon="6.65755">
        <ele>1396</ele>
        <time>2021-09-18T11:53:27Z</time>
      </trkpt>
      <trkpt lat="43.89398" lon="6.65756">
        <ele>1396.1</ele>
        <time>2021-09-18T11:53:28Z</time>
      </trkpt>
      <trkpt lat="43.894" lon="6.65759">
        <ele>1396.3</ele>
        <time>2021-09-18T11:53:30Z</time>
      </trkpt>
      <trkpt lat="43.89401" lon="6.6576">
        <ele>1396.3</ele>
        <time>2021-09-18T11:53:31Z</time>
      </trkpt>
      <trkpt lat="43.89403" lon="6.65762">
        <ele>1396.4</ele>
        <time>2021-09-18T11:53:32Z</time>
      </trkpt>
      <trkpt lat="43.89406" lon="6.65764">
        <ele>1396.5</ele>
        <time>2021-09-18T11:53:34Z</time>
      </trkpt>
      <trkpt lat="43.89407" lon="6.65764">
        <ele>1396.5</ele>
        <time>2021-09-18T11:53:35Z</time>
      </trkpt>
      <trkpt lat="43.89416" lon="6.65773">
        <ele>1396.7</ele>
        <time>2021-09-18T11:53:43Z</time>
      </trkpt>
      <trkpt lat="43.89419" lon="6.65776">
        <ele>1396.6</ele>
        <time>2021-09-18T11:53:45Z</time>
      </trkpt>
      <trkpt lat="43.8942" lon="6.65778">
        <ele>1396.6</ele>
        <time>2021-09-18T11:53:46Z</time>
      </trkpt>
      <trkpt lat="43.89422" lon="6.6578">
        <ele>1396.6</ele>
        <time>2021-09-18T11:53:48Z</time>
      </trkpt>
      <trkpt lat="43.89422" lon="6.65781">
        <ele>1396.6</ele>
        <time>2021-09-18T11:53:49Z</time>
      </trkpt>
      <trkpt lat="43.89422" lon="6.65782">
        <ele>1396.6</ele>
        <time>2021-09-18T11:53:51Z</time>
      </trkpt>
      <trkpt lat="43.89421" lon="6.65782">
        <ele>1396.6</ele>
        <time>2021-09-18T11:53:52Z</time>
      </trkpt>
      <trkpt lat="43.89421" lon="6.65783">
        <ele>1396.6</ele>
        <time>2021-09-18T11:53:54Z</time>
      </trkpt>
      <trkpt lat="43.89421" lon="6.65784">
        <ele>1396.6</ele>
        <time>2021-09-18T11:53:55Z</time>
      </trkpt>
      <trkpt lat="43.8942" lon="6.65784">
        <ele>1396.6</ele>
        <time>2021-09-18T11:53:57Z</time>
      </trkpt>
      <trkpt lat="43.8942" lon="6.65785">
        <ele>1396.6</ele>
        <time>2021-09-18T11:53:58Z</time>
      </trkpt>
      <trkpt lat="43.8942" lon="6.65788">
        <ele>1396.6</ele>
        <time>2021-09-18T11:54:00Z</time>
      </trkpt>
      <trkpt lat="43.8942" lon="6.65789">
        <ele>1396.5</ele>
        <time>2021-09-18T11:54:01Z</time>
      </trkpt>
      <trkpt lat="43.89422" lon="6.65793">
        <ele>1396.5</ele>
        <time>2021-09-18T11:54:03Z</time>
      </trkpt>
      <trkpt lat="43.89427" lon="6.65804">
        <ele>1396.2</ele>
        <time>2021-09-18T11:54:07Z</time>
      </trkpt>
      <trkpt lat="43.89428" lon="6.65808">
        <ele>1396.1</ele>
        <time>2021-09-18T11:54:08Z</time>
      </trkpt>
      <trkpt lat="43.89431" lon="6.65815">
        <ele>1395.8</ele>
        <time>2021-09-18T11:54:10Z</time>
      </trkpt>
      <trkpt lat="43.89434" lon="6.6582">
        <ele>1395.6</ele>
        <time>2021-09-18T11:54:12Z</time>
      </trkpt>
      <trkpt lat="43.89436" lon="6.65823">
        <ele>1395.5</ele>
        <time>2021-09-18T11:54:13Z</time>
      </trkpt>
      <trkpt lat="43.89436" lon="6.65824">
        <ele>1395.5</ele>
        <time>2021-09-18T11:54:14Z</time>
      </trkpt>
      <trkpt lat="43.89438" lon="6.65826">
        <ele>1395.4</ele>
        <time>2021-09-18T11:54:15Z</time>
      </trkpt>
      <trkpt lat="43.89439" lon="6.65827">
        <ele>1395.4</ele>
        <time>2021-09-18T11:54:16Z</time>
      </trkpt>
      <trkpt lat="43.89443" lon="6.6583">
        <ele>1395.2</ele>
        <time>2021-09-18T11:54:18Z</time>
      </trkpt>
      <trkpt lat="43.89447" lon="6.65832">
        <ele>1395.1</ele>
        <time>2021-09-18T11:54:19Z</time>
      </trkpt>
      <trkpt lat="43.89452" lon="6.65836">
        <ele>1394.8</ele>
        <time>2021-09-18T11:54:21Z</time>
      </trkpt>
      <trkpt lat="43.89456" lon="6.65838">
        <ele>1394.6</ele>
        <time>2021-09-18T11:54:22Z</time>
      </trkpt>
      <trkpt lat="43.89459" lon="6.65841">
        <ele>1394.3</ele>
        <time>2021-09-18T11:54:23Z</time>
      </trkpt>
      <trkpt lat="43.89463" lon="6.65845">
        <ele>1394</ele>
        <time>2021-09-18T11:54:24Z</time>
      </trkpt>
      <trkpt lat="43.89467" lon="6.6585">
        <ele>1393.5</ele>
        <time>2021-09-18T11:54:26Z</time>
      </trkpt>
      <trkpt lat="43.8947" lon="6.65854">
        <ele>1393.2</ele>
        <time>2021-09-18T11:54:27Z</time>
      </trkpt>
      <trkpt lat="43.89474" lon="6.65858">
        <ele>1392.7</ele>
        <time>2021-09-18T11:54:28Z</time>
      </trkpt>
      <trkpt lat="43.89477" lon="6.65861">
        <ele>1392.3</ele>
        <time>2021-09-18T11:54:29Z</time>
      </trkpt>
      <trkpt lat="43.89482" lon="6.65866">
        <ele>1391.7</ele>
        <time>2021-09-18T11:54:31Z</time>
      </trkpt>
      <trkpt lat="43.89487" lon="6.6587">
        <ele>1391.1</ele>
        <time>2021-09-18T11:54:32Z</time>
      </trkpt>
      <trkpt lat="43.89493" lon="6.65876">
        <ele>1390.4</ele>
        <time>2021-09-18T11:54:34Z</time>
      </trkpt>
      <trkpt lat="43.89497" lon="6.6588">
        <ele>1389.9</ele>
        <time>2021-09-18T11:54:35Z</time>
      </trkpt>
      <trkpt lat="43.895" lon="6.65886">
        <ele>1389.5</ele>
        <time>2021-09-18T11:54:36Z</time>
      </trkpt>
      <trkpt lat="43.89503" lon="6.65892">
        <ele>1389.2</ele>
        <time>2021-09-18T11:54:37Z</time>
      </trkpt>
      <trkpt lat="43.89507" lon="6.65899">
        <ele>1388.9</ele>
        <time>2021-09-18T11:54:38Z</time>
      </trkpt>
      <trkpt lat="43.89511" lon="6.65906">
        <ele>1388.7</ele>
        <time>2021-09-18T11:54:40Z</time>
      </trkpt>
      <trkpt lat="43.89514" lon="6.65913">
        <ele>1388.5</ele>
        <time>2021-09-18T11:54:41Z</time>
      </trkpt>
      <trkpt lat="43.89519" lon="6.65921">
        <ele>1388.4</ele>
        <time>2021-09-18T11:54:43Z</time>
      </trkpt>
      <trkpt lat="43.89523" lon="6.65926">
        <ele>1388.4</ele>
        <time>2021-09-18T11:54:44Z</time>
      </trkpt>
      <trkpt lat="43.89525" lon="6.65931">
        <ele>1388.4</ele>
        <time>2021-09-18T11:54:45Z</time>
      </trkpt>
      <trkpt lat="43.89528" lon="6.65936">
        <ele>1388.4</ele>
        <time>2021-09-18T11:54:46Z</time>
      </trkpt>
      <trkpt lat="43.89531" lon="6.65939">
        <ele>1388.5</ele>
        <time>2021-09-18T11:54:47Z</time>
      </trkpt>
      <trkpt lat="43.89534" lon="6.65944">
        <ele>1388.6</ele>
        <time>2021-09-18T11:54:48Z</time>
      </trkpt>
      <trkpt lat="43.89538" lon="6.65948">
        <ele>1388.6</ele>
        <time>2021-09-18T11:54:50Z</time>
      </trkpt>
      <trkpt lat="43.89541" lon="6.65954">
        <ele>1388.6</ele>
        <time>2021-09-18T11:54:52Z</time>
      </trkpt>
      <trkpt lat="43.89544" lon="6.65956">
        <ele>1388.6</ele>
        <time>2021-09-18T11:54:53Z</time>
      </trkpt>
      <trkpt lat="43.89547" lon="6.6596">
        <ele>1388.6</ele>
        <time>2021-09-18T11:54:55Z</time>
      </trkpt>
      <trkpt lat="43.8955" lon="6.65963">
        <ele>1388.6</ele>
        <time>2021-09-18T11:54:56Z</time>
      </trkpt>
      <trkpt lat="43.89551" lon="6.65965">
        <ele>1388.6</ele>
        <time>2021-09-18T11:54:57Z</time>
      </trkpt>
      <trkpt lat="43.89552" lon="6.65969">
        <ele>1388.7</ele>
        <time>2021-09-18T11:54:58Z</time>
      </trkpt>
      <trkpt lat="43.89552" lon="6.6597">
        <ele>1388.8</ele>
        <time>2021-09-18T11:54:59Z</time>
      </trkpt>
      <trkpt lat="43.89553" lon="6.65974">
        <ele>1388.9</ele>
        <time>2021-09-18T11:55:00Z</time>
      </trkpt>
      <trkpt lat="43.89555" lon="6.65978">
        <ele>1389.1</ele>
        <time>2021-09-18T11:55:02Z</time>
      </trkpt>
      <trkpt lat="43.89558" lon="6.65981">
        <ele>1389.4</ele>
        <time>2021-09-18T11:55:03Z</time>
      </trkpt>
      <trkpt lat="43.89558" lon="6.65982">
        <ele>1389.5</ele>
        <time>2021-09-18T11:55:04Z</time>
      </trkpt>
      <trkpt lat="43.89561" lon="6.65986">
        <ele>1389.8</ele>
        <time>2021-09-18T11:55:06Z</time>
      </trkpt>
      <trkpt lat="43.89562" lon="6.65988">
        <ele>1389.9</ele>
        <time>2021-09-18T11:55:07Z</time>
      </trkpt>
      <trkpt lat="43.89563" lon="6.65991">
        <ele>1390</ele>
        <time>2021-09-18T11:55:09Z</time>
      </trkpt>
      <trkpt lat="43.89564" lon="6.65994">
        <ele>1390.1</ele>
        <time>2021-09-18T11:55:10Z</time>
      </trkpt>
      <trkpt lat="43.89564" lon="6.65995">
        <ele>1390.2</ele>
        <time>2021-09-18T11:55:11Z</time>
      </trkpt>
      <trkpt lat="43.89566" lon="6.65999">
        <ele>1390.3</ele>
        <time>2021-09-18T11:55:13Z</time>
      </trkpt>
      <trkpt lat="43.89566" lon="6.66001">
        <ele>1390.3</ele>
        <time>2021-09-18T11:55:14Z</time>
      </trkpt>
      <trkpt lat="43.89566" lon="6.66003">
        <ele>1390.4</ele>
        <time>2021-09-18T11:55:15Z</time>
      </trkpt>
      <trkpt lat="43.89566" lon="6.66007">
        <ele>1390.4</ele>
        <time>2021-09-18T11:55:17Z</time>
      </trkpt>
      <trkpt lat="43.89567" lon="6.66011">
        <ele>1390.4</ele>
        <time>2021-09-18T11:55:18Z</time>
      </trkpt>
      <trkpt lat="43.89567" lon="6.66012">
        <ele>1390.5</ele>
        <time>2021-09-18T11:55:19Z</time>
      </trkpt>
      <trkpt lat="43.89568" lon="6.66016">
        <ele>1390.5</ele>
        <time>2021-09-18T11:55:20Z</time>
      </trkpt>
      <trkpt lat="43.89569" lon="6.66022">
        <ele>1390.5</ele>
        <time>2021-09-18T11:55:22Z</time>
      </trkpt>
      <trkpt lat="43.89569" lon="6.66024">
        <ele>1390.6</ele>
        <time>2021-09-18T11:55:23Z</time>
      </trkpt>
      <trkpt lat="43.89571" lon="6.66028">
        <ele>1390.7</ele>
        <time>2021-09-18T11:55:24Z</time>
      </trkpt>
      <trkpt lat="43.89572" lon="6.6603">
        <ele>1390.7</ele>
        <time>2021-09-18T11:55:25Z</time>
      </trkpt>
      <trkpt lat="43.89574" lon="6.66036">
        <ele>1390.9</ele>
        <time>2021-09-18T11:55:27Z</time>
      </trkpt>
      <trkpt lat="43.89574" lon="6.66038">
        <ele>1390.9</ele>
        <time>2021-09-18T11:55:28Z</time>
      </trkpt>
      <trkpt lat="43.89575" lon="6.6604">
        <ele>1391</ele>
        <time>2021-09-18T11:55:29Z</time>
      </trkpt>
      <trkpt lat="43.89576" lon="6.66044">
        <ele>1391.1</ele>
        <time>2021-09-18T11:55:30Z</time>
      </trkpt>
      <trkpt lat="43.89576" lon="6.66046">
        <ele>1391.1</ele>
        <time>2021-09-18T11:55:31Z</time>
      </trkpt>
      <trkpt lat="43.89577" lon="6.6605">
        <ele>1391.2</ele>
        <time>2021-09-18T11:55:33Z</time>
      </trkpt>
      <trkpt lat="43.89578" lon="6.66055">
        <ele>1391.2</ele>
        <time>2021-09-18T11:55:35Z</time>
      </trkpt>
      <trkpt lat="43.8958" lon="6.66057">
        <ele>1391.2</ele>
        <time>2021-09-18T11:55:36Z</time>
      </trkpt>
      <trkpt lat="43.89581" lon="6.66058">
        <ele>1391.1</ele>
        <time>2021-09-18T11:55:37Z</time>
      </trkpt>
      <trkpt lat="43.89583" lon="6.66062">
        <ele>1390.9</ele>
        <time>2021-09-18T11:55:39Z</time>
      </trkpt>
      <trkpt lat="43.89583" lon="6.66063">
        <ele>1390.9</ele>
        <time>2021-09-18T11:55:40Z</time>
      </trkpt>
      <trkpt lat="43.89585" lon="6.66067">
        <ele>1390.5</ele>
        <time>2021-09-18T11:55:42Z</time>
      </trkpt>
      <trkpt lat="43.89586" lon="6.6607">
        <ele>1390.1</ele>
        <time>2021-09-18T11:55:43Z</time>
      </trkpt>
      <trkpt lat="43.89587" lon="6.66074">
        <ele>1389.6</ele>
        <time>2021-09-18T11:55:45Z</time>
      </trkpt>
      <trkpt lat="43.89588" lon="6.66078">
        <ele>1389.1</ele>
        <time>2021-09-18T11:55:46Z</time>
      </trkpt>
      <trkpt lat="43.89589" lon="6.66082">
        <ele>1388.5</ele>
        <time>2021-09-18T11:55:48Z</time>
      </trkpt>
      <trkpt lat="43.89589" lon="6.66086">
        <ele>1387.9</ele>
        <time>2021-09-18T11:55:49Z</time>
      </trkpt>
      <trkpt lat="43.8959" lon="6.6609">
        <ele>1387.2</ele>
        <time>2021-09-18T11:55:51Z</time>
      </trkpt>
      <trkpt lat="43.89591" lon="6.66094">
        <ele>1386.5</ele>
        <time>2021-09-18T11:55:52Z</time>
      </trkpt>
      <trkpt lat="43.89592" lon="6.66097">
        <ele>1385.8</ele>
        <time>2021-09-18T11:55:54Z</time>
      </trkpt>
      <trkpt lat="43.89593" lon="6.66101">
        <ele>1385.1</ele>
        <time>2021-09-18T11:55:55Z</time>
      </trkpt>
      <trkpt lat="43.89593" lon="6.66105">
        <ele>1384.4</ele>
        <time>2021-09-18T11:55:57Z</time>
      </trkpt>
      <trkpt lat="43.89594" lon="6.66109">
        <ele>1383.7</ele>
        <time>2021-09-18T11:56:17Z</time>
      </trkpt>
      <trkpt lat="43.89595" lon="6.66113">
        <ele>1383</ele>
        <time>2021-09-18T11:56:18Z</time>
      </trkpt>
      <trkpt lat="43.89597" lon="6.66127">
        <ele>1380.8</ele>
        <time>2021-09-18T11:56:20Z</time>
      </trkpt>
      <trkpt lat="43.89597" lon="6.66137">
        <ele>1379.2</ele>
        <time>2021-09-18T11:56:21Z</time>
      </trkpt>
      <trkpt lat="43.89597" lon="6.66146">
        <ele>1377.8</ele>
        <time>2021-09-18T11:56:23Z</time>
      </trkpt>
      <trkpt lat="43.89597" lon="6.66154">
        <ele>1375.9</ele>
        <time>2021-09-18T11:56:24Z</time>
      </trkpt>
      <trkpt lat="43.89598" lon="6.66158">
        <ele>1375.3</ele>
        <time>2021-09-18T11:56:25Z</time>
      </trkpt>
      <trkpt lat="43.89599" lon="6.66162">
        <ele>1374.7</ele>
        <time>2021-09-18T11:56:27Z</time>
      </trkpt>
      <trkpt lat="43.89601" lon="6.66164">
        <ele>1374.4</ele>
        <time>2021-09-18T11:56:28Z</time>
      </trkpt>
      <trkpt lat="43.89602" lon="6.66165">
        <ele>1374.2</ele>
        <time>2021-09-18T11:56:29Z</time>
      </trkpt>
      <trkpt lat="43.89602" lon="6.66165">
        <ele>1374.2</ele>
        <time>2021-09-18T11:56:31Z</time>
      </trkpt>
      <trkpt lat="43.89601" lon="6.66162">
        <ele>1373.9</ele>
        <time>2021-09-18T11:56:33Z</time>
      </trkpt>
      <trkpt lat="43.896" lon="6.6616">
        <ele>1373.6</ele>
        <time>2021-09-18T11:56:34Z</time>
      </trkpt>
      <trkpt lat="43.896" lon="6.66155">
        <ele>1373.2</ele>
        <time>2021-09-18T11:56:35Z</time>
      </trkpt>
      <trkpt lat="43.89599" lon="6.66152">
        <ele>1372.9</ele>
        <time>2021-09-18T11:56:37Z</time>
      </trkpt>
      <trkpt lat="43.896" lon="6.66151">
        <ele>1372.8</ele>
        <time>2021-09-18T11:56:39Z</time>
      </trkpt>
      <trkpt lat="43.896" lon="6.66151">
        <ele>1372.8</ele>
        <time>2021-09-18T11:56:41Z</time>
      </trkpt>
      <trkpt lat="43.896" lon="6.66151">
        <ele>1372.8</ele>
        <time>2021-09-18T11:56:43Z</time>
      </trkpt>
      <trkpt lat="43.896" lon="6.66151">
        <ele>1372.8</ele>
        <time>2021-09-18T11:56:45Z</time>
      </trkpt>
      <trkpt lat="43.896" lon="6.66151">
        <ele>1372.8</ele>
        <time>2021-09-18T11:56:47Z</time>
      </trkpt>
      <trkpt lat="43.89608" lon="6.66162">
        <ele>1371.7</ele>
        <time>2021-09-18T11:57:14Z</time>
      </trkpt>
      <trkpt lat="43.89613" lon="6.6617">
        <ele>1370.9</ele>
        <time>2021-09-18T11:57:16Z</time>
      </trkpt>
      <trkpt lat="43.89618" lon="6.66178">
        <ele>1370</ele>
        <time>2021-09-18T11:57:17Z</time>
      </trkpt>
      <trkpt lat="43.89621" lon="6.66185">
        <ele>1369.4</ele>
        <time>2021-09-18T11:57:18Z</time>
      </trkpt>
      <trkpt lat="43.89623" lon="6.66192">
        <ele>1368.8</ele>
        <time>2021-09-18T11:57:19Z</time>
      </trkpt>
      <trkpt lat="43.89626" lon="6.66202">
        <ele>1368</ele>
        <time>2021-09-18T11:57:21Z</time>
      </trkpt>
      <trkpt lat="43.89628" lon="6.66211">
        <ele>1367.3</ele>
        <time>2021-09-18T11:57:23Z</time>
      </trkpt>
      <trkpt lat="43.89628" lon="6.6621">
        <ele>1367.3</ele>
        <time>2021-09-18T11:57:25Z</time>
      </trkpt>
      <trkpt lat="43.89629" lon="6.66208">
        <ele>1367</ele>
        <time>2021-09-18T11:57:27Z</time>
      </trkpt>
      <trkpt lat="43.89631" lon="6.66206">
        <ele>1366.8</ele>
        <time>2021-09-18T11:57:29Z</time>
      </trkpt>
      <trkpt lat="43.89633" lon="6.66204">
        <ele>1366.5</ele>
        <time>2021-09-18T11:57:30Z</time>
      </trkpt>
      <trkpt lat="43.89635" lon="6.66202">
        <ele>1366.3</ele>
        <time>2021-09-18T11:57:31Z</time>
      </trkpt>
      <trkpt lat="43.89636" lon="6.662">
        <ele>1366</ele>
        <time>2021-09-18T11:57:33Z</time>
      </trkpt>
      <trkpt lat="43.89638" lon="6.66198">
        <ele>1365.8</ele>
        <time>2021-09-18T11:57:35Z</time>
      </trkpt>
      <trkpt lat="43.8964" lon="6.66196">
        <ele>1365.5</ele>
        <time>2021-09-18T11:57:36Z</time>
      </trkpt>
      <trkpt lat="43.89642" lon="6.66193">
        <ele>1365.3</ele>
        <time>2021-09-18T11:57:37Z</time>
      </trkpt>
      <trkpt lat="43.89643" lon="6.66191">
        <ele>1365.1</ele>
        <time>2021-09-18T11:57:39Z</time>
      </trkpt>
      <trkpt lat="43.89645" lon="6.66189">
        <ele>1364.8</ele>
        <time>2021-09-18T11:57:41Z</time>
      </trkpt>
      <trkpt lat="43.89647" lon="6.66187">
        <ele>1364.5</ele>
        <time>2021-09-18T12:01:16Z</time>
      </trkpt>
      <trkpt lat="43.89649" lon="6.66185">
        <ele>1364.2</ele>
        <time>2021-09-18T12:01:17Z</time>
      </trkpt>
      <trkpt lat="43.89657" lon="6.66176">
        <ele>1363</ele>
        <time>2021-09-18T12:01:19Z</time>
      </trkpt>
      <trkpt lat="43.89664" lon="6.66168">
        <ele>1361.9</ele>
        <time>2021-09-18T12:01:21Z</time>
      </trkpt>
      <trkpt lat="43.89668" lon="6.66162">
        <ele>1361.3</ele>
        <time>2021-09-18T12:01:22Z</time>
      </trkpt>
      <trkpt lat="43.89668" lon="6.66161">
        <ele>1361.2</ele>
        <time>2021-09-18T12:01:24Z</time>
      </trkpt>
      <trkpt lat="43.89668" lon="6.6616">
        <ele>1361.1</ele>
        <time>2021-09-18T12:01:26Z</time>
      </trkpt>
      <trkpt lat="43.89668" lon="6.66159">
        <ele>1361.1</ele>
        <time>2021-09-18T12:01:28Z</time>
      </trkpt>
      <trkpt lat="43.89668" lon="6.66161">
        <ele>1360.9</ele>
        <time>2021-09-18T12:01:30Z</time>
      </trkpt>
      <trkpt lat="43.89667" lon="6.66163">
        <ele>1360.7</ele>
        <time>2021-09-18T12:01:32Z</time>
      </trkpt>
      <trkpt lat="43.89658" lon="6.6617">
        <ele>1359.5</ele>
        <time>2021-09-18T12:01:36Z</time>
      </trkpt>
      <trkpt lat="43.89649" lon="6.66176">
        <ele>1358.3</ele>
        <time>2021-09-18T12:01:38Z</time>
      </trkpt>
      <trkpt lat="43.89639" lon="6.66181">
        <ele>1357.1</ele>
        <time>2021-09-18T12:01:40Z</time>
      </trkpt>
      <trkpt lat="43.89631" lon="6.66184">
        <ele>1356.1</ele>
        <time>2021-09-18T12:01:42Z</time>
      </trkpt>
      <trkpt lat="43.89629" lon="6.66186">
        <ele>1355.8</ele>
        <time>2021-09-18T12:01:43Z</time>
      </trkpt>
      <trkpt lat="43.89628" lon="6.66187">
        <ele>1355.7</ele>
        <time>2021-09-18T12:01:44Z</time>
      </trkpt>
      <trkpt lat="43.89623" lon="6.66192">
        <ele>1355.1</ele>
        <time>2021-09-18T12:01:46Z</time>
      </trkpt>
      <trkpt lat="43.89619" lon="6.66194">
        <ele>1354.6</ele>
        <time>2021-09-18T12:01:48Z</time>
      </trkpt>
      <trkpt lat="43.89616" lon="6.66196">
        <ele>1354.3</ele>
        <time>2021-09-18T12:01:49Z</time>
      </trkpt>
      <trkpt lat="43.89612" lon="6.66199">
        <ele>1353.8</ele>
        <time>2021-09-18T12:01:51Z</time>
      </trkpt>
      <trkpt lat="43.89601" lon="6.66209">
        <ele>1352.3</ele>
        <time>2021-09-18T12:03:09Z</time>
      </trkpt>
      <trkpt lat="43.89601" lon="6.6621">
        <ele>1352.2</ele>
        <time>2021-09-18T12:03:10Z</time>
      </trkpt>
      <trkpt lat="43.89606" lon="6.66215">
        <ele>1351.5</ele>
        <time>2021-09-18T12:03:12Z</time>
      </trkpt>
      <trkpt lat="43.89603" lon="6.66222">
        <ele>1350.6</ele>
        <time>2021-09-18T12:03:13Z</time>
      </trkpt>
      <trkpt lat="43.89599" lon="6.66226">
        <ele>1349.9</ele>
        <time>2021-09-18T12:03:14Z</time>
      </trkpt>
      <trkpt lat="43.89595" lon="6.6623">
        <ele>1349.3</ele>
        <time>2021-09-18T12:03:16Z</time>
      </trkpt>
      <trkpt lat="43.89595" lon="6.66231">
        <ele>1349.1</ele>
        <time>2021-09-18T12:03:17Z</time>
      </trkpt>
      <trkpt lat="43.89594" lon="6.66234">
        <ele>1348.9</ele>
        <time>2021-09-18T12:03:19Z</time>
      </trkpt>
      <trkpt lat="43.89591" lon="6.66239">
        <ele>1348.1</ele>
        <time>2021-09-18T12:03:21Z</time>
      </trkpt>
      <trkpt lat="43.89588" lon="6.66243">
        <ele>1347.6</ele>
        <time>2021-09-18T12:03:23Z</time>
      </trkpt>
      <trkpt lat="43.89585" lon="6.66245">
        <ele>1347.2</ele>
        <time>2021-09-18T12:03:25Z</time>
      </trkpt>
      <trkpt lat="43.89585" lon="6.66245">
        <ele>1347.2</ele>
        <time>2021-09-18T12:03:26Z</time>
      </trkpt>
      <trkpt lat="43.8958" lon="6.66249">
        <ele>1346.4</ele>
        <time>2021-09-18T12:03:28Z</time>
      </trkpt>
      <trkpt lat="43.89577" lon="6.66252">
        <ele>1346</ele>
        <time>2021-09-18T12:03:30Z</time>
      </trkpt>
      <trkpt lat="43.89576" lon="6.66253">
        <ele>1345.9</ele>
        <time>2021-09-18T12:03:31Z</time>
      </trkpt>
      <trkpt lat="43.89578" lon="6.66251">
        <ele>1345.7</ele>
        <time>2021-09-18T12:03:32Z</time>
      </trkpt>
      <trkpt lat="43.89581" lon="6.66248">
        <ele>1345.2</ele>
        <time>2021-09-18T12:03:34Z</time>
      </trkpt>
      <trkpt lat="43.89582" lon="6.66247">
        <ele>1345</ele>
        <time>2021-09-18T12:03:35Z</time>
      </trkpt>
      <trkpt lat="43.89587" lon="6.66244">
        <ele>1344.4</ele>
        <time>2021-09-18T12:03:37Z</time>
      </trkpt>
      <trkpt lat="43.89592" lon="6.6624">
        <ele>1343.8</ele>
        <time>2021-09-18T12:03:38Z</time>
      </trkpt>
      <trkpt lat="43.89603" lon="6.66237">
        <ele>1342.7</ele>
        <time>2021-09-18T12:03:40Z</time>
      </trkpt>
      <trkpt lat="43.89607" lon="6.66238">
        <ele>1342.3</ele>
        <time>2021-09-18T12:03:41Z</time>
      </trkpt>
      <trkpt lat="43.89613" lon="6.66241">
        <ele>1341.6</ele>
        <time>2021-09-18T12:03:43Z</time>
      </trkpt>
      <trkpt lat="43.89616" lon="6.66244">
        <ele>1341.2</ele>
        <time>2021-09-18T12:03:44Z</time>
      </trkpt>
      <trkpt lat="43.8962" lon="6.66247">
        <ele>1340.7</ele>
        <time>2021-09-18T12:03:46Z</time>
      </trkpt>
      <trkpt lat="43.89623" lon="6.66249">
        <ele>1340.3</ele>
        <time>2021-09-18T12:03:48Z</time>
      </trkpt>
      <trkpt lat="43.89627" lon="6.66252">
        <ele>1339.8</ele>
        <time>2021-09-18T12:03:49Z</time>
      </trkpt>
      <trkpt lat="43.89631" lon="6.66255">
        <ele>1339.4</ele>
        <time>2021-09-18T12:03:51Z</time>
      </trkpt>
      <trkpt lat="43.89634" lon="6.66257">
        <ele>1338.9</ele>
        <time>2021-09-18T12:10:00Z</time>
      </trkpt>
      <trkpt lat="43.89638" lon="6.6626">
        <ele>1338.4</ele>
        <time>2021-09-18T12:10:01Z</time>
      </trkpt>
      <trkpt lat="43.89641" lon="6.66279">
        <ele>1336.7</ele>
        <time>2021-09-18T12:10:03Z</time>
      </trkpt>
      <trkpt lat="43.89644" lon="6.66288">
        <ele>1335.9</ele>
        <time>2021-09-18T12:10:04Z</time>
      </trkpt>
      <trkpt lat="43.89646" lon="6.66297">
        <ele>1334.9</ele>
        <time>2021-09-18T12:10:05Z</time>
      </trkpt>
      <trkpt lat="43.89649" lon="6.66306">
        <ele>1333.9</ele>
        <time>2021-09-18T12:10:06Z</time>
      </trkpt>
      <trkpt lat="43.89651" lon="6.66316">
        <ele>1332.8</ele>
        <time>2021-09-18T12:10:07Z</time>
      </trkpt>
      <trkpt lat="43.89655" lon="6.66325">
        <ele>1331.7</ele>
        <time>2021-09-18T12:10:08Z</time>
      </trkpt>
      <trkpt lat="43.89663" lon="6.66343">
        <ele>1329.6</ele>
        <time>2021-09-18T12:10:10Z</time>
      </trkpt>
      <trkpt lat="43.89667" lon="6.66353">
        <ele>1328.5</ele>
        <time>2021-09-18T12:10:11Z</time>
      </trkpt>
      <trkpt lat="43.89672" lon="6.66363">
        <ele>1327.6</ele>
        <time>2021-09-18T12:10:12Z</time>
      </trkpt>
      <trkpt lat="43.89676" lon="6.66372">
        <ele>1326.7</ele>
        <time>2021-09-18T12:10:13Z</time>
      </trkpt>
      <trkpt lat="43.89679" lon="6.66382">
        <ele>1326</ele>
        <time>2021-09-18T12:10:14Z</time>
      </trkpt>
      <trkpt lat="43.89687" lon="6.66399">
        <ele>1324.6</ele>
        <time>2021-09-18T12:10:16Z</time>
      </trkpt>
      <trkpt lat="43.89691" lon="6.66406">
        <ele>1324</ele>
        <time>2021-09-18T12:10:17Z</time>
      </trkpt>
      <trkpt lat="43.89698" lon="6.66421">
        <ele>1322.5</ele>
        <time>2021-09-18T12:10:19Z</time>
      </trkpt>
      <trkpt lat="43.89701" lon="6.66428">
        <ele>1321.8</ele>
        <time>2021-09-18T12:10:20Z</time>
      </trkpt>
      <trkpt lat="43.89707" lon="6.66442">
        <ele>1320.3</ele>
        <time>2021-09-18T12:10:22Z</time>
      </trkpt>
      <trkpt lat="43.8971" lon="6.66449">
        <ele>1319.6</ele>
        <time>2021-09-18T12:10:23Z</time>
      </trkpt>
      <trkpt lat="43.89714" lon="6.66463">
        <ele>1318.2</ele>
        <time>2021-09-18T12:10:25Z</time>
      </trkpt>
      <trkpt lat="43.89718" lon="6.66477">
        <ele>1317</ele>
        <time>2021-09-18T12:10:27Z</time>
      </trkpt>
      <trkpt lat="43.8972" lon="6.66484">
        <ele>1316.4</ele>
        <time>2021-09-18T12:10:28Z</time>
      </trkpt>
      <trkpt lat="43.89723" lon="6.66492">
        <ele>1315.8</ele>
        <time>2021-09-18T12:10:29Z</time>
      </trkpt>
      <trkpt lat="43.89726" lon="6.66499">
        <ele>1315.2</ele>
        <time>2021-09-18T12:10:30Z</time>
      </trkpt>
      <trkpt lat="43.89729" lon="6.66506">
        <ele>1314.6</ele>
        <time>2021-09-18T12:10:31Z</time>
      </trkpt>
      <trkpt lat="43.89733" lon="6.66521">
        <ele>1313.3</ele>
        <time>2021-09-18T12:10:33Z</time>
      </trkpt>
      <trkpt lat="43.89735" lon="6.66528">
        <ele>1312.7</ele>
        <time>2021-09-18T12:10:34Z</time>
      </trkpt>
      <trkpt lat="43.89737" lon="6.66536">
        <ele>1312.1</ele>
        <time>2021-09-18T12:10:35Z</time>
      </trkpt>
      <trkpt lat="43.8974" lon="6.6655">
        <ele>1311</ele>
        <time>2021-09-18T12:10:37Z</time>
      </trkpt>
      <trkpt lat="43.89742" lon="6.66557">
        <ele>1310.4</ele>
        <time>2021-09-18T12:10:38Z</time>
      </trkpt>
      <trkpt lat="43.89744" lon="6.66573">
        <ele>1309.2</ele>
        <time>2021-09-18T12:10:40Z</time>
      </trkpt>
      <trkpt lat="43.89746" lon="6.6658">
        <ele>1308.7</ele>
        <time>2021-09-18T12:10:41Z</time>
      </trkpt>
      <trkpt lat="43.89748" lon="6.66587">
        <ele>1308.2</ele>
        <time>2021-09-18T12:10:42Z</time>
      </trkpt>
      <trkpt lat="43.8975" lon="6.66594">
        <ele>1307.7</ele>
        <time>2021-09-18T12:10:43Z</time>
      </trkpt>
      <trkpt lat="43.89757" lon="6.66609">
        <ele>1306.6</ele>
        <time>2021-09-18T12:10:45Z</time>
      </trkpt>
      <trkpt lat="43.8976" lon="6.66616">
        <ele>1306</ele>
        <time>2021-09-18T12:10:46Z</time>
      </trkpt>
      <trkpt lat="43.89764" lon="6.66633">
        <ele>1304.9</ele>
        <time>2021-09-18T12:10:48Z</time>
      </trkpt>
      <trkpt lat="43.89767" lon="6.66642">
        <ele>1304.3</ele>
        <time>2021-09-18T12:10:49Z</time>
      </trkpt>
      <trkpt lat="43.89775" lon="6.66662">
        <ele>1303.2</ele>
        <time>2021-09-18T12:10:51Z</time>
      </trkpt>
      <trkpt lat="43.89779" lon="6.66672">
        <ele>1302.6</ele>
        <time>2021-09-18T12:10:52Z</time>
      </trkpt>
      <trkpt lat="43.89783" lon="6.66681">
        <ele>1302.1</ele>
        <time>2021-09-18T12:10:53Z</time>
      </trkpt>
      <trkpt lat="43.8979" lon="6.66695">
        <ele>1301.2</ele>
        <time>2021-09-18T12:10:55Z</time>
      </trkpt>
      <trkpt lat="43.89796" lon="6.66706">
        <ele>1300.5</ele>
        <time>2021-09-18T12:10:57Z</time>
      </trkpt>
      <trkpt lat="43.89798" lon="6.66711">
        <ele>1300.2</ele>
        <time>2021-09-18T12:10:58Z</time>
      </trkpt>
      <trkpt lat="43.89799" lon="6.66717">
        <ele>1299.9</ele>
        <time>2021-09-18T12:10:59Z</time>
      </trkpt>
      <trkpt lat="43.898" lon="6.66722">
        <ele>1299.6</ele>
        <time>2021-09-18T12:11:00Z</time>
      </trkpt>
      <trkpt lat="43.89801" lon="6.66724">
        <ele>1299.5</ele>
        <time>2021-09-18T12:11:01Z</time>
      </trkpt>
      <trkpt lat="43.89802" lon="6.66727">
        <ele>1299.3</ele>
        <time>2021-09-18T12:11:02Z</time>
      </trkpt>
      <trkpt lat="43.89804" lon="6.6673">
        <ele>1299.1</ele>
        <time>2021-09-18T12:11:04Z</time>
      </trkpt>
      <trkpt lat="43.89804" lon="6.66729">
        <ele>1299.1</ele>
        <time>2021-09-18T12:11:06Z</time>
      </trkpt>
      <trkpt lat="43.89804" lon="6.66729">
        <ele>1299.1</ele>
        <time>2021-09-18T12:11:07Z</time>
      </trkpt>
      <trkpt lat="43.89804" lon="6.66729">
        <ele>1299</ele>
        <time>2021-09-18T12:11:09Z</time>
      </trkpt>
      <trkpt lat="43.89804" lon="6.66729">
        <ele>1299</ele>
        <time>2021-09-18T12:11:10Z</time>
      </trkpt>
      <trkpt lat="43.89804" lon="6.66729">
        <ele>1299</ele>
        <time>2021-09-18T12:11:12Z</time>
      </trkpt>
      <trkpt lat="43.89811" lon="6.66748">
        <ele>1297.8</ele>
        <time>2021-09-18T12:11:37Z</time>
      </trkpt>
      <trkpt lat="43.89815" lon="6.66761">
        <ele>1296.8</ele>
        <time>2021-09-18T12:11:39Z</time>
      </trkpt>
      <trkpt lat="43.89818" lon="6.6677">
        <ele>1296.1</ele>
        <time>2021-09-18T12:11:40Z</time>
      </trkpt>
      <trkpt lat="43.89823" lon="6.66788">
        <ele>1294.6</ele>
        <time>2021-09-18T12:11:42Z</time>
      </trkpt>
      <trkpt lat="43.89828" lon="6.66804">
        <ele>1293.2</ele>
        <time>2021-09-18T12:11:44Z</time>
      </trkpt>
      <trkpt lat="43.8983" lon="6.66811">
        <ele>1292.5</ele>
        <time>2021-09-18T12:11:45Z</time>
      </trkpt>
      <trkpt lat="43.89831" lon="6.66818">
        <ele>1291.8</ele>
        <time>2021-09-18T12:11:46Z</time>
      </trkpt>
      <trkpt lat="43.89832" lon="6.66825">
        <ele>1291.1</ele>
        <time>2021-09-18T12:11:47Z</time>
      </trkpt>
      <trkpt lat="43.89835" lon="6.66837">
        <ele>1289.8</ele>
        <time>2021-09-18T12:11:49Z</time>
      </trkpt>
      <trkpt lat="43.89836" lon="6.66849">
        <ele>1288.6</ele>
        <time>2021-09-18T12:11:51Z</time>
      </trkpt>
      <trkpt lat="43.89837" lon="6.66853">
        <ele>1288.2</ele>
        <time>2021-09-18T12:11:52Z</time>
      </trkpt>
      <trkpt lat="43.89838" lon="6.66859">
        <ele>1287.6</ele>
        <time>2021-09-18T12:11:53Z</time>
      </trkpt>
      <trkpt lat="43.89841" lon="6.66871">
        <ele>1286.6</ele>
        <time>2021-09-18T12:11:55Z</time>
      </trkpt>
      <trkpt lat="43.89843" lon="6.66878">
        <ele>1286</ele>
        <time>2021-09-18T12:11:56Z</time>
      </trkpt>
      <trkpt lat="43.89847" lon="6.66894">
        <ele>1284.9</ele>
        <time>2021-09-18T12:11:58Z</time>
      </trkpt>
      <trkpt lat="43.89848" lon="6.66903">
        <ele>1284.3</ele>
        <time>2021-09-18T12:11:59Z</time>
      </trkpt>
      <trkpt lat="43.89851" lon="6.66921">
        <ele>1282.9</ele>
        <time>2021-09-18T12:12:01Z</time>
      </trkpt>
      <trkpt lat="43.89854" lon="6.66938">
        <ele>1281.5</ele>
        <time>2021-09-18T12:12:03Z</time>
      </trkpt>
      <trkpt lat="43.89856" lon="6.66946">
        <ele>1280.8</ele>
        <time>2021-09-18T12:12:04Z</time>
      </trkpt>
      <trkpt lat="43.89857" lon="6.66955">
        <ele>1280</ele>
        <time>2021-09-18T12:12:05Z</time>
      </trkpt>
      <trkpt lat="43.89857" lon="6.6697">
        <ele>1278.6</ele>
        <time>2021-09-18T12:12:07Z</time>
      </trkpt>
      <trkpt lat="43.89858" lon="6.66984">
        <ele>1277.2</ele>
        <time>2021-09-18T12:12:09Z</time>
      </trkpt>
      <trkpt lat="43.89861" lon="6.66999">
        <ele>1275.8</ele>
        <time>2021-09-18T12:12:11Z</time>
      </trkpt>
      <trkpt lat="43.89863" lon="6.67011">
        <ele>1274.5</ele>
        <time>2021-09-18T12:12:13Z</time>
      </trkpt>
      <trkpt lat="43.89865" lon="6.67017">
        <ele>1273.9</ele>
        <time>2021-09-18T12:12:14Z</time>
      </trkpt>
      <trkpt lat="43.89868" lon="6.67029">
        <ele>1272.6</ele>
        <time>2021-09-18T12:12:16Z</time>
      </trkpt>
      <trkpt lat="43.89871" lon="6.67041">
        <ele>1271.2</ele>
        <time>2021-09-18T12:12:18Z</time>
      </trkpt>
      <trkpt lat="43.89872" lon="6.67044">
        <ele>1270.8</ele>
        <time>2021-09-18T12:12:19Z</time>
      </trkpt>
      <trkpt lat="43.89877" lon="6.67053">
        <ele>1269.5</ele>
        <time>2021-09-18T12:12:21Z</time>
      </trkpt>
      <trkpt lat="43.8988" lon="6.67058">
        <ele>1268.8</ele>
        <time>2021-09-18T12:12:22Z</time>
      </trkpt>
      <trkpt lat="43.89885" lon="6.67064">
        <ele>1267.9</ele>
        <time>2021-09-18T12:12:23Z</time>
      </trkpt>
      <trkpt lat="43.89898" lon="6.67076">
        <ele>1265.9</ele>
        <time>2021-09-18T12:12:25Z</time>
      </trkpt>
      <trkpt lat="43.89913" lon="6.67085">
        <ele>1264.5</ele>
        <time>2021-09-18T12:12:27Z</time>
      </trkpt>
      <trkpt lat="43.8992" lon="6.67089">
        <ele>1264</ele>
        <time>2021-09-18T12:12:28Z</time>
      </trkpt>
      <trkpt lat="43.89925" lon="6.67092">
        <ele>1263.7</ele>
        <time>2021-09-18T12:12:29Z</time>
      </trkpt>
      <trkpt lat="43.89935" lon="6.67099">
        <ele>1262.2</ele>
        <time>2021-09-18T12:12:31Z</time>
      </trkpt>
      <trkpt lat="43.89944" lon="6.67104">
        <ele>1260</ele>
        <time>2021-09-18T12:12:33Z</time>
      </trkpt>
      <trkpt lat="43.89954" lon="6.67105">
        <ele>1257.7</ele>
        <time>2021-09-18T12:12:35Z</time>
      </trkpt>
      <trkpt lat="43.89957" lon="6.67105">
        <ele>1257</ele>
        <time>2021-09-18T12:12:36Z</time>
      </trkpt>
      <trkpt lat="43.89961" lon="6.67105">
        <ele>1256.2</ele>
        <time>2021-09-18T12:12:37Z</time>
      </trkpt>
      <trkpt lat="43.89966" lon="6.67107">
        <ele>1254.9</ele>
        <time>2021-09-18T12:12:39Z</time>
      </trkpt>
      <trkpt lat="43.89968" lon="6.6711">
        <ele>1254.2</ele>
        <time>2021-09-18T12:12:40Z</time>
      </trkpt>
      <trkpt lat="43.89973" lon="6.67111">
        <ele>1253</ele>
        <time>2021-09-18T12:12:42Z</time>
      </trkpt>
      <trkpt lat="43.89975" lon="6.67112">
        <ele>1252.9</ele>
        <time>2021-09-18T12:12:43Z</time>
      </trkpt>
      <trkpt lat="43.89977" lon="6.67112">
        <ele>1252.9</ele>
        <time>2021-09-18T12:12:44Z</time>
      </trkpt>
      <trkpt lat="43.8998" lon="6.67114">
        <ele>1252.9</ele>
        <time>2021-09-18T12:12:45Z</time>
      </trkpt>
      <trkpt lat="43.89989" lon="6.67119">
        <ele>1252.8</ele>
        <time>2021-09-18T12:12:47Z</time>
      </trkpt>
      <trkpt lat="43.9" lon="6.67121">
        <ele>1252.6</ele>
        <time>2021-09-18T12:12:49Z</time>
      </trkpt>
      <trkpt lat="43.90005" lon="6.67123">
        <ele>1252.6</ele>
        <time>2021-09-18T12:12:50Z</time>
      </trkpt>
      <trkpt lat="43.90011" lon="6.67124">
        <ele>1252.6</ele>
        <time>2021-09-18T12:12:51Z</time>
      </trkpt>
      <trkpt lat="43.90022" lon="6.67125">
        <ele>1252.7</ele>
        <time>2021-09-18T12:12:53Z</time>
      </trkpt>
      <trkpt lat="43.90027" lon="6.67124">
        <ele>1252.8</ele>
        <time>2021-09-18T12:12:54Z</time>
      </trkpt>
      <trkpt lat="43.90036" lon="6.67122">
        <ele>1252.7</ele>
        <time>2021-09-18T12:12:56Z</time>
      </trkpt>
      <trkpt lat="43.9004" lon="6.67115">
        <ele>1252.6</ele>
        <time>2021-09-18T12:12:58Z</time>
      </trkpt>
      <trkpt lat="43.90049" lon="6.67107">
        <ele>1252.3</ele>
        <time>2021-09-18T12:13:00Z</time>
      </trkpt>
      <trkpt lat="43.90053" lon="6.67104">
        <ele>1252.1</ele>
        <time>2021-09-18T12:13:01Z</time>
      </trkpt>
      <trkpt lat="43.90062" lon="6.671">
        <ele>1251.8</ele>
        <time>2021-09-18T12:13:03Z</time>
      </trkpt>
      <trkpt lat="43.90067" lon="6.67095">
        <ele>1251.5</ele>
        <time>2021-09-18T12:13:04Z</time>
      </trkpt>
      <trkpt lat="43.90074" lon="6.67092">
        <ele>1251.1</ele>
        <time>2021-09-18T12:13:05Z</time>
      </trkpt>
      <trkpt lat="43.90085" lon="6.67089">
        <ele>1250.5</ele>
        <time>2021-09-18T12:13:07Z</time>
      </trkpt>
      <trkpt lat="43.9009" lon="6.67091">
        <ele>1250.3</ele>
        <time>2021-09-18T12:13:08Z</time>
      </trkpt>
      <trkpt lat="43.90097" lon="6.67098">
        <ele>1250.1</ele>
        <time>2021-09-18T12:13:10Z</time>
      </trkpt>
      <trkpt lat="43.90101" lon="6.67101">
        <ele>1250</ele>
        <time>2021-09-18T12:13:11Z</time>
      </trkpt>
      <trkpt lat="43.90107" lon="6.67102">
        <ele>1249.9</ele>
        <time>2021-09-18T12:13:13Z</time>
      </trkpt>
      <trkpt lat="43.90113" lon="6.67098">
        <ele>1249.9</ele>
        <time>2021-09-18T12:13:15Z</time>
      </trkpt>
      <trkpt lat="43.90112" lon="6.67093">
        <ele>1250</ele>
        <time>2021-09-18T12:13:17Z</time>
      </trkpt>
      <trkpt lat="43.9011" lon="6.67092">
        <ele>1250</ele>
        <time>2021-09-18T12:13:18Z</time>
      </trkpt>
      <trkpt lat="43.90109" lon="6.67091">
        <ele>1250.1</ele>
        <time>2021-09-18T12:13:19Z</time>
      </trkpt>
      <trkpt lat="43.90107" lon="6.67089">
        <ele>1250.1</ele>
        <time>2021-09-18T12:13:20Z</time>
      </trkpt>
      <trkpt lat="43.90105" lon="6.67085">
        <ele>1250.2</ele>
        <time>2021-09-18T12:13:22Z</time>
      </trkpt>
      <trkpt lat="43.90104" lon="6.67084">
        <ele>1250.2</ele>
        <time>2021-09-18T12:13:23Z</time>
      </trkpt>
      <trkpt lat="43.90103" lon="6.6708">
        <ele>1250.2</ele>
        <time>2021-09-18T12:13:25Z</time>
      </trkpt>
      <trkpt lat="43.90096" lon="6.67098">
        <ele>1250.7</ele>
        <time>2021-09-18T12:14:13Z</time>
      </trkpt>
      <trkpt lat="43.90093" lon="6.67097">
        <ele>1250.8</ele>
        <time>2021-09-18T12:14:14Z</time>
      </trkpt>
      <trkpt lat="43.9009" lon="6.67096">
        <ele>1251</ele>
        <time>2021-09-18T12:14:15Z</time>
      </trkpt>
      <trkpt lat="43.90087" lon="6.67095">
        <ele>1251.1</ele>
        <time>2021-09-18T12:14:16Z</time>
      </trkpt>
      <trkpt lat="43.90084" lon="6.67094">
        <ele>1251.3</ele>
        <time>2021-09-18T12:14:17Z</time>
      </trkpt>
      <trkpt lat="43.90077" lon="6.67094">
        <ele>1251.6</ele>
        <time>2021-09-18T12:14:19Z</time>
      </trkpt>
      <trkpt lat="43.9007" lon="6.67093">
        <ele>1251.9</ele>
        <time>2021-09-18T12:14:21Z</time>
      </trkpt>
      <trkpt lat="43.90066" lon="6.67094">
        <ele>1252</ele>
        <time>2021-09-18T12:14:22Z</time>
      </trkpt>
      <trkpt lat="43.90061" lon="6.67096">
        <ele>1252.2</ele>
        <time>2021-09-18T12:14:23Z</time>
      </trkpt>
      <trkpt lat="43.90056" lon="6.67099">
        <ele>1252.3</ele>
        <time>2021-09-18T12:14:25Z</time>
      </trkpt>
      <trkpt lat="43.90053" lon="6.67102">
        <ele>1252.4</ele>
        <time>2021-09-18T12:14:26Z</time>
      </trkpt>
      <trkpt lat="43.90052" lon="6.67101">
        <ele>1252.4</ele>
        <time>2021-09-18T12:14:27Z</time>
      </trkpt>
      <trkpt lat="43.90048" lon="6.671">
        <ele>1252.5</ele>
        <time>2021-09-18T12:14:29Z</time>
      </trkpt>
      <trkpt lat="43.90044" lon="6.67102">
        <ele>1252.6</ele>
        <time>2021-09-18T12:14:30Z</time>
      </trkpt>
      <trkpt lat="43.90042" lon="6.67103">
        <ele>1252.7</ele>
        <time>2021-09-18T12:14:31Z</time>
      </trkpt>
      <trkpt lat="43.90038" lon="6.67106">
        <ele>1252.7</ele>
        <time>2021-09-18T12:14:33Z</time>
      </trkpt>
      <trkpt lat="43.90035" lon="6.67108">
        <ele>1252.7</ele>
        <time>2021-09-18T12:14:34Z</time>
      </trkpt>
      <trkpt lat="43.90033" lon="6.67111">
        <ele>1252.8</ele>
        <time>2021-09-18T12:14:35Z</time>
      </trkpt>
      <trkpt lat="43.90028" lon="6.67117">
        <ele>1252.7</ele>
        <time>2021-09-18T12:14:37Z</time>
      </trkpt>
      <trkpt lat="43.90025" lon="6.67119">
        <ele>1252.7</ele>
        <time>2021-09-18T12:14:38Z</time>
      </trkpt>
      <trkpt lat="43.90019" lon="6.67119">
        <ele>1252.7</ele>
        <time>2021-09-18T12:14:40Z</time>
      </trkpt>
      <trkpt lat="43.90015" lon="6.67121">
        <ele>1252.6</ele>
        <time>2021-09-18T12:14:42Z</time>
      </trkpt>
      <trkpt lat="43.90012" lon="6.67123">
        <ele>1252.6</ele>
        <time>2021-09-18T12:14:43Z</time>
      </trkpt>
      <trkpt lat="43.90005" lon="6.67121">
        <ele>1252.6</ele>
        <time>2021-09-18T12:14:45Z</time>
      </trkpt>
      <trkpt lat="43.89999" lon="6.67119">
        <ele>1252.7</ele>
        <time>2021-09-18T12:14:47Z</time>
      </trkpt>
      <trkpt lat="43.89996" lon="6.67117">
        <ele>1252.7</ele>
        <time>2021-09-18T12:14:48Z</time>
      </trkpt>
      <trkpt lat="43.89993" lon="6.67116">
        <ele>1252.7</ele>
        <time>2021-09-18T12:14:49Z</time>
      </trkpt>
      <trkpt lat="43.89991" lon="6.67113">
        <ele>1252.8</ele>
        <time>2021-09-18T12:14:50Z</time>
      </trkpt>
      <trkpt lat="43.89986" lon="6.67111">
        <ele>1252.8</ele>
        <time>2021-09-18T12:14:52Z</time>
      </trkpt>
      <trkpt lat="43.89983" lon="6.67112">
        <ele>1252.8</ele>
        <time>2021-09-18T12:14:53Z</time>
      </trkpt>
      <trkpt lat="43.8998" lon="6.67113">
        <ele>1252.9</ele>
        <time>2021-09-18T12:14:54Z</time>
      </trkpt>
      <trkpt lat="43.89975" lon="6.67115">
        <ele>1252.9</ele>
        <time>2021-09-18T12:14:56Z</time>
      </trkpt>
      <trkpt lat="43.89975" lon="6.67114">
        <ele>1252.9</ele>
        <time>2021-09-18T12:14:58Z</time>
      </trkpt>
      <trkpt lat="43.89974" lon="6.67114">
        <ele>1252.9</ele>
        <time>2021-09-18T12:14:59Z</time>
      </trkpt>
      <trkpt lat="43.89973" lon="6.67113">
        <ele>1253</ele>
        <time>2021-09-18T12:15:01Z</time>
      </trkpt>
      <trkpt lat="43.89972" lon="6.67113">
        <ele>1253.1</ele>
        <time>2021-09-18T12:15:02Z</time>
      </trkpt>
      <trkpt lat="43.89971" lon="6.67112">
        <ele>1253.4</ele>
        <time>2021-09-18T12:15:04Z</time>
      </trkpt>
      <trkpt lat="43.8997" lon="6.67112">
        <ele>1253.6</ele>
        <time>2021-09-18T12:15:06Z</time>
      </trkpt>
      <trkpt lat="43.89969" lon="6.67111">
        <ele>1253.8</ele>
        <time>2021-09-18T12:15:07Z</time>
      </trkpt>
      <trkpt lat="43.89968" lon="6.67111">
        <ele>1254</ele>
        <time>2021-09-18T12:15:08Z</time>
      </trkpt>
      <trkpt lat="43.89967" lon="6.6711">
        <ele>1254.3</ele>
        <time>2021-09-18T12:15:09Z</time>
      </trkpt>
      <trkpt lat="43.89966" lon="6.6711">
        <ele>1254.5</ele>
        <time>2021-09-18T12:15:13Z</time>
      </trkpt>
      <trkpt lat="43.89965" lon="6.67109">
        <ele>1254.7</ele>
        <time>2021-09-18T12:15:15Z</time>
      </trkpt>
      <trkpt lat="43.89964" lon="6.67109">
        <ele>1254.9</ele>
        <time>2021-09-18T12:15:16Z</time>
      </trkpt>
      <trkpt lat="43.89962" lon="6.67107">
        <ele>1255.4</ele>
        <time>2021-09-18T12:15:17Z</time>
      </trkpt>
      <trkpt lat="43.8996" lon="6.67105">
        <ele>1256.1</ele>
        <time>2021-09-18T12:15:19Z</time>
      </trkpt>
      <trkpt lat="43.89958" lon="6.67103">
        <ele>1256.5</ele>
        <time>2021-09-18T12:15:20Z</time>
      </trkpt>
      <trkpt lat="43.89956" lon="6.67102">
        <ele>1257</ele>
        <time>2021-09-18T12:15:22Z</time>
      </trkpt>
      <trkpt lat="43.89956" lon="6.67102">
        <ele>1257.1</ele>
        <time>2021-09-18T12:15:23Z</time>
      </trkpt>
      <trkpt lat="43.89955" lon="6.671">
        <ele>1257.4</ele>
        <time>2021-09-18T12:15:25Z</time>
      </trkpt>
      <trkpt lat="43.89954" lon="6.67099">
        <ele>1257.7</ele>
        <time>2021-09-18T12:15:26Z</time>
      </trkpt>
      <trkpt lat="43.89953" lon="6.67097">
        <ele>1258.1</ele>
        <time>2021-09-18T12:15:27Z</time>
      </trkpt>
      <trkpt lat="43.89953" lon="6.67096">
        <ele>1258.3</ele>
        <time>2021-09-18T12:15:29Z</time>
      </trkpt>
      <trkpt lat="43.89952" lon="6.67096">
        <ele>1258.4</ele>
        <time>2021-09-18T12:15:30Z</time>
      </trkpt>
      <trkpt lat="43.89951" lon="6.67095">
        <ele>1258.7</ele>
        <time>2021-09-18T12:15:33Z</time>
      </trkpt>
      <trkpt lat="43.8995" lon="6.67095">
        <ele>1259</ele>
        <time>2021-09-18T12:15:34Z</time>
      </trkpt>
      <trkpt lat="43.89948" lon="6.67094">
        <ele>1259.3</ele>
        <time>2021-09-18T12:15:36Z</time>
      </trkpt>
      <trkpt lat="43.89943" lon="6.67092">
        <ele>1260.5</ele>
        <time>2021-09-18T12:15:39Z</time>
      </trkpt>
      <trkpt lat="43.89941" lon="6.67091">
        <ele>1260.9</ele>
        <time>2021-09-18T12:15:40Z</time>
      </trkpt>
      <trkpt lat="43.89939" lon="6.67091">
        <ele>1261.3</ele>
        <time>2021-09-18T12:15:41Z</time>
      </trkpt>
      <trkpt lat="43.89936" lon="6.6709">
        <ele>1262.1</ele>
        <time>2021-09-18T12:15:42Z</time>
      </trkpt>
      <trkpt lat="43.89935" lon="6.6709">
        <ele>1262.4</ele>
        <time>2021-09-18T12:15:43Z</time>
      </trkpt>
      <trkpt lat="43.89932" lon="6.67089">
        <ele>1263</ele>
        <time>2021-09-18T12:15:44Z</time>
      </trkpt>
      <trkpt lat="43.89927" lon="6.67088">
        <ele>1263.2</ele>
        <time>2021-09-18T12:15:46Z</time>
      </trkpt>
      <trkpt lat="43.89922" lon="6.67088">
        <ele>1262.8</ele>
        <time>2021-09-18T12:15:47Z</time>
      </trkpt>
      <trkpt lat="43.89915" lon="6.67087">
        <ele>1262.1</ele>
        <time>2021-09-18T12:15:48Z</time>
      </trkpt>
      <trkpt lat="43.89909" lon="6.67086">
        <ele>1261.6</ele>
        <time>2021-09-18T12:15:50Z</time>
      </trkpt>
      <trkpt lat="43.89903" lon="6.67085">
        <ele>1260.9</ele>
        <time>2021-09-18T12:15:51Z</time>
      </trkpt>
      <trkpt lat="43.89898" lon="6.67083">
        <ele>1260.5</ele>
        <time>2021-09-18T12:15:52Z</time>
      </trkpt>
      <trkpt lat="43.89892" lon="6.67081">
        <ele>1259.7</ele>
        <time>2021-09-18T12:15:53Z</time>
      </trkpt>
      <trkpt lat="43.89887" lon="6.6708">
        <ele>1259</ele>
        <time>2021-09-18T12:15:55Z</time>
      </trkpt>
      <trkpt lat="43.89882" lon="6.6708">
        <ele>1258.2</ele>
        <time>2021-09-18T12:15:56Z</time>
      </trkpt>
      <trkpt lat="43.89875" lon="6.67081">
        <ele>1257</ele>
        <time>2021-09-18T12:15:57Z</time>
      </trkpt>
      <trkpt lat="43.89863" lon="6.67079">
        <ele>1255.2</ele>
        <time>2021-09-18T12:15:59Z</time>
      </trkpt>
      <trkpt lat="43.89851" lon="6.67073">
        <ele>1253.8</ele>
        <time>2021-09-18T12:16:01Z</time>
      </trkpt>
      <trkpt lat="43.89842" lon="6.67066">
        <ele>1253</ele>
        <time>2021-09-18T12:16:03Z</time>
      </trkpt>
      <trkpt lat="43.89832" lon="6.67057">
        <ele>1252.4</ele>
        <time>2021-09-18T12:16:05Z</time>
      </trkpt>
      <trkpt lat="43.89827" lon="6.67052">
        <ele>1252.1</ele>
        <time>2021-09-18T12:16:06Z</time>
      </trkpt>
      <trkpt lat="43.89823" lon="6.67046">
        <ele>1252</ele>
        <time>2021-09-18T12:16:07Z</time>
      </trkpt>
      <trkpt lat="43.89818" lon="6.67041">
        <ele>1251.8</ele>
        <time>2021-09-18T12:16:08Z</time>
      </trkpt>
      <trkpt lat="43.89814" lon="6.67037">
        <ele>1251.7</ele>
        <time>2021-09-18T12:16:09Z</time>
      </trkpt>
      <trkpt lat="43.89805" lon="6.67028">
        <ele>1251.5</ele>
        <time>2021-09-18T12:16:11Z</time>
      </trkpt>
      <trkpt lat="43.89801" lon="6.67023">
        <ele>1251.4</ele>
        <time>2021-09-18T12:16:12Z</time>
      </trkpt>
      <trkpt lat="43.89794" lon="6.67013">
        <ele>1251</ele>
        <time>2021-09-18T12:16:14Z</time>
      </trkpt>
      <trkpt lat="43.8979" lon="6.67006">
        <ele>1250.7</ele>
        <time>2021-09-18T12:16:15Z</time>
      </trkpt>
      <trkpt lat="43.89783" lon="6.66996">
        <ele>1250.4</ele>
        <time>2021-09-18T12:16:17Z</time>
      </trkpt>
      <trkpt lat="43.89779" lon="6.66992">
        <ele>1250.3</ele>
        <time>2021-09-18T12:16:18Z</time>
      </trkpt>
      <trkpt lat="43.89772" lon="6.66982">
        <ele>1250.2</ele>
        <time>2021-09-18T12:16:20Z</time>
      </trkpt>
      <trkpt lat="43.89765" lon="6.66972">
        <ele>1250</ele>
        <time>2021-09-18T12:16:22Z</time>
      </trkpt>
      <trkpt lat="43.89761" lon="6.66967">
        <ele>1250</ele>
        <time>2021-09-18T12:16:23Z</time>
      </trkpt>
      <trkpt lat="43.89755" lon="6.66957">
        <ele>1249.9</ele>
        <time>2021-09-18T12:16:25Z</time>
      </trkpt>
      <trkpt lat="43.89748" lon="6.66949">
        <ele>1249.8</ele>
        <time>2021-09-18T12:16:27Z</time>
      </trkpt>
      <trkpt lat="43.89744" lon="6.66945">
        <ele>1249.8</ele>
        <time>2021-09-18T12:16:28Z</time>
      </trkpt>
      <trkpt lat="43.89741" lon="6.66942">
        <ele>1249.8</ele>
        <time>2021-09-18T12:16:29Z</time>
      </trkpt>
      <trkpt lat="43.89733" lon="6.66931">
        <ele>1250</ele>
        <time>2021-09-18T12:16:31Z</time>
      </trkpt>
      <trkpt lat="43.89729" lon="6.66926">
        <ele>1250</ele>
        <time>2021-09-18T12:16:32Z</time>
      </trkpt>
      <trkpt lat="43.8972" lon="6.66917">
        <ele>1250.2</ele>
        <time>2021-09-18T12:16:34Z</time>
      </trkpt>
      <trkpt lat="43.89712" lon="6.6691">
        <ele>1250.2</ele>
        <time>2021-09-18T12:16:36Z</time>
      </trkpt>
      <trkpt lat="43.89704" lon="6.66907">
        <ele>1250.1</ele>
        <time>2021-09-18T12:16:38Z</time>
      </trkpt>
      <trkpt lat="43.89699" lon="6.66905">
        <ele>1250.1</ele>
        <time>2021-09-18T12:16:40Z</time>
      </trkpt>
      <trkpt lat="43.89696" lon="6.66897">
        <ele>1250.1</ele>
        <time>2021-09-18T12:16:41Z</time>
      </trkpt>
      <trkpt lat="43.89692" lon="6.66889">
        <ele>1250.2</ele>
        <time>2021-09-18T12:16:43Z</time>
      </trkpt>
      <trkpt lat="43.8969" lon="6.66884">
        <ele>1250.2</ele>
        <time>2021-09-18T12:16:44Z</time>
      </trkpt>
      <trkpt lat="43.89687" lon="6.66879">
        <ele>1250.3</ele>
        <time>2021-09-18T12:16:45Z</time>
      </trkpt>
      <trkpt lat="43.89684" lon="6.66873">
        <ele>1250.2</ele>
        <time>2021-09-18T12:16:46Z</time>
      </trkpt>
      <trkpt lat="43.89679" lon="6.66864">
        <ele>1250.2</ele>
        <time>2021-09-18T12:16:48Z</time>
      </trkpt>
      <trkpt lat="43.89675" lon="6.66854">
        <ele>1250.1</ele>
        <time>2021-09-18T12:16:50Z</time>
      </trkpt>
      <trkpt lat="43.89671" lon="6.66845">
        <ele>1250</ele>
        <time>2021-09-18T12:16:51Z</time>
      </trkpt>
      <trkpt lat="43.89669" lon="6.66841">
        <ele>1250</ele>
        <time>2021-09-18T12:16:52Z</time>
      </trkpt>
      <trkpt lat="43.89666" lon="6.66835">
        <ele>1249.9</ele>
        <time>2021-09-18T12:16:53Z</time>
      </trkpt>
      <trkpt lat="43.89661" lon="6.66821">
        <ele>1249.7</ele>
        <time>2021-09-18T12:16:55Z</time>
      </trkpt>
      <trkpt lat="43.89657" lon="6.66808">
        <ele>1249.5</ele>
        <time>2021-09-18T12:16:57Z</time>
      </trkpt>
      <trkpt lat="43.89654" lon="6.66802">
        <ele>1249.4</ele>
        <time>2021-09-18T12:16:58Z</time>
      </trkpt>
      <trkpt lat="43.89651" lon="6.66796">
        <ele>1249.2</ele>
        <time>2021-09-18T12:16:59Z</time>
      </trkpt>
      <trkpt lat="43.89645" lon="6.66786">
        <ele>1248.7</ele>
        <time>2021-09-18T12:17:01Z</time>
      </trkpt>
      <trkpt lat="43.8964" lon="6.66779">
        <ele>1248.1</ele>
        <time>2021-09-18T12:17:03Z</time>
      </trkpt>
      <trkpt lat="43.89637" lon="6.66777">
        <ele>1247.6</ele>
        <time>2021-09-18T12:17:04Z</time>
      </trkpt>
      <trkpt lat="43.89631" lon="6.66777">
        <ele>1246.9</ele>
        <time>2021-09-18T12:17:06Z</time>
      </trkpt>
      <trkpt lat="43.89631" lon="6.66784">
        <ele>1246.2</ele>
        <time>2021-09-18T12:17:07Z</time>
      </trkpt>
      <trkpt lat="43.8963" lon="6.66792">
        <ele>1245.5</ele>
        <time>2021-09-18T12:17:08Z</time>
      </trkpt>
      <trkpt lat="43.89629" lon="6.66797">
        <ele>1245.1</ele>
        <time>2021-09-18T12:17:09Z</time>
      </trkpt>
      <trkpt lat="43.89631" lon="6.66815">
        <ele>1243.4</ele>
        <time>2021-09-18T12:17:11Z</time>
      </trkpt>
      <trkpt lat="43.89639" lon="6.66837">
        <ele>1241.6</ele>
        <time>2021-09-18T12:17:13Z</time>
      </trkpt>
      <trkpt lat="43.89645" lon="6.66855">
        <ele>1240.5</ele>
        <time>2021-09-18T12:17:15Z</time>
      </trkpt>
      <trkpt lat="43.89648" lon="6.66863">
        <ele>1240</ele>
        <time>2021-09-18T12:17:16Z</time>
      </trkpt>
      <trkpt lat="43.89651" lon="6.66871">
        <ele>1239.5</ele>
        <time>2021-09-18T12:17:17Z</time>
      </trkpt>
      <trkpt lat="43.89655" lon="6.66878">
        <ele>1239.1</ele>
        <time>2021-09-18T12:17:18Z</time>
      </trkpt>
      <trkpt lat="43.89659" lon="6.66884">
        <ele>1238.7</ele>
        <time>2021-09-18T12:17:19Z</time>
      </trkpt>
      <trkpt lat="43.89663" lon="6.66891">
        <ele>1238.3</ele>
        <time>2021-09-18T12:17:20Z</time>
      </trkpt>
      <trkpt lat="43.89668" lon="6.669">
        <ele>1237.7</ele>
        <time>2021-09-18T12:17:22Z</time>
      </trkpt>
      <trkpt lat="43.89671" lon="6.66904">
        <ele>1237.2</ele>
        <time>2021-09-18T12:17:23Z</time>
      </trkpt>
      <trkpt lat="43.89673" lon="6.66908">
        <ele>1236.8</ele>
        <time>2021-09-18T12:17:24Z</time>
      </trkpt>
      <trkpt lat="43.89675" lon="6.66911">
        <ele>1236.5</ele>
        <time>2021-09-18T12:17:25Z</time>
      </trkpt>
      <trkpt lat="43.89678" lon="6.66914">
        <ele>1235.9</ele>
        <time>2021-09-18T12:17:27Z</time>
      </trkpt>
      <trkpt lat="43.8968" lon="6.66916">
        <ele>1235.6</ele>
        <time>2021-09-18T12:17:28Z</time>
      </trkpt>
      <trkpt lat="43.89681" lon="6.66918">
        <ele>1235.5</ele>
        <time>2021-09-18T12:17:29Z</time>
      </trkpt>
      <trkpt lat="43.89683" lon="6.66923">
        <ele>1235</ele>
        <time>2021-09-18T12:17:31Z</time>
      </trkpt>
      <trkpt lat="43.89687" lon="6.66931">
        <ele>1234.3</ele>
        <time>2021-09-18T12:17:32Z</time>
      </trkpt>
      <trkpt lat="43.89692" lon="6.66939">
        <ele>1233.6</ele>
        <time>2021-09-18T12:17:34Z</time>
      </trkpt>
      <trkpt lat="43.89696" lon="6.66946">
        <ele>1233</ele>
        <time>2021-09-18T12:17:35Z</time>
      </trkpt>
      <trkpt lat="43.89698" lon="6.66954">
        <ele>1232.5</ele>
        <time>2021-09-18T12:17:37Z</time>
      </trkpt>
      <trkpt lat="43.897" lon="6.66957">
        <ele>1232.2</ele>
        <time>2021-09-18T12:17:38Z</time>
      </trkpt>
      <trkpt lat="43.89702" lon="6.66963">
        <ele>1231.7</ele>
        <time>2021-09-18T12:17:39Z</time>
      </trkpt>
      <trkpt lat="43.89705" lon="6.66969">
        <ele>1231.1</ele>
        <time>2021-09-18T12:17:41Z</time>
      </trkpt>
      <trkpt lat="43.89707" lon="6.66974">
        <ele>1230.6</ele>
        <time>2021-09-18T12:17:43Z</time>
      </trkpt>
      <trkpt lat="43.89707" lon="6.66979">
        <ele>1230.1</ele>
        <time>2021-09-18T12:17:44Z</time>
      </trkpt>
      <trkpt lat="43.89707" lon="6.66983">
        <ele>1229.7</ele>
        <time>2021-09-18T12:17:46Z</time>
      </trkpt>
      <trkpt lat="43.89708" lon="6.66988">
        <ele>1229.3</ele>
        <time>2021-09-18T12:17:48Z</time>
      </trkpt>
      <trkpt lat="43.89708" lon="6.66993">
        <ele>1228.9</ele>
        <time>2021-09-18T12:17:50Z</time>
      </trkpt>
      <trkpt lat="43.89709" lon="6.66998">
        <ele>1228.5</ele>
        <time>2021-09-18T12:17:51Z</time>
      </trkpt>
      <trkpt lat="43.89709" lon="6.67003">
        <ele>1228</ele>
        <time>2021-09-18T12:18:01Z</time>
      </trkpt>
      <trkpt lat="43.8971" lon="6.67008">
        <ele>1227.6</ele>
        <time>2021-09-18T12:18:03Z</time>
      </trkpt>
      <trkpt lat="43.89715" lon="6.67031">
        <ele>1225.1</ele>
        <time>2021-09-18T12:18:05Z</time>
      </trkpt>
      <trkpt lat="43.89716" lon="6.67041">
        <ele>1223.9</ele>
        <time>2021-09-18T12:18:06Z</time>
      </trkpt>
      <trkpt lat="43.89718" lon="6.67051">
        <ele>1222.8</ele>
        <time>2021-09-18T12:18:07Z</time>
      </trkpt>
      <trkpt lat="43.89719" lon="6.67066">
        <ele>1221.2</ele>
        <time>2021-09-18T12:18:09Z</time>
      </trkpt>
      <trkpt lat="43.8972" lon="6.67072">
        <ele>1220.5</ele>
        <time>2021-09-18T12:18:10Z</time>
      </trkpt>
      <trkpt lat="43.8972" lon="6.67077">
        <ele>1219.8</ele>
        <time>2021-09-18T12:18:12Z</time>
      </trkpt>
      <trkpt lat="43.89721" lon="6.67082">
        <ele>1219.2</ele>
        <time>2021-09-18T12:18:13Z</time>
      </trkpt>
      <trkpt lat="43.89723" lon="6.67084">
        <ele>1218.9</ele>
        <time>2021-09-18T12:18:14Z</time>
      </trkpt>
      <trkpt lat="43.89724" lon="6.67083">
        <ele>1218.7</ele>
        <time>2021-09-18T12:18:16Z</time>
      </trkpt>
      <trkpt lat="43.89725" lon="6.67081">
        <ele>1218.5</ele>
        <time>2021-09-18T12:18:18Z</time>
      </trkpt>
      <trkpt lat="43.89725" lon="6.67081">
        <ele>1218.5</ele>
        <time>2021-09-18T12:18:19Z</time>
      </trkpt>
      <trkpt lat="43.89725" lon="6.67081">
        <ele>1218.4</ele>
        <time>2021-09-18T12:18:21Z</time>
      </trkpt>
      <trkpt lat="43.89725" lon="6.67081">
        <ele>1218.4</ele>
        <time>2021-09-18T12:18:22Z</time>
      </trkpt>
      <trkpt lat="43.89725" lon="6.67081">
        <ele>1218.4</ele>
        <time>2021-09-18T12:18:24Z</time>
      </trkpt>
      <trkpt lat="43.89701" lon="6.67071">
        <ele>1214.3</ele>
        <time>2021-09-18T12:18:45Z</time>
      </trkpt>
      <trkpt lat="43.89696" lon="6.67071">
        <ele>1213.6</ele>
        <time>2021-09-18T12:18:46Z</time>
      </trkpt>
      <trkpt lat="43.89692" lon="6.67075">
        <ele>1212.9</ele>
        <time>2021-09-18T12:18:47Z</time>
      </trkpt>
      <trkpt lat="43.89688" lon="6.67085">
        <ele>1211.7</ele>
        <time>2021-09-18T12:18:49Z</time>
      </trkpt>
      <trkpt lat="43.89686" lon="6.67092">
        <ele>1211.2</ele>
        <time>2021-09-18T12:18:50Z</time>
      </trkpt>
      <trkpt lat="43.89685" lon="6.67101">
        <ele>1210.4</ele>
        <time>2021-09-18T12:18:52Z</time>
      </trkpt>
      <trkpt lat="43.89685" lon="6.67107">
        <ele>1210</ele>
        <time>2021-09-18T12:18:53Z</time>
      </trkpt>
      <trkpt lat="43.89686" lon="6.67114">
        <ele>1209.6</ele>
        <time>2021-09-18T12:18:54Z</time>
      </trkpt>
      <trkpt lat="43.89687" lon="6.67121">
        <ele>1209.4</ele>
        <time>2021-09-18T12:18:55Z</time>
      </trkpt>
      <trkpt lat="43.8969" lon="6.67133">
        <ele>1209.1</ele>
        <time>2021-09-18T12:18:57Z</time>
      </trkpt>
      <trkpt lat="43.89691" lon="6.67143">
        <ele>1208.9</ele>
        <time>2021-09-18T12:18:58Z</time>
      </trkpt>
      <trkpt lat="43.89691" lon="6.67151">
        <ele>1208.8</ele>
        <time>2021-09-18T12:19:00Z</time>
      </trkpt>
      <trkpt lat="43.89691" lon="6.67157">
        <ele>1208.7</ele>
        <time>2021-09-18T12:19:01Z</time>
      </trkpt>
      <trkpt lat="43.8969" lon="6.67166">
        <ele>1208.6</ele>
        <time>2021-09-18T12:19:03Z</time>
      </trkpt>
      <trkpt lat="43.8969" lon="6.67173">
        <ele>1208.6</ele>
        <time>2021-09-18T12:19:04Z</time>
      </trkpt>
      <trkpt lat="43.89689" lon="6.67182">
        <ele>1208.6</ele>
        <time>2021-09-18T12:19:05Z</time>
      </trkpt>
      <trkpt lat="43.89688" lon="6.67189">
        <ele>1208.8</ele>
        <time>2021-09-18T12:19:07Z</time>
      </trkpt>
      <trkpt lat="43.89689" lon="6.67197">
        <ele>1209.1</ele>
        <time>2021-09-18T12:19:09Z</time>
      </trkpt>
      <trkpt lat="43.8969" lon="6.67201">
        <ele>1209.3</ele>
        <time>2021-09-18T12:19:10Z</time>
      </trkpt>
      <trkpt lat="43.89691" lon="6.67204">
        <ele>1209.6</ele>
        <time>2021-09-18T12:19:11Z</time>
      </trkpt>
      <trkpt lat="43.89693" lon="6.67207">
        <ele>1209.8</ele>
        <time>2021-09-18T12:19:12Z</time>
      </trkpt>
      <trkpt lat="43.89694" lon="6.67207">
        <ele>1209.8</ele>
        <time>2021-09-18T12:19:13Z</time>
      </trkpt>
      <trkpt lat="43.89695" lon="6.67208">
        <ele>1209.9</ele>
        <time>2021-09-18T12:19:15Z</time>
      </trkpt>
      <trkpt lat="43.89696" lon="6.67208">
        <ele>1210</ele>
        <time>2021-09-18T12:19:16Z</time>
      </trkpt>
      <trkpt lat="43.89697" lon="6.67207">
        <ele>1210.1</ele>
        <time>2021-09-18T12:19:17Z</time>
      </trkpt>
      <trkpt lat="43.89697" lon="6.6721">
        <ele>1210.2</ele>
        <time>2021-09-18T12:19:19Z</time>
      </trkpt>
      <trkpt lat="43.89699" lon="6.67211">
        <ele>1210.3</ele>
        <time>2021-09-18T12:19:20Z</time>
      </trkpt>
      <trkpt lat="43.897" lon="6.67211">
        <ele>1210.4</ele>
        <time>2021-09-18T12:19:22Z</time>
      </trkpt>
      <trkpt lat="43.89702" lon="6.67212">
        <ele>1210.5</ele>
        <time>2021-09-18T12:19:23Z</time>
      </trkpt>
      <trkpt lat="43.89703" lon="6.67213">
        <ele>1210.5</ele>
        <time>2021-09-18T12:19:24Z</time>
      </trkpt>
      <trkpt lat="43.89704" lon="6.67214">
        <ele>1210.6</ele>
        <time>2021-09-18T12:19:25Z</time>
      </trkpt>
      <trkpt lat="43.89706" lon="6.67214">
        <ele>1210.7</ele>
        <time>2021-09-18T12:19:27Z</time>
      </trkpt>
      <trkpt lat="43.89707" lon="6.67216">
        <ele>1210.7</ele>
        <time>2021-09-18T12:19:28Z</time>
      </trkpt>
      <trkpt lat="43.8971" lon="6.67218">
        <ele>1210.8</ele>
        <time>2021-09-18T12:19:30Z</time>
      </trkpt>
      <trkpt lat="43.8971" lon="6.67219">
        <ele>1210.9</ele>
        <time>2021-09-18T12:19:31Z</time>
      </trkpt>
      <trkpt lat="43.89712" lon="6.67222">
        <ele>1211</ele>
        <time>2021-09-18T12:19:32Z</time>
      </trkpt>
      <trkpt lat="43.89713" lon="6.67222">
        <ele>1211</ele>
        <time>2021-09-18T12:19:33Z</time>
      </trkpt>
      <trkpt lat="43.89714" lon="6.67222">
        <ele>1211.1</ele>
        <time>2021-09-18T12:19:34Z</time>
      </trkpt>
      <trkpt lat="43.89714" lon="6.67222">
        <ele>1211.1</ele>
        <time>2021-09-18T12:19:36Z</time>
      </trkpt>
      <trkpt lat="43.89716" lon="6.67225">
        <ele>1211.2</ele>
        <time>2021-09-18T12:19:37Z</time>
      </trkpt>
      <trkpt lat="43.89719" lon="6.67227">
        <ele>1211.4</ele>
        <time>2021-09-18T12:19:38Z</time>
      </trkpt>
      <trkpt lat="43.8972" lon="6.67228">
        <ele>1211.6</ele>
        <time>2021-09-18T12:19:39Z</time>
      </trkpt>
      <trkpt lat="43.89722" lon="6.67231">
        <ele>1211.8</ele>
        <time>2021-09-18T12:19:41Z</time>
      </trkpt>
      <trkpt lat="43.89723" lon="6.67235">
        <ele>1212.1</ele>
        <time>2021-09-18T12:19:42Z</time>
      </trkpt>
      <trkpt lat="43.89723" lon="6.67237">
        <ele>1212.2</ele>
        <time>2021-09-18T12:19:43Z</time>
      </trkpt>
      <trkpt lat="43.89725" lon="6.67241">
        <ele>1212.5</ele>
        <time>2021-09-18T12:19:45Z</time>
      </trkpt>
      <trkpt lat="43.89726" lon="6.67242">
        <ele>1212.6</ele>
        <time>2021-09-18T12:19:46Z</time>
      </trkpt>
      <trkpt lat="43.89728" lon="6.67243">
        <ele>1212.9</ele>
        <time>2021-09-18T12:19:47Z</time>
      </trkpt>
      <trkpt lat="43.89732" lon="6.67246">
        <ele>1213.4</ele>
        <time>2021-09-18T12:19:49Z</time>
      </trkpt>
      <trkpt lat="43.89734" lon="6.67248">
        <ele>1213.6</ele>
        <time>2021-09-18T12:19:50Z</time>
      </trkpt>
      <trkpt lat="43.89735" lon="6.67249">
        <ele>1213.7</ele>
        <time>2021-09-18T12:19:51Z</time>
      </trkpt>
      <trkpt lat="43.89737" lon="6.67253">
        <ele>1214</ele>
        <time>2021-09-18T12:19:53Z</time>
      </trkpt>
      <trkpt lat="43.89737" lon="6.67254">
        <ele>1214.1</ele>
        <time>2021-09-18T12:19:54Z</time>
      </trkpt>
      <trkpt lat="43.89738" lon="6.67256">
        <ele>1214.3</ele>
        <time>2021-09-18T12:19:56Z</time>
      </trkpt>
      <trkpt lat="43.89738" lon="6.67258">
        <ele>1214.4</ele>
        <time>2021-09-18T12:19:57Z</time>
      </trkpt>
      <trkpt lat="43.89738" lon="6.67259">
        <ele>1214.5</ele>
        <time>2021-09-18T12:19:58Z</time>
      </trkpt>
      <trkpt lat="43.89738" lon="6.6726">
        <ele>1214.6</ele>
        <time>2021-09-18T12:20:00Z</time>
      </trkpt>
      <trkpt lat="43.89738" lon="6.6726">
        <ele>1214.6</ele>
        <time>2021-09-18T12:20:01Z</time>
      </trkpt>
      <trkpt lat="43.89738" lon="6.6726">
        <ele>1214.6</ele>
        <time>2021-09-18T12:20:02Z</time>
      </trkpt>
      <trkpt lat="43.89739" lon="6.67262">
        <ele>1214.7</ele>
        <time>2021-09-18T12:20:03Z</time>
      </trkpt>
      <trkpt lat="43.89739" lon="6.67262">
        <ele>1214.8</ele>
        <time>2021-09-18T12:20:04Z</time>
      </trkpt>
      <trkpt lat="43.89739" lon="6.67263">
        <ele>1214.8</ele>
        <time>2021-09-18T12:20:06Z</time>
      </trkpt>
      <trkpt lat="43.89547" lon="6.67294">
        <ele>1240.4</ele>
        <time>2021-09-18T12:24:23Z</time>
      </trkpt>
      <trkpt lat="43.89545" lon="6.67294">
        <ele>1240.7</ele>
        <time>2021-09-18T12:24:24Z</time>
      </trkpt>
      <trkpt lat="43.89545" lon="6.67295">
        <ele>1240.8</ele>
        <time>2021-09-18T12:24:26Z</time>
      </trkpt>
      <trkpt lat="43.89544" lon="6.67294">
        <ele>1240.9</ele>
        <time>2021-09-18T12:24:27Z</time>
      </trkpt>
      <trkpt lat="43.89543" lon="6.67294">
        <ele>1241.1</ele>
        <time>2021-09-18T12:24:28Z</time>
      </trkpt>
      <trkpt lat="43.89542" lon="6.67294">
        <ele>1241.1</ele>
        <time>2021-09-18T12:24:30Z</time>
      </trkpt>
      <trkpt lat="43.89542" lon="6.67294">
        <ele>1241.2</ele>
        <time>2021-09-18T12:24:31Z</time>
      </trkpt>
      <trkpt lat="43.89542" lon="6.67294">
        <ele>1241.3</ele>
        <time>2021-09-18T12:24:33Z</time>
      </trkpt>
      <trkpt lat="43.89541" lon="6.67294">
        <ele>1241.4</ele>
        <time>2021-09-18T12:24:34Z</time>
      </trkpt>
      <trkpt lat="43.8954" lon="6.67294">
        <ele>1241.5</ele>
        <time>2021-09-18T12:24:36Z</time>
      </trkpt>
      <trkpt lat="43.89539" lon="6.67293">
        <ele>1241.7</ele>
        <time>2021-09-18T12:24:37Z</time>
      </trkpt>
      <trkpt lat="43.89539" lon="6.67293">
        <ele>1241.8</ele>
        <time>2021-09-18T12:24:38Z</time>
      </trkpt>
      <trkpt lat="43.89538" lon="6.67293">
        <ele>1241.9</ele>
        <time>2021-09-18T12:24:40Z</time>
      </trkpt>
      <trkpt lat="43.89537" lon="6.67293">
        <ele>1242</ele>
        <time>2021-09-18T12:24:41Z</time>
      </trkpt>
      <trkpt lat="43.89537" lon="6.67293">
        <ele>1242.1</ele>
        <time>2021-09-18T12:24:43Z</time>
      </trkpt>
      <trkpt lat="43.89536" lon="6.67293">
        <ele>1242.2</ele>
        <time>2021-09-18T12:24:44Z</time>
      </trkpt>
      <trkpt lat="43.89536" lon="6.67294">
        <ele>1242.2</ele>
        <time>2021-09-18T12:24:46Z</time>
      </trkpt>
      <trkpt lat="43.89536" lon="6.67294">
        <ele>1242.3</ele>
        <time>2021-09-18T12:24:47Z</time>
      </trkpt>
      <trkpt lat="43.89535" lon="6.67294">
        <ele>1242.4</ele>
        <time>2021-09-18T12:24:49Z</time>
      </trkpt>
      <trkpt lat="43.89535" lon="6.67294">
        <ele>1242.5</ele>
        <time>2021-09-18T12:24:50Z</time>
      </trkpt>
      <trkpt lat="43.89534" lon="6.67294">
        <ele>1242.5</ele>
        <time>2021-09-18T12:24:51Z</time>
      </trkpt>
      <trkpt lat="43.89533" lon="6.67295">
        <ele>1242.8</ele>
        <time>2021-09-18T12:24:52Z</time>
      </trkpt>
      <trkpt lat="43.89532" lon="6.67296">
        <ele>1242.9</ele>
        <time>2021-09-18T12:24:54Z</time>
      </trkpt>
      <trkpt lat="43.89531" lon="6.67296">
        <ele>1243.1</ele>
        <time>2021-09-18T12:24:55Z</time>
      </trkpt>
      <trkpt lat="43.8953" lon="6.67297">
        <ele>1243.2</ele>
        <time>2021-09-18T12:24:56Z</time>
      </trkpt>
      <trkpt lat="43.8953" lon="6.67298">
        <ele>1243.3</ele>
        <time>2021-09-18T12:24:57Z</time>
      </trkpt>
      <trkpt lat="43.8953" lon="6.67298">
        <ele>1243.4</ele>
        <time>2021-09-18T12:24:59Z</time>
      </trkpt>
      <trkpt lat="43.89529" lon="6.67299">
        <ele>1243.5</ele>
        <time>2021-09-18T12:25:01Z</time>
      </trkpt>
      <trkpt lat="43.89529" lon="6.67299">
        <ele>1243.5</ele>
        <time>2021-09-18T12:25:02Z</time>
      </trkpt>
      <trkpt lat="43.89529" lon="6.67299">
        <ele>1243.5</ele>
        <time>2021-09-18T12:25:03Z</time>
      </trkpt>
      <trkpt lat="43.89529" lon="6.67299">
        <ele>1243.6</ele>
        <time>2021-09-18T12:25:05Z</time>
      </trkpt>
      <trkpt lat="43.89529" lon="6.67299">
        <ele>1243.6</ele>
        <time>2021-09-18T12:25:06Z</time>
      </trkpt>
      <trkpt lat="43.89529" lon="6.67299">
        <ele>1243.6</ele>
        <time>2021-09-18T12:25:07Z</time>
      </trkpt>
      <trkpt lat="43.89529" lon="6.67299">
        <ele>1243.6</ele>
        <time>2021-09-18T12:25:09Z</time>
      </trkpt>
      <trkpt lat="43.89528" lon="6.673">
        <ele>1243.7</ele>
        <time>2021-09-18T12:25:10Z</time>
      </trkpt>
      <trkpt lat="43.89528" lon="6.67302">
        <ele>1244</ele>
        <time>2021-09-18T12:25:11Z</time>
      </trkpt>
      <trkpt lat="43.89525" lon="6.67307">
        <ele>1244.6</ele>
        <time>2021-09-18T12:25:13Z</time>
      </trkpt>
      <trkpt lat="43.89524" lon="6.67309">
        <ele>1244.9</ele>
        <time>2021-09-18T12:25:14Z</time>
      </trkpt>
      <trkpt lat="43.89523" lon="6.67311">
        <ele>1245.1</ele>
        <time>2021-09-18T12:25:15Z</time>
      </trkpt>
      <trkpt lat="43.89522" lon="6.67312">
        <ele>1245.3</ele>
        <time>2021-09-18T12:25:17Z</time>
      </trkpt>
      <trkpt lat="43.89521" lon="6.67313">
        <ele>1245.6</ele>
        <time>2021-09-18T12:25:18Z</time>
      </trkpt>
      <trkpt lat="43.89521" lon="6.67314">
        <ele>1245.7</ele>
        <time>2021-09-18T12:25:20Z</time>
      </trkpt>
      <trkpt lat="43.8952" lon="6.67314">
        <ele>1245.8</ele>
        <time>2021-09-18T12:25:21Z</time>
      </trkpt>
      <trkpt lat="43.8952" lon="6.67314">
        <ele>1245.8</ele>
        <time>2021-09-18T12:25:23Z</time>
      </trkpt>
      <trkpt lat="43.8952" lon="6.67315">
        <ele>1245.9</ele>
        <time>2021-09-18T12:25:24Z</time>
      </trkpt>
      <trkpt lat="43.8952" lon="6.67315">
        <ele>1245.9</ele>
        <time>2021-09-18T12:25:26Z</time>
      </trkpt>
      <trkpt lat="43.8952" lon="6.67315">
        <ele>1245.9</ele>
        <time>2021-09-18T12:25:27Z</time>
      </trkpt>
      <trkpt lat="43.8952" lon="6.67316">
        <ele>1246</ele>
        <time>2021-09-18T12:25:28Z</time>
      </trkpt>
      <trkpt lat="43.8952" lon="6.67317">
        <ele>1246.1</ele>
        <time>2021-09-18T12:25:30Z</time>
      </trkpt>
      <trkpt lat="43.89522" lon="6.67319">
        <ele>1246.5</ele>
        <time>2021-09-18T12:25:32Z</time>
      </trkpt>
      <trkpt lat="43.89524" lon="6.6732">
        <ele>1246.7</ele>
        <time>2021-09-18T12:25:34Z</time>
      </trkpt>
      <trkpt lat="43.89526" lon="6.67322">
        <ele>1247</ele>
        <time>2021-09-18T12:25:36Z</time>
      </trkpt>
      <trkpt lat="43.89527" lon="6.67322">
        <ele>1247.2</ele>
        <time>2021-09-18T12:25:37Z</time>
      </trkpt>
      <trkpt lat="43.89527" lon="6.67323">
        <ele>1247.3</ele>
        <time>2021-09-18T12:25:39Z</time>
      </trkpt>
      <trkpt lat="43.89528" lon="6.67323">
        <ele>1247.4</ele>
        <time>2021-09-18T12:25:40Z</time>
      </trkpt>
      <trkpt lat="43.89528" lon="6.67323">
        <ele>1247.5</ele>
        <time>2021-09-18T12:25:41Z</time>
      </trkpt>
      <trkpt lat="43.8953" lon="6.67322">
        <ele>1247.6</ele>
        <time>2021-09-18T12:25:43Z</time>
      </trkpt>
      <trkpt lat="43.8953" lon="6.67322">
        <ele>1247.8</ele>
        <time>2021-09-18T12:25:44Z</time>
      </trkpt>
      <trkpt lat="43.89531" lon="6.67322">
        <ele>1247.9</ele>
        <time>2021-09-18T12:25:45Z</time>
      </trkpt>
      <trkpt lat="43.89533" lon="6.67321">
        <ele>1248.1</ele>
        <time>2021-09-18T12:25:47Z</time>
      </trkpt>
      <trkpt lat="43.89534" lon="6.67321">
        <ele>1248.3</ele>
        <time>2021-09-18T12:25:48Z</time>
      </trkpt>
      <trkpt lat="43.89535" lon="6.6732">
        <ele>1248.4</ele>
        <time>2021-09-18T12:25:49Z</time>
      </trkpt>
      <trkpt lat="43.89536" lon="6.6732">
        <ele>1248.5</ele>
        <time>2021-09-18T12:25:51Z</time>
      </trkpt>
      <trkpt lat="43.89536" lon="6.6732">
        <ele>1248.6</ele>
        <time>2021-09-18T12:25:53Z</time>
      </trkpt>
      <trkpt lat="43.89537" lon="6.6732">
        <ele>1248.8</ele>
        <time>2021-09-18T12:25:54Z</time>
      </trkpt>
      <trkpt lat="43.89538" lon="6.67319">
        <ele>1248.9</ele>
        <time>2021-09-18T12:25:55Z</time>
      </trkpt>
      <trkpt lat="43.89539" lon="6.67319">
        <ele>1249</ele>
        <time>2021-09-18T12:25:57Z</time>
      </trkpt>
      <trkpt lat="43.8954" lon="6.67319">
        <ele>1249.1</ele>
        <time>2021-09-18T12:25:58Z</time>
      </trkpt>
      <trkpt lat="43.89541" lon="6.67319">
        <ele>1249.3</ele>
        <time>2021-09-18T12:26:00Z</time>
      </trkpt>
      <trkpt lat="43.89542" lon="6.67318">
        <ele>1249.4</ele>
        <time>2021-09-18T12:26:01Z</time>
      </trkpt>
      <trkpt lat="43.89544" lon="6.67319">
        <ele>1249.7</ele>
        <time>2021-09-18T12:26:02Z</time>
      </trkpt>
      <trkpt lat="43.89545" lon="6.6732">
        <ele>1249.8</ele>
        <time>2021-09-18T12:26:04Z</time>
      </trkpt>
      <trkpt lat="43.89546" lon="6.6732">
        <ele>1249.9</ele>
        <time>2021-09-18T12:26:05Z</time>
      </trkpt>
      <trkpt lat="43.89547" lon="6.67321">
        <ele>1250.1</ele>
        <time>2021-09-18T12:26:06Z</time>
      </trkpt>
      <trkpt lat="43.89547" lon="6.67321">
        <ele>1250.1</ele>
        <time>2021-09-18T12:26:08Z</time>
      </trkpt>
      <trkpt lat="43.89548" lon="6.67322">
        <ele>1250.2</ele>
        <time>2021-09-18T12:26:09Z</time>
      </trkpt>
      <trkpt lat="43.89548" lon="6.67322">
        <ele>1250.3</ele>
        <time>2021-09-18T12:26:10Z</time>
      </trkpt>
      <trkpt lat="43.89548" lon="6.67322">
        <ele>1250.3</ele>
        <time>2021-09-18T12:26:11Z</time>
      </trkpt>
      <trkpt lat="43.89549" lon="6.67323">
        <ele>1250.4</ele>
        <time>2021-09-18T12:26:12Z</time>
      </trkpt>
      <trkpt lat="43.89549" lon="6.67323">
        <ele>1250.4</ele>
        <time>2021-09-18T12:26:14Z</time>
      </trkpt>
      <trkpt lat="43.89549" lon="6.67323">
        <ele>1250.4</ele>
        <time>2021-09-18T12:26:15Z</time>
      </trkpt>
      <trkpt lat="43.89548" lon="6.67325">
        <ele>1250.6</ele>
        <time>2021-09-18T12:26:16Z</time>
      </trkpt>
      <trkpt lat="43.89547" lon="6.67327">
        <ele>1250.8</ele>
        <time>2021-09-18T12:26:18Z</time>
      </trkpt>
      <trkpt lat="43.89546" lon="6.67329">
        <ele>1251</ele>
        <time>2021-09-18T12:26:19Z</time>
      </trkpt>
      <trkpt lat="43.89544" lon="6.67333">
        <ele>1251.4</ele>
        <time>2021-09-18T12:26:22Z</time>
      </trkpt>
      <trkpt lat="43.89543" lon="6.67334">
        <ele>1251.5</ele>
        <time>2021-09-18T12:26:23Z</time>
      </trkpt>
      <trkpt lat="43.89542" lon="6.67336">
        <ele>1251.7</ele>
        <time>2021-09-18T12:26:25Z</time>
      </trkpt>
      <trkpt lat="43.8954" lon="6.67338">
        <ele>1251.9</ele>
        <time>2021-09-18T12:26:26Z</time>
      </trkpt>
      <trkpt lat="43.8954" lon="6.67339">
        <ele>1252.1</ele>
        <time>2021-09-18T12:26:27Z</time>
      </trkpt>
      <trkpt lat="43.89539" lon="6.67342">
        <ele>1252.3</ele>
        <time>2021-09-18T12:26:29Z</time>
      </trkpt>
      <trkpt lat="43.89539" lon="6.67343">
        <ele>1252.4</ele>
        <time>2021-09-18T12:26:30Z</time>
      </trkpt>
      <trkpt lat="43.89538" lon="6.67345">
        <ele>1252.5</ele>
        <time>2021-09-18T12:26:31Z</time>
      </trkpt>
      <trkpt lat="43.89538" lon="6.67346">
        <ele>1252.6</ele>
        <time>2021-09-18T12:26:32Z</time>
      </trkpt>
      <trkpt lat="43.89538" lon="6.67346">
        <ele>1252.6</ele>
        <time>2021-09-18T12:26:34Z</time>
      </trkpt>
      <trkpt lat="43.89538" lon="6.67347">
        <ele>1252.7</ele>
        <time>2021-09-18T12:26:35Z</time>
      </trkpt>
      <trkpt lat="43.89537" lon="6.67348">
        <ele>1252.7</ele>
        <time>2021-09-18T12:26:36Z</time>
      </trkpt>
      <trkpt lat="43.89536" lon="6.6735">
        <ele>1252.9</ele>
        <time>2021-09-18T12:26:38Z</time>
      </trkpt>
      <trkpt lat="43.89534" lon="6.67352">
        <ele>1253.1</ele>
        <time>2021-09-18T12:26:39Z</time>
      </trkpt>
      <trkpt lat="43.89533" lon="6.67353">
        <ele>1253.1</ele>
        <time>2021-09-18T12:26:40Z</time>
      </trkpt>
      <trkpt lat="43.89528" lon="6.67355">
        <ele>1253.4</ele>
        <time>2021-09-18T12:26:41Z</time>
      </trkpt>
      <trkpt lat="43.89524" lon="6.67357">
        <ele>1253.5</ele>
        <time>2021-09-18T12:26:42Z</time>
      </trkpt>
      <trkpt lat="43.8952" lon="6.67359">
        <ele>1253.6</ele>
        <time>2021-09-18T12:26:44Z</time>
      </trkpt>
      <trkpt lat="43.89517" lon="6.67362">
        <ele>1253.6</ele>
        <time>2021-09-18T12:26:45Z</time>
      </trkpt>
      <trkpt lat="43.89513" lon="6.67364">
        <ele>1253.6</ele>
        <time>2021-09-18T12:26:46Z</time>
      </trkpt>
      <trkpt lat="43.89509" lon="6.67366">
        <ele>1253.6</ele>
        <time>2021-09-18T12:26:47Z</time>
      </trkpt>
      <trkpt lat="43.89505" lon="6.67369">
        <ele>1254.1</ele>
        <time>2021-09-18T12:26:49Z</time>
      </trkpt>
      <trkpt lat="43.89501" lon="6.67371">
        <ele>1254.4</ele>
        <time>2021-09-18T12:27:24Z</time>
      </trkpt>
      <trkpt lat="43.89497" lon="6.67374">
        <ele>1254.8</ele>
        <time>2021-09-18T12:27:26Z</time>
      </trkpt>
      <trkpt lat="43.89494" lon="6.67376">
        <ele>1255.2</ele>
        <time>2021-09-18T12:27:27Z</time>
      </trkpt>
      <trkpt lat="43.89493" lon="6.67376">
        <ele>1255.2</ele>
        <time>2021-09-18T12:27:29Z</time>
      </trkpt>
      <trkpt lat="43.89494" lon="6.67376">
        <ele>1255.2</ele>
        <time>2021-09-18T12:27:30Z</time>
      </trkpt>
      <trkpt lat="43.89494" lon="6.67376">
        <ele>1255.2</ele>
        <time>2021-09-18T12:27:31Z</time>
      </trkpt>
      <trkpt lat="43.89494" lon="6.67376">
        <ele>1255.2</ele>
        <time>2021-09-18T12:27:33Z</time>
      </trkpt>
      <trkpt lat="43.89494" lon="6.67376">
        <ele>1255.2</ele>
        <time>2021-09-18T12:27:34Z</time>
      </trkpt>
      <trkpt lat="43.89494" lon="6.67376">
        <ele>1255.2</ele>
        <time>2021-09-18T12:27:35Z</time>
      </trkpt>
      <trkpt lat="43.89493" lon="6.67377">
        <ele>1255.3</ele>
        <time>2021-09-18T12:27:37Z</time>
      </trkpt>
      <trkpt lat="43.89485" lon="6.67383">
        <ele>1256</ele>
        <time>2021-09-18T12:27:43Z</time>
      </trkpt>
      <trkpt lat="43.89481" lon="6.67385">
        <ele>1256.3</ele>
        <time>2021-09-18T12:27:44Z</time>
      </trkpt>
      <trkpt lat="43.89477" lon="6.67388">
        <ele>1256.6</ele>
        <time>2021-09-18T12:27:46Z</time>
      </trkpt>
      <trkpt lat="43.89473" lon="6.67387">
        <ele>1256.9</ele>
        <time>2021-09-18T12:27:47Z</time>
      </trkpt>
      <trkpt lat="43.89472" lon="6.67387">
        <ele>1257</ele>
        <time>2021-09-18T12:27:48Z</time>
      </trkpt>
      <trkpt lat="43.89471" lon="6.67387">
        <ele>1257.1</ele>
        <time>2021-09-18T12:27:49Z</time>
      </trkpt>
      <trkpt lat="43.8947" lon="6.67387">
        <ele>1257.2</ele>
        <time>2021-09-18T12:27:50Z</time>
      </trkpt>
      <trkpt lat="43.89467" lon="6.67388">
        <ele>1257.4</ele>
        <time>2021-09-18T12:27:52Z</time>
      </trkpt>
      <trkpt lat="43.89464" lon="6.6739">
        <ele>1257.7</ele>
        <time>2021-09-18T12:27:53Z</time>
      </trkpt>
      <trkpt lat="43.89463" lon="6.67391">
        <ele>1257.9</ele>
        <time>2021-09-18T12:27:54Z</time>
      </trkpt>
      <trkpt lat="43.89461" lon="6.67392">
        <ele>1258.1</ele>
        <time>2021-09-18T12:27:55Z</time>
      </trkpt>
      <trkpt lat="43.8946" lon="6.67393">
        <ele>1258.2</ele>
        <time>2021-09-18T12:27:56Z</time>
      </trkpt>
      <trkpt lat="43.89459" lon="6.67393">
        <ele>1258.3</ele>
        <time>2021-09-18T12:27:57Z</time>
      </trkpt>
      <trkpt lat="43.89457" lon="6.67394">
        <ele>1258.5</ele>
        <time>2021-09-18T12:27:59Z</time>
      </trkpt>
      <trkpt lat="43.89456" lon="6.67395">
        <ele>1258.6</ele>
        <time>2021-09-18T12:28:01Z</time>
      </trkpt>
      <trkpt lat="43.89452" lon="6.67398">
        <ele>1259.2</ele>
        <time>2021-09-18T12:28:02Z</time>
      </trkpt>
      <trkpt lat="43.8945" lon="6.674">
        <ele>1259.4</ele>
        <time>2021-09-18T12:28:03Z</time>
      </trkpt>
      <trkpt lat="43.89447" lon="6.67403">
        <ele>1259.9</ele>
        <time>2021-09-18T12:28:05Z</time>
      </trkpt>
      <trkpt lat="43.89441" lon="6.67407">
        <ele>1260.6</ele>
        <time>2021-09-18T12:28:06Z</time>
      </trkpt>
      <trkpt lat="43.89436" lon="6.6741">
        <ele>1261.2</ele>
        <time>2021-09-18T12:28:08Z</time>
      </trkpt>
      <trkpt lat="43.89432" lon="6.67414">
        <ele>1261.7</ele>
        <time>2021-09-18T12:28:09Z</time>
      </trkpt>
      <trkpt lat="43.8943" lon="6.67419">
        <ele>1262.1</ele>
        <time>2021-09-18T12:28:11Z</time>
      </trkpt>
      <trkpt lat="43.89429" lon="6.67421">
        <ele>1262.3</ele>
        <time>2021-09-18T12:28:12Z</time>
      </trkpt>
      <trkpt lat="43.89428" lon="6.67423">
        <ele>1262.4</ele>
        <time>2021-09-18T12:28:13Z</time>
      </trkpt>
      <trkpt lat="43.89427" lon="6.67425">
        <ele>1262.6</ele>
        <time>2021-09-18T12:28:14Z</time>
      </trkpt>
      <trkpt lat="43.89425" lon="6.67428">
        <ele>1262.9</ele>
        <time>2021-09-18T12:28:16Z</time>
      </trkpt>
      <trkpt lat="43.89421" lon="6.67429">
        <ele>1263.2</ele>
        <time>2021-09-18T12:28:17Z</time>
      </trkpt>
      <trkpt lat="43.89419" lon="6.6743">
        <ele>1263.4</ele>
        <time>2021-09-18T12:28:18Z</time>
      </trkpt>
      <trkpt lat="43.89418" lon="6.67432">
        <ele>1263.5</ele>
        <time>2021-09-18T12:28:20Z</time>
      </trkpt>
      <trkpt lat="43.89416" lon="6.67432">
        <ele>1263.6</ele>
        <time>2021-09-18T12:28:21Z</time>
      </trkpt>
      <trkpt lat="43.89414" lon="6.67432">
        <ele>1263.7</ele>
        <time>2021-09-18T12:28:23Z</time>
      </trkpt>
      <trkpt lat="43.89412" lon="6.67434">
        <ele>1263.8</ele>
        <time>2021-09-18T12:28:25Z</time>
      </trkpt>
      <trkpt lat="43.89413" lon="6.67439">
        <ele>1263.9</ele>
        <time>2021-09-18T12:28:27Z</time>
      </trkpt>
      <trkpt lat="43.89413" lon="6.67445">
        <ele>1263.8</ele>
        <time>2021-09-18T12:28:28Z</time>
      </trkpt>
      <trkpt lat="43.89415" lon="6.67451">
        <ele>1263.7</ele>
        <time>2021-09-18T12:28:30Z</time>
      </trkpt>
      <trkpt lat="43.89415" lon="6.67456">
        <ele>1263.4</ele>
        <time>2021-09-18T12:28:31Z</time>
      </trkpt>
      <trkpt lat="43.8942" lon="6.67474">
        <ele>1262.3</ele>
        <time>2021-09-18T12:28:33Z</time>
      </trkpt>
      <trkpt lat="43.89422" lon="6.67481">
        <ele>1261.6</ele>
        <time>2021-09-18T12:28:34Z</time>
      </trkpt>
      <trkpt lat="43.89424" lon="6.67489">
        <ele>1260.9</ele>
        <time>2021-09-18T12:28:35Z</time>
      </trkpt>
      <trkpt lat="43.89428" lon="6.67504">
        <ele>1259.5</ele>
        <time>2021-09-18T12:28:37Z</time>
      </trkpt>
      <trkpt lat="43.89431" lon="6.67523">
        <ele>1257.7</ele>
        <time>2021-09-18T12:28:39Z</time>
      </trkpt>
      <trkpt lat="43.89435" lon="6.67544">
        <ele>1255.8</ele>
        <time>2021-09-18T12:28:41Z</time>
      </trkpt>
      <trkpt lat="43.89439" lon="6.67564">
        <ele>1254.2</ele>
        <time>2021-09-18T12:28:43Z</time>
      </trkpt>
      <trkpt lat="43.89441" lon="6.67585">
        <ele>1253.1</ele>
        <time>2021-09-18T12:28:45Z</time>
      </trkpt>
      <trkpt lat="43.89443" lon="6.67605">
        <ele>1252</ele>
        <time>2021-09-18T12:28:47Z</time>
      </trkpt>
      <trkpt lat="43.89444" lon="6.67615">
        <ele>1251.3</ele>
        <time>2021-09-18T12:28:48Z</time>
      </trkpt>
      <trkpt lat="43.89443" lon="6.67625">
        <ele>1250.4</ele>
        <time>2021-09-18T12:28:49Z</time>
      </trkpt>
      <trkpt lat="43.89441" lon="6.67642">
        <ele>1248.6</ele>
        <time>2021-09-18T12:28:51Z</time>
      </trkpt>
      <trkpt lat="43.89439" lon="6.67656">
        <ele>1247.8</ele>
        <time>2021-09-18T12:28:53Z</time>
      </trkpt>
      <trkpt lat="43.89437" lon="6.67662">
        <ele>1247.6</ele>
        <time>2021-09-18T12:28:54Z</time>
      </trkpt>
      <trkpt lat="43.89434" lon="6.67669">
        <ele>1247.2</ele>
        <time>2021-09-18T12:28:56Z</time>
      </trkpt>
      <trkpt lat="43.89429" lon="6.67679">
        <ele>1246.6</ele>
        <time>2021-09-18T12:28:58Z</time>
      </trkpt>
      <trkpt lat="43.89426" lon="6.67685">
        <ele>1246.3</ele>
        <time>2021-09-18T12:28:59Z</time>
      </trkpt>
      <trkpt lat="43.89422" lon="6.67692">
        <ele>1246</ele>
        <time>2021-09-18T12:29:01Z</time>
      </trkpt>
      <trkpt lat="43.89422" lon="6.67689">
        <ele>1245.9</ele>
        <time>2021-09-18T12:29:02Z</time>
      </trkpt>
      <trkpt lat="43.89421" lon="6.67696">
        <ele>1245.7</ele>
        <time>2021-09-18T12:29:03Z</time>
      </trkpt>
      <trkpt lat="43.8942" lon="6.67701">
        <ele>1245.6</ele>
        <time>2021-09-18T12:29:05Z</time>
      </trkpt>
      <trkpt lat="43.8942" lon="6.67706">
        <ele>1245.5</ele>
        <time>2021-09-18T12:29:06Z</time>
      </trkpt>
      <trkpt lat="43.89418" lon="6.67712">
        <ele>1245.4</ele>
        <time>2021-09-18T12:29:07Z</time>
      </trkpt>
      <trkpt lat="43.89417" lon="6.67717">
        <ele>1245.3</ele>
        <time>2021-09-18T12:29:08Z</time>
      </trkpt>
      <trkpt lat="43.89416" lon="6.67723">
        <ele>1245.2</ele>
        <time>2021-09-18T12:29:09Z</time>
      </trkpt>
      <trkpt lat="43.89415" lon="6.67729">
        <ele>1245.2</ele>
        <time>2021-09-18T12:29:11Z</time>
      </trkpt>
      <trkpt lat="43.89415" lon="6.67731">
        <ele>1245.1</ele>
        <time>2021-09-18T12:29:12Z</time>
      </trkpt>
      <trkpt lat="43.89414" lon="6.67733">
        <ele>1245.1</ele>
        <time>2021-09-18T12:29:13Z</time>
      </trkpt>
      <trkpt lat="43.89412" lon="6.67738">
        <ele>1245</ele>
        <time>2021-09-18T12:29:15Z</time>
      </trkpt>
      <trkpt lat="43.8941" lon="6.67745">
        <ele>1244.9</ele>
        <time>2021-09-18T12:29:16Z</time>
      </trkpt>
      <trkpt lat="43.89409" lon="6.67751">
        <ele>1244.8</ele>
        <time>2021-09-18T12:29:18Z</time>
      </trkpt>
      <trkpt lat="43.89407" lon="6.67757">
        <ele>1244.7</ele>
        <time>2021-09-18T12:29:20Z</time>
      </trkpt>
      <trkpt lat="43.89405" lon="6.67762">
        <ele>1244.5</ele>
        <time>2021-09-18T12:29:21Z</time>
      </trkpt>
      <trkpt lat="43.89403" lon="6.67769">
        <ele>1244.3</ele>
        <time>2021-09-18T12:29:23Z</time>
      </trkpt>
      <trkpt lat="43.89402" lon="6.67778">
        <ele>1244.1</ele>
        <time>2021-09-18T12:29:25Z</time>
      </trkpt>
      <trkpt lat="43.89401" lon="6.67784">
        <ele>1243.9</ele>
        <time>2021-09-18T12:29:26Z</time>
      </trkpt>
      <trkpt lat="43.89399" lon="6.67793">
        <ele>1243.7</ele>
        <time>2021-09-18T12:29:27Z</time>
      </trkpt>
      <trkpt lat="43.89397" lon="6.67799">
        <ele>1243.5</ele>
        <time>2021-09-18T12:29:29Z</time>
      </trkpt>
      <trkpt lat="43.89394" lon="6.67807">
        <ele>1243.3</ele>
        <time>2021-09-18T12:29:30Z</time>
      </trkpt>
      <trkpt lat="43.89392" lon="6.67814">
        <ele>1243.2</ele>
        <time>2021-09-18T12:29:32Z</time>
      </trkpt>
      <trkpt lat="43.89391" lon="6.67821">
        <ele>1243</ele>
        <time>2021-09-18T12:29:34Z</time>
      </trkpt>
      <trkpt lat="43.89391" lon="6.67825">
        <ele>1243</ele>
        <time>2021-09-18T12:29:35Z</time>
      </trkpt>
      <trkpt lat="43.89392" lon="6.67832">
        <ele>1242.9</ele>
        <time>2021-09-18T12:29:36Z</time>
      </trkpt>
      <trkpt lat="43.89393" lon="6.6784">
        <ele>1242.9</ele>
        <time>2021-09-18T12:29:38Z</time>
      </trkpt>
      <trkpt lat="43.89392" lon="6.67845">
        <ele>1242.8</ele>
        <time>2021-09-18T12:29:39Z</time>
      </trkpt>
      <trkpt lat="43.89392" lon="6.67851">
        <ele>1242.7</ele>
        <time>2021-09-18T12:29:40Z</time>
      </trkpt>
      <trkpt lat="43.89392" lon="6.67858">
        <ele>1242.6</ele>
        <time>2021-09-18T12:29:41Z</time>
      </trkpt>
      <trkpt lat="43.89392" lon="6.67864">
        <ele>1242.5</ele>
        <time>2021-09-18T12:29:42Z</time>
      </trkpt>
      <trkpt lat="43.89392" lon="6.67871">
        <ele>1242.4</ele>
        <time>2021-09-18T12:29:44Z</time>
      </trkpt>
      <trkpt lat="43.89392" lon="6.67878">
        <ele>1242.3</ele>
        <time>2021-09-18T12:29:45Z</time>
      </trkpt>
      <trkpt lat="43.89392" lon="6.67885">
        <ele>1242.3</ele>
        <time>2021-09-18T12:29:46Z</time>
      </trkpt>
      <trkpt lat="43.89392" lon="6.67891">
        <ele>1242.2</ele>
        <time>2021-09-18T12:29:48Z</time>
      </trkpt>
      <trkpt lat="43.89391" lon="6.67895">
        <ele>1242.1</ele>
        <time>2021-09-18T12:29:49Z</time>
      </trkpt>
      <trkpt lat="43.89387" lon="6.679">
        <ele>1242</ele>
        <time>2021-09-18T12:29:50Z</time>
      </trkpt>
      <trkpt lat="43.89385" lon="6.67906">
        <ele>1242</ele>
        <time>2021-09-18T12:29:51Z</time>
      </trkpt>
      <trkpt lat="43.89383" lon="6.6791">
        <ele>1241.9</ele>
        <time>2021-09-18T12:29:53Z</time>
      </trkpt>
      <trkpt lat="43.89381" lon="6.67914">
        <ele>1241.8</ele>
        <time>2021-09-18T12:29:54Z</time>
      </trkpt>
      <trkpt lat="43.8938" lon="6.67917">
        <ele>1241.8</ele>
        <time>2021-09-18T12:29:55Z</time>
      </trkpt>
      <trkpt lat="43.89379" lon="6.67921">
        <ele>1241.7</ele>
        <time>2021-09-18T12:29:57Z</time>
      </trkpt>
      <trkpt lat="43.89379" lon="6.67926">
        <ele>1241.6</ele>
        <time>2021-09-18T12:29:58Z</time>
      </trkpt>
      <trkpt lat="43.89379" lon="6.67933">
        <ele>1241.5</ele>
        <time>2021-09-18T12:30:00Z</time>
      </trkpt>
      <trkpt lat="43.89379" lon="6.67935">
        <ele>1241.5</ele>
        <time>2021-09-18T12:30:01Z</time>
      </trkpt>
      <trkpt lat="43.89379" lon="6.67938">
        <ele>1241.4</ele>
        <time>2021-09-18T12:30:02Z</time>
      </trkpt>
      <trkpt lat="43.89377" lon="6.67943">
        <ele>1241.3</ele>
        <time>2021-09-18T12:30:03Z</time>
      </trkpt>
      <trkpt lat="43.89376" lon="6.67949">
        <ele>1241.1</ele>
        <time>2021-09-18T12:30:05Z</time>
      </trkpt>
      <trkpt lat="43.89375" lon="6.67955">
        <ele>1241</ele>
        <time>2021-09-18T12:30:06Z</time>
      </trkpt>
      <trkpt lat="43.89375" lon="6.6796">
        <ele>1240.9</ele>
        <time>2021-09-18T12:30:07Z</time>
      </trkpt>
      <trkpt lat="43.89374" lon="6.6797">
        <ele>1240.6</ele>
        <time>2021-09-18T12:30:08Z</time>
      </trkpt>
      <trkpt lat="43.89371" lon="6.67978">
        <ele>1240.4</ele>
        <time>2021-09-18T12:30:10Z</time>
      </trkpt>
      <trkpt lat="43.89367" lon="6.67987">
        <ele>1240.1</ele>
        <time>2021-09-18T12:30:11Z</time>
      </trkpt>
      <trkpt lat="43.89365" lon="6.67992">
        <ele>1239.9</ele>
        <time>2021-09-18T12:30:13Z</time>
      </trkpt>
      <trkpt lat="43.89364" lon="6.67997">
        <ele>1239.8</ele>
        <time>2021-09-18T12:30:14Z</time>
      </trkpt>
      <trkpt lat="43.89361" lon="6.68005">
        <ele>1239.6</ele>
        <time>2021-09-18T12:30:16Z</time>
      </trkpt>
      <trkpt lat="43.89361" lon="6.68013">
        <ele>1239.5</ele>
        <time>2021-09-18T12:30:17Z</time>
      </trkpt>
      <trkpt lat="43.89359" lon="6.68023">
        <ele>1239.5</ele>
        <time>2021-09-18T12:30:18Z</time>
      </trkpt>
      <trkpt lat="43.89358" lon="6.68031">
        <ele>1239.7</ele>
        <time>2021-09-18T12:30:20Z</time>
      </trkpt>
      <trkpt lat="43.89358" lon="6.68036">
        <ele>1239.7</ele>
        <time>2021-09-18T12:30:21Z</time>
      </trkpt>
      <trkpt lat="43.89357" lon="6.68042">
        <ele>1239.8</ele>
        <time>2021-09-18T12:30:22Z</time>
      </trkpt>
      <trkpt lat="43.89354" lon="6.68049">
        <ele>1239.8</ele>
        <time>2021-09-18T12:30:23Z</time>
      </trkpt>
      <trkpt lat="43.89352" lon="6.68054">
        <ele>1239.7</ele>
        <time>2021-09-18T12:30:25Z</time>
      </trkpt>
      <trkpt lat="43.89349" lon="6.6806">
        <ele>1239.6</ele>
        <time>2021-09-18T12:30:26Z</time>
      </trkpt>
      <trkpt lat="43.89346" lon="6.68066">
        <ele>1239.5</ele>
        <time>2021-09-18T12:30:27Z</time>
      </trkpt>
      <trkpt lat="43.89342" lon="6.68076">
        <ele>1239.4</ele>
        <time>2021-09-18T12:30:29Z</time>
      </trkpt>
      <trkpt lat="43.8934" lon="6.68082">
        <ele>1239.3</ele>
        <time>2021-09-18T12:30:30Z</time>
      </trkpt>
      <trkpt lat="43.89338" lon="6.68095">
        <ele>1239</ele>
        <time>2021-09-18T12:30:32Z</time>
      </trkpt>
      <trkpt lat="43.89337" lon="6.68102">
        <ele>1238.8</ele>
        <time>2021-09-18T12:30:33Z</time>
      </trkpt>
      <trkpt lat="43.89337" lon="6.68109">
        <ele>1238.6</ele>
        <time>2021-09-18T12:30:34Z</time>
      </trkpt>
      <trkpt lat="43.89337" lon="6.68115">
        <ele>1238.5</ele>
        <time>2021-09-18T12:30:35Z</time>
      </trkpt>
      <trkpt lat="43.89339" lon="6.68128">
        <ele>1238.1</ele>
        <time>2021-09-18T12:30:37Z</time>
      </trkpt>
      <trkpt lat="43.89341" lon="6.68144">
        <ele>1237.5</ele>
        <time>2021-09-18T12:30:39Z</time>
      </trkpt>
      <trkpt lat="43.89341" lon="6.68153">
        <ele>1237.2</ele>
        <time>2021-09-18T12:30:40Z</time>
      </trkpt>
      <trkpt lat="43.89343" lon="6.68173">
        <ele>1236.7</ele>
        <time>2021-09-18T12:30:42Z</time>
      </trkpt>
      <trkpt lat="43.89344" lon="6.68185">
        <ele>1236.7</ele>
        <time>2021-09-18T12:30:43Z</time>
      </trkpt>
      <trkpt lat="43.89344" lon="6.68205">
        <ele>1236.9</ele>
        <time>2021-09-18T12:30:45Z</time>
      </trkpt>
      <trkpt lat="43.89344" lon="6.68214">
        <ele>1237</ele>
        <time>2021-09-18T12:30:46Z</time>
      </trkpt>
      <trkpt lat="43.89343" lon="6.68223">
        <ele>1237.1</ele>
        <time>2021-09-18T12:30:47Z</time>
      </trkpt>
      <trkpt lat="43.89344" lon="6.6824">
        <ele>1236.9</ele>
        <time>2021-09-18T12:30:49Z</time>
      </trkpt>
      <trkpt lat="43.89347" lon="6.68256">
        <ele>1236.7</ele>
        <time>2021-09-18T12:30:51Z</time>
      </trkpt>
      <trkpt lat="43.89349" lon="6.68264">
        <ele>1236.5</ele>
        <time>2021-09-18T12:30:52Z</time>
      </trkpt>
      <trkpt lat="43.89351" lon="6.68271">
        <ele>1236.4</ele>
        <time>2021-09-18T12:30:53Z</time>
      </trkpt>
      <trkpt lat="43.89356" lon="6.68284">
        <ele>1236.3</ele>
        <time>2021-09-18T12:30:55Z</time>
      </trkpt>
      <trkpt lat="43.89363" lon="6.68294">
        <ele>1236.2</ele>
        <time>2021-09-18T12:30:57Z</time>
      </trkpt>
      <trkpt lat="43.89366" lon="6.68298">
        <ele>1236.2</ele>
        <time>2021-09-18T12:30:58Z</time>
      </trkpt>
      <trkpt lat="43.89369" lon="6.68301">
        <ele>1236.1</ele>
        <time>2021-09-18T12:30:59Z</time>
      </trkpt>
      <trkpt lat="43.89372" lon="6.68305">
        <ele>1236</ele>
        <time>2021-09-18T12:31:00Z</time>
      </trkpt>
      <trkpt lat="43.89376" lon="6.68309">
        <ele>1235.9</ele>
        <time>2021-09-18T12:31:01Z</time>
      </trkpt>
      <trkpt lat="43.89383" lon="6.68315">
        <ele>1235.7</ele>
        <time>2021-09-18T12:31:03Z</time>
      </trkpt>
      <trkpt lat="43.8939" lon="6.68321">
        <ele>1235.6</ele>
        <time>2021-09-18T12:31:05Z</time>
      </trkpt>
      <trkpt lat="43.89393" lon="6.68323">
        <ele>1235.5</ele>
        <time>2021-09-18T12:31:06Z</time>
      </trkpt>
      <trkpt lat="43.89395" lon="6.68325">
        <ele>1235.5</ele>
        <time>2021-09-18T12:31:08Z</time>
      </trkpt>
      <trkpt lat="43.89395" lon="6.68328">
        <ele>1235.5</ele>
        <time>2021-09-18T12:31:09Z</time>
      </trkpt>
      <trkpt lat="43.89395" lon="6.68332">
        <ele>1235.5</ele>
        <time>2021-09-18T12:31:10Z</time>
      </trkpt>
      <trkpt lat="43.89394" lon="6.68339">
        <ele>1235.5</ele>
        <time>2021-09-18T12:31:12Z</time>
      </trkpt>
      <trkpt lat="43.89391" lon="6.68343">
        <ele>1235.5</ele>
        <time>2021-09-18T12:31:13Z</time>
      </trkpt>
      <trkpt lat="43.89389" lon="6.68345">
        <ele>1235.5</ele>
        <time>2021-09-18T12:31:14Z</time>
      </trkpt>
      <trkpt lat="43.89386" lon="6.68348">
        <ele>1235.5</ele>
        <time>2021-09-18T12:31:15Z</time>
      </trkpt>
      <trkpt lat="43.89385" lon="6.68348">
        <ele>1235.6</ele>
        <time>2021-09-18T12:31:16Z</time>
      </trkpt>
      <trkpt lat="43.89383" lon="6.68351">
        <ele>1235.6</ele>
        <time>2021-09-18T12:31:18Z</time>
      </trkpt>
      <trkpt lat="43.89382" lon="6.68352">
        <ele>1235.6</ele>
        <time>2021-09-18T12:31:19Z</time>
      </trkpt>
      <trkpt lat="43.89382" lon="6.68351">
        <ele>1235.6</ele>
        <time>2021-09-18T12:31:21Z</time>
      </trkpt>
      <trkpt lat="43.89382" lon="6.68351">
        <ele>1235.6</ele>
        <time>2021-09-18T12:31:23Z</time>
      </trkpt>
      <trkpt lat="43.89382" lon="6.68351">
        <ele>1235.6</ele>
        <time>2021-09-18T12:31:25Z</time>
      </trkpt>
      <trkpt lat="43.89382" lon="6.68351">
        <ele>1235.6</ele>
        <time>2021-09-18T12:31:27Z</time>
      </trkpt>
      <trkpt lat="43.89382" lon="6.68352">
        <ele>1235.7</ele>
        <time>2021-09-18T12:31:29Z</time>
      </trkpt>
      <trkpt lat="43.89376" lon="6.68364">
        <ele>1235.9</ele>
        <time>2021-09-18T12:32:15Z</time>
      </trkpt>
      <trkpt lat="43.89377" lon="6.6837">
        <ele>1236.1</ele>
        <time>2021-09-18T12:32:17Z</time>
      </trkpt>
      <trkpt lat="43.89378" lon="6.68374">
        <ele>1236.2</ele>
        <time>2021-09-18T12:32:18Z</time>
      </trkpt>
      <trkpt lat="43.89379" lon="6.68376">
        <ele>1236.2</ele>
        <time>2021-09-18T12:32:19Z</time>
      </trkpt>
      <trkpt lat="43.89381" lon="6.68381">
        <ele>1236.4</ele>
        <time>2021-09-18T12:32:21Z</time>
      </trkpt>
      <trkpt lat="43.89381" lon="6.68386">
        <ele>1236.6</ele>
        <time>2021-09-18T12:32:22Z</time>
      </trkpt>
      <trkpt lat="43.89381" lon="6.68393">
        <ele>1236.9</ele>
        <time>2021-09-18T12:32:24Z</time>
      </trkpt>
      <trkpt lat="43.89382" lon="6.68395">
        <ele>1237</ele>
        <time>2021-09-18T12:32:25Z</time>
      </trkpt>
      <trkpt lat="43.89385" lon="6.68401">
        <ele>1237.4</ele>
        <time>2021-09-18T12:32:27Z</time>
      </trkpt>
      <trkpt lat="43.89387" lon="6.68403">
        <ele>1237.7</ele>
        <time>2021-09-18T12:32:28Z</time>
      </trkpt>
      <trkpt lat="43.89388" lon="6.68404">
        <ele>1237.8</ele>
        <time>2021-09-18T12:32:29Z</time>
      </trkpt>
      <trkpt lat="43.89391" lon="6.68408">
        <ele>1238.2</ele>
        <time>2021-09-18T12:32:31Z</time>
      </trkpt>
      <trkpt lat="43.89392" lon="6.68411">
        <ele>1238.5</ele>
        <time>2021-09-18T12:32:33Z</time>
      </trkpt>
      <trkpt lat="43.89392" lon="6.68412">
        <ele>1238.4</ele>
        <time>2021-09-18T12:32:35Z</time>
      </trkpt>
      <trkpt lat="43.89394" lon="6.68411">
        <ele>1238.3</ele>
        <time>2021-09-18T12:32:37Z</time>
      </trkpt>
      <trkpt lat="43.89396" lon="6.68412">
        <ele>1238</ele>
        <time>2021-09-18T12:32:39Z</time>
      </trkpt>
      <trkpt lat="43.89397" lon="6.68413">
        <ele>1237.9</ele>
        <time>2021-09-18T12:32:40Z</time>
      </trkpt>
      <trkpt lat="43.89399" lon="6.68414">
        <ele>1237.7</ele>
        <time>2021-09-18T12:32:42Z</time>
      </trkpt>
      <trkpt lat="43.89399" lon="6.68415">
        <ele>1237.6</ele>
        <time>2021-09-18T12:32:43Z</time>
      </trkpt>
      <trkpt lat="43.89401" lon="6.68415">
        <ele>1237.5</ele>
        <time>2021-09-18T12:32:45Z</time>
      </trkpt>
      <trkpt lat="43.89401" lon="6.68415">
        <ele>1237.5</ele>
        <time>2021-09-18T12:32:47Z</time>
      </trkpt>
      <trkpt lat="43.89401" lon="6.68415">
        <ele>1237.5</ele>
        <time>2021-09-18T12:32:48Z</time>
      </trkpt>
      <trkpt lat="43.89401" lon="6.68415">
        <ele>1237.5</ele>
        <time>2021-09-18T12:32:50Z</time>
      </trkpt>
      <trkpt lat="43.89401" lon="6.68415">
        <ele>1237.5</ele>
        <time>2021-09-18T12:32:51Z</time>
      </trkpt>
      <trkpt lat="43.89401" lon="6.68415">
        <ele>1237.5</ele>
        <time>2021-09-18T12:32:53Z</time>
      </trkpt>
      <trkpt lat="43.89386" lon="6.68405">
        <ele>1236.4</ele>
        <time>2021-09-18T12:33:36Z</time>
      </trkpt>
      <trkpt lat="43.89382" lon="6.68399">
        <ele>1236.2</ele>
        <time>2021-09-18T12:33:38Z</time>
      </trkpt>
      <trkpt lat="43.8938" lon="6.68396">
        <ele>1236</ele>
        <time>2021-09-18T12:33:39Z</time>
      </trkpt>
      <trkpt lat="43.89379" lon="6.68395">
        <ele>1236</ele>
        <time>2021-09-18T12:33:40Z</time>
      </trkpt>
      <trkpt lat="43.89378" lon="6.68392">
        <ele>1235.9</ele>
        <time>2021-09-18T12:33:41Z</time>
      </trkpt>
      <trkpt lat="43.89376" lon="6.68385">
        <ele>1235.8</ele>
        <time>2021-09-18T12:33:43Z</time>
      </trkpt>
      <trkpt lat="43.89374" lon="6.68382">
        <ele>1235.7</ele>
        <time>2021-09-18T12:33:44Z</time>
      </trkpt>
      <trkpt lat="43.89372" lon="6.68378">
        <ele>1235.7</ele>
        <time>2021-09-18T12:33:46Z</time>
      </trkpt>
      <trkpt lat="43.89371" lon="6.68378">
        <ele>1235.6</ele>
        <time>2021-09-18T12:33:47Z</time>
      </trkpt>
      <trkpt lat="43.8937" lon="6.68377">
        <ele>1235.6</ele>
        <time>2021-09-18T12:33:49Z</time>
      </trkpt>
      <trkpt lat="43.8937" lon="6.68376">
        <ele>1235.6</ele>
        <time>2021-09-18T12:33:50Z</time>
      </trkpt>
      <trkpt lat="43.89368" lon="6.68373">
        <ele>1235.6</ele>
        <time>2021-09-18T12:33:52Z</time>
      </trkpt>
      <trkpt lat="43.89368" lon="6.68371">
        <ele>1235.6</ele>
        <time>2021-09-18T12:33:54Z</time>
      </trkpt>
      <trkpt lat="43.89367" lon="6.6837">
        <ele>1235.5</ele>
        <time>2021-09-18T12:33:56Z</time>
      </trkpt>
      <trkpt lat="43.89367" lon="6.68371">
        <ele>1235.5</ele>
        <time>2021-09-18T12:33:58Z</time>
      </trkpt>
      <trkpt lat="43.89367" lon="6.68371">
        <ele>1235.5</ele>
        <time>2021-09-18T12:34:00Z</time>
      </trkpt>
      <trkpt lat="43.89367" lon="6.68371">
        <ele>1235.5</ele>
        <time>2021-09-18T12:34:02Z</time>
      </trkpt>
      <trkpt lat="43.89364" lon="6.68341">
        <ele>1235.5</ele>
        <time>2021-09-18T12:34:14Z</time>
      </trkpt>
      <trkpt lat="43.89362" lon="6.68334">
        <ele>1235.6</ele>
        <time>2021-09-18T12:34:16Z</time>
      </trkpt>
      <trkpt lat="43.8936" lon="6.68329">
        <ele>1235.7</ele>
        <time>2021-09-18T12:34:18Z</time>
      </trkpt>
      <trkpt lat="43.89359" lon="6.68323">
        <ele>1235.8</ele>
        <time>2021-09-18T12:34:20Z</time>
      </trkpt>
      <trkpt lat="43.89358" lon="6.68319">
        <ele>1235.8</ele>
        <time>2021-09-18T12:34:21Z</time>
      </trkpt>
      <trkpt lat="43.89357" lon="6.68318">
        <ele>1235.9</ele>
        <time>2021-09-18T12:34:22Z</time>
      </trkpt>
      <trkpt lat="43.89357" lon="6.68316">
        <ele>1235.9</ele>
        <time>2021-09-18T12:34:24Z</time>
      </trkpt>
      <trkpt lat="43.89358" lon="6.68315">
        <ele>1235.9</ele>
        <time>2021-09-18T12:34:25Z</time>
      </trkpt>
      <trkpt lat="43.89358" lon="6.68314">
        <ele>1235.9</ele>
        <time>2021-09-18T12:34:26Z</time>
      </trkpt>
      <trkpt lat="43.89358" lon="6.68313">
        <ele>1236</ele>
        <time>2021-09-18T12:34:27Z</time>
      </trkpt>
      <trkpt lat="43.89359" lon="6.68308">
        <ele>1236</ele>
        <time>2021-09-18T12:34:29Z</time>
      </trkpt>
      <trkpt lat="43.8936" lon="6.68305">
        <ele>1236.1</ele>
        <time>2021-09-18T12:34:30Z</time>
      </trkpt>
      <trkpt lat="43.89359" lon="6.68299">
        <ele>1236.1</ele>
        <time>2021-09-18T12:34:32Z</time>
      </trkpt>
      <trkpt lat="43.89358" lon="6.68294">
        <ele>1236.2</ele>
        <time>2021-09-18T12:34:34Z</time>
      </trkpt>
      <trkpt lat="43.89357" lon="6.68292">
        <ele>1236.2</ele>
        <time>2021-09-18T12:34:35Z</time>
      </trkpt>
      <trkpt lat="43.89357" lon="6.6829">
        <ele>1236.2</ele>
        <time>2021-09-18T12:34:36Z</time>
      </trkpt>
      <trkpt lat="43.89357" lon="6.68288">
        <ele>1236.2</ele>
        <time>2021-09-18T12:34:37Z</time>
      </trkpt>
      <trkpt lat="43.89356" lon="6.68286">
        <ele>1236.2</ele>
        <time>2021-09-18T12:34:38Z</time>
      </trkpt>
      <trkpt lat="43.89355" lon="6.6828">
        <ele>1236.3</ele>
        <time>2021-09-18T12:34:40Z</time>
      </trkpt>
      <trkpt lat="43.89355" lon="6.68278">
        <ele>1236.3</ele>
        <time>2021-09-18T12:34:41Z</time>
      </trkpt>
      <trkpt lat="43.89354" lon="6.68276">
        <ele>1236.3</ele>
        <time>2021-09-18T12:34:42Z</time>
      </trkpt>
      <trkpt lat="43.89353" lon="6.68272">
        <ele>1236.3</ele>
        <time>2021-09-18T12:34:43Z</time>
      </trkpt>
      <trkpt lat="43.89353" lon="6.68271">
        <ele>1236.3</ele>
        <time>2021-09-18T12:34:44Z</time>
      </trkpt>
      <trkpt lat="43.89353" lon="6.68268">
        <ele>1236.4</ele>
        <time>2021-09-18T12:34:45Z</time>
      </trkpt>
      <trkpt lat="43.89353" lon="6.68266">
        <ele>1236.4</ele>
        <time>2021-09-18T12:34:46Z</time>
      </trkpt>
      <trkpt lat="43.89352" lon="6.68264">
        <ele>1236.4</ele>
        <time>2021-09-18T12:34:48Z</time>
      </trkpt>
      <trkpt lat="43.89351" lon="6.68263">
        <ele>1236.4</ele>
        <time>2021-09-18T12:34:49Z</time>
      </trkpt>
      <trkpt lat="43.89347" lon="6.68259">
        <ele>1236.5</ele>
        <time>2021-09-18T12:34:51Z</time>
      </trkpt>
      <trkpt lat="43.89343" lon="6.68256">
        <ele>1236.6</ele>
        <time>2021-09-18T12:34:52Z</time>
      </trkpt>
      <trkpt lat="43.8934" lon="6.68253">
        <ele>1236.7</ele>
        <time>2021-09-18T12:34:53Z</time>
      </trkpt>
      <trkpt lat="43.89336" lon="6.6825">
        <ele>1236.8</ele>
        <time>2021-09-18T12:34:55Z</time>
      </trkpt>
      <trkpt lat="43.89333" lon="6.68247">
        <ele>1237.1</ele>
        <time>2021-09-18T12:34:56Z</time>
      </trkpt>
      <trkpt lat="43.8933" lon="6.68244">
        <ele>1237.5</ele>
        <time>2021-09-18T12:34:58Z</time>
      </trkpt>
      <trkpt lat="43.89326" lon="6.68241">
        <ele>1237.7</ele>
        <time>2021-09-18T12:35:00Z</time>
      </trkpt>
      <trkpt lat="43.89323" lon="6.68238">
        <ele>1238</ele>
        <time>2021-09-18T12:35:49Z</time>
      </trkpt>
      <trkpt lat="43.89319" lon="6.68235">
        <ele>1238.5</ele>
        <time>2021-09-18T12:35:50Z</time>
      </trkpt>
      <trkpt lat="43.89315" lon="6.68228">
        <ele>1238.7</ele>
        <time>2021-09-18T12:35:52Z</time>
      </trkpt>
      <trkpt lat="43.89313" lon="6.68225">
        <ele>1238.7</ele>
        <time>2021-09-18T12:35:53Z</time>
      </trkpt>
      <trkpt lat="43.8931" lon="6.68221">
        <ele>1239</ele>
        <time>2021-09-18T12:35:55Z</time>
      </trkpt>
      <trkpt lat="43.89308" lon="6.68218">
        <ele>1239.4</ele>
        <time>2021-09-18T12:35:56Z</time>
      </trkpt>
      <trkpt lat="43.89306" lon="6.68215">
        <ele>1239.9</ele>
        <time>2021-09-18T12:35:57Z</time>
      </trkpt>
      <trkpt lat="43.89303" lon="6.68211">
        <ele>1240.4</ele>
        <time>2021-09-18T12:35:59Z</time>
      </trkpt>
      <trkpt lat="43.89302" lon="6.68209">
        <ele>1240.3</ele>
        <time>2021-09-18T12:36:00Z</time>
      </trkpt>
      <trkpt lat="43.893" lon="6.68205">
        <ele>1240.8</ele>
        <time>2021-09-18T12:36:02Z</time>
      </trkpt>
      <trkpt lat="43.89299" lon="6.68201">
        <ele>1240.8</ele>
        <time>2021-09-18T12:36:03Z</time>
      </trkpt>
      <trkpt lat="43.89299" lon="6.682">
        <ele>1240.7</ele>
        <time>2021-09-18T12:36:04Z</time>
      </trkpt>
      <trkpt lat="43.89297" lon="6.68196">
        <ele>1241.1</ele>
        <time>2021-09-18T12:36:05Z</time>
      </trkpt>
      <trkpt lat="43.89295" lon="6.6819">
        <ele>1241.1</ele>
        <time>2021-09-18T12:36:07Z</time>
      </trkpt>
      <trkpt lat="43.89293" lon="6.68186">
        <ele>1241.5</ele>
        <time>2021-09-18T12:36:08Z</time>
      </trkpt>
      <trkpt lat="43.89293" lon="6.68185">
        <ele>1241.5</ele>
        <time>2021-09-18T12:36:09Z</time>
      </trkpt>
      <trkpt lat="43.89291" lon="6.68181">
        <ele>1241.8</ele>
        <time>2021-09-18T12:36:11Z</time>
      </trkpt>
      <trkpt lat="43.89289" lon="6.68179">
        <ele>1241.8</ele>
        <time>2021-09-18T12:36:12Z</time>
      </trkpt>
      <trkpt lat="43.89288" lon="6.68176">
        <ele>1242.2</ele>
        <time>2021-09-18T12:36:14Z</time>
      </trkpt>
      <trkpt lat="43.89286" lon="6.68172">
        <ele>1242.2</ele>
        <time>2021-09-18T12:36:15Z</time>
      </trkpt>
      <trkpt lat="43.89285" lon="6.68172">
        <ele>1242.2</ele>
        <time>2021-09-18T12:36:16Z</time>
      </trkpt>
      <trkpt lat="43.89284" lon="6.6817">
        <ele>1242.6</ele>
        <time>2021-09-18T12:36:17Z</time>
      </trkpt>
      <trkpt lat="43.89283" lon="6.68165">
        <ele>1242.6</ele>
        <time>2021-09-18T12:36:19Z</time>
      </trkpt>
      <trkpt lat="43.89284" lon="6.68161">
        <ele>1242.5</ele>
        <time>2021-09-18T12:36:20Z</time>
      </trkpt>
      <trkpt lat="43.89284" lon="6.6816">
        <ele>1242.5</ele>
        <time>2021-09-18T12:36:21Z</time>
      </trkpt>
      <trkpt lat="43.89284" lon="6.68155">
        <ele>1242.5</ele>
        <time>2021-09-18T12:36:23Z</time>
      </trkpt>
      <trkpt lat="43.89284" lon="6.68153">
        <ele>1242.4</ele>
        <time>2021-09-18T12:36:25Z</time>
      </trkpt>
      <trkpt lat="43.89285" lon="6.68151">
        <ele>1242.4</ele>
        <time>2021-09-18T12:36:26Z</time>
      </trkpt>
      <trkpt lat="43.89285" lon="6.68147">
        <ele>1242.4</ele>
        <time>2021-09-18T12:36:28Z</time>
      </trkpt>
      <trkpt lat="43.89285" lon="6.68143">
        <ele>1241.9</ele>
        <time>2021-09-18T12:36:30Z</time>
      </trkpt>
      <trkpt lat="43.89286" lon="6.6814">
        <ele>1241.9</ele>
        <time>2021-09-18T12:36:31Z</time>
      </trkpt>
      <trkpt lat="43.89287" lon="6.68134">
        <ele>1241.9</ele>
        <time>2021-09-18T12:36:33Z</time>
      </trkpt>
      <trkpt lat="43.89287" lon="6.6813">
        <ele>1241.9</ele>
        <time>2021-09-18T12:36:34Z</time>
      </trkpt>
      <trkpt lat="43.89286" lon="6.68129">
        <ele>1241.9</ele>
        <time>2021-09-18T12:36:35Z</time>
      </trkpt>
      <trkpt lat="43.89283" lon="6.68128">
        <ele>1242.4</ele>
        <time>2021-09-18T12:36:37Z</time>
      </trkpt>
      <trkpt lat="43.89282" lon="6.68128">
        <ele>1242.9</ele>
        <time>2021-09-18T12:36:38Z</time>
      </trkpt>
      <trkpt lat="43.89281" lon="6.68128">
        <ele>1242.9</ele>
        <time>2021-09-18T12:36:40Z</time>
      </trkpt>
      <trkpt lat="43.89281" lon="6.68128">
        <ele>1242.9</ele>
        <time>2021-09-18T12:36:41Z</time>
      </trkpt>
      <trkpt lat="43.89281" lon="6.68127">
        <ele>1242.9</ele>
        <time>2021-09-18T12:36:42Z</time>
      </trkpt>
      <trkpt lat="43.89281" lon="6.68127">
        <ele>1242.9</ele>
        <time>2021-09-18T12:36:44Z</time>
      </trkpt>
      <trkpt lat="43.89281" lon="6.68127">
        <ele>1242.9</ele>
        <time>2021-09-18T12:36:45Z</time>
      </trkpt>
      <trkpt lat="43.89273" lon="6.68115">
        <ele>1244.5</ele>
        <time>2021-09-18T12:36:55Z</time>
      </trkpt>
      <trkpt lat="43.8927" lon="6.68113">
        <ele>1244.5</ele>
        <time>2021-09-18T12:36:56Z</time>
      </trkpt>
      <trkpt lat="43.89268" lon="6.6811">
        <ele>1245.1</ele>
        <time>2021-09-18T12:36:58Z</time>
      </trkpt>
      <trkpt lat="43.89267" lon="6.68109">
        <ele>1245.1</ele>
        <time>2021-09-18T12:36:59Z</time>
      </trkpt>
      <trkpt lat="43.89266" lon="6.68107">
        <ele>1245.5</ele>
        <time>2021-09-18T12:37:00Z</time>
      </trkpt>
      <trkpt lat="43.89265" lon="6.68106">
        <ele>1245.6</ele>
        <time>2021-09-18T12:37:01Z</time>
      </trkpt>
      <trkpt lat="43.89264" lon="6.68105">
        <ele>1245.7</ele>
        <time>2021-09-18T12:37:03Z</time>
      </trkpt>
      <trkpt lat="43.89263" lon="6.68105">
        <ele>1245.8</ele>
        <time>2021-09-18T12:37:04Z</time>
      </trkpt>
      <trkpt lat="43.89264" lon="6.68111">
        <ele>1246</ele>
        <time>2021-09-18T12:37:06Z</time>
      </trkpt>
      <trkpt lat="43.89266" lon="6.68117">
        <ele>1246.3</ele>
        <time>2021-09-18T12:37:07Z</time>
      </trkpt>
      <trkpt lat="43.89268" lon="6.68122">
        <ele>1246.5</ele>
        <time>2021-09-18T12:37:08Z</time>
      </trkpt>
      <trkpt lat="43.8927" lon="6.68128">
        <ele>1246.7</ele>
        <time>2021-09-18T12:37:10Z</time>
      </trkpt>
      <trkpt lat="43.89271" lon="6.68134">
        <ele>1247</ele>
        <time>2021-09-18T12:37:11Z</time>
      </trkpt>
      <trkpt lat="43.89273" lon="6.6814">
        <ele>1247.3</ele>
        <time>2021-09-18T12:37:12Z</time>
      </trkpt>
      <trkpt lat="43.89275" lon="6.68145">
        <ele>1247.6</ele>
        <time>2021-09-18T12:37:13Z</time>
      </trkpt>
      <trkpt lat="43.89277" lon="6.68151">
        <ele>1247.9</ele>
        <time>2021-09-18T12:37:15Z</time>
      </trkpt>
      <trkpt lat="43.89278" lon="6.68157">
        <ele>1248.3</ele>
        <time>2021-09-18T12:38:04Z</time>
      </trkpt>
      <trkpt lat="43.8928" lon="6.68162">
        <ele>1248.6</ele>
        <time>2021-09-18T12:38:05Z</time>
      </trkpt>
      <trkpt lat="43.89282" lon="6.68168">
        <ele>1249.1</ele>
        <time>2021-09-18T12:38:06Z</time>
      </trkpt>
      <trkpt lat="43.89282" lon="6.68171">
        <ele>1249.2</ele>
        <time>2021-09-18T12:38:08Z</time>
      </trkpt>
      <trkpt lat="43.89283" lon="6.68171">
        <ele>1249.3</ele>
        <time>2021-09-18T12:38:09Z</time>
      </trkpt>
      <trkpt lat="43.89283" lon="6.68171">
        <ele>1249.3</ele>
        <time>2021-09-18T12:38:11Z</time>
      </trkpt>
      <trkpt lat="43.89283" lon="6.68172">
        <ele>1249.4</ele>
        <time>2021-09-18T12:38:12Z</time>
      </trkpt>
      <trkpt lat="43.89283" lon="6.68172">
        <ele>1249.4</ele>
        <time>2021-09-18T12:38:13Z</time>
      </trkpt>
      <trkpt lat="43.89284" lon="6.68173">
        <ele>1249.5</ele>
        <time>2021-09-18T12:38:14Z</time>
      </trkpt>
      <trkpt lat="43.89285" lon="6.68175">
        <ele>1249.7</ele>
        <time>2021-09-18T12:38:16Z</time>
      </trkpt>
      <trkpt lat="43.89285" lon="6.68177">
        <ele>1249.8</ele>
        <time>2021-09-18T12:38:17Z</time>
      </trkpt>
      <trkpt lat="43.89285" lon="6.68179">
        <ele>1250</ele>
        <time>2021-09-18T12:38:19Z</time>
      </trkpt>
      <trkpt lat="43.89285" lon="6.6818">
        <ele>1250.1</ele>
        <time>2021-09-18T12:38:20Z</time>
      </trkpt>
      <trkpt lat="43.89285" lon="6.68182">
        <ele>1250.3</ele>
        <time>2021-09-18T12:38:22Z</time>
      </trkpt>
      <trkpt lat="43.89284" lon="6.68184">
        <ele>1250.5</ele>
        <time>2021-09-18T12:38:23Z</time>
      </trkpt>
      <trkpt lat="43.89283" lon="6.68188">
        <ele>1250.8</ele>
        <time>2021-09-18T12:38:25Z</time>
      </trkpt>
      <trkpt lat="43.89281" lon="6.68191">
        <ele>1251</ele>
        <time>2021-09-18T12:38:26Z</time>
      </trkpt>
      <trkpt lat="43.8928" lon="6.68194">
        <ele>1251.3</ele>
        <time>2021-09-18T12:38:28Z</time>
      </trkpt>
      <trkpt lat="43.89279" lon="6.68196">
        <ele>1251.4</ele>
        <time>2021-09-18T12:38:29Z</time>
      </trkpt>
      <trkpt lat="43.89278" lon="6.68198">
        <ele>1251.6</ele>
        <time>2021-09-18T12:38:31Z</time>
      </trkpt>
      <trkpt lat="43.89278" lon="6.682">
        <ele>1251.7</ele>
        <time>2021-09-18T12:38:32Z</time>
      </trkpt>
      <trkpt lat="43.89277" lon="6.68202">
        <ele>1251.9</ele>
        <time>2021-09-18T12:38:34Z</time>
      </trkpt>
      <trkpt lat="43.89277" lon="6.68204">
        <ele>1252</ele>
        <time>2021-09-18T12:38:35Z</time>
      </trkpt>
      <trkpt lat="43.89276" lon="6.68205">
        <ele>1252.1</ele>
        <time>2021-09-18T12:38:36Z</time>
      </trkpt>
      <trkpt lat="43.89275" lon="6.68206">
        <ele>1252.2</ele>
        <time>2021-09-18T12:38:38Z</time>
      </trkpt>
      <trkpt lat="43.89275" lon="6.68207">
        <ele>1252.3</ele>
        <time>2021-09-18T12:38:40Z</time>
      </trkpt>
      <trkpt lat="43.89274" lon="6.68208">
        <ele>1252.3</ele>
        <time>2021-09-18T12:38:41Z</time>
      </trkpt>
      <trkpt lat="43.89274" lon="6.68208">
        <ele>1252.3</ele>
        <time>2021-09-18T12:38:42Z</time>
      </trkpt>
      <trkpt lat="43.89274" lon="6.68208">
        <ele>1252.3</ele>
        <time>2021-09-18T12:38:44Z</time>
      </trkpt>
      <trkpt lat="43.89274" lon="6.68209">
        <ele>1252.4</ele>
        <time>2021-09-18T12:38:45Z</time>
      </trkpt>
      <trkpt lat="43.89274" lon="6.68209">
        <ele>1252.4</ele>
        <time>2021-09-18T12:38:46Z</time>
      </trkpt>
      <trkpt lat="43.89274" lon="6.68209">
        <ele>1252.4</ele>
        <time>2021-09-18T12:38:47Z</time>
      </trkpt>
      <trkpt lat="43.89274" lon="6.68209">
        <ele>1252.4</ele>
        <time>2021-09-18T12:38:49Z</time>
      </trkpt>
      <trkpt lat="43.89274" lon="6.68209">
        <ele>1252.4</ele>
        <time>2021-09-18T12:38:50Z</time>
      </trkpt>
      <trkpt lat="43.89274" lon="6.68211">
        <ele>1252.5</ele>
        <time>2021-09-18T12:38:51Z</time>
      </trkpt>
      <trkpt lat="43.89273" lon="6.68215">
        <ele>1252.8</ele>
        <time>2021-09-18T12:38:53Z</time>
      </trkpt>
      <trkpt lat="43.89273" lon="6.68216">
        <ele>1252.9</ele>
        <time>2021-09-18T12:38:54Z</time>
      </trkpt>
      <trkpt lat="43.89273" lon="6.68218">
        <ele>1253</ele>
        <time>2021-09-18T12:38:55Z</time>
      </trkpt>
      <trkpt lat="43.89272" lon="6.6822">
        <ele>1253.1</ele>
        <time>2021-09-18T12:38:56Z</time>
      </trkpt>
      <trkpt lat="43.8927" lon="6.68225">
        <ele>1253.5</ele>
        <time>2021-09-18T12:38:58Z</time>
      </trkpt>
      <trkpt lat="43.89268" lon="6.68227">
        <ele>1253.7</ele>
        <time>2021-09-18T12:38:59Z</time>
      </trkpt>
      <trkpt lat="43.89267" lon="6.68228">
        <ele>1253.8</ele>
        <time>2021-09-18T12:39:00Z</time>
      </trkpt>
      <trkpt lat="43.89267" lon="6.68228">
        <ele>1253.9</ele>
        <time>2021-09-18T12:39:01Z</time>
      </trkpt>
      <trkpt lat="43.89265" lon="6.68231">
        <ele>1254.1</ele>
        <time>2021-09-18T12:39:03Z</time>
      </trkpt>
      <trkpt lat="43.89262" lon="6.68234">
        <ele>1254.4</ele>
        <time>2021-09-18T12:39:05Z</time>
      </trkpt>
      <trkpt lat="43.8926" lon="6.68236">
        <ele>1254.6</ele>
        <time>2021-09-18T12:39:06Z</time>
      </trkpt>
      <trkpt lat="43.89259" lon="6.68238">
        <ele>1254.8</ele>
        <time>2021-09-18T12:39:07Z</time>
      </trkpt>
      <trkpt lat="43.89258" lon="6.68238">
        <ele>1254.9</ele>
        <time>2021-09-18T12:39:08Z</time>
      </trkpt>
      <trkpt lat="43.89258" lon="6.68239">
        <ele>1254.9</ele>
        <time>2021-09-18T12:39:09Z</time>
      </trkpt>
      <trkpt lat="43.89257" lon="6.6824">
        <ele>1255</ele>
        <time>2021-09-18T12:39:11Z</time>
      </trkpt>
      <trkpt lat="43.89257" lon="6.68243">
        <ele>1255.2</ele>
        <time>2021-09-18T12:39:12Z</time>
      </trkpt>
      <trkpt lat="43.89257" lon="6.68244">
        <ele>1255.3</ele>
        <time>2021-09-18T12:39:13Z</time>
      </trkpt>
      <trkpt lat="43.89257" lon="6.68245">
        <ele>1255.4</ele>
        <time>2021-09-18T12:39:15Z</time>
      </trkpt>
      <trkpt lat="43.89257" lon="6.68246">
        <ele>1255.4</ele>
        <time>2021-09-18T12:39:17Z</time>
      </trkpt>
      <trkpt lat="43.89257" lon="6.68246">
        <ele>1255.5</ele>
        <time>2021-09-18T12:39:18Z</time>
      </trkpt>
      <trkpt lat="43.89257" lon="6.68247">
        <ele>1255.5</ele>
        <time>2021-09-18T12:39:19Z</time>
      </trkpt>
      <trkpt lat="43.89257" lon="6.68252">
        <ele>1255.9</ele>
        <time>2021-09-18T12:39:20Z</time>
      </trkpt>
      <trkpt lat="43.89258" lon="6.68256">
        <ele>1256.3</ele>
        <time>2021-09-18T12:39:22Z</time>
      </trkpt>
      <trkpt lat="43.89258" lon="6.68261">
        <ele>1256.6</ele>
        <time>2021-09-18T12:39:33Z</time>
      </trkpt>
      <trkpt lat="43.89259" lon="6.68266">
        <ele>1257</ele>
        <time>2021-09-18T12:39:35Z</time>
      </trkpt>
      <trkpt lat="43.8926" lon="6.6827">
        <ele>1257.4</ele>
        <time>2021-09-18T12:39:36Z</time>
      </trkpt>
      <trkpt lat="43.8926" lon="6.68271">
        <ele>1257.4</ele>
        <time>2021-09-18T12:39:37Z</time>
      </trkpt>
      <trkpt lat="43.8926" lon="6.68271">
        <ele>1257.4</ele>
        <time>2021-09-18T12:39:38Z</time>
      </trkpt>
      <trkpt lat="43.89261" lon="6.68272">
        <ele>1257.6</ele>
        <time>2021-09-18T12:39:39Z</time>
      </trkpt>
      <trkpt lat="43.89261" lon="6.68273">
        <ele>1257.6</ele>
        <time>2021-09-18T12:39:41Z</time>
      </trkpt>
      <trkpt lat="43.89262" lon="6.68274">
        <ele>1257.7</ele>
        <time>2021-09-18T12:39:42Z</time>
      </trkpt>
      <trkpt lat="43.89262" lon="6.68275">
        <ele>1257.8</ele>
        <time>2021-09-18T12:39:43Z</time>
      </trkpt>
      <trkpt lat="43.89262" lon="6.68277">
        <ele>1258</ele>
        <time>2021-09-18T12:39:44Z</time>
      </trkpt>
      <trkpt lat="43.89262" lon="6.6828">
        <ele>1258.2</ele>
        <time>2021-09-18T12:39:46Z</time>
      </trkpt>
      <trkpt lat="43.89264" lon="6.68288">
        <ele>1258.7</ele>
        <time>2021-09-18T12:39:49Z</time>
      </trkpt>
      <trkpt lat="43.89265" lon="6.68295">
        <ele>1259.1</ele>
        <time>2021-09-18T12:39:51Z</time>
      </trkpt>
      <trkpt lat="43.89265" lon="6.68299">
        <ele>1259.3</ele>
        <time>2021-09-18T12:39:52Z</time>
      </trkpt>
      <trkpt lat="43.89266" lon="6.68302">
        <ele>1259.4</ele>
        <time>2021-09-18T12:39:53Z</time>
      </trkpt>
      <trkpt lat="43.89269" lon="6.68307">
        <ele>1259.7</ele>
        <time>2021-09-18T12:39:55Z</time>
      </trkpt>
      <trkpt lat="43.89271" lon="6.68309">
        <ele>1259.8</ele>
        <time>2021-09-18T12:39:56Z</time>
      </trkpt>
      <trkpt lat="43.89274" lon="6.68312">
        <ele>1260</ele>
        <time>2021-09-18T12:39:58Z</time>
      </trkpt>
      <trkpt lat="43.89276" lon="6.68315">
        <ele>1260.2</ele>
        <time>2021-09-18T12:39:59Z</time>
      </trkpt>
      <trkpt lat="43.89279" lon="6.68319">
        <ele>1260.5</ele>
        <time>2021-09-18T12:40:00Z</time>
      </trkpt>
      <trkpt lat="43.89281" lon="6.68321">
        <ele>1260.6</ele>
        <time>2021-09-18T12:40:02Z</time>
      </trkpt>
      <trkpt lat="43.89281" lon="6.68325">
        <ele>1260.7</ele>
        <time>2021-09-18T12:40:04Z</time>
      </trkpt>
      <trkpt lat="43.89283" lon="6.68328">
        <ele>1260.9</ele>
        <time>2021-09-18T12:40:05Z</time>
      </trkpt>
      <trkpt lat="43.89285" lon="6.68331">
        <ele>1261.1</ele>
        <time>2021-09-18T12:40:07Z</time>
      </trkpt>
      <trkpt lat="43.89286" lon="6.68333">
        <ele>1261.2</ele>
        <time>2021-09-18T12:40:08Z</time>
      </trkpt>
      <trkpt lat="43.89287" lon="6.68334">
        <ele>1261.3</ele>
        <time>2021-09-18T12:40:09Z</time>
      </trkpt>
      <trkpt lat="43.89287" lon="6.68338">
        <ele>1261.5</ele>
        <time>2021-09-18T12:40:10Z</time>
      </trkpt>
      <trkpt lat="43.89287" lon="6.6834">
        <ele>1261.6</ele>
        <time>2021-09-18T12:40:12Z</time>
      </trkpt>
      <trkpt lat="43.89287" lon="6.68342">
        <ele>1261.7</ele>
        <time>2021-09-18T12:40:13Z</time>
      </trkpt>
      <trkpt lat="43.89286" lon="6.68343">
        <ele>1261.8</ele>
        <time>2021-09-18T12:40:14Z</time>
      </trkpt>
      <trkpt lat="43.89285" lon="6.68348">
        <ele>1262</ele>
        <time>2021-09-18T12:40:16Z</time>
      </trkpt>
      <trkpt lat="43.89283" lon="6.68353">
        <ele>1262.2</ele>
        <time>2021-09-18T12:40:18Z</time>
      </trkpt>
      <trkpt lat="43.89284" lon="6.68356">
        <ele>1262.3</ele>
        <time>2021-09-18T12:40:19Z</time>
      </trkpt>
      <trkpt lat="43.89284" lon="6.6836">
        <ele>1262.5</ele>
        <time>2021-09-18T12:40:21Z</time>
      </trkpt>
      <trkpt lat="43.89284" lon="6.68363">
        <ele>1262.6</ele>
        <time>2021-09-18T12:40:22Z</time>
      </trkpt>
      <trkpt lat="43.89285" lon="6.68365">
        <ele>1262.6</ele>
        <time>2021-09-18T12:40:24Z</time>
      </trkpt>
      <trkpt lat="43.89285" lon="6.68366">
        <ele>1262.7</ele>
        <time>2021-09-18T12:40:25Z</time>
      </trkpt>
      <trkpt lat="43.89285" lon="6.68366">
        <ele>1262.7</ele>
        <time>2021-09-18T12:40:26Z</time>
      </trkpt>
      <trkpt lat="43.89285" lon="6.68367">
        <ele>1262.7</ele>
        <time>2021-09-18T12:40:28Z</time>
      </trkpt>
      <trkpt lat="43.89285" lon="6.68367">
        <ele>1262.7</ele>
        <time>2021-09-18T12:40:29Z</time>
      </trkpt>
      <trkpt lat="43.89283" lon="6.6837">
        <ele>1262.9</ele>
        <time>2021-09-18T12:40:31Z</time>
      </trkpt>
      <trkpt lat="43.89281" lon="6.68376">
        <ele>1263.2</ele>
        <time>2021-09-18T12:40:32Z</time>
      </trkpt>
      <trkpt lat="43.8928" lon="6.68381">
        <ele>1263.4</ele>
        <time>2021-09-18T12:40:34Z</time>
      </trkpt>
      <trkpt lat="43.89278" lon="6.68385">
        <ele>1263.6</ele>
        <time>2021-09-18T12:40:35Z</time>
      </trkpt>
      <trkpt lat="43.89274" lon="6.68397">
        <ele>1264.3</ele>
        <time>2021-09-18T12:40:36Z</time>
      </trkpt>
      <trkpt lat="43.89273" lon="6.68404">
        <ele>1264.6</ele>
        <time>2021-09-18T12:40:37Z</time>
      </trkpt>
      <trkpt lat="43.89273" lon="6.68407">
        <ele>1264.7</ele>
        <time>2021-09-18T12:40:38Z</time>
      </trkpt>
      <trkpt lat="43.89274" lon="6.68412">
        <ele>1265</ele>
        <time>2021-09-18T12:40:40Z</time>
      </trkpt>
      <trkpt lat="43.89275" lon="6.68414">
        <ele>1265.1</ele>
        <time>2021-09-18T12:40:41Z</time>
      </trkpt>
      <trkpt lat="43.89274" lon="6.68418">
        <ele>1265.2</ele>
        <time>2021-09-18T12:40:43Z</time>
      </trkpt>
      <trkpt lat="43.89273" lon="6.68422">
        <ele>1265.5</ele>
        <time>2021-09-18T12:40:44Z</time>
      </trkpt>
      <trkpt lat="43.89273" lon="6.68424">
        <ele>1265.6</ele>
        <time>2021-09-18T12:40:46Z</time>
      </trkpt>
      <trkpt lat="43.89272" lon="6.68425">
        <ele>1265.7</ele>
        <time>2021-09-18T12:40:47Z</time>
      </trkpt>
      <trkpt lat="43.89272" lon="6.68427">
        <ele>1265.8</ele>
        <time>2021-09-18T12:40:48Z</time>
      </trkpt>
      <trkpt lat="43.89271" lon="6.6843">
        <ele>1266.1</ele>
        <time>2021-09-18T12:40:50Z</time>
      </trkpt>
      <trkpt lat="43.89271" lon="6.68435">
        <ele>1266.4</ele>
        <time>2021-09-18T12:40:52Z</time>
      </trkpt>
      <trkpt lat="43.89267" lon="6.6844">
        <ele>1266.9</ele>
        <time>2021-09-18T12:40:54Z</time>
      </trkpt>
      <trkpt lat="43.89263" lon="6.68445">
        <ele>1267.4</ele>
        <time>2021-09-18T12:40:55Z</time>
      </trkpt>
      <trkpt lat="43.8926" lon="6.68449">
        <ele>1267.8</ele>
        <time>2021-09-18T12:40:56Z</time>
      </trkpt>
      <trkpt lat="43.89252" lon="6.68459">
        <ele>1268.7</ele>
        <time>2021-09-18T12:40:58Z</time>
      </trkpt>
      <trkpt lat="43.8925" lon="6.68463">
        <ele>1269</ele>
        <time>2021-09-18T12:40:59Z</time>
      </trkpt>
      <trkpt lat="43.89249" lon="6.68464">
        <ele>1269</ele>
        <time>2021-09-18T12:41:00Z</time>
      </trkpt>
      <trkpt lat="43.89249" lon="6.68466">
        <ele>1269.2</ele>
        <time>2021-09-18T12:41:02Z</time>
      </trkpt>
      <trkpt lat="43.89249" lon="6.68467">
        <ele>1269.3</ele>
        <time>2021-09-18T12:41:03Z</time>
      </trkpt>
      <trkpt lat="43.89252" lon="6.68467">
        <ele>1269.5</ele>
        <time>2021-09-18T12:41:04Z</time>
      </trkpt>
      <trkpt lat="43.89253" lon="6.68466">
        <ele>1269.6</ele>
        <time>2021-09-18T12:41:06Z</time>
      </trkpt>
      <trkpt lat="43.89255" lon="6.68466">
        <ele>1269.8</ele>
        <time>2021-09-18T12:41:08Z</time>
      </trkpt>
      <trkpt lat="43.89256" lon="6.68466">
        <ele>1269.9</ele>
        <time>2021-09-18T12:41:09Z</time>
      </trkpt>
      <trkpt lat="43.89258" lon="6.68465">
        <ele>1270</ele>
        <time>2021-09-18T12:41:11Z</time>
      </trkpt>
      <trkpt lat="43.89259" lon="6.68466">
        <ele>1270.1</ele>
        <time>2021-09-18T12:41:12Z</time>
      </trkpt>
      <trkpt lat="43.89246" lon="6.68484">
        <ele>1271.2</ele>
        <time>2021-09-18T12:41:54Z</time>
      </trkpt>
      <trkpt lat="43.89243" lon="6.68488">
        <ele>1271.3</ele>
        <time>2021-09-18T12:41:55Z</time>
      </trkpt>
      <trkpt lat="43.89241" lon="6.68491">
        <ele>1271.5</ele>
        <time>2021-09-18T12:41:57Z</time>
      </trkpt>
      <trkpt lat="43.89238" lon="6.68493">
        <ele>1271.6</ele>
        <time>2021-09-18T12:41:58Z</time>
      </trkpt>
      <trkpt lat="43.89236" lon="6.68495">
        <ele>1271.7</ele>
        <time>2021-09-18T12:41:59Z</time>
      </trkpt>
      <trkpt lat="43.89235" lon="6.68496">
        <ele>1271.7</ele>
        <time>2021-09-18T12:42:00Z</time>
      </trkpt>
      <trkpt lat="43.89233" lon="6.68498">
        <ele>1271.9</ele>
        <time>2021-09-18T12:42:01Z</time>
      </trkpt>
      <trkpt lat="43.89232" lon="6.68499">
        <ele>1271.9</ele>
        <time>2021-09-18T12:42:03Z</time>
      </trkpt>
      <trkpt lat="43.89231" lon="6.685">
        <ele>1271.9</ele>
        <time>2021-09-18T12:42:04Z</time>
      </trkpt>
      <trkpt lat="43.89229" lon="6.68501">
        <ele>1272</ele>
        <time>2021-09-18T12:42:06Z</time>
      </trkpt>
      <trkpt lat="43.89228" lon="6.68501">
        <ele>1272</ele>
        <time>2021-09-18T12:42:08Z</time>
      </trkpt>
      <trkpt lat="43.89227" lon="6.68502">
        <ele>1272.1</ele>
        <time>2021-09-18T12:42:10Z</time>
      </trkpt>
      <trkpt lat="43.89226" lon="6.68503">
        <ele>1272.1</ele>
        <time>2021-09-18T12:42:11Z</time>
      </trkpt>
      <trkpt lat="43.89222" lon="6.68505">
        <ele>1272.2</ele>
        <time>2021-09-18T12:42:13Z</time>
      </trkpt>
      <trkpt lat="43.8922" lon="6.68508">
        <ele>1272.3</ele>
        <time>2021-09-18T12:42:14Z</time>
      </trkpt>
      <trkpt lat="43.89217" lon="6.68511">
        <ele>1272.3</ele>
        <time>2021-09-18T12:42:15Z</time>
      </trkpt>
      <trkpt lat="43.89215" lon="6.68514">
        <ele>1272.4</ele>
        <time>2021-09-18T12:42:17Z</time>
      </trkpt>
      <trkpt lat="43.89214" lon="6.68518">
        <ele>1272.4</ele>
        <time>2021-09-18T12:42:19Z</time>
      </trkpt>
      <trkpt lat="43.89213" lon="6.6852">
        <ele>1272.4</ele>
        <time>2021-09-18T12:42:20Z</time>
      </trkpt>
      <trkpt lat="43.8921" lon="6.68524">
        <ele>1272.5</ele>
        <time>2021-09-18T12:42:22Z</time>
      </trkpt>
      <trkpt lat="43.89208" lon="6.68529">
        <ele>1272.6</ele>
        <time>2021-09-18T12:42:23Z</time>
      </trkpt>
      <trkpt lat="43.89207" lon="6.68531">
        <ele>1272.7</ele>
        <time>2021-09-18T12:42:24Z</time>
      </trkpt>
      <trkpt lat="43.89204" lon="6.68534">
        <ele>1272.8</ele>
        <time>2021-09-18T12:42:25Z</time>
      </trkpt>
      <trkpt lat="43.89201" lon="6.68538">
        <ele>1273</ele>
        <time>2021-09-18T12:42:26Z</time>
      </trkpt>
      <trkpt lat="43.89199" lon="6.68543">
        <ele>1273.3</ele>
        <time>2021-09-18T12:42:28Z</time>
      </trkpt>
      <trkpt lat="43.89196" lon="6.68548">
        <ele>1273.6</ele>
        <time>2021-09-18T12:42:29Z</time>
      </trkpt>
      <trkpt lat="43.89193" lon="6.68555">
        <ele>1274</ele>
        <time>2021-09-18T12:42:31Z</time>
      </trkpt>
      <trkpt lat="43.89192" lon="6.68557">
        <ele>1274.1</ele>
        <time>2021-09-18T12:42:32Z</time>
      </trkpt>
      <trkpt lat="43.89192" lon="6.68559">
        <ele>1274.3</ele>
        <time>2021-09-18T12:42:33Z</time>
      </trkpt>
      <trkpt lat="43.8919" lon="6.68563">
        <ele>1274.6</ele>
        <time>2021-09-18T12:42:34Z</time>
      </trkpt>
      <trkpt lat="43.89189" lon="6.68564">
        <ele>1274.7</ele>
        <time>2021-09-18T12:42:35Z</time>
      </trkpt>
      <trkpt lat="43.89188" lon="6.68566">
        <ele>1274.8</ele>
        <time>2021-09-18T12:42:37Z</time>
      </trkpt>
      <trkpt lat="43.89187" lon="6.68568">
        <ele>1275</ele>
        <time>2021-09-18T12:42:38Z</time>
      </trkpt>
      <trkpt lat="43.89188" lon="6.68566">
        <ele>1275.1</ele>
        <time>2021-09-18T12:42:40Z</time>
      </trkpt>
      <trkpt lat="43.89188" lon="6.68566">
        <ele>1275.1</ele>
        <time>2021-09-18T12:42:41Z</time>
      </trkpt>
      <trkpt lat="43.89188" lon="6.68566">
        <ele>1275.1</ele>
        <time>2021-09-18T12:42:43Z</time>
      </trkpt>
      <trkpt lat="43.89188" lon="6.68566">
        <ele>1275.2</ele>
        <time>2021-09-18T12:42:44Z</time>
      </trkpt>
      <trkpt lat="43.89188" lon="6.68567">
        <ele>1275.2</ele>
        <time>2021-09-18T12:42:45Z</time>
      </trkpt>
      <trkpt lat="43.89188" lon="6.68567">
        <ele>1275.2</ele>
        <time>2021-09-18T12:42:47Z</time>
      </trkpt>
      <trkpt lat="43.89188" lon="6.68567">
        <ele>1275.3</ele>
        <time>2021-09-18T12:42:49Z</time>
      </trkpt>
      <trkpt lat="43.8913" lon="6.6857">
        <ele>1279.5</ele>
        <time>2021-09-18T12:43:51Z</time>
      </trkpt>
      <trkpt lat="43.89125" lon="6.68571">
        <ele>1279.7</ele>
        <time>2021-09-18T12:43:53Z</time>
      </trkpt>
      <trkpt lat="43.89121" lon="6.68572">
        <ele>1279.8</ele>
        <time>2021-09-18T12:43:54Z</time>
      </trkpt>
      <trkpt lat="43.89116" lon="6.68573">
        <ele>1279.9</ele>
        <time>2021-09-18T12:43:55Z</time>
      </trkpt>
      <trkpt lat="43.89112" lon="6.68573">
        <ele>1280.1</ele>
        <time>2021-09-18T12:43:56Z</time>
      </trkpt>
      <trkpt lat="43.89108" lon="6.68572">
        <ele>1280.3</ele>
        <time>2021-09-18T12:43:57Z</time>
      </trkpt>
      <trkpt lat="43.89103" lon="6.68571">
        <ele>1280.6</ele>
        <time>2021-09-18T12:43:59Z</time>
      </trkpt>
      <trkpt lat="43.89102" lon="6.68571">
        <ele>1280.8</ele>
        <time>2021-09-18T12:44:01Z</time>
      </trkpt>
      <trkpt lat="43.89101" lon="6.6857">
        <ele>1280.9</ele>
        <time>2021-09-18T12:44:02Z</time>
      </trkpt>
      <trkpt lat="43.891" lon="6.6857">
        <ele>1281</ele>
        <time>2021-09-18T12:44:03Z</time>
      </trkpt>
      <trkpt lat="43.89099" lon="6.68569">
        <ele>1281.1</ele>
        <time>2021-09-18T12:44:05Z</time>
      </trkpt>
      <trkpt lat="43.89097" lon="6.68569">
        <ele>1281.2</ele>
        <time>2021-09-18T12:44:06Z</time>
      </trkpt>
      <trkpt lat="43.89083" lon="6.68569">
        <ele>1282.8</ele>
        <time>2021-09-18T12:44:08Z</time>
      </trkpt>
      <trkpt lat="43.8907" lon="6.6857">
        <ele>1284.1</ele>
        <time>2021-09-18T12:44:09Z</time>
      </trkpt>
      <trkpt lat="43.89058" lon="6.6857">
        <ele>1285.2</ele>
        <time>2021-09-18T12:45:14Z</time>
      </trkpt>
      <trkpt lat="43.89046" lon="6.68571">
        <ele>1286</ele>
        <time>2021-09-18T12:45:15Z</time>
      </trkpt>
      <trkpt lat="43.89034" lon="6.68571">
        <ele>1286.6</ele>
        <time>2021-09-18T12:45:16Z</time>
      </trkpt>
      <trkpt lat="43.8903" lon="6.68573">
        <ele>1286.8</ele>
        <time>2021-09-18T12:45:18Z</time>
      </trkpt>
      <trkpt lat="43.89029" lon="6.68573">
        <ele>1286.8</ele>
        <time>2021-09-18T12:45:19Z</time>
      </trkpt>
      <trkpt lat="43.89027" lon="6.68573">
        <ele>1286.9</ele>
        <time>2021-09-18T12:45:20Z</time>
      </trkpt>
      <trkpt lat="43.89026" lon="6.68573">
        <ele>1286.9</ele>
        <time>2021-09-18T12:45:21Z</time>
      </trkpt>
      <trkpt lat="43.89025" lon="6.68574">
        <ele>1286.9</ele>
        <time>2021-09-18T12:45:23Z</time>
      </trkpt>
      <trkpt lat="43.89024" lon="6.68574">
        <ele>1287</ele>
        <time>2021-09-18T12:45:24Z</time>
      </trkpt>
      <trkpt lat="43.89024" lon="6.68573">
        <ele>1287</ele>
        <time>2021-09-18T12:45:25Z</time>
      </trkpt>
      <trkpt lat="43.89024" lon="6.68573">
        <ele>1287</ele>
        <time>2021-09-18T12:45:26Z</time>
      </trkpt>
      <trkpt lat="43.89024" lon="6.68573">
        <ele>1287</ele>
        <time>2021-09-18T12:45:28Z</time>
      </trkpt>
      <trkpt lat="43.89023" lon="6.68574">
        <ele>1287</ele>
        <time>2021-09-18T12:45:29Z</time>
      </trkpt>
      <trkpt lat="43.89022" lon="6.68574">
        <ele>1287</ele>
        <time>2021-09-18T12:45:30Z</time>
      </trkpt>
      <trkpt lat="43.8902" lon="6.68575">
        <ele>1287</ele>
        <time>2021-09-18T12:45:32Z</time>
      </trkpt>
      <trkpt lat="43.89019" lon="6.68576">
        <ele>1287</ele>
        <time>2021-09-18T12:45:33Z</time>
      </trkpt>
      <trkpt lat="43.89017" lon="6.68576">
        <ele>1287</ele>
        <time>2021-09-18T12:45:34Z</time>
      </trkpt>
      <trkpt lat="43.89007" lon="6.68574">
        <ele>1286.6</ele>
        <time>2021-09-18T12:45:35Z</time>
      </trkpt>
      <trkpt lat="43.88999" lon="6.68572">
        <ele>1286</ele>
        <time>2021-09-18T12:45:36Z</time>
      </trkpt>
      <trkpt lat="43.88983" lon="6.68565">
        <ele>1285.2</ele>
        <time>2021-09-18T12:45:38Z</time>
      </trkpt>
      <trkpt lat="43.88971" lon="6.68557">
        <ele>1285.3</ele>
        <time>2021-09-18T12:45:40Z</time>
      </trkpt>
      <trkpt lat="43.88961" lon="6.68553">
        <ele>1285.8</ele>
        <time>2021-09-18T12:45:42Z</time>
      </trkpt>
      <trkpt lat="43.88957" lon="6.6855">
        <ele>1286</ele>
        <time>2021-09-18T12:45:43Z</time>
      </trkpt>
      <trkpt lat="43.88954" lon="6.68548">
        <ele>1286.3</ele>
        <time>2021-09-18T12:45:44Z</time>
      </trkpt>
      <trkpt lat="43.88947" lon="6.68548">
        <ele>1286.6</ele>
        <time>2021-09-18T12:45:46Z</time>
      </trkpt>
      <trkpt lat="43.88942" lon="6.68549">
        <ele>1286.8</ele>
        <time>2021-09-18T12:45:47Z</time>
      </trkpt>
      <trkpt lat="43.88934" lon="6.68557">
        <ele>1287.3</ele>
        <time>2021-09-18T12:45:48Z</time>
      </trkpt>
      <trkpt lat="43.88927" lon="6.68562">
        <ele>1287.7</ele>
        <time>2021-09-18T12:45:50Z</time>
      </trkpt>
      <trkpt lat="43.88926" lon="6.68568">
        <ele>1288</ele>
        <time>2021-09-18T12:45:51Z</time>
      </trkpt>
      <trkpt lat="43.88926" lon="6.68569">
        <ele>1288.1</ele>
        <time>2021-09-18T12:45:52Z</time>
      </trkpt>
      <trkpt lat="43.88929" lon="6.68575">
        <ele>1288.5</ele>
        <time>2021-09-18T12:45:54Z</time>
      </trkpt>
      <trkpt lat="43.88929" lon="6.68577">
        <ele>1288.6</ele>
        <time>2021-09-18T12:45:55Z</time>
      </trkpt>
      <trkpt lat="43.88929" lon="6.68578">
        <ele>1288.7</ele>
        <time>2021-09-18T12:45:57Z</time>
      </trkpt>
      <trkpt lat="43.88929" lon="6.68578">
        <ele>1288.7</ele>
        <time>2021-09-18T12:45:58Z</time>
      </trkpt>
      <trkpt lat="43.88929" lon="6.68579">
        <ele>1288.7</ele>
        <time>2021-09-18T12:45:59Z</time>
      </trkpt>
      <trkpt lat="43.88929" lon="6.68579">
        <ele>1288.8</ele>
        <time>2021-09-18T12:46:00Z</time>
      </trkpt>
      <trkpt lat="43.88916" lon="6.68587">
        <ele>1289.9</ele>
        <time>2021-09-18T12:46:08Z</time>
      </trkpt>
      <trkpt lat="43.88913" lon="6.68588">
        <ele>1290.1</ele>
        <time>2021-09-18T12:46:09Z</time>
      </trkpt>
      <trkpt lat="43.88908" lon="6.68591">
        <ele>1290.5</ele>
        <time>2021-09-18T12:46:11Z</time>
      </trkpt>
      <trkpt lat="43.88906" lon="6.68593">
        <ele>1290.7</ele>
        <time>2021-09-18T12:46:12Z</time>
      </trkpt>
      <trkpt lat="43.88905" lon="6.68594">
        <ele>1290.8</ele>
        <time>2021-09-18T12:46:13Z</time>
      </trkpt>
      <trkpt lat="43.88901" lon="6.68597">
        <ele>1291.1</ele>
        <time>2021-09-18T12:46:15Z</time>
      </trkpt>
      <trkpt lat="43.88901" lon="6.68597">
        <ele>1291.1</ele>
        <time>2021-09-18T12:46:16Z</time>
      </trkpt>
      <trkpt lat="43.88901" lon="6.68596">
        <ele>1291.1</ele>
        <time>2021-09-18T12:46:17Z</time>
      </trkpt>
      <trkpt lat="43.88901" lon="6.68595">
        <ele>1291.1</ele>
        <time>2021-09-18T12:46:18Z</time>
      </trkpt>
      <trkpt lat="43.889" lon="6.68594">
        <ele>1291.2</ele>
        <time>2021-09-18T12:46:19Z</time>
      </trkpt>
      <trkpt lat="43.88899" lon="6.68595">
        <ele>1291.2</ele>
        <time>2021-09-18T12:46:21Z</time>
      </trkpt>
      <trkpt lat="43.88843" lon="6.6866">
        <ele>1293.7</ele>
        <time>2021-09-18T12:47:16Z</time>
      </trkpt>
      <trkpt lat="43.88814" lon="6.68676">
        <ele>1294.7</ele>
        <time>2021-09-18T12:47:18Z</time>
      </trkpt>
      <trkpt lat="43.88801" lon="6.68682">
        <ele>1294.5</ele>
        <time>2021-09-18T12:47:19Z</time>
      </trkpt>
      <trkpt lat="43.88788" lon="6.68687">
        <ele>1293.9</ele>
        <time>2021-09-18T12:47:20Z</time>
      </trkpt>
      <trkpt lat="43.88767" lon="6.68695">
        <ele>1292.2</ele>
        <time>2021-09-18T12:47:22Z</time>
      </trkpt>
      <trkpt lat="43.88757" lon="6.68698">
        <ele>1291.5</ele>
        <time>2021-09-18T12:47:23Z</time>
      </trkpt>
      <trkpt lat="43.88749" lon="6.68701">
        <ele>1291</ele>
        <time>2021-09-18T12:47:24Z</time>
      </trkpt>
      <trkpt lat="43.88734" lon="6.68705">
        <ele>1290.4</ele>
        <time>2021-09-18T12:47:26Z</time>
      </trkpt>
      <trkpt lat="43.88726" lon="6.68706">
        <ele>1290.1</ele>
        <time>2021-09-18T12:47:28Z</time>
      </trkpt>
      <trkpt lat="43.8872" lon="6.68705">
        <ele>1289.8</ele>
        <time>2021-09-18T12:47:29Z</time>
      </trkpt>
      <trkpt lat="43.88715" lon="6.68705">
        <ele>1289.6</ele>
        <time>2021-09-18T12:47:30Z</time>
      </trkpt>
      <trkpt lat="43.88709" lon="6.68705">
        <ele>1289.3</ele>
        <time>2021-09-18T12:47:31Z</time>
      </trkpt>
      <trkpt lat="43.88705" lon="6.68704">
        <ele>1289.2</ele>
        <time>2021-09-18T12:47:32Z</time>
      </trkpt>
      <trkpt lat="43.88696" lon="6.68702">
        <ele>1289.2</ele>
        <time>2021-09-18T12:47:34Z</time>
      </trkpt>
      <trkpt lat="43.8869" lon="6.68702">
        <ele>1289.3</ele>
        <time>2021-09-18T12:47:36Z</time>
      </trkpt>
      <trkpt lat="43.88684" lon="6.68702">
        <ele>1289.3</ele>
        <time>2021-09-18T12:47:37Z</time>
      </trkpt>
      <trkpt lat="43.88678" lon="6.68702">
        <ele>1289.3</ele>
        <time>2021-09-18T12:47:39Z</time>
      </trkpt>
      <trkpt lat="43.88672" lon="6.68702">
        <ele>1289.3</ele>
        <time>2021-09-18T12:47:40Z</time>
      </trkpt>
      <trkpt lat="43.88667" lon="6.68703">
        <ele>1289.4</ele>
        <time>2021-09-18T12:47:42Z</time>
      </trkpt>
      <trkpt lat="43.88663" lon="6.68702">
        <ele>1289.4</ele>
        <time>2021-09-18T12:47:43Z</time>
      </trkpt>
      <trkpt lat="43.88659" lon="6.68703">
        <ele>1289.5</ele>
        <time>2021-09-18T12:47:44Z</time>
      </trkpt>
      <trkpt lat="43.88657" lon="6.68703">
        <ele>1289.5</ele>
        <time>2021-09-18T12:47:45Z</time>
      </trkpt>
      <trkpt lat="43.88653" lon="6.68705">
        <ele>1289.6</ele>
        <time>2021-09-18T12:47:47Z</time>
      </trkpt>
      <trkpt lat="43.8865" lon="6.68707">
        <ele>1289.7</ele>
        <time>2021-09-18T12:47:48Z</time>
      </trkpt>
      <trkpt lat="43.88649" lon="6.68708">
        <ele>1289.7</ele>
        <time>2021-09-18T12:47:49Z</time>
      </trkpt>
      <trkpt lat="43.88647" lon="6.68708">
        <ele>1289.7</ele>
        <time>2021-09-18T12:47:50Z</time>
      </trkpt>
      <trkpt lat="43.88644" lon="6.68708">
        <ele>1289.8</ele>
        <time>2021-09-18T12:47:52Z</time>
      </trkpt>
      <trkpt lat="43.88643" lon="6.68707">
        <ele>1289.9</ele>
        <time>2021-09-18T12:47:53Z</time>
      </trkpt>
      <trkpt lat="43.8864" lon="6.68707">
        <ele>1290</ele>
        <time>2021-09-18T12:47:55Z</time>
      </trkpt>
      <trkpt lat="43.88636" lon="6.68708">
        <ele>1290.1</ele>
        <time>2021-09-18T12:47:57Z</time>
      </trkpt>
      <trkpt lat="43.88633" lon="6.6871">
        <ele>1290.3</ele>
        <time>2021-09-18T12:47:58Z</time>
      </trkpt>
      <trkpt lat="43.88632" lon="6.68711">
        <ele>1290.4</ele>
        <time>2021-09-18T12:47:59Z</time>
      </trkpt>
      <trkpt lat="43.88631" lon="6.68712">
        <ele>1290.5</ele>
        <time>2021-09-18T12:48:00Z</time>
      </trkpt>
      <trkpt lat="43.88629" lon="6.68712">
        <ele>1290.6</ele>
        <time>2021-09-18T12:48:01Z</time>
      </trkpt>
      <trkpt lat="43.88628" lon="6.68714">
        <ele>1290.8</ele>
        <time>2021-09-18T12:48:02Z</time>
      </trkpt>
      <trkpt lat="43.88625" lon="6.68717">
        <ele>1291.1</ele>
        <time>2021-09-18T12:48:04Z</time>
      </trkpt>
      <trkpt lat="43.88622" lon="6.68719">
        <ele>1291.5</ele>
        <time>2021-09-18T12:48:06Z</time>
      </trkpt>
      <trkpt lat="43.88618" lon="6.6872">
        <ele>1291.9</ele>
        <time>2021-09-18T12:48:08Z</time>
      </trkpt>
      <trkpt lat="43.88617" lon="6.68719">
        <ele>1292</ele>
        <time>2021-09-18T12:48:10Z</time>
      </trkpt>
      <trkpt lat="43.88617" lon="6.68718">
        <ele>1292.1</ele>
        <time>2021-09-18T12:48:11Z</time>
      </trkpt>
      <trkpt lat="43.88617" lon="6.68718">
        <ele>1292.1</ele>
        <time>2021-09-18T12:48:12Z</time>
      </trkpt>
      <trkpt lat="43.88617" lon="6.68718">
        <ele>1292.1</ele>
        <time>2021-09-18T12:48:13Z</time>
      </trkpt>
      <trkpt lat="43.88617" lon="6.68718">
        <ele>1292.1</ele>
        <time>2021-09-18T12:48:14Z</time>
      </trkpt>
      <trkpt lat="43.88617" lon="6.68718">
        <ele>1292.1</ele>
        <time>2021-09-18T12:48:15Z</time>
      </trkpt>
      <trkpt lat="43.88617" lon="6.68718">
        <ele>1292.2</ele>
        <time>2021-09-18T12:48:17Z</time>
      </trkpt>
      <trkpt lat="43.88616" lon="6.68718">
        <ele>1292.2</ele>
        <time>2021-09-18T12:48:18Z</time>
      </trkpt>
      <trkpt lat="43.88528" lon="6.68733">
        <ele>1304.1</ele>
        <time>2021-09-18T12:50:15Z</time>
      </trkpt>
      <trkpt lat="43.88527" lon="6.68735">
        <ele>1304</ele>
        <time>2021-09-18T12:50:16Z</time>
      </trkpt>
      <trkpt lat="43.88526" lon="6.68736">
        <ele>1303.9</ele>
        <time>2021-09-18T12:50:17Z</time>
      </trkpt>
      <trkpt lat="43.88526" lon="6.68736">
        <ele>1303.8</ele>
        <time>2021-09-18T12:50:19Z</time>
      </trkpt>
      <trkpt lat="43.88525" lon="6.68737">
        <ele>1303.8</ele>
        <time>2021-09-18T12:50:20Z</time>
      </trkpt>
      <trkpt lat="43.88525" lon="6.68737">
        <ele>1303.8</ele>
        <time>2021-09-18T12:50:22Z</time>
      </trkpt>
      <trkpt lat="43.88525" lon="6.68736">
        <ele>1303.7</ele>
        <time>2021-09-18T12:50:24Z</time>
      </trkpt>
      <trkpt lat="43.88525" lon="6.68734">
        <ele>1303.6</ele>
        <time>2021-09-18T12:50:25Z</time>
      </trkpt>
      <trkpt lat="43.88524" lon="6.68733">
        <ele>1303.4</ele>
        <time>2021-09-18T12:50:26Z</time>
      </trkpt>
      <trkpt lat="43.88504" lon="6.68712">
        <ele>1298.9</ele>
        <time>2021-09-18T12:50:32Z</time>
      </trkpt>
      <trkpt lat="43.88496" lon="6.68705">
        <ele>1297.1</ele>
        <time>2021-09-18T12:50:33Z</time>
      </trkpt>
      <trkpt lat="43.8849" lon="6.68699">
        <ele>1295.8</ele>
        <time>2021-09-18T12:50:34Z</time>
      </trkpt>
      <trkpt lat="43.88481" lon="6.68692">
        <ele>1294</ele>
        <time>2021-09-18T12:50:36Z</time>
      </trkpt>
      <trkpt lat="43.88477" lon="6.68688">
        <ele>1293.3</ele>
        <time>2021-09-18T12:50:37Z</time>
      </trkpt>
      <trkpt lat="43.88474" lon="6.68683">
        <ele>1292.5</ele>
        <time>2021-09-18T12:50:38Z</time>
      </trkpt>
      <trkpt lat="43.8847" lon="6.68672">
        <ele>1291</ele>
        <time>2021-09-18T12:50:40Z</time>
      </trkpt>
      <trkpt lat="43.8847" lon="6.68669">
        <ele>1290.6</ele>
        <time>2021-09-18T12:50:41Z</time>
      </trkpt>
      <trkpt lat="43.88474" lon="6.68654">
        <ele>1288.9</ele>
        <time>2021-09-18T12:50:43Z</time>
      </trkpt>
      <trkpt lat="43.8847" lon="6.68646">
        <ele>1287.8</ele>
        <time>2021-09-18T12:50:45Z</time>
      </trkpt>
      <trkpt lat="43.88474" lon="6.68638">
        <ele>1286.6</ele>
        <time>2021-09-18T12:50:47Z</time>
      </trkpt>
      <trkpt lat="43.88474" lon="6.68632">
        <ele>1285.9</ele>
        <time>2021-09-18T12:50:48Z</time>
      </trkpt>
      <trkpt lat="43.88473" lon="6.68627">
        <ele>1285.3</ele>
        <time>2021-09-18T12:50:49Z</time>
      </trkpt>
      <trkpt lat="43.88471" lon="6.68624">
        <ele>1284.8</ele>
        <time>2021-09-18T12:50:51Z</time>
      </trkpt>
      <trkpt lat="43.8847" lon="6.68621">
        <ele>1276.2</ele>
        <time>2021-09-18T12:50:52Z</time>
      </trkpt>
      <trkpt lat="43.88471" lon="6.68619">
        <ele>1275.8</ele>
        <time>2021-09-18T12:50:53Z</time>
      </trkpt>
      <trkpt lat="43.8847" lon="6.68619">
        <ele>1275.6</ele>
        <time>2021-09-18T12:50:54Z</time>
      </trkpt>
      <trkpt lat="43.88469" lon="6.68619">
        <ele>1275.4</ele>
        <time>2021-09-18T12:50:56Z</time>
      </trkpt>
      <trkpt lat="43.88469" lon="6.68619">
        <ele>1275.1</ele>
        <time>2021-09-18T12:50:58Z</time>
      </trkpt>
      <trkpt lat="43.88468" lon="6.68619">
        <ele>1274.9</ele>
        <time>2021-09-18T12:50:59Z</time>
      </trkpt>
      <trkpt lat="43.88467" lon="6.68618">
        <ele>1274.6</ele>
        <time>2021-09-18T12:51:01Z</time>
      </trkpt>
      <trkpt lat="43.88466" lon="6.68618">
        <ele>1274.3</ele>
        <time>2021-09-18T12:51:02Z</time>
      </trkpt>
      <trkpt lat="43.88465" lon="6.68618">
        <ele>1274.1</ele>
        <time>2021-09-18T12:51:04Z</time>
      </trkpt>
      <trkpt lat="43.88464" lon="6.68618">
        <ele>1273.8</ele>
        <time>2021-09-18T12:51:10Z</time>
      </trkpt>
      <trkpt lat="43.88463" lon="6.68618">
        <ele>1273.6</ele>
        <time>2021-09-18T12:51:11Z</time>
      </trkpt>
      <trkpt lat="43.88462" lon="6.68618">
        <ele>1273.3</ele>
        <time>2021-09-18T12:51:12Z</time>
      </trkpt>
      <trkpt lat="43.88457" lon="6.6862">
        <ele>1271.9</ele>
        <time>2021-09-18T12:51:14Z</time>
      </trkpt>
      <trkpt lat="43.88457" lon="6.6862">
        <ele>1271.9</ele>
        <time>2021-09-18T12:51:15Z</time>
      </trkpt>
      <trkpt lat="43.88457" lon="6.6862">
        <ele>1271.8</ele>
        <time>2021-09-18T12:51:17Z</time>
      </trkpt>
      <trkpt lat="43.88457" lon="6.6862">
        <ele>1271.8</ele>
        <time>2021-09-18T12:51:18Z</time>
      </trkpt>
      <trkpt lat="43.88457" lon="6.6862">
        <ele>1271.7</ele>
        <time>2021-09-18T12:51:20Z</time>
      </trkpt>
      <trkpt lat="43.88457" lon="6.6862">
        <ele>1271.7</ele>
        <time>2021-09-18T12:51:21Z</time>
      </trkpt>
      <trkpt lat="43.88457" lon="6.6862">
        <ele>1271.7</ele>
        <time>2021-09-18T12:51:23Z</time>
      </trkpt>
      <trkpt lat="43.88457" lon="6.6862">
        <ele>1271.7</ele>
        <time>2021-09-18T12:51:24Z</time>
      </trkpt>
      <trkpt lat="43.88457" lon="6.6862">
        <ele>1271.6</ele>
        <time>2021-09-18T12:51:25Z</time>
      </trkpt>
      <trkpt lat="43.88457" lon="6.6862">
        <ele>1271.6</ele>
        <time>2021-09-18T12:51:27Z</time>
      </trkpt>
      <trkpt lat="43.88457" lon="6.6862">
        <ele>1271.6</ele>
        <time>2021-09-18T12:51:28Z</time>
      </trkpt>
      <trkpt lat="43.88458" lon="6.68618">
        <ele>1271.1</ele>
        <time>2021-09-18T12:51:30Z</time>
      </trkpt>
      <trkpt lat="43.88459" lon="6.68617">
        <ele>1270.7</ele>
        <time>2021-09-18T12:51:31Z</time>
      </trkpt>
      <trkpt lat="43.8846" lon="6.68615">
        <ele>1270.4</ele>
        <time>2021-09-18T12:51:32Z</time>
      </trkpt>
      <trkpt lat="43.8846" lon="6.68614">
        <ele>1270.1</ele>
        <time>2021-09-18T12:51:33Z</time>
      </trkpt>
      <trkpt lat="43.8846" lon="6.68613">
        <ele>1269.9</ele>
        <time>2021-09-18T12:51:35Z</time>
      </trkpt>
      <trkpt lat="43.8846" lon="6.68611">
        <ele>1269.7</ele>
        <time>2021-09-18T12:51:36Z</time>
      </trkpt>
      <trkpt lat="43.88459" lon="6.68609">
        <ele>1269.2</ele>
        <time>2021-09-18T12:51:39Z</time>
      </trkpt>
      <trkpt lat="43.88459" lon="6.68607">
        <ele>1268.9</ele>
        <time>2021-09-18T12:51:41Z</time>
      </trkpt>
      <trkpt lat="43.88458" lon="6.68605">
        <ele>1268.6</ele>
        <time>2021-09-18T12:51:42Z</time>
      </trkpt>
      <trkpt lat="43.88457" lon="6.68604">
        <ele>1268.1</ele>
        <time>2021-09-18T12:51:43Z</time>
      </trkpt>
      <trkpt lat="43.88456" lon="6.68603">
        <ele>1267.9</ele>
        <time>2021-09-18T12:51:45Z</time>
      </trkpt>
      <trkpt lat="43.88455" lon="6.68602">
        <ele>1267.7</ele>
        <time>2021-09-18T12:51:46Z</time>
      </trkpt>
      <trkpt lat="43.88453" lon="6.686">
        <ele>1267</ele>
        <time>2021-09-18T12:51:47Z</time>
      </trkpt>
      <trkpt lat="43.88449" lon="6.68597">
        <ele>1266.1</ele>
        <time>2021-09-18T12:51:49Z</time>
      </trkpt>
      <trkpt lat="43.88448" lon="6.68597">
        <ele>1265.8</ele>
        <time>2021-09-18T12:51:50Z</time>
      </trkpt>
      <trkpt lat="43.88447" lon="6.68597">
        <ele>1265.5</ele>
        <time>2021-09-18T12:51:51Z</time>
      </trkpt>
      <trkpt lat="43.88445" lon="6.68596">
        <ele>1265.2</ele>
        <time>2021-09-18T12:51:52Z</time>
      </trkpt>
      <trkpt lat="43.88445" lon="6.68595">
        <ele>1265</ele>
        <time>2021-09-18T12:51:53Z</time>
      </trkpt>
      <trkpt lat="43.88444" lon="6.68594">
        <ele>1264.7</ele>
        <time>2021-09-18T12:51:55Z</time>
      </trkpt>
      <trkpt lat="43.88443" lon="6.68592">
        <ele>1264.4</ele>
        <time>2021-09-18T12:51:57Z</time>
      </trkpt>
      <trkpt lat="43.88442" lon="6.68592">
        <ele>1264.2</ele>
        <time>2021-09-18T12:51:58Z</time>
      </trkpt>
      <trkpt lat="43.88441" lon="6.68591">
        <ele>1264</ele>
        <time>2021-09-18T12:52:00Z</time>
      </trkpt>
      <trkpt lat="43.88441" lon="6.68591">
        <ele>1263.9</ele>
        <time>2021-09-18T12:52:01Z</time>
      </trkpt>
      <trkpt lat="43.88425" lon="6.68594">
        <ele>1260.4</ele>
        <time>2021-09-18T12:52:30Z</time>
      </trkpt>
      <trkpt lat="43.88423" lon="6.68591">
        <ele>1259.8</ele>
        <time>2021-09-18T12:52:31Z</time>
      </trkpt>
      <trkpt lat="43.88419" lon="6.68588">
        <ele>1258.5</ele>
        <time>2021-09-18T12:52:33Z</time>
      </trkpt>
      <trkpt lat="43.88416" lon="6.68588">
        <ele>1257.8</ele>
        <time>2021-09-18T12:52:34Z</time>
      </trkpt>
      <trkpt lat="43.88411" lon="6.68587">
        <ele>1256.9</ele>
        <time>2021-09-18T12:52:35Z</time>
      </trkpt>
      <trkpt lat="43.88406" lon="6.68588">
        <ele>1255.7</ele>
        <time>2021-09-18T12:52:37Z</time>
      </trkpt>
      <trkpt lat="43.88403" lon="6.68587">
        <ele>1255.1</ele>
        <time>2021-09-18T12:52:38Z</time>
      </trkpt>
      <trkpt lat="43.88399" lon="6.68585">
        <ele>1254.3</ele>
        <time>2021-09-18T12:52:40Z</time>
      </trkpt>
      <trkpt lat="43.88396" lon="6.68584">
        <ele>1253.6</ele>
        <time>2021-09-18T12:52:41Z</time>
      </trkpt>
      <trkpt lat="43.88392" lon="6.68582">
        <ele>1252.9</ele>
        <time>2021-09-18T12:52:42Z</time>
      </trkpt>
      <trkpt lat="43.88391" lon="6.68581">
        <ele>1252.5</ele>
        <time>2021-09-18T12:52:43Z</time>
      </trkpt>
      <trkpt lat="43.88388" lon="6.68581">
        <ele>1251.9</ele>
        <time>2021-09-18T12:52:44Z</time>
      </trkpt>
      <trkpt lat="43.88384" lon="6.68582">
        <ele>1251.2</ele>
        <time>2021-09-18T12:52:46Z</time>
      </trkpt>
      <trkpt lat="43.8838" lon="6.68581">
        <ele>1250.4</ele>
        <time>2021-09-18T12:52:48Z</time>
      </trkpt>
      <trkpt lat="43.88379" lon="6.6858">
        <ele>1250</ele>
        <time>2021-09-18T12:52:49Z</time>
      </trkpt>
      <trkpt lat="43.88376" lon="6.68578">
        <ele>1249.5</ele>
        <time>2021-09-18T12:52:50Z</time>
      </trkpt>
      <trkpt lat="43.88373" lon="6.68576">
        <ele>1248.8</ele>
        <time>2021-09-18T12:52:52Z</time>
      </trkpt>
      <trkpt lat="43.88371" lon="6.68574">
        <ele>1248.2</ele>
        <time>2021-09-18T12:52:53Z</time>
      </trkpt>
      <trkpt lat="43.88368" lon="6.68573">
        <ele>1247.7</ele>
        <time>2021-09-18T12:52:54Z</time>
      </trkpt>
      <trkpt lat="43.88365" lon="6.68572">
        <ele>1247</ele>
        <time>2021-09-18T12:52:56Z</time>
      </trkpt>
      <trkpt lat="43.88362" lon="6.68572">
        <ele>1246.5</ele>
        <time>2021-09-18T12:52:57Z</time>
      </trkpt>
      <trkpt lat="43.88358" lon="6.68571">
        <ele>1245.8</ele>
        <time>2021-09-18T12:52:58Z</time>
      </trkpt>
      <trkpt lat="43.88354" lon="6.68571">
        <ele>1245</ele>
        <time>2021-09-18T12:52:59Z</time>
      </trkpt>
      <trkpt lat="43.8835" lon="6.68573">
        <ele>1244.2</ele>
        <time>2021-09-18T12:53:01Z</time>
      </trkpt>
      <trkpt lat="43.88346" lon="6.68574">
        <ele>1243.5</ele>
        <time>2021-09-18T12:53:02Z</time>
      </trkpt>
      <trkpt lat="43.88344" lon="6.68575">
        <ele>1242.9</ele>
        <time>2021-09-18T12:53:03Z</time>
      </trkpt>
      <trkpt lat="43.88341" lon="6.68577">
        <ele>1242.3</ele>
        <time>2021-09-18T12:53:05Z</time>
      </trkpt>
      <trkpt lat="43.88339" lon="6.68579">
        <ele>1241.8</ele>
        <time>2021-09-18T12:53:06Z</time>
      </trkpt>
      <trkpt lat="43.88339" lon="6.6858">
        <ele>1241.6</ele>
        <time>2021-09-18T12:53:08Z</time>
      </trkpt>
      <trkpt lat="43.88337" lon="6.68579">
        <ele>1241.1</ele>
        <time>2021-09-18T12:53:09Z</time>
      </trkpt>
      <trkpt lat="43.88337" lon="6.6858">
        <ele>1241</ele>
        <time>2021-09-18T12:53:10Z</time>
      </trkpt>
      <trkpt lat="43.88336" lon="6.68582">
        <ele>1240.6</ele>
        <time>2021-09-18T12:53:12Z</time>
      </trkpt>
      <trkpt lat="43.88334" lon="6.68584">
        <ele>1240</ele>
        <time>2021-09-18T12:53:13Z</time>
      </trkpt>
      <trkpt lat="43.88331" lon="6.68586">
        <ele>1239.4</ele>
        <time>2021-09-18T12:53:15Z</time>
      </trkpt>
      <trkpt lat="43.88328" lon="6.68586">
        <ele>1238.7</ele>
        <time>2021-09-18T12:53:16Z</time>
      </trkpt>
      <trkpt lat="43.88327" lon="6.68586">
        <ele>1238.5</ele>
        <time>2021-09-18T12:53:17Z</time>
      </trkpt>
      <trkpt lat="43.88325" lon="6.68585">
        <ele>1238.1</ele>
        <time>2021-09-18T12:53:18Z</time>
      </trkpt>
      <trkpt lat="43.88321" lon="6.68584">
        <ele>1237.2</ele>
        <time>2021-09-18T12:53:20Z</time>
      </trkpt>
      <trkpt lat="43.88317" lon="6.68585">
        <ele>1236.5</ele>
        <time>2021-09-18T12:53:21Z</time>
      </trkpt>
      <trkpt lat="43.88314" lon="6.68584">
        <ele>1235.8</ele>
        <time>2021-09-18T12:53:22Z</time>
      </trkpt>
      <trkpt lat="43.88308" lon="6.68584">
        <ele>1234.6</ele>
        <time>2021-09-18T12:53:24Z</time>
      </trkpt>
      <trkpt lat="43.88306" lon="6.68585">
        <ele>1234</ele>
        <time>2021-09-18T12:53:25Z</time>
      </trkpt>
      <trkpt lat="43.88305" lon="6.68586">
        <ele>1233.9</ele>
        <time>2021-09-18T12:53:26Z</time>
      </trkpt>
      <trkpt lat="43.88304" lon="6.68588">
        <ele>1233.4</ele>
        <time>2021-09-18T12:53:28Z</time>
      </trkpt>
      <trkpt lat="43.88304" lon="6.6859">
        <ele>1233.2</ele>
        <time>2021-09-18T12:53:29Z</time>
      </trkpt>
      <trkpt lat="43.88303" lon="6.6859">
        <ele>1232.9</ele>
        <time>2021-09-18T12:53:30Z</time>
      </trkpt>
      <trkpt lat="43.883" lon="6.68589">
        <ele>1232.2</ele>
        <time>2021-09-18T12:53:32Z</time>
      </trkpt>
      <trkpt lat="43.88296" lon="6.68588">
        <ele>1231.3</ele>
        <time>2021-09-18T12:53:33Z</time>
      </trkpt>
      <trkpt lat="43.88295" lon="6.68588">
        <ele>1230.9</ele>
        <time>2021-09-18T12:53:34Z</time>
      </trkpt>
      <trkpt lat="43.88293" lon="6.68588">
        <ele>1230.4</ele>
        <time>2021-09-18T12:53:35Z</time>
      </trkpt>
      <trkpt lat="43.88291" lon="6.68589">
        <ele>1229.9</ele>
        <time>2021-09-18T12:53:37Z</time>
      </trkpt>
      <trkpt lat="43.88291" lon="6.68587">
        <ele>1229.6</ele>
        <time>2021-09-18T12:53:38Z</time>
      </trkpt>
      <trkpt lat="43.88291" lon="6.68585">
        <ele>1229.3</ele>
        <time>2021-09-18T12:53:40Z</time>
      </trkpt>
      <trkpt lat="43.88291" lon="6.68585">
        <ele>1229.2</ele>
        <time>2021-09-18T12:53:41Z</time>
      </trkpt>
      <trkpt lat="43.88288" lon="6.68587">
        <ele>1228.3</ele>
        <time>2021-09-18T12:53:43Z</time>
      </trkpt>
      <trkpt lat="43.88286" lon="6.6859">
        <ele>1227.4</ele>
        <time>2021-09-18T12:53:44Z</time>
      </trkpt>
      <trkpt lat="43.88283" lon="6.68593">
        <ele>1226.5</ele>
        <time>2021-09-18T12:53:45Z</time>
      </trkpt>
      <trkpt lat="43.88281" lon="6.68596">
        <ele>1225.6</ele>
        <time>2021-09-18T12:53:57Z</time>
      </trkpt>
      <trkpt lat="43.88279" lon="6.68598">
        <ele>1223.9</ele>
        <time>2021-09-18T12:53:58Z</time>
      </trkpt>
      <trkpt lat="43.88271" lon="6.68611">
        <ele>1223.2</ele>
        <time>2021-09-18T12:54:00Z</time>
      </trkpt>
      <trkpt lat="43.88265" lon="6.68624">
        <ele>1222.8</ele>
        <time>2021-09-18T12:54:01Z</time>
      </trkpt>
      <trkpt lat="43.88257" lon="6.68635">
        <ele>1222.2</ele>
        <time>2021-09-18T12:54:03Z</time>
      </trkpt>
      <trkpt lat="43.88254" lon="6.68642">
        <ele>1221.7</ele>
        <time>2021-09-18T12:54:04Z</time>
      </trkpt>
      <trkpt lat="43.8825" lon="6.68651">
        <ele>1221</ele>
        <time>2021-09-18T12:54:06Z</time>
      </trkpt>
      <trkpt lat="43.88248" lon="6.68657">
        <ele>1220.5</ele>
        <time>2021-09-18T12:54:07Z</time>
      </trkpt>
      <trkpt lat="43.88247" lon="6.68663">
        <ele>1219.9</ele>
        <time>2021-09-18T12:54:09Z</time>
      </trkpt>
      <trkpt lat="43.88246" lon="6.68667">
        <ele>1219.6</ele>
        <time>2021-09-18T12:54:10Z</time>
      </trkpt>
      <trkpt lat="43.88245" lon="6.68671">
        <ele>1219.2</ele>
        <time>2021-09-18T12:54:11Z</time>
      </trkpt>
      <trkpt lat="43.88242" lon="6.68676">
        <ele>1218.6</ele>
        <time>2021-09-18T12:54:13Z</time>
      </trkpt>
      <trkpt lat="43.88239" lon="6.68681">
        <ele>1218.2</ele>
        <time>2021-09-18T12:54:14Z</time>
      </trkpt>
      <trkpt lat="43.88237" lon="6.6869">
        <ele>1217.8</ele>
        <time>2021-09-18T12:54:16Z</time>
      </trkpt>
      <trkpt lat="43.88238" lon="6.68698">
        <ele>1217.6</ele>
        <time>2021-09-18T12:54:18Z</time>
      </trkpt>
      <trkpt lat="43.88238" lon="6.68705">
        <ele>1217.6</ele>
        <time>2021-09-18T12:54:19Z</time>
      </trkpt>
      <trkpt lat="43.88239" lon="6.6871">
        <ele>1217.7</ele>
        <time>2021-09-18T12:54:20Z</time>
      </trkpt>
      <trkpt lat="43.88241" lon="6.68717">
        <ele>1217.8</ele>
        <time>2021-09-18T12:54:21Z</time>
      </trkpt>
      <trkpt lat="43.88242" lon="6.68723">
        <ele>1218</ele>
        <time>2021-09-18T12:54:23Z</time>
      </trkpt>
      <trkpt lat="43.88242" lon="6.68728">
        <ele>1218.2</ele>
        <time>2021-09-18T12:54:24Z</time>
      </trkpt>
      <trkpt lat="43.88242" lon="6.68733">
        <ele>1218.3</ele>
        <time>2021-09-18T12:54:25Z</time>
      </trkpt>
      <trkpt lat="43.88243" lon="6.68738">
        <ele>1218.5</ele>
        <time>2021-09-18T12:54:26Z</time>
      </trkpt>
      <trkpt lat="43.88243" lon="6.68744">
        <ele>1218.7</ele>
        <time>2021-09-18T12:54:27Z</time>
      </trkpt>
      <trkpt lat="43.88244" lon="6.6875">
        <ele>1218.9</ele>
        <time>2021-09-18T12:54:29Z</time>
      </trkpt>
      <trkpt lat="43.88244" lon="6.68755">
        <ele>1219.1</ele>
        <time>2021-09-18T12:54:30Z</time>
      </trkpt>
      <trkpt lat="43.88243" lon="6.68761">
        <ele>1219.3</ele>
        <time>2021-09-18T12:54:32Z</time>
      </trkpt>
      <trkpt lat="43.88242" lon="6.68764">
        <ele>1219.2</ele>
        <time>2021-09-18T12:54:33Z</time>
      </trkpt>
      <trkpt lat="43.88239" lon="6.68767">
        <ele>1218.6</ele>
        <time>2021-09-18T12:54:34Z</time>
      </trkpt>
      <trkpt lat="43.88236" lon="6.6877">
        <ele>1217.9</ele>
        <time>2021-09-18T12:54:36Z</time>
      </trkpt>
      <trkpt lat="43.88233" lon="6.68771">
        <ele>1217.2</ele>
        <time>2021-09-18T12:54:37Z</time>
      </trkpt>
      <trkpt lat="43.88228" lon="6.68775">
        <ele>1216.1</ele>
        <time>2021-09-18T12:54:39Z</time>
      </trkpt>
      <trkpt lat="43.88224" lon="6.68779">
        <ele>1215.1</ele>
        <time>2021-09-18T12:54:40Z</time>
      </trkpt>
      <trkpt lat="43.88221" lon="6.68781">
        <ele>1214.5</ele>
        <time>2021-09-18T12:54:41Z</time>
      </trkpt>
      <trkpt lat="43.88219" lon="6.68782">
        <ele>1214</ele>
        <time>2021-09-18T12:54:42Z</time>
      </trkpt>
      <trkpt lat="43.88216" lon="6.68783">
        <ele>1213.4</ele>
        <time>2021-09-18T12:54:44Z</time>
      </trkpt>
      <trkpt lat="43.88217" lon="6.68783">
        <ele>1213.2</ele>
        <time>2021-09-18T12:54:45Z</time>
      </trkpt>
      <trkpt lat="43.88218" lon="6.68782">
        <ele>1212.9</ele>
        <time>2021-09-18T12:54:47Z</time>
      </trkpt>
      <trkpt lat="43.88219" lon="6.68782">
        <ele>1212.9</ele>
        <time>2021-09-18T12:54:48Z</time>
      </trkpt>
      <trkpt lat="43.88219" lon="6.68781">
        <ele>1212.8</ele>
        <time>2021-09-18T12:54:50Z</time>
      </trkpt>
      <trkpt lat="43.88219" lon="6.68781">
        <ele>1212.7</ele>
        <time>2021-09-18T12:54:51Z</time>
      </trkpt>
      <trkpt lat="43.8821" lon="6.68786">
        <ele>1210.5</ele>
        <time>2021-09-18T12:54:52Z</time>
      </trkpt>
      <trkpt lat="43.882" lon="6.68791">
        <ele>1208.2</ele>
        <time>2021-09-18T12:55:18Z</time>
      </trkpt>
      <trkpt lat="43.88191" lon="6.68796">
        <ele>1205.9</ele>
        <time>2021-09-18T12:55:19Z</time>
      </trkpt>
      <trkpt lat="43.8819" lon="6.688">
        <ele>1205.2</ele>
        <time>2021-09-18T12:55:20Z</time>
      </trkpt>
      <trkpt lat="43.8819" lon="6.68802">
        <ele>1204.8</ele>
        <time>2021-09-18T12:55:21Z</time>
      </trkpt>
      <trkpt lat="43.8819" lon="6.6881">
        <ele>1203.5</ele>
        <time>2021-09-18T12:55:23Z</time>
      </trkpt>
      <trkpt lat="43.88189" lon="6.68813">
        <ele>1202.9</ele>
        <time>2021-09-18T12:55:24Z</time>
      </trkpt>
      <trkpt lat="43.88187" lon="6.68816">
        <ele>1200.6</ele>
        <time>2021-09-18T12:55:26Z</time>
      </trkpt>
      <trkpt lat="43.88186" lon="6.6882">
        <ele>1200</ele>
        <time>2021-09-18T12:55:28Z</time>
      </trkpt>
      <trkpt lat="43.88184" lon="6.68823">
        <ele>1199.3</ele>
        <time>2021-09-18T12:55:29Z</time>
      </trkpt>
      <trkpt lat="43.88183" lon="6.68826">
        <ele>1198.7</ele>
        <time>2021-09-18T12:55:55Z</time>
      </trkpt>
      <trkpt lat="43.88181" lon="6.68829">
        <ele>1198.1</ele>
        <time>2021-09-18T12:55:57Z</time>
      </trkpt>
      <trkpt lat="43.8818" lon="6.68832">
        <ele>1197.4</ele>
        <time>2021-09-18T12:55:58Z</time>
      </trkpt>
      <trkpt lat="43.88178" lon="6.68836">
        <ele>1196.6</ele>
        <time>2021-09-18T12:55:59Z</time>
      </trkpt>
      <trkpt lat="43.88175" lon="6.68839">
        <ele>1195.8</ele>
        <time>2021-09-18T12:56:00Z</time>
      </trkpt>
      <trkpt lat="43.88171" lon="6.68842">
        <ele>1194.7</ele>
        <time>2021-09-18T12:56:02Z</time>
      </trkpt>
      <trkpt lat="43.88167" lon="6.68842">
        <ele>1193.6</ele>
        <time>2021-09-18T12:56:03Z</time>
      </trkpt>
      <trkpt lat="43.88159" lon="6.68842">
        <ele>1192</ele>
        <time>2021-09-18T12:56:04Z</time>
      </trkpt>
      <trkpt lat="43.88154" lon="6.68841">
        <ele>1190.8</ele>
        <time>2021-09-18T12:56:05Z</time>
      </trkpt>
      <trkpt lat="43.88149" lon="6.6884">
        <ele>1189.7</ele>
        <time>2021-09-18T12:56:06Z</time>
      </trkpt>
      <trkpt lat="43.8814" lon="6.68837">
        <ele>1187.5</ele>
        <time>2021-09-18T12:56:08Z</time>
      </trkpt>
      <trkpt lat="43.88134" lon="6.68839">
        <ele>1185.9</ele>
        <time>2021-09-18T12:56:10Z</time>
      </trkpt>
      <trkpt lat="43.8813" lon="6.68839">
        <ele>1184.9</ele>
        <time>2021-09-18T12:56:11Z</time>
      </trkpt>
      <trkpt lat="43.88125" lon="6.6884">
        <ele>1183.5</ele>
        <time>2021-09-18T12:56:12Z</time>
      </trkpt>
      <trkpt lat="43.88121" lon="6.68841">
        <ele>1182.2</ele>
        <time>2021-09-18T12:56:13Z</time>
      </trkpt>
      <trkpt lat="43.88116" lon="6.68843">
        <ele>1180.7</ele>
        <time>2021-09-18T12:56:15Z</time>
      </trkpt>
      <trkpt lat="43.88113" lon="6.68844">
        <ele>1179.8</ele>
        <time>2021-09-18T12:56:16Z</time>
      </trkpt>
      <trkpt lat="43.88109" lon="6.68845">
        <ele>1178.8</ele>
        <time>2021-09-18T12:56:17Z</time>
      </trkpt>
      <trkpt lat="43.88103" lon="6.68846">
        <ele>1177.1</ele>
        <time>2021-09-18T12:56:19Z</time>
      </trkpt>
      <trkpt lat="43.881" lon="6.68846">
        <ele>1176.2</ele>
        <time>2021-09-18T12:56:20Z</time>
      </trkpt>
      <trkpt lat="43.88096" lon="6.68847">
        <ele>1175.2</ele>
        <time>2021-09-18T12:56:21Z</time>
      </trkpt>
      <trkpt lat="43.8809" lon="6.68852">
        <ele>1175.6</ele>
        <time>2021-09-18T12:56:23Z</time>
      </trkpt>
      <trkpt lat="43.88087" lon="6.68857">
        <ele>1176.3</ele>
        <time>2021-09-18T12:56:24Z</time>
      </trkpt>
      <trkpt lat="43.88086" lon="6.68867">
        <ele>1177.3</ele>
        <time>2021-09-18T12:56:26Z</time>
      </trkpt>
      <trkpt lat="43.88089" lon="6.68877">
        <ele>1178.5</ele>
        <time>2021-09-18T12:56:27Z</time>
      </trkpt>
      <trkpt lat="43.88093" lon="6.68892">
        <ele>1180.3</ele>
        <time>2021-09-18T12:56:29Z</time>
      </trkpt>
      <trkpt lat="43.88096" lon="6.68899">
        <ele>1181.2</ele>
        <time>2021-09-18T12:56:30Z</time>
      </trkpt>
      <trkpt lat="43.881" lon="6.68905">
        <ele>1182.1</ele>
        <time>2021-09-18T12:56:31Z</time>
      </trkpt>
      <trkpt lat="43.88104" lon="6.68911">
        <ele>1182.9</ele>
        <time>2021-09-18T12:56:32Z</time>
      </trkpt>
      <trkpt lat="43.88109" lon="6.68926">
        <ele>1185.1</ele>
        <time>2021-09-18T12:56:34Z</time>
      </trkpt>
      <trkpt lat="43.88114" lon="6.68943">
        <ele>1187.8</ele>
        <time>2021-09-18T12:56:36Z</time>
      </trkpt>
      <trkpt lat="43.88115" lon="6.68958">
        <ele>1190.5</ele>
        <time>2021-09-18T12:56:38Z</time>
      </trkpt>
      <trkpt lat="43.88114" lon="6.68971">
        <ele>1192.3</ele>
        <time>2021-09-18T12:56:40Z</time>
      </trkpt>
      <trkpt lat="43.88112" lon="6.68976">
        <ele>1193.2</ele>
        <time>2021-09-18T12:56:41Z</time>
      </trkpt>
      <trkpt lat="43.88108" lon="6.68986">
        <ele>1189.9</ele>
        <time>2021-09-18T12:56:43Z</time>
      </trkpt>
      <trkpt lat="43.88106" lon="6.68991">
        <ele>1187.9</ele>
        <time>2021-09-18T12:56:44Z</time>
      </trkpt>
      <trkpt lat="43.88104" lon="6.68996">
        <ele>1187.9</ele>
        <time>2021-09-18T12:56:45Z</time>
      </trkpt>
      <trkpt lat="43.88102" lon="6.69002">
        <ele>1189.4</ele>
        <time>2021-09-18T12:56:47Z</time>
      </trkpt>
      <trkpt lat="43.881" lon="6.69007">
        <ele>1189.5</ele>
        <time>2021-09-18T12:56:48Z</time>
      </trkpt>
      <trkpt lat="43.88097" lon="6.69013">
        <ele>1189.6</ele>
        <time>2021-09-18T12:56:49Z</time>
      </trkpt>
      <trkpt lat="43.88095" lon="6.69018">
        <ele>1189.6</ele>
        <time>2021-09-18T12:56:51Z</time>
      </trkpt>
      <trkpt lat="43.88093" lon="6.69023">
        <ele>1189.6</ele>
        <time>2021-09-18T12:56:52Z</time>
      </trkpt>
      <trkpt lat="43.88091" lon="6.69028">
        <ele>1189.6</ele>
        <time>2021-09-18T12:56:53Z</time>
      </trkpt>
      <trkpt lat="43.88089" lon="6.69032">
        <ele>1188.9</ele>
        <time>2021-09-18T12:56:54Z</time>
      </trkpt>
      <trkpt lat="43.88084" lon="6.69036">
        <ele>1186.7</ele>
        <time>2021-09-18T12:56:56Z</time>
      </trkpt>
      <trkpt lat="43.8808" lon="6.69039">
        <ele>1185.9</ele>
        <time>2021-09-18T12:56:57Z</time>
      </trkpt>
      <trkpt lat="43.88077" lon="6.69042">
        <ele>1185.9</ele>
        <time>2021-09-18T12:56:59Z</time>
      </trkpt>
      <trkpt lat="43.88074" lon="6.69045">
        <ele>1185.9</ele>
        <time>2021-09-18T12:57:00Z</time>
      </trkpt>
      <trkpt lat="43.88071" lon="6.69047">
        <ele>1185.9</ele>
        <time>2021-09-18T12:57:02Z</time>
      </trkpt>
      <trkpt lat="43.88071" lon="6.69045">
        <ele>1185.9</ele>
        <time>2021-09-18T12:57:04Z</time>
      </trkpt>
      <trkpt lat="43.88071" lon="6.69044">
        <ele>1185.9</ele>
        <time>2021-09-18T12:57:05Z</time>
      </trkpt>
      <trkpt lat="43.88071" lon="6.69044">
        <ele>1185.9</ele>
        <time>2021-09-18T12:57:07Z</time>
      </trkpt>
      <trkpt lat="43.88071" lon="6.69044">
        <ele>1185.9</ele>
        <time>2021-09-18T12:57:08Z</time>
      </trkpt>
      <trkpt lat="43.88071" lon="6.69044">
        <ele>1185.9</ele>
        <time>2021-09-18T12:57:09Z</time>
      </trkpt>
      <trkpt lat="43.88071" lon="6.69044">
        <ele>1185.9</ele>
        <time>2021-09-18T12:57:11Z</time>
      </trkpt>
      <trkpt lat="43.88074" lon="6.69043">
        <ele>1185.9</ele>
        <time>2021-09-18T13:07:18Z</time>
      </trkpt>
      <trkpt lat="43.88068" lon="6.69049">
        <ele>1185.8</ele>
        <time>2021-09-18T13:07:20Z</time>
      </trkpt>
      <trkpt lat="43.88063" lon="6.69057">
        <ele>1184.2</ele>
        <time>2021-09-18T13:07:21Z</time>
      </trkpt>
      <trkpt lat="43.88059" lon="6.69065">
        <ele>1182.7</ele>
        <time>2021-09-18T13:07:22Z</time>
      </trkpt>
      <trkpt lat="43.88051" lon="6.69076">
        <ele>1180.3</ele>
        <time>2021-09-18T13:07:23Z</time>
      </trkpt>
      <trkpt lat="43.88047" lon="6.69083">
        <ele>1179.4</ele>
        <time>2021-09-18T13:07:25Z</time>
      </trkpt>
      <trkpt lat="43.88042" lon="6.69089">
        <ele>1177.7</ele>
        <time>2021-09-18T13:07:26Z</time>
      </trkpt>
      <trkpt lat="43.88036" lon="6.69094">
        <ele>1175.6</ele>
        <time>2021-09-18T13:07:28Z</time>
      </trkpt>
      <trkpt lat="43.88032" lon="6.69097">
        <ele>1174.6</ele>
        <time>2021-09-18T13:07:29Z</time>
      </trkpt>
      <trkpt lat="43.88029" lon="6.69101">
        <ele>1174.5</ele>
        <time>2021-09-18T13:07:31Z</time>
      </trkpt>
      <trkpt lat="43.88025" lon="6.69105">
        <ele>1175.2</ele>
        <time>2021-09-18T13:07:33Z</time>
      </trkpt>
      <trkpt lat="43.88024" lon="6.69105">
        <ele>1175.4</ele>
        <time>2021-09-18T13:07:34Z</time>
      </trkpt>
      <trkpt lat="43.88023" lon="6.69106">
        <ele>1175.6</ele>
        <time>2021-09-18T13:07:35Z</time>
      </trkpt>
      <trkpt lat="43.88021" lon="6.6911">
        <ele>1175.9</ele>
        <time>2021-09-18T13:07:37Z</time>
      </trkpt>
      <trkpt lat="43.8802" lon="6.6911">
        <ele>1176</ele>
        <time>2021-09-18T13:07:38Z</time>
      </trkpt>
      <trkpt lat="43.88019" lon="6.69111">
        <ele>1176</ele>
        <time>2021-09-18T13:07:39Z</time>
      </trkpt>
      <trkpt lat="43.88016" lon="6.69114">
        <ele>1176.2</ele>
        <time>2021-09-18T13:07:41Z</time>
      </trkpt>
      <trkpt lat="43.88014" lon="6.69117">
        <ele>1176.3</ele>
        <time>2021-09-18T13:07:43Z</time>
      </trkpt>
      <trkpt lat="43.88013" lon="6.69118">
        <ele>1176.4</ele>
        <time>2021-09-18T13:07:44Z</time>
      </trkpt>
      <trkpt lat="43.88012" lon="6.69121">
        <ele>1176.5</ele>
        <time>2021-09-18T13:07:46Z</time>
      </trkpt>
      <trkpt lat="43.88009" lon="6.69124">
        <ele>1176.6</ele>
        <time>2021-09-18T13:07:48Z</time>
      </trkpt>
      <trkpt lat="43.88008" lon="6.69125">
        <ele>1176.7</ele>
        <time>2021-09-18T13:07:49Z</time>
      </trkpt>
      <trkpt lat="43.88006" lon="6.69126">
        <ele>1176.8</ele>
        <time>2021-09-18T13:07:50Z</time>
      </trkpt>
      <trkpt lat="43.88004" lon="6.69129">
        <ele>1176.9</ele>
        <time>2021-09-18T13:07:52Z</time>
      </trkpt>
      <trkpt lat="43.88003" lon="6.69135">
        <ele>1177.1</ele>
        <time>2021-09-18T13:07:54Z</time>
      </trkpt>
      <trkpt lat="43.88003" lon="6.69137">
        <ele>1177.1</ele>
        <time>2021-09-18T13:07:56Z</time>
      </trkpt>
      <trkpt lat="43.88003" lon="6.69139">
        <ele>1177.2</ele>
        <time>2021-09-18T13:07:57Z</time>
      </trkpt>
      <trkpt lat="43.88004" lon="6.69141">
        <ele>1177.3</ele>
        <time>2021-09-18T13:07:58Z</time>
      </trkpt>
      <trkpt lat="43.88003" lon="6.69145">
        <ele>1177.4</ele>
        <time>2021-09-18T13:08:00Z</time>
      </trkpt>
      <trkpt lat="43.88003" lon="6.69147">
        <ele>1177.4</ele>
        <time>2021-09-18T13:08:01Z</time>
      </trkpt>
      <trkpt lat="43.88003" lon="6.69149">
        <ele>1177.4</ele>
        <time>2021-09-18T13:08:02Z</time>
      </trkpt>
      <trkpt lat="43.88005" lon="6.69153">
        <ele>1177.5</ele>
        <time>2021-09-18T13:08:04Z</time>
      </trkpt>
      <trkpt lat="43.88006" lon="6.69155">
        <ele>1177.6</ele>
        <time>2021-09-18T13:08:05Z</time>
      </trkpt>
      <trkpt lat="43.88007" lon="6.69158">
        <ele>1177.6</ele>
        <time>2021-09-18T13:08:07Z</time>
      </trkpt>
      <trkpt lat="43.88011" lon="6.69161">
        <ele>1177.7</ele>
        <time>2021-09-18T13:08:08Z</time>
      </trkpt>
      <trkpt lat="43.88012" lon="6.69162">
        <ele>1177.8</ele>
        <time>2021-09-18T13:08:09Z</time>
      </trkpt>
      <trkpt lat="43.88015" lon="6.69166">
        <ele>1177.9</ele>
        <time>2021-09-18T13:08:11Z</time>
      </trkpt>
      <trkpt lat="43.88017" lon="6.69169">
        <ele>1178</ele>
        <time>2021-09-18T13:08:13Z</time>
      </trkpt>
      <trkpt lat="43.88017" lon="6.6917">
        <ele>1178</ele>
        <time>2021-09-18T13:08:14Z</time>
      </trkpt>
      <trkpt lat="43.8802" lon="6.69172">
        <ele>1178</ele>
        <time>2021-09-18T13:08:15Z</time>
      </trkpt>
      <trkpt lat="43.88027" lon="6.69173">
        <ele>1178</ele>
        <time>2021-09-18T13:08:17Z</time>
      </trkpt>
      <trkpt lat="43.8803" lon="6.69174">
        <ele>1177.9</ele>
        <time>2021-09-18T13:08:18Z</time>
      </trkpt>
      <trkpt lat="43.88037" lon="6.69177">
        <ele>1177.8</ele>
        <time>2021-09-18T13:08:20Z</time>
      </trkpt>
      <trkpt lat="43.88039" lon="6.69181">
        <ele>1177.7</ele>
        <time>2021-09-18T13:08:22Z</time>
      </trkpt>
      <trkpt lat="43.88038" lon="6.69181">
        <ele>1177.7</ele>
        <time>2021-09-18T13:08:23Z</time>
      </trkpt>
      <trkpt lat="43.88038" lon="6.69182">
        <ele>1177.7</ele>
        <time>2021-09-18T13:08:24Z</time>
      </trkpt>
      <trkpt lat="43.88037" lon="6.69183">
        <ele>1177.7</ele>
        <time>2021-09-18T13:08:25Z</time>
      </trkpt>
      <trkpt lat="43.88037" lon="6.69184">
        <ele>1177.7</ele>
        <time>2021-09-18T13:08:27Z</time>
      </trkpt>
      <trkpt lat="43.88037" lon="6.69185">
        <ele>1177.7</ele>
        <time>2021-09-18T13:08:28Z</time>
      </trkpt>
      <trkpt lat="43.88034" lon="6.69186">
        <ele>1177.6</ele>
        <time>2021-09-18T13:08:30Z</time>
      </trkpt>
      <trkpt lat="43.88031" lon="6.69187">
        <ele>1177.7</ele>
        <time>2021-09-18T13:08:31Z</time>
      </trkpt>
      <trkpt lat="43.8803" lon="6.69188">
        <ele>1177.7</ele>
        <time>2021-09-18T13:08:32Z</time>
      </trkpt>
      <trkpt lat="43.88031" lon="6.69189">
        <ele>1177.7</ele>
        <time>2021-09-18T13:08:33Z</time>
      </trkpt>
      <trkpt lat="43.88032" lon="6.6919">
        <ele>1177.7</ele>
        <time>2021-09-18T13:08:35Z</time>
      </trkpt>
      <trkpt lat="43.88032" lon="6.6919">
        <ele>1177.7</ele>
        <time>2021-09-18T13:08:36Z</time>
      </trkpt>
      <trkpt lat="43.88033" lon="6.69192">
        <ele>1177.7</ele>
        <time>2021-09-18T13:08:38Z</time>
      </trkpt>
      <trkpt lat="43.88024" lon="6.69184">
        <ele>1177.8</ele>
        <time>2021-09-18T13:08:48Z</time>
      </trkpt>
      <trkpt lat="43.88016" lon="6.69174">
        <ele>1178</ele>
        <time>2021-09-18T13:08:50Z</time>
      </trkpt>
      <trkpt lat="43.8801" lon="6.69166">
        <ele>1177.8</ele>
        <time>2021-09-18T13:08:52Z</time>
      </trkpt>
      <trkpt lat="43.88006" lon="6.69161">
        <ele>1177.7</ele>
        <time>2021-09-18T13:08:54Z</time>
      </trkpt>
      <trkpt lat="43.88003" lon="6.69157">
        <ele>1177.5</ele>
        <time>2021-09-18T13:08:55Z</time>
      </trkpt>
      <trkpt lat="43.88002" lon="6.69154">
        <ele>1177.5</ele>
        <time>2021-09-18T13:08:56Z</time>
      </trkpt>
      <trkpt lat="43.88001" lon="6.69146">
        <ele>1177.4</ele>
        <time>2021-09-18T13:08:58Z</time>
      </trkpt>
      <trkpt lat="43.88002" lon="6.6914">
        <ele>1177.2</ele>
        <time>2021-09-18T13:08:59Z</time>
      </trkpt>
      <trkpt lat="43.88003" lon="6.69135">
        <ele>1177.1</ele>
        <time>2021-09-18T13:09:00Z</time>
      </trkpt>
      <trkpt lat="43.88005" lon="6.69126">
        <ele>1176.8</ele>
        <time>2021-09-18T13:09:02Z</time>
      </trkpt>
      <trkpt lat="43.88007" lon="6.69117">
        <ele>1176.6</ele>
        <time>2021-09-18T13:09:04Z</time>
      </trkpt>
      <trkpt lat="43.88009" lon="6.69112">
        <ele>1176.4</ele>
        <time>2021-09-18T13:09:05Z</time>
      </trkpt>
      <trkpt lat="43.88012" lon="6.69107">
        <ele>1176.7</ele>
        <time>2021-09-18T13:09:07Z</time>
      </trkpt>
      <trkpt lat="43.88011" lon="6.69106">
        <ele>1175.6</ele>
        <time>2021-09-18T13:09:09Z</time>
      </trkpt>
      <trkpt lat="43.88011" lon="6.69105">
        <ele>1175.8</ele>
        <time>2021-09-18T13:09:10Z</time>
      </trkpt>
      <trkpt lat="43.88012" lon="6.69103">
        <ele>1175.6</ele>
        <time>2021-09-18T13:09:11Z</time>
      </trkpt>
      <trkpt lat="43.88013" lon="6.69103">
        <ele>1175.3</ele>
        <time>2021-09-18T13:09:13Z</time>
      </trkpt>
      <trkpt lat="43.88015" lon="6.69103">
        <ele>1175.9</ele>
        <time>2021-09-18T13:09:14Z</time>
      </trkpt>
      <trkpt lat="43.88013" lon="6.69104">
        <ele>1174.7</ele>
        <time>2021-09-18T13:09:15Z</time>
      </trkpt>
      <trkpt lat="43.88011" lon="6.69104">
        <ele>1173.6</ele>
        <time>2021-09-18T13:09:17Z</time>
      </trkpt>
      <trkpt lat="43.88008" lon="6.69104">
        <ele>1173.4</ele>
        <time>2021-09-18T13:09:19Z</time>
      </trkpt>
      <trkpt lat="43.88005" lon="6.69104">
        <ele>1172.2</ele>
        <time>2021-09-18T13:09:20Z</time>
      </trkpt>
      <trkpt lat="43.88003" lon="6.69105">
        <ele>1171.1</ele>
        <time>2021-09-18T13:09:28Z</time>
      </trkpt>
      <trkpt lat="43.88" lon="6.69105">
        <ele>1170</ele>
        <time>2021-09-18T13:09:29Z</time>
      </trkpt>
      <trkpt lat="43.87993" lon="6.69101">
        <ele>1167.6</ele>
        <time>2021-09-18T13:09:31Z</time>
      </trkpt>
      <trkpt lat="43.87988" lon="6.69097">
        <ele>1165.3</ele>
        <time>2021-09-18T13:09:32Z</time>
      </trkpt>
      <trkpt lat="43.8798" lon="6.69092">
        <ele>1163.1</ele>
        <time>2021-09-18T13:09:34Z</time>
      </trkpt>
      <trkpt lat="43.87977" lon="6.69088">
        <ele>1160.6</ele>
        <time>2021-09-18T13:09:35Z</time>
      </trkpt>
      <trkpt lat="43.87973" lon="6.69082">
        <ele>1159</ele>
        <time>2021-09-18T13:09:36Z</time>
      </trkpt>
      <trkpt lat="43.87967" lon="6.69077">
        <ele>1156.2</ele>
        <time>2021-09-18T13:09:38Z</time>
      </trkpt>
      <trkpt lat="43.87965" lon="6.69075">
        <ele>1155.8</ele>
        <time>2021-09-18T13:09:39Z</time>
      </trkpt>
      <trkpt lat="43.87962" lon="6.69076">
        <ele>1155.3</ele>
        <time>2021-09-18T13:09:40Z</time>
      </trkpt>
      <trkpt lat="43.87961" lon="6.69077">
        <ele>1155.2</ele>
        <time>2021-09-18T13:09:41Z</time>
      </trkpt>
      <trkpt lat="43.87959" lon="6.69079">
        <ele>1154.8</ele>
        <time>2021-09-18T13:09:43Z</time>
      </trkpt>
      <trkpt lat="43.87956" lon="6.69083">
        <ele>1154.3</ele>
        <time>2021-09-18T13:09:44Z</time>
      </trkpt>
      <trkpt lat="43.87953" lon="6.69088">
        <ele>1153.6</ele>
        <time>2021-09-18T13:09:45Z</time>
      </trkpt>
      <trkpt lat="43.8795" lon="6.69093">
        <ele>1153</ele>
        <time>2021-09-18T13:09:46Z</time>
      </trkpt>
      <trkpt lat="43.87947" lon="6.69097">
        <ele>1152.4</ele>
        <time>2021-09-18T13:09:48Z</time>
      </trkpt>
      <trkpt lat="43.87944" lon="6.69102">
        <ele>1151.8</ele>
        <time>2021-09-18T13:09:49Z</time>
      </trkpt>
      <trkpt lat="43.87943" lon="6.69106">
        <ele>1151.3</ele>
        <time>2021-09-18T13:09:50Z</time>
      </trkpt>
      <trkpt lat="43.87942" lon="6.69112">
        <ele>1150.6</ele>
        <time>2021-09-18T13:09:51Z</time>
      </trkpt>
      <trkpt lat="43.87942" lon="6.69118">
        <ele>1150</ele>
        <time>2021-09-18T13:09:53Z</time>
      </trkpt>
      <trkpt lat="43.87942" lon="6.69124">
        <ele>1149.4</ele>
        <time>2021-09-18T13:09:54Z</time>
      </trkpt>
      <trkpt lat="43.87941" lon="6.69129">
        <ele>1148.8</ele>
        <time>2021-09-18T13:09:55Z</time>
      </trkpt>
      <trkpt lat="43.8794" lon="6.69131">
        <ele>1148.5</ele>
        <time>2021-09-18T13:09:56Z</time>
      </trkpt>
      <trkpt lat="43.87937" lon="6.69135">
        <ele>1148</ele>
        <time>2021-09-18T13:09:58Z</time>
      </trkpt>
      <trkpt lat="43.87936" lon="6.69136">
        <ele>1147.8</ele>
        <time>2021-09-18T13:09:59Z</time>
      </trkpt>
      <trkpt lat="43.87932" lon="6.69141">
        <ele>1147.2</ele>
        <time>2021-09-18T13:10:00Z</time>
      </trkpt>
      <trkpt lat="43.87927" lon="6.69148">
        <ele>1146.5</ele>
        <time>2021-09-18T13:10:02Z</time>
      </trkpt>
      <trkpt lat="43.87925" lon="6.69153">
        <ele>1146.1</ele>
        <time>2021-09-18T13:10:03Z</time>
      </trkpt>
      <trkpt lat="43.87923" lon="6.69156">
        <ele>1145.9</ele>
        <time>2021-09-18T13:10:04Z</time>
      </trkpt>
      <trkpt lat="43.87922" lon="6.69161">
        <ele>1145.6</ele>
        <time>2021-09-18T13:10:06Z</time>
      </trkpt>
      <trkpt lat="43.87923" lon="6.69167">
        <ele>1145.3</ele>
        <time>2021-09-18T13:10:07Z</time>
      </trkpt>
      <trkpt lat="43.87924" lon="6.69171">
        <ele>1145</ele>
        <time>2021-09-18T13:10:08Z</time>
      </trkpt>
      <trkpt lat="43.87924" lon="6.69177">
        <ele>1144.8</ele>
        <time>2021-09-18T13:10:09Z</time>
      </trkpt>
      <trkpt lat="43.87923" lon="6.69184">
        <ele>1144.7</ele>
        <time>2021-09-18T13:10:11Z</time>
      </trkpt>
      <trkpt lat="43.87921" lon="6.69194">
        <ele>1144.7</ele>
        <time>2021-09-18T13:10:13Z</time>
      </trkpt>
      <trkpt lat="43.8792" lon="6.69207">
        <ele>1144.9</ele>
        <time>2021-09-18T13:10:14Z</time>
      </trkpt>
      <trkpt lat="43.87918" lon="6.69214">
        <ele>1145.1</ele>
        <time>2021-09-18T13:10:15Z</time>
      </trkpt>
      <trkpt lat="43.87917" lon="6.6922">
        <ele>1145.2</ele>
        <time>2021-09-18T13:10:17Z</time>
      </trkpt>
      <trkpt lat="43.87917" lon="6.69224">
        <ele>1145.2</ele>
        <time>2021-09-18T13:10:18Z</time>
      </trkpt>
      <trkpt lat="43.87916" lon="6.69229">
        <ele>1145.2</ele>
        <time>2021-09-18T13:10:19Z</time>
      </trkpt>
      <trkpt lat="43.87916" lon="6.69233">
        <ele>1145.1</ele>
        <time>2021-09-18T13:10:20Z</time>
      </trkpt>
      <trkpt lat="43.87917" lon="6.69238">
        <ele>1145.1</ele>
        <time>2021-09-18T13:10:21Z</time>
      </trkpt>
      <trkpt lat="43.87917" lon="6.69241">
        <ele>1145</ele>
        <time>2021-09-18T13:10:22Z</time>
      </trkpt>
      <trkpt lat="43.87917" lon="6.69246">
        <ele>1144.8</ele>
        <time>2021-09-18T13:10:23Z</time>
      </trkpt>
      <trkpt lat="43.87917" lon="6.69255">
        <ele>1144.4</ele>
        <time>2021-09-18T13:10:25Z</time>
      </trkpt>
      <trkpt lat="43.87918" lon="6.69259">
        <ele>1144.2</ele>
        <time>2021-09-18T13:10:26Z</time>
      </trkpt>
      <trkpt lat="43.87918" lon="6.69262">
        <ele>1143.9</ele>
        <time>2021-09-18T13:10:27Z</time>
      </trkpt>
      <trkpt lat="43.87919" lon="6.69265">
        <ele>1143.6</ele>
        <time>2021-09-18T13:10:29Z</time>
      </trkpt>
      <trkpt lat="43.87919" lon="6.69268">
        <ele>1143.3</ele>
        <time>2021-09-18T13:10:31Z</time>
      </trkpt>
      <trkpt lat="43.8792" lon="6.69269">
        <ele>1143.1</ele>
        <time>2021-09-18T13:10:32Z</time>
      </trkpt>
      <trkpt lat="43.87921" lon="6.69271">
        <ele>1142.8</ele>
        <time>2021-09-18T13:10:33Z</time>
      </trkpt>
      <trkpt lat="43.87922" lon="6.69273">
        <ele>1142.6</ele>
        <time>2021-09-18T13:10:35Z</time>
      </trkpt>
      <trkpt lat="43.87921" lon="6.69276">
        <ele>1142.3</ele>
        <time>2021-09-18T13:10:36Z</time>
      </trkpt>
      <trkpt lat="43.87921" lon="6.69278">
        <ele>1142.1</ele>
        <time>2021-09-18T13:10:37Z</time>
      </trkpt>
      <trkpt lat="43.8792" lon="6.6928">
        <ele>1141.8</ele>
        <time>2021-09-18T13:10:38Z</time>
      </trkpt>
      <trkpt lat="43.87919" lon="6.69281">
        <ele>1141.6</ele>
        <time>2021-09-18T13:10:40Z</time>
      </trkpt>
      <trkpt lat="43.87918" lon="6.69282">
        <ele>1141.4</ele>
        <time>2021-09-18T13:10:41Z</time>
      </trkpt>
      <trkpt lat="43.87916" lon="6.69285">
        <ele>1141</ele>
        <time>2021-09-18T13:10:43Z</time>
      </trkpt>
      <trkpt lat="43.87912" lon="6.69284">
        <ele>1140.5</ele>
        <time>2021-09-18T13:10:44Z</time>
      </trkpt>
      <trkpt lat="43.87906" lon="6.69283">
        <ele>1139.8</ele>
        <time>2021-09-18T13:10:45Z</time>
      </trkpt>
      <trkpt lat="43.87895" lon="6.69282">
        <ele>1138.5</ele>
        <time>2021-09-18T13:10:47Z</time>
      </trkpt>
      <trkpt lat="43.87889" lon="6.69284">
        <ele>1137.8</ele>
        <time>2021-09-18T13:10:49Z</time>
      </trkpt>
      <trkpt lat="43.87886" lon="6.69287">
        <ele>1137.4</ele>
        <time>2021-09-18T13:10:50Z</time>
      </trkpt>
      <trkpt lat="43.87884" lon="6.69288">
        <ele>1137.2</ele>
        <time>2021-09-18T13:10:51Z</time>
      </trkpt>
      <trkpt lat="43.87878" lon="6.69291">
        <ele>1136.7</ele>
        <time>2021-09-18T13:10:52Z</time>
      </trkpt>
      <trkpt lat="43.87874" lon="6.69293">
        <ele>1136.3</ele>
        <time>2021-09-18T13:10:53Z</time>
      </trkpt>
      <trkpt lat="43.87869" lon="6.69299">
        <ele>1135.9</ele>
        <time>2021-09-18T13:10:55Z</time>
      </trkpt>
      <trkpt lat="43.87866" lon="6.69305">
        <ele>1135.6</ele>
        <time>2021-09-18T13:10:56Z</time>
      </trkpt>
      <trkpt lat="43.8786" lon="6.69311">
        <ele>1135</ele>
        <time>2021-09-18T13:10:58Z</time>
      </trkpt>
      <trkpt lat="43.87858" lon="6.69312">
        <ele>1134.8</ele>
        <time>2021-09-18T13:10:59Z</time>
      </trkpt>
      <trkpt lat="43.87854" lon="6.69313">
        <ele>1134.4</ele>
        <time>2021-09-18T13:11:01Z</time>
      </trkpt>
      <trkpt lat="43.87852" lon="6.69316">
        <ele>1134</ele>
        <time>2021-09-18T13:11:02Z</time>
      </trkpt>
      <trkpt lat="43.8785" lon="6.69319">
        <ele>1133.7</ele>
        <time>2021-09-18T13:11:03Z</time>
      </trkpt>
      <trkpt lat="43.87849" lon="6.69324">
        <ele>1133.1</ele>
        <time>2021-09-18T13:11:04Z</time>
      </trkpt>
      <trkpt lat="43.87848" lon="6.69331">
        <ele>1132.4</ele>
        <time>2021-09-18T13:11:06Z</time>
      </trkpt>
      <trkpt lat="43.87848" lon="6.69333">
        <ele>1132.1</ele>
        <time>2021-09-18T13:11:07Z</time>
      </trkpt>
      <trkpt lat="43.87848" lon="6.69335">
        <ele>1131.9</ele>
        <time>2021-09-18T13:11:08Z</time>
      </trkpt>
      <trkpt lat="43.87847" lon="6.69337">
        <ele>1131.5</ele>
        <time>2021-09-18T13:11:09Z</time>
      </trkpt>
      <trkpt lat="43.87846" lon="6.6934">
        <ele>1131.1</ele>
        <time>2021-09-18T13:11:11Z</time>
      </trkpt>
      <trkpt lat="43.87846" lon="6.6934">
        <ele>1131.1</ele>
        <time>2021-09-18T13:11:12Z</time>
      </trkpt>
      <trkpt lat="43.87846" lon="6.69341">
        <ele>1131.1</ele>
        <time>2021-09-18T13:11:14Z</time>
      </trkpt>
      <trkpt lat="43.87846" lon="6.69341">
        <ele>1131.1</ele>
        <time>2021-09-18T13:11:16Z</time>
      </trkpt>
      <trkpt lat="43.87846" lon="6.69341">
        <ele>1131.1</ele>
        <time>2021-09-18T13:11:18Z</time>
      </trkpt>
      <trkpt lat="43.87846" lon="6.69341">
        <ele>1131.1</ele>
        <time>2021-09-18T13:11:19Z</time>
      </trkpt>
      <trkpt lat="43.87834" lon="6.69348">
        <ele>1130</ele>
        <time>2021-09-18T13:11:31Z</time>
      </trkpt>
      <trkpt lat="43.8783" lon="6.69351">
        <ele>1129.8</ele>
        <time>2021-09-18T13:11:32Z</time>
      </trkpt>
      <trkpt lat="43.87825" lon="6.69355">
        <ele>1129.5</ele>
        <time>2021-09-18T13:11:33Z</time>
      </trkpt>
      <trkpt lat="43.87822" lon="6.69359">
        <ele>1129.3</ele>
        <time>2021-09-18T13:11:34Z</time>
      </trkpt>
      <trkpt lat="43.8782" lon="6.69363">
        <ele>1129.1</ele>
        <time>2021-09-18T13:11:35Z</time>
      </trkpt>
      <trkpt lat="43.87817" lon="6.69365">
        <ele>1128.9</ele>
        <time>2021-09-18T13:11:36Z</time>
      </trkpt>
      <trkpt lat="43.87812" lon="6.69368">
        <ele>1128.3</ele>
        <time>2021-09-18T13:11:38Z</time>
      </trkpt>
      <trkpt lat="43.87809" lon="6.69369">
        <ele>1127.9</ele>
        <time>2021-09-18T13:11:40Z</time>
      </trkpt>
      <trkpt lat="43.87806" lon="6.6937">
        <ele>1127.6</ele>
        <time>2021-09-18T13:11:41Z</time>
      </trkpt>
      <trkpt lat="43.87803" lon="6.69373">
        <ele>1127</ele>
        <time>2021-09-18T13:11:43Z</time>
      </trkpt>
      <trkpt lat="43.87802" lon="6.69375">
        <ele>1126.8</ele>
        <time>2021-09-18T13:11:44Z</time>
      </trkpt>
      <trkpt lat="43.878" lon="6.69379">
        <ele>1126.3</ele>
        <time>2021-09-18T13:11:46Z</time>
      </trkpt>
      <trkpt lat="43.87799" lon="6.69381">
        <ele>1126</ele>
        <time>2021-09-18T13:11:47Z</time>
      </trkpt>
      <trkpt lat="43.87798" lon="6.69385">
        <ele>1125.7</ele>
        <time>2021-09-18T13:11:49Z</time>
      </trkpt>
      <trkpt lat="43.87796" lon="6.6939">
        <ele>1125.1</ele>
        <time>2021-09-18T13:11:50Z</time>
      </trkpt>
      <trkpt lat="43.87795" lon="6.69394">
        <ele>1124.7</ele>
        <time>2021-09-18T13:11:51Z</time>
      </trkpt>
      <trkpt lat="43.87794" lon="6.69399">
        <ele>1124</ele>
        <time>2021-09-18T13:11:53Z</time>
      </trkpt>
      <trkpt lat="43.87792" lon="6.69403">
        <ele>1123.5</ele>
        <time>2021-09-18T13:11:54Z</time>
      </trkpt>
      <trkpt lat="43.8779" lon="6.69405">
        <ele>1123.1</ele>
        <time>2021-09-18T13:11:55Z</time>
      </trkpt>
      <trkpt lat="43.87788" lon="6.69408">
        <ele>1122.5</ele>
        <time>2021-09-18T13:11:56Z</time>
      </trkpt>
      <trkpt lat="43.87787" lon="6.69408">
        <ele>1122.3</ele>
        <time>2021-09-18T13:11:57Z</time>
      </trkpt>
      <trkpt lat="43.87783" lon="6.69409">
        <ele>1121.7</ele>
        <time>2021-09-18T13:11:59Z</time>
      </trkpt>
      <trkpt lat="43.87779" lon="6.69409">
        <ele>1121</ele>
        <time>2021-09-18T13:12:00Z</time>
      </trkpt>
      <trkpt lat="43.87776" lon="6.69414">
        <ele>1120.3</ele>
        <time>2021-09-18T13:12:02Z</time>
      </trkpt>
      <trkpt lat="43.87774" lon="6.69421">
        <ele>1119.7</ele>
        <time>2021-09-18T13:12:04Z</time>
      </trkpt>
      <trkpt lat="43.87773" lon="6.69424">
        <ele>1119.4</ele>
        <time>2021-09-18T13:12:05Z</time>
      </trkpt>
      <trkpt lat="43.87772" lon="6.69427">
        <ele>1119.2</ele>
        <time>2021-09-18T13:12:06Z</time>
      </trkpt>
      <trkpt lat="43.87771" lon="6.69432">
        <ele>1119</ele>
        <time>2021-09-18T13:12:08Z</time>
      </trkpt>
      <trkpt lat="43.8777" lon="6.69436">
        <ele>1118.8</ele>
        <time>2021-09-18T13:12:09Z</time>
      </trkpt>
      <trkpt lat="43.87769" lon="6.6944">
        <ele>1118.6</ele>
        <time>2021-09-18T13:12:10Z</time>
      </trkpt>
      <trkpt lat="43.87769" lon="6.69444">
        <ele>1118.3</ele>
        <time>2021-09-18T13:12:11Z</time>
      </trkpt>
      <trkpt lat="43.87768" lon="6.69452">
        <ele>1117.8</ele>
        <time>2021-09-18T13:12:13Z</time>
      </trkpt>
      <trkpt lat="43.87766" lon="6.69456">
        <ele>1117.4</ele>
        <time>2021-09-18T13:12:15Z</time>
      </trkpt>
      <trkpt lat="43.87765" lon="6.69457">
        <ele>1117.3</ele>
        <time>2021-09-18T13:12:16Z</time>
      </trkpt>
      <trkpt lat="43.87765" lon="6.6946">
        <ele>1116.9</ele>
        <time>2021-09-18T13:12:17Z</time>
      </trkpt>
      <trkpt lat="43.87764" lon="6.69462">
        <ele>1116.7</ele>
        <time>2021-09-18T13:12:18Z</time>
      </trkpt>
      <trkpt lat="43.87764" lon="6.69463">
        <ele>1116.5</ele>
        <time>2021-09-18T13:12:19Z</time>
      </trkpt>
      <trkpt lat="43.87763" lon="6.69462">
        <ele>1116.4</ele>
        <time>2021-09-18T13:12:20Z</time>
      </trkpt>
      <trkpt lat="43.87763" lon="6.69462">
        <ele>1116.3</ele>
        <time>2021-09-18T13:12:22Z</time>
      </trkpt>
      <trkpt lat="43.87762" lon="6.69463">
        <ele>1116.2</ele>
        <time>2021-09-18T13:12:23Z</time>
      </trkpt>
      <trkpt lat="43.87761" lon="6.69464">
        <ele>1115.9</ele>
        <time>2021-09-18T13:12:25Z</time>
      </trkpt>
      <trkpt lat="43.8776" lon="6.69466">
        <ele>1115.6</ele>
        <time>2021-09-18T13:12:26Z</time>
      </trkpt>
      <trkpt lat="43.87757" lon="6.69469">
        <ele>1114.8</ele>
        <time>2021-09-18T13:12:28Z</time>
      </trkpt>
      <trkpt lat="43.87755" lon="6.69474">
        <ele>1114.1</ele>
        <time>2021-09-18T13:12:29Z</time>
      </trkpt>
      <trkpt lat="43.87751" lon="6.69478">
        <ele>1113.2</ele>
        <time>2021-09-18T13:12:30Z</time>
      </trkpt>
      <trkpt lat="43.87749" lon="6.6948">
        <ele>1112.7</ele>
        <time>2021-09-18T13:12:31Z</time>
      </trkpt>
      <trkpt lat="43.87746" lon="6.69483">
        <ele>1112</ele>
        <time>2021-09-18T13:12:33Z</time>
      </trkpt>
      <trkpt lat="43.87744" lon="6.69484">
        <ele>1111.7</ele>
        <time>2021-09-18T13:12:34Z</time>
      </trkpt>
      <trkpt lat="43.87744" lon="6.69486">
        <ele>1111.5</ele>
        <time>2021-09-18T13:12:36Z</time>
      </trkpt>
      <trkpt lat="43.87744" lon="6.69487">
        <ele>1111.4</ele>
        <time>2021-09-18T13:12:38Z</time>
      </trkpt>
      <trkpt lat="43.87744" lon="6.69488">
        <ele>1111.3</ele>
        <time>2021-09-18T13:12:40Z</time>
      </trkpt>
      <trkpt lat="43.87744" lon="6.69488">
        <ele>1111.2</ele>
        <time>2021-09-18T13:12:41Z</time>
      </trkpt>
      <trkpt lat="43.87744" lon="6.69488">
        <ele>1111.2</ele>
        <time>2021-09-18T13:12:43Z</time>
      </trkpt>
      <trkpt lat="43.87728" lon="6.69508">
        <ele>1108</ele>
        <time>2021-09-18T13:13:16Z</time>
      </trkpt>
      <trkpt lat="43.87724" lon="6.69512">
        <ele>1107.3</ele>
        <time>2021-09-18T13:13:18Z</time>
      </trkpt>
      <trkpt lat="43.87721" lon="6.69513">
        <ele>1106.8</ele>
        <time>2021-09-18T13:13:19Z</time>
      </trkpt>
      <trkpt lat="43.8772" lon="6.69513">
        <ele>1106.7</ele>
        <time>2021-09-18T13:13:20Z</time>
      </trkpt>
      <trkpt lat="43.87719" lon="6.69512">
        <ele>1106.5</ele>
        <time>2021-09-18T13:13:22Z</time>
      </trkpt>
      <trkpt lat="43.87719" lon="6.69512">
        <ele>1106.4</ele>
        <time>2021-09-18T13:13:24Z</time>
      </trkpt>
      <trkpt lat="43.87718" lon="6.69511">
        <ele>1106.3</ele>
        <time>2021-09-18T13:13:25Z</time>
      </trkpt>
      <trkpt lat="43.87711" lon="6.69515">
        <ele>1104.9</ele>
        <time>2021-09-18T13:13:26Z</time>
      </trkpt>
      <trkpt lat="43.87705" lon="6.69519">
        <ele>1103.4</ele>
        <time>2021-09-18T13:13:28Z</time>
      </trkpt>
      <trkpt lat="43.87698" lon="6.69523">
        <ele>1102.2</ele>
        <time>2021-09-18T13:13:29Z</time>
      </trkpt>
      <trkpt lat="43.87691" lon="6.69527">
        <ele>1101.2</ele>
        <time>2021-09-18T13:14:09Z</time>
      </trkpt>
      <trkpt lat="43.87684" lon="6.69531">
        <ele>1100.2</ele>
        <time>2021-09-18T13:14:10Z</time>
      </trkpt>
      <trkpt lat="43.87681" lon="6.69533">
        <ele>1099.7</ele>
        <time>2021-09-18T13:14:11Z</time>
      </trkpt>
      <trkpt lat="43.87677" lon="6.69535">
        <ele>1099</ele>
        <time>2021-09-18T13:14:13Z</time>
      </trkpt>
      <trkpt lat="43.87671" lon="6.69538">
        <ele>1097.9</ele>
        <time>2021-09-18T13:14:14Z</time>
      </trkpt>
      <trkpt lat="43.87665" lon="6.69541">
        <ele>1096.6</ele>
        <time>2021-09-18T13:14:16Z</time>
      </trkpt>
      <trkpt lat="43.87662" lon="6.69542">
        <ele>1095.6</ele>
        <time>2021-09-18T13:14:17Z</time>
      </trkpt>
      <trkpt lat="43.87658" lon="6.69545">
        <ele>1094.7</ele>
        <time>2021-09-18T13:14:18Z</time>
      </trkpt>
      <trkpt lat="43.87655" lon="6.69546">
        <ele>1094</ele>
        <time>2021-09-18T13:14:19Z</time>
      </trkpt>
      <trkpt lat="43.87654" lon="6.69549">
        <ele>1093.3</ele>
        <time>2021-09-18T13:14:20Z</time>
      </trkpt>
      <trkpt lat="43.8765" lon="6.69554">
        <ele>1092</ele>
        <time>2021-09-18T13:14:22Z</time>
      </trkpt>
      <trkpt lat="43.87648" lon="6.69553">
        <ele>1091.5</ele>
        <time>2021-09-18T13:14:23Z</time>
      </trkpt>
      <trkpt lat="43.87647" lon="6.69553">
        <ele>1091.3</ele>
        <time>2021-09-18T13:14:24Z</time>
      </trkpt>
      <trkpt lat="43.87647" lon="6.69552">
        <ele>1091.1</ele>
        <time>2021-09-18T13:14:26Z</time>
      </trkpt>
      <trkpt lat="43.87647" lon="6.69551">
        <ele>1090.8</ele>
        <time>2021-09-18T13:14:27Z</time>
      </trkpt>
      <trkpt lat="43.87645" lon="6.69548">
        <ele>1090.1</ele>
        <time>2021-09-18T13:14:29Z</time>
      </trkpt>
      <trkpt lat="43.87645" lon="6.69547">
        <ele>1089.8</ele>
        <time>2021-09-18T13:14:30Z</time>
      </trkpt>
      <trkpt lat="43.87645" lon="6.69546">
        <ele>1089.6</ele>
        <time>2021-09-18T13:14:31Z</time>
      </trkpt>
      <trkpt lat="43.87643" lon="6.69545">
        <ele>1089.2</ele>
        <time>2021-09-18T13:14:33Z</time>
      </trkpt>
      <trkpt lat="43.87642" lon="6.69545">
        <ele>1088.8</ele>
        <time>2021-09-18T13:14:34Z</time>
      </trkpt>
      <trkpt lat="43.87641" lon="6.69546">
        <ele>1088.6</ele>
        <time>2021-09-18T13:14:35Z</time>
      </trkpt>
      <trkpt lat="43.87641" lon="6.69546">
        <ele>1088.5</ele>
        <time>2021-09-18T13:14:36Z</time>
      </trkpt>
      <trkpt lat="43.87643" lon="6.69544">
        <ele>1087.9</ele>
        <time>2021-09-18T13:14:38Z</time>
      </trkpt>
      <trkpt lat="43.87644" lon="6.69544">
        <ele>1087.8</ele>
        <time>2021-09-18T13:14:40Z</time>
      </trkpt>
      <trkpt lat="43.87644" lon="6.69544">
        <ele>1087.8</ele>
        <time>2021-09-18T13:14:41Z</time>
      </trkpt>
      <trkpt lat="43.87643" lon="6.69544">
        <ele>1087.7</ele>
        <time>2021-09-18T13:14:43Z</time>
      </trkpt>
      <trkpt lat="43.87643" lon="6.69544">
        <ele>1087.7</ele>
        <time>2021-09-18T13:14:44Z</time>
      </trkpt>
      <trkpt lat="43.87643" lon="6.69544">
        <ele>1087.7</ele>
        <time>2021-09-18T13:14:46Z</time>
      </trkpt>
      <trkpt lat="43.87623" lon="6.6956">
        <ele>1082.4</ele>
        <time>2021-09-18T13:15:13Z</time>
      </trkpt>
      <trkpt lat="43.87619" lon="6.69562">
        <ele>1081.6</ele>
        <time>2021-09-18T13:15:15Z</time>
      </trkpt>
      <trkpt lat="43.87616" lon="6.69563">
        <ele>1080.9</ele>
        <time>2021-09-18T13:15:16Z</time>
      </trkpt>
      <trkpt lat="43.87614" lon="6.69564">
        <ele>1080.5</ele>
        <time>2021-09-18T13:15:17Z</time>
      </trkpt>
      <trkpt lat="43.8761" lon="6.69564">
        <ele>1079.7</ele>
        <time>2021-09-18T13:15:19Z</time>
      </trkpt>
      <trkpt lat="43.87608" lon="6.69564">
        <ele>1079.5</ele>
        <time>2021-09-18T13:15:21Z</time>
      </trkpt>
      <trkpt lat="43.87608" lon="6.69561">
        <ele>1079</ele>
        <time>2021-09-18T13:15:22Z</time>
      </trkpt>
      <trkpt lat="43.87606" lon="6.69557">
        <ele>1078.3</ele>
        <time>2021-09-18T13:15:24Z</time>
      </trkpt>
      <trkpt lat="43.87603" lon="6.69555">
        <ele>1077.7</ele>
        <time>2021-09-18T13:15:25Z</time>
      </trkpt>
      <trkpt lat="43.876" lon="6.69552">
        <ele>1077</ele>
        <time>2021-09-18T13:15:26Z</time>
      </trkpt>
      <trkpt lat="43.87599" lon="6.69551">
        <ele>1076.7</ele>
        <time>2021-09-18T13:15:27Z</time>
      </trkpt>
      <trkpt lat="43.87598" lon="6.69546">
        <ele>1076.1</ele>
        <time>2021-09-18T13:15:29Z</time>
      </trkpt>
      <trkpt lat="43.87597" lon="6.69546">
        <ele>1075.9</ele>
        <time>2021-09-18T13:15:30Z</time>
      </trkpt>
      <trkpt lat="43.87597" lon="6.69547">
        <ele>1075.8</ele>
        <time>2021-09-18T13:15:31Z</time>
      </trkpt>
      <trkpt lat="43.87597" lon="6.69553">
        <ele>1074.9</ele>
        <time>2021-09-18T13:15:33Z</time>
      </trkpt>
      <trkpt lat="43.87597" lon="6.69558">
        <ele>1074.3</ele>
        <time>2021-09-18T13:15:34Z</time>
      </trkpt>
      <trkpt lat="43.87596" lon="6.69562">
        <ele>1073.8</ele>
        <time>2021-09-18T13:15:36Z</time>
      </trkpt>
      <trkpt lat="43.87596" lon="6.69563">
        <ele>1073.6</ele>
        <time>2021-09-18T13:15:37Z</time>
      </trkpt>
      <trkpt lat="43.87595" lon="6.69567">
        <ele>1073</ele>
        <time>2021-09-18T13:15:38Z</time>
      </trkpt>
      <trkpt lat="43.87593" lon="6.69573">
        <ele>1072.3</ele>
        <time>2021-09-18T13:15:40Z</time>
      </trkpt>
      <trkpt lat="43.87591" lon="6.69575">
        <ele>1071.8</ele>
        <time>2021-09-18T13:15:41Z</time>
      </trkpt>
      <trkpt lat="43.87588" lon="6.69577">
        <ele>1071.3</ele>
        <time>2021-09-18T13:15:42Z</time>
      </trkpt>
      <trkpt lat="43.87585" lon="6.69579">
        <ele>1070.7</ele>
        <time>2021-09-18T13:15:44Z</time>
      </trkpt>
      <trkpt lat="43.87582" lon="6.69581">
        <ele>1070.3</ele>
        <time>2021-09-18T13:15:45Z</time>
      </trkpt>
      <trkpt lat="43.87578" lon="6.69582">
        <ele>1069.8</ele>
        <time>2021-09-18T13:15:47Z</time>
      </trkpt>
      <trkpt lat="43.87573" lon="6.69582">
        <ele>1069.4</ele>
        <time>2021-09-18T13:15:49Z</time>
      </trkpt>
      <trkpt lat="43.87572" lon="6.69582">
        <ele>1069.3</ele>
        <time>2021-09-18T13:15:50Z</time>
      </trkpt>
      <trkpt lat="43.87571" lon="6.69582">
        <ele>1069.3</ele>
        <time>2021-09-18T13:15:52Z</time>
      </trkpt>
      <trkpt lat="43.87571" lon="6.69582">
        <ele>1069.2</ele>
        <time>2021-09-18T13:15:53Z</time>
      </trkpt>
      <trkpt lat="43.87571" lon="6.69582">
        <ele>1069.2</ele>
        <time>2021-09-18T13:15:55Z</time>
      </trkpt>
      <trkpt lat="43.8757" lon="6.69582">
        <ele>1069.2</ele>
        <time>2021-09-18T13:15:56Z</time>
      </trkpt>
      <trkpt lat="43.8757" lon="6.69582">
        <ele>1069.2</ele>
        <time>2021-09-18T13:15:58Z</time>
      </trkpt>
      <trkpt lat="43.87502" lon="6.69583">
        <ele>1077.6</ele>
        <time>2021-09-18T13:19:22Z</time>
      </trkpt>
      <trkpt lat="43.87501" lon="6.69584">
        <ele>1077.9</ele>
        <time>2021-09-18T13:19:23Z</time>
      </trkpt>
      <trkpt lat="43.87499" lon="6.69585">
        <ele>1078.2</ele>
        <time>2021-09-18T13:19:24Z</time>
      </trkpt>
      <trkpt lat="43.87498" lon="6.69586">
        <ele>1078.4</ele>
        <time>2021-09-18T13:19:25Z</time>
      </trkpt>
      <trkpt lat="43.87498" lon="6.69586">
        <ele>1078.5</ele>
        <time>2021-09-18T13:19:26Z</time>
      </trkpt>
      <trkpt lat="43.87497" lon="6.69587">
        <ele>1078.6</ele>
        <time>2021-09-18T13:19:28Z</time>
      </trkpt>
      <trkpt lat="43.87497" lon="6.69587">
        <ele>1078.6</ele>
        <time>2021-09-18T13:19:29Z</time>
      </trkpt>
      <trkpt lat="43.87497" lon="6.69587">
        <ele>1078.7</ele>
        <time>2021-09-18T13:19:31Z</time>
      </trkpt>
      <trkpt lat="43.87496" lon="6.69587">
        <ele>1078.7</ele>
        <time>2021-09-18T13:19:32Z</time>
      </trkpt>
      <trkpt lat="43.87481" lon="6.69596">
        <ele>1081.7</ele>
        <time>2021-09-18T13:19:33Z</time>
      </trkpt>
      <trkpt lat="43.87466" lon="6.69605">
        <ele>1084.9</ele>
        <time>2021-09-18T13:19:35Z</time>
      </trkpt>
      <trkpt lat="43.87451" lon="6.69613">
        <ele>1087.1</ele>
        <time>2021-09-18T13:21:11Z</time>
      </trkpt>
      <trkpt lat="43.87436" lon="6.69622">
        <ele>1086.1</ele>
        <time>2021-09-18T13:21:12Z</time>
      </trkpt>
      <trkpt lat="43.87433" lon="6.69624">
        <ele>1085.5</ele>
        <time>2021-09-18T13:21:14Z</time>
      </trkpt>
      <trkpt lat="43.8743" lon="6.69625">
        <ele>1085</ele>
        <time>2021-09-18T13:21:15Z</time>
      </trkpt>
      <trkpt lat="43.87423" lon="6.69626">
        <ele>1084</ele>
        <time>2021-09-18T13:21:17Z</time>
      </trkpt>
      <trkpt lat="43.87418" lon="6.69627">
        <ele>1083.2</ele>
        <time>2021-09-18T13:21:18Z</time>
      </trkpt>
      <trkpt lat="43.87413" lon="6.69628">
        <ele>1082.5</ele>
        <time>2021-09-18T13:21:19Z</time>
      </trkpt>
      <trkpt lat="43.87409" lon="6.6963">
        <ele>1082.1</ele>
        <time>2021-09-18T13:21:21Z</time>
      </trkpt>
      <trkpt lat="43.87406" lon="6.69631">
        <ele>1081.8</ele>
        <time>2021-09-18T13:21:22Z</time>
      </trkpt>
      <trkpt lat="43.87403" lon="6.69631">
        <ele>1081.5</ele>
        <time>2021-09-18T13:21:23Z</time>
      </trkpt>
      <trkpt lat="43.87398" lon="6.6963">
        <ele>1081</ele>
        <time>2021-09-18T13:21:25Z</time>
      </trkpt>
      <trkpt lat="43.87394" lon="6.6963">
        <ele>1080.6</ele>
        <time>2021-09-18T13:21:26Z</time>
      </trkpt>
      <trkpt lat="43.8739" lon="6.69629">
        <ele>1080.1</ele>
        <time>2021-09-18T13:21:27Z</time>
      </trkpt>
      <trkpt lat="43.87383" lon="6.69627">
        <ele>1079.7</ele>
        <time>2021-09-18T13:21:29Z</time>
      </trkpt>
      <trkpt lat="43.87379" lon="6.69627">
        <ele>1079.6</ele>
        <time>2021-09-18T13:21:30Z</time>
      </trkpt>
      <trkpt lat="43.87377" lon="6.69627">
        <ele>1079.6</ele>
        <time>2021-09-18T13:21:31Z</time>
      </trkpt>
      <trkpt lat="43.87376" lon="6.69626">
        <ele>1079.6</ele>
        <time>2021-09-18T13:21:32Z</time>
      </trkpt>
      <trkpt lat="43.87376" lon="6.69628">
        <ele>1079.6</ele>
        <time>2021-09-18T13:21:34Z</time>
      </trkpt>
      <trkpt lat="43.87376" lon="6.69629">
        <ele>1079.7</ele>
        <time>2021-09-18T13:21:35Z</time>
      </trkpt>
      <trkpt lat="43.87377" lon="6.6963">
        <ele>1079.7</ele>
        <time>2021-09-18T13:21:36Z</time>
      </trkpt>
      <trkpt lat="43.87377" lon="6.6963">
        <ele>1079.7</ele>
        <time>2021-09-18T13:21:38Z</time>
      </trkpt>
      <trkpt lat="43.87377" lon="6.69631">
        <ele>1079.7</ele>
        <time>2021-09-18T13:21:40Z</time>
      </trkpt>
      <trkpt lat="43.87377" lon="6.69631">
        <ele>1079.7</ele>
        <time>2021-09-18T13:21:41Z</time>
      </trkpt>
      <trkpt lat="43.87377" lon="6.69631">
        <ele>1079.8</ele>
        <time>2021-09-18T13:21:43Z</time>
      </trkpt>
      <trkpt lat="43.8723" lon="6.69646">
        <ele>1090.6</ele>
        <time>2021-09-18T13:25:07Z</time>
      </trkpt>
      <trkpt lat="43.87225" lon="6.69645">
        <ele>1090.6</ele>
        <time>2021-09-18T13:25:08Z</time>
      </trkpt>
      <trkpt lat="43.87222" lon="6.69644">
        <ele>1090.5</ele>
        <time>2021-09-18T13:25:09Z</time>
      </trkpt>
      <trkpt lat="43.87218" lon="6.69643">
        <ele>1090.5</ele>
        <time>2021-09-18T13:25:11Z</time>
      </trkpt>
      <trkpt lat="43.87217" lon="6.69642">
        <ele>1090.4</ele>
        <time>2021-09-18T13:25:12Z</time>
      </trkpt>
      <trkpt lat="43.87216" lon="6.69642">
        <ele>1090.4</ele>
        <time>2021-09-18T13:25:13Z</time>
      </trkpt>
      <trkpt lat="43.87214" lon="6.6964">
        <ele>1090.4</ele>
        <time>2021-09-18T13:25:14Z</time>
      </trkpt>
      <trkpt lat="43.87212" lon="6.69638">
        <ele>1090.4</ele>
        <time>2021-09-18T13:25:16Z</time>
      </trkpt>
      <trkpt lat="43.8721" lon="6.69634">
        <ele>1090.4</ele>
        <time>2021-09-18T13:25:17Z</time>
      </trkpt>
      <trkpt lat="43.87209" lon="6.69633">
        <ele>1090.4</ele>
        <time>2021-09-18T13:25:18Z</time>
      </trkpt>
      <trkpt lat="43.87209" lon="6.69631">
        <ele>1090.4</ele>
        <time>2021-09-18T13:25:20Z</time>
      </trkpt>
      <trkpt lat="43.87208" lon="6.69629">
        <ele>1090.5</ele>
        <time>2021-09-18T13:25:21Z</time>
      </trkpt>
      <trkpt lat="43.87118" lon="6.69564">
        <ele>1110.8</ele>
        <time>2021-09-18T13:28:34Z</time>
      </trkpt>
      <trkpt lat="43.87113" lon="6.69558">
        <ele>1111.1</ele>
        <time>2021-09-18T13:28:36Z</time>
      </trkpt>
      <trkpt lat="43.87108" lon="6.69552">
        <ele>1111.4</ele>
        <time>2021-09-18T13:28:37Z</time>
      </trkpt>
      <trkpt lat="43.87105" lon="6.69549">
        <ele>1111.6</ele>
        <time>2021-09-18T13:28:38Z</time>
      </trkpt>
      <trkpt lat="43.87102" lon="6.69546">
        <ele>1111.9</ele>
        <time>2021-09-18T13:28:40Z</time>
      </trkpt>
      <trkpt lat="43.87099" lon="6.69543">
        <ele>1112.2</ele>
        <time>2021-09-18T13:28:41Z</time>
      </trkpt>
      <trkpt lat="43.87098" lon="6.69543">
        <ele>1112.3</ele>
        <time>2021-09-18T13:28:42Z</time>
      </trkpt>
      <trkpt lat="43.87096" lon="6.69541">
        <ele>1112.5</ele>
        <time>2021-09-18T13:28:44Z</time>
      </trkpt>
      <trkpt lat="43.87096" lon="6.69542">
        <ele>1112.7</ele>
        <time>2021-09-18T13:28:46Z</time>
      </trkpt>
      <trkpt lat="43.87096" lon="6.69542">
        <ele>1112.7</ele>
        <time>2021-09-18T13:28:47Z</time>
      </trkpt>
      <trkpt lat="43.87096" lon="6.69543">
        <ele>1112.7</ele>
        <time>2021-09-18T13:28:48Z</time>
      </trkpt>
      <trkpt lat="43.87096" lon="6.69544">
        <ele>1112.8</ele>
        <time>2021-09-18T13:28:50Z</time>
      </trkpt>
      <trkpt lat="43.87095" lon="6.69547">
        <ele>1113.1</ele>
        <time>2021-09-18T13:28:52Z</time>
      </trkpt>
      <trkpt lat="43.87076" lon="6.69549">
        <ele>1116.3</ele>
        <time>2021-09-18T13:33:19Z</time>
      </trkpt>
      <trkpt lat="43.87075" lon="6.6955">
        <ele>1116.6</ele>
        <time>2021-09-18T13:33:20Z</time>
      </trkpt>
      <trkpt lat="43.87075" lon="6.6955">
        <ele>1116.7</ele>
        <time>2021-09-18T13:33:21Z</time>
      </trkpt>
      <trkpt lat="43.87075" lon="6.69549">
        <ele>1116.8</ele>
        <time>2021-09-18T13:33:23Z</time>
      </trkpt>
      <trkpt lat="43.87076" lon="6.69549">
        <ele>1116.9</ele>
        <time>2021-09-18T13:33:25Z</time>
      </trkpt>
      <trkpt lat="43.87076" lon="6.69548">
        <ele>1116.9</ele>
        <time>2021-09-18T13:33:26Z</time>
      </trkpt>
      <trkpt lat="43.87075" lon="6.69548">
        <ele>1117.1</ele>
        <time>2021-09-18T13:33:27Z</time>
      </trkpt>
      <trkpt lat="43.87074" lon="6.69548">
        <ele>1117.3</ele>
        <time>2021-09-18T13:33:29Z</time>
      </trkpt>
      <trkpt lat="43.87073" lon="6.69548">
        <ele>1117.4</ele>
        <time>2021-09-18T13:33:30Z</time>
      </trkpt>
      <trkpt lat="43.87052" lon="6.69552">
        <ele>1121.4</ele>
        <time>2021-09-18T13:33:47Z</time>
      </trkpt>
      <trkpt lat="43.8705" lon="6.69553">
        <ele>1121.7</ele>
        <time>2021-09-18T13:33:48Z</time>
      </trkpt>
      <trkpt lat="43.87049" lon="6.69553">
        <ele>1122</ele>
        <time>2021-09-18T13:33:49Z</time>
      </trkpt>
      <trkpt lat="43.87046" lon="6.69554">
        <ele>1122.4</ele>
        <time>2021-09-18T13:33:51Z</time>
      </trkpt>
      <trkpt lat="43.87046" lon="6.69554">
        <ele>1122.5</ele>
        <time>2021-09-18T13:33:53Z</time>
      </trkpt>
      <trkpt lat="43.87045" lon="6.69554">
        <ele>1122.6</ele>
        <time>2021-09-18T13:33:54Z</time>
      </trkpt>
      <trkpt lat="43.87045" lon="6.69554">
        <ele>1122.7</ele>
        <time>2021-09-18T13:33:56Z</time>
      </trkpt>
      <trkpt lat="43.87044" lon="6.69553">
        <ele>1122.8</ele>
        <time>2021-09-18T13:33:57Z</time>
      </trkpt>
      <trkpt lat="43.87044" lon="6.69553">
        <ele>1122.9</ele>
        <time>2021-09-18T13:33:59Z</time>
      </trkpt>
      <trkpt lat="43.87043" lon="6.69553">
        <ele>1123</ele>
        <time>2021-09-18T13:34:00Z</time>
      </trkpt>
      <trkpt lat="43.87042" lon="6.69552">
        <ele>1123.2</ele>
        <time>2021-09-18T13:34:01Z</time>
      </trkpt>
      <trkpt lat="43.87041" lon="6.6955">
        <ele>1123.5</ele>
        <time>2021-09-18T13:34:03Z</time>
      </trkpt>
      <trkpt lat="43.8704" lon="6.69548">
        <ele>1123.9</ele>
        <time>2021-09-18T13:34:04Z</time>
      </trkpt>
      <trkpt lat="43.87017" lon="6.69531">
        <ele>1126.8</ele>
        <time>2021-09-18T13:35:07Z</time>
      </trkpt>
      <trkpt lat="43.87016" lon="6.69529">
        <ele>1126.9</ele>
        <time>2021-09-18T13:35:08Z</time>
      </trkpt>
      <trkpt lat="43.87016" lon="6.69527">
        <ele>1126.9</ele>
        <time>2021-09-18T13:35:10Z</time>
      </trkpt>
      <trkpt lat="43.87016" lon="6.69526">
        <ele>1127</ele>
        <time>2021-09-18T13:35:12Z</time>
      </trkpt>
      <trkpt lat="43.87016" lon="6.69525">
        <ele>1127</ele>
        <time>2021-09-18T13:35:13Z</time>
      </trkpt>
      <trkpt lat="43.87016" lon="6.69524">
        <ele>1127</ele>
        <time>2021-09-18T13:35:15Z</time>
      </trkpt>
      <trkpt lat="43.87016" lon="6.69523">
        <ele>1127</ele>
        <time>2021-09-18T13:35:17Z</time>
      </trkpt>
      <trkpt lat="43.87016" lon="6.69523">
        <ele>1127</ele>
        <time>2021-09-18T13:35:18Z</time>
      </trkpt>
      <trkpt lat="43.87014" lon="6.69511">
        <ele>1127.5</ele>
        <time>2021-09-18T13:35:28Z</time>
      </trkpt>
      <trkpt lat="43.87012" lon="6.69509">
        <ele>1127.7</ele>
        <time>2021-09-18T13:35:29Z</time>
      </trkpt>
      <trkpt lat="43.87011" lon="6.69505">
        <ele>1128</ele>
        <time>2021-09-18T13:35:31Z</time>
      </trkpt>
      <trkpt lat="43.87009" lon="6.69502">
        <ele>1128.4</ele>
        <time>2021-09-18T13:35:33Z</time>
      </trkpt>
      <trkpt lat="43.87007" lon="6.69499">
        <ele>1128.7</ele>
        <time>2021-09-18T13:35:34Z</time>
      </trkpt>
      <trkpt lat="43.87007" lon="6.69499">
        <ele>1128.7</ele>
        <time>2021-09-18T13:35:35Z</time>
      </trkpt>
      <trkpt lat="43.87007" lon="6.69499">
        <ele>1128.8</ele>
        <time>2021-09-18T13:35:36Z</time>
      </trkpt>
      <trkpt lat="43.87007" lon="6.69499">
        <ele>1128.8</ele>
        <time>2021-09-18T13:35:38Z</time>
      </trkpt>
      <trkpt lat="43.87007" lon="6.69499">
        <ele>1128.8</ele>
        <time>2021-09-18T13:35:39Z</time>
      </trkpt>
      <trkpt lat="43.87007" lon="6.69499">
        <ele>1128.8</ele>
        <time>2021-09-18T13:35:41Z</time>
      </trkpt>
      <trkpt lat="43.86888" lon="6.69402">
        <ele>1149.8</ele>
        <time>2021-09-18T13:39:49Z</time>
      </trkpt>
      <trkpt lat="43.86888" lon="6.694">
        <ele>1149.9</ele>
        <time>2021-09-18T13:39:50Z</time>
      </trkpt>
      <trkpt lat="43.86887" lon="6.69399">
        <ele>1149.9</ele>
        <time>2021-09-18T13:39:51Z</time>
      </trkpt>
      <trkpt lat="43.86886" lon="6.69397">
        <ele>1150</ele>
        <time>2021-09-18T13:39:53Z</time>
      </trkpt>
      <trkpt lat="43.86886" lon="6.69396">
        <ele>1150.1</ele>
        <time>2021-09-18T13:39:54Z</time>
      </trkpt>
      <trkpt lat="43.86882" lon="6.69393">
        <ele>1150.3</ele>
        <time>2021-09-18T13:39:55Z</time>
      </trkpt>
      <trkpt lat="43.86879" lon="6.69391">
        <ele>1150.4</ele>
        <time>2021-09-18T13:39:57Z</time>
      </trkpt>
      <trkpt lat="43.86876" lon="6.69389">
        <ele>1150.5</ele>
        <time>2021-09-18T13:39:58Z</time>
      </trkpt>
      <trkpt lat="43.86873" lon="6.69386">
        <ele>1150.6</ele>
        <time>2021-09-18T13:40:00Z</time>
      </trkpt>
      <trkpt lat="43.8687" lon="6.69384">
        <ele>1150.5</ele>
        <time>2021-09-18T13:40:09Z</time>
      </trkpt>
      <trkpt lat="43.86867" lon="6.69382">
        <ele>1150.5</ele>
        <time>2021-09-18T13:40:10Z</time>
      </trkpt>
      <trkpt lat="43.86863" lon="6.69379">
        <ele>1150.4</ele>
        <time>2021-09-18T13:40:11Z</time>
      </trkpt>
      <trkpt lat="43.86856" lon="6.69376">
        <ele>1150.1</ele>
        <time>2021-09-18T13:40:13Z</time>
      </trkpt>
      <trkpt lat="43.8685" lon="6.69373">
        <ele>1149.9</ele>
        <time>2021-09-18T13:40:14Z</time>
      </trkpt>
      <trkpt lat="43.86841" lon="6.69371">
        <ele>1149.5</ele>
        <time>2021-09-18T13:40:16Z</time>
      </trkpt>
      <trkpt lat="43.86833" lon="6.69368">
        <ele>1149.2</ele>
        <time>2021-09-18T13:40:17Z</time>
      </trkpt>
      <trkpt lat="43.8683" lon="6.69366">
        <ele>1149</ele>
        <time>2021-09-18T13:40:18Z</time>
      </trkpt>
      <trkpt lat="43.86823" lon="6.69361">
        <ele>1148.6</ele>
        <time>2021-09-18T13:40:20Z</time>
      </trkpt>
      <trkpt lat="43.86817" lon="6.69358">
        <ele>1148.3</ele>
        <time>2021-09-18T13:40:21Z</time>
      </trkpt>
      <trkpt lat="43.8681" lon="6.69355">
        <ele>1147.9</ele>
        <time>2021-09-18T13:40:22Z</time>
      </trkpt>
      <trkpt lat="43.86806" lon="6.69352">
        <ele>1147.6</ele>
        <time>2021-09-18T13:40:23Z</time>
      </trkpt>
      <trkpt lat="43.86802" lon="6.69348">
        <ele>1147.2</ele>
        <time>2021-09-18T13:40:24Z</time>
      </trkpt>
      <trkpt lat="43.86795" lon="6.69343">
        <ele>1146.4</ele>
        <time>2021-09-18T13:40:26Z</time>
      </trkpt>
      <trkpt lat="43.86788" lon="6.69337">
        <ele>1145.6</ele>
        <time>2021-09-18T13:40:28Z</time>
      </trkpt>
      <trkpt lat="43.86782" lon="6.6933">
        <ele>1144.7</ele>
        <time>2021-09-18T13:40:30Z</time>
      </trkpt>
      <trkpt lat="43.86779" lon="6.69324">
        <ele>1144.1</ele>
        <time>2021-09-18T13:40:31Z</time>
      </trkpt>
      <trkpt lat="43.86778" lon="6.69318">
        <ele>1143.7</ele>
        <time>2021-09-18T13:40:32Z</time>
      </trkpt>
      <trkpt lat="43.86775" lon="6.69312">
        <ele>1143.2</ele>
        <time>2021-09-18T13:40:34Z</time>
      </trkpt>
      <trkpt lat="43.86772" lon="6.69306">
        <ele>1142.8</ele>
        <time>2021-09-18T13:40:35Z</time>
      </trkpt>
      <trkpt lat="43.86771" lon="6.69301">
        <ele>1142.5</ele>
        <time>2021-09-18T13:40:36Z</time>
      </trkpt>
      <trkpt lat="43.86771" lon="6.69295">
        <ele>1142.3</ele>
        <time>2021-09-18T13:40:37Z</time>
      </trkpt>
      <trkpt lat="43.8677" lon="6.69291">
        <ele>1142.1</ele>
        <time>2021-09-18T13:40:38Z</time>
      </trkpt>
      <trkpt lat="43.86769" lon="6.69284">
        <ele>1141.9</ele>
        <time>2021-09-18T13:40:40Z</time>
      </trkpt>
      <trkpt lat="43.86767" lon="6.69281">
        <ele>1141.7</ele>
        <time>2021-09-18T13:40:41Z</time>
      </trkpt>
      <trkpt lat="43.86764" lon="6.6928">
        <ele>1141.6</ele>
        <time>2021-09-18T13:40:42Z</time>
      </trkpt>
      <trkpt lat="43.8676" lon="6.69275">
        <ele>1141.4</ele>
        <time>2021-09-18T13:40:44Z</time>
      </trkpt>
      <trkpt lat="43.86757" lon="6.69271">
        <ele>1141.3</ele>
        <time>2021-09-18T13:40:45Z</time>
      </trkpt>
      <trkpt lat="43.86755" lon="6.69267">
        <ele>1141.3</ele>
        <time>2021-09-18T13:40:46Z</time>
      </trkpt>
      <trkpt lat="43.86754" lon="6.69264">
        <ele>1141.4</ele>
        <time>2021-09-18T13:40:47Z</time>
      </trkpt>
      <trkpt lat="43.86752" lon="6.69258">
        <ele>1141.5</ele>
        <time>2021-09-18T13:40:49Z</time>
      </trkpt>
      <trkpt lat="43.86751" lon="6.69254">
        <ele>1141.6</ele>
        <time>2021-09-18T13:40:50Z</time>
      </trkpt>
      <trkpt lat="43.86749" lon="6.69249">
        <ele>1141.9</ele>
        <time>2021-09-18T13:40:52Z</time>
      </trkpt>
      <trkpt lat="43.86748" lon="6.69243">
        <ele>1142.1</ele>
        <time>2021-09-18T13:40:53Z</time>
      </trkpt>
      <trkpt lat="43.86747" lon="6.69242">
        <ele>1142.2</ele>
        <time>2021-09-18T13:40:54Z</time>
      </trkpt>
      <trkpt lat="43.86748" lon="6.69237">
        <ele>1142.4</ele>
        <time>2021-09-18T13:40:55Z</time>
      </trkpt>
      <trkpt lat="43.86748" lon="6.69236">
        <ele>1142.5</ele>
        <time>2021-09-18T13:40:56Z</time>
      </trkpt>
      <trkpt lat="43.86749" lon="6.69232">
        <ele>1142.8</ele>
        <time>2021-09-18T13:40:58Z</time>
      </trkpt>
      <trkpt lat="43.86751" lon="6.69231">
        <ele>1143</ele>
        <time>2021-09-18T13:41:00Z</time>
      </trkpt>
      <trkpt lat="43.86751" lon="6.6923">
        <ele>1143.1</ele>
        <time>2021-09-18T13:41:01Z</time>
      </trkpt>
      <trkpt lat="43.8675" lon="6.6923">
        <ele>1143.1</ele>
        <time>2021-09-18T13:41:02Z</time>
      </trkpt>
      <trkpt lat="43.8675" lon="6.69229">
        <ele>1143.1</ele>
        <time>2021-09-18T13:41:04Z</time>
      </trkpt>
      <trkpt lat="43.8675" lon="6.69229">
        <ele>1143.1</ele>
        <time>2021-09-18T13:41:05Z</time>
      </trkpt>
      <trkpt lat="43.8675" lon="6.69229">
        <ele>1143.2</ele>
        <time>2021-09-18T13:41:06Z</time>
      </trkpt>
      <trkpt lat="43.86664" lon="6.69166">
        <ele>1155.8</ele>
        <time>2021-09-18T13:43:16Z</time>
      </trkpt>
      <trkpt lat="43.86658" lon="6.69167">
        <ele>1156.5</ele>
        <time>2021-09-18T13:43:17Z</time>
      </trkpt>
      <trkpt lat="43.86653" lon="6.69167">
        <ele>1157.1</ele>
        <time>2021-09-18T13:43:19Z</time>
      </trkpt>
      <trkpt lat="43.86645" lon="6.69167">
        <ele>1158</ele>
        <time>2021-09-18T13:43:20Z</time>
      </trkpt>
      <trkpt lat="43.86641" lon="6.69167">
        <ele>1158.3</ele>
        <time>2021-09-18T13:43:21Z</time>
      </trkpt>
      <trkpt lat="43.8664" lon="6.69167">
        <ele>1158.4</ele>
        <time>2021-09-18T13:43:22Z</time>
      </trkpt>
      <trkpt lat="43.86638" lon="6.69167">
        <ele>1158.5</ele>
        <time>2021-09-18T13:43:24Z</time>
      </trkpt>
      <trkpt lat="43.86638" lon="6.69168">
        <ele>1158.5</ele>
        <time>2021-09-18T13:43:25Z</time>
      </trkpt>
      <trkpt lat="43.86617" lon="6.69176">
        <ele>1159.2</ele>
        <time>2021-09-18T13:43:27Z</time>
      </trkpt>
      <trkpt lat="43.86595" lon="6.69182">
        <ele>1159.5</ele>
        <time>2021-09-18T13:44:20Z</time>
      </trkpt>
      <trkpt lat="43.86574" lon="6.69188">
        <ele>1159.8</ele>
        <time>2021-09-18T13:44:21Z</time>
      </trkpt>
      <trkpt lat="43.86565" lon="6.69188">
        <ele>1159.8</ele>
        <time>2021-09-18T13:44:23Z</time>
      </trkpt>
      <trkpt lat="43.86547" lon="6.6919">
        <ele>1159.6</ele>
        <time>2021-09-18T13:44:24Z</time>
      </trkpt>
      <trkpt lat="43.86537" lon="6.69189">
        <ele>1159.5</ele>
        <time>2021-09-18T13:44:25Z</time>
      </trkpt>
      <trkpt lat="43.86532" lon="6.69188">
        <ele>1159.3</ele>
        <time>2021-09-18T13:44:26Z</time>
      </trkpt>
      <trkpt lat="43.86527" lon="6.69189">
        <ele>1159.2</ele>
        <time>2021-09-18T13:44:28Z</time>
      </trkpt>
      <trkpt lat="43.86522" lon="6.69188">
        <ele>1159</ele>
        <time>2021-09-18T13:44:29Z</time>
      </trkpt>
      <trkpt lat="43.86513" lon="6.69187">
        <ele>1158.5</ele>
        <time>2021-09-18T13:44:30Z</time>
      </trkpt>
      <trkpt lat="43.86503" lon="6.69184">
        <ele>1157.4</ele>
        <time>2021-09-18T13:44:32Z</time>
      </trkpt>
      <trkpt lat="43.86497" lon="6.69182">
        <ele>1156.6</ele>
        <time>2021-09-18T13:44:33Z</time>
      </trkpt>
      <trkpt lat="43.86491" lon="6.69178">
        <ele>1155.6</ele>
        <time>2021-09-18T13:44:34Z</time>
      </trkpt>
      <trkpt lat="43.86485" lon="6.69174">
        <ele>1154.5</ele>
        <time>2021-09-18T13:44:35Z</time>
      </trkpt>
      <trkpt lat="43.86479" lon="6.69169">
        <ele>1153.2</ele>
        <time>2021-09-18T13:44:37Z</time>
      </trkpt>
      <trkpt lat="43.86472" lon="6.69165">
        <ele>1151.6</ele>
        <time>2021-09-18T13:44:39Z</time>
      </trkpt>
      <trkpt lat="43.86466" lon="6.69162">
        <ele>1150.4</ele>
        <time>2021-09-18T13:44:40Z</time>
      </trkpt>
      <trkpt lat="43.86462" lon="6.69163">
        <ele>1149.7</ele>
        <time>2021-09-18T13:44:41Z</time>
      </trkpt>
      <trkpt lat="43.86458" lon="6.69164">
        <ele>1148.9</ele>
        <time>2021-09-18T13:44:42Z</time>
      </trkpt>
      <trkpt lat="43.86453" lon="6.69164">
        <ele>1147.8</ele>
        <time>2021-09-18T13:44:44Z</time>
      </trkpt>
      <trkpt lat="43.86448" lon="6.69163">
        <ele>1146.8</ele>
        <time>2021-09-18T13:44:45Z</time>
      </trkpt>
      <trkpt lat="43.86445" lon="6.69164">
        <ele>1146.1</ele>
        <time>2021-09-18T13:44:46Z</time>
      </trkpt>
      <trkpt lat="43.86439" lon="6.69166">
        <ele>1144.8</ele>
        <time>2021-09-18T13:44:48Z</time>
      </trkpt>
      <trkpt lat="43.86434" lon="6.69166">
        <ele>1143.7</ele>
        <time>2021-09-18T13:44:49Z</time>
      </trkpt>
      <trkpt lat="43.86429" lon="6.69168">
        <ele>1142.3</ele>
        <time>2021-09-18T13:44:50Z</time>
      </trkpt>
      <trkpt lat="43.86422" lon="6.69171">
        <ele>1140.6</ele>
        <time>2021-09-18T13:44:52Z</time>
      </trkpt>
      <trkpt lat="43.86414" lon="6.69172">
        <ele>1138.8</ele>
        <time>2021-09-18T13:44:54Z</time>
      </trkpt>
      <trkpt lat="43.8641" lon="6.69172">
        <ele>1137.8</ele>
        <time>2021-09-18T13:44:55Z</time>
      </trkpt>
      <trkpt lat="43.86405" lon="6.69171">
        <ele>1136.6</ele>
        <time>2021-09-18T13:44:56Z</time>
      </trkpt>
      <trkpt lat="43.86402" lon="6.69174">
        <ele>1135.7</ele>
        <time>2021-09-18T13:44:57Z</time>
      </trkpt>
      <trkpt lat="43.864" lon="6.69176">
        <ele>1135.1</ele>
        <time>2021-09-18T13:44:59Z</time>
      </trkpt>
      <trkpt lat="43.86399" lon="6.69176">
        <ele>1134.7</ele>
        <time>2021-09-18T13:45:00Z</time>
      </trkpt>
      <trkpt lat="43.86397" lon="6.69176">
        <ele>1134</ele>
        <time>2021-09-18T13:45:02Z</time>
      </trkpt>
      <trkpt lat="43.86396" lon="6.69177">
        <ele>1133.7</ele>
        <time>2021-09-18T13:45:03Z</time>
      </trkpt>
      <trkpt lat="43.86394" lon="6.69176">
        <ele>1133.1</ele>
        <time>2021-09-18T13:45:05Z</time>
      </trkpt>
      <trkpt lat="43.86393" lon="6.69175">
        <ele>1132.9</ele>
        <time>2021-09-18T13:45:06Z</time>
      </trkpt>
      <trkpt lat="43.86392" lon="6.69174">
        <ele>1132.6</ele>
        <time>2021-09-18T13:45:07Z</time>
      </trkpt>
      <trkpt lat="43.86394" lon="6.69123">
        <ele>1126.4</ele>
        <time>2021-09-18T13:45:22Z</time>
      </trkpt>
      <trkpt lat="43.86395" lon="6.69117">
        <ele>1125.4</ele>
        <time>2021-09-18T13:45:23Z</time>
      </trkpt>
      <trkpt lat="43.86396" lon="6.69111">
        <ele>1124.4</ele>
        <time>2021-09-18T13:45:24Z</time>
      </trkpt>
      <trkpt lat="43.86397" lon="6.69105">
        <ele>1123.3</ele>
        <time>2021-09-18T13:45:25Z</time>
      </trkpt>
      <trkpt lat="43.86397" lon="6.69097">
        <ele>1122.1</ele>
        <time>2021-09-18T13:45:27Z</time>
      </trkpt>
      <trkpt lat="43.86397" lon="6.69092">
        <ele>1121.4</ele>
        <time>2021-09-18T13:45:28Z</time>
      </trkpt>
      <trkpt lat="43.86397" lon="6.69092">
        <ele>1121.3</ele>
        <time>2021-09-18T13:45:30Z</time>
      </trkpt>
      <trkpt lat="43.86397" lon="6.69093">
        <ele>1121.1</ele>
        <time>2021-09-18T13:45:31Z</time>
      </trkpt>
      <trkpt lat="43.86397" lon="6.69093">
        <ele>1121</ele>
        <time>2021-09-18T13:45:33Z</time>
      </trkpt>
      <trkpt lat="43.86397" lon="6.69094">
        <ele>1121</ele>
        <time>2021-09-18T13:45:34Z</time>
      </trkpt>
      <trkpt lat="43.86397" lon="6.69093">
        <ele>1120.9</ele>
        <time>2021-09-18T13:45:36Z</time>
      </trkpt>
      <trkpt lat="43.86397" lon="6.69093">
        <ele>1120.8</ele>
        <time>2021-09-18T13:45:37Z</time>
      </trkpt>
      <trkpt lat="43.86396" lon="6.69092">
        <ele>1120.7</ele>
        <time>2021-09-18T13:45:38Z</time>
      </trkpt>
      <trkpt lat="43.8638" lon="6.69081">
        <ele>1117</ele>
        <time>2021-09-18T13:45:47Z</time>
      </trkpt>
      <trkpt lat="43.86372" lon="6.69073">
        <ele>1115.1</ele>
        <time>2021-09-18T13:45:49Z</time>
      </trkpt>
      <trkpt lat="43.86367" lon="6.69068">
        <ele>1114</ele>
        <time>2021-09-18T13:45:50Z</time>
      </trkpt>
      <trkpt lat="43.8636" lon="6.69063">
        <ele>1112.5</ele>
        <time>2021-09-18T13:45:52Z</time>
      </trkpt>
      <trkpt lat="43.86356" lon="6.69061">
        <ele>1111.6</ele>
        <time>2021-09-18T13:45:53Z</time>
      </trkpt>
      <trkpt lat="43.86355" lon="6.69062">
        <ele>1111.3</ele>
        <time>2021-09-18T13:45:54Z</time>
      </trkpt>
      <trkpt lat="43.86349" lon="6.69063">
        <ele>1110.1</ele>
        <time>2021-09-18T13:45:56Z</time>
      </trkpt>
      <trkpt lat="43.86348" lon="6.69063">
        <ele>1109.8</ele>
        <time>2021-09-18T13:45:57Z</time>
      </trkpt>
      <trkpt lat="43.86347" lon="6.69063">
        <ele>1109.7</ele>
        <time>2021-09-18T13:45:59Z</time>
      </trkpt>
      <trkpt lat="43.86347" lon="6.69063">
        <ele>1109.6</ele>
        <time>2021-09-18T13:46:00Z</time>
      </trkpt>
      <trkpt lat="43.86347" lon="6.69062">
        <ele>1109.5</ele>
        <time>2021-09-18T13:46:01Z</time>
      </trkpt>
      <trkpt lat="43.86347" lon="6.69062">
        <ele>1109.5</ele>
        <time>2021-09-18T13:46:02Z</time>
      </trkpt>
      <trkpt lat="43.86315" lon="6.69057">
        <ele>1103.3</ele>
        <time>2021-09-18T13:46:19Z</time>
      </trkpt>
      <trkpt lat="43.86307" lon="6.69051">
        <ele>1101.1</ele>
        <time>2021-09-18T13:46:21Z</time>
      </trkpt>
      <trkpt lat="43.86303" lon="6.69048">
        <ele>1100</ele>
        <time>2021-09-18T13:46:22Z</time>
      </trkpt>
      <trkpt lat="43.86299" lon="6.69044">
        <ele>1098.5</ele>
        <time>2021-09-18T13:46:24Z</time>
      </trkpt>
      <trkpt lat="43.86296" lon="6.69041">
        <ele>1097.4</ele>
        <time>2021-09-18T13:46:25Z</time>
      </trkpt>
      <trkpt lat="43.86295" lon="6.6904">
        <ele>1097.1</ele>
        <time>2021-09-18T13:46:27Z</time>
      </trkpt>
      <trkpt lat="43.86295" lon="6.69039">
        <ele>1096.9</ele>
        <time>2021-09-18T13:46:28Z</time>
      </trkpt>
      <trkpt lat="43.86295" lon="6.69039">
        <ele>1096.8</ele>
        <time>2021-09-18T13:46:29Z</time>
      </trkpt>
      <trkpt lat="43.86294" lon="6.69038">
        <ele>1096.6</ele>
        <time>2021-09-18T13:46:31Z</time>
      </trkpt>
      <trkpt lat="43.86248" lon="6.69027">
        <ele>1081.6</ele>
        <time>2021-09-18T13:46:48Z</time>
      </trkpt>
      <trkpt lat="43.86243" lon="6.69027">
        <ele>1080.3</ele>
        <time>2021-09-18T13:46:50Z</time>
      </trkpt>
      <trkpt lat="43.86234" lon="6.69023">
        <ele>1078.1</ele>
        <time>2021-09-18T13:46:52Z</time>
      </trkpt>
      <trkpt lat="43.86228" lon="6.69021">
        <ele>1076.9</ele>
        <time>2021-09-18T13:46:53Z</time>
      </trkpt>
      <trkpt lat="43.86226" lon="6.69019">
        <ele>1076.5</ele>
        <time>2021-09-18T13:46:54Z</time>
      </trkpt>
      <trkpt lat="43.86222" lon="6.69012">
        <ele>1075.4</ele>
        <time>2021-09-18T13:46:56Z</time>
      </trkpt>
      <trkpt lat="43.8622" lon="6.69008">
        <ele>1074.9</ele>
        <time>2021-09-18T13:46:57Z</time>
      </trkpt>
      <trkpt lat="43.86218" lon="6.69">
        <ele>1074.2</ele>
        <time>2021-09-18T13:46:59Z</time>
      </trkpt>
      <trkpt lat="43.86217" lon="6.68998">
        <ele>1073.9</ele>
        <time>2021-09-18T13:47:00Z</time>
      </trkpt>
      <trkpt lat="43.86215" lon="6.68993">
        <ele>1073.5</ele>
        <time>2021-09-18T13:47:02Z</time>
      </trkpt>
      <trkpt lat="43.862" lon="6.68964">
        <ele>1071</ele>
        <time>2021-09-18T13:47:07Z</time>
      </trkpt>
      <trkpt lat="43.86195" lon="6.6896">
        <ele>1070.4</ele>
        <time>2021-09-18T13:47:08Z</time>
      </trkpt>
      <trkpt lat="43.86181" lon="6.68954">
        <ele>1069.1</ele>
        <time>2021-09-18T13:47:09Z</time>
      </trkpt>
      <trkpt lat="43.8617" lon="6.68943">
        <ele>1067.8</ele>
        <time>2021-09-18T13:47:11Z</time>
      </trkpt>
      <trkpt lat="43.86167" lon="6.68936">
        <ele>1067.2</ele>
        <time>2021-09-18T13:47:12Z</time>
      </trkpt>
      <trkpt lat="43.86163" lon="6.68929">
        <ele>1066.7</ele>
        <time>2021-09-18T13:47:13Z</time>
      </trkpt>
      <trkpt lat="43.8616" lon="6.68923">
        <ele>1066.2</ele>
        <time>2021-09-18T13:47:14Z</time>
      </trkpt>
      <trkpt lat="43.86155" lon="6.68914">
        <ele>1065.4</ele>
        <time>2021-09-18T13:47:16Z</time>
      </trkpt>
      <trkpt lat="43.86153" lon="6.6891">
        <ele>1064.9</ele>
        <time>2021-09-18T13:47:17Z</time>
      </trkpt>
      <trkpt lat="43.86149" lon="6.6891">
        <ele>1064.8</ele>
        <time>2021-09-18T13:47:19Z</time>
      </trkpt>
      <trkpt lat="43.86147" lon="6.68911">
        <ele>1064.8</ele>
        <time>2021-09-18T13:47:20Z</time>
      </trkpt>
      <trkpt lat="43.86143" lon="6.68913">
        <ele>1064.8</ele>
        <time>2021-09-18T13:47:21Z</time>
      </trkpt>
      <trkpt lat="43.86143" lon="6.68915">
        <ele>1064.8</ele>
        <time>2021-09-18T13:47:23Z</time>
      </trkpt>
      <trkpt lat="43.86143" lon="6.68917">
        <ele>1064.8</ele>
        <time>2021-09-18T13:47:24Z</time>
      </trkpt>
      <trkpt lat="43.86141" lon="6.68927">
        <ele>1064.7</ele>
        <time>2021-09-18T13:47:25Z</time>
      </trkpt>
      <trkpt lat="43.86141" lon="6.68934">
        <ele>1064.7</ele>
        <time>2021-09-18T13:47:26Z</time>
      </trkpt>
      <trkpt lat="43.8614" lon="6.68939">
        <ele>1064.6</ele>
        <time>2021-09-18T13:47:27Z</time>
      </trkpt>
      <trkpt lat="43.8614" lon="6.68946">
        <ele>1064.6</ele>
        <time>2021-09-18T13:47:29Z</time>
      </trkpt>
      <trkpt lat="43.86141" lon="6.68953">
        <ele>1064.5</ele>
        <time>2021-09-18T13:47:30Z</time>
      </trkpt>
      <trkpt lat="43.86142" lon="6.68959">
        <ele>1064.4</ele>
        <time>2021-09-18T13:47:32Z</time>
      </trkpt>
      <trkpt lat="43.86146" lon="6.68961">
        <ele>1064.3</ele>
        <time>2021-09-18T13:47:34Z</time>
      </trkpt>
      <trkpt lat="43.8615" lon="6.68963">
        <ele>1064.2</ele>
        <time>2021-09-18T13:47:35Z</time>
      </trkpt>
      <trkpt lat="43.86151" lon="6.68964">
        <ele>1064.2</ele>
        <time>2021-09-18T13:47:36Z</time>
      </trkpt>
      <trkpt lat="43.86153" lon="6.68968">
        <ele>1064.1</ele>
        <time>2021-09-18T13:47:38Z</time>
      </trkpt>
      <trkpt lat="43.86156" lon="6.68972">
        <ele>1064</ele>
        <time>2021-09-18T13:47:39Z</time>
      </trkpt>
      <trkpt lat="43.86159" lon="6.68975">
        <ele>1063.6</ele>
        <time>2021-09-18T13:47:40Z</time>
      </trkpt>
      <trkpt lat="43.86163" lon="6.68978">
        <ele>1063.2</ele>
        <time>2021-09-18T13:47:41Z</time>
      </trkpt>
      <trkpt lat="43.86168" lon="6.68982">
        <ele>1062.8</ele>
        <time>2021-09-18T13:47:43Z</time>
      </trkpt>
      <trkpt lat="43.8617" lon="6.68984">
        <ele>1062.6</ele>
        <time>2021-09-18T13:47:44Z</time>
      </trkpt>
      <trkpt lat="43.86172" lon="6.68986">
        <ele>1062.5</ele>
        <time>2021-09-18T13:47:45Z</time>
      </trkpt>
      <trkpt lat="43.86176" lon="6.68985">
        <ele>1062.3</ele>
        <time>2021-09-18T13:47:46Z</time>
      </trkpt>
      <trkpt lat="43.86177" lon="6.68985">
        <ele>1062.3</ele>
        <time>2021-09-18T13:47:47Z</time>
      </trkpt>
      <trkpt lat="43.86178" lon="6.68985">
        <ele>1062.3</ele>
        <time>2021-09-18T13:47:48Z</time>
      </trkpt>
      <trkpt lat="43.86179" lon="6.68984">
        <ele>1062.2</ele>
        <time>2021-09-18T13:47:49Z</time>
      </trkpt>
      <trkpt lat="43.86178" lon="6.68983">
        <ele>1062.2</ele>
        <time>2021-09-18T13:47:50Z</time>
      </trkpt>
      <trkpt lat="43.86176" lon="6.68981">
        <ele>1062.2</ele>
        <time>2021-09-18T13:47:51Z</time>
      </trkpt>
      <trkpt lat="43.86176" lon="6.6898">
        <ele>1062.2</ele>
        <time>2021-09-18T13:47:53Z</time>
      </trkpt>
      <trkpt lat="43.86175" lon="6.68983">
        <ele>1062.2</ele>
        <time>2021-09-18T13:47:54Z</time>
      </trkpt>
      <trkpt lat="43.86175" lon="6.68984">
        <ele>1062.2</ele>
        <time>2021-09-18T13:47:56Z</time>
      </trkpt>
      <trkpt lat="43.86174" lon="6.68986">
        <ele>1062.2</ele>
        <time>2021-09-18T13:47:57Z</time>
      </trkpt>
      <trkpt lat="43.86174" lon="6.68987">
        <ele>1062.3</ele>
        <time>2021-09-18T13:47:58Z</time>
      </trkpt>
      <trkpt lat="43.86172" lon="6.68997">
        <ele>1062.5</ele>
        <time>2021-09-18T13:48:03Z</time>
      </trkpt>
      <trkpt lat="43.86171" lon="6.69003">
        <ele>1062.8</ele>
        <time>2021-09-18T13:48:04Z</time>
      </trkpt>
      <trkpt lat="43.86169" lon="6.69006">
        <ele>1062.9</ele>
        <time>2021-09-18T13:48:05Z</time>
      </trkpt>
      <trkpt lat="43.86167" lon="6.6901">
        <ele>1063.1</ele>
        <time>2021-09-18T13:48:06Z</time>
      </trkpt>
      <trkpt lat="43.86162" lon="6.69022">
        <ele>1063.7</ele>
        <time>2021-09-18T13:48:08Z</time>
      </trkpt>
      <trkpt lat="43.86161" lon="6.69028">
        <ele>1064</ele>
        <time>2021-09-18T13:48:09Z</time>
      </trkpt>
      <trkpt lat="43.8616" lon="6.69036">
        <ele>1064.3</ele>
        <time>2021-09-18T13:48:10Z</time>
      </trkpt>
      <trkpt lat="43.86159" lon="6.69042">
        <ele>1064.6</ele>
        <time>2021-09-18T13:48:11Z</time>
      </trkpt>
      <trkpt lat="43.86159" lon="6.69048">
        <ele>1064.9</ele>
        <time>2021-09-18T13:48:12Z</time>
      </trkpt>
      <trkpt lat="43.86159" lon="6.69053">
        <ele>1065.2</ele>
        <time>2021-09-18T13:48:13Z</time>
      </trkpt>
      <trkpt lat="43.8616" lon="6.69063">
        <ele>1065.6</ele>
        <time>2021-09-18T13:48:15Z</time>
      </trkpt>
      <trkpt lat="43.8616" lon="6.69069">
        <ele>1066</ele>
        <time>2021-09-18T13:48:16Z</time>
      </trkpt>
      <trkpt lat="43.8616" lon="6.69078">
        <ele>1066.5</ele>
        <time>2021-09-18T13:48:17Z</time>
      </trkpt>
      <trkpt lat="43.86163" lon="6.69085">
        <ele>1066.8</ele>
        <time>2021-09-18T13:48:19Z</time>
      </trkpt>
      <trkpt lat="43.86166" lon="6.6909">
        <ele>1067.2</ele>
        <time>2021-09-18T13:48:20Z</time>
      </trkpt>
      <trkpt lat="43.86169" lon="6.69101">
        <ele>1067.6</ele>
        <time>2021-09-18T13:48:22Z</time>
      </trkpt>
      <trkpt lat="43.8617" lon="6.69111">
        <ele>1068</ele>
        <time>2021-09-18T13:48:24Z</time>
      </trkpt>
      <trkpt lat="43.8617" lon="6.6912">
        <ele>1068.2</ele>
        <time>2021-09-18T13:48:25Z</time>
      </trkpt>
      <trkpt lat="43.86171" lon="6.6913">
        <ele>1068.5</ele>
        <time>2021-09-18T13:48:26Z</time>
      </trkpt>
      <trkpt lat="43.86172" lon="6.69139">
        <ele>1068.8</ele>
        <time>2021-09-18T13:48:28Z</time>
      </trkpt>
      <trkpt lat="43.86174" lon="6.69146">
        <ele>1069</ele>
        <time>2021-09-18T13:48:29Z</time>
      </trkpt>
      <trkpt lat="43.86175" lon="6.69158">
        <ele>1069.3</ele>
        <time>2021-09-18T13:48:31Z</time>
      </trkpt>
      <trkpt lat="43.86174" lon="6.69166">
        <ele>1069.5</ele>
        <time>2021-09-18T13:48:32Z</time>
      </trkpt>
      <trkpt lat="43.86174" lon="6.69176">
        <ele>1069.8</ele>
        <time>2021-09-18T13:48:34Z</time>
      </trkpt>
      <trkpt lat="43.86174" lon="6.6918">
        <ele>1069.9</ele>
        <time>2021-09-18T13:48:35Z</time>
      </trkpt>
      <trkpt lat="43.86174" lon="6.69184">
        <ele>1070.1</ele>
        <time>2021-09-18T13:48:36Z</time>
      </trkpt>
      <trkpt lat="43.86174" lon="6.69183">
        <ele>1070.1</ele>
        <time>2021-09-18T13:48:37Z</time>
      </trkpt>
      <trkpt lat="43.86172" lon="6.69184">
        <ele>1070.2</ele>
        <time>2021-09-18T13:48:39Z</time>
      </trkpt>
      <trkpt lat="43.8617" lon="6.69184">
        <ele>1070.3</ele>
        <time>2021-09-18T13:48:40Z</time>
      </trkpt>
      <trkpt lat="43.86169" lon="6.69184">
        <ele>1070.4</ele>
        <time>2021-09-18T13:48:41Z</time>
      </trkpt>
      <trkpt lat="43.86168" lon="6.69184">
        <ele>1070.5</ele>
        <time>2021-09-18T13:48:43Z</time>
      </trkpt>
      <trkpt lat="43.86168" lon="6.69183">
        <ele>1070.6</ele>
        <time>2021-09-18T13:48:44Z</time>
      </trkpt>
      <trkpt lat="43.86168" lon="6.69182">
        <ele>1070.6</ele>
        <time>2021-09-18T13:48:45Z</time>
      </trkpt>
      <trkpt lat="43.86167" lon="6.69181">
        <ele>1070.7</ele>
        <time>2021-09-18T13:48:47Z</time>
      </trkpt>
      <trkpt lat="43.86166" lon="6.69181">
        <ele>1070.9</ele>
        <time>2021-09-18T13:48:49Z</time>
      </trkpt>
      <trkpt lat="43.86164" lon="6.6918">
        <ele>1071</ele>
        <time>2021-09-18T13:48:51Z</time>
      </trkpt>
      <trkpt lat="43.86164" lon="6.6918">
        <ele>1071.1</ele>
        <time>2021-09-18T13:48:52Z</time>
      </trkpt>
      <trkpt lat="43.86164" lon="6.6918">
        <ele>1071.1</ele>
        <time>2021-09-18T13:48:54Z</time>
      </trkpt>
      <trkpt lat="43.86165" lon="6.69182">
        <ele>1071.3</ele>
        <time>2021-09-18T13:48:55Z</time>
      </trkpt>
      <trkpt lat="43.86165" lon="6.69183">
        <ele>1071.4</ele>
        <time>2021-09-18T13:48:56Z</time>
      </trkpt>
      <trkpt lat="43.86165" lon="6.69186">
        <ele>1071.5</ele>
        <time>2021-09-18T13:48:58Z</time>
      </trkpt>
      <trkpt lat="43.86165" lon="6.6919">
        <ele>1071.9</ele>
        <time>2021-09-18T13:48:59Z</time>
      </trkpt>
      <trkpt lat="43.86164" lon="6.69194">
        <ele>1072</ele>
        <time>2021-09-18T13:49:00Z</time>
      </trkpt>
      <trkpt lat="43.86161" lon="6.69196">
        <ele>1072</ele>
        <time>2021-09-18T13:49:02Z</time>
      </trkpt>
      <trkpt lat="43.86157" lon="6.69196">
        <ele>1071.9</ele>
        <time>2021-09-18T13:49:03Z</time>
      </trkpt>
      <trkpt lat="43.86154" lon="6.69196">
        <ele>1071.9</ele>
        <time>2021-09-18T13:49:04Z</time>
      </trkpt>
      <trkpt lat="43.86148" lon="6.69197">
        <ele>1071.7</ele>
        <time>2021-09-18T13:49:06Z</time>
      </trkpt>
      <trkpt lat="43.86146" lon="6.69199">
        <ele>1071.7</ele>
        <time>2021-09-18T13:49:07Z</time>
      </trkpt>
      <trkpt lat="43.86141" lon="6.69196">
        <ele>1071.5</ele>
        <time>2021-09-18T13:49:09Z</time>
      </trkpt>
      <trkpt lat="43.86138" lon="6.69193">
        <ele>1071.4</ele>
        <time>2021-09-18T13:49:10Z</time>
      </trkpt>
      <trkpt lat="43.86137" lon="6.69193">
        <ele>1071.4</ele>
        <time>2021-09-18T13:49:11Z</time>
      </trkpt>
      <trkpt lat="43.86136" lon="6.69192">
        <ele>1071.4</ele>
        <time>2021-09-18T13:49:12Z</time>
      </trkpt>
      <trkpt lat="43.86135" lon="6.69191">
        <ele>1071.3</ele>
        <time>2021-09-18T13:49:13Z</time>
      </trkpt>
      <trkpt lat="43.86132" lon="6.6919">
        <ele>1071.2</ele>
        <time>2021-09-18T13:49:15Z</time>
      </trkpt>
      <trkpt lat="43.8613" lon="6.6919">
        <ele>1071.2</ele>
        <time>2021-09-18T13:49:16Z</time>
      </trkpt>
      <trkpt lat="43.86129" lon="6.69194">
        <ele>1071</ele>
        <time>2021-09-18T13:49:17Z</time>
      </trkpt>
      <trkpt lat="43.86124" lon="6.692">
        <ele>1070.8</ele>
        <time>2021-09-18T13:49:19Z</time>
      </trkpt>
      <trkpt lat="43.86123" lon="6.69204">
        <ele>1070.7</ele>
        <time>2021-09-18T13:49:20Z</time>
      </trkpt>
      <trkpt lat="43.86123" lon="6.69207">
        <ele>1070.6</ele>
        <time>2021-09-18T13:49:21Z</time>
      </trkpt>
      <trkpt lat="43.86122" lon="6.69217">
        <ele>1070.3</ele>
        <time>2021-09-18T13:49:23Z</time>
      </trkpt>
      <trkpt lat="43.86121" lon="6.69224">
        <ele>1070.1</ele>
        <time>2021-09-18T13:49:24Z</time>
      </trkpt>
      <trkpt lat="43.8612" lon="6.69233">
        <ele>1069.7</ele>
        <time>2021-09-18T13:49:26Z</time>
      </trkpt>
      <trkpt lat="43.86119" lon="6.69239">
        <ele>1069.3</ele>
        <time>2021-09-18T13:49:27Z</time>
      </trkpt>
      <trkpt lat="43.86118" lon="6.69244">
        <ele>1068.9</ele>
        <time>2021-09-18T13:49:28Z</time>
      </trkpt>
      <trkpt lat="43.86117" lon="6.69248">
        <ele>1068.7</ele>
        <time>2021-09-18T13:49:29Z</time>
      </trkpt>
      <trkpt lat="43.86116" lon="6.69249">
        <ele>1068.5</ele>
        <time>2021-09-18T13:49:31Z</time>
      </trkpt>
      <trkpt lat="43.86115" lon="6.6925">
        <ele>1068.4</ele>
        <time>2021-09-18T13:49:33Z</time>
      </trkpt>
      <trkpt lat="43.86115" lon="6.6925">
        <ele>1068.4</ele>
        <time>2021-09-18T13:49:34Z</time>
      </trkpt>
      <trkpt lat="43.86115" lon="6.6925">
        <ele>1068.4</ele>
        <time>2021-09-18T13:49:35Z</time>
      </trkpt>
      <trkpt lat="43.86115" lon="6.6925">
        <ele>1068.4</ele>
        <time>2021-09-18T13:49:36Z</time>
      </trkpt>
      <trkpt lat="43.86114" lon="6.69253">
        <ele>1068.2</ele>
        <time>2021-09-18T13:49:37Z</time>
      </trkpt>
      <trkpt lat="43.86113" lon="6.69255">
        <ele>1068</ele>
        <time>2021-09-18T13:49:39Z</time>
      </trkpt>
      <trkpt lat="43.86109" lon="6.69261">
        <ele>1067.6</ele>
        <time>2021-09-18T13:49:41Z</time>
      </trkpt>
      <trkpt lat="43.86105" lon="6.69267">
        <ele>1067.2</ele>
        <time>2021-09-18T13:49:43Z</time>
      </trkpt>
      <trkpt lat="43.86103" lon="6.69273">
        <ele>1067</ele>
        <time>2021-09-18T13:49:44Z</time>
      </trkpt>
      <trkpt lat="43.861" lon="6.6928">
        <ele>1066.8</ele>
        <time>2021-09-18T13:49:45Z</time>
      </trkpt>
      <trkpt lat="43.86098" lon="6.69284">
        <ele>1066.7</ele>
        <time>2021-09-18T13:49:47Z</time>
      </trkpt>
      <trkpt lat="43.86097" lon="6.69288">
        <ele>1066.6</ele>
        <time>2021-09-18T13:49:48Z</time>
      </trkpt>
      <trkpt lat="43.86094" lon="6.69292">
        <ele>1066.5</ele>
        <time>2021-09-18T13:49:50Z</time>
      </trkpt>
      <trkpt lat="43.8609" lon="6.69296">
        <ele>1066.3</ele>
        <time>2021-09-18T13:49:51Z</time>
      </trkpt>
      <trkpt lat="43.86089" lon="6.69298">
        <ele>1066.3</ele>
        <time>2021-09-18T13:49:52Z</time>
      </trkpt>
      <trkpt lat="43.86085" lon="6.69297">
        <ele>1066.2</ele>
        <time>2021-09-18T13:49:54Z</time>
      </trkpt>
      <trkpt lat="43.86082" lon="6.69295">
        <ele>1066.1</ele>
        <time>2021-09-18T13:49:55Z</time>
      </trkpt>
      <trkpt lat="43.86081" lon="6.69294">
        <ele>1066.1</ele>
        <time>2021-09-18T13:49:56Z</time>
      </trkpt>
      <trkpt lat="43.86078" lon="6.69289">
        <ele>1066</ele>
        <time>2021-09-18T13:49:58Z</time>
      </trkpt>
      <trkpt lat="43.86075" lon="6.69286">
        <ele>1066</ele>
        <time>2021-09-18T13:49:59Z</time>
      </trkpt>
      <trkpt lat="43.86072" lon="6.69282">
        <ele>1065.9</ele>
        <time>2021-09-18T13:50:00Z</time>
      </trkpt>
      <trkpt lat="43.86071" lon="6.69281">
        <ele>1065.8</ele>
        <time>2021-09-18T13:50:01Z</time>
      </trkpt>
      <trkpt lat="43.86067" lon="6.69279">
        <ele>1065.7</ele>
        <time>2021-09-18T13:50:03Z</time>
      </trkpt>
      <trkpt lat="43.86062" lon="6.69279">
        <ele>1065.4</ele>
        <time>2021-09-18T13:50:04Z</time>
      </trkpt>
      <trkpt lat="43.86058" lon="6.69279">
        <ele>1065.1</ele>
        <time>2021-09-18T13:50:05Z</time>
      </trkpt>
      <trkpt lat="43.8605" lon="6.6928">
        <ele>1064.5</ele>
        <time>2021-09-18T13:50:06Z</time>
      </trkpt>
      <trkpt lat="43.86043" lon="6.6928">
        <ele>1063.7</ele>
        <time>2021-09-18T13:50:08Z</time>
      </trkpt>
      <trkpt lat="43.86039" lon="6.6928">
        <ele>1063.3</ele>
        <time>2021-09-18T13:50:09Z</time>
      </trkpt>
      <trkpt lat="43.86034" lon="6.69284">
        <ele>1062.5</ele>
        <time>2021-09-18T13:50:11Z</time>
      </trkpt>
      <trkpt lat="43.8603" lon="6.69288">
        <ele>1061.8</ele>
        <time>2021-09-18T13:50:12Z</time>
      </trkpt>
      <trkpt lat="43.86028" lon="6.69291">
        <ele>1061.2</ele>
        <time>2021-09-18T13:50:13Z</time>
      </trkpt>
      <trkpt lat="43.86026" lon="6.69298">
        <ele>1060.3</ele>
        <time>2021-09-18T13:50:15Z</time>
      </trkpt>
      <trkpt lat="43.86025" lon="6.69303">
        <ele>1059.5</ele>
        <time>2021-09-18T13:50:16Z</time>
      </trkpt>
      <trkpt lat="43.86025" lon="6.69305">
        <ele>1059.3</ele>
        <time>2021-09-18T13:50:17Z</time>
      </trkpt>
      <trkpt lat="43.86026" lon="6.69314">
        <ele>1058</ele>
        <time>2021-09-18T13:50:19Z</time>
      </trkpt>
      <trkpt lat="43.86026" lon="6.6932">
        <ele>1057.2</ele>
        <time>2021-09-18T13:50:20Z</time>
      </trkpt>
      <trkpt lat="43.86026" lon="6.69326">
        <ele>1056.3</ele>
        <time>2021-09-18T13:50:21Z</time>
      </trkpt>
      <trkpt lat="43.86025" lon="6.6933">
        <ele>1055.8</ele>
        <time>2021-09-18T13:50:23Z</time>
      </trkpt>
      <trkpt lat="43.86024" lon="6.69333">
        <ele>1055.4</ele>
        <time>2021-09-18T13:50:24Z</time>
      </trkpt>
      <trkpt lat="43.86023" lon="6.69338">
        <ele>1054.8</ele>
        <time>2021-09-18T13:50:26Z</time>
      </trkpt>
      <trkpt lat="43.86023" lon="6.69344">
        <ele>1054.2</ele>
        <time>2021-09-18T13:50:28Z</time>
      </trkpt>
      <trkpt lat="43.86022" lon="6.69349">
        <ele>1053.5</ele>
        <time>2021-09-18T13:50:29Z</time>
      </trkpt>
      <trkpt lat="43.86021" lon="6.69354">
        <ele>1052.9</ele>
        <time>2021-09-18T13:50:30Z</time>
      </trkpt>
      <trkpt lat="43.8602" lon="6.69359">
        <ele>1052.3</ele>
        <time>2021-09-18T13:50:31Z</time>
      </trkpt>
      <trkpt lat="43.86018" lon="6.69364">
        <ele>1051.6</ele>
        <time>2021-09-18T13:50:33Z</time>
      </trkpt>
      <trkpt lat="43.86016" lon="6.69368">
        <ele>1051</ele>
        <time>2021-09-18T13:50:34Z</time>
      </trkpt>
      <trkpt lat="43.86013" lon="6.69371">
        <ele>1050.4</ele>
        <time>2021-09-18T13:50:36Z</time>
      </trkpt>
      <trkpt lat="43.86013" lon="6.69373">
        <ele>1050.2</ele>
        <time>2021-09-18T13:50:37Z</time>
      </trkpt>
      <trkpt lat="43.86012" lon="6.69374">
        <ele>1050</ele>
        <time>2021-09-18T13:50:39Z</time>
      </trkpt>
      <trkpt lat="43.86011" lon="6.69377">
        <ele>1049.5</ele>
        <time>2021-09-18T13:50:41Z</time>
      </trkpt>
      <trkpt lat="43.8601" lon="6.69377">
        <ele>1049.5</ele>
        <time>2021-09-18T13:50:42Z</time>
      </trkpt>
      <trkpt lat="43.86009" lon="6.69377">
        <ele>1049.3</ele>
        <time>2021-09-18T13:50:43Z</time>
      </trkpt>
      <trkpt lat="43.86009" lon="6.69378">
        <ele>1049.2</ele>
        <time>2021-09-18T13:50:44Z</time>
      </trkpt>
      <trkpt lat="43.86009" lon="6.69378">
        <ele>1049.2</ele>
        <time>2021-09-18T13:50:46Z</time>
      </trkpt>
      <trkpt lat="43.86008" lon="6.69378">
        <ele>1049.1</ele>
        <time>2021-09-18T13:50:47Z</time>
      </trkpt>
      <trkpt lat="43.86008" lon="6.69378">
        <ele>1049.1</ele>
        <time>2021-09-18T13:50:48Z</time>
      </trkpt>
      <trkpt lat="43.86008" lon="6.69377">
        <ele>1049.1</ele>
        <time>2021-09-18T13:50:50Z</time>
      </trkpt>
      <trkpt lat="43.85996" lon="6.69377">
        <ele>1047.4</ele>
        <time>2021-09-18T13:51:00Z</time>
      </trkpt>
      <trkpt lat="43.85993" lon="6.69381">
        <ele>1046.9</ele>
        <time>2021-09-18T13:51:01Z</time>
      </trkpt>
      <trkpt lat="43.85989" lon="6.69385">
        <ele>1046.1</ele>
        <time>2021-09-18T13:51:02Z</time>
      </trkpt>
      <trkpt lat="43.85986" lon="6.69391">
        <ele>1045.4</ele>
        <time>2021-09-18T13:51:04Z</time>
      </trkpt>
      <trkpt lat="43.85984" lon="6.69396">
        <ele>1044.8</ele>
        <time>2021-09-18T13:51:05Z</time>
      </trkpt>
      <trkpt lat="43.85982" lon="6.69414">
        <ele>1043.3</ele>
        <time>2021-09-18T13:51:07Z</time>
      </trkpt>
      <trkpt lat="43.85981" lon="6.6942">
        <ele>1042.9</ele>
        <time>2021-09-18T13:51:08Z</time>
      </trkpt>
      <trkpt lat="43.85981" lon="6.69427">
        <ele>1042.6</ele>
        <time>2021-09-18T13:51:09Z</time>
      </trkpt>
      <trkpt lat="43.85978" lon="6.69436">
        <ele>1042</ele>
        <time>2021-09-18T13:51:11Z</time>
      </trkpt>
      <trkpt lat="43.85977" lon="6.6944">
        <ele>1041.8</ele>
        <time>2021-09-18T13:51:12Z</time>
      </trkpt>
      <trkpt lat="43.85974" lon="6.69447">
        <ele>1041.5</ele>
        <time>2021-09-18T13:51:14Z</time>
      </trkpt>
      <trkpt lat="43.8597" lon="6.69455">
        <ele>1041.3</ele>
        <time>2021-09-18T13:51:15Z</time>
      </trkpt>
      <trkpt lat="43.85967" lon="6.69461">
        <ele>1041.2</ele>
        <time>2021-09-18T13:51:17Z</time>
      </trkpt>
      <trkpt lat="43.85963" lon="6.69467">
        <ele>1041.1</ele>
        <time>2021-09-18T13:51:18Z</time>
      </trkpt>
      <trkpt lat="43.85961" lon="6.69472">
        <ele>1041.1</ele>
        <time>2021-09-18T13:51:19Z</time>
      </trkpt>
      <trkpt lat="43.85958" lon="6.69478">
        <ele>1041</ele>
        <time>2021-09-18T13:51:21Z</time>
      </trkpt>
      <trkpt lat="43.85956" lon="6.6948">
        <ele>1041</ele>
        <time>2021-09-18T13:51:22Z</time>
      </trkpt>
      <trkpt lat="43.85953" lon="6.69483">
        <ele>1041</ele>
        <time>2021-09-18T13:51:23Z</time>
      </trkpt>
      <trkpt lat="43.85952" lon="6.69489">
        <ele>1040.9</ele>
        <time>2021-09-18T13:51:25Z</time>
      </trkpt>
      <trkpt lat="43.8595" lon="6.69492">
        <ele>1040.9</ele>
        <time>2021-09-18T13:51:26Z</time>
      </trkpt>
      <trkpt lat="43.85949" lon="6.69495">
        <ele>1040.8</ele>
        <time>2021-09-18T13:51:27Z</time>
      </trkpt>
      <trkpt lat="43.85946" lon="6.69499">
        <ele>1040.7</ele>
        <time>2021-09-18T13:51:28Z</time>
      </trkpt>
      <trkpt lat="43.85943" lon="6.69502">
        <ele>1040.6</ele>
        <time>2021-09-18T13:51:29Z</time>
      </trkpt>
      <trkpt lat="43.85939" lon="6.69507">
        <ele>1040.4</ele>
        <time>2021-09-18T13:51:31Z</time>
      </trkpt>
      <trkpt lat="43.85932" lon="6.69517">
        <ele>1039.9</ele>
        <time>2021-09-18T13:51:32Z</time>
      </trkpt>
      <trkpt lat="43.85926" lon="6.69523">
        <ele>1039.3</ele>
        <time>2021-09-18T13:51:34Z</time>
      </trkpt>
      <trkpt lat="43.85921" lon="6.69527">
        <ele>1038.9</ele>
        <time>2021-09-18T13:51:35Z</time>
      </trkpt>
      <trkpt lat="43.85917" lon="6.69531">
        <ele>1038.5</ele>
        <time>2021-09-18T13:51:36Z</time>
      </trkpt>
      <trkpt lat="43.85915" lon="6.69534">
        <ele>1038.1</ele>
        <time>2021-09-18T13:51:37Z</time>
      </trkpt>
      <trkpt lat="43.85912" lon="6.69537">
        <ele>1037.7</ele>
        <time>2021-09-18T13:51:39Z</time>
      </trkpt>
      <trkpt lat="43.8591" lon="6.69541">
        <ele>1037.3</ele>
        <time>2021-09-18T13:51:40Z</time>
      </trkpt>
      <trkpt lat="43.85907" lon="6.69544">
        <ele>1036.8</ele>
        <time>2021-09-18T13:51:41Z</time>
      </trkpt>
      <trkpt lat="43.85905" lon="6.69547">
        <ele>1036.3</ele>
        <time>2021-09-18T13:51:42Z</time>
      </trkpt>
      <trkpt lat="43.85903" lon="6.69551">
        <ele>1035.7</ele>
        <time>2021-09-18T13:51:44Z</time>
      </trkpt>
      <trkpt lat="43.85903" lon="6.69556">
        <ele>1034.8</ele>
        <time>2021-09-18T13:51:46Z</time>
      </trkpt>
      <trkpt lat="43.85901" lon="6.6956">
        <ele>1034</ele>
        <time>2021-09-18T13:51:47Z</time>
      </trkpt>
      <trkpt lat="43.859" lon="6.69564">
        <ele>1033.2</ele>
        <time>2021-09-18T13:51:48Z</time>
      </trkpt>
      <trkpt lat="43.859" lon="6.69568">
        <ele>1032.3</ele>
        <time>2021-09-18T13:51:50Z</time>
      </trkpt>
      <trkpt lat="43.859" lon="6.69572">
        <ele>1031.5</ele>
        <time>2021-09-18T13:51:52Z</time>
      </trkpt>
      <trkpt lat="43.859" lon="6.69572">
        <ele>1031.4</ele>
        <time>2021-09-18T13:51:53Z</time>
      </trkpt>
      <trkpt lat="43.859" lon="6.69573">
        <ele>1031.4</ele>
        <time>2021-09-18T13:51:54Z</time>
      </trkpt>
      <trkpt lat="43.85901" lon="6.69573">
        <ele>1031.3</ele>
        <time>2021-09-18T13:51:56Z</time>
      </trkpt>
      <trkpt lat="43.85901" lon="6.69573">
        <ele>1031.2</ele>
        <time>2021-09-18T13:51:57Z</time>
      </trkpt>
      <trkpt lat="43.85901" lon="6.69573">
        <ele>1031.2</ele>
        <time>2021-09-18T13:51:58Z</time>
      </trkpt>
      <trkpt lat="43.85901" lon="6.69574">
        <ele>1031.1</ele>
        <time>2021-09-18T13:51:59Z</time>
      </trkpt>
      <trkpt lat="43.85901" lon="6.69574">
        <ele>1031.1</ele>
        <time>2021-09-18T13:52:00Z</time>
      </trkpt>
      <trkpt lat="43.85888" lon="6.69606">
        <ele>1022</ele>
        <time>2021-09-18T13:52:42Z</time>
      </trkpt>
      <trkpt lat="43.85888" lon="6.6961">
        <ele>1021</ele>
        <time>2021-09-18T13:52:44Z</time>
      </trkpt>
      <trkpt lat="43.85888" lon="6.69614">
        <ele>1020.1</ele>
        <time>2021-09-18T13:52:45Z</time>
      </trkpt>
      <trkpt lat="43.85887" lon="6.6962">
        <ele>1018.8</ele>
        <time>2021-09-18T13:52:47Z</time>
      </trkpt>
      <trkpt lat="43.85887" lon="6.69622">
        <ele>1018.3</ele>
        <time>2021-09-18T13:52:48Z</time>
      </trkpt>
      <trkpt lat="43.85888" lon="6.69626">
        <ele>1017.4</ele>
        <time>2021-09-18T13:52:50Z</time>
      </trkpt>
      <trkpt lat="43.85889" lon="6.69627">
        <ele>1017</ele>
        <time>2021-09-18T13:52:51Z</time>
      </trkpt>
      <trkpt lat="43.8589" lon="6.6963">
        <ele>1016.1</ele>
        <time>2021-09-18T13:52:52Z</time>
      </trkpt>
      <trkpt lat="43.85891" lon="6.6963">
        <ele>1015.8</ele>
        <time>2021-09-18T13:52:53Z</time>
      </trkpt>
      <trkpt lat="43.85892" lon="6.6963">
        <ele>1015.6</ele>
        <time>2021-09-18T13:52:54Z</time>
      </trkpt>
      <trkpt lat="43.85892" lon="6.6963">
        <ele>1015.4</ele>
        <time>2021-09-18T13:52:55Z</time>
      </trkpt>
      <trkpt lat="43.85893" lon="6.69631">
        <ele>1015.1</ele>
        <time>2021-09-18T13:52:57Z</time>
      </trkpt>
      <trkpt lat="43.85894" lon="6.69633">
        <ele>1014.5</ele>
        <time>2021-09-18T13:52:58Z</time>
      </trkpt>
      <trkpt lat="43.85895" lon="6.69636">
        <ele>1013.5</ele>
        <time>2021-09-18T13:53:00Z</time>
      </trkpt>
      <trkpt lat="43.85896" lon="6.69637">
        <ele>1013</ele>
        <time>2021-09-18T13:53:01Z</time>
      </trkpt>
      <trkpt lat="43.85898" lon="6.69639">
        <ele>1011.9</ele>
        <time>2021-09-18T13:53:03Z</time>
      </trkpt>
      <trkpt lat="43.85905" lon="6.69646">
        <ele>1008.3</ele>
        <time>2021-09-18T13:53:06Z</time>
      </trkpt>
      <trkpt lat="43.85907" lon="6.69649">
        <ele>1006.8</ele>
        <time>2021-09-18T13:53:08Z</time>
      </trkpt>
      <trkpt lat="43.85911" lon="6.69653">
        <ele>1004.9</ele>
        <time>2021-09-18T13:53:09Z</time>
      </trkpt>
      <trkpt lat="43.85913" lon="6.69657">
        <ele>1003.3</ele>
        <time>2021-09-18T13:53:10Z</time>
      </trkpt>
      <trkpt lat="43.85914" lon="6.69658">
        <ele>1002.8</ele>
        <time>2021-09-18T13:53:11Z</time>
      </trkpt>
      <trkpt lat="43.85915" lon="6.69662">
        <ele>1001.6</ele>
        <time>2021-09-18T13:53:13Z</time>
      </trkpt>
      <trkpt lat="43.85919" lon="6.69668">
        <ele>999.7</ele>
        <time>2021-09-18T13:53:14Z</time>
      </trkpt>
      <trkpt lat="43.8592" lon="6.69674">
        <ele>997.9</ele>
        <time>2021-09-18T13:53:16Z</time>
      </trkpt>
      <trkpt lat="43.85921" lon="6.69678">
        <ele>996.9</ele>
        <time>2021-09-18T13:53:17Z</time>
      </trkpt>
      <trkpt lat="43.85919" lon="6.69682">
        <ele>995.8</ele>
        <time>2021-09-18T13:53:18Z</time>
      </trkpt>
      <trkpt lat="43.85918" lon="6.69685">
        <ele>995.5</ele>
        <time>2021-09-18T13:53:19Z</time>
      </trkpt>
      <trkpt lat="43.85917" lon="6.69688">
        <ele>994.6</ele>
        <time>2021-09-18T13:53:21Z</time>
      </trkpt>
      <trkpt lat="43.85914" lon="6.69691">
        <ele>993.6</ele>
        <time>2021-09-18T13:53:22Z</time>
      </trkpt>
      <trkpt lat="43.85912" lon="6.69695">
        <ele>992.4</ele>
        <time>2021-09-18T13:53:23Z</time>
      </trkpt>
      <trkpt lat="43.85911" lon="6.69696">
        <ele>991.9</ele>
        <time>2021-09-18T13:53:24Z</time>
      </trkpt>
      <trkpt lat="43.85909" lon="6.697">
        <ele>990.7</ele>
        <time>2021-09-18T13:53:26Z</time>
      </trkpt>
      <trkpt lat="43.85908" lon="6.69701">
        <ele>990.4</ele>
        <time>2021-09-18T13:53:27Z</time>
      </trkpt>
      <trkpt lat="43.85908" lon="6.69701">
        <ele>990.2</ele>
        <time>2021-09-18T13:53:28Z</time>
      </trkpt>
      <trkpt lat="43.85907" lon="6.697">
        <ele>990.1</ele>
        <time>2021-09-18T13:53:30Z</time>
      </trkpt>
      <trkpt lat="43.85907" lon="6.697">
        <ele>990.1</ele>
        <time>2021-09-18T13:53:31Z</time>
      </trkpt>
      <trkpt lat="43.85907" lon="6.697">
        <ele>990</ele>
        <time>2021-09-18T13:53:32Z</time>
      </trkpt>
      <trkpt lat="43.85907" lon="6.697">
        <ele>990</ele>
        <time>2021-09-18T13:53:34Z</time>
      </trkpt>
      <trkpt lat="43.85907" lon="6.697">
        <ele>990</ele>
        <time>2021-09-18T13:53:35Z</time>
      </trkpt>
      <trkpt lat="43.85907" lon="6.697">
        <ele>989.8</ele>
        <time>2021-09-18T13:53:36Z</time>
      </trkpt>
      <trkpt lat="43.85886" lon="6.69725">
        <ele>982.6</ele>
        <time>2021-09-18T13:54:04Z</time>
      </trkpt>
      <trkpt lat="43.85884" lon="6.69728">
        <ele>981.8</ele>
        <time>2021-09-18T13:54:05Z</time>
      </trkpt>
      <trkpt lat="43.85884" lon="6.69732">
        <ele>980.9</ele>
        <time>2021-09-18T13:54:06Z</time>
      </trkpt>
      <trkpt lat="43.85883" lon="6.69739">
        <ele>979.6</ele>
        <time>2021-09-18T13:54:07Z</time>
      </trkpt>
      <trkpt lat="43.85882" lon="6.69746">
        <ele>978.3</ele>
        <time>2021-09-18T13:54:09Z</time>
      </trkpt>
      <trkpt lat="43.85881" lon="6.69747">
        <ele>978</ele>
        <time>2021-09-18T13:54:10Z</time>
      </trkpt>
      <trkpt lat="43.85881" lon="6.69749">
        <ele>977.6</ele>
        <time>2021-09-18T13:54:11Z</time>
      </trkpt>
      <trkpt lat="43.85881" lon="6.69752">
        <ele>977</ele>
        <time>2021-09-18T13:54:12Z</time>
      </trkpt>
      <trkpt lat="43.8588" lon="6.69756">
        <ele>976.2</ele>
        <time>2021-09-18T13:54:14Z</time>
      </trkpt>
      <trkpt lat="43.8588" lon="6.69757">
        <ele>976.1</ele>
        <time>2021-09-18T13:54:15Z</time>
      </trkpt>
      <trkpt lat="43.85879" lon="6.69758">
        <ele>975.9</ele>
        <time>2021-09-18T13:54:16Z</time>
      </trkpt>
      <trkpt lat="43.85878" lon="6.69759">
        <ele>975.6</ele>
        <time>2021-09-18T13:54:17Z</time>
      </trkpt>
      <trkpt lat="43.85878" lon="6.69759">
        <ele>975.5</ele>
        <time>2021-09-18T13:54:19Z</time>
      </trkpt>
      <trkpt lat="43.85878" lon="6.6976">
        <ele>975.3</ele>
        <time>2021-09-18T13:54:20Z</time>
      </trkpt>
      <trkpt lat="43.85876" lon="6.69762">
        <ele>974.8</ele>
        <time>2021-09-18T13:54:22Z</time>
      </trkpt>
      <trkpt lat="43.85874" lon="6.69766">
        <ele>974</ele>
        <time>2021-09-18T13:54:23Z</time>
      </trkpt>
      <trkpt lat="43.85873" lon="6.69768">
        <ele>973.4</ele>
        <time>2021-09-18T13:54:25Z</time>
      </trkpt>
      <trkpt lat="43.8587" lon="6.69772">
        <ele>973.3</ele>
        <time>2021-09-18T13:54:27Z</time>
      </trkpt>
      <trkpt lat="43.85868" lon="6.69774">
        <ele>973.3</ele>
        <time>2021-09-18T13:54:28Z</time>
      </trkpt>
      <trkpt lat="43.85868" lon="6.69775">
        <ele>973.2</ele>
        <time>2021-09-18T13:54:29Z</time>
      </trkpt>
      <trkpt lat="43.85866" lon="6.69778">
        <ele>973.2</ele>
        <time>2021-09-18T13:54:31Z</time>
      </trkpt>
      <trkpt lat="43.85866" lon="6.69778">
        <ele>973.2</ele>
        <time>2021-09-18T13:54:32Z</time>
      </trkpt>
      <trkpt lat="43.85865" lon="6.69779">
        <ele>973.2</ele>
        <time>2021-09-18T13:54:33Z</time>
      </trkpt>
      <trkpt lat="43.8582" lon="6.69809">
        <ele>968.5</ele>
        <time>2021-09-18T13:56:12Z</time>
      </trkpt>
      <trkpt lat="43.85818" lon="6.69813">
        <ele>968.5</ele>
        <time>2021-09-18T13:56:13Z</time>
      </trkpt>
      <trkpt lat="43.85817" lon="6.69817">
        <ele>968.3</ele>
        <time>2021-09-18T13:56:14Z</time>
      </trkpt>
      <trkpt lat="43.85813" lon="6.69828">
        <ele>967.8</ele>
        <time>2021-09-18T13:56:16Z</time>
      </trkpt>
      <trkpt lat="43.85809" lon="6.6984">
        <ele>967.1</ele>
        <time>2021-09-18T13:56:17Z</time>
      </trkpt>
      <trkpt lat="43.85807" lon="6.69847">
        <ele>966.6</ele>
        <time>2021-09-18T13:56:18Z</time>
      </trkpt>
      <trkpt lat="43.85804" lon="6.69858">
        <ele>965.8</ele>
        <time>2021-09-18T13:56:20Z</time>
      </trkpt>
      <trkpt lat="43.85801" lon="6.69865">
        <ele>965.3</ele>
        <time>2021-09-18T13:56:22Z</time>
      </trkpt>
      <trkpt lat="43.85801" lon="6.69876">
        <ele>964.7</ele>
        <time>2021-09-18T13:56:23Z</time>
      </trkpt>
      <trkpt lat="43.85799" lon="6.69883">
        <ele>964.4</ele>
        <time>2021-09-18T13:56:24Z</time>
      </trkpt>
      <trkpt lat="43.85796" lon="6.69893">
        <ele>964.1</ele>
        <time>2021-09-18T13:56:26Z</time>
      </trkpt>
      <trkpt lat="43.85795" lon="6.699">
        <ele>964</ele>
        <time>2021-09-18T13:56:27Z</time>
      </trkpt>
      <trkpt lat="43.85795" lon="6.69903">
        <ele>963.9</ele>
        <time>2021-09-18T13:56:29Z</time>
      </trkpt>
      <trkpt lat="43.85795" lon="6.69905">
        <ele>963.9</ele>
        <time>2021-09-18T13:56:30Z</time>
      </trkpt>
      <trkpt lat="43.85794" lon="6.69907">
        <ele>963.8</ele>
        <time>2021-09-18T13:56:31Z</time>
      </trkpt>
      <trkpt lat="43.85792" lon="6.69909">
        <ele>963.8</ele>
        <time>2021-09-18T13:56:32Z</time>
      </trkpt>
      <trkpt lat="43.85791" lon="6.6991">
        <ele>963.8</ele>
        <time>2021-09-18T13:56:33Z</time>
      </trkpt>
      <trkpt lat="43.85786" lon="6.69914">
        <ele>963.7</ele>
        <time>2021-09-18T13:56:35Z</time>
      </trkpt>
      <trkpt lat="43.85784" lon="6.69915">
        <ele>963.7</ele>
        <time>2021-09-18T13:56:36Z</time>
      </trkpt>
      <trkpt lat="43.85782" lon="6.69918">
        <ele>963.6</ele>
        <time>2021-09-18T13:56:38Z</time>
      </trkpt>
      <trkpt lat="43.85781" lon="6.69922">
        <ele>963.6</ele>
        <time>2021-09-18T13:56:39Z</time>
      </trkpt>
      <trkpt lat="43.85781" lon="6.69927">
        <ele>963.5</ele>
        <time>2021-09-18T13:56:41Z</time>
      </trkpt>
      <trkpt lat="43.8578" lon="6.69931">
        <ele>963.4</ele>
        <time>2021-09-18T13:56:42Z</time>
      </trkpt>
      <trkpt lat="43.85779" lon="6.69936">
        <ele>963.4</ele>
        <time>2021-09-18T13:56:43Z</time>
      </trkpt>
      <trkpt lat="43.85778" lon="6.6994">
        <ele>963.3</ele>
        <time>2021-09-18T13:56:44Z</time>
      </trkpt>
      <trkpt lat="43.85777" lon="6.69947">
        <ele>963.2</ele>
        <time>2021-09-18T13:56:46Z</time>
      </trkpt>
      <trkpt lat="43.85777" lon="6.69954">
        <ele>963</ele>
        <time>2021-09-18T13:56:47Z</time>
      </trkpt>
      <trkpt lat="43.85776" lon="6.6996">
        <ele>962.8</ele>
        <time>2021-09-18T13:56:48Z</time>
      </trkpt>
      <trkpt lat="43.85776" lon="6.69965">
        <ele>962.6</ele>
        <time>2021-09-18T13:56:49Z</time>
      </trkpt>
      <trkpt lat="43.85775" lon="6.69968">
        <ele>962.4</ele>
        <time>2021-09-18T13:56:50Z</time>
      </trkpt>
      <trkpt lat="43.85775" lon="6.69972">
        <ele>962.2</ele>
        <time>2021-09-18T13:56:52Z</time>
      </trkpt>
      <trkpt lat="43.85774" lon="6.69972">
        <ele>962.1</ele>
        <time>2021-09-18T13:56:53Z</time>
      </trkpt>
      <trkpt lat="43.85772" lon="6.69979">
        <ele>961.6</ele>
        <time>2021-09-18T13:56:55Z</time>
      </trkpt>
      <trkpt lat="43.8577" lon="6.69984">
        <ele>961.1</ele>
        <time>2021-09-18T13:56:56Z</time>
      </trkpt>
      <trkpt lat="43.85769" lon="6.6999">
        <ele>960.6</ele>
        <time>2021-09-18T13:56:57Z</time>
      </trkpt>
      <trkpt lat="43.85767" lon="6.69995">
        <ele>960.1</ele>
        <time>2021-09-18T13:56:59Z</time>
      </trkpt>
      <trkpt lat="43.85766" lon="6.7">
        <ele>959.7</ele>
        <time>2021-09-18T13:57:00Z</time>
      </trkpt>
      <trkpt lat="43.85764" lon="6.70006">
        <ele>959.4</ele>
        <time>2021-09-18T13:57:31Z</time>
      </trkpt>
      <trkpt lat="43.85763" lon="6.70011">
        <ele>959.2</ele>
        <time>2021-09-18T13:57:32Z</time>
      </trkpt>
      <trkpt lat="43.85761" lon="6.70018">
        <ele>959</ele>
        <time>2021-09-18T13:57:34Z</time>
      </trkpt>
      <trkpt lat="43.85761" lon="6.70019">
        <ele>959</ele>
        <time>2021-09-18T13:57:35Z</time>
      </trkpt>
      <trkpt lat="43.85761" lon="6.70021">
        <ele>958.9</ele>
        <time>2021-09-18T13:57:36Z</time>
      </trkpt>
      <trkpt lat="43.85761" lon="6.70022">
        <ele>958.9</ele>
        <time>2021-09-18T13:57:37Z</time>
      </trkpt>
      <trkpt lat="43.85761" lon="6.70023">
        <ele>958.9</ele>
        <time>2021-09-18T13:57:39Z</time>
      </trkpt>
      <trkpt lat="43.8576" lon="6.70027">
        <ele>958.7</ele>
        <time>2021-09-18T13:57:41Z</time>
      </trkpt>
      <trkpt lat="43.85757" lon="6.7003">
        <ele>958.5</ele>
        <time>2021-09-18T13:57:43Z</time>
      </trkpt>
      <trkpt lat="43.85757" lon="6.7003">
        <ele>958.5</ele>
        <time>2021-09-18T13:57:44Z</time>
      </trkpt>
      <trkpt lat="43.85753" lon="6.70034">
        <ele>958.2</ele>
        <time>2021-09-18T13:57:45Z</time>
      </trkpt>
      <trkpt lat="43.85751" lon="6.70035">
        <ele>958.1</ele>
        <time>2021-09-18T13:57:46Z</time>
      </trkpt>
      <trkpt lat="43.85748" lon="6.70036">
        <ele>957.9</ele>
        <time>2021-09-18T13:57:48Z</time>
      </trkpt>
      <trkpt lat="43.85746" lon="6.70039">
        <ele>957.7</ele>
        <time>2021-09-18T13:57:49Z</time>
      </trkpt>
      <trkpt lat="43.85744" lon="6.70043">
        <ele>957.5</ele>
        <time>2021-09-18T13:57:50Z</time>
      </trkpt>
      <trkpt lat="43.85741" lon="6.70047">
        <ele>957.3</ele>
        <time>2021-09-18T13:57:51Z</time>
      </trkpt>
      <trkpt lat="43.85739" lon="6.7005">
        <ele>957.2</ele>
        <time>2021-09-18T13:57:52Z</time>
      </trkpt>
      <trkpt lat="43.85736" lon="6.70055">
        <ele>957</ele>
        <time>2021-09-18T13:57:54Z</time>
      </trkpt>
      <trkpt lat="43.8573" lon="6.70062">
        <ele>956.8</ele>
        <time>2021-09-18T13:57:56Z</time>
      </trkpt>
      <trkpt lat="43.85725" lon="6.70067">
        <ele>956.5</ele>
        <time>2021-09-18T13:57:57Z</time>
      </trkpt>
      <trkpt lat="43.8572" lon="6.70072">
        <ele>956.2</ele>
        <time>2021-09-18T13:57:58Z</time>
      </trkpt>
      <trkpt lat="43.85717" lon="6.70077">
        <ele>955.8</ele>
        <time>2021-09-18T13:57:59Z</time>
      </trkpt>
      <trkpt lat="43.85712" lon="6.70084">
        <ele>955.2</ele>
        <time>2021-09-18T13:58:01Z</time>
      </trkpt>
      <trkpt lat="43.85709" lon="6.70089">
        <ele>954.6</ele>
        <time>2021-09-18T13:58:02Z</time>
      </trkpt>
      <trkpt lat="43.85705" lon="6.70095">
        <ele>954</ele>
        <time>2021-09-18T13:58:03Z</time>
      </trkpt>
      <trkpt lat="43.85703" lon="6.70099">
        <ele>953.4</ele>
        <time>2021-09-18T13:58:04Z</time>
      </trkpt>
      <trkpt lat="43.857" lon="6.70105">
        <ele>952.7</ele>
        <time>2021-09-18T13:58:06Z</time>
      </trkpt>
      <trkpt lat="43.85698" lon="6.70112">
        <ele>951.9</ele>
        <time>2021-09-18T13:58:07Z</time>
      </trkpt>
      <trkpt lat="43.85697" lon="6.70118">
        <ele>951.3</ele>
        <time>2021-09-18T13:58:08Z</time>
      </trkpt>
      <trkpt lat="43.85696" lon="6.70124">
        <ele>950.6</ele>
        <time>2021-09-18T13:58:09Z</time>
      </trkpt>
      <trkpt lat="43.85695" lon="6.70131">
        <ele>950</ele>
        <time>2021-09-18T13:58:11Z</time>
      </trkpt>
      <trkpt lat="43.85693" lon="6.70136">
        <ele>949.5</ele>
        <time>2021-09-18T13:58:12Z</time>
      </trkpt>
      <trkpt lat="43.85692" lon="6.70143">
        <ele>948.9</ele>
        <time>2021-09-18T13:58:13Z</time>
      </trkpt>
      <trkpt lat="43.85693" lon="6.70151">
        <ele>948.3</ele>
        <time>2021-09-18T13:58:15Z</time>
      </trkpt>
      <trkpt lat="43.85692" lon="6.70156">
        <ele>948</ele>
        <time>2021-09-18T13:58:16Z</time>
      </trkpt>
      <trkpt lat="43.85691" lon="6.7016">
        <ele>947.6</ele>
        <time>2021-09-18T13:58:17Z</time>
      </trkpt>
      <trkpt lat="43.8569" lon="6.7016">
        <ele>947.5</ele>
        <time>2021-09-18T13:58:18Z</time>
      </trkpt>
      <trkpt lat="43.85689" lon="6.70165">
        <ele>947.2</ele>
        <time>2021-09-18T13:58:20Z</time>
      </trkpt>
      <trkpt lat="43.8569" lon="6.70169">
        <ele>946.8</ele>
        <time>2021-09-18T13:58:21Z</time>
      </trkpt>
      <trkpt lat="43.8569" lon="6.70174">
        <ele>946.4</ele>
        <time>2021-09-18T13:58:22Z</time>
      </trkpt>
      <trkpt lat="43.8569" lon="6.70184">
        <ele>945.7</ele>
        <time>2021-09-18T13:58:24Z</time>
      </trkpt>
      <trkpt lat="43.85688" lon="6.7019">
        <ele>945.3</ele>
        <time>2021-09-18T13:58:25Z</time>
      </trkpt>
      <trkpt lat="43.85687" lon="6.70195">
        <ele>945.1</ele>
        <time>2021-09-18T13:58:26Z</time>
      </trkpt>
      <trkpt lat="43.85686" lon="6.70197">
        <ele>945</ele>
        <time>2021-09-18T13:58:27Z</time>
      </trkpt>
      <trkpt lat="43.85686" lon="6.70199">
        <ele>944.9</ele>
        <time>2021-09-18T13:58:28Z</time>
      </trkpt>
      <trkpt lat="43.85685" lon="6.70201">
        <ele>944.9</ele>
        <time>2021-09-18T13:58:30Z</time>
      </trkpt>
      <trkpt lat="43.85685" lon="6.70203">
        <ele>944.8</ele>
        <time>2021-09-18T13:58:31Z</time>
      </trkpt>
      <trkpt lat="43.85684" lon="6.70205">
        <ele>944.8</ele>
        <time>2021-09-18T13:58:32Z</time>
      </trkpt>
      <trkpt lat="43.85682" lon="6.70209">
        <ele>944.8</ele>
        <time>2021-09-18T13:58:34Z</time>
      </trkpt>
      <trkpt lat="43.8568" lon="6.70211">
        <ele>944.8</ele>
        <time>2021-09-18T13:58:35Z</time>
      </trkpt>
      <trkpt lat="43.85676" lon="6.70215">
        <ele>944.9</ele>
        <time>2021-09-18T13:58:37Z</time>
      </trkpt>
      <trkpt lat="43.85673" lon="6.70217">
        <ele>945</ele>
        <time>2021-09-18T13:58:38Z</time>
      </trkpt>
      <trkpt lat="43.8567" lon="6.70219">
        <ele>945.1</ele>
        <time>2021-09-18T13:58:39Z</time>
      </trkpt>
      <trkpt lat="43.85669" lon="6.7022">
        <ele>945.2</ele>
        <time>2021-09-18T13:58:40Z</time>
      </trkpt>
      <trkpt lat="43.85667" lon="6.70225">
        <ele>945.2</ele>
        <time>2021-09-18T13:58:41Z</time>
      </trkpt>
      <trkpt lat="43.85663" lon="6.70232">
        <ele>945.3</ele>
        <time>2021-09-18T13:58:43Z</time>
      </trkpt>
      <trkpt lat="43.8566" lon="6.70238">
        <ele>945.2</ele>
        <time>2021-09-18T13:58:44Z</time>
      </trkpt>
      <trkpt lat="43.85654" lon="6.70254">
        <ele>944.5</ele>
        <time>2021-09-18T13:58:46Z</time>
      </trkpt>
      <trkpt lat="43.85651" lon="6.70261">
        <ele>944.2</ele>
        <time>2021-09-18T13:58:47Z</time>
      </trkpt>
      <trkpt lat="43.85648" lon="6.70271">
        <ele>943.7</ele>
        <time>2021-09-18T13:58:49Z</time>
      </trkpt>
      <trkpt lat="43.85648" lon="6.70277">
        <ele>943.4</ele>
        <time>2021-09-18T13:58:50Z</time>
      </trkpt>
      <trkpt lat="43.85644" lon="6.70284">
        <ele>943.1</ele>
        <time>2021-09-18T13:58:51Z</time>
      </trkpt>
      <trkpt lat="43.85641" lon="6.7029">
        <ele>942.8</ele>
        <time>2021-09-18T13:58:53Z</time>
      </trkpt>
      <trkpt lat="43.85638" lon="6.70298">
        <ele>942.5</ele>
        <time>2021-09-18T13:58:54Z</time>
      </trkpt>
      <trkpt lat="43.85638" lon="6.70305">
        <ele>942.4</ele>
        <time>2021-09-18T13:58:56Z</time>
      </trkpt>
      <trkpt lat="43.8564" lon="6.70311">
        <ele>942.3</ele>
        <time>2021-09-18T13:58:58Z</time>
      </trkpt>
      <trkpt lat="43.85643" lon="6.70313">
        <ele>942.3</ele>
        <time>2021-09-18T13:59:00Z</time>
      </trkpt>
      <trkpt lat="43.85645" lon="6.70313">
        <ele>942.2</ele>
        <time>2021-09-18T13:59:01Z</time>
      </trkpt>
      <trkpt lat="43.85646" lon="6.70314">
        <ele>942.2</ele>
        <time>2021-09-18T13:59:02Z</time>
      </trkpt>
      <trkpt lat="43.85647" lon="6.7032">
        <ele>942.1</ele>
        <time>2021-09-18T13:59:03Z</time>
      </trkpt>
      <trkpt lat="43.85648" lon="6.70323">
        <ele>942.1</ele>
        <time>2021-09-18T13:59:04Z</time>
      </trkpt>
      <trkpt lat="43.85649" lon="6.70325">
        <ele>942</ele>
        <time>2021-09-18T13:59:06Z</time>
      </trkpt>
      <trkpt lat="43.85653" lon="6.70338">
        <ele>941.7</ele>
        <time>2021-09-18T13:59:07Z</time>
      </trkpt>
      <trkpt lat="43.85655" lon="6.70345">
        <ele>941.6</ele>
        <time>2021-09-18T13:59:08Z</time>
      </trkpt>
      <trkpt lat="43.85662" lon="6.70357">
        <ele>941.4</ele>
        <time>2021-09-18T13:59:09Z</time>
      </trkpt>
      <trkpt lat="43.85667" lon="6.70365">
        <ele>941.1</ele>
        <time>2021-09-18T13:59:11Z</time>
      </trkpt>
      <trkpt lat="43.85672" lon="6.70373">
        <ele>940.8</ele>
        <time>2021-09-18T13:59:12Z</time>
      </trkpt>
      <trkpt lat="43.85678" lon="6.70384">
        <ele>940.1</ele>
        <time>2021-09-18T13:59:14Z</time>
      </trkpt>
      <trkpt lat="43.85681" lon="6.70389">
        <ele>939.7</ele>
        <time>2021-09-18T13:59:15Z</time>
      </trkpt>
      <trkpt lat="43.85683" lon="6.70393">
        <ele>939.4</ele>
        <time>2021-09-18T13:59:16Z</time>
      </trkpt>
      <trkpt lat="43.85686" lon="6.70399">
        <ele>939</ele>
        <time>2021-09-18T13:59:17Z</time>
      </trkpt>
      <trkpt lat="43.85688" lon="6.70402">
        <ele>938.7</ele>
        <time>2021-09-18T13:59:19Z</time>
      </trkpt>
      <trkpt lat="43.85691" lon="6.70406">
        <ele>938.5</ele>
        <time>2021-09-18T13:59:20Z</time>
      </trkpt>
      <trkpt lat="43.85695" lon="6.70411">
        <ele>938.2</ele>
        <time>2021-09-18T13:59:21Z</time>
      </trkpt>
      <trkpt lat="43.85698" lon="6.70417">
        <ele>937.9</ele>
        <time>2021-09-18T13:59:23Z</time>
      </trkpt>
      <trkpt lat="43.85702" lon="6.70421">
        <ele>937.7</ele>
        <time>2021-09-18T13:59:24Z</time>
      </trkpt>
      <trkpt lat="43.85707" lon="6.70426">
        <ele>937.4</ele>
        <time>2021-09-18T13:59:25Z</time>
      </trkpt>
      <trkpt lat="43.85709" lon="6.7043">
        <ele>937.3</ele>
        <time>2021-09-18T13:59:26Z</time>
      </trkpt>
      <trkpt lat="43.85714" lon="6.70437">
        <ele>937</ele>
        <time>2021-09-18T13:59:28Z</time>
      </trkpt>
      <trkpt lat="43.85718" lon="6.70443">
        <ele>936.6</ele>
        <time>2021-09-18T13:59:29Z</time>
      </trkpt>
      <trkpt lat="43.85721" lon="6.70449">
        <ele>936.3</ele>
        <time>2021-09-18T13:59:31Z</time>
      </trkpt>
      <trkpt lat="43.85721" lon="6.70453">
        <ele>936.1</ele>
        <time>2021-09-18T13:59:32Z</time>
      </trkpt>
      <trkpt lat="43.8572" lon="6.70457">
        <ele>935.9</ele>
        <time>2021-09-18T13:59:34Z</time>
      </trkpt>
      <trkpt lat="43.85719" lon="6.70458">
        <ele>935.9</ele>
        <time>2021-09-18T13:59:35Z</time>
      </trkpt>
      <trkpt lat="43.85719" lon="6.70459">
        <ele>935.8</ele>
        <time>2021-09-18T13:59:36Z</time>
      </trkpt>
      <trkpt lat="43.85719" lon="6.70459">
        <ele>935.8</ele>
        <time>2021-09-18T13:59:38Z</time>
      </trkpt>
      <trkpt lat="43.85719" lon="6.70459">
        <ele>935.8</ele>
        <time>2021-09-18T13:59:40Z</time>
      </trkpt>
      <trkpt lat="43.85719" lon="6.70459">
        <ele>935.8</ele>
        <time>2021-09-18T13:59:42Z</time>
      </trkpt>
      <trkpt lat="43.85686" lon="6.70569">
        <ele>934.5</ele>
        <time>2021-09-18T14:01:53Z</time>
      </trkpt>
      <trkpt lat="43.85686" lon="6.70573">
        <ele>934.8</ele>
        <time>2021-09-18T14:01:54Z</time>
      </trkpt>
      <trkpt lat="43.85686" lon="6.70577">
        <ele>935</ele>
        <time>2021-09-18T14:01:55Z</time>
      </trkpt>
      <trkpt lat="43.85686" lon="6.7058">
        <ele>935.1</ele>
        <time>2021-09-18T14:01:56Z</time>
      </trkpt>
      <trkpt lat="43.85687" lon="6.70583">
        <ele>935.2</ele>
        <time>2021-09-18T14:01:58Z</time>
      </trkpt>
      <trkpt lat="43.85689" lon="6.70587">
        <ele>935.4</ele>
        <time>2021-09-18T14:01:59Z</time>
      </trkpt>
      <trkpt lat="43.8569" lon="6.70588">
        <ele>935.4</ele>
        <time>2021-09-18T14:02:00Z</time>
      </trkpt>
      <trkpt lat="43.8569" lon="6.7059">
        <ele>935.5</ele>
        <time>2021-09-18T14:02:01Z</time>
      </trkpt>
      <trkpt lat="43.8569" lon="6.70591">
        <ele>935.5</ele>
        <time>2021-09-18T14:02:03Z</time>
      </trkpt>
      <trkpt lat="43.85691" lon="6.70592">
        <ele>935.5</ele>
        <time>2021-09-18T14:02:05Z</time>
      </trkpt>
      <trkpt lat="43.85691" lon="6.70592">
        <ele>935.5</ele>
        <time>2021-09-18T14:02:06Z</time>
      </trkpt>
      <trkpt lat="43.85693" lon="6.70594">
        <ele>935.6</ele>
        <time>2021-09-18T14:02:08Z</time>
      </trkpt>
      <trkpt lat="43.85695" lon="6.70595">
        <ele>935.6</ele>
        <time>2021-09-18T14:02:09Z</time>
      </trkpt>
      <trkpt lat="43.85698" lon="6.70597">
        <ele>935.7</ele>
        <time>2021-09-18T14:02:11Z</time>
      </trkpt>
      <trkpt lat="43.857" lon="6.70598">
        <ele>935.7</ele>
        <time>2021-09-18T14:02:13Z</time>
      </trkpt>
      <trkpt lat="43.85702" lon="6.70605">
        <ele>935.8</ele>
        <time>2021-09-18T14:02:15Z</time>
      </trkpt>
      <trkpt lat="43.85703" lon="6.70613">
        <ele>935.8</ele>
        <time>2021-09-18T14:02:17Z</time>
      </trkpt>
      <trkpt lat="43.85703" lon="6.70618">
        <ele>935.8</ele>
        <time>2021-09-18T14:02:18Z</time>
      </trkpt>
      <trkpt lat="43.85704" lon="6.70625">
        <ele>935.9</ele>
        <time>2021-09-18T14:02:19Z</time>
      </trkpt>
      <trkpt lat="43.85705" lon="6.70632">
        <ele>935.9</ele>
        <time>2021-09-18T14:02:21Z</time>
      </trkpt>
      <trkpt lat="43.85705" lon="6.70634">
        <ele>935.9</ele>
        <time>2021-09-18T14:02:22Z</time>
      </trkpt>
      <trkpt lat="43.85706" lon="6.70637">
        <ele>935.9</ele>
        <time>2021-09-18T14:02:23Z</time>
      </trkpt>
      <trkpt lat="43.85706" lon="6.70644">
        <ele>936</ele>
        <time>2021-09-18T14:02:25Z</time>
      </trkpt>
      <trkpt lat="43.85707" lon="6.70649">
        <ele>936</ele>
        <time>2021-09-18T14:02:26Z</time>
      </trkpt>
      <trkpt lat="43.85708" lon="6.70661">
        <ele>936</ele>
        <time>2021-09-18T14:02:28Z</time>
      </trkpt>
      <trkpt lat="43.85709" lon="6.70667">
        <ele>936</ele>
        <time>2021-09-18T14:02:29Z</time>
      </trkpt>
      <trkpt lat="43.85708" lon="6.70677">
        <ele>936</ele>
        <time>2021-09-18T14:02:31Z</time>
      </trkpt>
      <trkpt lat="43.85707" lon="6.70683">
        <ele>936</ele>
        <time>2021-09-18T14:02:32Z</time>
      </trkpt>
      <trkpt lat="43.85706" lon="6.7069">
        <ele>935.9</ele>
        <time>2021-09-18T14:02:33Z</time>
      </trkpt>
      <trkpt lat="43.85705" lon="6.70697">
        <ele>935.9</ele>
        <time>2021-09-18T14:02:35Z</time>
      </trkpt>
      <trkpt lat="43.85704" lon="6.70706">
        <ele>935.8</ele>
        <time>2021-09-18T14:02:36Z</time>
      </trkpt>
      <trkpt lat="43.85703" lon="6.70716">
        <ele>935.6</ele>
        <time>2021-09-18T14:02:38Z</time>
      </trkpt>
      <trkpt lat="43.85703" lon="6.70725">
        <ele>935.4</ele>
        <time>2021-09-18T14:02:39Z</time>
      </trkpt>
      <trkpt lat="43.85704" lon="6.7073">
        <ele>935.3</ele>
        <time>2021-09-18T14:02:40Z</time>
      </trkpt>
      <trkpt lat="43.85705" lon="6.70735">
        <ele>935.1</ele>
        <time>2021-09-18T14:02:42Z</time>
      </trkpt>
      <trkpt lat="43.85706" lon="6.70737">
        <ele>935</ele>
        <time>2021-09-18T14:02:43Z</time>
      </trkpt>
      <trkpt lat="43.85705" lon="6.70737">
        <ele>935</ele>
        <time>2021-09-18T14:02:45Z</time>
      </trkpt>
      <trkpt lat="43.85706" lon="6.70738">
        <ele>934.9</ele>
        <time>2021-09-18T14:02:47Z</time>
      </trkpt>
      <trkpt lat="43.85706" lon="6.70739">
        <ele>934.9</ele>
        <time>2021-09-18T14:02:48Z</time>
      </trkpt>
      <trkpt lat="43.85706" lon="6.70741">
        <ele>934.8</ele>
        <time>2021-09-18T14:02:50Z</time>
      </trkpt>
      <trkpt lat="43.85707" lon="6.70741">
        <ele>934.8</ele>
        <time>2021-09-18T14:02:52Z</time>
      </trkpt>
      <trkpt lat="43.85707" lon="6.70742">
        <ele>934.7</ele>
        <time>2021-09-18T14:02:53Z</time>
      </trkpt>
      <trkpt lat="43.8571" lon="6.70759">
        <ele>933.9</ele>
        <time>2021-09-18T14:03:07Z</time>
      </trkpt>
      <trkpt lat="43.85713" lon="6.70764">
        <ele>933.6</ele>
        <time>2021-09-18T14:03:08Z</time>
      </trkpt>
      <trkpt lat="43.85717" lon="6.70769">
        <ele>933.3</ele>
        <time>2021-09-18T14:03:09Z</time>
      </trkpt>
      <trkpt lat="43.85724" lon="6.70778">
        <ele>932.9</ele>
        <time>2021-09-18T14:03:11Z</time>
      </trkpt>
      <trkpt lat="43.85729" lon="6.70786">
        <ele>932.7</ele>
        <time>2021-09-18T14:03:12Z</time>
      </trkpt>
      <trkpt lat="43.85733" lon="6.70801">
        <ele>932.6</ele>
        <time>2021-09-18T14:03:14Z</time>
      </trkpt>
      <trkpt lat="43.85736" lon="6.70819">
        <ele>932.3</ele>
        <time>2021-09-18T14:03:16Z</time>
      </trkpt>
      <trkpt lat="43.85737" lon="6.70827">
        <ele>932.1</ele>
        <time>2021-09-18T14:03:17Z</time>
      </trkpt>
      <trkpt lat="43.85738" lon="6.70833">
        <ele>932</ele>
        <time>2021-09-18T14:03:18Z</time>
      </trkpt>
      <trkpt lat="43.85741" lon="6.70847">
        <ele>931.5</ele>
        <time>2021-09-18T14:03:20Z</time>
      </trkpt>
      <trkpt lat="43.85742" lon="6.70864">
        <ele>931</ele>
        <time>2021-09-18T14:03:22Z</time>
      </trkpt>
      <trkpt lat="43.85742" lon="6.70872">
        <ele>930.7</ele>
        <time>2021-09-18T14:03:23Z</time>
      </trkpt>
      <trkpt lat="43.85741" lon="6.70883">
        <ele>930.5</ele>
        <time>2021-09-18T14:03:25Z</time>
      </trkpt>
      <trkpt lat="43.85738" lon="6.70888">
        <ele>930.4</ele>
        <time>2021-09-18T14:03:26Z</time>
      </trkpt>
      <trkpt lat="43.85739" lon="6.70897">
        <ele>930.3</ele>
        <time>2021-09-18T14:03:27Z</time>
      </trkpt>
      <trkpt lat="43.8574" lon="6.70908">
        <ele>930.3</ele>
        <time>2021-09-18T14:03:29Z</time>
      </trkpt>
      <trkpt lat="43.85741" lon="6.70919">
        <ele>930.2</ele>
        <time>2021-09-18T14:03:30Z</time>
      </trkpt>
      <trkpt lat="43.85741" lon="6.70927">
        <ele>930.2</ele>
        <time>2021-09-18T14:03:31Z</time>
      </trkpt>
      <trkpt lat="43.85741" lon="6.70933">
        <ele>930.2</ele>
        <time>2021-09-18T14:03:32Z</time>
      </trkpt>
      <trkpt lat="43.85739" lon="6.70946">
        <ele>930.1</ele>
        <time>2021-09-18T14:03:34Z</time>
      </trkpt>
      <trkpt lat="43.85738" lon="6.70954">
        <ele>930.1</ele>
        <time>2021-09-18T14:03:35Z</time>
      </trkpt>
      <trkpt lat="43.85738" lon="6.70961">
        <ele>929.9</ele>
        <time>2021-09-18T14:03:36Z</time>
      </trkpt>
      <trkpt lat="43.85741" lon="6.70967">
        <ele>929.8</ele>
        <time>2021-09-18T14:03:37Z</time>
      </trkpt>
      <trkpt lat="43.85742" lon="6.70975">
        <ele>929.5</ele>
        <time>2021-09-18T14:03:39Z</time>
      </trkpt>
      <trkpt lat="43.85743" lon="6.7098">
        <ele>929.3</ele>
        <time>2021-09-18T14:03:40Z</time>
      </trkpt>
      <trkpt lat="43.85744" lon="6.70985">
        <ele>929.2</ele>
        <time>2021-09-18T14:03:42Z</time>
      </trkpt>
      <trkpt lat="43.85744" lon="6.70988">
        <ele>929.1</ele>
        <time>2021-09-18T14:03:43Z</time>
      </trkpt>
      <trkpt lat="43.85744" lon="6.70992">
        <ele>929</ele>
        <time>2021-09-18T14:03:45Z</time>
      </trkpt>
      <trkpt lat="43.85743" lon="6.70989">
        <ele>929</ele>
        <time>2021-09-18T14:03:46Z</time>
      </trkpt>
      <trkpt lat="43.85742" lon="6.70987">
        <ele>929</ele>
        <time>2021-09-18T14:03:47Z</time>
      </trkpt>
      <trkpt lat="43.85741" lon="6.70986">
        <ele>929</ele>
        <time>2021-09-18T14:03:48Z</time>
      </trkpt>
      <trkpt lat="43.85741" lon="6.70985">
        <ele>929</ele>
        <time>2021-09-18T14:03:50Z</time>
      </trkpt>
      <trkpt lat="43.85741" lon="6.70985">
        <ele>929</ele>
        <time>2021-09-18T14:03:51Z</time>
      </trkpt>
      <trkpt lat="43.85741" lon="6.70985">
        <ele>929</ele>
        <time>2021-09-18T14:03:53Z</time>
      </trkpt>
      <trkpt lat="43.85744" lon="6.71017">
        <ele>929.1</ele>
        <time>2021-09-18T14:04:17Z</time>
      </trkpt>
      <trkpt lat="43.85744" lon="6.71022">
        <ele>929.1</ele>
        <time>2021-09-18T14:04:18Z</time>
      </trkpt>
      <trkpt lat="43.85743" lon="6.71029">
        <ele>929.1</ele>
        <time>2021-09-18T14:04:19Z</time>
      </trkpt>
      <trkpt lat="43.85742" lon="6.71034">
        <ele>929</ele>
        <time>2021-09-18T14:04:20Z</time>
      </trkpt>
      <trkpt lat="43.85739" lon="6.71041">
        <ele>928.9</ele>
        <time>2021-09-18T14:04:22Z</time>
      </trkpt>
      <trkpt lat="43.85735" lon="6.71047">
        <ele>928.8</ele>
        <time>2021-09-18T14:04:24Z</time>
      </trkpt>
      <trkpt lat="43.85731" lon="6.71054">
        <ele>928.6</ele>
        <time>2021-09-18T14:04:26Z</time>
      </trkpt>
      <trkpt lat="43.85729" lon="6.71058">
        <ele>928.6</ele>
        <time>2021-09-18T14:04:27Z</time>
      </trkpt>
      <trkpt lat="43.85728" lon="6.71062">
        <ele>928.5</ele>
        <time>2021-09-18T14:04:28Z</time>
      </trkpt>
      <trkpt lat="43.85726" lon="6.71066">
        <ele>928.4</ele>
        <time>2021-09-18T14:04:29Z</time>
      </trkpt>
      <trkpt lat="43.85724" lon="6.71072">
        <ele>928.3</ele>
        <time>2021-09-18T14:04:30Z</time>
      </trkpt>
      <trkpt lat="43.85724" lon="6.71076">
        <ele>928.2</ele>
        <time>2021-09-18T14:04:31Z</time>
      </trkpt>
      <trkpt lat="43.85723" lon="6.71085">
        <ele>928</ele>
        <time>2021-09-18T14:04:33Z</time>
      </trkpt>
      <trkpt lat="43.85723" lon="6.71097">
        <ele>927.8</ele>
        <time>2021-09-18T14:04:35Z</time>
      </trkpt>
      <trkpt lat="43.85724" lon="6.71106">
        <ele>927.7</ele>
        <time>2021-09-18T14:04:37Z</time>
      </trkpt>
      <trkpt lat="43.85724" lon="6.7111">
        <ele>927.6</ele>
        <time>2021-09-18T14:04:38Z</time>
      </trkpt>
      <trkpt lat="43.85724" lon="6.71116">
        <ele>927.6</ele>
        <time>2021-09-18T14:04:39Z</time>
      </trkpt>
      <trkpt lat="43.85724" lon="6.71121">
        <ele>927.5</ele>
        <time>2021-09-18T14:04:40Z</time>
      </trkpt>
      <trkpt lat="43.85724" lon="6.71129">
        <ele>927.5</ele>
        <time>2021-09-18T14:04:42Z</time>
      </trkpt>
      <trkpt lat="43.85724" lon="6.71135">
        <ele>927.4</ele>
        <time>2021-09-18T14:04:43Z</time>
      </trkpt>
      <trkpt lat="43.85724" lon="6.71148">
        <ele>927.3</ele>
        <time>2021-09-18T14:04:44Z</time>
      </trkpt>
      <trkpt lat="43.85724" lon="6.71156">
        <ele>927.2</ele>
        <time>2021-09-18T14:04:46Z</time>
      </trkpt>
      <trkpt lat="43.85725" lon="6.71164">
        <ele>927.1</ele>
        <time>2021-09-18T14:04:47Z</time>
      </trkpt>
      <trkpt lat="43.85727" lon="6.71182">
        <ele>926.9</ele>
        <time>2021-09-18T14:04:49Z</time>
      </trkpt>
      <trkpt lat="43.85731" lon="6.71196">
        <ele>926.9</ele>
        <time>2021-09-18T14:04:51Z</time>
      </trkpt>
      <trkpt lat="43.85732" lon="6.71201">
        <ele>927</ele>
        <time>2021-09-18T14:04:52Z</time>
      </trkpt>
      <trkpt lat="43.85734" lon="6.71211">
        <ele>927.1</ele>
        <time>2021-09-18T14:04:54Z</time>
      </trkpt>
      <trkpt lat="43.85734" lon="6.71214">
        <ele>927.1</ele>
        <time>2021-09-18T14:04:55Z</time>
      </trkpt>
      <trkpt lat="43.85736" lon="6.71218">
        <ele>927.2</ele>
        <time>2021-09-18T14:04:57Z</time>
      </trkpt>
      <trkpt lat="43.85737" lon="6.71223">
        <ele>927.3</ele>
        <time>2021-09-18T14:04:58Z</time>
      </trkpt>
      <trkpt lat="43.85738" lon="6.71227">
        <ele>927.3</ele>
        <time>2021-09-18T14:04:59Z</time>
      </trkpt>
      <trkpt lat="43.8574" lon="6.71231">
        <ele>927.4</ele>
        <time>2021-09-18T14:05:00Z</time>
      </trkpt>
      <trkpt lat="43.85742" lon="6.71238">
        <ele>927.5</ele>
        <time>2021-09-18T14:05:02Z</time>
      </trkpt>
      <trkpt lat="43.85744" lon="6.71242">
        <ele>927.6</ele>
        <time>2021-09-18T14:05:03Z</time>
      </trkpt>
      <trkpt lat="43.85748" lon="6.71247">
        <ele>927.7</ele>
        <time>2021-09-18T14:05:05Z</time>
      </trkpt>
      <trkpt lat="43.85751" lon="6.7125">
        <ele>927.8</ele>
        <time>2021-09-18T14:05:06Z</time>
      </trkpt>
      <trkpt lat="43.85754" lon="6.71254">
        <ele>927.9</ele>
        <time>2021-09-18T14:05:08Z</time>
      </trkpt>
      <trkpt lat="43.85757" lon="6.71256">
        <ele>927.9</ele>
        <time>2021-09-18T14:05:09Z</time>
      </trkpt>
      <trkpt lat="43.85758" lon="6.71259">
        <ele>928</ele>
        <time>2021-09-18T14:05:10Z</time>
      </trkpt>
      <trkpt lat="43.8576" lon="6.71264">
        <ele>928</ele>
        <time>2021-09-18T14:05:11Z</time>
      </trkpt>
      <trkpt lat="43.85761" lon="6.71269">
        <ele>928</ele>
        <time>2021-09-18T14:05:13Z</time>
      </trkpt>
      <trkpt lat="43.85761" lon="6.71276">
        <ele>928.1</ele>
        <time>2021-09-18T14:05:14Z</time>
      </trkpt>
      <trkpt lat="43.85762" lon="6.71283">
        <ele>928.2</ele>
        <time>2021-09-18T14:05:16Z</time>
      </trkpt>
      <trkpt lat="43.85763" lon="6.71287">
        <ele>928.3</ele>
        <time>2021-09-18T14:05:17Z</time>
      </trkpt>
      <trkpt lat="43.85763" lon="6.71293">
        <ele>928.5</ele>
        <time>2021-09-18T14:05:18Z</time>
      </trkpt>
      <trkpt lat="43.85762" lon="6.71302">
        <ele>928.8</ele>
        <time>2021-09-18T14:05:20Z</time>
      </trkpt>
      <trkpt lat="43.85761" lon="6.71315">
        <ele>929</ele>
        <time>2021-09-18T14:05:22Z</time>
      </trkpt>
      <trkpt lat="43.85762" lon="6.71324">
        <ele>929</ele>
        <time>2021-09-18T14:05:24Z</time>
      </trkpt>
      <trkpt lat="43.85763" lon="6.71329">
        <ele>929</ele>
        <time>2021-09-18T14:05:25Z</time>
      </trkpt>
      <trkpt lat="43.85762" lon="6.71337">
        <ele>928.8</ele>
        <time>2021-09-18T14:05:26Z</time>
      </trkpt>
      <trkpt lat="43.85762" lon="6.71346">
        <ele>928.5</ele>
        <time>2021-09-18T14:05:28Z</time>
      </trkpt>
      <trkpt lat="43.85761" lon="6.71358">
        <ele>927.9</ele>
        <time>2021-09-18T14:05:30Z</time>
      </trkpt>
      <trkpt lat="43.85758" lon="6.71368">
        <ele>927.2</ele>
        <time>2021-09-18T14:05:32Z</time>
      </trkpt>
      <trkpt lat="43.85756" lon="6.71376">
        <ele>926.5</ele>
        <time>2021-09-18T14:05:33Z</time>
      </trkpt>
      <trkpt lat="43.85753" lon="6.71389">
        <ele>925.9</ele>
        <time>2021-09-18T14:05:35Z</time>
      </trkpt>
      <trkpt lat="43.85752" lon="6.71399">
        <ele>925.8</ele>
        <time>2021-09-18T14:05:36Z</time>
      </trkpt>
      <trkpt lat="43.85751" lon="6.71411">
        <ele>925.6</ele>
        <time>2021-09-18T14:05:38Z</time>
      </trkpt>
      <trkpt lat="43.8575" lon="6.7142">
        <ele>925.5</ele>
        <time>2021-09-18T14:05:39Z</time>
      </trkpt>
      <trkpt lat="43.85748" lon="6.71432">
        <ele>925.3</ele>
        <time>2021-09-18T14:05:40Z</time>
      </trkpt>
      <trkpt lat="43.85746" lon="6.71441">
        <ele>925.1</ele>
        <time>2021-09-18T14:05:41Z</time>
      </trkpt>
      <trkpt lat="43.85746" lon="6.71449">
        <ele>924.8</ele>
        <time>2021-09-18T14:05:42Z</time>
      </trkpt>
      <trkpt lat="43.85745" lon="6.71462">
        <ele>924.2</ele>
        <time>2021-09-18T14:05:44Z</time>
      </trkpt>
      <trkpt lat="43.85746" lon="6.71467">
        <ele>924</ele>
        <time>2021-09-18T14:05:45Z</time>
      </trkpt>
      <trkpt lat="43.85748" lon="6.71475">
        <ele>923.7</ele>
        <time>2021-09-18T14:05:47Z</time>
      </trkpt>
      <trkpt lat="43.85747" lon="6.71482">
        <ele>923.3</ele>
        <time>2021-09-18T14:05:48Z</time>
      </trkpt>
      <trkpt lat="43.85748" lon="6.71491">
        <ele>923</ele>
        <time>2021-09-18T14:05:49Z</time>
      </trkpt>
      <trkpt lat="43.85748" lon="6.71498">
        <ele>922.7</ele>
        <time>2021-09-18T14:05:50Z</time>
      </trkpt>
      <trkpt lat="43.8575" lon="6.71513">
        <ele>922.2</ele>
        <time>2021-09-18T14:05:52Z</time>
      </trkpt>
      <trkpt lat="43.85752" lon="6.71527">
        <ele>921.8</ele>
        <time>2021-09-18T14:05:54Z</time>
      </trkpt>
      <trkpt lat="43.85753" lon="6.71534">
        <ele>921.6</ele>
        <time>2021-09-18T14:05:55Z</time>
      </trkpt>
      <trkpt lat="43.85753" lon="6.71543">
        <ele>921.4</ele>
        <time>2021-09-18T14:05:57Z</time>
      </trkpt>
      <trkpt lat="43.85757" lon="6.71552">
        <ele>921.2</ele>
        <time>2021-09-18T14:05:58Z</time>
      </trkpt>
      <trkpt lat="43.85761" lon="6.71557">
        <ele>921.1</ele>
        <time>2021-09-18T14:05:59Z</time>
      </trkpt>
      <trkpt lat="43.85765" lon="6.71572">
        <ele>920.8</ele>
        <time>2021-09-18T14:06:01Z</time>
      </trkpt>
      <trkpt lat="43.85766" lon="6.7158">
        <ele>920.7</ele>
        <time>2021-09-18T14:06:02Z</time>
      </trkpt>
      <trkpt lat="43.85769" lon="6.71593">
        <ele>920.5</ele>
        <time>2021-09-18T14:06:04Z</time>
      </trkpt>
      <trkpt lat="43.85771" lon="6.71599">
        <ele>920.4</ele>
        <time>2021-09-18T14:06:05Z</time>
      </trkpt>
      <trkpt lat="43.85775" lon="6.7161">
        <ele>920.2</ele>
        <time>2021-09-18T14:06:07Z</time>
      </trkpt>
      <trkpt lat="43.85777" lon="6.71615">
        <ele>920.1</ele>
        <time>2021-09-18T14:06:08Z</time>
      </trkpt>
      <trkpt lat="43.85778" lon="6.7162">
        <ele>920.1</ele>
        <time>2021-09-18T14:06:09Z</time>
      </trkpt>
      <trkpt lat="43.8578" lon="6.71627">
        <ele>920</ele>
        <time>2021-09-18T14:06:10Z</time>
      </trkpt>
      <trkpt lat="43.85782" lon="6.71636">
        <ele>919.9</ele>
        <time>2021-09-18T14:06:12Z</time>
      </trkpt>
      <trkpt lat="43.85785" lon="6.71643">
        <ele>919.9</ele>
        <time>2021-09-18T14:06:13Z</time>
      </trkpt>
      <trkpt lat="43.85787" lon="6.71649">
        <ele>919.9</ele>
        <time>2021-09-18T14:06:15Z</time>
      </trkpt>
      <trkpt lat="43.8579" lon="6.71658">
        <ele>919.9</ele>
        <time>2021-09-18T14:06:17Z</time>
      </trkpt>
      <trkpt lat="43.85793" lon="6.71668">
        <ele>920.1</ele>
        <time>2021-09-18T14:06:19Z</time>
      </trkpt>
      <trkpt lat="43.85795" lon="6.71676">
        <ele>920.2</ele>
        <time>2021-09-18T14:06:20Z</time>
      </trkpt>
      <trkpt lat="43.85796" lon="6.71681">
        <ele>920.3</ele>
        <time>2021-09-18T14:06:21Z</time>
      </trkpt>
      <trkpt lat="43.85798" lon="6.71686">
        <ele>920.4</ele>
        <time>2021-09-18T14:06:22Z</time>
      </trkpt>
      <trkpt lat="43.85799" lon="6.71695">
        <ele>920.5</ele>
        <time>2021-09-18T14:06:23Z</time>
      </trkpt>
      <trkpt lat="43.85801" lon="6.717">
        <ele>920.5</ele>
        <time>2021-09-18T14:06:25Z</time>
      </trkpt>
      <trkpt lat="43.85801" lon="6.71705">
        <ele>920.6</ele>
        <time>2021-09-18T14:06:26Z</time>
      </trkpt>
      <trkpt lat="43.85801" lon="6.7171">
        <ele>920.7</ele>
        <time>2021-09-18T14:06:28Z</time>
      </trkpt>
      <trkpt lat="43.858" lon="6.7171">
        <ele>920.7</ele>
        <time>2021-09-18T14:06:29Z</time>
      </trkpt>
      <trkpt lat="43.85799" lon="6.7171">
        <ele>920.7</ele>
        <time>2021-09-18T14:06:31Z</time>
      </trkpt>
      <trkpt lat="43.85798" lon="6.7171">
        <ele>920.8</ele>
        <time>2021-09-18T14:06:32Z</time>
      </trkpt>
      <trkpt lat="43.85797" lon="6.71711">
        <ele>920.8</ele>
        <time>2021-09-18T14:06:33Z</time>
      </trkpt>
      <trkpt lat="43.85796" lon="6.71711">
        <ele>920.8</ele>
        <time>2021-09-18T14:06:34Z</time>
      </trkpt>
      <trkpt lat="43.85795" lon="6.71712">
        <ele>920.8</ele>
        <time>2021-09-18T14:06:36Z</time>
      </trkpt>
      <trkpt lat="43.85794" lon="6.71713">
        <ele>920.9</ele>
        <time>2021-09-18T14:06:37Z</time>
      </trkpt>
      <trkpt lat="43.85793" lon="6.71715">
        <ele>920.9</ele>
        <time>2021-09-18T14:06:38Z</time>
      </trkpt>
      <trkpt lat="43.85772" lon="6.71731">
        <ele>920.9</ele>
        <time>2021-09-18T14:07:02Z</time>
      </trkpt>
      <trkpt lat="43.85769" lon="6.71735">
        <ele>920.8</ele>
        <time>2021-09-18T14:07:03Z</time>
      </trkpt>
      <trkpt lat="43.85767" lon="6.71739">
        <ele>920.8</ele>
        <time>2021-09-18T14:07:04Z</time>
      </trkpt>
      <trkpt lat="43.85761" lon="6.71746">
        <ele>920.7</ele>
        <time>2021-09-18T14:07:06Z</time>
      </trkpt>
      <trkpt lat="43.85759" lon="6.7175">
        <ele>920.7</ele>
        <time>2021-09-18T14:07:07Z</time>
      </trkpt>
      <trkpt lat="43.85758" lon="6.71754">
        <ele>920.7</ele>
        <time>2021-09-18T14:07:08Z</time>
      </trkpt>
      <trkpt lat="43.85757" lon="6.71758">
        <ele>920.6</ele>
        <time>2021-09-18T14:07:09Z</time>
      </trkpt>
      <trkpt lat="43.85757" lon="6.71762">
        <ele>920.6</ele>
        <time>2021-09-18T14:07:10Z</time>
      </trkpt>
      <trkpt lat="43.85757" lon="6.71765">
        <ele>920.6</ele>
        <time>2021-09-18T14:07:11Z</time>
      </trkpt>
      <trkpt lat="43.85756" lon="6.71768">
        <ele>920.6</ele>
        <time>2021-09-18T14:07:13Z</time>
      </trkpt>
      <trkpt lat="43.85757" lon="6.71772">
        <ele>920.6</ele>
        <time>2021-09-18T14:07:14Z</time>
      </trkpt>
      <trkpt lat="43.85758" lon="6.71773">
        <ele>920.6</ele>
        <time>2021-09-18T14:07:15Z</time>
      </trkpt>
      <trkpt lat="43.85759" lon="6.71774">
        <ele>920.6</ele>
        <time>2021-09-18T14:07:17Z</time>
      </trkpt>
      <trkpt lat="43.85759" lon="6.71776">
        <ele>920.6</ele>
        <time>2021-09-18T14:07:18Z</time>
      </trkpt>
      <trkpt lat="43.8576" lon="6.71781">
        <ele>920.6</ele>
        <time>2021-09-18T14:07:20Z</time>
      </trkpt>
      <trkpt lat="43.8576" lon="6.71783">
        <ele>920.6</ele>
        <time>2021-09-18T14:07:21Z</time>
      </trkpt>
      <trkpt lat="43.8576" lon="6.71784">
        <ele>920.5</ele>
        <time>2021-09-18T14:07:22Z</time>
      </trkpt>
      <trkpt lat="43.85759" lon="6.71785">
        <ele>920.5</ele>
        <time>2021-09-18T14:07:24Z</time>
      </trkpt>
      <trkpt lat="43.85759" lon="6.71786">
        <ele>920.5</ele>
        <time>2021-09-18T14:07:25Z</time>
      </trkpt>
      <trkpt lat="43.85759" lon="6.71786">
        <ele>920.5</ele>
        <time>2021-09-18T14:07:26Z</time>
      </trkpt>
      <trkpt lat="43.85759" lon="6.71787">
        <ele>920.5</ele>
        <time>2021-09-18T14:07:27Z</time>
      </trkpt>
      <trkpt lat="43.85759" lon="6.71787">
        <ele>920.5</ele>
        <time>2021-09-18T14:07:29Z</time>
      </trkpt>
      <trkpt lat="43.85758" lon="6.71787">
        <ele>920.5</ele>
        <time>2021-09-18T14:07:30Z</time>
      </trkpt>
      <trkpt lat="43.85758" lon="6.71788">
        <ele>920.5</ele>
        <time>2021-09-18T14:07:32Z</time>
      </trkpt>
      <trkpt lat="43.85753" lon="6.71828">
        <ele>918.4</ele>
        <time>2021-09-18T14:07:49Z</time>
      </trkpt>
      <trkpt lat="43.85757" lon="6.7183">
        <ele>918.1</ele>
        <time>2021-09-18T14:07:51Z</time>
      </trkpt>
      <trkpt lat="43.85759" lon="6.71831">
        <ele>917.9</ele>
        <time>2021-09-18T14:07:52Z</time>
      </trkpt>
      <trkpt lat="43.85763" lon="6.71832">
        <ele>917.7</ele>
        <time>2021-09-18T14:07:53Z</time>
      </trkpt>
      <trkpt lat="43.85765" lon="6.71834">
        <ele>917.6</ele>
        <time>2021-09-18T14:07:54Z</time>
      </trkpt>
      <trkpt lat="43.8577" lon="6.71836">
        <ele>917.3</ele>
        <time>2021-09-18T14:07:56Z</time>
      </trkpt>
      <trkpt lat="43.85772" lon="6.71836">
        <ele>917.1</ele>
        <time>2021-09-18T14:07:57Z</time>
      </trkpt>
      <trkpt lat="43.85779" lon="6.71836">
        <ele>916.6</ele>
        <time>2021-09-18T14:07:59Z</time>
      </trkpt>
      <trkpt lat="43.85782" lon="6.71837">
        <ele>916.4</ele>
        <time>2021-09-18T14:08:00Z</time>
      </trkpt>
      <trkpt lat="43.85783" lon="6.71837">
        <ele>916.2</ele>
        <time>2021-09-18T14:08:01Z</time>
      </trkpt>
      <trkpt lat="43.85783" lon="6.71836">
        <ele>916.2</ele>
        <time>2021-09-18T14:08:02Z</time>
      </trkpt>
      <trkpt lat="43.85781" lon="6.71835">
        <ele>916.1</ele>
        <time>2021-09-18T14:08:04Z</time>
      </trkpt>
      <trkpt lat="43.85779" lon="6.71835">
        <ele>916.1</ele>
        <time>2021-09-18T14:08:05Z</time>
      </trkpt>
      <trkpt lat="43.85779" lon="6.71834">
        <ele>916.1</ele>
        <time>2021-09-18T14:08:07Z</time>
      </trkpt>
      <trkpt lat="43.8578" lon="6.71834">
        <ele>916.1</ele>
        <time>2021-09-18T14:08:08Z</time>
      </trkpt>
      <trkpt lat="43.8578" lon="6.71834">
        <ele>916</ele>
        <time>2021-09-18T14:08:10Z</time>
      </trkpt>
      <trkpt lat="43.85781" lon="6.71835">
        <ele>916</ele>
        <time>2021-09-18T14:08:11Z</time>
      </trkpt>
      <trkpt lat="43.85787" lon="6.71853">
        <ele>915.4</ele>
        <time>2021-09-18T14:08:38Z</time>
      </trkpt>
      <trkpt lat="43.85783" lon="6.71864">
        <ele>915</ele>
        <time>2021-09-18T14:08:40Z</time>
      </trkpt>
      <trkpt lat="43.85778" lon="6.71877">
        <ele>914.6</ele>
        <time>2021-09-18T14:08:41Z</time>
      </trkpt>
      <trkpt lat="43.85774" lon="6.71884">
        <ele>914.4</ele>
        <time>2021-09-18T14:08:42Z</time>
      </trkpt>
      <trkpt lat="43.85765" lon="6.71898">
        <ele>914.3</ele>
        <time>2021-09-18T14:08:44Z</time>
      </trkpt>
      <trkpt lat="43.85756" lon="6.71909">
        <ele>914.3</ele>
        <time>2021-09-18T14:08:46Z</time>
      </trkpt>
      <trkpt lat="43.85747" lon="6.71917">
        <ele>914.3</ele>
        <time>2021-09-18T14:08:48Z</time>
      </trkpt>
      <trkpt lat="43.85737" lon="6.71923">
        <ele>914.2</ele>
        <time>2021-09-18T14:08:50Z</time>
      </trkpt>
      <trkpt lat="43.85733" lon="6.71927">
        <ele>914.1</ele>
        <time>2021-09-18T14:08:51Z</time>
      </trkpt>
      <trkpt lat="43.85729" lon="6.71935">
        <ele>914.1</ele>
        <time>2021-09-18T14:08:53Z</time>
      </trkpt>
      <trkpt lat="43.85728" lon="6.7194">
        <ele>914.1</ele>
        <time>2021-09-18T14:08:54Z</time>
      </trkpt>
      <trkpt lat="43.85725" lon="6.71948">
        <ele>914.1</ele>
        <time>2021-09-18T14:08:55Z</time>
      </trkpt>
      <trkpt lat="43.85724" lon="6.71956">
        <ele>914</ele>
        <time>2021-09-18T14:08:57Z</time>
      </trkpt>
      <trkpt lat="43.85723" lon="6.71962">
        <ele>914</ele>
        <time>2021-09-18T14:08:58Z</time>
      </trkpt>
      <trkpt lat="43.85723" lon="6.7197">
        <ele>914</ele>
        <time>2021-09-18T14:09:00Z</time>
      </trkpt>
      <trkpt lat="43.85723" lon="6.71974">
        <ele>914</ele>
        <time>2021-09-18T14:09:01Z</time>
      </trkpt>
      <trkpt lat="43.85724" lon="6.71981">
        <ele>914</ele>
        <time>2021-09-18T14:09:03Z</time>
      </trkpt>
      <trkpt lat="43.85727" lon="6.71986">
        <ele>914</ele>
        <time>2021-09-18T14:09:04Z</time>
      </trkpt>
      <trkpt lat="43.85727" lon="6.7199">
        <ele>914</ele>
        <time>2021-09-18T14:09:05Z</time>
      </trkpt>
      <trkpt lat="43.85727" lon="6.71994">
        <ele>914</ele>
        <time>2021-09-18T14:09:06Z</time>
      </trkpt>
      <trkpt lat="43.85728" lon="6.71999">
        <ele>914</ele>
        <time>2021-09-18T14:09:07Z</time>
      </trkpt>
      <trkpt lat="43.85729" lon="6.72004">
        <ele>914</ele>
        <time>2021-09-18T14:09:09Z</time>
      </trkpt>
      <trkpt lat="43.85731" lon="6.72009">
        <ele>914</ele>
        <time>2021-09-18T14:09:11Z</time>
      </trkpt>
      <trkpt lat="43.85732" lon="6.72013">
        <ele>914</ele>
        <time>2021-09-18T14:09:12Z</time>
      </trkpt>
      <trkpt lat="43.85731" lon="6.72019">
        <ele>914</ele>
        <time>2021-09-18T14:09:14Z</time>
      </trkpt>
      <trkpt lat="43.85731" lon="6.72021">
        <ele>914</ele>
        <time>2021-09-18T14:09:15Z</time>
      </trkpt>
      <trkpt lat="43.8573" lon="6.72024">
        <ele>914</ele>
        <time>2021-09-18T14:09:16Z</time>
      </trkpt>
      <trkpt lat="43.85729" lon="6.72028">
        <ele>914</ele>
        <time>2021-09-18T14:09:18Z</time>
      </trkpt>
      <trkpt lat="43.85729" lon="6.72043">
        <ele>914.1</ele>
        <time>2021-09-18T14:09:23Z</time>
      </trkpt>
      <trkpt lat="43.85729" lon="6.72046">
        <ele>914.1</ele>
        <time>2021-09-18T14:09:24Z</time>
      </trkpt>
      <trkpt lat="43.85729" lon="6.72051">
        <ele>914.1</ele>
        <time>2021-09-18T14:09:26Z</time>
      </trkpt>
      <trkpt lat="43.85729" lon="6.72053">
        <ele>914.1</ele>
        <time>2021-09-18T14:09:27Z</time>
      </trkpt>
      <trkpt lat="43.85728" lon="6.72053">
        <ele>914.1</ele>
        <time>2021-09-18T14:09:28Z</time>
      </trkpt>
      <trkpt lat="43.85728" lon="6.72053">
        <ele>914.1</ele>
        <time>2021-09-18T14:09:29Z</time>
      </trkpt>
      <trkpt lat="43.85728" lon="6.72053">
        <ele>914.1</ele>
        <time>2021-09-18T14:09:31Z</time>
      </trkpt>
      <trkpt lat="43.8573" lon="6.72052">
        <ele>914.1</ele>
        <time>2021-09-18T14:09:32Z</time>
      </trkpt>
      <trkpt lat="43.8573" lon="6.72051">
        <ele>914.1</ele>
        <time>2021-09-18T14:09:33Z</time>
      </trkpt>
      <trkpt lat="43.85731" lon="6.7205">
        <ele>914.1</ele>
        <time>2021-09-18T14:09:35Z</time>
      </trkpt>
      <trkpt lat="43.85731" lon="6.72038">
        <ele>914.2</ele>
        <time>2021-09-18T14:09:39Z</time>
      </trkpt>
      <trkpt lat="43.8573" lon="6.72034">
        <ele>914.2</ele>
        <time>2021-09-18T14:09:40Z</time>
      </trkpt>
      <trkpt lat="43.8573" lon="6.72024">
        <ele>914.3</ele>
        <time>2021-09-18T14:09:42Z</time>
      </trkpt>
      <trkpt lat="43.85729" lon="6.72017">
        <ele>914.3</ele>
        <time>2021-09-18T14:09:43Z</time>
      </trkpt>
      <trkpt lat="43.85728" lon="6.72013">
        <ele>914.4</ele>
        <time>2021-09-18T14:09:44Z</time>
      </trkpt>
      <trkpt lat="43.85725" lon="6.72009">
        <ele>914.4</ele>
        <time>2021-09-18T14:09:45Z</time>
      </trkpt>
      <trkpt lat="43.85722" lon="6.72004">
        <ele>914.4</ele>
        <time>2021-09-18T14:09:47Z</time>
      </trkpt>
      <trkpt lat="43.85718" lon="6.71999">
        <ele>914.5</ele>
        <time>2021-09-18T14:09:49Z</time>
      </trkpt>
      <trkpt lat="43.85717" lon="6.71994">
        <ele>914.5</ele>
        <time>2021-09-18T14:09:50Z</time>
      </trkpt>
      <trkpt lat="43.85717" lon="6.71989">
        <ele>914.6</ele>
        <time>2021-09-18T14:09:51Z</time>
      </trkpt>
      <trkpt lat="43.85718" lon="6.71984">
        <ele>914.6</ele>
        <time>2021-09-18T14:09:53Z</time>
      </trkpt>
      <trkpt lat="43.85718" lon="6.71982">
        <ele>914.6</ele>
        <time>2021-09-18T14:09:54Z</time>
      </trkpt>
      <trkpt lat="43.85719" lon="6.7198">
        <ele>914.7</ele>
        <time>2021-09-18T14:09:55Z</time>
      </trkpt>
      <trkpt lat="43.85718" lon="6.71977">
        <ele>914.7</ele>
        <time>2021-09-18T14:09:56Z</time>
      </trkpt>
      <trkpt lat="43.85716" lon="6.71975">
        <ele>914.7</ele>
        <time>2021-09-18T14:09:58Z</time>
      </trkpt>
      <trkpt lat="43.85713" lon="6.71976">
        <ele>914.8</ele>
        <time>2021-09-18T14:09:59Z</time>
      </trkpt>
      <trkpt lat="43.85711" lon="6.71983">
        <ele>914.8</ele>
        <time>2021-09-18T14:10:01Z</time>
      </trkpt>
      <trkpt lat="43.8571" lon="6.71985">
        <ele>914.9</ele>
        <time>2021-09-18T14:10:02Z</time>
      </trkpt>
      <trkpt lat="43.8571" lon="6.71988">
        <ele>914.9</ele>
        <time>2021-09-18T14:10:03Z</time>
      </trkpt>
      <trkpt lat="43.85708" lon="6.71995">
        <ele>915</ele>
        <time>2021-09-18T14:10:05Z</time>
      </trkpt>
      <trkpt lat="43.8571" lon="6.72">
        <ele>915</ele>
        <time>2021-09-18T14:10:06Z</time>
      </trkpt>
      <trkpt lat="43.8571" lon="6.72003">
        <ele>915.1</ele>
        <time>2021-09-18T14:10:07Z</time>
      </trkpt>
      <trkpt lat="43.85711" lon="6.72008">
        <ele>915.1</ele>
        <time>2021-09-18T14:10:09Z</time>
      </trkpt>
      <trkpt lat="43.85712" lon="6.72011">
        <ele>915.2</ele>
        <time>2021-09-18T14:10:10Z</time>
      </trkpt>
      <trkpt lat="43.85714" lon="6.72017">
        <ele>915.2</ele>
        <time>2021-09-18T14:10:12Z</time>
      </trkpt>
      <trkpt lat="43.85714" lon="6.72021">
        <ele>915.3</ele>
        <time>2021-09-18T14:10:13Z</time>
      </trkpt>
      <trkpt lat="43.85716" lon="6.72028">
        <ele>915.4</ele>
        <time>2021-09-18T14:10:15Z</time>
      </trkpt>
      <trkpt lat="43.85716" lon="6.72031">
        <ele>915.4</ele>
        <time>2021-09-18T14:10:16Z</time>
      </trkpt>
      <trkpt lat="43.85716" lon="6.72033">
        <ele>915.4</ele>
        <time>2021-09-18T14:10:17Z</time>
      </trkpt>
      <trkpt lat="43.85716" lon="6.72037">
        <ele>915.5</ele>
        <time>2021-09-18T14:10:18Z</time>
      </trkpt>
      <trkpt lat="43.85715" lon="6.72041">
        <ele>915.6</ele>
        <time>2021-09-18T14:10:20Z</time>
      </trkpt>
      <trkpt lat="43.85715" lon="6.72045">
        <ele>915.6</ele>
        <time>2021-09-18T14:10:21Z</time>
      </trkpt>
      <trkpt lat="43.85715" lon="6.72049">
        <ele>915.7</ele>
        <time>2021-09-18T14:10:23Z</time>
      </trkpt>
      <trkpt lat="43.85716" lon="6.72052">
        <ele>915.7</ele>
        <time>2021-09-18T14:10:24Z</time>
      </trkpt>
      <trkpt lat="43.85716" lon="6.72056">
        <ele>915.8</ele>
        <time>2021-09-18T14:10:26Z</time>
      </trkpt>
      <trkpt lat="43.85715" lon="6.72061">
        <ele>915.9</ele>
        <time>2021-09-18T14:10:28Z</time>
      </trkpt>
      <trkpt lat="43.85714" lon="6.72062">
        <ele>915.9</ele>
        <time>2021-09-18T14:10:29Z</time>
      </trkpt>
      <trkpt lat="43.85714" lon="6.72066">
        <ele>916</ele>
        <time>2021-09-18T14:10:30Z</time>
      </trkpt>
      <trkpt lat="43.85714" lon="6.72067">
        <ele>916</ele>
        <time>2021-09-18T14:10:31Z</time>
      </trkpt>
      <trkpt lat="43.85716" lon="6.72069">
        <ele>916.1</ele>
        <time>2021-09-18T14:10:33Z</time>
      </trkpt>
      <trkpt lat="43.85717" lon="6.72071">
        <ele>916.1</ele>
        <time>2021-09-18T14:10:35Z</time>
      </trkpt>
      <trkpt lat="43.85717" lon="6.72073">
        <ele>916.1</ele>
        <time>2021-09-18T14:10:36Z</time>
      </trkpt>
      <trkpt lat="43.85718" lon="6.72074">
        <ele>916.1</ele>
        <time>2021-09-18T14:10:37Z</time>
      </trkpt>
      <trkpt lat="43.85717" lon="6.7208">
        <ele>916.3</ele>
        <time>2021-09-18T14:10:39Z</time>
      </trkpt>
      <trkpt lat="43.85717" lon="6.72085">
        <ele>916.1</ele>
        <time>2021-09-18T14:10:40Z</time>
      </trkpt>
      <trkpt lat="43.85716" lon="6.7209">
        <ele>915.8</ele>
        <time>2021-09-18T14:10:41Z</time>
      </trkpt>
      <trkpt lat="43.85717" lon="6.72096">
        <ele>915.4</ele>
        <time>2021-09-18T14:10:42Z</time>
      </trkpt>
      <trkpt lat="43.85718" lon="6.72104">
        <ele>915</ele>
        <time>2021-09-18T14:10:43Z</time>
      </trkpt>
      <trkpt lat="43.85718" lon="6.72109">
        <ele>914.7</ele>
        <time>2021-09-18T14:10:45Z</time>
      </trkpt>
      <trkpt lat="43.85718" lon="6.72115">
        <ele>914.4</ele>
        <time>2021-09-18T14:10:47Z</time>
      </trkpt>
      <trkpt lat="43.85718" lon="6.72118">
        <ele>914.2</ele>
        <time>2021-09-18T14:10:48Z</time>
      </trkpt>
      <trkpt lat="43.85719" lon="6.72121">
        <ele>914.1</ele>
        <time>2021-09-18T14:10:50Z</time>
      </trkpt>
      <trkpt lat="43.85721" lon="6.72123">
        <ele>913.9</ele>
        <time>2021-09-18T14:10:51Z</time>
      </trkpt>
      <trkpt lat="43.85721" lon="6.72124">
        <ele>913.8</ele>
        <time>2021-09-18T14:10:52Z</time>
      </trkpt>
      <trkpt lat="43.85721" lon="6.72125">
        <ele>913.8</ele>
        <time>2021-09-18T14:10:53Z</time>
      </trkpt>
      <trkpt lat="43.85721" lon="6.72128">
        <ele>913.6</ele>
        <time>2021-09-18T14:10:54Z</time>
      </trkpt>
      <trkpt lat="43.85722" lon="6.72131">
        <ele>913.4</ele>
        <time>2021-09-18T14:10:56Z</time>
      </trkpt>
      <trkpt lat="43.85722" lon="6.72135">
        <ele>913.2</ele>
        <time>2021-09-18T14:10:58Z</time>
      </trkpt>
      <trkpt lat="43.85722" lon="6.72136">
        <ele>913.1</ele>
        <time>2021-09-18T14:10:59Z</time>
      </trkpt>
      <trkpt lat="43.85721" lon="6.72137">
        <ele>913.1</ele>
        <time>2021-09-18T14:11:00Z</time>
      </trkpt>
      <trkpt lat="43.8572" lon="6.72139">
        <ele>913</ele>
        <time>2021-09-18T14:11:02Z</time>
      </trkpt>
      <trkpt lat="43.8572" lon="6.7214">
        <ele>912.9</ele>
        <time>2021-09-18T14:11:03Z</time>
      </trkpt>
      <trkpt lat="43.85718" lon="6.72143">
        <ele>912.7</ele>
        <time>2021-09-18T14:11:04Z</time>
      </trkpt>
      <trkpt lat="43.85711" lon="6.7215">
        <ele>915.1</ele>
        <time>2021-09-18T14:11:07Z</time>
      </trkpt>
      <trkpt lat="43.85709" lon="6.72152">
        <ele>915.1</ele>
        <time>2021-09-18T14:11:08Z</time>
      </trkpt>
      <trkpt lat="43.85707" lon="6.72158">
        <ele>915.9</ele>
        <time>2021-09-18T14:11:10Z</time>
      </trkpt>
      <trkpt lat="43.85704" lon="6.72162">
        <ele>916.9</ele>
        <time>2021-09-18T14:11:12Z</time>
      </trkpt>
      <trkpt lat="43.85701" lon="6.72166">
        <ele>918</ele>
        <time>2021-09-18T14:11:14Z</time>
      </trkpt>
      <trkpt lat="43.85698" lon="6.72172">
        <ele>919.2</ele>
        <time>2021-09-18T14:11:16Z</time>
      </trkpt>
      <trkpt lat="43.85695" lon="6.72176">
        <ele>920.6</ele>
        <time>2021-09-18T14:11:17Z</time>
      </trkpt>
      <trkpt lat="43.85694" lon="6.72178">
        <ele>920.6</ele>
        <time>2021-09-18T14:11:18Z</time>
      </trkpt>
      <trkpt lat="43.85691" lon="6.72181">
        <ele>922</ele>
        <time>2021-09-18T14:11:19Z</time>
      </trkpt>
      <trkpt lat="43.8569" lon="6.72184">
        <ele>923.3</ele>
        <time>2021-09-18T14:11:20Z</time>
      </trkpt>
      <trkpt lat="43.85689" lon="6.72189">
        <ele>922.9</ele>
        <time>2021-09-18T14:11:21Z</time>
      </trkpt>
      <trkpt lat="43.85688" lon="6.72198">
        <ele>922</ele>
        <time>2021-09-18T14:11:23Z</time>
      </trkpt>
      <trkpt lat="43.85688" lon="6.72203">
        <ele>921.7</ele>
        <time>2021-09-18T14:11:24Z</time>
      </trkpt>
      <trkpt lat="43.85687" lon="6.72208">
        <ele>922.9</ele>
        <time>2021-09-18T14:11:25Z</time>
      </trkpt>
      <trkpt lat="43.85687" lon="6.7221">
        <ele>922.6</ele>
        <time>2021-09-18T14:11:26Z</time>
      </trkpt>
      <trkpt lat="43.85687" lon="6.72209">
        <ele>922.5</ele>
        <time>2021-09-18T14:11:28Z</time>
      </trkpt>
      <trkpt lat="43.85687" lon="6.72207">
        <ele>922.9</ele>
        <time>2021-09-18T14:11:30Z</time>
      </trkpt>
      <trkpt lat="43.85687" lon="6.72204">
        <ele>921.6</ele>
        <time>2021-09-18T14:11:31Z</time>
      </trkpt>
      <trkpt lat="43.85688" lon="6.72201">
        <ele>921.6</ele>
        <time>2021-09-18T14:11:32Z</time>
      </trkpt>
      <trkpt lat="43.8569" lon="6.72196">
        <ele>922.3</ele>
        <time>2021-09-18T14:11:34Z</time>
      </trkpt>
      <trkpt lat="43.85691" lon="6.72193">
        <ele>920.6</ele>
        <time>2021-09-18T14:11:35Z</time>
      </trkpt>
      <trkpt lat="43.85692" lon="6.72189">
        <ele>921</ele>
        <time>2021-09-18T14:11:37Z</time>
      </trkpt>
      <trkpt lat="43.85693" lon="6.72187">
        <ele>920.9</ele>
        <time>2021-09-18T14:11:38Z</time>
      </trkpt>
      <trkpt lat="43.85693" lon="6.72186">
        <ele>921.3</ele>
        <time>2021-09-18T14:11:39Z</time>
      </trkpt>
      <trkpt lat="43.85693" lon="6.72183">
        <ele>921.3</ele>
        <time>2021-09-18T14:11:41Z</time>
      </trkpt>
      <trkpt lat="43.85694" lon="6.72182">
        <ele>919.9</ele>
        <time>2021-09-18T14:11:42Z</time>
      </trkpt>
      <trkpt lat="43.85694" lon="6.7218">
        <ele>919.9</ele>
        <time>2021-09-18T14:11:43Z</time>
      </trkpt>
      <trkpt lat="43.85693" lon="6.72176">
        <ele>922.1</ele>
        <time>2021-09-18T14:11:44Z</time>
      </trkpt>
      <trkpt lat="43.85693" lon="6.72175">
        <ele>922.1</ele>
        <time>2021-09-18T14:11:45Z</time>
      </trkpt>
      <trkpt lat="43.8569" lon="6.72169">
        <ele>924.6</ele>
        <time>2021-09-18T14:11:47Z</time>
      </trkpt>
      <trkpt lat="43.8569" lon="6.72167">
        <ele>924.6</ele>
        <time>2021-09-18T14:11:48Z</time>
      </trkpt>
      <trkpt lat="43.85688" lon="6.72166">
        <ele>925</ele>
        <time>2021-09-18T14:11:49Z</time>
      </trkpt>
      <trkpt lat="43.85688" lon="6.72164">
        <ele>925</ele>
        <time>2021-09-18T14:11:51Z</time>
      </trkpt>
      <trkpt lat="43.85689" lon="6.72163">
        <ele>924.9</ele>
        <time>2021-09-18T14:11:52Z</time>
      </trkpt>
      <trkpt lat="43.85691" lon="6.72161">
        <ele>923.5</ele>
        <time>2021-09-18T14:11:54Z</time>
      </trkpt>
      <trkpt lat="43.85694" lon="6.72158">
        <ele>921.7</ele>
        <time>2021-09-18T14:11:56Z</time>
      </trkpt>
      <trkpt lat="43.85697" lon="6.72155">
        <ele>920.2</ele>
        <time>2021-09-18T14:11:57Z</time>
      </trkpt>
      <trkpt lat="43.857" lon="6.72153">
        <ele>918.9</ele>
        <time>2021-09-18T14:11:58Z</time>
      </trkpt>
      <trkpt lat="43.85703" lon="6.72149">
        <ele>917.7</ele>
        <time>2021-09-18T14:11:59Z</time>
      </trkpt>
      <trkpt lat="43.85707" lon="6.72144">
        <ele>916.5</ele>
        <time>2021-09-18T14:12:01Z</time>
      </trkpt>
      <trkpt lat="43.85708" lon="6.72142">
        <ele>916.4</ele>
        <time>2021-09-18T14:12:02Z</time>
      </trkpt>
      <trkpt lat="43.85708" lon="6.7214">
        <ele>916.6</ele>
        <time>2021-09-18T14:12:03Z</time>
      </trkpt>
      <trkpt lat="43.85708" lon="6.72137">
        <ele>916.6</ele>
        <time>2021-09-18T14:12:04Z</time>
      </trkpt>
      <trkpt lat="43.85709" lon="6.72133">
        <ele>916.8</ele>
        <time>2021-09-18T14:12:06Z</time>
      </trkpt>
      <trkpt lat="43.85709" lon="6.72131">
        <ele>915.5</ele>
        <time>2021-09-18T14:12:07Z</time>
      </trkpt>
      <trkpt lat="43.8571" lon="6.72125">
        <ele>915.6</ele>
        <time>2021-09-18T14:12:08Z</time>
      </trkpt>
      <trkpt lat="43.85711" lon="6.72123">
        <ele>915.7</ele>
        <time>2021-09-18T14:12:09Z</time>
      </trkpt>
      <trkpt lat="43.8571" lon="6.72117">
        <ele>915.8</ele>
        <time>2021-09-18T14:12:10Z</time>
      </trkpt>
      <trkpt lat="43.85708" lon="6.72112">
        <ele>917.3</ele>
        <time>2021-09-18T14:12:11Z</time>
      </trkpt>
      <trkpt lat="43.85705" lon="6.72107">
        <ele>918.9</ele>
        <time>2021-09-18T14:12:13Z</time>
      </trkpt>
      <trkpt lat="43.85703" lon="6.72103">
        <ele>920.7</ele>
        <time>2021-09-18T14:12:14Z</time>
      </trkpt>
      <trkpt lat="43.85702" lon="6.72103">
        <ele>920.7</ele>
        <time>2021-09-18T14:12:15Z</time>
      </trkpt>
      <trkpt lat="43.85695" lon="6.721">
        <ele>924.6</ele>
        <time>2021-09-18T14:12:16Z</time>
      </trkpt>
      <trkpt lat="43.85692" lon="6.72099">
        <ele>926.6</ele>
        <time>2021-09-18T14:12:17Z</time>
      </trkpt>
      <trkpt lat="43.85692" lon="6.72098">
        <ele>926.6</ele>
        <time>2021-09-18T14:12:18Z</time>
      </trkpt>
      <trkpt lat="43.85692" lon="6.72097">
        <ele>926.7</ele>
        <time>2021-09-18T14:12:20Z</time>
      </trkpt>
      <trkpt lat="43.85692" lon="6.72096">
        <ele>926.7</ele>
        <time>2021-09-18T14:12:21Z</time>
      </trkpt>
      <trkpt lat="43.85693" lon="6.72095">
        <ele>926.7</ele>
        <time>2021-09-18T14:12:22Z</time>
      </trkpt>
      <trkpt lat="43.85693" lon="6.72094">
        <ele>926.7</ele>
        <time>2021-09-18T14:12:23Z</time>
      </trkpt>
      <trkpt lat="43.85693" lon="6.72093">
        <ele>926.7</ele>
        <time>2021-09-18T14:12:24Z</time>
      </trkpt>
      <trkpt lat="43.85694" lon="6.72091">
        <ele>924.7</ele>
        <time>2021-09-18T14:12:25Z</time>
      </trkpt>
      <trkpt lat="43.85694" lon="6.72087">
        <ele>924.7</ele>
        <time>2021-09-18T14:12:27Z</time>
      </trkpt>
      <trkpt lat="43.85694" lon="6.72087">
        <ele>924.7</ele>
        <time>2021-09-18T14:12:27Z</time>
      </trkpt>
      <trkpt lat="43.85693" lon="6.7208">
        <ele>926.8</ele>
        <time>2021-09-18T14:12:29Z</time>
      </trkpt>
      <trkpt lat="43.85692" lon="6.72074">
        <ele>926.8</ele>
        <time>2021-09-18T14:12:31Z</time>
      </trkpt>
      <trkpt lat="43.85693" lon="6.72066">
        <ele>926.8</ele>
        <time>2021-09-18T14:12:32Z</time>
      </trkpt>
      <trkpt lat="43.85693" lon="6.72062">
        <ele>926.8</ele>
        <time>2021-09-18T14:12:33Z</time>
      </trkpt>
      <trkpt lat="43.85694" lon="6.72057">
        <ele>924.8</ele>
        <time>2021-09-18T14:12:35Z</time>
      </trkpt>
      <trkpt lat="43.85694" lon="6.72051">
        <ele>924.7</ele>
        <time>2021-09-18T14:12:37Z</time>
      </trkpt>
      <trkpt lat="43.85693" lon="6.72049">
        <ele>926.6</ele>
        <time>2021-09-18T14:12:38Z</time>
      </trkpt>
      <trkpt lat="43.85693" lon="6.72048">
        <ele>926.6</ele>
        <time>2021-09-18T14:12:39Z</time>
      </trkpt>
      <trkpt lat="43.85691" lon="6.72046">
        <ele>926.6</ele>
        <time>2021-09-18T14:12:41Z</time>
      </trkpt>
      <trkpt lat="43.85691" lon="6.72045">
        <ele>926.6</ele>
        <time>2021-09-18T14:12:43Z</time>
      </trkpt>
      <trkpt lat="43.8569" lon="6.72044">
        <ele>928.5</ele>
        <time>2021-09-18T14:12:44Z</time>
      </trkpt>
      <trkpt lat="43.85689" lon="6.72043">
        <ele>928.5</ele>
        <time>2021-09-18T14:12:46Z</time>
      </trkpt>
      <trkpt lat="43.85688" lon="6.72043">
        <ele>928.4</ele>
        <time>2021-09-18T14:12:47Z</time>
      </trkpt>
      <trkpt lat="43.85686" lon="6.72056">
        <ele>930.4</ele>
        <time>2021-09-18T14:13:00Z</time>
      </trkpt>
      <trkpt lat="43.85686" lon="6.7206">
        <ele>930.4</ele>
        <time>2021-09-18T14:13:02Z</time>
      </trkpt>
      <trkpt lat="43.85687" lon="6.72064">
        <ele>930.4</ele>
        <time>2021-09-18T14:13:03Z</time>
      </trkpt>
      <trkpt lat="43.85687" lon="6.72066">
        <ele>930.4</ele>
        <time>2021-09-18T14:13:05Z</time>
      </trkpt>
      <trkpt lat="43.85686" lon="6.7207">
        <ele>930.4</ele>
        <time>2021-09-18T14:13:07Z</time>
      </trkpt>
      <trkpt lat="43.85684" lon="6.72074">
        <ele>932.2</ele>
        <time>2021-09-18T14:13:08Z</time>
      </trkpt>
      <trkpt lat="43.85682" lon="6.72076">
        <ele>932.2</ele>
        <time>2021-09-18T14:13:09Z</time>
      </trkpt>
      <trkpt lat="43.8568" lon="6.72079">
        <ele>934</ele>
        <time>2021-09-18T14:13:11Z</time>
      </trkpt>
      <trkpt lat="43.8568" lon="6.7208">
        <ele>934</ele>
        <time>2021-09-18T14:13:12Z</time>
      </trkpt>
      <trkpt lat="43.85679" lon="6.72084">
        <ele>933.9</ele>
        <time>2021-09-18T14:13:14Z</time>
      </trkpt>
      <trkpt lat="43.85677" lon="6.7209">
        <ele>935.7</ele>
        <time>2021-09-18T14:13:15Z</time>
      </trkpt>
      <trkpt lat="43.85676" lon="6.72094">
        <ele>935.6</ele>
        <time>2021-09-18T14:13:16Z</time>
      </trkpt>
      <trkpt lat="43.85677" lon="6.72098">
        <ele>935.5</ele>
        <time>2021-09-18T14:13:17Z</time>
      </trkpt>
      <trkpt lat="43.85677" lon="6.72103">
        <ele>935.4</ele>
        <time>2021-09-18T14:13:19Z</time>
      </trkpt>
      <trkpt lat="43.85678" lon="6.72104">
        <ele>935.4</ele>
        <time>2021-09-18T14:13:20Z</time>
      </trkpt>
      <trkpt lat="43.85678" lon="6.72112">
        <ele>935</ele>
        <time>2021-09-18T14:13:22Z</time>
      </trkpt>
      <trkpt lat="43.85677" lon="6.72114">
        <ele>935</ele>
        <time>2021-09-18T14:13:23Z</time>
      </trkpt>
      <trkpt lat="43.85676" lon="6.72119">
        <ele>934.6</ele>
        <time>2021-09-18T14:13:25Z</time>
      </trkpt>
      <trkpt lat="43.85676" lon="6.72122">
        <ele>934.6</ele>
        <time>2021-09-18T14:13:26Z</time>
      </trkpt>
      <trkpt lat="43.85676" lon="6.72129">
        <ele>934</ele>
        <time>2021-09-18T14:13:28Z</time>
      </trkpt>
      <trkpt lat="43.85676" lon="6.72135">
        <ele>933.7</ele>
        <time>2021-09-18T14:13:30Z</time>
      </trkpt>
      <trkpt lat="43.85674" lon="6.72138">
        <ele>935.4</ele>
        <time>2021-09-18T14:13:31Z</time>
      </trkpt>
      <trkpt lat="43.85668" lon="6.72143">
        <ele>939.4</ele>
        <time>2021-09-18T14:13:33Z</time>
      </trkpt>
      <trkpt lat="43.85666" lon="6.72146">
        <ele>939</ele>
        <time>2021-09-18T14:13:34Z</time>
      </trkpt>
      <trkpt lat="43.85666" lon="6.72148">
        <ele>939</ele>
        <time>2021-09-18T14:13:35Z</time>
      </trkpt>
      <trkpt lat="43.85666" lon="6.72151">
        <ele>938.5</ele>
        <time>2021-09-18T14:13:36Z</time>
      </trkpt>
      <trkpt lat="43.85666" lon="6.72154">
        <ele>938</ele>
        <time>2021-09-18T14:13:38Z</time>
      </trkpt>
      <trkpt lat="43.85664" lon="6.72159">
        <ele>939.7</ele>
        <time>2021-09-18T14:13:40Z</time>
      </trkpt>
      <trkpt lat="43.85658" lon="6.72186">
        <ele>940.3</ele>
        <time>2021-09-18T14:13:53Z</time>
      </trkpt>
      <trkpt lat="43.85656" lon="6.72192">
        <ele>940.7</ele>
        <time>2021-09-18T14:13:55Z</time>
      </trkpt>
      <trkpt lat="43.85655" lon="6.72196">
        <ele>940.1</ele>
        <time>2021-09-18T14:13:56Z</time>
      </trkpt>
      <trkpt lat="43.8565" lon="6.72204">
        <ele>941.1</ele>
        <time>2021-09-18T14:13:58Z</time>
      </trkpt>
      <trkpt lat="43.85647" lon="6.72211">
        <ele>943.4</ele>
        <time>2021-09-18T14:13:59Z</time>
      </trkpt>
      <trkpt lat="43.85645" lon="6.72217">
        <ele>942.7</ele>
        <time>2021-09-18T14:14:01Z</time>
      </trkpt>
      <trkpt lat="43.85644" lon="6.72219">
        <ele>942</ele>
        <time>2021-09-18T14:14:02Z</time>
      </trkpt>
      <trkpt lat="43.85644" lon="6.72221">
        <ele>943.8</ele>
        <time>2021-09-18T14:14:03Z</time>
      </trkpt>
      <trkpt lat="43.85643" lon="6.72224">
        <ele>943.1</ele>
        <time>2021-09-18T14:14:04Z</time>
      </trkpt>
      <trkpt lat="43.85642" lon="6.72227">
        <ele>942.4</ele>
        <time>2021-09-18T14:14:06Z</time>
      </trkpt>
      <trkpt lat="43.8564" lon="6.72229">
        <ele>944.2</ele>
        <time>2021-09-18T14:14:07Z</time>
      </trkpt>
      <trkpt lat="43.85636" lon="6.72231">
        <ele>945.4</ele>
        <time>2021-09-18T14:14:09Z</time>
      </trkpt>
      <trkpt lat="43.85633" lon="6.72232">
        <ele>947.2</ele>
        <time>2021-09-18T14:14:10Z</time>
      </trkpt>
      <trkpt lat="43.85632" lon="6.72232">
        <ele>947.2</ele>
        <time>2021-09-18T14:14:11Z</time>
      </trkpt>
      <trkpt lat="43.85631" lon="6.72231">
        <ele>948.9</ele>
        <time>2021-09-18T14:14:13Z</time>
      </trkpt>
      <trkpt lat="43.8563" lon="6.72231">
        <ele>949</ele>
        <time>2021-09-18T14:14:14Z</time>
      </trkpt>
      <trkpt lat="43.85629" lon="6.7223">
        <ele>949</ele>
        <time>2021-09-18T14:14:16Z</time>
      </trkpt>
      <trkpt lat="43.85629" lon="6.72227">
        <ele>949.1</ele>
        <time>2021-09-18T14:14:17Z</time>
      </trkpt>
      <trkpt lat="43.85629" lon="6.72225">
        <ele>949.2</ele>
        <time>2021-09-18T14:14:19Z</time>
      </trkpt>
      <trkpt lat="43.8563" lon="6.72223">
        <ele>949.3</ele>
        <time>2021-09-18T14:14:20Z</time>
      </trkpt>
      <trkpt lat="43.85631" lon="6.72221">
        <ele>949.4</ele>
        <time>2021-09-18T14:14:21Z</time>
      </trkpt>
      <trkpt lat="43.85633" lon="6.72216">
        <ele>949.6</ele>
        <time>2021-09-18T14:14:22Z</time>
      </trkpt>
      <trkpt lat="43.85634" lon="6.72214">
        <ele>949.7</ele>
        <time>2021-09-18T14:14:23Z</time>
      </trkpt>
      <trkpt lat="43.85635" lon="6.72211">
        <ele>949.8</ele>
        <time>2021-09-18T14:14:24Z</time>
      </trkpt>
      <trkpt lat="43.85637" lon="6.72207">
        <ele>950</ele>
        <time>2021-09-18T14:14:26Z</time>
      </trkpt>
      <trkpt lat="43.85639" lon="6.72201">
        <ele>950.2</ele>
        <time>2021-09-18T14:14:28Z</time>
      </trkpt>
      <trkpt lat="43.85642" lon="6.72197">
        <ele>950.4</ele>
        <time>2021-09-18T14:14:30Z</time>
      </trkpt>
      <trkpt lat="43.85644" lon="6.72193">
        <ele>950.6</ele>
        <time>2021-09-18T14:14:31Z</time>
      </trkpt>
      <trkpt lat="43.85647" lon="6.7219">
        <ele>950.8</ele>
        <time>2021-09-18T14:14:33Z</time>
      </trkpt>
      <trkpt lat="43.85647" lon="6.72189">
        <ele>950.8</ele>
        <time>2021-09-18T14:14:34Z</time>
      </trkpt>
      <trkpt lat="43.85649" lon="6.72185">
        <ele>951</ele>
        <time>2021-09-18T14:14:35Z</time>
      </trkpt>
      <trkpt lat="43.8565" lon="6.72183">
        <ele>951</ele>
        <time>2021-09-18T14:14:36Z</time>
      </trkpt>
      <trkpt lat="43.85651" lon="6.7218">
        <ele>951.2</ele>
        <time>2021-09-18T14:14:38Z</time>
      </trkpt>
      <trkpt lat="43.85651" lon="6.72175">
        <ele>951.3</ele>
        <time>2021-09-18T14:14:40Z</time>
      </trkpt>
      <trkpt lat="43.85651" lon="6.72173">
        <ele>951.4</ele>
        <time>2021-09-18T14:14:41Z</time>
      </trkpt>
      <trkpt lat="43.85651" lon="6.72167">
        <ele>951.6</ele>
        <time>2021-09-18T14:14:43Z</time>
      </trkpt>
      <trkpt lat="43.85651" lon="6.72163">
        <ele>951.8</ele>
        <time>2021-09-18T14:14:45Z</time>
      </trkpt>
      <trkpt lat="43.85651" lon="6.72161">
        <ele>951.8</ele>
        <time>2021-09-18T14:14:46Z</time>
      </trkpt>
      <trkpt lat="43.85653" lon="6.72157">
        <ele>952</ele>
        <time>2021-09-18T14:14:48Z</time>
      </trkpt>
      <trkpt lat="43.85655" lon="6.72152">
        <ele>952.2</ele>
        <time>2021-09-18T14:14:50Z</time>
      </trkpt>
      <trkpt lat="43.85655" lon="6.7215">
        <ele>952.3</ele>
        <time>2021-09-18T14:14:51Z</time>
      </trkpt>
      <trkpt lat="43.85655" lon="6.72149">
        <ele>952.3</ele>
        <time>2021-09-18T14:14:52Z</time>
      </trkpt>
      <trkpt lat="43.85658" lon="6.72145">
        <ele>952.5</ele>
        <time>2021-09-18T14:14:53Z</time>
      </trkpt>
      <trkpt lat="43.85658" lon="6.72142">
        <ele>952.6</ele>
        <time>2021-09-18T14:14:55Z</time>
      </trkpt>
      <trkpt lat="43.85658" lon="6.7214">
        <ele>952.7</ele>
        <time>2021-09-18T14:14:56Z</time>
      </trkpt>
      <trkpt lat="43.85658" lon="6.72138">
        <ele>952.7</ele>
        <time>2021-09-18T14:14:57Z</time>
      </trkpt>
      <trkpt lat="43.85659" lon="6.72134">
        <ele>952.9</ele>
        <time>2021-09-18T14:14:59Z</time>
      </trkpt>
      <trkpt lat="43.8566" lon="6.7213">
        <ele>953.1</ele>
        <time>2021-09-18T14:15:01Z</time>
      </trkpt>
      <trkpt lat="43.8566" lon="6.72129">
        <ele>953.1</ele>
        <time>2021-09-18T14:15:02Z</time>
      </trkpt>
      <trkpt lat="43.8566" lon="6.72126">
        <ele>953.2</ele>
        <time>2021-09-18T14:15:03Z</time>
      </trkpt>
      <trkpt lat="43.8566" lon="6.72124">
        <ele>953.2</ele>
        <time>2021-09-18T14:15:04Z</time>
      </trkpt>
      <trkpt lat="43.8566" lon="6.72122">
        <ele>953.3</ele>
        <time>2021-09-18T14:15:05Z</time>
      </trkpt>
      <trkpt lat="43.85658" lon="6.7212">
        <ele>953.4</ele>
        <time>2021-09-18T14:15:06Z</time>
      </trkpt>
      <trkpt lat="43.85655" lon="6.72115">
        <ele>953.7</ele>
        <time>2021-09-18T14:15:08Z</time>
      </trkpt>
      <trkpt lat="43.85655" lon="6.72113">
        <ele>953.7</ele>
        <time>2021-09-18T14:15:10Z</time>
      </trkpt>
      <trkpt lat="43.85654" lon="6.72111">
        <ele>953.8</ele>
        <time>2021-09-18T14:15:11Z</time>
      </trkpt>
      <trkpt lat="43.85653" lon="6.72109">
        <ele>953.9</ele>
        <time>2021-09-18T14:15:12Z</time>
      </trkpt>
      <trkpt lat="43.85652" lon="6.72107">
        <ele>954</ele>
        <time>2021-09-18T14:15:13Z</time>
      </trkpt>
      <trkpt lat="43.85651" lon="6.72105">
        <ele>954.1</ele>
        <time>2021-09-18T14:15:14Z</time>
      </trkpt>
      <trkpt lat="43.8565" lon="6.72103">
        <ele>954.2</ele>
        <time>2021-09-18T14:15:15Z</time>
      </trkpt>
      <trkpt lat="43.85651" lon="6.72101">
        <ele>954.2</ele>
        <time>2021-09-18T14:15:16Z</time>
      </trkpt>
      <trkpt lat="43.85653" lon="6.72098">
        <ele>954.4</ele>
        <time>2021-09-18T14:15:17Z</time>
      </trkpt>
      <trkpt lat="43.85654" lon="6.72097">
        <ele>954.5</ele>
        <time>2021-09-18T14:15:18Z</time>
      </trkpt>
      <trkpt lat="43.85655" lon="6.72095">
        <ele>954.5</ele>
        <time>2021-09-18T14:15:19Z</time>
      </trkpt>
      <trkpt lat="43.85656" lon="6.72093">
        <ele>954.6</ele>
        <time>2021-09-18T14:15:21Z</time>
      </trkpt>
      <trkpt lat="43.85658" lon="6.72091">
        <ele>954.7</ele>
        <time>2021-09-18T14:15:22Z</time>
      </trkpt>
      <trkpt lat="43.85661" lon="6.72087">
        <ele>954.9</ele>
        <time>2021-09-18T14:15:24Z</time>
      </trkpt>
      <trkpt lat="43.85662" lon="6.72085">
        <ele>955</ele>
        <time>2021-09-18T14:15:25Z</time>
      </trkpt>
      <trkpt lat="43.85662" lon="6.72081">
        <ele>955.2</ele>
        <time>2021-09-18T14:15:27Z</time>
      </trkpt>
      <trkpt lat="43.85662" lon="6.72078">
        <ele>955.3</ele>
        <time>2021-09-18T14:15:28Z</time>
      </trkpt>
      <trkpt lat="43.85661" lon="6.72074">
        <ele>955.4</ele>
        <time>2021-09-18T14:15:30Z</time>
      </trkpt>
      <trkpt lat="43.8566" lon="6.7207">
        <ele>955.6</ele>
        <time>2021-09-18T14:15:31Z</time>
      </trkpt>
      <trkpt lat="43.85659" lon="6.72068">
        <ele>955.7</ele>
        <time>2021-09-18T14:15:32Z</time>
      </trkpt>
      <trkpt lat="43.85659" lon="6.72066">
        <ele>955.8</ele>
        <time>2021-09-18T14:15:33Z</time>
      </trkpt>
      <trkpt lat="43.85657" lon="6.72062">
        <ele>955.9</ele>
        <time>2021-09-18T14:15:35Z</time>
      </trkpt>
      <trkpt lat="43.85657" lon="6.72056">
        <ele>956.2</ele>
        <time>2021-09-18T14:15:36Z</time>
      </trkpt>
      <trkpt lat="43.85656" lon="6.72053">
        <ele>956.3</ele>
        <time>2021-09-18T14:15:37Z</time>
      </trkpt>
      <trkpt lat="43.85657" lon="6.72048">
        <ele>956.5</ele>
        <time>2021-09-18T14:15:39Z</time>
      </trkpt>
      <trkpt lat="43.85657" lon="6.72046">
        <ele>956.6</ele>
        <time>2021-09-18T14:15:40Z</time>
      </trkpt>
      <trkpt lat="43.85658" lon="6.7204">
        <ele>956.8</ele>
        <time>2021-09-18T14:15:42Z</time>
      </trkpt>
      <trkpt lat="43.85658" lon="6.72038">
        <ele>956.9</ele>
        <time>2021-09-18T14:15:43Z</time>
      </trkpt>
      <trkpt lat="43.85659" lon="6.72035">
        <ele>957</ele>
        <time>2021-09-18T14:15:44Z</time>
      </trkpt>
      <trkpt lat="43.85659" lon="6.72031">
        <ele>957.1</ele>
        <time>2021-09-18T14:15:46Z</time>
      </trkpt>
      <trkpt lat="43.85658" lon="6.72027">
        <ele>957.3</ele>
        <time>2021-09-18T14:15:47Z</time>
      </trkpt>
      <trkpt lat="43.85658" lon="6.72026">
        <ele>957.3</ele>
        <time>2021-09-18T14:15:48Z</time>
      </trkpt>
      <trkpt lat="43.85658" lon="6.72022">
        <ele>957.5</ele>
        <time>2021-09-18T14:15:50Z</time>
      </trkpt>
      <trkpt lat="43.85658" lon="6.7202">
        <ele>957.6</ele>
        <time>2021-09-18T14:15:51Z</time>
      </trkpt>
      <trkpt lat="43.85659" lon="6.72015">
        <ele>957.7</ele>
        <time>2021-09-18T14:15:53Z</time>
      </trkpt>
      <trkpt lat="43.85658" lon="6.72009">
        <ele>958</ele>
        <time>2021-09-18T14:15:55Z</time>
      </trkpt>
      <trkpt lat="43.85658" lon="6.72005">
        <ele>958.1</ele>
        <time>2021-09-18T14:15:57Z</time>
      </trkpt>
      <trkpt lat="43.85658" lon="6.72001">
        <ele>958.2</ele>
        <time>2021-09-18T14:15:59Z</time>
      </trkpt>
      <trkpt lat="43.85658" lon="6.71997">
        <ele>958.4</ele>
        <time>2021-09-18T14:16:01Z</time>
      </trkpt>
      <trkpt lat="43.85656" lon="6.71992">
        <ele>958.6</ele>
        <time>2021-09-18T14:16:03Z</time>
      </trkpt>
      <trkpt lat="43.85655" lon="6.71987">
        <ele>958.8</ele>
        <time>2021-09-18T14:16:05Z</time>
      </trkpt>
      <trkpt lat="43.85654" lon="6.71982">
        <ele>959</ele>
        <time>2021-09-18T14:16:07Z</time>
      </trkpt>
      <trkpt lat="43.85653" lon="6.7198">
        <ele>959</ele>
        <time>2021-09-18T14:16:08Z</time>
      </trkpt>
      <trkpt lat="43.85653" lon="6.71978">
        <ele>959.1</ele>
        <time>2021-09-18T14:16:09Z</time>
      </trkpt>
      <trkpt lat="43.85653" lon="6.71973">
        <ele>959.3</ele>
        <time>2021-09-18T14:16:11Z</time>
      </trkpt>
      <trkpt lat="43.85654" lon="6.71967">
        <ele>959.5</ele>
        <time>2021-09-18T14:16:13Z</time>
      </trkpt>
      <trkpt lat="43.85656" lon="6.71961">
        <ele>959.7</ele>
        <time>2021-09-18T14:16:15Z</time>
      </trkpt>
      <trkpt lat="43.85657" lon="6.71956">
        <ele>959.9</ele>
        <time>2021-09-18T14:16:16Z</time>
      </trkpt>
      <trkpt lat="43.85657" lon="6.71955">
        <ele>960</ele>
        <time>2021-09-18T14:16:17Z</time>
      </trkpt>
      <trkpt lat="43.85658" lon="6.71952">
        <ele>960.1</ele>
        <time>2021-09-18T14:16:18Z</time>
      </trkpt>
      <trkpt lat="43.85659" lon="6.71951">
        <ele>960.2</ele>
        <time>2021-09-18T14:16:19Z</time>
      </trkpt>
      <trkpt lat="43.85662" lon="6.71949">
        <ele>960.3</ele>
        <time>2021-09-18T14:16:20Z</time>
      </trkpt>
      <trkpt lat="43.85662" lon="6.71949">
        <ele>960.3</ele>
        <time>2021-09-18T14:16:21Z</time>
      </trkpt>
      <trkpt lat="43.8566" lon="6.7195">
        <ele>960.4</ele>
        <time>2021-09-18T14:16:23Z</time>
      </trkpt>
      <trkpt lat="43.8566" lon="6.71951">
        <ele>960.4</ele>
        <time>2021-09-18T14:16:24Z</time>
      </trkpt>
      <trkpt lat="43.85659" lon="6.71952">
        <ele>960.5</ele>
        <time>2021-09-18T14:16:26Z</time>
      </trkpt>
      <trkpt lat="43.85658" lon="6.71952">
        <ele>960.5</ele>
        <time>2021-09-18T14:16:27Z</time>
      </trkpt>
      <trkpt lat="43.85655" lon="6.71957">
        <ele>960.8</ele>
        <time>2021-09-18T14:16:29Z</time>
      </trkpt>
      <trkpt lat="43.85655" lon="6.71962">
        <ele>961.1</ele>
        <time>2021-09-18T14:16:30Z</time>
      </trkpt>
      <trkpt lat="43.85654" lon="6.71965">
        <ele>961.2</ele>
        <time>2021-09-18T14:16:31Z</time>
      </trkpt>
      <trkpt lat="43.85654" lon="6.71967">
        <ele>961.3</ele>
        <time>2021-09-18T14:16:32Z</time>
      </trkpt>
      <trkpt lat="43.85654" lon="6.71971">
        <ele>961.5</ele>
        <time>2021-09-18T14:16:33Z</time>
      </trkpt>
      <trkpt lat="43.85654" lon="6.71974">
        <ele>961.7</ele>
        <time>2021-09-18T14:16:35Z</time>
      </trkpt>
      <trkpt lat="43.85654" lon="6.71979">
        <ele>962</ele>
        <time>2021-09-18T14:16:37Z</time>
      </trkpt>
      <trkpt lat="43.85653" lon="6.71981">
        <ele>962.1</ele>
        <time>2021-09-18T14:16:38Z</time>
      </trkpt>
      <trkpt lat="43.85654" lon="6.71984">
        <ele>962.2</ele>
        <time>2021-09-18T14:16:39Z</time>
      </trkpt>
      <trkpt lat="43.85655" lon="6.71985">
        <ele>962.3</ele>
        <time>2021-09-18T14:16:41Z</time>
      </trkpt>
      <trkpt lat="43.85656" lon="6.71985">
        <ele>962.3</ele>
        <time>2021-09-18T14:16:42Z</time>
      </trkpt>
      <trkpt lat="43.85655" lon="6.71984">
        <ele>962.4</ele>
        <time>2021-09-18T14:16:43Z</time>
      </trkpt>
      <trkpt lat="43.85654" lon="6.71984">
        <ele>962.4</ele>
        <time>2021-09-18T14:16:45Z</time>
      </trkpt>
      <trkpt lat="43.85654" lon="6.71985">
        <ele>962.5</ele>
        <time>2021-09-18T14:16:46Z</time>
      </trkpt>
      <trkpt lat="43.85653" lon="6.71985">
        <ele>962.5</ele>
        <time>2021-09-18T14:16:48Z</time>
      </trkpt>
      <trkpt lat="43.85652" lon="6.71987">
        <ele>962.6</ele>
        <time>2021-09-18T14:16:49Z</time>
      </trkpt>
      <trkpt lat="43.85652" lon="6.71989">
        <ele>962.6</ele>
        <time>2021-09-18T14:16:51Z</time>
      </trkpt>
      <trkpt lat="43.85649" lon="6.72001">
        <ele>963</ele>
        <time>2021-09-18T14:16:59Z</time>
      </trkpt>
      <trkpt lat="43.85649" lon="6.72009">
        <ele>963.3</ele>
        <time>2021-09-18T14:17:01Z</time>
      </trkpt>
      <trkpt lat="43.85648" lon="6.72014">
        <ele>963.5</ele>
        <time>2021-09-18T14:17:02Z</time>
      </trkpt>
      <trkpt lat="43.85648" lon="6.72018">
        <ele>963.7</ele>
        <time>2021-09-18T14:17:03Z</time>
      </trkpt>
      <trkpt lat="43.85648" lon="6.7202">
        <ele>963.7</ele>
        <time>2021-09-18T14:17:04Z</time>
      </trkpt>
      <trkpt lat="43.85647" lon="6.72022">
        <ele>963.8</ele>
        <time>2021-09-18T14:17:05Z</time>
      </trkpt>
      <trkpt lat="43.85647" lon="6.72027">
        <ele>964</ele>
        <time>2021-09-18T14:17:07Z</time>
      </trkpt>
      <trkpt lat="43.85646" lon="6.72031">
        <ele>964.2</ele>
        <time>2021-09-18T14:17:08Z</time>
      </trkpt>
      <trkpt lat="43.85645" lon="6.72037">
        <ele>964.4</ele>
        <time>2021-09-18T14:17:09Z</time>
      </trkpt>
      <trkpt lat="43.85643" lon="6.72042">
        <ele>964.6</ele>
        <time>2021-09-18T14:17:11Z</time>
      </trkpt>
      <trkpt lat="43.85643" lon="6.72044">
        <ele>964.7</ele>
        <time>2021-09-18T14:17:12Z</time>
      </trkpt>
      <trkpt lat="43.85642" lon="6.72047">
        <ele>964.8</ele>
        <time>2021-09-18T14:17:13Z</time>
      </trkpt>
      <trkpt lat="43.85641" lon="6.72051">
        <ele>965</ele>
        <time>2021-09-18T14:17:14Z</time>
      </trkpt>
      <trkpt lat="43.85641" lon="6.72052">
        <ele>965.1</ele>
        <time>2021-09-18T14:17:15Z</time>
      </trkpt>
      <trkpt lat="43.8564" lon="6.72056">
        <ele>965.2</ele>
        <time>2021-09-18T14:17:16Z</time>
      </trkpt>
      <trkpt lat="43.85639" lon="6.7206">
        <ele>965.4</ele>
        <time>2021-09-18T14:17:18Z</time>
      </trkpt>
      <trkpt lat="43.85639" lon="6.72067">
        <ele>965.6</ele>
        <time>2021-09-18T14:17:20Z</time>
      </trkpt>
      <trkpt lat="43.85639" lon="6.72073">
        <ele>965.8</ele>
        <time>2021-09-18T14:17:22Z</time>
      </trkpt>
      <trkpt lat="43.85637" lon="6.72078">
        <ele>966.1</ele>
        <time>2021-09-18T14:17:23Z</time>
      </trkpt>
      <trkpt lat="43.85636" lon="6.72081">
        <ele>966.1</ele>
        <time>2021-09-18T14:17:24Z</time>
      </trkpt>
      <trkpt lat="43.85634" lon="6.72084">
        <ele>966.3</ele>
        <time>2021-09-18T14:17:26Z</time>
      </trkpt>
      <trkpt lat="43.85631" lon="6.72086">
        <ele>966.5</ele>
        <time>2021-09-18T14:17:27Z</time>
      </trkpt>
      <trkpt lat="43.85631" lon="6.72087">
        <ele>966.5</ele>
        <time>2021-09-18T14:17:29Z</time>
      </trkpt>
      <trkpt lat="43.8563" lon="6.72089">
        <ele>966.6</ele>
        <time>2021-09-18T14:17:31Z</time>
      </trkpt>
      <trkpt lat="43.85629" lon="6.72089">
        <ele>966.6</ele>
        <time>2021-09-18T14:17:32Z</time>
      </trkpt>
      <trkpt lat="43.85629" lon="6.72091">
        <ele>966.7</ele>
        <time>2021-09-18T14:17:34Z</time>
      </trkpt>
      <trkpt lat="43.85628" lon="6.72093">
        <ele>966.8</ele>
        <time>2021-09-18T14:17:35Z</time>
      </trkpt>
      <trkpt lat="43.85628" lon="6.72094">
        <ele>966.9</ele>
        <time>2021-09-18T14:17:36Z</time>
      </trkpt>
      <trkpt lat="43.85628" lon="6.72098">
        <ele>967</ele>
        <time>2021-09-18T14:17:37Z</time>
      </trkpt>
      <trkpt lat="43.8563" lon="6.72102">
        <ele>967.2</ele>
        <time>2021-09-18T14:17:39Z</time>
      </trkpt>
      <trkpt lat="43.85631" lon="6.72109">
        <ele>967.4</ele>
        <time>2021-09-18T14:17:40Z</time>
      </trkpt>
      <trkpt lat="43.85632" lon="6.72113">
        <ele>967.6</ele>
        <time>2021-09-18T14:17:41Z</time>
      </trkpt>
      <trkpt lat="43.85633" lon="6.72119">
        <ele>967.8</ele>
        <time>2021-09-18T14:17:43Z</time>
      </trkpt>
      <trkpt lat="43.85632" lon="6.72125">
        <ele>968.1</ele>
        <time>2021-09-18T14:17:45Z</time>
      </trkpt>
      <trkpt lat="43.85631" lon="6.72129">
        <ele>968.3</ele>
        <time>2021-09-18T14:17:47Z</time>
      </trkpt>
      <trkpt lat="43.85628" lon="6.72133">
        <ele>968.5</ele>
        <time>2021-09-18T14:17:48Z</time>
      </trkpt>
      <trkpt lat="43.85626" lon="6.72136">
        <ele>968.6</ele>
        <time>2021-09-18T14:17:50Z</time>
      </trkpt>
      <trkpt lat="43.85625" lon="6.72137">
        <ele>968.7</ele>
        <time>2021-09-18T14:17:51Z</time>
      </trkpt>
      <trkpt lat="43.85624" lon="6.72139">
        <ele>968.8</ele>
        <time>2021-09-18T14:17:53Z</time>
      </trkpt>
      <trkpt lat="43.85623" lon="6.72142">
        <ele>968.9</ele>
        <time>2021-09-18T14:17:55Z</time>
      </trkpt>
      <trkpt lat="43.8562" lon="6.72157">
        <ele>969.5</ele>
        <time>2021-09-18T14:18:00Z</time>
      </trkpt>
      <trkpt lat="43.85617" lon="6.72162">
        <ele>969.7</ele>
        <time>2021-09-18T14:18:01Z</time>
      </trkpt>
      <trkpt lat="43.85613" lon="6.72169">
        <ele>970.1</ele>
        <time>2021-09-18T14:18:03Z</time>
      </trkpt>
      <trkpt lat="43.85612" lon="6.72174">
        <ele>970.2</ele>
        <time>2021-09-18T14:18:04Z</time>
      </trkpt>
      <trkpt lat="43.85609" lon="6.72182">
        <ele>970.5</ele>
        <time>2021-09-18T14:18:06Z</time>
      </trkpt>
      <trkpt lat="43.85609" lon="6.72189">
        <ele>970.8</ele>
        <time>2021-09-18T14:18:08Z</time>
      </trkpt>
      <trkpt lat="43.85609" lon="6.72194">
        <ele>971</ele>
        <time>2021-09-18T14:18:09Z</time>
      </trkpt>
      <trkpt lat="43.85609" lon="6.72197">
        <ele>971.1</ele>
        <time>2021-09-18T14:18:11Z</time>
      </trkpt>
      <trkpt lat="43.8561" lon="6.72199">
        <ele>971.1</ele>
        <time>2021-09-18T14:18:12Z</time>
      </trkpt>
      <trkpt lat="43.85609" lon="6.72201">
        <ele>971.2</ele>
        <time>2021-09-18T14:18:13Z</time>
      </trkpt>
      <trkpt lat="43.85608" lon="6.72203">
        <ele>971.3</ele>
        <time>2021-09-18T14:18:14Z</time>
      </trkpt>
      <trkpt lat="43.85606" lon="6.72205">
        <ele>971.4</ele>
        <time>2021-09-18T14:18:16Z</time>
      </trkpt>
      <trkpt lat="43.85603" lon="6.72208">
        <ele>971.6</ele>
        <time>2021-09-18T14:18:18Z</time>
      </trkpt>
      <trkpt lat="43.85603" lon="6.7221">
        <ele>971.7</ele>
        <time>2021-09-18T14:18:19Z</time>
      </trkpt>
      <trkpt lat="43.85603" lon="6.72212">
        <ele>971.7</ele>
        <time>2021-09-18T14:18:20Z</time>
      </trkpt>
      <trkpt lat="43.85602" lon="6.72215">
        <ele>971.8</ele>
        <time>2021-09-18T14:18:21Z</time>
      </trkpt>
      <trkpt lat="43.85599" lon="6.72218">
        <ele>972</ele>
        <time>2021-09-18T14:18:23Z</time>
      </trkpt>
      <trkpt lat="43.85597" lon="6.7222">
        <ele>972.1</ele>
        <time>2021-09-18T14:18:24Z</time>
      </trkpt>
      <trkpt lat="43.85597" lon="6.72221">
        <ele>972.1</ele>
        <time>2021-09-18T14:18:25Z</time>
      </trkpt>
      <trkpt lat="43.85597" lon="6.72222">
        <ele>972.2</ele>
        <time>2021-09-18T14:18:26Z</time>
      </trkpt>
      <trkpt lat="43.85598" lon="6.72226">
        <ele>972.3</ele>
        <time>2021-09-18T14:18:28Z</time>
      </trkpt>
      <trkpt lat="43.85598" lon="6.72227">
        <ele>972.3</ele>
        <time>2021-09-18T14:18:29Z</time>
      </trkpt>
      <trkpt lat="43.85597" lon="6.7223">
        <ele>972.4</ele>
        <time>2021-09-18T14:18:30Z</time>
      </trkpt>
      <trkpt lat="43.85596" lon="6.72232">
        <ele>972.5</ele>
        <time>2021-09-18T14:18:31Z</time>
      </trkpt>
      <trkpt lat="43.85594" lon="6.72235">
        <ele>972.6</ele>
        <time>2021-09-18T14:18:33Z</time>
      </trkpt>
      <trkpt lat="43.85592" lon="6.72239">
        <ele>972.7</ele>
        <time>2021-09-18T14:18:34Z</time>
      </trkpt>
      <trkpt lat="43.85588" lon="6.72246">
        <ele>973</ele>
        <time>2021-09-18T14:18:36Z</time>
      </trkpt>
      <trkpt lat="43.85585" lon="6.72252">
        <ele>973.2</ele>
        <time>2021-09-18T14:18:38Z</time>
      </trkpt>
      <trkpt lat="43.85583" lon="6.72255">
        <ele>973.3</ele>
        <time>2021-09-18T14:18:39Z</time>
      </trkpt>
      <trkpt lat="43.8558" lon="6.72261">
        <ele>973.6</ele>
        <time>2021-09-18T14:18:40Z</time>
      </trkpt>
      <trkpt lat="43.85578" lon="6.72264">
        <ele>973.8</ele>
        <time>2021-09-18T14:18:42Z</time>
      </trkpt>
      <trkpt lat="43.85575" lon="6.72266">
        <ele>973.9</ele>
        <time>2021-09-18T14:18:43Z</time>
      </trkpt>
      <trkpt lat="43.85573" lon="6.72267">
        <ele>974.1</ele>
        <time>2021-09-18T14:18:45Z</time>
      </trkpt>
      <trkpt lat="43.85572" lon="6.72269">
        <ele>974.2</ele>
        <time>2021-09-18T14:18:46Z</time>
      </trkpt>
      <trkpt lat="43.85572" lon="6.72269">
        <ele>974.2</ele>
        <time>2021-09-18T14:18:47Z</time>
      </trkpt>
      <trkpt lat="43.85572" lon="6.72269">
        <ele>974.2</ele>
        <time>2021-09-18T14:18:49Z</time>
      </trkpt>
      <trkpt lat="43.85571" lon="6.72269">
        <ele>974.2</ele>
        <time>2021-09-18T14:18:50Z</time>
      </trkpt>
      <trkpt lat="43.85571" lon="6.7227">
        <ele>974.2</ele>
        <time>2021-09-18T14:18:51Z</time>
      </trkpt>
      <trkpt lat="43.8557" lon="6.7227">
        <ele>974.3</ele>
        <time>2021-09-18T14:18:53Z</time>
      </trkpt>
      <trkpt lat="43.8557" lon="6.7227">
        <ele>974.3</ele>
        <time>2021-09-18T14:18:54Z</time>
      </trkpt>
      <trkpt lat="43.85569" lon="6.72271">
        <ele>974.3</ele>
        <time>2021-09-18T14:18:56Z</time>
      </trkpt>
      <trkpt lat="43.85519" lon="6.72378">
        <ele>978.9</ele>
        <time>2021-09-18T14:19:33Z</time>
      </trkpt>
      <trkpt lat="43.85514" lon="6.72389">
        <ele>979.2</ele>
        <time>2021-09-18T14:19:35Z</time>
      </trkpt>
      <trkpt lat="43.85513" lon="6.7239">
        <ele>979.3</ele>
        <time>2021-09-18T14:19:37Z</time>
      </trkpt>
      <trkpt lat="43.85512" lon="6.7239">
        <ele>979.3</ele>
        <time>2021-09-18T14:19:38Z</time>
      </trkpt>
      <trkpt lat="43.85506" lon="6.72392">
        <ele>979.5</ele>
        <time>2021-09-18T14:19:40Z</time>
      </trkpt>
      <trkpt lat="43.85502" lon="6.72393">
        <ele>979.7</ele>
        <time>2021-09-18T14:19:41Z</time>
      </trkpt>
      <trkpt lat="43.85501" lon="6.72394">
        <ele>979.7</ele>
        <time>2021-09-18T14:19:42Z</time>
      </trkpt>
      <trkpt lat="43.855" lon="6.72395">
        <ele>979.8</ele>
        <time>2021-09-18T14:19:44Z</time>
      </trkpt>
      <trkpt lat="43.85498" lon="6.72397">
        <ele>979.8</ele>
        <time>2021-09-18T14:19:46Z</time>
      </trkpt>
      <trkpt lat="43.85494" lon="6.724">
        <ele>980</ele>
        <time>2021-09-18T14:19:48Z</time>
      </trkpt>
      <trkpt lat="43.85492" lon="6.72403">
        <ele>980.1</ele>
        <time>2021-09-18T14:19:49Z</time>
      </trkpt>
      <trkpt lat="43.85489" lon="6.72406">
        <ele>980.3</ele>
        <time>2021-09-18T14:19:51Z</time>
      </trkpt>
      <trkpt lat="43.85487" lon="6.72409">
        <ele>980.4</ele>
        <time>2021-09-18T14:19:52Z</time>
      </trkpt>
      <trkpt lat="43.85484" lon="6.72412">
        <ele>980.5</ele>
        <time>2021-09-18T14:19:53Z</time>
      </trkpt>
      <trkpt lat="43.85482" lon="6.72416">
        <ele>980.6</ele>
        <time>2021-09-18T14:19:54Z</time>
      </trkpt>
      <trkpt lat="43.8548" lon="6.7242">
        <ele>980.8</ele>
        <time>2021-09-18T14:19:55Z</time>
      </trkpt>
      <trkpt lat="43.85478" lon="6.72426">
        <ele>981</ele>
        <time>2021-09-18T14:19:57Z</time>
      </trkpt>
      <trkpt lat="43.85475" lon="6.72431">
        <ele>981.1</ele>
        <time>2021-09-18T14:19:58Z</time>
      </trkpt>
      <trkpt lat="43.85472" lon="6.72436">
        <ele>981.3</ele>
        <time>2021-09-18T14:19:59Z</time>
      </trkpt>
      <trkpt lat="43.85469" lon="6.7244">
        <ele>981.6</ele>
        <time>2021-09-18T14:20:01Z</time>
      </trkpt>
      <trkpt lat="43.85466" lon="6.72443">
        <ele>981.8</ele>
        <time>2021-09-18T14:20:02Z</time>
      </trkpt>
      <trkpt lat="43.85462" lon="6.72447">
        <ele>982.2</ele>
        <time>2021-09-18T14:20:04Z</time>
      </trkpt>
      <trkpt lat="43.85457" lon="6.72455">
        <ele>982.6</ele>
        <time>2021-09-18T14:20:06Z</time>
      </trkpt>
      <trkpt lat="43.85455" lon="6.72458">
        <ele>982.9</ele>
        <time>2021-09-18T14:20:07Z</time>
      </trkpt>
      <trkpt lat="43.85452" lon="6.72462">
        <ele>983.1</ele>
        <time>2021-09-18T14:20:09Z</time>
      </trkpt>
      <trkpt lat="43.8545" lon="6.72464">
        <ele>983.3</ele>
        <time>2021-09-18T14:20:10Z</time>
      </trkpt>
      <trkpt lat="43.85447" lon="6.72467">
        <ele>983.5</ele>
        <time>2021-09-18T14:20:12Z</time>
      </trkpt>
      <trkpt lat="43.85444" lon="6.72468">
        <ele>983.7</ele>
        <time>2021-09-18T14:20:13Z</time>
      </trkpt>
      <trkpt lat="43.85439" lon="6.72471">
        <ele>984</ele>
        <time>2021-09-18T14:20:15Z</time>
      </trkpt>
      <trkpt lat="43.85436" lon="6.72473">
        <ele>984.2</ele>
        <time>2021-09-18T14:20:16Z</time>
      </trkpt>
      <trkpt lat="43.85433" lon="6.72475">
        <ele>984.4</ele>
        <time>2021-09-18T14:20:17Z</time>
      </trkpt>
      <trkpt lat="43.85428" lon="6.72479">
        <ele>984.7</ele>
        <time>2021-09-18T14:20:19Z</time>
      </trkpt>
      <trkpt lat="43.85423" lon="6.72481">
        <ele>985</ele>
        <time>2021-09-18T14:20:21Z</time>
      </trkpt>
      <trkpt lat="43.85421" lon="6.72482">
        <ele>985.1</ele>
        <time>2021-09-18T14:20:22Z</time>
      </trkpt>
      <trkpt lat="43.8542" lon="6.72483">
        <ele>985.2</ele>
        <time>2021-09-18T14:20:24Z</time>
      </trkpt>
      <trkpt lat="43.85418" lon="6.72484">
        <ele>985.3</ele>
        <time>2021-09-18T14:20:25Z</time>
      </trkpt>
      <trkpt lat="43.85417" lon="6.72485">
        <ele>985.4</ele>
        <time>2021-09-18T14:20:26Z</time>
      </trkpt>
      <trkpt lat="43.85416" lon="6.7249">
        <ele>985.6</ele>
        <time>2021-09-18T14:20:28Z</time>
      </trkpt>
      <trkpt lat="43.85415" lon="6.72491">
        <ele>985.7</ele>
        <time>2021-09-18T14:20:29Z</time>
      </trkpt>
      <trkpt lat="43.85414" lon="6.72492">
        <ele>985.8</ele>
        <time>2021-09-18T14:20:30Z</time>
      </trkpt>
      <trkpt lat="43.85413" lon="6.72493">
        <ele>985.9</ele>
        <time>2021-09-18T14:20:31Z</time>
      </trkpt>
      <trkpt lat="43.85412" lon="6.72493">
        <ele>985.9</ele>
        <time>2021-09-18T14:20:32Z</time>
      </trkpt>
      <trkpt lat="43.85411" lon="6.72495">
        <ele>986.1</ele>
        <time>2021-09-18T14:20:33Z</time>
      </trkpt>
      <trkpt lat="43.85411" lon="6.72496">
        <ele>986.1</ele>
        <time>2021-09-18T14:20:34Z</time>
      </trkpt>
      <trkpt lat="43.85411" lon="6.72497">
        <ele>986.1</ele>
        <time>2021-09-18T14:20:36Z</time>
      </trkpt>
      <trkpt lat="43.8541" lon="6.72497">
        <ele>986.2</ele>
        <time>2021-09-18T14:20:37Z</time>
      </trkpt>
      <trkpt lat="43.85408" lon="6.72498">
        <ele>986.3</ele>
        <time>2021-09-18T14:20:38Z</time>
      </trkpt>
      <trkpt lat="43.85405" lon="6.725">
        <ele>986.5</ele>
        <time>2021-09-18T14:20:39Z</time>
      </trkpt>
      <trkpt lat="43.85402" lon="6.72501">
        <ele>986.7</ele>
        <time>2021-09-18T14:20:40Z</time>
      </trkpt>
      <trkpt lat="43.85399" lon="6.72503">
        <ele>987</ele>
        <time>2021-09-18T14:20:41Z</time>
      </trkpt>
      <trkpt lat="43.85397" lon="6.72506">
        <ele>987.2</ele>
        <time>2021-09-18T14:20:42Z</time>
      </trkpt>
      <trkpt lat="43.85395" lon="6.72509">
        <ele>987.4</ele>
        <time>2021-09-18T14:20:43Z</time>
      </trkpt>
      <trkpt lat="43.85391" lon="6.72514">
        <ele>987.8</ele>
        <time>2021-09-18T14:20:45Z</time>
      </trkpt>
      <trkpt lat="43.8539" lon="6.7252">
        <ele>988</ele>
        <time>2021-09-18T14:20:47Z</time>
      </trkpt>
      <trkpt lat="43.8539" lon="6.72523">
        <ele>988.2</ele>
        <time>2021-09-18T14:20:48Z</time>
      </trkpt>
      <trkpt lat="43.8539" lon="6.72525">
        <ele>988.3</ele>
        <time>2021-09-18T14:20:49Z</time>
      </trkpt>
      <trkpt lat="43.8539" lon="6.72528">
        <ele>988.4</ele>
        <time>2021-09-18T14:20:51Z</time>
      </trkpt>
      <trkpt lat="43.8539" lon="6.7253">
        <ele>988.5</ele>
        <time>2021-09-18T14:20:53Z</time>
      </trkpt>
      <trkpt lat="43.85389" lon="6.72532">
        <ele>988.6</ele>
        <time>2021-09-18T14:20:54Z</time>
      </trkpt>
      <trkpt lat="43.85389" lon="6.72533">
        <ele>988.7</ele>
        <time>2021-09-18T14:20:55Z</time>
      </trkpt>
      <trkpt lat="43.85389" lon="6.72535">
        <ele>988.8</ele>
        <time>2021-09-18T14:20:56Z</time>
      </trkpt>
      <trkpt lat="43.85388" lon="6.72541">
        <ele>989.1</ele>
        <time>2021-09-18T14:20:58Z</time>
      </trkpt>
      <trkpt lat="43.85388" lon="6.72543">
        <ele>989.2</ele>
        <time>2021-09-18T14:20:59Z</time>
      </trkpt>
      <trkpt lat="43.85387" lon="6.72548">
        <ele>989.4</ele>
        <time>2021-09-18T14:21:01Z</time>
      </trkpt>
      <trkpt lat="43.85386" lon="6.7255">
        <ele>989.6</ele>
        <time>2021-09-18T14:21:02Z</time>
      </trkpt>
      <trkpt lat="43.85385" lon="6.7255">
        <ele>989.6</ele>
        <time>2021-09-18T14:21:04Z</time>
      </trkpt>
      <trkpt lat="43.85384" lon="6.72551">
        <ele>989.7</ele>
        <time>2021-09-18T14:21:05Z</time>
      </trkpt>
      <trkpt lat="43.85383" lon="6.72551">
        <ele>989.8</ele>
        <time>2021-09-18T14:21:06Z</time>
      </trkpt>
      <trkpt lat="43.85382" lon="6.72551">
        <ele>989.8</ele>
        <time>2021-09-18T14:21:08Z</time>
      </trkpt>
      <trkpt lat="43.85381" lon="6.72551">
        <ele>989.9</ele>
        <time>2021-09-18T14:21:09Z</time>
      </trkpt>
      <trkpt lat="43.85379" lon="6.72551">
        <ele>990</ele>
        <time>2021-09-18T14:21:11Z</time>
      </trkpt>
      <trkpt lat="43.84936" lon="6.73101">
        <ele>1044.4</ele>
        <time>2021-09-18T14:28:19Z</time>
      </trkpt>
      <trkpt lat="43.84933" lon="6.73104">
        <ele>1042.6</ele>
        <time>2021-09-18T14:28:20Z</time>
      </trkpt>
      <trkpt lat="43.84931" lon="6.73107">
        <ele>1040.9</ele>
        <time>2021-09-18T14:28:21Z</time>
      </trkpt>
      <trkpt lat="43.84927" lon="6.73111">
        <ele>1039.5</ele>
        <time>2021-09-18T14:28:23Z</time>
      </trkpt>
      <trkpt lat="43.8492" lon="6.73114">
        <ele>1036.7</ele>
        <time>2021-09-18T14:28:25Z</time>
      </trkpt>
      <trkpt lat="43.84917" lon="6.73115">
        <ele>1035.5</ele>
        <time>2021-09-18T14:28:26Z</time>
      </trkpt>
      <trkpt lat="43.84912" lon="6.73114">
        <ele>1032.9</ele>
        <time>2021-09-18T14:28:27Z</time>
      </trkpt>
      <trkpt lat="43.84906" lon="6.73113">
        <ele>1031</ele>
        <time>2021-09-18T14:28:29Z</time>
      </trkpt>
      <trkpt lat="43.84899" lon="6.7311">
        <ele>1029.5</ele>
        <time>2021-09-18T14:28:30Z</time>
      </trkpt>
      <trkpt lat="43.84894" lon="6.73107">
        <ele>1027.8</ele>
        <time>2021-09-18T14:28:32Z</time>
      </trkpt>
      <trkpt lat="43.84891" lon="6.73102">
        <ele>1027.3</ele>
        <time>2021-09-18T14:28:33Z</time>
      </trkpt>
      <trkpt lat="43.84889" lon="6.73099">
        <ele>1028</ele>
        <time>2021-09-18T14:28:34Z</time>
      </trkpt>
      <trkpt lat="43.84886" lon="6.73098">
        <ele>1026.2</ele>
        <time>2021-09-18T14:28:36Z</time>
      </trkpt>
      <trkpt lat="43.84884" lon="6.73099">
        <ele>1026.5</ele>
        <time>2021-09-18T14:28:37Z</time>
      </trkpt>
      <trkpt lat="43.84882" lon="6.731">
        <ele>1025.9</ele>
        <time>2021-09-18T14:28:38Z</time>
      </trkpt>
      <trkpt lat="43.84877" lon="6.73101">
        <ele>1025.5</ele>
        <time>2021-09-18T14:28:40Z</time>
      </trkpt>
      <trkpt lat="43.84872" lon="6.73102">
        <ele>1024</ele>
        <time>2021-09-18T14:28:41Z</time>
      </trkpt>
      <trkpt lat="43.84869" lon="6.73101">
        <ele>1023.9</ele>
        <time>2021-09-18T14:28:43Z</time>
      </trkpt>
      <trkpt lat="43.84864" lon="6.731">
        <ele>1023.4</ele>
        <time>2021-09-18T14:28:45Z</time>
      </trkpt>
      <trkpt lat="43.84862" lon="6.73097">
        <ele>1022.9</ele>
        <time>2021-09-18T14:28:46Z</time>
      </trkpt>
      <trkpt lat="43.84861" lon="6.73096">
        <ele>1022.7</ele>
        <time>2021-09-18T14:28:47Z</time>
      </trkpt>
      <trkpt lat="43.84857" lon="6.73093">
        <ele>1022.3</ele>
        <time>2021-09-18T14:28:48Z</time>
      </trkpt>
      <trkpt lat="43.84856" lon="6.73093">
        <ele>1022.6</ele>
        <time>2021-09-18T14:28:49Z</time>
      </trkpt>
      <trkpt lat="43.84849" lon="6.73096">
        <ele>1021.6</ele>
        <time>2021-09-18T14:28:51Z</time>
      </trkpt>
      <trkpt lat="43.84845" lon="6.73098">
        <ele>1020.4</ele>
        <time>2021-09-18T14:28:52Z</time>
      </trkpt>
      <trkpt lat="43.84842" lon="6.73097">
        <ele>1020.5</ele>
        <time>2021-09-18T14:28:54Z</time>
      </trkpt>
      <trkpt lat="43.84839" lon="6.73096">
        <ele>1020.3</ele>
        <time>2021-09-18T14:28:56Z</time>
      </trkpt>
      <trkpt lat="43.84838" lon="6.73094">
        <ele>1020.6</ele>
        <time>2021-09-18T14:28:57Z</time>
      </trkpt>
      <trkpt lat="43.84838" lon="6.73091">
        <ele>1021.3</ele>
        <time>2021-09-18T14:28:59Z</time>
      </trkpt>
      <trkpt lat="43.84839" lon="6.73086">
        <ele>1022</ele>
        <time>2021-09-18T14:29:01Z</time>
      </trkpt>
      <trkpt lat="43.8484" lon="6.73086">
        <ele>1022.9</ele>
        <time>2021-09-18T14:29:03Z</time>
      </trkpt>
      <trkpt lat="43.84842" lon="6.73086">
        <ele>1023.1</ele>
        <time>2021-09-18T14:29:04Z</time>
      </trkpt>
      <trkpt lat="43.84844" lon="6.73088">
        <ele>1024</ele>
        <time>2021-09-18T14:29:05Z</time>
      </trkpt>
      <trkpt lat="43.84847" lon="6.73089">
        <ele>1024.3</ele>
        <time>2021-09-18T14:29:07Z</time>
      </trkpt>
      <trkpt lat="43.8485" lon="6.7309">
        <ele>1025.2</ele>
        <time>2021-09-18T14:29:08Z</time>
      </trkpt>
      <trkpt lat="43.84855" lon="6.73093">
        <ele>1025.6</ele>
        <time>2021-09-18T14:29:09Z</time>
      </trkpt>
      <trkpt lat="43.84857" lon="6.73099">
        <ele>1026.2</ele>
        <time>2021-09-18T14:29:11Z</time>
      </trkpt>
      <trkpt lat="43.8486" lon="6.73102">
        <ele>1026.9</ele>
        <time>2021-09-18T14:29:12Z</time>
      </trkpt>
      <trkpt lat="43.84864" lon="6.73104">
        <ele>1027.9</ele>
        <time>2021-09-18T14:29:13Z</time>
      </trkpt>
      <trkpt lat="43.84867" lon="6.73105">
        <ele>1029</ele>
        <time>2021-09-18T14:29:14Z</time>
      </trkpt>
      <trkpt lat="43.8487" lon="6.73106">
        <ele>1029.8</ele>
        <time>2021-09-18T14:29:15Z</time>
      </trkpt>
      <trkpt lat="43.84873" lon="6.73108">
        <ele>1030.8</ele>
        <time>2021-09-18T14:29:16Z</time>
      </trkpt>
      <trkpt lat="43.84876" lon="6.7311">
        <ele>1031.7</ele>
        <time>2021-09-18T14:29:18Z</time>
      </trkpt>
      <trkpt lat="43.8488" lon="6.73112">
        <ele>1033.2</ele>
        <time>2021-09-18T14:29:20Z</time>
      </trkpt>
      <trkpt lat="43.84883" lon="6.73115">
        <ele>1034.1</ele>
        <time>2021-09-18T14:29:22Z</time>
      </trkpt>
      <trkpt lat="43.84885" lon="6.7312">
        <ele>1034.3</ele>
        <time>2021-09-18T14:29:23Z</time>
      </trkpt>
      <trkpt lat="43.84885" lon="6.73122">
        <ele>1034.6</ele>
        <time>2021-09-18T14:29:24Z</time>
      </trkpt>
      <trkpt lat="43.84884" lon="6.73129">
        <ele>1034.8</ele>
        <time>2021-09-18T14:29:25Z</time>
      </trkpt>
      <trkpt lat="43.84881" lon="6.73134">
        <ele>1034.3</ele>
        <time>2021-09-18T14:29:26Z</time>
      </trkpt>
      <trkpt lat="43.84875" lon="6.73141">
        <ele>1033</ele>
        <time>2021-09-18T14:29:28Z</time>
      </trkpt>
      <trkpt lat="43.84869" lon="6.73144">
        <ele>1032</ele>
        <time>2021-09-18T14:29:29Z</time>
      </trkpt>
      <trkpt lat="43.84863" lon="6.73149">
        <ele>1030.9</ele>
        <time>2021-09-18T14:29:30Z</time>
      </trkpt>
      <trkpt lat="43.84859" lon="6.73152">
        <ele>1030.1</ele>
        <time>2021-09-18T14:29:32Z</time>
      </trkpt>
      <trkpt lat="43.84854" lon="6.73156">
        <ele>1029</ele>
        <time>2021-09-18T14:29:34Z</time>
      </trkpt>
      <trkpt lat="43.84851" lon="6.73158">
        <ele>1028.5</ele>
        <time>2021-09-18T14:29:35Z</time>
      </trkpt>
      <trkpt lat="43.84847" lon="6.7316">
        <ele>1027.7</ele>
        <time>2021-09-18T14:29:37Z</time>
      </trkpt>
      <trkpt lat="43.84842" lon="6.7316">
        <ele>1026.9</ele>
        <time>2021-09-18T14:29:39Z</time>
      </trkpt>
      <trkpt lat="43.8484" lon="6.73162">
        <ele>1026.5</ele>
        <time>2021-09-18T14:29:40Z</time>
      </trkpt>
      <trkpt lat="43.84839" lon="6.73162">
        <ele>1026.3</ele>
        <time>2021-09-18T14:29:41Z</time>
      </trkpt>
      <trkpt lat="43.84836" lon="6.73163">
        <ele>1025.9</ele>
        <time>2021-09-18T14:29:43Z</time>
      </trkpt>
      <trkpt lat="43.84837" lon="6.73162">
        <ele>1025.7</ele>
        <time>2021-09-18T14:29:44Z</time>
      </trkpt>
      <trkpt lat="43.84835" lon="6.73163">
        <ele>1025.4</ele>
        <time>2021-09-18T14:29:45Z</time>
      </trkpt>
      <trkpt lat="43.84831" lon="6.73168">
        <ele>1024.5</ele>
        <time>2021-09-18T14:29:47Z</time>
      </trkpt>
      <trkpt lat="43.8483" lon="6.7317">
        <ele>1024.1</ele>
        <time>2021-09-18T14:29:48Z</time>
      </trkpt>
      <trkpt lat="43.84828" lon="6.73175">
        <ele>1023.4</ele>
        <time>2021-09-18T14:29:50Z</time>
      </trkpt>
      <trkpt lat="43.84826" lon="6.73178">
        <ele>1023</ele>
        <time>2021-09-18T14:29:52Z</time>
      </trkpt>
      <trkpt lat="43.84824" lon="6.73177">
        <ele>1022.8</ele>
        <time>2021-09-18T14:29:53Z</time>
      </trkpt>
      <trkpt lat="43.84822" lon="6.73173">
        <ele>1022.2</ele>
        <time>2021-09-18T14:29:55Z</time>
      </trkpt>
      <trkpt lat="43.8482" lon="6.73171">
        <ele>1021.7</ele>
        <time>2021-09-18T14:29:56Z</time>
      </trkpt>
      <trkpt lat="43.84816" lon="6.73167">
        <ele>1020.9</ele>
        <time>2021-09-18T14:29:58Z</time>
      </trkpt>
      <trkpt lat="43.84815" lon="6.73166">
        <ele>1020.7</ele>
        <time>2021-09-18T14:29:59Z</time>
      </trkpt>
      <trkpt lat="43.84812" lon="6.73166">
        <ele>1020.1</ele>
        <time>2021-09-18T14:30:01Z</time>
      </trkpt>
      <trkpt lat="43.84808" lon="6.73166">
        <ele>1019.5</ele>
        <time>2021-09-18T14:30:02Z</time>
      </trkpt>
      <trkpt lat="43.84802" lon="6.73168">
        <ele>1018.4</ele>
        <time>2021-09-18T14:30:04Z</time>
      </trkpt>
      <trkpt lat="43.84798" lon="6.73167">
        <ele>1017.6</ele>
        <time>2021-09-18T14:30:05Z</time>
      </trkpt>
      <trkpt lat="43.84797" lon="6.73167">
        <ele>1017.6</ele>
        <time>2021-09-18T14:30:06Z</time>
      </trkpt>
      <trkpt lat="43.84789" lon="6.73166">
        <ele>1017.5</ele>
        <time>2021-09-18T14:30:08Z</time>
      </trkpt>
      <trkpt lat="43.84779" lon="6.73165">
        <ele>1017.6</ele>
        <time>2021-09-18T14:30:10Z</time>
      </trkpt>
      <trkpt lat="43.8477" lon="6.73165">
        <ele>1017.8</ele>
        <time>2021-09-18T14:30:12Z</time>
      </trkpt>
      <trkpt lat="43.84762" lon="6.73167">
        <ele>1017.9</ele>
        <time>2021-09-18T14:30:14Z</time>
      </trkpt>
      <trkpt lat="43.84758" lon="6.73168">
        <ele>1018</ele>
        <time>2021-09-18T14:30:15Z</time>
      </trkpt>
      <trkpt lat="43.84753" lon="6.73171">
        <ele>1018.1</ele>
        <time>2021-09-18T14:30:17Z</time>
      </trkpt>
      <trkpt lat="43.84748" lon="6.73175">
        <ele>1018.3</ele>
        <time>2021-09-18T14:30:18Z</time>
      </trkpt>
      <trkpt lat="43.84744" lon="6.73177">
        <ele>1018.4</ele>
        <time>2021-09-18T14:30:19Z</time>
      </trkpt>
      <trkpt lat="43.84742" lon="6.73181">
        <ele>1018.5</ele>
        <time>2021-09-18T14:30:21Z</time>
      </trkpt>
      <trkpt lat="43.84739" lon="6.73187">
        <ele>1018.6</ele>
        <time>2021-09-18T14:30:23Z</time>
      </trkpt>
      <trkpt lat="43.84737" lon="6.7319">
        <ele>1018.7</ele>
        <time>2021-09-18T14:30:24Z</time>
      </trkpt>
      <trkpt lat="43.84734" lon="6.73199">
        <ele>1018.8</ele>
        <time>2021-09-18T14:30:26Z</time>
      </trkpt>
      <trkpt lat="43.84732" lon="6.73209">
        <ele>1019</ele>
        <time>2021-09-18T14:30:28Z</time>
      </trkpt>
      <trkpt lat="43.84731" lon="6.73215">
        <ele>1019.1</ele>
        <time>2021-09-18T14:30:30Z</time>
      </trkpt>
      <trkpt lat="43.8473" lon="6.73225">
        <ele>1019.2</ele>
        <time>2021-09-18T14:30:32Z</time>
      </trkpt>
      <trkpt lat="43.84729" lon="6.73233">
        <ele>1019.3</ele>
        <time>2021-09-18T14:30:33Z</time>
      </trkpt>
      <trkpt lat="43.84727" lon="6.73241">
        <ele>1019.4</ele>
        <time>2021-09-18T14:30:35Z</time>
      </trkpt>
      <trkpt lat="43.84726" lon="6.73246">
        <ele>1019.5</ele>
        <time>2021-09-18T14:30:36Z</time>
      </trkpt>
      <trkpt lat="43.84725" lon="6.73251">
        <ele>1019.5</ele>
        <time>2021-09-18T14:30:37Z</time>
      </trkpt>
      <trkpt lat="43.84722" lon="6.73256">
        <ele>1019.6</ele>
        <time>2021-09-18T14:30:38Z</time>
      </trkpt>
      <trkpt lat="43.84719" lon="6.73265">
        <ele>1019.7</ele>
        <time>2021-09-18T14:30:39Z</time>
      </trkpt>
      <trkpt lat="43.84717" lon="6.73275">
        <ele>1019.8</ele>
        <time>2021-09-18T14:30:41Z</time>
      </trkpt>
      <trkpt lat="43.84714" lon="6.73284">
        <ele>1019.9</ele>
        <time>2021-09-18T14:30:43Z</time>
      </trkpt>
      <trkpt lat="43.84712" lon="6.7329">
        <ele>1019.9</ele>
        <time>2021-09-18T14:30:45Z</time>
      </trkpt>
      <trkpt lat="43.8471" lon="6.73294">
        <ele>1020</ele>
        <time>2021-09-18T14:30:46Z</time>
      </trkpt>
      <trkpt lat="43.84707" lon="6.733">
        <ele>1020.1</ele>
        <time>2021-09-18T14:30:48Z</time>
      </trkpt>
      <trkpt lat="43.84703" lon="6.73307">
        <ele>1020.2</ele>
        <time>2021-09-18T14:30:49Z</time>
      </trkpt>
      <trkpt lat="43.84701" lon="6.73312">
        <ele>1020.3</ele>
        <time>2021-09-18T14:30:51Z</time>
      </trkpt>
      <trkpt lat="43.84697" lon="6.73319">
        <ele>1020.4</ele>
        <time>2021-09-18T14:30:52Z</time>
      </trkpt>
      <trkpt lat="43.84694" lon="6.73323">
        <ele>1020.5</ele>
        <time>2021-09-18T14:30:54Z</time>
      </trkpt>
      <trkpt lat="43.84691" lon="6.73327">
        <ele>1020.5</ele>
        <time>2021-09-18T14:30:55Z</time>
      </trkpt>
      <trkpt lat="43.84688" lon="6.73332">
        <ele>1020.6</ele>
        <time>2021-09-18T14:30:57Z</time>
      </trkpt>
      <trkpt lat="43.84686" lon="6.73338">
        <ele>1020.8</ele>
        <time>2021-09-18T14:30:58Z</time>
      </trkpt>
      <trkpt lat="43.84684" lon="6.73343">
        <ele>1020.8</ele>
        <time>2021-09-18T14:30:59Z</time>
      </trkpt>
      <trkpt lat="43.84683" lon="6.73349">
        <ele>1020.9</ele>
        <time>2021-09-18T14:31:01Z</time>
      </trkpt>
      <trkpt lat="43.84681" lon="6.73357">
        <ele>1021.1</ele>
        <time>2021-09-18T14:31:02Z</time>
      </trkpt>
      <trkpt lat="43.84679" lon="6.73366">
        <ele>1021.2</ele>
        <time>2021-09-18T14:31:03Z</time>
      </trkpt>
      <trkpt lat="43.8468" lon="6.73372">
        <ele>1021.3</ele>
        <time>2021-09-18T14:31:05Z</time>
      </trkpt>
      <trkpt lat="43.84681" lon="6.73377">
        <ele>1021.4</ele>
        <time>2021-09-18T14:31:06Z</time>
      </trkpt>
      <trkpt lat="43.84684" lon="6.73386">
        <ele>1021.5</ele>
        <time>2021-09-18T14:31:08Z</time>
      </trkpt>
      <trkpt lat="43.84684" lon="6.7339">
        <ele>1021.5</ele>
        <time>2021-09-18T14:31:09Z</time>
      </trkpt>
      <trkpt lat="43.84682" lon="6.73396">
        <ele>1021.6</ele>
        <time>2021-09-18T14:31:10Z</time>
      </trkpt>
      <trkpt lat="43.84681" lon="6.73398">
        <ele>1021.6</ele>
        <time>2021-09-18T14:31:11Z</time>
      </trkpt>
      <trkpt lat="43.84677" lon="6.73406">
        <ele>1021.7</ele>
        <time>2021-09-18T14:31:13Z</time>
      </trkpt>
      <trkpt lat="43.84675" lon="6.73413">
        <ele>1021.8</ele>
        <time>2021-09-18T14:31:14Z</time>
      </trkpt>
      <trkpt lat="43.84674" lon="6.73418">
        <ele>1021.9</ele>
        <time>2021-09-18T14:31:15Z</time>
      </trkpt>
      <trkpt lat="43.84672" lon="6.73422">
        <ele>1021.9</ele>
        <time>2021-09-18T14:31:17Z</time>
      </trkpt>
      <trkpt lat="43.8467" lon="6.7343">
        <ele>1022</ele>
        <time>2021-09-18T14:31:19Z</time>
      </trkpt>
      <trkpt lat="43.84668" lon="6.73434">
        <ele>1022</ele>
        <time>2021-09-18T14:31:20Z</time>
      </trkpt>
      <trkpt lat="43.84666" lon="6.73443">
        <ele>1022.1</ele>
        <time>2021-09-18T14:31:21Z</time>
      </trkpt>
      <trkpt lat="43.84664" lon="6.73448">
        <ele>1022.1</ele>
        <time>2021-09-18T14:31:23Z</time>
      </trkpt>
      <trkpt lat="43.84662" lon="6.73453">
        <ele>1022.2</ele>
        <time>2021-09-18T14:31:24Z</time>
      </trkpt>
      <trkpt lat="43.84658" lon="6.73459">
        <ele>1022.3</ele>
        <time>2021-09-18T14:31:25Z</time>
      </trkpt>
      <trkpt lat="43.84652" lon="6.73467">
        <ele>1022.5</ele>
        <time>2021-09-18T14:31:27Z</time>
      </trkpt>
      <trkpt lat="43.84648" lon="6.73475">
        <ele>1022.7</ele>
        <time>2021-09-18T14:31:29Z</time>
      </trkpt>
      <trkpt lat="43.84645" lon="6.73482">
        <ele>1022.8</ele>
        <time>2021-09-18T14:31:30Z</time>
      </trkpt>
      <trkpt lat="43.84642" lon="6.73489">
        <ele>1022.9</ele>
        <time>2021-09-18T14:31:32Z</time>
      </trkpt>
      <trkpt lat="43.84641" lon="6.73494">
        <ele>1023</ele>
        <time>2021-09-18T14:31:33Z</time>
      </trkpt>
      <trkpt lat="43.84638" lon="6.73504">
        <ele>1023.2</ele>
        <time>2021-09-18T14:31:35Z</time>
      </trkpt>
      <trkpt lat="43.84635" lon="6.73511">
        <ele>1023.3</ele>
        <time>2021-09-18T14:31:36Z</time>
      </trkpt>
      <trkpt lat="43.84633" lon="6.73519">
        <ele>1023.5</ele>
        <time>2021-09-18T14:31:38Z</time>
      </trkpt>
      <trkpt lat="43.84632" lon="6.73528">
        <ele>1023.6</ele>
        <time>2021-09-18T14:31:40Z</time>
      </trkpt>
      <trkpt lat="43.84632" lon="6.73533">
        <ele>1023.7</ele>
        <time>2021-09-18T14:31:41Z</time>
      </trkpt>
      <trkpt lat="43.84632" lon="6.73539">
        <ele>1023.7</ele>
        <time>2021-09-18T14:31:42Z</time>
      </trkpt>
      <trkpt lat="43.84631" lon="6.73546">
        <ele>1023.8</ele>
        <time>2021-09-18T14:31:44Z</time>
      </trkpt>
      <trkpt lat="43.84631" lon="6.73551">
        <ele>1023.8</ele>
        <time>2021-09-18T14:31:45Z</time>
      </trkpt>
      <trkpt lat="43.84627" lon="6.73561">
        <ele>1023.9</ele>
        <time>2021-09-18T14:31:47Z</time>
      </trkpt>
      <trkpt lat="43.84624" lon="6.73568">
        <ele>1024</ele>
        <time>2021-09-18T14:31:48Z</time>
      </trkpt>
      <trkpt lat="43.8462" lon="6.73575">
        <ele>1024.1</ele>
        <time>2021-09-18T14:31:50Z</time>
      </trkpt>
      <trkpt lat="43.84618" lon="6.73581">
        <ele>1024.1</ele>
        <time>2021-09-18T14:31:51Z</time>
      </trkpt>
      <trkpt lat="43.84617" lon="6.73583">
        <ele>1024.1</ele>
        <time>2021-09-18T14:31:52Z</time>
      </trkpt>
      <trkpt lat="43.84614" lon="6.73589">
        <ele>1024.2</ele>
        <time>2021-09-18T14:31:54Z</time>
      </trkpt>
      <trkpt lat="43.84612" lon="6.73596">
        <ele>1024.3</ele>
        <time>2021-09-18T14:31:56Z</time>
      </trkpt>
      <trkpt lat="43.8461" lon="6.73601">
        <ele>1024.3</ele>
        <time>2021-09-18T14:31:57Z</time>
      </trkpt>
      <trkpt lat="43.84605" lon="6.73611">
        <ele>1024.4</ele>
        <time>2021-09-18T14:31:59Z</time>
      </trkpt>
      <trkpt lat="43.84603" lon="6.73616">
        <ele>1024.5</ele>
        <time>2021-09-18T14:32:00Z</time>
      </trkpt>
      <trkpt lat="43.84599" lon="6.73623">
        <ele>1024.5</ele>
        <time>2021-09-18T14:32:02Z</time>
      </trkpt>
      <trkpt lat="43.84598" lon="6.73632">
        <ele>1024.7</ele>
        <time>2021-09-18T14:32:04Z</time>
      </trkpt>
      <trkpt lat="43.84596" lon="6.73636">
        <ele>1024.7</ele>
        <time>2021-09-18T14:32:05Z</time>
      </trkpt>
      <trkpt lat="43.84594" lon="6.73641">
        <ele>1024.8</ele>
        <time>2021-09-18T14:32:06Z</time>
      </trkpt>
      <trkpt lat="43.84588" lon="6.73648">
        <ele>1024.9</ele>
        <time>2021-09-18T14:32:08Z</time>
      </trkpt>
      <trkpt lat="43.84587" lon="6.73651">
        <ele>1025</ele>
        <time>2021-09-18T14:32:09Z</time>
      </trkpt>
      <trkpt lat="43.84581" lon="6.73658">
        <ele>1025.2</ele>
        <time>2021-09-18T14:32:11Z</time>
      </trkpt>
      <trkpt lat="43.84577" lon="6.73662">
        <ele>1025.2</ele>
        <time>2021-09-18T14:32:12Z</time>
      </trkpt>
      <trkpt lat="43.84575" lon="6.73667">
        <ele>1025.3</ele>
        <time>2021-09-18T14:32:14Z</time>
      </trkpt>
      <trkpt lat="43.84573" lon="6.73674">
        <ele>1025.4</ele>
        <time>2021-09-18T14:32:15Z</time>
      </trkpt>
      <trkpt lat="43.84573" lon="6.73682">
        <ele>1025.6</ele>
        <time>2021-09-18T14:32:18Z</time>
      </trkpt>
      <trkpt lat="43.84571" lon="6.73688">
        <ele>1025.6</ele>
        <time>2021-09-18T14:32:19Z</time>
      </trkpt>
      <trkpt lat="43.84571" lon="6.73691">
        <ele>1025.7</ele>
        <time>2021-09-18T14:32:20Z</time>
      </trkpt>
      <trkpt lat="43.84568" lon="6.73696">
        <ele>1025.7</ele>
        <time>2021-09-18T14:32:22Z</time>
      </trkpt>
      <trkpt lat="43.84564" lon="6.737">
        <ele>1025.8</ele>
        <time>2021-09-18T14:32:23Z</time>
      </trkpt>
      <trkpt lat="43.84557" lon="6.73708">
        <ele>1025.8</ele>
        <time>2021-09-18T14:32:25Z</time>
      </trkpt>
      <trkpt lat="43.84548" lon="6.73718">
        <ele>1025.9</ele>
        <time>2021-09-18T14:32:27Z</time>
      </trkpt>
      <trkpt lat="43.84545" lon="6.73722">
        <ele>1026</ele>
        <time>2021-09-18T14:32:28Z</time>
      </trkpt>
      <trkpt lat="43.84541" lon="6.73724">
        <ele>1026</ele>
        <time>2021-09-18T14:32:29Z</time>
      </trkpt>
      <trkpt lat="43.84538" lon="6.73725">
        <ele>1026</ele>
        <time>2021-09-18T14:32:30Z</time>
      </trkpt>
      <trkpt lat="43.84537" lon="6.73727">
        <ele>1026.1</ele>
        <time>2021-09-18T14:32:32Z</time>
      </trkpt>
      <trkpt lat="43.84534" lon="6.73735">
        <ele>1026.1</ele>
        <time>2021-09-18T14:32:34Z</time>
      </trkpt>
      <trkpt lat="43.84527" lon="6.73746">
        <ele>1026.3</ele>
        <time>2021-09-18T14:32:35Z</time>
      </trkpt>
      <trkpt lat="43.84522" lon="6.73753">
        <ele>1026.4</ele>
        <time>2021-09-18T14:32:37Z</time>
      </trkpt>
      <trkpt lat="43.8452" lon="6.73759">
        <ele>1026.5</ele>
        <time>2021-09-18T14:32:38Z</time>
      </trkpt>
      <trkpt lat="43.84517" lon="6.73766">
        <ele>1026.6</ele>
        <time>2021-09-18T14:32:40Z</time>
      </trkpt>
      <trkpt lat="43.84516" lon="6.73769">
        <ele>1026.6</ele>
        <time>2021-09-18T14:32:41Z</time>
      </trkpt>
      <trkpt lat="43.84517" lon="6.73771">
        <ele>1026.7</ele>
        <time>2021-09-18T14:32:42Z</time>
      </trkpt>
      <trkpt lat="43.84523" lon="6.73771">
        <ele>1026.8</ele>
        <time>2021-09-18T14:32:44Z</time>
      </trkpt>
      <trkpt lat="43.84523" lon="6.73774">
        <ele>1026.9</ele>
        <time>2021-09-18T14:32:45Z</time>
      </trkpt>
      <trkpt lat="43.84522" lon="6.73775">
        <ele>1026.9</ele>
        <time>2021-09-18T14:32:46Z</time>
      </trkpt>
      <trkpt lat="43.84521" lon="6.73777">
        <ele>1026.9</ele>
        <time>2021-09-18T14:32:47Z</time>
      </trkpt>
      <trkpt lat="43.84519" lon="6.73781">
        <ele>1027</ele>
        <time>2021-09-18T14:32:49Z</time>
      </trkpt>
      <trkpt lat="43.84517" lon="6.73783">
        <ele>1027.1</ele>
        <time>2021-09-18T14:32:50Z</time>
      </trkpt>
      <trkpt lat="43.84511" lon="6.73788">
        <ele>1027.3</ele>
        <time>2021-09-18T14:32:52Z</time>
      </trkpt>
      <trkpt lat="43.84504" lon="6.73792">
        <ele>1027.4</ele>
        <time>2021-09-18T14:32:54Z</time>
      </trkpt>
      <trkpt lat="43.84497" lon="6.73797">
        <ele>1027.6</ele>
        <time>2021-09-18T14:32:56Z</time>
      </trkpt>
      <trkpt lat="43.84491" lon="6.73803">
        <ele>1027.8</ele>
        <time>2021-09-18T14:32:58Z</time>
      </trkpt>
      <trkpt lat="43.84489" lon="6.73806">
        <ele>1027.8</ele>
        <time>2021-09-18T14:32:59Z</time>
      </trkpt>
      <trkpt lat="43.84488" lon="6.7381">
        <ele>1027.9</ele>
        <time>2021-09-18T14:33:00Z</time>
      </trkpt>
      <trkpt lat="43.84487" lon="6.73816">
        <ele>1028</ele>
        <time>2021-09-18T14:33:02Z</time>
      </trkpt>
      <trkpt lat="43.84486" lon="6.73822">
        <ele>1028.2</ele>
        <time>2021-09-18T14:33:03Z</time>
      </trkpt>
      <trkpt lat="43.84486" lon="6.73825">
        <ele>1028.3</ele>
        <time>2021-09-18T14:33:04Z</time>
      </trkpt>
      <trkpt lat="43.84484" lon="6.73831">
        <ele>1028.4</ele>
        <time>2021-09-18T14:33:06Z</time>
      </trkpt>
      <trkpt lat="43.84485" lon="6.7384">
        <ele>1028.7</ele>
        <time>2021-09-18T14:33:08Z</time>
      </trkpt>
      <trkpt lat="43.84485" lon="6.73853">
        <ele>1029.2</ele>
        <time>2021-09-18T14:33:10Z</time>
      </trkpt>
      <trkpt lat="43.84485" lon="6.73858">
        <ele>1029.4</ele>
        <time>2021-09-18T14:33:11Z</time>
      </trkpt>
      <trkpt lat="43.84485" lon="6.73864">
        <ele>1029.5</ele>
        <time>2021-09-18T14:33:12Z</time>
      </trkpt>
      <trkpt lat="43.84484" lon="6.73869">
        <ele>1029.7</ele>
        <time>2021-09-18T14:33:13Z</time>
      </trkpt>
      <trkpt lat="43.84484" lon="6.73873">
        <ele>1029.8</ele>
        <time>2021-09-18T14:33:14Z</time>
      </trkpt>
      <trkpt lat="43.84483" lon="6.73877">
        <ele>1029.9</ele>
        <time>2021-09-18T14:33:15Z</time>
      </trkpt>
      <trkpt lat="43.8448" lon="6.7388">
        <ele>1030.3</ele>
        <time>2021-09-18T14:33:17Z</time>
      </trkpt>
      <trkpt lat="43.84476" lon="6.73881">
        <ele>1030.3</ele>
        <time>2021-09-18T14:33:18Z</time>
      </trkpt>
      <trkpt lat="43.84471" lon="6.73878">
        <ele>1030.3</ele>
        <time>2021-09-18T14:33:20Z</time>
      </trkpt>
      <trkpt lat="43.84469" lon="6.73875">
        <ele>1030.3</ele>
        <time>2021-09-18T14:33:21Z</time>
      </trkpt>
      <trkpt lat="43.84468" lon="6.73871">
        <ele>1030.3</ele>
        <time>2021-09-18T14:33:22Z</time>
      </trkpt>
      <trkpt lat="43.84468" lon="6.73865">
        <ele>1030.3</ele>
        <time>2021-09-18T14:33:23Z</time>
      </trkpt>
      <trkpt lat="43.84469" lon="6.7386">
        <ele>1030.2</ele>
        <time>2021-09-18T14:33:24Z</time>
      </trkpt>
      <trkpt lat="43.84471" lon="6.7385">
        <ele>1030.2</ele>
        <time>2021-09-18T14:33:26Z</time>
      </trkpt>
      <trkpt lat="43.84471" lon="6.7384">
        <ele>1030.2</ele>
        <time>2021-09-18T14:33:28Z</time>
      </trkpt>
      <trkpt lat="43.84471" lon="6.7383">
        <ele>1030.2</ele>
        <time>2021-09-18T14:33:30Z</time>
      </trkpt>
      <trkpt lat="43.8447" lon="6.7382">
        <ele>1030.3</ele>
        <time>2021-09-18T14:33:32Z</time>
      </trkpt>
      <trkpt lat="43.84468" lon="6.73809">
        <ele>1030.3</ele>
        <time>2021-09-18T14:33:34Z</time>
      </trkpt>
      <trkpt lat="43.84468" lon="6.73804">
        <ele>1030.3</ele>
        <time>2021-09-18T14:33:35Z</time>
      </trkpt>
      <trkpt lat="43.84467" lon="6.73794">
        <ele>1030.3</ele>
        <time>2021-09-18T14:33:37Z</time>
      </trkpt>
      <trkpt lat="43.84466" lon="6.73785">
        <ele>1030.3</ele>
        <time>2021-09-18T14:33:39Z</time>
      </trkpt>
      <trkpt lat="43.84465" lon="6.73781">
        <ele>1030.4</ele>
        <time>2021-09-18T14:33:40Z</time>
      </trkpt>
      <trkpt lat="43.84464" lon="6.73776">
        <ele>1030.4</ele>
        <time>2021-09-18T14:33:41Z</time>
      </trkpt>
      <trkpt lat="43.84463" lon="6.73772">
        <ele>1030.4</ele>
        <time>2021-09-18T14:33:42Z</time>
      </trkpt>
      <trkpt lat="43.84462" lon="6.73762">
        <ele>1030.4</ele>
        <time>2021-09-18T14:33:43Z</time>
      </trkpt>
      <trkpt lat="43.84461" lon="6.73758">
        <ele>1030.4</ele>
        <time>2021-09-18T14:33:44Z</time>
      </trkpt>
      <trkpt lat="43.84461" lon="6.73753">
        <ele>1030.4</ele>
        <time>2021-09-18T14:33:45Z</time>
      </trkpt>
      <trkpt lat="43.84461" lon="6.73749">
        <ele>1030.3</ele>
        <time>2021-09-18T14:33:46Z</time>
      </trkpt>
      <trkpt lat="43.84461" lon="6.73744">
        <ele>1030.3</ele>
        <time>2021-09-18T14:33:47Z</time>
      </trkpt>
      <trkpt lat="43.8446" lon="6.73739">
        <ele>1030.2</ele>
        <time>2021-09-18T14:33:48Z</time>
      </trkpt>
      <trkpt lat="43.8446" lon="6.73735">
        <ele>1030.2</ele>
        <time>2021-09-18T14:33:49Z</time>
      </trkpt>
      <trkpt lat="43.84459" lon="6.73727">
        <ele>1030.2</ele>
        <time>2021-09-18T14:33:50Z</time>
      </trkpt>
      <trkpt lat="43.84458" lon="6.73721">
        <ele>1030.2</ele>
        <time>2021-09-18T14:33:52Z</time>
      </trkpt>
      <trkpt lat="43.84458" lon="6.73713">
        <ele>1030.3</ele>
        <time>2021-09-18T14:33:53Z</time>
      </trkpt>
      <trkpt lat="43.8446" lon="6.73706">
        <ele>1030.4</ele>
        <time>2021-09-18T14:33:55Z</time>
      </trkpt>
      <trkpt lat="43.84462" lon="6.73699">
        <ele>1030.5</ele>
        <time>2021-09-18T14:33:56Z</time>
      </trkpt>
      <trkpt lat="43.84464" lon="6.73694">
        <ele>1030.6</ele>
        <time>2021-09-18T14:33:57Z</time>
      </trkpt>
      <trkpt lat="43.84468" lon="6.73688">
        <ele>1030.7</ele>
        <time>2021-09-18T14:33:59Z</time>
      </trkpt>
      <trkpt lat="43.8447" lon="6.73685">
        <ele>1030.8</ele>
        <time>2021-09-18T14:34:00Z</time>
      </trkpt>
      <trkpt lat="43.84471" lon="6.73682">
        <ele>1030.9</ele>
        <time>2021-09-18T14:34:01Z</time>
      </trkpt>
      <trkpt lat="43.84473" lon="6.73679">
        <ele>1031</ele>
        <time>2021-09-18T14:34:02Z</time>
      </trkpt>
      <trkpt lat="43.84474" lon="6.73675">
        <ele>1031.1</ele>
        <time>2021-09-18T14:34:04Z</time>
      </trkpt>
      <trkpt lat="43.84474" lon="6.7367">
        <ele>1031.2</ele>
        <time>2021-09-18T14:34:05Z</time>
      </trkpt>
      <trkpt lat="43.84473" lon="6.73667">
        <ele>1031.2</ele>
        <time>2021-09-18T14:34:06Z</time>
      </trkpt>
      <trkpt lat="43.84473" lon="6.73663">
        <ele>1031.3</ele>
        <time>2021-09-18T14:34:07Z</time>
      </trkpt>
      <trkpt lat="43.84473" lon="6.73657">
        <ele>1031.4</ele>
        <time>2021-09-18T14:34:09Z</time>
      </trkpt>
      <trkpt lat="43.84473" lon="6.73652">
        <ele>1031.6</ele>
        <time>2021-09-18T14:34:10Z</time>
      </trkpt>
      <trkpt lat="43.84473" lon="6.73648">
        <ele>1031.7</ele>
        <time>2021-09-18T14:34:11Z</time>
      </trkpt>
      <trkpt lat="43.84474" lon="6.73641">
        <ele>1031.8</ele>
        <time>2021-09-18T14:34:13Z</time>
      </trkpt>
      <trkpt lat="43.84474" lon="6.73634">
        <ele>1032</ele>
        <time>2021-09-18T14:34:14Z</time>
      </trkpt>
      <trkpt lat="43.84475" lon="6.73628">
        <ele>1032.1</ele>
        <time>2021-09-18T14:34:15Z</time>
      </trkpt>
      <trkpt lat="43.84476" lon="6.73623">
        <ele>1032.3</ele>
        <time>2021-09-18T14:34:16Z</time>
      </trkpt>
      <trkpt lat="43.84476" lon="6.73618">
        <ele>1032.4</ele>
        <time>2021-09-18T14:34:17Z</time>
      </trkpt>
      <trkpt lat="43.84477" lon="6.73614">
        <ele>1032.5</ele>
        <time>2021-09-18T14:34:19Z</time>
      </trkpt>
      <trkpt lat="43.84477" lon="6.73611">
        <ele>1032.6</ele>
        <time>2021-09-18T14:34:20Z</time>
      </trkpt>
      <trkpt lat="43.84479" lon="6.73602">
        <ele>1032.8</ele>
        <time>2021-09-18T14:34:22Z</time>
      </trkpt>
      <trkpt lat="43.84478" lon="6.73598">
        <ele>1032.9</ele>
        <time>2021-09-18T14:34:23Z</time>
      </trkpt>
      <trkpt lat="43.84478" lon="6.73596">
        <ele>1033</ele>
        <time>2021-09-18T14:34:24Z</time>
      </trkpt>
      <trkpt lat="43.84477" lon="6.73592">
        <ele>1033.1</ele>
        <time>2021-09-18T14:34:25Z</time>
      </trkpt>
      <trkpt lat="43.84477" lon="6.73591">
        <ele>1033.1</ele>
        <time>2021-09-18T14:34:26Z</time>
      </trkpt>
      <trkpt lat="43.84476" lon="6.73586">
        <ele>1033.2</ele>
        <time>2021-09-18T14:34:27Z</time>
      </trkpt>
      <trkpt lat="43.84476" lon="6.73584">
        <ele>1033.2</ele>
        <time>2021-09-18T14:34:28Z</time>
      </trkpt>
      <trkpt lat="43.84476" lon="6.73579">
        <ele>1033.3</ele>
        <time>2021-09-18T14:34:29Z</time>
      </trkpt>
      <trkpt lat="43.84476" lon="6.73577">
        <ele>1033.4</ele>
        <time>2021-09-18T14:34:30Z</time>
      </trkpt>
      <trkpt lat="43.84477" lon="6.73572">
        <ele>1033.5</ele>
        <time>2021-09-18T14:34:32Z</time>
      </trkpt>
      <trkpt lat="43.84479" lon="6.73566">
        <ele>1033.6</ele>
        <time>2021-09-18T14:34:33Z</time>
      </trkpt>
      <trkpt lat="43.84479" lon="6.73558">
        <ele>1033.8</ele>
        <time>2021-09-18T14:34:34Z</time>
      </trkpt>
      <trkpt lat="43.84479" lon="6.73553">
        <ele>1033.9</ele>
        <time>2021-09-18T14:34:35Z</time>
      </trkpt>
      <trkpt lat="43.84478" lon="6.73548">
        <ele>1033.9</ele>
        <time>2021-09-18T14:34:36Z</time>
      </trkpt>
      <trkpt lat="43.84477" lon="6.73544">
        <ele>1034</ele>
        <time>2021-09-18T14:34:37Z</time>
      </trkpt>
      <trkpt lat="43.84475" lon="6.7354">
        <ele>1034.1</ele>
        <time>2021-09-18T14:34:39Z</time>
      </trkpt>
      <trkpt lat="43.84475" lon="6.73533">
        <ele>1034.3</ele>
        <time>2021-09-18T14:34:41Z</time>
      </trkpt>
      <trkpt lat="43.84475" lon="6.73529">
        <ele>1034.3</ele>
        <time>2021-09-18T14:34:42Z</time>
      </trkpt>
      <trkpt lat="43.84478" lon="6.73521">
        <ele>1034.5</ele>
        <time>2021-09-18T14:34:44Z</time>
      </trkpt>
      <trkpt lat="43.8448" lon="6.73516">
        <ele>1034.6</ele>
        <time>2021-09-18T14:34:45Z</time>
      </trkpt>
      <trkpt lat="43.84481" lon="6.73512">
        <ele>1034.7</ele>
        <time>2021-09-18T14:34:46Z</time>
      </trkpt>
      <trkpt lat="43.84482" lon="6.73507">
        <ele>1034.8</ele>
        <time>2021-09-18T14:34:47Z</time>
      </trkpt>
      <trkpt lat="43.84482" lon="6.73505">
        <ele>1034.8</ele>
        <time>2021-09-18T14:34:48Z</time>
      </trkpt>
      <trkpt lat="43.84484" lon="6.73498">
        <ele>1035</ele>
        <time>2021-09-18T14:34:50Z</time>
      </trkpt>
      <trkpt lat="43.84484" lon="6.73494">
        <ele>1035.1</ele>
        <time>2021-09-18T14:34:51Z</time>
      </trkpt>
      <trkpt lat="43.84485" lon="6.7349">
        <ele>1035.1</ele>
        <time>2021-09-18T14:34:52Z</time>
      </trkpt>
      <trkpt lat="43.84485" lon="6.73482">
        <ele>1035.2</ele>
        <time>2021-09-18T14:34:54Z</time>
      </trkpt>
      <trkpt lat="43.84484" lon="6.73478">
        <ele>1035.3</ele>
        <time>2021-09-18T14:34:55Z</time>
      </trkpt>
      <trkpt lat="43.84483" lon="6.73472">
        <ele>1035.3</ele>
        <time>2021-09-18T14:34:56Z</time>
      </trkpt>
      <trkpt lat="43.84483" lon="6.73468">
        <ele>1035.4</ele>
        <time>2021-09-18T14:34:57Z</time>
      </trkpt>
      <trkpt lat="43.84482" lon="6.73463">
        <ele>1035.4</ele>
        <time>2021-09-18T14:34:59Z</time>
      </trkpt>
      <trkpt lat="43.84481" lon="6.73459">
        <ele>1035.5</ele>
        <time>2021-09-18T14:35:00Z</time>
      </trkpt>
      <trkpt lat="43.84481" lon="6.73454">
        <ele>1035.5</ele>
        <time>2021-09-18T14:35:01Z</time>
      </trkpt>
      <trkpt lat="43.84481" lon="6.73446">
        <ele>1035.5</ele>
        <time>2021-09-18T14:35:03Z</time>
      </trkpt>
      <trkpt lat="43.84481" lon="6.73442">
        <ele>1035.5</ele>
        <time>2021-09-18T14:35:04Z</time>
      </trkpt>
      <trkpt lat="43.8448" lon="6.73438">
        <ele>1035.5</ele>
        <time>2021-09-18T14:35:05Z</time>
      </trkpt>
      <trkpt lat="43.84479" lon="6.73434">
        <ele>1035.5</ele>
        <time>2021-09-18T14:35:06Z</time>
      </trkpt>
      <trkpt lat="43.8448" lon="6.73427">
        <ele>1035.4</ele>
        <time>2021-09-18T14:35:08Z</time>
      </trkpt>
      <trkpt lat="43.84482" lon="6.73422">
        <ele>1035.4</ele>
        <time>2021-09-18T14:35:09Z</time>
      </trkpt>
      <trkpt lat="43.84485" lon="6.73414">
        <ele>1035.4</ele>
        <time>2021-09-18T14:35:11Z</time>
      </trkpt>
      <trkpt lat="43.84487" lon="6.73408">
        <ele>1035.4</ele>
        <time>2021-09-18T14:35:12Z</time>
      </trkpt>
      <trkpt lat="43.84488" lon="6.73403">
        <ele>1035.4</ele>
        <time>2021-09-18T14:35:13Z</time>
      </trkpt>
      <trkpt lat="43.8449" lon="6.73396">
        <ele>1035.4</ele>
        <time>2021-09-18T14:35:14Z</time>
      </trkpt>
      <trkpt lat="43.8449" lon="6.73389">
        <ele>1035.4</ele>
        <time>2021-09-18T14:35:16Z</time>
      </trkpt>
      <trkpt lat="43.8449" lon="6.73383">
        <ele>1035.4</ele>
        <time>2021-09-18T14:35:17Z</time>
      </trkpt>
      <trkpt lat="43.8449" lon="6.73377">
        <ele>1035.4</ele>
        <time>2021-09-18T14:35:19Z</time>
      </trkpt>
      <trkpt lat="43.84488" lon="6.73371">
        <ele>1035.3</ele>
        <time>2021-09-18T14:35:20Z</time>
      </trkpt>
      <trkpt lat="43.84487" lon="6.73369">
        <ele>1035.3</ele>
        <time>2021-09-18T14:35:21Z</time>
      </trkpt>
      <trkpt lat="43.84485" lon="6.73364">
        <ele>1035.3</ele>
        <time>2021-09-18T14:35:23Z</time>
      </trkpt>
      <trkpt lat="43.84482" lon="6.73358">
        <ele>1035.2</ele>
        <time>2021-09-18T14:35:25Z</time>
      </trkpt>
      <trkpt lat="43.8448" lon="6.73354">
        <ele>1035.2</ele>
        <time>2021-09-18T14:35:26Z</time>
      </trkpt>
      <trkpt lat="43.84478" lon="6.7335">
        <ele>1035.2</ele>
        <time>2021-09-18T14:35:27Z</time>
      </trkpt>
      <trkpt lat="43.84478" lon="6.73343">
        <ele>1035</ele>
        <time>2021-09-18T14:35:29Z</time>
      </trkpt>
      <trkpt lat="43.84479" lon="6.73339">
        <ele>1035</ele>
        <time>2021-09-18T14:35:30Z</time>
      </trkpt>
      <trkpt lat="43.8448" lon="6.73335">
        <ele>1034.9</ele>
        <time>2021-09-18T14:35:31Z</time>
      </trkpt>
      <trkpt lat="43.84485" lon="6.7333">
        <ele>1034.8</ele>
        <time>2021-09-18T14:35:33Z</time>
      </trkpt>
      <trkpt lat="43.84488" lon="6.7333">
        <ele>1034.8</ele>
        <time>2021-09-18T14:35:34Z</time>
      </trkpt>
      <trkpt lat="43.84491" lon="6.7333">
        <ele>1034.8</ele>
        <time>2021-09-18T14:35:35Z</time>
      </trkpt>
      <trkpt lat="43.84497" lon="6.7333">
        <ele>1034.9</ele>
        <time>2021-09-18T14:35:37Z</time>
      </trkpt>
      <trkpt lat="43.845" lon="6.73332">
        <ele>1034.9</ele>
        <time>2021-09-18T14:35:38Z</time>
      </trkpt>
      <trkpt lat="43.84503" lon="6.73335">
        <ele>1035</ele>
        <time>2021-09-18T14:35:39Z</time>
      </trkpt>
      <trkpt lat="43.84505" lon="6.73339">
        <ele>1035</ele>
        <time>2021-09-18T14:35:40Z</time>
      </trkpt>
      <trkpt lat="43.84505" lon="6.73349">
        <ele>1035.1</ele>
        <time>2021-09-18T14:35:42Z</time>
      </trkpt>
      <trkpt lat="43.84505" lon="6.73353">
        <ele>1035.2</ele>
        <time>2021-09-18T14:35:43Z</time>
      </trkpt>
      <trkpt lat="43.84505" lon="6.73355">
        <ele>1035.3</ele>
        <time>2021-09-18T14:35:44Z</time>
      </trkpt>
      <trkpt lat="43.84505" lon="6.7336">
        <ele>1035.3</ele>
        <time>2021-09-18T14:35:45Z</time>
      </trkpt>
      <trkpt lat="43.84507" lon="6.73365">
        <ele>1035.3</ele>
        <time>2021-09-18T14:35:47Z</time>
      </trkpt>
      <trkpt lat="43.84507" lon="6.73369">
        <ele>1035.4</ele>
        <time>2021-09-18T14:35:48Z</time>
      </trkpt>
      <trkpt lat="43.84506" lon="6.73372">
        <ele>1035.4</ele>
        <time>2021-09-18T14:35:49Z</time>
      </trkpt>
      <trkpt lat="43.84506" lon="6.73376">
        <ele>1035.4</ele>
        <time>2021-09-18T14:35:51Z</time>
      </trkpt>
      <trkpt lat="43.84507" lon="6.73381">
        <ele>1035.4</ele>
        <time>2021-09-18T14:35:53Z</time>
      </trkpt>
      <trkpt lat="43.84507" lon="6.73382">
        <ele>1035.4</ele>
        <time>2021-09-18T14:35:54Z</time>
      </trkpt>
      <trkpt lat="43.84507" lon="6.73385">
        <ele>1035.4</ele>
        <time>2021-09-18T14:35:55Z</time>
      </trkpt>
      <trkpt lat="43.84504" lon="6.73393">
        <ele>1035.4</ele>
        <time>2021-09-18T14:35:57Z</time>
      </trkpt>
      <trkpt lat="43.84503" lon="6.73397">
        <ele>1035.4</ele>
        <time>2021-09-18T14:35:58Z</time>
      </trkpt>
      <trkpt lat="43.845" lon="6.73402">
        <ele>1035.4</ele>
        <time>2021-09-18T14:35:59Z</time>
      </trkpt>
      <trkpt lat="43.845" lon="6.73405">
        <ele>1035.4</ele>
        <time>2021-09-18T14:36:00Z</time>
      </trkpt>
      <trkpt lat="43.84499" lon="6.73409">
        <ele>1035.4</ele>
        <time>2021-09-18T14:36:02Z</time>
      </trkpt>
      <trkpt lat="43.84501" lon="6.73415">
        <ele>1035.4</ele>
        <time>2021-09-18T14:36:03Z</time>
      </trkpt>
      <trkpt lat="43.84503" lon="6.73419">
        <ele>1035.4</ele>
        <time>2021-09-18T14:36:05Z</time>
      </trkpt>
      <trkpt lat="43.84505" lon="6.7342">
        <ele>1035.4</ele>
        <time>2021-09-18T14:36:06Z</time>
      </trkpt>
      <trkpt lat="43.84507" lon="6.7342">
        <ele>1035.4</ele>
        <time>2021-09-18T14:36:08Z</time>
      </trkpt>
      <trkpt lat="43.84508" lon="6.73422">
        <ele>1035.4</ele>
        <time>2021-09-18T14:36:09Z</time>
      </trkpt>
      <trkpt lat="43.84508" lon="6.73423">
        <ele>1035.4</ele>
        <time>2021-09-18T14:36:10Z</time>
      </trkpt>
      <trkpt lat="43.84509" lon="6.73423">
        <ele>1035.4</ele>
        <time>2021-09-18T14:36:11Z</time>
      </trkpt>
      <trkpt lat="43.84509" lon="6.73423">
        <ele>1035.4</ele>
        <time>2021-09-18T14:36:13Z</time>
      </trkpt>
      <trkpt lat="43.84509" lon="6.73423">
        <ele>1035.4</ele>
        <time>2021-09-18T14:36:15Z</time>
      </trkpt>
      <trkpt lat="43.84509" lon="6.73423">
        <ele>1035.4</ele>
        <time>2021-09-18T14:36:17Z</time>
      </trkpt>
      <trkpt lat="43.84509" lon="6.73423">
        <ele>1035.4</ele>
        <time>2021-09-18T14:36:19Z</time>
      </trkpt>
      <trkpt lat="43.84481" lon="6.73321">
        <ele>1034.5</ele>
        <time>2021-09-19T07:46:53Z</time>
      </trkpt>
      <trkpt lat="43.84481" lon="6.73321">
        <ele>1034.5</ele>
        <time>2021-09-19T07:46:53Z</time>
      </trkpt>
      <trkpt lat="43.84483" lon="6.73326">
        <ele>1034.7</ele>
        <time>2021-09-19T07:47:01Z</time>
      </trkpt>
      <trkpt lat="43.84487" lon="6.73334">
        <ele>1034.8</ele>
        <time>2021-09-19T07:47:04Z</time>
      </trkpt>
      <trkpt lat="43.84487" lon="6.73332">
        <ele>1034.8</ele>
        <time>2021-09-19T07:47:05Z</time>
      </trkpt>
      <trkpt lat="43.84483" lon="6.73335">
        <ele>1034.9</ele>
        <time>2021-09-19T07:47:07Z</time>
      </trkpt>
      <trkpt lat="43.84483" lon="6.73336">
        <ele>1034.9</ele>
        <time>2021-09-19T07:47:08Z</time>
      </trkpt>
      <trkpt lat="43.84483" lon="6.73338">
        <ele>1035</ele>
        <time>2021-09-19T07:47:10Z</time>
      </trkpt>
      <trkpt lat="43.84483" lon="6.7334">
        <ele>1035</ele>
        <time>2021-09-19T07:47:11Z</time>
      </trkpt>
      <trkpt lat="43.84484" lon="6.73346">
        <ele>1035.1</ele>
        <time>2021-09-19T07:47:13Z</time>
      </trkpt>
      <trkpt lat="43.84484" lon="6.73348">
        <ele>1035.2</ele>
        <time>2021-09-19T07:47:14Z</time>
      </trkpt>
      <trkpt lat="43.84485" lon="6.7335">
        <ele>1035.2</ele>
        <time>2021-09-19T07:47:15Z</time>
      </trkpt>
      <trkpt lat="43.84486" lon="6.7336">
        <ele>1035.3</ele>
        <time>2021-09-19T07:47:17Z</time>
      </trkpt>
      <trkpt lat="43.84486" lon="6.73369">
        <ele>1035.4</ele>
        <time>2021-09-19T07:47:18Z</time>
      </trkpt>
      <trkpt lat="43.84485" lon="6.7338">
        <ele>1035.4</ele>
        <time>2021-09-19T07:47:20Z</time>
      </trkpt>
      <trkpt lat="43.84485" lon="6.7339">
        <ele>1035.4</ele>
        <time>2021-09-19T07:47:21Z</time>
      </trkpt>
      <trkpt lat="43.84485" lon="6.73396">
        <ele>1035.4</ele>
        <time>2021-09-19T07:47:23Z</time>
      </trkpt>
      <trkpt lat="43.84484" lon="6.73401">
        <ele>1035.4</ele>
        <time>2021-09-19T07:47:24Z</time>
      </trkpt>
      <trkpt lat="43.84482" lon="6.73409">
        <ele>1035.4</ele>
        <time>2021-09-19T07:47:25Z</time>
      </trkpt>
      <trkpt lat="43.84481" lon="6.73415">
        <ele>1035.4</ele>
        <time>2021-09-19T07:47:26Z</time>
      </trkpt>
      <trkpt lat="43.8448" lon="6.73419">
        <ele>1035.4</ele>
        <time>2021-09-19T07:47:28Z</time>
      </trkpt>
      <trkpt lat="43.8448" lon="6.73423">
        <ele>1035.4</ele>
        <time>2021-09-19T07:47:29Z</time>
      </trkpt>
      <trkpt lat="43.8448" lon="6.73429">
        <ele>1035.5</ele>
        <time>2021-09-19T07:47:30Z</time>
      </trkpt>
      <trkpt lat="43.8448" lon="6.73431">
        <ele>1035.5</ele>
        <time>2021-09-19T07:47:31Z</time>
      </trkpt>
      <trkpt lat="43.8448" lon="6.73436">
        <ele>1035.5</ele>
        <time>2021-09-19T07:47:32Z</time>
      </trkpt>
      <trkpt lat="43.8448" lon="6.73438">
        <ele>1035.5</ele>
        <time>2021-09-19T07:47:33Z</time>
      </trkpt>
      <trkpt lat="43.8448" lon="6.73442">
        <ele>1035.5</ele>
        <time>2021-09-19T07:47:35Z</time>
      </trkpt>
      <trkpt lat="43.8448" lon="6.73449">
        <ele>1035.5</ele>
        <time>2021-09-19T07:47:37Z</time>
      </trkpt>
      <trkpt lat="43.84479" lon="6.73453">
        <ele>1035.5</ele>
        <time>2021-09-19T07:47:38Z</time>
      </trkpt>
      <trkpt lat="43.84479" lon="6.73463">
        <ele>1035.4</ele>
        <time>2021-09-19T07:47:40Z</time>
      </trkpt>
      <trkpt lat="43.84478" lon="6.73471">
        <ele>1035.3</ele>
        <time>2021-09-19T07:47:41Z</time>
      </trkpt>
      <trkpt lat="43.84477" lon="6.7348">
        <ele>1035.2</ele>
        <time>2021-09-19T07:47:43Z</time>
      </trkpt>
      <trkpt lat="43.84477" lon="6.73485">
        <ele>1035.2</ele>
        <time>2021-09-19T07:47:44Z</time>
      </trkpt>
      <trkpt lat="43.84476" lon="6.7349">
        <ele>1035.1</ele>
        <time>2021-09-19T07:47:45Z</time>
      </trkpt>
      <trkpt lat="43.84475" lon="6.73496">
        <ele>1035</ele>
        <time>2021-09-19T07:47:46Z</time>
      </trkpt>
      <trkpt lat="43.84475" lon="6.73501">
        <ele>1034.9</ele>
        <time>2021-09-19T07:47:47Z</time>
      </trkpt>
      <trkpt lat="43.84475" lon="6.73512">
        <ele>1034.7</ele>
        <time>2021-09-19T07:47:49Z</time>
      </trkpt>
      <trkpt lat="43.84476" lon="6.73517">
        <ele>1034.6</ele>
        <time>2021-09-19T07:47:50Z</time>
      </trkpt>
      <trkpt lat="43.84477" lon="6.73528">
        <ele>1034.3</ele>
        <time>2021-09-19T07:47:52Z</time>
      </trkpt>
      <trkpt lat="43.84476" lon="6.73535">
        <ele>1034.2</ele>
        <time>2021-09-19T07:47:53Z</time>
      </trkpt>
      <trkpt lat="43.84472" lon="6.73543">
        <ele>1034</ele>
        <time>2021-09-19T07:47:54Z</time>
      </trkpt>
      <trkpt lat="43.84471" lon="6.73556">
        <ele>1033.7</ele>
        <time>2021-09-19T07:47:56Z</time>
      </trkpt>
      <trkpt lat="43.84467" lon="6.73562">
        <ele>1033.6</ele>
        <time>2021-09-19T07:47:57Z</time>
      </trkpt>
      <trkpt lat="43.84467" lon="6.73568">
        <ele>1033.5</ele>
        <time>2021-09-19T07:47:58Z</time>
      </trkpt>
      <trkpt lat="43.84468" lon="6.7358">
        <ele>1033.2</ele>
        <time>2021-09-19T07:48:00Z</time>
      </trkpt>
      <trkpt lat="43.84468" lon="6.73586">
        <ele>1033.1</ele>
        <time>2021-09-19T07:48:01Z</time>
      </trkpt>
      <trkpt lat="43.84469" lon="6.73598">
        <ele>1032.8</ele>
        <time>2021-09-19T07:48:03Z</time>
      </trkpt>
      <trkpt lat="43.84468" lon="6.73605">
        <ele>1032.6</ele>
        <time>2021-09-19T07:48:04Z</time>
      </trkpt>
      <trkpt lat="43.84468" lon="6.7362">
        <ele>1032.3</ele>
        <time>2021-09-19T07:48:06Z</time>
      </trkpt>
      <trkpt lat="43.8447" lon="6.73634">
        <ele>1031.9</ele>
        <time>2021-09-19T07:48:08Z</time>
      </trkpt>
      <trkpt lat="43.84471" lon="6.73641">
        <ele>1031.7</ele>
        <time>2021-09-19T07:48:09Z</time>
      </trkpt>
      <trkpt lat="43.84471" lon="6.73649">
        <ele>1031.5</ele>
        <time>2021-09-19T07:48:10Z</time>
      </trkpt>
      <trkpt lat="43.84469" lon="6.73656">
        <ele>1031.4</ele>
        <time>2021-09-19T07:48:11Z</time>
      </trkpt>
      <trkpt lat="43.84466" lon="6.73674">
        <ele>1031</ele>
        <time>2021-09-19T07:48:13Z</time>
      </trkpt>
      <trkpt lat="43.84465" lon="6.73696">
        <ele>1030.5</ele>
        <time>2021-09-19T07:48:15Z</time>
      </trkpt>
      <trkpt lat="43.84463" lon="6.73718">
        <ele>1030.2</ele>
        <time>2021-09-19T07:48:17Z</time>
      </trkpt>
      <trkpt lat="43.84463" lon="6.7373">
        <ele>1030.2</ele>
        <time>2021-09-19T07:48:18Z</time>
      </trkpt>
      <trkpt lat="43.84463" lon="6.73741">
        <ele>1030.2</ele>
        <time>2021-09-19T07:48:19Z</time>
      </trkpt>
      <trkpt lat="43.84464" lon="6.73763">
        <ele>1030.4</ele>
        <time>2021-09-19T07:48:21Z</time>
      </trkpt>
      <trkpt lat="43.84466" lon="6.73773">
        <ele>1030.4</ele>
        <time>2021-09-19T07:48:22Z</time>
      </trkpt>
      <trkpt lat="43.84467" lon="6.73782">
        <ele>1030.4</ele>
        <time>2021-09-19T07:48:23Z</time>
      </trkpt>
      <trkpt lat="43.84469" lon="6.7379">
        <ele>1030.3</ele>
        <time>2021-09-19T07:48:24Z</time>
      </trkpt>
      <trkpt lat="43.8447" lon="6.73798">
        <ele>1030.3</ele>
        <time>2021-09-19T07:48:25Z</time>
      </trkpt>
      <trkpt lat="43.84471" lon="6.73805">
        <ele>1030.3</ele>
        <time>2021-09-19T07:48:26Z</time>
      </trkpt>
      <trkpt lat="43.8447" lon="6.73812">
        <ele>1030.3</ele>
        <time>2021-09-19T07:48:27Z</time>
      </trkpt>
      <trkpt lat="43.84469" lon="6.73828">
        <ele>1030.2</ele>
        <time>2021-09-19T07:48:29Z</time>
      </trkpt>
      <trkpt lat="43.8447" lon="6.73836">
        <ele>1030.2</ele>
        <time>2021-09-19T07:48:30Z</time>
      </trkpt>
      <trkpt lat="43.84471" lon="6.73843">
        <ele>1030.2</ele>
        <time>2021-09-19T07:48:31Z</time>
      </trkpt>
      <trkpt lat="43.84472" lon="6.7385">
        <ele>1030.2</ele>
        <time>2021-09-19T07:48:32Z</time>
      </trkpt>
      <trkpt lat="43.84473" lon="6.73858">
        <ele>1030.2</ele>
        <time>2021-09-19T07:48:33Z</time>
      </trkpt>
      <trkpt lat="43.8447" lon="6.73865">
        <ele>1030.3</ele>
        <time>2021-09-19T07:48:34Z</time>
      </trkpt>
      <trkpt lat="43.84466" lon="6.7388">
        <ele>1030.3</ele>
        <time>2021-09-19T07:48:36Z</time>
      </trkpt>
      <trkpt lat="43.84466" lon="6.73886">
        <ele>1030.3</ele>
        <time>2021-09-19T07:48:37Z</time>
      </trkpt>
      <trkpt lat="43.84464" lon="6.73892">
        <ele>1030.3</ele>
        <time>2021-09-19T07:48:38Z</time>
      </trkpt>
      <trkpt lat="43.84461" lon="6.73903">
        <ele>1030.3</ele>
        <time>2021-09-19T07:48:40Z</time>
      </trkpt>
      <trkpt lat="43.84459" lon="6.73909">
        <ele>1030.3</ele>
        <time>2021-09-19T07:48:41Z</time>
      </trkpt>
      <trkpt lat="43.84456" lon="6.73916">
        <ele>1030.3</ele>
        <time>2021-09-19T07:48:42Z</time>
      </trkpt>
      <trkpt lat="43.84454" lon="6.73923">
        <ele>1030.3</ele>
        <time>2021-09-19T07:48:43Z</time>
      </trkpt>
      <trkpt lat="43.84448" lon="6.73937">
        <ele>1030.3</ele>
        <time>2021-09-19T07:48:45Z</time>
      </trkpt>
      <trkpt lat="43.84442" lon="6.73952">
        <ele>1030.3</ele>
        <time>2021-09-19T07:48:47Z</time>
      </trkpt>
      <trkpt lat="43.84439" lon="6.7396">
        <ele>1030.4</ele>
        <time>2021-09-19T07:48:48Z</time>
      </trkpt>
      <trkpt lat="43.84436" lon="6.73967">
        <ele>1030.4</ele>
        <time>2021-09-19T07:48:49Z</time>
      </trkpt>
      <trkpt lat="43.84434" lon="6.73974">
        <ele>1030.4</ele>
        <time>2021-09-19T07:48:50Z</time>
      </trkpt>
      <trkpt lat="43.84428" lon="6.73987">
        <ele>1030.6</ele>
        <time>2021-09-19T07:48:52Z</time>
      </trkpt>
      <trkpt lat="43.84423" lon="6.74">
        <ele>1030.7</ele>
        <time>2021-09-19T07:48:54Z</time>
      </trkpt>
      <trkpt lat="43.84419" lon="6.74012">
        <ele>1030.9</ele>
        <time>2021-09-19T07:48:56Z</time>
      </trkpt>
      <trkpt lat="43.84418" lon="6.74017">
        <ele>1031</ele>
        <time>2021-09-19T07:48:57Z</time>
      </trkpt>
      <trkpt lat="43.84417" lon="6.74021">
        <ele>1031.1</ele>
        <time>2021-09-19T07:48:58Z</time>
      </trkpt>
      <trkpt lat="43.84414" lon="6.74035">
        <ele>1031.3</ele>
        <time>2021-09-19T07:49:00Z</time>
      </trkpt>
      <trkpt lat="43.84413" lon="6.74041">
        <ele>1031.4</ele>
        <time>2021-09-19T07:49:01Z</time>
      </trkpt>
      <trkpt lat="43.84409" lon="6.74053">
        <ele>1031.6</ele>
        <time>2021-09-19T07:49:03Z</time>
      </trkpt>
      <trkpt lat="43.84407" lon="6.74064">
        <ele>1031.7</ele>
        <time>2021-09-19T07:49:05Z</time>
      </trkpt>
      <trkpt lat="43.84407" lon="6.74072">
        <ele>1031.7</ele>
        <time>2021-09-19T07:49:07Z</time>
      </trkpt>
      <trkpt lat="43.84406" lon="6.74078">
        <ele>1031.7</ele>
        <time>2021-09-19T07:49:08Z</time>
      </trkpt>
      <trkpt lat="43.84402" lon="6.74086">
        <ele>1031.7</ele>
        <time>2021-09-19T07:49:09Z</time>
      </trkpt>
      <trkpt lat="43.84398" lon="6.74097">
        <ele>1031.7</ele>
        <time>2021-09-19T07:49:11Z</time>
      </trkpt>
      <trkpt lat="43.84396" lon="6.74102">
        <ele>1031.8</ele>
        <time>2021-09-19T07:49:12Z</time>
      </trkpt>
      <trkpt lat="43.84394" lon="6.74112">
        <ele>1031.8</ele>
        <time>2021-09-19T07:49:14Z</time>
      </trkpt>
      <trkpt lat="43.84394" lon="6.74126">
        <ele>1031.8</ele>
        <time>2021-09-19T07:49:16Z</time>
      </trkpt>
      <trkpt lat="43.84394" lon="6.74132">
        <ele>1031.9</ele>
        <time>2021-09-19T07:49:17Z</time>
      </trkpt>
      <trkpt lat="43.84393" lon="6.74138">
        <ele>1031.9</ele>
        <time>2021-09-19T07:49:18Z</time>
      </trkpt>
      <trkpt lat="43.84392" lon="6.74145">
        <ele>1031.9</ele>
        <time>2021-09-19T07:49:19Z</time>
      </trkpt>
      <trkpt lat="43.84391" lon="6.74156">
        <ele>1032</ele>
        <time>2021-09-19T07:49:21Z</time>
      </trkpt>
      <trkpt lat="43.8439" lon="6.74164">
        <ele>1032</ele>
        <time>2021-09-19T07:49:22Z</time>
      </trkpt>
      <trkpt lat="43.84389" lon="6.74175">
        <ele>1032.1</ele>
        <time>2021-09-19T07:49:24Z</time>
      </trkpt>
      <trkpt lat="43.8439" lon="6.74175">
        <ele>1032.1</ele>
        <time>2021-09-19T07:49:25Z</time>
      </trkpt>
      <trkpt lat="43.84387" lon="6.74187">
        <ele>1032.1</ele>
        <time>2021-09-19T07:49:27Z</time>
      </trkpt>
      <trkpt lat="43.84385" lon="6.74193">
        <ele>1032.1</ele>
        <time>2021-09-19T07:49:28Z</time>
      </trkpt>
      <trkpt lat="43.84383" lon="6.742">
        <ele>1032.1</ele>
        <time>2021-09-19T07:49:29Z</time>
      </trkpt>
      <trkpt lat="43.84379" lon="6.74211">
        <ele>1032</ele>
        <time>2021-09-19T07:49:31Z</time>
      </trkpt>
      <trkpt lat="43.84375" lon="6.7422">
        <ele>1032.1</ele>
        <time>2021-09-19T07:49:32Z</time>
      </trkpt>
      <trkpt lat="43.84369" lon="6.74229">
        <ele>1032.1</ele>
        <time>2021-09-19T07:49:34Z</time>
      </trkpt>
      <trkpt lat="43.84364" lon="6.74233">
        <ele>1032.1</ele>
        <time>2021-09-19T07:49:36Z</time>
      </trkpt>
      <trkpt lat="43.84359" lon="6.74236">
        <ele>1032.2</ele>
        <time>2021-09-19T07:49:37Z</time>
      </trkpt>
      <trkpt lat="43.84356" lon="6.74241">
        <ele>1032.2</ele>
        <time>2021-09-19T07:49:38Z</time>
      </trkpt>
      <trkpt lat="43.84352" lon="6.74245">
        <ele>1032.3</ele>
        <time>2021-09-19T07:49:39Z</time>
      </trkpt>
      <trkpt lat="43.84349" lon="6.7425">
        <ele>1032.3</ele>
        <time>2021-09-19T07:49:40Z</time>
      </trkpt>
      <trkpt lat="43.84347" lon="6.74253">
        <ele>1032.4</ele>
        <time>2021-09-19T07:49:41Z</time>
      </trkpt>
      <trkpt lat="43.84345" lon="6.74259">
        <ele>1032.5</ele>
        <time>2021-09-19T07:49:42Z</time>
      </trkpt>
      <trkpt lat="43.84342" lon="6.74262">
        <ele>1032.5</ele>
        <time>2021-09-19T07:49:43Z</time>
      </trkpt>
      <trkpt lat="43.8434" lon="6.74266">
        <ele>1032.6</ele>
        <time>2021-09-19T07:49:44Z</time>
      </trkpt>
      <trkpt lat="43.84336" lon="6.74271">
        <ele>1032.7</ele>
        <time>2021-09-19T07:49:46Z</time>
      </trkpt>
      <trkpt lat="43.84332" lon="6.74275">
        <ele>1032.8</ele>
        <time>2021-09-19T07:49:47Z</time>
      </trkpt>
      <trkpt lat="43.84327" lon="6.7428">
        <ele>1033</ele>
        <time>2021-09-19T07:49:49Z</time>
      </trkpt>
      <trkpt lat="43.84325" lon="6.74283">
        <ele>1033.1</ele>
        <time>2021-09-19T07:49:50Z</time>
      </trkpt>
      <trkpt lat="43.84322" lon="6.74285">
        <ele>1033.2</ele>
        <time>2021-09-19T07:49:51Z</time>
      </trkpt>
      <trkpt lat="43.84317" lon="6.74287">
        <ele>1033.3</ele>
        <time>2021-09-19T07:49:52Z</time>
      </trkpt>
      <trkpt lat="43.84314" lon="6.7429">
        <ele>1033.5</ele>
        <time>2021-09-19T07:49:53Z</time>
      </trkpt>
      <trkpt lat="43.84311" lon="6.74293">
        <ele>1033.6</ele>
        <time>2021-09-19T07:49:54Z</time>
      </trkpt>
      <trkpt lat="43.84308" lon="6.74296">
        <ele>1033.7</ele>
        <time>2021-09-19T07:49:55Z</time>
      </trkpt>
      <trkpt lat="43.84305" lon="6.74299">
        <ele>1033.9</ele>
        <time>2021-09-19T07:49:56Z</time>
      </trkpt>
      <trkpt lat="43.84303" lon="6.74302">
        <ele>1034</ele>
        <time>2021-09-19T07:49:57Z</time>
      </trkpt>
      <trkpt lat="43.84301" lon="6.74307">
        <ele>1034.1</ele>
        <time>2021-09-19T07:49:58Z</time>
      </trkpt>
      <trkpt lat="43.84297" lon="6.74311">
        <ele>1034.3</ele>
        <time>2021-09-19T07:50:00Z</time>
      </trkpt>
      <trkpt lat="43.84294" lon="6.74315">
        <ele>1034.4</ele>
        <time>2021-09-19T07:50:01Z</time>
      </trkpt>
      <trkpt lat="43.84292" lon="6.74319">
        <ele>1034.5</ele>
        <time>2021-09-19T07:50:03Z</time>
      </trkpt>
      <trkpt lat="43.84291" lon="6.74324">
        <ele>1034.6</ele>
        <time>2021-09-19T07:50:04Z</time>
      </trkpt>
      <trkpt lat="43.8429" lon="6.7433">
        <ele>1034.8</ele>
        <time>2021-09-19T07:50:05Z</time>
      </trkpt>
      <trkpt lat="43.8429" lon="6.74335">
        <ele>1034.9</ele>
        <time>2021-09-19T07:50:06Z</time>
      </trkpt>
      <trkpt lat="43.84289" lon="6.74339">
        <ele>1035</ele>
        <time>2021-09-19T07:50:07Z</time>
      </trkpt>
      <trkpt lat="43.84287" lon="6.74344">
        <ele>1035.1</ele>
        <time>2021-09-19T07:50:08Z</time>
      </trkpt>
      <trkpt lat="43.84285" lon="6.74347">
        <ele>1035.2</ele>
        <time>2021-09-19T07:50:10Z</time>
      </trkpt>
      <trkpt lat="43.84282" lon="6.74351">
        <ele>1035.3</ele>
        <time>2021-09-19T07:50:11Z</time>
      </trkpt>
      <trkpt lat="43.84279" lon="6.74355">
        <ele>1035.4</ele>
        <time>2021-09-19T07:50:12Z</time>
      </trkpt>
      <trkpt lat="43.84277" lon="6.74359">
        <ele>1035.4</ele>
        <time>2021-09-19T07:50:13Z</time>
      </trkpt>
      <trkpt lat="43.84276" lon="6.74363">
        <ele>1035.5</ele>
        <time>2021-09-19T07:50:15Z</time>
      </trkpt>
      <trkpt lat="43.84273" lon="6.74368">
        <ele>1035.5</ele>
        <time>2021-09-19T07:50:17Z</time>
      </trkpt>
      <trkpt lat="43.8427" lon="6.74372">
        <ele>1035.6</ele>
        <time>2021-09-19T07:50:18Z</time>
      </trkpt>
      <trkpt lat="43.84267" lon="6.74375">
        <ele>1035.6</ele>
        <time>2021-09-19T07:50:19Z</time>
      </trkpt>
      <trkpt lat="43.84262" lon="6.74378">
        <ele>1035.7</ele>
        <time>2021-09-19T07:50:21Z</time>
      </trkpt>
      <trkpt lat="43.84256" lon="6.74381">
        <ele>1035.7</ele>
        <time>2021-09-19T07:50:22Z</time>
      </trkpt>
      <trkpt lat="43.84252" lon="6.74382">
        <ele>1035.7</ele>
        <time>2021-09-19T07:50:23Z</time>
      </trkpt>
      <trkpt lat="43.84247" lon="6.74384">
        <ele>1035.7</ele>
        <time>2021-09-19T07:50:25Z</time>
      </trkpt>
      <trkpt lat="43.8424" lon="6.74384">
        <ele>1035.7</ele>
        <time>2021-09-19T07:50:27Z</time>
      </trkpt>
      <trkpt lat="43.84233" lon="6.74386">
        <ele>1035.7</ele>
        <time>2021-09-19T07:50:28Z</time>
      </trkpt>
      <trkpt lat="43.84229" lon="6.74389">
        <ele>1035.6</ele>
        <time>2021-09-19T07:50:30Z</time>
      </trkpt>
      <trkpt lat="43.84224" lon="6.7439">
        <ele>1035.6</ele>
        <time>2021-09-19T07:50:31Z</time>
      </trkpt>
      <trkpt lat="43.84218" lon="6.7439">
        <ele>1035.6</ele>
        <time>2021-09-19T07:50:33Z</time>
      </trkpt>
      <trkpt lat="43.84214" lon="6.74391">
        <ele>1035.6</ele>
        <time>2021-09-19T07:50:34Z</time>
      </trkpt>
      <trkpt lat="43.84207" lon="6.74394">
        <ele>1035.6</ele>
        <time>2021-09-19T07:50:36Z</time>
      </trkpt>
      <trkpt lat="43.84203" lon="6.74396">
        <ele>1035.6</ele>
        <time>2021-09-19T07:50:37Z</time>
      </trkpt>
      <trkpt lat="43.84198" lon="6.74403">
        <ele>1035.7</ele>
        <time>2021-09-19T07:50:39Z</time>
      </trkpt>
      <trkpt lat="43.84194" lon="6.74405">
        <ele>1035.7</ele>
        <time>2021-09-19T07:50:40Z</time>
      </trkpt>
      <trkpt lat="43.8419" lon="6.74409">
        <ele>1035.8</ele>
        <time>2021-09-19T07:50:41Z</time>
      </trkpt>
      <trkpt lat="43.84186" lon="6.74413">
        <ele>1035.9</ele>
        <time>2021-09-19T07:50:42Z</time>
      </trkpt>
      <trkpt lat="43.84182" lon="6.74416">
        <ele>1036</ele>
        <time>2021-09-19T07:50:43Z</time>
      </trkpt>
      <trkpt lat="43.84179" lon="6.74419">
        <ele>1036</ele>
        <time>2021-09-19T07:50:44Z</time>
      </trkpt>
      <trkpt lat="43.84177" lon="6.7442">
        <ele>1036.1</ele>
        <time>2021-09-19T07:50:45Z</time>
      </trkpt>
      <trkpt lat="43.84174" lon="6.74421">
        <ele>1036.2</ele>
        <time>2021-09-19T07:50:46Z</time>
      </trkpt>
      <trkpt lat="43.8417" lon="6.74422">
        <ele>1036.2</ele>
        <time>2021-09-19T07:50:48Z</time>
      </trkpt>
      <trkpt lat="43.84165" lon="6.74422">
        <ele>1036.4</ele>
        <time>2021-09-19T07:50:50Z</time>
      </trkpt>
      <trkpt lat="43.84162" lon="6.74422">
        <ele>1036.5</ele>
        <time>2021-09-19T07:50:51Z</time>
      </trkpt>
      <trkpt lat="43.84159" lon="6.74423">
        <ele>1036.5</ele>
        <time>2021-09-19T07:50:52Z</time>
      </trkpt>
      <trkpt lat="43.84153" lon="6.74426">
        <ele>1036.7</ele>
        <time>2021-09-19T07:50:53Z</time>
      </trkpt>
      <trkpt lat="43.84149" lon="6.74427">
        <ele>1036.7</ele>
        <time>2021-09-19T07:50:54Z</time>
      </trkpt>
      <trkpt lat="43.84146" lon="6.74429">
        <ele>1036.8</ele>
        <time>2021-09-19T07:50:55Z</time>
      </trkpt>
      <trkpt lat="43.84143" lon="6.74429">
        <ele>1036.9</ele>
        <time>2021-09-19T07:50:56Z</time>
      </trkpt>
      <trkpt lat="43.84139" lon="6.74431">
        <ele>1037</ele>
        <time>2021-09-19T07:50:57Z</time>
      </trkpt>
      <trkpt lat="43.84135" lon="6.74434">
        <ele>1037.1</ele>
        <time>2021-09-19T07:50:59Z</time>
      </trkpt>
      <trkpt lat="43.8413" lon="6.74439">
        <ele>1037.3</ele>
        <time>2021-09-19T07:51:01Z</time>
      </trkpt>
      <trkpt lat="43.84128" lon="6.74441">
        <ele>1037.3</ele>
        <time>2021-09-19T07:51:02Z</time>
      </trkpt>
      <trkpt lat="43.84122" lon="6.74443">
        <ele>1037.5</ele>
        <time>2021-09-19T07:51:04Z</time>
      </trkpt>
      <trkpt lat="43.84118" lon="6.74446">
        <ele>1037.6</ele>
        <time>2021-09-19T07:51:05Z</time>
      </trkpt>
      <trkpt lat="43.84117" lon="6.74447">
        <ele>1037.6</ele>
        <time>2021-09-19T07:51:06Z</time>
      </trkpt>
      <trkpt lat="43.84113" lon="6.74451">
        <ele>1037.8</ele>
        <time>2021-09-19T07:51:07Z</time>
      </trkpt>
      <trkpt lat="43.84112" lon="6.74453">
        <ele>1037.8</ele>
        <time>2021-09-19T07:51:08Z</time>
      </trkpt>
      <trkpt lat="43.84109" lon="6.74455">
        <ele>1037.9</ele>
        <time>2021-09-19T07:51:09Z</time>
      </trkpt>
      <trkpt lat="43.84106" lon="6.74458">
        <ele>1038</ele>
        <time>2021-09-19T07:51:11Z</time>
      </trkpt>
      <trkpt lat="43.84105" lon="6.74459">
        <ele>1038</ele>
        <time>2021-09-19T07:51:12Z</time>
      </trkpt>
      <trkpt lat="43.84103" lon="6.74463">
        <ele>1038.1</ele>
        <time>2021-09-19T07:51:14Z</time>
      </trkpt>
      <trkpt lat="43.841" lon="6.74467">
        <ele>1038.2</ele>
        <time>2021-09-19T07:51:15Z</time>
      </trkpt>
      <trkpt lat="43.84097" lon="6.74469">
        <ele>1038.2</ele>
        <time>2021-09-19T07:51:16Z</time>
      </trkpt>
      <trkpt lat="43.84094" lon="6.7447">
        <ele>1038.3</ele>
        <time>2021-09-19T07:51:17Z</time>
      </trkpt>
      <trkpt lat="43.84091" lon="6.74471">
        <ele>1038.4</ele>
        <time>2021-09-19T07:51:18Z</time>
      </trkpt>
      <trkpt lat="43.84088" lon="6.74473">
        <ele>1038.4</ele>
        <time>2021-09-19T07:51:19Z</time>
      </trkpt>
      <trkpt lat="43.84084" lon="6.74476">
        <ele>1038.5</ele>
        <time>2021-09-19T07:51:21Z</time>
      </trkpt>
      <trkpt lat="43.84082" lon="6.74479">
        <ele>1038.5</ele>
        <time>2021-09-19T07:51:22Z</time>
      </trkpt>
      <trkpt lat="43.84078" lon="6.74481">
        <ele>1038.5</ele>
        <time>2021-09-19T07:51:23Z</time>
      </trkpt>
      <trkpt lat="43.84073" lon="6.74485">
        <ele>1038.6</ele>
        <time>2021-09-19T07:51:24Z</time>
      </trkpt>
      <trkpt lat="43.84069" lon="6.7449">
        <ele>1038.7</ele>
        <time>2021-09-19T07:51:26Z</time>
      </trkpt>
      <trkpt lat="43.84064" lon="6.74494">
        <ele>1038.7</ele>
        <time>2021-09-19T07:51:27Z</time>
      </trkpt>
      <trkpt lat="43.84058" lon="6.74497">
        <ele>1038.8</ele>
        <time>2021-09-19T07:51:29Z</time>
      </trkpt>
      <trkpt lat="43.84052" lon="6.74499">
        <ele>1038.9</ele>
        <time>2021-09-19T07:51:30Z</time>
      </trkpt>
      <trkpt lat="43.84048" lon="6.74501">
        <ele>1038.9</ele>
        <time>2021-09-19T07:51:32Z</time>
      </trkpt>
      <trkpt lat="43.84043" lon="6.74502">
        <ele>1039</ele>
        <time>2021-09-19T07:51:33Z</time>
      </trkpt>
      <trkpt lat="43.8404" lon="6.74504">
        <ele>1039.1</ele>
        <time>2021-09-19T07:51:34Z</time>
      </trkpt>
      <trkpt lat="43.84036" lon="6.74505">
        <ele>1039.1</ele>
        <time>2021-09-19T07:51:35Z</time>
      </trkpt>
      <trkpt lat="43.84032" lon="6.74506">
        <ele>1039.2</ele>
        <time>2021-09-19T07:51:37Z</time>
      </trkpt>
      <trkpt lat="43.84028" lon="6.74506">
        <ele>1039.2</ele>
        <time>2021-09-19T07:51:38Z</time>
      </trkpt>
      <trkpt lat="43.84024" lon="6.74507">
        <ele>1039.3</ele>
        <time>2021-09-19T07:51:39Z</time>
      </trkpt>
      <trkpt lat="43.84018" lon="6.74509">
        <ele>1039.4</ele>
        <time>2021-09-19T07:51:40Z</time>
      </trkpt>
      <trkpt lat="43.84014" lon="6.74509">
        <ele>1039.5</ele>
        <time>2021-09-19T07:51:41Z</time>
      </trkpt>
      <trkpt lat="43.8401" lon="6.7451">
        <ele>1039.6</ele>
        <time>2021-09-19T07:51:42Z</time>
      </trkpt>
      <trkpt lat="43.84005" lon="6.74512">
        <ele>1039.7</ele>
        <time>2021-09-19T07:51:44Z</time>
      </trkpt>
      <trkpt lat="43.84001" lon="6.74513">
        <ele>1039.8</ele>
        <time>2021-09-19T07:51:45Z</time>
      </trkpt>
      <trkpt lat="43.83998" lon="6.74513">
        <ele>1039.8</ele>
        <time>2021-09-19T07:51:46Z</time>
      </trkpt>
      <trkpt lat="43.83995" lon="6.74514">
        <ele>1039.9</ele>
        <time>2021-09-19T07:51:47Z</time>
      </trkpt>
      <trkpt lat="43.83989" lon="6.74515">
        <ele>1040.1</ele>
        <time>2021-09-19T07:51:48Z</time>
      </trkpt>
      <trkpt lat="43.83985" lon="6.74516">
        <ele>1040.2</ele>
        <time>2021-09-19T07:51:49Z</time>
      </trkpt>
      <trkpt lat="43.83982" lon="6.74517">
        <ele>1040.4</ele>
        <time>2021-09-19T07:51:50Z</time>
      </trkpt>
      <trkpt lat="43.83976" lon="6.74518">
        <ele>1040.7</ele>
        <time>2021-09-19T07:51:52Z</time>
      </trkpt>
      <trkpt lat="43.83974" lon="6.74519">
        <ele>1040.8</ele>
        <time>2021-09-19T07:51:53Z</time>
      </trkpt>
      <trkpt lat="43.83972" lon="6.7452">
        <ele>1040.9</ele>
        <time>2021-09-19T07:51:54Z</time>
      </trkpt>
      <trkpt lat="43.83968" lon="6.74521">
        <ele>1041.2</ele>
        <time>2021-09-19T07:51:55Z</time>
      </trkpt>
      <trkpt lat="43.83965" lon="6.74523">
        <ele>1041.4</ele>
        <time>2021-09-19T07:51:57Z</time>
      </trkpt>
      <trkpt lat="43.83963" lon="6.74524">
        <ele>1041.5</ele>
        <time>2021-09-19T07:51:58Z</time>
      </trkpt>
      <trkpt lat="43.83962" lon="6.74524">
        <ele>1041.6</ele>
        <time>2021-09-19T07:51:59Z</time>
      </trkpt>
      <trkpt lat="43.8396" lon="6.74525">
        <ele>1041.8</ele>
        <time>2021-09-19T07:52:00Z</time>
      </trkpt>
      <trkpt lat="43.83959" lon="6.74526">
        <ele>1041.9</ele>
        <time>2021-09-19T07:52:01Z</time>
      </trkpt>
      <trkpt lat="43.83958" lon="6.74526">
        <ele>1041.9</ele>
        <time>2021-09-19T07:52:02Z</time>
      </trkpt>
      <trkpt lat="43.83955" lon="6.74527">
        <ele>1042.2</ele>
        <time>2021-09-19T07:52:03Z</time>
      </trkpt>
      <trkpt lat="43.83954" lon="6.74527">
        <ele>1042.2</ele>
        <time>2021-09-19T07:52:04Z</time>
      </trkpt>
      <trkpt lat="43.8395" lon="6.74527">
        <ele>1042.5</ele>
        <time>2021-09-19T07:52:05Z</time>
      </trkpt>
      <trkpt lat="43.83949" lon="6.74527">
        <ele>1042.6</ele>
        <time>2021-09-19T07:52:06Z</time>
      </trkpt>
      <trkpt lat="43.83946" lon="6.74525">
        <ele>1042.9</ele>
        <time>2021-09-19T07:52:07Z</time>
      </trkpt>
      <trkpt lat="43.83942" lon="6.74523">
        <ele>1043.2</ele>
        <time>2021-09-19T07:52:08Z</time>
      </trkpt>
      <trkpt lat="43.83938" lon="6.74522">
        <ele>1043.5</ele>
        <time>2021-09-19T07:52:09Z</time>
      </trkpt>
      <trkpt lat="43.83935" lon="6.74521">
        <ele>1043.7</ele>
        <time>2021-09-19T07:52:10Z</time>
      </trkpt>
      <trkpt lat="43.83932" lon="6.74519">
        <ele>1044</ele>
        <time>2021-09-19T07:52:11Z</time>
      </trkpt>
      <trkpt lat="43.83929" lon="6.74518">
        <ele>1044.2</ele>
        <time>2021-09-19T07:52:12Z</time>
      </trkpt>
      <trkpt lat="43.83927" lon="6.74516">
        <ele>1044.4</ele>
        <time>2021-09-19T07:52:14Z</time>
      </trkpt>
      <trkpt lat="43.83931" lon="6.74518">
        <ele>1044.6</ele>
        <time>2021-09-19T07:52:16Z</time>
      </trkpt>
      <trkpt lat="43.83933" lon="6.74519">
        <ele>1044.8</ele>
        <time>2021-09-19T07:52:18Z</time>
      </trkpt>
      <trkpt lat="43.83933" lon="6.7452">
        <ele>1044.8</ele>
        <time>2021-09-19T07:52:19Z</time>
      </trkpt>
      <trkpt lat="43.83933" lon="6.7452">
        <ele>1044.8</ele>
        <time>2021-09-19T07:52:20Z</time>
      </trkpt>
      <trkpt lat="43.83932" lon="6.7452">
        <ele>1044.9</ele>
        <time>2021-09-19T07:52:22Z</time>
      </trkpt>
      <trkpt lat="43.83917" lon="6.74537">
        <ele>1046.1</ele>
        <time>2021-09-19T07:52:35Z</time>
      </trkpt>
      <trkpt lat="43.83907" lon="6.74541">
        <ele>1046.5</ele>
        <time>2021-09-19T07:52:37Z</time>
      </trkpt>
      <trkpt lat="43.83896" lon="6.74544">
        <ele>1046.9</ele>
        <time>2021-09-19T07:52:39Z</time>
      </trkpt>
      <trkpt lat="43.83889" lon="6.74545">
        <ele>1047</ele>
        <time>2021-09-19T07:52:40Z</time>
      </trkpt>
      <trkpt lat="43.83881" lon="6.74546">
        <ele>1047</ele>
        <time>2021-09-19T07:52:42Z</time>
      </trkpt>
      <trkpt lat="43.83877" lon="6.74545">
        <ele>1047</ele>
        <time>2021-09-19T07:52:43Z</time>
      </trkpt>
      <trkpt lat="43.83874" lon="6.74545">
        <ele>1046.9</ele>
        <time>2021-09-19T07:52:44Z</time>
      </trkpt>
      <trkpt lat="43.83872" lon="6.74544">
        <ele>1046.9</ele>
        <time>2021-09-19T07:52:45Z</time>
      </trkpt>
      <trkpt lat="43.8387" lon="6.74545">
        <ele>1046.9</ele>
        <time>2021-09-19T07:52:47Z</time>
      </trkpt>
      <trkpt lat="43.83868" lon="6.74545">
        <ele>1046.9</ele>
        <time>2021-09-19T07:52:48Z</time>
      </trkpt>
      <trkpt lat="43.83858" lon="6.74542">
        <ele>1046.8</ele>
        <time>2021-09-19T07:52:50Z</time>
      </trkpt>
      <trkpt lat="43.83851" lon="6.74542">
        <ele>1046.7</ele>
        <time>2021-09-19T07:52:51Z</time>
      </trkpt>
      <trkpt lat="43.83838" lon="6.74543">
        <ele>1046.3</ele>
        <time>2021-09-19T07:52:52Z</time>
      </trkpt>
      <trkpt lat="43.83832" lon="6.7454">
        <ele>1046.1</ele>
        <time>2021-09-19T07:52:54Z</time>
      </trkpt>
      <trkpt lat="43.83822" lon="6.74541">
        <ele>1045.7</ele>
        <time>2021-09-19T07:52:56Z</time>
      </trkpt>
      <trkpt lat="43.83817" lon="6.74542">
        <ele>1045.5</ele>
        <time>2021-09-19T07:52:57Z</time>
      </trkpt>
      <trkpt lat="43.83808" lon="6.74543">
        <ele>1045.1</ele>
        <time>2021-09-19T07:52:59Z</time>
      </trkpt>
      <trkpt lat="43.83801" lon="6.74544">
        <ele>1044.7</ele>
        <time>2021-09-19T07:53:00Z</time>
      </trkpt>
      <trkpt lat="43.83795" lon="6.74544">
        <ele>1044.5</ele>
        <time>2021-09-19T07:53:02Z</time>
      </trkpt>
      <trkpt lat="43.83791" lon="6.74541">
        <ele>1044.3</ele>
        <time>2021-09-19T07:53:03Z</time>
      </trkpt>
      <trkpt lat="43.83787" lon="6.74539">
        <ele>1044.1</ele>
        <time>2021-09-19T07:53:05Z</time>
      </trkpt>
      <trkpt lat="43.83788" lon="6.74535">
        <ele>1044</ele>
        <time>2021-09-19T07:53:06Z</time>
      </trkpt>
      <trkpt lat="43.8379" lon="6.74535">
        <ele>1045.5</ele>
        <time>2021-09-19T07:53:08Z</time>
      </trkpt>
      <trkpt lat="43.83791" lon="6.74535">
        <ele>1045.6</ele>
        <time>2021-09-19T07:53:10Z</time>
      </trkpt>
      <trkpt lat="43.83792" lon="6.74536">
        <ele>1045.7</ele>
        <time>2021-09-19T07:53:11Z</time>
      </trkpt>
      <trkpt lat="43.83792" lon="6.74536">
        <ele>1045.7</ele>
        <time>2021-09-19T07:53:12Z</time>
      </trkpt>
      <trkpt lat="43.83793" lon="6.74536">
        <ele>1045.7</ele>
        <time>2021-09-19T07:53:14Z</time>
      </trkpt>
      <trkpt lat="43.83793" lon="6.74536">
        <ele>1045.8</ele>
        <time>2021-09-19T07:53:15Z</time>
      </trkpt>
      <trkpt lat="43.83824" lon="6.74526">
        <ele>1048.9</ele>
        <time>2021-09-19T07:53:26Z</time>
      </trkpt>
      <trkpt lat="43.83828" lon="6.74526">
        <ele>1049.2</ele>
        <time>2021-09-19T07:53:28Z</time>
      </trkpt>
      <trkpt lat="43.83833" lon="6.74528">
        <ele>1049.7</ele>
        <time>2021-09-19T07:53:30Z</time>
      </trkpt>
      <trkpt lat="43.83837" lon="6.74529">
        <ele>1050</ele>
        <time>2021-09-19T07:53:31Z</time>
      </trkpt>
      <trkpt lat="43.83839" lon="6.74529">
        <ele>1050.2</ele>
        <time>2021-09-19T07:53:32Z</time>
      </trkpt>
      <trkpt lat="43.83842" lon="6.7453">
        <ele>1050.5</ele>
        <time>2021-09-19T07:53:33Z</time>
      </trkpt>
      <trkpt lat="43.83846" lon="6.7453">
        <ele>1050.9</ele>
        <time>2021-09-19T07:53:34Z</time>
      </trkpt>
      <trkpt lat="43.83851" lon="6.74531">
        <ele>1051.3</ele>
        <time>2021-09-19T07:53:36Z</time>
      </trkpt>
      <trkpt lat="43.83852" lon="6.7453">
        <ele>1051.4</ele>
        <time>2021-09-19T07:53:38Z</time>
      </trkpt>
      <trkpt lat="43.83853" lon="6.74528">
        <ele>1051.6</ele>
        <time>2021-09-19T07:53:39Z</time>
      </trkpt>
      <trkpt lat="43.83854" lon="6.74528">
        <ele>1051.7</ele>
        <time>2021-09-19T07:53:40Z</time>
      </trkpt>
      <trkpt lat="43.83856" lon="6.74529">
        <ele>1051.9</ele>
        <time>2021-09-19T07:53:42Z</time>
      </trkpt>
      <trkpt lat="43.83859" lon="6.74531">
        <ele>1052.1</ele>
        <time>2021-09-19T07:53:43Z</time>
      </trkpt>
      <trkpt lat="43.83861" lon="6.74533">
        <ele>1052.4</ele>
        <time>2021-09-19T07:53:45Z</time>
      </trkpt>
      <trkpt lat="43.83861" lon="6.74534">
        <ele>1052.4</ele>
        <time>2021-09-19T07:53:46Z</time>
      </trkpt>
      <trkpt lat="43.83875" lon="6.74537">
        <ele>1053.5</ele>
        <time>2021-09-19T07:54:05Z</time>
      </trkpt>
      <trkpt lat="43.83878" lon="6.7454">
        <ele>1053.7</ele>
        <time>2021-09-19T07:54:06Z</time>
      </trkpt>
      <trkpt lat="43.83881" lon="6.74542">
        <ele>1053.9</ele>
        <time>2021-09-19T07:54:08Z</time>
      </trkpt>
      <trkpt lat="43.83883" lon="6.74547">
        <ele>1054.2</ele>
        <time>2021-09-19T07:54:09Z</time>
      </trkpt>
      <trkpt lat="43.83886" lon="6.74554">
        <ele>1054.5</ele>
        <time>2021-09-19T07:54:10Z</time>
      </trkpt>
      <trkpt lat="43.83891" lon="6.74561">
        <ele>1055</ele>
        <time>2021-09-19T07:54:13Z</time>
      </trkpt>
      <trkpt lat="43.83895" lon="6.74567">
        <ele>1055.4</ele>
        <time>2021-09-19T07:54:14Z</time>
      </trkpt>
      <trkpt lat="43.83898" lon="6.74574">
        <ele>1055.8</ele>
        <time>2021-09-19T07:54:16Z</time>
      </trkpt>
      <trkpt lat="43.83899" lon="6.74577">
        <ele>1056</ele>
        <time>2021-09-19T07:54:17Z</time>
      </trkpt>
      <trkpt lat="43.83901" lon="6.7458">
        <ele>1056.2</ele>
        <time>2021-09-19T07:54:19Z</time>
      </trkpt>
      <trkpt lat="43.83903" lon="6.74582">
        <ele>1056.3</ele>
        <time>2021-09-19T07:54:21Z</time>
      </trkpt>
      <trkpt lat="43.83904" lon="6.74582">
        <ele>1056.4</ele>
        <time>2021-09-19T07:54:22Z</time>
      </trkpt>
      <trkpt lat="43.83905" lon="6.74583">
        <ele>1056.5</ele>
        <time>2021-09-19T07:54:24Z</time>
      </trkpt>
      <trkpt lat="43.83906" lon="6.74585">
        <ele>1056.6</ele>
        <time>2021-09-19T07:54:25Z</time>
      </trkpt>
      <trkpt lat="43.83908" lon="6.74587">
        <ele>1056.7</ele>
        <time>2021-09-19T07:54:27Z</time>
      </trkpt>
      <trkpt lat="43.8391" lon="6.74589">
        <ele>1057</ele>
        <time>2021-09-19T07:54:28Z</time>
      </trkpt>
      <trkpt lat="43.83911" lon="6.74591">
        <ele>1057.1</ele>
        <time>2021-09-19T07:54:29Z</time>
      </trkpt>
      <trkpt lat="43.83912" lon="6.74592">
        <ele>1057.2</ele>
        <time>2021-09-19T07:54:30Z</time>
      </trkpt>
      <trkpt lat="43.83912" lon="6.74594">
        <ele>1057.2</ele>
        <time>2021-09-19T07:54:31Z</time>
      </trkpt>
      <trkpt lat="43.83913" lon="6.74598">
        <ele>1057.4</ele>
        <time>2021-09-19T07:54:33Z</time>
      </trkpt>
      <trkpt lat="43.83913" lon="6.74601">
        <ele>1057.6</ele>
        <time>2021-09-19T07:54:34Z</time>
      </trkpt>
      <trkpt lat="43.83913" lon="6.74604">
        <ele>1057.7</ele>
        <time>2021-09-19T07:54:36Z</time>
      </trkpt>
      <trkpt lat="43.83909" lon="6.74612">
        <ele>1058.2</ele>
        <time>2021-09-19T07:54:37Z</time>
      </trkpt>
      <trkpt lat="43.83909" lon="6.74614">
        <ele>1058.3</ele>
        <time>2021-09-19T07:54:39Z</time>
      </trkpt>
      <trkpt lat="43.83907" lon="6.74616">
        <ele>1058.4</ele>
        <time>2021-09-19T07:54:40Z</time>
      </trkpt>
      <trkpt lat="43.83907" lon="6.74617">
        <ele>1058.5</ele>
        <time>2021-09-19T07:54:41Z</time>
      </trkpt>
      <trkpt lat="43.83906" lon="6.74618">
        <ele>1058.6</ele>
        <time>2021-09-19T07:54:43Z</time>
      </trkpt>
      <trkpt lat="43.83905" lon="6.7462">
        <ele>1058.7</ele>
        <time>2021-09-19T07:54:45Z</time>
      </trkpt>
      <trkpt lat="43.83895" lon="6.74664">
        <ele>1061.1</ele>
        <time>2021-09-19T07:55:34Z</time>
      </trkpt>
      <trkpt lat="43.83891" lon="6.74667">
        <ele>1061.5</ele>
        <time>2021-09-19T07:55:36Z</time>
      </trkpt>
      <trkpt lat="43.83887" lon="6.74669">
        <ele>1061.9</ele>
        <time>2021-09-19T07:55:37Z</time>
      </trkpt>
      <trkpt lat="43.83885" lon="6.74674">
        <ele>1062.2</ele>
        <time>2021-09-19T07:55:39Z</time>
      </trkpt>
      <trkpt lat="43.83884" lon="6.74676">
        <ele>1062.4</ele>
        <time>2021-09-19T07:55:40Z</time>
      </trkpt>
      <trkpt lat="43.83884" lon="6.74677">
        <ele>1062.5</ele>
        <time>2021-09-19T07:55:41Z</time>
      </trkpt>
      <trkpt lat="43.83883" lon="6.74679">
        <ele>1062.6</ele>
        <time>2021-09-19T07:55:43Z</time>
      </trkpt>
      <trkpt lat="43.83883" lon="6.74681">
        <ele>1062.7</ele>
        <time>2021-09-19T07:55:44Z</time>
      </trkpt>
      <trkpt lat="43.83885" lon="6.74683">
        <ele>1063</ele>
        <time>2021-09-19T07:55:45Z</time>
      </trkpt>
      <trkpt lat="43.83886" lon="6.74685">
        <ele>1063.1</ele>
        <time>2021-09-19T07:55:46Z</time>
      </trkpt>
      <trkpt lat="43.83891" lon="6.7469">
        <ele>1063.6</ele>
        <time>2021-09-19T07:55:48Z</time>
      </trkpt>
      <trkpt lat="43.83907" lon="6.74695">
        <ele>1064.8</ele>
        <time>2021-09-19T07:55:49Z</time>
      </trkpt>
      <trkpt lat="43.8391" lon="6.74697">
        <ele>1065.1</ele>
        <time>2021-09-19T07:55:51Z</time>
      </trkpt>
      <trkpt lat="43.83911" lon="6.747">
        <ele>1065.3</ele>
        <time>2021-09-19T07:55:52Z</time>
      </trkpt>
      <trkpt lat="43.83912" lon="6.74701">
        <ele>1065.4</ele>
        <time>2021-09-19T07:55:53Z</time>
      </trkpt>
      <trkpt lat="43.83913" lon="6.74706">
        <ele>1065.7</ele>
        <time>2021-09-19T07:55:55Z</time>
      </trkpt>
      <trkpt lat="43.83913" lon="6.74708">
        <ele>1065.8</ele>
        <time>2021-09-19T07:55:56Z</time>
      </trkpt>
      <trkpt lat="43.83912" lon="6.74713">
        <ele>1066.1</ele>
        <time>2021-09-19T07:55:58Z</time>
      </trkpt>
      <trkpt lat="43.83912" lon="6.74713">
        <ele>1066.1</ele>
        <time>2021-09-19T07:55:59Z</time>
      </trkpt>
      <trkpt lat="43.83914" lon="6.74716">
        <ele>1066.3</ele>
        <time>2021-09-19T07:56:02Z</time>
      </trkpt>
      <trkpt lat="43.83914" lon="6.74716">
        <ele>1066.4</ele>
        <time>2021-09-19T07:56:03Z</time>
      </trkpt>
      <trkpt lat="43.83915" lon="6.74716">
        <ele>1066.4</ele>
        <time>2021-09-19T07:56:04Z</time>
      </trkpt>
      <trkpt lat="43.83915" lon="6.74717">
        <ele>1066.4</ele>
        <time>2021-09-19T07:56:05Z</time>
      </trkpt>
      <trkpt lat="43.83915" lon="6.74717">
        <ele>1066.4</ele>
        <time>2021-09-19T07:56:06Z</time>
      </trkpt>
      <trkpt lat="43.83947" lon="6.74853">
        <ele>1074.2</ele>
        <time>2021-09-19T07:57:06Z</time>
      </trkpt>
      <trkpt lat="43.83948" lon="6.74857">
        <ele>1074.5</ele>
        <time>2021-09-19T07:57:08Z</time>
      </trkpt>
      <trkpt lat="43.83946" lon="6.74861">
        <ele>1074.7</ele>
        <time>2021-09-19T07:57:09Z</time>
      </trkpt>
      <trkpt lat="43.83941" lon="6.74865">
        <ele>1075.1</ele>
        <time>2021-09-19T07:57:10Z</time>
      </trkpt>
      <trkpt lat="43.83938" lon="6.74867">
        <ele>1075.4</ele>
        <time>2021-09-19T07:57:11Z</time>
      </trkpt>
      <trkpt lat="43.83935" lon="6.74869">
        <ele>1075.7</ele>
        <time>2021-09-19T07:57:13Z</time>
      </trkpt>
      <trkpt lat="43.83935" lon="6.74869">
        <ele>1075.8</ele>
        <time>2021-09-19T07:57:14Z</time>
      </trkpt>
      <trkpt lat="43.83933" lon="6.7487">
        <ele>1075.9</ele>
        <time>2021-09-19T07:57:15Z</time>
      </trkpt>
      <trkpt lat="43.83932" lon="6.74871">
        <ele>1076</ele>
        <time>2021-09-19T07:57:16Z</time>
      </trkpt>
      <trkpt lat="43.83931" lon="6.74872">
        <ele>1076.1</ele>
        <time>2021-09-19T07:57:18Z</time>
      </trkpt>
      <trkpt lat="43.84021" lon="6.75087">
        <ele>1089.8</ele>
        <time>2021-09-19T07:58:55Z</time>
      </trkpt>
      <trkpt lat="43.84024" lon="6.7509">
        <ele>1090</ele>
        <time>2021-09-19T07:58:56Z</time>
      </trkpt>
      <trkpt lat="43.84025" lon="6.75092">
        <ele>1090.1</ele>
        <time>2021-09-19T07:58:57Z</time>
      </trkpt>
      <trkpt lat="43.84026" lon="6.75096">
        <ele>1090.3</ele>
        <time>2021-09-19T07:58:58Z</time>
      </trkpt>
      <trkpt lat="43.84028" lon="6.75099">
        <ele>1090.6</ele>
        <time>2021-09-19T07:58:59Z</time>
      </trkpt>
      <trkpt lat="43.84028" lon="6.75106">
        <ele>1090.9</ele>
        <time>2021-09-19T07:59:01Z</time>
      </trkpt>
      <trkpt lat="43.84028" lon="6.75109">
        <ele>1091.1</ele>
        <time>2021-09-19T07:59:02Z</time>
      </trkpt>
      <trkpt lat="43.84028" lon="6.75111">
        <ele>1091.2</ele>
        <time>2021-09-19T07:59:03Z</time>
      </trkpt>
      <trkpt lat="43.84026" lon="6.75114">
        <ele>1091.4</ele>
        <time>2021-09-19T07:59:04Z</time>
      </trkpt>
      <trkpt lat="43.84023" lon="6.75119">
        <ele>1091.8</ele>
        <time>2021-09-19T07:59:05Z</time>
      </trkpt>
      <trkpt lat="43.84019" lon="6.7512">
        <ele>1092.2</ele>
        <time>2021-09-19T07:59:07Z</time>
      </trkpt>
      <trkpt lat="43.84014" lon="6.7512">
        <ele>1092.7</ele>
        <time>2021-09-19T07:59:08Z</time>
      </trkpt>
      <trkpt lat="43.84005" lon="6.75117">
        <ele>1093.6</ele>
        <time>2021-09-19T07:59:09Z</time>
      </trkpt>
      <trkpt lat="43.83997" lon="6.75115">
        <ele>1094.5</ele>
        <time>2021-09-19T07:59:11Z</time>
      </trkpt>
      <trkpt lat="43.83992" lon="6.75119">
        <ele>1095.1</ele>
        <time>2021-09-19T07:59:13Z</time>
      </trkpt>
      <trkpt lat="43.83989" lon="6.75121">
        <ele>1095.5</ele>
        <time>2021-09-19T07:59:14Z</time>
      </trkpt>
      <trkpt lat="43.83987" lon="6.75123">
        <ele>1095.7</ele>
        <time>2021-09-19T07:59:16Z</time>
      </trkpt>
      <trkpt lat="43.83987" lon="6.75124">
        <ele>1095.8</ele>
        <time>2021-09-19T07:59:17Z</time>
      </trkpt>
      <trkpt lat="43.83988" lon="6.75126">
        <ele>1096</ele>
        <time>2021-09-19T07:59:18Z</time>
      </trkpt>
      <trkpt lat="43.83987" lon="6.75128">
        <ele>1096.1</ele>
        <time>2021-09-19T07:59:19Z</time>
      </trkpt>
      <trkpt lat="43.83988" lon="6.75128">
        <ele>1096.1</ele>
        <time>2021-09-19T07:59:20Z</time>
      </trkpt>
      <trkpt lat="43.83988" lon="6.75129">
        <ele>1096.2</ele>
        <time>2021-09-19T07:59:21Z</time>
      </trkpt>
      <trkpt lat="43.83989" lon="6.7513">
        <ele>1096.3</ele>
        <time>2021-09-19T07:59:22Z</time>
      </trkpt>
      <trkpt lat="43.83989" lon="6.75131">
        <ele>1096.4</ele>
        <time>2021-09-19T07:59:24Z</time>
      </trkpt>
      <trkpt lat="43.8399" lon="6.75132">
        <ele>1096.5</ele>
        <time>2021-09-19T07:59:25Z</time>
      </trkpt>
      <trkpt lat="43.83991" lon="6.75133">
        <ele>1096.6</ele>
        <time>2021-09-19T07:59:26Z</time>
      </trkpt>
      <trkpt lat="43.83993" lon="6.75136">
        <ele>1096.9</ele>
        <time>2021-09-19T07:59:28Z</time>
      </trkpt>
      <trkpt lat="43.83993" lon="6.75136">
        <ele>1096.9</ele>
        <time>2021-09-19T07:59:28Z</time>
      </trkpt>
      <trkpt lat="43.83995" lon="6.75137">
        <ele>1097</ele>
        <time>2021-09-19T07:59:29Z</time>
      </trkpt>
      <trkpt lat="43.83997" lon="6.75138">
        <ele>1097.2</ele>
        <time>2021-09-19T07:59:31Z</time>
      </trkpt>
      <trkpt lat="43.83998" lon="6.75137">
        <ele>1097.3</ele>
        <time>2021-09-19T07:59:32Z</time>
      </trkpt>
      <trkpt lat="43.83999" lon="6.75137">
        <ele>1097.4</ele>
        <time>2021-09-19T07:59:33Z</time>
      </trkpt>
      <trkpt lat="43.84" lon="6.75137">
        <ele>1097.4</ele>
        <time>2021-09-19T07:59:34Z</time>
      </trkpt>
      <trkpt lat="43.84" lon="6.75137">
        <ele>1097.5</ele>
        <time>2021-09-19T07:59:35Z</time>
      </trkpt>
      <trkpt lat="43.84001" lon="6.75137">
        <ele>1097.5</ele>
        <time>2021-09-19T07:59:36Z</time>
      </trkpt>
      <trkpt lat="43.84002" lon="6.75136">
        <ele>1097.6</ele>
        <time>2021-09-19T07:59:38Z</time>
      </trkpt>
      <trkpt lat="43.84003" lon="6.75136">
        <ele>1097.7</ele>
        <time>2021-09-19T07:59:39Z</time>
      </trkpt>
      <trkpt lat="43.84035" lon="6.75134">
        <ele>1099.9</ele>
        <time>2021-09-19T07:59:55Z</time>
      </trkpt>
      <trkpt lat="43.84041" lon="6.75134">
        <ele>1100.3</ele>
        <time>2021-09-19T07:59:56Z</time>
      </trkpt>
      <trkpt lat="43.84045" lon="6.75133">
        <ele>1100.6</ele>
        <time>2021-09-19T07:59:58Z</time>
      </trkpt>
      <trkpt lat="43.84048" lon="6.75135">
        <ele>1100.9</ele>
        <time>2021-09-19T07:59:59Z</time>
      </trkpt>
      <trkpt lat="43.84049" lon="6.75137">
        <ele>1101</ele>
        <time>2021-09-19T08:00:00Z</time>
      </trkpt>
      <trkpt lat="43.8405" lon="6.75141">
        <ele>1101.4</ele>
        <time>2021-09-19T08:00:02Z</time>
      </trkpt>
      <trkpt lat="43.8405" lon="6.75143">
        <ele>1101.5</ele>
        <time>2021-09-19T08:00:03Z</time>
      </trkpt>
      <trkpt lat="43.84051" lon="6.75144">
        <ele>1101.6</ele>
        <time>2021-09-19T08:00:04Z</time>
      </trkpt>
      <trkpt lat="43.84054" lon="6.75148">
        <ele>1102</ele>
        <time>2021-09-19T08:00:06Z</time>
      </trkpt>
      <trkpt lat="43.84054" lon="6.75148">
        <ele>1102</ele>
        <time>2021-09-19T08:00:07Z</time>
      </trkpt>
      <trkpt lat="43.84054" lon="6.75148">
        <ele>1102</ele>
        <time>2021-09-19T08:00:08Z</time>
      </trkpt>
      <trkpt lat="43.84054" lon="6.75149">
        <ele>1102</ele>
        <time>2021-09-19T08:00:09Z</time>
      </trkpt>
      <trkpt lat="43.84054" lon="6.75149">
        <ele>1102.1</ele>
        <time>2021-09-19T08:00:10Z</time>
      </trkpt>
      <trkpt lat="43.84054" lon="6.75149">
        <ele>1102.1</ele>
        <time>2021-09-19T08:00:11Z</time>
      </trkpt>
      <trkpt lat="43.84054" lon="6.75149">
        <ele>1102.1</ele>
        <time>2021-09-19T08:00:12Z</time>
      </trkpt>
      <trkpt lat="43.84039" lon="6.75225">
        <ele>1107</ele>
        <time>2021-09-19T08:00:42Z</time>
      </trkpt>
      <trkpt lat="43.84035" lon="6.75228">
        <ele>1107.3</ele>
        <time>2021-09-19T08:00:43Z</time>
      </trkpt>
      <trkpt lat="43.84032" lon="6.75239">
        <ele>1107.9</ele>
        <time>2021-09-19T08:00:44Z</time>
      </trkpt>
      <trkpt lat="43.84028" lon="6.75248">
        <ele>1108.5</ele>
        <time>2021-09-19T08:00:46Z</time>
      </trkpt>
      <trkpt lat="43.84025" lon="6.75254">
        <ele>1108.9</ele>
        <time>2021-09-19T08:00:48Z</time>
      </trkpt>
      <trkpt lat="43.84024" lon="6.75257">
        <ele>1109.1</ele>
        <time>2021-09-19T08:00:49Z</time>
      </trkpt>
      <trkpt lat="43.84024" lon="6.75258">
        <ele>1109.2</ele>
        <time>2021-09-19T08:00:51Z</time>
      </trkpt>
      <trkpt lat="43.84025" lon="6.75259">
        <ele>1109.3</ele>
        <time>2021-09-19T08:00:52Z</time>
      </trkpt>
      <trkpt lat="43.84026" lon="6.75261">
        <ele>1109.4</ele>
        <time>2021-09-19T08:00:53Z</time>
      </trkpt>
      <trkpt lat="43.84027" lon="6.75262">
        <ele>1109.6</ele>
        <time>2021-09-19T08:00:54Z</time>
      </trkpt>
      <trkpt lat="43.84029" lon="6.75265">
        <ele>1109.8</ele>
        <time>2021-09-19T08:00:56Z</time>
      </trkpt>
      <trkpt lat="43.8403" lon="6.75266">
        <ele>1109.9</ele>
        <time>2021-09-19T08:00:57Z</time>
      </trkpt>
      <trkpt lat="43.8403" lon="6.75269">
        <ele>1110.1</ele>
        <time>2021-09-19T08:00:58Z</time>
      </trkpt>
      <trkpt lat="43.84033" lon="6.75284">
        <ele>1111</ele>
        <time>2021-09-19T08:01:00Z</time>
      </trkpt>
      <trkpt lat="43.84035" lon="6.75295">
        <ele>1111.6</ele>
        <time>2021-09-19T08:01:01Z</time>
      </trkpt>
      <trkpt lat="43.84035" lon="6.75299">
        <ele>1111.9</ele>
        <time>2021-09-19T08:01:02Z</time>
      </trkpt>
      <trkpt lat="43.84036" lon="6.75306">
        <ele>1112.3</ele>
        <time>2021-09-19T08:01:04Z</time>
      </trkpt>
      <trkpt lat="43.84038" lon="6.7531">
        <ele>1112.6</ele>
        <time>2021-09-19T08:01:05Z</time>
      </trkpt>
      <trkpt lat="43.84042" lon="6.75316">
        <ele>1113.1</ele>
        <time>2021-09-19T08:01:07Z</time>
      </trkpt>
      <trkpt lat="43.84045" lon="6.7532">
        <ele>1113.4</ele>
        <time>2021-09-19T08:01:08Z</time>
      </trkpt>
      <trkpt lat="43.84046" lon="6.75324">
        <ele>1113.7</ele>
        <time>2021-09-19T08:01:09Z</time>
      </trkpt>
      <trkpt lat="43.84046" lon="6.75326">
        <ele>1113.8</ele>
        <time>2021-09-19T08:01:11Z</time>
      </trkpt>
      <trkpt lat="43.84046" lon="6.75328">
        <ele>1113.9</ele>
        <time>2021-09-19T08:01:12Z</time>
      </trkpt>
      <trkpt lat="43.84047" lon="6.7533">
        <ele>1114</ele>
        <time>2021-09-19T08:01:13Z</time>
      </trkpt>
      <trkpt lat="43.84046" lon="6.75347">
        <ele>1114.9</ele>
        <time>2021-09-19T08:01:14Z</time>
      </trkpt>
      <trkpt lat="43.84045" lon="6.75362">
        <ele>1115.8</ele>
        <time>2021-09-19T08:01:35Z</time>
      </trkpt>
      <trkpt lat="43.84044" lon="6.75376">
        <ele>1116.7</ele>
        <time>2021-09-19T08:01:36Z</time>
      </trkpt>
      <trkpt lat="43.84045" lon="6.7538">
        <ele>1117</ele>
        <time>2021-09-19T08:01:38Z</time>
      </trkpt>
      <trkpt lat="43.84045" lon="6.75381">
        <ele>1117</ele>
        <time>2021-09-19T08:01:39Z</time>
      </trkpt>
      <trkpt lat="43.84046" lon="6.75382">
        <ele>1117.1</ele>
        <time>2021-09-19T08:01:40Z</time>
      </trkpt>
      <trkpt lat="43.84047" lon="6.75384">
        <ele>1117.3</ele>
        <time>2021-09-19T08:01:41Z</time>
      </trkpt>
      <trkpt lat="43.84048" lon="6.75386">
        <ele>1117.5</ele>
        <time>2021-09-19T08:01:43Z</time>
      </trkpt>
      <trkpt lat="43.84049" lon="6.7539">
        <ele>1117.8</ele>
        <time>2021-09-19T08:01:45Z</time>
      </trkpt>
      <trkpt lat="43.8405" lon="6.75392">
        <ele>1117.9</ele>
        <time>2021-09-19T08:01:46Z</time>
      </trkpt>
      <trkpt lat="43.84045" lon="6.75404">
        <ele>1118.9</ele>
        <time>2021-09-19T08:01:51Z</time>
      </trkpt>
      <trkpt lat="43.84043" lon="6.75407">
        <ele>1119.2</ele>
        <time>2021-09-19T08:01:52Z</time>
      </trkpt>
      <trkpt lat="43.8404" lon="6.7541">
        <ele>1119.5</ele>
        <time>2021-09-19T08:01:53Z</time>
      </trkpt>
      <trkpt lat="43.84037" lon="6.75412">
        <ele>1119.9</ele>
        <time>2021-09-19T08:01:54Z</time>
      </trkpt>
      <trkpt lat="43.84031" lon="6.75415">
        <ele>1120.5</ele>
        <time>2021-09-19T08:01:55Z</time>
      </trkpt>
      <trkpt lat="43.84029" lon="6.75418">
        <ele>1120.8</ele>
        <time>2021-09-19T08:01:56Z</time>
      </trkpt>
      <trkpt lat="43.84029" lon="6.7542">
        <ele>1120.9</ele>
        <time>2021-09-19T08:01:57Z</time>
      </trkpt>
      <trkpt lat="43.84029" lon="6.75421">
        <ele>1121</ele>
        <time>2021-09-19T08:01:58Z</time>
      </trkpt>
      <trkpt lat="43.8403" lon="6.75423">
        <ele>1121.1</ele>
        <time>2021-09-19T08:02:00Z</time>
      </trkpt>
      <trkpt lat="43.8403" lon="6.75424">
        <ele>1121.2</ele>
        <time>2021-09-19T08:02:01Z</time>
      </trkpt>
      <trkpt lat="43.84032" lon="6.75426">
        <ele>1121.5</ele>
        <time>2021-09-19T08:02:03Z</time>
      </trkpt>
      <trkpt lat="43.84033" lon="6.75428">
        <ele>1121.6</ele>
        <time>2021-09-19T08:02:05Z</time>
      </trkpt>
      <trkpt lat="43.84043" lon="6.75448">
        <ele>1123.2</ele>
        <time>2021-09-19T08:02:19Z</time>
      </trkpt>
      <trkpt lat="43.84043" lon="6.75453">
        <ele>1123.5</ele>
        <time>2021-09-19T08:02:21Z</time>
      </trkpt>
      <trkpt lat="43.84044" lon="6.75456">
        <ele>1123.7</ele>
        <time>2021-09-19T08:02:22Z</time>
      </trkpt>
      <trkpt lat="43.84045" lon="6.75461">
        <ele>1124.1</ele>
        <time>2021-09-19T08:02:24Z</time>
      </trkpt>
      <trkpt lat="43.84042" lon="6.75465">
        <ele>1124.4</ele>
        <time>2021-09-19T08:02:26Z</time>
      </trkpt>
      <trkpt lat="43.8404" lon="6.75467">
        <ele>1124.7</ele>
        <time>2021-09-19T08:02:27Z</time>
      </trkpt>
      <trkpt lat="43.84038" lon="6.75467">
        <ele>1124.8</ele>
        <time>2021-09-19T08:02:28Z</time>
      </trkpt>
      <trkpt lat="43.84037" lon="6.75467">
        <ele>1124.9</ele>
        <time>2021-09-19T08:02:29Z</time>
      </trkpt>
      <trkpt lat="43.84037" lon="6.75468">
        <ele>1124.9</ele>
        <time>2021-09-19T08:02:30Z</time>
      </trkpt>
      <trkpt lat="43.84036" lon="6.75468">
        <ele>1125</ele>
        <time>2021-09-19T08:02:31Z</time>
      </trkpt>
      <trkpt lat="43.84035" lon="6.75469">
        <ele>1125.1</ele>
        <time>2021-09-19T08:02:33Z</time>
      </trkpt>
      <trkpt lat="43.84034" lon="6.7547">
        <ele>1125.2</ele>
        <time>2021-09-19T08:02:35Z</time>
      </trkpt>
      <trkpt lat="43.84032" lon="6.75471">
        <ele>1125.4</ele>
        <time>2021-09-19T08:02:37Z</time>
      </trkpt>
      <trkpt lat="43.84009" lon="6.75482">
        <ele>1127.8</ele>
        <time>2021-09-19T08:02:53Z</time>
      </trkpt>
      <trkpt lat="43.84004" lon="6.75482">
        <ele>1128.3</ele>
        <time>2021-09-19T08:02:54Z</time>
      </trkpt>
      <trkpt lat="43.83999" lon="6.75481">
        <ele>1128.9</ele>
        <time>2021-09-19T08:02:55Z</time>
      </trkpt>
      <trkpt lat="43.83991" lon="6.7548">
        <ele>1129.8</ele>
        <time>2021-09-19T08:02:57Z</time>
      </trkpt>
      <trkpt lat="43.83985" lon="6.7548">
        <ele>1130.5</ele>
        <time>2021-09-19T08:02:58Z</time>
      </trkpt>
      <trkpt lat="43.83983" lon="6.7548">
        <ele>1130.6</ele>
        <time>2021-09-19T08:03:00Z</time>
      </trkpt>
      <trkpt lat="43.83983" lon="6.75481">
        <ele>1130.6</ele>
        <time>2021-09-19T08:03:01Z</time>
      </trkpt>
      <trkpt lat="43.83983" lon="6.75482">
        <ele>1130.7</ele>
        <time>2021-09-19T08:03:03Z</time>
      </trkpt>
      <trkpt lat="43.83984" lon="6.75484">
        <ele>1130.7</ele>
        <time>2021-09-19T08:03:04Z</time>
      </trkpt>
      <trkpt lat="43.83984" lon="6.75485">
        <ele>1130.8</ele>
        <time>2021-09-19T08:03:05Z</time>
      </trkpt>
      <trkpt lat="43.83983" lon="6.75486">
        <ele>1130.9</ele>
        <time>2021-09-19T08:03:06Z</time>
      </trkpt>
      <trkpt lat="43.8398" lon="6.75488">
        <ele>1131</ele>
        <time>2021-09-19T08:03:08Z</time>
      </trkpt>
      <trkpt lat="43.83974" lon="6.75487">
        <ele>1131.3</ele>
        <time>2021-09-19T08:03:10Z</time>
      </trkpt>
      <trkpt lat="43.83972" lon="6.75488">
        <ele>1131.4</ele>
        <time>2021-09-19T08:03:11Z</time>
      </trkpt>
      <trkpt lat="43.83967" lon="6.75493">
        <ele>1131.8</ele>
        <time>2021-09-19T08:03:13Z</time>
      </trkpt>
      <trkpt lat="43.83964" lon="6.75497">
        <ele>1132</ele>
        <time>2021-09-19T08:03:15Z</time>
      </trkpt>
      <trkpt lat="43.83962" lon="6.755">
        <ele>1132.2</ele>
        <time>2021-09-19T08:03:16Z</time>
      </trkpt>
      <trkpt lat="43.83961" lon="6.75501">
        <ele>1132.2</ele>
        <time>2021-09-19T08:03:17Z</time>
      </trkpt>
      <trkpt lat="43.8396" lon="6.75502">
        <ele>1132.3</ele>
        <time>2021-09-19T08:03:18Z</time>
      </trkpt>
      <trkpt lat="43.83959" lon="6.75507">
        <ele>1132.5</ele>
        <time>2021-09-19T08:03:20Z</time>
      </trkpt>
      <trkpt lat="43.83959" lon="6.75517">
        <ele>1132.9</ele>
        <time>2021-09-19T08:03:22Z</time>
      </trkpt>
      <trkpt lat="43.83957" lon="6.75519">
        <ele>1133</ele>
        <time>2021-09-19T08:03:23Z</time>
      </trkpt>
      <trkpt lat="43.83958" lon="6.75523">
        <ele>1133.2</ele>
        <time>2021-09-19T08:03:25Z</time>
      </trkpt>
      <trkpt lat="43.83958" lon="6.75526">
        <ele>1133.3</ele>
        <time>2021-09-19T08:03:26Z</time>
      </trkpt>
      <trkpt lat="43.83958" lon="6.75529">
        <ele>1133.3</ele>
        <time>2021-09-19T08:03:28Z</time>
      </trkpt>
      <trkpt lat="43.83958" lon="6.75531">
        <ele>1133.4</ele>
        <time>2021-09-19T08:03:29Z</time>
      </trkpt>
      <trkpt lat="43.83958" lon="6.75534">
        <ele>1133.5</ele>
        <time>2021-09-19T08:03:31Z</time>
      </trkpt>
      <trkpt lat="43.83958" lon="6.75538">
        <ele>1133.6</ele>
        <time>2021-09-19T08:03:32Z</time>
      </trkpt>
      <trkpt lat="43.83965" lon="6.75565">
        <ele>1134.3</ele>
        <time>2021-09-19T08:03:47Z</time>
      </trkpt>
      <trkpt lat="43.83966" lon="6.75568">
        <ele>1134.3</ele>
        <time>2021-09-19T08:03:49Z</time>
      </trkpt>
      <trkpt lat="43.83966" lon="6.75574">
        <ele>1134.4</ele>
        <time>2021-09-19T08:03:51Z</time>
      </trkpt>
      <trkpt lat="43.83967" lon="6.75578">
        <ele>1134.5</ele>
        <time>2021-09-19T08:03:52Z</time>
      </trkpt>
      <trkpt lat="43.83968" lon="6.75581">
        <ele>1134.5</ele>
        <time>2021-09-19T08:03:54Z</time>
      </trkpt>
      <trkpt lat="43.83968" lon="6.75583">
        <ele>1134.5</ele>
        <time>2021-09-19T08:03:56Z</time>
      </trkpt>
      <trkpt lat="43.83968" lon="6.75585">
        <ele>1134.5</ele>
        <time>2021-09-19T08:03:57Z</time>
      </trkpt>
      <trkpt lat="43.8397" lon="6.75591">
        <ele>1134.6</ele>
        <time>2021-09-19T08:03:59Z</time>
      </trkpt>
      <trkpt lat="43.83976" lon="6.75599">
        <ele>1134.7</ele>
        <time>2021-09-19T08:04:01Z</time>
      </trkpt>
      <trkpt lat="43.83982" lon="6.75602">
        <ele>1134.8</ele>
        <time>2021-09-19T08:04:02Z</time>
      </trkpt>
      <trkpt lat="43.83992" lon="6.7561">
        <ele>1135.2</ele>
        <time>2021-09-19T08:04:03Z</time>
      </trkpt>
      <trkpt lat="43.83998" lon="6.75615">
        <ele>1135.4</ele>
        <time>2021-09-19T08:04:05Z</time>
      </trkpt>
      <trkpt lat="43.84001" lon="6.75618">
        <ele>1135.5</ele>
        <time>2021-09-19T08:04:06Z</time>
      </trkpt>
      <trkpt lat="43.83999" lon="6.75619">
        <ele>1135.6</ele>
        <time>2021-09-19T08:04:07Z</time>
      </trkpt>
      <trkpt lat="43.83996" lon="6.75619">
        <ele>1135.7</ele>
        <time>2021-09-19T08:04:08Z</time>
      </trkpt>
      <trkpt lat="43.83992" lon="6.75619">
        <ele>1135.8</ele>
        <time>2021-09-19T08:04:10Z</time>
      </trkpt>
      <trkpt lat="43.8399" lon="6.7562">
        <ele>1135.9</ele>
        <time>2021-09-19T08:04:11Z</time>
      </trkpt>
      <trkpt lat="43.83985" lon="6.75621">
        <ele>1136.1</ele>
        <time>2021-09-19T08:04:12Z</time>
      </trkpt>
      <trkpt lat="43.83984" lon="6.75622">
        <ele>1136.2</ele>
        <time>2021-09-19T08:04:13Z</time>
      </trkpt>
      <trkpt lat="43.83983" lon="6.75623">
        <ele>1136.2</ele>
        <time>2021-09-19T08:04:15Z</time>
      </trkpt>
      <trkpt lat="43.83983" lon="6.75625">
        <ele>1136.2</ele>
        <time>2021-09-19T08:04:16Z</time>
      </trkpt>
      <trkpt lat="43.83971" lon="6.75649">
        <ele>1137</ele>
        <time>2021-09-19T08:04:27Z</time>
      </trkpt>
      <trkpt lat="43.83968" lon="6.75654">
        <ele>1137.3</ele>
        <time>2021-09-19T08:04:28Z</time>
      </trkpt>
      <trkpt lat="43.83965" lon="6.75657">
        <ele>1137.4</ele>
        <time>2021-09-19T08:04:29Z</time>
      </trkpt>
      <trkpt lat="43.8396" lon="6.75659">
        <ele>1137.7</ele>
        <time>2021-09-19T08:04:31Z</time>
      </trkpt>
      <trkpt lat="43.83952" lon="6.75661">
        <ele>1138</ele>
        <time>2021-09-19T08:04:33Z</time>
      </trkpt>
      <trkpt lat="43.83946" lon="6.75661">
        <ele>1138.3</ele>
        <time>2021-09-19T08:04:34Z</time>
      </trkpt>
      <trkpt lat="43.83941" lon="6.75662">
        <ele>1138.5</ele>
        <time>2021-09-19T08:04:36Z</time>
      </trkpt>
      <trkpt lat="43.83939" lon="6.75664">
        <ele>1138.6</ele>
        <time>2021-09-19T08:04:37Z</time>
      </trkpt>
      <trkpt lat="43.83938" lon="6.75665">
        <ele>1138.6</ele>
        <time>2021-09-19T08:04:38Z</time>
      </trkpt>
      <trkpt lat="43.8394" lon="6.75666">
        <ele>1138.7</ele>
        <time>2021-09-19T08:04:40Z</time>
      </trkpt>
      <trkpt lat="43.83939" lon="6.75668">
        <ele>1138.8</ele>
        <time>2021-09-19T08:04:41Z</time>
      </trkpt>
      <trkpt lat="43.83938" lon="6.75671">
        <ele>1138.9</ele>
        <time>2021-09-19T08:04:43Z</time>
      </trkpt>
      <trkpt lat="43.8394" lon="6.75675">
        <ele>1139</ele>
        <time>2021-09-19T08:04:44Z</time>
      </trkpt>
      <trkpt lat="43.83941" lon="6.75679">
        <ele>1139.1</ele>
        <time>2021-09-19T08:04:45Z</time>
      </trkpt>
      <trkpt lat="43.83942" lon="6.75684">
        <ele>1139.3</ele>
        <time>2021-09-19T08:04:47Z</time>
      </trkpt>
      <trkpt lat="43.83942" lon="6.75684">
        <ele>1139.3</ele>
        <time>2021-09-19T08:04:48Z</time>
      </trkpt>
      <trkpt lat="43.83944" lon="6.75687">
        <ele>1139.4</ele>
        <time>2021-09-19T08:04:50Z</time>
      </trkpt>
      <trkpt lat="43.83944" lon="6.75688">
        <ele>1139.4</ele>
        <time>2021-09-19T08:04:51Z</time>
      </trkpt>
      <trkpt lat="43.83944" lon="6.75689">
        <ele>1139.4</ele>
        <time>2021-09-19T08:04:53Z</time>
      </trkpt>
      <trkpt lat="43.83946" lon="6.75691">
        <ele>1139.5</ele>
        <time>2021-09-19T08:04:54Z</time>
      </trkpt>
      <trkpt lat="43.83944" lon="6.75699">
        <ele>1139.8</ele>
        <time>2021-09-19T08:04:55Z</time>
      </trkpt>
      <trkpt lat="43.83943" lon="6.75706">
        <ele>1140</ele>
        <time>2021-09-19T08:05:13Z</time>
      </trkpt>
      <trkpt lat="43.83941" lon="6.75712">
        <ele>1140.2</ele>
        <time>2021-09-19T08:05:14Z</time>
      </trkpt>
      <trkpt lat="43.83939" lon="6.75719">
        <ele>1140.4</ele>
        <time>2021-09-19T08:05:15Z</time>
      </trkpt>
      <trkpt lat="43.83939" lon="6.75722">
        <ele>1140.5</ele>
        <time>2021-09-19T08:05:16Z</time>
      </trkpt>
      <trkpt lat="43.83939" lon="6.75724">
        <ele>1140.6</ele>
        <time>2021-09-19T08:05:17Z</time>
      </trkpt>
      <trkpt lat="43.83939" lon="6.75726">
        <ele>1140.6</ele>
        <time>2021-09-19T08:05:20Z</time>
      </trkpt>
      <trkpt lat="43.8394" lon="6.75727">
        <ele>1140.7</ele>
        <time>2021-09-19T08:05:21Z</time>
      </trkpt>
      <trkpt lat="43.83942" lon="6.75731">
        <ele>1140.8</ele>
        <time>2021-09-19T08:05:22Z</time>
      </trkpt>
      <trkpt lat="43.83942" lon="6.75732">
        <ele>1140.8</ele>
        <time>2021-09-19T08:05:23Z</time>
      </trkpt>
      <trkpt lat="43.83944" lon="6.75734">
        <ele>1140.9</ele>
        <time>2021-09-19T08:05:24Z</time>
      </trkpt>
      <trkpt lat="43.83946" lon="6.75736">
        <ele>1141</ele>
        <time>2021-09-19T08:05:26Z</time>
      </trkpt>
      <trkpt lat="43.83947" lon="6.75737">
        <ele>1141</ele>
        <time>2021-09-19T08:05:28Z</time>
      </trkpt>
      <trkpt lat="43.83947" lon="6.75739">
        <ele>1141</ele>
        <time>2021-09-19T08:05:29Z</time>
      </trkpt>
      <trkpt lat="43.83947" lon="6.7574">
        <ele>1141</ele>
        <time>2021-09-19T08:05:30Z</time>
      </trkpt>
      <trkpt lat="43.83947" lon="6.75742">
        <ele>1141.1</ele>
        <time>2021-09-19T08:05:31Z</time>
      </trkpt>
      <trkpt lat="43.83947" lon="6.75743">
        <ele>1141.1</ele>
        <time>2021-09-19T08:05:32Z</time>
      </trkpt>
      <trkpt lat="43.83952" lon="6.75762">
        <ele>1141.4</ele>
        <time>2021-09-19T08:05:41Z</time>
      </trkpt>
      <trkpt lat="43.83954" lon="6.75766">
        <ele>1141.6</ele>
        <time>2021-09-19T08:05:43Z</time>
      </trkpt>
      <trkpt lat="43.83955" lon="6.75771">
        <ele>1141.7</ele>
        <time>2021-09-19T08:05:44Z</time>
      </trkpt>
      <trkpt lat="43.83955" lon="6.75773">
        <ele>1141.8</ele>
        <time>2021-09-19T08:05:45Z</time>
      </trkpt>
      <trkpt lat="43.83954" lon="6.75775">
        <ele>1141.8</ele>
        <time>2021-09-19T08:05:47Z</time>
      </trkpt>
      <trkpt lat="43.83955" lon="6.75776">
        <ele>1141.8</ele>
        <time>2021-09-19T08:05:48Z</time>
      </trkpt>
      <trkpt lat="43.83955" lon="6.75776">
        <ele>1141.8</ele>
        <time>2021-09-19T08:05:49Z</time>
      </trkpt>
      <trkpt lat="43.83954" lon="6.75776">
        <ele>1141.8</ele>
        <time>2021-09-19T08:05:50Z</time>
      </trkpt>
      <trkpt lat="43.83954" lon="6.75777">
        <ele>1141.9</ele>
        <time>2021-09-19T08:05:51Z</time>
      </trkpt>
      <trkpt lat="43.83952" lon="6.7578">
        <ele>1142</ele>
        <time>2021-09-19T08:05:54Z</time>
      </trkpt>
      <trkpt lat="43.83947" lon="6.75789">
        <ele>1142.4</ele>
        <time>2021-09-19T08:05:58Z</time>
      </trkpt>
      <trkpt lat="43.83946" lon="6.7579">
        <ele>1142.5</ele>
        <time>2021-09-19T08:06:00Z</time>
      </trkpt>
      <trkpt lat="43.83946" lon="6.75795">
        <ele>1142.7</ele>
        <time>2021-09-19T08:06:02Z</time>
      </trkpt>
      <trkpt lat="43.83946" lon="6.75796">
        <ele>1142.7</ele>
        <time>2021-09-19T08:06:03Z</time>
      </trkpt>
      <trkpt lat="43.83947" lon="6.75801">
        <ele>1142.9</ele>
        <time>2021-09-19T08:06:05Z</time>
      </trkpt>
      <trkpt lat="43.83949" lon="6.75804">
        <ele>1143.1</ele>
        <time>2021-09-19T08:06:06Z</time>
      </trkpt>
      <trkpt lat="43.8395" lon="6.75806">
        <ele>1143.2</ele>
        <time>2021-09-19T08:06:07Z</time>
      </trkpt>
      <trkpt lat="43.83952" lon="6.75807">
        <ele>1143.3</ele>
        <time>2021-09-19T08:06:08Z</time>
      </trkpt>
      <trkpt lat="43.83953" lon="6.75809">
        <ele>1143.3</ele>
        <time>2021-09-19T08:06:09Z</time>
      </trkpt>
      <trkpt lat="43.83953" lon="6.7581">
        <ele>1143.4</ele>
        <time>2021-09-19T08:06:10Z</time>
      </trkpt>
      <trkpt lat="43.83952" lon="6.75811">
        <ele>1143.4</ele>
        <time>2021-09-19T08:06:11Z</time>
      </trkpt>
      <trkpt lat="43.83952" lon="6.75812">
        <ele>1143.5</ele>
        <time>2021-09-19T08:06:12Z</time>
      </trkpt>
      <trkpt lat="43.8395" lon="6.75813">
        <ele>1143.5</ele>
        <time>2021-09-19T08:06:14Z</time>
      </trkpt>
      <trkpt lat="43.8395" lon="6.75814">
        <ele>1143.6</ele>
        <time>2021-09-19T08:06:16Z</time>
      </trkpt>
      <trkpt lat="43.83949" lon="6.75816">
        <ele>1143.7</ele>
        <time>2021-09-19T08:06:18Z</time>
      </trkpt>
      <trkpt lat="43.83948" lon="6.75817">
        <ele>1143.7</ele>
        <time>2021-09-19T08:06:19Z</time>
      </trkpt>
      <trkpt lat="43.83948" lon="6.75819">
        <ele>1143.8</ele>
        <time>2021-09-19T08:06:20Z</time>
      </trkpt>
      <trkpt lat="43.83949" lon="6.75822">
        <ele>1143.9</ele>
        <time>2021-09-19T08:06:22Z</time>
      </trkpt>
      <trkpt lat="43.83951" lon="6.75826">
        <ele>1144.1</ele>
        <time>2021-09-19T08:06:23Z</time>
      </trkpt>
      <trkpt lat="43.83952" lon="6.75827">
        <ele>1144.2</ele>
        <time>2021-09-19T08:06:24Z</time>
      </trkpt>
      <trkpt lat="43.83953" lon="6.75829">
        <ele>1144.3</ele>
        <time>2021-09-19T08:06:25Z</time>
      </trkpt>
      <trkpt lat="43.83954" lon="6.7583">
        <ele>1144.4</ele>
        <time>2021-09-19T08:06:26Z</time>
      </trkpt>
      <trkpt lat="43.83954" lon="6.75831">
        <ele>1144.4</ele>
        <time>2021-09-19T08:06:27Z</time>
      </trkpt>
      <trkpt lat="43.83955" lon="6.75832">
        <ele>1144.5</ele>
        <time>2021-09-19T08:06:28Z</time>
      </trkpt>
      <trkpt lat="43.83955" lon="6.75834">
        <ele>1144.5</ele>
        <time>2021-09-19T08:06:29Z</time>
      </trkpt>
      <trkpt lat="43.83955" lon="6.75834">
        <ele>1144.6</ele>
        <time>2021-09-19T08:06:31Z</time>
      </trkpt>
      <trkpt lat="43.83955" lon="6.75835">
        <ele>1144.6</ele>
        <time>2021-09-19T08:06:32Z</time>
      </trkpt>
      <trkpt lat="43.83954" lon="6.75836">
        <ele>1144.6</ele>
        <time>2021-09-19T08:06:33Z</time>
      </trkpt>
      <trkpt lat="43.83954" lon="6.75836">
        <ele>1144.7</ele>
        <time>2021-09-19T08:06:35Z</time>
      </trkpt>
      <trkpt lat="43.83953" lon="6.75837">
        <ele>1144.7</ele>
        <time>2021-09-19T08:06:36Z</time>
      </trkpt>
      <trkpt lat="43.83952" lon="6.75838">
        <ele>1144.8</ele>
        <time>2021-09-19T08:06:38Z</time>
      </trkpt>
      <trkpt lat="43.83952" lon="6.75839">
        <ele>1144.8</ele>
        <time>2021-09-19T08:06:39Z</time>
      </trkpt>
      <trkpt lat="43.83951" lon="6.7584">
        <ele>1144.9</ele>
        <time>2021-09-19T08:06:41Z</time>
      </trkpt>
      <trkpt lat="43.83951" lon="6.7584">
        <ele>1144.9</ele>
        <time>2021-09-19T08:06:42Z</time>
      </trkpt>
      <trkpt lat="43.8395" lon="6.75842">
        <ele>1145</ele>
        <time>2021-09-19T08:06:43Z</time>
      </trkpt>
      <trkpt lat="43.83949" lon="6.75844">
        <ele>1145.1</ele>
        <time>2021-09-19T08:06:45Z</time>
      </trkpt>
      <trkpt lat="43.83949" lon="6.75846">
        <ele>1145.2</ele>
        <time>2021-09-19T08:06:46Z</time>
      </trkpt>
      <trkpt lat="43.83948" lon="6.75848">
        <ele>1145.3</ele>
        <time>2021-09-19T08:06:47Z</time>
      </trkpt>
      <trkpt lat="43.83948" lon="6.7585">
        <ele>1145.3</ele>
        <time>2021-09-19T08:06:48Z</time>
      </trkpt>
      <trkpt lat="43.83949" lon="6.75851">
        <ele>1145.4</ele>
        <time>2021-09-19T08:06:49Z</time>
      </trkpt>
      <trkpt lat="43.83949" lon="6.75853">
        <ele>1145.5</ele>
        <time>2021-09-19T08:06:50Z</time>
      </trkpt>
      <trkpt lat="43.83949" lon="6.75854">
        <ele>1145.5</ele>
        <time>2021-09-19T08:06:52Z</time>
      </trkpt>
      <trkpt lat="43.83949" lon="6.75856">
        <ele>1145.6</ele>
        <time>2021-09-19T08:06:53Z</time>
      </trkpt>
      <trkpt lat="43.83949" lon="6.75858">
        <ele>1145.7</ele>
        <time>2021-09-19T08:06:55Z</time>
      </trkpt>
      <trkpt lat="43.83947" lon="6.75861">
        <ele>1145.8</ele>
        <time>2021-09-19T08:06:56Z</time>
      </trkpt>
      <trkpt lat="43.83946" lon="6.75865">
        <ele>1146</ele>
        <time>2021-09-19T08:06:57Z</time>
      </trkpt>
      <trkpt lat="43.83944" lon="6.75869">
        <ele>1146.2</ele>
        <time>2021-09-19T08:06:58Z</time>
      </trkpt>
      <trkpt lat="43.83944" lon="6.75871">
        <ele>1146.3</ele>
        <time>2021-09-19T08:06:59Z</time>
      </trkpt>
      <trkpt lat="43.83944" lon="6.75873">
        <ele>1146.3</ele>
        <time>2021-09-19T08:07:00Z</time>
      </trkpt>
      <trkpt lat="43.83944" lon="6.75875">
        <ele>1146.4</ele>
        <time>2021-09-19T08:07:02Z</time>
      </trkpt>
      <trkpt lat="43.83944" lon="6.75877">
        <ele>1146.5</ele>
        <time>2021-09-19T08:07:03Z</time>
      </trkpt>
      <trkpt lat="43.83944" lon="6.75878">
        <ele>1146.5</ele>
        <time>2021-09-19T08:07:04Z</time>
      </trkpt>
      <trkpt lat="43.83944" lon="6.75879">
        <ele>1146.6</ele>
        <time>2021-09-19T08:07:05Z</time>
      </trkpt>
      <trkpt lat="43.83944" lon="6.7588">
        <ele>1146.6</ele>
        <time>2021-09-19T08:07:07Z</time>
      </trkpt>
      <trkpt lat="43.83945" lon="6.75883">
        <ele>1146.7</ele>
        <time>2021-09-19T08:07:08Z</time>
      </trkpt>
      <trkpt lat="43.8395" lon="6.75907">
        <ele>1147.4</ele>
        <time>2021-09-19T08:07:19Z</time>
      </trkpt>
      <trkpt lat="43.83949" lon="6.75911">
        <ele>1147.5</ele>
        <time>2021-09-19T08:07:21Z</time>
      </trkpt>
      <trkpt lat="43.83948" lon="6.75912">
        <ele>1147.6</ele>
        <time>2021-09-19T08:07:22Z</time>
      </trkpt>
      <trkpt lat="43.83947" lon="6.75916">
        <ele>1147.7</ele>
        <time>2021-09-19T08:07:23Z</time>
      </trkpt>
      <trkpt lat="43.83946" lon="6.7592">
        <ele>1147.7</ele>
        <time>2021-09-19T08:07:24Z</time>
      </trkpt>
      <trkpt lat="43.83946" lon="6.75922">
        <ele>1147.8</ele>
        <time>2021-09-19T08:07:25Z</time>
      </trkpt>
      <trkpt lat="43.83945" lon="6.75926">
        <ele>1147.8</ele>
        <time>2021-09-19T08:07:27Z</time>
      </trkpt>
      <trkpt lat="43.83943" lon="6.75932">
        <ele>1147.9</ele>
        <time>2021-09-19T08:07:28Z</time>
      </trkpt>
      <trkpt lat="43.83942" lon="6.75938">
        <ele>1148</ele>
        <time>2021-09-19T08:07:30Z</time>
      </trkpt>
      <trkpt lat="43.83942" lon="6.75942">
        <ele>1148.1</ele>
        <time>2021-09-19T08:07:31Z</time>
      </trkpt>
      <trkpt lat="43.83941" lon="6.75948">
        <ele>1148.1</ele>
        <time>2021-09-19T08:07:33Z</time>
      </trkpt>
      <trkpt lat="43.8394" lon="6.75955">
        <ele>1148.2</ele>
        <time>2021-09-19T08:07:35Z</time>
      </trkpt>
      <trkpt lat="43.83939" lon="6.75959">
        <ele>1148.3</ele>
        <time>2021-09-19T08:07:36Z</time>
      </trkpt>
      <trkpt lat="43.83939" lon="6.75964">
        <ele>1148.3</ele>
        <time>2021-09-19T08:07:38Z</time>
      </trkpt>
      <trkpt lat="43.83939" lon="6.75965">
        <ele>1148.4</ele>
        <time>2021-09-19T08:07:39Z</time>
      </trkpt>
      <trkpt lat="43.8394" lon="6.75967">
        <ele>1148.4</ele>
        <time>2021-09-19T08:07:41Z</time>
      </trkpt>
      <trkpt lat="43.83942" lon="6.75968">
        <ele>1148.4</ele>
        <time>2021-09-19T08:07:42Z</time>
      </trkpt>
      <trkpt lat="43.83948" lon="6.75971">
        <ele>1148.6</ele>
        <time>2021-09-19T08:07:44Z</time>
      </trkpt>
      <trkpt lat="43.83951" lon="6.7597">
        <ele>1149</ele>
        <time>2021-09-19T08:07:45Z</time>
      </trkpt>
      <trkpt lat="43.83954" lon="6.75969">
        <ele>1149.6</ele>
        <time>2021-09-19T08:07:46Z</time>
      </trkpt>
      <trkpt lat="43.83955" lon="6.75976">
        <ele>1150.5</ele>
        <time>2021-09-19T08:07:48Z</time>
      </trkpt>
      <trkpt lat="43.83955" lon="6.75984">
        <ele>1151.4</ele>
        <time>2021-09-19T08:07:49Z</time>
      </trkpt>
      <trkpt lat="43.83954" lon="6.75992">
        <ele>1152.3</ele>
        <time>2021-09-19T08:07:50Z</time>
      </trkpt>
      <trkpt lat="43.83954" lon="6.76">
        <ele>1153.1</ele>
        <time>2021-09-19T08:07:52Z</time>
      </trkpt>
      <trkpt lat="43.83953" lon="6.76008">
        <ele>1153.9</ele>
        <time>2021-09-19T08:08:19Z</time>
      </trkpt>
      <trkpt lat="43.83953" lon="6.76016">
        <ele>1154.7</ele>
        <time>2021-09-19T08:08:21Z</time>
      </trkpt>
      <trkpt lat="43.83952" lon="6.76024">
        <ele>1155.5</ele>
        <time>2021-09-19T08:08:22Z</time>
      </trkpt>
      <trkpt lat="43.83952" lon="6.76026">
        <ele>1155.7</ele>
        <time>2021-09-19T08:08:24Z</time>
      </trkpt>
      <trkpt lat="43.83951" lon="6.76027">
        <ele>1155.8</ele>
        <time>2021-09-19T08:08:25Z</time>
      </trkpt>
      <trkpt lat="43.83951" lon="6.76029">
        <ele>1156</ele>
        <time>2021-09-19T08:08:27Z</time>
      </trkpt>
      <trkpt lat="43.83951" lon="6.7603">
        <ele>1156.1</ele>
        <time>2021-09-19T08:08:28Z</time>
      </trkpt>
      <trkpt lat="43.83951" lon="6.76031">
        <ele>1156.3</ele>
        <time>2021-09-19T08:08:29Z</time>
      </trkpt>
      <trkpt lat="43.83952" lon="6.76033">
        <ele>1156.5</ele>
        <time>2021-09-19T08:08:31Z</time>
      </trkpt>
      <trkpt lat="43.83952" lon="6.76035">
        <ele>1156.7</ele>
        <time>2021-09-19T08:08:32Z</time>
      </trkpt>
      <trkpt lat="43.83971" lon="6.76075">
        <ele>1160.8</ele>
        <time>2021-09-19T08:08:44Z</time>
      </trkpt>
      <trkpt lat="43.83971" lon="6.7608">
        <ele>1161.2</ele>
        <time>2021-09-19T08:08:46Z</time>
      </trkpt>
      <trkpt lat="43.83972" lon="6.76083">
        <ele>1161.5</ele>
        <time>2021-09-19T08:08:48Z</time>
      </trkpt>
      <trkpt lat="43.83973" lon="6.76088">
        <ele>1161.8</ele>
        <time>2021-09-19T08:08:49Z</time>
      </trkpt>
      <trkpt lat="43.83972" lon="6.76089">
        <ele>1162</ele>
        <time>2021-09-19T08:08:51Z</time>
      </trkpt>
      <trkpt lat="43.83972" lon="6.76093">
        <ele>1162.2</ele>
        <time>2021-09-19T08:08:52Z</time>
      </trkpt>
      <trkpt lat="43.83971" lon="6.76097">
        <ele>1162.6</ele>
        <time>2021-09-19T08:08:54Z</time>
      </trkpt>
      <trkpt lat="43.83971" lon="6.76102">
        <ele>1163</ele>
        <time>2021-09-19T08:08:55Z</time>
      </trkpt>
      <trkpt lat="43.83971" lon="6.76107">
        <ele>1163.3</ele>
        <time>2021-09-19T08:08:56Z</time>
      </trkpt>
      <trkpt lat="43.83972" lon="6.76113">
        <ele>1163.8</ele>
        <time>2021-09-19T08:08:58Z</time>
      </trkpt>
      <trkpt lat="43.83972" lon="6.76118">
        <ele>1164</ele>
        <time>2021-09-19T08:08:59Z</time>
      </trkpt>
      <trkpt lat="43.83973" lon="6.76123">
        <ele>1164.1</ele>
        <time>2021-09-19T08:09:00Z</time>
      </trkpt>
      <trkpt lat="43.83975" lon="6.76129">
        <ele>1164.1</ele>
        <time>2021-09-19T08:09:01Z</time>
      </trkpt>
      <trkpt lat="43.83976" lon="6.7613">
        <ele>1164.1</ele>
        <time>2021-09-19T08:09:03Z</time>
      </trkpt>
      <trkpt lat="43.83981" lon="6.76137">
        <ele>1164.2</ele>
        <time>2021-09-19T08:09:05Z</time>
      </trkpt>
      <trkpt lat="43.83982" lon="6.76141">
        <ele>1164.2</ele>
        <time>2021-09-19T08:09:06Z</time>
      </trkpt>
      <trkpt lat="43.83982" lon="6.76142">
        <ele>1164.2</ele>
        <time>2021-09-19T08:09:07Z</time>
      </trkpt>
      <trkpt lat="43.83982" lon="6.76143">
        <ele>1164.2</ele>
        <time>2021-09-19T08:09:08Z</time>
      </trkpt>
      <trkpt lat="43.83983" lon="6.76146">
        <ele>1164.2</ele>
        <time>2021-09-19T08:09:09Z</time>
      </trkpt>
      <trkpt lat="43.8398" lon="6.7615">
        <ele>1164.3</ele>
        <time>2021-09-19T08:09:11Z</time>
      </trkpt>
      <trkpt lat="43.83978" lon="6.76151">
        <ele>1164.3</ele>
        <time>2021-09-19T08:09:12Z</time>
      </trkpt>
      <trkpt lat="43.83977" lon="6.76152">
        <ele>1164.4</ele>
        <time>2021-09-19T08:09:13Z</time>
      </trkpt>
      <trkpt lat="43.83971" lon="6.76157">
        <ele>1164.5</ele>
        <time>2021-09-19T08:09:15Z</time>
      </trkpt>
      <trkpt lat="43.83969" lon="6.7616">
        <ele>1164.6</ele>
        <time>2021-09-19T08:09:16Z</time>
      </trkpt>
      <trkpt lat="43.83968" lon="6.76161">
        <ele>1164.6</ele>
        <time>2021-09-19T08:09:17Z</time>
      </trkpt>
      <trkpt lat="43.83966" lon="6.76165">
        <ele>1164.8</ele>
        <time>2021-09-19T08:09:19Z</time>
      </trkpt>
      <trkpt lat="43.83966" lon="6.76166">
        <ele>1164.8</ele>
        <time>2021-09-19T08:09:20Z</time>
      </trkpt>
      <trkpt lat="43.83963" lon="6.76173">
        <ele>1165.1</ele>
        <time>2021-09-19T08:09:22Z</time>
      </trkpt>
      <trkpt lat="43.83961" lon="6.76176">
        <ele>1165.2</ele>
        <time>2021-09-19T08:09:23Z</time>
      </trkpt>
      <trkpt lat="43.83959" lon="6.7618">
        <ele>1165.5</ele>
        <time>2021-09-19T08:09:24Z</time>
      </trkpt>
      <trkpt lat="43.83958" lon="6.76182">
        <ele>1165.6</ele>
        <time>2021-09-19T08:09:25Z</time>
      </trkpt>
      <trkpt lat="43.83956" lon="6.76185">
        <ele>1165.8</ele>
        <time>2021-09-19T08:09:26Z</time>
      </trkpt>
      <trkpt lat="43.83955" lon="6.76186">
        <ele>1165.9</ele>
        <time>2021-09-19T08:09:27Z</time>
      </trkpt>
      <trkpt lat="43.83952" lon="6.76187">
        <ele>1166.1</ele>
        <time>2021-09-19T08:09:29Z</time>
      </trkpt>
      <trkpt lat="43.8395" lon="6.76189">
        <ele>1166.3</ele>
        <time>2021-09-19T08:09:31Z</time>
      </trkpt>
      <trkpt lat="43.83949" lon="6.76189">
        <ele>1166.4</ele>
        <time>2021-09-19T08:09:32Z</time>
      </trkpt>
      <trkpt lat="43.83948" lon="6.7619">
        <ele>1166.5</ele>
        <time>2021-09-19T08:09:33Z</time>
      </trkpt>
      <trkpt lat="43.83947" lon="6.76192">
        <ele>1166.6</ele>
        <time>2021-09-19T08:09:34Z</time>
      </trkpt>
      <trkpt lat="43.83947" lon="6.76193">
        <ele>1166.7</ele>
        <time>2021-09-19T08:09:35Z</time>
      </trkpt>
      <trkpt lat="43.83948" lon="6.76194">
        <ele>1166.8</ele>
        <time>2021-09-19T08:09:37Z</time>
      </trkpt>
      <trkpt lat="43.83948" lon="6.76195">
        <ele>1166.8</ele>
        <time>2021-09-19T08:09:38Z</time>
      </trkpt>
      <trkpt lat="43.83948" lon="6.76195">
        <ele>1166.8</ele>
        <time>2021-09-19T08:09:39Z</time>
      </trkpt>
      <trkpt lat="43.83948" lon="6.76196">
        <ele>1166.9</ele>
        <time>2021-09-19T08:09:40Z</time>
      </trkpt>
      <trkpt lat="43.83949" lon="6.76197">
        <ele>1166.9</ele>
        <time>2021-09-19T08:09:41Z</time>
      </trkpt>
      <trkpt lat="43.83949" lon="6.762">
        <ele>1167.1</ele>
        <time>2021-09-19T08:09:43Z</time>
      </trkpt>
      <trkpt lat="43.83949" lon="6.76202">
        <ele>1167.2</ele>
        <time>2021-09-19T08:09:44Z</time>
      </trkpt>
      <trkpt lat="43.83952" lon="6.76327">
        <ele>1174.2</ele>
        <time>2021-09-19T08:11:03Z</time>
      </trkpt>
      <trkpt lat="43.83952" lon="6.76328">
        <ele>1174.3</ele>
        <time>2021-09-19T08:11:04Z</time>
      </trkpt>
      <trkpt lat="43.83952" lon="6.7633">
        <ele>1174.4</ele>
        <time>2021-09-19T08:11:05Z</time>
      </trkpt>
      <trkpt lat="43.83952" lon="6.76333">
        <ele>1174.5</ele>
        <time>2021-09-19T08:11:07Z</time>
      </trkpt>
      <trkpt lat="43.83954" lon="6.76338">
        <ele>1174.8</ele>
        <time>2021-09-19T08:11:09Z</time>
      </trkpt>
      <trkpt lat="43.83956" lon="6.7634">
        <ele>1174.9</ele>
        <time>2021-09-19T08:11:10Z</time>
      </trkpt>
      <trkpt lat="43.83959" lon="6.76343">
        <ele>1175.1</ele>
        <time>2021-09-19T08:11:11Z</time>
      </trkpt>
      <trkpt lat="43.8396" lon="6.76344">
        <ele>1175.2</ele>
        <time>2021-09-19T08:11:12Z</time>
      </trkpt>
      <trkpt lat="43.83961" lon="6.76347">
        <ele>1175.3</ele>
        <time>2021-09-19T08:11:13Z</time>
      </trkpt>
      <trkpt lat="43.83961" lon="6.76349">
        <ele>1175.4</ele>
        <time>2021-09-19T08:11:15Z</time>
      </trkpt>
      <trkpt lat="43.83961" lon="6.76349">
        <ele>1175.4</ele>
        <time>2021-09-19T08:11:16Z</time>
      </trkpt>
      <trkpt lat="43.83963" lon="6.76351">
        <ele>1175.5</ele>
        <time>2021-09-19T08:11:18Z</time>
      </trkpt>
      <trkpt lat="43.83964" lon="6.76355">
        <ele>1175.7</ele>
        <time>2021-09-19T08:11:20Z</time>
      </trkpt>
      <trkpt lat="43.83964" lon="6.7636">
        <ele>1175.9</ele>
        <time>2021-09-19T08:11:21Z</time>
      </trkpt>
      <trkpt lat="43.83963" lon="6.76361">
        <ele>1175.9</ele>
        <time>2021-09-19T08:11:22Z</time>
      </trkpt>
      <trkpt lat="43.83962" lon="6.76369">
        <ele>1176.2</ele>
        <time>2021-09-19T08:11:24Z</time>
      </trkpt>
      <trkpt lat="43.83963" lon="6.76373">
        <ele>1176.4</ele>
        <time>2021-09-19T08:11:25Z</time>
      </trkpt>
      <trkpt lat="43.83965" lon="6.76377">
        <ele>1176.6</ele>
        <time>2021-09-19T08:11:26Z</time>
      </trkpt>
      <trkpt lat="43.83967" lon="6.76381">
        <ele>1176.9</ele>
        <time>2021-09-19T08:11:27Z</time>
      </trkpt>
      <trkpt lat="43.83968" lon="6.76382">
        <ele>1176.9</ele>
        <time>2021-09-19T08:11:28Z</time>
      </trkpt>
      <trkpt lat="43.8397" lon="6.76384">
        <ele>1177.1</ele>
        <time>2021-09-19T08:11:29Z</time>
      </trkpt>
      <trkpt lat="43.83972" lon="6.76385">
        <ele>1177.2</ele>
        <time>2021-09-19T08:11:31Z</time>
      </trkpt>
      <trkpt lat="43.83975" lon="6.76385">
        <ele>1177.4</ele>
        <time>2021-09-19T08:11:32Z</time>
      </trkpt>
      <trkpt lat="43.83979" lon="6.76386">
        <ele>1177.6</ele>
        <time>2021-09-19T08:11:33Z</time>
      </trkpt>
      <trkpt lat="43.83983" lon="6.76387">
        <ele>1177.8</ele>
        <time>2021-09-19T08:11:34Z</time>
      </trkpt>
      <trkpt lat="43.83983" lon="6.76387">
        <ele>1177.9</ele>
        <time>2021-09-19T08:11:35Z</time>
      </trkpt>
      <trkpt lat="43.83991" lon="6.76385">
        <ele>1178.4</ele>
        <time>2021-09-19T08:11:36Z</time>
      </trkpt>
      <trkpt lat="43.83993" lon="6.76385">
        <ele>1178.5</ele>
        <time>2021-09-19T08:11:38Z</time>
      </trkpt>
      <trkpt lat="43.83993" lon="6.76386">
        <ele>1178.5</ele>
        <time>2021-09-19T08:11:39Z</time>
      </trkpt>
      <trkpt lat="43.83993" lon="6.76387">
        <ele>1178.6</ele>
        <time>2021-09-19T08:11:40Z</time>
      </trkpt>
      <trkpt lat="43.83993" lon="6.76388">
        <ele>1178.6</ele>
        <time>2021-09-19T08:11:41Z</time>
      </trkpt>
      <trkpt lat="43.83992" lon="6.7639">
        <ele>1178.7</ele>
        <time>2021-09-19T08:11:43Z</time>
      </trkpt>
      <trkpt lat="43.83961" lon="6.76623">
        <ele>1189.5</ele>
        <time>2021-09-19T08:14:03Z</time>
      </trkpt>
      <trkpt lat="43.83961" lon="6.76632">
        <ele>1189.9</ele>
        <time>2021-09-19T08:14:05Z</time>
      </trkpt>
      <trkpt lat="43.83958" lon="6.76639">
        <ele>1190.3</ele>
        <time>2021-09-19T08:14:07Z</time>
      </trkpt>
      <trkpt lat="43.83953" lon="6.76641">
        <ele>1190.6</ele>
        <time>2021-09-19T08:14:08Z</time>
      </trkpt>
      <trkpt lat="43.8395" lon="6.76642">
        <ele>1190.9</ele>
        <time>2021-09-19T08:14:09Z</time>
      </trkpt>
      <trkpt lat="43.83945" lon="6.76644">
        <ele>1191.2</ele>
        <time>2021-09-19T08:14:10Z</time>
      </trkpt>
      <trkpt lat="43.83942" lon="6.76643">
        <ele>1191.4</ele>
        <time>2021-09-19T08:14:11Z</time>
      </trkpt>
      <trkpt lat="43.83941" lon="6.76643">
        <ele>1191.4</ele>
        <time>2021-09-19T08:14:12Z</time>
      </trkpt>
      <trkpt lat="43.83939" lon="6.76641">
        <ele>1191.6</ele>
        <time>2021-09-19T08:14:13Z</time>
      </trkpt>
      <trkpt lat="43.83938" lon="6.7664">
        <ele>1191.7</ele>
        <time>2021-09-19T08:14:15Z</time>
      </trkpt>
      <trkpt lat="43.83937" lon="6.76639">
        <ele>1191.7</ele>
        <time>2021-09-19T08:14:16Z</time>
      </trkpt>
      <trkpt lat="43.83936" lon="6.76639">
        <ele>1191.8</ele>
        <time>2021-09-19T08:14:17Z</time>
      </trkpt>
      <trkpt lat="43.83931" lon="6.76638">
        <ele>1192</ele>
        <time>2021-09-19T08:14:19Z</time>
      </trkpt>
      <trkpt lat="43.83927" lon="6.76638">
        <ele>1192.3</ele>
        <time>2021-09-19T08:14:21Z</time>
      </trkpt>
      <trkpt lat="43.83922" lon="6.76637">
        <ele>1192.6</ele>
        <time>2021-09-19T08:14:22Z</time>
      </trkpt>
      <trkpt lat="43.8392" lon="6.76637">
        <ele>1192.8</ele>
        <time>2021-09-19T08:14:23Z</time>
      </trkpt>
      <trkpt lat="43.83915" lon="6.76636">
        <ele>1193</ele>
        <time>2021-09-19T08:14:25Z</time>
      </trkpt>
      <trkpt lat="43.83913" lon="6.76637">
        <ele>1193.1</ele>
        <time>2021-09-19T08:14:26Z</time>
      </trkpt>
      <trkpt lat="43.83913" lon="6.76637">
        <ele>1193.2</ele>
        <time>2021-09-19T08:14:27Z</time>
      </trkpt>
      <trkpt lat="43.83912" lon="6.76637">
        <ele>1193.2</ele>
        <time>2021-09-19T08:14:28Z</time>
      </trkpt>
      <trkpt lat="43.83912" lon="6.76638">
        <ele>1193.2</ele>
        <time>2021-09-19T08:14:29Z</time>
      </trkpt>
      <trkpt lat="43.8391" lon="6.76639">
        <ele>1193.3</ele>
        <time>2021-09-19T08:14:31Z</time>
      </trkpt>
      <trkpt lat="43.83991" lon="6.76841">
        <ele>1202.7</ele>
        <time>2021-09-19T08:16:21Z</time>
      </trkpt>
      <trkpt lat="43.83991" lon="6.76843">
        <ele>1202.8</ele>
        <time>2021-09-19T08:16:22Z</time>
      </trkpt>
      <trkpt lat="43.83992" lon="6.76844">
        <ele>1202.8</ele>
        <time>2021-09-19T08:16:23Z</time>
      </trkpt>
      <trkpt lat="43.83992" lon="6.76845">
        <ele>1202.9</ele>
        <time>2021-09-19T08:16:24Z</time>
      </trkpt>
      <trkpt lat="43.83994" lon="6.76846">
        <ele>1203</ele>
        <time>2021-09-19T08:16:26Z</time>
      </trkpt>
      <trkpt lat="43.83995" lon="6.76846">
        <ele>1203.1</ele>
        <time>2021-09-19T08:16:27Z</time>
      </trkpt>
      <trkpt lat="43.83996" lon="6.76847">
        <ele>1203.1</ele>
        <time>2021-09-19T08:16:29Z</time>
      </trkpt>
      <trkpt lat="43.83998" lon="6.76847">
        <ele>1203.2</ele>
        <time>2021-09-19T08:16:30Z</time>
      </trkpt>
      <trkpt lat="43.84" lon="6.76848">
        <ele>1203.3</ele>
        <time>2021-09-19T08:16:32Z</time>
      </trkpt>
      <trkpt lat="43.84001" lon="6.76849">
        <ele>1203.4</ele>
        <time>2021-09-19T08:16:34Z</time>
      </trkpt>
      <trkpt lat="43.84012" lon="6.76846">
        <ele>1204</ele>
        <time>2021-09-19T08:16:35Z</time>
      </trkpt>
      <trkpt lat="43.84025" lon="6.76843">
        <ele>1204.8</ele>
        <time>2021-09-19T08:16:37Z</time>
      </trkpt>
      <trkpt lat="43.84031" lon="6.76842">
        <ele>1205.2</ele>
        <time>2021-09-19T08:16:38Z</time>
      </trkpt>
      <trkpt lat="43.84038" lon="6.76845">
        <ele>1205.6</ele>
        <time>2021-09-19T08:16:40Z</time>
      </trkpt>
      <trkpt lat="43.84052" lon="6.76836">
        <ele>1206.7</ele>
        <time>2021-09-19T08:16:42Z</time>
      </trkpt>
      <trkpt lat="43.84057" lon="6.76834">
        <ele>1207.1</ele>
        <time>2021-09-19T08:16:43Z</time>
      </trkpt>
      <trkpt lat="43.84067" lon="6.76828">
        <ele>1207.7</ele>
        <time>2021-09-19T08:16:44Z</time>
      </trkpt>
      <trkpt lat="43.84075" lon="6.76823">
        <ele>1208.2</ele>
        <time>2021-09-19T08:16:46Z</time>
      </trkpt>
      <trkpt lat="43.84077" lon="6.76822">
        <ele>1208.3</ele>
        <time>2021-09-19T08:16:47Z</time>
      </trkpt>
      <trkpt lat="43.84079" lon="6.76821">
        <ele>1208.4</ele>
        <time>2021-09-19T08:16:49Z</time>
      </trkpt>
      <trkpt lat="43.8408" lon="6.7682">
        <ele>1208.5</ele>
        <time>2021-09-19T08:16:51Z</time>
      </trkpt>
      <trkpt lat="43.84081" lon="6.7682">
        <ele>1208.5</ele>
        <time>2021-09-19T08:16:52Z</time>
      </trkpt>
      <trkpt lat="43.84046" lon="6.76872">
        <ele>1211.3</ele>
        <time>2021-09-19T08:17:09Z</time>
      </trkpt>
      <trkpt lat="43.84044" lon="6.76877">
        <ele>1211.6</ele>
        <time>2021-09-19T08:17:10Z</time>
      </trkpt>
      <trkpt lat="43.84041" lon="6.76885">
        <ele>1212</ele>
        <time>2021-09-19T08:17:12Z</time>
      </trkpt>
      <trkpt lat="43.84035" lon="6.76895">
        <ele>1212.6</ele>
        <time>2021-09-19T08:17:13Z</time>
      </trkpt>
      <trkpt lat="43.8403" lon="6.76904">
        <ele>1213.2</ele>
        <time>2021-09-19T08:17:15Z</time>
      </trkpt>
      <trkpt lat="43.84029" lon="6.76905">
        <ele>1213.2</ele>
        <time>2021-09-19T08:17:16Z</time>
      </trkpt>
      <trkpt lat="43.84029" lon="6.76906">
        <ele>1213.3</ele>
        <time>2021-09-19T08:17:18Z</time>
      </trkpt>
      <trkpt lat="43.8403" lon="6.7691">
        <ele>1213.5</ele>
        <time>2021-09-19T08:17:20Z</time>
      </trkpt>
      <trkpt lat="43.84037" lon="6.76945">
        <ele>1214.8</ele>
        <time>2021-09-19T08:17:45Z</time>
      </trkpt>
      <trkpt lat="43.84038" lon="6.76948">
        <ele>1214.9</ele>
        <time>2021-09-19T08:17:46Z</time>
      </trkpt>
      <trkpt lat="43.84039" lon="6.76951">
        <ele>1215</ele>
        <time>2021-09-19T08:17:47Z</time>
      </trkpt>
      <trkpt lat="43.84041" lon="6.7696">
        <ele>1215.3</ele>
        <time>2021-09-19T08:17:49Z</time>
      </trkpt>
      <trkpt lat="43.84042" lon="6.76964">
        <ele>1215.4</ele>
        <time>2021-09-19T08:17:50Z</time>
      </trkpt>
      <trkpt lat="43.84044" lon="6.76968">
        <ele>1215.5</ele>
        <time>2021-09-19T08:17:51Z</time>
      </trkpt>
      <trkpt lat="43.84044" lon="6.7697">
        <ele>1215.5</ele>
        <time>2021-09-19T08:17:52Z</time>
      </trkpt>
      <trkpt lat="43.8405" lon="6.76993">
        <ele>1216.1</ele>
        <time>2021-09-19T08:17:54Z</time>
      </trkpt>
      <trkpt lat="43.84055" lon="6.77012">
        <ele>1216.7</ele>
        <time>2021-09-19T08:17:56Z</time>
      </trkpt>
      <trkpt lat="43.8406" lon="6.77031">
        <ele>1217.3</ele>
        <time>2021-09-19T08:18:35Z</time>
      </trkpt>
      <trkpt lat="43.84064" lon="6.7705">
        <ele>1218</ele>
        <time>2021-09-19T08:18:36Z</time>
      </trkpt>
      <trkpt lat="43.84063" lon="6.77059">
        <ele>1219.6</ele>
        <time>2021-09-19T08:18:37Z</time>
      </trkpt>
      <trkpt lat="43.84061" lon="6.77068">
        <ele>1222.3</ele>
        <time>2021-09-19T08:18:39Z</time>
      </trkpt>
      <trkpt lat="43.84058" lon="6.77074">
        <ele>1224.4</ele>
        <time>2021-09-19T08:18:40Z</time>
      </trkpt>
      <trkpt lat="43.84056" lon="6.77081">
        <ele>1227.1</ele>
        <time>2021-09-19T08:18:41Z</time>
      </trkpt>
      <trkpt lat="43.84053" lon="6.77085">
        <ele>1229.1</ele>
        <time>2021-09-19T08:18:42Z</time>
      </trkpt>
      <trkpt lat="43.84052" lon="6.77086">
        <ele>1229.2</ele>
        <time>2021-09-19T08:18:43Z</time>
      </trkpt>
      <trkpt lat="43.84051" lon="6.77089">
        <ele>1230</ele>
        <time>2021-09-19T08:18:44Z</time>
      </trkpt>
      <trkpt lat="43.8405" lon="6.77092">
        <ele>1231.3</ele>
        <time>2021-09-19T08:18:46Z</time>
      </trkpt>
      <trkpt lat="43.84048" lon="6.77096">
        <ele>1232</ele>
        <time>2021-09-19T08:18:47Z</time>
      </trkpt>
      <trkpt lat="43.84048" lon="6.77097">
        <ele>1232.1</ele>
        <time>2021-09-19T08:18:48Z</time>
      </trkpt>
      <trkpt lat="43.84048" lon="6.77103">
        <ele>1233.4</ele>
        <time>2021-09-19T08:18:49Z</time>
      </trkpt>
      <trkpt lat="43.84047" lon="6.77106">
        <ele>1234.1</ele>
        <time>2021-09-19T08:18:50Z</time>
      </trkpt>
      <trkpt lat="43.84048" lon="6.77108">
        <ele>1234.2</ele>
        <time>2021-09-19T08:18:51Z</time>
      </trkpt>
      <trkpt lat="43.84048" lon="6.77108">
        <ele>1234.3</ele>
        <time>2021-09-19T08:18:53Z</time>
      </trkpt>
      <trkpt lat="43.84048" lon="6.77108">
        <ele>1234.4</ele>
        <time>2021-09-19T08:18:54Z</time>
      </trkpt>
      <trkpt lat="43.84048" lon="6.77109">
        <ele>1234.5</ele>
        <time>2021-09-19T08:18:55Z</time>
      </trkpt>
      <trkpt lat="43.84048" lon="6.77109">
        <ele>1234.6</ele>
        <time>2021-09-19T08:18:56Z</time>
      </trkpt>
      <trkpt lat="43.84048" lon="6.77109">
        <ele>1234.7</ele>
        <time>2021-09-19T08:18:57Z</time>
      </trkpt>
      <trkpt lat="43.84048" lon="6.77109">
        <ele>1234.8</ele>
        <time>2021-09-19T08:18:59Z</time>
      </trkpt>
      <trkpt lat="43.84104" lon="6.77114">
        <ele>1219.9</ele>
        <time>2021-09-19T08:19:27Z</time>
      </trkpt>
      <trkpt lat="43.84108" lon="6.77118">
        <ele>1221.1</ele>
        <time>2021-09-19T08:19:28Z</time>
      </trkpt>
      <trkpt lat="43.84113" lon="6.77121">
        <ele>1220.3</ele>
        <time>2021-09-19T08:19:29Z</time>
      </trkpt>
      <trkpt lat="43.84117" lon="6.77123">
        <ele>1220.9</ele>
        <time>2021-09-19T08:19:30Z</time>
      </trkpt>
      <trkpt lat="43.84122" lon="6.77129">
        <ele>1221.5</ele>
        <time>2021-09-19T08:19:32Z</time>
      </trkpt>
      <trkpt lat="43.84126" lon="6.77134">
        <ele>1222.4</ele>
        <time>2021-09-19T08:19:33Z</time>
      </trkpt>
      <trkpt lat="43.84128" lon="6.77139">
        <ele>1223.3</ele>
        <time>2021-09-19T08:19:35Z</time>
      </trkpt>
      <trkpt lat="43.84128" lon="6.77144">
        <ele>1225.1</ele>
        <time>2021-09-19T08:19:36Z</time>
      </trkpt>
      <trkpt lat="43.84128" lon="6.77147">
        <ele>1225.2</ele>
        <time>2021-09-19T08:19:37Z</time>
      </trkpt>
      <trkpt lat="43.84128" lon="6.77152">
        <ele>1226.1</ele>
        <time>2021-09-19T08:19:39Z</time>
      </trkpt>
      <trkpt lat="43.84127" lon="6.77154">
        <ele>1227.1</ele>
        <time>2021-09-19T08:19:40Z</time>
      </trkpt>
      <trkpt lat="43.84127" lon="6.77157">
        <ele>1228</ele>
        <time>2021-09-19T08:19:41Z</time>
      </trkpt>
      <trkpt lat="43.84123" lon="6.7716">
        <ele>1228.2</ele>
        <time>2021-09-19T08:19:43Z</time>
      </trkpt>
      <trkpt lat="43.84121" lon="6.77161">
        <ele>1228.3</ele>
        <time>2021-09-19T08:19:44Z</time>
      </trkpt>
      <trkpt lat="43.8412" lon="6.77161">
        <ele>1229.4</ele>
        <time>2021-09-19T08:19:45Z</time>
      </trkpt>
      <trkpt lat="43.84118" lon="6.77161">
        <ele>1229.5</ele>
        <time>2021-09-19T08:19:46Z</time>
      </trkpt>
      <trkpt lat="43.84117" lon="6.77161">
        <ele>1229.8</ele>
        <time>2021-09-19T08:19:48Z</time>
      </trkpt>
      <trkpt lat="43.84115" lon="6.77161">
        <ele>1230.2</ele>
        <time>2021-09-19T08:19:49Z</time>
      </trkpt>
      <trkpt lat="43.84114" lon="6.77161">
        <ele>1229.5</ele>
        <time>2021-09-19T08:19:50Z</time>
      </trkpt>
      <trkpt lat="43.84113" lon="6.77161">
        <ele>1229.6</ele>
        <time>2021-09-19T08:19:51Z</time>
      </trkpt>
      <trkpt lat="43.84105" lon="6.77153">
        <ele>1230</ele>
        <time>2021-09-19T08:19:57Z</time>
      </trkpt>
      <trkpt lat="43.84103" lon="6.77148">
        <ele>1229</ele>
        <time>2021-09-19T08:19:59Z</time>
      </trkpt>
      <trkpt lat="43.841" lon="6.77145">
        <ele>1229.1</ele>
        <time>2021-09-19T08:20:00Z</time>
      </trkpt>
      <trkpt lat="43.84099" lon="6.77144">
        <ele>1228.9</ele>
        <time>2021-09-19T08:20:01Z</time>
      </trkpt>
      <trkpt lat="43.84096" lon="6.77144">
        <ele>1229.6</ele>
        <time>2021-09-19T08:20:02Z</time>
      </trkpt>
      <trkpt lat="43.84095" lon="6.77144">
        <ele>1229.7</ele>
        <time>2021-09-19T08:20:03Z</time>
      </trkpt>
      <trkpt lat="43.84092" lon="6.77143">
        <ele>1230.4</ele>
        <time>2021-09-19T08:20:04Z</time>
      </trkpt>
      <trkpt lat="43.8409" lon="6.7714">
        <ele>1231.2</ele>
        <time>2021-09-19T08:20:06Z</time>
      </trkpt>
      <trkpt lat="43.84089" lon="6.7714">
        <ele>1230.5</ele>
        <time>2021-09-19T08:20:07Z</time>
      </trkpt>
      <trkpt lat="43.84088" lon="6.77138">
        <ele>1230.6</ele>
        <time>2021-09-19T08:20:08Z</time>
      </trkpt>
      <trkpt lat="43.84087" lon="6.77136">
        <ele>1231.5</ele>
        <time>2021-09-19T08:20:09Z</time>
      </trkpt>
      <trkpt lat="43.84086" lon="6.77134">
        <ele>1230.7</ele>
        <time>2021-09-19T08:20:11Z</time>
      </trkpt>
      <trkpt lat="43.84084" lon="6.7713">
        <ele>1230</ele>
        <time>2021-09-19T08:20:13Z</time>
      </trkpt>
      <trkpt lat="43.84082" lon="6.77128">
        <ele>1231</ele>
        <time>2021-09-19T08:20:14Z</time>
      </trkpt>
      <trkpt lat="43.84081" lon="6.77127">
        <ele>1231.1</ele>
        <time>2021-09-19T08:20:15Z</time>
      </trkpt>
      <trkpt lat="43.84082" lon="6.77124">
        <ele>1230.4</ele>
        <time>2021-09-19T08:20:16Z</time>
      </trkpt>
      <trkpt lat="43.84083" lon="6.77122">
        <ele>1229.7</ele>
        <time>2021-09-19T08:20:17Z</time>
      </trkpt>
      <trkpt lat="43.84083" lon="6.7712">
        <ele>1229.8</ele>
        <time>2021-09-19T08:20:18Z</time>
      </trkpt>
      <trkpt lat="43.84085" lon="6.77119">
        <ele>1229.1</ele>
        <time>2021-09-19T08:20:19Z</time>
      </trkpt>
      <trkpt lat="43.84086" lon="6.77119">
        <ele>1229.2</ele>
        <time>2021-09-19T08:20:21Z</time>
      </trkpt>
      <trkpt lat="43.84087" lon="6.77118">
        <ele>1228.5</ele>
        <time>2021-09-19T08:20:22Z</time>
      </trkpt>
      <trkpt lat="43.84088" lon="6.77118">
        <ele>1227.8</ele>
        <time>2021-09-19T08:20:23Z</time>
      </trkpt>
      <trkpt lat="43.84088" lon="6.77118">
        <ele>1227.9</ele>
        <time>2021-09-19T08:20:25Z</time>
      </trkpt>
      <trkpt lat="43.84089" lon="6.77117">
        <ele>1228</ele>
        <time>2021-09-19T08:20:27Z</time>
      </trkpt>
      <trkpt lat="43.8409" lon="6.77115">
        <ele>1228.1</ele>
        <time>2021-09-19T08:20:28Z</time>
      </trkpt>
      <trkpt lat="43.84092" lon="6.77098">
        <ele>1224.5</ele>
        <time>2021-09-19T08:20:40Z</time>
      </trkpt>
      <trkpt lat="43.84091" lon="6.77096">
        <ele>1223.8</ele>
        <time>2021-09-19T08:20:41Z</time>
      </trkpt>
      <trkpt lat="43.84091" lon="6.77093">
        <ele>1223.9</ele>
        <time>2021-09-19T08:20:43Z</time>
      </trkpt>
      <trkpt lat="43.8409" lon="6.77092">
        <ele>1223.2</ele>
        <time>2021-09-19T08:20:44Z</time>
      </trkpt>
      <trkpt lat="43.8409" lon="6.77091">
        <ele>1224.1</ele>
        <time>2021-09-19T08:20:46Z</time>
      </trkpt>
      <trkpt lat="43.84089" lon="6.7709">
        <ele>1224.2</ele>
        <time>2021-09-19T08:20:49Z</time>
      </trkpt>
      <trkpt lat="43.84089" lon="6.77089">
        <ele>1224.3</ele>
        <time>2021-09-19T08:20:50Z</time>
      </trkpt>
      <trkpt lat="43.84089" lon="6.77089">
        <ele>1224.4</ele>
        <time>2021-09-19T08:20:52Z</time>
      </trkpt>
      <trkpt lat="43.84051" lon="6.77055">
        <ele>1231.2</ele>
        <time>2021-09-19T08:21:16Z</time>
      </trkpt>
      <trkpt lat="43.84048" lon="6.77051">
        <ele>1231.8</ele>
        <time>2021-09-19T08:21:17Z</time>
      </trkpt>
      <trkpt lat="43.84047" lon="6.7705">
        <ele>1233.1</ele>
        <time>2021-09-19T08:21:18Z</time>
      </trkpt>
      <trkpt lat="43.84046" lon="6.77048">
        <ele>1232.5</ele>
        <time>2021-09-19T08:21:19Z</time>
      </trkpt>
      <trkpt lat="43.84045" lon="6.77047">
        <ele>1232.6</ele>
        <time>2021-09-19T08:21:20Z</time>
      </trkpt>
      <trkpt lat="43.84042" lon="6.77043">
        <ele>1233.1</ele>
        <time>2021-09-19T08:21:21Z</time>
      </trkpt>
      <trkpt lat="43.84041" lon="6.77042">
        <ele>1233.2</ele>
        <time>2021-09-19T08:21:22Z</time>
      </trkpt>
      <trkpt lat="43.8404" lon="6.77039">
        <ele>1233.8</ele>
        <time>2021-09-19T08:21:24Z</time>
      </trkpt>
      <trkpt lat="43.84039" lon="6.77036">
        <ele>1233</ele>
        <time>2021-09-19T08:21:26Z</time>
      </trkpt>
      <trkpt lat="43.84037" lon="6.77032">
        <ele>1233.6</ele>
        <time>2021-09-19T08:21:27Z</time>
      </trkpt>
      <trkpt lat="43.84036" lon="6.77031">
        <ele>1233.7</ele>
        <time>2021-09-19T08:21:28Z</time>
      </trkpt>
      <trkpt lat="43.8403" lon="6.77032">
        <ele>1236.4</ele>
        <time>2021-09-19T08:21:30Z</time>
      </trkpt>
      <trkpt lat="43.84024" lon="6.77034">
        <ele>1239.8</ele>
        <time>2021-09-19T08:21:31Z</time>
      </trkpt>
      <trkpt lat="43.84018" lon="6.77036">
        <ele>1242.2</ele>
        <time>2021-09-19T08:21:33Z</time>
      </trkpt>
      <trkpt lat="43.84011" lon="6.77038">
        <ele>1245</ele>
        <time>2021-09-19T08:21:34Z</time>
      </trkpt>
      <trkpt lat="43.84005" lon="6.7704">
        <ele>1247</ele>
        <time>2021-09-19T08:21:36Z</time>
      </trkpt>
      <trkpt lat="43.83999" lon="6.77042">
        <ele>1249.5</ele>
        <time>2021-09-19T08:21:37Z</time>
      </trkpt>
      <trkpt lat="43.83993" lon="6.77044">
        <ele>1251.3</ele>
        <time>2021-09-19T08:21:38Z</time>
      </trkpt>
      <trkpt lat="43.83987" lon="6.77046">
        <ele>1253.2</ele>
        <time>2021-09-19T08:25:14Z</time>
      </trkpt>
      <trkpt lat="43.83981" lon="6.77048">
        <ele>1254.4</ele>
        <time>2021-09-19T08:25:15Z</time>
      </trkpt>
      <trkpt lat="43.83975" lon="6.7705">
        <ele>1255.8</ele>
        <time>2021-09-19T08:25:16Z</time>
      </trkpt>
      <trkpt lat="43.83982" lon="6.77057">
        <ele>1256.2</ele>
        <time>2021-09-19T08:25:18Z</time>
      </trkpt>
      <trkpt lat="43.83985" lon="6.77059">
        <ele>1256.4</ele>
        <time>2021-09-19T08:25:19Z</time>
      </trkpt>
      <trkpt lat="43.83986" lon="6.77062">
        <ele>1256.6</ele>
        <time>2021-09-19T08:25:20Z</time>
      </trkpt>
      <trkpt lat="43.83988" lon="6.77066">
        <ele>1256.7</ele>
        <time>2021-09-19T08:25:22Z</time>
      </trkpt>
      <trkpt lat="43.83991" lon="6.77065">
        <ele>1256.9</ele>
        <time>2021-09-19T08:25:24Z</time>
      </trkpt>
      <trkpt lat="43.83992" lon="6.77066">
        <ele>1257</ele>
        <time>2021-09-19T08:25:25Z</time>
      </trkpt>
      <trkpt lat="43.83993" lon="6.77066">
        <ele>1257</ele>
        <time>2021-09-19T08:25:26Z</time>
      </trkpt>
      <trkpt lat="43.83997" lon="6.77067">
        <ele>1257.3</ele>
        <time>2021-09-19T08:25:28Z</time>
      </trkpt>
      <trkpt lat="43.84" lon="6.77068">
        <ele>1257.4</ele>
        <time>2021-09-19T08:25:29Z</time>
      </trkpt>
      <trkpt lat="43.84004" lon="6.77069">
        <ele>1257.6</ele>
        <time>2021-09-19T08:25:30Z</time>
      </trkpt>
      <trkpt lat="43.84004" lon="6.77069">
        <ele>1257.7</ele>
        <time>2021-09-19T08:25:31Z</time>
      </trkpt>
      <trkpt lat="43.84008" lon="6.77072">
        <ele>1257.9</ele>
        <time>2021-09-19T08:25:32Z</time>
      </trkpt>
      <trkpt lat="43.84009" lon="6.77074">
        <ele>1258</ele>
        <time>2021-09-19T08:25:33Z</time>
      </trkpt>
      <trkpt lat="43.84011" lon="6.77078">
        <ele>1258.3</ele>
        <time>2021-09-19T08:25:35Z</time>
      </trkpt>
      <trkpt lat="43.84012" lon="6.77081">
        <ele>1258.5</ele>
        <time>2021-09-19T08:25:36Z</time>
      </trkpt>
      <trkpt lat="43.84012" lon="6.77082">
        <ele>1258.6</ele>
        <time>2021-09-19T08:25:37Z</time>
      </trkpt>
      <trkpt lat="43.84013" lon="6.77085">
        <ele>1258.7</ele>
        <time>2021-09-19T08:25:38Z</time>
      </trkpt>
      <trkpt lat="43.84013" lon="6.77087">
        <ele>1258.8</ele>
        <time>2021-09-19T08:25:39Z</time>
      </trkpt>
      <trkpt lat="43.84014" lon="6.77089">
        <ele>1258.9</ele>
        <time>2021-09-19T08:25:40Z</time>
      </trkpt>
      <trkpt lat="43.84014" lon="6.77091">
        <ele>1259</ele>
        <time>2021-09-19T08:25:41Z</time>
      </trkpt>
      <trkpt lat="43.84013" lon="6.77095">
        <ele>1259.2</ele>
        <time>2021-09-19T08:25:43Z</time>
      </trkpt>
      <trkpt lat="43.84012" lon="6.77097">
        <ele>1259.3</ele>
        <time>2021-09-19T08:25:44Z</time>
      </trkpt>
      <trkpt lat="43.84011" lon="6.77101">
        <ele>1259.4</ele>
        <time>2021-09-19T08:25:45Z</time>
      </trkpt>
      <trkpt lat="43.84009" lon="6.77106">
        <ele>1259.5</ele>
        <time>2021-09-19T08:25:47Z</time>
      </trkpt>
      <trkpt lat="43.84008" lon="6.77112">
        <ele>1259.7</ele>
        <time>2021-09-19T08:25:48Z</time>
      </trkpt>
      <trkpt lat="43.84007" lon="6.77117">
        <ele>1259.8</ele>
        <time>2021-09-19T08:25:50Z</time>
      </trkpt>
      <trkpt lat="43.84006" lon="6.77122">
        <ele>1259.9</ele>
        <time>2021-09-19T08:25:51Z</time>
      </trkpt>
      <trkpt lat="43.84006" lon="6.77123">
        <ele>1259.9</ele>
        <time>2021-09-19T08:25:52Z</time>
      </trkpt>
      <trkpt lat="43.84005" lon="6.77128">
        <ele>1260</ele>
        <time>2021-09-19T08:25:54Z</time>
      </trkpt>
      <trkpt lat="43.84007" lon="6.77129">
        <ele>1260.1</ele>
        <time>2021-09-19T08:25:55Z</time>
      </trkpt>
      <trkpt lat="43.84011" lon="6.7713">
        <ele>1260.1</ele>
        <time>2021-09-19T08:25:57Z</time>
      </trkpt>
      <trkpt lat="43.84016" lon="6.77133">
        <ele>1260.3</ele>
        <time>2021-09-19T08:25:58Z</time>
      </trkpt>
      <trkpt lat="43.84018" lon="6.77137">
        <ele>1260.4</ele>
        <time>2021-09-19T08:25:59Z</time>
      </trkpt>
      <trkpt lat="43.8402" lon="6.77142">
        <ele>1260.5</ele>
        <time>2021-09-19T08:26:00Z</time>
      </trkpt>
      <trkpt lat="43.84024" lon="6.77151">
        <ele>1260.9</ele>
        <time>2021-09-19T08:26:02Z</time>
      </trkpt>
      <trkpt lat="43.84027" lon="6.77153">
        <ele>1261</ele>
        <time>2021-09-19T08:26:04Z</time>
      </trkpt>
      <trkpt lat="43.8403" lon="6.77154">
        <ele>1261.2</ele>
        <time>2021-09-19T08:26:05Z</time>
      </trkpt>
      <trkpt lat="43.84033" lon="6.77154">
        <ele>1261.3</ele>
        <time>2021-09-19T08:26:06Z</time>
      </trkpt>
      <trkpt lat="43.84034" lon="6.77154">
        <ele>1261.3</ele>
        <time>2021-09-19T08:26:08Z</time>
      </trkpt>
      <trkpt lat="43.84034" lon="6.77153">
        <ele>1261.3</ele>
        <time>2021-09-19T08:26:09Z</time>
      </trkpt>
      <trkpt lat="43.84035" lon="6.77155">
        <ele>1261.4</ele>
        <time>2021-09-19T08:26:10Z</time>
      </trkpt>
      <trkpt lat="43.84036" lon="6.77157">
        <ele>1261.5</ele>
        <time>2021-09-19T08:26:11Z</time>
      </trkpt>
      <trkpt lat="43.84036" lon="6.77162">
        <ele>1261.6</ele>
        <time>2021-09-19T08:26:12Z</time>
      </trkpt>
      <trkpt lat="43.84036" lon="6.77164">
        <ele>1261.7</ele>
        <time>2021-09-19T08:26:13Z</time>
      </trkpt>
      <trkpt lat="43.84035" lon="6.77168">
        <ele>1261.8</ele>
        <time>2021-09-19T08:26:14Z</time>
      </trkpt>
      <trkpt lat="43.84035" lon="6.77172">
        <ele>1261.9</ele>
        <time>2021-09-19T08:26:16Z</time>
      </trkpt>
      <trkpt lat="43.84036" lon="6.77173">
        <ele>1261.9</ele>
        <time>2021-09-19T08:26:17Z</time>
      </trkpt>
      <trkpt lat="43.84037" lon="6.77177">
        <ele>1262</ele>
        <time>2021-09-19T08:26:18Z</time>
      </trkpt>
      <trkpt lat="43.84037" lon="6.77178">
        <ele>1262</ele>
        <time>2021-09-19T08:26:19Z</time>
      </trkpt>
      <trkpt lat="43.84038" lon="6.77183">
        <ele>1262.1</ele>
        <time>2021-09-19T08:26:22Z</time>
      </trkpt>
      <trkpt lat="43.84042" lon="6.77189">
        <ele>1262.2</ele>
        <time>2021-09-19T08:26:24Z</time>
      </trkpt>
      <trkpt lat="43.84045" lon="6.77194">
        <ele>1262.3</ele>
        <time>2021-09-19T08:26:25Z</time>
      </trkpt>
      <trkpt lat="43.84045" lon="6.77197">
        <ele>1262.3</ele>
        <time>2021-09-19T08:26:26Z</time>
      </trkpt>
      <trkpt lat="43.84045" lon="6.77202">
        <ele>1262.4</ele>
        <time>2021-09-19T08:26:28Z</time>
      </trkpt>
      <trkpt lat="43.84044" lon="6.77206">
        <ele>1262.4</ele>
        <time>2021-09-19T08:26:29Z</time>
      </trkpt>
      <trkpt lat="43.84044" lon="6.77212">
        <ele>1262.4</ele>
        <time>2021-09-19T08:26:30Z</time>
      </trkpt>
      <trkpt lat="43.84043" lon="6.77214">
        <ele>1262.4</ele>
        <time>2021-09-19T08:26:31Z</time>
      </trkpt>
      <trkpt lat="43.84044" lon="6.77217">
        <ele>1262.5</ele>
        <time>2021-09-19T08:26:32Z</time>
      </trkpt>
      <trkpt lat="43.84046" lon="6.77219">
        <ele>1262.5</ele>
        <time>2021-09-19T08:26:34Z</time>
      </trkpt>
      <trkpt lat="43.84049" lon="6.77221">
        <ele>1262.5</ele>
        <time>2021-09-19T08:26:35Z</time>
      </trkpt>
      <trkpt lat="43.84054" lon="6.77224">
        <ele>1262.5</ele>
        <time>2021-09-19T08:26:36Z</time>
      </trkpt>
      <trkpt lat="43.84058" lon="6.77228">
        <ele>1262.5</ele>
        <time>2021-09-19T08:26:38Z</time>
      </trkpt>
      <trkpt lat="43.84062" lon="6.77236">
        <ele>1262.5</ele>
        <time>2021-09-19T08:26:40Z</time>
      </trkpt>
      <trkpt lat="43.84064" lon="6.77246">
        <ele>1262.5</ele>
        <time>2021-09-19T08:26:42Z</time>
      </trkpt>
      <trkpt lat="43.84065" lon="6.77257">
        <ele>1262.5</ele>
        <time>2021-09-19T08:26:44Z</time>
      </trkpt>
      <trkpt lat="43.84066" lon="6.77266">
        <ele>1262.5</ele>
        <time>2021-09-19T08:26:45Z</time>
      </trkpt>
      <trkpt lat="43.84066" lon="6.77273">
        <ele>1262.5</ele>
        <time>2021-09-19T08:26:46Z</time>
      </trkpt>
      <trkpt lat="43.84066" lon="6.77279">
        <ele>1262.5</ele>
        <time>2021-09-19T08:26:48Z</time>
      </trkpt>
      <trkpt lat="43.84067" lon="6.77283">
        <ele>1262.5</ele>
        <time>2021-09-19T08:26:49Z</time>
      </trkpt>
      <trkpt lat="43.84069" lon="6.7729">
        <ele>1262.5</ele>
        <time>2021-09-19T08:26:50Z</time>
      </trkpt>
      <trkpt lat="43.84072" lon="6.77297">
        <ele>1262.4</ele>
        <time>2021-09-19T08:26:52Z</time>
      </trkpt>
      <trkpt lat="43.84074" lon="6.77301">
        <ele>1262.4</ele>
        <time>2021-09-19T08:26:53Z</time>
      </trkpt>
      <trkpt lat="43.84076" lon="6.77306">
        <ele>1262.4</ele>
        <time>2021-09-19T08:26:54Z</time>
      </trkpt>
      <trkpt lat="43.84079" lon="6.77311">
        <ele>1262.5</ele>
        <time>2021-09-19T08:26:55Z</time>
      </trkpt>
      <trkpt lat="43.84087" lon="6.77316">
        <ele>1262.6</ele>
        <time>2021-09-19T08:26:57Z</time>
      </trkpt>
      <trkpt lat="43.84089" lon="6.77321">
        <ele>1262.6</ele>
        <time>2021-09-19T08:26:58Z</time>
      </trkpt>
      <trkpt lat="43.8409" lon="6.77326">
        <ele>1262.7</ele>
        <time>2021-09-19T08:26:59Z</time>
      </trkpt>
      <trkpt lat="43.84091" lon="6.77334">
        <ele>1262.9</ele>
        <time>2021-09-19T08:27:00Z</time>
      </trkpt>
      <trkpt lat="43.84094" lon="6.77339">
        <ele>1263</ele>
        <time>2021-09-19T08:27:02Z</time>
      </trkpt>
      <trkpt lat="43.84097" lon="6.77343">
        <ele>1263.2</ele>
        <time>2021-09-19T08:27:04Z</time>
      </trkpt>
      <trkpt lat="43.84099" lon="6.77347">
        <ele>1263.3</ele>
        <time>2021-09-19T08:27:05Z</time>
      </trkpt>
      <trkpt lat="43.841" lon="6.77351">
        <ele>1263.4</ele>
        <time>2021-09-19T08:27:07Z</time>
      </trkpt>
      <trkpt lat="43.84101" lon="6.77353">
        <ele>1263.5</ele>
        <time>2021-09-19T08:27:08Z</time>
      </trkpt>
      <trkpt lat="43.84101" lon="6.77355">
        <ele>1263.7</ele>
        <time>2021-09-19T08:27:09Z</time>
      </trkpt>
      <trkpt lat="43.841" lon="6.77359">
        <ele>1263.7</ele>
        <time>2021-09-19T08:27:10Z</time>
      </trkpt>
      <trkpt lat="43.841" lon="6.7736">
        <ele>1263.7</ele>
        <time>2021-09-19T08:27:11Z</time>
      </trkpt>
      <trkpt lat="43.841" lon="6.77364">
        <ele>1263.8</ele>
        <time>2021-09-19T08:27:12Z</time>
      </trkpt>
      <trkpt lat="43.84098" lon="6.77368">
        <ele>1263.9</ele>
        <time>2021-09-19T08:27:14Z</time>
      </trkpt>
      <trkpt lat="43.84096" lon="6.77372">
        <ele>1264</ele>
        <time>2021-09-19T08:27:15Z</time>
      </trkpt>
      <trkpt lat="43.84096" lon="6.77374">
        <ele>1264.1</ele>
        <time>2021-09-19T08:27:16Z</time>
      </trkpt>
      <trkpt lat="43.84095" lon="6.77381">
        <ele>1264.3</ele>
        <time>2021-09-19T08:27:18Z</time>
      </trkpt>
      <trkpt lat="43.84097" lon="6.77386">
        <ele>1264.5</ele>
        <time>2021-09-19T08:27:19Z</time>
      </trkpt>
      <trkpt lat="43.84097" lon="6.77387">
        <ele>1264.5</ele>
        <time>2021-09-19T08:27:20Z</time>
      </trkpt>
      <trkpt lat="43.84098" lon="6.77392">
        <ele>1264.7</ele>
        <time>2021-09-19T08:27:21Z</time>
      </trkpt>
      <trkpt lat="43.84098" lon="6.77393">
        <ele>1264.8</ele>
        <time>2021-09-19T08:27:22Z</time>
      </trkpt>
      <trkpt lat="43.84098" lon="6.77396">
        <ele>1264.8</ele>
        <time>2021-09-19T08:27:24Z</time>
      </trkpt>
      <trkpt lat="43.84101" lon="6.77399">
        <ele>1265</ele>
        <time>2021-09-19T08:27:26Z</time>
      </trkpt>
      <trkpt lat="43.84106" lon="6.77403">
        <ele>1265.4</ele>
        <time>2021-09-19T08:27:28Z</time>
      </trkpt>
      <trkpt lat="43.84109" lon="6.77406">
        <ele>1265.6</ele>
        <time>2021-09-19T08:27:29Z</time>
      </trkpt>
      <trkpt lat="43.8411" lon="6.77408">
        <ele>1265.7</ele>
        <time>2021-09-19T08:27:30Z</time>
      </trkpt>
      <trkpt lat="43.84112" lon="6.7741">
        <ele>1265.8</ele>
        <time>2021-09-19T08:27:31Z</time>
      </trkpt>
      <trkpt lat="43.84115" lon="6.77414">
        <ele>1266.1</ele>
        <time>2021-09-19T08:27:33Z</time>
      </trkpt>
      <trkpt lat="43.84116" lon="6.77416">
        <ele>1266.1</ele>
        <time>2021-09-19T08:27:34Z</time>
      </trkpt>
      <trkpt lat="43.84117" lon="6.77418">
        <ele>1266.3</ele>
        <time>2021-09-19T08:27:35Z</time>
      </trkpt>
      <trkpt lat="43.84119" lon="6.77423">
        <ele>1266.5</ele>
        <time>2021-09-19T08:27:36Z</time>
      </trkpt>
      <trkpt lat="43.8412" lon="6.77426">
        <ele>1266.6</ele>
        <time>2021-09-19T08:27:37Z</time>
      </trkpt>
      <trkpt lat="43.8412" lon="6.77429">
        <ele>1266.7</ele>
        <time>2021-09-19T08:27:38Z</time>
      </trkpt>
      <trkpt lat="43.84119" lon="6.77431">
        <ele>1266.8</ele>
        <time>2021-09-19T08:27:39Z</time>
      </trkpt>
      <trkpt lat="43.84115" lon="6.77434">
        <ele>1267.1</ele>
        <time>2021-09-19T08:27:41Z</time>
      </trkpt>
      <trkpt lat="43.84114" lon="6.77435">
        <ele>1267.2</ele>
        <time>2021-09-19T08:27:42Z</time>
      </trkpt>
      <trkpt lat="43.84113" lon="6.77437">
        <ele>1267.3</ele>
        <time>2021-09-19T08:27:43Z</time>
      </trkpt>
      <trkpt lat="43.84111" lon="6.77439">
        <ele>1267.5</ele>
        <time>2021-09-19T08:27:45Z</time>
      </trkpt>
      <trkpt lat="43.8411" lon="6.77438">
        <ele>1267.6</ele>
        <time>2021-09-19T08:27:46Z</time>
      </trkpt>
      <trkpt lat="43.84109" lon="6.77438">
        <ele>1267.6</ele>
        <time>2021-09-19T08:27:47Z</time>
      </trkpt>
      <trkpt lat="43.84108" lon="6.7744">
        <ele>1267.8</ele>
        <time>2021-09-19T08:27:49Z</time>
      </trkpt>
      <trkpt lat="43.84108" lon="6.77442">
        <ele>1267.9</ele>
        <time>2021-09-19T08:27:50Z</time>
      </trkpt>
      <trkpt lat="43.84108" lon="6.77442">
        <ele>1267.9</ele>
        <time>2021-09-19T08:27:51Z</time>
      </trkpt>
      <trkpt lat="43.84107" lon="6.77441">
        <ele>1268</ele>
        <time>2021-09-19T08:27:52Z</time>
      </trkpt>
      <trkpt lat="43.84106" lon="6.7744">
        <ele>1268</ele>
        <time>2021-09-19T08:27:53Z</time>
      </trkpt>
      <trkpt lat="43.84106" lon="6.7744">
        <ele>1268.1</ele>
        <time>2021-09-19T08:27:54Z</time>
      </trkpt>
      <trkpt lat="43.84105" lon="6.77441">
        <ele>1268.1</ele>
        <time>2021-09-19T08:27:56Z</time>
      </trkpt>
      <trkpt lat="43.84105" lon="6.77443">
        <ele>1268.2</ele>
        <time>2021-09-19T08:27:57Z</time>
      </trkpt>
      <trkpt lat="43.84104" lon="6.77446">
        <ele>1268.4</ele>
        <time>2021-09-19T08:27:59Z</time>
      </trkpt>
      <trkpt lat="43.84108" lon="6.7745">
        <ele>1268.7</ele>
        <time>2021-09-19T08:28:00Z</time>
      </trkpt>
      <trkpt lat="43.84112" lon="6.77453">
        <ele>1269.1</ele>
        <time>2021-09-19T08:29:34Z</time>
      </trkpt>
      <trkpt lat="43.84117" lon="6.77456">
        <ele>1272.8</ele>
        <time>2021-09-19T08:29:35Z</time>
      </trkpt>
      <trkpt lat="43.84121" lon="6.77459">
        <ele>1273.5</ele>
        <time>2021-09-19T08:29:36Z</time>
      </trkpt>
      <trkpt lat="43.84123" lon="6.77458">
        <ele>1273.8</ele>
        <time>2021-09-19T08:29:38Z</time>
      </trkpt>
      <trkpt lat="43.84127" lon="6.77456">
        <ele>1274.4</ele>
        <time>2021-09-19T08:29:40Z</time>
      </trkpt>
      <trkpt lat="43.84127" lon="6.77455">
        <ele>1274.4</ele>
        <time>2021-09-19T08:29:41Z</time>
      </trkpt>
      <trkpt lat="43.84127" lon="6.77455">
        <ele>1274.5</ele>
        <time>2021-09-19T08:29:43Z</time>
      </trkpt>
      <trkpt lat="43.84128" lon="6.77454">
        <ele>1274.7</ele>
        <time>2021-09-19T08:29:45Z</time>
      </trkpt>
      <trkpt lat="43.84129" lon="6.77453">
        <ele>1274.7</ele>
        <time>2021-09-19T08:29:46Z</time>
      </trkpt>
      <trkpt lat="43.84129" lon="6.77453">
        <ele>1274.8</ele>
        <time>2021-09-19T08:29:47Z</time>
      </trkpt>
      <trkpt lat="43.84129" lon="6.77453">
        <ele>1274.9</ele>
        <time>2021-09-19T08:29:48Z</time>
      </trkpt>
      <trkpt lat="43.84137" lon="6.77454">
        <ele>1275.9</ele>
        <time>2021-09-19T08:29:55Z</time>
      </trkpt>
      <trkpt lat="43.8414" lon="6.77454">
        <ele>1276.2</ele>
        <time>2021-09-19T08:29:56Z</time>
      </trkpt>
      <trkpt lat="43.84145" lon="6.77456">
        <ele>1276.9</ele>
        <time>2021-09-19T08:29:58Z</time>
      </trkpt>
      <trkpt lat="43.84147" lon="6.77456">
        <ele>1277.1</ele>
        <time>2021-09-19T08:29:59Z</time>
      </trkpt>
      <trkpt lat="43.84149" lon="6.77457">
        <ele>1277.3</ele>
        <time>2021-09-19T08:30:00Z</time>
      </trkpt>
      <trkpt lat="43.8415" lon="6.77458">
        <ele>1277.5</ele>
        <time>2021-09-19T08:30:02Z</time>
      </trkpt>
      <trkpt lat="43.8415" lon="6.77458">
        <ele>1277.5</ele>
        <time>2021-09-19T08:30:03Z</time>
      </trkpt>
      <trkpt lat="43.84151" lon="6.77458">
        <ele>1277.6</ele>
        <time>2021-09-19T08:30:05Z</time>
      </trkpt>
      <trkpt lat="43.84151" lon="6.77458">
        <ele>1277.6</ele>
        <time>2021-09-19T08:30:06Z</time>
      </trkpt>
      <trkpt lat="43.84157" lon="6.77458">
        <ele>1278.3</ele>
        <time>2021-09-19T08:30:07Z</time>
      </trkpt>
      <trkpt lat="43.84163" lon="6.77458">
        <ele>1279</ele>
        <time>2021-09-19T08:30:08Z</time>
      </trkpt>
      <trkpt lat="43.84168" lon="6.77459">
        <ele>1279.6</ele>
        <time>2021-09-19T08:30:57Z</time>
      </trkpt>
      <trkpt lat="43.84174" lon="6.77459">
        <ele>1280.1</ele>
        <time>2021-09-19T08:30:59Z</time>
      </trkpt>
      <trkpt lat="43.84179" lon="6.77459">
        <ele>1280.6</ele>
        <time>2021-09-19T08:31:00Z</time>
      </trkpt>
      <trkpt lat="43.84182" lon="6.77462">
        <ele>1280.9</ele>
        <time>2021-09-19T08:31:02Z</time>
      </trkpt>
      <trkpt lat="43.84182" lon="6.77463">
        <ele>1281</ele>
        <time>2021-09-19T08:31:03Z</time>
      </trkpt>
      <trkpt lat="43.84184" lon="6.77466">
        <ele>1281.3</ele>
        <time>2021-09-19T08:31:05Z</time>
      </trkpt>
      <trkpt lat="43.84185" lon="6.77467">
        <ele>1281.4</ele>
        <time>2021-09-19T08:31:06Z</time>
      </trkpt>
      <trkpt lat="43.84185" lon="6.77468">
        <ele>1281.5</ele>
        <time>2021-09-19T08:31:07Z</time>
      </trkpt>
      <trkpt lat="43.84186" lon="6.7747">
        <ele>1281.6</ele>
        <time>2021-09-19T08:31:08Z</time>
      </trkpt>
      <trkpt lat="43.84186" lon="6.77473">
        <ele>1281.8</ele>
        <time>2021-09-19T08:31:10Z</time>
      </trkpt>
      <trkpt lat="43.84187" lon="6.77474">
        <ele>1281.9</ele>
        <time>2021-09-19T08:31:11Z</time>
      </trkpt>
      <trkpt lat="43.84189" lon="6.77477">
        <ele>1282.2</ele>
        <time>2021-09-19T08:31:12Z</time>
      </trkpt>
      <trkpt lat="43.8419" lon="6.77478">
        <ele>1282.3</ele>
        <time>2021-09-19T08:31:13Z</time>
      </trkpt>
      <trkpt lat="43.84191" lon="6.7748">
        <ele>1282.4</ele>
        <time>2021-09-19T08:31:14Z</time>
      </trkpt>
      <trkpt lat="43.84192" lon="6.77482">
        <ele>1282.6</ele>
        <time>2021-09-19T08:31:15Z</time>
      </trkpt>
      <trkpt lat="43.84193" lon="6.77483">
        <ele>1282.7</ele>
        <time>2021-09-19T08:31:17Z</time>
      </trkpt>
      <trkpt lat="43.84193" lon="6.77484">
        <ele>1282.7</ele>
        <time>2021-09-19T08:31:18Z</time>
      </trkpt>
      <trkpt lat="43.84194" lon="6.77484">
        <ele>1282.8</ele>
        <time>2021-09-19T08:31:19Z</time>
      </trkpt>
      <trkpt lat="43.84194" lon="6.77484">
        <ele>1282.8</ele>
        <time>2021-09-19T08:31:21Z</time>
      </trkpt>
      <trkpt lat="43.84194" lon="6.77484">
        <ele>1282.8</ele>
        <time>2021-09-19T08:31:22Z</time>
      </trkpt>
      <trkpt lat="43.84194" lon="6.77484">
        <ele>1282.9</ele>
        <time>2021-09-19T08:31:24Z</time>
      </trkpt>
      <trkpt lat="43.84194" lon="6.77483">
        <ele>1282.9</ele>
        <time>2021-09-19T08:31:25Z</time>
      </trkpt>
      <trkpt lat="43.84195" lon="6.77483">
        <ele>1283</ele>
        <time>2021-09-19T08:31:26Z</time>
      </trkpt>
      <trkpt lat="43.84196" lon="6.77482">
        <ele>1283</ele>
        <time>2021-09-19T08:31:27Z</time>
      </trkpt>
      <trkpt lat="43.84196" lon="6.77482">
        <ele>1283.1</ele>
        <time>2021-09-19T08:31:29Z</time>
      </trkpt>
      <trkpt lat="43.84197" lon="6.77482">
        <ele>1283.2</ele>
        <time>2021-09-19T08:31:30Z</time>
      </trkpt>
      <trkpt lat="43.84198" lon="6.77482">
        <ele>1283.3</ele>
        <time>2021-09-19T08:31:31Z</time>
      </trkpt>
      <trkpt lat="43.842" lon="6.77481">
        <ele>1283.5</ele>
        <time>2021-09-19T08:31:32Z</time>
      </trkpt>
      <trkpt lat="43.84202" lon="6.77481">
        <ele>1283.6</ele>
        <time>2021-09-19T08:31:34Z</time>
      </trkpt>
      <trkpt lat="43.84203" lon="6.77481">
        <ele>1283.7</ele>
        <time>2021-09-19T08:31:35Z</time>
      </trkpt>
      <trkpt lat="43.84204" lon="6.77482">
        <ele>1283.8</ele>
        <time>2021-09-19T08:31:36Z</time>
      </trkpt>
      <trkpt lat="43.84204" lon="6.77482">
        <ele>1283.9</ele>
        <time>2021-09-19T08:31:38Z</time>
      </trkpt>
      <trkpt lat="43.84205" lon="6.77482">
        <ele>1283.9</ele>
        <time>2021-09-19T08:31:39Z</time>
      </trkpt>
      <trkpt lat="43.84205" lon="6.77482">
        <ele>1283.9</ele>
        <time>2021-09-19T08:31:41Z</time>
      </trkpt>
      <trkpt lat="43.84205" lon="6.77482">
        <ele>1283.9</ele>
        <time>2021-09-19T08:31:42Z</time>
      </trkpt>
      <trkpt lat="43.84205" lon="6.77482">
        <ele>1283.9</ele>
        <time>2021-09-19T08:31:44Z</time>
      </trkpt>
      <trkpt lat="43.84205" lon="6.77482">
        <ele>1283.9</ele>
        <time>2021-09-19T08:31:45Z</time>
      </trkpt>
      <trkpt lat="43.84225" lon="6.77476">
        <ele>1285.7</ele>
        <time>2021-09-19T08:32:05Z</time>
      </trkpt>
      <trkpt lat="43.84227" lon="6.77476">
        <ele>1285.9</ele>
        <time>2021-09-19T08:32:06Z</time>
      </trkpt>
      <trkpt lat="43.84229" lon="6.77476">
        <ele>1286</ele>
        <time>2021-09-19T08:32:08Z</time>
      </trkpt>
      <trkpt lat="43.84229" lon="6.77476">
        <ele>1286</ele>
        <time>2021-09-19T08:32:09Z</time>
      </trkpt>
      <trkpt lat="43.8423" lon="6.77476">
        <ele>1286</ele>
        <time>2021-09-19T08:32:11Z</time>
      </trkpt>
      <trkpt lat="43.84231" lon="6.77475">
        <ele>1286.1</ele>
        <time>2021-09-19T08:32:12Z</time>
      </trkpt>
      <trkpt lat="43.84232" lon="6.77474">
        <ele>1286.2</ele>
        <time>2021-09-19T08:32:13Z</time>
      </trkpt>
      <trkpt lat="43.84233" lon="6.77473">
        <ele>1286.3</ele>
        <time>2021-09-19T08:32:14Z</time>
      </trkpt>
      <trkpt lat="43.84235" lon="6.77472">
        <ele>1286.4</ele>
        <time>2021-09-19T08:32:16Z</time>
      </trkpt>
      <trkpt lat="43.84236" lon="6.7747">
        <ele>1286.5</ele>
        <time>2021-09-19T08:32:17Z</time>
      </trkpt>
      <trkpt lat="43.84237" lon="6.77469">
        <ele>1286.5</ele>
        <time>2021-09-19T08:32:18Z</time>
      </trkpt>
      <trkpt lat="43.84237" lon="6.77466">
        <ele>1286.6</ele>
        <time>2021-09-19T08:32:20Z</time>
      </trkpt>
      <trkpt lat="43.84238" lon="6.77464">
        <ele>1286.7</ele>
        <time>2021-09-19T08:32:21Z</time>
      </trkpt>
      <trkpt lat="43.84239" lon="6.77463">
        <ele>1286.8</ele>
        <time>2021-09-19T08:32:22Z</time>
      </trkpt>
      <trkpt lat="43.8424" lon="6.77463">
        <ele>1286.8</ele>
        <time>2021-09-19T08:32:24Z</time>
      </trkpt>
      <trkpt lat="43.84241" lon="6.77462">
        <ele>1286.9</ele>
        <time>2021-09-19T08:32:26Z</time>
      </trkpt>
      <trkpt lat="43.84241" lon="6.77462">
        <ele>1286.9</ele>
        <time>2021-09-19T08:32:27Z</time>
      </trkpt>
      <trkpt lat="43.84242" lon="6.77461">
        <ele>1287</ele>
        <time>2021-09-19T08:32:28Z</time>
      </trkpt>
      <trkpt lat="43.84243" lon="6.77461">
        <ele>1287</ele>
        <time>2021-09-19T08:32:29Z</time>
      </trkpt>
      <trkpt lat="43.84244" lon="6.7746">
        <ele>1287</ele>
        <time>2021-09-19T08:32:31Z</time>
      </trkpt>
      <trkpt lat="43.84244" lon="6.7746">
        <ele>1287.1</ele>
        <time>2021-09-19T08:32:33Z</time>
      </trkpt>
      <trkpt lat="43.84245" lon="6.7746">
        <ele>1287.1</ele>
        <time>2021-09-19T08:32:34Z</time>
      </trkpt>
      <trkpt lat="43.84246" lon="6.77459">
        <ele>1287.2</ele>
        <time>2021-09-19T08:32:35Z</time>
      </trkpt>
      <trkpt lat="43.84247" lon="6.77459">
        <ele>1287.2</ele>
        <time>2021-09-19T08:32:36Z</time>
      </trkpt>
      <trkpt lat="43.84247" lon="6.77458">
        <ele>1287.3</ele>
        <time>2021-09-19T08:32:38Z</time>
      </trkpt>
      <trkpt lat="43.84248" lon="6.77458">
        <ele>1287.3</ele>
        <time>2021-09-19T08:32:45Z</time>
      </trkpt>
      <trkpt lat="43.84249" lon="6.77457">
        <ele>1287.4</ele>
        <time>2021-09-19T08:32:47Z</time>
      </trkpt>
      <trkpt lat="43.8425" lon="6.77457">
        <ele>1287.4</ele>
        <time>2021-09-19T08:32:48Z</time>
      </trkpt>
      <trkpt lat="43.8425" lon="6.77456">
        <ele>1287.5</ele>
        <time>2021-09-19T08:32:49Z</time>
      </trkpt>
      <trkpt lat="43.84255" lon="6.77456">
        <ele>1287.8</ele>
        <time>2021-09-19T08:32:51Z</time>
      </trkpt>
      <trkpt lat="43.84258" lon="6.77456">
        <ele>1287.9</ele>
        <time>2021-09-19T08:32:52Z</time>
      </trkpt>
      <trkpt lat="43.84263" lon="6.77455">
        <ele>1288.2</ele>
        <time>2021-09-19T08:32:53Z</time>
      </trkpt>
      <trkpt lat="43.84265" lon="6.77454">
        <ele>1288.3</ele>
        <time>2021-09-19T08:32:54Z</time>
      </trkpt>
      <trkpt lat="43.84269" lon="6.77454">
        <ele>1288.5</ele>
        <time>2021-09-19T08:32:56Z</time>
      </trkpt>
      <trkpt lat="43.84271" lon="6.77454">
        <ele>1288.7</ele>
        <time>2021-09-19T08:32:57Z</time>
      </trkpt>
      <trkpt lat="43.84273" lon="6.77454">
        <ele>1288.8</ele>
        <time>2021-09-19T08:32:58Z</time>
      </trkpt>
      <trkpt lat="43.84274" lon="6.77454">
        <ele>1288.9</ele>
        <time>2021-09-19T08:32:59Z</time>
      </trkpt>
      <trkpt lat="43.84276" lon="6.77455">
        <ele>1289.1</ele>
        <time>2021-09-19T08:33:00Z</time>
      </trkpt>
      <trkpt lat="43.84278" lon="6.77455">
        <ele>1289.2</ele>
        <time>2021-09-19T08:33:02Z</time>
      </trkpt>
      <trkpt lat="43.84282" lon="6.77456">
        <ele>1289.5</ele>
        <time>2021-09-19T08:33:03Z</time>
      </trkpt>
      <trkpt lat="43.84284" lon="6.77457">
        <ele>1289.7</ele>
        <time>2021-09-19T08:33:04Z</time>
      </trkpt>
      <trkpt lat="43.84286" lon="6.77457">
        <ele>1289.8</ele>
        <time>2021-09-19T08:33:06Z</time>
      </trkpt>
      <trkpt lat="43.8429" lon="6.77458">
        <ele>1290.1</ele>
        <time>2021-09-19T08:33:08Z</time>
      </trkpt>
      <trkpt lat="43.84293" lon="6.77458">
        <ele>1290.4</ele>
        <time>2021-09-19T08:33:09Z</time>
      </trkpt>
      <trkpt lat="43.84295" lon="6.77457">
        <ele>1290.5</ele>
        <time>2021-09-19T08:33:10Z</time>
      </trkpt>
      <trkpt lat="43.84295" lon="6.77455">
        <ele>1290.6</ele>
        <time>2021-09-19T08:33:11Z</time>
      </trkpt>
      <trkpt lat="43.84295" lon="6.77455">
        <ele>1290.6</ele>
        <time>2021-09-19T08:33:13Z</time>
      </trkpt>
      <trkpt lat="43.84296" lon="6.77454">
        <ele>1290.6</ele>
        <time>2021-09-19T08:33:15Z</time>
      </trkpt>
      <trkpt lat="43.84296" lon="6.77454">
        <ele>1290.6</ele>
        <time>2021-09-19T08:33:16Z</time>
      </trkpt>
      <trkpt lat="43.84296" lon="6.77452">
        <ele>1290.7</ele>
        <time>2021-09-19T08:33:18Z</time>
      </trkpt>
      <trkpt lat="43.84296" lon="6.77451">
        <ele>1290.8</ele>
        <time>2021-09-19T08:33:19Z</time>
      </trkpt>
      <trkpt lat="43.84295" lon="6.77458">
        <ele>1291.1</ele>
        <time>2021-09-19T08:34:28Z</time>
      </trkpt>
      <trkpt lat="43.84299" lon="6.77461">
        <ele>1291.4</ele>
        <time>2021-09-19T08:34:30Z</time>
      </trkpt>
      <trkpt lat="43.84303" lon="6.77463">
        <ele>1291.7</ele>
        <time>2021-09-19T08:34:31Z</time>
      </trkpt>
      <trkpt lat="43.84306" lon="6.77465">
        <ele>1291.8</ele>
        <time>2021-09-19T08:34:33Z</time>
      </trkpt>
      <trkpt lat="43.8431" lon="6.77466">
        <ele>1292.1</ele>
        <time>2021-09-19T08:34:34Z</time>
      </trkpt>
      <trkpt lat="43.84314" lon="6.77465">
        <ele>1292.3</ele>
        <time>2021-09-19T08:34:36Z</time>
      </trkpt>
      <trkpt lat="43.84317" lon="6.77466">
        <ele>1292.5</ele>
        <time>2021-09-19T08:34:37Z</time>
      </trkpt>
      <trkpt lat="43.84321" lon="6.77467">
        <ele>1292.7</ele>
        <time>2021-09-19T08:34:39Z</time>
      </trkpt>
      <trkpt lat="43.84322" lon="6.77467">
        <ele>1292.7</ele>
        <time>2021-09-19T08:34:40Z</time>
      </trkpt>
      <trkpt lat="43.84323" lon="6.77467">
        <ele>1292.8</ele>
        <time>2021-09-19T08:34:41Z</time>
      </trkpt>
      <trkpt lat="43.84324" lon="6.77467">
        <ele>1292.9</ele>
        <time>2021-09-19T08:34:42Z</time>
      </trkpt>
      <trkpt lat="43.84327" lon="6.77467">
        <ele>1293</ele>
        <time>2021-09-19T08:34:44Z</time>
      </trkpt>
      <trkpt lat="43.84329" lon="6.77467">
        <ele>1293.1</ele>
        <time>2021-09-19T08:34:45Z</time>
      </trkpt>
      <trkpt lat="43.84331" lon="6.77467">
        <ele>1293.1</ele>
        <time>2021-09-19T08:34:46Z</time>
      </trkpt>
      <trkpt lat="43.84334" lon="6.77467">
        <ele>1293.3</ele>
        <time>2021-09-19T08:34:47Z</time>
      </trkpt>
      <trkpt lat="43.84335" lon="6.77467">
        <ele>1293.3</ele>
        <time>2021-09-19T08:34:48Z</time>
      </trkpt>
      <trkpt lat="43.8434" lon="6.77469">
        <ele>1293.5</ele>
        <time>2021-09-19T08:34:50Z</time>
      </trkpt>
      <trkpt lat="43.84342" lon="6.77471">
        <ele>1293.6</ele>
        <time>2021-09-19T08:34:52Z</time>
      </trkpt>
      <trkpt lat="43.84344" lon="6.77473">
        <ele>1293.6</ele>
        <time>2021-09-19T08:34:53Z</time>
      </trkpt>
      <trkpt lat="43.84347" lon="6.77478">
        <ele>1293.8</ele>
        <time>2021-09-19T08:34:55Z</time>
      </trkpt>
      <trkpt lat="43.8435" lon="6.77483">
        <ele>1294</ele>
        <time>2021-09-19T08:34:57Z</time>
      </trkpt>
      <trkpt lat="43.84354" lon="6.77487">
        <ele>1294.2</ele>
        <time>2021-09-19T08:34:58Z</time>
      </trkpt>
      <trkpt lat="43.84356" lon="6.7749">
        <ele>1294.4</ele>
        <time>2021-09-19T08:34:59Z</time>
      </trkpt>
      <trkpt lat="43.84356" lon="6.77492">
        <ele>1294.4</ele>
        <time>2021-09-19T08:35:00Z</time>
      </trkpt>
      <trkpt lat="43.84357" lon="6.77495">
        <ele>1294.5</ele>
        <time>2021-09-19T08:35:02Z</time>
      </trkpt>
      <trkpt lat="43.84358" lon="6.77496">
        <ele>1294.6</ele>
        <time>2021-09-19T08:35:03Z</time>
      </trkpt>
      <trkpt lat="43.84361" lon="6.77499">
        <ele>1294.8</ele>
        <time>2021-09-19T08:35:04Z</time>
      </trkpt>
      <trkpt lat="43.84363" lon="6.77502">
        <ele>1294.8</ele>
        <time>2021-09-19T08:35:06Z</time>
      </trkpt>
      <trkpt lat="43.84364" lon="6.77503">
        <ele>1294.8</ele>
        <time>2021-09-19T08:35:07Z</time>
      </trkpt>
      <trkpt lat="43.84366" lon="6.77506">
        <ele>1294.7</ele>
        <time>2021-09-19T08:35:08Z</time>
      </trkpt>
      <trkpt lat="43.84368" lon="6.77509">
        <ele>1294.5</ele>
        <time>2021-09-19T08:35:09Z</time>
      </trkpt>
      <trkpt lat="43.8437" lon="6.77511">
        <ele>1294.3</ele>
        <time>2021-09-19T08:35:11Z</time>
      </trkpt>
      <trkpt lat="43.84374" lon="6.77512">
        <ele>1294</ele>
        <time>2021-09-19T08:35:13Z</time>
      </trkpt>
      <trkpt lat="43.84378" lon="6.77512">
        <ele>1293.8</ele>
        <time>2021-09-19T08:35:15Z</time>
      </trkpt>
      <trkpt lat="43.8438" lon="6.77509">
        <ele>1293.7</ele>
        <time>2021-09-19T08:35:16Z</time>
      </trkpt>
      <trkpt lat="43.84381" lon="6.77508">
        <ele>1293.6</ele>
        <time>2021-09-19T08:35:17Z</time>
      </trkpt>
      <trkpt lat="43.84386" lon="6.77502">
        <ele>1293.3</ele>
        <time>2021-09-19T08:35:19Z</time>
      </trkpt>
      <trkpt lat="43.84389" lon="6.77499">
        <ele>1293.1</ele>
        <time>2021-09-19T08:35:21Z</time>
      </trkpt>
      <trkpt lat="43.84389" lon="6.77496">
        <ele>1293</ele>
        <time>2021-09-19T08:35:22Z</time>
      </trkpt>
      <trkpt lat="43.84389" lon="6.77494">
        <ele>1292.9</ele>
        <time>2021-09-19T08:35:23Z</time>
      </trkpt>
      <trkpt lat="43.84388" lon="6.77495">
        <ele>1292.9</ele>
        <time>2021-09-19T08:35:25Z</time>
      </trkpt>
      <trkpt lat="43.84387" lon="6.77497">
        <ele>1292.8</ele>
        <time>2021-09-19T08:35:26Z</time>
      </trkpt>
      <trkpt lat="43.84387" lon="6.77498">
        <ele>1292.7</ele>
        <time>2021-09-19T08:35:28Z</time>
      </trkpt>
      <trkpt lat="43.84387" lon="6.775">
        <ele>1292.7</ele>
        <time>2021-09-19T08:35:29Z</time>
      </trkpt>
      <trkpt lat="43.84386" lon="6.77501">
        <ele>1292.6</ele>
        <time>2021-09-19T08:35:31Z</time>
      </trkpt>
      <trkpt lat="43.84386" lon="6.77503">
        <ele>1292.5</ele>
        <time>2021-09-19T08:36:26Z</time>
      </trkpt>
      <trkpt lat="43.84385" lon="6.77504">
        <ele>1292.4</ele>
        <time>2021-09-19T08:36:28Z</time>
      </trkpt>
      <trkpt lat="43.84385" lon="6.77506">
        <ele>1292.4</ele>
        <time>2021-09-19T08:36:29Z</time>
      </trkpt>
      <trkpt lat="43.84384" lon="6.77507">
        <ele>1292.3</ele>
        <time>2021-09-19T08:36:30Z</time>
      </trkpt>
      <trkpt lat="43.84384" lon="6.77509">
        <ele>1292.2</ele>
        <time>2021-09-19T08:36:32Z</time>
      </trkpt>
      <trkpt lat="43.84384" lon="6.7751">
        <ele>1292.1</ele>
        <time>2021-09-19T08:36:33Z</time>
      </trkpt>
      <trkpt lat="43.84383" lon="6.77512">
        <ele>1292</ele>
        <time>2021-09-19T08:36:35Z</time>
      </trkpt>
      <trkpt lat="43.84383" lon="6.77513">
        <ele>1291.9</ele>
        <time>2021-09-19T08:36:37Z</time>
      </trkpt>
      <trkpt lat="43.84382" lon="6.77515">
        <ele>1291.8</ele>
        <time>2021-09-19T08:36:39Z</time>
      </trkpt>
      <trkpt lat="43.84382" lon="6.77516">
        <ele>1291.7</ele>
        <time>2021-09-19T08:37:08Z</time>
      </trkpt>
      <trkpt lat="43.84381" lon="6.77518">
        <ele>1291.6</ele>
        <time>2021-09-19T08:37:09Z</time>
      </trkpt>
      <trkpt lat="43.84383" lon="6.77528">
        <ele>1290.9</ele>
        <time>2021-09-19T08:37:10Z</time>
      </trkpt>
      <trkpt lat="43.84384" lon="6.77534">
        <ele>1290.5</ele>
        <time>2021-09-19T08:37:11Z</time>
      </trkpt>
      <trkpt lat="43.84386" lon="6.77542">
        <ele>1289.8</ele>
        <time>2021-09-19T08:37:13Z</time>
      </trkpt>
      <trkpt lat="43.84391" lon="6.77547">
        <ele>1289</ele>
        <time>2021-09-19T08:37:14Z</time>
      </trkpt>
      <trkpt lat="43.84396" lon="6.7755">
        <ele>1288.3</ele>
        <time>2021-09-19T08:37:15Z</time>
      </trkpt>
      <trkpt lat="43.84399" lon="6.77555">
        <ele>1287.7</ele>
        <time>2021-09-19T08:37:16Z</time>
      </trkpt>
      <trkpt lat="43.84402" lon="6.77558">
        <ele>1287.3</ele>
        <time>2021-09-19T08:37:18Z</time>
      </trkpt>
      <trkpt lat="43.84404" lon="6.77562">
        <ele>1286.7</ele>
        <time>2021-09-19T08:37:19Z</time>
      </trkpt>
      <trkpt lat="43.84406" lon="6.77566">
        <ele>1286.2</ele>
        <time>2021-09-19T08:37:20Z</time>
      </trkpt>
      <trkpt lat="43.84408" lon="6.77569">
        <ele>1285.8</ele>
        <time>2021-09-19T08:37:21Z</time>
      </trkpt>
      <trkpt lat="43.84409" lon="6.77572">
        <ele>1285.4</ele>
        <time>2021-09-19T08:37:22Z</time>
      </trkpt>
      <trkpt lat="43.84412" lon="6.77576">
        <ele>1284.9</ele>
        <time>2021-09-19T08:37:24Z</time>
      </trkpt>
      <trkpt lat="43.84413" lon="6.77577">
        <ele>1284.7</ele>
        <time>2021-09-19T08:37:25Z</time>
      </trkpt>
      <trkpt lat="43.84416" lon="6.77583">
        <ele>1284</ele>
        <time>2021-09-19T08:37:26Z</time>
      </trkpt>
      <trkpt lat="43.84419" lon="6.77589">
        <ele>1283.4</ele>
        <time>2021-09-19T08:37:28Z</time>
      </trkpt>
      <trkpt lat="43.84421" lon="6.77593">
        <ele>1282.9</ele>
        <time>2021-09-19T08:37:29Z</time>
      </trkpt>
      <trkpt lat="43.84424" lon="6.77597">
        <ele>1282.4</ele>
        <time>2021-09-19T08:37:30Z</time>
      </trkpt>
      <trkpt lat="43.84426" lon="6.776">
        <ele>1282.1</ele>
        <time>2021-09-19T08:37:31Z</time>
      </trkpt>
      <trkpt lat="43.84427" lon="6.77603">
        <ele>1281.7</ele>
        <time>2021-09-19T08:37:32Z</time>
      </trkpt>
      <trkpt lat="43.8443" lon="6.77607">
        <ele>1281.3</ele>
        <time>2021-09-19T08:37:34Z</time>
      </trkpt>
      <trkpt lat="43.84432" lon="6.77612">
        <ele>1280.7</ele>
        <time>2021-09-19T08:37:35Z</time>
      </trkpt>
      <trkpt lat="43.84432" lon="6.77614">
        <ele>1280.5</ele>
        <time>2021-09-19T08:37:36Z</time>
      </trkpt>
      <trkpt lat="43.84435" lon="6.77619">
        <ele>1279.9</ele>
        <time>2021-09-19T08:37:37Z</time>
      </trkpt>
      <trkpt lat="43.84437" lon="6.77622">
        <ele>1279.6</ele>
        <time>2021-09-19T08:37:38Z</time>
      </trkpt>
      <trkpt lat="43.84438" lon="6.77626">
        <ele>1279.1</ele>
        <time>2021-09-19T08:37:39Z</time>
      </trkpt>
      <trkpt lat="43.8444" lon="6.7763">
        <ele>1278.6</ele>
        <time>2021-09-19T08:37:41Z</time>
      </trkpt>
      <trkpt lat="43.8444" lon="6.77632">
        <ele>1278.4</ele>
        <time>2021-09-19T08:37:42Z</time>
      </trkpt>
      <trkpt lat="43.84442" lon="6.77634">
        <ele>1278.1</ele>
        <time>2021-09-19T08:37:43Z</time>
      </trkpt>
      <trkpt lat="43.84444" lon="6.77636">
        <ele>1277.7</ele>
        <time>2021-09-19T08:37:45Z</time>
      </trkpt>
      <trkpt lat="43.84445" lon="6.7764">
        <ele>1277.2</ele>
        <time>2021-09-19T08:37:46Z</time>
      </trkpt>
      <trkpt lat="43.84448" lon="6.77645">
        <ele>1276.6</ele>
        <time>2021-09-19T08:37:48Z</time>
      </trkpt>
      <trkpt lat="43.8445" lon="6.7765">
        <ele>1275.9</ele>
        <time>2021-09-19T08:37:49Z</time>
      </trkpt>
      <trkpt lat="43.84452" lon="6.77656">
        <ele>1275.3</ele>
        <time>2021-09-19T08:37:50Z</time>
      </trkpt>
      <trkpt lat="43.84454" lon="6.77663">
        <ele>1274.6</ele>
        <time>2021-09-19T08:37:52Z</time>
      </trkpt>
      <trkpt lat="43.84457" lon="6.7767">
        <ele>1273.9</ele>
        <time>2021-09-19T08:37:53Z</time>
      </trkpt>
      <trkpt lat="43.84459" lon="6.77677">
        <ele>1273.4</ele>
        <time>2021-09-19T08:37:55Z</time>
      </trkpt>
      <trkpt lat="43.84461" lon="6.77682">
        <ele>1272.9</ele>
        <time>2021-09-19T08:37:56Z</time>
      </trkpt>
      <trkpt lat="43.84463" lon="6.77688">
        <ele>1272.3</ele>
        <time>2021-09-19T08:37:58Z</time>
      </trkpt>
      <trkpt lat="43.84465" lon="6.77694">
        <ele>1271.9</ele>
        <time>2021-09-19T08:37:59Z</time>
      </trkpt>
      <trkpt lat="43.8447" lon="6.77702">
        <ele>1271</ele>
        <time>2021-09-19T08:38:00Z</time>
      </trkpt>
      <trkpt lat="43.84474" lon="6.77707">
        <ele>1270.5</ele>
        <time>2021-09-19T08:38:01Z</time>
      </trkpt>
      <trkpt lat="43.84477" lon="6.77712">
        <ele>1270</ele>
        <time>2021-09-19T08:38:03Z</time>
      </trkpt>
      <trkpt lat="43.84481" lon="6.77716">
        <ele>1269.4</ele>
        <time>2021-09-19T08:38:04Z</time>
      </trkpt>
      <trkpt lat="43.84485" lon="6.77718">
        <ele>1269</ele>
        <time>2021-09-19T08:38:05Z</time>
      </trkpt>
      <trkpt lat="43.84488" lon="6.77721">
        <ele>1268.6</ele>
        <time>2021-09-19T08:38:07Z</time>
      </trkpt>
      <trkpt lat="43.84491" lon="6.77722">
        <ele>1268.1</ele>
        <time>2021-09-19T08:38:08Z</time>
      </trkpt>
      <trkpt lat="43.84494" lon="6.77723">
        <ele>1267.7</ele>
        <time>2021-09-19T08:38:10Z</time>
      </trkpt>
      <trkpt lat="43.84495" lon="6.77723">
        <ele>1267.6</ele>
        <time>2021-09-19T08:38:11Z</time>
      </trkpt>
      <trkpt lat="43.84497" lon="6.77723">
        <ele>1267.4</ele>
        <time>2021-09-19T08:38:12Z</time>
      </trkpt>
      <trkpt lat="43.84499" lon="6.77724">
        <ele>1267.1</ele>
        <time>2021-09-19T08:38:14Z</time>
      </trkpt>
      <trkpt lat="43.845" lon="6.77725">
        <ele>1266.8</ele>
        <time>2021-09-19T08:38:15Z</time>
      </trkpt>
      <trkpt lat="43.84502" lon="6.77727">
        <ele>1266.5</ele>
        <time>2021-09-19T08:38:16Z</time>
      </trkpt>
      <trkpt lat="43.84504" lon="6.77728">
        <ele>1266.2</ele>
        <time>2021-09-19T08:38:17Z</time>
      </trkpt>
      <trkpt lat="43.84506" lon="6.77729">
        <ele>1266</ele>
        <time>2021-09-19T08:38:18Z</time>
      </trkpt>
      <trkpt lat="43.84507" lon="6.7773">
        <ele>1265.7</ele>
        <time>2021-09-19T08:38:20Z</time>
      </trkpt>
      <trkpt lat="43.84509" lon="6.77732">
        <ele>1265.4</ele>
        <time>2021-09-19T08:38:31Z</time>
      </trkpt>
      <trkpt lat="43.84511" lon="6.77733">
        <ele>1265.2</ele>
        <time>2021-09-19T08:38:32Z</time>
      </trkpt>
      <trkpt lat="43.84514" lon="6.77736">
        <ele>1264.6</ele>
        <time>2021-09-19T08:38:33Z</time>
      </trkpt>
      <trkpt lat="43.84518" lon="6.7774">
        <ele>1264</ele>
        <time>2021-09-19T08:38:34Z</time>
      </trkpt>
      <trkpt lat="43.84524" lon="6.77745">
        <ele>1263.1</ele>
        <time>2021-09-19T08:38:36Z</time>
      </trkpt>
      <trkpt lat="43.84528" lon="6.7775">
        <ele>1262.4</ele>
        <time>2021-09-19T08:38:37Z</time>
      </trkpt>
      <trkpt lat="43.84532" lon="6.77755">
        <ele>1261.5</ele>
        <time>2021-09-19T08:38:38Z</time>
      </trkpt>
      <trkpt lat="43.84535" lon="6.77759">
        <ele>1260.9</ele>
        <time>2021-09-19T08:38:39Z</time>
      </trkpt>
      <trkpt lat="43.84538" lon="6.77763">
        <ele>1260.3</ele>
        <time>2021-09-19T08:38:41Z</time>
      </trkpt>
      <trkpt lat="43.8454" lon="6.77767">
        <ele>1259.8</ele>
        <time>2021-09-19T08:38:42Z</time>
      </trkpt>
      <trkpt lat="43.8454" lon="6.77772">
        <ele>1259.1</ele>
        <time>2021-09-19T08:38:43Z</time>
      </trkpt>
      <trkpt lat="43.84539" lon="6.77777">
        <ele>1258.5</ele>
        <time>2021-09-19T08:38:44Z</time>
      </trkpt>
      <trkpt lat="43.84537" lon="6.77781">
        <ele>1258.1</ele>
        <time>2021-09-19T08:38:45Z</time>
      </trkpt>
      <trkpt lat="43.84535" lon="6.77785">
        <ele>1257.9</ele>
        <time>2021-09-19T08:38:47Z</time>
      </trkpt>
      <trkpt lat="43.84532" lon="6.77789">
        <ele>1257.8</ele>
        <time>2021-09-19T08:38:48Z</time>
      </trkpt>
      <trkpt lat="43.84528" lon="6.77792">
        <ele>1257.7</ele>
        <time>2021-09-19T08:38:49Z</time>
      </trkpt>
      <trkpt lat="43.84525" lon="6.77793">
        <ele>1257.6</ele>
        <time>2021-09-19T08:38:50Z</time>
      </trkpt>
      <trkpt lat="43.84521" lon="6.77795">
        <ele>1257.5</ele>
        <time>2021-09-19T08:38:52Z</time>
      </trkpt>
      <trkpt lat="43.84517" lon="6.77797">
        <ele>1258</ele>
        <time>2021-09-19T08:38:54Z</time>
      </trkpt>
      <trkpt lat="43.84514" lon="6.77797">
        <ele>1257.9</ele>
        <time>2021-09-19T08:38:55Z</time>
      </trkpt>
      <trkpt lat="43.84512" lon="6.77797">
        <ele>1257.9</ele>
        <time>2021-09-19T08:38:56Z</time>
      </trkpt>
      <trkpt lat="43.84512" lon="6.77798">
        <ele>1257.8</ele>
        <time>2021-09-19T08:38:57Z</time>
      </trkpt>
      <trkpt lat="43.84511" lon="6.77799">
        <ele>1257.8</ele>
        <time>2021-09-19T08:38:58Z</time>
      </trkpt>
      <trkpt lat="43.84513" lon="6.778">
        <ele>1257.8</ele>
        <time>2021-09-19T08:39:00Z</time>
      </trkpt>
      <trkpt lat="43.84514" lon="6.778">
        <ele>1257.7</ele>
        <time>2021-09-19T08:39:01Z</time>
      </trkpt>
      <trkpt lat="43.84515" lon="6.77801">
        <ele>1257.7</ele>
        <time>2021-09-19T08:39:02Z</time>
      </trkpt>
      <trkpt lat="43.84516" lon="6.77801">
        <ele>1257.7</ele>
        <time>2021-09-19T08:39:03Z</time>
      </trkpt>
      <trkpt lat="43.84515" lon="6.77802">
        <ele>1257.6</ele>
        <time>2021-09-19T08:39:05Z</time>
      </trkpt>
      <trkpt lat="43.84516" lon="6.77805">
        <ele>1257.6</ele>
        <time>2021-09-19T08:39:06Z</time>
      </trkpt>
      <trkpt lat="43.84518" lon="6.77807">
        <ele>1257.5</ele>
        <time>2021-09-19T08:39:09Z</time>
      </trkpt>
      <trkpt lat="43.8452" lon="6.77811">
        <ele>1257.4</ele>
        <time>2021-09-19T08:39:11Z</time>
      </trkpt>
      <trkpt lat="43.84521" lon="6.77813">
        <ele>1257.4</ele>
        <time>2021-09-19T08:39:12Z</time>
      </trkpt>
      <trkpt lat="43.84522" lon="6.77816">
        <ele>1257.3</ele>
        <time>2021-09-19T08:39:14Z</time>
      </trkpt>
      <trkpt lat="43.84525" lon="6.7782">
        <ele>1257.2</ele>
        <time>2021-09-19T08:39:15Z</time>
      </trkpt>
      <trkpt lat="43.84526" lon="6.77822">
        <ele>1257.1</ele>
        <time>2021-09-19T08:39:16Z</time>
      </trkpt>
      <trkpt lat="43.8453" lon="6.77826">
        <ele>1256.9</ele>
        <time>2021-09-19T08:39:18Z</time>
      </trkpt>
      <trkpt lat="43.84534" lon="6.77831">
        <ele>1256.7</ele>
        <time>2021-09-19T08:39:20Z</time>
      </trkpt>
      <trkpt lat="43.84537" lon="6.77838">
        <ele>1256.4</ele>
        <time>2021-09-19T08:39:22Z</time>
      </trkpt>
      <trkpt lat="43.84538" lon="6.77842">
        <ele>1256.3</ele>
        <time>2021-09-19T08:39:23Z</time>
      </trkpt>
      <trkpt lat="43.84537" lon="6.77848">
        <ele>1256</ele>
        <time>2021-09-19T08:39:24Z</time>
      </trkpt>
      <trkpt lat="43.84537" lon="6.77855">
        <ele>1255.8</ele>
        <time>2021-09-19T08:39:25Z</time>
      </trkpt>
      <trkpt lat="43.84536" lon="6.77862">
        <ele>1255.5</ele>
        <time>2021-09-19T08:39:27Z</time>
      </trkpt>
      <trkpt lat="43.84537" lon="6.77864">
        <ele>1255.5</ele>
        <time>2021-09-19T08:39:28Z</time>
      </trkpt>
      <trkpt lat="43.84537" lon="6.77866">
        <ele>1255.4</ele>
        <time>2021-09-19T08:39:29Z</time>
      </trkpt>
      <trkpt lat="43.84538" lon="6.77871">
        <ele>1255.2</ele>
        <time>2021-09-19T08:39:30Z</time>
      </trkpt>
      <trkpt lat="43.84539" lon="6.77874">
        <ele>1255.1</ele>
        <time>2021-09-19T08:39:31Z</time>
      </trkpt>
      <trkpt lat="43.8454" lon="6.77879">
        <ele>1255</ele>
        <time>2021-09-19T08:39:33Z</time>
      </trkpt>
      <trkpt lat="43.84545" lon="6.77884">
        <ele>1254.8</ele>
        <time>2021-09-19T08:39:34Z</time>
      </trkpt>
      <trkpt lat="43.84549" lon="6.77887">
        <ele>1254.6</ele>
        <time>2021-09-19T08:39:36Z</time>
      </trkpt>
      <trkpt lat="43.8455" lon="6.77888">
        <ele>1254.6</ele>
        <time>2021-09-19T08:39:37Z</time>
      </trkpt>
      <trkpt lat="43.84552" lon="6.77889">
        <ele>1254.5</ele>
        <time>2021-09-19T08:39:38Z</time>
      </trkpt>
      <trkpt lat="43.84555" lon="6.77892">
        <ele>1254.4</ele>
        <time>2021-09-19T08:39:39Z</time>
      </trkpt>
      <trkpt lat="43.84557" lon="6.77894">
        <ele>1254.3</ele>
        <time>2021-09-19T08:39:41Z</time>
      </trkpt>
      <trkpt lat="43.84556" lon="6.779">
        <ele>1254.1</ele>
        <time>2021-09-19T08:39:43Z</time>
      </trkpt>
      <trkpt lat="43.84554" lon="6.77908">
        <ele>1253.8</ele>
        <time>2021-09-19T08:39:45Z</time>
      </trkpt>
      <trkpt lat="43.84553" lon="6.77919">
        <ele>1253.4</ele>
        <time>2021-09-19T08:39:47Z</time>
      </trkpt>
      <trkpt lat="43.84553" lon="6.77926">
        <ele>1253.1</ele>
        <time>2021-09-19T08:39:48Z</time>
      </trkpt>
      <trkpt lat="43.84553" lon="6.77933">
        <ele>1252.8</ele>
        <time>2021-09-19T08:39:49Z</time>
      </trkpt>
      <trkpt lat="43.84551" lon="6.77945">
        <ele>1252</ele>
        <time>2021-09-19T08:39:51Z</time>
      </trkpt>
      <trkpt lat="43.8455" lon="6.77952">
        <ele>1251.7</ele>
        <time>2021-09-19T08:39:52Z</time>
      </trkpt>
      <trkpt lat="43.84551" lon="6.77964">
        <ele>1250.9</ele>
        <time>2021-09-19T08:39:54Z</time>
      </trkpt>
      <trkpt lat="43.84553" lon="6.77975">
        <ele>1250.3</ele>
        <time>2021-09-19T08:39:56Z</time>
      </trkpt>
      <trkpt lat="43.84556" lon="6.77985">
        <ele>1249.7</ele>
        <time>2021-09-19T08:39:58Z</time>
      </trkpt>
      <trkpt lat="43.84558" lon="6.77991">
        <ele>1249.3</ele>
        <time>2021-09-19T08:39:59Z</time>
      </trkpt>
      <trkpt lat="43.84563" lon="6.78006">
        <ele>1248.5</ele>
        <time>2021-09-19T08:40:01Z</time>
      </trkpt>
      <trkpt lat="43.84573" lon="6.78017">
        <ele>1247.6</ele>
        <time>2021-09-19T08:40:03Z</time>
      </trkpt>
      <trkpt lat="43.84579" lon="6.78024">
        <ele>1247.1</ele>
        <time>2021-09-19T08:40:04Z</time>
      </trkpt>
      <trkpt lat="43.84619" lon="6.7804">
        <ele>1245.1</ele>
        <time>2021-09-19T08:40:11Z</time>
      </trkpt>
      <trkpt lat="43.84624" lon="6.78045">
        <ele>1245</ele>
        <time>2021-09-19T08:40:12Z</time>
      </trkpt>
      <trkpt lat="43.84632" lon="6.78056">
        <ele>1244.9</ele>
        <time>2021-09-19T08:40:14Z</time>
      </trkpt>
      <trkpt lat="43.84639" lon="6.78066">
        <ele>1244.9</ele>
        <time>2021-09-19T08:40:15Z</time>
      </trkpt>
      <trkpt lat="43.84643" lon="6.78073">
        <ele>1244.9</ele>
        <time>2021-09-19T08:40:17Z</time>
      </trkpt>
      <trkpt lat="43.84646" lon="6.78078">
        <ele>1245</ele>
        <time>2021-09-19T08:40:18Z</time>
      </trkpt>
      <trkpt lat="43.8465" lon="6.78084">
        <ele>1245</ele>
        <time>2021-09-19T08:40:19Z</time>
      </trkpt>
      <trkpt lat="43.84652" lon="6.78087">
        <ele>1245</ele>
        <time>2021-09-19T08:40:20Z</time>
      </trkpt>
      <trkpt lat="43.84653" lon="6.78086">
        <ele>1245</ele>
        <time>2021-09-19T08:40:22Z</time>
      </trkpt>
      <trkpt lat="43.84655" lon="6.78085">
        <ele>1245.1</ele>
        <time>2021-09-19T08:40:24Z</time>
      </trkpt>
      <trkpt lat="43.84656" lon="6.78084">
        <ele>1245.1</ele>
        <time>2021-09-19T08:40:25Z</time>
      </trkpt>
      <trkpt lat="43.84657" lon="6.78083">
        <ele>1245.1</ele>
        <time>2021-09-19T08:40:26Z</time>
      </trkpt>
      <trkpt lat="43.84659" lon="6.78081">
        <ele>1245.1</ele>
        <time>2021-09-19T08:40:27Z</time>
      </trkpt>
      <trkpt lat="43.84663" lon="6.7808">
        <ele>1245.1</ele>
        <time>2021-09-19T08:40:29Z</time>
      </trkpt>
      <trkpt lat="43.84667" lon="6.7808">
        <ele>1245.2</ele>
        <time>2021-09-19T08:40:30Z</time>
      </trkpt>
      <trkpt lat="43.84668" lon="6.78081">
        <ele>1245.2</ele>
        <time>2021-09-19T08:40:31Z</time>
      </trkpt>
      <trkpt lat="43.84669" lon="6.78081">
        <ele>1245.2</ele>
        <time>2021-09-19T08:40:32Z</time>
      </trkpt>
      <trkpt lat="43.8467" lon="6.78082">
        <ele>1245.2</ele>
        <time>2021-09-19T08:40:33Z</time>
      </trkpt>
      <trkpt lat="43.84674" lon="6.78083">
        <ele>1245.3</ele>
        <time>2021-09-19T08:40:35Z</time>
      </trkpt>
      <trkpt lat="43.84675" lon="6.78084">
        <ele>1245.3</ele>
        <time>2021-09-19T08:40:36Z</time>
      </trkpt>
      <trkpt lat="43.84679" lon="6.78087">
        <ele>1245.4</ele>
        <time>2021-09-19T08:40:37Z</time>
      </trkpt>
      <trkpt lat="43.84684" lon="6.78088">
        <ele>1245.5</ele>
        <time>2021-09-19T08:40:39Z</time>
      </trkpt>
      <trkpt lat="43.84688" lon="6.78088">
        <ele>1245.5</ele>
        <time>2021-09-19T08:40:40Z</time>
      </trkpt>
      <trkpt lat="43.84689" lon="6.78087">
        <ele>1245.6</ele>
        <time>2021-09-19T08:40:41Z</time>
      </trkpt>
      <trkpt lat="43.84691" lon="6.78088">
        <ele>1245.6</ele>
        <time>2021-09-19T08:40:42Z</time>
      </trkpt>
      <trkpt lat="43.84694" lon="6.78088">
        <ele>1245.7</ele>
        <time>2021-09-19T08:40:44Z</time>
      </trkpt>
      <trkpt lat="43.84698" lon="6.78088">
        <ele>1245.7</ele>
        <time>2021-09-19T08:40:45Z</time>
      </trkpt>
      <trkpt lat="43.847" lon="6.78087">
        <ele>1245.7</ele>
        <time>2021-09-19T08:40:46Z</time>
      </trkpt>
      <trkpt lat="43.84703" lon="6.78087">
        <ele>1245.8</ele>
        <time>2021-09-19T08:40:47Z</time>
      </trkpt>
      <trkpt lat="43.84708" lon="6.78088">
        <ele>1245.8</ele>
        <time>2021-09-19T08:40:49Z</time>
      </trkpt>
      <trkpt lat="43.84714" lon="6.78089">
        <ele>1245.8</ele>
        <time>2021-09-19T08:40:50Z</time>
      </trkpt>
      <trkpt lat="43.84717" lon="6.7809">
        <ele>1245.8</ele>
        <time>2021-09-19T08:40:51Z</time>
      </trkpt>
      <trkpt lat="43.84723" lon="6.78096">
        <ele>1245.8</ele>
        <time>2021-09-19T08:40:53Z</time>
      </trkpt>
      <trkpt lat="43.84725" lon="6.781">
        <ele>1245.8</ele>
        <time>2021-09-19T08:40:54Z</time>
      </trkpt>
      <trkpt lat="43.84731" lon="6.7811">
        <ele>1245.8</ele>
        <time>2021-09-19T08:40:56Z</time>
      </trkpt>
      <trkpt lat="43.84734" lon="6.78114">
        <ele>1245.8</ele>
        <time>2021-09-19T08:40:57Z</time>
      </trkpt>
      <trkpt lat="43.84738" lon="6.78121">
        <ele>1245.8</ele>
        <time>2021-09-19T08:40:59Z</time>
      </trkpt>
      <trkpt lat="43.8474" lon="6.78127">
        <ele>1245.8</ele>
        <time>2021-09-19T08:41:00Z</time>
      </trkpt>
      <trkpt lat="43.84743" lon="6.78131">
        <ele>1245.7</ele>
        <time>2021-09-19T08:41:01Z</time>
      </trkpt>
      <trkpt lat="43.84745" lon="6.78135">
        <ele>1245.7</ele>
        <time>2021-09-19T08:41:03Z</time>
      </trkpt>
      <trkpt lat="43.84747" lon="6.78138">
        <ele>1245.7</ele>
        <time>2021-09-19T08:41:04Z</time>
      </trkpt>
      <trkpt lat="43.84751" lon="6.78143">
        <ele>1245.6</ele>
        <time>2021-09-19T08:41:05Z</time>
      </trkpt>
      <trkpt lat="43.84754" lon="6.78148">
        <ele>1245.6</ele>
        <time>2021-09-19T08:41:06Z</time>
      </trkpt>
      <trkpt lat="43.84757" lon="6.78151">
        <ele>1245.6</ele>
        <time>2021-09-19T08:41:07Z</time>
      </trkpt>
      <trkpt lat="43.84764" lon="6.78157">
        <ele>1245.4</ele>
        <time>2021-09-19T08:41:09Z</time>
      </trkpt>
      <trkpt lat="43.84771" lon="6.78164">
        <ele>1244.8</ele>
        <time>2021-09-19T08:41:11Z</time>
      </trkpt>
      <trkpt lat="43.84777" lon="6.78169">
        <ele>1244.2</ele>
        <time>2021-09-19T08:41:13Z</time>
      </trkpt>
      <trkpt lat="43.84782" lon="6.78172">
        <ele>1243.5</ele>
        <time>2021-09-19T08:41:14Z</time>
      </trkpt>
      <trkpt lat="43.84788" lon="6.78174">
        <ele>1242.6</ele>
        <time>2021-09-19T08:41:15Z</time>
      </trkpt>
      <trkpt lat="43.84794" lon="6.78175">
        <ele>1241.7</ele>
        <time>2021-09-19T08:41:16Z</time>
      </trkpt>
      <trkpt lat="43.848" lon="6.78175">
        <ele>1240.8</ele>
        <time>2021-09-19T08:41:17Z</time>
      </trkpt>
      <trkpt lat="43.84808" lon="6.78176">
        <ele>1239.7</ele>
        <time>2021-09-19T08:41:19Z</time>
      </trkpt>
      <trkpt lat="43.84814" lon="6.78177">
        <ele>1238.9</ele>
        <time>2021-09-19T08:41:20Z</time>
      </trkpt>
      <trkpt lat="43.8482" lon="6.78177">
        <ele>1238.1</ele>
        <time>2021-09-19T08:41:21Z</time>
      </trkpt>
      <trkpt lat="43.84826" lon="6.78179">
        <ele>1237.2</ele>
        <time>2021-09-19T08:41:22Z</time>
      </trkpt>
      <trkpt lat="43.84833" lon="6.78181">
        <ele>1236.3</ele>
        <time>2021-09-19T08:41:24Z</time>
      </trkpt>
      <trkpt lat="43.84839" lon="6.78185">
        <ele>1235.5</ele>
        <time>2021-09-19T08:41:25Z</time>
      </trkpt>
      <trkpt lat="43.84844" lon="6.78198">
        <ele>1234.1</ele>
        <time>2021-09-19T08:41:27Z</time>
      </trkpt>
      <trkpt lat="43.84846" lon="6.78206">
        <ele>1233</ele>
        <time>2021-09-19T08:41:28Z</time>
      </trkpt>
      <trkpt lat="43.84848" lon="6.78214">
        <ele>1232.1</ele>
        <time>2021-09-19T08:41:29Z</time>
      </trkpt>
      <trkpt lat="43.84852" lon="6.78228">
        <ele>1230.3</ele>
        <time>2021-09-19T08:41:31Z</time>
      </trkpt>
      <trkpt lat="43.84854" lon="6.78234">
        <ele>1229.5</ele>
        <time>2021-09-19T08:41:32Z</time>
      </trkpt>
      <trkpt lat="43.84855" lon="6.78242">
        <ele>1228.5</ele>
        <time>2021-09-19T08:41:33Z</time>
      </trkpt>
      <trkpt lat="43.84855" lon="6.78248">
        <ele>1227.6</ele>
        <time>2021-09-19T08:41:34Z</time>
      </trkpt>
      <trkpt lat="43.84858" lon="6.78253">
        <ele>1226.8</ele>
        <time>2021-09-19T08:41:35Z</time>
      </trkpt>
      <trkpt lat="43.84858" lon="6.78258">
        <ele>1226.2</ele>
        <time>2021-09-19T08:41:36Z</time>
      </trkpt>
      <trkpt lat="43.84864" lon="6.78268">
        <ele>1224.8</ele>
        <time>2021-09-19T08:41:38Z</time>
      </trkpt>
      <trkpt lat="43.84868" lon="6.78274">
        <ele>1223.9</ele>
        <time>2021-09-19T08:41:39Z</time>
      </trkpt>
      <trkpt lat="43.84875" lon="6.78286">
        <ele>1222.3</ele>
        <time>2021-09-19T08:41:41Z</time>
      </trkpt>
      <trkpt lat="43.8488" lon="6.78299">
        <ele>1220.8</ele>
        <time>2021-09-19T08:41:43Z</time>
      </trkpt>
      <trkpt lat="43.84881" lon="6.78306">
        <ele>1220.1</ele>
        <time>2021-09-19T08:41:44Z</time>
      </trkpt>
      <trkpt lat="43.84882" lon="6.78322">
        <ele>1218.7</ele>
        <time>2021-09-19T08:41:46Z</time>
      </trkpt>
      <trkpt lat="43.84883" lon="6.78329">
        <ele>1218</ele>
        <time>2021-09-19T08:41:47Z</time>
      </trkpt>
      <trkpt lat="43.84887" lon="6.78346">
        <ele>1216.4</ele>
        <time>2021-09-19T08:41:49Z</time>
      </trkpt>
      <trkpt lat="43.84891" lon="6.78365">
        <ele>1214.4</ele>
        <time>2021-09-19T08:41:51Z</time>
      </trkpt>
      <trkpt lat="43.84895" lon="6.78388">
        <ele>1212.5</ele>
        <time>2021-09-19T08:41:53Z</time>
      </trkpt>
      <trkpt lat="43.84904" lon="6.78412">
        <ele>1210.6</ele>
        <time>2021-09-19T08:41:55Z</time>
      </trkpt>
      <trkpt lat="43.84914" lon="6.78435">
        <ele>1209.6</ele>
        <time>2021-09-19T08:41:57Z</time>
      </trkpt>
      <trkpt lat="43.84917" lon="6.78446">
        <ele>1209.3</ele>
        <time>2021-09-19T08:41:58Z</time>
      </trkpt>
      <trkpt lat="43.84919" lon="6.78459">
        <ele>1209</ele>
        <time>2021-09-19T08:41:59Z</time>
      </trkpt>
      <trkpt lat="43.84924" lon="6.7848">
        <ele>1208.2</ele>
        <time>2021-09-19T08:42:01Z</time>
      </trkpt>
      <trkpt lat="43.84935" lon="6.78492">
        <ele>1207.4</ele>
        <time>2021-09-19T08:42:03Z</time>
      </trkpt>
      <trkpt lat="43.84945" lon="6.78507">
        <ele>1206.5</ele>
        <time>2021-09-19T08:42:05Z</time>
      </trkpt>
      <trkpt lat="43.84956" lon="6.78523">
        <ele>1205.7</ele>
        <time>2021-09-19T08:42:07Z</time>
      </trkpt>
      <trkpt lat="43.84965" lon="6.78542">
        <ele>1204.8</ele>
        <time>2021-09-19T08:42:09Z</time>
      </trkpt>
      <trkpt lat="43.8497" lon="6.7855">
        <ele>1204.5</ele>
        <time>2021-09-19T08:42:10Z</time>
      </trkpt>
      <trkpt lat="43.84975" lon="6.78558">
        <ele>1204.1</ele>
        <time>2021-09-19T08:42:11Z</time>
      </trkpt>
      <trkpt lat="43.84979" lon="6.78566">
        <ele>1203.7</ele>
        <time>2021-09-19T08:42:12Z</time>
      </trkpt>
      <trkpt lat="43.84989" lon="6.78577">
        <ele>1202.9</ele>
        <time>2021-09-19T08:42:14Z</time>
      </trkpt>
      <trkpt lat="43.84994" lon="6.78579">
        <ele>1200.2</ele>
        <time>2021-09-19T08:42:15Z</time>
      </trkpt>
      <trkpt lat="43.84999" lon="6.78579">
        <ele>1199.2</ele>
        <time>2021-09-19T08:42:16Z</time>
      </trkpt>
      <trkpt lat="43.85004" lon="6.78579">
        <ele>1198.3</ele>
        <time>2021-09-19T08:42:17Z</time>
      </trkpt>
      <trkpt lat="43.8501" lon="6.78577">
        <ele>1197.1</ele>
        <time>2021-09-19T08:42:19Z</time>
      </trkpt>
      <trkpt lat="43.85015" lon="6.78577">
        <ele>1196.4</ele>
        <time>2021-09-19T08:42:20Z</time>
      </trkpt>
      <trkpt lat="43.85016" lon="6.78577">
        <ele>1196.1</ele>
        <time>2021-09-19T08:42:21Z</time>
      </trkpt>
      <trkpt lat="43.85022" lon="6.78576">
        <ele>1195.1</ele>
        <time>2021-09-19T08:42:23Z</time>
      </trkpt>
      <trkpt lat="43.85025" lon="6.78577">
        <ele>1194.5</ele>
        <time>2021-09-19T08:42:24Z</time>
      </trkpt>
      <trkpt lat="43.85028" lon="6.7858">
        <ele>1193.9</ele>
        <time>2021-09-19T08:42:25Z</time>
      </trkpt>
      <trkpt lat="43.8503" lon="6.78581">
        <ele>1193.6</ele>
        <time>2021-09-19T08:42:26Z</time>
      </trkpt>
      <trkpt lat="43.85034" lon="6.78582">
        <ele>1192.8</ele>
        <time>2021-09-19T08:42:28Z</time>
      </trkpt>
      <trkpt lat="43.85039" lon="6.78582">
        <ele>1191.9</ele>
        <time>2021-09-19T08:42:29Z</time>
      </trkpt>
      <trkpt lat="43.85043" lon="6.7858">
        <ele>1191.2</ele>
        <time>2021-09-19T08:42:31Z</time>
      </trkpt>
      <trkpt lat="43.85047" lon="6.7858">
        <ele>1190.3</ele>
        <time>2021-09-19T08:42:33Z</time>
      </trkpt>
      <trkpt lat="43.85055" lon="6.78583">
        <ele>1190.5</ele>
        <time>2021-09-19T08:42:35Z</time>
      </trkpt>
      <trkpt lat="43.85058" lon="6.78584">
        <ele>1190.2</ele>
        <time>2021-09-19T08:42:36Z</time>
      </trkpt>
      <trkpt lat="43.85061" lon="6.78585">
        <ele>1189.9</ele>
        <time>2021-09-19T08:42:37Z</time>
      </trkpt>
      <trkpt lat="43.85063" lon="6.78587">
        <ele>1190.2</ele>
        <time>2021-09-19T08:42:39Z</time>
      </trkpt>
      <trkpt lat="43.85065" lon="6.78586">
        <ele>1189.6</ele>
        <time>2021-09-19T08:42:41Z</time>
      </trkpt>
      <trkpt lat="43.85066" lon="6.78584">
        <ele>1189.2</ele>
        <time>2021-09-19T08:42:43Z</time>
      </trkpt>
      <trkpt lat="43.85067" lon="6.7858">
        <ele>1188.5</ele>
        <time>2021-09-19T08:42:45Z</time>
      </trkpt>
      <trkpt lat="43.85068" lon="6.78579">
        <ele>1188.6</ele>
        <time>2021-09-19T08:42:46Z</time>
      </trkpt>
      <trkpt lat="43.85071" lon="6.78576">
        <ele>1187.5</ele>
        <time>2021-09-19T08:42:48Z</time>
      </trkpt>
      <trkpt lat="43.85075" lon="6.78575">
        <ele>1186.6</ele>
        <time>2021-09-19T08:42:50Z</time>
      </trkpt>
      <trkpt lat="43.85079" lon="6.78575">
        <ele>1186.1</ele>
        <time>2021-09-19T08:42:52Z</time>
      </trkpt>
      <trkpt lat="43.85081" lon="6.78575">
        <ele>1185.5</ele>
        <time>2021-09-19T08:42:53Z</time>
      </trkpt>
      <trkpt lat="43.85085" lon="6.78573">
        <ele>1184.2</ele>
        <time>2021-09-19T08:42:55Z</time>
      </trkpt>
      <trkpt lat="43.85086" lon="6.78573">
        <ele>1184.8</ele>
        <time>2021-09-19T08:42:56Z</time>
      </trkpt>
      <trkpt lat="43.85087" lon="6.78569">
        <ele>1183.5</ele>
        <time>2021-09-19T08:42:58Z</time>
      </trkpt>
      <trkpt lat="43.85089" lon="6.78567">
        <ele>1182.9</ele>
        <time>2021-09-19T08:42:59Z</time>
      </trkpt>
      <trkpt lat="43.85089" lon="6.78566">
        <ele>1182.9</ele>
        <time>2021-09-19T08:43:00Z</time>
      </trkpt>
      <trkpt lat="43.85088" lon="6.78562">
        <ele>1182.4</ele>
        <time>2021-09-19T08:43:02Z</time>
      </trkpt>
      <trkpt lat="43.85086" lon="6.78556">
        <ele>1181.9</ele>
        <time>2021-09-19T08:43:04Z</time>
      </trkpt>
      <trkpt lat="43.85084" lon="6.7855">
        <ele>1181.9</ele>
        <time>2021-09-19T08:43:06Z</time>
      </trkpt>
      <trkpt lat="43.85084" lon="6.78545">
        <ele>1181.3</ele>
        <time>2021-09-19T08:43:08Z</time>
      </trkpt>
      <trkpt lat="43.85084" lon="6.78545">
        <ele>1181.4</ele>
        <time>2021-09-19T08:43:08Z</time>
      </trkpt>
      <trkpt lat="43.85084" lon="6.78543">
        <ele>1180.8</ele>
        <time>2021-09-19T08:43:09Z</time>
      </trkpt>
      <trkpt lat="43.85085" lon="6.7854">
        <ele>1180.2</ele>
        <time>2021-09-19T08:43:11Z</time>
      </trkpt>
      <trkpt lat="43.85087" lon="6.78537">
        <ele>1179</ele>
        <time>2021-09-19T08:43:12Z</time>
      </trkpt>
      <trkpt lat="43.85091" lon="6.78532">
        <ele>1177.8</ele>
        <time>2021-09-19T08:43:14Z</time>
      </trkpt>
      <trkpt lat="43.85093" lon="6.78529">
        <ele>1176.6</ele>
        <time>2021-09-19T08:43:16Z</time>
      </trkpt>
      <trkpt lat="43.85096" lon="6.78525">
        <ele>1176</ele>
        <time>2021-09-19T08:43:18Z</time>
      </trkpt>
      <trkpt lat="43.85098" lon="6.78525">
        <ele>1175.5</ele>
        <time>2021-09-19T08:43:20Z</time>
      </trkpt>
      <trkpt lat="43.85099" lon="6.78526">
        <ele>1175.6</ele>
        <time>2021-09-19T08:43:22Z</time>
      </trkpt>
      <trkpt lat="43.851" lon="6.78526">
        <ele>1175</ele>
        <time>2021-09-19T08:43:23Z</time>
      </trkpt>
      <trkpt lat="43.85105" lon="6.7853">
        <ele>1174.9</ele>
        <time>2021-09-19T08:43:25Z</time>
      </trkpt>
      <trkpt lat="43.85107" lon="6.78533">
        <ele>1174.6</ele>
        <time>2021-09-19T08:43:26Z</time>
      </trkpt>
      <trkpt lat="43.85111" lon="6.78535">
        <ele>1174.1</ele>
        <time>2021-09-19T08:43:29Z</time>
      </trkpt>
      <trkpt lat="43.85114" lon="6.78538">
        <ele>1172.9</ele>
        <time>2021-09-19T08:43:30Z</time>
      </trkpt>
      <trkpt lat="43.85117" lon="6.78542">
        <ele>1172.2</ele>
        <time>2021-09-19T08:43:31Z</time>
      </trkpt>
      <trkpt lat="43.85119" lon="6.78547">
        <ele>1171.4</ele>
        <time>2021-09-19T08:43:32Z</time>
      </trkpt>
      <trkpt lat="43.85122" lon="6.78552">
        <ele>1170.9</ele>
        <time>2021-09-19T08:43:33Z</time>
      </trkpt>
      <trkpt lat="43.85123" lon="6.78557">
        <ele>1171.2</ele>
        <time>2021-09-19T08:43:35Z</time>
      </trkpt>
      <trkpt lat="43.85124" lon="6.78562">
        <ele>1170.2</ele>
        <time>2021-09-19T08:43:36Z</time>
      </trkpt>
      <trkpt lat="43.85125" lon="6.78566">
        <ele>1170.5</ele>
        <time>2021-09-19T08:43:37Z</time>
      </trkpt>
      <trkpt lat="43.85125" lon="6.78568">
        <ele>1170.6</ele>
        <time>2021-09-19T08:43:38Z</time>
      </trkpt>
      <trkpt lat="43.85124" lon="6.78573">
        <ele>1170.9</ele>
        <time>2021-09-19T08:43:40Z</time>
      </trkpt>
      <trkpt lat="43.85124" lon="6.78575">
        <ele>1171.3</ele>
        <time>2021-09-19T08:43:41Z</time>
      </trkpt>
      <trkpt lat="43.85123" lon="6.78577">
        <ele>1172.7</ele>
        <time>2021-09-19T08:43:42Z</time>
      </trkpt>
      <trkpt lat="43.85122" lon="6.78578">
        <ele>1173.1</ele>
        <time>2021-09-19T08:43:44Z</time>
      </trkpt>
      <trkpt lat="43.85121" lon="6.7858">
        <ele>1174.5</ele>
        <time>2021-09-19T08:43:45Z</time>
      </trkpt>
      <trkpt lat="43.85118" lon="6.7858">
        <ele>1176</ele>
        <time>2021-09-19T08:43:47Z</time>
      </trkpt>
      <trkpt lat="43.85117" lon="6.7858">
        <ele>1176</ele>
        <time>2021-09-19T08:43:48Z</time>
      </trkpt>
      <trkpt lat="43.85117" lon="6.78579">
        <ele>1176.1</ele>
        <time>2021-09-19T08:43:49Z</time>
      </trkpt>
      <trkpt lat="43.85117" lon="6.78578">
        <ele>1176.1</ele>
        <time>2021-09-19T08:43:51Z</time>
      </trkpt>
      <trkpt lat="43.85117" lon="6.78578">
        <ele>1176.2</ele>
        <time>2021-09-19T08:43:52Z</time>
      </trkpt>
      <trkpt lat="43.85117" lon="6.78577">
        <ele>1175.9</ele>
        <time>2021-09-19T08:43:53Z</time>
      </trkpt>
      <trkpt lat="43.85117" lon="6.78576">
        <ele>1175.9</ele>
        <time>2021-09-19T08:43:55Z</time>
      </trkpt>
      <trkpt lat="43.85117" lon="6.78576">
        <ele>1176</ele>
        <time>2021-09-19T08:43:56Z</time>
      </trkpt>
      <trkpt lat="43.85118" lon="6.78574">
        <ele>1174.6</ele>
        <time>2021-09-19T08:43:58Z</time>
      </trkpt>
      <trkpt lat="43.85125" lon="6.78581">
        <ele>1172.3</ele>
        <time>2021-09-19T08:44:09Z</time>
      </trkpt>
      <trkpt lat="43.85129" lon="6.78581">
        <ele>1170.8</ele>
        <time>2021-09-19T08:44:11Z</time>
      </trkpt>
      <trkpt lat="43.85133" lon="6.78593">
        <ele>1170.1</ele>
        <time>2021-09-19T08:44:13Z</time>
      </trkpt>
      <trkpt lat="43.85134" lon="6.78599">
        <ele>1168.9</ele>
        <time>2021-09-19T08:44:14Z</time>
      </trkpt>
      <trkpt lat="43.85135" lon="6.78614">
        <ele>1170.1</ele>
        <time>2021-09-19T08:44:15Z</time>
      </trkpt>
      <trkpt lat="43.85136" lon="6.78617">
        <ele>1170.5</ele>
        <time>2021-09-19T08:44:17Z</time>
      </trkpt>
      <trkpt lat="43.85135" lon="6.78618">
        <ele>1170.5</ele>
        <time>2021-09-19T08:44:18Z</time>
      </trkpt>
      <trkpt lat="43.85134" lon="6.78618">
        <ele>1170.6</ele>
        <time>2021-09-19T08:44:20Z</time>
      </trkpt>
      <trkpt lat="43.85134" lon="6.78618">
        <ele>1170.6</ele>
        <time>2021-09-19T08:44:21Z</time>
      </trkpt>
      <trkpt lat="43.85133" lon="6.78618">
        <ele>1170.7</ele>
        <time>2021-09-19T08:44:22Z</time>
      </trkpt>
      <trkpt lat="43.85133" lon="6.78618">
        <ele>1172.7</ele>
        <time>2021-09-19T08:44:23Z</time>
      </trkpt>
      <trkpt lat="43.85132" lon="6.78618">
        <ele>1172.8</ele>
        <time>2021-09-19T08:44:25Z</time>
      </trkpt>
      <trkpt lat="43.85131" lon="6.78619">
        <ele>1172.8</ele>
        <time>2021-09-19T08:44:27Z</time>
      </trkpt>
      <trkpt lat="43.85148" lon="6.78631">
        <ele>1163.8</ele>
        <time>2021-09-19T08:45:28Z</time>
      </trkpt>
      <trkpt lat="43.85152" lon="6.78629">
        <ele>1162</ele>
        <time>2021-09-19T08:45:29Z</time>
      </trkpt>
      <trkpt lat="43.85157" lon="6.78626">
        <ele>1157.6</ele>
        <time>2021-09-19T08:45:30Z</time>
      </trkpt>
      <trkpt lat="43.85162" lon="6.78623">
        <ele>1152.7</ele>
        <time>2021-09-19T08:45:32Z</time>
      </trkpt>
      <trkpt lat="43.85165" lon="6.78626">
        <ele>1150.7</ele>
        <time>2021-09-19T08:45:34Z</time>
      </trkpt>
      <trkpt lat="43.85166" lon="6.78627">
        <ele>1150.8</ele>
        <time>2021-09-19T08:45:35Z</time>
      </trkpt>
      <trkpt lat="43.85167" lon="6.7863">
        <ele>1151.2</ele>
        <time>2021-09-19T08:45:36Z</time>
      </trkpt>
      <trkpt lat="43.85166" lon="6.78631">
        <ele>1151.3</ele>
        <time>2021-09-19T08:45:38Z</time>
      </trkpt>
      <trkpt lat="43.85166" lon="6.78631">
        <ele>1151.3</ele>
        <time>2021-09-19T08:45:39Z</time>
      </trkpt>
      <trkpt lat="43.85166" lon="6.78635">
        <ele>1151.7</ele>
        <time>2021-09-19T08:45:40Z</time>
      </trkpt>
      <trkpt lat="43.85168" lon="6.78637">
        <ele>1149.4</ele>
        <time>2021-09-19T08:45:42Z</time>
      </trkpt>
      <trkpt lat="43.85169" lon="6.78639">
        <ele>1149.8</ele>
        <time>2021-09-19T08:45:43Z</time>
      </trkpt>
      <trkpt lat="43.85172" lon="6.78644">
        <ele>1147.8</ele>
        <time>2021-09-19T08:45:45Z</time>
      </trkpt>
      <trkpt lat="43.85174" lon="6.78647">
        <ele>1145.8</ele>
        <time>2021-09-19T08:45:46Z</time>
      </trkpt>
      <trkpt lat="43.85176" lon="6.78652">
        <ele>1146.3</ele>
        <time>2021-09-19T08:45:47Z</time>
      </trkpt>
      <trkpt lat="43.85177" lon="6.78653">
        <ele>1146.3</ele>
        <time>2021-09-19T08:45:48Z</time>
      </trkpt>
      <trkpt lat="43.85178" lon="6.78657">
        <ele>1144.5</ele>
        <time>2021-09-19T08:45:49Z</time>
      </trkpt>
      <trkpt lat="43.85179" lon="6.78662">
        <ele>1144.9</ele>
        <time>2021-09-19T08:45:51Z</time>
      </trkpt>
      <trkpt lat="43.85178" lon="6.78667">
        <ele>1145.4</ele>
        <time>2021-09-19T08:45:52Z</time>
      </trkpt>
      <trkpt lat="43.85178" lon="6.78669">
        <ele>1145.9</ele>
        <time>2021-09-19T08:45:53Z</time>
      </trkpt>
      <trkpt lat="43.85179" lon="6.78673">
        <ele>1146.3</ele>
        <time>2021-09-19T08:45:54Z</time>
      </trkpt>
      <trkpt lat="43.85181" lon="6.78678">
        <ele>1144.5</ele>
        <time>2021-09-19T08:45:56Z</time>
      </trkpt>
      <trkpt lat="43.85182" lon="6.78679">
        <ele>1144.6</ele>
        <time>2021-09-19T08:45:57Z</time>
      </trkpt>
      <trkpt lat="43.85183" lon="6.78683">
        <ele>1144.9</ele>
        <time>2021-09-19T08:45:58Z</time>
      </trkpt>
      <trkpt lat="43.85184" lon="6.78688">
        <ele>1143.1</ele>
        <time>2021-09-19T08:45:59Z</time>
      </trkpt>
      <trkpt lat="43.85184" lon="6.78689">
        <ele>1143.5</ele>
        <time>2021-09-19T08:46:00Z</time>
      </trkpt>
      <trkpt lat="43.85186" lon="6.78696">
        <ele>1143.8</ele>
        <time>2021-09-19T08:46:02Z</time>
      </trkpt>
      <trkpt lat="43.85186" lon="6.78698">
        <ele>1144.1</ele>
        <time>2021-09-19T08:46:03Z</time>
      </trkpt>
      <trkpt lat="43.85186" lon="6.787">
        <ele>1144.2</ele>
        <time>2021-09-19T08:46:04Z</time>
      </trkpt>
      <trkpt lat="43.85186" lon="6.78703">
        <ele>1142.2</ele>
        <time>2021-09-19T08:46:05Z</time>
      </trkpt>
      <trkpt lat="43.85187" lon="6.78709">
        <ele>1142.4</ele>
        <time>2021-09-19T08:46:07Z</time>
      </trkpt>
      <trkpt lat="43.85187" lon="6.78712">
        <ele>1142.6</ele>
        <time>2021-09-19T08:46:08Z</time>
      </trkpt>
      <trkpt lat="43.85188" lon="6.78714">
        <ele>1142.7</ele>
        <time>2021-09-19T08:46:09Z</time>
      </trkpt>
      <trkpt lat="43.85189" lon="6.7872">
        <ele>1140.6</ele>
        <time>2021-09-19T08:46:11Z</time>
      </trkpt>
      <trkpt lat="43.8519" lon="6.78723">
        <ele>1140.6</ele>
        <time>2021-09-19T08:46:12Z</time>
      </trkpt>
      <trkpt lat="43.85192" lon="6.78728">
        <ele>1140.9</ele>
        <time>2021-09-19T08:46:14Z</time>
      </trkpt>
      <trkpt lat="43.85192" lon="6.78732">
        <ele>1138.5</ele>
        <time>2021-09-19T08:46:15Z</time>
      </trkpt>
      <trkpt lat="43.85193" lon="6.78735">
        <ele>1138.5</ele>
        <time>2021-09-19T08:46:16Z</time>
      </trkpt>
      <trkpt lat="43.85192" lon="6.78737">
        <ele>1141.2</ele>
        <time>2021-09-19T08:46:17Z</time>
      </trkpt>
      <trkpt lat="43.85191" lon="6.78737">
        <ele>1141.3</ele>
        <time>2021-09-19T08:46:19Z</time>
      </trkpt>
      <trkpt lat="43.8519" lon="6.78735">
        <ele>1141.2</ele>
        <time>2021-09-19T08:46:20Z</time>
      </trkpt>
      <trkpt lat="43.85189" lon="6.78734">
        <ele>1143.7</ele>
        <time>2021-09-19T08:46:22Z</time>
      </trkpt>
      <trkpt lat="43.85187" lon="6.78732">
        <ele>1143.6</ele>
        <time>2021-09-19T08:46:23Z</time>
      </trkpt>
      <trkpt lat="43.85186" lon="6.78727">
        <ele>1145.9</ele>
        <time>2021-09-19T08:46:25Z</time>
      </trkpt>
      <trkpt lat="43.85184" lon="6.78723">
        <ele>1145.9</ele>
        <time>2021-09-19T08:46:26Z</time>
      </trkpt>
      <trkpt lat="43.85183" lon="6.78718">
        <ele>1148.1</ele>
        <time>2021-09-19T08:46:28Z</time>
      </trkpt>
      <trkpt lat="43.85182" lon="6.78716">
        <ele>1148.1</ele>
        <time>2021-09-19T08:46:29Z</time>
      </trkpt>
      <trkpt lat="43.85181" lon="6.78713">
        <ele>1148</ele>
        <time>2021-09-19T08:46:30Z</time>
      </trkpt>
      <trkpt lat="43.85181" lon="6.7871">
        <ele>1147.9</ele>
        <time>2021-09-19T08:46:32Z</time>
      </trkpt>
      <trkpt lat="43.85183" lon="6.78705">
        <ele>1145.5</ele>
        <time>2021-09-19T08:46:33Z</time>
      </trkpt>
      <trkpt lat="43.85185" lon="6.78698">
        <ele>1145.3</ele>
        <time>2021-09-19T08:46:34Z</time>
      </trkpt>
      <trkpt lat="43.85186" lon="6.78689">
        <ele>1142.5</ele>
        <time>2021-09-19T08:46:36Z</time>
      </trkpt>
      <trkpt lat="43.85186" lon="6.78685">
        <ele>1144.2</ele>
        <time>2021-09-19T08:46:37Z</time>
      </trkpt>
      <trkpt lat="43.85185" lon="6.78684">
        <ele>1144.3</ele>
        <time>2021-09-19T08:46:38Z</time>
      </trkpt>
      <trkpt lat="43.85183" lon="6.78677">
        <ele>1144</ele>
        <time>2021-09-19T08:46:40Z</time>
      </trkpt>
      <trkpt lat="43.85183" lon="6.78676">
        <ele>1145.9</ele>
        <time>2021-09-19T08:46:41Z</time>
      </trkpt>
      <trkpt lat="43.85183" lon="6.78674">
        <ele>1146</ele>
        <time>2021-09-19T08:46:42Z</time>
      </trkpt>
      <trkpt lat="43.85182" lon="6.78669">
        <ele>1145.6</ele>
        <time>2021-09-19T08:46:43Z</time>
      </trkpt>
      <trkpt lat="43.85182" lon="6.78665">
        <ele>1145.3</ele>
        <time>2021-09-19T08:46:44Z</time>
      </trkpt>
      <trkpt lat="43.85182" lon="6.78661">
        <ele>1144.9</ele>
        <time>2021-09-19T08:46:46Z</time>
      </trkpt>
      <trkpt lat="43.85183" lon="6.78655">
        <ele>1142.3</ele>
        <time>2021-09-19T08:46:47Z</time>
      </trkpt>
      <trkpt lat="43.85184" lon="6.7865">
        <ele>1141.9</ele>
        <time>2021-09-19T08:46:48Z</time>
      </trkpt>
      <trkpt lat="43.85186" lon="6.78647">
        <ele>1141.5</ele>
        <time>2021-09-19T08:46:50Z</time>
      </trkpt>
      <trkpt lat="43.85187" lon="6.78642">
        <ele>1138.9</ele>
        <time>2021-09-19T08:46:51Z</time>
      </trkpt>
      <trkpt lat="43.85187" lon="6.78638">
        <ele>1138.5</ele>
        <time>2021-09-19T08:46:53Z</time>
      </trkpt>
      <trkpt lat="43.85188" lon="6.78631">
        <ele>1137.7</ele>
        <time>2021-09-19T08:46:54Z</time>
      </trkpt>
      <trkpt lat="43.85189" lon="6.78626">
        <ele>1137.3</ele>
        <time>2021-09-19T08:46:56Z</time>
      </trkpt>
      <trkpt lat="43.8519" lon="6.78623">
        <ele>1134.5</ele>
        <time>2021-09-19T08:46:57Z</time>
      </trkpt>
      <trkpt lat="43.85193" lon="6.78619">
        <ele>1131.5</ele>
        <time>2021-09-19T08:46:58Z</time>
      </trkpt>
      <trkpt lat="43.85193" lon="6.78618">
        <ele>1131.5</ele>
        <time>2021-09-19T08:46:59Z</time>
      </trkpt>
      <trkpt lat="43.85195" lon="6.78615">
        <ele>1128.4</ele>
        <time>2021-09-19T08:47:00Z</time>
      </trkpt>
      <trkpt lat="43.85197" lon="6.78612">
        <ele>1128.4</ele>
        <time>2021-09-19T08:47:01Z</time>
      </trkpt>
      <trkpt lat="43.85198" lon="6.78609">
        <ele>1128.2</ele>
        <time>2021-09-19T08:47:03Z</time>
      </trkpt>
      <trkpt lat="43.85199" lon="6.78604">
        <ele>1125.1</ele>
        <time>2021-09-19T08:47:04Z</time>
      </trkpt>
      <trkpt lat="43.852" lon="6.78602">
        <ele>1124.9</ele>
        <time>2021-09-19T08:47:05Z</time>
      </trkpt>
      <trkpt lat="43.85201" lon="6.78598">
        <ele>1124.8</ele>
        <time>2021-09-19T08:47:06Z</time>
      </trkpt>
      <trkpt lat="43.85202" lon="6.78595">
        <ele>1122.1</ele>
        <time>2021-09-19T08:47:08Z</time>
      </trkpt>
      <trkpt lat="43.85203" lon="6.7859">
        <ele>1122</ele>
        <time>2021-09-19T08:47:09Z</time>
      </trkpt>
      <trkpt lat="43.85204" lon="6.78588">
        <ele>1121.9</ele>
        <time>2021-09-19T08:47:10Z</time>
      </trkpt>
      <trkpt lat="43.85208" lon="6.78585">
        <ele>1116.6</ele>
        <time>2021-09-19T08:47:12Z</time>
      </trkpt>
      <trkpt lat="43.8521" lon="6.78583">
        <ele>1116.6</ele>
        <time>2021-09-19T08:47:13Z</time>
      </trkpt>
      <trkpt lat="43.85211" lon="6.78581">
        <ele>1113.8</ele>
        <time>2021-09-19T08:47:14Z</time>
      </trkpt>
      <trkpt lat="43.85215" lon="6.78581">
        <ele>1111</ele>
        <time>2021-09-19T08:47:16Z</time>
      </trkpt>
      <trkpt lat="43.85217" lon="6.78581">
        <ele>1107.9</ele>
        <time>2021-09-19T08:47:17Z</time>
      </trkpt>
      <trkpt lat="43.8522" lon="6.7858">
        <ele>1104.5</ele>
        <time>2021-09-19T08:47:19Z</time>
      </trkpt>
      <trkpt lat="43.85219" lon="6.78578">
        <ele>1108</ele>
        <time>2021-09-19T08:47:21Z</time>
      </trkpt>
      <trkpt lat="43.85218" lon="6.78578">
        <ele>1108.1</ele>
        <time>2021-09-19T08:47:23Z</time>
      </trkpt>
      <trkpt lat="43.85218" lon="6.78578">
        <ele>1108.1</ele>
        <time>2021-09-19T08:47:24Z</time>
      </trkpt>
      <trkpt lat="43.85218" lon="6.78579">
        <ele>1108.2</ele>
        <time>2021-09-19T08:47:26Z</time>
      </trkpt>
      <trkpt lat="43.85218" lon="6.78578">
        <ele>1108.2</ele>
        <time>2021-09-19T08:47:28Z</time>
      </trkpt>
      <trkpt lat="43.85217" lon="6.78578">
        <ele>1111.4</ele>
        <time>2021-09-19T08:47:55Z</time>
      </trkpt>
      <trkpt lat="43.85219" lon="6.78581">
        <ele>1108.3</ele>
        <time>2021-09-19T08:47:56Z</time>
      </trkpt>
      <trkpt lat="43.85221" lon="6.78585">
        <ele>1105.3</ele>
        <time>2021-09-19T08:47:57Z</time>
      </trkpt>
      <trkpt lat="43.85226" lon="6.78592">
        <ele>1102.6</ele>
        <time>2021-09-19T08:47:58Z</time>
      </trkpt>
      <trkpt lat="43.85228" lon="6.78597">
        <ele>1099.8</ele>
        <time>2021-09-19T08:47:59Z</time>
      </trkpt>
      <trkpt lat="43.85231" lon="6.78603">
        <ele>1097.2</ele>
        <time>2021-09-19T08:48:01Z</time>
      </trkpt>
      <trkpt lat="43.85232" lon="6.78606">
        <ele>1097.8</ele>
        <time>2021-09-19T08:48:02Z</time>
      </trkpt>
      <trkpt lat="43.85233" lon="6.78609">
        <ele>1095.6</ele>
        <time>2021-09-19T08:48:03Z</time>
      </trkpt>
      <trkpt lat="43.85235" lon="6.78613">
        <ele>1096.4</ele>
        <time>2021-09-19T08:48:05Z</time>
      </trkpt>
      <trkpt lat="43.85237" lon="6.78615">
        <ele>1093.7</ele>
        <time>2021-09-19T08:48:06Z</time>
      </trkpt>
      <trkpt lat="43.8524" lon="6.78617">
        <ele>1091.7</ele>
        <time>2021-09-19T08:48:08Z</time>
      </trkpt>
      <trkpt lat="43.85243" lon="6.7862">
        <ele>1088.7</ele>
        <time>2021-09-19T08:48:09Z</time>
      </trkpt>
      <trkpt lat="43.85245" lon="6.78623">
        <ele>1086.4</ele>
        <time>2021-09-19T08:48:10Z</time>
      </trkpt>
      <trkpt lat="43.85247" lon="6.78628">
        <ele>1087.4</ele>
        <time>2021-09-19T08:48:12Z</time>
      </trkpt>
      <trkpt lat="43.85249" lon="6.78634">
        <ele>1086.2</ele>
        <time>2021-09-19T08:48:13Z</time>
      </trkpt>
      <trkpt lat="43.8525" lon="6.78637">
        <ele>1086.2</ele>
        <time>2021-09-19T08:48:14Z</time>
      </trkpt>
      <trkpt lat="43.8525" lon="6.78639">
        <ele>1087.3</ele>
        <time>2021-09-19T08:48:15Z</time>
      </trkpt>
      <trkpt lat="43.8525" lon="6.7864">
        <ele>1087.4</ele>
        <time>2021-09-19T08:48:17Z</time>
      </trkpt>
      <trkpt lat="43.85249" lon="6.78645">
        <ele>1088.4</ele>
        <time>2021-09-19T08:48:19Z</time>
      </trkpt>
      <trkpt lat="43.85247" lon="6.78651">
        <ele>1093.4</ele>
        <time>2021-09-19T08:48:20Z</time>
      </trkpt>
      <trkpt lat="43.85246" lon="6.78654">
        <ele>1093.5</ele>
        <time>2021-09-19T08:48:21Z</time>
      </trkpt>
      <trkpt lat="43.85244" lon="6.78659">
        <ele>1097.2</ele>
        <time>2021-09-19T08:48:23Z</time>
      </trkpt>
      <trkpt lat="43.85244" lon="6.78661">
        <ele>1098.1</ele>
        <time>2021-09-19T08:48:24Z</time>
      </trkpt>
      <trkpt lat="43.85245" lon="6.78671">
        <ele>1099.6</ele>
        <time>2021-09-19T08:48:27Z</time>
      </trkpt>
      <trkpt lat="43.85246" lon="6.78675">
        <ele>1097.7</ele>
        <time>2021-09-19T08:48:28Z</time>
      </trkpt>
      <trkpt lat="43.85248" lon="6.7868">
        <ele>1098.3</ele>
        <time>2021-09-19T08:48:29Z</time>
      </trkpt>
      <trkpt lat="43.85249" lon="6.78685">
        <ele>1096.4</ele>
        <time>2021-09-19T08:48:30Z</time>
      </trkpt>
      <trkpt lat="43.8525" lon="6.78697">
        <ele>1097.1</ele>
        <time>2021-09-19T08:48:32Z</time>
      </trkpt>
      <trkpt lat="43.85252" lon="6.78706">
        <ele>1094.9</ele>
        <time>2021-09-19T08:48:34Z</time>
      </trkpt>
      <trkpt lat="43.85254" lon="6.7871">
        <ele>1095</ele>
        <time>2021-09-19T08:48:35Z</time>
      </trkpt>
      <trkpt lat="43.85256" lon="6.78715">
        <ele>1092.6</ele>
        <time>2021-09-19T08:48:36Z</time>
      </trkpt>
      <trkpt lat="43.85261" lon="6.78723">
        <ele>1088.2</ele>
        <time>2021-09-19T08:48:38Z</time>
      </trkpt>
      <trkpt lat="43.85264" lon="6.78726">
        <ele>1086.1</ele>
        <time>2021-09-19T08:48:39Z</time>
      </trkpt>
      <trkpt lat="43.85266" lon="6.7873">
        <ele>1086.3</ele>
        <time>2021-09-19T08:48:40Z</time>
      </trkpt>
      <trkpt lat="43.85271" lon="6.78734">
        <ele>1081.7</ele>
        <time>2021-09-19T08:48:42Z</time>
      </trkpt>
      <trkpt lat="43.85273" lon="6.78737">
        <ele>1082</ele>
        <time>2021-09-19T08:48:43Z</time>
      </trkpt>
      <trkpt lat="43.85276" lon="6.78742">
        <ele>1077.4</ele>
        <time>2021-09-19T08:48:45Z</time>
      </trkpt>
      <trkpt lat="43.85278" lon="6.78745">
        <ele>1077.4</ele>
        <time>2021-09-19T08:48:46Z</time>
      </trkpt>
      <trkpt lat="43.8528" lon="6.78747">
        <ele>1075.3</ele>
        <time>2021-09-19T08:48:47Z</time>
      </trkpt>
      <trkpt lat="43.85283" lon="6.7875">
        <ele>1073.3</ele>
        <time>2021-09-19T08:48:48Z</time>
      </trkpt>
      <trkpt lat="43.85283" lon="6.78752">
        <ele>1073.4</ele>
        <time>2021-09-19T08:48:49Z</time>
      </trkpt>
      <trkpt lat="43.85286" lon="6.78755">
        <ele>1071.5</ele>
        <time>2021-09-19T08:48:51Z</time>
      </trkpt>
      <trkpt lat="43.85289" lon="6.78757">
        <ele>1069.3</ele>
        <time>2021-09-19T08:48:52Z</time>
      </trkpt>
      <trkpt lat="43.8529" lon="6.78758">
        <ele>1069.4</ele>
        <time>2021-09-19T08:48:53Z</time>
      </trkpt>
      <trkpt lat="43.85293" lon="6.78762">
        <ele>1067.6</ele>
        <time>2021-09-19T08:48:55Z</time>
      </trkpt>
      <trkpt lat="43.85296" lon="6.78764">
        <ele>1065.9</ele>
        <time>2021-09-19T08:48:56Z</time>
      </trkpt>
      <trkpt lat="43.853" lon="6.78769">
        <ele>1064.2</ele>
        <time>2021-09-19T08:48:58Z</time>
      </trkpt>
      <trkpt lat="43.85302" lon="6.78774">
        <ele>1062.5</ele>
        <time>2021-09-19T08:48:59Z</time>
      </trkpt>
      <trkpt lat="43.85302" lon="6.78775">
        <ele>1062.8</ele>
        <time>2021-09-19T08:49:00Z</time>
      </trkpt>
      <trkpt lat="43.85302" lon="6.78781">
        <ele>1063.2</ele>
        <time>2021-09-19T08:49:02Z</time>
      </trkpt>
      <trkpt lat="43.85305" lon="6.78789">
        <ele>1061.6</ele>
        <time>2021-09-19T08:49:04Z</time>
      </trkpt>
      <trkpt lat="43.85306" lon="6.78794">
        <ele>1061.9</ele>
        <time>2021-09-19T08:49:05Z</time>
      </trkpt>
      <trkpt lat="43.8531" lon="6.78801">
        <ele>1058.1</ele>
        <time>2021-09-19T08:49:07Z</time>
      </trkpt>
      <trkpt lat="43.85314" lon="6.78807">
        <ele>1056.3</ele>
        <time>2021-09-19T08:49:09Z</time>
      </trkpt>
      <trkpt lat="43.85316" lon="6.78809">
        <ele>1054.8</ele>
        <time>2021-09-19T08:49:10Z</time>
      </trkpt>
      <trkpt lat="43.85317" lon="6.7881">
        <ele>1054.8</ele>
        <time>2021-09-19T08:49:11Z</time>
      </trkpt>
      <trkpt lat="43.85317" lon="6.78815">
        <ele>1055.2</ele>
        <time>2021-09-19T08:49:13Z</time>
      </trkpt>
      <trkpt lat="43.85317" lon="6.78818">
        <ele>1055.3</ele>
        <time>2021-09-19T08:49:14Z</time>
      </trkpt>
      <trkpt lat="43.85318" lon="6.78823">
        <ele>1055.9</ele>
        <time>2021-09-19T08:49:16Z</time>
      </trkpt>
      <trkpt lat="43.85317" lon="6.78831">
        <ele>1056.2</ele>
        <time>2021-09-19T08:49:18Z</time>
      </trkpt>
      <trkpt lat="43.85315" lon="6.78835">
        <ele>1058</ele>
        <time>2021-09-19T08:49:19Z</time>
      </trkpt>
      <trkpt lat="43.85309" lon="6.78839">
        <ele>1061.6</ele>
        <time>2021-09-19T08:49:21Z</time>
      </trkpt>
      <trkpt lat="43.85307" lon="6.78841">
        <ele>1061.7</ele>
        <time>2021-09-19T08:49:22Z</time>
      </trkpt>
      <trkpt lat="43.85302" lon="6.78845">
        <ele>1065</ele>
        <time>2021-09-19T08:49:24Z</time>
      </trkpt>
      <trkpt lat="43.853" lon="6.78846">
        <ele>1066.7</ele>
        <time>2021-09-19T08:49:25Z</time>
      </trkpt>
      <trkpt lat="43.853" lon="6.78846">
        <ele>1066.8</ele>
        <time>2021-09-19T08:49:27Z</time>
      </trkpt>
      <trkpt lat="43.853" lon="6.78845">
        <ele>1066.8</ele>
        <time>2021-09-19T08:49:29Z</time>
      </trkpt>
      <trkpt lat="43.85305" lon="6.78846">
        <ele>1063.5</ele>
        <time>2021-09-19T08:49:31Z</time>
      </trkpt>
      <trkpt lat="43.8531" lon="6.78843">
        <ele>1060.1</ele>
        <time>2021-09-19T08:49:33Z</time>
      </trkpt>
      <trkpt lat="43.85311" lon="6.78842">
        <ele>1060.2</ele>
        <time>2021-09-19T08:49:35Z</time>
      </trkpt>
      <trkpt lat="43.85314" lon="6.78841">
        <ele>1058.4</ele>
        <time>2021-09-19T08:49:37Z</time>
      </trkpt>
      <trkpt lat="43.85317" lon="6.78842">
        <ele>1056.8</ele>
        <time>2021-09-19T08:49:39Z</time>
      </trkpt>
      <trkpt lat="43.85319" lon="6.78842">
        <ele>1055.3</ele>
        <time>2021-09-19T08:49:40Z</time>
      </trkpt>
      <trkpt lat="43.85321" lon="6.78842">
        <ele>1055.3</ele>
        <time>2021-09-19T08:49:41Z</time>
      </trkpt>
      <trkpt lat="43.85322" lon="6.78839">
        <ele>1053.8</ele>
        <time>2021-09-19T08:49:43Z</time>
      </trkpt>
      <trkpt lat="43.85323" lon="6.78836">
        <ele>1053.8</ele>
        <time>2021-09-19T08:49:45Z</time>
      </trkpt>
      <trkpt lat="43.85323" lon="6.78835">
        <ele>1053.7</ele>
        <time>2021-09-19T08:49:46Z</time>
      </trkpt>
      <trkpt lat="43.85324" lon="6.78834">
        <ele>1053.8</ele>
        <time>2021-09-19T08:49:48Z</time>
      </trkpt>
      <trkpt lat="43.85324" lon="6.78834">
        <ele>1053.8</ele>
        <time>2021-09-19T08:49:49Z</time>
      </trkpt>
      <trkpt lat="43.85325" lon="6.78834">
        <ele>1053.9</ele>
        <time>2021-09-19T08:49:51Z</time>
      </trkpt>
      <trkpt lat="43.85325" lon="6.78834">
        <ele>1053.9</ele>
        <time>2021-09-19T08:49:52Z</time>
      </trkpt>
      <trkpt lat="43.85325" lon="6.78834">
        <ele>1054</ele>
        <time>2021-09-19T08:49:53Z</time>
      </trkpt>
      <trkpt lat="43.85325" lon="6.78845">
        <ele>1054.2</ele>
        <time>2021-09-19T08:49:55Z</time>
      </trkpt>
      <trkpt lat="43.85324" lon="6.78854">
        <ele>1053.9</ele>
        <time>2021-09-19T08:49:57Z</time>
      </trkpt>
      <trkpt lat="43.85322" lon="6.78866">
        <ele>1054.2</ele>
        <time>2021-09-19T08:50:01Z</time>
      </trkpt>
      <trkpt lat="43.85322" lon="6.78872">
        <ele>1052.4</ele>
        <time>2021-09-19T08:50:03Z</time>
      </trkpt>
      <trkpt lat="43.85323" lon="6.78873">
        <ele>1052.4</ele>
        <time>2021-09-19T08:50:04Z</time>
      </trkpt>
      <trkpt lat="43.85326" lon="6.78873">
        <ele>1051.1</ele>
        <time>2021-09-19T08:50:06Z</time>
      </trkpt>
      <trkpt lat="43.85325" lon="6.7887">
        <ele>1051.1</ele>
        <time>2021-09-19T08:50:08Z</time>
      </trkpt>
      <trkpt lat="43.85325" lon="6.78866">
        <ele>1053.1</ele>
        <time>2021-09-19T08:50:10Z</time>
      </trkpt>
      <trkpt lat="43.85325" lon="6.78865">
        <ele>1053.7</ele>
        <time>2021-09-19T08:50:11Z</time>
      </trkpt>
      <trkpt lat="43.85326" lon="6.78863">
        <ele>1052.2</ele>
        <time>2021-09-19T08:50:13Z</time>
      </trkpt>
      <trkpt lat="43.85326" lon="6.78863">
        <ele>1052.3</ele>
        <time>2021-09-19T08:50:14Z</time>
      </trkpt>
      <trkpt lat="43.85328" lon="6.78861">
        <ele>1052.3</ele>
        <time>2021-09-19T08:50:16Z</time>
      </trkpt>
      <trkpt lat="43.85349" lon="6.78859">
        <ele>1040.3</ele>
        <time>2021-09-19T08:50:45Z</time>
      </trkpt>
      <trkpt lat="43.85353" lon="6.78862">
        <ele>1038.5</ele>
        <time>2021-09-19T08:50:47Z</time>
      </trkpt>
      <trkpt lat="43.85356" lon="6.78864">
        <ele>1036.7</ele>
        <time>2021-09-19T08:50:49Z</time>
      </trkpt>
      <trkpt lat="43.85359" lon="6.78868">
        <ele>1034.5</ele>
        <time>2021-09-19T08:50:51Z</time>
      </trkpt>
      <trkpt lat="43.85361" lon="6.78871">
        <ele>1032.2</ele>
        <time>2021-09-19T08:50:52Z</time>
      </trkpt>
      <trkpt lat="43.85362" lon="6.78872">
        <ele>1032.3</ele>
        <time>2021-09-19T08:50:53Z</time>
      </trkpt>
      <trkpt lat="43.85363" lon="6.78874">
        <ele>1030</ele>
        <time>2021-09-19T08:50:55Z</time>
      </trkpt>
      <trkpt lat="43.85364" lon="6.78877">
        <ele>1030</ele>
        <time>2021-09-19T08:50:57Z</time>
      </trkpt>
      <trkpt lat="43.85365" lon="6.78873">
        <ele>1030.4</ele>
        <time>2021-09-19T08:50:59Z</time>
      </trkpt>
      <trkpt lat="43.85366" lon="6.78872">
        <ele>1028.5</ele>
        <time>2021-09-19T08:51:00Z</time>
      </trkpt>
      <trkpt lat="43.85367" lon="6.78868">
        <ele>1028.7</ele>
        <time>2021-09-19T08:51:02Z</time>
      </trkpt>
      <trkpt lat="43.85368" lon="6.78867">
        <ele>1028.7</ele>
        <time>2021-09-19T08:51:03Z</time>
      </trkpt>
      <trkpt lat="43.8537" lon="6.78868">
        <ele>1027</ele>
        <time>2021-09-19T08:51:04Z</time>
      </trkpt>
      <trkpt lat="43.8537" lon="6.78871">
        <ele>1026.9</ele>
        <time>2021-09-19T08:51:06Z</time>
      </trkpt>
      <trkpt lat="43.85372" lon="6.78876">
        <ele>1024.9</ele>
        <time>2021-09-19T08:51:07Z</time>
      </trkpt>
      <trkpt lat="43.85373" lon="6.78878">
        <ele>1025</ele>
        <time>2021-09-19T08:51:08Z</time>
      </trkpt>
      <trkpt lat="43.85374" lon="6.78877">
        <ele>1025</ele>
        <time>2021-09-19T08:51:10Z</time>
      </trkpt>
      <trkpt lat="43.85375" lon="6.78878">
        <ele>1025.1</ele>
        <time>2021-09-19T08:51:11Z</time>
      </trkpt>
      <trkpt lat="43.85375" lon="6.78878">
        <ele>1023.1</ele>
        <time>2021-09-19T08:51:13Z</time>
      </trkpt>
      <trkpt lat="43.85376" lon="6.78878">
        <ele>1023.2</ele>
        <time>2021-09-19T08:51:15Z</time>
      </trkpt>
      <trkpt lat="43.85376" lon="6.7888">
        <ele>1023.2</ele>
        <time>2021-09-19T08:51:16Z</time>
      </trkpt>
      <trkpt lat="43.85376" lon="6.78881">
        <ele>1023.3</ele>
        <time>2021-09-19T08:51:17Z</time>
      </trkpt>
      <trkpt lat="43.85381" lon="6.78883">
        <ele>1019.4</ele>
        <time>2021-09-19T08:51:29Z</time>
      </trkpt>
      <trkpt lat="43.85383" lon="6.78882">
        <ele>1019.4</ele>
        <time>2021-09-19T08:51:30Z</time>
      </trkpt>
      <trkpt lat="43.85384" lon="6.78882">
        <ele>1019.5</ele>
        <time>2021-09-19T08:51:31Z</time>
      </trkpt>
      <trkpt lat="43.85385" lon="6.78882">
        <ele>1017.9</ele>
        <time>2021-09-19T08:51:32Z</time>
      </trkpt>
      <trkpt lat="43.85386" lon="6.78883">
        <ele>1017.7</ele>
        <time>2021-09-19T08:51:33Z</time>
      </trkpt>
      <trkpt lat="43.85389" lon="6.78885">
        <ele>1015.9</ele>
        <time>2021-09-19T08:51:35Z</time>
      </trkpt>
      <trkpt lat="43.85392" lon="6.78888">
        <ele>1013.8</ele>
        <time>2021-09-19T08:51:36Z</time>
      </trkpt>
      <trkpt lat="43.85395" lon="6.78891">
        <ele>1012.1</ele>
        <time>2021-09-19T08:51:38Z</time>
      </trkpt>
      <trkpt lat="43.85396" lon="6.78895">
        <ele>1011.8</ele>
        <time>2021-09-19T08:51:39Z</time>
      </trkpt>
      <trkpt lat="43.85398" lon="6.789">
        <ele>1009.3</ele>
        <time>2021-09-19T08:51:41Z</time>
      </trkpt>
      <trkpt lat="43.85399" lon="6.78903">
        <ele>1009.3</ele>
        <time>2021-09-19T08:51:42Z</time>
      </trkpt>
      <trkpt lat="43.854" lon="6.78903">
        <ele>1007.8</ele>
        <time>2021-09-19T08:51:43Z</time>
      </trkpt>
      <trkpt lat="43.85403" lon="6.789">
        <ele>1007.8</ele>
        <time>2021-09-19T08:51:45Z</time>
      </trkpt>
      <trkpt lat="43.85403" lon="6.78898">
        <ele>1006.7</ele>
        <time>2021-09-19T08:51:46Z</time>
      </trkpt>
      <trkpt lat="43.85405" lon="6.78893">
        <ele>1007.1</ele>
        <time>2021-09-19T08:51:47Z</time>
      </trkpt>
      <trkpt lat="43.85405" lon="6.78891">
        <ele>1007.2</ele>
        <time>2021-09-19T08:51:48Z</time>
      </trkpt>
      <trkpt lat="43.85407" lon="6.78887">
        <ele>1005.9</ele>
        <time>2021-09-19T08:51:49Z</time>
      </trkpt>
      <trkpt lat="43.85408" lon="6.7888">
        <ele>1006.4</ele>
        <time>2021-09-19T08:51:51Z</time>
      </trkpt>
      <trkpt lat="43.85408" lon="6.78878">
        <ele>1006.4</ele>
        <time>2021-09-19T08:51:52Z</time>
      </trkpt>
      <trkpt lat="43.85409" lon="6.78876">
        <ele>1006.6</ele>
        <time>2021-09-19T08:51:53Z</time>
      </trkpt>
      <trkpt lat="43.8541" lon="6.78873">
        <ele>1005</ele>
        <time>2021-09-19T08:51:54Z</time>
      </trkpt>
      <trkpt lat="43.85412" lon="6.78871">
        <ele>1003.3</ele>
        <time>2021-09-19T08:51:56Z</time>
      </trkpt>
      <trkpt lat="43.85416" lon="6.78869">
        <ele>1001.6</ele>
        <time>2021-09-19T08:51:57Z</time>
      </trkpt>
      <trkpt lat="43.8542" lon="6.78867">
        <ele>999.9</ele>
        <time>2021-09-19T08:51:58Z</time>
      </trkpt>
      <trkpt lat="43.85421" lon="6.78867">
        <ele>998.2</ele>
        <time>2021-09-19T08:51:59Z</time>
      </trkpt>
      <trkpt lat="43.85423" lon="6.78869">
        <ele>998.2</ele>
        <time>2021-09-19T08:52:01Z</time>
      </trkpt>
      <trkpt lat="43.85426" lon="6.78872">
        <ele>996.5</ele>
        <time>2021-09-19T08:52:02Z</time>
      </trkpt>
      <trkpt lat="43.85429" lon="6.78877">
        <ele>994.9</ele>
        <time>2021-09-19T08:52:03Z</time>
      </trkpt>
      <trkpt lat="43.8543" lon="6.78881">
        <ele>994.7</ele>
        <time>2021-09-19T08:52:04Z</time>
      </trkpt>
      <trkpt lat="43.85432" lon="6.78885">
        <ele>993</ele>
        <time>2021-09-19T08:52:05Z</time>
      </trkpt>
      <trkpt lat="43.85434" lon="6.78889">
        <ele>991.3</ele>
        <time>2021-09-19T08:52:07Z</time>
      </trkpt>
      <trkpt lat="43.85435" lon="6.78894">
        <ele>991</ele>
        <time>2021-09-19T08:52:08Z</time>
      </trkpt>
      <trkpt lat="43.85437" lon="6.78898">
        <ele>989.2</ele>
        <time>2021-09-19T08:52:09Z</time>
      </trkpt>
      <trkpt lat="43.85439" lon="6.789">
        <ele>988.9</ele>
        <time>2021-09-19T08:52:11Z</time>
      </trkpt>
      <trkpt lat="43.8544" lon="6.78899">
        <ele>989</ele>
        <time>2021-09-19T08:52:12Z</time>
      </trkpt>
      <trkpt lat="43.85441" lon="6.78899">
        <ele>987.8</ele>
        <time>2021-09-19T08:52:13Z</time>
      </trkpt>
      <trkpt lat="43.85442" lon="6.78894">
        <ele>988.2</ele>
        <time>2021-09-19T08:52:16Z</time>
      </trkpt>
      <trkpt lat="43.85443" lon="6.78888">
        <ele>986.8</ele>
        <time>2021-09-19T08:52:17Z</time>
      </trkpt>
      <trkpt lat="43.85444" lon="6.78882">
        <ele>987.2</ele>
        <time>2021-09-19T08:52:19Z</time>
      </trkpt>
      <trkpt lat="43.85444" lon="6.78874">
        <ele>987.7</ele>
        <time>2021-09-19T08:52:21Z</time>
      </trkpt>
      <trkpt lat="43.85444" lon="6.78869">
        <ele>988.1</ele>
        <time>2021-09-19T08:52:22Z</time>
      </trkpt>
      <trkpt lat="43.85443" lon="6.78863">
        <ele>988.2</ele>
        <time>2021-09-19T08:52:23Z</time>
      </trkpt>
      <trkpt lat="43.85443" lon="6.78859">
        <ele>988.3</ele>
        <time>2021-09-19T08:52:25Z</time>
      </trkpt>
      <trkpt lat="43.85443" lon="6.78855">
        <ele>988.3</ele>
        <time>2021-09-19T08:52:26Z</time>
      </trkpt>
      <trkpt lat="43.85443" lon="6.78852">
        <ele>989.9</ele>
        <time>2021-09-19T08:52:27Z</time>
      </trkpt>
      <trkpt lat="43.85443" lon="6.7885">
        <ele>990</ele>
        <time>2021-09-19T08:52:28Z</time>
      </trkpt>
      <trkpt lat="43.85442" lon="6.78849">
        <ele>990</ele>
        <time>2021-09-19T08:52:29Z</time>
      </trkpt>
      <trkpt lat="43.85442" lon="6.78848">
        <ele>990.1</ele>
        <time>2021-09-19T08:52:31Z</time>
      </trkpt>
      <trkpt lat="43.85442" lon="6.78848">
        <ele>990.2</ele>
        <time>2021-09-19T08:52:32Z</time>
      </trkpt>
      <trkpt lat="43.85442" lon="6.78848">
        <ele>990.2</ele>
        <time>2021-09-19T08:52:33Z</time>
      </trkpt>
      <trkpt lat="43.85443" lon="6.78849">
        <ele>988.6</ele>
        <time>2021-09-19T08:52:34Z</time>
      </trkpt>
      <trkpt lat="43.85444" lon="6.78849">
        <ele>988.7</ele>
        <time>2021-09-19T08:52:36Z</time>
      </trkpt>
      <trkpt lat="43.85445" lon="6.7885">
        <ele>988.7</ele>
        <time>2021-09-19T08:52:37Z</time>
      </trkpt>
      <trkpt lat="43.85447" lon="6.78852">
        <ele>987.1</ele>
        <time>2021-09-19T08:52:38Z</time>
      </trkpt>
      <trkpt lat="43.85453" lon="6.78859">
        <ele>984.1</ele>
        <time>2021-09-19T08:52:42Z</time>
      </trkpt>
      <trkpt lat="43.85455" lon="6.78864">
        <ele>982.8</ele>
        <time>2021-09-19T08:52:43Z</time>
      </trkpt>
      <trkpt lat="43.85458" lon="6.78872">
        <ele>982.6</ele>
        <time>2021-09-19T08:52:44Z</time>
      </trkpt>
      <trkpt lat="43.85461" lon="6.78881">
        <ele>981</ele>
        <time>2021-09-19T08:52:46Z</time>
      </trkpt>
      <trkpt lat="43.85464" lon="6.78889">
        <ele>979.2</ele>
        <time>2021-09-19T08:52:47Z</time>
      </trkpt>
      <trkpt lat="43.85465" lon="6.78895">
        <ele>977.2</ele>
        <time>2021-09-19T08:52:48Z</time>
      </trkpt>
      <trkpt lat="43.85467" lon="6.78906">
        <ele>976.5</ele>
        <time>2021-09-19T08:52:50Z</time>
      </trkpt>
      <trkpt lat="43.85466" lon="6.78914">
        <ele>975.7</ele>
        <time>2021-09-19T08:52:52Z</time>
      </trkpt>
      <trkpt lat="43.85467" lon="6.78916">
        <ele>975.8</ele>
        <time>2021-09-19T08:52:53Z</time>
      </trkpt>
      <trkpt lat="43.85468" lon="6.78915">
        <ele>975.8</ele>
        <time>2021-09-19T08:52:54Z</time>
      </trkpt>
      <trkpt lat="43.85468" lon="6.78914">
        <ele>974.4</ele>
        <time>2021-09-19T08:52:56Z</time>
      </trkpt>
      <trkpt lat="43.85469" lon="6.78912">
        <ele>974.4</ele>
        <time>2021-09-19T08:52:57Z</time>
      </trkpt>
      <trkpt lat="43.8547" lon="6.78911">
        <ele>974.9</ele>
        <time>2021-09-19T08:52:58Z</time>
      </trkpt>
      <trkpt lat="43.85471" lon="6.7891">
        <ele>975</ele>
        <time>2021-09-19T08:52:59Z</time>
      </trkpt>
      <trkpt lat="43.85471" lon="6.78909">
        <ele>973.5</ele>
        <time>2021-09-19T08:53:00Z</time>
      </trkpt>
      <trkpt lat="43.85472" lon="6.78908">
        <ele>973.6</ele>
        <time>2021-09-19T08:53:02Z</time>
      </trkpt>
      <trkpt lat="43.85473" lon="6.78907">
        <ele>974</ele>
        <time>2021-09-19T08:53:03Z</time>
      </trkpt>
      <trkpt lat="43.85474" lon="6.78906">
        <ele>974.1</ele>
        <time>2021-09-19T08:53:11Z</time>
      </trkpt>
      <trkpt lat="43.85474" lon="6.78905">
        <ele>972.7</ele>
        <time>2021-09-19T08:53:12Z</time>
      </trkpt>
      <trkpt lat="43.85475" lon="6.78904">
        <ele>972.7</ele>
        <time>2021-09-19T08:53:13Z</time>
      </trkpt>
      <trkpt lat="43.85477" lon="6.78907">
        <ele>971.4</ele>
        <time>2021-09-19T08:53:15Z</time>
      </trkpt>
      <trkpt lat="43.85481" lon="6.78914">
        <ele>969.5</ele>
        <time>2021-09-19T08:53:17Z</time>
      </trkpt>
      <trkpt lat="43.85484" lon="6.78918">
        <ele>968.1</ele>
        <time>2021-09-19T08:53:18Z</time>
      </trkpt>
      <trkpt lat="43.85487" lon="6.7892">
        <ele>967.1</ele>
        <time>2021-09-19T08:53:19Z</time>
      </trkpt>
      <trkpt lat="43.85489" lon="6.78924">
        <ele>965.7</ele>
        <time>2021-09-19T08:53:20Z</time>
      </trkpt>
      <trkpt lat="43.85491" lon="6.78928">
        <ele>965.3</ele>
        <time>2021-09-19T08:53:22Z</time>
      </trkpt>
      <trkpt lat="43.85493" lon="6.78933">
        <ele>963.9</ele>
        <time>2021-09-19T08:53:23Z</time>
      </trkpt>
      <trkpt lat="43.85493" lon="6.78936">
        <ele>963.5</ele>
        <time>2021-09-19T08:53:24Z</time>
      </trkpt>
      <trkpt lat="43.85494" lon="6.78938">
        <ele>963.1</ele>
        <time>2021-09-19T08:53:26Z</time>
      </trkpt>
      <trkpt lat="43.85495" lon="6.78938">
        <ele>963.2</ele>
        <time>2021-09-19T08:53:27Z</time>
      </trkpt>
      <trkpt lat="43.85495" lon="6.78938">
        <ele>963.2</ele>
        <time>2021-09-19T08:53:29Z</time>
      </trkpt>
      <trkpt lat="43.85495" lon="6.78939">
        <ele>963.3</ele>
        <time>2021-09-19T08:53:31Z</time>
      </trkpt>
      <trkpt lat="43.85495" lon="6.78939">
        <ele>963.3</ele>
        <time>2021-09-19T08:53:33Z</time>
      </trkpt>
      <trkpt lat="43.85494" lon="6.78939">
        <ele>963.4</ele>
        <time>2021-09-19T08:53:34Z</time>
      </trkpt>
      <trkpt lat="43.85494" lon="6.78939">
        <ele>963.4</ele>
        <time>2021-09-19T08:53:35Z</time>
      </trkpt>
      <trkpt lat="43.85494" lon="6.78939">
        <ele>963.5</ele>
        <time>2021-09-19T08:53:37Z</time>
      </trkpt>
      <trkpt lat="43.85503" lon="6.78928">
        <ele>961.9</ele>
        <time>2021-09-19T08:54:09Z</time>
      </trkpt>
      <trkpt lat="43.85504" lon="6.78924">
        <ele>962.3</ele>
        <time>2021-09-19T08:54:10Z</time>
      </trkpt>
      <trkpt lat="43.85505" lon="6.7892">
        <ele>962.7</ele>
        <time>2021-09-19T08:54:11Z</time>
      </trkpt>
      <trkpt lat="43.85505" lon="6.78918">
        <ele>961.8</ele>
        <time>2021-09-19T08:54:12Z</time>
      </trkpt>
      <trkpt lat="43.85507" lon="6.78914">
        <ele>962.1</ele>
        <time>2021-09-19T08:54:14Z</time>
      </trkpt>
      <trkpt lat="43.85507" lon="6.78912">
        <ele>962.1</ele>
        <time>2021-09-19T08:54:15Z</time>
      </trkpt>
      <trkpt lat="43.85508" lon="6.78909">
        <ele>962.4</ele>
        <time>2021-09-19T08:54:16Z</time>
      </trkpt>
      <trkpt lat="43.85508" lon="6.78908">
        <ele>962.4</ele>
        <time>2021-09-19T08:54:17Z</time>
      </trkpt>
      <trkpt lat="43.85509" lon="6.78906">
        <ele>961.6</ele>
        <time>2021-09-19T08:54:18Z</time>
      </trkpt>
      <trkpt lat="43.85511" lon="6.78904">
        <ele>961.7</ele>
        <time>2021-09-19T08:54:20Z</time>
      </trkpt>
      <trkpt lat="43.85514" lon="6.78901">
        <ele>959.7</ele>
        <time>2021-09-19T08:54:22Z</time>
      </trkpt>
      <trkpt lat="43.85514" lon="6.78897">
        <ele>959.7</ele>
        <time>2021-09-19T08:54:23Z</time>
      </trkpt>
      <trkpt lat="43.85514" lon="6.78895">
        <ele>960.9</ele>
        <time>2021-09-19T08:54:24Z</time>
      </trkpt>
      <trkpt lat="43.85513" lon="6.78889">
        <ele>960.9</ele>
        <time>2021-09-19T08:54:26Z</time>
      </trkpt>
      <trkpt lat="43.8551" lon="6.78885">
        <ele>960.3</ele>
        <time>2021-09-19T08:54:27Z</time>
      </trkpt>
      <trkpt lat="43.85509" lon="6.78884">
        <ele>960.1</ele>
        <time>2021-09-19T08:54:28Z</time>
      </trkpt>
      <trkpt lat="43.85508" lon="6.78882">
        <ele>959.8</ele>
        <time>2021-09-19T08:54:29Z</time>
      </trkpt>
      <trkpt lat="43.85508" lon="6.78881">
        <ele>959.8</ele>
        <time>2021-09-19T08:54:31Z</time>
      </trkpt>
      <trkpt lat="43.85508" lon="6.78882">
        <ele>959.8</ele>
        <time>2021-09-19T08:54:32Z</time>
      </trkpt>
      <trkpt lat="43.85508" lon="6.78882">
        <ele>959.8</ele>
        <time>2021-09-19T08:54:34Z</time>
      </trkpt>
      <trkpt lat="43.85508" lon="6.78882">
        <ele>959.7</ele>
        <time>2021-09-19T08:54:35Z</time>
      </trkpt>
      <trkpt lat="43.85508" lon="6.78881">
        <ele>959.7</ele>
        <time>2021-09-19T08:54:36Z</time>
      </trkpt>
      <trkpt lat="43.85508" lon="6.78881">
        <ele>959.7</ele>
        <time>2021-09-19T08:54:38Z</time>
      </trkpt>
      <trkpt lat="43.85508" lon="6.78881">
        <ele>959.7</ele>
        <time>2021-09-19T08:54:39Z</time>
      </trkpt>
      <trkpt lat="43.85519" lon="6.78889">
        <ele>958</ele>
        <time>2021-09-19T08:54:46Z</time>
      </trkpt>
      <trkpt lat="43.85523" lon="6.78892">
        <ele>957.3</ele>
        <time>2021-09-19T08:54:47Z</time>
      </trkpt>
      <trkpt lat="43.85528" lon="6.78896">
        <ele>956.4</ele>
        <time>2021-09-19T08:54:48Z</time>
      </trkpt>
      <trkpt lat="43.85534" lon="6.789">
        <ele>955.5</ele>
        <time>2021-09-19T08:54:50Z</time>
      </trkpt>
      <trkpt lat="43.85541" lon="6.78907">
        <ele>954.2</ele>
        <time>2021-09-19T08:54:51Z</time>
      </trkpt>
      <trkpt lat="43.85546" lon="6.78912">
        <ele>953.3</ele>
        <time>2021-09-19T08:54:53Z</time>
      </trkpt>
      <trkpt lat="43.85552" lon="6.78917">
        <ele>952.2</ele>
        <time>2021-09-19T08:54:55Z</time>
      </trkpt>
      <trkpt lat="43.85556" lon="6.7892">
        <ele>951.7</ele>
        <time>2021-09-19T08:54:56Z</time>
      </trkpt>
      <trkpt lat="43.85559" lon="6.78925">
        <ele>951.1</ele>
        <time>2021-09-19T08:54:57Z</time>
      </trkpt>
      <trkpt lat="43.85561" lon="6.78929">
        <ele>950.6</ele>
        <time>2021-09-19T08:54:58Z</time>
      </trkpt>
      <trkpt lat="43.85563" lon="6.78933">
        <ele>950.2</ele>
        <time>2021-09-19T08:55:00Z</time>
      </trkpt>
      <trkpt lat="43.85563" lon="6.78939">
        <ele>949.7</ele>
        <time>2021-09-19T08:55:01Z</time>
      </trkpt>
      <trkpt lat="43.8556" lon="6.78947">
        <ele>948.9</ele>
        <time>2021-09-19T08:55:03Z</time>
      </trkpt>
      <trkpt lat="43.85558" lon="6.78957">
        <ele>947.8</ele>
        <time>2021-09-19T08:55:04Z</time>
      </trkpt>
      <trkpt lat="43.85556" lon="6.78964">
        <ele>947.1</ele>
        <time>2021-09-19T08:55:05Z</time>
      </trkpt>
      <trkpt lat="43.85555" lon="6.78973">
        <ele>946.2</ele>
        <time>2021-09-19T08:55:07Z</time>
      </trkpt>
      <trkpt lat="43.85556" lon="6.78982">
        <ele>945.3</ele>
        <time>2021-09-19T08:55:08Z</time>
      </trkpt>
      <trkpt lat="43.85557" lon="6.7899">
        <ele>944.6</ele>
        <time>2021-09-19T08:55:09Z</time>
      </trkpt>
      <trkpt lat="43.85557" lon="6.78997">
        <ele>944.1</ele>
        <time>2021-09-19T08:55:10Z</time>
      </trkpt>
      <trkpt lat="43.85557" lon="6.79004">
        <ele>943.5</ele>
        <time>2021-09-19T08:55:12Z</time>
      </trkpt>
      <trkpt lat="43.85556" lon="6.79012">
        <ele>943</ele>
        <time>2021-09-19T08:55:13Z</time>
      </trkpt>
      <trkpt lat="43.85552" lon="6.79019">
        <ele>942.6</ele>
        <time>2021-09-19T08:55:15Z</time>
      </trkpt>
      <trkpt lat="43.85546" lon="6.79023">
        <ele>942.2</ele>
        <time>2021-09-19T08:55:16Z</time>
      </trkpt>
      <trkpt lat="43.85543" lon="6.79027">
        <ele>941.9</ele>
        <time>2021-09-19T08:55:18Z</time>
      </trkpt>
      <trkpt lat="43.85537" lon="6.7903">
        <ele>941.6</ele>
        <time>2021-09-19T08:55:19Z</time>
      </trkpt>
      <trkpt lat="43.85534" lon="6.79031">
        <ele>941.4</ele>
        <time>2021-09-19T08:55:20Z</time>
      </trkpt>
      <trkpt lat="43.85532" lon="6.79031">
        <ele>941.3</ele>
        <time>2021-09-19T08:55:21Z</time>
      </trkpt>
      <trkpt lat="43.85527" lon="6.79035">
        <ele>941</ele>
        <time>2021-09-19T08:55:23Z</time>
      </trkpt>
      <trkpt lat="43.8552" lon="6.7904">
        <ele>940.4</ele>
        <time>2021-09-19T08:55:24Z</time>
      </trkpt>
      <trkpt lat="43.85514" lon="6.79044">
        <ele>940</ele>
        <time>2021-09-19T08:55:25Z</time>
      </trkpt>
      <trkpt lat="43.85508" lon="6.79047">
        <ele>939.6</ele>
        <time>2021-09-19T08:55:27Z</time>
      </trkpt>
      <trkpt lat="43.85503" lon="6.7905">
        <ele>939.2</ele>
        <time>2021-09-19T08:55:28Z</time>
      </trkpt>
      <trkpt lat="43.85497" lon="6.79055">
        <ele>938.8</ele>
        <time>2021-09-19T08:55:30Z</time>
      </trkpt>
      <trkpt lat="43.85492" lon="6.79059">
        <ele>938.4</ele>
        <time>2021-09-19T08:55:31Z</time>
      </trkpt>
      <trkpt lat="43.85489" lon="6.79061">
        <ele>938.2</ele>
        <time>2021-09-19T08:55:32Z</time>
      </trkpt>
      <trkpt lat="43.85487" lon="6.79063">
        <ele>938</ele>
        <time>2021-09-19T08:55:34Z</time>
      </trkpt>
      <trkpt lat="43.85486" lon="6.79063">
        <ele>938</ele>
        <time>2021-09-19T08:55:35Z</time>
      </trkpt>
      <trkpt lat="43.85481" lon="6.79067">
        <ele>937.5</ele>
        <time>2021-09-19T08:55:37Z</time>
      </trkpt>
      <trkpt lat="43.85476" lon="6.7907">
        <ele>937.2</ele>
        <time>2021-09-19T08:55:39Z</time>
      </trkpt>
      <trkpt lat="43.85473" lon="6.79072">
        <ele>936.9</ele>
        <time>2021-09-19T08:55:40Z</time>
      </trkpt>
      <trkpt lat="43.8547" lon="6.79073">
        <ele>936.7</ele>
        <time>2021-09-19T08:55:42Z</time>
      </trkpt>
      <trkpt lat="43.85469" lon="6.79073">
        <ele>936.6</ele>
        <time>2021-09-19T08:55:43Z</time>
      </trkpt>
      <trkpt lat="43.85466" lon="6.79075">
        <ele>936.3</ele>
        <time>2021-09-19T08:55:44Z</time>
      </trkpt>
      <trkpt lat="43.85461" lon="6.79076">
        <ele>936</ele>
        <time>2021-09-19T08:55:46Z</time>
      </trkpt>
      <trkpt lat="43.85457" lon="6.79077">
        <ele>935.8</ele>
        <time>2021-09-19T08:55:47Z</time>
      </trkpt>
      <trkpt lat="43.85449" lon="6.79077">
        <ele>935.3</ele>
        <time>2021-09-19T08:55:49Z</time>
      </trkpt>
      <trkpt lat="43.85443" lon="6.7908">
        <ele>935</ele>
        <time>2021-09-19T08:55:50Z</time>
      </trkpt>
      <trkpt lat="43.85439" lon="6.79083">
        <ele>934.8</ele>
        <time>2021-09-19T08:55:52Z</time>
      </trkpt>
      <trkpt lat="43.85434" lon="6.79085">
        <ele>934.6</ele>
        <time>2021-09-19T08:55:53Z</time>
      </trkpt>
      <trkpt lat="43.85432" lon="6.79086">
        <ele>934.5</ele>
        <time>2021-09-19T08:55:54Z</time>
      </trkpt>
      <trkpt lat="43.85431" lon="6.79086">
        <ele>935.8</ele>
        <time>2021-09-19T08:55:56Z</time>
      </trkpt>
      <trkpt lat="43.85431" lon="6.79085">
        <ele>937.2</ele>
        <time>2021-09-19T08:55:57Z</time>
      </trkpt>
      <trkpt lat="43.8543" lon="6.79084">
        <ele>939.5</ele>
        <time>2021-09-19T08:55:58Z</time>
      </trkpt>
      <trkpt lat="43.85429" lon="6.79083">
        <ele>941.4</ele>
        <time>2021-09-19T08:56:00Z</time>
      </trkpt>
      <trkpt lat="43.85429" lon="6.79083">
        <ele>942.8</ele>
        <time>2021-09-19T08:56:01Z</time>
      </trkpt>
      <trkpt lat="43.85428" lon="6.79083">
        <ele>944.1</ele>
        <time>2021-09-19T08:56:02Z</time>
      </trkpt>
      <trkpt lat="43.85426" lon="6.79085">
        <ele>945.9</ele>
        <time>2021-09-19T08:56:03Z</time>
      </trkpt>
      <trkpt lat="43.85425" lon="6.79085">
        <ele>947.3</ele>
        <time>2021-09-19T08:56:04Z</time>
      </trkpt>
      <trkpt lat="43.85443" lon="6.79182">
        <ele>936.9</ele>
        <time>2021-09-19T08:57:40Z</time>
      </trkpt>
      <trkpt lat="43.85446" lon="6.79186">
        <ele>937.7</ele>
        <time>2021-09-19T08:57:41Z</time>
      </trkpt>
      <trkpt lat="43.8545" lon="6.79192">
        <ele>939.4</ele>
        <time>2021-09-19T08:57:42Z</time>
      </trkpt>
      <trkpt lat="43.85453" lon="6.79197">
        <ele>939.7</ele>
        <time>2021-09-19T08:57:44Z</time>
      </trkpt>
      <trkpt lat="43.85455" lon="6.79201">
        <ele>939.8</ele>
        <time>2021-09-19T08:57:46Z</time>
      </trkpt>
      <trkpt lat="43.85457" lon="6.79203">
        <ele>940</ele>
        <time>2021-09-19T08:57:47Z</time>
      </trkpt>
      <trkpt lat="43.85457" lon="6.79203">
        <ele>940</ele>
        <time>2021-09-19T08:57:49Z</time>
      </trkpt>
      <trkpt lat="43.85457" lon="6.79203">
        <ele>940</ele>
        <time>2021-09-19T08:57:50Z</time>
      </trkpt>
      <trkpt lat="43.85457" lon="6.79202">
        <ele>940</ele>
        <time>2021-09-19T08:57:51Z</time>
      </trkpt>
      <trkpt lat="43.85458" lon="6.79202">
        <ele>940</ele>
        <time>2021-09-19T08:57:53Z</time>
      </trkpt>
      <trkpt lat="43.85458" lon="6.79201">
        <ele>940</ele>
        <time>2021-09-19T08:57:54Z</time>
      </trkpt>
      <trkpt lat="43.85486" lon="6.79223">
        <ele>941.2</ele>
        <time>2021-09-19T08:58:28Z</time>
      </trkpt>
      <trkpt lat="43.85487" lon="6.79227">
        <ele>941.4</ele>
        <time>2021-09-19T08:58:29Z</time>
      </trkpt>
      <trkpt lat="43.85489" lon="6.79231">
        <ele>941.6</ele>
        <time>2021-09-19T08:58:31Z</time>
      </trkpt>
      <trkpt lat="43.8549" lon="6.79232">
        <ele>941.6</ele>
        <time>2021-09-19T08:58:32Z</time>
      </trkpt>
      <trkpt lat="43.85491" lon="6.79235">
        <ele>941.8</ele>
        <time>2021-09-19T08:58:34Z</time>
      </trkpt>
      <trkpt lat="43.85491" lon="6.79236">
        <ele>941.8</ele>
        <time>2021-09-19T08:58:35Z</time>
      </trkpt>
      <trkpt lat="43.85491" lon="6.79237">
        <ele>941.9</ele>
        <time>2021-09-19T08:58:36Z</time>
      </trkpt>
      <trkpt lat="43.85493" lon="6.79238">
        <ele>941.9</ele>
        <time>2021-09-19T08:58:37Z</time>
      </trkpt>
      <trkpt lat="43.85494" lon="6.7924">
        <ele>942</ele>
        <time>2021-09-19T08:58:38Z</time>
      </trkpt>
      <trkpt lat="43.85496" lon="6.79242">
        <ele>942.2</ele>
        <time>2021-09-19T08:58:40Z</time>
      </trkpt>
      <trkpt lat="43.85496" lon="6.79243">
        <ele>942.2</ele>
        <time>2021-09-19T08:58:41Z</time>
      </trkpt>
      <trkpt lat="43.85498" lon="6.79245">
        <ele>942.3</ele>
        <time>2021-09-19T08:58:43Z</time>
      </trkpt>
      <trkpt lat="43.85499" lon="6.79246">
        <ele>942.3</ele>
        <time>2021-09-19T08:58:44Z</time>
      </trkpt>
      <trkpt lat="43.85501" lon="6.79247">
        <ele>942.4</ele>
        <time>2021-09-19T08:58:45Z</time>
      </trkpt>
      <trkpt lat="43.85501" lon="6.79248">
        <ele>942.5</ele>
        <time>2021-09-19T08:58:47Z</time>
      </trkpt>
      <trkpt lat="43.85502" lon="6.79249">
        <ele>942.5</ele>
        <time>2021-09-19T08:58:48Z</time>
      </trkpt>
      <trkpt lat="43.85505" lon="6.79251">
        <ele>942.6</ele>
        <time>2021-09-19T08:58:49Z</time>
      </trkpt>
      <trkpt lat="43.85506" lon="6.79252">
        <ele>942.7</ele>
        <time>2021-09-19T08:58:50Z</time>
      </trkpt>
      <trkpt lat="43.85508" lon="6.79253">
        <ele>942.7</ele>
        <time>2021-09-19T08:58:51Z</time>
      </trkpt>
      <trkpt lat="43.85509" lon="6.79255">
        <ele>942.8</ele>
        <time>2021-09-19T08:58:52Z</time>
      </trkpt>
      <trkpt lat="43.85511" lon="6.79256">
        <ele>942.8</ele>
        <time>2021-09-19T08:58:53Z</time>
      </trkpt>
      <trkpt lat="43.85513" lon="6.79257">
        <ele>942.8</ele>
        <time>2021-09-19T08:58:55Z</time>
      </trkpt>
      <trkpt lat="43.85517" lon="6.79259">
        <ele>942.9</ele>
        <time>2021-09-19T08:58:56Z</time>
      </trkpt>
      <trkpt lat="43.85518" lon="6.7926">
        <ele>942.9</ele>
        <time>2021-09-19T08:58:58Z</time>
      </trkpt>
      <trkpt lat="43.8552" lon="6.79261">
        <ele>943</ele>
        <time>2021-09-19T08:58:59Z</time>
      </trkpt>
      <trkpt lat="43.85524" lon="6.79263">
        <ele>943.1</ele>
        <time>2021-09-19T08:59:00Z</time>
      </trkpt>
      <trkpt lat="43.85526" lon="6.79266">
        <ele>943.2</ele>
        <time>2021-09-19T08:59:01Z</time>
      </trkpt>
      <trkpt lat="43.8553" lon="6.79269">
        <ele>943.3</ele>
        <time>2021-09-19T08:59:02Z</time>
      </trkpt>
      <trkpt lat="43.85533" lon="6.79272">
        <ele>943.4</ele>
        <time>2021-09-19T08:59:04Z</time>
      </trkpt>
      <trkpt lat="43.85536" lon="6.79276">
        <ele>943.5</ele>
        <time>2021-09-19T08:59:05Z</time>
      </trkpt>
      <trkpt lat="43.8554" lon="6.7928">
        <ele>943.6</ele>
        <time>2021-09-19T08:59:06Z</time>
      </trkpt>
      <trkpt lat="43.85543" lon="6.79281">
        <ele>943.7</ele>
        <time>2021-09-19T08:59:07Z</time>
      </trkpt>
      <trkpt lat="43.85546" lon="6.79283">
        <ele>943.8</ele>
        <time>2021-09-19T08:59:09Z</time>
      </trkpt>
      <trkpt lat="43.85549" lon="6.79285">
        <ele>944</ele>
        <time>2021-09-19T08:59:11Z</time>
      </trkpt>
      <trkpt lat="43.85552" lon="6.79286">
        <ele>944.2</ele>
        <time>2021-09-19T08:59:12Z</time>
      </trkpt>
      <trkpt lat="43.85553" lon="6.79287">
        <ele>944.2</ele>
        <time>2021-09-19T08:59:13Z</time>
      </trkpt>
      <trkpt lat="43.85556" lon="6.79288">
        <ele>944.3</ele>
        <time>2021-09-19T08:59:14Z</time>
      </trkpt>
      <trkpt lat="43.8556" lon="6.79294">
        <ele>944.6</ele>
        <time>2021-09-19T08:59:16Z</time>
      </trkpt>
      <trkpt lat="43.85563" lon="6.79298">
        <ele>944.8</ele>
        <time>2021-09-19T08:59:18Z</time>
      </trkpt>
      <trkpt lat="43.85565" lon="6.793">
        <ele>944.9</ele>
        <time>2021-09-19T08:59:19Z</time>
      </trkpt>
      <trkpt lat="43.85568" lon="6.79301">
        <ele>945.1</ele>
        <time>2021-09-19T08:59:21Z</time>
      </trkpt>
      <trkpt lat="43.85569" lon="6.79305">
        <ele>945.2</ele>
        <time>2021-09-19T08:59:22Z</time>
      </trkpt>
      <trkpt lat="43.8557" lon="6.79307">
        <ele>945.3</ele>
        <time>2021-09-19T08:59:23Z</time>
      </trkpt>
      <trkpt lat="43.85572" lon="6.7931">
        <ele>945.5</ele>
        <time>2021-09-19T08:59:24Z</time>
      </trkpt>
      <trkpt lat="43.85573" lon="6.79311">
        <ele>945.5</ele>
        <time>2021-09-19T08:59:25Z</time>
      </trkpt>
      <trkpt lat="43.85576" lon="6.79313">
        <ele>945.6</ele>
        <time>2021-09-19T08:59:26Z</time>
      </trkpt>
      <trkpt lat="43.85579" lon="6.79315">
        <ele>945.8</ele>
        <time>2021-09-19T08:59:28Z</time>
      </trkpt>
      <trkpt lat="43.8558" lon="6.79317">
        <ele>945.9</ele>
        <time>2021-09-19T08:59:29Z</time>
      </trkpt>
      <trkpt lat="43.85651" lon="6.79406">
        <ele>937.2</ele>
        <time>2021-09-19T09:00:00Z</time>
      </trkpt>
      <trkpt lat="43.85657" lon="6.7941">
        <ele>935.9</ele>
        <time>2021-09-19T09:00:02Z</time>
      </trkpt>
      <trkpt lat="43.8566" lon="6.79412">
        <ele>935.1</ele>
        <time>2021-09-19T09:00:03Z</time>
      </trkpt>
      <trkpt lat="43.85662" lon="6.79415">
        <ele>934.5</ele>
        <time>2021-09-19T09:00:05Z</time>
      </trkpt>
      <trkpt lat="43.85662" lon="6.79416">
        <ele>934.3</ele>
        <time>2021-09-19T09:00:07Z</time>
      </trkpt>
      <trkpt lat="43.85662" lon="6.79416">
        <ele>934.2</ele>
        <time>2021-09-19T09:00:08Z</time>
      </trkpt>
      <trkpt lat="43.85661" lon="6.79414">
        <ele>933.9</ele>
        <time>2021-09-19T09:00:10Z</time>
      </trkpt>
      <trkpt lat="43.8566" lon="6.79412">
        <ele>933.5</ele>
        <time>2021-09-19T09:00:11Z</time>
      </trkpt>
      <trkpt lat="43.8566" lon="6.79412">
        <ele>933.5</ele>
        <time>2021-09-19T09:00:12Z</time>
      </trkpt>
      <trkpt lat="43.8566" lon="6.79412">
        <ele>933.5</ele>
        <time>2021-09-19T09:00:14Z</time>
      </trkpt>
      <trkpt lat="43.85728" lon="6.79388">
        <ele>920.5</ele>
        <time>2021-09-19T09:01:00Z</time>
      </trkpt>
      <trkpt lat="43.85735" lon="6.79387">
        <ele>919.4</ele>
        <time>2021-09-19T09:01:02Z</time>
      </trkpt>
      <trkpt lat="43.85739" lon="6.79386">
        <ele>918.7</ele>
        <time>2021-09-19T09:01:03Z</time>
      </trkpt>
      <trkpt lat="43.85744" lon="6.79385">
        <ele>917.9</ele>
        <time>2021-09-19T09:01:04Z</time>
      </trkpt>
      <trkpt lat="43.85748" lon="6.79385">
        <ele>917.5</ele>
        <time>2021-09-19T09:01:05Z</time>
      </trkpt>
      <trkpt lat="43.85749" lon="6.79384">
        <ele>917.4</ele>
        <time>2021-09-19T09:01:06Z</time>
      </trkpt>
      <trkpt lat="43.85749" lon="6.79384">
        <ele>917.3</ele>
        <time>2021-09-19T09:01:08Z</time>
      </trkpt>
      <trkpt lat="43.85749" lon="6.79384">
        <ele>917.3</ele>
        <time>2021-09-19T09:01:09Z</time>
      </trkpt>
      <trkpt lat="43.85749" lon="6.79384">
        <ele>917.3</ele>
        <time>2021-09-19T09:01:10Z</time>
      </trkpt>
      <trkpt lat="43.85749" lon="6.79383">
        <ele>917.2</ele>
        <time>2021-09-19T09:01:12Z</time>
      </trkpt>
      <trkpt lat="43.85749" lon="6.79383">
        <ele>917.2</ele>
        <time>2021-09-19T09:01:13Z</time>
      </trkpt>
      <trkpt lat="43.85754" lon="6.7938">
        <ele>916.5</ele>
        <time>2021-09-19T09:01:25Z</time>
      </trkpt>
      <trkpt lat="43.85758" lon="6.79375">
        <ele>915.9</ele>
        <time>2021-09-19T09:01:27Z</time>
      </trkpt>
      <trkpt lat="43.85763" lon="6.79374">
        <ele>915.3</ele>
        <time>2021-09-19T09:01:28Z</time>
      </trkpt>
      <trkpt lat="43.85767" lon="6.79374">
        <ele>914.8</ele>
        <time>2021-09-19T09:01:29Z</time>
      </trkpt>
      <trkpt lat="43.8577" lon="6.79374">
        <ele>914.3</ele>
        <time>2021-09-19T09:01:30Z</time>
      </trkpt>
      <trkpt lat="43.85773" lon="6.79372">
        <ele>913.9</ele>
        <time>2021-09-19T09:01:31Z</time>
      </trkpt>
      <trkpt lat="43.85774" lon="6.79371">
        <ele>913.8</ele>
        <time>2021-09-19T09:01:32Z</time>
      </trkpt>
      <trkpt lat="43.85777" lon="6.79368">
        <ele>913.3</ele>
        <time>2021-09-19T09:01:34Z</time>
      </trkpt>
      <trkpt lat="43.85778" lon="6.79366">
        <ele>913.1</ele>
        <time>2021-09-19T09:01:35Z</time>
      </trkpt>
      <trkpt lat="43.85779" lon="6.79365">
        <ele>912.9</ele>
        <time>2021-09-19T09:01:36Z</time>
      </trkpt>
      <trkpt lat="43.85783" lon="6.79363">
        <ele>912.3</ele>
        <time>2021-09-19T09:01:37Z</time>
      </trkpt>
      <trkpt lat="43.85784" lon="6.79363">
        <ele>912.2</ele>
        <time>2021-09-19T09:01:38Z</time>
      </trkpt>
      <trkpt lat="43.85787" lon="6.79363">
        <ele>911.6</ele>
        <time>2021-09-19T09:01:40Z</time>
      </trkpt>
      <trkpt lat="43.85789" lon="6.79364">
        <ele>911.4</ele>
        <time>2021-09-19T09:01:41Z</time>
      </trkpt>
      <trkpt lat="43.85793" lon="6.79369">
        <ele>910.5</ele>
        <time>2021-09-19T09:01:43Z</time>
      </trkpt>
      <trkpt lat="43.85796" lon="6.79372">
        <ele>909.8</ele>
        <time>2021-09-19T09:01:44Z</time>
      </trkpt>
      <trkpt lat="43.85799" lon="6.79375">
        <ele>909.3</ele>
        <time>2021-09-19T09:01:45Z</time>
      </trkpt>
      <trkpt lat="43.85805" lon="6.79378">
        <ele>908.2</ele>
        <time>2021-09-19T09:01:46Z</time>
      </trkpt>
      <trkpt lat="43.85809" lon="6.79379">
        <ele>907.5</ele>
        <time>2021-09-19T09:01:47Z</time>
      </trkpt>
      <trkpt lat="43.85813" lon="6.79381">
        <ele>906.9</ele>
        <time>2021-09-19T09:01:49Z</time>
      </trkpt>
      <trkpt lat="43.85814" lon="6.7938">
        <ele>906.5</ele>
        <time>2021-09-19T09:01:51Z</time>
      </trkpt>
      <trkpt lat="43.85815" lon="6.79378">
        <ele>906.2</ele>
        <time>2021-09-19T09:01:52Z</time>
      </trkpt>
      <trkpt lat="43.85815" lon="6.79378">
        <ele>906.2</ele>
        <time>2021-09-19T09:01:53Z</time>
      </trkpt>
      <trkpt lat="43.85816" lon="6.79377">
        <ele>906.1</ele>
        <time>2021-09-19T09:01:54Z</time>
      </trkpt>
      <trkpt lat="43.85816" lon="6.79377">
        <ele>906</ele>
        <time>2021-09-19T09:01:56Z</time>
      </trkpt>
      <trkpt lat="43.85816" lon="6.79377">
        <ele>906</ele>
        <time>2021-09-19T09:01:57Z</time>
      </trkpt>
      <trkpt lat="43.85815" lon="6.79375">
        <ele>905.7</ele>
        <time>2021-09-19T09:01:58Z</time>
      </trkpt>
      <trkpt lat="43.85815" lon="6.79374">
        <ele>905.6</ele>
        <time>2021-09-19T09:01:59Z</time>
      </trkpt>
      <trkpt lat="43.85816" lon="6.79371">
        <ele>905.1</ele>
        <time>2021-09-19T09:02:00Z</time>
      </trkpt>
      <trkpt lat="43.85818" lon="6.79369">
        <ele>904.6</ele>
        <time>2021-09-19T09:02:02Z</time>
      </trkpt>
      <trkpt lat="43.8582" lon="6.79367">
        <ele>904.2</ele>
        <time>2021-09-19T09:02:26Z</time>
      </trkpt>
      <trkpt lat="43.85821" lon="6.79365">
        <ele>903.8</ele>
        <time>2021-09-19T09:02:27Z</time>
      </trkpt>
      <trkpt lat="43.85826" lon="6.79366">
        <ele>902.9</ele>
        <time>2021-09-19T09:02:29Z</time>
      </trkpt>
      <trkpt lat="43.85831" lon="6.79368">
        <ele>902.1</ele>
        <time>2021-09-19T09:02:30Z</time>
      </trkpt>
      <trkpt lat="43.85837" lon="6.79372">
        <ele>900.7</ele>
        <time>2021-09-19T09:02:32Z</time>
      </trkpt>
      <trkpt lat="43.85841" lon="6.79375">
        <ele>899.8</ele>
        <time>2021-09-19T09:02:33Z</time>
      </trkpt>
      <trkpt lat="43.85842" lon="6.79377">
        <ele>899.4</ele>
        <time>2021-09-19T09:02:34Z</time>
      </trkpt>
      <trkpt lat="43.85844" lon="6.79378">
        <ele>898.9</ele>
        <time>2021-09-19T09:02:35Z</time>
      </trkpt>
      <trkpt lat="43.85846" lon="6.79378">
        <ele>898.6</ele>
        <time>2021-09-19T09:02:37Z</time>
      </trkpt>
      <trkpt lat="43.85848" lon="6.79376">
        <ele>898.1</ele>
        <time>2021-09-19T09:02:38Z</time>
      </trkpt>
      <trkpt lat="43.85849" lon="6.79374">
        <ele>897.9</ele>
        <time>2021-09-19T09:02:39Z</time>
      </trkpt>
      <trkpt lat="43.85849" lon="6.79372">
        <ele>897.6</ele>
        <time>2021-09-19T09:02:40Z</time>
      </trkpt>
      <trkpt lat="43.85852" lon="6.79367">
        <ele>896.8</ele>
        <time>2021-09-19T09:02:42Z</time>
      </trkpt>
      <trkpt lat="43.85854" lon="6.79363">
        <ele>896.2</ele>
        <time>2021-09-19T09:02:43Z</time>
      </trkpt>
      <trkpt lat="43.85855" lon="6.79361">
        <ele>895.9</ele>
        <time>2021-09-19T09:02:44Z</time>
      </trkpt>
      <trkpt lat="43.85858" lon="6.79359">
        <ele>895.5</ele>
        <time>2021-09-19T09:02:46Z</time>
      </trkpt>
      <trkpt lat="43.85859" lon="6.79357">
        <ele>895.2</ele>
        <time>2021-09-19T09:02:47Z</time>
      </trkpt>
      <trkpt lat="43.8586" lon="6.79356">
        <ele>895</ele>
        <time>2021-09-19T09:02:48Z</time>
      </trkpt>
      <trkpt lat="43.85861" lon="6.79351">
        <ele>894.5</ele>
        <time>2021-09-19T09:02:49Z</time>
      </trkpt>
      <trkpt lat="43.85862" lon="6.79349">
        <ele>894.1</ele>
        <time>2021-09-19T09:02:51Z</time>
      </trkpt>
      <trkpt lat="43.85863" lon="6.79348">
        <ele>893.9</ele>
        <time>2021-09-19T09:02:52Z</time>
      </trkpt>
      <trkpt lat="43.85865" lon="6.79349">
        <ele>893.6</ele>
        <time>2021-09-19T09:02:53Z</time>
      </trkpt>
      <trkpt lat="43.85865" lon="6.79349">
        <ele>893.6</ele>
        <time>2021-09-19T09:02:54Z</time>
      </trkpt>
      <trkpt lat="43.85865" lon="6.79349">
        <ele>893.5</ele>
        <time>2021-09-19T09:02:56Z</time>
      </trkpt>
      <trkpt lat="43.85866" lon="6.79349">
        <ele>893.5</ele>
        <time>2021-09-19T09:02:57Z</time>
      </trkpt>
      <trkpt lat="43.85866" lon="6.7935">
        <ele>893.3</ele>
        <time>2021-09-19T09:02:59Z</time>
      </trkpt>
      <trkpt lat="43.85867" lon="6.79351">
        <ele>893.1</ele>
        <time>2021-09-19T09:03:00Z</time>
      </trkpt>
      <trkpt lat="43.85868" lon="6.79353">
        <ele>892.8</ele>
        <time>2021-09-19T09:03:01Z</time>
      </trkpt>
      <trkpt lat="43.8587" lon="6.79356">
        <ele>892.2</ele>
        <time>2021-09-19T09:03:02Z</time>
      </trkpt>
      <trkpt lat="43.85879" lon="6.79368">
        <ele>889.9</ele>
        <time>2021-09-19T09:03:11Z</time>
      </trkpt>
      <trkpt lat="43.85883" lon="6.79371">
        <ele>889.2</ele>
        <time>2021-09-19T09:03:13Z</time>
      </trkpt>
      <trkpt lat="43.85887" lon="6.79376">
        <ele>888.4</ele>
        <time>2021-09-19T09:03:14Z</time>
      </trkpt>
      <trkpt lat="43.85889" lon="6.79379">
        <ele>887.9</ele>
        <time>2021-09-19T09:03:15Z</time>
      </trkpt>
      <trkpt lat="43.85896" lon="6.79389">
        <ele>886.3</ele>
        <time>2021-09-19T09:03:16Z</time>
      </trkpt>
      <trkpt lat="43.85899" lon="6.7939">
        <ele>885.8</ele>
        <time>2021-09-19T09:03:18Z</time>
      </trkpt>
      <trkpt lat="43.859" lon="6.79389">
        <ele>885.6</ele>
        <time>2021-09-19T09:03:19Z</time>
      </trkpt>
      <trkpt lat="43.85902" lon="6.79386">
        <ele>885.1</ele>
        <time>2021-09-19T09:03:20Z</time>
      </trkpt>
      <trkpt lat="43.85904" lon="6.79384">
        <ele>884.8</ele>
        <time>2021-09-19T09:03:21Z</time>
      </trkpt>
      <trkpt lat="43.85904" lon="6.79382">
        <ele>884.5</ele>
        <time>2021-09-19T09:03:23Z</time>
      </trkpt>
      <trkpt lat="43.85903" lon="6.79384">
        <ele>884.2</ele>
        <time>2021-09-19T09:03:25Z</time>
      </trkpt>
      <trkpt lat="43.85904" lon="6.79386">
        <ele>883.9</ele>
        <time>2021-09-19T09:03:26Z</time>
      </trkpt>
      <trkpt lat="43.85906" lon="6.79387">
        <ele>883.7</ele>
        <time>2021-09-19T09:03:28Z</time>
      </trkpt>
      <trkpt lat="43.85907" lon="6.79389">
        <ele>883.4</ele>
        <time>2021-09-19T09:03:29Z</time>
      </trkpt>
      <trkpt lat="43.85911" lon="6.79396">
        <ele>882.5</ele>
        <time>2021-09-19T09:03:30Z</time>
      </trkpt>
      <trkpt lat="43.85914" lon="6.79402">
        <ele>881.8</ele>
        <time>2021-09-19T09:03:31Z</time>
      </trkpt>
      <trkpt lat="43.85916" lon="6.79406">
        <ele>881.2</ele>
        <time>2021-09-19T09:03:32Z</time>
      </trkpt>
      <trkpt lat="43.8592" lon="6.7941">
        <ele>880.5</ele>
        <time>2021-09-19T09:03:33Z</time>
      </trkpt>
      <trkpt lat="43.85921" lon="6.79411">
        <ele>880.2</ele>
        <time>2021-09-19T09:03:34Z</time>
      </trkpt>
      <trkpt lat="43.85922" lon="6.79412">
        <ele>880</ele>
        <time>2021-09-19T09:03:37Z</time>
      </trkpt>
      <trkpt lat="43.85922" lon="6.79412">
        <ele>880</ele>
        <time>2021-09-19T09:03:38Z</time>
      </trkpt>
      <trkpt lat="43.85923" lon="6.79413">
        <ele>879.8</ele>
        <time>2021-09-19T09:03:39Z</time>
      </trkpt>
      <trkpt lat="43.85924" lon="6.79414">
        <ele>879.6</ele>
        <time>2021-09-19T09:03:40Z</time>
      </trkpt>
      <trkpt lat="43.85924" lon="6.79415">
        <ele>879.4</ele>
        <time>2021-09-19T09:03:42Z</time>
      </trkpt>
      <trkpt lat="43.85942" lon="6.79429">
        <ele>875.8</ele>
        <time>2021-09-19T09:03:58Z</time>
      </trkpt>
      <trkpt lat="43.85946" lon="6.7943">
        <ele>875.3</ele>
        <time>2021-09-19T09:03:59Z</time>
      </trkpt>
      <trkpt lat="43.85949" lon="6.7943">
        <ele>874.8</ele>
        <time>2021-09-19T09:04:00Z</time>
      </trkpt>
      <trkpt lat="43.85954" lon="6.79431">
        <ele>874</ele>
        <time>2021-09-19T09:04:02Z</time>
      </trkpt>
      <trkpt lat="43.85958" lon="6.79432">
        <ele>873.2</ele>
        <time>2021-09-19T09:04:03Z</time>
      </trkpt>
      <trkpt lat="43.85965" lon="6.79432">
        <ele>871.8</ele>
        <time>2021-09-19T09:04:04Z</time>
      </trkpt>
      <trkpt lat="43.85975" lon="6.79432">
        <ele>869.8</ele>
        <time>2021-09-19T09:04:05Z</time>
      </trkpt>
      <trkpt lat="43.8598" lon="6.79432">
        <ele>868.7</ele>
        <time>2021-09-19T09:04:07Z</time>
      </trkpt>
      <trkpt lat="43.85985" lon="6.79431">
        <ele>867.7</ele>
        <time>2021-09-19T09:04:08Z</time>
      </trkpt>
      <trkpt lat="43.85989" lon="6.79432">
        <ele>866.6</ele>
        <time>2021-09-19T09:04:10Z</time>
      </trkpt>
      <trkpt lat="43.85994" lon="6.79435">
        <ele>865.5</ele>
        <time>2021-09-19T09:04:11Z</time>
      </trkpt>
      <trkpt lat="43.85997" lon="6.79436">
        <ele>864.9</ele>
        <time>2021-09-19T09:04:13Z</time>
      </trkpt>
      <trkpt lat="43.85998" lon="6.79438">
        <ele>864.6</ele>
        <time>2021-09-19T09:04:15Z</time>
      </trkpt>
      <trkpt lat="43.85999" lon="6.79439">
        <ele>864.3</ele>
        <time>2021-09-19T09:04:16Z</time>
      </trkpt>
      <trkpt lat="43.86002" lon="6.79439">
        <ele>863.5</ele>
        <time>2021-09-19T09:04:17Z</time>
      </trkpt>
      <trkpt lat="43.86004" lon="6.79439">
        <ele>863.1</ele>
        <time>2021-09-19T09:04:18Z</time>
      </trkpt>
      <trkpt lat="43.86006" lon="6.79439">
        <ele>862.7</ele>
        <time>2021-09-19T09:04:19Z</time>
      </trkpt>
      <trkpt lat="43.86009" lon="6.7944">
        <ele>862.1</ele>
        <time>2021-09-19T09:04:21Z</time>
      </trkpt>
      <trkpt lat="43.86013" lon="6.79439">
        <ele>861.2</ele>
        <time>2021-09-19T09:04:22Z</time>
      </trkpt>
      <trkpt lat="43.86017" lon="6.79439">
        <ele>860.6</ele>
        <time>2021-09-19T09:04:23Z</time>
      </trkpt>
      <trkpt lat="43.86021" lon="6.79439">
        <ele>859.6</ele>
        <time>2021-09-19T09:04:24Z</time>
      </trkpt>
      <trkpt lat="43.86025" lon="6.79439">
        <ele>858.9</ele>
        <time>2021-09-19T09:04:26Z</time>
      </trkpt>
      <trkpt lat="43.86028" lon="6.79441">
        <ele>858.2</ele>
        <time>2021-09-19T09:04:27Z</time>
      </trkpt>
      <trkpt lat="43.8603" lon="6.79443">
        <ele>857.5</ele>
        <time>2021-09-19T09:04:28Z</time>
      </trkpt>
      <trkpt lat="43.86034" lon="6.79445">
        <ele>856.7</ele>
        <time>2021-09-19T09:04:29Z</time>
      </trkpt>
      <trkpt lat="43.86037" lon="6.79447">
        <ele>855.9</ele>
        <time>2021-09-19T09:04:30Z</time>
      </trkpt>
      <trkpt lat="43.86042" lon="6.79447">
        <ele>855.1</ele>
        <time>2021-09-19T09:04:32Z</time>
      </trkpt>
      <trkpt lat="43.86043" lon="6.79447">
        <ele>854.8</ele>
        <time>2021-09-19T09:04:33Z</time>
      </trkpt>
      <trkpt lat="43.86045" lon="6.79446">
        <ele>854.3</ele>
        <time>2021-09-19T09:04:34Z</time>
      </trkpt>
      <trkpt lat="43.86048" lon="6.79445">
        <ele>853.8</ele>
        <time>2021-09-19T09:04:36Z</time>
      </trkpt>
      <trkpt lat="43.8605" lon="6.79443">
        <ele>853.2</ele>
        <time>2021-09-19T09:04:37Z</time>
      </trkpt>
      <trkpt lat="43.86053" lon="6.79442">
        <ele>852.7</ele>
        <time>2021-09-19T09:04:38Z</time>
      </trkpt>
      <trkpt lat="43.86056" lon="6.79439">
        <ele>852.1</ele>
        <time>2021-09-19T09:04:39Z</time>
      </trkpt>
      <trkpt lat="43.86059" lon="6.79436">
        <ele>851.5</ele>
        <time>2021-09-19T09:04:41Z</time>
      </trkpt>
      <trkpt lat="43.8606" lon="6.79435">
        <ele>851.3</ele>
        <time>2021-09-19T09:04:42Z</time>
      </trkpt>
      <trkpt lat="43.8606" lon="6.79435">
        <ele>851.2</ele>
        <time>2021-09-19T09:04:43Z</time>
      </trkpt>
      <trkpt lat="43.86061" lon="6.79436">
        <ele>851.1</ele>
        <time>2021-09-19T09:04:45Z</time>
      </trkpt>
      <trkpt lat="43.86062" lon="6.79437">
        <ele>850.8</ele>
        <time>2021-09-19T09:04:46Z</time>
      </trkpt>
      <trkpt lat="43.86063" lon="6.79438">
        <ele>850.6</ele>
        <time>2021-09-19T09:04:48Z</time>
      </trkpt>
      <trkpt lat="43.86064" lon="6.79439">
        <ele>850.3</ele>
        <time>2021-09-19T09:04:49Z</time>
      </trkpt>
      <trkpt lat="43.86079" lon="6.79479">
        <ele>843.7</ele>
        <time>2021-09-19T09:05:04Z</time>
      </trkpt>
      <trkpt lat="43.86081" lon="6.79485">
        <ele>842.7</ele>
        <time>2021-09-19T09:05:06Z</time>
      </trkpt>
      <trkpt lat="43.86083" lon="6.79489">
        <ele>842.1</ele>
        <time>2021-09-19T09:05:07Z</time>
      </trkpt>
      <trkpt lat="43.86085" lon="6.79492">
        <ele>841.5</ele>
        <time>2021-09-19T09:05:08Z</time>
      </trkpt>
      <trkpt lat="43.86087" lon="6.79493">
        <ele>841.1</ele>
        <time>2021-09-19T09:05:09Z</time>
      </trkpt>
      <trkpt lat="43.86087" lon="6.79493">
        <ele>841</ele>
        <time>2021-09-19T09:05:11Z</time>
      </trkpt>
      <trkpt lat="43.86088" lon="6.79491">
        <ele>840.7</ele>
        <time>2021-09-19T09:05:12Z</time>
      </trkpt>
      <trkpt lat="43.86088" lon="6.79491">
        <ele>840.6</ele>
        <time>2021-09-19T09:05:13Z</time>
      </trkpt>
      <trkpt lat="43.86089" lon="6.79491">
        <ele>840.6</ele>
        <time>2021-09-19T09:05:15Z</time>
      </trkpt>
      <trkpt lat="43.86089" lon="6.79491">
        <ele>840.6</ele>
        <time>2021-09-19T09:05:16Z</time>
      </trkpt>
      <trkpt lat="43.86089" lon="6.79491">
        <ele>840.6</ele>
        <time>2021-09-19T09:05:18Z</time>
      </trkpt>
      <trkpt lat="43.86089" lon="6.79491">
        <ele>840.5</ele>
        <time>2021-09-19T09:05:19Z</time>
      </trkpt>
      <trkpt lat="43.86101" lon="6.79511">
        <ele>836.7</ele>
        <time>2021-09-19T09:05:28Z</time>
      </trkpt>
      <trkpt lat="43.86106" lon="6.79524">
        <ele>834.8</ele>
        <time>2021-09-19T09:05:29Z</time>
      </trkpt>
      <trkpt lat="43.86107" lon="6.7953">
        <ele>833.9</ele>
        <time>2021-09-19T09:05:30Z</time>
      </trkpt>
      <trkpt lat="43.86108" lon="6.79534">
        <ele>833.3</ele>
        <time>2021-09-19T09:05:32Z</time>
      </trkpt>
      <trkpt lat="43.86108" lon="6.79541">
        <ele>832.3</ele>
        <time>2021-09-19T09:05:33Z</time>
      </trkpt>
      <trkpt lat="43.86109" lon="6.79547">
        <ele>831.7</ele>
        <time>2021-09-19T09:05:34Z</time>
      </trkpt>
      <trkpt lat="43.86109" lon="6.79551">
        <ele>831.1</ele>
        <time>2021-09-19T09:05:35Z</time>
      </trkpt>
      <trkpt lat="43.86109" lon="6.79555">
        <ele>830.6</ele>
        <time>2021-09-19T09:05:37Z</time>
      </trkpt>
      <trkpt lat="43.86108" lon="6.79555">
        <ele>830.5</ele>
        <time>2021-09-19T09:05:38Z</time>
      </trkpt>
      <trkpt lat="43.86108" lon="6.79555">
        <ele>830.3</ele>
        <time>2021-09-19T09:05:39Z</time>
      </trkpt>
      <trkpt lat="43.86107" lon="6.79554">
        <ele>830.2</ele>
        <time>2021-09-19T09:05:40Z</time>
      </trkpt>
      <trkpt lat="43.86106" lon="6.79554">
        <ele>830</ele>
        <time>2021-09-19T09:05:41Z</time>
      </trkpt>
      <trkpt lat="43.86105" lon="6.79554">
        <ele>829.9</ele>
        <time>2021-09-19T09:05:43Z</time>
      </trkpt>
      <trkpt lat="43.86103" lon="6.79553">
        <ele>829.6</ele>
        <time>2021-09-19T09:05:44Z</time>
      </trkpt>
      <trkpt lat="43.86102" lon="6.79553">
        <ele>829.4</ele>
        <time>2021-09-19T09:05:45Z</time>
      </trkpt>
      <trkpt lat="43.86102" lon="6.79565">
        <ele>828</ele>
        <time>2021-09-19T09:05:53Z</time>
      </trkpt>
      <trkpt lat="43.86102" lon="6.7957">
        <ele>827.3</ele>
        <time>2021-09-19T09:05:54Z</time>
      </trkpt>
      <trkpt lat="43.86103" lon="6.79575">
        <ele>826.7</ele>
        <time>2021-09-19T09:05:55Z</time>
      </trkpt>
      <trkpt lat="43.86103" lon="6.79579">
        <ele>826.2</ele>
        <time>2021-09-19T09:05:56Z</time>
      </trkpt>
      <trkpt lat="43.86101" lon="6.79583">
        <ele>826.8</ele>
        <time>2021-09-19T09:05:57Z</time>
      </trkpt>
      <trkpt lat="43.86099" lon="6.79585">
        <ele>826.8</ele>
        <time>2021-09-19T09:05:58Z</time>
      </trkpt>
      <trkpt lat="43.86098" lon="6.79585">
        <ele>827.9</ele>
        <time>2021-09-19T09:06:00Z</time>
      </trkpt>
      <trkpt lat="43.86096" lon="6.79586">
        <ele>827.3</ele>
        <time>2021-09-19T09:06:01Z</time>
      </trkpt>
      <trkpt lat="43.86095" lon="6.79587">
        <ele>828.4</ele>
        <time>2021-09-19T09:06:02Z</time>
      </trkpt>
      <trkpt lat="43.86091" lon="6.79587">
        <ele>829.5</ele>
        <time>2021-09-19T09:06:04Z</time>
      </trkpt>
      <trkpt lat="43.86087" lon="6.79587">
        <ele>830.5</ele>
        <time>2021-09-19T09:06:06Z</time>
      </trkpt>
      <trkpt lat="43.86084" lon="6.79589">
        <ele>831.6</ele>
        <time>2021-09-19T09:06:07Z</time>
      </trkpt>
      <trkpt lat="43.86083" lon="6.79589">
        <ele>832.6</ele>
        <time>2021-09-19T09:06:08Z</time>
      </trkpt>
      <trkpt lat="43.86082" lon="6.79591">
        <ele>831.8</ele>
        <time>2021-09-19T09:06:09Z</time>
      </trkpt>
      <trkpt lat="43.86082" lon="6.79593">
        <ele>831.8</ele>
        <time>2021-09-19T09:06:10Z</time>
      </trkpt>
      <trkpt lat="43.86082" lon="6.79595">
        <ele>831.1</ele>
        <time>2021-09-19T09:06:12Z</time>
      </trkpt>
      <trkpt lat="43.86081" lon="6.79597">
        <ele>831.1</ele>
        <time>2021-09-19T09:06:13Z</time>
      </trkpt>
      <trkpt lat="43.86081" lon="6.79599">
        <ele>831.1</ele>
        <time>2021-09-19T09:06:14Z</time>
      </trkpt>
      <trkpt lat="43.86083" lon="6.79603">
        <ele>829.4</ele>
        <time>2021-09-19T09:06:15Z</time>
      </trkpt>
      <trkpt lat="43.86086" lon="6.79607">
        <ele>828.5</ele>
        <time>2021-09-19T09:06:17Z</time>
      </trkpt>
      <trkpt lat="43.86088" lon="6.79608">
        <ele>826.8</ele>
        <time>2021-09-19T09:06:18Z</time>
      </trkpt>
      <trkpt lat="43.86092" lon="6.7961">
        <ele>825.8</ele>
        <time>2021-09-19T09:06:19Z</time>
      </trkpt>
      <trkpt lat="43.86095" lon="6.79612">
        <ele>824.8</ele>
        <time>2021-09-19T09:06:20Z</time>
      </trkpt>
      <trkpt lat="43.86098" lon="6.79614">
        <ele>823</ele>
        <time>2021-09-19T09:06:22Z</time>
      </trkpt>
      <trkpt lat="43.86102" lon="6.79617">
        <ele>821.2</ele>
        <time>2021-09-19T09:06:23Z</time>
      </trkpt>
      <trkpt lat="43.86103" lon="6.79619">
        <ele>820.2</ele>
        <time>2021-09-19T09:06:24Z</time>
      </trkpt>
      <trkpt lat="43.86106" lon="6.79622">
        <ele>818.3</ele>
        <time>2021-09-19T09:06:26Z</time>
      </trkpt>
      <trkpt lat="43.8611" lon="6.79623">
        <ele>817</ele>
        <time>2021-09-19T09:06:27Z</time>
      </trkpt>
      <trkpt lat="43.86113" lon="6.79627">
        <ele>814.9</ele>
        <time>2021-09-19T09:06:29Z</time>
      </trkpt>
      <trkpt lat="43.86115" lon="6.79632">
        <ele>812.7</ele>
        <time>2021-09-19T09:06:30Z</time>
      </trkpt>
      <trkpt lat="43.86116" lon="6.79633">
        <ele>812.7</ele>
        <time>2021-09-19T09:06:31Z</time>
      </trkpt>
      <trkpt lat="43.86114" lon="6.79635">
        <ele>813.5</ele>
        <time>2021-09-19T09:06:32Z</time>
      </trkpt>
      <trkpt lat="43.86112" lon="6.79636">
        <ele>813.5</ele>
        <time>2021-09-19T09:06:34Z</time>
      </trkpt>
      <trkpt lat="43.8611" lon="6.79638">
        <ele>814.1</ele>
        <time>2021-09-19T09:06:35Z</time>
      </trkpt>
      <trkpt lat="43.86108" lon="6.79641">
        <ele>815.4</ele>
        <time>2021-09-19T09:06:36Z</time>
      </trkpt>
      <trkpt lat="43.86106" lon="6.79645">
        <ele>814.6</ele>
        <time>2021-09-19T09:06:37Z</time>
      </trkpt>
      <trkpt lat="43.86104" lon="6.79647">
        <ele>814.9</ele>
        <time>2021-09-19T09:06:38Z</time>
      </trkpt>
      <trkpt lat="43.86103" lon="6.79649">
        <ele>814.9</ele>
        <time>2021-09-19T09:06:40Z</time>
      </trkpt>
      <trkpt lat="43.86103" lon="6.79651">
        <ele>814.1</ele>
        <time>2021-09-19T09:06:41Z</time>
      </trkpt>
      <trkpt lat="43.86103" lon="6.79653">
        <ele>814.1</ele>
        <time>2021-09-19T09:06:42Z</time>
      </trkpt>
      <trkpt lat="43.86103" lon="6.79653">
        <ele>814.1</ele>
        <time>2021-09-19T09:06:43Z</time>
      </trkpt>
      <trkpt lat="43.86103" lon="6.79653">
        <ele>814.1</ele>
        <time>2021-09-19T09:06:45Z</time>
      </trkpt>
      <trkpt lat="43.86102" lon="6.79654">
        <ele>814.1</ele>
        <time>2021-09-19T09:06:46Z</time>
      </trkpt>
      <trkpt lat="43.86101" lon="6.79654">
        <ele>815</ele>
        <time>2021-09-19T09:06:48Z</time>
      </trkpt>
      <trkpt lat="43.86101" lon="6.79656">
        <ele>814.2</ele>
        <time>2021-09-19T09:06:49Z</time>
      </trkpt>
      <trkpt lat="43.86101" lon="6.79656">
        <ele>814.2</ele>
        <time>2021-09-19T09:06:50Z</time>
      </trkpt>
      <trkpt lat="43.86101" lon="6.79657">
        <ele>814.2</ele>
        <time>2021-09-19T09:06:52Z</time>
      </trkpt>
      <trkpt lat="43.86106" lon="6.79671">
        <ele>810.1</ele>
        <time>2021-09-19T09:06:58Z</time>
      </trkpt>
      <trkpt lat="43.86111" lon="6.79684">
        <ele>806.8</ele>
        <time>2021-09-19T09:06:59Z</time>
      </trkpt>
      <trkpt lat="43.86114" lon="6.79694">
        <ele>803.1</ele>
        <time>2021-09-19T09:07:01Z</time>
      </trkpt>
      <trkpt lat="43.86117" lon="6.797">
        <ele>801.1</ele>
        <time>2021-09-19T09:07:02Z</time>
      </trkpt>
      <trkpt lat="43.86119" lon="6.7971">
        <ele>798.3</ele>
        <time>2021-09-19T09:07:03Z</time>
      </trkpt>
      <trkpt lat="43.86121" lon="6.79719">
        <ele>794.9</ele>
        <time>2021-09-19T09:07:04Z</time>
      </trkpt>
      <trkpt lat="43.86123" lon="6.79727">
        <ele>794</ele>
        <time>2021-09-19T09:07:06Z</time>
      </trkpt>
      <trkpt lat="43.86125" lon="6.79742">
        <ele>789.7</ele>
        <time>2021-09-19T09:07:08Z</time>
      </trkpt>
      <trkpt lat="43.86127" lon="6.79747">
        <ele>788.9</ele>
        <time>2021-09-19T09:07:09Z</time>
      </trkpt>
      <trkpt lat="43.86131" lon="6.79752">
        <ele>786.4</ele>
        <time>2021-09-19T09:07:10Z</time>
      </trkpt>
      <trkpt lat="43.86136" lon="6.79756">
        <ele>784.7</ele>
        <time>2021-09-19T09:07:11Z</time>
      </trkpt>
      <trkpt lat="43.86138" lon="6.79758">
        <ele>783.1</ele>
        <time>2021-09-19T09:07:12Z</time>
      </trkpt>
      <trkpt lat="43.86141" lon="6.7976">
        <ele>782</ele>
        <time>2021-09-19T09:07:13Z</time>
      </trkpt>
      <trkpt lat="43.86142" lon="6.79764">
        <ele>781.5</ele>
        <time>2021-09-19T09:07:15Z</time>
      </trkpt>
      <trkpt lat="43.86143" lon="6.79769">
        <ele>779.9</ele>
        <time>2021-09-19T09:07:16Z</time>
      </trkpt>
      <trkpt lat="43.86142" lon="6.79771">
        <ele>779.4</ele>
        <time>2021-09-19T09:07:18Z</time>
      </trkpt>
      <trkpt lat="43.8614" lon="6.79769">
        <ele>781</ele>
        <time>2021-09-19T09:07:19Z</time>
      </trkpt>
      <trkpt lat="43.86139" lon="6.79768">
        <ele>782</ele>
        <time>2021-09-19T09:07:20Z</time>
      </trkpt>
      <trkpt lat="43.86138" lon="6.79769">
        <ele>782</ele>
        <time>2021-09-19T09:07:21Z</time>
      </trkpt>
      <trkpt lat="43.86137" lon="6.79771">
        <ele>781.5</ele>
        <time>2021-09-19T09:07:22Z</time>
      </trkpt>
      <trkpt lat="43.86131" lon="6.79768">
        <ele>784</ele>
        <time>2021-09-19T09:07:24Z</time>
      </trkpt>
      <trkpt lat="43.86128" lon="6.79767">
        <ele>784.8</ele>
        <time>2021-09-19T09:07:25Z</time>
      </trkpt>
      <trkpt lat="43.86124" lon="6.79765">
        <ele>787.1</ele>
        <time>2021-09-19T09:07:27Z</time>
      </trkpt>
      <trkpt lat="43.86121" lon="6.79763">
        <ele>787.1</ele>
        <time>2021-09-19T09:07:28Z</time>
      </trkpt>
      <trkpt lat="43.8612" lon="6.79761">
        <ele>788.6</ele>
        <time>2021-09-19T09:07:29Z</time>
      </trkpt>
      <trkpt lat="43.86119" lon="6.79761">
        <ele>788.6</ele>
        <time>2021-09-19T09:07:30Z</time>
      </trkpt>
      <trkpt lat="43.86119" lon="6.79762">
        <ele>788.6</ele>
        <time>2021-09-19T09:07:32Z</time>
      </trkpt>
      <trkpt lat="43.86119" lon="6.79761">
        <ele>788.6</ele>
        <time>2021-09-19T09:07:33Z</time>
      </trkpt>
      <trkpt lat="43.86119" lon="6.79761">
        <ele>788.6</ele>
        <time>2021-09-19T09:07:35Z</time>
      </trkpt>
      <trkpt lat="43.86119" lon="6.79761">
        <ele>788.6</ele>
        <time>2021-09-19T09:07:36Z</time>
      </trkpt>
      <trkpt lat="43.86118" lon="6.79762">
        <ele>788</ele>
        <time>2021-09-19T09:07:38Z</time>
      </trkpt>
      <trkpt lat="43.86128" lon="6.79795">
        <ele>781.4</ele>
        <time>2021-09-19T09:08:31Z</time>
      </trkpt>
      <trkpt lat="43.86129" lon="6.79796">
        <ele>781.4</ele>
        <time>2021-09-19T09:08:32Z</time>
      </trkpt>
      <trkpt lat="43.86131" lon="6.79796">
        <ele>780.2</ele>
        <time>2021-09-19T09:08:34Z</time>
      </trkpt>
      <trkpt lat="43.86135" lon="6.79798">
        <ele>779.4</ele>
        <time>2021-09-19T09:08:35Z</time>
      </trkpt>
      <trkpt lat="43.86139" lon="6.798">
        <ele>778.5</ele>
        <time>2021-09-19T09:08:36Z</time>
      </trkpt>
      <trkpt lat="43.8614" lon="6.79801">
        <ele>777.7</ele>
        <time>2021-09-19T09:08:37Z</time>
      </trkpt>
      <trkpt lat="43.86142" lon="6.79801">
        <ele>777.3</ele>
        <time>2021-09-19T09:08:38Z</time>
      </trkpt>
      <trkpt lat="43.86143" lon="6.79803">
        <ele>776.4</ele>
        <time>2021-09-19T09:08:40Z</time>
      </trkpt>
      <trkpt lat="43.86146" lon="6.79804">
        <ele>775.6</ele>
        <time>2021-09-19T09:08:41Z</time>
      </trkpt>
      <trkpt lat="43.86148" lon="6.79804">
        <ele>775.6</ele>
        <time>2021-09-19T09:08:42Z</time>
      </trkpt>
      <trkpt lat="43.86151" lon="6.79805">
        <ele>774.5</ele>
        <time>2021-09-19T09:08:44Z</time>
      </trkpt>
      <trkpt lat="43.86154" lon="6.79808">
        <ele>773.7</ele>
        <time>2021-09-19T09:08:45Z</time>
      </trkpt>
      <trkpt lat="43.86157" lon="6.7981">
        <ele>772.6</ele>
        <time>2021-09-19T09:08:46Z</time>
      </trkpt>
      <trkpt lat="43.86159" lon="6.79811">
        <ele>771.7</ele>
        <time>2021-09-19T09:08:47Z</time>
      </trkpt>
      <trkpt lat="43.86161" lon="6.79812">
        <ele>770.8</ele>
        <time>2021-09-19T09:08:48Z</time>
      </trkpt>
      <trkpt lat="43.86165" lon="6.79815">
        <ele>769.5</ele>
        <time>2021-09-19T09:08:50Z</time>
      </trkpt>
      <trkpt lat="43.86169" lon="6.79816">
        <ele>768.5</ele>
        <time>2021-09-19T09:08:51Z</time>
      </trkpt>
      <trkpt lat="43.86174" lon="6.79817">
        <ele>766.8</ele>
        <time>2021-09-19T09:08:52Z</time>
      </trkpt>
      <trkpt lat="43.86178" lon="6.79819">
        <ele>765.8</ele>
        <time>2021-09-19T09:08:54Z</time>
      </trkpt>
      <trkpt lat="43.86181" lon="6.7982">
        <ele>765.1</ele>
        <time>2021-09-19T09:08:55Z</time>
      </trkpt>
      <trkpt lat="43.86185" lon="6.79824">
        <ele>764.2</ele>
        <time>2021-09-19T09:08:56Z</time>
      </trkpt>
      <trkpt lat="43.8619" lon="6.79827">
        <ele>762.7</ele>
        <time>2021-09-19T09:08:58Z</time>
      </trkpt>
      <trkpt lat="43.86196" lon="6.79827">
        <ele>761.5</ele>
        <time>2021-09-19T09:08:59Z</time>
      </trkpt>
      <trkpt lat="43.86201" lon="6.79828">
        <ele>760.9</ele>
        <time>2021-09-19T09:09:01Z</time>
      </trkpt>
      <trkpt lat="43.86205" lon="6.79832">
        <ele>759.7</ele>
        <time>2021-09-19T09:09:02Z</time>
      </trkpt>
      <trkpt lat="43.86209" lon="6.79836">
        <ele>759.1</ele>
        <time>2021-09-19T09:09:03Z</time>
      </trkpt>
      <trkpt lat="43.86213" lon="6.79839">
        <ele>758</ele>
        <time>2021-09-19T09:09:05Z</time>
      </trkpt>
      <trkpt lat="43.86219" lon="6.79843">
        <ele>757.4</ele>
        <time>2021-09-19T09:09:06Z</time>
      </trkpt>
      <trkpt lat="43.86223" lon="6.79846">
        <ele>756.1</ele>
        <time>2021-09-19T09:09:07Z</time>
      </trkpt>
      <trkpt lat="43.86227" lon="6.79851">
        <ele>755.4</ele>
        <time>2021-09-19T09:09:08Z</time>
      </trkpt>
      <trkpt lat="43.8623" lon="6.79855">
        <ele>754.7</ele>
        <time>2021-09-19T09:09:10Z</time>
      </trkpt>
      <trkpt lat="43.86233" lon="6.7986">
        <ele>754.1</ele>
        <time>2021-09-19T09:09:11Z</time>
      </trkpt>
      <trkpt lat="43.86234" lon="6.79865">
        <ele>754</ele>
        <time>2021-09-19T09:09:12Z</time>
      </trkpt>
      <trkpt lat="43.86236" lon="6.79871">
        <ele>753.4</ele>
        <time>2021-09-19T09:09:14Z</time>
      </trkpt>
      <trkpt lat="43.86238" lon="6.79876">
        <ele>753.4</ele>
        <time>2021-09-19T09:09:15Z</time>
      </trkpt>
      <trkpt lat="43.8624" lon="6.79887">
        <ele>752.9</ele>
        <time>2021-09-19T09:09:17Z</time>
      </trkpt>
      <trkpt lat="43.8624" lon="6.79896">
        <ele>753</ele>
        <time>2021-09-19T09:09:18Z</time>
      </trkpt>
      <trkpt lat="43.8624" lon="6.79902">
        <ele>753</ele>
        <time>2021-09-19T09:09:20Z</time>
      </trkpt>
      <trkpt lat="43.8624" lon="6.79907">
        <ele>753.1</ele>
        <time>2021-09-19T09:09:21Z</time>
      </trkpt>
      <trkpt lat="43.86242" lon="6.79912">
        <ele>752.6</ele>
        <time>2021-09-19T09:09:22Z</time>
      </trkpt>
      <trkpt lat="43.86243" lon="6.79917">
        <ele>752.6</ele>
        <time>2021-09-19T09:09:23Z</time>
      </trkpt>
      <trkpt lat="43.86246" lon="6.79923">
        <ele>752.2</ele>
        <time>2021-09-19T09:09:25Z</time>
      </trkpt>
      <trkpt lat="43.86247" lon="6.7993">
        <ele>752.1</ele>
        <time>2021-09-19T09:09:26Z</time>
      </trkpt>
      <trkpt lat="43.86249" lon="6.79936">
        <ele>751.6</ele>
        <time>2021-09-19T09:09:28Z</time>
      </trkpt>
      <trkpt lat="43.8625" lon="6.7994">
        <ele>751.5</ele>
        <time>2021-09-19T09:09:29Z</time>
      </trkpt>
      <trkpt lat="43.8625" lon="6.79946">
        <ele>751.5</ele>
        <time>2021-09-19T09:09:30Z</time>
      </trkpt>
      <trkpt lat="43.8625" lon="6.79952">
        <ele>751.6</ele>
        <time>2021-09-19T09:09:31Z</time>
      </trkpt>
      <trkpt lat="43.86251" lon="6.79956">
        <ele>750.9</ele>
        <time>2021-09-19T09:09:32Z</time>
      </trkpt>
      <trkpt lat="43.86253" lon="6.79961">
        <ele>751</ele>
        <time>2021-09-19T09:09:34Z</time>
      </trkpt>
      <trkpt lat="43.86255" lon="6.79969">
        <ele>750.4</ele>
        <time>2021-09-19T09:09:35Z</time>
      </trkpt>
      <trkpt lat="43.86256" lon="6.79975">
        <ele>750.5</ele>
        <time>2021-09-19T09:09:37Z</time>
      </trkpt>
      <trkpt lat="43.86257" lon="6.7998">
        <ele>749.9</ele>
        <time>2021-09-19T09:09:38Z</time>
      </trkpt>
      <trkpt lat="43.86257" lon="6.79985">
        <ele>750</ele>
        <time>2021-09-19T09:09:39Z</time>
      </trkpt>
      <trkpt lat="43.86259" lon="6.79991">
        <ele>750</ele>
        <time>2021-09-19T09:09:40Z</time>
      </trkpt>
      <trkpt lat="43.86261" lon="6.79995">
        <ele>749.4</ele>
        <time>2021-09-19T09:09:42Z</time>
      </trkpt>
      <trkpt lat="43.86261" lon="6.79996">
        <ele>749.4</ele>
        <time>2021-09-19T09:09:43Z</time>
      </trkpt>
      <trkpt lat="43.86262" lon="6.8">
        <ele>749.3</ele>
        <time>2021-09-19T09:09:45Z</time>
      </trkpt>
      <trkpt lat="43.86262" lon="6.80002">
        <ele>749.3</ele>
        <time>2021-09-19T09:09:46Z</time>
      </trkpt>
      <trkpt lat="43.86262" lon="6.80003">
        <ele>749.2</ele>
        <time>2021-09-19T09:09:47Z</time>
      </trkpt>
      <trkpt lat="43.86262" lon="6.80007">
        <ele>749.1</ele>
        <time>2021-09-19T09:09:49Z</time>
      </trkpt>
      <trkpt lat="43.86261" lon="6.80012">
        <ele>748.9</ele>
        <time>2021-09-19T09:09:51Z</time>
      </trkpt>
      <trkpt lat="43.86259" lon="6.80016">
        <ele>749.4</ele>
        <time>2021-09-19T09:09:52Z</time>
      </trkpt>
      <trkpt lat="43.86258" lon="6.80021">
        <ele>749.2</ele>
        <time>2021-09-19T09:09:53Z</time>
      </trkpt>
      <trkpt lat="43.86258" lon="6.80023">
        <ele>749.2</ele>
        <time>2021-09-19T09:09:54Z</time>
      </trkpt>
      <trkpt lat="43.86257" lon="6.80031">
        <ele>748.7</ele>
        <time>2021-09-19T09:09:56Z</time>
      </trkpt>
      <trkpt lat="43.86258" lon="6.80038">
        <ele>748.7</ele>
        <time>2021-09-19T09:09:57Z</time>
      </trkpt>
      <trkpt lat="43.86259" lon="6.80042">
        <ele>748.6</ele>
        <time>2021-09-19T09:09:59Z</time>
      </trkpt>
      <trkpt lat="43.86261" lon="6.80046">
        <ele>748.6</ele>
        <time>2021-09-19T09:10:00Z</time>
      </trkpt>
      <trkpt lat="43.86264" lon="6.80053">
        <ele>748.5</ele>
        <time>2021-09-19T09:10:01Z</time>
      </trkpt>
      <trkpt lat="43.86266" lon="6.80061">
        <ele>748.3</ele>
        <time>2021-09-19T09:10:03Z</time>
      </trkpt>
      <trkpt lat="43.86267" lon="6.80068">
        <ele>748.1</ele>
        <time>2021-09-19T09:10:04Z</time>
      </trkpt>
      <trkpt lat="43.86266" lon="6.80075">
        <ele>747.9</ele>
        <time>2021-09-19T09:10:05Z</time>
      </trkpt>
      <trkpt lat="43.86264" lon="6.80085">
        <ele>747.3</ele>
        <time>2021-09-19T09:10:07Z</time>
      </trkpt>
      <trkpt lat="43.86264" lon="6.8009">
        <ele>747.1</ele>
        <time>2021-09-19T09:10:08Z</time>
      </trkpt>
      <trkpt lat="43.86262" lon="6.80098">
        <ele>746.7</ele>
        <time>2021-09-19T09:10:10Z</time>
      </trkpt>
      <trkpt lat="43.86262" lon="6.80103">
        <ele>746.5</ele>
        <time>2021-09-19T09:10:11Z</time>
      </trkpt>
      <trkpt lat="43.86261" lon="6.80111">
        <ele>746.3</ele>
        <time>2021-09-19T09:10:12Z</time>
      </trkpt>
      <trkpt lat="43.86259" lon="6.80117">
        <ele>746.2</ele>
        <time>2021-09-19T09:10:14Z</time>
      </trkpt>
      <trkpt lat="43.86256" lon="6.80127">
        <ele>746</ele>
        <time>2021-09-19T09:10:15Z</time>
      </trkpt>
      <trkpt lat="43.86254" lon="6.80135">
        <ele>745.8</ele>
        <time>2021-09-19T09:10:17Z</time>
      </trkpt>
      <trkpt lat="43.86253" lon="6.80145">
        <ele>745.7</ele>
        <time>2021-09-19T09:10:18Z</time>
      </trkpt>
      <trkpt lat="43.86254" lon="6.80152">
        <ele>745.5</ele>
        <time>2021-09-19T09:10:19Z</time>
      </trkpt>
      <trkpt lat="43.86255" lon="6.80159">
        <ele>745.2</ele>
        <time>2021-09-19T09:10:20Z</time>
      </trkpt>
      <trkpt lat="43.86256" lon="6.80168">
        <ele>744.8</ele>
        <time>2021-09-19T09:10:22Z</time>
      </trkpt>
      <trkpt lat="43.86256" lon="6.80176">
        <ele>744.4</ele>
        <time>2021-09-19T09:10:23Z</time>
      </trkpt>
      <trkpt lat="43.86257" lon="6.80181">
        <ele>744.1</ele>
        <time>2021-09-19T09:10:25Z</time>
      </trkpt>
      <trkpt lat="43.86256" lon="6.80186">
        <ele>743.9</ele>
        <time>2021-09-19T09:10:26Z</time>
      </trkpt>
      <trkpt lat="43.86256" lon="6.8019">
        <ele>743.6</ele>
        <time>2021-09-19T09:10:27Z</time>
      </trkpt>
      <trkpt lat="43.86256" lon="6.802">
        <ele>743.2</ele>
        <time>2021-09-19T09:10:28Z</time>
      </trkpt>
      <trkpt lat="43.86256" lon="6.80205">
        <ele>742.9</ele>
        <time>2021-09-19T09:10:30Z</time>
      </trkpt>
      <trkpt lat="43.8626" lon="6.80212">
        <ele>742.5</ele>
        <time>2021-09-19T09:10:32Z</time>
      </trkpt>
      <trkpt lat="43.86268" lon="6.80217">
        <ele>742.1</ele>
        <time>2021-09-19T09:10:34Z</time>
      </trkpt>
      <trkpt lat="43.86271" lon="6.80218">
        <ele>741.9</ele>
        <time>2021-09-19T09:10:35Z</time>
      </trkpt>
      <trkpt lat="43.86275" lon="6.80218">
        <ele>741.6</ele>
        <time>2021-09-19T09:10:36Z</time>
      </trkpt>
      <trkpt lat="43.86278" lon="6.80216">
        <ele>741.4</ele>
        <time>2021-09-19T09:10:38Z</time>
      </trkpt>
      <trkpt lat="43.86279" lon="6.80213">
        <ele>741.2</ele>
        <time>2021-09-19T09:10:39Z</time>
      </trkpt>
      <trkpt lat="43.86279" lon="6.80211">
        <ele>741.1</ele>
        <time>2021-09-19T09:10:41Z</time>
      </trkpt>
      <trkpt lat="43.86276" lon="6.8021">
        <ele>740.7</ele>
        <time>2021-09-19T09:10:42Z</time>
      </trkpt>
      <trkpt lat="43.86275" lon="6.8021">
        <ele>740.5</ele>
        <time>2021-09-19T09:10:43Z</time>
      </trkpt>
      <trkpt lat="43.86274" lon="6.8021">
        <ele>740.4</ele>
        <time>2021-09-19T09:10:45Z</time>
      </trkpt>
      <trkpt lat="43.86274" lon="6.8021">
        <ele>740.4</ele>
        <time>2021-09-19T09:10:46Z</time>
      </trkpt>
      <trkpt lat="43.86274" lon="6.8021">
        <ele>740.3</ele>
        <time>2021-09-19T09:10:48Z</time>
      </trkpt>
      <trkpt lat="43.86274" lon="6.8021">
        <ele>740.3</ele>
        <time>2021-09-19T09:10:49Z</time>
      </trkpt>
      <trkpt lat="43.86298" lon="6.80229">
        <ele>736.8</ele>
        <time>2021-09-19T09:11:36Z</time>
      </trkpt>
      <trkpt lat="43.86299" lon="6.80234">
        <ele>736.3</ele>
        <time>2021-09-19T09:11:37Z</time>
      </trkpt>
      <trkpt lat="43.86297" lon="6.80239">
        <ele>735.8</ele>
        <time>2021-09-19T09:11:39Z</time>
      </trkpt>
      <trkpt lat="43.86293" lon="6.80245">
        <ele>734.7</ele>
        <time>2021-09-19T09:11:40Z</time>
      </trkpt>
      <trkpt lat="43.86289" lon="6.80249">
        <ele>734</ele>
        <time>2021-09-19T09:11:41Z</time>
      </trkpt>
      <trkpt lat="43.86287" lon="6.80252">
        <ele>733.4</ele>
        <time>2021-09-19T09:11:43Z</time>
      </trkpt>
      <trkpt lat="43.86285" lon="6.80254">
        <ele>732.8</ele>
        <time>2021-09-19T09:11:44Z</time>
      </trkpt>
      <trkpt lat="43.86281" lon="6.80259">
        <ele>731.8</ele>
        <time>2021-09-19T09:11:45Z</time>
      </trkpt>
      <trkpt lat="43.86278" lon="6.80265">
        <ele>730.8</ele>
        <time>2021-09-19T09:11:46Z</time>
      </trkpt>
      <trkpt lat="43.86275" lon="6.80271">
        <ele>730.2</ele>
        <time>2021-09-19T09:11:48Z</time>
      </trkpt>
      <trkpt lat="43.86277" lon="6.80282">
        <ele>729.5</ele>
        <time>2021-09-19T09:11:49Z</time>
      </trkpt>
      <trkpt lat="43.86279" lon="6.8029">
        <ele>729</ele>
        <time>2021-09-19T09:11:50Z</time>
      </trkpt>
      <trkpt lat="43.86281" lon="6.80297">
        <ele>728.8</ele>
        <time>2021-09-19T09:11:52Z</time>
      </trkpt>
      <trkpt lat="43.86283" lon="6.80307">
        <ele>728.5</ele>
        <time>2021-09-19T09:11:53Z</time>
      </trkpt>
      <trkpt lat="43.86285" lon="6.80318">
        <ele>728.3</ele>
        <time>2021-09-19T09:11:55Z</time>
      </trkpt>
      <trkpt lat="43.86287" lon="6.80325">
        <ele>728.1</ele>
        <time>2021-09-19T09:11:56Z</time>
      </trkpt>
      <trkpt lat="43.86288" lon="6.80334">
        <ele>728</ele>
        <time>2021-09-19T09:11:57Z</time>
      </trkpt>
      <trkpt lat="43.86288" lon="6.80339">
        <ele>727.9</ele>
        <time>2021-09-19T09:11:58Z</time>
      </trkpt>
      <trkpt lat="43.86287" lon="6.80346">
        <ele>727.9</ele>
        <time>2021-09-19T09:12:00Z</time>
      </trkpt>
      <trkpt lat="43.86285" lon="6.80351">
        <ele>727.8</ele>
        <time>2021-09-19T09:12:01Z</time>
      </trkpt>
      <trkpt lat="43.86283" lon="6.80359">
        <ele>727.8</ele>
        <time>2021-09-19T09:12:02Z</time>
      </trkpt>
      <trkpt lat="43.8628" lon="6.80364">
        <ele>727.7</ele>
        <time>2021-09-19T09:12:04Z</time>
      </trkpt>
      <trkpt lat="43.86277" lon="6.80368">
        <ele>727.8</ele>
        <time>2021-09-19T09:12:05Z</time>
      </trkpt>
      <trkpt lat="43.86275" lon="6.80371">
        <ele>727.8</ele>
        <time>2021-09-19T09:12:06Z</time>
      </trkpt>
      <trkpt lat="43.8627" lon="6.80374">
        <ele>727.9</ele>
        <time>2021-09-19T09:12:07Z</time>
      </trkpt>
      <trkpt lat="43.86268" lon="6.80377">
        <ele>727.9</ele>
        <time>2021-09-19T09:12:08Z</time>
      </trkpt>
      <trkpt lat="43.86266" lon="6.80381">
        <ele>727.9</ele>
        <time>2021-09-19T09:12:09Z</time>
      </trkpt>
      <trkpt lat="43.86267" lon="6.80384">
        <ele>728</ele>
        <time>2021-09-19T09:12:11Z</time>
      </trkpt>
      <trkpt lat="43.86268" lon="6.80389">
        <ele>728</ele>
        <time>2021-09-19T09:12:12Z</time>
      </trkpt>
      <trkpt lat="43.86269" lon="6.80391">
        <ele>728</ele>
        <time>2021-09-19T09:12:13Z</time>
      </trkpt>
      <trkpt lat="43.86268" lon="6.80396">
        <ele>728</ele>
        <time>2021-09-19T09:12:14Z</time>
      </trkpt>
      <trkpt lat="43.86267" lon="6.804">
        <ele>728.1</ele>
        <time>2021-09-19T09:12:16Z</time>
      </trkpt>
      <trkpt lat="43.86266" lon="6.80404">
        <ele>728.1</ele>
        <time>2021-09-19T09:12:17Z</time>
      </trkpt>
      <trkpt lat="43.86264" lon="6.80407">
        <ele>728.1</ele>
        <time>2021-09-19T09:12:18Z</time>
      </trkpt>
      <trkpt lat="43.86261" lon="6.8041">
        <ele>728.1</ele>
        <time>2021-09-19T09:12:20Z</time>
      </trkpt>
      <trkpt lat="43.86258" lon="6.80413">
        <ele>728.1</ele>
        <time>2021-09-19T09:12:21Z</time>
      </trkpt>
      <trkpt lat="43.86256" lon="6.80416">
        <ele>728.2</ele>
        <time>2021-09-19T09:12:22Z</time>
      </trkpt>
      <trkpt lat="43.86256" lon="6.80419">
        <ele>728.2</ele>
        <time>2021-09-19T09:12:24Z</time>
      </trkpt>
      <trkpt lat="43.86255" lon="6.80426">
        <ele>728.2</ele>
        <time>2021-09-19T09:12:25Z</time>
      </trkpt>
      <trkpt lat="43.86255" lon="6.8043">
        <ele>728.2</ele>
        <time>2021-09-19T09:12:26Z</time>
      </trkpt>
      <trkpt lat="43.86256" lon="6.80437">
        <ele>728.2</ele>
        <time>2021-09-19T09:12:28Z</time>
      </trkpt>
      <trkpt lat="43.86257" lon="6.80441">
        <ele>728.2</ele>
        <time>2021-09-19T09:12:29Z</time>
      </trkpt>
      <trkpt lat="43.86258" lon="6.80447">
        <ele>728.2</ele>
        <time>2021-09-19T09:12:30Z</time>
      </trkpt>
      <trkpt lat="43.86258" lon="6.80456">
        <ele>728.2</ele>
        <time>2021-09-19T09:12:31Z</time>
      </trkpt>
      <trkpt lat="43.86257" lon="6.80462">
        <ele>728.2</ele>
        <time>2021-09-19T09:12:32Z</time>
      </trkpt>
      <trkpt lat="43.86257" lon="6.80467">
        <ele>728.2</ele>
        <time>2021-09-19T09:12:34Z</time>
      </trkpt>
      <trkpt lat="43.86257" lon="6.80472">
        <ele>728.1</ele>
        <time>2021-09-19T09:12:35Z</time>
      </trkpt>
      <trkpt lat="43.86255" lon="6.80482">
        <ele>728.1</ele>
        <time>2021-09-19T09:12:37Z</time>
      </trkpt>
      <trkpt lat="43.86256" lon="6.80489">
        <ele>728.2</ele>
        <time>2021-09-19T09:12:38Z</time>
      </trkpt>
      <trkpt lat="43.86256" lon="6.80494">
        <ele>728.2</ele>
        <time>2021-09-19T09:12:39Z</time>
      </trkpt>
      <trkpt lat="43.86256" lon="6.805">
        <ele>728.3</ele>
        <time>2021-09-19T09:12:40Z</time>
      </trkpt>
      <trkpt lat="43.86257" lon="6.80508">
        <ele>728.3</ele>
        <time>2021-09-19T09:12:42Z</time>
      </trkpt>
      <trkpt lat="43.86258" lon="6.80513">
        <ele>728.4</ele>
        <time>2021-09-19T09:12:43Z</time>
      </trkpt>
      <trkpt lat="43.86259" lon="6.80519">
        <ele>728.4</ele>
        <time>2021-09-19T09:12:44Z</time>
      </trkpt>
      <trkpt lat="43.86261" lon="6.80525">
        <ele>728.5</ele>
        <time>2021-09-19T09:12:45Z</time>
      </trkpt>
      <trkpt lat="43.86262" lon="6.8053">
        <ele>728.5</ele>
        <time>2021-09-19T09:12:47Z</time>
      </trkpt>
      <trkpt lat="43.86262" lon="6.80537">
        <ele>728.6</ele>
        <time>2021-09-19T09:12:48Z</time>
      </trkpt>
      <trkpt lat="43.8626" lon="6.80544">
        <ele>728.7</ele>
        <time>2021-09-19T09:12:50Z</time>
      </trkpt>
      <trkpt lat="43.8626" lon="6.80548">
        <ele>728.7</ele>
        <time>2021-09-19T09:12:51Z</time>
      </trkpt>
      <trkpt lat="43.86259" lon="6.80554">
        <ele>728.8</ele>
        <time>2021-09-19T09:12:52Z</time>
      </trkpt>
      <trkpt lat="43.86258" lon="6.80559">
        <ele>728.9</ele>
        <time>2021-09-19T09:12:54Z</time>
      </trkpt>
      <trkpt lat="43.86259" lon="6.80564">
        <ele>728.9</ele>
        <time>2021-09-19T09:12:55Z</time>
      </trkpt>
      <trkpt lat="43.8626" lon="6.8057">
        <ele>729</ele>
        <time>2021-09-19T09:12:56Z</time>
      </trkpt>
      <trkpt lat="43.8626" lon="6.80576">
        <ele>729</ele>
        <time>2021-09-19T09:12:57Z</time>
      </trkpt>
      <trkpt lat="43.8626" lon="6.80581">
        <ele>728.9</ele>
        <time>2021-09-19T09:12:58Z</time>
      </trkpt>
      <trkpt lat="43.86259" lon="6.80585">
        <ele>728.9</ele>
        <time>2021-09-19T09:12:59Z</time>
      </trkpt>
      <trkpt lat="43.86257" lon="6.80589">
        <ele>728.8</ele>
        <time>2021-09-19T09:13:00Z</time>
      </trkpt>
      <trkpt lat="43.86257" lon="6.80594">
        <ele>728.6</ele>
        <time>2021-09-19T09:13:02Z</time>
      </trkpt>
      <trkpt lat="43.86258" lon="6.80598">
        <ele>728.5</ele>
        <time>2021-09-19T09:13:03Z</time>
      </trkpt>
      <trkpt lat="43.86259" lon="6.80603">
        <ele>728.2</ele>
        <time>2021-09-19T09:13:04Z</time>
      </trkpt>
      <trkpt lat="43.86259" lon="6.80607">
        <ele>728</ele>
        <time>2021-09-19T09:13:05Z</time>
      </trkpt>
      <trkpt lat="43.86259" lon="6.80613">
        <ele>727.6</ele>
        <time>2021-09-19T09:13:07Z</time>
      </trkpt>
      <trkpt lat="43.86261" lon="6.80621">
        <ele>727.5</ele>
        <time>2021-09-19T09:13:08Z</time>
      </trkpt>
      <trkpt lat="43.86264" lon="6.80627">
        <ele>727.4</ele>
        <time>2021-09-19T09:13:09Z</time>
      </trkpt>
      <trkpt lat="43.86265" lon="6.80632">
        <ele>727.2</ele>
        <time>2021-09-19T09:13:10Z</time>
      </trkpt>
      <trkpt lat="43.86266" lon="6.80637">
        <ele>727.1</ele>
        <time>2021-09-19T09:13:12Z</time>
      </trkpt>
      <trkpt lat="43.86268" lon="6.80642">
        <ele>727</ele>
        <time>2021-09-19T09:13:13Z</time>
      </trkpt>
      <trkpt lat="43.86268" lon="6.80645">
        <ele>727</ele>
        <time>2021-09-19T09:13:14Z</time>
      </trkpt>
      <trkpt lat="43.86269" lon="6.80647">
        <ele>727</ele>
        <time>2021-09-19T09:13:16Z</time>
      </trkpt>
      <trkpt lat="43.86271" lon="6.80648">
        <ele>727</ele>
        <time>2021-09-19T09:13:17Z</time>
      </trkpt>
      <trkpt lat="43.8627" lon="6.80648">
        <ele>727</ele>
        <time>2021-09-19T09:13:19Z</time>
      </trkpt>
      <trkpt lat="43.8627" lon="6.80648">
        <ele>727</ele>
        <time>2021-09-19T09:13:20Z</time>
      </trkpt>
      <trkpt lat="43.86271" lon="6.80649">
        <ele>727.1</ele>
        <time>2021-09-19T09:13:21Z</time>
      </trkpt>
      <trkpt lat="43.86271" lon="6.80649">
        <ele>727.3</ele>
        <time>2021-09-19T09:13:23Z</time>
      </trkpt>
      <trkpt lat="43.86271" lon="6.8065">
        <ele>727.3</ele>
        <time>2021-09-19T09:13:24Z</time>
      </trkpt>
      <trkpt lat="43.86271" lon="6.80652">
        <ele>727.4</ele>
        <time>2021-09-19T09:13:25Z</time>
      </trkpt>
      <trkpt lat="43.86271" lon="6.80654">
        <ele>727.5</ele>
        <time>2021-09-19T09:13:26Z</time>
      </trkpt>
      <trkpt lat="43.86227" lon="6.80695">
        <ele>734.8</ele>
        <time>2021-09-19T09:14:04Z</time>
      </trkpt>
      <trkpt lat="43.86224" lon="6.80694">
        <ele>735.7</ele>
        <time>2021-09-19T09:14:05Z</time>
      </trkpt>
      <trkpt lat="43.86219" lon="6.80692">
        <ele>737.6</ele>
        <time>2021-09-19T09:14:06Z</time>
      </trkpt>
      <trkpt lat="43.86215" lon="6.80692">
        <ele>738.3</ele>
        <time>2021-09-19T09:14:08Z</time>
      </trkpt>
      <trkpt lat="43.86212" lon="6.80693">
        <ele>739.1</ele>
        <time>2021-09-19T09:14:09Z</time>
      </trkpt>
      <trkpt lat="43.86211" lon="6.80693">
        <ele>739.2</ele>
        <time>2021-09-19T09:14:10Z</time>
      </trkpt>
      <trkpt lat="43.86211" lon="6.80694">
        <ele>739</ele>
        <time>2021-09-19T09:14:11Z</time>
      </trkpt>
      <trkpt lat="43.8621" lon="6.80696">
        <ele>739.7</ele>
        <time>2021-09-19T09:14:12Z</time>
      </trkpt>
      <trkpt lat="43.8621" lon="6.80696">
        <ele>739.8</ele>
        <time>2021-09-19T09:14:13Z</time>
      </trkpt>
      <trkpt lat="43.86212" lon="6.807">
        <ele>739</ele>
        <time>2021-09-19T09:14:14Z</time>
      </trkpt>
      <trkpt lat="43.86214" lon="6.80704">
        <ele>738.2</ele>
        <time>2021-09-19T09:14:15Z</time>
      </trkpt>
      <trkpt lat="43.86216" lon="6.80707">
        <ele>738</ele>
        <time>2021-09-19T09:14:17Z</time>
      </trkpt>
      <trkpt lat="43.86218" lon="6.80711">
        <ele>737.1</ele>
        <time>2021-09-19T09:14:18Z</time>
      </trkpt>
      <trkpt lat="43.8622" lon="6.80715">
        <ele>736.6</ele>
        <time>2021-09-19T09:14:19Z</time>
      </trkpt>
      <trkpt lat="43.86223" lon="6.80718">
        <ele>736.3</ele>
        <time>2021-09-19T09:14:55Z</time>
      </trkpt>
      <trkpt lat="43.86225" lon="6.80722">
        <ele>735.3</ele>
        <time>2021-09-19T09:14:56Z</time>
      </trkpt>
      <trkpt lat="43.86223" lon="6.80727">
        <ele>735</ele>
        <time>2021-09-19T09:14:57Z</time>
      </trkpt>
      <trkpt lat="43.86221" lon="6.80732">
        <ele>735.3</ele>
        <time>2021-09-19T09:14:58Z</time>
      </trkpt>
      <trkpt lat="43.86218" lon="6.80735">
        <ele>735.6</ele>
        <time>2021-09-19T09:14:59Z</time>
      </trkpt>
      <trkpt lat="43.86214" lon="6.80736">
        <ele>735.8</ele>
        <time>2021-09-19T09:15:00Z</time>
      </trkpt>
      <trkpt lat="43.86209" lon="6.80738">
        <ele>737</ele>
        <time>2021-09-19T09:15:02Z</time>
      </trkpt>
      <trkpt lat="43.86208" lon="6.80737">
        <ele>737.1</ele>
        <time>2021-09-19T09:15:03Z</time>
      </trkpt>
      <trkpt lat="43.86206" lon="6.80737">
        <ele>737.7</ele>
        <time>2021-09-19T09:15:04Z</time>
      </trkpt>
      <trkpt lat="43.86202" lon="6.80736">
        <ele>738.9</ele>
        <time>2021-09-19T09:15:05Z</time>
      </trkpt>
      <trkpt lat="43.862" lon="6.80736">
        <ele>739.6</ele>
        <time>2021-09-19T09:15:06Z</time>
      </trkpt>
      <trkpt lat="43.86194" lon="6.80735">
        <ele>740.7</ele>
        <time>2021-09-19T09:15:08Z</time>
      </trkpt>
      <trkpt lat="43.86189" lon="6.80736">
        <ele>741.2</ele>
        <time>2021-09-19T09:15:09Z</time>
      </trkpt>
      <trkpt lat="43.86187" lon="6.80736">
        <ele>741.2</ele>
        <time>2021-09-19T09:15:11Z</time>
      </trkpt>
      <trkpt lat="43.86186" lon="6.80736">
        <ele>741.4</ele>
        <time>2021-09-19T09:15:12Z</time>
      </trkpt>
      <trkpt lat="43.86185" lon="6.80736">
        <ele>741.9</ele>
        <time>2021-09-19T09:15:13Z</time>
      </trkpt>
      <trkpt lat="43.86185" lon="6.80737">
        <ele>742</ele>
        <time>2021-09-19T09:15:14Z</time>
      </trkpt>
      <trkpt lat="43.86182" lon="6.80738">
        <ele>742.5</ele>
        <time>2021-09-19T09:15:16Z</time>
      </trkpt>
      <trkpt lat="43.86179" lon="6.80741">
        <ele>742.4</ele>
        <time>2021-09-19T09:15:17Z</time>
      </trkpt>
      <trkpt lat="43.86176" lon="6.80744">
        <ele>742.6</ele>
        <time>2021-09-19T09:15:18Z</time>
      </trkpt>
      <trkpt lat="43.86172" lon="6.80751">
        <ele>742.1</ele>
        <time>2021-09-19T09:15:20Z</time>
      </trkpt>
      <trkpt lat="43.86166" lon="6.80762">
        <ele>740.9</ele>
        <time>2021-09-19T09:15:21Z</time>
      </trkpt>
      <trkpt lat="43.86157" lon="6.80778">
        <ele>739.7</ele>
        <time>2021-09-19T09:15:23Z</time>
      </trkpt>
      <trkpt lat="43.86153" lon="6.80783">
        <ele>739.3</ele>
        <time>2021-09-19T09:15:24Z</time>
      </trkpt>
      <trkpt lat="43.86149" lon="6.80789">
        <ele>738.3</ele>
        <time>2021-09-19T09:15:25Z</time>
      </trkpt>
      <trkpt lat="43.86146" lon="6.80794">
        <ele>738.5</ele>
        <time>2021-09-19T09:15:26Z</time>
      </trkpt>
      <trkpt lat="43.86144" lon="6.80797">
        <ele>738.8</ele>
        <time>2021-09-19T09:15:27Z</time>
      </trkpt>
      <trkpt lat="43.86143" lon="6.80797">
        <ele>738.8</ele>
        <time>2021-09-19T09:15:29Z</time>
      </trkpt>
      <trkpt lat="43.86144" lon="6.80796">
        <ele>738.9</ele>
        <time>2021-09-19T09:15:31Z</time>
      </trkpt>
      <trkpt lat="43.86145" lon="6.80796">
        <ele>739</ele>
        <time>2021-09-19T09:15:32Z</time>
      </trkpt>
      <trkpt lat="43.86145" lon="6.80796">
        <ele>739</ele>
        <time>2021-09-19T09:15:33Z</time>
      </trkpt>
      <trkpt lat="43.86144" lon="6.80796">
        <ele>739</ele>
        <time>2021-09-19T09:15:34Z</time>
      </trkpt>
      <trkpt lat="43.86144" lon="6.80797">
        <ele>739.1</ele>
        <time>2021-09-19T09:15:35Z</time>
      </trkpt>
      <trkpt lat="43.86143" lon="6.80797">
        <ele>739.2</ele>
        <time>2021-09-19T09:15:36Z</time>
      </trkpt>
      <trkpt lat="43.86141" lon="6.80797">
        <ele>739.4</ele>
        <time>2021-09-19T09:15:38Z</time>
      </trkpt>
      <trkpt lat="43.8594" lon="6.81092">
        <ele>764.5</ele>
        <time>2021-09-19T09:19:19Z</time>
      </trkpt>
      <trkpt lat="43.85938" lon="6.81097">
        <ele>764.9</ele>
        <time>2021-09-19T09:19:20Z</time>
      </trkpt>
      <trkpt lat="43.85938" lon="6.81099">
        <ele>765.1</ele>
        <time>2021-09-19T09:19:21Z</time>
      </trkpt>
      <trkpt lat="43.85938" lon="6.81103">
        <ele>765.3</ele>
        <time>2021-09-19T09:19:23Z</time>
      </trkpt>
      <trkpt lat="43.85938" lon="6.81104">
        <ele>765.4</ele>
        <time>2021-09-19T09:19:24Z</time>
      </trkpt>
      <trkpt lat="43.85938" lon="6.81104">
        <ele>765.4</ele>
        <time>2021-09-19T09:19:25Z</time>
      </trkpt>
      <trkpt lat="43.85939" lon="6.81105">
        <ele>765.5</ele>
        <time>2021-09-19T09:19:26Z</time>
      </trkpt>
      <trkpt lat="43.85939" lon="6.81105">
        <ele>765.5</ele>
        <time>2021-09-19T09:19:28Z</time>
      </trkpt>
      <trkpt lat="43.8594" lon="6.81106">
        <ele>765.6</ele>
        <time>2021-09-19T09:19:29Z</time>
      </trkpt>
      <trkpt lat="43.85945" lon="6.81115">
        <ele>766.3</ele>
        <time>2021-09-19T09:19:34Z</time>
      </trkpt>
      <trkpt lat="43.85945" lon="6.81116">
        <ele>766.3</ele>
        <time>2021-09-19T09:19:36Z</time>
      </trkpt>
      <trkpt lat="43.85945" lon="6.81116">
        <ele>766.3</ele>
        <time>2021-09-19T09:19:37Z</time>
      </trkpt>
      <trkpt lat="43.85946" lon="6.81116">
        <ele>766.4</ele>
        <time>2021-09-19T09:19:38Z</time>
      </trkpt>
      <trkpt lat="43.85946" lon="6.8112">
        <ele>766.5</ele>
        <time>2021-09-19T09:19:40Z</time>
      </trkpt>
      <trkpt lat="43.85947" lon="6.81123">
        <ele>766.7</ele>
        <time>2021-09-19T09:19:41Z</time>
      </trkpt>
      <trkpt lat="43.85948" lon="6.81126">
        <ele>766.7</ele>
        <time>2021-09-19T09:19:42Z</time>
      </trkpt>
      <trkpt lat="43.8595" lon="6.81133">
        <ele>766.9</ele>
        <time>2021-09-19T09:19:44Z</time>
      </trkpt>
      <trkpt lat="43.85952" lon="6.8114">
        <ele>766.9</ele>
        <time>2021-09-19T09:19:45Z</time>
      </trkpt>
      <trkpt lat="43.85954" lon="6.8115">
        <ele>766.7</ele>
        <time>2021-09-19T09:19:46Z</time>
      </trkpt>
      <trkpt lat="43.85953" lon="6.81154">
        <ele>766.6</ele>
        <time>2021-09-19T09:19:47Z</time>
      </trkpt>
      <trkpt lat="43.85951" lon="6.81159">
        <ele>766.4</ele>
        <time>2021-09-19T09:19:48Z</time>
      </trkpt>
      <trkpt lat="43.85947" lon="6.81164">
        <ele>766</ele>
        <time>2021-09-19T09:19:50Z</time>
      </trkpt>
      <trkpt lat="43.85939" lon="6.81172">
        <ele>765.4</ele>
        <time>2021-09-19T09:19:51Z</time>
      </trkpt>
      <trkpt lat="43.85933" lon="6.81179">
        <ele>764.8</ele>
        <time>2021-09-19T09:19:53Z</time>
      </trkpt>
      <trkpt lat="43.85928" lon="6.81186">
        <ele>764.5</ele>
        <time>2021-09-19T09:19:54Z</time>
      </trkpt>
      <trkpt lat="43.85924" lon="6.8119">
        <ele>764.2</ele>
        <time>2021-09-19T09:19:56Z</time>
      </trkpt>
      <trkpt lat="43.85921" lon="6.81193">
        <ele>764.1</ele>
        <time>2021-09-19T09:19:57Z</time>
      </trkpt>
      <trkpt lat="43.85918" lon="6.812">
        <ele>763.8</ele>
        <time>2021-09-19T09:19:58Z</time>
      </trkpt>
      <trkpt lat="43.85917" lon="6.81205">
        <ele>763.6</ele>
        <time>2021-09-19T09:20:00Z</time>
      </trkpt>
      <trkpt lat="43.85916" lon="6.8121">
        <ele>763.5</ele>
        <time>2021-09-19T09:20:01Z</time>
      </trkpt>
      <trkpt lat="43.85915" lon="6.81216">
        <ele>763.4</ele>
        <time>2021-09-19T09:20:02Z</time>
      </trkpt>
      <trkpt lat="43.85913" lon="6.81228">
        <ele>763.4</ele>
        <time>2021-09-19T09:20:04Z</time>
      </trkpt>
      <trkpt lat="43.85912" lon="6.81244">
        <ele>763.3</ele>
        <time>2021-09-19T09:20:06Z</time>
      </trkpt>
      <trkpt lat="43.85908" lon="6.81259">
        <ele>763.2</ele>
        <time>2021-09-19T09:20:08Z</time>
      </trkpt>
      <trkpt lat="43.85903" lon="6.81275">
        <ele>762.7</ele>
        <time>2021-09-19T09:20:10Z</time>
      </trkpt>
      <trkpt lat="43.85896" lon="6.81285">
        <ele>762</ele>
        <time>2021-09-19T09:20:12Z</time>
      </trkpt>
      <trkpt lat="43.85887" lon="6.81285">
        <ele>761.3</ele>
        <time>2021-09-19T09:20:13Z</time>
      </trkpt>
      <trkpt lat="43.85879" lon="6.81284">
        <ele>760.6</ele>
        <time>2021-09-19T09:20:14Z</time>
      </trkpt>
      <trkpt lat="43.85863" lon="6.8128">
        <ele>759</ele>
        <time>2021-09-19T09:20:16Z</time>
      </trkpt>
      <trkpt lat="43.85858" lon="6.81277">
        <ele>758.3</ele>
        <time>2021-09-19T09:20:17Z</time>
      </trkpt>
      <trkpt lat="43.85852" lon="6.81271">
        <ele>757.7</ele>
        <time>2021-09-19T09:20:18Z</time>
      </trkpt>
      <trkpt lat="43.85848" lon="6.81268">
        <ele>757.2</ele>
        <time>2021-09-19T09:20:19Z</time>
      </trkpt>
      <trkpt lat="43.85842" lon="6.81267">
        <ele>756.7</ele>
        <time>2021-09-19T09:20:20Z</time>
      </trkpt>
      <trkpt lat="43.85834" lon="6.81263">
        <ele>756</ele>
        <time>2021-09-19T09:20:22Z</time>
      </trkpt>
      <trkpt lat="43.85823" lon="6.8126">
        <ele>755.4</ele>
        <time>2021-09-19T09:20:24Z</time>
      </trkpt>
      <trkpt lat="43.85821" lon="6.81259">
        <ele>755.3</ele>
        <time>2021-09-19T09:20:25Z</time>
      </trkpt>
      <trkpt lat="43.85818" lon="6.81257">
        <ele>755.2</ele>
        <time>2021-09-19T09:20:27Z</time>
      </trkpt>
      <trkpt lat="43.85818" lon="6.81258">
        <ele>755.2</ele>
        <time>2021-09-19T09:20:28Z</time>
      </trkpt>
      <trkpt lat="43.85819" lon="6.81258">
        <ele>755.1</ele>
        <time>2021-09-19T09:20:29Z</time>
      </trkpt>
      <trkpt lat="43.8582" lon="6.81259">
        <ele>755.1</ele>
        <time>2021-09-19T09:20:30Z</time>
      </trkpt>
      <trkpt lat="43.85821" lon="6.8126">
        <ele>755.1</ele>
        <time>2021-09-19T09:20:31Z</time>
      </trkpt>
      <trkpt lat="43.85821" lon="6.8126">
        <ele>755.1</ele>
        <time>2021-09-19T09:20:32Z</time>
      </trkpt>
      <trkpt lat="43.85822" lon="6.81261">
        <ele>755.1</ele>
        <time>2021-09-19T09:20:34Z</time>
      </trkpt>
      <trkpt lat="43.85823" lon="6.81261">
        <ele>755</ele>
        <time>2021-09-19T09:20:35Z</time>
      </trkpt>
      <trkpt lat="43.85827" lon="6.81266">
        <ele>755</ele>
        <time>2021-09-19T09:20:36Z</time>
      </trkpt>
      <trkpt lat="43.85829" lon="6.81271">
        <ele>755</ele>
        <time>2021-09-19T09:20:38Z</time>
      </trkpt>
      <trkpt lat="43.85832" lon="6.81276">
        <ele>755.4</ele>
        <time>2021-09-19T09:20:39Z</time>
      </trkpt>
      <trkpt lat="43.85834" lon="6.81279">
        <ele>756</ele>
        <time>2021-09-19T09:20:40Z</time>
      </trkpt>
      <trkpt lat="43.85836" lon="6.81285">
        <ele>756.6</ele>
        <time>2021-09-19T09:20:41Z</time>
      </trkpt>
      <trkpt lat="43.85837" lon="6.81291">
        <ele>757</ele>
        <time>2021-09-19T09:20:43Z</time>
      </trkpt>
      <trkpt lat="43.85836" lon="6.81295">
        <ele>758.1</ele>
        <time>2021-09-19T09:20:44Z</time>
      </trkpt>
      <trkpt lat="43.85836" lon="6.813">
        <ele>759.2</ele>
        <time>2021-09-19T09:20:46Z</time>
      </trkpt>
      <trkpt lat="43.85836" lon="6.81305">
        <ele>759.5</ele>
        <time>2021-09-19T09:20:47Z</time>
      </trkpt>
      <trkpt lat="43.85836" lon="6.81306">
        <ele>759.5</ele>
        <time>2021-09-19T09:20:48Z</time>
      </trkpt>
      <trkpt lat="43.85836" lon="6.81314">
        <ele>759.8</ele>
        <time>2021-09-19T09:20:49Z</time>
      </trkpt>
      <trkpt lat="43.85836" lon="6.81319">
        <ele>759.9</ele>
        <time>2021-09-19T09:20:51Z</time>
      </trkpt>
      <trkpt lat="43.85835" lon="6.81323">
        <ele>759.9</ele>
        <time>2021-09-19T09:20:52Z</time>
      </trkpt>
      <trkpt lat="43.85835" lon="6.81324">
        <ele>759.9</ele>
        <time>2021-09-19T09:20:53Z</time>
      </trkpt>
      <trkpt lat="43.85832" lon="6.8133">
        <ele>759.8</ele>
        <time>2021-09-19T09:20:54Z</time>
      </trkpt>
      <trkpt lat="43.85831" lon="6.81333">
        <ele>759.8</ele>
        <time>2021-09-19T09:20:55Z</time>
      </trkpt>
      <trkpt lat="43.85829" lon="6.81339">
        <ele>759.7</ele>
        <time>2021-09-19T09:20:57Z</time>
      </trkpt>
      <trkpt lat="43.85828" lon="6.81343">
        <ele>759.6</ele>
        <time>2021-09-19T09:20:58Z</time>
      </trkpt>
      <trkpt lat="43.85827" lon="6.81348">
        <ele>759.6</ele>
        <time>2021-09-19T09:21:00Z</time>
      </trkpt>
      <trkpt lat="43.85826" lon="6.81352">
        <ele>759.5</ele>
        <time>2021-09-19T09:21:01Z</time>
      </trkpt>
      <trkpt lat="43.85826" lon="6.81355">
        <ele>759.5</ele>
        <time>2021-09-19T09:21:03Z</time>
      </trkpt>
      <trkpt lat="43.85827" lon="6.81359">
        <ele>759.6</ele>
        <time>2021-09-19T09:21:05Z</time>
      </trkpt>
      <trkpt lat="43.85829" lon="6.81363">
        <ele>759.6</ele>
        <time>2021-09-19T09:21:06Z</time>
      </trkpt>
      <trkpt lat="43.85831" lon="6.81371">
        <ele>759.7</ele>
        <time>2021-09-19T09:21:09Z</time>
      </trkpt>
      <trkpt lat="43.85831" lon="6.81375">
        <ele>759.7</ele>
        <time>2021-09-19T09:21:10Z</time>
      </trkpt>
      <trkpt lat="43.85833" lon="6.81381">
        <ele>759.7</ele>
        <time>2021-09-19T09:21:11Z</time>
      </trkpt>
      <trkpt lat="43.85839" lon="6.81409">
        <ele>758.8</ele>
        <time>2021-09-19T09:21:13Z</time>
      </trkpt>
      <trkpt lat="43.8584" lon="6.81414">
        <ele>758.5</ele>
        <time>2021-09-19T09:21:14Z</time>
      </trkpt>
      <trkpt lat="43.85842" lon="6.81422">
        <ele>758.2</ele>
        <time>2021-09-19T09:21:15Z</time>
      </trkpt>
      <trkpt lat="43.85846" lon="6.81435">
        <ele>757.6</ele>
        <time>2021-09-19T09:21:17Z</time>
      </trkpt>
      <trkpt lat="43.85851" lon="6.81453">
        <ele>757.1</ele>
        <time>2021-09-19T09:21:19Z</time>
      </trkpt>
      <trkpt lat="43.85854" lon="6.8146">
        <ele>756.8</ele>
        <time>2021-09-19T09:21:20Z</time>
      </trkpt>
      <trkpt lat="43.85854" lon="6.81476">
        <ele>756.2</ele>
        <time>2021-09-19T09:21:22Z</time>
      </trkpt>
      <trkpt lat="43.85853" lon="6.81484">
        <ele>755.9</ele>
        <time>2021-09-19T09:21:23Z</time>
      </trkpt>
      <trkpt lat="43.85851" lon="6.81494">
        <ele>755.5</ele>
        <time>2021-09-19T09:21:24Z</time>
      </trkpt>
      <trkpt lat="43.85847" lon="6.81515">
        <ele>754.7</ele>
        <time>2021-09-19T09:21:26Z</time>
      </trkpt>
      <trkpt lat="43.85846" lon="6.81536">
        <ele>753.7</ele>
        <time>2021-09-19T09:21:28Z</time>
      </trkpt>
      <trkpt lat="43.85848" lon="6.81546">
        <ele>752.9</ele>
        <time>2021-09-19T09:21:29Z</time>
      </trkpt>
      <trkpt lat="43.85851" lon="6.81556">
        <ele>752</ele>
        <time>2021-09-19T09:21:30Z</time>
      </trkpt>
      <trkpt lat="43.85857" lon="6.81574">
        <ele>750.5</ele>
        <time>2021-09-19T09:21:32Z</time>
      </trkpt>
      <trkpt lat="43.85861" lon="6.81583">
        <ele>749.8</ele>
        <time>2021-09-19T09:21:33Z</time>
      </trkpt>
      <trkpt lat="43.85863" lon="6.81592">
        <ele>749</ele>
        <time>2021-09-19T09:21:34Z</time>
      </trkpt>
      <trkpt lat="43.85861" lon="6.81604">
        <ele>748.2</ele>
        <time>2021-09-19T09:21:35Z</time>
      </trkpt>
      <trkpt lat="43.85855" lon="6.81631">
        <ele>747.2</ele>
        <time>2021-09-19T09:21:37Z</time>
      </trkpt>
      <trkpt lat="43.85851" lon="6.81644">
        <ele>747</ele>
        <time>2021-09-19T09:21:38Z</time>
      </trkpt>
      <trkpt lat="43.85836" lon="6.81668">
        <ele>746.1</ele>
        <time>2021-09-19T09:21:40Z</time>
      </trkpt>
      <trkpt lat="43.85833" lon="6.81678">
        <ele>745.4</ele>
        <time>2021-09-19T09:21:41Z</time>
      </trkpt>
      <trkpt lat="43.85824" lon="6.81694">
        <ele>744.1</ele>
        <time>2021-09-19T09:21:43Z</time>
      </trkpt>
      <trkpt lat="43.85823" lon="6.81698">
        <ele>743.8</ele>
        <time>2021-09-19T09:21:44Z</time>
      </trkpt>
      <trkpt lat="43.85816" lon="6.81703">
        <ele>743.1</ele>
        <time>2021-09-19T09:21:46Z</time>
      </trkpt>
      <trkpt lat="43.85801" lon="6.8172">
        <ele>741</ele>
        <time>2021-09-19T09:21:48Z</time>
      </trkpt>
      <trkpt lat="43.85795" lon="6.81729">
        <ele>740.2</ele>
        <time>2021-09-19T09:21:49Z</time>
      </trkpt>
      <trkpt lat="43.85784" lon="6.81744">
        <ele>739.4</ele>
        <time>2021-09-19T09:21:51Z</time>
      </trkpt>
      <trkpt lat="43.85777" lon="6.81756">
        <ele>739.2</ele>
        <time>2021-09-19T09:21:52Z</time>
      </trkpt>
      <trkpt lat="43.85772" lon="6.81768">
        <ele>739.3</ele>
        <time>2021-09-19T09:21:53Z</time>
      </trkpt>
      <trkpt lat="43.85769" lon="6.81781">
        <ele>739.5</ele>
        <time>2021-09-19T09:21:54Z</time>
      </trkpt>
      <trkpt lat="43.85767" lon="6.81792">
        <ele>739.6</ele>
        <time>2021-09-19T09:21:55Z</time>
      </trkpt>
      <trkpt lat="43.85765" lon="6.81814">
        <ele>739.9</ele>
        <time>2021-09-19T09:21:57Z</time>
      </trkpt>
      <trkpt lat="43.85763" lon="6.81831">
        <ele>740.3</ele>
        <time>2021-09-19T09:21:59Z</time>
      </trkpt>
      <trkpt lat="43.85763" lon="6.81831">
        <ele>740.3</ele>
        <time>2021-09-19T09:22:00Z</time>
      </trkpt>
      <trkpt lat="43.85763" lon="6.81831">
        <ele>740.3</ele>
        <time>2021-09-19T09:22:01Z</time>
      </trkpt>
      <trkpt lat="43.85759" lon="6.81833">
        <ele>740.5</ele>
        <time>2021-09-19T09:22:03Z</time>
      </trkpt>
      <trkpt lat="43.85756" lon="6.81835">
        <ele>740.7</ele>
        <time>2021-09-19T09:22:04Z</time>
      </trkpt>
      <trkpt lat="43.85752" lon="6.8184">
        <ele>741.1</ele>
        <time>2021-09-19T09:22:05Z</time>
      </trkpt>
      <trkpt lat="43.8575" lon="6.81843">
        <ele>741.3</ele>
        <time>2021-09-19T09:22:06Z</time>
      </trkpt>
      <trkpt lat="43.85748" lon="6.81847">
        <ele>741.7</ele>
        <time>2021-09-19T09:22:08Z</time>
      </trkpt>
      <trkpt lat="43.85746" lon="6.81852">
        <ele>742.1</ele>
        <time>2021-09-19T09:22:09Z</time>
      </trkpt>
      <trkpt lat="43.85744" lon="6.81855">
        <ele>742.4</ele>
        <time>2021-09-19T09:22:10Z</time>
      </trkpt>
      <trkpt lat="43.85741" lon="6.81862">
        <ele>743.1</ele>
        <time>2021-09-19T09:22:12Z</time>
      </trkpt>
      <trkpt lat="43.8574" lon="6.81865">
        <ele>743.4</ele>
        <time>2021-09-19T09:22:13Z</time>
      </trkpt>
      <trkpt lat="43.85738" lon="6.81868">
        <ele>743.7</ele>
        <time>2021-09-19T09:22:14Z</time>
      </trkpt>
      <trkpt lat="43.85737" lon="6.81871">
        <ele>744</ele>
        <time>2021-09-19T09:22:16Z</time>
      </trkpt>
      <trkpt lat="43.85736" lon="6.81872">
        <ele>744.1</ele>
        <time>2021-09-19T09:22:17Z</time>
      </trkpt>
      <trkpt lat="43.85737" lon="6.81872">
        <ele>744.1</ele>
        <time>2021-09-19T09:22:19Z</time>
      </trkpt>
      <trkpt lat="43.85737" lon="6.81872">
        <ele>744.2</ele>
        <time>2021-09-19T09:22:20Z</time>
      </trkpt>
      <trkpt lat="43.85738" lon="6.81873">
        <ele>744.3</ele>
        <time>2021-09-19T09:22:21Z</time>
      </trkpt>
      <trkpt lat="43.85738" lon="6.81874">
        <ele>744.4</ele>
        <time>2021-09-19T09:22:22Z</time>
      </trkpt>
      <trkpt lat="43.85738" lon="6.81876">
        <ele>744.5</ele>
        <time>2021-09-19T09:22:24Z</time>
      </trkpt>
      <trkpt lat="43.85738" lon="6.81878">
        <ele>744.6</ele>
        <time>2021-09-19T09:22:25Z</time>
      </trkpt>
      <trkpt lat="43.85738" lon="6.81879">
        <ele>744.7</ele>
        <time>2021-09-19T09:22:26Z</time>
      </trkpt>
      <trkpt lat="43.85745" lon="6.81926">
        <ele>746.9</ele>
        <time>2021-09-19T09:22:56Z</time>
      </trkpt>
      <trkpt lat="43.85745" lon="6.8193">
        <ele>746.9</ele>
        <time>2021-09-19T09:22:57Z</time>
      </trkpt>
      <trkpt lat="43.85745" lon="6.81934">
        <ele>746.8</ele>
        <time>2021-09-19T09:22:58Z</time>
      </trkpt>
      <trkpt lat="43.85746" lon="6.81939">
        <ele>746.7</ele>
        <time>2021-09-19T09:23:00Z</time>
      </trkpt>
      <trkpt lat="43.85747" lon="6.81946">
        <ele>746.3</ele>
        <time>2021-09-19T09:23:01Z</time>
      </trkpt>
      <trkpt lat="43.85747" lon="6.81956">
        <ele>745.6</ele>
        <time>2021-09-19T09:23:03Z</time>
      </trkpt>
      <trkpt lat="43.85747" lon="6.81961">
        <ele>745.3</ele>
        <time>2021-09-19T09:23:04Z</time>
      </trkpt>
      <trkpt lat="43.85748" lon="6.81965">
        <ele>744.9</ele>
        <time>2021-09-19T09:23:06Z</time>
      </trkpt>
      <trkpt lat="43.85749" lon="6.81969">
        <ele>744.5</ele>
        <time>2021-09-19T09:23:07Z</time>
      </trkpt>
      <trkpt lat="43.85749" lon="6.81973">
        <ele>744.4</ele>
        <time>2021-09-19T09:23:08Z</time>
      </trkpt>
      <trkpt lat="43.85748" lon="6.81974">
        <ele>744.5</ele>
        <time>2021-09-19T09:23:10Z</time>
      </trkpt>
      <trkpt lat="43.85747" lon="6.81976">
        <ele>744.5</ele>
        <time>2021-09-19T09:23:11Z</time>
      </trkpt>
      <trkpt lat="43.85746" lon="6.81976">
        <ele>744.5</ele>
        <time>2021-09-19T09:23:13Z</time>
      </trkpt>
      <trkpt lat="43.85746" lon="6.81976">
        <ele>745.6</ele>
        <time>2021-09-19T09:23:14Z</time>
      </trkpt>
      <trkpt lat="43.85745" lon="6.81976">
        <ele>745.6</ele>
        <time>2021-09-19T09:23:16Z</time>
      </trkpt>
      <trkpt lat="43.85746" lon="6.81977">
        <ele>745.5</ele>
        <time>2021-09-19T09:23:17Z</time>
      </trkpt>
      <trkpt lat="43.85746" lon="6.81978">
        <ele>745.6</ele>
        <time>2021-09-19T09:23:18Z</time>
      </trkpt>
      <trkpt lat="43.85935" lon="6.81908">
        <ele>705.9</ele>
        <time>2021-09-19T09:23:34Z</time>
      </trkpt>
      <trkpt lat="43.85948" lon="6.81898">
        <ele>704.6</ele>
        <time>2021-09-19T09:23:35Z</time>
      </trkpt>
      <trkpt lat="43.85958" lon="6.8189">
        <ele>704.2</ele>
        <time>2021-09-19T09:23:36Z</time>
      </trkpt>
      <trkpt lat="43.85969" lon="6.81881">
        <ele>704.6</ele>
        <time>2021-09-19T09:23:37Z</time>
      </trkpt>
      <trkpt lat="43.85987" lon="6.81865">
        <ele>705.9</ele>
        <time>2021-09-19T09:23:39Z</time>
      </trkpt>
      <trkpt lat="43.85997" lon="6.81868">
        <ele>706.6</ele>
        <time>2021-09-19T09:23:41Z</time>
      </trkpt>
      <trkpt lat="43.85919" lon="6.82078">
        <ele>704.2</ele>
        <time>2021-09-19T09:23:43Z</time>
      </trkpt>
      <trkpt lat="43.85908" lon="6.8211">
        <ele>704.1</ele>
        <time>2021-09-19T09:23:44Z</time>
      </trkpt>
      <trkpt lat="43.85896" lon="6.82143">
        <ele>703.7</ele>
        <time>2021-09-19T09:23:46Z</time>
      </trkpt>
      <trkpt lat="43.85892" lon="6.82163">
        <ele>702.7</ele>
        <time>2021-09-19T09:23:47Z</time>
      </trkpt>
      <trkpt lat="43.8589" lon="6.82179">
        <ele>702.2</ele>
        <time>2021-09-19T09:23:48Z</time>
      </trkpt>
      <trkpt lat="43.85886" lon="6.82201">
        <ele>701.7</ele>
        <time>2021-09-19T09:23:50Z</time>
      </trkpt>
      <trkpt lat="43.85884" lon="6.8222">
        <ele>701.2</ele>
        <time>2021-09-19T09:23:52Z</time>
      </trkpt>
      <trkpt lat="43.85885" lon="6.82221">
        <ele>701</ele>
        <time>2021-09-19T09:23:55Z</time>
      </trkpt>
      <trkpt lat="43.85886" lon="6.82223">
        <ele>700.7</ele>
        <time>2021-09-19T09:23:56Z</time>
      </trkpt>
      <trkpt lat="43.85886" lon="6.82225">
        <ele>700.5</ele>
        <time>2021-09-19T09:23:57Z</time>
      </trkpt>
      <trkpt lat="43.85887" lon="6.82228">
        <ele>700.5</ele>
        <time>2021-09-19T09:23:58Z</time>
      </trkpt>
      <trkpt lat="43.85887" lon="6.8223">
        <ele>700.4</ele>
        <time>2021-09-19T09:24:00Z</time>
      </trkpt>
      <trkpt lat="43.85888" lon="6.82231">
        <ele>700.4</ele>
        <time>2021-09-19T09:24:01Z</time>
      </trkpt>
      <trkpt lat="43.85888" lon="6.82233">
        <ele>700.4</ele>
        <time>2021-09-19T09:24:02Z</time>
      </trkpt>
      <trkpt lat="43.85812" lon="6.82527">
        <ele>717.2</ele>
        <time>2021-09-19T09:24:49Z</time>
      </trkpt>
      <trkpt lat="43.85819" lon="6.82528">
        <ele>715.2</ele>
        <time>2021-09-19T09:24:50Z</time>
      </trkpt>
      <trkpt lat="43.85822" lon="6.82533">
        <ele>714.2</ele>
        <time>2021-09-19T09:24:52Z</time>
      </trkpt>
      <trkpt lat="43.85831" lon="6.82548">
        <ele>710</ele>
        <time>2021-09-19T09:24:53Z</time>
      </trkpt>
      <trkpt lat="43.85836" lon="6.82556">
        <ele>707.9</ele>
        <time>2021-09-19T09:24:54Z</time>
      </trkpt>
      <trkpt lat="43.85843" lon="6.82569">
        <ele>706.1</ele>
        <time>2021-09-19T09:24:56Z</time>
      </trkpt>
      <trkpt lat="43.85859" lon="6.82598">
        <ele>702.7</ele>
        <time>2021-09-19T09:24:58Z</time>
      </trkpt>
      <trkpt lat="43.85865" lon="6.8261">
        <ele>701.7</ele>
        <time>2021-09-19T09:24:59Z</time>
      </trkpt>
      <trkpt lat="43.8587" lon="6.82621">
        <ele>701</ele>
        <time>2021-09-19T09:25:00Z</time>
      </trkpt>
      <trkpt lat="43.85874" lon="6.82644">
        <ele>701.6</ele>
        <time>2021-09-19T09:25:02Z</time>
      </trkpt>
      <trkpt lat="43.85875" lon="6.82654">
        <ele>702.2</ele>
        <time>2021-09-19T09:25:03Z</time>
      </trkpt>
      <trkpt lat="43.85876" lon="6.82665">
        <ele>702.7</ele>
        <time>2021-09-19T09:25:04Z</time>
      </trkpt>
      <trkpt lat="43.85876" lon="6.82677">
        <ele>703.2</ele>
        <time>2021-09-19T09:25:05Z</time>
      </trkpt>
      <trkpt lat="43.85876" lon="6.82698">
        <ele>704.1</ele>
        <time>2021-09-19T09:25:07Z</time>
      </trkpt>
      <trkpt lat="43.85876" lon="6.82717">
        <ele>705.5</ele>
        <time>2021-09-19T09:25:09Z</time>
      </trkpt>
      <trkpt lat="43.85876" lon="6.82724">
        <ele>706.2</ele>
        <time>2021-09-19T09:25:10Z</time>
      </trkpt>
      <trkpt lat="43.85874" lon="6.8274">
        <ele>707.8</ele>
        <time>2021-09-19T09:25:12Z</time>
      </trkpt>
      <trkpt lat="43.85871" lon="6.82754">
        <ele>709.5</ele>
        <time>2021-09-19T09:25:14Z</time>
      </trkpt>
      <trkpt lat="43.85871" lon="6.82759">
        <ele>709.7</ele>
        <time>2021-09-19T09:25:15Z</time>
      </trkpt>
      <trkpt lat="43.85873" lon="6.82763">
        <ele>709.1</ele>
        <time>2021-09-19T09:25:16Z</time>
      </trkpt>
      <trkpt lat="43.85873" lon="6.82768">
        <ele>709.3</ele>
        <time>2021-09-19T09:25:18Z</time>
      </trkpt>
      <trkpt lat="43.85875" lon="6.82772">
        <ele>708.9</ele>
        <time>2021-09-19T09:25:19Z</time>
      </trkpt>
      <trkpt lat="43.85878" lon="6.82781">
        <ele>707.9</ele>
        <time>2021-09-19T09:25:20Z</time>
      </trkpt>
      <trkpt lat="43.85881" lon="6.82788">
        <ele>707</ele>
        <time>2021-09-19T09:25:21Z</time>
      </trkpt>
      <trkpt lat="43.85884" lon="6.82797">
        <ele>706</ele>
        <time>2021-09-19T09:25:23Z</time>
      </trkpt>
      <trkpt lat="43.85886" lon="6.82802">
        <ele>705.3</ele>
        <time>2021-09-19T09:25:24Z</time>
      </trkpt>
      <trkpt lat="43.85887" lon="6.82808">
        <ele>704.8</ele>
        <time>2021-09-19T09:25:26Z</time>
      </trkpt>
      <trkpt lat="43.85888" lon="6.82813">
        <ele>704.3</ele>
        <time>2021-09-19T09:25:27Z</time>
      </trkpt>
      <trkpt lat="43.8589" lon="6.82817">
        <ele>703.9</ele>
        <time>2021-09-19T09:25:28Z</time>
      </trkpt>
      <trkpt lat="43.85892" lon="6.82821">
        <ele>703.4</ele>
        <time>2021-09-19T09:25:30Z</time>
      </trkpt>
      <trkpt lat="43.85893" lon="6.82823">
        <ele>703.3</ele>
        <time>2021-09-19T09:25:31Z</time>
      </trkpt>
      <trkpt lat="43.86075" lon="6.83102">
        <ele>685.9</ele>
        <time>2021-09-19T09:26:11Z</time>
      </trkpt>
      <trkpt lat="43.86092" lon="6.83155">
        <ele>684.9</ele>
        <time>2021-09-19T09:26:13Z</time>
      </trkpt>
      <trkpt lat="43.86096" lon="6.83175">
        <ele>684</ele>
        <time>2021-09-19T09:26:14Z</time>
      </trkpt>
      <trkpt lat="43.86098" lon="6.83192">
        <ele>683.5</ele>
        <time>2021-09-19T09:26:15Z</time>
      </trkpt>
      <trkpt lat="43.86099" lon="6.83221">
        <ele>683.4</ele>
        <time>2021-09-19T09:26:17Z</time>
      </trkpt>
      <trkpt lat="43.86099" lon="6.83242">
        <ele>683.2</ele>
        <time>2021-09-19T09:26:19Z</time>
      </trkpt>
      <trkpt lat="43.861" lon="6.83249">
        <ele>683.1</ele>
        <time>2021-09-19T09:26:20Z</time>
      </trkpt>
      <trkpt lat="43.86104" lon="6.83264">
        <ele>682.8</ele>
        <time>2021-09-19T09:26:22Z</time>
      </trkpt>
      <trkpt lat="43.86105" lon="6.83278">
        <ele>682.6</ele>
        <time>2021-09-19T09:26:24Z</time>
      </trkpt>
      <trkpt lat="43.86107" lon="6.83285">
        <ele>682.6</ele>
        <time>2021-09-19T09:26:26Z</time>
      </trkpt>
      <trkpt lat="43.86107" lon="6.83304">
        <ele>682.8</ele>
        <time>2021-09-19T09:26:28Z</time>
      </trkpt>
      <trkpt lat="43.86109" lon="6.83316">
        <ele>682.8</ele>
        <time>2021-09-19T09:26:30Z</time>
      </trkpt>
      <trkpt lat="43.8611" lon="6.83325">
        <ele>682.8</ele>
        <time>2021-09-19T09:26:32Z</time>
      </trkpt>
      <trkpt lat="43.86108" lon="6.83335">
        <ele>682.8</ele>
        <time>2021-09-19T09:26:34Z</time>
      </trkpt>
      <trkpt lat="43.86107" lon="6.83339">
        <ele>682.7</ele>
        <time>2021-09-19T09:26:35Z</time>
      </trkpt>
      <trkpt lat="43.86106" lon="6.83345">
        <ele>682.7</ele>
        <time>2021-09-19T09:26:36Z</time>
      </trkpt>
      <trkpt lat="43.86106" lon="6.8335">
        <ele>682.6</ele>
        <time>2021-09-19T09:26:38Z</time>
      </trkpt>
      <trkpt lat="43.86105" lon="6.83355">
        <ele>682.6</ele>
        <time>2021-09-19T09:26:39Z</time>
      </trkpt>
      <trkpt lat="43.86106" lon="6.8336">
        <ele>682.6</ele>
        <time>2021-09-19T09:26:40Z</time>
      </trkpt>
      <trkpt lat="43.86107" lon="6.83361">
        <ele>682.6</ele>
        <time>2021-09-19T09:26:41Z</time>
      </trkpt>
      <trkpt lat="43.86109" lon="6.83359">
        <ele>682.5</ele>
        <time>2021-09-19T09:26:43Z</time>
      </trkpt>
      <trkpt lat="43.86112" lon="6.83356">
        <ele>682.5</ele>
        <time>2021-09-19T09:26:44Z</time>
      </trkpt>
      <trkpt lat="43.86114" lon="6.83355">
        <ele>682.5</ele>
        <time>2021-09-19T09:26:45Z</time>
      </trkpt>
      <trkpt lat="43.86114" lon="6.83355">
        <ele>682.5</ele>
        <time>2021-09-19T09:26:46Z</time>
      </trkpt>
      <trkpt lat="43.86114" lon="6.83354">
        <ele>682.5</ele>
        <time>2021-09-19T09:26:48Z</time>
      </trkpt>
      <trkpt lat="43.86114" lon="6.83354">
        <ele>682.5</ele>
        <time>2021-09-19T09:26:49Z</time>
      </trkpt>
      <trkpt lat="43.86116" lon="6.83353">
        <ele>682.5</ele>
        <time>2021-09-19T09:26:51Z</time>
      </trkpt>
      <trkpt lat="43.86196" lon="6.83596">
        <ele>695.4</ele>
        <time>2021-09-19T09:35:09Z</time>
      </trkpt>
      <trkpt lat="43.862" lon="6.83596">
        <ele>695.7</ele>
        <time>2021-09-19T09:35:10Z</time>
      </trkpt>
      <trkpt lat="43.86207" lon="6.83595">
        <ele>696</ele>
        <time>2021-09-19T09:35:11Z</time>
      </trkpt>
      <trkpt lat="43.86214" lon="6.83595">
        <ele>696.2</ele>
        <time>2021-09-19T09:35:13Z</time>
      </trkpt>
      <trkpt lat="43.86213" lon="6.83599">
        <ele>696.3</ele>
        <time>2021-09-19T09:35:15Z</time>
      </trkpt>
      <trkpt lat="43.86212" lon="6.83601">
        <ele>696.3</ele>
        <time>2021-09-19T09:35:16Z</time>
      </trkpt>
      <trkpt lat="43.86212" lon="6.83603">
        <ele>696.4</ele>
        <time>2021-09-19T09:35:18Z</time>
      </trkpt>
      <trkpt lat="43.86212" lon="6.83604">
        <ele>696.4</ele>
        <time>2021-09-19T09:35:20Z</time>
      </trkpt>
      <trkpt lat="43.86211" lon="6.83605">
        <ele>696.4</ele>
        <time>2021-09-19T09:35:21Z</time>
      </trkpt>
      <trkpt lat="43.86203" lon="6.83611">
        <ele>696.6</ele>
        <time>2021-09-19T09:35:22Z</time>
      </trkpt>
      <trkpt lat="43.86193" lon="6.83619">
        <ele>696.6</ele>
        <time>2021-09-19T09:35:24Z</time>
      </trkpt>
      <trkpt lat="43.86187" lon="6.83624">
        <ele>696.5</ele>
        <time>2021-09-19T09:35:26Z</time>
      </trkpt>
      <trkpt lat="43.86185" lon="6.83626">
        <ele>696.4</ele>
        <time>2021-09-19T09:35:27Z</time>
      </trkpt>
      <trkpt lat="43.86183" lon="6.83629">
        <ele>696.2</ele>
        <time>2021-09-19T09:35:28Z</time>
      </trkpt>
      <trkpt lat="43.86182" lon="6.8363">
        <ele>696.2</ele>
        <time>2021-09-19T09:35:30Z</time>
      </trkpt>
      <trkpt lat="43.86179" lon="6.83631">
        <ele>696</ele>
        <time>2021-09-19T09:35:32Z</time>
      </trkpt>
      <trkpt lat="43.86176" lon="6.83632">
        <ele>695.8</ele>
        <time>2021-09-19T09:35:33Z</time>
      </trkpt>
      <trkpt lat="43.86174" lon="6.83632">
        <ele>695.7</ele>
        <time>2021-09-19T09:35:35Z</time>
      </trkpt>
      <trkpt lat="43.86175" lon="6.83634">
        <ele>695.6</ele>
        <time>2021-09-19T09:35:36Z</time>
      </trkpt>
      <trkpt lat="43.86176" lon="6.83634">
        <ele>695.6</ele>
        <time>2021-09-19T09:35:37Z</time>
      </trkpt>
      <trkpt lat="43.86178" lon="6.83636">
        <ele>695.5</ele>
        <time>2021-09-19T09:35:38Z</time>
      </trkpt>
      <trkpt lat="43.8618" lon="6.83641">
        <ele>695.4</ele>
        <time>2021-09-19T09:35:39Z</time>
      </trkpt>
      <trkpt lat="43.86181" lon="6.83643">
        <ele>695.3</ele>
        <time>2021-09-19T09:35:41Z</time>
      </trkpt>
      <trkpt lat="43.86183" lon="6.83644">
        <ele>695.3</ele>
        <time>2021-09-19T09:35:43Z</time>
      </trkpt>
      <trkpt lat="43.86184" lon="6.83645">
        <ele>695.3</ele>
        <time>2021-09-19T09:35:44Z</time>
      </trkpt>
      <trkpt lat="43.86185" lon="6.83646">
        <ele>695.3</ele>
        <time>2021-09-19T09:35:45Z</time>
      </trkpt>
      <trkpt lat="43.86187" lon="6.83647">
        <ele>695.3</ele>
        <time>2021-09-19T09:35:46Z</time>
      </trkpt>
      <trkpt lat="43.86188" lon="6.83652">
        <ele>695.4</ele>
        <time>2021-09-19T09:35:48Z</time>
      </trkpt>
      <trkpt lat="43.86188" lon="6.83657">
        <ele>695.5</ele>
        <time>2021-09-19T09:35:49Z</time>
      </trkpt>
      <trkpt lat="43.86188" lon="6.8366">
        <ele>695.6</ele>
        <time>2021-09-19T09:35:50Z</time>
      </trkpt>
      <trkpt lat="43.86188" lon="6.83661">
        <ele>695.6</ele>
        <time>2021-09-19T09:35:52Z</time>
      </trkpt>
      <trkpt lat="43.86188" lon="6.83663">
        <ele>695.6</ele>
        <time>2021-09-19T09:35:53Z</time>
      </trkpt>
      <trkpt lat="43.86183" lon="6.83683">
        <ele>695.5</ele>
        <time>2021-09-19T09:35:55Z</time>
      </trkpt>
      <trkpt lat="43.86181" lon="6.83688">
        <ele>695.2</ele>
        <time>2021-09-19T09:35:56Z</time>
      </trkpt>
      <trkpt lat="43.86179" lon="6.83688">
        <ele>695</ele>
        <time>2021-09-19T09:35:58Z</time>
      </trkpt>
      <trkpt lat="43.86177" lon="6.83686">
        <ele>694.8</ele>
        <time>2021-09-19T09:36:00Z</time>
      </trkpt>
      <trkpt lat="43.86175" lon="6.83685">
        <ele>694.6</ele>
        <time>2021-09-19T09:36:01Z</time>
      </trkpt>
      <trkpt lat="43.86174" lon="6.83685">
        <ele>694.5</ele>
        <time>2021-09-19T09:36:02Z</time>
      </trkpt>
      <trkpt lat="43.86172" lon="6.83684">
        <ele>694.2</ele>
        <time>2021-09-19T09:36:04Z</time>
      </trkpt>
      <trkpt lat="43.86171" lon="6.83684">
        <ele>694</ele>
        <time>2021-09-19T09:36:05Z</time>
      </trkpt>
      <trkpt lat="43.86167" lon="6.83686">
        <ele>693.5</ele>
        <time>2021-09-19T09:36:08Z</time>
      </trkpt>
      <trkpt lat="43.86166" lon="6.83686">
        <ele>693.2</ele>
        <time>2021-09-19T09:36:09Z</time>
      </trkpt>
      <trkpt lat="43.8616" lon="6.83687">
        <ele>692.1</ele>
        <time>2021-09-19T09:36:11Z</time>
      </trkpt>
      <trkpt lat="43.86159" lon="6.83688">
        <ele>691.9</ele>
        <time>2021-09-19T09:36:12Z</time>
      </trkpt>
      <trkpt lat="43.86158" lon="6.83688">
        <ele>691.8</ele>
        <time>2021-09-19T09:36:13Z</time>
      </trkpt>
      <trkpt lat="43.86158" lon="6.83689">
        <ele>691.7</ele>
        <time>2021-09-19T09:36:14Z</time>
      </trkpt>
      <trkpt lat="43.86158" lon="6.83689">
        <ele>691.7</ele>
        <time>2021-09-19T09:36:16Z</time>
      </trkpt>
      <trkpt lat="43.86157" lon="6.83689">
        <ele>691.6</ele>
        <time>2021-09-19T09:36:17Z</time>
      </trkpt>
      <trkpt lat="43.86157" lon="6.8369">
        <ele>691.5</ele>
        <time>2021-09-19T09:36:20Z</time>
      </trkpt>
      <trkpt lat="43.86157" lon="6.83692">
        <ele>691.3</ele>
        <time>2021-09-19T09:36:21Z</time>
      </trkpt>
      <trkpt lat="43.86159" lon="6.83695">
        <ele>690.6</ele>
        <time>2021-09-19T09:36:23Z</time>
      </trkpt>
      <trkpt lat="43.86163" lon="6.83698">
        <ele>689.8</ele>
        <time>2021-09-19T09:36:24Z</time>
      </trkpt>
      <trkpt lat="43.86164" lon="6.837">
        <ele>689.4</ele>
        <time>2021-09-19T09:36:26Z</time>
      </trkpt>
      <trkpt lat="43.86165" lon="6.83701">
        <ele>689.2</ele>
        <time>2021-09-19T09:36:27Z</time>
      </trkpt>
      <trkpt lat="43.86166" lon="6.83701">
        <ele>689</ele>
        <time>2021-09-19T09:36:28Z</time>
      </trkpt>
      <trkpt lat="43.86167" lon="6.83703">
        <ele>688.6</ele>
        <time>2021-09-19T09:36:30Z</time>
      </trkpt>
      <trkpt lat="43.86168" lon="6.83703">
        <ele>688.4</ele>
        <time>2021-09-19T09:36:31Z</time>
      </trkpt>
      <trkpt lat="43.8617" lon="6.83704">
        <ele>687.9</ele>
        <time>2021-09-19T09:36:33Z</time>
      </trkpt>
      <trkpt lat="43.86171" lon="6.83705">
        <ele>687.7</ele>
        <time>2021-09-19T09:36:34Z</time>
      </trkpt>
      <trkpt lat="43.86172" lon="6.83705">
        <ele>687.5</ele>
        <time>2021-09-19T09:36:35Z</time>
      </trkpt>
      <trkpt lat="43.86173" lon="6.83706">
        <ele>687.2</ele>
        <time>2021-09-19T09:36:37Z</time>
      </trkpt>
      <trkpt lat="43.86174" lon="6.83708">
        <ele>686.8</ele>
        <time>2021-09-19T09:36:38Z</time>
      </trkpt>
      <trkpt lat="43.86175" lon="6.8371">
        <ele>686.4</ele>
        <time>2021-09-19T09:36:40Z</time>
      </trkpt>
      <trkpt lat="43.86175" lon="6.83712">
        <ele>686.1</ele>
        <time>2021-09-19T09:36:41Z</time>
      </trkpt>
      <trkpt lat="43.86175" lon="6.83713">
        <ele>685.9</ele>
        <time>2021-09-19T09:36:42Z</time>
      </trkpt>
      <trkpt lat="43.86176" lon="6.83715">
        <ele>685.6</ele>
        <time>2021-09-19T09:36:44Z</time>
      </trkpt>
      <trkpt lat="43.86176" lon="6.83716">
        <ele>685.5</ele>
        <time>2021-09-19T09:36:45Z</time>
      </trkpt>
      <trkpt lat="43.86176" lon="6.83718">
        <ele>685.2</ele>
        <time>2021-09-19T09:36:46Z</time>
      </trkpt>
      <trkpt lat="43.86176" lon="6.83723">
        <ele>684.5</ele>
        <time>2021-09-19T09:36:48Z</time>
      </trkpt>
      <trkpt lat="43.86175" lon="6.83729">
        <ele>683.5</ele>
        <time>2021-09-19T09:36:50Z</time>
      </trkpt>
      <trkpt lat="43.86174" lon="6.83732">
        <ele>683.2</ele>
        <time>2021-09-19T09:36:51Z</time>
      </trkpt>
      <trkpt lat="43.86174" lon="6.83734">
        <ele>683</ele>
        <time>2021-09-19T09:36:52Z</time>
      </trkpt>
      <trkpt lat="43.86175" lon="6.83738">
        <ele>682.4</ele>
        <time>2021-09-19T09:36:53Z</time>
      </trkpt>
      <trkpt lat="43.86175" lon="6.8374">
        <ele>682.3</ele>
        <time>2021-09-19T09:36:54Z</time>
      </trkpt>
      <trkpt lat="43.86176" lon="6.8374">
        <ele>682.2</ele>
        <time>2021-09-19T09:36:56Z</time>
      </trkpt>
      <trkpt lat="43.86177" lon="6.8374">
        <ele>682.1</ele>
        <time>2021-09-19T09:36:57Z</time>
      </trkpt>
      <trkpt lat="43.86178" lon="6.8374">
        <ele>681.9</ele>
        <time>2021-09-19T09:36:58Z</time>
      </trkpt>
      <trkpt lat="43.86178" lon="6.8374">
        <ele>681.9</ele>
        <time>2021-09-19T09:36:59Z</time>
      </trkpt>
      <trkpt lat="43.86179" lon="6.83739">
        <ele>681.7</ele>
        <time>2021-09-19T09:37:00Z</time>
      </trkpt>
      <trkpt lat="43.86179" lon="6.83739">
        <ele>681.7</ele>
        <time>2021-09-19T09:37:02Z</time>
      </trkpt>
      <trkpt lat="43.8618" lon="6.83739">
        <ele>681.6</ele>
        <time>2021-09-19T09:37:03Z</time>
      </trkpt>
      <trkpt lat="43.86181" lon="6.83739">
        <ele>681.5</ele>
        <time>2021-09-19T09:37:04Z</time>
      </trkpt>
      <trkpt lat="43.86181" lon="6.83739">
        <ele>681.4</ele>
        <time>2021-09-19T09:37:06Z</time>
      </trkpt>
      <trkpt lat="43.86182" lon="6.8374">
        <ele>681.4</ele>
        <time>2021-09-19T09:37:07Z</time>
      </trkpt>
      <trkpt lat="43.86198" lon="6.83748">
        <ele>680.3</ele>
        <time>2021-09-19T09:37:16Z</time>
      </trkpt>
      <trkpt lat="43.862" lon="6.83748">
        <ele>680.3</ele>
        <time>2021-09-19T09:37:17Z</time>
      </trkpt>
      <trkpt lat="43.86202" lon="6.83749">
        <ele>680.3</ele>
        <time>2021-09-19T09:37:19Z</time>
      </trkpt>
      <trkpt lat="43.86203" lon="6.83751">
        <ele>680.4</ele>
        <time>2021-09-19T09:37:21Z</time>
      </trkpt>
      <trkpt lat="43.86204" lon="6.83752">
        <ele>680.4</ele>
        <time>2021-09-19T09:37:22Z</time>
      </trkpt>
      <trkpt lat="43.86204" lon="6.83752">
        <ele>680.5</ele>
        <time>2021-09-19T09:37:23Z</time>
      </trkpt>
      <trkpt lat="43.86204" lon="6.83753">
        <ele>680.5</ele>
        <time>2021-09-19T09:37:25Z</time>
      </trkpt>
      <trkpt lat="43.86204" lon="6.83754">
        <ele>680.6</ele>
        <time>2021-09-19T09:37:26Z</time>
      </trkpt>
      <trkpt lat="43.86204" lon="6.83754">
        <ele>680.6</ele>
        <time>2021-09-19T09:37:27Z</time>
      </trkpt>
      <trkpt lat="43.86204" lon="6.83755">
        <ele>680.6</ele>
        <time>2021-09-19T09:37:30Z</time>
      </trkpt>
      <trkpt lat="43.86203" lon="6.83755">
        <ele>680.6</ele>
        <time>2021-09-19T09:37:32Z</time>
      </trkpt>
      <trkpt lat="43.86203" lon="6.83756">
        <ele>680.7</ele>
        <time>2021-09-19T09:37:34Z</time>
      </trkpt>
      <trkpt lat="43.86202" lon="6.83757">
        <ele>680.7</ele>
        <time>2021-09-19T09:37:36Z</time>
      </trkpt>
      <trkpt lat="43.862" lon="6.83757">
        <ele>680.9</ele>
        <time>2021-09-19T09:37:38Z</time>
      </trkpt>
      <trkpt lat="43.86197" lon="6.83757">
        <ele>681.3</ele>
        <time>2021-09-19T09:37:40Z</time>
      </trkpt>
      <trkpt lat="43.86196" lon="6.83757">
        <ele>681.5</ele>
        <time>2021-09-19T09:37:41Z</time>
      </trkpt>
      <trkpt lat="43.86194" lon="6.83757">
        <ele>681.9</ele>
        <time>2021-09-19T09:37:42Z</time>
      </trkpt>
      <trkpt lat="43.86191" lon="6.83757">
        <ele>682.4</ele>
        <time>2021-09-19T09:37:44Z</time>
      </trkpt>
      <trkpt lat="43.86188" lon="6.83756">
        <ele>683</ele>
        <time>2021-09-19T09:37:46Z</time>
      </trkpt>
      <trkpt lat="43.86186" lon="6.83756">
        <ele>683.5</ele>
        <time>2021-09-19T09:37:47Z</time>
      </trkpt>
      <trkpt lat="43.86184" lon="6.83756">
        <ele>684.1</ele>
        <time>2021-09-19T09:37:49Z</time>
      </trkpt>
      <trkpt lat="43.86182" lon="6.83756">
        <ele>684.5</ele>
        <time>2021-09-19T09:37:51Z</time>
      </trkpt>
      <trkpt lat="43.86182" lon="6.83755">
        <ele>684.7</ele>
        <time>2021-09-19T09:37:52Z</time>
      </trkpt>
      <trkpt lat="43.86183" lon="6.83754">
        <ele>684.9</ele>
        <time>2021-09-19T09:37:54Z</time>
      </trkpt>
      <trkpt lat="43.86184" lon="6.83754">
        <ele>685.1</ele>
        <time>2021-09-19T09:37:55Z</time>
      </trkpt>
      <trkpt lat="43.86185" lon="6.83753">
        <ele>685.5</ele>
        <time>2021-09-19T09:37:57Z</time>
      </trkpt>
      <trkpt lat="43.86186" lon="6.83753">
        <ele>685.9</ele>
        <time>2021-09-19T09:37:58Z</time>
      </trkpt>
      <trkpt lat="43.86187" lon="6.83755">
        <ele>686.4</ele>
        <time>2021-09-19T09:37:59Z</time>
      </trkpt>
      <trkpt lat="43.86188" lon="6.83756">
        <ele>686.7</ele>
        <time>2021-09-19T09:38:00Z</time>
      </trkpt>
      <trkpt lat="43.86189" lon="6.83757">
        <ele>687</ele>
        <time>2021-09-19T09:38:01Z</time>
      </trkpt>
      <trkpt lat="43.86191" lon="6.83763">
        <ele>688.3</ele>
        <time>2021-09-19T09:38:02Z</time>
      </trkpt>
      <trkpt lat="43.86195" lon="6.83767">
        <ele>689.5</ele>
        <time>2021-09-19T09:38:04Z</time>
      </trkpt>
      <trkpt lat="43.862" lon="6.83776">
        <ele>691.3</ele>
        <time>2021-09-19T09:38:05Z</time>
      </trkpt>
      <trkpt lat="43.86203" lon="6.83779">
        <ele>691.9</ele>
        <time>2021-09-19T09:38:06Z</time>
      </trkpt>
      <trkpt lat="43.86209" lon="6.83788">
        <ele>692.7</ele>
        <time>2021-09-19T09:38:08Z</time>
      </trkpt>
      <trkpt lat="43.86216" lon="6.83795">
        <ele>693</ele>
        <time>2021-09-19T09:38:10Z</time>
      </trkpt>
      <trkpt lat="43.86218" lon="6.83798">
        <ele>693</ele>
        <time>2021-09-19T09:38:11Z</time>
      </trkpt>
      <trkpt lat="43.8622" lon="6.83799">
        <ele>692.9</ele>
        <time>2021-09-19T09:38:12Z</time>
      </trkpt>
      <trkpt lat="43.86225" lon="6.83803">
        <ele>692.7</ele>
        <time>2021-09-19T09:38:14Z</time>
      </trkpt>
      <trkpt lat="43.8623" lon="6.83806">
        <ele>692.2</ele>
        <time>2021-09-19T09:38:15Z</time>
      </trkpt>
      <trkpt lat="43.86238" lon="6.83814">
        <ele>690.9</ele>
        <time>2021-09-19T09:38:16Z</time>
      </trkpt>
      <trkpt lat="43.86244" lon="6.83822">
        <ele>689</ele>
        <time>2021-09-19T09:38:17Z</time>
      </trkpt>
      <trkpt lat="43.86251" lon="6.8383">
        <ele>686.7</ele>
        <time>2021-09-19T09:38:19Z</time>
      </trkpt>
      <trkpt lat="43.86257" lon="6.83838">
        <ele>684.4</ele>
        <time>2021-09-19T09:38:21Z</time>
      </trkpt>
      <trkpt lat="43.86263" lon="6.83845">
        <ele>682.4</ele>
        <time>2021-09-19T09:38:22Z</time>
      </trkpt>
      <trkpt lat="43.8627" lon="6.83853">
        <ele>680.9</ele>
        <time>2021-09-19T09:38:23Z</time>
      </trkpt>
      <trkpt lat="43.86276" lon="6.83861">
        <ele>679.8</ele>
        <time>2021-09-19T09:38:25Z</time>
      </trkpt>
      <trkpt lat="43.86282" lon="6.83869">
        <ele>679.1</ele>
        <time>2021-09-19T09:47:46Z</time>
      </trkpt>
      <trkpt lat="43.86288" lon="6.83876">
        <ele>678.7</ele>
        <time>2021-09-19T09:47:47Z</time>
      </trkpt>
      <trkpt lat="43.86292" lon="6.8388">
        <ele>678.5</ele>
        <time>2021-09-19T09:47:49Z</time>
      </trkpt>
      <trkpt lat="43.86294" lon="6.83883">
        <ele>678.4</ele>
        <time>2021-09-19T09:47:50Z</time>
      </trkpt>
      <trkpt lat="43.86294" lon="6.83887">
        <ele>678.3</ele>
        <time>2021-09-19T09:47:51Z</time>
      </trkpt>
      <trkpt lat="43.86294" lon="6.83888">
        <ele>678.3</ele>
        <time>2021-09-19T09:47:52Z</time>
      </trkpt>
      <trkpt lat="43.86294" lon="6.83892">
        <ele>678.2</ele>
        <time>2021-09-19T09:47:53Z</time>
      </trkpt>
      <trkpt lat="43.86294" lon="6.83894">
        <ele>678.2</ele>
        <time>2021-09-19T09:47:54Z</time>
      </trkpt>
      <trkpt lat="43.86295" lon="6.83898">
        <ele>678.1</ele>
        <time>2021-09-19T09:47:56Z</time>
      </trkpt>
      <trkpt lat="43.86296" lon="6.83899">
        <ele>678.1</ele>
        <time>2021-09-19T09:47:57Z</time>
      </trkpt>
      <trkpt lat="43.86297" lon="6.83897">
        <ele>678.1</ele>
        <time>2021-09-19T09:47:59Z</time>
      </trkpt>
      <trkpt lat="43.86297" lon="6.83896">
        <ele>678.1</ele>
        <time>2021-09-19T09:48:00Z</time>
      </trkpt>
      <trkpt lat="43.86298" lon="6.83896">
        <ele>678.1</ele>
        <time>2021-09-19T09:48:01Z</time>
      </trkpt>
      <trkpt lat="43.86299" lon="6.83896">
        <ele>678</ele>
        <time>2021-09-19T09:48:03Z</time>
      </trkpt>
      <trkpt lat="43.863" lon="6.83896">
        <ele>678</ele>
        <time>2021-09-19T09:48:04Z</time>
      </trkpt>
      <trkpt lat="43.86301" lon="6.83896">
        <ele>678</ele>
        <time>2021-09-19T09:48:05Z</time>
      </trkpt>
      <trkpt lat="43.86302" lon="6.83897">
        <ele>678</ele>
        <time>2021-09-19T09:48:06Z</time>
      </trkpt>
      <trkpt lat="43.86303" lon="6.83899">
        <ele>678</ele>
        <time>2021-09-19T09:48:07Z</time>
      </trkpt>
      <trkpt lat="43.86288" lon="6.83962">
        <ele>680.5</ele>
        <time>2021-09-19T09:49:20Z</time>
      </trkpt>
      <trkpt lat="43.86288" lon="6.83967">
        <ele>680.7</ele>
        <time>2021-09-19T09:49:21Z</time>
      </trkpt>
      <trkpt lat="43.86288" lon="6.83978">
        <ele>681</ele>
        <time>2021-09-19T09:49:23Z</time>
      </trkpt>
      <trkpt lat="43.86289" lon="6.83986">
        <ele>681.1</ele>
        <time>2021-09-19T09:49:24Z</time>
      </trkpt>
      <trkpt lat="43.86289" lon="6.83993">
        <ele>681.1</ele>
        <time>2021-09-19T09:49:25Z</time>
      </trkpt>
      <trkpt lat="43.86289" lon="6.83999">
        <ele>681.1</ele>
        <time>2021-09-19T09:49:26Z</time>
      </trkpt>
      <trkpt lat="43.86289" lon="6.84003">
        <ele>681.1</ele>
        <time>2021-09-19T09:49:27Z</time>
      </trkpt>
      <trkpt lat="43.8629" lon="6.84011">
        <ele>681</ele>
        <time>2021-09-19T09:49:29Z</time>
      </trkpt>
      <trkpt lat="43.86293" lon="6.84014">
        <ele>680.9</ele>
        <time>2021-09-19T09:49:31Z</time>
      </trkpt>
      <trkpt lat="43.86294" lon="6.84015">
        <ele>680.9</ele>
        <time>2021-09-19T09:49:32Z</time>
      </trkpt>
      <trkpt lat="43.86296" lon="6.84018">
        <ele>680.8</ele>
        <time>2021-09-19T09:49:33Z</time>
      </trkpt>
      <trkpt lat="43.86297" lon="6.84019">
        <ele>680.8</ele>
        <time>2021-09-19T09:49:34Z</time>
      </trkpt>
      <trkpt lat="43.86299" lon="6.8402">
        <ele>680.8</ele>
        <time>2021-09-19T09:49:36Z</time>
      </trkpt>
      <trkpt lat="43.86299" lon="6.8402">
        <ele>680.8</ele>
        <time>2021-09-19T09:49:37Z</time>
      </trkpt>
      <trkpt lat="43.863" lon="6.8402">
        <ele>680.8</ele>
        <time>2021-09-19T09:49:38Z</time>
      </trkpt>
      <trkpt lat="43.86301" lon="6.8402">
        <ele>680.8</ele>
        <time>2021-09-19T09:49:40Z</time>
      </trkpt>
      <trkpt lat="43.86302" lon="6.8402">
        <ele>680.8</ele>
        <time>2021-09-19T09:49:42Z</time>
      </trkpt>
      <trkpt lat="43.86302" lon="6.8402">
        <ele>680.8</ele>
        <time>2021-09-19T09:49:43Z</time>
      </trkpt>
      <trkpt lat="43.86302" lon="6.8402">
        <ele>680.8</ele>
        <time>2021-09-19T09:49:44Z</time>
      </trkpt>
      <trkpt lat="43.86313" lon="6.84039">
        <ele>680.7</ele>
        <time>2021-09-19T09:50:00Z</time>
      </trkpt>
      <trkpt lat="43.86314" lon="6.84043">
        <ele>680.7</ele>
        <time>2021-09-19T09:50:01Z</time>
      </trkpt>
      <trkpt lat="43.86314" lon="6.84047">
        <ele>680.7</ele>
        <time>2021-09-19T09:50:03Z</time>
      </trkpt>
      <trkpt lat="43.86315" lon="6.84052">
        <ele>680.6</ele>
        <time>2021-09-19T09:50:04Z</time>
      </trkpt>
      <trkpt lat="43.86315" lon="6.84053">
        <ele>680.6</ele>
        <time>2021-09-19T09:50:05Z</time>
      </trkpt>
      <trkpt lat="43.86315" lon="6.84054">
        <ele>680.6</ele>
        <time>2021-09-19T09:50:07Z</time>
      </trkpt>
      <trkpt lat="43.86315" lon="6.84055">
        <ele>680.6</ele>
        <time>2021-09-19T09:50:08Z</time>
      </trkpt>
      <trkpt lat="43.86314" lon="6.84056">
        <ele>680.6</ele>
        <time>2021-09-19T09:50:09Z</time>
      </trkpt>
      <trkpt lat="43.86313" lon="6.84058">
        <ele>680.6</ele>
        <time>2021-09-19T09:50:10Z</time>
      </trkpt>
      <trkpt lat="43.86312" lon="6.84059">
        <ele>680.6</ele>
        <time>2021-09-19T09:50:12Z</time>
      </trkpt>
      <trkpt lat="43.86311" lon="6.84061">
        <ele>680.6</ele>
        <time>2021-09-19T09:50:13Z</time>
      </trkpt>
      <trkpt lat="43.86346" lon="6.84123">
        <ele>681.7</ele>
        <time>2021-09-19T09:50:57Z</time>
      </trkpt>
      <trkpt lat="43.86351" lon="6.84124">
        <ele>681.9</ele>
        <time>2021-09-19T09:50:59Z</time>
      </trkpt>
      <trkpt lat="43.86353" lon="6.84125">
        <ele>682</ele>
        <time>2021-09-19T09:51:00Z</time>
      </trkpt>
      <trkpt lat="43.86358" lon="6.84131">
        <ele>682.3</ele>
        <time>2021-09-19T09:51:02Z</time>
      </trkpt>
      <trkpt lat="43.8636" lon="6.8414">
        <ele>682.7</ele>
        <time>2021-09-19T09:51:03Z</time>
      </trkpt>
      <trkpt lat="43.86361" lon="6.84147">
        <ele>682.9</ele>
        <time>2021-09-19T09:51:05Z</time>
      </trkpt>
      <trkpt lat="43.86363" lon="6.84155">
        <ele>683.2</ele>
        <time>2021-09-19T09:51:07Z</time>
      </trkpt>
      <trkpt lat="43.86364" lon="6.84162">
        <ele>683.4</ele>
        <time>2021-09-19T09:51:08Z</time>
      </trkpt>
      <trkpt lat="43.86365" lon="6.84169">
        <ele>683.6</ele>
        <time>2021-09-19T09:51:09Z</time>
      </trkpt>
      <trkpt lat="43.86366" lon="6.84176">
        <ele>683.8</ele>
        <time>2021-09-19T09:51:32Z</time>
      </trkpt>
      <trkpt lat="43.86367" lon="6.84184">
        <ele>684</ele>
        <time>2021-09-19T09:51:33Z</time>
      </trkpt>
      <trkpt lat="43.86369" lon="6.84193">
        <ele>684</ele>
        <time>2021-09-19T09:51:35Z</time>
      </trkpt>
      <trkpt lat="43.86369" lon="6.84178">
        <ele>683.7</ele>
        <time>2021-09-19T09:51:36Z</time>
      </trkpt>
      <trkpt lat="43.8637" lon="6.84175">
        <ele>683.6</ele>
        <time>2021-09-19T09:51:38Z</time>
      </trkpt>
      <trkpt lat="43.8637" lon="6.84173">
        <ele>683.5</ele>
        <time>2021-09-19T09:51:39Z</time>
      </trkpt>
      <trkpt lat="43.8637" lon="6.84176">
        <ele>683.4</ele>
        <time>2021-09-19T09:51:41Z</time>
      </trkpt>
      <trkpt lat="43.8637" lon="6.84178">
        <ele>683.4</ele>
        <time>2021-09-19T09:51:42Z</time>
      </trkpt>
      <trkpt lat="43.86373" lon="6.84192">
        <ele>682.9</ele>
        <time>2021-09-19T09:51:43Z</time>
      </trkpt>
      <trkpt lat="43.86374" lon="6.84198">
        <ele>683</ele>
        <time>2021-09-19T09:51:45Z</time>
      </trkpt>
      <trkpt lat="43.86383" lon="6.84322">
        <ele>690.4</ele>
        <time>2021-09-19T09:52:54Z</time>
      </trkpt>
      <trkpt lat="43.86382" lon="6.84333">
        <ele>691.5</ele>
        <time>2021-09-19T09:52:55Z</time>
      </trkpt>
      <trkpt lat="43.86382" lon="6.84381">
        <ele>696.8</ele>
        <time>2021-09-19T09:52:57Z</time>
      </trkpt>
      <trkpt lat="43.86381" lon="6.84409">
        <ele>699.9</ele>
        <time>2021-09-19T09:52:58Z</time>
      </trkpt>
      <trkpt lat="43.86376" lon="6.84467">
        <ele>709.9</ele>
        <time>2021-09-19T09:53:00Z</time>
      </trkpt>
      <trkpt lat="43.86368" lon="6.84513">
        <ele>718.4</ele>
        <time>2021-09-19T09:53:02Z</time>
      </trkpt>
      <trkpt lat="43.86364" lon="6.84535">
        <ele>722.2</ele>
        <time>2021-09-19T09:53:03Z</time>
      </trkpt>
      <trkpt lat="43.8636" lon="6.84554">
        <ele>724.5</ele>
        <time>2021-09-19T09:53:04Z</time>
      </trkpt>
      <trkpt lat="43.86356" lon="6.84572">
        <ele>726.3</ele>
        <time>2021-09-19T09:53:05Z</time>
      </trkpt>
      <trkpt lat="43.86353" lon="6.84587">
        <ele>727.6</ele>
        <time>2021-09-19T09:53:06Z</time>
      </trkpt>
      <trkpt lat="43.86351" lon="6.84599">
        <ele>728.5</ele>
        <time>2021-09-19T09:53:07Z</time>
      </trkpt>
      <trkpt lat="43.86352" lon="6.84608">
        <ele>728.2</ele>
        <time>2021-09-19T09:53:08Z</time>
      </trkpt>
      <trkpt lat="43.86356" lon="6.84605">
        <ele>726</ele>
        <time>2021-09-19T09:53:12Z</time>
      </trkpt>
      <trkpt lat="43.86356" lon="6.84605">
        <ele>725.8</ele>
        <time>2021-09-19T09:53:14Z</time>
      </trkpt>
      <trkpt lat="43.86356" lon="6.84605">
        <ele>725.7</ele>
        <time>2021-09-19T09:53:16Z</time>
      </trkpt>
      <trkpt lat="43.86357" lon="6.84606">
        <ele>725.5</ele>
        <time>2021-09-19T09:53:18Z</time>
      </trkpt>
      <trkpt lat="43.8638" lon="6.84633">
        <ele>716.9</ele>
        <time>2021-09-19T09:53:23Z</time>
      </trkpt>
      <trkpt lat="43.86447" lon="6.84477">
        <ele>690.4</ele>
        <time>2021-09-19T09:53:35Z</time>
      </trkpt>
      <trkpt lat="43.86447" lon="6.84443">
        <ele>686.9</ele>
        <time>2021-09-19T09:53:37Z</time>
      </trkpt>
      <trkpt lat="43.86447" lon="6.84423">
        <ele>685.1</ele>
        <time>2021-09-19T09:53:38Z</time>
      </trkpt>
      <trkpt lat="43.86447" lon="6.84409">
        <ele>683.1</ele>
        <time>2021-09-19T09:53:39Z</time>
      </trkpt>
      <trkpt lat="43.86447" lon="6.84393">
        <ele>681.8</ele>
        <time>2021-09-19T09:53:40Z</time>
      </trkpt>
      <trkpt lat="43.86447" lon="6.84386">
        <ele>680.9</ele>
        <time>2021-09-19T09:53:41Z</time>
      </trkpt>
      <trkpt lat="43.86448" lon="6.84383">
        <ele>680.4</ele>
        <time>2021-09-19T09:53:43Z</time>
      </trkpt>
      <trkpt lat="43.86449" lon="6.84377">
        <ele>679.4</ele>
        <time>2021-09-19T09:53:45Z</time>
      </trkpt>
      <trkpt lat="43.86561" lon="6.84649">
        <ele>706.9</ele>
        <time>2021-09-19T10:14:11Z</time>
      </trkpt>
      <trkpt lat="43.86562" lon="6.84644">
        <ele>707.6</ele>
        <time>2021-09-19T10:14:17Z</time>
      </trkpt>
      <trkpt lat="43.86563" lon="6.84639">
        <ele>708.2</ele>
        <time>2021-09-19T10:14:23Z</time>
      </trkpt>
      <trkpt lat="43.86563" lon="6.84637">
        <ele>708.5</ele>
        <time>2021-09-19T10:14:29Z</time>
      </trkpt>
      <trkpt lat="43.86487" lon="6.84693">
        <ele>721.5</ele>
        <time>2021-09-19T10:21:58Z</time>
      </trkpt>
      <trkpt lat="43.86479" lon="6.84712">
        <ele>723</ele>
        <time>2021-09-19T10:22:00Z</time>
      </trkpt>
      <trkpt lat="43.86476" lon="6.84724">
        <ele>723.6</ele>
        <time>2021-09-19T10:22:01Z</time>
      </trkpt>
      <trkpt lat="43.86471" lon="6.84742">
        <ele>724.2</ele>
        <time>2021-09-19T10:22:03Z</time>
      </trkpt>
      <trkpt lat="43.86469" lon="6.84749">
        <ele>724.3</ele>
        <time>2021-09-19T10:22:04Z</time>
      </trkpt>
      <trkpt lat="43.86467" lon="6.84756">
        <ele>724.4</ele>
        <time>2021-09-19T10:22:06Z</time>
      </trkpt>
      <trkpt lat="43.86464" lon="6.84762">
        <ele>724.5</ele>
        <time>2021-09-19T10:22:08Z</time>
      </trkpt>
      <trkpt lat="43.86464" lon="6.84762">
        <ele>724.5</ele>
        <time>2021-09-19T10:22:09Z</time>
      </trkpt>
      <trkpt lat="43.86464" lon="6.84762">
        <ele>724.5</ele>
        <time>2021-09-19T10:22:11Z</time>
      </trkpt>
      <trkpt lat="43.86458" lon="6.84781">
        <ele>725.2</ele>
        <time>2021-09-19T10:22:14Z</time>
      </trkpt>
      <trkpt lat="43.86534" lon="6.84638">
        <ele>707.4</ele>
        <time>2021-09-19T10:29:04Z</time>
      </trkpt>
      <trkpt lat="43.86542" lon="6.84631">
        <ele>707.2</ele>
        <time>2021-09-19T10:29:06Z</time>
      </trkpt>
      <trkpt lat="43.86545" lon="6.84626">
        <ele>707.1</ele>
        <time>2021-09-19T10:29:07Z</time>
      </trkpt>
      <trkpt lat="43.86547" lon="6.84624">
        <ele>707</ele>
        <time>2021-09-19T10:29:08Z</time>
      </trkpt>
      <trkpt lat="43.86548" lon="6.84622">
        <ele>707</ele>
        <time>2021-09-19T10:29:10Z</time>
      </trkpt>
      <trkpt lat="43.86548" lon="6.84622">
        <ele>707</ele>
        <time>2021-09-19T10:29:12Z</time>
      </trkpt>
      <trkpt lat="43.86548" lon="6.84622">
        <ele>707</ele>
        <time>2021-09-19T10:29:13Z</time>
      </trkpt>
      <trkpt lat="43.86549" lon="6.84622">
        <ele>707</ele>
        <time>2021-09-19T10:29:15Z</time>
      </trkpt>
      <trkpt lat="43.86549" lon="6.84622">
        <ele>707</ele>
        <time>2021-09-19T10:29:17Z</time>
      </trkpt>
      <trkpt lat="43.8652" lon="6.84611">
        <ele>706.4</ele>
        <time>2021-09-19T10:31:11Z</time>
      </trkpt>
      <trkpt lat="43.86522" lon="6.84608">
        <ele>706.3</ele>
        <time>2021-09-19T10:31:12Z</time>
      </trkpt>
      <trkpt lat="43.86522" lon="6.84611">
        <ele>706.3</ele>
        <time>2021-09-19T10:31:14Z</time>
      </trkpt>
      <trkpt lat="43.86523" lon="6.84612">
        <ele>706.2</ele>
        <time>2021-09-19T10:31:15Z</time>
      </trkpt>
      <trkpt lat="43.86524" lon="6.84615">
        <ele>706.2</ele>
        <time>2021-09-19T10:31:16Z</time>
      </trkpt>
      <trkpt lat="43.86526" lon="6.84624">
        <ele>706.1</ele>
        <time>2021-09-19T10:31:18Z</time>
      </trkpt>
      <trkpt lat="43.86526" lon="6.84643">
        <ele>705.8</ele>
        <time>2021-09-19T10:31:20Z</time>
      </trkpt>
      <trkpt lat="43.86526" lon="6.84657">
        <ele>705.6</ele>
        <time>2021-09-19T10:31:22Z</time>
      </trkpt>
      <trkpt lat="43.86526" lon="6.84662">
        <ele>705.5</ele>
        <time>2021-09-19T10:31:23Z</time>
      </trkpt>
      <trkpt lat="43.86526" lon="6.84666">
        <ele>705.5</ele>
        <time>2021-09-19T10:31:24Z</time>
      </trkpt>
      <trkpt lat="43.86526" lon="6.84668">
        <ele>705.5</ele>
        <time>2021-09-19T10:31:26Z</time>
      </trkpt>
      <trkpt lat="43.86526" lon="6.84668">
        <ele>705.4</ele>
        <time>2021-09-19T10:31:27Z</time>
      </trkpt>
      <trkpt lat="43.86526" lon="6.84667">
        <ele>705.4</ele>
        <time>2021-09-19T10:31:28Z</time>
      </trkpt>
      <trkpt lat="43.86526" lon="6.84667">
        <ele>705.4</ele>
        <time>2021-09-19T10:31:30Z</time>
      </trkpt>
      <trkpt lat="43.86526" lon="6.84666">
        <ele>705.4</ele>
        <time>2021-09-19T10:31:31Z</time>
      </trkpt>
      <trkpt lat="43.86525" lon="6.84666">
        <ele>705.4</ele>
        <time>2021-09-19T10:31:33Z</time>
      </trkpt>
      <trkpt lat="43.86525" lon="6.84666">
        <ele>705.4</ele>
        <time>2021-09-19T10:31:35Z</time>
      </trkpt>
      <trkpt lat="43.86525" lon="6.84665">
        <ele>705.4</ele>
        <time>2021-09-19T10:31:36Z</time>
      </trkpt>
      <trkpt lat="43.86525" lon="6.84665">
        <ele>705.4</ele>
        <time>2021-09-19T10:31:37Z</time>
      </trkpt>
      <trkpt lat="43.86525" lon="6.84664">
        <ele>705.4</ele>
        <time>2021-09-19T10:31:38Z</time>
      </trkpt>
      <trkpt lat="43.86524" lon="6.84659">
        <ele>705.3</ele>
        <time>2021-09-19T10:31:40Z</time>
      </trkpt>
      <trkpt lat="43.86524" lon="6.84657">
        <ele>705.3</ele>
        <time>2021-09-19T10:31:41Z</time>
      </trkpt>
      <trkpt lat="43.86523" lon="6.84655">
        <ele>705.3</ele>
        <time>2021-09-19T10:31:43Z</time>
      </trkpt>
      <trkpt lat="43.86523" lon="6.84653">
        <ele>705.2</ele>
        <time>2021-09-19T10:31:44Z</time>
      </trkpt>
      <trkpt lat="43.86523" lon="6.8465">
        <ele>705.2</ele>
        <time>2021-09-19T10:31:46Z</time>
      </trkpt>
      <trkpt lat="43.86524" lon="6.84645">
        <ele>705.1</ele>
        <time>2021-09-19T10:31:47Z</time>
      </trkpt>
      <trkpt lat="43.86526" lon="6.84636">
        <ele>705</ele>
        <time>2021-09-19T10:31:49Z</time>
      </trkpt>
      <trkpt lat="43.86527" lon="6.84632">
        <ele>705</ele>
        <time>2021-09-19T10:31:50Z</time>
      </trkpt>
      <trkpt lat="43.8653" lon="6.84622">
        <ele>704.8</ele>
        <time>2021-09-19T10:31:52Z</time>
      </trkpt>
      <trkpt lat="43.86532" lon="6.84618">
        <ele>704.8</ele>
        <time>2021-09-19T10:31:53Z</time>
      </trkpt>
      <trkpt lat="43.86534" lon="6.84617">
        <ele>704.3</ele>
        <time>2021-09-19T10:31:55Z</time>
      </trkpt>
      <trkpt lat="43.86537" lon="6.84617">
        <ele>704.7</ele>
        <time>2021-09-19T10:31:56Z</time>
      </trkpt>
      <trkpt lat="43.8654" lon="6.84616">
        <ele>705.3</ele>
        <time>2021-09-19T10:31:58Z</time>
      </trkpt>
      <trkpt lat="43.86541" lon="6.84615">
        <ele>705.6</ele>
        <time>2021-09-19T10:31:59Z</time>
      </trkpt>
      <trkpt lat="43.86542" lon="6.84614">
        <ele>705.7</ele>
        <time>2021-09-19T10:32:00Z</time>
      </trkpt>
      <trkpt lat="43.86542" lon="6.84615">
        <ele>705.8</ele>
        <time>2021-09-19T10:32:02Z</time>
      </trkpt>
      <trkpt lat="43.86486" lon="6.8477">
        <ele>724.5</ele>
        <time>2021-09-19T10:41:00Z</time>
      </trkpt>
      <trkpt lat="43.86485" lon="6.84774">
        <ele>724.6</ele>
        <time>2021-09-19T10:41:01Z</time>
      </trkpt>
      <trkpt lat="43.86482" lon="6.8478">
        <ele>724.9</ele>
        <time>2021-09-19T10:41:03Z</time>
      </trkpt>
      <trkpt lat="43.8648" lon="6.84786">
        <ele>725.2</ele>
        <time>2021-09-19T10:41:04Z</time>
      </trkpt>
      <trkpt lat="43.86479" lon="6.84789">
        <ele>725.5</ele>
        <time>2021-09-19T10:41:05Z</time>
      </trkpt>
      <trkpt lat="43.86478" lon="6.84793">
        <ele>725.8</ele>
        <time>2021-09-19T10:41:07Z</time>
      </trkpt>
      <trkpt lat="43.86477" lon="6.84796">
        <ele>726</ele>
        <time>2021-09-19T10:41:08Z</time>
      </trkpt>
      <trkpt lat="43.86477" lon="6.84797">
        <ele>726</ele>
        <time>2021-09-19T10:41:10Z</time>
      </trkpt>
      <trkpt lat="43.86477" lon="6.84797">
        <ele>726.1</ele>
        <time>2021-09-19T10:41:11Z</time>
      </trkpt>
      <trkpt lat="43.86476" lon="6.84805">
        <ele>726.6</ele>
        <time>2021-09-19T10:41:12Z</time>
      </trkpt>
      <trkpt lat="43.86475" lon="6.84813">
        <ele>727.1</ele>
        <time>2021-09-19T10:41:14Z</time>
      </trkpt>
      <trkpt lat="43.86474" lon="6.84822">
        <ele>727.6</ele>
        <time>2021-09-19T10:41:15Z</time>
      </trkpt>
      <trkpt lat="43.86473" lon="6.8483">
        <ele>728.1</ele>
        <time>2021-09-19T10:41:40Z</time>
      </trkpt>
      <trkpt lat="43.86472" lon="6.84838">
        <ele>728.8</ele>
        <time>2021-09-19T10:41:41Z</time>
      </trkpt>
      <trkpt lat="43.86471" lon="6.84846">
        <ele>729.5</ele>
        <time>2021-09-19T10:41:42Z</time>
      </trkpt>
      <trkpt lat="43.86474" lon="6.84854">
        <ele>730.3</ele>
        <time>2021-09-19T10:41:44Z</time>
      </trkpt>
      <trkpt lat="43.86476" lon="6.84858">
        <ele>730.8</ele>
        <time>2021-09-19T10:41:45Z</time>
      </trkpt>
      <trkpt lat="43.86478" lon="6.84864">
        <ele>731.2</ele>
        <time>2021-09-19T10:41:47Z</time>
      </trkpt>
      <trkpt lat="43.86479" lon="6.84866">
        <ele>731.3</ele>
        <time>2021-09-19T10:41:48Z</time>
      </trkpt>
      <trkpt lat="43.86479" lon="6.84866">
        <ele>731.4</ele>
        <time>2021-09-19T10:41:50Z</time>
      </trkpt>
      <trkpt lat="43.86479" lon="6.84866">
        <ele>731.4</ele>
        <time>2021-09-19T10:41:52Z</time>
      </trkpt>
      <trkpt lat="43.86479" lon="6.84866">
        <ele>731.4</ele>
        <time>2021-09-19T10:41:53Z</time>
      </trkpt>
      <trkpt lat="43.86478" lon="6.84867">
        <ele>731.5</ele>
        <time>2021-09-19T10:41:54Z</time>
      </trkpt>
      <trkpt lat="43.86463" lon="6.84928">
        <ele>735.5</ele>
        <time>2021-09-19T10:42:46Z</time>
      </trkpt>
      <trkpt lat="43.86465" lon="6.84933">
        <ele>735.7</ele>
        <time>2021-09-19T10:42:47Z</time>
      </trkpt>
      <trkpt lat="43.86468" lon="6.8494">
        <ele>735.8</ele>
        <time>2021-09-19T10:42:49Z</time>
      </trkpt>
      <trkpt lat="43.86469" lon="6.84944">
        <ele>735.9</ele>
        <time>2021-09-19T10:42:50Z</time>
      </trkpt>
      <trkpt lat="43.8647" lon="6.84954">
        <ele>735.8</ele>
        <time>2021-09-19T10:42:52Z</time>
      </trkpt>
      <trkpt lat="43.8647" lon="6.84957">
        <ele>735.8</ele>
        <time>2021-09-19T10:42:53Z</time>
      </trkpt>
      <trkpt lat="43.8647" lon="6.84957">
        <ele>735.8</ele>
        <time>2021-09-19T10:42:54Z</time>
      </trkpt>
      <trkpt lat="43.8647" lon="6.84958">
        <ele>735.8</ele>
        <time>2021-09-19T10:42:56Z</time>
      </trkpt>
      <trkpt lat="43.86469" lon="6.84959">
        <ele>735.8</ele>
        <time>2021-09-19T10:42:57Z</time>
      </trkpt>
      <trkpt lat="43.86469" lon="6.84959">
        <ele>735.7</ele>
        <time>2021-09-19T10:42:58Z</time>
      </trkpt>
      <trkpt lat="43.86468" lon="6.84961">
        <ele>735.7</ele>
        <time>2021-09-19T10:43:00Z</time>
      </trkpt>
      <trkpt lat="43.86467" lon="6.84961">
        <ele>735.7</ele>
        <time>2021-09-19T10:43:01Z</time>
      </trkpt>
      <trkpt lat="43.86467" lon="6.84962">
        <ele>735.7</ele>
        <time>2021-09-19T10:43:03Z</time>
      </trkpt>
      <trkpt lat="43.86468" lon="6.85">
        <ele>736</ele>
        <time>2021-09-19T10:43:14Z</time>
      </trkpt>
      <trkpt lat="43.8647" lon="6.85007">
        <ele>736.2</ele>
        <time>2021-09-19T10:43:16Z</time>
      </trkpt>
      <trkpt lat="43.86473" lon="6.85014">
        <ele>736.6</ele>
        <time>2021-09-19T10:43:17Z</time>
      </trkpt>
      <trkpt lat="43.86476" lon="6.8502">
        <ele>736.9</ele>
        <time>2021-09-19T10:43:18Z</time>
      </trkpt>
      <trkpt lat="43.86478" lon="6.85027">
        <ele>737.3</ele>
        <time>2021-09-19T10:43:19Z</time>
      </trkpt>
      <trkpt lat="43.8648" lon="6.85034">
        <ele>737.7</ele>
        <time>2021-09-19T10:43:20Z</time>
      </trkpt>
      <trkpt lat="43.86481" lon="6.85038">
        <ele>738</ele>
        <time>2021-09-19T10:43:21Z</time>
      </trkpt>
      <trkpt lat="43.86481" lon="6.85043">
        <ele>738.2</ele>
        <time>2021-09-19T10:43:23Z</time>
      </trkpt>
      <trkpt lat="43.86481" lon="6.85044">
        <ele>738.3</ele>
        <time>2021-09-19T10:43:24Z</time>
      </trkpt>
      <trkpt lat="43.86481" lon="6.85046">
        <ele>738.4</ele>
        <time>2021-09-19T10:43:26Z</time>
      </trkpt>
      <trkpt lat="43.86481" lon="6.85048">
        <ele>738.5</ele>
        <time>2021-09-19T10:43:27Z</time>
      </trkpt>
      <trkpt lat="43.86481" lon="6.8505">
        <ele>738.7</ele>
        <time>2021-09-19T10:43:28Z</time>
      </trkpt>
      <trkpt lat="43.8648" lon="6.85052">
        <ele>738.8</ele>
        <time>2021-09-19T10:43:29Z</time>
      </trkpt>
      <trkpt lat="43.8648" lon="6.85053">
        <ele>738.9</ele>
        <time>2021-09-19T10:43:31Z</time>
      </trkpt>
      <trkpt lat="43.86479" lon="6.85054">
        <ele>739</ele>
        <time>2021-09-19T10:43:32Z</time>
      </trkpt>
      <trkpt lat="43.86479" lon="6.85056">
        <ele>739.1</ele>
        <time>2021-09-19T10:43:33Z</time>
      </trkpt>
      <trkpt lat="43.86479" lon="6.85057">
        <ele>739.2</ele>
        <time>2021-09-19T10:43:34Z</time>
      </trkpt>
      <trkpt lat="43.86478" lon="6.85059">
        <ele>739.3</ele>
        <time>2021-09-19T10:43:36Z</time>
      </trkpt>
      <trkpt lat="43.86466" lon="6.85088">
        <ele>741.3</ele>
        <time>2021-09-19T10:44:00Z</time>
      </trkpt>
      <trkpt lat="43.86464" lon="6.85092">
        <ele>741.6</ele>
        <time>2021-09-19T10:44:01Z</time>
      </trkpt>
      <trkpt lat="43.86463" lon="6.85094">
        <ele>741.7</ele>
        <time>2021-09-19T10:44:02Z</time>
      </trkpt>
      <trkpt lat="43.86462" lon="6.85097">
        <ele>741.9</ele>
        <time>2021-09-19T10:44:04Z</time>
      </trkpt>
      <trkpt lat="43.86461" lon="6.85099">
        <ele>742</ele>
        <time>2021-09-19T10:44:05Z</time>
      </trkpt>
      <trkpt lat="43.8646" lon="6.851">
        <ele>742.2</ele>
        <time>2021-09-19T10:44:06Z</time>
      </trkpt>
      <trkpt lat="43.8646" lon="6.85102">
        <ele>742.2</ele>
        <time>2021-09-19T10:44:07Z</time>
      </trkpt>
      <trkpt lat="43.86459" lon="6.85103">
        <ele>742.3</ele>
        <time>2021-09-19T10:44:08Z</time>
      </trkpt>
      <trkpt lat="43.86458" lon="6.85103">
        <ele>742.4</ele>
        <time>2021-09-19T10:44:09Z</time>
      </trkpt>
      <trkpt lat="43.86456" lon="6.85104">
        <ele>742.6</ele>
        <time>2021-09-19T10:44:11Z</time>
      </trkpt>
      <trkpt lat="43.86454" lon="6.85105">
        <ele>742.7</ele>
        <time>2021-09-19T10:44:13Z</time>
      </trkpt>
      <trkpt lat="43.86452" lon="6.85107">
        <ele>742.9</ele>
        <time>2021-09-19T10:44:14Z</time>
      </trkpt>
      <trkpt lat="43.86451" lon="6.85109">
        <ele>743</ele>
        <time>2021-09-19T10:44:16Z</time>
      </trkpt>
      <trkpt lat="43.8645" lon="6.85111">
        <ele>743.1</ele>
        <time>2021-09-19T10:44:18Z</time>
      </trkpt>
      <trkpt lat="43.8645" lon="6.85113">
        <ele>743.2</ele>
        <time>2021-09-19T10:44:19Z</time>
      </trkpt>
      <trkpt lat="43.86448" lon="6.85116">
        <ele>743.4</ele>
        <time>2021-09-19T10:44:21Z</time>
      </trkpt>
      <trkpt lat="43.86448" lon="6.85118">
        <ele>743.5</ele>
        <time>2021-09-19T10:44:23Z</time>
      </trkpt>
      <trkpt lat="43.86447" lon="6.8512">
        <ele>743.6</ele>
        <time>2021-09-19T10:44:25Z</time>
      </trkpt>
      <trkpt lat="43.86447" lon="6.85121">
        <ele>743.7</ele>
        <time>2021-09-19T10:44:27Z</time>
      </trkpt>
      <trkpt lat="43.86447" lon="6.85121">
        <ele>743.7</ele>
        <time>2021-09-19T10:44:28Z</time>
      </trkpt>
      <trkpt lat="43.86447" lon="6.85122">
        <ele>743.7</ele>
        <time>2021-09-19T10:44:30Z</time>
      </trkpt>
      <trkpt lat="43.86448" lon="6.85122">
        <ele>743.8</ele>
        <time>2021-09-19T10:44:31Z</time>
      </trkpt>
      <trkpt lat="43.86448" lon="6.85123">
        <ele>743.8</ele>
        <time>2021-09-19T10:44:33Z</time>
      </trkpt>
      <trkpt lat="43.86448" lon="6.85123">
        <ele>743.8</ele>
        <time>2021-09-19T10:44:34Z</time>
      </trkpt>
      <trkpt lat="43.86448" lon="6.85123">
        <ele>743.8</ele>
        <time>2021-09-19T10:44:36Z</time>
      </trkpt>
      <trkpt lat="43.86448" lon="6.85123">
        <ele>743.8</ele>
        <time>2021-09-19T10:44:38Z</time>
      </trkpt>
      <trkpt lat="43.86448" lon="6.85123">
        <ele>743.8</ele>
        <time>2021-09-19T10:44:39Z</time>
      </trkpt>
      <trkpt lat="43.86448" lon="6.85123">
        <ele>743.8</ele>
        <time>2021-09-19T10:44:40Z</time>
      </trkpt>
      <trkpt lat="43.86448" lon="6.85124">
        <ele>743.9</ele>
        <time>2021-09-19T10:44:42Z</time>
      </trkpt>
      <trkpt lat="43.86449" lon="6.85124">
        <ele>743.9</ele>
        <time>2021-09-19T10:44:43Z</time>
      </trkpt>
      <trkpt lat="43.86453" lon="6.85126">
        <ele>744.2</ele>
        <time>2021-09-19T10:44:45Z</time>
      </trkpt>
      <trkpt lat="43.86456" lon="6.85128">
        <ele>744.4</ele>
        <time>2021-09-19T10:44:46Z</time>
      </trkpt>
      <trkpt lat="43.86457" lon="6.85128">
        <ele>744.5</ele>
        <time>2021-09-19T10:44:47Z</time>
      </trkpt>
      <trkpt lat="43.8646" lon="6.85129">
        <ele>744.6</ele>
        <time>2021-09-19T10:44:49Z</time>
      </trkpt>
      <trkpt lat="43.86461" lon="6.8513">
        <ele>744.6</ele>
        <time>2021-09-19T10:44:50Z</time>
      </trkpt>
      <trkpt lat="43.86462" lon="6.8513">
        <ele>744.7</ele>
        <time>2021-09-19T10:44:51Z</time>
      </trkpt>
      <trkpt lat="43.86463" lon="6.85132">
        <ele>744.8</ele>
        <time>2021-09-19T10:44:53Z</time>
      </trkpt>
      <trkpt lat="43.86465" lon="6.85133">
        <ele>744.9</ele>
        <time>2021-09-19T10:44:54Z</time>
      </trkpt>
      <trkpt lat="43.86467" lon="6.85133">
        <ele>745</ele>
        <time>2021-09-19T10:44:56Z</time>
      </trkpt>
      <trkpt lat="43.86467" lon="6.85134">
        <ele>745</ele>
        <time>2021-09-19T10:44:57Z</time>
      </trkpt>
      <trkpt lat="43.86468" lon="6.85135">
        <ele>745</ele>
        <time>2021-09-19T10:44:58Z</time>
      </trkpt>
      <trkpt lat="43.8647" lon="6.85136">
        <ele>745.1</ele>
        <time>2021-09-19T10:44:59Z</time>
      </trkpt>
      <trkpt lat="43.86471" lon="6.85138">
        <ele>745.2</ele>
        <time>2021-09-19T10:45:00Z</time>
      </trkpt>
      <trkpt lat="43.86472" lon="6.85138">
        <ele>745.2</ele>
        <time>2021-09-19T10:45:01Z</time>
      </trkpt>
      <trkpt lat="43.86473" lon="6.85139">
        <ele>745.3</ele>
        <time>2021-09-19T10:45:03Z</time>
      </trkpt>
      <trkpt lat="43.86473" lon="6.8514">
        <ele>745.3</ele>
        <time>2021-09-19T10:45:04Z</time>
      </trkpt>
      <trkpt lat="43.86474" lon="6.85141">
        <ele>745.3</ele>
        <time>2021-09-19T10:45:05Z</time>
      </trkpt>
      <trkpt lat="43.86475" lon="6.85142">
        <ele>745.4</ele>
        <time>2021-09-19T10:45:06Z</time>
      </trkpt>
      <trkpt lat="43.86477" lon="6.85143">
        <ele>745.5</ele>
        <time>2021-09-19T10:45:07Z</time>
      </trkpt>
      <trkpt lat="43.86478" lon="6.85144">
        <ele>745.5</ele>
        <time>2021-09-19T10:45:09Z</time>
      </trkpt>
      <trkpt lat="43.8648" lon="6.85145">
        <ele>745.6</ele>
        <time>2021-09-19T10:45:10Z</time>
      </trkpt>
      <trkpt lat="43.86481" lon="6.85146">
        <ele>745.6</ele>
        <time>2021-09-19T10:45:12Z</time>
      </trkpt>
      <trkpt lat="43.86481" lon="6.85146">
        <ele>745.7</ele>
        <time>2021-09-19T10:45:13Z</time>
      </trkpt>
      <trkpt lat="43.86482" lon="6.85146">
        <ele>745.7</ele>
        <time>2021-09-19T10:45:14Z</time>
      </trkpt>
      <trkpt lat="43.86484" lon="6.85146">
        <ele>745.8</ele>
        <time>2021-09-19T10:45:16Z</time>
      </trkpt>
      <trkpt lat="43.86485" lon="6.85146">
        <ele>745.8</ele>
        <time>2021-09-19T10:45:17Z</time>
      </trkpt>
      <trkpt lat="43.86487" lon="6.85146">
        <ele>745.9</ele>
        <time>2021-09-19T10:45:18Z</time>
      </trkpt>
      <trkpt lat="43.86488" lon="6.85146">
        <ele>745.9</ele>
        <time>2021-09-19T10:45:19Z</time>
      </trkpt>
      <trkpt lat="43.86489" lon="6.85146">
        <ele>746</ele>
        <time>2021-09-19T10:45:20Z</time>
      </trkpt>
      <trkpt lat="43.86493" lon="6.85147">
        <ele>746.1</ele>
        <time>2021-09-19T10:45:22Z</time>
      </trkpt>
      <trkpt lat="43.86495" lon="6.85147">
        <ele>746.2</ele>
        <time>2021-09-19T10:45:23Z</time>
      </trkpt>
      <trkpt lat="43.865" lon="6.85149">
        <ele>746.3</ele>
        <time>2021-09-19T10:45:25Z</time>
      </trkpt>
      <trkpt lat="43.86503" lon="6.85151">
        <ele>746.5</ele>
        <time>2021-09-19T10:45:26Z</time>
      </trkpt>
      <trkpt lat="43.8651" lon="6.85156">
        <ele>746.8</ele>
        <time>2021-09-19T10:45:28Z</time>
      </trkpt>
      <trkpt lat="43.86515" lon="6.85161">
        <ele>747.1</ele>
        <time>2021-09-19T10:45:29Z</time>
      </trkpt>
      <trkpt lat="43.86519" lon="6.85165">
        <ele>747.3</ele>
        <time>2021-09-19T10:45:31Z</time>
      </trkpt>
      <trkpt lat="43.86522" lon="6.85168">
        <ele>747.5</ele>
        <time>2021-09-19T10:45:32Z</time>
      </trkpt>
      <trkpt lat="43.86525" lon="6.85172">
        <ele>747.7</ele>
        <time>2021-09-19T10:45:33Z</time>
      </trkpt>
      <trkpt lat="43.86528" lon="6.85176">
        <ele>748</ele>
        <time>2021-09-19T10:45:35Z</time>
      </trkpt>
      <trkpt lat="43.8653" lon="6.8518">
        <ele>748.4</ele>
        <time>2021-09-19T10:45:36Z</time>
      </trkpt>
      <trkpt lat="43.86532" lon="6.85184">
        <ele>748.7</ele>
        <time>2021-09-19T10:45:37Z</time>
      </trkpt>
      <trkpt lat="43.86533" lon="6.85185">
        <ele>748.8</ele>
        <time>2021-09-19T10:45:38Z</time>
      </trkpt>
      <trkpt lat="43.86534" lon="6.85192">
        <ele>749.4</ele>
        <time>2021-09-19T10:45:40Z</time>
      </trkpt>
      <trkpt lat="43.86533" lon="6.85197">
        <ele>749.8</ele>
        <time>2021-09-19T10:45:41Z</time>
      </trkpt>
      <trkpt lat="43.86533" lon="6.85201">
        <ele>750.2</ele>
        <time>2021-09-19T10:45:42Z</time>
      </trkpt>
      <trkpt lat="43.86533" lon="6.85205">
        <ele>750.6</ele>
        <time>2021-09-19T10:45:44Z</time>
      </trkpt>
      <trkpt lat="43.86532" lon="6.8521">
        <ele>751.1</ele>
        <time>2021-09-19T10:45:45Z</time>
      </trkpt>
      <trkpt lat="43.86532" lon="6.85214">
        <ele>751.6</ele>
        <time>2021-09-19T10:45:46Z</time>
      </trkpt>
      <trkpt lat="43.86532" lon="6.85219">
        <ele>752</ele>
        <time>2021-09-19T10:45:47Z</time>
      </trkpt>
      <trkpt lat="43.86531" lon="6.85223">
        <ele>752.4</ele>
        <time>2021-09-19T10:45:48Z</time>
      </trkpt>
      <trkpt lat="43.86531" lon="6.85227">
        <ele>752.8</ele>
        <time>2021-09-19T10:45:50Z</time>
      </trkpt>
      <trkpt lat="43.86531" lon="6.85232">
        <ele>753.2</ele>
        <time>2021-09-19T10:47:40Z</time>
      </trkpt>
      <trkpt lat="43.8653" lon="6.85236">
        <ele>753.5</ele>
        <time>2021-09-19T10:47:42Z</time>
      </trkpt>
      <trkpt lat="43.8653" lon="6.85241">
        <ele>753.9</ele>
        <time>2021-09-19T10:47:43Z</time>
      </trkpt>
      <trkpt lat="43.8653" lon="6.85244">
        <ele>754.1</ele>
        <time>2021-09-19T10:47:44Z</time>
      </trkpt>
      <trkpt lat="43.8653" lon="6.85245">
        <ele>754.2</ele>
        <time>2021-09-19T10:47:45Z</time>
      </trkpt>
      <trkpt lat="43.8653" lon="6.85246">
        <ele>754.3</ele>
        <time>2021-09-19T10:47:46Z</time>
      </trkpt>
      <trkpt lat="43.8653" lon="6.85248">
        <ele>754.5</ele>
        <time>2021-09-19T10:47:48Z</time>
      </trkpt>
      <trkpt lat="43.86531" lon="6.8525">
        <ele>754.7</ele>
        <time>2021-09-19T10:47:49Z</time>
      </trkpt>
      <trkpt lat="43.86532" lon="6.85253">
        <ele>755</ele>
        <time>2021-09-19T10:47:50Z</time>
      </trkpt>
      <trkpt lat="43.86532" lon="6.85257">
        <ele>755.3</ele>
        <time>2021-09-19T10:47:52Z</time>
      </trkpt>
      <trkpt lat="43.86506" lon="6.85371">
        <ele>765.3</ele>
        <time>2021-09-19T10:49:18Z</time>
      </trkpt>
      <trkpt lat="43.86508" lon="6.85373">
        <ele>765.6</ele>
        <time>2021-09-19T10:49:20Z</time>
      </trkpt>
      <trkpt lat="43.86509" lon="6.85374">
        <ele>765.7</ele>
        <time>2021-09-19T10:49:21Z</time>
      </trkpt>
      <trkpt lat="43.8651" lon="6.85377">
        <ele>766</ele>
        <time>2021-09-19T10:49:22Z</time>
      </trkpt>
      <trkpt lat="43.8651" lon="6.85378">
        <ele>766.1</ele>
        <time>2021-09-19T10:49:24Z</time>
      </trkpt>
      <trkpt lat="43.86511" lon="6.8538">
        <ele>766.2</ele>
        <time>2021-09-19T10:49:25Z</time>
      </trkpt>
      <trkpt lat="43.86511" lon="6.85383">
        <ele>766.4</ele>
        <time>2021-09-19T10:49:26Z</time>
      </trkpt>
      <trkpt lat="43.86511" lon="6.85388">
        <ele>766.8</ele>
        <time>2021-09-19T10:49:28Z</time>
      </trkpt>
      <trkpt lat="43.86511" lon="6.85393">
        <ele>767.1</ele>
        <time>2021-09-19T10:49:29Z</time>
      </trkpt>
      <trkpt lat="43.8651" lon="6.85395">
        <ele>767.2</ele>
        <time>2021-09-19T10:49:30Z</time>
      </trkpt>
      <trkpt lat="43.8651" lon="6.85399">
        <ele>767.5</ele>
        <time>2021-09-19T10:49:31Z</time>
      </trkpt>
      <trkpt lat="43.86509" lon="6.85404">
        <ele>767.8</ele>
        <time>2021-09-19T10:49:33Z</time>
      </trkpt>
      <trkpt lat="43.86508" lon="6.85408">
        <ele>768</ele>
        <time>2021-09-19T10:49:34Z</time>
      </trkpt>
      <trkpt lat="43.86507" lon="6.85415">
        <ele>768.4</ele>
        <time>2021-09-19T10:49:35Z</time>
      </trkpt>
      <trkpt lat="43.86506" lon="6.85419">
        <ele>768.6</ele>
        <time>2021-09-19T10:49:36Z</time>
      </trkpt>
      <trkpt lat="43.86504" lon="6.85423">
        <ele>768.9</ele>
        <time>2021-09-19T10:49:38Z</time>
      </trkpt>
      <trkpt lat="43.86501" lon="6.85431">
        <ele>769.4</ele>
        <time>2021-09-19T10:49:39Z</time>
      </trkpt>
      <trkpt lat="43.86497" lon="6.8544">
        <ele>769.9</ele>
        <time>2021-09-19T10:49:41Z</time>
      </trkpt>
      <trkpt lat="43.86496" lon="6.85442">
        <ele>770</ele>
        <time>2021-09-19T10:49:42Z</time>
      </trkpt>
      <trkpt lat="43.86495" lon="6.85444">
        <ele>770.1</ele>
        <time>2021-09-19T10:49:43Z</time>
      </trkpt>
      <trkpt lat="43.86495" lon="6.85444">
        <ele>770.2</ele>
        <time>2021-09-19T10:49:45Z</time>
      </trkpt>
      <trkpt lat="43.86494" lon="6.85445">
        <ele>770.3</ele>
        <time>2021-09-19T10:49:47Z</time>
      </trkpt>
      <trkpt lat="43.86379" lon="6.85568">
        <ele>789.6</ele>
        <time>2021-09-19T10:53:39Z</time>
      </trkpt>
      <trkpt lat="43.86376" lon="6.85566">
        <ele>790.3</ele>
        <time>2021-09-19T10:53:41Z</time>
      </trkpt>
      <trkpt lat="43.86373" lon="6.85564">
        <ele>791.1</ele>
        <time>2021-09-19T10:53:42Z</time>
      </trkpt>
      <trkpt lat="43.8637" lon="6.85559">
        <ele>792.1</ele>
        <time>2021-09-19T10:53:44Z</time>
      </trkpt>
      <trkpt lat="43.86369" lon="6.85556">
        <ele>792.8</ele>
        <time>2021-09-19T10:53:45Z</time>
      </trkpt>
      <trkpt lat="43.86367" lon="6.85553">
        <ele>793.5</ele>
        <time>2021-09-19T10:53:46Z</time>
      </trkpt>
      <trkpt lat="43.86366" lon="6.85552">
        <ele>793.7</ele>
        <time>2021-09-19T10:53:47Z</time>
      </trkpt>
      <trkpt lat="43.86363" lon="6.85551">
        <ele>794.5</ele>
        <time>2021-09-19T10:53:49Z</time>
      </trkpt>
      <trkpt lat="43.86362" lon="6.8555">
        <ele>794.8</ele>
        <time>2021-09-19T10:53:50Z</time>
      </trkpt>
      <trkpt lat="43.86362" lon="6.85549">
        <ele>795</ele>
        <time>2021-09-19T10:53:51Z</time>
      </trkpt>
      <trkpt lat="43.86364" lon="6.85546">
        <ele>795.7</ele>
        <time>2021-09-19T10:53:53Z</time>
      </trkpt>
      <trkpt lat="43.86365" lon="6.85545">
        <ele>796</ele>
        <time>2021-09-19T10:53:54Z</time>
      </trkpt>
      <trkpt lat="43.86367" lon="6.85545">
        <ele>796.3</ele>
        <time>2021-09-19T10:53:55Z</time>
      </trkpt>
      <trkpt lat="43.86369" lon="6.85544">
        <ele>796.9</ele>
        <time>2021-09-19T10:53:57Z</time>
      </trkpt>
      <trkpt lat="43.86371" lon="6.85544">
        <ele>797.2</ele>
        <time>2021-09-19T10:53:59Z</time>
      </trkpt>
      <trkpt lat="43.86371" lon="6.85545">
        <ele>797.3</ele>
        <time>2021-09-19T10:54:00Z</time>
      </trkpt>
      <trkpt lat="43.86362" lon="6.85558">
        <ele>799.8</ele>
        <time>2021-09-19T10:54:55Z</time>
      </trkpt>
      <trkpt lat="43.86361" lon="6.85557">
        <ele>800</ele>
        <time>2021-09-19T10:54:56Z</time>
      </trkpt>
      <trkpt lat="43.8636" lon="6.85556">
        <ele>800.2</ele>
        <time>2021-09-19T10:54:57Z</time>
      </trkpt>
      <trkpt lat="43.8636" lon="6.85555">
        <ele>800.3</ele>
        <time>2021-09-19T10:54:58Z</time>
      </trkpt>
      <trkpt lat="43.8636" lon="6.85555">
        <ele>800.3</ele>
        <time>2021-09-19T10:55:00Z</time>
      </trkpt>
      <trkpt lat="43.8636" lon="6.85556">
        <ele>800.5</ele>
        <time>2021-09-19T10:55:01Z</time>
      </trkpt>
      <trkpt lat="43.8636" lon="6.85557">
        <ele>800.6</ele>
        <time>2021-09-19T10:55:03Z</time>
      </trkpt>
      <trkpt lat="43.8636" lon="6.85558">
        <ele>800.7</ele>
        <time>2021-09-19T10:55:04Z</time>
      </trkpt>
      <trkpt lat="43.8636" lon="6.85559">
        <ele>800.9</ele>
        <time>2021-09-19T10:55:05Z</time>
      </trkpt>
      <trkpt lat="43.8636" lon="6.85561">
        <ele>801.1</ele>
        <time>2021-09-19T10:55:06Z</time>
      </trkpt>
      <trkpt lat="43.8636" lon="6.85562">
        <ele>801.3</ele>
        <time>2021-09-19T10:55:07Z</time>
      </trkpt>
      <trkpt lat="43.8636" lon="6.85563">
        <ele>801.4</ele>
        <time>2021-09-19T10:55:09Z</time>
      </trkpt>
      <trkpt lat="43.8636" lon="6.85564">
        <ele>801.5</ele>
        <time>2021-09-19T10:55:10Z</time>
      </trkpt>
      <trkpt lat="43.86299" lon="6.85549">
        <ele>809.2</ele>
        <time>2021-09-19T10:56:33Z</time>
      </trkpt>
      <trkpt lat="43.86297" lon="6.85549">
        <ele>809.2</ele>
        <time>2021-09-19T10:56:34Z</time>
      </trkpt>
      <trkpt lat="43.86296" lon="6.85549">
        <ele>809.2</ele>
        <time>2021-09-19T10:56:35Z</time>
      </trkpt>
      <trkpt lat="43.86295" lon="6.85548">
        <ele>809.2</ele>
        <time>2021-09-19T10:56:36Z</time>
      </trkpt>
      <trkpt lat="43.86294" lon="6.85548">
        <ele>809.2</ele>
        <time>2021-09-19T10:56:38Z</time>
      </trkpt>
      <trkpt lat="43.86293" lon="6.85548">
        <ele>809.1</ele>
        <time>2021-09-19T10:56:41Z</time>
      </trkpt>
      <trkpt lat="43.86292" lon="6.85547">
        <ele>809.1</ele>
        <time>2021-09-19T10:56:42Z</time>
      </trkpt>
      <trkpt lat="43.86292" lon="6.85547">
        <ele>809.1</ele>
        <time>2021-09-19T10:56:43Z</time>
      </trkpt>
      <trkpt lat="43.86292" lon="6.85547">
        <ele>809.1</ele>
        <time>2021-09-19T10:56:44Z</time>
      </trkpt>
      <trkpt lat="43.86292" lon="6.85547">
        <ele>809.1</ele>
        <time>2021-09-19T10:56:46Z</time>
      </trkpt>
      <trkpt lat="43.86291" lon="6.85547">
        <ele>809.1</ele>
        <time>2021-09-19T10:56:47Z</time>
      </trkpt>
      <trkpt lat="43.8629" lon="6.85546">
        <ele>809</ele>
        <time>2021-09-19T10:56:48Z</time>
      </trkpt>
      <trkpt lat="43.86266" lon="6.85556">
        <ele>807.5</ele>
        <time>2021-09-19T10:57:15Z</time>
      </trkpt>
      <trkpt lat="43.86264" lon="6.85556">
        <ele>807.4</ele>
        <time>2021-09-19T10:57:16Z</time>
      </trkpt>
      <trkpt lat="43.86255" lon="6.85558">
        <ele>807.1</ele>
        <time>2021-09-19T10:57:18Z</time>
      </trkpt>
      <trkpt lat="43.86243" lon="6.85561">
        <ele>807.1</ele>
        <time>2021-09-19T10:57:20Z</time>
      </trkpt>
      <trkpt lat="43.86235" lon="6.85563">
        <ele>807.4</ele>
        <time>2021-09-19T10:57:21Z</time>
      </trkpt>
      <trkpt lat="43.86229" lon="6.85566">
        <ele>807.6</ele>
        <time>2021-09-19T10:57:23Z</time>
      </trkpt>
      <trkpt lat="43.86225" lon="6.85569">
        <ele>807.8</ele>
        <time>2021-09-19T10:57:24Z</time>
      </trkpt>
      <trkpt lat="43.86225" lon="6.85574">
        <ele>807.8</ele>
        <time>2021-09-19T10:57:25Z</time>
      </trkpt>
      <trkpt lat="43.86225" lon="6.85579">
        <ele>807.8</ele>
        <time>2021-09-19T10:57:27Z</time>
      </trkpt>
      <trkpt lat="43.86226" lon="6.85584">
        <ele>807.8</ele>
        <time>2021-09-19T10:57:28Z</time>
      </trkpt>
      <trkpt lat="43.86224" lon="6.8559">
        <ele>807.8</ele>
        <time>2021-09-19T10:57:30Z</time>
      </trkpt>
      <trkpt lat="43.86224" lon="6.85594">
        <ele>807.8</ele>
        <time>2021-09-19T10:57:31Z</time>
      </trkpt>
      <trkpt lat="43.86224" lon="6.85597">
        <ele>807.8</ele>
        <time>2021-09-19T10:57:32Z</time>
      </trkpt>
      <trkpt lat="43.86224" lon="6.85601">
        <ele>807.8</ele>
        <time>2021-09-19T10:57:34Z</time>
      </trkpt>
      <trkpt lat="43.86224" lon="6.85606">
        <ele>807.8</ele>
        <time>2021-09-19T10:57:35Z</time>
      </trkpt>
      <trkpt lat="43.86224" lon="6.85607">
        <ele>807.8</ele>
        <time>2021-09-19T10:57:36Z</time>
      </trkpt>
      <trkpt lat="43.86225" lon="6.85614">
        <ele>807.8</ele>
        <time>2021-09-19T10:57:38Z</time>
      </trkpt>
      <trkpt lat="43.86226" lon="6.85619">
        <ele>807.9</ele>
        <time>2021-09-19T10:57:39Z</time>
      </trkpt>
      <trkpt lat="43.86227" lon="6.8562">
        <ele>807.9</ele>
        <time>2021-09-19T10:57:40Z</time>
      </trkpt>
      <trkpt lat="43.86227" lon="6.85627">
        <ele>808</ele>
        <time>2021-09-19T10:57:41Z</time>
      </trkpt>
      <trkpt lat="43.86227" lon="6.8563">
        <ele>808</ele>
        <time>2021-09-19T10:57:42Z</time>
      </trkpt>
      <trkpt lat="43.86226" lon="6.85633">
        <ele>808.1</ele>
        <time>2021-09-19T10:57:43Z</time>
      </trkpt>
      <trkpt lat="43.86226" lon="6.85636">
        <ele>808.1</ele>
        <time>2021-09-19T10:57:45Z</time>
      </trkpt>
      <trkpt lat="43.86227" lon="6.85641">
        <ele>808.2</ele>
        <time>2021-09-19T10:57:46Z</time>
      </trkpt>
      <trkpt lat="43.86228" lon="6.85646">
        <ele>808.2</ele>
        <time>2021-09-19T10:57:48Z</time>
      </trkpt>
      <trkpt lat="43.86227" lon="6.85651">
        <ele>808.2</ele>
        <time>2021-09-19T10:57:49Z</time>
      </trkpt>
      <trkpt lat="43.86226" lon="6.85656">
        <ele>808.2</ele>
        <time>2021-09-19T10:57:51Z</time>
      </trkpt>
      <trkpt lat="43.86226" lon="6.85657">
        <ele>808.2</ele>
        <time>2021-09-19T10:57:52Z</time>
      </trkpt>
      <trkpt lat="43.86226" lon="6.85663">
        <ele>808.1</ele>
        <time>2021-09-19T10:57:54Z</time>
      </trkpt>
      <trkpt lat="43.86227" lon="6.85667">
        <ele>808.1</ele>
        <time>2021-09-19T10:57:55Z</time>
      </trkpt>
      <trkpt lat="43.86229" lon="6.85671">
        <ele>808</ele>
        <time>2021-09-19T10:57:56Z</time>
      </trkpt>
      <trkpt lat="43.86231" lon="6.85675">
        <ele>808</ele>
        <time>2021-09-19T10:57:57Z</time>
      </trkpt>
      <trkpt lat="43.86233" lon="6.85678">
        <ele>808</ele>
        <time>2021-09-19T10:57:59Z</time>
      </trkpt>
      <trkpt lat="43.86234" lon="6.85679">
        <ele>808</ele>
        <time>2021-09-19T10:58:00Z</time>
      </trkpt>
      <trkpt lat="43.86236" lon="6.85683">
        <ele>808</ele>
        <time>2021-09-19T10:58:01Z</time>
      </trkpt>
      <trkpt lat="43.86238" lon="6.85687">
        <ele>808.1</ele>
        <time>2021-09-19T10:58:03Z</time>
      </trkpt>
      <trkpt lat="43.8624" lon="6.85691">
        <ele>808.1</ele>
        <time>2021-09-19T10:58:04Z</time>
      </trkpt>
      <trkpt lat="43.8624" lon="6.85696">
        <ele>808.2</ele>
        <time>2021-09-19T10:58:06Z</time>
      </trkpt>
      <trkpt lat="43.8624" lon="6.85698">
        <ele>808.3</ele>
        <time>2021-09-19T10:58:07Z</time>
      </trkpt>
      <trkpt lat="43.8624" lon="6.85701">
        <ele>808.4</ele>
        <time>2021-09-19T10:58:08Z</time>
      </trkpt>
      <trkpt lat="43.8624" lon="6.85704">
        <ele>808.5</ele>
        <time>2021-09-19T10:58:10Z</time>
      </trkpt>
      <trkpt lat="43.86239" lon="6.85707">
        <ele>808.7</ele>
        <time>2021-09-19T10:58:11Z</time>
      </trkpt>
      <trkpt lat="43.86238" lon="6.85711">
        <ele>809</ele>
        <time>2021-09-19T10:58:12Z</time>
      </trkpt>
      <trkpt lat="43.86237" lon="6.85712">
        <ele>809</ele>
        <time>2021-09-19T10:58:13Z</time>
      </trkpt>
      <trkpt lat="43.86236" lon="6.85715">
        <ele>809.2</ele>
        <time>2021-09-19T10:58:14Z</time>
      </trkpt>
      <trkpt lat="43.86234" lon="6.8572">
        <ele>809.5</ele>
        <time>2021-09-19T10:58:17Z</time>
      </trkpt>
      <trkpt lat="43.86233" lon="6.85722">
        <ele>809.7</ele>
        <time>2021-09-19T10:58:18Z</time>
      </trkpt>
      <trkpt lat="43.86233" lon="6.85724">
        <ele>809.8</ele>
        <time>2021-09-19T10:58:19Z</time>
      </trkpt>
      <trkpt lat="43.86234" lon="6.85728">
        <ele>810</ele>
        <time>2021-09-19T10:58:21Z</time>
      </trkpt>
      <trkpt lat="43.86234" lon="6.85729">
        <ele>810</ele>
        <time>2021-09-19T10:58:22Z</time>
      </trkpt>
      <trkpt lat="43.86234" lon="6.8573">
        <ele>810</ele>
        <time>2021-09-19T10:58:23Z</time>
      </trkpt>
      <trkpt lat="43.86234" lon="6.8573">
        <ele>810</ele>
        <time>2021-09-19T10:58:25Z</time>
      </trkpt>
      <trkpt lat="43.86234" lon="6.85732">
        <ele>810.1</ele>
        <time>2021-09-19T10:58:27Z</time>
      </trkpt>
      <trkpt lat="43.86234" lon="6.85732">
        <ele>810.1</ele>
        <time>2021-09-19T10:58:28Z</time>
      </trkpt>
      <trkpt lat="43.86234" lon="6.85734">
        <ele>810.1</ele>
        <time>2021-09-19T10:58:30Z</time>
      </trkpt>
      <trkpt lat="43.86235" lon="6.85737">
        <ele>810.2</ele>
        <time>2021-09-19T10:58:31Z</time>
      </trkpt>
      <trkpt lat="43.86235" lon="6.8574">
        <ele>810.3</ele>
        <time>2021-09-19T10:58:32Z</time>
      </trkpt>
      <trkpt lat="43.86237" lon="6.85755">
        <ele>810.6</ele>
        <time>2021-09-19T10:58:36Z</time>
      </trkpt>
      <trkpt lat="43.86239" lon="6.85763">
        <ele>810.8</ele>
        <time>2021-09-19T10:58:37Z</time>
      </trkpt>
      <trkpt lat="43.8624" lon="6.85772">
        <ele>810.8</ele>
        <time>2021-09-19T10:58:39Z</time>
      </trkpt>
      <trkpt lat="43.86242" lon="6.8578">
        <ele>810.7</ele>
        <time>2021-09-19T10:58:40Z</time>
      </trkpt>
      <trkpt lat="43.86243" lon="6.85787">
        <ele>810.5</ele>
        <time>2021-09-19T10:58:41Z</time>
      </trkpt>
      <trkpt lat="43.86246" lon="6.85796">
        <ele>810.2</ele>
        <time>2021-09-19T10:58:42Z</time>
      </trkpt>
      <trkpt lat="43.86249" lon="6.85808">
        <ele>809.7</ele>
        <time>2021-09-19T10:58:44Z</time>
      </trkpt>
      <trkpt lat="43.86254" lon="6.85818">
        <ele>809.1</ele>
        <time>2021-09-19T10:58:45Z</time>
      </trkpt>
      <trkpt lat="43.86256" lon="6.85823">
        <ele>808.7</ele>
        <time>2021-09-19T10:58:46Z</time>
      </trkpt>
      <trkpt lat="43.86257" lon="6.8583">
        <ele>808.2</ele>
        <time>2021-09-19T10:58:47Z</time>
      </trkpt>
      <trkpt lat="43.86258" lon="6.85836">
        <ele>807.7</ele>
        <time>2021-09-19T10:58:49Z</time>
      </trkpt>
      <trkpt lat="43.86258" lon="6.85845">
        <ele>806.9</ele>
        <time>2021-09-19T10:58:50Z</time>
      </trkpt>
      <trkpt lat="43.86258" lon="6.85861">
        <ele>805.1</ele>
        <time>2021-09-19T10:58:52Z</time>
      </trkpt>
      <trkpt lat="43.86259" lon="6.85871">
        <ele>804</ele>
        <time>2021-09-19T10:58:53Z</time>
      </trkpt>
      <trkpt lat="43.86259" lon="6.85893">
        <ele>802.1</ele>
        <time>2021-09-19T10:58:55Z</time>
      </trkpt>
      <trkpt lat="43.86259" lon="6.85914">
        <ele>800.1</ele>
        <time>2021-09-19T10:58:57Z</time>
      </trkpt>
      <trkpt lat="43.86259" lon="6.85924">
        <ele>798.9</ele>
        <time>2021-09-19T10:58:58Z</time>
      </trkpt>
      <trkpt lat="43.86257" lon="6.85945">
        <ele>796.5</ele>
        <time>2021-09-19T10:59:00Z</time>
      </trkpt>
      <trkpt lat="43.86257" lon="6.85966">
        <ele>794.3</ele>
        <time>2021-09-19T10:59:02Z</time>
      </trkpt>
      <trkpt lat="43.86257" lon="6.85979">
        <ele>793.7</ele>
        <time>2021-09-19T10:59:03Z</time>
      </trkpt>
      <trkpt lat="43.86255" lon="6.86006">
        <ele>793.2</ele>
        <time>2021-09-19T10:59:05Z</time>
      </trkpt>
      <trkpt lat="43.86254" lon="6.86031">
        <ele>793.8</ele>
        <time>2021-09-19T10:59:07Z</time>
      </trkpt>
      <trkpt lat="43.86254" lon="6.86043">
        <ele>794.2</ele>
        <time>2021-09-19T10:59:08Z</time>
      </trkpt>
      <trkpt lat="43.86252" lon="6.8606">
        <ele>794.5</ele>
        <time>2021-09-19T10:59:10Z</time>
      </trkpt>
      <trkpt lat="43.86254" lon="6.86067">
        <ele>794.7</ele>
        <time>2021-09-19T10:59:11Z</time>
      </trkpt>
      <trkpt lat="43.86256" lon="6.8607">
        <ele>794.8</ele>
        <time>2021-09-19T10:59:13Z</time>
      </trkpt>
      <trkpt lat="43.86253" lon="6.8607">
        <ele>794.9</ele>
        <time>2021-09-19T10:59:15Z</time>
      </trkpt>
      <trkpt lat="43.8625" lon="6.86068">
        <ele>795</ele>
        <time>2021-09-19T10:59:17Z</time>
      </trkpt>
      <trkpt lat="43.86248" lon="6.86066">
        <ele>795</ele>
        <time>2021-09-19T10:59:18Z</time>
      </trkpt>
      <trkpt lat="43.86247" lon="6.86065">
        <ele>795.1</ele>
        <time>2021-09-19T10:59:19Z</time>
      </trkpt>
      <trkpt lat="43.86246" lon="6.86065">
        <ele>795.1</ele>
        <time>2021-09-19T10:59:20Z</time>
      </trkpt>
      <trkpt lat="43.86241" lon="6.86063">
        <ele>795.1</ele>
        <time>2021-09-19T10:59:22Z</time>
      </trkpt>
      <trkpt lat="43.86238" lon="6.86062">
        <ele>795.2</ele>
        <time>2021-09-19T10:59:23Z</time>
      </trkpt>
      <trkpt lat="43.86236" lon="6.86062">
        <ele>795.2</ele>
        <time>2021-09-19T10:59:24Z</time>
      </trkpt>
      <trkpt lat="43.86234" lon="6.86061">
        <ele>795.2</ele>
        <time>2021-09-19T10:59:25Z</time>
      </trkpt>
      <trkpt lat="43.86224" lon="6.8607">
        <ele>795.3</ele>
        <time>2021-09-19T10:59:31Z</time>
      </trkpt>
      <trkpt lat="43.86217" lon="6.8608">
        <ele>795.7</ele>
        <time>2021-09-19T10:59:33Z</time>
      </trkpt>
      <trkpt lat="43.86213" lon="6.86087">
        <ele>796.1</ele>
        <time>2021-09-19T10:59:35Z</time>
      </trkpt>
      <trkpt lat="43.8621" lon="6.8609">
        <ele>796.3</ele>
        <time>2021-09-19T10:59:36Z</time>
      </trkpt>
      <trkpt lat="43.86207" lon="6.86094">
        <ele>796.6</ele>
        <time>2021-09-19T10:59:37Z</time>
      </trkpt>
      <trkpt lat="43.86205" lon="6.861">
        <ele>796.8</ele>
        <time>2021-09-19T10:59:38Z</time>
      </trkpt>
      <trkpt lat="43.86204" lon="6.86104">
        <ele>797</ele>
        <time>2021-09-19T10:59:39Z</time>
      </trkpt>
      <trkpt lat="43.86204" lon="6.86108">
        <ele>797.1</ele>
        <time>2021-09-19T10:59:40Z</time>
      </trkpt>
      <trkpt lat="43.86204" lon="6.8611">
        <ele>797.2</ele>
        <time>2021-09-19T10:59:42Z</time>
      </trkpt>
      <trkpt lat="43.86204" lon="6.86111">
        <ele>797.3</ele>
        <time>2021-09-19T10:59:43Z</time>
      </trkpt>
      <trkpt lat="43.86204" lon="6.86113">
        <ele>797.3</ele>
        <time>2021-09-19T10:59:44Z</time>
      </trkpt>
      <trkpt lat="43.86204" lon="6.86114">
        <ele>797.4</ele>
        <time>2021-09-19T10:59:45Z</time>
      </trkpt>
      <trkpt lat="43.86204" lon="6.86116">
        <ele>797.5</ele>
        <time>2021-09-19T10:59:46Z</time>
      </trkpt>
      <trkpt lat="43.86204" lon="6.86117">
        <ele>797.5</ele>
        <time>2021-09-19T10:59:47Z</time>
      </trkpt>
      <trkpt lat="43.86203" lon="6.86116">
        <ele>797.6</ele>
        <time>2021-09-19T10:59:48Z</time>
      </trkpt>
      <trkpt lat="43.86201" lon="6.86116">
        <ele>797.8</ele>
        <time>2021-09-19T10:59:49Z</time>
      </trkpt>
      <trkpt lat="43.86201" lon="6.86116">
        <ele>797.8</ele>
        <time>2021-09-19T10:59:50Z</time>
      </trkpt>
      <trkpt lat="43.862" lon="6.86116">
        <ele>797.9</ele>
        <time>2021-09-19T10:59:51Z</time>
      </trkpt>
      <trkpt lat="43.862" lon="6.86118">
        <ele>797.9</ele>
        <time>2021-09-19T10:59:52Z</time>
      </trkpt>
      <trkpt lat="43.86201" lon="6.8612">
        <ele>798.1</ele>
        <time>2021-09-19T10:59:53Z</time>
      </trkpt>
      <trkpt lat="43.86201" lon="6.86124">
        <ele>798.3</ele>
        <time>2021-09-19T10:59:54Z</time>
      </trkpt>
      <trkpt lat="43.86201" lon="6.86125">
        <ele>798.4</ele>
        <time>2021-09-19T10:59:55Z</time>
      </trkpt>
      <trkpt lat="43.86201" lon="6.86127">
        <ele>798.5</ele>
        <time>2021-09-19T10:59:57Z</time>
      </trkpt>
      <trkpt lat="43.862" lon="6.86128">
        <ele>798.6</ele>
        <time>2021-09-19T10:59:58Z</time>
      </trkpt>
      <trkpt lat="43.86196" lon="6.86127">
        <ele>799</ele>
        <time>2021-09-19T11:00:00Z</time>
      </trkpt>
      <trkpt lat="43.86196" lon="6.86128">
        <ele>799</ele>
        <time>2021-09-19T11:00:01Z</time>
      </trkpt>
      <trkpt lat="43.86195" lon="6.86129">
        <ele>799.1</ele>
        <time>2021-09-19T11:00:02Z</time>
      </trkpt>
      <trkpt lat="43.86194" lon="6.8613">
        <ele>799.2</ele>
        <time>2021-09-19T11:00:03Z</time>
      </trkpt>
      <trkpt lat="43.86192" lon="6.8613">
        <ele>799.4</ele>
        <time>2021-09-19T11:00:05Z</time>
      </trkpt>
      <trkpt lat="43.86191" lon="6.8613">
        <ele>799.5</ele>
        <time>2021-09-19T11:00:06Z</time>
      </trkpt>
      <trkpt lat="43.8619" lon="6.8613">
        <ele>799.5</ele>
        <time>2021-09-19T11:00:07Z</time>
      </trkpt>
      <trkpt lat="43.86189" lon="6.86131">
        <ele>799.6</ele>
        <time>2021-09-19T11:00:08Z</time>
      </trkpt>
      <trkpt lat="43.86189" lon="6.86131">
        <ele>799.6</ele>
        <time>2021-09-19T11:00:09Z</time>
      </trkpt>
      <trkpt lat="43.86189" lon="6.86131">
        <ele>799.6</ele>
        <time>2021-09-19T11:00:10Z</time>
      </trkpt>
      <trkpt lat="43.86188" lon="6.86131">
        <ele>799.6</ele>
        <time>2021-09-19T11:00:12Z</time>
      </trkpt>
      <trkpt lat="43.86198" lon="6.86157">
        <ele>800.6</ele>
        <time>2021-09-19T11:00:24Z</time>
      </trkpt>
      <trkpt lat="43.86199" lon="6.86161">
        <ele>800.7</ele>
        <time>2021-09-19T11:00:26Z</time>
      </trkpt>
      <trkpt lat="43.86201" lon="6.86165">
        <ele>800.8</ele>
        <time>2021-09-19T11:00:27Z</time>
      </trkpt>
      <trkpt lat="43.86202" lon="6.86168">
        <ele>800.9</ele>
        <time>2021-09-19T11:00:28Z</time>
      </trkpt>
      <trkpt lat="43.86204" lon="6.86172">
        <ele>801</ele>
        <time>2021-09-19T11:00:30Z</time>
      </trkpt>
      <trkpt lat="43.86206" lon="6.86175">
        <ele>801.2</ele>
        <time>2021-09-19T11:00:31Z</time>
      </trkpt>
      <trkpt lat="43.86208" lon="6.86179">
        <ele>801.4</ele>
        <time>2021-09-19T11:00:32Z</time>
      </trkpt>
      <trkpt lat="43.86208" lon="6.86181">
        <ele>801.4</ele>
        <time>2021-09-19T11:00:33Z</time>
      </trkpt>
      <trkpt lat="43.86209" lon="6.86183">
        <ele>801.5</ele>
        <time>2021-09-19T11:00:35Z</time>
      </trkpt>
      <trkpt lat="43.86209" lon="6.86185">
        <ele>801.6</ele>
        <time>2021-09-19T11:00:36Z</time>
      </trkpt>
      <trkpt lat="43.8621" lon="6.86187">
        <ele>801.7</ele>
        <time>2021-09-19T11:00:37Z</time>
      </trkpt>
      <trkpt lat="43.8621" lon="6.86187">
        <ele>801.7</ele>
        <time>2021-09-19T11:00:38Z</time>
      </trkpt>
      <trkpt lat="43.86209" lon="6.86187">
        <ele>801.7</ele>
        <time>2021-09-19T11:00:39Z</time>
      </trkpt>
      <trkpt lat="43.86209" lon="6.86187">
        <ele>801.8</ele>
        <time>2021-09-19T11:00:41Z</time>
      </trkpt>
      <trkpt lat="43.86208" lon="6.86189">
        <ele>801.9</ele>
        <time>2021-09-19T11:00:42Z</time>
      </trkpt>
      <trkpt lat="43.86209" lon="6.86192">
        <ele>802</ele>
        <time>2021-09-19T11:00:43Z</time>
      </trkpt>
      <trkpt lat="43.86209" lon="6.86194">
        <ele>802.1</ele>
        <time>2021-09-19T11:00:45Z</time>
      </trkpt>
      <trkpt lat="43.8621" lon="6.86199">
        <ele>802.2</ele>
        <time>2021-09-19T11:00:46Z</time>
      </trkpt>
      <trkpt lat="43.86211" lon="6.862">
        <ele>802.2</ele>
        <time>2021-09-19T11:00:47Z</time>
      </trkpt>
      <trkpt lat="43.86211" lon="6.86202">
        <ele>802.3</ele>
        <time>2021-09-19T11:00:49Z</time>
      </trkpt>
      <trkpt lat="43.86211" lon="6.86203">
        <ele>802.3</ele>
        <time>2021-09-19T11:00:50Z</time>
      </trkpt>
      <trkpt lat="43.86213" lon="6.86203">
        <ele>802.3</ele>
        <time>2021-09-19T11:00:51Z</time>
      </trkpt>
      <trkpt lat="43.86214" lon="6.86204">
        <ele>802.3</ele>
        <time>2021-09-19T11:00:53Z</time>
      </trkpt>
      <trkpt lat="43.86215" lon="6.86205">
        <ele>802.3</ele>
        <time>2021-09-19T11:00:54Z</time>
      </trkpt>
      <trkpt lat="43.86215" lon="6.86206">
        <ele>802.3</ele>
        <time>2021-09-19T11:00:55Z</time>
      </trkpt>
      <trkpt lat="43.86216" lon="6.86208">
        <ele>802.3</ele>
        <time>2021-09-19T11:00:57Z</time>
      </trkpt>
      <trkpt lat="43.86217" lon="6.86208">
        <ele>802.3</ele>
        <time>2021-09-19T11:00:58Z</time>
      </trkpt>
      <trkpt lat="43.86217" lon="6.86209">
        <ele>802.3</ele>
        <time>2021-09-19T11:00:59Z</time>
      </trkpt>
      <trkpt lat="43.86225" lon="6.86233">
        <ele>801.3</ele>
        <time>2021-09-19T11:01:08Z</time>
      </trkpt>
      <trkpt lat="43.86226" lon="6.86241">
        <ele>800.8</ele>
        <time>2021-09-19T11:01:10Z</time>
      </trkpt>
      <trkpt lat="43.86228" lon="6.86249">
        <ele>800.1</ele>
        <time>2021-09-19T11:01:11Z</time>
      </trkpt>
      <trkpt lat="43.8623" lon="6.86258">
        <ele>799.5</ele>
        <time>2021-09-19T11:01:12Z</time>
      </trkpt>
      <trkpt lat="43.86232" lon="6.86268">
        <ele>799</ele>
        <time>2021-09-19T11:01:13Z</time>
      </trkpt>
      <trkpt lat="43.86233" lon="6.86276">
        <ele>798.5</ele>
        <time>2021-09-19T11:01:14Z</time>
      </trkpt>
      <trkpt lat="43.86232" lon="6.86294">
        <ele>797.6</ele>
        <time>2021-09-19T11:01:16Z</time>
      </trkpt>
      <trkpt lat="43.86225" lon="6.86311">
        <ele>796.2</ele>
        <time>2021-09-19T11:01:18Z</time>
      </trkpt>
      <trkpt lat="43.86218" lon="6.86325">
        <ele>794.9</ele>
        <time>2021-09-19T11:01:20Z</time>
      </trkpt>
      <trkpt lat="43.86215" lon="6.86332">
        <ele>794.2</ele>
        <time>2021-09-19T11:01:21Z</time>
      </trkpt>
      <trkpt lat="43.86211" lon="6.86339">
        <ele>793.6</ele>
        <time>2021-09-19T11:01:22Z</time>
      </trkpt>
      <trkpt lat="43.86204" lon="6.86354">
        <ele>792.4</ele>
        <time>2021-09-19T11:01:24Z</time>
      </trkpt>
      <trkpt lat="43.86197" lon="6.86368">
        <ele>790.8</ele>
        <time>2021-09-19T11:01:26Z</time>
      </trkpt>
      <trkpt lat="43.86193" lon="6.86373">
        <ele>791.4</ele>
        <time>2021-09-19T11:01:27Z</time>
      </trkpt>
      <trkpt lat="43.86188" lon="6.86379">
        <ele>792.7</ele>
        <time>2021-09-19T11:01:29Z</time>
      </trkpt>
      <trkpt lat="43.86185" lon="6.86384">
        <ele>792.7</ele>
        <time>2021-09-19T11:01:30Z</time>
      </trkpt>
      <trkpt lat="43.86183" lon="6.86389">
        <ele>792.5</ele>
        <time>2021-09-19T11:01:31Z</time>
      </trkpt>
      <trkpt lat="43.86182" lon="6.86392">
        <ele>793.4</ele>
        <time>2021-09-19T11:01:32Z</time>
      </trkpt>
      <trkpt lat="43.86182" lon="6.86393">
        <ele>793.2</ele>
        <time>2021-09-19T11:01:33Z</time>
      </trkpt>
      <trkpt lat="43.86182" lon="6.86395">
        <ele>793.4</ele>
        <time>2021-09-19T11:01:34Z</time>
      </trkpt>
      <trkpt lat="43.86183" lon="6.86398">
        <ele>792.6</ele>
        <time>2021-09-19T11:01:36Z</time>
      </trkpt>
      <trkpt lat="43.86183" lon="6.86405">
        <ele>792.1</ele>
        <time>2021-09-19T11:01:38Z</time>
      </trkpt>
      <trkpt lat="43.86183" lon="6.86411">
        <ele>792</ele>
        <time>2021-09-19T11:01:39Z</time>
      </trkpt>
      <trkpt lat="43.86183" lon="6.86416">
        <ele>791.9</ele>
        <time>2021-09-19T11:01:40Z</time>
      </trkpt>
      <trkpt lat="43.86182" lon="6.86417">
        <ele>792.7</ele>
        <time>2021-09-19T11:01:41Z</time>
      </trkpt>
      <trkpt lat="43.86181" lon="6.86418">
        <ele>792.6</ele>
        <time>2021-09-19T11:01:42Z</time>
      </trkpt>
      <trkpt lat="43.86178" lon="6.86421">
        <ele>793.5</ele>
        <time>2021-09-19T11:01:44Z</time>
      </trkpt>
      <trkpt lat="43.86173" lon="6.86421">
        <ele>795</ele>
        <time>2021-09-19T11:01:46Z</time>
      </trkpt>
      <trkpt lat="43.86172" lon="6.86421">
        <ele>795.2</ele>
        <time>2021-09-19T11:01:48Z</time>
      </trkpt>
      <trkpt lat="43.86172" lon="6.86421">
        <ele>795.4</ele>
        <time>2021-09-19T11:01:50Z</time>
      </trkpt>
      <trkpt lat="43.86171" lon="6.86422">
        <ele>795.7</ele>
        <time>2021-09-19T11:01:51Z</time>
      </trkpt>
      <trkpt lat="43.8617" lon="6.86424">
        <ele>795.6</ele>
        <time>2021-09-19T11:01:53Z</time>
      </trkpt>
      <trkpt lat="43.8617" lon="6.86425">
        <ele>795.9</ele>
        <time>2021-09-19T11:01:55Z</time>
      </trkpt>
      <trkpt lat="43.86115" lon="6.86516">
        <ele>805.9</ele>
        <time>2021-09-19T11:05:16Z</time>
      </trkpt>
      <trkpt lat="43.86115" lon="6.86515">
        <ele>806</ele>
        <time>2021-09-19T11:05:17Z</time>
      </trkpt>
      <trkpt lat="43.86115" lon="6.86514">
        <ele>806</ele>
        <time>2021-09-19T11:05:18Z</time>
      </trkpt>
      <trkpt lat="43.86115" lon="6.86514">
        <ele>806</ele>
        <time>2021-09-19T11:05:20Z</time>
      </trkpt>
      <trkpt lat="43.86114" lon="6.86513">
        <ele>806.1</ele>
        <time>2021-09-19T11:05:21Z</time>
      </trkpt>
      <trkpt lat="43.86114" lon="6.86511">
        <ele>806.2</ele>
        <time>2021-09-19T11:05:22Z</time>
      </trkpt>
      <trkpt lat="43.86112" lon="6.86509">
        <ele>806.4</ele>
        <time>2021-09-19T11:05:23Z</time>
      </trkpt>
      <trkpt lat="43.86111" lon="6.86508">
        <ele>806.5</ele>
        <time>2021-09-19T11:05:24Z</time>
      </trkpt>
      <trkpt lat="43.8611" lon="6.86507">
        <ele>806.6</ele>
        <time>2021-09-19T11:05:26Z</time>
      </trkpt>
      <trkpt lat="43.86109" lon="6.86506">
        <ele>806.8</ele>
        <time>2021-09-19T11:05:28Z</time>
      </trkpt>
      <trkpt lat="43.86108" lon="6.86504">
        <ele>806.9</ele>
        <time>2021-09-19T11:05:29Z</time>
      </trkpt>
      <trkpt lat="43.86107" lon="6.86503">
        <ele>807</ele>
        <time>2021-09-19T11:05:30Z</time>
      </trkpt>
      <trkpt lat="43.86106" lon="6.86502">
        <ele>807.1</ele>
        <time>2021-09-19T11:05:31Z</time>
      </trkpt>
      <trkpt lat="43.86106" lon="6.86501">
        <ele>807.2</ele>
        <time>2021-09-19T11:05:32Z</time>
      </trkpt>
      <trkpt lat="43.86105" lon="6.865">
        <ele>807.2</ele>
        <time>2021-09-19T11:05:34Z</time>
      </trkpt>
      <trkpt lat="43.86105" lon="6.865">
        <ele>807.3</ele>
        <time>2021-09-19T11:05:35Z</time>
      </trkpt>
      <trkpt lat="43.86104" lon="6.865">
        <ele>807.3</ele>
        <time>2021-09-19T11:05:36Z</time>
      </trkpt>
      <trkpt lat="43.86104" lon="6.86499">
        <ele>807.4</ele>
        <time>2021-09-19T11:05:37Z</time>
      </trkpt>
      <trkpt lat="43.86104" lon="6.86499">
        <ele>807.4</ele>
        <time>2021-09-19T11:05:38Z</time>
      </trkpt>
      <trkpt lat="43.86103" lon="6.86499">
        <ele>807.4</ele>
        <time>2021-09-19T11:05:39Z</time>
      </trkpt>
      <trkpt lat="43.86115" lon="6.86446">
        <ele>810.7</ele>
        <time>2021-09-19T11:06:30Z</time>
      </trkpt>
      <trkpt lat="43.86114" lon="6.8644">
        <ele>811</ele>
        <time>2021-09-19T11:06:31Z</time>
      </trkpt>
      <trkpt lat="43.86112" lon="6.86436">
        <ele>811.1</ele>
        <time>2021-09-19T11:06:32Z</time>
      </trkpt>
      <trkpt lat="43.86112" lon="6.8643">
        <ele>811.3</ele>
        <time>2021-09-19T11:06:34Z</time>
      </trkpt>
      <trkpt lat="43.86111" lon="6.86428">
        <ele>811.3</ele>
        <time>2021-09-19T11:06:35Z</time>
      </trkpt>
      <trkpt lat="43.86111" lon="6.86425">
        <ele>811.4</ele>
        <time>2021-09-19T11:06:36Z</time>
      </trkpt>
      <trkpt lat="43.86109" lon="6.86421">
        <ele>811.5</ele>
        <time>2021-09-19T11:06:37Z</time>
      </trkpt>
      <trkpt lat="43.86108" lon="6.86418">
        <ele>811.5</ele>
        <time>2021-09-19T11:06:38Z</time>
      </trkpt>
      <trkpt lat="43.86105" lon="6.86414">
        <ele>811.6</ele>
        <time>2021-09-19T11:06:40Z</time>
      </trkpt>
      <trkpt lat="43.861" lon="6.86412">
        <ele>811.6</ele>
        <time>2021-09-19T11:06:41Z</time>
      </trkpt>
      <trkpt lat="43.86095" lon="6.8641">
        <ele>811.7</ele>
        <time>2021-09-19T11:06:43Z</time>
      </trkpt>
      <trkpt lat="43.86091" lon="6.86409">
        <ele>811.6</ele>
        <time>2021-09-19T11:06:44Z</time>
      </trkpt>
      <trkpt lat="43.86089" lon="6.86403">
        <ele>811.6</ele>
        <time>2021-09-19T11:06:45Z</time>
      </trkpt>
      <trkpt lat="43.86085" lon="6.86397">
        <ele>811.4</ele>
        <time>2021-09-19T11:06:47Z</time>
      </trkpt>
      <trkpt lat="43.86083" lon="6.86393">
        <ele>811.3</ele>
        <time>2021-09-19T11:06:48Z</time>
      </trkpt>
      <trkpt lat="43.86083" lon="6.86386">
        <ele>811.2</ele>
        <time>2021-09-19T11:06:49Z</time>
      </trkpt>
      <trkpt lat="43.86084" lon="6.86381">
        <ele>811.1</ele>
        <time>2021-09-19T11:06:51Z</time>
      </trkpt>
      <trkpt lat="43.86084" lon="6.86377">
        <ele>811.1</ele>
        <time>2021-09-19T11:06:52Z</time>
      </trkpt>
      <trkpt lat="43.86087" lon="6.86369">
        <ele>811.1</ele>
        <time>2021-09-19T11:06:53Z</time>
      </trkpt>
      <trkpt lat="43.8609" lon="6.86364">
        <ele>811.2</ele>
        <time>2021-09-19T11:06:55Z</time>
      </trkpt>
      <trkpt lat="43.86091" lon="6.86362">
        <ele>811.2</ele>
        <time>2021-09-19T11:06:56Z</time>
      </trkpt>
      <trkpt lat="43.86092" lon="6.8636">
        <ele>811.3</ele>
        <time>2021-09-19T11:06:57Z</time>
      </trkpt>
      <trkpt lat="43.86093" lon="6.86356">
        <ele>811.4</ele>
        <time>2021-09-19T11:06:58Z</time>
      </trkpt>
      <trkpt lat="43.86094" lon="6.86354">
        <ele>811.5</ele>
        <time>2021-09-19T11:06:59Z</time>
      </trkpt>
      <trkpt lat="43.86094" lon="6.86352">
        <ele>811.6</ele>
        <time>2021-09-19T11:07:00Z</time>
      </trkpt>
      <trkpt lat="43.86095" lon="6.86351">
        <ele>811.6</ele>
        <time>2021-09-19T11:07:02Z</time>
      </trkpt>
      <trkpt lat="43.86093" lon="6.86352">
        <ele>811.7</ele>
        <time>2021-09-19T11:07:03Z</time>
      </trkpt>
      <trkpt lat="43.86091" lon="6.86353">
        <ele>811.9</ele>
        <time>2021-09-19T11:07:04Z</time>
      </trkpt>
      <trkpt lat="43.86089" lon="6.86353">
        <ele>811.9</ele>
        <time>2021-09-19T11:07:06Z</time>
      </trkpt>
      <trkpt lat="43.86089" lon="6.86353">
        <ele>812</ele>
        <time>2021-09-19T11:07:07Z</time>
      </trkpt>
      <trkpt lat="43.86089" lon="6.86353">
        <ele>812</ele>
        <time>2021-09-19T11:07:08Z</time>
      </trkpt>
      <trkpt lat="43.86089" lon="6.86352">
        <ele>812</ele>
        <time>2021-09-19T11:07:09Z</time>
      </trkpt>
      <trkpt lat="43.86088" lon="6.86352">
        <ele>812</ele>
        <time>2021-09-19T11:07:11Z</time>
      </trkpt>
      <trkpt lat="43.86108" lon="6.8608">
        <ele>830.6</ele>
        <time>2021-09-19T11:10:17Z</time>
      </trkpt>
      <trkpt lat="43.86107" lon="6.86076">
        <ele>830.8</ele>
        <time>2021-09-19T11:10:19Z</time>
      </trkpt>
      <trkpt lat="43.86107" lon="6.86075">
        <ele>830.8</ele>
        <time>2021-09-19T11:10:20Z</time>
      </trkpt>
      <trkpt lat="43.86107" lon="6.86072">
        <ele>831</ele>
        <time>2021-09-19T11:10:22Z</time>
      </trkpt>
      <trkpt lat="43.86107" lon="6.86069">
        <ele>831.2</ele>
        <time>2021-09-19T11:10:24Z</time>
      </trkpt>
      <trkpt lat="43.86107" lon="6.86064">
        <ele>831.6</ele>
        <time>2021-09-19T11:10:26Z</time>
      </trkpt>
      <trkpt lat="43.86108" lon="6.86063">
        <ele>831.6</ele>
        <time>2021-09-19T11:10:27Z</time>
      </trkpt>
      <trkpt lat="43.86108" lon="6.8606">
        <ele>831.8</ele>
        <time>2021-09-19T11:10:29Z</time>
      </trkpt>
      <trkpt lat="43.86107" lon="6.86058">
        <ele>831.9</ele>
        <time>2021-09-19T11:10:30Z</time>
      </trkpt>
      <trkpt lat="43.86107" lon="6.86056">
        <ele>832</ele>
        <time>2021-09-19T11:10:31Z</time>
      </trkpt>
      <trkpt lat="43.86108" lon="6.86053">
        <ele>832.2</ele>
        <time>2021-09-19T11:10:32Z</time>
      </trkpt>
      <trkpt lat="43.86108" lon="6.86051">
        <ele>832.4</ele>
        <time>2021-09-19T11:10:33Z</time>
      </trkpt>
      <trkpt lat="43.86108" lon="6.86049">
        <ele>832.5</ele>
        <time>2021-09-19T11:10:34Z</time>
      </trkpt>
      <trkpt lat="43.86109" lon="6.86047">
        <ele>832.6</ele>
        <time>2021-09-19T11:10:36Z</time>
      </trkpt>
      <trkpt lat="43.86109" lon="6.86045">
        <ele>832.8</ele>
        <time>2021-09-19T11:10:38Z</time>
      </trkpt>
      <trkpt lat="43.86109" lon="6.86043">
        <ele>832.9</ele>
        <time>2021-09-19T11:10:39Z</time>
      </trkpt>
      <trkpt lat="43.86109" lon="6.86041">
        <ele>833.1</ele>
        <time>2021-09-19T11:10:40Z</time>
      </trkpt>
      <trkpt lat="43.86109" lon="6.86039">
        <ele>833.2</ele>
        <time>2021-09-19T11:10:41Z</time>
      </trkpt>
      <trkpt lat="43.86109" lon="6.86037">
        <ele>833.3</ele>
        <time>2021-09-19T11:10:42Z</time>
      </trkpt>
      <trkpt lat="43.86109" lon="6.86034">
        <ele>833.5</ele>
        <time>2021-09-19T11:10:44Z</time>
      </trkpt>
      <trkpt lat="43.86108" lon="6.86033">
        <ele>833.6</ele>
        <time>2021-09-19T11:10:45Z</time>
      </trkpt>
      <trkpt lat="43.86108" lon="6.8603">
        <ele>833.7</ele>
        <time>2021-09-19T11:10:46Z</time>
      </trkpt>
      <trkpt lat="43.86107" lon="6.86028">
        <ele>833.9</ele>
        <time>2021-09-19T11:10:48Z</time>
      </trkpt>
      <trkpt lat="43.86106" lon="6.86026">
        <ele>834.1</ele>
        <time>2021-09-19T11:10:49Z</time>
      </trkpt>
      <trkpt lat="43.86105" lon="6.86024">
        <ele>834.1</ele>
        <time>2021-09-19T11:10:50Z</time>
      </trkpt>
      <trkpt lat="43.86104" lon="6.86023">
        <ele>834.3</ele>
        <time>2021-09-19T11:10:52Z</time>
      </trkpt>
      <trkpt lat="43.86103" lon="6.86021">
        <ele>834.4</ele>
        <time>2021-09-19T11:10:53Z</time>
      </trkpt>
      <trkpt lat="43.86101" lon="6.86018">
        <ele>834.7</ele>
        <time>2021-09-19T11:10:55Z</time>
      </trkpt>
      <trkpt lat="43.861" lon="6.86017">
        <ele>834.7</ele>
        <time>2021-09-19T11:10:56Z</time>
      </trkpt>
      <trkpt lat="43.86097" lon="6.86016">
        <ele>834.9</ele>
        <time>2021-09-19T11:10:57Z</time>
      </trkpt>
      <trkpt lat="43.86096" lon="6.86015">
        <ele>835</ele>
        <time>2021-09-19T11:10:58Z</time>
      </trkpt>
      <trkpt lat="43.86092" lon="6.86013">
        <ele>835.4</ele>
        <time>2021-09-19T11:11:00Z</time>
      </trkpt>
      <trkpt lat="43.8609" lon="6.86012">
        <ele>835.4</ele>
        <time>2021-09-19T11:11:01Z</time>
      </trkpt>
      <trkpt lat="43.86089" lon="6.86011">
        <ele>835.6</ele>
        <time>2021-09-19T11:11:02Z</time>
      </trkpt>
      <trkpt lat="43.86086" lon="6.86009">
        <ele>835.8</ele>
        <time>2021-09-19T11:11:03Z</time>
      </trkpt>
      <trkpt lat="43.86085" lon="6.86008">
        <ele>835.9</ele>
        <time>2021-09-19T11:11:04Z</time>
      </trkpt>
      <trkpt lat="43.86082" lon="6.86001">
        <ele>836.4</ele>
        <time>2021-09-19T11:11:06Z</time>
      </trkpt>
      <trkpt lat="43.86081" lon="6.85997">
        <ele>836.7</ele>
        <time>2021-09-19T11:11:07Z</time>
      </trkpt>
      <trkpt lat="43.8608" lon="6.85991">
        <ele>837.1</ele>
        <time>2021-09-19T11:11:08Z</time>
      </trkpt>
      <trkpt lat="43.8608" lon="6.85982">
        <ele>837.7</ele>
        <time>2021-09-19T11:11:11Z</time>
      </trkpt>
      <trkpt lat="43.8608" lon="6.85977">
        <ele>838</ele>
        <time>2021-09-19T11:11:12Z</time>
      </trkpt>
      <trkpt lat="43.8608" lon="6.85975">
        <ele>838.1</ele>
        <time>2021-09-19T11:11:13Z</time>
      </trkpt>
      <trkpt lat="43.86078" lon="6.85971">
        <ele>838.4</ele>
        <time>2021-09-19T11:11:15Z</time>
      </trkpt>
      <trkpt lat="43.86077" lon="6.8597">
        <ele>838.5</ele>
        <time>2021-09-19T11:11:16Z</time>
      </trkpt>
      <trkpt lat="43.86077" lon="6.85969">
        <ele>838.6</ele>
        <time>2021-09-19T11:11:18Z</time>
      </trkpt>
      <trkpt lat="43.86076" lon="6.85969">
        <ele>838.6</ele>
        <time>2021-09-19T11:11:19Z</time>
      </trkpt>
      <trkpt lat="43.86076" lon="6.85969">
        <ele>838.6</ele>
        <time>2021-09-19T11:11:21Z</time>
      </trkpt>
      <trkpt lat="43.86076" lon="6.8597">
        <ele>838.7</ele>
        <time>2021-09-19T11:11:22Z</time>
      </trkpt>
      <trkpt lat="43.86075" lon="6.8597">
        <ele>838.7</ele>
        <time>2021-09-19T11:11:23Z</time>
      </trkpt>
      <trkpt lat="43.86074" lon="6.8597">
        <ele>838.8</ele>
        <time>2021-09-19T11:11:25Z</time>
      </trkpt>
      <trkpt lat="43.86077" lon="6.85881">
        <ele>844.2</ele>
        <time>2021-09-19T11:12:19Z</time>
      </trkpt>
      <trkpt lat="43.86077" lon="6.85877">
        <ele>844.5</ele>
        <time>2021-09-19T11:12:20Z</time>
      </trkpt>
      <trkpt lat="43.86078" lon="6.85871">
        <ele>844.8</ele>
        <time>2021-09-19T11:12:22Z</time>
      </trkpt>
      <trkpt lat="43.86077" lon="6.85869">
        <ele>845</ele>
        <time>2021-09-19T11:12:23Z</time>
      </trkpt>
      <trkpt lat="43.86077" lon="6.85866">
        <ele>845.2</ele>
        <time>2021-09-19T11:12:25Z</time>
      </trkpt>
      <trkpt lat="43.86076" lon="6.85862">
        <ele>845.4</ele>
        <time>2021-09-19T11:12:27Z</time>
      </trkpt>
      <trkpt lat="43.86075" lon="6.8586">
        <ele>845.5</ele>
        <time>2021-09-19T11:12:28Z</time>
      </trkpt>
      <trkpt lat="43.86075" lon="6.85858">
        <ele>845.7</ele>
        <time>2021-09-19T11:12:29Z</time>
      </trkpt>
      <trkpt lat="43.86075" lon="6.85855">
        <ele>845.8</ele>
        <time>2021-09-19T11:12:30Z</time>
      </trkpt>
      <trkpt lat="43.86075" lon="6.85852">
        <ele>846.1</ele>
        <time>2021-09-19T11:12:32Z</time>
      </trkpt>
      <trkpt lat="43.86076" lon="6.85852">
        <ele>846.1</ele>
        <time>2021-09-19T11:12:33Z</time>
      </trkpt>
      <trkpt lat="43.86076" lon="6.85852">
        <ele>846.1</ele>
        <time>2021-09-19T11:12:34Z</time>
      </trkpt>
      <trkpt lat="43.86076" lon="6.85852">
        <ele>846.2</ele>
        <time>2021-09-19T11:12:36Z</time>
      </trkpt>
      <trkpt lat="43.86077" lon="6.85852">
        <ele>846.2</ele>
        <time>2021-09-19T11:12:37Z</time>
      </trkpt>
      <trkpt lat="43.86077" lon="6.85851">
        <ele>846.2</ele>
        <time>2021-09-19T11:12:38Z</time>
      </trkpt>
      <trkpt lat="43.86077" lon="6.85851">
        <ele>846.2</ele>
        <time>2021-09-19T11:12:39Z</time>
      </trkpt>
      <trkpt lat="43.86077" lon="6.85851">
        <ele>846.3</ele>
        <time>2021-09-19T11:12:40Z</time>
      </trkpt>
      <trkpt lat="43.86077" lon="6.85851">
        <ele>846.3</ele>
        <time>2021-09-19T11:12:42Z</time>
      </trkpt>
      <trkpt lat="43.86048" lon="6.85836">
        <ele>848.9</ele>
        <time>2021-09-19T11:12:57Z</time>
      </trkpt>
      <trkpt lat="43.86043" lon="6.85838">
        <ele>849.4</ele>
        <time>2021-09-19T11:12:59Z</time>
      </trkpt>
      <trkpt lat="43.86036" lon="6.85837">
        <ele>849.9</ele>
        <time>2021-09-19T11:13:00Z</time>
      </trkpt>
      <trkpt lat="43.86028" lon="6.85835">
        <ele>850.7</ele>
        <time>2021-09-19T11:13:01Z</time>
      </trkpt>
      <trkpt lat="43.8602" lon="6.85832">
        <ele>851.4</ele>
        <time>2021-09-19T11:13:03Z</time>
      </trkpt>
      <trkpt lat="43.86013" lon="6.85828">
        <ele>852.2</ele>
        <time>2021-09-19T11:13:04Z</time>
      </trkpt>
      <trkpt lat="43.86008" lon="6.85826">
        <ele>852.6</ele>
        <time>2021-09-19T11:13:05Z</time>
      </trkpt>
      <trkpt lat="43.86004" lon="6.85825">
        <ele>853</ele>
        <time>2021-09-19T11:13:06Z</time>
      </trkpt>
      <trkpt lat="43.86001" lon="6.85824">
        <ele>853.3</ele>
        <time>2021-09-19T11:13:07Z</time>
      </trkpt>
      <trkpt lat="43.85998" lon="6.8582">
        <ele>853.6</ele>
        <time>2021-09-19T11:13:09Z</time>
      </trkpt>
      <trkpt lat="43.85996" lon="6.85816">
        <ele>853.9</ele>
        <time>2021-09-19T11:13:10Z</time>
      </trkpt>
      <trkpt lat="43.85995" lon="6.85812">
        <ele>854.2</ele>
        <time>2021-09-19T11:13:11Z</time>
      </trkpt>
      <trkpt lat="43.85995" lon="6.85808">
        <ele>854.5</ele>
        <time>2021-09-19T11:13:12Z</time>
      </trkpt>
      <trkpt lat="43.85996" lon="6.85807">
        <ele>854.6</ele>
        <time>2021-09-19T11:13:13Z</time>
      </trkpt>
      <trkpt lat="43.86" lon="6.85805">
        <ele>855</ele>
        <time>2021-09-19T11:13:14Z</time>
      </trkpt>
      <trkpt lat="43.86" lon="6.85803">
        <ele>855.1</ele>
        <time>2021-09-19T11:13:15Z</time>
      </trkpt>
      <trkpt lat="43.86001" lon="6.85802">
        <ele>855.2</ele>
        <time>2021-09-19T11:13:17Z</time>
      </trkpt>
      <trkpt lat="43.86" lon="6.858">
        <ele>855.3</ele>
        <time>2021-09-19T11:13:18Z</time>
      </trkpt>
      <trkpt lat="43.85999" lon="6.858">
        <ele>855.4</ele>
        <time>2021-09-19T11:13:19Z</time>
      </trkpt>
      <trkpt lat="43.85998" lon="6.85799">
        <ele>855.5</ele>
        <time>2021-09-19T11:13:21Z</time>
      </trkpt>
      <trkpt lat="43.85997" lon="6.85798">
        <ele>855.5</ele>
        <time>2021-09-19T11:13:22Z</time>
      </trkpt>
      <trkpt lat="43.86016" lon="6.85745">
        <ele>859.3</ele>
        <time>2021-09-19T11:13:53Z</time>
      </trkpt>
      <trkpt lat="43.86017" lon="6.85744">
        <ele>859.4</ele>
        <time>2021-09-19T11:13:55Z</time>
      </trkpt>
      <trkpt lat="43.86018" lon="6.85744">
        <ele>859.5</ele>
        <time>2021-09-19T11:13:56Z</time>
      </trkpt>
      <trkpt lat="43.8602" lon="6.85742">
        <ele>859.7</ele>
        <time>2021-09-19T11:13:58Z</time>
      </trkpt>
      <trkpt lat="43.86023" lon="6.8574">
        <ele>859.9</ele>
        <time>2021-09-19T11:14:00Z</time>
      </trkpt>
      <trkpt lat="43.86023" lon="6.85738">
        <ele>860</ele>
        <time>2021-09-19T11:14:01Z</time>
      </trkpt>
      <trkpt lat="43.86024" lon="6.85736">
        <ele>860.1</ele>
        <time>2021-09-19T11:14:02Z</time>
      </trkpt>
      <trkpt lat="43.86023" lon="6.85734">
        <ele>860.3</ele>
        <time>2021-09-19T11:14:03Z</time>
      </trkpt>
      <trkpt lat="43.86022" lon="6.85733">
        <ele>860.3</ele>
        <time>2021-09-19T11:14:04Z</time>
      </trkpt>
      <trkpt lat="43.86021" lon="6.85732">
        <ele>860.4</ele>
        <time>2021-09-19T11:14:06Z</time>
      </trkpt>
      <trkpt lat="43.86021" lon="6.85729">
        <ele>860.5</ele>
        <time>2021-09-19T11:14:08Z</time>
      </trkpt>
      <trkpt lat="43.86022" lon="6.85729">
        <ele>860.6</ele>
        <time>2021-09-19T11:14:09Z</time>
      </trkpt>
      <trkpt lat="43.86022" lon="6.85729">
        <ele>860.6</ele>
        <time>2021-09-19T11:14:10Z</time>
      </trkpt>
      <trkpt lat="43.86023" lon="6.85729">
        <ele>860.6</ele>
        <time>2021-09-19T11:14:11Z</time>
      </trkpt>
      <trkpt lat="43.86023" lon="6.85729">
        <ele>860.7</ele>
        <time>2021-09-19T11:14:12Z</time>
      </trkpt>
      <trkpt lat="43.86025" lon="6.85731">
        <ele>860.8</ele>
        <time>2021-09-19T11:14:13Z</time>
      </trkpt>
      <trkpt lat="43.86026" lon="6.85732">
        <ele>860.9</ele>
        <time>2021-09-19T11:14:14Z</time>
      </trkpt>
      <trkpt lat="43.86026" lon="6.85733">
        <ele>860.9</ele>
        <time>2021-09-19T11:14:15Z</time>
      </trkpt>
      <trkpt lat="43.86027" lon="6.85735">
        <ele>861.1</ele>
        <time>2021-09-19T11:14:16Z</time>
      </trkpt>
      <trkpt lat="43.86029" lon="6.85735">
        <ele>861.1</ele>
        <time>2021-09-19T11:14:17Z</time>
      </trkpt>
      <trkpt lat="43.8603" lon="6.85735">
        <ele>861.2</ele>
        <time>2021-09-19T11:14:18Z</time>
      </trkpt>
      <trkpt lat="43.8603" lon="6.85736">
        <ele>861.2</ele>
        <time>2021-09-19T11:14:20Z</time>
      </trkpt>
      <trkpt lat="43.86031" lon="6.85736">
        <ele>861.3</ele>
        <time>2021-09-19T11:14:21Z</time>
      </trkpt>
      <trkpt lat="43.86032" lon="6.85737">
        <ele>861.3</ele>
        <time>2021-09-19T11:14:23Z</time>
      </trkpt>
      <trkpt lat="43.86033" lon="6.85737">
        <ele>861.4</ele>
        <time>2021-09-19T11:14:24Z</time>
      </trkpt>
      <trkpt lat="43.86034" lon="6.85739">
        <ele>862.1</ele>
        <time>2021-09-19T11:14:25Z</time>
      </trkpt>
      <trkpt lat="43.86037" lon="6.8575">
        <ele>862.8</ele>
        <time>2021-09-19T11:14:31Z</time>
      </trkpt>
      <trkpt lat="43.86039" lon="6.85756">
        <ele>863.1</ele>
        <time>2021-09-19T11:14:33Z</time>
      </trkpt>
      <trkpt lat="43.86043" lon="6.85763">
        <ele>863.6</ele>
        <time>2021-09-19T11:14:34Z</time>
      </trkpt>
      <trkpt lat="43.86046" lon="6.8577">
        <ele>864</ele>
        <time>2021-09-19T11:14:35Z</time>
      </trkpt>
      <trkpt lat="43.86048" lon="6.85776">
        <ele>864.3</ele>
        <time>2021-09-19T11:14:36Z</time>
      </trkpt>
      <trkpt lat="43.8605" lon="6.8578">
        <ele>864.6</ele>
        <time>2021-09-19T11:14:37Z</time>
      </trkpt>
      <trkpt lat="43.86051" lon="6.85785">
        <ele>864.8</ele>
        <time>2021-09-19T11:14:39Z</time>
      </trkpt>
      <trkpt lat="43.86052" lon="6.85791">
        <ele>865.2</ele>
        <time>2021-09-19T11:14:40Z</time>
      </trkpt>
      <trkpt lat="43.86052" lon="6.85796">
        <ele>865.4</ele>
        <time>2021-09-19T11:14:41Z</time>
      </trkpt>
      <trkpt lat="43.86052" lon="6.858">
        <ele>865.6</ele>
        <time>2021-09-19T11:14:42Z</time>
      </trkpt>
      <trkpt lat="43.86052" lon="6.85806">
        <ele>865.9</ele>
        <time>2021-09-19T11:14:43Z</time>
      </trkpt>
      <trkpt lat="43.86052" lon="6.85808">
        <ele>866.1</ele>
        <time>2021-09-19T11:14:45Z</time>
      </trkpt>
      <trkpt lat="43.86052" lon="6.8581">
        <ele>866.2</ele>
        <time>2021-09-19T11:14:46Z</time>
      </trkpt>
      <trkpt lat="43.86053" lon="6.85812">
        <ele>866.3</ele>
        <time>2021-09-19T11:14:48Z</time>
      </trkpt>
      <trkpt lat="43.86053" lon="6.85814">
        <ele>866.4</ele>
        <time>2021-09-19T11:14:49Z</time>
      </trkpt>
      <trkpt lat="43.86054" lon="6.85816">
        <ele>866.5</ele>
        <time>2021-09-19T11:14:50Z</time>
      </trkpt>
      <trkpt lat="43.86055" lon="6.85818">
        <ele>866.7</ele>
        <time>2021-09-19T11:14:51Z</time>
      </trkpt>
      <trkpt lat="43.86055" lon="6.85821">
        <ele>866.8</ele>
        <time>2021-09-19T11:14:52Z</time>
      </trkpt>
      <trkpt lat="43.86056" lon="6.85821">
        <ele>866.9</ele>
        <time>2021-09-19T11:14:53Z</time>
      </trkpt>
      <trkpt lat="43.86057" lon="6.85822">
        <ele>866.9</ele>
        <time>2021-09-19T11:14:54Z</time>
      </trkpt>
      <trkpt lat="43.86057" lon="6.85822">
        <ele>867</ele>
        <time>2021-09-19T11:14:56Z</time>
      </trkpt>
      <trkpt lat="43.86057" lon="6.85823">
        <ele>867</ele>
        <time>2021-09-19T11:14:57Z</time>
      </trkpt>
      <trkpt lat="43.86057" lon="6.85823">
        <ele>867</ele>
        <time>2021-09-19T11:14:58Z</time>
      </trkpt>
      <trkpt lat="43.86057" lon="6.85823">
        <ele>867</ele>
        <time>2021-09-19T11:15:00Z</time>
      </trkpt>
      <trkpt lat="43.86056" lon="6.85823">
        <ele>867</ele>
        <time>2021-09-19T11:15:02Z</time>
      </trkpt>
      <trkpt lat="43.86009" lon="6.85901">
        <ele>872</ele>
        <time>2021-09-19T11:15:38Z</time>
      </trkpt>
      <trkpt lat="43.86008" lon="6.85906">
        <ele>872.3</ele>
        <time>2021-09-19T11:15:39Z</time>
      </trkpt>
      <trkpt lat="43.86007" lon="6.85907">
        <ele>872.4</ele>
        <time>2021-09-19T11:15:40Z</time>
      </trkpt>
      <trkpt lat="43.86007" lon="6.85909">
        <ele>872.5</ele>
        <time>2021-09-19T11:15:42Z</time>
      </trkpt>
      <trkpt lat="43.86007" lon="6.8591">
        <ele>872.5</ele>
        <time>2021-09-19T11:15:44Z</time>
      </trkpt>
      <trkpt lat="43.86007" lon="6.85911">
        <ele>872.6</ele>
        <time>2021-09-19T11:15:45Z</time>
      </trkpt>
      <trkpt lat="43.86007" lon="6.85912">
        <ele>872.6</ele>
        <time>2021-09-19T11:15:46Z</time>
      </trkpt>
      <trkpt lat="43.86007" lon="6.85915">
        <ele>872.8</ele>
        <time>2021-09-19T11:15:48Z</time>
      </trkpt>
      <trkpt lat="43.86008" lon="6.85917">
        <ele>872.9</ele>
        <time>2021-09-19T11:15:50Z</time>
      </trkpt>
      <trkpt lat="43.86008" lon="6.85919">
        <ele>873</ele>
        <time>2021-09-19T11:15:51Z</time>
      </trkpt>
      <trkpt lat="43.86008" lon="6.85921">
        <ele>873.1</ele>
        <time>2021-09-19T11:15:52Z</time>
      </trkpt>
      <trkpt lat="43.86008" lon="6.85923">
        <ele>873.2</ele>
        <time>2021-09-19T11:15:54Z</time>
      </trkpt>
      <trkpt lat="43.86008" lon="6.85925">
        <ele>873.3</ele>
        <time>2021-09-19T11:15:55Z</time>
      </trkpt>
      <trkpt lat="43.86007" lon="6.85926">
        <ele>873.4</ele>
        <time>2021-09-19T11:15:56Z</time>
      </trkpt>
      <trkpt lat="43.86007" lon="6.85927">
        <ele>873.4</ele>
        <time>2021-09-19T11:15:57Z</time>
      </trkpt>
      <trkpt lat="43.86006" lon="6.8593">
        <ele>873.6</ele>
        <time>2021-09-19T11:15:59Z</time>
      </trkpt>
      <trkpt lat="43.86005" lon="6.85932">
        <ele>873.8</ele>
        <time>2021-09-19T11:16:01Z</time>
      </trkpt>
      <trkpt lat="43.86004" lon="6.85934">
        <ele>873.9</ele>
        <time>2021-09-19T11:16:02Z</time>
      </trkpt>
      <trkpt lat="43.86003" lon="6.85936">
        <ele>874.1</ele>
        <time>2021-09-19T11:16:05Z</time>
      </trkpt>
      <trkpt lat="43.86001" lon="6.8594">
        <ele>874.4</ele>
        <time>2021-09-19T11:16:06Z</time>
      </trkpt>
      <trkpt lat="43.85998" lon="6.85946">
        <ele>874.9</ele>
        <time>2021-09-19T11:16:08Z</time>
      </trkpt>
      <trkpt lat="43.85997" lon="6.85948">
        <ele>875.2</ele>
        <time>2021-09-19T11:16:09Z</time>
      </trkpt>
      <trkpt lat="43.85995" lon="6.85954">
        <ele>875.7</ele>
        <time>2021-09-19T11:16:11Z</time>
      </trkpt>
      <trkpt lat="43.85994" lon="6.85956">
        <ele>875.9</ele>
        <time>2021-09-19T11:16:13Z</time>
      </trkpt>
      <trkpt lat="43.85994" lon="6.85958">
        <ele>876</ele>
        <time>2021-09-19T11:16:14Z</time>
      </trkpt>
      <trkpt lat="43.85992" lon="6.85965">
        <ele>876.6</ele>
        <time>2021-09-19T11:16:16Z</time>
      </trkpt>
      <trkpt lat="43.85991" lon="6.85966">
        <ele>876.8</ele>
        <time>2021-09-19T11:16:17Z</time>
      </trkpt>
      <trkpt lat="43.85991" lon="6.85968">
        <ele>876.9</ele>
        <time>2021-09-19T11:16:18Z</time>
      </trkpt>
      <trkpt lat="43.8599" lon="6.8597">
        <ele>877.1</ele>
        <time>2021-09-19T11:16:20Z</time>
      </trkpt>
      <trkpt lat="43.8599" lon="6.85971">
        <ele>877.2</ele>
        <time>2021-09-19T11:16:21Z</time>
      </trkpt>
      <trkpt lat="43.85989" lon="6.85972">
        <ele>877.3</ele>
        <time>2021-09-19T11:16:22Z</time>
      </trkpt>
      <trkpt lat="43.85989" lon="6.85974">
        <ele>877.5</ele>
        <time>2021-09-19T11:16:24Z</time>
      </trkpt>
      <trkpt lat="43.85989" lon="6.85976">
        <ele>877.6</ele>
        <time>2021-09-19T11:16:26Z</time>
      </trkpt>
      <trkpt lat="43.85988" lon="6.85977">
        <ele>877.7</ele>
        <time>2021-09-19T11:16:27Z</time>
      </trkpt>
      <trkpt lat="43.85988" lon="6.85979">
        <ele>877.9</ele>
        <time>2021-09-19T11:16:28Z</time>
      </trkpt>
      <trkpt lat="43.85988" lon="6.85984">
        <ele>878.3</ele>
        <time>2021-09-19T11:16:30Z</time>
      </trkpt>
      <trkpt lat="43.85988" lon="6.85986">
        <ele>878.5</ele>
        <time>2021-09-19T11:16:31Z</time>
      </trkpt>
      <trkpt lat="43.85988" lon="6.85988">
        <ele>878.7</ele>
        <time>2021-09-19T11:16:32Z</time>
      </trkpt>
      <trkpt lat="43.85988" lon="6.85989">
        <ele>878.8</ele>
        <time>2021-09-19T11:16:33Z</time>
      </trkpt>
      <trkpt lat="43.85988" lon="6.85991">
        <ele>878.9</ele>
        <time>2021-09-19T11:16:34Z</time>
      </trkpt>
      <trkpt lat="43.85988" lon="6.85992">
        <ele>879</ele>
        <time>2021-09-19T11:16:35Z</time>
      </trkpt>
      <trkpt lat="43.85987" lon="6.85995">
        <ele>879.3</ele>
        <time>2021-09-19T11:16:37Z</time>
      </trkpt>
      <trkpt lat="43.85986" lon="6.85998">
        <ele>879.5</ele>
        <time>2021-09-19T11:16:39Z</time>
      </trkpt>
      <trkpt lat="43.85985" lon="6.86003">
        <ele>879.9</ele>
        <time>2021-09-19T11:16:40Z</time>
      </trkpt>
      <trkpt lat="43.85985" lon="6.86007">
        <ele>880.2</ele>
        <time>2021-09-19T11:16:42Z</time>
      </trkpt>
      <trkpt lat="43.85985" lon="6.86008">
        <ele>880.3</ele>
        <time>2021-09-19T11:16:43Z</time>
      </trkpt>
      <trkpt lat="43.85984" lon="6.8601">
        <ele>880.4</ele>
        <time>2021-09-19T11:16:44Z</time>
      </trkpt>
      <trkpt lat="43.85984" lon="6.86011">
        <ele>880.6</ele>
        <time>2021-09-19T11:16:45Z</time>
      </trkpt>
      <trkpt lat="43.85984" lon="6.86013">
        <ele>880.7</ele>
        <time>2021-09-19T11:16:47Z</time>
      </trkpt>
      <trkpt lat="43.85984" lon="6.86015">
        <ele>880.8</ele>
        <time>2021-09-19T11:16:48Z</time>
      </trkpt>
      <trkpt lat="43.85984" lon="6.86016">
        <ele>881</ele>
        <time>2021-09-19T11:16:50Z</time>
      </trkpt>
      <trkpt lat="43.85985" lon="6.8602">
        <ele>881.3</ele>
        <time>2021-09-19T11:16:51Z</time>
      </trkpt>
      <trkpt lat="43.85985" lon="6.86021">
        <ele>881.4</ele>
        <time>2021-09-19T11:16:52Z</time>
      </trkpt>
      <trkpt lat="43.85986" lon="6.86023">
        <ele>881.5</ele>
        <time>2021-09-19T11:16:53Z</time>
      </trkpt>
      <trkpt lat="43.85986" lon="6.86026">
        <ele>881.8</ele>
        <time>2021-09-19T11:16:55Z</time>
      </trkpt>
      <trkpt lat="43.85986" lon="6.86027">
        <ele>881.9</ele>
        <time>2021-09-19T11:16:56Z</time>
      </trkpt>
      <trkpt lat="43.85987" lon="6.86029">
        <ele>882</ele>
        <time>2021-09-19T11:16:57Z</time>
      </trkpt>
      <trkpt lat="43.85987" lon="6.8603">
        <ele>882.1</ele>
        <time>2021-09-19T11:16:59Z</time>
      </trkpt>
      <trkpt lat="43.85988" lon="6.86031">
        <ele>882.2</ele>
        <time>2021-09-19T11:17:00Z</time>
      </trkpt>
      <trkpt lat="43.85988" lon="6.86031">
        <ele>882.3</ele>
        <time>2021-09-19T11:17:01Z</time>
      </trkpt>
      <trkpt lat="43.85988" lon="6.86035">
        <ele>882.6</ele>
        <time>2021-09-19T11:17:03Z</time>
      </trkpt>
      <trkpt lat="43.85988" lon="6.86037">
        <ele>882.8</ele>
        <time>2021-09-19T11:17:04Z</time>
      </trkpt>
      <trkpt lat="43.85988" lon="6.86039">
        <ele>883</ele>
        <time>2021-09-19T11:17:05Z</time>
      </trkpt>
      <trkpt lat="43.85988" lon="6.86042">
        <ele>883.3</ele>
        <time>2021-09-19T11:17:06Z</time>
      </trkpt>
      <trkpt lat="43.85988" lon="6.86045">
        <ele>883.5</ele>
        <time>2021-09-19T11:17:08Z</time>
      </trkpt>
      <trkpt lat="43.85988" lon="6.86048">
        <ele>883.8</ele>
        <time>2021-09-19T11:17:10Z</time>
      </trkpt>
      <trkpt lat="43.85989" lon="6.8605">
        <ele>883.9</ele>
        <time>2021-09-19T11:17:11Z</time>
      </trkpt>
      <trkpt lat="43.8599" lon="6.86052">
        <ele>884.2</ele>
        <time>2021-09-19T11:17:13Z</time>
      </trkpt>
      <trkpt lat="43.85991" lon="6.86054">
        <ele>884.4</ele>
        <time>2021-09-19T11:17:14Z</time>
      </trkpt>
      <trkpt lat="43.86" lon="6.86069">
        <ele>886</ele>
        <time>2021-09-19T11:17:15Z</time>
      </trkpt>
      <trkpt lat="43.86003" lon="6.86074">
        <ele>886.5</ele>
        <time>2021-09-19T11:17:17Z</time>
      </trkpt>
      <trkpt lat="43.86006" lon="6.86077">
        <ele>886.9</ele>
        <time>2021-09-19T11:17:18Z</time>
      </trkpt>
      <trkpt lat="43.86008" lon="6.86079">
        <ele>887.2</ele>
        <time>2021-09-19T11:17:20Z</time>
      </trkpt>
      <trkpt lat="43.8601" lon="6.86082">
        <ele>887.5</ele>
        <time>2021-09-19T11:17:21Z</time>
      </trkpt>
      <trkpt lat="43.86012" lon="6.86086">
        <ele>887.8</ele>
        <time>2021-09-19T11:17:22Z</time>
      </trkpt>
      <trkpt lat="43.86013" lon="6.86087">
        <ele>887.9</ele>
        <time>2021-09-19T11:17:23Z</time>
      </trkpt>
      <trkpt lat="43.86015" lon="6.8609">
        <ele>888.1</ele>
        <time>2021-09-19T11:17:24Z</time>
      </trkpt>
      <trkpt lat="43.86016" lon="6.86095">
        <ele>888.5</ele>
        <time>2021-09-19T11:17:26Z</time>
      </trkpt>
      <trkpt lat="43.86017" lon="6.86099">
        <ele>888.8</ele>
        <time>2021-09-19T11:17:27Z</time>
      </trkpt>
      <trkpt lat="43.86017" lon="6.86103">
        <ele>889</ele>
        <time>2021-09-19T11:17:28Z</time>
      </trkpt>
      <trkpt lat="43.86017" lon="6.86109">
        <ele>889.4</ele>
        <time>2021-09-19T11:17:30Z</time>
      </trkpt>
      <trkpt lat="43.86016" lon="6.86112">
        <ele>889.7</ele>
        <time>2021-09-19T11:17:32Z</time>
      </trkpt>
      <trkpt lat="43.86013" lon="6.86116">
        <ele>890.1</ele>
        <time>2021-09-19T11:17:34Z</time>
      </trkpt>
      <trkpt lat="43.86012" lon="6.86117">
        <ele>890.2</ele>
        <time>2021-09-19T11:17:35Z</time>
      </trkpt>
      <trkpt lat="43.86011" lon="6.86118">
        <ele>890.3</ele>
        <time>2021-09-19T11:17:36Z</time>
      </trkpt>
      <trkpt lat="43.86011" lon="6.86118">
        <ele>890.3</ele>
        <time>2021-09-19T11:17:37Z</time>
      </trkpt>
      <trkpt lat="43.8601" lon="6.86119">
        <ele>890.4</ele>
        <time>2021-09-19T11:17:38Z</time>
      </trkpt>
      <trkpt lat="43.8601" lon="6.8612">
        <ele>890.5</ele>
        <time>2021-09-19T11:17:40Z</time>
      </trkpt>
      <trkpt lat="43.86009" lon="6.86121">
        <ele>890.6</ele>
        <time>2021-09-19T11:17:41Z</time>
      </trkpt>
      <trkpt lat="43.86008" lon="6.86121">
        <ele>890.7</ele>
        <time>2021-09-19T11:17:42Z</time>
      </trkpt>
      <trkpt lat="43.85979" lon="6.86196">
        <ele>897.4</ele>
        <time>2021-09-19T11:18:36Z</time>
      </trkpt>
      <trkpt lat="43.85977" lon="6.86197">
        <ele>897.6</ele>
        <time>2021-09-19T11:18:37Z</time>
      </trkpt>
      <trkpt lat="43.85976" lon="6.86197">
        <ele>897.7</ele>
        <time>2021-09-19T11:18:39Z</time>
      </trkpt>
      <trkpt lat="43.85974" lon="6.86198">
        <ele>898</ele>
        <time>2021-09-19T11:18:42Z</time>
      </trkpt>
      <trkpt lat="43.85973" lon="6.862">
        <ele>898.1</ele>
        <time>2021-09-19T11:18:43Z</time>
      </trkpt>
      <trkpt lat="43.85972" lon="6.86201">
        <ele>898.3</ele>
        <time>2021-09-19T11:18:44Z</time>
      </trkpt>
      <trkpt lat="43.85972" lon="6.86202">
        <ele>898.4</ele>
        <time>2021-09-19T11:18:46Z</time>
      </trkpt>
      <trkpt lat="43.85971" lon="6.86203">
        <ele>898.4</ele>
        <time>2021-09-19T11:18:47Z</time>
      </trkpt>
      <trkpt lat="43.85971" lon="6.86203">
        <ele>898.5</ele>
        <time>2021-09-19T11:18:48Z</time>
      </trkpt>
      <trkpt lat="43.85971" lon="6.86204">
        <ele>898.6</ele>
        <time>2021-09-19T11:18:49Z</time>
      </trkpt>
      <trkpt lat="43.8597" lon="6.86204">
        <ele>898.6</ele>
        <time>2021-09-19T11:18:51Z</time>
      </trkpt>
      <trkpt lat="43.8597" lon="6.86205">
        <ele>898.6</ele>
        <time>2021-09-19T11:18:52Z</time>
      </trkpt>
      <trkpt lat="43.8597" lon="6.86205">
        <ele>898.7</ele>
        <time>2021-09-19T11:18:54Z</time>
      </trkpt>
      <trkpt lat="43.8597" lon="6.86205">
        <ele>898.7</ele>
        <time>2021-09-19T11:18:55Z</time>
      </trkpt>
      <trkpt lat="43.8597" lon="6.86208">
        <ele>898.9</ele>
        <time>2021-09-19T11:18:56Z</time>
      </trkpt>
      <trkpt lat="43.85969" lon="6.8621">
        <ele>899.1</ele>
        <time>2021-09-19T11:18:58Z</time>
      </trkpt>
      <trkpt lat="43.85968" lon="6.86212">
        <ele>899.3</ele>
        <time>2021-09-19T11:19:00Z</time>
      </trkpt>
      <trkpt lat="43.85967" lon="6.86214">
        <ele>899.5</ele>
        <time>2021-09-19T11:19:01Z</time>
      </trkpt>
      <trkpt lat="43.85967" lon="6.86215">
        <ele>899.5</ele>
        <time>2021-09-19T11:19:02Z</time>
      </trkpt>
      <trkpt lat="43.85967" lon="6.86216">
        <ele>899.6</ele>
        <time>2021-09-19T11:19:03Z</time>
      </trkpt>
      <trkpt lat="43.85967" lon="6.86216">
        <ele>899.7</ele>
        <time>2021-09-19T11:19:04Z</time>
      </trkpt>
      <trkpt lat="43.85967" lon="6.86218">
        <ele>899.8</ele>
        <time>2021-09-19T11:19:05Z</time>
      </trkpt>
      <trkpt lat="43.85966" lon="6.86219">
        <ele>899.9</ele>
        <time>2021-09-19T11:19:07Z</time>
      </trkpt>
      <trkpt lat="43.85966" lon="6.86219">
        <ele>899.9</ele>
        <time>2021-09-19T11:19:08Z</time>
      </trkpt>
      <trkpt lat="43.85966" lon="6.8622">
        <ele>900</ele>
        <time>2021-09-19T11:19:09Z</time>
      </trkpt>
      <trkpt lat="43.85965" lon="6.86221">
        <ele>900.1</ele>
        <time>2021-09-19T11:19:10Z</time>
      </trkpt>
      <trkpt lat="43.85964" lon="6.86222">
        <ele>900.2</ele>
        <time>2021-09-19T11:19:11Z</time>
      </trkpt>
      <trkpt lat="43.85963" lon="6.86224">
        <ele>900.4</ele>
        <time>2021-09-19T11:19:12Z</time>
      </trkpt>
      <trkpt lat="43.85962" lon="6.86227">
        <ele>900.7</ele>
        <time>2021-09-19T11:19:14Z</time>
      </trkpt>
      <trkpt lat="43.85961" lon="6.86228">
        <ele>900.8</ele>
        <time>2021-09-19T11:19:15Z</time>
      </trkpt>
      <trkpt lat="43.8596" lon="6.8623">
        <ele>900.9</ele>
        <time>2021-09-19T11:19:16Z</time>
      </trkpt>
      <trkpt lat="43.85959" lon="6.86233">
        <ele>901.2</ele>
        <time>2021-09-19T11:19:17Z</time>
      </trkpt>
      <trkpt lat="43.85959" lon="6.86234">
        <ele>901.3</ele>
        <time>2021-09-19T11:19:18Z</time>
      </trkpt>
      <trkpt lat="43.85957" lon="6.86237">
        <ele>901.6</ele>
        <time>2021-09-19T11:19:20Z</time>
      </trkpt>
      <trkpt lat="43.85957" lon="6.86239">
        <ele>901.7</ele>
        <time>2021-09-19T11:19:21Z</time>
      </trkpt>
      <trkpt lat="43.85956" lon="6.86241">
        <ele>901.9</ele>
        <time>2021-09-19T11:19:22Z</time>
      </trkpt>
      <trkpt lat="43.85955" lon="6.86242">
        <ele>902</ele>
        <time>2021-09-19T11:19:23Z</time>
      </trkpt>
      <trkpt lat="43.85955" lon="6.86243">
        <ele>902.1</ele>
        <time>2021-09-19T11:19:25Z</time>
      </trkpt>
      <trkpt lat="43.85955" lon="6.86243">
        <ele>902.1</ele>
        <time>2021-09-19T11:19:26Z</time>
      </trkpt>
      <trkpt lat="43.85954" lon="6.86243">
        <ele>902.2</ele>
        <time>2021-09-19T11:19:27Z</time>
      </trkpt>
      <trkpt lat="43.85954" lon="6.86244">
        <ele>902.2</ele>
        <time>2021-09-19T11:19:28Z</time>
      </trkpt>
      <trkpt lat="43.85954" lon="6.86244">
        <ele>902.3</ele>
        <time>2021-09-19T11:19:30Z</time>
      </trkpt>
      <trkpt lat="43.85953" lon="6.86244">
        <ele>902.3</ele>
        <time>2021-09-19T11:19:31Z</time>
      </trkpt>
      <trkpt lat="43.85953" lon="6.86246">
        <ele>902.5</ele>
        <time>2021-09-19T11:19:33Z</time>
      </trkpt>
      <trkpt lat="43.85953" lon="6.86247">
        <ele>902.6</ele>
        <time>2021-09-19T11:19:34Z</time>
      </trkpt>
      <trkpt lat="43.85952" lon="6.86249">
        <ele>902.7</ele>
        <time>2021-09-19T11:19:35Z</time>
      </trkpt>
      <trkpt lat="43.85951" lon="6.86251">
        <ele>903</ele>
        <time>2021-09-19T11:19:37Z</time>
      </trkpt>
      <trkpt lat="43.85949" lon="6.86253">
        <ele>903.2</ele>
        <time>2021-09-19T11:19:38Z</time>
      </trkpt>
      <trkpt lat="43.85948" lon="6.86254">
        <ele>903.4</ele>
        <time>2021-09-19T11:19:40Z</time>
      </trkpt>
      <trkpt lat="43.85947" lon="6.86256">
        <ele>903.6</ele>
        <time>2021-09-19T11:19:41Z</time>
      </trkpt>
      <trkpt lat="43.85946" lon="6.86258">
        <ele>903.8</ele>
        <time>2021-09-19T11:19:43Z</time>
      </trkpt>
      <trkpt lat="43.85945" lon="6.86259">
        <ele>903.9</ele>
        <time>2021-09-19T11:19:44Z</time>
      </trkpt>
      <trkpt lat="43.85944" lon="6.86261">
        <ele>904.1</ele>
        <time>2021-09-19T11:19:45Z</time>
      </trkpt>
      <trkpt lat="43.85943" lon="6.86262">
        <ele>904.3</ele>
        <time>2021-09-19T11:19:47Z</time>
      </trkpt>
      <trkpt lat="43.85941" lon="6.86264">
        <ele>904.6</ele>
        <time>2021-09-19T11:19:48Z</time>
      </trkpt>
      <trkpt lat="43.85938" lon="6.86267">
        <ele>905.1</ele>
        <time>2021-09-19T11:19:50Z</time>
      </trkpt>
      <trkpt lat="43.85937" lon="6.86268">
        <ele>905.2</ele>
        <time>2021-09-19T11:19:51Z</time>
      </trkpt>
      <trkpt lat="43.85936" lon="6.8627">
        <ele>905.4</ele>
        <time>2021-09-19T11:19:52Z</time>
      </trkpt>
      <trkpt lat="43.85935" lon="6.86271">
        <ele>905.6</ele>
        <time>2021-09-19T11:19:53Z</time>
      </trkpt>
      <trkpt lat="43.85933" lon="6.86274">
        <ele>906</ele>
        <time>2021-09-19T11:19:54Z</time>
      </trkpt>
      <trkpt lat="43.85929" lon="6.86278">
        <ele>906.6</ele>
        <time>2021-09-19T11:19:55Z</time>
      </trkpt>
      <trkpt lat="43.85926" lon="6.86281">
        <ele>906.9</ele>
        <time>2021-09-19T11:19:56Z</time>
      </trkpt>
      <trkpt lat="43.85924" lon="6.86283">
        <ele>907.3</ele>
        <time>2021-09-19T11:19:58Z</time>
      </trkpt>
      <trkpt lat="43.85921" lon="6.86286">
        <ele>907.6</ele>
        <time>2021-09-19T11:19:59Z</time>
      </trkpt>
      <trkpt lat="43.85919" lon="6.86289">
        <ele>908</ele>
        <time>2021-09-19T11:20:00Z</time>
      </trkpt>
      <trkpt lat="43.85916" lon="6.86295">
        <ele>908.5</ele>
        <time>2021-09-19T11:20:02Z</time>
      </trkpt>
      <trkpt lat="43.85917" lon="6.86301">
        <ele>908.9</ele>
        <time>2021-09-19T11:20:03Z</time>
      </trkpt>
      <trkpt lat="43.85918" lon="6.86303">
        <ele>909.2</ele>
        <time>2021-09-19T11:20:04Z</time>
      </trkpt>
      <trkpt lat="43.85921" lon="6.86307">
        <ele>909.5</ele>
        <time>2021-09-19T11:20:05Z</time>
      </trkpt>
      <trkpt lat="43.85922" lon="6.86309">
        <ele>909.8</ele>
        <time>2021-09-19T11:20:07Z</time>
      </trkpt>
      <trkpt lat="43.85923" lon="6.8631">
        <ele>909.9</ele>
        <time>2021-09-19T11:20:08Z</time>
      </trkpt>
      <trkpt lat="43.85924" lon="6.86311">
        <ele>910</ele>
        <time>2021-09-19T11:20:09Z</time>
      </trkpt>
      <trkpt lat="43.85925" lon="6.86313">
        <ele>910.2</ele>
        <time>2021-09-19T11:20:10Z</time>
      </trkpt>
      <trkpt lat="43.85925" lon="6.86314">
        <ele>910.3</ele>
        <time>2021-09-19T11:20:11Z</time>
      </trkpt>
      <trkpt lat="43.85926" lon="6.86315">
        <ele>910.5</ele>
        <time>2021-09-19T11:20:13Z</time>
      </trkpt>
      <trkpt lat="43.85926" lon="6.86316">
        <ele>910.5</ele>
        <time>2021-09-19T11:20:14Z</time>
      </trkpt>
      <trkpt lat="43.85927" lon="6.86319">
        <ele>910.8</ele>
        <time>2021-09-19T11:20:16Z</time>
      </trkpt>
      <trkpt lat="43.85901" lon="6.86503">
        <ele>922.8</ele>
        <time>2021-09-19T11:23:33Z</time>
      </trkpt>
      <trkpt lat="43.85902" lon="6.86507">
        <ele>923.2</ele>
        <time>2021-09-19T11:23:34Z</time>
      </trkpt>
      <trkpt lat="43.85903" lon="6.86509">
        <ele>923.4</ele>
        <time>2021-09-19T11:23:35Z</time>
      </trkpt>
      <trkpt lat="43.85908" lon="6.86518">
        <ele>924.2</ele>
        <time>2021-09-19T11:23:37Z</time>
      </trkpt>
      <trkpt lat="43.8591" lon="6.86524">
        <ele>924.8</ele>
        <time>2021-09-19T11:23:39Z</time>
      </trkpt>
      <trkpt lat="43.85911" lon="6.86528">
        <ele>925.1</ele>
        <time>2021-09-19T11:23:40Z</time>
      </trkpt>
      <trkpt lat="43.85912" lon="6.86529">
        <ele>925.2</ele>
        <time>2021-09-19T11:23:41Z</time>
      </trkpt>
      <trkpt lat="43.85912" lon="6.86528">
        <ele>925.3</ele>
        <time>2021-09-19T11:23:43Z</time>
      </trkpt>
      <trkpt lat="43.85913" lon="6.86529">
        <ele>925.4</ele>
        <time>2021-09-19T11:23:44Z</time>
      </trkpt>
      <trkpt lat="43.85913" lon="6.8653">
        <ele>925.6</ele>
        <time>2021-09-19T11:23:45Z</time>
      </trkpt>
      <trkpt lat="43.85913" lon="6.86532">
        <ele>925.7</ele>
        <time>2021-09-19T11:23:47Z</time>
      </trkpt>
      <trkpt lat="43.85913" lon="6.86531">
        <ele>925.7</ele>
        <time>2021-09-19T11:23:48Z</time>
      </trkpt>
      <trkpt lat="43.85914" lon="6.86532">
        <ele>925.8</ele>
        <time>2021-09-19T11:23:49Z</time>
      </trkpt>
      <trkpt lat="43.85914" lon="6.86532">
        <ele>925.8</ele>
        <time>2021-09-19T11:23:51Z</time>
      </trkpt>
      <trkpt lat="43.85914" lon="6.86533">
        <ele>925.9</ele>
        <time>2021-09-19T11:23:52Z</time>
      </trkpt>
      <trkpt lat="43.85914" lon="6.86534">
        <ele>926</ele>
        <time>2021-09-19T11:23:53Z</time>
      </trkpt>
      <trkpt lat="43.85914" lon="6.86535">
        <ele>926</ele>
        <time>2021-09-19T11:23:55Z</time>
      </trkpt>
      <trkpt lat="43.85905" lon="6.86574">
        <ele>929.8</ele>
        <time>2021-09-19T11:24:28Z</time>
      </trkpt>
      <trkpt lat="43.85904" lon="6.86575">
        <ele>930</ele>
        <time>2021-09-19T11:24:29Z</time>
      </trkpt>
      <trkpt lat="43.85904" lon="6.86576">
        <ele>930.1</ele>
        <time>2021-09-19T11:24:31Z</time>
      </trkpt>
      <trkpt lat="43.85903" lon="6.86577">
        <ele>930.2</ele>
        <time>2021-09-19T11:24:32Z</time>
      </trkpt>
      <trkpt lat="43.859" lon="6.86579">
        <ele>930.6</ele>
        <time>2021-09-19T11:24:34Z</time>
      </trkpt>
      <trkpt lat="43.85899" lon="6.86579">
        <ele>930.7</ele>
        <time>2021-09-19T11:24:35Z</time>
      </trkpt>
      <trkpt lat="43.85898" lon="6.86581">
        <ele>931</ele>
        <time>2021-09-19T11:24:36Z</time>
      </trkpt>
      <trkpt lat="43.85898" lon="6.86584">
        <ele>931.2</ele>
        <time>2021-09-19T11:24:38Z</time>
      </trkpt>
      <trkpt lat="43.85897" lon="6.86588">
        <ele>931.6</ele>
        <time>2021-09-19T11:24:39Z</time>
      </trkpt>
      <trkpt lat="43.85897" lon="6.86589">
        <ele>931.7</ele>
        <time>2021-09-19T11:24:40Z</time>
      </trkpt>
      <trkpt lat="43.85897" lon="6.86592">
        <ele>932</ele>
        <time>2021-09-19T11:24:42Z</time>
      </trkpt>
      <trkpt lat="43.85897" lon="6.86595">
        <ele>932.3</ele>
        <time>2021-09-19T11:24:44Z</time>
      </trkpt>
      <trkpt lat="43.85896" lon="6.866">
        <ele>932.8</ele>
        <time>2021-09-19T11:24:45Z</time>
      </trkpt>
      <trkpt lat="43.85896" lon="6.86601">
        <ele>933</ele>
        <time>2021-09-19T11:24:46Z</time>
      </trkpt>
      <trkpt lat="43.85895" lon="6.86605">
        <ele>933.3</ele>
        <time>2021-09-19T11:24:48Z</time>
      </trkpt>
      <trkpt lat="43.85895" lon="6.86607">
        <ele>933.6</ele>
        <time>2021-09-19T11:24:49Z</time>
      </trkpt>
      <trkpt lat="43.85894" lon="6.86609">
        <ele>933.8</ele>
        <time>2021-09-19T11:24:50Z</time>
      </trkpt>
      <trkpt lat="43.85894" lon="6.86612">
        <ele>934</ele>
        <time>2021-09-19T11:24:51Z</time>
      </trkpt>
      <trkpt lat="43.85893" lon="6.86615">
        <ele>934.3</ele>
        <time>2021-09-19T11:24:53Z</time>
      </trkpt>
      <trkpt lat="43.85893" lon="6.86617">
        <ele>934.5</ele>
        <time>2021-09-19T11:24:54Z</time>
      </trkpt>
      <trkpt lat="43.85893" lon="6.86619">
        <ele>934.6</ele>
        <time>2021-09-19T11:24:55Z</time>
      </trkpt>
      <trkpt lat="43.85893" lon="6.86621">
        <ele>934.8</ele>
        <time>2021-09-19T11:24:57Z</time>
      </trkpt>
      <trkpt lat="43.85893" lon="6.86624">
        <ele>935</ele>
        <time>2021-09-19T11:24:58Z</time>
      </trkpt>
      <trkpt lat="43.85889" lon="6.86648">
        <ele>936.9</ele>
        <time>2021-09-19T11:25:25Z</time>
      </trkpt>
      <trkpt lat="43.85889" lon="6.8665">
        <ele>937.1</ele>
        <time>2021-09-19T11:25:26Z</time>
      </trkpt>
      <trkpt lat="43.85891" lon="6.86652">
        <ele>937.3</ele>
        <time>2021-09-19T11:25:28Z</time>
      </trkpt>
      <trkpt lat="43.85893" lon="6.86655">
        <ele>937.6</ele>
        <time>2021-09-19T11:25:29Z</time>
      </trkpt>
      <trkpt lat="43.85893" lon="6.86656">
        <ele>937.6</ele>
        <time>2021-09-19T11:25:30Z</time>
      </trkpt>
      <trkpt lat="43.85896" lon="6.86658">
        <ele>937.9</ele>
        <time>2021-09-19T11:25:32Z</time>
      </trkpt>
      <trkpt lat="43.85896" lon="6.86659">
        <ele>938</ele>
        <time>2021-09-19T11:25:33Z</time>
      </trkpt>
      <trkpt lat="43.85905" lon="6.86674">
        <ele>939.1</ele>
        <time>2021-09-19T11:25:35Z</time>
      </trkpt>
      <trkpt lat="43.85908" lon="6.86682">
        <ele>939.7</ele>
        <time>2021-09-19T11:25:36Z</time>
      </trkpt>
      <trkpt lat="43.85909" lon="6.86686">
        <ele>940</ele>
        <time>2021-09-19T11:25:37Z</time>
      </trkpt>
      <trkpt lat="43.8591" lon="6.86688">
        <ele>940.1</ele>
        <time>2021-09-19T11:25:38Z</time>
      </trkpt>
      <trkpt lat="43.8591" lon="6.86691">
        <ele>940.3</ele>
        <time>2021-09-19T11:25:39Z</time>
      </trkpt>
      <trkpt lat="43.85911" lon="6.86695">
        <ele>940.5</ele>
        <time>2021-09-19T11:25:41Z</time>
      </trkpt>
      <trkpt lat="43.85911" lon="6.86696">
        <ele>940.6</ele>
        <time>2021-09-19T11:25:42Z</time>
      </trkpt>
      <trkpt lat="43.8591" lon="6.867">
        <ele>940.9</ele>
        <time>2021-09-19T11:25:44Z</time>
      </trkpt>
      <trkpt lat="43.8591" lon="6.86701">
        <ele>940.9</ele>
        <time>2021-09-19T11:25:45Z</time>
      </trkpt>
      <trkpt lat="43.8591" lon="6.86701">
        <ele>940.9</ele>
        <time>2021-09-19T11:25:47Z</time>
      </trkpt>
      <trkpt lat="43.8591" lon="6.86702">
        <ele>941</ele>
        <time>2021-09-19T11:25:48Z</time>
      </trkpt>
      <trkpt lat="43.8591" lon="6.86704">
        <ele>941.1</ele>
        <time>2021-09-19T11:25:50Z</time>
      </trkpt>
      <trkpt lat="43.8591" lon="6.86782">
        <ele>946.5</ele>
        <time>2021-09-19T11:26:48Z</time>
      </trkpt>
      <trkpt lat="43.85912" lon="6.86786">
        <ele>946.8</ele>
        <time>2021-09-19T11:26:50Z</time>
      </trkpt>
      <trkpt lat="43.85913" lon="6.86789">
        <ele>947.1</ele>
        <time>2021-09-19T11:26:51Z</time>
      </trkpt>
      <trkpt lat="43.85913" lon="6.86795">
        <ele>947.4</ele>
        <time>2021-09-19T11:26:53Z</time>
      </trkpt>
      <trkpt lat="43.85911" lon="6.868">
        <ele>947.9</ele>
        <time>2021-09-19T11:26:54Z</time>
      </trkpt>
      <trkpt lat="43.85908" lon="6.86805">
        <ele>948.4</ele>
        <time>2021-09-19T11:26:56Z</time>
      </trkpt>
      <trkpt lat="43.85907" lon="6.86807">
        <ele>948.6</ele>
        <time>2021-09-19T11:26:57Z</time>
      </trkpt>
      <trkpt lat="43.85906" lon="6.86808">
        <ele>948.8</ele>
        <time>2021-09-19T11:26:58Z</time>
      </trkpt>
      <trkpt lat="43.85905" lon="6.86809">
        <ele>948.9</ele>
        <time>2021-09-19T11:26:59Z</time>
      </trkpt>
      <trkpt lat="43.85905" lon="6.86811">
        <ele>949.1</ele>
        <time>2021-09-19T11:27:00Z</time>
      </trkpt>
      <trkpt lat="43.85906" lon="6.86814">
        <ele>949.9</ele>
        <time>2021-09-19T11:27:02Z</time>
      </trkpt>
      <trkpt lat="43.85906" lon="6.86818">
        <ele>950.1</ele>
        <time>2021-09-19T11:27:03Z</time>
      </trkpt>
      <trkpt lat="43.85906" lon="6.8682">
        <ele>950.2</ele>
        <time>2021-09-19T11:27:04Z</time>
      </trkpt>
      <trkpt lat="43.85906" lon="6.86822">
        <ele>950.3</ele>
        <time>2021-09-19T11:27:05Z</time>
      </trkpt>
      <trkpt lat="43.85907" lon="6.86823">
        <ele>950.4</ele>
        <time>2021-09-19T11:27:08Z</time>
      </trkpt>
      <trkpt lat="43.85907" lon="6.86825">
        <ele>950.5</ele>
        <time>2021-09-19T11:27:09Z</time>
      </trkpt>
      <trkpt lat="43.85907" lon="6.86826">
        <ele>950.6</ele>
        <time>2021-09-19T11:27:10Z</time>
      </trkpt>
      <trkpt lat="43.85909" lon="6.86831">
        <ele>950.9</ele>
        <time>2021-09-19T11:27:12Z</time>
      </trkpt>
      <trkpt lat="43.8591" lon="6.86833">
        <ele>951</ele>
        <time>2021-09-19T11:27:13Z</time>
      </trkpt>
      <trkpt lat="43.85911" lon="6.86835">
        <ele>951.2</ele>
        <time>2021-09-19T11:27:15Z</time>
      </trkpt>
      <trkpt lat="43.85911" lon="6.86837">
        <ele>951.3</ele>
        <time>2021-09-19T11:27:16Z</time>
      </trkpt>
      <trkpt lat="43.8591" lon="6.86839">
        <ele>951.4</ele>
        <time>2021-09-19T11:27:17Z</time>
      </trkpt>
      <trkpt lat="43.8591" lon="6.8684">
        <ele>951.5</ele>
        <time>2021-09-19T11:27:18Z</time>
      </trkpt>
      <trkpt lat="43.85911" lon="6.86851">
        <ele>952</ele>
        <time>2021-09-19T11:27:20Z</time>
      </trkpt>
      <trkpt lat="43.85911" lon="6.86855">
        <ele>952.2</ele>
        <time>2021-09-19T11:27:21Z</time>
      </trkpt>
      <trkpt lat="43.85908" lon="6.86861">
        <ele>952.5</ele>
        <time>2021-09-19T11:27:22Z</time>
      </trkpt>
      <trkpt lat="43.85907" lon="6.86866">
        <ele>952.7</ele>
        <time>2021-09-19T11:27:24Z</time>
      </trkpt>
      <trkpt lat="43.85907" lon="6.86868">
        <ele>952.8</ele>
        <time>2021-09-19T11:27:25Z</time>
      </trkpt>
      <trkpt lat="43.85907" lon="6.86868">
        <ele>952.8</ele>
        <time>2021-09-19T11:27:26Z</time>
      </trkpt>
      <trkpt lat="43.85907" lon="6.86869">
        <ele>952.9</ele>
        <time>2021-09-19T11:27:28Z</time>
      </trkpt>
      <trkpt lat="43.85908" lon="6.86869">
        <ele>952.9</ele>
        <time>2021-09-19T11:27:29Z</time>
      </trkpt>
      <trkpt lat="43.85908" lon="6.86869">
        <ele>952.9</ele>
        <time>2021-09-19T11:27:31Z</time>
      </trkpt>
      <trkpt lat="43.85908" lon="6.86869">
        <ele>952.9</ele>
        <time>2021-09-19T11:27:32Z</time>
      </trkpt>
      <trkpt lat="43.85909" lon="6.86869">
        <ele>953</ele>
        <time>2021-09-19T11:27:33Z</time>
      </trkpt>
      <trkpt lat="43.85909" lon="6.8687">
        <ele>953</ele>
        <time>2021-09-19T11:27:34Z</time>
      </trkpt>
      <trkpt lat="43.85909" lon="6.8687">
        <ele>953</ele>
        <time>2021-09-19T11:27:35Z</time>
      </trkpt>
      <trkpt lat="43.85878" lon="6.86942">
        <ele>956.6</ele>
        <time>2021-09-19T11:28:31Z</time>
      </trkpt>
      <trkpt lat="43.85879" lon="6.86947">
        <ele>956.8</ele>
        <time>2021-09-19T11:28:32Z</time>
      </trkpt>
      <trkpt lat="43.85882" lon="6.86953">
        <ele>957.1</ele>
        <time>2021-09-19T11:28:33Z</time>
      </trkpt>
      <trkpt lat="43.85886" lon="6.86959">
        <ele>957.5</ele>
        <time>2021-09-19T11:28:35Z</time>
      </trkpt>
      <trkpt lat="43.85892" lon="6.86968">
        <ele>958.2</ele>
        <time>2021-09-19T11:28:36Z</time>
      </trkpt>
      <trkpt lat="43.85896" lon="6.86975">
        <ele>958.7</ele>
        <time>2021-09-19T11:28:38Z</time>
      </trkpt>
      <trkpt lat="43.85902" lon="6.86984">
        <ele>959.5</ele>
        <time>2021-09-19T11:28:40Z</time>
      </trkpt>
      <trkpt lat="43.85904" lon="6.86988">
        <ele>959.7</ele>
        <time>2021-09-19T11:28:41Z</time>
      </trkpt>
      <trkpt lat="43.85906" lon="6.86991">
        <ele>959.9</ele>
        <time>2021-09-19T11:28:42Z</time>
      </trkpt>
      <trkpt lat="43.8591" lon="6.86995">
        <ele>960.3</ele>
        <time>2021-09-19T11:28:44Z</time>
      </trkpt>
      <trkpt lat="43.8591" lon="6.86997">
        <ele>960.4</ele>
        <time>2021-09-19T11:28:45Z</time>
      </trkpt>
      <trkpt lat="43.85911" lon="6.86998">
        <ele>960.4</ele>
        <time>2021-09-19T11:28:46Z</time>
      </trkpt>
      <trkpt lat="43.85911" lon="6.86999">
        <ele>960.5</ele>
        <time>2021-09-19T11:28:48Z</time>
      </trkpt>
      <trkpt lat="43.85911" lon="6.87">
        <ele>960.6</ele>
        <time>2021-09-19T11:28:49Z</time>
      </trkpt>
      <trkpt lat="43.85911" lon="6.87">
        <ele>960.6</ele>
        <time>2021-09-19T11:28:51Z</time>
      </trkpt>
      <trkpt lat="43.85911" lon="6.87">
        <ele>960.6</ele>
        <time>2021-09-19T11:28:52Z</time>
      </trkpt>
      <trkpt lat="43.85912" lon="6.87001">
        <ele>960.7</ele>
        <time>2021-09-19T11:28:54Z</time>
      </trkpt>
      <trkpt lat="43.85912" lon="6.87003">
        <ele>960.7</ele>
        <time>2021-09-19T11:28:55Z</time>
      </trkpt>
      <trkpt lat="43.85912" lon="6.87004">
        <ele>960.8</ele>
        <time>2021-09-19T11:28:56Z</time>
      </trkpt>
      <trkpt lat="43.85918" lon="6.87014">
        <ele>961.5</ele>
        <time>2021-09-19T11:28:57Z</time>
      </trkpt>
      <trkpt lat="43.85923" lon="6.87024">
        <ele>962.2</ele>
        <time>2021-09-19T11:28:58Z</time>
      </trkpt>
      <trkpt lat="43.85929" lon="6.87033">
        <ele>962.8</ele>
        <time>2021-09-19T11:29:27Z</time>
      </trkpt>
      <trkpt lat="43.85934" lon="6.87042">
        <ele>963.4</ele>
        <time>2021-09-19T11:29:29Z</time>
      </trkpt>
      <trkpt lat="43.85939" lon="6.87051">
        <ele>963.9</ele>
        <time>2021-09-19T11:29:30Z</time>
      </trkpt>
      <trkpt lat="43.85942" lon="6.87055">
        <ele>964.2</ele>
        <time>2021-09-19T11:29:32Z</time>
      </trkpt>
      <trkpt lat="43.85943" lon="6.87057">
        <ele>964.3</ele>
        <time>2021-09-19T11:29:33Z</time>
      </trkpt>
      <trkpt lat="43.85944" lon="6.87059">
        <ele>964.4</ele>
        <time>2021-09-19T11:29:34Z</time>
      </trkpt>
      <trkpt lat="43.85944" lon="6.8706">
        <ele>964.5</ele>
        <time>2021-09-19T11:29:36Z</time>
      </trkpt>
      <trkpt lat="43.85945" lon="6.87064">
        <ele>964.7</ele>
        <time>2021-09-19T11:29:38Z</time>
      </trkpt>
      <trkpt lat="43.85945" lon="6.87066">
        <ele>964.8</ele>
        <time>2021-09-19T11:29:39Z</time>
      </trkpt>
      <trkpt lat="43.85924" lon="6.87182">
        <ele>969.4</ele>
        <time>2021-09-19T11:31:05Z</time>
      </trkpt>
      <trkpt lat="43.85923" lon="6.87185">
        <ele>969.6</ele>
        <time>2021-09-19T11:31:06Z</time>
      </trkpt>
      <trkpt lat="43.85923" lon="6.87187">
        <ele>969.6</ele>
        <time>2021-09-19T11:31:07Z</time>
      </trkpt>
      <trkpt lat="43.85923" lon="6.87189">
        <ele>969.7</ele>
        <time>2021-09-19T11:31:09Z</time>
      </trkpt>
      <trkpt lat="43.85924" lon="6.87193">
        <ele>969.8</ele>
        <time>2021-09-19T11:31:11Z</time>
      </trkpt>
      <trkpt lat="43.85924" lon="6.87195">
        <ele>969.9</ele>
        <time>2021-09-19T11:31:12Z</time>
      </trkpt>
      <trkpt lat="43.85925" lon="6.872">
        <ele>970.1</ele>
        <time>2021-09-19T11:31:14Z</time>
      </trkpt>
      <trkpt lat="43.85925" lon="6.87206">
        <ele>970.3</ele>
        <time>2021-09-19T11:31:15Z</time>
      </trkpt>
      <trkpt lat="43.85925" lon="6.87209">
        <ele>970.4</ele>
        <time>2021-09-19T11:31:16Z</time>
      </trkpt>
      <trkpt lat="43.85925" lon="6.87212">
        <ele>970.5</ele>
        <time>2021-09-19T11:31:18Z</time>
      </trkpt>
      <trkpt lat="43.85926" lon="6.87214">
        <ele>970.5</ele>
        <time>2021-09-19T11:31:19Z</time>
      </trkpt>
      <trkpt lat="43.85926" lon="6.87215">
        <ele>970.6</ele>
        <time>2021-09-19T11:31:20Z</time>
      </trkpt>
      <trkpt lat="43.85926" lon="6.87218">
        <ele>970.7</ele>
        <time>2021-09-19T11:31:22Z</time>
      </trkpt>
      <trkpt lat="43.85927" lon="6.87223">
        <ele>970.9</ele>
        <time>2021-09-19T11:31:24Z</time>
      </trkpt>
      <trkpt lat="43.85927" lon="6.87225">
        <ele>971</ele>
        <time>2021-09-19T11:31:26Z</time>
      </trkpt>
      <trkpt lat="43.85947" lon="6.87283">
        <ele>973.4</ele>
        <time>2021-09-19T11:32:12Z</time>
      </trkpt>
      <trkpt lat="43.85948" lon="6.87286">
        <ele>973.5</ele>
        <time>2021-09-19T11:32:13Z</time>
      </trkpt>
      <trkpt lat="43.85949" lon="6.8729">
        <ele>973.7</ele>
        <time>2021-09-19T11:32:15Z</time>
      </trkpt>
      <trkpt lat="43.85949" lon="6.87296">
        <ele>973.9</ele>
        <time>2021-09-19T11:32:16Z</time>
      </trkpt>
      <trkpt lat="43.8595" lon="6.87299">
        <ele>974</ele>
        <time>2021-09-19T11:32:18Z</time>
      </trkpt>
      <trkpt lat="43.8595" lon="6.873">
        <ele>974</ele>
        <time>2021-09-19T11:32:19Z</time>
      </trkpt>
      <trkpt lat="43.8595" lon="6.87301">
        <ele>974.1</ele>
        <time>2021-09-19T11:32:20Z</time>
      </trkpt>
      <trkpt lat="43.8595" lon="6.87302">
        <ele>974.1</ele>
        <time>2021-09-19T11:32:21Z</time>
      </trkpt>
      <trkpt lat="43.8595" lon="6.87303">
        <ele>974.2</ele>
        <time>2021-09-19T11:32:23Z</time>
      </trkpt>
      <trkpt lat="43.85949" lon="6.87305">
        <ele>974.2</ele>
        <time>2021-09-19T11:32:24Z</time>
      </trkpt>
      <trkpt lat="43.8593" lon="6.87334">
        <ele>975.7</ele>
        <time>2021-09-19T11:32:34Z</time>
      </trkpt>
      <trkpt lat="43.85926" lon="6.87339">
        <ele>976</ele>
        <time>2021-09-19T11:32:36Z</time>
      </trkpt>
      <trkpt lat="43.85925" lon="6.87342">
        <ele>976.1</ele>
        <time>2021-09-19T11:32:37Z</time>
      </trkpt>
      <trkpt lat="43.85922" lon="6.87346">
        <ele>976.3</ele>
        <time>2021-09-19T11:32:39Z</time>
      </trkpt>
      <trkpt lat="43.85921" lon="6.87348">
        <ele>976.4</ele>
        <time>2021-09-19T11:32:41Z</time>
      </trkpt>
      <trkpt lat="43.85919" lon="6.87348">
        <ele>976.5</ele>
        <time>2021-09-19T11:32:42Z</time>
      </trkpt>
      <trkpt lat="43.85921" lon="6.87355">
        <ele>976.8</ele>
        <time>2021-09-19T11:32:44Z</time>
      </trkpt>
      <trkpt lat="43.85924" lon="6.87361">
        <ele>977.1</ele>
        <time>2021-09-19T11:32:45Z</time>
      </trkpt>
      <trkpt lat="43.85926" lon="6.87367">
        <ele>977.4</ele>
        <time>2021-09-19T11:32:47Z</time>
      </trkpt>
      <trkpt lat="43.85929" lon="6.87373">
        <ele>977.7</ele>
        <time>2021-09-19T11:33:08Z</time>
      </trkpt>
      <trkpt lat="43.85931" lon="6.87379">
        <ele>977.9</ele>
        <time>2021-09-19T11:33:09Z</time>
      </trkpt>
      <trkpt lat="43.85934" lon="6.87385">
        <ele>978.2</ele>
        <time>2021-09-19T11:33:10Z</time>
      </trkpt>
      <trkpt lat="43.85934" lon="6.87388">
        <ele>978.3</ele>
        <time>2021-09-19T11:33:12Z</time>
      </trkpt>
      <trkpt lat="43.85933" lon="6.87389">
        <ele>978.4</ele>
        <time>2021-09-19T11:33:13Z</time>
      </trkpt>
      <trkpt lat="43.85934" lon="6.8739">
        <ele>978.4</ele>
        <time>2021-09-19T11:33:14Z</time>
      </trkpt>
      <trkpt lat="43.85935" lon="6.87392">
        <ele>978.5</ele>
        <time>2021-09-19T11:33:15Z</time>
      </trkpt>
      <trkpt lat="43.85936" lon="6.87393">
        <ele>978.6</ele>
        <time>2021-09-19T11:33:17Z</time>
      </trkpt>
      <trkpt lat="43.85937" lon="6.87395">
        <ele>978.7</ele>
        <time>2021-09-19T11:33:18Z</time>
      </trkpt>
      <trkpt lat="43.85937" lon="6.87396">
        <ele>978.7</ele>
        <time>2021-09-19T11:33:20Z</time>
      </trkpt>
      <trkpt lat="43.85963" lon="6.8755">
        <ele>984.9</ele>
        <time>2021-09-19T11:34:52Z</time>
      </trkpt>
      <trkpt lat="43.85963" lon="6.87553">
        <ele>985.1</ele>
        <time>2021-09-19T11:34:53Z</time>
      </trkpt>
      <trkpt lat="43.85963" lon="6.87554">
        <ele>985.1</ele>
        <time>2021-09-19T11:34:54Z</time>
      </trkpt>
      <trkpt lat="43.85963" lon="6.87556">
        <ele>985.2</ele>
        <time>2021-09-19T11:34:56Z</time>
      </trkpt>
      <trkpt lat="43.85962" lon="6.87557">
        <ele>985.3</ele>
        <time>2021-09-19T11:34:57Z</time>
      </trkpt>
      <trkpt lat="43.85962" lon="6.87559">
        <ele>985.4</ele>
        <time>2021-09-19T11:34:59Z</time>
      </trkpt>
      <trkpt lat="43.85962" lon="6.8756">
        <ele>985.4</ele>
        <time>2021-09-19T11:35:01Z</time>
      </trkpt>
      <trkpt lat="43.85961" lon="6.87562">
        <ele>985.5</ele>
        <time>2021-09-19T11:35:02Z</time>
      </trkpt>
      <trkpt lat="43.85961" lon="6.87563">
        <ele>985.6</ele>
        <time>2021-09-19T11:35:03Z</time>
      </trkpt>
      <trkpt lat="43.85961" lon="6.87564">
        <ele>985.6</ele>
        <time>2021-09-19T11:35:05Z</time>
      </trkpt>
      <trkpt lat="43.8596" lon="6.87565">
        <ele>985.6</ele>
        <time>2021-09-19T11:35:06Z</time>
      </trkpt>
      <trkpt lat="43.85958" lon="6.8757">
        <ele>985.9</ele>
        <time>2021-09-19T11:35:08Z</time>
      </trkpt>
      <trkpt lat="43.85957" lon="6.87575">
        <ele>986.1</ele>
        <time>2021-09-19T11:35:09Z</time>
      </trkpt>
      <trkpt lat="43.85955" lon="6.87579">
        <ele>986.3</ele>
        <time>2021-09-19T11:35:10Z</time>
      </trkpt>
      <trkpt lat="43.85955" lon="6.87583">
        <ele>986.5</ele>
        <time>2021-09-19T11:35:11Z</time>
      </trkpt>
      <trkpt lat="43.85954" lon="6.87585">
        <ele>986.5</ele>
        <time>2021-09-19T11:35:12Z</time>
      </trkpt>
      <trkpt lat="43.85954" lon="6.8759">
        <ele>986.7</ele>
        <time>2021-09-19T11:35:15Z</time>
      </trkpt>
      <trkpt lat="43.85954" lon="6.87592">
        <ele>986.8</ele>
        <time>2021-09-19T11:35:16Z</time>
      </trkpt>
      <trkpt lat="43.85953" lon="6.87595">
        <ele>986.9</ele>
        <time>2021-09-19T11:35:18Z</time>
      </trkpt>
      <trkpt lat="43.85954" lon="6.87599">
        <ele>987</ele>
        <time>2021-09-19T11:35:19Z</time>
      </trkpt>
      <trkpt lat="43.85954" lon="6.876">
        <ele>987.1</ele>
        <time>2021-09-19T11:35:20Z</time>
      </trkpt>
      <trkpt lat="43.85955" lon="6.87608">
        <ele>987.3</ele>
        <time>2021-09-19T11:35:22Z</time>
      </trkpt>
      <trkpt lat="43.85956" lon="6.87616">
        <ele>987.4</ele>
        <time>2021-09-19T11:35:23Z</time>
      </trkpt>
      <trkpt lat="43.85959" lon="6.87628">
        <ele>987.7</ele>
        <time>2021-09-19T11:35:25Z</time>
      </trkpt>
      <trkpt lat="43.85961" lon="6.87636">
        <ele>987.9</ele>
        <time>2021-09-19T11:35:26Z</time>
      </trkpt>
      <trkpt lat="43.85962" lon="6.87639">
        <ele>988</ele>
        <time>2021-09-19T11:35:28Z</time>
      </trkpt>
      <trkpt lat="43.85962" lon="6.87641">
        <ele>988</ele>
        <time>2021-09-19T11:35:29Z</time>
      </trkpt>
      <trkpt lat="43.85962" lon="6.87644">
        <ele>988.1</ele>
        <time>2021-09-19T11:35:30Z</time>
      </trkpt>
      <trkpt lat="43.85963" lon="6.87647">
        <ele>988.2</ele>
        <time>2021-09-19T11:35:32Z</time>
      </trkpt>
      <trkpt lat="43.85964" lon="6.87651">
        <ele>988.3</ele>
        <time>2021-09-19T11:35:33Z</time>
      </trkpt>
      <trkpt lat="43.85966" lon="6.87655">
        <ele>988.4</ele>
        <time>2021-09-19T11:35:35Z</time>
      </trkpt>
      <trkpt lat="43.85966" lon="6.87656">
        <ele>988.4</ele>
        <time>2021-09-19T11:35:36Z</time>
      </trkpt>
      <trkpt lat="43.85966" lon="6.87659">
        <ele>988.5</ele>
        <time>2021-09-19T11:35:37Z</time>
      </trkpt>
      <trkpt lat="43.85967" lon="6.87663">
        <ele>988.6</ele>
        <time>2021-09-19T11:35:39Z</time>
      </trkpt>
      <trkpt lat="43.85967" lon="6.87668">
        <ele>988.7</ele>
        <time>2021-09-19T11:35:41Z</time>
      </trkpt>
      <trkpt lat="43.85968" lon="6.87672">
        <ele>988.8</ele>
        <time>2021-09-19T11:35:42Z</time>
      </trkpt>
      <trkpt lat="43.85969" lon="6.87675">
        <ele>988.9</ele>
        <time>2021-09-19T11:35:43Z</time>
      </trkpt>
      <trkpt lat="43.85971" lon="6.87679">
        <ele>989</ele>
        <time>2021-09-19T11:35:45Z</time>
      </trkpt>
      <trkpt lat="43.85972" lon="6.87683">
        <ele>989.1</ele>
        <time>2021-09-19T11:35:46Z</time>
      </trkpt>
      <trkpt lat="43.85971" lon="6.87687">
        <ele>989.2</ele>
        <time>2021-09-19T11:35:47Z</time>
      </trkpt>
      <trkpt lat="43.8597" lon="6.87691">
        <ele>989.4</ele>
        <time>2021-09-19T11:35:48Z</time>
      </trkpt>
      <trkpt lat="43.85967" lon="6.87698">
        <ele>989.6</ele>
        <time>2021-09-19T11:35:50Z</time>
      </trkpt>
      <trkpt lat="43.85964" lon="6.877">
        <ele>989.7</ele>
        <time>2021-09-19T11:35:51Z</time>
      </trkpt>
      <trkpt lat="43.8596" lon="6.87704">
        <ele>989.9</ele>
        <time>2021-09-19T11:35:52Z</time>
      </trkpt>
      <trkpt lat="43.85956" lon="6.87707">
        <ele>990.1</ele>
        <time>2021-09-19T11:35:53Z</time>
      </trkpt>
      <trkpt lat="43.85952" lon="6.8771">
        <ele>990.3</ele>
        <time>2021-09-19T11:35:55Z</time>
      </trkpt>
      <trkpt lat="43.85948" lon="6.87711">
        <ele>990.5</ele>
        <time>2021-09-19T11:35:56Z</time>
      </trkpt>
      <trkpt lat="43.85945" lon="6.87713">
        <ele>990.6</ele>
        <time>2021-09-19T11:35:58Z</time>
      </trkpt>
      <trkpt lat="43.85943" lon="6.87715">
        <ele>990.7</ele>
        <time>2021-09-19T11:35:59Z</time>
      </trkpt>
      <trkpt lat="43.85942" lon="6.87716">
        <ele>990.8</ele>
        <time>2021-09-19T11:36:00Z</time>
      </trkpt>
      <trkpt lat="43.85941" lon="6.87718">
        <ele>990.9</ele>
        <time>2021-09-19T11:36:01Z</time>
      </trkpt>
      <trkpt lat="43.85941" lon="6.87722">
        <ele>991</ele>
        <time>2021-09-19T11:36:03Z</time>
      </trkpt>
      <trkpt lat="43.85944" lon="6.87723">
        <ele>991.1</ele>
        <time>2021-09-19T11:36:05Z</time>
      </trkpt>
      <trkpt lat="43.85945" lon="6.87723">
        <ele>991.2</ele>
        <time>2021-09-19T11:36:06Z</time>
      </trkpt>
      <trkpt lat="43.85946" lon="6.87724">
        <ele>991.2</ele>
        <time>2021-09-19T11:36:07Z</time>
      </trkpt>
      <trkpt lat="43.85946" lon="6.87724">
        <ele>991.2</ele>
        <time>2021-09-19T11:36:09Z</time>
      </trkpt>
      <trkpt lat="43.85947" lon="6.87725">
        <ele>991.3</ele>
        <time>2021-09-19T11:36:10Z</time>
      </trkpt>
      <trkpt lat="43.85949" lon="6.87725">
        <ele>991.4</ele>
        <time>2021-09-19T11:36:12Z</time>
      </trkpt>
      <trkpt lat="43.85951" lon="6.87726">
        <ele>991.5</ele>
        <time>2021-09-19T11:36:13Z</time>
      </trkpt>
      <trkpt lat="43.8596" lon="6.87731">
        <ele>992</ele>
        <time>2021-09-19T11:36:18Z</time>
      </trkpt>
      <trkpt lat="43.85966" lon="6.87738">
        <ele>992.4</ele>
        <time>2021-09-19T11:36:20Z</time>
      </trkpt>
      <trkpt lat="43.8597" lon="6.87741">
        <ele>992.6</ele>
        <time>2021-09-19T11:36:21Z</time>
      </trkpt>
      <trkpt lat="43.85973" lon="6.87743">
        <ele>992.7</ele>
        <time>2021-09-19T11:36:22Z</time>
      </trkpt>
      <trkpt lat="43.85982" lon="6.87745">
        <ele>993</ele>
        <time>2021-09-19T11:36:24Z</time>
      </trkpt>
      <trkpt lat="43.85987" lon="6.87746">
        <ele>993.1</ele>
        <time>2021-09-19T11:36:25Z</time>
      </trkpt>
      <trkpt lat="43.85994" lon="6.87747">
        <ele>993.3</ele>
        <time>2021-09-19T11:36:26Z</time>
      </trkpt>
      <trkpt lat="43.85999" lon="6.87748">
        <ele>993.4</ele>
        <time>2021-09-19T11:36:28Z</time>
      </trkpt>
      <trkpt lat="43.86003" lon="6.87749">
        <ele>993.5</ele>
        <time>2021-09-19T11:36:29Z</time>
      </trkpt>
      <trkpt lat="43.86006" lon="6.8775">
        <ele>993.5</ele>
        <time>2021-09-19T11:36:30Z</time>
      </trkpt>
      <trkpt lat="43.8601" lon="6.87752">
        <ele>993.6</ele>
        <time>2021-09-19T11:36:31Z</time>
      </trkpt>
      <trkpt lat="43.86013" lon="6.87755">
        <ele>993.7</ele>
        <time>2021-09-19T11:36:33Z</time>
      </trkpt>
      <trkpt lat="43.86014" lon="6.87757">
        <ele>993.7</ele>
        <time>2021-09-19T11:36:34Z</time>
      </trkpt>
      <trkpt lat="43.86016" lon="6.87761">
        <ele>993.8</ele>
        <time>2021-09-19T11:36:35Z</time>
      </trkpt>
      <trkpt lat="43.86016" lon="6.87762">
        <ele>993.9</ele>
        <time>2021-09-19T11:36:36Z</time>
      </trkpt>
      <trkpt lat="43.86017" lon="6.87763">
        <ele>993.9</ele>
        <time>2021-09-19T11:36:38Z</time>
      </trkpt>
      <trkpt lat="43.86019" lon="6.87764">
        <ele>994</ele>
        <time>2021-09-19T11:36:39Z</time>
      </trkpt>
      <trkpt lat="43.86021" lon="6.87765">
        <ele>994</ele>
        <time>2021-09-19T11:36:41Z</time>
      </trkpt>
      <trkpt lat="43.86022" lon="6.87766">
        <ele>994.1</ele>
        <time>2021-09-19T11:36:42Z</time>
      </trkpt>
      <trkpt lat="43.86023" lon="6.87767">
        <ele>994.1</ele>
        <time>2021-09-19T11:36:43Z</time>
      </trkpt>
      <trkpt lat="43.86023" lon="6.87768">
        <ele>994.2</ele>
        <time>2021-09-19T11:36:44Z</time>
      </trkpt>
      <trkpt lat="43.86024" lon="6.87768">
        <ele>994.2</ele>
        <time>2021-09-19T11:36:46Z</time>
      </trkpt>
      <trkpt lat="43.85999" lon="6.87849">
        <ele>998.5</ele>
        <time>2021-09-19T11:37:26Z</time>
      </trkpt>
      <trkpt lat="43.85999" lon="6.87856">
        <ele>998.8</ele>
        <time>2021-09-19T11:37:28Z</time>
      </trkpt>
      <trkpt lat="43.85999" lon="6.8786">
        <ele>999</ele>
        <time>2021-09-19T11:37:29Z</time>
      </trkpt>
      <trkpt lat="43.85999" lon="6.87861">
        <ele>999.1</ele>
        <time>2021-09-19T11:37:30Z</time>
      </trkpt>
      <trkpt lat="43.85999" lon="6.87867">
        <ele>999.4</ele>
        <time>2021-09-19T11:37:32Z</time>
      </trkpt>
      <trkpt lat="43.86" lon="6.87871">
        <ele>999.7</ele>
        <time>2021-09-19T11:37:34Z</time>
      </trkpt>
      <trkpt lat="43.85998" lon="6.87872">
        <ele>999.8</ele>
        <time>2021-09-19T11:37:35Z</time>
      </trkpt>
      <trkpt lat="43.85996" lon="6.87873">
        <ele>1000</ele>
        <time>2021-09-19T11:37:36Z</time>
      </trkpt>
      <trkpt lat="43.85995" lon="6.87875">
        <ele>1000.1</ele>
        <time>2021-09-19T11:37:37Z</time>
      </trkpt>
      <trkpt lat="43.85994" lon="6.87876">
        <ele>1000.2</ele>
        <time>2021-09-19T11:37:39Z</time>
      </trkpt>
      <trkpt lat="43.85993" lon="6.87878">
        <ele>1000.3</ele>
        <time>2021-09-19T11:37:40Z</time>
      </trkpt>
      <trkpt lat="43.85992" lon="6.87881">
        <ele>1000.6</ele>
        <time>2021-09-19T11:37:42Z</time>
      </trkpt>
      <trkpt lat="43.86001" lon="6.88055">
        <ele>1008.7</ele>
        <time>2021-09-19T11:39:16Z</time>
      </trkpt>
      <trkpt lat="43.86001" lon="6.88059">
        <ele>1008.8</ele>
        <time>2021-09-19T11:39:17Z</time>
      </trkpt>
      <trkpt lat="43.86003" lon="6.88067">
        <ele>1009.2</ele>
        <time>2021-09-19T11:39:18Z</time>
      </trkpt>
      <trkpt lat="43.86005" lon="6.88074">
        <ele>1009.4</ele>
        <time>2021-09-19T11:39:19Z</time>
      </trkpt>
      <trkpt lat="43.86007" lon="6.8808">
        <ele>1009.6</ele>
        <time>2021-09-19T11:39:21Z</time>
      </trkpt>
      <trkpt lat="43.86008" lon="6.88086">
        <ele>1009.8</ele>
        <time>2021-09-19T11:39:22Z</time>
      </trkpt>
      <trkpt lat="43.8601" lon="6.88092">
        <ele>1010</ele>
        <time>2021-09-19T11:39:24Z</time>
      </trkpt>
      <trkpt lat="43.86011" lon="6.88098">
        <ele>1010.2</ele>
        <time>2021-09-19T11:39:26Z</time>
      </trkpt>
      <trkpt lat="43.86013" lon="6.88104">
        <ele>1010.3</ele>
        <time>2021-09-19T11:39:27Z</time>
      </trkpt>
      <trkpt lat="43.86015" lon="6.88111">
        <ele>1010.4</ele>
        <time>2021-09-19T11:40:08Z</time>
      </trkpt>
      <trkpt lat="43.86016" lon="6.88117">
        <ele>1010.4</ele>
        <time>2021-09-19T11:40:09Z</time>
      </trkpt>
      <trkpt lat="43.86016" lon="6.88123">
        <ele>1010.2</ele>
        <time>2021-09-19T11:40:11Z</time>
      </trkpt>
      <trkpt lat="43.86016" lon="6.88133">
        <ele>1010.1</ele>
        <time>2021-09-19T11:40:12Z</time>
      </trkpt>
      <trkpt lat="43.86016" lon="6.88139">
        <ele>1009.9</ele>
        <time>2021-09-19T11:40:13Z</time>
      </trkpt>
      <trkpt lat="43.86017" lon="6.88147">
        <ele>1009.7</ele>
        <time>2021-09-19T11:40:15Z</time>
      </trkpt>
      <trkpt lat="43.86018" lon="6.88154">
        <ele>1009.6</ele>
        <time>2021-09-19T11:40:16Z</time>
      </trkpt>
      <trkpt lat="43.86019" lon="6.88164">
        <ele>1009.4</ele>
        <time>2021-09-19T11:40:17Z</time>
      </trkpt>
      <trkpt lat="43.8602" lon="6.88172">
        <ele>1009.1</ele>
        <time>2021-09-19T11:40:18Z</time>
      </trkpt>
      <trkpt lat="43.86022" lon="6.88186">
        <ele>1008.7</ele>
        <time>2021-09-19T11:40:20Z</time>
      </trkpt>
      <trkpt lat="43.86024" lon="6.88194">
        <ele>1008.4</ele>
        <time>2021-09-19T11:40:21Z</time>
      </trkpt>
      <trkpt lat="43.86027" lon="6.88209">
        <ele>1007.8</ele>
        <time>2021-09-19T11:40:23Z</time>
      </trkpt>
      <trkpt lat="43.86029" lon="6.88217">
        <ele>1007.4</ele>
        <time>2021-09-19T11:40:24Z</time>
      </trkpt>
      <trkpt lat="43.86031" lon="6.88233">
        <ele>1006.9</ele>
        <time>2021-09-19T11:40:26Z</time>
      </trkpt>
      <trkpt lat="43.86032" lon="6.88241">
        <ele>1006.6</ele>
        <time>2021-09-19T11:40:27Z</time>
      </trkpt>
      <trkpt lat="43.86034" lon="6.88248">
        <ele>1006.3</ele>
        <time>2021-09-19T11:40:28Z</time>
      </trkpt>
      <trkpt lat="43.86036" lon="6.88263">
        <ele>1005.8</ele>
        <time>2021-09-19T11:40:30Z</time>
      </trkpt>
      <trkpt lat="43.86039" lon="6.88271">
        <ele>1005.5</ele>
        <time>2021-09-19T11:40:31Z</time>
      </trkpt>
      <trkpt lat="43.86044" lon="6.88289">
        <ele>1004.8</ele>
        <time>2021-09-19T11:40:33Z</time>
      </trkpt>
      <trkpt lat="43.86047" lon="6.88298">
        <ele>1004.2</ele>
        <time>2021-09-19T11:40:34Z</time>
      </trkpt>
      <trkpt lat="43.8605" lon="6.88308">
        <ele>1003.6</ele>
        <time>2021-09-19T11:40:35Z</time>
      </trkpt>
      <trkpt lat="43.86054" lon="6.88317">
        <ele>1002.8</ele>
        <time>2021-09-19T11:40:36Z</time>
      </trkpt>
      <trkpt lat="43.86062" lon="6.88337">
        <ele>1001.4</ele>
        <time>2021-09-19T11:40:38Z</time>
      </trkpt>
      <trkpt lat="43.86065" lon="6.88347">
        <ele>1000.8</ele>
        <time>2021-09-19T11:40:39Z</time>
      </trkpt>
      <trkpt lat="43.86073" lon="6.88368">
        <ele>999.6</ele>
        <time>2021-09-19T11:40:41Z</time>
      </trkpt>
      <trkpt lat="43.86076" lon="6.88379">
        <ele>999</ele>
        <time>2021-09-19T11:40:42Z</time>
      </trkpt>
      <trkpt lat="43.86082" lon="6.88402">
        <ele>997.8</ele>
        <time>2021-09-19T11:40:44Z</time>
      </trkpt>
      <trkpt lat="43.86085" lon="6.88414">
        <ele>997.1</ele>
        <time>2021-09-19T11:40:45Z</time>
      </trkpt>
      <trkpt lat="43.8609" lon="6.88437">
        <ele>995.9</ele>
        <time>2021-09-19T11:40:47Z</time>
      </trkpt>
      <trkpt lat="43.86092" lon="6.8845">
        <ele>995.5</ele>
        <time>2021-09-19T11:40:48Z</time>
      </trkpt>
      <trkpt lat="43.86097" lon="6.88477">
        <ele>993.8</ele>
        <time>2021-09-19T11:40:50Z</time>
      </trkpt>
      <trkpt lat="43.86105" lon="6.88504">
        <ele>991.7</ele>
        <time>2021-09-19T11:40:52Z</time>
      </trkpt>
      <trkpt lat="43.86113" lon="6.8853">
        <ele>990.4</ele>
        <time>2021-09-19T11:40:54Z</time>
      </trkpt>
      <trkpt lat="43.86122" lon="6.88556">
        <ele>989</ele>
        <time>2021-09-19T11:40:56Z</time>
      </trkpt>
      <trkpt lat="43.86126" lon="6.88569">
        <ele>988.3</ele>
        <time>2021-09-19T11:40:57Z</time>
      </trkpt>
      <trkpt lat="43.8613" lon="6.88582">
        <ele>987.4</ele>
        <time>2021-09-19T11:40:58Z</time>
      </trkpt>
      <trkpt lat="43.86139" lon="6.88607">
        <ele>985.5</ele>
        <time>2021-09-19T11:41:00Z</time>
      </trkpt>
      <trkpt lat="43.86149" lon="6.8863">
        <ele>984.1</ele>
        <time>2021-09-19T11:41:02Z</time>
      </trkpt>
      <trkpt lat="43.86158" lon="6.88655">
        <ele>983</ele>
        <time>2021-09-19T11:41:04Z</time>
      </trkpt>
      <trkpt lat="43.86161" lon="6.88668">
        <ele>982.5</ele>
        <time>2021-09-19T11:41:05Z</time>
      </trkpt>
      <trkpt lat="43.86166" lon="6.8868">
        <ele>981.9</ele>
        <time>2021-09-19T11:41:06Z</time>
      </trkpt>
      <trkpt lat="43.86175" lon="6.88702">
        <ele>981.4</ele>
        <time>2021-09-19T11:41:08Z</time>
      </trkpt>
      <trkpt lat="43.86182" lon="6.88724">
        <ele>981.6</ele>
        <time>2021-09-19T11:41:10Z</time>
      </trkpt>
      <trkpt lat="43.86186" lon="6.88745">
        <ele>981.8</ele>
        <time>2021-09-19T11:41:12Z</time>
      </trkpt>
      <trkpt lat="43.86188" lon="6.88764">
        <ele>982.1</ele>
        <time>2021-09-19T11:41:14Z</time>
      </trkpt>
      <trkpt lat="43.86189" lon="6.8878">
        <ele>982.3</ele>
        <time>2021-09-19T11:41:16Z</time>
      </trkpt>
      <trkpt lat="43.86189" lon="6.88795">
        <ele>982.6</ele>
        <time>2021-09-19T11:41:18Z</time>
      </trkpt>
      <trkpt lat="43.86189" lon="6.88802">
        <ele>982.8</ele>
        <time>2021-09-19T11:41:19Z</time>
      </trkpt>
      <trkpt lat="43.86189" lon="6.88809">
        <ele>983</ele>
        <time>2021-09-19T11:41:20Z</time>
      </trkpt>
      <trkpt lat="43.86189" lon="6.88814">
        <ele>983.2</ele>
        <time>2021-09-19T11:41:21Z</time>
      </trkpt>
      <trkpt lat="43.86189" lon="6.88825">
        <ele>983.6</ele>
        <time>2021-09-19T11:41:23Z</time>
      </trkpt>
      <trkpt lat="43.86189" lon="6.8883">
        <ele>983.8</ele>
        <time>2021-09-19T11:41:24Z</time>
      </trkpt>
      <trkpt lat="43.86189" lon="6.88834">
        <ele>983.9</ele>
        <time>2021-09-19T11:41:25Z</time>
      </trkpt>
      <trkpt lat="43.86187" lon="6.88842">
        <ele>984.1</ele>
        <time>2021-09-19T11:41:27Z</time>
      </trkpt>
      <trkpt lat="43.86185" lon="6.8885">
        <ele>984.4</ele>
        <time>2021-09-19T11:41:29Z</time>
      </trkpt>
      <trkpt lat="43.86184" lon="6.88854">
        <ele>984.5</ele>
        <time>2021-09-19T11:41:30Z</time>
      </trkpt>
      <trkpt lat="43.86182" lon="6.88858">
        <ele>984.7</ele>
        <time>2021-09-19T11:41:32Z</time>
      </trkpt>
      <trkpt lat="43.86181" lon="6.88859">
        <ele>984.8</ele>
        <time>2021-09-19T11:41:33Z</time>
      </trkpt>
      <trkpt lat="43.86181" lon="6.88861">
        <ele>984.9</ele>
        <time>2021-09-19T11:41:35Z</time>
      </trkpt>
      <trkpt lat="43.86182" lon="6.88861">
        <ele>984.9</ele>
        <time>2021-09-19T11:41:36Z</time>
      </trkpt>
      <trkpt lat="43.86184" lon="6.88863">
        <ele>985</ele>
        <time>2021-09-19T11:41:38Z</time>
      </trkpt>
      <trkpt lat="43.86185" lon="6.88865">
        <ele>985.2</ele>
        <time>2021-09-19T11:41:39Z</time>
      </trkpt>
      <trkpt lat="43.86185" lon="6.88868">
        <ele>985.4</ele>
        <time>2021-09-19T11:41:41Z</time>
      </trkpt>
      <trkpt lat="43.86185" lon="6.8887">
        <ele>985.5</ele>
        <time>2021-09-19T11:41:42Z</time>
      </trkpt>
      <trkpt lat="43.86185" lon="6.88873">
        <ele>985.7</ele>
        <time>2021-09-19T11:41:44Z</time>
      </trkpt>
      <trkpt lat="43.86188" lon="6.88891">
        <ele>987.3</ele>
        <time>2021-09-19T11:41:52Z</time>
      </trkpt>
      <trkpt lat="43.86188" lon="6.88894">
        <ele>987.6</ele>
        <time>2021-09-19T11:41:54Z</time>
      </trkpt>
      <trkpt lat="43.86188" lon="6.88894">
        <ele>987.6</ele>
        <time>2021-09-19T11:41:55Z</time>
      </trkpt>
      <trkpt lat="43.86188" lon="6.88894">
        <ele>987.7</ele>
        <time>2021-09-19T11:41:57Z</time>
      </trkpt>
      <trkpt lat="43.86189" lon="6.88897">
        <ele>988</ele>
        <time>2021-09-19T11:41:58Z</time>
      </trkpt>
      <trkpt lat="43.86189" lon="6.88898">
        <ele>988.1</ele>
        <time>2021-09-19T11:41:59Z</time>
      </trkpt>
      <trkpt lat="43.86189" lon="6.88899">
        <ele>988.2</ele>
        <time>2021-09-19T11:42:00Z</time>
      </trkpt>
      <trkpt lat="43.86189" lon="6.88901">
        <ele>988.4</ele>
        <time>2021-09-19T11:42:02Z</time>
      </trkpt>
      <trkpt lat="43.8619" lon="6.88902">
        <ele>988.6</ele>
        <time>2021-09-19T11:42:03Z</time>
      </trkpt>
      <trkpt lat="43.8619" lon="6.88904">
        <ele>988.7</ele>
        <time>2021-09-19T11:42:05Z</time>
      </trkpt>
      <trkpt lat="43.86191" lon="6.88907">
        <ele>989.1</ele>
        <time>2021-09-19T11:42:07Z</time>
      </trkpt>
      <trkpt lat="43.86191" lon="6.88909">
        <ele>989.3</ele>
        <time>2021-09-19T11:42:08Z</time>
      </trkpt>
      <trkpt lat="43.86201" lon="6.88935">
        <ele>992.9</ele>
        <time>2021-09-19T11:42:21Z</time>
      </trkpt>
      <trkpt lat="43.86202" lon="6.88939">
        <ele>993.3</ele>
        <time>2021-09-19T11:42:22Z</time>
      </trkpt>
      <trkpt lat="43.86204" lon="6.88944">
        <ele>994</ele>
        <time>2021-09-19T11:42:23Z</time>
      </trkpt>
      <trkpt lat="43.86205" lon="6.88946">
        <ele>994.3</ele>
        <time>2021-09-19T11:42:24Z</time>
      </trkpt>
      <trkpt lat="43.86208" lon="6.88951">
        <ele>994.8</ele>
        <time>2021-09-19T11:42:25Z</time>
      </trkpt>
      <trkpt lat="43.8621" lon="6.88955">
        <ele>995.3</ele>
        <time>2021-09-19T11:42:27Z</time>
      </trkpt>
      <trkpt lat="43.86213" lon="6.88959">
        <ele>996</ele>
        <time>2021-09-19T11:42:28Z</time>
      </trkpt>
      <trkpt lat="43.86216" lon="6.88961">
        <ele>996.3</ele>
        <time>2021-09-19T11:42:29Z</time>
      </trkpt>
      <trkpt lat="43.86217" lon="6.88962">
        <ele>996.5</ele>
        <time>2021-09-19T11:42:31Z</time>
      </trkpt>
      <trkpt lat="43.86218" lon="6.88963">
        <ele>996.6</ele>
        <time>2021-09-19T11:42:32Z</time>
      </trkpt>
      <trkpt lat="43.86219" lon="6.88966">
        <ele>996.9</ele>
        <time>2021-09-19T11:42:33Z</time>
      </trkpt>
      <trkpt lat="43.86221" lon="6.88969">
        <ele>997.3</ele>
        <time>2021-09-19T11:42:35Z</time>
      </trkpt>
      <trkpt lat="43.86223" lon="6.88972">
        <ele>997.9</ele>
        <time>2021-09-19T11:42:36Z</time>
      </trkpt>
      <trkpt lat="43.86226" lon="6.88977">
        <ele>998.5</ele>
        <time>2021-09-19T11:42:38Z</time>
      </trkpt>
      <trkpt lat="43.86227" lon="6.88978">
        <ele>998.8</ele>
        <time>2021-09-19T11:42:39Z</time>
      </trkpt>
      <trkpt lat="43.86228" lon="6.8898">
        <ele>999</ele>
        <time>2021-09-19T11:42:40Z</time>
      </trkpt>
      <trkpt lat="43.86228" lon="6.88982">
        <ele>999.2</ele>
        <time>2021-09-19T11:42:41Z</time>
      </trkpt>
      <trkpt lat="43.86228" lon="6.88982">
        <ele>999.2</ele>
        <time>2021-09-19T11:42:43Z</time>
      </trkpt>
      <trkpt lat="43.86229" lon="6.88985">
        <ele>999.5</ele>
        <time>2021-09-19T11:42:45Z</time>
      </trkpt>
      <trkpt lat="43.86229" lon="6.88987">
        <ele>999.7</ele>
        <time>2021-09-19T11:42:46Z</time>
      </trkpt>
      <trkpt lat="43.86229" lon="6.88987">
        <ele>999.8</ele>
        <time>2021-09-19T11:42:47Z</time>
      </trkpt>
      <trkpt lat="43.86228" lon="6.88987">
        <ele>999.8</ele>
        <time>2021-09-19T11:42:48Z</time>
      </trkpt>
      <trkpt lat="43.86228" lon="6.88988">
        <ele>999.9</ele>
        <time>2021-09-19T11:42:49Z</time>
      </trkpt>
      <trkpt lat="43.86228" lon="6.88988">
        <ele>999.9</ele>
        <time>2021-09-19T11:42:51Z</time>
      </trkpt>
      <trkpt lat="43.86227" lon="6.88989">
        <ele>1000</ele>
        <time>2021-09-19T11:42:52Z</time>
      </trkpt>
      <trkpt lat="43.86227" lon="6.88989">
        <ele>1000</ele>
        <time>2021-09-19T11:42:53Z</time>
      </trkpt>
      <trkpt lat="43.86228" lon="6.8899">
        <ele>1000.1</ele>
        <time>2021-09-19T11:42:55Z</time>
      </trkpt>
      <trkpt lat="43.86228" lon="6.89008">
        <ele>1001.4</ele>
        <time>2021-09-19T11:43:46Z</time>
      </trkpt>
      <trkpt lat="43.8623" lon="6.88997">
        <ele>999.8</ele>
        <time>2021-09-19T11:43:48Z</time>
      </trkpt>
      <trkpt lat="43.86237" lon="6.8898">
        <ele>997.2</ele>
        <time>2021-09-19T11:43:50Z</time>
      </trkpt>
      <trkpt lat="43.86238" lon="6.88979">
        <ele>996.6</ele>
        <time>2021-09-19T11:43:51Z</time>
      </trkpt>
      <trkpt lat="43.86239" lon="6.88979">
        <ele>996.7</ele>
        <time>2021-09-19T11:43:52Z</time>
      </trkpt>
      <trkpt lat="43.8624" lon="6.88979">
        <ele>996.7</ele>
        <time>2021-09-19T11:43:53Z</time>
      </trkpt>
      <trkpt lat="43.8624" lon="6.88979">
        <ele>996.8</ele>
        <time>2021-09-19T11:43:54Z</time>
      </trkpt>
      <trkpt lat="43.8624" lon="6.88979">
        <ele>996.8</ele>
        <time>2021-09-19T11:43:56Z</time>
      </trkpt>
      <trkpt lat="43.8624" lon="6.88979">
        <ele>996.9</ele>
        <time>2021-09-19T11:43:57Z</time>
      </trkpt>
      <trkpt lat="43.86241" lon="6.88979">
        <ele>996.9</ele>
        <time>2021-09-19T11:43:59Z</time>
      </trkpt>
      <trkpt lat="43.86156" lon="6.89042">
        <ele>1033.3</ele>
        <time>2021-09-19T11:48:57Z</time>
      </trkpt>
      <trkpt lat="43.86153" lon="6.89048">
        <ele>1035</ele>
        <time>2021-09-19T11:48:58Z</time>
      </trkpt>
      <trkpt lat="43.86152" lon="6.89049">
        <ele>1035.2</ele>
        <time>2021-09-19T11:48:59Z</time>
      </trkpt>
      <trkpt lat="43.86149" lon="6.89057">
        <ele>1036.9</ele>
        <time>2021-09-19T11:49:01Z</time>
      </trkpt>
      <trkpt lat="43.86149" lon="6.89058">
        <ele>1037.1</ele>
        <time>2021-09-19T11:49:03Z</time>
      </trkpt>
      <trkpt lat="43.86149" lon="6.89058">
        <ele>1037.1</ele>
        <time>2021-09-19T11:49:04Z</time>
      </trkpt>
      <trkpt lat="43.8615" lon="6.89056">
        <ele>1037</ele>
        <time>2021-09-19T11:49:06Z</time>
      </trkpt>
      <trkpt lat="43.86151" lon="6.89054">
        <ele>1037.1</ele>
        <time>2021-09-19T11:49:07Z</time>
      </trkpt>
      <trkpt lat="43.86151" lon="6.89053">
        <ele>1037</ele>
        <time>2021-09-19T11:49:09Z</time>
      </trkpt>
      <trkpt lat="43.86151" lon="6.8905">
        <ele>1037.1</ele>
        <time>2021-09-19T11:49:11Z</time>
      </trkpt>
      <trkpt lat="43.8615" lon="6.89047">
        <ele>1037</ele>
        <time>2021-09-19T11:49:13Z</time>
      </trkpt>
      <trkpt lat="43.86151" lon="6.89047">
        <ele>1037</ele>
        <time>2021-09-19T11:49:14Z</time>
      </trkpt>
      <trkpt lat="43.86149" lon="6.89047">
        <ele>1037.1</ele>
        <time>2021-09-19T11:49:16Z</time>
      </trkpt>
      <trkpt lat="43.86148" lon="6.89045">
        <ele>1038.7</ele>
        <time>2021-09-19T11:49:17Z</time>
      </trkpt>
      <trkpt lat="43.86149" lon="6.89044">
        <ele>1037</ele>
        <time>2021-09-19T11:49:19Z</time>
      </trkpt>
      <trkpt lat="43.8615" lon="6.89046">
        <ele>1037.2</ele>
        <time>2021-09-19T11:49:20Z</time>
      </trkpt>
      <trkpt lat="43.8615" lon="6.89051">
        <ele>1037.4</ele>
        <time>2021-09-19T11:49:22Z</time>
      </trkpt>
      <trkpt lat="43.8615" lon="6.89054">
        <ele>1037.6</ele>
        <time>2021-09-19T11:49:23Z</time>
      </trkpt>
      <trkpt lat="43.86155" lon="6.89061">
        <ele>1034.7</ele>
        <time>2021-09-19T11:49:25Z</time>
      </trkpt>
      <trkpt lat="43.86157" lon="6.89064">
        <ele>1034.9</ele>
        <time>2021-09-19T11:49:26Z</time>
      </trkpt>
      <trkpt lat="43.8616" lon="6.89068">
        <ele>1033.4</ele>
        <time>2021-09-19T11:49:27Z</time>
      </trkpt>
      <trkpt lat="43.86163" lon="6.89072">
        <ele>1031.9</ele>
        <time>2021-09-19T11:49:29Z</time>
      </trkpt>
      <trkpt lat="43.86162" lon="6.89072">
        <ele>1032</ele>
        <time>2021-09-19T11:49:30Z</time>
      </trkpt>
      <trkpt lat="43.86159" lon="6.89072">
        <ele>1033.8</ele>
        <time>2021-09-19T11:49:32Z</time>
      </trkpt>
      <trkpt lat="43.86159" lon="6.89072">
        <ele>1033.8</ele>
        <time>2021-09-19T11:49:33Z</time>
      </trkpt>
      <trkpt lat="43.86159" lon="6.89072">
        <ele>1033.9</ele>
        <time>2021-09-19T11:49:34Z</time>
      </trkpt>
      <trkpt lat="43.86158" lon="6.89072">
        <ele>1035.6</ele>
        <time>2021-09-19T11:49:36Z</time>
      </trkpt>
      <trkpt lat="43.86157" lon="6.89072">
        <ele>1035.6</ele>
        <time>2021-09-19T11:49:37Z</time>
      </trkpt>
      <trkpt lat="43.86134" lon="6.89076">
        <ele>1048.1</ele>
        <time>2021-09-19T11:50:20Z</time>
      </trkpt>
      <trkpt lat="43.86131" lon="6.89076">
        <ele>1050</ele>
        <time>2021-09-19T11:50:21Z</time>
      </trkpt>
      <trkpt lat="43.86124" lon="6.89076">
        <ele>1053.4</ele>
        <time>2021-09-19T11:50:23Z</time>
      </trkpt>
      <trkpt lat="43.86121" lon="6.89076">
        <ele>1055.1</ele>
        <time>2021-09-19T11:50:24Z</time>
      </trkpt>
      <trkpt lat="43.8612" lon="6.89075">
        <ele>1056.9</ele>
        <time>2021-09-19T11:50:26Z</time>
      </trkpt>
      <trkpt lat="43.8612" lon="6.89074">
        <ele>1056.9</ele>
        <time>2021-09-19T11:50:27Z</time>
      </trkpt>
      <trkpt lat="43.86119" lon="6.89073">
        <ele>1056.9</ele>
        <time>2021-09-19T11:50:28Z</time>
      </trkpt>
      <trkpt lat="43.86119" lon="6.89072">
        <ele>1057</ele>
        <time>2021-09-19T11:50:30Z</time>
      </trkpt>
      <trkpt lat="43.86118" lon="6.89071">
        <ele>1057</ele>
        <time>2021-09-19T11:50:32Z</time>
      </trkpt>
      <trkpt lat="43.86118" lon="6.8907">
        <ele>1057</ele>
        <time>2021-09-19T11:50:33Z</time>
      </trkpt>
      <trkpt lat="43.86118" lon="6.8907">
        <ele>1057.1</ele>
        <time>2021-09-19T11:50:34Z</time>
      </trkpt>
      <trkpt lat="43.86117" lon="6.8907">
        <ele>1059.1</ele>
        <time>2021-09-19T11:50:36Z</time>
      </trkpt>
      <trkpt lat="43.86117" lon="6.89069">
        <ele>1059.1</ele>
        <time>2021-09-19T11:50:37Z</time>
      </trkpt>
      <trkpt lat="43.86117" lon="6.89069">
        <ele>1059.2</ele>
        <time>2021-09-19T11:50:38Z</time>
      </trkpt>
      <trkpt lat="43.86078" lon="6.89254">
        <ele>1085.1</ele>
        <time>2021-09-19T12:03:51Z</time>
      </trkpt>
      <trkpt lat="43.86083" lon="6.89252">
        <ele>1083.5</ele>
        <time>2021-09-19T12:03:52Z</time>
      </trkpt>
      <trkpt lat="43.86085" lon="6.8925">
        <ele>1081.7</ele>
        <time>2021-09-19T12:03:54Z</time>
      </trkpt>
      <trkpt lat="43.86082" lon="6.89251">
        <ele>1083.6</ele>
        <time>2021-09-19T12:03:55Z</time>
      </trkpt>
      <trkpt lat="43.86081" lon="6.89252">
        <ele>1083.6</ele>
        <time>2021-09-19T12:03:56Z</time>
      </trkpt>
      <trkpt lat="43.8608" lon="6.89252">
        <ele>1085.4</ele>
        <time>2021-09-19T12:03:57Z</time>
      </trkpt>
      <trkpt lat="43.8608" lon="6.89252">
        <ele>1085.4</ele>
        <time>2021-09-19T12:03:58Z</time>
      </trkpt>
      <trkpt lat="43.8608" lon="6.89252">
        <ele>1085.5</ele>
        <time>2021-09-19T12:03:59Z</time>
      </trkpt>
      <trkpt lat="43.8608" lon="6.89252">
        <ele>1085.5</ele>
        <time>2021-09-19T12:04:00Z</time>
      </trkpt>
      <trkpt lat="43.86081" lon="6.89252">
        <ele>1083.8</ele>
        <time>2021-09-19T12:04:02Z</time>
      </trkpt>
      <trkpt lat="43.86054" lon="6.89271">
        <ele>1099.6</ele>
        <time>2021-09-19T12:04:32Z</time>
      </trkpt>
      <trkpt lat="43.86052" lon="6.89274">
        <ele>1101.7</ele>
        <time>2021-09-19T12:04:33Z</time>
      </trkpt>
      <trkpt lat="43.86051" lon="6.89276">
        <ele>1101.7</ele>
        <time>2021-09-19T12:04:34Z</time>
      </trkpt>
      <trkpt lat="43.86049" lon="6.89277">
        <ele>1103.9</ele>
        <time>2021-09-19T12:04:35Z</time>
      </trkpt>
      <trkpt lat="43.86047" lon="6.89281">
        <ele>1104</ele>
        <time>2021-09-19T12:04:37Z</time>
      </trkpt>
      <trkpt lat="43.86046" lon="6.89282">
        <ele>1105.9</ele>
        <time>2021-09-19T12:04:38Z</time>
      </trkpt>
      <trkpt lat="43.86045" lon="6.89284">
        <ele>1106</ele>
        <time>2021-09-19T12:04:39Z</time>
      </trkpt>
      <trkpt lat="43.86045" lon="6.89285">
        <ele>1106</ele>
        <time>2021-09-19T12:04:40Z</time>
      </trkpt>
      <trkpt lat="43.86042" lon="6.89291">
        <ele>1108</ele>
        <time>2021-09-19T12:04:42Z</time>
      </trkpt>
      <trkpt lat="43.8604" lon="6.89297">
        <ele>1109.8</ele>
        <time>2021-09-19T12:04:44Z</time>
      </trkpt>
      <trkpt lat="43.86039" lon="6.89301">
        <ele>1110</ele>
        <time>2021-09-19T12:04:45Z</time>
      </trkpt>
      <trkpt lat="43.86038" lon="6.89306">
        <ele>1110.2</ele>
        <time>2021-09-19T12:04:47Z</time>
      </trkpt>
      <trkpt lat="43.86037" lon="6.89308">
        <ele>1110.3</ele>
        <time>2021-09-19T12:04:48Z</time>
      </trkpt>
      <trkpt lat="43.86037" lon="6.8931">
        <ele>1110.4</ele>
        <time>2021-09-19T12:04:49Z</time>
      </trkpt>
      <trkpt lat="43.86038" lon="6.8931">
        <ele>1110.4</ele>
        <time>2021-09-19T12:04:51Z</time>
      </trkpt>
      <trkpt lat="43.86038" lon="6.89311">
        <ele>1110.6</ele>
        <time>2021-09-19T12:04:52Z</time>
      </trkpt>
      <trkpt lat="43.86039" lon="6.89312">
        <ele>1110.6</ele>
        <time>2021-09-19T12:04:53Z</time>
      </trkpt>
      <trkpt lat="43.86039" lon="6.89314">
        <ele>1110.7</ele>
        <time>2021-09-19T12:04:55Z</time>
      </trkpt>
      <trkpt lat="43.86039" lon="6.89316">
        <ele>1110.8</ele>
        <time>2021-09-19T12:04:56Z</time>
      </trkpt>
      <trkpt lat="43.8604" lon="6.89317">
        <ele>1110.8</ele>
        <time>2021-09-19T12:04:58Z</time>
      </trkpt>
      <trkpt lat="43.8604" lon="6.89317">
        <ele>1109.2</ele>
        <time>2021-09-19T12:05:00Z</time>
      </trkpt>
      <trkpt lat="43.86041" lon="6.89317">
        <ele>1109.3</ele>
        <time>2021-09-19T12:05:01Z</time>
      </trkpt>
      <trkpt lat="43.86041" lon="6.89318">
        <ele>1109.3</ele>
        <time>2021-09-19T12:05:02Z</time>
      </trkpt>
      <trkpt lat="43.86042" lon="6.89317">
        <ele>1109.4</ele>
        <time>2021-09-19T12:05:04Z</time>
      </trkpt>
      <trkpt lat="43.86043" lon="6.89318">
        <ele>1109.4</ele>
        <time>2021-09-19T12:05:05Z</time>
      </trkpt>
      <trkpt lat="43.86044" lon="6.89318">
        <ele>1107.8</ele>
        <time>2021-09-19T12:05:07Z</time>
      </trkpt>
      <trkpt lat="43.8604" lon="6.89399">
        <ele>1111.4</ele>
        <time>2021-09-19T12:07:52Z</time>
      </trkpt>
      <trkpt lat="43.86046" lon="6.89398">
        <ele>1109.6</ele>
        <time>2021-09-19T12:07:54Z</time>
      </trkpt>
      <trkpt lat="43.86049" lon="6.89397">
        <ele>1107.7</ele>
        <time>2021-09-19T12:07:56Z</time>
      </trkpt>
      <trkpt lat="43.86049" lon="6.89396">
        <ele>1107.6</ele>
        <time>2021-09-19T12:07:57Z</time>
      </trkpt>
      <trkpt lat="43.8605" lon="6.89395">
        <ele>1105.6</ele>
        <time>2021-09-19T12:07:58Z</time>
      </trkpt>
      <trkpt lat="43.86051" lon="6.89395">
        <ele>1105.6</ele>
        <time>2021-09-19T12:07:59Z</time>
      </trkpt>
      <trkpt lat="43.8605" lon="6.89394">
        <ele>1105.7</ele>
        <time>2021-09-19T12:08:00Z</time>
      </trkpt>
      <trkpt lat="43.86049" lon="6.89393">
        <ele>1107.8</ele>
        <time>2021-09-19T12:08:02Z</time>
      </trkpt>
      <trkpt lat="43.86048" lon="6.89392">
        <ele>1107.8</ele>
        <time>2021-09-19T12:08:03Z</time>
      </trkpt>
      <trkpt lat="43.86047" lon="6.89391">
        <ele>1107.8</ele>
        <time>2021-09-19T12:08:05Z</time>
      </trkpt>
      <trkpt lat="43.86046" lon="6.89391">
        <ele>1109.8</ele>
        <time>2021-09-19T12:08:06Z</time>
      </trkpt>
      <trkpt lat="43.86043" lon="6.89391">
        <ele>1111.7</ele>
        <time>2021-09-19T12:08:08Z</time>
      </trkpt>
      <trkpt lat="43.86042" lon="6.8939">
        <ele>1111.7</ele>
        <time>2021-09-19T12:08:09Z</time>
      </trkpt>
      <trkpt lat="43.86039" lon="6.8939">
        <ele>1113.5</ele>
        <time>2021-09-19T12:08:11Z</time>
      </trkpt>
      <trkpt lat="43.86037" lon="6.8939">
        <ele>1113.6</ele>
        <time>2021-09-19T12:08:12Z</time>
      </trkpt>
      <trkpt lat="43.86034" lon="6.89391">
        <ele>1117.3</ele>
        <time>2021-09-19T12:08:14Z</time>
      </trkpt>
      <trkpt lat="43.86032" lon="6.89392">
        <ele>1117.3</ele>
        <time>2021-09-19T12:08:16Z</time>
      </trkpt>
      <trkpt lat="43.86032" lon="6.89392">
        <ele>1117.5</ele>
        <time>2021-09-19T12:08:17Z</time>
      </trkpt>
      <trkpt lat="43.86032" lon="6.89393">
        <ele>1117.6</ele>
        <time>2021-09-19T12:08:18Z</time>
      </trkpt>
      <trkpt lat="43.86031" lon="6.89394">
        <ele>1117.6</ele>
        <time>2021-09-19T12:08:20Z</time>
      </trkpt>
      <trkpt lat="43.86031" lon="6.89394">
        <ele>1117.7</ele>
        <time>2021-09-19T12:08:22Z</time>
      </trkpt>
      <trkpt lat="43.86031" lon="6.89395">
        <ele>1117.7</ele>
        <time>2021-09-19T12:08:23Z</time>
      </trkpt>
      <trkpt lat="43.86031" lon="6.89395">
        <ele>1117.8</ele>
        <time>2021-09-19T12:08:24Z</time>
      </trkpt>
      <trkpt lat="43.86031" lon="6.89395">
        <ele>1119.8</ele>
        <time>2021-09-19T12:08:26Z</time>
      </trkpt>
      <trkpt lat="43.86031" lon="6.89395">
        <ele>1119.9</ele>
        <time>2021-09-19T12:08:27Z</time>
      </trkpt>
      <trkpt lat="43.86031" lon="6.89395">
        <ele>1119.9</ele>
        <time>2021-09-19T12:08:28Z</time>
      </trkpt>
      <trkpt lat="43.86031" lon="6.89395">
        <ele>1120</ele>
        <time>2021-09-19T12:08:29Z</time>
      </trkpt>
      <trkpt lat="43.86031" lon="6.89395">
        <ele>1120</ele>
        <time>2021-09-19T12:08:30Z</time>
      </trkpt>
      <trkpt lat="43.86031" lon="6.89395">
        <ele>1120.1</ele>
        <time>2021-09-19T12:08:31Z</time>
      </trkpt>
      <trkpt lat="43.86031" lon="6.89395">
        <ele>1120.1</ele>
        <time>2021-09-19T12:08:33Z</time>
      </trkpt>
      <trkpt lat="43.86031" lon="6.89395">
        <ele>1120.2</ele>
        <time>2021-09-19T12:08:34Z</time>
      </trkpt>
      <trkpt lat="43.8603" lon="6.89395">
        <ele>1120.2</ele>
        <time>2021-09-19T12:08:35Z</time>
      </trkpt>
      <trkpt lat="43.8603" lon="6.89395">
        <ele>1120.3</ele>
        <time>2021-09-19T12:08:37Z</time>
      </trkpt>
      <trkpt lat="43.8603" lon="6.89395">
        <ele>1120.3</ele>
        <time>2021-09-19T12:08:38Z</time>
      </trkpt>
      <trkpt lat="43.8603" lon="6.89395">
        <ele>1120.4</ele>
        <time>2021-09-19T12:08:39Z</time>
      </trkpt>
      <trkpt lat="43.8603" lon="6.89395">
        <ele>1120.4</ele>
        <time>2021-09-19T12:08:41Z</time>
      </trkpt>
      <trkpt lat="43.8603" lon="6.89394">
        <ele>1120.5</ele>
        <time>2021-09-19T12:08:42Z</time>
      </trkpt>
      <trkpt lat="43.8603" lon="6.89394">
        <ele>1120.5</ele>
        <time>2021-09-19T12:08:44Z</time>
      </trkpt>
      <trkpt lat="43.8603" lon="6.89394">
        <ele>1120.6</ele>
        <time>2021-09-19T12:08:46Z</time>
      </trkpt>
      <trkpt lat="43.86031" lon="6.89394">
        <ele>1120.6</ele>
        <time>2021-09-19T12:08:47Z</time>
      </trkpt>
      <trkpt lat="43.86031" lon="6.89394">
        <ele>1120.7</ele>
        <time>2021-09-19T12:08:48Z</time>
      </trkpt>
      <trkpt lat="43.86031" lon="6.89394">
        <ele>1120.7</ele>
        <time>2021-09-19T12:08:50Z</time>
      </trkpt>
      <trkpt lat="43.86031" lon="6.89394">
        <ele>1120.8</ele>
        <time>2021-09-19T12:08:51Z</time>
      </trkpt>
      <trkpt lat="43.86031" lon="6.89394">
        <ele>1120.8</ele>
        <time>2021-09-19T12:08:53Z</time>
      </trkpt>
      <trkpt lat="43.86031" lon="6.89394">
        <ele>1120.8</ele>
        <time>2021-09-19T12:08:55Z</time>
      </trkpt>
      <trkpt lat="43.86031" lon="6.89394">
        <ele>1120.9</ele>
        <time>2021-09-19T12:08:58Z</time>
      </trkpt>
      <trkpt lat="43.86031" lon="6.89394">
        <ele>1120.9</ele>
        <time>2021-09-19T12:08:59Z</time>
      </trkpt>
      <trkpt lat="43.86031" lon="6.89394">
        <ele>1121</ele>
        <time>2021-09-19T12:09:01Z</time>
      </trkpt>
      <trkpt lat="43.86031" lon="6.89394">
        <ele>1121</ele>
        <time>2021-09-19T12:09:02Z</time>
      </trkpt>
      <trkpt lat="43.86031" lon="6.89394">
        <ele>1121.1</ele>
        <time>2021-09-19T12:09:03Z</time>
      </trkpt>
      <trkpt lat="43.86031" lon="6.89394">
        <ele>1121.1</ele>
        <time>2021-09-19T12:09:05Z</time>
      </trkpt>
      <trkpt lat="43.8603" lon="6.89394">
        <ele>1121.2</ele>
        <time>2021-09-19T12:09:06Z</time>
      </trkpt>
      <trkpt lat="43.8603" lon="6.89394">
        <ele>1121.2</ele>
        <time>2021-09-19T12:09:07Z</time>
      </trkpt>
      <trkpt lat="43.8603" lon="6.89394">
        <ele>1121.3</ele>
        <time>2021-09-19T12:09:09Z</time>
      </trkpt>
      <trkpt lat="43.86031" lon="6.89395">
        <ele>1121.3</ele>
        <time>2021-09-19T12:09:10Z</time>
      </trkpt>
      <trkpt lat="43.86031" lon="6.89395">
        <ele>1121.4</ele>
        <time>2021-09-19T12:09:11Z</time>
      </trkpt>
      <trkpt lat="43.86031" lon="6.89395">
        <ele>1121.4</ele>
        <time>2021-09-19T12:09:12Z</time>
      </trkpt>
      <trkpt lat="43.86031" lon="6.89395">
        <ele>1121.5</ele>
        <time>2021-09-19T12:09:13Z</time>
      </trkpt>
      <trkpt lat="43.86031" lon="6.89395">
        <ele>1121.5</ele>
        <time>2021-09-19T12:09:14Z</time>
      </trkpt>
      <trkpt lat="43.86031" lon="6.89396">
        <ele>1121.6</ele>
        <time>2021-09-19T12:09:16Z</time>
      </trkpt>
      <trkpt lat="43.86031" lon="6.89396">
        <ele>1121.6</ele>
        <time>2021-09-19T12:09:17Z</time>
      </trkpt>
      <trkpt lat="43.86031" lon="6.89396">
        <ele>1119.7</ele>
        <time>2021-09-19T12:09:18Z</time>
      </trkpt>
      <trkpt lat="43.86031" lon="6.89396">
        <ele>1119.7</ele>
        <time>2021-09-19T12:09:20Z</time>
      </trkpt>
      <trkpt lat="43.86031" lon="6.89396">
        <ele>1119.8</ele>
        <time>2021-09-19T12:09:21Z</time>
      </trkpt>
      <trkpt lat="43.86031" lon="6.89396">
        <ele>1119.8</ele>
        <time>2021-09-19T12:09:22Z</time>
      </trkpt>
      <trkpt lat="43.86031" lon="6.89396">
        <ele>1119.9</ele>
        <time>2021-09-19T12:09:23Z</time>
      </trkpt>
      <trkpt lat="43.86031" lon="6.89396">
        <ele>1119.9</ele>
        <time>2021-09-19T12:09:25Z</time>
      </trkpt>
      <trkpt lat="43.86031" lon="6.89396">
        <ele>1120</ele>
        <time>2021-09-19T12:09:26Z</time>
      </trkpt>
      <trkpt lat="43.86031" lon="6.89396">
        <ele>1120</ele>
        <time>2021-09-19T12:09:27Z</time>
      </trkpt>
      <trkpt lat="43.86031" lon="6.89396">
        <ele>1120</ele>
        <time>2021-09-19T12:09:28Z</time>
      </trkpt>
      <trkpt lat="43.86031" lon="6.89396">
        <ele>1120.1</ele>
        <time>2021-09-19T12:09:30Z</time>
      </trkpt>
      <trkpt lat="43.8603" lon="6.89397">
        <ele>1122.3</ele>
        <time>2021-09-19T12:09:31Z</time>
      </trkpt>
      <trkpt lat="43.8603" lon="6.89398">
        <ele>1122.3</ele>
        <time>2021-09-19T12:09:32Z</time>
      </trkpt>
      <trkpt lat="43.86028" lon="6.89399">
        <ele>1122.4</ele>
        <time>2021-09-19T12:09:33Z</time>
      </trkpt>
      <trkpt lat="43.86027" lon="6.894">
        <ele>1124.5</ele>
        <time>2021-09-19T12:09:35Z</time>
      </trkpt>
      <trkpt lat="43.86027" lon="6.894">
        <ele>1124.5</ele>
        <time>2021-09-19T12:09:36Z</time>
      </trkpt>
      <trkpt lat="43.86026" lon="6.89401">
        <ele>1124.7</ele>
        <time>2021-09-19T12:09:38Z</time>
      </trkpt>
      <trkpt lat="43.86026" lon="6.89402">
        <ele>1124.7</ele>
        <time>2021-09-19T12:09:40Z</time>
      </trkpt>
      <trkpt lat="43.86025" lon="6.89402">
        <ele>1124.8</ele>
        <time>2021-09-19T12:09:41Z</time>
      </trkpt>
      <trkpt lat="43.86025" lon="6.89403">
        <ele>1124.8</ele>
        <time>2021-09-19T12:09:42Z</time>
      </trkpt>
      <trkpt lat="43.86025" lon="6.89403">
        <ele>1124.9</ele>
        <time>2021-09-19T12:09:44Z</time>
      </trkpt>
      <trkpt lat="43.86025" lon="6.89403">
        <ele>1126.9</ele>
        <time>2021-09-19T12:09:45Z</time>
      </trkpt>
      <trkpt lat="43.86024" lon="6.89404">
        <ele>1127</ele>
        <time>2021-09-19T12:09:47Z</time>
      </trkpt>
      <trkpt lat="43.86024" lon="6.89404">
        <ele>1127</ele>
        <time>2021-09-19T12:09:49Z</time>
      </trkpt>
      <trkpt lat="43.86024" lon="6.89404">
        <ele>1127.1</ele>
        <time>2021-09-19T12:09:51Z</time>
      </trkpt>
      <trkpt lat="43.86024" lon="6.89404">
        <ele>1127.1</ele>
        <time>2021-09-19T12:09:52Z</time>
      </trkpt>
      <trkpt lat="43.86024" lon="6.89404">
        <ele>1127.2</ele>
        <time>2021-09-19T12:09:53Z</time>
      </trkpt>
      <trkpt lat="43.86024" lon="6.89404">
        <ele>1127.2</ele>
        <time>2021-09-19T12:09:55Z</time>
      </trkpt>
      <trkpt lat="43.86023" lon="6.89404">
        <ele>1127.3</ele>
        <time>2021-09-19T12:09:56Z</time>
      </trkpt>
      <trkpt lat="43.86023" lon="6.89404">
        <ele>1127.3</ele>
        <time>2021-09-19T12:09:57Z</time>
      </trkpt>
      <trkpt lat="43.86023" lon="6.89404">
        <ele>1127.4</ele>
        <time>2021-09-19T12:09:59Z</time>
      </trkpt>
      <trkpt lat="43.86023" lon="6.89404">
        <ele>1127.4</ele>
        <time>2021-09-19T12:10:00Z</time>
      </trkpt>
      <trkpt lat="43.86023" lon="6.89404">
        <ele>1127.5</ele>
        <time>2021-09-19T12:10:01Z</time>
      </trkpt>
      <trkpt lat="43.86023" lon="6.89404">
        <ele>1127.5</ele>
        <time>2021-09-19T12:10:03Z</time>
      </trkpt>
      <trkpt lat="43.86023" lon="6.89404">
        <ele>1127.6</ele>
        <time>2021-09-19T12:10:04Z</time>
      </trkpt>
      <trkpt lat="43.86023" lon="6.89404">
        <ele>1127.6</ele>
        <time>2021-09-19T12:10:06Z</time>
      </trkpt>
      <trkpt lat="43.86023" lon="6.89403">
        <ele>1127.7</ele>
        <time>2021-09-19T12:10:08Z</time>
      </trkpt>
      <trkpt lat="43.86023" lon="6.89403">
        <ele>1127.7</ele>
        <time>2021-09-19T12:10:09Z</time>
      </trkpt>
      <trkpt lat="43.86023" lon="6.89403">
        <ele>1127.7</ele>
        <time>2021-09-19T12:10:10Z</time>
      </trkpt>
      <trkpt lat="43.86023" lon="6.89403">
        <ele>1127.8</ele>
        <time>2021-09-19T12:10:12Z</time>
      </trkpt>
      <trkpt lat="43.86024" lon="6.89406">
        <ele>1127.9</ele>
        <time>2021-09-19T12:10:14Z</time>
      </trkpt>
      <trkpt lat="43.86024" lon="6.89408">
        <ele>1127.9</ele>
        <time>2021-09-19T12:10:15Z</time>
      </trkpt>
      <trkpt lat="43.86024" lon="6.8941">
        <ele>1128</ele>
        <time>2021-09-19T12:10:16Z</time>
      </trkpt>
      <trkpt lat="43.86025" lon="6.89412">
        <ele>1128.1</ele>
        <time>2021-09-19T12:10:18Z</time>
      </trkpt>
      <trkpt lat="43.86025" lon="6.89413">
        <ele>1128.1</ele>
        <time>2021-09-19T12:10:19Z</time>
      </trkpt>
      <trkpt lat="43.86025" lon="6.89414">
        <ele>1126.2</ele>
        <time>2021-09-19T12:10:21Z</time>
      </trkpt>
      <trkpt lat="43.86025" lon="6.89415">
        <ele>1126.2</ele>
        <time>2021-09-19T12:10:22Z</time>
      </trkpt>
      <trkpt lat="43.86025" lon="6.89416">
        <ele>1126.3</ele>
        <time>2021-09-19T12:10:23Z</time>
      </trkpt>
      <trkpt lat="43.86025" lon="6.89416">
        <ele>1126.3</ele>
        <time>2021-09-19T12:10:24Z</time>
      </trkpt>
      <trkpt lat="43.86025" lon="6.89417">
        <ele>1126.4</ele>
        <time>2021-09-19T12:10:26Z</time>
      </trkpt>
      <trkpt lat="43.86025" lon="6.89417">
        <ele>1126.4</ele>
        <time>2021-09-19T12:10:28Z</time>
      </trkpt>
      <trkpt lat="43.86025" lon="6.89418">
        <ele>1126.4</ele>
        <time>2021-09-19T12:10:29Z</time>
      </trkpt>
      <trkpt lat="43.86023" lon="6.8942">
        <ele>1128.5</ele>
        <time>2021-09-19T12:10:31Z</time>
      </trkpt>
      <trkpt lat="43.86022" lon="6.89421">
        <ele>1128.5</ele>
        <time>2021-09-19T12:10:32Z</time>
      </trkpt>
      <trkpt lat="43.8602" lon="6.89422">
        <ele>1130.4</ele>
        <time>2021-09-19T12:10:34Z</time>
      </trkpt>
      <trkpt lat="43.86019" lon="6.89422">
        <ele>1130.4</ele>
        <time>2021-09-19T12:10:35Z</time>
      </trkpt>
      <trkpt lat="43.86019" lon="6.89423">
        <ele>1130.4</ele>
        <time>2021-09-19T12:10:36Z</time>
      </trkpt>
      <trkpt lat="43.86018" lon="6.89424">
        <ele>1132.1</ele>
        <time>2021-09-19T12:10:38Z</time>
      </trkpt>
      <trkpt lat="43.86017" lon="6.89424">
        <ele>1132.2</ele>
        <time>2021-09-19T12:10:40Z</time>
      </trkpt>
      <trkpt lat="43.86017" lon="6.89424">
        <ele>1132.2</ele>
        <time>2021-09-19T12:10:41Z</time>
      </trkpt>
      <trkpt lat="43.86017" lon="6.89424">
        <ele>1132.3</ele>
        <time>2021-09-19T12:10:43Z</time>
      </trkpt>
      <trkpt lat="43.86017" lon="6.89425">
        <ele>1132.3</ele>
        <time>2021-09-19T12:10:45Z</time>
      </trkpt>
      <trkpt lat="43.86017" lon="6.89425">
        <ele>1132.4</ele>
        <time>2021-09-19T12:10:46Z</time>
      </trkpt>
      <trkpt lat="43.86017" lon="6.89425">
        <ele>1132.4</ele>
        <time>2021-09-19T12:10:47Z</time>
      </trkpt>
      <trkpt lat="43.86016" lon="6.89425">
        <ele>1132.5</ele>
        <time>2021-09-19T12:10:48Z</time>
      </trkpt>
      <trkpt lat="43.86015" lon="6.89425">
        <ele>1134.1</ele>
        <time>2021-09-19T12:10:50Z</time>
      </trkpt>
      <trkpt lat="43.86013" lon="6.89426">
        <ele>1134.1</ele>
        <time>2021-09-19T12:10:51Z</time>
      </trkpt>
      <trkpt lat="43.86011" lon="6.89427">
        <ele>1135.7</ele>
        <time>2021-09-19T12:10:52Z</time>
      </trkpt>
      <trkpt lat="43.86011" lon="6.89427">
        <ele>1135.7</ele>
        <time>2021-09-19T12:10:53Z</time>
      </trkpt>
      <trkpt lat="43.8601" lon="6.89428">
        <ele>1135.8</ele>
        <time>2021-09-19T12:10:54Z</time>
      </trkpt>
      <trkpt lat="43.86009" lon="6.89428">
        <ele>1137.4</ele>
        <time>2021-09-19T12:10:56Z</time>
      </trkpt>
      <trkpt lat="43.86008" lon="6.89429">
        <ele>1137.5</ele>
        <time>2021-09-19T12:10:57Z</time>
      </trkpt>
      <trkpt lat="43.86007" lon="6.89429">
        <ele>1137.6</ele>
        <time>2021-09-19T12:10:59Z</time>
      </trkpt>
      <trkpt lat="43.86007" lon="6.89429">
        <ele>1137.6</ele>
        <time>2021-09-19T12:11:01Z</time>
      </trkpt>
      <trkpt lat="43.86007" lon="6.89429">
        <ele>1137.6</ele>
        <time>2021-09-19T12:11:02Z</time>
      </trkpt>
      <trkpt lat="43.86007" lon="6.89429">
        <ele>1137.6</ele>
        <time>2021-09-19T12:11:04Z</time>
      </trkpt>
      <trkpt lat="43.86007" lon="6.8943">
        <ele>1137.7</ele>
        <time>2021-09-19T12:11:05Z</time>
      </trkpt>
      <trkpt lat="43.86007" lon="6.89429">
        <ele>1137.7</ele>
        <time>2021-09-19T12:11:06Z</time>
      </trkpt>
      <trkpt lat="43.86007" lon="6.89429">
        <ele>1137.7</ele>
        <time>2021-09-19T12:11:08Z</time>
      </trkpt>
      <trkpt lat="43.86007" lon="6.89429">
        <ele>1137.7</ele>
        <time>2021-09-19T12:11:09Z</time>
      </trkpt>
      <trkpt lat="43.86007" lon="6.89429">
        <ele>1137.7</ele>
        <time>2021-09-19T12:11:10Z</time>
      </trkpt>
      <trkpt lat="43.86007" lon="6.89429">
        <ele>1137.7</ele>
        <time>2021-09-19T12:11:12Z</time>
      </trkpt>
      <trkpt lat="43.86007" lon="6.89429">
        <ele>1137.7</ele>
        <time>2021-09-19T12:11:13Z</time>
      </trkpt>
      <trkpt lat="43.86007" lon="6.89429">
        <ele>1137.7</ele>
        <time>2021-09-19T12:11:14Z</time>
      </trkpt>
      <trkpt lat="43.86007" lon="6.89429">
        <ele>1137.7</ele>
        <time>2021-09-19T12:11:15Z</time>
      </trkpt>
      <trkpt lat="43.86007" lon="6.89429">
        <ele>1137.7</ele>
        <time>2021-09-19T12:11:17Z</time>
      </trkpt>
      <trkpt lat="43.86007" lon="6.89429">
        <ele>1137.7</ele>
        <time>2021-09-19T12:11:18Z</time>
      </trkpt>
      <trkpt lat="43.86006" lon="6.8943">
        <ele>1137.8</ele>
        <time>2021-09-19T12:11:20Z</time>
      </trkpt>
      <trkpt lat="43.86005" lon="6.89431">
        <ele>1138</ele>
        <time>2021-09-19T12:11:21Z</time>
      </trkpt>
      <trkpt lat="43.86003" lon="6.89433">
        <ele>1138.2</ele>
        <time>2021-09-19T12:11:22Z</time>
      </trkpt>
      <trkpt lat="43.86002" lon="6.89434">
        <ele>1138.4</ele>
        <time>2021-09-19T12:11:23Z</time>
      </trkpt>
      <trkpt lat="43.86001" lon="6.89435">
        <ele>1138.5</ele>
        <time>2021-09-19T12:11:24Z</time>
      </trkpt>
      <trkpt lat="43.86" lon="6.89436">
        <ele>1138.6</ele>
        <time>2021-09-19T12:11:26Z</time>
      </trkpt>
      <trkpt lat="43.85999" lon="6.89437">
        <ele>1138.7</ele>
        <time>2021-09-19T12:11:27Z</time>
      </trkpt>
      <trkpt lat="43.85999" lon="6.89438">
        <ele>1138.8</ele>
        <time>2021-09-19T12:11:29Z</time>
      </trkpt>
      <trkpt lat="43.85998" lon="6.89438">
        <ele>1138.9</ele>
        <time>2021-09-19T12:11:31Z</time>
      </trkpt>
      <trkpt lat="43.85998" lon="6.89439">
        <ele>1138.9</ele>
        <time>2021-09-19T12:11:33Z</time>
      </trkpt>
      <trkpt lat="43.85998" lon="6.8944">
        <ele>1139</ele>
        <time>2021-09-19T12:11:34Z</time>
      </trkpt>
      <trkpt lat="43.85997" lon="6.8944">
        <ele>1139</ele>
        <time>2021-09-19T12:11:35Z</time>
      </trkpt>
      <trkpt lat="43.85997" lon="6.89441">
        <ele>1139.1</ele>
        <time>2021-09-19T12:11:37Z</time>
      </trkpt>
      <trkpt lat="43.85997" lon="6.89442">
        <ele>1139.1</ele>
        <time>2021-09-19T12:11:38Z</time>
      </trkpt>
      <trkpt lat="43.85996" lon="6.89442">
        <ele>1139.2</ele>
        <time>2021-09-19T12:11:39Z</time>
      </trkpt>
      <trkpt lat="43.85996" lon="6.89443">
        <ele>1139.3</ele>
        <time>2021-09-19T12:11:40Z</time>
      </trkpt>
      <trkpt lat="43.85996" lon="6.89444">
        <ele>1139.3</ele>
        <time>2021-09-19T12:11:42Z</time>
      </trkpt>
      <trkpt lat="43.85995" lon="6.89444">
        <ele>1139.4</ele>
        <time>2021-09-19T12:11:43Z</time>
      </trkpt>
      <trkpt lat="43.85995" lon="6.89445">
        <ele>1139.4</ele>
        <time>2021-09-19T12:11:45Z</time>
      </trkpt>
      <trkpt lat="43.85995" lon="6.89446">
        <ele>1139.5</ele>
        <time>2021-09-19T12:11:47Z</time>
      </trkpt>
      <trkpt lat="43.85994" lon="6.89446">
        <ele>1139.5</ele>
        <time>2021-09-19T12:11:48Z</time>
      </trkpt>
      <trkpt lat="43.85994" lon="6.89447">
        <ele>1139.6</ele>
        <time>2021-09-19T12:11:50Z</time>
      </trkpt>
      <trkpt lat="43.85994" lon="6.89448">
        <ele>1139.7</ele>
        <time>2021-09-19T12:11:52Z</time>
      </trkpt>
      <trkpt lat="43.85993" lon="6.89448">
        <ele>1139.7</ele>
        <time>2021-09-19T12:11:54Z</time>
      </trkpt>
      <trkpt lat="43.85993" lon="6.89449">
        <ele>1139.8</ele>
        <time>2021-09-19T12:11:56Z</time>
      </trkpt>
      <trkpt lat="43.85993" lon="6.89449">
        <ele>1139.8</ele>
        <time>2021-09-19T12:11:57Z</time>
      </trkpt>
      <trkpt lat="43.85992" lon="6.8945">
        <ele>1139.9</ele>
        <time>2021-09-19T12:11:59Z</time>
      </trkpt>
      <trkpt lat="43.85992" lon="6.89451">
        <ele>1139.9</ele>
        <time>2021-09-19T12:12:00Z</time>
      </trkpt>
      <trkpt lat="43.85992" lon="6.89451">
        <ele>1140</ele>
        <time>2021-09-19T12:12:01Z</time>
      </trkpt>
      <trkpt lat="43.85991" lon="6.89452">
        <ele>1140</ele>
        <time>2021-09-19T12:12:03Z</time>
      </trkpt>
      <trkpt lat="43.85991" lon="6.89453">
        <ele>1140.1</ele>
        <time>2021-09-19T12:12:04Z</time>
      </trkpt>
      <trkpt lat="43.85991" lon="6.89453">
        <ele>1140.1</ele>
        <time>2021-09-19T12:12:06Z</time>
      </trkpt>
      <trkpt lat="43.8599" lon="6.89454">
        <ele>1140.2</ele>
        <time>2021-09-19T12:12:07Z</time>
      </trkpt>
      <trkpt lat="43.8599" lon="6.89455">
        <ele>1140.2</ele>
        <time>2021-09-19T12:12:08Z</time>
      </trkpt>
      <trkpt lat="43.8599" lon="6.89455">
        <ele>1140.3</ele>
        <time>2021-09-19T12:12:10Z</time>
      </trkpt>
      <trkpt lat="43.85989" lon="6.89456">
        <ele>1140.4</ele>
        <time>2021-09-19T12:12:11Z</time>
      </trkpt>
      <trkpt lat="43.85989" lon="6.89459">
        <ele>1140.5</ele>
        <time>2021-09-19T12:12:13Z</time>
      </trkpt>
      <trkpt lat="43.85989" lon="6.89461">
        <ele>1140.7</ele>
        <time>2021-09-19T12:12:15Z</time>
      </trkpt>
      <trkpt lat="43.85989" lon="6.89462">
        <ele>1140.8</ele>
        <time>2021-09-19T12:12:16Z</time>
      </trkpt>
      <trkpt lat="43.85989" lon="6.89464">
        <ele>1140.9</ele>
        <time>2021-09-19T12:12:18Z</time>
      </trkpt>
      <trkpt lat="43.85989" lon="6.89464">
        <ele>1140.9</ele>
        <time>2021-09-19T12:12:19Z</time>
      </trkpt>
      <trkpt lat="43.85989" lon="6.89465">
        <ele>1140.9</ele>
        <time>2021-09-19T12:12:20Z</time>
      </trkpt>
      <trkpt lat="43.85989" lon="6.89465">
        <ele>1141</ele>
        <time>2021-09-19T12:12:22Z</time>
      </trkpt>
      <trkpt lat="43.85989" lon="6.89466">
        <ele>1141</ele>
        <time>2021-09-19T12:12:23Z</time>
      </trkpt>
      <trkpt lat="43.85989" lon="6.89466">
        <ele>1141</ele>
        <time>2021-09-19T12:12:25Z</time>
      </trkpt>
      <trkpt lat="43.85989" lon="6.89467">
        <ele>1141</ele>
        <time>2021-09-19T12:12:26Z</time>
      </trkpt>
      <trkpt lat="43.85988" lon="6.89467">
        <ele>1141.1</ele>
        <time>2021-09-19T12:12:28Z</time>
      </trkpt>
      <trkpt lat="43.85986" lon="6.89469">
        <ele>1141.3</ele>
        <time>2021-09-19T12:12:30Z</time>
      </trkpt>
      <trkpt lat="43.85984" lon="6.89471">
        <ele>1141.4</ele>
        <time>2021-09-19T12:12:31Z</time>
      </trkpt>
      <trkpt lat="43.85983" lon="6.89472">
        <ele>1141.6</ele>
        <time>2021-09-19T12:12:32Z</time>
      </trkpt>
      <trkpt lat="43.85982" lon="6.89473">
        <ele>1141.7</ele>
        <time>2021-09-19T12:12:34Z</time>
      </trkpt>
      <trkpt lat="43.85981" lon="6.89475">
        <ele>1141.8</ele>
        <time>2021-09-19T12:12:35Z</time>
      </trkpt>
      <trkpt lat="43.85979" lon="6.89476">
        <ele>1142</ele>
        <time>2021-09-19T12:12:37Z</time>
      </trkpt>
      <trkpt lat="43.85978" lon="6.89477">
        <ele>1142</ele>
        <time>2021-09-19T12:12:38Z</time>
      </trkpt>
      <trkpt lat="43.85977" lon="6.89478">
        <ele>1142.1</ele>
        <time>2021-09-19T12:12:40Z</time>
      </trkpt>
      <trkpt lat="43.85976" lon="6.89479">
        <ele>1142.2</ele>
        <time>2021-09-19T12:12:41Z</time>
      </trkpt>
      <trkpt lat="43.85976" lon="6.89479">
        <ele>1142.2</ele>
        <time>2021-09-19T12:12:43Z</time>
      </trkpt>
      <trkpt lat="43.85976" lon="6.89479">
        <ele>1142.2</ele>
        <time>2021-09-19T12:12:44Z</time>
      </trkpt>
      <trkpt lat="43.85976" lon="6.89479">
        <ele>1142.2</ele>
        <time>2021-09-19T12:12:45Z</time>
      </trkpt>
      <trkpt lat="43.85976" lon="6.89479">
        <ele>1142.3</ele>
        <time>2021-09-19T12:12:47Z</time>
      </trkpt>
      <trkpt lat="43.85975" lon="6.89479">
        <ele>1142.3</ele>
        <time>2021-09-19T12:12:48Z</time>
      </trkpt>
      <trkpt lat="43.85975" lon="6.89479">
        <ele>1142.3</ele>
        <time>2021-09-19T12:12:49Z</time>
      </trkpt>
      <trkpt lat="43.85975" lon="6.89479">
        <ele>1142.3</ele>
        <time>2021-09-19T12:12:50Z</time>
      </trkpt>
      <trkpt lat="43.85975" lon="6.89479">
        <ele>1142.3</ele>
        <time>2021-09-19T12:12:51Z</time>
      </trkpt>
      <trkpt lat="43.85975" lon="6.89479">
        <ele>1142.3</ele>
        <time>2021-09-19T12:12:53Z</time>
      </trkpt>
      <trkpt lat="43.85975" lon="6.89479">
        <ele>1142.3</ele>
        <time>2021-09-19T12:12:55Z</time>
      </trkpt>
      <trkpt lat="43.85975" lon="6.89479">
        <ele>1142.3</ele>
        <time>2021-09-19T12:12:56Z</time>
      </trkpt>
      <trkpt lat="43.85974" lon="6.8948">
        <ele>1142.4</ele>
        <time>2021-09-19T12:12:57Z</time>
      </trkpt>
      <trkpt lat="43.85973" lon="6.89481">
        <ele>1142.5</ele>
        <time>2021-09-19T12:12:59Z</time>
      </trkpt>
      <trkpt lat="43.85972" lon="6.89481">
        <ele>1142.5</ele>
        <time>2021-09-19T12:13:00Z</time>
      </trkpt>
      <trkpt lat="43.8597" lon="6.89483">
        <ele>1142.7</ele>
        <time>2021-09-19T12:13:02Z</time>
      </trkpt>
      <trkpt lat="43.85968" lon="6.89484">
        <ele>1142.9</ele>
        <time>2021-09-19T12:13:03Z</time>
      </trkpt>
      <trkpt lat="43.85968" lon="6.89485">
        <ele>1142.9</ele>
        <time>2021-09-19T12:13:05Z</time>
      </trkpt>
      <trkpt lat="43.85967" lon="6.89485">
        <ele>1143</ele>
        <time>2021-09-19T12:13:07Z</time>
      </trkpt>
      <trkpt lat="43.85967" lon="6.89486">
        <ele>1143</ele>
        <time>2021-09-19T12:13:08Z</time>
      </trkpt>
      <trkpt lat="43.85966" lon="6.89487">
        <ele>1143.1</ele>
        <time>2021-09-19T12:13:09Z</time>
      </trkpt>
      <trkpt lat="43.85966" lon="6.89487">
        <ele>1143.1</ele>
        <time>2021-09-19T12:13:11Z</time>
      </trkpt>
      <trkpt lat="43.85965" lon="6.89488">
        <ele>1143.2</ele>
        <time>2021-09-19T12:13:12Z</time>
      </trkpt>
      <trkpt lat="43.85964" lon="6.89488">
        <ele>1143.2</ele>
        <time>2021-09-19T12:13:14Z</time>
      </trkpt>
      <trkpt lat="43.85964" lon="6.89489">
        <ele>1143.2</ele>
        <time>2021-09-19T12:13:15Z</time>
      </trkpt>
      <trkpt lat="43.85962" lon="6.8949">
        <ele>1143.4</ele>
        <time>2021-09-19T12:13:17Z</time>
      </trkpt>
      <trkpt lat="43.85961" lon="6.89491">
        <ele>1143.5</ele>
        <time>2021-09-19T12:13:18Z</time>
      </trkpt>
      <trkpt lat="43.85959" lon="6.89494">
        <ele>1143.7</ele>
        <time>2021-09-19T12:13:21Z</time>
      </trkpt>
      <trkpt lat="43.85958" lon="6.89495">
        <ele>1143.8</ele>
        <time>2021-09-19T12:13:22Z</time>
      </trkpt>
      <trkpt lat="43.85958" lon="6.89496">
        <ele>1143.8</ele>
        <time>2021-09-19T12:13:24Z</time>
      </trkpt>
      <trkpt lat="43.85957" lon="6.89496">
        <ele>1143.9</ele>
        <time>2021-09-19T12:13:27Z</time>
      </trkpt>
      <trkpt lat="43.85957" lon="6.89496">
        <ele>1143.9</ele>
        <time>2021-09-19T12:13:28Z</time>
      </trkpt>
      <trkpt lat="43.85957" lon="6.89497">
        <ele>1143.9</ele>
        <time>2021-09-19T12:13:30Z</time>
      </trkpt>
      <trkpt lat="43.85957" lon="6.89497">
        <ele>1144</ele>
        <time>2021-09-19T12:13:31Z</time>
      </trkpt>
      <trkpt lat="43.85957" lon="6.89497">
        <ele>1144</ele>
        <time>2021-09-19T12:13:33Z</time>
      </trkpt>
      <trkpt lat="43.85956" lon="6.89497">
        <ele>1144</ele>
        <time>2021-09-19T12:13:34Z</time>
      </trkpt>
      <trkpt lat="43.85956" lon="6.89498">
        <ele>1144</ele>
        <time>2021-09-19T12:13:35Z</time>
      </trkpt>
      <trkpt lat="43.85956" lon="6.89498">
        <ele>1144</ele>
        <time>2021-09-19T12:13:37Z</time>
      </trkpt>
      <trkpt lat="43.85956" lon="6.89498">
        <ele>1144</ele>
        <time>2021-09-19T12:13:39Z</time>
      </trkpt>
      <trkpt lat="43.85956" lon="6.89498">
        <ele>1144</ele>
        <time>2021-09-19T12:13:40Z</time>
      </trkpt>
      <trkpt lat="43.85956" lon="6.89498">
        <ele>1144</ele>
        <time>2021-09-19T12:13:42Z</time>
      </trkpt>
      <trkpt lat="43.85956" lon="6.89498">
        <ele>1144.1</ele>
        <time>2021-09-19T12:13:43Z</time>
      </trkpt>
      <trkpt lat="43.85955" lon="6.89499">
        <ele>1144.2</ele>
        <time>2021-09-19T12:13:44Z</time>
      </trkpt>
      <trkpt lat="43.85953" lon="6.89499">
        <ele>1144.3</ele>
        <time>2021-09-19T12:13:46Z</time>
      </trkpt>
      <trkpt lat="43.85952" lon="6.895">
        <ele>1144.4</ele>
        <time>2021-09-19T12:13:47Z</time>
      </trkpt>
      <trkpt lat="43.8595" lon="6.89501">
        <ele>1144.5</ele>
        <time>2021-09-19T12:13:48Z</time>
      </trkpt>
      <trkpt lat="43.85949" lon="6.89501">
        <ele>1144.6</ele>
        <time>2021-09-19T12:13:50Z</time>
      </trkpt>
      <trkpt lat="43.85948" lon="6.89501">
        <ele>1144.7</ele>
        <time>2021-09-19T12:13:51Z</time>
      </trkpt>
      <trkpt lat="43.85947" lon="6.89501">
        <ele>1144.7</ele>
        <time>2021-09-19T12:13:52Z</time>
      </trkpt>
      <trkpt lat="43.85947" lon="6.89502">
        <ele>1144.8</ele>
        <time>2021-09-19T12:13:54Z</time>
      </trkpt>
      <trkpt lat="43.85947" lon="6.89502">
        <ele>1144.8</ele>
        <time>2021-09-19T12:13:55Z</time>
      </trkpt>
      <trkpt lat="43.85946" lon="6.89502">
        <ele>1144.8</ele>
        <time>2021-09-19T12:13:56Z</time>
      </trkpt>
      <trkpt lat="43.85946" lon="6.89502">
        <ele>1144.8</ele>
        <time>2021-09-19T12:13:58Z</time>
      </trkpt>
      <trkpt lat="43.85944" lon="6.89503">
        <ele>1145</ele>
        <time>2021-09-19T12:13:59Z</time>
      </trkpt>
      <trkpt lat="43.85941" lon="6.89506">
        <ele>1145.3</ele>
        <time>2021-09-19T12:14:01Z</time>
      </trkpt>
      <trkpt lat="43.8594" lon="6.89507">
        <ele>1145.4</ele>
        <time>2021-09-19T12:14:02Z</time>
      </trkpt>
      <trkpt lat="43.85938" lon="6.89508">
        <ele>1145.5</ele>
        <time>2021-09-19T12:14:04Z</time>
      </trkpt>
      <trkpt lat="43.85937" lon="6.89509">
        <ele>1145.6</ele>
        <time>2021-09-19T12:14:05Z</time>
      </trkpt>
      <trkpt lat="43.85936" lon="6.8951">
        <ele>1145.7</ele>
        <time>2021-09-19T12:14:07Z</time>
      </trkpt>
      <trkpt lat="43.85935" lon="6.8951">
        <ele>1145.8</ele>
        <time>2021-09-19T12:14:08Z</time>
      </trkpt>
      <trkpt lat="43.85934" lon="6.8951">
        <ele>1145.8</ele>
        <time>2021-09-19T12:14:10Z</time>
      </trkpt>
      <trkpt lat="43.85934" lon="6.8951">
        <ele>1145.9</ele>
        <time>2021-09-19T12:14:11Z</time>
      </trkpt>
      <trkpt lat="43.85933" lon="6.8951">
        <ele>1145.9</ele>
        <time>2021-09-19T12:14:12Z</time>
      </trkpt>
      <trkpt lat="43.85932" lon="6.8951">
        <ele>1146</ele>
        <time>2021-09-19T12:14:13Z</time>
      </trkpt>
      <trkpt lat="43.8593" lon="6.89511">
        <ele>1146.2</ele>
        <time>2021-09-19T12:14:15Z</time>
      </trkpt>
      <trkpt lat="43.85929" lon="6.89511">
        <ele>1146.3</ele>
        <time>2021-09-19T12:14:16Z</time>
      </trkpt>
      <trkpt lat="43.85927" lon="6.89512">
        <ele>1146.4</ele>
        <time>2021-09-19T12:14:17Z</time>
      </trkpt>
      <trkpt lat="43.85926" lon="6.89512">
        <ele>1146.5</ele>
        <time>2021-09-19T12:14:19Z</time>
      </trkpt>
      <trkpt lat="43.85925" lon="6.89513">
        <ele>1146.6</ele>
        <time>2021-09-19T12:14:20Z</time>
      </trkpt>
      <trkpt lat="43.85924" lon="6.89513">
        <ele>1146.7</ele>
        <time>2021-09-19T12:14:21Z</time>
      </trkpt>
      <trkpt lat="43.85923" lon="6.89513">
        <ele>1146.7</ele>
        <time>2021-09-19T12:14:23Z</time>
      </trkpt>
      <trkpt lat="43.85923" lon="6.89513">
        <ele>1146.7</ele>
        <time>2021-09-19T12:14:24Z</time>
      </trkpt>
      <trkpt lat="43.85922" lon="6.89513">
        <ele>1146.7</ele>
        <time>2021-09-19T12:14:25Z</time>
      </trkpt>
      <trkpt lat="43.85922" lon="6.89513">
        <ele>1146.8</ele>
        <time>2021-09-19T12:14:27Z</time>
      </trkpt>
      <trkpt lat="43.85922" lon="6.89513">
        <ele>1146.8</ele>
        <time>2021-09-19T12:14:28Z</time>
      </trkpt>
      <trkpt lat="43.85922" lon="6.89513">
        <ele>1146.8</ele>
        <time>2021-09-19T12:14:29Z</time>
      </trkpt>
      <trkpt lat="43.85922" lon="6.89513">
        <ele>1146.8</ele>
        <time>2021-09-19T12:14:30Z</time>
      </trkpt>
      <trkpt lat="43.85922" lon="6.89513">
        <ele>1146.8</ele>
        <time>2021-09-19T12:14:31Z</time>
      </trkpt>
      <trkpt lat="43.85922" lon="6.89513">
        <ele>1146.8</ele>
        <time>2021-09-19T12:14:32Z</time>
      </trkpt>
      <trkpt lat="43.85922" lon="6.89513">
        <ele>1146.8</ele>
        <time>2021-09-19T12:14:34Z</time>
      </trkpt>
      <trkpt lat="43.85921" lon="6.89513">
        <ele>1146.8</ele>
        <time>2021-09-19T12:14:35Z</time>
      </trkpt>
      <trkpt lat="43.85921" lon="6.89513">
        <ele>1146.8</ele>
        <time>2021-09-19T12:14:36Z</time>
      </trkpt>
      <trkpt lat="43.85921" lon="6.89513">
        <ele>1146.8</ele>
        <time>2021-09-19T12:14:38Z</time>
      </trkpt>
      <trkpt lat="43.85921" lon="6.89513">
        <ele>1146.8</ele>
        <time>2021-09-19T12:14:39Z</time>
      </trkpt>
      <trkpt lat="43.85921" lon="6.89513">
        <ele>1146.9</ele>
        <time>2021-09-19T12:14:41Z</time>
      </trkpt>
      <trkpt lat="43.85921" lon="6.89513">
        <ele>1146.9</ele>
        <time>2021-09-19T12:14:42Z</time>
      </trkpt>
      <trkpt lat="43.85919" lon="6.89516">
        <ele>1147</ele>
        <time>2021-09-19T12:14:44Z</time>
      </trkpt>
      <trkpt lat="43.85918" lon="6.89518">
        <ele>1147.2</ele>
        <time>2021-09-19T12:14:46Z</time>
      </trkpt>
      <trkpt lat="43.85917" lon="6.89519">
        <ele>1147.2</ele>
        <time>2021-09-19T12:14:47Z</time>
      </trkpt>
      <trkpt lat="43.85917" lon="6.8952">
        <ele>1147.3</ele>
        <time>2021-09-19T12:14:48Z</time>
      </trkpt>
      <trkpt lat="43.85916" lon="6.8952">
        <ele>1147.3</ele>
        <time>2021-09-19T12:14:50Z</time>
      </trkpt>
      <trkpt lat="43.85916" lon="6.8952">
        <ele>1147.3</ele>
        <time>2021-09-19T12:14:51Z</time>
      </trkpt>
      <trkpt lat="43.85916" lon="6.8952">
        <ele>1147.3</ele>
        <time>2021-09-19T12:14:52Z</time>
      </trkpt>
      <trkpt lat="43.85916" lon="6.89521">
        <ele>1147.4</ele>
        <time>2021-09-19T12:14:54Z</time>
      </trkpt>
      <trkpt lat="43.85916" lon="6.89521">
        <ele>1147.4</ele>
        <time>2021-09-19T12:14:55Z</time>
      </trkpt>
      <trkpt lat="43.85916" lon="6.89521">
        <ele>1147.4</ele>
        <time>2021-09-19T12:14:56Z</time>
      </trkpt>
      <trkpt lat="43.85916" lon="6.89522">
        <ele>1147.4</ele>
        <time>2021-09-19T12:14:58Z</time>
      </trkpt>
      <trkpt lat="43.85916" lon="6.89522">
        <ele>1147.4</ele>
        <time>2021-09-19T12:15:00Z</time>
      </trkpt>
      <trkpt lat="43.85916" lon="6.89521">
        <ele>1147.5</ele>
        <time>2021-09-19T12:15:02Z</time>
      </trkpt>
      <trkpt lat="43.85916" lon="6.89519">
        <ele>1147.6</ele>
        <time>2021-09-19T12:15:04Z</time>
      </trkpt>
      <trkpt lat="43.85917" lon="6.89516">
        <ele>1147.7</ele>
        <time>2021-09-19T12:15:06Z</time>
      </trkpt>
      <trkpt lat="43.85917" lon="6.89515">
        <ele>1147.8</ele>
        <time>2021-09-19T12:15:08Z</time>
      </trkpt>
      <trkpt lat="43.85917" lon="6.89513">
        <ele>1147.8</ele>
        <time>2021-09-19T12:15:10Z</time>
      </trkpt>
      <trkpt lat="43.85917" lon="6.89512">
        <ele>1147.9</ele>
        <time>2021-09-19T12:15:12Z</time>
      </trkpt>
      <trkpt lat="43.85917" lon="6.89511">
        <ele>1147.9</ele>
        <time>2021-09-19T12:15:13Z</time>
      </trkpt>
      <trkpt lat="43.85917" lon="6.8951">
        <ele>1147.9</ele>
        <time>2021-09-19T12:15:14Z</time>
      </trkpt>
      <trkpt lat="43.85917" lon="6.89509">
        <ele>1148</ele>
        <time>2021-09-19T12:15:16Z</time>
      </trkpt>
      <trkpt lat="43.85917" lon="6.89509">
        <ele>1148</ele>
        <time>2021-09-19T12:15:18Z</time>
      </trkpt>
      <trkpt lat="43.85917" lon="6.89509">
        <ele>1148</ele>
        <time>2021-09-19T12:15:19Z</time>
      </trkpt>
      <trkpt lat="43.85917" lon="6.89509">
        <ele>1148</ele>
        <time>2021-09-19T12:15:21Z</time>
      </trkpt>
      <trkpt lat="43.85918" lon="6.89509">
        <ele>1148</ele>
        <time>2021-09-19T12:15:22Z</time>
      </trkpt>
      <trkpt lat="43.85918" lon="6.89509">
        <ele>1148</ele>
        <time>2021-09-19T12:15:24Z</time>
      </trkpt>
      <trkpt lat="43.85918" lon="6.89509">
        <ele>1148</ele>
        <time>2021-09-19T12:15:26Z</time>
      </trkpt>
      <trkpt lat="43.85918" lon="6.89509">
        <ele>1148</ele>
        <time>2021-09-19T12:15:27Z</time>
      </trkpt>
      <trkpt lat="43.85918" lon="6.89509">
        <ele>1148.1</ele>
        <time>2021-09-19T12:15:29Z</time>
      </trkpt>
      <trkpt lat="43.85917" lon="6.89509">
        <ele>1148.1</ele>
        <time>2021-09-19T12:15:31Z</time>
      </trkpt>
      <trkpt lat="43.85917" lon="6.89509">
        <ele>1148.1</ele>
        <time>2021-09-19T12:15:32Z</time>
      </trkpt>
      <trkpt lat="43.85917" lon="6.89509">
        <ele>1148.1</ele>
        <time>2021-09-19T12:15:34Z</time>
      </trkpt>
      <trkpt lat="43.85917" lon="6.8951">
        <ele>1148.1</ele>
        <time>2021-09-19T12:15:35Z</time>
      </trkpt>
      <trkpt lat="43.85916" lon="6.8951">
        <ele>1148.1</ele>
        <time>2021-09-19T12:15:36Z</time>
      </trkpt>
      <trkpt lat="43.85916" lon="6.89509">
        <ele>1148.2</ele>
        <time>2021-09-19T12:15:37Z</time>
      </trkpt>
      <trkpt lat="43.85915" lon="6.89508">
        <ele>1148.2</ele>
        <time>2021-09-19T12:15:38Z</time>
      </trkpt>
      <trkpt lat="43.85913" lon="6.89508">
        <ele>1148.3</ele>
        <time>2021-09-19T12:15:39Z</time>
      </trkpt>
      <trkpt lat="43.85913" lon="6.89507">
        <ele>1148.4</ele>
        <time>2021-09-19T12:15:41Z</time>
      </trkpt>
      <trkpt lat="43.85911" lon="6.89507">
        <ele>1148.4</ele>
        <time>2021-09-19T12:15:43Z</time>
      </trkpt>
      <trkpt lat="43.85907" lon="6.89508">
        <ele>1148.6</ele>
        <time>2021-09-19T12:15:44Z</time>
      </trkpt>
      <trkpt lat="43.85902" lon="6.89509">
        <ele>1148.9</ele>
        <time>2021-09-19T12:15:46Z</time>
      </trkpt>
      <trkpt lat="43.85893" lon="6.8951">
        <ele>1149.3</ele>
        <time>2021-09-19T12:15:47Z</time>
      </trkpt>
      <trkpt lat="43.85888" lon="6.89511">
        <ele>1149.6</ele>
        <time>2021-09-19T12:15:49Z</time>
      </trkpt>
      <trkpt lat="43.85887" lon="6.89511">
        <ele>1149.6</ele>
        <time>2021-09-19T12:15:50Z</time>
      </trkpt>
      <trkpt lat="43.85886" lon="6.89511">
        <ele>1149.6</ele>
        <time>2021-09-19T12:15:51Z</time>
      </trkpt>
      <trkpt lat="43.85886" lon="6.89511">
        <ele>1149.6</ele>
        <time>2021-09-19T12:15:52Z</time>
      </trkpt>
      <trkpt lat="43.85886" lon="6.89512">
        <ele>1149.6</ele>
        <time>2021-09-19T12:15:53Z</time>
      </trkpt>
      <trkpt lat="43.85886" lon="6.89512">
        <ele>1149.6</ele>
        <time>2021-09-19T12:15:54Z</time>
      </trkpt>
      <trkpt lat="43.85919" lon="6.89499">
        <ele>1151.1</ele>
        <time>2021-09-19T12:33:39Z</time>
      </trkpt>
      <trkpt lat="43.85919" lon="6.89485">
        <ele>1151.3</ele>
        <time>2021-09-19T12:33:41Z</time>
      </trkpt>
      <trkpt lat="43.85921" lon="6.8948">
        <ele>1151.3</ele>
        <time>2021-09-19T12:33:42Z</time>
      </trkpt>
      <trkpt lat="43.85923" lon="6.89475">
        <ele>1151.3</ele>
        <time>2021-09-19T12:33:43Z</time>
      </trkpt>
      <trkpt lat="43.85926" lon="6.89467">
        <ele>1151.3</ele>
        <time>2021-09-19T12:33:44Z</time>
      </trkpt>
      <trkpt lat="43.85926" lon="6.89465">
        <ele>1151.3</ele>
        <time>2021-09-19T12:33:46Z</time>
      </trkpt>
      <trkpt lat="43.85925" lon="6.89465">
        <ele>1151.2</ele>
        <time>2021-09-19T12:33:47Z</time>
      </trkpt>
      <trkpt lat="43.85925" lon="6.89468">
        <ele>1151.2</ele>
        <time>2021-09-19T12:33:49Z</time>
      </trkpt>
      <trkpt lat="43.85924" lon="6.89469">
        <ele>1151.2</ele>
        <time>2021-09-19T12:33:50Z</time>
      </trkpt>
      <trkpt lat="43.85924" lon="6.89471">
        <ele>1151.2</ele>
        <time>2021-09-19T12:33:52Z</time>
      </trkpt>
      <trkpt lat="43.85923" lon="6.89471">
        <ele>1151.1</ele>
        <time>2021-09-19T12:33:53Z</time>
      </trkpt>
      <trkpt lat="43.859" lon="6.89502">
        <ele>1149.5</ele>
        <time>2021-09-19T12:38:26Z</time>
      </trkpt>
      <trkpt lat="43.85898" lon="6.89499">
        <ele>1149.3</ele>
        <time>2021-09-19T12:38:27Z</time>
      </trkpt>
      <trkpt lat="43.85895" lon="6.89496">
        <ele>1148.9</ele>
        <time>2021-09-19T12:38:29Z</time>
      </trkpt>
      <trkpt lat="43.85894" lon="6.89496">
        <ele>1148.8</ele>
        <time>2021-09-19T12:38:30Z</time>
      </trkpt>
      <trkpt lat="43.85893" lon="6.89495">
        <ele>1148.7</ele>
        <time>2021-09-19T12:38:32Z</time>
      </trkpt>
      <trkpt lat="43.85891" lon="6.89494">
        <ele>1148.5</ele>
        <time>2021-09-19T12:38:34Z</time>
      </trkpt>
      <trkpt lat="43.85887" lon="6.89493">
        <ele>1148.2</ele>
        <time>2021-09-19T12:38:35Z</time>
      </trkpt>
      <trkpt lat="43.85883" lon="6.8949">
        <ele>1147.7</ele>
        <time>2021-09-19T12:38:36Z</time>
      </trkpt>
      <trkpt lat="43.85879" lon="6.89487">
        <ele>1147.2</ele>
        <time>2021-09-19T12:38:37Z</time>
      </trkpt>
      <trkpt lat="43.85874" lon="6.89482">
        <ele>1146.4</ele>
        <time>2021-09-19T12:38:39Z</time>
      </trkpt>
      <trkpt lat="43.8587" lon="6.89479">
        <ele>1145.7</ele>
        <time>2021-09-19T12:38:40Z</time>
      </trkpt>
      <trkpt lat="43.85866" lon="6.89476">
        <ele>1144.8</ele>
        <time>2021-09-19T12:38:41Z</time>
      </trkpt>
      <trkpt lat="43.8586" lon="6.8947">
        <ele>1143.2</ele>
        <time>2021-09-19T12:38:43Z</time>
      </trkpt>
      <trkpt lat="43.85857" lon="6.89466">
        <ele>1142.3</ele>
        <time>2021-09-19T12:38:44Z</time>
      </trkpt>
      <trkpt lat="43.85854" lon="6.89461">
        <ele>1141.5</ele>
        <time>2021-09-19T12:38:45Z</time>
      </trkpt>
      <trkpt lat="43.85851" lon="6.89457">
        <ele>1140.8</ele>
        <time>2021-09-19T12:38:47Z</time>
      </trkpt>
      <trkpt lat="43.85848" lon="6.89453">
        <ele>1140.3</ele>
        <time>2021-09-19T12:38:48Z</time>
      </trkpt>
      <trkpt lat="43.85848" lon="6.89452">
        <ele>1140.2</ele>
        <time>2021-09-19T12:38:49Z</time>
      </trkpt>
      <trkpt lat="43.85846" lon="6.89446">
        <ele>1139.5</ele>
        <time>2021-09-19T12:38:50Z</time>
      </trkpt>
      <trkpt lat="43.85845" lon="6.89443">
        <ele>1139.3</ele>
        <time>2021-09-19T12:38:51Z</time>
      </trkpt>
      <trkpt lat="43.85845" lon="6.89439">
        <ele>1138.8</ele>
        <time>2021-09-19T12:38:53Z</time>
      </trkpt>
      <trkpt lat="43.85845" lon="6.89434">
        <ele>1138.3</ele>
        <time>2021-09-19T12:38:54Z</time>
      </trkpt>
      <trkpt lat="43.85845" lon="6.89428">
        <ele>1137.5</ele>
        <time>2021-09-19T12:38:55Z</time>
      </trkpt>
      <trkpt lat="43.85845" lon="6.89424">
        <ele>1137</ele>
        <time>2021-09-19T12:38:56Z</time>
      </trkpt>
      <trkpt lat="43.85843" lon="6.89419">
        <ele>1136.3</ele>
        <time>2021-09-19T12:38:58Z</time>
      </trkpt>
      <trkpt lat="43.85841" lon="6.89417">
        <ele>1135.6</ele>
        <time>2021-09-19T12:38:59Z</time>
      </trkpt>
      <trkpt lat="43.85839" lon="6.89413">
        <ele>1134.8</ele>
        <time>2021-09-19T12:39:01Z</time>
      </trkpt>
      <trkpt lat="43.85837" lon="6.89414">
        <ele>1134.4</ele>
        <time>2021-09-19T12:39:02Z</time>
      </trkpt>
      <trkpt lat="43.85837" lon="6.89413">
        <ele>1134.1</ele>
        <time>2021-09-19T12:39:04Z</time>
      </trkpt>
      <trkpt lat="43.85837" lon="6.89412">
        <ele>1133.9</ele>
        <time>2021-09-19T12:39:06Z</time>
      </trkpt>
      <trkpt lat="43.85837" lon="6.89411">
        <ele>1133.7</ele>
        <time>2021-09-19T12:39:07Z</time>
      </trkpt>
      <trkpt lat="43.85837" lon="6.8941">
        <ele>1133.6</ele>
        <time>2021-09-19T12:39:08Z</time>
      </trkpt>
      <trkpt lat="43.85837" lon="6.8941">
        <ele>1133.4</ele>
        <time>2021-09-19T12:39:10Z</time>
      </trkpt>
      <trkpt lat="43.85804" lon="6.89398">
        <ele>1124.3</ele>
        <time>2021-09-19T12:40:12Z</time>
      </trkpt>
      <trkpt lat="43.85801" lon="6.89396">
        <ele>1123.8</ele>
        <time>2021-09-19T12:40:13Z</time>
      </trkpt>
      <trkpt lat="43.85799" lon="6.89392">
        <ele>1123</ele>
        <time>2021-09-19T12:40:14Z</time>
      </trkpt>
      <trkpt lat="43.85796" lon="6.8939">
        <ele>1122.4</ele>
        <time>2021-09-19T12:40:15Z</time>
      </trkpt>
      <trkpt lat="43.85795" lon="6.89389">
        <ele>1122.2</ele>
        <time>2021-09-19T12:40:16Z</time>
      </trkpt>
      <trkpt lat="43.85794" lon="6.89388">
        <ele>1121.8</ele>
        <time>2021-09-19T12:40:18Z</time>
      </trkpt>
      <trkpt lat="43.85794" lon="6.89388">
        <ele>1121.8</ele>
        <time>2021-09-19T12:40:19Z</time>
      </trkpt>
      <trkpt lat="43.85793" lon="6.89388">
        <ele>1121.8</ele>
        <time>2021-09-19T12:40:20Z</time>
      </trkpt>
      <trkpt lat="43.85793" lon="6.89388">
        <ele>1121.7</ele>
        <time>2021-09-19T12:40:21Z</time>
      </trkpt>
      <trkpt lat="43.85793" lon="6.89388">
        <ele>1121.7</ele>
        <time>2021-09-19T12:40:23Z</time>
      </trkpt>
      <trkpt lat="43.85793" lon="6.89388">
        <ele>1121.7</ele>
        <time>2021-09-19T12:40:24Z</time>
      </trkpt>
      <trkpt lat="43.85783" lon="6.89375">
        <ele>1118.3</ele>
        <time>2021-09-19T12:40:34Z</time>
      </trkpt>
      <trkpt lat="43.85781" lon="6.89372">
        <ele>1117.4</ele>
        <time>2021-09-19T12:40:35Z</time>
      </trkpt>
      <trkpt lat="43.85778" lon="6.89369">
        <ele>1116.3</ele>
        <time>2021-09-19T12:40:37Z</time>
      </trkpt>
      <trkpt lat="43.85775" lon="6.89365">
        <ele>1115.3</ele>
        <time>2021-09-19T12:40:38Z</time>
      </trkpt>
      <trkpt lat="43.85771" lon="6.89359">
        <ele>1113.7</ele>
        <time>2021-09-19T12:40:40Z</time>
      </trkpt>
      <trkpt lat="43.85764" lon="6.89353">
        <ele>1111.5</ele>
        <time>2021-09-19T12:40:42Z</time>
      </trkpt>
      <trkpt lat="43.8576" lon="6.89349">
        <ele>1110.2</ele>
        <time>2021-09-19T12:40:43Z</time>
      </trkpt>
      <trkpt lat="43.85758" lon="6.89346">
        <ele>1109.2</ele>
        <time>2021-09-19T12:40:44Z</time>
      </trkpt>
      <trkpt lat="43.85755" lon="6.89341">
        <ele>1108</ele>
        <time>2021-09-19T12:40:45Z</time>
      </trkpt>
      <trkpt lat="43.85754" lon="6.89338">
        <ele>1107.3</ele>
        <time>2021-09-19T12:40:46Z</time>
      </trkpt>
      <trkpt lat="43.85755" lon="6.89335">
        <ele>1106.7</ele>
        <time>2021-09-19T12:40:48Z</time>
      </trkpt>
      <trkpt lat="43.8575" lon="6.89333">
        <ele>1105.3</ele>
        <time>2021-09-19T12:40:49Z</time>
      </trkpt>
      <trkpt lat="43.85745" lon="6.89332">
        <ele>1103.7</ele>
        <time>2021-09-19T12:40:50Z</time>
      </trkpt>
      <trkpt lat="43.8574" lon="6.89331">
        <ele>1102</ele>
        <time>2021-09-19T12:40:51Z</time>
      </trkpt>
      <trkpt lat="43.85735" lon="6.8933">
        <ele>1100</ele>
        <time>2021-09-19T12:40:53Z</time>
      </trkpt>
      <trkpt lat="43.8573" lon="6.8933">
        <ele>1097.9</ele>
        <time>2021-09-19T12:40:55Z</time>
      </trkpt>
      <trkpt lat="43.85725" lon="6.89329">
        <ele>1095.7</ele>
        <time>2021-09-19T12:40:56Z</time>
      </trkpt>
      <trkpt lat="43.8572" lon="6.89328">
        <ele>1093.4</ele>
        <time>2021-09-19T12:42:28Z</time>
      </trkpt>
      <trkpt lat="43.85715" lon="6.89327">
        <ele>1091.3</ele>
        <time>2021-09-19T12:42:29Z</time>
      </trkpt>
      <trkpt lat="43.85714" lon="6.89334">
        <ele>1089.1</ele>
        <time>2021-09-19T12:42:31Z</time>
      </trkpt>
      <trkpt lat="43.85713" lon="6.89339">
        <ele>1087.7</ele>
        <time>2021-09-19T12:42:32Z</time>
      </trkpt>
      <trkpt lat="43.85711" lon="6.89344">
        <ele>1086.4</ele>
        <time>2021-09-19T12:42:33Z</time>
      </trkpt>
      <trkpt lat="43.85708" lon="6.89351">
        <ele>1084.7</ele>
        <time>2021-09-19T12:42:34Z</time>
      </trkpt>
      <trkpt lat="43.85706" lon="6.89357">
        <ele>1083.3</ele>
        <time>2021-09-19T12:42:36Z</time>
      </trkpt>
      <trkpt lat="43.85705" lon="6.89359">
        <ele>1082.7</ele>
        <time>2021-09-19T12:42:37Z</time>
      </trkpt>
      <trkpt lat="43.85704" lon="6.89362">
        <ele>1082.1</ele>
        <time>2021-09-19T12:42:38Z</time>
      </trkpt>
      <trkpt lat="43.85701" lon="6.89365">
        <ele>1081.1</ele>
        <time>2021-09-19T12:42:40Z</time>
      </trkpt>
      <trkpt lat="43.85698" lon="6.89369">
        <ele>1079.9</ele>
        <time>2021-09-19T12:42:42Z</time>
      </trkpt>
      <trkpt lat="43.85696" lon="6.89375">
        <ele>1078.4</ele>
        <time>2021-09-19T12:42:43Z</time>
      </trkpt>
      <trkpt lat="43.85695" lon="6.89377">
        <ele>1077.8</ele>
        <time>2021-09-19T12:42:44Z</time>
      </trkpt>
      <trkpt lat="43.85692" lon="6.89381">
        <ele>1076.7</ele>
        <time>2021-09-19T12:42:46Z</time>
      </trkpt>
      <trkpt lat="43.85691" lon="6.89384">
        <ele>1075.6</ele>
        <time>2021-09-19T12:42:47Z</time>
      </trkpt>
      <trkpt lat="43.85689" lon="6.89389">
        <ele>1074.4</ele>
        <time>2021-09-19T12:42:48Z</time>
      </trkpt>
      <trkpt lat="43.85689" lon="6.89391">
        <ele>1073.9</ele>
        <time>2021-09-19T12:42:49Z</time>
      </trkpt>
      <trkpt lat="43.85689" lon="6.89394">
        <ele>1073.1</ele>
        <time>2021-09-19T12:42:50Z</time>
      </trkpt>
      <trkpt lat="43.8569" lon="6.89398">
        <ele>1072</ele>
        <time>2021-09-19T12:42:52Z</time>
      </trkpt>
      <trkpt lat="43.85691" lon="6.89402">
        <ele>1070.9</ele>
        <time>2021-09-19T12:42:53Z</time>
      </trkpt>
      <trkpt lat="43.85692" lon="6.89403">
        <ele>1070.6</ele>
        <time>2021-09-19T12:42:54Z</time>
      </trkpt>
      <trkpt lat="43.85694" lon="6.89404">
        <ele>1069.8</ele>
        <time>2021-09-19T12:42:55Z</time>
      </trkpt>
      <trkpt lat="43.85695" lon="6.89405">
        <ele>1069.4</ele>
        <time>2021-09-19T12:42:56Z</time>
      </trkpt>
      <trkpt lat="43.85694" lon="6.89406">
        <ele>1069.2</ele>
        <time>2021-09-19T12:42:58Z</time>
      </trkpt>
      <trkpt lat="43.85694" lon="6.89408">
        <ele>1068.6</ele>
        <time>2021-09-19T12:42:59Z</time>
      </trkpt>
      <trkpt lat="43.85692" lon="6.89414">
        <ele>1067.1</ele>
        <time>2021-09-19T12:43:01Z</time>
      </trkpt>
      <trkpt lat="43.85692" lon="6.89419">
        <ele>1066</ele>
        <time>2021-09-19T12:43:02Z</time>
      </trkpt>
      <trkpt lat="43.85692" lon="6.89421">
        <ele>1065.6</ele>
        <time>2021-09-19T12:43:03Z</time>
      </trkpt>
      <trkpt lat="43.85693" lon="6.89424">
        <ele>1064.7</ele>
        <time>2021-09-19T12:43:04Z</time>
      </trkpt>
      <trkpt lat="43.85693" lon="6.89426">
        <ele>1064.4</ele>
        <time>2021-09-19T12:43:05Z</time>
      </trkpt>
      <trkpt lat="43.85694" lon="6.89429">
        <ele>1063.5</ele>
        <time>2021-09-19T12:43:06Z</time>
      </trkpt>
      <trkpt lat="43.85693" lon="6.89435">
        <ele>1062.1</ele>
        <time>2021-09-19T12:43:08Z</time>
      </trkpt>
      <trkpt lat="43.85693" lon="6.8944">
        <ele>1060.9</ele>
        <time>2021-09-19T12:43:09Z</time>
      </trkpt>
      <trkpt lat="43.85693" lon="6.89444">
        <ele>1059.8</ele>
        <time>2021-09-19T12:43:11Z</time>
      </trkpt>
      <trkpt lat="43.85694" lon="6.8945">
        <ele>1058.4</ele>
        <time>2021-09-19T12:43:12Z</time>
      </trkpt>
      <trkpt lat="43.85695" lon="6.89454">
        <ele>1057.8</ele>
        <time>2021-09-19T12:43:13Z</time>
      </trkpt>
      <trkpt lat="43.85695" lon="6.8946">
        <ele>1056.6</ele>
        <time>2021-09-19T12:43:15Z</time>
      </trkpt>
      <trkpt lat="43.85696" lon="6.89462">
        <ele>1056.3</ele>
        <time>2021-09-19T12:43:16Z</time>
      </trkpt>
      <trkpt lat="43.85696" lon="6.89464">
        <ele>1055.9</ele>
        <time>2021-09-19T12:43:17Z</time>
      </trkpt>
      <trkpt lat="43.85696" lon="6.89471">
        <ele>1054.7</ele>
        <time>2021-09-19T12:43:19Z</time>
      </trkpt>
      <trkpt lat="43.85695" lon="6.89475">
        <ele>1054</ele>
        <time>2021-09-19T12:43:20Z</time>
      </trkpt>
      <trkpt lat="43.85695" lon="6.8948">
        <ele>1053.2</ele>
        <time>2021-09-19T12:43:21Z</time>
      </trkpt>
      <trkpt lat="43.85692" lon="6.89486">
        <ele>1051.9</ele>
        <time>2021-09-19T12:43:22Z</time>
      </trkpt>
      <trkpt lat="43.85691" lon="6.8949">
        <ele>1051</ele>
        <time>2021-09-19T12:43:23Z</time>
      </trkpt>
      <trkpt lat="43.8569" lon="6.89496">
        <ele>1049.7</ele>
        <time>2021-09-19T12:43:25Z</time>
      </trkpt>
      <trkpt lat="43.85689" lon="6.89501">
        <ele>1048.7</ele>
        <time>2021-09-19T12:43:26Z</time>
      </trkpt>
      <trkpt lat="43.85688" lon="6.89505">
        <ele>1047.6</ele>
        <time>2021-09-19T12:43:27Z</time>
      </trkpt>
      <trkpt lat="43.85687" lon="6.89508">
        <ele>1046.8</ele>
        <time>2021-09-19T12:43:28Z</time>
      </trkpt>
      <trkpt lat="43.85684" lon="6.89512">
        <ele>1045.6</ele>
        <time>2021-09-19T12:43:30Z</time>
      </trkpt>
      <trkpt lat="43.85683" lon="6.89517">
        <ele>1044.3</ele>
        <time>2021-09-19T12:43:32Z</time>
      </trkpt>
      <trkpt lat="43.85683" lon="6.89523">
        <ele>1043.1</ele>
        <time>2021-09-19T12:43:33Z</time>
      </trkpt>
      <trkpt lat="43.85683" lon="6.89525">
        <ele>1042.6</ele>
        <time>2021-09-19T12:43:34Z</time>
      </trkpt>
      <trkpt lat="43.85682" lon="6.89527">
        <ele>1042</ele>
        <time>2021-09-19T12:43:36Z</time>
      </trkpt>
      <trkpt lat="43.85681" lon="6.89529">
        <ele>1041.5</ele>
        <time>2021-09-19T12:43:37Z</time>
      </trkpt>
      <trkpt lat="43.85679" lon="6.89533">
        <ele>1040.5</ele>
        <time>2021-09-19T12:43:38Z</time>
      </trkpt>
      <trkpt lat="43.85679" lon="6.89534">
        <ele>1040.1</ele>
        <time>2021-09-19T12:43:40Z</time>
      </trkpt>
      <trkpt lat="43.85679" lon="6.89536">
        <ele>1039.7</ele>
        <time>2021-09-19T12:43:41Z</time>
      </trkpt>
      <trkpt lat="43.85678" lon="6.89537">
        <ele>1039.3</ele>
        <time>2021-09-19T12:43:42Z</time>
      </trkpt>
      <trkpt lat="43.85677" lon="6.89542">
        <ele>1038.1</ele>
        <time>2021-09-19T12:43:44Z</time>
      </trkpt>
      <trkpt lat="43.85677" lon="6.89545">
        <ele>1037.5</ele>
        <time>2021-09-19T12:43:45Z</time>
      </trkpt>
      <trkpt lat="43.85675" lon="6.89554">
        <ele>1035.5</ele>
        <time>2021-09-19T12:43:47Z</time>
      </trkpt>
      <trkpt lat="43.85672" lon="6.89559">
        <ele>1034.3</ele>
        <time>2021-09-19T12:43:48Z</time>
      </trkpt>
      <trkpt lat="43.85671" lon="6.89567">
        <ele>1032.9</ele>
        <time>2021-09-19T12:43:49Z</time>
      </trkpt>
      <trkpt lat="43.8567" lon="6.89573">
        <ele>1031.6</ele>
        <time>2021-09-19T12:43:51Z</time>
      </trkpt>
      <trkpt lat="43.85668" lon="6.89578">
        <ele>1028.9</ele>
        <time>2021-09-19T12:43:52Z</time>
      </trkpt>
      <trkpt lat="43.85666" lon="6.89582">
        <ele>1027.6</ele>
        <time>2021-09-19T12:43:53Z</time>
      </trkpt>
      <trkpt lat="43.85665" lon="6.89585">
        <ele>1026.2</ele>
        <time>2021-09-19T12:43:55Z</time>
      </trkpt>
      <trkpt lat="43.85663" lon="6.89587">
        <ele>1024.9</ele>
        <time>2021-09-19T12:43:56Z</time>
      </trkpt>
      <trkpt lat="43.85662" lon="6.89589">
        <ele>1023.6</ele>
        <time>2021-09-19T12:43:57Z</time>
      </trkpt>
      <trkpt lat="43.85662" lon="6.8959">
        <ele>1022.4</ele>
        <time>2021-09-19T12:43:58Z</time>
      </trkpt>
      <trkpt lat="43.85661" lon="6.89591">
        <ele>1022.4</ele>
        <time>2021-09-19T12:44:00Z</time>
      </trkpt>
      <trkpt lat="43.85661" lon="6.89591">
        <ele>1022.4</ele>
        <time>2021-09-19T12:44:01Z</time>
      </trkpt>
      <trkpt lat="43.85661" lon="6.89591">
        <ele>1022.3</ele>
        <time>2021-09-19T12:44:03Z</time>
      </trkpt>
      <trkpt lat="43.85661" lon="6.89591">
        <ele>1022.3</ele>
        <time>2021-09-19T12:44:04Z</time>
      </trkpt>
      <trkpt lat="43.85661" lon="6.89591">
        <ele>1022.3</ele>
        <time>2021-09-19T12:44:06Z</time>
      </trkpt>
      <trkpt lat="43.85661" lon="6.89591">
        <ele>1022.3</ele>
        <time>2021-09-19T12:44:08Z</time>
      </trkpt>
      <trkpt lat="43.8563" lon="6.89574">
        <ele>1012.7</ele>
        <time>2021-09-19T12:45:26Z</time>
      </trkpt>
      <trkpt lat="43.85627" lon="6.89571">
        <ele>1012.2</ele>
        <time>2021-09-19T12:45:27Z</time>
      </trkpt>
      <trkpt lat="43.85626" lon="6.89567">
        <ele>1013.2</ele>
        <time>2021-09-19T12:45:29Z</time>
      </trkpt>
      <trkpt lat="43.85625" lon="6.89566">
        <ele>1011.6</ele>
        <time>2021-09-19T12:45:30Z</time>
      </trkpt>
      <trkpt lat="43.85624" lon="6.89561">
        <ele>1012.6</ele>
        <time>2021-09-19T12:45:32Z</time>
      </trkpt>
      <trkpt lat="43.85624" lon="6.8956">
        <ele>1012.6</ele>
        <time>2021-09-19T12:45:33Z</time>
      </trkpt>
      <trkpt lat="43.85624" lon="6.8956">
        <ele>1012.5</ele>
        <time>2021-09-19T12:45:34Z</time>
      </trkpt>
      <trkpt lat="43.85623" lon="6.89557">
        <ele>1013.5</ele>
        <time>2021-09-19T12:45:36Z</time>
      </trkpt>
      <trkpt lat="43.85621" lon="6.89554">
        <ele>1012.8</ele>
        <time>2021-09-19T12:45:38Z</time>
      </trkpt>
      <trkpt lat="43.8562" lon="6.89553">
        <ele>1012.8</ele>
        <time>2021-09-19T12:45:40Z</time>
      </trkpt>
      <trkpt lat="43.8562" lon="6.89553">
        <ele>1012.8</ele>
        <time>2021-09-19T12:45:41Z</time>
      </trkpt>
      <trkpt lat="43.85619" lon="6.89552">
        <ele>1012.8</ele>
        <time>2021-09-19T12:45:42Z</time>
      </trkpt>
      <trkpt lat="43.85619" lon="6.89552">
        <ele>1011.1</ele>
        <time>2021-09-19T12:45:44Z</time>
      </trkpt>
      <trkpt lat="43.85619" lon="6.89552">
        <ele>1011</ele>
        <time>2021-09-19T12:45:45Z</time>
      </trkpt>
      <trkpt lat="43.85619" lon="6.89552">
        <ele>1011</ele>
        <time>2021-09-19T12:45:47Z</time>
      </trkpt>
      <trkpt lat="43.85608" lon="6.89541">
        <ele>1008.2</ele>
        <time>2021-09-19T12:46:06Z</time>
      </trkpt>
      <trkpt lat="43.85605" lon="6.89537">
        <ele>1007.2</ele>
        <time>2021-09-19T12:46:08Z</time>
      </trkpt>
      <trkpt lat="43.85602" lon="6.89531">
        <ele>1006.3</ele>
        <time>2021-09-19T12:46:10Z</time>
      </trkpt>
      <trkpt lat="43.85599" lon="6.89527">
        <ele>1005.4</ele>
        <time>2021-09-19T12:46:11Z</time>
      </trkpt>
      <trkpt lat="43.85598" lon="6.89525">
        <ele>1005.4</ele>
        <time>2021-09-19T12:46:12Z</time>
      </trkpt>
      <trkpt lat="43.85597" lon="6.89523">
        <ele>1004.7</ele>
        <time>2021-09-19T12:46:14Z</time>
      </trkpt>
      <trkpt lat="43.85597" lon="6.89521">
        <ele>1004.7</ele>
        <time>2021-09-19T12:46:16Z</time>
      </trkpt>
      <trkpt lat="43.85597" lon="6.89521">
        <ele>1005.6</ele>
        <time>2021-09-19T12:46:18Z</time>
      </trkpt>
      <trkpt lat="43.85597" lon="6.89521">
        <ele>1005.5</ele>
        <time>2021-09-19T12:46:20Z</time>
      </trkpt>
      <trkpt lat="43.85597" lon="6.89521">
        <ele>1005.5</ele>
        <time>2021-09-19T12:46:22Z</time>
      </trkpt>
      <trkpt lat="43.85587" lon="6.89521">
        <ele>1000.2</ele>
        <time>2021-09-19T12:46:53Z</time>
      </trkpt>
      <trkpt lat="43.85585" lon="6.89519">
        <ele>998.1</ele>
        <time>2021-09-19T12:46:54Z</time>
      </trkpt>
      <trkpt lat="43.85573" lon="6.89513">
        <ele>991.4</ele>
        <time>2021-09-19T12:46:55Z</time>
      </trkpt>
      <trkpt lat="43.85569" lon="6.89512">
        <ele>990.5</ele>
        <time>2021-09-19T12:46:57Z</time>
      </trkpt>
      <trkpt lat="43.85565" lon="6.89512">
        <ele>988.8</ele>
        <time>2021-09-19T12:46:58Z</time>
      </trkpt>
      <trkpt lat="43.85561" lon="6.89514">
        <ele>986.1</ele>
        <time>2021-09-19T12:46:59Z</time>
      </trkpt>
      <trkpt lat="43.85557" lon="6.89513">
        <ele>981.8</ele>
        <time>2021-09-19T12:47:01Z</time>
      </trkpt>
      <trkpt lat="43.85554" lon="6.89513">
        <ele>979.6</ele>
        <time>2021-09-19T12:47:02Z</time>
      </trkpt>
      <trkpt lat="43.85549" lon="6.89512">
        <ele>977.7</ele>
        <time>2021-09-19T12:47:03Z</time>
      </trkpt>
      <trkpt lat="43.85547" lon="6.8951">
        <ele>976.7</ele>
        <time>2021-09-19T12:47:04Z</time>
      </trkpt>
      <trkpt lat="43.85544" lon="6.89508">
        <ele>975</ele>
        <time>2021-09-19T12:47:05Z</time>
      </trkpt>
      <trkpt lat="43.85543" lon="6.89507">
        <ele>975.7</ele>
        <time>2021-09-19T12:47:07Z</time>
      </trkpt>
      <trkpt lat="43.85542" lon="6.89506">
        <ele>975.7</ele>
        <time>2021-09-19T12:47:08Z</time>
      </trkpt>
      <trkpt lat="43.85541" lon="6.89504">
        <ele>974</ele>
        <time>2021-09-19T12:47:09Z</time>
      </trkpt>
      <trkpt lat="43.8554" lon="6.89504">
        <ele>974.7</ele>
        <time>2021-09-19T12:47:10Z</time>
      </trkpt>
      <trkpt lat="43.85541" lon="6.89501">
        <ele>974.7</ele>
        <time>2021-09-19T12:47:12Z</time>
      </trkpt>
      <trkpt lat="43.85539" lon="6.89492">
        <ele>976.2</ele>
        <time>2021-09-19T12:47:14Z</time>
      </trkpt>
      <trkpt lat="43.8554" lon="6.8949">
        <ele>977</ele>
        <time>2021-09-19T12:47:15Z</time>
      </trkpt>
      <trkpt lat="43.8554" lon="6.89487">
        <ele>976.9</ele>
        <time>2021-09-19T12:47:17Z</time>
      </trkpt>
      <trkpt lat="43.85539" lon="6.89482">
        <ele>977.6</ele>
        <time>2021-09-19T12:47:18Z</time>
      </trkpt>
      <trkpt lat="43.85535" lon="6.89475">
        <ele>975.1</ele>
        <time>2021-09-19T12:47:19Z</time>
      </trkpt>
      <trkpt lat="43.85533" lon="6.8947">
        <ele>975.7</ele>
        <time>2021-09-19T12:47:21Z</time>
      </trkpt>
      <trkpt lat="43.85531" lon="6.89467">
        <ele>974.2</ele>
        <time>2021-09-19T12:47:22Z</time>
      </trkpt>
      <trkpt lat="43.8553" lon="6.89467">
        <ele>974.2</ele>
        <time>2021-09-19T12:47:23Z</time>
      </trkpt>
      <trkpt lat="43.85526" lon="6.89468">
        <ele>970</ele>
        <time>2021-09-19T12:47:25Z</time>
      </trkpt>
      <trkpt lat="43.85526" lon="6.8947">
        <ele>969.5</ele>
        <time>2021-09-19T12:47:26Z</time>
      </trkpt>
      <trkpt lat="43.85525" lon="6.89474">
        <ele>969.5</ele>
        <time>2021-09-19T12:47:28Z</time>
      </trkpt>
      <trkpt lat="43.85524" lon="6.89478">
        <ele>968.2</ele>
        <time>2021-09-19T12:47:29Z</time>
      </trkpt>
      <trkpt lat="43.85524" lon="6.8948">
        <ele>968.2</ele>
        <time>2021-09-19T12:47:30Z</time>
      </trkpt>
      <trkpt lat="43.85525" lon="6.89489">
        <ele>966.8</ele>
        <time>2021-09-19T12:47:32Z</time>
      </trkpt>
      <trkpt lat="43.85526" lon="6.89496">
        <ele>965.3</ele>
        <time>2021-09-19T12:47:33Z</time>
      </trkpt>
      <trkpt lat="43.85526" lon="6.89501">
        <ele>964.5</ele>
        <time>2021-09-19T12:47:35Z</time>
      </trkpt>
      <trkpt lat="43.85526" lon="6.89506">
        <ele>963.7</ele>
        <time>2021-09-19T12:47:36Z</time>
      </trkpt>
      <trkpt lat="43.85523" lon="6.89512">
        <ele>962.9</ele>
        <time>2021-09-19T12:47:37Z</time>
      </trkpt>
      <trkpt lat="43.85522" lon="6.89517">
        <ele>959.2</ele>
        <time>2021-09-19T12:47:39Z</time>
      </trkpt>
      <trkpt lat="43.85521" lon="6.89522">
        <ele>958.1</ele>
        <time>2021-09-19T12:47:40Z</time>
      </trkpt>
      <trkpt lat="43.85521" lon="6.89523">
        <ele>958.1</ele>
        <time>2021-09-19T12:47:42Z</time>
      </trkpt>
      <trkpt lat="43.85521" lon="6.89523">
        <ele>958.1</ele>
        <time>2021-09-19T12:47:44Z</time>
      </trkpt>
      <trkpt lat="43.85521" lon="6.89523">
        <ele>958</ele>
        <time>2021-09-19T12:47:45Z</time>
      </trkpt>
      <trkpt lat="43.85521" lon="6.89523">
        <ele>958</ele>
        <time>2021-09-19T12:47:47Z</time>
      </trkpt>
      <trkpt lat="43.85521" lon="6.89523">
        <ele>958</ele>
        <time>2021-09-19T12:47:48Z</time>
      </trkpt>
      <trkpt lat="43.85521" lon="6.89524">
        <ele>958</ele>
        <time>2021-09-19T12:47:50Z</time>
      </trkpt>
      <trkpt lat="43.85535" lon="6.8954">
        <ele>961.7</ele>
        <time>2021-09-19T12:49:12Z</time>
      </trkpt>
      <trkpt lat="43.85537" lon="6.89544">
        <ele>962.7</ele>
        <time>2021-09-19T12:49:13Z</time>
      </trkpt>
      <trkpt lat="43.85539" lon="6.89547">
        <ele>963.6</ele>
        <time>2021-09-19T12:49:14Z</time>
      </trkpt>
      <trkpt lat="43.8554" lon="6.89548">
        <ele>963.6</ele>
        <time>2021-09-19T12:49:15Z</time>
      </trkpt>
      <trkpt lat="43.85541" lon="6.89548">
        <ele>963.6</ele>
        <time>2021-09-19T12:49:17Z</time>
      </trkpt>
      <trkpt lat="43.85541" lon="6.89548">
        <ele>963.5</ele>
        <time>2021-09-19T12:49:18Z</time>
      </trkpt>
      <trkpt lat="43.85541" lon="6.89547">
        <ele>963.5</ele>
        <time>2021-09-19T12:49:20Z</time>
      </trkpt>
      <trkpt lat="43.85542" lon="6.89546">
        <ele>964.5</ele>
        <time>2021-09-19T12:49:21Z</time>
      </trkpt>
      <trkpt lat="43.85542" lon="6.89546">
        <ele>966.3</ele>
        <time>2021-09-19T12:49:22Z</time>
      </trkpt>
      <trkpt lat="43.85542" lon="6.89545">
        <ele>966.3</ele>
        <time>2021-09-19T12:49:24Z</time>
      </trkpt>
      <trkpt lat="43.85546" lon="6.89608">
        <ele>948.1</ele>
        <time>2021-09-19T12:49:50Z</time>
      </trkpt>
      <trkpt lat="43.85545" lon="6.89615">
        <ele>944.4</ele>
        <time>2021-09-19T12:49:51Z</time>
      </trkpt>
      <trkpt lat="43.85546" lon="6.89622">
        <ele>942.5</ele>
        <time>2021-09-19T12:49:52Z</time>
      </trkpt>
      <trkpt lat="43.85547" lon="6.8963">
        <ele>938.6</ele>
        <time>2021-09-19T12:49:53Z</time>
      </trkpt>
      <trkpt lat="43.8555" lon="6.89638">
        <ele>937</ele>
        <time>2021-09-19T12:49:54Z</time>
      </trkpt>
      <trkpt lat="43.85555" lon="6.89647">
        <ele>938</ele>
        <time>2021-09-19T12:49:56Z</time>
      </trkpt>
      <trkpt lat="43.85559" lon="6.89654">
        <ele>936.8</ele>
        <time>2021-09-19T12:49:57Z</time>
      </trkpt>
      <trkpt lat="43.85562" lon="6.8966">
        <ele>937.3</ele>
        <time>2021-09-19T12:49:59Z</time>
      </trkpt>
      <trkpt lat="43.85564" lon="6.89664">
        <ele>937.4</ele>
        <time>2021-09-19T12:50:00Z</time>
      </trkpt>
      <trkpt lat="43.85567" lon="6.89667">
        <ele>939.4</ele>
        <time>2021-09-19T12:50:01Z</time>
      </trkpt>
      <trkpt lat="43.8557" lon="6.89669">
        <ele>937.3</ele>
        <time>2021-09-19T12:50:02Z</time>
      </trkpt>
      <trkpt lat="43.85572" lon="6.89671">
        <ele>939.2</ele>
        <time>2021-09-19T12:50:04Z</time>
      </trkpt>
      <trkpt lat="43.85575" lon="6.89673">
        <ele>939</ele>
        <time>2021-09-19T12:50:05Z</time>
      </trkpt>
      <trkpt lat="43.85576" lon="6.89678">
        <ele>938.9</ele>
        <time>2021-09-19T12:50:06Z</time>
      </trkpt>
      <trkpt lat="43.85579" lon="6.89681">
        <ele>936.9</ele>
        <time>2021-09-19T12:50:08Z</time>
      </trkpt>
      <trkpt lat="43.85581" lon="6.89684">
        <ele>937.1</ele>
        <time>2021-09-19T12:50:09Z</time>
      </trkpt>
      <trkpt lat="43.85585" lon="6.89689">
        <ele>937.4</ele>
        <time>2021-09-19T12:50:10Z</time>
      </trkpt>
      <trkpt lat="43.85588" lon="6.89693">
        <ele>937.6</ele>
        <time>2021-09-19T12:50:12Z</time>
      </trkpt>
      <trkpt lat="43.85591" lon="6.89696">
        <ele>939.7</ele>
        <time>2021-09-19T12:50:13Z</time>
      </trkpt>
      <trkpt lat="43.85592" lon="6.89698">
        <ele>939.5</ele>
        <time>2021-09-19T12:50:14Z</time>
      </trkpt>
      <trkpt lat="43.85593" lon="6.89698">
        <ele>939.4</ele>
        <time>2021-09-19T12:50:16Z</time>
      </trkpt>
      <trkpt lat="43.85594" lon="6.89695">
        <ele>941.5</ele>
        <time>2021-09-19T12:50:17Z</time>
      </trkpt>
      <trkpt lat="43.85595" lon="6.89695">
        <ele>943.4</ele>
        <time>2021-09-19T12:50:19Z</time>
      </trkpt>
      <trkpt lat="43.85594" lon="6.89695">
        <ele>941.5</ele>
        <time>2021-09-19T12:50:20Z</time>
      </trkpt>
      <trkpt lat="43.85593" lon="6.89695">
        <ele>941.5</ele>
        <time>2021-09-19T12:50:22Z</time>
      </trkpt>
      <trkpt lat="43.85593" lon="6.89695">
        <ele>941.4</ele>
        <time>2021-09-19T12:50:23Z</time>
      </trkpt>
      <trkpt lat="43.85593" lon="6.89697">
        <ele>941.4</ele>
        <time>2021-09-19T12:50:24Z</time>
      </trkpt>
      <trkpt lat="43.85591" lon="6.89697">
        <ele>937.3</ele>
        <time>2021-09-19T12:50:25Z</time>
      </trkpt>
      <trkpt lat="43.85588" lon="6.89696">
        <ele>937.3</ele>
        <time>2021-09-19T12:50:26Z</time>
      </trkpt>
      <trkpt lat="43.85587" lon="6.89696">
        <ele>937.3</ele>
        <time>2021-09-19T12:50:27Z</time>
      </trkpt>
      <trkpt lat="43.85583" lon="6.89698">
        <ele>932.8</ele>
        <time>2021-09-19T12:50:29Z</time>
      </trkpt>
      <trkpt lat="43.8558" lon="6.89698">
        <ele>930.5</ele>
        <time>2021-09-19T12:50:30Z</time>
      </trkpt>
      <trkpt lat="43.85575" lon="6.89697">
        <ele>926.3</ele>
        <time>2021-09-19T12:50:31Z</time>
      </trkpt>
      <trkpt lat="43.85571" lon="6.89695">
        <ele>926.5</ele>
        <time>2021-09-19T12:50:32Z</time>
      </trkpt>
      <trkpt lat="43.85567" lon="6.89692">
        <ele>926.6</ele>
        <time>2021-09-19T12:50:33Z</time>
      </trkpt>
      <trkpt lat="43.85563" lon="6.89687">
        <ele>924.5</ele>
        <time>2021-09-19T12:50:34Z</time>
      </trkpt>
      <trkpt lat="43.85559" lon="6.89684">
        <ele>924.1</ele>
        <time>2021-09-19T12:50:36Z</time>
      </trkpt>
      <trkpt lat="43.85554" lon="6.89681">
        <ele>919.3</ele>
        <time>2021-09-19T12:50:37Z</time>
      </trkpt>
      <trkpt lat="43.85552" lon="6.89681">
        <ele>919.3</ele>
        <time>2021-09-19T12:50:39Z</time>
      </trkpt>
      <trkpt lat="43.85549" lon="6.89683">
        <ele>917.2</ele>
        <time>2021-09-19T12:50:41Z</time>
      </trkpt>
      <trkpt lat="43.85548" lon="6.89683">
        <ele>915.2</ele>
        <time>2021-09-19T12:50:42Z</time>
      </trkpt>
      <trkpt lat="43.85549" lon="6.89682">
        <ele>917.1</ele>
        <time>2021-09-19T12:50:44Z</time>
      </trkpt>
      <trkpt lat="43.8555" lon="6.89682">
        <ele>917.1</ele>
        <time>2021-09-19T12:50:45Z</time>
      </trkpt>
      <trkpt lat="43.8555" lon="6.89681">
        <ele>917.1</ele>
        <time>2021-09-19T12:50:46Z</time>
      </trkpt>
      <trkpt lat="43.8555" lon="6.89681">
        <ele>917</ele>
        <time>2021-09-19T12:50:48Z</time>
      </trkpt>
      <trkpt lat="43.8555" lon="6.89681">
        <ele>917</ele>
        <time>2021-09-19T12:50:49Z</time>
      </trkpt>
      <trkpt lat="43.85549" lon="6.89681">
        <ele>917</ele>
        <time>2021-09-19T12:50:51Z</time>
      </trkpt>
      <trkpt lat="43.85549" lon="6.89681">
        <ele>917</ele>
        <time>2021-09-19T12:50:52Z</time>
      </trkpt>
      <trkpt lat="43.85568" lon="6.897">
        <ele>922.2</ele>
        <time>2021-09-19T12:52:24Z</time>
      </trkpt>
      <trkpt lat="43.85573" lon="6.89705">
        <ele>923.7</ele>
        <time>2021-09-19T12:52:26Z</time>
      </trkpt>
      <trkpt lat="43.85579" lon="6.89716">
        <ele>918.9</ele>
        <time>2021-09-19T12:52:28Z</time>
      </trkpt>
      <trkpt lat="43.85581" lon="6.89723">
        <ele>916.6</ele>
        <time>2021-09-19T12:52:29Z</time>
      </trkpt>
      <trkpt lat="43.85582" lon="6.89731">
        <ele>914.6</ele>
        <time>2021-09-19T12:52:30Z</time>
      </trkpt>
      <trkpt lat="43.85584" lon="6.89736">
        <ele>912.6</ele>
        <time>2021-09-19T12:52:32Z</time>
      </trkpt>
      <trkpt lat="43.85584" lon="6.89739">
        <ele>912.6</ele>
        <time>2021-09-19T12:52:33Z</time>
      </trkpt>
      <trkpt lat="43.85585" lon="6.89743">
        <ele>910.6</ele>
        <time>2021-09-19T12:52:35Z</time>
      </trkpt>
      <trkpt lat="43.85587" lon="6.89749">
        <ele>908.5</ele>
        <time>2021-09-19T12:52:36Z</time>
      </trkpt>
      <trkpt lat="43.85588" lon="6.89751">
        <ele>908.5</ele>
        <time>2021-09-19T12:52:37Z</time>
      </trkpt>
      <trkpt lat="43.8559" lon="6.89755">
        <ele>908.2</ele>
        <time>2021-09-19T12:52:39Z</time>
      </trkpt>
      <trkpt lat="43.85591" lon="6.8976">
        <ele>906.1</ele>
        <time>2021-09-19T12:52:40Z</time>
      </trkpt>
      <trkpt lat="43.85591" lon="6.89765">
        <ele>904</ele>
        <time>2021-09-19T12:52:41Z</time>
      </trkpt>
      <trkpt lat="43.85591" lon="6.89769">
        <ele>902.1</ele>
        <time>2021-09-19T12:52:42Z</time>
      </trkpt>
      <trkpt lat="43.85591" lon="6.8977">
        <ele>900.3</ele>
        <time>2021-09-19T12:52:43Z</time>
      </trkpt>
      <trkpt lat="43.85591" lon="6.89771">
        <ele>900.2</ele>
        <time>2021-09-19T12:52:44Z</time>
      </trkpt>
      <trkpt lat="43.8559" lon="6.89772">
        <ele>900.2</ele>
        <time>2021-09-19T12:52:46Z</time>
      </trkpt>
      <trkpt lat="43.8559" lon="6.89772">
        <ele>900.2</ele>
        <time>2021-09-19T12:52:47Z</time>
      </trkpt>
      <trkpt lat="43.8559" lon="6.89772">
        <ele>900.2</ele>
        <time>2021-09-19T12:52:49Z</time>
      </trkpt>
      <trkpt lat="43.8559" lon="6.89772">
        <ele>900.1</ele>
        <time>2021-09-19T12:52:50Z</time>
      </trkpt>
      <trkpt lat="43.8559" lon="6.89772">
        <ele>900.1</ele>
        <time>2021-09-19T12:52:52Z</time>
      </trkpt>
      <trkpt lat="43.8559" lon="6.89772">
        <ele>900.1</ele>
        <time>2021-09-19T12:52:53Z</time>
      </trkpt>
      <trkpt lat="43.85565" lon="6.89767">
        <ele>889.2</ele>
        <time>2021-09-19T12:53:22Z</time>
      </trkpt>
      <trkpt lat="43.85562" lon="6.89768">
        <ele>887.7</ele>
        <time>2021-09-19T12:53:23Z</time>
      </trkpt>
      <trkpt lat="43.85559" lon="6.8977">
        <ele>886.1</ele>
        <time>2021-09-19T12:53:25Z</time>
      </trkpt>
      <trkpt lat="43.85557" lon="6.89772">
        <ele>883.1</ele>
        <time>2021-09-19T12:53:26Z</time>
      </trkpt>
      <trkpt lat="43.85553" lon="6.89775">
        <ele>880.2</ele>
        <time>2021-09-19T12:53:27Z</time>
      </trkpt>
      <trkpt lat="43.85549" lon="6.89776">
        <ele>878.8</ele>
        <time>2021-09-19T12:53:29Z</time>
      </trkpt>
      <trkpt lat="43.85546" lon="6.89775">
        <ele>877.6</ele>
        <time>2021-09-19T12:53:30Z</time>
      </trkpt>
      <trkpt lat="43.85543" lon="6.89774">
        <ele>877.7</ele>
        <time>2021-09-19T12:53:32Z</time>
      </trkpt>
      <trkpt lat="43.85542" lon="6.89774">
        <ele>876.5</ele>
        <time>2021-09-19T12:53:33Z</time>
      </trkpt>
      <trkpt lat="43.85538" lon="6.89772">
        <ele>875.2</ele>
        <time>2021-09-19T12:53:34Z</time>
      </trkpt>
      <trkpt lat="43.85537" lon="6.89771">
        <ele>875.1</ele>
        <time>2021-09-19T12:53:36Z</time>
      </trkpt>
      <trkpt lat="43.85536" lon="6.89771">
        <ele>875.1</ele>
        <time>2021-09-19T12:53:37Z</time>
      </trkpt>
      <trkpt lat="43.85535" lon="6.8977">
        <ele>873.7</ele>
        <time>2021-09-19T12:53:38Z</time>
      </trkpt>
      <trkpt lat="43.85532" lon="6.89771">
        <ele>872.2</ele>
        <time>2021-09-19T12:53:39Z</time>
      </trkpt>
      <trkpt lat="43.8553" lon="6.89772">
        <ele>872</ele>
        <time>2021-09-19T12:53:41Z</time>
      </trkpt>
      <trkpt lat="43.85525" lon="6.89772">
        <ele>871.6</ele>
        <time>2021-09-19T12:53:43Z</time>
      </trkpt>
      <trkpt lat="43.85523" lon="6.89774">
        <ele>871.4</ele>
        <time>2021-09-19T12:53:44Z</time>
      </trkpt>
      <trkpt lat="43.85521" lon="6.89776">
        <ele>871.2</ele>
        <time>2021-09-19T12:53:45Z</time>
      </trkpt>
      <trkpt lat="43.8552" lon="6.89776">
        <ele>871.1</ele>
        <time>2021-09-19T12:53:47Z</time>
      </trkpt>
      <trkpt lat="43.85523" lon="6.89777">
        <ele>870.9</ele>
        <time>2021-09-19T12:53:48Z</time>
      </trkpt>
      <trkpt lat="43.85524" lon="6.89777">
        <ele>870.8</ele>
        <time>2021-09-19T12:53:49Z</time>
      </trkpt>
      <trkpt lat="43.85524" lon="6.89777">
        <ele>870.8</ele>
        <time>2021-09-19T12:53:50Z</time>
      </trkpt>
      <trkpt lat="43.85524" lon="6.89777">
        <ele>870.8</ele>
        <time>2021-09-19T12:53:51Z</time>
      </trkpt>
      <trkpt lat="43.85524" lon="6.89778">
        <ele>870.8</ele>
        <time>2021-09-19T12:53:52Z</time>
      </trkpt>
      <trkpt lat="43.85525" lon="6.89778">
        <ele>870.7</ele>
        <time>2021-09-19T12:53:53Z</time>
      </trkpt>
      <trkpt lat="43.85525" lon="6.89778">
        <ele>870.7</ele>
        <time>2021-09-19T12:53:55Z</time>
      </trkpt>
      <trkpt lat="43.85525" lon="6.89779">
        <ele>870.7</ele>
        <time>2021-09-19T12:53:56Z</time>
      </trkpt>
      <trkpt lat="43.85525" lon="6.89779">
        <ele>870.7</ele>
        <time>2021-09-19T12:53:58Z</time>
      </trkpt>
      <trkpt lat="43.85525" lon="6.89779">
        <ele>870.7</ele>
        <time>2021-09-19T12:53:59Z</time>
      </trkpt>
      <trkpt lat="43.85526" lon="6.8978">
        <ele>870.6</ele>
        <time>2021-09-19T12:54:00Z</time>
      </trkpt>
      <trkpt lat="43.85526" lon="6.8978">
        <ele>870.6</ele>
        <time>2021-09-19T12:54:01Z</time>
      </trkpt>
      <trkpt lat="43.85527" lon="6.89781">
        <ele>870.5</ele>
        <time>2021-09-19T12:54:02Z</time>
      </trkpt>
      <trkpt lat="43.85528" lon="6.89783">
        <ele>870.4</ele>
        <time>2021-09-19T12:54:03Z</time>
      </trkpt>
      <trkpt lat="43.8553" lon="6.89785">
        <ele>870.3</ele>
        <time>2021-09-19T12:54:05Z</time>
      </trkpt>
      <trkpt lat="43.85539" lon="6.89791">
        <ele>869.5</ele>
        <time>2021-09-19T12:54:07Z</time>
      </trkpt>
      <trkpt lat="43.85544" lon="6.89796">
        <ele>868.8</ele>
        <time>2021-09-19T12:54:08Z</time>
      </trkpt>
      <trkpt lat="43.85551" lon="6.89804">
        <ele>867.3</ele>
        <time>2021-09-19T12:54:10Z</time>
      </trkpt>
      <trkpt lat="43.85555" lon="6.89808">
        <ele>866.4</ele>
        <time>2021-09-19T12:54:11Z</time>
      </trkpt>
      <trkpt lat="43.85558" lon="6.89811">
        <ele>865.6</ele>
        <time>2021-09-19T12:54:12Z</time>
      </trkpt>
      <trkpt lat="43.85561" lon="6.8982">
        <ele>864.1</ele>
        <time>2021-09-19T12:54:14Z</time>
      </trkpt>
      <trkpt lat="43.85564" lon="6.89826">
        <ele>862.9</ele>
        <time>2021-09-19T12:54:15Z</time>
      </trkpt>
      <trkpt lat="43.85566" lon="6.89831">
        <ele>861.9</ele>
        <time>2021-09-19T12:54:16Z</time>
      </trkpt>
      <trkpt lat="43.85567" lon="6.89838">
        <ele>860.6</ele>
        <time>2021-09-19T12:54:17Z</time>
      </trkpt>
      <trkpt lat="43.85568" lon="6.89844">
        <ele>859.8</ele>
        <time>2021-09-19T12:54:19Z</time>
      </trkpt>
      <trkpt lat="43.8557" lon="6.89851">
        <ele>858.7</ele>
        <time>2021-09-19T12:54:20Z</time>
      </trkpt>
      <trkpt lat="43.8557" lon="6.89859">
        <ele>857.7</ele>
        <time>2021-09-19T12:54:21Z</time>
      </trkpt>
      <trkpt lat="43.85571" lon="6.89864">
        <ele>857</ele>
        <time>2021-09-19T12:54:22Z</time>
      </trkpt>
      <trkpt lat="43.8557" lon="6.8987">
        <ele>856.2</ele>
        <time>2021-09-19T12:54:24Z</time>
      </trkpt>
      <trkpt lat="43.85571" lon="6.89878">
        <ele>855.1</ele>
        <time>2021-09-19T12:54:26Z</time>
      </trkpt>
      <trkpt lat="43.85572" lon="6.89888">
        <ele>853.6</ele>
        <time>2021-09-19T12:54:28Z</time>
      </trkpt>
      <trkpt lat="43.85572" lon="6.89894">
        <ele>852.7</ele>
        <time>2021-09-19T12:54:29Z</time>
      </trkpt>
      <trkpt lat="43.85571" lon="6.899">
        <ele>851.7</ele>
        <time>2021-09-19T12:54:30Z</time>
      </trkpt>
      <trkpt lat="43.85572" lon="6.89905">
        <ele>850.9</ele>
        <time>2021-09-19T12:54:31Z</time>
      </trkpt>
      <trkpt lat="43.85574" lon="6.89913">
        <ele>849.5</ele>
        <time>2021-09-19T12:54:33Z</time>
      </trkpt>
      <trkpt lat="43.85575" lon="6.89918">
        <ele>848.5</ele>
        <time>2021-09-19T12:54:34Z</time>
      </trkpt>
      <trkpt lat="43.85577" lon="6.89923">
        <ele>847.4</ele>
        <time>2021-09-19T12:54:36Z</time>
      </trkpt>
      <trkpt lat="43.85578" lon="6.89926">
        <ele>846.9</ele>
        <time>2021-09-19T12:54:37Z</time>
      </trkpt>
      <trkpt lat="43.85579" lon="6.89931">
        <ele>845.8</ele>
        <time>2021-09-19T12:54:38Z</time>
      </trkpt>
      <trkpt lat="43.8558" lon="6.89937">
        <ele>844.7</ele>
        <time>2021-09-19T12:54:39Z</time>
      </trkpt>
      <trkpt lat="43.85581" lon="6.89941">
        <ele>843.8</ele>
        <time>2021-09-19T12:54:41Z</time>
      </trkpt>
      <trkpt lat="43.85584" lon="6.89948">
        <ele>842.4</ele>
        <time>2021-09-19T12:54:42Z</time>
      </trkpt>
      <trkpt lat="43.85584" lon="6.89953">
        <ele>841.6</ele>
        <time>2021-09-19T12:54:44Z</time>
      </trkpt>
      <trkpt lat="43.85584" lon="6.89957">
        <ele>841</ele>
        <time>2021-09-19T12:54:45Z</time>
      </trkpt>
      <trkpt lat="43.85583" lon="6.89961">
        <ele>840.3</ele>
        <time>2021-09-19T12:54:46Z</time>
      </trkpt>
      <trkpt lat="43.85582" lon="6.89962">
        <ele>840.1</ele>
        <time>2021-09-19T12:54:47Z</time>
      </trkpt>
      <trkpt lat="43.85581" lon="6.89963">
        <ele>840</ele>
        <time>2021-09-19T12:54:48Z</time>
      </trkpt>
      <trkpt lat="43.85581" lon="6.89963">
        <ele>839.9</ele>
        <time>2021-09-19T12:54:50Z</time>
      </trkpt>
      <trkpt lat="43.85581" lon="6.89962">
        <ele>839.8</ele>
        <time>2021-09-19T12:54:51Z</time>
      </trkpt>
      <trkpt lat="43.85581" lon="6.89962">
        <ele>839.8</ele>
        <time>2021-09-19T12:54:52Z</time>
      </trkpt>
      <trkpt lat="43.85581" lon="6.89962">
        <ele>839.8</ele>
        <time>2021-09-19T12:54:54Z</time>
      </trkpt>
      <trkpt lat="43.85581" lon="6.89962">
        <ele>839.7</ele>
        <time>2021-09-19T12:54:55Z</time>
      </trkpt>
      <trkpt lat="43.85581" lon="6.89962">
        <ele>839.7</ele>
        <time>2021-09-19T12:54:56Z</time>
      </trkpt>
      <trkpt lat="43.85581" lon="6.89961">
        <ele>839.7</ele>
        <time>2021-09-19T12:54:58Z</time>
      </trkpt>
      <trkpt lat="43.85572" lon="6.89957">
        <ele>838.2</ele>
        <time>2021-09-19T12:55:05Z</time>
      </trkpt>
      <trkpt lat="43.85568" lon="6.89955">
        <ele>837.4</ele>
        <time>2021-09-19T12:55:06Z</time>
      </trkpt>
      <trkpt lat="43.85564" lon="6.89955">
        <ele>836.6</ele>
        <time>2021-09-19T12:55:08Z</time>
      </trkpt>
      <trkpt lat="43.85562" lon="6.89955">
        <ele>836.3</ele>
        <time>2021-09-19T12:55:09Z</time>
      </trkpt>
      <trkpt lat="43.85561" lon="6.89956">
        <ele>836.1</ele>
        <time>2021-09-19T12:55:10Z</time>
      </trkpt>
      <trkpt lat="43.85562" lon="6.89958">
        <ele>835.8</ele>
        <time>2021-09-19T12:55:12Z</time>
      </trkpt>
      <trkpt lat="43.85562" lon="6.8996">
        <ele>835.4</ele>
        <time>2021-09-19T12:55:13Z</time>
      </trkpt>
      <trkpt lat="43.85562" lon="6.89966">
        <ele>834.6</ele>
        <time>2021-09-19T12:55:14Z</time>
      </trkpt>
      <trkpt lat="43.85562" lon="6.89968">
        <ele>834.3</ele>
        <time>2021-09-19T12:55:15Z</time>
      </trkpt>
      <trkpt lat="43.85563" lon="6.89973">
        <ele>833.5</ele>
        <time>2021-09-19T12:55:16Z</time>
      </trkpt>
      <trkpt lat="43.85564" lon="6.89979">
        <ele>832.5</ele>
        <time>2021-09-19T12:55:18Z</time>
      </trkpt>
      <trkpt lat="43.85565" lon="6.89984">
        <ele>831.7</ele>
        <time>2021-09-19T12:55:19Z</time>
      </trkpt>
      <trkpt lat="43.85566" lon="6.8999">
        <ele>830.6</ele>
        <time>2021-09-19T12:55:20Z</time>
      </trkpt>
      <trkpt lat="43.85566" lon="6.89992">
        <ele>830.2</ele>
        <time>2021-09-19T12:55:21Z</time>
      </trkpt>
      <trkpt lat="43.85564" lon="6.89994">
        <ele>829.6</ele>
        <time>2021-09-19T12:55:23Z</time>
      </trkpt>
      <trkpt lat="43.85563" lon="6.89995">
        <ele>829.3</ele>
        <time>2021-09-19T12:55:24Z</time>
      </trkpt>
      <trkpt lat="43.85562" lon="6.89994">
        <ele>828.9</ele>
        <time>2021-09-19T12:55:25Z</time>
      </trkpt>
      <trkpt lat="43.85562" lon="6.89993">
        <ele>828.7</ele>
        <time>2021-09-19T12:55:26Z</time>
      </trkpt>
      <trkpt lat="43.8556" lon="6.89992">
        <ele>828.3</ele>
        <time>2021-09-19T12:55:28Z</time>
      </trkpt>
      <trkpt lat="43.85556" lon="6.89991">
        <ele>827.1</ele>
        <time>2021-09-19T12:55:29Z</time>
      </trkpt>
      <trkpt lat="43.85552" lon="6.8999">
        <ele>826</ele>
        <time>2021-09-19T12:55:30Z</time>
      </trkpt>
      <trkpt lat="43.85547" lon="6.89989">
        <ele>824.6</ele>
        <time>2021-09-19T12:55:32Z</time>
      </trkpt>
      <trkpt lat="43.85546" lon="6.8999">
        <ele>824.2</ele>
        <time>2021-09-19T12:55:33Z</time>
      </trkpt>
      <trkpt lat="43.85544" lon="6.89991">
        <ele>823.7</ele>
        <time>2021-09-19T12:55:34Z</time>
      </trkpt>
      <trkpt lat="43.85543" lon="6.89995">
        <ele>822.7</ele>
        <time>2021-09-19T12:55:36Z</time>
      </trkpt>
      <trkpt lat="43.85543" lon="6.89995">
        <ele>822.5</ele>
        <time>2021-09-19T12:55:37Z</time>
      </trkpt>
      <trkpt lat="43.85543" lon="6.89995">
        <ele>822.4</ele>
        <time>2021-09-19T12:55:38Z</time>
      </trkpt>
      <trkpt lat="43.85543" lon="6.89995">
        <ele>822.3</ele>
        <time>2021-09-19T12:55:40Z</time>
      </trkpt>
      <trkpt lat="43.85543" lon="6.89995">
        <ele>822.2</ele>
        <time>2021-09-19T12:55:42Z</time>
      </trkpt>
      <trkpt lat="43.85544" lon="6.89995">
        <ele>822</ele>
        <time>2021-09-19T12:55:43Z</time>
      </trkpt>
      <trkpt lat="43.85544" lon="6.89995">
        <ele>821.8</ele>
        <time>2021-09-19T12:55:44Z</time>
      </trkpt>
      <trkpt lat="43.85545" lon="6.89992">
        <ele>821.2</ele>
        <time>2021-09-19T12:55:45Z</time>
      </trkpt>
      <trkpt lat="43.85546" lon="6.89991">
        <ele>820.9</ele>
        <time>2021-09-19T12:55:46Z</time>
      </trkpt>
      <trkpt lat="43.85503" lon="6.90022">
        <ele>802.8</ele>
        <time>2021-09-19T12:56:51Z</time>
      </trkpt>
      <trkpt lat="43.85501" lon="6.90017">
        <ele>802.8</ele>
        <time>2021-09-19T12:56:52Z</time>
      </trkpt>
      <trkpt lat="43.85499" lon="6.90012">
        <ele>802.8</ele>
        <time>2021-09-19T12:56:53Z</time>
      </trkpt>
      <trkpt lat="43.85497" lon="6.90008">
        <ele>802.9</ele>
        <time>2021-09-19T12:56:54Z</time>
      </trkpt>
      <trkpt lat="43.85494" lon="6.90001">
        <ele>802</ele>
        <time>2021-09-19T12:56:56Z</time>
      </trkpt>
      <trkpt lat="43.85492" lon="6.89997">
        <ele>801.6</ele>
        <time>2021-09-19T12:56:57Z</time>
      </trkpt>
      <trkpt lat="43.85491" lon="6.89993">
        <ele>801.2</ele>
        <time>2021-09-19T12:56:58Z</time>
      </trkpt>
      <trkpt lat="43.85489" lon="6.8999">
        <ele>800.9</ele>
        <time>2021-09-19T12:56:59Z</time>
      </trkpt>
      <trkpt lat="43.85486" lon="6.8999">
        <ele>800.5</ele>
        <time>2021-09-19T12:57:00Z</time>
      </trkpt>
      <trkpt lat="43.85484" lon="6.89991">
        <ele>800.2</ele>
        <time>2021-09-19T12:57:01Z</time>
      </trkpt>
      <trkpt lat="43.85482" lon="6.89993">
        <ele>799.9</ele>
        <time>2021-09-19T12:57:03Z</time>
      </trkpt>
      <trkpt lat="43.85481" lon="6.90002">
        <ele>799.1</ele>
        <time>2021-09-19T12:57:04Z</time>
      </trkpt>
      <trkpt lat="43.85481" lon="6.90011">
        <ele>798.3</ele>
        <time>2021-09-19T12:57:06Z</time>
      </trkpt>
      <trkpt lat="43.85481" lon="6.90019">
        <ele>797.5</ele>
        <time>2021-09-19T12:57:08Z</time>
      </trkpt>
      <trkpt lat="43.85485" lon="6.9004">
        <ele>795.2</ele>
        <time>2021-09-19T12:57:10Z</time>
      </trkpt>
      <trkpt lat="43.8549" lon="6.90059">
        <ele>792.9</ele>
        <time>2021-09-19T12:57:12Z</time>
      </trkpt>
      <trkpt lat="43.85492" lon="6.90066">
        <ele>792</ele>
        <time>2021-09-19T12:57:13Z</time>
      </trkpt>
      <trkpt lat="43.85495" lon="6.90073">
        <ele>791.1</ele>
        <time>2021-09-19T12:57:14Z</time>
      </trkpt>
      <trkpt lat="43.85497" lon="6.90081">
        <ele>790</ele>
        <time>2021-09-19T12:57:15Z</time>
      </trkpt>
      <trkpt lat="43.85499" lon="6.90089">
        <ele>789</ele>
        <time>2021-09-19T12:57:17Z</time>
      </trkpt>
      <trkpt lat="43.85501" lon="6.90094">
        <ele>788.4</ele>
        <time>2021-09-19T12:57:18Z</time>
      </trkpt>
      <trkpt lat="43.85504" lon="6.901">
        <ele>787.4</ele>
        <time>2021-09-19T12:57:19Z</time>
      </trkpt>
      <trkpt lat="43.85505" lon="6.90109">
        <ele>786.3</ele>
        <time>2021-09-19T12:57:21Z</time>
      </trkpt>
      <trkpt lat="43.85505" lon="6.9012">
        <ele>784.8</ele>
        <time>2021-09-19T12:57:23Z</time>
      </trkpt>
      <trkpt lat="43.85508" lon="6.90127">
        <ele>783.7</ele>
        <time>2021-09-19T12:57:24Z</time>
      </trkpt>
      <trkpt lat="43.85514" lon="6.90132">
        <ele>782.2</ele>
        <time>2021-09-19T12:57:26Z</time>
      </trkpt>
      <trkpt lat="43.85521" lon="6.90138">
        <ele>780.6</ele>
        <time>2021-09-19T12:57:27Z</time>
      </trkpt>
      <trkpt lat="43.8553" lon="6.90149">
        <ele>778.8</ele>
        <time>2021-09-19T12:57:29Z</time>
      </trkpt>
      <trkpt lat="43.85533" lon="6.90156">
        <ele>777.9</ele>
        <time>2021-09-19T12:57:30Z</time>
      </trkpt>
      <trkpt lat="43.85541" lon="6.90168">
        <ele>776.1</ele>
        <time>2021-09-19T12:57:32Z</time>
      </trkpt>
      <trkpt lat="43.85547" lon="6.90172">
        <ele>775.2</ele>
        <time>2021-09-19T12:57:33Z</time>
      </trkpt>
      <trkpt lat="43.85558" lon="6.90182">
        <ele>774.1</ele>
        <time>2021-09-19T12:57:35Z</time>
      </trkpt>
      <trkpt lat="43.85568" lon="6.90191">
        <ele>773.3</ele>
        <time>2021-09-19T12:57:37Z</time>
      </trkpt>
      <trkpt lat="43.85573" lon="6.90198">
        <ele>772.3</ele>
        <time>2021-09-19T12:57:38Z</time>
      </trkpt>
      <trkpt lat="43.85577" lon="6.90203">
        <ele>770.7</ele>
        <time>2021-09-19T12:57:39Z</time>
      </trkpt>
      <trkpt lat="43.85578" lon="6.90209">
        <ele>769.6</ele>
        <time>2021-09-19T12:57:41Z</time>
      </trkpt>
      <trkpt lat="43.85572" lon="6.90208">
        <ele>768.2</ele>
        <time>2021-09-19T12:57:43Z</time>
      </trkpt>
      <trkpt lat="43.85568" lon="6.90207">
        <ele>767.3</ele>
        <time>2021-09-19T12:57:44Z</time>
      </trkpt>
      <trkpt lat="43.85563" lon="6.90208">
        <ele>766</ele>
        <time>2021-09-19T12:57:46Z</time>
      </trkpt>
      <trkpt lat="43.85558" lon="6.90209">
        <ele>764.9</ele>
        <time>2021-09-19T12:57:47Z</time>
      </trkpt>
      <trkpt lat="43.85554" lon="6.90209">
        <ele>764</ele>
        <time>2021-09-19T12:57:48Z</time>
      </trkpt>
      <trkpt lat="43.8555" lon="6.90212">
        <ele>762.5</ele>
        <time>2021-09-19T12:57:50Z</time>
      </trkpt>
      <trkpt lat="43.85547" lon="6.90214">
        <ele>761.8</ele>
        <time>2021-09-19T12:57:51Z</time>
      </trkpt>
      <trkpt lat="43.85545" lon="6.90216">
        <ele>761.3</ele>
        <time>2021-09-19T12:57:52Z</time>
      </trkpt>
      <trkpt lat="43.85543" lon="6.90216">
        <ele>760.7</ele>
        <time>2021-09-19T12:57:54Z</time>
      </trkpt>
      <trkpt lat="43.85543" lon="6.90215">
        <ele>760.5</ele>
        <time>2021-09-19T12:57:55Z</time>
      </trkpt>
      <trkpt lat="43.85543" lon="6.90215">
        <ele>760.5</ele>
        <time>2021-09-19T12:57:57Z</time>
      </trkpt>
      <trkpt lat="43.85543" lon="6.90214">
        <ele>760.4</ele>
        <time>2021-09-19T12:57:58Z</time>
      </trkpt>
      <trkpt lat="43.85543" lon="6.90214">
        <ele>760.3</ele>
        <time>2021-09-19T12:57:59Z</time>
      </trkpt>
      <trkpt lat="43.85543" lon="6.90213">
        <ele>760.3</ele>
        <time>2021-09-19T12:58:01Z</time>
      </trkpt>
      <trkpt lat="43.85543" lon="6.90214">
        <ele>760.2</ele>
        <time>2021-09-19T12:58:02Z</time>
      </trkpt>
      <trkpt lat="43.85509" lon="6.90188">
        <ele>753.8</ele>
        <time>2021-09-19T12:58:13Z</time>
      </trkpt>
      <trkpt lat="43.85503" lon="6.90182">
        <ele>752.6</ele>
        <time>2021-09-19T12:58:14Z</time>
      </trkpt>
      <trkpt lat="43.85496" lon="6.90179">
        <ele>751.4</ele>
        <time>2021-09-19T12:58:15Z</time>
      </trkpt>
      <trkpt lat="43.85492" lon="6.90176">
        <ele>750.6</ele>
        <time>2021-09-19T12:58:16Z</time>
      </trkpt>
      <trkpt lat="43.85486" lon="6.90175">
        <ele>749.6</ele>
        <time>2021-09-19T12:58:18Z</time>
      </trkpt>
      <trkpt lat="43.85481" lon="6.90175">
        <ele>748.6</ele>
        <time>2021-09-19T12:58:19Z</time>
      </trkpt>
      <trkpt lat="43.85474" lon="6.90175">
        <ele>747.2</ele>
        <time>2021-09-19T12:58:20Z</time>
      </trkpt>
      <trkpt lat="43.85464" lon="6.90174">
        <ele>745.2</ele>
        <time>2021-09-19T12:58:22Z</time>
      </trkpt>
      <trkpt lat="43.85459" lon="6.90172">
        <ele>744.3</ele>
        <time>2021-09-19T12:58:23Z</time>
      </trkpt>
      <trkpt lat="43.85454" lon="6.9017">
        <ele>743.6</ele>
        <time>2021-09-19T12:58:24Z</time>
      </trkpt>
      <trkpt lat="43.85451" lon="6.90165">
        <ele>742.9</ele>
        <time>2021-09-19T12:58:25Z</time>
      </trkpt>
      <trkpt lat="43.85446" lon="6.90163">
        <ele>742.4</ele>
        <time>2021-09-19T12:58:27Z</time>
      </trkpt>
      <trkpt lat="43.85441" lon="6.9016">
        <ele>741.8</ele>
        <time>2021-09-19T12:58:29Z</time>
      </trkpt>
      <trkpt lat="43.85437" lon="6.90157">
        <ele>741.3</ele>
        <time>2021-09-19T12:58:31Z</time>
      </trkpt>
      <trkpt lat="43.85436" lon="6.90155">
        <ele>741.1</ele>
        <time>2021-09-19T12:58:32Z</time>
      </trkpt>
      <trkpt lat="43.85436" lon="6.90153">
        <ele>741</ele>
        <time>2021-09-19T12:58:33Z</time>
      </trkpt>
      <trkpt lat="43.85435" lon="6.90148">
        <ele>740.5</ele>
        <time>2021-09-19T12:58:35Z</time>
      </trkpt>
      <trkpt lat="43.85434" lon="6.90147">
        <ele>740.4</ele>
        <time>2021-09-19T12:58:36Z</time>
      </trkpt>
      <trkpt lat="43.85433" lon="6.90146">
        <ele>740.3</ele>
        <time>2021-09-19T12:58:37Z</time>
      </trkpt>
      <trkpt lat="43.85433" lon="6.90146">
        <ele>740.1</ele>
        <time>2021-09-19T12:58:38Z</time>
      </trkpt>
      <trkpt lat="43.85432" lon="6.90145">
        <ele>740</ele>
        <time>2021-09-19T12:58:39Z</time>
      </trkpt>
      <trkpt lat="43.85428" lon="6.90144">
        <ele>739.4</ele>
        <time>2021-09-19T12:58:41Z</time>
      </trkpt>
      <trkpt lat="43.85426" lon="6.90145">
        <ele>739.2</ele>
        <time>2021-09-19T12:58:42Z</time>
      </trkpt>
      <trkpt lat="43.85423" lon="6.90144">
        <ele>738.5</ele>
        <time>2021-09-19T12:58:43Z</time>
      </trkpt>
      <trkpt lat="43.8542" lon="6.90144">
        <ele>738</ele>
        <time>2021-09-19T12:58:44Z</time>
      </trkpt>
      <trkpt lat="43.85416" lon="6.90142">
        <ele>737.3</ele>
        <time>2021-09-19T12:58:45Z</time>
      </trkpt>
      <trkpt lat="43.85415" lon="6.90141">
        <ele>737</ele>
        <time>2021-09-19T12:58:46Z</time>
      </trkpt>
      <trkpt lat="43.85413" lon="6.90138">
        <ele>736.3</ele>
        <time>2021-09-19T12:58:47Z</time>
      </trkpt>
      <trkpt lat="43.85411" lon="6.90133">
        <ele>735.5</ele>
        <time>2021-09-19T12:58:48Z</time>
      </trkpt>
      <trkpt lat="43.85407" lon="6.90129">
        <ele>734.6</ele>
        <time>2021-09-19T12:58:50Z</time>
      </trkpt>
      <trkpt lat="43.854" lon="6.90123">
        <ele>732.8</ele>
        <time>2021-09-19T12:58:52Z</time>
      </trkpt>
      <trkpt lat="43.85396" lon="6.90115">
        <ele>731.4</ele>
        <time>2021-09-19T12:58:53Z</time>
      </trkpt>
      <trkpt lat="43.85393" lon="6.90108">
        <ele>730.1</ele>
        <time>2021-09-19T12:58:54Z</time>
      </trkpt>
      <trkpt lat="43.85391" lon="6.90101">
        <ele>729</ele>
        <time>2021-09-19T12:58:55Z</time>
      </trkpt>
      <trkpt lat="43.85389" lon="6.90092">
        <ele>727.8</ele>
        <time>2021-09-19T12:58:57Z</time>
      </trkpt>
      <trkpt lat="43.85388" lon="6.90085">
        <ele>726.9</ele>
        <time>2021-09-19T12:58:58Z</time>
      </trkpt>
      <trkpt lat="43.85386" lon="6.90079">
        <ele>726.1</ele>
        <time>2021-09-19T12:58:59Z</time>
      </trkpt>
      <trkpt lat="43.85382" lon="6.90069">
        <ele>724.7</ele>
        <time>2021-09-19T12:59:00Z</time>
      </trkpt>
      <trkpt lat="43.8538" lon="6.90063">
        <ele>723.9</ele>
        <time>2021-09-19T12:59:02Z</time>
      </trkpt>
      <trkpt lat="43.85378" lon="6.90059">
        <ele>723.3</ele>
        <time>2021-09-19T12:59:03Z</time>
      </trkpt>
      <trkpt lat="43.85373" lon="6.90052">
        <ele>722.3</ele>
        <time>2021-09-19T12:59:05Z</time>
      </trkpt>
      <trkpt lat="43.85372" lon="6.90046">
        <ele>721.7</ele>
        <time>2021-09-19T12:59:06Z</time>
      </trkpt>
      <trkpt lat="43.8537" lon="6.9004">
        <ele>721</ele>
        <time>2021-09-19T12:59:07Z</time>
      </trkpt>
      <trkpt lat="43.85369" lon="6.90034">
        <ele>720.2</ele>
        <time>2021-09-19T12:59:09Z</time>
      </trkpt>
      <trkpt lat="43.85368" lon="6.90029">
        <ele>719.5</ele>
        <time>2021-09-19T12:59:10Z</time>
      </trkpt>
      <trkpt lat="43.85366" lon="6.90022">
        <ele>718.6</ele>
        <time>2021-09-19T12:59:11Z</time>
      </trkpt>
      <trkpt lat="43.85363" lon="6.90018">
        <ele>717.8</ele>
        <time>2021-09-19T12:59:13Z</time>
      </trkpt>
      <trkpt lat="43.8536" lon="6.90015">
        <ele>717.2</ele>
        <time>2021-09-19T12:59:14Z</time>
      </trkpt>
      <trkpt lat="43.85356" lon="6.90014">
        <ele>716.5</ele>
        <time>2021-09-19T12:59:15Z</time>
      </trkpt>
      <trkpt lat="43.85352" lon="6.90015">
        <ele>715.7</ele>
        <time>2021-09-19T12:59:16Z</time>
      </trkpt>
      <trkpt lat="43.85349" lon="6.90016">
        <ele>715.1</ele>
        <time>2021-09-19T12:59:17Z</time>
      </trkpt>
      <trkpt lat="43.85344" lon="6.90015">
        <ele>714.3</ele>
        <time>2021-09-19T12:59:19Z</time>
      </trkpt>
      <trkpt lat="43.8534" lon="6.90014">
        <ele>713.6</ele>
        <time>2021-09-19T12:59:20Z</time>
      </trkpt>
      <trkpt lat="43.85339" lon="6.90013">
        <ele>713.4</ele>
        <time>2021-09-19T12:59:21Z</time>
      </trkpt>
      <trkpt lat="43.85335" lon="6.90014">
        <ele>712.7</ele>
        <time>2021-09-19T12:59:22Z</time>
      </trkpt>
      <trkpt lat="43.85334" lon="6.90014">
        <ele>712.4</ele>
        <time>2021-09-19T12:59:23Z</time>
      </trkpt>
      <trkpt lat="43.8533" lon="6.90012">
        <ele>711.6</ele>
        <time>2021-09-19T12:59:25Z</time>
      </trkpt>
      <trkpt lat="43.85326" lon="6.9001">
        <ele>710.9</ele>
        <time>2021-09-19T12:59:26Z</time>
      </trkpt>
      <trkpt lat="43.85324" lon="6.90009">
        <ele>710.3</ele>
        <time>2021-09-19T12:59:27Z</time>
      </trkpt>
      <trkpt lat="43.85318" lon="6.90008">
        <ele>709.1</ele>
        <time>2021-09-19T12:59:29Z</time>
      </trkpt>
      <trkpt lat="43.85314" lon="6.90004">
        <ele>707.9</ele>
        <time>2021-09-19T12:59:30Z</time>
      </trkpt>
      <trkpt lat="43.85311" lon="6.89999">
        <ele>706.9</ele>
        <time>2021-09-19T12:59:31Z</time>
      </trkpt>
      <trkpt lat="43.85307" lon="6.89993">
        <ele>705.5</ele>
        <time>2021-09-19T12:59:33Z</time>
      </trkpt>
      <trkpt lat="43.85301" lon="6.89988">
        <ele>703.8</ele>
        <time>2021-09-19T12:59:35Z</time>
      </trkpt>
      <trkpt lat="43.85298" lon="6.89984">
        <ele>703</ele>
        <time>2021-09-19T12:59:36Z</time>
      </trkpt>
      <trkpt lat="43.85292" lon="6.89976">
        <ele>701.4</ele>
        <time>2021-09-19T12:59:38Z</time>
      </trkpt>
      <trkpt lat="43.85286" lon="6.89968">
        <ele>699.8</ele>
        <time>2021-09-19T12:59:39Z</time>
      </trkpt>
      <trkpt lat="43.85282" lon="6.89964">
        <ele>698.9</ele>
        <time>2021-09-19T12:59:41Z</time>
      </trkpt>
      <trkpt lat="43.8528" lon="6.89961">
        <ele>698.4</ele>
        <time>2021-09-19T12:59:42Z</time>
      </trkpt>
      <trkpt lat="43.85276" lon="6.89955">
        <ele>697.3</ele>
        <time>2021-09-19T12:59:43Z</time>
      </trkpt>
      <trkpt lat="43.85273" lon="6.8995">
        <ele>696.6</ele>
        <time>2021-09-19T12:59:44Z</time>
      </trkpt>
      <trkpt lat="43.85268" lon="6.89945">
        <ele>695.6</ele>
        <time>2021-09-19T12:59:45Z</time>
      </trkpt>
      <trkpt lat="43.85265" lon="6.89943">
        <ele>695.1</ele>
        <time>2021-09-19T12:59:46Z</time>
      </trkpt>
      <trkpt lat="43.85261" lon="6.89941">
        <ele>694.4</ele>
        <time>2021-09-19T12:59:48Z</time>
      </trkpt>
      <trkpt lat="43.85258" lon="6.89941">
        <ele>693.9</ele>
        <time>2021-09-19T12:59:49Z</time>
      </trkpt>
      <trkpt lat="43.85253" lon="6.89942">
        <ele>693.3</ele>
        <time>2021-09-19T12:59:50Z</time>
      </trkpt>
      <trkpt lat="43.85247" lon="6.89945">
        <ele>692.2</ele>
        <time>2021-09-19T12:59:51Z</time>
      </trkpt>
      <trkpt lat="43.85242" lon="6.89946">
        <ele>691.4</ele>
        <time>2021-09-19T12:59:52Z</time>
      </trkpt>
      <trkpt lat="43.85237" lon="6.89946">
        <ele>690.7</ele>
        <time>2021-09-19T12:59:53Z</time>
      </trkpt>
      <trkpt lat="43.85232" lon="6.89947">
        <ele>689.6</ele>
        <time>2021-09-19T12:59:55Z</time>
      </trkpt>
      <trkpt lat="43.85229" lon="6.89947">
        <ele>688.9</ele>
        <time>2021-09-19T12:59:56Z</time>
      </trkpt>
      <trkpt lat="43.85224" lon="6.89948">
        <ele>688</ele>
        <time>2021-09-19T12:59:58Z</time>
      </trkpt>
      <trkpt lat="43.85222" lon="6.89949">
        <ele>687.3</ele>
        <time>2021-09-19T12:59:59Z</time>
      </trkpt>
      <trkpt lat="43.85219" lon="6.89949">
        <ele>686.5</ele>
        <time>2021-09-19T13:00:00Z</time>
      </trkpt>
      <trkpt lat="43.85218" lon="6.8995">
        <ele>686.3</ele>
        <time>2021-09-19T13:00:01Z</time>
      </trkpt>
      <trkpt lat="43.85217" lon="6.89951">
        <ele>685.8</ele>
        <time>2021-09-19T13:00:02Z</time>
      </trkpt>
      <trkpt lat="43.85216" lon="6.89952">
        <ele>685.6</ele>
        <time>2021-09-19T13:00:04Z</time>
      </trkpt>
      <trkpt lat="43.85216" lon="6.89952">
        <ele>685.5</ele>
        <time>2021-09-19T13:00:05Z</time>
      </trkpt>
      <trkpt lat="43.85215" lon="6.89952">
        <ele>685.2</ele>
        <time>2021-09-19T13:00:06Z</time>
      </trkpt>
      <trkpt lat="43.85214" lon="6.89953">
        <ele>685</ele>
        <time>2021-09-19T13:00:07Z</time>
      </trkpt>
      <trkpt lat="43.85214" lon="6.89952">
        <ele>684.8</ele>
        <time>2021-09-19T13:00:09Z</time>
      </trkpt>
      <trkpt lat="43.85213" lon="6.89952">
        <ele>684.8</ele>
        <time>2021-09-19T13:00:10Z</time>
      </trkpt>
      <trkpt lat="43.85213" lon="6.89952">
        <ele>684.7</ele>
        <time>2021-09-19T13:00:12Z</time>
      </trkpt>
      <trkpt lat="43.85217" lon="6.89916">
        <ele>677.7</ele>
        <time>2021-09-19T13:00:39Z</time>
      </trkpt>
      <trkpt lat="43.85218" lon="6.89913">
        <ele>677.3</ele>
        <time>2021-09-19T13:00:41Z</time>
      </trkpt>
      <trkpt lat="43.85219" lon="6.89911">
        <ele>676.8</ele>
        <time>2021-09-19T13:00:43Z</time>
      </trkpt>
      <trkpt lat="43.85219" lon="6.8991">
        <ele>676.7</ele>
        <time>2021-09-19T13:00:44Z</time>
      </trkpt>
      <trkpt lat="43.85219" lon="6.8991">
        <ele>676.7</ele>
        <time>2021-09-19T13:00:45Z</time>
      </trkpt>
      <trkpt lat="43.85219" lon="6.8991">
        <ele>676.7</ele>
        <time>2021-09-19T13:00:47Z</time>
      </trkpt>
      <trkpt lat="43.85219" lon="6.8991">
        <ele>676.7</ele>
        <time>2021-09-19T13:00:49Z</time>
      </trkpt>
      <trkpt lat="43.85219" lon="6.8991">
        <ele>676.7</ele>
        <time>2021-09-19T13:00:50Z</time>
      </trkpt>
      <trkpt lat="43.85219" lon="6.8991">
        <ele>676.7</ele>
        <time>2021-09-19T13:00:51Z</time>
      </trkpt>
      <trkpt lat="43.85219" lon="6.8991">
        <ele>676.7</ele>
        <time>2021-09-19T13:00:52Z</time>
      </trkpt>
      <trkpt lat="43.85219" lon="6.8991">
        <ele>676.7</ele>
        <time>2021-09-19T13:00:53Z</time>
      </trkpt>
      <trkpt lat="43.85216" lon="6.89915">
        <ele>675.6</ele>
        <time>2021-09-19T13:00:55Z</time>
      </trkpt>
      <trkpt lat="43.85211" lon="6.89922">
        <ele>673.8</ele>
        <time>2021-09-19T13:00:57Z</time>
      </trkpt>
      <trkpt lat="43.8521" lon="6.89922">
        <ele>673.7</ele>
        <time>2021-09-19T13:00:59Z</time>
      </trkpt>
      <trkpt lat="43.85212" lon="6.8992">
        <ele>673.2</ele>
        <time>2021-09-19T13:01:01Z</time>
      </trkpt>
      <trkpt lat="43.85212" lon="6.89918">
        <ele>672.8</ele>
        <time>2021-09-19T13:01:02Z</time>
      </trkpt>
      <trkpt lat="43.85213" lon="6.89916">
        <ele>672.5</ele>
        <time>2021-09-19T13:01:03Z</time>
      </trkpt>
      <trkpt lat="43.85212" lon="6.89914">
        <ele>672.1</ele>
        <time>2021-09-19T13:01:05Z</time>
      </trkpt>
      <trkpt lat="43.85212" lon="6.89913">
        <ele>671.9</ele>
        <time>2021-09-19T13:01:07Z</time>
      </trkpt>
      <trkpt lat="43.85212" lon="6.89913">
        <ele>671.9</ele>
        <time>2021-09-19T13:01:08Z</time>
      </trkpt>
      <trkpt lat="43.85212" lon="6.89913">
        <ele>671.9</ele>
        <time>2021-09-19T13:01:10Z</time>
      </trkpt>
      <trkpt lat="43.85212" lon="6.89913">
        <ele>671.9</ele>
        <time>2021-09-19T13:01:11Z</time>
      </trkpt>
      <trkpt lat="43.85212" lon="6.89913">
        <ele>671.9</ele>
        <time>2021-09-19T13:01:13Z</time>
      </trkpt>
      <trkpt lat="43.85212" lon="6.89913">
        <ele>671.9</ele>
        <time>2021-09-19T13:01:14Z</time>
      </trkpt>
      <trkpt lat="43.85212" lon="6.89913">
        <ele>671.9</ele>
        <time>2021-09-19T13:01:16Z</time>
      </trkpt>
      <trkpt lat="43.85212" lon="6.89913">
        <ele>671.9</ele>
        <time>2021-09-19T13:01:17Z</time>
      </trkpt>
      <trkpt lat="43.85212" lon="6.89913">
        <ele>671.9</ele>
        <time>2021-09-19T13:01:18Z</time>
      </trkpt>
      <trkpt lat="43.85212" lon="6.89913">
        <ele>671.9</ele>
        <time>2021-09-19T13:01:20Z</time>
      </trkpt>
      <trkpt lat="43.85204" lon="6.89919">
        <ele>669.7</ele>
        <time>2021-09-19T13:01:22Z</time>
      </trkpt>
      <trkpt lat="43.85203" lon="6.8992">
        <ele>669.3</ele>
        <time>2021-09-19T13:01:23Z</time>
      </trkpt>
      <trkpt lat="43.85202" lon="6.8992">
        <ele>669.1</ele>
        <time>2021-09-19T13:01:24Z</time>
      </trkpt>
      <trkpt lat="43.85202" lon="6.89921">
        <ele>669.1</ele>
        <time>2021-09-19T13:01:26Z</time>
      </trkpt>
      <trkpt lat="43.85201" lon="6.89921">
        <ele>669.1</ele>
        <time>2021-09-19T13:01:27Z</time>
      </trkpt>
      <trkpt lat="43.85201" lon="6.89921">
        <ele>669.1</ele>
        <time>2021-09-19T13:01:28Z</time>
      </trkpt>
      <trkpt lat="43.85201" lon="6.89921">
        <ele>669</ele>
        <time>2021-09-19T13:01:30Z</time>
      </trkpt>
      <trkpt lat="43.85201" lon="6.89921">
        <ele>669</ele>
        <time>2021-09-19T13:01:32Z</time>
      </trkpt>
      <trkpt lat="43.85201" lon="6.89921">
        <ele>669</ele>
        <time>2021-09-19T13:01:33Z</time>
      </trkpt>
      <trkpt lat="43.85201" lon="6.89921">
        <ele>669</ele>
        <time>2021-09-19T13:01:34Z</time>
      </trkpt>
      <trkpt lat="43.85201" lon="6.89921">
        <ele>669</ele>
        <time>2021-09-19T13:01:35Z</time>
      </trkpt>
      <trkpt lat="43.852" lon="6.89925">
        <ele>668.4</ele>
        <time>2021-09-19T13:01:37Z</time>
      </trkpt>
      <trkpt lat="43.85198" lon="6.89928">
        <ele>668</ele>
        <time>2021-09-19T13:01:38Z</time>
      </trkpt>
      <trkpt lat="43.85199" lon="6.89925">
        <ele>667.5</ele>
        <time>2021-09-19T13:01:39Z</time>
      </trkpt>
      <trkpt lat="43.85199" lon="6.89926">
        <ele>667.5</ele>
        <time>2021-09-19T13:01:41Z</time>
      </trkpt>
      <trkpt lat="43.85198" lon="6.89927">
        <ele>667.2</ele>
        <time>2021-09-19T13:01:43Z</time>
      </trkpt>
      <trkpt lat="43.85197" lon="6.8993">
        <ele>666.9</ele>
        <time>2021-09-19T13:01:45Z</time>
      </trkpt>
      <trkpt lat="43.85196" lon="6.89931">
        <ele>666.6</ele>
        <time>2021-09-19T13:01:47Z</time>
      </trkpt>
      <trkpt lat="43.85196" lon="6.89932">
        <ele>666.5</ele>
        <time>2021-09-19T13:01:48Z</time>
      </trkpt>
      <trkpt lat="43.85194" lon="6.89933">
        <ele>666.1</ele>
        <time>2021-09-19T13:01:50Z</time>
      </trkpt>
      <trkpt lat="43.8519" lon="6.89933">
        <ele>665.6</ele>
        <time>2021-09-19T13:01:52Z</time>
      </trkpt>
      <trkpt lat="43.8519" lon="6.89933">
        <ele>665.4</ele>
        <time>2021-09-19T13:01:53Z</time>
      </trkpt>
      <trkpt lat="43.85189" lon="6.89933">
        <ele>665.3</ele>
        <time>2021-09-19T13:01:54Z</time>
      </trkpt>
      <trkpt lat="43.85188" lon="6.89933">
        <ele>665.1</ele>
        <time>2021-09-19T13:01:56Z</time>
      </trkpt>
      <trkpt lat="43.85187" lon="6.89932">
        <ele>664.9</ele>
        <time>2021-09-19T13:01:58Z</time>
      </trkpt>
      <trkpt lat="43.85186" lon="6.89932">
        <ele>664.8</ele>
        <time>2021-09-19T13:01:59Z</time>
      </trkpt>
      <trkpt lat="43.85186" lon="6.89931">
        <ele>664.7</ele>
        <time>2021-09-19T13:02:00Z</time>
      </trkpt>
      <trkpt lat="43.85185" lon="6.8993">
        <ele>664.5</ele>
        <time>2021-09-19T13:02:01Z</time>
      </trkpt>
      <trkpt lat="43.85184" lon="6.89929">
        <ele>664.2</ele>
        <time>2021-09-19T13:02:02Z</time>
      </trkpt>
      <trkpt lat="43.85182" lon="6.89927">
        <ele>663.9</ele>
        <time>2021-09-19T13:02:03Z</time>
      </trkpt>
      <trkpt lat="43.85178" lon="6.89925">
        <ele>663.2</ele>
        <time>2021-09-19T13:02:04Z</time>
      </trkpt>
      <trkpt lat="43.85177" lon="6.89924">
        <ele>662.9</ele>
        <time>2021-09-19T13:02:05Z</time>
      </trkpt>
      <trkpt lat="43.85175" lon="6.8992">
        <ele>662.4</ele>
        <time>2021-09-19T13:02:07Z</time>
      </trkpt>
      <trkpt lat="43.85175" lon="6.89919">
        <ele>662.2</ele>
        <time>2021-09-19T13:02:08Z</time>
      </trkpt>
      <trkpt lat="43.85172" lon="6.89913">
        <ele>661.3</ele>
        <time>2021-09-19T13:02:10Z</time>
      </trkpt>
      <trkpt lat="43.85172" lon="6.89913">
        <ele>661.3</ele>
        <time>2021-09-19T13:02:11Z</time>
      </trkpt>
      <trkpt lat="43.85172" lon="6.89913">
        <ele>661.2</ele>
        <time>2021-09-19T13:02:13Z</time>
      </trkpt>
      <trkpt lat="43.85172" lon="6.89914">
        <ele>661.2</ele>
        <time>2021-09-19T13:02:14Z</time>
      </trkpt>
      <trkpt lat="43.85172" lon="6.89914">
        <ele>661.2</ele>
        <time>2021-09-19T13:02:16Z</time>
      </trkpt>
      <trkpt lat="43.85176" lon="6.89941">
        <ele>657.2</ele>
        <time>2021-09-19T13:03:12Z</time>
      </trkpt>
      <trkpt lat="43.85173" lon="6.89943">
        <ele>656.5</ele>
        <time>2021-09-19T13:03:13Z</time>
      </trkpt>
      <trkpt lat="43.85168" lon="6.89941">
        <ele>655.6</ele>
        <time>2021-09-19T13:03:15Z</time>
      </trkpt>
      <trkpt lat="43.85162" lon="6.89939">
        <ele>654.4</ele>
        <time>2021-09-19T13:03:16Z</time>
      </trkpt>
      <trkpt lat="43.85159" lon="6.89936">
        <ele>653.8</ele>
        <time>2021-09-19T13:03:18Z</time>
      </trkpt>
      <trkpt lat="43.85157" lon="6.8993">
        <ele>653</ele>
        <time>2021-09-19T13:03:19Z</time>
      </trkpt>
      <trkpt lat="43.85157" lon="6.89927">
        <ele>652.6</ele>
        <time>2021-09-19T13:03:20Z</time>
      </trkpt>
      <trkpt lat="43.85157" lon="6.89923">
        <ele>652.1</ele>
        <time>2021-09-19T13:03:22Z</time>
      </trkpt>
      <trkpt lat="43.85157" lon="6.89921">
        <ele>652</ele>
        <time>2021-09-19T13:03:23Z</time>
      </trkpt>
      <trkpt lat="43.85156" lon="6.8992">
        <ele>651.7</ele>
        <time>2021-09-19T13:03:24Z</time>
      </trkpt>
      <trkpt lat="43.85155" lon="6.89919">
        <ele>651.6</ele>
        <time>2021-09-19T13:03:26Z</time>
      </trkpt>
      <trkpt lat="43.85155" lon="6.89919">
        <ele>651.5</ele>
        <time>2021-09-19T13:03:27Z</time>
      </trkpt>
      <trkpt lat="43.85155" lon="6.89914">
        <ele>651</ele>
        <time>2021-09-19T13:03:29Z</time>
      </trkpt>
      <trkpt lat="43.85156" lon="6.8991">
        <ele>650.6</ele>
        <time>2021-09-19T13:03:31Z</time>
      </trkpt>
      <trkpt lat="43.85156" lon="6.89907">
        <ele>650.2</ele>
        <time>2021-09-19T13:03:32Z</time>
      </trkpt>
      <trkpt lat="43.85157" lon="6.89903">
        <ele>649.8</ele>
        <time>2021-09-19T13:03:34Z</time>
      </trkpt>
      <trkpt lat="43.85158" lon="6.89899">
        <ele>649.5</ele>
        <time>2021-09-19T13:03:54Z</time>
      </trkpt>
      <trkpt lat="43.85159" lon="6.89895">
        <ele>649.2</ele>
        <time>2021-09-19T13:03:55Z</time>
      </trkpt>
      <trkpt lat="43.85164" lon="6.89883">
        <ele>647.9</ele>
        <time>2021-09-19T13:03:57Z</time>
      </trkpt>
      <trkpt lat="43.85167" lon="6.89878">
        <ele>647.4</ele>
        <time>2021-09-19T13:03:59Z</time>
      </trkpt>
      <trkpt lat="43.85172" lon="6.89872">
        <ele>646.6</ele>
        <time>2021-09-19T13:04:00Z</time>
      </trkpt>
      <trkpt lat="43.85175" lon="6.89868">
        <ele>646</ele>
        <time>2021-09-19T13:04:01Z</time>
      </trkpt>
      <trkpt lat="43.85177" lon="6.89865">
        <ele>645.6</ele>
        <time>2021-09-19T13:04:02Z</time>
      </trkpt>
      <trkpt lat="43.85177" lon="6.89865">
        <ele>645.6</ele>
        <time>2021-09-19T13:04:03Z</time>
      </trkpt>
      <trkpt lat="43.85177" lon="6.89866">
        <ele>645.5</ele>
        <time>2021-09-19T13:04:05Z</time>
      </trkpt>
      <trkpt lat="43.85176" lon="6.89866">
        <ele>645.5</ele>
        <time>2021-09-19T13:04:06Z</time>
      </trkpt>
      <trkpt lat="43.85176" lon="6.89866">
        <ele>645.4</ele>
        <time>2021-09-19T13:04:07Z</time>
      </trkpt>
      <trkpt lat="43.85153" lon="6.89907">
        <ele>639.6</ele>
        <time>2021-09-19T13:04:16Z</time>
      </trkpt>
      <trkpt lat="43.85148" lon="6.89914">
        <ele>638.5</ele>
        <time>2021-09-19T13:04:18Z</time>
      </trkpt>
      <trkpt lat="43.85144" lon="6.89919">
        <ele>637.7</ele>
        <time>2021-09-19T13:04:19Z</time>
      </trkpt>
      <trkpt lat="43.85141" lon="6.89925">
        <ele>637</ele>
        <time>2021-09-19T13:04:20Z</time>
      </trkpt>
      <trkpt lat="43.85137" lon="6.8993">
        <ele>636.1</ele>
        <time>2021-09-19T13:04:21Z</time>
      </trkpt>
      <trkpt lat="43.85135" lon="6.89934">
        <ele>635.6</ele>
        <time>2021-09-19T13:04:23Z</time>
      </trkpt>
      <trkpt lat="43.85134" lon="6.89937">
        <ele>635.1</ele>
        <time>2021-09-19T13:04:24Z</time>
      </trkpt>
      <trkpt lat="43.85132" lon="6.8994">
        <ele>634.7</ele>
        <time>2021-09-19T13:04:25Z</time>
      </trkpt>
      <trkpt lat="43.85129" lon="6.89943">
        <ele>634.2</ele>
        <time>2021-09-19T13:04:26Z</time>
      </trkpt>
      <trkpt lat="43.85126" lon="6.89945">
        <ele>633.7</ele>
        <time>2021-09-19T13:04:27Z</time>
      </trkpt>
      <trkpt lat="43.85123" lon="6.89948">
        <ele>634.2</ele>
        <time>2021-09-19T13:04:29Z</time>
      </trkpt>
      <trkpt lat="43.85121" lon="6.89952">
        <ele>634.7</ele>
        <time>2021-09-19T13:04:30Z</time>
      </trkpt>
      <trkpt lat="43.8512" lon="6.89953">
        <ele>634.8</ele>
        <time>2021-09-19T13:04:31Z</time>
      </trkpt>
      <trkpt lat="43.85117" lon="6.89957">
        <ele>635.3</ele>
        <time>2021-09-19T13:04:33Z</time>
      </trkpt>
      <trkpt lat="43.85124" lon="6.8996">
        <ele>636</ele>
        <time>2021-09-19T13:04:35Z</time>
      </trkpt>
      <trkpt lat="43.85132" lon="6.89963">
        <ele>636.8</ele>
        <time>2021-09-19T13:04:37Z</time>
      </trkpt>
      <trkpt lat="43.85141" lon="6.89966">
        <ele>636</ele>
        <time>2021-09-19T13:04:39Z</time>
      </trkpt>
      <trkpt lat="43.8515" lon="6.89969">
        <ele>635.4</ele>
        <time>2021-09-19T13:04:40Z</time>
      </trkpt>
      <trkpt lat="43.85159" lon="6.89972">
        <ele>634.9</ele>
        <time>2021-09-19T13:04:42Z</time>
      </trkpt>
      <trkpt lat="43.85168" lon="6.89975">
        <ele>634.4</ele>
        <time>2021-09-19T13:04:44Z</time>
      </trkpt>
      <trkpt lat="43.85177" lon="6.89978">
        <ele>633.9</ele>
        <time>2021-09-19T13:27:03Z</time>
      </trkpt>
      <trkpt lat="43.85186" lon="6.89981">
        <ele>633.3</ele>
        <time>2021-09-19T13:27:05Z</time>
      </trkpt>
      <trkpt lat="43.85195" lon="6.89985">
        <ele>632.7</ele>
        <time>2021-09-19T13:27:06Z</time>
      </trkpt>
      <trkpt lat="43.8521" lon="6.89998">
        <ele>631.7</ele>
        <time>2021-09-19T13:27:08Z</time>
      </trkpt>
      <trkpt lat="43.85223" lon="6.90021">
        <ele>630.5</ele>
        <time>2021-09-19T13:27:10Z</time>
      </trkpt>
      <trkpt lat="43.8523" lon="6.9005">
        <ele>629.3</ele>
        <time>2021-09-19T13:27:12Z</time>
      </trkpt>
      <trkpt lat="43.85229" lon="6.90081">
        <ele>628.1</ele>
        <time>2021-09-19T13:27:14Z</time>
      </trkpt>
      <trkpt lat="43.85222" lon="6.90111">
        <ele>626.9</ele>
        <time>2021-09-19T13:27:16Z</time>
      </trkpt>
      <trkpt lat="43.85217" lon="6.90126">
        <ele>626.4</ele>
        <time>2021-09-19T13:27:17Z</time>
      </trkpt>
      <trkpt lat="43.85214" lon="6.9014">
        <ele>625.7</ele>
        <time>2021-09-19T13:27:18Z</time>
      </trkpt>
      <trkpt lat="43.85212" lon="6.90154">
        <ele>625.1</ele>
        <time>2021-09-19T13:27:19Z</time>
      </trkpt>
      <trkpt lat="43.85211" lon="6.90169">
        <ele>624.6</ele>
        <time>2021-09-19T13:27:20Z</time>
      </trkpt>
      <trkpt lat="43.85214" lon="6.90196">
        <ele>623.5</ele>
        <time>2021-09-19T13:27:22Z</time>
      </trkpt>
      <trkpt lat="43.85218" lon="6.90208">
        <ele>623</ele>
        <time>2021-09-19T13:27:23Z</time>
      </trkpt>
      <trkpt lat="43.85223" lon="6.9022">
        <ele>622.5</ele>
        <time>2021-09-19T13:27:24Z</time>
      </trkpt>
      <trkpt lat="43.85234" lon="6.90242">
        <ele>621.4</ele>
        <time>2021-09-19T13:27:26Z</time>
      </trkpt>
      <trkpt lat="43.85242" lon="6.90269">
        <ele>620.4</ele>
        <time>2021-09-19T13:27:28Z</time>
      </trkpt>
      <trkpt lat="43.85251" lon="6.90293">
        <ele>619.2</ele>
        <time>2021-09-19T13:27:30Z</time>
      </trkpt>
      <trkpt lat="43.85257" lon="6.90304">
        <ele>618.6</ele>
        <time>2021-09-19T13:27:31Z</time>
      </trkpt>
      <trkpt lat="43.85264" lon="6.90315">
        <ele>618</ele>
        <time>2021-09-19T13:27:32Z</time>
      </trkpt>
      <trkpt lat="43.85277" lon="6.90338">
        <ele>616.9</ele>
        <time>2021-09-19T13:27:34Z</time>
      </trkpt>
      <trkpt lat="43.85285" lon="6.90364">
        <ele>615.7</ele>
        <time>2021-09-19T13:27:36Z</time>
      </trkpt>
      <trkpt lat="43.85292" lon="6.90392">
        <ele>614.6</ele>
        <time>2021-09-19T13:27:38Z</time>
      </trkpt>
      <trkpt lat="43.85302" lon="6.90418">
        <ele>613.5</ele>
        <time>2021-09-19T13:27:40Z</time>
      </trkpt>
      <trkpt lat="43.85316" lon="6.90443">
        <ele>612.4</ele>
        <time>2021-09-19T13:27:42Z</time>
      </trkpt>
      <trkpt lat="43.85328" lon="6.90468">
        <ele>611.2</ele>
        <time>2021-09-19T13:27:44Z</time>
      </trkpt>
      <trkpt lat="43.85339" lon="6.90492">
        <ele>610.1</ele>
        <time>2021-09-19T13:27:46Z</time>
      </trkpt>
      <trkpt lat="43.85345" lon="6.90501">
        <ele>609.6</ele>
        <time>2021-09-19T13:27:47Z</time>
      </trkpt>
      <trkpt lat="43.85351" lon="6.90509">
        <ele>609.1</ele>
        <time>2021-09-19T13:27:48Z</time>
      </trkpt>
      <trkpt lat="43.85362" lon="6.90525">
        <ele>608.1</ele>
        <time>2021-09-19T13:27:50Z</time>
      </trkpt>
      <trkpt lat="43.85369" lon="6.90543">
        <ele>607.2</ele>
        <time>2021-09-19T13:27:52Z</time>
      </trkpt>
      <trkpt lat="43.85378" lon="6.90557">
        <ele>606.5</ele>
        <time>2021-09-19T13:27:54Z</time>
      </trkpt>
      <trkpt lat="43.85383" lon="6.90565">
        <ele>606.2</ele>
        <time>2021-09-19T13:27:55Z</time>
      </trkpt>
      <trkpt lat="43.85387" lon="6.90573">
        <ele>605.8</ele>
        <time>2021-09-19T13:27:56Z</time>
      </trkpt>
      <trkpt lat="43.85394" lon="6.90585">
        <ele>605.3</ele>
        <time>2021-09-19T13:27:58Z</time>
      </trkpt>
      <trkpt lat="43.85396" lon="6.9059">
        <ele>605.1</ele>
        <time>2021-09-19T13:27:59Z</time>
      </trkpt>
      <trkpt lat="43.85399" lon="6.90596">
        <ele>604.8</ele>
        <time>2021-09-19T13:28:00Z</time>
      </trkpt>
      <trkpt lat="43.85404" lon="6.90609">
        <ele>604</ele>
        <time>2021-09-19T13:28:02Z</time>
      </trkpt>
      <trkpt lat="43.85409" lon="6.90617">
        <ele>603.6</ele>
        <time>2021-09-19T13:28:04Z</time>
      </trkpt>
      <trkpt lat="43.85411" lon="6.90623">
        <ele>603.3</ele>
        <time>2021-09-19T13:28:06Z</time>
      </trkpt>
      <trkpt lat="43.85411" lon="6.90624">
        <ele>603.3</ele>
        <time>2021-09-19T13:28:08Z</time>
      </trkpt>
      <trkpt lat="43.8541" lon="6.90625">
        <ele>603.2</ele>
        <time>2021-09-19T13:28:10Z</time>
      </trkpt>
      <trkpt lat="43.8541" lon="6.90625">
        <ele>603.2</ele>
        <time>2021-09-19T13:28:12Z</time>
      </trkpt>
      <trkpt lat="43.8541" lon="6.90625">
        <ele>603.2</ele>
        <time>2021-09-19T13:28:13Z</time>
      </trkpt>
      <trkpt lat="43.8541" lon="6.90625">
        <ele>603.2</ele>
        <time>2021-09-19T13:28:15Z</time>
      </trkpt>
      <trkpt lat="43.8541" lon="6.90625">
        <ele>603.2</ele>
        <time>2021-09-19T13:28:16Z</time>
      </trkpt>
      <trkpt lat="43.85394" lon="6.90661">
        <ele>596.5</ele>
        <time>2021-09-19T13:28:34Z</time>
      </trkpt>
      <trkpt lat="43.85394" lon="6.90666">
        <ele>595.5</ele>
        <time>2021-09-19T13:28:36Z</time>
      </trkpt>
      <trkpt lat="43.85394" lon="6.90668">
        <ele>595.2</ele>
        <time>2021-09-19T13:28:37Z</time>
      </trkpt>
      <trkpt lat="43.85394" lon="6.90671">
        <ele>594.6</ele>
        <time>2021-09-19T13:28:38Z</time>
      </trkpt>
      <trkpt lat="43.85395" lon="6.90675">
        <ele>593.9</ele>
        <time>2021-09-19T13:28:40Z</time>
      </trkpt>
      <trkpt lat="43.85396" lon="6.9068">
        <ele>593</ele>
        <time>2021-09-19T13:28:41Z</time>
      </trkpt>
      <trkpt lat="43.85397" lon="6.90683">
        <ele>592.4</ele>
        <time>2021-09-19T13:28:43Z</time>
      </trkpt>
      <trkpt lat="43.85397" lon="6.90686">
        <ele>591.9</ele>
        <time>2021-09-19T13:28:44Z</time>
      </trkpt>
      <trkpt lat="43.85398" lon="6.90688">
        <ele>591.3</ele>
        <time>2021-09-19T13:28:46Z</time>
      </trkpt>
      <trkpt lat="43.85399" lon="6.90691">
        <ele>590.6</ele>
        <time>2021-09-19T13:28:48Z</time>
      </trkpt>
      <trkpt lat="43.854" lon="6.90694">
        <ele>590</ele>
        <time>2021-09-19T13:28:49Z</time>
      </trkpt>
      <trkpt lat="43.85401" lon="6.90697">
        <ele>589.4</ele>
        <time>2021-09-19T13:28:50Z</time>
      </trkpt>
      <trkpt lat="43.85402" lon="6.907">
        <ele>588.7</ele>
        <time>2021-09-19T13:28:52Z</time>
      </trkpt>
      <trkpt lat="43.85403" lon="6.90702">
        <ele>588</ele>
        <time>2021-09-19T13:28:54Z</time>
      </trkpt>
      <trkpt lat="43.85404" lon="6.90705">
        <ele>587.3</ele>
        <time>2021-09-19T13:28:56Z</time>
      </trkpt>
      <trkpt lat="43.85404" lon="6.90708">
        <ele>586.6</ele>
        <time>2021-09-19T13:29:41Z</time>
      </trkpt>
      <trkpt lat="43.85405" lon="6.90711">
        <ele>585.9</ele>
        <time>2021-09-19T13:29:42Z</time>
      </trkpt>
      <trkpt lat="43.85408" lon="6.90718">
        <ele>583.9</ele>
        <time>2021-09-19T13:29:44Z</time>
      </trkpt>
      <trkpt lat="43.8541" lon="6.90722">
        <ele>583.1</ele>
        <time>2021-09-19T13:29:46Z</time>
      </trkpt>
      <trkpt lat="43.85412" lon="6.90726">
        <ele>581.9</ele>
        <time>2021-09-19T13:29:48Z</time>
      </trkpt>
      <trkpt lat="43.8541" lon="6.90729">
        <ele>580.8</ele>
        <time>2021-09-19T13:29:50Z</time>
      </trkpt>
      <trkpt lat="43.85407" lon="6.90733">
        <ele>579.6</ele>
        <time>2021-09-19T13:29:52Z</time>
      </trkpt>
      <trkpt lat="43.85404" lon="6.90737">
        <ele>578.4</ele>
        <time>2021-09-19T13:29:54Z</time>
      </trkpt>
      <trkpt lat="43.85401" lon="6.90741">
        <ele>577</ele>
        <time>2021-09-19T13:30:06Z</time>
      </trkpt>
      <trkpt lat="43.85398" lon="6.90745">
        <ele>575.6</ele>
        <time>2021-09-19T13:30:07Z</time>
      </trkpt>
      <trkpt lat="43.85395" lon="6.90752">
        <ele>573.7</ele>
        <time>2021-09-19T13:30:08Z</time>
      </trkpt>
      <trkpt lat="43.85393" lon="6.90762">
        <ele>571.5</ele>
        <time>2021-09-19T13:30:09Z</time>
      </trkpt>
      <trkpt lat="43.85394" lon="6.9077">
        <ele>569.9</ele>
        <time>2021-09-19T13:30:11Z</time>
      </trkpt>
      <trkpt lat="43.85395" lon="6.90777">
        <ele>568.6</ele>
        <time>2021-09-19T13:30:12Z</time>
      </trkpt>
      <trkpt lat="43.85397" lon="6.90789">
        <ele>566.2</ele>
        <time>2021-09-19T13:30:14Z</time>
      </trkpt>
      <trkpt lat="43.854" lon="6.90797">
        <ele>564.5</ele>
        <time>2021-09-19T13:30:16Z</time>
      </trkpt>
      <trkpt lat="43.854" lon="6.908">
        <ele>563.9</ele>
        <time>2021-09-19T13:30:18Z</time>
      </trkpt>
      <trkpt lat="43.854" lon="6.90801">
        <ele>563.7</ele>
        <time>2021-09-19T13:30:19Z</time>
      </trkpt>
      <trkpt lat="43.85401" lon="6.90804">
        <ele>563.1</ele>
        <time>2021-09-19T13:30:21Z</time>
      </trkpt>
      <trkpt lat="43.85402" lon="6.90807">
        <ele>562.5</ele>
        <time>2021-09-19T13:30:23Z</time>
      </trkpt>
      <trkpt lat="43.85403" lon="6.9081">
        <ele>561.8</ele>
        <time>2021-09-19T13:30:25Z</time>
      </trkpt>
      <trkpt lat="43.85403" lon="6.90813">
        <ele>561.2</ele>
        <time>2021-09-19T13:30:26Z</time>
      </trkpt>
      <trkpt lat="43.85404" lon="6.90816">
        <ele>560.5</ele>
        <time>2021-09-19T13:30:27Z</time>
      </trkpt>
      <trkpt lat="43.85404" lon="6.90819">
        <ele>559.8</ele>
        <time>2021-09-19T13:30:29Z</time>
      </trkpt>
      <trkpt lat="43.85405" lon="6.90822">
        <ele>559.1</ele>
        <time>2021-09-19T13:30:31Z</time>
      </trkpt>
      <trkpt lat="43.85405" lon="6.90825">
        <ele>558.4</ele>
        <time>2021-09-19T13:30:33Z</time>
      </trkpt>
      <trkpt lat="43.85406" lon="6.90828">
        <ele>557.7</ele>
        <time>2021-09-19T13:30:34Z</time>
      </trkpt>
      <trkpt lat="43.85407" lon="6.90831">
        <ele>556.9</ele>
        <time>2021-09-19T13:30:36Z</time>
      </trkpt>
      <trkpt lat="43.85407" lon="6.90834">
        <ele>556.2</ele>
        <time>2021-09-19T13:30:38Z</time>
      </trkpt>
      <trkpt lat="43.85408" lon="6.90837">
        <ele>555.5</ele>
        <time>2021-09-19T13:30:40Z</time>
      </trkpt>
      <trkpt lat="43.85408" lon="6.9084">
        <ele>554.7</ele>
        <time>2021-09-19T13:31:04Z</time>
      </trkpt>
      <trkpt lat="43.85409" lon="6.90843">
        <ele>554</ele>
        <time>2021-09-19T13:31:05Z</time>
      </trkpt>
      <trkpt lat="43.85408" lon="6.9086">
        <ele>550.4</ele>
        <time>2021-09-19T13:31:07Z</time>
      </trkpt>
      <trkpt lat="43.85407" lon="6.90869">
        <ele>548.7</ele>
        <time>2021-09-19T13:31:08Z</time>
      </trkpt>
      <trkpt lat="43.85403" lon="6.90884">
        <ele>545.5</ele>
        <time>2021-09-19T13:31:10Z</time>
      </trkpt>
      <trkpt lat="43.85402" lon="6.9089">
        <ele>544.2</ele>
        <time>2021-09-19T13:31:11Z</time>
      </trkpt>
      <trkpt lat="43.854" lon="6.90904">
        <ele>541.6</ele>
        <time>2021-09-19T13:31:13Z</time>
      </trkpt>
      <trkpt lat="43.85398" lon="6.90914">
        <ele>540.1</ele>
        <time>2021-09-19T13:31:14Z</time>
      </trkpt>
      <trkpt lat="43.85396" lon="6.90924">
        <ele>538.5</ele>
        <time>2021-09-19T13:31:15Z</time>
      </trkpt>
      <trkpt lat="43.85393" lon="6.90944">
        <ele>535</ele>
        <time>2021-09-19T13:31:17Z</time>
      </trkpt>
      <trkpt lat="43.85392" lon="6.90953">
        <ele>533.6</ele>
        <time>2021-09-19T13:31:18Z</time>
      </trkpt>
      <trkpt lat="43.85392" lon="6.9096">
        <ele>532.5</ele>
        <time>2021-09-19T13:31:19Z</time>
      </trkpt>
      <trkpt lat="43.85391" lon="6.90967">
        <ele>531.9</ele>
        <time>2021-09-19T13:31:20Z</time>
      </trkpt>
      <trkpt lat="43.8539" lon="6.90977">
        <ele>531.3</ele>
        <time>2021-09-19T13:31:21Z</time>
      </trkpt>
      <trkpt lat="43.85389" lon="6.90983">
        <ele>530.7</ele>
        <time>2021-09-19T13:31:23Z</time>
      </trkpt>
      <trkpt lat="43.85387" lon="6.90992">
        <ele>529.8</ele>
        <time>2021-09-19T13:31:25Z</time>
      </trkpt>
      <trkpt lat="43.85385" lon="6.90998">
        <ele>529.2</ele>
        <time>2021-09-19T13:31:26Z</time>
      </trkpt>
      <trkpt lat="43.85383" lon="6.91006">
        <ele>528.4</ele>
        <time>2021-09-19T13:31:27Z</time>
      </trkpt>
      <trkpt lat="43.85382" lon="6.91014">
        <ele>527.7</ele>
        <time>2021-09-19T13:31:28Z</time>
      </trkpt>
      <trkpt lat="43.85381" lon="6.91018">
        <ele>527.3</ele>
        <time>2021-09-19T13:31:29Z</time>
      </trkpt>
      <trkpt lat="43.85381" lon="6.91026">
        <ele>526.7</ele>
        <time>2021-09-19T13:31:31Z</time>
      </trkpt>
      <trkpt lat="43.85384" lon="6.91033">
        <ele>526</ele>
        <time>2021-09-19T13:31:32Z</time>
      </trkpt>
      <trkpt lat="43.85389" lon="6.91045">
        <ele>525</ele>
        <time>2021-09-19T13:31:34Z</time>
      </trkpt>
      <trkpt lat="43.85393" lon="6.9105">
        <ele>524.5</ele>
        <time>2021-09-19T13:31:35Z</time>
      </trkpt>
      <trkpt lat="43.85396" lon="6.91057">
        <ele>523.8</ele>
        <time>2021-09-19T13:31:37Z</time>
      </trkpt>
      <trkpt lat="43.85399" lon="6.91061">
        <ele>523.4</ele>
        <time>2021-09-19T13:31:38Z</time>
      </trkpt>
      <trkpt lat="43.85402" lon="6.91065">
        <ele>522.9</ele>
        <time>2021-09-19T13:31:40Z</time>
      </trkpt>
      <trkpt lat="43.85406" lon="6.9107">
        <ele>522.3</ele>
        <time>2021-09-19T13:31:41Z</time>
      </trkpt>
      <trkpt lat="43.85409" lon="6.91075">
        <ele>521.5</ele>
        <time>2021-09-19T13:31:42Z</time>
      </trkpt>
      <trkpt lat="43.85413" lon="6.9108">
        <ele>520.6</ele>
        <time>2021-09-19T13:31:43Z</time>
      </trkpt>
      <trkpt lat="43.85416" lon="6.91085">
        <ele>519.6</ele>
        <time>2021-09-19T13:31:44Z</time>
      </trkpt>
      <trkpt lat="43.85419" lon="6.9109">
        <ele>518.7</ele>
        <time>2021-09-19T13:31:46Z</time>
      </trkpt>
      <trkpt lat="43.85423" lon="6.91095">
        <ele>517.7</ele>
        <time>2021-09-19T13:31:48Z</time>
      </trkpt>
      <trkpt lat="43.85426" lon="6.91101">
        <ele>516.8</ele>
        <time>2021-09-19T13:32:14Z</time>
      </trkpt>
      <trkpt lat="43.8543" lon="6.91106">
        <ele>515.9</ele>
        <time>2021-09-19T13:32:16Z</time>
      </trkpt>
      <trkpt lat="43.85432" lon="6.91111">
        <ele>515.1</ele>
        <time>2021-09-19T13:32:17Z</time>
      </trkpt>
      <trkpt lat="43.85435" lon="6.91117">
        <ele>514.1</ele>
        <time>2021-09-19T13:32:18Z</time>
      </trkpt>
      <trkpt lat="43.85438" lon="6.91121">
        <ele>513.3</ele>
        <time>2021-09-19T13:32:19Z</time>
      </trkpt>
      <trkpt lat="43.85442" lon="6.91124">
        <ele>512.5</ele>
        <time>2021-09-19T13:32:21Z</time>
      </trkpt>
      <trkpt lat="43.85445" lon="6.91125">
        <ele>511.8</ele>
        <time>2021-09-19T13:32:22Z</time>
      </trkpt>
      <trkpt lat="43.85448" lon="6.91125">
        <ele>511.4</ele>
        <time>2021-09-19T13:32:23Z</time>
      </trkpt>
      <trkpt lat="43.85448" lon="6.91126">
        <ele>511.2</ele>
        <time>2021-09-19T13:32:24Z</time>
      </trkpt>
      <trkpt lat="43.85448" lon="6.9113">
        <ele>510.6</ele>
        <time>2021-09-19T13:32:25Z</time>
      </trkpt>
      <trkpt lat="43.85446" lon="6.91133">
        <ele>510</ele>
        <time>2021-09-19T13:32:27Z</time>
      </trkpt>
      <trkpt lat="43.85442" lon="6.91135">
        <ele>509.1</ele>
        <time>2021-09-19T13:32:28Z</time>
      </trkpt>
      <trkpt lat="43.8544" lon="6.91139">
        <ele>508.3</ele>
        <time>2021-09-19T13:32:29Z</time>
      </trkpt>
      <trkpt lat="43.85438" lon="6.91142">
        <ele>507.8</ele>
        <time>2021-09-19T13:32:30Z</time>
      </trkpt>
      <trkpt lat="43.85436" lon="6.91146">
        <ele>507</ele>
        <time>2021-09-19T13:32:32Z</time>
      </trkpt>
      <trkpt lat="43.85435" lon="6.9115">
        <ele>506.4</ele>
        <time>2021-09-19T13:32:33Z</time>
      </trkpt>
      <trkpt lat="43.85434" lon="6.91155">
        <ele>505.7</ele>
        <time>2021-09-19T13:32:34Z</time>
      </trkpt>
      <trkpt lat="43.85432" lon="6.91157">
        <ele>505.2</ele>
        <time>2021-09-19T13:32:35Z</time>
      </trkpt>
      <trkpt lat="43.85429" lon="6.91159">
        <ele>504.4</ele>
        <time>2021-09-19T13:32:37Z</time>
      </trkpt>
      <trkpt lat="43.85427" lon="6.91163">
        <ele>503.7</ele>
        <time>2021-09-19T13:32:38Z</time>
      </trkpt>
      <trkpt lat="43.85424" lon="6.91167">
        <ele>502.9</ele>
        <time>2021-09-19T13:32:39Z</time>
      </trkpt>
      <trkpt lat="43.85419" lon="6.91171">
        <ele>501.7</ele>
        <time>2021-09-19T13:32:41Z</time>
      </trkpt>
      <trkpt lat="43.85411" lon="6.91177">
        <ele>499.8</ele>
        <time>2021-09-19T13:32:42Z</time>
      </trkpt>
      <trkpt lat="43.85402" lon="6.91187">
        <ele>497.4</ele>
        <time>2021-09-19T13:32:44Z</time>
      </trkpt>
      <trkpt lat="43.85398" lon="6.91192">
        <ele>496.2</ele>
        <time>2021-09-19T13:32:45Z</time>
      </trkpt>
      <trkpt lat="43.85393" lon="6.91194">
        <ele>495.2</ele>
        <time>2021-09-19T13:32:47Z</time>
      </trkpt>
      <trkpt lat="43.85391" lon="6.91197">
        <ele>494.5</ele>
        <time>2021-09-19T13:32:48Z</time>
      </trkpt>
      <trkpt lat="43.85388" lon="6.91204">
        <ele>493.2</ele>
        <time>2021-09-19T13:32:50Z</time>
      </trkpt>
      <trkpt lat="43.85387" lon="6.9121">
        <ele>492.1</ele>
        <time>2021-09-19T13:32:51Z</time>
      </trkpt>
      <trkpt lat="43.85383" lon="6.9122">
        <ele>490.2</ele>
        <time>2021-09-19T13:32:53Z</time>
      </trkpt>
      <trkpt lat="43.85379" lon="6.91228">
        <ele>488.5</ele>
        <time>2021-09-19T13:32:54Z</time>
      </trkpt>
      <trkpt lat="43.85373" lon="6.91238">
        <ele>486.1</ele>
        <time>2021-09-19T13:32:56Z</time>
      </trkpt>
      <trkpt lat="43.85369" lon="6.91239">
        <ele>485</ele>
        <time>2021-09-19T13:32:57Z</time>
      </trkpt>
      <trkpt lat="43.85368" lon="6.9124">
        <ele>484.5</ele>
        <time>2021-09-19T13:32:58Z</time>
      </trkpt>
      <trkpt lat="43.85363" lon="6.91244">
        <ele>483.3</ele>
        <time>2021-09-19T13:32:59Z</time>
      </trkpt>
      <trkpt lat="43.85357" lon="6.91248">
        <ele>481.8</ele>
        <time>2021-09-19T13:33:00Z</time>
      </trkpt>
      <trkpt lat="43.85353" lon="6.91251">
        <ele>480.6</ele>
        <time>2021-09-19T13:33:01Z</time>
      </trkpt>
      <trkpt lat="43.85349" lon="6.91254">
        <ele>479.4</ele>
        <time>2021-09-19T13:33:03Z</time>
      </trkpt>
      <trkpt lat="43.85346" lon="6.91257">
        <ele>474.4</ele>
        <time>2021-09-19T13:33:04Z</time>
      </trkpt>
      <trkpt lat="43.85344" lon="6.91261">
        <ele>474</ele>
        <time>2021-09-19T13:33:05Z</time>
      </trkpt>
      <trkpt lat="43.85341" lon="6.91264">
        <ele>473.6</ele>
        <time>2021-09-19T13:33:06Z</time>
      </trkpt>
      <trkpt lat="43.85339" lon="6.91269">
        <ele>473</ele>
        <time>2021-09-19T13:33:08Z</time>
      </trkpt>
      <trkpt lat="43.85338" lon="6.91273">
        <ele>472.6</ele>
        <time>2021-09-19T13:33:09Z</time>
      </trkpt>
      <trkpt lat="43.85339" lon="6.91275">
        <ele>472.4</ele>
        <time>2021-09-19T13:33:10Z</time>
      </trkpt>
      <trkpt lat="43.85339" lon="6.91277">
        <ele>472.2</ele>
        <time>2021-09-19T13:33:11Z</time>
      </trkpt>
      <trkpt lat="43.85339" lon="6.9128">
        <ele>471.9</ele>
        <time>2021-09-19T13:33:13Z</time>
      </trkpt>
      <trkpt lat="43.85339" lon="6.91281">
        <ele>471.8</ele>
        <time>2021-09-19T13:33:14Z</time>
      </trkpt>
      <trkpt lat="43.85337" lon="6.9128">
        <ele>471.6</ele>
        <time>2021-09-19T13:33:15Z</time>
      </trkpt>
      <trkpt lat="43.85336" lon="6.9128">
        <ele>471.5</ele>
        <time>2021-09-19T13:33:17Z</time>
      </trkpt>
      <trkpt lat="43.85336" lon="6.9128">
        <ele>471.4</ele>
        <time>2021-09-19T13:33:18Z</time>
      </trkpt>
      <trkpt lat="43.85336" lon="6.9128">
        <ele>471.4</ele>
        <time>2021-09-19T13:33:20Z</time>
      </trkpt>
      <trkpt lat="43.85336" lon="6.9128">
        <ele>471.4</ele>
        <time>2021-09-19T13:33:21Z</time>
      </trkpt>
      <trkpt lat="43.85337" lon="6.9128">
        <ele>471.3</ele>
        <time>2021-09-19T13:33:23Z</time>
      </trkpt>
      <trkpt lat="43.85338" lon="6.91282">
        <ele>471.1</ele>
        <time>2021-09-19T13:33:24Z</time>
      </trkpt>
      <trkpt lat="43.85353" lon="6.91292">
        <ele>469.4</ele>
        <time>2021-09-19T13:33:27Z</time>
      </trkpt>
      <trkpt lat="43.85361" lon="6.91295">
        <ele>468.6</ele>
        <time>2021-09-19T13:33:28Z</time>
      </trkpt>
      <trkpt lat="43.85369" lon="6.91297">
        <ele>467.9</ele>
        <time>2021-09-19T13:33:29Z</time>
      </trkpt>
      <trkpt lat="43.85375" lon="6.91299">
        <ele>467.3</ele>
        <time>2021-09-19T13:33:30Z</time>
      </trkpt>
      <trkpt lat="43.85387" lon="6.91304">
        <ele>466.3</ele>
        <time>2021-09-19T13:33:32Z</time>
      </trkpt>
      <trkpt lat="43.85388" lon="6.91308">
        <ele>465.9</ele>
        <time>2021-09-19T13:33:33Z</time>
      </trkpt>
      <trkpt lat="43.85389" lon="6.91311">
        <ele>465.8</ele>
        <time>2021-09-19T13:33:34Z</time>
      </trkpt>
      <trkpt lat="43.85391" lon="6.91319">
        <ele>465.3</ele>
        <time>2021-09-19T13:33:35Z</time>
      </trkpt>
      <trkpt lat="43.85389" lon="6.91326">
        <ele>464.9</ele>
        <time>2021-09-19T13:33:37Z</time>
      </trkpt>
      <trkpt lat="43.85386" lon="6.91335">
        <ele>464.4</ele>
        <time>2021-09-19T13:33:38Z</time>
      </trkpt>
      <trkpt lat="43.85384" lon="6.91342">
        <ele>464.2</ele>
        <time>2021-09-19T13:33:39Z</time>
      </trkpt>
      <trkpt lat="43.8538" lon="6.91347">
        <ele>464</ele>
        <time>2021-09-19T13:33:41Z</time>
      </trkpt>
      <trkpt lat="43.85377" lon="6.91351">
        <ele>463.9</ele>
        <time>2021-09-19T13:33:42Z</time>
      </trkpt>
      <trkpt lat="43.85374" lon="6.91353">
        <ele>463.8</ele>
        <time>2021-09-19T13:33:43Z</time>
      </trkpt>
      <trkpt lat="43.85372" lon="6.91353">
        <ele>463.7</ele>
        <time>2021-09-19T13:33:44Z</time>
      </trkpt>
      <trkpt lat="43.85371" lon="6.91353">
        <ele>463.6</ele>
        <time>2021-09-19T13:33:45Z</time>
      </trkpt>
      <trkpt lat="43.85369" lon="6.91353">
        <ele>463.5</ele>
        <time>2021-09-19T13:33:46Z</time>
      </trkpt>
      <trkpt lat="43.85367" lon="6.91353">
        <ele>463.5</ele>
        <time>2021-09-19T13:33:48Z</time>
      </trkpt>
      <trkpt lat="43.85366" lon="6.91353">
        <ele>463.5</ele>
        <time>2021-09-19T13:33:49Z</time>
      </trkpt>
      <trkpt lat="43.85366" lon="6.91352">
        <ele>463.5</ele>
        <time>2021-09-19T13:33:50Z</time>
      </trkpt>
      <trkpt lat="43.85367" lon="6.91351">
        <ele>463.5</ele>
        <time>2021-09-19T13:33:51Z</time>
      </trkpt>
      <trkpt lat="43.85367" lon="6.91352">
        <ele>463.5</ele>
        <time>2021-09-19T13:33:53Z</time>
      </trkpt>
      <trkpt lat="43.85367" lon="6.91352">
        <ele>463.5</ele>
        <time>2021-09-19T13:33:54Z</time>
      </trkpt>
      <trkpt lat="43.85367" lon="6.91352">
        <ele>463.5</ele>
        <time>2021-09-19T13:33:55Z</time>
      </trkpt>
      <trkpt lat="43.85367" lon="6.91352">
        <ele>463.5</ele>
        <time>2021-09-19T13:33:56Z</time>
      </trkpt>
      <trkpt lat="43.85366" lon="6.91352">
        <ele>463.5</ele>
        <time>2021-09-19T13:33:58Z</time>
      </trkpt>
      <trkpt lat="43.85366" lon="6.91351">
        <ele>463.5</ele>
        <time>2021-09-19T13:34:00Z</time>
      </trkpt>
      <trkpt lat="43.85368" lon="6.91411">
        <ele>466.8</ele>
        <time>2021-09-19T13:35:46Z</time>
      </trkpt>
      <trkpt lat="43.85366" lon="6.91416">
        <ele>467.2</ele>
        <time>2021-09-19T13:35:47Z</time>
      </trkpt>
      <trkpt lat="43.85364" lon="6.91419">
        <ele>467.5</ele>
        <time>2021-09-19T13:35:49Z</time>
      </trkpt>
      <trkpt lat="43.85363" lon="6.91422">
        <ele>467.7</ele>
        <time>2021-09-19T13:35:50Z</time>
      </trkpt>
      <trkpt lat="43.85362" lon="6.91423">
        <ele>467.9</ele>
        <time>2021-09-19T13:35:51Z</time>
      </trkpt>
      <trkpt lat="43.8536" lon="6.91424">
        <ele>468.1</ele>
        <time>2021-09-19T13:35:52Z</time>
      </trkpt>
      <trkpt lat="43.85359" lon="6.91423">
        <ele>468.1</ele>
        <time>2021-09-19T13:35:53Z</time>
      </trkpt>
      <trkpt lat="43.85358" lon="6.91423">
        <ele>468.2</ele>
        <time>2021-09-19T13:35:55Z</time>
      </trkpt>
      <trkpt lat="43.85358" lon="6.91423">
        <ele>468.3</ele>
        <time>2021-09-19T13:35:56Z</time>
      </trkpt>
      <trkpt lat="43.85356" lon="6.91423">
        <ele>468.5</ele>
        <time>2021-09-19T13:35:57Z</time>
      </trkpt>
      <trkpt lat="43.85355" lon="6.91422">
        <ele>468.6</ele>
        <time>2021-09-19T13:35:59Z</time>
      </trkpt>
      <trkpt lat="43.85355" lon="6.91422">
        <ele>468.6</ele>
        <time>2021-09-19T13:36:00Z</time>
      </trkpt>
      <trkpt lat="43.85354" lon="6.91422">
        <ele>468.7</ele>
        <time>2021-09-19T13:36:01Z</time>
      </trkpt>
      <trkpt lat="43.85354" lon="6.91422">
        <ele>468.8</ele>
        <time>2021-09-19T13:36:02Z</time>
      </trkpt>
      <trkpt lat="43.85353" lon="6.91422">
        <ele>468.8</ele>
        <time>2021-09-19T13:36:03Z</time>
      </trkpt>
      <trkpt lat="43.85353" lon="6.91422">
        <ele>468.8</ele>
        <time>2021-09-19T13:36:05Z</time>
      </trkpt>
      <trkpt lat="43.85353" lon="6.91422">
        <ele>468.9</ele>
        <time>2021-09-19T13:36:06Z</time>
      </trkpt>
      <trkpt lat="43.85352" lon="6.91423">
        <ele>468.9</ele>
        <time>2021-09-19T13:36:07Z</time>
      </trkpt>
      <trkpt lat="43.85346" lon="6.91453">
        <ele>471.2</ele>
        <time>2021-09-19T13:36:23Z</time>
      </trkpt>
      <trkpt lat="43.85345" lon="6.91454">
        <ele>471.3</ele>
        <time>2021-09-19T13:36:24Z</time>
      </trkpt>
      <trkpt lat="43.85344" lon="6.91454">
        <ele>471.4</ele>
        <time>2021-09-19T13:36:25Z</time>
      </trkpt>
      <trkpt lat="43.85344" lon="6.91454">
        <ele>471.4</ele>
        <time>2021-09-19T13:36:27Z</time>
      </trkpt>
      <trkpt lat="43.85344" lon="6.91455">
        <ele>471.5</ele>
        <time>2021-09-19T13:36:28Z</time>
      </trkpt>
      <trkpt lat="43.85343" lon="6.91455">
        <ele>471.5</ele>
        <time>2021-09-19T13:36:29Z</time>
      </trkpt>
      <trkpt lat="43.85343" lon="6.91455">
        <ele>471.5</ele>
        <time>2021-09-19T13:36:31Z</time>
      </trkpt>
      <trkpt lat="43.85343" lon="6.91454">
        <ele>471.5</ele>
        <time>2021-09-19T13:36:32Z</time>
      </trkpt>
      <trkpt lat="43.85343" lon="6.91454">
        <ele>471.6</ele>
        <time>2021-09-19T13:36:34Z</time>
      </trkpt>
      <trkpt lat="43.85343" lon="6.91454">
        <ele>471.6</ele>
        <time>2021-09-19T13:36:35Z</time>
      </trkpt>
      <trkpt lat="43.85344" lon="6.91455">
        <ele>471.6</ele>
        <time>2021-09-19T13:36:37Z</time>
      </trkpt>
      <trkpt lat="43.85345" lon="6.91456">
        <ele>471.8</ele>
        <time>2021-09-19T13:36:38Z</time>
      </trkpt>
      <trkpt lat="43.85346" lon="6.91457">
        <ele>472</ele>
        <time>2021-09-19T13:36:40Z</time>
      </trkpt>
      <trkpt lat="43.85346" lon="6.91457">
        <ele>472</ele>
        <time>2021-09-19T13:36:41Z</time>
      </trkpt>
      <trkpt lat="43.85356" lon="6.91461">
        <ele>473</ele>
        <time>2021-09-19T13:36:43Z</time>
      </trkpt>
      <trkpt lat="43.85361" lon="6.91463">
        <ele>473.5</ele>
        <time>2021-09-19T13:36:44Z</time>
      </trkpt>
      <trkpt lat="43.85365" lon="6.91467">
        <ele>474</ele>
        <time>2021-09-19T13:36:46Z</time>
      </trkpt>
      <trkpt lat="43.85367" lon="6.91471">
        <ele>474.3</ele>
        <time>2021-09-19T13:36:47Z</time>
      </trkpt>
      <trkpt lat="43.85367" lon="6.91471">
        <ele>474.4</ele>
        <time>2021-09-19T13:36:48Z</time>
      </trkpt>
      <trkpt lat="43.85369" lon="6.91475">
        <ele>474.7</ele>
        <time>2021-09-19T13:36:50Z</time>
      </trkpt>
      <trkpt lat="43.85371" lon="6.9148">
        <ele>475.1</ele>
        <time>2021-09-19T13:36:51Z</time>
      </trkpt>
      <trkpt lat="43.85372" lon="6.91482">
        <ele>475.3</ele>
        <time>2021-09-19T13:36:53Z</time>
      </trkpt>
      <trkpt lat="43.85372" lon="6.91484">
        <ele>475.4</ele>
        <time>2021-09-19T13:36:54Z</time>
      </trkpt>
      <trkpt lat="43.85372" lon="6.91486">
        <ele>475.6</ele>
        <time>2021-09-19T13:36:55Z</time>
      </trkpt>
      <trkpt lat="43.85373" lon="6.91488">
        <ele>475.7</ele>
        <time>2021-09-19T13:36:57Z</time>
      </trkpt>
      <trkpt lat="43.85372" lon="6.9149">
        <ele>475.8</ele>
        <time>2021-09-19T13:36:58Z</time>
      </trkpt>
      <trkpt lat="43.85372" lon="6.9149">
        <ele>475.9</ele>
        <time>2021-09-19T13:36:59Z</time>
      </trkpt>
      <trkpt lat="43.85372" lon="6.91492">
        <ele>476</ele>
        <time>2021-09-19T13:37:00Z</time>
      </trkpt>
      <trkpt lat="43.85372" lon="6.91494">
        <ele>476.4</ele>
        <time>2021-09-19T13:37:01Z</time>
      </trkpt>
      <trkpt lat="43.85372" lon="6.91496">
        <ele>477.4</ele>
        <time>2021-09-19T13:37:03Z</time>
      </trkpt>
      <trkpt lat="43.85372" lon="6.91497">
        <ele>477.8</ele>
        <time>2021-09-19T13:37:04Z</time>
      </trkpt>
      <trkpt lat="43.85373" lon="6.91498">
        <ele>478.2</ele>
        <time>2021-09-19T13:37:05Z</time>
      </trkpt>
      <trkpt lat="43.85373" lon="6.91498">
        <ele>478.5</ele>
        <time>2021-09-19T13:37:06Z</time>
      </trkpt>
      <trkpt lat="43.85373" lon="6.91499">
        <ele>478.9</ele>
        <time>2021-09-19T13:37:07Z</time>
      </trkpt>
      <trkpt lat="43.85373" lon="6.91499">
        <ele>479.9</ele>
        <time>2021-09-19T13:37:09Z</time>
      </trkpt>
      <trkpt lat="43.85373" lon="6.915">
        <ele>480.3</ele>
        <time>2021-09-19T13:37:11Z</time>
      </trkpt>
      <trkpt lat="43.85373" lon="6.915">
        <ele>480.7</ele>
        <time>2021-09-19T13:37:12Z</time>
      </trkpt>
      <trkpt lat="43.85373" lon="6.915">
        <ele>481.1</ele>
        <time>2021-09-19T13:37:13Z</time>
      </trkpt>
      <trkpt lat="43.85373" lon="6.91502">
        <ele>481.5</ele>
        <time>2021-09-19T13:37:15Z</time>
      </trkpt>
      <trkpt lat="43.85372" lon="6.91504">
        <ele>482.4</ele>
        <time>2021-09-19T13:37:16Z</time>
      </trkpt>
      <trkpt lat="43.85371" lon="6.91505">
        <ele>481.8</ele>
        <time>2021-09-19T13:37:18Z</time>
      </trkpt>
      <trkpt lat="43.85372" lon="6.91506">
        <ele>483.2</ele>
        <time>2021-09-19T13:37:20Z</time>
      </trkpt>
      <trkpt lat="43.85373" lon="6.91508">
        <ele>483.6</ele>
        <time>2021-09-19T13:37:22Z</time>
      </trkpt>
      <trkpt lat="43.85373" lon="6.91509">
        <ele>484.5</ele>
        <time>2021-09-19T13:37:23Z</time>
      </trkpt>
      <trkpt lat="43.85375" lon="6.91507">
        <ele>485.4</ele>
        <time>2021-09-19T13:37:25Z</time>
      </trkpt>
      <trkpt lat="43.85376" lon="6.91507">
        <ele>485.8</ele>
        <time>2021-09-19T13:37:26Z</time>
      </trkpt>
      <trkpt lat="43.85375" lon="6.91508">
        <ele>486.2</ele>
        <time>2021-09-19T13:37:28Z</time>
      </trkpt>
      <trkpt lat="43.85375" lon="6.91509">
        <ele>487.1</ele>
        <time>2021-09-19T13:37:30Z</time>
      </trkpt>
      <trkpt lat="43.85374" lon="6.91509">
        <ele>486.5</ele>
        <time>2021-09-19T13:37:32Z</time>
      </trkpt>
      <trkpt lat="43.85374" lon="6.9151">
        <ele>486.9</ele>
        <time>2021-09-19T13:37:34Z</time>
      </trkpt>
      <trkpt lat="43.85363" lon="6.91534">
        <ele>486</ele>
        <time>2021-09-19T13:38:00Z</time>
      </trkpt>
      <trkpt lat="43.85362" lon="6.91537">
        <ele>486.4</ele>
        <time>2021-09-19T13:38:02Z</time>
      </trkpt>
      <trkpt lat="43.85362" lon="6.91542">
        <ele>486.9</ele>
        <time>2021-09-19T13:38:04Z</time>
      </trkpt>
      <trkpt lat="43.85362" lon="6.91546">
        <ele>487.2</ele>
        <time>2021-09-19T13:38:05Z</time>
      </trkpt>
      <trkpt lat="43.85363" lon="6.9155">
        <ele>487.6</ele>
        <time>2021-09-19T13:38:07Z</time>
      </trkpt>
      <trkpt lat="43.85363" lon="6.9155">
        <ele>487.6</ele>
        <time>2021-09-19T13:38:08Z</time>
      </trkpt>
      <trkpt lat="43.85363" lon="6.91551">
        <ele>487.7</ele>
        <time>2021-09-19T13:38:09Z</time>
      </trkpt>
      <trkpt lat="43.85363" lon="6.91554">
        <ele>487.9</ele>
        <time>2021-09-19T13:38:10Z</time>
      </trkpt>
      <trkpt lat="43.85364" lon="6.91556">
        <ele>488.1</ele>
        <time>2021-09-19T13:38:12Z</time>
      </trkpt>
      <trkpt lat="43.85364" lon="6.91557">
        <ele>488.3</ele>
        <time>2021-09-19T13:38:13Z</time>
      </trkpt>
      <trkpt lat="43.85364" lon="6.91558">
        <ele>488.3</ele>
        <time>2021-09-19T13:38:14Z</time>
      </trkpt>
      <trkpt lat="43.85365" lon="6.91558">
        <ele>488.4</ele>
        <time>2021-09-19T13:38:15Z</time>
      </trkpt>
      <trkpt lat="43.85365" lon="6.91558">
        <ele>488.4</ele>
        <time>2021-09-19T13:38:17Z</time>
      </trkpt>
      <trkpt lat="43.85365" lon="6.91558">
        <ele>488.4</ele>
        <time>2021-09-19T13:38:18Z</time>
      </trkpt>
      <trkpt lat="43.85365" lon="6.91557">
        <ele>488.5</ele>
        <time>2021-09-19T13:38:19Z</time>
      </trkpt>
      <trkpt lat="43.85365" lon="6.91557">
        <ele>488.5</ele>
        <time>2021-09-19T13:38:21Z</time>
      </trkpt>
      <trkpt lat="43.85366" lon="6.91557">
        <ele>488.5</ele>
        <time>2021-09-19T13:38:22Z</time>
      </trkpt>
      <trkpt lat="43.85366" lon="6.91557">
        <ele>488.5</ele>
        <time>2021-09-19T13:38:23Z</time>
      </trkpt>
      <trkpt lat="43.85366" lon="6.91556">
        <ele>488.6</ele>
        <time>2021-09-19T13:38:24Z</time>
      </trkpt>
      <trkpt lat="43.85366" lon="6.91556">
        <ele>488.6</ele>
        <time>2021-09-19T13:38:25Z</time>
      </trkpt>
      <trkpt lat="43.8549" lon="6.91463">
        <ele>506.6</ele>
        <time>2021-09-19T13:42:14Z</time>
      </trkpt>
      <trkpt lat="43.85491" lon="6.91464">
        <ele>506.8</ele>
        <time>2021-09-19T13:42:16Z</time>
      </trkpt>
      <trkpt lat="43.85492" lon="6.91465">
        <ele>507</ele>
        <time>2021-09-19T13:42:17Z</time>
      </trkpt>
      <trkpt lat="43.85496" lon="6.91468">
        <ele>507.6</ele>
        <time>2021-09-19T13:42:19Z</time>
      </trkpt>
      <trkpt lat="43.85498" lon="6.91469">
        <ele>507.8</ele>
        <time>2021-09-19T13:42:20Z</time>
      </trkpt>
      <trkpt lat="43.85499" lon="6.91471">
        <ele>508</ele>
        <time>2021-09-19T13:42:21Z</time>
      </trkpt>
      <trkpt lat="43.85501" lon="6.91473">
        <ele>508.3</ele>
        <time>2021-09-19T13:42:22Z</time>
      </trkpt>
      <trkpt lat="43.85502" lon="6.91475">
        <ele>508.5</ele>
        <time>2021-09-19T13:42:24Z</time>
      </trkpt>
      <trkpt lat="43.85502" lon="6.91478">
        <ele>508.8</ele>
        <time>2021-09-19T13:42:25Z</time>
      </trkpt>
      <trkpt lat="43.85502" lon="6.91479">
        <ele>508.9</ele>
        <time>2021-09-19T13:42:26Z</time>
      </trkpt>
      <trkpt lat="43.85502" lon="6.91484">
        <ele>509.4</ele>
        <time>2021-09-19T13:42:28Z</time>
      </trkpt>
      <trkpt lat="43.85502" lon="6.91485">
        <ele>509.5</ele>
        <time>2021-09-19T13:42:29Z</time>
      </trkpt>
      <trkpt lat="43.85502" lon="6.91486">
        <ele>509.6</ele>
        <time>2021-09-19T13:42:30Z</time>
      </trkpt>
      <trkpt lat="43.85501" lon="6.91487">
        <ele>509.7</ele>
        <time>2021-09-19T13:42:31Z</time>
      </trkpt>
      <trkpt lat="43.85501" lon="6.91487">
        <ele>509.7</ele>
        <time>2021-09-19T13:42:32Z</time>
      </trkpt>
      <trkpt lat="43.85501" lon="6.91487">
        <ele>509.7</ele>
        <time>2021-09-19T13:42:34Z</time>
      </trkpt>
      <trkpt lat="43.85501" lon="6.91487">
        <ele>509.8</ele>
        <time>2021-09-19T13:42:35Z</time>
      </trkpt>
      <trkpt lat="43.85501" lon="6.91487">
        <ele>509.8</ele>
        <time>2021-09-19T13:42:36Z</time>
      </trkpt>
      <trkpt lat="43.85492" lon="6.91486">
        <ele>510.9</ele>
        <time>2021-09-19T13:42:38Z</time>
      </trkpt>
      <trkpt lat="43.85484" lon="6.91485">
        <ele>512</ele>
        <time>2021-09-19T13:42:39Z</time>
      </trkpt>
      <trkpt lat="43.85475" lon="6.91484">
        <ele>513.1</ele>
        <time>2021-09-19T13:43:38Z</time>
      </trkpt>
      <trkpt lat="43.85466" lon="6.91484">
        <ele>514.2</ele>
        <time>2021-09-19T13:43:39Z</time>
      </trkpt>
      <trkpt lat="43.85466" lon="6.91487">
        <ele>514.5</ele>
        <time>2021-09-19T13:43:40Z</time>
      </trkpt>
      <trkpt lat="43.85465" lon="6.91494">
        <ele>515.1</ele>
        <time>2021-09-19T13:43:42Z</time>
      </trkpt>
      <trkpt lat="43.85464" lon="6.91499">
        <ele>515.6</ele>
        <time>2021-09-19T13:43:43Z</time>
      </trkpt>
      <trkpt lat="43.85462" lon="6.91505">
        <ele>516.3</ele>
        <time>2021-09-19T13:43:45Z</time>
      </trkpt>
      <trkpt lat="43.8546" lon="6.91508">
        <ele>515.3</ele>
        <time>2021-09-19T13:43:46Z</time>
      </trkpt>
      <trkpt lat="43.85457" lon="6.91511">
        <ele>515.8</ele>
        <time>2021-09-19T13:43:47Z</time>
      </trkpt>
      <trkpt lat="43.85457" lon="6.91512">
        <ele>515.6</ele>
        <time>2021-09-19T13:43:48Z</time>
      </trkpt>
      <trkpt lat="43.85456" lon="6.91517">
        <ele>518</ele>
        <time>2021-09-19T13:43:50Z</time>
      </trkpt>
      <trkpt lat="43.85456" lon="6.91518">
        <ele>517.8</ele>
        <time>2021-09-19T13:43:51Z</time>
      </trkpt>
      <trkpt lat="43.85457" lon="6.91518">
        <ele>517.6</ele>
        <time>2021-09-19T13:43:52Z</time>
      </trkpt>
      <trkpt lat="43.85458" lon="6.9152">
        <ele>517.4</ele>
        <time>2021-09-19T13:43:54Z</time>
      </trkpt>
      <trkpt lat="43.85458" lon="6.9152">
        <ele>517.1</ele>
        <time>2021-09-19T13:43:55Z</time>
      </trkpt>
      <trkpt lat="43.85458" lon="6.91524">
        <ele>518.1</ele>
        <time>2021-09-19T13:43:56Z</time>
      </trkpt>
      <trkpt lat="43.85458" lon="6.91526">
        <ele>519.1</ele>
        <time>2021-09-19T13:43:57Z</time>
      </trkpt>
      <trkpt lat="43.85456" lon="6.91532">
        <ele>520</ele>
        <time>2021-09-19T13:43:59Z</time>
      </trkpt>
      <trkpt lat="43.85456" lon="6.91534">
        <ele>519.8</ele>
        <time>2021-09-19T13:44:00Z</time>
      </trkpt>
      <trkpt lat="43.85455" lon="6.91535">
        <ele>519.7</ele>
        <time>2021-09-19T13:44:01Z</time>
      </trkpt>
      <trkpt lat="43.85455" lon="6.91541">
        <ele>520.6</ele>
        <time>2021-09-19T13:44:03Z</time>
      </trkpt>
      <trkpt lat="43.85454" lon="6.91543">
        <ele>521.4</ele>
        <time>2021-09-19T13:44:05Z</time>
      </trkpt>
      <trkpt lat="43.85454" lon="6.91545">
        <ele>521.2</ele>
        <time>2021-09-19T13:44:06Z</time>
      </trkpt>
      <trkpt lat="43.85454" lon="6.91547">
        <ele>522</ele>
        <time>2021-09-19T13:44:07Z</time>
      </trkpt>
      <trkpt lat="43.85452" lon="6.91551">
        <ele>520.7</ele>
        <time>2021-09-19T13:44:09Z</time>
      </trkpt>
      <trkpt lat="43.85451" lon="6.91554">
        <ele>521.6</ele>
        <time>2021-09-19T13:44:10Z</time>
      </trkpt>
      <trkpt lat="43.85449" lon="6.9156">
        <ele>522.2</ele>
        <time>2021-09-19T13:44:12Z</time>
      </trkpt>
      <trkpt lat="43.85447" lon="6.91564">
        <ele>522.9</ele>
        <time>2021-09-19T13:44:13Z</time>
      </trkpt>
      <trkpt lat="43.85446" lon="6.91567">
        <ele>521.3</ele>
        <time>2021-09-19T13:44:15Z</time>
      </trkpt>
      <trkpt lat="43.85446" lon="6.9157">
        <ele>521.9</ele>
        <time>2021-09-19T13:44:16Z</time>
      </trkpt>
      <trkpt lat="43.85446" lon="6.91572">
        <ele>523.1</ele>
        <time>2021-09-19T13:44:17Z</time>
      </trkpt>
      <trkpt lat="43.85447" lon="6.91576">
        <ele>523.7</ele>
        <time>2021-09-19T13:44:19Z</time>
      </trkpt>
      <trkpt lat="43.85449" lon="6.9158">
        <ele>524.3</ele>
        <time>2021-09-19T13:44:20Z</time>
      </trkpt>
      <trkpt lat="43.8545" lon="6.91584">
        <ele>526.2</ele>
        <time>2021-09-19T13:44:22Z</time>
      </trkpt>
      <trkpt lat="43.85451" lon="6.91586">
        <ele>526.8</ele>
        <time>2021-09-19T13:44:23Z</time>
      </trkpt>
      <trkpt lat="43.85451" lon="6.91588">
        <ele>526.6</ele>
        <time>2021-09-19T13:44:25Z</time>
      </trkpt>
      <trkpt lat="43.85452" lon="6.91589">
        <ele>527.7</ele>
        <time>2021-09-19T13:44:26Z</time>
      </trkpt>
      <trkpt lat="43.85455" lon="6.91592">
        <ele>528.3</ele>
        <time>2021-09-19T13:44:28Z</time>
      </trkpt>
      <trkpt lat="43.85455" lon="6.91594">
        <ele>528.1</ele>
        <time>2021-09-19T13:44:29Z</time>
      </trkpt>
      <trkpt lat="43.85455" lon="6.91594">
        <ele>528.7</ele>
        <time>2021-09-19T13:44:31Z</time>
      </trkpt>
      <trkpt lat="43.85455" lon="6.91594">
        <ele>528.5</ele>
        <time>2021-09-19T13:44:32Z</time>
      </trkpt>
      <trkpt lat="43.85455" lon="6.91594">
        <ele>528.3</ele>
        <time>2021-09-19T13:44:33Z</time>
      </trkpt>
      <trkpt lat="43.85455" lon="6.91594">
        <ele>529.3</ele>
        <time>2021-09-19T13:44:34Z</time>
      </trkpt>
      <trkpt lat="43.85456" lon="6.91595">
        <ele>529.1</ele>
        <time>2021-09-19T13:44:35Z</time>
      </trkpt>
      <trkpt lat="43.85456" lon="6.91596">
        <ele>528.9</ele>
        <time>2021-09-19T13:44:37Z</time>
      </trkpt>
      <trkpt lat="43.85456" lon="6.91598">
        <ele>528.7</ele>
        <time>2021-09-19T13:44:38Z</time>
      </trkpt>
      <trkpt lat="43.85456" lon="6.91599">
        <ele>529.3</ele>
        <time>2021-09-19T13:44:39Z</time>
      </trkpt>
      <trkpt lat="43.85457" lon="6.916">
        <ele>529.1</ele>
        <time>2021-09-19T13:44:41Z</time>
      </trkpt>
      <trkpt lat="43.85459" lon="6.91601">
        <ele>529.4</ele>
        <time>2021-09-19T13:44:43Z</time>
      </trkpt>
      <trkpt lat="43.85461" lon="6.91599">
        <ele>529.7</ele>
        <time>2021-09-19T13:44:45Z</time>
      </trkpt>
      <trkpt lat="43.85462" lon="6.91597">
        <ele>529.9</ele>
        <time>2021-09-19T13:44:46Z</time>
      </trkpt>
      <trkpt lat="43.85461" lon="6.91596">
        <ele>530.1</ele>
        <time>2021-09-19T13:44:47Z</time>
      </trkpt>
      <trkpt lat="43.85462" lon="6.91592">
        <ele>530.4</ele>
        <time>2021-09-19T13:44:49Z</time>
      </trkpt>
      <trkpt lat="43.85462" lon="6.91588">
        <ele>530.8</ele>
        <time>2021-09-19T13:44:51Z</time>
      </trkpt>
      <trkpt lat="43.85462" lon="6.91586">
        <ele>531</ele>
        <time>2021-09-19T13:44:52Z</time>
      </trkpt>
      <trkpt lat="43.85461" lon="6.91585">
        <ele>531.1</ele>
        <time>2021-09-19T13:44:53Z</time>
      </trkpt>
      <trkpt lat="43.85461" lon="6.91584">
        <ele>531.2</ele>
        <time>2021-09-19T13:44:54Z</time>
      </trkpt>
      <trkpt lat="43.85461" lon="6.91582">
        <ele>531.4</ele>
        <time>2021-09-19T13:44:55Z</time>
      </trkpt>
      <trkpt lat="43.85461" lon="6.91581">
        <ele>531.5</ele>
        <time>2021-09-19T13:44:56Z</time>
      </trkpt>
      <trkpt lat="43.85462" lon="6.91579">
        <ele>531.7</ele>
        <time>2021-09-19T13:44:58Z</time>
      </trkpt>
      <trkpt lat="43.85462" lon="6.91578">
        <ele>531.8</ele>
        <time>2021-09-19T13:44:59Z</time>
      </trkpt>
      <trkpt lat="43.85462" lon="6.91574">
        <ele>532.2</ele>
        <time>2021-09-19T13:45:00Z</time>
      </trkpt>
      <trkpt lat="43.85463" lon="6.91571">
        <ele>532.5</ele>
        <time>2021-09-19T13:45:02Z</time>
      </trkpt>
      <trkpt lat="43.85463" lon="6.91567">
        <ele>532.8</ele>
        <time>2021-09-19T13:45:04Z</time>
      </trkpt>
      <trkpt lat="43.85462" lon="6.91566">
        <ele>532.9</ele>
        <time>2021-09-19T13:45:05Z</time>
      </trkpt>
      <trkpt lat="43.85462" lon="6.91566">
        <ele>533</ele>
        <time>2021-09-19T13:45:06Z</time>
      </trkpt>
      <trkpt lat="43.85461" lon="6.91565">
        <ele>533.1</ele>
        <time>2021-09-19T13:45:08Z</time>
      </trkpt>
      <trkpt lat="43.85461" lon="6.91563">
        <ele>533.3</ele>
        <time>2021-09-19T13:45:09Z</time>
      </trkpt>
      <trkpt lat="43.85461" lon="6.91561">
        <ele>533.5</ele>
        <time>2021-09-19T13:45:10Z</time>
      </trkpt>
      <trkpt lat="43.85461" lon="6.9156">
        <ele>533.6</ele>
        <time>2021-09-19T13:45:11Z</time>
      </trkpt>
      <trkpt lat="43.85461" lon="6.91559">
        <ele>533.7</ele>
        <time>2021-09-19T13:45:13Z</time>
      </trkpt>
      <trkpt lat="43.85461" lon="6.91559">
        <ele>533.7</ele>
        <time>2021-09-19T13:45:14Z</time>
      </trkpt>
      <trkpt lat="43.85461" lon="6.91558">
        <ele>533.8</ele>
        <time>2021-09-19T13:45:15Z</time>
      </trkpt>
      <trkpt lat="43.85461" lon="6.91558">
        <ele>533.8</ele>
        <time>2021-09-19T13:45:17Z</time>
      </trkpt>
      <trkpt lat="43.8546" lon="6.91558">
        <ele>533.8</ele>
        <time>2021-09-19T13:45:18Z</time>
      </trkpt>
      <trkpt lat="43.8546" lon="6.91558">
        <ele>533.8</ele>
        <time>2021-09-19T13:45:20Z</time>
      </trkpt>
      <trkpt lat="43.85486" lon="6.9153">
        <ele>538</ele>
        <time>2021-09-19T13:45:51Z</time>
      </trkpt>
      <trkpt lat="43.85487" lon="6.91531">
        <ele>538.2</ele>
        <time>2021-09-19T13:45:52Z</time>
      </trkpt>
      <trkpt lat="43.85487" lon="6.91531">
        <ele>538.3</ele>
        <time>2021-09-19T13:45:53Z</time>
      </trkpt>
      <trkpt lat="43.85488" lon="6.91531">
        <ele>538.4</ele>
        <time>2021-09-19T13:45:54Z</time>
      </trkpt>
      <trkpt lat="43.8549" lon="6.91532">
        <ele>538.6</ele>
        <time>2021-09-19T13:45:55Z</time>
      </trkpt>
      <trkpt lat="43.8549" lon="6.91532">
        <ele>538.7</ele>
        <time>2021-09-19T13:45:56Z</time>
      </trkpt>
      <trkpt lat="43.85491" lon="6.91532">
        <ele>538.8</ele>
        <time>2021-09-19T13:45:57Z</time>
      </trkpt>
      <trkpt lat="43.85491" lon="6.91532">
        <ele>538.8</ele>
        <time>2021-09-19T13:45:58Z</time>
      </trkpt>
      <trkpt lat="43.85491" lon="6.91532">
        <ele>538.8</ele>
        <time>2021-09-19T13:46:00Z</time>
      </trkpt>
      <trkpt lat="43.85492" lon="6.91533">
        <ele>538.9</ele>
        <time>2021-09-19T13:46:01Z</time>
      </trkpt>
      <trkpt lat="43.85492" lon="6.91534">
        <ele>539</ele>
        <time>2021-09-19T13:46:02Z</time>
      </trkpt>
      <trkpt lat="43.85493" lon="6.91534">
        <ele>539.1</ele>
        <time>2021-09-19T13:46:03Z</time>
      </trkpt>
      <trkpt lat="43.85493" lon="6.91535">
        <ele>539.2</ele>
        <time>2021-09-19T13:46:04Z</time>
      </trkpt>
      <trkpt lat="43.85496" lon="6.9154">
        <ele>539.8</ele>
        <time>2021-09-19T13:46:07Z</time>
      </trkpt>
      <trkpt lat="43.85498" lon="6.91542">
        <ele>540.1</ele>
        <time>2021-09-19T13:46:08Z</time>
      </trkpt>
      <trkpt lat="43.85499" lon="6.91542">
        <ele>540.2</ele>
        <time>2021-09-19T13:46:10Z</time>
      </trkpt>
      <trkpt lat="43.855" lon="6.91543">
        <ele>540.3</ele>
        <time>2021-09-19T13:46:11Z</time>
      </trkpt>
      <trkpt lat="43.855" lon="6.91544">
        <ele>540.4</ele>
        <time>2021-09-19T13:46:12Z</time>
      </trkpt>
      <trkpt lat="43.855" lon="6.91544">
        <ele>540.4</ele>
        <time>2021-09-19T13:46:14Z</time>
      </trkpt>
      <trkpt lat="43.85501" lon="6.91544">
        <ele>540.5</ele>
        <time>2021-09-19T13:46:15Z</time>
      </trkpt>
      <trkpt lat="43.85501" lon="6.91545">
        <ele>540.5</ele>
        <time>2021-09-19T13:46:16Z</time>
      </trkpt>
      <trkpt lat="43.85501" lon="6.91545">
        <ele>540.6</ele>
        <time>2021-09-19T13:46:17Z</time>
      </trkpt>
      <trkpt lat="43.85501" lon="6.91545">
        <ele>540.7</ele>
        <time>2021-09-19T13:46:18Z</time>
      </trkpt>
      <trkpt lat="43.85502" lon="6.91546">
        <ele>540.8</ele>
        <time>2021-09-19T13:46:19Z</time>
      </trkpt>
      <trkpt lat="43.85504" lon="6.91548">
        <ele>541.1</ele>
        <time>2021-09-19T13:46:21Z</time>
      </trkpt>
      <trkpt lat="43.85506" lon="6.9155">
        <ele>541.4</ele>
        <time>2021-09-19T13:46:22Z</time>
      </trkpt>
      <trkpt lat="43.85507" lon="6.91551">
        <ele>541.6</ele>
        <time>2021-09-19T13:46:23Z</time>
      </trkpt>
      <trkpt lat="43.8551" lon="6.91553">
        <ele>542.1</ele>
        <time>2021-09-19T13:46:25Z</time>
      </trkpt>
      <trkpt lat="43.85513" lon="6.91555">
        <ele>542.4</ele>
        <time>2021-09-19T13:46:26Z</time>
      </trkpt>
      <trkpt lat="43.85514" lon="6.91555">
        <ele>542.6</ele>
        <time>2021-09-19T13:46:27Z</time>
      </trkpt>
      <trkpt lat="43.85517" lon="6.91555">
        <ele>542.9</ele>
        <time>2021-09-19T13:46:29Z</time>
      </trkpt>
      <trkpt lat="43.85518" lon="6.91556">
        <ele>543.1</ele>
        <time>2021-09-19T13:46:30Z</time>
      </trkpt>
      <trkpt lat="43.8552" lon="6.91556">
        <ele>543.3</ele>
        <time>2021-09-19T13:46:32Z</time>
      </trkpt>
      <trkpt lat="43.85521" lon="6.91555">
        <ele>543.5</ele>
        <time>2021-09-19T13:46:33Z</time>
      </trkpt>
      <trkpt lat="43.85523" lon="6.91555">
        <ele>543.8</ele>
        <time>2021-09-19T13:46:34Z</time>
      </trkpt>
      <trkpt lat="43.85526" lon="6.91554">
        <ele>544.1</ele>
        <time>2021-09-19T13:46:35Z</time>
      </trkpt>
      <trkpt lat="43.85529" lon="6.91552">
        <ele>544.6</ele>
        <time>2021-09-19T13:46:37Z</time>
      </trkpt>
      <trkpt lat="43.8553" lon="6.9155">
        <ele>544.8</ele>
        <time>2021-09-19T13:46:38Z</time>
      </trkpt>
      <trkpt lat="43.85532" lon="6.91549">
        <ele>545.1</ele>
        <time>2021-09-19T13:46:40Z</time>
      </trkpt>
      <trkpt lat="43.85534" lon="6.91547">
        <ele>545.4</ele>
        <time>2021-09-19T13:46:41Z</time>
      </trkpt>
      <trkpt lat="43.85538" lon="6.91545">
        <ele>546</ele>
        <time>2021-09-19T13:46:43Z</time>
      </trkpt>
      <trkpt lat="43.8554" lon="6.91545">
        <ele>546.3</ele>
        <time>2021-09-19T13:46:44Z</time>
      </trkpt>
      <trkpt lat="43.85545" lon="6.91546">
        <ele>546.8</ele>
        <time>2021-09-19T13:46:46Z</time>
      </trkpt>
      <trkpt lat="43.8555" lon="6.91546">
        <ele>547.6</ele>
        <time>2021-09-19T13:46:48Z</time>
      </trkpt>
      <trkpt lat="43.85553" lon="6.91545">
        <ele>548</ele>
        <time>2021-09-19T13:46:49Z</time>
      </trkpt>
      <trkpt lat="43.85557" lon="6.91544">
        <ele>548.5</ele>
        <time>2021-09-19T13:46:51Z</time>
      </trkpt>
      <trkpt lat="43.85559" lon="6.91543">
        <ele>548.7</ele>
        <time>2021-09-19T13:46:52Z</time>
      </trkpt>
      <trkpt lat="43.8556" lon="6.91542">
        <ele>548.9</ele>
        <time>2021-09-19T13:46:53Z</time>
      </trkpt>
      <trkpt lat="43.85561" lon="6.9154">
        <ele>549.1</ele>
        <time>2021-09-19T13:46:54Z</time>
      </trkpt>
      <trkpt lat="43.85563" lon="6.91539">
        <ele>549.4</ele>
        <time>2021-09-19T13:46:55Z</time>
      </trkpt>
      <trkpt lat="43.85564" lon="6.91538">
        <ele>549.6</ele>
        <time>2021-09-19T13:46:56Z</time>
      </trkpt>
      <trkpt lat="43.85565" lon="6.91538">
        <ele>549.7</ele>
        <time>2021-09-19T13:46:57Z</time>
      </trkpt>
      <trkpt lat="43.85566" lon="6.91537">
        <ele>549.9</ele>
        <time>2021-09-19T13:46:59Z</time>
      </trkpt>
      <trkpt lat="43.85567" lon="6.91537">
        <ele>550</ele>
        <time>2021-09-19T13:47:00Z</time>
      </trkpt>
      <trkpt lat="43.8557" lon="6.91536">
        <ele>550.4</ele>
        <time>2021-09-19T13:47:02Z</time>
      </trkpt>
      <trkpt lat="43.85575" lon="6.91535">
        <ele>551</ele>
        <time>2021-09-19T13:47:04Z</time>
      </trkpt>
      <trkpt lat="43.85577" lon="6.91531">
        <ele>551.5</ele>
        <time>2021-09-19T13:47:05Z</time>
      </trkpt>
      <trkpt lat="43.85579" lon="6.91528">
        <ele>551.9</ele>
        <time>2021-09-19T13:47:07Z</time>
      </trkpt>
      <trkpt lat="43.85583" lon="6.91526">
        <ele>552.4</ele>
        <time>2021-09-19T13:47:08Z</time>
      </trkpt>
      <trkpt lat="43.85585" lon="6.91524">
        <ele>552.8</ele>
        <time>2021-09-19T13:47:10Z</time>
      </trkpt>
      <trkpt lat="43.85587" lon="6.91522">
        <ele>553</ele>
        <time>2021-09-19T13:47:11Z</time>
      </trkpt>
      <trkpt lat="43.85589" lon="6.91521">
        <ele>553.3</ele>
        <time>2021-09-19T13:47:13Z</time>
      </trkpt>
      <trkpt lat="43.85589" lon="6.91521">
        <ele>553.3</ele>
        <time>2021-09-19T13:47:15Z</time>
      </trkpt>
      <trkpt lat="43.85589" lon="6.91521">
        <ele>553.4</ele>
        <time>2021-09-19T13:47:16Z</time>
      </trkpt>
      <trkpt lat="43.8559" lon="6.91518">
        <ele>553.6</ele>
        <time>2021-09-19T13:47:17Z</time>
      </trkpt>
      <trkpt lat="43.85591" lon="6.91516">
        <ele>553.9</ele>
        <time>2021-09-19T13:47:19Z</time>
      </trkpt>
      <trkpt lat="43.85593" lon="6.91516">
        <ele>553.9</ele>
        <time>2021-09-19T13:47:20Z</time>
      </trkpt>
      <trkpt lat="43.85593" lon="6.91518">
        <ele>554</ele>
        <time>2021-09-19T13:47:21Z</time>
      </trkpt>
      <trkpt lat="43.85594" lon="6.9152">
        <ele>554.1</ele>
        <time>2021-09-19T13:47:23Z</time>
      </trkpt>
      <trkpt lat="43.85594" lon="6.91521">
        <ele>554.2</ele>
        <time>2021-09-19T13:47:24Z</time>
      </trkpt>
      <trkpt lat="43.85594" lon="6.91522">
        <ele>554.3</ele>
        <time>2021-09-19T13:47:26Z</time>
      </trkpt>
      <trkpt lat="43.85593" lon="6.91523">
        <ele>554.5</ele>
        <time>2021-09-19T13:47:28Z</time>
      </trkpt>
      <trkpt lat="43.85592" lon="6.91524">
        <ele>554.6</ele>
        <time>2021-09-19T13:47:29Z</time>
      </trkpt>
      <trkpt lat="43.8559" lon="6.91525">
        <ele>554.8</ele>
        <time>2021-09-19T13:47:31Z</time>
      </trkpt>
      <trkpt lat="43.8558" lon="6.91545">
        <ele>556.9</ele>
        <time>2021-09-19T13:48:11Z</time>
      </trkpt>
      <trkpt lat="43.85577" lon="6.91547">
        <ele>557.3</ele>
        <time>2021-09-19T13:48:13Z</time>
      </trkpt>
      <trkpt lat="43.85575" lon="6.91546">
        <ele>557.6</ele>
        <time>2021-09-19T13:48:14Z</time>
      </trkpt>
      <trkpt lat="43.85574" lon="6.91546">
        <ele>557.7</ele>
        <time>2021-09-19T13:48:15Z</time>
      </trkpt>
      <trkpt lat="43.85574" lon="6.91545">
        <ele>557.8</ele>
        <time>2021-09-19T13:48:16Z</time>
      </trkpt>
      <trkpt lat="43.85572" lon="6.91544">
        <ele>558</ele>
        <time>2021-09-19T13:48:17Z</time>
      </trkpt>
      <trkpt lat="43.8557" lon="6.91544">
        <ele>558.2</ele>
        <time>2021-09-19T13:48:18Z</time>
      </trkpt>
      <trkpt lat="43.85569" lon="6.91543">
        <ele>558.4</ele>
        <time>2021-09-19T13:48:20Z</time>
      </trkpt>
      <trkpt lat="43.85568" lon="6.91543">
        <ele>558.5</ele>
        <time>2021-09-19T13:48:21Z</time>
      </trkpt>
      <trkpt lat="43.85567" lon="6.91542">
        <ele>558.7</ele>
        <time>2021-09-19T13:48:22Z</time>
      </trkpt>
      <trkpt lat="43.85566" lon="6.91542">
        <ele>558.9</ele>
        <time>2021-09-19T13:48:23Z</time>
      </trkpt>
      <trkpt lat="43.85564" lon="6.91542">
        <ele>559</ele>
        <time>2021-09-19T13:48:25Z</time>
      </trkpt>
      <trkpt lat="43.85563" lon="6.91542">
        <ele>559.3</ele>
        <time>2021-09-19T13:48:27Z</time>
      </trkpt>
      <trkpt lat="43.85562" lon="6.91542">
        <ele>559.3</ele>
        <time>2021-09-19T13:48:28Z</time>
      </trkpt>
      <trkpt lat="43.85562" lon="6.91543">
        <ele>559.4</ele>
        <time>2021-09-19T13:48:29Z</time>
      </trkpt>
      <trkpt lat="43.85561" lon="6.91543">
        <ele>559.5</ele>
        <time>2021-09-19T13:48:30Z</time>
      </trkpt>
      <trkpt lat="43.85561" lon="6.91543">
        <ele>559.5</ele>
        <time>2021-09-19T13:48:32Z</time>
      </trkpt>
      <trkpt lat="43.8556" lon="6.91544">
        <ele>559.6</ele>
        <time>2021-09-19T13:48:33Z</time>
      </trkpt>
      <trkpt lat="43.85559" lon="6.91545">
        <ele>559.8</ele>
        <time>2021-09-19T13:48:34Z</time>
      </trkpt>
      <trkpt lat="43.85559" lon="6.91546">
        <ele>559.9</ele>
        <time>2021-09-19T13:48:35Z</time>
      </trkpt>
      <trkpt lat="43.85558" lon="6.91546">
        <ele>560</ele>
        <time>2021-09-19T13:48:36Z</time>
      </trkpt>
      <trkpt lat="43.85557" lon="6.91547">
        <ele>560.2</ele>
        <time>2021-09-19T13:48:38Z</time>
      </trkpt>
      <trkpt lat="43.85556" lon="6.91549">
        <ele>560.3</ele>
        <time>2021-09-19T13:48:39Z</time>
      </trkpt>
      <trkpt lat="43.85555" lon="6.9155">
        <ele>560.5</ele>
        <time>2021-09-19T13:48:41Z</time>
      </trkpt>
      <trkpt lat="43.85554" lon="6.91549">
        <ele>560.6</ele>
        <time>2021-09-19T13:48:42Z</time>
      </trkpt>
      <trkpt lat="43.85553" lon="6.91549">
        <ele>560.6</ele>
        <time>2021-09-19T13:48:43Z</time>
      </trkpt>
      <trkpt lat="43.85552" lon="6.91549">
        <ele>560.7</ele>
        <time>2021-09-19T13:48:45Z</time>
      </trkpt>
      <trkpt lat="43.85551" lon="6.91548">
        <ele>560.8</ele>
        <time>2021-09-19T13:48:46Z</time>
      </trkpt>
      <trkpt lat="43.8555" lon="6.91547">
        <ele>561</ele>
        <time>2021-09-19T13:48:47Z</time>
      </trkpt>
      <trkpt lat="43.85549" lon="6.91546">
        <ele>561.1</ele>
        <time>2021-09-19T13:48:48Z</time>
      </trkpt>
      <trkpt lat="43.85548" lon="6.91546">
        <ele>561.2</ele>
        <time>2021-09-19T13:48:49Z</time>
      </trkpt>
      <trkpt lat="43.85547" lon="6.91546">
        <ele>561.3</ele>
        <time>2021-09-19T13:48:51Z</time>
      </trkpt>
      <trkpt lat="43.85546" lon="6.91546">
        <ele>561.4</ele>
        <time>2021-09-19T13:48:52Z</time>
      </trkpt>
      <trkpt lat="43.85546" lon="6.91545">
        <ele>561.5</ele>
        <time>2021-09-19T13:48:53Z</time>
      </trkpt>
      <trkpt lat="43.85545" lon="6.91545">
        <ele>561.5</ele>
        <time>2021-09-19T13:48:54Z</time>
      </trkpt>
      <trkpt lat="43.85544" lon="6.91545">
        <ele>561.7</ele>
        <time>2021-09-19T13:48:56Z</time>
      </trkpt>
      <trkpt lat="43.85543" lon="6.91545">
        <ele>561.7</ele>
        <time>2021-09-19T13:48:57Z</time>
      </trkpt>
      <trkpt lat="43.85542" lon="6.91546">
        <ele>561.8</ele>
        <time>2021-09-19T13:48:58Z</time>
      </trkpt>
      <trkpt lat="43.85542" lon="6.91546">
        <ele>561.9</ele>
        <time>2021-09-19T13:49:00Z</time>
      </trkpt>
      <trkpt lat="43.85541" lon="6.91546">
        <ele>561.9</ele>
        <time>2021-09-19T13:49:01Z</time>
      </trkpt>
      <trkpt lat="43.85539" lon="6.91548">
        <ele>562.1</ele>
        <time>2021-09-19T13:49:02Z</time>
      </trkpt>
      <trkpt lat="43.85537" lon="6.91549">
        <ele>562.4</ele>
        <time>2021-09-19T13:49:04Z</time>
      </trkpt>
      <trkpt lat="43.85535" lon="6.91552">
        <ele>562.6</ele>
        <time>2021-09-19T13:49:05Z</time>
      </trkpt>
      <trkpt lat="43.85534" lon="6.91553">
        <ele>562.8</ele>
        <time>2021-09-19T13:49:07Z</time>
      </trkpt>
      <trkpt lat="43.85532" lon="6.91555">
        <ele>563.1</ele>
        <time>2021-09-19T13:49:08Z</time>
      </trkpt>
      <trkpt lat="43.85531" lon="6.91556">
        <ele>563.2</ele>
        <time>2021-09-19T13:49:09Z</time>
      </trkpt>
      <trkpt lat="43.85529" lon="6.91557">
        <ele>563.5</ele>
        <time>2021-09-19T13:49:10Z</time>
      </trkpt>
      <trkpt lat="43.85527" lon="6.91559">
        <ele>563.7</ele>
        <time>2021-09-19T13:49:12Z</time>
      </trkpt>
      <trkpt lat="43.85526" lon="6.91562">
        <ele>564</ele>
        <time>2021-09-19T13:49:13Z</time>
      </trkpt>
      <trkpt lat="43.85524" lon="6.91565">
        <ele>564.3</ele>
        <time>2021-09-19T13:49:15Z</time>
      </trkpt>
      <trkpt lat="43.85523" lon="6.91569">
        <ele>564.7</ele>
        <time>2021-09-19T13:49:16Z</time>
      </trkpt>
      <trkpt lat="43.85523" lon="6.9157">
        <ele>564.8</ele>
        <time>2021-09-19T13:49:17Z</time>
      </trkpt>
      <trkpt lat="43.85522" lon="6.91575">
        <ele>565.3</ele>
        <time>2021-09-19T13:49:19Z</time>
      </trkpt>
      <trkpt lat="43.85522" lon="6.91577">
        <ele>565.5</ele>
        <time>2021-09-19T13:49:20Z</time>
      </trkpt>
      <trkpt lat="43.85521" lon="6.9158">
        <ele>565.8</ele>
        <time>2021-09-19T13:49:21Z</time>
      </trkpt>
      <trkpt lat="43.8552" lon="6.91584">
        <ele>566.2</ele>
        <time>2021-09-19T13:49:23Z</time>
      </trkpt>
      <trkpt lat="43.8552" lon="6.91586">
        <ele>566.4</ele>
        <time>2021-09-19T13:49:24Z</time>
      </trkpt>
      <trkpt lat="43.8552" lon="6.91587">
        <ele>566.4</ele>
        <time>2021-09-19T13:49:25Z</time>
      </trkpt>
      <trkpt lat="43.85521" lon="6.91588">
        <ele>566.6</ele>
        <time>2021-09-19T13:49:26Z</time>
      </trkpt>
      <trkpt lat="43.85521" lon="6.91589">
        <ele>566.7</ele>
        <time>2021-09-19T13:49:28Z</time>
      </trkpt>
      <trkpt lat="43.85521" lon="6.9159">
        <ele>566.8</ele>
        <time>2021-09-19T13:49:29Z</time>
      </trkpt>
      <trkpt lat="43.85521" lon="6.91591">
        <ele>566.8</ele>
        <time>2021-09-19T13:49:30Z</time>
      </trkpt>
      <trkpt lat="43.85521" lon="6.91592">
        <ele>567</ele>
        <time>2021-09-19T13:49:31Z</time>
      </trkpt>
      <trkpt lat="43.85519" lon="6.91605">
        <ele>568.2</ele>
        <time>2021-09-19T13:49:33Z</time>
      </trkpt>
      <trkpt lat="43.85517" lon="6.91615">
        <ele>569.3</ele>
        <time>2021-09-19T13:49:49Z</time>
      </trkpt>
      <trkpt lat="43.85515" lon="6.91625">
        <ele>570.3</ele>
        <time>2021-09-19T13:49:51Z</time>
      </trkpt>
      <trkpt lat="43.85513" lon="6.91635">
        <ele>571.3</ele>
        <time>2021-09-19T13:49:52Z</time>
      </trkpt>
      <trkpt lat="43.85513" lon="6.91637">
        <ele>571.5</ele>
        <time>2021-09-19T13:49:53Z</time>
      </trkpt>
      <trkpt lat="43.85512" lon="6.91638">
        <ele>571.6</ele>
        <time>2021-09-19T13:49:54Z</time>
      </trkpt>
      <trkpt lat="43.85512" lon="6.91639">
        <ele>571.7</ele>
        <time>2021-09-19T13:49:56Z</time>
      </trkpt>
      <trkpt lat="43.85512" lon="6.9164">
        <ele>571.8</ele>
        <time>2021-09-19T13:49:57Z</time>
      </trkpt>
      <trkpt lat="43.85513" lon="6.91642">
        <ele>572</ele>
        <time>2021-09-19T13:49:58Z</time>
      </trkpt>
      <trkpt lat="43.85513" lon="6.91644">
        <ele>572.2</ele>
        <time>2021-09-19T13:49:59Z</time>
      </trkpt>
      <trkpt lat="43.85514" lon="6.91646">
        <ele>572.5</ele>
        <time>2021-09-19T13:50:01Z</time>
      </trkpt>
      <trkpt lat="43.85515" lon="6.91648">
        <ele>572.7</ele>
        <time>2021-09-19T13:50:02Z</time>
      </trkpt>
      <trkpt lat="43.85516" lon="6.91649">
        <ele>572.8</ele>
        <time>2021-09-19T13:50:04Z</time>
      </trkpt>
      <trkpt lat="43.85437" lon="6.91944">
        <ele>599.3</ele>
        <time>2021-09-19T13:55:54Z</time>
      </trkpt>
      <trkpt lat="43.85435" lon="6.91945">
        <ele>599.4</ele>
        <time>2021-09-19T13:55:56Z</time>
      </trkpt>
      <trkpt lat="43.85434" lon="6.91945">
        <ele>599.5</ele>
        <time>2021-09-19T13:55:57Z</time>
      </trkpt>
      <trkpt lat="43.85431" lon="6.91949">
        <ele>599.5</ele>
        <time>2021-09-19T13:55:58Z</time>
      </trkpt>
      <trkpt lat="43.8543" lon="6.91952">
        <ele>599.4</ele>
        <time>2021-09-19T13:55:59Z</time>
      </trkpt>
      <trkpt lat="43.85428" lon="6.91962">
        <ele>599.1</ele>
        <time>2021-09-19T13:56:01Z</time>
      </trkpt>
      <trkpt lat="43.85424" lon="6.91974">
        <ele>598.8</ele>
        <time>2021-09-19T13:56:03Z</time>
      </trkpt>
      <trkpt lat="43.85422" lon="6.91981">
        <ele>598.6</ele>
        <time>2021-09-19T13:56:04Z</time>
      </trkpt>
      <trkpt lat="43.8542" lon="6.91988">
        <ele>598.5</ele>
        <time>2021-09-19T13:56:05Z</time>
      </trkpt>
      <trkpt lat="43.85416" lon="6.92006">
        <ele>598</ele>
        <time>2021-09-19T13:56:07Z</time>
      </trkpt>
      <trkpt lat="43.85417" lon="6.9202">
        <ele>597.6</ele>
        <time>2021-09-19T13:56:09Z</time>
      </trkpt>
      <trkpt lat="43.85417" lon="6.92031">
        <ele>597.2</ele>
        <time>2021-09-19T13:56:12Z</time>
      </trkpt>
      <trkpt lat="43.8542" lon="6.92036">
        <ele>597.1</ele>
        <time>2021-09-19T13:56:14Z</time>
      </trkpt>
      <trkpt lat="43.85439" lon="6.92032">
        <ele>596.2</ele>
        <time>2021-09-19T13:56:16Z</time>
      </trkpt>
      <trkpt lat="43.85446" lon="6.9203">
        <ele>595.8</ele>
        <time>2021-09-19T13:56:17Z</time>
      </trkpt>
      <trkpt lat="43.85458" lon="6.92028">
        <ele>595.1</ele>
        <time>2021-09-19T13:56:19Z</time>
      </trkpt>
      <trkpt lat="43.85465" lon="6.92028">
        <ele>594.7</ele>
        <time>2021-09-19T13:56:20Z</time>
      </trkpt>
      <trkpt lat="43.85476" lon="6.9203">
        <ele>594.1</ele>
        <time>2021-09-19T13:56:22Z</time>
      </trkpt>
      <trkpt lat="43.85482" lon="6.92031">
        <ele>593.7</ele>
        <time>2021-09-19T13:56:23Z</time>
      </trkpt>
      <trkpt lat="43.85488" lon="6.92034">
        <ele>593.3</ele>
        <time>2021-09-19T13:56:24Z</time>
      </trkpt>
      <trkpt lat="43.85502" lon="6.92046">
        <ele>592.4</ele>
        <time>2021-09-19T13:56:26Z</time>
      </trkpt>
      <trkpt lat="43.85515" lon="6.92059">
        <ele>591.5</ele>
        <time>2021-09-19T13:56:28Z</time>
      </trkpt>
      <trkpt lat="43.85529" lon="6.92071">
        <ele>590.6</ele>
        <time>2021-09-19T13:56:30Z</time>
      </trkpt>
      <trkpt lat="43.85537" lon="6.92076">
        <ele>590.2</ele>
        <time>2021-09-19T13:56:31Z</time>
      </trkpt>
      <trkpt lat="43.85553" lon="6.92089">
        <ele>589.3</ele>
        <time>2021-09-19T13:56:33Z</time>
      </trkpt>
      <trkpt lat="43.8556" lon="6.92095">
        <ele>588.9</ele>
        <time>2021-09-19T13:56:34Z</time>
      </trkpt>
      <trkpt lat="43.85565" lon="6.92103">
        <ele>588.5</ele>
        <time>2021-09-19T13:56:35Z</time>
      </trkpt>
      <trkpt lat="43.85572" lon="6.92109">
        <ele>588.1</ele>
        <time>2021-09-19T13:56:36Z</time>
      </trkpt>
      <trkpt lat="43.85585" lon="6.9212">
        <ele>587.4</ele>
        <time>2021-09-19T13:56:38Z</time>
      </trkpt>
      <trkpt lat="43.85596" lon="6.92133">
        <ele>586.7</ele>
        <time>2021-09-19T13:56:40Z</time>
      </trkpt>
      <trkpt lat="43.85599" lon="6.92139">
        <ele>586.4</ele>
        <time>2021-09-19T13:56:41Z</time>
      </trkpt>
      <trkpt lat="43.85605" lon="6.92154">
        <ele>585.8</ele>
        <time>2021-09-19T13:56:43Z</time>
      </trkpt>
      <trkpt lat="43.85607" lon="6.92164">
        <ele>585.4</ele>
        <time>2021-09-19T13:56:44Z</time>
      </trkpt>
      <trkpt lat="43.85606" lon="6.92193">
        <ele>584.3</ele>
        <time>2021-09-19T13:56:46Z</time>
      </trkpt>
      <trkpt lat="43.85599" lon="6.92215">
        <ele>583.4</ele>
        <time>2021-09-19T13:56:48Z</time>
      </trkpt>
      <trkpt lat="43.85589" lon="6.92232">
        <ele>582.5</ele>
        <time>2021-09-19T13:56:50Z</time>
      </trkpt>
      <trkpt lat="43.85576" lon="6.92248">
        <ele>581.6</ele>
        <time>2021-09-19T13:56:52Z</time>
      </trkpt>
      <trkpt lat="43.85563" lon="6.9226">
        <ele>580.8</ele>
        <time>2021-09-19T13:56:54Z</time>
      </trkpt>
      <trkpt lat="43.85557" lon="6.92265">
        <ele>580.4</ele>
        <time>2021-09-19T13:56:55Z</time>
      </trkpt>
      <trkpt lat="43.85551" lon="6.9227">
        <ele>580</ele>
        <time>2021-09-19T13:56:56Z</time>
      </trkpt>
      <trkpt lat="43.8554" lon="6.9228">
        <ele>579.4</ele>
        <time>2021-09-19T13:56:58Z</time>
      </trkpt>
      <trkpt lat="43.85532" lon="6.92292">
        <ele>578.8</ele>
        <time>2021-09-19T13:57:00Z</time>
      </trkpt>
      <trkpt lat="43.85529" lon="6.92299">
        <ele>578.6</ele>
        <time>2021-09-19T13:57:01Z</time>
      </trkpt>
      <trkpt lat="43.85524" lon="6.92308">
        <ele>578.2</ele>
        <time>2021-09-19T13:57:03Z</time>
      </trkpt>
      <trkpt lat="43.85521" lon="6.92313">
        <ele>578.4</ele>
        <time>2021-09-19T13:57:04Z</time>
      </trkpt>
      <trkpt lat="43.85518" lon="6.92315">
        <ele>578.6</ele>
        <time>2021-09-19T13:57:05Z</time>
      </trkpt>
      <trkpt lat="43.85515" lon="6.92319">
        <ele>578.8</ele>
        <time>2021-09-19T13:57:06Z</time>
      </trkpt>
      <trkpt lat="43.85512" lon="6.92323">
        <ele>579</ele>
        <time>2021-09-19T13:57:08Z</time>
      </trkpt>
      <trkpt lat="43.85511" lon="6.92323">
        <ele>579</ele>
        <time>2021-09-19T13:57:09Z</time>
      </trkpt>
      <trkpt lat="43.85508" lon="6.92325">
        <ele>579.2</ele>
        <time>2021-09-19T13:57:11Z</time>
      </trkpt>
      <trkpt lat="43.85506" lon="6.92329">
        <ele>579.5</ele>
        <time>2021-09-19T13:57:12Z</time>
      </trkpt>
      <trkpt lat="43.85506" lon="6.92331">
        <ele>579.5</ele>
        <time>2021-09-19T13:57:13Z</time>
      </trkpt>
      <trkpt lat="43.85506" lon="6.92332">
        <ele>579.6</ele>
        <time>2021-09-19T13:57:15Z</time>
      </trkpt>
      <trkpt lat="43.85505" lon="6.92334">
        <ele>579.7</ele>
        <time>2021-09-19T13:57:16Z</time>
      </trkpt>
      <trkpt lat="43.85504" lon="6.92337">
        <ele>579.9</ele>
        <time>2021-09-19T13:57:17Z</time>
      </trkpt>
      <trkpt lat="43.85502" lon="6.92343">
        <ele>580.3</ele>
        <time>2021-09-19T13:57:18Z</time>
      </trkpt>
      <trkpt lat="43.85499" lon="6.92349">
        <ele>580.7</ele>
        <time>2021-09-19T13:57:20Z</time>
      </trkpt>
      <trkpt lat="43.85497" lon="6.92354">
        <ele>581.1</ele>
        <time>2021-09-19T13:57:22Z</time>
      </trkpt>
      <trkpt lat="43.85495" lon="6.9236">
        <ele>581.5</ele>
        <time>2021-09-19T13:57:23Z</time>
      </trkpt>
      <trkpt lat="43.85492" lon="6.92365">
        <ele>581.9</ele>
        <time>2021-09-19T13:57:24Z</time>
      </trkpt>
      <trkpt lat="43.8549" lon="6.92371">
        <ele>582.3</ele>
        <time>2021-09-19T13:57:25Z</time>
      </trkpt>
      <trkpt lat="43.85488" lon="6.92376">
        <ele>582.6</ele>
        <time>2021-09-19T13:57:27Z</time>
      </trkpt>
      <trkpt lat="43.85485" lon="6.92382">
        <ele>583</ele>
        <time>2021-09-19T13:57:53Z</time>
      </trkpt>
      <trkpt lat="43.85483" lon="6.92387">
        <ele>583.3</ele>
        <time>2021-09-19T13:57:54Z</time>
      </trkpt>
      <trkpt lat="43.85479" lon="6.92392">
        <ele>583.5</ele>
        <time>2021-09-19T13:57:56Z</time>
      </trkpt>
      <trkpt lat="43.85473" lon="6.92395">
        <ele>583.8</ele>
        <time>2021-09-19T13:57:58Z</time>
      </trkpt>
      <trkpt lat="43.8547" lon="6.92394">
        <ele>583.9</ele>
        <time>2021-09-19T13:57:59Z</time>
      </trkpt>
      <trkpt lat="43.85467" lon="6.92393">
        <ele>584</ele>
        <time>2021-09-19T13:58:00Z</time>
      </trkpt>
      <trkpt lat="43.85466" lon="6.92393">
        <ele>584</ele>
        <time>2021-09-19T13:58:01Z</time>
      </trkpt>
      <trkpt lat="43.85466" lon="6.92394">
        <ele>584</ele>
        <time>2021-09-19T13:58:03Z</time>
      </trkpt>
      <trkpt lat="43.85466" lon="6.92394">
        <ele>584.1</ele>
        <time>2021-09-19T13:58:05Z</time>
      </trkpt>
      <trkpt lat="43.85467" lon="6.92395">
        <ele>584.1</ele>
        <time>2021-09-19T13:58:06Z</time>
      </trkpt>
      <trkpt lat="43.85467" lon="6.92396">
        <ele>584.1</ele>
        <time>2021-09-19T13:58:08Z</time>
      </trkpt>
      <trkpt lat="43.85466" lon="6.92396">
        <ele>584.1</ele>
        <time>2021-09-19T13:58:09Z</time>
      </trkpt>
      <trkpt lat="43.85466" lon="6.92396">
        <ele>584.1</ele>
        <time>2021-09-19T13:58:10Z</time>
      </trkpt>
      <trkpt lat="43.85463" lon="6.92447">
        <ele>586.5</ele>
        <time>2021-09-19T13:58:27Z</time>
      </trkpt>
      <trkpt lat="43.85462" lon="6.9245">
        <ele>586.5</ele>
        <time>2021-09-19T13:58:28Z</time>
      </trkpt>
      <trkpt lat="43.85461" lon="6.92451">
        <ele>586.6</ele>
        <time>2021-09-19T13:58:29Z</time>
      </trkpt>
      <trkpt lat="43.85459" lon="6.92454">
        <ele>586.6</ele>
        <time>2021-09-19T13:58:31Z</time>
      </trkpt>
      <trkpt lat="43.85458" lon="6.92455">
        <ele>586.7</ele>
        <time>2021-09-19T13:58:32Z</time>
      </trkpt>
      <trkpt lat="43.85457" lon="6.92456">
        <ele>586.7</ele>
        <time>2021-09-19T13:58:33Z</time>
      </trkpt>
      <trkpt lat="43.85456" lon="6.92458">
        <ele>586.7</ele>
        <time>2021-09-19T13:58:35Z</time>
      </trkpt>
      <trkpt lat="43.85455" lon="6.92459">
        <ele>586.8</ele>
        <time>2021-09-19T13:58:36Z</time>
      </trkpt>
      <trkpt lat="43.85454" lon="6.9246">
        <ele>586.8</ele>
        <time>2021-09-19T13:58:37Z</time>
      </trkpt>
      <trkpt lat="43.85453" lon="6.92463">
        <ele>586.8</ele>
        <time>2021-09-19T13:58:39Z</time>
      </trkpt>
      <trkpt lat="43.85452" lon="6.92465">
        <ele>586.9</ele>
        <time>2021-09-19T13:58:40Z</time>
      </trkpt>
      <trkpt lat="43.85452" lon="6.92467">
        <ele>586.9</ele>
        <time>2021-09-19T13:58:41Z</time>
      </trkpt>
      <trkpt lat="43.85452" lon="6.9247">
        <ele>587</ele>
        <time>2021-09-19T13:58:43Z</time>
      </trkpt>
      <trkpt lat="43.85453" lon="6.92476">
        <ele>587.2</ele>
        <time>2021-09-19T13:58:45Z</time>
      </trkpt>
      <trkpt lat="43.85453" lon="6.9248">
        <ele>587.4</ele>
        <time>2021-09-19T13:58:47Z</time>
      </trkpt>
      <trkpt lat="43.85454" lon="6.92482">
        <ele>587.4</ele>
        <time>2021-09-19T13:58:48Z</time>
      </trkpt>
      <trkpt lat="43.85455" lon="6.92483">
        <ele>587.5</ele>
        <time>2021-09-19T13:58:50Z</time>
      </trkpt>
      <trkpt lat="43.85456" lon="6.92484">
        <ele>587.6</ele>
        <time>2021-09-19T13:58:52Z</time>
      </trkpt>
      <trkpt lat="43.85458" lon="6.92483">
        <ele>587.8</ele>
        <time>2021-09-19T13:58:54Z</time>
      </trkpt>
      <trkpt lat="43.8546" lon="6.92482">
        <ele>588</ele>
        <time>2021-09-19T13:58:56Z</time>
      </trkpt>
      <trkpt lat="43.85461" lon="6.92482">
        <ele>588</ele>
        <time>2021-09-19T13:58:57Z</time>
      </trkpt>
      <trkpt lat="43.85463" lon="6.92482">
        <ele>588.2</ele>
        <time>2021-09-19T13:58:59Z</time>
      </trkpt>
      <trkpt lat="43.85464" lon="6.92482">
        <ele>588.3</ele>
        <time>2021-09-19T13:59:00Z</time>
      </trkpt>
      <trkpt lat="43.85465" lon="6.92482">
        <ele>588.4</ele>
        <time>2021-09-19T13:59:02Z</time>
      </trkpt>
      <trkpt lat="43.85465" lon="6.92482">
        <ele>588.4</ele>
        <time>2021-09-19T13:59:03Z</time>
      </trkpt>
      <trkpt lat="43.85465" lon="6.92483">
        <ele>588.5</ele>
        <time>2021-09-19T13:59:04Z</time>
      </trkpt>
      <trkpt lat="43.85464" lon="6.92485">
        <ele>588.7</ele>
        <time>2021-09-19T13:59:05Z</time>
      </trkpt>
      <trkpt lat="43.85464" lon="6.92487">
        <ele>588.7</ele>
        <time>2021-09-19T13:59:07Z</time>
      </trkpt>
      <trkpt lat="43.85463" lon="6.92489">
        <ele>588.9</ele>
        <time>2021-09-19T13:59:08Z</time>
      </trkpt>
      <trkpt lat="43.85463" lon="6.92505">
        <ele>589.1</ele>
        <time>2021-09-19T13:59:10Z</time>
      </trkpt>
      <trkpt lat="43.85464" lon="6.92514">
        <ele>588.6</ele>
        <time>2021-09-19T13:59:11Z</time>
      </trkpt>
      <trkpt lat="43.85466" lon="6.92518">
        <ele>588.2</ele>
        <time>2021-09-19T13:59:13Z</time>
      </trkpt>
      <trkpt lat="43.85469" lon="6.92522">
        <ele>587.9</ele>
        <time>2021-09-19T13:59:14Z</time>
      </trkpt>
      <trkpt lat="43.85473" lon="6.92528">
        <ele>587.6</ele>
        <time>2021-09-19T13:59:15Z</time>
      </trkpt>
      <trkpt lat="43.85479" lon="6.92541">
        <ele>587.1</ele>
        <time>2021-09-19T13:59:16Z</time>
      </trkpt>
      <trkpt lat="43.85484" lon="6.92558">
        <ele>586.5</ele>
        <time>2021-09-19T13:59:18Z</time>
      </trkpt>
      <trkpt lat="43.85488" lon="6.92573">
        <ele>585.8</ele>
        <time>2021-09-19T13:59:20Z</time>
      </trkpt>
      <trkpt lat="43.85492" lon="6.92584">
        <ele>585.3</ele>
        <time>2021-09-19T13:59:22Z</time>
      </trkpt>
      <trkpt lat="43.85494" lon="6.9259">
        <ele>585</ele>
        <time>2021-09-19T13:59:23Z</time>
      </trkpt>
      <trkpt lat="43.85495" lon="6.92596">
        <ele>584.8</ele>
        <time>2021-09-19T13:59:24Z</time>
      </trkpt>
      <trkpt lat="43.85493" lon="6.92599">
        <ele>584.6</ele>
        <time>2021-09-19T13:59:25Z</time>
      </trkpt>
      <trkpt lat="43.85494" lon="6.92604">
        <ele>584.4</ele>
        <time>2021-09-19T13:59:27Z</time>
      </trkpt>
      <trkpt lat="43.85495" lon="6.9261">
        <ele>584.3</ele>
        <time>2021-09-19T13:59:28Z</time>
      </trkpt>
      <trkpt lat="43.85496" lon="6.92615">
        <ele>584.2</ele>
        <time>2021-09-19T13:59:30Z</time>
      </trkpt>
      <trkpt lat="43.85493" lon="6.92618">
        <ele>584.2</ele>
        <time>2021-09-19T13:59:31Z</time>
      </trkpt>
      <trkpt lat="43.85493" lon="6.9262">
        <ele>584.2</ele>
        <time>2021-09-19T13:59:32Z</time>
      </trkpt>
      <trkpt lat="43.8549" lon="6.92624">
        <ele>584.2</ele>
        <time>2021-09-19T13:59:34Z</time>
      </trkpt>
      <trkpt lat="43.85481" lon="6.92627">
        <ele>584.5</ele>
        <time>2021-09-19T13:59:36Z</time>
      </trkpt>
      <trkpt lat="43.85476" lon="6.9263">
        <ele>584.7</ele>
        <time>2021-09-19T13:59:37Z</time>
      </trkpt>
      <trkpt lat="43.85468" lon="6.92634">
        <ele>585.4</ele>
        <time>2021-09-19T13:59:39Z</time>
      </trkpt>
      <trkpt lat="43.85463" lon="6.92635">
        <ele>585.9</ele>
        <time>2021-09-19T13:59:40Z</time>
      </trkpt>
      <trkpt lat="43.85456" lon="6.92635">
        <ele>586.7</ele>
        <time>2021-09-19T13:59:42Z</time>
      </trkpt>
      <trkpt lat="43.85455" lon="6.92635">
        <ele>586.8</ele>
        <time>2021-09-19T13:59:44Z</time>
      </trkpt>
      <trkpt lat="43.85456" lon="6.92635">
        <ele>586.9</ele>
        <time>2021-09-19T13:59:45Z</time>
      </trkpt>
      <trkpt lat="43.85456" lon="6.92637">
        <ele>587.1</ele>
        <time>2021-09-19T13:59:46Z</time>
      </trkpt>
      <trkpt lat="43.85457" lon="6.92637">
        <ele>587.2</ele>
        <time>2021-09-19T13:59:48Z</time>
      </trkpt>
      <trkpt lat="43.85458" lon="6.92638">
        <ele>587.3</ele>
        <time>2021-09-19T13:59:49Z</time>
      </trkpt>
      <trkpt lat="43.85458" lon="6.92639">
        <ele>587.4</ele>
        <time>2021-09-19T13:59:51Z</time>
      </trkpt>
      <trkpt lat="43.85458" lon="6.9264">
        <ele>587.4</ele>
        <time>2021-09-19T13:59:52Z</time>
      </trkpt>
      <trkpt lat="43.85467" lon="6.92675">
        <ele>590.2</ele>
        <time>2021-09-19T14:00:04Z</time>
      </trkpt>
      <trkpt lat="43.85471" lon="6.92683">
        <ele>590.7</ele>
        <time>2021-09-19T14:00:05Z</time>
      </trkpt>
      <trkpt lat="43.85472" lon="6.92689">
        <ele>591</ele>
        <time>2021-09-19T14:00:07Z</time>
      </trkpt>
      <trkpt lat="43.85473" lon="6.92694">
        <ele>591.3</ele>
        <time>2021-09-19T14:00:08Z</time>
      </trkpt>
      <trkpt lat="43.85473" lon="6.92698">
        <ele>591.5</ele>
        <time>2021-09-19T14:00:09Z</time>
      </trkpt>
      <trkpt lat="43.85472" lon="6.92704">
        <ele>591.7</ele>
        <time>2021-09-19T14:00:10Z</time>
      </trkpt>
      <trkpt lat="43.85472" lon="6.92707">
        <ele>591.9</ele>
        <time>2021-09-19T14:00:11Z</time>
      </trkpt>
      <trkpt lat="43.85469" lon="6.92713">
        <ele>592.3</ele>
        <time>2021-09-19T14:00:13Z</time>
      </trkpt>
      <trkpt lat="43.85468" lon="6.92715">
        <ele>592.4</ele>
        <time>2021-09-19T14:00:14Z</time>
      </trkpt>
      <trkpt lat="43.85468" lon="6.92716">
        <ele>592.5</ele>
        <time>2021-09-19T14:00:15Z</time>
      </trkpt>
      <trkpt lat="43.85468" lon="6.92716">
        <ele>592.5</ele>
        <time>2021-09-19T14:00:17Z</time>
      </trkpt>
      <trkpt lat="43.85469" lon="6.9272">
        <ele>592.8</ele>
        <time>2021-09-19T14:00:19Z</time>
      </trkpt>
      <trkpt lat="43.85468" lon="6.92725">
        <ele>593.1</ele>
        <time>2021-09-19T14:00:21Z</time>
      </trkpt>
      <trkpt lat="43.85504" lon="6.92765">
        <ele>597</ele>
        <time>2021-09-19T14:01:29Z</time>
      </trkpt>
      <trkpt lat="43.8551" lon="6.92766">
        <ele>597</ele>
        <time>2021-09-19T14:01:31Z</time>
      </trkpt>
      <trkpt lat="43.85516" lon="6.92767">
        <ele>596.9</ele>
        <time>2021-09-19T14:01:32Z</time>
      </trkpt>
      <trkpt lat="43.8552" lon="6.92766">
        <ele>596.8</ele>
        <time>2021-09-19T14:01:34Z</time>
      </trkpt>
      <trkpt lat="43.85524" lon="6.92765">
        <ele>596.8</ele>
        <time>2021-09-19T14:01:35Z</time>
      </trkpt>
      <trkpt lat="43.85527" lon="6.92763">
        <ele>596.7</ele>
        <time>2021-09-19T14:01:36Z</time>
      </trkpt>
      <trkpt lat="43.85531" lon="6.92762">
        <ele>596.6</ele>
        <time>2021-09-19T14:01:38Z</time>
      </trkpt>
      <trkpt lat="43.85534" lon="6.9276">
        <ele>596.5</ele>
        <time>2021-09-19T14:01:39Z</time>
      </trkpt>
      <trkpt lat="43.85539" lon="6.92755">
        <ele>596.3</ele>
        <time>2021-09-19T14:01:40Z</time>
      </trkpt>
      <trkpt lat="43.85542" lon="6.92751">
        <ele>596.2</ele>
        <time>2021-09-19T14:01:41Z</time>
      </trkpt>
      <trkpt lat="43.85546" lon="6.92748">
        <ele>596.1</ele>
        <time>2021-09-19T14:01:43Z</time>
      </trkpt>
      <trkpt lat="43.85549" lon="6.92746">
        <ele>596.1</ele>
        <time>2021-09-19T14:01:44Z</time>
      </trkpt>
      <trkpt lat="43.85552" lon="6.92745">
        <ele>596</ele>
        <time>2021-09-19T14:01:45Z</time>
      </trkpt>
      <trkpt lat="43.85556" lon="6.92744">
        <ele>596</ele>
        <time>2021-09-19T14:01:46Z</time>
      </trkpt>
      <trkpt lat="43.85561" lon="6.92746">
        <ele>595.9</ele>
        <time>2021-09-19T14:01:48Z</time>
      </trkpt>
      <trkpt lat="43.85565" lon="6.92747">
        <ele>595.8</ele>
        <time>2021-09-19T14:01:49Z</time>
      </trkpt>
      <trkpt lat="43.85568" lon="6.92748">
        <ele>595.8</ele>
        <time>2021-09-19T14:01:50Z</time>
      </trkpt>
      <trkpt lat="43.85573" lon="6.9275">
        <ele>595.8</ele>
        <time>2021-09-19T14:01:52Z</time>
      </trkpt>
      <trkpt lat="43.85578" lon="6.92753">
        <ele>595.7</ele>
        <time>2021-09-19T14:01:54Z</time>
      </trkpt>
      <trkpt lat="43.85582" lon="6.92754">
        <ele>595.7</ele>
        <time>2021-09-19T14:01:55Z</time>
      </trkpt>
      <trkpt lat="43.85583" lon="6.92754">
        <ele>595.6</ele>
        <time>2021-09-19T14:01:56Z</time>
      </trkpt>
      <trkpt lat="43.85587" lon="6.92756">
        <ele>595.6</ele>
        <time>2021-09-19T14:01:58Z</time>
      </trkpt>
      <trkpt lat="43.85589" lon="6.92758">
        <ele>595.5</ele>
        <time>2021-09-19T14:01:59Z</time>
      </trkpt>
      <trkpt lat="43.85592" lon="6.92761">
        <ele>595.4</ele>
        <time>2021-09-19T14:02:00Z</time>
      </trkpt>
      <trkpt lat="43.85596" lon="6.92765">
        <ele>595.2</ele>
        <time>2021-09-19T14:02:02Z</time>
      </trkpt>
      <trkpt lat="43.85598" lon="6.9277">
        <ele>595</ele>
        <time>2021-09-19T14:02:03Z</time>
      </trkpt>
      <trkpt lat="43.856" lon="6.92776">
        <ele>594.7</ele>
        <time>2021-09-19T14:02:04Z</time>
      </trkpt>
      <trkpt lat="43.85603" lon="6.92781">
        <ele>594.5</ele>
        <time>2021-09-19T14:02:05Z</time>
      </trkpt>
      <trkpt lat="43.85609" lon="6.92793">
        <ele>593.9</ele>
        <time>2021-09-19T14:02:07Z</time>
      </trkpt>
      <trkpt lat="43.85618" lon="6.92805">
        <ele>593.3</ele>
        <time>2021-09-19T14:02:09Z</time>
      </trkpt>
      <trkpt lat="43.85622" lon="6.92809">
        <ele>592.9</ele>
        <time>2021-09-19T14:02:10Z</time>
      </trkpt>
      <trkpt lat="43.85626" lon="6.92812">
        <ele>592.4</ele>
        <time>2021-09-19T14:02:11Z</time>
      </trkpt>
      <trkpt lat="43.85632" lon="6.92817">
        <ele>591.5</ele>
        <time>2021-09-19T14:02:13Z</time>
      </trkpt>
      <trkpt lat="43.85636" lon="6.92821">
        <ele>590.8</ele>
        <time>2021-09-19T14:02:14Z</time>
      </trkpt>
      <trkpt lat="43.8564" lon="6.92825">
        <ele>590.2</ele>
        <time>2021-09-19T14:02:15Z</time>
      </trkpt>
      <trkpt lat="43.85642" lon="6.92828">
        <ele>589.6</ele>
        <time>2021-09-19T14:02:16Z</time>
      </trkpt>
      <trkpt lat="43.85646" lon="6.92831">
        <ele>588.9</ele>
        <time>2021-09-19T14:02:18Z</time>
      </trkpt>
      <trkpt lat="43.85652" lon="6.92836">
        <ele>587.9</ele>
        <time>2021-09-19T14:02:19Z</time>
      </trkpt>
      <trkpt lat="43.85655" lon="6.92835">
        <ele>587.4</ele>
        <time>2021-09-19T14:02:20Z</time>
      </trkpt>
      <trkpt lat="43.85657" lon="6.92836">
        <ele>587.2</ele>
        <time>2021-09-19T14:02:21Z</time>
      </trkpt>
      <trkpt lat="43.8566" lon="6.92836">
        <ele>586.8</ele>
        <time>2021-09-19T14:02:22Z</time>
      </trkpt>
      <trkpt lat="43.85671" lon="6.92838">
        <ele>585.6</ele>
        <time>2021-09-19T14:02:24Z</time>
      </trkpt>
      <trkpt lat="43.85676" lon="6.9284">
        <ele>585.1</ele>
        <time>2021-09-19T14:02:25Z</time>
      </trkpt>
      <trkpt lat="43.85681" lon="6.92843">
        <ele>584.6</ele>
        <time>2021-09-19T14:02:26Z</time>
      </trkpt>
      <trkpt lat="43.85686" lon="6.92848">
        <ele>584</ele>
        <time>2021-09-19T14:02:28Z</time>
      </trkpt>
      <trkpt lat="43.85687" lon="6.92853">
        <ele>583.7</ele>
        <time>2021-09-19T14:02:29Z</time>
      </trkpt>
      <trkpt lat="43.85689" lon="6.92858">
        <ele>583.3</ele>
        <time>2021-09-19T14:02:31Z</time>
      </trkpt>
      <trkpt lat="43.85689" lon="6.92861">
        <ele>583.2</ele>
        <time>2021-09-19T14:02:32Z</time>
      </trkpt>
      <trkpt lat="43.85689" lon="6.92863">
        <ele>583.1</ele>
        <time>2021-09-19T14:02:33Z</time>
      </trkpt>
      <trkpt lat="43.8569" lon="6.9287">
        <ele>582.7</ele>
        <time>2021-09-19T14:02:34Z</time>
      </trkpt>
      <trkpt lat="43.85691" lon="6.92874">
        <ele>582.6</ele>
        <time>2021-09-19T14:02:35Z</time>
      </trkpt>
      <trkpt lat="43.85692" lon="6.92879">
        <ele>582.4</ele>
        <time>2021-09-19T14:02:37Z</time>
      </trkpt>
      <trkpt lat="43.85693" lon="6.92882">
        <ele>582.3</ele>
        <time>2021-09-19T14:02:38Z</time>
      </trkpt>
      <trkpt lat="43.85694" lon="6.92885">
        <ele>582.2</ele>
        <time>2021-09-19T14:02:39Z</time>
      </trkpt>
      <trkpt lat="43.85694" lon="6.92887">
        <ele>582.1</ele>
        <time>2021-09-19T14:02:40Z</time>
      </trkpt>
      <trkpt lat="43.85695" lon="6.92891">
        <ele>582</ele>
        <time>2021-09-19T14:02:41Z</time>
      </trkpt>
      <trkpt lat="43.85695" lon="6.92892">
        <ele>581.9</ele>
        <time>2021-09-19T14:02:42Z</time>
      </trkpt>
      <trkpt lat="43.85698" lon="6.92893">
        <ele>581.8</ele>
        <time>2021-09-19T14:02:44Z</time>
      </trkpt>
      <trkpt lat="43.85699" lon="6.92894">
        <ele>581.7</ele>
        <time>2021-09-19T14:02:45Z</time>
      </trkpt>
      <trkpt lat="43.85701" lon="6.92896">
        <ele>581.6</ele>
        <time>2021-09-19T14:02:46Z</time>
      </trkpt>
      <trkpt lat="43.85703" lon="6.92899">
        <ele>581.5</ele>
        <time>2021-09-19T14:02:47Z</time>
      </trkpt>
      <trkpt lat="43.85706" lon="6.92903">
        <ele>581.3</ele>
        <time>2021-09-19T14:02:49Z</time>
      </trkpt>
      <trkpt lat="43.85707" lon="6.92907">
        <ele>581.1</ele>
        <time>2021-09-19T14:02:50Z</time>
      </trkpt>
      <trkpt lat="43.85708" lon="6.92912">
        <ele>581</ele>
        <time>2021-09-19T14:02:51Z</time>
      </trkpt>
      <trkpt lat="43.85708" lon="6.92916">
        <ele>580.8</ele>
        <time>2021-09-19T14:02:52Z</time>
      </trkpt>
      <trkpt lat="43.85711" lon="6.92922">
        <ele>580.5</ele>
        <time>2021-09-19T14:02:53Z</time>
      </trkpt>
      <trkpt lat="43.85713" lon="6.92927">
        <ele>580.2</ele>
        <time>2021-09-19T14:02:54Z</time>
      </trkpt>
      <trkpt lat="43.85714" lon="6.92933">
        <ele>579.8</ele>
        <time>2021-09-19T14:02:56Z</time>
      </trkpt>
      <trkpt lat="43.85715" lon="6.92939">
        <ele>579.5</ele>
        <time>2021-09-19T14:02:57Z</time>
      </trkpt>
      <trkpt lat="43.85716" lon="6.92944">
        <ele>579.2</ele>
        <time>2021-09-19T14:02:58Z</time>
      </trkpt>
      <trkpt lat="43.85719" lon="6.92953">
        <ele>578.8</ele>
        <time>2021-09-19T14:02:59Z</time>
      </trkpt>
      <trkpt lat="43.8572" lon="6.92959">
        <ele>578.4</ele>
        <time>2021-09-19T14:03:01Z</time>
      </trkpt>
      <trkpt lat="43.8572" lon="6.92966">
        <ele>578.1</ele>
        <time>2021-09-19T14:03:02Z</time>
      </trkpt>
      <trkpt lat="43.85718" lon="6.92972">
        <ele>577.8</ele>
        <time>2021-09-19T14:03:03Z</time>
      </trkpt>
      <trkpt lat="43.85719" lon="6.92981">
        <ele>577.3</ele>
        <time>2021-09-19T14:03:05Z</time>
      </trkpt>
      <trkpt lat="43.85721" lon="6.9299">
        <ele>576.7</ele>
        <time>2021-09-19T14:03:06Z</time>
      </trkpt>
      <trkpt lat="43.85723" lon="6.92996">
        <ele>576.3</ele>
        <time>2021-09-19T14:03:08Z</time>
      </trkpt>
      <trkpt lat="43.85727" lon="6.93005">
        <ele>575.7</ele>
        <time>2021-09-19T14:03:10Z</time>
      </trkpt>
      <trkpt lat="43.85734" lon="6.93011">
        <ele>575.1</ele>
        <time>2021-09-19T14:03:12Z</time>
      </trkpt>
      <trkpt lat="43.85739" lon="6.93014">
        <ele>574.5</ele>
        <time>2021-09-19T14:03:13Z</time>
      </trkpt>
      <trkpt lat="43.85744" lon="6.93017">
        <ele>574.1</ele>
        <time>2021-09-19T14:03:14Z</time>
      </trkpt>
      <trkpt lat="43.8575" lon="6.93021">
        <ele>573.4</ele>
        <time>2021-09-19T14:03:16Z</time>
      </trkpt>
      <trkpt lat="43.85754" lon="6.93024">
        <ele>573</ele>
        <time>2021-09-19T14:03:17Z</time>
      </trkpt>
      <trkpt lat="43.85761" lon="6.93026">
        <ele>572.3</ele>
        <time>2021-09-19T14:03:18Z</time>
      </trkpt>
      <trkpt lat="43.85766" lon="6.93028">
        <ele>572</ele>
        <time>2021-09-19T14:03:19Z</time>
      </trkpt>
      <trkpt lat="43.85771" lon="6.9303">
        <ele>571.7</ele>
        <time>2021-09-19T14:03:21Z</time>
      </trkpt>
      <trkpt lat="43.85775" lon="6.93033">
        <ele>571.5</ele>
        <time>2021-09-19T14:03:22Z</time>
      </trkpt>
      <trkpt lat="43.85778" lon="6.93034">
        <ele>571.4</ele>
        <time>2021-09-19T14:03:23Z</time>
      </trkpt>
      <trkpt lat="43.85781" lon="6.93036">
        <ele>571.3</ele>
        <time>2021-09-19T14:03:24Z</time>
      </trkpt>
      <trkpt lat="43.85784" lon="6.9304">
        <ele>571.2</ele>
        <time>2021-09-19T14:03:26Z</time>
      </trkpt>
      <trkpt lat="43.85785" lon="6.93042">
        <ele>571.2</ele>
        <time>2021-09-19T14:03:27Z</time>
      </trkpt>
      <trkpt lat="43.85786" lon="6.93043">
        <ele>571.2</ele>
        <time>2021-09-19T14:03:28Z</time>
      </trkpt>
      <trkpt lat="43.85787" lon="6.93047">
        <ele>571.2</ele>
        <time>2021-09-19T14:03:29Z</time>
      </trkpt>
      <trkpt lat="43.85787" lon="6.93048">
        <ele>571.2</ele>
        <time>2021-09-19T14:03:30Z</time>
      </trkpt>
      <trkpt lat="43.85787" lon="6.9305">
        <ele>571.2</ele>
        <time>2021-09-19T14:03:31Z</time>
      </trkpt>
      <trkpt lat="43.85786" lon="6.93053">
        <ele>571.2</ele>
        <time>2021-09-19T14:03:33Z</time>
      </trkpt>
      <trkpt lat="43.85788" lon="6.93054">
        <ele>571.2</ele>
        <time>2021-09-19T14:03:34Z</time>
      </trkpt>
      <trkpt lat="43.85789" lon="6.93054">
        <ele>571.3</ele>
        <time>2021-09-19T14:03:35Z</time>
      </trkpt>
      <trkpt lat="43.8579" lon="6.93054">
        <ele>571.3</ele>
        <time>2021-09-19T14:03:37Z</time>
      </trkpt>
      <trkpt lat="43.8579" lon="6.93055">
        <ele>571.3</ele>
        <time>2021-09-19T14:03:39Z</time>
      </trkpt>
      <trkpt lat="43.8579" lon="6.93055">
        <ele>571.3</ele>
        <time>2021-09-19T14:03:40Z</time>
      </trkpt>
      <trkpt lat="43.8579" lon="6.93055">
        <ele>571.3</ele>
        <time>2021-09-19T14:03:42Z</time>
      </trkpt>
      <trkpt lat="43.85824" lon="6.93066">
        <ele>571.8</ele>
        <time>2021-09-19T14:04:11Z</time>
      </trkpt>
      <trkpt lat="43.85826" lon="6.93072">
        <ele>571.7</ele>
        <time>2021-09-19T14:04:13Z</time>
      </trkpt>
      <trkpt lat="43.85827" lon="6.93077">
        <ele>571.6</ele>
        <time>2021-09-19T14:04:14Z</time>
      </trkpt>
      <trkpt lat="43.85828" lon="6.93085">
        <ele>571.5</ele>
        <time>2021-09-19T14:04:15Z</time>
      </trkpt>
      <trkpt lat="43.85829" lon="6.93089">
        <ele>571.5</ele>
        <time>2021-09-19T14:04:16Z</time>
      </trkpt>
      <trkpt lat="43.8583" lon="6.93095">
        <ele>571.4</ele>
        <time>2021-09-19T14:04:18Z</time>
      </trkpt>
      <trkpt lat="43.85831" lon="6.93097">
        <ele>571.4</ele>
        <time>2021-09-19T14:04:19Z</time>
      </trkpt>
      <trkpt lat="43.8583" lon="6.93101">
        <ele>571.4</ele>
        <time>2021-09-19T14:04:21Z</time>
      </trkpt>
      <trkpt lat="43.8583" lon="6.93102">
        <ele>571.4</ele>
        <time>2021-09-19T14:04:22Z</time>
      </trkpt>
      <trkpt lat="43.8583" lon="6.93104">
        <ele>571.4</ele>
        <time>2021-09-19T14:04:23Z</time>
      </trkpt>
      <trkpt lat="43.85831" lon="6.93106">
        <ele>571.5</ele>
        <time>2021-09-19T14:04:25Z</time>
      </trkpt>
      <trkpt lat="43.85852" lon="6.93146">
        <ele>572.6</ele>
        <time>2021-09-19T14:04:37Z</time>
      </trkpt>
      <trkpt lat="43.85856" lon="6.93151">
        <ele>572.8</ele>
        <time>2021-09-19T14:04:39Z</time>
      </trkpt>
      <trkpt lat="43.85859" lon="6.93154">
        <ele>572.9</ele>
        <time>2021-09-19T14:04:40Z</time>
      </trkpt>
      <trkpt lat="43.85866" lon="6.93161">
        <ele>572.9</ele>
        <time>2021-09-19T14:04:42Z</time>
      </trkpt>
      <trkpt lat="43.85869" lon="6.93166">
        <ele>572.9</ele>
        <time>2021-09-19T14:04:43Z</time>
      </trkpt>
      <trkpt lat="43.85874" lon="6.93172">
        <ele>572.8</ele>
        <time>2021-09-19T14:04:45Z</time>
      </trkpt>
      <trkpt lat="43.8588" lon="6.93178">
        <ele>572.7</ele>
        <time>2021-09-19T14:04:46Z</time>
      </trkpt>
      <trkpt lat="43.85885" lon="6.93182">
        <ele>572.6</ele>
        <time>2021-09-19T14:04:47Z</time>
      </trkpt>
      <trkpt lat="43.85888" lon="6.93187">
        <ele>572.5</ele>
        <time>2021-09-19T14:04:49Z</time>
      </trkpt>
      <trkpt lat="43.8589" lon="6.93193">
        <ele>572.4</ele>
        <time>2021-09-19T14:04:50Z</time>
      </trkpt>
      <trkpt lat="43.8589" lon="6.93201">
        <ele>572.2</ele>
        <time>2021-09-19T14:04:51Z</time>
      </trkpt>
      <trkpt lat="43.8589" lon="6.93208">
        <ele>572</ele>
        <time>2021-09-19T14:04:53Z</time>
      </trkpt>
      <trkpt lat="43.85889" lon="6.93213">
        <ele>572</ele>
        <time>2021-09-19T14:04:54Z</time>
      </trkpt>
      <trkpt lat="43.85888" lon="6.93218">
        <ele>571.8</ele>
        <time>2021-09-19T14:04:56Z</time>
      </trkpt>
      <trkpt lat="43.85886" lon="6.93223">
        <ele>571.7</ele>
        <time>2021-09-19T14:04:58Z</time>
      </trkpt>
      <trkpt lat="43.85885" lon="6.93224">
        <ele>571.6</ele>
        <time>2021-09-19T14:04:59Z</time>
      </trkpt>
      <trkpt lat="43.85883" lon="6.93225">
        <ele>571.5</ele>
        <time>2021-09-19T14:05:00Z</time>
      </trkpt>
      <trkpt lat="43.85882" lon="6.93226">
        <ele>571.5</ele>
        <time>2021-09-19T14:05:02Z</time>
      </trkpt>
      <trkpt lat="43.85882" lon="6.93225">
        <ele>571.5</ele>
        <time>2021-09-19T14:05:03Z</time>
      </trkpt>
      <trkpt lat="43.85883" lon="6.93225">
        <ele>571.5</ele>
        <time>2021-09-19T14:05:04Z</time>
      </trkpt>
      <trkpt lat="43.85883" lon="6.93225">
        <ele>571.4</ele>
        <time>2021-09-19T14:05:05Z</time>
      </trkpt>
      <trkpt lat="43.85883" lon="6.93225">
        <ele>571.4</ele>
        <time>2021-09-19T14:05:06Z</time>
      </trkpt>
      <trkpt lat="43.85883" lon="6.93225">
        <ele>571.4</ele>
        <time>2021-09-19T14:05:08Z</time>
      </trkpt>
      <trkpt lat="43.85892" lon="6.93246">
        <ele>570.5</ele>
        <time>2021-09-19T14:05:32Z</time>
      </trkpt>
      <trkpt lat="43.85892" lon="6.93248">
        <ele>570.4</ele>
        <time>2021-09-19T14:05:33Z</time>
      </trkpt>
      <trkpt lat="43.85897" lon="6.93252">
        <ele>570.1</ele>
        <time>2021-09-19T14:05:35Z</time>
      </trkpt>
      <trkpt lat="43.85902" lon="6.93255">
        <ele>569.9</ele>
        <time>2021-09-19T14:05:36Z</time>
      </trkpt>
      <trkpt lat="43.85907" lon="6.93257">
        <ele>569.7</ele>
        <time>2021-09-19T14:05:37Z</time>
      </trkpt>
      <trkpt lat="43.85911" lon="6.9326">
        <ele>569.5</ele>
        <time>2021-09-19T14:05:38Z</time>
      </trkpt>
      <trkpt lat="43.85913" lon="6.93262">
        <ele>569.3</ele>
        <time>2021-09-19T14:05:39Z</time>
      </trkpt>
      <trkpt lat="43.85916" lon="6.93266">
        <ele>569.1</ele>
        <time>2021-09-19T14:05:40Z</time>
      </trkpt>
      <trkpt lat="43.8592" lon="6.93271">
        <ele>568.7</ele>
        <time>2021-09-19T14:05:41Z</time>
      </trkpt>
      <trkpt lat="43.85924" lon="6.93275">
        <ele>568.2</ele>
        <time>2021-09-19T14:05:42Z</time>
      </trkpt>
      <trkpt lat="43.85929" lon="6.93282">
        <ele>567.4</ele>
        <time>2021-09-19T14:05:44Z</time>
      </trkpt>
      <trkpt lat="43.85933" lon="6.93287">
        <ele>566.8</ele>
        <time>2021-09-19T14:05:45Z</time>
      </trkpt>
      <trkpt lat="43.85937" lon="6.93293">
        <ele>565.9</ele>
        <time>2021-09-19T14:05:47Z</time>
      </trkpt>
      <trkpt lat="43.8594" lon="6.93296">
        <ele>565.5</ele>
        <time>2021-09-19T14:05:48Z</time>
      </trkpt>
      <trkpt lat="43.85944" lon="6.93301">
        <ele>564.7</ele>
        <time>2021-09-19T14:05:49Z</time>
      </trkpt>
      <trkpt lat="43.85949" lon="6.93306">
        <ele>563.7</ele>
        <time>2021-09-19T14:05:51Z</time>
      </trkpt>
      <trkpt lat="43.85955" lon="6.93312">
        <ele>562.6</ele>
        <time>2021-09-19T14:05:52Z</time>
      </trkpt>
      <trkpt lat="43.8596" lon="6.93317">
        <ele>561.4</ele>
        <time>2021-09-19T14:05:54Z</time>
      </trkpt>
      <trkpt lat="43.85964" lon="6.9332">
        <ele>560.6</ele>
        <time>2021-09-19T14:05:55Z</time>
      </trkpt>
      <trkpt lat="43.85969" lon="6.93322">
        <ele>559.6</ele>
        <time>2021-09-19T14:05:57Z</time>
      </trkpt>
      <trkpt lat="43.85975" lon="6.93322">
        <ele>558.7</ele>
        <time>2021-09-19T14:05:58Z</time>
      </trkpt>
      <trkpt lat="43.8598" lon="6.93319">
        <ele>557.8</ele>
        <time>2021-09-19T14:05:59Z</time>
      </trkpt>
      <trkpt lat="43.85983" lon="6.93317">
        <ele>557.3</ele>
        <time>2021-09-19T14:06:00Z</time>
      </trkpt>
      <trkpt lat="43.85986" lon="6.93315">
        <ele>556.9</ele>
        <time>2021-09-19T14:06:01Z</time>
      </trkpt>
      <trkpt lat="43.85991" lon="6.93313">
        <ele>556.4</ele>
        <time>2021-09-19T14:06:03Z</time>
      </trkpt>
      <trkpt lat="43.85994" lon="6.93311">
        <ele>556.1</ele>
        <time>2021-09-19T14:06:04Z</time>
      </trkpt>
      <trkpt lat="43.85997" lon="6.9331">
        <ele>555.7</ele>
        <time>2021-09-19T14:06:05Z</time>
      </trkpt>
      <trkpt lat="43.86" lon="6.93311">
        <ele>555.4</ele>
        <time>2021-09-19T14:06:06Z</time>
      </trkpt>
      <trkpt lat="43.86" lon="6.93311">
        <ele>555.3</ele>
        <time>2021-09-19T14:06:07Z</time>
      </trkpt>
      <trkpt lat="43.86002" lon="6.93312">
        <ele>555.2</ele>
        <time>2021-09-19T14:06:09Z</time>
      </trkpt>
      <trkpt lat="43.86002" lon="6.93313">
        <ele>555.1</ele>
        <time>2021-09-19T14:06:10Z</time>
      </trkpt>
      <trkpt lat="43.86001" lon="6.93313">
        <ele>555.1</ele>
        <time>2021-09-19T14:06:11Z</time>
      </trkpt>
      <trkpt lat="43.86001" lon="6.93314">
        <ele>555</ele>
        <time>2021-09-19T14:06:12Z</time>
      </trkpt>
      <trkpt lat="43.86001" lon="6.93315">
        <ele>555</ele>
        <time>2021-09-19T14:06:13Z</time>
      </trkpt>
      <trkpt lat="43.86001" lon="6.93315">
        <ele>554.9</ele>
        <time>2021-09-19T14:06:14Z</time>
      </trkpt>
      <trkpt lat="43.86001" lon="6.93315">
        <ele>554.9</ele>
        <time>2021-09-19T14:06:15Z</time>
      </trkpt>
      <trkpt lat="43.86001" lon="6.93315">
        <ele>554.9</ele>
        <time>2021-09-19T14:06:17Z</time>
      </trkpt>
      <trkpt lat="43.86001" lon="6.93315">
        <ele>554.9</ele>
        <time>2021-09-19T14:06:18Z</time>
      </trkpt>
      <trkpt lat="43.86001" lon="6.93315">
        <ele>554.9</ele>
        <time>2021-09-19T14:06:19Z</time>
      </trkpt>
      <trkpt lat="43.86001" lon="6.93332">
        <ele>553.6</ele>
        <time>2021-09-19T14:06:36Z</time>
      </trkpt>
      <trkpt lat="43.86004" lon="6.93334">
        <ele>553.2</ele>
        <time>2021-09-19T14:06:37Z</time>
      </trkpt>
      <trkpt lat="43.86007" lon="6.93338">
        <ele>552.7</ele>
        <time>2021-09-19T14:06:39Z</time>
      </trkpt>
      <trkpt lat="43.86012" lon="6.93343">
        <ele>551.9</ele>
        <time>2021-09-19T14:06:40Z</time>
      </trkpt>
      <trkpt lat="43.86018" lon="6.93348">
        <ele>551</ele>
        <time>2021-09-19T14:06:42Z</time>
      </trkpt>
      <trkpt lat="43.86021" lon="6.93352">
        <ele>550.5</ele>
        <time>2021-09-19T14:06:44Z</time>
      </trkpt>
      <trkpt lat="43.86026" lon="6.93357">
        <ele>549.9</ele>
        <time>2021-09-19T14:06:45Z</time>
      </trkpt>
      <trkpt lat="43.8603" lon="6.9336">
        <ele>549.5</ele>
        <time>2021-09-19T14:06:46Z</time>
      </trkpt>
      <trkpt lat="43.86035" lon="6.93362">
        <ele>549.2</ele>
        <time>2021-09-19T14:06:48Z</time>
      </trkpt>
      <trkpt lat="43.8604" lon="6.93365">
        <ele>549.1</ele>
        <time>2021-09-19T14:06:50Z</time>
      </trkpt>
      <trkpt lat="43.86043" lon="6.93366">
        <ele>549</ele>
        <time>2021-09-19T14:06:51Z</time>
      </trkpt>
      <trkpt lat="43.86047" lon="6.93368">
        <ele>549.1</ele>
        <time>2021-09-19T14:06:52Z</time>
      </trkpt>
      <trkpt lat="43.8605" lon="6.93372">
        <ele>549.2</ele>
        <time>2021-09-19T14:06:54Z</time>
      </trkpt>
      <trkpt lat="43.86051" lon="6.93374">
        <ele>549.2</ele>
        <time>2021-09-19T14:06:55Z</time>
      </trkpt>
      <trkpt lat="43.86053" lon="6.93377">
        <ele>549.4</ele>
        <time>2021-09-19T14:06:56Z</time>
      </trkpt>
      <trkpt lat="43.86055" lon="6.9338">
        <ele>549.5</ele>
        <time>2021-09-19T14:06:57Z</time>
      </trkpt>
      <trkpt lat="43.86057" lon="6.93382">
        <ele>549.6</ele>
        <time>2021-09-19T14:06:58Z</time>
      </trkpt>
      <trkpt lat="43.86059" lon="6.93385">
        <ele>549.8</ele>
        <time>2021-09-19T14:07:00Z</time>
      </trkpt>
      <trkpt lat="43.86063" lon="6.93389">
        <ele>550</ele>
        <time>2021-09-19T14:07:01Z</time>
      </trkpt>
      <trkpt lat="43.86065" lon="6.93391">
        <ele>550.2</ele>
        <time>2021-09-19T14:07:02Z</time>
      </trkpt>
      <trkpt lat="43.86067" lon="6.93395">
        <ele>550.5</ele>
        <time>2021-09-19T14:07:03Z</time>
      </trkpt>
      <trkpt lat="43.86068" lon="6.93396">
        <ele>550.5</ele>
        <time>2021-09-19T14:07:04Z</time>
      </trkpt>
      <trkpt lat="43.86069" lon="6.93398">
        <ele>550.6</ele>
        <time>2021-09-19T14:07:06Z</time>
      </trkpt>
      <trkpt lat="43.86072" lon="6.93403">
        <ele>550.9</ele>
        <time>2021-09-19T14:07:08Z</time>
      </trkpt>
      <trkpt lat="43.86072" lon="6.93407">
        <ele>551.1</ele>
        <time>2021-09-19T14:07:09Z</time>
      </trkpt>
      <trkpt lat="43.86072" lon="6.93409">
        <ele>551.2</ele>
        <time>2021-09-19T14:07:10Z</time>
      </trkpt>
      <trkpt lat="43.86075" lon="6.93414">
        <ele>551.4</ele>
        <time>2021-09-19T14:07:12Z</time>
      </trkpt>
      <trkpt lat="43.86076" lon="6.93416">
        <ele>551.4</ele>
        <time>2021-09-19T14:07:13Z</time>
      </trkpt>
      <trkpt lat="43.86077" lon="6.93417">
        <ele>551.5</ele>
        <time>2021-09-19T14:07:14Z</time>
      </trkpt>
      <trkpt lat="43.86079" lon="6.93422">
        <ele>551.6</ele>
        <time>2021-09-19T14:07:16Z</time>
      </trkpt>
      <trkpt lat="43.86082" lon="6.93429">
        <ele>551.7</ele>
        <time>2021-09-19T14:07:18Z</time>
      </trkpt>
      <trkpt lat="43.86084" lon="6.93435">
        <ele>551.7</ele>
        <time>2021-09-19T14:07:19Z</time>
      </trkpt>
      <trkpt lat="43.86087" lon="6.93439">
        <ele>551.7</ele>
        <time>2021-09-19T14:07:20Z</time>
      </trkpt>
      <trkpt lat="43.86092" lon="6.93443">
        <ele>551.7</ele>
        <time>2021-09-19T14:07:21Z</time>
      </trkpt>
      <trkpt lat="43.86098" lon="6.93447">
        <ele>551.6</ele>
        <time>2021-09-19T14:07:23Z</time>
      </trkpt>
      <trkpt lat="43.86102" lon="6.93451">
        <ele>551.4</ele>
        <time>2021-09-19T14:07:24Z</time>
      </trkpt>
      <trkpt lat="43.86106" lon="6.93453">
        <ele>551.3</ele>
        <time>2021-09-19T14:07:25Z</time>
      </trkpt>
      <trkpt lat="43.86108" lon="6.93455">
        <ele>551.1</ele>
        <time>2021-09-19T14:07:26Z</time>
      </trkpt>
      <trkpt lat="43.86111" lon="6.93456">
        <ele>550.9</ele>
        <time>2021-09-19T14:07:27Z</time>
      </trkpt>
      <trkpt lat="43.86112" lon="6.93457">
        <ele>550.8</ele>
        <time>2021-09-19T14:07:28Z</time>
      </trkpt>
      <trkpt lat="43.86115" lon="6.9346">
        <ele>550.4</ele>
        <time>2021-09-19T14:07:30Z</time>
      </trkpt>
      <trkpt lat="43.86117" lon="6.93461">
        <ele>550.3</ele>
        <time>2021-09-19T14:07:31Z</time>
      </trkpt>
      <trkpt lat="43.86121" lon="6.93463">
        <ele>549.8</ele>
        <time>2021-09-19T14:07:32Z</time>
      </trkpt>
      <trkpt lat="43.86123" lon="6.93465">
        <ele>549.3</ele>
        <time>2021-09-19T14:07:33Z</time>
      </trkpt>
      <trkpt lat="43.86126" lon="6.93469">
        <ele>548.7</ele>
        <time>2021-09-19T14:07:34Z</time>
      </trkpt>
      <trkpt lat="43.86127" lon="6.93471">
        <ele>548.5</ele>
        <time>2021-09-19T14:07:35Z</time>
      </trkpt>
      <trkpt lat="43.86129" lon="6.93474">
        <ele>548</ele>
        <time>2021-09-19T14:07:36Z</time>
      </trkpt>
      <trkpt lat="43.8613" lon="6.93477">
        <ele>547.6</ele>
        <time>2021-09-19T14:07:38Z</time>
      </trkpt>
      <trkpt lat="43.86132" lon="6.93478">
        <ele>547.2</ele>
        <time>2021-09-19T14:07:39Z</time>
      </trkpt>
      <trkpt lat="43.86136" lon="6.93479">
        <ele>546.4</ele>
        <time>2021-09-19T14:07:41Z</time>
      </trkpt>
      <trkpt lat="43.86138" lon="6.93479">
        <ele>546.1</ele>
        <time>2021-09-19T14:07:42Z</time>
      </trkpt>
      <trkpt lat="43.86136" lon="6.93479">
        <ele>545.8</ele>
        <time>2021-09-19T14:07:44Z</time>
      </trkpt>
      <trkpt lat="43.86135" lon="6.93477">
        <ele>545.4</ele>
        <time>2021-09-19T14:07:45Z</time>
      </trkpt>
      <trkpt lat="43.86134" lon="6.93477">
        <ele>545.3</ele>
        <time>2021-09-19T14:07:46Z</time>
      </trkpt>
      <trkpt lat="43.86134" lon="6.93477">
        <ele>545.2</ele>
        <time>2021-09-19T14:07:47Z</time>
      </trkpt>
      <trkpt lat="43.86134" lon="6.93477">
        <ele>545.2</ele>
        <time>2021-09-19T14:07:48Z</time>
      </trkpt>
      <trkpt lat="43.86135" lon="6.93477">
        <ele>545.1</ele>
        <time>2021-09-19T14:07:50Z</time>
      </trkpt>
      <trkpt lat="43.86135" lon="6.93477">
        <ele>545</ele>
        <time>2021-09-19T14:07:51Z</time>
      </trkpt>
      <trkpt lat="43.86135" lon="6.93477">
        <ele>545</ele>
        <time>2021-09-19T14:07:52Z</time>
      </trkpt>
      <trkpt lat="43.86149" lon="6.93475">
        <ele>541.1</ele>
        <time>2021-09-19T14:08:04Z</time>
      </trkpt>
      <trkpt lat="43.86151" lon="6.93475">
        <ele>540.3</ele>
        <time>2021-09-19T14:08:05Z</time>
      </trkpt>
      <trkpt lat="43.86156" lon="6.93473">
        <ele>539</ele>
        <time>2021-09-19T14:08:06Z</time>
      </trkpt>
      <trkpt lat="43.86165" lon="6.9347">
        <ele>536.5</ele>
        <time>2021-09-19T14:08:08Z</time>
      </trkpt>
      <trkpt lat="43.86171" lon="6.93469">
        <ele>535</ele>
        <time>2021-09-19T14:08:09Z</time>
      </trkpt>
      <trkpt lat="43.86172" lon="6.93469">
        <ele>535</ele>
        <time>2021-09-19T14:08:11Z</time>
      </trkpt>
      <trkpt lat="43.86172" lon="6.93469">
        <ele>534.9</ele>
        <time>2021-09-19T14:08:12Z</time>
      </trkpt>
      <trkpt lat="43.86171" lon="6.9347">
        <ele>534.8</ele>
        <time>2021-09-19T14:08:13Z</time>
      </trkpt>
      <trkpt lat="43.86171" lon="6.9347">
        <ele>534.7</ele>
        <time>2021-09-19T14:08:15Z</time>
      </trkpt>
      <trkpt lat="43.86215" lon="6.93449">
        <ele>531.8</ele>
        <time>2021-09-19T14:09:10Z</time>
      </trkpt>
      <trkpt lat="43.86217" lon="6.93447">
        <ele>531.8</ele>
        <time>2021-09-19T14:09:12Z</time>
      </trkpt>
      <trkpt lat="43.86217" lon="6.93446">
        <ele>531.8</ele>
        <time>2021-09-19T14:09:13Z</time>
      </trkpt>
      <trkpt lat="43.86217" lon="6.93446">
        <ele>531.8</ele>
        <time>2021-09-19T14:09:15Z</time>
      </trkpt>
      <trkpt lat="43.86218" lon="6.93445">
        <ele>531.8</ele>
        <time>2021-09-19T14:09:17Z</time>
      </trkpt>
      <trkpt lat="43.86218" lon="6.93443">
        <ele>531.8</ele>
        <time>2021-09-19T14:09:18Z</time>
      </trkpt>
      <trkpt lat="43.86218" lon="6.93441">
        <ele>531.8</ele>
        <time>2021-09-19T14:09:20Z</time>
      </trkpt>
      <trkpt lat="43.86217" lon="6.93438">
        <ele>531.8</ele>
        <time>2021-09-19T14:09:21Z</time>
      </trkpt>
      <trkpt lat="43.86217" lon="6.93436">
        <ele>531.8</ele>
        <time>2021-09-19T14:09:23Z</time>
      </trkpt>
      <trkpt lat="43.86217" lon="6.93434">
        <ele>531.8</ele>
        <time>2021-09-19T14:09:24Z</time>
      </trkpt>
      <trkpt lat="43.86219" lon="6.9343">
        <ele>531.9</ele>
        <time>2021-09-19T14:09:26Z</time>
      </trkpt>
      <trkpt lat="43.86221" lon="6.93427">
        <ele>532</ele>
        <time>2021-09-19T14:09:28Z</time>
      </trkpt>
      <trkpt lat="43.86222" lon="6.93425">
        <ele>532.1</ele>
        <time>2021-09-19T14:09:29Z</time>
      </trkpt>
      <trkpt lat="43.86223" lon="6.93425">
        <ele>532.1</ele>
        <time>2021-09-19T14:09:30Z</time>
      </trkpt>
      <trkpt lat="43.86224" lon="6.93425">
        <ele>532.1</ele>
        <time>2021-09-19T14:09:32Z</time>
      </trkpt>
      <trkpt lat="43.86224" lon="6.93425">
        <ele>532.1</ele>
        <time>2021-09-19T14:09:33Z</time>
      </trkpt>
      <trkpt lat="43.86224" lon="6.93427">
        <ele>532.2</ele>
        <time>2021-09-19T14:09:35Z</time>
      </trkpt>
      <trkpt lat="43.86224" lon="6.93427">
        <ele>532.2</ele>
        <time>2021-09-19T14:09:36Z</time>
      </trkpt>
      <trkpt lat="43.86224" lon="6.93429">
        <ele>532.2</ele>
        <time>2021-09-19T14:09:38Z</time>
      </trkpt>
      <trkpt lat="43.86224" lon="6.93429">
        <ele>532.3</ele>
        <time>2021-09-19T14:09:39Z</time>
      </trkpt>
      <trkpt lat="43.86224" lon="6.9343">
        <ele>532.3</ele>
        <time>2021-09-19T14:09:41Z</time>
      </trkpt>
      <trkpt lat="43.86224" lon="6.9343">
        <ele>532.3</ele>
        <time>2021-09-19T14:09:42Z</time>
      </trkpt>
      <trkpt lat="43.86224" lon="6.9343">
        <ele>532.3</ele>
        <time>2021-09-19T14:09:43Z</time>
      </trkpt>
      <trkpt lat="43.86228" lon="6.93444">
        <ele>532.5</ele>
        <time>2021-09-19T14:09:51Z</time>
      </trkpt>
      <trkpt lat="43.86231" lon="6.93452">
        <ele>532.5</ele>
        <time>2021-09-19T14:09:53Z</time>
      </trkpt>
      <trkpt lat="43.86234" lon="6.93461">
        <ele>532.4</ele>
        <time>2021-09-19T14:09:54Z</time>
      </trkpt>
      <trkpt lat="43.86236" lon="6.93467">
        <ele>532.2</ele>
        <time>2021-09-19T14:09:56Z</time>
      </trkpt>
      <trkpt lat="43.86238" lon="6.93475">
        <ele>532</ele>
        <time>2021-09-19T14:09:58Z</time>
      </trkpt>
      <trkpt lat="43.8624" lon="6.93483">
        <ele>531.6</ele>
        <time>2021-09-19T14:09:59Z</time>
      </trkpt>
      <trkpt lat="43.86243" lon="6.93492">
        <ele>531.2</ele>
        <time>2021-09-19T14:10:01Z</time>
      </trkpt>
      <trkpt lat="43.86245" lon="6.93496">
        <ele>530.9</ele>
        <time>2021-09-19T14:10:02Z</time>
      </trkpt>
      <trkpt lat="43.86248" lon="6.93504">
        <ele>530.4</ele>
        <time>2021-09-19T14:10:03Z</time>
      </trkpt>
      <trkpt lat="43.8625" lon="6.93511">
        <ele>529.9</ele>
        <time>2021-09-19T14:10:05Z</time>
      </trkpt>
      <trkpt lat="43.86252" lon="6.93514">
        <ele>529.6</ele>
        <time>2021-09-19T14:10:06Z</time>
      </trkpt>
      <trkpt lat="43.86255" lon="6.9352">
        <ele>529.1</ele>
        <time>2021-09-19T14:10:08Z</time>
      </trkpt>
      <trkpt lat="43.8626" lon="6.93526">
        <ele>528.3</ele>
        <time>2021-09-19T14:10:10Z</time>
      </trkpt>
      <trkpt lat="43.86263" lon="6.93529">
        <ele>527.7</ele>
        <time>2021-09-19T14:10:11Z</time>
      </trkpt>
      <trkpt lat="43.86265" lon="6.93531">
        <ele>527.5</ele>
        <time>2021-09-19T14:10:12Z</time>
      </trkpt>
      <trkpt lat="43.86267" lon="6.93534">
        <ele>527.1</ele>
        <time>2021-09-19T14:10:13Z</time>
      </trkpt>
      <trkpt lat="43.86269" lon="6.93539">
        <ele>526.5</ele>
        <time>2021-09-19T14:10:15Z</time>
      </trkpt>
      <trkpt lat="43.86271" lon="6.93545">
        <ele>525.9</ele>
        <time>2021-09-19T14:10:17Z</time>
      </trkpt>
      <trkpt lat="43.86272" lon="6.93548">
        <ele>525.6</ele>
        <time>2021-09-19T14:10:18Z</time>
      </trkpt>
      <trkpt lat="43.86276" lon="6.93552">
        <ele>525.3</ele>
        <time>2021-09-19T14:10:19Z</time>
      </trkpt>
      <trkpt lat="43.8628" lon="6.93552">
        <ele>525</ele>
        <time>2021-09-19T14:10:21Z</time>
      </trkpt>
      <trkpt lat="43.86285" lon="6.93556">
        <ele>524.7</ele>
        <time>2021-09-19T14:10:23Z</time>
      </trkpt>
      <trkpt lat="43.86288" lon="6.93558">
        <ele>524.6</ele>
        <time>2021-09-19T14:10:24Z</time>
      </trkpt>
      <trkpt lat="43.86293" lon="6.93561">
        <ele>524.7</ele>
        <time>2021-09-19T14:10:26Z</time>
      </trkpt>
      <trkpt lat="43.86296" lon="6.93559">
        <ele>524.7</ele>
        <time>2021-09-19T14:10:27Z</time>
      </trkpt>
      <trkpt lat="43.863" lon="6.93562">
        <ele>524.9</ele>
        <time>2021-09-19T14:10:29Z</time>
      </trkpt>
      <trkpt lat="43.86302" lon="6.93563">
        <ele>525</ele>
        <time>2021-09-19T14:10:30Z</time>
      </trkpt>
      <trkpt lat="43.86303" lon="6.93565">
        <ele>525</ele>
        <time>2021-09-19T14:10:31Z</time>
      </trkpt>
      <trkpt lat="43.86304" lon="6.93566">
        <ele>525.1</ele>
        <time>2021-09-19T14:10:32Z</time>
      </trkpt>
      <trkpt lat="43.86305" lon="6.93566">
        <ele>525.1</ele>
        <time>2021-09-19T14:10:34Z</time>
      </trkpt>
      <trkpt lat="43.86305" lon="6.93563">
        <ele>525.1</ele>
        <time>2021-09-19T14:10:35Z</time>
      </trkpt>
      <trkpt lat="43.86305" lon="6.93562">
        <ele>525.1</ele>
        <time>2021-09-19T14:10:36Z</time>
      </trkpt>
      <trkpt lat="43.86306" lon="6.93565">
        <ele>525.1</ele>
        <time>2021-09-19T14:10:37Z</time>
      </trkpt>
      <trkpt lat="43.86307" lon="6.93569">
        <ele>525.1</ele>
        <time>2021-09-19T14:10:39Z</time>
      </trkpt>
      <trkpt lat="43.86308" lon="6.93573">
        <ele>525</ele>
        <time>2021-09-19T14:10:40Z</time>
      </trkpt>
      <trkpt lat="43.86309" lon="6.93576">
        <ele>524.8</ele>
        <time>2021-09-19T14:10:42Z</time>
      </trkpt>
      <trkpt lat="43.8631" lon="6.9358">
        <ele>524.6</ele>
        <time>2021-09-19T14:10:44Z</time>
      </trkpt>
      <trkpt lat="43.86312" lon="6.93584">
        <ele>524.4</ele>
        <time>2021-09-19T14:10:58Z</time>
      </trkpt>
      <trkpt lat="43.86313" lon="6.93587">
        <ele>524.2</ele>
        <time>2021-09-19T14:10:59Z</time>
      </trkpt>
      <trkpt lat="43.86312" lon="6.93595">
        <ele>523.8</ele>
        <time>2021-09-19T14:11:00Z</time>
      </trkpt>
      <trkpt lat="43.86313" lon="6.93604">
        <ele>523.6</ele>
        <time>2021-09-19T14:11:01Z</time>
      </trkpt>
      <trkpt lat="43.86314" lon="6.93611">
        <ele>523.6</ele>
        <time>2021-09-19T14:11:02Z</time>
      </trkpt>
      <trkpt lat="43.86314" lon="6.93619">
        <ele>523.6</ele>
        <time>2021-09-19T14:11:03Z</time>
      </trkpt>
      <trkpt lat="43.86314" lon="6.93623">
        <ele>523.6</ele>
        <time>2021-09-19T14:11:04Z</time>
      </trkpt>
      <trkpt lat="43.86313" lon="6.93626">
        <ele>523.6</ele>
        <time>2021-09-19T14:11:05Z</time>
      </trkpt>
      <trkpt lat="43.86312" lon="6.93632">
        <ele>523.7</ele>
        <time>2021-09-19T14:11:07Z</time>
      </trkpt>
      <trkpt lat="43.86306" lon="6.93643">
        <ele>523.7</ele>
        <time>2021-09-19T14:11:08Z</time>
      </trkpt>
      <trkpt lat="43.86302" lon="6.9365">
        <ele>523.9</ele>
        <time>2021-09-19T14:11:09Z</time>
      </trkpt>
      <trkpt lat="43.86299" lon="6.93656">
        <ele>524.1</ele>
        <time>2021-09-19T14:11:11Z</time>
      </trkpt>
      <trkpt lat="43.86297" lon="6.93659">
        <ele>524.2</ele>
        <time>2021-09-19T14:11:12Z</time>
      </trkpt>
      <trkpt lat="43.86294" lon="6.93664">
        <ele>524.3</ele>
        <time>2021-09-19T14:11:13Z</time>
      </trkpt>
      <trkpt lat="43.86291" lon="6.93667">
        <ele>524.4</ele>
        <time>2021-09-19T14:11:15Z</time>
      </trkpt>
      <trkpt lat="43.86287" lon="6.93669">
        <ele>524.4</ele>
        <time>2021-09-19T14:11:16Z</time>
      </trkpt>
      <trkpt lat="43.86282" lon="6.93671">
        <ele>524.2</ele>
        <time>2021-09-19T14:11:18Z</time>
      </trkpt>
      <trkpt lat="43.8628" lon="6.93674">
        <ele>524</ele>
        <time>2021-09-19T14:11:19Z</time>
      </trkpt>
      <trkpt lat="43.86278" lon="6.93679">
        <ele>523.7</ele>
        <time>2021-09-19T14:11:21Z</time>
      </trkpt>
      <trkpt lat="43.86276" lon="6.93686">
        <ele>523.2</ele>
        <time>2021-09-19T14:11:23Z</time>
      </trkpt>
      <trkpt lat="43.86275" lon="6.93693">
        <ele>522.6</ele>
        <time>2021-09-19T14:11:24Z</time>
      </trkpt>
      <trkpt lat="43.86273" lon="6.937">
        <ele>522.1</ele>
        <time>2021-09-19T14:11:26Z</time>
      </trkpt>
      <trkpt lat="43.86273" lon="6.93706">
        <ele>521.7</ele>
        <time>2021-09-19T14:11:27Z</time>
      </trkpt>
      <trkpt lat="43.86273" lon="6.93713">
        <ele>521.3</ele>
        <time>2021-09-19T14:11:29Z</time>
      </trkpt>
      <trkpt lat="43.86274" lon="6.93718">
        <ele>521</ele>
        <time>2021-09-19T14:11:30Z</time>
      </trkpt>
      <trkpt lat="43.86275" lon="6.93722">
        <ele>520.9</ele>
        <time>2021-09-19T14:11:31Z</time>
      </trkpt>
      <trkpt lat="43.86278" lon="6.93724">
        <ele>520.8</ele>
        <time>2021-09-19T14:11:32Z</time>
      </trkpt>
      <trkpt lat="43.86279" lon="6.93724">
        <ele>520.8</ele>
        <time>2021-09-19T14:11:33Z</time>
      </trkpt>
      <trkpt lat="43.86281" lon="6.93729">
        <ele>520.7</ele>
        <time>2021-09-19T14:11:35Z</time>
      </trkpt>
      <trkpt lat="43.86281" lon="6.93731">
        <ele>520.7</ele>
        <time>2021-09-19T14:11:36Z</time>
      </trkpt>
      <trkpt lat="43.86282" lon="6.93737">
        <ele>520.8</ele>
        <time>2021-09-19T14:11:38Z</time>
      </trkpt>
      <trkpt lat="43.86283" lon="6.93739">
        <ele>520.8</ele>
        <time>2021-09-19T14:11:39Z</time>
      </trkpt>
      <trkpt lat="43.86283" lon="6.93741">
        <ele>520.9</ele>
        <time>2021-09-19T14:11:40Z</time>
      </trkpt>
      <trkpt lat="43.86284" lon="6.93746">
        <ele>520.9</ele>
        <time>2021-09-19T14:11:41Z</time>
      </trkpt>
      <trkpt lat="43.86284" lon="6.93753">
        <ele>521.1</ele>
        <time>2021-09-19T14:11:42Z</time>
      </trkpt>
      <trkpt lat="43.86286" lon="6.93761">
        <ele>521.2</ele>
        <time>2021-09-19T14:11:44Z</time>
      </trkpt>
      <trkpt lat="43.86289" lon="6.93768">
        <ele>521.1</ele>
        <time>2021-09-19T14:11:45Z</time>
      </trkpt>
      <trkpt lat="43.86292" lon="6.93777">
        <ele>521</ele>
        <time>2021-09-19T14:11:47Z</time>
      </trkpt>
      <trkpt lat="43.86292" lon="6.93783">
        <ele>520.7</ele>
        <time>2021-09-19T14:11:48Z</time>
      </trkpt>
      <trkpt lat="43.86291" lon="6.93789">
        <ele>520.3</ele>
        <time>2021-09-19T14:11:49Z</time>
      </trkpt>
      <trkpt lat="43.8629" lon="6.93798">
        <ele>519.5</ele>
        <time>2021-09-19T14:11:51Z</time>
      </trkpt>
      <trkpt lat="43.86291" lon="6.93803">
        <ele>518.8</ele>
        <time>2021-09-19T14:11:53Z</time>
      </trkpt>
      <trkpt lat="43.86294" lon="6.93802">
        <ele>518.3</ele>
        <time>2021-09-19T14:11:54Z</time>
      </trkpt>
      <trkpt lat="43.86297" lon="6.93801">
        <ele>517.5</ele>
        <time>2021-09-19T14:11:56Z</time>
      </trkpt>
      <trkpt lat="43.86298" lon="6.93801">
        <ele>517.1</ele>
        <time>2021-09-19T14:11:58Z</time>
      </trkpt>
      <trkpt lat="43.86298" lon="6.93801">
        <ele>517</ele>
        <time>2021-09-19T14:11:59Z</time>
      </trkpt>
      <trkpt lat="43.86299" lon="6.93801">
        <ele>517</ele>
        <time>2021-09-19T14:12:00Z</time>
      </trkpt>
      <trkpt lat="43.86299" lon="6.93801">
        <ele>516.9</ele>
        <time>2021-09-19T14:12:01Z</time>
      </trkpt>
      <trkpt lat="43.86299" lon="6.93802">
        <ele>516.9</ele>
        <time>2021-09-19T14:12:03Z</time>
      </trkpt>
      <trkpt lat="43.86307" lon="6.93823">
        <ele>511.2</ele>
        <time>2021-09-19T14:12:24Z</time>
      </trkpt>
      <trkpt lat="43.86309" lon="6.93827">
        <ele>510.1</ele>
        <time>2021-09-19T14:12:25Z</time>
      </trkpt>
      <trkpt lat="43.86312" lon="6.93832">
        <ele>508.9</ele>
        <time>2021-09-19T14:12:27Z</time>
      </trkpt>
      <trkpt lat="43.86314" lon="6.93836">
        <ele>507.9</ele>
        <time>2021-09-19T14:12:28Z</time>
      </trkpt>
      <trkpt lat="43.86318" lon="6.93838">
        <ele>506.9</ele>
        <time>2021-09-19T14:12:29Z</time>
      </trkpt>
      <trkpt lat="43.86321" lon="6.9384">
        <ele>506</ele>
        <time>2021-09-19T14:12:30Z</time>
      </trkpt>
      <trkpt lat="43.86327" lon="6.93841">
        <ele>504.6</ele>
        <time>2021-09-19T14:12:32Z</time>
      </trkpt>
      <trkpt lat="43.86331" lon="6.93841">
        <ele>504.1</ele>
        <time>2021-09-19T14:12:33Z</time>
      </trkpt>
      <trkpt lat="43.86334" lon="6.93843">
        <ele>503.7</ele>
        <time>2021-09-19T14:12:35Z</time>
      </trkpt>
      <trkpt lat="43.86337" lon="6.93846">
        <ele>503.2</ele>
        <time>2021-09-19T14:12:36Z</time>
      </trkpt>
      <trkpt lat="43.86337" lon="6.93848">
        <ele>503</ele>
        <time>2021-09-19T14:12:37Z</time>
      </trkpt>
      <trkpt lat="43.86337" lon="6.93849">
        <ele>502.9</ele>
        <time>2021-09-19T14:12:38Z</time>
      </trkpt>
      <trkpt lat="43.86337" lon="6.9385">
        <ele>502.8</ele>
        <time>2021-09-19T14:12:40Z</time>
      </trkpt>
      <trkpt lat="43.86337" lon="6.9385">
        <ele>502.8</ele>
        <time>2021-09-19T14:12:42Z</time>
      </trkpt>
      <trkpt lat="43.86336" lon="6.93852">
        <ele>502.5</ele>
        <time>2021-09-19T14:12:43Z</time>
      </trkpt>
      <trkpt lat="43.86335" lon="6.93855">
        <ele>502.2</ele>
        <time>2021-09-19T14:12:45Z</time>
      </trkpt>
      <trkpt lat="43.86334" lon="6.93857">
        <ele>501.9</ele>
        <time>2021-09-19T14:12:46Z</time>
      </trkpt>
      <trkpt lat="43.86334" lon="6.93859">
        <ele>501.6</ele>
        <time>2021-09-19T14:12:48Z</time>
      </trkpt>
      <trkpt lat="43.86335" lon="6.93864">
        <ele>500.8</ele>
        <time>2021-09-19T14:12:50Z</time>
      </trkpt>
      <trkpt lat="43.86334" lon="6.93872">
        <ele>499.4</ele>
        <time>2021-09-19T14:12:51Z</time>
      </trkpt>
      <trkpt lat="43.86332" lon="6.93887">
        <ele>496.3</ele>
        <time>2021-09-19T14:12:53Z</time>
      </trkpt>
      <trkpt lat="43.8633" lon="6.93897">
        <ele>494.4</ele>
        <time>2021-09-19T14:12:54Z</time>
      </trkpt>
      <trkpt lat="43.86327" lon="6.93907">
        <ele>492.2</ele>
        <time>2021-09-19T14:12:55Z</time>
      </trkpt>
      <trkpt lat="43.8632" lon="6.93919">
        <ele>489.5</ele>
        <time>2021-09-19T14:12:56Z</time>
      </trkpt>
      <trkpt lat="43.86317" lon="6.93927">
        <ele>487.8</ele>
        <time>2021-09-19T14:12:58Z</time>
      </trkpt>
      <trkpt lat="43.86315" lon="6.93932">
        <ele>486.7</ele>
        <time>2021-09-19T14:12:59Z</time>
      </trkpt>
      <trkpt lat="43.86313" lon="6.93939">
        <ele>485.7</ele>
        <time>2021-09-19T14:13:00Z</time>
      </trkpt>
      <trkpt lat="43.86312" lon="6.93945">
        <ele>484.8</ele>
        <time>2021-09-19T14:13:01Z</time>
      </trkpt>
      <trkpt lat="43.86311" lon="6.93952">
        <ele>483.9</ele>
        <time>2021-09-19T14:13:02Z</time>
      </trkpt>
      <trkpt lat="43.86309" lon="6.93961">
        <ele>483</ele>
        <time>2021-09-19T14:13:03Z</time>
      </trkpt>
      <trkpt lat="43.86308" lon="6.93967">
        <ele>482.4</ele>
        <time>2021-09-19T14:13:04Z</time>
      </trkpt>
      <trkpt lat="43.86308" lon="6.93974">
        <ele>481.8</ele>
        <time>2021-09-19T14:13:06Z</time>
      </trkpt>
      <trkpt lat="43.86309" lon="6.93979">
        <ele>481.2</ele>
        <time>2021-09-19T14:13:07Z</time>
      </trkpt>
      <trkpt lat="43.86312" lon="6.93985">
        <ele>480.5</ele>
        <time>2021-09-19T14:13:08Z</time>
      </trkpt>
      <trkpt lat="43.86315" lon="6.93987">
        <ele>479.9</ele>
        <time>2021-09-19T14:13:10Z</time>
      </trkpt>
      <trkpt lat="43.86317" lon="6.93989">
        <ele>479.4</ele>
        <time>2021-09-19T14:13:11Z</time>
      </trkpt>
      <trkpt lat="43.86318" lon="6.93991">
        <ele>479.1</ele>
        <time>2021-09-19T14:13:12Z</time>
      </trkpt>
      <trkpt lat="43.86318" lon="6.94001">
        <ele>477.8</ele>
        <time>2021-09-19T14:13:14Z</time>
      </trkpt>
      <trkpt lat="43.86317" lon="6.94011">
        <ele>476.5</ele>
        <time>2021-09-19T14:13:15Z</time>
      </trkpt>
      <trkpt lat="43.86315" lon="6.94021">
        <ele>475.3</ele>
        <time>2021-09-19T14:13:16Z</time>
      </trkpt>
      <trkpt lat="43.86312" lon="6.9404">
        <ele>473.4</ele>
        <time>2021-09-19T14:13:18Z</time>
      </trkpt>
      <trkpt lat="43.86311" lon="6.94055">
        <ele>472.1</ele>
        <time>2021-09-19T14:13:20Z</time>
      </trkpt>
      <trkpt lat="43.8631" lon="6.9407">
        <ele>470.8</ele>
        <time>2021-09-19T14:13:22Z</time>
      </trkpt>
      <trkpt lat="43.86314" lon="6.94087">
        <ele>469.4</ele>
        <time>2021-09-19T14:13:24Z</time>
      </trkpt>
      <trkpt lat="43.86315" lon="6.94096">
        <ele>468.9</ele>
        <time>2021-09-19T14:13:25Z</time>
      </trkpt>
      <trkpt lat="43.86319" lon="6.94101">
        <ele>468.5</ele>
        <time>2021-09-19T14:13:26Z</time>
      </trkpt>
      <trkpt lat="43.86323" lon="6.94112">
        <ele>467.9</ele>
        <time>2021-09-19T14:13:28Z</time>
      </trkpt>
      <trkpt lat="43.86321" lon="6.94124">
        <ele>467.7</ele>
        <time>2021-09-19T14:13:30Z</time>
      </trkpt>
      <trkpt lat="43.86321" lon="6.9413">
        <ele>467.6</ele>
        <time>2021-09-19T14:13:31Z</time>
      </trkpt>
      <trkpt lat="43.86322" lon="6.94132">
        <ele>467.6</ele>
        <time>2021-09-19T14:13:32Z</time>
      </trkpt>
      <trkpt lat="43.8632" lon="6.94136">
        <ele>467.5</ele>
        <time>2021-09-19T14:13:33Z</time>
      </trkpt>
      <trkpt lat="43.86314" lon="6.94144">
        <ele>466.9</ele>
        <time>2021-09-19T14:13:35Z</time>
      </trkpt>
      <trkpt lat="43.86309" lon="6.9415">
        <ele>466.2</ele>
        <time>2021-09-19T14:13:36Z</time>
      </trkpt>
      <trkpt lat="43.86307" lon="6.94157">
        <ele>465.7</ele>
        <time>2021-09-19T14:13:37Z</time>
      </trkpt>
      <trkpt lat="43.86306" lon="6.94165">
        <ele>464.5</ele>
        <time>2021-09-19T14:13:38Z</time>
      </trkpt>
      <trkpt lat="43.86308" lon="6.94188">
        <ele>461.1</ele>
        <time>2021-09-19T14:13:40Z</time>
      </trkpt>
      <trkpt lat="43.86309" lon="6.94201">
        <ele>459.2</ele>
        <time>2021-09-19T14:13:41Z</time>
      </trkpt>
      <trkpt lat="43.86309" lon="6.94214">
        <ele>457.6</ele>
        <time>2021-09-19T14:13:42Z</time>
      </trkpt>
      <trkpt lat="43.86309" lon="6.94226">
        <ele>456.2</ele>
        <time>2021-09-19T14:13:43Z</time>
      </trkpt>
      <trkpt lat="43.86305" lon="6.94248">
        <ele>453.3</ele>
        <time>2021-09-19T14:13:45Z</time>
      </trkpt>
      <trkpt lat="43.86301" lon="6.94259">
        <ele>451.8</ele>
        <time>2021-09-19T14:13:46Z</time>
      </trkpt>
      <trkpt lat="43.86293" lon="6.94275">
        <ele>449.4</ele>
        <time>2021-09-19T14:13:48Z</time>
      </trkpt>
      <trkpt lat="43.86284" lon="6.94293">
        <ele>446.9</ele>
        <time>2021-09-19T14:13:50Z</time>
      </trkpt>
      <trkpt lat="43.8628" lon="6.943">
        <ele>445.9</ele>
        <time>2021-09-19T14:13:51Z</time>
      </trkpt>
      <trkpt lat="43.86278" lon="6.94307">
        <ele>445</ele>
        <time>2021-09-19T14:13:52Z</time>
      </trkpt>
      <trkpt lat="43.86275" lon="6.94312">
        <ele>444.2</ele>
        <time>2021-09-19T14:13:53Z</time>
      </trkpt>
      <trkpt lat="43.8627" lon="6.94323">
        <ele>443.3</ele>
        <time>2021-09-19T14:13:55Z</time>
      </trkpt>
      <trkpt lat="43.86267" lon="6.94328">
        <ele>443.3</ele>
        <time>2021-09-19T14:13:56Z</time>
      </trkpt>
      <trkpt lat="43.86261" lon="6.94336">
        <ele>443.2</ele>
        <time>2021-09-19T14:13:58Z</time>
      </trkpt>
      <trkpt lat="43.86257" lon="6.94337">
        <ele>443.2</ele>
        <time>2021-09-19T14:13:59Z</time>
      </trkpt>
      <trkpt lat="43.86245" lon="6.94342">
        <ele>442.9</ele>
        <time>2021-09-19T14:14:01Z</time>
      </trkpt>
      <trkpt lat="43.8624" lon="6.94346">
        <ele>442.7</ele>
        <time>2021-09-19T14:14:02Z</time>
      </trkpt>
      <trkpt lat="43.86235" lon="6.94352">
        <ele>442.6</ele>
        <time>2021-09-19T14:14:03Z</time>
      </trkpt>
      <trkpt lat="43.86232" lon="6.94358">
        <ele>442.4</ele>
        <time>2021-09-19T14:14:04Z</time>
      </trkpt>
      <trkpt lat="43.86229" lon="6.94365">
        <ele>442.1</ele>
        <time>2021-09-19T14:14:05Z</time>
      </trkpt>
      <trkpt lat="43.86227" lon="6.94373">
        <ele>439.7</ele>
        <time>2021-09-19T14:14:06Z</time>
      </trkpt>
      <trkpt lat="43.86227" lon="6.94382">
        <ele>439.7</ele>
        <time>2021-09-19T14:14:07Z</time>
      </trkpt>
      <trkpt lat="43.86226" lon="6.944">
        <ele>437.5</ele>
        <time>2021-09-19T14:14:09Z</time>
      </trkpt>
      <trkpt lat="43.86226" lon="6.94408">
        <ele>437.2</ele>
        <time>2021-09-19T14:14:10Z</time>
      </trkpt>
      <trkpt lat="43.86227" lon="6.94415">
        <ele>436.8</ele>
        <time>2021-09-19T14:14:11Z</time>
      </trkpt>
      <trkpt lat="43.86229" lon="6.94422">
        <ele>436.5</ele>
        <time>2021-09-19T14:14:12Z</time>
      </trkpt>
      <trkpt lat="43.86234" lon="6.94426">
        <ele>436.1</ele>
        <time>2021-09-19T14:14:13Z</time>
      </trkpt>
      <trkpt lat="43.8625" lon="6.94428">
        <ele>435.1</ele>
        <time>2021-09-19T14:14:15Z</time>
      </trkpt>
      <trkpt lat="43.86263" lon="6.94431">
        <ele>434.3</ele>
        <time>2021-09-19T14:14:17Z</time>
      </trkpt>
      <trkpt lat="43.8627" lon="6.94435">
        <ele>433.8</ele>
        <time>2021-09-19T14:14:18Z</time>
      </trkpt>
      <trkpt lat="43.86277" lon="6.94438">
        <ele>433.4</ele>
        <time>2021-09-19T14:14:19Z</time>
      </trkpt>
      <trkpt lat="43.86285" lon="6.94443">
        <ele>432.9</ele>
        <time>2021-09-19T14:14:20Z</time>
      </trkpt>
      <trkpt lat="43.86294" lon="6.94446">
        <ele>432.4</ele>
        <time>2021-09-19T14:14:21Z</time>
      </trkpt>
      <trkpt lat="43.86311" lon="6.94451">
        <ele>431.3</ele>
        <time>2021-09-19T14:14:23Z</time>
      </trkpt>
      <trkpt lat="43.86326" lon="6.94454">
        <ele>430.3</ele>
        <time>2021-09-19T14:14:25Z</time>
      </trkpt>
      <trkpt lat="43.8633" lon="6.94452">
        <ele>430</ele>
        <time>2021-09-19T14:14:26Z</time>
      </trkpt>
      <trkpt lat="43.86341" lon="6.94446">
        <ele>429.1</ele>
        <time>2021-09-19T14:14:28Z</time>
      </trkpt>
      <trkpt lat="43.86353" lon="6.94434">
        <ele>428.1</ele>
        <time>2021-09-19T14:14:30Z</time>
      </trkpt>
      <trkpt lat="43.86373" lon="6.9441">
        <ele>426.4</ele>
        <time>2021-09-19T14:14:32Z</time>
      </trkpt>
      <trkpt lat="43.86392" lon="6.94388">
        <ele>431.4</ele>
        <time>2021-09-19T14:14:34Z</time>
      </trkpt>
      <trkpt lat="43.86398" lon="6.94378">
        <ele>434</ele>
        <time>2021-09-19T14:14:35Z</time>
      </trkpt>
      <trkpt lat="43.86406" lon="6.9436">
        <ele>438</ele>
        <time>2021-09-19T14:14:37Z</time>
      </trkpt>
      <trkpt lat="43.86411" lon="6.94352">
        <ele>439.6</ele>
        <time>2021-09-19T14:14:38Z</time>
      </trkpt>
      <trkpt lat="43.86416" lon="6.94345">
        <ele>441</ele>
        <time>2021-09-19T14:14:39Z</time>
      </trkpt>
      <trkpt lat="43.86424" lon="6.94334">
        <ele>444.9</ele>
        <time>2021-09-19T14:14:41Z</time>
      </trkpt>
      <trkpt lat="43.8643" lon="6.9433">
        <ele>445.5</ele>
        <time>2021-09-19T14:14:43Z</time>
      </trkpt>
      <trkpt lat="43.86434" lon="6.9433">
        <ele>445.7</ele>
        <time>2021-09-19T14:14:45Z</time>
      </trkpt>
      <trkpt lat="43.86434" lon="6.94334">
        <ele>444.4</ele>
        <time>2021-09-19T14:14:46Z</time>
      </trkpt>
      <trkpt lat="43.86438" lon="6.94344">
        <ele>442.3</ele>
        <time>2021-09-19T14:14:48Z</time>
      </trkpt>
      <trkpt lat="43.86441" lon="6.94356">
        <ele>440.2</ele>
        <time>2021-09-19T14:14:50Z</time>
      </trkpt>
      <trkpt lat="43.86442" lon="6.94363">
        <ele>438.5</ele>
        <time>2021-09-19T14:14:51Z</time>
      </trkpt>
      <trkpt lat="43.86395" lon="6.94502">
        <ele>412.2</ele>
        <time>2021-09-19T14:15:03Z</time>
      </trkpt>
      <trkpt lat="43.86389" lon="6.94513">
        <ele>411.9</ele>
        <time>2021-09-19T14:15:04Z</time>
      </trkpt>
      <trkpt lat="43.86385" lon="6.94533">
        <ele>411.5</ele>
        <time>2021-09-19T14:15:06Z</time>
      </trkpt>
      <trkpt lat="43.86389" lon="6.9455">
        <ele>411.2</ele>
        <time>2021-09-19T14:15:08Z</time>
      </trkpt>
      <trkpt lat="43.86393" lon="6.94557">
        <ele>411</ele>
        <time>2021-09-19T14:15:09Z</time>
      </trkpt>
      <trkpt lat="43.86399" lon="6.94563">
        <ele>410.8</ele>
        <time>2021-09-19T14:15:10Z</time>
      </trkpt>
      <trkpt lat="43.86413" lon="6.94571">
        <ele>410.5</ele>
        <time>2021-09-19T14:15:12Z</time>
      </trkpt>
      <trkpt lat="43.86428" lon="6.94577">
        <ele>410.2</ele>
        <time>2021-09-19T14:15:14Z</time>
      </trkpt>
      <trkpt lat="43.86434" lon="6.9458">
        <ele>410.1</ele>
        <time>2021-09-19T14:15:15Z</time>
      </trkpt>
      <trkpt lat="43.86443" lon="6.94587">
        <ele>409.9</ele>
        <time>2021-09-19T14:15:17Z</time>
      </trkpt>
      <trkpt lat="43.86447" lon="6.94591">
        <ele>409.8</ele>
        <time>2021-09-19T14:15:18Z</time>
      </trkpt>
      <trkpt lat="43.8645" lon="6.94596">
        <ele>409.7</ele>
        <time>2021-09-19T14:15:19Z</time>
      </trkpt>
      <trkpt lat="43.86456" lon="6.94606">
        <ele>409.6</ele>
        <time>2021-09-19T14:15:21Z</time>
      </trkpt>
      <trkpt lat="43.86463" lon="6.94616">
        <ele>409.5</ele>
        <time>2021-09-19T14:15:23Z</time>
      </trkpt>
      <trkpt lat="43.86468" lon="6.94626">
        <ele>409.4</ele>
        <time>2021-09-19T14:15:25Z</time>
      </trkpt>
      <trkpt lat="43.8647" lon="6.94629">
        <ele>409.4</ele>
        <time>2021-09-19T14:15:26Z</time>
      </trkpt>
      <trkpt lat="43.86475" lon="6.94639">
        <ele>409.2</ele>
        <time>2021-09-19T14:15:28Z</time>
      </trkpt>
      <trkpt lat="43.86478" lon="6.94647">
        <ele>409.2</ele>
        <time>2021-09-19T14:15:29Z</time>
      </trkpt>
      <trkpt lat="43.86481" lon="6.94655">
        <ele>409.1</ele>
        <time>2021-09-19T14:15:30Z</time>
      </trkpt>
      <trkpt lat="43.86488" lon="6.94672">
        <ele>408.9</ele>
        <time>2021-09-19T14:15:32Z</time>
      </trkpt>
      <trkpt lat="43.86493" lon="6.94688">
        <ele>408.8</ele>
        <time>2021-09-19T14:15:34Z</time>
      </trkpt>
      <trkpt lat="43.86496" lon="6.94695">
        <ele>408.7</ele>
        <time>2021-09-19T14:15:35Z</time>
      </trkpt>
      <trkpt lat="43.86498" lon="6.94703">
        <ele>408.7</ele>
        <time>2021-09-19T14:15:36Z</time>
      </trkpt>
      <trkpt lat="43.86503" lon="6.94719">
        <ele>408.5</ele>
        <time>2021-09-19T14:15:38Z</time>
      </trkpt>
      <trkpt lat="43.86506" lon="6.94726">
        <ele>408.3</ele>
        <time>2021-09-19T14:15:39Z</time>
      </trkpt>
      <trkpt lat="43.86509" lon="6.94742">
        <ele>408</ele>
        <time>2021-09-19T14:15:41Z</time>
      </trkpt>
      <trkpt lat="43.86509" lon="6.9475">
        <ele>407.9</ele>
        <time>2021-09-19T14:15:42Z</time>
      </trkpt>
      <trkpt lat="43.86509" lon="6.94759">
        <ele>407.7</ele>
        <time>2021-09-19T14:15:43Z</time>
      </trkpt>
      <trkpt lat="43.86503" lon="6.94781">
        <ele>407.4</ele>
        <time>2021-09-19T14:15:45Z</time>
      </trkpt>
      <trkpt lat="43.865" lon="6.94793">
        <ele>407.3</ele>
        <time>2021-09-19T14:15:46Z</time>
      </trkpt>
      <trkpt lat="43.86498" lon="6.94805">
        <ele>407.1</ele>
        <time>2021-09-19T14:15:47Z</time>
      </trkpt>
      <trkpt lat="43.86497" lon="6.94815">
        <ele>407</ele>
        <time>2021-09-19T14:15:48Z</time>
      </trkpt>
      <trkpt lat="43.86499" lon="6.94824">
        <ele>406.8</ele>
        <time>2021-09-19T14:15:49Z</time>
      </trkpt>
      <trkpt lat="43.86501" lon="6.9484">
        <ele>406.5</ele>
        <time>2021-09-19T14:15:51Z</time>
      </trkpt>
      <trkpt lat="43.86502" lon="6.9485">
        <ele>406.3</ele>
        <time>2021-09-19T14:15:52Z</time>
      </trkpt>
      <trkpt lat="43.86505" lon="6.94869">
        <ele>405.9</ele>
        <time>2021-09-19T14:15:54Z</time>
      </trkpt>
      <trkpt lat="43.86508" lon="6.94878">
        <ele>405.7</ele>
        <time>2021-09-19T14:15:55Z</time>
      </trkpt>
      <trkpt lat="43.86514" lon="6.94897">
        <ele>405.3</ele>
        <time>2021-09-19T14:15:57Z</time>
      </trkpt>
      <trkpt lat="43.86515" lon="6.94907">
        <ele>405.1</ele>
        <time>2021-09-19T14:15:58Z</time>
      </trkpt>
      <trkpt lat="43.86517" lon="6.94916">
        <ele>404.9</ele>
        <time>2021-09-19T14:15:59Z</time>
      </trkpt>
      <trkpt lat="43.86518" lon="6.94924">
        <ele>404.4</ele>
        <time>2021-09-19T14:16:00Z</time>
      </trkpt>
      <trkpt lat="43.86519" lon="6.94931">
        <ele>404</ele>
        <time>2021-09-19T14:16:01Z</time>
      </trkpt>
      <trkpt lat="43.86519" lon="6.94936">
        <ele>403.6</ele>
        <time>2021-09-19T14:16:02Z</time>
      </trkpt>
      <trkpt lat="43.8652" lon="6.94948">
        <ele>402.3</ele>
        <time>2021-09-19T14:16:04Z</time>
      </trkpt>
      <trkpt lat="43.86522" lon="6.94955">
        <ele>401.2</ele>
        <time>2021-09-19T14:16:05Z</time>
      </trkpt>
      <trkpt lat="43.86523" lon="6.94961">
        <ele>399.9</ele>
        <time>2021-09-19T14:16:06Z</time>
      </trkpt>
      <trkpt lat="43.86526" lon="6.94975">
        <ele>397</ele>
        <time>2021-09-19T14:16:08Z</time>
      </trkpt>
      <trkpt lat="43.86529" lon="6.94987">
        <ele>394.6</ele>
        <time>2021-09-19T14:16:10Z</time>
      </trkpt>
      <trkpt lat="43.86532" lon="6.94997">
        <ele>392.9</ele>
        <time>2021-09-19T14:16:12Z</time>
      </trkpt>
      <trkpt lat="43.86534" lon="6.95002">
        <ele>392.1</ele>
        <time>2021-09-19T14:16:14Z</time>
      </trkpt>
      <trkpt lat="43.86535" lon="6.95004">
        <ele>391.6</ele>
        <time>2021-09-19T14:16:16Z</time>
      </trkpt>
      <trkpt lat="43.86536" lon="6.95005">
        <ele>391.5</ele>
        <time>2021-09-19T14:16:17Z</time>
      </trkpt>
      <trkpt lat="43.86536" lon="6.95007">
        <ele>391.2</ele>
        <time>2021-09-19T14:16:18Z</time>
      </trkpt>
      <trkpt lat="43.86536" lon="6.95008">
        <ele>390.9</ele>
        <time>2021-09-19T14:16:20Z</time>
      </trkpt>
      <trkpt lat="43.86536" lon="6.9501">
        <ele>390.7</ele>
        <time>2021-09-19T14:16:21Z</time>
      </trkpt>
      <trkpt lat="43.86536" lon="6.95012">
        <ele>390.4</ele>
        <time>2021-09-19T14:16:23Z</time>
      </trkpt>
      <trkpt lat="43.86536" lon="6.95013">
        <ele>390.1</ele>
        <time>2021-09-19T14:16:24Z</time>
      </trkpt>
      <trkpt lat="43.86536" lon="6.95015">
        <ele>389.8</ele>
        <time>2021-09-19T14:16:25Z</time>
      </trkpt>
      <trkpt lat="43.86539" lon="6.95019">
        <ele>388.9</ele>
        <time>2021-09-19T14:16:26Z</time>
      </trkpt>
      <trkpt lat="43.86542" lon="6.95021">
        <ele>388.8</ele>
        <time>2021-09-19T14:16:27Z</time>
      </trkpt>
      <trkpt lat="43.86545" lon="6.95022">
        <ele>388.8</ele>
        <time>2021-09-19T14:16:29Z</time>
      </trkpt>
      <trkpt lat="43.86549" lon="6.95021">
        <ele>388.8</ele>
        <time>2021-09-19T14:16:30Z</time>
      </trkpt>
      <trkpt lat="43.86552" lon="6.95021">
        <ele>388.8</ele>
        <time>2021-09-19T14:16:32Z</time>
      </trkpt>
      <trkpt lat="43.86555" lon="6.95021">
        <ele>388.8</ele>
        <time>2021-09-19T14:16:33Z</time>
      </trkpt>
      <trkpt lat="43.86556" lon="6.95021">
        <ele>388.8</ele>
        <time>2021-09-19T14:16:34Z</time>
      </trkpt>
      <trkpt lat="43.86555" lon="6.95019">
        <ele>388.8</ele>
        <time>2021-09-19T14:16:35Z</time>
      </trkpt>
      <trkpt lat="43.86555" lon="6.95019">
        <ele>388.8</ele>
        <time>2021-09-19T14:16:37Z</time>
      </trkpt>
      <trkpt lat="43.86555" lon="6.95019">
        <ele>388.8</ele>
        <time>2021-09-19T14:16:38Z</time>
      </trkpt>
      <trkpt lat="43.86556" lon="6.9502">
        <ele>388.7</ele>
        <time>2021-09-19T14:16:39Z</time>
      </trkpt>
      <trkpt lat="43.8656" lon="6.95023">
        <ele>388.7</ele>
        <time>2021-09-19T14:16:41Z</time>
      </trkpt>
      <trkpt lat="43.86559" lon="6.95027">
        <ele>388.7</ele>
        <time>2021-09-19T14:16:42Z</time>
      </trkpt>
      <trkpt lat="43.86558" lon="6.95029">
        <ele>388.7</ele>
        <time>2021-09-19T14:16:43Z</time>
      </trkpt>
      <trkpt lat="43.86557" lon="6.95031">
        <ele>388.7</ele>
        <time>2021-09-19T14:16:45Z</time>
      </trkpt>
      <trkpt lat="43.86557" lon="6.95033">
        <ele>388.8</ele>
        <time>2021-09-19T14:16:47Z</time>
      </trkpt>
      <trkpt lat="43.86557" lon="6.95034">
        <ele>388.8</ele>
        <time>2021-09-19T14:16:49Z</time>
      </trkpt>
      <trkpt lat="43.86557" lon="6.95036">
        <ele>388.8</ele>
        <time>2021-09-19T14:16:50Z</time>
      </trkpt>
      <trkpt lat="43.86557" lon="6.95037">
        <ele>388.8</ele>
        <time>2021-09-19T14:16:52Z</time>
      </trkpt>
      <trkpt lat="43.86549" lon="6.9504">
        <ele>388.8</ele>
        <time>2021-09-19T14:17:32Z</time>
      </trkpt>
      <trkpt lat="43.86548" lon="6.95045">
        <ele>388.8</ele>
        <time>2021-09-19T14:17:33Z</time>
      </trkpt>
      <trkpt lat="43.86548" lon="6.95056">
        <ele>388.9</ele>
        <time>2021-09-19T14:17:35Z</time>
      </trkpt>
      <trkpt lat="43.86549" lon="6.95061">
        <ele>389</ele>
        <time>2021-09-19T14:17:36Z</time>
      </trkpt>
      <trkpt lat="43.8655" lon="6.95067">
        <ele>389.1</ele>
        <time>2021-09-19T14:17:37Z</time>
      </trkpt>
      <trkpt lat="43.86553" lon="6.95077">
        <ele>389.3</ele>
        <time>2021-09-19T14:17:39Z</time>
      </trkpt>
      <trkpt lat="43.86554" lon="6.95082">
        <ele>389.4</ele>
        <time>2021-09-19T14:17:41Z</time>
      </trkpt>
      <trkpt lat="43.86554" lon="6.95081">
        <ele>389.4</ele>
        <time>2021-09-19T14:17:42Z</time>
      </trkpt>
      <trkpt lat="43.86555" lon="6.95081">
        <ele>389.5</ele>
        <time>2021-09-19T14:17:44Z</time>
      </trkpt>
      <trkpt lat="43.86555" lon="6.95084">
        <ele>389.6</ele>
        <time>2021-09-19T14:17:45Z</time>
      </trkpt>
      <trkpt lat="43.86557" lon="6.95088">
        <ele>389.8</ele>
        <time>2021-09-19T14:17:47Z</time>
      </trkpt>
      <trkpt lat="43.86557" lon="6.95094">
        <ele>390</ele>
        <time>2021-09-19T14:17:48Z</time>
      </trkpt>
      <trkpt lat="43.86557" lon="6.95097">
        <ele>390.1</ele>
        <time>2021-09-19T14:17:49Z</time>
      </trkpt>
      <trkpt lat="43.86556" lon="6.95101">
        <ele>390.3</ele>
        <time>2021-09-19T14:17:50Z</time>
      </trkpt>
      <trkpt lat="43.86556" lon="6.95106">
        <ele>390.5</ele>
        <time>2021-09-19T14:17:51Z</time>
      </trkpt>
      <trkpt lat="43.86556" lon="6.95107">
        <ele>390.5</ele>
        <time>2021-09-19T14:17:52Z</time>
      </trkpt>
      <trkpt lat="43.86556" lon="6.95109">
        <ele>390.6</ele>
        <time>2021-09-19T14:17:54Z</time>
      </trkpt>
      <trkpt lat="43.86556" lon="6.9511">
        <ele>390.7</ele>
        <time>2021-09-19T14:17:55Z</time>
      </trkpt>
      <trkpt lat="43.86555" lon="6.95115">
        <ele>390.9</ele>
        <time>2021-09-19T14:17:57Z</time>
      </trkpt>
      <trkpt lat="43.86556" lon="6.95117">
        <ele>391</ele>
        <time>2021-09-19T14:17:58Z</time>
      </trkpt>
      <trkpt lat="43.8656" lon="6.95163">
        <ele>392.6</ele>
        <time>2021-09-19T14:18:05Z</time>
      </trkpt>
      <trkpt lat="43.86561" lon="6.9517">
        <ele>392.2</ele>
        <time>2021-09-19T14:18:06Z</time>
      </trkpt>
      <trkpt lat="43.86562" lon="6.95178">
        <ele>391.6</ele>
        <time>2021-09-19T14:18:07Z</time>
      </trkpt>
      <trkpt lat="43.86563" lon="6.95185">
        <ele>391.4</ele>
        <time>2021-09-19T14:18:09Z</time>
      </trkpt>
      <trkpt lat="43.86565" lon="6.95189">
        <ele>391.4</ele>
        <time>2021-09-19T14:18:10Z</time>
      </trkpt>
      <trkpt lat="43.86568" lon="6.95192">
        <ele>391.6</ele>
        <time>2021-09-19T14:18:11Z</time>
      </trkpt>
      <trkpt lat="43.86568" lon="6.95193">
        <ele>391.7</ele>
        <time>2021-09-19T14:18:12Z</time>
      </trkpt>
      <trkpt lat="43.86572" lon="6.95195">
        <ele>392</ele>
        <time>2021-09-19T14:18:13Z</time>
      </trkpt>
      <trkpt lat="43.86574" lon="6.95195">
        <ele>392.1</ele>
        <time>2021-09-19T14:18:14Z</time>
      </trkpt>
      <trkpt lat="43.86577" lon="6.95196">
        <ele>392.4</ele>
        <time>2021-09-19T14:18:16Z</time>
      </trkpt>
      <trkpt lat="43.8658" lon="6.95196">
        <ele>392.7</ele>
        <time>2021-09-19T14:18:17Z</time>
      </trkpt>
      <trkpt lat="43.86584" lon="6.95196">
        <ele>393.2</ele>
        <time>2021-09-19T14:18:18Z</time>
      </trkpt>
      <trkpt lat="43.86587" lon="6.95197">
        <ele>393.5</ele>
        <time>2021-09-19T14:18:20Z</time>
      </trkpt>
      <trkpt lat="43.86589" lon="6.95202">
        <ele>393.5</ele>
        <time>2021-09-19T14:18:21Z</time>
      </trkpt>
      <trkpt lat="43.86593" lon="6.9521">
        <ele>393.4</ele>
        <time>2021-09-19T14:18:22Z</time>
      </trkpt>
      <trkpt lat="43.86595" lon="6.95215">
        <ele>393.3</ele>
        <time>2021-09-19T14:18:23Z</time>
      </trkpt>
      <trkpt lat="43.86597" lon="6.95219">
        <ele>393.2</ele>
        <time>2021-09-19T14:18:25Z</time>
      </trkpt>
      <trkpt lat="43.86599" lon="6.95224">
        <ele>393.1</ele>
        <time>2021-09-19T14:18:26Z</time>
      </trkpt>
      <trkpt lat="43.86601" lon="6.95229">
        <ele>393</ele>
        <time>2021-09-19T14:18:27Z</time>
      </trkpt>
      <trkpt lat="43.86602" lon="6.95237">
        <ele>392.8</ele>
        <time>2021-09-19T14:18:29Z</time>
      </trkpt>
      <trkpt lat="43.86602" lon="6.95243">
        <ele>392.6</ele>
        <time>2021-09-19T14:18:30Z</time>
      </trkpt>
      <trkpt lat="43.86602" lon="6.95249">
        <ele>392.5</ele>
        <time>2021-09-19T14:18:31Z</time>
      </trkpt>
      <trkpt lat="43.86602" lon="6.95254">
        <ele>392.3</ele>
        <time>2021-09-19T14:18:32Z</time>
      </trkpt>
      <trkpt lat="43.86601" lon="6.95261">
        <ele>392.1</ele>
        <time>2021-09-19T14:18:33Z</time>
      </trkpt>
      <trkpt lat="43.866" lon="6.95266">
        <ele>391.9</ele>
        <time>2021-09-19T14:18:34Z</time>
      </trkpt>
      <trkpt lat="43.866" lon="6.95272">
        <ele>391.6</ele>
        <time>2021-09-19T14:18:36Z</time>
      </trkpt>
      <trkpt lat="43.86599" lon="6.9528">
        <ele>391.2</ele>
        <time>2021-09-19T14:18:37Z</time>
      </trkpt>
      <trkpt lat="43.86598" lon="6.95293">
        <ele>390.5</ele>
        <time>2021-09-19T14:18:38Z</time>
      </trkpt>
      <trkpt lat="43.86597" lon="6.95303">
        <ele>389.9</ele>
        <time>2021-09-19T14:18:40Z</time>
      </trkpt>
      <trkpt lat="43.86594" lon="6.95321">
        <ele>388.9</ele>
        <time>2021-09-19T14:18:41Z</time>
      </trkpt>
      <trkpt lat="43.8661" lon="6.95482">
        <ele>383.7</ele>
        <time>2021-09-19T14:18:54Z</time>
      </trkpt>
      <trkpt lat="43.86609" lon="6.95507">
        <ele>382.7</ele>
        <time>2021-09-19T14:18:56Z</time>
      </trkpt>
      <trkpt lat="43.86607" lon="6.95527">
        <ele>382.2</ele>
        <time>2021-09-19T14:18:58Z</time>
      </trkpt>
      <trkpt lat="43.86605" lon="6.95537">
        <ele>381.9</ele>
        <time>2021-09-19T14:18:59Z</time>
      </trkpt>
      <trkpt lat="43.866" lon="6.95556">
        <ele>381.2</ele>
        <time>2021-09-19T14:19:01Z</time>
      </trkpt>
      <trkpt lat="43.86596" lon="6.95566">
        <ele>380.8</ele>
        <time>2021-09-19T14:19:02Z</time>
      </trkpt>
      <trkpt lat="43.86585" lon="6.95585">
        <ele>380</ele>
        <time>2021-09-19T14:19:04Z</time>
      </trkpt>
      <trkpt lat="43.8658" lon="6.95593">
        <ele>379.6</ele>
        <time>2021-09-19T14:19:05Z</time>
      </trkpt>
      <trkpt lat="43.86575" lon="6.95601">
        <ele>379.3</ele>
        <time>2021-09-19T14:19:06Z</time>
      </trkpt>
      <trkpt lat="43.86565" lon="6.95615">
        <ele>378.7</ele>
        <time>2021-09-19T14:19:08Z</time>
      </trkpt>
      <trkpt lat="43.86554" lon="6.95625">
        <ele>378</ele>
        <time>2021-09-19T14:19:10Z</time>
      </trkpt>
      <trkpt lat="43.86545" lon="6.95633">
        <ele>377.5</ele>
        <time>2021-09-19T14:19:12Z</time>
      </trkpt>
      <trkpt lat="43.86537" lon="6.95639">
        <ele>377.1</ele>
        <time>2021-09-19T14:19:14Z</time>
      </trkpt>
      <trkpt lat="43.86533" lon="6.95642">
        <ele>376.9</ele>
        <time>2021-09-19T14:19:15Z</time>
      </trkpt>
      <trkpt lat="43.86529" lon="6.95645">
        <ele>376.8</ele>
        <time>2021-09-19T14:19:16Z</time>
      </trkpt>
      <trkpt lat="43.86525" lon="6.95648">
        <ele>376.6</ele>
        <time>2021-09-19T14:19:17Z</time>
      </trkpt>
      <trkpt lat="43.8652" lon="6.95649">
        <ele>376.5</ele>
        <time>2021-09-19T14:19:18Z</time>
      </trkpt>
      <trkpt lat="43.86514" lon="6.95651">
        <ele>376.3</ele>
        <time>2021-09-19T14:19:20Z</time>
      </trkpt>
      <trkpt lat="43.86509" lon="6.95652">
        <ele>376.1</ele>
        <time>2021-09-19T14:19:21Z</time>
      </trkpt>
      <trkpt lat="43.86504" lon="6.95654">
        <ele>376</ele>
        <time>2021-09-19T14:19:23Z</time>
      </trkpt>
      <trkpt lat="43.86504" lon="6.95659">
        <ele>376.1</ele>
        <time>2021-09-19T14:19:25Z</time>
      </trkpt>
      <trkpt lat="43.86505" lon="6.95661">
        <ele>376.2</ele>
        <time>2021-09-19T14:19:26Z</time>
      </trkpt>
      <trkpt lat="43.86505" lon="6.95661">
        <ele>376.2</ele>
        <time>2021-09-19T14:19:27Z</time>
      </trkpt>
      <trkpt lat="43.86507" lon="6.95668">
        <ele>376.3</ele>
        <time>2021-09-19T14:19:29Z</time>
      </trkpt>
      <trkpt lat="43.86508" lon="6.95673">
        <ele>376.3</ele>
        <time>2021-09-19T14:19:30Z</time>
      </trkpt>
      <trkpt lat="43.86509" lon="6.95679">
        <ele>376.4</ele>
        <time>2021-09-19T14:19:31Z</time>
      </trkpt>
      <trkpt lat="43.8651" lon="6.95688">
        <ele>376.5</ele>
        <time>2021-09-19T14:19:32Z</time>
      </trkpt>
      <trkpt lat="43.86513" lon="6.95696">
        <ele>376.6</ele>
        <time>2021-09-19T14:19:34Z</time>
      </trkpt>
      <trkpt lat="43.86514" lon="6.95704">
        <ele>376.7</ele>
        <time>2021-09-19T14:19:35Z</time>
      </trkpt>
      <trkpt lat="43.86514" lon="6.95711">
        <ele>376.9</ele>
        <time>2021-09-19T14:19:36Z</time>
      </trkpt>
      <trkpt lat="43.86516" lon="6.95724">
        <ele>377.1</ele>
        <time>2021-09-19T14:19:38Z</time>
      </trkpt>
      <trkpt lat="43.86515" lon="6.95734">
        <ele>377.3</ele>
        <time>2021-09-19T14:19:40Z</time>
      </trkpt>
      <trkpt lat="43.86518" lon="6.95741">
        <ele>377.5</ele>
        <time>2021-09-19T14:19:41Z</time>
      </trkpt>
      <trkpt lat="43.86522" lon="6.95749">
        <ele>377.7</ele>
        <time>2021-09-19T14:19:43Z</time>
      </trkpt>
      <trkpt lat="43.86522" lon="6.95752">
        <ele>377.7</ele>
        <time>2021-09-19T14:19:44Z</time>
      </trkpt>
      <trkpt lat="43.86522" lon="6.95754">
        <ele>377.8</ele>
        <time>2021-09-19T14:19:45Z</time>
      </trkpt>
      <trkpt lat="43.86522" lon="6.95755">
        <ele>377.8</ele>
        <time>2021-09-19T14:19:47Z</time>
      </trkpt>
      <trkpt lat="43.86523" lon="6.95752">
        <ele>377.8</ele>
        <time>2021-09-19T14:19:49Z</time>
      </trkpt>
      <trkpt lat="43.86523" lon="6.95752">
        <ele>377.8</ele>
        <time>2021-09-19T14:19:51Z</time>
      </trkpt>
      <trkpt lat="43.86523" lon="6.95752">
        <ele>377.8</ele>
        <time>2021-09-19T14:19:52Z</time>
      </trkpt>
      <trkpt lat="43.86523" lon="6.95752">
        <ele>377.8</ele>
        <time>2021-09-19T14:19:53Z</time>
      </trkpt>
      <trkpt lat="43.86523" lon="6.95752">
        <ele>377.8</ele>
        <time>2021-09-19T14:19:54Z</time>
      </trkpt>
      <trkpt lat="43.86523" lon="6.95752">
        <ele>377.8</ele>
        <time>2021-09-19T14:19:56Z</time>
      </trkpt>
      <trkpt lat="43.86518" lon="6.9575">
        <ele>378</ele>
        <time>2021-09-19T14:20:21Z</time>
      </trkpt>
      <trkpt lat="43.8652" lon="6.95753">
        <ele>378.1</ele>
        <time>2021-09-19T14:20:22Z</time>
      </trkpt>
      <trkpt lat="43.86525" lon="6.9576">
        <ele>378.3</ele>
        <time>2021-09-19T14:20:23Z</time>
      </trkpt>
      <trkpt lat="43.86528" lon="6.95768">
        <ele>378.4</ele>
        <time>2021-09-19T14:20:25Z</time>
      </trkpt>
      <trkpt lat="43.86535" lon="6.9578">
        <ele>378.6</ele>
        <time>2021-09-19T14:20:26Z</time>
      </trkpt>
      <trkpt lat="43.8654" lon="6.95796">
        <ele>378.9</ele>
        <time>2021-09-19T14:20:28Z</time>
      </trkpt>
      <trkpt lat="43.86542" lon="6.95803">
        <ele>379.1</ele>
        <time>2021-09-19T14:20:29Z</time>
      </trkpt>
      <trkpt lat="43.86543" lon="6.9581">
        <ele>379.2</ele>
        <time>2021-09-19T14:20:30Z</time>
      </trkpt>
      <trkpt lat="43.86543" lon="6.95816">
        <ele>379.4</ele>
        <time>2021-09-19T14:20:31Z</time>
      </trkpt>
      <trkpt lat="43.86545" lon="6.95828">
        <ele>379.6</ele>
        <time>2021-09-19T14:20:33Z</time>
      </trkpt>
      <trkpt lat="43.86549" lon="6.95834">
        <ele>379.7</ele>
        <time>2021-09-19T14:20:34Z</time>
      </trkpt>
      <trkpt lat="43.86551" lon="6.95841">
        <ele>379.9</ele>
        <time>2021-09-19T14:20:35Z</time>
      </trkpt>
      <trkpt lat="43.86553" lon="6.95847">
        <ele>380.1</ele>
        <time>2021-09-19T14:20:36Z</time>
      </trkpt>
      <trkpt lat="43.86557" lon="6.95854">
        <ele>380.3</ele>
        <time>2021-09-19T14:20:37Z</time>
      </trkpt>
      <trkpt lat="43.8656" lon="6.95861">
        <ele>380.5</ele>
        <time>2021-09-19T14:20:39Z</time>
      </trkpt>
      <trkpt lat="43.86563" lon="6.95867">
        <ele>380.7</ele>
        <time>2021-09-19T14:20:40Z</time>
      </trkpt>
      <trkpt lat="43.86563" lon="6.95873">
        <ele>380.8</ele>
        <time>2021-09-19T14:20:41Z</time>
      </trkpt>
      <trkpt lat="43.86563" lon="6.95875">
        <ele>380.8</ele>
        <time>2021-09-19T14:20:42Z</time>
      </trkpt>
      <trkpt lat="43.86566" lon="6.95882">
        <ele>381</ele>
        <time>2021-09-19T14:20:43Z</time>
      </trkpt>
      <trkpt lat="43.86569" lon="6.9589">
        <ele>381.2</ele>
        <time>2021-09-19T14:20:44Z</time>
      </trkpt>
      <trkpt lat="43.86572" lon="6.95899">
        <ele>381.4</ele>
        <time>2021-09-19T14:20:46Z</time>
      </trkpt>
      <trkpt lat="43.86575" lon="6.95906">
        <ele>381.6</ele>
        <time>2021-09-19T14:20:47Z</time>
      </trkpt>
      <trkpt lat="43.86579" lon="6.9592">
        <ele>382</ele>
        <time>2021-09-19T14:20:49Z</time>
      </trkpt>
      <trkpt lat="43.86582" lon="6.95928">
        <ele>382.2</ele>
        <time>2021-09-19T14:20:50Z</time>
      </trkpt>
      <trkpt lat="43.86586" lon="6.95942">
        <ele>382.6</ele>
        <time>2021-09-19T14:20:52Z</time>
      </trkpt>
      <trkpt lat="43.86588" lon="6.95949">
        <ele>382.7</ele>
        <time>2021-09-19T14:20:53Z</time>
      </trkpt>
      <trkpt lat="43.8659" lon="6.95955">
        <ele>382.9</ele>
        <time>2021-09-19T14:20:54Z</time>
      </trkpt>
      <trkpt lat="43.86592" lon="6.95966">
        <ele>383.1</ele>
        <time>2021-09-19T14:20:56Z</time>
      </trkpt>
      <trkpt lat="43.86593" lon="6.95974">
        <ele>383.2</ele>
        <time>2021-09-19T14:20:57Z</time>
      </trkpt>
      <trkpt lat="43.86591" lon="6.95975">
        <ele>383.2</ele>
        <time>2021-09-19T14:20:59Z</time>
      </trkpt>
      <trkpt lat="43.8659" lon="6.95977">
        <ele>383.2</ele>
        <time>2021-09-19T14:21:01Z</time>
      </trkpt>
      <trkpt lat="43.86577" lon="6.95977">
        <ele>383.1</ele>
        <time>2021-09-19T14:21:03Z</time>
      </trkpt>
      <trkpt lat="43.86565" lon="6.95977">
        <ele>382.4</ele>
        <time>2021-09-19T14:21:06Z</time>
      </trkpt>
      <trkpt lat="43.86554" lon="6.95977">
        <ele>381.7</ele>
        <time>2021-09-19T14:21:07Z</time>
      </trkpt>
      <trkpt lat="43.86542" lon="6.95977">
        <ele>381</ele>
        <time>2021-09-19T14:22:28Z</time>
      </trkpt>
      <trkpt lat="43.8653" lon="6.95976">
        <ele>380</ele>
        <time>2021-09-19T14:22:29Z</time>
      </trkpt>
      <trkpt lat="43.86523" lon="6.95989">
        <ele>379.8</ele>
        <time>2021-09-19T14:22:31Z</time>
      </trkpt>
      <trkpt lat="43.86518" lon="6.96002">
        <ele>379.7</ele>
        <time>2021-09-19T14:22:33Z</time>
      </trkpt>
      <trkpt lat="43.86518" lon="6.96014">
        <ele>379.7</ele>
        <time>2021-09-19T14:22:35Z</time>
      </trkpt>
      <trkpt lat="43.86521" lon="6.96019">
        <ele>379.6</ele>
        <time>2021-09-19T14:22:36Z</time>
      </trkpt>
      <trkpt lat="43.86523" lon="6.96024">
        <ele>379.6</ele>
        <time>2021-09-19T14:22:37Z</time>
      </trkpt>
      <trkpt lat="43.86525" lon="6.9603">
        <ele>379.6</ele>
        <time>2021-09-19T14:22:39Z</time>
      </trkpt>
      <trkpt lat="43.86533" lon="6.96024">
        <ele>379.7</ele>
        <time>2021-09-19T14:22:40Z</time>
      </trkpt>
      <trkpt lat="43.86537" lon="6.96023">
        <ele>379.7</ele>
        <time>2021-09-19T14:22:42Z</time>
      </trkpt>
      <trkpt lat="43.86541" lon="6.96024">
        <ele>379.7</ele>
        <time>2021-09-19T14:22:43Z</time>
      </trkpt>
      <trkpt lat="43.86543" lon="6.96028">
        <ele>379.8</ele>
        <time>2021-09-19T14:22:44Z</time>
      </trkpt>
      <trkpt lat="43.86543" lon="6.96029">
        <ele>379.8</ele>
        <time>2021-09-19T14:22:45Z</time>
      </trkpt>
      <trkpt lat="43.86544" lon="6.96032">
        <ele>379.8</ele>
        <time>2021-09-19T14:22:46Z</time>
      </trkpt>
      <trkpt lat="43.86544" lon="6.96036">
        <ele>379.8</ele>
        <time>2021-09-19T14:22:48Z</time>
      </trkpt>
      <trkpt lat="43.86544" lon="6.96049">
        <ele>379.9</ele>
        <time>2021-09-19T14:22:50Z</time>
      </trkpt>
      <trkpt lat="43.86544" lon="6.96054">
        <ele>379.9</ele>
        <time>2021-09-19T14:22:51Z</time>
      </trkpt>
      <trkpt lat="43.86543" lon="6.96068">
        <ele>380.3</ele>
        <time>2021-09-19T14:22:52Z</time>
      </trkpt>
      <trkpt lat="43.86543" lon="6.96078">
        <ele>380.4</ele>
        <time>2021-09-19T14:22:54Z</time>
      </trkpt>
      <trkpt lat="43.86544" lon="6.96085">
        <ele>380.4</ele>
        <time>2021-09-19T14:22:55Z</time>
      </trkpt>
      <trkpt lat="43.86545" lon="6.96087">
        <ele>380.5</ele>
        <time>2021-09-19T14:22:56Z</time>
      </trkpt>
      <trkpt lat="43.86545" lon="6.96089">
        <ele>380.5</ele>
        <time>2021-09-19T14:22:58Z</time>
      </trkpt>
      <trkpt lat="43.86545" lon="6.9609">
        <ele>380.6</ele>
        <time>2021-09-19T14:22:59Z</time>
      </trkpt>
      <trkpt lat="43.86545" lon="6.96091">
        <ele>380.6</ele>
        <time>2021-09-19T14:23:01Z</time>
      </trkpt>
      <trkpt lat="43.86552" lon="6.96152">
        <ele>386.7</ele>
        <time>2021-09-19T14:24:11Z</time>
      </trkpt>
      <trkpt lat="43.86551" lon="6.96155">
        <ele>386.9</ele>
        <time>2021-09-19T14:24:12Z</time>
      </trkpt>
      <trkpt lat="43.8655" lon="6.96159">
        <ele>387.2</ele>
        <time>2021-09-19T14:24:14Z</time>
      </trkpt>
      <trkpt lat="43.8655" lon="6.9616">
        <ele>387.3</ele>
        <time>2021-09-19T14:24:15Z</time>
      </trkpt>
      <trkpt lat="43.8655" lon="6.96161">
        <ele>387.3</ele>
        <time>2021-09-19T14:24:16Z</time>
      </trkpt>
      <trkpt lat="43.8655" lon="6.96165">
        <ele>387.6</ele>
        <time>2021-09-19T14:24:17Z</time>
      </trkpt>
      <trkpt lat="43.8655" lon="6.96166">
        <ele>387.7</ele>
        <time>2021-09-19T14:24:18Z</time>
      </trkpt>
      <trkpt lat="43.86551" lon="6.96168">
        <ele>387.8</ele>
        <time>2021-09-19T14:24:20Z</time>
      </trkpt>
      <trkpt lat="43.86551" lon="6.96169">
        <ele>387.9</ele>
        <time>2021-09-19T14:24:21Z</time>
      </trkpt>
      <trkpt lat="43.86551" lon="6.9617">
        <ele>388</ele>
        <time>2021-09-19T14:24:23Z</time>
      </trkpt>
      <trkpt lat="43.86551" lon="6.96171">
        <ele>388</ele>
        <time>2021-09-19T14:24:24Z</time>
      </trkpt>
      <trkpt lat="43.86551" lon="6.96171">
        <ele>388</ele>
        <time>2021-09-19T14:24:25Z</time>
      </trkpt>
      <trkpt lat="43.86551" lon="6.96171">
        <ele>388.1</ele>
        <time>2021-09-19T14:24:27Z</time>
      </trkpt>
      <trkpt lat="43.86551" lon="6.96171">
        <ele>388.1</ele>
        <time>2021-09-19T14:24:28Z</time>
      </trkpt>
      <trkpt lat="43.86388" lon="6.96349">
        <ele>428.8</ele>
        <time>2021-09-19T14:32:23Z</time>
      </trkpt>
      <trkpt lat="43.86386" lon="6.96353">
        <ele>429.7</ele>
        <time>2021-09-19T14:32:24Z</time>
      </trkpt>
      <trkpt lat="43.86386" lon="6.96355">
        <ele>430</ele>
        <time>2021-09-19T14:32:25Z</time>
      </trkpt>
      <trkpt lat="43.86385" lon="6.96356">
        <ele>430.2</ele>
        <time>2021-09-19T14:32:26Z</time>
      </trkpt>
      <trkpt lat="43.86384" lon="6.96356">
        <ele>430.3</ele>
        <time>2021-09-19T14:32:27Z</time>
      </trkpt>
      <trkpt lat="43.86384" lon="6.96356">
        <ele>430.4</ele>
        <time>2021-09-19T14:32:29Z</time>
      </trkpt>
      <trkpt lat="43.86384" lon="6.96356">
        <ele>430.4</ele>
        <time>2021-09-19T14:32:30Z</time>
      </trkpt>
      <trkpt lat="43.86384" lon="6.96356">
        <ele>430.4</ele>
        <time>2021-09-19T14:32:31Z</time>
      </trkpt>
      <trkpt lat="43.86384" lon="6.96356">
        <ele>430.5</ele>
        <time>2021-09-19T14:32:32Z</time>
      </trkpt>
      <trkpt lat="43.86384" lon="6.96355">
        <ele>430.5</ele>
        <time>2021-09-19T14:32:34Z</time>
      </trkpt>
      <trkpt lat="43.86384" lon="6.96355">
        <ele>430.5</ele>
        <time>2021-09-19T14:32:35Z</time>
      </trkpt>
      <trkpt lat="43.86383" lon="6.96355">
        <ele>430.6</ele>
        <time>2021-09-19T14:32:37Z</time>
      </trkpt>
      <trkpt lat="43.86345" lon="6.96361">
        <ele>438.3</ele>
        <time>2021-09-19T14:33:26Z</time>
      </trkpt>
      <trkpt lat="43.86342" lon="6.9636">
        <ele>439</ele>
        <time>2021-09-19T14:33:27Z</time>
      </trkpt>
      <trkpt lat="43.8634" lon="6.96359">
        <ele>439.4</ele>
        <time>2021-09-19T14:33:28Z</time>
      </trkpt>
      <trkpt lat="43.86339" lon="6.96359">
        <ele>439.7</ele>
        <time>2021-09-19T14:33:29Z</time>
      </trkpt>
      <trkpt lat="43.86338" lon="6.96362">
        <ele>440.1</ele>
        <time>2021-09-19T14:33:30Z</time>
      </trkpt>
      <trkpt lat="43.86338" lon="6.96365">
        <ele>440.7</ele>
        <time>2021-09-19T14:33:32Z</time>
      </trkpt>
      <trkpt lat="43.86339" lon="6.96369">
        <ele>441.2</ele>
        <time>2021-09-19T14:33:33Z</time>
      </trkpt>
      <trkpt lat="43.86339" lon="6.96373">
        <ele>441.7</ele>
        <time>2021-09-19T14:33:34Z</time>
      </trkpt>
      <trkpt lat="43.86339" lon="6.96376">
        <ele>442.2</ele>
        <time>2021-09-19T14:33:36Z</time>
      </trkpt>
      <trkpt lat="43.86339" lon="6.9638">
        <ele>442.6</ele>
        <time>2021-09-19T14:33:38Z</time>
      </trkpt>
      <trkpt lat="43.86339" lon="6.96384">
        <ele>443</ele>
        <time>2021-09-19T14:33:39Z</time>
      </trkpt>
      <trkpt lat="43.86339" lon="6.96388">
        <ele>443.4</ele>
        <time>2021-09-19T14:33:40Z</time>
      </trkpt>
      <trkpt lat="43.8634" lon="6.96391">
        <ele>443.7</ele>
        <time>2021-09-19T14:33:41Z</time>
      </trkpt>
      <trkpt lat="43.8634" lon="6.96395">
        <ele>444.1</ele>
        <time>2021-09-19T14:33:43Z</time>
      </trkpt>
      <trkpt lat="43.8634" lon="6.96399">
        <ele>444.5</ele>
        <time>2021-09-19T14:34:52Z</time>
      </trkpt>
      <trkpt lat="43.8634" lon="6.96403">
        <ele>444.9</ele>
        <time>2021-09-19T14:34:53Z</time>
      </trkpt>
      <trkpt lat="43.86344" lon="6.96412">
        <ele>445.8</ele>
        <time>2021-09-19T14:34:55Z</time>
      </trkpt>
      <trkpt lat="43.86344" lon="6.96417">
        <ele>446.3</ele>
        <time>2021-09-19T14:34:56Z</time>
      </trkpt>
      <trkpt lat="43.86343" lon="6.96421">
        <ele>446.4</ele>
        <time>2021-09-19T14:34:57Z</time>
      </trkpt>
      <trkpt lat="43.86343" lon="6.96422">
        <ele>446.4</ele>
        <time>2021-09-19T14:34:58Z</time>
      </trkpt>
      <trkpt lat="43.8634" lon="6.96426">
        <ele>446.5</ele>
        <time>2021-09-19T14:35:00Z</time>
      </trkpt>
      <trkpt lat="43.86336" lon="6.96431">
        <ele>446.7</ele>
        <time>2021-09-19T14:35:01Z</time>
      </trkpt>
      <trkpt lat="43.86331" lon="6.96442">
        <ele>446.9</ele>
        <time>2021-09-19T14:35:03Z</time>
      </trkpt>
      <trkpt lat="43.86327" lon="6.96456">
        <ele>447.3</ele>
        <time>2021-09-19T14:35:04Z</time>
      </trkpt>
      <trkpt lat="43.86325" lon="6.96467">
        <ele>447.6</ele>
        <time>2021-09-19T14:35:05Z</time>
      </trkpt>
      <trkpt lat="43.86321" lon="6.96488">
        <ele>448.2</ele>
        <time>2021-09-19T14:35:06Z</time>
      </trkpt>
      <trkpt lat="43.8632" lon="6.96493">
        <ele>448.4</ele>
        <time>2021-09-19T14:35:07Z</time>
      </trkpt>
      <trkpt lat="43.86316" lon="6.96503">
        <ele>448.9</ele>
        <time>2021-09-19T14:35:09Z</time>
      </trkpt>
      <trkpt lat="43.86314" lon="6.9651">
        <ele>449.4</ele>
        <time>2021-09-19T14:35:11Z</time>
      </trkpt>
      <trkpt lat="43.86311" lon="6.96516">
        <ele>449.9</ele>
        <time>2021-09-19T14:35:12Z</time>
      </trkpt>
      <trkpt lat="43.86308" lon="6.96521">
        <ele>450.4</ele>
        <time>2021-09-19T14:35:13Z</time>
      </trkpt>
      <trkpt lat="43.86308" lon="6.96524">
        <ele>450.6</ele>
        <time>2021-09-19T14:35:15Z</time>
      </trkpt>
      <trkpt lat="43.86306" lon="6.96528">
        <ele>451</ele>
        <time>2021-09-19T14:35:17Z</time>
      </trkpt>
      <trkpt lat="43.86305" lon="6.96534">
        <ele>451.4</ele>
        <time>2021-09-19T14:35:18Z</time>
      </trkpt>
      <trkpt lat="43.86305" lon="6.96537">
        <ele>451.6</ele>
        <time>2021-09-19T14:35:19Z</time>
      </trkpt>
      <trkpt lat="43.86305" lon="6.96537">
        <ele>451.6</ele>
        <time>2021-09-19T14:35:19Z</time>
      </trkpt>
      <trkpt lat="43.86306" lon="6.96541">
        <ele>451.9</ele>
        <time>2021-09-19T14:35:21Z</time>
      </trkpt>
      <trkpt lat="43.86306" lon="6.96542">
        <ele>452</ele>
        <time>2021-09-19T14:35:22Z</time>
      </trkpt>
      <trkpt lat="43.86307" lon="6.96546">
        <ele>452.2</ele>
        <time>2021-09-19T14:35:23Z</time>
      </trkpt>
      <trkpt lat="43.86308" lon="6.96547">
        <ele>452.3</ele>
        <time>2021-09-19T14:35:25Z</time>
      </trkpt>
      <trkpt lat="43.86307" lon="6.96549">
        <ele>452.4</ele>
        <time>2021-09-19T14:35:26Z</time>
      </trkpt>
      <trkpt lat="43.86304" lon="6.9655">
        <ele>452.6</ele>
        <time>2021-09-19T14:35:27Z</time>
      </trkpt>
      <trkpt lat="43.86302" lon="6.96551">
        <ele>452.7</ele>
        <time>2021-09-19T14:35:28Z</time>
      </trkpt>
      <trkpt lat="43.863" lon="6.96551">
        <ele>452.9</ele>
        <time>2021-09-19T14:35:29Z</time>
      </trkpt>
      <trkpt lat="43.86298" lon="6.96552">
        <ele>453</ele>
        <time>2021-09-19T14:35:31Z</time>
      </trkpt>
      <trkpt lat="43.86296" lon="6.96553">
        <ele>453.1</ele>
        <time>2021-09-19T14:35:33Z</time>
      </trkpt>
      <trkpt lat="43.86294" lon="6.96553">
        <ele>453.2</ele>
        <time>2021-09-19T14:35:34Z</time>
      </trkpt>
      <trkpt lat="43.86292" lon="6.96554">
        <ele>453.3</ele>
        <time>2021-09-19T14:35:35Z</time>
      </trkpt>
      <trkpt lat="43.86285" lon="6.96554">
        <ele>453.8</ele>
        <time>2021-09-19T14:35:36Z</time>
      </trkpt>
      <trkpt lat="43.86278" lon="6.96554">
        <ele>454.3</ele>
        <time>2021-09-19T14:35:37Z</time>
      </trkpt>
      <trkpt lat="43.86272" lon="6.96556">
        <ele>455</ele>
        <time>2021-09-19T14:35:39Z</time>
      </trkpt>
      <trkpt lat="43.86268" lon="6.96556">
        <ele>455.4</ele>
        <time>2021-09-19T14:35:40Z</time>
      </trkpt>
      <trkpt lat="43.86264" lon="6.96554">
        <ele>455.8</ele>
        <time>2021-09-19T14:35:41Z</time>
      </trkpt>
      <trkpt lat="43.86261" lon="6.96552">
        <ele>456.2</ele>
        <time>2021-09-19T14:35:43Z</time>
      </trkpt>
      <trkpt lat="43.8626" lon="6.96551">
        <ele>456.3</ele>
        <time>2021-09-19T14:35:44Z</time>
      </trkpt>
      <trkpt lat="43.86259" lon="6.96551">
        <ele>456.4</ele>
        <time>2021-09-19T14:35:46Z</time>
      </trkpt>
      <trkpt lat="43.86258" lon="6.9655">
        <ele>456.5</ele>
        <time>2021-09-19T14:35:47Z</time>
      </trkpt>
      <trkpt lat="43.86309" lon="6.96613">
        <ele>457.4</ele>
        <time>2021-09-19T14:36:46Z</time>
      </trkpt>
      <trkpt lat="43.86311" lon="6.96625">
        <ele>457.9</ele>
        <time>2021-09-19T14:36:48Z</time>
      </trkpt>
      <trkpt lat="43.86312" lon="6.96636">
        <ele>458.6</ele>
        <time>2021-09-19T14:36:49Z</time>
      </trkpt>
      <trkpt lat="43.86312" lon="6.96641">
        <ele>458.9</ele>
        <time>2021-09-19T14:36:50Z</time>
      </trkpt>
      <trkpt lat="43.86312" lon="6.96645">
        <ele>459.1</ele>
        <time>2021-09-19T14:36:51Z</time>
      </trkpt>
      <trkpt lat="43.86309" lon="6.96661">
        <ele>459.9</ele>
        <time>2021-09-19T14:36:53Z</time>
      </trkpt>
      <trkpt lat="43.86308" lon="6.96667">
        <ele>460.1</ele>
        <time>2021-09-19T14:36:54Z</time>
      </trkpt>
      <trkpt lat="43.86306" lon="6.96675">
        <ele>460.3</ele>
        <time>2021-09-19T14:36:56Z</time>
      </trkpt>
      <trkpt lat="43.86304" lon="6.9668">
        <ele>460.5</ele>
        <time>2021-09-19T14:36:57Z</time>
      </trkpt>
      <trkpt lat="43.86303" lon="6.96682">
        <ele>460.6</ele>
        <time>2021-09-19T14:36:59Z</time>
      </trkpt>
      <trkpt lat="43.86349" lon="6.96836">
        <ele>466.5</ele>
        <time>2021-09-19T14:37:55Z</time>
      </trkpt>
      <trkpt lat="43.86345" lon="6.96845">
        <ele>467</ele>
        <time>2021-09-19T14:37:57Z</time>
      </trkpt>
      <trkpt lat="43.86345" lon="6.9685">
        <ele>467.3</ele>
        <time>2021-09-19T14:37:59Z</time>
      </trkpt>
      <trkpt lat="43.86341" lon="6.96856">
        <ele>467.7</ele>
        <time>2021-09-19T14:38:01Z</time>
      </trkpt>
      <trkpt lat="43.86339" lon="6.96858">
        <ele>467.9</ele>
        <time>2021-09-19T14:38:02Z</time>
      </trkpt>
      <trkpt lat="43.86335" lon="6.96865">
        <ele>468.5</ele>
        <time>2021-09-19T14:38:04Z</time>
      </trkpt>
      <trkpt lat="43.86335" lon="6.96868">
        <ele>468.7</ele>
        <time>2021-09-19T14:38:06Z</time>
      </trkpt>
      <trkpt lat="43.86335" lon="6.96873">
        <ele>469</ele>
        <time>2021-09-19T14:38:08Z</time>
      </trkpt>
      <trkpt lat="43.86336" lon="6.96879">
        <ele>469.3</ele>
        <time>2021-09-19T14:38:09Z</time>
      </trkpt>
      <trkpt lat="43.86334" lon="6.96886">
        <ele>469.8</ele>
        <time>2021-09-19T14:38:10Z</time>
      </trkpt>
      <trkpt lat="43.86332" lon="6.96892">
        <ele>470.1</ele>
        <time>2021-09-19T14:38:12Z</time>
      </trkpt>
      <trkpt lat="43.86331" lon="6.96898">
        <ele>470.4</ele>
        <time>2021-09-19T14:38:13Z</time>
      </trkpt>
      <trkpt lat="43.86331" lon="6.96903">
        <ele>470.6</ele>
        <time>2021-09-19T14:38:15Z</time>
      </trkpt>
      <trkpt lat="43.86332" lon="6.96905">
        <ele>470.6</ele>
        <time>2021-09-19T14:38:16Z</time>
      </trkpt>
      <trkpt lat="43.86334" lon="6.96906">
        <ele>470.7</ele>
        <time>2021-09-19T14:38:18Z</time>
      </trkpt>
      <trkpt lat="43.86335" lon="6.96906">
        <ele>470.7</ele>
        <time>2021-09-19T14:38:19Z</time>
      </trkpt>
      <trkpt lat="43.86336" lon="6.96907">
        <ele>470.8</ele>
        <time>2021-09-19T14:38:20Z</time>
      </trkpt>
      <trkpt lat="43.86338" lon="6.96908">
        <ele>470.8</ele>
        <time>2021-09-19T14:38:22Z</time>
      </trkpt>
      <trkpt lat="43.86339" lon="6.96908">
        <ele>470.8</ele>
        <time>2021-09-19T14:38:23Z</time>
      </trkpt>
      <trkpt lat="43.86341" lon="6.96908">
        <ele>470.8</ele>
        <time>2021-09-19T14:38:24Z</time>
      </trkpt>
      <trkpt lat="43.86342" lon="6.96908">
        <ele>470.8</ele>
        <time>2021-09-19T14:38:25Z</time>
      </trkpt>
      <trkpt lat="43.86343" lon="6.96908">
        <ele>470.8</ele>
        <time>2021-09-19T14:38:26Z</time>
      </trkpt>
      <trkpt lat="43.86344" lon="6.96908">
        <ele>470.8</ele>
        <time>2021-09-19T14:38:28Z</time>
      </trkpt>
      <trkpt lat="43.86344" lon="6.96908">
        <ele>470.8</ele>
        <time>2021-09-19T14:38:30Z</time>
      </trkpt>
      <trkpt lat="43.86354" lon="6.9694">
        <ele>469.5</ele>
        <time>2021-09-19T14:39:11Z</time>
      </trkpt>
      <trkpt lat="43.86353" lon="6.96942">
        <ele>469.4</ele>
        <time>2021-09-19T14:39:12Z</time>
      </trkpt>
      <trkpt lat="43.8635" lon="6.96946">
        <ele>469.1</ele>
        <time>2021-09-19T14:39:14Z</time>
      </trkpt>
      <trkpt lat="43.86348" lon="6.9695">
        <ele>468.8</ele>
        <time>2021-09-19T14:39:15Z</time>
      </trkpt>
      <trkpt lat="43.86347" lon="6.96966">
        <ele>467.7</ele>
        <time>2021-09-19T14:39:17Z</time>
      </trkpt>
      <trkpt lat="43.86348" lon="6.96978">
        <ele>466.6</ele>
        <time>2021-09-19T14:39:18Z</time>
      </trkpt>
      <trkpt lat="43.8635" lon="6.96992">
        <ele>465.2</ele>
        <time>2021-09-19T14:39:19Z</time>
      </trkpt>
      <trkpt lat="43.86355" lon="6.97014">
        <ele>464</ele>
        <time>2021-09-19T14:39:21Z</time>
      </trkpt>
      <trkpt lat="43.86355" lon="6.97031">
        <ele>463.8</ele>
        <time>2021-09-19T14:39:23Z</time>
      </trkpt>
      <trkpt lat="43.86353" lon="6.97047">
        <ele>464.2</ele>
        <time>2021-09-19T14:39:25Z</time>
      </trkpt>
      <trkpt lat="43.86353" lon="6.97055">
        <ele>464.5</ele>
        <time>2021-09-19T14:39:26Z</time>
      </trkpt>
      <trkpt lat="43.86352" lon="6.97072">
        <ele>465.3</ele>
        <time>2021-09-19T14:39:28Z</time>
      </trkpt>
      <trkpt lat="43.86352" lon="6.97078">
        <ele>465.7</ele>
        <time>2021-09-19T14:39:29Z</time>
      </trkpt>
      <trkpt lat="43.86353" lon="6.97085">
        <ele>466.2</ele>
        <time>2021-09-19T14:39:30Z</time>
      </trkpt>
      <trkpt lat="43.86355" lon="6.97097">
        <ele>467.1</ele>
        <time>2021-09-19T14:39:32Z</time>
      </trkpt>
      <trkpt lat="43.86358" lon="6.97106">
        <ele>468</ele>
        <time>2021-09-19T14:39:34Z</time>
      </trkpt>
      <trkpt lat="43.86356" lon="6.97108">
        <ele>468.2</ele>
        <time>2021-09-19T14:39:36Z</time>
      </trkpt>
      <trkpt lat="43.86355" lon="6.97107">
        <ele>468.4</ele>
        <time>2021-09-19T14:39:38Z</time>
      </trkpt>
      <trkpt lat="43.86356" lon="6.97108">
        <ele>468.6</ele>
        <time>2021-09-19T14:39:39Z</time>
      </trkpt>
      <trkpt lat="43.86356" lon="6.97109">
        <ele>468.7</ele>
        <time>2021-09-19T14:39:41Z</time>
      </trkpt>
      <trkpt lat="43.86356" lon="6.97109">
        <ele>468.7</ele>
        <time>2021-09-19T14:39:42Z</time>
      </trkpt>
      <trkpt lat="43.86356" lon="6.97108">
        <ele>468.8</ele>
        <time>2021-09-19T14:39:44Z</time>
      </trkpt>
      <trkpt lat="43.86356" lon="6.97108">
        <ele>468.8</ele>
        <time>2021-09-19T14:39:45Z</time>
      </trkpt>
      <trkpt lat="43.86355" lon="6.97108">
        <ele>468.9</ele>
        <time>2021-09-19T14:39:46Z</time>
      </trkpt>
      <trkpt lat="43.86391" lon="6.97142">
        <ele>473.5</ele>
        <time>2021-09-19T14:40:23Z</time>
      </trkpt>
      <trkpt lat="43.8639" lon="6.97148">
        <ele>473.9</ele>
        <time>2021-09-19T14:40:25Z</time>
      </trkpt>
      <trkpt lat="43.86389" lon="6.97153">
        <ele>474.2</ele>
        <time>2021-09-19T14:40:26Z</time>
      </trkpt>
      <trkpt lat="43.86388" lon="6.9716">
        <ele>474.6</ele>
        <time>2021-09-19T14:40:28Z</time>
      </trkpt>
      <trkpt lat="43.86389" lon="6.97164">
        <ele>474.9</ele>
        <time>2021-09-19T14:40:29Z</time>
      </trkpt>
      <trkpt lat="43.86389" lon="6.97167">
        <ele>475</ele>
        <time>2021-09-19T14:40:30Z</time>
      </trkpt>
      <trkpt lat="43.86392" lon="6.97165">
        <ele>475.2</ele>
        <time>2021-09-19T14:40:32Z</time>
      </trkpt>
      <trkpt lat="43.86394" lon="6.97165">
        <ele>475.4</ele>
        <time>2021-09-19T14:40:33Z</time>
      </trkpt>
      <trkpt lat="43.86395" lon="6.97165">
        <ele>475.5</ele>
        <time>2021-09-19T14:40:35Z</time>
      </trkpt>
      <trkpt lat="43.86395" lon="6.97166">
        <ele>475.5</ele>
        <time>2021-09-19T14:40:36Z</time>
      </trkpt>
      <trkpt lat="43.86396" lon="6.97166">
        <ele>475.6</ele>
        <time>2021-09-19T14:40:38Z</time>
      </trkpt>
      <trkpt lat="43.86397" lon="6.97166">
        <ele>475.6</ele>
        <time>2021-09-19T14:40:39Z</time>
      </trkpt>
      <trkpt lat="43.8646" lon="6.97281">
        <ele>479.2</ele>
        <time>2021-09-19T14:42:09Z</time>
      </trkpt>
      <trkpt lat="43.86464" lon="6.97289">
        <ele>479.2</ele>
        <time>2021-09-19T14:42:10Z</time>
      </trkpt>
      <trkpt lat="43.86466" lon="6.97297">
        <ele>479.3</ele>
        <time>2021-09-19T14:42:11Z</time>
      </trkpt>
      <trkpt lat="43.86468" lon="6.97303">
        <ele>479.4</ele>
        <time>2021-09-19T14:42:12Z</time>
      </trkpt>
      <trkpt lat="43.8647" lon="6.97317">
        <ele>479.5</ele>
        <time>2021-09-19T14:42:14Z</time>
      </trkpt>
      <trkpt lat="43.86473" lon="6.97323">
        <ele>479.5</ele>
        <time>2021-09-19T14:42:15Z</time>
      </trkpt>
      <trkpt lat="43.86477" lon="6.97336">
        <ele>479.5</ele>
        <time>2021-09-19T14:42:17Z</time>
      </trkpt>
      <trkpt lat="43.86477" lon="6.97343">
        <ele>479.5</ele>
        <time>2021-09-19T14:42:18Z</time>
      </trkpt>
      <trkpt lat="43.86476" lon="6.9735">
        <ele>479.5</ele>
        <time>2021-09-19T14:42:19Z</time>
      </trkpt>
      <trkpt lat="43.86475" lon="6.9736">
        <ele>479.7</ele>
        <time>2021-09-19T14:42:21Z</time>
      </trkpt>
      <trkpt lat="43.86473" lon="6.97367">
        <ele>479.9</ele>
        <time>2021-09-19T14:42:23Z</time>
      </trkpt>
      <trkpt lat="43.86471" lon="6.97371">
        <ele>480</ele>
        <time>2021-09-19T14:42:24Z</time>
      </trkpt>
      <trkpt lat="43.86471" lon="6.97373">
        <ele>480.1</ele>
        <time>2021-09-19T14:42:25Z</time>
      </trkpt>
      <trkpt lat="43.8647" lon="6.97375">
        <ele>480.1</ele>
        <time>2021-09-19T14:42:27Z</time>
      </trkpt>
      <trkpt lat="43.8647" lon="6.97377">
        <ele>480.1</ele>
        <time>2021-09-19T14:42:28Z</time>
      </trkpt>
      <trkpt lat="43.8647" lon="6.97383">
        <ele>480.1</ele>
        <time>2021-09-19T14:42:30Z</time>
      </trkpt>
      <trkpt lat="43.86471" lon="6.97388">
        <ele>480.1</ele>
        <time>2021-09-19T14:42:31Z</time>
      </trkpt>
      <trkpt lat="43.86471" lon="6.97393">
        <ele>480</ele>
        <time>2021-09-19T14:42:33Z</time>
      </trkpt>
      <trkpt lat="43.86472" lon="6.97398">
        <ele>480</ele>
        <time>2021-09-19T14:42:34Z</time>
      </trkpt>
      <trkpt lat="43.86473" lon="6.97401">
        <ele>479.9</ele>
        <time>2021-09-19T14:42:35Z</time>
      </trkpt>
      <trkpt lat="43.86473" lon="6.97402">
        <ele>479.9</ele>
        <time>2021-09-19T14:42:36Z</time>
      </trkpt>
      <trkpt lat="43.86473" lon="6.97404">
        <ele>479.9</ele>
        <time>2021-09-19T14:42:37Z</time>
      </trkpt>
      <trkpt lat="43.86472" lon="6.97406">
        <ele>479.8</ele>
        <time>2021-09-19T14:42:39Z</time>
      </trkpt>
      <trkpt lat="43.86472" lon="6.97409">
        <ele>479.8</ele>
        <time>2021-09-19T14:42:40Z</time>
      </trkpt>
      <trkpt lat="43.86472" lon="6.97411">
        <ele>479.7</ele>
        <time>2021-09-19T14:42:41Z</time>
      </trkpt>
      <trkpt lat="43.86473" lon="6.97416">
        <ele>479.7</ele>
        <time>2021-09-19T14:42:43Z</time>
      </trkpt>
      <trkpt lat="43.86474" lon="6.97421">
        <ele>479.6</ele>
        <time>2021-09-19T14:42:44Z</time>
      </trkpt>
      <trkpt lat="43.86474" lon="6.97424">
        <ele>479.5</ele>
        <time>2021-09-19T14:42:45Z</time>
      </trkpt>
      <trkpt lat="43.8649" lon="6.97497">
        <ele>481.5</ele>
        <time>2021-09-19T14:43:14Z</time>
      </trkpt>
      <trkpt lat="43.86498" lon="6.97498">
        <ele>481.5</ele>
        <time>2021-09-19T14:43:15Z</time>
      </trkpt>
      <trkpt lat="43.86505" lon="6.97503">
        <ele>481</ele>
        <time>2021-09-19T14:43:16Z</time>
      </trkpt>
      <trkpt lat="43.86514" lon="6.97512">
        <ele>479.8</ele>
        <time>2021-09-19T14:43:18Z</time>
      </trkpt>
      <trkpt lat="43.86519" lon="6.9752">
        <ele>478.8</ele>
        <time>2021-09-19T14:43:19Z</time>
      </trkpt>
      <trkpt lat="43.86523" lon="6.97527">
        <ele>478</ele>
        <time>2021-09-19T14:43:20Z</time>
      </trkpt>
      <trkpt lat="43.86527" lon="6.97547">
        <ele>475.9</ele>
        <time>2021-09-19T14:43:22Z</time>
      </trkpt>
      <trkpt lat="43.86528" lon="6.97555">
        <ele>475.1</ele>
        <time>2021-09-19T14:43:23Z</time>
      </trkpt>
      <trkpt lat="43.86529" lon="6.97562">
        <ele>474.4</ele>
        <time>2021-09-19T14:43:24Z</time>
      </trkpt>
      <trkpt lat="43.8653" lon="6.97576">
        <ele>473.4</ele>
        <time>2021-09-19T14:43:26Z</time>
      </trkpt>
      <trkpt lat="43.86532" lon="6.97582">
        <ele>473</ele>
        <time>2021-09-19T14:43:27Z</time>
      </trkpt>
      <trkpt lat="43.86535" lon="6.9759">
        <ele>472.6</ele>
        <time>2021-09-19T14:43:29Z</time>
      </trkpt>
      <trkpt lat="43.86538" lon="6.97594">
        <ele>472.5</ele>
        <time>2021-09-19T14:43:30Z</time>
      </trkpt>
      <trkpt lat="43.8654" lon="6.97597">
        <ele>472.5</ele>
        <time>2021-09-19T14:43:31Z</time>
      </trkpt>
      <trkpt lat="43.86544" lon="6.97599">
        <ele>472.4</ele>
        <time>2021-09-19T14:43:32Z</time>
      </trkpt>
      <trkpt lat="43.8655" lon="6.976">
        <ele>472.4</ele>
        <time>2021-09-19T14:43:34Z</time>
      </trkpt>
      <trkpt lat="43.86557" lon="6.97602">
        <ele>472.4</ele>
        <time>2021-09-19T14:43:36Z</time>
      </trkpt>
      <trkpt lat="43.86562" lon="6.97605">
        <ele>472.4</ele>
        <time>2021-09-19T14:43:37Z</time>
      </trkpt>
      <trkpt lat="43.86567" lon="6.97609">
        <ele>472.4</ele>
        <time>2021-09-19T14:43:39Z</time>
      </trkpt>
      <trkpt lat="43.86572" lon="6.97615">
        <ele>472.4</ele>
        <time>2021-09-19T14:43:40Z</time>
      </trkpt>
      <trkpt lat="43.86576" lon="6.97622">
        <ele>472.4</ele>
        <time>2021-09-19T14:43:42Z</time>
      </trkpt>
      <trkpt lat="43.86579" lon="6.97629">
        <ele>472.3</ele>
        <time>2021-09-19T14:43:43Z</time>
      </trkpt>
      <trkpt lat="43.86582" lon="6.97635">
        <ele>472.3</ele>
        <time>2021-09-19T14:43:44Z</time>
      </trkpt>
      <trkpt lat="43.86586" lon="6.97643">
        <ele>472.2</ele>
        <time>2021-09-19T14:43:46Z</time>
      </trkpt>
      <trkpt lat="43.8659" lon="6.97649">
        <ele>472.3</ele>
        <time>2021-09-19T14:43:48Z</time>
      </trkpt>
      <trkpt lat="43.86592" lon="6.97653">
        <ele>472.4</ele>
        <time>2021-09-19T14:43:49Z</time>
      </trkpt>
      <trkpt lat="43.86593" lon="6.97655">
        <ele>472.4</ele>
        <time>2021-09-19T14:43:50Z</time>
      </trkpt>
      <trkpt lat="43.86593" lon="6.9766">
        <ele>472.5</ele>
        <time>2021-09-19T14:43:52Z</time>
      </trkpt>
      <trkpt lat="43.86593" lon="6.97664">
        <ele>472.5</ele>
        <time>2021-09-19T14:43:53Z</time>
      </trkpt>
      <trkpt lat="43.86594" lon="6.97669">
        <ele>472.6</ele>
        <time>2021-09-19T14:43:54Z</time>
      </trkpt>
      <trkpt lat="43.86594" lon="6.97671">
        <ele>472.6</ele>
        <time>2021-09-19T14:43:55Z</time>
      </trkpt>
      <trkpt lat="43.86595" lon="6.97675">
        <ele>472.7</ele>
        <time>2021-09-19T14:43:57Z</time>
      </trkpt>
      <trkpt lat="43.86595" lon="6.97676">
        <ele>472.7</ele>
        <time>2021-09-19T14:43:58Z</time>
      </trkpt>
      <trkpt lat="43.86593" lon="6.97677">
        <ele>472.8</ele>
        <time>2021-09-19T14:43:59Z</time>
      </trkpt>
      <trkpt lat="43.86592" lon="6.97678">
        <ele>472.8</ele>
        <time>2021-09-19T14:44:01Z</time>
      </trkpt>
      <trkpt lat="43.86591" lon="6.9768">
        <ele>472.8</ele>
        <time>2021-09-19T14:44:03Z</time>
      </trkpt>
      <trkpt lat="43.8659" lon="6.97682">
        <ele>472.9</ele>
        <time>2021-09-19T14:44:04Z</time>
      </trkpt>
      <trkpt lat="43.86588" lon="6.97684">
        <ele>472.9</ele>
        <time>2021-09-19T14:44:05Z</time>
      </trkpt>
      <trkpt lat="43.86586" lon="6.97687">
        <ele>473</ele>
        <time>2021-09-19T14:44:07Z</time>
      </trkpt>
      <trkpt lat="43.86584" lon="6.97692">
        <ele>473</ele>
        <time>2021-09-19T14:44:08Z</time>
      </trkpt>
      <trkpt lat="43.86583" lon="6.97695">
        <ele>473</ele>
        <time>2021-09-19T14:44:09Z</time>
      </trkpt>
      <trkpt lat="43.86579" lon="6.97704">
        <ele>473</ele>
        <time>2021-09-19T14:44:10Z</time>
      </trkpt>
      <trkpt lat="43.86577" lon="6.9771">
        <ele>472.9</ele>
        <time>2021-09-19T14:44:12Z</time>
      </trkpt>
      <trkpt lat="43.86577" lon="6.97717">
        <ele>472.7</ele>
        <time>2021-09-19T14:44:13Z</time>
      </trkpt>
      <trkpt lat="43.86577" lon="6.97722">
        <ele>472.5</ele>
        <time>2021-09-19T14:44:14Z</time>
      </trkpt>
      <trkpt lat="43.86579" lon="6.97726">
        <ele>472.3</ele>
        <time>2021-09-19T14:44:16Z</time>
      </trkpt>
      <trkpt lat="43.8658" lon="6.97728">
        <ele>472.2</ele>
        <time>2021-09-19T14:44:17Z</time>
      </trkpt>
      <trkpt lat="43.86582" lon="6.9773">
        <ele>472.1</ele>
        <time>2021-09-19T14:44:18Z</time>
      </trkpt>
      <trkpt lat="43.8659" lon="6.97734">
        <ele>471.6</ele>
        <time>2021-09-19T14:44:20Z</time>
      </trkpt>
      <trkpt lat="43.86614" lon="6.97752">
        <ele>469.8</ele>
        <time>2021-09-19T14:44:23Z</time>
      </trkpt>
      <trkpt lat="43.8662" lon="6.97764">
        <ele>468.8</ele>
        <time>2021-09-19T14:44:24Z</time>
      </trkpt>
      <trkpt lat="43.8663" lon="6.97787">
        <ele>467</ele>
        <time>2021-09-19T14:44:26Z</time>
      </trkpt>
      <trkpt lat="43.86636" lon="6.97805">
        <ele>465.7</ele>
        <time>2021-09-19T14:44:28Z</time>
      </trkpt>
      <trkpt lat="43.86638" lon="6.97811">
        <ele>465.3</ele>
        <time>2021-09-19T14:44:29Z</time>
      </trkpt>
      <trkpt lat="43.86644" lon="6.97822">
        <ele>464.3</ele>
        <time>2021-09-19T14:44:31Z</time>
      </trkpt>
      <trkpt lat="43.86649" lon="6.97829">
        <ele>463.7</ele>
        <time>2021-09-19T14:44:32Z</time>
      </trkpt>
      <trkpt lat="43.86657" lon="6.97843">
        <ele>462.7</ele>
        <time>2021-09-19T14:44:34Z</time>
      </trkpt>
      <trkpt lat="43.86661" lon="6.9785">
        <ele>462.3</ele>
        <time>2021-09-19T14:44:35Z</time>
      </trkpt>
      <trkpt lat="43.86669" lon="6.97861">
        <ele>461.8</ele>
        <time>2021-09-19T14:44:37Z</time>
      </trkpt>
      <trkpt lat="43.86678" lon="6.97872">
        <ele>461.2</ele>
        <time>2021-09-19T14:44:39Z</time>
      </trkpt>
      <trkpt lat="43.86689" lon="6.97879">
        <ele>460.5</ele>
        <time>2021-09-19T14:44:41Z</time>
      </trkpt>
      <trkpt lat="43.86702" lon="6.97884">
        <ele>459.9</ele>
        <time>2021-09-19T14:44:43Z</time>
      </trkpt>
      <trkpt lat="43.86713" lon="6.9789">
        <ele>459.4</ele>
        <time>2021-09-19T14:44:45Z</time>
      </trkpt>
      <trkpt lat="43.86719" lon="6.97901">
        <ele>458.9</ele>
        <time>2021-09-19T14:44:47Z</time>
      </trkpt>
      <trkpt lat="43.86724" lon="6.97914">
        <ele>458.5</ele>
        <time>2021-09-19T14:44:49Z</time>
      </trkpt>
      <trkpt lat="43.86728" lon="6.97926">
        <ele>458</ele>
        <time>2021-09-19T14:44:51Z</time>
      </trkpt>
      <trkpt lat="43.86734" lon="6.97933">
        <ele>457.6</ele>
        <time>2021-09-19T14:44:53Z</time>
      </trkpt>
      <trkpt lat="43.86742" lon="6.97945">
        <ele>457.1</ele>
        <time>2021-09-19T14:44:55Z</time>
      </trkpt>
      <trkpt lat="43.86746" lon="6.9795">
        <ele>456.9</ele>
        <time>2021-09-19T14:44:56Z</time>
      </trkpt>
      <trkpt lat="43.86755" lon="6.97958">
        <ele>456.7</ele>
        <time>2021-09-19T14:44:58Z</time>
      </trkpt>
      <trkpt lat="43.86758" lon="6.97962">
        <ele>456.6</ele>
        <time>2021-09-19T14:44:59Z</time>
      </trkpt>
      <trkpt lat="43.86765" lon="6.9797">
        <ele>456.6</ele>
        <time>2021-09-19T14:45:01Z</time>
      </trkpt>
      <trkpt lat="43.86771" lon="6.97978">
        <ele>456.5</ele>
        <time>2021-09-19T14:45:03Z</time>
      </trkpt>
      <trkpt lat="43.86775" lon="6.97982">
        <ele>456.5</ele>
        <time>2021-09-19T14:45:04Z</time>
      </trkpt>
      <trkpt lat="43.86776" lon="6.97983">
        <ele>456.5</ele>
        <time>2021-09-19T14:45:05Z</time>
      </trkpt>
      <trkpt lat="43.86777" lon="6.97987">
        <ele>456.4</ele>
        <time>2021-09-19T14:45:06Z</time>
      </trkpt>
      <trkpt lat="43.86778" lon="6.97995">
        <ele>456.4</ele>
        <time>2021-09-19T14:45:08Z</time>
      </trkpt>
      <trkpt lat="43.86779" lon="6.98">
        <ele>456.4</ele>
        <time>2021-09-19T14:45:09Z</time>
      </trkpt>
      <trkpt lat="43.86785" lon="6.98013">
        <ele>456.3</ele>
        <time>2021-09-19T14:45:10Z</time>
      </trkpt>
      <trkpt lat="43.86791" lon="6.98024">
        <ele>456.4</ele>
        <time>2021-09-19T14:45:12Z</time>
      </trkpt>
      <trkpt lat="43.86792" lon="6.98024">
        <ele>456.5</ele>
        <time>2021-09-19T14:45:13Z</time>
      </trkpt>
      <trkpt lat="43.86795" lon="6.9803">
        <ele>456.6</ele>
        <time>2021-09-19T14:45:15Z</time>
      </trkpt>
      <trkpt lat="43.86796" lon="6.98035">
        <ele>456.7</ele>
        <time>2021-09-19T14:45:16Z</time>
      </trkpt>
      <trkpt lat="43.86797" lon="6.98038">
        <ele>456.8</ele>
        <time>2021-09-19T14:45:17Z</time>
      </trkpt>
      <trkpt lat="43.86796" lon="6.98039">
        <ele>456.8</ele>
        <time>2021-09-19T14:45:18Z</time>
      </trkpt>
      <trkpt lat="43.86798" lon="6.98039">
        <ele>456.9</ele>
        <time>2021-09-19T14:45:19Z</time>
      </trkpt>
      <trkpt lat="43.86799" lon="6.9804">
        <ele>456.9</ele>
        <time>2021-09-19T14:45:21Z</time>
      </trkpt>
      <trkpt lat="43.86799" lon="6.98041">
        <ele>457</ele>
        <time>2021-09-19T14:45:22Z</time>
      </trkpt>
      <trkpt lat="43.868" lon="6.98042">
        <ele>457</ele>
        <time>2021-09-19T14:45:23Z</time>
      </trkpt>
      <trkpt lat="43.86801" lon="6.98043">
        <ele>457</ele>
        <time>2021-09-19T14:45:24Z</time>
      </trkpt>
      <trkpt lat="43.86805" lon="6.98063">
        <ele>457.4</ele>
        <time>2021-09-19T14:45:26Z</time>
      </trkpt>
      <trkpt lat="43.86808" lon="6.98079">
        <ele>457.9</ele>
        <time>2021-09-19T14:45:28Z</time>
      </trkpt>
      <trkpt lat="43.86812" lon="6.98095">
        <ele>458.4</ele>
        <time>2021-09-19T14:46:15Z</time>
      </trkpt>
      <trkpt lat="43.86815" lon="6.98111">
        <ele>458.7</ele>
        <time>2021-09-19T14:46:16Z</time>
      </trkpt>
      <trkpt lat="43.86817" lon="6.98114">
        <ele>458.8</ele>
        <time>2021-09-19T14:46:17Z</time>
      </trkpt>
      <trkpt lat="43.86818" lon="6.98116">
        <ele>458.8</ele>
        <time>2021-09-19T14:46:18Z</time>
      </trkpt>
      <trkpt lat="43.86818" lon="6.98117">
        <ele>458.8</ele>
        <time>2021-09-19T14:46:19Z</time>
      </trkpt>
      <trkpt lat="43.86821" lon="6.98121">
        <ele>458.9</ele>
        <time>2021-09-19T14:46:21Z</time>
      </trkpt>
      <trkpt lat="43.86824" lon="6.98123">
        <ele>458.9</ele>
        <time>2021-09-19T14:46:22Z</time>
      </trkpt>
      <trkpt lat="43.8683" lon="6.98127">
        <ele>459</ele>
        <time>2021-09-19T14:46:24Z</time>
      </trkpt>
      <trkpt lat="43.86831" lon="6.98134">
        <ele>459.1</ele>
        <time>2021-09-19T14:46:26Z</time>
      </trkpt>
      <trkpt lat="43.86831" lon="6.9814">
        <ele>459.2</ele>
        <time>2021-09-19T14:46:27Z</time>
      </trkpt>
      <trkpt lat="43.86831" lon="6.98145">
        <ele>459.2</ele>
        <time>2021-09-19T14:46:28Z</time>
      </trkpt>
      <trkpt lat="43.86831" lon="6.98149">
        <ele>459.3</ele>
        <time>2021-09-19T14:46:30Z</time>
      </trkpt>
      <trkpt lat="43.8683" lon="6.98154">
        <ele>459.4</ele>
        <time>2021-09-19T14:46:31Z</time>
      </trkpt>
      <trkpt lat="43.86829" lon="6.98156">
        <ele>459.4</ele>
        <time>2021-09-19T14:46:32Z</time>
      </trkpt>
      <trkpt lat="43.86826" lon="6.98161">
        <ele>459.4</ele>
        <time>2021-09-19T14:46:34Z</time>
      </trkpt>
      <trkpt lat="43.86823" lon="6.98166">
        <ele>459.3</ele>
        <time>2021-09-19T14:46:35Z</time>
      </trkpt>
      <trkpt lat="43.86822" lon="6.9817">
        <ele>459.3</ele>
        <time>2021-09-19T14:46:36Z</time>
      </trkpt>
      <trkpt lat="43.8682" lon="6.98174">
        <ele>459.3</ele>
        <time>2021-09-19T14:46:37Z</time>
      </trkpt>
      <trkpt lat="43.8682" lon="6.98181">
        <ele>459.4</ele>
        <time>2021-09-19T14:46:39Z</time>
      </trkpt>
      <trkpt lat="43.86819" lon="6.98183">
        <ele>459.4</ele>
        <time>2021-09-19T14:46:41Z</time>
      </trkpt>
      <trkpt lat="43.86819" lon="6.98185">
        <ele>459.4</ele>
        <time>2021-09-19T14:46:42Z</time>
      </trkpt>
      <trkpt lat="43.86818" lon="6.98188">
        <ele>459.5</ele>
        <time>2021-09-19T14:46:43Z</time>
      </trkpt>
      <trkpt lat="43.86818" lon="6.98191">
        <ele>459.5</ele>
        <time>2021-09-19T14:46:45Z</time>
      </trkpt>
      <trkpt lat="43.86817" lon="6.98194">
        <ele>459.5</ele>
        <time>2021-09-19T14:46:46Z</time>
      </trkpt>
      <trkpt lat="43.86819" lon="6.982">
        <ele>459.5</ele>
        <time>2021-09-19T14:46:47Z</time>
      </trkpt>
      <trkpt lat="43.8682" lon="6.9821">
        <ele>459.4</ele>
        <time>2021-09-19T14:46:49Z</time>
      </trkpt>
      <trkpt lat="43.86822" lon="6.98219">
        <ele>459.1</ele>
        <time>2021-09-19T14:46:50Z</time>
      </trkpt>
      <trkpt lat="43.86823" lon="6.98226">
        <ele>458.9</ele>
        <time>2021-09-19T14:46:51Z</time>
      </trkpt>
      <trkpt lat="43.86823" lon="6.98234">
        <ele>458.7</ele>
        <time>2021-09-19T14:46:53Z</time>
      </trkpt>
      <trkpt lat="43.86825" lon="6.98238">
        <ele>458.6</ele>
        <time>2021-09-19T14:46:55Z</time>
      </trkpt>
      <trkpt lat="43.86825" lon="6.98242">
        <ele>458.5</ele>
        <time>2021-09-19T14:46:56Z</time>
      </trkpt>
      <trkpt lat="43.86823" lon="6.98243">
        <ele>458.5</ele>
        <time>2021-09-19T14:46:58Z</time>
      </trkpt>
      <trkpt lat="43.8682" lon="6.98246">
        <ele>458.6</ele>
        <time>2021-09-19T14:46:59Z</time>
      </trkpt>
      <trkpt lat="43.8682" lon="6.98249">
        <ele>458.6</ele>
        <time>2021-09-19T14:47:01Z</time>
      </trkpt>
      <trkpt lat="43.86822" lon="6.98252">
        <ele>458.7</ele>
        <time>2021-09-19T14:47:02Z</time>
      </trkpt>
      <trkpt lat="43.86824" lon="6.98258">
        <ele>458.8</ele>
        <time>2021-09-19T14:47:04Z</time>
      </trkpt>
      <trkpt lat="43.86825" lon="6.98263">
        <ele>458.9</ele>
        <time>2021-09-19T14:47:05Z</time>
      </trkpt>
      <trkpt lat="43.86825" lon="6.9827">
        <ele>458.9</ele>
        <time>2021-09-19T14:47:07Z</time>
      </trkpt>
      <trkpt lat="43.86825" lon="6.98276">
        <ele>458.8</ele>
        <time>2021-09-19T14:47:08Z</time>
      </trkpt>
      <trkpt lat="43.86824" lon="6.98282">
        <ele>458.7</ele>
        <time>2021-09-19T14:47:09Z</time>
      </trkpt>
      <trkpt lat="43.86823" lon="6.98289">
        <ele>458.3</ele>
        <time>2021-09-19T14:47:11Z</time>
      </trkpt>
      <trkpt lat="43.86827" lon="6.98303">
        <ele>457.2</ele>
        <time>2021-09-19T14:47:12Z</time>
      </trkpt>
      <trkpt lat="43.8683" lon="6.98318">
        <ele>455.7</ele>
        <time>2021-09-19T14:47:14Z</time>
      </trkpt>
      <trkpt lat="43.8683" lon="6.98328">
        <ele>454.6</ele>
        <time>2021-09-19T14:47:16Z</time>
      </trkpt>
      <trkpt lat="43.86827" lon="6.9834">
        <ele>453.4</ele>
        <time>2021-09-19T14:47:17Z</time>
      </trkpt>
      <trkpt lat="43.86825" lon="6.98352">
        <ele>452.4</ele>
        <time>2021-09-19T14:47:19Z</time>
      </trkpt>
      <trkpt lat="43.86825" lon="6.98356">
        <ele>452.1</ele>
        <time>2021-09-19T14:47:20Z</time>
      </trkpt>
      <trkpt lat="43.86825" lon="6.9836">
        <ele>451.8</ele>
        <time>2021-09-19T14:47:22Z</time>
      </trkpt>
      <trkpt lat="43.86827" lon="6.98366">
        <ele>451.4</ele>
        <time>2021-09-19T14:47:23Z</time>
      </trkpt>
      <trkpt lat="43.86828" lon="6.98371">
        <ele>451.1</ele>
        <time>2021-09-19T14:47:24Z</time>
      </trkpt>
      <trkpt lat="43.86825" lon="6.98377">
        <ele>451.5</ele>
        <time>2021-09-19T14:47:26Z</time>
      </trkpt>
      <trkpt lat="43.86824" lon="6.98382">
        <ele>450.4</ele>
        <time>2021-09-19T14:47:27Z</time>
      </trkpt>
      <trkpt lat="43.86822" lon="6.98384">
        <ele>450.6</ele>
        <time>2021-09-19T14:47:29Z</time>
      </trkpt>
      <trkpt lat="43.86822" lon="6.98385">
        <ele>450.5</ele>
        <time>2021-09-19T14:47:30Z</time>
      </trkpt>
      <trkpt lat="43.86822" lon="6.98386">
        <ele>450.4</ele>
        <time>2021-09-19T14:47:32Z</time>
      </trkpt>
      <trkpt lat="43.86821" lon="6.98387">
        <ele>450.3</ele>
        <time>2021-09-19T14:47:33Z</time>
      </trkpt>
      <trkpt lat="43.86821" lon="6.98392">
        <ele>448.2</ele>
        <time>2021-09-19T14:47:34Z</time>
      </trkpt>
      <trkpt lat="43.86821" lon="6.98399">
        <ele>447.1</ele>
        <time>2021-09-19T14:47:35Z</time>
      </trkpt>
      <trkpt lat="43.8682" lon="6.98405">
        <ele>445.2</ele>
        <time>2021-09-19T14:47:36Z</time>
      </trkpt>
      <trkpt lat="43.86818" lon="6.98413">
        <ele>444.3</ele>
        <time>2021-09-19T14:47:38Z</time>
      </trkpt>
      <trkpt lat="43.86818" lon="6.98419">
        <ele>443.2</ele>
        <time>2021-09-19T14:47:39Z</time>
      </trkpt>
      <trkpt lat="43.86818" lon="6.98424">
        <ele>442.1</ele>
        <time>2021-09-19T14:47:41Z</time>
      </trkpt>
      <trkpt lat="43.86818" lon="6.98428">
        <ele>441.1</ele>
        <time>2021-09-19T14:47:42Z</time>
      </trkpt>
      <trkpt lat="43.86818" lon="6.9843">
        <ele>441</ele>
        <time>2021-09-19T14:47:43Z</time>
      </trkpt>
      <trkpt lat="43.86819" lon="6.9843">
        <ele>439.9</ele>
        <time>2021-09-19T14:47:44Z</time>
      </trkpt>
      <trkpt lat="43.86821" lon="6.98431">
        <ele>438.8</ele>
        <time>2021-09-19T14:47:45Z</time>
      </trkpt>
      <trkpt lat="43.86822" lon="6.9843">
        <ele>439.8</ele>
        <time>2021-09-19T14:47:47Z</time>
      </trkpt>
      <trkpt lat="43.86823" lon="6.98429">
        <ele>438.7</ele>
        <time>2021-09-19T14:47:48Z</time>
      </trkpt>
      <trkpt lat="43.86825" lon="6.98425">
        <ele>439.6</ele>
        <time>2021-09-19T14:47:49Z</time>
      </trkpt>
      <trkpt lat="43.86826" lon="6.98425">
        <ele>438.4</ele>
        <time>2021-09-19T14:47:51Z</time>
      </trkpt>
      <trkpt lat="43.86826" lon="6.98425">
        <ele>438.3</ele>
        <time>2021-09-19T14:47:52Z</time>
      </trkpt>
      <trkpt lat="43.86826" lon="6.98426">
        <ele>437.2</ele>
        <time>2021-09-19T14:47:53Z</time>
      </trkpt>
      <trkpt lat="43.86827" lon="6.98428">
        <ele>437.2</ele>
        <time>2021-09-19T14:47:54Z</time>
      </trkpt>
      <trkpt lat="43.86827" lon="6.98434">
        <ele>436.1</ele>
        <time>2021-09-19T14:47:56Z</time>
      </trkpt>
      <trkpt lat="43.86826" lon="6.98437">
        <ele>435.1</ele>
        <time>2021-09-19T14:47:57Z</time>
      </trkpt>
      <trkpt lat="43.86826" lon="6.98441">
        <ele>435.2</ele>
        <time>2021-09-19T14:47:59Z</time>
      </trkpt>
      <trkpt lat="43.86826" lon="6.98443">
        <ele>433.1</ele>
        <time>2021-09-19T14:48:00Z</time>
      </trkpt>
      <trkpt lat="43.86828" lon="6.98443">
        <ele>433.1</ele>
        <time>2021-09-19T14:48:02Z</time>
      </trkpt>
      <trkpt lat="43.86829" lon="6.98444">
        <ele>433</ele>
        <time>2021-09-19T14:48:04Z</time>
      </trkpt>
      <trkpt lat="43.8683" lon="6.98444">
        <ele>431.7</ele>
        <time>2021-09-19T14:48:05Z</time>
      </trkpt>
      <trkpt lat="43.86831" lon="6.98445">
        <ele>431.7</ele>
        <time>2021-09-19T14:48:06Z</time>
      </trkpt>
      <trkpt lat="43.86833" lon="6.98445">
        <ele>430.4</ele>
        <time>2021-09-19T14:48:08Z</time>
      </trkpt>
      <trkpt lat="43.86834" lon="6.98445">
        <ele>430.3</ele>
        <time>2021-09-19T14:48:10Z</time>
      </trkpt>
      <trkpt lat="43.86835" lon="6.98446">
        <ele>430.3</ele>
        <time>2021-09-19T14:48:11Z</time>
      </trkpt>
      <trkpt lat="43.86836" lon="6.98446">
        <ele>429</ele>
        <time>2021-09-19T14:48:12Z</time>
      </trkpt>
      <trkpt lat="43.86838" lon="6.98447">
        <ele>429</ele>
        <time>2021-09-19T14:49:34Z</time>
      </trkpt>
      <trkpt lat="43.86839" lon="6.98447">
        <ele>427.9</ele>
        <time>2021-09-19T14:49:35Z</time>
      </trkpt>
      <trkpt lat="43.86843" lon="6.98446">
        <ele>426.9</ele>
        <time>2021-09-19T14:49:36Z</time>
      </trkpt>
      <trkpt lat="43.86847" lon="6.98447">
        <ele>426</ele>
        <time>2021-09-19T14:49:38Z</time>
      </trkpt>
      <trkpt lat="43.8685" lon="6.98448">
        <ele>424.3</ele>
        <time>2021-09-19T14:49:39Z</time>
      </trkpt>
      <trkpt lat="43.86853" lon="6.98451">
        <ele>423.4</ele>
        <time>2021-09-19T14:49:40Z</time>
      </trkpt>
      <trkpt lat="43.86854" lon="6.98453">
        <ele>421.8</ele>
        <time>2021-09-19T14:49:42Z</time>
      </trkpt>
      <trkpt lat="43.86854" lon="6.98454">
        <ele>421.7</ele>
        <time>2021-09-19T14:49:43Z</time>
      </trkpt>
      <trkpt lat="43.86854" lon="6.98454">
        <ele>421.6</ele>
        <time>2021-09-19T14:49:45Z</time>
      </trkpt>
      <trkpt lat="43.86854" lon="6.98455">
        <ele>421.6</ele>
        <time>2021-09-19T14:49:46Z</time>
      </trkpt>
      <trkpt lat="43.86855" lon="6.98456">
        <ele>420.8</ele>
        <time>2021-09-19T14:49:47Z</time>
      </trkpt>
      <trkpt lat="43.86856" lon="6.98462">
        <ele>420</ele>
        <time>2021-09-19T14:49:48Z</time>
      </trkpt>
      <trkpt lat="43.86856" lon="6.98465">
        <ele>419.1</ele>
        <time>2021-09-19T14:49:50Z</time>
      </trkpt>
      <trkpt lat="43.86857" lon="6.98469">
        <ele>419.1</ele>
        <time>2021-09-19T14:49:51Z</time>
      </trkpt>
      <trkpt lat="43.86857" lon="6.98474">
        <ele>416.5</ele>
        <time>2021-09-19T14:49:52Z</time>
      </trkpt>
      <trkpt lat="43.86857" lon="6.9848">
        <ele>416.4</ele>
        <time>2021-09-19T14:49:53Z</time>
      </trkpt>
      <trkpt lat="43.86854" lon="6.98488">
        <ele>414.9</ele>
        <time>2021-09-19T14:49:55Z</time>
      </trkpt>
      <trkpt lat="43.86852" lon="6.98494">
        <ele>414.9</ele>
        <time>2021-09-19T14:49:56Z</time>
      </trkpt>
      <trkpt lat="43.86851" lon="6.98497">
        <ele>414.1</ele>
        <time>2021-09-19T14:49:57Z</time>
      </trkpt>
      <trkpt lat="43.8685" lon="6.98502">
        <ele>414.1</ele>
        <time>2021-09-19T14:49:58Z</time>
      </trkpt>
      <trkpt lat="43.86848" lon="6.98508">
        <ele>412.6</ele>
        <time>2021-09-19T14:50:00Z</time>
      </trkpt>
      <trkpt lat="43.86849" lon="6.9851">
        <ele>412.6</ele>
        <time>2021-09-19T14:50:01Z</time>
      </trkpt>
      <trkpt lat="43.8685" lon="6.9851">
        <ele>412.5</ele>
        <time>2021-09-19T14:50:02Z</time>
      </trkpt>
      <trkpt lat="43.86851" lon="6.9851">
        <ele>412.4</ele>
        <time>2021-09-19T14:50:04Z</time>
      </trkpt>
      <trkpt lat="43.86851" lon="6.9851">
        <ele>411.6</ele>
        <time>2021-09-19T14:50:05Z</time>
      </trkpt>
      <trkpt lat="43.86852" lon="6.9851">
        <ele>411.5</ele>
        <time>2021-09-19T14:50:07Z</time>
      </trkpt>
      <trkpt lat="43.86852" lon="6.9851">
        <ele>411.4</ele>
        <time>2021-09-19T14:50:08Z</time>
      </trkpt>
      <trkpt lat="43.86853" lon="6.9851">
        <ele>411.4</ele>
        <time>2021-09-19T14:50:09Z</time>
      </trkpt>
      <trkpt lat="43.86856" lon="6.98506">
        <ele>411.2</ele>
        <time>2021-09-19T14:50:10Z</time>
      </trkpt>
      <trkpt lat="43.86859" lon="6.98502">
        <ele>411.1</ele>
        <time>2021-09-19T14:50:11Z</time>
      </trkpt>
      <trkpt lat="43.86862" lon="6.98495">
        <ele>410.9</ele>
        <time>2021-09-19T14:50:13Z</time>
      </trkpt>
      <trkpt lat="43.86863" lon="6.98495">
        <ele>410.8</ele>
        <time>2021-09-19T14:50:14Z</time>
      </trkpt>
      <trkpt lat="43.86864" lon="6.98496">
        <ele>410</ele>
        <time>2021-09-19T14:50:15Z</time>
      </trkpt>
      <trkpt lat="43.86864" lon="6.98497">
        <ele>410</ele>
        <time>2021-09-19T14:50:16Z</time>
      </trkpt>
      <trkpt lat="43.86865" lon="6.98499">
        <ele>409.9</ele>
        <time>2021-09-19T14:50:18Z</time>
      </trkpt>
      <trkpt lat="43.86865" lon="6.985">
        <ele>409.2</ele>
        <time>2021-09-19T14:50:19Z</time>
      </trkpt>
      <trkpt lat="43.86865" lon="6.98505">
        <ele>408.4</ele>
        <time>2021-09-19T14:50:21Z</time>
      </trkpt>
      <trkpt lat="43.86866" lon="6.9851">
        <ele>407.7</ele>
        <time>2021-09-19T14:50:22Z</time>
      </trkpt>
      <trkpt lat="43.86866" lon="6.98516">
        <ele>407</ele>
        <time>2021-09-19T14:50:24Z</time>
      </trkpt>
      <trkpt lat="43.86865" lon="6.9852">
        <ele>406.2</ele>
        <time>2021-09-19T14:50:25Z</time>
      </trkpt>
      <trkpt lat="43.86864" lon="6.98524">
        <ele>405.4</ele>
        <time>2021-09-19T14:50:26Z</time>
      </trkpt>
      <trkpt lat="43.86863" lon="6.98526">
        <ele>404.6</ele>
        <time>2021-09-19T14:50:27Z</time>
      </trkpt>
      <trkpt lat="43.86864" lon="6.98528">
        <ele>404.5</ele>
        <time>2021-09-19T14:50:28Z</time>
      </trkpt>
      <trkpt lat="43.86865" lon="6.98529">
        <ele>404.5</ele>
        <time>2021-09-19T14:50:30Z</time>
      </trkpt>
      <trkpt lat="43.86866" lon="6.98528">
        <ele>404.4</ele>
        <time>2021-09-19T14:50:31Z</time>
      </trkpt>
      <trkpt lat="43.86866" lon="6.98528">
        <ele>404.3</ele>
        <time>2021-09-19T14:50:32Z</time>
      </trkpt>
      <trkpt lat="43.86867" lon="6.98528">
        <ele>403.7</ele>
        <time>2021-09-19T14:50:33Z</time>
      </trkpt>
      <trkpt lat="43.86867" lon="6.98528">
        <ele>403.6</ele>
        <time>2021-09-19T14:50:34Z</time>
      </trkpt>
      <trkpt lat="43.86869" lon="6.98527">
        <ele>403</ele>
        <time>2021-09-19T14:50:36Z</time>
      </trkpt>
      <trkpt lat="43.86871" lon="6.98528">
        <ele>402.9</ele>
        <time>2021-09-19T14:50:38Z</time>
      </trkpt>
      <trkpt lat="43.86873" lon="6.98529">
        <ele>401.6</ele>
        <time>2021-09-19T14:50:45Z</time>
      </trkpt>
      <trkpt lat="43.86875" lon="6.9853">
        <ele>401.5</ele>
        <time>2021-09-19T14:50:46Z</time>
      </trkpt>
      <trkpt lat="43.86877" lon="6.98531">
        <ele>400.9</ele>
        <time>2021-09-19T14:50:47Z</time>
      </trkpt>
      <trkpt lat="43.86883" lon="6.98535">
        <ele>399.2</ele>
        <time>2021-09-19T14:50:49Z</time>
      </trkpt>
      <trkpt lat="43.86886" lon="6.98537">
        <ele>398.6</ele>
        <time>2021-09-19T14:50:50Z</time>
      </trkpt>
      <trkpt lat="43.86889" lon="6.98543">
        <ele>396.9</ele>
        <time>2021-09-19T14:50:52Z</time>
      </trkpt>
      <trkpt lat="43.86892" lon="6.98552">
        <ele>395.1</ele>
        <time>2021-09-19T14:50:54Z</time>
      </trkpt>
      <trkpt lat="43.86897" lon="6.98556">
        <ele>394</ele>
        <time>2021-09-19T14:50:56Z</time>
      </trkpt>
      <trkpt lat="43.86899" lon="6.98561">
        <ele>392.9</ele>
        <time>2021-09-19T14:50:57Z</time>
      </trkpt>
      <trkpt lat="43.86901" lon="6.98568">
        <ele>391.2</ele>
        <time>2021-09-19T14:50:59Z</time>
      </trkpt>
      <trkpt lat="43.86902" lon="6.98572">
        <ele>390.5</ele>
        <time>2021-09-19T14:51:00Z</time>
      </trkpt>
      <trkpt lat="43.86903" lon="6.98577">
        <ele>389.9</ele>
        <time>2021-09-19T14:51:01Z</time>
      </trkpt>
      <trkpt lat="43.86903" lon="6.98579">
        <ele>389.8</ele>
        <time>2021-09-19T14:51:02Z</time>
      </trkpt>
      <trkpt lat="43.86906" lon="6.98583">
        <ele>388.9</ele>
        <time>2021-09-19T14:51:04Z</time>
      </trkpt>
      <trkpt lat="43.86911" lon="6.98587">
        <ele>387.9</ele>
        <time>2021-09-19T14:51:05Z</time>
      </trkpt>
      <trkpt lat="43.86914" lon="6.98588">
        <ele>387.7</ele>
        <time>2021-09-19T14:51:06Z</time>
      </trkpt>
      <trkpt lat="43.86917" lon="6.98585">
        <ele>387.5</ele>
        <time>2021-09-19T14:51:07Z</time>
      </trkpt>
      <trkpt lat="43.86922" lon="6.98579">
        <ele>388.4</ele>
        <time>2021-09-19T14:51:09Z</time>
      </trkpt>
      <trkpt lat="43.86924" lon="6.98575">
        <ele>387.6</ele>
        <time>2021-09-19T14:51:10Z</time>
      </trkpt>
      <trkpt lat="43.86926" lon="6.98571">
        <ele>386.9</ele>
        <time>2021-09-19T14:51:11Z</time>
      </trkpt>
      <trkpt lat="43.86929" lon="6.98568">
        <ele>386.2</ele>
        <time>2021-09-19T14:51:13Z</time>
      </trkpt>
      <trkpt lat="43.8693" lon="6.98565">
        <ele>385.8</ele>
        <time>2021-09-19T14:51:14Z</time>
      </trkpt>
      <trkpt lat="43.8693" lon="6.98563">
        <ele>385.5</ele>
        <time>2021-09-19T14:51:16Z</time>
      </trkpt>
      <trkpt lat="43.86929" lon="6.98562">
        <ele>385.4</ele>
        <time>2021-09-19T14:51:17Z</time>
      </trkpt>
      <trkpt lat="43.8693" lon="6.98561">
        <ele>385.3</ele>
        <time>2021-09-19T14:51:18Z</time>
      </trkpt>
      <trkpt lat="43.8693" lon="6.98561">
        <ele>385.3</ele>
        <time>2021-09-19T14:51:19Z</time>
      </trkpt>
      <trkpt lat="43.8693" lon="6.98561">
        <ele>385.3</ele>
        <time>2021-09-19T14:51:20Z</time>
      </trkpt>
      <trkpt lat="43.8693" lon="6.98563">
        <ele>385.1</ele>
        <time>2021-09-19T14:51:22Z</time>
      </trkpt>
      <trkpt lat="43.8693" lon="6.98565">
        <ele>384.9</ele>
        <time>2021-09-19T14:51:23Z</time>
      </trkpt>
      <trkpt lat="43.8693" lon="6.98567">
        <ele>384.7</ele>
        <time>2021-09-19T14:51:24Z</time>
      </trkpt>
      <trkpt lat="43.86934" lon="6.98571">
        <ele>384.1</ele>
        <time>2021-09-19T14:51:30Z</time>
      </trkpt>
      <trkpt lat="43.86935" lon="6.98574">
        <ele>384</ele>
        <time>2021-09-19T14:51:31Z</time>
      </trkpt>
      <trkpt lat="43.86935" lon="6.98576">
        <ele>383.8</ele>
        <time>2021-09-19T14:51:32Z</time>
      </trkpt>
      <trkpt lat="43.86937" lon="6.98583">
        <ele>383.4</ele>
        <time>2021-09-19T14:51:34Z</time>
      </trkpt>
      <trkpt lat="43.86939" lon="6.98592">
        <ele>383</ele>
        <time>2021-09-19T14:51:35Z</time>
      </trkpt>
      <trkpt lat="43.8694" lon="6.98601">
        <ele>382.6</ele>
        <time>2021-09-19T14:51:37Z</time>
      </trkpt>
      <trkpt lat="43.8694" lon="6.98608">
        <ele>382.3</ele>
        <time>2021-09-19T14:51:38Z</time>
      </trkpt>
      <trkpt lat="43.8694" lon="6.98613">
        <ele>382.2</ele>
        <time>2021-09-19T14:51:39Z</time>
      </trkpt>
      <trkpt lat="43.8694" lon="6.98618">
        <ele>382</ele>
        <time>2021-09-19T14:51:40Z</time>
      </trkpt>
      <trkpt lat="43.8694" lon="6.98623">
        <ele>381.9</ele>
        <time>2021-09-19T14:51:41Z</time>
      </trkpt>
      <trkpt lat="43.86941" lon="6.98624">
        <ele>381.9</ele>
        <time>2021-09-19T14:51:42Z</time>
      </trkpt>
      <trkpt lat="43.86943" lon="6.98625">
        <ele>381.8</ele>
        <time>2021-09-19T14:51:44Z</time>
      </trkpt>
      <trkpt lat="43.86945" lon="6.98624">
        <ele>381.7</ele>
        <time>2021-09-19T14:51:45Z</time>
      </trkpt>
      <trkpt lat="43.86946" lon="6.98624">
        <ele>381.6</ele>
        <time>2021-09-19T14:51:47Z</time>
      </trkpt>
      <trkpt lat="43.86948" lon="6.98623">
        <ele>381.6</ele>
        <time>2021-09-19T14:51:48Z</time>
      </trkpt>
      <trkpt lat="43.8695" lon="6.98623">
        <ele>381.4</ele>
        <time>2021-09-19T14:51:49Z</time>
      </trkpt>
      <trkpt lat="43.86952" lon="6.98623">
        <ele>381.4</ele>
        <time>2021-09-19T14:51:51Z</time>
      </trkpt>
      <trkpt lat="43.86972" lon="6.98631">
        <ele>381.2</ele>
        <time>2021-09-19T14:52:00Z</time>
      </trkpt>
      <trkpt lat="43.86978" lon="6.98636">
        <ele>381.1</ele>
        <time>2021-09-19T14:52:02Z</time>
      </trkpt>
      <trkpt lat="43.86992" lon="6.98638">
        <ele>381</ele>
        <time>2021-09-19T14:52:04Z</time>
      </trkpt>
      <trkpt lat="43.87004" lon="6.98641">
        <ele>380.9</ele>
        <time>2021-09-19T14:52:05Z</time>
      </trkpt>
      <trkpt lat="43.87016" lon="6.98643">
        <ele>380.8</ele>
        <time>2021-09-19T14:52:07Z</time>
      </trkpt>
      <trkpt lat="43.8702" lon="6.98644">
        <ele>380.8</ele>
        <time>2021-09-19T14:52:08Z</time>
      </trkpt>
      <trkpt lat="43.87025" lon="6.9865">
        <ele>380.8</ele>
        <time>2021-09-19T14:52:10Z</time>
      </trkpt>
      <trkpt lat="43.87028" lon="6.98653">
        <ele>380.9</ele>
        <time>2021-09-19T14:52:11Z</time>
      </trkpt>
      <trkpt lat="43.87031" lon="6.98655">
        <ele>380.9</ele>
        <time>2021-09-19T14:52:12Z</time>
      </trkpt>
      <trkpt lat="43.87034" lon="6.98656">
        <ele>380.9</ele>
        <time>2021-09-19T14:52:14Z</time>
      </trkpt>
      <trkpt lat="43.87037" lon="6.98657">
        <ele>381</ele>
        <time>2021-09-19T14:52:15Z</time>
      </trkpt>
      <trkpt lat="43.87037" lon="6.98657">
        <ele>381</ele>
        <time>2021-09-19T14:52:16Z</time>
      </trkpt>
      <trkpt lat="43.87038" lon="6.98657">
        <ele>381</ele>
        <time>2021-09-19T14:52:17Z</time>
      </trkpt>
      <trkpt lat="43.87152" lon="6.98736">
        <ele>384.8</ele>
        <time>2021-09-19T14:52:37Z</time>
      </trkpt>
      <trkpt lat="43.87158" lon="6.98751">
        <ele>384.2</ele>
        <time>2021-09-19T14:52:39Z</time>
      </trkpt>
      <trkpt lat="43.87161" lon="6.98758">
        <ele>384</ele>
        <time>2021-09-19T14:52:40Z</time>
      </trkpt>
      <trkpt lat="43.87163" lon="6.98763">
        <ele>383.7</ele>
        <time>2021-09-19T14:52:41Z</time>
      </trkpt>
      <trkpt lat="43.87167" lon="6.98766">
        <ele>383.5</ele>
        <time>2021-09-19T14:52:42Z</time>
      </trkpt>
      <trkpt lat="43.87175" lon="6.9877">
        <ele>383</ele>
        <time>2021-09-19T14:52:44Z</time>
      </trkpt>
      <trkpt lat="43.8718" lon="6.98773">
        <ele>382.7</ele>
        <time>2021-09-19T14:52:45Z</time>
      </trkpt>
      <trkpt lat="43.87184" lon="6.98776">
        <ele>382.5</ele>
        <time>2021-09-19T14:52:46Z</time>
      </trkpt>
      <trkpt lat="43.87187" lon="6.98778">
        <ele>382.4</ele>
        <time>2021-09-19T14:52:47Z</time>
      </trkpt>
      <trkpt lat="43.87191" lon="6.98779">
        <ele>382.3</ele>
        <time>2021-09-19T14:52:48Z</time>
      </trkpt>
      <trkpt lat="43.87195" lon="6.98783">
        <ele>382.2</ele>
        <time>2021-09-19T14:52:50Z</time>
      </trkpt>
      <trkpt lat="43.87199" lon="6.98789">
        <ele>382.2</ele>
        <time>2021-09-19T14:52:52Z</time>
      </trkpt>
      <trkpt lat="43.87202" lon="6.98792">
        <ele>382.3</ele>
        <time>2021-09-19T14:52:53Z</time>
      </trkpt>
      <trkpt lat="43.87202" lon="6.98794">
        <ele>382.3</ele>
        <time>2021-09-19T14:52:54Z</time>
      </trkpt>
      <trkpt lat="43.87204" lon="6.98797">
        <ele>382.4</ele>
        <time>2021-09-19T14:52:55Z</time>
      </trkpt>
      <trkpt lat="43.87204" lon="6.98799">
        <ele>382.4</ele>
        <time>2021-09-19T14:52:56Z</time>
      </trkpt>
      <trkpt lat="43.87206" lon="6.98802">
        <ele>382.6</ele>
        <time>2021-09-19T14:52:58Z</time>
      </trkpt>
      <trkpt lat="43.87208" lon="6.98808">
        <ele>382.8</ele>
        <time>2021-09-19T14:53:00Z</time>
      </trkpt>
      <trkpt lat="43.87211" lon="6.98811">
        <ele>383</ele>
        <time>2021-09-19T14:53:01Z</time>
      </trkpt>
      <trkpt lat="43.87213" lon="6.98812">
        <ele>383.1</ele>
        <time>2021-09-19T14:53:02Z</time>
      </trkpt>
      <trkpt lat="43.87217" lon="6.98813">
        <ele>383.4</ele>
        <time>2021-09-19T14:53:04Z</time>
      </trkpt>
      <trkpt lat="43.8722" lon="6.98814">
        <ele>383.5</ele>
        <time>2021-09-19T14:53:05Z</time>
      </trkpt>
      <trkpt lat="43.87222" lon="6.98814">
        <ele>383.7</ele>
        <time>2021-09-19T14:53:06Z</time>
      </trkpt>
      <trkpt lat="43.87225" lon="6.98815">
        <ele>383.9</ele>
        <time>2021-09-19T14:53:08Z</time>
      </trkpt>
      <trkpt lat="43.87229" lon="6.98818">
        <ele>384.2</ele>
        <time>2021-09-19T14:53:10Z</time>
      </trkpt>
      <trkpt lat="43.87235" lon="6.98823">
        <ele>384.4</ele>
        <time>2021-09-19T14:53:12Z</time>
      </trkpt>
      <trkpt lat="43.87238" lon="6.98824">
        <ele>384.5</ele>
        <time>2021-09-19T14:53:13Z</time>
      </trkpt>
      <trkpt lat="43.87241" lon="6.98829">
        <ele>384.5</ele>
        <time>2021-09-19T14:53:15Z</time>
      </trkpt>
      <trkpt lat="43.87245" lon="6.98834">
        <ele>384.5</ele>
        <time>2021-09-19T14:53:17Z</time>
      </trkpt>
      <trkpt lat="43.8725" lon="6.98838">
        <ele>384.4</ele>
        <time>2021-09-19T14:53:18Z</time>
      </trkpt>
      <trkpt lat="43.87254" lon="6.9884">
        <ele>384.4</ele>
        <time>2021-09-19T14:53:20Z</time>
      </trkpt>
      <trkpt lat="43.87258" lon="6.98842">
        <ele>384.2</ele>
        <time>2021-09-19T14:53:21Z</time>
      </trkpt>
      <trkpt lat="43.87263" lon="6.98843">
        <ele>384.1</ele>
        <time>2021-09-19T14:53:22Z</time>
      </trkpt>
      <trkpt lat="43.87269" lon="6.98844">
        <ele>384</ele>
        <time>2021-09-19T14:53:24Z</time>
      </trkpt>
      <trkpt lat="43.87273" lon="6.98845">
        <ele>383.8</ele>
        <time>2021-09-19T14:53:25Z</time>
      </trkpt>
      <trkpt lat="43.8728" lon="6.98848">
        <ele>383.7</ele>
        <time>2021-09-19T14:53:27Z</time>
      </trkpt>
      <trkpt lat="43.87282" lon="6.9885">
        <ele>383.6</ele>
        <time>2021-09-19T14:53:28Z</time>
      </trkpt>
      <trkpt lat="43.87284" lon="6.98851">
        <ele>383.6</ele>
        <time>2021-09-19T14:53:29Z</time>
      </trkpt>
      <trkpt lat="43.87287" lon="6.98854">
        <ele>383.4</ele>
        <time>2021-09-19T14:53:31Z</time>
      </trkpt>
      <trkpt lat="43.87293" lon="6.98859">
        <ele>383.2</ele>
        <time>2021-09-19T14:53:33Z</time>
      </trkpt>
      <trkpt lat="43.87298" lon="6.98863">
        <ele>383.1</ele>
        <time>2021-09-19T14:53:34Z</time>
      </trkpt>
      <trkpt lat="43.87302" lon="6.98865">
        <ele>382.9</ele>
        <time>2021-09-19T14:53:35Z</time>
      </trkpt>
      <trkpt lat="43.87306" lon="6.98867">
        <ele>382.8</ele>
        <time>2021-09-19T14:53:36Z</time>
      </trkpt>
      <trkpt lat="43.87313" lon="6.98868">
        <ele>382.6</ele>
        <time>2021-09-19T14:53:38Z</time>
      </trkpt>
      <trkpt lat="43.87317" lon="6.98867">
        <ele>382.6</ele>
        <time>2021-09-19T14:53:39Z</time>
      </trkpt>
      <trkpt lat="43.8732" lon="6.98866">
        <ele>382.6</ele>
        <time>2021-09-19T14:53:40Z</time>
      </trkpt>
      <trkpt lat="43.87325" lon="6.98866">
        <ele>382.6</ele>
        <time>2021-09-19T14:53:42Z</time>
      </trkpt>
      <trkpt lat="43.87327" lon="6.98866">
        <ele>382.6</ele>
        <time>2021-09-19T14:53:43Z</time>
      </trkpt>
      <trkpt lat="43.8733" lon="6.98868">
        <ele>382.7</ele>
        <time>2021-09-19T14:53:45Z</time>
      </trkpt>
      <trkpt lat="43.87332" lon="6.9887">
        <ele>382.7</ele>
        <time>2021-09-19T14:53:46Z</time>
      </trkpt>
      <trkpt lat="43.87332" lon="6.98871">
        <ele>382.7</ele>
        <time>2021-09-19T14:53:47Z</time>
      </trkpt>
      <trkpt lat="43.87333" lon="6.98871">
        <ele>382.7</ele>
        <time>2021-09-19T14:53:48Z</time>
      </trkpt>
      <trkpt lat="43.87337" lon="6.98873">
        <ele>382.9</ele>
        <time>2021-09-19T14:53:50Z</time>
      </trkpt>
      <trkpt lat="43.87338" lon="6.98875">
        <ele>382.9</ele>
        <time>2021-09-19T14:53:51Z</time>
      </trkpt>
      <trkpt lat="43.87338" lon="6.98876">
        <ele>382.9</ele>
        <time>2021-09-19T14:53:52Z</time>
      </trkpt>
      <trkpt lat="43.8734" lon="6.98876">
        <ele>383</ele>
        <time>2021-09-19T14:53:54Z</time>
      </trkpt>
      <trkpt lat="43.8734" lon="6.98877">
        <ele>383</ele>
        <time>2021-09-19T14:53:55Z</time>
      </trkpt>
      <trkpt lat="43.8734" lon="6.98877">
        <ele>383</ele>
        <time>2021-09-19T14:53:56Z</time>
      </trkpt>
      <trkpt lat="43.87341" lon="6.98879">
        <ele>383.1</ele>
        <time>2021-09-19T14:53:58Z</time>
      </trkpt>
      <trkpt lat="43.87342" lon="6.98881">
        <ele>383.1</ele>
        <time>2021-09-19T14:53:59Z</time>
      </trkpt>
      <trkpt lat="43.87343" lon="6.98882">
        <ele>383.1</ele>
        <time>2021-09-19T14:54:00Z</time>
      </trkpt>
      <trkpt lat="43.87344" lon="6.98883">
        <ele>383.2</ele>
        <time>2021-09-19T14:54:01Z</time>
      </trkpt>
      <trkpt lat="43.87345" lon="6.98885">
        <ele>383.2</ele>
        <time>2021-09-19T14:54:02Z</time>
      </trkpt>
      <trkpt lat="43.87347" lon="6.98892">
        <ele>383.3</ele>
        <time>2021-09-19T14:54:06Z</time>
      </trkpt>
      <trkpt lat="43.87349" lon="6.989">
        <ele>383.4</ele>
        <time>2021-09-19T14:54:08Z</time>
      </trkpt>
      <trkpt lat="43.87351" lon="6.98906">
        <ele>383.5</ele>
        <time>2021-09-19T14:54:10Z</time>
      </trkpt>
      <trkpt lat="43.87352" lon="6.98909">
        <ele>383.5</ele>
        <time>2021-09-19T14:54:11Z</time>
      </trkpt>
      <trkpt lat="43.87354" lon="6.98913">
        <ele>383.5</ele>
        <time>2021-09-19T14:54:12Z</time>
      </trkpt>
      <trkpt lat="43.87358" lon="6.98917">
        <ele>383.6</ele>
        <time>2021-09-19T14:54:14Z</time>
      </trkpt>
      <trkpt lat="43.8736" lon="6.98921">
        <ele>383.7</ele>
        <time>2021-09-19T14:54:15Z</time>
      </trkpt>
      <trkpt lat="43.87362" lon="6.98924">
        <ele>383.7</ele>
        <time>2021-09-19T14:54:16Z</time>
      </trkpt>
      <trkpt lat="43.87366" lon="6.98929">
        <ele>383.7</ele>
        <time>2021-09-19T14:54:18Z</time>
      </trkpt>
      <trkpt lat="43.87368" lon="6.98932">
        <ele>383.7</ele>
        <time>2021-09-19T14:54:19Z</time>
      </trkpt>
      <trkpt lat="43.8737" lon="6.98935">
        <ele>383.7</ele>
        <time>2021-09-19T14:54:20Z</time>
      </trkpt>
      <trkpt lat="43.87373" lon="6.9894">
        <ele>383.6</ele>
        <time>2021-09-19T14:54:22Z</time>
      </trkpt>
      <trkpt lat="43.87375" lon="6.98945">
        <ele>383.5</ele>
        <time>2021-09-19T14:54:23Z</time>
      </trkpt>
      <trkpt lat="43.87377" lon="6.98951">
        <ele>383.4</ele>
        <time>2021-09-19T14:54:25Z</time>
      </trkpt>
      <trkpt lat="43.8738" lon="6.98957">
        <ele>383.2</ele>
        <time>2021-09-19T14:54:26Z</time>
      </trkpt>
      <trkpt lat="43.87383" lon="6.98964">
        <ele>383</ele>
        <time>2021-09-19T14:54:28Z</time>
      </trkpt>
      <trkpt lat="43.8739" lon="6.98971">
        <ele>382.9</ele>
        <time>2021-09-19T14:54:29Z</time>
      </trkpt>
      <trkpt lat="43.87392" lon="6.98979">
        <ele>382.9</ele>
        <time>2021-09-19T14:54:31Z</time>
      </trkpt>
      <trkpt lat="43.87394" lon="6.98985">
        <ele>383</ele>
        <time>2021-09-19T14:54:32Z</time>
      </trkpt>
      <trkpt lat="43.87394" lon="6.98993">
        <ele>383.2</ele>
        <time>2021-09-19T14:54:34Z</time>
      </trkpt>
      <trkpt lat="43.87393" lon="6.99">
        <ele>383.3</ele>
        <time>2021-09-19T14:54:35Z</time>
      </trkpt>
      <trkpt lat="43.87391" lon="6.99008">
        <ele>383.3</ele>
        <time>2021-09-19T14:54:37Z</time>
      </trkpt>
      <trkpt lat="43.87392" lon="6.99014">
        <ele>383.4</ele>
        <time>2021-09-19T14:54:38Z</time>
      </trkpt>
      <trkpt lat="43.87393" lon="6.99019">
        <ele>383.4</ele>
        <time>2021-09-19T14:54:39Z</time>
      </trkpt>
      <trkpt lat="43.87394" lon="6.99024">
        <ele>383.4</ele>
        <time>2021-09-19T14:54:40Z</time>
      </trkpt>
      <trkpt lat="43.87396" lon="6.99028">
        <ele>383.3</ele>
        <time>2021-09-19T14:54:42Z</time>
      </trkpt>
      <trkpt lat="43.87399" lon="6.99032">
        <ele>383.3</ele>
        <time>2021-09-19T14:54:43Z</time>
      </trkpt>
      <trkpt lat="43.87401" lon="6.99035">
        <ele>383.2</ele>
        <time>2021-09-19T14:54:44Z</time>
      </trkpt>
      <trkpt lat="43.87406" lon="6.99039">
        <ele>383.1</ele>
        <time>2021-09-19T14:54:46Z</time>
      </trkpt>
      <trkpt lat="43.87405" lon="6.99043">
        <ele>383</ele>
        <time>2021-09-19T14:54:48Z</time>
      </trkpt>
      <trkpt lat="43.87405" lon="6.99045">
        <ele>383</ele>
        <time>2021-09-19T14:54:49Z</time>
      </trkpt>
      <trkpt lat="43.87404" lon="6.9905">
        <ele>382.8</ele>
        <time>2021-09-19T14:54:50Z</time>
      </trkpt>
      <trkpt lat="43.87405" lon="6.99054">
        <ele>382.7</ele>
        <time>2021-09-19T14:54:51Z</time>
      </trkpt>
      <trkpt lat="43.87405" lon="6.9906">
        <ele>382.5</ele>
        <time>2021-09-19T14:54:52Z</time>
      </trkpt>
      <trkpt lat="43.87406" lon="6.99065">
        <ele>382.3</ele>
        <time>2021-09-19T14:54:54Z</time>
      </trkpt>
      <trkpt lat="43.87409" lon="6.99072">
        <ele>381.9</ele>
        <time>2021-09-19T14:54:55Z</time>
      </trkpt>
      <trkpt lat="43.87416" lon="6.99081">
        <ele>381</ele>
        <time>2021-09-19T14:54:56Z</time>
      </trkpt>
      <trkpt lat="43.87425" lon="6.99098">
        <ele>378.9</ele>
        <time>2021-09-19T14:54:58Z</time>
      </trkpt>
      <trkpt lat="43.87434" lon="6.99118">
        <ele>376.9</ele>
        <time>2021-09-19T14:55:00Z</time>
      </trkpt>
      <trkpt lat="43.87442" lon="6.99136">
        <ele>376.6</ele>
        <time>2021-09-19T14:55:02Z</time>
      </trkpt>
      <trkpt lat="43.87445" lon="6.99143">
        <ele>376.3</ele>
        <time>2021-09-19T14:55:03Z</time>
      </trkpt>
      <trkpt lat="43.87449" lon="6.99156">
        <ele>375.6</ele>
        <time>2021-09-19T14:55:05Z</time>
      </trkpt>
      <trkpt lat="43.87448" lon="6.99172">
        <ele>374.5</ele>
        <time>2021-09-19T14:55:07Z</time>
      </trkpt>
      <trkpt lat="43.87446" lon="6.99194">
        <ele>372.8</ele>
        <time>2021-09-19T14:55:09Z</time>
      </trkpt>
      <trkpt lat="43.87446" lon="6.99213">
        <ele>371.6</ele>
        <time>2021-09-19T14:55:11Z</time>
      </trkpt>
      <trkpt lat="43.87446" lon="6.99221">
        <ele>371.2</ele>
        <time>2021-09-19T14:55:12Z</time>
      </trkpt>
      <trkpt lat="43.87445" lon="6.99232">
        <ele>370.6</ele>
        <time>2021-09-19T14:55:14Z</time>
      </trkpt>
      <trkpt lat="43.87444" lon="6.99236">
        <ele>370.4</ele>
        <time>2021-09-19T14:55:15Z</time>
      </trkpt>
      <trkpt lat="43.87444" lon="6.99239">
        <ele>370.2</ele>
        <time>2021-09-19T14:55:16Z</time>
      </trkpt>
      <trkpt lat="43.87443" lon="6.99241">
        <ele>370.1</ele>
        <time>2021-09-19T14:55:18Z</time>
      </trkpt>
      <trkpt lat="43.87443" lon="6.99242">
        <ele>370.1</ele>
        <time>2021-09-19T14:55:20Z</time>
      </trkpt>
      <trkpt lat="43.87442" lon="6.99243">
        <ele>370</ele>
        <time>2021-09-19T14:55:21Z</time>
      </trkpt>
      <trkpt lat="43.87442" lon="6.99245">
        <ele>369.9</ele>
        <time>2021-09-19T14:55:22Z</time>
      </trkpt>
      <trkpt lat="43.87442" lon="6.99246">
        <ele>369.8</ele>
        <time>2021-09-19T14:55:24Z</time>
      </trkpt>
      <trkpt lat="43.87441" lon="6.99247">
        <ele>369.7</ele>
        <time>2021-09-19T14:55:25Z</time>
      </trkpt>
      <trkpt lat="43.87441" lon="6.99249">
        <ele>369.7</ele>
        <time>2021-09-19T14:55:27Z</time>
      </trkpt>
      <trkpt lat="43.8744" lon="6.9925">
        <ele>369.6</ele>
        <time>2021-09-19T14:55:28Z</time>
      </trkpt>
      <trkpt lat="43.8744" lon="6.99252">
        <ele>369.5</ele>
        <time>2021-09-19T14:55:33Z</time>
      </trkpt>
      <trkpt lat="43.8744" lon="6.99253">
        <ele>369.4</ele>
        <time>2021-09-19T14:55:34Z</time>
      </trkpt>
      <trkpt lat="43.8744" lon="6.99262">
        <ele>368.9</ele>
        <time>2021-09-19T14:55:35Z</time>
      </trkpt>
      <trkpt lat="43.8744" lon="6.99271">
        <ele>368.4</ele>
        <time>2021-09-19T14:55:36Z</time>
      </trkpt>
      <trkpt lat="43.8744" lon="6.9928">
        <ele>367.8</ele>
        <time>2021-09-19T14:55:37Z</time>
      </trkpt>
      <trkpt lat="43.87441" lon="6.99289">
        <ele>367</ele>
        <time>2021-09-19T14:55:39Z</time>
      </trkpt>
      <trkpt lat="43.87441" lon="6.99297">
        <ele>365.9</ele>
        <time>2021-09-19T14:55:41Z</time>
      </trkpt>
      <trkpt lat="43.87442" lon="6.99303">
        <ele>364.9</ele>
        <time>2021-09-19T14:55:42Z</time>
      </trkpt>
      <trkpt lat="43.87444" lon="6.99307">
        <ele>364</ele>
        <time>2021-09-19T14:55:43Z</time>
      </trkpt>
      <trkpt lat="43.87446" lon="6.9931">
        <ele>363.1</ele>
        <time>2021-09-19T14:55:44Z</time>
      </trkpt>
      <trkpt lat="43.8745" lon="6.99311">
        <ele>361.8</ele>
        <time>2021-09-19T14:55:46Z</time>
      </trkpt>
      <trkpt lat="43.87452" lon="6.99311">
        <ele>361.2</ele>
        <time>2021-09-19T14:55:47Z</time>
      </trkpt>
      <trkpt lat="43.8746" lon="6.99314">
        <ele>359</ele>
        <time>2021-09-19T14:55:49Z</time>
      </trkpt>
      <trkpt lat="43.87465" lon="6.99317">
        <ele>357.8</ele>
        <time>2021-09-19T14:55:50Z</time>
      </trkpt>
      <trkpt lat="43.87471" lon="6.99321">
        <ele>356.6</ele>
        <time>2021-09-19T14:55:51Z</time>
      </trkpt>
      <trkpt lat="43.87473" lon="6.99329">
        <ele>355.5</ele>
        <time>2021-09-19T14:55:52Z</time>
      </trkpt>
      <trkpt lat="43.87474" lon="6.99341">
        <ele>354.1</ele>
        <time>2021-09-19T14:55:53Z</time>
      </trkpt>
      <trkpt lat="43.87474" lon="6.9935">
        <ele>353.1</ele>
        <time>2021-09-19T14:55:54Z</time>
      </trkpt>
      <trkpt lat="43.87466" lon="6.99371">
        <ele>351.1</ele>
        <time>2021-09-19T14:55:56Z</time>
      </trkpt>
      <trkpt lat="43.87457" lon="6.99395">
        <ele>349.4</ele>
        <time>2021-09-19T14:55:58Z</time>
      </trkpt>
      <trkpt lat="43.87452" lon="6.99406">
        <ele>348.7</ele>
        <time>2021-09-19T14:55:59Z</time>
      </trkpt>
      <trkpt lat="43.87448" lon="6.99417">
        <ele>347.7</ele>
        <time>2021-09-19T14:56:00Z</time>
      </trkpt>
      <trkpt lat="43.87443" lon="6.99426">
        <ele>346.7</ele>
        <time>2021-09-19T14:56:01Z</time>
      </trkpt>
      <trkpt lat="43.87437" lon="6.99435">
        <ele>345.7</ele>
        <time>2021-09-19T14:56:02Z</time>
      </trkpt>
      <trkpt lat="43.87426" lon="6.99458">
        <ele>343.5</ele>
        <time>2021-09-19T14:56:04Z</time>
      </trkpt>
      <trkpt lat="43.87422" lon="6.99471">
        <ele>342.3</ele>
        <time>2021-09-19T14:56:05Z</time>
      </trkpt>
      <trkpt lat="43.87415" lon="6.99498">
        <ele>340.4</ele>
        <time>2021-09-19T14:56:07Z</time>
      </trkpt>
      <trkpt lat="43.87408" lon="6.99524">
        <ele>339.5</ele>
        <time>2021-09-19T14:56:09Z</time>
      </trkpt>
      <trkpt lat="43.87403" lon="6.99548">
        <ele>338.2</ele>
        <time>2021-09-19T14:56:11Z</time>
      </trkpt>
      <trkpt lat="43.874" lon="6.99559">
        <ele>337.7</ele>
        <time>2021-09-19T14:56:12Z</time>
      </trkpt>
      <trkpt lat="43.87397" lon="6.9958">
        <ele>337.2</ele>
        <time>2021-09-19T14:56:14Z</time>
      </trkpt>
      <trkpt lat="43.87396" lon="6.99589">
        <ele>337.3</ele>
        <time>2021-09-19T14:56:15Z</time>
      </trkpt>
      <trkpt lat="43.87394" lon="6.99598">
        <ele>337.4</ele>
        <time>2021-09-19T14:56:16Z</time>
      </trkpt>
      <trkpt lat="43.8739" lon="6.99615">
        <ele>337.6</ele>
        <time>2021-09-19T14:56:18Z</time>
      </trkpt>
      <trkpt lat="43.87384" lon="6.99628">
        <ele>337.7</ele>
        <time>2021-09-19T14:56:20Z</time>
      </trkpt>
      <trkpt lat="43.87382" lon="6.99635">
        <ele>337.7</ele>
        <time>2021-09-19T14:56:21Z</time>
      </trkpt>
      <trkpt lat="43.87377" lon="6.99648">
        <ele>337.7</ele>
        <time>2021-09-19T14:56:23Z</time>
      </trkpt>
      <trkpt lat="43.87375" lon="6.99655">
        <ele>337.7</ele>
        <time>2021-09-19T14:56:24Z</time>
      </trkpt>
      <trkpt lat="43.87375" lon="6.9967">
        <ele>337.7</ele>
        <time>2021-09-19T14:56:26Z</time>
      </trkpt>
      <trkpt lat="43.87377" lon="6.99689">
        <ele>337.6</ele>
        <time>2021-09-19T14:56:28Z</time>
      </trkpt>
      <trkpt lat="43.87378" lon="6.99706">
        <ele>337.5</ele>
        <time>2021-09-19T14:56:30Z</time>
      </trkpt>
      <trkpt lat="43.87378" lon="6.99715">
        <ele>337.3</ele>
        <time>2021-09-19T14:56:31Z</time>
      </trkpt>
      <trkpt lat="43.87379" lon="6.99724">
        <ele>337.2</ele>
        <time>2021-09-19T14:56:32Z</time>
      </trkpt>
      <trkpt lat="43.87379" lon="6.99733">
        <ele>337</ele>
        <time>2021-09-19T14:56:33Z</time>
      </trkpt>
      <trkpt lat="43.87379" lon="6.99743">
        <ele>336.9</ele>
        <time>2021-09-19T14:56:34Z</time>
      </trkpt>
      <trkpt lat="43.87375" lon="6.99765">
        <ele>336.8</ele>
        <time>2021-09-19T14:56:36Z</time>
      </trkpt>
      <trkpt lat="43.87371" lon="6.99785">
        <ele>336.7</ele>
        <time>2021-09-19T14:56:38Z</time>
      </trkpt>
      <trkpt lat="43.8737" lon="6.99804">
        <ele>336.7</ele>
        <time>2021-09-19T14:56:40Z</time>
      </trkpt>
      <trkpt lat="43.87374" lon="6.99812">
        <ele>336.8</ele>
        <time>2021-09-19T14:56:41Z</time>
      </trkpt>
      <trkpt lat="43.87376" lon="6.99819">
        <ele>336.8</ele>
        <time>2021-09-19T14:56:42Z</time>
      </trkpt>
      <trkpt lat="43.87387" lon="6.99832">
        <ele>336.6</ele>
        <time>2021-09-19T14:56:44Z</time>
      </trkpt>
      <trkpt lat="43.87388" lon="6.9984">
        <ele>336.6</ele>
        <time>2021-09-19T14:56:45Z</time>
      </trkpt>
      <trkpt lat="43.87389" lon="6.99849">
        <ele>336.5</ele>
        <time>2021-09-19T14:56:46Z</time>
      </trkpt>
      <trkpt lat="43.87389" lon="6.99857">
        <ele>336.5</ele>
        <time>2021-09-19T14:56:47Z</time>
      </trkpt>
      <trkpt lat="43.87385" lon="6.99876">
        <ele>336.4</ele>
        <time>2021-09-19T14:56:49Z</time>
      </trkpt>
      <trkpt lat="43.87382" lon="6.99895">
        <ele>336.5</ele>
        <time>2021-09-19T14:56:51Z</time>
      </trkpt>
      <trkpt lat="43.87378" lon="6.99907">
        <ele>336.6</ele>
        <time>2021-09-19T14:56:53Z</time>
      </trkpt>
      <trkpt lat="43.87376" lon="6.99912">
        <ele>336.7</ele>
        <time>2021-09-19T14:56:54Z</time>
      </trkpt>
      <trkpt lat="43.87374" lon="6.99919">
        <ele>336.9</ele>
        <time>2021-09-19T14:56:55Z</time>
      </trkpt>
      <trkpt lat="43.87371" lon="6.99933">
        <ele>337.2</ele>
        <time>2021-09-19T14:56:57Z</time>
      </trkpt>
      <trkpt lat="43.87368" lon="6.99943">
        <ele>337.5</ele>
        <time>2021-09-19T14:56:59Z</time>
      </trkpt>
      <trkpt lat="43.87368" lon="6.99944">
        <ele>337.5</ele>
        <time>2021-09-19T14:57:00Z</time>
      </trkpt>
      <trkpt lat="43.87368" lon="6.99946">
        <ele>337.6</ele>
        <time>2021-09-19T14:57:02Z</time>
      </trkpt>
      <trkpt lat="43.87365" lon="6.99982">
        <ele>338.5</ele>
        <time>2021-09-19T14:57:10Z</time>
      </trkpt>
      <trkpt lat="43.87365" lon="6.9999">
        <ele>338.7</ele>
        <time>2021-09-19T14:57:11Z</time>
      </trkpt>
      <trkpt lat="43.87353" lon="7.00018">
        <ele>339.2</ele>
        <time>2021-09-19T14:57:12Z</time>
      </trkpt>
      <trkpt lat="43.8735" lon="7.00028">
        <ele>339.3</ele>
        <time>2021-09-19T14:57:13Z</time>
      </trkpt>
      <trkpt lat="43.87347" lon="7.00037">
        <ele>339.3</ele>
        <time>2021-09-19T14:57:14Z</time>
      </trkpt>
      <trkpt lat="43.87345" lon="7.00045">
        <ele>339.3</ele>
        <time>2021-09-19T14:57:15Z</time>
      </trkpt>
      <trkpt lat="43.87339" lon="7.00059">
        <ele>339.4</ele>
        <time>2021-09-19T14:57:17Z</time>
      </trkpt>
      <trkpt lat="43.87336" lon="7.00065">
        <ele>339.5</ele>
        <time>2021-09-19T14:57:18Z</time>
      </trkpt>
      <trkpt lat="43.8733" lon="7.00078">
        <ele>339.7</ele>
        <time>2021-09-19T14:57:20Z</time>
      </trkpt>
      <trkpt lat="43.87329" lon="7.00086">
        <ele>339.7</ele>
        <time>2021-09-19T14:57:21Z</time>
      </trkpt>
      <trkpt lat="43.87327" lon="7.00094">
        <ele>339.6</ele>
        <time>2021-09-19T14:57:22Z</time>
      </trkpt>
      <trkpt lat="43.87325" lon="7.00101">
        <ele>339.4</ele>
        <time>2021-09-19T14:57:23Z</time>
      </trkpt>
      <trkpt lat="43.87322" lon="7.00109">
        <ele>339.1</ele>
        <time>2021-09-19T14:57:24Z</time>
      </trkpt>
      <trkpt lat="43.8732" lon="7.00118">
        <ele>338.8</ele>
        <time>2021-09-19T14:57:25Z</time>
      </trkpt>
      <trkpt lat="43.87318" lon="7.00127">
        <ele>338.4</ele>
        <time>2021-09-19T14:57:26Z</time>
      </trkpt>
      <trkpt lat="43.87313" lon="7.0015">
        <ele>337.5</ele>
        <time>2021-09-19T14:57:28Z</time>
      </trkpt>
      <trkpt lat="43.87303" lon="7.00172">
        <ele>336.9</ele>
        <time>2021-09-19T14:57:30Z</time>
      </trkpt>
      <trkpt lat="43.87297" lon="7.00183">
        <ele>336.7</ele>
        <time>2021-09-19T14:57:31Z</time>
      </trkpt>
      <trkpt lat="43.87291" lon="7.00195">
        <ele>336.7</ele>
        <time>2021-09-19T14:57:32Z</time>
      </trkpt>
      <trkpt lat="43.87282" lon="7.00217">
        <ele>337.7</ele>
        <time>2021-09-19T14:57:34Z</time>
      </trkpt>
      <trkpt lat="43.87276" lon="7.00237">
        <ele>339.1</ele>
        <time>2021-09-19T14:57:36Z</time>
      </trkpt>
      <trkpt lat="43.87274" lon="7.00244">
        <ele>339.6</ele>
        <time>2021-09-19T14:57:37Z</time>
      </trkpt>
      <trkpt lat="43.87276" lon="7.00255">
        <ele>340.4</ele>
        <time>2021-09-19T14:57:39Z</time>
      </trkpt>
      <trkpt lat="43.87277" lon="7.00258">
        <ele>340.6</ele>
        <time>2021-09-19T14:57:40Z</time>
      </trkpt>
      <trkpt lat="43.87278" lon="7.00266">
        <ele>341.1</ele>
        <time>2021-09-19T14:57:42Z</time>
      </trkpt>
      <trkpt lat="43.87277" lon="7.00268">
        <ele>341.3</ele>
        <time>2021-09-19T14:57:43Z</time>
      </trkpt>
      <trkpt lat="43.87274" lon="7.00277">
        <ele>341.9</ele>
        <time>2021-09-19T14:57:45Z</time>
      </trkpt>
      <trkpt lat="43.87272" lon="7.0028">
        <ele>342.1</ele>
        <time>2021-09-19T14:57:46Z</time>
      </trkpt>
      <trkpt lat="43.87271" lon="7.00283">
        <ele>342.3</ele>
        <time>2021-09-19T14:57:47Z</time>
      </trkpt>
      <trkpt lat="43.8727" lon="7.00289">
        <ele>342.6</ele>
        <time>2021-09-19T14:57:49Z</time>
      </trkpt>
      <trkpt lat="43.8727" lon="7.00293">
        <ele>342.8</ele>
        <time>2021-09-19T14:57:50Z</time>
      </trkpt>
      <trkpt lat="43.87268" lon="7.00299">
        <ele>343</ele>
        <time>2021-09-19T14:57:51Z</time>
      </trkpt>
      <trkpt lat="43.87266" lon="7.00303">
        <ele>343.1</ele>
        <time>2021-09-19T14:57:52Z</time>
      </trkpt>
      <trkpt lat="43.87261" lon="7.00309">
        <ele>343.3</ele>
        <time>2021-09-19T14:57:53Z</time>
      </trkpt>
      <trkpt lat="43.87256" lon="7.00313">
        <ele>343.4</ele>
        <time>2021-09-19T14:57:54Z</time>
      </trkpt>
      <trkpt lat="43.87252" lon="7.00319">
        <ele>343.5</ele>
        <time>2021-09-19T14:57:56Z</time>
      </trkpt>
      <trkpt lat="43.87248" lon="7.00327">
        <ele>343.5</ele>
        <time>2021-09-19T14:57:57Z</time>
      </trkpt>
      <trkpt lat="43.87246" lon="7.00337">
        <ele>343.4</ele>
        <time>2021-09-19T14:57:59Z</time>
      </trkpt>
      <trkpt lat="43.87246" lon="7.00353">
        <ele>343.2</ele>
        <time>2021-09-19T14:58:00Z</time>
      </trkpt>
      <trkpt lat="43.87246" lon="7.00362">
        <ele>343.1</ele>
        <time>2021-09-19T14:58:01Z</time>
      </trkpt>
      <trkpt lat="43.87245" lon="7.00371">
        <ele>343</ele>
        <time>2021-09-19T14:58:02Z</time>
      </trkpt>
      <trkpt lat="43.87241" lon="7.00389">
        <ele>342.9</ele>
        <time>2021-09-19T14:58:04Z</time>
      </trkpt>
      <trkpt lat="43.8724" lon="7.00398">
        <ele>342.8</ele>
        <time>2021-09-19T14:58:05Z</time>
      </trkpt>
      <trkpt lat="43.8724" lon="7.00405">
        <ele>342.7</ele>
        <time>2021-09-19T14:58:06Z</time>
      </trkpt>
      <trkpt lat="43.87239" lon="7.00413">
        <ele>342.5</ele>
        <time>2021-09-19T14:58:08Z</time>
      </trkpt>
      <trkpt lat="43.87238" lon="7.0042">
        <ele>342.4</ele>
        <time>2021-09-19T14:58:09Z</time>
      </trkpt>
      <trkpt lat="43.87234" lon="7.0043">
        <ele>342.1</ele>
        <time>2021-09-19T14:58:11Z</time>
      </trkpt>
      <trkpt lat="43.87233" lon="7.00435">
        <ele>342</ele>
        <time>2021-09-19T14:58:12Z</time>
      </trkpt>
      <trkpt lat="43.87233" lon="7.00443">
        <ele>341.8</ele>
        <time>2021-09-19T14:58:14Z</time>
      </trkpt>
      <trkpt lat="43.87236" lon="7.00445">
        <ele>341.7</ele>
        <time>2021-09-19T14:58:16Z</time>
      </trkpt>
      <trkpt lat="43.87237" lon="7.00445">
        <ele>341.6</ele>
        <time>2021-09-19T14:58:17Z</time>
      </trkpt>
      <trkpt lat="43.87239" lon="7.00445">
        <ele>341.6</ele>
        <time>2021-09-19T14:58:19Z</time>
      </trkpt>
      <trkpt lat="43.8724" lon="7.00445">
        <ele>341.5</ele>
        <time>2021-09-19T14:58:20Z</time>
      </trkpt>
      <trkpt lat="43.8724" lon="7.00445">
        <ele>341.5</ele>
        <time>2021-09-19T14:58:21Z</time>
      </trkpt>
      <trkpt lat="43.8724" lon="7.00445">
        <ele>341.5</ele>
        <time>2021-09-19T14:58:23Z</time>
      </trkpt>
      <trkpt lat="43.8724" lon="7.00445">
        <ele>341.4</ele>
        <time>2021-09-19T14:58:24Z</time>
      </trkpt>
      <trkpt lat="43.87245" lon="7.005">
        <ele>333.8</ele>
        <time>2021-09-19T14:58:52Z</time>
      </trkpt>
      <trkpt lat="43.87247" lon="7.0052">
        <ele>331.1</ele>
        <time>2021-09-19T14:58:54Z</time>
      </trkpt>
      <trkpt lat="43.8725" lon="7.00538">
        <ele>328.9</ele>
        <time>2021-09-19T14:58:56Z</time>
      </trkpt>
      <trkpt lat="43.8725" lon="7.00552">
        <ele>327.5</ele>
        <time>2021-09-19T14:58:58Z</time>
      </trkpt>
      <trkpt lat="43.87251" lon="7.00559">
        <ele>326.8</ele>
        <time>2021-09-19T14:58:59Z</time>
      </trkpt>
      <trkpt lat="43.87252" lon="7.00566">
        <ele>326.3</ele>
        <time>2021-09-19T14:59:00Z</time>
      </trkpt>
      <trkpt lat="43.87255" lon="7.00579">
        <ele>325.3</ele>
        <time>2021-09-19T14:59:02Z</time>
      </trkpt>
      <trkpt lat="43.87255" lon="7.00584">
        <ele>324.9</ele>
        <time>2021-09-19T14:59:04Z</time>
      </trkpt>
      <trkpt lat="43.87257" lon="7.00589">
        <ele>324.5</ele>
        <time>2021-09-19T14:59:05Z</time>
      </trkpt>
      <trkpt lat="43.87258" lon="7.00591">
        <ele>323.8</ele>
        <time>2021-09-19T14:59:06Z</time>
      </trkpt>
      <trkpt lat="43.87255" lon="7.00593">
        <ele>323.8</ele>
        <time>2021-09-19T14:59:07Z</time>
      </trkpt>
      <trkpt lat="43.87254" lon="7.00594">
        <ele>323.8</ele>
        <time>2021-09-19T14:59:08Z</time>
      </trkpt>
      <trkpt lat="43.87253" lon="7.00595">
        <ele>323.8</ele>
        <time>2021-09-19T14:59:09Z</time>
      </trkpt>
      <trkpt lat="43.87252" lon="7.00595">
        <ele>323.8</ele>
        <time>2021-09-19T14:59:10Z</time>
      </trkpt>
      <trkpt lat="43.87248" lon="7.00599">
        <ele>323.8</ele>
        <time>2021-09-19T14:59:12Z</time>
      </trkpt>
      <trkpt lat="43.87246" lon="7.00601">
        <ele>323.9</ele>
        <time>2021-09-19T14:59:13Z</time>
      </trkpt>
      <trkpt lat="43.87241" lon="7.00606">
        <ele>324</ele>
        <time>2021-09-19T14:59:15Z</time>
      </trkpt>
      <trkpt lat="43.87238" lon="7.00607">
        <ele>324.1</ele>
        <time>2021-09-19T14:59:16Z</time>
      </trkpt>
      <trkpt lat="43.87234" lon="7.00607">
        <ele>324.2</ele>
        <time>2021-09-19T14:59:18Z</time>
      </trkpt>
      <trkpt lat="43.87232" lon="7.00606">
        <ele>324.2</ele>
        <time>2021-09-19T14:59:19Z</time>
      </trkpt>
      <trkpt lat="43.87229" lon="7.00606">
        <ele>324.2</ele>
        <time>2021-09-19T14:59:20Z</time>
      </trkpt>
      <trkpt lat="43.87225" lon="7.00605">
        <ele>324.3</ele>
        <time>2021-09-19T14:59:21Z</time>
      </trkpt>
      <trkpt lat="43.87224" lon="7.00605">
        <ele>324.3</ele>
        <time>2021-09-19T14:59:22Z</time>
      </trkpt>
      <trkpt lat="43.87221" lon="7.00602">
        <ele>324.4</ele>
        <time>2021-09-19T14:59:24Z</time>
      </trkpt>
      <trkpt lat="43.8722" lon="7.006">
        <ele>324.4</ele>
        <time>2021-09-19T14:59:25Z</time>
      </trkpt>
      <trkpt lat="43.8722" lon="7.00599">
        <ele>324.5</ele>
        <time>2021-09-19T14:59:26Z</time>
      </trkpt>
      <trkpt lat="43.87219" lon="7.00598">
        <ele>324.5</ele>
        <time>2021-09-19T14:59:27Z</time>
      </trkpt>
      <trkpt lat="43.87217" lon="7.00593">
        <ele>324.6</ele>
        <time>2021-09-19T14:59:29Z</time>
      </trkpt>
      <trkpt lat="43.87216" lon="7.00591">
        <ele>324.6</ele>
        <time>2021-09-19T14:59:30Z</time>
      </trkpt>
      <trkpt lat="43.87214" lon="7.00589">
        <ele>324.7</ele>
        <time>2021-09-19T14:59:31Z</time>
      </trkpt>
      <trkpt lat="43.87213" lon="7.00589">
        <ele>324.7</ele>
        <time>2021-09-19T14:59:33Z</time>
      </trkpt>
      <trkpt lat="43.87212" lon="7.00588">
        <ele>324.8</ele>
        <time>2021-09-19T14:59:34Z</time>
      </trkpt>
      <trkpt lat="43.87212" lon="7.00587">
        <ele>324.8</ele>
        <time>2021-09-19T14:59:36Z</time>
      </trkpt>
      <trkpt lat="43.87211" lon="7.00586">
        <ele>324.8</ele>
        <time>2021-09-19T14:59:37Z</time>
      </trkpt>
      <trkpt lat="43.87207" lon="7.00584">
        <ele>324.9</ele>
        <time>2021-09-19T14:59:39Z</time>
      </trkpt>
      <trkpt lat="43.87205" lon="7.00582">
        <ele>325</ele>
        <time>2021-09-19T14:59:40Z</time>
      </trkpt>
      <trkpt lat="43.872" lon="7.00581">
        <ele>325.1</ele>
        <time>2021-09-19T14:59:42Z</time>
      </trkpt>
      <trkpt lat="43.87199" lon="7.00581">
        <ele>325.1</ele>
        <time>2021-09-19T14:59:43Z</time>
      </trkpt>
      <trkpt lat="43.87198" lon="7.00582">
        <ele>325.1</ele>
        <time>2021-09-19T14:59:44Z</time>
      </trkpt>
      <trkpt lat="43.87198" lon="7.00583">
        <ele>325.1</ele>
        <time>2021-09-19T14:59:45Z</time>
      </trkpt>
      <trkpt lat="43.87197" lon="7.00583">
        <ele>325.1</ele>
        <time>2021-09-19T14:59:47Z</time>
      </trkpt>
      <trkpt lat="43.87197" lon="7.00583">
        <ele>325.1</ele>
        <time>2021-09-19T14:59:48Z</time>
      </trkpt>
      <trkpt lat="43.87197" lon="7.00584">
        <ele>325.1</ele>
        <time>2021-09-19T14:59:49Z</time>
      </trkpt>
      <trkpt lat="43.87197" lon="7.00585">
        <ele>325.1</ele>
        <time>2021-09-19T14:59:50Z</time>
      </trkpt>
      <trkpt lat="43.87198" lon="7.00588">
        <ele>325</ele>
        <time>2021-09-19T14:59:52Z</time>
      </trkpt>
      <trkpt lat="43.87196" lon="7.00592">
        <ele>325</ele>
        <time>2021-09-19T14:59:56Z</time>
      </trkpt>
      <trkpt lat="43.87194" lon="7.00595">
        <ele>325</ele>
        <time>2021-09-19T14:59:57Z</time>
      </trkpt>
      <trkpt lat="43.87194" lon="7.006">
        <ele>325</ele>
        <time>2021-09-19T14:59:58Z</time>
      </trkpt>
      <trkpt lat="43.87195" lon="7.00604">
        <ele>325</ele>
        <time>2021-09-19T14:59:59Z</time>
      </trkpt>
      <trkpt lat="43.87196" lon="7.00614">
        <ele>325</ele>
        <time>2021-09-19T15:00:01Z</time>
      </trkpt>
      <trkpt lat="43.87196" lon="7.00621">
        <ele>325</ele>
        <time>2021-09-19T15:00:02Z</time>
      </trkpt>
      <trkpt lat="43.87192" lon="7.0063">
        <ele>325</ele>
        <time>2021-09-19T15:00:03Z</time>
      </trkpt>
      <trkpt lat="43.87187" lon="7.00638">
        <ele>327.7</ele>
        <time>2021-09-19T15:00:05Z</time>
      </trkpt>
      <trkpt lat="43.87183" lon="7.00645">
        <ele>328.6</ele>
        <time>2021-09-19T15:00:07Z</time>
      </trkpt>
      <trkpt lat="43.87179" lon="7.00653">
        <ele>331.1</ele>
        <time>2021-09-19T15:02:27Z</time>
      </trkpt>
      <trkpt lat="43.87174" lon="7.0066">
        <ele>331.2</ele>
        <time>2021-09-19T15:02:28Z</time>
      </trkpt>
      <trkpt lat="43.87171" lon="7.00661">
        <ele>331.3</ele>
        <time>2021-09-19T15:02:29Z</time>
      </trkpt>
      <trkpt lat="43.87167" lon="7.00661">
        <ele>331.3</ele>
        <time>2021-09-19T15:02:30Z</time>
      </trkpt>
      <trkpt lat="43.87163" lon="7.00662">
        <ele>331.4</ele>
        <time>2021-09-19T15:02:31Z</time>
      </trkpt>
      <trkpt lat="43.87159" lon="7.00662">
        <ele>331.4</ele>
        <time>2021-09-19T15:02:32Z</time>
      </trkpt>
      <trkpt lat="43.87154" lon="7.00662">
        <ele>331.5</ele>
        <time>2021-09-19T15:02:33Z</time>
      </trkpt>
      <trkpt lat="43.8715" lon="7.00664">
        <ele>331.6</ele>
        <time>2021-09-19T15:02:34Z</time>
      </trkpt>
      <trkpt lat="43.87146" lon="7.00667">
        <ele>331.6</ele>
        <time>2021-09-19T15:02:36Z</time>
      </trkpt>
      <trkpt lat="43.87141" lon="7.00673">
        <ele>331.7</ele>
        <time>2021-09-19T15:02:38Z</time>
      </trkpt>
      <trkpt lat="43.87136" lon="7.00678">
        <ele>331.8</ele>
        <time>2021-09-19T15:02:40Z</time>
      </trkpt>
      <trkpt lat="43.87131" lon="7.00687">
        <ele>331.8</ele>
        <time>2021-09-19T15:02:42Z</time>
      </trkpt>
      <trkpt lat="43.87128" lon="7.00695">
        <ele>331.9</ele>
        <time>2021-09-19T15:02:43Z</time>
      </trkpt>
      <trkpt lat="43.87124" lon="7.00701">
        <ele>331.9</ele>
        <time>2021-09-19T15:02:45Z</time>
      </trkpt>
      <trkpt lat="43.87118" lon="7.00709">
        <ele>332</ele>
        <time>2021-09-19T15:02:47Z</time>
      </trkpt>
      <trkpt lat="43.87113" lon="7.00715">
        <ele>332</ele>
        <time>2021-09-19T15:02:49Z</time>
      </trkpt>
      <trkpt lat="43.87109" lon="7.00719">
        <ele>332.1</ele>
        <time>2021-09-19T15:02:50Z</time>
      </trkpt>
      <trkpt lat="43.87105" lon="7.00725">
        <ele>332.1</ele>
        <time>2021-09-19T15:02:51Z</time>
      </trkpt>
      <trkpt lat="43.87102" lon="7.0073">
        <ele>332.2</ele>
        <time>2021-09-19T15:02:52Z</time>
      </trkpt>
      <trkpt lat="43.87099" lon="7.00734">
        <ele>332.3</ele>
        <time>2021-09-19T15:02:53Z</time>
      </trkpt>
      <trkpt lat="43.87096" lon="7.00741">
        <ele>332.3</ele>
        <time>2021-09-19T15:02:55Z</time>
      </trkpt>
      <trkpt lat="43.87094" lon="7.00745">
        <ele>332.4</ele>
        <time>2021-09-19T15:02:56Z</time>
      </trkpt>
      <trkpt lat="43.87092" lon="7.00751">
        <ele>332.4</ele>
        <time>2021-09-19T15:02:57Z</time>
      </trkpt>
      <trkpt lat="43.87089" lon="7.00759">
        <ele>332.5</ele>
        <time>2021-09-19T15:02:59Z</time>
      </trkpt>
      <trkpt lat="43.87087" lon="7.00764">
        <ele>332.5</ele>
        <time>2021-09-19T15:03:00Z</time>
      </trkpt>
      <trkpt lat="43.87081" lon="7.00772">
        <ele>332.6</ele>
        <time>2021-09-19T15:03:02Z</time>
      </trkpt>
      <trkpt lat="43.87076" lon="7.0078">
        <ele>332.7</ele>
        <time>2021-09-19T15:03:04Z</time>
      </trkpt>
      <trkpt lat="43.87072" lon="7.00788">
        <ele>332.8</ele>
        <time>2021-09-19T15:03:06Z</time>
      </trkpt>
      <trkpt lat="43.87068" lon="7.00797">
        <ele>332.9</ele>
        <time>2021-09-19T15:03:08Z</time>
      </trkpt>
      <trkpt lat="43.87066" lon="7.00801">
        <ele>333</ele>
        <time>2021-09-19T15:03:09Z</time>
      </trkpt>
      <trkpt lat="43.87063" lon="7.00808">
        <ele>333</ele>
        <time>2021-09-19T15:03:10Z</time>
      </trkpt>
      <trkpt lat="43.87061" lon="7.00815">
        <ele>333.1</ele>
        <time>2021-09-19T15:03:12Z</time>
      </trkpt>
      <trkpt lat="43.8706" lon="7.00823">
        <ele>333.2</ele>
        <time>2021-09-19T15:03:13Z</time>
      </trkpt>
      <trkpt lat="43.87059" lon="7.00833">
        <ele>333.2</ele>
        <time>2021-09-19T15:03:15Z</time>
      </trkpt>
      <trkpt lat="43.87055" lon="7.00843">
        <ele>333.3</ele>
        <time>2021-09-19T15:03:17Z</time>
      </trkpt>
      <trkpt lat="43.8705" lon="7.00853">
        <ele>333.4</ele>
        <time>2021-09-19T15:03:19Z</time>
      </trkpt>
      <trkpt lat="43.87047" lon="7.00862">
        <ele>333.5</ele>
        <time>2021-09-19T15:03:21Z</time>
      </trkpt>
      <trkpt lat="43.87044" lon="7.00869">
        <ele>333.6</ele>
        <time>2021-09-19T15:03:22Z</time>
      </trkpt>
      <trkpt lat="43.87042" lon="7.00875">
        <ele>333.6</ele>
        <time>2021-09-19T15:03:23Z</time>
      </trkpt>
      <trkpt lat="43.87042" lon="7.0088">
        <ele>333.7</ele>
        <time>2021-09-19T15:03:24Z</time>
      </trkpt>
      <trkpt lat="43.87042" lon="7.00888">
        <ele>333.8</ele>
        <time>2021-09-19T15:03:26Z</time>
      </trkpt>
      <trkpt lat="43.8704" lon="7.00893">
        <ele>333.8</ele>
        <time>2021-09-19T15:03:27Z</time>
      </trkpt>
      <trkpt lat="43.87039" lon="7.00898">
        <ele>333.8</ele>
        <time>2021-09-19T15:03:28Z</time>
      </trkpt>
      <trkpt lat="43.87038" lon="7.00902">
        <ele>333.9</ele>
        <time>2021-09-19T15:03:29Z</time>
      </trkpt>
      <trkpt lat="43.87037" lon="7.00907">
        <ele>333.9</ele>
        <time>2021-09-19T15:03:30Z</time>
      </trkpt>
      <trkpt lat="43.87036" lon="7.00913">
        <ele>334</ele>
        <time>2021-09-19T15:03:31Z</time>
      </trkpt>
      <trkpt lat="43.87033" lon="7.00922">
        <ele>334</ele>
        <time>2021-09-19T15:03:33Z</time>
      </trkpt>
      <trkpt lat="43.8703" lon="7.00931">
        <ele>334.1</ele>
        <time>2021-09-19T15:03:34Z</time>
      </trkpt>
      <trkpt lat="43.87028" lon="7.00936">
        <ele>334.2</ele>
        <time>2021-09-19T15:03:35Z</time>
      </trkpt>
      <trkpt lat="43.87027" lon="7.00943">
        <ele>334.3</ele>
        <time>2021-09-19T15:03:37Z</time>
      </trkpt>
      <trkpt lat="43.87026" lon="7.00947">
        <ele>334.3</ele>
        <time>2021-09-19T15:03:38Z</time>
      </trkpt>
      <trkpt lat="43.87024" lon="7.00952">
        <ele>334.4</ele>
        <time>2021-09-19T15:03:39Z</time>
      </trkpt>
      <trkpt lat="43.87021" lon="7.00958">
        <ele>334.5</ele>
        <time>2021-09-19T15:03:40Z</time>
      </trkpt>
      <trkpt lat="43.87017" lon="7.00965">
        <ele>334.6</ele>
        <time>2021-09-19T15:03:42Z</time>
      </trkpt>
      <trkpt lat="43.87015" lon="7.00971">
        <ele>334.7</ele>
        <time>2021-09-19T15:03:43Z</time>
      </trkpt>
      <trkpt lat="43.87011" lon="7.00982">
        <ele>334.9</ele>
        <time>2021-09-19T15:03:45Z</time>
      </trkpt>
      <trkpt lat="43.87008" lon="7.00992">
        <ele>335</ele>
        <time>2021-09-19T15:03:47Z</time>
      </trkpt>
      <trkpt lat="43.87006" lon="7.00997">
        <ele>335.1</ele>
        <time>2021-09-19T15:03:48Z</time>
      </trkpt>
      <trkpt lat="43.87005" lon="7.01002">
        <ele>335.2</ele>
        <time>2021-09-19T15:03:49Z</time>
      </trkpt>
      <trkpt lat="43.87004" lon="7.01007">
        <ele>335.2</ele>
        <time>2021-09-19T15:03:50Z</time>
      </trkpt>
      <trkpt lat="43.87001" lon="7.01016">
        <ele>335.4</ele>
        <time>2021-09-19T15:03:52Z</time>
      </trkpt>
      <trkpt lat="43.86999" lon="7.0102">
        <ele>335.4</ele>
        <time>2021-09-19T15:03:53Z</time>
      </trkpt>
      <trkpt lat="43.86996" lon="7.01027">
        <ele>335.5</ele>
        <time>2021-09-19T15:03:54Z</time>
      </trkpt>
      <trkpt lat="43.86992" lon="7.01035">
        <ele>335.6</ele>
        <time>2021-09-19T15:03:56Z</time>
      </trkpt>
      <trkpt lat="43.86989" lon="7.01039">
        <ele>335.7</ele>
        <time>2021-09-19T15:03:57Z</time>
      </trkpt>
      <trkpt lat="43.86986" lon="7.01043">
        <ele>335.8</ele>
        <time>2021-09-19T15:03:58Z</time>
      </trkpt>
      <trkpt lat="43.86983" lon="7.01051">
        <ele>335.8</ele>
        <time>2021-09-19T15:04:00Z</time>
      </trkpt>
      <trkpt lat="43.86979" lon="7.01059">
        <ele>335.8</ele>
        <time>2021-09-19T15:04:02Z</time>
      </trkpt>
      <trkpt lat="43.86978" lon="7.01064">
        <ele>335.9</ele>
        <time>2021-09-19T15:04:03Z</time>
      </trkpt>
      <trkpt lat="43.86976" lon="7.0107">
        <ele>335.9</ele>
        <time>2021-09-19T15:04:04Z</time>
      </trkpt>
      <trkpt lat="43.86975" lon="7.01075">
        <ele>336</ele>
        <time>2021-09-19T15:04:05Z</time>
      </trkpt>
      <trkpt lat="43.86972" lon="7.0108">
        <ele>336</ele>
        <time>2021-09-19T15:04:06Z</time>
      </trkpt>
      <trkpt lat="43.8697" lon="7.01085">
        <ele>336</ele>
        <time>2021-09-19T15:04:07Z</time>
      </trkpt>
      <trkpt lat="43.86966" lon="7.01096">
        <ele>336.1</ele>
        <time>2021-09-19T15:04:09Z</time>
      </trkpt>
      <trkpt lat="43.86964" lon="7.01101">
        <ele>336.1</ele>
        <time>2021-09-19T15:04:10Z</time>
      </trkpt>
      <trkpt lat="43.86962" lon="7.01107">
        <ele>336.2</ele>
        <time>2021-09-19T15:04:11Z</time>
      </trkpt>
      <trkpt lat="43.86961" lon="7.01111">
        <ele>336.2</ele>
        <time>2021-09-19T15:04:12Z</time>
      </trkpt>
      <trkpt lat="43.86957" lon="7.01117">
        <ele>336.3</ele>
        <time>2021-09-19T15:04:14Z</time>
      </trkpt>
      <trkpt lat="43.86954" lon="7.01124">
        <ele>336.4</ele>
        <time>2021-09-19T15:04:15Z</time>
      </trkpt>
      <trkpt lat="43.86951" lon="7.01131">
        <ele>336.4</ele>
        <time>2021-09-19T15:04:16Z</time>
      </trkpt>
      <trkpt lat="43.86948" lon="7.01143">
        <ele>336.6</ele>
        <time>2021-09-19T15:04:18Z</time>
      </trkpt>
      <trkpt lat="43.86947" lon="7.01147">
        <ele>336.6</ele>
        <time>2021-09-19T15:04:19Z</time>
      </trkpt>
      <trkpt lat="43.86944" lon="7.01155">
        <ele>336.7</ele>
        <time>2021-09-19T15:04:21Z</time>
      </trkpt>
      <trkpt lat="43.86942" lon="7.0116">
        <ele>336.7</ele>
        <time>2021-09-19T15:04:22Z</time>
      </trkpt>
      <trkpt lat="43.8694" lon="7.01165">
        <ele>336.7</ele>
        <time>2021-09-19T15:04:23Z</time>
      </trkpt>
      <trkpt lat="43.86937" lon="7.01172">
        <ele>336.8</ele>
        <time>2021-09-19T15:04:24Z</time>
      </trkpt>
      <trkpt lat="43.86933" lon="7.01185">
        <ele>336.9</ele>
        <time>2021-09-19T15:04:26Z</time>
      </trkpt>
      <trkpt lat="43.8693" lon="7.01194">
        <ele>337</ele>
        <time>2021-09-19T15:04:28Z</time>
      </trkpt>
      <trkpt lat="43.86926" lon="7.01198">
        <ele>337.1</ele>
        <time>2021-09-19T15:04:29Z</time>
      </trkpt>
      <trkpt lat="43.86923" lon="7.01208">
        <ele>337.2</ele>
        <time>2021-09-19T15:04:31Z</time>
      </trkpt>
      <trkpt lat="43.86918" lon="7.01218">
        <ele>337.3</ele>
        <time>2021-09-19T15:04:33Z</time>
      </trkpt>
      <trkpt lat="43.86915" lon="7.01226">
        <ele>337.3</ele>
        <time>2021-09-19T15:04:35Z</time>
      </trkpt>
      <trkpt lat="43.86913" lon="7.01233">
        <ele>337.4</ele>
        <time>2021-09-19T15:04:36Z</time>
      </trkpt>
      <trkpt lat="43.8691" lon="7.01242">
        <ele>337.5</ele>
        <time>2021-09-19T15:04:38Z</time>
      </trkpt>
      <trkpt lat="43.86908" lon="7.01248">
        <ele>337.5</ele>
        <time>2021-09-19T15:04:39Z</time>
      </trkpt>
      <trkpt lat="43.86904" lon="7.01256">
        <ele>337.6</ele>
        <time>2021-09-19T15:04:41Z</time>
      </trkpt>
      <trkpt lat="43.86902" lon="7.01259">
        <ele>337.6</ele>
        <time>2021-09-19T15:04:42Z</time>
      </trkpt>
      <trkpt lat="43.86898" lon="7.01267">
        <ele>337.7</ele>
        <time>2021-09-19T15:04:44Z</time>
      </trkpt>
      <trkpt lat="43.86896" lon="7.0127">
        <ele>337.8</ele>
        <time>2021-09-19T15:04:45Z</time>
      </trkpt>
      <trkpt lat="43.86892" lon="7.01273">
        <ele>337.8</ele>
        <time>2021-09-19T15:04:46Z</time>
      </trkpt>
      <trkpt lat="43.8689" lon="7.01275">
        <ele>337.9</ele>
        <time>2021-09-19T15:04:47Z</time>
      </trkpt>
      <trkpt lat="43.86888" lon="7.01278">
        <ele>337.9</ele>
        <time>2021-09-19T15:04:48Z</time>
      </trkpt>
      <trkpt lat="43.86885" lon="7.01283">
        <ele>338</ele>
        <time>2021-09-19T15:04:50Z</time>
      </trkpt>
      <trkpt lat="43.86882" lon="7.01286">
        <ele>338.1</ele>
        <time>2021-09-19T15:04:51Z</time>
      </trkpt>
      <trkpt lat="43.86879" lon="7.01287">
        <ele>338.1</ele>
        <time>2021-09-19T15:04:52Z</time>
      </trkpt>
      <trkpt lat="43.86876" lon="7.0129">
        <ele>338.2</ele>
        <time>2021-09-19T15:04:53Z</time>
      </trkpt>
      <trkpt lat="43.86873" lon="7.01292">
        <ele>338.2</ele>
        <time>2021-09-19T15:04:54Z</time>
      </trkpt>
      <trkpt lat="43.86871" lon="7.01297">
        <ele>338.3</ele>
        <time>2021-09-19T15:04:55Z</time>
      </trkpt>
      <trkpt lat="43.86868" lon="7.01302">
        <ele>338.4</ele>
        <time>2021-09-19T15:04:56Z</time>
      </trkpt>
      <trkpt lat="43.86866" lon="7.01308">
        <ele>338.4</ele>
        <time>2021-09-19T15:04:57Z</time>
      </trkpt>
      <trkpt lat="43.86863" lon="7.01317">
        <ele>338.5</ele>
        <time>2021-09-19T15:04:59Z</time>
      </trkpt>
      <trkpt lat="43.86863" lon="7.01322">
        <ele>338.6</ele>
        <time>2021-09-19T15:05:00Z</time>
      </trkpt>
      <trkpt lat="43.86863" lon="7.01327">
        <ele>338.6</ele>
        <time>2021-09-19T15:05:01Z</time>
      </trkpt>
      <trkpt lat="43.86864" lon="7.01333">
        <ele>338.7</ele>
        <time>2021-09-19T15:05:02Z</time>
      </trkpt>
      <trkpt lat="43.86866" lon="7.0134">
        <ele>338.7</ele>
        <time>2021-09-19T15:05:03Z</time>
      </trkpt>
      <trkpt lat="43.86867" lon="7.01345">
        <ele>338.8</ele>
        <time>2021-09-19T15:05:04Z</time>
      </trkpt>
      <trkpt lat="43.86868" lon="7.01353">
        <ele>338.9</ele>
        <time>2021-09-19T15:05:06Z</time>
      </trkpt>
      <trkpt lat="43.86868" lon="7.01358">
        <ele>338.9</ele>
        <time>2021-09-19T15:05:07Z</time>
      </trkpt>
      <trkpt lat="43.86869" lon="7.01367">
        <ele>339</ele>
        <time>2021-09-19T15:05:09Z</time>
      </trkpt>
      <trkpt lat="43.86869" lon="7.01376">
        <ele>339.1</ele>
        <time>2021-09-19T15:05:11Z</time>
      </trkpt>
      <trkpt lat="43.86869" lon="7.01381">
        <ele>339.2</ele>
        <time>2021-09-19T15:05:12Z</time>
      </trkpt>
      <trkpt lat="43.86866" lon="7.01389">
        <ele>339.3</ele>
        <time>2021-09-19T15:05:14Z</time>
      </trkpt>
      <trkpt lat="43.86863" lon="7.01398">
        <ele>339.3</ele>
        <time>2021-09-19T15:05:15Z</time>
      </trkpt>
      <trkpt lat="43.86859" lon="7.01405">
        <ele>339.4</ele>
        <time>2021-09-19T15:05:16Z</time>
      </trkpt>
      <trkpt lat="43.86854" lon="7.01413">
        <ele>339.5</ele>
        <time>2021-09-19T15:05:18Z</time>
      </trkpt>
      <trkpt lat="43.86848" lon="7.0142">
        <ele>339.6</ele>
        <time>2021-09-19T15:05:20Z</time>
      </trkpt>
      <trkpt lat="43.8684" lon="7.01423">
        <ele>339.7</ele>
        <time>2021-09-19T15:05:22Z</time>
      </trkpt>
      <trkpt lat="43.86835" lon="7.01424">
        <ele>339.7</ele>
        <time>2021-09-19T15:05:23Z</time>
      </trkpt>
      <trkpt lat="43.86829" lon="7.01425">
        <ele>339.8</ele>
        <time>2021-09-19T15:05:25Z</time>
      </trkpt>
      <trkpt lat="43.86825" lon="7.01426">
        <ele>339.9</ele>
        <time>2021-09-19T15:05:26Z</time>
      </trkpt>
      <trkpt lat="43.86819" lon="7.01429">
        <ele>340</ele>
        <time>2021-09-19T15:05:28Z</time>
      </trkpt>
      <trkpt lat="43.86816" lon="7.0143">
        <ele>340</ele>
        <time>2021-09-19T15:05:29Z</time>
      </trkpt>
      <trkpt lat="43.86812" lon="7.01433">
        <ele>340.1</ele>
        <time>2021-09-19T15:05:30Z</time>
      </trkpt>
      <trkpt lat="43.86809" lon="7.01436">
        <ele>340.1</ele>
        <time>2021-09-19T15:05:31Z</time>
      </trkpt>
      <trkpt lat="43.86804" lon="7.01442">
        <ele>340.2</ele>
        <time>2021-09-19T15:05:33Z</time>
      </trkpt>
      <trkpt lat="43.86798" lon="7.01447">
        <ele>340.3</ele>
        <time>2021-09-19T15:05:35Z</time>
      </trkpt>
      <trkpt lat="43.86795" lon="7.0145">
        <ele>340.3</ele>
        <time>2021-09-19T15:05:36Z</time>
      </trkpt>
      <trkpt lat="43.86791" lon="7.01452">
        <ele>340.3</ele>
        <time>2021-09-19T15:05:37Z</time>
      </trkpt>
      <trkpt lat="43.86785" lon="7.01459">
        <ele>340.4</ele>
        <time>2021-09-19T15:05:39Z</time>
      </trkpt>
      <trkpt lat="43.86778" lon="7.01463">
        <ele>340.4</ele>
        <time>2021-09-19T15:05:41Z</time>
      </trkpt>
      <trkpt lat="43.86775" lon="7.01466">
        <ele>340.4</ele>
        <time>2021-09-19T15:05:42Z</time>
      </trkpt>
      <trkpt lat="43.86773" lon="7.01469">
        <ele>340.4</ele>
        <time>2021-09-19T15:05:43Z</time>
      </trkpt>
      <trkpt lat="43.8677" lon="7.01474">
        <ele>340.4</ele>
        <time>2021-09-19T15:05:44Z</time>
      </trkpt>
      <trkpt lat="43.86768" lon="7.01481">
        <ele>340.5</ele>
        <time>2021-09-19T15:05:46Z</time>
      </trkpt>
      <trkpt lat="43.86766" lon="7.01485">
        <ele>340.5</ele>
        <time>2021-09-19T15:05:47Z</time>
      </trkpt>
      <trkpt lat="43.86764" lon="7.0149">
        <ele>340.5</ele>
        <time>2021-09-19T15:05:48Z</time>
      </trkpt>
      <trkpt lat="43.86761" lon="7.01499">
        <ele>340.5</ele>
        <time>2021-09-19T15:05:50Z</time>
      </trkpt>
      <trkpt lat="43.86757" lon="7.01506">
        <ele>340.6</ele>
        <time>2021-09-19T15:05:51Z</time>
      </trkpt>
      <trkpt lat="43.86753" lon="7.01513">
        <ele>340.6</ele>
        <time>2021-09-19T15:05:53Z</time>
      </trkpt>
      <trkpt lat="43.8675" lon="7.01516">
        <ele>340.6</ele>
        <time>2021-09-19T15:05:54Z</time>
      </trkpt>
      <trkpt lat="43.86746" lon="7.01521">
        <ele>340.7</ele>
        <time>2021-09-19T15:05:55Z</time>
      </trkpt>
      <trkpt lat="43.86742" lon="7.01525">
        <ele>340.7</ele>
        <time>2021-09-19T15:05:56Z</time>
      </trkpt>
      <trkpt lat="43.86738" lon="7.01532">
        <ele>340.8</ele>
        <time>2021-09-19T15:05:58Z</time>
      </trkpt>
      <trkpt lat="43.86734" lon="7.01535">
        <ele>340.9</ele>
        <time>2021-09-19T15:05:59Z</time>
      </trkpt>
      <trkpt lat="43.86733" lon="7.01536">
        <ele>340.9</ele>
        <time>2021-09-19T15:06:00Z</time>
      </trkpt>
      <trkpt lat="43.86728" lon="7.01542">
        <ele>341</ele>
        <time>2021-09-19T15:06:02Z</time>
      </trkpt>
      <trkpt lat="43.86725" lon="7.01546">
        <ele>341</ele>
        <time>2021-09-19T15:06:03Z</time>
      </trkpt>
      <trkpt lat="43.86722" lon="7.01551">
        <ele>341.1</ele>
        <time>2021-09-19T15:06:04Z</time>
      </trkpt>
      <trkpt lat="43.86719" lon="7.01555">
        <ele>341.2</ele>
        <time>2021-09-19T15:06:05Z</time>
      </trkpt>
      <trkpt lat="43.86712" lon="7.01562">
        <ele>341.2</ele>
        <time>2021-09-19T15:06:07Z</time>
      </trkpt>
      <trkpt lat="43.86709" lon="7.01568">
        <ele>341.3</ele>
        <time>2021-09-19T15:06:08Z</time>
      </trkpt>
      <trkpt lat="43.86706" lon="7.01573">
        <ele>341.3</ele>
        <time>2021-09-19T15:06:09Z</time>
      </trkpt>
      <trkpt lat="43.86702" lon="7.01579">
        <ele>341.3</ele>
        <time>2021-09-19T15:06:10Z</time>
      </trkpt>
      <trkpt lat="43.86696" lon="7.0159">
        <ele>341.3</ele>
        <time>2021-09-19T15:06:12Z</time>
      </trkpt>
      <trkpt lat="43.8669" lon="7.016">
        <ele>341.4</ele>
        <time>2021-09-19T15:06:14Z</time>
      </trkpt>
      <trkpt lat="43.86687" lon="7.01605">
        <ele>341.4</ele>
        <time>2021-09-19T15:06:15Z</time>
      </trkpt>
      <trkpt lat="43.86681" lon="7.01613">
        <ele>341.4</ele>
        <time>2021-09-19T15:06:17Z</time>
      </trkpt>
      <trkpt lat="43.86678" lon="7.01615">
        <ele>341.4</ele>
        <time>2021-09-19T15:06:18Z</time>
      </trkpt>
      <trkpt lat="43.86673" lon="7.01621">
        <ele>341.4</ele>
        <time>2021-09-19T15:06:20Z</time>
      </trkpt>
      <trkpt lat="43.86667" lon="7.01625">
        <ele>341.6</ele>
        <time>2021-09-19T15:06:22Z</time>
      </trkpt>
      <trkpt lat="43.86663" lon="7.01628">
        <ele>341.7</ele>
        <time>2021-09-19T15:06:23Z</time>
      </trkpt>
      <trkpt lat="43.86656" lon="7.0163">
        <ele>341.9</ele>
        <time>2021-09-19T15:06:25Z</time>
      </trkpt>
      <trkpt lat="43.86652" lon="7.01631">
        <ele>342</ele>
        <time>2021-09-19T15:06:26Z</time>
      </trkpt>
      <trkpt lat="43.86648" lon="7.01632">
        <ele>342.1</ele>
        <time>2021-09-19T15:06:27Z</time>
      </trkpt>
      <trkpt lat="43.86644" lon="7.01633">
        <ele>342.3</ele>
        <time>2021-09-19T15:06:28Z</time>
      </trkpt>
      <trkpt lat="43.8664" lon="7.01634">
        <ele>342.4</ele>
        <time>2021-09-19T15:06:29Z</time>
      </trkpt>
      <trkpt lat="43.86636" lon="7.01636">
        <ele>342.5</ele>
        <time>2021-09-19T15:06:30Z</time>
      </trkpt>
      <trkpt lat="43.8663" lon="7.0164">
        <ele>342.7</ele>
        <time>2021-09-19T15:06:32Z</time>
      </trkpt>
      <trkpt lat="43.86625" lon="7.01643">
        <ele>342.9</ele>
        <time>2021-09-19T15:06:33Z</time>
      </trkpt>
      <trkpt lat="43.8662" lon="7.01645">
        <ele>343.1</ele>
        <time>2021-09-19T15:06:34Z</time>
      </trkpt>
      <trkpt lat="43.86614" lon="7.01651">
        <ele>343.2</ele>
        <time>2021-09-19T15:06:36Z</time>
      </trkpt>
      <trkpt lat="43.8661" lon="7.0166">
        <ele>343.2</ele>
        <time>2021-09-19T15:06:38Z</time>
      </trkpt>
      <trkpt lat="43.86606" lon="7.01668">
        <ele>343.3</ele>
        <time>2021-09-19T15:06:40Z</time>
      </trkpt>
      <trkpt lat="43.86602" lon="7.01677">
        <ele>343.4</ele>
        <time>2021-09-19T15:06:41Z</time>
      </trkpt>
      <trkpt lat="43.866" lon="7.01683">
        <ele>343.4</ele>
        <time>2021-09-19T15:06:42Z</time>
      </trkpt>
      <trkpt lat="43.86598" lon="7.0169">
        <ele>343.4</ele>
        <time>2021-09-19T15:06:43Z</time>
      </trkpt>
      <trkpt lat="43.86593" lon="7.01702">
        <ele>343.4</ele>
        <time>2021-09-19T15:06:45Z</time>
      </trkpt>
      <trkpt lat="43.8659" lon="7.01706">
        <ele>343.4</ele>
        <time>2021-09-19T15:06:46Z</time>
      </trkpt>
      <trkpt lat="43.86587" lon="7.01713">
        <ele>343.5</ele>
        <time>2021-09-19T15:06:47Z</time>
      </trkpt>
      <trkpt lat="43.86586" lon="7.01719">
        <ele>343.5</ele>
        <time>2021-09-19T15:06:48Z</time>
      </trkpt>
      <trkpt lat="43.86584" lon="7.01727">
        <ele>343.5</ele>
        <time>2021-09-19T15:06:50Z</time>
      </trkpt>
      <trkpt lat="43.8658" lon="7.01736">
        <ele>343.6</ele>
        <time>2021-09-19T15:06:52Z</time>
      </trkpt>
      <trkpt lat="43.86577" lon="7.01742">
        <ele>343.6</ele>
        <time>2021-09-19T15:06:53Z</time>
      </trkpt>
      <trkpt lat="43.86576" lon="7.01748">
        <ele>343.6</ele>
        <time>2021-09-19T15:06:54Z</time>
      </trkpt>
      <trkpt lat="43.86574" lon="7.01754">
        <ele>343.7</ele>
        <time>2021-09-19T15:06:55Z</time>
      </trkpt>
      <trkpt lat="43.86571" lon="7.01762">
        <ele>343.7</ele>
        <time>2021-09-19T15:06:56Z</time>
      </trkpt>
      <trkpt lat="43.86566" lon="7.01771">
        <ele>343.8</ele>
        <time>2021-09-19T15:06:58Z</time>
      </trkpt>
      <trkpt lat="43.86563" lon="7.01777">
        <ele>343.9</ele>
        <time>2021-09-19T15:06:59Z</time>
      </trkpt>
      <trkpt lat="43.86558" lon="7.01783">
        <ele>344</ele>
        <time>2021-09-19T15:07:01Z</time>
      </trkpt>
      <trkpt lat="43.86552" lon="7.01786">
        <ele>344.1</ele>
        <time>2021-09-19T15:07:02Z</time>
      </trkpt>
      <trkpt lat="43.86543" lon="7.01791">
        <ele>344.2</ele>
        <time>2021-09-19T15:07:04Z</time>
      </trkpt>
      <trkpt lat="43.86539" lon="7.01794">
        <ele>344.3</ele>
        <time>2021-09-19T15:07:05Z</time>
      </trkpt>
      <trkpt lat="43.86532" lon="7.01799">
        <ele>344.4</ele>
        <time>2021-09-19T15:07:07Z</time>
      </trkpt>
      <trkpt lat="43.86529" lon="7.01803">
        <ele>344.5</ele>
        <time>2021-09-19T15:07:08Z</time>
      </trkpt>
      <trkpt lat="43.86518" lon="7.01807">
        <ele>344.6</ele>
        <time>2021-09-19T15:07:10Z</time>
      </trkpt>
      <trkpt lat="43.86507" lon="7.01811">
        <ele>344.8</ele>
        <time>2021-09-19T15:07:12Z</time>
      </trkpt>
      <trkpt lat="43.86497" lon="7.01814">
        <ele>344.9</ele>
        <time>2021-09-19T15:07:14Z</time>
      </trkpt>
      <trkpt lat="43.86486" lon="7.01819">
        <ele>345</ele>
        <time>2021-09-19T15:07:16Z</time>
      </trkpt>
      <trkpt lat="43.86481" lon="7.01823">
        <ele>345.1</ele>
        <time>2021-09-19T15:07:17Z</time>
      </trkpt>
      <trkpt lat="43.86472" lon="7.01832">
        <ele>345.2</ele>
        <time>2021-09-19T15:07:19Z</time>
      </trkpt>
      <trkpt lat="43.86464" lon="7.01841">
        <ele>345.3</ele>
        <time>2021-09-19T15:07:21Z</time>
      </trkpt>
      <trkpt lat="43.8646" lon="7.01846">
        <ele>345.4</ele>
        <time>2021-09-19T15:07:22Z</time>
      </trkpt>
      <trkpt lat="43.86455" lon="7.0185">
        <ele>345.5</ele>
        <time>2021-09-19T15:07:23Z</time>
      </trkpt>
      <trkpt lat="43.86445" lon="7.01858">
        <ele>345.7</ele>
        <time>2021-09-19T15:07:25Z</time>
      </trkpt>
      <trkpt lat="43.8644" lon="7.01861">
        <ele>345.7</ele>
        <time>2021-09-19T15:07:26Z</time>
      </trkpt>
      <trkpt lat="43.86429" lon="7.01866">
        <ele>345.9</ele>
        <time>2021-09-19T15:07:28Z</time>
      </trkpt>
      <trkpt lat="43.86424" lon="7.01869">
        <ele>346</ele>
        <time>2021-09-19T15:07:29Z</time>
      </trkpt>
      <trkpt lat="43.86419" lon="7.01871">
        <ele>346.1</ele>
        <time>2021-09-19T15:07:30Z</time>
      </trkpt>
      <trkpt lat="43.86414" lon="7.01872">
        <ele>346.1</ele>
        <time>2021-09-19T15:07:31Z</time>
      </trkpt>
      <trkpt lat="43.86408" lon="7.01874">
        <ele>346.2</ele>
        <time>2021-09-19T15:07:32Z</time>
      </trkpt>
      <trkpt lat="43.86396" lon="7.01877">
        <ele>346.4</ele>
        <time>2021-09-19T15:07:34Z</time>
      </trkpt>
      <trkpt lat="43.86385" lon="7.01882">
        <ele>346.6</ele>
        <time>2021-09-19T15:07:36Z</time>
      </trkpt>
      <trkpt lat="43.86379" lon="7.01886">
        <ele>346.7</ele>
        <time>2021-09-19T15:07:37Z</time>
      </trkpt>
      <trkpt lat="43.86374" lon="7.01888">
        <ele>346.8</ele>
        <time>2021-09-19T15:07:38Z</time>
      </trkpt>
      <trkpt lat="43.86367" lon="7.01894">
        <ele>346.9</ele>
        <time>2021-09-19T15:07:40Z</time>
      </trkpt>
      <trkpt lat="43.86362" lon="7.01895">
        <ele>347</ele>
        <time>2021-09-19T15:07:41Z</time>
      </trkpt>
      <trkpt lat="43.86357" lon="7.01898">
        <ele>347.1</ele>
        <time>2021-09-19T15:07:42Z</time>
      </trkpt>
      <trkpt lat="43.86348" lon="7.01903">
        <ele>347.3</ele>
        <time>2021-09-19T15:07:44Z</time>
      </trkpt>
      <trkpt lat="43.86339" lon="7.01908">
        <ele>347.4</ele>
        <time>2021-09-19T15:07:46Z</time>
      </trkpt>
      <trkpt lat="43.86334" lon="7.0191">
        <ele>347.5</ele>
        <time>2021-09-19T15:07:47Z</time>
      </trkpt>
      <trkpt lat="43.86329" lon="7.01913">
        <ele>347.6</ele>
        <time>2021-09-19T15:07:48Z</time>
      </trkpt>
      <trkpt lat="43.86325" lon="7.01915">
        <ele>347.6</ele>
        <time>2021-09-19T15:07:49Z</time>
      </trkpt>
      <trkpt lat="43.86316" lon="7.01921">
        <ele>347.8</ele>
        <time>2021-09-19T15:07:51Z</time>
      </trkpt>
      <trkpt lat="43.86305" lon="7.01924">
        <ele>347.9</ele>
        <time>2021-09-19T15:07:53Z</time>
      </trkpt>
      <trkpt lat="43.86293" lon="7.01924">
        <ele>348.1</ele>
        <time>2021-09-19T15:07:55Z</time>
      </trkpt>
      <trkpt lat="43.86288" lon="7.01925">
        <ele>348.2</ele>
        <time>2021-09-19T15:07:56Z</time>
      </trkpt>
      <trkpt lat="43.86278" lon="7.01924">
        <ele>348.3</ele>
        <time>2021-09-19T15:07:58Z</time>
      </trkpt>
      <trkpt lat="43.86274" lon="7.01923">
        <ele>348.4</ele>
        <time>2021-09-19T15:07:59Z</time>
      </trkpt>
      <trkpt lat="43.86269" lon="7.01922">
        <ele>348.5</ele>
        <time>2021-09-19T15:08:00Z</time>
      </trkpt>
      <trkpt lat="43.8626" lon="7.01918">
        <ele>348.6</ele>
        <time>2021-09-19T15:08:02Z</time>
      </trkpt>
      <trkpt lat="43.86255" lon="7.01914">
        <ele>348.7</ele>
        <time>2021-09-19T15:08:03Z</time>
      </trkpt>
      <trkpt lat="43.86249" lon="7.01911">
        <ele>348.8</ele>
        <time>2021-09-19T15:08:05Z</time>
      </trkpt>
      <trkpt lat="43.86245" lon="7.0191">
        <ele>348.8</ele>
        <time>2021-09-19T15:08:06Z</time>
      </trkpt>
      <trkpt lat="43.86243" lon="7.01909">
        <ele>348.9</ele>
        <time>2021-09-19T15:08:07Z</time>
      </trkpt>
      <trkpt lat="43.86238" lon="7.01907">
        <ele>349</ele>
        <time>2021-09-19T15:08:08Z</time>
      </trkpt>
      <trkpt lat="43.86234" lon="7.01907">
        <ele>349.1</ele>
        <time>2021-09-19T15:08:09Z</time>
      </trkpt>
      <trkpt lat="43.86227" lon="7.01908">
        <ele>349.2</ele>
        <time>2021-09-19T15:08:11Z</time>
      </trkpt>
      <trkpt lat="43.8622" lon="7.01909">
        <ele>349.4</ele>
        <time>2021-09-19T15:08:13Z</time>
      </trkpt>
      <trkpt lat="43.86216" lon="7.0191">
        <ele>349.4</ele>
        <time>2021-09-19T15:08:14Z</time>
      </trkpt>
      <trkpt lat="43.86212" lon="7.0191">
        <ele>349.5</ele>
        <time>2021-09-19T15:08:15Z</time>
      </trkpt>
      <trkpt lat="43.86206" lon="7.01909">
        <ele>349.6</ele>
        <time>2021-09-19T15:08:16Z</time>
      </trkpt>
      <trkpt lat="43.86196" lon="7.0191">
        <ele>349.6</ele>
        <time>2021-09-19T15:08:18Z</time>
      </trkpt>
      <trkpt lat="43.86192" lon="7.01909">
        <ele>349.7</ele>
        <time>2021-09-19T15:08:19Z</time>
      </trkpt>
      <trkpt lat="43.86189" lon="7.01908">
        <ele>349.7</ele>
        <time>2021-09-19T15:08:20Z</time>
      </trkpt>
      <trkpt lat="43.86185" lon="7.01908">
        <ele>349.7</ele>
        <time>2021-09-19T15:08:21Z</time>
      </trkpt>
      <trkpt lat="43.86179" lon="7.01907">
        <ele>349.8</ele>
        <time>2021-09-19T15:08:23Z</time>
      </trkpt>
      <trkpt lat="43.8617" lon="7.01904">
        <ele>349.9</ele>
        <time>2021-09-19T15:08:24Z</time>
      </trkpt>
      <trkpt lat="43.86163" lon="7.01907">
        <ele>350</ele>
        <time>2021-09-19T15:08:26Z</time>
      </trkpt>
      <trkpt lat="43.86157" lon="7.01908">
        <ele>350.1</ele>
        <time>2021-09-19T15:08:27Z</time>
      </trkpt>
      <trkpt lat="43.86151" lon="7.01909">
        <ele>350.2</ele>
        <time>2021-09-19T15:08:28Z</time>
      </trkpt>
      <trkpt lat="43.86146" lon="7.01909">
        <ele>350.3</ele>
        <time>2021-09-19T15:08:29Z</time>
      </trkpt>
      <trkpt lat="43.8614" lon="7.0191">
        <ele>350.4</ele>
        <time>2021-09-19T15:08:30Z</time>
      </trkpt>
      <trkpt lat="43.8613" lon="7.01913">
        <ele>350.6</ele>
        <time>2021-09-19T15:08:32Z</time>
      </trkpt>
      <trkpt lat="43.86122" lon="7.01914">
        <ele>350.7</ele>
        <time>2021-09-19T15:08:34Z</time>
      </trkpt>
      <trkpt lat="43.86122" lon="7.01915">
        <ele>350.7</ele>
        <time>2021-09-19T15:08:35Z</time>
      </trkpt>
      <trkpt lat="43.86118" lon="7.01919">
        <ele>350.8</ele>
        <time>2021-09-19T15:08:37Z</time>
      </trkpt>
      <trkpt lat="43.86115" lon="7.01922">
        <ele>350.8</ele>
        <time>2021-09-19T15:08:38Z</time>
      </trkpt>
      <trkpt lat="43.86113" lon="7.01924">
        <ele>350.8</ele>
        <time>2021-09-19T15:08:39Z</time>
      </trkpt>
      <trkpt lat="43.86107" lon="7.01925">
        <ele>350.9</ele>
        <time>2021-09-19T15:08:41Z</time>
      </trkpt>
      <trkpt lat="43.86104" lon="7.01926">
        <ele>351</ele>
        <time>2021-09-19T15:08:42Z</time>
      </trkpt>
      <trkpt lat="43.86103" lon="7.01926">
        <ele>351</ele>
        <time>2021-09-19T15:08:43Z</time>
      </trkpt>
      <trkpt lat="43.86102" lon="7.01927">
        <ele>351</ele>
        <time>2021-09-19T15:08:44Z</time>
      </trkpt>
      <trkpt lat="43.86063" lon="7.01988">
        <ele>351.9</ele>
        <time>2021-09-19T15:08:55Z</time>
      </trkpt>
      <trkpt lat="43.8606" lon="7.01994">
        <ele>352</ele>
        <time>2021-09-19T15:08:57Z</time>
      </trkpt>
      <trkpt lat="43.86058" lon="7.02">
        <ele>352</ele>
        <time>2021-09-19T15:08:58Z</time>
      </trkpt>
      <trkpt lat="43.86055" lon="7.02005">
        <ele>352.1</ele>
        <time>2021-09-19T15:08:59Z</time>
      </trkpt>
      <trkpt lat="43.86052" lon="7.02009">
        <ele>352.1</ele>
        <time>2021-09-19T15:09:00Z</time>
      </trkpt>
      <trkpt lat="43.86046" lon="7.02015">
        <ele>352.2</ele>
        <time>2021-09-19T15:09:02Z</time>
      </trkpt>
      <trkpt lat="43.86036" lon="7.02024">
        <ele>352.3</ele>
        <time>2021-09-19T15:09:04Z</time>
      </trkpt>
      <trkpt lat="43.86033" lon="7.02029">
        <ele>352.3</ele>
        <time>2021-09-19T15:09:05Z</time>
      </trkpt>
      <trkpt lat="43.8603" lon="7.02034">
        <ele>352.4</ele>
        <time>2021-09-19T15:09:06Z</time>
      </trkpt>
      <trkpt lat="43.86027" lon="7.02037">
        <ele>352.4</ele>
        <time>2021-09-19T15:09:07Z</time>
      </trkpt>
      <trkpt lat="43.86024" lon="7.02042">
        <ele>352.5</ele>
        <time>2021-09-19T15:09:08Z</time>
      </trkpt>
      <trkpt lat="43.86022" lon="7.02046">
        <ele>352.5</ele>
        <time>2021-09-19T15:09:09Z</time>
      </trkpt>
      <trkpt lat="43.8602" lon="7.02052">
        <ele>352.6</ele>
        <time>2021-09-19T15:09:11Z</time>
      </trkpt>
      <trkpt lat="43.86018" lon="7.02059">
        <ele>352.6</ele>
        <time>2021-09-19T15:09:12Z</time>
      </trkpt>
      <trkpt lat="43.86016" lon="7.02065">
        <ele>352.7</ele>
        <time>2021-09-19T15:09:13Z</time>
      </trkpt>
      <trkpt lat="43.86014" lon="7.02071">
        <ele>352.7</ele>
        <time>2021-09-19T15:09:14Z</time>
      </trkpt>
      <trkpt lat="43.86011" lon="7.02078">
        <ele>352.8</ele>
        <time>2021-09-19T15:09:15Z</time>
      </trkpt>
      <trkpt lat="43.86008" lon="7.02089">
        <ele>352.8</ele>
        <time>2021-09-19T15:09:17Z</time>
      </trkpt>
      <trkpt lat="43.86008" lon="7.02098">
        <ele>352.9</ele>
        <time>2021-09-19T15:09:18Z</time>
      </trkpt>
      <trkpt lat="43.86007" lon="7.02112">
        <ele>353</ele>
        <time>2021-09-19T15:09:20Z</time>
      </trkpt>
      <trkpt lat="43.86006" lon="7.0212">
        <ele>353.1</ele>
        <time>2021-09-19T15:09:21Z</time>
      </trkpt>
      <trkpt lat="43.86006" lon="7.02127">
        <ele>353.2</ele>
        <time>2021-09-19T15:09:22Z</time>
      </trkpt>
      <trkpt lat="43.86006" lon="7.02133">
        <ele>353.2</ele>
        <time>2021-09-19T15:09:23Z</time>
      </trkpt>
      <trkpt lat="43.86007" lon="7.02139">
        <ele>353.3</ele>
        <time>2021-09-19T15:09:24Z</time>
      </trkpt>
      <trkpt lat="43.86009" lon="7.02145">
        <ele>353.3</ele>
        <time>2021-09-19T15:09:25Z</time>
      </trkpt>
      <trkpt lat="43.86011" lon="7.02151">
        <ele>353.4</ele>
        <time>2021-09-19T15:09:27Z</time>
      </trkpt>
      <trkpt lat="43.86015" lon="7.02157">
        <ele>353.4</ele>
        <time>2021-09-19T15:09:28Z</time>
      </trkpt>
      <trkpt lat="43.86017" lon="7.02161">
        <ele>353.5</ele>
        <time>2021-09-19T15:09:29Z</time>
      </trkpt>
      <trkpt lat="43.86019" lon="7.02166">
        <ele>353.5</ele>
        <time>2021-09-19T15:09:30Z</time>
      </trkpt>
      <trkpt lat="43.86023" lon="7.02172">
        <ele>353.6</ele>
        <time>2021-09-19T15:09:31Z</time>
      </trkpt>
      <trkpt lat="43.86025" lon="7.02177">
        <ele>353.7</ele>
        <time>2021-09-19T15:09:32Z</time>
      </trkpt>
      <trkpt lat="43.86029" lon="7.02185">
        <ele>353.8</ele>
        <time>2021-09-19T15:09:34Z</time>
      </trkpt>
      <trkpt lat="43.86032" lon="7.02191">
        <ele>353.8</ele>
        <time>2021-09-19T15:09:36Z</time>
      </trkpt>
      <trkpt lat="43.86037" lon="7.02199">
        <ele>353.9</ele>
        <time>2021-09-19T15:09:38Z</time>
      </trkpt>
      <trkpt lat="43.8604" lon="7.02207">
        <ele>354</ele>
        <time>2021-09-19T15:09:39Z</time>
      </trkpt>
      <trkpt lat="43.86043" lon="7.02217">
        <ele>354.1</ele>
        <time>2021-09-19T15:09:41Z</time>
      </trkpt>
      <trkpt lat="43.86048" lon="7.02227">
        <ele>354.2</ele>
        <time>2021-09-19T15:09:42Z</time>
      </trkpt>
      <trkpt lat="43.86053" lon="7.0224">
        <ele>354.3</ele>
        <time>2021-09-19T15:09:44Z</time>
      </trkpt>
      <trkpt lat="43.86055" lon="7.02249">
        <ele>354.3</ele>
        <time>2021-09-19T15:09:46Z</time>
      </trkpt>
      <trkpt lat="43.86056" lon="7.02256">
        <ele>354.4</ele>
        <time>2021-09-19T15:09:47Z</time>
      </trkpt>
      <trkpt lat="43.86057" lon="7.02262">
        <ele>354.4</ele>
        <time>2021-09-19T15:09:48Z</time>
      </trkpt>
      <trkpt lat="43.8606" lon="7.02267">
        <ele>354.5</ele>
        <time>2021-09-19T15:09:49Z</time>
      </trkpt>
      <trkpt lat="43.86066" lon="7.02275">
        <ele>354.5</ele>
        <time>2021-09-19T15:09:51Z</time>
      </trkpt>
      <trkpt lat="43.86067" lon="7.0228">
        <ele>354.6</ele>
        <time>2021-09-19T15:09:52Z</time>
      </trkpt>
      <trkpt lat="43.8607" lon="7.02288">
        <ele>354.6</ele>
        <time>2021-09-19T15:09:54Z</time>
      </trkpt>
      <trkpt lat="43.86072" lon="7.02294">
        <ele>354.7</ele>
        <time>2021-09-19T15:09:55Z</time>
      </trkpt>
      <trkpt lat="43.86073" lon="7.02298">
        <ele>354.8</ele>
        <time>2021-09-19T15:09:56Z</time>
      </trkpt>
      <trkpt lat="43.86076" lon="7.02307">
        <ele>354.9</ele>
        <time>2021-09-19T15:09:58Z</time>
      </trkpt>
      <trkpt lat="43.86079" lon="7.02317">
        <ele>355</ele>
        <time>2021-09-19T15:10:00Z</time>
      </trkpt>
      <trkpt lat="43.86084" lon="7.02327">
        <ele>355.1</ele>
        <time>2021-09-19T15:10:01Z</time>
      </trkpt>
      <trkpt lat="43.86085" lon="7.02331">
        <ele>355.1</ele>
        <time>2021-09-19T15:10:02Z</time>
      </trkpt>
      <trkpt lat="43.86085" lon="7.0234">
        <ele>355.2</ele>
        <time>2021-09-19T15:10:04Z</time>
      </trkpt>
      <trkpt lat="43.86089" lon="7.02351">
        <ele>355.3</ele>
        <time>2021-09-19T15:10:05Z</time>
      </trkpt>
      <trkpt lat="43.86091" lon="7.02365">
        <ele>355.4</ele>
        <time>2021-09-19T15:10:07Z</time>
      </trkpt>
      <trkpt lat="43.86091" lon="7.0237">
        <ele>355.4</ele>
        <time>2021-09-19T15:10:08Z</time>
      </trkpt>
      <trkpt lat="43.86092" lon="7.02376">
        <ele>355.5</ele>
        <time>2021-09-19T15:10:09Z</time>
      </trkpt>
      <trkpt lat="43.86095" lon="7.02378">
        <ele>355.5</ele>
        <time>2021-09-19T15:10:10Z</time>
      </trkpt>
      <trkpt lat="43.86093" lon="7.02391">
        <ele>355.6</ele>
        <time>2021-09-19T15:10:12Z</time>
      </trkpt>
      <trkpt lat="43.86091" lon="7.02397">
        <ele>355.7</ele>
        <time>2021-09-19T15:10:13Z</time>
      </trkpt>
      <trkpt lat="43.86091" lon="7.02404">
        <ele>355.7</ele>
        <time>2021-09-19T15:10:14Z</time>
      </trkpt>
      <trkpt lat="43.86088" lon="7.02412">
        <ele>355.8</ele>
        <time>2021-09-19T15:10:15Z</time>
      </trkpt>
      <trkpt lat="43.86088" lon="7.02415">
        <ele>355.8</ele>
        <time>2021-09-19T15:10:16Z</time>
      </trkpt>
      <trkpt lat="43.86087" lon="7.02417">
        <ele>355.8</ele>
        <time>2021-09-19T15:10:18Z</time>
      </trkpt>
      <trkpt lat="43.86086" lon="7.02418">
        <ele>355.8</ele>
        <time>2021-09-19T15:10:19Z</time>
      </trkpt>
      <trkpt lat="43.86086" lon="7.02417">
        <ele>355.8</ele>
        <time>2021-09-19T15:10:20Z</time>
      </trkpt>
      <trkpt lat="43.86086" lon="7.02416">
        <ele>355.8</ele>
        <time>2021-09-19T15:10:21Z</time>
      </trkpt>
      <trkpt lat="43.86086" lon="7.02418">
        <ele>355.9</ele>
        <time>2021-09-19T15:10:22Z</time>
      </trkpt>
      <trkpt lat="43.86087" lon="7.02419">
        <ele>355.9</ele>
        <time>2021-09-19T15:10:23Z</time>
      </trkpt>
      <trkpt lat="43.86085" lon="7.02419">
        <ele>355.9</ele>
        <time>2021-09-19T15:10:24Z</time>
      </trkpt>
      <trkpt lat="43.86082" lon="7.02418">
        <ele>355.9</ele>
        <time>2021-09-19T15:10:26Z</time>
      </trkpt>
      <trkpt lat="43.86081" lon="7.02417">
        <ele>355.9</ele>
        <time>2021-09-19T15:10:27Z</time>
      </trkpt>
      <trkpt lat="43.8608" lon="7.02418">
        <ele>355.9</ele>
        <time>2021-09-19T15:10:28Z</time>
      </trkpt>
      <trkpt lat="43.8608" lon="7.0242">
        <ele>355.9</ele>
        <time>2021-09-19T15:10:30Z</time>
      </trkpt>
      <trkpt lat="43.8608" lon="7.02422">
        <ele>355.9</ele>
        <time>2021-09-19T15:10:31Z</time>
      </trkpt>
      <trkpt lat="43.86079" lon="7.0243">
        <ele>356</ele>
        <time>2021-09-19T15:10:33Z</time>
      </trkpt>
      <trkpt lat="43.86078" lon="7.02437">
        <ele>356</ele>
        <time>2021-09-19T15:10:34Z</time>
      </trkpt>
      <trkpt lat="43.86079" lon="7.02443">
        <ele>356.1</ele>
        <time>2021-09-19T15:10:35Z</time>
      </trkpt>
      <trkpt lat="43.86082" lon="7.02456">
        <ele>356.1</ele>
        <time>2021-09-19T15:10:37Z</time>
      </trkpt>
      <trkpt lat="43.86085" lon="7.02466">
        <ele>356.2</ele>
        <time>2021-09-19T15:10:38Z</time>
      </trkpt>
      <trkpt lat="43.86086" lon="7.02473">
        <ele>356.3</ele>
        <time>2021-09-19T15:10:39Z</time>
      </trkpt>
      <trkpt lat="43.86087" lon="7.02478">
        <ele>356.3</ele>
        <time>2021-09-19T15:10:40Z</time>
      </trkpt>
      <trkpt lat="43.86084" lon="7.02492">
        <ele>356.4</ele>
        <time>2021-09-19T15:10:42Z</time>
      </trkpt>
      <trkpt lat="43.86082" lon="7.02502">
        <ele>356.5</ele>
        <time>2021-09-19T15:10:43Z</time>
      </trkpt>
      <trkpt lat="43.86079" lon="7.0251">
        <ele>356.5</ele>
        <time>2021-09-19T15:10:44Z</time>
      </trkpt>
      <trkpt lat="43.86036" lon="7.02554">
        <ele>338.7</ele>
        <time>2021-09-19T15:11:01Z</time>
      </trkpt>
      <trkpt lat="43.86036" lon="7.02535">
        <ele>338.5</ele>
        <time>2021-09-19T15:11:02Z</time>
      </trkpt>
      <trkpt lat="43.86034" lon="7.02508">
        <ele>339.3</ele>
        <time>2021-09-19T15:11:04Z</time>
      </trkpt>
      <trkpt lat="43.86033" lon="7.02487">
        <ele>336.2</ele>
        <time>2021-09-19T15:11:06Z</time>
      </trkpt>
      <trkpt lat="43.86032" lon="7.02481">
        <ele>335.2</ele>
        <time>2021-09-19T15:11:07Z</time>
      </trkpt>
      <trkpt lat="43.86032" lon="7.02476">
        <ele>334.3</ele>
        <time>2021-09-19T15:11:08Z</time>
      </trkpt>
      <trkpt lat="43.86032" lon="7.02473">
        <ele>333.9</ele>
        <time>2021-09-19T15:11:09Z</time>
      </trkpt>
      <trkpt lat="43.86031" lon="7.02464">
        <ele>332.3</ele>
        <time>2021-09-19T15:11:11Z</time>
      </trkpt>
      <trkpt lat="43.86029" lon="7.02458">
        <ele>331.2</ele>
        <time>2021-09-19T15:11:12Z</time>
      </trkpt>
      <trkpt lat="43.86028" lon="7.02453">
        <ele>330.3</ele>
        <time>2021-09-19T15:11:14Z</time>
      </trkpt>
      <trkpt lat="43.86027" lon="7.0245">
        <ele>329.8</ele>
        <time>2021-09-19T15:11:15Z</time>
      </trkpt>
      <trkpt lat="43.86027" lon="7.02448">
        <ele>329.4</ele>
        <time>2021-09-19T15:11:16Z</time>
      </trkpt>
      <trkpt lat="43.86026" lon="7.02446">
        <ele>329</ele>
        <time>2021-09-19T15:11:17Z</time>
      </trkpt>
      <trkpt lat="43.86027" lon="7.02445">
        <ele>328.9</ele>
        <time>2021-09-19T15:11:19Z</time>
      </trkpt>
      <trkpt lat="43.86027" lon="7.02444">
        <ele>328.7</ele>
        <time>2021-09-19T15:11:20Z</time>
      </trkpt>
      <trkpt lat="43.86027" lon="7.02444">
        <ele>328.6</ele>
        <time>2021-09-19T15:11:21Z</time>
      </trkpt>
      <trkpt lat="43.86027" lon="7.02443">
        <ele>328.5</ele>
        <time>2021-09-19T15:11:23Z</time>
      </trkpt>
      <trkpt lat="43.86027" lon="7.02442">
        <ele>328.3</ele>
        <time>2021-09-19T15:11:25Z</time>
      </trkpt>
      <trkpt lat="43.86027" lon="7.02441">
        <ele>328.2</ele>
        <time>2021-09-19T15:11:26Z</time>
      </trkpt>
      <trkpt lat="43.86028" lon="7.0244">
        <ele>328</ele>
        <time>2021-09-19T15:14:27Z</time>
      </trkpt>
      <trkpt lat="43.86028" lon="7.0244">
        <ele>327.9</ele>
        <time>2021-09-19T15:14:28Z</time>
      </trkpt>
      <trkpt lat="43.86023" lon="7.02435">
        <ele>326.5</ele>
        <time>2021-09-19T15:14:30Z</time>
      </trkpt>
      <trkpt lat="43.86019" lon="7.02434">
        <ele>325.6</ele>
        <time>2021-09-19T15:14:31Z</time>
      </trkpt>
      <trkpt lat="43.86019" lon="7.02434">
        <ele>325.4</ele>
        <time>2021-09-19T15:14:32Z</time>
      </trkpt>
      <trkpt lat="43.86014" lon="7.02441">
        <ele>323.8</ele>
        <time>2021-09-19T15:14:34Z</time>
      </trkpt>
      <trkpt lat="43.86015" lon="7.02455">
        <ele>323.1</ele>
        <time>2021-09-19T15:14:35Z</time>
      </trkpt>
      <trkpt lat="43.86015" lon="7.02486">
        <ele>320.6</ele>
        <time>2021-09-19T15:14:37Z</time>
      </trkpt>
      <trkpt lat="43.86015" lon="7.02499">
        <ele>319.6</ele>
        <time>2021-09-19T15:14:38Z</time>
      </trkpt>
      <trkpt lat="43.86013" lon="7.0252">
        <ele>317.9</ele>
        <time>2021-09-19T15:14:40Z</time>
      </trkpt>
      <trkpt lat="43.86009" lon="7.02534">
        <ele>316.7</ele>
        <time>2021-09-19T15:14:42Z</time>
      </trkpt>
      <trkpt lat="43.86003" lon="7.02539">
        <ele>315.9</ele>
        <time>2021-09-19T15:14:44Z</time>
      </trkpt>
      <trkpt lat="43.86001" lon="7.02544">
        <ele>315.4</ele>
        <time>2021-09-19T15:14:45Z</time>
      </trkpt>
      <trkpt lat="43.85996" lon="7.0255">
        <ele>314.7</ele>
        <time>2021-09-19T15:14:46Z</time>
      </trkpt>
      <trkpt lat="43.85992" lon="7.02554">
        <ele>314.1</ele>
        <time>2021-09-19T15:14:47Z</time>
      </trkpt>
      <trkpt lat="43.85989" lon="7.02555">
        <ele>313.8</ele>
        <time>2021-09-19T15:14:48Z</time>
      </trkpt>
      <trkpt lat="43.85988" lon="7.02553">
        <ele>313.6</ele>
        <time>2021-09-19T15:14:50Z</time>
      </trkpt>
      <trkpt lat="43.85988" lon="7.02552">
        <ele>313.5</ele>
        <time>2021-09-19T15:14:51Z</time>
      </trkpt>
      <trkpt lat="43.85988" lon="7.0255">
        <ele>313.3</ele>
        <time>2021-09-19T15:14:52Z</time>
      </trkpt>
      <trkpt lat="43.85987" lon="7.02545">
        <ele>313</ele>
        <time>2021-09-19T15:14:53Z</time>
      </trkpt>
      <trkpt lat="43.85986" lon="7.02544">
        <ele>312.9</ele>
        <time>2021-09-19T15:14:54Z</time>
      </trkpt>
      <trkpt lat="43.85983" lon="7.02542">
        <ele>312.8</ele>
        <time>2021-09-19T15:14:55Z</time>
      </trkpt>
      <trkpt lat="43.85981" lon="7.02534">
        <ele>313.6</ele>
        <time>2021-09-19T15:14:56Z</time>
      </trkpt>
      <trkpt lat="43.85978" lon="7.02524">
        <ele>314.5</ele>
        <time>2021-09-19T15:14:58Z</time>
      </trkpt>
      <trkpt lat="43.85977" lon="7.02517">
        <ele>315.2</ele>
        <time>2021-09-19T15:14:59Z</time>
      </trkpt>
      <trkpt lat="43.85975" lon="7.0251">
        <ele>315.9</ele>
        <time>2021-09-19T15:15:00Z</time>
      </trkpt>
      <trkpt lat="43.85974" lon="7.02504">
        <ele>316.4</ele>
        <time>2021-09-19T15:15:01Z</time>
      </trkpt>
      <trkpt lat="43.85976" lon="7.02494">
        <ele>317.4</ele>
        <time>2021-09-19T15:15:02Z</time>
      </trkpt>
      <trkpt lat="43.85977" lon="7.02487">
        <ele>318</ele>
        <time>2021-09-19T15:15:04Z</time>
      </trkpt>
      <trkpt lat="43.85978" lon="7.0248">
        <ele>318.6</ele>
        <time>2021-09-19T15:15:05Z</time>
      </trkpt>
      <trkpt lat="43.8598" lon="7.02475">
        <ele>319.1</ele>
        <time>2021-09-19T15:15:06Z</time>
      </trkpt>
      <trkpt lat="43.85981" lon="7.02468">
        <ele>319.8</ele>
        <time>2021-09-19T15:15:08Z</time>
      </trkpt>
      <trkpt lat="43.85982" lon="7.02464">
        <ele>320.2</ele>
        <time>2021-09-19T15:15:09Z</time>
      </trkpt>
      <trkpt lat="43.85983" lon="7.02463">
        <ele>320.3</ele>
        <time>2021-09-19T15:15:10Z</time>
      </trkpt>
      <trkpt lat="43.85979" lon="7.02465">
        <ele>320.8</ele>
        <time>2021-09-19T15:15:12Z</time>
      </trkpt>
      <trkpt lat="43.85978" lon="7.02467">
        <ele>320.9</ele>
        <time>2021-09-19T15:15:13Z</time>
      </trkpt>
      <trkpt lat="43.85977" lon="7.02468">
        <ele>321.1</ele>
        <time>2021-09-19T15:15:14Z</time>
      </trkpt>
      <trkpt lat="43.85977" lon="7.02469">
        <ele>321.2</ele>
        <time>2021-09-19T15:15:15Z</time>
      </trkpt>
      <trkpt lat="43.85977" lon="7.02469">
        <ele>321.2</ele>
        <time>2021-09-19T15:15:17Z</time>
      </trkpt>
      <trkpt lat="43.85977" lon="7.02469">
        <ele>321.2</ele>
        <time>2021-09-19T15:15:18Z</time>
      </trkpt>
      <trkpt lat="43.85977" lon="7.02469">
        <ele>321.2</ele>
        <time>2021-09-19T15:15:20Z</time>
      </trkpt>
      <trkpt lat="43.85977" lon="7.02469">
        <ele>321.2</ele>
        <time>2021-09-19T15:15:22Z</time>
      </trkpt>
      <trkpt lat="43.8594" lon="7.02457">
        <ele>315.1</ele>
        <time>2021-09-20T07:39:37Z</time>
      </trkpt>
      <trkpt lat="43.8594" lon="7.02457">
        <ele>315.1</ele>
        <time>2021-09-20T07:39:37Z</time>
      </trkpt>
      <trkpt lat="43.85939" lon="7.02456">
        <ele>315.1</ele>
        <time>2021-09-20T07:39:38Z</time>
      </trkpt>
      <trkpt lat="43.85951" lon="7.02458">
        <ele>315.2</ele>
        <time>2021-09-20T07:39:40Z</time>
      </trkpt>
      <trkpt lat="43.85953" lon="7.02456">
        <ele>315.2</ele>
        <time>2021-09-20T07:39:42Z</time>
      </trkpt>
      <trkpt lat="43.85947" lon="7.02453">
        <ele>315.2</ele>
        <time>2021-09-20T07:39:44Z</time>
      </trkpt>
      <trkpt lat="43.85944" lon="7.02451">
        <ele>315.2</ele>
        <time>2021-09-20T07:39:46Z</time>
      </trkpt>
      <trkpt lat="43.85943" lon="7.02451">
        <ele>315.2</ele>
        <time>2021-09-20T07:39:47Z</time>
      </trkpt>
      <trkpt lat="43.85942" lon="7.0245">
        <ele>315.2</ele>
        <time>2021-09-20T07:39:48Z</time>
      </trkpt>
      <trkpt lat="43.85941" lon="7.0245">
        <ele>315.2</ele>
        <time>2021-09-20T07:39:49Z</time>
      </trkpt>
      <trkpt lat="43.85939" lon="7.0245">
        <ele>315.2</ele>
        <time>2021-09-20T07:39:51Z</time>
      </trkpt>
      <trkpt lat="43.85937" lon="7.02448">
        <ele>315.2</ele>
        <time>2021-09-20T07:39:53Z</time>
      </trkpt>
      <trkpt lat="43.85937" lon="7.02448">
        <ele>315.2</ele>
        <time>2021-09-20T07:39:55Z</time>
      </trkpt>
      <trkpt lat="43.85936" lon="7.02448">
        <ele>315.2</ele>
        <time>2021-09-20T07:39:57Z</time>
      </trkpt>
      <trkpt lat="43.85936" lon="7.02447">
        <ele>315.2</ele>
        <time>2021-09-20T07:39:58Z</time>
      </trkpt>
      <trkpt lat="43.85934" lon="7.02446">
        <ele>315.2</ele>
        <time>2021-09-20T07:39:59Z</time>
      </trkpt>
      <trkpt lat="43.85927" lon="7.02438">
        <ele>315.3</ele>
        <time>2021-09-20T07:40:01Z</time>
      </trkpt>
      <trkpt lat="43.85927" lon="7.02434">
        <ele>315.3</ele>
        <time>2021-09-20T07:40:03Z</time>
      </trkpt>
      <trkpt lat="43.85926" lon="7.02432">
        <ele>315.3</ele>
        <time>2021-09-20T07:40:04Z</time>
      </trkpt>
      <trkpt lat="43.85929" lon="7.02428">
        <ele>315.3</ele>
        <time>2021-09-20T07:40:06Z</time>
      </trkpt>
      <trkpt lat="43.85929" lon="7.02427">
        <ele>315.3</ele>
        <time>2021-09-20T07:40:07Z</time>
      </trkpt>
      <trkpt lat="43.85931" lon="7.02424">
        <ele>315.3</ele>
        <time>2021-09-20T07:40:09Z</time>
      </trkpt>
      <trkpt lat="43.85931" lon="7.02424">
        <ele>315.3</ele>
        <time>2021-09-20T07:40:10Z</time>
      </trkpt>
      <trkpt lat="43.85934" lon="7.02423">
        <ele>315.3</ele>
        <time>2021-09-20T07:40:12Z</time>
      </trkpt>
      <trkpt lat="43.85937" lon="7.02425">
        <ele>315.3</ele>
        <time>2021-09-20T07:40:14Z</time>
      </trkpt>
      <trkpt lat="43.85939" lon="7.02428">
        <ele>315.3</ele>
        <time>2021-09-20T07:40:16Z</time>
      </trkpt>
      <trkpt lat="43.85943" lon="7.02431">
        <ele>315.3</ele>
        <time>2021-09-20T07:40:18Z</time>
      </trkpt>
      <trkpt lat="43.85957" lon="7.02437">
        <ele>315.4</ele>
        <time>2021-09-20T07:40:20Z</time>
      </trkpt>
      <trkpt lat="43.8597" lon="7.0244">
        <ele>315.8</ele>
        <time>2021-09-20T07:40:21Z</time>
      </trkpt>
      <trkpt lat="43.85982" lon="7.02443">
        <ele>315.4</ele>
        <time>2021-09-20T07:40:23Z</time>
      </trkpt>
      <trkpt lat="43.85995" lon="7.02446">
        <ele>314.9</ele>
        <time>2021-09-20T07:40:24Z</time>
      </trkpt>
      <trkpt lat="43.85997" lon="7.02447">
        <ele>314.9</ele>
        <time>2021-09-20T07:40:25Z</time>
      </trkpt>
      <trkpt lat="43.85999" lon="7.02449">
        <ele>314.8</ele>
        <time>2021-09-20T07:40:27Z</time>
      </trkpt>
      <trkpt lat="43.85998" lon="7.02451">
        <ele>314.7</ele>
        <time>2021-09-20T07:40:28Z</time>
      </trkpt>
      <trkpt lat="43.85997" lon="7.02452">
        <ele>314.7</ele>
        <time>2021-09-20T07:40:30Z</time>
      </trkpt>
      <trkpt lat="43.85996" lon="7.02453">
        <ele>314.6</ele>
        <time>2021-09-20T07:40:31Z</time>
      </trkpt>
      <trkpt lat="43.85995" lon="7.02454">
        <ele>314.6</ele>
        <time>2021-09-20T07:40:33Z</time>
      </trkpt>
      <trkpt lat="43.85995" lon="7.02455">
        <ele>314.6</ele>
        <time>2021-09-20T07:40:35Z</time>
      </trkpt>
      <trkpt lat="43.85994" lon="7.02455">
        <ele>314.5</ele>
        <time>2021-09-20T07:40:37Z</time>
      </trkpt>
      <trkpt lat="43.85993" lon="7.02456">
        <ele>314.5</ele>
        <time>2021-09-20T07:40:39Z</time>
      </trkpt>
      <trkpt lat="43.85992" lon="7.02457">
        <ele>314.4</ele>
        <time>2021-09-20T07:40:41Z</time>
      </trkpt>
      <trkpt lat="43.85991" lon="7.02458">
        <ele>314.4</ele>
        <time>2021-09-20T07:40:43Z</time>
      </trkpt>
      <trkpt lat="43.8599" lon="7.02459">
        <ele>314.4</ele>
        <time>2021-09-20T07:40:45Z</time>
      </trkpt>
      <trkpt lat="43.85989" lon="7.0246">
        <ele>314.3</ele>
        <time>2021-09-20T07:40:47Z</time>
      </trkpt>
      <trkpt lat="43.85988" lon="7.02461">
        <ele>314.3</ele>
        <time>2021-09-20T07:40:55Z</time>
      </trkpt>
      <trkpt lat="43.85987" lon="7.02462">
        <ele>314.2</ele>
        <time>2021-09-20T07:40:57Z</time>
      </trkpt>
      <trkpt lat="43.85986" lon="7.02463">
        <ele>314.2</ele>
        <time>2021-09-20T07:40:59Z</time>
      </trkpt>
      <trkpt lat="43.85986" lon="7.02464">
        <ele>314.2</ele>
        <time>2021-09-20T07:41:00Z</time>
      </trkpt>
      <trkpt lat="43.85985" lon="7.02465">
        <ele>314.2</ele>
        <time>2021-09-20T07:41:01Z</time>
      </trkpt>
      <trkpt lat="43.85985" lon="7.02465">
        <ele>314.1</ele>
        <time>2021-09-20T07:41:02Z</time>
      </trkpt>
      <trkpt lat="43.85985" lon="7.02466">
        <ele>314.1</ele>
        <time>2021-09-20T07:41:04Z</time>
      </trkpt>
      <trkpt lat="43.85985" lon="7.02467">
        <ele>314.1</ele>
        <time>2021-09-20T07:41:05Z</time>
      </trkpt>
      <trkpt lat="43.85984" lon="7.02467">
        <ele>314.1</ele>
        <time>2021-09-20T07:41:06Z</time>
      </trkpt>
      <trkpt lat="43.85984" lon="7.02468">
        <ele>314.1</ele>
        <time>2021-09-20T07:41:07Z</time>
      </trkpt>
      <trkpt lat="43.85984" lon="7.02469">
        <ele>314</ele>
        <time>2021-09-20T07:41:08Z</time>
      </trkpt>
      <trkpt lat="43.85983" lon="7.02471">
        <ele>314</ele>
        <time>2021-09-20T07:41:10Z</time>
      </trkpt>
      <trkpt lat="43.85981" lon="7.02475">
        <ele>313.8</ele>
        <time>2021-09-20T07:41:12Z</time>
      </trkpt>
      <trkpt lat="43.85975" lon="7.02541">
        <ele>309.8</ele>
        <time>2021-09-20T07:41:40Z</time>
      </trkpt>
      <trkpt lat="43.85978" lon="7.02544">
        <ele>309.8</ele>
        <time>2021-09-20T07:41:41Z</time>
      </trkpt>
      <trkpt lat="43.85979" lon="7.02545">
        <ele>309.8</ele>
        <time>2021-09-20T07:41:42Z</time>
      </trkpt>
      <trkpt lat="43.85979" lon="7.02551">
        <ele>309.8</ele>
        <time>2021-09-20T07:41:44Z</time>
      </trkpt>
      <trkpt lat="43.8598" lon="7.02554">
        <ele>309.8</ele>
        <time>2021-09-20T07:41:45Z</time>
      </trkpt>
      <trkpt lat="43.85981" lon="7.02555">
        <ele>311.5</ele>
        <time>2021-09-20T07:41:46Z</time>
      </trkpt>
      <trkpt lat="43.85982" lon="7.02555">
        <ele>311.6</ele>
        <time>2021-09-20T07:41:47Z</time>
      </trkpt>
      <trkpt lat="43.85984" lon="7.02554">
        <ele>311.9</ele>
        <time>2021-09-20T07:41:48Z</time>
      </trkpt>
      <trkpt lat="43.85986" lon="7.02553">
        <ele>312.1</ele>
        <time>2021-09-20T07:41:50Z</time>
      </trkpt>
      <trkpt lat="43.85988" lon="7.02552">
        <ele>312.5</ele>
        <time>2021-09-20T07:41:51Z</time>
      </trkpt>
      <trkpt lat="43.85992" lon="7.02548">
        <ele>313</ele>
        <time>2021-09-20T07:41:53Z</time>
      </trkpt>
      <trkpt lat="43.85994" lon="7.02544">
        <ele>313.5</ele>
        <time>2021-09-20T07:41:54Z</time>
      </trkpt>
      <trkpt lat="43.85995" lon="7.02542">
        <ele>313.7</ele>
        <time>2021-09-20T07:41:55Z</time>
      </trkpt>
      <trkpt lat="43.85996" lon="7.02535">
        <ele>314.3</ele>
        <time>2021-09-20T07:41:57Z</time>
      </trkpt>
      <trkpt lat="43.85997" lon="7.02533">
        <ele>314.6</ele>
        <time>2021-09-20T07:41:58Z</time>
      </trkpt>
      <trkpt lat="43.85997" lon="7.02531">
        <ele>314.8</ele>
        <time>2021-09-20T07:41:59Z</time>
      </trkpt>
      <trkpt lat="43.85997" lon="7.02526">
        <ele>315.2</ele>
        <time>2021-09-20T07:42:00Z</time>
      </trkpt>
      <trkpt lat="43.85997" lon="7.0252">
        <ele>315.8</ele>
        <time>2021-09-20T07:42:02Z</time>
      </trkpt>
      <trkpt lat="43.85998" lon="7.02515">
        <ele>316.3</ele>
        <time>2021-09-20T07:42:03Z</time>
      </trkpt>
      <trkpt lat="43.86" lon="7.02509">
        <ele>316.9</ele>
        <time>2021-09-20T07:42:05Z</time>
      </trkpt>
      <trkpt lat="43.86001" lon="7.02506">
        <ele>317.2</ele>
        <time>2021-09-20T07:42:06Z</time>
      </trkpt>
      <trkpt lat="43.86002" lon="7.02502">
        <ele>317.6</ele>
        <time>2021-09-20T07:42:08Z</time>
      </trkpt>
      <trkpt lat="43.86002" lon="7.02501">
        <ele>317.7</ele>
        <time>2021-09-20T07:42:09Z</time>
      </trkpt>
      <trkpt lat="43.86002" lon="7.02499">
        <ele>317.8</ele>
        <time>2021-09-20T07:42:10Z</time>
      </trkpt>
      <trkpt lat="43.86002" lon="7.02498">
        <ele>317.9</ele>
        <time>2021-09-20T07:42:12Z</time>
      </trkpt>
      <trkpt lat="43.86002" lon="7.02496">
        <ele>318.1</ele>
        <time>2021-09-20T07:42:13Z</time>
      </trkpt>
      <trkpt lat="43.86002" lon="7.02495">
        <ele>318.2</ele>
        <time>2021-09-20T07:42:14Z</time>
      </trkpt>
      <trkpt lat="43.86001" lon="7.02493">
        <ele>318.3</ele>
        <time>2021-09-20T07:42:16Z</time>
      </trkpt>
      <trkpt lat="43.86001" lon="7.02493">
        <ele>318.4</ele>
        <time>2021-09-20T07:42:17Z</time>
      </trkpt>
      <trkpt lat="43.86001" lon="7.02491">
        <ele>318.6</ele>
        <time>2021-09-20T07:42:18Z</time>
      </trkpt>
      <trkpt lat="43.86001" lon="7.02488">
        <ele>318.8</ele>
        <time>2021-09-20T07:42:20Z</time>
      </trkpt>
      <trkpt lat="43.86001" lon="7.02484">
        <ele>319.2</ele>
        <time>2021-09-20T07:42:22Z</time>
      </trkpt>
      <trkpt lat="43.86001" lon="7.0248">
        <ele>319.6</ele>
        <time>2021-09-20T07:42:24Z</time>
      </trkpt>
      <trkpt lat="43.86" lon="7.02478">
        <ele>319.8</ele>
        <time>2021-09-20T07:42:25Z</time>
      </trkpt>
      <trkpt lat="43.85997" lon="7.02476">
        <ele>320.2</ele>
        <time>2021-09-20T07:42:27Z</time>
      </trkpt>
      <trkpt lat="43.85997" lon="7.02475">
        <ele>320.3</ele>
        <time>2021-09-20T07:42:28Z</time>
      </trkpt>
      <trkpt lat="43.85996" lon="7.02472">
        <ele>320.6</ele>
        <time>2021-09-20T07:42:29Z</time>
      </trkpt>
      <trkpt lat="43.85996" lon="7.02471">
        <ele>320.8</ele>
        <time>2021-09-20T07:42:31Z</time>
      </trkpt>
      <trkpt lat="43.85995" lon="7.0247">
        <ele>320.9</ele>
        <time>2021-09-20T07:42:32Z</time>
      </trkpt>
      <trkpt lat="43.85995" lon="7.02469">
        <ele>320.9</ele>
        <time>2021-09-20T07:42:33Z</time>
      </trkpt>
      <trkpt lat="43.85995" lon="7.02468">
        <ele>321</ele>
        <time>2021-09-20T07:42:34Z</time>
      </trkpt>
      <trkpt lat="43.85996" lon="7.02463">
        <ele>321.5</ele>
        <time>2021-09-20T07:42:35Z</time>
      </trkpt>
      <trkpt lat="43.85998" lon="7.0246">
        <ele>321.9</ele>
        <time>2021-09-20T07:42:41Z</time>
      </trkpt>
      <trkpt lat="43.85999" lon="7.02456">
        <ele>322.2</ele>
        <time>2021-09-20T07:42:42Z</time>
      </trkpt>
      <trkpt lat="43.86" lon="7.02453">
        <ele>322.6</ele>
        <time>2021-09-20T07:42:43Z</time>
      </trkpt>
      <trkpt lat="43.86002" lon="7.02451">
        <ele>322.9</ele>
        <time>2021-09-20T07:42:44Z</time>
      </trkpt>
      <trkpt lat="43.86005" lon="7.02447">
        <ele>323.5</ele>
        <time>2021-09-20T07:42:46Z</time>
      </trkpt>
      <trkpt lat="43.86007" lon="7.02446">
        <ele>323.9</ele>
        <time>2021-09-20T07:42:47Z</time>
      </trkpt>
      <trkpt lat="43.86013" lon="7.02441">
        <ele>324.9</ele>
        <time>2021-09-20T07:42:49Z</time>
      </trkpt>
      <trkpt lat="43.86016" lon="7.02438">
        <ele>325.6</ele>
        <time>2021-09-20T07:42:50Z</time>
      </trkpt>
      <trkpt lat="43.86017" lon="7.02437">
        <ele>325.8</ele>
        <time>2021-09-20T07:42:51Z</time>
      </trkpt>
      <trkpt lat="43.86018" lon="7.02434">
        <ele>326.2</ele>
        <time>2021-09-20T07:42:53Z</time>
      </trkpt>
      <trkpt lat="43.8602" lon="7.02432">
        <ele>326.5</ele>
        <time>2021-09-20T07:42:54Z</time>
      </trkpt>
      <trkpt lat="43.86021" lon="7.02431">
        <ele>326.8</ele>
        <time>2021-09-20T07:42:55Z</time>
      </trkpt>
      <trkpt lat="43.86023" lon="7.02431">
        <ele>327</ele>
        <time>2021-09-20T07:42:56Z</time>
      </trkpt>
      <trkpt lat="43.86024" lon="7.02429">
        <ele>327.3</ele>
        <time>2021-09-20T07:42:57Z</time>
      </trkpt>
      <trkpt lat="43.86026" lon="7.02428">
        <ele>327.6</ele>
        <time>2021-09-20T07:42:58Z</time>
      </trkpt>
      <trkpt lat="43.86028" lon="7.02426">
        <ele>328.1</ele>
        <time>2021-09-20T07:43:00Z</time>
      </trkpt>
      <trkpt lat="43.86029" lon="7.02426">
        <ele>328.2</ele>
        <time>2021-09-20T07:43:01Z</time>
      </trkpt>
      <trkpt lat="43.86029" lon="7.02428">
        <ele>328.4</ele>
        <time>2021-09-20T07:43:02Z</time>
      </trkpt>
      <trkpt lat="43.86027" lon="7.02429">
        <ele>328.7</ele>
        <time>2021-09-20T07:43:04Z</time>
      </trkpt>
      <trkpt lat="43.86027" lon="7.02428">
        <ele>328.8</ele>
        <time>2021-09-20T07:43:05Z</time>
      </trkpt>
      <trkpt lat="43.86026" lon="7.02425">
        <ele>329.1</ele>
        <time>2021-09-20T07:43:06Z</time>
      </trkpt>
      <trkpt lat="43.86026" lon="7.02424">
        <ele>329.3</ele>
        <time>2021-09-20T07:43:07Z</time>
      </trkpt>
      <trkpt lat="43.86026" lon="7.02422">
        <ele>329.5</ele>
        <time>2021-09-20T07:43:08Z</time>
      </trkpt>
      <trkpt lat="43.86026" lon="7.02421">
        <ele>329.6</ele>
        <time>2021-09-20T07:43:10Z</time>
      </trkpt>
      <trkpt lat="43.86018" lon="7.0246">
        <ele>334.3</ele>
        <time>2021-09-20T07:43:37Z</time>
      </trkpt>
      <trkpt lat="43.86018" lon="7.02464">
        <ele>334.8</ele>
        <time>2021-09-20T07:43:38Z</time>
      </trkpt>
      <trkpt lat="43.86019" lon="7.02468">
        <ele>335.3</ele>
        <time>2021-09-20T07:43:39Z</time>
      </trkpt>
      <trkpt lat="43.8602" lon="7.02474">
        <ele>336</ele>
        <time>2021-09-20T07:43:40Z</time>
      </trkpt>
      <trkpt lat="43.86021" lon="7.02481">
        <ele>336.8</ele>
        <time>2021-09-20T07:43:42Z</time>
      </trkpt>
      <trkpt lat="43.86022" lon="7.02486">
        <ele>337.4</ele>
        <time>2021-09-20T07:43:43Z</time>
      </trkpt>
      <trkpt lat="43.86023" lon="7.02489">
        <ele>337.8</ele>
        <time>2021-09-20T07:43:44Z</time>
      </trkpt>
      <trkpt lat="43.86023" lon="7.02493">
        <ele>338.3</ele>
        <time>2021-09-20T07:43:45Z</time>
      </trkpt>
      <trkpt lat="43.86023" lon="7.02498">
        <ele>338.9</ele>
        <time>2021-09-20T07:43:46Z</time>
      </trkpt>
      <trkpt lat="43.86023" lon="7.02503">
        <ele>339.4</ele>
        <time>2021-09-20T07:43:47Z</time>
      </trkpt>
      <trkpt lat="43.86023" lon="7.02508">
        <ele>339.3</ele>
        <time>2021-09-20T07:43:48Z</time>
      </trkpt>
      <trkpt lat="43.86023" lon="7.02515">
        <ele>339.1</ele>
        <time>2021-09-20T07:43:50Z</time>
      </trkpt>
      <trkpt lat="43.86024" lon="7.02521">
        <ele>338.9</ele>
        <time>2021-09-20T07:43:51Z</time>
      </trkpt>
      <trkpt lat="43.86025" lon="7.0253">
        <ele>338.6</ele>
        <time>2021-09-20T07:43:53Z</time>
      </trkpt>
      <trkpt lat="43.86026" lon="7.02535">
        <ele>338.5</ele>
        <time>2021-09-20T07:43:54Z</time>
      </trkpt>
      <trkpt lat="43.86027" lon="7.02538">
        <ele>338.4</ele>
        <time>2021-09-20T07:43:55Z</time>
      </trkpt>
      <trkpt lat="43.86027" lon="7.02546">
        <ele>338.5</ele>
        <time>2021-09-20T07:43:57Z</time>
      </trkpt>
      <trkpt lat="43.86028" lon="7.0255">
        <ele>338.6</ele>
        <time>2021-09-20T07:43:58Z</time>
      </trkpt>
      <trkpt lat="43.86028" lon="7.02556">
        <ele>338.8</ele>
        <time>2021-09-20T07:44:00Z</time>
      </trkpt>
      <trkpt lat="43.8603" lon="7.02561">
        <ele>339</ele>
        <time>2021-09-20T07:44:01Z</time>
      </trkpt>
      <trkpt lat="43.8603" lon="7.02566">
        <ele>339.3</ele>
        <time>2021-09-20T07:44:03Z</time>
      </trkpt>
      <trkpt lat="43.8603" lon="7.02571">
        <ele>339.5</ele>
        <time>2021-09-20T07:44:04Z</time>
      </trkpt>
      <trkpt lat="43.8603" lon="7.02572">
        <ele>339.5</ele>
        <time>2021-09-20T07:44:05Z</time>
      </trkpt>
      <trkpt lat="43.86029" lon="7.02576">
        <ele>339.7</ele>
        <time>2021-09-20T07:44:07Z</time>
      </trkpt>
      <trkpt lat="43.86028" lon="7.02578">
        <ele>339.8</ele>
        <time>2021-09-20T07:44:08Z</time>
      </trkpt>
      <trkpt lat="43.86028" lon="7.0258">
        <ele>339.9</ele>
        <time>2021-09-20T07:44:09Z</time>
      </trkpt>
      <trkpt lat="43.86028" lon="7.02583">
        <ele>340</ele>
        <time>2021-09-20T07:44:10Z</time>
      </trkpt>
      <trkpt lat="43.86026" lon="7.02584">
        <ele>340.2</ele>
        <time>2021-09-20T07:44:11Z</time>
      </trkpt>
      <trkpt lat="43.86024" lon="7.02588">
        <ele>340.4</ele>
        <time>2021-09-20T07:44:12Z</time>
      </trkpt>
      <trkpt lat="43.86023" lon="7.02589">
        <ele>340.5</ele>
        <time>2021-09-20T07:44:13Z</time>
      </trkpt>
      <trkpt lat="43.86022" lon="7.02591">
        <ele>340.6</ele>
        <time>2021-09-20T07:44:14Z</time>
      </trkpt>
      <trkpt lat="43.86022" lon="7.02593">
        <ele>340.7</ele>
        <time>2021-09-20T07:44:15Z</time>
      </trkpt>
      <trkpt lat="43.86022" lon="7.02595">
        <ele>340.7</ele>
        <time>2021-09-20T07:44:17Z</time>
      </trkpt>
      <trkpt lat="43.86023" lon="7.02596">
        <ele>340.8</ele>
        <time>2021-09-20T07:44:18Z</time>
      </trkpt>
      <trkpt lat="43.86023" lon="7.02597">
        <ele>340.9</ele>
        <time>2021-09-20T07:44:19Z</time>
      </trkpt>
      <trkpt lat="43.86023" lon="7.02597">
        <ele>340.9</ele>
        <time>2021-09-20T07:44:20Z</time>
      </trkpt>
      <trkpt lat="43.86023" lon="7.02598">
        <ele>340.9</ele>
        <time>2021-09-20T07:44:21Z</time>
      </trkpt>
      <trkpt lat="43.86023" lon="7.026">
        <ele>341</ele>
        <time>2021-09-20T07:44:23Z</time>
      </trkpt>
      <trkpt lat="43.86023" lon="7.02601">
        <ele>341</ele>
        <time>2021-09-20T07:44:24Z</time>
      </trkpt>
      <trkpt lat="43.86023" lon="7.02605">
        <ele>341.2</ele>
        <time>2021-09-20T07:44:26Z</time>
      </trkpt>
      <trkpt lat="43.86025" lon="7.02609">
        <ele>341.3</ele>
        <time>2021-09-20T07:44:27Z</time>
      </trkpt>
      <trkpt lat="43.86026" lon="7.0261">
        <ele>341.4</ele>
        <time>2021-09-20T07:44:29Z</time>
      </trkpt>
      <trkpt lat="43.86027" lon="7.02611">
        <ele>341.4</ele>
        <time>2021-09-20T07:44:30Z</time>
      </trkpt>
      <trkpt lat="43.86028" lon="7.02612">
        <ele>341.5</ele>
        <time>2021-09-20T07:44:31Z</time>
      </trkpt>
      <trkpt lat="43.8603" lon="7.02613">
        <ele>341.5</ele>
        <time>2021-09-20T07:44:32Z</time>
      </trkpt>
      <trkpt lat="43.86031" lon="7.02614">
        <ele>341.5</ele>
        <time>2021-09-20T07:44:33Z</time>
      </trkpt>
      <trkpt lat="43.86034" lon="7.02615">
        <ele>341.6</ele>
        <time>2021-09-20T07:44:35Z</time>
      </trkpt>
      <trkpt lat="43.86034" lon="7.02615">
        <ele>341.7</ele>
        <time>2021-09-20T07:44:36Z</time>
      </trkpt>
      <trkpt lat="43.86035" lon="7.02614">
        <ele>341.7</ele>
        <time>2021-09-20T07:44:37Z</time>
      </trkpt>
      <trkpt lat="43.86035" lon="7.02613">
        <ele>341.8</ele>
        <time>2021-09-20T07:44:38Z</time>
      </trkpt>
      <trkpt lat="43.86035" lon="7.02612">
        <ele>341.8</ele>
        <time>2021-09-20T07:44:39Z</time>
      </trkpt>
      <trkpt lat="43.86035" lon="7.0261">
        <ele>342</ele>
        <time>2021-09-20T07:44:41Z</time>
      </trkpt>
      <trkpt lat="43.86036" lon="7.02607">
        <ele>342.1</ele>
        <time>2021-09-20T07:44:42Z</time>
      </trkpt>
      <trkpt lat="43.86038" lon="7.02605">
        <ele>342.3</ele>
        <time>2021-09-20T07:44:45Z</time>
      </trkpt>
      <trkpt lat="43.86039" lon="7.02604">
        <ele>342.4</ele>
        <time>2021-09-20T07:44:46Z</time>
      </trkpt>
      <trkpt lat="43.86042" lon="7.02602">
        <ele>342.7</ele>
        <time>2021-09-20T07:44:48Z</time>
      </trkpt>
      <trkpt lat="43.86044" lon="7.02598">
        <ele>342.8</ele>
        <time>2021-09-20T07:44:50Z</time>
      </trkpt>
      <trkpt lat="43.86044" lon="7.02595">
        <ele>342.9</ele>
        <time>2021-09-20T07:44:51Z</time>
      </trkpt>
      <trkpt lat="43.86044" lon="7.02593">
        <ele>343</ele>
        <time>2021-09-20T07:44:52Z</time>
      </trkpt>
      <trkpt lat="43.86044" lon="7.02592">
        <ele>343</ele>
        <time>2021-09-20T07:44:53Z</time>
      </trkpt>
      <trkpt lat="43.86045" lon="7.02589">
        <ele>343.1</ele>
        <time>2021-09-20T07:44:54Z</time>
      </trkpt>
      <trkpt lat="43.86045" lon="7.02588">
        <ele>343.1</ele>
        <time>2021-09-20T07:44:55Z</time>
      </trkpt>
      <trkpt lat="43.86046" lon="7.02586">
        <ele>343.1</ele>
        <time>2021-09-20T07:44:56Z</time>
      </trkpt>
      <trkpt lat="43.86047" lon="7.02583">
        <ele>343.2</ele>
        <time>2021-09-20T07:44:58Z</time>
      </trkpt>
      <trkpt lat="43.86047" lon="7.02582">
        <ele>343.2</ele>
        <time>2021-09-20T07:44:59Z</time>
      </trkpt>
      <trkpt lat="43.86046" lon="7.0258">
        <ele>343.2</ele>
        <time>2021-09-20T07:45:00Z</time>
      </trkpt>
      <trkpt lat="43.86046" lon="7.02578">
        <ele>343.3</ele>
        <time>2021-09-20T07:45:01Z</time>
      </trkpt>
      <trkpt lat="43.86047" lon="7.02576">
        <ele>343.3</ele>
        <time>2021-09-20T07:45:02Z</time>
      </trkpt>
      <trkpt lat="43.86048" lon="7.02572">
        <ele>343.4</ele>
        <time>2021-09-20T07:45:04Z</time>
      </trkpt>
      <trkpt lat="43.86049" lon="7.02568">
        <ele>343.5</ele>
        <time>2021-09-20T07:45:05Z</time>
      </trkpt>
      <trkpt lat="43.86049" lon="7.02567">
        <ele>343.5</ele>
        <time>2021-09-20T07:45:06Z</time>
      </trkpt>
      <trkpt lat="43.8605" lon="7.02563">
        <ele>343.6</ele>
        <time>2021-09-20T07:45:08Z</time>
      </trkpt>
      <trkpt lat="43.8605" lon="7.02562">
        <ele>343.6</ele>
        <time>2021-09-20T07:45:09Z</time>
      </trkpt>
      <trkpt lat="43.86051" lon="7.02558">
        <ele>343.7</ele>
        <time>2021-09-20T07:45:10Z</time>
      </trkpt>
      <trkpt lat="43.86053" lon="7.02553">
        <ele>343.9</ele>
        <time>2021-09-20T07:45:12Z</time>
      </trkpt>
      <trkpt lat="43.86053" lon="7.02549">
        <ele>344.1</ele>
        <time>2021-09-20T07:45:14Z</time>
      </trkpt>
      <trkpt lat="43.86054" lon="7.02544">
        <ele>344.3</ele>
        <time>2021-09-20T07:45:16Z</time>
      </trkpt>
      <trkpt lat="43.86057" lon="7.02539">
        <ele>344.6</ele>
        <time>2021-09-20T07:45:18Z</time>
      </trkpt>
      <trkpt lat="43.86058" lon="7.02536">
        <ele>344.9</ele>
        <time>2021-09-20T07:45:19Z</time>
      </trkpt>
      <trkpt lat="43.86058" lon="7.02535">
        <ele>344.9</ele>
        <time>2021-09-20T07:45:20Z</time>
      </trkpt>
      <trkpt lat="43.86059" lon="7.02531">
        <ele>345.2</ele>
        <time>2021-09-20T07:45:21Z</time>
      </trkpt>
      <trkpt lat="43.86059" lon="7.0253">
        <ele>345.3</ele>
        <time>2021-09-20T07:45:22Z</time>
      </trkpt>
      <trkpt lat="43.8606" lon="7.02528">
        <ele>345.4</ele>
        <time>2021-09-20T07:45:23Z</time>
      </trkpt>
      <trkpt lat="43.86061" lon="7.02527">
        <ele>345.5</ele>
        <time>2021-09-20T07:45:25Z</time>
      </trkpt>
      <trkpt lat="43.86061" lon="7.02524">
        <ele>345.7</ele>
        <time>2021-09-20T07:45:26Z</time>
      </trkpt>
      <trkpt lat="43.86061" lon="7.02522">
        <ele>345.9</ele>
        <time>2021-09-20T07:45:27Z</time>
      </trkpt>
      <trkpt lat="43.8606" lon="7.02518">
        <ele>346.2</ele>
        <time>2021-09-20T07:45:29Z</time>
      </trkpt>
      <trkpt lat="43.8606" lon="7.02517">
        <ele>346.3</ele>
        <time>2021-09-20T07:45:30Z</time>
      </trkpt>
      <trkpt lat="43.8606" lon="7.02512">
        <ele>346.7</ele>
        <time>2021-09-20T07:45:32Z</time>
      </trkpt>
      <trkpt lat="43.8606" lon="7.02507">
        <ele>347.1</ele>
        <time>2021-09-20T07:45:34Z</time>
      </trkpt>
      <trkpt lat="43.8606" lon="7.02506">
        <ele>347.2</ele>
        <time>2021-09-20T07:45:35Z</time>
      </trkpt>
      <trkpt lat="43.86062" lon="7.02502">
        <ele>347.5</ele>
        <time>2021-09-20T07:45:36Z</time>
      </trkpt>
      <trkpt lat="43.86062" lon="7.025">
        <ele>347.7</ele>
        <time>2021-09-20T07:45:37Z</time>
      </trkpt>
      <trkpt lat="43.86063" lon="7.02497">
        <ele>348</ele>
        <time>2021-09-20T07:45:39Z</time>
      </trkpt>
      <trkpt lat="43.86064" lon="7.02496">
        <ele>348.1</ele>
        <time>2021-09-20T07:45:40Z</time>
      </trkpt>
      <trkpt lat="43.86065" lon="7.02495">
        <ele>348.2</ele>
        <time>2021-09-20T07:45:41Z</time>
      </trkpt>
      <trkpt lat="43.86066" lon="7.02493">
        <ele>348.4</ele>
        <time>2021-09-20T07:45:42Z</time>
      </trkpt>
      <trkpt lat="43.86067" lon="7.02491">
        <ele>348.6</ele>
        <time>2021-09-20T07:45:44Z</time>
      </trkpt>
      <trkpt lat="43.86067" lon="7.02489">
        <ele>348.7</ele>
        <time>2021-09-20T07:45:45Z</time>
      </trkpt>
      <trkpt lat="43.86067" lon="7.02488">
        <ele>348.9</ele>
        <time>2021-09-20T07:45:46Z</time>
      </trkpt>
      <trkpt lat="43.86068" lon="7.02486">
        <ele>349</ele>
        <time>2021-09-20T07:45:47Z</time>
      </trkpt>
      <trkpt lat="43.86069" lon="7.02484">
        <ele>349.3</ele>
        <time>2021-09-20T07:45:49Z</time>
      </trkpt>
      <trkpt lat="43.86069" lon="7.02482">
        <ele>349.4</ele>
        <time>2021-09-20T07:45:50Z</time>
      </trkpt>
      <trkpt lat="43.86071" lon="7.02481">
        <ele>349.6</ele>
        <time>2021-09-20T07:45:51Z</time>
      </trkpt>
      <trkpt lat="43.86071" lon="7.0248">
        <ele>349.8</ele>
        <time>2021-09-20T07:45:52Z</time>
      </trkpt>
      <trkpt lat="43.86072" lon="7.02479">
        <ele>349.9</ele>
        <time>2021-09-20T07:45:53Z</time>
      </trkpt>
      <trkpt lat="43.86072" lon="7.02477">
        <ele>350.1</ele>
        <time>2021-09-20T07:45:55Z</time>
      </trkpt>
      <trkpt lat="43.86072" lon="7.02476">
        <ele>350.2</ele>
        <time>2021-09-20T07:45:56Z</time>
      </trkpt>
      <trkpt lat="43.86074" lon="7.02474">
        <ele>350.4</ele>
        <time>2021-09-20T07:45:58Z</time>
      </trkpt>
      <trkpt lat="43.86074" lon="7.02473">
        <ele>350.6</ele>
        <time>2021-09-20T07:45:59Z</time>
      </trkpt>
      <trkpt lat="43.86075" lon="7.02471">
        <ele>350.7</ele>
        <time>2021-09-20T07:46:00Z</time>
      </trkpt>
      <trkpt lat="43.86076" lon="7.02468">
        <ele>351.1</ele>
        <time>2021-09-20T07:46:02Z</time>
      </trkpt>
      <trkpt lat="43.86076" lon="7.02467">
        <ele>351.2</ele>
        <time>2021-09-20T07:46:03Z</time>
      </trkpt>
      <trkpt lat="43.86077" lon="7.02463">
        <ele>351.6</ele>
        <time>2021-09-20T07:46:05Z</time>
      </trkpt>
      <trkpt lat="43.86077" lon="7.02461">
        <ele>351.8</ele>
        <time>2021-09-20T07:46:06Z</time>
      </trkpt>
      <trkpt lat="43.86078" lon="7.02457">
        <ele>352.2</ele>
        <time>2021-09-20T07:46:08Z</time>
      </trkpt>
      <trkpt lat="43.86077" lon="7.02455">
        <ele>352.4</ele>
        <time>2021-09-20T07:46:09Z</time>
      </trkpt>
      <trkpt lat="43.86078" lon="7.02454">
        <ele>352.5</ele>
        <time>2021-09-20T07:46:10Z</time>
      </trkpt>
      <trkpt lat="43.86078" lon="7.02452">
        <ele>352.6</ele>
        <time>2021-09-20T07:46:12Z</time>
      </trkpt>
      <trkpt lat="43.86078" lon="7.02451">
        <ele>352.7</ele>
        <time>2021-09-20T07:46:13Z</time>
      </trkpt>
      <trkpt lat="43.86078" lon="7.0245">
        <ele>352.8</ele>
        <time>2021-09-20T07:46:14Z</time>
      </trkpt>
      <trkpt lat="43.86079" lon="7.02449">
        <ele>352.9</ele>
        <time>2021-09-20T07:46:15Z</time>
      </trkpt>
      <trkpt lat="43.86079" lon="7.02447">
        <ele>353.1</ele>
        <time>2021-09-20T07:46:16Z</time>
      </trkpt>
      <trkpt lat="43.8608" lon="7.02442">
        <ele>353.6</ele>
        <time>2021-09-20T07:46:18Z</time>
      </trkpt>
      <trkpt lat="43.86081" lon="7.0244">
        <ele>353.7</ele>
        <time>2021-09-20T07:46:19Z</time>
      </trkpt>
      <trkpt lat="43.86081" lon="7.02439">
        <ele>353.8</ele>
        <time>2021-09-20T07:46:20Z</time>
      </trkpt>
      <trkpt lat="43.86082" lon="7.02435">
        <ele>354.1</ele>
        <time>2021-09-20T07:46:22Z</time>
      </trkpt>
      <trkpt lat="43.86083" lon="7.02434">
        <ele>354.3</ele>
        <time>2021-09-20T07:46:23Z</time>
      </trkpt>
      <trkpt lat="43.86084" lon="7.02431">
        <ele>354.5</ele>
        <time>2021-09-20T07:46:25Z</time>
      </trkpt>
      <trkpt lat="43.86085" lon="7.02429">
        <ele>354.6</ele>
        <time>2021-09-20T07:46:26Z</time>
      </trkpt>
      <trkpt lat="43.86086" lon="7.02427">
        <ele>354.8</ele>
        <time>2021-09-20T07:46:27Z</time>
      </trkpt>
      <trkpt lat="43.86087" lon="7.02424">
        <ele>355</ele>
        <time>2021-09-20T07:46:29Z</time>
      </trkpt>
      <trkpt lat="43.86087" lon="7.0242">
        <ele>355.2</ele>
        <time>2021-09-20T07:46:31Z</time>
      </trkpt>
      <trkpt lat="43.86087" lon="7.02416">
        <ele>355.4</ele>
        <time>2021-09-20T07:46:33Z</time>
      </trkpt>
      <trkpt lat="43.86088" lon="7.02414">
        <ele>355.5</ele>
        <time>2021-09-20T07:46:35Z</time>
      </trkpt>
      <trkpt lat="43.86089" lon="7.0241">
        <ele>355.6</ele>
        <time>2021-09-20T07:46:37Z</time>
      </trkpt>
      <trkpt lat="43.86089" lon="7.02408">
        <ele>355.7</ele>
        <time>2021-09-20T07:46:38Z</time>
      </trkpt>
      <trkpt lat="43.86089" lon="7.02406">
        <ele>355.7</ele>
        <time>2021-09-20T07:46:39Z</time>
      </trkpt>
      <trkpt lat="43.86089" lon="7.02403">
        <ele>355.7</ele>
        <time>2021-09-20T07:46:40Z</time>
      </trkpt>
      <trkpt lat="43.86089" lon="7.02402">
        <ele>355.6</ele>
        <time>2021-09-20T07:46:42Z</time>
      </trkpt>
      <trkpt lat="43.86089" lon="7.02401">
        <ele>355.6</ele>
        <time>2021-09-20T07:46:43Z</time>
      </trkpt>
      <trkpt lat="43.86087" lon="7.02397">
        <ele>355.6</ele>
        <time>2021-09-20T07:46:44Z</time>
      </trkpt>
      <trkpt lat="43.86087" lon="7.02396">
        <ele>355.6</ele>
        <time>2021-09-20T07:46:45Z</time>
      </trkpt>
      <trkpt lat="43.86086" lon="7.02395">
        <ele>355.6</ele>
        <time>2021-09-20T07:46:47Z</time>
      </trkpt>
      <trkpt lat="43.86085" lon="7.02394">
        <ele>355.6</ele>
        <time>2021-09-20T07:46:48Z</time>
      </trkpt>
      <trkpt lat="43.86085" lon="7.02393">
        <ele>355.6</ele>
        <time>2021-09-20T07:46:49Z</time>
      </trkpt>
      <trkpt lat="43.86085" lon="7.02389">
        <ele>355.5</ele>
        <time>2021-09-20T07:46:50Z</time>
      </trkpt>
      <trkpt lat="43.86085" lon="7.02388">
        <ele>355.5</ele>
        <time>2021-09-20T07:46:51Z</time>
      </trkpt>
      <trkpt lat="43.86085" lon="7.02387">
        <ele>355.5</ele>
        <time>2021-09-20T07:46:52Z</time>
      </trkpt>
      <trkpt lat="43.86086" lon="7.02385">
        <ele>355.5</ele>
        <time>2021-09-20T07:46:54Z</time>
      </trkpt>
      <trkpt lat="43.86087" lon="7.02384">
        <ele>355.5</ele>
        <time>2021-09-20T07:46:55Z</time>
      </trkpt>
      <trkpt lat="43.86088" lon="7.02379">
        <ele>355.5</ele>
        <time>2021-09-20T07:46:58Z</time>
      </trkpt>
      <trkpt lat="43.86088" lon="7.02377">
        <ele>355.4</ele>
        <time>2021-09-20T07:46:59Z</time>
      </trkpt>
      <trkpt lat="43.86087" lon="7.02375">
        <ele>355.4</ele>
        <time>2021-09-20T07:47:00Z</time>
      </trkpt>
      <trkpt lat="43.86087" lon="7.02372">
        <ele>355.4</ele>
        <time>2021-09-20T07:47:02Z</time>
      </trkpt>
      <trkpt lat="43.86086" lon="7.02367">
        <ele>355.4</ele>
        <time>2021-09-20T07:47:04Z</time>
      </trkpt>
      <trkpt lat="43.86087" lon="7.02363">
        <ele>355.3</ele>
        <time>2021-09-20T07:47:05Z</time>
      </trkpt>
      <trkpt lat="43.86087" lon="7.02361">
        <ele>355.3</ele>
        <time>2021-09-20T07:47:06Z</time>
      </trkpt>
      <trkpt lat="43.86087" lon="7.02353">
        <ele>355.2</ele>
        <time>2021-09-20T07:47:08Z</time>
      </trkpt>
      <trkpt lat="43.86087" lon="7.02349">
        <ele>355.2</ele>
        <time>2021-09-20T07:47:09Z</time>
      </trkpt>
      <trkpt lat="43.86086" lon="7.02339">
        <ele>355.1</ele>
        <time>2021-09-20T07:47:11Z</time>
      </trkpt>
      <trkpt lat="43.86085" lon="7.02327">
        <ele>355</ele>
        <time>2021-09-20T07:47:13Z</time>
      </trkpt>
      <trkpt lat="43.86084" lon="7.02316">
        <ele>354.9</ele>
        <time>2021-09-20T07:47:15Z</time>
      </trkpt>
      <trkpt lat="43.86083" lon="7.02305">
        <ele>354.8</ele>
        <time>2021-09-20T07:47:17Z</time>
      </trkpt>
      <trkpt lat="43.86082" lon="7.02294">
        <ele>354.7</ele>
        <time>2021-09-20T07:47:19Z</time>
      </trkpt>
      <trkpt lat="43.8608" lon="7.02289">
        <ele>354.6</ele>
        <time>2021-09-20T07:47:20Z</time>
      </trkpt>
      <trkpt lat="43.86078" lon="7.0228">
        <ele>354.6</ele>
        <time>2021-09-20T07:47:21Z</time>
      </trkpt>
      <trkpt lat="43.86076" lon="7.02275">
        <ele>354.5</ele>
        <time>2021-09-20T07:47:23Z</time>
      </trkpt>
      <trkpt lat="43.86074" lon="7.02271">
        <ele>354.5</ele>
        <time>2021-09-20T07:47:24Z</time>
      </trkpt>
      <trkpt lat="43.86071" lon="7.02263">
        <ele>354.4</ele>
        <time>2021-09-20T07:47:26Z</time>
      </trkpt>
      <trkpt lat="43.86069" lon="7.02254">
        <ele>354.4</ele>
        <time>2021-09-20T07:47:28Z</time>
      </trkpt>
      <trkpt lat="43.86067" lon="7.0225">
        <ele>354.3</ele>
        <time>2021-09-20T07:47:29Z</time>
      </trkpt>
      <trkpt lat="43.86066" lon="7.02243">
        <ele>354.3</ele>
        <time>2021-09-20T07:47:30Z</time>
      </trkpt>
      <trkpt lat="43.86065" lon="7.02237">
        <ele>354.3</ele>
        <time>2021-09-20T07:47:31Z</time>
      </trkpt>
      <trkpt lat="43.86064" lon="7.02231">
        <ele>354.2</ele>
        <time>2021-09-20T07:47:33Z</time>
      </trkpt>
      <trkpt lat="43.86062" lon="7.0222">
        <ele>354.1</ele>
        <time>2021-09-20T07:47:35Z</time>
      </trkpt>
      <trkpt lat="43.86058" lon="7.02212">
        <ele>354.1</ele>
        <time>2021-09-20T07:47:36Z</time>
      </trkpt>
      <trkpt lat="43.86055" lon="7.02206">
        <ele>354</ele>
        <time>2021-09-20T07:47:38Z</time>
      </trkpt>
      <trkpt lat="43.86052" lon="7.02201">
        <ele>354</ele>
        <time>2021-09-20T07:47:39Z</time>
      </trkpt>
      <trkpt lat="43.86047" lon="7.02192">
        <ele>353.9</ele>
        <time>2021-09-20T07:47:40Z</time>
      </trkpt>
      <trkpt lat="43.86044" lon="7.02185">
        <ele>353.8</ele>
        <time>2021-09-20T07:47:42Z</time>
      </trkpt>
      <trkpt lat="43.86041" lon="7.02179">
        <ele>353.7</ele>
        <time>2021-09-20T07:47:43Z</time>
      </trkpt>
      <trkpt lat="43.86036" lon="7.02168">
        <ele>353.6</ele>
        <time>2021-09-20T07:47:45Z</time>
      </trkpt>
      <trkpt lat="43.86029" lon="7.02159">
        <ele>353.5</ele>
        <time>2021-09-20T07:47:47Z</time>
      </trkpt>
      <trkpt lat="43.86025" lon="7.02153">
        <ele>353.4</ele>
        <time>2021-09-20T07:47:48Z</time>
      </trkpt>
      <trkpt lat="43.86022" lon="7.02147">
        <ele>353.3</ele>
        <time>2021-09-20T07:47:49Z</time>
      </trkpt>
      <trkpt lat="43.86018" lon="7.0214">
        <ele>353.3</ele>
        <time>2021-09-20T07:47:50Z</time>
      </trkpt>
      <trkpt lat="43.86011" lon="7.02126">
        <ele>353.1</ele>
        <time>2021-09-20T07:47:52Z</time>
      </trkpt>
      <trkpt lat="43.86009" lon="7.02111">
        <ele>353</ele>
        <time>2021-09-20T07:47:54Z</time>
      </trkpt>
      <trkpt lat="43.86009" lon="7.02104">
        <ele>352.9</ele>
        <time>2021-09-20T07:47:55Z</time>
      </trkpt>
      <trkpt lat="43.86009" lon="7.02096">
        <ele>352.9</ele>
        <time>2021-09-20T07:47:56Z</time>
      </trkpt>
      <trkpt lat="43.8601" lon="7.02082">
        <ele>352.8</ele>
        <time>2021-09-20T07:47:58Z</time>
      </trkpt>
      <trkpt lat="43.86012" lon="7.02068">
        <ele>352.7</ele>
        <time>2021-09-20T07:48:00Z</time>
      </trkpt>
      <trkpt lat="43.86017" lon="7.02057">
        <ele>352.6</ele>
        <time>2021-09-20T07:48:02Z</time>
      </trkpt>
      <trkpt lat="43.86019" lon="7.02052">
        <ele>352.5</ele>
        <time>2021-09-20T07:48:03Z</time>
      </trkpt>
      <trkpt lat="43.86025" lon="7.02045">
        <ele>352.4</ele>
        <time>2021-09-20T07:48:05Z</time>
      </trkpt>
      <trkpt lat="43.86029" lon="7.0204">
        <ele>352.4</ele>
        <time>2021-09-20T07:48:06Z</time>
      </trkpt>
      <trkpt lat="43.86037" lon="7.0203">
        <ele>352.3</ele>
        <time>2021-09-20T07:48:08Z</time>
      </trkpt>
      <trkpt lat="43.86043" lon="7.02022">
        <ele>352.2</ele>
        <time>2021-09-20T07:48:10Z</time>
      </trkpt>
      <trkpt lat="43.86043" lon="7.02014">
        <ele>352.1</ele>
        <time>2021-09-20T07:48:11Z</time>
      </trkpt>
      <trkpt lat="43.86046" lon="7.02006">
        <ele>352.1</ele>
        <time>2021-09-20T07:48:12Z</time>
      </trkpt>
      <trkpt lat="43.86049" lon="7.02001">
        <ele>352</ele>
        <time>2021-09-20T07:48:13Z</time>
      </trkpt>
      <trkpt lat="43.86052" lon="7.01996">
        <ele>352</ele>
        <time>2021-09-20T07:48:14Z</time>
      </trkpt>
      <trkpt lat="43.86055" lon="7.01989">
        <ele>351.9</ele>
        <time>2021-09-20T07:48:16Z</time>
      </trkpt>
      <trkpt lat="43.86058" lon="7.01983">
        <ele>351.8</ele>
        <time>2021-09-20T07:48:17Z</time>
      </trkpt>
      <trkpt lat="43.86061" lon="7.01978">
        <ele>351.8</ele>
        <time>2021-09-20T07:48:18Z</time>
      </trkpt>
      <trkpt lat="43.86065" lon="7.01973">
        <ele>351.7</ele>
        <time>2021-09-20T07:48:19Z</time>
      </trkpt>
      <trkpt lat="43.8607" lon="7.01968">
        <ele>351.6</ele>
        <time>2021-09-20T07:48:20Z</time>
      </trkpt>
      <trkpt lat="43.86074" lon="7.01962">
        <ele>351.5</ele>
        <time>2021-09-20T07:48:21Z</time>
      </trkpt>
      <trkpt lat="43.8608" lon="7.01956">
        <ele>351.4</ele>
        <time>2021-09-20T07:48:23Z</time>
      </trkpt>
      <trkpt lat="43.86086" lon="7.0195">
        <ele>351.3</ele>
        <time>2021-09-20T07:48:24Z</time>
      </trkpt>
      <trkpt lat="43.86091" lon="7.01947">
        <ele>351.2</ele>
        <time>2021-09-20T07:48:25Z</time>
      </trkpt>
      <trkpt lat="43.86096" lon="7.01945">
        <ele>351.1</ele>
        <time>2021-09-20T07:48:27Z</time>
      </trkpt>
      <trkpt lat="43.861" lon="7.01943">
        <ele>351.1</ele>
        <time>2021-09-20T07:48:28Z</time>
      </trkpt>
      <trkpt lat="43.86105" lon="7.01941">
        <ele>351</ele>
        <time>2021-09-20T07:48:29Z</time>
      </trkpt>
      <trkpt lat="43.86109" lon="7.01937">
        <ele>350.9</ele>
        <time>2021-09-20T07:48:30Z</time>
      </trkpt>
      <trkpt lat="43.86113" lon="7.01932">
        <ele>350.8</ele>
        <time>2021-09-20T07:48:31Z</time>
      </trkpt>
      <trkpt lat="43.86118" lon="7.01928">
        <ele>350.7</ele>
        <time>2021-09-20T07:48:33Z</time>
      </trkpt>
      <trkpt lat="43.86123" lon="7.01924">
        <ele>350.7</ele>
        <time>2021-09-20T07:48:34Z</time>
      </trkpt>
      <trkpt lat="43.86129" lon="7.01919">
        <ele>350.6</ele>
        <time>2021-09-20T07:48:35Z</time>
      </trkpt>
      <trkpt lat="43.86138" lon="7.01913">
        <ele>350.4</ele>
        <time>2021-09-20T07:48:37Z</time>
      </trkpt>
      <trkpt lat="43.86143" lon="7.01911">
        <ele>350.3</ele>
        <time>2021-09-20T07:48:38Z</time>
      </trkpt>
      <trkpt lat="43.86152" lon="7.01907">
        <ele>350.2</ele>
        <time>2021-09-20T07:48:40Z</time>
      </trkpt>
      <trkpt lat="43.86158" lon="7.01905">
        <ele>350.1</ele>
        <time>2021-09-20T07:48:41Z</time>
      </trkpt>
      <trkpt lat="43.86168" lon="7.01905">
        <ele>349.9</ele>
        <time>2021-09-20T07:48:43Z</time>
      </trkpt>
      <trkpt lat="43.86172" lon="7.01905">
        <ele>349.8</ele>
        <time>2021-09-20T07:48:44Z</time>
      </trkpt>
      <trkpt lat="43.86176" lon="7.01905">
        <ele>349.8</ele>
        <time>2021-09-20T07:48:45Z</time>
      </trkpt>
      <trkpt lat="43.86185" lon="7.01904">
        <ele>349.7</ele>
        <time>2021-09-20T07:48:47Z</time>
      </trkpt>
      <trkpt lat="43.8619" lon="7.01902">
        <ele>349.7</ele>
        <time>2021-09-20T07:48:48Z</time>
      </trkpt>
      <trkpt lat="43.86199" lon="7.019">
        <ele>349.6</ele>
        <time>2021-09-20T07:48:49Z</time>
      </trkpt>
      <trkpt lat="43.86211" lon="7.01897">
        <ele>349.5</ele>
        <time>2021-09-20T07:48:51Z</time>
      </trkpt>
      <trkpt lat="43.86223" lon="7.01896">
        <ele>349.3</ele>
        <time>2021-09-20T07:48:53Z</time>
      </trkpt>
      <trkpt lat="43.86233" lon="7.01896">
        <ele>349.1</ele>
        <time>2021-09-20T07:48:55Z</time>
      </trkpt>
      <trkpt lat="43.86244" lon="7.01897">
        <ele>348.8</ele>
        <time>2021-09-20T07:48:57Z</time>
      </trkpt>
      <trkpt lat="43.86255" lon="7.01902">
        <ele>348.6</ele>
        <time>2021-09-20T07:48:59Z</time>
      </trkpt>
      <trkpt lat="43.86261" lon="7.01904">
        <ele>348.5</ele>
        <time>2021-09-20T07:49:00Z</time>
      </trkpt>
      <trkpt lat="43.86272" lon="7.01906">
        <ele>348.4</ele>
        <time>2021-09-20T07:49:02Z</time>
      </trkpt>
      <trkpt lat="43.86282" lon="7.01906">
        <ele>348.3</ele>
        <time>2021-09-20T07:49:04Z</time>
      </trkpt>
      <trkpt lat="43.86288" lon="7.01907">
        <ele>348.2</ele>
        <time>2021-09-20T07:49:05Z</time>
      </trkpt>
      <trkpt lat="43.86293" lon="7.01906">
        <ele>348.1</ele>
        <time>2021-09-20T07:49:06Z</time>
      </trkpt>
      <trkpt lat="43.86298" lon="7.01906">
        <ele>348</ele>
        <time>2021-09-20T07:49:07Z</time>
      </trkpt>
      <trkpt lat="43.86308" lon="7.01904">
        <ele>347.9</ele>
        <time>2021-09-20T07:49:09Z</time>
      </trkpt>
      <trkpt lat="43.86313" lon="7.01903">
        <ele>347.8</ele>
        <time>2021-09-20T07:49:10Z</time>
      </trkpt>
      <trkpt lat="43.86323" lon="7.01899">
        <ele>347.7</ele>
        <time>2021-09-20T07:49:12Z</time>
      </trkpt>
      <trkpt lat="43.86329" lon="7.01896">
        <ele>347.6</ele>
        <time>2021-09-20T07:49:13Z</time>
      </trkpt>
      <trkpt lat="43.86339" lon="7.01895">
        <ele>347.4</ele>
        <time>2021-09-20T07:49:15Z</time>
      </trkpt>
      <trkpt lat="43.86349" lon="7.01893">
        <ele>347.3</ele>
        <time>2021-09-20T07:49:17Z</time>
      </trkpt>
      <trkpt lat="43.86354" lon="7.01892">
        <ele>347.2</ele>
        <time>2021-09-20T07:49:18Z</time>
      </trkpt>
      <trkpt lat="43.8636" lon="7.01891">
        <ele>347.1</ele>
        <time>2021-09-20T07:49:19Z</time>
      </trkpt>
      <trkpt lat="43.8637" lon="7.0189">
        <ele>346.9</ele>
        <time>2021-09-20T07:49:21Z</time>
      </trkpt>
      <trkpt lat="43.86383" lon="7.01893">
        <ele>346.7</ele>
        <time>2021-09-20T07:49:23Z</time>
      </trkpt>
      <trkpt lat="43.86393" lon="7.01892">
        <ele>346.5</ele>
        <time>2021-09-20T07:49:25Z</time>
      </trkpt>
      <trkpt lat="43.86397" lon="7.0189">
        <ele>346.4</ele>
        <time>2021-09-20T07:49:26Z</time>
      </trkpt>
      <trkpt lat="43.86402" lon="7.01887">
        <ele>346.4</ele>
        <time>2021-09-20T07:49:27Z</time>
      </trkpt>
      <trkpt lat="43.86412" lon="7.01882">
        <ele>346.2</ele>
        <time>2021-09-20T07:49:29Z</time>
      </trkpt>
      <trkpt lat="43.86434" lon="7.01871">
        <ele>345.9</ele>
        <time>2021-09-20T07:49:31Z</time>
      </trkpt>
      <trkpt lat="43.86438" lon="7.01869">
        <ele>345.8</ele>
        <time>2021-09-20T07:49:32Z</time>
      </trkpt>
      <trkpt lat="43.86442" lon="7.01866">
        <ele>345.8</ele>
        <time>2021-09-20T07:49:33Z</time>
      </trkpt>
      <trkpt lat="43.8645" lon="7.01852">
        <ele>345.6</ele>
        <time>2021-09-20T07:49:35Z</time>
      </trkpt>
      <trkpt lat="43.86454" lon="7.01844">
        <ele>345.5</ele>
        <time>2021-09-20T07:49:36Z</time>
      </trkpt>
      <trkpt lat="43.86464" lon="7.01829">
        <ele>345.3</ele>
        <time>2021-09-20T07:49:38Z</time>
      </trkpt>
      <trkpt lat="43.86475" lon="7.01817">
        <ele>345.1</ele>
        <time>2021-09-20T07:49:40Z</time>
      </trkpt>
      <trkpt lat="43.86479" lon="7.01814">
        <ele>345</ele>
        <time>2021-09-20T07:49:41Z</time>
      </trkpt>
      <trkpt lat="43.86488" lon="7.01809">
        <ele>344.9</ele>
        <time>2021-09-20T07:49:43Z</time>
      </trkpt>
      <trkpt lat="43.86492" lon="7.01806">
        <ele>344.9</ele>
        <time>2021-09-20T07:49:44Z</time>
      </trkpt>
      <trkpt lat="43.86499" lon="7.01798">
        <ele>344.8</ele>
        <time>2021-09-20T07:49:46Z</time>
      </trkpt>
      <trkpt lat="43.86504" lon="7.01793">
        <ele>344.7</ele>
        <time>2021-09-20T07:49:47Z</time>
      </trkpt>
      <trkpt lat="43.86514" lon="7.01784">
        <ele>344.6</ele>
        <time>2021-09-20T07:49:49Z</time>
      </trkpt>
      <trkpt lat="43.86522" lon="7.01776">
        <ele>344.4</ele>
        <time>2021-09-20T07:49:51Z</time>
      </trkpt>
      <trkpt lat="43.8653" lon="7.01772">
        <ele>344.3</ele>
        <time>2021-09-20T07:49:53Z</time>
      </trkpt>
      <trkpt lat="43.86538" lon="7.0177">
        <ele>344.2</ele>
        <time>2021-09-20T07:49:55Z</time>
      </trkpt>
      <trkpt lat="43.86549" lon="7.01769">
        <ele>344</ele>
        <time>2021-09-20T07:49:57Z</time>
      </trkpt>
      <trkpt lat="43.86551" lon="7.01765">
        <ele>344</ele>
        <time>2021-09-20T07:49:58Z</time>
      </trkpt>
      <trkpt lat="43.86556" lon="7.01758">
        <ele>343.9</ele>
        <time>2021-09-20T07:49:59Z</time>
      </trkpt>
      <trkpt lat="43.86565" lon="7.01741">
        <ele>343.7</ele>
        <time>2021-09-20T07:50:01Z</time>
      </trkpt>
      <trkpt lat="43.86568" lon="7.01735">
        <ele>343.6</ele>
        <time>2021-09-20T07:50:02Z</time>
      </trkpt>
      <trkpt lat="43.86573" lon="7.01722">
        <ele>343.6</ele>
        <time>2021-09-20T07:50:04Z</time>
      </trkpt>
      <trkpt lat="43.86578" lon="7.01716">
        <ele>343.5</ele>
        <time>2021-09-20T07:50:05Z</time>
      </trkpt>
      <trkpt lat="43.86582" lon="7.01711">
        <ele>343.5</ele>
        <time>2021-09-20T07:50:06Z</time>
      </trkpt>
      <trkpt lat="43.8659" lon="7.017">
        <ele>343.4</ele>
        <time>2021-09-20T07:50:08Z</time>
      </trkpt>
      <trkpt lat="43.86597" lon="7.01687">
        <ele>343.4</ele>
        <time>2021-09-20T07:50:10Z</time>
      </trkpt>
      <trkpt lat="43.866" lon="7.0168">
        <ele>343.4</ele>
        <time>2021-09-20T07:50:11Z</time>
      </trkpt>
      <trkpt lat="43.86608" lon="7.01666">
        <ele>343.3</ele>
        <time>2021-09-20T07:50:13Z</time>
      </trkpt>
      <trkpt lat="43.86613" lon="7.01659">
        <ele>343.3</ele>
        <time>2021-09-20T07:50:14Z</time>
      </trkpt>
      <trkpt lat="43.86619" lon="7.01655">
        <ele>343.3</ele>
        <time>2021-09-20T07:50:15Z</time>
      </trkpt>
      <trkpt lat="43.8663" lon="7.01651">
        <ele>343.2</ele>
        <time>2021-09-20T07:50:17Z</time>
      </trkpt>
      <trkpt lat="43.8664" lon="7.01656">
        <ele>343.1</ele>
        <time>2021-09-20T07:50:22Z</time>
      </trkpt>
      <trkpt lat="43.86649" lon="7.01666">
        <ele>342.9</ele>
        <time>2021-09-20T07:50:24Z</time>
      </trkpt>
      <trkpt lat="43.86654" lon="7.01674">
        <ele>342.8</ele>
        <time>2021-09-20T07:50:25Z</time>
      </trkpt>
      <trkpt lat="43.86657" lon="7.01681">
        <ele>342.7</ele>
        <time>2021-09-20T07:50:26Z</time>
      </trkpt>
      <trkpt lat="43.86663" lon="7.01694">
        <ele>342.6</ele>
        <time>2021-09-20T07:50:28Z</time>
      </trkpt>
      <trkpt lat="43.86666" lon="7.01698">
        <ele>342.5</ele>
        <time>2021-09-20T07:50:29Z</time>
      </trkpt>
      <trkpt lat="43.86668" lon="7.01703">
        <ele>342.5</ele>
        <time>2021-09-20T07:50:30Z</time>
      </trkpt>
      <trkpt lat="43.86674" lon="7.0171">
        <ele>342.4</ele>
        <time>2021-09-20T07:50:32Z</time>
      </trkpt>
      <trkpt lat="43.86678" lon="7.01714">
        <ele>342.4</ele>
        <time>2021-09-20T07:50:34Z</time>
      </trkpt>
      <trkpt lat="43.8668" lon="7.01711">
        <ele>342.4</ele>
        <time>2021-09-20T07:50:36Z</time>
      </trkpt>
      <trkpt lat="43.86685" lon="7.01702">
        <ele>342.3</ele>
        <time>2021-09-20T07:50:38Z</time>
      </trkpt>
      <trkpt lat="43.86686" lon="7.01694">
        <ele>342.3</ele>
        <time>2021-09-20T07:50:39Z</time>
      </trkpt>
      <trkpt lat="43.86685" lon="7.01686">
        <ele>342.2</ele>
        <time>2021-09-20T07:50:40Z</time>
      </trkpt>
      <trkpt lat="43.86685" lon="7.0168">
        <ele>342.2</ele>
        <time>2021-09-20T07:50:42Z</time>
      </trkpt>
      <trkpt lat="43.86687" lon="7.01657">
        <ele>341.9</ele>
        <time>2021-09-20T07:50:43Z</time>
      </trkpt>
      <trkpt lat="43.86686" lon="7.01645">
        <ele>341.8</ele>
        <time>2021-09-20T07:50:44Z</time>
      </trkpt>
      <trkpt lat="43.86686" lon="7.01622">
        <ele>341.6</ele>
        <time>2021-09-20T07:50:46Z</time>
      </trkpt>
      <trkpt lat="43.86686" lon="7.01605">
        <ele>341.5</ele>
        <time>2021-09-20T07:50:48Z</time>
      </trkpt>
      <trkpt lat="43.86687" lon="7.01597">
        <ele>341.4</ele>
        <time>2021-09-20T07:50:49Z</time>
      </trkpt>
      <trkpt lat="43.86688" lon="7.01588">
        <ele>341.4</ele>
        <time>2021-09-20T07:50:50Z</time>
      </trkpt>
      <trkpt lat="43.86693" lon="7.01575">
        <ele>341.4</ele>
        <time>2021-09-20T07:50:52Z</time>
      </trkpt>
      <trkpt lat="43.86696" lon="7.01568">
        <ele>341.3</ele>
        <time>2021-09-20T07:50:53Z</time>
      </trkpt>
      <trkpt lat="43.867" lon="7.0156">
        <ele>341.3</ele>
        <time>2021-09-20T07:50:54Z</time>
      </trkpt>
      <trkpt lat="43.86703" lon="7.01554">
        <ele>341.3</ele>
        <time>2021-09-20T07:50:55Z</time>
      </trkpt>
      <trkpt lat="43.86711" lon="7.01541">
        <ele>341.2</ele>
        <time>2021-09-20T07:50:57Z</time>
      </trkpt>
      <trkpt lat="43.86716" lon="7.01535">
        <ele>341.1</ele>
        <time>2021-09-20T07:50:58Z</time>
      </trkpt>
      <trkpt lat="43.86722" lon="7.0153">
        <ele>341</ele>
        <time>2021-09-20T07:50:59Z</time>
      </trkpt>
      <trkpt lat="43.86733" lon="7.01521">
        <ele>340.8</ele>
        <time>2021-09-20T07:51:01Z</time>
      </trkpt>
      <trkpt lat="43.86742" lon="7.0151">
        <ele>340.7</ele>
        <time>2021-09-20T07:51:03Z</time>
      </trkpt>
      <trkpt lat="43.86746" lon="7.01503">
        <ele>340.6</ele>
        <time>2021-09-20T07:51:04Z</time>
      </trkpt>
      <trkpt lat="43.86748" lon="7.01495">
        <ele>340.6</ele>
        <time>2021-09-20T07:51:05Z</time>
      </trkpt>
      <trkpt lat="43.86751" lon="7.01477">
        <ele>340.5</ele>
        <time>2021-09-20T07:51:07Z</time>
      </trkpt>
      <trkpt lat="43.86753" lon="7.0146">
        <ele>340.4</ele>
        <time>2021-09-20T07:51:09Z</time>
      </trkpt>
      <trkpt lat="43.86757" lon="7.01443">
        <ele>340.4</ele>
        <time>2021-09-20T07:51:11Z</time>
      </trkpt>
      <trkpt lat="43.86763" lon="7.01429">
        <ele>340.4</ele>
        <time>2021-09-20T07:51:13Z</time>
      </trkpt>
      <trkpt lat="43.86767" lon="7.01422">
        <ele>340.3</ele>
        <time>2021-09-20T07:51:14Z</time>
      </trkpt>
      <trkpt lat="43.86777" lon="7.01414">
        <ele>340.2</ele>
        <time>2021-09-20T07:51:16Z</time>
      </trkpt>
      <trkpt lat="43.86782" lon="7.0141">
        <ele>340.1</ele>
        <time>2021-09-20T07:51:17Z</time>
      </trkpt>
      <trkpt lat="43.86787" lon="7.01405">
        <ele>340.1</ele>
        <time>2021-09-20T07:51:18Z</time>
      </trkpt>
      <trkpt lat="43.86798" lon="7.01398">
        <ele>339.9</ele>
        <time>2021-09-20T07:51:20Z</time>
      </trkpt>
      <trkpt lat="43.86803" lon="7.01396">
        <ele>339.8</ele>
        <time>2021-09-20T07:51:21Z</time>
      </trkpt>
      <trkpt lat="43.86814" lon="7.01395">
        <ele>339.7</ele>
        <time>2021-09-20T07:51:23Z</time>
      </trkpt>
      <trkpt lat="43.86825" lon="7.01397">
        <ele>339.5</ele>
        <time>2021-09-20T07:51:25Z</time>
      </trkpt>
      <trkpt lat="43.86835" lon="7.01397">
        <ele>339.4</ele>
        <time>2021-09-20T07:51:27Z</time>
      </trkpt>
      <trkpt lat="43.86845" lon="7.01393">
        <ele>339.3</ele>
        <time>2021-09-20T07:51:29Z</time>
      </trkpt>
      <trkpt lat="43.86852" lon="7.01386">
        <ele>339.2</ele>
        <time>2021-09-20T07:51:31Z</time>
      </trkpt>
      <trkpt lat="43.86854" lon="7.01381">
        <ele>339.2</ele>
        <time>2021-09-20T07:51:32Z</time>
      </trkpt>
      <trkpt lat="43.8686" lon="7.01368">
        <ele>339</ele>
        <time>2021-09-20T07:51:34Z</time>
      </trkpt>
      <trkpt lat="43.86862" lon="7.01346">
        <ele>338.8</ele>
        <time>2021-09-20T07:51:36Z</time>
      </trkpt>
      <trkpt lat="43.86861" lon="7.01335">
        <ele>338.7</ele>
        <time>2021-09-20T07:51:37Z</time>
      </trkpt>
      <trkpt lat="43.86861" lon="7.01326">
        <ele>338.6</ele>
        <time>2021-09-20T07:51:38Z</time>
      </trkpt>
      <trkpt lat="43.86862" lon="7.01313">
        <ele>338.5</ele>
        <time>2021-09-20T07:51:40Z</time>
      </trkpt>
      <trkpt lat="43.86865" lon="7.01301">
        <ele>338.3</ele>
        <time>2021-09-20T07:51:42Z</time>
      </trkpt>
      <trkpt lat="43.86869" lon="7.01289">
        <ele>338.2</ele>
        <time>2021-09-20T07:51:44Z</time>
      </trkpt>
      <trkpt lat="43.86874" lon="7.01275">
        <ele>338</ele>
        <time>2021-09-20T07:51:46Z</time>
      </trkpt>
      <trkpt lat="43.86878" lon="7.01265">
        <ele>337.9</ele>
        <time>2021-09-20T07:51:47Z</time>
      </trkpt>
      <trkpt lat="43.86886" lon="7.01249">
        <ele>337.7</ele>
        <time>2021-09-20T07:51:49Z</time>
      </trkpt>
      <trkpt lat="43.86891" lon="7.01235">
        <ele>337.5</ele>
        <time>2021-09-20T07:51:51Z</time>
      </trkpt>
      <trkpt lat="43.86893" lon="7.01228">
        <ele>337.4</ele>
        <time>2021-09-20T07:51:52Z</time>
      </trkpt>
      <trkpt lat="43.86899" lon="7.01216">
        <ele>337.3</ele>
        <time>2021-09-20T07:51:54Z</time>
      </trkpt>
      <trkpt lat="43.86903" lon="7.0121">
        <ele>337.3</ele>
        <time>2021-09-20T07:51:55Z</time>
      </trkpt>
      <trkpt lat="43.86907" lon="7.01204">
        <ele>337.2</ele>
        <time>2021-09-20T07:51:56Z</time>
      </trkpt>
      <trkpt lat="43.8691" lon="7.01198">
        <ele>337.1</ele>
        <time>2021-09-20T07:51:57Z</time>
      </trkpt>
      <trkpt lat="43.86916" lon="7.01187">
        <ele>337</ele>
        <time>2021-09-20T07:51:59Z</time>
      </trkpt>
      <trkpt lat="43.86918" lon="7.0118">
        <ele>337</ele>
        <time>2021-09-20T07:52:00Z</time>
      </trkpt>
      <trkpt lat="43.86924" lon="7.01164">
        <ele>336.8</ele>
        <time>2021-09-20T07:52:02Z</time>
      </trkpt>
      <trkpt lat="43.8693" lon="7.01148">
        <ele>336.7</ele>
        <time>2021-09-20T07:52:04Z</time>
      </trkpt>
      <trkpt lat="43.86934" lon="7.0114">
        <ele>336.6</ele>
        <time>2021-09-20T07:52:05Z</time>
      </trkpt>
      <trkpt lat="43.86938" lon="7.01133">
        <ele>336.5</ele>
        <time>2021-09-20T07:52:06Z</time>
      </trkpt>
      <trkpt lat="43.86945" lon="7.01117">
        <ele>336.4</ele>
        <time>2021-09-20T07:52:08Z</time>
      </trkpt>
      <trkpt lat="43.8695" lon="7.01101">
        <ele>336.2</ele>
        <time>2021-09-20T07:52:10Z</time>
      </trkpt>
      <trkpt lat="43.86953" lon="7.01094">
        <ele>336.1</ele>
        <time>2021-09-20T07:52:11Z</time>
      </trkpt>
      <trkpt lat="43.8696" lon="7.0108">
        <ele>336</ele>
        <time>2021-09-20T07:52:13Z</time>
      </trkpt>
      <trkpt lat="43.86966" lon="7.01068">
        <ele>335.9</ele>
        <time>2021-09-20T07:52:15Z</time>
      </trkpt>
      <trkpt lat="43.86968" lon="7.01062">
        <ele>335.9</ele>
        <time>2021-09-20T07:52:16Z</time>
      </trkpt>
      <trkpt lat="43.86972" lon="7.01052">
        <ele>335.8</ele>
        <time>2021-09-20T07:52:18Z</time>
      </trkpt>
      <trkpt lat="43.86975" lon="7.01045">
        <ele>335.8</ele>
        <time>2021-09-20T07:52:19Z</time>
      </trkpt>
      <trkpt lat="43.86978" lon="7.01038">
        <ele>335.8</ele>
        <time>2021-09-20T07:52:20Z</time>
      </trkpt>
      <trkpt lat="43.86985" lon="7.01026">
        <ele>335.6</ele>
        <time>2021-09-20T07:52:22Z</time>
      </trkpt>
      <trkpt lat="43.86989" lon="7.01019">
        <ele>335.5</ele>
        <time>2021-09-20T07:52:23Z</time>
      </trkpt>
      <trkpt lat="43.86997" lon="7.01007">
        <ele>335.3</ele>
        <time>2021-09-20T07:52:25Z</time>
      </trkpt>
      <trkpt lat="43.87001" lon="7.01001">
        <ele>335.2</ele>
        <time>2021-09-20T07:52:26Z</time>
      </trkpt>
      <trkpt lat="43.8701" lon="7.00987">
        <ele>335</ele>
        <time>2021-09-20T07:52:28Z</time>
      </trkpt>
      <trkpt lat="43.87015" lon="7.00975">
        <ele>334.8</ele>
        <time>2021-09-20T07:52:30Z</time>
      </trkpt>
      <trkpt lat="43.87018" lon="7.00969">
        <ele>334.7</ele>
        <time>2021-09-20T07:52:31Z</time>
      </trkpt>
      <trkpt lat="43.8702" lon="7.00961">
        <ele>334.6</ele>
        <time>2021-09-20T07:52:32Z</time>
      </trkpt>
      <trkpt lat="43.87022" lon="7.00954">
        <ele>334.5</ele>
        <time>2021-09-20T07:52:33Z</time>
      </trkpt>
      <trkpt lat="43.87024" lon="7.00943">
        <ele>334.3</ele>
        <time>2021-09-20T07:52:35Z</time>
      </trkpt>
      <trkpt lat="43.87025" lon="7.00937">
        <ele>334.3</ele>
        <time>2021-09-20T07:52:36Z</time>
      </trkpt>
      <trkpt lat="43.87025" lon="7.00927">
        <ele>334.1</ele>
        <time>2021-09-20T07:52:38Z</time>
      </trkpt>
      <trkpt lat="43.87024" lon="7.00923">
        <ele>334.1</ele>
        <time>2021-09-20T07:52:39Z</time>
      </trkpt>
      <trkpt lat="43.87024" lon="7.00913">
        <ele>334</ele>
        <time>2021-09-20T07:52:41Z</time>
      </trkpt>
      <trkpt lat="43.87025" lon="7.00899">
        <ele>333.9</ele>
        <time>2021-09-20T07:52:43Z</time>
      </trkpt>
      <trkpt lat="43.87027" lon="7.00885">
        <ele>333.8</ele>
        <time>2021-09-20T07:52:45Z</time>
      </trkpt>
      <trkpt lat="43.87032" lon="7.00869">
        <ele>333.6</ele>
        <time>2021-09-20T07:52:47Z</time>
      </trkpt>
      <trkpt lat="43.87036" lon="7.00856">
        <ele>333.4</ele>
        <time>2021-09-20T07:52:49Z</time>
      </trkpt>
      <trkpt lat="43.87038" lon="7.00849">
        <ele>333.4</ele>
        <time>2021-09-20T07:52:50Z</time>
      </trkpt>
      <trkpt lat="43.87042" lon="7.00835">
        <ele>333.3</ele>
        <time>2021-09-20T07:52:52Z</time>
      </trkpt>
      <trkpt lat="43.87043" lon="7.00828">
        <ele>333.2</ele>
        <time>2021-09-20T07:52:53Z</time>
      </trkpt>
      <trkpt lat="43.87046" lon="7.00813">
        <ele>333.2</ele>
        <time>2021-09-20T07:52:55Z</time>
      </trkpt>
      <trkpt lat="43.87051" lon="7.00799">
        <ele>333</ele>
        <time>2021-09-20T07:52:57Z</time>
      </trkpt>
      <trkpt lat="43.87056" lon="7.00786">
        <ele>332.9</ele>
        <time>2021-09-20T07:52:59Z</time>
      </trkpt>
      <trkpt lat="43.87063" lon="7.00772">
        <ele>332.8</ele>
        <time>2021-09-20T07:53:01Z</time>
      </trkpt>
      <trkpt lat="43.87067" lon="7.00764">
        <ele>332.7</ele>
        <time>2021-09-20T07:53:02Z</time>
      </trkpt>
      <trkpt lat="43.87071" lon="7.00757">
        <ele>332.6</ele>
        <time>2021-09-20T07:53:03Z</time>
      </trkpt>
      <trkpt lat="43.87078" lon="7.00743">
        <ele>332.5</ele>
        <time>2021-09-20T07:53:05Z</time>
      </trkpt>
      <trkpt lat="43.87086" lon="7.00729">
        <ele>332.3</ele>
        <time>2021-09-20T07:53:07Z</time>
      </trkpt>
      <trkpt lat="43.8709" lon="7.00723">
        <ele>332.3</ele>
        <time>2021-09-20T07:53:08Z</time>
      </trkpt>
      <trkpt lat="43.87097" lon="7.0071">
        <ele>332.1</ele>
        <time>2021-09-20T07:53:10Z</time>
      </trkpt>
      <trkpt lat="43.87104" lon="7.00697">
        <ele>332</ele>
        <time>2021-09-20T07:53:12Z</time>
      </trkpt>
      <trkpt lat="43.87108" lon="7.00691">
        <ele>332</ele>
        <time>2021-09-20T07:53:13Z</time>
      </trkpt>
      <trkpt lat="43.87115" lon="7.00679">
        <ele>331.9</ele>
        <time>2021-09-20T07:53:15Z</time>
      </trkpt>
      <trkpt lat="43.87119" lon="7.00675">
        <ele>331.9</ele>
        <time>2021-09-20T07:53:16Z</time>
      </trkpt>
      <trkpt lat="43.87127" lon="7.00665">
        <ele>331.8</ele>
        <time>2021-09-20T07:53:18Z</time>
      </trkpt>
      <trkpt lat="43.8713" lon="7.00662">
        <ele>331.8</ele>
        <time>2021-09-20T07:53:19Z</time>
      </trkpt>
      <trkpt lat="43.87134" lon="7.00659">
        <ele>331.7</ele>
        <time>2021-09-20T07:53:20Z</time>
      </trkpt>
      <trkpt lat="43.87142" lon="7.00655">
        <ele>331.6</ele>
        <time>2021-09-20T07:53:22Z</time>
      </trkpt>
      <trkpt lat="43.87147" lon="7.00652">
        <ele>331.6</ele>
        <time>2021-09-20T07:53:23Z</time>
      </trkpt>
      <trkpt lat="43.87156" lon="7.00651">
        <ele>331.4</ele>
        <time>2021-09-20T07:53:25Z</time>
      </trkpt>
      <trkpt lat="43.8716" lon="7.00652">
        <ele>331.4</ele>
        <time>2021-09-20T07:53:26Z</time>
      </trkpt>
      <trkpt lat="43.87163" lon="7.00653">
        <ele>331.3</ele>
        <time>2021-09-20T07:53:27Z</time>
      </trkpt>
      <trkpt lat="43.87174" lon="7.00655">
        <ele>331.2</ele>
        <time>2021-09-20T07:53:29Z</time>
      </trkpt>
      <trkpt lat="43.87179" lon="7.00657">
        <ele>331.1</ele>
        <time>2021-09-20T07:53:30Z</time>
      </trkpt>
      <trkpt lat="43.87184" lon="7.00658">
        <ele>331</ele>
        <time>2021-09-20T07:53:31Z</time>
      </trkpt>
      <trkpt lat="43.87191" lon="7.00658">
        <ele>330.1</ele>
        <time>2021-09-20T07:53:33Z</time>
      </trkpt>
      <trkpt lat="43.87194" lon="7.00657">
        <ele>329.9</ele>
        <time>2021-09-20T07:53:34Z</time>
      </trkpt>
      <trkpt lat="43.87197" lon="7.00653">
        <ele>329.5</ele>
        <time>2021-09-20T07:53:36Z</time>
      </trkpt>
      <trkpt lat="43.87197" lon="7.00653">
        <ele>329.5</ele>
        <time>2021-09-20T07:53:37Z</time>
      </trkpt>
      <trkpt lat="43.87197" lon="7.00653">
        <ele>329.5</ele>
        <time>2021-09-20T07:53:38Z</time>
      </trkpt>
      <trkpt lat="43.87197" lon="7.00652">
        <ele>329.4</ele>
        <time>2021-09-20T07:53:40Z</time>
      </trkpt>
      <trkpt lat="43.87197" lon="7.00652">
        <ele>329.4</ele>
        <time>2021-09-20T07:53:41Z</time>
      </trkpt>
      <trkpt lat="43.87198" lon="7.00652">
        <ele>329.4</ele>
        <time>2021-09-20T07:53:42Z</time>
      </trkpt>
      <trkpt lat="43.87198" lon="7.00652">
        <ele>329.4</ele>
        <time>2021-09-20T07:53:44Z</time>
      </trkpt>
      <trkpt lat="43.87191" lon="7.006">
        <ele>325</ele>
        <time>2021-09-20T07:55:14Z</time>
      </trkpt>
      <trkpt lat="43.87193" lon="7.00595">
        <ele>325</ele>
        <time>2021-09-20T07:55:15Z</time>
      </trkpt>
      <trkpt lat="43.87194" lon="7.00591">
        <ele>325</ele>
        <time>2021-09-20T07:55:17Z</time>
      </trkpt>
      <trkpt lat="43.87195" lon="7.0059">
        <ele>325</ele>
        <time>2021-09-20T07:55:18Z</time>
      </trkpt>
      <trkpt lat="43.87196" lon="7.00584">
        <ele>325</ele>
        <time>2021-09-20T07:55:20Z</time>
      </trkpt>
      <trkpt lat="43.87197" lon="7.00582">
        <ele>325.1</ele>
        <time>2021-09-20T07:55:21Z</time>
      </trkpt>
      <trkpt lat="43.87198" lon="7.00581">
        <ele>325.1</ele>
        <time>2021-09-20T07:55:22Z</time>
      </trkpt>
      <trkpt lat="43.872" lon="7.00576">
        <ele>325.1</ele>
        <time>2021-09-20T07:55:24Z</time>
      </trkpt>
      <trkpt lat="43.87201" lon="7.00575">
        <ele>325.1</ele>
        <time>2021-09-20T07:55:25Z</time>
      </trkpt>
      <trkpt lat="43.87201" lon="7.00573">
        <ele>325.1</ele>
        <time>2021-09-20T07:55:26Z</time>
      </trkpt>
      <trkpt lat="43.87202" lon="7.00571">
        <ele>325.1</ele>
        <time>2021-09-20T07:55:27Z</time>
      </trkpt>
      <trkpt lat="43.87202" lon="7.00569">
        <ele>325.1</ele>
        <time>2021-09-20T07:55:28Z</time>
      </trkpt>
      <trkpt lat="43.87202" lon="7.00568">
        <ele>325.1</ele>
        <time>2021-09-20T07:55:30Z</time>
      </trkpt>
      <trkpt lat="43.87202" lon="7.00568">
        <ele>325.1</ele>
        <time>2021-09-20T07:55:31Z</time>
      </trkpt>
      <trkpt lat="43.87202" lon="7.00567">
        <ele>325.1</ele>
        <time>2021-09-20T07:55:33Z</time>
      </trkpt>
      <trkpt lat="43.87202" lon="7.00567">
        <ele>325.1</ele>
        <time>2021-09-20T07:55:34Z</time>
      </trkpt>
      <trkpt lat="43.87203" lon="7.00567">
        <ele>325.1</ele>
        <time>2021-09-20T07:55:35Z</time>
      </trkpt>
      <trkpt lat="43.87203" lon="7.00567">
        <ele>325.1</ele>
        <time>2021-09-20T07:55:37Z</time>
      </trkpt>
      <trkpt lat="43.87203" lon="7.00566">
        <ele>325.1</ele>
        <time>2021-09-20T07:55:38Z</time>
      </trkpt>
      <trkpt lat="43.87202" lon="7.00566">
        <ele>325.1</ele>
        <time>2021-09-20T07:55:40Z</time>
      </trkpt>
      <trkpt lat="43.87201" lon="7.00565">
        <ele>325.1</ele>
        <time>2021-09-20T07:55:41Z</time>
      </trkpt>
      <trkpt lat="43.872" lon="7.00564">
        <ele>325.1</ele>
        <time>2021-09-20T07:55:42Z</time>
      </trkpt>
      <trkpt lat="43.87198" lon="7.00563">
        <ele>325.1</ele>
        <time>2021-09-20T07:55:44Z</time>
      </trkpt>
      <trkpt lat="43.87194" lon="7.00562">
        <ele>325.1</ele>
        <time>2021-09-20T07:55:46Z</time>
      </trkpt>
      <trkpt lat="43.8719" lon="7.0056">
        <ele>325.1</ele>
        <time>2021-09-20T07:55:48Z</time>
      </trkpt>
      <trkpt lat="43.87185" lon="7.0056">
        <ele>325.1</ele>
        <time>2021-09-20T07:55:50Z</time>
      </trkpt>
      <trkpt lat="43.8718" lon="7.00559">
        <ele>325.1</ele>
        <time>2021-09-20T07:55:51Z</time>
      </trkpt>
      <trkpt lat="43.87175" lon="7.00559">
        <ele>325.1</ele>
        <time>2021-09-20T07:55:53Z</time>
      </trkpt>
      <trkpt lat="43.87171" lon="7.00557">
        <ele>325.1</ele>
        <time>2021-09-20T07:55:54Z</time>
      </trkpt>
      <trkpt lat="43.87164" lon="7.00552">
        <ele>325.2</ele>
        <time>2021-09-20T07:55:56Z</time>
      </trkpt>
      <trkpt lat="43.87162" lon="7.0055">
        <ele>325.2</ele>
        <time>2021-09-20T07:55:57Z</time>
      </trkpt>
      <trkpt lat="43.87158" lon="7.00545">
        <ele>325.3</ele>
        <time>2021-09-20T07:55:59Z</time>
      </trkpt>
      <trkpt lat="43.87155" lon="7.00542">
        <ele>325.4</ele>
        <time>2021-09-20T07:56:00Z</time>
      </trkpt>
      <trkpt lat="43.87152" lon="7.00539">
        <ele>325.5</ele>
        <time>2021-09-20T07:56:01Z</time>
      </trkpt>
      <trkpt lat="43.87148" lon="7.00537">
        <ele>325.7</ele>
        <time>2021-09-20T07:56:03Z</time>
      </trkpt>
      <trkpt lat="43.87146" lon="7.00536">
        <ele>325.8</ele>
        <time>2021-09-20T07:56:04Z</time>
      </trkpt>
      <trkpt lat="43.87145" lon="7.00531">
        <ele>325.9</ele>
        <time>2021-09-20T07:56:06Z</time>
      </trkpt>
      <trkpt lat="43.87143" lon="7.00527">
        <ele>326.1</ele>
        <time>2021-09-20T07:56:07Z</time>
      </trkpt>
      <trkpt lat="43.87142" lon="7.00525">
        <ele>326.1</ele>
        <time>2021-09-20T07:56:08Z</time>
      </trkpt>
      <trkpt lat="43.87138" lon="7.00522">
        <ele>326.3</ele>
        <time>2021-09-20T07:56:10Z</time>
      </trkpt>
      <trkpt lat="43.87134" lon="7.00521">
        <ele>326.5</ele>
        <time>2021-09-20T07:56:11Z</time>
      </trkpt>
      <trkpt lat="43.87133" lon="7.00521">
        <ele>326.5</ele>
        <time>2021-09-20T07:56:12Z</time>
      </trkpt>
      <trkpt lat="43.87127" lon="7.00519">
        <ele>326.9</ele>
        <time>2021-09-20T07:56:14Z</time>
      </trkpt>
      <trkpt lat="43.87123" lon="7.00514">
        <ele>327.1</ele>
        <time>2021-09-20T07:56:16Z</time>
      </trkpt>
      <trkpt lat="43.8712" lon="7.00509">
        <ele>327.3</ele>
        <time>2021-09-20T07:56:18Z</time>
      </trkpt>
      <trkpt lat="43.87118" lon="7.00506">
        <ele>327.5</ele>
        <time>2021-09-20T07:56:19Z</time>
      </trkpt>
      <trkpt lat="43.87117" lon="7.00503">
        <ele>327.6</ele>
        <time>2021-09-20T07:56:20Z</time>
      </trkpt>
      <trkpt lat="43.87115" lon="7.00499">
        <ele>327.8</ele>
        <time>2021-09-20T07:56:22Z</time>
      </trkpt>
      <trkpt lat="43.87112" lon="7.00497">
        <ele>327.9</ele>
        <time>2021-09-20T07:56:23Z</time>
      </trkpt>
      <trkpt lat="43.87109" lon="7.00496">
        <ele>328</ele>
        <time>2021-09-20T07:56:25Z</time>
      </trkpt>
      <trkpt lat="43.87105" lon="7.00495">
        <ele>328.2</ele>
        <time>2021-09-20T07:56:26Z</time>
      </trkpt>
      <trkpt lat="43.87101" lon="7.00494">
        <ele>328.4</ele>
        <time>2021-09-20T07:56:27Z</time>
      </trkpt>
      <trkpt lat="43.87099" lon="7.00492">
        <ele>328.5</ele>
        <time>2021-09-20T07:56:28Z</time>
      </trkpt>
      <trkpt lat="43.87095" lon="7.00487">
        <ele>328.8</ele>
        <time>2021-09-20T07:56:30Z</time>
      </trkpt>
      <trkpt lat="43.87089" lon="7.00479">
        <ele>329.2</ele>
        <time>2021-09-20T07:56:32Z</time>
      </trkpt>
      <trkpt lat="43.87083" lon="7.00475">
        <ele>329.5</ele>
        <time>2021-09-20T07:56:33Z</time>
      </trkpt>
      <trkpt lat="43.87079" lon="7.00472">
        <ele>329.7</ele>
        <time>2021-09-20T07:56:35Z</time>
      </trkpt>
      <trkpt lat="43.87076" lon="7.0047">
        <ele>329.9</ele>
        <time>2021-09-20T07:56:36Z</time>
      </trkpt>
      <trkpt lat="43.87072" lon="7.00466">
        <ele>330.1</ele>
        <time>2021-09-20T07:56:38Z</time>
      </trkpt>
      <trkpt lat="43.87071" lon="7.00463">
        <ele>330.2</ele>
        <time>2021-09-20T07:56:39Z</time>
      </trkpt>
      <trkpt lat="43.87071" lon="7.00459">
        <ele>330.4</ele>
        <time>2021-09-20T07:56:41Z</time>
      </trkpt>
      <trkpt lat="43.8707" lon="7.00456">
        <ele>330.5</ele>
        <time>2021-09-20T07:56:42Z</time>
      </trkpt>
      <trkpt lat="43.87069" lon="7.00454">
        <ele>330.5</ele>
        <time>2021-09-20T07:56:43Z</time>
      </trkpt>
      <trkpt lat="43.87068" lon="7.00453">
        <ele>330.6</ele>
        <time>2021-09-20T07:56:44Z</time>
      </trkpt>
      <trkpt lat="43.87068" lon="7.0045">
        <ele>330.7</ele>
        <time>2021-09-20T07:56:46Z</time>
      </trkpt>
      <trkpt lat="43.87069" lon="7.0045">
        <ele>330.8</ele>
        <time>2021-09-20T07:56:47Z</time>
      </trkpt>
      <trkpt lat="43.87068" lon="7.00449">
        <ele>330.8</ele>
        <time>2021-09-20T07:56:49Z</time>
      </trkpt>
      <trkpt lat="43.87067" lon="7.00448">
        <ele>330.9</ele>
        <time>2021-09-20T07:56:50Z</time>
      </trkpt>
      <trkpt lat="43.87065" lon="7.00446">
        <ele>331</ele>
        <time>2021-09-20T07:56:51Z</time>
      </trkpt>
      <trkpt lat="43.87062" lon="7.00446">
        <ele>331.1</ele>
        <time>2021-09-20T07:56:52Z</time>
      </trkpt>
      <trkpt lat="43.87061" lon="7.00446">
        <ele>331.2</ele>
        <time>2021-09-20T07:56:53Z</time>
      </trkpt>
      <trkpt lat="43.87058" lon="7.00445">
        <ele>331.4</ele>
        <time>2021-09-20T07:56:54Z</time>
      </trkpt>
      <trkpt lat="43.87057" lon="7.00444">
        <ele>331.4</ele>
        <time>2021-09-20T07:56:55Z</time>
      </trkpt>
      <trkpt lat="43.87054" lon="7.00441">
        <ele>331.6</ele>
        <time>2021-09-20T07:56:56Z</time>
      </trkpt>
      <trkpt lat="43.87051" lon="7.00438">
        <ele>331.8</ele>
        <time>2021-09-20T07:56:58Z</time>
      </trkpt>
      <trkpt lat="43.87048" lon="7.00435">
        <ele>331.9</ele>
        <time>2021-09-20T07:56:59Z</time>
      </trkpt>
      <trkpt lat="43.87047" lon="7.00434">
        <ele>332</ele>
        <time>2021-09-20T07:57:00Z</time>
      </trkpt>
      <trkpt lat="43.87044" lon="7.00432">
        <ele>332.2</ele>
        <time>2021-09-20T07:57:01Z</time>
      </trkpt>
      <trkpt lat="43.87043" lon="7.00431">
        <ele>332.2</ele>
        <time>2021-09-20T07:57:02Z</time>
      </trkpt>
      <trkpt lat="43.8704" lon="7.00428">
        <ele>332.4</ele>
        <time>2021-09-20T07:57:04Z</time>
      </trkpt>
      <trkpt lat="43.87039" lon="7.00427">
        <ele>332.4</ele>
        <time>2021-09-20T07:57:05Z</time>
      </trkpt>
      <trkpt lat="43.87036" lon="7.00425">
        <ele>332.6</ele>
        <time>2021-09-20T07:57:06Z</time>
      </trkpt>
      <trkpt lat="43.87035" lon="7.00424">
        <ele>332.6</ele>
        <time>2021-09-20T07:57:07Z</time>
      </trkpt>
      <trkpt lat="43.87032" lon="7.00421">
        <ele>332.8</ele>
        <time>2021-09-20T07:57:08Z</time>
      </trkpt>
      <trkpt lat="43.8703" lon="7.00421">
        <ele>332.9</ele>
        <time>2021-09-20T07:57:09Z</time>
      </trkpt>
      <trkpt lat="43.87028" lon="7.0042">
        <ele>333</ele>
        <time>2021-09-20T07:57:10Z</time>
      </trkpt>
      <trkpt lat="43.87026" lon="7.00419">
        <ele>333.1</ele>
        <time>2021-09-20T07:57:12Z</time>
      </trkpt>
      <trkpt lat="43.87022" lon="7.00418">
        <ele>333.3</ele>
        <time>2021-09-20T07:57:13Z</time>
      </trkpt>
      <trkpt lat="43.87021" lon="7.00417">
        <ele>333.4</ele>
        <time>2021-09-20T07:57:14Z</time>
      </trkpt>
      <trkpt lat="43.8702" lon="7.00416">
        <ele>333.4</ele>
        <time>2021-09-20T07:57:15Z</time>
      </trkpt>
      <trkpt lat="43.87019" lon="7.00414">
        <ele>333.5</ele>
        <time>2021-09-20T07:57:16Z</time>
      </trkpt>
      <trkpt lat="43.87016" lon="7.00412">
        <ele>333.6</ele>
        <time>2021-09-20T07:57:17Z</time>
      </trkpt>
      <trkpt lat="43.87015" lon="7.00412">
        <ele>333.7</ele>
        <time>2021-09-20T07:57:18Z</time>
      </trkpt>
      <trkpt lat="43.87012" lon="7.0041">
        <ele>333.8</ele>
        <time>2021-09-20T07:57:20Z</time>
      </trkpt>
      <trkpt lat="43.87011" lon="7.00409">
        <ele>333.9</ele>
        <time>2021-09-20T07:57:21Z</time>
      </trkpt>
      <trkpt lat="43.87009" lon="7.00408">
        <ele>334</ele>
        <time>2021-09-20T07:57:22Z</time>
      </trkpt>
      <trkpt lat="43.87008" lon="7.00407">
        <ele>334</ele>
        <time>2021-09-20T07:57:23Z</time>
      </trkpt>
      <trkpt lat="43.87007" lon="7.00407">
        <ele>334.1</ele>
        <time>2021-09-20T07:57:24Z</time>
      </trkpt>
      <trkpt lat="43.87001" lon="7.00405">
        <ele>334.4</ele>
        <time>2021-09-20T07:57:26Z</time>
      </trkpt>
      <trkpt lat="43.86998" lon="7.00403">
        <ele>334.5</ele>
        <time>2021-09-20T07:57:27Z</time>
      </trkpt>
      <trkpt lat="43.86996" lon="7.00401">
        <ele>334.6</ele>
        <time>2021-09-20T07:57:28Z</time>
      </trkpt>
      <trkpt lat="43.86995" lon="7.004">
        <ele>334.7</ele>
        <time>2021-09-20T07:57:30Z</time>
      </trkpt>
      <trkpt lat="43.86992" lon="7.00399">
        <ele>334.8</ele>
        <time>2021-09-20T07:57:31Z</time>
      </trkpt>
      <trkpt lat="43.86988" lon="7.00398">
        <ele>335</ele>
        <time>2021-09-20T07:57:32Z</time>
      </trkpt>
      <trkpt lat="43.86986" lon="7.00398">
        <ele>335.1</ele>
        <time>2021-09-20T07:57:33Z</time>
      </trkpt>
      <trkpt lat="43.86983" lon="7.00397">
        <ele>335.3</ele>
        <time>2021-09-20T07:57:34Z</time>
      </trkpt>
      <trkpt lat="43.86979" lon="7.00397">
        <ele>335.5</ele>
        <time>2021-09-20T07:57:35Z</time>
      </trkpt>
      <trkpt lat="43.86975" lon="7.00397">
        <ele>335.6</ele>
        <time>2021-09-20T07:57:36Z</time>
      </trkpt>
      <trkpt lat="43.8697" lon="7.00398">
        <ele>335.9</ele>
        <time>2021-09-20T07:57:37Z</time>
      </trkpt>
      <trkpt lat="43.86964" lon="7.00399">
        <ele>336.1</ele>
        <time>2021-09-20T07:57:39Z</time>
      </trkpt>
      <trkpt lat="43.86962" lon="7.00401">
        <ele>336.2</ele>
        <time>2021-09-20T07:57:40Z</time>
      </trkpt>
      <trkpt lat="43.86957" lon="7.00404">
        <ele>336.5</ele>
        <time>2021-09-20T07:57:42Z</time>
      </trkpt>
      <trkpt lat="43.86956" lon="7.00406">
        <ele>336.6</ele>
        <time>2021-09-20T07:57:43Z</time>
      </trkpt>
      <trkpt lat="43.86952" lon="7.0041">
        <ele>336.8</ele>
        <time>2021-09-20T07:57:45Z</time>
      </trkpt>
      <trkpt lat="43.86946" lon="7.00414">
        <ele>337</ele>
        <time>2021-09-20T07:57:47Z</time>
      </trkpt>
      <trkpt lat="43.86943" lon="7.00416">
        <ele>337.2</ele>
        <time>2021-09-20T07:57:48Z</time>
      </trkpt>
      <trkpt lat="43.8694" lon="7.00418">
        <ele>337.3</ele>
        <time>2021-09-20T07:57:49Z</time>
      </trkpt>
      <trkpt lat="43.86937" lon="7.00419">
        <ele>337.5</ele>
        <time>2021-09-20T07:57:50Z</time>
      </trkpt>
      <trkpt lat="43.86935" lon="7.00421">
        <ele>337.6</ele>
        <time>2021-09-20T07:57:51Z</time>
      </trkpt>
      <trkpt lat="43.86931" lon="7.00422">
        <ele>337.8</ele>
        <time>2021-09-20T07:57:52Z</time>
      </trkpt>
      <trkpt lat="43.86927" lon="7.00424">
        <ele>338</ele>
        <time>2021-09-20T07:57:53Z</time>
      </trkpt>
      <trkpt lat="43.86922" lon="7.00426">
        <ele>338.3</ele>
        <time>2021-09-20T07:57:55Z</time>
      </trkpt>
      <trkpt lat="43.86919" lon="7.00426">
        <ele>338.5</ele>
        <time>2021-09-20T07:57:56Z</time>
      </trkpt>
      <trkpt lat="43.86916" lon="7.00428">
        <ele>338.7</ele>
        <time>2021-09-20T07:57:57Z</time>
      </trkpt>
      <trkpt lat="43.86915" lon="7.00429">
        <ele>338.7</ele>
        <time>2021-09-20T07:57:58Z</time>
      </trkpt>
      <trkpt lat="43.86912" lon="7.00431">
        <ele>338.9</ele>
        <time>2021-09-20T07:57:59Z</time>
      </trkpt>
      <trkpt lat="43.86911" lon="7.00431">
        <ele>339</ele>
        <time>2021-09-20T07:58:00Z</time>
      </trkpt>
      <trkpt lat="43.86908" lon="7.00432">
        <ele>339.1</ele>
        <time>2021-09-20T07:58:01Z</time>
      </trkpt>
      <trkpt lat="43.86906" lon="7.00432">
        <ele>339.2</ele>
        <time>2021-09-20T07:58:02Z</time>
      </trkpt>
      <trkpt lat="43.86904" lon="7.00432">
        <ele>339.3</ele>
        <time>2021-09-20T07:58:03Z</time>
      </trkpt>
      <trkpt lat="43.86902" lon="7.00431">
        <ele>339.4</ele>
        <time>2021-09-20T07:58:05Z</time>
      </trkpt>
      <trkpt lat="43.86899" lon="7.0043">
        <ele>339.6</ele>
        <time>2021-09-20T07:58:06Z</time>
      </trkpt>
      <trkpt lat="43.86898" lon="7.00429">
        <ele>339.7</ele>
        <time>2021-09-20T07:58:07Z</time>
      </trkpt>
      <trkpt lat="43.86895" lon="7.00427">
        <ele>339.8</ele>
        <time>2021-09-20T07:58:08Z</time>
      </trkpt>
      <trkpt lat="43.86892" lon="7.00426">
        <ele>339.9</ele>
        <time>2021-09-20T07:58:10Z</time>
      </trkpt>
      <trkpt lat="43.86889" lon="7.00425">
        <ele>340.1</ele>
        <time>2021-09-20T07:58:11Z</time>
      </trkpt>
      <trkpt lat="43.86888" lon="7.00425">
        <ele>340.2</ele>
        <time>2021-09-20T07:58:12Z</time>
      </trkpt>
      <trkpt lat="43.86884" lon="7.00422">
        <ele>340.4</ele>
        <time>2021-09-20T07:58:14Z</time>
      </trkpt>
      <trkpt lat="43.86881" lon="7.00421">
        <ele>340.5</ele>
        <time>2021-09-20T07:58:15Z</time>
      </trkpt>
      <trkpt lat="43.8688" lon="7.0042">
        <ele>340.6</ele>
        <time>2021-09-20T07:58:16Z</time>
      </trkpt>
      <trkpt lat="43.86877" lon="7.0042">
        <ele>340.8</ele>
        <time>2021-09-20T07:58:17Z</time>
      </trkpt>
      <trkpt lat="43.86874" lon="7.00419">
        <ele>340.9</ele>
        <time>2021-09-20T07:58:18Z</time>
      </trkpt>
      <trkpt lat="43.86869" lon="7.00421">
        <ele>341.2</ele>
        <time>2021-09-20T07:58:19Z</time>
      </trkpt>
      <trkpt lat="43.86865" lon="7.00421">
        <ele>341.4</ele>
        <time>2021-09-20T07:58:20Z</time>
      </trkpt>
      <trkpt lat="43.86863" lon="7.00422">
        <ele>341.4</ele>
        <time>2021-09-20T07:58:22Z</time>
      </trkpt>
      <trkpt lat="43.86863" lon="7.00422">
        <ele>341.5</ele>
        <time>2021-09-20T07:58:23Z</time>
      </trkpt>
      <trkpt lat="43.86863" lon="7.00421">
        <ele>341.5</ele>
        <time>2021-09-20T07:58:24Z</time>
      </trkpt>
      <trkpt lat="43.86863" lon="7.00421">
        <ele>341.5</ele>
        <time>2021-09-20T07:58:26Z</time>
      </trkpt>
      <trkpt lat="43.86863" lon="7.00421">
        <ele>341.5</ele>
        <time>2021-09-20T07:58:27Z</time>
      </trkpt>
      <trkpt lat="43.86841" lon="7.00426">
        <ele>343.6</ele>
        <time>2021-09-20T07:58:33Z</time>
      </trkpt>
      <trkpt lat="43.86836" lon="7.00427">
        <ele>343.8</ele>
        <time>2021-09-20T07:58:34Z</time>
      </trkpt>
      <trkpt lat="43.8683" lon="7.00428">
        <ele>344.1</ele>
        <time>2021-09-20T07:58:35Z</time>
      </trkpt>
      <trkpt lat="43.86826" lon="7.00431">
        <ele>344.4</ele>
        <time>2021-09-20T07:58:36Z</time>
      </trkpt>
      <trkpt lat="43.86823" lon="7.00432">
        <ele>344.5</ele>
        <time>2021-09-20T07:58:37Z</time>
      </trkpt>
      <trkpt lat="43.86822" lon="7.00433">
        <ele>344.6</ele>
        <time>2021-09-20T07:58:39Z</time>
      </trkpt>
      <trkpt lat="43.86822" lon="7.00433">
        <ele>344.6</ele>
        <time>2021-09-20T07:58:40Z</time>
      </trkpt>
      <trkpt lat="43.86822" lon="7.00431">
        <ele>344.7</ele>
        <time>2021-09-20T07:58:41Z</time>
      </trkpt>
      <trkpt lat="43.86822" lon="7.0043">
        <ele>344.7</ele>
        <time>2021-09-20T07:58:43Z</time>
      </trkpt>
      <trkpt lat="43.8682" lon="7.00427">
        <ele>344.9</ele>
        <time>2021-09-20T07:58:45Z</time>
      </trkpt>
      <trkpt lat="43.86815" lon="7.00427">
        <ele>345.1</ele>
        <time>2021-09-20T07:58:46Z</time>
      </trkpt>
      <trkpt lat="43.86813" lon="7.00428">
        <ele>345.2</ele>
        <time>2021-09-20T07:58:47Z</time>
      </trkpt>
      <trkpt lat="43.86807" lon="7.00428">
        <ele>345.5</ele>
        <time>2021-09-20T07:58:49Z</time>
      </trkpt>
      <trkpt lat="43.86804" lon="7.00431">
        <ele>345.7</ele>
        <time>2021-09-20T07:58:50Z</time>
      </trkpt>
      <trkpt lat="43.86799" lon="7.00436">
        <ele>346</ele>
        <time>2021-09-20T07:58:52Z</time>
      </trkpt>
      <trkpt lat="43.86797" lon="7.00438">
        <ele>346.2</ele>
        <time>2021-09-20T07:58:53Z</time>
      </trkpt>
      <trkpt lat="43.86794" lon="7.00443">
        <ele>346.4</ele>
        <time>2021-09-20T07:58:55Z</time>
      </trkpt>
      <trkpt lat="43.86791" lon="7.00447">
        <ele>346.6</ele>
        <time>2021-09-20T07:58:57Z</time>
      </trkpt>
      <trkpt lat="43.8679" lon="7.00447">
        <ele>346.7</ele>
        <time>2021-09-20T07:58:58Z</time>
      </trkpt>
      <trkpt lat="43.86788" lon="7.00448">
        <ele>346.8</ele>
        <time>2021-09-20T07:58:59Z</time>
      </trkpt>
      <trkpt lat="43.86788" lon="7.00445">
        <ele>346.9</ele>
        <time>2021-09-20T07:59:01Z</time>
      </trkpt>
      <trkpt lat="43.8679" lon="7.00443">
        <ele>347</ele>
        <time>2021-09-20T07:59:03Z</time>
      </trkpt>
      <trkpt lat="43.86792" lon="7.00441">
        <ele>347.1</ele>
        <time>2021-09-20T07:59:04Z</time>
      </trkpt>
      <trkpt lat="43.86794" lon="7.0044">
        <ele>347.3</ele>
        <time>2021-09-20T07:59:05Z</time>
      </trkpt>
      <trkpt lat="43.86796" lon="7.00436">
        <ele>347.5</ele>
        <time>2021-09-20T07:59:07Z</time>
      </trkpt>
      <trkpt lat="43.86797" lon="7.00432">
        <ele>347.6</ele>
        <time>2021-09-20T07:59:08Z</time>
      </trkpt>
      <trkpt lat="43.868" lon="7.00427">
        <ele>347.9</ele>
        <time>2021-09-20T07:59:10Z</time>
      </trkpt>
      <trkpt lat="43.86803" lon="7.00425">
        <ele>348</ele>
        <time>2021-09-20T07:59:11Z</time>
      </trkpt>
      <trkpt lat="43.86805" lon="7.00423">
        <ele>348.2</ele>
        <time>2021-09-20T07:59:12Z</time>
      </trkpt>
      <trkpt lat="43.86809" lon="7.00422">
        <ele>348.4</ele>
        <time>2021-09-20T07:59:13Z</time>
      </trkpt>
      <trkpt lat="43.86815" lon="7.00422">
        <ele>348.7</ele>
        <time>2021-09-20T07:59:14Z</time>
      </trkpt>
      <trkpt lat="43.8682" lon="7.00419">
        <ele>349.1</ele>
        <time>2021-09-20T07:59:16Z</time>
      </trkpt>
      <trkpt lat="43.86824" lon="7.00415">
        <ele>349.3</ele>
        <time>2021-09-20T07:59:17Z</time>
      </trkpt>
      <trkpt lat="43.86827" lon="7.00412">
        <ele>349.5</ele>
        <time>2021-09-20T07:59:19Z</time>
      </trkpt>
      <trkpt lat="43.86828" lon="7.0041">
        <ele>349.6</ele>
        <time>2021-09-20T07:59:20Z</time>
      </trkpt>
      <trkpt lat="43.86827" lon="7.00409">
        <ele>349.7</ele>
        <time>2021-09-20T07:59:21Z</time>
      </trkpt>
      <trkpt lat="43.86826" lon="7.00411">
        <ele>349.8</ele>
        <time>2021-09-20T07:59:22Z</time>
      </trkpt>
      <trkpt lat="43.86822" lon="7.00415">
        <ele>350.1</ele>
        <time>2021-09-20T07:59:24Z</time>
      </trkpt>
      <trkpt lat="43.86821" lon="7.00416">
        <ele>350.1</ele>
        <time>2021-09-20T07:59:25Z</time>
      </trkpt>
      <trkpt lat="43.8682" lon="7.00416">
        <ele>350.2</ele>
        <time>2021-09-20T07:59:26Z</time>
      </trkpt>
      <trkpt lat="43.86819" lon="7.00416">
        <ele>350.2</ele>
        <time>2021-09-20T07:59:27Z</time>
      </trkpt>
      <trkpt lat="43.86818" lon="7.00416">
        <ele>350.3</ele>
        <time>2021-09-20T07:59:29Z</time>
      </trkpt>
      <trkpt lat="43.86818" lon="7.00415">
        <ele>350.4</ele>
        <time>2021-09-20T07:59:30Z</time>
      </trkpt>
      <trkpt lat="43.86812" lon="7.0042">
        <ele>350.8</ele>
        <time>2021-09-20T07:59:32Z</time>
      </trkpt>
      <trkpt lat="43.86806" lon="7.00427">
        <ele>351.2</ele>
        <time>2021-09-20T07:59:34Z</time>
      </trkpt>
      <trkpt lat="43.86803" lon="7.00433">
        <ele>351.6</ele>
        <time>2021-09-20T07:59:35Z</time>
      </trkpt>
      <trkpt lat="43.86802" lon="7.00437">
        <ele>351.8</ele>
        <time>2021-09-20T07:59:36Z</time>
      </trkpt>
      <trkpt lat="43.86802" lon="7.00439">
        <ele>351.8</ele>
        <time>2021-09-20T07:59:37Z</time>
      </trkpt>
      <trkpt lat="43.86801" lon="7.00439">
        <ele>351.9</ele>
        <time>2021-09-20T07:59:39Z</time>
      </trkpt>
      <trkpt lat="43.86801" lon="7.0044">
        <ele>351.9</ele>
        <time>2021-09-20T07:59:40Z</time>
      </trkpt>
      <trkpt lat="43.868" lon="7.00439">
        <ele>352</ele>
        <time>2021-09-20T07:59:42Z</time>
      </trkpt>
      <trkpt lat="43.86799" lon="7.00439">
        <ele>352</ele>
        <time>2021-09-20T07:59:43Z</time>
      </trkpt>
      <trkpt lat="43.86798" lon="7.00438">
        <ele>352.1</ele>
        <time>2021-09-20T07:59:45Z</time>
      </trkpt>
      <trkpt lat="43.86797" lon="7.00438">
        <ele>352.2</ele>
        <time>2021-09-20T07:59:46Z</time>
      </trkpt>
      <trkpt lat="43.86744" lon="7.0047">
        <ele>365.2</ele>
        <time>2021-09-20T08:00:27Z</time>
      </trkpt>
      <trkpt lat="43.8674" lon="7.0047">
        <ele>365.7</ele>
        <time>2021-09-20T08:00:29Z</time>
      </trkpt>
      <trkpt lat="43.86736" lon="7.0047">
        <ele>366.1</ele>
        <time>2021-09-20T08:00:30Z</time>
      </trkpt>
      <trkpt lat="43.86732" lon="7.00468">
        <ele>366.5</ele>
        <time>2021-09-20T08:00:31Z</time>
      </trkpt>
      <trkpt lat="43.86723" lon="7.00466">
        <ele>367.6</ele>
        <time>2021-09-20T08:00:33Z</time>
      </trkpt>
      <trkpt lat="43.86716" lon="7.00464">
        <ele>368.3</ele>
        <time>2021-09-20T08:00:34Z</time>
      </trkpt>
      <trkpt lat="43.8671" lon="7.00462">
        <ele>368.9</ele>
        <time>2021-09-20T08:00:36Z</time>
      </trkpt>
      <trkpt lat="43.8671" lon="7.00462">
        <ele>369</ele>
        <time>2021-09-20T08:00:37Z</time>
      </trkpt>
      <trkpt lat="43.86709" lon="7.00462">
        <ele>369</ele>
        <time>2021-09-20T08:00:39Z</time>
      </trkpt>
      <trkpt lat="43.86709" lon="7.00462">
        <ele>369.1</ele>
        <time>2021-09-20T08:00:40Z</time>
      </trkpt>
      <trkpt lat="43.86708" lon="7.00462">
        <ele>369.1</ele>
        <time>2021-09-20T08:00:41Z</time>
      </trkpt>
      <trkpt lat="43.86709" lon="7.00461">
        <ele>369.2</ele>
        <time>2021-09-20T08:00:43Z</time>
      </trkpt>
      <trkpt lat="43.86709" lon="7.00461">
        <ele>369.2</ele>
        <time>2021-09-20T08:00:44Z</time>
      </trkpt>
      <trkpt lat="43.86709" lon="7.00461">
        <ele>369.2</ele>
        <time>2021-09-20T08:00:46Z</time>
      </trkpt>
      <trkpt lat="43.86693" lon="7.00463">
        <ele>370.6</ele>
        <time>2021-09-20T08:01:02Z</time>
      </trkpt>
      <trkpt lat="43.8669" lon="7.00464">
        <ele>370.9</ele>
        <time>2021-09-20T08:01:03Z</time>
      </trkpt>
      <trkpt lat="43.86684" lon="7.00468">
        <ele>371.6</ele>
        <time>2021-09-20T08:01:04Z</time>
      </trkpt>
      <trkpt lat="43.86678" lon="7.00471">
        <ele>372.1</ele>
        <time>2021-09-20T08:01:06Z</time>
      </trkpt>
      <trkpt lat="43.86671" lon="7.00474">
        <ele>372.9</ele>
        <time>2021-09-20T08:01:08Z</time>
      </trkpt>
      <trkpt lat="43.86667" lon="7.00475">
        <ele>373.2</ele>
        <time>2021-09-20T08:01:09Z</time>
      </trkpt>
      <trkpt lat="43.86662" lon="7.00477">
        <ele>373.6</ele>
        <time>2021-09-20T08:01:10Z</time>
      </trkpt>
      <trkpt lat="43.86656" lon="7.00478">
        <ele>374.1</ele>
        <time>2021-09-20T08:01:11Z</time>
      </trkpt>
      <trkpt lat="43.86654" lon="7.00477">
        <ele>374.2</ele>
        <time>2021-09-20T08:01:12Z</time>
      </trkpt>
      <trkpt lat="43.86649" lon="7.00477">
        <ele>374.6</ele>
        <time>2021-09-20T08:01:14Z</time>
      </trkpt>
      <trkpt lat="43.86647" lon="7.00477">
        <ele>374.7</ele>
        <time>2021-09-20T08:01:15Z</time>
      </trkpt>
      <trkpt lat="43.86648" lon="7.00478">
        <ele>374.8</ele>
        <time>2021-09-20T08:01:16Z</time>
      </trkpt>
      <trkpt lat="43.8665" lon="7.00481">
        <ele>375</ele>
        <time>2021-09-20T08:01:18Z</time>
      </trkpt>
      <trkpt lat="43.86651" lon="7.00483">
        <ele>375.1</ele>
        <time>2021-09-20T08:01:19Z</time>
      </trkpt>
      <trkpt lat="43.86652" lon="7.00485">
        <ele>375.2</ele>
        <time>2021-09-20T08:01:20Z</time>
      </trkpt>
      <trkpt lat="43.86648" lon="7.00487">
        <ele>375.5</ele>
        <time>2021-09-20T08:01:22Z</time>
      </trkpt>
      <trkpt lat="43.86642" lon="7.00487">
        <ele>375.9</ele>
        <time>2021-09-20T08:02:00Z</time>
      </trkpt>
      <trkpt lat="43.86637" lon="7.00487">
        <ele>376.2</ele>
        <time>2021-09-20T08:02:01Z</time>
      </trkpt>
      <trkpt lat="43.86632" lon="7.00487">
        <ele>376.6</ele>
        <time>2021-09-20T08:02:02Z</time>
      </trkpt>
      <trkpt lat="43.8663" lon="7.00488">
        <ele>376.8</ele>
        <time>2021-09-20T08:02:04Z</time>
      </trkpt>
      <trkpt lat="43.86628" lon="7.0049">
        <ele>377</ele>
        <time>2021-09-20T08:02:06Z</time>
      </trkpt>
      <trkpt lat="43.86626" lon="7.0049">
        <ele>377.1</ele>
        <time>2021-09-20T08:02:07Z</time>
      </trkpt>
      <trkpt lat="43.86623" lon="7.0049">
        <ele>377.4</ele>
        <time>2021-09-20T08:02:09Z</time>
      </trkpt>
      <trkpt lat="43.86622" lon="7.00488">
        <ele>377.5</ele>
        <time>2021-09-20T08:02:10Z</time>
      </trkpt>
      <trkpt lat="43.8662" lon="7.00488">
        <ele>377.7</ele>
        <time>2021-09-20T08:02:12Z</time>
      </trkpt>
      <trkpt lat="43.86618" lon="7.00488">
        <ele>377.8</ele>
        <time>2021-09-20T08:02:13Z</time>
      </trkpt>
      <trkpt lat="43.86618" lon="7.00487">
        <ele>377.9</ele>
        <time>2021-09-20T08:02:15Z</time>
      </trkpt>
      <trkpt lat="43.86617" lon="7.00484">
        <ele>378</ele>
        <time>2021-09-20T08:02:17Z</time>
      </trkpt>
      <trkpt lat="43.86618" lon="7.00482">
        <ele>378.1</ele>
        <time>2021-09-20T08:02:18Z</time>
      </trkpt>
      <trkpt lat="43.86618" lon="7.00483">
        <ele>378.1</ele>
        <time>2021-09-20T08:02:19Z</time>
      </trkpt>
      <trkpt lat="43.86616" lon="7.00482">
        <ele>378.3</ele>
        <time>2021-09-20T08:02:20Z</time>
      </trkpt>
      <trkpt lat="43.86612" lon="7.00482">
        <ele>378.5</ele>
        <time>2021-09-20T08:02:22Z</time>
      </trkpt>
      <trkpt lat="43.86611" lon="7.00482">
        <ele>378.6</ele>
        <time>2021-09-20T08:02:23Z</time>
      </trkpt>
      <trkpt lat="43.86611" lon="7.00479">
        <ele>378.7</ele>
        <time>2021-09-20T08:02:25Z</time>
      </trkpt>
      <trkpt lat="43.8661" lon="7.00478">
        <ele>378.8</ele>
        <time>2021-09-20T08:02:26Z</time>
      </trkpt>
      <trkpt lat="43.86609" lon="7.00477">
        <ele>378.9</ele>
        <time>2021-09-20T08:02:27Z</time>
      </trkpt>
      <trkpt lat="43.86608" lon="7.00477">
        <ele>379</ele>
        <time>2021-09-20T08:02:28Z</time>
      </trkpt>
      <trkpt lat="43.86604" lon="7.00475">
        <ele>379.2</ele>
        <time>2021-09-20T08:02:30Z</time>
      </trkpt>
      <trkpt lat="43.86599" lon="7.00474">
        <ele>379.6</ele>
        <time>2021-09-20T08:02:31Z</time>
      </trkpt>
      <trkpt lat="43.86592" lon="7.00473">
        <ele>380.2</ele>
        <time>2021-09-20T08:02:33Z</time>
      </trkpt>
      <trkpt lat="43.86588" lon="7.00474">
        <ele>380.6</ele>
        <time>2021-09-20T08:02:34Z</time>
      </trkpt>
      <trkpt lat="43.8658" lon="7.00474">
        <ele>381.5</ele>
        <time>2021-09-20T08:02:36Z</time>
      </trkpt>
      <trkpt lat="43.86576" lon="7.00475">
        <ele>382</ele>
        <time>2021-09-20T08:02:37Z</time>
      </trkpt>
      <trkpt lat="43.86571" lon="7.00477">
        <ele>382.5</ele>
        <time>2021-09-20T08:02:39Z</time>
      </trkpt>
      <trkpt lat="43.8657" lon="7.00477">
        <ele>382.6</ele>
        <time>2021-09-20T08:02:40Z</time>
      </trkpt>
      <trkpt lat="43.86569" lon="7.00477">
        <ele>382.7</ele>
        <time>2021-09-20T08:02:41Z</time>
      </trkpt>
      <trkpt lat="43.86569" lon="7.00477">
        <ele>382.8</ele>
        <time>2021-09-20T08:02:42Z</time>
      </trkpt>
      <trkpt lat="43.86569" lon="7.00477">
        <ele>382.8</ele>
        <time>2021-09-20T08:02:44Z</time>
      </trkpt>
      <trkpt lat="43.8657" lon="7.00477">
        <ele>382.9</ele>
        <time>2021-09-20T08:02:45Z</time>
      </trkpt>
      <trkpt lat="43.8657" lon="7.00477">
        <ele>382.9</ele>
        <time>2021-09-20T08:02:46Z</time>
      </trkpt>
      <trkpt lat="43.86569" lon="7.00476">
        <ele>382.9</ele>
        <time>2021-09-20T08:02:48Z</time>
      </trkpt>
      <trkpt lat="43.8655" lon="7.00452">
        <ele>385.1</ele>
        <time>2021-09-20T08:03:19Z</time>
      </trkpt>
      <trkpt lat="43.86546" lon="7.00451">
        <ele>385.4</ele>
        <time>2021-09-20T08:03:20Z</time>
      </trkpt>
      <trkpt lat="43.86544" lon="7.00451">
        <ele>385.6</ele>
        <time>2021-09-20T08:03:21Z</time>
      </trkpt>
      <trkpt lat="43.86539" lon="7.00451">
        <ele>385.9</ele>
        <time>2021-09-20T08:03:23Z</time>
      </trkpt>
      <trkpt lat="43.86537" lon="7.00452">
        <ele>386</ele>
        <time>2021-09-20T08:03:24Z</time>
      </trkpt>
      <trkpt lat="43.86536" lon="7.00452">
        <ele>386</ele>
        <time>2021-09-20T08:03:25Z</time>
      </trkpt>
      <trkpt lat="43.86536" lon="7.00453">
        <ele>386.1</ele>
        <time>2021-09-20T08:03:27Z</time>
      </trkpt>
      <trkpt lat="43.86537" lon="7.00453">
        <ele>386.1</ele>
        <time>2021-09-20T08:03:28Z</time>
      </trkpt>
      <trkpt lat="43.86537" lon="7.00453">
        <ele>386.1</ele>
        <time>2021-09-20T08:03:29Z</time>
      </trkpt>
      <trkpt lat="43.86537" lon="7.00454">
        <ele>386.1</ele>
        <time>2021-09-20T08:03:30Z</time>
      </trkpt>
      <trkpt lat="43.86537" lon="7.00454">
        <ele>386.1</ele>
        <time>2021-09-20T08:03:32Z</time>
      </trkpt>
      <trkpt lat="43.86537" lon="7.00454">
        <ele>386.1</ele>
        <time>2021-09-20T08:03:34Z</time>
      </trkpt>
      <trkpt lat="43.86566" lon="7.00618">
        <ele>395.5</ele>
        <time>2021-09-20T08:05:05Z</time>
      </trkpt>
      <trkpt lat="43.86565" lon="7.00621">
        <ele>395.7</ele>
        <time>2021-09-20T08:05:06Z</time>
      </trkpt>
      <trkpt lat="43.86563" lon="7.00627">
        <ele>396.2</ele>
        <time>2021-09-20T08:05:08Z</time>
      </trkpt>
      <trkpt lat="43.86561" lon="7.0063">
        <ele>396.4</ele>
        <time>2021-09-20T08:05:09Z</time>
      </trkpt>
      <trkpt lat="43.8656" lon="7.00631">
        <ele>396.5</ele>
        <time>2021-09-20T08:05:11Z</time>
      </trkpt>
      <trkpt lat="43.86558" lon="7.00632">
        <ele>396.7</ele>
        <time>2021-09-20T08:05:12Z</time>
      </trkpt>
      <trkpt lat="43.86557" lon="7.00633">
        <ele>396.7</ele>
        <time>2021-09-20T08:05:13Z</time>
      </trkpt>
      <trkpt lat="43.86557" lon="7.00633">
        <ele>396.8</ele>
        <time>2021-09-20T08:05:14Z</time>
      </trkpt>
      <trkpt lat="43.86554" lon="7.00634">
        <ele>397</ele>
        <time>2021-09-20T08:05:15Z</time>
      </trkpt>
      <trkpt lat="43.86551" lon="7.00634">
        <ele>397.2</ele>
        <time>2021-09-20T08:05:16Z</time>
      </trkpt>
      <trkpt lat="43.86548" lon="7.00634">
        <ele>397.5</ele>
        <time>2021-09-20T08:05:17Z</time>
      </trkpt>
      <trkpt lat="43.86546" lon="7.00634">
        <ele>397.5</ele>
        <time>2021-09-20T08:05:18Z</time>
      </trkpt>
      <trkpt lat="43.86543" lon="7.00634">
        <ele>397.8</ele>
        <time>2021-09-20T08:05:19Z</time>
      </trkpt>
      <trkpt lat="43.86541" lon="7.00634">
        <ele>398</ele>
        <time>2021-09-20T08:05:20Z</time>
      </trkpt>
      <trkpt lat="43.86538" lon="7.00635">
        <ele>398.3</ele>
        <time>2021-09-20T08:05:21Z</time>
      </trkpt>
      <trkpt lat="43.86536" lon="7.00635">
        <ele>398.4</ele>
        <time>2021-09-20T08:05:22Z</time>
      </trkpt>
      <trkpt lat="43.86534" lon="7.00634">
        <ele>398.5</ele>
        <time>2021-09-20T08:05:24Z</time>
      </trkpt>
      <trkpt lat="43.86536" lon="7.00634">
        <ele>398.7</ele>
        <time>2021-09-20T08:05:25Z</time>
      </trkpt>
      <trkpt lat="43.86538" lon="7.00634">
        <ele>398.8</ele>
        <time>2021-09-20T08:05:27Z</time>
      </trkpt>
      <trkpt lat="43.86539" lon="7.00634">
        <ele>398.9</ele>
        <time>2021-09-20T08:05:28Z</time>
      </trkpt>
      <trkpt lat="43.86539" lon="7.00634">
        <ele>399</ele>
        <time>2021-09-20T08:05:29Z</time>
      </trkpt>
      <trkpt lat="43.86539" lon="7.00634">
        <ele>399</ele>
        <time>2021-09-20T08:05:30Z</time>
      </trkpt>
      <trkpt lat="43.86541" lon="7.00639">
        <ele>399.3</ele>
        <time>2021-09-20T08:05:32Z</time>
      </trkpt>
      <trkpt lat="43.86542" lon="7.00643">
        <ele>399.7</ele>
        <time>2021-09-20T08:05:33Z</time>
      </trkpt>
      <trkpt lat="43.86544" lon="7.00648">
        <ele>400</ele>
        <time>2021-09-20T08:05:35Z</time>
      </trkpt>
      <trkpt lat="43.86545" lon="7.00653">
        <ele>400.2</ele>
        <time>2021-09-20T08:05:59Z</time>
      </trkpt>
      <trkpt lat="43.86547" lon="7.00658">
        <ele>400.5</ele>
        <time>2021-09-20T08:06:01Z</time>
      </trkpt>
      <trkpt lat="43.86548" lon="7.00662">
        <ele>400.7</ele>
        <time>2021-09-20T08:06:02Z</time>
      </trkpt>
      <trkpt lat="43.8655" lon="7.00667">
        <ele>400.9</ele>
        <time>2021-09-20T08:06:04Z</time>
      </trkpt>
      <trkpt lat="43.86551" lon="7.00673">
        <ele>401.1</ele>
        <time>2021-09-20T08:06:05Z</time>
      </trkpt>
      <trkpt lat="43.86553" lon="7.00677">
        <ele>401.3</ele>
        <time>2021-09-20T08:06:07Z</time>
      </trkpt>
      <trkpt lat="43.86556" lon="7.00681">
        <ele>401.5</ele>
        <time>2021-09-20T08:06:08Z</time>
      </trkpt>
      <trkpt lat="43.86558" lon="7.00684">
        <ele>401.6</ele>
        <time>2021-09-20T08:06:09Z</time>
      </trkpt>
      <trkpt lat="43.86559" lon="7.00685">
        <ele>401.7</ele>
        <time>2021-09-20T08:06:11Z</time>
      </trkpt>
      <trkpt lat="43.86558" lon="7.00687">
        <ele>401.7</ele>
        <time>2021-09-20T08:06:12Z</time>
      </trkpt>
      <trkpt lat="43.86558" lon="7.00689">
        <ele>401.8</ele>
        <time>2021-09-20T08:06:14Z</time>
      </trkpt>
      <trkpt lat="43.86557" lon="7.00691">
        <ele>401.9</ele>
        <time>2021-09-20T08:06:15Z</time>
      </trkpt>
      <trkpt lat="43.86553" lon="7.0071">
        <ele>402.8</ele>
        <time>2021-09-20T08:06:24Z</time>
      </trkpt>
      <trkpt lat="43.86552" lon="7.00715">
        <ele>403.1</ele>
        <time>2021-09-20T08:06:25Z</time>
      </trkpt>
      <trkpt lat="43.86551" lon="7.00719">
        <ele>403.3</ele>
        <time>2021-09-20T08:06:26Z</time>
      </trkpt>
      <trkpt lat="43.86551" lon="7.00724">
        <ele>403.5</ele>
        <time>2021-09-20T08:06:28Z</time>
      </trkpt>
      <trkpt lat="43.8655" lon="7.00725">
        <ele>403.6</ele>
        <time>2021-09-20T08:06:29Z</time>
      </trkpt>
      <trkpt lat="43.86549" lon="7.0073">
        <ele>403.9</ele>
        <time>2021-09-20T08:06:31Z</time>
      </trkpt>
      <trkpt lat="43.86547" lon="7.00733">
        <ele>404.1</ele>
        <time>2021-09-20T08:06:33Z</time>
      </trkpt>
      <trkpt lat="43.86546" lon="7.00734">
        <ele>404.2</ele>
        <time>2021-09-20T08:06:34Z</time>
      </trkpt>
      <trkpt lat="43.86543" lon="7.00736">
        <ele>404.5</ele>
        <time>2021-09-20T08:06:36Z</time>
      </trkpt>
      <trkpt lat="43.8654" lon="7.0074">
        <ele>404.8</ele>
        <time>2021-09-20T08:06:38Z</time>
      </trkpt>
      <trkpt lat="43.86536" lon="7.00742">
        <ele>405.2</ele>
        <time>2021-09-20T08:06:39Z</time>
      </trkpt>
      <trkpt lat="43.86532" lon="7.00744">
        <ele>405.6</ele>
        <time>2021-09-20T08:06:41Z</time>
      </trkpt>
      <trkpt lat="43.86528" lon="7.00745">
        <ele>405.8</ele>
        <time>2021-09-20T08:06:42Z</time>
      </trkpt>
      <trkpt lat="43.86525" lon="7.00746">
        <ele>406.1</ele>
        <time>2021-09-20T08:06:44Z</time>
      </trkpt>
      <trkpt lat="43.86523" lon="7.00748">
        <ele>406.3</ele>
        <time>2021-09-20T08:06:45Z</time>
      </trkpt>
      <trkpt lat="43.86521" lon="7.0075">
        <ele>406.5</ele>
        <time>2021-09-20T08:06:47Z</time>
      </trkpt>
      <trkpt lat="43.86521" lon="7.00751">
        <ele>406.5</ele>
        <time>2021-09-20T08:06:48Z</time>
      </trkpt>
      <trkpt lat="43.86522" lon="7.00753">
        <ele>406.6</ele>
        <time>2021-09-20T08:06:49Z</time>
      </trkpt>
      <trkpt lat="43.86522" lon="7.00754">
        <ele>406.7</ele>
        <time>2021-09-20T08:06:50Z</time>
      </trkpt>
      <trkpt lat="43.86522" lon="7.00754">
        <ele>406.7</ele>
        <time>2021-09-20T08:06:51Z</time>
      </trkpt>
      <trkpt lat="43.86522" lon="7.00755">
        <ele>406.7</ele>
        <time>2021-09-20T08:06:52Z</time>
      </trkpt>
      <trkpt lat="43.86522" lon="7.00755">
        <ele>406.8</ele>
        <time>2021-09-20T08:06:53Z</time>
      </trkpt>
      <trkpt lat="43.86522" lon="7.00755">
        <ele>406.8</ele>
        <time>2021-09-20T08:06:54Z</time>
      </trkpt>
      <trkpt lat="43.86523" lon="7.00755">
        <ele>406.8</ele>
        <time>2021-09-20T08:06:55Z</time>
      </trkpt>
      <trkpt lat="43.8651" lon="7.00783">
        <ele>408.7</ele>
        <time>2021-09-20T08:07:17Z</time>
      </trkpt>
      <trkpt lat="43.86507" lon="7.00784">
        <ele>409</ele>
        <time>2021-09-20T08:07:18Z</time>
      </trkpt>
      <trkpt lat="43.86505" lon="7.00784">
        <ele>409.1</ele>
        <time>2021-09-20T08:07:20Z</time>
      </trkpt>
      <trkpt lat="43.86505" lon="7.00784">
        <ele>409.2</ele>
        <time>2021-09-20T08:07:21Z</time>
      </trkpt>
      <trkpt lat="43.86505" lon="7.00784">
        <ele>409.2</ele>
        <time>2021-09-20T08:07:23Z</time>
      </trkpt>
      <trkpt lat="43.86504" lon="7.00785">
        <ele>409.2</ele>
        <time>2021-09-20T08:07:24Z</time>
      </trkpt>
      <trkpt lat="43.86504" lon="7.00785">
        <ele>409.2</ele>
        <time>2021-09-20T08:07:25Z</time>
      </trkpt>
      <trkpt lat="43.86504" lon="7.00785">
        <ele>409.3</ele>
        <time>2021-09-20T08:07:27Z</time>
      </trkpt>
      <trkpt lat="43.86503" lon="7.00785">
        <ele>409.3</ele>
        <time>2021-09-20T08:07:29Z</time>
      </trkpt>
      <trkpt lat="43.86503" lon="7.00785">
        <ele>409.3</ele>
        <time>2021-09-20T08:07:30Z</time>
      </trkpt>
      <trkpt lat="43.86503" lon="7.00785">
        <ele>409.3</ele>
        <time>2021-09-20T08:07:31Z</time>
      </trkpt>
      <trkpt lat="43.86503" lon="7.00785">
        <ele>409.4</ele>
        <time>2021-09-20T08:07:32Z</time>
      </trkpt>
      <trkpt lat="43.86502" lon="7.00786">
        <ele>409.4</ele>
        <time>2021-09-20T08:07:34Z</time>
      </trkpt>
      <trkpt lat="43.86502" lon="7.00786">
        <ele>409.4</ele>
        <time>2021-09-20T08:07:35Z</time>
      </trkpt>
      <trkpt lat="43.86502" lon="7.00786">
        <ele>409.4</ele>
        <time>2021-09-20T08:07:37Z</time>
      </trkpt>
      <trkpt lat="43.86502" lon="7.00786">
        <ele>409.5</ele>
        <time>2021-09-20T08:07:38Z</time>
      </trkpt>
      <trkpt lat="43.86501" lon="7.00786">
        <ele>409.5</ele>
        <time>2021-09-20T08:07:40Z</time>
      </trkpt>
      <trkpt lat="43.86501" lon="7.00786">
        <ele>409.5</ele>
        <time>2021-09-20T08:07:42Z</time>
      </trkpt>
      <trkpt lat="43.86501" lon="7.00787">
        <ele>409.5</ele>
        <time>2021-09-20T08:07:43Z</time>
      </trkpt>
      <trkpt lat="43.865" lon="7.00787">
        <ele>409.6</ele>
        <time>2021-09-20T08:07:45Z</time>
      </trkpt>
      <trkpt lat="43.865" lon="7.00787">
        <ele>409.6</ele>
        <time>2021-09-20T08:07:46Z</time>
      </trkpt>
      <trkpt lat="43.865" lon="7.00787">
        <ele>409.6</ele>
        <time>2021-09-20T08:07:47Z</time>
      </trkpt>
      <trkpt lat="43.865" lon="7.00787">
        <ele>409.6</ele>
        <time>2021-09-20T08:07:48Z</time>
      </trkpt>
      <trkpt lat="43.86499" lon="7.00787">
        <ele>409.7</ele>
        <time>2021-09-20T08:07:50Z</time>
      </trkpt>
      <trkpt lat="43.86499" lon="7.00787">
        <ele>409.7</ele>
        <time>2021-09-20T08:07:51Z</time>
      </trkpt>
      <trkpt lat="43.86499" lon="7.00788">
        <ele>409.7</ele>
        <time>2021-09-20T08:07:52Z</time>
      </trkpt>
      <trkpt lat="43.86498" lon="7.00788">
        <ele>409.7</ele>
        <time>2021-09-20T08:07:53Z</time>
      </trkpt>
      <trkpt lat="43.86498" lon="7.00788">
        <ele>409.8</ele>
        <time>2021-09-20T08:07:55Z</time>
      </trkpt>
      <trkpt lat="43.86498" lon="7.00788">
        <ele>409.8</ele>
        <time>2021-09-20T08:07:56Z</time>
      </trkpt>
      <trkpt lat="43.86494" lon="7.00791">
        <ele>410.2</ele>
        <time>2021-09-20T08:07:58Z</time>
      </trkpt>
      <trkpt lat="43.86491" lon="7.00791">
        <ele>410.4</ele>
        <time>2021-09-20T08:07:59Z</time>
      </trkpt>
      <trkpt lat="43.8649" lon="7.00791">
        <ele>410.5</ele>
        <time>2021-09-20T08:08:00Z</time>
      </trkpt>
      <trkpt lat="43.86487" lon="7.00793">
        <ele>410.8</ele>
        <time>2021-09-20T08:08:02Z</time>
      </trkpt>
      <trkpt lat="43.86486" lon="7.00794">
        <ele>410.9</ele>
        <time>2021-09-20T08:08:03Z</time>
      </trkpt>
      <trkpt lat="43.86485" lon="7.00794">
        <ele>411</ele>
        <time>2021-09-20T08:08:04Z</time>
      </trkpt>
      <trkpt lat="43.86484" lon="7.00795">
        <ele>411.1</ele>
        <time>2021-09-20T08:08:06Z</time>
      </trkpt>
      <trkpt lat="43.86482" lon="7.00796">
        <ele>411.2</ele>
        <time>2021-09-20T08:08:08Z</time>
      </trkpt>
      <trkpt lat="43.86482" lon="7.00797">
        <ele>411.3</ele>
        <time>2021-09-20T08:08:09Z</time>
      </trkpt>
      <trkpt lat="43.86481" lon="7.00797">
        <ele>411.4</ele>
        <time>2021-09-20T08:08:11Z</time>
      </trkpt>
      <trkpt lat="43.8648" lon="7.00797">
        <ele>411.5</ele>
        <time>2021-09-20T08:08:12Z</time>
      </trkpt>
      <trkpt lat="43.8648" lon="7.00797">
        <ele>411.5</ele>
        <time>2021-09-20T08:08:13Z</time>
      </trkpt>
      <trkpt lat="43.8648" lon="7.00797">
        <ele>411.5</ele>
        <time>2021-09-20T08:08:15Z</time>
      </trkpt>
      <trkpt lat="43.86482" lon="7.00798">
        <ele>411.7</ele>
        <time>2021-09-20T08:08:17Z</time>
      </trkpt>
      <trkpt lat="43.86484" lon="7.00798">
        <ele>411.8</ele>
        <time>2021-09-20T08:08:19Z</time>
      </trkpt>
      <trkpt lat="43.86503" lon="7.00911">
        <ele>417.7</ele>
        <time>2021-09-20T08:09:06Z</time>
      </trkpt>
      <trkpt lat="43.86505" lon="7.00915">
        <ele>418</ele>
        <time>2021-09-20T08:09:07Z</time>
      </trkpt>
      <trkpt lat="43.86507" lon="7.00918">
        <ele>418.2</ele>
        <time>2021-09-20T08:09:08Z</time>
      </trkpt>
      <trkpt lat="43.8651" lon="7.00922">
        <ele>418.5</ele>
        <time>2021-09-20T08:09:10Z</time>
      </trkpt>
      <trkpt lat="43.86511" lon="7.00925">
        <ele>418.6</ele>
        <time>2021-09-20T08:09:11Z</time>
      </trkpt>
      <trkpt lat="43.86512" lon="7.00929">
        <ele>418.9</ele>
        <time>2021-09-20T08:09:13Z</time>
      </trkpt>
      <trkpt lat="43.86511" lon="7.00932">
        <ele>419</ele>
        <time>2021-09-20T08:09:14Z</time>
      </trkpt>
      <trkpt lat="43.86511" lon="7.00936">
        <ele>419.2</ele>
        <time>2021-09-20T08:09:16Z</time>
      </trkpt>
      <trkpt lat="43.8651" lon="7.00939">
        <ele>419.4</ele>
        <time>2021-09-20T08:09:18Z</time>
      </trkpt>
      <trkpt lat="43.86509" lon="7.00939">
        <ele>419.4</ele>
        <time>2021-09-20T08:09:19Z</time>
      </trkpt>
      <trkpt lat="43.86509" lon="7.00939">
        <ele>419.4</ele>
        <time>2021-09-20T08:09:20Z</time>
      </trkpt>
      <trkpt lat="43.86509" lon="7.0094">
        <ele>419.5</ele>
        <time>2021-09-20T08:09:22Z</time>
      </trkpt>
      <trkpt lat="43.86509" lon="7.00941">
        <ele>419.5</ele>
        <time>2021-09-20T08:09:23Z</time>
      </trkpt>
      <trkpt lat="43.86509" lon="7.00943">
        <ele>419.6</ele>
        <time>2021-09-20T08:09:25Z</time>
      </trkpt>
      <trkpt lat="43.86508" lon="7.00944">
        <ele>419.7</ele>
        <time>2021-09-20T08:09:26Z</time>
      </trkpt>
      <trkpt lat="43.86488" lon="7.00992">
        <ele>422.5</ele>
        <time>2021-09-20T08:10:13Z</time>
      </trkpt>
      <trkpt lat="43.86483" lon="7.00994">
        <ele>422.8</ele>
        <time>2021-09-20T08:10:15Z</time>
      </trkpt>
      <trkpt lat="43.8648" lon="7.00995">
        <ele>423</ele>
        <time>2021-09-20T08:10:16Z</time>
      </trkpt>
      <trkpt lat="43.86476" lon="7.00994">
        <ele>423.2</ele>
        <time>2021-09-20T08:10:17Z</time>
      </trkpt>
      <trkpt lat="43.86473" lon="7.00994">
        <ele>423.4</ele>
        <time>2021-09-20T08:10:18Z</time>
      </trkpt>
      <trkpt lat="43.86469" lon="7.00994">
        <ele>423.6</ele>
        <time>2021-09-20T08:10:19Z</time>
      </trkpt>
      <trkpt lat="43.86463" lon="7.00995">
        <ele>423.9</ele>
        <time>2021-09-20T08:10:21Z</time>
      </trkpt>
      <trkpt lat="43.8646" lon="7.00995">
        <ele>424.2</ele>
        <time>2021-09-20T08:10:22Z</time>
      </trkpt>
      <trkpt lat="43.86458" lon="7.00995">
        <ele>424.3</ele>
        <time>2021-09-20T08:10:23Z</time>
      </trkpt>
      <trkpt lat="43.86453" lon="7.00996">
        <ele>424.6</ele>
        <time>2021-09-20T08:10:25Z</time>
      </trkpt>
      <trkpt lat="43.8645" lon="7.00996">
        <ele>424.8</ele>
        <time>2021-09-20T08:10:26Z</time>
      </trkpt>
      <trkpt lat="43.86448" lon="7.00997">
        <ele>425</ele>
        <time>2021-09-20T08:10:27Z</time>
      </trkpt>
      <trkpt lat="43.86446" lon="7.00998">
        <ele>425.2</ele>
        <time>2021-09-20T08:10:29Z</time>
      </trkpt>
      <trkpt lat="43.86445" lon="7.01001">
        <ele>425.3</ele>
        <time>2021-09-20T08:10:30Z</time>
      </trkpt>
      <trkpt lat="43.86445" lon="7.01002">
        <ele>425.4</ele>
        <time>2021-09-20T08:10:31Z</time>
      </trkpt>
      <trkpt lat="43.86444" lon="7.01004">
        <ele>425.5</ele>
        <time>2021-09-20T08:10:32Z</time>
      </trkpt>
      <trkpt lat="43.86444" lon="7.01005">
        <ele>425.6</ele>
        <time>2021-09-20T08:10:33Z</time>
      </trkpt>
      <trkpt lat="43.86445" lon="7.01007">
        <ele>425.7</ele>
        <time>2021-09-20T08:10:35Z</time>
      </trkpt>
      <trkpt lat="43.86445" lon="7.01009">
        <ele>425.8</ele>
        <time>2021-09-20T08:10:36Z</time>
      </trkpt>
      <trkpt lat="43.86446" lon="7.01011">
        <ele>425.9</ele>
        <time>2021-09-20T08:10:38Z</time>
      </trkpt>
      <trkpt lat="43.8642" lon="7.01071">
        <ele>429.5</ele>
        <time>2021-09-20T08:11:18Z</time>
      </trkpt>
      <trkpt lat="43.8642" lon="7.01074">
        <ele>429.6</ele>
        <time>2021-09-20T08:11:19Z</time>
      </trkpt>
      <trkpt lat="43.8642" lon="7.01078">
        <ele>429.8</ele>
        <time>2021-09-20T08:11:21Z</time>
      </trkpt>
      <trkpt lat="43.86421" lon="7.0108">
        <ele>429.9</ele>
        <time>2021-09-20T08:11:22Z</time>
      </trkpt>
      <trkpt lat="43.86423" lon="7.01084">
        <ele>430.1</ele>
        <time>2021-09-20T08:11:24Z</time>
      </trkpt>
      <trkpt lat="43.86424" lon="7.01086">
        <ele>430.2</ele>
        <time>2021-09-20T08:11:25Z</time>
      </trkpt>
      <trkpt lat="43.86425" lon="7.01087">
        <ele>430.3</ele>
        <time>2021-09-20T08:11:26Z</time>
      </trkpt>
      <trkpt lat="43.86426" lon="7.01088">
        <ele>430.4</ele>
        <time>2021-09-20T08:11:27Z</time>
      </trkpt>
      <trkpt lat="43.86427" lon="7.01089">
        <ele>430.5</ele>
        <time>2021-09-20T08:11:28Z</time>
      </trkpt>
      <trkpt lat="43.86427" lon="7.0109">
        <ele>430.5</ele>
        <time>2021-09-20T08:11:30Z</time>
      </trkpt>
      <trkpt lat="43.86429" lon="7.01118">
        <ele>431.9</ele>
        <time>2021-09-20T08:11:44Z</time>
      </trkpt>
      <trkpt lat="43.86428" lon="7.01122">
        <ele>432.2</ele>
        <time>2021-09-20T08:11:45Z</time>
      </trkpt>
      <trkpt lat="43.86425" lon="7.01123">
        <ele>432.5</ele>
        <time>2021-09-20T08:11:46Z</time>
      </trkpt>
      <trkpt lat="43.86424" lon="7.01124">
        <ele>432.6</ele>
        <time>2021-09-20T08:11:47Z</time>
      </trkpt>
      <trkpt lat="43.8642" lon="7.01126">
        <ele>433.1</ele>
        <time>2021-09-20T08:11:49Z</time>
      </trkpt>
      <trkpt lat="43.86417" lon="7.01128">
        <ele>433.4</ele>
        <time>2021-09-20T08:11:50Z</time>
      </trkpt>
      <trkpt lat="43.86414" lon="7.0113">
        <ele>433.8</ele>
        <time>2021-09-20T08:11:52Z</time>
      </trkpt>
      <trkpt lat="43.86413" lon="7.01131">
        <ele>434</ele>
        <time>2021-09-20T08:11:53Z</time>
      </trkpt>
      <trkpt lat="43.86412" lon="7.01132">
        <ele>434.1</ele>
        <time>2021-09-20T08:11:54Z</time>
      </trkpt>
      <trkpt lat="43.86412" lon="7.01132">
        <ele>434.1</ele>
        <time>2021-09-20T08:11:55Z</time>
      </trkpt>
      <trkpt lat="43.86411" lon="7.01133">
        <ele>434.2</ele>
        <time>2021-09-20T08:11:56Z</time>
      </trkpt>
      <trkpt lat="43.86411" lon="7.01133">
        <ele>434.2</ele>
        <time>2021-09-20T08:11:57Z</time>
      </trkpt>
      <trkpt lat="43.86411" lon="7.01134">
        <ele>434.3</ele>
        <time>2021-09-20T08:11:59Z</time>
      </trkpt>
      <trkpt lat="43.86411" lon="7.01135">
        <ele>434.3</ele>
        <time>2021-09-20T08:12:00Z</time>
      </trkpt>
      <trkpt lat="43.86411" lon="7.01136">
        <ele>434.4</ele>
        <time>2021-09-20T08:12:01Z</time>
      </trkpt>
      <trkpt lat="43.86411" lon="7.01137">
        <ele>434.5</ele>
        <time>2021-09-20T08:12:03Z</time>
      </trkpt>
      <trkpt lat="43.86402" lon="7.01216">
        <ele>439.7</ele>
        <time>2021-09-20T08:13:03Z</time>
      </trkpt>
      <trkpt lat="43.864" lon="7.01218">
        <ele>439.9</ele>
        <time>2021-09-20T08:13:04Z</time>
      </trkpt>
      <trkpt lat="43.86399" lon="7.0122">
        <ele>440</ele>
        <time>2021-09-20T08:13:05Z</time>
      </trkpt>
      <trkpt lat="43.86398" lon="7.01221">
        <ele>440.1</ele>
        <time>2021-09-20T08:13:06Z</time>
      </trkpt>
      <trkpt lat="43.86397" lon="7.01223">
        <ele>440.2</ele>
        <time>2021-09-20T08:13:07Z</time>
      </trkpt>
      <trkpt lat="43.86396" lon="7.01225">
        <ele>440.5</ele>
        <time>2021-09-20T08:13:09Z</time>
      </trkpt>
      <trkpt lat="43.86396" lon="7.01227">
        <ele>440.8</ele>
        <time>2021-09-20T08:13:10Z</time>
      </trkpt>
      <trkpt lat="43.86396" lon="7.01229">
        <ele>441.1</ele>
        <time>2021-09-20T08:13:11Z</time>
      </trkpt>
      <trkpt lat="43.86397" lon="7.01231">
        <ele>441.4</ele>
        <time>2021-09-20T08:13:12Z</time>
      </trkpt>
      <trkpt lat="43.86397" lon="7.01232">
        <ele>441.6</ele>
        <time>2021-09-20T08:13:14Z</time>
      </trkpt>
      <trkpt lat="43.86396" lon="7.01232">
        <ele>441.7</ele>
        <time>2021-09-20T08:13:15Z</time>
      </trkpt>
      <trkpt lat="43.86396" lon="7.01233">
        <ele>441.8</ele>
        <time>2021-09-20T08:13:16Z</time>
      </trkpt>
      <trkpt lat="43.86396" lon="7.01233">
        <ele>441.9</ele>
        <time>2021-09-20T08:13:17Z</time>
      </trkpt>
      <trkpt lat="43.86396" lon="7.01233">
        <ele>441.9</ele>
        <time>2021-09-20T08:13:18Z</time>
      </trkpt>
      <trkpt lat="43.86395" lon="7.01234">
        <ele>442</ele>
        <time>2021-09-20T08:13:19Z</time>
      </trkpt>
      <trkpt lat="43.86395" lon="7.01234">
        <ele>442.2</ele>
        <time>2021-09-20T08:13:21Z</time>
      </trkpt>
      <trkpt lat="43.86393" lon="7.01234">
        <ele>442.6</ele>
        <time>2021-09-20T08:13:22Z</time>
      </trkpt>
      <trkpt lat="43.86391" lon="7.01234">
        <ele>442.9</ele>
        <time>2021-09-20T08:13:23Z</time>
      </trkpt>
      <trkpt lat="43.8639" lon="7.01233">
        <ele>443.3</ele>
        <time>2021-09-20T08:13:24Z</time>
      </trkpt>
      <trkpt lat="43.86387" lon="7.01234">
        <ele>444</ele>
        <time>2021-09-20T08:13:25Z</time>
      </trkpt>
      <trkpt lat="43.86385" lon="7.01235">
        <ele>444.6</ele>
        <time>2021-09-20T08:13:26Z</time>
      </trkpt>
      <trkpt lat="43.86381" lon="7.01236">
        <ele>445.5</ele>
        <time>2021-09-20T08:13:28Z</time>
      </trkpt>
      <trkpt lat="43.8638" lon="7.01237">
        <ele>445.9</ele>
        <time>2021-09-20T08:13:29Z</time>
      </trkpt>
      <trkpt lat="43.86379" lon="7.01237">
        <ele>446.2</ele>
        <time>2021-09-20T08:13:30Z</time>
      </trkpt>
      <trkpt lat="43.86377" lon="7.01237">
        <ele>446.5</ele>
        <time>2021-09-20T08:13:31Z</time>
      </trkpt>
      <trkpt lat="43.86375" lon="7.01237">
        <ele>447</ele>
        <time>2021-09-20T08:13:32Z</time>
      </trkpt>
      <trkpt lat="43.86372" lon="7.01236">
        <ele>447.9</ele>
        <time>2021-09-20T08:13:34Z</time>
      </trkpt>
      <trkpt lat="43.86368" lon="7.01236">
        <ele>448.7</ele>
        <time>2021-09-20T08:13:36Z</time>
      </trkpt>
      <trkpt lat="43.86367" lon="7.01235">
        <ele>449.1</ele>
        <time>2021-09-20T08:13:37Z</time>
      </trkpt>
      <trkpt lat="43.86366" lon="7.01235">
        <ele>449.4</ele>
        <time>2021-09-20T08:13:38Z</time>
      </trkpt>
      <trkpt lat="43.86362" lon="7.01234">
        <ele>450.3</ele>
        <time>2021-09-20T08:13:39Z</time>
      </trkpt>
      <trkpt lat="43.86361" lon="7.01234">
        <ele>450.6</ele>
        <time>2021-09-20T08:13:40Z</time>
      </trkpt>
      <trkpt lat="43.86358" lon="7.01233">
        <ele>451.4</ele>
        <time>2021-09-20T08:13:42Z</time>
      </trkpt>
      <trkpt lat="43.86355" lon="7.01233">
        <ele>452.2</ele>
        <time>2021-09-20T08:13:44Z</time>
      </trkpt>
      <trkpt lat="43.86353" lon="7.01233">
        <ele>452.7</ele>
        <time>2021-09-20T08:13:45Z</time>
      </trkpt>
      <trkpt lat="43.86352" lon="7.01233">
        <ele>453.1</ele>
        <time>2021-09-20T08:13:47Z</time>
      </trkpt>
      <trkpt lat="43.86252" lon="7.01377">
        <ele>488.1</ele>
        <time>2021-09-20T08:17:19Z</time>
      </trkpt>
      <trkpt lat="43.86249" lon="7.01374">
        <ele>488.9</ele>
        <time>2021-09-20T08:17:20Z</time>
      </trkpt>
      <trkpt lat="43.86249" lon="7.01373">
        <ele>489.2</ele>
        <time>2021-09-20T08:17:21Z</time>
      </trkpt>
      <trkpt lat="43.86246" lon="7.01371">
        <ele>490</ele>
        <time>2021-09-20T08:17:23Z</time>
      </trkpt>
      <trkpt lat="43.86245" lon="7.01371">
        <ele>490.1</ele>
        <time>2021-09-20T08:17:24Z</time>
      </trkpt>
      <trkpt lat="43.86244" lon="7.0137">
        <ele>490.4</ele>
        <time>2021-09-20T08:17:26Z</time>
      </trkpt>
      <trkpt lat="43.86243" lon="7.0137">
        <ele>490.5</ele>
        <time>2021-09-20T08:17:27Z</time>
      </trkpt>
      <trkpt lat="43.86243" lon="7.01369">
        <ele>490.7</ele>
        <time>2021-09-20T08:17:29Z</time>
      </trkpt>
      <trkpt lat="43.86242" lon="7.01369">
        <ele>490.8</ele>
        <time>2021-09-20T08:17:30Z</time>
      </trkpt>
      <trkpt lat="43.86242" lon="7.01369">
        <ele>490.9</ele>
        <time>2021-09-20T08:17:32Z</time>
      </trkpt>
      <trkpt lat="43.86242" lon="7.01368">
        <ele>491</ele>
        <time>2021-09-20T08:17:33Z</time>
      </trkpt>
      <trkpt lat="43.86241" lon="7.01367">
        <ele>491.2</ele>
        <time>2021-09-20T08:17:34Z</time>
      </trkpt>
      <trkpt lat="43.86241" lon="7.01366">
        <ele>491.5</ele>
        <time>2021-09-20T08:17:35Z</time>
      </trkpt>
      <trkpt lat="43.86241" lon="7.01365">
        <ele>491.6</ele>
        <time>2021-09-20T08:17:36Z</time>
      </trkpt>
      <trkpt lat="43.86246" lon="7.01345">
        <ele>495.2</ele>
        <time>2021-09-20T08:19:04Z</time>
      </trkpt>
      <trkpt lat="43.86245" lon="7.01339">
        <ele>496.2</ele>
        <time>2021-09-20T08:19:06Z</time>
      </trkpt>
      <trkpt lat="43.86242" lon="7.01335">
        <ele>497.2</ele>
        <time>2021-09-20T08:19:07Z</time>
      </trkpt>
      <trkpt lat="43.86241" lon="7.01334">
        <ele>497.5</ele>
        <time>2021-09-20T08:19:08Z</time>
      </trkpt>
      <trkpt lat="43.86236" lon="7.01331">
        <ele>498.5</ele>
        <time>2021-09-20T08:19:10Z</time>
      </trkpt>
      <trkpt lat="43.86235" lon="7.0133">
        <ele>498.9</ele>
        <time>2021-09-20T08:19:11Z</time>
      </trkpt>
      <trkpt lat="43.86233" lon="7.01329">
        <ele>499.2</ele>
        <time>2021-09-20T08:19:12Z</time>
      </trkpt>
      <trkpt lat="43.86227" lon="7.01324">
        <ele>500.8</ele>
        <time>2021-09-20T08:19:13Z</time>
      </trkpt>
      <trkpt lat="43.86223" lon="7.0132">
        <ele>502</ele>
        <time>2021-09-20T08:19:14Z</time>
      </trkpt>
      <trkpt lat="43.86218" lon="7.01316">
        <ele>503.2</ele>
        <time>2021-09-20T08:19:16Z</time>
      </trkpt>
      <trkpt lat="43.86214" lon="7.01312">
        <ele>504.4</ele>
        <time>2021-09-20T08:19:17Z</time>
      </trkpt>
      <trkpt lat="43.86209" lon="7.01308">
        <ele>505.7</ele>
        <time>2021-09-20T08:19:19Z</time>
      </trkpt>
      <trkpt lat="43.86205" lon="7.01304">
        <ele>506.5</ele>
        <time>2021-09-20T08:19:21Z</time>
      </trkpt>
      <trkpt lat="43.86201" lon="7.01299">
        <ele>507.3</ele>
        <time>2021-09-20T08:19:23Z</time>
      </trkpt>
      <trkpt lat="43.86196" lon="7.01295">
        <ele>508.1</ele>
        <time>2021-09-20T08:20:10Z</time>
      </trkpt>
      <trkpt lat="43.86192" lon="7.01291">
        <ele>508.8</ele>
        <time>2021-09-20T08:20:11Z</time>
      </trkpt>
      <trkpt lat="43.86187" lon="7.01287">
        <ele>509.6</ele>
        <time>2021-09-20T08:20:12Z</time>
      </trkpt>
      <trkpt lat="43.86185" lon="7.01285">
        <ele>510</ele>
        <time>2021-09-20T08:20:14Z</time>
      </trkpt>
      <trkpt lat="43.86184" lon="7.01284">
        <ele>510.2</ele>
        <time>2021-09-20T08:20:15Z</time>
      </trkpt>
      <trkpt lat="43.86183" lon="7.01283">
        <ele>510.3</ele>
        <time>2021-09-20T08:20:16Z</time>
      </trkpt>
      <trkpt lat="43.86183" lon="7.01283">
        <ele>510.4</ele>
        <time>2021-09-20T08:20:17Z</time>
      </trkpt>
      <trkpt lat="43.86183" lon="7.01283">
        <ele>510.4</ele>
        <time>2021-09-20T08:20:18Z</time>
      </trkpt>
      <trkpt lat="43.86183" lon="7.01283">
        <ele>510.5</ele>
        <time>2021-09-20T08:20:20Z</time>
      </trkpt>
      <trkpt lat="43.86182" lon="7.01282">
        <ele>510.6</ele>
        <time>2021-09-20T08:20:21Z</time>
      </trkpt>
      <trkpt lat="43.86174" lon="7.01281">
        <ele>511.8</ele>
        <time>2021-09-20T08:20:22Z</time>
      </trkpt>
      <trkpt lat="43.86168" lon="7.01279">
        <ele>512.7</ele>
        <time>2021-09-20T08:20:35Z</time>
      </trkpt>
      <trkpt lat="43.86163" lon="7.01278">
        <ele>513.7</ele>
        <time>2021-09-20T08:20:36Z</time>
      </trkpt>
      <trkpt lat="43.86157" lon="7.01276">
        <ele>514.6</ele>
        <time>2021-09-20T08:20:37Z</time>
      </trkpt>
      <trkpt lat="43.86153" lon="7.01276">
        <ele>515.1</ele>
        <time>2021-09-20T08:20:38Z</time>
      </trkpt>
      <trkpt lat="43.8615" lon="7.01275">
        <ele>515.6</ele>
        <time>2021-09-20T08:20:39Z</time>
      </trkpt>
      <trkpt lat="43.86146" lon="7.01274">
        <ele>516.2</ele>
        <time>2021-09-20T08:20:41Z</time>
      </trkpt>
      <trkpt lat="43.86143" lon="7.01274">
        <ele>516.6</ele>
        <time>2021-09-20T08:20:42Z</time>
      </trkpt>
      <trkpt lat="43.86143" lon="7.01274">
        <ele>516.7</ele>
        <time>2021-09-20T08:20:43Z</time>
      </trkpt>
      <trkpt lat="43.86142" lon="7.01272">
        <ele>516.8</ele>
        <time>2021-09-20T08:20:44Z</time>
      </trkpt>
      <trkpt lat="43.86142" lon="7.01272">
        <ele>517</ele>
        <time>2021-09-20T08:20:45Z</time>
      </trkpt>
      <trkpt lat="43.86141" lon="7.01271">
        <ele>517</ele>
        <time>2021-09-20T08:20:46Z</time>
      </trkpt>
      <trkpt lat="43.86141" lon="7.01271">
        <ele>517</ele>
        <time>2021-09-20T08:20:47Z</time>
      </trkpt>
      <trkpt lat="43.86141" lon="7.01271">
        <ele>517</ele>
        <time>2021-09-20T08:20:48Z</time>
      </trkpt>
      <trkpt lat="43.86141" lon="7.01271">
        <ele>517.1</ele>
        <time>2021-09-20T08:20:49Z</time>
      </trkpt>
      <trkpt lat="43.86139" lon="7.01269">
        <ele>517.4</ele>
        <time>2021-09-20T08:20:51Z</time>
      </trkpt>
      <trkpt lat="43.86137" lon="7.01269">
        <ele>517.6</ele>
        <time>2021-09-20T08:20:52Z</time>
      </trkpt>
      <trkpt lat="43.8612" lon="7.01261">
        <ele>520.1</ele>
        <time>2021-09-20T08:21:03Z</time>
      </trkpt>
      <trkpt lat="43.86117" lon="7.01257">
        <ele>520.6</ele>
        <time>2021-09-20T08:21:05Z</time>
      </trkpt>
      <trkpt lat="43.86115" lon="7.01254">
        <ele>521</ele>
        <time>2021-09-20T08:21:07Z</time>
      </trkpt>
      <trkpt lat="43.86115" lon="7.01253">
        <ele>521.1</ele>
        <time>2021-09-20T08:21:08Z</time>
      </trkpt>
      <trkpt lat="43.86116" lon="7.01257">
        <ele>521.5</ele>
        <time>2021-09-20T08:21:10Z</time>
      </trkpt>
      <trkpt lat="43.86116" lon="7.01256">
        <ele>521.5</ele>
        <time>2021-09-20T08:21:11Z</time>
      </trkpt>
      <trkpt lat="43.86116" lon="7.01256">
        <ele>521.5</ele>
        <time>2021-09-20T08:21:12Z</time>
      </trkpt>
      <trkpt lat="43.86116" lon="7.01255">
        <ele>521.6</ele>
        <time>2021-09-20T08:21:14Z</time>
      </trkpt>
      <trkpt lat="43.86115" lon="7.01254">
        <ele>521.8</ele>
        <time>2021-09-20T08:21:16Z</time>
      </trkpt>
      <trkpt lat="43.86115" lon="7.01253">
        <ele>521.9</ele>
        <time>2021-09-20T08:21:17Z</time>
      </trkpt>
      <trkpt lat="43.86111" lon="7.01232">
        <ele>523.9</ele>
        <time>2021-09-20T08:21:26Z</time>
      </trkpt>
      <trkpt lat="43.8611" lon="7.01228">
        <ele>524.3</ele>
        <time>2021-09-20T08:21:27Z</time>
      </trkpt>
      <trkpt lat="43.8611" lon="7.01226">
        <ele>524.5</ele>
        <time>2021-09-20T08:21:28Z</time>
      </trkpt>
      <trkpt lat="43.86109" lon="7.01224">
        <ele>524.7</ele>
        <time>2021-09-20T08:21:29Z</time>
      </trkpt>
      <trkpt lat="43.8611" lon="7.01222">
        <ele>524.9</ele>
        <time>2021-09-20T08:21:30Z</time>
      </trkpt>
      <trkpt lat="43.8611" lon="7.01221">
        <ele>525</ele>
        <time>2021-09-20T08:21:31Z</time>
      </trkpt>
      <trkpt lat="43.8611" lon="7.0122">
        <ele>525.1</ele>
        <time>2021-09-20T08:21:32Z</time>
      </trkpt>
      <trkpt lat="43.8611" lon="7.01219">
        <ele>525.1</ele>
        <time>2021-09-20T08:21:33Z</time>
      </trkpt>
      <trkpt lat="43.8611" lon="7.01219">
        <ele>525.2</ele>
        <time>2021-09-20T08:21:35Z</time>
      </trkpt>
      <trkpt lat="43.86111" lon="7.01218">
        <ele>525.2</ele>
        <time>2021-09-20T08:21:36Z</time>
      </trkpt>
      <trkpt lat="43.86111" lon="7.01217">
        <ele>525.3</ele>
        <time>2021-09-20T08:21:38Z</time>
      </trkpt>
      <trkpt lat="43.86111" lon="7.01217">
        <ele>525.4</ele>
        <time>2021-09-20T08:21:39Z</time>
      </trkpt>
      <trkpt lat="43.8611" lon="7.01071">
        <ele>537.3</ele>
        <time>2021-09-20T08:23:16Z</time>
      </trkpt>
      <trkpt lat="43.86109" lon="7.01066">
        <ele>537.7</ele>
        <time>2021-09-20T08:23:18Z</time>
      </trkpt>
      <trkpt lat="43.86108" lon="7.01064">
        <ele>538</ele>
        <time>2021-09-20T08:23:19Z</time>
      </trkpt>
      <trkpt lat="43.86107" lon="7.01064">
        <ele>538.1</ele>
        <time>2021-09-20T08:23:20Z</time>
      </trkpt>
      <trkpt lat="43.86106" lon="7.01063">
        <ele>538.2</ele>
        <time>2021-09-20T08:23:21Z</time>
      </trkpt>
      <trkpt lat="43.86105" lon="7.01061">
        <ele>538.3</ele>
        <time>2021-09-20T08:23:22Z</time>
      </trkpt>
      <trkpt lat="43.86104" lon="7.01057">
        <ele>538.7</ele>
        <time>2021-09-20T08:23:24Z</time>
      </trkpt>
      <trkpt lat="43.86102" lon="7.01053">
        <ele>539.1</ele>
        <time>2021-09-20T08:23:25Z</time>
      </trkpt>
      <trkpt lat="43.86102" lon="7.01051">
        <ele>539.2</ele>
        <time>2021-09-20T08:23:26Z</time>
      </trkpt>
      <trkpt lat="43.861" lon="7.01047">
        <ele>539.6</ele>
        <time>2021-09-20T08:23:27Z</time>
      </trkpt>
      <trkpt lat="43.861" lon="7.01046">
        <ele>539.7</ele>
        <time>2021-09-20T08:23:28Z</time>
      </trkpt>
      <trkpt lat="43.861" lon="7.01044">
        <ele>539.9</ele>
        <time>2021-09-20T08:23:30Z</time>
      </trkpt>
      <trkpt lat="43.861" lon="7.01044">
        <ele>540</ele>
        <time>2021-09-20T08:23:31Z</time>
      </trkpt>
      <trkpt lat="43.861" lon="7.01043">
        <ele>540</ele>
        <time>2021-09-20T08:23:32Z</time>
      </trkpt>
      <trkpt lat="43.861" lon="7.01043">
        <ele>540.1</ele>
        <time>2021-09-20T08:23:33Z</time>
      </trkpt>
      <trkpt lat="43.861" lon="7.01041">
        <ele>540.2</ele>
        <time>2021-09-20T08:23:34Z</time>
      </trkpt>
      <trkpt lat="43.86099" lon="7.0104">
        <ele>540.3</ele>
        <time>2021-09-20T08:23:35Z</time>
      </trkpt>
      <trkpt lat="43.86099" lon="7.0104">
        <ele>540.4</ele>
        <time>2021-09-20T08:23:36Z</time>
      </trkpt>
      <trkpt lat="43.86098" lon="7.01039">
        <ele>540.5</ele>
        <time>2021-09-20T08:23:37Z</time>
      </trkpt>
      <trkpt lat="43.86097" lon="7.01035">
        <ele>540.9</ele>
        <time>2021-09-20T08:23:39Z</time>
      </trkpt>
      <trkpt lat="43.86095" lon="7.01033">
        <ele>541.2</ele>
        <time>2021-09-20T08:23:40Z</time>
      </trkpt>
      <trkpt lat="43.86093" lon="7.01028">
        <ele>541.6</ele>
        <time>2021-09-20T08:23:42Z</time>
      </trkpt>
      <trkpt lat="43.86094" lon="7.01024">
        <ele>541.9</ele>
        <time>2021-09-20T08:23:43Z</time>
      </trkpt>
      <trkpt lat="43.86095" lon="7.01021">
        <ele>542.2</ele>
        <time>2021-09-20T08:23:44Z</time>
      </trkpt>
      <trkpt lat="43.86098" lon="7.01017">
        <ele>542.7</ele>
        <time>2021-09-20T08:23:46Z</time>
      </trkpt>
      <trkpt lat="43.861" lon="7.01017">
        <ele>542.9</ele>
        <time>2021-09-20T08:23:47Z</time>
      </trkpt>
      <trkpt lat="43.86102" lon="7.01014">
        <ele>543.2</ele>
        <time>2021-09-20T08:23:49Z</time>
      </trkpt>
      <trkpt lat="43.86103" lon="7.01012">
        <ele>543.4</ele>
        <time>2021-09-20T08:23:50Z</time>
      </trkpt>
      <trkpt lat="43.86103" lon="7.01012">
        <ele>543.4</ele>
        <time>2021-09-20T08:23:51Z</time>
      </trkpt>
      <trkpt lat="43.86108" lon="7.01009">
        <ele>544</ele>
        <time>2021-09-20T08:23:53Z</time>
      </trkpt>
      <trkpt lat="43.86109" lon="7.01007">
        <ele>544.1</ele>
        <time>2021-09-20T08:23:54Z</time>
      </trkpt>
      <trkpt lat="43.86111" lon="7.01006">
        <ele>544.4</ele>
        <time>2021-09-20T08:23:56Z</time>
      </trkpt>
      <trkpt lat="43.86112" lon="7.01004">
        <ele>544.5</ele>
        <time>2021-09-20T08:23:57Z</time>
      </trkpt>
      <trkpt lat="43.86112" lon="7.01004">
        <ele>544.6</ele>
        <time>2021-09-20T08:23:58Z</time>
      </trkpt>
      <trkpt lat="43.86113" lon="7.01003">
        <ele>544.6</ele>
        <time>2021-09-20T08:23:59Z</time>
      </trkpt>
      <trkpt lat="43.86113" lon="7.01001">
        <ele>544.8</ele>
        <time>2021-09-20T08:24:01Z</time>
      </trkpt>
      <trkpt lat="43.86114" lon="7.01">
        <ele>544.9</ele>
        <time>2021-09-20T08:24:02Z</time>
      </trkpt>
      <trkpt lat="43.86115" lon="7.00999">
        <ele>545</ele>
        <time>2021-09-20T08:24:04Z</time>
      </trkpt>
      <trkpt lat="43.86116" lon="7.00999">
        <ele>545.1</ele>
        <time>2021-09-20T08:24:05Z</time>
      </trkpt>
      <trkpt lat="43.86116" lon="7.00999">
        <ele>545.2</ele>
        <time>2021-09-20T08:24:06Z</time>
      </trkpt>
      <trkpt lat="43.86118" lon="7.00999">
        <ele>545.4</ele>
        <time>2021-09-20T08:24:07Z</time>
      </trkpt>
      <trkpt lat="43.8612" lon="7.00999">
        <ele>545.5</ele>
        <time>2021-09-20T08:24:08Z</time>
      </trkpt>
      <trkpt lat="43.86122" lon="7.00996">
        <ele>545.8</ele>
        <time>2021-09-20T08:24:10Z</time>
      </trkpt>
      <trkpt lat="43.86124" lon="7.00996">
        <ele>546</ele>
        <time>2021-09-20T08:24:11Z</time>
      </trkpt>
      <trkpt lat="43.86125" lon="7.00996">
        <ele>546.1</ele>
        <time>2021-09-20T08:24:12Z</time>
      </trkpt>
      <trkpt lat="43.86126" lon="7.00996">
        <ele>546.2</ele>
        <time>2021-09-20T08:24:14Z</time>
      </trkpt>
      <trkpt lat="43.86127" lon="7.00996">
        <ele>546.3</ele>
        <time>2021-09-20T08:24:15Z</time>
      </trkpt>
      <trkpt lat="43.86127" lon="7.00996">
        <ele>546.3</ele>
        <time>2021-09-20T08:24:17Z</time>
      </trkpt>
      <trkpt lat="43.86128" lon="7.00995">
        <ele>546.4</ele>
        <time>2021-09-20T08:24:18Z</time>
      </trkpt>
      <trkpt lat="43.86128" lon="7.00995">
        <ele>546.4</ele>
        <time>2021-09-20T08:24:19Z</time>
      </trkpt>
      <trkpt lat="43.86128" lon="7.00995">
        <ele>546.4</ele>
        <time>2021-09-20T08:24:20Z</time>
      </trkpt>
      <trkpt lat="43.86058" lon="7.00948">
        <ele>556</ele>
        <time>2021-09-20T08:24:55Z</time>
      </trkpt>
      <trkpt lat="43.86057" lon="7.00945">
        <ele>556.5</ele>
        <time>2021-09-20T08:24:57Z</time>
      </trkpt>
      <trkpt lat="43.86056" lon="7.00941">
        <ele>556.9</ele>
        <time>2021-09-20T08:24:59Z</time>
      </trkpt>
      <trkpt lat="43.86054" lon="7.00939">
        <ele>557.3</ele>
        <time>2021-09-20T08:25:01Z</time>
      </trkpt>
      <trkpt lat="43.86054" lon="7.00938">
        <ele>557.4</ele>
        <time>2021-09-20T08:25:02Z</time>
      </trkpt>
      <trkpt lat="43.86054" lon="7.00937">
        <ele>557.5</ele>
        <time>2021-09-20T08:25:04Z</time>
      </trkpt>
      <trkpt lat="43.86054" lon="7.00937">
        <ele>557.5</ele>
        <time>2021-09-20T08:25:05Z</time>
      </trkpt>
      <trkpt lat="43.86054" lon="7.00937">
        <ele>557.6</ele>
        <time>2021-09-20T08:25:06Z</time>
      </trkpt>
      <trkpt lat="43.86053" lon="7.00935">
        <ele>557.8</ele>
        <time>2021-09-20T08:25:07Z</time>
      </trkpt>
      <trkpt lat="43.8602" lon="7.00899">
        <ele>563.9</ele>
        <time>2021-09-20T08:25:45Z</time>
      </trkpt>
      <trkpt lat="43.86019" lon="7.00897">
        <ele>564.1</ele>
        <time>2021-09-20T08:25:47Z</time>
      </trkpt>
      <trkpt lat="43.86019" lon="7.00896">
        <ele>564.2</ele>
        <time>2021-09-20T08:25:48Z</time>
      </trkpt>
      <trkpt lat="43.86019" lon="7.00895">
        <ele>564.4</ele>
        <time>2021-09-20T08:25:49Z</time>
      </trkpt>
      <trkpt lat="43.86018" lon="7.00894">
        <ele>564.5</ele>
        <time>2021-09-20T08:25:50Z</time>
      </trkpt>
      <trkpt lat="43.86018" lon="7.00893">
        <ele>564.7</ele>
        <time>2021-09-20T08:25:51Z</time>
      </trkpt>
      <trkpt lat="43.86018" lon="7.00892">
        <ele>564.8</ele>
        <time>2021-09-20T08:25:52Z</time>
      </trkpt>
      <trkpt lat="43.86017" lon="7.00889">
        <ele>565.1</ele>
        <time>2021-09-20T08:25:53Z</time>
      </trkpt>
      <trkpt lat="43.86017" lon="7.00888">
        <ele>565.2</ele>
        <time>2021-09-20T08:25:54Z</time>
      </trkpt>
      <trkpt lat="43.86016" lon="7.00887">
        <ele>565.4</ele>
        <time>2021-09-20T08:25:55Z</time>
      </trkpt>
      <trkpt lat="43.86016" lon="7.00886">
        <ele>565.5</ele>
        <time>2021-09-20T08:25:57Z</time>
      </trkpt>
      <trkpt lat="43.86015" lon="7.00885">
        <ele>565.6</ele>
        <time>2021-09-20T08:25:59Z</time>
      </trkpt>
      <trkpt lat="43.86015" lon="7.00884">
        <ele>565.8</ele>
        <time>2021-09-20T08:26:00Z</time>
      </trkpt>
      <trkpt lat="43.86015" lon="7.00883">
        <ele>565.9</ele>
        <time>2021-09-20T08:26:01Z</time>
      </trkpt>
      <trkpt lat="43.86012" lon="7.00879">
        <ele>566.5</ele>
        <time>2021-09-20T08:26:02Z</time>
      </trkpt>
      <trkpt lat="43.8601" lon="7.00877">
        <ele>566.8</ele>
        <time>2021-09-20T08:26:03Z</time>
      </trkpt>
      <trkpt lat="43.86007" lon="7.00872">
        <ele>567.4</ele>
        <time>2021-09-20T08:26:05Z</time>
      </trkpt>
      <trkpt lat="43.86005" lon="7.00868">
        <ele>568</ele>
        <time>2021-09-20T08:26:07Z</time>
      </trkpt>
      <trkpt lat="43.86004" lon="7.00864">
        <ele>568.4</ele>
        <time>2021-09-20T08:26:08Z</time>
      </trkpt>
      <trkpt lat="43.86003" lon="7.00863">
        <ele>568.6</ele>
        <time>2021-09-20T08:26:09Z</time>
      </trkpt>
      <trkpt lat="43.86004" lon="7.00858">
        <ele>569.2</ele>
        <time>2021-09-20T08:26:11Z</time>
      </trkpt>
      <trkpt lat="43.86004" lon="7.00854">
        <ele>569.6</ele>
        <time>2021-09-20T08:26:12Z</time>
      </trkpt>
      <trkpt lat="43.86005" lon="7.00851">
        <ele>569.9</ele>
        <time>2021-09-20T08:26:13Z</time>
      </trkpt>
      <trkpt lat="43.86005" lon="7.00849">
        <ele>570.1</ele>
        <time>2021-09-20T08:26:15Z</time>
      </trkpt>
      <trkpt lat="43.86005" lon="7.00847">
        <ele>570.3</ele>
        <time>2021-09-20T08:26:16Z</time>
      </trkpt>
      <trkpt lat="43.86005" lon="7.00845">
        <ele>570.6</ele>
        <time>2021-09-20T08:26:17Z</time>
      </trkpt>
      <trkpt lat="43.86004" lon="7.00841">
        <ele>570.9</ele>
        <time>2021-09-20T08:26:19Z</time>
      </trkpt>
      <trkpt lat="43.86004" lon="7.00839">
        <ele>571.2</ele>
        <time>2021-09-20T08:26:21Z</time>
      </trkpt>
      <trkpt lat="43.85974" lon="7.00801">
        <ele>576.8</ele>
        <time>2021-09-20T08:27:06Z</time>
      </trkpt>
      <trkpt lat="43.85974" lon="7.00789">
        <ele>577.9</ele>
        <time>2021-09-20T08:27:09Z</time>
      </trkpt>
      <trkpt lat="43.85972" lon="7.00783">
        <ele>578.5</ele>
        <time>2021-09-20T08:27:10Z</time>
      </trkpt>
      <trkpt lat="43.85972" lon="7.0078">
        <ele>578.8</ele>
        <time>2021-09-20T08:27:11Z</time>
      </trkpt>
      <trkpt lat="43.85971" lon="7.00775">
        <ele>579.3</ele>
        <time>2021-09-20T08:27:12Z</time>
      </trkpt>
      <trkpt lat="43.8597" lon="7.00768">
        <ele>580.1</ele>
        <time>2021-09-20T08:27:14Z</time>
      </trkpt>
      <trkpt lat="43.85969" lon="7.00761">
        <ele>580.7</ele>
        <time>2021-09-20T08:27:16Z</time>
      </trkpt>
      <trkpt lat="43.85969" lon="7.00759">
        <ele>581</ele>
        <time>2021-09-20T08:27:17Z</time>
      </trkpt>
      <trkpt lat="43.85968" lon="7.00757">
        <ele>581.2</ele>
        <time>2021-09-20T08:27:18Z</time>
      </trkpt>
      <trkpt lat="43.85967" lon="7.00752">
        <ele>581.7</ele>
        <time>2021-09-20T08:27:19Z</time>
      </trkpt>
      <trkpt lat="43.85967" lon="7.00751">
        <ele>581.8</ele>
        <time>2021-09-20T08:27:21Z</time>
      </trkpt>
      <trkpt lat="43.85966" lon="7.0075">
        <ele>582</ele>
        <time>2021-09-20T08:27:22Z</time>
      </trkpt>
      <trkpt lat="43.85964" lon="7.00748">
        <ele>582.3</ele>
        <time>2021-09-20T08:27:24Z</time>
      </trkpt>
      <trkpt lat="43.85962" lon="7.00746">
        <ele>582.6</ele>
        <time>2021-09-20T08:27:25Z</time>
      </trkpt>
      <trkpt lat="43.85961" lon="7.00745">
        <ele>582.8</ele>
        <time>2021-09-20T08:27:26Z</time>
      </trkpt>
      <trkpt lat="43.85959" lon="7.00741">
        <ele>583.3</ele>
        <time>2021-09-20T08:27:28Z</time>
      </trkpt>
      <trkpt lat="43.85957" lon="7.00738">
        <ele>583.7</ele>
        <time>2021-09-20T08:27:29Z</time>
      </trkpt>
      <trkpt lat="43.85954" lon="7.00736">
        <ele>584.2</ele>
        <time>2021-09-20T08:27:30Z</time>
      </trkpt>
      <trkpt lat="43.85953" lon="7.00735">
        <ele>584.4</ele>
        <time>2021-09-20T08:27:31Z</time>
      </trkpt>
      <trkpt lat="43.85951" lon="7.00734">
        <ele>584.7</ele>
        <time>2021-09-20T08:27:32Z</time>
      </trkpt>
      <trkpt lat="43.8595" lon="7.00732">
        <ele>585</ele>
        <time>2021-09-20T08:27:34Z</time>
      </trkpt>
      <trkpt lat="43.8595" lon="7.00728">
        <ele>585.4</ele>
        <time>2021-09-20T08:27:35Z</time>
      </trkpt>
      <trkpt lat="43.85949" lon="7.00725">
        <ele>585.8</ele>
        <time>2021-09-20T08:27:36Z</time>
      </trkpt>
      <trkpt lat="43.85948" lon="7.00722">
        <ele>586.1</ele>
        <time>2021-09-20T08:27:38Z</time>
      </trkpt>
      <trkpt lat="43.85947" lon="7.00721">
        <ele>586.2</ele>
        <time>2021-09-20T08:27:39Z</time>
      </trkpt>
      <trkpt lat="43.85947" lon="7.0072">
        <ele>586.3</ele>
        <time>2021-09-20T08:27:40Z</time>
      </trkpt>
      <trkpt lat="43.85946" lon="7.00719">
        <ele>586.4</ele>
        <time>2021-09-20T08:27:41Z</time>
      </trkpt>
      <trkpt lat="43.85946" lon="7.00718">
        <ele>586.6</ele>
        <time>2021-09-20T08:27:43Z</time>
      </trkpt>
      <trkpt lat="43.85943" lon="7.00705">
        <ele>588</ele>
        <time>2021-09-20T08:28:02Z</time>
      </trkpt>
      <trkpt lat="43.8594" lon="7.00704">
        <ele>588.4</ele>
        <time>2021-09-20T08:28:03Z</time>
      </trkpt>
      <trkpt lat="43.85937" lon="7.00705">
        <ele>588.7</ele>
        <time>2021-09-20T08:28:04Z</time>
      </trkpt>
      <trkpt lat="43.85935" lon="7.00708">
        <ele>589.2</ele>
        <time>2021-09-20T08:28:05Z</time>
      </trkpt>
      <trkpt lat="43.85933" lon="7.00709">
        <ele>589.4</ele>
        <time>2021-09-20T08:28:06Z</time>
      </trkpt>
      <trkpt lat="43.85932" lon="7.0071">
        <ele>589.6</ele>
        <time>2021-09-20T08:28:07Z</time>
      </trkpt>
      <trkpt lat="43.85931" lon="7.0071">
        <ele>589.7</ele>
        <time>2021-09-20T08:28:08Z</time>
      </trkpt>
      <trkpt lat="43.8593" lon="7.0071">
        <ele>589.8</ele>
        <time>2021-09-20T08:28:09Z</time>
      </trkpt>
      <trkpt lat="43.85929" lon="7.00709">
        <ele>590</ele>
        <time>2021-09-20T08:28:11Z</time>
      </trkpt>
      <trkpt lat="43.85929" lon="7.00708">
        <ele>590.1</ele>
        <time>2021-09-20T08:28:12Z</time>
      </trkpt>
      <trkpt lat="43.85928" lon="7.00706">
        <ele>590.3</ele>
        <time>2021-09-20T08:28:14Z</time>
      </trkpt>
      <trkpt lat="43.85928" lon="7.00706">
        <ele>590.4</ele>
        <time>2021-09-20T08:28:15Z</time>
      </trkpt>
      <trkpt lat="43.85928" lon="7.00705">
        <ele>590.4</ele>
        <time>2021-09-20T08:28:16Z</time>
      </trkpt>
      <trkpt lat="43.85931" lon="7.00678">
        <ele>593</ele>
        <time>2021-09-20T08:28:33Z</time>
      </trkpt>
      <trkpt lat="43.85931" lon="7.00675">
        <ele>593.3</ele>
        <time>2021-09-20T08:28:34Z</time>
      </trkpt>
      <trkpt lat="43.85932" lon="7.00674">
        <ele>593.4</ele>
        <time>2021-09-20T08:28:35Z</time>
      </trkpt>
      <trkpt lat="43.85932" lon="7.00672">
        <ele>593.6</ele>
        <time>2021-09-20T08:28:36Z</time>
      </trkpt>
      <trkpt lat="43.85932" lon="7.00671">
        <ele>593.7</ele>
        <time>2021-09-20T08:28:37Z</time>
      </trkpt>
      <trkpt lat="43.85932" lon="7.00669">
        <ele>593.9</ele>
        <time>2021-09-20T08:28:39Z</time>
      </trkpt>
      <trkpt lat="43.85933" lon="7.00668">
        <ele>594</ele>
        <time>2021-09-20T08:28:40Z</time>
      </trkpt>
      <trkpt lat="43.85933" lon="7.00667">
        <ele>594.1</ele>
        <time>2021-09-20T08:28:41Z</time>
      </trkpt>
      <trkpt lat="43.85933" lon="7.00666">
        <ele>594.2</ele>
        <time>2021-09-20T08:28:43Z</time>
      </trkpt>
      <trkpt lat="43.85934" lon="7.00664">
        <ele>594.4</ele>
        <time>2021-09-20T08:28:45Z</time>
      </trkpt>
      <trkpt lat="43.85934" lon="7.0066">
        <ele>594.7</ele>
        <time>2021-09-20T08:28:46Z</time>
      </trkpt>
      <trkpt lat="43.85934" lon="7.00659">
        <ele>594.9</ele>
        <time>2021-09-20T08:28:48Z</time>
      </trkpt>
      <trkpt lat="43.85933" lon="7.00657">
        <ele>595</ele>
        <time>2021-09-20T08:28:49Z</time>
      </trkpt>
      <trkpt lat="43.85933" lon="7.00655">
        <ele>595.2</ele>
        <time>2021-09-20T08:28:50Z</time>
      </trkpt>
      <trkpt lat="43.85933" lon="7.0065">
        <ele>595.6</ele>
        <time>2021-09-20T08:28:52Z</time>
      </trkpt>
      <trkpt lat="43.85933" lon="7.00649">
        <ele>595.8</ele>
        <time>2021-09-20T08:28:53Z</time>
      </trkpt>
      <trkpt lat="43.85933" lon="7.00646">
        <ele>596</ele>
        <time>2021-09-20T08:28:54Z</time>
      </trkpt>
      <trkpt lat="43.85933" lon="7.00643">
        <ele>596.3</ele>
        <time>2021-09-20T08:28:56Z</time>
      </trkpt>
      <trkpt lat="43.85934" lon="7.00641">
        <ele>596.5</ele>
        <time>2021-09-20T08:28:58Z</time>
      </trkpt>
      <trkpt lat="43.85934" lon="7.00639">
        <ele>596.7</ele>
        <time>2021-09-20T08:28:59Z</time>
      </trkpt>
      <trkpt lat="43.85934" lon="7.00638">
        <ele>596.8</ele>
        <time>2021-09-20T08:29:00Z</time>
      </trkpt>
      <trkpt lat="43.85935" lon="7.00636">
        <ele>597.1</ele>
        <time>2021-09-20T08:29:01Z</time>
      </trkpt>
      <trkpt lat="43.85936" lon="7.00631">
        <ele>597.5</ele>
        <time>2021-09-20T08:29:03Z</time>
      </trkpt>
      <trkpt lat="43.85934" lon="7.00562">
        <ele>603.6</ele>
        <time>2021-09-20T08:29:36Z</time>
      </trkpt>
      <trkpt lat="43.85932" lon="7.00559">
        <ele>604</ele>
        <time>2021-09-20T08:29:38Z</time>
      </trkpt>
      <trkpt lat="43.8593" lon="7.00555">
        <ele>604.3</ele>
        <time>2021-09-20T08:29:39Z</time>
      </trkpt>
      <trkpt lat="43.85928" lon="7.00549">
        <ele>604.8</ele>
        <time>2021-09-20T08:29:41Z</time>
      </trkpt>
      <trkpt lat="43.85928" lon="7.00547">
        <ele>604.9</ele>
        <time>2021-09-20T08:29:42Z</time>
      </trkpt>
      <trkpt lat="43.85927" lon="7.00544">
        <ele>605.2</ele>
        <time>2021-09-20T08:29:43Z</time>
      </trkpt>
      <trkpt lat="43.85927" lon="7.00542">
        <ele>605.3</ele>
        <time>2021-09-20T08:29:44Z</time>
      </trkpt>
      <trkpt lat="43.8593" lon="7.00535">
        <ele>605.9</ele>
        <time>2021-09-20T08:29:46Z</time>
      </trkpt>
      <trkpt lat="43.85932" lon="7.00529">
        <ele>606.3</ele>
        <time>2021-09-20T08:29:48Z</time>
      </trkpt>
      <trkpt lat="43.85933" lon="7.00526">
        <ele>606.5</ele>
        <time>2021-09-20T08:29:49Z</time>
      </trkpt>
      <trkpt lat="43.85933" lon="7.00522">
        <ele>606.7</ele>
        <time>2021-09-20T08:29:51Z</time>
      </trkpt>
      <trkpt lat="43.85933" lon="7.00518">
        <ele>606.9</ele>
        <time>2021-09-20T08:29:53Z</time>
      </trkpt>
      <trkpt lat="43.859" lon="7.00475">
        <ele>607.8</ele>
        <time>2021-09-20T08:30:48Z</time>
      </trkpt>
      <trkpt lat="43.85898" lon="7.00471">
        <ele>607.6</ele>
        <time>2021-09-20T08:30:49Z</time>
      </trkpt>
      <trkpt lat="43.85896" lon="7.00466">
        <ele>607.5</ele>
        <time>2021-09-20T08:30:50Z</time>
      </trkpt>
      <trkpt lat="43.85896" lon="7.00465">
        <ele>607.5</ele>
        <time>2021-09-20T08:30:51Z</time>
      </trkpt>
      <trkpt lat="43.85896" lon="7.00464">
        <ele>607.5</ele>
        <time>2021-09-20T08:30:52Z</time>
      </trkpt>
      <trkpt lat="43.85893" lon="7.00455">
        <ele>607.3</ele>
        <time>2021-09-20T08:30:54Z</time>
      </trkpt>
      <trkpt lat="43.85892" lon="7.00451">
        <ele>607.2</ele>
        <time>2021-09-20T08:30:55Z</time>
      </trkpt>
      <trkpt lat="43.85891" lon="7.00449">
        <ele>607.2</ele>
        <time>2021-09-20T08:30:56Z</time>
      </trkpt>
      <trkpt lat="43.8589" lon="7.00445">
        <ele>607.1</ele>
        <time>2021-09-20T08:30:57Z</time>
      </trkpt>
      <trkpt lat="43.85888" lon="7.00439">
        <ele>607.1</ele>
        <time>2021-09-20T08:30:59Z</time>
      </trkpt>
      <trkpt lat="43.85886" lon="7.00433">
        <ele>607.1</ele>
        <time>2021-09-20T08:31:01Z</time>
      </trkpt>
      <trkpt lat="43.85885" lon="7.00429">
        <ele>607</ele>
        <time>2021-09-20T08:31:02Z</time>
      </trkpt>
      <trkpt lat="43.85885" lon="7.00427">
        <ele>607</ele>
        <time>2021-09-20T08:31:03Z</time>
      </trkpt>
      <trkpt lat="43.85885" lon="7.00425">
        <ele>607</ele>
        <time>2021-09-20T08:31:04Z</time>
      </trkpt>
      <trkpt lat="43.85883" lon="7.00419">
        <ele>607</ele>
        <time>2021-09-20T08:31:06Z</time>
      </trkpt>
      <trkpt lat="43.85883" lon="7.00415">
        <ele>607</ele>
        <time>2021-09-20T08:31:08Z</time>
      </trkpt>
      <trkpt lat="43.85882" lon="7.00411">
        <ele>607</ele>
        <time>2021-09-20T08:31:09Z</time>
      </trkpt>
      <trkpt lat="43.8588" lon="7.00408">
        <ele>606.9</ele>
        <time>2021-09-20T08:31:11Z</time>
      </trkpt>
      <trkpt lat="43.8588" lon="7.00406">
        <ele>606.9</ele>
        <time>2021-09-20T08:31:12Z</time>
      </trkpt>
      <trkpt lat="43.85879" lon="7.00404">
        <ele>606.9</ele>
        <time>2021-09-20T08:31:13Z</time>
      </trkpt>
      <trkpt lat="43.85877" lon="7.00399">
        <ele>606.9</ele>
        <time>2021-09-20T08:31:15Z</time>
      </trkpt>
      <trkpt lat="43.85876" lon="7.00398">
        <ele>606.9</ele>
        <time>2021-09-20T08:31:16Z</time>
      </trkpt>
      <trkpt lat="43.85876" lon="7.00396">
        <ele>606.9</ele>
        <time>2021-09-20T08:31:17Z</time>
      </trkpt>
      <trkpt lat="43.85875" lon="7.00395">
        <ele>606.9</ele>
        <time>2021-09-20T08:31:18Z</time>
      </trkpt>
      <trkpt lat="43.85874" lon="7.00391">
        <ele>606.9</ele>
        <time>2021-09-20T08:31:20Z</time>
      </trkpt>
      <trkpt lat="43.85873" lon="7.00386">
        <ele>606.9</ele>
        <time>2021-09-20T08:31:21Z</time>
      </trkpt>
      <trkpt lat="43.85871" lon="7.00383">
        <ele>607</ele>
        <time>2021-09-20T08:31:23Z</time>
      </trkpt>
      <trkpt lat="43.8587" lon="7.00382">
        <ele>607</ele>
        <time>2021-09-20T08:31:24Z</time>
      </trkpt>
      <trkpt lat="43.85869" lon="7.0038">
        <ele>607</ele>
        <time>2021-09-20T08:31:25Z</time>
      </trkpt>
      <trkpt lat="43.85868" lon="7.00378">
        <ele>607</ele>
        <time>2021-09-20T08:31:26Z</time>
      </trkpt>
      <trkpt lat="43.85867" lon="7.00377">
        <ele>607</ele>
        <time>2021-09-20T08:31:27Z</time>
      </trkpt>
      <trkpt lat="43.85866" lon="7.00376">
        <ele>607.1</ele>
        <time>2021-09-20T08:31:29Z</time>
      </trkpt>
      <trkpt lat="43.85866" lon="7.00375">
        <ele>607.1</ele>
        <time>2021-09-20T08:31:30Z</time>
      </trkpt>
      <trkpt lat="43.85864" lon="7.00373">
        <ele>607.1</ele>
        <time>2021-09-20T08:31:31Z</time>
      </trkpt>
      <trkpt lat="43.85864" lon="7.00372">
        <ele>607.1</ele>
        <time>2021-09-20T08:31:32Z</time>
      </trkpt>
      <trkpt lat="43.85864" lon="7.00371">
        <ele>607.1</ele>
        <time>2021-09-20T08:31:33Z</time>
      </trkpt>
      <trkpt lat="43.85865" lon="7.00367">
        <ele>607.2</ele>
        <time>2021-09-20T08:31:35Z</time>
      </trkpt>
      <trkpt lat="43.85866" lon="7.00362">
        <ele>607.2</ele>
        <time>2021-09-20T08:31:37Z</time>
      </trkpt>
      <trkpt lat="43.85867" lon="7.0036">
        <ele>607.3</ele>
        <time>2021-09-20T08:31:38Z</time>
      </trkpt>
      <trkpt lat="43.85869" lon="7.00357">
        <ele>607.3</ele>
        <time>2021-09-20T08:31:39Z</time>
      </trkpt>
      <trkpt lat="43.85872" lon="7.00354">
        <ele>607.4</ele>
        <time>2021-09-20T08:31:41Z</time>
      </trkpt>
      <trkpt lat="43.85873" lon="7.00351">
        <ele>607.4</ele>
        <time>2021-09-20T08:31:42Z</time>
      </trkpt>
      <trkpt lat="43.85876" lon="7.00343">
        <ele>607.5</ele>
        <time>2021-09-20T08:31:44Z</time>
      </trkpt>
      <trkpt lat="43.85875" lon="7.00341">
        <ele>607.5</ele>
        <time>2021-09-20T08:31:46Z</time>
      </trkpt>
      <trkpt lat="43.85875" lon="7.0034">
        <ele>607.5</ele>
        <time>2021-09-20T08:31:47Z</time>
      </trkpt>
      <trkpt lat="43.85874" lon="7.00338">
        <ele>607.6</ele>
        <time>2021-09-20T08:31:48Z</time>
      </trkpt>
      <trkpt lat="43.85873" lon="7.00337">
        <ele>607.6</ele>
        <time>2021-09-20T08:31:50Z</time>
      </trkpt>
      <trkpt lat="43.85873" lon="7.00336">
        <ele>607.6</ele>
        <time>2021-09-20T08:31:51Z</time>
      </trkpt>
      <trkpt lat="43.85872" lon="7.00336">
        <ele>607.6</ele>
        <time>2021-09-20T08:31:52Z</time>
      </trkpt>
      <trkpt lat="43.85872" lon="7.00335">
        <ele>607.6</ele>
        <time>2021-09-20T08:31:53Z</time>
      </trkpt>
      <trkpt lat="43.85871" lon="7.00334">
        <ele>607.6</ele>
        <time>2021-09-20T08:31:54Z</time>
      </trkpt>
      <trkpt lat="43.8587" lon="7.00333">
        <ele>607.6</ele>
        <time>2021-09-20T08:31:56Z</time>
      </trkpt>
      <trkpt lat="43.85869" lon="7.00332">
        <ele>607.6</ele>
        <time>2021-09-20T08:31:57Z</time>
      </trkpt>
      <trkpt lat="43.85869" lon="7.00332">
        <ele>607.7</ele>
        <time>2021-09-20T08:31:58Z</time>
      </trkpt>
      <trkpt lat="43.85856" lon="7.00326">
        <ele>607.8</ele>
        <time>2021-09-20T08:32:11Z</time>
      </trkpt>
      <trkpt lat="43.85853" lon="7.00324">
        <ele>607.9</ele>
        <time>2021-09-20T08:32:12Z</time>
      </trkpt>
      <trkpt lat="43.8585" lon="7.00323">
        <ele>607.9</ele>
        <time>2021-09-20T08:32:13Z</time>
      </trkpt>
      <trkpt lat="43.85845" lon="7.00321">
        <ele>608</ele>
        <time>2021-09-20T08:32:15Z</time>
      </trkpt>
      <trkpt lat="43.8584" lon="7.0032">
        <ele>608</ele>
        <time>2021-09-20T08:32:16Z</time>
      </trkpt>
      <trkpt lat="43.85836" lon="7.00319">
        <ele>608.1</ele>
        <time>2021-09-20T08:32:17Z</time>
      </trkpt>
      <trkpt lat="43.85834" lon="7.00318">
        <ele>608.1</ele>
        <time>2021-09-20T08:32:18Z</time>
      </trkpt>
      <trkpt lat="43.85833" lon="7.00317">
        <ele>608.1</ele>
        <time>2021-09-20T08:32:20Z</time>
      </trkpt>
      <trkpt lat="43.85831" lon="7.00315">
        <ele>608.1</ele>
        <time>2021-09-20T08:32:21Z</time>
      </trkpt>
      <trkpt lat="43.8583" lon="7.00313">
        <ele>608.2</ele>
        <time>2021-09-20T08:32:22Z</time>
      </trkpt>
      <trkpt lat="43.85826" lon="7.00308">
        <ele>608.2</ele>
        <time>2021-09-20T08:32:24Z</time>
      </trkpt>
      <trkpt lat="43.85823" lon="7.00305">
        <ele>608.3</ele>
        <time>2021-09-20T08:32:25Z</time>
      </trkpt>
      <trkpt lat="43.85822" lon="7.00305">
        <ele>608.3</ele>
        <time>2021-09-20T08:32:26Z</time>
      </trkpt>
      <trkpt lat="43.85821" lon="7.00304">
        <ele>608.3</ele>
        <time>2021-09-20T08:32:27Z</time>
      </trkpt>
      <trkpt lat="43.85816" lon="7.00301">
        <ele>608.4</ele>
        <time>2021-09-20T08:32:29Z</time>
      </trkpt>
      <trkpt lat="43.85814" lon="7.00299">
        <ele>608.5</ele>
        <time>2021-09-20T08:32:30Z</time>
      </trkpt>
      <trkpt lat="43.85809" lon="7.00297">
        <ele>608.8</ele>
        <time>2021-09-20T08:32:32Z</time>
      </trkpt>
      <trkpt lat="43.85806" lon="7.00296">
        <ele>608.9</ele>
        <time>2021-09-20T08:32:33Z</time>
      </trkpt>
      <trkpt lat="43.85804" lon="7.00293">
        <ele>609</ele>
        <time>2021-09-20T08:32:35Z</time>
      </trkpt>
      <trkpt lat="43.85803" lon="7.00292">
        <ele>609</ele>
        <time>2021-09-20T08:32:36Z</time>
      </trkpt>
      <trkpt lat="43.85803" lon="7.00291">
        <ele>609.1</ele>
        <time>2021-09-20T08:32:37Z</time>
      </trkpt>
      <trkpt lat="43.85803" lon="7.0029">
        <ele>609.1</ele>
        <time>2021-09-20T08:32:38Z</time>
      </trkpt>
      <trkpt lat="43.85803" lon="7.0029">
        <ele>609.1</ele>
        <time>2021-09-20T08:32:39Z</time>
      </trkpt>
      <trkpt lat="43.85803" lon="7.0029">
        <ele>609.1</ele>
        <time>2021-09-20T08:32:41Z</time>
      </trkpt>
      <trkpt lat="43.85803" lon="7.00289">
        <ele>609.2</ele>
        <time>2021-09-20T08:32:42Z</time>
      </trkpt>
      <trkpt lat="43.85803" lon="7.00289">
        <ele>609.2</ele>
        <time>2021-09-20T08:32:43Z</time>
      </trkpt>
      <trkpt lat="43.85803" lon="7.00288">
        <ele>609.2</ele>
        <time>2021-09-20T08:32:44Z</time>
      </trkpt>
      <trkpt lat="43.85802" lon="7.00287">
        <ele>609.2</ele>
        <time>2021-09-20T08:32:46Z</time>
      </trkpt>
      <trkpt lat="43.85802" lon="7.00286">
        <ele>609.3</ele>
        <time>2021-09-20T08:32:47Z</time>
      </trkpt>
      <trkpt lat="43.85797" lon="7.00283">
        <ele>609.5</ele>
        <time>2021-09-20T08:32:50Z</time>
      </trkpt>
      <trkpt lat="43.85793" lon="7.00282">
        <ele>609.6</ele>
        <time>2021-09-20T08:32:51Z</time>
      </trkpt>
      <trkpt lat="43.85789" lon="7.0028">
        <ele>609.8</ele>
        <time>2021-09-20T08:32:53Z</time>
      </trkpt>
      <trkpt lat="43.85787" lon="7.00279">
        <ele>610</ele>
        <time>2021-09-20T08:32:54Z</time>
      </trkpt>
      <trkpt lat="43.85783" lon="7.00277">
        <ele>610.1</ele>
        <time>2021-09-20T08:32:55Z</time>
      </trkpt>
      <trkpt lat="43.85782" lon="7.00277">
        <ele>610.2</ele>
        <time>2021-09-20T08:32:56Z</time>
      </trkpt>
      <trkpt lat="43.85779" lon="7.00275">
        <ele>610.4</ele>
        <time>2021-09-20T08:32:57Z</time>
      </trkpt>
      <trkpt lat="43.85779" lon="7.00274">
        <ele>610.5</ele>
        <time>2021-09-20T08:32:58Z</time>
      </trkpt>
      <trkpt lat="43.85778" lon="7.00272">
        <ele>610.6</ele>
        <time>2021-09-20T08:33:00Z</time>
      </trkpt>
      <trkpt lat="43.85778" lon="7.00272">
        <ele>610.6</ele>
        <time>2021-09-20T08:33:01Z</time>
      </trkpt>
      <trkpt lat="43.85777" lon="7.00272">
        <ele>610.6</ele>
        <time>2021-09-20T08:33:02Z</time>
      </trkpt>
      <trkpt lat="43.85777" lon="7.00271">
        <ele>610.7</ele>
        <time>2021-09-20T08:33:03Z</time>
      </trkpt>
      <trkpt lat="43.85777" lon="7.00271">
        <ele>610.7</ele>
        <time>2021-09-20T08:33:04Z</time>
      </trkpt>
      <trkpt lat="43.85777" lon="7.00271">
        <ele>610.7</ele>
        <time>2021-09-20T08:33:06Z</time>
      </trkpt>
      <trkpt lat="43.85777" lon="7.00271">
        <ele>610.7</ele>
        <time>2021-09-20T08:33:07Z</time>
      </trkpt>
      <trkpt lat="43.85777" lon="7.00271">
        <ele>610.7</ele>
        <time>2021-09-20T08:33:09Z</time>
      </trkpt>
      <trkpt lat="43.85777" lon="7.0027">
        <ele>610.8</ele>
        <time>2021-09-20T08:33:11Z</time>
      </trkpt>
      <trkpt lat="43.85707" lon="7.00234">
        <ele>616.6</ele>
        <time>2021-09-20T08:35:37Z</time>
      </trkpt>
      <trkpt lat="43.85707" lon="7.00235">
        <ele>616.7</ele>
        <time>2021-09-20T08:35:38Z</time>
      </trkpt>
      <trkpt lat="43.85706" lon="7.00236">
        <ele>616.8</ele>
        <time>2021-09-20T08:35:39Z</time>
      </trkpt>
      <trkpt lat="43.85705" lon="7.00236">
        <ele>616.9</ele>
        <time>2021-09-20T08:35:41Z</time>
      </trkpt>
      <trkpt lat="43.85705" lon="7.00237">
        <ele>616.9</ele>
        <time>2021-09-20T08:35:42Z</time>
      </trkpt>
      <trkpt lat="43.85705" lon="7.00237">
        <ele>616.9</ele>
        <time>2021-09-20T08:35:44Z</time>
      </trkpt>
      <trkpt lat="43.85704" lon="7.00237">
        <ele>617</ele>
        <time>2021-09-20T08:35:45Z</time>
      </trkpt>
      <trkpt lat="43.85704" lon="7.00237">
        <ele>617</ele>
        <time>2021-09-20T08:35:46Z</time>
      </trkpt>
      <trkpt lat="43.85704" lon="7.00237">
        <ele>617</ele>
        <time>2021-09-20T08:35:48Z</time>
      </trkpt>
      <trkpt lat="43.85704" lon="7.00238">
        <ele>617</ele>
        <time>2021-09-20T08:35:49Z</time>
      </trkpt>
      <trkpt lat="43.85704" lon="7.00238">
        <ele>617</ele>
        <time>2021-09-20T08:35:50Z</time>
      </trkpt>
      <trkpt lat="43.85703" lon="7.00238">
        <ele>617.1</ele>
        <time>2021-09-20T08:35:52Z</time>
      </trkpt>
      <trkpt lat="43.857" lon="7.00238">
        <ele>617.3</ele>
        <time>2021-09-20T08:35:54Z</time>
      </trkpt>
      <trkpt lat="43.85699" lon="7.00238">
        <ele>617.5</ele>
        <time>2021-09-20T08:35:55Z</time>
      </trkpt>
      <trkpt lat="43.85698" lon="7.00238">
        <ele>617.6</ele>
        <time>2021-09-20T08:35:56Z</time>
      </trkpt>
      <trkpt lat="43.85695" lon="7.00238">
        <ele>617.8</ele>
        <time>2021-09-20T08:35:58Z</time>
      </trkpt>
      <trkpt lat="43.85695" lon="7.00238">
        <ele>617.8</ele>
        <time>2021-09-20T08:35:59Z</time>
      </trkpt>
      <trkpt lat="43.85694" lon="7.00238">
        <ele>617.9</ele>
        <time>2021-09-20T08:36:01Z</time>
      </trkpt>
      <trkpt lat="43.85693" lon="7.00238">
        <ele>618</ele>
        <time>2021-09-20T08:36:03Z</time>
      </trkpt>
      <trkpt lat="43.85692" lon="7.00238">
        <ele>618.1</ele>
        <time>2021-09-20T08:36:05Z</time>
      </trkpt>
      <trkpt lat="43.85691" lon="7.00238">
        <ele>618.2</ele>
        <time>2021-09-20T08:36:06Z</time>
      </trkpt>
      <trkpt lat="43.8569" lon="7.00238">
        <ele>618.2</ele>
        <time>2021-09-20T08:36:07Z</time>
      </trkpt>
      <trkpt lat="43.8569" lon="7.00238">
        <ele>618.3</ele>
        <time>2021-09-20T08:36:09Z</time>
      </trkpt>
      <trkpt lat="43.85689" lon="7.00238">
        <ele>618.3</ele>
        <time>2021-09-20T08:36:10Z</time>
      </trkpt>
      <trkpt lat="43.85689" lon="7.00238">
        <ele>618.3</ele>
        <time>2021-09-20T08:36:11Z</time>
      </trkpt>
      <trkpt lat="43.85689" lon="7.00238">
        <ele>618.4</ele>
        <time>2021-09-20T08:36:13Z</time>
      </trkpt>
      <trkpt lat="43.85688" lon="7.00238">
        <ele>618.4</ele>
        <time>2021-09-20T08:36:15Z</time>
      </trkpt>
      <trkpt lat="43.85688" lon="7.00238">
        <ele>618.4</ele>
        <time>2021-09-20T08:36:16Z</time>
      </trkpt>
      <trkpt lat="43.85688" lon="7.00238">
        <ele>618.5</ele>
        <time>2021-09-20T08:36:18Z</time>
      </trkpt>
      <trkpt lat="43.85687" lon="7.00238">
        <ele>618.5</ele>
        <time>2021-09-20T08:36:19Z</time>
      </trkpt>
      <trkpt lat="43.85687" lon="7.00238">
        <ele>618.5</ele>
        <time>2021-09-20T08:36:21Z</time>
      </trkpt>
      <trkpt lat="43.85687" lon="7.00238">
        <ele>618.5</ele>
        <time>2021-09-20T08:36:22Z</time>
      </trkpt>
      <trkpt lat="43.85686" lon="7.00238">
        <ele>618.6</ele>
        <time>2021-09-20T08:36:24Z</time>
      </trkpt>
      <trkpt lat="43.85686" lon="7.00238">
        <ele>618.6</ele>
        <time>2021-09-20T08:36:25Z</time>
      </trkpt>
      <trkpt lat="43.85686" lon="7.00238">
        <ele>618.6</ele>
        <time>2021-09-20T08:36:27Z</time>
      </trkpt>
      <trkpt lat="43.85685" lon="7.00238">
        <ele>618.7</ele>
        <time>2021-09-20T08:36:29Z</time>
      </trkpt>
      <trkpt lat="43.85685" lon="7.00238">
        <ele>618.7</ele>
        <time>2021-09-20T08:36:30Z</time>
      </trkpt>
      <trkpt lat="43.85685" lon="7.00238">
        <ele>618.7</ele>
        <time>2021-09-20T08:36:31Z</time>
      </trkpt>
      <trkpt lat="43.85682" lon="7.00237">
        <ele>619</ele>
        <time>2021-09-20T08:36:33Z</time>
      </trkpt>
      <trkpt lat="43.85681" lon="7.00236">
        <ele>619.1</ele>
        <time>2021-09-20T08:36:34Z</time>
      </trkpt>
      <trkpt lat="43.85679" lon="7.00234">
        <ele>619.3</ele>
        <time>2021-09-20T08:36:35Z</time>
      </trkpt>
      <trkpt lat="43.85677" lon="7.00233">
        <ele>619.5</ele>
        <time>2021-09-20T08:36:36Z</time>
      </trkpt>
      <trkpt lat="43.85676" lon="7.00232">
        <ele>619.6</ele>
        <time>2021-09-20T08:36:38Z</time>
      </trkpt>
      <trkpt lat="43.85675" lon="7.00231">
        <ele>619.7</ele>
        <time>2021-09-20T08:36:39Z</time>
      </trkpt>
      <trkpt lat="43.85676" lon="7.0023">
        <ele>619.8</ele>
        <time>2021-09-20T08:36:40Z</time>
      </trkpt>
      <trkpt lat="43.85676" lon="7.00229">
        <ele>619.8</ele>
        <time>2021-09-20T08:36:42Z</time>
      </trkpt>
      <trkpt lat="43.85676" lon="7.00229">
        <ele>619.9</ele>
        <time>2021-09-20T08:36:43Z</time>
      </trkpt>
      <trkpt lat="43.85676" lon="7.00228">
        <ele>619.9</ele>
        <time>2021-09-20T08:36:44Z</time>
      </trkpt>
      <trkpt lat="43.85678" lon="7.00228">
        <ele>620</ele>
        <time>2021-09-20T08:36:45Z</time>
      </trkpt>
      <trkpt lat="43.85679" lon="7.00228">
        <ele>620.2</ele>
        <time>2021-09-20T08:36:46Z</time>
      </trkpt>
      <trkpt lat="43.85681" lon="7.00228">
        <ele>620.3</ele>
        <time>2021-09-20T08:36:48Z</time>
      </trkpt>
      <trkpt lat="43.85682" lon="7.00228">
        <ele>620.5</ele>
        <time>2021-09-20T08:36:49Z</time>
      </trkpt>
      <trkpt lat="43.85685" lon="7.00226">
        <ele>620.7</ele>
        <time>2021-09-20T08:36:50Z</time>
      </trkpt>
      <trkpt lat="43.85686" lon="7.00225">
        <ele>620.8</ele>
        <time>2021-09-20T08:36:51Z</time>
      </trkpt>
      <trkpt lat="43.85688" lon="7.00224">
        <ele>621</ele>
        <time>2021-09-20T08:36:53Z</time>
      </trkpt>
      <trkpt lat="43.85689" lon="7.00224">
        <ele>621.1</ele>
        <time>2021-09-20T08:36:54Z</time>
      </trkpt>
      <trkpt lat="43.8569" lon="7.00223">
        <ele>621.2</ele>
        <time>2021-09-20T08:36:55Z</time>
      </trkpt>
      <trkpt lat="43.85691" lon="7.00222">
        <ele>621.2</ele>
        <time>2021-09-20T08:36:56Z</time>
      </trkpt>
      <trkpt lat="43.85692" lon="7.0022">
        <ele>621.3</ele>
        <time>2021-09-20T08:36:58Z</time>
      </trkpt>
      <trkpt lat="43.85692" lon="7.00219">
        <ele>621.4</ele>
        <time>2021-09-20T08:37:00Z</time>
      </trkpt>
      <trkpt lat="43.85693" lon="7.00219">
        <ele>621.4</ele>
        <time>2021-09-20T08:37:01Z</time>
      </trkpt>
      <trkpt lat="43.85693" lon="7.00218">
        <ele>621.5</ele>
        <time>2021-09-20T08:37:02Z</time>
      </trkpt>
      <trkpt lat="43.85693" lon="7.00218">
        <ele>621.5</ele>
        <time>2021-09-20T08:37:04Z</time>
      </trkpt>
      <trkpt lat="43.85693" lon="7.00218">
        <ele>621.5</ele>
        <time>2021-09-20T08:37:05Z</time>
      </trkpt>
      <trkpt lat="43.85693" lon="7.00218">
        <ele>621.5</ele>
        <time>2021-09-20T08:37:06Z</time>
      </trkpt>
      <trkpt lat="43.85693" lon="7.00217">
        <ele>621.5</ele>
        <time>2021-09-20T08:37:07Z</time>
      </trkpt>
      <trkpt lat="43.85694" lon="7.00217">
        <ele>621.6</ele>
        <time>2021-09-20T08:37:09Z</time>
      </trkpt>
      <trkpt lat="43.85694" lon="7.00215">
        <ele>621.7</ele>
        <time>2021-09-20T08:37:10Z</time>
      </trkpt>
      <trkpt lat="43.85693" lon="7.00212">
        <ele>621.8</ele>
        <time>2021-09-20T08:37:11Z</time>
      </trkpt>
      <trkpt lat="43.85694" lon="7.0021">
        <ele>621.9</ele>
        <time>2021-09-20T08:37:12Z</time>
      </trkpt>
      <trkpt lat="43.85694" lon="7.00208">
        <ele>622</ele>
        <time>2021-09-20T08:37:14Z</time>
      </trkpt>
      <trkpt lat="43.85694" lon="7.00207">
        <ele>622.1</ele>
        <time>2021-09-20T08:37:15Z</time>
      </trkpt>
      <trkpt lat="43.85694" lon="7.00206">
        <ele>622.1</ele>
        <time>2021-09-20T08:37:16Z</time>
      </trkpt>
      <trkpt lat="43.85694" lon="7.00205">
        <ele>622.1</ele>
        <time>2021-09-20T08:37:17Z</time>
      </trkpt>
      <trkpt lat="43.85694" lon="7.00205">
        <ele>622.2</ele>
        <time>2021-09-20T08:37:19Z</time>
      </trkpt>
      <trkpt lat="43.85694" lon="7.00204">
        <ele>622.2</ele>
        <time>2021-09-20T08:37:20Z</time>
      </trkpt>
      <trkpt lat="43.85695" lon="7.00204">
        <ele>622.2</ele>
        <time>2021-09-20T08:37:22Z</time>
      </trkpt>
      <trkpt lat="43.85694" lon="7.00202">
        <ele>622.3</ele>
        <time>2021-09-20T08:37:23Z</time>
      </trkpt>
      <trkpt lat="43.85693" lon="7.00199">
        <ele>622.5</ele>
        <time>2021-09-20T08:37:25Z</time>
      </trkpt>
      <trkpt lat="43.85692" lon="7.00196">
        <ele>622.6</ele>
        <time>2021-09-20T08:37:26Z</time>
      </trkpt>
      <trkpt lat="43.85692" lon="7.00195">
        <ele>622.6</ele>
        <time>2021-09-20T08:37:27Z</time>
      </trkpt>
      <trkpt lat="43.85691" lon="7.00192">
        <ele>622.8</ele>
        <time>2021-09-20T08:37:29Z</time>
      </trkpt>
      <trkpt lat="43.85691" lon="7.0019">
        <ele>622.9</ele>
        <time>2021-09-20T08:37:30Z</time>
      </trkpt>
      <trkpt lat="43.85691" lon="7.00189">
        <ele>623</ele>
        <time>2021-09-20T08:37:32Z</time>
      </trkpt>
      <trkpt lat="43.85691" lon="7.00188">
        <ele>623</ele>
        <time>2021-09-20T08:37:33Z</time>
      </trkpt>
      <trkpt lat="43.85691" lon="7.00187">
        <ele>623</ele>
        <time>2021-09-20T08:37:34Z</time>
      </trkpt>
      <trkpt lat="43.85691" lon="7.00186">
        <ele>623.1</ele>
        <time>2021-09-20T08:37:36Z</time>
      </trkpt>
      <trkpt lat="43.85691" lon="7.00184">
        <ele>623.2</ele>
        <time>2021-09-20T08:37:37Z</time>
      </trkpt>
      <trkpt lat="43.85691" lon="7.00182">
        <ele>623.3</ele>
        <time>2021-09-20T08:37:38Z</time>
      </trkpt>
      <trkpt lat="43.85692" lon="7.00178">
        <ele>623.5</ele>
        <time>2021-09-20T08:37:40Z</time>
      </trkpt>
      <trkpt lat="43.85693" lon="7.00177">
        <ele>623.6</ele>
        <time>2021-09-20T08:37:41Z</time>
      </trkpt>
      <trkpt lat="43.85694" lon="7.00174">
        <ele>623.7</ele>
        <time>2021-09-20T08:37:42Z</time>
      </trkpt>
      <trkpt lat="43.85695" lon="7.00172">
        <ele>623.9</ele>
        <time>2021-09-20T08:37:44Z</time>
      </trkpt>
      <trkpt lat="43.85696" lon="7.00169">
        <ele>624</ele>
        <time>2021-09-20T08:37:45Z</time>
      </trkpt>
      <trkpt lat="43.85696" lon="7.00168">
        <ele>624.1</ele>
        <time>2021-09-20T08:37:46Z</time>
      </trkpt>
      <trkpt lat="43.85697" lon="7.00167">
        <ele>624.1</ele>
        <time>2021-09-20T08:37:47Z</time>
      </trkpt>
      <trkpt lat="43.85698" lon="7.00166">
        <ele>624.2</ele>
        <time>2021-09-20T08:37:49Z</time>
      </trkpt>
      <trkpt lat="43.85698" lon="7.00165">
        <ele>624.2</ele>
        <time>2021-09-20T08:37:50Z</time>
      </trkpt>
      <trkpt lat="43.85699" lon="7.00165">
        <ele>624.3</ele>
        <time>2021-09-20T08:37:51Z</time>
      </trkpt>
      <trkpt lat="43.85699" lon="7.00165">
        <ele>624.3</ele>
        <time>2021-09-20T08:37:53Z</time>
      </trkpt>
      <trkpt lat="43.85699" lon="7.00164">
        <ele>624.3</ele>
        <time>2021-09-20T08:37:54Z</time>
      </trkpt>
      <trkpt lat="43.85699" lon="7.00164">
        <ele>624.3</ele>
        <time>2021-09-20T08:37:56Z</time>
      </trkpt>
      <trkpt lat="43.85699" lon="7.00164">
        <ele>624.3</ele>
        <time>2021-09-20T08:37:57Z</time>
      </trkpt>
      <trkpt lat="43.857" lon="7.00164">
        <ele>624.3</ele>
        <time>2021-09-20T08:37:58Z</time>
      </trkpt>
      <trkpt lat="43.857" lon="7.00164">
        <ele>624.3</ele>
        <time>2021-09-20T08:38:00Z</time>
      </trkpt>
      <trkpt lat="43.857" lon="7.00163">
        <ele>624.4</ele>
        <time>2021-09-20T08:38:01Z</time>
      </trkpt>
      <trkpt lat="43.85702" lon="7.00161">
        <ele>624.5</ele>
        <time>2021-09-20T08:38:03Z</time>
      </trkpt>
      <trkpt lat="43.85703" lon="7.0016">
        <ele>624.6</ele>
        <time>2021-09-20T08:38:04Z</time>
      </trkpt>
      <trkpt lat="43.85705" lon="7.00158">
        <ele>624.7</ele>
        <time>2021-09-20T08:38:06Z</time>
      </trkpt>
      <trkpt lat="43.85706" lon="7.00157">
        <ele>624.8</ele>
        <time>2021-09-20T08:38:08Z</time>
      </trkpt>
      <trkpt lat="43.85706" lon="7.00156">
        <ele>624.8</ele>
        <time>2021-09-20T08:38:09Z</time>
      </trkpt>
      <trkpt lat="43.85707" lon="7.00156">
        <ele>624.9</ele>
        <time>2021-09-20T08:38:10Z</time>
      </trkpt>
      <trkpt lat="43.85707" lon="7.00155">
        <ele>624.9</ele>
        <time>2021-09-20T08:38:12Z</time>
      </trkpt>
      <trkpt lat="43.85707" lon="7.00155">
        <ele>624.9</ele>
        <time>2021-09-20T08:38:13Z</time>
      </trkpt>
      <trkpt lat="43.85708" lon="7.00154">
        <ele>624.9</ele>
        <time>2021-09-20T08:38:14Z</time>
      </trkpt>
      <trkpt lat="43.85708" lon="7.00153">
        <ele>625</ele>
        <time>2021-09-20T08:38:15Z</time>
      </trkpt>
      <trkpt lat="43.8571" lon="7.00151">
        <ele>625.2</ele>
        <time>2021-09-20T08:38:17Z</time>
      </trkpt>
      <trkpt lat="43.85712" lon="7.00149">
        <ele>625.3</ele>
        <time>2021-09-20T08:38:18Z</time>
      </trkpt>
      <trkpt lat="43.85713" lon="7.00148">
        <ele>625.4</ele>
        <time>2021-09-20T08:38:19Z</time>
      </trkpt>
      <trkpt lat="43.85714" lon="7.00147">
        <ele>625.5</ele>
        <time>2021-09-20T08:38:20Z</time>
      </trkpt>
      <trkpt lat="43.85715" lon="7.00146">
        <ele>625.6</ele>
        <time>2021-09-20T08:38:22Z</time>
      </trkpt>
      <trkpt lat="43.85716" lon="7.00145">
        <ele>625.6</ele>
        <time>2021-09-20T08:38:23Z</time>
      </trkpt>
      <trkpt lat="43.85716" lon="7.00145">
        <ele>625.7</ele>
        <time>2021-09-20T08:38:24Z</time>
      </trkpt>
      <trkpt lat="43.85717" lon="7.00145">
        <ele>625.7</ele>
        <time>2021-09-20T08:38:25Z</time>
      </trkpt>
      <trkpt lat="43.85717" lon="7.00145">
        <ele>625.7</ele>
        <time>2021-09-20T08:38:26Z</time>
      </trkpt>
      <trkpt lat="43.85719" lon="7.00143">
        <ele>625.9</ele>
        <time>2021-09-20T08:38:28Z</time>
      </trkpt>
      <trkpt lat="43.85722" lon="7.00142">
        <ele>626.1</ele>
        <time>2021-09-20T08:38:29Z</time>
      </trkpt>
      <trkpt lat="43.85723" lon="7.00141">
        <ele>626.2</ele>
        <time>2021-09-20T08:38:30Z</time>
      </trkpt>
      <trkpt lat="43.85725" lon="7.0014">
        <ele>626.3</ele>
        <time>2021-09-20T08:38:32Z</time>
      </trkpt>
      <trkpt lat="43.85726" lon="7.0014">
        <ele>626.4</ele>
        <time>2021-09-20T08:38:34Z</time>
      </trkpt>
      <trkpt lat="43.85729" lon="7.0014">
        <ele>626.6</ele>
        <time>2021-09-20T08:38:35Z</time>
      </trkpt>
      <trkpt lat="43.85732" lon="7.0014">
        <ele>626.9</ele>
        <time>2021-09-20T08:38:37Z</time>
      </trkpt>
      <trkpt lat="43.85735" lon="7.0014">
        <ele>627.1</ele>
        <time>2021-09-20T08:38:38Z</time>
      </trkpt>
      <trkpt lat="43.85737" lon="7.0014">
        <ele>627.3</ele>
        <time>2021-09-20T08:38:39Z</time>
      </trkpt>
      <trkpt lat="43.85741" lon="7.0014">
        <ele>627.6</ele>
        <time>2021-09-20T08:38:41Z</time>
      </trkpt>
      <trkpt lat="43.85743" lon="7.0014">
        <ele>627.7</ele>
        <time>2021-09-20T08:38:42Z</time>
      </trkpt>
      <trkpt lat="43.85746" lon="7.00139">
        <ele>628</ele>
        <time>2021-09-20T08:38:44Z</time>
      </trkpt>
      <trkpt lat="43.85748" lon="7.00138">
        <ele>628.1</ele>
        <time>2021-09-20T08:38:45Z</time>
      </trkpt>
      <trkpt lat="43.85749" lon="7.00137">
        <ele>628.2</ele>
        <time>2021-09-20T08:38:46Z</time>
      </trkpt>
      <trkpt lat="43.85749" lon="7.00137">
        <ele>628.2</ele>
        <time>2021-09-20T08:38:47Z</time>
      </trkpt>
      <trkpt lat="43.8575" lon="7.00136">
        <ele>628.3</ele>
        <time>2021-09-20T08:38:49Z</time>
      </trkpt>
      <trkpt lat="43.85751" lon="7.00136">
        <ele>628.3</ele>
        <time>2021-09-20T08:38:50Z</time>
      </trkpt>
      <trkpt lat="43.85751" lon="7.00135">
        <ele>628.4</ele>
        <time>2021-09-20T08:38:52Z</time>
      </trkpt>
      <trkpt lat="43.85752" lon="7.00135">
        <ele>628.4</ele>
        <time>2021-09-20T08:38:53Z</time>
      </trkpt>
      <trkpt lat="43.85752" lon="7.00134">
        <ele>628.4</ele>
        <time>2021-09-20T08:38:55Z</time>
      </trkpt>
      <trkpt lat="43.85757" lon="7.00131">
        <ele>628.8</ele>
        <time>2021-09-20T08:39:24Z</time>
      </trkpt>
      <trkpt lat="43.85759" lon="7.00131">
        <ele>629</ele>
        <time>2021-09-20T08:39:25Z</time>
      </trkpt>
      <trkpt lat="43.85762" lon="7.00129">
        <ele>629.3</ele>
        <time>2021-09-20T08:39:27Z</time>
      </trkpt>
      <trkpt lat="43.85765" lon="7.0013">
        <ele>629.5</ele>
        <time>2021-09-20T08:39:28Z</time>
      </trkpt>
      <trkpt lat="43.85766" lon="7.0013">
        <ele>629.6</ele>
        <time>2021-09-20T08:39:29Z</time>
      </trkpt>
      <trkpt lat="43.85769" lon="7.00132">
        <ele>629.8</ele>
        <time>2021-09-20T08:39:31Z</time>
      </trkpt>
      <trkpt lat="43.85769" lon="7.00132">
        <ele>629.9</ele>
        <time>2021-09-20T08:39:32Z</time>
      </trkpt>
      <trkpt lat="43.85769" lon="7.00132">
        <ele>629.9</ele>
        <time>2021-09-20T08:39:33Z</time>
      </trkpt>
      <trkpt lat="43.8577" lon="7.00132">
        <ele>629.9</ele>
        <time>2021-09-20T08:39:35Z</time>
      </trkpt>
      <trkpt lat="43.8577" lon="7.00132">
        <ele>629.9</ele>
        <time>2021-09-20T08:39:36Z</time>
      </trkpt>
      <trkpt lat="43.8577" lon="7.00132">
        <ele>629.9</ele>
        <time>2021-09-20T08:39:37Z</time>
      </trkpt>
      <trkpt lat="43.8577" lon="7.00133">
        <ele>630</ele>
        <time>2021-09-20T08:39:39Z</time>
      </trkpt>
      <trkpt lat="43.85782" lon="7.00167">
        <ele>631.4</ele>
        <time>2021-09-20T08:40:02Z</time>
      </trkpt>
      <trkpt lat="43.85785" lon="7.00169">
        <ele>631.5</ele>
        <time>2021-09-20T08:40:03Z</time>
      </trkpt>
      <trkpt lat="43.85786" lon="7.00168">
        <ele>631.5</ele>
        <time>2021-09-20T08:40:04Z</time>
      </trkpt>
      <trkpt lat="43.85787" lon="7.00168">
        <ele>631.6</ele>
        <time>2021-09-20T08:40:05Z</time>
      </trkpt>
      <trkpt lat="43.85788" lon="7.00168">
        <ele>631.6</ele>
        <time>2021-09-20T08:40:07Z</time>
      </trkpt>
      <trkpt lat="43.85788" lon="7.00168">
        <ele>631.6</ele>
        <time>2021-09-20T08:40:08Z</time>
      </trkpt>
      <trkpt lat="43.85789" lon="7.00169">
        <ele>631.6</ele>
        <time>2021-09-20T08:40:10Z</time>
      </trkpt>
      <trkpt lat="43.85789" lon="7.00171">
        <ele>631.7</ele>
        <time>2021-09-20T08:40:11Z</time>
      </trkpt>
      <trkpt lat="43.85789" lon="7.00174">
        <ele>631.8</ele>
        <time>2021-09-20T08:40:13Z</time>
      </trkpt>
      <trkpt lat="43.8579" lon="7.00177">
        <ele>631.9</ele>
        <time>2021-09-20T08:40:14Z</time>
      </trkpt>
      <trkpt lat="43.85791" lon="7.0018">
        <ele>632</ele>
        <time>2021-09-20T08:40:16Z</time>
      </trkpt>
      <trkpt lat="43.85792" lon="7.00183">
        <ele>632.1</ele>
        <time>2021-09-20T08:40:17Z</time>
      </trkpt>
      <trkpt lat="43.85793" lon="7.00185">
        <ele>632.1</ele>
        <time>2021-09-20T08:40:19Z</time>
      </trkpt>
      <trkpt lat="43.85795" lon="7.00186">
        <ele>632.3</ele>
        <time>2021-09-20T08:40:20Z</time>
      </trkpt>
      <trkpt lat="43.85797" lon="7.00187">
        <ele>632.3</ele>
        <time>2021-09-20T08:40:21Z</time>
      </trkpt>
      <trkpt lat="43.85798" lon="7.00188">
        <ele>632.4</ele>
        <time>2021-09-20T08:40:22Z</time>
      </trkpt>
      <trkpt lat="43.85801" lon="7.00189">
        <ele>632.5</ele>
        <time>2021-09-20T08:40:23Z</time>
      </trkpt>
      <trkpt lat="43.85804" lon="7.00191">
        <ele>632.7</ele>
        <time>2021-09-20T08:40:25Z</time>
      </trkpt>
      <trkpt lat="43.85807" lon="7.00192">
        <ele>632.8</ele>
        <time>2021-09-20T08:40:26Z</time>
      </trkpt>
      <trkpt lat="43.8581" lon="7.00194">
        <ele>632.9</ele>
        <time>2021-09-20T08:40:28Z</time>
      </trkpt>
      <trkpt lat="43.85812" lon="7.00195">
        <ele>633</ele>
        <time>2021-09-20T08:40:29Z</time>
      </trkpt>
      <trkpt lat="43.85815" lon="7.00196">
        <ele>633.1</ele>
        <time>2021-09-20T08:40:31Z</time>
      </trkpt>
      <trkpt lat="43.85817" lon="7.00198">
        <ele>633.2</ele>
        <time>2021-09-20T08:40:32Z</time>
      </trkpt>
      <trkpt lat="43.85817" lon="7.002">
        <ele>633.3</ele>
        <time>2021-09-20T08:40:33Z</time>
      </trkpt>
      <trkpt lat="43.85818" lon="7.00202">
        <ele>633.4</ele>
        <time>2021-09-20T08:40:35Z</time>
      </trkpt>
      <trkpt lat="43.85819" lon="7.00203">
        <ele>633.4</ele>
        <time>2021-09-20T08:40:36Z</time>
      </trkpt>
      <trkpt lat="43.8582" lon="7.00204">
        <ele>633.5</ele>
        <time>2021-09-20T08:40:37Z</time>
      </trkpt>
      <trkpt lat="43.85821" lon="7.00206">
        <ele>633.6</ele>
        <time>2021-09-20T08:40:38Z</time>
      </trkpt>
      <trkpt lat="43.85822" lon="7.00207">
        <ele>633.6</ele>
        <time>2021-09-20T08:40:39Z</time>
      </trkpt>
      <trkpt lat="43.85824" lon="7.00209">
        <ele>633.8</ele>
        <time>2021-09-20T08:40:41Z</time>
      </trkpt>
      <trkpt lat="43.85852" lon="7.00215">
        <ele>635.2</ele>
        <time>2021-09-20T08:41:02Z</time>
      </trkpt>
      <trkpt lat="43.85857" lon="7.00212">
        <ele>635.5</ele>
        <time>2021-09-20T08:41:04Z</time>
      </trkpt>
      <trkpt lat="43.85859" lon="7.00208">
        <ele>635.7</ele>
        <time>2021-09-20T08:41:05Z</time>
      </trkpt>
      <trkpt lat="43.85862" lon="7.00205">
        <ele>635.9</ele>
        <time>2021-09-20T08:41:07Z</time>
      </trkpt>
      <trkpt lat="43.85865" lon="7.00201">
        <ele>636.1</ele>
        <time>2021-09-20T08:41:08Z</time>
      </trkpt>
      <trkpt lat="43.85867" lon="7.00199">
        <ele>636.1</ele>
        <time>2021-09-20T08:41:09Z</time>
      </trkpt>
      <trkpt lat="43.85868" lon="7.002">
        <ele>636.1</ele>
        <time>2021-09-20T08:41:11Z</time>
      </trkpt>
      <trkpt lat="43.85868" lon="7.002">
        <ele>636.2</ele>
        <time>2021-09-20T08:41:12Z</time>
      </trkpt>
      <trkpt lat="43.85868" lon="7.002">
        <ele>636.2</ele>
        <time>2021-09-20T08:41:13Z</time>
      </trkpt>
      <trkpt lat="43.85868" lon="7.002">
        <ele>636.2</ele>
        <time>2021-09-20T08:41:14Z</time>
      </trkpt>
      <trkpt lat="43.85868" lon="7.00201">
        <ele>636.2</ele>
        <time>2021-09-20T08:41:15Z</time>
      </trkpt>
      <trkpt lat="43.859" lon="7.00194">
        <ele>637.6</ele>
        <time>2021-09-20T08:41:38Z</time>
      </trkpt>
      <trkpt lat="43.85904" lon="7.00196">
        <ele>637.8</ele>
        <time>2021-09-20T08:41:40Z</time>
      </trkpt>
      <trkpt lat="43.85906" lon="7.00196">
        <ele>637.9</ele>
        <time>2021-09-20T08:41:41Z</time>
      </trkpt>
      <trkpt lat="43.85907" lon="7.00195">
        <ele>638</ele>
        <time>2021-09-20T08:41:42Z</time>
      </trkpt>
      <trkpt lat="43.85909" lon="7.00194">
        <ele>638.1</ele>
        <time>2021-09-20T08:41:43Z</time>
      </trkpt>
      <trkpt lat="43.85911" lon="7.0019">
        <ele>638.3</ele>
        <time>2021-09-20T08:41:45Z</time>
      </trkpt>
      <trkpt lat="43.85912" lon="7.0019">
        <ele>638.4</ele>
        <time>2021-09-20T08:41:46Z</time>
      </trkpt>
      <trkpt lat="43.85912" lon="7.0019">
        <ele>638.4</ele>
        <time>2021-09-20T08:41:47Z</time>
      </trkpt>
      <trkpt lat="43.85916" lon="7.00189">
        <ele>638.6</ele>
        <time>2021-09-20T08:41:49Z</time>
      </trkpt>
      <trkpt lat="43.85922" lon="7.00188">
        <ele>638.8</ele>
        <time>2021-09-20T08:41:51Z</time>
      </trkpt>
      <trkpt lat="43.85923" lon="7.00189">
        <ele>638.9</ele>
        <time>2021-09-20T08:41:52Z</time>
      </trkpt>
      <trkpt lat="43.85925" lon="7.00189">
        <ele>638.9</ele>
        <time>2021-09-20T08:41:53Z</time>
      </trkpt>
      <trkpt lat="43.85928" lon="7.00192">
        <ele>639</ele>
        <time>2021-09-20T08:41:55Z</time>
      </trkpt>
      <trkpt lat="43.85929" lon="7.00195">
        <ele>639.2</ele>
        <time>2021-09-20T08:41:57Z</time>
      </trkpt>
      <trkpt lat="43.85931" lon="7.00196">
        <ele>639.2</ele>
        <time>2021-09-20T08:41:58Z</time>
      </trkpt>
      <trkpt lat="43.85932" lon="7.00197">
        <ele>639.3</ele>
        <time>2021-09-20T08:41:59Z</time>
      </trkpt>
      <trkpt lat="43.85933" lon="7.00197">
        <ele>639.3</ele>
        <time>2021-09-20T08:42:00Z</time>
      </trkpt>
      <trkpt lat="43.85935" lon="7.002">
        <ele>639.4</ele>
        <time>2021-09-20T08:42:02Z</time>
      </trkpt>
      <trkpt lat="43.85936" lon="7.00201">
        <ele>639.5</ele>
        <time>2021-09-20T08:42:03Z</time>
      </trkpt>
      <trkpt lat="43.85938" lon="7.00203">
        <ele>639.6</ele>
        <time>2021-09-20T08:42:05Z</time>
      </trkpt>
      <trkpt lat="43.85939" lon="7.00204">
        <ele>639.7</ele>
        <time>2021-09-20T08:42:06Z</time>
      </trkpt>
      <trkpt lat="43.85941" lon="7.00205">
        <ele>639.7</ele>
        <time>2021-09-20T08:42:07Z</time>
      </trkpt>
      <trkpt lat="43.85943" lon="7.00206">
        <ele>639.8</ele>
        <time>2021-09-20T08:42:09Z</time>
      </trkpt>
      <trkpt lat="43.85943" lon="7.00207">
        <ele>639.8</ele>
        <time>2021-09-20T08:42:10Z</time>
      </trkpt>
      <trkpt lat="43.85944" lon="7.0021">
        <ele>639.9</ele>
        <time>2021-09-20T08:42:11Z</time>
      </trkpt>
      <trkpt lat="43.85945" lon="7.00211">
        <ele>640</ele>
        <time>2021-09-20T08:42:12Z</time>
      </trkpt>
      <trkpt lat="43.85947" lon="7.00215">
        <ele>640</ele>
        <time>2021-09-20T08:42:14Z</time>
      </trkpt>
      <trkpt lat="43.85947" lon="7.00216">
        <ele>640.1</ele>
        <time>2021-09-20T08:42:15Z</time>
      </trkpt>
      <trkpt lat="43.8595" lon="7.00218">
        <ele>640.1</ele>
        <time>2021-09-20T08:42:17Z</time>
      </trkpt>
      <trkpt lat="43.85951" lon="7.0022">
        <ele>640.1</ele>
        <time>2021-09-20T08:42:19Z</time>
      </trkpt>
      <trkpt lat="43.85952" lon="7.00222">
        <ele>640.2</ele>
        <time>2021-09-20T08:42:20Z</time>
      </trkpt>
      <trkpt lat="43.85953" lon="7.00224">
        <ele>640.2</ele>
        <time>2021-09-20T08:42:21Z</time>
      </trkpt>
      <trkpt lat="43.85954" lon="7.00226">
        <ele>640.2</ele>
        <time>2021-09-20T08:42:22Z</time>
      </trkpt>
      <trkpt lat="43.85955" lon="7.00228">
        <ele>640.2</ele>
        <time>2021-09-20T08:42:23Z</time>
      </trkpt>
      <trkpt lat="43.85956" lon="7.00232">
        <ele>640.2</ele>
        <time>2021-09-20T08:42:25Z</time>
      </trkpt>
      <trkpt lat="43.8596" lon="7.00236">
        <ele>640.2</ele>
        <time>2021-09-20T08:42:27Z</time>
      </trkpt>
      <trkpt lat="43.85961" lon="7.00237">
        <ele>640.2</ele>
        <time>2021-09-20T08:42:29Z</time>
      </trkpt>
      <trkpt lat="43.85961" lon="7.00239">
        <ele>640.1</ele>
        <time>2021-09-20T08:42:30Z</time>
      </trkpt>
      <trkpt lat="43.85962" lon="7.00241">
        <ele>640.1</ele>
        <time>2021-09-20T08:42:31Z</time>
      </trkpt>
      <trkpt lat="43.85964" lon="7.00244">
        <ele>640.1</ele>
        <time>2021-09-20T08:42:33Z</time>
      </trkpt>
      <trkpt lat="43.85966" lon="7.00247">
        <ele>640.1</ele>
        <time>2021-09-20T08:42:34Z</time>
      </trkpt>
      <trkpt lat="43.85966" lon="7.00248">
        <ele>640.1</ele>
        <time>2021-09-20T08:42:35Z</time>
      </trkpt>
      <trkpt lat="43.85968" lon="7.00251">
        <ele>640.1</ele>
        <time>2021-09-20T08:42:36Z</time>
      </trkpt>
      <trkpt lat="43.85968" lon="7.00251">
        <ele>640.1</ele>
        <time>2021-09-20T08:42:37Z</time>
      </trkpt>
      <trkpt lat="43.85969" lon="7.00252">
        <ele>640.1</ele>
        <time>2021-09-20T08:42:39Z</time>
      </trkpt>
      <trkpt lat="43.8597" lon="7.00252">
        <ele>640.1</ele>
        <time>2021-09-20T08:42:40Z</time>
      </trkpt>
      <trkpt lat="43.8597" lon="7.00253">
        <ele>640.1</ele>
        <time>2021-09-20T08:42:41Z</time>
      </trkpt>
      <trkpt lat="43.85971" lon="7.00254">
        <ele>640.2</ele>
        <time>2021-09-20T08:42:42Z</time>
      </trkpt>
      <trkpt lat="43.85971" lon="7.00254">
        <ele>640.2</ele>
        <time>2021-09-20T08:42:44Z</time>
      </trkpt>
      <trkpt lat="43.85972" lon="7.00255">
        <ele>640.2</ele>
        <time>2021-09-20T08:42:45Z</time>
      </trkpt>
      <trkpt lat="43.85972" lon="7.00255">
        <ele>640.2</ele>
        <time>2021-09-20T08:42:46Z</time>
      </trkpt>
      <trkpt lat="43.85982" lon="7.00276">
        <ele>640.7</ele>
        <time>2021-09-20T08:42:59Z</time>
      </trkpt>
      <trkpt lat="43.85985" lon="7.0028">
        <ele>640.8</ele>
        <time>2021-09-20T08:43:00Z</time>
      </trkpt>
      <trkpt lat="43.85987" lon="7.00284">
        <ele>640.9</ele>
        <time>2021-09-20T08:43:01Z</time>
      </trkpt>
      <trkpt lat="43.85992" lon="7.00287">
        <ele>641.1</ele>
        <time>2021-09-20T08:43:03Z</time>
      </trkpt>
      <trkpt lat="43.85996" lon="7.0029">
        <ele>641.2</ele>
        <time>2021-09-20T08:43:04Z</time>
      </trkpt>
      <trkpt lat="43.85999" lon="7.00291">
        <ele>641.2</ele>
        <time>2021-09-20T08:43:05Z</time>
      </trkpt>
      <trkpt lat="43.86002" lon="7.00293">
        <ele>641.3</ele>
        <time>2021-09-20T08:43:06Z</time>
      </trkpt>
      <trkpt lat="43.86005" lon="7.00293">
        <ele>641.3</ele>
        <time>2021-09-20T08:43:07Z</time>
      </trkpt>
      <trkpt lat="43.86013" lon="7.00295">
        <ele>641.5</ele>
        <time>2021-09-20T08:43:09Z</time>
      </trkpt>
      <trkpt lat="43.86014" lon="7.00295">
        <ele>641.5</ele>
        <time>2021-09-20T08:43:11Z</time>
      </trkpt>
      <trkpt lat="43.86014" lon="7.00295">
        <ele>641.5</ele>
        <time>2021-09-20T08:43:12Z</time>
      </trkpt>
      <trkpt lat="43.86014" lon="7.00296">
        <ele>641.5</ele>
        <time>2021-09-20T08:43:14Z</time>
      </trkpt>
      <trkpt lat="43.86014" lon="7.00296">
        <ele>641.6</ele>
        <time>2021-09-20T08:43:15Z</time>
      </trkpt>
      <trkpt lat="43.86014" lon="7.00296">
        <ele>641.6</ele>
        <time>2021-09-20T08:43:16Z</time>
      </trkpt>
      <trkpt lat="43.86015" lon="7.00296">
        <ele>641.6</ele>
        <time>2021-09-20T08:43:17Z</time>
      </trkpt>
      <trkpt lat="43.86015" lon="7.00296">
        <ele>641.6</ele>
        <time>2021-09-20T08:43:18Z</time>
      </trkpt>
      <trkpt lat="43.86022" lon="7.00292">
        <ele>641.9</ele>
        <time>2021-09-20T08:43:20Z</time>
      </trkpt>
      <trkpt lat="43.86029" lon="7.00288">
        <ele>642.2</ele>
        <time>2021-09-20T08:43:50Z</time>
      </trkpt>
      <trkpt lat="43.86036" lon="7.00284">
        <ele>650.6</ele>
        <time>2021-09-20T08:43:51Z</time>
      </trkpt>
      <trkpt lat="43.86043" lon="7.0028">
        <ele>652.5</ele>
        <time>2021-09-20T08:43:52Z</time>
      </trkpt>
      <trkpt lat="43.86042" lon="7.00279">
        <ele>652.8</ele>
        <time>2021-09-20T08:43:54Z</time>
      </trkpt>
      <trkpt lat="43.86042" lon="7.00277">
        <ele>653</ele>
        <time>2021-09-20T08:43:55Z</time>
      </trkpt>
      <trkpt lat="43.86043" lon="7.00277">
        <ele>653.1</ele>
        <time>2021-09-20T08:43:57Z</time>
      </trkpt>
      <trkpt lat="43.86042" lon="7.00277">
        <ele>653.2</ele>
        <time>2021-09-20T08:43:58Z</time>
      </trkpt>
      <trkpt lat="43.86042" lon="7.00277">
        <ele>653.3</ele>
        <time>2021-09-20T08:43:59Z</time>
      </trkpt>
      <trkpt lat="43.86041" lon="7.00276">
        <ele>653.4</ele>
        <time>2021-09-20T08:44:00Z</time>
      </trkpt>
      <trkpt lat="43.86039" lon="7.00277">
        <ele>653.6</ele>
        <time>2021-09-20T08:44:01Z</time>
      </trkpt>
      <trkpt lat="43.86038" lon="7.00277">
        <ele>653.8</ele>
        <time>2021-09-20T08:44:02Z</time>
      </trkpt>
      <trkpt lat="43.86036" lon="7.00277">
        <ele>654.2</ele>
        <time>2021-09-20T08:44:04Z</time>
      </trkpt>
      <trkpt lat="43.86031" lon="7.00278">
        <ele>654.9</ele>
        <time>2021-09-20T08:44:06Z</time>
      </trkpt>
      <trkpt lat="43.86029" lon="7.00278">
        <ele>655.1</ele>
        <time>2021-09-20T08:44:07Z</time>
      </trkpt>
      <trkpt lat="43.86027" lon="7.00279">
        <ele>655.4</ele>
        <time>2021-09-20T08:44:08Z</time>
      </trkpt>
      <trkpt lat="43.86023" lon="7.00281">
        <ele>655.9</ele>
        <time>2021-09-20T08:44:09Z</time>
      </trkpt>
      <trkpt lat="43.86021" lon="7.00282">
        <ele>656.2</ele>
        <time>2021-09-20T08:44:10Z</time>
      </trkpt>
      <trkpt lat="43.8602" lon="7.00283">
        <ele>656.4</ele>
        <time>2021-09-20T08:44:12Z</time>
      </trkpt>
      <trkpt lat="43.86019" lon="7.00283">
        <ele>656.5</ele>
        <time>2021-09-20T08:44:13Z</time>
      </trkpt>
      <trkpt lat="43.86019" lon="7.00283">
        <ele>656.5</ele>
        <time>2021-09-20T08:44:14Z</time>
      </trkpt>
      <trkpt lat="43.86019" lon="7.00281">
        <ele>656.6</ele>
        <time>2021-09-20T08:44:16Z</time>
      </trkpt>
      <trkpt lat="43.86019" lon="7.00279">
        <ele>656.8</ele>
        <time>2021-09-20T08:44:18Z</time>
      </trkpt>
      <trkpt lat="43.86012" lon="7.00266">
        <ele>658.2</ele>
        <time>2021-09-20T08:44:25Z</time>
      </trkpt>
      <trkpt lat="43.86009" lon="7.00261">
        <ele>658.7</ele>
        <time>2021-09-20T08:44:27Z</time>
      </trkpt>
      <trkpt lat="43.86006" lon="7.00257">
        <ele>659.1</ele>
        <time>2021-09-20T08:44:28Z</time>
      </trkpt>
      <trkpt lat="43.86004" lon="7.00254">
        <ele>659.4</ele>
        <time>2021-09-20T08:44:29Z</time>
      </trkpt>
      <trkpt lat="43.86002" lon="7.00252">
        <ele>659.7</ele>
        <time>2021-09-20T08:44:30Z</time>
      </trkpt>
      <trkpt lat="43.85998" lon="7.00246">
        <ele>660.3</ele>
        <time>2021-09-20T08:44:32Z</time>
      </trkpt>
      <trkpt lat="43.85997" lon="7.00242">
        <ele>660.6</ele>
        <time>2021-09-20T08:44:33Z</time>
      </trkpt>
      <trkpt lat="43.85996" lon="7.0024">
        <ele>660.7</ele>
        <time>2021-09-20T08:44:34Z</time>
      </trkpt>
      <trkpt lat="43.85994" lon="7.00236">
        <ele>661.1</ele>
        <time>2021-09-20T08:44:36Z</time>
      </trkpt>
      <trkpt lat="43.85993" lon="7.00233">
        <ele>661.3</ele>
        <time>2021-09-20T08:44:37Z</time>
      </trkpt>
      <trkpt lat="43.85993" lon="7.00232">
        <ele>661.4</ele>
        <time>2021-09-20T08:44:39Z</time>
      </trkpt>
      <trkpt lat="43.85992" lon="7.00231">
        <ele>661.5</ele>
        <time>2021-09-20T08:44:40Z</time>
      </trkpt>
      <trkpt lat="43.85991" lon="7.00229">
        <ele>661.6</ele>
        <time>2021-09-20T08:44:41Z</time>
      </trkpt>
      <trkpt lat="43.85989" lon="7.00224">
        <ele>662.1</ele>
        <time>2021-09-20T08:44:43Z</time>
      </trkpt>
      <trkpt lat="43.85988" lon="7.00222">
        <ele>662.2</ele>
        <time>2021-09-20T08:44:44Z</time>
      </trkpt>
      <trkpt lat="43.85987" lon="7.0022">
        <ele>662.3</ele>
        <time>2021-09-20T08:44:45Z</time>
      </trkpt>
      <trkpt lat="43.85987" lon="7.00217">
        <ele>662.5</ele>
        <time>2021-09-20T08:44:46Z</time>
      </trkpt>
      <trkpt lat="43.85987" lon="7.00213">
        <ele>662.8</ele>
        <time>2021-09-20T08:44:48Z</time>
      </trkpt>
      <trkpt lat="43.85985" lon="7.00209">
        <ele>663.1</ele>
        <time>2021-09-20T08:44:49Z</time>
      </trkpt>
      <trkpt lat="43.85985" lon="7.00207">
        <ele>663.2</ele>
        <time>2021-09-20T08:44:50Z</time>
      </trkpt>
      <trkpt lat="43.85983" lon="7.00202">
        <ele>663.6</ele>
        <time>2021-09-20T08:44:52Z</time>
      </trkpt>
      <trkpt lat="43.85981" lon="7.00198">
        <ele>663.9</ele>
        <time>2021-09-20T08:44:53Z</time>
      </trkpt>
      <trkpt lat="43.8598" lon="7.00197">
        <ele>664</ele>
        <time>2021-09-20T08:44:54Z</time>
      </trkpt>
      <trkpt lat="43.85977" lon="7.00194">
        <ele>664.3</ele>
        <time>2021-09-20T08:44:55Z</time>
      </trkpt>
      <trkpt lat="43.85973" lon="7.00189">
        <ele>664.7</ele>
        <time>2021-09-20T08:44:57Z</time>
      </trkpt>
      <trkpt lat="43.85971" lon="7.00187">
        <ele>665</ele>
        <time>2021-09-20T08:44:58Z</time>
      </trkpt>
      <trkpt lat="43.85966" lon="7.00184">
        <ele>665.5</ele>
        <time>2021-09-20T08:45:00Z</time>
      </trkpt>
      <trkpt lat="43.85961" lon="7.0018">
        <ele>666</ele>
        <time>2021-09-20T08:45:01Z</time>
      </trkpt>
      <trkpt lat="43.85959" lon="7.00176">
        <ele>666.4</ele>
        <time>2021-09-20T08:45:03Z</time>
      </trkpt>
      <trkpt lat="43.85957" lon="7.00172">
        <ele>666.8</ele>
        <time>2021-09-20T08:45:04Z</time>
      </trkpt>
      <trkpt lat="43.85955" lon="7.0017">
        <ele>667.1</ele>
        <time>2021-09-20T08:45:05Z</time>
      </trkpt>
      <trkpt lat="43.85952" lon="7.00167">
        <ele>667.4</ele>
        <time>2021-09-20T08:45:07Z</time>
      </trkpt>
      <trkpt lat="43.85949" lon="7.00164">
        <ele>667.8</ele>
        <time>2021-09-20T08:45:08Z</time>
      </trkpt>
      <trkpt lat="43.85946" lon="7.00162">
        <ele>668.1</ele>
        <time>2021-09-20T08:45:09Z</time>
      </trkpt>
      <trkpt lat="43.85942" lon="7.00157">
        <ele>668.6</ele>
        <time>2021-09-20T08:45:11Z</time>
      </trkpt>
      <trkpt lat="43.85938" lon="7.00155">
        <ele>669.1</ele>
        <time>2021-09-20T08:45:12Z</time>
      </trkpt>
      <trkpt lat="43.85936" lon="7.00153">
        <ele>669.4</ele>
        <time>2021-09-20T08:45:13Z</time>
      </trkpt>
      <trkpt lat="43.85933" lon="7.00147">
        <ele>670</ele>
        <time>2021-09-20T08:45:14Z</time>
      </trkpt>
      <trkpt lat="43.85931" lon="7.00141">
        <ele>670.5</ele>
        <time>2021-09-20T08:45:15Z</time>
      </trkpt>
      <trkpt lat="43.85928" lon="7.00131">
        <ele>671.4</ele>
        <time>2021-09-20T08:45:17Z</time>
      </trkpt>
      <trkpt lat="43.85924" lon="7.00125">
        <ele>672</ele>
        <time>2021-09-20T08:45:19Z</time>
      </trkpt>
      <trkpt lat="43.85921" lon="7.00124">
        <ele>672.4</ele>
        <time>2021-09-20T08:45:20Z</time>
      </trkpt>
      <trkpt lat="43.85917" lon="7.00122">
        <ele>672.8</ele>
        <time>2021-09-20T08:45:22Z</time>
      </trkpt>
      <trkpt lat="43.85917" lon="7.00125">
        <ele>673</ele>
        <time>2021-09-20T08:45:24Z</time>
      </trkpt>
      <trkpt lat="43.85916" lon="7.00129">
        <ele>673.3</ele>
        <time>2021-09-20T08:45:26Z</time>
      </trkpt>
      <trkpt lat="43.85915" lon="7.00135">
        <ele>673.8</ele>
        <time>2021-09-20T08:45:27Z</time>
      </trkpt>
      <trkpt lat="43.85914" lon="7.00137">
        <ele>674.1</ele>
        <time>2021-09-20T08:45:28Z</time>
      </trkpt>
      <trkpt lat="43.85913" lon="7.00138">
        <ele>674.2</ele>
        <time>2021-09-20T08:45:29Z</time>
      </trkpt>
      <trkpt lat="43.8591" lon="7.00139">
        <ele>674.6</ele>
        <time>2021-09-20T08:45:31Z</time>
      </trkpt>
      <trkpt lat="43.85909" lon="7.00139">
        <ele>674.8</ele>
        <time>2021-09-20T08:45:32Z</time>
      </trkpt>
      <trkpt lat="43.85906" lon="7.00139">
        <ele>675.1</ele>
        <time>2021-09-20T08:45:33Z</time>
      </trkpt>
      <trkpt lat="43.85901" lon="7.00139">
        <ele>675.6</ele>
        <time>2021-09-20T08:45:35Z</time>
      </trkpt>
      <trkpt lat="43.85897" lon="7.00136">
        <ele>676.1</ele>
        <time>2021-09-20T08:45:36Z</time>
      </trkpt>
      <trkpt lat="43.85894" lon="7.00133">
        <ele>676.7</ele>
        <time>2021-09-20T08:45:38Z</time>
      </trkpt>
      <trkpt lat="43.85893" lon="7.00131">
        <ele>676.9</ele>
        <time>2021-09-20T08:45:39Z</time>
      </trkpt>
      <trkpt lat="43.85892" lon="7.00129">
        <ele>677.1</ele>
        <time>2021-09-20T08:45:40Z</time>
      </trkpt>
      <trkpt lat="43.8589" lon="7.00125">
        <ele>677.5</ele>
        <time>2021-09-20T08:45:41Z</time>
      </trkpt>
      <trkpt lat="43.85888" lon="7.00118">
        <ele>678.1</ele>
        <time>2021-09-20T08:45:43Z</time>
      </trkpt>
      <trkpt lat="43.85886" lon="7.00113">
        <ele>678.7</ele>
        <time>2021-09-20T08:45:44Z</time>
      </trkpt>
      <trkpt lat="43.85883" lon="7.00107">
        <ele>679.3</ele>
        <time>2021-09-20T08:45:46Z</time>
      </trkpt>
      <trkpt lat="43.85881" lon="7.00104">
        <ele>679.7</ele>
        <time>2021-09-20T08:45:47Z</time>
      </trkpt>
      <trkpt lat="43.85879" lon="7.001">
        <ele>680.1</ele>
        <time>2021-09-20T08:45:48Z</time>
      </trkpt>
      <trkpt lat="43.85876" lon="7.00096">
        <ele>680.8</ele>
        <time>2021-09-20T08:45:50Z</time>
      </trkpt>
      <trkpt lat="43.85873" lon="7.00092">
        <ele>681.2</ele>
        <time>2021-09-20T08:45:51Z</time>
      </trkpt>
      <trkpt lat="43.85871" lon="7.00088">
        <ele>681.8</ele>
        <time>2021-09-20T08:45:52Z</time>
      </trkpt>
      <trkpt lat="43.8587" lon="7.00084">
        <ele>682.2</ele>
        <time>2021-09-20T08:45:53Z</time>
      </trkpt>
      <trkpt lat="43.85869" lon="7.00081">
        <ele>682.5</ele>
        <time>2021-09-20T08:45:54Z</time>
      </trkpt>
      <trkpt lat="43.85868" lon="7.00075">
        <ele>683.2</ele>
        <time>2021-09-20T08:45:56Z</time>
      </trkpt>
      <trkpt lat="43.85866" lon="7.00069">
        <ele>683.8</ele>
        <time>2021-09-20T08:45:58Z</time>
      </trkpt>
      <trkpt lat="43.85865" lon="7.00067">
        <ele>684.1</ele>
        <time>2021-09-20T08:45:59Z</time>
      </trkpt>
      <trkpt lat="43.85864" lon="7.00065">
        <ele>684.3</ele>
        <time>2021-09-20T08:46:00Z</time>
      </trkpt>
      <trkpt lat="43.85862" lon="7.00063">
        <ele>684.7</ele>
        <time>2021-09-20T08:46:01Z</time>
      </trkpt>
      <trkpt lat="43.8586" lon="7.0006">
        <ele>685.1</ele>
        <time>2021-09-20T08:46:03Z</time>
      </trkpt>
      <trkpt lat="43.85858" lon="7.00057">
        <ele>685.5</ele>
        <time>2021-09-20T08:46:04Z</time>
      </trkpt>
      <trkpt lat="43.85857" lon="7.00053">
        <ele>685.8</ele>
        <time>2021-09-20T08:46:06Z</time>
      </trkpt>
      <trkpt lat="43.85856" lon="7.00051">
        <ele>685.9</ele>
        <time>2021-09-20T08:46:07Z</time>
      </trkpt>
      <trkpt lat="43.85856" lon="7.0005">
        <ele>685.9</ele>
        <time>2021-09-20T08:46:08Z</time>
      </trkpt>
      <trkpt lat="43.85857" lon="7.0005">
        <ele>685.9</ele>
        <time>2021-09-20T08:46:10Z</time>
      </trkpt>
      <trkpt lat="43.85858" lon="7.00049">
        <ele>685.9</ele>
        <time>2021-09-20T08:46:11Z</time>
      </trkpt>
      <trkpt lat="43.85858" lon="7.00048">
        <ele>685.9</ele>
        <time>2021-09-20T08:46:13Z</time>
      </trkpt>
      <trkpt lat="43.85858" lon="7.00047">
        <ele>685.9</ele>
        <time>2021-09-20T08:46:14Z</time>
      </trkpt>
      <trkpt lat="43.85858" lon="7.00046">
        <ele>685.9</ele>
        <time>2021-09-20T08:46:15Z</time>
      </trkpt>
      <trkpt lat="43.85857" lon="7.00044">
        <ele>685.9</ele>
        <time>2021-09-20T08:46:17Z</time>
      </trkpt>
      <trkpt lat="43.8585" lon="7.00038">
        <ele>686</ele>
        <time>2021-09-20T09:12:04Z</time>
      </trkpt>
      <trkpt lat="43.85848" lon="7.00035">
        <ele>686.1</ele>
        <time>2021-09-20T09:12:05Z</time>
      </trkpt>
      <trkpt lat="43.85846" lon="7.0003">
        <ele>686.1</ele>
        <time>2021-09-20T09:12:06Z</time>
      </trkpt>
      <trkpt lat="43.85844" lon="7.00024">
        <ele>686.2</ele>
        <time>2021-09-20T09:12:08Z</time>
      </trkpt>
      <trkpt lat="43.85842" lon="7.00018">
        <ele>686.2</ele>
        <time>2021-09-20T09:12:09Z</time>
      </trkpt>
      <trkpt lat="43.85841" lon="7.00014">
        <ele>686.3</ele>
        <time>2021-09-20T09:12:10Z</time>
      </trkpt>
      <trkpt lat="43.8584" lon="7.00009">
        <ele>686.3</ele>
        <time>2021-09-20T09:12:11Z</time>
      </trkpt>
      <trkpt lat="43.85837" lon="7.00004">
        <ele>686.4</ele>
        <time>2021-09-20T09:12:13Z</time>
      </trkpt>
      <trkpt lat="43.85834" lon="7">
        <ele>686.4</ele>
        <time>2021-09-20T09:12:14Z</time>
      </trkpt>
      <trkpt lat="43.85832" lon="6.99997">
        <ele>686.4</ele>
        <time>2021-09-20T09:12:15Z</time>
      </trkpt>
      <trkpt lat="43.85831" lon="6.99992">
        <ele>686.5</ele>
        <time>2021-09-20T09:12:17Z</time>
      </trkpt>
      <trkpt lat="43.8583" lon="6.99988">
        <ele>686.5</ele>
        <time>2021-09-20T09:12:18Z</time>
      </trkpt>
      <trkpt lat="43.85828" lon="6.99984">
        <ele>686.6</ele>
        <time>2021-09-20T09:12:19Z</time>
      </trkpt>
      <trkpt lat="43.85826" lon="6.99982">
        <ele>686.6</ele>
        <time>2021-09-20T09:12:20Z</time>
      </trkpt>
      <trkpt lat="43.85824" lon="6.99977">
        <ele>686.7</ele>
        <time>2021-09-20T09:12:22Z</time>
      </trkpt>
      <trkpt lat="43.85822" lon="6.99972">
        <ele>686.8</ele>
        <time>2021-09-20T09:12:23Z</time>
      </trkpt>
      <trkpt lat="43.85822" lon="6.99971">
        <ele>686.8</ele>
        <time>2021-09-20T09:12:24Z</time>
      </trkpt>
      <trkpt lat="43.85821" lon="6.99966">
        <ele>686.9</ele>
        <time>2021-09-20T09:12:25Z</time>
      </trkpt>
      <trkpt lat="43.8582" lon="6.99965">
        <ele>686.9</ele>
        <time>2021-09-20T09:12:26Z</time>
      </trkpt>
      <trkpt lat="43.85819" lon="6.99961">
        <ele>687</ele>
        <time>2021-09-20T09:12:27Z</time>
      </trkpt>
      <trkpt lat="43.85819" lon="6.9996">
        <ele>687</ele>
        <time>2021-09-20T09:12:28Z</time>
      </trkpt>
      <trkpt lat="43.85819" lon="6.99956">
        <ele>687</ele>
        <time>2021-09-20T09:12:30Z</time>
      </trkpt>
      <trkpt lat="43.85818" lon="6.99955">
        <ele>687.1</ele>
        <time>2021-09-20T09:12:31Z</time>
      </trkpt>
      <trkpt lat="43.85818" lon="6.99953">
        <ele>687.1</ele>
        <time>2021-09-20T09:12:32Z</time>
      </trkpt>
      <trkpt lat="43.85818" lon="6.9995">
        <ele>687.1</ele>
        <time>2021-09-20T09:12:33Z</time>
      </trkpt>
      <trkpt lat="43.85817" lon="6.99948">
        <ele>687.1</ele>
        <time>2021-09-20T09:12:34Z</time>
      </trkpt>
      <trkpt lat="43.85817" lon="6.99946">
        <ele>687.1</ele>
        <time>2021-09-20T09:12:35Z</time>
      </trkpt>
      <trkpt lat="43.85816" lon="6.99944">
        <ele>687.2</ele>
        <time>2021-09-20T09:12:36Z</time>
      </trkpt>
      <trkpt lat="43.85815" lon="6.99942">
        <ele>687.2</ele>
        <time>2021-09-20T09:12:37Z</time>
      </trkpt>
      <trkpt lat="43.85813" lon="6.9994">
        <ele>687.2</ele>
        <time>2021-09-20T09:12:39Z</time>
      </trkpt>
      <trkpt lat="43.85812" lon="6.99939">
        <ele>687.2</ele>
        <time>2021-09-20T09:12:40Z</time>
      </trkpt>
      <trkpt lat="43.85811" lon="6.99936">
        <ele>687.2</ele>
        <time>2021-09-20T09:12:41Z</time>
      </trkpt>
      <trkpt lat="43.8581" lon="6.99929">
        <ele>687.3</ele>
        <time>2021-09-20T09:12:43Z</time>
      </trkpt>
      <trkpt lat="43.85808" lon="6.99925">
        <ele>687.3</ele>
        <time>2021-09-20T09:12:44Z</time>
      </trkpt>
      <trkpt lat="43.85808" lon="6.99919">
        <ele>687.4</ele>
        <time>2021-09-20T09:12:46Z</time>
      </trkpt>
      <trkpt lat="43.85807" lon="6.99915">
        <ele>687.5</ele>
        <time>2021-09-20T09:12:47Z</time>
      </trkpt>
      <trkpt lat="43.85806" lon="6.9991">
        <ele>687.5</ele>
        <time>2021-09-20T09:12:48Z</time>
      </trkpt>
      <trkpt lat="43.85804" lon="6.99905">
        <ele>687.6</ele>
        <time>2021-09-20T09:12:50Z</time>
      </trkpt>
      <trkpt lat="43.85801" lon="6.999">
        <ele>687.7</ele>
        <time>2021-09-20T09:12:51Z</time>
      </trkpt>
      <trkpt lat="43.85799" lon="6.99895">
        <ele>687.7</ele>
        <time>2021-09-20T09:12:53Z</time>
      </trkpt>
      <trkpt lat="43.85796" lon="6.99892">
        <ele>687.8</ele>
        <time>2021-09-20T09:12:54Z</time>
      </trkpt>
      <trkpt lat="43.85794" lon="6.9989">
        <ele>687.8</ele>
        <time>2021-09-20T09:12:55Z</time>
      </trkpt>
      <trkpt lat="43.85791" lon="6.99889">
        <ele>687.8</ele>
        <time>2021-09-20T09:12:56Z</time>
      </trkpt>
      <trkpt lat="43.85787" lon="6.99888">
        <ele>687.9</ele>
        <time>2021-09-20T09:12:58Z</time>
      </trkpt>
      <trkpt lat="43.85784" lon="6.99885">
        <ele>687.9</ele>
        <time>2021-09-20T09:12:59Z</time>
      </trkpt>
      <trkpt lat="43.85783" lon="6.99885">
        <ele>687.9</ele>
        <time>2021-09-20T09:13:00Z</time>
      </trkpt>
      <trkpt lat="43.8578" lon="6.99883">
        <ele>687.9</ele>
        <time>2021-09-20T09:13:02Z</time>
      </trkpt>
      <trkpt lat="43.85776" lon="6.99882">
        <ele>688</ele>
        <time>2021-09-20T09:13:03Z</time>
      </trkpt>
      <trkpt lat="43.85772" lon="6.99882">
        <ele>688.1</ele>
        <time>2021-09-20T09:13:04Z</time>
      </trkpt>
      <trkpt lat="43.85768" lon="6.99881">
        <ele>688.2</ele>
        <time>2021-09-20T09:13:05Z</time>
      </trkpt>
      <trkpt lat="43.85765" lon="6.9988">
        <ele>688.2</ele>
        <time>2021-09-20T09:13:06Z</time>
      </trkpt>
      <trkpt lat="43.85763" lon="6.99878">
        <ele>688.3</ele>
        <time>2021-09-20T09:13:08Z</time>
      </trkpt>
      <trkpt lat="43.8576" lon="6.99879">
        <ele>688.4</ele>
        <time>2021-09-20T09:13:09Z</time>
      </trkpt>
      <trkpt lat="43.85759" lon="6.99879">
        <ele>688.4</ele>
        <time>2021-09-20T09:13:10Z</time>
      </trkpt>
      <trkpt lat="43.85757" lon="6.99879">
        <ele>688.4</ele>
        <time>2021-09-20T09:13:11Z</time>
      </trkpt>
      <trkpt lat="43.85755" lon="6.99879">
        <ele>688.5</ele>
        <time>2021-09-20T09:13:13Z</time>
      </trkpt>
      <trkpt lat="43.85754" lon="6.99879">
        <ele>688.5</ele>
        <time>2021-09-20T09:13:14Z</time>
      </trkpt>
      <trkpt lat="43.85755" lon="6.9988">
        <ele>688.5</ele>
        <time>2021-09-20T09:13:15Z</time>
      </trkpt>
      <trkpt lat="43.85754" lon="6.99883">
        <ele>688.6</ele>
        <time>2021-09-20T09:13:17Z</time>
      </trkpt>
      <trkpt lat="43.85753" lon="6.99884">
        <ele>688.6</ele>
        <time>2021-09-20T09:13:18Z</time>
      </trkpt>
      <trkpt lat="43.85752" lon="6.99885">
        <ele>688.6</ele>
        <time>2021-09-20T09:13:19Z</time>
      </trkpt>
      <trkpt lat="43.8575" lon="6.99885">
        <ele>688.7</ele>
        <time>2021-09-20T09:13:21Z</time>
      </trkpt>
      <trkpt lat="43.85748" lon="6.99885">
        <ele>688.7</ele>
        <time>2021-09-20T09:13:22Z</time>
      </trkpt>
      <trkpt lat="43.85747" lon="6.99884">
        <ele>688.7</ele>
        <time>2021-09-20T09:13:23Z</time>
      </trkpt>
      <trkpt lat="43.85746" lon="6.99884">
        <ele>688.7</ele>
        <time>2021-09-20T09:13:24Z</time>
      </trkpt>
      <trkpt lat="43.85726" lon="6.99866">
        <ele>689.3</ele>
        <time>2021-09-20T09:13:35Z</time>
      </trkpt>
      <trkpt lat="43.85718" lon="6.99856">
        <ele>689.5</ele>
        <time>2021-09-20T09:13:36Z</time>
      </trkpt>
      <trkpt lat="43.85716" lon="6.99849">
        <ele>689.5</ele>
        <time>2021-09-20T09:13:38Z</time>
      </trkpt>
      <trkpt lat="43.85717" lon="6.99845">
        <ele>689.6</ele>
        <time>2021-09-20T09:13:39Z</time>
      </trkpt>
      <trkpt lat="43.85718" lon="6.99841">
        <ele>689.6</ele>
        <time>2021-09-20T09:13:40Z</time>
      </trkpt>
      <trkpt lat="43.85719" lon="6.99836">
        <ele>689.7</ele>
        <time>2021-09-20T09:13:41Z</time>
      </trkpt>
      <trkpt lat="43.85721" lon="6.99831">
        <ele>689.8</ele>
        <time>2021-09-20T09:13:42Z</time>
      </trkpt>
      <trkpt lat="43.85724" lon="6.99825">
        <ele>689.8</ele>
        <time>2021-09-20T09:13:44Z</time>
      </trkpt>
      <trkpt lat="43.85726" lon="6.9982">
        <ele>689.9</ele>
        <time>2021-09-20T09:13:45Z</time>
      </trkpt>
      <trkpt lat="43.8573" lon="6.99816">
        <ele>690</ele>
        <time>2021-09-20T09:13:46Z</time>
      </trkpt>
      <trkpt lat="43.85733" lon="6.99811">
        <ele>690</ele>
        <time>2021-09-20T09:13:47Z</time>
      </trkpt>
      <trkpt lat="43.85737" lon="6.99804">
        <ele>690.1</ele>
        <time>2021-09-20T09:13:49Z</time>
      </trkpt>
      <trkpt lat="43.8574" lon="6.99799">
        <ele>690.2</ele>
        <time>2021-09-20T09:13:50Z</time>
      </trkpt>
      <trkpt lat="43.85745" lon="6.99791">
        <ele>690.2</ele>
        <time>2021-09-20T09:13:52Z</time>
      </trkpt>
      <trkpt lat="43.85748" lon="6.99787">
        <ele>690.3</ele>
        <time>2021-09-20T09:13:53Z</time>
      </trkpt>
      <trkpt lat="43.8575" lon="6.99784">
        <ele>690.3</ele>
        <time>2021-09-20T09:13:54Z</time>
      </trkpt>
      <trkpt lat="43.85753" lon="6.9978">
        <ele>690.4</ele>
        <time>2021-09-20T09:13:56Z</time>
      </trkpt>
      <trkpt lat="43.85753" lon="6.99778">
        <ele>690.4</ele>
        <time>2021-09-20T09:13:57Z</time>
      </trkpt>
      <trkpt lat="43.85753" lon="6.99776">
        <ele>690.4</ele>
        <time>2021-09-20T09:13:58Z</time>
      </trkpt>
      <trkpt lat="43.85753" lon="6.99776">
        <ele>690.4</ele>
        <time>2021-09-20T09:13:59Z</time>
      </trkpt>
      <trkpt lat="43.85753" lon="6.99774">
        <ele>690.4</ele>
        <time>2021-09-20T09:14:00Z</time>
      </trkpt>
      <trkpt lat="43.85754" lon="6.99772">
        <ele>690.5</ele>
        <time>2021-09-20T09:14:01Z</time>
      </trkpt>
      <trkpt lat="43.85755" lon="6.99771">
        <ele>690.5</ele>
        <time>2021-09-20T09:14:03Z</time>
      </trkpt>
      <trkpt lat="43.85757" lon="6.99769">
        <ele>690.5</ele>
        <time>2021-09-20T09:14:04Z</time>
      </trkpt>
      <trkpt lat="43.85758" lon="6.99767">
        <ele>690.5</ele>
        <time>2021-09-20T09:14:05Z</time>
      </trkpt>
      <trkpt lat="43.85759" lon="6.99766">
        <ele>690.5</ele>
        <time>2021-09-20T09:14:06Z</time>
      </trkpt>
      <trkpt lat="43.8576" lon="6.99761">
        <ele>690.6</ele>
        <time>2021-09-20T09:14:07Z</time>
      </trkpt>
      <trkpt lat="43.8576" lon="6.9976">
        <ele>690.6</ele>
        <time>2021-09-20T09:14:08Z</time>
      </trkpt>
      <trkpt lat="43.85762" lon="6.99756">
        <ele>690.6</ele>
        <time>2021-09-20T09:14:09Z</time>
      </trkpt>
      <trkpt lat="43.85762" lon="6.99755">
        <ele>690.7</ele>
        <time>2021-09-20T09:14:10Z</time>
      </trkpt>
      <trkpt lat="43.85764" lon="6.9975">
        <ele>690.7</ele>
        <time>2021-09-20T09:14:12Z</time>
      </trkpt>
      <trkpt lat="43.85766" lon="6.99744">
        <ele>690.8</ele>
        <time>2021-09-20T09:14:14Z</time>
      </trkpt>
      <trkpt lat="43.85764" lon="6.99738">
        <ele>690.8</ele>
        <time>2021-09-20T09:14:16Z</time>
      </trkpt>
      <trkpt lat="43.85762" lon="6.99734">
        <ele>690.9</ele>
        <time>2021-09-20T09:14:17Z</time>
      </trkpt>
      <trkpt lat="43.85761" lon="6.9973">
        <ele>690.9</ele>
        <time>2021-09-20T09:14:18Z</time>
      </trkpt>
      <trkpt lat="43.8576" lon="6.99726">
        <ele>690.9</ele>
        <time>2021-09-20T09:14:19Z</time>
      </trkpt>
      <trkpt lat="43.85759" lon="6.99723">
        <ele>690.9</ele>
        <time>2021-09-20T09:14:20Z</time>
      </trkpt>
      <trkpt lat="43.85757" lon="6.99717">
        <ele>690.9</ele>
        <time>2021-09-20T09:14:21Z</time>
      </trkpt>
      <trkpt lat="43.85756" lon="6.99713">
        <ele>690.9</ele>
        <time>2021-09-20T09:14:22Z</time>
      </trkpt>
      <trkpt lat="43.85755" lon="6.9971">
        <ele>690.9</ele>
        <time>2021-09-20T09:14:23Z</time>
      </trkpt>
      <trkpt lat="43.85754" lon="6.99707">
        <ele>690.9</ele>
        <time>2021-09-20T09:14:25Z</time>
      </trkpt>
      <trkpt lat="43.85752" lon="6.99703">
        <ele>691</ele>
        <time>2021-09-20T09:14:26Z</time>
      </trkpt>
      <trkpt lat="43.8575" lon="6.99699">
        <ele>691</ele>
        <time>2021-09-20T09:14:27Z</time>
      </trkpt>
      <trkpt lat="43.85749" lon="6.99694">
        <ele>691.1</ele>
        <time>2021-09-20T09:14:28Z</time>
      </trkpt>
      <trkpt lat="43.85747" lon="6.9969">
        <ele>691.2</ele>
        <time>2021-09-20T09:14:29Z</time>
      </trkpt>
      <trkpt lat="43.85744" lon="6.99686">
        <ele>691.3</ele>
        <time>2021-09-20T09:14:31Z</time>
      </trkpt>
      <trkpt lat="43.85741" lon="6.99682">
        <ele>691.4</ele>
        <time>2021-09-20T09:14:32Z</time>
      </trkpt>
      <trkpt lat="43.8574" lon="6.99677">
        <ele>691.4</ele>
        <time>2021-09-20T09:14:34Z</time>
      </trkpt>
      <trkpt lat="43.85739" lon="6.99674">
        <ele>691.5</ele>
        <time>2021-09-20T09:14:35Z</time>
      </trkpt>
      <trkpt lat="43.85736" lon="6.99667">
        <ele>691.6</ele>
        <time>2021-09-20T09:14:37Z</time>
      </trkpt>
      <trkpt lat="43.85734" lon="6.99663">
        <ele>691.6</ele>
        <time>2021-09-20T09:14:39Z</time>
      </trkpt>
      <trkpt lat="43.85733" lon="6.99661">
        <ele>691.7</ele>
        <time>2021-09-20T09:14:40Z</time>
      </trkpt>
      <trkpt lat="43.85732" lon="6.99657">
        <ele>691.8</ele>
        <time>2021-09-20T09:14:42Z</time>
      </trkpt>
      <trkpt lat="43.85729" lon="6.99653">
        <ele>691.9</ele>
        <time>2021-09-20T09:14:44Z</time>
      </trkpt>
      <trkpt lat="43.85726" lon="6.99648">
        <ele>692</ele>
        <time>2021-09-20T09:14:46Z</time>
      </trkpt>
      <trkpt lat="43.85723" lon="6.99645">
        <ele>692.2</ele>
        <time>2021-09-20T09:14:47Z</time>
      </trkpt>
      <trkpt lat="43.85722" lon="6.99644">
        <ele>692.2</ele>
        <time>2021-09-20T09:14:48Z</time>
      </trkpt>
      <trkpt lat="43.85719" lon="6.99643">
        <ele>692.3</ele>
        <time>2021-09-20T09:14:49Z</time>
      </trkpt>
      <trkpt lat="43.85716" lon="6.99639">
        <ele>692.5</ele>
        <time>2021-09-20T09:14:51Z</time>
      </trkpt>
      <trkpt lat="43.85713" lon="6.99637">
        <ele>692.6</ele>
        <time>2021-09-20T09:14:52Z</time>
      </trkpt>
      <trkpt lat="43.85712" lon="6.99636">
        <ele>692.6</ele>
        <time>2021-09-20T09:14:53Z</time>
      </trkpt>
      <trkpt lat="43.85709" lon="6.99638">
        <ele>692.8</ele>
        <time>2021-09-20T09:14:55Z</time>
      </trkpt>
      <trkpt lat="43.85706" lon="6.99639">
        <ele>692.9</ele>
        <time>2021-09-20T09:14:57Z</time>
      </trkpt>
      <trkpt lat="43.85703" lon="6.9964">
        <ele>693.1</ele>
        <time>2021-09-20T09:14:58Z</time>
      </trkpt>
      <trkpt lat="43.85701" lon="6.99641">
        <ele>693.1</ele>
        <time>2021-09-20T09:14:59Z</time>
      </trkpt>
      <trkpt lat="43.85697" lon="6.99639">
        <ele>693.3</ele>
        <time>2021-09-20T09:15:01Z</time>
      </trkpt>
      <trkpt lat="43.85694" lon="6.99637">
        <ele>693.4</ele>
        <time>2021-09-20T09:15:02Z</time>
      </trkpt>
      <trkpt lat="43.85691" lon="6.99634">
        <ele>693.6</ele>
        <time>2021-09-20T09:15:03Z</time>
      </trkpt>
      <trkpt lat="43.85688" lon="6.9963">
        <ele>693.7</ele>
        <time>2021-09-20T09:15:05Z</time>
      </trkpt>
      <trkpt lat="43.85684" lon="6.9963">
        <ele>693.8</ele>
        <time>2021-09-20T09:15:06Z</time>
      </trkpt>
      <trkpt lat="43.85683" lon="6.9963">
        <ele>693.9</ele>
        <time>2021-09-20T09:15:07Z</time>
      </trkpt>
      <trkpt lat="43.8568" lon="6.99628">
        <ele>694</ele>
        <time>2021-09-20T09:15:09Z</time>
      </trkpt>
      <trkpt lat="43.85678" lon="6.99626">
        <ele>694.1</ele>
        <time>2021-09-20T09:15:10Z</time>
      </trkpt>
      <trkpt lat="43.85678" lon="6.99625">
        <ele>694.1</ele>
        <time>2021-09-20T09:15:11Z</time>
      </trkpt>
      <trkpt lat="43.85671" lon="6.99618">
        <ele>694.4</ele>
        <time>2021-09-20T09:15:13Z</time>
      </trkpt>
      <trkpt lat="43.85667" lon="6.99614">
        <ele>694.7</ele>
        <time>2021-09-20T09:15:14Z</time>
      </trkpt>
      <trkpt lat="43.85664" lon="6.99613">
        <ele>694.8</ele>
        <time>2021-09-20T09:15:15Z</time>
      </trkpt>
      <trkpt lat="43.85661" lon="6.99612">
        <ele>695</ele>
        <time>2021-09-20T09:15:17Z</time>
      </trkpt>
      <trkpt lat="43.8566" lon="6.99611">
        <ele>695</ele>
        <time>2021-09-20T09:15:18Z</time>
      </trkpt>
      <trkpt lat="43.8566" lon="6.99611">
        <ele>695</ele>
        <time>2021-09-20T09:15:20Z</time>
      </trkpt>
      <trkpt lat="43.85659" lon="6.99611">
        <ele>695.1</ele>
        <time>2021-09-20T09:15:21Z</time>
      </trkpt>
      <trkpt lat="43.85658" lon="6.99612">
        <ele>695.1</ele>
        <time>2021-09-20T09:15:23Z</time>
      </trkpt>
      <trkpt lat="43.85657" lon="6.99612">
        <ele>695.2</ele>
        <time>2021-09-20T09:15:24Z</time>
      </trkpt>
      <trkpt lat="43.85657" lon="6.99612">
        <ele>695.2</ele>
        <time>2021-09-20T09:15:25Z</time>
      </trkpt>
      <trkpt lat="43.85655" lon="6.99613">
        <ele>695.3</ele>
        <time>2021-09-20T09:15:26Z</time>
      </trkpt>
      <trkpt lat="43.85652" lon="6.99618">
        <ele>695.5</ele>
        <time>2021-09-20T09:15:28Z</time>
      </trkpt>
      <trkpt lat="43.85652" lon="6.9962">
        <ele>695.6</ele>
        <time>2021-09-20T09:15:29Z</time>
      </trkpt>
      <trkpt lat="43.85649" lon="6.99623">
        <ele>695.8</ele>
        <time>2021-09-20T09:15:31Z</time>
      </trkpt>
      <trkpt lat="43.85648" lon="6.99624">
        <ele>695.8</ele>
        <time>2021-09-20T09:15:32Z</time>
      </trkpt>
      <trkpt lat="43.85645" lon="6.99623">
        <ele>696</ele>
        <time>2021-09-20T09:15:33Z</time>
      </trkpt>
      <trkpt lat="43.85644" lon="6.99622">
        <ele>696</ele>
        <time>2021-09-20T09:15:34Z</time>
      </trkpt>
      <trkpt lat="43.85643" lon="6.99622">
        <ele>696.1</ele>
        <time>2021-09-20T09:15:35Z</time>
      </trkpt>
      <trkpt lat="43.85643" lon="6.99626">
        <ele>696.2</ele>
        <time>2021-09-20T09:15:37Z</time>
      </trkpt>
      <trkpt lat="43.85643" lon="6.99627">
        <ele>696.2</ele>
        <time>2021-09-20T09:15:38Z</time>
      </trkpt>
      <trkpt lat="43.85643" lon="6.99627">
        <ele>696.3</ele>
        <time>2021-09-20T09:15:40Z</time>
      </trkpt>
      <trkpt lat="43.85642" lon="6.99628">
        <ele>696.3</ele>
        <time>2021-09-20T09:15:41Z</time>
      </trkpt>
      <trkpt lat="43.8564" lon="6.9963">
        <ele>696.4</ele>
        <time>2021-09-20T09:15:43Z</time>
      </trkpt>
      <trkpt lat="43.8564" lon="6.99632">
        <ele>696.4</ele>
        <time>2021-09-20T09:15:44Z</time>
      </trkpt>
      <trkpt lat="43.85618" lon="6.99638">
        <ele>697.3</ele>
        <time>2021-09-20T09:16:02Z</time>
      </trkpt>
      <trkpt lat="43.85616" lon="6.99639">
        <ele>697.4</ele>
        <time>2021-09-20T09:16:03Z</time>
      </trkpt>
      <trkpt lat="43.85613" lon="6.9964">
        <ele>697.5</ele>
        <time>2021-09-20T09:16:05Z</time>
      </trkpt>
      <trkpt lat="43.85611" lon="6.99641">
        <ele>697.6</ele>
        <time>2021-09-20T09:16:06Z</time>
      </trkpt>
      <trkpt lat="43.8561" lon="6.99642">
        <ele>697.6</ele>
        <time>2021-09-20T09:16:07Z</time>
      </trkpt>
      <trkpt lat="43.85609" lon="6.99643">
        <ele>697.7</ele>
        <time>2021-09-20T09:16:08Z</time>
      </trkpt>
      <trkpt lat="43.85605" lon="6.99645">
        <ele>697.8</ele>
        <time>2021-09-20T09:16:10Z</time>
      </trkpt>
      <trkpt lat="43.85602" lon="6.99648">
        <ele>698</ele>
        <time>2021-09-20T09:16:12Z</time>
      </trkpt>
      <trkpt lat="43.85599" lon="6.99649">
        <ele>698.1</ele>
        <time>2021-09-20T09:16:13Z</time>
      </trkpt>
      <trkpt lat="43.85598" lon="6.99651">
        <ele>698.1</ele>
        <time>2021-09-20T09:16:14Z</time>
      </trkpt>
      <trkpt lat="43.85594" lon="6.99655">
        <ele>698.3</ele>
        <time>2021-09-20T09:16:16Z</time>
      </trkpt>
      <trkpt lat="43.85591" lon="6.99659">
        <ele>698.4</ele>
        <time>2021-09-20T09:16:17Z</time>
      </trkpt>
      <trkpt lat="43.85587" lon="6.99664">
        <ele>698.5</ele>
        <time>2021-09-20T09:16:18Z</time>
      </trkpt>
      <trkpt lat="43.85583" lon="6.99669">
        <ele>698.5</ele>
        <time>2021-09-20T09:16:20Z</time>
      </trkpt>
      <trkpt lat="43.8558" lon="6.99672">
        <ele>698.5</ele>
        <time>2021-09-20T09:16:21Z</time>
      </trkpt>
      <trkpt lat="43.85575" lon="6.99674">
        <ele>698.5</ele>
        <time>2021-09-20T09:16:23Z</time>
      </trkpt>
      <trkpt lat="43.85572" lon="6.99676">
        <ele>698.5</ele>
        <time>2021-09-20T09:16:24Z</time>
      </trkpt>
      <trkpt lat="43.85569" lon="6.99678">
        <ele>698.5</ele>
        <time>2021-09-20T09:16:25Z</time>
      </trkpt>
      <trkpt lat="43.85567" lon="6.9968">
        <ele>698.4</ele>
        <time>2021-09-20T09:16:26Z</time>
      </trkpt>
      <trkpt lat="43.85564" lon="6.99683">
        <ele>698.4</ele>
        <time>2021-09-20T09:16:28Z</time>
      </trkpt>
      <trkpt lat="43.85559" lon="6.99686">
        <ele>698.3</ele>
        <time>2021-09-20T09:16:30Z</time>
      </trkpt>
      <trkpt lat="43.85556" lon="6.99687">
        <ele>698.3</ele>
        <time>2021-09-20T09:16:31Z</time>
      </trkpt>
      <trkpt lat="43.85555" lon="6.99688">
        <ele>698.3</ele>
        <time>2021-09-20T09:16:32Z</time>
      </trkpt>
      <trkpt lat="43.85553" lon="6.9969">
        <ele>698.3</ele>
        <time>2021-09-20T09:16:34Z</time>
      </trkpt>
      <trkpt lat="43.85552" lon="6.9969">
        <ele>698.2</ele>
        <time>2021-09-20T09:16:35Z</time>
      </trkpt>
      <trkpt lat="43.8555" lon="6.99691">
        <ele>698.2</ele>
        <time>2021-09-20T09:16:36Z</time>
      </trkpt>
      <trkpt lat="43.85548" lon="6.99691">
        <ele>698.2</ele>
        <time>2021-09-20T09:16:37Z</time>
      </trkpt>
      <trkpt lat="43.85547" lon="6.99691">
        <ele>698.2</ele>
        <time>2021-09-20T09:16:38Z</time>
      </trkpt>
      <trkpt lat="43.85545" lon="6.99691">
        <ele>698.2</ele>
        <time>2021-09-20T09:16:39Z</time>
      </trkpt>
      <trkpt lat="43.85543" lon="6.99691">
        <ele>698.2</ele>
        <time>2021-09-20T09:16:40Z</time>
      </trkpt>
      <trkpt lat="43.85539" lon="6.9969">
        <ele>698.1</ele>
        <time>2021-09-20T09:16:42Z</time>
      </trkpt>
      <trkpt lat="43.85536" lon="6.99691">
        <ele>698.1</ele>
        <time>2021-09-20T09:16:43Z</time>
      </trkpt>
      <trkpt lat="43.85535" lon="6.99691">
        <ele>698.1</ele>
        <time>2021-09-20T09:16:44Z</time>
      </trkpt>
      <trkpt lat="43.85533" lon="6.9969">
        <ele>698.1</ele>
        <time>2021-09-20T09:16:46Z</time>
      </trkpt>
      <trkpt lat="43.85532" lon="6.99691">
        <ele>698.1</ele>
        <time>2021-09-20T09:16:47Z</time>
      </trkpt>
      <trkpt lat="43.85529" lon="6.99692">
        <ele>698.1</ele>
        <time>2021-09-20T09:16:49Z</time>
      </trkpt>
      <trkpt lat="43.85524" lon="6.99695">
        <ele>698.1</ele>
        <time>2021-09-20T09:16:51Z</time>
      </trkpt>
      <trkpt lat="43.85522" lon="6.99698">
        <ele>698.1</ele>
        <time>2021-09-20T09:16:52Z</time>
      </trkpt>
      <trkpt lat="43.8552" lon="6.99702">
        <ele>698.1</ele>
        <time>2021-09-20T09:16:53Z</time>
      </trkpt>
      <trkpt lat="43.85519" lon="6.99705">
        <ele>698.1</ele>
        <time>2021-09-20T09:16:54Z</time>
      </trkpt>
      <trkpt lat="43.85518" lon="6.9971">
        <ele>698.1</ele>
        <time>2021-09-20T09:16:56Z</time>
      </trkpt>
      <trkpt lat="43.85516" lon="6.99713">
        <ele>698.1</ele>
        <time>2021-09-20T09:16:57Z</time>
      </trkpt>
      <trkpt lat="43.85513" lon="6.99717">
        <ele>698.1</ele>
        <time>2021-09-20T09:16:59Z</time>
      </trkpt>
      <trkpt lat="43.85511" lon="6.99721">
        <ele>698.1</ele>
        <time>2021-09-20T09:17:00Z</time>
      </trkpt>
      <trkpt lat="43.8551" lon="6.99724">
        <ele>698.2</ele>
        <time>2021-09-20T09:17:01Z</time>
      </trkpt>
      <trkpt lat="43.85508" lon="6.99728">
        <ele>698.2</ele>
        <time>2021-09-20T09:17:02Z</time>
      </trkpt>
      <trkpt lat="43.85505" lon="6.99732">
        <ele>698.2</ele>
        <time>2021-09-20T09:17:04Z</time>
      </trkpt>
      <trkpt lat="43.85502" lon="6.99734">
        <ele>698.2</ele>
        <time>2021-09-20T09:17:05Z</time>
      </trkpt>
      <trkpt lat="43.85498" lon="6.99738">
        <ele>698.2</ele>
        <time>2021-09-20T09:17:07Z</time>
      </trkpt>
      <trkpt lat="43.85495" lon="6.99739">
        <ele>698.2</ele>
        <time>2021-09-20T09:17:08Z</time>
      </trkpt>
      <trkpt lat="43.8549" lon="6.9974">
        <ele>698.2</ele>
        <time>2021-09-20T09:17:10Z</time>
      </trkpt>
      <trkpt lat="43.85487" lon="6.99741">
        <ele>698.2</ele>
        <time>2021-09-20T09:17:11Z</time>
      </trkpt>
      <trkpt lat="43.85484" lon="6.99742">
        <ele>698.2</ele>
        <time>2021-09-20T09:17:12Z</time>
      </trkpt>
      <trkpt lat="43.85483" lon="6.99743">
        <ele>698.2</ele>
        <time>2021-09-20T09:17:13Z</time>
      </trkpt>
      <trkpt lat="43.85481" lon="6.99744">
        <ele>698.2</ele>
        <time>2021-09-20T09:17:14Z</time>
      </trkpt>
      <trkpt lat="43.85479" lon="6.99744">
        <ele>698.2</ele>
        <time>2021-09-20T09:17:16Z</time>
      </trkpt>
      <trkpt lat="43.85475" lon="6.99746">
        <ele>698.1</ele>
        <time>2021-09-20T09:17:17Z</time>
      </trkpt>
      <trkpt lat="43.85474" lon="6.99746">
        <ele>698.1</ele>
        <time>2021-09-20T09:17:18Z</time>
      </trkpt>
      <trkpt lat="43.85472" lon="6.99748">
        <ele>698.1</ele>
        <time>2021-09-20T09:17:20Z</time>
      </trkpt>
      <trkpt lat="43.8547" lon="6.99749">
        <ele>698.1</ele>
        <time>2021-09-20T09:17:21Z</time>
      </trkpt>
      <trkpt lat="43.85424" lon="6.99787">
        <ele>697.5</ele>
        <time>2021-09-20T09:17:35Z</time>
      </trkpt>
      <trkpt lat="43.85419" lon="6.99789">
        <ele>697.5</ele>
        <time>2021-09-20T09:17:36Z</time>
      </trkpt>
      <trkpt lat="43.85414" lon="6.99793">
        <ele>697.5</ele>
        <time>2021-09-20T09:17:37Z</time>
      </trkpt>
      <trkpt lat="43.8541" lon="6.99797">
        <ele>697.5</ele>
        <time>2021-09-20T09:17:38Z</time>
      </trkpt>
      <trkpt lat="43.85402" lon="6.99804">
        <ele>697.5</ele>
        <time>2021-09-20T09:17:40Z</time>
      </trkpt>
      <trkpt lat="43.85397" lon="6.99808">
        <ele>697.6</ele>
        <time>2021-09-20T09:17:42Z</time>
      </trkpt>
      <trkpt lat="43.85393" lon="6.99809">
        <ele>697.7</ele>
        <time>2021-09-20T09:17:43Z</time>
      </trkpt>
      <trkpt lat="43.85389" lon="6.99811">
        <ele>697.7</ele>
        <time>2021-09-20T09:17:44Z</time>
      </trkpt>
      <trkpt lat="43.85385" lon="6.99813">
        <ele>697.8</ele>
        <time>2021-09-20T09:17:46Z</time>
      </trkpt>
      <trkpt lat="43.85382" lon="6.99811">
        <ele>697.9</ele>
        <time>2021-09-20T09:17:47Z</time>
      </trkpt>
      <trkpt lat="43.85379" lon="6.99808">
        <ele>697.9</ele>
        <time>2021-09-20T09:17:48Z</time>
      </trkpt>
      <trkpt lat="43.85378" lon="6.99808">
        <ele>697.9</ele>
        <time>2021-09-20T09:17:49Z</time>
      </trkpt>
      <trkpt lat="43.85376" lon="6.99807">
        <ele>698</ele>
        <time>2021-09-20T09:17:50Z</time>
      </trkpt>
      <trkpt lat="43.85373" lon="6.99806">
        <ele>698</ele>
        <time>2021-09-20T09:17:52Z</time>
      </trkpt>
      <trkpt lat="43.85371" lon="6.99805">
        <ele>698.1</ele>
        <time>2021-09-20T09:17:53Z</time>
      </trkpt>
      <trkpt lat="43.85369" lon="6.99805">
        <ele>698.1</ele>
        <time>2021-09-20T09:17:54Z</time>
      </trkpt>
      <trkpt lat="43.85368" lon="6.99804">
        <ele>698.2</ele>
        <time>2021-09-20T09:17:55Z</time>
      </trkpt>
      <trkpt lat="43.85367" lon="6.99803">
        <ele>698.3</ele>
        <time>2021-09-20T09:17:57Z</time>
      </trkpt>
      <trkpt lat="43.85368" lon="6.99797">
        <ele>698.6</ele>
        <time>2021-09-20T09:17:59Z</time>
      </trkpt>
      <trkpt lat="43.85368" lon="6.99797">
        <ele>698.6</ele>
        <time>2021-09-20T09:18:01Z</time>
      </trkpt>
      <trkpt lat="43.85368" lon="6.99796">
        <ele>698.6</ele>
        <time>2021-09-20T09:18:02Z</time>
      </trkpt>
      <trkpt lat="43.85368" lon="6.99796">
        <ele>698.7</ele>
        <time>2021-09-20T09:18:03Z</time>
      </trkpt>
      <trkpt lat="43.8537" lon="6.99796">
        <ele>698.8</ele>
        <time>2021-09-20T09:18:05Z</time>
      </trkpt>
      <trkpt lat="43.85371" lon="6.99773">
        <ele>699.9</ele>
        <time>2021-09-20T09:19:23Z</time>
      </trkpt>
      <trkpt lat="43.85369" lon="6.99771">
        <ele>700.1</ele>
        <time>2021-09-20T09:19:24Z</time>
      </trkpt>
      <trkpt lat="43.85365" lon="6.9977">
        <ele>700.5</ele>
        <time>2021-09-20T09:19:26Z</time>
      </trkpt>
      <trkpt lat="43.85363" lon="6.9977">
        <ele>700.6</ele>
        <time>2021-09-20T09:19:27Z</time>
      </trkpt>
      <trkpt lat="43.85362" lon="6.99769">
        <ele>700.7</ele>
        <time>2021-09-20T09:19:29Z</time>
      </trkpt>
      <trkpt lat="43.85362" lon="6.99769">
        <ele>700.7</ele>
        <time>2021-09-20T09:19:30Z</time>
      </trkpt>
      <trkpt lat="43.85361" lon="6.99769">
        <ele>700.7</ele>
        <time>2021-09-20T09:19:32Z</time>
      </trkpt>
      <trkpt lat="43.85362" lon="6.99769">
        <ele>700.8</ele>
        <time>2021-09-20T09:19:33Z</time>
      </trkpt>
      <trkpt lat="43.85363" lon="6.99769">
        <ele>700.9</ele>
        <time>2021-09-20T09:19:35Z</time>
      </trkpt>
      <trkpt lat="43.85366" lon="6.99782">
        <ele>701.7</ele>
        <time>2021-09-20T09:20:08Z</time>
      </trkpt>
      <trkpt lat="43.85361" lon="6.99781">
        <ele>702.1</ele>
        <time>2021-09-20T09:20:10Z</time>
      </trkpt>
      <trkpt lat="43.85357" lon="6.99781">
        <ele>702.4</ele>
        <time>2021-09-20T09:20:11Z</time>
      </trkpt>
      <trkpt lat="43.85354" lon="6.99781">
        <ele>702.6</ele>
        <time>2021-09-20T09:20:12Z</time>
      </trkpt>
      <trkpt lat="43.85348" lon="6.99782">
        <ele>703.1</ele>
        <time>2021-09-20T09:20:14Z</time>
      </trkpt>
      <trkpt lat="43.85344" lon="6.99782">
        <ele>703.4</ele>
        <time>2021-09-20T09:20:15Z</time>
      </trkpt>
      <trkpt lat="43.85341" lon="6.99783">
        <ele>703.7</ele>
        <time>2021-09-20T09:20:16Z</time>
      </trkpt>
      <trkpt lat="43.8534" lon="6.99783">
        <ele>703.8</ele>
        <time>2021-09-20T09:20:17Z</time>
      </trkpt>
      <trkpt lat="43.85337" lon="6.99783">
        <ele>704</ele>
        <time>2021-09-20T09:20:19Z</time>
      </trkpt>
      <trkpt lat="43.85334" lon="6.99783">
        <ele>704.3</ele>
        <time>2021-09-20T09:20:20Z</time>
      </trkpt>
      <trkpt lat="43.85331" lon="6.99783">
        <ele>704.5</ele>
        <time>2021-09-20T09:20:21Z</time>
      </trkpt>
      <trkpt lat="43.85327" lon="6.9978">
        <ele>704.8</ele>
        <time>2021-09-20T09:20:23Z</time>
      </trkpt>
      <trkpt lat="43.85324" lon="6.99778">
        <ele>705.1</ele>
        <time>2021-09-20T09:20:24Z</time>
      </trkpt>
      <trkpt lat="43.85321" lon="6.99778">
        <ele>705.3</ele>
        <time>2021-09-20T09:20:26Z</time>
      </trkpt>
      <trkpt lat="43.85318" lon="6.99778">
        <ele>705.5</ele>
        <time>2021-09-20T09:20:27Z</time>
      </trkpt>
      <trkpt lat="43.85316" lon="6.99777">
        <ele>705.7</ele>
        <time>2021-09-20T09:20:29Z</time>
      </trkpt>
      <trkpt lat="43.85314" lon="6.99777">
        <ele>705.8</ele>
        <time>2021-09-20T09:20:30Z</time>
      </trkpt>
      <trkpt lat="43.85313" lon="6.99775">
        <ele>706</ele>
        <time>2021-09-20T09:20:31Z</time>
      </trkpt>
      <trkpt lat="43.85312" lon="6.99774">
        <ele>706.1</ele>
        <time>2021-09-20T09:20:32Z</time>
      </trkpt>
      <trkpt lat="43.85311" lon="6.99773">
        <ele>706.2</ele>
        <time>2021-09-20T09:20:33Z</time>
      </trkpt>
      <trkpt lat="43.85307" lon="6.99772">
        <ele>706.5</ele>
        <time>2021-09-20T09:20:35Z</time>
      </trkpt>
      <trkpt lat="43.85306" lon="6.99772">
        <ele>706.6</ele>
        <time>2021-09-20T09:20:36Z</time>
      </trkpt>
      <trkpt lat="43.85305" lon="6.99772">
        <ele>706.6</ele>
        <time>2021-09-20T09:20:37Z</time>
      </trkpt>
      <trkpt lat="43.85304" lon="6.99772">
        <ele>706.7</ele>
        <time>2021-09-20T09:20:38Z</time>
      </trkpt>
      <trkpt lat="43.853" lon="6.99771">
        <ele>707</ele>
        <time>2021-09-20T09:20:40Z</time>
      </trkpt>
      <trkpt lat="43.85299" lon="6.9977">
        <ele>707.1</ele>
        <time>2021-09-20T09:20:41Z</time>
      </trkpt>
      <trkpt lat="43.85297" lon="6.99771">
        <ele>707.2</ele>
        <time>2021-09-20T09:20:42Z</time>
      </trkpt>
      <trkpt lat="43.85296" lon="6.99771">
        <ele>707.4</ele>
        <time>2021-09-20T09:20:44Z</time>
      </trkpt>
      <trkpt lat="43.85295" lon="6.99772">
        <ele>707.5</ele>
        <time>2021-09-20T09:20:45Z</time>
      </trkpt>
      <trkpt lat="43.85294" lon="6.99773">
        <ele>707.7</ele>
        <time>2021-09-20T09:20:46Z</time>
      </trkpt>
      <trkpt lat="43.85292" lon="6.99773">
        <ele>707.9</ele>
        <time>2021-09-20T09:20:47Z</time>
      </trkpt>
      <trkpt lat="43.85291" lon="6.99773">
        <ele>708</ele>
        <time>2021-09-20T09:20:48Z</time>
      </trkpt>
      <trkpt lat="43.85289" lon="6.99773">
        <ele>708.2</ele>
        <time>2021-09-20T09:20:49Z</time>
      </trkpt>
      <trkpt lat="43.85288" lon="6.99772">
        <ele>708.4</ele>
        <time>2021-09-20T09:20:50Z</time>
      </trkpt>
      <trkpt lat="43.85287" lon="6.9977">
        <ele>708.5</ele>
        <time>2021-09-20T09:20:52Z</time>
      </trkpt>
      <trkpt lat="43.85286" lon="6.99769">
        <ele>708.7</ele>
        <time>2021-09-20T09:20:53Z</time>
      </trkpt>
      <trkpt lat="43.85284" lon="6.99768">
        <ele>708.9</ele>
        <time>2021-09-20T09:20:54Z</time>
      </trkpt>
      <trkpt lat="43.85281" lon="6.99767">
        <ele>709.3</ele>
        <time>2021-09-20T09:20:56Z</time>
      </trkpt>
      <trkpt lat="43.85278" lon="6.99764">
        <ele>709.7</ele>
        <time>2021-09-20T09:20:57Z</time>
      </trkpt>
      <trkpt lat="43.85277" lon="6.99764">
        <ele>709.8</ele>
        <time>2021-09-20T09:20:58Z</time>
      </trkpt>
      <trkpt lat="43.85276" lon="6.99764">
        <ele>710</ele>
        <time>2021-09-20T09:20:59Z</time>
      </trkpt>
      <trkpt lat="43.85273" lon="6.99765">
        <ele>710.2</ele>
        <time>2021-09-20T09:21:01Z</time>
      </trkpt>
      <trkpt lat="43.85272" lon="6.99764">
        <ele>710.4</ele>
        <time>2021-09-20T09:21:02Z</time>
      </trkpt>
      <trkpt lat="43.85271" lon="6.99763">
        <ele>710.5</ele>
        <time>2021-09-20T09:21:03Z</time>
      </trkpt>
      <trkpt lat="43.8527" lon="6.99764">
        <ele>710.6</ele>
        <time>2021-09-20T09:21:04Z</time>
      </trkpt>
      <trkpt lat="43.85268" lon="6.99762">
        <ele>710.8</ele>
        <time>2021-09-20T09:21:06Z</time>
      </trkpt>
      <trkpt lat="43.85267" lon="6.99761">
        <ele>711</ele>
        <time>2021-09-20T09:21:07Z</time>
      </trkpt>
      <trkpt lat="43.85264" lon="6.99761">
        <ele>711.4</ele>
        <time>2021-09-20T09:21:08Z</time>
      </trkpt>
      <trkpt lat="43.85259" lon="6.99761">
        <ele>711.8</ele>
        <time>2021-09-20T09:21:10Z</time>
      </trkpt>
      <trkpt lat="43.85258" lon="6.99761">
        <ele>712</ele>
        <time>2021-09-20T09:21:11Z</time>
      </trkpt>
      <trkpt lat="43.85256" lon="6.99761">
        <ele>712.1</ele>
        <time>2021-09-20T09:21:12Z</time>
      </trkpt>
      <trkpt lat="43.85253" lon="6.99762">
        <ele>712.4</ele>
        <time>2021-09-20T09:21:13Z</time>
      </trkpt>
      <trkpt lat="43.85249" lon="6.99762">
        <ele>712.9</ele>
        <time>2021-09-20T09:21:15Z</time>
      </trkpt>
      <trkpt lat="43.85245" lon="6.99763">
        <ele>713.2</ele>
        <time>2021-09-20T09:21:16Z</time>
      </trkpt>
      <trkpt lat="43.85241" lon="6.99762">
        <ele>713.6</ele>
        <time>2021-09-20T09:21:18Z</time>
      </trkpt>
      <trkpt lat="43.85239" lon="6.9976">
        <ele>714</ele>
        <time>2021-09-20T09:21:19Z</time>
      </trkpt>
      <trkpt lat="43.85237" lon="6.99759">
        <ele>714.1</ele>
        <time>2021-09-20T09:21:20Z</time>
      </trkpt>
      <trkpt lat="43.85236" lon="6.99757">
        <ele>714.3</ele>
        <time>2021-09-20T09:21:21Z</time>
      </trkpt>
      <trkpt lat="43.85233" lon="6.99755">
        <ele>714.7</ele>
        <time>2021-09-20T09:21:23Z</time>
      </trkpt>
      <trkpt lat="43.85229" lon="6.99752">
        <ele>715</ele>
        <time>2021-09-20T09:21:24Z</time>
      </trkpt>
      <trkpt lat="43.85227" lon="6.99751">
        <ele>715.3</ele>
        <time>2021-09-20T09:21:25Z</time>
      </trkpt>
      <trkpt lat="43.85223" lon="6.99749">
        <ele>715.7</ele>
        <time>2021-09-20T09:21:27Z</time>
      </trkpt>
      <trkpt lat="43.8522" lon="6.99748">
        <ele>716</ele>
        <time>2021-09-20T09:21:28Z</time>
      </trkpt>
      <trkpt lat="43.85217" lon="6.99747">
        <ele>716.3</ele>
        <time>2021-09-20T09:21:29Z</time>
      </trkpt>
      <trkpt lat="43.85214" lon="6.99745">
        <ele>716.7</ele>
        <time>2021-09-20T09:21:30Z</time>
      </trkpt>
      <trkpt lat="43.85213" lon="6.99744">
        <ele>716.8</ele>
        <time>2021-09-20T09:21:31Z</time>
      </trkpt>
      <trkpt lat="43.85211" lon="6.99743">
        <ele>717</ele>
        <time>2021-09-20T09:21:32Z</time>
      </trkpt>
      <trkpt lat="43.85209" lon="6.9974">
        <ele>717.3</ele>
        <time>2021-09-20T09:21:34Z</time>
      </trkpt>
      <trkpt lat="43.85205" lon="6.99738">
        <ele>717.7</ele>
        <time>2021-09-20T09:21:35Z</time>
      </trkpt>
      <trkpt lat="43.85204" lon="6.99738">
        <ele>717.8</ele>
        <time>2021-09-20T09:21:36Z</time>
      </trkpt>
      <trkpt lat="43.85202" lon="6.99737">
        <ele>718</ele>
        <time>2021-09-20T09:21:37Z</time>
      </trkpt>
      <trkpt lat="43.85201" lon="6.99737">
        <ele>718.2</ele>
        <time>2021-09-20T09:21:38Z</time>
      </trkpt>
      <trkpt lat="43.85198" lon="6.99737">
        <ele>718.5</ele>
        <time>2021-09-20T09:21:40Z</time>
      </trkpt>
      <trkpt lat="43.85197" lon="6.99737">
        <ele>718.6</ele>
        <time>2021-09-20T09:21:41Z</time>
      </trkpt>
      <trkpt lat="43.85196" lon="6.99736">
        <ele>718.7</ele>
        <time>2021-09-20T09:21:42Z</time>
      </trkpt>
      <trkpt lat="43.85196" lon="6.99735">
        <ele>718.7</ele>
        <time>2021-09-20T09:21:44Z</time>
      </trkpt>
      <trkpt lat="43.85197" lon="6.99734">
        <ele>718.8</ele>
        <time>2021-09-20T09:21:45Z</time>
      </trkpt>
      <trkpt lat="43.85197" lon="6.99734">
        <ele>718.9</ele>
        <time>2021-09-20T09:21:46Z</time>
      </trkpt>
      <trkpt lat="43.85197" lon="6.99733">
        <ele>718.9</ele>
        <time>2021-09-20T09:21:47Z</time>
      </trkpt>
      <trkpt lat="43.85198" lon="6.99732">
        <ele>719</ele>
        <time>2021-09-20T09:21:48Z</time>
      </trkpt>
      <trkpt lat="43.85198" lon="6.99732">
        <ele>719</ele>
        <time>2021-09-20T09:21:49Z</time>
      </trkpt>
      <trkpt lat="43.85198" lon="6.99731">
        <ele>719.1</ele>
        <time>2021-09-20T09:21:50Z</time>
      </trkpt>
      <trkpt lat="43.85199" lon="6.99729">
        <ele>719.3</ele>
        <time>2021-09-20T09:21:52Z</time>
      </trkpt>
      <trkpt lat="43.85204" lon="6.99691">
        <ele>722.4</ele>
        <time>2021-09-20T09:22:13Z</time>
      </trkpt>
      <trkpt lat="43.85205" lon="6.99686">
        <ele>722.8</ele>
        <time>2021-09-20T09:22:14Z</time>
      </trkpt>
      <trkpt lat="43.85206" lon="6.99677">
        <ele>723.5</ele>
        <time>2021-09-20T09:22:16Z</time>
      </trkpt>
      <trkpt lat="43.85205" lon="6.99672">
        <ele>724</ele>
        <time>2021-09-20T09:22:17Z</time>
      </trkpt>
      <trkpt lat="43.85205" lon="6.99666">
        <ele>724.5</ele>
        <time>2021-09-20T09:22:19Z</time>
      </trkpt>
      <trkpt lat="43.85204" lon="6.99659">
        <ele>725</ele>
        <time>2021-09-20T09:22:20Z</time>
      </trkpt>
      <trkpt lat="43.85205" lon="6.99657">
        <ele>725.2</ele>
        <time>2021-09-20T09:22:21Z</time>
      </trkpt>
      <trkpt lat="43.85205" lon="6.99656">
        <ele>725.3</ele>
        <time>2021-09-20T09:22:22Z</time>
      </trkpt>
      <trkpt lat="43.85206" lon="6.99651">
        <ele>725.6</ele>
        <time>2021-09-20T09:22:24Z</time>
      </trkpt>
      <trkpt lat="43.85206" lon="6.99645">
        <ele>726.1</ele>
        <time>2021-09-20T09:22:27Z</time>
      </trkpt>
      <trkpt lat="43.85205" lon="6.99641">
        <ele>726.4</ele>
        <time>2021-09-20T09:22:28Z</time>
      </trkpt>
      <trkpt lat="43.85205" lon="6.99637">
        <ele>726.7</ele>
        <time>2021-09-20T09:22:29Z</time>
      </trkpt>
      <trkpt lat="43.85207" lon="6.99631">
        <ele>727.1</ele>
        <time>2021-09-20T09:22:30Z</time>
      </trkpt>
      <trkpt lat="43.85208" lon="6.99626">
        <ele>727.6</ele>
        <time>2021-09-20T09:22:31Z</time>
      </trkpt>
      <trkpt lat="43.85209" lon="6.99622">
        <ele>727.9</ele>
        <time>2021-09-20T09:22:32Z</time>
      </trkpt>
      <trkpt lat="43.8521" lon="6.99616">
        <ele>728.3</ele>
        <time>2021-09-20T09:22:34Z</time>
      </trkpt>
      <trkpt lat="43.85211" lon="6.99612">
        <ele>728.6</ele>
        <time>2021-09-20T09:22:35Z</time>
      </trkpt>
      <trkpt lat="43.85213" lon="6.99607">
        <ele>729.1</ele>
        <time>2021-09-20T09:22:36Z</time>
      </trkpt>
      <trkpt lat="43.85214" lon="6.99605">
        <ele>729.3</ele>
        <time>2021-09-20T09:22:37Z</time>
      </trkpt>
      <trkpt lat="43.85215" lon="6.99603">
        <ele>729.5</ele>
        <time>2021-09-20T09:22:38Z</time>
      </trkpt>
      <trkpt lat="43.85217" lon="6.99601">
        <ele>729.8</ele>
        <time>2021-09-20T09:22:40Z</time>
      </trkpt>
      <trkpt lat="43.85218" lon="6.996">
        <ele>729.9</ele>
        <time>2021-09-20T09:22:41Z</time>
      </trkpt>
      <trkpt lat="43.8522" lon="6.99599">
        <ele>730.1</ele>
        <time>2021-09-20T09:22:43Z</time>
      </trkpt>
      <trkpt lat="43.8522" lon="6.99599">
        <ele>730.2</ele>
        <time>2021-09-20T09:22:44Z</time>
      </trkpt>
      <trkpt lat="43.85221" lon="6.99598">
        <ele>730.3</ele>
        <time>2021-09-20T09:22:46Z</time>
      </trkpt>
      <trkpt lat="43.85223" lon="6.99581">
        <ele>731.7</ele>
        <time>2021-09-20T09:22:52Z</time>
      </trkpt>
      <trkpt lat="43.85222" lon="6.99573">
        <ele>732.4</ele>
        <time>2021-09-20T09:22:54Z</time>
      </trkpt>
      <trkpt lat="43.8522" lon="6.99568">
        <ele>732.9</ele>
        <time>2021-09-20T09:22:55Z</time>
      </trkpt>
      <trkpt lat="43.85219" lon="6.99564">
        <ele>733.2</ele>
        <time>2021-09-20T09:22:56Z</time>
      </trkpt>
      <trkpt lat="43.85218" lon="6.99559">
        <ele>733.7</ele>
        <time>2021-09-20T09:22:58Z</time>
      </trkpt>
      <trkpt lat="43.85216" lon="6.99555">
        <ele>734.1</ele>
        <time>2021-09-20T09:22:59Z</time>
      </trkpt>
      <trkpt lat="43.85213" lon="6.99552">
        <ele>734.5</ele>
        <time>2021-09-20T09:23:00Z</time>
      </trkpt>
      <trkpt lat="43.85213" lon="6.99552">
        <ele>734.5</ele>
        <time>2021-09-20T09:23:01Z</time>
      </trkpt>
      <trkpt lat="43.85212" lon="6.99551">
        <ele>734.7</ele>
        <time>2021-09-20T09:23:02Z</time>
      </trkpt>
      <trkpt lat="43.8521" lon="6.99549">
        <ele>735</ele>
        <time>2021-09-20T09:23:04Z</time>
      </trkpt>
      <trkpt lat="43.85207" lon="6.99546">
        <ele>735.3</ele>
        <time>2021-09-20T09:23:05Z</time>
      </trkpt>
      <trkpt lat="43.85207" lon="6.99544">
        <ele>735.5</ele>
        <time>2021-09-20T09:23:06Z</time>
      </trkpt>
      <trkpt lat="43.85206" lon="6.9954">
        <ele>735.8</ele>
        <time>2021-09-20T09:23:08Z</time>
      </trkpt>
      <trkpt lat="43.85205" lon="6.99536">
        <ele>736.1</ele>
        <time>2021-09-20T09:23:09Z</time>
      </trkpt>
      <trkpt lat="43.85204" lon="6.99532">
        <ele>736.5</ele>
        <time>2021-09-20T09:23:11Z</time>
      </trkpt>
      <trkpt lat="43.85203" lon="6.99528">
        <ele>736.8</ele>
        <time>2021-09-20T09:23:12Z</time>
      </trkpt>
      <trkpt lat="43.85203" lon="6.99523">
        <ele>737.2</ele>
        <time>2021-09-20T09:23:14Z</time>
      </trkpt>
      <trkpt lat="43.85203" lon="6.9952">
        <ele>737.5</ele>
        <time>2021-09-20T09:23:15Z</time>
      </trkpt>
      <trkpt lat="43.85205" lon="6.99516">
        <ele>737.8</ele>
        <time>2021-09-20T09:23:17Z</time>
      </trkpt>
      <trkpt lat="43.85205" lon="6.99511">
        <ele>738.2</ele>
        <time>2021-09-20T09:23:18Z</time>
      </trkpt>
      <trkpt lat="43.85204" lon="6.9951">
        <ele>738.3</ele>
        <time>2021-09-20T09:23:19Z</time>
      </trkpt>
      <trkpt lat="43.85203" lon="6.99506">
        <ele>738.7</ele>
        <time>2021-09-20T09:23:20Z</time>
      </trkpt>
      <trkpt lat="43.85203" lon="6.995">
        <ele>739.2</ele>
        <time>2021-09-20T09:23:22Z</time>
      </trkpt>
      <trkpt lat="43.85204" lon="6.99496">
        <ele>739.5</ele>
        <time>2021-09-20T09:23:23Z</time>
      </trkpt>
      <trkpt lat="43.85204" lon="6.99494">
        <ele>739.7</ele>
        <time>2021-09-20T09:23:24Z</time>
      </trkpt>
      <trkpt lat="43.85204" lon="6.99491">
        <ele>740</ele>
        <time>2021-09-20T09:23:26Z</time>
      </trkpt>
      <trkpt lat="43.85204" lon="6.9949">
        <ele>740</ele>
        <time>2021-09-20T09:23:27Z</time>
      </trkpt>
      <trkpt lat="43.85204" lon="6.99489">
        <ele>740.1</ele>
        <time>2021-09-20T09:23:28Z</time>
      </trkpt>
      <trkpt lat="43.85203" lon="6.99487">
        <ele>740.3</ele>
        <time>2021-09-20T09:23:29Z</time>
      </trkpt>
      <trkpt lat="43.85201" lon="6.99484">
        <ele>740.7</ele>
        <time>2021-09-20T09:23:31Z</time>
      </trkpt>
      <trkpt lat="43.85198" lon="6.99481">
        <ele>741.1</ele>
        <time>2021-09-20T09:23:32Z</time>
      </trkpt>
      <trkpt lat="43.85196" lon="6.99478">
        <ele>741.4</ele>
        <time>2021-09-20T09:23:34Z</time>
      </trkpt>
      <trkpt lat="43.85195" lon="6.99476">
        <ele>741.6</ele>
        <time>2021-09-20T09:23:35Z</time>
      </trkpt>
      <trkpt lat="43.85194" lon="6.99472">
        <ele>742</ele>
        <time>2021-09-20T09:23:37Z</time>
      </trkpt>
      <trkpt lat="43.85193" lon="6.9947">
        <ele>742.3</ele>
        <time>2021-09-20T09:23:38Z</time>
      </trkpt>
      <trkpt lat="43.85192" lon="6.99468">
        <ele>742.6</ele>
        <time>2021-09-20T09:23:40Z</time>
      </trkpt>
      <trkpt lat="43.85191" lon="6.99466">
        <ele>742.8</ele>
        <time>2021-09-20T09:23:41Z</time>
      </trkpt>
      <trkpt lat="43.8519" lon="6.99463">
        <ele>743.1</ele>
        <time>2021-09-20T09:23:42Z</time>
      </trkpt>
      <trkpt lat="43.85189" lon="6.99463">
        <ele>743.2</ele>
        <time>2021-09-20T09:23:44Z</time>
      </trkpt>
      <trkpt lat="43.85188" lon="6.99463">
        <ele>743.4</ele>
        <time>2021-09-20T09:23:45Z</time>
      </trkpt>
      <trkpt lat="43.85182" lon="6.99459">
        <ele>744.3</ele>
        <time>2021-09-20T09:23:47Z</time>
      </trkpt>
      <trkpt lat="43.85177" lon="6.99458">
        <ele>745</ele>
        <time>2021-09-20T09:23:48Z</time>
      </trkpt>
      <trkpt lat="43.8517" lon="6.99455">
        <ele>746.1</ele>
        <time>2021-09-20T09:23:50Z</time>
      </trkpt>
      <trkpt lat="43.85164" lon="6.99455">
        <ele>746.9</ele>
        <time>2021-09-20T09:23:51Z</time>
      </trkpt>
      <trkpt lat="43.85158" lon="6.99454">
        <ele>747.8</ele>
        <time>2021-09-20T09:23:53Z</time>
      </trkpt>
      <trkpt lat="43.85155" lon="6.99453">
        <ele>748.2</ele>
        <time>2021-09-20T09:23:54Z</time>
      </trkpt>
      <trkpt lat="43.85154" lon="6.99453">
        <ele>748.4</ele>
        <time>2021-09-20T09:23:55Z</time>
      </trkpt>
      <trkpt lat="43.85152" lon="6.99451">
        <ele>748.7</ele>
        <time>2021-09-20T09:23:56Z</time>
      </trkpt>
      <trkpt lat="43.85148" lon="6.99448">
        <ele>749.4</ele>
        <time>2021-09-20T09:23:58Z</time>
      </trkpt>
      <trkpt lat="43.85145" lon="6.99446">
        <ele>749.8</ele>
        <time>2021-09-20T09:23:59Z</time>
      </trkpt>
      <trkpt lat="43.85145" lon="6.99445">
        <ele>750</ele>
        <time>2021-09-20T09:24:00Z</time>
      </trkpt>
      <trkpt lat="43.85144" lon="6.99444">
        <ele>750.1</ele>
        <time>2021-09-20T09:24:02Z</time>
      </trkpt>
      <trkpt lat="43.85144" lon="6.99444">
        <ele>750.2</ele>
        <time>2021-09-20T09:24:03Z</time>
      </trkpt>
      <trkpt lat="43.85145" lon="6.99443">
        <ele>750.3</ele>
        <time>2021-09-20T09:24:04Z</time>
      </trkpt>
      <trkpt lat="43.85145" lon="6.99443">
        <ele>750.4</ele>
        <time>2021-09-20T09:24:06Z</time>
      </trkpt>
      <trkpt lat="43.85146" lon="6.99443">
        <ele>750.5</ele>
        <time>2021-09-20T09:24:07Z</time>
      </trkpt>
      <trkpt lat="43.85146" lon="6.99443">
        <ele>750.5</ele>
        <time>2021-09-20T09:24:08Z</time>
      </trkpt>
      <trkpt lat="43.85142" lon="6.9944">
        <ele>751</ele>
        <time>2021-09-20T09:24:10Z</time>
      </trkpt>
      <trkpt lat="43.85141" lon="6.99439">
        <ele>751.2</ele>
        <time>2021-09-20T09:24:11Z</time>
      </trkpt>
      <trkpt lat="43.8514" lon="6.99439">
        <ele>751.4</ele>
        <time>2021-09-20T09:24:12Z</time>
      </trkpt>
      <trkpt lat="43.85139" lon="6.99439">
        <ele>751.5</ele>
        <time>2021-09-20T09:24:14Z</time>
      </trkpt>
      <trkpt lat="43.85138" lon="6.99439">
        <ele>751.6</ele>
        <time>2021-09-20T09:24:15Z</time>
      </trkpt>
      <trkpt lat="43.85138" lon="6.99438">
        <ele>751.7</ele>
        <time>2021-09-20T09:24:16Z</time>
      </trkpt>
      <trkpt lat="43.85137" lon="6.99437">
        <ele>751.8</ele>
        <time>2021-09-20T09:24:17Z</time>
      </trkpt>
      <trkpt lat="43.85137" lon="6.99436">
        <ele>751.9</ele>
        <time>2021-09-20T09:24:19Z</time>
      </trkpt>
      <trkpt lat="43.85137" lon="6.99435">
        <ele>752</ele>
        <time>2021-09-20T09:24:20Z</time>
      </trkpt>
      <trkpt lat="43.85137" lon="6.99434">
        <ele>752.1</ele>
        <time>2021-09-20T09:24:21Z</time>
      </trkpt>
      <trkpt lat="43.85136" lon="6.99433">
        <ele>752.2</ele>
        <time>2021-09-20T09:24:22Z</time>
      </trkpt>
      <trkpt lat="43.85137" lon="6.99428">
        <ele>752.7</ele>
        <time>2021-09-20T09:24:23Z</time>
      </trkpt>
      <trkpt lat="43.85137" lon="6.99427">
        <ele>752.9</ele>
        <time>2021-09-20T09:24:24Z</time>
      </trkpt>
      <trkpt lat="43.85138" lon="6.99423">
        <ele>753.3</ele>
        <time>2021-09-20T09:24:26Z</time>
      </trkpt>
      <trkpt lat="43.85139" lon="6.99421">
        <ele>753.5</ele>
        <time>2021-09-20T09:24:27Z</time>
      </trkpt>
      <trkpt lat="43.8514" lon="6.99415">
        <ele>754.1</ele>
        <time>2021-09-20T09:24:29Z</time>
      </trkpt>
      <trkpt lat="43.8514" lon="6.99413">
        <ele>754.3</ele>
        <time>2021-09-20T09:24:30Z</time>
      </trkpt>
      <trkpt lat="43.8514" lon="6.99412">
        <ele>754.4</ele>
        <time>2021-09-20T09:24:31Z</time>
      </trkpt>
      <trkpt lat="43.85141" lon="6.99411">
        <ele>754.5</ele>
        <time>2021-09-20T09:24:32Z</time>
      </trkpt>
      <trkpt lat="43.85141" lon="6.99409">
        <ele>754.6</ele>
        <time>2021-09-20T09:24:33Z</time>
      </trkpt>
      <trkpt lat="43.8514" lon="6.99408">
        <ele>754.7</ele>
        <time>2021-09-20T09:24:35Z</time>
      </trkpt>
      <trkpt lat="43.85139" lon="6.99408">
        <ele>754.8</ele>
        <time>2021-09-20T09:24:36Z</time>
      </trkpt>
      <trkpt lat="43.85139" lon="6.99408">
        <ele>754.9</ele>
        <time>2021-09-20T09:24:37Z</time>
      </trkpt>
      <trkpt lat="43.85138" lon="6.99408">
        <ele>755</ele>
        <time>2021-09-20T09:24:38Z</time>
      </trkpt>
      <trkpt lat="43.85138" lon="6.99403">
        <ele>755.4</ele>
        <time>2021-09-20T09:24:39Z</time>
      </trkpt>
      <trkpt lat="43.85138" lon="6.99399">
        <ele>755.8</ele>
        <time>2021-09-20T09:25:01Z</time>
      </trkpt>
      <trkpt lat="43.85138" lon="6.99395">
        <ele>756.2</ele>
        <time>2021-09-20T09:25:02Z</time>
      </trkpt>
      <trkpt lat="43.85143" lon="6.99388">
        <ele>757</ele>
        <time>2021-09-20T09:25:03Z</time>
      </trkpt>
      <trkpt lat="43.85146" lon="6.99383">
        <ele>757.6</ele>
        <time>2021-09-20T09:25:04Z</time>
      </trkpt>
      <trkpt lat="43.8515" lon="6.99378">
        <ele>758.2</ele>
        <time>2021-09-20T09:25:06Z</time>
      </trkpt>
      <trkpt lat="43.85153" lon="6.99376">
        <ele>758.6</ele>
        <time>2021-09-20T09:25:07Z</time>
      </trkpt>
      <trkpt lat="43.85155" lon="6.99376">
        <ele>758.8</ele>
        <time>2021-09-20T09:25:08Z</time>
      </trkpt>
      <trkpt lat="43.85158" lon="6.99373">
        <ele>759.2</ele>
        <time>2021-09-20T09:25:10Z</time>
      </trkpt>
      <trkpt lat="43.85159" lon="6.99372">
        <ele>759.3</ele>
        <time>2021-09-20T09:25:11Z</time>
      </trkpt>
      <trkpt lat="43.85159" lon="6.99372">
        <ele>759.3</ele>
        <time>2021-09-20T09:25:12Z</time>
      </trkpt>
      <trkpt lat="43.85159" lon="6.99371">
        <ele>759.4</ele>
        <time>2021-09-20T09:25:13Z</time>
      </trkpt>
      <trkpt lat="43.85159" lon="6.99371">
        <ele>759.4</ele>
        <time>2021-09-20T09:25:14Z</time>
      </trkpt>
      <trkpt lat="43.85161" lon="6.99369">
        <ele>759.7</ele>
        <time>2021-09-20T09:25:16Z</time>
      </trkpt>
      <trkpt lat="43.85162" lon="6.99365">
        <ele>760</ele>
        <time>2021-09-20T09:25:17Z</time>
      </trkpt>
      <trkpt lat="43.85162" lon="6.99364">
        <ele>760.1</ele>
        <time>2021-09-20T09:25:18Z</time>
      </trkpt>
      <trkpt lat="43.85165" lon="6.99353">
        <ele>760.9</ele>
        <time>2021-09-20T09:25:23Z</time>
      </trkpt>
      <trkpt lat="43.85166" lon="6.99349">
        <ele>761.2</ele>
        <time>2021-09-20T09:25:24Z</time>
      </trkpt>
      <trkpt lat="43.85166" lon="6.99343">
        <ele>761.7</ele>
        <time>2021-09-20T09:25:25Z</time>
      </trkpt>
      <trkpt lat="43.85166" lon="6.99339">
        <ele>762</ele>
        <time>2021-09-20T09:25:26Z</time>
      </trkpt>
      <trkpt lat="43.85166" lon="6.99334">
        <ele>762.3</ele>
        <time>2021-09-20T09:25:28Z</time>
      </trkpt>
      <trkpt lat="43.85167" lon="6.99332">
        <ele>762.5</ele>
        <time>2021-09-20T09:25:29Z</time>
      </trkpt>
      <trkpt lat="43.85168" lon="6.99329">
        <ele>762.8</ele>
        <time>2021-09-20T09:25:30Z</time>
      </trkpt>
      <trkpt lat="43.85169" lon="6.99324">
        <ele>763.1</ele>
        <time>2021-09-20T09:25:31Z</time>
      </trkpt>
      <trkpt lat="43.8517" lon="6.99322">
        <ele>763.3</ele>
        <time>2021-09-20T09:25:32Z</time>
      </trkpt>
      <trkpt lat="43.8517" lon="6.99319">
        <ele>763.5</ele>
        <time>2021-09-20T09:25:34Z</time>
      </trkpt>
      <trkpt lat="43.85169" lon="6.99315">
        <ele>763.8</ele>
        <time>2021-09-20T09:25:35Z</time>
      </trkpt>
      <trkpt lat="43.85169" lon="6.99314">
        <ele>763.9</ele>
        <time>2021-09-20T09:25:36Z</time>
      </trkpt>
      <trkpt lat="43.85169" lon="6.99312">
        <ele>764</ele>
        <time>2021-09-20T09:25:38Z</time>
      </trkpt>
      <trkpt lat="43.85168" lon="6.99311">
        <ele>764.1</ele>
        <time>2021-09-20T09:25:39Z</time>
      </trkpt>
      <trkpt lat="43.85168" lon="6.9931">
        <ele>764.2</ele>
        <time>2021-09-20T09:25:40Z</time>
      </trkpt>
      <trkpt lat="43.85167" lon="6.99292">
        <ele>765.5</ele>
        <time>2021-09-20T09:25:41Z</time>
      </trkpt>
      <trkpt lat="43.85167" lon="6.99278">
        <ele>766.5</ele>
        <time>2021-09-20T09:26:06Z</time>
      </trkpt>
      <trkpt lat="43.85167" lon="6.99264">
        <ele>767.5</ele>
        <time>2021-09-20T09:26:07Z</time>
      </trkpt>
      <trkpt lat="43.85167" lon="6.9925">
        <ele>768.5</ele>
        <time>2021-09-20T09:26:08Z</time>
      </trkpt>
      <trkpt lat="43.85168" lon="6.99245">
        <ele>768.8</ele>
        <time>2021-09-20T09:26:10Z</time>
      </trkpt>
      <trkpt lat="43.85168" lon="6.9924">
        <ele>769.2</ele>
        <time>2021-09-20T09:26:11Z</time>
      </trkpt>
      <trkpt lat="43.85169" lon="6.99238">
        <ele>769.3</ele>
        <time>2021-09-20T09:26:12Z</time>
      </trkpt>
      <trkpt lat="43.85169" lon="6.99233">
        <ele>769.8</ele>
        <time>2021-09-20T09:26:14Z</time>
      </trkpt>
      <trkpt lat="43.85169" lon="6.99229">
        <ele>770.1</ele>
        <time>2021-09-20T09:26:15Z</time>
      </trkpt>
      <trkpt lat="43.85168" lon="6.99224">
        <ele>770.4</ele>
        <time>2021-09-20T09:26:17Z</time>
      </trkpt>
      <trkpt lat="43.85168" lon="6.99223">
        <ele>770.6</ele>
        <time>2021-09-20T09:26:18Z</time>
      </trkpt>
      <trkpt lat="43.8517" lon="6.99218">
        <ele>771</ele>
        <time>2021-09-20T09:26:20Z</time>
      </trkpt>
      <trkpt lat="43.8517" lon="6.99217">
        <ele>771.1</ele>
        <time>2021-09-20T09:26:21Z</time>
      </trkpt>
      <trkpt lat="43.85171" lon="6.99216">
        <ele>771.2</ele>
        <time>2021-09-20T09:26:23Z</time>
      </trkpt>
      <trkpt lat="43.85172" lon="6.99216">
        <ele>771.3</ele>
        <time>2021-09-20T09:26:25Z</time>
      </trkpt>
      <trkpt lat="43.85172" lon="6.99215">
        <ele>771.4</ele>
        <time>2021-09-20T09:26:26Z</time>
      </trkpt>
      <trkpt lat="43.85173" lon="6.99214">
        <ele>771.4</ele>
        <time>2021-09-20T09:26:27Z</time>
      </trkpt>
      <trkpt lat="43.85174" lon="6.99213">
        <ele>771.5</ele>
        <time>2021-09-20T09:26:29Z</time>
      </trkpt>
      <trkpt lat="43.85174" lon="6.99213">
        <ele>771.6</ele>
        <time>2021-09-20T09:26:30Z</time>
      </trkpt>
      <trkpt lat="43.85175" lon="6.99211">
        <ele>771.8</ele>
        <time>2021-09-20T09:26:32Z</time>
      </trkpt>
      <trkpt lat="43.85174" lon="6.99168">
        <ele>775.6</ele>
        <time>2021-09-20T09:26:54Z</time>
      </trkpt>
      <trkpt lat="43.85164" lon="6.9916">
        <ele>776.9</ele>
        <time>2021-09-20T09:26:56Z</time>
      </trkpt>
      <trkpt lat="43.85162" lon="6.99156">
        <ele>777.4</ele>
        <time>2021-09-20T09:26:57Z</time>
      </trkpt>
      <trkpt lat="43.85157" lon="6.9915">
        <ele>778.2</ele>
        <time>2021-09-20T09:26:59Z</time>
      </trkpt>
      <trkpt lat="43.85156" lon="6.99146">
        <ele>778.5</ele>
        <time>2021-09-20T09:27:00Z</time>
      </trkpt>
      <trkpt lat="43.85155" lon="6.99142">
        <ele>778.9</ele>
        <time>2021-09-20T09:27:01Z</time>
      </trkpt>
      <trkpt lat="43.85155" lon="6.99139">
        <ele>779.1</ele>
        <time>2021-09-20T09:27:03Z</time>
      </trkpt>
      <trkpt lat="43.85155" lon="6.99138">
        <ele>779.2</ele>
        <time>2021-09-20T09:27:04Z</time>
      </trkpt>
      <trkpt lat="43.85155" lon="6.99137">
        <ele>779.3</ele>
        <time>2021-09-20T09:27:05Z</time>
      </trkpt>
      <trkpt lat="43.85155" lon="6.99134">
        <ele>779.6</ele>
        <time>2021-09-20T09:27:07Z</time>
      </trkpt>
      <trkpt lat="43.85156" lon="6.99132">
        <ele>779.7</ele>
        <time>2021-09-20T09:27:08Z</time>
      </trkpt>
      <trkpt lat="43.85155" lon="6.99131">
        <ele>779.8</ele>
        <time>2021-09-20T09:27:09Z</time>
      </trkpt>
      <trkpt lat="43.85148" lon="6.99117">
        <ele>781.2</ele>
        <time>2021-09-20T09:27:18Z</time>
      </trkpt>
      <trkpt lat="43.85145" lon="6.99113">
        <ele>781.7</ele>
        <time>2021-09-20T09:27:19Z</time>
      </trkpt>
      <trkpt lat="43.85144" lon="6.99112">
        <ele>781.8</ele>
        <time>2021-09-20T09:27:20Z</time>
      </trkpt>
      <trkpt lat="43.85143" lon="6.99112">
        <ele>781.9</ele>
        <time>2021-09-20T09:27:22Z</time>
      </trkpt>
      <trkpt lat="43.85141" lon="6.9911">
        <ele>782.2</ele>
        <time>2021-09-20T09:27:24Z</time>
      </trkpt>
      <trkpt lat="43.85139" lon="6.99108">
        <ele>782.5</ele>
        <time>2021-09-20T09:27:25Z</time>
      </trkpt>
      <trkpt lat="43.85138" lon="6.99108">
        <ele>782.7</ele>
        <time>2021-09-20T09:27:26Z</time>
      </trkpt>
      <trkpt lat="43.85135" lon="6.99106">
        <ele>783</ele>
        <time>2021-09-20T09:27:28Z</time>
      </trkpt>
      <trkpt lat="43.85134" lon="6.99106">
        <ele>783.1</ele>
        <time>2021-09-20T09:27:29Z</time>
      </trkpt>
      <trkpt lat="43.85115" lon="6.99082">
        <ele>786.4</ele>
        <time>2021-09-20T09:27:47Z</time>
      </trkpt>
      <trkpt lat="43.85112" lon="6.9908">
        <ele>786.8</ele>
        <time>2021-09-20T09:27:48Z</time>
      </trkpt>
      <trkpt lat="43.85111" lon="6.99079">
        <ele>786.9</ele>
        <time>2021-09-20T09:27:49Z</time>
      </trkpt>
      <trkpt lat="43.85109" lon="6.99078">
        <ele>787.2</ele>
        <time>2021-09-20T09:27:51Z</time>
      </trkpt>
      <trkpt lat="43.85108" lon="6.99077">
        <ele>787.3</ele>
        <time>2021-09-20T09:27:52Z</time>
      </trkpt>
      <trkpt lat="43.85108" lon="6.99077">
        <ele>787.4</ele>
        <time>2021-09-20T09:27:53Z</time>
      </trkpt>
      <trkpt lat="43.85107" lon="6.99076">
        <ele>787.5</ele>
        <time>2021-09-20T09:27:55Z</time>
      </trkpt>
      <trkpt lat="43.85107" lon="6.99075">
        <ele>787.6</ele>
        <time>2021-09-20T09:27:57Z</time>
      </trkpt>
      <trkpt lat="43.85107" lon="6.99075">
        <ele>787.7</ele>
        <time>2021-09-20T09:27:58Z</time>
      </trkpt>
      <trkpt lat="43.85183" lon="6.98947">
        <ele>800.4</ele>
        <time>2021-09-20T09:28:56Z</time>
      </trkpt>
      <trkpt lat="43.85184" lon="6.98943">
        <ele>800.6</ele>
        <time>2021-09-20T09:28:58Z</time>
      </trkpt>
      <trkpt lat="43.85184" lon="6.98941">
        <ele>800.8</ele>
        <time>2021-09-20T09:29:00Z</time>
      </trkpt>
      <trkpt lat="43.85183" lon="6.98938">
        <ele>801</ele>
        <time>2021-09-20T09:29:02Z</time>
      </trkpt>
      <trkpt lat="43.85181" lon="6.98935">
        <ele>801.3</ele>
        <time>2021-09-20T09:29:03Z</time>
      </trkpt>
      <trkpt lat="43.85179" lon="6.98932">
        <ele>801.7</ele>
        <time>2021-09-20T09:29:05Z</time>
      </trkpt>
      <trkpt lat="43.85175" lon="6.9893">
        <ele>802.1</ele>
        <time>2021-09-20T09:29:06Z</time>
      </trkpt>
      <trkpt lat="43.85173" lon="6.98928">
        <ele>802.4</ele>
        <time>2021-09-20T09:29:07Z</time>
      </trkpt>
      <trkpt lat="43.85171" lon="6.98927">
        <ele>802.6</ele>
        <time>2021-09-20T09:29:09Z</time>
      </trkpt>
      <trkpt lat="43.85169" lon="6.98926">
        <ele>802.8</ele>
        <time>2021-09-20T09:29:10Z</time>
      </trkpt>
      <trkpt lat="43.85168" lon="6.98926">
        <ele>803</ele>
        <time>2021-09-20T09:29:11Z</time>
      </trkpt>
      <trkpt lat="43.85164" lon="6.98922">
        <ele>803.5</ele>
        <time>2021-09-20T09:29:13Z</time>
      </trkpt>
      <trkpt lat="43.85162" lon="6.9892">
        <ele>803.8</ele>
        <time>2021-09-20T09:29:14Z</time>
      </trkpt>
      <trkpt lat="43.85159" lon="6.98918">
        <ele>804.2</ele>
        <time>2021-09-20T09:29:15Z</time>
      </trkpt>
      <trkpt lat="43.85155" lon="6.98919">
        <ele>804.6</ele>
        <time>2021-09-20T09:29:17Z</time>
      </trkpt>
      <trkpt lat="43.85153" lon="6.9892">
        <ele>804.8</ele>
        <time>2021-09-20T09:29:18Z</time>
      </trkpt>
      <trkpt lat="43.85152" lon="6.98922">
        <ele>805.1</ele>
        <time>2021-09-20T09:29:19Z</time>
      </trkpt>
      <trkpt lat="43.85148" lon="6.98927">
        <ele>805.8</ele>
        <time>2021-09-20T09:29:21Z</time>
      </trkpt>
      <trkpt lat="43.85144" lon="6.98932">
        <ele>806.3</ele>
        <time>2021-09-20T09:29:22Z</time>
      </trkpt>
      <trkpt lat="43.85141" lon="6.98937">
        <ele>807</ele>
        <time>2021-09-20T09:29:23Z</time>
      </trkpt>
      <trkpt lat="43.85137" lon="6.98942">
        <ele>807.6</ele>
        <time>2021-09-20T09:29:24Z</time>
      </trkpt>
      <trkpt lat="43.85131" lon="6.98952">
        <ele>808.8</ele>
        <time>2021-09-20T09:29:26Z</time>
      </trkpt>
      <trkpt lat="43.8513" lon="6.98957">
        <ele>810.3</ele>
        <time>2021-09-20T09:29:27Z</time>
      </trkpt>
      <trkpt lat="43.85129" lon="6.98962">
        <ele>810.1</ele>
        <time>2021-09-20T09:29:28Z</time>
      </trkpt>
      <trkpt lat="43.85128" lon="6.98966">
        <ele>809.9</ele>
        <time>2021-09-20T09:29:29Z</time>
      </trkpt>
      <trkpt lat="43.85128" lon="6.98967">
        <ele>809.7</ele>
        <time>2021-09-20T09:29:31Z</time>
      </trkpt>
      <trkpt lat="43.85129" lon="6.98968">
        <ele>809.9</ele>
        <time>2021-09-20T09:29:32Z</time>
      </trkpt>
      <trkpt lat="43.85129" lon="6.98969">
        <ele>810</ele>
        <time>2021-09-20T09:29:33Z</time>
      </trkpt>
      <trkpt lat="43.85129" lon="6.98969">
        <ele>810.2</ele>
        <time>2021-09-20T09:29:34Z</time>
      </trkpt>
      <trkpt lat="43.85129" lon="6.98969">
        <ele>810.3</ele>
        <time>2021-09-20T09:29:35Z</time>
      </trkpt>
      <trkpt lat="43.85129" lon="6.98969">
        <ele>810.5</ele>
        <time>2021-09-20T09:29:36Z</time>
      </trkpt>
      <trkpt lat="43.85128" lon="6.98969">
        <ele>810.7</ele>
        <time>2021-09-20T09:29:38Z</time>
      </trkpt>
      <trkpt lat="43.85128" lon="6.98969">
        <ele>810.8</ele>
        <time>2021-09-20T09:29:39Z</time>
      </trkpt>
      <trkpt lat="43.8509" lon="6.99154">
        <ele>822.1</ele>
        <time>2021-09-20T09:31:25Z</time>
      </trkpt>
      <trkpt lat="43.85091" lon="6.99155">
        <ele>822</ele>
        <time>2021-09-20T09:31:26Z</time>
      </trkpt>
      <trkpt lat="43.85091" lon="6.99156">
        <ele>822</ele>
        <time>2021-09-20T09:31:27Z</time>
      </trkpt>
      <trkpt lat="43.85092" lon="6.99155">
        <ele>822</ele>
        <time>2021-09-20T09:31:29Z</time>
      </trkpt>
      <trkpt lat="43.85092" lon="6.99155">
        <ele>822</ele>
        <time>2021-09-20T09:31:30Z</time>
      </trkpt>
      <trkpt lat="43.85094" lon="6.99156">
        <ele>821.9</ele>
        <time>2021-09-20T09:31:32Z</time>
      </trkpt>
      <trkpt lat="43.85095" lon="6.99156">
        <ele>821.9</ele>
        <time>2021-09-20T09:31:33Z</time>
      </trkpt>
      <trkpt lat="43.85096" lon="6.99157">
        <ele>821.8</ele>
        <time>2021-09-20T09:31:35Z</time>
      </trkpt>
      <trkpt lat="43.85096" lon="6.99159">
        <ele>821.8</ele>
        <time>2021-09-20T09:31:36Z</time>
      </trkpt>
      <trkpt lat="43.85097" lon="6.99213">
        <ele>820.3</ele>
        <time>2021-09-20T09:31:55Z</time>
      </trkpt>
      <trkpt lat="43.85099" lon="6.99216">
        <ele>820.1</ele>
        <time>2021-09-20T09:31:57Z</time>
      </trkpt>
      <trkpt lat="43.85099" lon="6.99219">
        <ele>820</ele>
        <time>2021-09-20T09:31:59Z</time>
      </trkpt>
      <trkpt lat="43.85099" lon="6.99223">
        <ele>819.9</ele>
        <time>2021-09-20T09:32:01Z</time>
      </trkpt>
      <trkpt lat="43.85098" lon="6.99226">
        <ele>819.8</ele>
        <time>2021-09-20T09:32:02Z</time>
      </trkpt>
      <trkpt lat="43.85097" lon="6.99228">
        <ele>819.8</ele>
        <time>2021-09-20T09:32:04Z</time>
      </trkpt>
      <trkpt lat="43.85097" lon="6.9923">
        <ele>819.7</ele>
        <time>2021-09-20T09:32:05Z</time>
      </trkpt>
      <trkpt lat="43.85095" lon="6.99232">
        <ele>819.6</ele>
        <time>2021-09-20T09:32:07Z</time>
      </trkpt>
      <trkpt lat="43.85094" lon="6.99234">
        <ele>819.6</ele>
        <time>2021-09-20T09:32:09Z</time>
      </trkpt>
      <trkpt lat="43.85092" lon="6.99233">
        <ele>819.5</ele>
        <time>2021-09-20T09:32:10Z</time>
      </trkpt>
      <trkpt lat="43.85091" lon="6.99233">
        <ele>819.5</ele>
        <time>2021-09-20T09:32:12Z</time>
      </trkpt>
      <trkpt lat="43.8509" lon="6.99233">
        <ele>819.4</ele>
        <time>2021-09-20T09:32:13Z</time>
      </trkpt>
      <trkpt lat="43.85087" lon="6.99234">
        <ele>819.3</ele>
        <time>2021-09-20T09:32:14Z</time>
      </trkpt>
      <trkpt lat="43.85083" lon="6.99232">
        <ele>819.2</ele>
        <time>2021-09-20T09:32:16Z</time>
      </trkpt>
      <trkpt lat="43.85082" lon="6.99232">
        <ele>819.1</ele>
        <time>2021-09-20T09:32:17Z</time>
      </trkpt>
      <trkpt lat="43.8508" lon="6.99233">
        <ele>819.1</ele>
        <time>2021-09-20T09:32:18Z</time>
      </trkpt>
      <trkpt lat="43.85077" lon="6.99236">
        <ele>819.1</ele>
        <time>2021-09-20T09:32:20Z</time>
      </trkpt>
      <trkpt lat="43.85073" lon="6.99239">
        <ele>819.3</ele>
        <time>2021-09-20T09:32:22Z</time>
      </trkpt>
      <trkpt lat="43.85072" lon="6.99239">
        <ele>819.4</ele>
        <time>2021-09-20T09:32:24Z</time>
      </trkpt>
      <trkpt lat="43.8507" lon="6.9924">
        <ele>819.5</ele>
        <time>2021-09-20T09:32:25Z</time>
      </trkpt>
      <trkpt lat="43.85069" lon="6.99241">
        <ele>819.6</ele>
        <time>2021-09-20T09:32:26Z</time>
      </trkpt>
      <trkpt lat="43.85068" lon="6.99241">
        <ele>819.6</ele>
        <time>2021-09-20T09:32:27Z</time>
      </trkpt>
      <trkpt lat="43.85067" lon="6.99241">
        <ele>819.7</ele>
        <time>2021-09-20T09:32:28Z</time>
      </trkpt>
      <trkpt lat="43.85064" lon="6.99243">
        <ele>819.9</ele>
        <time>2021-09-20T09:32:30Z</time>
      </trkpt>
      <trkpt lat="43.85063" lon="6.99244">
        <ele>820</ele>
        <time>2021-09-20T09:32:31Z</time>
      </trkpt>
      <trkpt lat="43.8506" lon="6.99245">
        <ele>820.1</ele>
        <time>2021-09-20T09:32:32Z</time>
      </trkpt>
      <trkpt lat="43.85059" lon="6.99245">
        <ele>820.2</ele>
        <time>2021-09-20T09:32:33Z</time>
      </trkpt>
      <trkpt lat="43.85057" lon="6.99248">
        <ele>820.3</ele>
        <time>2021-09-20T09:32:35Z</time>
      </trkpt>
      <trkpt lat="43.85056" lon="6.99249">
        <ele>820.4</ele>
        <time>2021-09-20T09:32:36Z</time>
      </trkpt>
      <trkpt lat="43.85054" lon="6.99252">
        <ele>820.6</ele>
        <time>2021-09-20T09:32:38Z</time>
      </trkpt>
      <trkpt lat="43.85053" lon="6.99253">
        <ele>820.7</ele>
        <time>2021-09-20T09:32:39Z</time>
      </trkpt>
      <trkpt lat="43.85052" lon="6.99255">
        <ele>820.8</ele>
        <time>2021-09-20T09:32:40Z</time>
      </trkpt>
      <trkpt lat="43.85052" lon="6.99258">
        <ele>820.9</ele>
        <time>2021-09-20T09:32:42Z</time>
      </trkpt>
      <trkpt lat="43.85054" lon="6.99259">
        <ele>821</ele>
        <time>2021-09-20T09:32:43Z</time>
      </trkpt>
      <trkpt lat="43.85054" lon="6.9926">
        <ele>821</ele>
        <time>2021-09-20T09:32:44Z</time>
      </trkpt>
      <trkpt lat="43.85055" lon="6.99259">
        <ele>821.1</ele>
        <time>2021-09-20T09:32:46Z</time>
      </trkpt>
      <trkpt lat="43.85055" lon="6.99259">
        <ele>821.1</ele>
        <time>2021-09-20T09:32:47Z</time>
      </trkpt>
      <trkpt lat="43.85055" lon="6.99258">
        <ele>821.1</ele>
        <time>2021-09-20T09:32:48Z</time>
      </trkpt>
      <trkpt lat="43.85056" lon="6.99257">
        <ele>821.2</ele>
        <time>2021-09-20T09:32:49Z</time>
      </trkpt>
      <trkpt lat="43.85057" lon="6.99256">
        <ele>821.2</ele>
        <time>2021-09-20T09:32:50Z</time>
      </trkpt>
      <trkpt lat="43.85036" lon="6.9952">
        <ele>832</ele>
        <time>2021-09-20T09:35:42Z</time>
      </trkpt>
      <trkpt lat="43.85036" lon="6.99515">
        <ele>832.2</ele>
        <time>2021-09-20T09:35:43Z</time>
      </trkpt>
      <trkpt lat="43.85036" lon="6.99509">
        <ele>832.5</ele>
        <time>2021-09-20T09:35:45Z</time>
      </trkpt>
      <trkpt lat="43.85035" lon="6.99504">
        <ele>832.8</ele>
        <time>2021-09-20T09:35:46Z</time>
      </trkpt>
      <trkpt lat="43.85034" lon="6.995">
        <ele>833</ele>
        <time>2021-09-20T09:35:47Z</time>
      </trkpt>
      <trkpt lat="43.85032" lon="6.99495">
        <ele>833.3</ele>
        <time>2021-09-20T09:35:48Z</time>
      </trkpt>
      <trkpt lat="43.85031" lon="6.99494">
        <ele>833.3</ele>
        <time>2021-09-20T09:35:49Z</time>
      </trkpt>
      <trkpt lat="43.85029" lon="6.9949">
        <ele>833.6</ele>
        <time>2021-09-20T09:35:50Z</time>
      </trkpt>
      <trkpt lat="43.85028" lon="6.99489">
        <ele>837.5</ele>
        <time>2021-09-20T09:35:51Z</time>
      </trkpt>
      <trkpt lat="43.85025" lon="6.99482">
        <ele>838</ele>
        <time>2021-09-20T09:35:53Z</time>
      </trkpt>
      <trkpt lat="43.85023" lon="6.9948">
        <ele>842.1</ele>
        <time>2021-09-20T09:35:54Z</time>
      </trkpt>
      <trkpt lat="43.85022" lon="6.9948">
        <ele>845.3</ele>
        <time>2021-09-20T09:35:55Z</time>
      </trkpt>
      <trkpt lat="43.8502" lon="6.99477">
        <ele>845.9</ele>
        <time>2021-09-20T09:35:56Z</time>
      </trkpt>
      <trkpt lat="43.85019" lon="6.99475">
        <ele>846.3</ele>
        <time>2021-09-20T09:35:57Z</time>
      </trkpt>
      <trkpt lat="43.85018" lon="6.99473">
        <ele>848.9</ele>
        <time>2021-09-20T09:35:58Z</time>
      </trkpt>
      <trkpt lat="43.85017" lon="6.99469">
        <ele>849.1</ele>
        <time>2021-09-20T09:36:00Z</time>
      </trkpt>
      <trkpt lat="43.85015" lon="6.99466">
        <ele>851.2</ele>
        <time>2021-09-20T09:36:02Z</time>
      </trkpt>
      <trkpt lat="43.85015" lon="6.99464">
        <ele>850.7</ele>
        <time>2021-09-20T09:36:04Z</time>
      </trkpt>
      <trkpt lat="43.85012" lon="6.9946">
        <ele>852.3</ele>
        <time>2021-09-20T09:36:05Z</time>
      </trkpt>
      <trkpt lat="43.85012" lon="6.99458">
        <ele>851.1</ele>
        <time>2021-09-20T09:36:06Z</time>
      </trkpt>
      <trkpt lat="43.85011" lon="6.99457">
        <ele>851.4</ele>
        <time>2021-09-20T09:36:08Z</time>
      </trkpt>
      <trkpt lat="43.85011" lon="6.99455">
        <ele>849.5</ele>
        <time>2021-09-20T09:36:09Z</time>
      </trkpt>
      <trkpt lat="43.85009" lon="6.9945">
        <ele>848.8</ele>
        <time>2021-09-20T09:36:11Z</time>
      </trkpt>
      <trkpt lat="43.85008" lon="6.99448">
        <ele>849.1</ele>
        <time>2021-09-20T09:36:12Z</time>
      </trkpt>
      <trkpt lat="43.85008" lon="6.99446">
        <ele>847</ele>
        <time>2021-09-20T09:36:13Z</time>
      </trkpt>
      <trkpt lat="43.85006" lon="6.99442">
        <ele>847.6</ele>
        <time>2021-09-20T09:36:15Z</time>
      </trkpt>
      <trkpt lat="43.85005" lon="6.99439">
        <ele>847.9</ele>
        <time>2021-09-20T09:36:16Z</time>
      </trkpt>
      <trkpt lat="43.85005" lon="6.99438">
        <ele>846.9</ele>
        <time>2021-09-20T09:36:18Z</time>
      </trkpt>
      <trkpt lat="43.85005" lon="6.99436">
        <ele>847.2</ele>
        <time>2021-09-20T09:36:19Z</time>
      </trkpt>
      <trkpt lat="43.85005" lon="6.99433">
        <ele>846.9</ele>
        <time>2021-09-20T09:36:21Z</time>
      </trkpt>
      <trkpt lat="43.85005" lon="6.9943">
        <ele>847.2</ele>
        <time>2021-09-20T09:36:23Z</time>
      </trkpt>
      <trkpt lat="43.85008" lon="6.99414">
        <ele>850.5</ele>
        <time>2021-09-20T09:36:29Z</time>
      </trkpt>
      <trkpt lat="43.85008" lon="6.99406">
        <ele>855.6</ele>
        <time>2021-09-20T09:36:31Z</time>
      </trkpt>
      <trkpt lat="43.85008" lon="6.994">
        <ele>858.5</ele>
        <time>2021-09-20T09:36:33Z</time>
      </trkpt>
      <trkpt lat="43.8501" lon="6.99394">
        <ele>857.3</ele>
        <time>2021-09-20T09:36:34Z</time>
      </trkpt>
      <trkpt lat="43.85011" lon="6.9939">
        <ele>857.6</ele>
        <time>2021-09-20T09:36:35Z</time>
      </trkpt>
      <trkpt lat="43.85011" lon="6.99389">
        <ele>857.9</ele>
        <time>2021-09-20T09:36:36Z</time>
      </trkpt>
      <trkpt lat="43.85013" lon="6.99383">
        <ele>855.2</ele>
        <time>2021-09-20T09:36:38Z</time>
      </trkpt>
      <trkpt lat="43.85014" lon="6.9938">
        <ele>855.5</ele>
        <time>2021-09-20T09:36:39Z</time>
      </trkpt>
      <trkpt lat="43.85015" lon="6.99378">
        <ele>855.3</ele>
        <time>2021-09-20T09:36:40Z</time>
      </trkpt>
      <trkpt lat="43.85018" lon="6.99373">
        <ele>853.3</ele>
        <time>2021-09-20T09:36:41Z</time>
      </trkpt>
      <trkpt lat="43.85021" lon="6.99368">
        <ele>851.5</ele>
        <time>2021-09-20T09:36:42Z</time>
      </trkpt>
      <trkpt lat="43.85024" lon="6.99362">
        <ele>849.7</ele>
        <time>2021-09-20T09:36:43Z</time>
      </trkpt>
      <trkpt lat="43.85027" lon="6.99356">
        <ele>848.2</ele>
        <time>2021-09-20T09:36:44Z</time>
      </trkpt>
      <trkpt lat="43.8503" lon="6.99351">
        <ele>846.3</ele>
        <time>2021-09-20T09:36:45Z</time>
      </trkpt>
      <trkpt lat="43.85031" lon="6.99347">
        <ele>846.8</ele>
        <time>2021-09-20T09:36:46Z</time>
      </trkpt>
      <trkpt lat="43.85033" lon="6.99342">
        <ele>844.8</ele>
        <time>2021-09-20T09:36:48Z</time>
      </trkpt>
      <trkpt lat="43.85034" lon="6.99341">
        <ele>845.1</ele>
        <time>2021-09-20T09:36:50Z</time>
      </trkpt>
      <trkpt lat="43.85033" lon="6.9934">
        <ele>845.4</ele>
        <time>2021-09-20T09:36:51Z</time>
      </trkpt>
      <trkpt lat="43.85033" lon="6.99339">
        <ele>845.7</ele>
        <time>2021-09-20T09:36:53Z</time>
      </trkpt>
      <trkpt lat="43.85033" lon="6.99337">
        <ele>846.1</ele>
        <time>2021-09-20T09:36:54Z</time>
      </trkpt>
      <trkpt lat="43.85033" lon="6.99334">
        <ele>846.3</ele>
        <time>2021-09-20T09:36:56Z</time>
      </trkpt>
      <trkpt lat="43.85002" lon="6.9921">
        <ele>846.6</ele>
        <time>2021-09-20T09:37:58Z</time>
      </trkpt>
      <trkpt lat="43.85001" lon="6.99207">
        <ele>846.8</ele>
        <time>2021-09-20T09:37:59Z</time>
      </trkpt>
      <trkpt lat="43.85" lon="6.99202">
        <ele>847</ele>
        <time>2021-09-20T09:38:01Z</time>
      </trkpt>
      <trkpt lat="43.85" lon="6.99198">
        <ele>847.1</ele>
        <time>2021-09-20T09:38:02Z</time>
      </trkpt>
      <trkpt lat="43.85001" lon="6.99194">
        <ele>847.3</ele>
        <time>2021-09-20T09:38:03Z</time>
      </trkpt>
      <trkpt lat="43.85005" lon="6.99189">
        <ele>847.6</ele>
        <time>2021-09-20T09:38:05Z</time>
      </trkpt>
      <trkpt lat="43.85006" lon="6.99185">
        <ele>847.8</ele>
        <time>2021-09-20T09:38:06Z</time>
      </trkpt>
      <trkpt lat="43.85007" lon="6.99182">
        <ele>848</ele>
        <time>2021-09-20T09:38:07Z</time>
      </trkpt>
      <trkpt lat="43.85007" lon="6.9918">
        <ele>848.1</ele>
        <time>2021-09-20T09:38:09Z</time>
      </trkpt>
      <trkpt lat="43.85007" lon="6.99177">
        <ele>848.2</ele>
        <time>2021-09-20T09:38:10Z</time>
      </trkpt>
      <trkpt lat="43.85007" lon="6.99174">
        <ele>848.4</ele>
        <time>2021-09-20T09:38:12Z</time>
      </trkpt>
      <trkpt lat="43.85007" lon="6.99171">
        <ele>848.5</ele>
        <time>2021-09-20T09:38:13Z</time>
      </trkpt>
      <trkpt lat="43.85006" lon="6.99167">
        <ele>848.7</ele>
        <time>2021-09-20T09:38:15Z</time>
      </trkpt>
      <trkpt lat="43.85006" lon="6.99167">
        <ele>848.7</ele>
        <time>2021-09-20T09:38:16Z</time>
      </trkpt>
      <trkpt lat="43.85006" lon="6.99166">
        <ele>848.8</ele>
        <time>2021-09-20T09:38:17Z</time>
      </trkpt>
      <trkpt lat="43.85006" lon="6.99166">
        <ele>848.8</ele>
        <time>2021-09-20T09:38:18Z</time>
      </trkpt>
      <trkpt lat="43.85006" lon="6.99166">
        <ele>848.8</ele>
        <time>2021-09-20T09:38:19Z</time>
      </trkpt>
      <trkpt lat="43.85006" lon="6.99165">
        <ele>848.8</ele>
        <time>2021-09-20T09:38:21Z</time>
      </trkpt>
      <trkpt lat="43.85006" lon="6.99165">
        <ele>848.9</ele>
        <time>2021-09-20T09:38:23Z</time>
      </trkpt>
      <trkpt lat="43.85006" lon="6.99163">
        <ele>848.9</ele>
        <time>2021-09-20T09:38:25Z</time>
      </trkpt>
      <trkpt lat="43.85002" lon="6.99134">
        <ele>850.2</ele>
        <time>2021-09-20T09:38:36Z</time>
      </trkpt>
      <trkpt lat="43.85001" lon="6.9913">
        <ele>850.3</ele>
        <time>2021-09-20T09:38:37Z</time>
      </trkpt>
      <trkpt lat="43.84998" lon="6.99126">
        <ele>850.5</ele>
        <time>2021-09-20T09:38:39Z</time>
      </trkpt>
      <trkpt lat="43.84997" lon="6.99124">
        <ele>850.6</ele>
        <time>2021-09-20T09:38:40Z</time>
      </trkpt>
      <trkpt lat="43.84995" lon="6.9912">
        <ele>850.8</ele>
        <time>2021-09-20T09:38:42Z</time>
      </trkpt>
      <trkpt lat="43.84994" lon="6.99117">
        <ele>850.9</ele>
        <time>2021-09-20T09:38:43Z</time>
      </trkpt>
      <trkpt lat="43.84996" lon="6.99112">
        <ele>851.1</ele>
        <time>2021-09-20T09:38:45Z</time>
      </trkpt>
      <trkpt lat="43.84997" lon="6.99111">
        <ele>851.2</ele>
        <time>2021-09-20T09:38:46Z</time>
      </trkpt>
      <trkpt lat="43.84998" lon="6.99109">
        <ele>851.5</ele>
        <time>2021-09-20T09:38:47Z</time>
      </trkpt>
      <trkpt lat="43.85" lon="6.99104">
        <ele>851.9</ele>
        <time>2021-09-20T09:38:49Z</time>
      </trkpt>
      <trkpt lat="43.85" lon="6.99103">
        <ele>852.1</ele>
        <time>2021-09-20T09:38:50Z</time>
      </trkpt>
      <trkpt lat="43.85" lon="6.99101">
        <ele>852.3</ele>
        <time>2021-09-20T09:38:51Z</time>
      </trkpt>
      <trkpt lat="43.85" lon="6.99097">
        <ele>852.5</ele>
        <time>2021-09-20T09:38:53Z</time>
      </trkpt>
      <trkpt lat="43.84999" lon="6.99097">
        <ele>852.6</ele>
        <time>2021-09-20T09:38:54Z</time>
      </trkpt>
      <trkpt lat="43.84999" lon="6.99098">
        <ele>852.6</ele>
        <time>2021-09-20T09:38:55Z</time>
      </trkpt>
      <trkpt lat="43.84999" lon="6.99098">
        <ele>852.7</ele>
        <time>2021-09-20T09:38:57Z</time>
      </trkpt>
      <trkpt lat="43.84998" lon="6.99098">
        <ele>852.7</ele>
        <time>2021-09-20T09:38:58Z</time>
      </trkpt>
      <trkpt lat="43.84996" lon="6.99095">
        <ele>853</ele>
        <time>2021-09-20T09:39:00Z</time>
      </trkpt>
      <trkpt lat="43.84995" lon="6.99094">
        <ele>853.2</ele>
        <time>2021-09-20T09:39:02Z</time>
      </trkpt>
      <trkpt lat="43.84994" lon="6.99092">
        <ele>853.3</ele>
        <time>2021-09-20T09:39:03Z</time>
      </trkpt>
      <trkpt lat="43.84989" lon="6.99072">
        <ele>854.6</ele>
        <time>2021-09-20T09:39:12Z</time>
      </trkpt>
      <trkpt lat="43.84987" lon="6.99067">
        <ele>854.9</ele>
        <time>2021-09-20T09:39:13Z</time>
      </trkpt>
      <trkpt lat="43.84987" lon="6.99066">
        <ele>855</ele>
        <time>2021-09-20T09:39:14Z</time>
      </trkpt>
      <trkpt lat="43.84986" lon="6.9906">
        <ele>855.4</ele>
        <time>2021-09-20T09:39:16Z</time>
      </trkpt>
      <trkpt lat="43.84986" lon="6.99056">
        <ele>855.6</ele>
        <time>2021-09-20T09:39:17Z</time>
      </trkpt>
      <trkpt lat="43.84987" lon="6.99052">
        <ele>855.9</ele>
        <time>2021-09-20T09:39:18Z</time>
      </trkpt>
      <trkpt lat="43.84987" lon="6.99051">
        <ele>856</ele>
        <time>2021-09-20T09:39:19Z</time>
      </trkpt>
      <trkpt lat="43.84986" lon="6.99047">
        <ele>856.2</ele>
        <time>2021-09-20T09:39:21Z</time>
      </trkpt>
      <trkpt lat="43.84986" lon="6.99046">
        <ele>856.3</ele>
        <time>2021-09-20T09:39:22Z</time>
      </trkpt>
      <trkpt lat="43.84986" lon="6.99044">
        <ele>856.4</ele>
        <time>2021-09-20T09:39:23Z</time>
      </trkpt>
      <trkpt lat="43.84989" lon="6.99033">
        <ele>857.2</ele>
        <time>2021-09-20T09:39:31Z</time>
      </trkpt>
      <trkpt lat="43.84991" lon="6.99028">
        <ele>857.6</ele>
        <time>2021-09-20T09:39:32Z</time>
      </trkpt>
      <trkpt lat="43.84993" lon="6.99025">
        <ele>857.9</ele>
        <time>2021-09-20T09:39:34Z</time>
      </trkpt>
      <trkpt lat="43.84994" lon="6.99021">
        <ele>858.3</ele>
        <time>2021-09-20T09:39:35Z</time>
      </trkpt>
      <trkpt lat="43.84995" lon="6.99018">
        <ele>858.5</ele>
        <time>2021-09-20T09:39:36Z</time>
      </trkpt>
      <trkpt lat="43.84995" lon="6.99016">
        <ele>858.7</ele>
        <time>2021-09-20T09:39:38Z</time>
      </trkpt>
      <trkpt lat="43.84996" lon="6.99014">
        <ele>858.9</ele>
        <time>2021-09-20T09:39:39Z</time>
      </trkpt>
      <trkpt lat="43.84997" lon="6.99012">
        <ele>859</ele>
        <time>2021-09-20T09:39:41Z</time>
      </trkpt>
      <trkpt lat="43.84997" lon="6.99012">
        <ele>859.1</ele>
        <time>2021-09-20T09:39:42Z</time>
      </trkpt>
      <trkpt lat="43.84997" lon="6.99011">
        <ele>859.1</ele>
        <time>2021-09-20T09:39:43Z</time>
      </trkpt>
      <trkpt lat="43.84998" lon="6.9901">
        <ele>859.2</ele>
        <time>2021-09-20T09:39:44Z</time>
      </trkpt>
      <trkpt lat="43.84999" lon="6.99008">
        <ele>859.4</ele>
        <time>2021-09-20T09:39:46Z</time>
      </trkpt>
      <trkpt lat="43.84999" lon="6.99006">
        <ele>859.6</ele>
        <time>2021-09-20T09:39:47Z</time>
      </trkpt>
      <trkpt lat="43.85" lon="6.99004">
        <ele>859.7</ele>
        <time>2021-09-20T09:39:48Z</time>
      </trkpt>
      <trkpt lat="43.85001" lon="6.99001">
        <ele>859.9</ele>
        <time>2021-09-20T09:39:50Z</time>
      </trkpt>
      <trkpt lat="43.85002" lon="6.98996">
        <ele>860.3</ele>
        <time>2021-09-20T09:39:52Z</time>
      </trkpt>
      <trkpt lat="43.85004" lon="6.98991">
        <ele>860.6</ele>
        <time>2021-09-20T09:39:53Z</time>
      </trkpt>
      <trkpt lat="43.85005" lon="6.98987">
        <ele>860.9</ele>
        <time>2021-09-20T09:39:55Z</time>
      </trkpt>
      <trkpt lat="43.85005" lon="6.98986">
        <ele>861</ele>
        <time>2021-09-20T09:39:56Z</time>
      </trkpt>
      <trkpt lat="43.85004" lon="6.9898">
        <ele>861.4</ele>
        <time>2021-09-20T09:39:58Z</time>
      </trkpt>
      <trkpt lat="43.85004" lon="6.98978">
        <ele>861.5</ele>
        <time>2021-09-20T09:40:00Z</time>
      </trkpt>
      <trkpt lat="43.85004" lon="6.98975">
        <ele>861.7</ele>
        <time>2021-09-20T09:40:01Z</time>
      </trkpt>
      <trkpt lat="43.85003" lon="6.98973">
        <ele>861.8</ele>
        <time>2021-09-20T09:40:02Z</time>
      </trkpt>
      <trkpt lat="43.85003" lon="6.98971">
        <ele>861.9</ele>
        <time>2021-09-20T09:40:03Z</time>
      </trkpt>
      <trkpt lat="43.85001" lon="6.98969">
        <ele>862.1</ele>
        <time>2021-09-20T09:40:05Z</time>
      </trkpt>
      <trkpt lat="43.85" lon="6.98967">
        <ele>862.3</ele>
        <time>2021-09-20T09:40:06Z</time>
      </trkpt>
      <trkpt lat="43.84999" lon="6.98966">
        <ele>862.4</ele>
        <time>2021-09-20T09:40:08Z</time>
      </trkpt>
      <trkpt lat="43.84998" lon="6.98965">
        <ele>862.5</ele>
        <time>2021-09-20T09:40:09Z</time>
      </trkpt>
      <trkpt lat="43.84996" lon="6.98964">
        <ele>862.7</ele>
        <time>2021-09-20T09:40:10Z</time>
      </trkpt>
      <trkpt lat="43.84994" lon="6.9896">
        <ele>863</ele>
        <time>2021-09-20T09:40:12Z</time>
      </trkpt>
      <trkpt lat="43.84993" lon="6.98959">
        <ele>863</ele>
        <time>2021-09-20T09:40:13Z</time>
      </trkpt>
      <trkpt lat="43.84994" lon="6.98954">
        <ele>863.3</ele>
        <time>2021-09-20T09:40:15Z</time>
      </trkpt>
      <trkpt lat="43.84994" lon="6.98952">
        <ele>863.5</ele>
        <time>2021-09-20T09:40:16Z</time>
      </trkpt>
      <trkpt lat="43.84995" lon="6.98948">
        <ele>863.8</ele>
        <time>2021-09-20T09:40:18Z</time>
      </trkpt>
      <trkpt lat="43.84997" lon="6.98944">
        <ele>864.2</ele>
        <time>2021-09-20T09:40:19Z</time>
      </trkpt>
      <trkpt lat="43.84998" lon="6.98942">
        <ele>864.3</ele>
        <time>2021-09-20T09:40:20Z</time>
      </trkpt>
      <trkpt lat="43.85002" lon="6.98937">
        <ele>864.9</ele>
        <time>2021-09-20T09:40:22Z</time>
      </trkpt>
      <trkpt lat="43.85003" lon="6.98933">
        <ele>865.2</ele>
        <time>2021-09-20T09:40:23Z</time>
      </trkpt>
      <trkpt lat="43.85005" lon="6.98931">
        <ele>865.4</ele>
        <time>2021-09-20T09:40:24Z</time>
      </trkpt>
      <trkpt lat="43.85005" lon="6.98929">
        <ele>865.5</ele>
        <time>2021-09-20T09:40:25Z</time>
      </trkpt>
      <trkpt lat="43.85006" lon="6.98928">
        <ele>865.6</ele>
        <time>2021-09-20T09:40:26Z</time>
      </trkpt>
      <trkpt lat="43.85007" lon="6.98926">
        <ele>865.8</ele>
        <time>2021-09-20T09:40:28Z</time>
      </trkpt>
      <trkpt lat="43.85008" lon="6.98924">
        <ele>865.9</ele>
        <time>2021-09-20T09:40:29Z</time>
      </trkpt>
      <trkpt lat="43.85008" lon="6.98924">
        <ele>866</ele>
        <time>2021-09-20T09:40:30Z</time>
      </trkpt>
      <trkpt lat="43.85008" lon="6.98923">
        <ele>866</ele>
        <time>2021-09-20T09:40:31Z</time>
      </trkpt>
      <trkpt lat="43.85009" lon="6.98924">
        <ele>866.1</ele>
        <time>2021-09-20T09:40:33Z</time>
      </trkpt>
      <trkpt lat="43.85009" lon="6.98924">
        <ele>866.1</ele>
        <time>2021-09-20T09:40:34Z</time>
      </trkpt>
      <trkpt lat="43.85009" lon="6.98924">
        <ele>866.1</ele>
        <time>2021-09-20T09:40:35Z</time>
      </trkpt>
      <trkpt lat="43.8501" lon="6.98925">
        <ele>866.2</ele>
        <time>2021-09-20T09:40:36Z</time>
      </trkpt>
      <trkpt lat="43.85012" lon="6.98923">
        <ele>866.4</ele>
        <time>2021-09-20T09:40:38Z</time>
      </trkpt>
      <trkpt lat="43.85015" lon="6.98919">
        <ele>866.8</ele>
        <time>2021-09-20T09:40:40Z</time>
      </trkpt>
      <trkpt lat="43.85018" lon="6.98915">
        <ele>867.2</ele>
        <time>2021-09-20T09:40:41Z</time>
      </trkpt>
      <trkpt lat="43.85019" lon="6.98914">
        <ele>867.3</ele>
        <time>2021-09-20T09:40:42Z</time>
      </trkpt>
      <trkpt lat="43.85021" lon="6.98911">
        <ele>867.6</ele>
        <time>2021-09-20T09:40:44Z</time>
      </trkpt>
      <trkpt lat="43.85023" lon="6.98908">
        <ele>867.9</ele>
        <time>2021-09-20T09:40:45Z</time>
      </trkpt>
      <trkpt lat="43.85025" lon="6.98906">
        <ele>868.1</ele>
        <time>2021-09-20T09:40:46Z</time>
      </trkpt>
      <trkpt lat="43.85026" lon="6.98903">
        <ele>868.3</ele>
        <time>2021-09-20T09:40:48Z</time>
      </trkpt>
      <trkpt lat="43.85028" lon="6.98899">
        <ele>868.7</ele>
        <time>2021-09-20T09:40:49Z</time>
      </trkpt>
      <trkpt lat="43.85029" lon="6.98898">
        <ele>868.8</ele>
        <time>2021-09-20T09:40:50Z</time>
      </trkpt>
      <trkpt lat="43.8503" lon="6.98895">
        <ele>869</ele>
        <time>2021-09-20T09:40:51Z</time>
      </trkpt>
      <trkpt lat="43.85032" lon="6.98889">
        <ele>869.5</ele>
        <time>2021-09-20T09:40:53Z</time>
      </trkpt>
      <trkpt lat="43.85034" lon="6.98883">
        <ele>869.9</ele>
        <time>2021-09-20T09:40:54Z</time>
      </trkpt>
      <trkpt lat="43.85036" lon="6.98878">
        <ele>870.3</ele>
        <time>2021-09-20T09:40:56Z</time>
      </trkpt>
      <trkpt lat="43.85038" lon="6.98872">
        <ele>870.7</ele>
        <time>2021-09-20T09:40:57Z</time>
      </trkpt>
      <trkpt lat="43.85039" lon="6.98867">
        <ele>871.1</ele>
        <time>2021-09-20T09:40:59Z</time>
      </trkpt>
      <trkpt lat="43.8504" lon="6.98864">
        <ele>871.3</ele>
        <time>2021-09-20T09:41:00Z</time>
      </trkpt>
      <trkpt lat="43.85042" lon="6.9886">
        <ele>871.6</ele>
        <time>2021-09-20T09:41:02Z</time>
      </trkpt>
      <trkpt lat="43.85043" lon="6.98856">
        <ele>871.9</ele>
        <time>2021-09-20T09:41:03Z</time>
      </trkpt>
      <trkpt lat="43.85043" lon="6.98855">
        <ele>872</ele>
        <time>2021-09-20T09:41:04Z</time>
      </trkpt>
      <trkpt lat="43.85043" lon="6.98853">
        <ele>872.1</ele>
        <time>2021-09-20T09:41:05Z</time>
      </trkpt>
      <trkpt lat="43.85044" lon="6.98849">
        <ele>872.4</ele>
        <time>2021-09-20T09:41:07Z</time>
      </trkpt>
      <trkpt lat="43.85043" lon="6.98846">
        <ele>872.6</ele>
        <time>2021-09-20T09:41:08Z</time>
      </trkpt>
      <trkpt lat="43.85043" lon="6.98841">
        <ele>872.9</ele>
        <time>2021-09-20T09:41:10Z</time>
      </trkpt>
      <trkpt lat="43.85043" lon="6.98838">
        <ele>873.2</ele>
        <time>2021-09-20T09:41:11Z</time>
      </trkpt>
      <trkpt lat="43.85041" lon="6.98832">
        <ele>873.5</ele>
        <time>2021-09-20T09:41:13Z</time>
      </trkpt>
      <trkpt lat="43.8504" lon="6.98827">
        <ele>873.8</ele>
        <time>2021-09-20T09:41:14Z</time>
      </trkpt>
      <trkpt lat="43.8504" lon="6.98826">
        <ele>873.9</ele>
        <time>2021-09-20T09:41:15Z</time>
      </trkpt>
      <trkpt lat="43.8504" lon="6.98824">
        <ele>874.1</ele>
        <time>2021-09-20T09:41:16Z</time>
      </trkpt>
      <trkpt lat="43.8504" lon="6.98822">
        <ele>874.2</ele>
        <time>2021-09-20T09:41:17Z</time>
      </trkpt>
      <trkpt lat="43.85039" lon="6.9882">
        <ele>874.3</ele>
        <time>2021-09-20T09:41:18Z</time>
      </trkpt>
      <trkpt lat="43.8504" lon="6.98814">
        <ele>874.7</ele>
        <time>2021-09-20T09:41:20Z</time>
      </trkpt>
      <trkpt lat="43.8504" lon="6.98812">
        <ele>874.9</ele>
        <time>2021-09-20T09:41:21Z</time>
      </trkpt>
      <trkpt lat="43.85039" lon="6.98813">
        <ele>875</ele>
        <time>2021-09-20T09:41:23Z</time>
      </trkpt>
      <trkpt lat="43.85039" lon="6.98812">
        <ele>875.1</ele>
        <time>2021-09-20T09:41:24Z</time>
      </trkpt>
      <trkpt lat="43.85039" lon="6.98811">
        <ele>875.2</ele>
        <time>2021-09-20T09:41:25Z</time>
      </trkpt>
      <trkpt lat="43.85039" lon="6.98809">
        <ele>875.3</ele>
        <time>2021-09-20T09:41:27Z</time>
      </trkpt>
      <trkpt lat="43.8504" lon="6.98808">
        <ele>875.3</ele>
        <time>2021-09-20T09:41:28Z</time>
      </trkpt>
      <trkpt lat="43.8504" lon="6.98806">
        <ele>875.5</ele>
        <time>2021-09-20T09:41:29Z</time>
      </trkpt>
      <trkpt lat="43.8504" lon="6.98805">
        <ele>875.6</ele>
        <time>2021-09-20T09:41:30Z</time>
      </trkpt>
      <trkpt lat="43.85038" lon="6.98795">
        <ele>876.3</ele>
        <time>2021-09-20T09:41:32Z</time>
      </trkpt>
      <trkpt lat="43.85037" lon="6.98787">
        <ele>877</ele>
        <time>2021-09-20T09:41:50Z</time>
      </trkpt>
      <trkpt lat="43.85035" lon="6.98779">
        <ele>877.7</ele>
        <time>2021-09-20T09:41:52Z</time>
      </trkpt>
      <trkpt lat="43.85033" lon="6.98771">
        <ele>878.3</ele>
        <time>2021-09-20T09:41:53Z</time>
      </trkpt>
      <trkpt lat="43.85031" lon="6.98763">
        <ele>879.1</ele>
        <time>2021-09-20T09:41:54Z</time>
      </trkpt>
      <trkpt lat="43.85031" lon="6.98759">
        <ele>879.4</ele>
        <time>2021-09-20T09:41:55Z</time>
      </trkpt>
      <trkpt lat="43.85031" lon="6.98758">
        <ele>879.5</ele>
        <time>2021-09-20T09:41:56Z</time>
      </trkpt>
      <trkpt lat="43.85031" lon="6.98753">
        <ele>879.9</ele>
        <time>2021-09-20T09:41:58Z</time>
      </trkpt>
      <trkpt lat="43.85031" lon="6.98752">
        <ele>880</ele>
        <time>2021-09-20T09:41:59Z</time>
      </trkpt>
      <trkpt lat="43.85031" lon="6.9875">
        <ele>880.2</ele>
        <time>2021-09-20T09:42:00Z</time>
      </trkpt>
      <trkpt lat="43.85032" lon="6.98745">
        <ele>880.5</ele>
        <time>2021-09-20T09:42:02Z</time>
      </trkpt>
      <trkpt lat="43.85032" lon="6.98743">
        <ele>880.7</ele>
        <time>2021-09-20T09:42:03Z</time>
      </trkpt>
      <trkpt lat="43.85031" lon="6.98741">
        <ele>880.8</ele>
        <time>2021-09-20T09:42:04Z</time>
      </trkpt>
      <trkpt lat="43.8503" lon="6.98738">
        <ele>881.1</ele>
        <time>2021-09-20T09:42:05Z</time>
      </trkpt>
      <trkpt lat="43.85018" lon="6.98719">
        <ele>882.2</ele>
        <time>2021-09-20T09:42:14Z</time>
      </trkpt>
      <trkpt lat="43.85015" lon="6.98717">
        <ele>882.2</ele>
        <time>2021-09-20T09:42:15Z</time>
      </trkpt>
      <trkpt lat="43.85012" lon="6.98716">
        <ele>882</ele>
        <time>2021-09-20T09:42:16Z</time>
      </trkpt>
      <trkpt lat="43.85011" lon="6.98716">
        <ele>881.9</ele>
        <time>2021-09-20T09:42:17Z</time>
      </trkpt>
      <trkpt lat="43.85009" lon="6.98715">
        <ele>881.7</ele>
        <time>2021-09-20T09:42:18Z</time>
      </trkpt>
      <trkpt lat="43.85007" lon="6.98714">
        <ele>881.4</ele>
        <time>2021-09-20T09:42:20Z</time>
      </trkpt>
      <trkpt lat="43.85007" lon="6.98713">
        <ele>881.3</ele>
        <time>2021-09-20T09:42:21Z</time>
      </trkpt>
      <trkpt lat="43.85006" lon="6.98712">
        <ele>881.3</ele>
        <time>2021-09-20T09:42:23Z</time>
      </trkpt>
      <trkpt lat="43.85006" lon="6.98712">
        <ele>881.2</ele>
        <time>2021-09-20T09:42:24Z</time>
      </trkpt>
      <trkpt lat="43.85005" lon="6.98711">
        <ele>881.1</ele>
        <time>2021-09-20T09:42:26Z</time>
      </trkpt>
      <trkpt lat="43.85004" lon="6.98711">
        <ele>881</ele>
        <time>2021-09-20T09:42:27Z</time>
      </trkpt>
      <trkpt lat="43.85004" lon="6.9871">
        <ele>880.9</ele>
        <time>2021-09-20T09:42:28Z</time>
      </trkpt>
      <trkpt lat="43.84993" lon="6.98711">
        <ele>879.8</ele>
        <time>2021-09-20T09:43:11Z</time>
      </trkpt>
      <trkpt lat="43.84985" lon="6.98725">
        <ele>879</ele>
        <time>2021-09-20T09:43:13Z</time>
      </trkpt>
      <trkpt lat="43.84979" lon="6.98733">
        <ele>878.7</ele>
        <time>2021-09-20T09:43:14Z</time>
      </trkpt>
      <trkpt lat="43.84969" lon="6.98746">
        <ele>878.3</ele>
        <time>2021-09-20T09:43:16Z</time>
      </trkpt>
      <trkpt lat="43.8496" lon="6.98757">
        <ele>878</ele>
        <time>2021-09-20T09:43:18Z</time>
      </trkpt>
      <trkpt lat="43.84949" lon="6.98764">
        <ele>877.8</ele>
        <time>2021-09-20T09:43:20Z</time>
      </trkpt>
      <trkpt lat="43.84941" lon="6.98772">
        <ele>877.8</ele>
        <time>2021-09-20T09:43:22Z</time>
      </trkpt>
      <trkpt lat="43.84936" lon="6.98776">
        <ele>877.8</ele>
        <time>2021-09-20T09:43:23Z</time>
      </trkpt>
      <trkpt lat="43.84932" lon="6.9878">
        <ele>877.6</ele>
        <time>2021-09-20T09:43:24Z</time>
      </trkpt>
      <trkpt lat="43.84928" lon="6.98789">
        <ele>877.4</ele>
        <time>2021-09-20T09:43:26Z</time>
      </trkpt>
      <trkpt lat="43.84921" lon="6.98797">
        <ele>877</ele>
        <time>2021-09-20T09:43:28Z</time>
      </trkpt>
      <trkpt lat="43.84918" lon="6.98803">
        <ele>876.8</ele>
        <time>2021-09-20T09:43:29Z</time>
      </trkpt>
      <trkpt lat="43.84915" lon="6.98809">
        <ele>876.8</ele>
        <time>2021-09-20T09:43:30Z</time>
      </trkpt>
      <trkpt lat="43.84907" lon="6.98822">
        <ele>876.8</ele>
        <time>2021-09-20T09:43:32Z</time>
      </trkpt>
      <trkpt lat="43.84901" lon="6.98832">
        <ele>876.9</ele>
        <time>2021-09-20T09:43:34Z</time>
      </trkpt>
      <trkpt lat="43.84901" lon="6.98834">
        <ele>877</ele>
        <time>2021-09-20T09:43:35Z</time>
      </trkpt>
      <trkpt lat="43.84898" lon="6.98831">
        <ele>877.1</ele>
        <time>2021-09-20T09:43:37Z</time>
      </trkpt>
      <trkpt lat="43.84894" lon="6.98834">
        <ele>877.3</ele>
        <time>2021-09-20T09:43:38Z</time>
      </trkpt>
      <trkpt lat="43.84889" lon="6.98838">
        <ele>877.5</ele>
        <time>2021-09-20T09:43:39Z</time>
      </trkpt>
      <trkpt lat="43.84884" lon="6.98842">
        <ele>877.6</ele>
        <time>2021-09-20T09:43:41Z</time>
      </trkpt>
      <trkpt lat="43.84878" lon="6.98845">
        <ele>877.7</ele>
        <time>2021-09-20T09:43:42Z</time>
      </trkpt>
      <trkpt lat="43.84873" lon="6.98849">
        <ele>877.8</ele>
        <time>2021-09-20T09:43:43Z</time>
      </trkpt>
      <trkpt lat="43.84869" lon="6.98855">
        <ele>877.9</ele>
        <time>2021-09-20T09:43:45Z</time>
      </trkpt>
      <trkpt lat="43.84864" lon="6.98863">
        <ele>878.1</ele>
        <time>2021-09-20T09:43:46Z</time>
      </trkpt>
      <trkpt lat="43.8486" lon="6.9887">
        <ele>878.3</ele>
        <time>2021-09-20T09:43:48Z</time>
      </trkpt>
      <trkpt lat="43.84856" lon="6.98876">
        <ele>878.5</ele>
        <time>2021-09-20T09:43:49Z</time>
      </trkpt>
      <trkpt lat="43.84853" lon="6.98879">
        <ele>878.6</ele>
        <time>2021-09-20T09:43:50Z</time>
      </trkpt>
      <trkpt lat="43.84849" lon="6.9888">
        <ele>878.7</ele>
        <time>2021-09-20T09:43:52Z</time>
      </trkpt>
      <trkpt lat="43.84845" lon="6.98881">
        <ele>878.9</ele>
        <time>2021-09-20T09:43:53Z</time>
      </trkpt>
      <trkpt lat="43.84837" lon="6.98879">
        <ele>879.2</ele>
        <time>2021-09-20T09:43:55Z</time>
      </trkpt>
      <trkpt lat="43.84833" lon="6.98879">
        <ele>879.4</ele>
        <time>2021-09-20T09:43:57Z</time>
      </trkpt>
      <trkpt lat="43.84829" lon="6.9888">
        <ele>879.6</ele>
        <time>2021-09-20T09:43:58Z</time>
      </trkpt>
      <trkpt lat="43.84826" lon="6.98881">
        <ele>879.7</ele>
        <time>2021-09-20T09:43:59Z</time>
      </trkpt>
      <trkpt lat="43.84821" lon="6.98882">
        <ele>879.9</ele>
        <time>2021-09-20T09:44:01Z</time>
      </trkpt>
      <trkpt lat="43.84817" lon="6.98886">
        <ele>880</ele>
        <time>2021-09-20T09:44:02Z</time>
      </trkpt>
      <trkpt lat="43.84815" lon="6.98891">
        <ele>880.1</ele>
        <time>2021-09-20T09:44:03Z</time>
      </trkpt>
      <trkpt lat="43.84813" lon="6.98898">
        <ele>880.2</ele>
        <time>2021-09-20T09:44:05Z</time>
      </trkpt>
      <trkpt lat="43.84811" lon="6.98904">
        <ele>880.2</ele>
        <time>2021-09-20T09:44:06Z</time>
      </trkpt>
      <trkpt lat="43.84809" lon="6.98911">
        <ele>880.2</ele>
        <time>2021-09-20T09:44:07Z</time>
      </trkpt>
      <trkpt lat="43.84808" lon="6.98925">
        <ele>880</ele>
        <time>2021-09-20T09:44:08Z</time>
      </trkpt>
      <trkpt lat="43.84808" lon="6.98934">
        <ele>879.9</ele>
        <time>2021-09-20T09:44:10Z</time>
      </trkpt>
      <trkpt lat="43.84808" lon="6.98947">
        <ele>879.9</ele>
        <time>2021-09-20T09:44:11Z</time>
      </trkpt>
      <trkpt lat="43.84807" lon="6.98954">
        <ele>879.9</ele>
        <time>2021-09-20T09:44:12Z</time>
      </trkpt>
      <trkpt lat="43.84807" lon="6.98961">
        <ele>880</ele>
        <time>2021-09-20T09:44:14Z</time>
      </trkpt>
      <trkpt lat="43.84806" lon="6.98971">
        <ele>880.2</ele>
        <time>2021-09-20T09:44:15Z</time>
      </trkpt>
      <trkpt lat="43.84804" lon="6.98979">
        <ele>880.4</ele>
        <time>2021-09-20T09:44:16Z</time>
      </trkpt>
      <trkpt lat="43.84803" lon="6.98986">
        <ele>880.5</ele>
        <time>2021-09-20T09:44:17Z</time>
      </trkpt>
      <trkpt lat="43.84801" lon="6.98992">
        <ele>880.6</ele>
        <time>2021-09-20T09:44:18Z</time>
      </trkpt>
      <trkpt lat="43.848" lon="6.98997">
        <ele>880.7</ele>
        <time>2021-09-20T09:44:20Z</time>
      </trkpt>
      <trkpt lat="43.84799" lon="6.99002">
        <ele>880.8</ele>
        <time>2021-09-20T09:44:21Z</time>
      </trkpt>
      <trkpt lat="43.84796" lon="6.99005">
        <ele>881</ele>
        <time>2021-09-20T09:44:22Z</time>
      </trkpt>
      <trkpt lat="43.84794" lon="6.99006">
        <ele>881.1</ele>
        <time>2021-09-20T09:44:24Z</time>
      </trkpt>
      <trkpt lat="43.84792" lon="6.99007">
        <ele>881.2</ele>
        <time>2021-09-20T09:44:26Z</time>
      </trkpt>
      <trkpt lat="43.8479" lon="6.99008">
        <ele>881.3</ele>
        <time>2021-09-20T09:44:27Z</time>
      </trkpt>
      <trkpt lat="43.84788" lon="6.99009">
        <ele>881.4</ele>
        <time>2021-09-20T09:44:28Z</time>
      </trkpt>
      <trkpt lat="43.84786" lon="6.9901">
        <ele>881.6</ele>
        <time>2021-09-20T09:44:30Z</time>
      </trkpt>
      <trkpt lat="43.84784" lon="6.99011">
        <ele>881.7</ele>
        <time>2021-09-20T09:44:31Z</time>
      </trkpt>
      <trkpt lat="43.84782" lon="6.99012">
        <ele>881.9</ele>
        <time>2021-09-20T09:45:01Z</time>
      </trkpt>
      <trkpt lat="43.8478" lon="6.99013">
        <ele>882</ele>
        <time>2021-09-20T09:45:02Z</time>
      </trkpt>
      <trkpt lat="43.84774" lon="6.99017">
        <ele>882.4</ele>
        <time>2021-09-20T09:45:03Z</time>
      </trkpt>
      <trkpt lat="43.84768" lon="6.99023">
        <ele>883</ele>
        <time>2021-09-20T09:45:05Z</time>
      </trkpt>
      <trkpt lat="43.84764" lon="6.99027">
        <ele>883.3</ele>
        <time>2021-09-20T09:45:06Z</time>
      </trkpt>
      <trkpt lat="43.8476" lon="6.99032">
        <ele>883.8</ele>
        <time>2021-09-20T09:45:08Z</time>
      </trkpt>
      <trkpt lat="43.84755" lon="6.99036">
        <ele>884.1</ele>
        <time>2021-09-20T09:45:09Z</time>
      </trkpt>
      <trkpt lat="43.84752" lon="6.99038">
        <ele>884.4</ele>
        <time>2021-09-20T09:45:11Z</time>
      </trkpt>
      <trkpt lat="43.84749" lon="6.9904">
        <ele>884.6</ele>
        <time>2021-09-20T09:45:12Z</time>
      </trkpt>
      <trkpt lat="43.84748" lon="6.99041">
        <ele>884.7</ele>
        <time>2021-09-20T09:45:13Z</time>
      </trkpt>
      <trkpt lat="43.84744" lon="6.99042">
        <ele>884.9</ele>
        <time>2021-09-20T09:45:15Z</time>
      </trkpt>
      <trkpt lat="43.84743" lon="6.99043">
        <ele>885</ele>
        <time>2021-09-20T09:45:16Z</time>
      </trkpt>
      <trkpt lat="43.8474" lon="6.99045">
        <ele>885.2</ele>
        <time>2021-09-20T09:45:18Z</time>
      </trkpt>
      <trkpt lat="43.84739" lon="6.99047">
        <ele>885.3</ele>
        <time>2021-09-20T09:45:19Z</time>
      </trkpt>
      <trkpt lat="43.84737" lon="6.99051">
        <ele>885.4</ele>
        <time>2021-09-20T09:45:21Z</time>
      </trkpt>
      <trkpt lat="43.84736" lon="6.99053">
        <ele>885.5</ele>
        <time>2021-09-20T09:45:22Z</time>
      </trkpt>
      <trkpt lat="43.84735" lon="6.99054">
        <ele>885.5</ele>
        <time>2021-09-20T09:45:23Z</time>
      </trkpt>
      <trkpt lat="43.84734" lon="6.99056">
        <ele>885.5</ele>
        <time>2021-09-20T09:45:24Z</time>
      </trkpt>
      <trkpt lat="43.84733" lon="6.99059">
        <ele>885.5</ele>
        <time>2021-09-20T09:45:26Z</time>
      </trkpt>
      <trkpt lat="43.84733" lon="6.99063">
        <ele>885.5</ele>
        <time>2021-09-20T09:45:27Z</time>
      </trkpt>
      <trkpt lat="43.84732" lon="6.99068">
        <ele>885.5</ele>
        <time>2021-09-20T09:45:28Z</time>
      </trkpt>
      <trkpt lat="43.84731" lon="6.9907">
        <ele>885.5</ele>
        <time>2021-09-20T09:45:29Z</time>
      </trkpt>
      <trkpt lat="43.8473" lon="6.99075">
        <ele>885.4</ele>
        <time>2021-09-20T09:45:30Z</time>
      </trkpt>
      <trkpt lat="43.84725" lon="6.99082">
        <ele>885.2</ele>
        <time>2021-09-20T09:45:31Z</time>
      </trkpt>
      <trkpt lat="43.8472" lon="6.99096">
        <ele>884.8</ele>
        <time>2021-09-20T09:45:33Z</time>
      </trkpt>
      <trkpt lat="43.84717" lon="6.99104">
        <ele>884.5</ele>
        <time>2021-09-20T09:45:34Z</time>
      </trkpt>
      <trkpt lat="43.84709" lon="6.99118">
        <ele>884.3</ele>
        <time>2021-09-20T09:45:36Z</time>
      </trkpt>
      <trkpt lat="43.84702" lon="6.99129">
        <ele>884.4</ele>
        <time>2021-09-20T09:45:38Z</time>
      </trkpt>
      <trkpt lat="43.84698" lon="6.99135">
        <ele>884.5</ele>
        <time>2021-09-20T09:45:40Z</time>
      </trkpt>
      <trkpt lat="43.84696" lon="6.9914">
        <ele>884.5</ele>
        <time>2021-09-20T09:45:41Z</time>
      </trkpt>
      <trkpt lat="43.84695" lon="6.99145">
        <ele>884.5</ele>
        <time>2021-09-20T09:45:42Z</time>
      </trkpt>
      <trkpt lat="43.84691" lon="6.99156">
        <ele>884.5</ele>
        <time>2021-09-20T09:45:44Z</time>
      </trkpt>
      <trkpt lat="43.84684" lon="6.99166">
        <ele>884.5</ele>
        <time>2021-09-20T09:45:46Z</time>
      </trkpt>
      <trkpt lat="43.84678" lon="6.99173">
        <ele>884.5</ele>
        <time>2021-09-20T09:45:48Z</time>
      </trkpt>
      <trkpt lat="43.84671" lon="6.99185">
        <ele>884.5</ele>
        <time>2021-09-20T09:45:49Z</time>
      </trkpt>
      <trkpt lat="43.84665" lon="6.99199">
        <ele>884.4</ele>
        <time>2021-09-20T09:45:51Z</time>
      </trkpt>
      <trkpt lat="43.84661" lon="6.99204">
        <ele>884.3</ele>
        <time>2021-09-20T09:45:52Z</time>
      </trkpt>
      <trkpt lat="43.84657" lon="6.99209">
        <ele>884.2</ele>
        <time>2021-09-20T09:45:53Z</time>
      </trkpt>
      <trkpt lat="43.84652" lon="6.99214">
        <ele>884.1</ele>
        <time>2021-09-20T09:45:54Z</time>
      </trkpt>
      <trkpt lat="43.84642" lon="6.99222">
        <ele>884</ele>
        <time>2021-09-20T09:45:56Z</time>
      </trkpt>
      <trkpt lat="43.84638" lon="6.99225">
        <ele>884</ele>
        <time>2021-09-20T09:45:57Z</time>
      </trkpt>
      <trkpt lat="43.84633" lon="6.99231">
        <ele>883.9</ele>
        <time>2021-09-20T09:45:58Z</time>
      </trkpt>
      <trkpt lat="43.84628" lon="6.99246">
        <ele>883.5</ele>
        <time>2021-09-20T09:46:00Z</time>
      </trkpt>
      <trkpt lat="43.84623" lon="6.99261">
        <ele>883.2</ele>
        <time>2021-09-20T09:46:02Z</time>
      </trkpt>
      <trkpt lat="43.84618" lon="6.99276">
        <ele>882.8</ele>
        <time>2021-09-20T09:46:04Z</time>
      </trkpt>
      <trkpt lat="43.84612" lon="6.99292">
        <ele>882.4</ele>
        <time>2021-09-20T09:46:06Z</time>
      </trkpt>
      <trkpt lat="43.84606" lon="6.9931">
        <ele>881.9</ele>
        <time>2021-09-20T09:46:08Z</time>
      </trkpt>
      <trkpt lat="43.84604" lon="6.9932">
        <ele>881.7</ele>
        <time>2021-09-20T09:46:09Z</time>
      </trkpt>
      <trkpt lat="43.846" lon="6.99341">
        <ele>881.2</ele>
        <time>2021-09-20T09:46:11Z</time>
      </trkpt>
      <trkpt lat="43.84597" lon="6.99349">
        <ele>880.3</ele>
        <time>2021-09-20T09:46:12Z</time>
      </trkpt>
      <trkpt lat="43.8459" lon="6.9936">
        <ele>879.1</ele>
        <time>2021-09-20T09:46:14Z</time>
      </trkpt>
      <trkpt lat="43.84589" lon="6.99361">
        <ele>878.9</ele>
        <time>2021-09-20T09:46:15Z</time>
      </trkpt>
      <trkpt lat="43.84585" lon="6.99366">
        <ele>878.2</ele>
        <time>2021-09-20T09:46:17Z</time>
      </trkpt>
      <trkpt lat="43.84583" lon="6.99369">
        <ele>877.9</ele>
        <time>2021-09-20T09:46:18Z</time>
      </trkpt>
      <trkpt lat="43.84579" lon="6.99375">
        <ele>877.2</ele>
        <time>2021-09-20T09:46:20Z</time>
      </trkpt>
      <trkpt lat="43.84577" lon="6.99378">
        <ele>876.8</ele>
        <time>2021-09-20T09:46:21Z</time>
      </trkpt>
      <trkpt lat="43.84575" lon="6.99381">
        <ele>876.4</ele>
        <time>2021-09-20T09:46:23Z</time>
      </trkpt>
      <trkpt lat="43.84575" lon="6.99382">
        <ele>876.3</ele>
        <time>2021-09-20T09:46:24Z</time>
      </trkpt>
      <trkpt lat="43.84574" lon="6.99386">
        <ele>875.9</ele>
        <time>2021-09-20T09:46:26Z</time>
      </trkpt>
      <trkpt lat="43.84571" lon="6.99388">
        <ele>875.6</ele>
        <time>2021-09-20T09:46:28Z</time>
      </trkpt>
      <trkpt lat="43.84569" lon="6.9939">
        <ele>875.3</ele>
        <time>2021-09-20T09:46:29Z</time>
      </trkpt>
      <trkpt lat="43.84567" lon="6.99392">
        <ele>874.9</ele>
        <time>2021-09-20T09:46:31Z</time>
      </trkpt>
      <trkpt lat="43.84565" lon="6.99394">
        <ele>874.6</ele>
        <time>2021-09-20T09:46:33Z</time>
      </trkpt>
      <trkpt lat="43.84563" lon="6.99396">
        <ele>874.2</ele>
        <time>2021-09-20T09:46:34Z</time>
      </trkpt>
      <trkpt lat="43.84561" lon="6.99399">
        <ele>873.9</ele>
        <time>2021-09-20T09:46:52Z</time>
      </trkpt>
      <trkpt lat="43.84558" lon="6.99401">
        <ele>873.6</ele>
        <time>2021-09-20T09:46:53Z</time>
      </trkpt>
      <trkpt lat="43.84552" lon="6.994">
        <ele>872.8</ele>
        <time>2021-09-20T09:46:54Z</time>
      </trkpt>
      <trkpt lat="43.8454" lon="6.99398">
        <ele>871.3</ele>
        <time>2021-09-20T09:46:56Z</time>
      </trkpt>
      <trkpt lat="43.84529" lon="6.99397">
        <ele>870.1</ele>
        <time>2021-09-20T09:46:58Z</time>
      </trkpt>
      <trkpt lat="43.84524" lon="6.99395">
        <ele>869.5</ele>
        <time>2021-09-20T09:46:59Z</time>
      </trkpt>
      <trkpt lat="43.84519" lon="6.99391">
        <ele>868.9</ele>
        <time>2021-09-20T09:47:00Z</time>
      </trkpt>
      <trkpt lat="43.84515" lon="6.99385">
        <ele>868.2</ele>
        <time>2021-09-20T09:47:01Z</time>
      </trkpt>
      <trkpt lat="43.84511" lon="6.99378">
        <ele>867.6</ele>
        <time>2021-09-20T09:47:02Z</time>
      </trkpt>
      <trkpt lat="43.84509" lon="6.99371">
        <ele>866.9</ele>
        <time>2021-09-20T09:47:03Z</time>
      </trkpt>
      <trkpt lat="43.84508" lon="6.99365">
        <ele>866.4</ele>
        <time>2021-09-20T09:47:04Z</time>
      </trkpt>
      <trkpt lat="43.84505" lon="6.9935">
        <ele>865.2</ele>
        <time>2021-09-20T09:47:06Z</time>
      </trkpt>
      <trkpt lat="43.84503" lon="6.99343">
        <ele>864.6</ele>
        <time>2021-09-20T09:47:07Z</time>
      </trkpt>
      <trkpt lat="43.845" lon="6.99337">
        <ele>864</ele>
        <time>2021-09-20T09:47:08Z</time>
      </trkpt>
      <trkpt lat="43.84498" lon="6.99334">
        <ele>863.6</ele>
        <time>2021-09-20T09:47:09Z</time>
      </trkpt>
      <trkpt lat="43.84493" lon="6.99334">
        <ele>863</ele>
        <time>2021-09-20T09:47:11Z</time>
      </trkpt>
      <trkpt lat="43.84487" lon="6.99333">
        <ele>862.2</ele>
        <time>2021-09-20T09:47:13Z</time>
      </trkpt>
      <trkpt lat="43.84476" lon="6.99337">
        <ele>860.6</ele>
        <time>2021-09-20T09:47:14Z</time>
      </trkpt>
      <trkpt lat="43.84465" lon="6.99338">
        <ele>858.8</ele>
        <time>2021-09-20T09:47:16Z</time>
      </trkpt>
      <trkpt lat="43.84459" lon="6.9933">
        <ele>857.7</ele>
        <time>2021-09-20T09:47:18Z</time>
      </trkpt>
      <trkpt lat="43.84455" lon="6.99316">
        <ele>856.3</ele>
        <time>2021-09-20T09:47:20Z</time>
      </trkpt>
      <trkpt lat="43.84451" lon="6.99302">
        <ele>854.9</ele>
        <time>2021-09-20T09:47:22Z</time>
      </trkpt>
      <trkpt lat="43.8445" lon="6.99295">
        <ele>854.2</ele>
        <time>2021-09-20T09:47:23Z</time>
      </trkpt>
      <trkpt lat="43.84449" lon="6.99278">
        <ele>852.6</ele>
        <time>2021-09-20T09:47:25Z</time>
      </trkpt>
      <trkpt lat="43.84446" lon="6.99261">
        <ele>850.8</ele>
        <time>2021-09-20T09:47:27Z</time>
      </trkpt>
      <trkpt lat="43.84443" lon="6.99254">
        <ele>850.1</ele>
        <time>2021-09-20T09:47:28Z</time>
      </trkpt>
      <trkpt lat="43.84439" lon="6.99248">
        <ele>849.4</ele>
        <time>2021-09-20T09:47:29Z</time>
      </trkpt>
      <trkpt lat="43.84435" lon="6.99243">
        <ele>848.8</ele>
        <time>2021-09-20T09:47:30Z</time>
      </trkpt>
      <trkpt lat="43.84428" lon="6.99237">
        <ele>847.8</ele>
        <time>2021-09-20T09:47:32Z</time>
      </trkpt>
      <trkpt lat="43.84422" lon="6.99236">
        <ele>847</ele>
        <time>2021-09-20T09:47:34Z</time>
      </trkpt>
      <trkpt lat="43.84414" lon="6.99238">
        <ele>845.9</ele>
        <time>2021-09-20T09:47:36Z</time>
      </trkpt>
      <trkpt lat="43.8441" lon="6.99241">
        <ele>845.7</ele>
        <time>2021-09-20T09:47:37Z</time>
      </trkpt>
      <trkpt lat="43.84406" lon="6.99247">
        <ele>845.3</ele>
        <time>2021-09-20T09:47:39Z</time>
      </trkpt>
      <trkpt lat="43.84401" lon="6.99251">
        <ele>845</ele>
        <time>2021-09-20T09:47:40Z</time>
      </trkpt>
      <trkpt lat="43.844" lon="6.9926">
        <ele>844.6</ele>
        <time>2021-09-20T09:47:41Z</time>
      </trkpt>
      <trkpt lat="43.84398" lon="6.99266">
        <ele>844.4</ele>
        <time>2021-09-20T09:47:42Z</time>
      </trkpt>
      <trkpt lat="43.84395" lon="6.9927">
        <ele>844.2</ele>
        <time>2021-09-20T09:47:44Z</time>
      </trkpt>
      <trkpt lat="43.84394" lon="6.99279">
        <ele>844</ele>
        <time>2021-09-20T09:47:45Z</time>
      </trkpt>
      <trkpt lat="43.84397" lon="6.99292">
        <ele>843.5</ele>
        <time>2021-09-20T09:47:46Z</time>
      </trkpt>
      <trkpt lat="43.84397" lon="6.99299">
        <ele>843.3</ele>
        <time>2021-09-20T09:47:47Z</time>
      </trkpt>
      <trkpt lat="43.84396" lon="6.99305">
        <ele>843</ele>
        <time>2021-09-20T09:47:49Z</time>
      </trkpt>
      <trkpt lat="43.84396" lon="6.99312">
        <ele>842.7</ele>
        <time>2021-09-20T09:47:50Z</time>
      </trkpt>
      <trkpt lat="43.84398" lon="6.99317">
        <ele>842.5</ele>
        <time>2021-09-20T09:47:51Z</time>
      </trkpt>
      <trkpt lat="43.84397" lon="6.99323">
        <ele>842.3</ele>
        <time>2021-09-20T09:47:53Z</time>
      </trkpt>
      <trkpt lat="43.84397" lon="6.99325">
        <ele>842.2</ele>
        <time>2021-09-20T09:47:54Z</time>
      </trkpt>
      <trkpt lat="43.84397" lon="6.99327">
        <ele>842.1</ele>
        <time>2021-09-20T09:47:55Z</time>
      </trkpt>
      <trkpt lat="43.84396" lon="6.99328">
        <ele>842.1</ele>
        <time>2021-09-20T09:47:56Z</time>
      </trkpt>
      <trkpt lat="43.84396" lon="6.99329">
        <ele>842</ele>
        <time>2021-09-20T09:47:57Z</time>
      </trkpt>
      <trkpt lat="43.84396" lon="6.99325">
        <ele>841.9</ele>
        <time>2021-09-20T09:47:58Z</time>
      </trkpt>
      <trkpt lat="43.84396" lon="6.99324">
        <ele>841.8</ele>
        <time>2021-09-20T09:48:00Z</time>
      </trkpt>
      <trkpt lat="43.84396" lon="6.99324">
        <ele>841.8</ele>
        <time>2021-09-20T09:48:01Z</time>
      </trkpt>
      <trkpt lat="43.84397" lon="6.99324">
        <ele>841.8</ele>
        <time>2021-09-20T09:48:03Z</time>
      </trkpt>
      <trkpt lat="43.84397" lon="6.99324">
        <ele>841.8</ele>
        <time>2021-09-20T09:48:04Z</time>
      </trkpt>
      <trkpt lat="43.84396" lon="6.99324">
        <ele>841.7</ele>
        <time>2021-09-20T09:48:06Z</time>
      </trkpt>
      <trkpt lat="43.8439" lon="6.99337">
        <ele>841.1</ele>
        <time>2021-09-20T09:48:12Z</time>
      </trkpt>
      <trkpt lat="43.84381" lon="6.9934">
        <ele>840.6</ele>
        <time>2021-09-20T09:48:14Z</time>
      </trkpt>
      <trkpt lat="43.84375" lon="6.99341">
        <ele>840.3</ele>
        <time>2021-09-20T09:48:15Z</time>
      </trkpt>
      <trkpt lat="43.84369" lon="6.99344">
        <ele>840.1</ele>
        <time>2021-09-20T09:48:16Z</time>
      </trkpt>
      <trkpt lat="43.84362" lon="6.99348">
        <ele>839.8</ele>
        <time>2021-09-20T09:48:18Z</time>
      </trkpt>
      <trkpt lat="43.84358" lon="6.99349">
        <ele>839.6</ele>
        <time>2021-09-20T09:48:19Z</time>
      </trkpt>
      <trkpt lat="43.84354" lon="6.99352">
        <ele>839.4</ele>
        <time>2021-09-20T09:48:21Z</time>
      </trkpt>
      <trkpt lat="43.84351" lon="6.99355">
        <ele>839.2</ele>
        <time>2021-09-20T09:48:22Z</time>
      </trkpt>
      <trkpt lat="43.84349" lon="6.9936">
        <ele>839</ele>
        <time>2021-09-20T09:48:23Z</time>
      </trkpt>
      <trkpt lat="43.84347" lon="6.99366">
        <ele>838.6</ele>
        <time>2021-09-20T09:48:24Z</time>
      </trkpt>
      <trkpt lat="43.84344" lon="6.99371">
        <ele>838.3</ele>
        <time>2021-09-20T09:48:25Z</time>
      </trkpt>
      <trkpt lat="43.84342" lon="6.99376">
        <ele>837.9</ele>
        <time>2021-09-20T09:48:26Z</time>
      </trkpt>
      <trkpt lat="43.84341" lon="6.99381">
        <ele>837.5</ele>
        <time>2021-09-20T09:48:27Z</time>
      </trkpt>
      <trkpt lat="43.84338" lon="6.9939">
        <ele>837</ele>
        <time>2021-09-20T09:48:29Z</time>
      </trkpt>
      <trkpt lat="43.84335" lon="6.99397">
        <ele>836.4</ele>
        <time>2021-09-20T09:48:30Z</time>
      </trkpt>
      <trkpt lat="43.84329" lon="6.99404">
        <ele>835.8</ele>
        <time>2021-09-20T09:48:32Z</time>
      </trkpt>
      <trkpt lat="43.84324" lon="6.99408">
        <ele>835.5</ele>
        <time>2021-09-20T09:48:33Z</time>
      </trkpt>
      <trkpt lat="43.8432" lon="6.99411">
        <ele>835.2</ele>
        <time>2021-09-20T09:48:34Z</time>
      </trkpt>
      <trkpt lat="43.84315" lon="6.99415">
        <ele>834.9</ele>
        <time>2021-09-20T09:48:36Z</time>
      </trkpt>
      <trkpt lat="43.84312" lon="6.99418">
        <ele>834.7</ele>
        <time>2021-09-20T09:48:37Z</time>
      </trkpt>
      <trkpt lat="43.84308" lon="6.99422">
        <ele>834.5</ele>
        <time>2021-09-20T09:48:38Z</time>
      </trkpt>
      <trkpt lat="43.84304" lon="6.99426">
        <ele>834.3</ele>
        <time>2021-09-20T09:48:39Z</time>
      </trkpt>
      <trkpt lat="43.843" lon="6.99436">
        <ele>833.9</ele>
        <time>2021-09-20T09:48:40Z</time>
      </trkpt>
      <trkpt lat="43.84297" lon="6.99442">
        <ele>833.7</ele>
        <time>2021-09-20T09:48:41Z</time>
      </trkpt>
      <trkpt lat="43.84294" lon="6.99448">
        <ele>833.5</ele>
        <time>2021-09-20T09:48:42Z</time>
      </trkpt>
      <trkpt lat="43.84291" lon="6.99461">
        <ele>833.2</ele>
        <time>2021-09-20T09:48:44Z</time>
      </trkpt>
      <trkpt lat="43.8429" lon="6.99471">
        <ele>833.1</ele>
        <time>2021-09-20T09:48:46Z</time>
      </trkpt>
      <trkpt lat="43.84292" lon="6.99476">
        <ele>833</ele>
        <time>2021-09-20T09:48:47Z</time>
      </trkpt>
      <trkpt lat="43.84292" lon="6.99482">
        <ele>832.9</ele>
        <time>2021-09-20T09:48:48Z</time>
      </trkpt>
      <trkpt lat="43.8429" lon="6.99489">
        <ele>832.9</ele>
        <time>2021-09-20T09:48:49Z</time>
      </trkpt>
      <trkpt lat="43.84288" lon="6.99497">
        <ele>832.8</ele>
        <time>2021-09-20T09:48:50Z</time>
      </trkpt>
      <trkpt lat="43.84283" lon="6.99511">
        <ele>832.6</ele>
        <time>2021-09-20T09:48:52Z</time>
      </trkpt>
      <trkpt lat="43.84278" lon="6.9952">
        <ele>832.4</ele>
        <time>2021-09-20T09:48:54Z</time>
      </trkpt>
      <trkpt lat="43.84277" lon="6.99527">
        <ele>832.3</ele>
        <time>2021-09-20T09:48:55Z</time>
      </trkpt>
      <trkpt lat="43.84275" lon="6.99536">
        <ele>832.2</ele>
        <time>2021-09-20T09:48:57Z</time>
      </trkpt>
      <trkpt lat="43.84274" lon="6.99542">
        <ele>832.1</ele>
        <time>2021-09-20T09:48:58Z</time>
      </trkpt>
      <trkpt lat="43.84273" lon="6.99548">
        <ele>832</ele>
        <time>2021-09-20T09:48:59Z</time>
      </trkpt>
      <trkpt lat="43.84271" lon="6.99554">
        <ele>831.9</ele>
        <time>2021-09-20T09:49:00Z</time>
      </trkpt>
      <trkpt lat="43.84266" lon="6.99566">
        <ele>831.8</ele>
        <time>2021-09-20T09:49:02Z</time>
      </trkpt>
      <trkpt lat="43.84262" lon="6.99578">
        <ele>831.7</ele>
        <time>2021-09-20T09:49:03Z</time>
      </trkpt>
      <trkpt lat="43.84257" lon="6.99594">
        <ele>831.6</ele>
        <time>2021-09-20T09:49:05Z</time>
      </trkpt>
      <trkpt lat="43.84255" lon="6.99602">
        <ele>831.6</ele>
        <time>2021-09-20T09:49:06Z</time>
      </trkpt>
      <trkpt lat="43.84255" lon="6.99618">
        <ele>831.7</ele>
        <time>2021-09-20T09:49:08Z</time>
      </trkpt>
      <trkpt lat="43.84253" lon="6.99635">
        <ele>831.7</ele>
        <time>2021-09-20T09:49:10Z</time>
      </trkpt>
      <trkpt lat="43.84251" lon="6.99643">
        <ele>831.8</ele>
        <time>2021-09-20T09:49:11Z</time>
      </trkpt>
      <trkpt lat="43.84246" lon="6.99658">
        <ele>831.8</ele>
        <time>2021-09-20T09:49:13Z</time>
      </trkpt>
      <trkpt lat="43.84245" lon="6.99664">
        <ele>831.9</ele>
        <time>2021-09-20T09:49:14Z</time>
      </trkpt>
      <trkpt lat="43.8424" lon="6.99677">
        <ele>831.9</ele>
        <time>2021-09-20T09:49:16Z</time>
      </trkpt>
      <trkpt lat="43.84236" lon="6.99688">
        <ele>832</ele>
        <time>2021-09-20T09:49:18Z</time>
      </trkpt>
      <trkpt lat="43.84231" lon="6.99696">
        <ele>832</ele>
        <time>2021-09-20T09:49:20Z</time>
      </trkpt>
      <trkpt lat="43.84225" lon="6.99706">
        <ele>832.2</ele>
        <time>2021-09-20T09:49:22Z</time>
      </trkpt>
      <trkpt lat="43.84222" lon="6.99711">
        <ele>832.2</ele>
        <time>2021-09-20T09:49:23Z</time>
      </trkpt>
      <trkpt lat="43.84218" lon="6.99719">
        <ele>832.3</ele>
        <time>2021-09-20T09:49:25Z</time>
      </trkpt>
      <trkpt lat="43.84214" lon="6.99721">
        <ele>832.4</ele>
        <time>2021-09-20T09:49:26Z</time>
      </trkpt>
      <trkpt lat="43.84213" lon="6.99728">
        <ele>832.4</ele>
        <time>2021-09-20T09:49:27Z</time>
      </trkpt>
      <trkpt lat="43.8421" lon="6.99736">
        <ele>832.5</ele>
        <time>2021-09-20T09:49:29Z</time>
      </trkpt>
      <trkpt lat="43.84209" lon="6.99742">
        <ele>832.5</ele>
        <time>2021-09-20T09:49:30Z</time>
      </trkpt>
      <trkpt lat="43.84207" lon="6.99749">
        <ele>832.6</ele>
        <time>2021-09-20T09:49:31Z</time>
      </trkpt>
      <trkpt lat="43.84205" lon="6.99756">
        <ele>832.7</ele>
        <time>2021-09-20T09:49:32Z</time>
      </trkpt>
      <trkpt lat="43.842" lon="6.99764">
        <ele>832.8</ele>
        <time>2021-09-20T09:49:34Z</time>
      </trkpt>
      <trkpt lat="43.84197" lon="6.9977">
        <ele>832.9</ele>
        <time>2021-09-20T09:49:35Z</time>
      </trkpt>
      <trkpt lat="43.84195" lon="6.99775">
        <ele>833</ele>
        <time>2021-09-20T09:49:36Z</time>
      </trkpt>
      <trkpt lat="43.84192" lon="6.99782">
        <ele>833.1</ele>
        <time>2021-09-20T09:49:38Z</time>
      </trkpt>
      <trkpt lat="43.84189" lon="6.99786">
        <ele>833.2</ele>
        <time>2021-09-20T09:49:39Z</time>
      </trkpt>
      <trkpt lat="43.84184" lon="6.99794">
        <ele>833.2</ele>
        <time>2021-09-20T09:49:40Z</time>
      </trkpt>
      <trkpt lat="43.84179" lon="6.99799">
        <ele>833.3</ele>
        <time>2021-09-20T09:49:42Z</time>
      </trkpt>
      <trkpt lat="43.84176" lon="6.99803">
        <ele>833.3</ele>
        <time>2021-09-20T09:49:43Z</time>
      </trkpt>
      <trkpt lat="43.84171" lon="6.99807">
        <ele>833.3</ele>
        <time>2021-09-20T09:49:44Z</time>
      </trkpt>
      <trkpt lat="43.84169" lon="6.99811">
        <ele>833.3</ele>
        <time>2021-09-20T09:49:46Z</time>
      </trkpt>
      <trkpt lat="43.84165" lon="6.99813">
        <ele>833.4</ele>
        <time>2021-09-20T09:49:47Z</time>
      </trkpt>
      <trkpt lat="43.84164" lon="6.99813">
        <ele>833.4</ele>
        <time>2021-09-20T09:49:48Z</time>
      </trkpt>
      <trkpt lat="43.84161" lon="6.99816">
        <ele>833.4</ele>
        <time>2021-09-20T09:49:49Z</time>
      </trkpt>
      <trkpt lat="43.84157" lon="6.99821">
        <ele>833.4</ele>
        <time>2021-09-20T09:49:51Z</time>
      </trkpt>
      <trkpt lat="43.84154" lon="6.99825">
        <ele>833.5</ele>
        <time>2021-09-20T09:49:52Z</time>
      </trkpt>
      <trkpt lat="43.84154" lon="6.99826">
        <ele>833.5</ele>
        <time>2021-09-20T09:49:53Z</time>
      </trkpt>
      <trkpt lat="43.84152" lon="6.99829">
        <ele>833.5</ele>
        <time>2021-09-20T09:49:54Z</time>
      </trkpt>
      <trkpt lat="43.84148" lon="6.99839">
        <ele>833.6</ele>
        <time>2021-09-20T09:49:56Z</time>
      </trkpt>
      <trkpt lat="43.84146" lon="6.99849">
        <ele>833.7</ele>
        <time>2021-09-20T09:49:57Z</time>
      </trkpt>
      <trkpt lat="43.84145" lon="6.99858">
        <ele>833.8</ele>
        <time>2021-09-20T09:49:59Z</time>
      </trkpt>
      <trkpt lat="43.84143" lon="6.99864">
        <ele>833.9</ele>
        <time>2021-09-20T09:50:00Z</time>
      </trkpt>
      <trkpt lat="43.84141" lon="6.99871">
        <ele>833.9</ele>
        <time>2021-09-20T09:50:01Z</time>
      </trkpt>
      <trkpt lat="43.84139" lon="6.9988">
        <ele>834</ele>
        <time>2021-09-20T09:50:02Z</time>
      </trkpt>
      <trkpt lat="43.84138" lon="6.99887">
        <ele>834.1</ele>
        <time>2021-09-20T09:50:03Z</time>
      </trkpt>
      <trkpt lat="43.84138" lon="6.99894">
        <ele>834.2</ele>
        <time>2021-09-20T09:50:04Z</time>
      </trkpt>
      <trkpt lat="43.84138" lon="6.999">
        <ele>834.3</ele>
        <time>2021-09-20T09:50:05Z</time>
      </trkpt>
      <trkpt lat="43.84137" lon="6.99906">
        <ele>834.3</ele>
        <time>2021-09-20T09:50:06Z</time>
      </trkpt>
      <trkpt lat="43.84135" lon="6.99914">
        <ele>834.4</ele>
        <time>2021-09-20T09:50:08Z</time>
      </trkpt>
      <trkpt lat="43.84133" lon="6.99921">
        <ele>834.5</ele>
        <time>2021-09-20T09:50:09Z</time>
      </trkpt>
      <trkpt lat="43.8413" lon="6.99928">
        <ele>834.6</ele>
        <time>2021-09-20T09:50:11Z</time>
      </trkpt>
      <trkpt lat="43.84127" lon="6.99933">
        <ele>834.7</ele>
        <time>2021-09-20T09:50:12Z</time>
      </trkpt>
      <trkpt lat="43.84124" lon="6.99937">
        <ele>834.7</ele>
        <time>2021-09-20T09:50:13Z</time>
      </trkpt>
      <trkpt lat="43.84121" lon="6.99943">
        <ele>834.8</ele>
        <time>2021-09-20T09:50:15Z</time>
      </trkpt>
      <trkpt lat="43.84118" lon="6.99949">
        <ele>834.9</ele>
        <time>2021-09-20T09:50:16Z</time>
      </trkpt>
      <trkpt lat="43.84117" lon="6.99956">
        <ele>835</ele>
        <time>2021-09-20T09:50:18Z</time>
      </trkpt>
      <trkpt lat="43.84115" lon="6.99964">
        <ele>835</ele>
        <time>2021-09-20T09:50:19Z</time>
      </trkpt>
      <trkpt lat="43.84113" lon="6.99969">
        <ele>835.1</ele>
        <time>2021-09-20T09:50:20Z</time>
      </trkpt>
      <trkpt lat="43.84111" lon="6.99974">
        <ele>835.2</ele>
        <time>2021-09-20T09:50:21Z</time>
      </trkpt>
      <trkpt lat="43.8411" lon="6.99978">
        <ele>835.2</ele>
        <time>2021-09-20T09:50:22Z</time>
      </trkpt>
      <trkpt lat="43.84109" lon="6.99984">
        <ele>835.3</ele>
        <time>2021-09-20T09:50:24Z</time>
      </trkpt>
      <trkpt lat="43.84107" lon="6.99988">
        <ele>835.3</ele>
        <time>2021-09-20T09:50:25Z</time>
      </trkpt>
      <trkpt lat="43.84105" lon="6.99993">
        <ele>835.4</ele>
        <time>2021-09-20T09:50:26Z</time>
      </trkpt>
      <trkpt lat="43.84103" lon="6.99998">
        <ele>835.4</ele>
        <time>2021-09-20T09:50:27Z</time>
      </trkpt>
      <trkpt lat="43.84101" lon="7.00003">
        <ele>835.4</ele>
        <time>2021-09-20T09:50:29Z</time>
      </trkpt>
      <trkpt lat="43.841" lon="7.00006">
        <ele>835.5</ele>
        <time>2021-09-20T09:50:30Z</time>
      </trkpt>
      <trkpt lat="43.84099" lon="7.0001">
        <ele>835.5</ele>
        <time>2021-09-20T09:50:31Z</time>
      </trkpt>
      <trkpt lat="43.84098" lon="7.00014">
        <ele>835.6</ele>
        <time>2021-09-20T09:50:32Z</time>
      </trkpt>
      <trkpt lat="43.84096" lon="7.0002">
        <ele>835.6</ele>
        <time>2021-09-20T09:50:33Z</time>
      </trkpt>
      <trkpt lat="43.84095" lon="7.00024">
        <ele>835.6</ele>
        <time>2021-09-20T09:50:34Z</time>
      </trkpt>
      <trkpt lat="43.84092" lon="7.0003">
        <ele>835.7</ele>
        <time>2021-09-20T09:50:36Z</time>
      </trkpt>
      <trkpt lat="43.8409" lon="7.00036">
        <ele>835.8</ele>
        <time>2021-09-20T09:50:37Z</time>
      </trkpt>
      <trkpt lat="43.84088" lon="7.00039">
        <ele>835.8</ele>
        <time>2021-09-20T09:50:38Z</time>
      </trkpt>
      <trkpt lat="43.84086" lon="7.00045">
        <ele>835.8</ele>
        <time>2021-09-20T09:50:40Z</time>
      </trkpt>
      <trkpt lat="43.84083" lon="7.00049">
        <ele>835.9</ele>
        <time>2021-09-20T09:50:41Z</time>
      </trkpt>
      <trkpt lat="43.84081" lon="7.00053">
        <ele>835.9</ele>
        <time>2021-09-20T09:50:42Z</time>
      </trkpt>
      <trkpt lat="43.84078" lon="7.00061">
        <ele>836</ele>
        <time>2021-09-20T09:50:43Z</time>
      </trkpt>
      <trkpt lat="43.84076" lon="7.00068">
        <ele>836</ele>
        <time>2021-09-20T09:50:44Z</time>
      </trkpt>
      <trkpt lat="43.84074" lon="7.00079">
        <ele>836.2</ele>
        <time>2021-09-20T09:50:46Z</time>
      </trkpt>
      <trkpt lat="43.84075" lon="7.00088">
        <ele>836.3</ele>
        <time>2021-09-20T09:50:47Z</time>
      </trkpt>
      <trkpt lat="43.84075" lon="7.00096">
        <ele>836.5</ele>
        <time>2021-09-20T09:50:49Z</time>
      </trkpt>
      <trkpt lat="43.84077" lon="7.00104">
        <ele>836.6</ele>
        <time>2021-09-20T09:50:50Z</time>
      </trkpt>
      <trkpt lat="43.84078" lon="7.00109">
        <ele>836.7</ele>
        <time>2021-09-20T09:50:51Z</time>
      </trkpt>
      <trkpt lat="43.84078" lon="7.00119">
        <ele>836.9</ele>
        <time>2021-09-20T09:50:53Z</time>
      </trkpt>
      <trkpt lat="43.84077" lon="7.00127">
        <ele>837.1</ele>
        <time>2021-09-20T09:50:54Z</time>
      </trkpt>
      <trkpt lat="43.84075" lon="7.00134">
        <ele>837.2</ele>
        <time>2021-09-20T09:50:55Z</time>
      </trkpt>
      <trkpt lat="43.84073" lon="7.00145">
        <ele>837.1</ele>
        <time>2021-09-20T09:50:56Z</time>
      </trkpt>
      <trkpt lat="43.84072" lon="7.00152">
        <ele>837</ele>
        <time>2021-09-20T09:50:57Z</time>
      </trkpt>
      <trkpt lat="43.84071" lon="7.00162">
        <ele>836.9</ele>
        <time>2021-09-20T09:50:59Z</time>
      </trkpt>
      <trkpt lat="43.84069" lon="7.00174">
        <ele>836.8</ele>
        <time>2021-09-20T09:51:00Z</time>
      </trkpt>
      <trkpt lat="43.84067" lon="7.00182">
        <ele>836.8</ele>
        <time>2021-09-20T09:51:01Z</time>
      </trkpt>
      <trkpt lat="43.84066" lon="7.0019">
        <ele>836.7</ele>
        <time>2021-09-20T09:51:02Z</time>
      </trkpt>
      <trkpt lat="43.84066" lon="7.00198">
        <ele>836.7</ele>
        <time>2021-09-20T09:51:03Z</time>
      </trkpt>
      <trkpt lat="43.84066" lon="7.00208">
        <ele>836.6</ele>
        <time>2021-09-20T09:51:05Z</time>
      </trkpt>
      <trkpt lat="43.84067" lon="7.00217">
        <ele>836.6</ele>
        <time>2021-09-20T09:51:06Z</time>
      </trkpt>
      <trkpt lat="43.84068" lon="7.00223">
        <ele>836.6</ele>
        <time>2021-09-20T09:51:07Z</time>
      </trkpt>
      <trkpt lat="43.84069" lon="7.00231">
        <ele>836.5</ele>
        <time>2021-09-20T09:51:09Z</time>
      </trkpt>
      <trkpt lat="43.8407" lon="7.00237">
        <ele>836.5</ele>
        <time>2021-09-20T09:51:10Z</time>
      </trkpt>
      <trkpt lat="43.8407" lon="7.00243">
        <ele>836.5</ele>
        <time>2021-09-20T09:51:11Z</time>
      </trkpt>
      <trkpt lat="43.84071" lon="7.0025">
        <ele>836.4</ele>
        <time>2021-09-20T09:51:13Z</time>
      </trkpt>
      <trkpt lat="43.84072" lon="7.00259">
        <ele>836.4</ele>
        <time>2021-09-20T09:51:14Z</time>
      </trkpt>
      <trkpt lat="43.84073" lon="7.00265">
        <ele>836.3</ele>
        <time>2021-09-20T09:51:15Z</time>
      </trkpt>
      <trkpt lat="43.84074" lon="7.00271">
        <ele>836.3</ele>
        <time>2021-09-20T09:51:17Z</time>
      </trkpt>
      <trkpt lat="43.84076" lon="7.00276">
        <ele>836.3</ele>
        <time>2021-09-20T09:51:18Z</time>
      </trkpt>
      <trkpt lat="43.84078" lon="7.00281">
        <ele>836.2</ele>
        <time>2021-09-20T09:51:19Z</time>
      </trkpt>
      <trkpt lat="43.84079" lon="7.00287">
        <ele>836.2</ele>
        <time>2021-09-20T09:51:20Z</time>
      </trkpt>
      <trkpt lat="43.84079" lon="7.00292">
        <ele>836.1</ele>
        <time>2021-09-20T09:51:21Z</time>
      </trkpt>
      <trkpt lat="43.8408" lon="7.00298">
        <ele>836.1</ele>
        <time>2021-09-20T09:51:22Z</time>
      </trkpt>
      <trkpt lat="43.8408" lon="7.00304">
        <ele>836</ele>
        <time>2021-09-20T09:51:23Z</time>
      </trkpt>
      <trkpt lat="43.84079" lon="7.00314">
        <ele>835.9</ele>
        <time>2021-09-20T09:51:25Z</time>
      </trkpt>
      <trkpt lat="43.84077" lon="7.00319">
        <ele>835.8</ele>
        <time>2021-09-20T09:51:26Z</time>
      </trkpt>
      <trkpt lat="43.84076" lon="7.00319">
        <ele>835.8</ele>
        <time>2021-09-20T09:51:27Z</time>
      </trkpt>
      <trkpt lat="43.84074" lon="7.00321">
        <ele>835.8</ele>
        <time>2021-09-20T09:51:28Z</time>
      </trkpt>
      <trkpt lat="43.84073" lon="7.00326">
        <ele>835.7</ele>
        <time>2021-09-20T09:51:30Z</time>
      </trkpt>
      <trkpt lat="43.84072" lon="7.00329">
        <ele>835.7</ele>
        <time>2021-09-20T09:51:31Z</time>
      </trkpt>
      <trkpt lat="43.84072" lon="7.00334">
        <ele>835.6</ele>
        <time>2021-09-20T09:51:33Z</time>
      </trkpt>
      <trkpt lat="43.84072" lon="7.00339">
        <ele>835.6</ele>
        <time>2021-09-20T09:51:35Z</time>
      </trkpt>
      <trkpt lat="43.84071" lon="7.00345">
        <ele>835.5</ele>
        <time>2021-09-20T09:51:36Z</time>
      </trkpt>
      <trkpt lat="43.84071" lon="7.00345">
        <ele>835.5</ele>
        <time>2021-09-20T09:51:36Z</time>
      </trkpt>
      <trkpt lat="43.84069" lon="7.0035">
        <ele>835.4</ele>
        <time>2021-09-20T09:51:37Z</time>
      </trkpt>
      <trkpt lat="43.84067" lon="7.00355">
        <ele>835.3</ele>
        <time>2021-09-20T09:51:39Z</time>
      </trkpt>
      <trkpt lat="43.84065" lon="7.00357">
        <ele>835.3</ele>
        <time>2021-09-20T09:51:40Z</time>
      </trkpt>
      <trkpt lat="43.84064" lon="7.00358">
        <ele>835.3</ele>
        <time>2021-09-20T09:51:41Z</time>
      </trkpt>
      <trkpt lat="43.84062" lon="7.00364">
        <ele>835.2</ele>
        <time>2021-09-20T09:51:42Z</time>
      </trkpt>
      <trkpt lat="43.84061" lon="7.00369">
        <ele>835.2</ele>
        <time>2021-09-20T09:51:43Z</time>
      </trkpt>
      <trkpt lat="43.84059" lon="7.0038">
        <ele>835.1</ele>
        <time>2021-09-20T09:51:44Z</time>
      </trkpt>
      <trkpt lat="43.84056" lon="7.00394">
        <ele>835.1</ele>
        <time>2021-09-20T09:51:46Z</time>
      </trkpt>
      <trkpt lat="43.84052" lon="7.00403">
        <ele>835.1</ele>
        <time>2021-09-20T09:51:47Z</time>
      </trkpt>
      <trkpt lat="43.84049" lon="7.00411">
        <ele>835.1</ele>
        <time>2021-09-20T09:51:48Z</time>
      </trkpt>
      <trkpt lat="43.84045" lon="7.00422">
        <ele>835.1</ele>
        <time>2021-09-20T09:51:50Z</time>
      </trkpt>
      <trkpt lat="43.84043" lon="7.00428">
        <ele>835.1</ele>
        <time>2021-09-20T09:51:51Z</time>
      </trkpt>
      <trkpt lat="43.84041" lon="7.00437">
        <ele>835</ele>
        <time>2021-09-20T09:51:52Z</time>
      </trkpt>
      <trkpt lat="43.84039" lon="7.00444">
        <ele>834.9</ele>
        <time>2021-09-20T09:51:54Z</time>
      </trkpt>
      <trkpt lat="43.84037" lon="7.00452">
        <ele>834.9</ele>
        <time>2021-09-20T09:51:55Z</time>
      </trkpt>
      <trkpt lat="43.84035" lon="7.0046">
        <ele>834.9</ele>
        <time>2021-09-20T09:51:56Z</time>
      </trkpt>
      <trkpt lat="43.84033" lon="7.00466">
        <ele>834.8</ele>
        <time>2021-09-20T09:51:57Z</time>
      </trkpt>
      <trkpt lat="43.84031" lon="7.00471">
        <ele>834.8</ele>
        <time>2021-09-20T09:51:58Z</time>
      </trkpt>
      <trkpt lat="43.84027" lon="7.0048">
        <ele>834.7</ele>
        <time>2021-09-20T09:52:00Z</time>
      </trkpt>
      <trkpt lat="43.84021" lon="7.00492">
        <ele>834.6</ele>
        <time>2021-09-20T09:52:01Z</time>
      </trkpt>
      <trkpt lat="43.84019" lon="7.00499">
        <ele>834.6</ele>
        <time>2021-09-20T09:52:02Z</time>
      </trkpt>
      <trkpt lat="43.84018" lon="7.00506">
        <ele>834.5</ele>
        <time>2021-09-20T09:52:03Z</time>
      </trkpt>
      <trkpt lat="43.84018" lon="7.00523">
        <ele>834.4</ele>
        <time>2021-09-20T09:52:05Z</time>
      </trkpt>
      <trkpt lat="43.84019" lon="7.00537">
        <ele>834.3</ele>
        <time>2021-09-20T09:52:07Z</time>
      </trkpt>
      <trkpt lat="43.84019" lon="7.00542">
        <ele>834.2</ele>
        <time>2021-09-20T09:52:08Z</time>
      </trkpt>
      <trkpt lat="43.8402" lon="7.00549">
        <ele>834.1</ele>
        <time>2021-09-20T09:52:10Z</time>
      </trkpt>
      <trkpt lat="43.84022" lon="7.00559">
        <ele>834</ele>
        <time>2021-09-20T09:52:11Z</time>
      </trkpt>
      <trkpt lat="43.84023" lon="7.00564">
        <ele>834</ele>
        <time>2021-09-20T09:52:12Z</time>
      </trkpt>
      <trkpt lat="43.84025" lon="7.00573">
        <ele>833.9</ele>
        <time>2021-09-20T09:52:14Z</time>
      </trkpt>
      <trkpt lat="43.84026" lon="7.00578">
        <ele>833.9</ele>
        <time>2021-09-20T09:52:15Z</time>
      </trkpt>
      <trkpt lat="43.84027" lon="7.0059">
        <ele>833.8</ele>
        <time>2021-09-20T09:52:17Z</time>
      </trkpt>
      <trkpt lat="43.84028" lon="7.00602">
        <ele>833.6</ele>
        <time>2021-09-20T09:52:19Z</time>
      </trkpt>
      <trkpt lat="43.84028" lon="7.00611">
        <ele>833.6</ele>
        <time>2021-09-20T09:52:20Z</time>
      </trkpt>
      <trkpt lat="43.8403" lon="7.0062">
        <ele>833.5</ele>
        <time>2021-09-20T09:52:22Z</time>
      </trkpt>
      <trkpt lat="43.84036" lon="7.00634">
        <ele>833.4</ele>
        <time>2021-09-20T09:52:23Z</time>
      </trkpt>
      <trkpt lat="43.84038" lon="7.00641">
        <ele>833.4</ele>
        <time>2021-09-20T09:52:24Z</time>
      </trkpt>
      <trkpt lat="43.8404" lon="7.00656">
        <ele>833.3</ele>
        <time>2021-09-20T09:52:26Z</time>
      </trkpt>
      <trkpt lat="43.84043" lon="7.0067">
        <ele>833.3</ele>
        <time>2021-09-20T09:52:28Z</time>
      </trkpt>
      <trkpt lat="43.84043" lon="7.00687">
        <ele>833.2</ele>
        <time>2021-09-20T09:52:30Z</time>
      </trkpt>
      <trkpt lat="43.84045" lon="7.00695">
        <ele>833.2</ele>
        <time>2021-09-20T09:52:31Z</time>
      </trkpt>
      <trkpt lat="43.84048" lon="7.00707">
        <ele>833.1</ele>
        <time>2021-09-20T09:52:33Z</time>
      </trkpt>
      <trkpt lat="43.8405" lon="7.00717">
        <ele>833.1</ele>
        <time>2021-09-20T09:52:34Z</time>
      </trkpt>
      <trkpt lat="43.84051" lon="7.00724">
        <ele>833.1</ele>
        <time>2021-09-20T09:52:35Z</time>
      </trkpt>
      <trkpt lat="43.84049" lon="7.00731">
        <ele>833.1</ele>
        <time>2021-09-20T09:52:36Z</time>
      </trkpt>
      <trkpt lat="43.84049" lon="7.00745">
        <ele>833.1</ele>
        <time>2021-09-20T09:52:38Z</time>
      </trkpt>
      <trkpt lat="43.8405" lon="7.00753">
        <ele>833.1</ele>
        <time>2021-09-20T09:52:40Z</time>
      </trkpt>
      <trkpt lat="43.8405" lon="7.00762">
        <ele>833.1</ele>
        <time>2021-09-20T09:52:41Z</time>
      </trkpt>
      <trkpt lat="43.8405" lon="7.0077">
        <ele>833.1</ele>
        <time>2021-09-20T09:52:43Z</time>
      </trkpt>
      <trkpt lat="43.8405" lon="7.00778">
        <ele>833</ele>
        <time>2021-09-20T09:52:44Z</time>
      </trkpt>
      <trkpt lat="43.8405" lon="7.0079">
        <ele>832.9</ele>
        <time>2021-09-20T09:52:45Z</time>
      </trkpt>
      <trkpt lat="43.8405" lon="7.00797">
        <ele>832.8</ele>
        <time>2021-09-20T09:52:46Z</time>
      </trkpt>
      <trkpt lat="43.8405" lon="7.00808">
        <ele>832.7</ele>
        <time>2021-09-20T09:52:48Z</time>
      </trkpt>
      <trkpt lat="43.8405" lon="7.00815">
        <ele>832.7</ele>
        <time>2021-09-20T09:52:49Z</time>
      </trkpt>
      <trkpt lat="43.84054" lon="7.00824">
        <ele>832.6</ele>
        <time>2021-09-20T09:52:51Z</time>
      </trkpt>
      <trkpt lat="43.84054" lon="7.00836">
        <ele>832.5</ele>
        <time>2021-09-20T09:52:52Z</time>
      </trkpt>
      <trkpt lat="43.84055" lon="7.00842">
        <ele>832.5</ele>
        <time>2021-09-20T09:52:53Z</time>
      </trkpt>
      <trkpt lat="43.84054" lon="7.00848">
        <ele>832.5</ele>
        <time>2021-09-20T09:52:55Z</time>
      </trkpt>
      <trkpt lat="43.84056" lon="7.00855">
        <ele>832.4</ele>
        <time>2021-09-20T09:52:56Z</time>
      </trkpt>
      <trkpt lat="43.84057" lon="7.0086">
        <ele>832.4</ele>
        <time>2021-09-20T09:52:57Z</time>
      </trkpt>
      <trkpt lat="43.84057" lon="7.00865">
        <ele>832.3</ele>
        <time>2021-09-20T09:52:58Z</time>
      </trkpt>
      <trkpt lat="43.8406" lon="7.00873">
        <ele>832.2</ele>
        <time>2021-09-20T09:53:00Z</time>
      </trkpt>
      <trkpt lat="43.84063" lon="7.00887">
        <ele>832.1</ele>
        <time>2021-09-20T09:53:01Z</time>
      </trkpt>
      <trkpt lat="43.84063" lon="7.00895">
        <ele>832</ele>
        <time>2021-09-20T09:53:02Z</time>
      </trkpt>
      <trkpt lat="43.84064" lon="7.00903">
        <ele>831.9</ele>
        <time>2021-09-20T09:53:03Z</time>
      </trkpt>
      <trkpt lat="43.84065" lon="7.0091">
        <ele>831.8</ele>
        <time>2021-09-20T09:53:04Z</time>
      </trkpt>
      <trkpt lat="43.84063" lon="7.00918">
        <ele>831.7</ele>
        <time>2021-09-20T09:53:06Z</time>
      </trkpt>
      <trkpt lat="43.84062" lon="7.00926">
        <ele>831.7</ele>
        <time>2021-09-20T09:53:07Z</time>
      </trkpt>
      <trkpt lat="43.84062" lon="7.00934">
        <ele>831.6</ele>
        <time>2021-09-20T09:53:08Z</time>
      </trkpt>
      <trkpt lat="43.84062" lon="7.00942">
        <ele>831.6</ele>
        <time>2021-09-20T09:53:10Z</time>
      </trkpt>
      <trkpt lat="43.84063" lon="7.00952">
        <ele>831.5</ele>
        <time>2021-09-20T09:53:11Z</time>
      </trkpt>
      <trkpt lat="43.84063" lon="7.0096">
        <ele>831.5</ele>
        <time>2021-09-20T09:53:13Z</time>
      </trkpt>
      <trkpt lat="43.84064" lon="7.0097">
        <ele>831.4</ele>
        <time>2021-09-20T09:53:14Z</time>
      </trkpt>
      <trkpt lat="43.84064" lon="7.00972">
        <ele>831.4</ele>
        <time>2021-09-20T09:53:16Z</time>
      </trkpt>
      <trkpt lat="43.84061" lon="7.00984">
        <ele>831.3</ele>
        <time>2021-09-20T09:53:18Z</time>
      </trkpt>
      <trkpt lat="43.8406" lon="7.00993">
        <ele>831.3</ele>
        <time>2021-09-20T09:53:20Z</time>
      </trkpt>
      <trkpt lat="43.84061" lon="7.00998">
        <ele>831.3</ele>
        <time>2021-09-20T09:53:21Z</time>
      </trkpt>
      <trkpt lat="43.84061" lon="7.01001">
        <ele>831.2</ele>
        <time>2021-09-20T09:53:23Z</time>
      </trkpt>
      <trkpt lat="43.8406" lon="7.01016">
        <ele>831.1</ele>
        <time>2021-09-20T09:53:24Z</time>
      </trkpt>
      <trkpt lat="43.84048" lon="7.012">
        <ele>829.9</ele>
        <time>2021-09-20T09:53:51Z</time>
      </trkpt>
      <trkpt lat="43.84045" lon="7.01228">
        <ele>829.7</ele>
        <time>2021-09-20T09:53:53Z</time>
      </trkpt>
      <trkpt lat="43.84044" lon="7.01238">
        <ele>829.6</ele>
        <time>2021-09-20T09:53:54Z</time>
      </trkpt>
      <trkpt lat="43.84041" lon="7.01256">
        <ele>829.5</ele>
        <time>2021-09-20T09:53:56Z</time>
      </trkpt>
      <trkpt lat="43.8404" lon="7.01264">
        <ele>829.5</ele>
        <time>2021-09-20T09:53:57Z</time>
      </trkpt>
      <trkpt lat="43.84038" lon="7.01277">
        <ele>829.3</ele>
        <time>2021-09-20T09:53:59Z</time>
      </trkpt>
      <trkpt lat="43.84038" lon="7.01282">
        <ele>829.3</ele>
        <time>2021-09-20T09:54:00Z</time>
      </trkpt>
      <trkpt lat="43.84039" lon="7.01293">
        <ele>829.2</ele>
        <time>2021-09-20T09:54:02Z</time>
      </trkpt>
      <trkpt lat="43.8404" lon="7.01299">
        <ele>829.2</ele>
        <time>2021-09-20T09:54:03Z</time>
      </trkpt>
      <trkpt lat="43.84039" lon="7.01305">
        <ele>829.2</ele>
        <time>2021-09-20T09:54:04Z</time>
      </trkpt>
      <trkpt lat="43.84036" lon="7.0131">
        <ele>829.2</ele>
        <time>2021-09-20T09:54:06Z</time>
      </trkpt>
      <trkpt lat="43.84034" lon="7.01318">
        <ele>829.2</ele>
        <time>2021-09-20T09:54:07Z</time>
      </trkpt>
      <trkpt lat="43.84032" lon="7.01328">
        <ele>829.2</ele>
        <time>2021-09-20T09:54:09Z</time>
      </trkpt>
      <trkpt lat="43.84031" lon="7.01332">
        <ele>829.2</ele>
        <time>2021-09-20T09:54:10Z</time>
      </trkpt>
      <trkpt lat="43.84031" lon="7.01337">
        <ele>829.2</ele>
        <time>2021-09-20T09:54:11Z</time>
      </trkpt>
      <trkpt lat="43.84031" lon="7.0134">
        <ele>829.2</ele>
        <time>2021-09-20T09:54:12Z</time>
      </trkpt>
      <trkpt lat="43.84032" lon="7.01342">
        <ele>829.2</ele>
        <time>2021-09-20T09:54:14Z</time>
      </trkpt>
      <trkpt lat="43.84017" lon="7.01442">
        <ele>829.2</ele>
        <time>2021-09-20T09:54:31Z</time>
      </trkpt>
      <trkpt lat="43.84016" lon="7.01455">
        <ele>829.2</ele>
        <time>2021-09-20T09:54:32Z</time>
      </trkpt>
      <trkpt lat="43.84016" lon="7.01463">
        <ele>829.2</ele>
        <time>2021-09-20T09:54:33Z</time>
      </trkpt>
      <trkpt lat="43.84014" lon="7.01472">
        <ele>829.2</ele>
        <time>2021-09-20T09:54:34Z</time>
      </trkpt>
      <trkpt lat="43.84014" lon="7.0148">
        <ele>829.2</ele>
        <time>2021-09-20T09:54:35Z</time>
      </trkpt>
      <trkpt lat="43.84008" lon="7.01497">
        <ele>829.3</ele>
        <time>2021-09-20T09:54:36Z</time>
      </trkpt>
      <trkpt lat="43.83997" lon="7.01519">
        <ele>829.4</ele>
        <time>2021-09-20T09:54:38Z</time>
      </trkpt>
      <trkpt lat="43.83994" lon="7.01528">
        <ele>829.4</ele>
        <time>2021-09-20T09:54:40Z</time>
      </trkpt>
      <trkpt lat="43.83993" lon="7.01534">
        <ele>829.4</ele>
        <time>2021-09-20T09:54:41Z</time>
      </trkpt>
      <trkpt lat="43.8399" lon="7.01542">
        <ele>829.4</ele>
        <time>2021-09-20T09:54:43Z</time>
      </trkpt>
      <trkpt lat="43.83987" lon="7.01548">
        <ele>829.4</ele>
        <time>2021-09-20T09:54:44Z</time>
      </trkpt>
      <trkpt lat="43.83982" lon="7.01554">
        <ele>829.4</ele>
        <time>2021-09-20T09:54:45Z</time>
      </trkpt>
      <trkpt lat="43.83979" lon="7.0156">
        <ele>829.3</ele>
        <time>2021-09-20T09:54:46Z</time>
      </trkpt>
      <trkpt lat="43.83977" lon="7.01566">
        <ele>829.3</ele>
        <time>2021-09-20T09:54:47Z</time>
      </trkpt>
      <trkpt lat="43.83975" lon="7.01574">
        <ele>829.3</ele>
        <time>2021-09-20T09:54:48Z</time>
      </trkpt>
      <trkpt lat="43.83975" lon="7.0158">
        <ele>829.3</ele>
        <time>2021-09-20T09:54:49Z</time>
      </trkpt>
      <trkpt lat="43.83973" lon="7.01588">
        <ele>829.4</ele>
        <time>2021-09-20T09:54:51Z</time>
      </trkpt>
      <trkpt lat="43.83972" lon="7.01594">
        <ele>829.4</ele>
        <time>2021-09-20T09:54:52Z</time>
      </trkpt>
      <trkpt lat="43.8397" lon="7.01598">
        <ele>829.4</ele>
        <time>2021-09-20T09:54:53Z</time>
      </trkpt>
      <trkpt lat="43.83968" lon="7.01604">
        <ele>829.4</ele>
        <time>2021-09-20T09:54:55Z</time>
      </trkpt>
      <trkpt lat="43.83966" lon="7.01613">
        <ele>829.4</ele>
        <time>2021-09-20T09:54:56Z</time>
      </trkpt>
      <trkpt lat="43.83963" lon="7.01621">
        <ele>829.5</ele>
        <time>2021-09-20T09:54:57Z</time>
      </trkpt>
      <trkpt lat="43.83963" lon="7.01628">
        <ele>829.5</ele>
        <time>2021-09-20T09:54:58Z</time>
      </trkpt>
      <trkpt lat="43.83962" lon="7.01631">
        <ele>829.4</ele>
        <time>2021-09-20T09:55:00Z</time>
      </trkpt>
      <trkpt lat="43.8396" lon="7.01645">
        <ele>829.4</ele>
        <time>2021-09-20T09:55:02Z</time>
      </trkpt>
      <trkpt lat="43.8396" lon="7.01653">
        <ele>829.3</ele>
        <time>2021-09-20T09:55:03Z</time>
      </trkpt>
      <trkpt lat="43.83956" lon="7.01667">
        <ele>829.3</ele>
        <time>2021-09-20T09:55:04Z</time>
      </trkpt>
      <trkpt lat="43.83954" lon="7.01677">
        <ele>829.2</ele>
        <time>2021-09-20T09:55:05Z</time>
      </trkpt>
      <trkpt lat="43.83951" lon="7.01686">
        <ele>829.2</ele>
        <time>2021-09-20T09:55:07Z</time>
      </trkpt>
      <trkpt lat="43.8395" lon="7.01694">
        <ele>829.2</ele>
        <time>2021-09-20T09:55:08Z</time>
      </trkpt>
      <trkpt lat="43.83949" lon="7.017">
        <ele>829.2</ele>
        <time>2021-09-20T09:55:09Z</time>
      </trkpt>
      <trkpt lat="43.83947" lon="7.0171">
        <ele>829.3</ele>
        <time>2021-09-20T09:55:11Z</time>
      </trkpt>
      <trkpt lat="43.83946" lon="7.0172">
        <ele>829.3</ele>
        <time>2021-09-20T09:55:12Z</time>
      </trkpt>
      <trkpt lat="43.83947" lon="7.01727">
        <ele>829.4</ele>
        <time>2021-09-20T09:55:14Z</time>
      </trkpt>
      <trkpt lat="43.83948" lon="7.01734">
        <ele>829.4</ele>
        <time>2021-09-20T09:55:15Z</time>
      </trkpt>
      <trkpt lat="43.83949" lon="7.0174">
        <ele>829.4</ele>
        <time>2021-09-20T09:55:16Z</time>
      </trkpt>
      <trkpt lat="43.8395" lon="7.01747">
        <ele>829.4</ele>
        <time>2021-09-20T09:55:17Z</time>
      </trkpt>
      <trkpt lat="43.83952" lon="7.01754">
        <ele>829.3</ele>
        <time>2021-09-20T09:55:18Z</time>
      </trkpt>
      <trkpt lat="43.83954" lon="7.01762">
        <ele>829.3</ele>
        <time>2021-09-20T09:55:19Z</time>
      </trkpt>
      <trkpt lat="43.83956" lon="7.01772">
        <ele>829.3</ele>
        <time>2021-09-20T09:55:21Z</time>
      </trkpt>
      <trkpt lat="43.83956" lon="7.01781">
        <ele>829.3</ele>
        <time>2021-09-20T09:55:22Z</time>
      </trkpt>
      <trkpt lat="43.83956" lon="7.01788">
        <ele>829.3</ele>
        <time>2021-09-20T09:55:23Z</time>
      </trkpt>
      <trkpt lat="43.83956" lon="7.01795">
        <ele>829.4</ele>
        <time>2021-09-20T09:55:24Z</time>
      </trkpt>
      <trkpt lat="43.83957" lon="7.01803">
        <ele>829.4</ele>
        <time>2021-09-20T09:55:26Z</time>
      </trkpt>
      <trkpt lat="43.83957" lon="7.0181">
        <ele>829.4</ele>
        <time>2021-09-20T09:55:27Z</time>
      </trkpt>
      <trkpt lat="43.83956" lon="7.01817">
        <ele>829.5</ele>
        <time>2021-09-20T09:55:28Z</time>
      </trkpt>
      <trkpt lat="43.83955" lon="7.01823">
        <ele>829.5</ele>
        <time>2021-09-20T09:55:29Z</time>
      </trkpt>
      <trkpt lat="43.83953" lon="7.01833">
        <ele>829.5</ele>
        <time>2021-09-20T09:55:31Z</time>
      </trkpt>
      <trkpt lat="43.83951" lon="7.01844">
        <ele>829.5</ele>
        <time>2021-09-20T09:55:32Z</time>
      </trkpt>
      <trkpt lat="43.83948" lon="7.01855">
        <ele>829.6</ele>
        <time>2021-09-20T09:55:34Z</time>
      </trkpt>
      <trkpt lat="43.83947" lon="7.01863">
        <ele>829.6</ele>
        <time>2021-09-20T09:55:35Z</time>
      </trkpt>
      <trkpt lat="43.83945" lon="7.01871">
        <ele>829.6</ele>
        <time>2021-09-20T09:55:36Z</time>
      </trkpt>
      <trkpt lat="43.83945" lon="7.01878">
        <ele>829.6</ele>
        <time>2021-09-20T09:55:37Z</time>
      </trkpt>
      <trkpt lat="43.83944" lon="7.01884">
        <ele>829.6</ele>
        <time>2021-09-20T09:55:38Z</time>
      </trkpt>
      <trkpt lat="43.83943" lon="7.01889">
        <ele>829.6</ele>
        <time>2021-09-20T09:55:40Z</time>
      </trkpt>
      <trkpt lat="43.83943" lon="7.01891">
        <ele>829.6</ele>
        <time>2021-09-20T09:55:41Z</time>
      </trkpt>
      <trkpt lat="43.83941" lon="7.01903">
        <ele>829.7</ele>
        <time>2021-09-20T09:55:43Z</time>
      </trkpt>
      <trkpt lat="43.83938" lon="7.01908">
        <ele>829.7</ele>
        <time>2021-09-20T09:55:44Z</time>
      </trkpt>
      <trkpt lat="43.83932" lon="7.0192">
        <ele>829.7</ele>
        <time>2021-09-20T09:55:46Z</time>
      </trkpt>
      <trkpt lat="43.83927" lon="7.0193">
        <ele>829.7</ele>
        <time>2021-09-20T09:55:48Z</time>
      </trkpt>
      <trkpt lat="43.83925" lon="7.01936">
        <ele>829.7</ele>
        <time>2021-09-20T09:55:49Z</time>
      </trkpt>
      <trkpt lat="43.83923" lon="7.01942">
        <ele>829.7</ele>
        <time>2021-09-20T09:55:50Z</time>
      </trkpt>
      <trkpt lat="43.8392" lon="7.01948">
        <ele>829.7</ele>
        <time>2021-09-20T09:55:51Z</time>
      </trkpt>
      <trkpt lat="43.83918" lon="7.01953">
        <ele>829.7</ele>
        <time>2021-09-20T09:55:52Z</time>
      </trkpt>
      <trkpt lat="43.83917" lon="7.01957">
        <ele>829.7</ele>
        <time>2021-09-20T09:55:53Z</time>
      </trkpt>
      <trkpt lat="43.83916" lon="7.01962">
        <ele>829.7</ele>
        <time>2021-09-20T09:55:54Z</time>
      </trkpt>
      <trkpt lat="43.83915" lon="7.01967">
        <ele>829.7</ele>
        <time>2021-09-20T09:55:55Z</time>
      </trkpt>
      <trkpt lat="43.83913" lon="7.01973">
        <ele>829.7</ele>
        <time>2021-09-20T09:55:56Z</time>
      </trkpt>
      <trkpt lat="43.83912" lon="7.0198">
        <ele>829.7</ele>
        <time>2021-09-20T09:55:57Z</time>
      </trkpt>
      <trkpt lat="43.83911" lon="7.01998">
        <ele>829.7</ele>
        <time>2021-09-20T09:55:59Z</time>
      </trkpt>
      <trkpt lat="43.8391" lon="7.02012">
        <ele>829.7</ele>
        <time>2021-09-20T09:56:01Z</time>
      </trkpt>
      <trkpt lat="43.83909" lon="7.02019">
        <ele>829.7</ele>
        <time>2021-09-20T09:56:03Z</time>
      </trkpt>
      <trkpt lat="43.83908" lon="7.02025">
        <ele>829.7</ele>
        <time>2021-09-20T09:56:04Z</time>
      </trkpt>
      <trkpt lat="43.83907" lon="7.02031">
        <ele>829.7</ele>
        <time>2021-09-20T09:56:05Z</time>
      </trkpt>
      <trkpt lat="43.83907" lon="7.02038">
        <ele>829.7</ele>
        <time>2021-09-20T09:56:06Z</time>
      </trkpt>
      <trkpt lat="43.83909" lon="7.02049">
        <ele>829.7</ele>
        <time>2021-09-20T09:56:08Z</time>
      </trkpt>
      <trkpt lat="43.83909" lon="7.02056">
        <ele>829.7</ele>
        <time>2021-09-20T09:56:10Z</time>
      </trkpt>
      <trkpt lat="43.83909" lon="7.02061">
        <ele>829.7</ele>
        <time>2021-09-20T09:56:11Z</time>
      </trkpt>
      <trkpt lat="43.83909" lon="7.02068">
        <ele>829.7</ele>
        <time>2021-09-20T09:56:12Z</time>
      </trkpt>
      <trkpt lat="43.8391" lon="7.02073">
        <ele>829.7</ele>
        <time>2021-09-20T09:56:14Z</time>
      </trkpt>
      <trkpt lat="43.83909" lon="7.02077">
        <ele>829.7</ele>
        <time>2021-09-20T09:56:15Z</time>
      </trkpt>
      <trkpt lat="43.8391" lon="7.02081">
        <ele>829.7</ele>
        <time>2021-09-20T09:56:16Z</time>
      </trkpt>
      <trkpt lat="43.83911" lon="7.02084">
        <ele>829.7</ele>
        <time>2021-09-20T09:56:18Z</time>
      </trkpt>
      <trkpt lat="43.83912" lon="7.02086">
        <ele>829.7</ele>
        <time>2021-09-20T09:56:19Z</time>
      </trkpt>
      <trkpt lat="43.83912" lon="7.02084">
        <ele>829.7</ele>
        <time>2021-09-20T09:56:21Z</time>
      </trkpt>
      <trkpt lat="43.83912" lon="7.02084">
        <ele>829.7</ele>
        <time>2021-09-20T09:56:22Z</time>
      </trkpt>
      <trkpt lat="43.83912" lon="7.02084">
        <ele>829.7</ele>
        <time>2021-09-20T09:56:24Z</time>
      </trkpt>
      <trkpt lat="43.83912" lon="7.02084">
        <ele>829.7</ele>
        <time>2021-09-20T09:56:26Z</time>
      </trkpt>
      <trkpt lat="43.83913" lon="7.02084">
        <ele>829.7</ele>
        <time>2021-09-20T09:56:27Z</time>
      </trkpt>
      <trkpt lat="43.83913" lon="7.02085">
        <ele>829.7</ele>
        <time>2021-09-20T09:56:28Z</time>
      </trkpt>
      <trkpt lat="43.83912" lon="7.02084">
        <ele>829.7</ele>
        <time>2021-09-20T09:56:29Z</time>
      </trkpt>
      <trkpt lat="43.83914" lon="7.02062">
        <ele>829.7</ele>
        <time>2021-09-20T09:56:39Z</time>
      </trkpt>
      <trkpt lat="43.83914" lon="7.0206">
        <ele>829.7</ele>
        <time>2021-09-20T09:56:40Z</time>
      </trkpt>
      <trkpt lat="43.83915" lon="7.02059">
        <ele>829.7</ele>
        <time>2021-09-20T09:56:41Z</time>
      </trkpt>
      <trkpt lat="43.83916" lon="7.02058">
        <ele>829.7</ele>
        <time>2021-09-20T09:56:43Z</time>
      </trkpt>
      <trkpt lat="43.8392" lon="7.02053">
        <ele>829.7</ele>
        <time>2021-09-20T09:56:45Z</time>
      </trkpt>
      <trkpt lat="43.83918" lon="7.02054">
        <ele>829.7</ele>
        <time>2021-09-20T09:56:47Z</time>
      </trkpt>
      <trkpt lat="43.83918" lon="7.02053">
        <ele>829.7</ele>
        <time>2021-09-20T09:56:49Z</time>
      </trkpt>
      <trkpt lat="43.83918" lon="7.02052">
        <ele>829.7</ele>
        <time>2021-09-20T09:56:51Z</time>
      </trkpt>
      <trkpt lat="43.83919" lon="7.02052">
        <ele>829.7</ele>
        <time>2021-09-20T09:56:52Z</time>
      </trkpt>
      <trkpt lat="43.83919" lon="7.02054">
        <ele>829.7</ele>
        <time>2021-09-20T09:56:54Z</time>
      </trkpt>
      <trkpt lat="43.83919" lon="7.02056">
        <ele>829.7</ele>
        <time>2021-09-20T09:56:55Z</time>
      </trkpt>
      <trkpt lat="43.83919" lon="7.02057">
        <ele>829.7</ele>
        <time>2021-09-20T09:56:56Z</time>
      </trkpt>
      <trkpt lat="43.83919" lon="7.02059">
        <ele>829.7</ele>
        <time>2021-09-20T09:56:57Z</time>
      </trkpt>
      <trkpt lat="43.83919" lon="7.02061">
        <ele>829.7</ele>
        <time>2021-09-20T09:56:58Z</time>
      </trkpt>
      <trkpt lat="43.83919" lon="7.02062">
        <ele>829.7</ele>
        <time>2021-09-20T09:56:59Z</time>
      </trkpt>
      <trkpt lat="43.83919" lon="7.02079">
        <ele>829.8</ele>
        <time>2021-09-20T09:57:00Z</time>
      </trkpt>
      <trkpt lat="43.83918" lon="7.0209">
        <ele>829.8</ele>
        <time>2021-09-20T09:57:02Z</time>
      </trkpt>
      <trkpt lat="43.83917" lon="7.02101">
        <ele>829.8</ele>
        <time>2021-09-20T09:57:04Z</time>
      </trkpt>
      <trkpt lat="43.83914" lon="7.0211">
        <ele>829.8</ele>
        <time>2021-09-20T09:57:05Z</time>
      </trkpt>
      <trkpt lat="43.83909" lon="7.0212">
        <ele>829.8</ele>
        <time>2021-09-20T09:57:07Z</time>
      </trkpt>
      <trkpt lat="43.83906" lon="7.02128">
        <ele>829.8</ele>
        <time>2021-09-20T09:57:08Z</time>
      </trkpt>
      <trkpt lat="43.83901" lon="7.02138">
        <ele>829.9</ele>
        <time>2021-09-20T09:57:09Z</time>
      </trkpt>
      <trkpt lat="43.83897" lon="7.02144">
        <ele>829.9</ele>
        <time>2021-09-20T09:57:10Z</time>
      </trkpt>
      <trkpt lat="43.8389" lon="7.02157">
        <ele>829.9</ele>
        <time>2021-09-20T09:57:12Z</time>
      </trkpt>
      <trkpt lat="43.83888" lon="7.02165">
        <ele>829.9</ele>
        <time>2021-09-20T09:57:14Z</time>
      </trkpt>
      <trkpt lat="43.83886" lon="7.02174">
        <ele>829.9</ele>
        <time>2021-09-20T09:57:15Z</time>
      </trkpt>
      <trkpt lat="43.83884" lon="7.0218">
        <ele>829.9</ele>
        <time>2021-09-20T09:57:17Z</time>
      </trkpt>
      <trkpt lat="43.83882" lon="7.02187">
        <ele>829.9</ele>
        <time>2021-09-20T09:57:18Z</time>
      </trkpt>
      <trkpt lat="43.83881" lon="7.02194">
        <ele>830</ele>
        <time>2021-09-20T09:57:19Z</time>
      </trkpt>
      <trkpt lat="43.83879" lon="7.02206">
        <ele>830</ele>
        <time>2021-09-20T09:57:21Z</time>
      </trkpt>
      <trkpt lat="43.83878" lon="7.02212">
        <ele>830</ele>
        <time>2021-09-20T09:57:22Z</time>
      </trkpt>
      <trkpt lat="43.83878" lon="7.02221">
        <ele>830</ele>
        <time>2021-09-20T09:57:24Z</time>
      </trkpt>
      <trkpt lat="43.83876" lon="7.02229">
        <ele>830</ele>
        <time>2021-09-20T09:57:25Z</time>
      </trkpt>
      <trkpt lat="43.83876" lon="7.02235">
        <ele>830</ele>
        <time>2021-09-20T09:57:26Z</time>
      </trkpt>
      <trkpt lat="43.83876" lon="7.02241">
        <ele>830</ele>
        <time>2021-09-20T09:57:27Z</time>
      </trkpt>
      <trkpt lat="43.83877" lon="7.02254">
        <ele>830</ele>
        <time>2021-09-20T09:57:29Z</time>
      </trkpt>
      <trkpt lat="43.83877" lon="7.02264">
        <ele>830</ele>
        <time>2021-09-20T09:57:31Z</time>
      </trkpt>
      <trkpt lat="43.83875" lon="7.02276">
        <ele>830.1</ele>
        <time>2021-09-20T09:57:32Z</time>
      </trkpt>
      <trkpt lat="43.83874" lon="7.02291">
        <ele>830.1</ele>
        <time>2021-09-20T09:57:34Z</time>
      </trkpt>
      <trkpt lat="43.83873" lon="7.02298">
        <ele>830.1</ele>
        <time>2021-09-20T09:57:35Z</time>
      </trkpt>
      <trkpt lat="43.83869" lon="7.02304">
        <ele>830.1</ele>
        <time>2021-09-20T09:57:37Z</time>
      </trkpt>
      <trkpt lat="43.83867" lon="7.0231">
        <ele>830</ele>
        <time>2021-09-20T09:57:38Z</time>
      </trkpt>
      <trkpt lat="43.83867" lon="7.02316">
        <ele>830</ele>
        <time>2021-09-20T09:57:39Z</time>
      </trkpt>
      <trkpt lat="43.83865" lon="7.02322">
        <ele>830</ele>
        <time>2021-09-20T09:57:40Z</time>
      </trkpt>
      <trkpt lat="43.83863" lon="7.02329">
        <ele>830</ele>
        <time>2021-09-20T09:57:41Z</time>
      </trkpt>
      <trkpt lat="43.8386" lon="7.02336">
        <ele>830</ele>
        <time>2021-09-20T09:57:43Z</time>
      </trkpt>
      <trkpt lat="43.83857" lon="7.02341">
        <ele>830</ele>
        <time>2021-09-20T09:57:44Z</time>
      </trkpt>
      <trkpt lat="43.83852" lon="7.02349">
        <ele>830</ele>
        <time>2021-09-20T09:57:45Z</time>
      </trkpt>
      <trkpt lat="43.8385" lon="7.02354">
        <ele>830</ele>
        <time>2021-09-20T09:57:46Z</time>
      </trkpt>
      <trkpt lat="43.83846" lon="7.02363">
        <ele>830</ele>
        <time>2021-09-20T09:57:48Z</time>
      </trkpt>
      <trkpt lat="43.83844" lon="7.0237">
        <ele>830</ele>
        <time>2021-09-20T09:57:49Z</time>
      </trkpt>
      <trkpt lat="43.83842" lon="7.02375">
        <ele>830</ele>
        <time>2021-09-20T09:57:50Z</time>
      </trkpt>
      <trkpt lat="43.8384" lon="7.02385">
        <ele>830</ele>
        <time>2021-09-20T09:57:52Z</time>
      </trkpt>
      <trkpt lat="43.83839" lon="7.0239">
        <ele>830</ele>
        <time>2021-09-20T09:57:53Z</time>
      </trkpt>
      <trkpt lat="43.83838" lon="7.02395">
        <ele>830</ele>
        <time>2021-09-20T09:57:54Z</time>
      </trkpt>
      <trkpt lat="43.83838" lon="7.02404">
        <ele>830.1</ele>
        <time>2021-09-20T09:57:56Z</time>
      </trkpt>
      <trkpt lat="43.83837" lon="7.0241">
        <ele>830.1</ele>
        <time>2021-09-20T09:57:57Z</time>
      </trkpt>
      <trkpt lat="43.83836" lon="7.02416">
        <ele>830.1</ele>
        <time>2021-09-20T09:57:58Z</time>
      </trkpt>
      <trkpt lat="43.83836" lon="7.02423">
        <ele>830.1</ele>
        <time>2021-09-20T09:58:00Z</time>
      </trkpt>
      <trkpt lat="43.83835" lon="7.02428">
        <ele>830.2</ele>
        <time>2021-09-20T09:58:01Z</time>
      </trkpt>
      <trkpt lat="43.83835" lon="7.02432">
        <ele>830.2</ele>
        <time>2021-09-20T09:58:02Z</time>
      </trkpt>
      <trkpt lat="43.83835" lon="7.02437">
        <ele>830.3</ele>
        <time>2021-09-20T09:58:03Z</time>
      </trkpt>
      <trkpt lat="43.83835" lon="7.02442">
        <ele>830.3</ele>
        <time>2021-09-20T09:58:04Z</time>
      </trkpt>
      <trkpt lat="43.83837" lon="7.02448">
        <ele>830.4</ele>
        <time>2021-09-20T09:58:05Z</time>
      </trkpt>
      <trkpt lat="43.83837" lon="7.02451">
        <ele>830.5</ele>
        <time>2021-09-20T09:58:06Z</time>
      </trkpt>
      <trkpt lat="43.83838" lon="7.02456">
        <ele>830.6</ele>
        <time>2021-09-20T09:58:08Z</time>
      </trkpt>
      <trkpt lat="43.8384" lon="7.02462">
        <ele>827.8</ele>
        <time>2021-09-20T09:58:09Z</time>
      </trkpt>
      <trkpt lat="43.83841" lon="7.02467">
        <ele>825.7</ele>
        <time>2021-09-20T09:58:10Z</time>
      </trkpt>
      <trkpt lat="43.83842" lon="7.02472">
        <ele>823.7</ele>
        <time>2021-09-20T09:58:12Z</time>
      </trkpt>
      <trkpt lat="43.83842" lon="7.02477">
        <ele>821.6</ele>
        <time>2021-09-20T09:58:13Z</time>
      </trkpt>
      <trkpt lat="43.83842" lon="7.02481">
        <ele>819.8</ele>
        <time>2021-09-20T09:58:14Z</time>
      </trkpt>
      <trkpt lat="43.83842" lon="7.02487">
        <ele>817.4</ele>
        <time>2021-09-20T09:58:16Z</time>
      </trkpt>
      <trkpt lat="43.83843" lon="7.02492">
        <ele>815.6</ele>
        <time>2021-09-20T09:58:19Z</time>
      </trkpt>
      <trkpt lat="43.83843" lon="7.02496">
        <ele>816</ele>
        <time>2021-09-20T09:58:20Z</time>
      </trkpt>
      <trkpt lat="43.83844" lon="7.0251">
        <ele>817.3</ele>
        <time>2021-09-20T09:58:22Z</time>
      </trkpt>
      <trkpt lat="43.83844" lon="7.02514">
        <ele>817.6</ele>
        <time>2021-09-20T09:58:23Z</time>
      </trkpt>
      <trkpt lat="43.83856" lon="7.02535">
        <ele>819.7</ele>
        <time>2021-09-20T09:58:25Z</time>
      </trkpt>
      <trkpt lat="43.83868" lon="7.02557">
        <ele>821.6</ele>
        <time>2021-09-20T09:58:26Z</time>
      </trkpt>
      <trkpt lat="43.83847" lon="7.02646">
        <ele>828.5</ele>
        <time>2021-09-20T09:58:38Z</time>
      </trkpt>
      <trkpt lat="43.83836" lon="7.02654">
        <ele>829.8</ele>
        <time>2021-09-20T09:58:39Z</time>
      </trkpt>
      <trkpt lat="43.83831" lon="7.02658">
        <ele>830.4</ele>
        <time>2021-09-20T09:58:41Z</time>
      </trkpt>
      <trkpt lat="43.83826" lon="7.02663">
        <ele>830.9</ele>
        <time>2021-09-20T09:58:42Z</time>
      </trkpt>
      <trkpt lat="43.8382" lon="7.02671">
        <ele>831.8</ele>
        <time>2021-09-20T09:58:44Z</time>
      </trkpt>
      <trkpt lat="43.83816" lon="7.02678">
        <ele>832.5</ele>
        <time>2021-09-20T09:58:45Z</time>
      </trkpt>
      <trkpt lat="43.83812" lon="7.02686">
        <ele>833.2</ele>
        <time>2021-09-20T09:58:46Z</time>
      </trkpt>
      <trkpt lat="43.83809" lon="7.02694">
        <ele>833.8</ele>
        <time>2021-09-20T09:58:48Z</time>
      </trkpt>
      <trkpt lat="43.83805" lon="7.02703">
        <ele>834.6</ele>
        <time>2021-09-20T09:58:49Z</time>
      </trkpt>
      <trkpt lat="43.83801" lon="7.02707">
        <ele>835</ele>
        <time>2021-09-20T09:58:50Z</time>
      </trkpt>
      <trkpt lat="43.83792" lon="7.0271">
        <ele>835.5</ele>
        <time>2021-09-20T09:58:52Z</time>
      </trkpt>
      <trkpt lat="43.83786" lon="7.02716">
        <ele>835.3</ele>
        <time>2021-09-20T09:58:54Z</time>
      </trkpt>
      <trkpt lat="43.83783" lon="7.02719">
        <ele>835.3</ele>
        <time>2021-09-20T09:58:55Z</time>
      </trkpt>
      <trkpt lat="43.83782" lon="7.02723">
        <ele>835.2</ele>
        <time>2021-09-20T09:58:56Z</time>
      </trkpt>
      <trkpt lat="43.83778" lon="7.02731">
        <ele>835.1</ele>
        <time>2021-09-20T09:58:58Z</time>
      </trkpt>
      <trkpt lat="43.83776" lon="7.02736">
        <ele>835</ele>
        <time>2021-09-20T09:58:59Z</time>
      </trkpt>
      <trkpt lat="43.83773" lon="7.02741">
        <ele>834.9</ele>
        <time>2021-09-20T09:59:00Z</time>
      </trkpt>
      <trkpt lat="43.83769" lon="7.02748">
        <ele>834.8</ele>
        <time>2021-09-20T09:59:02Z</time>
      </trkpt>
      <trkpt lat="43.83766" lon="7.02756">
        <ele>834.7</ele>
        <time>2021-09-20T09:59:03Z</time>
      </trkpt>
      <trkpt lat="43.83765" lon="7.02761">
        <ele>834.6</ele>
        <time>2021-09-20T09:59:05Z</time>
      </trkpt>
      <trkpt lat="43.83763" lon="7.02772">
        <ele>834.4</ele>
        <time>2021-09-20T09:59:07Z</time>
      </trkpt>
      <trkpt lat="43.83762" lon="7.0278">
        <ele>834.2</ele>
        <time>2021-09-20T09:59:08Z</time>
      </trkpt>
      <trkpt lat="43.83762" lon="7.02788">
        <ele>834.1</ele>
        <time>2021-09-20T09:59:09Z</time>
      </trkpt>
      <trkpt lat="43.83763" lon="7.02799">
        <ele>834</ele>
        <time>2021-09-20T09:59:11Z</time>
      </trkpt>
      <trkpt lat="43.83766" lon="7.02815">
        <ele>833.8</ele>
        <time>2021-09-20T09:59:13Z</time>
      </trkpt>
      <trkpt lat="43.83772" lon="7.02831">
        <ele>833.6</ele>
        <time>2021-09-20T09:59:14Z</time>
      </trkpt>
      <trkpt lat="43.8378" lon="7.02845">
        <ele>833.4</ele>
        <time>2021-09-20T09:59:16Z</time>
      </trkpt>
      <trkpt lat="43.83784" lon="7.02851">
        <ele>833.2</ele>
        <time>2021-09-20T09:59:17Z</time>
      </trkpt>
      <trkpt lat="43.83789" lon="7.02858">
        <ele>832.9</ele>
        <time>2021-09-20T09:59:19Z</time>
      </trkpt>
      <trkpt lat="43.83792" lon="7.02862">
        <ele>832.9</ele>
        <time>2021-09-20T09:59:20Z</time>
      </trkpt>
      <trkpt lat="43.83795" lon="7.02866">
        <ele>832.8</ele>
        <time>2021-09-20T09:59:22Z</time>
      </trkpt>
      <trkpt lat="43.83796" lon="7.0287">
        <ele>832.8</ele>
        <time>2021-09-20T09:59:23Z</time>
      </trkpt>
      <trkpt lat="43.83797" lon="7.02875">
        <ele>832.8</ele>
        <time>2021-09-20T09:59:25Z</time>
      </trkpt>
      <trkpt lat="43.83796" lon="7.02877">
        <ele>832.8</ele>
        <time>2021-09-20T09:59:26Z</time>
      </trkpt>
      <trkpt lat="43.83795" lon="7.02883">
        <ele>832.7</ele>
        <time>2021-09-20T09:59:27Z</time>
      </trkpt>
      <trkpt lat="43.83794" lon="7.02892">
        <ele>832.6</ele>
        <time>2021-09-20T09:59:29Z</time>
      </trkpt>
      <trkpt lat="43.83793" lon="7.02897">
        <ele>832.5</ele>
        <time>2021-09-20T09:59:30Z</time>
      </trkpt>
      <trkpt lat="43.83791" lon="7.02904">
        <ele>832.4</ele>
        <time>2021-09-20T09:59:31Z</time>
      </trkpt>
      <trkpt lat="43.8379" lon="7.0291">
        <ele>832.4</ele>
        <time>2021-09-20T09:59:32Z</time>
      </trkpt>
      <trkpt lat="43.8379" lon="7.02915">
        <ele>832.3</ele>
        <time>2021-09-20T09:59:33Z</time>
      </trkpt>
      <trkpt lat="43.83788" lon="7.0292">
        <ele>832.2</ele>
        <time>2021-09-20T09:59:34Z</time>
      </trkpt>
      <trkpt lat="43.83786" lon="7.02926">
        <ele>832.1</ele>
        <time>2021-09-20T09:59:36Z</time>
      </trkpt>
      <trkpt lat="43.83785" lon="7.0293">
        <ele>832</ele>
        <time>2021-09-20T09:59:37Z</time>
      </trkpt>
      <trkpt lat="43.83782" lon="7.02936">
        <ele>831.9</ele>
        <time>2021-09-20T09:59:38Z</time>
      </trkpt>
      <trkpt lat="43.83779" lon="7.0294">
        <ele>831.9</ele>
        <time>2021-09-20T09:59:39Z</time>
      </trkpt>
      <trkpt lat="43.83775" lon="7.02949">
        <ele>831.7</ele>
        <time>2021-09-20T09:59:42Z</time>
      </trkpt>
      <trkpt lat="43.83772" lon="7.02953">
        <ele>831.6</ele>
        <time>2021-09-20T09:59:43Z</time>
      </trkpt>
      <trkpt lat="43.83765" lon="7.02959">
        <ele>831.4</ele>
        <time>2021-09-20T09:59:45Z</time>
      </trkpt>
      <trkpt lat="43.83759" lon="7.02964">
        <ele>831.2</ele>
        <time>2021-09-20T09:59:46Z</time>
      </trkpt>
      <trkpt lat="43.83758" lon="7.02966">
        <ele>831.2</ele>
        <time>2021-09-20T09:59:48Z</time>
      </trkpt>
      <trkpt lat="43.83757" lon="7.02967">
        <ele>831.2</ele>
        <time>2021-09-20T09:59:49Z</time>
      </trkpt>
      <trkpt lat="43.83756" lon="7.02969">
        <ele>831.1</ele>
        <time>2021-09-20T09:59:50Z</time>
      </trkpt>
      <trkpt lat="43.83755" lon="7.02976">
        <ele>831</ele>
        <time>2021-09-20T09:59:51Z</time>
      </trkpt>
      <trkpt lat="43.83754" lon="7.02983">
        <ele>830.9</ele>
        <time>2021-09-20T09:59:53Z</time>
      </trkpt>
      <trkpt lat="43.83752" lon="7.02994">
        <ele>830.7</ele>
        <time>2021-09-20T09:59:55Z</time>
      </trkpt>
      <trkpt lat="43.83751" lon="7.03004">
        <ele>830.5</ele>
        <time>2021-09-20T09:59:57Z</time>
      </trkpt>
      <trkpt lat="43.83751" lon="7.03016">
        <ele>830.3</ele>
        <time>2021-09-20T09:59:58Z</time>
      </trkpt>
      <trkpt lat="43.83752" lon="7.03031">
        <ele>830.1</ele>
        <time>2021-09-20T10:00:00Z</time>
      </trkpt>
      <trkpt lat="43.83753" lon="7.03042">
        <ele>829.9</ele>
        <time>2021-09-20T10:00:01Z</time>
      </trkpt>
      <trkpt lat="43.83755" lon="7.03051">
        <ele>829.8</ele>
        <time>2021-09-20T10:00:03Z</time>
      </trkpt>
      <trkpt lat="43.83754" lon="7.03058">
        <ele>829.7</ele>
        <time>2021-09-20T10:00:04Z</time>
      </trkpt>
      <trkpt lat="43.83754" lon="7.03067">
        <ele>829.6</ele>
        <time>2021-09-20T10:00:06Z</time>
      </trkpt>
      <trkpt lat="43.83754" lon="7.03077">
        <ele>829.4</ele>
        <time>2021-09-20T10:00:07Z</time>
      </trkpt>
      <trkpt lat="43.83757" lon="7.03087">
        <ele>829.3</ele>
        <time>2021-09-20T10:00:09Z</time>
      </trkpt>
      <trkpt lat="43.83758" lon="7.03092">
        <ele>829.2</ele>
        <time>2021-09-20T10:00:10Z</time>
      </trkpt>
      <trkpt lat="43.8376" lon="7.03098">
        <ele>829.1</ele>
        <time>2021-09-20T10:00:11Z</time>
      </trkpt>
      <trkpt lat="43.83762" lon="7.03103">
        <ele>829</ele>
        <time>2021-09-20T10:00:12Z</time>
      </trkpt>
      <trkpt lat="43.83763" lon="7.03112">
        <ele>828.9</ele>
        <time>2021-09-20T10:00:13Z</time>
      </trkpt>
      <trkpt lat="43.83764" lon="7.03116">
        <ele>828.9</ele>
        <time>2021-09-20T10:00:14Z</time>
      </trkpt>
      <trkpt lat="43.83765" lon="7.03122">
        <ele>828.8</ele>
        <time>2021-09-20T10:00:16Z</time>
      </trkpt>
      <trkpt lat="43.83764" lon="7.03127">
        <ele>828.7</ele>
        <time>2021-09-20T10:00:18Z</time>
      </trkpt>
      <trkpt lat="43.83764" lon="7.03129">
        <ele>828.7</ele>
        <time>2021-09-20T10:00:19Z</time>
      </trkpt>
      <trkpt lat="43.83733" lon="7.03176">
        <ele>827.7</ele>
        <time>2021-09-20T10:00:31Z</time>
      </trkpt>
      <trkpt lat="43.8373" lon="7.03183">
        <ele>827.5</ele>
        <time>2021-09-20T10:00:32Z</time>
      </trkpt>
      <trkpt lat="43.83727" lon="7.03197">
        <ele>827.3</ele>
        <time>2021-09-20T10:00:34Z</time>
      </trkpt>
      <trkpt lat="43.83724" lon="7.03207">
        <ele>827.1</ele>
        <time>2021-09-20T10:00:36Z</time>
      </trkpt>
      <trkpt lat="43.83721" lon="7.03219">
        <ele>826.9</ele>
        <time>2021-09-20T10:00:38Z</time>
      </trkpt>
      <trkpt lat="43.83719" lon="7.03229">
        <ele>826.7</ele>
        <time>2021-09-20T10:00:40Z</time>
      </trkpt>
      <trkpt lat="43.83719" lon="7.03236">
        <ele>826.6</ele>
        <time>2021-09-20T10:00:41Z</time>
      </trkpt>
      <trkpt lat="43.8372" lon="7.0325">
        <ele>826.3</ele>
        <time>2021-09-20T10:00:43Z</time>
      </trkpt>
      <trkpt lat="43.83722" lon="7.03264">
        <ele>826</ele>
        <time>2021-09-20T10:00:45Z</time>
      </trkpt>
      <trkpt lat="43.83722" lon="7.03272">
        <ele>825.9</ele>
        <time>2021-09-20T10:00:46Z</time>
      </trkpt>
      <trkpt lat="43.83723" lon="7.03281">
        <ele>825.8</ele>
        <time>2021-09-20T10:00:47Z</time>
      </trkpt>
      <trkpt lat="43.83724" lon="7.03289">
        <ele>825.6</ele>
        <time>2021-09-20T10:00:48Z</time>
      </trkpt>
      <trkpt lat="43.83725" lon="7.03296">
        <ele>825.5</ele>
        <time>2021-09-20T10:00:49Z</time>
      </trkpt>
      <trkpt lat="43.83726" lon="7.03304">
        <ele>825.4</ele>
        <time>2021-09-20T10:00:50Z</time>
      </trkpt>
      <trkpt lat="43.83727" lon="7.0331">
        <ele>825.3</ele>
        <time>2021-09-20T10:00:52Z</time>
      </trkpt>
      <trkpt lat="43.83727" lon="7.03316">
        <ele>825.3</ele>
        <time>2021-09-20T10:00:53Z</time>
      </trkpt>
      <trkpt lat="43.83727" lon="7.03322">
        <ele>825.2</ele>
        <time>2021-09-20T10:00:55Z</time>
      </trkpt>
      <trkpt lat="43.83728" lon="7.03331">
        <ele>825.1</ele>
        <time>2021-09-20T10:00:57Z</time>
      </trkpt>
      <trkpt lat="43.83729" lon="7.03334">
        <ele>825.1</ele>
        <time>2021-09-20T10:00:58Z</time>
      </trkpt>
      <trkpt lat="43.8373" lon="7.0334">
        <ele>825.1</ele>
        <time>2021-09-20T10:01:00Z</time>
      </trkpt>
      <trkpt lat="43.83731" lon="7.03345">
        <ele>825</ele>
        <time>2021-09-20T10:01:01Z</time>
      </trkpt>
      <trkpt lat="43.83732" lon="7.03349">
        <ele>825</ele>
        <time>2021-09-20T10:01:02Z</time>
      </trkpt>
      <trkpt lat="43.83732" lon="7.03351">
        <ele>825</ele>
        <time>2021-09-20T10:01:03Z</time>
      </trkpt>
      <trkpt lat="43.83732" lon="7.03355">
        <ele>824.9</ele>
        <time>2021-09-20T10:01:05Z</time>
      </trkpt>
      <trkpt lat="43.83733" lon="7.03359">
        <ele>824.9</ele>
        <time>2021-09-20T10:01:06Z</time>
      </trkpt>
      <trkpt lat="43.83734" lon="7.03366">
        <ele>824.8</ele>
        <time>2021-09-20T10:01:08Z</time>
      </trkpt>
      <trkpt lat="43.83735" lon="7.03376">
        <ele>824.6</ele>
        <time>2021-09-20T10:01:09Z</time>
      </trkpt>
      <trkpt lat="43.83738" lon="7.03395">
        <ele>824.3</ele>
        <time>2021-09-20T10:01:11Z</time>
      </trkpt>
      <trkpt lat="43.83738" lon="7.03401">
        <ele>824.3</ele>
        <time>2021-09-20T10:01:12Z</time>
      </trkpt>
      <trkpt lat="43.83738" lon="7.03401">
        <ele>824.3</ele>
        <time>2021-09-20T10:01:12Z</time>
      </trkpt>
      <trkpt lat="43.83738" lon="7.03418">
        <ele>824</ele>
        <time>2021-09-20T10:01:14Z</time>
      </trkpt>
      <trkpt lat="43.8374" lon="7.03434">
        <ele>823.8</ele>
        <time>2021-09-20T10:01:15Z</time>
      </trkpt>
      <trkpt lat="43.83743" lon="7.0344">
        <ele>823.6</ele>
        <time>2021-09-20T10:01:17Z</time>
      </trkpt>
      <trkpt lat="43.83745" lon="7.0345">
        <ele>823.5</ele>
        <time>2021-09-20T10:01:18Z</time>
      </trkpt>
      <trkpt lat="43.83747" lon="7.0346">
        <ele>823.3</ele>
        <time>2021-09-20T10:01:20Z</time>
      </trkpt>
      <trkpt lat="43.83749" lon="7.03467">
        <ele>823.2</ele>
        <time>2021-09-20T10:01:21Z</time>
      </trkpt>
      <trkpt lat="43.83749" lon="7.03472">
        <ele>823.1</ele>
        <time>2021-09-20T10:01:23Z</time>
      </trkpt>
      <trkpt lat="43.83749" lon="7.03475">
        <ele>823.1</ele>
        <time>2021-09-20T10:01:24Z</time>
      </trkpt>
      <trkpt lat="43.83749" lon="7.03481">
        <ele>823</ele>
        <time>2021-09-20T10:01:26Z</time>
      </trkpt>
      <trkpt lat="43.83748" lon="7.03484">
        <ele>823</ele>
        <time>2021-09-20T10:01:28Z</time>
      </trkpt>
      <trkpt lat="43.83739" lon="7.03837">
        <ele>825.1</ele>
        <time>2021-09-20T10:02:30Z</time>
      </trkpt>
      <trkpt lat="43.83738" lon="7.03849">
        <ele>829.2</ele>
        <time>2021-09-20T10:02:31Z</time>
      </trkpt>
      <trkpt lat="43.83738" lon="7.03858">
        <ele>829.6</ele>
        <time>2021-09-20T10:02:32Z</time>
      </trkpt>
      <trkpt lat="43.83739" lon="7.03866">
        <ele>828.9</ele>
        <time>2021-09-20T10:02:33Z</time>
      </trkpt>
      <trkpt lat="43.8374" lon="7.03875">
        <ele>828</ele>
        <time>2021-09-20T10:02:34Z</time>
      </trkpt>
      <trkpt lat="43.8374" lon="7.03883">
        <ele>827.2</ele>
        <time>2021-09-20T10:02:35Z</time>
      </trkpt>
      <trkpt lat="43.83741" lon="7.03894">
        <ele>826.2</ele>
        <time>2021-09-20T10:02:36Z</time>
      </trkpt>
      <trkpt lat="43.83741" lon="7.03902">
        <ele>825.5</ele>
        <time>2021-09-20T10:02:38Z</time>
      </trkpt>
      <trkpt lat="43.8374" lon="7.03913">
        <ele>824.5</ele>
        <time>2021-09-20T10:02:39Z</time>
      </trkpt>
      <trkpt lat="43.8374" lon="7.03923">
        <ele>823.5</ele>
        <time>2021-09-20T10:02:41Z</time>
      </trkpt>
      <trkpt lat="43.8374" lon="7.0393">
        <ele>822.9</ele>
        <time>2021-09-20T10:02:42Z</time>
      </trkpt>
      <trkpt lat="43.8374" lon="7.03937">
        <ele>822.3</ele>
        <time>2021-09-20T10:02:43Z</time>
      </trkpt>
      <trkpt lat="43.83741" lon="7.03944">
        <ele>821.6</ele>
        <time>2021-09-20T10:02:44Z</time>
      </trkpt>
      <trkpt lat="43.83741" lon="7.03954">
        <ele>820.7</ele>
        <time>2021-09-20T10:02:45Z</time>
      </trkpt>
      <trkpt lat="43.8374" lon="7.03961">
        <ele>820.1</ele>
        <time>2021-09-20T10:02:46Z</time>
      </trkpt>
      <trkpt lat="43.83739" lon="7.03972">
        <ele>819</ele>
        <time>2021-09-20T10:02:48Z</time>
      </trkpt>
      <trkpt lat="43.83738" lon="7.0398">
        <ele>818.4</ele>
        <time>2021-09-20T10:02:50Z</time>
      </trkpt>
      <trkpt lat="43.83737" lon="7.03989">
        <ele>817.5</ele>
        <time>2021-09-20T10:02:51Z</time>
      </trkpt>
      <trkpt lat="43.83737" lon="7.03995">
        <ele>817</ele>
        <time>2021-09-20T10:02:52Z</time>
      </trkpt>
      <trkpt lat="43.83737" lon="7.04002">
        <ele>816.4</ele>
        <time>2021-09-20T10:02:53Z</time>
      </trkpt>
      <trkpt lat="43.83738" lon="7.04008">
        <ele>816.4</ele>
        <time>2021-09-20T10:02:54Z</time>
      </trkpt>
      <trkpt lat="43.83738" lon="7.04015">
        <ele>816.5</ele>
        <time>2021-09-20T10:02:55Z</time>
      </trkpt>
      <trkpt lat="43.83737" lon="7.04021">
        <ele>816.6</ele>
        <time>2021-09-20T10:02:56Z</time>
      </trkpt>
      <trkpt lat="43.83736" lon="7.04027">
        <ele>816.6</ele>
        <time>2021-09-20T10:02:57Z</time>
      </trkpt>
      <trkpt lat="43.83735" lon="7.04033">
        <ele>816.7</ele>
        <time>2021-09-20T10:02:58Z</time>
      </trkpt>
      <trkpt lat="43.83734" lon="7.04038">
        <ele>816.7</ele>
        <time>2021-09-20T10:03:00Z</time>
      </trkpt>
      <trkpt lat="43.83733" lon="7.04046">
        <ele>816.7</ele>
        <time>2021-09-20T10:03:01Z</time>
      </trkpt>
      <trkpt lat="43.83733" lon="7.04054">
        <ele>816.7</ele>
        <time>2021-09-20T10:03:02Z</time>
      </trkpt>
      <trkpt lat="43.83733" lon="7.04063">
        <ele>816.8</ele>
        <time>2021-09-20T10:03:04Z</time>
      </trkpt>
      <trkpt lat="43.83733" lon="7.04072">
        <ele>816.8</ele>
        <time>2021-09-20T10:03:05Z</time>
      </trkpt>
      <trkpt lat="43.83732" lon="7.04079">
        <ele>816.9</ele>
        <time>2021-09-20T10:03:06Z</time>
      </trkpt>
      <trkpt lat="43.83731" lon="7.04087">
        <ele>817</ele>
        <time>2021-09-20T10:03:08Z</time>
      </trkpt>
      <trkpt lat="43.8373" lon="7.04093">
        <ele>817</ele>
        <time>2021-09-20T10:03:09Z</time>
      </trkpt>
      <trkpt lat="43.83729" lon="7.04102">
        <ele>817.1</ele>
        <time>2021-09-20T10:03:10Z</time>
      </trkpt>
      <trkpt lat="43.83727" lon="7.04111">
        <ele>817.2</ele>
        <time>2021-09-20T10:03:12Z</time>
      </trkpt>
      <trkpt lat="43.83726" lon="7.0412">
        <ele>817.2</ele>
        <time>2021-09-20T10:03:13Z</time>
      </trkpt>
      <trkpt lat="43.83725" lon="7.04127">
        <ele>817.3</ele>
        <time>2021-09-20T10:03:15Z</time>
      </trkpt>
      <trkpt lat="43.83723" lon="7.04136">
        <ele>817.3</ele>
        <time>2021-09-20T10:03:16Z</time>
      </trkpt>
      <trkpt lat="43.83722" lon="7.04141">
        <ele>817.3</ele>
        <time>2021-09-20T10:03:17Z</time>
      </trkpt>
      <trkpt lat="43.83719" lon="7.04147">
        <ele>817.3</ele>
        <time>2021-09-20T10:03:19Z</time>
      </trkpt>
      <trkpt lat="43.83717" lon="7.04153">
        <ele>817.3</ele>
        <time>2021-09-20T10:03:20Z</time>
      </trkpt>
      <trkpt lat="43.83715" lon="7.04159">
        <ele>817.3</ele>
        <time>2021-09-20T10:03:21Z</time>
      </trkpt>
      <trkpt lat="43.83714" lon="7.04165">
        <ele>817.3</ele>
        <time>2021-09-20T10:03:22Z</time>
      </trkpt>
      <trkpt lat="43.83714" lon="7.04171">
        <ele>817.3</ele>
        <time>2021-09-20T10:03:23Z</time>
      </trkpt>
      <trkpt lat="43.83713" lon="7.0418">
        <ele>817.4</ele>
        <time>2021-09-20T10:03:24Z</time>
      </trkpt>
      <trkpt lat="43.83713" lon="7.04186">
        <ele>817.4</ele>
        <time>2021-09-20T10:03:25Z</time>
      </trkpt>
      <trkpt lat="43.83711" lon="7.04193">
        <ele>817.5</ele>
        <time>2021-09-20T10:03:26Z</time>
      </trkpt>
      <trkpt lat="43.83711" lon="7.042">
        <ele>817.5</ele>
        <time>2021-09-20T10:03:28Z</time>
      </trkpt>
      <trkpt lat="43.8371" lon="7.0421">
        <ele>817.6</ele>
        <time>2021-09-20T10:03:29Z</time>
      </trkpt>
      <trkpt lat="43.8371" lon="7.04217">
        <ele>817.6</ele>
        <time>2021-09-20T10:03:31Z</time>
      </trkpt>
      <trkpt lat="43.83709" lon="7.04223">
        <ele>817.6</ele>
        <time>2021-09-20T10:03:32Z</time>
      </trkpt>
      <trkpt lat="43.83708" lon="7.0423">
        <ele>817.7</ele>
        <time>2021-09-20T10:03:33Z</time>
      </trkpt>
      <trkpt lat="43.83708" lon="7.04235">
        <ele>817.7</ele>
        <time>2021-09-20T10:03:34Z</time>
      </trkpt>
      <trkpt lat="43.83707" lon="7.04239">
        <ele>817.8</ele>
        <time>2021-09-20T10:03:35Z</time>
      </trkpt>
      <trkpt lat="43.83705" lon="7.04242">
        <ele>817.8</ele>
        <time>2021-09-20T10:03:36Z</time>
      </trkpt>
      <trkpt lat="43.83702" lon="7.04248">
        <ele>817.9</ele>
        <time>2021-09-20T10:03:37Z</time>
      </trkpt>
      <trkpt lat="43.83699" lon="7.04253">
        <ele>817.9</ele>
        <time>2021-09-20T10:03:38Z</time>
      </trkpt>
      <trkpt lat="43.83695" lon="7.04262">
        <ele>818</ele>
        <time>2021-09-20T10:03:40Z</time>
      </trkpt>
      <trkpt lat="43.83693" lon="7.0427">
        <ele>818</ele>
        <time>2021-09-20T10:03:41Z</time>
      </trkpt>
      <trkpt lat="43.83692" lon="7.04276">
        <ele>818</ele>
        <time>2021-09-20T10:03:42Z</time>
      </trkpt>
      <trkpt lat="43.83695" lon="7.04283">
        <ele>818</ele>
        <time>2021-09-20T10:03:44Z</time>
      </trkpt>
      <trkpt lat="43.83693" lon="7.04289">
        <ele>818</ele>
        <time>2021-09-20T10:03:45Z</time>
      </trkpt>
      <trkpt lat="43.8369" lon="7.04298">
        <ele>818.1</ele>
        <time>2021-09-20T10:03:46Z</time>
      </trkpt>
      <trkpt lat="43.83687" lon="7.04304">
        <ele>818.1</ele>
        <time>2021-09-20T10:03:47Z</time>
      </trkpt>
      <trkpt lat="43.83685" lon="7.04313">
        <ele>818.1</ele>
        <time>2021-09-20T10:03:49Z</time>
      </trkpt>
      <trkpt lat="43.83685" lon="7.04316">
        <ele>818.1</ele>
        <time>2021-09-20T10:03:50Z</time>
      </trkpt>
      <trkpt lat="43.83685" lon="7.04317">
        <ele>818.1</ele>
        <time>2021-09-20T10:03:51Z</time>
      </trkpt>
      <trkpt lat="43.83685" lon="7.04324">
        <ele>818.1</ele>
        <time>2021-09-20T10:03:52Z</time>
      </trkpt>
      <trkpt lat="43.83685" lon="7.04329">
        <ele>818.1</ele>
        <time>2021-09-20T10:03:53Z</time>
      </trkpt>
      <trkpt lat="43.83686" lon="7.04338">
        <ele>818.2</ele>
        <time>2021-09-20T10:03:56Z</time>
      </trkpt>
      <trkpt lat="43.83686" lon="7.04341">
        <ele>818.2</ele>
        <time>2021-09-20T10:03:57Z</time>
      </trkpt>
      <trkpt lat="43.83687" lon="7.04342">
        <ele>818.2</ele>
        <time>2021-09-20T10:03:58Z</time>
      </trkpt>
      <trkpt lat="43.83689" lon="7.04357">
        <ele>818.2</ele>
        <time>2021-09-20T10:03:59Z</time>
      </trkpt>
      <trkpt lat="43.83691" lon="7.04369">
        <ele>818.3</ele>
        <time>2021-09-20T10:04:00Z</time>
      </trkpt>
      <trkpt lat="43.83694" lon="7.04385">
        <ele>818.4</ele>
        <time>2021-09-20T10:04:02Z</time>
      </trkpt>
      <trkpt lat="43.83696" lon="7.04394">
        <ele>818.4</ele>
        <time>2021-09-20T10:04:03Z</time>
      </trkpt>
      <trkpt lat="43.83697" lon="7.04406">
        <ele>818.5</ele>
        <time>2021-09-20T10:04:05Z</time>
      </trkpt>
      <trkpt lat="43.83698" lon="7.04418">
        <ele>818.5</ele>
        <time>2021-09-20T10:04:06Z</time>
      </trkpt>
      <trkpt lat="43.83699" lon="7.04429">
        <ele>818.6</ele>
        <time>2021-09-20T10:04:08Z</time>
      </trkpt>
      <trkpt lat="43.83699" lon="7.04436">
        <ele>818.7</ele>
        <time>2021-09-20T10:04:09Z</time>
      </trkpt>
      <trkpt lat="43.83698" lon="7.0445">
        <ele>818.9</ele>
        <time>2021-09-20T10:04:11Z</time>
      </trkpt>
      <trkpt lat="43.83698" lon="7.04463">
        <ele>819.1</ele>
        <time>2021-09-20T10:04:13Z</time>
      </trkpt>
      <trkpt lat="43.837" lon="7.04474">
        <ele>819.2</ele>
        <time>2021-09-20T10:04:14Z</time>
      </trkpt>
      <trkpt lat="43.837" lon="7.04483">
        <ele>819.2</ele>
        <time>2021-09-20T10:04:16Z</time>
      </trkpt>
      <trkpt lat="43.83701" lon="7.04493">
        <ele>819.3</ele>
        <time>2021-09-20T10:04:18Z</time>
      </trkpt>
      <trkpt lat="43.83701" lon="7.04504">
        <ele>819.4</ele>
        <time>2021-09-20T10:04:19Z</time>
      </trkpt>
      <trkpt lat="43.83701" lon="7.04511">
        <ele>819.4</ele>
        <time>2021-09-20T10:04:21Z</time>
      </trkpt>
      <trkpt lat="43.83701" lon="7.04516">
        <ele>819.4</ele>
        <time>2021-09-20T10:04:22Z</time>
      </trkpt>
      <trkpt lat="43.83701" lon="7.04521">
        <ele>819.4</ele>
        <time>2021-09-20T10:04:23Z</time>
      </trkpt>
      <trkpt lat="43.837" lon="7.04527">
        <ele>819.4</ele>
        <time>2021-09-20T10:04:24Z</time>
      </trkpt>
      <trkpt lat="43.83699" lon="7.04533">
        <ele>819.4</ele>
        <time>2021-09-20T10:04:25Z</time>
      </trkpt>
      <trkpt lat="43.83698" lon="7.04541">
        <ele>819.4</ele>
        <time>2021-09-20T10:04:26Z</time>
      </trkpt>
      <trkpt lat="43.83696" lon="7.04554">
        <ele>819.5</ele>
        <time>2021-09-20T10:04:28Z</time>
      </trkpt>
      <trkpt lat="43.83701" lon="7.04562">
        <ele>819.5</ele>
        <time>2021-09-20T10:04:29Z</time>
      </trkpt>
      <trkpt lat="43.83699" lon="7.04574">
        <ele>819.7</ele>
        <time>2021-09-20T10:04:31Z</time>
      </trkpt>
      <trkpt lat="43.83696" lon="7.04583">
        <ele>819.8</ele>
        <time>2021-09-20T10:04:33Z</time>
      </trkpt>
      <trkpt lat="43.83694" lon="7.0459">
        <ele>819.8</ele>
        <time>2021-09-20T10:04:34Z</time>
      </trkpt>
      <trkpt lat="43.83691" lon="7.04599">
        <ele>819.9</ele>
        <time>2021-09-20T10:04:36Z</time>
      </trkpt>
      <trkpt lat="43.83689" lon="7.04611">
        <ele>819.8</ele>
        <time>2021-09-20T10:04:38Z</time>
      </trkpt>
      <trkpt lat="43.83685" lon="7.04621">
        <ele>819.8</ele>
        <time>2021-09-20T10:04:40Z</time>
      </trkpt>
      <trkpt lat="43.83681" lon="7.04629">
        <ele>819.9</ele>
        <time>2021-09-20T10:04:41Z</time>
      </trkpt>
      <trkpt lat="43.83678" lon="7.04635">
        <ele>819.9</ele>
        <time>2021-09-20T10:04:43Z</time>
      </trkpt>
      <trkpt lat="43.83676" lon="7.04641">
        <ele>819.9</ele>
        <time>2021-09-20T10:04:44Z</time>
      </trkpt>
      <trkpt lat="43.83673" lon="7.04647">
        <ele>820</ele>
        <time>2021-09-20T10:04:45Z</time>
      </trkpt>
      <trkpt lat="43.83671" lon="7.04652">
        <ele>820</ele>
        <time>2021-09-20T10:04:47Z</time>
      </trkpt>
      <trkpt lat="43.83667" lon="7.04657">
        <ele>820</ele>
        <time>2021-09-20T10:04:48Z</time>
      </trkpt>
      <trkpt lat="43.83665" lon="7.04663">
        <ele>820.1</ele>
        <time>2021-09-20T10:04:49Z</time>
      </trkpt>
      <trkpt lat="43.83662" lon="7.04672">
        <ele>820.2</ele>
        <time>2021-09-20T10:04:51Z</time>
      </trkpt>
      <trkpt lat="43.8366" lon="7.04678">
        <ele>820.2</ele>
        <time>2021-09-20T10:04:52Z</time>
      </trkpt>
      <trkpt lat="43.83659" lon="7.04685">
        <ele>820.3</ele>
        <time>2021-09-20T10:04:54Z</time>
      </trkpt>
      <trkpt lat="43.8366" lon="7.04692">
        <ele>820.3</ele>
        <time>2021-09-20T10:04:55Z</time>
      </trkpt>
      <trkpt lat="43.83663" lon="7.04703">
        <ele>820.4</ele>
        <time>2021-09-20T10:04:57Z</time>
      </trkpt>
      <trkpt lat="43.83668" lon="7.04714">
        <ele>820.6</ele>
        <time>2021-09-20T10:04:59Z</time>
      </trkpt>
      <trkpt lat="43.83669" lon="7.04718">
        <ele>820.6</ele>
        <time>2021-09-20T10:05:00Z</time>
      </trkpt>
      <trkpt lat="43.83672" lon="7.04724">
        <ele>820.7</ele>
        <time>2021-09-20T10:05:01Z</time>
      </trkpt>
      <trkpt lat="43.83674" lon="7.04728">
        <ele>820.8</ele>
        <time>2021-09-20T10:05:02Z</time>
      </trkpt>
      <trkpt lat="43.83675" lon="7.04736">
        <ele>820.8</ele>
        <time>2021-09-20T10:05:04Z</time>
      </trkpt>
      <trkpt lat="43.83674" lon="7.04741">
        <ele>820.9</ele>
        <time>2021-09-20T10:05:05Z</time>
      </trkpt>
      <trkpt lat="43.83673" lon="7.04746">
        <ele>820.9</ele>
        <time>2021-09-20T10:05:06Z</time>
      </trkpt>
      <trkpt lat="43.83672" lon="7.0475">
        <ele>820.9</ele>
        <time>2021-09-20T10:05:07Z</time>
      </trkpt>
      <trkpt lat="43.8367" lon="7.04755">
        <ele>821</ele>
        <time>2021-09-20T10:05:08Z</time>
      </trkpt>
      <trkpt lat="43.83669" lon="7.0476">
        <ele>821</ele>
        <time>2021-09-20T10:05:10Z</time>
      </trkpt>
      <trkpt lat="43.83668" lon="7.04764">
        <ele>821</ele>
        <time>2021-09-20T10:05:11Z</time>
      </trkpt>
      <trkpt lat="43.83667" lon="7.04769">
        <ele>821</ele>
        <time>2021-09-20T10:05:13Z</time>
      </trkpt>
      <trkpt lat="43.83666" lon="7.04774">
        <ele>821</ele>
        <time>2021-09-20T10:05:14Z</time>
      </trkpt>
      <trkpt lat="43.83665" lon="7.04778">
        <ele>821</ele>
        <time>2021-09-20T10:05:16Z</time>
      </trkpt>
      <trkpt lat="43.83664" lon="7.04783">
        <ele>821</ele>
        <time>2021-09-20T10:06:26Z</time>
      </trkpt>
      <trkpt lat="43.83663" lon="7.04788">
        <ele>821</ele>
        <time>2021-09-20T10:06:27Z</time>
      </trkpt>
      <trkpt lat="43.83661" lon="7.04795">
        <ele>821</ele>
        <time>2021-09-20T10:06:29Z</time>
      </trkpt>
      <trkpt lat="43.83659" lon="7.04803">
        <ele>821</ele>
        <time>2021-09-20T10:06:30Z</time>
      </trkpt>
      <trkpt lat="43.83656" lon="7.04807">
        <ele>820.9</ele>
        <time>2021-09-20T10:06:31Z</time>
      </trkpt>
      <trkpt lat="43.83654" lon="7.04811">
        <ele>820.9</ele>
        <time>2021-09-20T10:06:33Z</time>
      </trkpt>
      <trkpt lat="43.83653" lon="7.04815">
        <ele>820.9</ele>
        <time>2021-09-20T10:06:34Z</time>
      </trkpt>
      <trkpt lat="43.83652" lon="7.04823">
        <ele>820.9</ele>
        <time>2021-09-20T10:06:35Z</time>
      </trkpt>
      <trkpt lat="43.8365" lon="7.04832">
        <ele>821</ele>
        <time>2021-09-20T10:06:37Z</time>
      </trkpt>
      <trkpt lat="43.83645" lon="7.04847">
        <ele>821</ele>
        <time>2021-09-20T10:06:40Z</time>
      </trkpt>
      <trkpt lat="43.83643" lon="7.04853">
        <ele>821.1</ele>
        <time>2021-09-20T10:06:41Z</time>
      </trkpt>
      <trkpt lat="43.83642" lon="7.04858">
        <ele>821.1</ele>
        <time>2021-09-20T10:06:42Z</time>
      </trkpt>
      <trkpt lat="43.83641" lon="7.04863">
        <ele>821.1</ele>
        <time>2021-09-20T10:06:43Z</time>
      </trkpt>
      <trkpt lat="43.8364" lon="7.04872">
        <ele>821.2</ele>
        <time>2021-09-20T10:06:44Z</time>
      </trkpt>
      <trkpt lat="43.83639" lon="7.04877">
        <ele>821.2</ele>
        <time>2021-09-20T10:06:45Z</time>
      </trkpt>
      <trkpt lat="43.83639" lon="7.04882">
        <ele>821.3</ele>
        <time>2021-09-20T10:06:47Z</time>
      </trkpt>
      <trkpt lat="43.83638" lon="7.04887">
        <ele>821.3</ele>
        <time>2021-09-20T10:06:48Z</time>
      </trkpt>
      <trkpt lat="43.83637" lon="7.04889">
        <ele>821.3</ele>
        <time>2021-09-20T10:06:49Z</time>
      </trkpt>
      <trkpt lat="43.83637" lon="7.04894">
        <ele>821.3</ele>
        <time>2021-09-20T10:06:50Z</time>
      </trkpt>
      <trkpt lat="43.83635" lon="7.049">
        <ele>821.3</ele>
        <time>2021-09-20T10:06:52Z</time>
      </trkpt>
      <trkpt lat="43.83634" lon="7.04904">
        <ele>821.3</ele>
        <time>2021-09-20T10:06:53Z</time>
      </trkpt>
      <trkpt lat="43.83633" lon="7.04914">
        <ele>821.4</ele>
        <time>2021-09-20T10:06:55Z</time>
      </trkpt>
      <trkpt lat="43.83634" lon="7.04923">
        <ele>821.4</ele>
        <time>2021-09-20T10:06:56Z</time>
      </trkpt>
      <trkpt lat="43.83634" lon="7.0493">
        <ele>821.4</ele>
        <time>2021-09-20T10:06:58Z</time>
      </trkpt>
      <trkpt lat="43.83634" lon="7.04948">
        <ele>821.5</ele>
        <time>2021-09-20T10:07:00Z</time>
      </trkpt>
      <trkpt lat="43.83634" lon="7.04958">
        <ele>821.5</ele>
        <time>2021-09-20T10:07:01Z</time>
      </trkpt>
      <trkpt lat="43.83636" lon="7.04967">
        <ele>821.6</ele>
        <time>2021-09-20T10:07:03Z</time>
      </trkpt>
      <trkpt lat="43.83635" lon="7.04983">
        <ele>821.6</ele>
        <time>2021-09-20T10:07:05Z</time>
      </trkpt>
      <trkpt lat="43.83635" lon="7.04991">
        <ele>821.7</ele>
        <time>2021-09-20T10:07:06Z</time>
      </trkpt>
      <trkpt lat="43.83635" lon="7.04998">
        <ele>821.7</ele>
        <time>2021-09-20T10:07:07Z</time>
      </trkpt>
      <trkpt lat="43.83637" lon="7.05011">
        <ele>821.7</ele>
        <time>2021-09-20T10:07:09Z</time>
      </trkpt>
      <trkpt lat="43.83634" lon="7.0502">
        <ele>821.8</ele>
        <time>2021-09-20T10:07:10Z</time>
      </trkpt>
      <trkpt lat="43.83635" lon="7.05028">
        <ele>821.8</ele>
        <time>2021-09-20T10:07:11Z</time>
      </trkpt>
      <trkpt lat="43.8364" lon="7.0504">
        <ele>821.9</ele>
        <time>2021-09-20T10:07:13Z</time>
      </trkpt>
      <trkpt lat="43.83642" lon="7.05054">
        <ele>822</ele>
        <time>2021-09-20T10:07:15Z</time>
      </trkpt>
      <trkpt lat="43.83643" lon="7.05059">
        <ele>822.1</ele>
        <time>2021-09-20T10:07:16Z</time>
      </trkpt>
      <trkpt lat="43.83643" lon="7.0507">
        <ele>822.1</ele>
        <time>2021-09-20T10:07:18Z</time>
      </trkpt>
      <trkpt lat="43.83643" lon="7.05079">
        <ele>822.2</ele>
        <time>2021-09-20T10:07:19Z</time>
      </trkpt>
      <trkpt lat="43.83644" lon="7.05088">
        <ele>822.3</ele>
        <time>2021-09-20T10:07:20Z</time>
      </trkpt>
      <trkpt lat="43.83644" lon="7.05097">
        <ele>822.5</ele>
        <time>2021-09-20T10:07:22Z</time>
      </trkpt>
      <trkpt lat="43.83644" lon="7.05101">
        <ele>822.5</ele>
        <time>2021-09-20T10:07:23Z</time>
      </trkpt>
      <trkpt lat="43.83643" lon="7.05104">
        <ele>822.6</ele>
        <time>2021-09-20T10:07:24Z</time>
      </trkpt>
      <trkpt lat="43.83641" lon="7.05112">
        <ele>822.7</ele>
        <time>2021-09-20T10:07:26Z</time>
      </trkpt>
      <trkpt lat="43.8364" lon="7.05116">
        <ele>822.7</ele>
        <time>2021-09-20T10:07:27Z</time>
      </trkpt>
      <trkpt lat="43.83639" lon="7.05121">
        <ele>822.8</ele>
        <time>2021-09-20T10:07:29Z</time>
      </trkpt>
      <trkpt lat="43.83638" lon="7.05126">
        <ele>822.8</ele>
        <time>2021-09-20T10:07:30Z</time>
      </trkpt>
      <trkpt lat="43.83634" lon="7.05134">
        <ele>822.9</ele>
        <time>2021-09-20T10:07:32Z</time>
      </trkpt>
      <trkpt lat="43.83632" lon="7.05139">
        <ele>822.8</ele>
        <time>2021-09-20T10:07:33Z</time>
      </trkpt>
      <trkpt lat="43.83631" lon="7.05146">
        <ele>822.8</ele>
        <time>2021-09-20T10:07:34Z</time>
      </trkpt>
      <trkpt lat="43.8363" lon="7.05151">
        <ele>822.8</ele>
        <time>2021-09-20T10:07:36Z</time>
      </trkpt>
      <trkpt lat="43.8363" lon="7.05157">
        <ele>822.8</ele>
        <time>2021-09-20T10:07:38Z</time>
      </trkpt>
      <trkpt lat="43.8363" lon="7.05164">
        <ele>822.8</ele>
        <time>2021-09-20T10:07:39Z</time>
      </trkpt>
      <trkpt lat="43.83629" lon="7.05178">
        <ele>822.8</ele>
        <time>2021-09-20T10:07:41Z</time>
      </trkpt>
      <trkpt lat="43.83628" lon="7.05187">
        <ele>822.9</ele>
        <time>2021-09-20T10:07:42Z</time>
      </trkpt>
      <trkpt lat="43.83627" lon="7.052">
        <ele>822.9</ele>
        <time>2021-09-20T10:07:44Z</time>
      </trkpt>
      <trkpt lat="43.83626" lon="7.05227">
        <ele>823.1</ele>
        <time>2021-09-20T10:07:46Z</time>
      </trkpt>
      <trkpt lat="43.83625" lon="7.05234">
        <ele>823.2</ele>
        <time>2021-09-20T10:07:47Z</time>
      </trkpt>
      <trkpt lat="43.83623" lon="7.05244">
        <ele>823.2</ele>
        <time>2021-09-20T10:07:48Z</time>
      </trkpt>
      <trkpt lat="43.83624" lon="7.05251">
        <ele>823.3</ele>
        <time>2021-09-20T10:07:50Z</time>
      </trkpt>
      <trkpt lat="43.83625" lon="7.05257">
        <ele>823.4</ele>
        <time>2021-09-20T10:07:51Z</time>
      </trkpt>
      <trkpt lat="43.83625" lon="7.05263">
        <ele>823.4</ele>
        <time>2021-09-20T10:07:52Z</time>
      </trkpt>
      <trkpt lat="43.83627" lon="7.05274">
        <ele>823.5</ele>
        <time>2021-09-20T10:07:53Z</time>
      </trkpt>
      <trkpt lat="43.83627" lon="7.05281">
        <ele>823.6</ele>
        <time>2021-09-20T10:07:54Z</time>
      </trkpt>
      <trkpt lat="43.83627" lon="7.05293">
        <ele>823.7</ele>
        <time>2021-09-20T10:07:56Z</time>
      </trkpt>
      <trkpt lat="43.83626" lon="7.05302">
        <ele>823.7</ele>
        <time>2021-09-20T10:07:58Z</time>
      </trkpt>
      <trkpt lat="43.83626" lon="7.05311">
        <ele>823.7</ele>
        <time>2021-09-20T10:07:59Z</time>
      </trkpt>
      <trkpt lat="43.83626" lon="7.05325">
        <ele>823.8</ele>
        <time>2021-09-20T10:08:01Z</time>
      </trkpt>
      <trkpt lat="43.83624" lon="7.0533">
        <ele>823.8</ele>
        <time>2021-09-20T10:08:02Z</time>
      </trkpt>
      <trkpt lat="43.83626" lon="7.05338">
        <ele>823.9</ele>
        <time>2021-09-20T10:08:04Z</time>
      </trkpt>
      <trkpt lat="43.83627" lon="7.05344">
        <ele>823.9</ele>
        <time>2021-09-20T10:08:05Z</time>
      </trkpt>
      <trkpt lat="43.8363" lon="7.05357">
        <ele>824.1</ele>
        <time>2021-09-20T10:08:07Z</time>
      </trkpt>
      <trkpt lat="43.83632" lon="7.05365">
        <ele>824.1</ele>
        <time>2021-09-20T10:08:08Z</time>
      </trkpt>
      <trkpt lat="43.83633" lon="7.05371">
        <ele>824.2</ele>
        <time>2021-09-20T10:08:09Z</time>
      </trkpt>
      <trkpt lat="43.83633" lon="7.05379">
        <ele>824.2</ele>
        <time>2021-09-20T10:08:10Z</time>
      </trkpt>
      <trkpt lat="43.83634" lon="7.05384">
        <ele>824.3</ele>
        <time>2021-09-20T10:08:12Z</time>
      </trkpt>
      <trkpt lat="43.83631" lon="7.05391">
        <ele>824.3</ele>
        <time>2021-09-20T10:08:13Z</time>
      </trkpt>
      <trkpt lat="43.8363" lon="7.05397">
        <ele>824.3</ele>
        <time>2021-09-20T10:08:14Z</time>
      </trkpt>
      <trkpt lat="43.83627" lon="7.05403">
        <ele>824.4</ele>
        <time>2021-09-20T10:08:15Z</time>
      </trkpt>
      <trkpt lat="43.83625" lon="7.05412">
        <ele>824.4</ele>
        <time>2021-09-20T10:08:16Z</time>
      </trkpt>
      <trkpt lat="43.83624" lon="7.05418">
        <ele>824.5</ele>
        <time>2021-09-20T10:08:18Z</time>
      </trkpt>
      <trkpt lat="43.83624" lon="7.05424">
        <ele>824.5</ele>
        <time>2021-09-20T10:08:19Z</time>
      </trkpt>
      <trkpt lat="43.83625" lon="7.0543">
        <ele>824.5</ele>
        <time>2021-09-20T10:08:20Z</time>
      </trkpt>
      <trkpt lat="43.83623" lon="7.05444">
        <ele>824.6</ele>
        <time>2021-09-20T10:08:22Z</time>
      </trkpt>
      <trkpt lat="43.83623" lon="7.0545">
        <ele>824.6</ele>
        <time>2021-09-20T10:08:23Z</time>
      </trkpt>
      <trkpt lat="43.83622" lon="7.05453">
        <ele>824.7</ele>
        <time>2021-09-20T10:08:24Z</time>
      </trkpt>
      <trkpt lat="43.8362" lon="7.05464">
        <ele>824.7</ele>
        <time>2021-09-20T10:08:26Z</time>
      </trkpt>
      <trkpt lat="43.83618" lon="7.05474">
        <ele>824.8</ele>
        <time>2021-09-20T10:08:27Z</time>
      </trkpt>
      <trkpt lat="43.83615" lon="7.0548">
        <ele>824.8</ele>
        <time>2021-09-20T10:08:29Z</time>
      </trkpt>
      <trkpt lat="43.83614" lon="7.05486">
        <ele>824.8</ele>
        <time>2021-09-20T10:08:30Z</time>
      </trkpt>
      <trkpt lat="43.83613" lon="7.05499">
        <ele>824.8</ele>
        <time>2021-09-20T10:08:32Z</time>
      </trkpt>
      <trkpt lat="43.83611" lon="7.05506">
        <ele>824.9</ele>
        <time>2021-09-20T10:08:33Z</time>
      </trkpt>
      <trkpt lat="43.83609" lon="7.05513">
        <ele>824.9</ele>
        <time>2021-09-20T10:08:35Z</time>
      </trkpt>
      <trkpt lat="43.83608" lon="7.05518">
        <ele>824.9</ele>
        <time>2021-09-20T10:08:36Z</time>
      </trkpt>
      <trkpt lat="43.83607" lon="7.05524">
        <ele>825</ele>
        <time>2021-09-20T10:08:37Z</time>
      </trkpt>
      <trkpt lat="43.83605" lon="7.05529">
        <ele>825</ele>
        <time>2021-09-20T10:08:39Z</time>
      </trkpt>
      <trkpt lat="43.83604" lon="7.05536">
        <ele>825.1</ele>
        <time>2021-09-20T10:08:41Z</time>
      </trkpt>
      <trkpt lat="43.83603" lon="7.05542">
        <ele>825.1</ele>
        <time>2021-09-20T10:08:42Z</time>
      </trkpt>
      <trkpt lat="43.83603" lon="7.05551">
        <ele>825.2</ele>
        <time>2021-09-20T10:08:43Z</time>
      </trkpt>
      <trkpt lat="43.83604" lon="7.05558">
        <ele>825.2</ele>
        <time>2021-09-20T10:08:45Z</time>
      </trkpt>
      <trkpt lat="43.83603" lon="7.05564">
        <ele>825.3</ele>
        <time>2021-09-20T10:08:47Z</time>
      </trkpt>
      <trkpt lat="43.83602" lon="7.05568">
        <ele>825.3</ele>
        <time>2021-09-20T10:08:48Z</time>
      </trkpt>
      <trkpt lat="43.836" lon="7.05576">
        <ele>825.4</ele>
        <time>2021-09-20T10:08:50Z</time>
      </trkpt>
      <trkpt lat="43.83599" lon="7.05581">
        <ele>825.4</ele>
        <time>2021-09-20T10:08:51Z</time>
      </trkpt>
      <trkpt lat="43.83597" lon="7.05588">
        <ele>825.5</ele>
        <time>2021-09-20T10:08:52Z</time>
      </trkpt>
      <trkpt lat="43.83596" lon="7.05597">
        <ele>825.6</ele>
        <time>2021-09-20T10:08:53Z</time>
      </trkpt>
      <trkpt lat="43.83594" lon="7.05606">
        <ele>825.6</ele>
        <time>2021-09-20T10:08:55Z</time>
      </trkpt>
      <trkpt lat="43.83593" lon="7.05612">
        <ele>825.7</ele>
        <time>2021-09-20T10:08:56Z</time>
      </trkpt>
      <trkpt lat="43.8359" lon="7.05618">
        <ele>825.7</ele>
        <time>2021-09-20T10:08:57Z</time>
      </trkpt>
      <trkpt lat="43.83586" lon="7.05628">
        <ele>825.8</ele>
        <time>2021-09-20T10:08:59Z</time>
      </trkpt>
      <trkpt lat="43.83585" lon="7.05639">
        <ele>825.8</ele>
        <time>2021-09-20T10:09:00Z</time>
      </trkpt>
      <trkpt lat="43.83584" lon="7.05647">
        <ele>825.9</ele>
        <time>2021-09-20T10:09:02Z</time>
      </trkpt>
      <trkpt lat="43.83583" lon="7.05656">
        <ele>825.9</ele>
        <time>2021-09-20T10:09:03Z</time>
      </trkpt>
      <trkpt lat="43.83579" lon="7.05672">
        <ele>826</ele>
        <time>2021-09-20T10:09:05Z</time>
      </trkpt>
      <trkpt lat="43.83578" lon="7.0568">
        <ele>826.1</ele>
        <time>2021-09-20T10:09:06Z</time>
      </trkpt>
      <trkpt lat="43.83577" lon="7.05688">
        <ele>826.1</ele>
        <time>2021-09-20T10:09:07Z</time>
      </trkpt>
      <trkpt lat="43.83576" lon="7.05703">
        <ele>826.3</ele>
        <time>2021-09-20T10:09:09Z</time>
      </trkpt>
      <trkpt lat="43.83575" lon="7.05714">
        <ele>826.3</ele>
        <time>2021-09-20T10:09:11Z</time>
      </trkpt>
      <trkpt lat="43.83577" lon="7.05721">
        <ele>826.4</ele>
        <time>2021-09-20T10:09:13Z</time>
      </trkpt>
      <trkpt lat="43.83576" lon="7.0573">
        <ele>826.5</ele>
        <time>2021-09-20T10:09:14Z</time>
      </trkpt>
      <trkpt lat="43.83574" lon="7.05752">
        <ele>826.5</ele>
        <time>2021-09-20T10:09:16Z</time>
      </trkpt>
      <trkpt lat="43.83574" lon="7.05759">
        <ele>826.6</ele>
        <time>2021-09-20T10:09:17Z</time>
      </trkpt>
      <trkpt lat="43.83574" lon="7.05766">
        <ele>826.6</ele>
        <time>2021-09-20T10:09:18Z</time>
      </trkpt>
      <trkpt lat="43.83572" lon="7.05769">
        <ele>826.6</ele>
        <time>2021-09-20T10:09:19Z</time>
      </trkpt>
      <trkpt lat="43.83573" lon="7.05778">
        <ele>826.7</ele>
        <time>2021-09-20T10:09:21Z</time>
      </trkpt>
      <trkpt lat="43.83574" lon="7.05785">
        <ele>826.7</ele>
        <time>2021-09-20T10:09:22Z</time>
      </trkpt>
      <trkpt lat="43.83575" lon="7.05795">
        <ele>826.8</ele>
        <time>2021-09-20T10:09:24Z</time>
      </trkpt>
      <trkpt lat="43.83576" lon="7.05803">
        <ele>826.8</ele>
        <time>2021-09-20T10:09:25Z</time>
      </trkpt>
      <trkpt lat="43.83578" lon="7.0581">
        <ele>826.8</ele>
        <time>2021-09-20T10:09:27Z</time>
      </trkpt>
      <trkpt lat="43.83579" lon="7.05816">
        <ele>826.8</ele>
        <time>2021-09-20T10:09:28Z</time>
      </trkpt>
      <trkpt lat="43.83578" lon="7.05821">
        <ele>826.9</ele>
        <time>2021-09-20T10:09:30Z</time>
      </trkpt>
      <trkpt lat="43.83578" lon="7.05826">
        <ele>826.9</ele>
        <time>2021-09-20T10:09:31Z</time>
      </trkpt>
      <trkpt lat="43.8358" lon="7.05836">
        <ele>826.9</ele>
        <time>2021-09-20T10:09:33Z</time>
      </trkpt>
      <trkpt lat="43.83582" lon="7.05845">
        <ele>827</ele>
        <time>2021-09-20T10:09:34Z</time>
      </trkpt>
      <trkpt lat="43.83583" lon="7.05853">
        <ele>827</ele>
        <time>2021-09-20T10:09:36Z</time>
      </trkpt>
      <trkpt lat="43.83588" lon="7.05864">
        <ele>827</ele>
        <time>2021-09-20T10:09:38Z</time>
      </trkpt>
      <trkpt lat="43.83589" lon="7.05871">
        <ele>827</ele>
        <time>2021-09-20T10:09:40Z</time>
      </trkpt>
      <trkpt lat="43.8359" lon="7.05875">
        <ele>827</ele>
        <time>2021-09-20T10:09:41Z</time>
      </trkpt>
      <trkpt lat="43.83591" lon="7.05885">
        <ele>826.9</ele>
        <time>2021-09-20T10:09:43Z</time>
      </trkpt>
      <trkpt lat="43.83591" lon="7.05889">
        <ele>826.9</ele>
        <time>2021-09-20T10:09:44Z</time>
      </trkpt>
      <trkpt lat="43.83591" lon="7.05894">
        <ele>826.9</ele>
        <time>2021-09-20T10:09:45Z</time>
      </trkpt>
      <trkpt lat="43.83592" lon="7.05901">
        <ele>826.9</ele>
        <time>2021-09-20T10:09:46Z</time>
      </trkpt>
      <trkpt lat="43.83594" lon="7.05908">
        <ele>826.9</ele>
        <time>2021-09-20T10:09:47Z</time>
      </trkpt>
      <trkpt lat="43.83595" lon="7.05913">
        <ele>826.9</ele>
        <time>2021-09-20T10:09:48Z</time>
      </trkpt>
      <trkpt lat="43.83596" lon="7.05918">
        <ele>827</ele>
        <time>2021-09-20T10:09:50Z</time>
      </trkpt>
      <trkpt lat="43.83598" lon="7.0593">
        <ele>827.1</ele>
        <time>2021-09-20T10:09:52Z</time>
      </trkpt>
      <trkpt lat="43.83598" lon="7.05935">
        <ele>827.2</ele>
        <time>2021-09-20T10:09:53Z</time>
      </trkpt>
      <trkpt lat="43.83598" lon="7.05941">
        <ele>827.2</ele>
        <time>2021-09-20T10:09:54Z</time>
      </trkpt>
      <trkpt lat="43.83598" lon="7.05946">
        <ele>827.3</ele>
        <time>2021-09-20T10:09:55Z</time>
      </trkpt>
      <trkpt lat="43.83599" lon="7.05952">
        <ele>827.3</ele>
        <time>2021-09-20T10:09:57Z</time>
      </trkpt>
      <trkpt lat="43.83599" lon="7.05956">
        <ele>827.4</ele>
        <time>2021-09-20T10:09:58Z</time>
      </trkpt>
      <trkpt lat="43.836" lon="7.05963">
        <ele>827.4</ele>
        <time>2021-09-20T10:09:59Z</time>
      </trkpt>
      <trkpt lat="43.83601" lon="7.05972">
        <ele>827.4</ele>
        <time>2021-09-20T10:10:01Z</time>
      </trkpt>
      <trkpt lat="43.83602" lon="7.0598">
        <ele>827.4</ele>
        <time>2021-09-20T10:10:02Z</time>
      </trkpt>
      <trkpt lat="43.83602" lon="7.05987">
        <ele>827.4</ele>
        <time>2021-09-20T10:10:03Z</time>
      </trkpt>
      <trkpt lat="43.83603" lon="7.05997">
        <ele>827.5</ele>
        <time>2021-09-20T10:10:05Z</time>
      </trkpt>
      <trkpt lat="43.83605" lon="7.06005">
        <ele>827.5</ele>
        <time>2021-09-20T10:10:06Z</time>
      </trkpt>
      <trkpt lat="43.83608" lon="7.06017">
        <ele>827.6</ele>
        <time>2021-09-20T10:10:08Z</time>
      </trkpt>
      <trkpt lat="43.83608" lon="7.06023">
        <ele>827.7</ele>
        <time>2021-09-20T10:10:09Z</time>
      </trkpt>
      <trkpt lat="43.83608" lon="7.06029">
        <ele>827.7</ele>
        <time>2021-09-20T10:10:10Z</time>
      </trkpt>
      <trkpt lat="43.83607" lon="7.06037">
        <ele>827.8</ele>
        <time>2021-09-20T10:10:11Z</time>
      </trkpt>
      <trkpt lat="43.83606" lon="7.06043">
        <ele>827.8</ele>
        <time>2021-09-20T10:10:12Z</time>
      </trkpt>
      <trkpt lat="43.83605" lon="7.06049">
        <ele>827.9</ele>
        <time>2021-09-20T10:10:13Z</time>
      </trkpt>
      <trkpt lat="43.83604" lon="7.06055">
        <ele>828</ele>
        <time>2021-09-20T10:10:14Z</time>
      </trkpt>
      <trkpt lat="43.83602" lon="7.06061">
        <ele>828</ele>
        <time>2021-09-20T10:10:15Z</time>
      </trkpt>
      <trkpt lat="43.83599" lon="7.06068">
        <ele>828.1</ele>
        <time>2021-09-20T10:10:16Z</time>
      </trkpt>
      <trkpt lat="43.83597" lon="7.06076">
        <ele>828.2</ele>
        <time>2021-09-20T10:10:18Z</time>
      </trkpt>
      <trkpt lat="43.83594" lon="7.06085">
        <ele>828.3</ele>
        <time>2021-09-20T10:10:19Z</time>
      </trkpt>
      <trkpt lat="43.83592" lon="7.06092">
        <ele>828.4</ele>
        <time>2021-09-20T10:10:20Z</time>
      </trkpt>
      <trkpt lat="43.83591" lon="7.06099">
        <ele>828.4</ele>
        <time>2021-09-20T10:10:22Z</time>
      </trkpt>
      <trkpt lat="43.83592" lon="7.06105">
        <ele>828.4</ele>
        <time>2021-09-20T10:10:23Z</time>
      </trkpt>
      <trkpt lat="43.83593" lon="7.06116">
        <ele>828.5</ele>
        <time>2021-09-20T10:10:25Z</time>
      </trkpt>
      <trkpt lat="43.83594" lon="7.06123">
        <ele>828.5</ele>
        <time>2021-09-20T10:10:26Z</time>
      </trkpt>
      <trkpt lat="43.83595" lon="7.06134">
        <ele>828.5</ele>
        <time>2021-09-20T10:10:28Z</time>
      </trkpt>
      <trkpt lat="43.83597" lon="7.06144">
        <ele>828.5</ele>
        <time>2021-09-20T10:10:29Z</time>
      </trkpt>
      <trkpt lat="43.83601" lon="7.06152">
        <ele>828.6</ele>
        <time>2021-09-20T10:10:30Z</time>
      </trkpt>
      <trkpt lat="43.83601" lon="7.06156">
        <ele>828.6</ele>
        <time>2021-09-20T10:10:31Z</time>
      </trkpt>
      <trkpt lat="43.836" lon="7.0616">
        <ele>828.6</ele>
        <time>2021-09-20T10:10:33Z</time>
      </trkpt>
      <trkpt lat="43.83598" lon="7.06164">
        <ele>828.6</ele>
        <time>2021-09-20T10:10:34Z</time>
      </trkpt>
      <trkpt lat="43.83598" lon="7.06168">
        <ele>828.6</ele>
        <time>2021-09-20T10:10:35Z</time>
      </trkpt>
      <trkpt lat="43.83598" lon="7.0617">
        <ele>828.6</ele>
        <time>2021-09-20T10:10:36Z</time>
      </trkpt>
      <trkpt lat="43.83598" lon="7.06175">
        <ele>828.6</ele>
        <time>2021-09-20T10:10:38Z</time>
      </trkpt>
      <trkpt lat="43.83597" lon="7.06177">
        <ele>828.6</ele>
        <time>2021-09-20T10:10:39Z</time>
      </trkpt>
      <trkpt lat="43.83597" lon="7.06182">
        <ele>828.7</ele>
        <time>2021-09-20T10:10:41Z</time>
      </trkpt>
      <trkpt lat="43.8359" lon="7.06229">
        <ele>829</ele>
        <time>2021-09-20T10:10:50Z</time>
      </trkpt>
      <trkpt lat="43.83588" lon="7.06241">
        <ele>829.1</ele>
        <time>2021-09-20T10:10:52Z</time>
      </trkpt>
      <trkpt lat="43.83588" lon="7.06252">
        <ele>829.1</ele>
        <time>2021-09-20T10:10:53Z</time>
      </trkpt>
      <trkpt lat="43.83588" lon="7.06259">
        <ele>829.2</ele>
        <time>2021-09-20T10:10:54Z</time>
      </trkpt>
      <trkpt lat="43.83588" lon="7.06269">
        <ele>829.2</ele>
        <time>2021-09-20T10:10:55Z</time>
      </trkpt>
      <trkpt lat="43.83589" lon="7.06277">
        <ele>829.3</ele>
        <time>2021-09-20T10:10:56Z</time>
      </trkpt>
      <trkpt lat="43.83589" lon="7.06284">
        <ele>829.4</ele>
        <time>2021-09-20T10:10:58Z</time>
      </trkpt>
      <trkpt lat="43.83589" lon="7.06291">
        <ele>829.4</ele>
        <time>2021-09-20T10:10:59Z</time>
      </trkpt>
      <trkpt lat="43.83588" lon="7.06293">
        <ele>829.5</ele>
        <time>2021-09-20T10:11:02Z</time>
      </trkpt>
      <trkpt lat="43.83588" lon="7.06294">
        <ele>829.5</ele>
        <time>2021-09-20T10:11:03Z</time>
      </trkpt>
      <trkpt lat="43.83588" lon="7.06295">
        <ele>829.5</ele>
        <time>2021-09-20T10:11:04Z</time>
      </trkpt>
      <trkpt lat="43.83588" lon="7.06296">
        <ele>829.5</ele>
        <time>2021-09-20T10:11:05Z</time>
      </trkpt>
      <trkpt lat="43.83587" lon="7.06297">
        <ele>829.5</ele>
        <time>2021-09-20T10:11:06Z</time>
      </trkpt>
      <trkpt lat="43.83587" lon="7.06298">
        <ele>829.6</ele>
        <time>2021-09-20T10:11:08Z</time>
      </trkpt>
      <trkpt lat="43.83586" lon="7.06299">
        <ele>829.6</ele>
        <time>2021-09-20T10:11:10Z</time>
      </trkpt>
      <trkpt lat="43.83581" lon="7.06358">
        <ele>830</ele>
        <time>2021-09-20T10:11:21Z</time>
      </trkpt>
      <trkpt lat="43.83583" lon="7.06368">
        <ele>830.1</ele>
        <time>2021-09-20T10:11:22Z</time>
      </trkpt>
      <trkpt lat="43.83584" lon="7.06372">
        <ele>830.1</ele>
        <time>2021-09-20T10:11:23Z</time>
      </trkpt>
      <trkpt lat="43.83591" lon="7.06385">
        <ele>830.2</ele>
        <time>2021-09-20T10:11:25Z</time>
      </trkpt>
      <trkpt lat="43.83596" lon="7.064">
        <ele>830.3</ele>
        <time>2021-09-20T10:11:26Z</time>
      </trkpt>
      <trkpt lat="43.83597" lon="7.06405">
        <ele>830.3</ele>
        <time>2021-09-20T10:11:27Z</time>
      </trkpt>
      <trkpt lat="43.83599" lon="7.06411">
        <ele>830.3</ele>
        <time>2021-09-20T10:11:29Z</time>
      </trkpt>
      <trkpt lat="43.83602" lon="7.06418">
        <ele>830.3</ele>
        <time>2021-09-20T10:11:30Z</time>
      </trkpt>
      <trkpt lat="43.83603" lon="7.06423">
        <ele>830.2</ele>
        <time>2021-09-20T10:11:31Z</time>
      </trkpt>
      <trkpt lat="43.83609" lon="7.06442">
        <ele>830.3</ele>
        <time>2021-09-20T10:11:32Z</time>
      </trkpt>
      <trkpt lat="43.83621" lon="7.06468">
        <ele>830.8</ele>
        <time>2021-09-20T10:11:37Z</time>
      </trkpt>
      <trkpt lat="43.83624" lon="7.06479">
        <ele>831</ele>
        <time>2021-09-20T10:11:38Z</time>
      </trkpt>
      <trkpt lat="43.83627" lon="7.06493">
        <ele>831.1</ele>
        <time>2021-09-20T10:11:40Z</time>
      </trkpt>
      <trkpt lat="43.83629" lon="7.06504">
        <ele>831.3</ele>
        <time>2021-09-20T10:11:41Z</time>
      </trkpt>
      <trkpt lat="43.83632" lon="7.06512">
        <ele>831.3</ele>
        <time>2021-09-20T10:11:42Z</time>
      </trkpt>
      <trkpt lat="43.83633" lon="7.06518">
        <ele>831.4</ele>
        <time>2021-09-20T10:11:43Z</time>
      </trkpt>
      <trkpt lat="43.83635" lon="7.06525">
        <ele>831.5</ele>
        <time>2021-09-20T10:11:45Z</time>
      </trkpt>
      <trkpt lat="43.83636" lon="7.06531">
        <ele>831.6</ele>
        <time>2021-09-20T10:11:46Z</time>
      </trkpt>
      <trkpt lat="43.83638" lon="7.06539">
        <ele>831.7</ele>
        <time>2021-09-20T10:11:47Z</time>
      </trkpt>
      <trkpt lat="43.83639" lon="7.06546">
        <ele>831.7</ele>
        <time>2021-09-20T10:11:49Z</time>
      </trkpt>
      <trkpt lat="43.83641" lon="7.06552">
        <ele>831.8</ele>
        <time>2021-09-20T10:11:50Z</time>
      </trkpt>
      <trkpt lat="43.83642" lon="7.06559">
        <ele>831.8</ele>
        <time>2021-09-20T10:11:51Z</time>
      </trkpt>
      <trkpt lat="43.83643" lon="7.06565">
        <ele>831.8</ele>
        <time>2021-09-20T10:11:52Z</time>
      </trkpt>
      <trkpt lat="43.83644" lon="7.06571">
        <ele>831.9</ele>
        <time>2021-09-20T10:11:53Z</time>
      </trkpt>
      <trkpt lat="43.83644" lon="7.06579">
        <ele>831.9</ele>
        <time>2021-09-20T10:11:55Z</time>
      </trkpt>
      <trkpt lat="43.83643" lon="7.06588">
        <ele>832</ele>
        <time>2021-09-20T10:11:56Z</time>
      </trkpt>
      <trkpt lat="43.83642" lon="7.06597">
        <ele>832.1</ele>
        <time>2021-09-20T10:11:58Z</time>
      </trkpt>
      <trkpt lat="43.83641" lon="7.06606">
        <ele>832.2</ele>
        <time>2021-09-20T10:12:00Z</time>
      </trkpt>
      <trkpt lat="43.83642" lon="7.06614">
        <ele>832.2</ele>
        <time>2021-09-20T10:12:02Z</time>
      </trkpt>
      <trkpt lat="43.83643" lon="7.06617">
        <ele>832.2</ele>
        <time>2021-09-20T10:12:03Z</time>
      </trkpt>
      <trkpt lat="43.83644" lon="7.06621">
        <ele>832.2</ele>
        <time>2021-09-20T10:12:04Z</time>
      </trkpt>
      <trkpt lat="43.83644" lon="7.06629">
        <ele>832.2</ele>
        <time>2021-09-20T10:12:06Z</time>
      </trkpt>
      <trkpt lat="43.83644" lon="7.06639">
        <ele>832.2</ele>
        <time>2021-09-20T10:12:07Z</time>
      </trkpt>
      <trkpt lat="43.83645" lon="7.06648">
        <ele>832.2</ele>
        <time>2021-09-20T10:12:08Z</time>
      </trkpt>
      <trkpt lat="43.83646" lon="7.06656">
        <ele>832.2</ele>
        <time>2021-09-20T10:12:10Z</time>
      </trkpt>
      <trkpt lat="43.83647" lon="7.06666">
        <ele>832.2</ele>
        <time>2021-09-20T10:12:11Z</time>
      </trkpt>
      <trkpt lat="43.83646" lon="7.06675">
        <ele>832.3</ele>
        <time>2021-09-20T10:12:13Z</time>
      </trkpt>
      <trkpt lat="43.83645" lon="7.06682">
        <ele>832.3</ele>
        <time>2021-09-20T10:12:14Z</time>
      </trkpt>
      <trkpt lat="43.83642" lon="7.06689">
        <ele>832.3</ele>
        <time>2021-09-20T10:12:15Z</time>
      </trkpt>
      <trkpt lat="43.8364" lon="7.06697">
        <ele>832.4</ele>
        <time>2021-09-20T10:12:16Z</time>
      </trkpt>
      <trkpt lat="43.8364" lon="7.06704">
        <ele>832.4</ele>
        <time>2021-09-20T10:12:18Z</time>
      </trkpt>
      <trkpt lat="43.83639" lon="7.06716">
        <ele>832.5</ele>
        <time>2021-09-20T10:12:20Z</time>
      </trkpt>
      <trkpt lat="43.83637" lon="7.06728">
        <ele>832.7</ele>
        <time>2021-09-20T10:12:21Z</time>
      </trkpt>
      <trkpt lat="43.83635" lon="7.06736">
        <ele>832.8</ele>
        <time>2021-09-20T10:12:23Z</time>
      </trkpt>
      <trkpt lat="43.83633" lon="7.06742">
        <ele>832.8</ele>
        <time>2021-09-20T10:12:24Z</time>
      </trkpt>
      <trkpt lat="43.8363" lon="7.06748">
        <ele>832.9</ele>
        <time>2021-09-20T10:12:25Z</time>
      </trkpt>
      <trkpt lat="43.83627" lon="7.06756">
        <ele>833</ele>
        <time>2021-09-20T10:12:26Z</time>
      </trkpt>
      <trkpt lat="43.83623" lon="7.06764">
        <ele>833</ele>
        <time>2021-09-20T10:12:28Z</time>
      </trkpt>
      <trkpt lat="43.8362" lon="7.06773">
        <ele>833.1</ele>
        <time>2021-09-20T10:12:29Z</time>
      </trkpt>
      <trkpt lat="43.83616" lon="7.06784">
        <ele>833.2</ele>
        <time>2021-09-20T10:12:31Z</time>
      </trkpt>
      <trkpt lat="43.83615" lon="7.06789">
        <ele>833.2</ele>
        <time>2021-09-20T10:12:32Z</time>
      </trkpt>
      <trkpt lat="43.83613" lon="7.06794">
        <ele>833.2</ele>
        <time>2021-09-20T10:12:33Z</time>
      </trkpt>
      <trkpt lat="43.83611" lon="7.06802">
        <ele>833.3</ele>
        <time>2021-09-20T10:12:34Z</time>
      </trkpt>
      <trkpt lat="43.83608" lon="7.06807">
        <ele>833.3</ele>
        <time>2021-09-20T10:12:35Z</time>
      </trkpt>
      <trkpt lat="43.83606" lon="7.06813">
        <ele>833.4</ele>
        <time>2021-09-20T10:12:37Z</time>
      </trkpt>
      <trkpt lat="43.83606" lon="7.06819">
        <ele>833.4</ele>
        <time>2021-09-20T10:12:38Z</time>
      </trkpt>
      <trkpt lat="43.83605" lon="7.06826">
        <ele>833.4</ele>
        <time>2021-09-20T10:12:39Z</time>
      </trkpt>
      <trkpt lat="43.83604" lon="7.06834">
        <ele>833.5</ele>
        <time>2021-09-20T10:12:40Z</time>
      </trkpt>
      <trkpt lat="43.83601" lon="7.0684">
        <ele>833.5</ele>
        <time>2021-09-20T10:12:42Z</time>
      </trkpt>
      <trkpt lat="43.83599" lon="7.06845">
        <ele>833.5</ele>
        <time>2021-09-20T10:12:43Z</time>
      </trkpt>
      <trkpt lat="43.83598" lon="7.06849">
        <ele>833.6</ele>
        <time>2021-09-20T10:12:44Z</time>
      </trkpt>
      <trkpt lat="43.83597" lon="7.06855">
        <ele>833.6</ele>
        <time>2021-09-20T10:12:46Z</time>
      </trkpt>
      <trkpt lat="43.83599" lon="7.06864">
        <ele>833.7</ele>
        <time>2021-09-20T10:12:48Z</time>
      </trkpt>
      <trkpt lat="43.83599" lon="7.06871">
        <ele>833.7</ele>
        <time>2021-09-20T10:12:49Z</time>
      </trkpt>
      <trkpt lat="43.83598" lon="7.06881">
        <ele>833.8</ele>
        <time>2021-09-20T10:12:50Z</time>
      </trkpt>
      <trkpt lat="43.83597" lon="7.06886">
        <ele>833.8</ele>
        <time>2021-09-20T10:12:51Z</time>
      </trkpt>
      <trkpt lat="43.83597" lon="7.06891">
        <ele>833.8</ele>
        <time>2021-09-20T10:12:53Z</time>
      </trkpt>
      <trkpt lat="43.83595" lon="7.06896">
        <ele>833.8</ele>
        <time>2021-09-20T10:12:54Z</time>
      </trkpt>
      <trkpt lat="43.83594" lon="7.06903">
        <ele>833.8</ele>
        <time>2021-09-20T10:12:55Z</time>
      </trkpt>
      <trkpt lat="43.83593" lon="7.06911">
        <ele>833.9</ele>
        <time>2021-09-20T10:12:57Z</time>
      </trkpt>
      <trkpt lat="43.83592" lon="7.06917">
        <ele>833.9</ele>
        <time>2021-09-20T10:12:58Z</time>
      </trkpt>
      <trkpt lat="43.8359" lon="7.06928">
        <ele>834.1</ele>
        <time>2021-09-20T10:13:00Z</time>
      </trkpt>
      <trkpt lat="43.83587" lon="7.06938">
        <ele>834.2</ele>
        <time>2021-09-20T10:13:01Z</time>
      </trkpt>
      <trkpt lat="43.83584" lon="7.06943">
        <ele>834.4</ele>
        <time>2021-09-20T10:13:03Z</time>
      </trkpt>
      <trkpt lat="43.83581" lon="7.06947">
        <ele>834.5</ele>
        <time>2021-09-20T10:13:04Z</time>
      </trkpt>
      <trkpt lat="43.83578" lon="7.06953">
        <ele>834.7</ele>
        <time>2021-09-20T10:13:05Z</time>
      </trkpt>
      <trkpt lat="43.83578" lon="7.06959">
        <ele>834.8</ele>
        <time>2021-09-20T10:13:06Z</time>
      </trkpt>
      <trkpt lat="43.83576" lon="7.06966">
        <ele>834.9</ele>
        <time>2021-09-20T10:13:08Z</time>
      </trkpt>
      <trkpt lat="43.83576" lon="7.06973">
        <ele>835</ele>
        <time>2021-09-20T10:13:09Z</time>
      </trkpt>
      <trkpt lat="43.83575" lon="7.06982">
        <ele>835</ele>
        <time>2021-09-20T10:13:10Z</time>
      </trkpt>
      <trkpt lat="43.83574" lon="7.06987">
        <ele>835.1</ele>
        <time>2021-09-20T10:13:12Z</time>
      </trkpt>
      <trkpt lat="43.83574" lon="7.06992">
        <ele>835.1</ele>
        <time>2021-09-20T10:13:13Z</time>
      </trkpt>
      <trkpt lat="43.83572" lon="7.06999">
        <ele>835.1</ele>
        <time>2021-09-20T10:13:14Z</time>
      </trkpt>
      <trkpt lat="43.83571" lon="7.07008">
        <ele>835</ele>
        <time>2021-09-20T10:13:16Z</time>
      </trkpt>
      <trkpt lat="43.8357" lon="7.07015">
        <ele>834.9</ele>
        <time>2021-09-20T10:13:17Z</time>
      </trkpt>
      <trkpt lat="43.83569" lon="7.07026">
        <ele>834.7</ele>
        <time>2021-09-20T10:13:18Z</time>
      </trkpt>
      <trkpt lat="43.83567" lon="7.07034">
        <ele>834.6</ele>
        <time>2021-09-20T10:13:20Z</time>
      </trkpt>
      <trkpt lat="43.83565" lon="7.0704">
        <ele>834.5</ele>
        <time>2021-09-20T10:13:21Z</time>
      </trkpt>
      <trkpt lat="43.83563" lon="7.07049">
        <ele>834.3</ele>
        <time>2021-09-20T10:13:23Z</time>
      </trkpt>
      <trkpt lat="43.83563" lon="7.07054">
        <ele>834.3</ele>
        <time>2021-09-20T10:13:24Z</time>
      </trkpt>
      <trkpt lat="43.83563" lon="7.07061">
        <ele>834.2</ele>
        <time>2021-09-20T10:13:25Z</time>
      </trkpt>
      <trkpt lat="43.83564" lon="7.07068">
        <ele>834.1</ele>
        <time>2021-09-20T10:13:27Z</time>
      </trkpt>
      <trkpt lat="43.83563" lon="7.07073">
        <ele>834</ele>
        <time>2021-09-20T10:13:28Z</time>
      </trkpt>
      <trkpt lat="43.83562" lon="7.0708">
        <ele>833.9</ele>
        <time>2021-09-20T10:13:29Z</time>
      </trkpt>
      <trkpt lat="43.83561" lon="7.07087">
        <ele>833.8</ele>
        <time>2021-09-20T10:13:31Z</time>
      </trkpt>
      <trkpt lat="43.83558" lon="7.07094">
        <ele>833.7</ele>
        <time>2021-09-20T10:13:32Z</time>
      </trkpt>
      <trkpt lat="43.83554" lon="7.07104">
        <ele>833.6</ele>
        <time>2021-09-20T10:13:34Z</time>
      </trkpt>
      <trkpt lat="43.83552" lon="7.07113">
        <ele>833.4</ele>
        <time>2021-09-20T10:13:35Z</time>
      </trkpt>
      <trkpt lat="43.83551" lon="7.0712">
        <ele>833.3</ele>
        <time>2021-09-20T10:13:36Z</time>
      </trkpt>
      <trkpt lat="43.83553" lon="7.07134">
        <ele>833.2</ele>
        <time>2021-09-20T10:13:38Z</time>
      </trkpt>
      <trkpt lat="43.83554" lon="7.0714">
        <ele>833.1</ele>
        <time>2021-09-20T10:13:39Z</time>
      </trkpt>
      <trkpt lat="43.83554" lon="7.07149">
        <ele>833</ele>
        <time>2021-09-20T10:13:40Z</time>
      </trkpt>
      <trkpt lat="43.83554" lon="7.07154">
        <ele>833</ele>
        <time>2021-09-20T10:13:41Z</time>
      </trkpt>
      <trkpt lat="43.83556" lon="7.07163">
        <ele>832.9</ele>
        <time>2021-09-20T10:13:42Z</time>
      </trkpt>
      <trkpt lat="43.83557" lon="7.07177">
        <ele>832.9</ele>
        <time>2021-09-20T10:13:45Z</time>
      </trkpt>
      <trkpt lat="43.83559" lon="7.07189">
        <ele>832.8</ele>
        <time>2021-09-20T10:13:46Z</time>
      </trkpt>
      <trkpt lat="43.83561" lon="7.07196">
        <ele>832.7</ele>
        <time>2021-09-20T10:13:48Z</time>
      </trkpt>
      <trkpt lat="43.83565" lon="7.07212">
        <ele>832.6</ele>
        <time>2021-09-20T10:13:49Z</time>
      </trkpt>
      <trkpt lat="43.83567" lon="7.07226">
        <ele>832.5</ele>
        <time>2021-09-20T10:13:51Z</time>
      </trkpt>
      <trkpt lat="43.83568" lon="7.07234">
        <ele>832.4</ele>
        <time>2021-09-20T10:13:52Z</time>
      </trkpt>
      <trkpt lat="43.83568" lon="7.07242">
        <ele>832.3</ele>
        <time>2021-09-20T10:13:54Z</time>
      </trkpt>
      <trkpt lat="43.83568" lon="7.07247">
        <ele>832.3</ele>
        <time>2021-09-20T10:13:55Z</time>
      </trkpt>
      <trkpt lat="43.83567" lon="7.07252">
        <ele>832.2</ele>
        <time>2021-09-20T10:13:56Z</time>
      </trkpt>
      <trkpt lat="43.83568" lon="7.07261">
        <ele>832.1</ele>
        <time>2021-09-20T10:13:58Z</time>
      </trkpt>
      <trkpt lat="43.83569" lon="7.07268">
        <ele>832</ele>
        <time>2021-09-20T10:13:59Z</time>
      </trkpt>
      <trkpt lat="43.8357" lon="7.07274">
        <ele>831.9</ele>
        <time>2021-09-20T10:14:00Z</time>
      </trkpt>
      <trkpt lat="43.83572" lon="7.07279">
        <ele>831.8</ele>
        <time>2021-09-20T10:14:01Z</time>
      </trkpt>
      <trkpt lat="43.83574" lon="7.07286">
        <ele>831.7</ele>
        <time>2021-09-20T10:14:02Z</time>
      </trkpt>
      <trkpt lat="43.83574" lon="7.07293">
        <ele>831.7</ele>
        <time>2021-09-20T10:14:04Z</time>
      </trkpt>
      <trkpt lat="43.83575" lon="7.07303">
        <ele>831.6</ele>
        <time>2021-09-20T10:14:05Z</time>
      </trkpt>
      <trkpt lat="43.83578" lon="7.07317">
        <ele>831.4</ele>
        <time>2021-09-20T10:14:07Z</time>
      </trkpt>
      <trkpt lat="43.83579" lon="7.07324">
        <ele>831.4</ele>
        <time>2021-09-20T10:14:08Z</time>
      </trkpt>
      <trkpt lat="43.83581" lon="7.07332">
        <ele>831.3</ele>
        <time>2021-09-20T10:14:09Z</time>
      </trkpt>
      <trkpt lat="43.83583" lon="7.07342">
        <ele>831.3</ele>
        <time>2021-09-20T10:14:11Z</time>
      </trkpt>
      <trkpt lat="43.83584" lon="7.07349">
        <ele>831.2</ele>
        <time>2021-09-20T10:14:12Z</time>
      </trkpt>
      <trkpt lat="43.83587" lon="7.07358">
        <ele>831.2</ele>
        <time>2021-09-20T10:14:14Z</time>
      </trkpt>
      <trkpt lat="43.8359" lon="7.07363">
        <ele>831.1</ele>
        <time>2021-09-20T10:14:15Z</time>
      </trkpt>
      <trkpt lat="43.83593" lon="7.07368">
        <ele>831.1</ele>
        <time>2021-09-20T10:14:16Z</time>
      </trkpt>
      <trkpt lat="43.83595" lon="7.07373">
        <ele>831</ele>
        <time>2021-09-20T10:14:17Z</time>
      </trkpt>
      <trkpt lat="43.83597" lon="7.07381">
        <ele>830.9</ele>
        <time>2021-09-20T10:14:19Z</time>
      </trkpt>
      <trkpt lat="43.836" lon="7.07386">
        <ele>830.9</ele>
        <time>2021-09-20T10:14:20Z</time>
      </trkpt>
      <trkpt lat="43.83604" lon="7.07394">
        <ele>830.8</ele>
        <time>2021-09-20T10:14:21Z</time>
      </trkpt>
      <trkpt lat="43.83607" lon="7.07402">
        <ele>830.8</ele>
        <time>2021-09-20T10:14:23Z</time>
      </trkpt>
      <trkpt lat="43.83609" lon="7.07408">
        <ele>830.7</ele>
        <time>2021-09-20T10:14:24Z</time>
      </trkpt>
      <trkpt lat="43.83608" lon="7.07411">
        <ele>830.7</ele>
        <time>2021-09-20T10:14:25Z</time>
      </trkpt>
      <trkpt lat="43.83608" lon="7.07414">
        <ele>830.7</ele>
        <time>2021-09-20T10:14:26Z</time>
      </trkpt>
      <trkpt lat="43.83608" lon="7.07419">
        <ele>830.7</ele>
        <time>2021-09-20T10:14:28Z</time>
      </trkpt>
      <trkpt lat="43.8361" lon="7.07424">
        <ele>830.7</ele>
        <time>2021-09-20T10:14:29Z</time>
      </trkpt>
      <trkpt lat="43.83612" lon="7.07433">
        <ele>830.6</ele>
        <time>2021-09-20T10:14:31Z</time>
      </trkpt>
      <trkpt lat="43.83613" lon="7.07437">
        <ele>830.6</ele>
        <time>2021-09-20T10:14:32Z</time>
      </trkpt>
      <trkpt lat="43.83613" lon="7.07441">
        <ele>830.5</ele>
        <time>2021-09-20T10:14:33Z</time>
      </trkpt>
      <trkpt lat="43.83613" lon="7.07446">
        <ele>830.5</ele>
        <time>2021-09-20T10:14:34Z</time>
      </trkpt>
      <trkpt lat="43.83612" lon="7.07451">
        <ele>830.4</ele>
        <time>2021-09-20T10:14:35Z</time>
      </trkpt>
      <trkpt lat="43.83612" lon="7.07457">
        <ele>830.3</ele>
        <time>2021-09-20T10:14:36Z</time>
      </trkpt>
      <trkpt lat="43.83612" lon="7.07464">
        <ele>830.2</ele>
        <time>2021-09-20T10:14:38Z</time>
      </trkpt>
      <trkpt lat="43.83613" lon="7.07471">
        <ele>830.1</ele>
        <time>2021-09-20T10:14:39Z</time>
      </trkpt>
      <trkpt lat="43.83613" lon="7.07474">
        <ele>830.1</ele>
        <time>2021-09-20T10:14:40Z</time>
      </trkpt>
      <trkpt lat="43.83614" lon="7.0748">
        <ele>830</ele>
        <time>2021-09-20T10:14:42Z</time>
      </trkpt>
      <trkpt lat="43.83614" lon="7.07489">
        <ele>829.9</ele>
        <time>2021-09-20T10:14:43Z</time>
      </trkpt>
      <trkpt lat="43.83613" lon="7.07496">
        <ele>829.9</ele>
        <time>2021-09-20T10:14:45Z</time>
      </trkpt>
      <trkpt lat="43.83613" lon="7.07506">
        <ele>829.8</ele>
        <time>2021-09-20T10:14:46Z</time>
      </trkpt>
      <trkpt lat="43.83614" lon="7.07522">
        <ele>829.7</ele>
        <time>2021-09-20T10:14:48Z</time>
      </trkpt>
      <trkpt lat="43.83613" lon="7.07536">
        <ele>829.7</ele>
        <time>2021-09-20T10:14:50Z</time>
      </trkpt>
      <trkpt lat="43.83613" lon="7.07551">
        <ele>829.6</ele>
        <time>2021-09-20T10:14:52Z</time>
      </trkpt>
      <trkpt lat="43.83612" lon="7.07557">
        <ele>829.5</ele>
        <time>2021-09-20T10:14:53Z</time>
      </trkpt>
      <trkpt lat="43.83611" lon="7.07567">
        <ele>829.4</ele>
        <time>2021-09-20T10:14:55Z</time>
      </trkpt>
      <trkpt lat="43.83614" lon="7.0758">
        <ele>829.2</ele>
        <time>2021-09-20T10:14:56Z</time>
      </trkpt>
      <trkpt lat="43.83617" lon="7.07591">
        <ele>829</ele>
        <time>2021-09-20T10:14:58Z</time>
      </trkpt>
      <trkpt lat="43.83618" lon="7.07598">
        <ele>828.9</ele>
        <time>2021-09-20T10:14:59Z</time>
      </trkpt>
      <trkpt lat="43.83618" lon="7.07607">
        <ele>828.8</ele>
        <time>2021-09-20T10:15:01Z</time>
      </trkpt>
      <trkpt lat="43.83618" lon="7.07614">
        <ele>828.8</ele>
        <time>2021-09-20T10:15:02Z</time>
      </trkpt>
      <trkpt lat="43.83617" lon="7.0762">
        <ele>828.7</ele>
        <time>2021-09-20T10:15:03Z</time>
      </trkpt>
      <trkpt lat="43.83617" lon="7.07627">
        <ele>828.6</ele>
        <time>2021-09-20T10:15:04Z</time>
      </trkpt>
      <trkpt lat="43.83617" lon="7.07633">
        <ele>828.6</ele>
        <time>2021-09-20T10:15:05Z</time>
      </trkpt>
      <trkpt lat="43.83617" lon="7.07643">
        <ele>828.5</ele>
        <time>2021-09-20T10:15:07Z</time>
      </trkpt>
      <trkpt lat="43.83617" lon="7.07649">
        <ele>828.4</ele>
        <time>2021-09-20T10:15:08Z</time>
      </trkpt>
      <trkpt lat="43.83618" lon="7.07661">
        <ele>828.3</ele>
        <time>2021-09-20T10:15:10Z</time>
      </trkpt>
      <trkpt lat="43.83617" lon="7.07671">
        <ele>828.2</ele>
        <time>2021-09-20T10:15:11Z</time>
      </trkpt>
      <trkpt lat="43.83615" lon="7.07678">
        <ele>828.1</ele>
        <time>2021-09-20T10:15:13Z</time>
      </trkpt>
      <trkpt lat="43.83612" lon="7.07684">
        <ele>828</ele>
        <time>2021-09-20T10:15:14Z</time>
      </trkpt>
      <trkpt lat="43.8361" lon="7.07693">
        <ele>827.9</ele>
        <time>2021-09-20T10:15:16Z</time>
      </trkpt>
      <trkpt lat="43.83608" lon="7.07697">
        <ele>827.9</ele>
        <time>2021-09-20T10:15:17Z</time>
      </trkpt>
      <trkpt lat="43.83605" lon="7.07702">
        <ele>827.8</ele>
        <time>2021-09-20T10:15:18Z</time>
      </trkpt>
      <trkpt lat="43.83604" lon="7.07708">
        <ele>827.7</ele>
        <time>2021-09-20T10:15:19Z</time>
      </trkpt>
      <trkpt lat="43.83603" lon="7.07714">
        <ele>827.5</ele>
        <time>2021-09-20T10:15:21Z</time>
      </trkpt>
      <trkpt lat="43.83601" lon="7.07722">
        <ele>827.4</ele>
        <time>2021-09-20T10:15:22Z</time>
      </trkpt>
      <trkpt lat="43.836" lon="7.07733">
        <ele>827.3</ele>
        <time>2021-09-20T10:15:24Z</time>
      </trkpt>
      <trkpt lat="43.83597" lon="7.07747">
        <ele>827.2</ele>
        <time>2021-09-20T10:15:26Z</time>
      </trkpt>
      <trkpt lat="43.83595" lon="7.07758">
        <ele>827</ele>
        <time>2021-09-20T10:15:27Z</time>
      </trkpt>
      <trkpt lat="43.83594" lon="7.07767">
        <ele>826.9</ele>
        <time>2021-09-20T10:15:29Z</time>
      </trkpt>
      <trkpt lat="43.83594" lon="7.07774">
        <ele>826.9</ele>
        <time>2021-09-20T10:15:30Z</time>
      </trkpt>
      <trkpt lat="43.83593" lon="7.07785">
        <ele>826.8</ele>
        <time>2021-09-20T10:15:32Z</time>
      </trkpt>
      <trkpt lat="43.83592" lon="7.07797">
        <ele>826.8</ele>
        <time>2021-09-20T10:15:33Z</time>
      </trkpt>
      <trkpt lat="43.83591" lon="7.07804">
        <ele>826.7</ele>
        <time>2021-09-20T10:15:35Z</time>
      </trkpt>
      <trkpt lat="43.83589" lon="7.07812">
        <ele>826.6</ele>
        <time>2021-09-20T10:15:36Z</time>
      </trkpt>
      <trkpt lat="43.83588" lon="7.07822">
        <ele>826.5</ele>
        <time>2021-09-20T10:15:38Z</time>
      </trkpt>
      <trkpt lat="43.83586" lon="7.07827">
        <ele>826.4</ele>
        <time>2021-09-20T10:15:39Z</time>
      </trkpt>
      <trkpt lat="43.83584" lon="7.07836">
        <ele>826.2</ele>
        <time>2021-09-20T10:15:40Z</time>
      </trkpt>
      <trkpt lat="43.83583" lon="7.07842">
        <ele>826.1</ele>
        <time>2021-09-20T10:15:42Z</time>
      </trkpt>
      <trkpt lat="43.83581" lon="7.07847">
        <ele>826.1</ele>
        <time>2021-09-20T10:15:43Z</time>
      </trkpt>
      <trkpt lat="43.83579" lon="7.07854">
        <ele>826</ele>
        <time>2021-09-20T10:15:44Z</time>
      </trkpt>
      <trkpt lat="43.83577" lon="7.0786">
        <ele>826</ele>
        <time>2021-09-20T10:15:45Z</time>
      </trkpt>
      <trkpt lat="43.83576" lon="7.07867">
        <ele>825.9</ele>
        <time>2021-09-20T10:15:47Z</time>
      </trkpt>
      <trkpt lat="43.83574" lon="7.07873">
        <ele>825.9</ele>
        <time>2021-09-20T10:15:48Z</time>
      </trkpt>
      <trkpt lat="43.83572" lon="7.07878">
        <ele>825.8</ele>
        <time>2021-09-20T10:15:50Z</time>
      </trkpt>
      <trkpt lat="43.8357" lon="7.07885">
        <ele>825.7</ele>
        <time>2021-09-20T10:15:51Z</time>
      </trkpt>
      <trkpt lat="43.83569" lon="7.07891">
        <ele>825.6</ele>
        <time>2021-09-20T10:15:52Z</time>
      </trkpt>
      <trkpt lat="43.83568" lon="7.07901">
        <ele>825.5</ele>
        <time>2021-09-20T10:15:54Z</time>
      </trkpt>
      <trkpt lat="43.83566" lon="7.0791">
        <ele>825.4</ele>
        <time>2021-09-20T10:15:55Z</time>
      </trkpt>
      <trkpt lat="43.83565" lon="7.07917">
        <ele>825.3</ele>
        <time>2021-09-20T10:15:57Z</time>
      </trkpt>
      <trkpt lat="43.83563" lon="7.07928">
        <ele>825.2</ele>
        <time>2021-09-20T10:15:58Z</time>
      </trkpt>
      <trkpt lat="43.83563" lon="7.07943">
        <ele>824.9</ele>
        <time>2021-09-20T10:16:00Z</time>
      </trkpt>
      <trkpt lat="43.83564" lon="7.07953">
        <ele>824.8</ele>
        <time>2021-09-20T10:16:01Z</time>
      </trkpt>
      <trkpt lat="43.83564" lon="7.0797">
        <ele>824.6</ele>
        <time>2021-09-20T10:16:03Z</time>
      </trkpt>
      <trkpt lat="43.83564" lon="7.07977">
        <ele>824.5</ele>
        <time>2021-09-20T10:16:04Z</time>
      </trkpt>
      <trkpt lat="43.83564" lon="7.07983">
        <ele>824.4</ele>
        <time>2021-09-20T10:16:05Z</time>
      </trkpt>
      <trkpt lat="43.83562" lon="7.07991">
        <ele>824.4</ele>
        <time>2021-09-20T10:16:07Z</time>
      </trkpt>
      <trkpt lat="43.83561" lon="7.07998">
        <ele>824.4</ele>
        <time>2021-09-20T10:16:08Z</time>
      </trkpt>
      <trkpt lat="43.8356" lon="7.08007">
        <ele>824.4</ele>
        <time>2021-09-20T10:16:10Z</time>
      </trkpt>
      <trkpt lat="43.83557" lon="7.08018">
        <ele>824.3</ele>
        <time>2021-09-20T10:16:12Z</time>
      </trkpt>
      <trkpt lat="43.83556" lon="7.08024">
        <ele>824.2</ele>
        <time>2021-09-20T10:16:13Z</time>
      </trkpt>
      <trkpt lat="43.83555" lon="7.08029">
        <ele>824.2</ele>
        <time>2021-09-20T10:16:14Z</time>
      </trkpt>
      <trkpt lat="43.83553" lon="7.08034">
        <ele>824.1</ele>
        <time>2021-09-20T10:16:16Z</time>
      </trkpt>
      <trkpt lat="43.83551" lon="7.08037">
        <ele>824.1</ele>
        <time>2021-09-20T10:16:17Z</time>
      </trkpt>
      <trkpt lat="43.8355" lon="7.08041">
        <ele>824</ele>
        <time>2021-09-20T10:16:19Z</time>
      </trkpt>
      <trkpt lat="43.83549" lon="7.08049">
        <ele>823.9</ele>
        <time>2021-09-20T10:16:21Z</time>
      </trkpt>
      <trkpt lat="43.83548" lon="7.08057">
        <ele>823.8</ele>
        <time>2021-09-20T10:16:23Z</time>
      </trkpt>
      <trkpt lat="43.83549" lon="7.08073">
        <ele>823.7</ele>
        <time>2021-09-20T10:16:24Z</time>
      </trkpt>
      <trkpt lat="43.83551" lon="7.08087">
        <ele>823.5</ele>
        <time>2021-09-20T10:16:26Z</time>
      </trkpt>
      <trkpt lat="43.83552" lon="7.08098">
        <ele>823.4</ele>
        <time>2021-09-20T10:16:28Z</time>
      </trkpt>
      <trkpt lat="43.83552" lon="7.08106">
        <ele>823.3</ele>
        <time>2021-09-20T10:16:29Z</time>
      </trkpt>
      <trkpt lat="43.83552" lon="7.08114">
        <ele>823.2</ele>
        <time>2021-09-20T10:16:30Z</time>
      </trkpt>
      <trkpt lat="43.8355" lon="7.08126">
        <ele>823.1</ele>
        <time>2021-09-20T10:16:31Z</time>
      </trkpt>
      <trkpt lat="43.8355" lon="7.08134">
        <ele>823</ele>
        <time>2021-09-20T10:16:32Z</time>
      </trkpt>
      <trkpt lat="43.83551" lon="7.08151">
        <ele>823</ele>
        <time>2021-09-20T10:16:34Z</time>
      </trkpt>
      <trkpt lat="43.83552" lon="7.08157">
        <ele>822.9</ele>
        <time>2021-09-20T10:16:35Z</time>
      </trkpt>
      <trkpt lat="43.83553" lon="7.08161">
        <ele>822.9</ele>
        <time>2021-09-20T10:16:36Z</time>
      </trkpt>
      <trkpt lat="43.83556" lon="7.08174">
        <ele>822.8</ele>
        <time>2021-09-20T10:16:38Z</time>
      </trkpt>
      <trkpt lat="43.83562" lon="7.08193">
        <ele>822.4</ele>
        <time>2021-09-20T10:16:40Z</time>
      </trkpt>
      <trkpt lat="43.83562" lon="7.082">
        <ele>822.1</ele>
        <time>2021-09-20T10:16:41Z</time>
      </trkpt>
      <trkpt lat="43.83562" lon="7.08208">
        <ele>822.2</ele>
        <time>2021-09-20T10:16:42Z</time>
      </trkpt>
      <trkpt lat="43.83564" lon="7.08215">
        <ele>822.2</ele>
        <time>2021-09-20T10:16:43Z</time>
      </trkpt>
      <trkpt lat="43.8357" lon="7.08227">
        <ele>822.2</ele>
        <time>2021-09-20T10:16:45Z</time>
      </trkpt>
      <trkpt lat="43.83574" lon="7.08241">
        <ele>822.3</ele>
        <time>2021-09-20T10:16:47Z</time>
      </trkpt>
      <trkpt lat="43.83576" lon="7.08249">
        <ele>822.3</ele>
        <time>2021-09-20T10:16:48Z</time>
      </trkpt>
      <trkpt lat="43.83577" lon="7.08256">
        <ele>822.4</ele>
        <time>2021-09-20T10:16:49Z</time>
      </trkpt>
      <trkpt lat="43.8358" lon="7.08268">
        <ele>822.5</ele>
        <time>2021-09-20T10:16:51Z</time>
      </trkpt>
      <trkpt lat="43.83581" lon="7.08274">
        <ele>822.5</ele>
        <time>2021-09-20T10:16:52Z</time>
      </trkpt>
      <trkpt lat="43.83582" lon="7.08284">
        <ele>822.5</ele>
        <time>2021-09-20T10:16:54Z</time>
      </trkpt>
      <trkpt lat="43.83582" lon="7.08292">
        <ele>822.5</ele>
        <time>2021-09-20T10:16:55Z</time>
      </trkpt>
      <trkpt lat="43.83582" lon="7.08308">
        <ele>822.4</ele>
        <time>2021-09-20T10:16:57Z</time>
      </trkpt>
      <trkpt lat="43.83584" lon="7.08319">
        <ele>822.4</ele>
        <time>2021-09-20T10:16:58Z</time>
      </trkpt>
      <trkpt lat="43.83584" lon="7.08325">
        <ele>822.4</ele>
        <time>2021-09-20T10:16:59Z</time>
      </trkpt>
      <trkpt lat="43.83585" lon="7.08332">
        <ele>822.4</ele>
        <time>2021-09-20T10:17:00Z</time>
      </trkpt>
      <trkpt lat="43.83585" lon="7.08339">
        <ele>822.5</ele>
        <time>2021-09-20T10:17:02Z</time>
      </trkpt>
      <trkpt lat="43.83585" lon="7.08351">
        <ele>822.5</ele>
        <time>2021-09-20T10:17:04Z</time>
      </trkpt>
      <trkpt lat="43.83585" lon="7.08362">
        <ele>822.5</ele>
        <time>2021-09-20T10:17:05Z</time>
      </trkpt>
      <trkpt lat="43.83586" lon="7.08369">
        <ele>822.5</ele>
        <time>2021-09-20T10:17:06Z</time>
      </trkpt>
      <trkpt lat="43.83588" lon="7.08384">
        <ele>822.5</ele>
        <time>2021-09-20T10:17:08Z</time>
      </trkpt>
      <trkpt lat="43.83591" lon="7.08393">
        <ele>822.4</ele>
        <time>2021-09-20T10:17:10Z</time>
      </trkpt>
      <trkpt lat="43.83593" lon="7.08395">
        <ele>822.4</ele>
        <time>2021-09-20T10:17:11Z</time>
      </trkpt>
      <trkpt lat="43.83594" lon="7.08404">
        <ele>822.5</ele>
        <time>2021-09-20T10:17:12Z</time>
      </trkpt>
      <trkpt lat="43.83595" lon="7.08412">
        <ele>822.5</ele>
        <time>2021-09-20T10:17:13Z</time>
      </trkpt>
      <trkpt lat="43.83596" lon="7.08419">
        <ele>822.5</ele>
        <time>2021-09-20T10:17:15Z</time>
      </trkpt>
      <trkpt lat="43.83597" lon="7.08425">
        <ele>822.6</ele>
        <time>2021-09-20T10:17:16Z</time>
      </trkpt>
      <trkpt lat="43.83599" lon="7.08432">
        <ele>822.6</ele>
        <time>2021-09-20T10:17:17Z</time>
      </trkpt>
      <trkpt lat="43.836" lon="7.08438">
        <ele>822.6</ele>
        <time>2021-09-20T10:17:18Z</time>
      </trkpt>
      <trkpt lat="43.83601" lon="7.08445">
        <ele>822.6</ele>
        <time>2021-09-20T10:17:19Z</time>
      </trkpt>
      <trkpt lat="43.83603" lon="7.08454">
        <ele>822.6</ele>
        <time>2021-09-20T10:17:21Z</time>
      </trkpt>
      <trkpt lat="43.83603" lon="7.0846">
        <ele>822.6</ele>
        <time>2021-09-20T10:17:22Z</time>
      </trkpt>
      <trkpt lat="43.83605" lon="7.08469">
        <ele>822.6</ele>
        <time>2021-09-20T10:17:23Z</time>
      </trkpt>
      <trkpt lat="43.83606" lon="7.08477">
        <ele>822.6</ele>
        <time>2021-09-20T10:17:25Z</time>
      </trkpt>
      <trkpt lat="43.83606" lon="7.08483">
        <ele>822.6</ele>
        <time>2021-09-20T10:17:26Z</time>
      </trkpt>
      <trkpt lat="43.83606" lon="7.08492">
        <ele>822.6</ele>
        <time>2021-09-20T10:17:27Z</time>
      </trkpt>
      <trkpt lat="43.83605" lon="7.08498">
        <ele>822.7</ele>
        <time>2021-09-20T10:17:28Z</time>
      </trkpt>
      <trkpt lat="43.83605" lon="7.08505">
        <ele>822.7</ele>
        <time>2021-09-20T10:17:29Z</time>
      </trkpt>
      <trkpt lat="43.83604" lon="7.08512">
        <ele>822.7</ele>
        <time>2021-09-20T10:17:31Z</time>
      </trkpt>
      <trkpt lat="43.83603" lon="7.08521">
        <ele>822.8</ele>
        <time>2021-09-20T10:17:32Z</time>
      </trkpt>
      <trkpt lat="43.83602" lon="7.08528">
        <ele>822.8</ele>
        <time>2021-09-20T10:17:33Z</time>
      </trkpt>
      <trkpt lat="43.83602" lon="7.0854">
        <ele>822.8</ele>
        <time>2021-09-20T10:17:35Z</time>
      </trkpt>
      <trkpt lat="43.83607" lon="7.08547">
        <ele>822.8</ele>
        <time>2021-09-20T10:17:37Z</time>
      </trkpt>
      <trkpt lat="43.83606" lon="7.08555">
        <ele>822.8</ele>
        <time>2021-09-20T10:17:38Z</time>
      </trkpt>
      <trkpt lat="43.83605" lon="7.08566">
        <ele>822.8</ele>
        <time>2021-09-20T10:17:39Z</time>
      </trkpt>
      <trkpt lat="43.83601" lon="7.08573">
        <ele>822.8</ele>
        <time>2021-09-20T10:17:40Z</time>
      </trkpt>
      <trkpt lat="43.83602" lon="7.08579">
        <ele>822.8</ele>
        <time>2021-09-20T10:17:41Z</time>
      </trkpt>
      <trkpt lat="43.83605" lon="7.08584">
        <ele>822.8</ele>
        <time>2021-09-20T10:17:42Z</time>
      </trkpt>
      <trkpt lat="43.83609" lon="7.08592">
        <ele>822.9</ele>
        <time>2021-09-20T10:17:44Z</time>
      </trkpt>
      <trkpt lat="43.83613" lon="7.08605">
        <ele>823</ele>
        <time>2021-09-20T10:17:46Z</time>
      </trkpt>
      <trkpt lat="43.83614" lon="7.08617">
        <ele>823</ele>
        <time>2021-09-20T10:17:48Z</time>
      </trkpt>
      <trkpt lat="43.83615" lon="7.08624">
        <ele>823</ele>
        <time>2021-09-20T10:17:49Z</time>
      </trkpt>
      <trkpt lat="43.83616" lon="7.0863">
        <ele>823</ele>
        <time>2021-09-20T10:17:50Z</time>
      </trkpt>
      <trkpt lat="43.83617" lon="7.08646">
        <ele>823</ele>
        <time>2021-09-20T10:17:52Z</time>
      </trkpt>
      <trkpt lat="43.83619" lon="7.08653">
        <ele>823</ele>
        <time>2021-09-20T10:17:53Z</time>
      </trkpt>
      <trkpt lat="43.8362" lon="7.0866">
        <ele>823</ele>
        <time>2021-09-20T10:17:54Z</time>
      </trkpt>
      <trkpt lat="43.83621" lon="7.08669">
        <ele>823</ele>
        <time>2021-09-20T10:17:55Z</time>
      </trkpt>
      <trkpt lat="43.83621" lon="7.08675">
        <ele>823</ele>
        <time>2021-09-20T10:17:57Z</time>
      </trkpt>
      <trkpt lat="43.83623" lon="7.08684">
        <ele>823</ele>
        <time>2021-09-20T10:17:58Z</time>
      </trkpt>
      <trkpt lat="43.83624" lon="7.08689">
        <ele>823</ele>
        <time>2021-09-20T10:18:00Z</time>
      </trkpt>
      <trkpt lat="43.83624" lon="7.08695">
        <ele>823.1</ele>
        <time>2021-09-20T10:18:01Z</time>
      </trkpt>
      <trkpt lat="43.83626" lon="7.08708">
        <ele>823.1</ele>
        <time>2021-09-20T10:18:03Z</time>
      </trkpt>
      <trkpt lat="43.83627" lon="7.08719">
        <ele>823.2</ele>
        <time>2021-09-20T10:18:05Z</time>
      </trkpt>
      <trkpt lat="43.83628" lon="7.08728">
        <ele>823.3</ele>
        <time>2021-09-20T10:18:06Z</time>
      </trkpt>
      <trkpt lat="43.83628" lon="7.08735">
        <ele>823.3</ele>
        <time>2021-09-20T10:18:07Z</time>
      </trkpt>
      <trkpt lat="43.8363" lon="7.08741">
        <ele>823.3</ele>
        <time>2021-09-20T10:18:08Z</time>
      </trkpt>
      <trkpt lat="43.83631" lon="7.08746">
        <ele>823.3</ele>
        <time>2021-09-20T10:18:09Z</time>
      </trkpt>
      <trkpt lat="43.83631" lon="7.08753">
        <ele>823.3</ele>
        <time>2021-09-20T10:18:10Z</time>
      </trkpt>
      <trkpt lat="43.8363" lon="7.08758">
        <ele>823.3</ele>
        <time>2021-09-20T10:18:12Z</time>
      </trkpt>
      <trkpt lat="43.83628" lon="7.0876">
        <ele>823.2</ele>
        <time>2021-09-20T10:18:13Z</time>
      </trkpt>
      <trkpt lat="43.83626" lon="7.08761">
        <ele>823.2</ele>
        <time>2021-09-20T10:18:14Z</time>
      </trkpt>
      <trkpt lat="43.83626" lon="7.08765">
        <ele>823.2</ele>
        <time>2021-09-20T10:18:15Z</time>
      </trkpt>
      <trkpt lat="43.83626" lon="7.08767">
        <ele>823.2</ele>
        <time>2021-09-20T10:18:16Z</time>
      </trkpt>
      <trkpt lat="43.83627" lon="7.08769">
        <ele>823.2</ele>
        <time>2021-09-20T10:18:17Z</time>
      </trkpt>
      <trkpt lat="43.83627" lon="7.08772">
        <ele>823.2</ele>
        <time>2021-09-20T10:18:19Z</time>
      </trkpt>
      <trkpt lat="43.83628" lon="7.08775">
        <ele>823.2</ele>
        <time>2021-09-20T10:18:20Z</time>
      </trkpt>
      <trkpt lat="43.83607" lon="7.0892">
        <ele>823</ele>
        <time>2021-09-20T10:18:47Z</time>
      </trkpt>
      <trkpt lat="43.83609" lon="7.08931">
        <ele>822.9</ele>
        <time>2021-09-20T10:18:49Z</time>
      </trkpt>
      <trkpt lat="43.83612" lon="7.08945">
        <ele>822.9</ele>
        <time>2021-09-20T10:18:51Z</time>
      </trkpt>
      <trkpt lat="43.83615" lon="7.08954">
        <ele>822.9</ele>
        <time>2021-09-20T10:18:53Z</time>
      </trkpt>
      <trkpt lat="43.83617" lon="7.08961">
        <ele>823</ele>
        <time>2021-09-20T10:18:54Z</time>
      </trkpt>
      <trkpt lat="43.8362" lon="7.0897">
        <ele>823</ele>
        <time>2021-09-20T10:18:55Z</time>
      </trkpt>
      <trkpt lat="43.83622" lon="7.08977">
        <ele>823</ele>
        <time>2021-09-20T10:18:56Z</time>
      </trkpt>
      <trkpt lat="43.83627" lon="7.08988">
        <ele>823.1</ele>
        <time>2021-09-20T10:18:58Z</time>
      </trkpt>
      <trkpt lat="43.8363" lon="7.09002">
        <ele>823.3</ele>
        <time>2021-09-20T10:19:00Z</time>
      </trkpt>
      <trkpt lat="43.83631" lon="7.09004">
        <ele>823.3</ele>
        <time>2021-09-20T10:19:01Z</time>
      </trkpt>
      <trkpt lat="43.83632" lon="7.09012">
        <ele>823.3</ele>
        <time>2021-09-20T10:19:03Z</time>
      </trkpt>
      <trkpt lat="43.83634" lon="7.09021">
        <ele>823.4</ele>
        <time>2021-09-20T10:19:04Z</time>
      </trkpt>
      <trkpt lat="43.83637" lon="7.09026">
        <ele>823.4</ele>
        <time>2021-09-20T10:19:05Z</time>
      </trkpt>
      <trkpt lat="43.83638" lon="7.09029">
        <ele>823.4</ele>
        <time>2021-09-20T10:19:06Z</time>
      </trkpt>
      <trkpt lat="43.83643" lon="7.09032">
        <ele>823.4</ele>
        <time>2021-09-20T10:19:07Z</time>
      </trkpt>
      <trkpt lat="43.83646" lon="7.09037">
        <ele>823.4</ele>
        <time>2021-09-20T10:19:08Z</time>
      </trkpt>
      <trkpt lat="43.83649" lon="7.0904">
        <ele>823.3</ele>
        <time>2021-09-20T10:19:09Z</time>
      </trkpt>
      <trkpt lat="43.83653" lon="7.09046">
        <ele>823.3</ele>
        <time>2021-09-20T10:19:11Z</time>
      </trkpt>
      <trkpt lat="43.83655" lon="7.0905">
        <ele>823.3</ele>
        <time>2021-09-20T10:19:12Z</time>
      </trkpt>
      <trkpt lat="43.83656" lon="7.09052">
        <ele>823.2</ele>
        <time>2021-09-20T10:19:13Z</time>
      </trkpt>
      <trkpt lat="43.83657" lon="7.09054">
        <ele>823.2</ele>
        <time>2021-09-20T10:19:14Z</time>
      </trkpt>
      <trkpt lat="43.8366" lon="7.09062">
        <ele>823.2</ele>
        <time>2021-09-20T10:19:16Z</time>
      </trkpt>
      <trkpt lat="43.83663" lon="7.09102">
        <ele>823.1</ele>
        <time>2021-09-20T10:19:22Z</time>
      </trkpt>
      <trkpt lat="43.83657" lon="7.09114">
        <ele>823.1</ele>
        <time>2021-09-20T10:19:23Z</time>
      </trkpt>
      <trkpt lat="43.83652" lon="7.09121">
        <ele>823.1</ele>
        <time>2021-09-20T10:19:25Z</time>
      </trkpt>
      <trkpt lat="43.83647" lon="7.09133">
        <ele>823.1</ele>
        <time>2021-09-20T10:19:27Z</time>
      </trkpt>
      <trkpt lat="43.83644" lon="7.09145">
        <ele>823</ele>
        <time>2021-09-20T10:19:29Z</time>
      </trkpt>
      <trkpt lat="43.83642" lon="7.09153">
        <ele>823</ele>
        <time>2021-09-20T10:19:30Z</time>
      </trkpt>
      <trkpt lat="43.83641" lon="7.09158">
        <ele>823.1</ele>
        <time>2021-09-20T10:19:31Z</time>
      </trkpt>
      <trkpt lat="43.83641" lon="7.09166">
        <ele>823.1</ele>
        <time>2021-09-20T10:19:33Z</time>
      </trkpt>
      <trkpt lat="43.83642" lon="7.09174">
        <ele>823.1</ele>
        <time>2021-09-20T10:19:34Z</time>
      </trkpt>
      <trkpt lat="43.83643" lon="7.09179">
        <ele>823.1</ele>
        <time>2021-09-20T10:19:35Z</time>
      </trkpt>
      <trkpt lat="43.83644" lon="7.09186">
        <ele>823.2</ele>
        <time>2021-09-20T10:19:37Z</time>
      </trkpt>
      <trkpt lat="43.83645" lon="7.09197">
        <ele>823.2</ele>
        <time>2021-09-20T10:19:38Z</time>
      </trkpt>
      <trkpt lat="43.83647" lon="7.09206">
        <ele>823.3</ele>
        <time>2021-09-20T10:19:40Z</time>
      </trkpt>
      <trkpt lat="43.8365" lon="7.09217">
        <ele>823.3</ele>
        <time>2021-09-20T10:19:41Z</time>
      </trkpt>
      <trkpt lat="43.83652" lon="7.09225">
        <ele>823.3</ele>
        <time>2021-09-20T10:19:43Z</time>
      </trkpt>
      <trkpt lat="43.83654" lon="7.09233">
        <ele>823.4</ele>
        <time>2021-09-20T10:19:44Z</time>
      </trkpt>
      <trkpt lat="43.83656" lon="7.09242">
        <ele>823.3</ele>
        <time>2021-09-20T10:19:45Z</time>
      </trkpt>
      <trkpt lat="43.83656" lon="7.09252">
        <ele>823.3</ele>
        <time>2021-09-20T10:19:47Z</time>
      </trkpt>
      <trkpt lat="43.83656" lon="7.09258">
        <ele>823.3</ele>
        <time>2021-09-20T10:19:48Z</time>
      </trkpt>
      <trkpt lat="43.83658" lon="7.09273">
        <ele>823.2</ele>
        <time>2021-09-20T10:19:50Z</time>
      </trkpt>
      <trkpt lat="43.83658" lon="7.09279">
        <ele>823.1</ele>
        <time>2021-09-20T10:19:51Z</time>
      </trkpt>
      <trkpt lat="43.83658" lon="7.09286">
        <ele>823.1</ele>
        <time>2021-09-20T10:19:53Z</time>
      </trkpt>
      <trkpt lat="43.83662" lon="7.09295">
        <ele>823</ele>
        <time>2021-09-20T10:19:54Z</time>
      </trkpt>
      <trkpt lat="43.8366" lon="7.09301">
        <ele>822.9</ele>
        <time>2021-09-20T10:19:56Z</time>
      </trkpt>
      <trkpt lat="43.83655" lon="7.09304">
        <ele>822.9</ele>
        <time>2021-09-20T10:19:58Z</time>
      </trkpt>
      <trkpt lat="43.83654" lon="7.09306">
        <ele>822.8</ele>
        <time>2021-09-20T10:19:59Z</time>
      </trkpt>
      <trkpt lat="43.83653" lon="7.09309">
        <ele>822.8</ele>
        <time>2021-09-20T10:20:01Z</time>
      </trkpt>
      <trkpt lat="43.83651" lon="7.09313">
        <ele>822.8</ele>
        <time>2021-09-20T10:20:02Z</time>
      </trkpt>
      <trkpt lat="43.83652" lon="7.09323">
        <ele>822.7</ele>
        <time>2021-09-20T10:20:03Z</time>
      </trkpt>
      <trkpt lat="43.83653" lon="7.09331">
        <ele>822.7</ele>
        <time>2021-09-20T10:20:04Z</time>
      </trkpt>
      <trkpt lat="43.83654" lon="7.09348">
        <ele>822.8</ele>
        <time>2021-09-20T10:20:06Z</time>
      </trkpt>
      <trkpt lat="43.83656" lon="7.09355">
        <ele>824.1</ele>
        <time>2021-09-20T10:20:07Z</time>
      </trkpt>
      <trkpt lat="43.83659" lon="7.09366">
        <ele>825.1</ele>
        <time>2021-09-20T10:20:08Z</time>
      </trkpt>
      <trkpt lat="43.83661" lon="7.09373">
        <ele>825.2</ele>
        <time>2021-09-20T10:20:09Z</time>
      </trkpt>
      <trkpt lat="43.83664" lon="7.09378">
        <ele>825.9</ele>
        <time>2021-09-20T10:20:10Z</time>
      </trkpt>
      <trkpt lat="43.83669" lon="7.09382">
        <ele>825.5</ele>
        <time>2021-09-20T10:20:12Z</time>
      </trkpt>
      <trkpt lat="43.83677" lon="7.09384">
        <ele>824.4</ele>
        <time>2021-09-20T10:20:13Z</time>
      </trkpt>
      <trkpt lat="43.83684" lon="7.09383">
        <ele>823.2</ele>
        <time>2021-09-20T10:20:14Z</time>
      </trkpt>
      <trkpt lat="43.83692" lon="7.09381">
        <ele>820.2</ele>
        <time>2021-09-20T10:20:16Z</time>
      </trkpt>
      <trkpt lat="43.83699" lon="7.09379">
        <ele>818.7</ele>
        <time>2021-09-20T10:20:17Z</time>
      </trkpt>
      <trkpt lat="43.83704" lon="7.09378">
        <ele>816.6</ele>
        <time>2021-09-20T10:20:18Z</time>
      </trkpt>
      <trkpt lat="43.8371" lon="7.09376">
        <ele>815.4</ele>
        <time>2021-09-20T10:20:20Z</time>
      </trkpt>
      <trkpt lat="43.83713" lon="7.09374">
        <ele>815</ele>
        <time>2021-09-20T10:20:21Z</time>
      </trkpt>
      <trkpt lat="43.83718" lon="7.09373">
        <ele>813.8</ele>
        <time>2021-09-20T10:20:23Z</time>
      </trkpt>
      <trkpt lat="43.8372" lon="7.09372">
        <ele>813.4</ele>
        <time>2021-09-20T10:20:24Z</time>
      </trkpt>
      <trkpt lat="43.83721" lon="7.0937">
        <ele>813.7</ele>
        <time>2021-09-20T10:20:25Z</time>
      </trkpt>
      <trkpt lat="43.83721" lon="7.09369">
        <ele>813.3</ele>
        <time>2021-09-20T10:20:27Z</time>
      </trkpt>
      <trkpt lat="43.83721" lon="7.09368">
        <ele>813.6</ele>
        <time>2021-09-20T10:20:29Z</time>
      </trkpt>
      <trkpt lat="43.83722" lon="7.09368">
        <ele>814</ele>
        <time>2021-09-20T10:20:31Z</time>
      </trkpt>
      <trkpt lat="43.83722" lon="7.09367">
        <ele>813.5</ele>
        <time>2021-09-20T10:20:32Z</time>
      </trkpt>
      <trkpt lat="43.83724" lon="7.09367">
        <ele>813.8</ele>
        <time>2021-09-20T10:20:34Z</time>
      </trkpt>
      <trkpt lat="43.83737" lon="7.09375">
        <ele>812.7</ele>
        <time>2021-09-20T10:20:55Z</time>
      </trkpt>
      <trkpt lat="43.83741" lon="7.09378">
        <ele>811.6</ele>
        <time>2021-09-20T10:20:57Z</time>
      </trkpt>
      <trkpt lat="43.83747" lon="7.09378">
        <ele>811.1</ele>
        <time>2021-09-20T10:20:58Z</time>
      </trkpt>
      <trkpt lat="43.83753" lon="7.09377">
        <ele>809.7</ele>
        <time>2021-09-20T10:21:00Z</time>
      </trkpt>
      <trkpt lat="43.83758" lon="7.09375">
        <ele>808.3</ele>
        <time>2021-09-20T10:21:01Z</time>
      </trkpt>
      <trkpt lat="43.83762" lon="7.09373">
        <ele>807</ele>
        <time>2021-09-20T10:21:02Z</time>
      </trkpt>
      <trkpt lat="43.83767" lon="7.09371">
        <ele>805.8</ele>
        <time>2021-09-20T10:21:04Z</time>
      </trkpt>
      <trkpt lat="43.83771" lon="7.0937">
        <ele>805.4</ele>
        <time>2021-09-20T10:21:05Z</time>
      </trkpt>
      <trkpt lat="43.83775" lon="7.0937">
        <ele>803.9</ele>
        <time>2021-09-20T10:21:06Z</time>
      </trkpt>
      <trkpt lat="43.83779" lon="7.0937">
        <ele>803.4</ele>
        <time>2021-09-20T10:21:07Z</time>
      </trkpt>
      <trkpt lat="43.8378" lon="7.0937">
        <ele>803.7</ele>
        <time>2021-09-20T10:21:08Z</time>
      </trkpt>
      <trkpt lat="43.83782" lon="7.09366">
        <ele>802.4</ele>
        <time>2021-09-20T10:21:10Z</time>
      </trkpt>
      <trkpt lat="43.83783" lon="7.09365">
        <ele>802.7</ele>
        <time>2021-09-20T10:21:11Z</time>
      </trkpt>
      <trkpt lat="43.83783" lon="7.0936">
        <ele>801.2</ele>
        <time>2021-09-20T10:21:12Z</time>
      </trkpt>
      <trkpt lat="43.83783" lon="7.09356">
        <ele>800.6</ele>
        <time>2021-09-20T10:21:13Z</time>
      </trkpt>
      <trkpt lat="43.83783" lon="7.09349">
        <ele>800</ele>
        <time>2021-09-20T10:21:15Z</time>
      </trkpt>
      <trkpt lat="43.8378" lon="7.09341">
        <ele>799.1</ele>
        <time>2021-09-20T10:21:16Z</time>
      </trkpt>
      <trkpt lat="43.83775" lon="7.09334">
        <ele>798.4</ele>
        <time>2021-09-20T10:21:18Z</time>
      </trkpt>
      <trkpt lat="43.83771" lon="7.09329">
        <ele>799.5</ele>
        <time>2021-09-20T10:21:19Z</time>
      </trkpt>
      <trkpt lat="43.83767" lon="7.0932">
        <ele>798.9</ele>
        <time>2021-09-20T10:21:20Z</time>
      </trkpt>
      <trkpt lat="43.83764" lon="7.09314">
        <ele>799</ele>
        <time>2021-09-20T10:21:22Z</time>
      </trkpt>
      <trkpt lat="43.83762" lon="7.09309">
        <ele>798.1</ele>
        <time>2021-09-20T10:21:23Z</time>
      </trkpt>
      <trkpt lat="43.83761" lon="7.09304">
        <ele>797.4</ele>
        <time>2021-09-20T10:21:24Z</time>
      </trkpt>
      <trkpt lat="43.83762" lon="7.09296">
        <ele>795.8</ele>
        <time>2021-09-20T10:21:25Z</time>
      </trkpt>
      <trkpt lat="43.83762" lon="7.0929">
        <ele>794.5</ele>
        <time>2021-09-20T10:21:27Z</time>
      </trkpt>
      <trkpt lat="43.83765" lon="7.09288">
        <ele>794.8</ele>
        <time>2021-09-20T10:21:28Z</time>
      </trkpt>
      <trkpt lat="43.83769" lon="7.09285">
        <ele>792.9</ele>
        <time>2021-09-20T10:21:30Z</time>
      </trkpt>
      <trkpt lat="43.83771" lon="7.09283">
        <ele>792.4</ele>
        <time>2021-09-20T10:21:31Z</time>
      </trkpt>
      <trkpt lat="43.83775" lon="7.09285">
        <ele>792.1</ele>
        <time>2021-09-20T10:21:32Z</time>
      </trkpt>
      <trkpt lat="43.83779" lon="7.09284">
        <ele>791.8</ele>
        <time>2021-09-20T10:21:34Z</time>
      </trkpt>
      <trkpt lat="43.83782" lon="7.09283">
        <ele>790.6</ele>
        <time>2021-09-20T10:21:35Z</time>
      </trkpt>
      <trkpt lat="43.83788" lon="7.09281">
        <ele>789.9</ele>
        <time>2021-09-20T10:21:37Z</time>
      </trkpt>
      <trkpt lat="43.83791" lon="7.09281">
        <ele>789.7</ele>
        <time>2021-09-20T10:21:38Z</time>
      </trkpt>
      <trkpt lat="43.83798" lon="7.0928">
        <ele>788.8</ele>
        <time>2021-09-20T10:21:39Z</time>
      </trkpt>
      <trkpt lat="43.83803" lon="7.09281">
        <ele>788.1</ele>
        <time>2021-09-20T10:21:40Z</time>
      </trkpt>
      <trkpt lat="43.83808" lon="7.09278">
        <ele>787.5</ele>
        <time>2021-09-20T10:21:41Z</time>
      </trkpt>
      <trkpt lat="43.83813" lon="7.09275">
        <ele>786.7</ele>
        <time>2021-09-20T10:21:43Z</time>
      </trkpt>
      <trkpt lat="43.83817" lon="7.09274">
        <ele>786.3</ele>
        <time>2021-09-20T10:21:45Z</time>
      </trkpt>
      <trkpt lat="43.8382" lon="7.09276">
        <ele>785.8</ele>
        <time>2021-09-20T10:21:46Z</time>
      </trkpt>
      <trkpt lat="43.83823" lon="7.09275">
        <ele>785.4</ele>
        <time>2021-09-20T10:21:48Z</time>
      </trkpt>
      <trkpt lat="43.83827" lon="7.09274">
        <ele>785</ele>
        <time>2021-09-20T10:21:49Z</time>
      </trkpt>
      <trkpt lat="43.8383" lon="7.09276">
        <ele>784.4</ele>
        <time>2021-09-20T10:21:50Z</time>
      </trkpt>
      <trkpt lat="43.83832" lon="7.09277">
        <ele>784.2</ele>
        <time>2021-09-20T10:21:51Z</time>
      </trkpt>
      <trkpt lat="43.83835" lon="7.0928">
        <ele>783.7</ele>
        <time>2021-09-20T10:21:52Z</time>
      </trkpt>
      <trkpt lat="43.83837" lon="7.09281">
        <ele>783.3</ele>
        <time>2021-09-20T10:21:53Z</time>
      </trkpt>
      <trkpt lat="43.83841" lon="7.09284">
        <ele>782.8</ele>
        <time>2021-09-20T10:21:55Z</time>
      </trkpt>
      <trkpt lat="43.83845" lon="7.09288">
        <ele>782.1</ele>
        <time>2021-09-20T10:21:56Z</time>
      </trkpt>
      <trkpt lat="43.83849" lon="7.09292">
        <ele>781.3</ele>
        <time>2021-09-20T10:21:57Z</time>
      </trkpt>
      <trkpt lat="43.83853" lon="7.09297">
        <ele>780.5</ele>
        <time>2021-09-20T10:21:59Z</time>
      </trkpt>
      <trkpt lat="43.83856" lon="7.09303">
        <ele>779.8</ele>
        <time>2021-09-20T10:22:00Z</time>
      </trkpt>
      <trkpt lat="43.83859" lon="7.09309">
        <ele>779.1</ele>
        <time>2021-09-20T10:22:02Z</time>
      </trkpt>
      <trkpt lat="43.83863" lon="7.09316">
        <ele>778.3</ele>
        <time>2021-09-20T10:22:03Z</time>
      </trkpt>
      <trkpt lat="43.83866" lon="7.09319">
        <ele>777.8</ele>
        <time>2021-09-20T10:22:04Z</time>
      </trkpt>
      <trkpt lat="43.83869" lon="7.09322">
        <ele>777.3</ele>
        <time>2021-09-20T10:22:06Z</time>
      </trkpt>
      <trkpt lat="43.83874" lon="7.09325">
        <ele>776.6</ele>
        <time>2021-09-20T10:22:07Z</time>
      </trkpt>
      <trkpt lat="43.83878" lon="7.09327">
        <ele>775.9</ele>
        <time>2021-09-20T10:22:08Z</time>
      </trkpt>
      <trkpt lat="43.83881" lon="7.09329">
        <ele>775.5</ele>
        <time>2021-09-20T10:22:09Z</time>
      </trkpt>
      <trkpt lat="43.83884" lon="7.09333">
        <ele>775</ele>
        <time>2021-09-20T10:22:11Z</time>
      </trkpt>
      <trkpt lat="43.83886" lon="7.09335">
        <ele>774.7</ele>
        <time>2021-09-20T10:22:12Z</time>
      </trkpt>
      <trkpt lat="43.8389" lon="7.09337">
        <ele>774.1</ele>
        <time>2021-09-20T10:22:14Z</time>
      </trkpt>
      <trkpt lat="43.8389" lon="7.09334">
        <ele>773.8</ele>
        <time>2021-09-20T10:22:15Z</time>
      </trkpt>
      <trkpt lat="43.83891" lon="7.09331">
        <ele>773.6</ele>
        <time>2021-09-20T10:22:17Z</time>
      </trkpt>
      <trkpt lat="43.83891" lon="7.09328">
        <ele>773.3</ele>
        <time>2021-09-20T10:22:18Z</time>
      </trkpt>
      <trkpt lat="43.8389" lon="7.09326">
        <ele>773.1</ele>
        <time>2021-09-20T10:22:19Z</time>
      </trkpt>
      <trkpt lat="43.83889" lon="7.09322">
        <ele>772.7</ele>
        <time>2021-09-20T10:22:20Z</time>
      </trkpt>
      <trkpt lat="43.83889" lon="7.09317">
        <ele>772.3</ele>
        <time>2021-09-20T10:22:22Z</time>
      </trkpt>
      <trkpt lat="43.83889" lon="7.09313">
        <ele>772</ele>
        <time>2021-09-20T10:22:23Z</time>
      </trkpt>
      <trkpt lat="43.83889" lon="7.09305">
        <ele>771.4</ele>
        <time>2021-09-20T10:22:24Z</time>
      </trkpt>
      <trkpt lat="43.83889" lon="7.09298">
        <ele>770.9</ele>
        <time>2021-09-20T10:22:26Z</time>
      </trkpt>
      <trkpt lat="43.83888" lon="7.09292">
        <ele>770.6</ele>
        <time>2021-09-20T10:22:27Z</time>
      </trkpt>
      <trkpt lat="43.83887" lon="7.09289">
        <ele>770.4</ele>
        <time>2021-09-20T10:22:28Z</time>
      </trkpt>
      <trkpt lat="43.83887" lon="7.09286">
        <ele>770.2</ele>
        <time>2021-09-20T10:22:30Z</time>
      </trkpt>
      <trkpt lat="43.83886" lon="7.09279">
        <ele>769.9</ele>
        <time>2021-09-20T10:22:32Z</time>
      </trkpt>
      <trkpt lat="43.83884" lon="7.09273">
        <ele>769.6</ele>
        <time>2021-09-20T10:22:33Z</time>
      </trkpt>
      <trkpt lat="43.83883" lon="7.09269">
        <ele>769.4</ele>
        <time>2021-09-20T10:22:34Z</time>
      </trkpt>
      <trkpt lat="43.83882" lon="7.09265">
        <ele>769.3</ele>
        <time>2021-09-20T10:22:35Z</time>
      </trkpt>
      <trkpt lat="43.83881" lon="7.09257">
        <ele>769</ele>
        <time>2021-09-20T10:22:37Z</time>
      </trkpt>
      <trkpt lat="43.83881" lon="7.09249">
        <ele>768.7</ele>
        <time>2021-09-20T10:22:39Z</time>
      </trkpt>
      <trkpt lat="43.8388" lon="7.09242">
        <ele>768.4</ele>
        <time>2021-09-20T10:22:40Z</time>
      </trkpt>
      <trkpt lat="43.83879" lon="7.09238">
        <ele>768.2</ele>
        <time>2021-09-20T10:22:41Z</time>
      </trkpt>
      <trkpt lat="43.83877" lon="7.09235">
        <ele>768</ele>
        <time>2021-09-20T10:22:42Z</time>
      </trkpt>
      <trkpt lat="43.83875" lon="7.09232">
        <ele>767.7</ele>
        <time>2021-09-20T10:22:44Z</time>
      </trkpt>
      <trkpt lat="43.83873" lon="7.09231">
        <ele>767.6</ele>
        <time>2021-09-20T10:22:45Z</time>
      </trkpt>
      <trkpt lat="43.83866" lon="7.09229">
        <ele>766.9</ele>
        <time>2021-09-20T10:22:46Z</time>
      </trkpt>
      <trkpt lat="43.8386" lon="7.09229">
        <ele>766.4</ele>
        <time>2021-09-20T10:22:48Z</time>
      </trkpt>
      <trkpt lat="43.83857" lon="7.09228">
        <ele>766.1</ele>
        <time>2021-09-20T10:22:49Z</time>
      </trkpt>
      <trkpt lat="43.83856" lon="7.09227">
        <ele>766</ele>
        <time>2021-09-20T10:22:51Z</time>
      </trkpt>
      <trkpt lat="43.83856" lon="7.09228">
        <ele>765.9</ele>
        <time>2021-09-20T10:22:52Z</time>
      </trkpt>
      <trkpt lat="43.83854" lon="7.09227">
        <ele>765.7</ele>
        <time>2021-09-20T10:22:53Z</time>
      </trkpt>
      <trkpt lat="43.83852" lon="7.09224">
        <ele>765.5</ele>
        <time>2021-09-20T10:22:54Z</time>
      </trkpt>
      <trkpt lat="43.83849" lon="7.0922">
        <ele>765</ele>
        <time>2021-09-20T10:22:56Z</time>
      </trkpt>
      <trkpt lat="43.83847" lon="7.09213">
        <ele>764.5</ele>
        <time>2021-09-20T10:22:57Z</time>
      </trkpt>
      <trkpt lat="43.83846" lon="7.09209">
        <ele>764.3</ele>
        <time>2021-09-20T10:22:58Z</time>
      </trkpt>
      <trkpt lat="43.83845" lon="7.09204">
        <ele>763.8</ele>
        <time>2021-09-20T10:23:00Z</time>
      </trkpt>
      <trkpt lat="43.83843" lon="7.09199">
        <ele>763.4</ele>
        <time>2021-09-20T10:23:01Z</time>
      </trkpt>
      <trkpt lat="43.83842" lon="7.09198">
        <ele>763.3</ele>
        <time>2021-09-20T10:23:02Z</time>
      </trkpt>
      <trkpt lat="43.83839" lon="7.09195">
        <ele>762.9</ele>
        <time>2021-09-20T10:23:04Z</time>
      </trkpt>
      <trkpt lat="43.83835" lon="7.09194">
        <ele>762.5</ele>
        <time>2021-09-20T10:23:05Z</time>
      </trkpt>
      <trkpt lat="43.83828" lon="7.09192">
        <ele>761.7</ele>
        <time>2021-09-20T10:23:06Z</time>
      </trkpt>
      <trkpt lat="43.83822" lon="7.0919">
        <ele>761.1</ele>
        <time>2021-09-20T10:23:07Z</time>
      </trkpt>
      <trkpt lat="43.83817" lon="7.09189">
        <ele>760.5</ele>
        <time>2021-09-20T10:23:08Z</time>
      </trkpt>
      <trkpt lat="43.83812" lon="7.09188">
        <ele>760.1</ele>
        <time>2021-09-20T10:23:10Z</time>
      </trkpt>
      <trkpt lat="43.8381" lon="7.09186">
        <ele>759.6</ele>
        <time>2021-09-20T10:23:11Z</time>
      </trkpt>
      <trkpt lat="43.83807" lon="7.09182">
        <ele>759.9</ele>
        <time>2021-09-20T10:23:12Z</time>
      </trkpt>
      <trkpt lat="43.83807" lon="7.09182">
        <ele>760</ele>
        <time>2021-09-20T10:23:13Z</time>
      </trkpt>
      <trkpt lat="43.83807" lon="7.09182">
        <ele>760.1</ele>
        <time>2021-09-20T10:23:14Z</time>
      </trkpt>
      <trkpt lat="43.8381" lon="7.09183">
        <ele>760.3</ele>
        <time>2021-09-20T10:23:15Z</time>
      </trkpt>
      <trkpt lat="43.83812" lon="7.09184">
        <ele>760.5</ele>
        <time>2021-09-20T10:23:17Z</time>
      </trkpt>
      <trkpt lat="43.83814" lon="7.09184">
        <ele>760.7</ele>
        <time>2021-09-20T10:23:19Z</time>
      </trkpt>
      <trkpt lat="43.83818" lon="7.09185">
        <ele>761.1</ele>
        <time>2021-09-20T10:23:20Z</time>
      </trkpt>
      <trkpt lat="43.83821" lon="7.09185">
        <ele>761.3</ele>
        <time>2021-09-20T10:23:21Z</time>
      </trkpt>
      <trkpt lat="43.83824" lon="7.09185">
        <ele>761.6</ele>
        <time>2021-09-20T10:23:23Z</time>
      </trkpt>
      <trkpt lat="43.83827" lon="7.09185">
        <ele>761.9</ele>
        <time>2021-09-20T10:23:29Z</time>
      </trkpt>
      <trkpt lat="43.83829" lon="7.09185">
        <ele>762.2</ele>
        <time>2021-09-20T10:23:30Z</time>
      </trkpt>
      <trkpt lat="43.83836" lon="7.09186">
        <ele>762.9</ele>
        <time>2021-09-20T10:23:31Z</time>
      </trkpt>
      <trkpt lat="43.83842" lon="7.09187">
        <ele>763.4</ele>
        <time>2021-09-20T10:23:33Z</time>
      </trkpt>
      <trkpt lat="43.83846" lon="7.0919">
        <ele>763.8</ele>
        <time>2021-09-20T10:23:34Z</time>
      </trkpt>
      <trkpt lat="43.8385" lon="7.0919">
        <ele>764.2</ele>
        <time>2021-09-20T10:23:36Z</time>
      </trkpt>
      <trkpt lat="43.83855" lon="7.09188">
        <ele>764.6</ele>
        <time>2021-09-20T10:23:37Z</time>
      </trkpt>
      <trkpt lat="43.83859" lon="7.09186">
        <ele>765</ele>
        <time>2021-09-20T10:23:39Z</time>
      </trkpt>
      <trkpt lat="43.83863" lon="7.09183">
        <ele>763.6</ele>
        <time>2021-09-20T10:23:40Z</time>
      </trkpt>
      <trkpt lat="43.83866" lon="7.09182">
        <ele>763</ele>
        <time>2021-09-20T10:23:41Z</time>
      </trkpt>
      <trkpt lat="43.83869" lon="7.09181">
        <ele>762.5</ele>
        <time>2021-09-20T10:23:42Z</time>
      </trkpt>
      <trkpt lat="43.83873" lon="7.0918">
        <ele>761</ele>
        <time>2021-09-20T10:23:43Z</time>
      </trkpt>
      <trkpt lat="43.83877" lon="7.09179">
        <ele>759.3</ele>
        <time>2021-09-20T10:23:45Z</time>
      </trkpt>
      <trkpt lat="43.8388" lon="7.09178">
        <ele>758.6</ele>
        <time>2021-09-20T10:23:46Z</time>
      </trkpt>
      <trkpt lat="43.83881" lon="7.09177">
        <ele>759.1</ele>
        <time>2021-09-20T10:23:47Z</time>
      </trkpt>
      <trkpt lat="43.83882" lon="7.09175">
        <ele>758.4</ele>
        <time>2021-09-20T10:23:48Z</time>
      </trkpt>
      <trkpt lat="43.83886" lon="7.09173">
        <ele>757.5</ele>
        <time>2021-09-20T10:23:49Z</time>
      </trkpt>
      <trkpt lat="43.83887" lon="7.09173">
        <ele>756.6</ele>
        <time>2021-09-20T10:23:51Z</time>
      </trkpt>
      <trkpt lat="43.83889" lon="7.09172">
        <ele>755.8</ele>
        <time>2021-09-20T10:23:52Z</time>
      </trkpt>
      <trkpt lat="43.83891" lon="7.09171">
        <ele>754.8</ele>
        <time>2021-09-20T10:23:53Z</time>
      </trkpt>
      <trkpt lat="43.83894" lon="7.09169">
        <ele>753.9</ele>
        <time>2021-09-20T10:23:55Z</time>
      </trkpt>
      <trkpt lat="43.83896" lon="7.09168">
        <ele>753</ele>
        <time>2021-09-20T10:23:57Z</time>
      </trkpt>
      <trkpt lat="43.83898" lon="7.09167">
        <ele>752</ele>
        <time>2021-09-20T10:23:58Z</time>
      </trkpt>
      <trkpt lat="43.83899" lon="7.09168">
        <ele>752.7</ele>
        <time>2021-09-20T10:23:59Z</time>
      </trkpt>
      <trkpt lat="43.83902" lon="7.09167">
        <ele>750.3</ele>
        <time>2021-09-20T10:24:01Z</time>
      </trkpt>
      <trkpt lat="43.83904" lon="7.09164">
        <ele>750.8</ele>
        <time>2021-09-20T10:24:03Z</time>
      </trkpt>
      <trkpt lat="43.83907" lon="7.09163">
        <ele>748.3</ele>
        <time>2021-09-20T10:24:04Z</time>
      </trkpt>
      <trkpt lat="43.83911" lon="7.09161">
        <ele>747.3</ele>
        <time>2021-09-20T10:24:05Z</time>
      </trkpt>
      <trkpt lat="43.83916" lon="7.09159">
        <ele>744.7</ele>
        <time>2021-09-20T10:24:07Z</time>
      </trkpt>
      <trkpt lat="43.83919" lon="7.09157">
        <ele>742.1</ele>
        <time>2021-09-20T10:24:08Z</time>
      </trkpt>
      <trkpt lat="43.83921" lon="7.09156">
        <ele>741.6</ele>
        <time>2021-09-20T10:24:09Z</time>
      </trkpt>
      <trkpt lat="43.83925" lon="7.09156">
        <ele>741</ele>
        <time>2021-09-20T10:24:10Z</time>
      </trkpt>
      <trkpt lat="43.83929" lon="7.09158">
        <ele>740.4</ele>
        <time>2021-09-20T10:24:12Z</time>
      </trkpt>
      <trkpt lat="43.8393" lon="7.09161">
        <ele>740.2</ele>
        <time>2021-09-20T10:24:13Z</time>
      </trkpt>
      <trkpt lat="43.83931" lon="7.09166">
        <ele>739.6</ele>
        <time>2021-09-20T10:24:15Z</time>
      </trkpt>
      <trkpt lat="43.83933" lon="7.09173">
        <ele>738.9</ele>
        <time>2021-09-20T10:24:16Z</time>
      </trkpt>
      <trkpt lat="43.83934" lon="7.09179">
        <ele>738.3</ele>
        <time>2021-09-20T10:24:18Z</time>
      </trkpt>
      <trkpt lat="43.83935" lon="7.09186">
        <ele>737.7</ele>
        <time>2021-09-20T10:24:19Z</time>
      </trkpt>
      <trkpt lat="43.83938" lon="7.09191">
        <ele>737.3</ele>
        <time>2021-09-20T10:24:20Z</time>
      </trkpt>
      <trkpt lat="43.8394" lon="7.09194">
        <ele>736.9</ele>
        <time>2021-09-20T10:24:21Z</time>
      </trkpt>
      <trkpt lat="43.83944" lon="7.092">
        <ele>736.4</ele>
        <time>2021-09-20T10:24:23Z</time>
      </trkpt>
      <trkpt lat="43.83946" lon="7.09204">
        <ele>736</ele>
        <time>2021-09-20T10:24:24Z</time>
      </trkpt>
      <trkpt lat="43.83951" lon="7.0921">
        <ele>735.2</ele>
        <time>2021-09-20T10:24:25Z</time>
      </trkpt>
      <trkpt lat="43.83954" lon="7.09215">
        <ele>734.6</ele>
        <time>2021-09-20T10:24:27Z</time>
      </trkpt>
      <trkpt lat="43.83958" lon="7.09221">
        <ele>733.7</ele>
        <time>2021-09-20T10:24:28Z</time>
      </trkpt>
      <trkpt lat="43.83962" lon="7.09225">
        <ele>733</ele>
        <time>2021-09-20T10:24:30Z</time>
      </trkpt>
      <trkpt lat="43.83965" lon="7.0923">
        <ele>732.4</ele>
        <time>2021-09-20T10:24:31Z</time>
      </trkpt>
      <trkpt lat="43.83969" lon="7.09235">
        <ele>731.6</ele>
        <time>2021-09-20T10:24:32Z</time>
      </trkpt>
      <trkpt lat="43.83972" lon="7.09239">
        <ele>731.1</ele>
        <time>2021-09-20T10:24:33Z</time>
      </trkpt>
      <trkpt lat="43.83975" lon="7.09242">
        <ele>730.6</ele>
        <time>2021-09-20T10:24:35Z</time>
      </trkpt>
      <trkpt lat="43.83977" lon="7.09247">
        <ele>729.9</ele>
        <time>2021-09-20T10:24:36Z</time>
      </trkpt>
      <trkpt lat="43.83978" lon="7.09249">
        <ele>729.6</ele>
        <time>2021-09-20T10:24:37Z</time>
      </trkpt>
      <trkpt lat="43.83978" lon="7.09254">
        <ele>729.1</ele>
        <time>2021-09-20T10:24:39Z</time>
      </trkpt>
      <trkpt lat="43.83978" lon="7.09256">
        <ele>728.9</ele>
        <time>2021-09-20T10:24:40Z</time>
      </trkpt>
      <trkpt lat="43.83982" lon="7.09259">
        <ele>728.2</ele>
        <time>2021-09-20T10:24:41Z</time>
      </trkpt>
      <trkpt lat="43.83985" lon="7.09261">
        <ele>727.8</ele>
        <time>2021-09-20T10:24:43Z</time>
      </trkpt>
      <trkpt lat="43.83988" lon="7.09263">
        <ele>727.2</ele>
        <time>2021-09-20T10:24:45Z</time>
      </trkpt>
      <trkpt lat="43.8399" lon="7.09266">
        <ele>726.8</ele>
        <time>2021-09-20T10:24:46Z</time>
      </trkpt>
      <trkpt lat="43.8399" lon="7.09268">
        <ele>726.6</ele>
        <time>2021-09-20T10:24:47Z</time>
      </trkpt>
      <trkpt lat="43.8399" lon="7.09273">
        <ele>726.2</ele>
        <time>2021-09-20T10:24:49Z</time>
      </trkpt>
      <trkpt lat="43.8399" lon="7.09274">
        <ele>726</ele>
        <time>2021-09-20T10:24:50Z</time>
      </trkpt>
      <trkpt lat="43.83988" lon="7.09277">
        <ele>725.7</ele>
        <time>2021-09-20T10:24:52Z</time>
      </trkpt>
      <trkpt lat="43.83989" lon="7.09279">
        <ele>725.5</ele>
        <time>2021-09-20T10:24:54Z</time>
      </trkpt>
      <trkpt lat="43.83989" lon="7.09281">
        <ele>725.3</ele>
        <time>2021-09-20T10:24:55Z</time>
      </trkpt>
      <trkpt lat="43.83989" lon="7.09285">
        <ele>724.9</ele>
        <time>2021-09-20T10:24:57Z</time>
      </trkpt>
      <trkpt lat="43.83991" lon="7.09291">
        <ele>724.2</ele>
        <time>2021-09-20T10:24:58Z</time>
      </trkpt>
      <trkpt lat="43.83993" lon="7.09296">
        <ele>723.6</ele>
        <time>2021-09-20T10:24:59Z</time>
      </trkpt>
      <trkpt lat="43.83996" lon="7.09299">
        <ele>722.9</ele>
        <time>2021-09-20T10:25:00Z</time>
      </trkpt>
      <trkpt lat="43.83999" lon="7.09302">
        <ele>722.2</ele>
        <time>2021-09-20T10:25:02Z</time>
      </trkpt>
      <trkpt lat="43.84003" lon="7.09306">
        <ele>721.2</ele>
        <time>2021-09-20T10:25:03Z</time>
      </trkpt>
      <trkpt lat="43.84008" lon="7.0931">
        <ele>720</ele>
        <time>2021-09-20T10:25:05Z</time>
      </trkpt>
      <trkpt lat="43.84011" lon="7.09313">
        <ele>719.3</ele>
        <time>2021-09-20T10:25:06Z</time>
      </trkpt>
      <trkpt lat="43.84013" lon="7.09318">
        <ele>718.4</ele>
        <time>2021-09-20T10:25:07Z</time>
      </trkpt>
      <trkpt lat="43.84016" lon="7.09321">
        <ele>717.7</ele>
        <time>2021-09-20T10:25:09Z</time>
      </trkpt>
      <trkpt lat="43.84016" lon="7.09322">
        <ele>717.6</ele>
        <time>2021-09-20T10:25:10Z</time>
      </trkpt>
      <trkpt lat="43.84016" lon="7.09323">
        <ele>717.4</ele>
        <time>2021-09-20T10:25:11Z</time>
      </trkpt>
      <trkpt lat="43.84017" lon="7.09325">
        <ele>717</ele>
        <time>2021-09-20T10:25:12Z</time>
      </trkpt>
      <trkpt lat="43.84018" lon="7.09325">
        <ele>716.9</ele>
        <time>2021-09-20T10:25:13Z</time>
      </trkpt>
      <trkpt lat="43.84019" lon="7.09327">
        <ele>716.6</ele>
        <time>2021-09-20T10:25:15Z</time>
      </trkpt>
      <trkpt lat="43.84019" lon="7.09331">
        <ele>716.1</ele>
        <time>2021-09-20T10:25:17Z</time>
      </trkpt>
      <trkpt lat="43.84022" lon="7.09336">
        <ele>715.2</ele>
        <time>2021-09-20T10:25:18Z</time>
      </trkpt>
      <trkpt lat="43.84023" lon="7.09337">
        <ele>714.9</ele>
        <time>2021-09-20T10:25:20Z</time>
      </trkpt>
      <trkpt lat="43.84025" lon="7.09338">
        <ele>714.6</ele>
        <time>2021-09-20T10:25:21Z</time>
      </trkpt>
      <trkpt lat="43.84028" lon="7.09342">
        <ele>713.8</ele>
        <time>2021-09-20T10:25:22Z</time>
      </trkpt>
      <trkpt lat="43.84029" lon="7.09344">
        <ele>713.5</ele>
        <time>2021-09-20T10:25:23Z</time>
      </trkpt>
      <trkpt lat="43.84032" lon="7.0935">
        <ele>712.4</ele>
        <time>2021-09-20T10:25:25Z</time>
      </trkpt>
      <trkpt lat="43.84034" lon="7.09352">
        <ele>712</ele>
        <time>2021-09-20T10:25:26Z</time>
      </trkpt>
      <trkpt lat="43.84034" lon="7.09353">
        <ele>711.8</ele>
        <time>2021-09-20T10:25:27Z</time>
      </trkpt>
      <trkpt lat="43.84035" lon="7.09354">
        <ele>711.6</ele>
        <time>2021-09-20T10:25:28Z</time>
      </trkpt>
      <trkpt lat="43.84038" lon="7.09357">
        <ele>711</ele>
        <time>2021-09-20T10:25:30Z</time>
      </trkpt>
      <trkpt lat="43.84038" lon="7.09358">
        <ele>710.7</ele>
        <time>2021-09-20T10:25:31Z</time>
      </trkpt>
      <trkpt lat="43.84041" lon="7.09361">
        <ele>710.2</ele>
        <time>2021-09-20T10:25:33Z</time>
      </trkpt>
      <trkpt lat="43.84042" lon="7.09362">
        <ele>709.9</ele>
        <time>2021-09-20T10:25:34Z</time>
      </trkpt>
      <trkpt lat="43.84045" lon="7.09365">
        <ele>709.2</ele>
        <time>2021-09-20T10:25:35Z</time>
      </trkpt>
      <trkpt lat="43.84046" lon="7.09366">
        <ele>708.9</ele>
        <time>2021-09-20T10:25:36Z</time>
      </trkpt>
      <trkpt lat="43.84049" lon="7.09368">
        <ele>708.3</ele>
        <time>2021-09-20T10:25:37Z</time>
      </trkpt>
      <trkpt lat="43.84052" lon="7.09371">
        <ele>707.6</ele>
        <time>2021-09-20T10:25:39Z</time>
      </trkpt>
      <trkpt lat="43.84052" lon="7.09373">
        <ele>707.3</ele>
        <time>2021-09-20T10:25:40Z</time>
      </trkpt>
      <trkpt lat="43.84053" lon="7.09375">
        <ele>707</ele>
        <time>2021-09-20T10:25:41Z</time>
      </trkpt>
      <trkpt lat="43.84054" lon="7.09377">
        <ele>706.6</ele>
        <time>2021-09-20T10:25:43Z</time>
      </trkpt>
      <trkpt lat="43.84055" lon="7.09384">
        <ele>705.5</ele>
        <time>2021-09-20T10:25:44Z</time>
      </trkpt>
      <trkpt lat="43.84056" lon="7.09387">
        <ele>705</ele>
        <time>2021-09-20T10:25:45Z</time>
      </trkpt>
      <trkpt lat="43.84057" lon="7.09389">
        <ele>704.7</ele>
        <time>2021-09-20T10:25:47Z</time>
      </trkpt>
      <trkpt lat="43.8406" lon="7.09393">
        <ele>703.7</ele>
        <time>2021-09-20T10:25:48Z</time>
      </trkpt>
      <trkpt lat="43.84062" lon="7.09395">
        <ele>703.2</ele>
        <time>2021-09-20T10:25:49Z</time>
      </trkpt>
      <trkpt lat="43.84063" lon="7.09396">
        <ele>703</ele>
        <time>2021-09-20T10:25:50Z</time>
      </trkpt>
      <trkpt lat="43.84063" lon="7.09398">
        <ele>702.6</ele>
        <time>2021-09-20T10:25:52Z</time>
      </trkpt>
      <trkpt lat="43.84064" lon="7.094">
        <ele>702.2</ele>
        <time>2021-09-20T10:25:53Z</time>
      </trkpt>
      <trkpt lat="43.84065" lon="7.09402">
        <ele>701.9</ele>
        <time>2021-09-20T10:25:54Z</time>
      </trkpt>
      <trkpt lat="43.84066" lon="7.09406">
        <ele>701.2</ele>
        <time>2021-09-20T10:25:55Z</time>
      </trkpt>
      <trkpt lat="43.84067" lon="7.09407">
        <ele>701</ele>
        <time>2021-09-20T10:25:56Z</time>
      </trkpt>
      <trkpt lat="43.84067" lon="7.09409">
        <ele>700.8</ele>
        <time>2021-09-20T10:25:57Z</time>
      </trkpt>
      <trkpt lat="43.84068" lon="7.09412">
        <ele>700.4</ele>
        <time>2021-09-20T10:25:59Z</time>
      </trkpt>
      <trkpt lat="43.84069" lon="7.09416">
        <ele>699.7</ele>
        <time>2021-09-20T10:26:00Z</time>
      </trkpt>
      <trkpt lat="43.8407" lon="7.09419">
        <ele>699.2</ele>
        <time>2021-09-20T10:26:01Z</time>
      </trkpt>
      <trkpt lat="43.84071" lon="7.09421">
        <ele>698.9</ele>
        <time>2021-09-20T10:26:02Z</time>
      </trkpt>
      <trkpt lat="43.84072" lon="7.09424">
        <ele>698.5</ele>
        <time>2021-09-20T10:26:04Z</time>
      </trkpt>
      <trkpt lat="43.84074" lon="7.09428">
        <ele>697.9</ele>
        <time>2021-09-20T10:26:05Z</time>
      </trkpt>
      <trkpt lat="43.84077" lon="7.09432">
        <ele>697.2</ele>
        <time>2021-09-20T10:26:07Z</time>
      </trkpt>
      <trkpt lat="43.84081" lon="7.09437">
        <ele>696.4</ele>
        <time>2021-09-20T10:26:08Z</time>
      </trkpt>
      <trkpt lat="43.84082" lon="7.0944">
        <ele>696</ele>
        <time>2021-09-20T10:26:09Z</time>
      </trkpt>
      <trkpt lat="43.84084" lon="7.09443">
        <ele>695.6</ele>
        <time>2021-09-20T10:26:11Z</time>
      </trkpt>
      <trkpt lat="43.84087" lon="7.09445">
        <ele>695.1</ele>
        <time>2021-09-20T10:26:12Z</time>
      </trkpt>
      <trkpt lat="43.8409" lon="7.09449">
        <ele>694.5</ele>
        <time>2021-09-20T10:26:13Z</time>
      </trkpt>
      <trkpt lat="43.84095" lon="7.09456">
        <ele>693.6</ele>
        <time>2021-09-20T10:26:15Z</time>
      </trkpt>
      <trkpt lat="43.84098" lon="7.09456">
        <ele>693.2</ele>
        <time>2021-09-20T10:26:16Z</time>
      </trkpt>
      <trkpt lat="43.841" lon="7.09457">
        <ele>692.9</ele>
        <time>2021-09-20T10:26:17Z</time>
      </trkpt>
      <trkpt lat="43.84102" lon="7.09458">
        <ele>692.6</ele>
        <time>2021-09-20T10:26:19Z</time>
      </trkpt>
      <trkpt lat="43.84107" lon="7.09464">
        <ele>691.7</ele>
        <time>2021-09-20T10:26:21Z</time>
      </trkpt>
      <trkpt lat="43.8411" lon="7.09469">
        <ele>691.1</ele>
        <time>2021-09-20T10:26:22Z</time>
      </trkpt>
      <trkpt lat="43.84112" lon="7.09474">
        <ele>690.6</ele>
        <time>2021-09-20T10:26:24Z</time>
      </trkpt>
      <trkpt lat="43.84114" lon="7.09477">
        <ele>690.2</ele>
        <time>2021-09-20T10:26:25Z</time>
      </trkpt>
      <trkpt lat="43.84118" lon="7.09488">
        <ele>689.1</ele>
        <time>2021-09-20T10:26:27Z</time>
      </trkpt>
      <trkpt lat="43.84119" lon="7.09492">
        <ele>688.6</ele>
        <time>2021-09-20T10:26:28Z</time>
      </trkpt>
      <trkpt lat="43.84119" lon="7.09493">
        <ele>688.5</ele>
        <time>2021-09-20T10:26:29Z</time>
      </trkpt>
      <trkpt lat="43.84121" lon="7.09497">
        <ele>687.9</ele>
        <time>2021-09-20T10:26:31Z</time>
      </trkpt>
      <trkpt lat="43.84121" lon="7.09502">
        <ele>687.4</ele>
        <time>2021-09-20T10:26:32Z</time>
      </trkpt>
      <trkpt lat="43.8412" lon="7.09508">
        <ele>686.8</ele>
        <time>2021-09-20T10:26:33Z</time>
      </trkpt>
      <trkpt lat="43.8412" lon="7.09512">
        <ele>686.4</ele>
        <time>2021-09-20T10:26:35Z</time>
      </trkpt>
      <trkpt lat="43.8412" lon="7.09513">
        <ele>686.2</ele>
        <time>2021-09-20T10:26:36Z</time>
      </trkpt>
      <trkpt lat="43.84121" lon="7.09517">
        <ele>685.8</ele>
        <time>2021-09-20T10:26:38Z</time>
      </trkpt>
      <trkpt lat="43.84125" lon="7.09522">
        <ele>685.1</ele>
        <time>2021-09-20T10:26:39Z</time>
      </trkpt>
      <trkpt lat="43.84127" lon="7.09524">
        <ele>684.8</ele>
        <time>2021-09-20T10:26:40Z</time>
      </trkpt>
      <trkpt lat="43.84129" lon="7.0953">
        <ele>684</ele>
        <time>2021-09-20T10:26:42Z</time>
      </trkpt>
      <trkpt lat="43.84129" lon="7.09537">
        <ele>683.3</ele>
        <time>2021-09-20T10:26:43Z</time>
      </trkpt>
      <trkpt lat="43.84129" lon="7.09542">
        <ele>682.7</ele>
        <time>2021-09-20T10:26:45Z</time>
      </trkpt>
      <trkpt lat="43.8413" lon="7.09548">
        <ele>681.9</ele>
        <time>2021-09-20T10:26:46Z</time>
      </trkpt>
      <trkpt lat="43.84131" lon="7.09553">
        <ele>681.3</ele>
        <time>2021-09-20T10:26:47Z</time>
      </trkpt>
      <trkpt lat="43.84133" lon="7.09557">
        <ele>680.6</ele>
        <time>2021-09-20T10:26:49Z</time>
      </trkpt>
      <trkpt lat="43.84136" lon="7.0956">
        <ele>680.1</ele>
        <time>2021-09-20T10:26:50Z</time>
      </trkpt>
      <trkpt lat="43.8414" lon="7.09566">
        <ele>678.9</ele>
        <time>2021-09-20T10:26:51Z</time>
      </trkpt>
      <trkpt lat="43.84143" lon="7.09568">
        <ele>678.2</ele>
        <time>2021-09-20T10:26:53Z</time>
      </trkpt>
      <trkpt lat="43.84148" lon="7.09571">
        <ele>677.1</ele>
        <time>2021-09-20T10:26:54Z</time>
      </trkpt>
      <trkpt lat="43.84153" lon="7.09574">
        <ele>675.8</ele>
        <time>2021-09-20T10:26:55Z</time>
      </trkpt>
      <trkpt lat="43.84159" lon="7.09578">
        <ele>674.9</ele>
        <time>2021-09-20T10:26:57Z</time>
      </trkpt>
      <trkpt lat="43.84166" lon="7.09582">
        <ele>674.2</ele>
        <time>2021-09-20T10:26:59Z</time>
      </trkpt>
      <trkpt lat="43.84169" lon="7.09581">
        <ele>673.9</ele>
        <time>2021-09-20T10:27:00Z</time>
      </trkpt>
      <trkpt lat="43.84171" lon="7.09578">
        <ele>673.6</ele>
        <time>2021-09-20T10:27:02Z</time>
      </trkpt>
      <trkpt lat="43.84166" lon="7.09573">
        <ele>673</ele>
        <time>2021-09-20T10:27:04Z</time>
      </trkpt>
      <trkpt lat="43.84165" lon="7.09573">
        <ele>672.8</ele>
        <time>2021-09-20T10:27:05Z</time>
      </trkpt>
      <trkpt lat="43.84164" lon="7.09573">
        <ele>672.7</ele>
        <time>2021-09-20T10:27:06Z</time>
      </trkpt>
      <trkpt lat="43.84164" lon="7.09573">
        <ele>672.6</ele>
        <time>2021-09-20T10:27:08Z</time>
      </trkpt>
      <trkpt lat="43.84165" lon="7.09574">
        <ele>672.5</ele>
        <time>2021-09-20T10:27:10Z</time>
      </trkpt>
      <trkpt lat="43.84166" lon="7.09574">
        <ele>672.3</ele>
        <time>2021-09-20T10:27:11Z</time>
      </trkpt>
      <trkpt lat="43.84167" lon="7.09574">
        <ele>672.3</ele>
        <time>2021-09-20T10:27:12Z</time>
      </trkpt>
      <trkpt lat="43.84168" lon="7.09574">
        <ele>672</ele>
        <time>2021-09-20T10:27:14Z</time>
      </trkpt>
      <trkpt lat="43.84169" lon="7.09574">
        <ele>671.9</ele>
        <time>2021-09-20T10:27:15Z</time>
      </trkpt>
      <trkpt lat="43.84174" lon="7.09577">
        <ele>670.9</ele>
        <time>2021-09-20T10:27:18Z</time>
      </trkpt>
      <trkpt lat="43.84179" lon="7.09576">
        <ele>669.6</ele>
        <time>2021-09-20T10:27:20Z</time>
      </trkpt>
      <trkpt lat="43.84182" lon="7.09575">
        <ele>668.9</ele>
        <time>2021-09-20T10:27:21Z</time>
      </trkpt>
      <trkpt lat="43.84188" lon="7.09572">
        <ele>667.6</ele>
        <time>2021-09-20T10:27:22Z</time>
      </trkpt>
      <trkpt lat="43.8419" lon="7.0957">
        <ele>667</ele>
        <time>2021-09-20T10:27:24Z</time>
      </trkpt>
      <trkpt lat="43.8419" lon="7.0957">
        <ele>666.9</ele>
        <time>2021-09-20T10:27:25Z</time>
      </trkpt>
      <trkpt lat="43.84191" lon="7.09571">
        <ele>666.6</ele>
        <time>2021-09-20T10:27:26Z</time>
      </trkpt>
      <trkpt lat="43.84193" lon="7.09571">
        <ele>666.3</ele>
        <time>2021-09-20T10:27:27Z</time>
      </trkpt>
      <trkpt lat="43.84194" lon="7.09572">
        <ele>666</ele>
        <time>2021-09-20T10:27:28Z</time>
      </trkpt>
      <trkpt lat="43.84195" lon="7.09573">
        <ele>665.8</ele>
        <time>2021-09-20T10:27:29Z</time>
      </trkpt>
      <trkpt lat="43.84196" lon="7.09573">
        <ele>665.5</ele>
        <time>2021-09-20T10:27:31Z</time>
      </trkpt>
      <trkpt lat="43.84197" lon="7.09574">
        <ele>665.2</ele>
        <time>2021-09-20T10:28:37Z</time>
      </trkpt>
      <trkpt lat="43.84198" lon="7.09575">
        <ele>665</ele>
        <time>2021-09-20T10:28:38Z</time>
      </trkpt>
      <trkpt lat="43.84202" lon="7.09574">
        <ele>664.2</ele>
        <time>2021-09-20T10:28:39Z</time>
      </trkpt>
      <trkpt lat="43.84205" lon="7.09572">
        <ele>663.4</ele>
        <time>2021-09-20T10:28:40Z</time>
      </trkpt>
      <trkpt lat="43.84209" lon="7.09572">
        <ele>662.6</ele>
        <time>2021-09-20T10:28:42Z</time>
      </trkpt>
      <trkpt lat="43.84213" lon="7.0957">
        <ele>661.8</ele>
        <time>2021-09-20T10:28:44Z</time>
      </trkpt>
      <trkpt lat="43.84213" lon="7.0957">
        <ele>661.8</ele>
        <time>2021-09-20T10:28:45Z</time>
      </trkpt>
      <trkpt lat="43.84213" lon="7.09571">
        <ele>661.7</ele>
        <time>2021-09-20T10:28:47Z</time>
      </trkpt>
      <trkpt lat="43.84214" lon="7.09571">
        <ele>661.6</ele>
        <time>2021-09-20T10:28:48Z</time>
      </trkpt>
      <trkpt lat="43.84214" lon="7.09572">
        <ele>661.4</ele>
        <time>2021-09-20T10:28:49Z</time>
      </trkpt>
      <trkpt lat="43.84215" lon="7.09571">
        <ele>661.3</ele>
        <time>2021-09-20T10:28:50Z</time>
      </trkpt>
      <trkpt lat="43.84216" lon="7.0957">
        <ele>661</ele>
        <time>2021-09-20T10:28:51Z</time>
      </trkpt>
      <trkpt lat="43.84217" lon="7.09568">
        <ele>660.6</ele>
        <time>2021-09-20T10:28:53Z</time>
      </trkpt>
      <trkpt lat="43.84217" lon="7.09565">
        <ele>660.1</ele>
        <time>2021-09-20T10:28:54Z</time>
      </trkpt>
      <trkpt lat="43.84222" lon="7.09532">
        <ele>654.9</ele>
        <time>2021-09-20T10:29:41Z</time>
      </trkpt>
      <trkpt lat="43.84221" lon="7.09531">
        <ele>654.7</ele>
        <time>2021-09-20T10:29:42Z</time>
      </trkpt>
      <trkpt lat="43.8422" lon="7.09529">
        <ele>654.2</ele>
        <time>2021-09-20T10:29:43Z</time>
      </trkpt>
      <trkpt lat="43.84219" lon="7.09528">
        <ele>653.8</ele>
        <time>2021-09-20T10:29:45Z</time>
      </trkpt>
      <trkpt lat="43.84218" lon="7.09526">
        <ele>653.3</ele>
        <time>2021-09-20T10:29:47Z</time>
      </trkpt>
      <trkpt lat="43.84217" lon="7.09525">
        <ele>653.2</ele>
        <time>2021-09-20T10:29:48Z</time>
      </trkpt>
      <trkpt lat="43.84217" lon="7.09525">
        <ele>653.1</ele>
        <time>2021-09-20T10:29:49Z</time>
      </trkpt>
      <trkpt lat="43.84216" lon="7.09525">
        <ele>652.9</ele>
        <time>2021-09-20T10:29:51Z</time>
      </trkpt>
      <trkpt lat="43.84216" lon="7.09525">
        <ele>652.8</ele>
        <time>2021-09-20T10:29:52Z</time>
      </trkpt>
      <trkpt lat="43.84215" lon="7.09525">
        <ele>652.8</ele>
        <time>2021-09-20T10:29:53Z</time>
      </trkpt>
      <trkpt lat="43.84215" lon="7.09524">
        <ele>652.6</ele>
        <time>2021-09-20T10:29:55Z</time>
      </trkpt>
      <trkpt lat="43.84215" lon="7.09522">
        <ele>652.3</ele>
        <time>2021-09-20T10:29:56Z</time>
      </trkpt>
      <trkpt lat="43.84214" lon="7.09518">
        <ele>651.5</ele>
        <time>2021-09-20T10:29:58Z</time>
      </trkpt>
      <trkpt lat="43.84214" lon="7.09515">
        <ele>651.1</ele>
        <time>2021-09-20T10:29:59Z</time>
      </trkpt>
      <trkpt lat="43.84214" lon="7.09511">
        <ele>650.3</ele>
        <time>2021-09-20T10:30:01Z</time>
      </trkpt>
      <trkpt lat="43.84214" lon="7.09509">
        <ele>650</ele>
        <time>2021-09-20T10:30:02Z</time>
      </trkpt>
      <trkpt lat="43.84217" lon="7.09502">
        <ele>648.9</ele>
        <time>2021-09-20T10:30:03Z</time>
      </trkpt>
      <trkpt lat="43.84219" lon="7.09498">
        <ele>648.3</ele>
        <time>2021-09-20T10:30:04Z</time>
      </trkpt>
      <trkpt lat="43.84221" lon="7.09493">
        <ele>647.4</ele>
        <time>2021-09-20T10:30:06Z</time>
      </trkpt>
      <trkpt lat="43.84222" lon="7.09491">
        <ele>647</ele>
        <time>2021-09-20T10:30:07Z</time>
      </trkpt>
      <trkpt lat="43.84226" lon="7.09489">
        <ele>646</ele>
        <time>2021-09-20T10:30:09Z</time>
      </trkpt>
      <trkpt lat="43.8423" lon="7.09489">
        <ele>645.3</ele>
        <time>2021-09-20T10:30:10Z</time>
      </trkpt>
      <trkpt lat="43.84232" lon="7.09489">
        <ele>644.7</ele>
        <time>2021-09-20T10:30:11Z</time>
      </trkpt>
      <trkpt lat="43.84237" lon="7.0949">
        <ele>643.7</ele>
        <time>2021-09-20T10:30:13Z</time>
      </trkpt>
      <trkpt lat="43.8424" lon="7.09492">
        <ele>643.1</ele>
        <time>2021-09-20T10:30:14Z</time>
      </trkpt>
      <trkpt lat="43.84243" lon="7.09494">
        <ele>642.2</ele>
        <time>2021-09-20T10:30:15Z</time>
      </trkpt>
      <trkpt lat="43.84244" lon="7.09495">
        <ele>642</ele>
        <time>2021-09-20T10:30:16Z</time>
      </trkpt>
      <trkpt lat="43.84244" lon="7.09496">
        <ele>641.8</ele>
        <time>2021-09-20T10:30:18Z</time>
      </trkpt>
      <trkpt lat="43.84243" lon="7.09497">
        <ele>641.5</ele>
        <time>2021-09-20T10:30:19Z</time>
      </trkpt>
      <trkpt lat="43.84243" lon="7.09498">
        <ele>641.4</ele>
        <time>2021-09-20T10:30:20Z</time>
      </trkpt>
      <trkpt lat="43.84243" lon="7.09497">
        <ele>641.4</ele>
        <time>2021-09-20T10:30:21Z</time>
      </trkpt>
      <trkpt lat="43.84243" lon="7.09497">
        <ele>641.3</ele>
        <time>2021-09-20T10:30:23Z</time>
      </trkpt>
      <trkpt lat="43.84243" lon="7.09495">
        <ele>641</ele>
        <time>2021-09-20T10:30:24Z</time>
      </trkpt>
      <trkpt lat="43.84243" lon="7.09493">
        <ele>640.8</ele>
        <time>2021-09-20T10:30:26Z</time>
      </trkpt>
      <trkpt lat="43.84247" lon="7.09506">
        <ele>638.6</ele>
        <time>2021-09-20T10:30:37Z</time>
      </trkpt>
      <trkpt lat="43.84248" lon="7.0951">
        <ele>638</ele>
        <time>2021-09-20T10:30:38Z</time>
      </trkpt>
      <trkpt lat="43.8425" lon="7.09518">
        <ele>636.6</ele>
        <time>2021-09-20T10:30:39Z</time>
      </trkpt>
      <trkpt lat="43.84252" lon="7.09522">
        <ele>635.8</ele>
        <time>2021-09-20T10:30:40Z</time>
      </trkpt>
      <trkpt lat="43.84253" lon="7.09524">
        <ele>635.5</ele>
        <time>2021-09-20T10:30:41Z</time>
      </trkpt>
      <trkpt lat="43.84257" lon="7.09527">
        <ele>634.5</ele>
        <time>2021-09-20T10:30:43Z</time>
      </trkpt>
      <trkpt lat="43.8426" lon="7.09529">
        <ele>634</ele>
        <time>2021-09-20T10:30:44Z</time>
      </trkpt>
      <trkpt lat="43.84262" lon="7.09531">
        <ele>633.4</ele>
        <time>2021-09-20T10:30:45Z</time>
      </trkpt>
      <trkpt lat="43.84264" lon="7.09533">
        <ele>632.9</ele>
        <time>2021-09-20T10:30:47Z</time>
      </trkpt>
      <trkpt lat="43.84266" lon="7.09534">
        <ele>632.4</ele>
        <time>2021-09-20T10:30:48Z</time>
      </trkpt>
      <trkpt lat="43.84268" lon="7.09536">
        <ele>631.9</ele>
        <time>2021-09-20T10:30:50Z</time>
      </trkpt>
      <trkpt lat="43.84271" lon="7.09538">
        <ele>631.4</ele>
        <time>2021-09-20T10:30:52Z</time>
      </trkpt>
      <trkpt lat="43.84273" lon="7.09539">
        <ele>630.9</ele>
        <time>2021-09-20T10:30:53Z</time>
      </trkpt>
      <trkpt lat="43.84275" lon="7.09541">
        <ele>630.4</ele>
        <time>2021-09-20T10:31:12Z</time>
      </trkpt>
      <trkpt lat="43.84277" lon="7.09543">
        <ele>629.9</ele>
        <time>2021-09-20T10:31:13Z</time>
      </trkpt>
      <trkpt lat="43.8428" lon="7.09545">
        <ele>629.3</ele>
        <time>2021-09-20T10:31:14Z</time>
      </trkpt>
      <trkpt lat="43.84282" lon="7.09547">
        <ele>628.9</ele>
        <time>2021-09-20T10:31:16Z</time>
      </trkpt>
      <trkpt lat="43.84283" lon="7.09548">
        <ele>628.6</ele>
        <time>2021-09-20T10:31:17Z</time>
      </trkpt>
      <trkpt lat="43.84283" lon="7.09549">
        <ele>628.5</ele>
        <time>2021-09-20T10:31:19Z</time>
      </trkpt>
      <trkpt lat="43.84283" lon="7.0955">
        <ele>628.3</ele>
        <time>2021-09-20T10:31:20Z</time>
      </trkpt>
      <trkpt lat="43.84287" lon="7.09551">
        <ele>627.7</ele>
        <time>2021-09-20T10:31:22Z</time>
      </trkpt>
      <trkpt lat="43.843" lon="7.09549">
        <ele>624.7</ele>
        <time>2021-09-20T10:31:24Z</time>
      </trkpt>
      <trkpt lat="43.8431" lon="7.09546">
        <ele>622.3</ele>
        <time>2021-09-20T10:31:49Z</time>
      </trkpt>
      <trkpt lat="43.8432" lon="7.09544">
        <ele>621.1</ele>
        <time>2021-09-20T10:31:50Z</time>
      </trkpt>
      <trkpt lat="43.84335" lon="7.09542">
        <ele>619.4</ele>
        <time>2021-09-20T10:31:52Z</time>
      </trkpt>
      <trkpt lat="43.84342" lon="7.09541">
        <ele>618.2</ele>
        <time>2021-09-20T10:31:53Z</time>
      </trkpt>
      <trkpt lat="43.84349" lon="7.09538">
        <ele>617.3</ele>
        <time>2021-09-20T10:31:54Z</time>
      </trkpt>
      <trkpt lat="43.84359" lon="7.09522">
        <ele>615.1</ele>
        <time>2021-09-20T10:31:56Z</time>
      </trkpt>
      <trkpt lat="43.84365" lon="7.09516">
        <ele>614.1</ele>
        <time>2021-09-20T10:31:57Z</time>
      </trkpt>
      <trkpt lat="43.84371" lon="7.09511">
        <ele>613.2</ele>
        <time>2021-09-20T10:31:58Z</time>
      </trkpt>
      <trkpt lat="43.84377" lon="7.09506">
        <ele>612.3</ele>
        <time>2021-09-20T10:31:59Z</time>
      </trkpt>
      <trkpt lat="43.84384" lon="7.095">
        <ele>611.3</ele>
        <time>2021-09-20T10:32:00Z</time>
      </trkpt>
      <trkpt lat="43.84394" lon="7.09486">
        <ele>609.8</ele>
        <time>2021-09-20T10:32:02Z</time>
      </trkpt>
      <trkpt lat="43.84397" lon="7.09479">
        <ele>609.4</ele>
        <time>2021-09-20T10:32:03Z</time>
      </trkpt>
      <trkpt lat="43.84403" lon="7.09462">
        <ele>608.9</ele>
        <time>2021-09-20T10:32:05Z</time>
      </trkpt>
      <trkpt lat="43.84406" lon="7.09454">
        <ele>608.9</ele>
        <time>2021-09-20T10:32:06Z</time>
      </trkpt>
      <trkpt lat="43.84417" lon="7.09442">
        <ele>608.9</ele>
        <time>2021-09-20T10:32:08Z</time>
      </trkpt>
      <trkpt lat="43.84422" lon="7.09437">
        <ele>608.8</ele>
        <time>2021-09-20T10:32:09Z</time>
      </trkpt>
      <trkpt lat="43.84431" lon="7.0943">
        <ele>608.5</ele>
        <time>2021-09-20T10:32:11Z</time>
      </trkpt>
      <trkpt lat="43.84436" lon="7.09426">
        <ele>608.3</ele>
        <time>2021-09-20T10:32:12Z</time>
      </trkpt>
      <trkpt lat="43.84443" lon="7.09415">
        <ele>607.6</ele>
        <time>2021-09-20T10:32:14Z</time>
      </trkpt>
      <trkpt lat="43.8445" lon="7.09403">
        <ele>606.8</ele>
        <time>2021-09-20T10:32:16Z</time>
      </trkpt>
      <trkpt lat="43.84453" lon="7.09398">
        <ele>606.4</ele>
        <time>2021-09-20T10:32:17Z</time>
      </trkpt>
      <trkpt lat="43.84461" lon="7.09391">
        <ele>605.6</ele>
        <time>2021-09-20T10:32:19Z</time>
      </trkpt>
      <trkpt lat="43.84464" lon="7.09389">
        <ele>605.2</ele>
        <time>2021-09-20T10:32:20Z</time>
      </trkpt>
      <trkpt lat="43.84472" lon="7.09386">
        <ele>604.2</ele>
        <time>2021-09-20T10:32:22Z</time>
      </trkpt>
      <trkpt lat="43.84476" lon="7.09384">
        <ele>603.6</ele>
        <time>2021-09-20T10:32:23Z</time>
      </trkpt>
      <trkpt lat="43.84487" lon="7.09376">
        <ele>601.4</ele>
        <time>2021-09-20T10:32:25Z</time>
      </trkpt>
      <trkpt lat="43.84492" lon="7.09373">
        <ele>600.4</ele>
        <time>2021-09-20T10:32:26Z</time>
      </trkpt>
      <trkpt lat="43.84499" lon="7.09373">
        <ele>599.2</ele>
        <time>2021-09-20T10:32:27Z</time>
      </trkpt>
      <trkpt lat="43.84501" lon="7.09375">
        <ele>598.7</ele>
        <time>2021-09-20T10:32:29Z</time>
      </trkpt>
      <trkpt lat="43.84505" lon="7.09372">
        <ele>598</ele>
        <time>2021-09-20T10:32:30Z</time>
      </trkpt>
      <trkpt lat="43.8451" lon="7.09367">
        <ele>597.1</ele>
        <time>2021-09-20T10:32:32Z</time>
      </trkpt>
      <trkpt lat="43.8451" lon="7.09363">
        <ele>596.2</ele>
        <time>2021-09-20T10:32:33Z</time>
      </trkpt>
      <trkpt lat="43.8451" lon="7.09361">
        <ele>596.1</ele>
        <time>2021-09-20T10:32:34Z</time>
      </trkpt>
      <trkpt lat="43.8451" lon="7.0936">
        <ele>596</ele>
        <time>2021-09-20T10:32:36Z</time>
      </trkpt>
      <trkpt lat="43.8451" lon="7.09359">
        <ele>596</ele>
        <time>2021-09-20T10:32:37Z</time>
      </trkpt>
      <trkpt lat="43.8451" lon="7.09359">
        <ele>596</ele>
        <time>2021-09-20T10:32:39Z</time>
      </trkpt>
      <trkpt lat="43.8451" lon="7.09359">
        <ele>596</ele>
        <time>2021-09-20T10:32:40Z</time>
      </trkpt>
      <trkpt lat="43.8451" lon="7.09359">
        <ele>596</ele>
        <time>2021-09-20T10:32:41Z</time>
      </trkpt>
      <trkpt lat="43.8451" lon="7.09359">
        <ele>596</ele>
        <time>2021-09-20T10:32:42Z</time>
      </trkpt>
      <trkpt lat="43.8451" lon="7.09358">
        <ele>596</ele>
        <time>2021-09-20T10:32:43Z</time>
      </trkpt>
      <trkpt lat="43.84485" lon="7.09346">
        <ele>593.7</ele>
        <time>2021-09-20T10:33:38Z</time>
      </trkpt>
      <trkpt lat="43.84486" lon="7.09346">
        <ele>593.7</ele>
        <time>2021-09-20T10:33:39Z</time>
      </trkpt>
      <trkpt lat="43.84484" lon="7.0935">
        <ele>593.4</ele>
        <time>2021-09-20T10:33:40Z</time>
      </trkpt>
      <trkpt lat="43.84481" lon="7.09354">
        <ele>593</ele>
        <time>2021-09-20T10:33:42Z</time>
      </trkpt>
      <trkpt lat="43.84479" lon="7.09365">
        <ele>592.2</ele>
        <time>2021-09-20T10:33:43Z</time>
      </trkpt>
      <trkpt lat="43.84477" lon="7.09372">
        <ele>591.7</ele>
        <time>2021-09-20T10:33:45Z</time>
      </trkpt>
      <trkpt lat="43.84472" lon="7.094">
        <ele>589.8</ele>
        <time>2021-09-20T10:33:47Z</time>
      </trkpt>
      <trkpt lat="43.84471" lon="7.09414">
        <ele>588.7</ele>
        <time>2021-09-20T10:33:48Z</time>
      </trkpt>
      <trkpt lat="43.84469" lon="7.0944">
        <ele>586.6</ele>
        <time>2021-09-20T10:33:50Z</time>
      </trkpt>
      <trkpt lat="43.84467" lon="7.09451">
        <ele>585.6</ele>
        <time>2021-09-20T10:33:51Z</time>
      </trkpt>
      <trkpt lat="43.84466" lon="7.09464">
        <ele>584.5</ele>
        <time>2021-09-20T10:33:52Z</time>
      </trkpt>
      <trkpt lat="43.84467" lon="7.09469">
        <ele>584</ele>
        <time>2021-09-20T10:33:54Z</time>
      </trkpt>
      <trkpt lat="43.84467" lon="7.09473">
        <ele>583.7</ele>
        <time>2021-09-20T10:33:55Z</time>
      </trkpt>
      <trkpt lat="43.84468" lon="7.09486">
        <ele>582.8</ele>
        <time>2021-09-20T10:33:56Z</time>
      </trkpt>
      <trkpt lat="43.84468" lon="7.0949">
        <ele>582.5</ele>
        <time>2021-09-20T10:33:58Z</time>
      </trkpt>
      <trkpt lat="43.84468" lon="7.09491">
        <ele>582.5</ele>
        <time>2021-09-20T10:33:59Z</time>
      </trkpt>
      <trkpt lat="43.84467" lon="7.09499">
        <ele>582</ele>
        <time>2021-09-20T10:34:00Z</time>
      </trkpt>
      <trkpt lat="43.84466" lon="7.09505">
        <ele>581.6</ele>
        <time>2021-09-20T10:34:01Z</time>
      </trkpt>
      <trkpt lat="43.84463" lon="7.09514">
        <ele>581</ele>
        <time>2021-09-20T10:34:03Z</time>
      </trkpt>
      <trkpt lat="43.8446" lon="7.09522">
        <ele>580.5</ele>
        <time>2021-09-20T10:34:05Z</time>
      </trkpt>
      <trkpt lat="43.84461" lon="7.09531">
        <ele>580</ele>
        <time>2021-09-20T10:34:07Z</time>
      </trkpt>
      <trkpt lat="43.8446" lon="7.09535">
        <ele>579.8</ele>
        <time>2021-09-20T10:34:09Z</time>
      </trkpt>
      <trkpt lat="43.84458" lon="7.09538">
        <ele>579.6</ele>
        <time>2021-09-20T10:34:10Z</time>
      </trkpt>
      <trkpt lat="43.84454" lon="7.0954">
        <ele>579.4</ele>
        <time>2021-09-20T10:34:12Z</time>
      </trkpt>
      <trkpt lat="43.84454" lon="7.09542">
        <ele>578.9</ele>
        <time>2021-09-20T10:34:14Z</time>
      </trkpt>
      <trkpt lat="43.84454" lon="7.09545">
        <ele>578.5</ele>
        <time>2021-09-20T10:34:15Z</time>
      </trkpt>
      <trkpt lat="43.84454" lon="7.09549">
        <ele>578.2</ele>
        <time>2021-09-20T10:34:16Z</time>
      </trkpt>
      <trkpt lat="43.84453" lon="7.09551">
        <ele>578</ele>
        <time>2021-09-20T10:34:17Z</time>
      </trkpt>
      <trkpt lat="43.84453" lon="7.09559">
        <ele>577.3</ele>
        <time>2021-09-20T10:34:19Z</time>
      </trkpt>
      <trkpt lat="43.84453" lon="7.09563">
        <ele>576.9</ele>
        <time>2021-09-20T10:34:20Z</time>
      </trkpt>
      <trkpt lat="43.84452" lon="7.09568">
        <ele>576.6</ele>
        <time>2021-09-20T10:34:21Z</time>
      </trkpt>
      <trkpt lat="43.84457" lon="7.09606">
        <ele>573.1</ele>
        <time>2021-09-20T10:34:23Z</time>
      </trkpt>
      <trkpt lat="43.8446" lon="7.09617">
        <ele>572.2</ele>
        <time>2021-09-20T10:34:25Z</time>
      </trkpt>
      <trkpt lat="43.84466" lon="7.09637">
        <ele>570.5</ele>
        <time>2021-09-20T10:34:27Z</time>
      </trkpt>
      <trkpt lat="43.84473" lon="7.09658">
        <ele>569.2</ele>
        <time>2021-09-20T10:34:29Z</time>
      </trkpt>
      <trkpt lat="43.8448" lon="7.09678">
        <ele>568.5</ele>
        <time>2021-09-20T10:34:31Z</time>
      </trkpt>
      <trkpt lat="43.84483" lon="7.09689">
        <ele>568.3</ele>
        <time>2021-09-20T10:34:32Z</time>
      </trkpt>
      <trkpt lat="43.84491" lon="7.09712">
        <ele>567.5</ele>
        <time>2021-09-20T10:34:34Z</time>
      </trkpt>
      <trkpt lat="43.84495" lon="7.09736">
        <ele>565.9</ele>
        <time>2021-09-20T10:34:36Z</time>
      </trkpt>
      <trkpt lat="43.84498" lon="7.09757">
        <ele>564</ele>
        <time>2021-09-20T10:34:38Z</time>
      </trkpt>
      <trkpt lat="43.845" lon="7.09767">
        <ele>563.2</ele>
        <time>2021-09-20T10:34:39Z</time>
      </trkpt>
      <trkpt lat="43.84501" lon="7.09777">
        <ele>562.5</ele>
        <time>2021-09-20T10:34:40Z</time>
      </trkpt>
      <trkpt lat="43.845" lon="7.09786">
        <ele>561.9</ele>
        <time>2021-09-20T10:34:41Z</time>
      </trkpt>
      <trkpt lat="43.845" lon="7.09796">
        <ele>561.4</ele>
        <time>2021-09-20T10:34:42Z</time>
      </trkpt>
      <trkpt lat="43.845" lon="7.09815">
        <ele>560.5</ele>
        <time>2021-09-20T10:34:44Z</time>
      </trkpt>
      <trkpt lat="43.845" lon="7.09824">
        <ele>560.1</ele>
        <time>2021-09-20T10:34:45Z</time>
      </trkpt>
      <trkpt lat="43.84502" lon="7.09834">
        <ele>559.7</ele>
        <time>2021-09-20T10:34:46Z</time>
      </trkpt>
      <trkpt lat="43.84503" lon="7.09844">
        <ele>559.3</ele>
        <time>2021-09-20T10:34:47Z</time>
      </trkpt>
      <trkpt lat="43.84506" lon="7.09864">
        <ele>558.5</ele>
        <time>2021-09-20T10:34:49Z</time>
      </trkpt>
      <trkpt lat="43.84509" lon="7.09875">
        <ele>558</ele>
        <time>2021-09-20T10:34:50Z</time>
      </trkpt>
      <trkpt lat="43.84514" lon="7.09897">
        <ele>556.7</ele>
        <time>2021-09-20T10:34:52Z</time>
      </trkpt>
      <trkpt lat="43.84518" lon="7.09906">
        <ele>555.9</ele>
        <time>2021-09-20T10:34:53Z</time>
      </trkpt>
      <trkpt lat="43.8452" lon="7.09913">
        <ele>555.3</ele>
        <time>2021-09-20T10:34:54Z</time>
      </trkpt>
      <trkpt lat="43.84524" lon="7.09918">
        <ele>554.6</ele>
        <time>2021-09-20T10:34:55Z</time>
      </trkpt>
      <trkpt lat="43.84528" lon="7.09921">
        <ele>554</ele>
        <time>2021-09-20T10:34:56Z</time>
      </trkpt>
      <trkpt lat="43.84532" lon="7.09918">
        <ele>553.4</ele>
        <time>2021-09-20T10:34:58Z</time>
      </trkpt>
      <trkpt lat="43.84533" lon="7.09916">
        <ele>553.1</ele>
        <time>2021-09-20T10:34:59Z</time>
      </trkpt>
      <trkpt lat="43.84533" lon="7.09912">
        <ele>552.7</ele>
        <time>2021-09-20T10:35:01Z</time>
      </trkpt>
      <trkpt lat="43.84531" lon="7.09911">
        <ele>552.4</ele>
        <time>2021-09-20T10:35:02Z</time>
      </trkpt>
      <trkpt lat="43.8453" lon="7.09911">
        <ele>552.2</ele>
        <time>2021-09-20T10:35:04Z</time>
      </trkpt>
      <trkpt lat="43.84529" lon="7.09911">
        <ele>552</ele>
        <time>2021-09-20T10:35:05Z</time>
      </trkpt>
      <trkpt lat="43.84528" lon="7.09911">
        <ele>551.8</ele>
        <time>2021-09-20T10:35:06Z</time>
      </trkpt>
      <trkpt lat="43.84526" lon="7.09911">
        <ele>551.7</ele>
        <time>2021-09-20T10:35:07Z</time>
      </trkpt>
      <trkpt lat="43.84522" lon="7.0991">
        <ele>551.1</ele>
        <time>2021-09-20T10:35:09Z</time>
      </trkpt>
      <trkpt lat="43.8452" lon="7.09909">
        <ele>550.8</ele>
        <time>2021-09-20T10:35:10Z</time>
      </trkpt>
      <trkpt lat="43.84517" lon="7.0991">
        <ele>550.4</ele>
        <time>2021-09-20T10:35:11Z</time>
      </trkpt>
      <trkpt lat="43.84515" lon="7.09911">
        <ele>550.3</ele>
        <time>2021-09-20T10:35:12Z</time>
      </trkpt>
      <trkpt lat="43.8451" lon="7.09916">
        <ele>549.7</ele>
        <time>2021-09-20T10:35:13Z</time>
      </trkpt>
      <trkpt lat="43.84505" lon="7.0992">
        <ele>549.3</ele>
        <time>2021-09-20T10:35:14Z</time>
      </trkpt>
      <trkpt lat="43.845" lon="7.09923">
        <ele>548.9</ele>
        <time>2021-09-20T10:35:15Z</time>
      </trkpt>
      <trkpt lat="43.84495" lon="7.09927">
        <ele>548.5</ele>
        <time>2021-09-20T10:35:17Z</time>
      </trkpt>
      <trkpt lat="43.84492" lon="7.0993">
        <ele>548.2</ele>
        <time>2021-09-20T10:35:18Z</time>
      </trkpt>
      <trkpt lat="43.8449" lon="7.09934">
        <ele>548</ele>
        <time>2021-09-20T10:35:20Z</time>
      </trkpt>
      <trkpt lat="43.84488" lon="7.09938">
        <ele>547.7</ele>
        <time>2021-09-20T10:35:21Z</time>
      </trkpt>
      <trkpt lat="43.84487" lon="7.0994">
        <ele>547.6</ele>
        <time>2021-09-20T10:35:22Z</time>
      </trkpt>
      <trkpt lat="43.84486" lon="7.09943">
        <ele>547.5</ele>
        <time>2021-09-20T10:35:23Z</time>
      </trkpt>
      <trkpt lat="43.84486" lon="7.09944">
        <ele>547.4</ele>
        <time>2021-09-20T10:35:24Z</time>
      </trkpt>
      <trkpt lat="43.84485" lon="7.09948">
        <ele>547.2</ele>
        <time>2021-09-20T10:35:25Z</time>
      </trkpt>
      <trkpt lat="43.84484" lon="7.09949">
        <ele>547.1</ele>
        <time>2021-09-20T10:35:26Z</time>
      </trkpt>
      <trkpt lat="43.84483" lon="7.09952">
        <ele>547</ele>
        <time>2021-09-20T10:35:28Z</time>
      </trkpt>
      <trkpt lat="43.84492" lon="7.09979">
        <ele>545.3</ele>
        <time>2021-09-20T10:35:33Z</time>
      </trkpt>
      <trkpt lat="43.84495" lon="7.09989">
        <ele>544.5</ele>
        <time>2021-09-20T10:35:34Z</time>
      </trkpt>
      <trkpt lat="43.84497" lon="7.09997">
        <ele>543.8</ele>
        <time>2021-09-20T10:35:35Z</time>
      </trkpt>
      <trkpt lat="43.845" lon="7.10004">
        <ele>543.1</ele>
        <time>2021-09-20T10:35:36Z</time>
      </trkpt>
      <trkpt lat="43.84503" lon="7.10011">
        <ele>542.3</ele>
        <time>2021-09-20T10:35:38Z</time>
      </trkpt>
      <trkpt lat="43.84505" lon="7.10014">
        <ele>541.9</ele>
        <time>2021-09-20T10:35:39Z</time>
      </trkpt>
      <trkpt lat="43.84507" lon="7.1002">
        <ele>541.2</ele>
        <time>2021-09-20T10:35:41Z</time>
      </trkpt>
      <trkpt lat="43.84511" lon="7.10027">
        <ele>540.2</ele>
        <time>2021-09-20T10:35:43Z</time>
      </trkpt>
      <trkpt lat="43.84514" lon="7.1003">
        <ele>539.5</ele>
        <time>2021-09-20T10:35:44Z</time>
      </trkpt>
      <trkpt lat="43.84518" lon="7.10033">
        <ele>538.8</ele>
        <time>2021-09-20T10:35:45Z</time>
      </trkpt>
      <trkpt lat="43.84524" lon="7.1004">
        <ele>537.5</ele>
        <time>2021-09-20T10:35:47Z</time>
      </trkpt>
      <trkpt lat="43.84526" lon="7.10044">
        <ele>536.9</ele>
        <time>2021-09-20T10:35:48Z</time>
      </trkpt>
      <trkpt lat="43.84528" lon="7.10047">
        <ele>536.5</ele>
        <time>2021-09-20T10:35:49Z</time>
      </trkpt>
      <trkpt lat="43.8453" lon="7.10051">
        <ele>536</ele>
        <time>2021-09-20T10:35:51Z</time>
      </trkpt>
      <trkpt lat="43.84532" lon="7.10055">
        <ele>535.4</ele>
        <time>2021-09-20T10:35:52Z</time>
      </trkpt>
      <trkpt lat="43.84533" lon="7.1006">
        <ele>534.9</ele>
        <time>2021-09-20T10:35:54Z</time>
      </trkpt>
      <trkpt lat="43.84535" lon="7.10065">
        <ele>534.3</ele>
        <time>2021-09-20T10:35:55Z</time>
      </trkpt>
      <trkpt lat="43.84537" lon="7.10076">
        <ele>533.1</ele>
        <time>2021-09-20T10:35:56Z</time>
      </trkpt>
      <trkpt lat="43.84539" lon="7.10085">
        <ele>532.1</ele>
        <time>2021-09-20T10:35:58Z</time>
      </trkpt>
      <trkpt lat="43.8454" lon="7.10097">
        <ele>530.8</ele>
        <time>2021-09-20T10:35:59Z</time>
      </trkpt>
      <trkpt lat="43.8454" lon="7.1011">
        <ele>529.5</ele>
        <time>2021-09-20T10:36:01Z</time>
      </trkpt>
      <trkpt lat="43.84542" lon="7.10117">
        <ele>528.8</ele>
        <time>2021-09-20T10:36:02Z</time>
      </trkpt>
      <trkpt lat="43.84544" lon="7.10125">
        <ele>528</ele>
        <time>2021-09-20T10:36:03Z</time>
      </trkpt>
      <trkpt lat="43.84546" lon="7.10132">
        <ele>527.3</ele>
        <time>2021-09-20T10:36:04Z</time>
      </trkpt>
      <trkpt lat="43.84548" lon="7.10138">
        <ele>526.5</ele>
        <time>2021-09-20T10:36:06Z</time>
      </trkpt>
      <trkpt lat="43.84551" lon="7.10147">
        <ele>525.5</ele>
        <time>2021-09-20T10:36:07Z</time>
      </trkpt>
      <trkpt lat="43.84554" lon="7.10152">
        <ele>524.8</ele>
        <time>2021-09-20T10:36:08Z</time>
      </trkpt>
      <trkpt lat="43.84555" lon="7.10156">
        <ele>524.2</ele>
        <time>2021-09-20T10:36:09Z</time>
      </trkpt>
      <trkpt lat="43.84559" lon="7.1016">
        <ele>523.4</ele>
        <time>2021-09-20T10:36:11Z</time>
      </trkpt>
      <trkpt lat="43.84561" lon="7.10163">
        <ele>522.9</ele>
        <time>2021-09-20T10:36:12Z</time>
      </trkpt>
      <trkpt lat="43.84563" lon="7.10168">
        <ele>522.1</ele>
        <time>2021-09-20T10:36:14Z</time>
      </trkpt>
      <trkpt lat="43.84564" lon="7.10174">
        <ele>521.4</ele>
        <time>2021-09-20T10:36:15Z</time>
      </trkpt>
      <trkpt lat="43.84565" lon="7.10181">
        <ele>520.6</ele>
        <time>2021-09-20T10:36:16Z</time>
      </trkpt>
      <trkpt lat="43.84566" lon="7.1019">
        <ele>519.5</ele>
        <time>2021-09-20T10:36:18Z</time>
      </trkpt>
      <trkpt lat="43.84567" lon="7.10198">
        <ele>518.6</ele>
        <time>2021-09-20T10:36:19Z</time>
      </trkpt>
      <trkpt lat="43.84569" lon="7.10204">
        <ele>518</ele>
        <time>2021-09-20T10:36:21Z</time>
      </trkpt>
      <trkpt lat="43.84571" lon="7.10212">
        <ele>515.2</ele>
        <time>2021-09-20T10:36:22Z</time>
      </trkpt>
      <trkpt lat="43.84579" lon="7.10225">
        <ele>510.8</ele>
        <time>2021-09-20T10:36:24Z</time>
      </trkpt>
      <trkpt lat="43.84584" lon="7.10239">
        <ele>506.6</ele>
        <time>2021-09-20T10:36:26Z</time>
      </trkpt>
      <trkpt lat="43.84581" lon="7.10245">
        <ele>505.8</ele>
        <time>2021-09-20T10:36:27Z</time>
      </trkpt>
      <trkpt lat="43.84581" lon="7.10253">
        <ele>504.1</ele>
        <time>2021-09-20T10:36:28Z</time>
      </trkpt>
      <trkpt lat="43.84581" lon="7.1026">
        <ele>503</ele>
        <time>2021-09-20T10:36:29Z</time>
      </trkpt>
      <trkpt lat="43.8458" lon="7.10269">
        <ele>501.5</ele>
        <time>2021-09-20T10:36:31Z</time>
      </trkpt>
      <trkpt lat="43.84579" lon="7.10276">
        <ele>500.9</ele>
        <time>2021-09-20T10:36:32Z</time>
      </trkpt>
      <trkpt lat="43.84578" lon="7.10281">
        <ele>500.5</ele>
        <time>2021-09-20T10:36:33Z</time>
      </trkpt>
      <trkpt lat="43.84576" lon="7.10287">
        <ele>500</ele>
        <time>2021-09-20T10:36:35Z</time>
      </trkpt>
      <trkpt lat="43.84576" lon="7.10289">
        <ele>499.8</ele>
        <time>2021-09-20T10:36:36Z</time>
      </trkpt>
      <trkpt lat="43.84575" lon="7.10291">
        <ele>499.6</ele>
        <time>2021-09-20T10:36:37Z</time>
      </trkpt>
      <trkpt lat="43.84575" lon="7.10293">
        <ele>499.5</ele>
        <time>2021-09-20T10:36:38Z</time>
      </trkpt>
      <trkpt lat="43.84576" lon="7.10296">
        <ele>499.2</ele>
        <time>2021-09-20T10:36:40Z</time>
      </trkpt>
      <trkpt lat="43.84575" lon="7.10294">
        <ele>499.1</ele>
        <time>2021-09-20T10:36:41Z</time>
      </trkpt>
      <trkpt lat="43.84575" lon="7.10291">
        <ele>498.8</ele>
        <time>2021-09-20T10:36:42Z</time>
      </trkpt>
      <trkpt lat="43.84577" lon="7.1029">
        <ele>498.5</ele>
        <time>2021-09-20T10:36:44Z</time>
      </trkpt>
      <trkpt lat="43.84578" lon="7.1029">
        <ele>498.3</ele>
        <time>2021-09-20T10:36:45Z</time>
      </trkpt>
      <trkpt lat="43.8458" lon="7.10286">
        <ele>498</ele>
        <time>2021-09-20T10:36:47Z</time>
      </trkpt>
      <trkpt lat="43.84581" lon="7.10281">
        <ele>497.5</ele>
        <time>2021-09-20T10:36:49Z</time>
      </trkpt>
      <trkpt lat="43.84582" lon="7.10278">
        <ele>497.3</ele>
        <time>2021-09-20T10:36:51Z</time>
      </trkpt>
      <trkpt lat="43.84583" lon="7.10277">
        <ele>497.1</ele>
        <time>2021-09-20T10:36:52Z</time>
      </trkpt>
      <trkpt lat="43.84582" lon="7.10275">
        <ele>497</ele>
        <time>2021-09-20T10:36:53Z</time>
      </trkpt>
      <trkpt lat="43.84581" lon="7.10275">
        <ele>497</ele>
        <time>2021-09-20T10:36:55Z</time>
      </trkpt>
      <trkpt lat="43.84581" lon="7.10275">
        <ele>496.9</ele>
        <time>2021-09-20T10:37:23Z</time>
      </trkpt>
      <trkpt lat="43.8458" lon="7.10275">
        <ele>496.8</ele>
        <time>2021-09-20T10:37:24Z</time>
      </trkpt>
      <trkpt lat="43.84574" lon="7.10282">
        <ele>496.1</ele>
        <time>2021-09-20T10:37:26Z</time>
      </trkpt>
      <trkpt lat="43.84567" lon="7.10288">
        <ele>495.4</ele>
        <time>2021-09-20T10:37:27Z</time>
      </trkpt>
      <trkpt lat="43.84562" lon="7.1029">
        <ele>494.9</ele>
        <time>2021-09-20T10:37:29Z</time>
      </trkpt>
      <trkpt lat="43.84558" lon="7.10294">
        <ele>494.5</ele>
        <time>2021-09-20T10:37:30Z</time>
      </trkpt>
      <trkpt lat="43.84555" lon="7.10299">
        <ele>494.1</ele>
        <time>2021-09-20T10:37:31Z</time>
      </trkpt>
      <trkpt lat="43.84553" lon="7.10304">
        <ele>493.7</ele>
        <time>2021-09-20T10:37:33Z</time>
      </trkpt>
      <trkpt lat="43.84552" lon="7.10306">
        <ele>493.7</ele>
        <time>2021-09-20T10:37:34Z</time>
      </trkpt>
      <trkpt lat="43.84551" lon="7.10307">
        <ele>493.6</ele>
        <time>2021-09-20T10:37:35Z</time>
      </trkpt>
      <trkpt lat="43.8455" lon="7.10311">
        <ele>493.4</ele>
        <time>2021-09-20T10:37:36Z</time>
      </trkpt>
      <trkpt lat="43.84548" lon="7.10319">
        <ele>493.2</ele>
        <time>2021-09-20T10:37:38Z</time>
      </trkpt>
      <trkpt lat="43.84547" lon="7.10332">
        <ele>493</ele>
        <time>2021-09-20T10:37:40Z</time>
      </trkpt>
      <trkpt lat="43.84548" lon="7.1034">
        <ele>492.9</ele>
        <time>2021-09-20T10:37:41Z</time>
      </trkpt>
      <trkpt lat="43.84548" lon="7.10347">
        <ele>492.8</ele>
        <time>2021-09-20T10:37:42Z</time>
      </trkpt>
      <trkpt lat="43.84548" lon="7.1036">
        <ele>492.5</ele>
        <time>2021-09-20T10:37:44Z</time>
      </trkpt>
      <trkpt lat="43.84548" lon="7.10366">
        <ele>492.4</ele>
        <time>2021-09-20T10:37:45Z</time>
      </trkpt>
      <trkpt lat="43.8455" lon="7.10378">
        <ele>492.1</ele>
        <time>2021-09-20T10:37:46Z</time>
      </trkpt>
      <trkpt lat="43.84551" lon="7.10388">
        <ele>491.7</ele>
        <time>2021-09-20T10:37:47Z</time>
      </trkpt>
      <trkpt lat="43.84553" lon="7.10396">
        <ele>491.3</ele>
        <time>2021-09-20T10:37:48Z</time>
      </trkpt>
      <trkpt lat="43.84554" lon="7.10401">
        <ele>490.9</ele>
        <time>2021-09-20T10:37:50Z</time>
      </trkpt>
      <trkpt lat="43.84556" lon="7.10407">
        <ele>490.3</ele>
        <time>2021-09-20T10:37:51Z</time>
      </trkpt>
      <trkpt lat="43.84557" lon="7.10409">
        <ele>490.1</ele>
        <time>2021-09-20T10:37:52Z</time>
      </trkpt>
      <trkpt lat="43.8456" lon="7.10413">
        <ele>489.5</ele>
        <time>2021-09-20T10:37:53Z</time>
      </trkpt>
      <trkpt lat="43.84562" lon="7.10414">
        <ele>489.2</ele>
        <time>2021-09-20T10:37:54Z</time>
      </trkpt>
      <trkpt lat="43.84562" lon="7.10415">
        <ele>489.1</ele>
        <time>2021-09-20T10:37:56Z</time>
      </trkpt>
      <trkpt lat="43.84563" lon="7.10416">
        <ele>488.9</ele>
        <time>2021-09-20T10:37:57Z</time>
      </trkpt>
      <trkpt lat="43.84563" lon="7.10418">
        <ele>488.7</ele>
        <time>2021-09-20T10:37:58Z</time>
      </trkpt>
      <trkpt lat="43.84563" lon="7.10419">
        <ele>488.6</ele>
        <time>2021-09-20T10:37:59Z</time>
      </trkpt>
      <trkpt lat="43.84563" lon="7.10422">
        <ele>488.3</ele>
        <time>2021-09-20T10:38:01Z</time>
      </trkpt>
      <trkpt lat="43.84563" lon="7.10425">
        <ele>487.9</ele>
        <time>2021-09-20T10:38:03Z</time>
      </trkpt>
      <trkpt lat="43.8457" lon="7.10463">
        <ele>483.4</ele>
        <time>2021-09-20T10:38:09Z</time>
      </trkpt>
      <trkpt lat="43.84577" lon="7.1049">
        <ele>480.7</ele>
        <time>2021-09-20T10:38:11Z</time>
      </trkpt>
      <trkpt lat="43.84583" lon="7.10509">
        <ele>478.8</ele>
        <time>2021-09-20T10:38:13Z</time>
      </trkpt>
      <trkpt lat="43.84587" lon="7.10526">
        <ele>477.7</ele>
        <time>2021-09-20T10:38:15Z</time>
      </trkpt>
      <trkpt lat="43.84589" lon="7.10535">
        <ele>477.3</ele>
        <time>2021-09-20T10:38:16Z</time>
      </trkpt>
      <trkpt lat="43.8459" lon="7.10535">
        <ele>477.3</ele>
        <time>2021-09-20T10:38:17Z</time>
      </trkpt>
      <trkpt lat="43.84593" lon="7.10539">
        <ele>477.1</ele>
        <time>2021-09-20T10:38:19Z</time>
      </trkpt>
      <trkpt lat="43.84597" lon="7.10545">
        <ele>476.9</ele>
        <time>2021-09-20T10:38:20Z</time>
      </trkpt>
      <trkpt lat="43.846" lon="7.10549">
        <ele>476.9</ele>
        <time>2021-09-20T10:38:21Z</time>
      </trkpt>
      <trkpt lat="43.84603" lon="7.10554">
        <ele>477</ele>
        <time>2021-09-20T10:38:23Z</time>
      </trkpt>
      <trkpt lat="43.84603" lon="7.10555">
        <ele>477</ele>
        <time>2021-09-20T10:38:24Z</time>
      </trkpt>
      <trkpt lat="43.84604" lon="7.10557">
        <ele>477</ele>
        <time>2021-09-20T10:38:25Z</time>
      </trkpt>
      <trkpt lat="43.84604" lon="7.10559">
        <ele>477.1</ele>
        <time>2021-09-20T10:38:27Z</time>
      </trkpt>
      <trkpt lat="43.8461" lon="7.10644">
        <ele>478.5</ele>
        <time>2021-09-20T10:38:55Z</time>
      </trkpt>
      <trkpt lat="43.84615" lon="7.10649">
        <ele>477.8</ele>
        <time>2021-09-20T10:38:57Z</time>
      </trkpt>
      <trkpt lat="43.84618" lon="7.10655">
        <ele>476.9</ele>
        <time>2021-09-20T10:38:58Z</time>
      </trkpt>
      <trkpt lat="43.84624" lon="7.10667">
        <ele>475.4</ele>
        <time>2021-09-20T10:38:59Z</time>
      </trkpt>
      <trkpt lat="43.84629" lon="7.10679">
        <ele>474.1</ele>
        <time>2021-09-20T10:39:01Z</time>
      </trkpt>
      <trkpt lat="43.84636" lon="7.10695">
        <ele>472.8</ele>
        <time>2021-09-20T10:39:02Z</time>
      </trkpt>
      <trkpt lat="43.8464" lon="7.10702">
        <ele>472.3</ele>
        <time>2021-09-20T10:39:03Z</time>
      </trkpt>
      <trkpt lat="43.84644" lon="7.10709">
        <ele>471.7</ele>
        <time>2021-09-20T10:39:05Z</time>
      </trkpt>
      <trkpt lat="43.84651" lon="7.1072">
        <ele>470.9</ele>
        <time>2021-09-20T10:39:06Z</time>
      </trkpt>
      <trkpt lat="43.84654" lon="7.10727">
        <ele>470.6</ele>
        <time>2021-09-20T10:39:07Z</time>
      </trkpt>
      <trkpt lat="43.84656" lon="7.10732">
        <ele>470.3</ele>
        <time>2021-09-20T10:39:08Z</time>
      </trkpt>
      <trkpt lat="43.84658" lon="7.10738">
        <ele>470.1</ele>
        <time>2021-09-20T10:39:09Z</time>
      </trkpt>
      <trkpt lat="43.84662" lon="7.10751">
        <ele>469.5</ele>
        <time>2021-09-20T10:39:11Z</time>
      </trkpt>
      <trkpt lat="43.84665" lon="7.1076">
        <ele>469.1</ele>
        <time>2021-09-20T10:39:12Z</time>
      </trkpt>
      <trkpt lat="43.84671" lon="7.10776">
        <ele>468.4</ele>
        <time>2021-09-20T10:39:14Z</time>
      </trkpt>
      <trkpt lat="43.84673" lon="7.10784">
        <ele>468.2</ele>
        <time>2021-09-20T10:39:15Z</time>
      </trkpt>
      <trkpt lat="43.84674" lon="7.1079">
        <ele>468</ele>
        <time>2021-09-20T10:39:16Z</time>
      </trkpt>
      <trkpt lat="43.84676" lon="7.10803">
        <ele>467.7</ele>
        <time>2021-09-20T10:39:18Z</time>
      </trkpt>
      <trkpt lat="43.84679" lon="7.10815">
        <ele>467.2</ele>
        <time>2021-09-20T10:39:20Z</time>
      </trkpt>
      <trkpt lat="43.8468" lon="7.1082">
        <ele>467</ele>
        <time>2021-09-20T10:39:21Z</time>
      </trkpt>
      <trkpt lat="43.84681" lon="7.10828">
        <ele>466.7</ele>
        <time>2021-09-20T10:39:23Z</time>
      </trkpt>
      <trkpt lat="43.84682" lon="7.10831">
        <ele>466.5</ele>
        <time>2021-09-20T10:39:24Z</time>
      </trkpt>
      <trkpt lat="43.84685" lon="7.10836">
        <ele>466.3</ele>
        <time>2021-09-20T10:39:25Z</time>
      </trkpt>
      <trkpt lat="43.84685" lon="7.10841">
        <ele>466.1</ele>
        <time>2021-09-20T10:39:26Z</time>
      </trkpt>
      <trkpt lat="43.84686" lon="7.10848">
        <ele>465.8</ele>
        <time>2021-09-20T10:39:28Z</time>
      </trkpt>
      <trkpt lat="43.84686" lon="7.10854">
        <ele>465.5</ele>
        <time>2021-09-20T10:39:29Z</time>
      </trkpt>
      <trkpt lat="43.84687" lon="7.10862">
        <ele>465.1</ele>
        <time>2021-09-20T10:39:30Z</time>
      </trkpt>
      <trkpt lat="43.84687" lon="7.10868">
        <ele>464.8</ele>
        <time>2021-09-20T10:39:31Z</time>
      </trkpt>
      <trkpt lat="43.84693" lon="7.10885">
        <ele>463.7</ele>
        <time>2021-09-20T10:39:33Z</time>
      </trkpt>
      <trkpt lat="43.84697" lon="7.10907">
        <ele>462.4</ele>
        <time>2021-09-20T10:39:35Z</time>
      </trkpt>
      <trkpt lat="43.84703" lon="7.10926">
        <ele>461.3</ele>
        <time>2021-09-20T10:39:37Z</time>
      </trkpt>
      <trkpt lat="43.84704" lon="7.10929">
        <ele>461.2</ele>
        <time>2021-09-20T10:39:38Z</time>
      </trkpt>
      <trkpt lat="43.84707" lon="7.10943">
        <ele>460.3</ele>
        <time>2021-09-20T10:39:40Z</time>
      </trkpt>
      <trkpt lat="43.84711" lon="7.10952">
        <ele>459.3</ele>
        <time>2021-09-20T10:39:42Z</time>
      </trkpt>
      <trkpt lat="43.84711" lon="7.10966">
        <ele>457.6</ele>
        <time>2021-09-20T10:39:44Z</time>
      </trkpt>
      <trkpt lat="43.84711" lon="7.10973">
        <ele>456.6</ele>
        <time>2021-09-20T10:39:45Z</time>
      </trkpt>
      <trkpt lat="43.84714" lon="7.10989">
        <ele>454.4</ele>
        <time>2021-09-20T10:39:47Z</time>
      </trkpt>
      <trkpt lat="43.84718" lon="7.11">
        <ele>453</ele>
        <time>2021-09-20T10:39:48Z</time>
      </trkpt>
      <trkpt lat="43.84724" lon="7.1102">
        <ele>450.5</ele>
        <time>2021-09-20T10:39:50Z</time>
      </trkpt>
      <trkpt lat="43.84728" lon="7.11034">
        <ele>449</ele>
        <time>2021-09-20T10:39:52Z</time>
      </trkpt>
      <trkpt lat="43.8473" lon="7.11038">
        <ele>448.5</ele>
        <time>2021-09-20T10:39:53Z</time>
      </trkpt>
      <trkpt lat="43.84732" lon="7.11041">
        <ele>448.2</ele>
        <time>2021-09-20T10:39:54Z</time>
      </trkpt>
      <trkpt lat="43.84732" lon="7.11043">
        <ele>448</ele>
        <time>2021-09-20T10:39:55Z</time>
      </trkpt>
      <trkpt lat="43.84734" lon="7.11046">
        <ele>447.7</ele>
        <time>2021-09-20T10:39:56Z</time>
      </trkpt>
      <trkpt lat="43.84737" lon="7.11053">
        <ele>446.9</ele>
        <time>2021-09-20T10:39:58Z</time>
      </trkpt>
      <trkpt lat="43.84743" lon="7.11064">
        <ele>446</ele>
        <time>2021-09-20T10:40:00Z</time>
      </trkpt>
      <trkpt lat="43.84744" lon="7.11068">
        <ele>445.7</ele>
        <time>2021-09-20T10:40:01Z</time>
      </trkpt>
      <trkpt lat="43.84747" lon="7.11073">
        <ele>445.3</ele>
        <time>2021-09-20T10:40:02Z</time>
      </trkpt>
      <trkpt lat="43.8475" lon="7.11077">
        <ele>444.9</ele>
        <time>2021-09-20T10:40:03Z</time>
      </trkpt>
      <trkpt lat="43.84755" lon="7.11081">
        <ele>444.3</ele>
        <time>2021-09-20T10:40:05Z</time>
      </trkpt>
      <trkpt lat="43.84758" lon="7.11084">
        <ele>443.9</ele>
        <time>2021-09-20T10:40:06Z</time>
      </trkpt>
      <trkpt lat="43.84765" lon="7.11092">
        <ele>442.8</ele>
        <time>2021-09-20T10:40:08Z</time>
      </trkpt>
      <trkpt lat="43.84771" lon="7.11104">
        <ele>441.4</ele>
        <time>2021-09-20T10:40:10Z</time>
      </trkpt>
      <trkpt lat="43.84773" lon="7.11113">
        <ele>440.4</ele>
        <time>2021-09-20T10:40:12Z</time>
      </trkpt>
      <trkpt lat="43.84775" lon="7.11117">
        <ele>439.9</ele>
        <time>2021-09-20T10:40:13Z</time>
      </trkpt>
      <trkpt lat="43.84779" lon="7.11125">
        <ele>438.8</ele>
        <time>2021-09-20T10:40:15Z</time>
      </trkpt>
      <trkpt lat="43.84781" lon="7.11135">
        <ele>437.5</ele>
        <time>2021-09-20T10:40:17Z</time>
      </trkpt>
      <trkpt lat="43.84782" lon="7.11143">
        <ele>436.3</ele>
        <time>2021-09-20T10:40:19Z</time>
      </trkpt>
      <trkpt lat="43.84783" lon="7.11147">
        <ele>435.8</ele>
        <time>2021-09-20T10:40:20Z</time>
      </trkpt>
      <trkpt lat="43.84784" lon="7.11151">
        <ele>435.2</ele>
        <time>2021-09-20T10:40:21Z</time>
      </trkpt>
      <trkpt lat="43.84788" lon="7.1116">
        <ele>433.6</ele>
        <time>2021-09-20T10:40:23Z</time>
      </trkpt>
      <trkpt lat="43.8479" lon="7.11164">
        <ele>432.9</ele>
        <time>2021-09-20T10:40:24Z</time>
      </trkpt>
      <trkpt lat="43.84794" lon="7.11172">
        <ele>431.4</ele>
        <time>2021-09-20T10:40:26Z</time>
      </trkpt>
      <trkpt lat="43.84802" lon="7.11183">
        <ele>429.3</ele>
        <time>2021-09-20T10:40:28Z</time>
      </trkpt>
      <trkpt lat="43.84811" lon="7.11196">
        <ele>427.1</ele>
        <time>2021-09-20T10:40:30Z</time>
      </trkpt>
      <trkpt lat="43.84813" lon="7.11201">
        <ele>426.4</ele>
        <time>2021-09-20T10:40:31Z</time>
      </trkpt>
      <trkpt lat="43.84815" lon="7.11208">
        <ele>425.6</ele>
        <time>2021-09-20T10:40:33Z</time>
      </trkpt>
      <trkpt lat="43.84816" lon="7.11212">
        <ele>425.2</ele>
        <time>2021-09-20T10:40:34Z</time>
      </trkpt>
      <trkpt lat="43.84818" lon="7.11217">
        <ele>424.5</ele>
        <time>2021-09-20T10:40:35Z</time>
      </trkpt>
      <trkpt lat="43.84819" lon="7.11219">
        <ele>424.2</ele>
        <time>2021-09-20T10:40:36Z</time>
      </trkpt>
      <trkpt lat="43.84821" lon="7.11223">
        <ele>423.6</ele>
        <time>2021-09-20T10:40:38Z</time>
      </trkpt>
      <trkpt lat="43.84822" lon="7.11229">
        <ele>423</ele>
        <time>2021-09-20T10:40:39Z</time>
      </trkpt>
      <trkpt lat="43.84821" lon="7.11237">
        <ele>421.9</ele>
        <time>2021-09-20T10:40:40Z</time>
      </trkpt>
      <trkpt lat="43.84822" lon="7.11244">
        <ele>420.9</ele>
        <time>2021-09-20T10:40:42Z</time>
      </trkpt>
      <trkpt lat="43.84825" lon="7.11253">
        <ele>419.7</ele>
        <time>2021-09-20T10:40:43Z</time>
      </trkpt>
      <trkpt lat="43.84829" lon="7.11259">
        <ele>418.5</ele>
        <time>2021-09-20T10:40:44Z</time>
      </trkpt>
      <trkpt lat="43.84833" lon="7.11267">
        <ele>417.2</ele>
        <time>2021-09-20T10:40:46Z</time>
      </trkpt>
      <trkpt lat="43.84836" lon="7.11272">
        <ele>416.4</ele>
        <time>2021-09-20T10:40:47Z</time>
      </trkpt>
      <trkpt lat="43.84841" lon="7.11275">
        <ele>415.5</ele>
        <time>2021-09-20T10:40:48Z</time>
      </trkpt>
      <trkpt lat="43.84843" lon="7.11278">
        <ele>415</ele>
        <time>2021-09-20T10:40:49Z</time>
      </trkpt>
      <trkpt lat="43.84846" lon="7.11282">
        <ele>414.3</ele>
        <time>2021-09-20T10:40:51Z</time>
      </trkpt>
      <trkpt lat="43.8485" lon="7.11286">
        <ele>413.6</ele>
        <time>2021-09-20T10:40:52Z</time>
      </trkpt>
      <trkpt lat="43.84853" lon="7.11291">
        <ele>412.8</ele>
        <time>2021-09-20T10:40:53Z</time>
      </trkpt>
      <trkpt lat="43.84857" lon="7.11294">
        <ele>412.1</ele>
        <time>2021-09-20T10:40:54Z</time>
      </trkpt>
      <trkpt lat="43.84859" lon="7.11297">
        <ele>411.6</ele>
        <time>2021-09-20T10:40:56Z</time>
      </trkpt>
      <trkpt lat="43.84862" lon="7.11303">
        <ele>410.7</ele>
        <time>2021-09-20T10:40:57Z</time>
      </trkpt>
      <trkpt lat="43.84863" lon="7.11307">
        <ele>410.1</ele>
        <time>2021-09-20T10:40:58Z</time>
      </trkpt>
      <trkpt lat="43.84865" lon="7.11311">
        <ele>409.6</ele>
        <time>2021-09-20T10:40:59Z</time>
      </trkpt>
      <trkpt lat="43.84867" lon="7.11315">
        <ele>408.9</ele>
        <time>2021-09-20T10:41:01Z</time>
      </trkpt>
      <trkpt lat="43.84869" lon="7.11319">
        <ele>408.3</ele>
        <time>2021-09-20T10:41:02Z</time>
      </trkpt>
      <trkpt lat="43.8487" lon="7.11323">
        <ele>407.8</ele>
        <time>2021-09-20T10:41:03Z</time>
      </trkpt>
      <trkpt lat="43.84871" lon="7.11327">
        <ele>407.4</ele>
        <time>2021-09-20T10:41:04Z</time>
      </trkpt>
      <trkpt lat="43.84871" lon="7.11331">
        <ele>406.9</ele>
        <time>2021-09-20T10:41:06Z</time>
      </trkpt>
      <trkpt lat="43.84871" lon="7.11335">
        <ele>406.5</ele>
        <time>2021-09-20T10:41:07Z</time>
      </trkpt>
      <trkpt lat="43.84871" lon="7.11339">
        <ele>406</ele>
        <time>2021-09-20T10:41:09Z</time>
      </trkpt>
      <trkpt lat="43.84872" lon="7.11344">
        <ele>405.6</ele>
        <time>2021-09-20T10:41:10Z</time>
      </trkpt>
      <trkpt lat="43.84874" lon="7.1135">
        <ele>404.9</ele>
        <time>2021-09-20T10:41:11Z</time>
      </trkpt>
      <trkpt lat="43.84875" lon="7.11357">
        <ele>404.1</ele>
        <time>2021-09-20T10:41:12Z</time>
      </trkpt>
      <trkpt lat="43.84876" lon="7.11363">
        <ele>403.4</ele>
        <time>2021-09-20T10:41:13Z</time>
      </trkpt>
      <trkpt lat="43.84878" lon="7.11371">
        <ele>402.5</ele>
        <time>2021-09-20T10:41:15Z</time>
      </trkpt>
      <trkpt lat="43.8488" lon="7.11378">
        <ele>401.7</ele>
        <time>2021-09-20T10:41:16Z</time>
      </trkpt>
      <trkpt lat="43.8488" lon="7.11384">
        <ele>401</ele>
        <time>2021-09-20T10:41:18Z</time>
      </trkpt>
      <trkpt lat="43.84879" lon="7.11387">
        <ele>400.7</ele>
        <time>2021-09-20T10:41:19Z</time>
      </trkpt>
      <trkpt lat="43.84878" lon="7.11388">
        <ele>400.5</ele>
        <time>2021-09-20T10:41:20Z</time>
      </trkpt>
      <trkpt lat="43.84877" lon="7.11393">
        <ele>399.9</ele>
        <time>2021-09-20T10:41:21Z</time>
      </trkpt>
      <trkpt lat="43.84877" lon="7.114">
        <ele>399.1</ele>
        <time>2021-09-20T10:41:23Z</time>
      </trkpt>
      <trkpt lat="43.84877" lon="7.11404">
        <ele>398.7</ele>
        <time>2021-09-20T10:41:24Z</time>
      </trkpt>
      <trkpt lat="43.84878" lon="7.1141">
        <ele>397.9</ele>
        <time>2021-09-20T10:41:26Z</time>
      </trkpt>
      <trkpt lat="43.84878" lon="7.11413">
        <ele>397.7</ele>
        <time>2021-09-20T10:41:27Z</time>
      </trkpt>
      <trkpt lat="43.84878" lon="7.11415">
        <ele>397.5</ele>
        <time>2021-09-20T10:41:28Z</time>
      </trkpt>
      <trkpt lat="43.84881" lon="7.11428">
        <ele>396.4</ele>
        <time>2021-09-20T10:41:30Z</time>
      </trkpt>
      <trkpt lat="43.84905" lon="7.11881">
        <ele>392.2</ele>
        <time>2021-09-20T10:42:37Z</time>
      </trkpt>
      <trkpt lat="43.84906" lon="7.1189">
        <ele>392.3</ele>
        <time>2021-09-20T10:42:39Z</time>
      </trkpt>
      <trkpt lat="43.84907" lon="7.11895">
        <ele>392.3</ele>
        <time>2021-09-20T10:42:40Z</time>
      </trkpt>
      <trkpt lat="43.84909" lon="7.11905">
        <ele>392.2</ele>
        <time>2021-09-20T10:42:41Z</time>
      </trkpt>
      <trkpt lat="43.8491" lon="7.11913">
        <ele>392.1</ele>
        <time>2021-09-20T10:42:43Z</time>
      </trkpt>
      <trkpt lat="43.84912" lon="7.11921">
        <ele>391.8</ele>
        <time>2021-09-20T10:42:44Z</time>
      </trkpt>
      <trkpt lat="43.84916" lon="7.11931">
        <ele>391.4</ele>
        <time>2021-09-20T10:42:45Z</time>
      </trkpt>
      <trkpt lat="43.84922" lon="7.11948">
        <ele>390.8</ele>
        <time>2021-09-20T10:42:47Z</time>
      </trkpt>
      <trkpt lat="43.84927" lon="7.11962">
        <ele>390.4</ele>
        <time>2021-09-20T10:42:49Z</time>
      </trkpt>
      <trkpt lat="43.84927" lon="7.12006">
        <ele>389.2</ele>
        <time>2021-09-20T10:42:58Z</time>
      </trkpt>
      <trkpt lat="43.84927" lon="7.12029">
        <ele>388.2</ele>
        <time>2021-09-20T10:42:59Z</time>
      </trkpt>
      <trkpt lat="43.84928" lon="7.12059">
        <ele>386.2</ele>
        <time>2021-09-20T10:43:01Z</time>
      </trkpt>
      <trkpt lat="43.84935" lon="7.1208">
        <ele>384</ele>
        <time>2021-09-20T10:43:03Z</time>
      </trkpt>
      <trkpt lat="43.84944" lon="7.12101">
        <ele>381.7</ele>
        <time>2021-09-20T10:43:05Z</time>
      </trkpt>
      <trkpt lat="43.84951" lon="7.1212">
        <ele>380.1</ele>
        <time>2021-09-20T10:43:07Z</time>
      </trkpt>
      <trkpt lat="43.84953" lon="7.12129">
        <ele>379.5</ele>
        <time>2021-09-20T10:43:08Z</time>
      </trkpt>
      <trkpt lat="43.84956" lon="7.12147">
        <ele>378.4</ele>
        <time>2021-09-20T10:43:10Z</time>
      </trkpt>
      <trkpt lat="43.84959" lon="7.12164">
        <ele>377.1</ele>
        <time>2021-09-20T10:43:12Z</time>
      </trkpt>
      <trkpt lat="43.84964" lon="7.12183">
        <ele>375.4</ele>
        <time>2021-09-20T10:43:14Z</time>
      </trkpt>
      <trkpt lat="43.84967" lon="7.12192">
        <ele>374.5</ele>
        <time>2021-09-20T10:43:15Z</time>
      </trkpt>
      <trkpt lat="43.8497" lon="7.12197">
        <ele>373.9</ele>
        <time>2021-09-20T10:43:16Z</time>
      </trkpt>
      <trkpt lat="43.84976" lon="7.12206">
        <ele>372.6</ele>
        <time>2021-09-20T10:43:18Z</time>
      </trkpt>
      <trkpt lat="43.84979" lon="7.12217">
        <ele>371.5</ele>
        <time>2021-09-20T10:43:20Z</time>
      </trkpt>
      <trkpt lat="43.84981" lon="7.12221">
        <ele>371</ele>
        <time>2021-09-20T10:43:21Z</time>
      </trkpt>
      <trkpt lat="43.84981" lon="7.12227">
        <ele>370.5</ele>
        <time>2021-09-20T10:43:22Z</time>
      </trkpt>
      <trkpt lat="43.84983" lon="7.12233">
        <ele>369.8</ele>
        <time>2021-09-20T10:43:23Z</time>
      </trkpt>
      <trkpt lat="43.84984" lon="7.12239">
        <ele>369.2</ele>
        <time>2021-09-20T10:43:24Z</time>
      </trkpt>
      <trkpt lat="43.84989" lon="7.1225">
        <ele>367.9</ele>
        <time>2021-09-20T10:43:26Z</time>
      </trkpt>
      <trkpt lat="43.84992" lon="7.12256">
        <ele>367.3</ele>
        <time>2021-09-20T10:43:27Z</time>
      </trkpt>
      <trkpt lat="43.84998" lon="7.12268">
        <ele>365.6</ele>
        <time>2021-09-20T10:43:29Z</time>
      </trkpt>
      <trkpt lat="43.85001" lon="7.12274">
        <ele>364.8</ele>
        <time>2021-09-20T10:43:30Z</time>
      </trkpt>
      <trkpt lat="43.85004" lon="7.12286">
        <ele>363.5</ele>
        <time>2021-09-20T10:43:32Z</time>
      </trkpt>
      <trkpt lat="43.85006" lon="7.12293">
        <ele>362.9</ele>
        <time>2021-09-20T10:43:33Z</time>
      </trkpt>
      <trkpt lat="43.85007" lon="7.12308">
        <ele>361.7</ele>
        <time>2021-09-20T10:43:35Z</time>
      </trkpt>
      <trkpt lat="43.85007" lon="7.12319">
        <ele>361</ele>
        <time>2021-09-20T10:43:37Z</time>
      </trkpt>
      <trkpt lat="43.85007" lon="7.12325">
        <ele>360.6</ele>
        <time>2021-09-20T10:43:38Z</time>
      </trkpt>
      <trkpt lat="43.85007" lon="7.12332">
        <ele>360.2</ele>
        <time>2021-09-20T10:43:39Z</time>
      </trkpt>
      <trkpt lat="43.85008" lon="7.12349">
        <ele>359.2</ele>
        <time>2021-09-20T10:43:41Z</time>
      </trkpt>
      <trkpt lat="43.85009" lon="7.12357">
        <ele>358.8</ele>
        <time>2021-09-20T10:43:42Z</time>
      </trkpt>
      <trkpt lat="43.85012" lon="7.12367">
        <ele>358.2</ele>
        <time>2021-09-20T10:43:44Z</time>
      </trkpt>
      <trkpt lat="43.85015" lon="7.12368">
        <ele>358</ele>
        <time>2021-09-20T10:43:45Z</time>
      </trkpt>
      <trkpt lat="43.85017" lon="7.12372">
        <ele>357.8</ele>
        <time>2021-09-20T10:43:46Z</time>
      </trkpt>
      <trkpt lat="43.85019" lon="7.12377">
        <ele>357.5</ele>
        <time>2021-09-20T10:43:47Z</time>
      </trkpt>
      <trkpt lat="43.85021" lon="7.12379">
        <ele>357.4</ele>
        <time>2021-09-20T10:43:50Z</time>
      </trkpt>
      <trkpt lat="43.8502" lon="7.12379">
        <ele>357.3</ele>
        <time>2021-09-20T10:43:51Z</time>
      </trkpt>
      <trkpt lat="43.8502" lon="7.12379">
        <ele>357.3</ele>
        <time>2021-09-20T10:43:53Z</time>
      </trkpt>
      <trkpt lat="43.8502" lon="7.12379">
        <ele>357.3</ele>
        <time>2021-09-20T10:43:54Z</time>
      </trkpt>
      <trkpt lat="43.8502" lon="7.12379">
        <ele>357.2</ele>
        <time>2021-09-20T10:43:55Z</time>
      </trkpt>
      <trkpt lat="43.85019" lon="7.12379">
        <ele>357.2</ele>
        <time>2021-09-20T10:43:56Z</time>
      </trkpt>
      <trkpt lat="43.85019" lon="7.12379">
        <ele>357.2</ele>
        <time>2021-09-20T10:43:57Z</time>
      </trkpt>
      <trkpt lat="43.85024" lon="7.12391">
        <ele>356.1</ele>
        <time>2021-09-20T10:44:12Z</time>
      </trkpt>
      <trkpt lat="43.85029" lon="7.12404">
        <ele>354.4</ele>
        <time>2021-09-20T10:44:14Z</time>
      </trkpt>
      <trkpt lat="43.85035" lon="7.12415">
        <ele>352.9</ele>
        <time>2021-09-20T10:44:15Z</time>
      </trkpt>
      <trkpt lat="43.8504" lon="7.12426">
        <ele>351.3</ele>
        <time>2021-09-20T10:44:16Z</time>
      </trkpt>
      <trkpt lat="43.85043" lon="7.12434">
        <ele>350.1</ele>
        <time>2021-09-20T10:44:18Z</time>
      </trkpt>
      <trkpt lat="43.85044" lon="7.1244">
        <ele>349</ele>
        <time>2021-09-20T10:44:19Z</time>
      </trkpt>
      <trkpt lat="43.85045" lon="7.12448">
        <ele>347.7</ele>
        <time>2021-09-20T10:44:20Z</time>
      </trkpt>
      <trkpt lat="43.85045" lon="7.12455">
        <ele>346.4</ele>
        <time>2021-09-20T10:44:21Z</time>
      </trkpt>
      <trkpt lat="43.85045" lon="7.12462">
        <ele>345.4</ele>
        <time>2021-09-20T10:44:23Z</time>
      </trkpt>
      <trkpt lat="43.85046" lon="7.12467">
        <ele>344.7</ele>
        <time>2021-09-20T10:44:24Z</time>
      </trkpt>
      <trkpt lat="43.85047" lon="7.12478">
        <ele>343.5</ele>
        <time>2021-09-20T10:44:26Z</time>
      </trkpt>
      <trkpt lat="43.85048" lon="7.12484">
        <ele>342.8</ele>
        <time>2021-09-20T10:44:27Z</time>
      </trkpt>
      <trkpt lat="43.85049" lon="7.12491">
        <ele>342</ele>
        <time>2021-09-20T10:44:28Z</time>
      </trkpt>
      <trkpt lat="43.85051" lon="7.12498">
        <ele>341.1</ele>
        <time>2021-09-20T10:44:29Z</time>
      </trkpt>
      <trkpt lat="43.85052" lon="7.12504">
        <ele>340.4</ele>
        <time>2021-09-20T10:44:30Z</time>
      </trkpt>
      <trkpt lat="43.85054" lon="7.12511">
        <ele>339.6</ele>
        <time>2021-09-20T10:44:32Z</time>
      </trkpt>
      <trkpt lat="43.85055" lon="7.12515">
        <ele>339</ele>
        <time>2021-09-20T10:44:33Z</time>
      </trkpt>
      <trkpt lat="43.85057" lon="7.12524">
        <ele>337.9</ele>
        <time>2021-09-20T10:44:35Z</time>
      </trkpt>
      <trkpt lat="43.85062" lon="7.12528">
        <ele>337</ele>
        <time>2021-09-20T10:44:37Z</time>
      </trkpt>
      <trkpt lat="43.85061" lon="7.12527">
        <ele>336.8</ele>
        <time>2021-09-20T10:44:38Z</time>
      </trkpt>
      <trkpt lat="43.8506" lon="7.12526">
        <ele>336.6</ele>
        <time>2021-09-20T10:44:40Z</time>
      </trkpt>
      <trkpt lat="43.85059" lon="7.12524">
        <ele>336.3</ele>
        <time>2021-09-20T10:44:41Z</time>
      </trkpt>
      <trkpt lat="43.85059" lon="7.12523">
        <ele>336.3</ele>
        <time>2021-09-20T10:44:42Z</time>
      </trkpt>
      <trkpt lat="43.85058" lon="7.12521">
        <ele>336</ele>
        <time>2021-09-20T10:44:43Z</time>
      </trkpt>
      <trkpt lat="43.85057" lon="7.12518">
        <ele>335.6</ele>
        <time>2021-09-20T10:44:45Z</time>
      </trkpt>
      <trkpt lat="43.85057" lon="7.12515">
        <ele>335.3</ele>
        <time>2021-09-20T10:44:46Z</time>
      </trkpt>
      <trkpt lat="43.85056" lon="7.12513">
        <ele>335</ele>
        <time>2021-09-20T10:44:47Z</time>
      </trkpt>
      <trkpt lat="43.85056" lon="7.12513">
        <ele>334.9</ele>
        <time>2021-09-20T10:44:48Z</time>
      </trkpt>
      <trkpt lat="43.85056" lon="7.12512">
        <ele>334.9</ele>
        <time>2021-09-20T10:44:49Z</time>
      </trkpt>
      <trkpt lat="43.85056" lon="7.12512">
        <ele>334.8</ele>
        <time>2021-09-20T10:44:50Z</time>
      </trkpt>
      <trkpt lat="43.85056" lon="7.12512">
        <ele>334.8</ele>
        <time>2021-09-20T10:44:52Z</time>
      </trkpt>
      <trkpt lat="43.85056" lon="7.12512">
        <ele>334.8</ele>
        <time>2021-09-20T10:44:53Z</time>
      </trkpt>
      <trkpt lat="43.85068" lon="7.12431">
        <ele>330</ele>
        <time>2021-09-20T10:45:47Z</time>
      </trkpt>
      <trkpt lat="43.85069" lon="7.12422">
        <ele>329.2</ele>
        <time>2021-09-20T10:45:49Z</time>
      </trkpt>
      <trkpt lat="43.8507" lon="7.12417">
        <ele>328.7</ele>
        <time>2021-09-20T10:45:50Z</time>
      </trkpt>
      <trkpt lat="43.85069" lon="7.12413">
        <ele>328.2</ele>
        <time>2021-09-20T10:45:51Z</time>
      </trkpt>
      <trkpt lat="43.85069" lon="7.12407">
        <ele>327.6</ele>
        <time>2021-09-20T10:45:53Z</time>
      </trkpt>
      <trkpt lat="43.85069" lon="7.124">
        <ele>326.7</ele>
        <time>2021-09-20T10:45:54Z</time>
      </trkpt>
      <trkpt lat="43.85069" lon="7.12396">
        <ele>326.3</ele>
        <time>2021-09-20T10:45:55Z</time>
      </trkpt>
      <trkpt lat="43.8507" lon="7.12393">
        <ele>325.9</ele>
        <time>2021-09-20T10:45:57Z</time>
      </trkpt>
      <trkpt lat="43.8507" lon="7.1239">
        <ele>325.7</ele>
        <time>2021-09-20T10:45:58Z</time>
      </trkpt>
      <trkpt lat="43.85069" lon="7.12384">
        <ele>325</ele>
        <time>2021-09-20T10:46:00Z</time>
      </trkpt>
      <trkpt lat="43.85067" lon="7.1238">
        <ele>324.5</ele>
        <time>2021-09-20T10:46:01Z</time>
      </trkpt>
      <trkpt lat="43.85067" lon="7.12374">
        <ele>324</ele>
        <time>2021-09-20T10:46:02Z</time>
      </trkpt>
      <trkpt lat="43.85067" lon="7.12372">
        <ele>323.7</ele>
        <time>2021-09-20T10:46:03Z</time>
      </trkpt>
      <trkpt lat="43.85067" lon="7.12367">
        <ele>323.2</ele>
        <time>2021-09-20T10:46:05Z</time>
      </trkpt>
      <trkpt lat="43.85068" lon="7.12363">
        <ele>322.8</ele>
        <time>2021-09-20T10:46:06Z</time>
      </trkpt>
      <trkpt lat="43.8507" lon="7.12356">
        <ele>322.1</ele>
        <time>2021-09-20T10:46:08Z</time>
      </trkpt>
      <trkpt lat="43.85071" lon="7.1235">
        <ele>321.4</ele>
        <time>2021-09-20T10:46:09Z</time>
      </trkpt>
      <trkpt lat="43.85075" lon="7.12338">
        <ele>320</ele>
        <time>2021-09-20T10:46:11Z</time>
      </trkpt>
      <trkpt lat="43.85076" lon="7.12331">
        <ele>319.2</ele>
        <time>2021-09-20T10:46:12Z</time>
      </trkpt>
      <trkpt lat="43.85077" lon="7.12327">
        <ele>318.8</ele>
        <time>2021-09-20T10:46:14Z</time>
      </trkpt>
      <trkpt lat="43.85078" lon="7.12324">
        <ele>318.4</ele>
        <time>2021-09-20T10:46:15Z</time>
      </trkpt>
      <trkpt lat="43.85101" lon="7.12275">
        <ele>312.5</ele>
        <time>2021-09-20T10:46:26Z</time>
      </trkpt>
      <trkpt lat="43.85109" lon="7.12267">
        <ele>311</ele>
        <time>2021-09-20T10:46:28Z</time>
      </trkpt>
      <trkpt lat="43.85115" lon="7.1226">
        <ele>310</ele>
        <time>2021-09-20T10:46:29Z</time>
      </trkpt>
      <trkpt lat="43.8512" lon="7.12255">
        <ele>309.1</ele>
        <time>2021-09-20T10:46:30Z</time>
      </trkpt>
      <trkpt lat="43.85126" lon="7.12244">
        <ele>307.6</ele>
        <time>2021-09-20T10:46:31Z</time>
      </trkpt>
      <trkpt lat="43.85127" lon="7.12237">
        <ele>306.8</ele>
        <time>2021-09-20T10:46:33Z</time>
      </trkpt>
      <trkpt lat="43.8513" lon="7.12227">
        <ele>305.6</ele>
        <time>2021-09-20T10:46:34Z</time>
      </trkpt>
      <trkpt lat="43.85132" lon="7.12222">
        <ele>304.9</ele>
        <time>2021-09-20T10:46:36Z</time>
      </trkpt>
      <trkpt lat="43.85131" lon="7.1222">
        <ele>304.6</ele>
        <time>2021-09-20T10:46:37Z</time>
      </trkpt>
      <trkpt lat="43.85129" lon="7.12219">
        <ele>304.3</ele>
        <time>2021-09-20T10:46:38Z</time>
      </trkpt>
      <trkpt lat="43.85129" lon="7.12219">
        <ele>304.2</ele>
        <time>2021-09-20T10:46:40Z</time>
      </trkpt>
      <trkpt lat="43.8513" lon="7.12221">
        <ele>304</ele>
        <time>2021-09-20T10:46:41Z</time>
      </trkpt>
      <trkpt lat="43.85132" lon="7.12223">
        <ele>303.6</ele>
        <time>2021-09-20T10:46:42Z</time>
      </trkpt>
      <trkpt lat="43.85133" lon="7.12224">
        <ele>303.3</ele>
        <time>2021-09-20T10:46:43Z</time>
      </trkpt>
      <trkpt lat="43.85136" lon="7.1223">
        <ele>302.5</ele>
        <time>2021-09-20T10:46:45Z</time>
      </trkpt>
      <trkpt lat="43.85137" lon="7.12242">
        <ele>301.2</ele>
        <time>2021-09-20T10:46:46Z</time>
      </trkpt>
      <trkpt lat="43.85137" lon="7.12252">
        <ele>300</ele>
        <time>2021-09-20T10:46:47Z</time>
      </trkpt>
      <trkpt lat="43.85136" lon="7.12264">
        <ele>298.7</ele>
        <time>2021-09-20T10:46:48Z</time>
      </trkpt>
      <trkpt lat="43.85134" lon="7.12277">
        <ele>297.2</ele>
        <time>2021-09-20T10:46:50Z</time>
      </trkpt>
      <trkpt lat="43.85132" lon="7.12282">
        <ele>296.6</ele>
        <time>2021-09-20T10:46:51Z</time>
      </trkpt>
      <trkpt lat="43.85131" lon="7.12289">
        <ele>296</ele>
        <time>2021-09-20T10:46:53Z</time>
      </trkpt>
      <trkpt lat="43.85129" lon="7.12296">
        <ele>295.2</ele>
        <time>2021-09-20T10:46:54Z</time>
      </trkpt>
      <trkpt lat="43.85128" lon="7.123">
        <ele>294.8</ele>
        <time>2021-09-20T10:46:55Z</time>
      </trkpt>
      <trkpt lat="43.85127" lon="7.1231">
        <ele>293.8</ele>
        <time>2021-09-20T10:46:57Z</time>
      </trkpt>
      <trkpt lat="43.85129" lon="7.12315">
        <ele>293.1</ele>
        <time>2021-09-20T10:46:58Z</time>
      </trkpt>
      <trkpt lat="43.85132" lon="7.12322">
        <ele>292.4</ele>
        <time>2021-09-20T10:47:00Z</time>
      </trkpt>
      <trkpt lat="43.85133" lon="7.12328">
        <ele>291.6</ele>
        <time>2021-09-20T10:47:01Z</time>
      </trkpt>
      <trkpt lat="43.85135" lon="7.12338">
        <ele>290.4</ele>
        <time>2021-09-20T10:47:03Z</time>
      </trkpt>
      <trkpt lat="43.85136" lon="7.1234">
        <ele>290.1</ele>
        <time>2021-09-20T10:47:04Z</time>
      </trkpt>
      <trkpt lat="43.85137" lon="7.12342">
        <ele>289.8</ele>
        <time>2021-09-20T10:47:05Z</time>
      </trkpt>
      <trkpt lat="43.85137" lon="7.12347">
        <ele>289.2</ele>
        <time>2021-09-20T10:47:06Z</time>
      </trkpt>
      <trkpt lat="43.85137" lon="7.12348">
        <ele>289</ele>
        <time>2021-09-20T10:47:07Z</time>
      </trkpt>
      <trkpt lat="43.85138" lon="7.12353">
        <ele>288.4</ele>
        <time>2021-09-20T10:47:08Z</time>
      </trkpt>
      <trkpt lat="43.85141" lon="7.12364">
        <ele>287.3</ele>
        <time>2021-09-20T10:47:09Z</time>
      </trkpt>
      <trkpt lat="43.85143" lon="7.12369">
        <ele>286.7</ele>
        <time>2021-09-20T10:47:11Z</time>
      </trkpt>
      <trkpt lat="43.85147" lon="7.12374">
        <ele>286</ele>
        <time>2021-09-20T10:47:12Z</time>
      </trkpt>
      <trkpt lat="43.8515" lon="7.12377">
        <ele>285.5</ele>
        <time>2021-09-20T10:47:13Z</time>
      </trkpt>
      <trkpt lat="43.85158" lon="7.12374">
        <ele>284.4</ele>
        <time>2021-09-20T10:47:15Z</time>
      </trkpt>
      <trkpt lat="43.85162" lon="7.12369">
        <ele>283.6</ele>
        <time>2021-09-20T10:47:16Z</time>
      </trkpt>
      <trkpt lat="43.85164" lon="7.12365">
        <ele>283.1</ele>
        <time>2021-09-20T10:47:17Z</time>
      </trkpt>
      <trkpt lat="43.85166" lon="7.12362">
        <ele>282.6</ele>
        <time>2021-09-20T10:47:19Z</time>
      </trkpt>
      <trkpt lat="43.85169" lon="7.12359">
        <ele>282.1</ele>
        <time>2021-09-20T10:47:20Z</time>
      </trkpt>
      <trkpt lat="43.85173" lon="7.12353">
        <ele>281.3</ele>
        <time>2021-09-20T10:47:21Z</time>
      </trkpt>
      <trkpt lat="43.85175" lon="7.12351">
        <ele>281</ele>
        <time>2021-09-20T10:47:22Z</time>
      </trkpt>
      <trkpt lat="43.85176" lon="7.12349">
        <ele>280.7</ele>
        <time>2021-09-20T10:47:24Z</time>
      </trkpt>
      <trkpt lat="43.85179" lon="7.12346">
        <ele>280.1</ele>
        <time>2021-09-20T10:47:25Z</time>
      </trkpt>
      <trkpt lat="43.85181" lon="7.12341">
        <ele>279.5</ele>
        <time>2021-09-20T10:47:27Z</time>
      </trkpt>
      <trkpt lat="43.85182" lon="7.12338">
        <ele>279.2</ele>
        <time>2021-09-20T10:47:28Z</time>
      </trkpt>
      <trkpt lat="43.85181" lon="7.12334">
        <ele>278.7</ele>
        <time>2021-09-20T10:47:29Z</time>
      </trkpt>
      <trkpt lat="43.85179" lon="7.12331">
        <ele>278.3</ele>
        <time>2021-09-20T10:47:30Z</time>
      </trkpt>
      <trkpt lat="43.85178" lon="7.1233">
        <ele>278.2</ele>
        <time>2021-09-20T10:47:31Z</time>
      </trkpt>
      <trkpt lat="43.85177" lon="7.12329">
        <ele>278</ele>
        <time>2021-09-20T10:47:33Z</time>
      </trkpt>
      <trkpt lat="43.85176" lon="7.12328">
        <ele>277.8</ele>
        <time>2021-09-20T10:47:34Z</time>
      </trkpt>
      <trkpt lat="43.85175" lon="7.12329">
        <ele>277.7</ele>
        <time>2021-09-20T10:47:35Z</time>
      </trkpt>
      <trkpt lat="43.85175" lon="7.12329">
        <ele>277.7</ele>
        <time>2021-09-20T10:47:36Z</time>
      </trkpt>
      <trkpt lat="43.85176" lon="7.12325">
        <ele>277.3</ele>
        <time>2021-09-20T10:47:37Z</time>
      </trkpt>
      <trkpt lat="43.85175" lon="7.12319">
        <ele>276.7</ele>
        <time>2021-09-20T10:47:38Z</time>
      </trkpt>
      <trkpt lat="43.85176" lon="7.12309">
        <ele>275.7</ele>
        <time>2021-09-20T10:47:40Z</time>
      </trkpt>
      <trkpt lat="43.85182" lon="7.1229">
        <ele>273.8</ele>
        <time>2021-09-20T10:47:42Z</time>
      </trkpt>
      <trkpt lat="43.85187" lon="7.12278">
        <ele>272.5</ele>
        <time>2021-09-20T10:47:44Z</time>
      </trkpt>
      <trkpt lat="43.8519" lon="7.1227">
        <ele>271.6</ele>
        <time>2021-09-20T10:47:45Z</time>
      </trkpt>
      <trkpt lat="43.85192" lon="7.12263">
        <ele>270.9</ele>
        <time>2021-09-20T10:47:47Z</time>
      </trkpt>
      <trkpt lat="43.85195" lon="7.12254">
        <ele>270</ele>
        <time>2021-09-20T10:47:48Z</time>
      </trkpt>
      <trkpt lat="43.85203" lon="7.12241">
        <ele>268.6</ele>
        <time>2021-09-20T10:47:50Z</time>
      </trkpt>
      <trkpt lat="43.85207" lon="7.12232">
        <ele>267.6</ele>
        <time>2021-09-20T10:47:51Z</time>
      </trkpt>
      <trkpt lat="43.85211" lon="7.12231">
        <ele>267.1</ele>
        <time>2021-09-20T10:47:53Z</time>
      </trkpt>
      <trkpt lat="43.85212" lon="7.12233">
        <ele>265.6</ele>
        <time>2021-09-20T10:47:54Z</time>
      </trkpt>
      <trkpt lat="43.85212" lon="7.12235">
        <ele>265.5</ele>
        <time>2021-09-20T10:47:55Z</time>
      </trkpt>
      <trkpt lat="43.85212" lon="7.12237">
        <ele>265.4</ele>
        <time>2021-09-20T10:47:57Z</time>
      </trkpt>
      <trkpt lat="43.85212" lon="7.12239">
        <ele>265.3</ele>
        <time>2021-09-20T10:47:58Z</time>
      </trkpt>
      <trkpt lat="43.85212" lon="7.1224">
        <ele>265.2</ele>
        <time>2021-09-20T10:48:00Z</time>
      </trkpt>
      <trkpt lat="43.85212" lon="7.12242">
        <ele>265.1</ele>
        <time>2021-09-20T10:48:01Z</time>
      </trkpt>
      <trkpt lat="43.85212" lon="7.12244">
        <ele>265</ele>
        <time>2021-09-20T10:48:02Z</time>
      </trkpt>
      <trkpt lat="43.85212" lon="7.12245">
        <ele>265</ele>
        <time>2021-09-20T10:48:03Z</time>
      </trkpt>
      <trkpt lat="43.85206" lon="7.12269">
        <ele>263.4</ele>
        <time>2021-09-20T10:48:06Z</time>
      </trkpt>
      <trkpt lat="43.85209" lon="7.12274">
        <ele>262.9</ele>
        <time>2021-09-20T10:48:07Z</time>
      </trkpt>
      <trkpt lat="43.85209" lon="7.12278">
        <ele>262.6</ele>
        <time>2021-09-20T10:48:09Z</time>
      </trkpt>
      <trkpt lat="43.85207" lon="7.1229">
        <ele>261.8</ele>
        <time>2021-09-20T10:48:11Z</time>
      </trkpt>
      <trkpt lat="43.85207" lon="7.12296">
        <ele>261.4</ele>
        <time>2021-09-20T10:48:12Z</time>
      </trkpt>
      <trkpt lat="43.85208" lon="7.12303">
        <ele>261</ele>
        <time>2021-09-20T10:48:13Z</time>
      </trkpt>
      <trkpt lat="43.85209" lon="7.12307">
        <ele>260.7</ele>
        <time>2021-09-20T10:48:14Z</time>
      </trkpt>
      <trkpt lat="43.8521" lon="7.12312">
        <ele>260.3</ele>
        <time>2021-09-20T10:48:15Z</time>
      </trkpt>
      <trkpt lat="43.85211" lon="7.12318">
        <ele>260</ele>
        <time>2021-09-20T10:48:17Z</time>
      </trkpt>
      <trkpt lat="43.85212" lon="7.12326">
        <ele>259.6</ele>
        <time>2021-09-20T10:48:18Z</time>
      </trkpt>
      <trkpt lat="43.85211" lon="7.12335">
        <ele>259.2</ele>
        <time>2021-09-20T10:48:20Z</time>
      </trkpt>
      <trkpt lat="43.85212" lon="7.12342">
        <ele>258.8</ele>
        <time>2021-09-20T10:48:21Z</time>
      </trkpt>
      <trkpt lat="43.85213" lon="7.12354">
        <ele>258.2</ele>
        <time>2021-09-20T10:48:22Z</time>
      </trkpt>
      <trkpt lat="43.85213" lon="7.12359">
        <ele>257.9</ele>
        <time>2021-09-20T10:48:24Z</time>
      </trkpt>
      <trkpt lat="43.85216" lon="7.12366">
        <ele>257.4</ele>
        <time>2021-09-20T10:48:25Z</time>
      </trkpt>
      <trkpt lat="43.85219" lon="7.12375">
        <ele>256.8</ele>
        <time>2021-09-20T10:48:26Z</time>
      </trkpt>
      <trkpt lat="43.85223" lon="7.12386">
        <ele>256.1</ele>
        <time>2021-09-20T10:48:28Z</time>
      </trkpt>
      <trkpt lat="43.85226" lon="7.12394">
        <ele>255.6</ele>
        <time>2021-09-20T10:48:29Z</time>
      </trkpt>
      <trkpt lat="43.85227" lon="7.124">
        <ele>255.2</ele>
        <time>2021-09-20T10:48:31Z</time>
      </trkpt>
      <trkpt lat="43.85228" lon="7.12406">
        <ele>254.8</ele>
        <time>2021-09-20T10:48:32Z</time>
      </trkpt>
      <trkpt lat="43.8523" lon="7.1242">
        <ele>253.9</ele>
        <time>2021-09-20T10:48:34Z</time>
      </trkpt>
      <trkpt lat="43.85227" lon="7.12427">
        <ele>253.4</ele>
        <time>2021-09-20T10:48:35Z</time>
      </trkpt>
      <trkpt lat="43.85226" lon="7.12434">
        <ele>252.9</ele>
        <time>2021-09-20T10:48:36Z</time>
      </trkpt>
      <trkpt lat="43.85228" lon="7.12442">
        <ele>252.4</ele>
        <time>2021-09-20T10:48:37Z</time>
      </trkpt>
      <trkpt lat="43.8523" lon="7.12451">
        <ele>251.8</ele>
        <time>2021-09-20T10:48:39Z</time>
      </trkpt>
      <trkpt lat="43.85231" lon="7.12457">
        <ele>251.3</ele>
        <time>2021-09-20T10:48:40Z</time>
      </trkpt>
      <trkpt lat="43.85231" lon="7.12462">
        <ele>251</ele>
        <time>2021-09-20T10:48:41Z</time>
      </trkpt>
      <trkpt lat="43.85231" lon="7.12469">
        <ele>250.5</ele>
        <time>2021-09-20T10:48:43Z</time>
      </trkpt>
      <trkpt lat="43.85231" lon="7.12472">
        <ele>250.3</ele>
        <time>2021-09-20T10:48:44Z</time>
      </trkpt>
      <trkpt lat="43.85231" lon="7.12474">
        <ele>250.2</ele>
        <time>2021-09-20T10:48:45Z</time>
      </trkpt>
      <trkpt lat="43.8523" lon="7.12479">
        <ele>249.8</ele>
        <time>2021-09-20T10:48:47Z</time>
      </trkpt>
      <trkpt lat="43.85229" lon="7.12481">
        <ele>249.6</ele>
        <time>2021-09-20T10:48:48Z</time>
      </trkpt>
      <trkpt lat="43.85227" lon="7.12485">
        <ele>249.3</ele>
        <time>2021-09-20T10:48:49Z</time>
      </trkpt>
      <trkpt lat="43.85226" lon="7.12488">
        <ele>249</ele>
        <time>2021-09-20T10:48:50Z</time>
      </trkpt>
      <trkpt lat="43.85224" lon="7.12491">
        <ele>248.7</ele>
        <time>2021-09-20T10:48:51Z</time>
      </trkpt>
      <trkpt lat="43.85226" lon="7.12496">
        <ele>248.3</ele>
        <time>2021-09-20T10:48:53Z</time>
      </trkpt>
      <trkpt lat="43.85231" lon="7.125">
        <ele>247.7</ele>
        <time>2021-09-20T10:48:55Z</time>
      </trkpt>
      <trkpt lat="43.85236" lon="7.12497">
        <ele>247.1</ele>
        <time>2021-09-20T10:48:56Z</time>
      </trkpt>
      <trkpt lat="43.8524" lon="7.12491">
        <ele>246.5</ele>
        <time>2021-09-20T10:48:58Z</time>
      </trkpt>
      <trkpt lat="43.85244" lon="7.12484">
        <ele>245.9</ele>
        <time>2021-09-20T10:49:00Z</time>
      </trkpt>
      <trkpt lat="43.85246" lon="7.12479">
        <ele>245.4</ele>
        <time>2021-09-20T10:49:01Z</time>
      </trkpt>
      <trkpt lat="43.8525" lon="7.12474">
        <ele>242.7</ele>
        <time>2021-09-20T10:49:02Z</time>
      </trkpt>
      <trkpt lat="43.85255" lon="7.12467">
        <ele>238.8</ele>
        <time>2021-09-20T10:49:03Z</time>
      </trkpt>
      <trkpt lat="43.85263" lon="7.12463">
        <ele>235.3</ele>
        <time>2021-09-20T10:49:05Z</time>
      </trkpt>
      <trkpt lat="43.85266" lon="7.12458">
        <ele>234.7</ele>
        <time>2021-09-20T10:49:06Z</time>
      </trkpt>
      <trkpt lat="43.85275" lon="7.12446">
        <ele>233.4</ele>
        <time>2021-09-20T10:49:08Z</time>
      </trkpt>
      <trkpt lat="43.85278" lon="7.1244">
        <ele>232.7</ele>
        <time>2021-09-20T10:49:09Z</time>
      </trkpt>
      <trkpt lat="43.85284" lon="7.12429">
        <ele>231.6</ele>
        <time>2021-09-20T10:49:11Z</time>
      </trkpt>
      <trkpt lat="43.85285" lon="7.12425">
        <ele>231.3</ele>
        <time>2021-09-20T10:49:12Z</time>
      </trkpt>
      <trkpt lat="43.85285" lon="7.12424">
        <ele>231.1</ele>
        <time>2021-09-20T10:49:13Z</time>
      </trkpt>
      <trkpt lat="43.85288" lon="7.1242">
        <ele>230.7</ele>
        <time>2021-09-20T10:49:14Z</time>
      </trkpt>
      <trkpt lat="43.85292" lon="7.12415">
        <ele>230</ele>
        <time>2021-09-20T10:49:15Z</time>
      </trkpt>
      <trkpt lat="43.85296" lon="7.12411">
        <ele>229.4</ele>
        <time>2021-09-20T10:49:17Z</time>
      </trkpt>
      <trkpt lat="43.85298" lon="7.12407">
        <ele>229</ele>
        <time>2021-09-20T10:49:18Z</time>
      </trkpt>
      <trkpt lat="43.85298" lon="7.12404">
        <ele>228.6</ele>
        <time>2021-09-20T10:49:19Z</time>
      </trkpt>
      <trkpt lat="43.85297" lon="7.12398">
        <ele>228.1</ele>
        <time>2021-09-20T10:49:21Z</time>
      </trkpt>
      <trkpt lat="43.85296" lon="7.12392">
        <ele>227.6</ele>
        <time>2021-09-20T10:49:22Z</time>
      </trkpt>
      <trkpt lat="43.85296" lon="7.12384">
        <ele>226.9</ele>
        <time>2021-09-20T10:49:23Z</time>
      </trkpt>
      <trkpt lat="43.85296" lon="7.12379">
        <ele>226.4</ele>
        <time>2021-09-20T10:49:24Z</time>
      </trkpt>
      <trkpt lat="43.85298" lon="7.12375">
        <ele>226</ele>
        <time>2021-09-20T10:49:25Z</time>
      </trkpt>
      <trkpt lat="43.85301" lon="7.12371">
        <ele>225.5</ele>
        <time>2021-09-20T10:49:26Z</time>
      </trkpt>
      <trkpt lat="43.85304" lon="7.12372">
        <ele>225.1</ele>
        <time>2021-09-20T10:49:27Z</time>
      </trkpt>
      <trkpt lat="43.85304" lon="7.12375">
        <ele>224.9</ele>
        <time>2021-09-20T10:49:29Z</time>
      </trkpt>
      <trkpt lat="43.85305" lon="7.12376">
        <ele>224.8</ele>
        <time>2021-09-20T10:49:30Z</time>
      </trkpt>
      <trkpt lat="43.85306" lon="7.12377">
        <ele>224.5</ele>
        <time>2021-09-20T10:49:32Z</time>
      </trkpt>
      <trkpt lat="43.85308" lon="7.12384">
        <ele>223.9</ele>
        <time>2021-09-20T10:49:33Z</time>
      </trkpt>
      <trkpt lat="43.8531" lon="7.1239">
        <ele>223.4</ele>
        <time>2021-09-20T10:49:34Z</time>
      </trkpt>
      <trkpt lat="43.85312" lon="7.12397">
        <ele>222.8</ele>
        <time>2021-09-20T10:49:35Z</time>
      </trkpt>
      <trkpt lat="43.85314" lon="7.12407">
        <ele>221.9</ele>
        <time>2021-09-20T10:49:37Z</time>
      </trkpt>
      <trkpt lat="43.85315" lon="7.12422">
        <ele>220.8</ele>
        <time>2021-09-20T10:49:39Z</time>
      </trkpt>
      <trkpt lat="43.85316" lon="7.12429">
        <ele>220.2</ele>
        <time>2021-09-20T10:49:40Z</time>
      </trkpt>
      <trkpt lat="43.85318" lon="7.12443">
        <ele>219.2</ele>
        <time>2021-09-20T10:49:42Z</time>
      </trkpt>
      <trkpt lat="43.85318" lon="7.1245">
        <ele>218.6</ele>
        <time>2021-09-20T10:49:43Z</time>
      </trkpt>
      <trkpt lat="43.85317" lon="7.12457">
        <ele>218.1</ele>
        <time>2021-09-20T10:49:44Z</time>
      </trkpt>
      <trkpt lat="43.85316" lon="7.12464">
        <ele>217.6</ele>
        <time>2021-09-20T10:49:45Z</time>
      </trkpt>
      <trkpt lat="43.85313" lon="7.12468">
        <ele>217.1</ele>
        <time>2021-09-20T10:49:46Z</time>
      </trkpt>
      <trkpt lat="43.85311" lon="7.12481">
        <ele>216.4</ele>
        <time>2021-09-20T10:49:48Z</time>
      </trkpt>
      <trkpt lat="43.85315" lon="7.12486">
        <ele>216</ele>
        <time>2021-09-20T10:49:49Z</time>
      </trkpt>
      <trkpt lat="43.85317" lon="7.12497">
        <ele>215.7</ele>
        <time>2021-09-20T10:49:51Z</time>
      </trkpt>
      <trkpt lat="43.85319" lon="7.12501">
        <ele>215.4</ele>
        <time>2021-09-20T10:49:52Z</time>
      </trkpt>
      <trkpt lat="43.85322" lon="7.12503">
        <ele>215.2</ele>
        <time>2021-09-20T10:49:53Z</time>
      </trkpt>
      <trkpt lat="43.85325" lon="7.125">
        <ele>215</ele>
        <time>2021-09-20T10:49:55Z</time>
      </trkpt>
      <trkpt lat="43.85325" lon="7.12497">
        <ele>214.9</ele>
        <time>2021-09-20T10:49:57Z</time>
      </trkpt>
      <trkpt lat="43.85325" lon="7.12495">
        <ele>214.8</ele>
        <time>2021-09-20T10:49:58Z</time>
      </trkpt>
      <trkpt lat="43.85326" lon="7.1249">
        <ele>209.4</ele>
        <time>2021-09-20T10:49:59Z</time>
      </trkpt>
      <trkpt lat="43.8533" lon="7.12476">
        <ele>209.4</ele>
        <time>2021-09-20T10:50:01Z</time>
      </trkpt>
      <trkpt lat="43.85334" lon="7.12467">
        <ele>209.1</ele>
        <time>2021-09-20T10:50:02Z</time>
      </trkpt>
      <trkpt lat="43.85337" lon="7.12458">
        <ele>208.9</ele>
        <time>2021-09-20T10:50:04Z</time>
      </trkpt>
      <trkpt lat="43.85338" lon="7.12457">
        <ele>208.8</ele>
        <time>2021-09-20T10:50:05Z</time>
      </trkpt>
      <trkpt lat="43.85346" lon="7.12451">
        <ele>208.5</ele>
        <time>2021-09-20T10:50:09Z</time>
      </trkpt>
      <trkpt lat="43.8535" lon="7.12448">
        <ele>208.4</ele>
        <time>2021-09-20T10:50:10Z</time>
      </trkpt>
      <trkpt lat="43.85354" lon="7.12443">
        <ele>208.2</ele>
        <time>2021-09-20T10:50:12Z</time>
      </trkpt>
      <trkpt lat="43.85355" lon="7.12442">
        <ele>208.1</ele>
        <time>2021-09-20T10:50:14Z</time>
      </trkpt>
      <trkpt lat="43.85355" lon="7.12442">
        <ele>208.1</ele>
        <time>2021-09-20T10:50:15Z</time>
      </trkpt>
      <trkpt lat="43.85355" lon="7.12442">
        <ele>208.1</ele>
        <time>2021-09-20T10:50:17Z</time>
      </trkpt>
      <trkpt lat="43.85355" lon="7.12442">
        <ele>208.1</ele>
        <time>2021-09-20T10:50:18Z</time>
      </trkpt>
      <trkpt lat="43.85355" lon="7.12442">
        <ele>208.1</ele>
        <time>2021-09-20T10:50:20Z</time>
      </trkpt>
      <trkpt lat="43.85355" lon="7.12442">
        <ele>208.1</ele>
        <time>2021-09-20T10:50:21Z</time>
      </trkpt>
      <trkpt lat="43.85355" lon="7.12442">
        <ele>208.1</ele>
        <time>2021-09-20T10:50:22Z</time>
      </trkpt>
      <trkpt lat="43.85349" lon="7.12458">
        <ele>207.7</ele>
        <time>2021-09-20T10:50:49Z</time>
      </trkpt>
      <trkpt lat="43.85349" lon="7.12462">
        <ele>207.8</ele>
        <time>2021-09-20T10:50:50Z</time>
      </trkpt>
      <trkpt lat="43.85351" lon="7.12472">
        <ele>207.2</ele>
        <time>2021-09-20T10:50:52Z</time>
      </trkpt>
      <trkpt lat="43.85351" lon="7.12476">
        <ele>207.3</ele>
        <time>2021-09-20T10:50:53Z</time>
      </trkpt>
      <trkpt lat="43.85352" lon="7.1248">
        <ele>207.4</ele>
        <time>2021-09-20T10:50:54Z</time>
      </trkpt>
      <trkpt lat="43.85353" lon="7.1249">
        <ele>207.6</ele>
        <time>2021-09-20T10:50:56Z</time>
      </trkpt>
      <trkpt lat="43.85355" lon="7.12503">
        <ele>207.4</ele>
        <time>2021-09-20T10:50:58Z</time>
      </trkpt>
      <trkpt lat="43.85356" lon="7.12514">
        <ele>207.6</ele>
        <time>2021-09-20T10:51:00Z</time>
      </trkpt>
      <trkpt lat="43.85357" lon="7.12527">
        <ele>207.3</ele>
        <time>2021-09-20T10:51:02Z</time>
      </trkpt>
      <trkpt lat="43.85358" lon="7.12532">
        <ele>207.5</ele>
        <time>2021-09-20T10:51:04Z</time>
      </trkpt>
      <trkpt lat="43.85358" lon="7.12533">
        <ele>207.7</ele>
        <time>2021-09-20T10:51:05Z</time>
      </trkpt>
      <trkpt lat="43.85359" lon="7.12538">
        <ele>207.9</ele>
        <time>2021-09-20T10:51:07Z</time>
      </trkpt>
      <trkpt lat="43.85358" lon="7.12535">
        <ele>208</ele>
        <time>2021-09-20T10:51:09Z</time>
      </trkpt>
      <trkpt lat="43.85356" lon="7.1253">
        <ele>208.6</ele>
        <time>2021-09-20T10:51:11Z</time>
      </trkpt>
      <trkpt lat="43.85355" lon="7.12529">
        <ele>208.8</ele>
        <time>2021-09-20T10:51:13Z</time>
      </trkpt>
      <trkpt lat="43.85337" lon="7.12737">
        <ele>238.1</ele>
        <time>2021-09-20T10:56:20Z</time>
      </trkpt>
      <trkpt lat="43.85337" lon="7.12745">
        <ele>239.4</ele>
        <time>2021-09-20T10:56:21Z</time>
      </trkpt>
      <trkpt lat="43.85337" lon="7.12751">
        <ele>240.1</ele>
        <time>2021-09-20T10:56:22Z</time>
      </trkpt>
      <trkpt lat="43.85338" lon="7.12758">
        <ele>241.2</ele>
        <time>2021-09-20T10:56:23Z</time>
      </trkpt>
      <trkpt lat="43.85337" lon="7.12762">
        <ele>242.2</ele>
        <time>2021-09-20T10:56:24Z</time>
      </trkpt>
      <trkpt lat="43.85336" lon="7.12765">
        <ele>242.9</ele>
        <time>2021-09-20T10:56:25Z</time>
      </trkpt>
      <trkpt lat="43.85335" lon="7.12769">
        <ele>243.6</ele>
        <time>2021-09-20T10:56:27Z</time>
      </trkpt>
      <trkpt lat="43.85334" lon="7.1277">
        <ele>244</ele>
        <time>2021-09-20T10:56:28Z</time>
      </trkpt>
      <trkpt lat="43.85333" lon="7.12775">
        <ele>244.7</ele>
        <time>2021-09-20T10:56:30Z</time>
      </trkpt>
      <trkpt lat="43.85333" lon="7.12778">
        <ele>245.4</ele>
        <time>2021-09-20T10:56:32Z</time>
      </trkpt>
      <trkpt lat="43.85333" lon="7.12779">
        <ele>245.6</ele>
        <time>2021-09-20T10:56:33Z</time>
      </trkpt>
      <trkpt lat="43.85333" lon="7.1278">
        <ele>245.7</ele>
        <time>2021-09-20T10:56:35Z</time>
      </trkpt>
      <trkpt lat="43.85212" lon="7.12921">
        <ele>284.5</ele>
        <time>2021-09-20T11:05:12Z</time>
      </trkpt>
      <trkpt lat="43.85212" lon="7.12923">
        <ele>284.8</ele>
        <time>2021-09-20T11:05:13Z</time>
      </trkpt>
      <trkpt lat="43.85211" lon="7.12925">
        <ele>285</ele>
        <time>2021-09-20T11:05:14Z</time>
      </trkpt>
      <trkpt lat="43.8521" lon="7.12928">
        <ele>285.3</ele>
        <time>2021-09-20T11:05:16Z</time>
      </trkpt>
      <trkpt lat="43.8521" lon="7.1293">
        <ele>285.5</ele>
        <time>2021-09-20T11:05:17Z</time>
      </trkpt>
      <trkpt lat="43.8521" lon="7.12931">
        <ele>285.6</ele>
        <time>2021-09-20T11:05:18Z</time>
      </trkpt>
      <trkpt lat="43.8521" lon="7.12933">
        <ele>285.8</ele>
        <time>2021-09-20T11:05:19Z</time>
      </trkpt>
      <trkpt lat="43.8521" lon="7.12935">
        <ele>286</ele>
        <time>2021-09-20T11:05:21Z</time>
      </trkpt>
      <trkpt lat="43.85211" lon="7.12938">
        <ele>286.3</ele>
        <time>2021-09-20T11:05:22Z</time>
      </trkpt>
      <trkpt lat="43.85211" lon="7.1294">
        <ele>286.5</ele>
        <time>2021-09-20T11:05:24Z</time>
      </trkpt>
      <trkpt lat="43.85211" lon="7.12942">
        <ele>286.7</ele>
        <time>2021-09-20T11:05:25Z</time>
      </trkpt>
      <trkpt lat="43.85212" lon="7.12944">
        <ele>286.8</ele>
        <time>2021-09-20T11:05:26Z</time>
      </trkpt>
      <trkpt lat="43.85213" lon="7.12947">
        <ele>287.2</ele>
        <time>2021-09-20T11:05:27Z</time>
      </trkpt>
      <trkpt lat="43.85213" lon="7.12948">
        <ele>287.3</ele>
        <time>2021-09-20T11:05:28Z</time>
      </trkpt>
      <trkpt lat="43.85215" lon="7.12952">
        <ele>287.7</ele>
        <time>2021-09-20T11:05:30Z</time>
      </trkpt>
      <trkpt lat="43.85215" lon="7.12953">
        <ele>287.8</ele>
        <time>2021-09-20T11:05:31Z</time>
      </trkpt>
      <trkpt lat="43.85218" lon="7.12956">
        <ele>288.3</ele>
        <time>2021-09-20T11:05:33Z</time>
      </trkpt>
      <trkpt lat="43.85219" lon="7.12958">
        <ele>288.4</ele>
        <time>2021-09-20T11:05:34Z</time>
      </trkpt>
      <trkpt lat="43.8522" lon="7.12959">
        <ele>288.6</ele>
        <time>2021-09-20T11:05:35Z</time>
      </trkpt>
      <trkpt lat="43.85222" lon="7.12962">
        <ele>289</ele>
        <time>2021-09-20T11:05:37Z</time>
      </trkpt>
      <trkpt lat="43.85224" lon="7.12964">
        <ele>289.3</ele>
        <time>2021-09-20T11:05:39Z</time>
      </trkpt>
      <trkpt lat="43.85227" lon="7.12967">
        <ele>289.7</ele>
        <time>2021-09-20T11:05:41Z</time>
      </trkpt>
      <trkpt lat="43.85228" lon="7.12968">
        <ele>290</ele>
        <time>2021-09-20T11:05:42Z</time>
      </trkpt>
      <trkpt lat="43.8523" lon="7.1297">
        <ele>290.3</ele>
        <time>2021-09-20T11:05:44Z</time>
      </trkpt>
      <trkpt lat="43.85232" lon="7.12972">
        <ele>290.7</ele>
        <time>2021-09-20T11:05:45Z</time>
      </trkpt>
      <trkpt lat="43.85233" lon="7.12973">
        <ele>290.8</ele>
        <time>2021-09-20T11:05:46Z</time>
      </trkpt>
      <trkpt lat="43.85235" lon="7.12976">
        <ele>291.2</ele>
        <time>2021-09-20T11:05:47Z</time>
      </trkpt>
      <trkpt lat="43.85236" lon="7.12977">
        <ele>291.4</ele>
        <time>2021-09-20T11:05:49Z</time>
      </trkpt>
      <trkpt lat="43.85236" lon="7.12979">
        <ele>291.5</ele>
        <time>2021-09-20T11:05:50Z</time>
      </trkpt>
      <trkpt lat="43.85237" lon="7.1298">
        <ele>291.7</ele>
        <time>2021-09-20T11:05:51Z</time>
      </trkpt>
      <trkpt lat="43.85238" lon="7.12982">
        <ele>291.9</ele>
        <time>2021-09-20T11:05:52Z</time>
      </trkpt>
      <trkpt lat="43.85238" lon="7.12984">
        <ele>292.1</ele>
        <time>2021-09-20T11:05:53Z</time>
      </trkpt>
      <trkpt lat="43.85239" lon="7.12985">
        <ele>292.2</ele>
        <time>2021-09-20T11:05:54Z</time>
      </trkpt>
      <trkpt lat="43.8524" lon="7.12987">
        <ele>292.5</ele>
        <time>2021-09-20T11:05:56Z</time>
      </trkpt>
      <trkpt lat="43.85241" lon="7.12987">
        <ele>292.6</ele>
        <time>2021-09-20T11:05:57Z</time>
      </trkpt>
      <trkpt lat="43.85243" lon="7.12988">
        <ele>292.9</ele>
        <time>2021-09-20T11:05:58Z</time>
      </trkpt>
      <trkpt lat="43.85246" lon="7.12984">
        <ele>293.5</ele>
        <time>2021-09-20T11:05:59Z</time>
      </trkpt>
      <trkpt lat="43.85252" lon="7.12972">
        <ele>295.1</ele>
        <time>2021-09-20T11:06:00Z</time>
      </trkpt>
      <trkpt lat="43.85257" lon="7.12964">
        <ele>296.1</ele>
        <time>2021-09-20T11:06:02Z</time>
      </trkpt>
      <trkpt lat="43.85256" lon="7.12967">
        <ele>296.4</ele>
        <time>2021-09-20T11:06:03Z</time>
      </trkpt>
      <trkpt lat="43.85255" lon="7.12969">
        <ele>296.7</ele>
        <time>2021-09-20T11:06:04Z</time>
      </trkpt>
      <trkpt lat="43.85254" lon="7.12971">
        <ele>296.9</ele>
        <time>2021-09-20T11:06:05Z</time>
      </trkpt>
      <trkpt lat="43.85254" lon="7.12974">
        <ele>297.2</ele>
        <time>2021-09-20T11:06:07Z</time>
      </trkpt>
      <trkpt lat="43.85254" lon="7.12975">
        <ele>297.4</ele>
        <time>2021-09-20T11:06:08Z</time>
      </trkpt>
      <trkpt lat="43.85254" lon="7.12977">
        <ele>297.5</ele>
        <time>2021-09-20T11:06:09Z</time>
      </trkpt>
      <trkpt lat="43.85254" lon="7.12979">
        <ele>297.7</ele>
        <time>2021-09-20T11:06:10Z</time>
      </trkpt>
      <trkpt lat="43.85254" lon="7.12981">
        <ele>298</ele>
        <time>2021-09-20T11:06:12Z</time>
      </trkpt>
      <trkpt lat="43.85255" lon="7.12984">
        <ele>298.3</ele>
        <time>2021-09-20T11:06:13Z</time>
      </trkpt>
      <trkpt lat="43.85255" lon="7.12985">
        <ele>298.4</ele>
        <time>2021-09-20T11:06:15Z</time>
      </trkpt>
      <trkpt lat="43.85255" lon="7.12987">
        <ele>298.6</ele>
        <time>2021-09-20T11:06:16Z</time>
      </trkpt>
      <trkpt lat="43.85255" lon="7.12988">
        <ele>298.7</ele>
        <time>2021-09-20T11:06:17Z</time>
      </trkpt>
      <trkpt lat="43.85255" lon="7.12989">
        <ele>298.8</ele>
        <time>2021-09-20T11:06:18Z</time>
      </trkpt>
      <trkpt lat="43.85255" lon="7.1299">
        <ele>299</ele>
        <time>2021-09-20T11:06:20Z</time>
      </trkpt>
      <trkpt lat="43.85256" lon="7.12991">
        <ele>299.1</ele>
        <time>2021-09-20T11:06:21Z</time>
      </trkpt>
      <trkpt lat="43.85256" lon="7.12995">
        <ele>299.5</ele>
        <time>2021-09-20T11:06:22Z</time>
      </trkpt>
      <trkpt lat="43.85257" lon="7.12997">
        <ele>299.6</ele>
        <time>2021-09-20T11:06:23Z</time>
      </trkpt>
      <trkpt lat="43.85257" lon="7.12998">
        <ele>299.8</ele>
        <time>2021-09-20T11:06:24Z</time>
      </trkpt>
      <trkpt lat="43.85259" lon="7.13">
        <ele>300.1</ele>
        <time>2021-09-20T11:06:26Z</time>
      </trkpt>
      <trkpt lat="43.8526" lon="7.13002">
        <ele>300.3</ele>
        <time>2021-09-20T11:06:27Z</time>
      </trkpt>
      <trkpt lat="43.85261" lon="7.13003">
        <ele>300.5</ele>
        <time>2021-09-20T11:06:28Z</time>
      </trkpt>
      <trkpt lat="43.85262" lon="7.13005">
        <ele>300.7</ele>
        <time>2021-09-20T11:06:29Z</time>
      </trkpt>
      <trkpt lat="43.85264" lon="7.13007">
        <ele>301</ele>
        <time>2021-09-20T11:06:30Z</time>
      </trkpt>
      <trkpt lat="43.85265" lon="7.13008">
        <ele>301.2</ele>
        <time>2021-09-20T11:06:32Z</time>
      </trkpt>
      <trkpt lat="43.85265" lon="7.1301">
        <ele>301.3</ele>
        <time>2021-09-20T11:06:34Z</time>
      </trkpt>
      <trkpt lat="43.85264" lon="7.13011">
        <ele>301.5</ele>
        <time>2021-09-20T11:06:36Z</time>
      </trkpt>
      <trkpt lat="43.85264" lon="7.13012">
        <ele>301.5</ele>
        <time>2021-09-20T11:06:37Z</time>
      </trkpt>
      <trkpt lat="43.85262" lon="7.13011">
        <ele>301.7</ele>
        <time>2021-09-20T11:06:39Z</time>
      </trkpt>
      <trkpt lat="43.85262" lon="7.13011">
        <ele>301.8</ele>
        <time>2021-09-20T11:06:40Z</time>
      </trkpt>
      <trkpt lat="43.85259" lon="7.1301">
        <ele>302</ele>
        <time>2021-09-20T11:06:43Z</time>
      </trkpt>
      <trkpt lat="43.85259" lon="7.13009">
        <ele>302.1</ele>
        <time>2021-09-20T11:06:45Z</time>
      </trkpt>
      <trkpt lat="43.85259" lon="7.13009">
        <ele>302.2</ele>
        <time>2021-09-20T11:06:46Z</time>
      </trkpt>
      <trkpt lat="43.8526" lon="7.1301">
        <ele>302.3</ele>
        <time>2021-09-20T11:06:48Z</time>
      </trkpt>
      <trkpt lat="43.85261" lon="7.13011">
        <ele>302.4</ele>
        <time>2021-09-20T11:06:49Z</time>
      </trkpt>
      <trkpt lat="43.85262" lon="7.13012">
        <ele>302.5</ele>
        <time>2021-09-20T11:06:50Z</time>
      </trkpt>
      <trkpt lat="43.85264" lon="7.13013">
        <ele>302.8</ele>
        <time>2021-09-20T11:06:52Z</time>
      </trkpt>
      <trkpt lat="43.85265" lon="7.13015">
        <ele>302.9</ele>
        <time>2021-09-20T11:06:53Z</time>
      </trkpt>
      <trkpt lat="43.85266" lon="7.1302">
        <ele>303.3</ele>
        <time>2021-09-20T11:06:55Z</time>
      </trkpt>
      <trkpt lat="43.85268" lon="7.13025">
        <ele>303.7</ele>
        <time>2021-09-20T11:06:57Z</time>
      </trkpt>
      <trkpt lat="43.85269" lon="7.1303">
        <ele>304</ele>
        <time>2021-09-20T11:06:58Z</time>
      </trkpt>
      <trkpt lat="43.85269" lon="7.13032">
        <ele>304.1</ele>
        <time>2021-09-20T11:06:59Z</time>
      </trkpt>
      <trkpt lat="43.85269" lon="7.13037">
        <ele>304.4</ele>
        <time>2021-09-20T11:07:01Z</time>
      </trkpt>
      <trkpt lat="43.8527" lon="7.13039">
        <ele>304.5</ele>
        <time>2021-09-20T11:07:02Z</time>
      </trkpt>
      <trkpt lat="43.85271" lon="7.13043">
        <ele>304.8</ele>
        <time>2021-09-20T11:07:03Z</time>
      </trkpt>
      <trkpt lat="43.85272" lon="7.13045">
        <ele>304.9</ele>
        <time>2021-09-20T11:07:04Z</time>
      </trkpt>
      <trkpt lat="43.85274" lon="7.13049">
        <ele>305.1</ele>
        <time>2021-09-20T11:07:06Z</time>
      </trkpt>
      <trkpt lat="43.85277" lon="7.13052">
        <ele>305.4</ele>
        <time>2021-09-20T11:07:07Z</time>
      </trkpt>
      <trkpt lat="43.85281" lon="7.13052">
        <ele>305.7</ele>
        <time>2021-09-20T11:07:08Z</time>
      </trkpt>
      <trkpt lat="43.85285" lon="7.13052">
        <ele>306</ele>
        <time>2021-09-20T11:07:10Z</time>
      </trkpt>
      <trkpt lat="43.85288" lon="7.13052">
        <ele>306.2</ele>
        <time>2021-09-20T11:07:12Z</time>
      </trkpt>
      <trkpt lat="43.85292" lon="7.13051">
        <ele>306.4</ele>
        <time>2021-09-20T11:07:13Z</time>
      </trkpt>
      <trkpt lat="43.85295" lon="7.13051">
        <ele>306.7</ele>
        <time>2021-09-20T11:07:15Z</time>
      </trkpt>
      <trkpt lat="43.85301" lon="7.13057">
        <ele>307.2</ele>
        <time>2021-09-20T11:07:17Z</time>
      </trkpt>
      <trkpt lat="43.85303" lon="7.13062">
        <ele>307.4</ele>
        <time>2021-09-20T11:07:18Z</time>
      </trkpt>
      <trkpt lat="43.85303" lon="7.13064">
        <ele>307.6</ele>
        <time>2021-09-20T11:07:20Z</time>
      </trkpt>
      <trkpt lat="43.85303" lon="7.13064">
        <ele>307.6</ele>
        <time>2021-09-20T11:07:21Z</time>
      </trkpt>
      <trkpt lat="43.85303" lon="7.13065">
        <ele>307.6</ele>
        <time>2021-09-20T11:07:22Z</time>
      </trkpt>
      <trkpt lat="43.85303" lon="7.13065">
        <ele>307.6</ele>
        <time>2021-09-20T11:07:23Z</time>
      </trkpt>
      <trkpt lat="43.85304" lon="7.1307">
        <ele>308</ele>
        <time>2021-09-20T11:07:24Z</time>
      </trkpt>
      <trkpt lat="43.85305" lon="7.13075">
        <ele>308.2</ele>
        <time>2021-09-20T11:07:26Z</time>
      </trkpt>
      <trkpt lat="43.85306" lon="7.1308">
        <ele>308.4</ele>
        <time>2021-09-20T11:07:27Z</time>
      </trkpt>
      <trkpt lat="43.85314" lon="7.13107">
        <ele>309.6</ele>
        <time>2021-09-20T11:07:29Z</time>
      </trkpt>
      <trkpt lat="43.85317" lon="7.13116">
        <ele>309.9</ele>
        <time>2021-09-20T11:07:30Z</time>
      </trkpt>
      <trkpt lat="43.85319" lon="7.1312">
        <ele>310.1</ele>
        <time>2021-09-20T11:07:31Z</time>
      </trkpt>
      <trkpt lat="43.8532" lon="7.13123">
        <ele>310.2</ele>
        <time>2021-09-20T11:07:32Z</time>
      </trkpt>
      <trkpt lat="43.85321" lon="7.13126">
        <ele>310.3</ele>
        <time>2021-09-20T11:07:34Z</time>
      </trkpt>
      <trkpt lat="43.85326" lon="7.13132">
        <ele>310.6</ele>
        <time>2021-09-20T11:07:36Z</time>
      </trkpt>
      <trkpt lat="43.85329" lon="7.13137">
        <ele>310.9</ele>
        <time>2021-09-20T11:07:37Z</time>
      </trkpt>
      <trkpt lat="43.85338" lon="7.1315">
        <ele>311.5</ele>
        <time>2021-09-20T11:07:38Z</time>
      </trkpt>
      <trkpt lat="43.8534" lon="7.13156">
        <ele>311.8</ele>
        <time>2021-09-20T11:07:40Z</time>
      </trkpt>
      <trkpt lat="43.85342" lon="7.1316">
        <ele>312</ele>
        <time>2021-09-20T11:07:41Z</time>
      </trkpt>
      <trkpt lat="43.85343" lon="7.13161">
        <ele>312.1</ele>
        <time>2021-09-20T11:07:42Z</time>
      </trkpt>
      <trkpt lat="43.85343" lon="7.13163">
        <ele>312.2</ele>
        <time>2021-09-20T11:07:43Z</time>
      </trkpt>
      <trkpt lat="43.85344" lon="7.13165">
        <ele>312.3</ele>
        <time>2021-09-20T11:07:44Z</time>
      </trkpt>
      <trkpt lat="43.85345" lon="7.1317">
        <ele>312.6</ele>
        <time>2021-09-20T11:07:46Z</time>
      </trkpt>
      <trkpt lat="43.85346" lon="7.13172">
        <ele>312.7</ele>
        <time>2021-09-20T11:07:47Z</time>
      </trkpt>
      <trkpt lat="43.85346" lon="7.13174">
        <ele>312.8</ele>
        <time>2021-09-20T11:07:48Z</time>
      </trkpt>
      <trkpt lat="43.85347" lon="7.13176">
        <ele>313</ele>
        <time>2021-09-20T11:07:49Z</time>
      </trkpt>
      <trkpt lat="43.85349" lon="7.13179">
        <ele>313.3</ele>
        <time>2021-09-20T11:07:51Z</time>
      </trkpt>
      <trkpt lat="43.85349" lon="7.13181">
        <ele>313.4</ele>
        <time>2021-09-20T11:07:52Z</time>
      </trkpt>
      <trkpt lat="43.85349" lon="7.13182">
        <ele>313.5</ele>
        <time>2021-09-20T11:07:53Z</time>
      </trkpt>
      <trkpt lat="43.85349" lon="7.13184">
        <ele>313.7</ele>
        <time>2021-09-20T11:07:55Z</time>
      </trkpt>
      <trkpt lat="43.85349" lon="7.13186">
        <ele>313.9</ele>
        <time>2021-09-20T11:07:56Z</time>
      </trkpt>
      <trkpt lat="43.85349" lon="7.13187">
        <ele>314.1</ele>
        <time>2021-09-20T11:07:57Z</time>
      </trkpt>
      <trkpt lat="43.85349" lon="7.13189">
        <ele>314.3</ele>
        <time>2021-09-20T11:07:59Z</time>
      </trkpt>
      <trkpt lat="43.85349" lon="7.13191">
        <ele>314.5</ele>
        <time>2021-09-20T11:08:00Z</time>
      </trkpt>
      <trkpt lat="43.85348" lon="7.13192">
        <ele>314.7</ele>
        <time>2021-09-20T11:08:01Z</time>
      </trkpt>
      <trkpt lat="43.8535" lon="7.13198">
        <ele>315.5</ele>
        <time>2021-09-20T11:08:03Z</time>
      </trkpt>
      <trkpt lat="43.8535" lon="7.13202">
        <ele>316</ele>
        <time>2021-09-20T11:08:04Z</time>
      </trkpt>
      <trkpt lat="43.8535" lon="7.13205">
        <ele>316.5</ele>
        <time>2021-09-20T11:08:06Z</time>
      </trkpt>
      <trkpt lat="43.85349" lon="7.13208">
        <ele>317</ele>
        <time>2021-09-20T11:08:08Z</time>
      </trkpt>
      <trkpt lat="43.85349" lon="7.13208">
        <ele>317.1</ele>
        <time>2021-09-20T11:08:09Z</time>
      </trkpt>
      <trkpt lat="43.85346" lon="7.13209">
        <ele>317.7</ele>
        <time>2021-09-20T11:08:10Z</time>
      </trkpt>
      <trkpt lat="43.85344" lon="7.1321">
        <ele>318</ele>
        <time>2021-09-20T11:08:12Z</time>
      </trkpt>
      <trkpt lat="43.85343" lon="7.13211">
        <ele>318.3</ele>
        <time>2021-09-20T11:08:13Z</time>
      </trkpt>
      <trkpt lat="43.85341" lon="7.13212">
        <ele>318.6</ele>
        <time>2021-09-20T11:08:14Z</time>
      </trkpt>
      <trkpt lat="43.85339" lon="7.13216">
        <ele>318.8</ele>
        <time>2021-09-20T11:08:16Z</time>
      </trkpt>
      <trkpt lat="43.85339" lon="7.13217">
        <ele>318.8</ele>
        <time>2021-09-20T11:08:17Z</time>
      </trkpt>
      <trkpt lat="43.85338" lon="7.13221">
        <ele>318.9</ele>
        <time>2021-09-20T11:08:19Z</time>
      </trkpt>
      <trkpt lat="43.85338" lon="7.13222">
        <ele>318.9</ele>
        <time>2021-09-20T11:08:20Z</time>
      </trkpt>
      <trkpt lat="43.85336" lon="7.13224">
        <ele>319</ele>
        <time>2021-09-20T11:08:22Z</time>
      </trkpt>
      <trkpt lat="43.85336" lon="7.13225">
        <ele>319</ele>
        <time>2021-09-20T11:08:23Z</time>
      </trkpt>
      <trkpt lat="43.85335" lon="7.13227">
        <ele>319</ele>
        <time>2021-09-20T11:08:24Z</time>
      </trkpt>
      <trkpt lat="43.85334" lon="7.13229">
        <ele>319.1</ele>
        <time>2021-09-20T11:08:26Z</time>
      </trkpt>
      <trkpt lat="43.85334" lon="7.13231">
        <ele>319.1</ele>
        <time>2021-09-20T11:08:27Z</time>
      </trkpt>
      <trkpt lat="43.85333" lon="7.13232">
        <ele>319.2</ele>
        <time>2021-09-20T11:08:28Z</time>
      </trkpt>
      <trkpt lat="43.85333" lon="7.13234">
        <ele>319.2</ele>
        <time>2021-09-20T11:08:30Z</time>
      </trkpt>
      <trkpt lat="43.85332" lon="7.13237">
        <ele>319.3</ele>
        <time>2021-09-20T11:08:32Z</time>
      </trkpt>
      <trkpt lat="43.85332" lon="7.13238">
        <ele>319.3</ele>
        <time>2021-09-20T11:08:33Z</time>
      </trkpt>
      <trkpt lat="43.85331" lon="7.13242">
        <ele>319.4</ele>
        <time>2021-09-20T11:08:34Z</time>
      </trkpt>
      <trkpt lat="43.85331" lon="7.13244">
        <ele>319.4</ele>
        <time>2021-09-20T11:08:36Z</time>
      </trkpt>
      <trkpt lat="43.85331" lon="7.13246">
        <ele>319.4</ele>
        <time>2021-09-20T11:08:38Z</time>
      </trkpt>
      <trkpt lat="43.85331" lon="7.13248">
        <ele>319.5</ele>
        <time>2021-09-20T11:08:39Z</time>
      </trkpt>
      <trkpt lat="43.8533" lon="7.13253">
        <ele>319.6</ele>
        <time>2021-09-20T11:08:41Z</time>
      </trkpt>
      <trkpt lat="43.8533" lon="7.13254">
        <ele>319.6</ele>
        <time>2021-09-20T11:08:42Z</time>
      </trkpt>
      <trkpt lat="43.8533" lon="7.13256">
        <ele>319.6</ele>
        <time>2021-09-20T11:08:43Z</time>
      </trkpt>
      <trkpt lat="43.8533" lon="7.13261">
        <ele>319.7</ele>
        <time>2021-09-20T11:08:45Z</time>
      </trkpt>
      <trkpt lat="43.8533" lon="7.13273">
        <ele>319.8</ele>
        <time>2021-09-20T11:08:46Z</time>
      </trkpt>
      <trkpt lat="43.85329" lon="7.13282">
        <ele>319.9</ele>
        <time>2021-09-20T11:08:48Z</time>
      </trkpt>
      <trkpt lat="43.8533" lon="7.13294">
        <ele>319.9</ele>
        <time>2021-09-20T11:08:49Z</time>
      </trkpt>
      <trkpt lat="43.85331" lon="7.133">
        <ele>320</ele>
        <time>2021-09-20T11:08:51Z</time>
      </trkpt>
      <trkpt lat="43.85332" lon="7.13303">
        <ele>320</ele>
        <time>2021-09-20T11:08:52Z</time>
      </trkpt>
      <trkpt lat="43.85334" lon="7.13305">
        <ele>320</ele>
        <time>2021-09-20T11:08:54Z</time>
      </trkpt>
      <trkpt lat="43.85335" lon="7.13307">
        <ele>320</ele>
        <time>2021-09-20T11:08:55Z</time>
      </trkpt>
      <trkpt lat="43.85336" lon="7.13312">
        <ele>320</ele>
        <time>2021-09-20T11:08:57Z</time>
      </trkpt>
      <trkpt lat="43.85337" lon="7.13316">
        <ele>320</ele>
        <time>2021-09-20T11:08:58Z</time>
      </trkpt>
      <trkpt lat="43.85338" lon="7.13317">
        <ele>320</ele>
        <time>2021-09-20T11:09:00Z</time>
      </trkpt>
      <trkpt lat="43.85344" lon="7.13329">
        <ele>320.1</ele>
        <time>2021-09-20T11:09:02Z</time>
      </trkpt>
      <trkpt lat="43.85349" lon="7.13338">
        <ele>320.1</ele>
        <time>2021-09-20T11:09:03Z</time>
      </trkpt>
      <trkpt lat="43.8535" lon="7.1334">
        <ele>320.1</ele>
        <time>2021-09-20T11:09:04Z</time>
      </trkpt>
      <trkpt lat="43.8535" lon="7.13342">
        <ele>320.2</ele>
        <time>2021-09-20T11:09:06Z</time>
      </trkpt>
      <trkpt lat="43.8535" lon="7.13343">
        <ele>320.2</ele>
        <time>2021-09-20T11:09:07Z</time>
      </trkpt>
      <trkpt lat="43.8535" lon="7.13342">
        <ele>320.2</ele>
        <time>2021-09-20T11:09:09Z</time>
      </trkpt>
      <trkpt lat="43.85349" lon="7.13342">
        <ele>320.2</ele>
        <time>2021-09-20T11:09:10Z</time>
      </trkpt>
      <trkpt lat="43.85349" lon="7.13341">
        <ele>320.2</ele>
        <time>2021-09-20T11:09:11Z</time>
      </trkpt>
      <trkpt lat="43.85347" lon="7.13338">
        <ele>320.2</ele>
        <time>2021-09-20T11:09:13Z</time>
      </trkpt>
      <trkpt lat="43.85346" lon="7.13334">
        <ele>320.2</ele>
        <time>2021-09-20T11:09:15Z</time>
      </trkpt>
      <trkpt lat="43.85345" lon="7.13331">
        <ele>320.3</ele>
        <time>2021-09-20T11:09:16Z</time>
      </trkpt>
      <trkpt lat="43.85344" lon="7.13327">
        <ele>320.3</ele>
        <time>2021-09-20T11:09:18Z</time>
      </trkpt>
      <trkpt lat="43.85344" lon="7.13323">
        <ele>320.3</ele>
        <time>2021-09-20T11:09:19Z</time>
      </trkpt>
      <trkpt lat="43.85345" lon="7.13322">
        <ele>320.3</ele>
        <time>2021-09-20T11:09:20Z</time>
      </trkpt>
      <trkpt lat="43.85345" lon="7.1332">
        <ele>320.3</ele>
        <time>2021-09-20T11:09:21Z</time>
      </trkpt>
      <trkpt lat="43.85345" lon="7.13318">
        <ele>320.3</ele>
        <time>2021-09-20T11:09:23Z</time>
      </trkpt>
      <trkpt lat="43.85346" lon="7.13317">
        <ele>320.3</ele>
        <time>2021-09-20T11:09:24Z</time>
      </trkpt>
      <trkpt lat="43.85346" lon="7.13317">
        <ele>320.3</ele>
        <time>2021-09-20T11:09:25Z</time>
      </trkpt>
      <trkpt lat="43.85346" lon="7.13316">
        <ele>320.3</ele>
        <time>2021-09-20T11:09:26Z</time>
      </trkpt>
      <trkpt lat="43.85348" lon="7.13316">
        <ele>320.4</ele>
        <time>2021-09-20T11:09:28Z</time>
      </trkpt>
      <trkpt lat="43.85349" lon="7.13316">
        <ele>320.4</ele>
        <time>2021-09-20T11:09:29Z</time>
      </trkpt>
      <trkpt lat="43.85353" lon="7.13315">
        <ele>320.5</ele>
        <time>2021-09-20T11:09:30Z</time>
      </trkpt>
      <trkpt lat="43.85357" lon="7.13314">
        <ele>320.9</ele>
        <time>2021-09-20T11:09:31Z</time>
      </trkpt>
      <trkpt lat="43.85362" lon="7.13314">
        <ele>321.3</ele>
        <time>2021-09-20T11:09:32Z</time>
      </trkpt>
      <trkpt lat="43.85366" lon="7.13313">
        <ele>321.8</ele>
        <time>2021-09-20T11:09:34Z</time>
      </trkpt>
      <trkpt lat="43.85368" lon="7.13312">
        <ele>322</ele>
        <time>2021-09-20T11:09:35Z</time>
      </trkpt>
      <trkpt lat="43.85368" lon="7.13312">
        <ele>322.2</ele>
        <time>2021-09-20T11:09:36Z</time>
      </trkpt>
      <trkpt lat="43.85368" lon="7.13311">
        <ele>322.4</ele>
        <time>2021-09-20T11:09:38Z</time>
      </trkpt>
      <trkpt lat="43.85368" lon="7.13309">
        <ele>322.7</ele>
        <time>2021-09-20T11:09:39Z</time>
      </trkpt>
      <trkpt lat="43.85367" lon="7.13305">
        <ele>322.6</ele>
        <time>2021-09-20T11:09:41Z</time>
      </trkpt>
      <trkpt lat="43.85367" lon="7.13304">
        <ele>322.5</ele>
        <time>2021-09-20T11:09:42Z</time>
      </trkpt>
      <trkpt lat="43.85367" lon="7.13301">
        <ele>322.7</ele>
        <time>2021-09-20T11:09:43Z</time>
      </trkpt>
      <trkpt lat="43.85369" lon="7.13298">
        <ele>323</ele>
        <time>2021-09-20T11:09:45Z</time>
      </trkpt>
      <trkpt lat="43.85369" lon="7.13297">
        <ele>323.3</ele>
        <time>2021-09-20T11:09:46Z</time>
      </trkpt>
      <trkpt lat="43.8537" lon="7.13296">
        <ele>323.2</ele>
        <time>2021-09-20T11:09:47Z</time>
      </trkpt>
      <trkpt lat="43.8537" lon="7.13295">
        <ele>323.4</ele>
        <time>2021-09-20T11:09:48Z</time>
      </trkpt>
      <trkpt lat="43.8537" lon="7.13294">
        <ele>323.7</ele>
        <time>2021-09-20T11:09:49Z</time>
      </trkpt>
      <trkpt lat="43.85371" lon="7.13292">
        <ele>323.6</ele>
        <time>2021-09-20T11:09:50Z</time>
      </trkpt>
      <trkpt lat="43.85376" lon="7.13285">
        <ele>324.4</ele>
        <time>2021-09-20T11:09:52Z</time>
      </trkpt>
      <trkpt lat="43.85376" lon="7.13283">
        <ele>324.4</ele>
        <time>2021-09-20T11:09:53Z</time>
      </trkpt>
      <trkpt lat="43.85378" lon="7.13279">
        <ele>324.6</ele>
        <time>2021-09-20T11:09:55Z</time>
      </trkpt>
      <trkpt lat="43.85378" lon="7.13277">
        <ele>324.6</ele>
        <time>2021-09-20T11:09:57Z</time>
      </trkpt>
      <trkpt lat="43.85377" lon="7.13278">
        <ele>324.8</ele>
        <time>2021-09-20T11:09:59Z</time>
      </trkpt>
      <trkpt lat="43.85377" lon="7.13277">
        <ele>325</ele>
        <time>2021-09-20T11:10:00Z</time>
      </trkpt>
      <trkpt lat="43.85377" lon="7.13277">
        <ele>325.2</ele>
        <time>2021-09-20T11:10:02Z</time>
      </trkpt>
      <trkpt lat="43.85381" lon="7.13265">
        <ele>324.9</ele>
        <time>2021-09-20T11:10:05Z</time>
      </trkpt>
      <trkpt lat="43.85505" lon="7.13266">
        <ele>332</ele>
        <time>2021-09-20T11:12:21Z</time>
      </trkpt>
      <trkpt lat="43.85508" lon="7.13267">
        <ele>332.3</ele>
        <time>2021-09-20T11:12:22Z</time>
      </trkpt>
      <trkpt lat="43.8551" lon="7.13272">
        <ele>332.7</ele>
        <time>2021-09-20T11:12:23Z</time>
      </trkpt>
      <trkpt lat="43.85513" lon="7.1328">
        <ele>333.2</ele>
        <time>2021-09-20T11:12:25Z</time>
      </trkpt>
      <trkpt lat="43.85516" lon="7.13291">
        <ele>333.9</ele>
        <time>2021-09-20T11:12:26Z</time>
      </trkpt>
      <trkpt lat="43.8552" lon="7.13295">
        <ele>334.3</ele>
        <time>2021-09-20T11:12:27Z</time>
      </trkpt>
      <trkpt lat="43.85529" lon="7.13304">
        <ele>335.1</ele>
        <time>2021-09-20T11:12:29Z</time>
      </trkpt>
      <trkpt lat="43.85534" lon="7.13308">
        <ele>335.5</ele>
        <time>2021-09-20T11:12:30Z</time>
      </trkpt>
      <trkpt lat="43.85544" lon="7.13313">
        <ele>336.2</ele>
        <time>2021-09-20T11:12:32Z</time>
      </trkpt>
      <trkpt lat="43.85552" lon="7.13317">
        <ele>336.7</ele>
        <time>2021-09-20T11:12:34Z</time>
      </trkpt>
      <trkpt lat="43.85561" lon="7.13317">
        <ele>337.3</ele>
        <time>2021-09-20T11:12:36Z</time>
      </trkpt>
      <trkpt lat="43.85567" lon="7.13318">
        <ele>337.7</ele>
        <time>2021-09-20T11:12:37Z</time>
      </trkpt>
      <trkpt lat="43.85574" lon="7.13318">
        <ele>338.2</ele>
        <time>2021-09-20T11:12:41Z</time>
      </trkpt>
      <trkpt lat="43.85576" lon="7.13318">
        <ele>338.3</ele>
        <time>2021-09-20T11:12:43Z</time>
      </trkpt>
      <trkpt lat="43.85577" lon="7.13323">
        <ele>338.6</ele>
        <time>2021-09-20T11:12:44Z</time>
      </trkpt>
      <trkpt lat="43.85577" lon="7.13327">
        <ele>338.8</ele>
        <time>2021-09-20T11:12:45Z</time>
      </trkpt>
      <trkpt lat="43.85578" lon="7.13329">
        <ele>339</ele>
        <time>2021-09-20T11:12:47Z</time>
      </trkpt>
      <trkpt lat="43.85579" lon="7.13329">
        <ele>339.1</ele>
        <time>2021-09-20T11:12:48Z</time>
      </trkpt>
      <trkpt lat="43.8558" lon="7.13329">
        <ele>339.2</ele>
        <time>2021-09-20T11:12:49Z</time>
      </trkpt>
      <trkpt lat="43.855" lon="7.13372">
        <ele>347.2</ele>
        <time>2021-09-20T11:13:19Z</time>
      </trkpt>
      <trkpt lat="43.855" lon="7.13375">
        <ele>347.4</ele>
        <time>2021-09-20T11:13:20Z</time>
      </trkpt>
      <trkpt lat="43.855" lon="7.13376">
        <ele>347.5</ele>
        <time>2021-09-20T11:13:21Z</time>
      </trkpt>
      <trkpt lat="43.855" lon="7.13377">
        <ele>347.5</ele>
        <time>2021-09-20T11:13:22Z</time>
      </trkpt>
      <trkpt lat="43.85501" lon="7.13376">
        <ele>347.6</ele>
        <time>2021-09-20T11:13:23Z</time>
      </trkpt>
      <trkpt lat="43.85501" lon="7.13375">
        <ele>347.7</ele>
        <time>2021-09-20T11:13:24Z</time>
      </trkpt>
      <trkpt lat="43.85501" lon="7.13374">
        <ele>347.7</ele>
        <time>2021-09-20T11:13:26Z</time>
      </trkpt>
      <trkpt lat="43.85501" lon="7.13373">
        <ele>347.8</ele>
        <time>2021-09-20T11:13:28Z</time>
      </trkpt>
      <trkpt lat="43.85501" lon="7.13373">
        <ele>347.8</ele>
        <time>2021-09-20T11:13:29Z</time>
      </trkpt>
      <trkpt lat="43.85501" lon="7.13372">
        <ele>347.8</ele>
        <time>2021-09-20T11:13:30Z</time>
      </trkpt>
      <trkpt lat="43.85501" lon="7.13372">
        <ele>347.9</ele>
        <time>2021-09-20T11:13:32Z</time>
      </trkpt>
      <trkpt lat="43.85501" lon="7.13372">
        <ele>347.9</ele>
        <time>2021-09-20T11:13:33Z</time>
      </trkpt>
      <trkpt lat="43.855" lon="7.13372">
        <ele>348</ele>
        <time>2021-09-20T11:13:35Z</time>
      </trkpt>
      <trkpt lat="43.85488" lon="7.13375">
        <ele>349.1</ele>
        <time>2021-09-20T11:13:44Z</time>
      </trkpt>
      <trkpt lat="43.85487" lon="7.13374">
        <ele>349.2</ele>
        <time>2021-09-20T11:13:45Z</time>
      </trkpt>
      <trkpt lat="43.85486" lon="7.13374">
        <ele>349.3</ele>
        <time>2021-09-20T11:13:46Z</time>
      </trkpt>
      <trkpt lat="43.85485" lon="7.13373">
        <ele>349.4</ele>
        <time>2021-09-20T11:13:47Z</time>
      </trkpt>
      <trkpt lat="43.85485" lon="7.13373">
        <ele>349.5</ele>
        <time>2021-09-20T11:13:48Z</time>
      </trkpt>
      <trkpt lat="43.85484" lon="7.13373">
        <ele>349.5</ele>
        <time>2021-09-20T11:13:49Z</time>
      </trkpt>
      <trkpt lat="43.85484" lon="7.13372">
        <ele>349.5</ele>
        <time>2021-09-20T11:13:51Z</time>
      </trkpt>
      <trkpt lat="43.85482" lon="7.1337">
        <ele>349.8</ele>
        <time>2021-09-20T11:13:53Z</time>
      </trkpt>
      <trkpt lat="43.85482" lon="7.13369">
        <ele>349.9</ele>
        <time>2021-09-20T11:13:54Z</time>
      </trkpt>
      <trkpt lat="43.8548" lon="7.13367">
        <ele>350</ele>
        <time>2021-09-20T11:13:56Z</time>
      </trkpt>
      <trkpt lat="43.85472" lon="7.13511">
        <ele>360.5</ele>
        <time>2021-09-20T11:16:08Z</time>
      </trkpt>
      <trkpt lat="43.85472" lon="7.13513">
        <ele>360.6</ele>
        <time>2021-09-20T11:16:09Z</time>
      </trkpt>
      <trkpt lat="43.85472" lon="7.13513">
        <ele>360.6</ele>
        <time>2021-09-20T11:16:10Z</time>
      </trkpt>
      <trkpt lat="43.85472" lon="7.13513">
        <ele>360.6</ele>
        <time>2021-09-20T11:16:12Z</time>
      </trkpt>
      <trkpt lat="43.85472" lon="7.13513">
        <ele>360.7</ele>
        <time>2021-09-20T11:16:14Z</time>
      </trkpt>
      <trkpt lat="43.85472" lon="7.13513">
        <ele>360.7</ele>
        <time>2021-09-20T11:16:15Z</time>
      </trkpt>
      <trkpt lat="43.85472" lon="7.13513">
        <ele>360.7</ele>
        <time>2021-09-20T11:16:16Z</time>
      </trkpt>
      <trkpt lat="43.85472" lon="7.13514">
        <ele>360.7</ele>
        <time>2021-09-20T11:16:18Z</time>
      </trkpt>
      <trkpt lat="43.85472" lon="7.13515">
        <ele>360.8</ele>
        <time>2021-09-20T11:16:19Z</time>
      </trkpt>
      <trkpt lat="43.85471" lon="7.13515">
        <ele>360.8</ele>
        <time>2021-09-20T11:16:20Z</time>
      </trkpt>
      <trkpt lat="43.85471" lon="7.13515">
        <ele>360.9</ele>
        <time>2021-09-20T11:16:22Z</time>
      </trkpt>
      <trkpt lat="43.85471" lon="7.13515">
        <ele>360.9</ele>
        <time>2021-09-20T11:16:24Z</time>
      </trkpt>
      <trkpt lat="43.85471" lon="7.13515">
        <ele>360.9</ele>
        <time>2021-09-20T11:16:25Z</time>
      </trkpt>
      <trkpt lat="43.85471" lon="7.13516">
        <ele>361</ele>
        <time>2021-09-20T11:16:26Z</time>
      </trkpt>
      <trkpt lat="43.8547" lon="7.13514">
        <ele>361.1</ele>
        <time>2021-09-20T11:16:28Z</time>
      </trkpt>
      <trkpt lat="43.8547" lon="7.13512">
        <ele>361.2</ele>
        <time>2021-09-20T11:16:29Z</time>
      </trkpt>
      <trkpt lat="43.85468" lon="7.13509">
        <ele>361.5</ele>
        <time>2021-09-20T11:16:30Z</time>
      </trkpt>
      <trkpt lat="43.85465" lon="7.13505">
        <ele>361.9</ele>
        <time>2021-09-20T11:16:33Z</time>
      </trkpt>
      <trkpt lat="43.85465" lon="7.13506">
        <ele>362</ele>
        <time>2021-09-20T11:16:34Z</time>
      </trkpt>
      <trkpt lat="43.85464" lon="7.13506">
        <ele>362</ele>
        <time>2021-09-20T11:16:35Z</time>
      </trkpt>
      <trkpt lat="43.85463" lon="7.13506">
        <ele>362.1</ele>
        <time>2021-09-20T11:16:37Z</time>
      </trkpt>
      <trkpt lat="43.85462" lon="7.13507">
        <ele>362.2</ele>
        <time>2021-09-20T11:16:38Z</time>
      </trkpt>
      <trkpt lat="43.85461" lon="7.13508">
        <ele>362.4</ele>
        <time>2021-09-20T11:16:40Z</time>
      </trkpt>
      <trkpt lat="43.85461" lon="7.13509">
        <ele>362.5</ele>
        <time>2021-09-20T11:16:42Z</time>
      </trkpt>
      <trkpt lat="43.8546" lon="7.13509">
        <ele>362.5</ele>
        <time>2021-09-20T11:16:43Z</time>
      </trkpt>
      <trkpt lat="43.85459" lon="7.1351">
        <ele>362.6</ele>
        <time>2021-09-20T11:16:44Z</time>
      </trkpt>
      <trkpt lat="43.85459" lon="7.13512">
        <ele>362.8</ele>
        <time>2021-09-20T11:16:46Z</time>
      </trkpt>
      <trkpt lat="43.85458" lon="7.13513">
        <ele>362.9</ele>
        <time>2021-09-20T11:16:47Z</time>
      </trkpt>
      <trkpt lat="43.85458" lon="7.13514">
        <ele>363</ele>
        <time>2021-09-20T11:16:48Z</time>
      </trkpt>
      <trkpt lat="43.85457" lon="7.13514">
        <ele>363</ele>
        <time>2021-09-20T11:16:49Z</time>
      </trkpt>
      <trkpt lat="43.85457" lon="7.13516">
        <ele>363.1</ele>
        <time>2021-09-20T11:16:51Z</time>
      </trkpt>
      <trkpt lat="43.85456" lon="7.13517">
        <ele>363.3</ele>
        <time>2021-09-20T11:16:52Z</time>
      </trkpt>
      <trkpt lat="43.85456" lon="7.13519">
        <ele>363.4</ele>
        <time>2021-09-20T11:16:54Z</time>
      </trkpt>
      <trkpt lat="43.85456" lon="7.1352">
        <ele>363.5</ele>
        <time>2021-09-20T11:16:55Z</time>
      </trkpt>
      <trkpt lat="43.85456" lon="7.13521">
        <ele>363.6</ele>
        <time>2021-09-20T11:16:57Z</time>
      </trkpt>
      <trkpt lat="43.85455" lon="7.13522">
        <ele>363.7</ele>
        <time>2021-09-20T11:16:58Z</time>
      </trkpt>
      <trkpt lat="43.85455" lon="7.13524">
        <ele>363.8</ele>
        <time>2021-09-20T11:17:00Z</time>
      </trkpt>
      <trkpt lat="43.85455" lon="7.13524">
        <ele>363.9</ele>
        <time>2021-09-20T11:17:01Z</time>
      </trkpt>
      <trkpt lat="43.85455" lon="7.13526">
        <ele>364</ele>
        <time>2021-09-20T11:17:02Z</time>
      </trkpt>
      <trkpt lat="43.85455" lon="7.13528">
        <ele>364.1</ele>
        <time>2021-09-20T11:17:04Z</time>
      </trkpt>
      <trkpt lat="43.85456" lon="7.13529">
        <ele>364.2</ele>
        <time>2021-09-20T11:17:06Z</time>
      </trkpt>
      <trkpt lat="43.85456" lon="7.13531">
        <ele>364.4</ele>
        <time>2021-09-20T11:17:08Z</time>
      </trkpt>
      <trkpt lat="43.85456" lon="7.13532">
        <ele>364.5</ele>
        <time>2021-09-20T11:17:09Z</time>
      </trkpt>
      <trkpt lat="43.85456" lon="7.13534">
        <ele>364.7</ele>
        <time>2021-09-20T11:17:10Z</time>
      </trkpt>
      <trkpt lat="43.85456" lon="7.13535">
        <ele>364.7</ele>
        <time>2021-09-20T11:17:13Z</time>
      </trkpt>
      <trkpt lat="43.85456" lon="7.13536">
        <ele>364.8</ele>
        <time>2021-09-20T11:17:14Z</time>
      </trkpt>
      <trkpt lat="43.85457" lon="7.13538">
        <ele>365</ele>
        <time>2021-09-20T11:17:16Z</time>
      </trkpt>
      <trkpt lat="43.85457" lon="7.1354">
        <ele>365.2</ele>
        <time>2021-09-20T11:17:19Z</time>
      </trkpt>
      <trkpt lat="43.85457" lon="7.13541">
        <ele>365.3</ele>
        <time>2021-09-20T11:17:20Z</time>
      </trkpt>
      <trkpt lat="43.85457" lon="7.13541">
        <ele>365.3</ele>
        <time>2021-09-20T11:17:22Z</time>
      </trkpt>
      <trkpt lat="43.85457" lon="7.13543">
        <ele>365.4</ele>
        <time>2021-09-20T11:17:23Z</time>
      </trkpt>
      <trkpt lat="43.85457" lon="7.13544">
        <ele>365.5</ele>
        <time>2021-09-20T11:17:24Z</time>
      </trkpt>
      <trkpt lat="43.8546" lon="7.13547">
        <ele>365.9</ele>
        <time>2021-09-20T11:17:25Z</time>
      </trkpt>
      <trkpt lat="43.85462" lon="7.13548">
        <ele>366.2</ele>
        <time>2021-09-20T11:17:26Z</time>
      </trkpt>
      <trkpt lat="43.85494" lon="7.13569">
        <ele>370.6</ele>
        <time>2021-09-20T11:17:28Z</time>
      </trkpt>
      <trkpt lat="43.855" lon="7.13573">
        <ele>371.2</ele>
        <time>2021-09-20T11:17:29Z</time>
      </trkpt>
      <trkpt lat="43.85503" lon="7.13575">
        <ele>371.6</ele>
        <time>2021-09-20T11:17:31Z</time>
      </trkpt>
      <trkpt lat="43.85504" lon="7.13576">
        <ele>371.8</ele>
        <time>2021-09-20T11:17:33Z</time>
      </trkpt>
      <trkpt lat="43.85506" lon="7.13576">
        <ele>371.9</ele>
        <time>2021-09-20T11:17:34Z</time>
      </trkpt>
      <trkpt lat="43.85507" lon="7.13577">
        <ele>372.1</ele>
        <time>2021-09-20T11:17:36Z</time>
      </trkpt>
      <trkpt lat="43.85507" lon="7.13579">
        <ele>372.2</ele>
        <time>2021-09-20T11:17:37Z</time>
      </trkpt>
      <trkpt lat="43.85504" lon="7.13587">
        <ele>372.6</ele>
        <time>2021-09-20T11:17:38Z</time>
      </trkpt>
      <trkpt lat="43.85502" lon="7.13591">
        <ele>373</ele>
        <time>2021-09-20T11:17:39Z</time>
      </trkpt>
      <trkpt lat="43.85502" lon="7.13594">
        <ele>373.3</ele>
        <time>2021-09-20T11:17:40Z</time>
      </trkpt>
      <trkpt lat="43.85502" lon="7.13598">
        <ele>373.5</ele>
        <time>2021-09-20T11:17:42Z</time>
      </trkpt>
      <trkpt lat="43.85502" lon="7.13599">
        <ele>373.7</ele>
        <time>2021-09-20T11:17:43Z</time>
      </trkpt>
      <trkpt lat="43.85503" lon="7.13602">
        <ele>374</ele>
        <time>2021-09-20T11:17:44Z</time>
      </trkpt>
      <trkpt lat="43.85503" lon="7.13605">
        <ele>374.2</ele>
        <time>2021-09-20T11:17:46Z</time>
      </trkpt>
      <trkpt lat="43.85504" lon="7.13607">
        <ele>374.3</ele>
        <time>2021-09-20T11:17:47Z</time>
      </trkpt>
      <trkpt lat="43.85503" lon="7.13609">
        <ele>374.5</ele>
        <time>2021-09-20T11:17:48Z</time>
      </trkpt>
      <trkpt lat="43.85503" lon="7.13611">
        <ele>374.7</ele>
        <time>2021-09-20T11:17:50Z</time>
      </trkpt>
      <trkpt lat="43.85503" lon="7.13611">
        <ele>374.7</ele>
        <time>2021-09-20T11:17:51Z</time>
      </trkpt>
      <trkpt lat="43.85507" lon="7.1362">
        <ele>375.5</ele>
        <time>2021-09-20T11:17:53Z</time>
      </trkpt>
      <trkpt lat="43.85511" lon="7.13625">
        <ele>376.1</ele>
        <time>2021-09-20T11:17:54Z</time>
      </trkpt>
      <trkpt lat="43.85514" lon="7.13627">
        <ele>376.4</ele>
        <time>2021-09-20T11:17:55Z</time>
      </trkpt>
      <trkpt lat="43.85517" lon="7.13629">
        <ele>376.8</ele>
        <time>2021-09-20T11:17:56Z</time>
      </trkpt>
      <trkpt lat="43.85519" lon="7.1363">
        <ele>377</ele>
        <time>2021-09-20T11:17:57Z</time>
      </trkpt>
      <trkpt lat="43.85521" lon="7.13631">
        <ele>377.2</ele>
        <time>2021-09-20T11:17:58Z</time>
      </trkpt>
      <trkpt lat="43.85522" lon="7.13633">
        <ele>377.4</ele>
        <time>2021-09-20T11:18:00Z</time>
      </trkpt>
      <trkpt lat="43.85523" lon="7.13636">
        <ele>377.6</ele>
        <time>2021-09-20T11:18:01Z</time>
      </trkpt>
      <trkpt lat="43.85523" lon="7.1364">
        <ele>377.9</ele>
        <time>2021-09-20T11:18:03Z</time>
      </trkpt>
      <trkpt lat="43.85525" lon="7.13642">
        <ele>378.1</ele>
        <time>2021-09-20T11:18:04Z</time>
      </trkpt>
      <trkpt lat="43.85525" lon="7.13642">
        <ele>378.2</ele>
        <time>2021-09-20T11:18:06Z</time>
      </trkpt>
      <trkpt lat="43.85526" lon="7.13643">
        <ele>378.2</ele>
        <time>2021-09-20T11:18:07Z</time>
      </trkpt>
      <trkpt lat="43.85526" lon="7.13643">
        <ele>378.3</ele>
        <time>2021-09-20T11:18:08Z</time>
      </trkpt>
      <trkpt lat="43.85528" lon="7.13645">
        <ele>378.4</ele>
        <time>2021-09-20T11:18:09Z</time>
      </trkpt>
      <trkpt lat="43.85528" lon="7.13647">
        <ele>378.6</ele>
        <time>2021-09-20T11:18:10Z</time>
      </trkpt>
      <trkpt lat="43.85531" lon="7.13651">
        <ele>379</ele>
        <time>2021-09-20T11:18:12Z</time>
      </trkpt>
      <trkpt lat="43.85533" lon="7.13655">
        <ele>379.3</ele>
        <time>2021-09-20T11:18:13Z</time>
      </trkpt>
      <trkpt lat="43.85534" lon="7.13657">
        <ele>379.5</ele>
        <time>2021-09-20T11:18:14Z</time>
      </trkpt>
      <trkpt lat="43.85536" lon="7.13657">
        <ele>379.6</ele>
        <time>2021-09-20T11:18:15Z</time>
      </trkpt>
      <trkpt lat="43.85537" lon="7.13658">
        <ele>379.8</ele>
        <time>2021-09-20T11:18:16Z</time>
      </trkpt>
      <trkpt lat="43.85538" lon="7.13655">
        <ele>380</ele>
        <time>2021-09-20T11:18:18Z</time>
      </trkpt>
      <trkpt lat="43.85539" lon="7.13655">
        <ele>380.1</ele>
        <time>2021-09-20T11:18:19Z</time>
      </trkpt>
      <trkpt lat="43.8554" lon="7.13655">
        <ele>380.1</ele>
        <time>2021-09-20T11:18:20Z</time>
      </trkpt>
      <trkpt lat="43.8554" lon="7.13655">
        <ele>380.1</ele>
        <time>2021-09-20T11:18:21Z</time>
      </trkpt>
      <trkpt lat="43.8554" lon="7.13655">
        <ele>380.1</ele>
        <time>2021-09-20T11:18:22Z</time>
      </trkpt>
      <trkpt lat="43.8554" lon="7.13656">
        <ele>380.2</ele>
        <time>2021-09-20T11:18:24Z</time>
      </trkpt>
      <trkpt lat="43.8554" lon="7.13656">
        <ele>380.2</ele>
        <time>2021-09-20T11:18:25Z</time>
      </trkpt>
      <trkpt lat="43.8554" lon="7.13656">
        <ele>380.2</ele>
        <time>2021-09-20T11:18:26Z</time>
      </trkpt>
      <trkpt lat="43.85541" lon="7.13656">
        <ele>380.3</ele>
        <time>2021-09-20T11:18:27Z</time>
      </trkpt>
      <trkpt lat="43.85541" lon="7.13656">
        <ele>380.3</ele>
        <time>2021-09-20T11:18:28Z</time>
      </trkpt>
      <trkpt lat="43.85542" lon="7.13657">
        <ele>380.4</ele>
        <time>2021-09-20T11:18:29Z</time>
      </trkpt>
      <trkpt lat="43.85543" lon="7.13658">
        <ele>380.6</ele>
        <time>2021-09-20T11:18:31Z</time>
      </trkpt>
      <trkpt lat="43.85544" lon="7.13659">
        <ele>380.7</ele>
        <time>2021-09-20T11:18:32Z</time>
      </trkpt>
      <trkpt lat="43.85551" lon="7.13666">
        <ele>381.7</ele>
        <time>2021-09-20T11:18:39Z</time>
      </trkpt>
      <trkpt lat="43.85552" lon="7.13669">
        <ele>382</ele>
        <time>2021-09-20T11:18:40Z</time>
      </trkpt>
      <trkpt lat="43.85553" lon="7.1367">
        <ele>382.2</ele>
        <time>2021-09-20T11:18:41Z</time>
      </trkpt>
      <trkpt lat="43.85554" lon="7.13671">
        <ele>382.3</ele>
        <time>2021-09-20T11:18:43Z</time>
      </trkpt>
      <trkpt lat="43.85555" lon="7.13672">
        <ele>382.4</ele>
        <time>2021-09-20T11:18:44Z</time>
      </trkpt>
      <trkpt lat="43.85555" lon="7.13672">
        <ele>382.5</ele>
        <time>2021-09-20T11:18:45Z</time>
      </trkpt>
      <trkpt lat="43.85556" lon="7.13673">
        <ele>382.6</ele>
        <time>2021-09-20T11:18:46Z</time>
      </trkpt>
      <trkpt lat="43.85557" lon="7.13674">
        <ele>382.8</ele>
        <time>2021-09-20T11:18:47Z</time>
      </trkpt>
      <trkpt lat="43.85559" lon="7.13674">
        <ele>383</ele>
        <time>2021-09-20T11:18:49Z</time>
      </trkpt>
      <trkpt lat="43.8556" lon="7.13675">
        <ele>383.2</ele>
        <time>2021-09-20T11:18:50Z</time>
      </trkpt>
      <trkpt lat="43.85561" lon="7.13674">
        <ele>383.3</ele>
        <time>2021-09-20T11:18:51Z</time>
      </trkpt>
      <trkpt lat="43.85562" lon="7.13673">
        <ele>383.5</ele>
        <time>2021-09-20T11:18:53Z</time>
      </trkpt>
      <trkpt lat="43.85564" lon="7.13672">
        <ele>383.7</ele>
        <time>2021-09-20T11:18:54Z</time>
      </trkpt>
      <trkpt lat="43.85565" lon="7.13671">
        <ele>384</ele>
        <time>2021-09-20T11:18:56Z</time>
      </trkpt>
      <trkpt lat="43.85566" lon="7.13671">
        <ele>384.2</ele>
        <time>2021-09-20T11:18:57Z</time>
      </trkpt>
      <trkpt lat="43.85567" lon="7.13671">
        <ele>384.3</ele>
        <time>2021-09-20T11:18:58Z</time>
      </trkpt>
      <trkpt lat="43.85568" lon="7.1367">
        <ele>384.4</ele>
        <time>2021-09-20T11:18:59Z</time>
      </trkpt>
      <trkpt lat="43.8557" lon="7.1367">
        <ele>384.6</ele>
        <time>2021-09-20T11:19:01Z</time>
      </trkpt>
      <trkpt lat="43.8557" lon="7.1367">
        <ele>384.7</ele>
        <time>2021-09-20T11:19:02Z</time>
      </trkpt>
      <trkpt lat="43.85571" lon="7.13669">
        <ele>384.8</ele>
        <time>2021-09-20T11:19:04Z</time>
      </trkpt>
      <trkpt lat="43.85571" lon="7.13669">
        <ele>384.9</ele>
        <time>2021-09-20T11:19:06Z</time>
      </trkpt>
      <trkpt lat="43.85572" lon="7.13669">
        <ele>385</ele>
        <time>2021-09-20T11:19:08Z</time>
      </trkpt>
      <trkpt lat="43.85572" lon="7.13669">
        <ele>385</ele>
        <time>2021-09-20T11:19:09Z</time>
      </trkpt>
      <trkpt lat="43.85572" lon="7.13668">
        <ele>385</ele>
        <time>2021-09-20T11:19:11Z</time>
      </trkpt>
      <trkpt lat="43.85572" lon="7.13668">
        <ele>385</ele>
        <time>2021-09-20T11:19:12Z</time>
      </trkpt>
      <trkpt lat="43.85572" lon="7.13668">
        <ele>385</ele>
        <time>2021-09-20T11:19:14Z</time>
      </trkpt>
      <trkpt lat="43.85572" lon="7.13668">
        <ele>385</ele>
        <time>2021-09-20T11:19:15Z</time>
      </trkpt>
      <trkpt lat="43.85572" lon="7.13668">
        <ele>385</ele>
        <time>2021-09-20T11:19:16Z</time>
      </trkpt>
      <trkpt lat="43.85572" lon="7.13668">
        <ele>385</ele>
        <time>2021-09-20T11:19:18Z</time>
      </trkpt>
      <trkpt lat="43.85572" lon="7.13668">
        <ele>385.1</ele>
        <time>2021-09-20T11:19:20Z</time>
      </trkpt>
      <trkpt lat="43.85572" lon="7.13668">
        <ele>385.1</ele>
        <time>2021-09-20T11:19:21Z</time>
      </trkpt>
      <trkpt lat="43.85572" lon="7.13672">
        <ele>385.5</ele>
        <time>2021-09-20T11:19:22Z</time>
      </trkpt>
      <trkpt lat="43.85572" lon="7.13674">
        <ele>385.7</ele>
        <time>2021-09-20T11:19:23Z</time>
      </trkpt>
      <trkpt lat="43.85573" lon="7.13675">
        <ele>385.8</ele>
        <time>2021-09-20T11:19:24Z</time>
      </trkpt>
      <trkpt lat="43.85573" lon="7.13675">
        <ele>385.9</ele>
        <time>2021-09-20T11:19:25Z</time>
      </trkpt>
      <trkpt lat="43.85573" lon="7.13675">
        <ele>385.9</ele>
        <time>2021-09-20T11:19:27Z</time>
      </trkpt>
      <trkpt lat="43.85577" lon="7.13673">
        <ele>386.5</ele>
        <time>2021-09-20T11:19:29Z</time>
      </trkpt>
      <trkpt lat="43.85577" lon="7.13671">
        <ele>386.7</ele>
        <time>2021-09-20T11:19:30Z</time>
      </trkpt>
      <trkpt lat="43.85577" lon="7.1367">
        <ele>386.8</ele>
        <time>2021-09-20T11:19:31Z</time>
      </trkpt>
      <trkpt lat="43.85578" lon="7.13668">
        <ele>390.7</ele>
        <time>2021-09-20T11:19:33Z</time>
      </trkpt>
      <trkpt lat="43.85577" lon="7.1367">
        <ele>390.7</ele>
        <time>2021-09-20T11:19:35Z</time>
      </trkpt>
      <trkpt lat="43.85577" lon="7.1367">
        <ele>390.7</ele>
        <time>2021-09-20T11:19:36Z</time>
      </trkpt>
      <trkpt lat="43.85577" lon="7.1367">
        <ele>390.7</ele>
        <time>2021-09-20T11:19:38Z</time>
      </trkpt>
      <trkpt lat="43.85577" lon="7.13669">
        <ele>390.7</ele>
        <time>2021-09-20T11:19:39Z</time>
      </trkpt>
      <trkpt lat="43.85577" lon="7.13669">
        <ele>390.7</ele>
        <time>2021-09-20T11:19:40Z</time>
      </trkpt>
      <trkpt lat="43.85577" lon="7.13669">
        <ele>390.7</ele>
        <time>2021-09-20T11:19:42Z</time>
      </trkpt>
      <trkpt lat="43.85578" lon="7.13669">
        <ele>390.7</ele>
        <time>2021-09-20T11:19:44Z</time>
      </trkpt>
      <trkpt lat="43.85578" lon="7.13668">
        <ele>390.7</ele>
        <time>2021-09-20T11:19:45Z</time>
      </trkpt>
      <trkpt lat="43.85578" lon="7.13668">
        <ele>390.7</ele>
        <time>2021-09-20T11:19:46Z</time>
      </trkpt>
      <trkpt lat="43.85578" lon="7.13668">
        <ele>390.7</ele>
        <time>2021-09-20T11:19:47Z</time>
      </trkpt>
      <trkpt lat="43.85578" lon="7.13668">
        <ele>390.7</ele>
        <time>2021-09-20T11:19:48Z</time>
      </trkpt>
      <trkpt lat="43.85578" lon="7.13668">
        <ele>390.7</ele>
        <time>2021-09-20T11:19:50Z</time>
      </trkpt>
      <trkpt lat="43.85578" lon="7.13668">
        <ele>390.7</ele>
        <time>2021-09-20T11:19:51Z</time>
      </trkpt>
      <trkpt lat="43.85578" lon="7.13668">
        <ele>390.7</ele>
        <time>2021-09-20T11:19:52Z</time>
      </trkpt>
      <trkpt lat="43.85578" lon="7.13668">
        <ele>390.7</ele>
        <time>2021-09-20T11:19:54Z</time>
      </trkpt>
      <trkpt lat="43.85578" lon="7.13668">
        <ele>390.7</ele>
        <time>2021-09-20T11:19:55Z</time>
      </trkpt>
      <trkpt lat="43.85578" lon="7.13668">
        <ele>390.7</ele>
        <time>2021-09-20T11:19:56Z</time>
      </trkpt>
      <trkpt lat="43.85575" lon="7.13676">
        <ele>390.7</ele>
        <time>2021-09-20T11:19:58Z</time>
      </trkpt>
      <trkpt lat="43.85573" lon="7.13678">
        <ele>390.7</ele>
        <time>2021-09-20T11:20:00Z</time>
      </trkpt>
      <trkpt lat="43.85573" lon="7.13679">
        <ele>390.7</ele>
        <time>2021-09-20T11:20:02Z</time>
      </trkpt>
      <trkpt lat="43.85572" lon="7.13679">
        <ele>391.8</ele>
        <time>2021-09-20T11:20:04Z</time>
      </trkpt>
      <trkpt lat="43.85572" lon="7.13679">
        <ele>391.8</ele>
        <time>2021-09-20T11:20:05Z</time>
      </trkpt>
      <trkpt lat="43.85572" lon="7.13679">
        <ele>391.8</ele>
        <time>2021-09-20T11:20:07Z</time>
      </trkpt>
      <trkpt lat="43.85572" lon="7.13679">
        <ele>391.8</ele>
        <time>2021-09-20T11:20:08Z</time>
      </trkpt>
      <trkpt lat="43.85572" lon="7.13679">
        <ele>391.8</ele>
        <time>2021-09-20T11:20:10Z</time>
      </trkpt>
      <trkpt lat="43.85572" lon="7.13679">
        <ele>391.8</ele>
        <time>2021-09-20T11:20:11Z</time>
      </trkpt>
      <trkpt lat="43.85572" lon="7.13679">
        <ele>391.8</ele>
        <time>2021-09-20T11:20:12Z</time>
      </trkpt>
      <trkpt lat="43.85572" lon="7.13679">
        <ele>391.8</ele>
        <time>2021-09-20T11:20:14Z</time>
      </trkpt>
      <trkpt lat="43.85572" lon="7.13679">
        <ele>391.8</ele>
        <time>2021-09-20T11:20:16Z</time>
      </trkpt>
      <trkpt lat="43.85572" lon="7.13679">
        <ele>391.8</ele>
        <time>2021-09-20T11:20:18Z</time>
      </trkpt>
      <trkpt lat="43.85572" lon="7.13679">
        <ele>391.8</ele>
        <time>2021-09-20T11:20:19Z</time>
      </trkpt>
      <trkpt lat="43.85573" lon="7.1368">
        <ele>391.8</ele>
        <time>2021-09-20T11:20:21Z</time>
      </trkpt>
      <trkpt lat="43.85573" lon="7.1368">
        <ele>391.9</ele>
        <time>2021-09-20T11:20:22Z</time>
      </trkpt>
      <trkpt lat="43.85573" lon="7.13678">
        <ele>391.9</ele>
        <time>2021-09-20T11:20:23Z</time>
      </trkpt>
      <trkpt lat="43.85573" lon="7.13676">
        <ele>392</ele>
        <time>2021-09-20T11:20:24Z</time>
      </trkpt>
      <trkpt lat="43.85573" lon="7.13675">
        <ele>392</ele>
        <time>2021-09-20T11:20:25Z</time>
      </trkpt>
      <trkpt lat="43.85572" lon="7.13673">
        <ele>392</ele>
        <time>2021-09-20T11:20:27Z</time>
      </trkpt>
      <trkpt lat="43.85572" lon="7.13673">
        <ele>392.1</ele>
        <time>2021-09-20T11:20:28Z</time>
      </trkpt>
      <trkpt lat="43.85571" lon="7.13672">
        <ele>392.1</ele>
        <time>2021-09-20T11:20:29Z</time>
      </trkpt>
      <trkpt lat="43.8557" lon="7.13672">
        <ele>392.2</ele>
        <time>2021-09-20T11:20:30Z</time>
      </trkpt>
      <trkpt lat="43.85568" lon="7.13672">
        <ele>392.2</ele>
        <time>2021-09-20T11:20:32Z</time>
      </trkpt>
      <trkpt lat="43.85567" lon="7.13673">
        <ele>392.3</ele>
        <time>2021-09-20T11:20:33Z</time>
      </trkpt>
      <trkpt lat="43.85564" lon="7.13673">
        <ele>392.4</ele>
        <time>2021-09-20T11:20:35Z</time>
      </trkpt>
      <trkpt lat="43.85563" lon="7.13674">
        <ele>392.4</ele>
        <time>2021-09-20T11:20:36Z</time>
      </trkpt>
      <trkpt lat="43.85562" lon="7.13674">
        <ele>392.5</ele>
        <time>2021-09-20T11:20:37Z</time>
      </trkpt>
      <trkpt lat="43.85561" lon="7.13675">
        <ele>392.5</ele>
        <time>2021-09-20T11:20:38Z</time>
      </trkpt>
      <trkpt lat="43.85558" lon="7.13675">
        <ele>392.6</ele>
        <time>2021-09-20T11:20:39Z</time>
      </trkpt>
      <trkpt lat="43.85554" lon="7.13676">
        <ele>392.8</ele>
        <time>2021-09-20T11:20:41Z</time>
      </trkpt>
      <trkpt lat="43.8555" lon="7.13677">
        <ele>392.9</ele>
        <time>2021-09-20T11:20:43Z</time>
      </trkpt>
      <trkpt lat="43.85547" lon="7.13677">
        <ele>393.1</ele>
        <time>2021-09-20T11:20:44Z</time>
      </trkpt>
      <trkpt lat="43.85544" lon="7.13678">
        <ele>393.2</ele>
        <time>2021-09-20T11:20:45Z</time>
      </trkpt>
      <trkpt lat="43.85541" lon="7.13679">
        <ele>393.3</ele>
        <time>2021-09-20T11:20:47Z</time>
      </trkpt>
      <trkpt lat="43.85537" lon="7.13681">
        <ele>393.4</ele>
        <time>2021-09-20T11:20:49Z</time>
      </trkpt>
      <trkpt lat="43.85533" lon="7.13683">
        <ele>393.6</ele>
        <time>2021-09-20T11:20:50Z</time>
      </trkpt>
      <trkpt lat="43.85529" lon="7.13686">
        <ele>393.8</ele>
        <time>2021-09-20T11:20:52Z</time>
      </trkpt>
      <trkpt lat="43.85524" lon="7.13687">
        <ele>394</ele>
        <time>2021-09-20T11:20:54Z</time>
      </trkpt>
      <trkpt lat="43.85521" lon="7.13688">
        <ele>394.1</ele>
        <time>2021-09-20T11:20:55Z</time>
      </trkpt>
      <trkpt lat="43.85518" lon="7.13689">
        <ele>394.3</ele>
        <time>2021-09-20T11:20:56Z</time>
      </trkpt>
      <trkpt lat="43.85514" lon="7.13689">
        <ele>394.4</ele>
        <time>2021-09-20T11:20:58Z</time>
      </trkpt>
      <trkpt lat="43.85509" lon="7.13688">
        <ele>394.6</ele>
        <time>2021-09-20T11:20:59Z</time>
      </trkpt>
      <trkpt lat="43.85504" lon="7.13687">
        <ele>394.9</ele>
        <time>2021-09-20T11:21:01Z</time>
      </trkpt>
      <trkpt lat="43.85499" lon="7.13685">
        <ele>395.1</ele>
        <time>2021-09-20T11:21:02Z</time>
      </trkpt>
      <trkpt lat="43.85496" lon="7.13683">
        <ele>395.3</ele>
        <time>2021-09-20T11:21:03Z</time>
      </trkpt>
      <trkpt lat="43.85492" lon="7.13681">
        <ele>395.5</ele>
        <time>2021-09-20T11:21:05Z</time>
      </trkpt>
      <trkpt lat="43.85487" lon="7.13678">
        <ele>396</ele>
        <time>2021-09-20T11:21:06Z</time>
      </trkpt>
      <trkpt lat="43.8548" lon="7.13674">
        <ele>396.5</ele>
        <time>2021-09-20T11:21:08Z</time>
      </trkpt>
      <trkpt lat="43.85473" lon="7.13669">
        <ele>397</ele>
        <time>2021-09-20T11:21:10Z</time>
      </trkpt>
      <trkpt lat="43.85469" lon="7.13667">
        <ele>397.2</ele>
        <time>2021-09-20T11:21:11Z</time>
      </trkpt>
      <trkpt lat="43.85464" lon="7.13665">
        <ele>397.5</ele>
        <time>2021-09-20T11:21:13Z</time>
      </trkpt>
      <trkpt lat="43.85462" lon="7.13665">
        <ele>397.6</ele>
        <time>2021-09-20T11:21:14Z</time>
      </trkpt>
      <trkpt lat="43.85461" lon="7.13666">
        <ele>397.7</ele>
        <time>2021-09-20T11:21:16Z</time>
      </trkpt>
      <trkpt lat="43.85461" lon="7.1367">
        <ele>397.8</ele>
        <time>2021-09-20T11:21:17Z</time>
      </trkpt>
      <trkpt lat="43.85462" lon="7.13674">
        <ele>397.9</ele>
        <time>2021-09-20T11:21:18Z</time>
      </trkpt>
      <trkpt lat="43.85462" lon="7.13677">
        <ele>398</ele>
        <time>2021-09-20T11:21:20Z</time>
      </trkpt>
      <trkpt lat="43.85462" lon="7.13678">
        <ele>398</ele>
        <time>2021-09-20T11:21:21Z</time>
      </trkpt>
      <trkpt lat="43.85457" lon="7.13681">
        <ele>398.3</ele>
        <time>2021-09-20T11:21:23Z</time>
      </trkpt>
      <trkpt lat="43.85452" lon="7.13687">
        <ele>398.5</ele>
        <time>2021-09-20T11:21:25Z</time>
      </trkpt>
      <trkpt lat="43.8545" lon="7.1369">
        <ele>398.7</ele>
        <time>2021-09-20T11:21:26Z</time>
      </trkpt>
      <trkpt lat="43.85447" lon="7.13692">
        <ele>398.8</ele>
        <time>2021-09-20T11:21:27Z</time>
      </trkpt>
      <trkpt lat="43.85444" lon="7.13695">
        <ele>399</ele>
        <time>2021-09-20T11:21:28Z</time>
      </trkpt>
      <trkpt lat="43.8544" lon="7.13703">
        <ele>399.3</ele>
        <time>2021-09-20T11:21:30Z</time>
      </trkpt>
      <trkpt lat="43.85437" lon="7.1371">
        <ele>399.6</ele>
        <time>2021-09-20T11:21:31Z</time>
      </trkpt>
      <trkpt lat="43.85435" lon="7.13716">
        <ele>399.8</ele>
        <time>2021-09-20T11:21:33Z</time>
      </trkpt>
      <trkpt lat="43.85433" lon="7.13722">
        <ele>400.1</ele>
        <time>2021-09-20T11:21:35Z</time>
      </trkpt>
      <trkpt lat="43.8543" lon="7.13725">
        <ele>400.2</ele>
        <time>2021-09-20T11:21:36Z</time>
      </trkpt>
      <trkpt lat="43.8543" lon="7.13726">
        <ele>400.3</ele>
        <time>2021-09-20T11:21:37Z</time>
      </trkpt>
      <trkpt lat="43.8543" lon="7.1373">
        <ele>400.4</ele>
        <time>2021-09-20T11:21:39Z</time>
      </trkpt>
      <trkpt lat="43.8543" lon="7.13735">
        <ele>400.6</ele>
        <time>2021-09-20T11:21:40Z</time>
      </trkpt>
      <trkpt lat="43.8543" lon="7.13735">
        <ele>400.6</ele>
        <time>2021-09-20T11:21:42Z</time>
      </trkpt>
      <trkpt lat="43.8543" lon="7.13737">
        <ele>400.7</ele>
        <time>2021-09-20T11:21:43Z</time>
      </trkpt>
      <trkpt lat="43.85429" lon="7.1374">
        <ele>400.8</ele>
        <time>2021-09-20T11:21:45Z</time>
      </trkpt>
      <trkpt lat="43.85429" lon="7.13746">
        <ele>401</ele>
        <time>2021-09-20T11:21:46Z</time>
      </trkpt>
      <trkpt lat="43.85429" lon="7.13748">
        <ele>401.1</ele>
        <time>2021-09-20T11:21:48Z</time>
      </trkpt>
      <trkpt lat="43.85429" lon="7.13751">
        <ele>401.2</ele>
        <time>2021-09-20T11:21:49Z</time>
      </trkpt>
      <trkpt lat="43.85428" lon="7.13753">
        <ele>401.3</ele>
        <time>2021-09-20T11:21:50Z</time>
      </trkpt>
      <trkpt lat="43.85428" lon="7.13759">
        <ele>401.5</ele>
        <time>2021-09-20T11:21:52Z</time>
      </trkpt>
      <trkpt lat="43.85429" lon="7.13767">
        <ele>401.8</ele>
        <time>2021-09-20T11:21:53Z</time>
      </trkpt>
      <trkpt lat="43.85429" lon="7.13771">
        <ele>402</ele>
        <time>2021-09-20T11:21:54Z</time>
      </trkpt>
      <trkpt lat="43.85429" lon="7.13779">
        <ele>402.3</ele>
        <time>2021-09-20T11:21:56Z</time>
      </trkpt>
      <trkpt lat="43.85429" lon="7.13786">
        <ele>402.6</ele>
        <time>2021-09-20T11:21:57Z</time>
      </trkpt>
      <trkpt lat="43.8543" lon="7.13792">
        <ele>402.8</ele>
        <time>2021-09-20T11:21:59Z</time>
      </trkpt>
      <trkpt lat="43.85431" lon="7.13799">
        <ele>403.1</ele>
        <time>2021-09-20T11:22:01Z</time>
      </trkpt>
      <trkpt lat="43.8543" lon="7.13803">
        <ele>403.3</ele>
        <time>2021-09-20T11:22:02Z</time>
      </trkpt>
      <trkpt lat="43.85429" lon="7.13803">
        <ele>403.3</ele>
        <time>2021-09-20T11:22:04Z</time>
      </trkpt>
      <trkpt lat="43.85427" lon="7.13803">
        <ele>403.4</ele>
        <time>2021-09-20T11:22:05Z</time>
      </trkpt>
      <trkpt lat="43.85427" lon="7.13803">
        <ele>403.5</ele>
        <time>2021-09-20T11:22:06Z</time>
      </trkpt>
      <trkpt lat="43.85426" lon="7.13804">
        <ele>403.5</ele>
        <time>2021-09-20T11:22:08Z</time>
      </trkpt>
      <trkpt lat="43.85424" lon="7.13804">
        <ele>403.6</ele>
        <time>2021-09-20T11:22:10Z</time>
      </trkpt>
      <trkpt lat="43.85423" lon="7.13805">
        <ele>403.7</ele>
        <time>2021-09-20T11:22:11Z</time>
      </trkpt>
      <trkpt lat="43.85423" lon="7.13806">
        <ele>403.8</ele>
        <time>2021-09-20T11:22:12Z</time>
      </trkpt>
      <trkpt lat="43.8542" lon="7.13824">
        <ele>404.5</ele>
        <time>2021-09-20T11:22:18Z</time>
      </trkpt>
      <trkpt lat="43.85421" lon="7.13828">
        <ele>404.7</ele>
        <time>2021-09-20T11:22:19Z</time>
      </trkpt>
      <trkpt lat="43.85422" lon="7.13832">
        <ele>404.9</ele>
        <time>2021-09-20T11:22:22Z</time>
      </trkpt>
      <trkpt lat="43.85422" lon="7.13845">
        <ele>405.5</ele>
        <time>2021-09-20T11:22:24Z</time>
      </trkpt>
      <trkpt lat="43.85422" lon="7.13855">
        <ele>405.9</ele>
        <time>2021-09-20T11:22:26Z</time>
      </trkpt>
      <trkpt lat="43.85421" lon="7.13857">
        <ele>406</ele>
        <time>2021-09-20T11:22:27Z</time>
      </trkpt>
      <trkpt lat="43.8542" lon="7.13858">
        <ele>406.1</ele>
        <time>2021-09-20T11:22:28Z</time>
      </trkpt>
      <trkpt lat="43.85418" lon="7.1386">
        <ele>406.2</ele>
        <time>2021-09-20T11:22:29Z</time>
      </trkpt>
      <trkpt lat="43.85417" lon="7.13862">
        <ele>406.4</ele>
        <time>2021-09-20T11:22:31Z</time>
      </trkpt>
      <trkpt lat="43.85414" lon="7.13868">
        <ele>406.7</ele>
        <time>2021-09-20T11:22:32Z</time>
      </trkpt>
      <trkpt lat="43.85411" lon="7.1387">
        <ele>406.9</ele>
        <time>2021-09-20T11:22:34Z</time>
      </trkpt>
      <trkpt lat="43.85408" lon="7.13873">
        <ele>407.1</ele>
        <time>2021-09-20T11:22:35Z</time>
      </trkpt>
      <trkpt lat="43.85402" lon="7.13876">
        <ele>407.4</ele>
        <time>2021-09-20T11:22:37Z</time>
      </trkpt>
      <trkpt lat="43.85397" lon="7.13879">
        <ele>407.8</ele>
        <time>2021-09-20T11:22:38Z</time>
      </trkpt>
      <trkpt lat="43.85392" lon="7.13882">
        <ele>408.1</ele>
        <time>2021-09-20T11:22:39Z</time>
      </trkpt>
      <trkpt lat="43.85388" lon="7.13885">
        <ele>408.4</ele>
        <time>2021-09-20T11:22:41Z</time>
      </trkpt>
      <trkpt lat="43.85384" lon="7.1389">
        <ele>408.6</ele>
        <time>2021-09-20T11:22:43Z</time>
      </trkpt>
      <trkpt lat="43.85383" lon="7.13897">
        <ele>408.9</ele>
        <time>2021-09-20T11:22:45Z</time>
      </trkpt>
      <trkpt lat="43.85382" lon="7.13902">
        <ele>409.1</ele>
        <time>2021-09-20T11:22:46Z</time>
      </trkpt>
      <trkpt lat="43.85381" lon="7.13902">
        <ele>409.2</ele>
        <time>2021-09-20T11:22:47Z</time>
      </trkpt>
      <trkpt lat="43.85376" lon="7.13906">
        <ele>409.5</ele>
        <time>2021-09-20T11:22:49Z</time>
      </trkpt>
      <trkpt lat="43.85375" lon="7.1391">
        <ele>409.7</ele>
        <time>2021-09-20T11:22:50Z</time>
      </trkpt>
      <trkpt lat="43.85375" lon="7.13912">
        <ele>409.8</ele>
        <time>2021-09-20T11:22:51Z</time>
      </trkpt>
      <trkpt lat="43.85374" lon="7.13917">
        <ele>410</ele>
        <time>2021-09-20T11:22:53Z</time>
      </trkpt>
      <trkpt lat="43.85372" lon="7.13925">
        <ele>410.3</ele>
        <time>2021-09-20T11:22:55Z</time>
      </trkpt>
      <trkpt lat="43.85371" lon="7.13931">
        <ele>410.6</ele>
        <time>2021-09-20T11:22:56Z</time>
      </trkpt>
      <trkpt lat="43.85369" lon="7.13936">
        <ele>410.8</ele>
        <time>2021-09-20T11:22:57Z</time>
      </trkpt>
      <trkpt lat="43.85368" lon="7.1394">
        <ele>411</ele>
        <time>2021-09-20T11:22:59Z</time>
      </trkpt>
      <trkpt lat="43.85369" lon="7.13944">
        <ele>411.2</ele>
        <time>2021-09-20T11:23:01Z</time>
      </trkpt>
      <trkpt lat="43.85371" lon="7.1395">
        <ele>411.5</ele>
        <time>2021-09-20T11:23:02Z</time>
      </trkpt>
      <trkpt lat="43.85371" lon="7.13954">
        <ele>411.6</ele>
        <time>2021-09-20T11:23:03Z</time>
      </trkpt>
      <trkpt lat="43.85371" lon="7.13961">
        <ele>411.9</ele>
        <time>2021-09-20T11:23:05Z</time>
      </trkpt>
      <trkpt lat="43.85374" lon="7.13967">
        <ele>412.2</ele>
        <time>2021-09-20T11:23:06Z</time>
      </trkpt>
      <trkpt lat="43.85376" lon="7.13972">
        <ele>412.4</ele>
        <time>2021-09-20T11:23:07Z</time>
      </trkpt>
      <trkpt lat="43.85376" lon="7.13975">
        <ele>412.5</ele>
        <time>2021-09-20T11:23:08Z</time>
      </trkpt>
      <trkpt lat="43.85377" lon="7.13976">
        <ele>412.6</ele>
        <time>2021-09-20T11:23:09Z</time>
      </trkpt>
      <trkpt lat="43.85377" lon="7.13984">
        <ele>412.9</ele>
        <time>2021-09-20T11:23:11Z</time>
      </trkpt>
      <trkpt lat="43.85378" lon="7.13989">
        <ele>413.1</ele>
        <time>2021-09-20T11:23:12Z</time>
      </trkpt>
      <trkpt lat="43.85378" lon="7.13991">
        <ele>413.2</ele>
        <time>2021-09-20T11:23:13Z</time>
      </trkpt>
      <trkpt lat="43.85378" lon="7.13995">
        <ele>413.4</ele>
        <time>2021-09-20T11:23:14Z</time>
      </trkpt>
      <trkpt lat="43.85378" lon="7.13997">
        <ele>413.5</ele>
        <time>2021-09-20T11:23:15Z</time>
      </trkpt>
      <trkpt lat="43.85363" lon="7.14012">
        <ele>414.6</ele>
        <time>2021-09-20T11:23:17Z</time>
      </trkpt>
      <trkpt lat="43.85348" lon="7.14023">
        <ele>415.8</ele>
        <time>2021-09-20T11:23:47Z</time>
      </trkpt>
      <trkpt lat="43.85332" lon="7.14034">
        <ele>417.1</ele>
        <time>2021-09-20T11:23:48Z</time>
      </trkpt>
      <trkpt lat="43.85329" lon="7.14039">
        <ele>417.4</ele>
        <time>2021-09-20T11:23:50Z</time>
      </trkpt>
      <trkpt lat="43.85327" lon="7.14043">
        <ele>417.7</ele>
        <time>2021-09-20T11:23:51Z</time>
      </trkpt>
      <trkpt lat="43.85325" lon="7.14047">
        <ele>417.9</ele>
        <time>2021-09-20T11:23:52Z</time>
      </trkpt>
      <trkpt lat="43.85322" lon="7.1405">
        <ele>418.2</ele>
        <time>2021-09-20T11:23:53Z</time>
      </trkpt>
      <trkpt lat="43.85316" lon="7.14054">
        <ele>418.7</ele>
        <time>2021-09-20T11:23:55Z</time>
      </trkpt>
      <trkpt lat="43.85312" lon="7.14057">
        <ele>418.9</ele>
        <time>2021-09-20T11:23:56Z</time>
      </trkpt>
      <trkpt lat="43.8531" lon="7.1406">
        <ele>419.1</ele>
        <time>2021-09-20T11:23:57Z</time>
      </trkpt>
      <trkpt lat="43.85308" lon="7.14063">
        <ele>419.3</ele>
        <time>2021-09-20T11:23:58Z</time>
      </trkpt>
      <trkpt lat="43.85306" lon="7.1407">
        <ele>419.7</ele>
        <time>2021-09-20T11:24:00Z</time>
      </trkpt>
      <trkpt lat="43.85305" lon="7.14074">
        <ele>419.8</ele>
        <time>2021-09-20T11:24:01Z</time>
      </trkpt>
      <trkpt lat="43.85306" lon="7.14079">
        <ele>420.1</ele>
        <time>2021-09-20T11:24:02Z</time>
      </trkpt>
      <trkpt lat="43.85306" lon="7.14081">
        <ele>420.1</ele>
        <time>2021-09-20T11:24:03Z</time>
      </trkpt>
      <trkpt lat="43.85307" lon="7.14088">
        <ele>420.5</ele>
        <time>2021-09-20T11:24:05Z</time>
      </trkpt>
      <trkpt lat="43.85307" lon="7.14091">
        <ele>420.6</ele>
        <time>2021-09-20T11:24:06Z</time>
      </trkpt>
      <trkpt lat="43.85307" lon="7.14094">
        <ele>420.8</ele>
        <time>2021-09-20T11:24:07Z</time>
      </trkpt>
      <trkpt lat="43.85306" lon="7.14101">
        <ele>421.1</ele>
        <time>2021-09-20T11:24:09Z</time>
      </trkpt>
      <trkpt lat="43.85305" lon="7.14108">
        <ele>421.4</ele>
        <time>2021-09-20T11:24:11Z</time>
      </trkpt>
      <trkpt lat="43.85304" lon="7.14112">
        <ele>421.6</ele>
        <time>2021-09-20T11:24:12Z</time>
      </trkpt>
      <trkpt lat="43.85303" lon="7.14119">
        <ele>421.9</ele>
        <time>2021-09-20T11:24:13Z</time>
      </trkpt>
      <trkpt lat="43.85302" lon="7.14125">
        <ele>422.2</ele>
        <time>2021-09-20T11:24:15Z</time>
      </trkpt>
      <trkpt lat="43.85301" lon="7.14134">
        <ele>422.6</ele>
        <time>2021-09-20T11:24:17Z</time>
      </trkpt>
      <trkpt lat="43.85302" lon="7.14143">
        <ele>423</ele>
        <time>2021-09-20T11:24:18Z</time>
      </trkpt>
      <trkpt lat="43.85303" lon="7.1415">
        <ele>423.3</ele>
        <time>2021-09-20T11:24:20Z</time>
      </trkpt>
      <trkpt lat="43.85305" lon="7.14155">
        <ele>423.6</ele>
        <time>2021-09-20T11:24:21Z</time>
      </trkpt>
      <trkpt lat="43.85306" lon="7.1416">
        <ele>423.8</ele>
        <time>2021-09-20T11:24:22Z</time>
      </trkpt>
      <trkpt lat="43.85309" lon="7.14167">
        <ele>424.2</ele>
        <time>2021-09-20T11:24:24Z</time>
      </trkpt>
      <trkpt lat="43.8531" lon="7.14173">
        <ele>424.4</ele>
        <time>2021-09-20T11:24:26Z</time>
      </trkpt>
      <trkpt lat="43.85312" lon="7.14179">
        <ele>424.7</ele>
        <time>2021-09-20T11:24:27Z</time>
      </trkpt>
      <trkpt lat="43.85314" lon="7.14184">
        <ele>424.9</ele>
        <time>2021-09-20T11:24:28Z</time>
      </trkpt>
      <trkpt lat="43.85316" lon="7.14187">
        <ele>425.1</ele>
        <time>2021-09-20T11:24:29Z</time>
      </trkpt>
      <trkpt lat="43.8532" lon="7.14195">
        <ele>425.5</ele>
        <time>2021-09-20T11:24:30Z</time>
      </trkpt>
      <trkpt lat="43.85322" lon="7.14201">
        <ele>425.7</ele>
        <time>2021-09-20T11:24:32Z</time>
      </trkpt>
      <trkpt lat="43.85325" lon="7.14207">
        <ele>426.1</ele>
        <time>2021-09-20T11:24:34Z</time>
      </trkpt>
      <trkpt lat="43.85329" lon="7.1421">
        <ele>426.3</ele>
        <time>2021-09-20T11:24:35Z</time>
      </trkpt>
      <trkpt lat="43.8533" lon="7.14213">
        <ele>426.4</ele>
        <time>2021-09-20T11:24:36Z</time>
      </trkpt>
      <trkpt lat="43.85331" lon="7.1422">
        <ele>426.6</ele>
        <time>2021-09-20T11:24:38Z</time>
      </trkpt>
      <trkpt lat="43.85332" lon="7.14225">
        <ele>426.8</ele>
        <time>2021-09-20T11:24:40Z</time>
      </trkpt>
      <trkpt lat="43.85334" lon="7.14229">
        <ele>427</ele>
        <time>2021-09-20T11:24:41Z</time>
      </trkpt>
      <trkpt lat="43.85335" lon="7.14231">
        <ele>427.1</ele>
        <time>2021-09-20T11:24:42Z</time>
      </trkpt>
      <trkpt lat="43.85336" lon="7.14231">
        <ele>427.1</ele>
        <time>2021-09-20T11:24:44Z</time>
      </trkpt>
      <trkpt lat="43.85339" lon="7.14231">
        <ele>427.3</ele>
        <time>2021-09-20T11:24:45Z</time>
      </trkpt>
      <trkpt lat="43.85344" lon="7.14231">
        <ele>427.5</ele>
        <time>2021-09-20T11:24:47Z</time>
      </trkpt>
      <trkpt lat="43.85346" lon="7.14232">
        <ele>427.7</ele>
        <time>2021-09-20T11:24:48Z</time>
      </trkpt>
      <trkpt lat="43.85349" lon="7.14233">
        <ele>427.8</ele>
        <time>2021-09-20T11:24:49Z</time>
      </trkpt>
      <trkpt lat="43.85351" lon="7.14233">
        <ele>428</ele>
        <time>2021-09-20T11:24:51Z</time>
      </trkpt>
      <trkpt lat="43.85354" lon="7.14234">
        <ele>428.1</ele>
        <time>2021-09-20T11:24:53Z</time>
      </trkpt>
      <trkpt lat="43.85357" lon="7.14233">
        <ele>428.3</ele>
        <time>2021-09-20T11:24:54Z</time>
      </trkpt>
      <trkpt lat="43.8536" lon="7.14232">
        <ele>428.5</ele>
        <time>2021-09-20T11:24:55Z</time>
      </trkpt>
      <trkpt lat="43.85362" lon="7.14231">
        <ele>428.7</ele>
        <time>2021-09-20T11:24:57Z</time>
      </trkpt>
      <trkpt lat="43.85364" lon="7.14229">
        <ele>428.8</ele>
        <time>2021-09-20T11:24:58Z</time>
      </trkpt>
      <trkpt lat="43.85367" lon="7.14228">
        <ele>429</ele>
        <time>2021-09-20T11:25:00Z</time>
      </trkpt>
      <trkpt lat="43.85369" lon="7.14227">
        <ele>429.1</ele>
        <time>2021-09-20T11:25:01Z</time>
      </trkpt>
      <trkpt lat="43.85373" lon="7.14225">
        <ele>429.4</ele>
        <time>2021-09-20T11:25:03Z</time>
      </trkpt>
      <trkpt lat="43.85376" lon="7.14223">
        <ele>429.6</ele>
        <time>2021-09-20T11:25:05Z</time>
      </trkpt>
      <trkpt lat="43.85379" lon="7.14222">
        <ele>429.7</ele>
        <time>2021-09-20T11:25:06Z</time>
      </trkpt>
      <trkpt lat="43.85383" lon="7.1422">
        <ele>430</ele>
        <time>2021-09-20T11:25:07Z</time>
      </trkpt>
      <trkpt lat="43.85387" lon="7.14218">
        <ele>430.2</ele>
        <time>2021-09-20T11:25:09Z</time>
      </trkpt>
      <trkpt lat="43.85391" lon="7.14216">
        <ele>430.4</ele>
        <time>2021-09-20T11:25:11Z</time>
      </trkpt>
      <trkpt lat="43.85394" lon="7.14214">
        <ele>430.6</ele>
        <time>2021-09-20T11:25:12Z</time>
      </trkpt>
      <trkpt lat="43.85396" lon="7.14214">
        <ele>430.7</ele>
        <time>2021-09-20T11:25:13Z</time>
      </trkpt>
      <trkpt lat="43.85399" lon="7.14213">
        <ele>430.8</ele>
        <time>2021-09-20T11:25:14Z</time>
      </trkpt>
      <trkpt lat="43.85404" lon="7.14215">
        <ele>431</ele>
        <time>2021-09-20T11:25:16Z</time>
      </trkpt>
      <trkpt lat="43.85409" lon="7.14218">
        <ele>431.3</ele>
        <time>2021-09-20T11:25:18Z</time>
      </trkpt>
      <trkpt lat="43.85413" lon="7.1422">
        <ele>431.4</ele>
        <time>2021-09-20T11:25:20Z</time>
      </trkpt>
      <trkpt lat="43.85416" lon="7.14222">
        <ele>431.6</ele>
        <time>2021-09-20T11:25:21Z</time>
      </trkpt>
      <trkpt lat="43.85418" lon="7.14222">
        <ele>431.7</ele>
        <time>2021-09-20T11:25:22Z</time>
      </trkpt>
      <trkpt lat="43.85419" lon="7.14223">
        <ele>431.7</ele>
        <time>2021-09-20T11:25:24Z</time>
      </trkpt>
      <trkpt lat="43.8542" lon="7.14224">
        <ele>431.7</ele>
        <time>2021-09-20T11:25:25Z</time>
      </trkpt>
      <trkpt lat="43.85421" lon="7.14223">
        <ele>431.8</ele>
        <time>2021-09-20T11:25:26Z</time>
      </trkpt>
      <trkpt lat="43.85422" lon="7.14224">
        <ele>431.9</ele>
        <time>2021-09-20T11:25:28Z</time>
      </trkpt>
      <trkpt lat="43.85424" lon="7.14225">
        <ele>431.9</ele>
        <time>2021-09-20T11:25:29Z</time>
      </trkpt>
      <trkpt lat="43.85427" lon="7.14226">
        <ele>432.1</ele>
        <time>2021-09-20T11:25:31Z</time>
      </trkpt>
      <trkpt lat="43.85431" lon="7.14231">
        <ele>432.3</ele>
        <time>2021-09-20T11:25:32Z</time>
      </trkpt>
      <trkpt lat="43.85435" lon="7.14236">
        <ele>432.5</ele>
        <time>2021-09-20T11:25:34Z</time>
      </trkpt>
      <trkpt lat="43.85437" lon="7.14239">
        <ele>432.6</ele>
        <time>2021-09-20T11:25:35Z</time>
      </trkpt>
      <trkpt lat="43.85439" lon="7.14246">
        <ele>432.8</ele>
        <time>2021-09-20T11:25:36Z</time>
      </trkpt>
      <trkpt lat="43.85439" lon="7.1425">
        <ele>432.9</ele>
        <time>2021-09-20T11:25:38Z</time>
      </trkpt>
      <trkpt lat="43.85439" lon="7.14255">
        <ele>433</ele>
        <time>2021-09-20T11:25:39Z</time>
      </trkpt>
      <trkpt lat="43.85438" lon="7.14258">
        <ele>433</ele>
        <time>2021-09-20T11:25:40Z</time>
      </trkpt>
      <trkpt lat="43.85437" lon="7.14264">
        <ele>433.1</ele>
        <time>2021-09-20T11:25:41Z</time>
      </trkpt>
      <trkpt lat="43.85437" lon="7.14266">
        <ele>433.2</ele>
        <time>2021-09-20T11:25:42Z</time>
      </trkpt>
      <trkpt lat="43.85437" lon="7.14272">
        <ele>433.2</ele>
        <time>2021-09-20T11:25:43Z</time>
      </trkpt>
      <trkpt lat="43.85438" lon="7.14278">
        <ele>433.3</ele>
        <time>2021-09-20T11:25:45Z</time>
      </trkpt>
      <trkpt lat="43.85439" lon="7.14282">
        <ele>433.4</ele>
        <time>2021-09-20T11:25:46Z</time>
      </trkpt>
      <trkpt lat="43.85442" lon="7.14289">
        <ele>433.5</ele>
        <time>2021-09-20T11:25:48Z</time>
      </trkpt>
      <trkpt lat="43.85444" lon="7.14293">
        <ele>433.5</ele>
        <time>2021-09-20T11:25:49Z</time>
      </trkpt>
      <trkpt lat="43.85447" lon="7.14298">
        <ele>433.6</ele>
        <time>2021-09-20T11:25:51Z</time>
      </trkpt>
      <trkpt lat="43.85449" lon="7.14302">
        <ele>433.6</ele>
        <time>2021-09-20T11:25:52Z</time>
      </trkpt>
      <trkpt lat="43.85451" lon="7.14306">
        <ele>433.6</ele>
        <time>2021-09-20T11:25:53Z</time>
      </trkpt>
      <trkpt lat="43.85453" lon="7.1431">
        <ele>433.7</ele>
        <time>2021-09-20T11:25:54Z</time>
      </trkpt>
      <trkpt lat="43.85458" lon="7.14319">
        <ele>433.7</ele>
        <time>2021-09-20T11:25:56Z</time>
      </trkpt>
      <trkpt lat="43.85461" lon="7.14326">
        <ele>433.7</ele>
        <time>2021-09-20T11:25:57Z</time>
      </trkpt>
      <trkpt lat="43.85464" lon="7.14331">
        <ele>433.7</ele>
        <time>2021-09-20T11:25:59Z</time>
      </trkpt>
      <trkpt lat="43.85471" lon="7.1434">
        <ele>433.7</ele>
        <time>2021-09-20T11:26:01Z</time>
      </trkpt>
      <trkpt lat="43.85474" lon="7.14344">
        <ele>433.6</ele>
        <time>2021-09-20T11:26:02Z</time>
      </trkpt>
      <trkpt lat="43.85479" lon="7.14349">
        <ele>433.6</ele>
        <time>2021-09-20T11:26:03Z</time>
      </trkpt>
      <trkpt lat="43.85484" lon="7.14353">
        <ele>433.6</ele>
        <time>2021-09-20T11:26:05Z</time>
      </trkpt>
      <trkpt lat="43.8549" lon="7.14359">
        <ele>433.5</ele>
        <time>2021-09-20T11:26:07Z</time>
      </trkpt>
      <trkpt lat="43.85492" lon="7.14363">
        <ele>433.5</ele>
        <time>2021-09-20T11:26:08Z</time>
      </trkpt>
      <trkpt lat="43.85497" lon="7.1437">
        <ele>433.4</ele>
        <time>2021-09-20T11:26:10Z</time>
      </trkpt>
      <trkpt lat="43.855" lon="7.14373">
        <ele>433.4</ele>
        <time>2021-09-20T11:26:11Z</time>
      </trkpt>
      <trkpt lat="43.85503" lon="7.14375">
        <ele>433.4</ele>
        <time>2021-09-20T11:26:12Z</time>
      </trkpt>
      <trkpt lat="43.85506" lon="7.14378">
        <ele>433.3</ele>
        <time>2021-09-20T11:26:13Z</time>
      </trkpt>
      <trkpt lat="43.85512" lon="7.14383">
        <ele>433.3</ele>
        <time>2021-09-20T11:26:14Z</time>
      </trkpt>
      <trkpt lat="43.85515" lon="7.14385">
        <ele>433.2</ele>
        <time>2021-09-20T11:26:15Z</time>
      </trkpt>
      <trkpt lat="43.85519" lon="7.14387">
        <ele>433.2</ele>
        <time>2021-09-20T11:26:17Z</time>
      </trkpt>
      <trkpt lat="43.85524" lon="7.14388">
        <ele>433.2</ele>
        <time>2021-09-20T11:26:18Z</time>
      </trkpt>
      <trkpt lat="43.85533" lon="7.14387">
        <ele>433.1</ele>
        <time>2021-09-20T11:26:20Z</time>
      </trkpt>
      <trkpt lat="43.85538" lon="7.14386">
        <ele>433.1</ele>
        <time>2021-09-20T11:26:21Z</time>
      </trkpt>
      <trkpt lat="43.85542" lon="7.14385">
        <ele>433</ele>
        <time>2021-09-20T11:26:22Z</time>
      </trkpt>
      <trkpt lat="43.85547" lon="7.14386">
        <ele>433</ele>
        <time>2021-09-20T11:26:23Z</time>
      </trkpt>
      <trkpt lat="43.8555" lon="7.14389">
        <ele>432.9</ele>
        <time>2021-09-20T11:26:24Z</time>
      </trkpt>
      <trkpt lat="43.85554" lon="7.14391">
        <ele>432.9</ele>
        <time>2021-09-20T11:26:25Z</time>
      </trkpt>
      <trkpt lat="43.85559" lon="7.14393">
        <ele>432.8</ele>
        <time>2021-09-20T11:26:27Z</time>
      </trkpt>
      <trkpt lat="43.85563" lon="7.14395">
        <ele>432.8</ele>
        <time>2021-09-20T11:26:28Z</time>
      </trkpt>
      <trkpt lat="43.85568" lon="7.14398">
        <ele>432.7</ele>
        <time>2021-09-20T11:26:29Z</time>
      </trkpt>
      <trkpt lat="43.85577" lon="7.14401">
        <ele>432.7</ele>
        <time>2021-09-20T11:26:31Z</time>
      </trkpt>
      <trkpt lat="43.85582" lon="7.144">
        <ele>432.6</ele>
        <time>2021-09-20T11:26:32Z</time>
      </trkpt>
      <trkpt lat="43.85594" lon="7.14395">
        <ele>432.6</ele>
        <time>2021-09-20T11:26:34Z</time>
      </trkpt>
      <trkpt lat="43.85601" lon="7.14394">
        <ele>432.5</ele>
        <time>2021-09-20T11:26:35Z</time>
      </trkpt>
      <trkpt lat="43.85613" lon="7.14394">
        <ele>432.4</ele>
        <time>2021-09-20T11:26:37Z</time>
      </trkpt>
      <trkpt lat="43.85618" lon="7.14394">
        <ele>432.3</ele>
        <time>2021-09-20T11:26:38Z</time>
      </trkpt>
      <trkpt lat="43.85624" lon="7.14395">
        <ele>432.3</ele>
        <time>2021-09-20T11:26:39Z</time>
      </trkpt>
      <trkpt lat="43.85634" lon="7.144">
        <ele>432.1</ele>
        <time>2021-09-20T11:26:41Z</time>
      </trkpt>
      <trkpt lat="43.85639" lon="7.14403">
        <ele>432.1</ele>
        <time>2021-09-20T11:26:42Z</time>
      </trkpt>
      <trkpt lat="43.85642" lon="7.14404">
        <ele>432</ele>
        <time>2021-09-20T11:26:44Z</time>
      </trkpt>
      <trkpt lat="43.85644" lon="7.14407">
        <ele>432</ele>
        <time>2021-09-20T11:26:45Z</time>
      </trkpt>
      <trkpt lat="43.85647" lon="7.1441">
        <ele>431.9</ele>
        <time>2021-09-20T11:26:46Z</time>
      </trkpt>
      <trkpt lat="43.85649" lon="7.14411">
        <ele>431.9</ele>
        <time>2021-09-20T11:26:47Z</time>
      </trkpt>
      <trkpt lat="43.8565" lon="7.14412">
        <ele>431.9</ele>
        <time>2021-09-20T11:26:48Z</time>
      </trkpt>
      <trkpt lat="43.85651" lon="7.14413">
        <ele>431.9</ele>
        <time>2021-09-20T11:26:49Z</time>
      </trkpt>
      <trkpt lat="43.85652" lon="7.14414">
        <ele>431.9</ele>
        <time>2021-09-20T11:26:50Z</time>
      </trkpt>
      <trkpt lat="43.85653" lon="7.14414">
        <ele>435.8</ele>
        <time>2021-09-20T11:26:51Z</time>
      </trkpt>
      <trkpt lat="43.85654" lon="7.14415">
        <ele>440</ele>
        <time>2021-09-20T11:26:53Z</time>
      </trkpt>
      <trkpt lat="43.85706" lon="7.14841">
        <ele>395.4</ele>
        <time>2021-09-20T11:28:21Z</time>
      </trkpt>
      <trkpt lat="43.85714" lon="7.14866">
        <ele>403.8</ele>
        <time>2021-09-20T11:28:22Z</time>
      </trkpt>
      <trkpt lat="43.85717" lon="7.14875">
        <ele>409.5</ele>
        <time>2021-09-20T11:28:24Z</time>
      </trkpt>
      <trkpt lat="43.8574" lon="7.14906">
        <ele>426.4</ele>
        <time>2021-09-20T11:28:25Z</time>
      </trkpt>
      <trkpt lat="43.85746" lon="7.14912">
        <ele>426.3</ele>
        <time>2021-09-20T11:28:26Z</time>
      </trkpt>
      <trkpt lat="43.85757" lon="7.14922">
        <ele>426.2</ele>
        <time>2021-09-20T11:28:27Z</time>
      </trkpt>
      <trkpt lat="43.85763" lon="7.14927">
        <ele>426.1</ele>
        <time>2021-09-20T11:28:28Z</time>
      </trkpt>
      <trkpt lat="43.85766" lon="7.14929">
        <ele>426.1</ele>
        <time>2021-09-20T11:28:29Z</time>
      </trkpt>
      <trkpt lat="43.8577" lon="7.14939">
        <ele>426</ele>
        <time>2021-09-20T11:28:31Z</time>
      </trkpt>
      <trkpt lat="43.8578" lon="7.1495">
        <ele>425.9</ele>
        <time>2021-09-20T11:28:32Z</time>
      </trkpt>
      <trkpt lat="43.85789" lon="7.14956">
        <ele>425.8</ele>
        <time>2021-09-20T11:28:33Z</time>
      </trkpt>
      <trkpt lat="43.85804" lon="7.14966">
        <ele>425.6</ele>
        <time>2021-09-20T11:28:35Z</time>
      </trkpt>
      <trkpt lat="43.8581" lon="7.14968">
        <ele>425.6</ele>
        <time>2021-09-20T11:28:36Z</time>
      </trkpt>
      <trkpt lat="43.85823" lon="7.1497">
        <ele>425.5</ele>
        <time>2021-09-20T11:28:38Z</time>
      </trkpt>
      <trkpt lat="43.85829" lon="7.1497">
        <ele>425.4</ele>
        <time>2021-09-20T11:28:39Z</time>
      </trkpt>
      <trkpt lat="43.85835" lon="7.1497">
        <ele>425.4</ele>
        <time>2021-09-20T11:28:40Z</time>
      </trkpt>
      <trkpt lat="43.85844" lon="7.14974">
        <ele>425.3</ele>
        <time>2021-09-20T11:28:42Z</time>
      </trkpt>
      <trkpt lat="43.85846" lon="7.1498">
        <ele>425.3</ele>
        <time>2021-09-20T11:28:43Z</time>
      </trkpt>
      <trkpt lat="43.85845" lon="7.14986">
        <ele>425.2</ele>
        <time>2021-09-20T11:28:44Z</time>
      </trkpt>
      <trkpt lat="43.85844" lon="7.14988">
        <ele>425.2</ele>
        <time>2021-09-20T11:28:46Z</time>
      </trkpt>
      <trkpt lat="43.85844" lon="7.14994">
        <ele>425.2</ele>
        <time>2021-09-20T11:28:48Z</time>
      </trkpt>
      <trkpt lat="43.85845" lon="7.15002">
        <ele>425.1</ele>
        <time>2021-09-20T11:28:50Z</time>
      </trkpt>
      <trkpt lat="43.85846" lon="7.15005">
        <ele>425.1</ele>
        <time>2021-09-20T11:28:51Z</time>
      </trkpt>
      <trkpt lat="43.85846" lon="7.15006">
        <ele>425.1</ele>
        <time>2021-09-20T11:28:52Z</time>
      </trkpt>
      <trkpt lat="43.85846" lon="7.15007">
        <ele>425.1</ele>
        <time>2021-09-20T11:28:53Z</time>
      </trkpt>
      <trkpt lat="43.85732" lon="7.15317">
        <ele>451.1</ele>
        <time>2021-09-20T11:29:58Z</time>
      </trkpt>
      <trkpt lat="43.8572" lon="7.15356">
        <ele>447.6</ele>
        <time>2021-09-20T11:30:00Z</time>
      </trkpt>
      <trkpt lat="43.85714" lon="7.15382">
        <ele>447.8</ele>
        <time>2021-09-20T11:30:01Z</time>
      </trkpt>
      <trkpt lat="43.85712" lon="7.15392">
        <ele>447.9</ele>
        <time>2021-09-20T11:30:03Z</time>
      </trkpt>
      <trkpt lat="43.85714" lon="7.15415">
        <ele>448</ele>
        <time>2021-09-20T11:30:04Z</time>
      </trkpt>
      <trkpt lat="43.85716" lon="7.15434">
        <ele>448.2</ele>
        <time>2021-09-20T11:30:06Z</time>
      </trkpt>
      <trkpt lat="43.85717" lon="7.15447">
        <ele>448.4</ele>
        <time>2021-09-20T11:30:07Z</time>
      </trkpt>
      <trkpt lat="43.85719" lon="7.15457">
        <ele>440.3</ele>
        <time>2021-09-20T11:30:09Z</time>
      </trkpt>
      <trkpt lat="43.85723" lon="7.15469">
        <ele>439.7</ele>
        <time>2021-09-20T11:30:11Z</time>
      </trkpt>
      <trkpt lat="43.85754" lon="7.15515">
        <ele>422</ele>
        <time>2021-09-20T11:30:27Z</time>
      </trkpt>
      <trkpt lat="43.85757" lon="7.15521">
        <ele>422</ele>
        <time>2021-09-20T11:30:28Z</time>
      </trkpt>
      <trkpt lat="43.85761" lon="7.15525">
        <ele>422</ele>
        <time>2021-09-20T11:30:29Z</time>
      </trkpt>
      <trkpt lat="43.85766" lon="7.15539">
        <ele>422</ele>
        <time>2021-09-20T11:30:30Z</time>
      </trkpt>
      <trkpt lat="43.85769" lon="7.15547">
        <ele>422</ele>
        <time>2021-09-20T11:30:31Z</time>
      </trkpt>
      <trkpt lat="43.85774" lon="7.15553">
        <ele>422</ele>
        <time>2021-09-20T11:30:33Z</time>
      </trkpt>
      <trkpt lat="43.85779" lon="7.15554">
        <ele>422</ele>
        <time>2021-09-20T11:30:35Z</time>
      </trkpt>
      <trkpt lat="43.85785" lon="7.15563">
        <ele>421.9</ele>
        <time>2021-09-20T11:30:37Z</time>
      </trkpt>
      <trkpt lat="43.85792" lon="7.15572">
        <ele>421.9</ele>
        <time>2021-09-20T11:30:39Z</time>
      </trkpt>
      <trkpt lat="43.858" lon="7.1558">
        <ele>421.8</ele>
        <time>2021-09-20T11:30:40Z</time>
      </trkpt>
      <trkpt lat="43.85806" lon="7.15583">
        <ele>421.8</ele>
        <time>2021-09-20T11:30:41Z</time>
      </trkpt>
      <trkpt lat="43.85812" lon="7.15585">
        <ele>421.7</ele>
        <time>2021-09-20T11:30:42Z</time>
      </trkpt>
      <trkpt lat="43.85824" lon="7.1559">
        <ele>421.6</ele>
        <time>2021-09-20T11:30:44Z</time>
      </trkpt>
      <trkpt lat="43.85836" lon="7.15595">
        <ele>421.6</ele>
        <time>2021-09-20T11:30:46Z</time>
      </trkpt>
      <trkpt lat="43.85848" lon="7.15601">
        <ele>421.5</ele>
        <time>2021-09-20T11:30:48Z</time>
      </trkpt>
      <trkpt lat="43.85859" lon="7.15606">
        <ele>421.4</ele>
        <time>2021-09-20T11:30:50Z</time>
      </trkpt>
      <trkpt lat="43.85868" lon="7.15606">
        <ele>421.4</ele>
        <time>2021-09-20T11:30:52Z</time>
      </trkpt>
      <trkpt lat="43.85879" lon="7.15609">
        <ele>421.4</ele>
        <time>2021-09-20T11:30:54Z</time>
      </trkpt>
      <trkpt lat="43.8589" lon="7.15614">
        <ele>421.3</ele>
        <time>2021-09-20T11:30:56Z</time>
      </trkpt>
      <trkpt lat="43.85895" lon="7.15616">
        <ele>421.3</ele>
        <time>2021-09-20T11:30:57Z</time>
      </trkpt>
      <trkpt lat="43.85898" lon="7.15619">
        <ele>421.3</ele>
        <time>2021-09-20T11:30:58Z</time>
      </trkpt>
      <trkpt lat="43.85901" lon="7.15614">
        <ele>421.2</ele>
        <time>2021-09-20T11:31:00Z</time>
      </trkpt>
      <trkpt lat="43.85907" lon="7.15621">
        <ele>421.1</ele>
        <time>2021-09-20T11:31:01Z</time>
      </trkpt>
      <trkpt lat="43.85912" lon="7.15628">
        <ele>421.1</ele>
        <time>2021-09-20T11:31:03Z</time>
      </trkpt>
      <trkpt lat="43.85916" lon="7.15634">
        <ele>421</ele>
        <time>2021-09-20T11:31:04Z</time>
      </trkpt>
      <trkpt lat="43.85926" lon="7.15646">
        <ele>420.9</ele>
        <time>2021-09-20T11:31:06Z</time>
      </trkpt>
      <trkpt lat="43.85929" lon="7.15652">
        <ele>420.9</ele>
        <time>2021-09-20T11:31:07Z</time>
      </trkpt>
      <trkpt lat="43.85931" lon="7.15658">
        <ele>420.8</ele>
        <time>2021-09-20T11:31:08Z</time>
      </trkpt>
      <trkpt lat="43.85933" lon="7.15668">
        <ele>420.7</ele>
        <time>2021-09-20T11:31:10Z</time>
      </trkpt>
      <trkpt lat="43.85936" lon="7.1567">
        <ele>420.7</ele>
        <time>2021-09-20T11:31:11Z</time>
      </trkpt>
      <trkpt lat="43.85937" lon="7.1567">
        <ele>420.7</ele>
        <time>2021-09-20T11:31:12Z</time>
      </trkpt>
      <trkpt lat="43.85939" lon="7.1567">
        <ele>420.6</ele>
        <time>2021-09-20T11:31:13Z</time>
      </trkpt>
      <trkpt lat="43.8594" lon="7.15671">
        <ele>420.6</ele>
        <time>2021-09-20T11:31:15Z</time>
      </trkpt>
      <trkpt lat="43.8594" lon="7.15669">
        <ele>420.6</ele>
        <time>2021-09-20T11:31:17Z</time>
      </trkpt>
      <trkpt lat="43.85939" lon="7.15669">
        <ele>420.6</ele>
        <time>2021-09-20T11:31:18Z</time>
      </trkpt>
      <trkpt lat="43.85938" lon="7.15669">
        <ele>420.6</ele>
        <time>2021-09-20T11:31:19Z</time>
      </trkpt>
      <trkpt lat="43.85937" lon="7.15669">
        <ele>420.5</ele>
        <time>2021-09-20T11:31:20Z</time>
      </trkpt>
      <trkpt lat="43.85936" lon="7.15669">
        <ele>420.5</ele>
        <time>2021-09-20T11:31:21Z</time>
      </trkpt>
      <trkpt lat="43.85934" lon="7.15669">
        <ele>420.5</ele>
        <time>2021-09-20T11:31:23Z</time>
      </trkpt>
      <trkpt lat="43.85933" lon="7.15669">
        <ele>420.4</ele>
        <time>2021-09-20T11:31:25Z</time>
      </trkpt>
      <trkpt lat="43.85991" lon="7.15812">
        <ele>419.2</ele>
        <time>2021-09-20T11:32:08Z</time>
      </trkpt>
      <trkpt lat="43.86016" lon="7.15839">
        <ele>418.6</ele>
        <time>2021-09-20T11:32:10Z</time>
      </trkpt>
      <trkpt lat="43.86027" lon="7.15849">
        <ele>418.4</ele>
        <time>2021-09-20T11:32:11Z</time>
      </trkpt>
      <trkpt lat="43.86043" lon="7.15862">
        <ele>418.1</ele>
        <time>2021-09-20T11:32:13Z</time>
      </trkpt>
      <trkpt lat="43.8605" lon="7.15867">
        <ele>418</ele>
        <time>2021-09-20T11:32:14Z</time>
      </trkpt>
      <trkpt lat="43.86058" lon="7.1587">
        <ele>417.9</ele>
        <time>2021-09-20T11:32:15Z</time>
      </trkpt>
      <trkpt lat="43.86067" lon="7.15872">
        <ele>417.8</ele>
        <time>2021-09-20T11:32:16Z</time>
      </trkpt>
      <trkpt lat="43.86076" lon="7.15874">
        <ele>417.7</ele>
        <time>2021-09-20T11:32:17Z</time>
      </trkpt>
      <trkpt lat="43.86091" lon="7.15878">
        <ele>417.5</ele>
        <time>2021-09-20T11:32:19Z</time>
      </trkpt>
      <trkpt lat="43.86099" lon="7.15879">
        <ele>417.4</ele>
        <time>2021-09-20T11:32:20Z</time>
      </trkpt>
      <trkpt lat="43.86106" lon="7.15879">
        <ele>417.3</ele>
        <time>2021-09-20T11:32:21Z</time>
      </trkpt>
      <trkpt lat="43.86106" lon="7.15879">
        <ele>417.3</ele>
        <time>2021-09-20T11:32:23Z</time>
      </trkpt>
      <trkpt lat="43.86106" lon="7.15879">
        <ele>417.3</ele>
        <time>2021-09-20T11:32:24Z</time>
      </trkpt>
      <trkpt lat="43.86107" lon="7.1588">
        <ele>417.3</ele>
        <time>2021-09-20T11:32:25Z</time>
      </trkpt>
      <trkpt lat="43.86107" lon="7.1588">
        <ele>417.3</ele>
        <time>2021-09-20T11:32:26Z</time>
      </trkpt>
      <trkpt lat="43.86108" lon="7.15882">
        <ele>417.3</ele>
        <time>2021-09-20T11:32:28Z</time>
      </trkpt>
      <trkpt lat="43.86112" lon="7.15886">
        <ele>417.3</ele>
        <time>2021-09-20T11:32:30Z</time>
      </trkpt>
      <trkpt lat="43.86115" lon="7.1589">
        <ele>417.2</ele>
        <time>2021-09-20T11:32:31Z</time>
      </trkpt>
      <trkpt lat="43.86086" lon="7.16169">
        <ele>425</ele>
        <time>2021-09-20T11:33:22Z</time>
      </trkpt>
      <trkpt lat="43.8608" lon="7.1617">
        <ele>425.2</ele>
        <time>2021-09-20T11:33:24Z</time>
      </trkpt>
      <trkpt lat="43.86075" lon="7.16171">
        <ele>425.3</ele>
        <time>2021-09-20T11:33:25Z</time>
      </trkpt>
      <trkpt lat="43.86071" lon="7.1617">
        <ele>425.5</ele>
        <time>2021-09-20T11:33:26Z</time>
      </trkpt>
      <trkpt lat="43.86068" lon="7.16166">
        <ele>425.6</ele>
        <time>2021-09-20T11:33:28Z</time>
      </trkpt>
      <trkpt lat="43.86067" lon="7.16164">
        <ele>425.6</ele>
        <time>2021-09-20T11:33:30Z</time>
      </trkpt>
      <trkpt lat="43.86067" lon="7.16163">
        <ele>425.7</ele>
        <time>2021-09-20T11:33:31Z</time>
      </trkpt>
      <trkpt lat="43.86066" lon="7.16162">
        <ele>425.7</ele>
        <time>2021-09-20T11:33:32Z</time>
      </trkpt>
      <trkpt lat="43.86066" lon="7.16158">
        <ele>425.8</ele>
        <time>2021-09-20T11:33:34Z</time>
      </trkpt>
      <trkpt lat="43.86066" lon="7.16155">
        <ele>425.9</ele>
        <time>2021-09-20T11:33:35Z</time>
      </trkpt>
      <trkpt lat="43.86067" lon="7.16151">
        <ele>426</ele>
        <time>2021-09-20T11:33:37Z</time>
      </trkpt>
      <trkpt lat="43.86067" lon="7.16148">
        <ele>426.1</ele>
        <time>2021-09-20T11:33:38Z</time>
      </trkpt>
      <trkpt lat="43.86017" lon="7.16088">
        <ele>428.9</ele>
        <time>2021-09-20T11:34:06Z</time>
      </trkpt>
      <trkpt lat="43.8601" lon="7.16096">
        <ele>429.6</ele>
        <time>2021-09-20T11:34:08Z</time>
      </trkpt>
      <trkpt lat="43.86004" lon="7.161">
        <ele>430.1</ele>
        <time>2021-09-20T11:34:09Z</time>
      </trkpt>
      <trkpt lat="43.86" lon="7.16103">
        <ele>430.4</ele>
        <time>2021-09-20T11:34:10Z</time>
      </trkpt>
      <trkpt lat="43.85994" lon="7.16107">
        <ele>430.8</ele>
        <time>2021-09-20T11:34:11Z</time>
      </trkpt>
      <trkpt lat="43.8599" lon="7.16109">
        <ele>431.2</ele>
        <time>2021-09-20T11:34:13Z</time>
      </trkpt>
      <trkpt lat="43.85983" lon="7.1611">
        <ele>431.7</ele>
        <time>2021-09-20T11:34:15Z</time>
      </trkpt>
      <trkpt lat="43.85983" lon="7.1611">
        <ele>431.7</ele>
        <time>2021-09-20T11:34:16Z</time>
      </trkpt>
      <trkpt lat="43.85981" lon="7.16108">
        <ele>431.8</ele>
        <time>2021-09-20T11:34:17Z</time>
      </trkpt>
      <trkpt lat="43.85979" lon="7.16105">
        <ele>432</ele>
        <time>2021-09-20T11:34:19Z</time>
      </trkpt>
      <trkpt lat="43.85976" lon="7.16103">
        <ele>432.2</ele>
        <time>2021-09-20T11:34:20Z</time>
      </trkpt>
      <trkpt lat="43.85976" lon="7.16103">
        <ele>432.3</ele>
        <time>2021-09-20T11:34:21Z</time>
      </trkpt>
      <trkpt lat="43.85974" lon="7.16101">
        <ele>432.4</ele>
        <time>2021-09-20T11:34:22Z</time>
      </trkpt>
      <trkpt lat="43.85973" lon="7.16101">
        <ele>432.5</ele>
        <time>2021-09-20T11:34:24Z</time>
      </trkpt>
      <trkpt lat="43.85972" lon="7.16101">
        <ele>432.5</ele>
        <time>2021-09-20T11:34:26Z</time>
      </trkpt>
      <trkpt lat="43.85886" lon="7.16092">
        <ele>435.6</ele>
        <time>2021-09-20T11:34:47Z</time>
      </trkpt>
      <trkpt lat="43.8588" lon="7.16084">
        <ele>435.9</ele>
        <time>2021-09-20T11:34:48Z</time>
      </trkpt>
      <trkpt lat="43.85873" lon="7.16083">
        <ele>436.1</ele>
        <time>2021-09-20T11:34:50Z</time>
      </trkpt>
      <trkpt lat="43.85867" lon="7.16083">
        <ele>436.3</ele>
        <time>2021-09-20T11:34:51Z</time>
      </trkpt>
      <trkpt lat="43.85862" lon="7.16083">
        <ele>436.5</ele>
        <time>2021-09-20T11:34:52Z</time>
      </trkpt>
      <trkpt lat="43.85859" lon="7.16083">
        <ele>436.6</ele>
        <time>2021-09-20T11:34:54Z</time>
      </trkpt>
      <trkpt lat="43.85856" lon="7.16082">
        <ele>436.7</ele>
        <time>2021-09-20T11:34:55Z</time>
      </trkpt>
      <trkpt lat="43.85853" lon="7.1608">
        <ele>436.8</ele>
        <time>2021-09-20T11:34:56Z</time>
      </trkpt>
      <trkpt lat="43.85848" lon="7.16077">
        <ele>436.9</ele>
        <time>2021-09-20T11:34:57Z</time>
      </trkpt>
      <trkpt lat="43.85844" lon="7.16074">
        <ele>437.1</ele>
        <time>2021-09-20T11:34:59Z</time>
      </trkpt>
      <trkpt lat="43.85842" lon="7.16071">
        <ele>437.2</ele>
        <time>2021-09-20T11:35:00Z</time>
      </trkpt>
      <trkpt lat="43.85838" lon="7.16066">
        <ele>437.3</ele>
        <time>2021-09-20T11:35:01Z</time>
      </trkpt>
      <trkpt lat="43.85834" lon="7.16062">
        <ele>437.5</ele>
        <time>2021-09-20T11:35:03Z</time>
      </trkpt>
      <trkpt lat="43.85828" lon="7.16055">
        <ele>437.7</ele>
        <time>2021-09-20T11:35:05Z</time>
      </trkpt>
      <trkpt lat="43.85826" lon="7.16052">
        <ele>437.8</ele>
        <time>2021-09-20T11:35:06Z</time>
      </trkpt>
      <trkpt lat="43.85824" lon="7.16049">
        <ele>437.9</ele>
        <time>2021-09-20T11:35:07Z</time>
      </trkpt>
      <trkpt lat="43.85821" lon="7.16045">
        <ele>438.1</ele>
        <time>2021-09-20T11:35:09Z</time>
      </trkpt>
      <trkpt lat="43.85818" lon="7.16043">
        <ele>438.2</ele>
        <time>2021-09-20T11:35:10Z</time>
      </trkpt>
      <trkpt lat="43.85817" lon="7.16043">
        <ele>438.2</ele>
        <time>2021-09-20T11:35:11Z</time>
      </trkpt>
      <trkpt lat="43.85815" lon="7.16042">
        <ele>438.3</ele>
        <time>2021-09-20T11:35:12Z</time>
      </trkpt>
      <trkpt lat="43.85812" lon="7.16041">
        <ele>438.5</ele>
        <time>2021-09-20T11:35:14Z</time>
      </trkpt>
      <trkpt lat="43.85809" lon="7.16038">
        <ele>438.6</ele>
        <time>2021-09-20T11:35:15Z</time>
      </trkpt>
      <trkpt lat="43.85808" lon="7.16036">
        <ele>438.7</ele>
        <time>2021-09-20T11:35:16Z</time>
      </trkpt>
      <trkpt lat="43.85804" lon="7.16029">
        <ele>439</ele>
        <time>2021-09-20T11:35:18Z</time>
      </trkpt>
      <trkpt lat="43.85803" lon="7.16026">
        <ele>439.1</ele>
        <time>2021-09-20T11:35:19Z</time>
      </trkpt>
      <trkpt lat="43.85801" lon="7.16022">
        <ele>439.3</ele>
        <time>2021-09-20T11:35:21Z</time>
      </trkpt>
      <trkpt lat="43.85798" lon="7.16018">
        <ele>439.4</ele>
        <time>2021-09-20T11:35:24Z</time>
      </trkpt>
      <trkpt lat="43.85797" lon="7.16017">
        <ele>439.5</ele>
        <time>2021-09-20T11:35:25Z</time>
      </trkpt>
      <trkpt lat="43.85793" lon="7.16015">
        <ele>439.6</ele>
        <time>2021-09-20T11:35:27Z</time>
      </trkpt>
      <trkpt lat="43.85786" lon="7.16014">
        <ele>439.8</ele>
        <time>2021-09-20T11:35:29Z</time>
      </trkpt>
      <trkpt lat="43.85778" lon="7.16013">
        <ele>440</ele>
        <time>2021-09-20T11:35:30Z</time>
      </trkpt>
      <trkpt lat="43.85771" lon="7.16014">
        <ele>440.2</ele>
        <time>2021-09-20T11:35:32Z</time>
      </trkpt>
      <trkpt lat="43.85762" lon="7.16016">
        <ele>440.4</ele>
        <time>2021-09-20T11:35:33Z</time>
      </trkpt>
      <trkpt lat="43.85754" lon="7.16019">
        <ele>440.5</ele>
        <time>2021-09-20T11:35:35Z</time>
      </trkpt>
      <trkpt lat="43.85746" lon="7.16023">
        <ele>440.7</ele>
        <time>2021-09-20T11:35:36Z</time>
      </trkpt>
      <trkpt lat="43.8574" lon="7.16027">
        <ele>440.8</ele>
        <time>2021-09-20T11:35:38Z</time>
      </trkpt>
      <trkpt lat="43.85737" lon="7.16031">
        <ele>440.9</ele>
        <time>2021-09-20T11:35:39Z</time>
      </trkpt>
      <trkpt lat="43.85734" lon="7.16033">
        <ele>440.9</ele>
        <time>2021-09-20T11:35:40Z</time>
      </trkpt>
      <trkpt lat="43.85732" lon="7.16036">
        <ele>441</ele>
        <time>2021-09-20T11:35:41Z</time>
      </trkpt>
      <trkpt lat="43.85729" lon="7.16039">
        <ele>441</ele>
        <time>2021-09-20T11:35:42Z</time>
      </trkpt>
      <trkpt lat="43.85729" lon="7.16039">
        <ele>441</ele>
        <time>2021-09-20T11:35:43Z</time>
      </trkpt>
      <trkpt lat="43.85727" lon="7.16042">
        <ele>441.1</ele>
        <time>2021-09-20T11:35:44Z</time>
      </trkpt>
      <trkpt lat="43.85726" lon="7.16044">
        <ele>441.1</ele>
        <time>2021-09-20T11:35:46Z</time>
      </trkpt>
      <trkpt lat="43.85725" lon="7.16045">
        <ele>441.1</ele>
        <time>2021-09-20T11:35:47Z</time>
      </trkpt>
      <trkpt lat="43.85724" lon="7.16046">
        <ele>441.1</ele>
        <time>2021-09-20T11:35:48Z</time>
      </trkpt>
      <trkpt lat="43.85722" lon="7.16052">
        <ele>441.2</ele>
        <time>2021-09-20T11:35:50Z</time>
      </trkpt>
      <trkpt lat="43.85721" lon="7.16056">
        <ele>441.3</ele>
        <time>2021-09-20T11:35:51Z</time>
      </trkpt>
      <trkpt lat="43.85721" lon="7.1606">
        <ele>441.3</ele>
        <time>2021-09-20T11:35:52Z</time>
      </trkpt>
      <trkpt lat="43.8572" lon="7.16065">
        <ele>441.4</ele>
        <time>2021-09-20T11:35:53Z</time>
      </trkpt>
      <trkpt lat="43.85719" lon="7.16077">
        <ele>441.6</ele>
        <time>2021-09-20T11:35:55Z</time>
      </trkpt>
      <trkpt lat="43.85719" lon="7.16087">
        <ele>441.7</ele>
        <time>2021-09-20T11:35:56Z</time>
      </trkpt>
      <trkpt lat="43.8572" lon="7.16097">
        <ele>441.9</ele>
        <time>2021-09-20T11:35:57Z</time>
      </trkpt>
      <trkpt lat="43.85719" lon="7.16104">
        <ele>442</ele>
        <time>2021-09-20T11:35:58Z</time>
      </trkpt>
      <trkpt lat="43.85719" lon="7.16108">
        <ele>442</ele>
        <time>2021-09-20T11:36:00Z</time>
      </trkpt>
      <trkpt lat="43.85718" lon="7.16113">
        <ele>442.1</ele>
        <time>2021-09-20T11:36:01Z</time>
      </trkpt>
      <trkpt lat="43.85718" lon="7.16119">
        <ele>442.2</ele>
        <time>2021-09-20T11:36:02Z</time>
      </trkpt>
      <trkpt lat="43.85718" lon="7.16124">
        <ele>442.3</ele>
        <time>2021-09-20T11:36:03Z</time>
      </trkpt>
      <trkpt lat="43.85718" lon="7.16131">
        <ele>442.4</ele>
        <time>2021-09-20T11:36:05Z</time>
      </trkpt>
      <trkpt lat="43.85719" lon="7.16136">
        <ele>442.5</ele>
        <time>2021-09-20T11:36:06Z</time>
      </trkpt>
      <trkpt lat="43.85716" lon="7.16146">
        <ele>442.6</ele>
        <time>2021-09-20T11:36:08Z</time>
      </trkpt>
      <trkpt lat="43.85715" lon="7.1615">
        <ele>442.7</ele>
        <time>2021-09-20T11:36:09Z</time>
      </trkpt>
      <trkpt lat="43.8571" lon="7.16157">
        <ele>442.8</ele>
        <time>2021-09-20T11:36:11Z</time>
      </trkpt>
      <trkpt lat="43.85705" lon="7.16162">
        <ele>443</ele>
        <time>2021-09-20T11:36:12Z</time>
      </trkpt>
      <trkpt lat="43.85697" lon="7.16168">
        <ele>443.1</ele>
        <time>2021-09-20T11:36:14Z</time>
      </trkpt>
      <trkpt lat="43.85691" lon="7.16169">
        <ele>443.3</ele>
        <time>2021-09-20T11:36:15Z</time>
      </trkpt>
      <trkpt lat="43.85683" lon="7.16171">
        <ele>443.4</ele>
        <time>2021-09-20T11:36:16Z</time>
      </trkpt>
      <trkpt lat="43.85675" lon="7.16171">
        <ele>443.6</ele>
        <time>2021-09-20T11:36:18Z</time>
      </trkpt>
      <trkpt lat="43.85667" lon="7.1617">
        <ele>443.7</ele>
        <time>2021-09-20T11:36:19Z</time>
      </trkpt>
      <trkpt lat="43.8566" lon="7.16168">
        <ele>443.9</ele>
        <time>2021-09-20T11:36:21Z</time>
      </trkpt>
      <trkpt lat="43.85654" lon="7.16165">
        <ele>444</ele>
        <time>2021-09-20T11:36:22Z</time>
      </trkpt>
      <trkpt lat="43.85648" lon="7.16161">
        <ele>444.1</ele>
        <time>2021-09-20T11:36:24Z</time>
      </trkpt>
      <trkpt lat="43.85645" lon="7.16159">
        <ele>444.1</ele>
        <time>2021-09-20T11:36:25Z</time>
      </trkpt>
      <trkpt lat="43.85639" lon="7.16156">
        <ele>444.2</ele>
        <time>2021-09-20T11:36:27Z</time>
      </trkpt>
      <trkpt lat="43.85636" lon="7.16155">
        <ele>444.3</ele>
        <time>2021-09-20T11:36:28Z</time>
      </trkpt>
      <trkpt lat="43.8563" lon="7.16151">
        <ele>444.4</ele>
        <time>2021-09-20T11:36:30Z</time>
      </trkpt>
      <trkpt lat="43.85625" lon="7.16148">
        <ele>444.5</ele>
        <time>2021-09-20T11:36:32Z</time>
      </trkpt>
      <trkpt lat="43.85622" lon="7.16145">
        <ele>444.5</ele>
        <time>2021-09-20T11:36:34Z</time>
      </trkpt>
      <trkpt lat="43.8562" lon="7.16143">
        <ele>444.6</ele>
        <time>2021-09-20T11:36:35Z</time>
      </trkpt>
      <trkpt lat="43.85618" lon="7.16141">
        <ele>444.6</ele>
        <time>2021-09-20T11:36:36Z</time>
      </trkpt>
      <trkpt lat="43.85617" lon="7.16139">
        <ele>444.6</ele>
        <time>2021-09-20T11:36:38Z</time>
      </trkpt>
      <trkpt lat="43.85615" lon="7.16138">
        <ele>444.7</ele>
        <time>2021-09-20T11:36:39Z</time>
      </trkpt>
      <trkpt lat="43.85614" lon="7.16136">
        <ele>444.7</ele>
        <time>2021-09-20T11:36:41Z</time>
      </trkpt>
      <trkpt lat="43.85612" lon="7.16134">
        <ele>444.8</ele>
        <time>2021-09-20T11:36:43Z</time>
      </trkpt>
      <trkpt lat="43.8561" lon="7.16133">
        <ele>444.8</ele>
        <time>2021-09-20T11:37:13Z</time>
      </trkpt>
      <trkpt lat="43.85609" lon="7.16131">
        <ele>444.8</ele>
        <time>2021-09-20T11:37:14Z</time>
      </trkpt>
      <trkpt lat="43.85601" lon="7.16141">
        <ele>445</ele>
        <time>2021-09-20T11:37:16Z</time>
      </trkpt>
      <trkpt lat="43.85593" lon="7.16152">
        <ele>445.2</ele>
        <time>2021-09-20T11:37:18Z</time>
      </trkpt>
      <trkpt lat="43.85589" lon="7.16158">
        <ele>445.3</ele>
        <time>2021-09-20T11:37:19Z</time>
      </trkpt>
      <trkpt lat="43.85586" lon="7.16163">
        <ele>445.3</ele>
        <time>2021-09-20T11:37:20Z</time>
      </trkpt>
      <trkpt lat="43.85579" lon="7.16169">
        <ele>445.4</ele>
        <time>2021-09-20T11:37:21Z</time>
      </trkpt>
      <trkpt lat="43.85566" lon="7.16178">
        <ele>445.7</ele>
        <time>2021-09-20T11:37:23Z</time>
      </trkpt>
      <trkpt lat="43.85559" lon="7.16182">
        <ele>445.8</ele>
        <time>2021-09-20T11:37:24Z</time>
      </trkpt>
      <trkpt lat="43.85545" lon="7.16189">
        <ele>446.1</ele>
        <time>2021-09-20T11:37:26Z</time>
      </trkpt>
      <trkpt lat="43.85534" lon="7.16193">
        <ele>446.3</ele>
        <time>2021-09-20T11:37:28Z</time>
      </trkpt>
      <trkpt lat="43.85528" lon="7.16197">
        <ele>446.5</ele>
        <time>2021-09-20T11:37:29Z</time>
      </trkpt>
      <trkpt lat="43.85521" lon="7.16201">
        <ele>446.7</ele>
        <time>2021-09-20T11:37:31Z</time>
      </trkpt>
      <trkpt lat="43.85517" lon="7.16207">
        <ele>446.8</ele>
        <time>2021-09-20T11:37:32Z</time>
      </trkpt>
      <trkpt lat="43.85512" lon="7.16214">
        <ele>447</ele>
        <time>2021-09-20T11:37:34Z</time>
      </trkpt>
      <trkpt lat="43.85509" lon="7.16218">
        <ele>447.1</ele>
        <time>2021-09-20T11:37:35Z</time>
      </trkpt>
      <trkpt lat="43.85507" lon="7.16224">
        <ele>447.3</ele>
        <time>2021-09-20T11:37:36Z</time>
      </trkpt>
      <trkpt lat="43.85506" lon="7.16229">
        <ele>447.4</ele>
        <time>2021-09-20T11:37:38Z</time>
      </trkpt>
      <trkpt lat="43.855" lon="7.16235">
        <ele>447.7</ele>
        <time>2021-09-20T11:37:40Z</time>
      </trkpt>
      <trkpt lat="43.85496" lon="7.16236">
        <ele>447.8</ele>
        <time>2021-09-20T11:37:41Z</time>
      </trkpt>
      <trkpt lat="43.85492" lon="7.16239">
        <ele>447.9</ele>
        <time>2021-09-20T11:37:43Z</time>
      </trkpt>
      <trkpt lat="43.85487" lon="7.16244">
        <ele>448.1</ele>
        <time>2021-09-20T11:37:44Z</time>
      </trkpt>
      <trkpt lat="43.85485" lon="7.16245">
        <ele>448.2</ele>
        <time>2021-09-20T11:37:46Z</time>
      </trkpt>
      <trkpt lat="43.85439" lon="7.16334">
        <ele>449.5</ele>
        <time>2021-09-20T11:38:17Z</time>
      </trkpt>
      <trkpt lat="43.85433" lon="7.1634">
        <ele>449.6</ele>
        <time>2021-09-20T11:38:18Z</time>
      </trkpt>
      <trkpt lat="43.85427" lon="7.16346">
        <ele>449.7</ele>
        <time>2021-09-20T11:38:19Z</time>
      </trkpt>
      <trkpt lat="43.85417" lon="7.16358">
        <ele>450</ele>
        <time>2021-09-20T11:38:21Z</time>
      </trkpt>
      <trkpt lat="43.85409" lon="7.16366">
        <ele>450.2</ele>
        <time>2021-09-20T11:38:22Z</time>
      </trkpt>
      <trkpt lat="43.85404" lon="7.16371">
        <ele>450.3</ele>
        <time>2021-09-20T11:38:23Z</time>
      </trkpt>
      <trkpt lat="43.85398" lon="7.16376">
        <ele>450.5</ele>
        <time>2021-09-20T11:38:24Z</time>
      </trkpt>
      <trkpt lat="43.8538" lon="7.16385">
        <ele>450.9</ele>
        <time>2021-09-20T11:38:26Z</time>
      </trkpt>
      <trkpt lat="43.85379" lon="7.16388">
        <ele>450.9</ele>
        <time>2021-09-20T11:38:28Z</time>
      </trkpt>
      <trkpt lat="43.85371" lon="7.16396">
        <ele>451.1</ele>
        <time>2021-09-20T11:38:30Z</time>
      </trkpt>
      <trkpt lat="43.85362" lon="7.16402">
        <ele>451.2</ele>
        <time>2021-09-20T11:38:31Z</time>
      </trkpt>
      <trkpt lat="43.85356" lon="7.16405">
        <ele>451.4</ele>
        <time>2021-09-20T11:38:33Z</time>
      </trkpt>
      <trkpt lat="43.85352" lon="7.16405">
        <ele>451.5</ele>
        <time>2021-09-20T11:38:34Z</time>
      </trkpt>
      <trkpt lat="43.85346" lon="7.16404">
        <ele>451.6</ele>
        <time>2021-09-20T11:38:35Z</time>
      </trkpt>
      <trkpt lat="43.85335" lon="7.164">
        <ele>451.9</ele>
        <time>2021-09-20T11:38:37Z</time>
      </trkpt>
      <trkpt lat="43.8533" lon="7.164">
        <ele>452</ele>
        <time>2021-09-20T11:38:38Z</time>
      </trkpt>
      <trkpt lat="43.85325" lon="7.16402">
        <ele>452.1</ele>
        <time>2021-09-20T11:38:39Z</time>
      </trkpt>
      <trkpt lat="43.85318" lon="7.16404">
        <ele>452.3</ele>
        <time>2021-09-20T11:38:41Z</time>
      </trkpt>
      <trkpt lat="43.85315" lon="7.16406">
        <ele>452.3</ele>
        <time>2021-09-20T11:38:42Z</time>
      </trkpt>
      <trkpt lat="43.85311" lon="7.16411">
        <ele>452.4</ele>
        <time>2021-09-20T11:38:43Z</time>
      </trkpt>
      <trkpt lat="43.85308" lon="7.16421">
        <ele>452.5</ele>
        <time>2021-09-20T11:38:45Z</time>
      </trkpt>
      <trkpt lat="43.85304" lon="7.1643">
        <ele>452.5</ele>
        <time>2021-09-20T11:38:47Z</time>
      </trkpt>
      <trkpt lat="43.85299" lon="7.16433">
        <ele>452.6</ele>
        <time>2021-09-20T11:38:48Z</time>
      </trkpt>
      <trkpt lat="43.85294" lon="7.16435">
        <ele>452.7</ele>
        <time>2021-09-20T11:38:50Z</time>
      </trkpt>
      <trkpt lat="43.85286" lon="7.16436">
        <ele>452.8</ele>
        <time>2021-09-20T11:38:52Z</time>
      </trkpt>
      <trkpt lat="43.85279" lon="7.16433">
        <ele>452.9</ele>
        <time>2021-09-20T11:38:53Z</time>
      </trkpt>
      <trkpt lat="43.85273" lon="7.16432">
        <ele>453</ele>
        <time>2021-09-20T11:38:54Z</time>
      </trkpt>
      <trkpt lat="43.85262" lon="7.16431">
        <ele>453.2</ele>
        <time>2021-09-20T11:38:56Z</time>
      </trkpt>
      <trkpt lat="43.85254" lon="7.16433">
        <ele>453.4</ele>
        <time>2021-09-20T11:38:58Z</time>
      </trkpt>
      <trkpt lat="43.85248" lon="7.16435">
        <ele>453.6</ele>
        <time>2021-09-20T11:39:00Z</time>
      </trkpt>
      <trkpt lat="43.85243" lon="7.16434">
        <ele>453.7</ele>
        <time>2021-09-20T11:39:01Z</time>
      </trkpt>
      <trkpt lat="43.85236" lon="7.16435">
        <ele>453.9</ele>
        <time>2021-09-20T11:39:03Z</time>
      </trkpt>
      <trkpt lat="43.85232" lon="7.16437">
        <ele>454</ele>
        <time>2021-09-20T11:39:04Z</time>
      </trkpt>
      <trkpt lat="43.85228" lon="7.16438">
        <ele>454.1</ele>
        <time>2021-09-20T11:39:05Z</time>
      </trkpt>
      <trkpt lat="43.85224" lon="7.16439">
        <ele>454.2</ele>
        <time>2021-09-20T11:39:06Z</time>
      </trkpt>
      <trkpt lat="43.85217" lon="7.16443">
        <ele>454.2</ele>
        <time>2021-09-20T11:39:08Z</time>
      </trkpt>
      <trkpt lat="43.85214" lon="7.16447">
        <ele>454.3</ele>
        <time>2021-09-20T11:39:09Z</time>
      </trkpt>
      <trkpt lat="43.85212" lon="7.16452">
        <ele>454.4</ele>
        <time>2021-09-20T11:39:10Z</time>
      </trkpt>
      <trkpt lat="43.8521" lon="7.16459">
        <ele>454.4</ele>
        <time>2021-09-20T11:39:12Z</time>
      </trkpt>
      <trkpt lat="43.85208" lon="7.16464">
        <ele>454.4</ele>
        <time>2021-09-20T11:39:13Z</time>
      </trkpt>
      <trkpt lat="43.85207" lon="7.16467">
        <ele>454.4</ele>
        <time>2021-09-20T11:39:14Z</time>
      </trkpt>
      <trkpt lat="43.85204" lon="7.1647">
        <ele>454.5</ele>
        <time>2021-09-20T11:39:15Z</time>
      </trkpt>
      <trkpt lat="43.85203" lon="7.16471">
        <ele>454.5</ele>
        <time>2021-09-20T11:39:16Z</time>
      </trkpt>
      <trkpt lat="43.85202" lon="7.16473">
        <ele>454.5</ele>
        <time>2021-09-20T11:39:18Z</time>
      </trkpt>
      <trkpt lat="43.85202" lon="7.16473">
        <ele>454.5</ele>
        <time>2021-09-20T11:39:19Z</time>
      </trkpt>
      <trkpt lat="43.85201" lon="7.16473">
        <ele>454.5</ele>
        <time>2021-09-20T11:39:20Z</time>
      </trkpt>
      <trkpt lat="43.85199" lon="7.16472">
        <ele>454.5</ele>
        <time>2021-09-20T11:39:22Z</time>
      </trkpt>
      <trkpt lat="43.85197" lon="7.1647">
        <ele>454.5</ele>
        <time>2021-09-20T11:39:23Z</time>
      </trkpt>
      <trkpt lat="43.85196" lon="7.16469">
        <ele>454.5</ele>
        <time>2021-09-20T11:39:24Z</time>
      </trkpt>
      <trkpt lat="43.85193" lon="7.16467">
        <ele>454.5</ele>
        <time>2021-09-20T11:39:25Z</time>
      </trkpt>
      <trkpt lat="43.85191" lon="7.16465">
        <ele>454.5</ele>
        <time>2021-09-20T11:39:27Z</time>
      </trkpt>
      <trkpt lat="43.85189" lon="7.16465">
        <ele>454.5</ele>
        <time>2021-09-20T11:39:28Z</time>
      </trkpt>
      <trkpt lat="43.85189" lon="7.16465">
        <ele>454.5</ele>
        <time>2021-09-20T11:39:30Z</time>
      </trkpt>
      <trkpt lat="43.85188" lon="7.16465">
        <ele>454.5</ele>
        <time>2021-09-20T11:39:32Z</time>
      </trkpt>
      <trkpt lat="43.85188" lon="7.16466">
        <ele>454.5</ele>
        <time>2021-09-20T11:39:33Z</time>
      </trkpt>
      <trkpt lat="43.85187" lon="7.16466">
        <ele>454.5</ele>
        <time>2021-09-20T11:39:35Z</time>
      </trkpt>
      <trkpt lat="43.85186" lon="7.16467">
        <ele>454.5</ele>
        <time>2021-09-20T11:39:36Z</time>
      </trkpt>
      <trkpt lat="43.85184" lon="7.16468">
        <ele>454.5</ele>
        <time>2021-09-20T11:39:38Z</time>
      </trkpt>
      <trkpt lat="43.85183" lon="7.16469">
        <ele>454.5</ele>
        <time>2021-09-20T11:39:39Z</time>
      </trkpt>
      <trkpt lat="43.85182" lon="7.16469">
        <ele>454.6</ele>
        <time>2021-09-20T11:39:40Z</time>
      </trkpt>
      <trkpt lat="43.85181" lon="7.1647">
        <ele>454.6</ele>
        <time>2021-09-20T11:39:42Z</time>
      </trkpt>
      <trkpt lat="43.85179" lon="7.1647">
        <ele>454.6</ele>
        <time>2021-09-20T11:39:44Z</time>
      </trkpt>
      <trkpt lat="43.85178" lon="7.1647">
        <ele>454.6</ele>
        <time>2021-09-20T11:39:45Z</time>
      </trkpt>
      <trkpt lat="43.85177" lon="7.1647">
        <ele>454.6</ele>
        <time>2021-09-20T11:39:46Z</time>
      </trkpt>
      <trkpt lat="43.85177" lon="7.1647">
        <ele>454.6</ele>
        <time>2021-09-20T11:39:47Z</time>
      </trkpt>
      <trkpt lat="43.85176" lon="7.1647">
        <ele>454.6</ele>
        <time>2021-09-20T11:39:48Z</time>
      </trkpt>
      <trkpt lat="43.85175" lon="7.1647">
        <ele>454.6</ele>
        <time>2021-09-20T11:39:49Z</time>
      </trkpt>
      <trkpt lat="43.85173" lon="7.1647">
        <ele>454.6</ele>
        <time>2021-09-20T11:39:51Z</time>
      </trkpt>
      <trkpt lat="43.85172" lon="7.1647">
        <ele>454.6</ele>
        <time>2021-09-20T11:39:52Z</time>
      </trkpt>
      <trkpt lat="43.85171" lon="7.16469">
        <ele>454.6</ele>
        <time>2021-09-20T11:39:54Z</time>
      </trkpt>
      <trkpt lat="43.8517" lon="7.16469">
        <ele>454.6</ele>
        <time>2021-09-20T11:39:55Z</time>
      </trkpt>
      <trkpt lat="43.85156" lon="7.16456">
        <ele>454.6</ele>
        <time>2021-09-20T11:39:57Z</time>
      </trkpt>
      <trkpt lat="43.85153" lon="7.16454">
        <ele>454.6</ele>
        <time>2021-09-20T11:39:58Z</time>
      </trkpt>
      <trkpt lat="43.85151" lon="7.16452">
        <ele>454.6</ele>
        <time>2021-09-20T11:40:00Z</time>
      </trkpt>
      <trkpt lat="43.85151" lon="7.16452">
        <ele>454.6</ele>
        <time>2021-09-20T11:40:01Z</time>
      </trkpt>
      <trkpt lat="43.85151" lon="7.16452">
        <ele>454.6</ele>
        <time>2021-09-20T11:40:02Z</time>
      </trkpt>
      <trkpt lat="43.85151" lon="7.16452">
        <ele>454.6</ele>
        <time>2021-09-20T11:40:03Z</time>
      </trkpt>
      <trkpt lat="43.85151" lon="7.16452">
        <ele>454.6</ele>
        <time>2021-09-20T11:40:05Z</time>
      </trkpt>
      <trkpt lat="43.85151" lon="7.16452">
        <ele>454.6</ele>
        <time>2021-09-20T11:40:06Z</time>
      </trkpt>
      <trkpt lat="43.85151" lon="7.16452">
        <ele>454.6</ele>
        <time>2021-09-20T11:40:07Z</time>
      </trkpt>
      <trkpt lat="43.85151" lon="7.16452">
        <ele>454.6</ele>
        <time>2021-09-20T11:40:09Z</time>
      </trkpt>
      <trkpt lat="43.85151" lon="7.16452">
        <ele>454.6</ele>
        <time>2021-09-20T11:40:11Z</time>
      </trkpt>
      <trkpt lat="43.85151" lon="7.16452">
        <ele>454.6</ele>
        <time>2021-09-20T11:40:13Z</time>
      </trkpt>
      <trkpt lat="43.85151" lon="7.16452">
        <ele>454.6</ele>
        <time>2021-09-20T11:40:14Z</time>
      </trkpt>
      <trkpt lat="43.85151" lon="7.16452">
        <ele>454.6</ele>
        <time>2021-09-20T11:40:16Z</time>
      </trkpt>
      <trkpt lat="43.85151" lon="7.16452">
        <ele>454.6</ele>
        <time>2021-09-20T11:40:17Z</time>
      </trkpt>
      <trkpt lat="43.85151" lon="7.16452">
        <ele>454.6</ele>
        <time>2021-09-20T11:40:18Z</time>
      </trkpt>
      <trkpt lat="43.85151" lon="7.16452">
        <ele>454.6</ele>
        <time>2021-09-20T11:40:20Z</time>
      </trkpt>
      <trkpt lat="43.85151" lon="7.16452">
        <ele>454.6</ele>
        <time>2021-09-20T11:40:22Z</time>
      </trkpt>
      <trkpt lat="43.85151" lon="7.16452">
        <ele>454.6</ele>
        <time>2021-09-20T11:40:23Z</time>
      </trkpt>
      <trkpt lat="43.8515" lon="7.16452">
        <ele>454.6</ele>
        <time>2021-09-20T11:40:24Z</time>
      </trkpt>
      <trkpt lat="43.8515" lon="7.16452">
        <ele>454.6</ele>
        <time>2021-09-20T11:40:25Z</time>
      </trkpt>
      <trkpt lat="43.8515" lon="7.16452">
        <ele>454.6</ele>
        <time>2021-09-20T11:40:27Z</time>
      </trkpt>
      <trkpt lat="43.8515" lon="7.16452">
        <ele>454.6</ele>
        <time>2021-09-20T11:40:29Z</time>
      </trkpt>
      <trkpt lat="43.8515" lon="7.16452">
        <ele>454.6</ele>
        <time>2021-09-20T11:40:30Z</time>
      </trkpt>
      <trkpt lat="43.8515" lon="7.16452">
        <ele>454.6</ele>
        <time>2021-09-20T11:40:32Z</time>
      </trkpt>
      <trkpt lat="43.8515" lon="7.16452">
        <ele>454.6</ele>
        <time>2021-09-20T11:40:33Z</time>
      </trkpt>
      <trkpt lat="43.85151" lon="7.16452">
        <ele>454.6</ele>
        <time>2021-09-20T11:40:35Z</time>
      </trkpt>
      <trkpt lat="43.85151" lon="7.16452">
        <ele>454.6</ele>
        <time>2021-09-20T11:40:36Z</time>
      </trkpt>
      <trkpt lat="43.85151" lon="7.16452">
        <ele>454.6</ele>
        <time>2021-09-20T11:40:38Z</time>
      </trkpt>
      <trkpt lat="43.85151" lon="7.16452">
        <ele>454.6</ele>
        <time>2021-09-20T11:40:39Z</time>
      </trkpt>
      <trkpt lat="43.8515" lon="7.16452">
        <ele>454.6</ele>
        <time>2021-09-20T11:40:41Z</time>
      </trkpt>
      <trkpt lat="43.8515" lon="7.16452">
        <ele>454.6</ele>
        <time>2021-09-20T11:40:42Z</time>
      </trkpt>
      <trkpt lat="43.8515" lon="7.16452">
        <ele>454.6</ele>
        <time>2021-09-20T11:40:44Z</time>
      </trkpt>
      <trkpt lat="43.8515" lon="7.16452">
        <ele>454.6</ele>
        <time>2021-09-20T11:40:45Z</time>
      </trkpt>
      <trkpt lat="43.8515" lon="7.16452">
        <ele>454.7</ele>
        <time>2021-09-20T11:40:47Z</time>
      </trkpt>
      <trkpt lat="43.85148" lon="7.16461">
        <ele>454.7</ele>
        <time>2021-09-20T11:40:49Z</time>
      </trkpt>
      <trkpt lat="43.85148" lon="7.16461">
        <ele>454.7</ele>
        <time>2021-09-20T11:40:51Z</time>
      </trkpt>
      <trkpt lat="43.85148" lon="7.16461">
        <ele>454.7</ele>
        <time>2021-09-20T11:40:52Z</time>
      </trkpt>
      <trkpt lat="43.85148" lon="7.16462">
        <ele>454.7</ele>
        <time>2021-09-20T11:40:53Z</time>
      </trkpt>
      <trkpt lat="43.85148" lon="7.16462">
        <ele>454.7</ele>
        <time>2021-09-20T11:40:55Z</time>
      </trkpt>
      <trkpt lat="43.85149" lon="7.16458">
        <ele>454.7</ele>
        <time>2021-09-20T11:40:56Z</time>
      </trkpt>
      <trkpt lat="43.85149" lon="7.16457">
        <ele>454.7</ele>
        <time>2021-09-20T11:40:58Z</time>
      </trkpt>
      <trkpt lat="43.85149" lon="7.16456">
        <ele>454.7</ele>
        <time>2021-09-20T11:40:59Z</time>
      </trkpt>
      <trkpt lat="43.8515" lon="7.16456">
        <ele>454.7</ele>
        <time>2021-09-20T11:41:01Z</time>
      </trkpt>
      <trkpt lat="43.8515" lon="7.16456">
        <ele>454.7</ele>
        <time>2021-09-20T11:41:03Z</time>
      </trkpt>
      <trkpt lat="43.8515" lon="7.16456">
        <ele>454.7</ele>
        <time>2021-09-20T11:41:05Z</time>
      </trkpt>
      <trkpt lat="43.8515" lon="7.16456">
        <ele>454.7</ele>
        <time>2021-09-20T11:41:06Z</time>
      </trkpt>
      <trkpt lat="43.8515" lon="7.16456">
        <ele>454.7</ele>
        <time>2021-09-20T11:41:08Z</time>
      </trkpt>
      <trkpt lat="43.8515" lon="7.16456">
        <ele>454.7</ele>
        <time>2021-09-20T11:41:09Z</time>
      </trkpt>
      <trkpt lat="43.85151" lon="7.16456">
        <ele>454.7</ele>
        <time>2021-09-20T11:41:12Z</time>
      </trkpt>
      <trkpt lat="43.85151" lon="7.16456">
        <ele>454.7</ele>
        <time>2021-09-20T11:41:18Z</time>
      </trkpt>
      <trkpt lat="43.85172" lon="7.16438">
        <ele>454.8</ele>
        <time>2021-09-20T11:41:24Z</time>
      </trkpt>
      <trkpt lat="43.85194" lon="7.16418">
        <ele>454.9</ele>
        <time>2021-09-20T11:41:30Z</time>
      </trkpt>
      <trkpt lat="43.85205" lon="7.16407">
        <ele>455</ele>
        <time>2021-09-20T11:41:37Z</time>
      </trkpt>
      <trkpt lat="43.85212" lon="7.16401">
        <ele>455</ele>
        <time>2021-09-20T11:41:43Z</time>
      </trkpt>
      <trkpt lat="43.8521" lon="7.16403">
        <ele>455</ele>
        <time>2021-09-20T11:41:49Z</time>
      </trkpt>
      <trkpt lat="43.85205" lon="7.16407">
        <ele>455</ele>
        <time>2021-09-20T11:41:56Z</time>
      </trkpt>
      <trkpt lat="43.85203" lon="7.16408">
        <ele>455</ele>
        <time>2021-09-20T11:42:02Z</time>
      </trkpt>
      <trkpt lat="43.85201" lon="7.16411">
        <ele>455</ele>
        <time>2021-09-20T11:42:08Z</time>
      </trkpt>
      <trkpt lat="43.85173" lon="7.16415">
        <ele>455</ele>
        <time>2021-09-20T11:44:09Z</time>
      </trkpt>
      <trkpt lat="43.85197" lon="7.16411">
        <ele>455</ele>
        <time>2021-09-20T11:44:15Z</time>
      </trkpt>
      <trkpt lat="43.85207" lon="7.1641">
        <ele>455</ele>
        <time>2021-09-20T11:44:22Z</time>
      </trkpt>
      <trkpt lat="43.85206" lon="7.1641">
        <ele>455</ele>
        <time>2021-09-20T11:44:28Z</time>
      </trkpt>
      <trkpt lat="43.85206" lon="7.16411">
        <ele>455</ele>
        <time>2021-09-20T11:44:34Z</time>
      </trkpt>
      <trkpt lat="43.85205" lon="7.16411">
        <ele>455</ele>
        <time>2021-09-20T11:44:39Z</time>
      </trkpt>
      <trkpt lat="43.85205" lon="7.16411">
        <ele>455</ele>
        <time>2021-09-20T11:44:40Z</time>
      </trkpt>
      <trkpt lat="43.85205" lon="7.16411">
        <ele>455</ele>
        <time>2021-09-20T11:44:46Z</time>
      </trkpt>
      <trkpt lat="43.85204" lon="7.16411">
        <ele>455</ele>
        <time>2021-09-20T11:44:47Z</time>
      </trkpt>
      <trkpt lat="43.85201" lon="7.16412">
        <ele>455</ele>
        <time>2021-09-20T11:44:52Z</time>
      </trkpt>
      <trkpt lat="43.85198" lon="7.16413">
        <ele>455</ele>
        <time>2021-09-20T11:44:53Z</time>
      </trkpt>
      <trkpt lat="43.85195" lon="7.16414">
        <ele>455</ele>
        <time>2021-09-20T11:44:58Z</time>
      </trkpt>
      <trkpt lat="43.85192" lon="7.16415">
        <ele>455</ele>
        <time>2021-09-20T11:50:17Z</time>
      </trkpt>
      <trkpt lat="43.85189" lon="7.16416">
        <ele>455</ele>
        <time>2021-09-20T11:50:22Z</time>
      </trkpt>
      <trkpt lat="43.85187" lon="7.16417">
        <ele>455</ele>
        <time>2021-09-20T11:50:24Z</time>
      </trkpt>
      <trkpt lat="43.85184" lon="7.16418">
        <ele>455</ele>
        <time>2021-09-20T11:50:26Z</time>
      </trkpt>
      <trkpt lat="43.85201" lon="7.16411">
        <ele>455</ele>
        <time>2021-09-20T11:50:30Z</time>
      </trkpt>
      <trkpt lat="43.85205" lon="7.1641">
        <ele>455</ele>
        <time>2021-09-20T11:50:35Z</time>
      </trkpt>
      <trkpt lat="43.85209" lon="7.16408">
        <ele>455</ele>
        <time>2021-09-20T11:50:36Z</time>
      </trkpt>
      <trkpt lat="43.85208" lon="7.16409">
        <ele>455</ele>
        <time>2021-09-20T11:50:41Z</time>
      </trkpt>
      <trkpt lat="43.85207" lon="7.16409">
        <ele>455</ele>
        <time>2021-09-20T11:50:42Z</time>
      </trkpt>
      <trkpt lat="43.85206" lon="7.1641">
        <ele>455</ele>
        <time>2021-09-20T11:50:47Z</time>
      </trkpt>
      <trkpt lat="43.85205" lon="7.1641">
        <ele>455</ele>
        <time>2021-09-20T11:50:49Z</time>
      </trkpt>
      <trkpt lat="43.85204" lon="7.16411">
        <ele>455</ele>
        <time>2021-09-20T11:50:54Z</time>
      </trkpt>
      <trkpt lat="43.85203" lon="7.16411">
        <ele>455</ele>
        <time>2021-09-20T11:50:55Z</time>
      </trkpt>
      <trkpt lat="43.85202" lon="7.16412">
        <ele>455</ele>
        <time>2021-09-20T11:51:00Z</time>
      </trkpt>
      <trkpt lat="43.85201" lon="7.16412">
        <ele>455</ele>
        <time>2021-09-20T11:51:01Z</time>
      </trkpt>
      <trkpt lat="43.85201" lon="7.16412">
        <ele>455</ele>
        <time>2021-09-20T11:51:08Z</time>
      </trkpt>
      <trkpt lat="43.85177" lon="7.16473">
        <ele>461.7</ele>
        <time>2021-09-20T11:55:31Z</time>
      </trkpt>
      <trkpt lat="43.85197" lon="7.16416">
        <ele>454.9</ele>
        <time>2021-09-20T11:55:49Z</time>
      </trkpt>
      <trkpt lat="43.85202" lon="7.16403">
        <ele>455.1</ele>
        <time>2021-09-20T11:55:56Z</time>
      </trkpt>
      <trkpt lat="43.85202" lon="7.16401">
        <ele>455.1</ele>
        <time>2021-09-20T11:56:01Z</time>
      </trkpt>
      <trkpt lat="43.85203" lon="7.16399">
        <ele>455</ele>
        <time>2021-09-20T11:56:02Z</time>
      </trkpt>
      <trkpt lat="43.85193" lon="7.1641">
        <ele>455</ele>
        <time>2021-09-20T11:56:09Z</time>
      </trkpt>
      <trkpt lat="43.85184" lon="7.1642">
        <ele>454.7</ele>
        <time>2021-09-20T11:56:15Z</time>
      </trkpt>
      <trkpt lat="43.85174" lon="7.16431">
        <ele>454.2</ele>
        <time>2021-09-20T11:56:27Z</time>
      </trkpt>
      <trkpt lat="43.85165" lon="7.16442">
        <ele>458.3</ele>
        <time>2021-09-20T11:56:29Z</time>
      </trkpt>
      <trkpt lat="43.85156" lon="7.16453">
        <ele>461.1</ele>
        <time>2021-09-20T11:56:30Z</time>
      </trkpt>
      <trkpt lat="43.85155" lon="7.16451">
        <ele>460.7</ele>
        <time>2021-09-20T11:56:32Z</time>
      </trkpt>
      <trkpt lat="43.85177" lon="7.16432">
        <ele>454.2</ele>
        <time>2021-09-20T11:56:52Z</time>
      </trkpt>
      <trkpt lat="43.85177" lon="7.16432">
        <ele>454.2</ele>
        <time>2021-09-20T11:57:04Z</time>
      </trkpt>
      <trkpt lat="43.85199" lon="7.16413">
        <ele>454.6</ele>
        <time>2021-09-20T11:57:05Z</time>
      </trkpt>
      <trkpt lat="43.85204" lon="7.16409">
        <ele>454.6</ele>
        <time>2021-09-20T11:57:11Z</time>
      </trkpt>
      <trkpt lat="43.85193" lon="7.16419">
        <ele>454.8</ele>
        <time>2021-09-20T11:57:17Z</time>
      </trkpt>
      <trkpt lat="43.85181" lon="7.1643">
        <ele>454.2</ele>
        <time>2021-09-20T11:57:24Z</time>
      </trkpt>
      <trkpt lat="43.8517" lon="7.16441">
        <ele>457.6</ele>
        <time>2021-09-20T11:57:30Z</time>
      </trkpt>
      <trkpt lat="43.85158" lon="7.16453">
        <ele>461.7</ele>
        <time>2021-09-20T11:57:32Z</time>
      </trkpt>
      <trkpt lat="43.85147" lon="7.16464">
        <ele>462.1</ele>
        <time>2021-09-20T11:57:33Z</time>
      </trkpt>
      <trkpt lat="43.85146" lon="7.16464">
        <ele>462.1</ele>
        <time>2021-09-20T11:57:35Z</time>
      </trkpt>
      <trkpt lat="43.85146" lon="7.16464">
        <ele>462.1</ele>
        <time>2021-09-20T11:57:36Z</time>
      </trkpt>
      <trkpt lat="43.85146" lon="7.16463">
        <ele>462.1</ele>
        <time>2021-09-20T11:57:38Z</time>
      </trkpt>
      <trkpt lat="43.85146" lon="7.16463">
        <ele>462.1</ele>
        <time>2021-09-20T11:57:40Z</time>
      </trkpt>
      <trkpt lat="43.85166" lon="7.16438">
        <ele>454.2</ele>
        <time>2021-09-20T11:58:31Z</time>
      </trkpt>
      <trkpt lat="43.85166" lon="7.16438">
        <ele>454.2</ele>
        <time>2021-09-20T11:58:36Z</time>
      </trkpt>
      <trkpt lat="43.85197" lon="7.16413">
        <ele>454.8</ele>
        <time>2021-09-20T11:58:44Z</time>
      </trkpt>
      <trkpt lat="43.85199" lon="7.16411">
        <ele>454.8</ele>
        <time>2021-09-20T11:58:49Z</time>
      </trkpt>
      <trkpt lat="43.85202" lon="7.1641">
        <ele>454.8</ele>
        <time>2021-09-20T11:58:50Z</time>
      </trkpt>
      <trkpt lat="43.85202" lon="7.1641">
        <ele>454.8</ele>
        <time>2021-09-20T11:58:55Z</time>
      </trkpt>
      <trkpt lat="43.85204" lon="7.16408">
        <ele>454.8</ele>
        <time>2021-09-20T11:58:56Z</time>
      </trkpt>
      <trkpt lat="43.85204" lon="7.16408">
        <ele>454.8</ele>
        <time>2021-09-20T11:59:01Z</time>
      </trkpt>
      <trkpt lat="43.85206" lon="7.16407">
        <ele>454.8</ele>
        <time>2021-09-20T11:59:02Z</time>
      </trkpt>
      <trkpt lat="43.85206" lon="7.16407">
        <ele>454.8</ele>
        <time>2021-09-20T11:59:07Z</time>
      </trkpt>
      <trkpt lat="43.85206" lon="7.16407">
        <ele>454.8</ele>
        <time>2021-09-20T11:59:09Z</time>
      </trkpt>
      <trkpt lat="43.85206" lon="7.16407">
        <ele>454.8</ele>
        <time>2021-09-20T11:59:14Z</time>
      </trkpt>
      <trkpt lat="43.85202" lon="7.1641">
        <ele>454.8</ele>
        <time>2021-09-20T11:59:15Z</time>
      </trkpt>
      <trkpt lat="43.85202" lon="7.1641">
        <ele>454.8</ele>
        <time>2021-09-20T11:59:20Z</time>
      </trkpt>
      <trkpt lat="43.85201" lon="7.16411">
        <ele>454.8</ele>
        <time>2021-09-20T11:59:21Z</time>
      </trkpt>
      <trkpt lat="43.85203" lon="7.16411">
        <ele>454.7</ele>
        <time>2021-09-20T11:59:26Z</time>
      </trkpt>
      <trkpt lat="43.85204" lon="7.16412">
        <ele>454.7</ele>
        <time>2021-09-20T12:00:17Z</time>
      </trkpt>
      <trkpt lat="43.85205" lon="7.16413">
        <ele>454.7</ele>
        <time>2021-09-20T12:00:23Z</time>
      </trkpt>
      <trkpt lat="43.85207" lon="7.16413">
        <ele>454.7</ele>
        <time>2021-09-20T12:00:24Z</time>
      </trkpt>
      <trkpt lat="43.85204" lon="7.16413">
        <ele>454.7</ele>
        <time>2021-09-20T12:00:29Z</time>
      </trkpt>
      <trkpt lat="43.85202" lon="7.16413">
        <ele>454.7</ele>
        <time>2021-09-20T12:00:35Z</time>
      </trkpt>
      <trkpt lat="43.852" lon="7.16413">
        <ele>454.7</ele>
        <time>2021-09-20T12:00:36Z</time>
      </trkpt>
      <trkpt lat="43.85198" lon="7.16424">
        <ele>454.7</ele>
        <time>2021-09-20T12:00:41Z</time>
      </trkpt>
      <trkpt lat="43.85196" lon="7.16436">
        <ele>454.6</ele>
        <time>2021-09-20T12:00:47Z</time>
      </trkpt>
      <trkpt lat="43.85193" lon="7.16447">
        <ele>454.6</ele>
        <time>2021-09-20T12:00:49Z</time>
      </trkpt>
      <trkpt lat="43.85191" lon="7.16459">
        <ele>454.6</ele>
        <time>2021-09-20T12:00:54Z</time>
      </trkpt>
      <trkpt lat="43.85189" lon="7.1647">
        <ele>454.6</ele>
        <time>2021-09-20T12:00:55Z</time>
      </trkpt>
      <trkpt lat="43.85186" lon="7.16482">
        <ele>454.5</ele>
        <time>2021-09-20T12:11:16Z</time>
      </trkpt>
      <trkpt lat="43.85184" lon="7.16493">
        <ele>454.5</ele>
        <time>2021-09-20T12:11:17Z</time>
      </trkpt>
      <trkpt lat="43.85186" lon="7.165">
        <ele>454.5</ele>
        <time>2021-09-20T12:11:19Z</time>
      </trkpt>
      <trkpt lat="43.85187" lon="7.16494">
        <ele>454.5</ele>
        <time>2021-09-20T12:11:20Z</time>
      </trkpt>
      <trkpt lat="43.85188" lon="7.16488">
        <ele>454.5</ele>
        <time>2021-09-20T12:11:22Z</time>
      </trkpt>
      <trkpt lat="43.85189" lon="7.16481">
        <ele>454.5</ele>
        <time>2021-09-20T12:11:23Z</time>
      </trkpt>
      <trkpt lat="43.85189" lon="7.16475">
        <ele>454.6</ele>
        <time>2021-09-20T12:11:26Z</time>
      </trkpt>
      <trkpt lat="43.8519" lon="7.16469">
        <ele>454.6</ele>
        <time>2021-09-20T12:11:32Z</time>
      </trkpt>
      <trkpt lat="43.85191" lon="7.16463">
        <ele>454.6</ele>
        <time>2021-09-20T12:11:37Z</time>
      </trkpt>
      <trkpt lat="43.85192" lon="7.16457">
        <ele>454.6</ele>
        <time>2021-09-20T12:11:39Z</time>
      </trkpt>
      <trkpt lat="43.85193" lon="7.16451">
        <ele>454.6</ele>
        <time>2021-09-20T12:11:41Z</time>
      </trkpt>
      <trkpt lat="43.85198" lon="7.16418">
        <ele>454.9</ele>
        <time>2021-09-20T12:11:45Z</time>
      </trkpt>
      <trkpt lat="43.85199" lon="7.16411">
        <ele>455</ele>
        <time>2021-09-20T12:11:50Z</time>
      </trkpt>
      <trkpt lat="43.852" lon="7.16403">
        <ele>455.1</ele>
        <time>2021-09-20T12:11:51Z</time>
      </trkpt>
      <trkpt lat="43.85201" lon="7.164">
        <ele>455.1</ele>
        <time>2021-09-20T12:11:56Z</time>
      </trkpt>
      <trkpt lat="43.85201" lon="7.16398">
        <ele>455</ele>
        <time>2021-09-20T12:11:57Z</time>
      </trkpt>
      <trkpt lat="43.85201" lon="7.16398">
        <ele>455</ele>
        <time>2021-09-20T12:12:02Z</time>
      </trkpt>
      <trkpt lat="43.85201" lon="7.16398">
        <ele>455</ele>
        <time>2021-09-20T12:12:03Z</time>
      </trkpt>
      <trkpt lat="43.85201" lon="7.16398">
        <ele>455</ele>
        <time>2021-09-20T12:12:08Z</time>
      </trkpt>
      <trkpt lat="43.852" lon="7.16402">
        <ele>455</ele>
        <time>2021-09-20T12:12:10Z</time>
      </trkpt>
      <trkpt lat="43.852" lon="7.16402">
        <ele>455</ele>
        <time>2021-09-20T12:12:15Z</time>
      </trkpt>
      <trkpt lat="43.852" lon="7.16406">
        <ele>455</ele>
        <time>2021-09-20T12:12:16Z</time>
      </trkpt>
      <trkpt lat="43.852" lon="7.16406">
        <ele>455</ele>
        <time>2021-09-20T12:12:21Z</time>
      </trkpt>
      <trkpt lat="43.85199" lon="7.16409">
        <ele>455</ele>
        <time>2021-09-20T12:12:22Z</time>
      </trkpt>
      <trkpt lat="43.85199" lon="7.16409">
        <ele>455</ele>
        <time>2021-09-20T12:12:27Z</time>
      </trkpt>
      <trkpt lat="43.85181" lon="7.16445">
        <ele>454.2</ele>
        <time>2021-09-20T12:22:11Z</time>
      </trkpt>
      <trkpt lat="43.85181" lon="7.16445">
        <ele>454.2</ele>
        <time>2021-09-20T12:22:16Z</time>
      </trkpt>
      <trkpt lat="43.85193" lon="7.16422">
        <ele>454.4</ele>
        <time>2021-09-20T12:22:17Z</time>
      </trkpt>
      <trkpt lat="43.85193" lon="7.16422">
        <ele>454.4</ele>
        <time>2021-09-20T12:22:22Z</time>
      </trkpt>
      <trkpt lat="43.85199" lon="7.16412">
        <ele>454.5</ele>
        <time>2021-09-20T12:22:28Z</time>
      </trkpt>
      <trkpt lat="43.85203" lon="7.16402">
        <ele>454.6</ele>
        <time>2021-09-20T12:22:30Z</time>
      </trkpt>
      <trkpt lat="43.85202" lon="7.16403">
        <ele>454.6</ele>
        <time>2021-09-20T12:22:35Z</time>
      </trkpt>
      <trkpt lat="43.85202" lon="7.16404">
        <ele>454.7</ele>
        <time>2021-09-20T12:22:42Z</time>
      </trkpt>
      <trkpt lat="43.85201" lon="7.16405">
        <ele>454.7</ele>
        <time>2021-09-20T12:22:47Z</time>
      </trkpt>
      <trkpt lat="43.852" lon="7.16406">
        <ele>454.7</ele>
        <time>2021-09-20T12:22:48Z</time>
      </trkpt>
      <trkpt lat="43.85199" lon="7.16407">
        <ele>454.7</ele>
        <time>2021-09-20T12:22:53Z</time>
      </trkpt>
      <trkpt lat="43.85198" lon="7.16408">
        <ele>454.7</ele>
        <time>2021-09-20T12:31:26Z</time>
      </trkpt>
      <trkpt lat="43.85197" lon="7.16409">
        <ele>454.7</ele>
        <time>2021-09-20T12:31:31Z</time>
      </trkpt>
      <trkpt lat="43.85197" lon="7.1641">
        <ele>454.7</ele>
        <time>2021-09-20T12:31:32Z</time>
      </trkpt>
      <trkpt lat="43.85197" lon="7.1641">
        <ele>454.7</ele>
        <time>2021-09-20T12:31:37Z</time>
      </trkpt>
      <trkpt lat="43.85197" lon="7.1641">
        <ele>454.7</ele>
        <time>2021-09-20T12:31:38Z</time>
      </trkpt>
      <trkpt lat="43.852" lon="7.16413">
        <ele>454.8</ele>
        <time>2021-09-20T12:31:43Z</time>
      </trkpt>
      <trkpt lat="43.85201" lon="7.16414">
        <ele>454.8</ele>
        <time>2021-09-20T12:31:45Z</time>
      </trkpt>
      <trkpt lat="43.85201" lon="7.16414">
        <ele>454.8</ele>
        <time>2021-09-20T12:31:50Z</time>
      </trkpt>
      <trkpt lat="43.85201" lon="7.16414">
        <ele>454.8</ele>
        <time>2021-09-20T12:31:51Z</time>
      </trkpt>
      <trkpt lat="43.85201" lon="7.16414">
        <ele>454.8</ele>
        <time>2021-09-20T12:31:56Z</time>
      </trkpt>
      <trkpt lat="43.852" lon="7.16414">
        <ele>454.8</ele>
        <time>2021-09-20T12:31:57Z</time>
      </trkpt>
      <trkpt lat="43.852" lon="7.16414">
        <ele>454.8</ele>
        <time>2021-09-20T12:32:02Z</time>
      </trkpt>
      <trkpt lat="43.852" lon="7.16414">
        <ele>454.8</ele>
        <time>2021-09-20T12:32:08Z</time>
      </trkpt>
      <trkpt lat="43.85186" lon="7.16449">
        <ele>454.9</ele>
        <time>2021-09-20T12:36:36Z</time>
      </trkpt>
      <trkpt lat="43.85184" lon="7.16459">
        <ele>455.3</ele>
        <time>2021-09-20T12:36:38Z</time>
      </trkpt>
      <trkpt lat="43.85181" lon="7.16459">
        <ele>455.4</ele>
        <time>2021-09-20T12:36:39Z</time>
      </trkpt>
      <trkpt lat="43.85177" lon="7.16457">
        <ele>455.6</ele>
        <time>2021-09-20T12:36:41Z</time>
      </trkpt>
      <trkpt lat="43.85175" lon="7.16455">
        <ele>455.8</ele>
        <time>2021-09-20T12:36:42Z</time>
      </trkpt>
      <trkpt lat="43.85171" lon="7.16452">
        <ele>456</ele>
        <time>2021-09-20T12:36:44Z</time>
      </trkpt>
      <trkpt lat="43.85169" lon="7.1645">
        <ele>456.1</ele>
        <time>2021-09-20T12:36:46Z</time>
      </trkpt>
      <trkpt lat="43.85168" lon="7.1645">
        <ele>456.2</ele>
        <time>2021-09-20T12:36:47Z</time>
      </trkpt>
      <trkpt lat="43.85168" lon="7.1645">
        <ele>456.2</ele>
        <time>2021-09-20T12:36:48Z</time>
      </trkpt>
      <trkpt lat="43.85165" lon="7.16449">
        <ele>456.4</ele>
        <time>2021-09-20T12:36:50Z</time>
      </trkpt>
      <trkpt lat="43.85158" lon="7.16449">
        <ele>456.7</ele>
        <time>2021-09-20T12:36:51Z</time>
      </trkpt>
      <trkpt lat="43.85154" lon="7.16448">
        <ele>456.9</ele>
        <time>2021-09-20T12:36:52Z</time>
      </trkpt>
      <trkpt lat="43.85152" lon="7.16448">
        <ele>457</ele>
        <time>2021-09-20T12:36:54Z</time>
      </trkpt>
      <trkpt lat="43.85151" lon="7.16448">
        <ele>457.1</ele>
        <time>2021-09-20T12:36:56Z</time>
      </trkpt>
      <trkpt lat="43.85151" lon="7.16448">
        <ele>457.1</ele>
        <time>2021-09-20T12:36:58Z</time>
      </trkpt>
      <trkpt lat="43.85151" lon="7.16448">
        <ele>457.1</ele>
        <time>2021-09-20T12:36:59Z</time>
      </trkpt>
      <trkpt lat="43.8516" lon="7.16453">
        <ele>457.6</ele>
        <time>2021-09-20T12:37:01Z</time>
      </trkpt>
      <trkpt lat="43.85163" lon="7.16455">
        <ele>457.7</ele>
        <time>2021-09-20T12:37:02Z</time>
      </trkpt>
      <trkpt lat="43.85166" lon="7.16457">
        <ele>458</ele>
        <time>2021-09-20T12:37:04Z</time>
      </trkpt>
      <trkpt lat="43.85167" lon="7.16458">
        <ele>458</ele>
        <time>2021-09-20T12:37:05Z</time>
      </trkpt>
      <trkpt lat="43.85167" lon="7.16457">
        <ele>458</ele>
        <time>2021-09-20T12:37:06Z</time>
      </trkpt>
      <trkpt lat="43.85166" lon="7.16457">
        <ele>458</ele>
        <time>2021-09-20T12:37:07Z</time>
      </trkpt>
      <trkpt lat="43.85166" lon="7.16456">
        <ele>458.1</ele>
        <time>2021-09-20T12:37:08Z</time>
      </trkpt>
      <trkpt lat="43.85166" lon="7.16456">
        <ele>458.1</ele>
        <time>2021-09-20T12:37:10Z</time>
      </trkpt>
      <trkpt lat="43.85166" lon="7.16456">
        <ele>458.1</ele>
        <time>2021-09-20T12:37:11Z</time>
      </trkpt>
      <trkpt lat="43.85165" lon="7.16455">
        <ele>458.1</ele>
        <time>2021-09-20T12:37:12Z</time>
      </trkpt>
      <trkpt lat="43.85165" lon="7.16455">
        <ele>458.1</ele>
        <time>2021-09-20T12:37:13Z</time>
      </trkpt>
      <trkpt lat="43.85165" lon="7.16454">
        <ele>458.2</ele>
        <time>2021-09-20T12:37:14Z</time>
      </trkpt>
      <trkpt lat="43.85165" lon="7.16454">
        <ele>458.2</ele>
        <time>2021-09-20T12:37:16Z</time>
      </trkpt>
      <trkpt lat="43.85165" lon="7.16453">
        <ele>458.2</ele>
        <time>2021-09-20T12:37:17Z</time>
      </trkpt>
      <trkpt lat="43.85164" lon="7.16453">
        <ele>458.2</ele>
        <time>2021-09-20T12:37:19Z</time>
      </trkpt>
      <trkpt lat="43.85164" lon="7.16452">
        <ele>458.2</ele>
        <time>2021-09-20T12:37:21Z</time>
      </trkpt>
      <trkpt lat="43.85164" lon="7.16452">
        <ele>458.3</ele>
        <time>2021-09-20T12:37:23Z</time>
      </trkpt>
      <trkpt lat="43.85164" lon="7.16452">
        <ele>458.3</ele>
        <time>2021-09-20T12:37:24Z</time>
      </trkpt>
      <trkpt lat="43.85165" lon="7.16454">
        <ele>458.4</ele>
        <time>2021-09-20T12:37:25Z</time>
      </trkpt>
      <trkpt lat="43.85165" lon="7.16454">
        <ele>458.4</ele>
        <time>2021-09-20T12:37:26Z</time>
      </trkpt>
      <trkpt lat="43.85166" lon="7.16452">
        <ele>458.5</ele>
        <time>2021-09-20T12:37:28Z</time>
      </trkpt>
      <trkpt lat="43.85168" lon="7.1645">
        <ele>458.6</ele>
        <time>2021-09-20T12:37:30Z</time>
      </trkpt>
      <trkpt lat="43.85171" lon="7.16449">
        <ele>458.7</ele>
        <time>2021-09-20T12:37:31Z</time>
      </trkpt>
      <trkpt lat="43.85173" lon="7.16446">
        <ele>457.6</ele>
        <time>2021-09-20T12:37:32Z</time>
      </trkpt>
      <trkpt lat="43.85177" lon="7.16443">
        <ele>455.8</ele>
        <time>2021-09-20T12:37:34Z</time>
      </trkpt>
      <trkpt lat="43.85182" lon="7.16442">
        <ele>454.2</ele>
        <time>2021-09-20T12:37:36Z</time>
      </trkpt>
      <trkpt lat="43.85186" lon="7.1644">
        <ele>454.3</ele>
        <time>2021-09-20T12:37:37Z</time>
      </trkpt>
      <trkpt lat="43.8519" lon="7.16438">
        <ele>454.5</ele>
        <time>2021-09-20T12:37:39Z</time>
      </trkpt>
      <trkpt lat="43.85194" lon="7.16433">
        <ele>454.8</ele>
        <time>2021-09-20T12:37:41Z</time>
      </trkpt>
      <trkpt lat="43.85195" lon="7.1643">
        <ele>454.9</ele>
        <time>2021-09-20T12:37:42Z</time>
      </trkpt>
      <trkpt lat="43.85196" lon="7.16425">
        <ele>454.9</ele>
        <time>2021-09-20T12:37:44Z</time>
      </trkpt>
      <trkpt lat="43.85194" lon="7.16421">
        <ele>455</ele>
        <time>2021-09-20T12:37:45Z</time>
      </trkpt>
      <trkpt lat="43.85191" lon="7.16417">
        <ele>455.1</ele>
        <time>2021-09-20T12:37:46Z</time>
      </trkpt>
      <trkpt lat="43.85188" lon="7.16413">
        <ele>455.2</ele>
        <time>2021-09-20T12:37:47Z</time>
      </trkpt>
      <trkpt lat="43.85187" lon="7.1641">
        <ele>455.2</ele>
        <time>2021-09-20T12:37:49Z</time>
      </trkpt>
      <trkpt lat="43.85186" lon="7.16409">
        <ele>455.3</ele>
        <time>2021-09-20T12:37:50Z</time>
      </trkpt>
      <trkpt lat="43.85186" lon="7.16405">
        <ele>455.3</ele>
        <time>2021-09-20T12:37:51Z</time>
      </trkpt>
      <trkpt lat="43.85185" lon="7.164">
        <ele>455.4</ele>
        <time>2021-09-20T12:37:53Z</time>
      </trkpt>
      <trkpt lat="43.85184" lon="7.16399">
        <ele>455.4</ele>
        <time>2021-09-20T12:37:54Z</time>
      </trkpt>
      <trkpt lat="43.85183" lon="7.16395">
        <ele>455.5</ele>
        <time>2021-09-20T12:37:56Z</time>
      </trkpt>
      <trkpt lat="43.85182" lon="7.16392">
        <ele>455.5</ele>
        <time>2021-09-20T12:37:57Z</time>
      </trkpt>
      <trkpt lat="43.85152" lon="7.16351">
        <ele>456.7</ele>
        <time>2021-09-20T12:38:18Z</time>
      </trkpt>
      <trkpt lat="43.85147" lon="7.16352">
        <ele>456.8</ele>
        <time>2021-09-20T12:38:19Z</time>
      </trkpt>
      <trkpt lat="43.85141" lon="7.16355">
        <ele>456.9</ele>
        <time>2021-09-20T12:38:20Z</time>
      </trkpt>
      <trkpt lat="43.85138" lon="7.16358">
        <ele>456.9</ele>
        <time>2021-09-20T12:38:22Z</time>
      </trkpt>
      <trkpt lat="43.85136" lon="7.1636">
        <ele>456.9</ele>
        <time>2021-09-20T12:38:23Z</time>
      </trkpt>
      <trkpt lat="43.85134" lon="7.16361">
        <ele>457</ele>
        <time>2021-09-20T12:38:24Z</time>
      </trkpt>
      <trkpt lat="43.85132" lon="7.16362">
        <ele>457</ele>
        <time>2021-09-20T12:38:25Z</time>
      </trkpt>
      <trkpt lat="43.85131" lon="7.16364">
        <ele>457</ele>
        <time>2021-09-20T12:38:26Z</time>
      </trkpt>
      <trkpt lat="43.85128" lon="7.16365">
        <ele>457.1</ele>
        <time>2021-09-20T12:38:28Z</time>
      </trkpt>
      <trkpt lat="43.85125" lon="7.16367">
        <ele>457.2</ele>
        <time>2021-09-20T12:38:29Z</time>
      </trkpt>
      <trkpt lat="43.8512" lon="7.16368">
        <ele>457.3</ele>
        <time>2021-09-20T12:38:31Z</time>
      </trkpt>
      <trkpt lat="43.85072" lon="7.1638">
        <ele>458.7</ele>
        <time>2021-09-20T12:38:47Z</time>
      </trkpt>
      <trkpt lat="43.85072" lon="7.16381">
        <ele>458.7</ele>
        <time>2021-09-20T12:38:48Z</time>
      </trkpt>
      <trkpt lat="43.85071" lon="7.16382">
        <ele>458.7</ele>
        <time>2021-09-20T12:38:49Z</time>
      </trkpt>
      <trkpt lat="43.8507" lon="7.16383">
        <ele>458.7</ele>
        <time>2021-09-20T12:38:51Z</time>
      </trkpt>
      <trkpt lat="43.85068" lon="7.16384">
        <ele>458.8</ele>
        <time>2021-09-20T12:38:53Z</time>
      </trkpt>
      <trkpt lat="43.85067" lon="7.16385">
        <ele>458.8</ele>
        <time>2021-09-20T12:38:54Z</time>
      </trkpt>
      <trkpt lat="43.85066" lon="7.16386">
        <ele>458.8</ele>
        <time>2021-09-20T12:38:56Z</time>
      </trkpt>
      <trkpt lat="43.85065" lon="7.16386">
        <ele>458.9</ele>
        <time>2021-09-20T12:38:57Z</time>
      </trkpt>
      <trkpt lat="43.85063" lon="7.16385">
        <ele>458.9</ele>
        <time>2021-09-20T12:38:58Z</time>
      </trkpt>
      <trkpt lat="43.85062" lon="7.16384">
        <ele>458.9</ele>
        <time>2021-09-20T12:38:59Z</time>
      </trkpt>
      <trkpt lat="43.8506" lon="7.16384">
        <ele>458.9</ele>
        <time>2021-09-20T12:39:00Z</time>
      </trkpt>
      <trkpt lat="43.85049" lon="7.16379">
        <ele>459</ele>
        <time>2021-09-20T12:39:01Z</time>
      </trkpt>
      <trkpt lat="43.85039" lon="7.16372">
        <ele>459.1</ele>
        <time>2021-09-20T12:39:02Z</time>
      </trkpt>
      <trkpt lat="43.85029" lon="7.16366">
        <ele>459.2</ele>
        <time>2021-09-20T12:39:03Z</time>
      </trkpt>
      <trkpt lat="43.85019" lon="7.1636">
        <ele>459.3</ele>
        <time>2021-09-20T12:39:05Z</time>
      </trkpt>
      <trkpt lat="43.85013" lon="7.16359">
        <ele>459.4</ele>
        <time>2021-09-20T12:39:06Z</time>
      </trkpt>
      <trkpt lat="43.85008" lon="7.16361">
        <ele>459.4</ele>
        <time>2021-09-20T12:39:07Z</time>
      </trkpt>
      <trkpt lat="43.85004" lon="7.16366">
        <ele>459.4</ele>
        <time>2021-09-20T12:39:09Z</time>
      </trkpt>
      <trkpt lat="43.84997" lon="7.1637">
        <ele>459.3</ele>
        <time>2021-09-20T12:39:11Z</time>
      </trkpt>
      <trkpt lat="43.84995" lon="7.16374">
        <ele>459.3</ele>
        <time>2021-09-20T12:39:12Z</time>
      </trkpt>
      <trkpt lat="43.84993" lon="7.16379">
        <ele>459.3</ele>
        <time>2021-09-20T12:39:13Z</time>
      </trkpt>
      <trkpt lat="43.84991" lon="7.16384">
        <ele>459.2</ele>
        <time>2021-09-20T12:39:14Z</time>
      </trkpt>
      <trkpt lat="43.8499" lon="7.16389">
        <ele>459.2</ele>
        <time>2021-09-20T12:39:15Z</time>
      </trkpt>
      <trkpt lat="43.84974" lon="7.16368">
        <ele>459.2</ele>
        <time>2021-09-20T12:39:17Z</time>
      </trkpt>
      <trkpt lat="43.84965" lon="7.16359">
        <ele>459.3</ele>
        <time>2021-09-20T12:39:19Z</time>
      </trkpt>
      <trkpt lat="43.84959" lon="7.16355">
        <ele>459.4</ele>
        <time>2021-09-20T12:39:21Z</time>
      </trkpt>
      <trkpt lat="43.84955" lon="7.16355">
        <ele>459.4</ele>
        <time>2021-09-20T12:39:22Z</time>
      </trkpt>
      <trkpt lat="43.84951" lon="7.16354">
        <ele>459.5</ele>
        <time>2021-09-20T12:39:23Z</time>
      </trkpt>
      <trkpt lat="43.84948" lon="7.16354">
        <ele>459.5</ele>
        <time>2021-09-20T12:39:24Z</time>
      </trkpt>
      <trkpt lat="43.84942" lon="7.16357">
        <ele>459.5</ele>
        <time>2021-09-20T12:39:26Z</time>
      </trkpt>
      <trkpt lat="43.8494" lon="7.16366">
        <ele>459.5</ele>
        <time>2021-09-20T12:39:28Z</time>
      </trkpt>
      <trkpt lat="43.84943" lon="7.16369">
        <ele>459.6</ele>
        <time>2021-09-20T12:39:29Z</time>
      </trkpt>
      <trkpt lat="43.84947" lon="7.1637">
        <ele>459.5</ele>
        <time>2021-09-20T12:39:30Z</time>
      </trkpt>
      <trkpt lat="43.84952" lon="7.16371">
        <ele>459.5</ele>
        <time>2021-09-20T12:39:32Z</time>
      </trkpt>
      <trkpt lat="43.84957" lon="7.16373">
        <ele>459.5</ele>
        <time>2021-09-20T12:39:34Z</time>
      </trkpt>
      <trkpt lat="43.84959" lon="7.16372">
        <ele>459.5</ele>
        <time>2021-09-20T12:39:35Z</time>
      </trkpt>
      <trkpt lat="43.84959" lon="7.16371">
        <ele>459.4</ele>
        <time>2021-09-20T12:39:37Z</time>
      </trkpt>
      <trkpt lat="43.8496" lon="7.1637">
        <ele>459.4</ele>
        <time>2021-09-20T12:39:39Z</time>
      </trkpt>
      <trkpt lat="43.84961" lon="7.16368">
        <ele>459.4</ele>
        <time>2021-09-20T12:40:05Z</time>
      </trkpt>
      <trkpt lat="43.84961" lon="7.16367">
        <ele>459.4</ele>
        <time>2021-09-20T12:40:06Z</time>
      </trkpt>
      <trkpt lat="43.84966" lon="7.16363">
        <ele>459.3</ele>
        <time>2021-09-20T12:40:08Z</time>
      </trkpt>
      <trkpt lat="43.84971" lon="7.16359">
        <ele>459.2</ele>
        <time>2021-09-20T12:40:09Z</time>
      </trkpt>
      <trkpt lat="43.84974" lon="7.16357">
        <ele>459.2</ele>
        <time>2021-09-20T12:40:10Z</time>
      </trkpt>
      <trkpt lat="43.84977" lon="7.16355">
        <ele>459.2</ele>
        <time>2021-09-20T12:40:11Z</time>
      </trkpt>
      <trkpt lat="43.84983" lon="7.16354">
        <ele>459.2</ele>
        <time>2021-09-20T12:40:13Z</time>
      </trkpt>
      <trkpt lat="43.84986" lon="7.16351">
        <ele>459.5</ele>
        <time>2021-09-20T12:40:14Z</time>
      </trkpt>
      <trkpt lat="43.84991" lon="7.16347">
        <ele>463.7</ele>
        <time>2021-09-20T12:40:15Z</time>
      </trkpt>
      <trkpt lat="43.84994" lon="7.16343">
        <ele>466.3</ele>
        <time>2021-09-20T12:40:16Z</time>
      </trkpt>
      <trkpt lat="43.84995" lon="7.16338">
        <ele>469.2</ele>
        <time>2021-09-20T12:40:18Z</time>
      </trkpt>
      <trkpt lat="43.84997" lon="7.16333">
        <ele>469.9</ele>
        <time>2021-09-20T12:40:20Z</time>
      </trkpt>
      <trkpt lat="43.84999" lon="7.16326">
        <ele>467.6</ele>
        <time>2021-09-20T12:40:21Z</time>
      </trkpt>
      <trkpt lat="43.85003" lon="7.16318">
        <ele>466.2</ele>
        <time>2021-09-20T12:40:23Z</time>
      </trkpt>
      <trkpt lat="43.85006" lon="7.16316">
        <ele>465.5</ele>
        <time>2021-09-20T12:40:25Z</time>
      </trkpt>
      <trkpt lat="43.85006" lon="7.16315">
        <ele>465.3</ele>
        <time>2021-09-20T12:40:26Z</time>
      </trkpt>
      <trkpt lat="43.85008" lon="7.16315">
        <ele>464.9</ele>
        <time>2021-09-20T12:40:27Z</time>
      </trkpt>
      <trkpt lat="43.85012" lon="7.16317">
        <ele>464</ele>
        <time>2021-09-20T12:40:29Z</time>
      </trkpt>
      <trkpt lat="43.85012" lon="7.16317">
        <ele>464</ele>
        <time>2021-09-20T12:40:29Z</time>
      </trkpt>
      <trkpt lat="43.85015" lon="7.16317">
        <ele>463.3</ele>
        <time>2021-09-20T12:40:30Z</time>
      </trkpt>
      <trkpt lat="43.85016" lon="7.16318">
        <ele>463.1</ele>
        <time>2021-09-20T12:40:31Z</time>
      </trkpt>
      <trkpt lat="43.85017" lon="7.16318">
        <ele>462.9</ele>
        <time>2021-09-20T12:40:32Z</time>
      </trkpt>
      <trkpt lat="43.8502" lon="7.16321">
        <ele>462.1</ele>
        <time>2021-09-20T12:40:34Z</time>
      </trkpt>
      <trkpt lat="43.85021" lon="7.16323">
        <ele>461.7</ele>
        <time>2021-09-20T12:40:35Z</time>
      </trkpt>
      <trkpt lat="43.85021" lon="7.16325">
        <ele>461.4</ele>
        <time>2021-09-20T12:40:37Z</time>
      </trkpt>
      <trkpt lat="43.85023" lon="7.16329">
        <ele>460.6</ele>
        <time>2021-09-20T12:40:39Z</time>
      </trkpt>
      <trkpt lat="43.8503" lon="7.16347">
        <ele>457.4</ele>
        <time>2021-09-20T12:40:40Z</time>
      </trkpt>
      <trkpt lat="43.85037" lon="7.16358">
        <ele>457.4</ele>
        <time>2021-09-20T12:40:41Z</time>
      </trkpt>
      <trkpt lat="43.85039" lon="7.16362">
        <ele>457.6</ele>
        <time>2021-09-20T12:40:42Z</time>
      </trkpt>
      <trkpt lat="43.85043" lon="7.16368">
        <ele>457.9</ele>
        <time>2021-09-20T12:40:43Z</time>
      </trkpt>
      <trkpt lat="43.85045" lon="7.16371">
        <ele>458.1</ele>
        <time>2021-09-20T12:40:44Z</time>
      </trkpt>
      <trkpt lat="43.85049" lon="7.16376">
        <ele>458.3</ele>
        <time>2021-09-20T12:40:46Z</time>
      </trkpt>
      <trkpt lat="43.851" lon="7.16359">
        <ele>457.4</ele>
        <time>2021-09-20T12:41:11Z</time>
      </trkpt>
      <trkpt lat="43.85094" lon="7.16352">
        <ele>457.8</ele>
        <time>2021-09-20T12:41:12Z</time>
      </trkpt>
      <trkpt lat="43.85083" lon="7.16345">
        <ele>458.3</ele>
        <time>2021-09-20T12:41:14Z</time>
      </trkpt>
      <trkpt lat="43.85075" lon="7.16339">
        <ele>458.7</ele>
        <time>2021-09-20T12:41:16Z</time>
      </trkpt>
      <trkpt lat="43.85071" lon="7.16337">
        <ele>458.4</ele>
        <time>2021-09-20T12:41:17Z</time>
      </trkpt>
      <trkpt lat="43.85067" lon="7.16334">
        <ele>457.9</ele>
        <time>2021-09-20T12:41:18Z</time>
      </trkpt>
      <trkpt lat="43.85066" lon="7.16333">
        <ele>457.6</ele>
        <time>2021-09-20T12:41:19Z</time>
      </trkpt>
      <trkpt lat="43.85064" lon="7.16327">
        <ele>457</ele>
        <time>2021-09-20T12:41:20Z</time>
      </trkpt>
      <trkpt lat="43.85064" lon="7.16322">
        <ele>456.4</ele>
        <time>2021-09-20T12:41:22Z</time>
      </trkpt>
      <trkpt lat="43.85065" lon="7.16318">
        <ele>456</ele>
        <time>2021-09-20T12:41:24Z</time>
      </trkpt>
      <trkpt lat="43.85065" lon="7.16315">
        <ele>455.7</ele>
        <time>2021-09-20T12:41:25Z</time>
      </trkpt>
      <trkpt lat="43.85066" lon="7.16311">
        <ele>455.3</ele>
        <time>2021-09-20T12:41:27Z</time>
      </trkpt>
      <trkpt lat="43.85067" lon="7.16306">
        <ele>454.7</ele>
        <time>2021-09-20T12:41:29Z</time>
      </trkpt>
      <trkpt lat="43.85067" lon="7.16301">
        <ele>454.2</ele>
        <time>2021-09-20T12:41:30Z</time>
      </trkpt>
      <trkpt lat="43.85067" lon="7.163">
        <ele>454.3</ele>
        <time>2021-09-20T12:41:31Z</time>
      </trkpt>
      <trkpt lat="43.85066" lon="7.16294">
        <ele>454.7</ele>
        <time>2021-09-20T12:41:33Z</time>
      </trkpt>
      <trkpt lat="43.85063" lon="7.16288">
        <ele>455.1</ele>
        <time>2021-09-20T12:41:35Z</time>
      </trkpt>
      <trkpt lat="43.8506" lon="7.16287">
        <ele>455.3</ele>
        <time>2021-09-20T12:41:37Z</time>
      </trkpt>
      <trkpt lat="43.85059" lon="7.1629">
        <ele>455.5</ele>
        <time>2021-09-20T12:41:38Z</time>
      </trkpt>
      <trkpt lat="43.85058" lon="7.16297">
        <ele>455.9</ele>
        <time>2021-09-20T12:41:40Z</time>
      </trkpt>
      <trkpt lat="43.85058" lon="7.163">
        <ele>456.1</ele>
        <time>2021-09-20T12:41:41Z</time>
      </trkpt>
      <trkpt lat="43.85058" lon="7.16305">
        <ele>456.4</ele>
        <time>2021-09-20T12:41:43Z</time>
      </trkpt>
      <trkpt lat="43.85057" lon="7.16307">
        <ele>456.5</ele>
        <time>2021-09-20T12:41:44Z</time>
      </trkpt>
      <trkpt lat="43.85056" lon="7.16308">
        <ele>456.6</ele>
        <time>2021-09-20T12:41:45Z</time>
      </trkpt>
      <trkpt lat="43.85057" lon="7.16311">
        <ele>456.8</ele>
        <time>2021-09-20T12:41:46Z</time>
      </trkpt>
      <trkpt lat="43.85058" lon="7.16316">
        <ele>457.1</ele>
        <time>2021-09-20T12:41:48Z</time>
      </trkpt>
      <trkpt lat="43.85058" lon="7.16319">
        <ele>457.3</ele>
        <time>2021-09-20T12:41:49Z</time>
      </trkpt>
      <trkpt lat="43.85061" lon="7.16325">
        <ele>457.6</ele>
        <time>2021-09-20T12:41:51Z</time>
      </trkpt>
      <trkpt lat="43.85064" lon="7.16328">
        <ele>457.9</ele>
        <time>2021-09-20T12:41:52Z</time>
      </trkpt>
      <trkpt lat="43.85067" lon="7.1633">
        <ele>458.1</ele>
        <time>2021-09-20T12:41:54Z</time>
      </trkpt>
      <trkpt lat="43.85073" lon="7.16329">
        <ele>458.6</ele>
        <time>2021-09-20T12:41:56Z</time>
      </trkpt>
      <trkpt lat="43.85077" lon="7.16329">
        <ele>458.7</ele>
        <time>2021-09-20T12:41:58Z</time>
      </trkpt>
      <trkpt lat="43.85079" lon="7.16329">
        <ele>458.7</ele>
        <time>2021-09-20T12:41:59Z</time>
      </trkpt>
      <trkpt lat="43.85084" lon="7.16329">
        <ele>458.5</ele>
        <time>2021-09-20T12:42:01Z</time>
      </trkpt>
      <trkpt lat="43.85087" lon="7.16329">
        <ele>458.4</ele>
        <time>2021-09-20T12:42:02Z</time>
      </trkpt>
      <trkpt lat="43.85091" lon="7.16328">
        <ele>458.2</ele>
        <time>2021-09-20T12:42:03Z</time>
      </trkpt>
      <trkpt lat="43.85092" lon="7.1633">
        <ele>458.1</ele>
        <time>2021-09-20T12:42:04Z</time>
      </trkpt>
      <trkpt lat="43.85094" lon="7.16338">
        <ele>457.9</ele>
        <time>2021-09-20T12:42:06Z</time>
      </trkpt>
      <trkpt lat="43.85095" lon="7.16342">
        <ele>457.8</ele>
        <time>2021-09-20T12:42:07Z</time>
      </trkpt>
      <trkpt lat="43.85096" lon="7.16347">
        <ele>457.7</ele>
        <time>2021-09-20T12:42:09Z</time>
      </trkpt>
      <trkpt lat="43.85098" lon="7.16353">
        <ele>457.5</ele>
        <time>2021-09-20T12:42:11Z</time>
      </trkpt>
      <trkpt lat="43.85101" lon="7.16355">
        <ele>457.4</ele>
        <time>2021-09-20T12:42:12Z</time>
      </trkpt>
      <trkpt lat="43.85102" lon="7.16356">
        <ele>457.3</ele>
        <time>2021-09-20T12:42:13Z</time>
      </trkpt>
      <trkpt lat="43.85213" lon="7.16241">
        <ele>414.8</ele>
        <time>2021-09-20T12:45:15Z</time>
      </trkpt>
      <trkpt lat="43.85217" lon="7.1624">
        <ele>414.2</ele>
        <time>2021-09-20T12:45:16Z</time>
      </trkpt>
      <trkpt lat="43.85221" lon="7.16237">
        <ele>413.5</ele>
        <time>2021-09-20T12:45:18Z</time>
      </trkpt>
      <trkpt lat="43.85224" lon="7.16233">
        <ele>413</ele>
        <time>2021-09-20T12:45:19Z</time>
      </trkpt>
      <trkpt lat="43.85227" lon="7.16227">
        <ele>412.1</ele>
        <time>2021-09-20T12:45:20Z</time>
      </trkpt>
      <trkpt lat="43.85229" lon="7.16223">
        <ele>411.3</ele>
        <time>2021-09-20T12:45:21Z</time>
      </trkpt>
      <trkpt lat="43.8523" lon="7.16221">
        <ele>410.9</ele>
        <time>2021-09-20T12:45:22Z</time>
      </trkpt>
      <trkpt lat="43.85229" lon="7.16221">
        <ele>410.8</ele>
        <time>2021-09-20T12:45:23Z</time>
      </trkpt>
      <trkpt lat="43.8523" lon="7.16223">
        <ele>410.5</ele>
        <time>2021-09-20T12:45:25Z</time>
      </trkpt>
      <trkpt lat="43.8523" lon="7.16223">
        <ele>410.4</ele>
        <time>2021-09-20T12:45:26Z</time>
      </trkpt>
      <trkpt lat="43.8523" lon="7.16222">
        <ele>410.3</ele>
        <time>2021-09-20T12:45:27Z</time>
      </trkpt>
      <trkpt lat="43.8523" lon="7.16222">
        <ele>410.2</ele>
        <time>2021-09-20T12:45:29Z</time>
      </trkpt>
      <trkpt lat="43.85229" lon="7.16221">
        <ele>410</ele>
        <time>2021-09-20T12:45:30Z</time>
      </trkpt>
      <trkpt lat="43.85227" lon="7.1622">
        <ele>409.6</ele>
        <time>2021-09-20T12:45:31Z</time>
      </trkpt>
      <trkpt lat="43.85225" lon="7.16219">
        <ele>409.1</ele>
        <time>2021-09-20T12:45:33Z</time>
      </trkpt>
      <trkpt lat="43.85246" lon="7.16156">
        <ele>400.4</ele>
        <time>2021-09-20T12:46:43Z</time>
      </trkpt>
      <trkpt lat="43.85252" lon="7.16152">
        <ele>400.1</ele>
        <time>2021-09-20T12:46:45Z</time>
      </trkpt>
      <trkpt lat="43.85258" lon="7.16149">
        <ele>400</ele>
        <time>2021-09-20T12:46:47Z</time>
      </trkpt>
      <trkpt lat="43.85262" lon="7.16147">
        <ele>400</ele>
        <time>2021-09-20T12:46:49Z</time>
      </trkpt>
      <trkpt lat="43.85262" lon="7.16145">
        <ele>400.1</ele>
        <time>2021-09-20T12:46:51Z</time>
      </trkpt>
      <trkpt lat="43.8526" lon="7.16145">
        <ele>400.1</ele>
        <time>2021-09-20T12:46:52Z</time>
      </trkpt>
      <trkpt lat="43.85259" lon="7.16145">
        <ele>400.1</ele>
        <time>2021-09-20T12:46:53Z</time>
      </trkpt>
      <trkpt lat="43.85259" lon="7.16136">
        <ele>400.3</ele>
        <time>2021-09-20T12:46:54Z</time>
      </trkpt>
      <trkpt lat="43.85259" lon="7.16127">
        <ele>400.7</ele>
        <time>2021-09-20T12:46:56Z</time>
      </trkpt>
      <trkpt lat="43.8526" lon="7.16118">
        <ele>401.1</ele>
        <time>2021-09-20T12:46:58Z</time>
      </trkpt>
      <trkpt lat="43.8526" lon="7.16109">
        <ele>401.6</ele>
        <time>2021-09-20T12:47:00Z</time>
      </trkpt>
      <trkpt lat="43.8526" lon="7.161">
        <ele>401.9</ele>
        <time>2021-09-20T12:47:39Z</time>
      </trkpt>
      <trkpt lat="43.85261" lon="7.16091">
        <ele>402</ele>
        <time>2021-09-20T12:47:40Z</time>
      </trkpt>
      <trkpt lat="43.85257" lon="7.16085">
        <ele>402</ele>
        <time>2021-09-20T12:47:41Z</time>
      </trkpt>
      <trkpt lat="43.85256" lon="7.16075">
        <ele>401.5</ele>
        <time>2021-09-20T12:47:43Z</time>
      </trkpt>
      <trkpt lat="43.85255" lon="7.16071">
        <ele>401.2</ele>
        <time>2021-09-20T12:47:44Z</time>
      </trkpt>
      <trkpt lat="43.85252" lon="7.16065">
        <ele>400.6</ele>
        <time>2021-09-20T12:47:45Z</time>
      </trkpt>
      <trkpt lat="43.85247" lon="7.16061">
        <ele>399.9</ele>
        <time>2021-09-20T12:47:47Z</time>
      </trkpt>
      <trkpt lat="43.85243" lon="7.16056">
        <ele>399.3</ele>
        <time>2021-09-20T12:47:48Z</time>
      </trkpt>
      <trkpt lat="43.85239" lon="7.16052">
        <ele>398.8</ele>
        <time>2021-09-20T12:47:50Z</time>
      </trkpt>
      <trkpt lat="43.85236" lon="7.16049">
        <ele>398.4</ele>
        <time>2021-09-20T12:47:51Z</time>
      </trkpt>
      <trkpt lat="43.85233" lon="7.16045">
        <ele>397.9</ele>
        <time>2021-09-20T12:47:53Z</time>
      </trkpt>
      <trkpt lat="43.85232" lon="7.16041">
        <ele>397.6</ele>
        <time>2021-09-20T12:47:54Z</time>
      </trkpt>
      <trkpt lat="43.85231" lon="7.16037">
        <ele>397.2</ele>
        <time>2021-09-20T12:47:55Z</time>
      </trkpt>
      <trkpt lat="43.8523" lon="7.1603">
        <ele>396.5</ele>
        <time>2021-09-20T12:47:57Z</time>
      </trkpt>
      <trkpt lat="43.85229" lon="7.16028">
        <ele>396.3</ele>
        <time>2021-09-20T12:47:58Z</time>
      </trkpt>
      <trkpt lat="43.85228" lon="7.16028">
        <ele>396.1</ele>
        <time>2021-09-20T12:47:59Z</time>
      </trkpt>
      <trkpt lat="43.85228" lon="7.16027">
        <ele>396</ele>
        <time>2021-09-20T12:48:01Z</time>
      </trkpt>
      <trkpt lat="43.85228" lon="7.16026">
        <ele>395.9</ele>
        <time>2021-09-20T12:48:02Z</time>
      </trkpt>
      <trkpt lat="43.85229" lon="7.16025">
        <ele>395.8</ele>
        <time>2021-09-20T12:48:04Z</time>
      </trkpt>
      <trkpt lat="43.85229" lon="7.16024">
        <ele>395.6</ele>
        <time>2021-09-20T12:48:05Z</time>
      </trkpt>
      <trkpt lat="43.8523" lon="7.16022">
        <ele>395.4</ele>
        <time>2021-09-20T12:48:07Z</time>
      </trkpt>
      <trkpt lat="43.8524" lon="7.16007">
        <ele>392.4</ele>
        <time>2021-09-20T12:48:16Z</time>
      </trkpt>
      <trkpt lat="43.85244" lon="7.15999">
        <ele>390.9</ele>
        <time>2021-09-20T12:48:18Z</time>
      </trkpt>
      <trkpt lat="43.85251" lon="7.15988">
        <ele>389</ele>
        <time>2021-09-20T12:48:20Z</time>
      </trkpt>
      <trkpt lat="43.85254" lon="7.1598">
        <ele>387.9</ele>
        <time>2021-09-20T12:48:21Z</time>
      </trkpt>
      <trkpt lat="43.85256" lon="7.15974">
        <ele>387.1</ele>
        <time>2021-09-20T12:48:22Z</time>
      </trkpt>
      <trkpt lat="43.85258" lon="7.15968">
        <ele>386.2</ele>
        <time>2021-09-20T12:48:23Z</time>
      </trkpt>
      <trkpt lat="43.8526" lon="7.15964">
        <ele>385.6</ele>
        <time>2021-09-20T12:48:24Z</time>
      </trkpt>
      <trkpt lat="43.85262" lon="7.15957">
        <ele>384.5</ele>
        <time>2021-09-20T12:48:26Z</time>
      </trkpt>
      <trkpt lat="43.85264" lon="7.15952">
        <ele>383.6</ele>
        <time>2021-09-20T12:48:27Z</time>
      </trkpt>
      <trkpt lat="43.85266" lon="7.15943">
        <ele>382.2</ele>
        <time>2021-09-20T12:48:29Z</time>
      </trkpt>
      <trkpt lat="43.85267" lon="7.15936">
        <ele>381.2</ele>
        <time>2021-09-20T12:48:30Z</time>
      </trkpt>
      <trkpt lat="43.85268" lon="7.15933">
        <ele>380.8</ele>
        <time>2021-09-20T12:48:31Z</time>
      </trkpt>
      <trkpt lat="43.85269" lon="7.15929">
        <ele>380.1</ele>
        <time>2021-09-20T12:48:32Z</time>
      </trkpt>
      <trkpt lat="43.85272" lon="7.15921">
        <ele>378.9</ele>
        <time>2021-09-20T12:48:34Z</time>
      </trkpt>
      <trkpt lat="43.85274" lon="7.15916">
        <ele>377.7</ele>
        <time>2021-09-20T12:48:35Z</time>
      </trkpt>
      <trkpt lat="43.85277" lon="7.15911">
        <ele>376.6</ele>
        <time>2021-09-20T12:48:36Z</time>
      </trkpt>
      <trkpt lat="43.8528" lon="7.15907">
        <ele>375.7</ele>
        <time>2021-09-20T12:48:37Z</time>
      </trkpt>
      <trkpt lat="43.85281" lon="7.15901">
        <ele>374.8</ele>
        <time>2021-09-20T12:48:39Z</time>
      </trkpt>
      <trkpt lat="43.85284" lon="7.15894">
        <ele>373.5</ele>
        <time>2021-09-20T12:48:40Z</time>
      </trkpt>
      <trkpt lat="43.85285" lon="7.1589">
        <ele>372.8</ele>
        <time>2021-09-20T12:48:41Z</time>
      </trkpt>
      <trkpt lat="43.85287" lon="7.15883">
        <ele>371.8</ele>
        <time>2021-09-20T12:48:43Z</time>
      </trkpt>
      <trkpt lat="43.85288" lon="7.15878">
        <ele>371.1</ele>
        <time>2021-09-20T12:48:44Z</time>
      </trkpt>
      <trkpt lat="43.85289" lon="7.1587">
        <ele>369.9</ele>
        <time>2021-09-20T12:48:45Z</time>
      </trkpt>
      <trkpt lat="43.85291" lon="7.15856">
        <ele>368.2</ele>
        <time>2021-09-20T12:48:47Z</time>
      </trkpt>
      <trkpt lat="43.85293" lon="7.15851">
        <ele>367.5</ele>
        <time>2021-09-20T12:48:48Z</time>
      </trkpt>
      <trkpt lat="43.85294" lon="7.15844">
        <ele>366.7</ele>
        <time>2021-09-20T12:48:49Z</time>
      </trkpt>
      <trkpt lat="43.85295" lon="7.15836">
        <ele>365.9</ele>
        <time>2021-09-20T12:48:51Z</time>
      </trkpt>
      <trkpt lat="43.85297" lon="7.15829">
        <ele>365.1</ele>
        <time>2021-09-20T12:48:52Z</time>
      </trkpt>
      <trkpt lat="43.853" lon="7.15823">
        <ele>364.2</ele>
        <time>2021-09-20T12:48:53Z</time>
      </trkpt>
      <trkpt lat="43.85302" lon="7.15817">
        <ele>363.4</ele>
        <time>2021-09-20T12:48:55Z</time>
      </trkpt>
      <trkpt lat="43.85304" lon="7.15811">
        <ele>362.7</ele>
        <time>2021-09-20T12:48:56Z</time>
      </trkpt>
      <trkpt lat="43.85306" lon="7.15805">
        <ele>361.9</ele>
        <time>2021-09-20T12:48:57Z</time>
      </trkpt>
      <trkpt lat="43.85309" lon="7.158">
        <ele>361.3</ele>
        <time>2021-09-20T12:48:58Z</time>
      </trkpt>
      <trkpt lat="43.85312" lon="7.15792">
        <ele>360.5</ele>
        <time>2021-09-20T12:49:00Z</time>
      </trkpt>
      <trkpt lat="43.85315" lon="7.15787">
        <ele>360</ele>
        <time>2021-09-20T12:49:01Z</time>
      </trkpt>
      <trkpt lat="43.85316" lon="7.15782">
        <ele>359.7</ele>
        <time>2021-09-20T12:49:03Z</time>
      </trkpt>
      <trkpt lat="43.85317" lon="7.1578">
        <ele>359.6</ele>
        <time>2021-09-20T12:49:04Z</time>
      </trkpt>
      <trkpt lat="43.85318" lon="7.15775">
        <ele>359.4</ele>
        <time>2021-09-20T12:49:05Z</time>
      </trkpt>
      <trkpt lat="43.85319" lon="7.15772">
        <ele>359.3</ele>
        <time>2021-09-20T12:49:06Z</time>
      </trkpt>
      <trkpt lat="43.85319" lon="7.15769">
        <ele>359.2</ele>
        <time>2021-09-20T12:49:07Z</time>
      </trkpt>
      <trkpt lat="43.85319" lon="7.15768">
        <ele>359.2</ele>
        <time>2021-09-20T12:49:09Z</time>
      </trkpt>
      <trkpt lat="43.85319" lon="7.15768">
        <ele>359.2</ele>
        <time>2021-09-20T12:49:10Z</time>
      </trkpt>
      <trkpt lat="43.85319" lon="7.15767">
        <ele>359.2</ele>
        <time>2021-09-20T12:49:11Z</time>
      </trkpt>
      <trkpt lat="43.8532" lon="7.15766">
        <ele>359.1</ele>
        <time>2021-09-20T12:49:12Z</time>
      </trkpt>
      <trkpt lat="43.8532" lon="7.15764">
        <ele>359.1</ele>
        <time>2021-09-20T12:49:13Z</time>
      </trkpt>
      <trkpt lat="43.8532" lon="7.15762">
        <ele>359.1</ele>
        <time>2021-09-20T12:49:15Z</time>
      </trkpt>
      <trkpt lat="43.85303" lon="7.15728">
        <ele>356.7</ele>
        <time>2021-09-20T12:49:36Z</time>
      </trkpt>
      <trkpt lat="43.85302" lon="7.15724">
        <ele>356.2</ele>
        <time>2021-09-20T12:49:37Z</time>
      </trkpt>
      <trkpt lat="43.85298" lon="7.15721">
        <ele>355.6</ele>
        <time>2021-09-20T12:49:38Z</time>
      </trkpt>
      <trkpt lat="43.85293" lon="7.15718">
        <ele>354.7</ele>
        <time>2021-09-20T12:49:40Z</time>
      </trkpt>
      <trkpt lat="43.85289" lon="7.15716">
        <ele>354</ele>
        <time>2021-09-20T12:49:41Z</time>
      </trkpt>
      <trkpt lat="43.85285" lon="7.15714">
        <ele>353.1</ele>
        <time>2021-09-20T12:49:42Z</time>
      </trkpt>
      <trkpt lat="43.8528" lon="7.15712">
        <ele>352</ele>
        <time>2021-09-20T12:49:44Z</time>
      </trkpt>
      <trkpt lat="43.85277" lon="7.1571">
        <ele>351.3</ele>
        <time>2021-09-20T12:49:45Z</time>
      </trkpt>
      <trkpt lat="43.85276" lon="7.15709">
        <ele>350.8</ele>
        <time>2021-09-20T12:49:46Z</time>
      </trkpt>
      <trkpt lat="43.85275" lon="7.15707">
        <ele>350.5</ele>
        <time>2021-09-20T12:49:47Z</time>
      </trkpt>
      <trkpt lat="43.85274" lon="7.15706">
        <ele>350.2</ele>
        <time>2021-09-20T12:49:48Z</time>
      </trkpt>
      <trkpt lat="43.85273" lon="7.15703">
        <ele>349.5</ele>
        <time>2021-09-20T12:49:49Z</time>
      </trkpt>
      <trkpt lat="43.85272" lon="7.15701">
        <ele>349.2</ele>
        <time>2021-09-20T12:49:50Z</time>
      </trkpt>
      <trkpt lat="43.85272" lon="7.15697">
        <ele>348.4</ele>
        <time>2021-09-20T12:49:52Z</time>
      </trkpt>
      <trkpt lat="43.85272" lon="7.15695">
        <ele>348.1</ele>
        <time>2021-09-20T12:49:53Z</time>
      </trkpt>
      <trkpt lat="43.85272" lon="7.1569">
        <ele>347.3</ele>
        <time>2021-09-20T12:49:54Z</time>
      </trkpt>
      <trkpt lat="43.85273" lon="7.15689">
        <ele>347.1</ele>
        <time>2021-09-20T12:49:55Z</time>
      </trkpt>
      <trkpt lat="43.85273" lon="7.15683">
        <ele>346.2</ele>
        <time>2021-09-20T12:49:57Z</time>
      </trkpt>
      <trkpt lat="43.85272" lon="7.15682">
        <ele>345.8</ele>
        <time>2021-09-20T12:49:58Z</time>
      </trkpt>
      <trkpt lat="43.85271" lon="7.15679">
        <ele>345.3</ele>
        <time>2021-09-20T12:49:59Z</time>
      </trkpt>
      <trkpt lat="43.8527" lon="7.15676">
        <ele>344.8</ele>
        <time>2021-09-20T12:50:01Z</time>
      </trkpt>
      <trkpt lat="43.85269" lon="7.1567">
        <ele>343.8</ele>
        <time>2021-09-20T12:50:02Z</time>
      </trkpt>
      <trkpt lat="43.85269" lon="7.15666">
        <ele>343</ele>
        <time>2021-09-20T12:50:04Z</time>
      </trkpt>
      <trkpt lat="43.85268" lon="7.15665">
        <ele>342.8</ele>
        <time>2021-09-20T12:50:05Z</time>
      </trkpt>
      <trkpt lat="43.85266" lon="7.15661">
        <ele>342</ele>
        <time>2021-09-20T12:50:07Z</time>
      </trkpt>
      <trkpt lat="43.85264" lon="7.15658">
        <ele>341.3</ele>
        <time>2021-09-20T12:50:08Z</time>
      </trkpt>
      <trkpt lat="43.85261" lon="7.15656">
        <ele>340.5</ele>
        <time>2021-09-20T12:50:09Z</time>
      </trkpt>
      <trkpt lat="43.8526" lon="7.15653">
        <ele>340</ele>
        <time>2021-09-20T12:50:10Z</time>
      </trkpt>
      <trkpt lat="43.85258" lon="7.1565">
        <ele>339.3</ele>
        <time>2021-09-20T12:50:12Z</time>
      </trkpt>
      <trkpt lat="43.85254" lon="7.15647">
        <ele>338.4</ele>
        <time>2021-09-20T12:50:14Z</time>
      </trkpt>
      <trkpt lat="43.85252" lon="7.15647">
        <ele>337.9</ele>
        <time>2021-09-20T12:50:15Z</time>
      </trkpt>
      <trkpt lat="43.8525" lon="7.15645">
        <ele>337.1</ele>
        <time>2021-09-20T12:50:17Z</time>
      </trkpt>
      <trkpt lat="43.85247" lon="7.15643">
        <ele>336.4</ele>
        <time>2021-09-20T12:50:18Z</time>
      </trkpt>
      <trkpt lat="43.85243" lon="7.15641">
        <ele>335.5</ele>
        <time>2021-09-20T12:50:19Z</time>
      </trkpt>
      <trkpt lat="43.85238" lon="7.15637">
        <ele>334.4</ele>
        <time>2021-09-20T12:50:21Z</time>
      </trkpt>
      <trkpt lat="43.85235" lon="7.15635">
        <ele>333.8</ele>
        <time>2021-09-20T12:50:22Z</time>
      </trkpt>
      <trkpt lat="43.8523" lon="7.15632">
        <ele>332.8</ele>
        <time>2021-09-20T12:50:24Z</time>
      </trkpt>
      <trkpt lat="43.85227" lon="7.15629">
        <ele>332.4</ele>
        <time>2021-09-20T12:50:25Z</time>
      </trkpt>
      <trkpt lat="43.85224" lon="7.15626">
        <ele>331.7</ele>
        <time>2021-09-20T12:50:26Z</time>
      </trkpt>
      <trkpt lat="43.85223" lon="7.15626">
        <ele>331.5</ele>
        <time>2021-09-20T12:50:27Z</time>
      </trkpt>
      <trkpt lat="43.85221" lon="7.15625">
        <ele>331.2</ele>
        <time>2021-09-20T12:50:29Z</time>
      </trkpt>
      <trkpt lat="43.8522" lon="7.15625">
        <ele>331.1</ele>
        <time>2021-09-20T12:50:30Z</time>
      </trkpt>
      <trkpt lat="43.85219" lon="7.15625">
        <ele>330.9</ele>
        <time>2021-09-20T12:50:31Z</time>
      </trkpt>
      <trkpt lat="43.85217" lon="7.15623">
        <ele>330.5</ele>
        <time>2021-09-20T12:50:32Z</time>
      </trkpt>
      <trkpt lat="43.85216" lon="7.15622">
        <ele>330.4</ele>
        <time>2021-09-20T12:50:33Z</time>
      </trkpt>
      <trkpt lat="43.85213" lon="7.1562">
        <ele>329.9</ele>
        <time>2021-09-20T12:50:35Z</time>
      </trkpt>
      <trkpt lat="43.85211" lon="7.15618">
        <ele>329.5</ele>
        <time>2021-09-20T12:50:36Z</time>
      </trkpt>
      <trkpt lat="43.85207" lon="7.15615">
        <ele>328.8</ele>
        <time>2021-09-20T12:50:38Z</time>
      </trkpt>
      <trkpt lat="43.85206" lon="7.15611">
        <ele>328.4</ele>
        <time>2021-09-20T12:50:39Z</time>
      </trkpt>
      <trkpt lat="43.85203" lon="7.15607">
        <ele>327.9</ele>
        <time>2021-09-20T12:50:41Z</time>
      </trkpt>
      <trkpt lat="43.85202" lon="7.15603">
        <ele>327.6</ele>
        <time>2021-09-20T12:50:42Z</time>
      </trkpt>
      <trkpt lat="43.85201" lon="7.15598">
        <ele>327.2</ele>
        <time>2021-09-20T12:50:43Z</time>
      </trkpt>
      <trkpt lat="43.85199" lon="7.15594">
        <ele>326.8</ele>
        <time>2021-09-20T12:50:45Z</time>
      </trkpt>
      <trkpt lat="43.85197" lon="7.15592">
        <ele>326.6</ele>
        <time>2021-09-20T12:50:46Z</time>
      </trkpt>
      <trkpt lat="43.85195" lon="7.15589">
        <ele>326.4</ele>
        <time>2021-09-20T12:50:48Z</time>
      </trkpt>
      <trkpt lat="43.85194" lon="7.15587">
        <ele>326.2</ele>
        <time>2021-09-20T12:50:50Z</time>
      </trkpt>
      <trkpt lat="43.85192" lon="7.15584">
        <ele>326.1</ele>
        <time>2021-09-20T12:50:51Z</time>
      </trkpt>
      <trkpt lat="43.8519" lon="7.15582">
        <ele>325.9</ele>
        <time>2021-09-20T12:50:53Z</time>
      </trkpt>
      <trkpt lat="43.85188" lon="7.15579">
        <ele>325.7</ele>
        <time>2021-09-20T12:51:11Z</time>
      </trkpt>
      <trkpt lat="43.85186" lon="7.15576">
        <ele>325.5</ele>
        <time>2021-09-20T12:51:12Z</time>
      </trkpt>
      <trkpt lat="43.85181" lon="7.15573">
        <ele>325.2</ele>
        <time>2021-09-20T12:51:13Z</time>
      </trkpt>
      <trkpt lat="43.85178" lon="7.15569">
        <ele>324.9</ele>
        <time>2021-09-20T12:51:14Z</time>
      </trkpt>
      <trkpt lat="43.85172" lon="7.15563">
        <ele>324.4</ele>
        <time>2021-09-20T12:51:16Z</time>
      </trkpt>
      <trkpt lat="43.85167" lon="7.1556">
        <ele>324.3</ele>
        <time>2021-09-20T12:51:17Z</time>
      </trkpt>
      <trkpt lat="43.85158" lon="7.15551">
        <ele>324.1</ele>
        <time>2021-09-20T12:51:19Z</time>
      </trkpt>
      <trkpt lat="43.85154" lon="7.15549">
        <ele>324.1</ele>
        <time>2021-09-20T12:51:20Z</time>
      </trkpt>
      <trkpt lat="43.85149" lon="7.15546">
        <ele>324</ele>
        <time>2021-09-20T12:51:21Z</time>
      </trkpt>
      <trkpt lat="43.85144" lon="7.15544">
        <ele>324</ele>
        <time>2021-09-20T12:51:23Z</time>
      </trkpt>
      <trkpt lat="43.8514" lon="7.15543">
        <ele>323.8</ele>
        <time>2021-09-20T12:51:24Z</time>
      </trkpt>
      <trkpt lat="43.85139" lon="7.15543">
        <ele>323.8</ele>
        <time>2021-09-20T12:51:25Z</time>
      </trkpt>
      <trkpt lat="43.85136" lon="7.15541">
        <ele>323.5</ele>
        <time>2021-09-20T12:51:27Z</time>
      </trkpt>
      <trkpt lat="43.85132" lon="7.15539">
        <ele>323.1</ele>
        <time>2021-09-20T12:51:28Z</time>
      </trkpt>
      <trkpt lat="43.85129" lon="7.15537">
        <ele>322.7</ele>
        <time>2021-09-20T12:51:29Z</time>
      </trkpt>
      <trkpt lat="43.85125" lon="7.15536">
        <ele>321.9</ele>
        <time>2021-09-20T12:51:30Z</time>
      </trkpt>
      <trkpt lat="43.85122" lon="7.15534">
        <ele>321.3</ele>
        <time>2021-09-20T12:51:31Z</time>
      </trkpt>
      <trkpt lat="43.85117" lon="7.1553">
        <ele>320.3</ele>
        <time>2021-09-20T12:51:33Z</time>
      </trkpt>
      <trkpt lat="43.85113" lon="7.15527">
        <ele>319.5</ele>
        <time>2021-09-20T12:51:35Z</time>
      </trkpt>
      <trkpt lat="43.85111" lon="7.15524">
        <ele>318.9</ele>
        <time>2021-09-20T12:51:36Z</time>
      </trkpt>
      <trkpt lat="43.85106" lon="7.15519">
        <ele>317.9</ele>
        <time>2021-09-20T12:51:38Z</time>
      </trkpt>
      <trkpt lat="43.85102" lon="7.15513">
        <ele>317.1</ele>
        <time>2021-09-20T12:51:39Z</time>
      </trkpt>
      <trkpt lat="43.85098" lon="7.15502">
        <ele>315.8</ele>
        <time>2021-09-20T12:51:41Z</time>
      </trkpt>
      <trkpt lat="43.85096" lon="7.15488">
        <ele>314.8</ele>
        <time>2021-09-20T12:51:43Z</time>
      </trkpt>
      <trkpt lat="43.85095" lon="7.15482">
        <ele>314.4</ele>
        <time>2021-09-20T12:51:44Z</time>
      </trkpt>
      <trkpt lat="43.85094" lon="7.1547">
        <ele>313.8</ele>
        <time>2021-09-20T12:51:46Z</time>
      </trkpt>
      <trkpt lat="43.85094" lon="7.15466">
        <ele>313.6</ele>
        <time>2021-09-20T12:51:47Z</time>
      </trkpt>
      <trkpt lat="43.85092" lon="7.15462">
        <ele>313.3</ele>
        <time>2021-09-20T12:51:48Z</time>
      </trkpt>
      <trkpt lat="43.85092" lon="7.15458">
        <ele>313</ele>
        <time>2021-09-20T12:51:49Z</time>
      </trkpt>
      <trkpt lat="43.8509" lon="7.15455">
        <ele>312.8</ele>
        <time>2021-09-20T12:51:50Z</time>
      </trkpt>
      <trkpt lat="43.85088" lon="7.15453">
        <ele>312.6</ele>
        <time>2021-09-20T12:51:52Z</time>
      </trkpt>
      <trkpt lat="43.85087" lon="7.15453">
        <ele>312.6</ele>
        <time>2021-09-20T12:51:53Z</time>
      </trkpt>
      <trkpt lat="43.85086" lon="7.15453">
        <ele>312.4</ele>
        <time>2021-09-20T12:51:55Z</time>
      </trkpt>
      <trkpt lat="43.85085" lon="7.15453">
        <ele>312.4</ele>
        <time>2021-09-20T12:51:57Z</time>
      </trkpt>
      <trkpt lat="43.85085" lon="7.15453">
        <ele>312.3</ele>
        <time>2021-09-20T12:51:58Z</time>
      </trkpt>
      <trkpt lat="43.85082" lon="7.15451">
        <ele>312</ele>
        <time>2021-09-20T12:51:59Z</time>
      </trkpt>
      <trkpt lat="43.85081" lon="7.15451">
        <ele>311.9</ele>
        <time>2021-09-20T12:52:01Z</time>
      </trkpt>
      <trkpt lat="43.8508" lon="7.15451">
        <ele>311.8</ele>
        <time>2021-09-20T12:52:02Z</time>
      </trkpt>
      <trkpt lat="43.85071" lon="7.15443">
        <ele>310.4</ele>
        <time>2021-09-20T12:52:08Z</time>
      </trkpt>
      <trkpt lat="43.85068" lon="7.15437">
        <ele>309.6</ele>
        <time>2021-09-20T12:52:09Z</time>
      </trkpt>
      <trkpt lat="43.85064" lon="7.15432">
        <ele>308.8</ele>
        <time>2021-09-20T12:52:11Z</time>
      </trkpt>
      <trkpt lat="43.85062" lon="7.15428">
        <ele>308.2</ele>
        <time>2021-09-20T12:52:12Z</time>
      </trkpt>
      <trkpt lat="43.85062" lon="7.15423">
        <ele>307.7</ele>
        <time>2021-09-20T12:52:14Z</time>
      </trkpt>
      <trkpt lat="43.85063" lon="7.15419">
        <ele>307.3</ele>
        <time>2021-09-20T12:52:15Z</time>
      </trkpt>
      <trkpt lat="43.85065" lon="7.15414">
        <ele>306.8</ele>
        <time>2021-09-20T12:52:17Z</time>
      </trkpt>
      <trkpt lat="43.85069" lon="7.15407">
        <ele>306.2</ele>
        <time>2021-09-20T12:52:18Z</time>
      </trkpt>
      <trkpt lat="43.8507" lon="7.15402">
        <ele>305.9</ele>
        <time>2021-09-20T12:52:19Z</time>
      </trkpt>
      <trkpt lat="43.85072" lon="7.15395">
        <ele>305.5</ele>
        <time>2021-09-20T12:52:21Z</time>
      </trkpt>
      <trkpt lat="43.85073" lon="7.15388">
        <ele>305.2</ele>
        <time>2021-09-20T12:52:22Z</time>
      </trkpt>
      <trkpt lat="43.85074" lon="7.1538">
        <ele>304.8</ele>
        <time>2021-09-20T12:52:24Z</time>
      </trkpt>
      <trkpt lat="43.85075" lon="7.15377">
        <ele>304.6</ele>
        <time>2021-09-20T12:52:25Z</time>
      </trkpt>
      <trkpt lat="43.85076" lon="7.15374">
        <ele>304.3</ele>
        <time>2021-09-20T12:52:26Z</time>
      </trkpt>
      <trkpt lat="43.85077" lon="7.15368">
        <ele>303.9</ele>
        <time>2021-09-20T12:52:28Z</time>
      </trkpt>
      <trkpt lat="43.8508" lon="7.15364">
        <ele>303.3</ele>
        <time>2021-09-20T12:52:29Z</time>
      </trkpt>
      <trkpt lat="43.85082" lon="7.15363">
        <ele>302.9</ele>
        <time>2021-09-20T12:52:30Z</time>
      </trkpt>
      <trkpt lat="43.85085" lon="7.1536">
        <ele>302.2</ele>
        <time>2021-09-20T12:52:32Z</time>
      </trkpt>
      <trkpt lat="43.85088" lon="7.15358">
        <ele>301.7</ele>
        <time>2021-09-20T12:52:33Z</time>
      </trkpt>
      <trkpt lat="43.85092" lon="7.15356">
        <ele>300.8</ele>
        <time>2021-09-20T12:52:35Z</time>
      </trkpt>
      <trkpt lat="43.85094" lon="7.15353">
        <ele>300.2</ele>
        <time>2021-09-20T12:52:36Z</time>
      </trkpt>
      <trkpt lat="43.85096" lon="7.1535">
        <ele>299.5</ele>
        <time>2021-09-20T12:52:37Z</time>
      </trkpt>
      <trkpt lat="43.85096" lon="7.15346">
        <ele>299</ele>
        <time>2021-09-20T12:52:39Z</time>
      </trkpt>
      <trkpt lat="43.85095" lon="7.15341">
        <ele>298.2</ele>
        <time>2021-09-20T12:52:41Z</time>
      </trkpt>
      <trkpt lat="43.85095" lon="7.15337">
        <ele>297.6</ele>
        <time>2021-09-20T12:52:42Z</time>
      </trkpt>
      <trkpt lat="43.85095" lon="7.15336">
        <ele>297.4</ele>
        <time>2021-09-20T12:52:43Z</time>
      </trkpt>
      <trkpt lat="43.85095" lon="7.15335">
        <ele>297.2</ele>
        <time>2021-09-20T12:52:44Z</time>
      </trkpt>
      <trkpt lat="43.85096" lon="7.15333">
        <ele>296.9</ele>
        <time>2021-09-20T12:52:45Z</time>
      </trkpt>
      <trkpt lat="43.85098" lon="7.15329">
        <ele>296.3</ele>
        <time>2021-09-20T12:52:47Z</time>
      </trkpt>
      <trkpt lat="43.85099" lon="7.15328">
        <ele>296.2</ele>
        <time>2021-09-20T12:52:48Z</time>
      </trkpt>
      <trkpt lat="43.851" lon="7.15326">
        <ele>295.8</ele>
        <time>2021-09-20T12:52:49Z</time>
      </trkpt>
      <trkpt lat="43.85101" lon="7.15325">
        <ele>295.6</ele>
        <time>2021-09-20T12:52:50Z</time>
      </trkpt>
      <trkpt lat="43.85102" lon="7.15324">
        <ele>295.4</ele>
        <time>2021-09-20T12:52:51Z</time>
      </trkpt>
      <trkpt lat="43.85104" lon="7.15323">
        <ele>295</ele>
        <time>2021-09-20T12:52:52Z</time>
      </trkpt>
      <trkpt lat="43.85106" lon="7.1532">
        <ele>294.5</ele>
        <time>2021-09-20T12:52:54Z</time>
      </trkpt>
      <trkpt lat="43.85107" lon="7.1532">
        <ele>294.3</ele>
        <time>2021-09-20T12:52:55Z</time>
      </trkpt>
      <trkpt lat="43.85109" lon="7.15318">
        <ele>294</ele>
        <time>2021-09-20T12:52:56Z</time>
      </trkpt>
      <trkpt lat="43.85111" lon="7.15314">
        <ele>293.3</ele>
        <time>2021-09-20T12:52:58Z</time>
      </trkpt>
      <trkpt lat="43.85114" lon="7.1531">
        <ele>292.7</ele>
        <time>2021-09-20T12:52:59Z</time>
      </trkpt>
      <trkpt lat="43.85117" lon="7.15307">
        <ele>292.1</ele>
        <time>2021-09-20T12:53:00Z</time>
      </trkpt>
      <trkpt lat="43.85119" lon="7.15302">
        <ele>291.6</ele>
        <time>2021-09-20T12:53:01Z</time>
      </trkpt>
      <trkpt lat="43.85121" lon="7.15298">
        <ele>291.2</ele>
        <time>2021-09-20T12:53:02Z</time>
      </trkpt>
      <trkpt lat="43.85123" lon="7.15293">
        <ele>290.6</ele>
        <time>2021-09-20T12:53:03Z</time>
      </trkpt>
      <trkpt lat="43.85124" lon="7.15288">
        <ele>290.1</ele>
        <time>2021-09-20T12:53:05Z</time>
      </trkpt>
      <trkpt lat="43.85126" lon="7.15283">
        <ele>289.5</ele>
        <time>2021-09-20T12:53:06Z</time>
      </trkpt>
      <trkpt lat="43.85127" lon="7.1528">
        <ele>289.2</ele>
        <time>2021-09-20T12:53:07Z</time>
      </trkpt>
      <trkpt lat="43.85129" lon="7.15276">
        <ele>288.5</ele>
        <time>2021-09-20T12:53:08Z</time>
      </trkpt>
      <trkpt lat="43.85131" lon="7.15272">
        <ele>287.9</ele>
        <time>2021-09-20T12:53:10Z</time>
      </trkpt>
      <trkpt lat="43.85133" lon="7.15267">
        <ele>287.3</ele>
        <time>2021-09-20T12:53:11Z</time>
      </trkpt>
      <trkpt lat="43.85134" lon="7.15265">
        <ele>287</ele>
        <time>2021-09-20T12:53:12Z</time>
      </trkpt>
      <trkpt lat="43.85136" lon="7.1526">
        <ele>286.5</ele>
        <time>2021-09-20T12:53:14Z</time>
      </trkpt>
      <trkpt lat="43.85137" lon="7.15254">
        <ele>286</ele>
        <time>2021-09-20T12:53:15Z</time>
      </trkpt>
      <trkpt lat="43.85139" lon="7.1525">
        <ele>285.7</ele>
        <time>2021-09-20T12:53:17Z</time>
      </trkpt>
      <trkpt lat="43.85142" lon="7.15247">
        <ele>285.6</ele>
        <time>2021-09-20T12:53:18Z</time>
      </trkpt>
      <trkpt lat="43.85143" lon="7.15243">
        <ele>285.5</ele>
        <time>2021-09-20T12:53:19Z</time>
      </trkpt>
      <trkpt lat="43.85144" lon="7.15238">
        <ele>285.4</ele>
        <time>2021-09-20T12:53:21Z</time>
      </trkpt>
      <trkpt lat="43.85144" lon="7.15236">
        <ele>285.4</ele>
        <time>2021-09-20T12:53:22Z</time>
      </trkpt>
      <trkpt lat="43.85141" lon="7.15232">
        <ele>285.4</ele>
        <time>2021-09-20T12:53:23Z</time>
      </trkpt>
      <trkpt lat="43.85139" lon="7.1523">
        <ele>285.3</ele>
        <time>2021-09-20T12:53:24Z</time>
      </trkpt>
      <trkpt lat="43.85136" lon="7.15228">
        <ele>284.9</ele>
        <time>2021-09-20T12:53:25Z</time>
      </trkpt>
      <trkpt lat="43.85132" lon="7.15225">
        <ele>284.5</ele>
        <time>2021-09-20T12:53:27Z</time>
      </trkpt>
      <trkpt lat="43.8513" lon="7.15223">
        <ele>284.2</ele>
        <time>2021-09-20T12:53:28Z</time>
      </trkpt>
      <trkpt lat="43.85125" lon="7.15223">
        <ele>283.7</ele>
        <time>2021-09-20T12:53:30Z</time>
      </trkpt>
      <trkpt lat="43.8512" lon="7.15221">
        <ele>283.2</ele>
        <time>2021-09-20T12:53:31Z</time>
      </trkpt>
      <trkpt lat="43.85117" lon="7.1522">
        <ele>282.8</ele>
        <time>2021-09-20T12:53:32Z</time>
      </trkpt>
      <trkpt lat="43.85113" lon="7.15219">
        <ele>282.4</ele>
        <time>2021-09-20T12:53:34Z</time>
      </trkpt>
      <trkpt lat="43.85109" lon="7.15218">
        <ele>282</ele>
        <time>2021-09-20T12:53:35Z</time>
      </trkpt>
      <trkpt lat="43.85106" lon="7.15217">
        <ele>281.6</ele>
        <time>2021-09-20T12:53:37Z</time>
      </trkpt>
      <trkpt lat="43.85105" lon="7.15216">
        <ele>281.5</ele>
        <time>2021-09-20T12:53:38Z</time>
      </trkpt>
      <trkpt lat="43.85102" lon="7.15214">
        <ele>281.1</ele>
        <time>2021-09-20T12:53:39Z</time>
      </trkpt>
      <trkpt lat="43.85099" lon="7.15211">
        <ele>280.6</ele>
        <time>2021-09-20T12:53:41Z</time>
      </trkpt>
      <trkpt lat="43.85096" lon="7.1521">
        <ele>280.3</ele>
        <time>2021-09-20T12:53:42Z</time>
      </trkpt>
      <trkpt lat="43.85094" lon="7.15206">
        <ele>279.9</ele>
        <time>2021-09-20T12:53:44Z</time>
      </trkpt>
      <trkpt lat="43.85093" lon="7.15204">
        <ele>279.7</ele>
        <time>2021-09-20T12:53:45Z</time>
      </trkpt>
      <trkpt lat="43.85091" lon="7.15201">
        <ele>279.4</ele>
        <time>2021-09-20T12:53:46Z</time>
      </trkpt>
      <trkpt lat="43.85089" lon="7.15198">
        <ele>279.1</ele>
        <time>2021-09-20T12:53:48Z</time>
      </trkpt>
      <trkpt lat="43.85087" lon="7.15194">
        <ele>278.8</ele>
        <time>2021-09-20T12:53:49Z</time>
      </trkpt>
      <trkpt lat="43.85084" lon="7.15189">
        <ele>278.4</ele>
        <time>2021-09-20T12:53:50Z</time>
      </trkpt>
      <trkpt lat="43.85084" lon="7.15188">
        <ele>278.3</ele>
        <time>2021-09-20T12:53:51Z</time>
      </trkpt>
      <trkpt lat="43.85082" lon="7.15187">
        <ele>278.1</ele>
        <time>2021-09-20T12:53:52Z</time>
      </trkpt>
      <trkpt lat="43.85077" lon="7.15187">
        <ele>277.7</ele>
        <time>2021-09-20T12:53:54Z</time>
      </trkpt>
      <trkpt lat="43.85073" lon="7.15187">
        <ele>277.3</ele>
        <time>2021-09-20T12:53:56Z</time>
      </trkpt>
      <trkpt lat="43.85068" lon="7.15186">
        <ele>276.9</ele>
        <time>2021-09-20T12:53:57Z</time>
      </trkpt>
      <trkpt lat="43.85065" lon="7.15187">
        <ele>276.6</ele>
        <time>2021-09-20T12:53:58Z</time>
      </trkpt>
      <trkpt lat="43.85061" lon="7.15186">
        <ele>276.3</ele>
        <time>2021-09-20T12:54:00Z</time>
      </trkpt>
      <trkpt lat="43.85058" lon="7.15184">
        <ele>275.9</ele>
        <time>2021-09-20T12:54:01Z</time>
      </trkpt>
      <trkpt lat="43.85055" lon="7.15181">
        <ele>275.6</ele>
        <time>2021-09-20T12:54:02Z</time>
      </trkpt>
      <trkpt lat="43.85053" lon="7.15179">
        <ele>275.3</ele>
        <time>2021-09-20T12:54:03Z</time>
      </trkpt>
      <trkpt lat="43.85051" lon="7.15178">
        <ele>275</ele>
        <time>2021-09-20T12:54:05Z</time>
      </trkpt>
      <trkpt lat="43.85049" lon="7.15177">
        <ele>274.7</ele>
        <time>2021-09-20T12:54:06Z</time>
      </trkpt>
      <trkpt lat="43.85047" lon="7.15173">
        <ele>274.3</ele>
        <time>2021-09-20T12:54:08Z</time>
      </trkpt>
      <trkpt lat="43.85046" lon="7.15169">
        <ele>273.8</ele>
        <time>2021-09-20T12:54:09Z</time>
      </trkpt>
      <trkpt lat="43.85046" lon="7.15168">
        <ele>273.7</ele>
        <time>2021-09-20T12:54:10Z</time>
      </trkpt>
      <trkpt lat="43.85043" lon="7.15165">
        <ele>273.2</ele>
        <time>2021-09-20T12:54:11Z</time>
      </trkpt>
      <trkpt lat="43.85042" lon="7.15163">
        <ele>273</ele>
        <time>2021-09-20T12:54:12Z</time>
      </trkpt>
      <trkpt lat="43.8504" lon="7.15159">
        <ele>272.4</ele>
        <time>2021-09-20T12:54:14Z</time>
      </trkpt>
      <trkpt lat="43.85038" lon="7.15157">
        <ele>269.7</ele>
        <time>2021-09-20T12:54:15Z</time>
      </trkpt>
      <trkpt lat="43.85037" lon="7.15156">
        <ele>270</ele>
        <time>2021-09-20T12:54:16Z</time>
      </trkpt>
      <trkpt lat="43.85035" lon="7.15153">
        <ele>267.3</ele>
        <time>2021-09-20T12:54:17Z</time>
      </trkpt>
      <trkpt lat="43.85032" lon="7.1515">
        <ele>264.8</ele>
        <time>2021-09-20T12:54:19Z</time>
      </trkpt>
      <trkpt lat="43.8503" lon="7.15148">
        <ele>265</ele>
        <time>2021-09-20T12:54:20Z</time>
      </trkpt>
      <trkpt lat="43.85026" lon="7.15146">
        <ele>265.2</ele>
        <time>2021-09-20T12:54:22Z</time>
      </trkpt>
      <trkpt lat="43.85023" lon="7.15144">
        <ele>262.7</ele>
        <time>2021-09-20T12:54:23Z</time>
      </trkpt>
      <trkpt lat="43.85022" lon="7.15144">
        <ele>262.9</ele>
        <time>2021-09-20T12:54:24Z</time>
      </trkpt>
      <trkpt lat="43.8502" lon="7.15142">
        <ele>262.8</ele>
        <time>2021-09-20T12:54:25Z</time>
      </trkpt>
      <trkpt lat="43.85019" lon="7.15141">
        <ele>263</ele>
        <time>2021-09-20T12:54:26Z</time>
      </trkpt>
      <trkpt lat="43.85018" lon="7.15141">
        <ele>260.1</ele>
        <time>2021-09-20T12:54:27Z</time>
      </trkpt>
      <trkpt lat="43.85018" lon="7.1514">
        <ele>260</ele>
        <time>2021-09-20T12:54:28Z</time>
      </trkpt>
      <trkpt lat="43.85018" lon="7.15139">
        <ele>259.9</ele>
        <time>2021-09-20T12:54:30Z</time>
      </trkpt>
      <trkpt lat="43.85018" lon="7.15139">
        <ele>259.8</ele>
        <time>2021-09-20T12:54:31Z</time>
      </trkpt>
      <trkpt lat="43.85018" lon="7.15139">
        <ele>259.8</ele>
        <time>2021-09-20T12:54:33Z</time>
      </trkpt>
      <trkpt lat="43.85018" lon="7.15139">
        <ele>259.7</ele>
        <time>2021-09-20T12:54:35Z</time>
      </trkpt>
      <trkpt lat="43.85018" lon="7.15139">
        <ele>259.6</ele>
        <time>2021-09-20T12:54:36Z</time>
      </trkpt>
      <trkpt lat="43.85018" lon="7.15094">
        <ele>234.5</ele>
        <time>2021-09-20T12:56:42Z</time>
      </trkpt>
      <trkpt lat="43.85015" lon="7.15095">
        <ele>236.1</ele>
        <time>2021-09-20T12:56:44Z</time>
      </trkpt>
      <trkpt lat="43.85013" lon="7.15095">
        <ele>236.1</ele>
        <time>2021-09-20T12:56:45Z</time>
      </trkpt>
      <trkpt lat="43.85012" lon="7.15095">
        <ele>235.9</ele>
        <time>2021-09-20T12:56:46Z</time>
      </trkpt>
      <trkpt lat="43.85011" lon="7.15096">
        <ele>235.8</ele>
        <time>2021-09-20T12:56:47Z</time>
      </trkpt>
      <trkpt lat="43.8501" lon="7.15097">
        <ele>235.8</ele>
        <time>2021-09-20T12:56:48Z</time>
      </trkpt>
      <trkpt lat="43.85009" lon="7.15097">
        <ele>235.5</ele>
        <time>2021-09-20T12:56:49Z</time>
      </trkpt>
      <trkpt lat="43.85008" lon="7.15098">
        <ele>235.5</ele>
        <time>2021-09-20T12:56:51Z</time>
      </trkpt>
      <trkpt lat="43.85007" lon="7.15098">
        <ele>235.4</ele>
        <time>2021-09-20T12:56:52Z</time>
      </trkpt>
      <trkpt lat="43.85007" lon="7.15098">
        <ele>235.3</ele>
        <time>2021-09-20T12:56:54Z</time>
      </trkpt>
      <trkpt lat="43.85007" lon="7.15098">
        <ele>237.3</ele>
        <time>2021-09-20T12:56:55Z</time>
      </trkpt>
      <trkpt lat="43.84991" lon="7.15049">
        <ele>218</ele>
        <time>2021-09-20T12:58:41Z</time>
      </trkpt>
      <trkpt lat="43.84987" lon="7.15046">
        <ele>216</ele>
        <time>2021-09-20T12:58:43Z</time>
      </trkpt>
      <trkpt lat="43.84982" lon="7.15045">
        <ele>215.4</ele>
        <time>2021-09-20T12:58:44Z</time>
      </trkpt>
      <trkpt lat="43.84978" lon="7.15044">
        <ele>214</ele>
        <time>2021-09-20T12:58:45Z</time>
      </trkpt>
      <trkpt lat="43.84975" lon="7.15044">
        <ele>213.2</ele>
        <time>2021-09-20T12:58:46Z</time>
      </trkpt>
      <trkpt lat="43.84972" lon="7.15044">
        <ele>212.4</ele>
        <time>2021-09-20T12:58:47Z</time>
      </trkpt>
      <trkpt lat="43.84969" lon="7.15045">
        <ele>211.5</ele>
        <time>2021-09-20T12:58:49Z</time>
      </trkpt>
      <trkpt lat="43.84967" lon="7.15045">
        <ele>211.5</ele>
        <time>2021-09-20T12:58:50Z</time>
      </trkpt>
      <trkpt lat="43.84965" lon="7.15045">
        <ele>210.7</ele>
        <time>2021-09-20T12:58:52Z</time>
      </trkpt>
      <trkpt lat="43.84964" lon="7.15045">
        <ele>210.6</ele>
        <time>2021-09-20T12:58:53Z</time>
      </trkpt>
      <trkpt lat="43.84962" lon="7.15046">
        <ele>209.8</ele>
        <time>2021-09-20T12:58:55Z</time>
      </trkpt>
      <trkpt lat="43.84961" lon="7.15046">
        <ele>209.7</ele>
        <time>2021-09-20T12:58:56Z</time>
      </trkpt>
      <trkpt lat="43.8496" lon="7.15047">
        <ele>208.9</ele>
        <time>2021-09-20T12:58:57Z</time>
      </trkpt>
      <trkpt lat="43.8496" lon="7.15045">
        <ele>208.9</ele>
        <time>2021-09-20T12:58:59Z</time>
      </trkpt>
      <trkpt lat="43.8496" lon="7.15044">
        <ele>208.8</ele>
        <time>2021-09-20T12:59:00Z</time>
      </trkpt>
      <trkpt lat="43.8496" lon="7.15043">
        <ele>208.7</ele>
        <time>2021-09-20T12:59:01Z</time>
      </trkpt>
      <trkpt lat="43.84959" lon="7.1504">
        <ele>207.4</ele>
        <time>2021-09-20T12:59:03Z</time>
      </trkpt>
      <trkpt lat="43.84959" lon="7.15039">
        <ele>207.3</ele>
        <time>2021-09-20T12:59:05Z</time>
      </trkpt>
      <trkpt lat="43.84959" lon="7.15039">
        <ele>207.2</ele>
        <time>2021-09-20T12:59:06Z</time>
      </trkpt>
      <trkpt lat="43.84959" lon="7.15039">
        <ele>207.2</ele>
        <time>2021-09-20T12:59:08Z</time>
      </trkpt>
      <trkpt lat="43.84849" lon="7.15094">
        <ele>191.3</ele>
        <time>2021-09-20T13:02:58Z</time>
      </trkpt>
      <trkpt lat="43.84848" lon="7.15097">
        <ele>191.6</ele>
        <time>2021-09-20T13:02:59Z</time>
      </trkpt>
      <trkpt lat="43.84848" lon="7.15098">
        <ele>191.5</ele>
        <time>2021-09-20T13:03:00Z</time>
      </trkpt>
      <trkpt lat="43.84847" lon="7.151">
        <ele>192.8</ele>
        <time>2021-09-20T13:03:01Z</time>
      </trkpt>
      <trkpt lat="43.84846" lon="7.15102">
        <ele>192.7</ele>
        <time>2021-09-20T13:03:03Z</time>
      </trkpt>
      <trkpt lat="43.84845" lon="7.15102">
        <ele>191.8</ele>
        <time>2021-09-20T13:03:04Z</time>
      </trkpt>
      <trkpt lat="43.84845" lon="7.15102">
        <ele>191.7</ele>
        <time>2021-09-20T13:03:05Z</time>
      </trkpt>
      <trkpt lat="43.84844" lon="7.15102">
        <ele>191.6</ele>
        <time>2021-09-20T13:03:06Z</time>
      </trkpt>
      <trkpt lat="43.84843" lon="7.15101">
        <ele>191.6</ele>
        <time>2021-09-20T13:03:07Z</time>
      </trkpt>
      <trkpt lat="43.84843" lon="7.151">
        <ele>191.5</ele>
        <time>2021-09-20T13:03:08Z</time>
      </trkpt>
      <trkpt lat="43.84836" lon="7.151">
        <ele>188.9</ele>
        <time>2021-09-20T13:03:10Z</time>
      </trkpt>
      <trkpt lat="43.8483" lon="7.151">
        <ele>188.1</ele>
        <time>2021-09-20T13:03:11Z</time>
      </trkpt>
      <trkpt lat="43.84825" lon="7.151">
        <ele>186.6</ele>
        <time>2021-09-20T13:03:12Z</time>
      </trkpt>
      <trkpt lat="43.84819" lon="7.15101">
        <ele>185.3</ele>
        <time>2021-09-20T13:03:14Z</time>
      </trkpt>
      <trkpt lat="43.84813" lon="7.15101">
        <ele>184.2</ele>
        <time>2021-09-20T13:07:07Z</time>
      </trkpt>
      <trkpt lat="43.84807" lon="7.15101">
        <ele>183</ele>
        <time>2021-09-20T13:07:08Z</time>
      </trkpt>
      <trkpt lat="43.84808" lon="7.15098">
        <ele>182.1</ele>
        <time>2021-09-20T13:07:09Z</time>
      </trkpt>
      <trkpt lat="43.84807" lon="7.15094">
        <ele>181.3</ele>
        <time>2021-09-20T13:07:11Z</time>
      </trkpt>
      <trkpt lat="43.84807" lon="7.15092">
        <ele>181.2</ele>
        <time>2021-09-20T13:07:12Z</time>
      </trkpt>
      <trkpt lat="43.84806" lon="7.1509">
        <ele>180.5</ele>
        <time>2021-09-20T13:07:14Z</time>
      </trkpt>
      <trkpt lat="43.84806" lon="7.15088">
        <ele>180.4</ele>
        <time>2021-09-20T13:07:16Z</time>
      </trkpt>
      <trkpt lat="43.84805" lon="7.15087">
        <ele>179.8</ele>
        <time>2021-09-20T13:07:17Z</time>
      </trkpt>
      <trkpt lat="43.84805" lon="7.15086">
        <ele>179.8</ele>
        <time>2021-09-20T13:07:18Z</time>
      </trkpt>
      <trkpt lat="43.84804" lon="7.15086">
        <ele>179.7</ele>
        <time>2021-09-20T13:07:20Z</time>
      </trkpt>
      <trkpt lat="43.8489" lon="7.14813">
        <ele>161.1</ele>
        <time>2021-09-20T13:09:39Z</time>
      </trkpt>
      <trkpt lat="43.84894" lon="7.14811">
        <ele>161</ele>
        <time>2021-09-20T13:09:40Z</time>
      </trkpt>
      <trkpt lat="43.84897" lon="7.14811">
        <ele>160.9</ele>
        <time>2021-09-20T13:09:42Z</time>
      </trkpt>
      <trkpt lat="43.84898" lon="7.1481">
        <ele>160.9</ele>
        <time>2021-09-20T13:09:43Z</time>
      </trkpt>
      <trkpt lat="43.84898" lon="7.14809">
        <ele>160.9</ele>
        <time>2021-09-20T13:09:45Z</time>
      </trkpt>
      <trkpt lat="43.84898" lon="7.14808">
        <ele>160.9</ele>
        <time>2021-09-20T13:09:46Z</time>
      </trkpt>
      <trkpt lat="43.84898" lon="7.14808">
        <ele>160.9</ele>
        <time>2021-09-20T13:09:47Z</time>
      </trkpt>
      <trkpt lat="43.84898" lon="7.14808">
        <ele>160.9</ele>
        <time>2021-09-20T13:09:49Z</time>
      </trkpt>
      <trkpt lat="43.84899" lon="7.14807">
        <ele>160.8</ele>
        <time>2021-09-20T13:09:51Z</time>
      </trkpt>
      <trkpt lat="43.84865" lon="7.14497">
        <ele>156.2</ele>
        <time>2021-09-20T13:12:02Z</time>
      </trkpt>
      <trkpt lat="43.8485" lon="7.14504">
        <ele>156</ele>
        <time>2021-09-20T13:12:03Z</time>
      </trkpt>
      <trkpt lat="43.84825" lon="7.14519">
        <ele>155.1</ele>
        <time>2021-09-20T13:12:05Z</time>
      </trkpt>
      <trkpt lat="43.84794" lon="7.14539">
        <ele>152.7</ele>
        <time>2021-09-20T13:12:06Z</time>
      </trkpt>
      <trkpt lat="43.84765" lon="7.14559">
        <ele>151.5</ele>
        <time>2021-09-20T13:12:08Z</time>
      </trkpt>
      <trkpt lat="43.84757" lon="7.14565">
        <ele>151.4</ele>
        <time>2021-09-20T13:12:09Z</time>
      </trkpt>
      <trkpt lat="43.84749" lon="7.1457">
        <ele>151.3</ele>
        <time>2021-09-20T13:12:10Z</time>
      </trkpt>
      <trkpt lat="43.84733" lon="7.14585">
        <ele>150.4</ele>
        <time>2021-09-20T13:12:11Z</time>
      </trkpt>
      <trkpt lat="43.84721" lon="7.14595">
        <ele>149.7</ele>
        <time>2021-09-20T13:12:13Z</time>
      </trkpt>
      <trkpt lat="43.84674" lon="7.14676">
        <ele>147.3</ele>
        <time>2021-09-20T13:12:39Z</time>
      </trkpt>
      <trkpt lat="43.84671" lon="7.14681">
        <ele>147.3</ele>
        <time>2021-09-20T13:12:40Z</time>
      </trkpt>
      <trkpt lat="43.84667" lon="7.14688">
        <ele>147.2</ele>
        <time>2021-09-20T13:12:41Z</time>
      </trkpt>
      <trkpt lat="43.84661" lon="7.14696">
        <ele>147.2</ele>
        <time>2021-09-20T13:12:43Z</time>
      </trkpt>
      <trkpt lat="43.84656" lon="7.14702">
        <ele>147.2</ele>
        <time>2021-09-20T13:12:44Z</time>
      </trkpt>
      <trkpt lat="43.84653" lon="7.14705">
        <ele>147.2</ele>
        <time>2021-09-20T13:12:45Z</time>
      </trkpt>
      <trkpt lat="43.84651" lon="7.14708">
        <ele>147.2</ele>
        <time>2021-09-20T13:12:46Z</time>
      </trkpt>
      <trkpt lat="43.84648" lon="7.14711">
        <ele>147.2</ele>
        <time>2021-09-20T13:12:47Z</time>
      </trkpt>
      <trkpt lat="43.84647" lon="7.14712">
        <ele>147.2</ele>
        <time>2021-09-20T13:12:49Z</time>
      </trkpt>
      <trkpt lat="43.84646" lon="7.14713">
        <ele>147.2</ele>
        <time>2021-09-20T13:12:51Z</time>
      </trkpt>
      <trkpt lat="43.84646" lon="7.14898">
        <ele>143.1</ele>
        <time>2021-09-20T13:13:55Z</time>
      </trkpt>
      <trkpt lat="43.84638" lon="7.1491">
        <ele>142.8</ele>
        <time>2021-09-20T13:13:56Z</time>
      </trkpt>
      <trkpt lat="43.84631" lon="7.14931">
        <ele>142.4</ele>
        <time>2021-09-20T13:13:58Z</time>
      </trkpt>
      <trkpt lat="43.84622" lon="7.14943">
        <ele>142.3</ele>
        <time>2021-09-20T13:14:00Z</time>
      </trkpt>
      <trkpt lat="43.84618" lon="7.14949">
        <ele>142.3</ele>
        <time>2021-09-20T13:14:01Z</time>
      </trkpt>
      <trkpt lat="43.84611" lon="7.14954">
        <ele>142.2</ele>
        <time>2021-09-20T13:14:02Z</time>
      </trkpt>
      <trkpt lat="43.84607" lon="7.14959">
        <ele>142.2</ele>
        <time>2021-09-20T13:14:04Z</time>
      </trkpt>
      <trkpt lat="43.84605" lon="7.14964">
        <ele>142.2</ele>
        <time>2021-09-20T13:14:06Z</time>
      </trkpt>
      <trkpt lat="43.84604" lon="7.14968">
        <ele>142.2</ele>
        <time>2021-09-20T13:14:07Z</time>
      </trkpt>
      <trkpt lat="43.84602" lon="7.14974">
        <ele>142.1</ele>
        <time>2021-09-20T13:14:08Z</time>
      </trkpt>
      <trkpt lat="43.84599" lon="7.14982">
        <ele>142.1</ele>
        <time>2021-09-20T13:14:10Z</time>
      </trkpt>
      <trkpt lat="43.84599" lon="7.14989">
        <ele>142</ele>
        <time>2021-09-20T13:14:11Z</time>
      </trkpt>
      <trkpt lat="43.84598" lon="7.14997">
        <ele>142</ele>
        <time>2021-09-20T13:14:13Z</time>
      </trkpt>
      <trkpt lat="43.84597" lon="7.15001">
        <ele>142</ele>
        <time>2021-09-20T13:14:14Z</time>
      </trkpt>
      <trkpt lat="43.84595" lon="7.15009">
        <ele>141.9</ele>
        <time>2021-09-20T13:14:16Z</time>
      </trkpt>
      <trkpt lat="43.84591" lon="7.15017">
        <ele>141.9</ele>
        <time>2021-09-20T13:14:17Z</time>
      </trkpt>
      <trkpt lat="43.84585" lon="7.15033">
        <ele>141.9</ele>
        <time>2021-09-20T13:14:19Z</time>
      </trkpt>
      <trkpt lat="43.84581" lon="7.15046">
        <ele>141.9</ele>
        <time>2021-09-20T13:14:20Z</time>
      </trkpt>
      <trkpt lat="43.84578" lon="7.15055">
        <ele>141.9</ele>
        <time>2021-09-20T13:14:21Z</time>
      </trkpt>
      <trkpt lat="43.84577" lon="7.15062">
        <ele>141.9</ele>
        <time>2021-09-20T13:14:22Z</time>
      </trkpt>
      <trkpt lat="43.84573" lon="7.15074">
        <ele>141.9</ele>
        <time>2021-09-20T13:14:24Z</time>
      </trkpt>
      <trkpt lat="43.84568" lon="7.15087">
        <ele>141.9</ele>
        <time>2021-09-20T13:14:26Z</time>
      </trkpt>
      <trkpt lat="43.84561" lon="7.15098">
        <ele>142.1</ele>
        <time>2021-09-20T13:14:28Z</time>
      </trkpt>
      <trkpt lat="43.84557" lon="7.15105">
        <ele>142.4</ele>
        <time>2021-09-20T13:14:30Z</time>
      </trkpt>
      <trkpt lat="43.84554" lon="7.1511">
        <ele>142.5</ele>
        <time>2021-09-20T13:14:31Z</time>
      </trkpt>
      <trkpt lat="43.84551" lon="7.15114">
        <ele>142.8</ele>
        <time>2021-09-20T13:14:32Z</time>
      </trkpt>
      <trkpt lat="43.84547" lon="7.1512">
        <ele>143.1</ele>
        <time>2021-09-20T13:14:33Z</time>
      </trkpt>
      <trkpt lat="43.84544" lon="7.15125">
        <ele>143.4</ele>
        <time>2021-09-20T13:14:35Z</time>
      </trkpt>
      <trkpt lat="43.84542" lon="7.1513">
        <ele>143.7</ele>
        <time>2021-09-20T13:14:36Z</time>
      </trkpt>
      <trkpt lat="43.8454" lon="7.15134">
        <ele>143.9</ele>
        <time>2021-09-20T13:14:37Z</time>
      </trkpt>
      <trkpt lat="43.84539" lon="7.15139">
        <ele>144.1</ele>
        <time>2021-09-20T13:14:38Z</time>
      </trkpt>
      <trkpt lat="43.84538" lon="7.15144">
        <ele>144.3</ele>
        <time>2021-09-20T13:14:39Z</time>
      </trkpt>
      <trkpt lat="43.84538" lon="7.15149">
        <ele>144.4</ele>
        <time>2021-09-20T13:14:40Z</time>
      </trkpt>
      <trkpt lat="43.84538" lon="7.15154">
        <ele>144.6</ele>
        <time>2021-09-20T13:14:41Z</time>
      </trkpt>
      <trkpt lat="43.84538" lon="7.15158">
        <ele>144.7</ele>
        <time>2021-09-20T13:14:42Z</time>
      </trkpt>
      <trkpt lat="43.84538" lon="7.15162">
        <ele>144.7</ele>
        <time>2021-09-20T13:14:43Z</time>
      </trkpt>
      <trkpt lat="43.84537" lon="7.15167">
        <ele>144.8</ele>
        <time>2021-09-20T13:14:44Z</time>
      </trkpt>
      <trkpt lat="43.84535" lon="7.15173">
        <ele>144.9</ele>
        <time>2021-09-20T13:14:45Z</time>
      </trkpt>
      <trkpt lat="43.84534" lon="7.15178">
        <ele>145</ele>
        <time>2021-09-20T13:14:46Z</time>
      </trkpt>
      <trkpt lat="43.84532" lon="7.15184">
        <ele>145.1</ele>
        <time>2021-09-20T13:14:48Z</time>
      </trkpt>
      <trkpt lat="43.84531" lon="7.15192">
        <ele>145.1</ele>
        <time>2021-09-20T13:14:49Z</time>
      </trkpt>
      <trkpt lat="43.84531" lon="7.15197">
        <ele>145.1</ele>
        <time>2021-09-20T13:14:50Z</time>
      </trkpt>
      <trkpt lat="43.84533" lon="7.15205">
        <ele>145.1</ele>
        <time>2021-09-20T13:14:52Z</time>
      </trkpt>
      <trkpt lat="43.84534" lon="7.15215">
        <ele>145</ele>
        <time>2021-09-20T13:14:54Z</time>
      </trkpt>
      <trkpt lat="43.84537" lon="7.15225">
        <ele>145</ele>
        <time>2021-09-20T13:14:56Z</time>
      </trkpt>
      <trkpt lat="43.84538" lon="7.15234">
        <ele>144.9</ele>
        <time>2021-09-20T13:14:57Z</time>
      </trkpt>
      <trkpt lat="43.84538" lon="7.15238">
        <ele>144.9</ele>
        <time>2021-09-20T13:14:58Z</time>
      </trkpt>
      <trkpt lat="43.84536" lon="7.15244">
        <ele>144.8</ele>
        <time>2021-09-20T13:15:00Z</time>
      </trkpt>
      <trkpt lat="43.84532" lon="7.15249">
        <ele>144.7</ele>
        <time>2021-09-20T13:15:01Z</time>
      </trkpt>
      <trkpt lat="43.84527" lon="7.15255">
        <ele>144.7</ele>
        <time>2021-09-20T13:15:03Z</time>
      </trkpt>
      <trkpt lat="43.8452" lon="7.15261">
        <ele>144.6</ele>
        <time>2021-09-20T13:15:04Z</time>
      </trkpt>
      <trkpt lat="43.84515" lon="7.15267">
        <ele>144.6</ele>
        <time>2021-09-20T13:15:06Z</time>
      </trkpt>
      <trkpt lat="43.84511" lon="7.15272">
        <ele>144.6</ele>
        <time>2021-09-20T13:15:08Z</time>
      </trkpt>
      <trkpt lat="43.84508" lon="7.15276">
        <ele>144.6</ele>
        <time>2021-09-20T13:15:09Z</time>
      </trkpt>
      <trkpt lat="43.84506" lon="7.1528">
        <ele>144.6</ele>
        <time>2021-09-20T13:15:11Z</time>
      </trkpt>
      <trkpt lat="43.84505" lon="7.15282">
        <ele>144.6</ele>
        <time>2021-09-20T13:15:12Z</time>
      </trkpt>
      <trkpt lat="43.84502" lon="7.15284">
        <ele>144.6</ele>
        <time>2021-09-20T13:15:14Z</time>
      </trkpt>
      <trkpt lat="43.84497" lon="7.15288">
        <ele>144.6</ele>
        <time>2021-09-20T13:15:16Z</time>
      </trkpt>
      <trkpt lat="43.84494" lon="7.15291">
        <ele>144.6</ele>
        <time>2021-09-20T13:15:17Z</time>
      </trkpt>
      <trkpt lat="43.84492" lon="7.15292">
        <ele>144.6</ele>
        <time>2021-09-20T13:15:19Z</time>
      </trkpt>
      <trkpt lat="43.84487" lon="7.15826">
        <ele>141</ele>
        <time>2021-09-20T13:17:27Z</time>
      </trkpt>
      <trkpt lat="43.84479" lon="7.15836">
        <ele>140.9</ele>
        <time>2021-09-20T13:17:28Z</time>
      </trkpt>
      <trkpt lat="43.84463" lon="7.15856">
        <ele>140.8</ele>
        <time>2021-09-20T13:17:30Z</time>
      </trkpt>
      <trkpt lat="43.84454" lon="7.15871">
        <ele>140.7</ele>
        <time>2021-09-20T13:17:32Z</time>
      </trkpt>
      <trkpt lat="43.84449" lon="7.15877">
        <ele>140.7</ele>
        <time>2021-09-20T13:17:33Z</time>
      </trkpt>
      <trkpt lat="43.8444" lon="7.15888">
        <ele>140.6</ele>
        <time>2021-09-20T13:17:35Z</time>
      </trkpt>
      <trkpt lat="43.84435" lon="7.15895">
        <ele>140.6</ele>
        <time>2021-09-20T13:17:36Z</time>
      </trkpt>
      <trkpt lat="43.84425" lon="7.15909">
        <ele>140.4</ele>
        <time>2021-09-20T13:17:38Z</time>
      </trkpt>
      <trkpt lat="43.84421" lon="7.15916">
        <ele>140.3</ele>
        <time>2021-09-20T13:17:39Z</time>
      </trkpt>
      <trkpt lat="43.84416" lon="7.15922">
        <ele>140.2</ele>
        <time>2021-09-20T13:17:40Z</time>
      </trkpt>
      <trkpt lat="43.84405" lon="7.15931">
        <ele>140</ele>
        <time>2021-09-20T13:17:42Z</time>
      </trkpt>
      <trkpt lat="43.84395" lon="7.15942">
        <ele>139.7</ele>
        <time>2021-09-20T13:17:44Z</time>
      </trkpt>
      <trkpt lat="43.8439" lon="7.15947">
        <ele>139.6</ele>
        <time>2021-09-20T13:17:45Z</time>
      </trkpt>
      <trkpt lat="43.84385" lon="7.15953">
        <ele>139.5</ele>
        <time>2021-09-20T13:17:47Z</time>
      </trkpt>
      <trkpt lat="43.84382" lon="7.15958">
        <ele>139.4</ele>
        <time>2021-09-20T13:17:48Z</time>
      </trkpt>
      <trkpt lat="43.84379" lon="7.15961">
        <ele>139.3</ele>
        <time>2021-09-20T13:17:49Z</time>
      </trkpt>
      <trkpt lat="43.8437" lon="7.15968">
        <ele>139.2</ele>
        <time>2021-09-20T13:17:51Z</time>
      </trkpt>
      <trkpt lat="43.84366" lon="7.15972">
        <ele>139.1</ele>
        <time>2021-09-20T13:17:52Z</time>
      </trkpt>
      <trkpt lat="43.84363" lon="7.15974">
        <ele>139.1</ele>
        <time>2021-09-20T13:17:53Z</time>
      </trkpt>
      <trkpt lat="43.84359" lon="7.15977">
        <ele>139</ele>
        <time>2021-09-20T13:17:55Z</time>
      </trkpt>
      <trkpt lat="43.84355" lon="7.15979">
        <ele>138.9</ele>
        <time>2021-09-20T13:17:56Z</time>
      </trkpt>
      <trkpt lat="43.84353" lon="7.15978">
        <ele>138.9</ele>
        <time>2021-09-20T13:17:57Z</time>
      </trkpt>
      <trkpt lat="43.84346" lon="7.15979">
        <ele>138.8</ele>
        <time>2021-09-20T13:17:58Z</time>
      </trkpt>
      <trkpt lat="43.84343" lon="7.1598">
        <ele>138.8</ele>
        <time>2021-09-20T13:18:00Z</time>
      </trkpt>
      <trkpt lat="43.84342" lon="7.15981">
        <ele>138.7</ele>
        <time>2021-09-20T13:18:01Z</time>
      </trkpt>
      <trkpt lat="43.84341" lon="7.15982">
        <ele>138.7</ele>
        <time>2021-09-20T13:18:02Z</time>
      </trkpt>
      <trkpt lat="43.8434" lon="7.15984">
        <ele>138.7</ele>
        <time>2021-09-20T13:18:04Z</time>
      </trkpt>
      <trkpt lat="43.84339" lon="7.15986">
        <ele>138.7</ele>
        <time>2021-09-20T13:18:05Z</time>
      </trkpt>
      <trkpt lat="43.84335" lon="7.15996">
        <ele>138.6</ele>
        <time>2021-09-20T13:18:06Z</time>
      </trkpt>
      <trkpt lat="43.84329" lon="7.16093">
        <ele>138.1</ele>
        <time>2021-09-20T13:18:16Z</time>
      </trkpt>
      <trkpt lat="43.84327" lon="7.16131">
        <ele>137.9</ele>
        <time>2021-09-20T13:18:18Z</time>
      </trkpt>
      <trkpt lat="43.84326" lon="7.16156">
        <ele>137.8</ele>
        <time>2021-09-20T13:18:20Z</time>
      </trkpt>
      <trkpt lat="43.84324" lon="7.16166">
        <ele>137.7</ele>
        <time>2021-09-20T13:18:21Z</time>
      </trkpt>
      <trkpt lat="43.84324" lon="7.16174">
        <ele>137.7</ele>
        <time>2021-09-20T13:18:22Z</time>
      </trkpt>
      <trkpt lat="43.84323" lon="7.16189">
        <ele>137.7</ele>
        <time>2021-09-20T13:18:24Z</time>
      </trkpt>
      <trkpt lat="43.84323" lon="7.16198">
        <ele>137.7</ele>
        <time>2021-09-20T13:18:25Z</time>
      </trkpt>
      <trkpt lat="43.84322" lon="7.16213">
        <ele>137.6</ele>
        <time>2021-09-20T13:18:27Z</time>
      </trkpt>
      <trkpt lat="43.84321" lon="7.16229">
        <ele>137.6</ele>
        <time>2021-09-20T13:18:29Z</time>
      </trkpt>
      <trkpt lat="43.84321" lon="7.16236">
        <ele>137.6</ele>
        <time>2021-09-20T13:18:30Z</time>
      </trkpt>
      <trkpt lat="43.84324" lon="7.16252">
        <ele>137.5</ele>
        <time>2021-09-20T13:18:32Z</time>
      </trkpt>
      <trkpt lat="43.84325" lon="7.16259">
        <ele>137.5</ele>
        <time>2021-09-20T13:18:33Z</time>
      </trkpt>
      <trkpt lat="43.84328" lon="7.16271">
        <ele>137.5</ele>
        <time>2021-09-20T13:18:35Z</time>
      </trkpt>
      <trkpt lat="43.84327" lon="7.16278">
        <ele>137.4</ele>
        <time>2021-09-20T13:18:36Z</time>
      </trkpt>
      <trkpt lat="43.84327" lon="7.16286">
        <ele>137.4</ele>
        <time>2021-09-20T13:18:37Z</time>
      </trkpt>
      <trkpt lat="43.84326" lon="7.16294">
        <ele>137.4</ele>
        <time>2021-09-20T13:18:38Z</time>
      </trkpt>
      <trkpt lat="43.84326" lon="7.16299">
        <ele>137.3</ele>
        <time>2021-09-20T13:18:39Z</time>
      </trkpt>
      <trkpt lat="43.84326" lon="7.16313">
        <ele>137.2</ele>
        <time>2021-09-20T13:18:41Z</time>
      </trkpt>
      <trkpt lat="43.84326" lon="7.16322">
        <ele>137.2</ele>
        <time>2021-09-20T13:18:42Z</time>
      </trkpt>
      <trkpt lat="43.84326" lon="7.1633">
        <ele>137.1</ele>
        <time>2021-09-20T13:18:43Z</time>
      </trkpt>
      <trkpt lat="43.84326" lon="7.16346">
        <ele>136.8</ele>
        <time>2021-09-20T13:18:45Z</time>
      </trkpt>
      <trkpt lat="43.84326" lon="7.16358">
        <ele>136.7</ele>
        <time>2021-09-20T13:18:46Z</time>
      </trkpt>
      <trkpt lat="43.84326" lon="7.16369">
        <ele>136.6</ele>
        <time>2021-09-20T13:18:47Z</time>
      </trkpt>
      <trkpt lat="43.84326" lon="7.16372">
        <ele>136.5</ele>
        <time>2021-09-20T13:18:49Z</time>
      </trkpt>
      <trkpt lat="43.84103" lon="7.16557">
        <ele>135.3</ele>
        <time>2021-09-20T13:19:54Z</time>
      </trkpt>
      <trkpt lat="43.84093" lon="7.16579">
        <ele>135.2</ele>
        <time>2021-09-20T13:19:55Z</time>
      </trkpt>
      <trkpt lat="43.84086" lon="7.16596">
        <ele>135.1</ele>
        <time>2021-09-20T13:19:56Z</time>
      </trkpt>
      <trkpt lat="43.84078" lon="7.1662">
        <ele>135</ele>
        <time>2021-09-20T13:19:58Z</time>
      </trkpt>
      <trkpt lat="43.84077" lon="7.16629">
        <ele>134.9</ele>
        <time>2021-09-20T13:19:59Z</time>
      </trkpt>
      <trkpt lat="43.84076" lon="7.16644">
        <ele>134.8</ele>
        <time>2021-09-20T13:20:00Z</time>
      </trkpt>
      <trkpt lat="43.84074" lon="7.16652">
        <ele>134.7</ele>
        <time>2021-09-20T13:20:01Z</time>
      </trkpt>
      <trkpt lat="43.8407" lon="7.16667">
        <ele>134.4</ele>
        <time>2021-09-20T13:20:03Z</time>
      </trkpt>
      <trkpt lat="43.84068" lon="7.16674">
        <ele>134.3</ele>
        <time>2021-09-20T13:20:04Z</time>
      </trkpt>
      <trkpt lat="43.84067" lon="7.1668">
        <ele>134.2</ele>
        <time>2021-09-20T13:20:05Z</time>
      </trkpt>
      <trkpt lat="43.84065" lon="7.16688">
        <ele>134.1</ele>
        <time>2021-09-20T13:20:07Z</time>
      </trkpt>
      <trkpt lat="43.84063" lon="7.16692">
        <ele>134</ele>
        <time>2021-09-20T13:20:08Z</time>
      </trkpt>
      <trkpt lat="43.84055" lon="7.16701">
        <ele>133.8</ele>
        <time>2021-09-20T13:20:10Z</time>
      </trkpt>
      <trkpt lat="43.8405" lon="7.16708">
        <ele>133.6</ele>
        <time>2021-09-20T13:20:11Z</time>
      </trkpt>
      <trkpt lat="43.84047" lon="7.16712">
        <ele>133.5</ele>
        <time>2021-09-20T13:20:13Z</time>
      </trkpt>
      <trkpt lat="43.8404" lon="7.1672">
        <ele>133.2</ele>
        <time>2021-09-20T13:20:14Z</time>
      </trkpt>
      <trkpt lat="43.84036" lon="7.16726">
        <ele>133</ele>
        <time>2021-09-20T13:20:16Z</time>
      </trkpt>
      <trkpt lat="43.84" lon="7.16862">
        <ele>130.9</ele>
        <time>2021-09-20T13:20:33Z</time>
      </trkpt>
      <trkpt lat="43.83994" lon="7.1688">
        <ele>130.6</ele>
        <time>2021-09-20T13:20:35Z</time>
      </trkpt>
      <trkpt lat="43.83992" lon="7.16882">
        <ele>130.6</ele>
        <time>2021-09-20T13:20:36Z</time>
      </trkpt>
      <trkpt lat="43.83988" lon="7.16892">
        <ele>130.4</ele>
        <time>2021-09-20T13:20:38Z</time>
      </trkpt>
      <trkpt lat="43.83988" lon="7.16899">
        <ele>130.3</ele>
        <time>2021-09-20T13:20:40Z</time>
      </trkpt>
      <trkpt lat="43.83984" lon="7.16908">
        <ele>130.1</ele>
        <time>2021-09-20T13:20:42Z</time>
      </trkpt>
      <trkpt lat="43.83982" lon="7.16912">
        <ele>130</ele>
        <time>2021-09-20T13:20:44Z</time>
      </trkpt>
      <trkpt lat="43.83982" lon="7.16915">
        <ele>130</ele>
        <time>2021-09-20T13:20:45Z</time>
      </trkpt>
      <trkpt lat="43.83981" lon="7.16918">
        <ele>129.9</ele>
        <time>2021-09-20T13:20:47Z</time>
      </trkpt>
      <trkpt lat="43.83981" lon="7.1692">
        <ele>129.9</ele>
        <time>2021-09-20T13:20:48Z</time>
      </trkpt>
      <trkpt lat="43.83723" lon="7.17207">
        <ele>128.3</ele>
        <time>2021-09-20T13:22:27Z</time>
      </trkpt>
      <trkpt lat="43.83722" lon="7.17207">
        <ele>128.3</ele>
        <time>2021-09-20T13:22:28Z</time>
      </trkpt>
      <trkpt lat="43.8372" lon="7.17206">
        <ele>128.3</ele>
        <time>2021-09-20T13:22:29Z</time>
      </trkpt>
      <trkpt lat="43.83649" lon="7.1719">
        <ele>128.1</ele>
        <time>2021-09-20T13:22:31Z</time>
      </trkpt>
      <trkpt lat="43.83637" lon="7.17187">
        <ele>128</ele>
        <time>2021-09-20T13:22:33Z</time>
      </trkpt>
      <trkpt lat="43.83634" lon="7.17188">
        <ele>128</ele>
        <time>2021-09-20T13:22:35Z</time>
      </trkpt>
      <trkpt lat="43.83634" lon="7.17189">
        <ele>128</ele>
        <time>2021-09-20T13:22:36Z</time>
      </trkpt>
      <trkpt lat="43.83634" lon="7.17191">
        <ele>128</ele>
        <time>2021-09-20T13:22:38Z</time>
      </trkpt>
      <trkpt lat="43.83635" lon="7.17192">
        <ele>128</ele>
        <time>2021-09-20T13:22:39Z</time>
      </trkpt>
      <trkpt lat="43.83635" lon="7.17193">
        <ele>128</ele>
        <time>2021-09-20T13:22:40Z</time>
      </trkpt>
      <trkpt lat="43.83635" lon="7.17195">
        <ele>128</ele>
        <time>2021-09-20T13:22:42Z</time>
      </trkpt>
      <trkpt lat="43.83635" lon="7.17197">
        <ele>128</ele>
        <time>2021-09-20T13:22:44Z</time>
      </trkpt>
      <trkpt lat="43.83635" lon="7.17198">
        <ele>128</ele>
        <time>2021-09-20T13:22:45Z</time>
      </trkpt>
      <trkpt lat="43.83635" lon="7.17198">
        <ele>128</ele>
        <time>2021-09-20T13:22:46Z</time>
      </trkpt>
      <trkpt lat="43.83634" lon="7.17198">
        <ele>128</ele>
        <time>2021-09-20T13:22:47Z</time>
      </trkpt>
      <trkpt lat="43.83632" lon="7.17197">
        <ele>128</ele>
        <time>2021-09-20T13:22:49Z</time>
      </trkpt>
      <trkpt lat="43.83631" lon="7.17196">
        <ele>128</ele>
        <time>2021-09-20T13:22:50Z</time>
      </trkpt>
      <trkpt lat="43.8363" lon="7.17195">
        <ele>128</ele>
        <time>2021-09-20T13:22:52Z</time>
      </trkpt>
      <trkpt lat="43.83629" lon="7.17195">
        <ele>128</ele>
        <time>2021-09-20T13:22:53Z</time>
      </trkpt>
      <trkpt lat="43.83628" lon="7.17194">
        <ele>128</ele>
        <time>2021-09-20T13:22:55Z</time>
      </trkpt>
      <trkpt lat="43.83627" lon="7.17193">
        <ele>127.9</ele>
        <time>2021-09-20T13:22:57Z</time>
      </trkpt>
      <trkpt lat="43.83627" lon="7.17193">
        <ele>127.9</ele>
        <time>2021-09-20T13:22:58Z</time>
      </trkpt>
      <trkpt lat="43.83627" lon="7.17192">
        <ele>127.9</ele>
        <time>2021-09-20T13:22:59Z</time>
      </trkpt>
      <trkpt lat="43.83626" lon="7.17192">
        <ele>127.9</ele>
        <time>2021-09-20T13:23:01Z</time>
      </trkpt>
      <trkpt lat="43.83624" lon="7.17192">
        <ele>127.9</ele>
        <time>2021-09-20T13:23:03Z</time>
      </trkpt>
      <trkpt lat="43.83622" lon="7.17192">
        <ele>127.9</ele>
        <time>2021-09-20T13:23:04Z</time>
      </trkpt>
      <trkpt lat="43.83621" lon="7.17192">
        <ele>127.7</ele>
        <time>2021-09-20T13:23:05Z</time>
      </trkpt>
      <trkpt lat="43.8362" lon="7.17193">
        <ele>127.7</ele>
        <time>2021-09-20T13:23:07Z</time>
      </trkpt>
      <trkpt lat="43.8362" lon="7.17193">
        <ele>127.7</ele>
        <time>2021-09-20T13:23:08Z</time>
      </trkpt>
      <trkpt lat="43.83619" lon="7.17193">
        <ele>127.6</ele>
        <time>2021-09-20T13:23:10Z</time>
      </trkpt>
      <trkpt lat="43.83619" lon="7.17193">
        <ele>127.6</ele>
        <time>2021-09-20T13:23:11Z</time>
      </trkpt>
      <trkpt lat="43.83619" lon="7.17194">
        <ele>127.6</ele>
        <time>2021-09-20T13:23:12Z</time>
      </trkpt>
      <trkpt lat="43.83618" lon="7.17194">
        <ele>127.6</ele>
        <time>2021-09-20T13:23:13Z</time>
      </trkpt>
      <trkpt lat="43.83618" lon="7.17194">
        <ele>127.6</ele>
        <time>2021-09-20T13:23:15Z</time>
      </trkpt>
      <trkpt lat="43.83619" lon="7.17196">
        <ele>127.6</ele>
        <time>2021-09-20T13:23:16Z</time>
      </trkpt>
      <trkpt lat="43.8362" lon="7.17197">
        <ele>127.6</ele>
        <time>2021-09-20T13:23:18Z</time>
      </trkpt>
      <trkpt lat="43.83621" lon="7.17198">
        <ele>127.6</ele>
        <time>2021-09-20T13:23:19Z</time>
      </trkpt>
      <trkpt lat="43.83623" lon="7.17199">
        <ele>127.6</ele>
        <time>2021-09-20T13:23:20Z</time>
      </trkpt>
      <trkpt lat="43.83624" lon="7.172">
        <ele>127.6</ele>
        <time>2021-09-20T13:23:22Z</time>
      </trkpt>
      <trkpt lat="43.83625" lon="7.17204">
        <ele>127.6</ele>
        <time>2021-09-20T13:23:24Z</time>
      </trkpt>
      <trkpt lat="43.83626" lon="7.17217">
        <ele>127.5</ele>
        <time>2021-09-20T13:23:25Z</time>
      </trkpt>
      <trkpt lat="43.83627" lon="7.17227">
        <ele>127.1</ele>
        <time>2021-09-20T13:23:27Z</time>
      </trkpt>
      <trkpt lat="43.83632" lon="7.1724">
        <ele>126.7</ele>
        <time>2021-09-20T13:23:28Z</time>
      </trkpt>
      <trkpt lat="43.83637" lon="7.17252">
        <ele>126.3</ele>
        <time>2021-09-20T13:23:29Z</time>
      </trkpt>
      <trkpt lat="43.8364" lon="7.17263">
        <ele>126.1</ele>
        <time>2021-09-20T13:23:30Z</time>
      </trkpt>
      <trkpt lat="43.8364" lon="7.17281">
        <ele>125.8</ele>
        <time>2021-09-20T13:23:32Z</time>
      </trkpt>
      <trkpt lat="43.83635" lon="7.17295">
        <ele>125.5</ele>
        <time>2021-09-20T13:23:34Z</time>
      </trkpt>
      <trkpt lat="43.83626" lon="7.17307">
        <ele>125.3</ele>
        <time>2021-09-20T13:23:36Z</time>
      </trkpt>
      <trkpt lat="43.83624" lon="7.17312">
        <ele>125.3</ele>
        <time>2021-09-20T13:23:38Z</time>
      </trkpt>
      <trkpt lat="43.8362" lon="7.17314">
        <ele>125.2</ele>
        <time>2021-09-20T13:23:39Z</time>
      </trkpt>
      <trkpt lat="43.83605" lon="7.17327">
        <ele>125.1</ele>
        <time>2021-09-20T13:23:41Z</time>
      </trkpt>
      <trkpt lat="43.83599" lon="7.17329">
        <ele>125</ele>
        <time>2021-09-20T13:23:42Z</time>
      </trkpt>
      <trkpt lat="43.83588" lon="7.17334">
        <ele>125</ele>
        <time>2021-09-20T13:23:44Z</time>
      </trkpt>
      <trkpt lat="43.83584" lon="7.17335">
        <ele>125</ele>
        <time>2021-09-20T13:23:45Z</time>
      </trkpt>
      <trkpt lat="43.8358" lon="7.17335">
        <ele>124.9</ele>
        <time>2021-09-20T13:23:46Z</time>
      </trkpt>
      <trkpt lat="43.83574" lon="7.17336">
        <ele>124.9</ele>
        <time>2021-09-20T13:23:48Z</time>
      </trkpt>
      <trkpt lat="43.83568" lon="7.17342">
        <ele>124.9</ele>
        <time>2021-09-20T13:23:50Z</time>
      </trkpt>
      <trkpt lat="43.83561" lon="7.17346">
        <ele>124.9</ele>
        <time>2021-09-20T13:23:52Z</time>
      </trkpt>
      <trkpt lat="43.83556" lon="7.17348">
        <ele>124.9</ele>
        <time>2021-09-20T13:23:53Z</time>
      </trkpt>
      <trkpt lat="43.83553" lon="7.17351">
        <ele>124.9</ele>
        <time>2021-09-20T13:23:54Z</time>
      </trkpt>
      <trkpt lat="43.83548" lon="7.17355">
        <ele>124.9</ele>
        <time>2021-09-20T13:23:55Z</time>
      </trkpt>
      <trkpt lat="43.83543" lon="7.17359">
        <ele>124.8</ele>
        <time>2021-09-20T13:23:57Z</time>
      </trkpt>
      <trkpt lat="43.83538" lon="7.1736">
        <ele>124.8</ele>
        <time>2021-09-20T13:23:58Z</time>
      </trkpt>
      <trkpt lat="43.83534" lon="7.17362">
        <ele>124.8</ele>
        <time>2021-09-20T13:23:59Z</time>
      </trkpt>
      <trkpt lat="43.83529" lon="7.17365">
        <ele>124.8</ele>
        <time>2021-09-20T13:24:00Z</time>
      </trkpt>
      <trkpt lat="43.83523" lon="7.17369">
        <ele>124.8</ele>
        <time>2021-09-20T13:24:01Z</time>
      </trkpt>
      <trkpt lat="43.83519" lon="7.17372">
        <ele>124.8</ele>
        <time>2021-09-20T13:24:02Z</time>
      </trkpt>
      <trkpt lat="43.83515" lon="7.17375">
        <ele>124.8</ele>
        <time>2021-09-20T13:24:03Z</time>
      </trkpt>
      <trkpt lat="43.83509" lon="7.1738">
        <ele>124.8</ele>
        <time>2021-09-20T13:24:05Z</time>
      </trkpt>
      <trkpt lat="43.83503" lon="7.17383">
        <ele>124.8</ele>
        <time>2021-09-20T13:24:06Z</time>
      </trkpt>
      <trkpt lat="43.83498" lon="7.17385">
        <ele>124.8</ele>
        <time>2021-09-20T13:24:07Z</time>
      </trkpt>
      <trkpt lat="43.83494" lon="7.17387">
        <ele>124.8</ele>
        <time>2021-09-20T13:24:08Z</time>
      </trkpt>
      <trkpt lat="43.83483" lon="7.17388">
        <ele>124.8</ele>
        <time>2021-09-20T13:24:10Z</time>
      </trkpt>
      <trkpt lat="43.83478" lon="7.17389">
        <ele>124.7</ele>
        <time>2021-09-20T13:24:11Z</time>
      </trkpt>
      <trkpt lat="43.83469" lon="7.17392">
        <ele>124.7</ele>
        <time>2021-09-20T13:24:13Z</time>
      </trkpt>
      <trkpt lat="43.83463" lon="7.17396">
        <ele>124.7</ele>
        <time>2021-09-20T13:24:14Z</time>
      </trkpt>
      <trkpt lat="43.8346" lon="7.17399">
        <ele>124.7</ele>
        <time>2021-09-20T13:24:15Z</time>
      </trkpt>
      <trkpt lat="43.83457" lon="7.17401">
        <ele>124.6</ele>
        <time>2021-09-20T13:24:16Z</time>
      </trkpt>
      <trkpt lat="43.83452" lon="7.17405">
        <ele>124.6</ele>
        <time>2021-09-20T13:24:18Z</time>
      </trkpt>
      <trkpt lat="43.83441" lon="7.1741">
        <ele>124.6</ele>
        <time>2021-09-20T13:24:20Z</time>
      </trkpt>
      <trkpt lat="43.83434" lon="7.1741">
        <ele>124.6</ele>
        <time>2021-09-20T13:24:21Z</time>
      </trkpt>
      <trkpt lat="43.8343" lon="7.17413">
        <ele>124.6</ele>
        <time>2021-09-20T13:24:22Z</time>
      </trkpt>
      <trkpt lat="43.83425" lon="7.17415">
        <ele>124.6</ele>
        <time>2021-09-20T13:24:23Z</time>
      </trkpt>
      <trkpt lat="43.83421" lon="7.17418">
        <ele>124.6</ele>
        <time>2021-09-20T13:24:24Z</time>
      </trkpt>
      <trkpt lat="43.83417" lon="7.17421">
        <ele>124.5</ele>
        <time>2021-09-20T13:24:26Z</time>
      </trkpt>
      <trkpt lat="43.83408" lon="7.17427">
        <ele>124.5</ele>
        <time>2021-09-20T13:24:28Z</time>
      </trkpt>
      <trkpt lat="43.83404" lon="7.1743">
        <ele>124.5</ele>
        <time>2021-09-20T13:24:29Z</time>
      </trkpt>
      <trkpt lat="43.83397" lon="7.17434">
        <ele>124.4</ele>
        <time>2021-09-20T13:24:30Z</time>
      </trkpt>
      <trkpt lat="43.83391" lon="7.17438">
        <ele>124.4</ele>
        <time>2021-09-20T13:24:32Z</time>
      </trkpt>
      <trkpt lat="43.83387" lon="7.17441">
        <ele>124.3</ele>
        <time>2021-09-20T13:24:33Z</time>
      </trkpt>
      <trkpt lat="43.83379" lon="7.17445">
        <ele>124.3</ele>
        <time>2021-09-20T13:24:34Z</time>
      </trkpt>
      <trkpt lat="43.83375" lon="7.17448">
        <ele>124.3</ele>
        <time>2021-09-20T13:24:35Z</time>
      </trkpt>
      <trkpt lat="43.83368" lon="7.17454">
        <ele>124.2</ele>
        <time>2021-09-20T13:24:37Z</time>
      </trkpt>
      <trkpt lat="43.83363" lon="7.17459">
        <ele>124.2</ele>
        <time>2021-09-20T13:24:38Z</time>
      </trkpt>
      <trkpt lat="43.83358" lon="7.17461">
        <ele>124.2</ele>
        <time>2021-09-20T13:24:39Z</time>
      </trkpt>
      <trkpt lat="43.83351" lon="7.17466">
        <ele>124.1</ele>
        <time>2021-09-20T13:24:41Z</time>
      </trkpt>
      <trkpt lat="43.83347" lon="7.17469">
        <ele>124.1</ele>
        <time>2021-09-20T13:24:42Z</time>
      </trkpt>
      <trkpt lat="43.83343" lon="7.17475">
        <ele>124</ele>
        <time>2021-09-20T13:24:44Z</time>
      </trkpt>
      <trkpt lat="43.83339" lon="7.17481">
        <ele>124</ele>
        <time>2021-09-20T13:24:45Z</time>
      </trkpt>
      <trkpt lat="43.83335" lon="7.17487">
        <ele>123.9</ele>
        <time>2021-09-20T13:24:47Z</time>
      </trkpt>
      <trkpt lat="43.83332" lon="7.17492">
        <ele>123.9</ele>
        <time>2021-09-20T13:24:48Z</time>
      </trkpt>
      <trkpt lat="43.83327" lon="7.17498">
        <ele>123.8</ele>
        <time>2021-09-20T13:24:49Z</time>
      </trkpt>
      <trkpt lat="43.83322" lon="7.17503">
        <ele>123.7</ele>
        <time>2021-09-20T13:24:50Z</time>
      </trkpt>
      <trkpt lat="43.83318" lon="7.17507">
        <ele>123.7</ele>
        <time>2021-09-20T13:24:52Z</time>
      </trkpt>
      <trkpt lat="43.83314" lon="7.1751">
        <ele>123.6</ele>
        <time>2021-09-20T13:24:53Z</time>
      </trkpt>
      <trkpt lat="43.83308" lon="7.17515">
        <ele>123.5</ele>
        <time>2021-09-20T13:24:55Z</time>
      </trkpt>
      <trkpt lat="43.83303" lon="7.17519">
        <ele>123.4</ele>
        <time>2021-09-20T13:24:56Z</time>
      </trkpt>
      <trkpt lat="43.83296" lon="7.17525">
        <ele>123.3</ele>
        <time>2021-09-20T13:24:58Z</time>
      </trkpt>
      <trkpt lat="43.83292" lon="7.17532">
        <ele>123.2</ele>
        <time>2021-09-20T13:25:00Z</time>
      </trkpt>
      <trkpt lat="43.83288" lon="7.17538">
        <ele>123.1</ele>
        <time>2021-09-20T13:25:01Z</time>
      </trkpt>
      <trkpt lat="43.83283" lon="7.17541">
        <ele>123</ele>
        <time>2021-09-20T13:25:02Z</time>
      </trkpt>
      <trkpt lat="43.83274" lon="7.17546">
        <ele>122.9</ele>
        <time>2021-09-20T13:25:04Z</time>
      </trkpt>
      <trkpt lat="43.83273" lon="7.17551">
        <ele>122.9</ele>
        <time>2021-09-20T13:25:06Z</time>
      </trkpt>
      <trkpt lat="43.83271" lon="7.17552">
        <ele>122.8</ele>
        <time>2021-09-20T13:25:07Z</time>
      </trkpt>
      <trkpt lat="43.83261" lon="7.17557">
        <ele>122.7</ele>
        <time>2021-09-20T13:25:09Z</time>
      </trkpt>
      <trkpt lat="43.83252" lon="7.1756">
        <ele>122.6</ele>
        <time>2021-09-20T13:25:10Z</time>
      </trkpt>
      <trkpt lat="43.83247" lon="7.17564">
        <ele>122.5</ele>
        <time>2021-09-20T13:25:11Z</time>
      </trkpt>
      <trkpt lat="43.83244" lon="7.17568">
        <ele>122.5</ele>
        <time>2021-09-20T13:25:12Z</time>
      </trkpt>
      <trkpt lat="43.83245" lon="7.17571">
        <ele>122.4</ele>
        <time>2021-09-20T13:25:13Z</time>
      </trkpt>
      <trkpt lat="43.83235" lon="7.17582">
        <ele>122.2</ele>
        <time>2021-09-20T13:25:16Z</time>
      </trkpt>
      <trkpt lat="43.83229" lon="7.17587">
        <ele>122.2</ele>
        <time>2021-09-20T13:25:18Z</time>
      </trkpt>
      <trkpt lat="43.83223" lon="7.17591">
        <ele>122.1</ele>
        <time>2021-09-20T13:25:19Z</time>
      </trkpt>
      <trkpt lat="43.83214" lon="7.17595">
        <ele>121.9</ele>
        <time>2021-09-20T13:25:21Z</time>
      </trkpt>
      <trkpt lat="43.83208" lon="7.17597">
        <ele>121.8</ele>
        <time>2021-09-20T13:25:22Z</time>
      </trkpt>
      <trkpt lat="43.832" lon="7.176">
        <ele>121.7</ele>
        <time>2021-09-20T13:25:23Z</time>
      </trkpt>
      <trkpt lat="43.83192" lon="7.17604">
        <ele>121.6</ele>
        <time>2021-09-20T13:25:25Z</time>
      </trkpt>
      <trkpt lat="43.83185" lon="7.17606">
        <ele>121.5</ele>
        <time>2021-09-20T13:25:26Z</time>
      </trkpt>
      <trkpt lat="43.8318" lon="7.17608">
        <ele>121.5</ele>
        <time>2021-09-20T13:25:27Z</time>
      </trkpt>
      <trkpt lat="43.83172" lon="7.17613">
        <ele>121.4</ele>
        <time>2021-09-20T13:25:29Z</time>
      </trkpt>
      <trkpt lat="43.83166" lon="7.17618">
        <ele>121.3</ele>
        <time>2021-09-20T13:25:30Z</time>
      </trkpt>
      <trkpt lat="43.83156" lon="7.17624">
        <ele>121.2</ele>
        <time>2021-09-20T13:25:32Z</time>
      </trkpt>
      <trkpt lat="43.83153" lon="7.17626">
        <ele>121.1</ele>
        <time>2021-09-20T13:25:33Z</time>
      </trkpt>
      <trkpt lat="43.8315" lon="7.17627">
        <ele>121.1</ele>
        <time>2021-09-20T13:25:34Z</time>
      </trkpt>
      <trkpt lat="43.83145" lon="7.17635">
        <ele>121</ele>
        <time>2021-09-20T13:25:36Z</time>
      </trkpt>
      <trkpt lat="43.83141" lon="7.17644">
        <ele>120.9</ele>
        <time>2021-09-20T13:25:37Z</time>
      </trkpt>
      <trkpt lat="43.83138" lon="7.17649">
        <ele>120.8</ele>
        <time>2021-09-20T13:25:38Z</time>
      </trkpt>
      <trkpt lat="43.83132" lon="7.17653">
        <ele>120.8</ele>
        <time>2021-09-20T13:25:39Z</time>
      </trkpt>
      <trkpt lat="43.83129" lon="7.17657">
        <ele>120.8</ele>
        <time>2021-09-20T13:25:40Z</time>
      </trkpt>
      <trkpt lat="43.83122" lon="7.17666">
        <ele>120.7</ele>
        <time>2021-09-20T13:25:42Z</time>
      </trkpt>
      <trkpt lat="43.83117" lon="7.17671">
        <ele>120.6</ele>
        <time>2021-09-20T13:25:43Z</time>
      </trkpt>
      <trkpt lat="43.83108" lon="7.17679">
        <ele>120.5</ele>
        <time>2021-09-20T13:25:45Z</time>
      </trkpt>
      <trkpt lat="43.83104" lon="7.17683">
        <ele>120.5</ele>
        <time>2021-09-20T13:25:46Z</time>
      </trkpt>
      <trkpt lat="43.83097" lon="7.1769">
        <ele>120.4</ele>
        <time>2021-09-20T13:25:48Z</time>
      </trkpt>
      <trkpt lat="43.83093" lon="7.17695">
        <ele>120.3</ele>
        <time>2021-09-20T13:25:49Z</time>
      </trkpt>
      <trkpt lat="43.83085" lon="7.17704">
        <ele>120.2</ele>
        <time>2021-09-20T13:25:51Z</time>
      </trkpt>
      <trkpt lat="43.83081" lon="7.17708">
        <ele>120.2</ele>
        <time>2021-09-20T13:25:52Z</time>
      </trkpt>
      <trkpt lat="43.83077" lon="7.17712">
        <ele>120.2</ele>
        <time>2021-09-20T13:25:53Z</time>
      </trkpt>
      <trkpt lat="43.83069" lon="7.1772">
        <ele>120.1</ele>
        <time>2021-09-20T13:25:55Z</time>
      </trkpt>
      <trkpt lat="43.83064" lon="7.17724">
        <ele>120</ele>
        <time>2021-09-20T13:25:56Z</time>
      </trkpt>
      <trkpt lat="43.8306" lon="7.17727">
        <ele>120</ele>
        <time>2021-09-20T13:25:57Z</time>
      </trkpt>
      <trkpt lat="43.83051" lon="7.17731">
        <ele>119.9</ele>
        <time>2021-09-20T13:25:59Z</time>
      </trkpt>
      <trkpt lat="43.8304" lon="7.17737">
        <ele>119.8</ele>
        <time>2021-09-20T13:26:01Z</time>
      </trkpt>
      <trkpt lat="43.83035" lon="7.1774">
        <ele>119.7</ele>
        <time>2021-09-20T13:26:02Z</time>
      </trkpt>
      <trkpt lat="43.83027" lon="7.17746">
        <ele>119.6</ele>
        <time>2021-09-20T13:26:04Z</time>
      </trkpt>
      <trkpt lat="43.83023" lon="7.17749">
        <ele>119.6</ele>
        <time>2021-09-20T13:26:05Z</time>
      </trkpt>
      <trkpt lat="43.83019" lon="7.17751">
        <ele>119.5</ele>
        <time>2021-09-20T13:26:06Z</time>
      </trkpt>
      <trkpt lat="43.8301" lon="7.17757">
        <ele>119.4</ele>
        <time>2021-09-20T13:26:08Z</time>
      </trkpt>
      <trkpt lat="43.83006" lon="7.17759">
        <ele>119.4</ele>
        <time>2021-09-20T13:26:09Z</time>
      </trkpt>
      <trkpt lat="43.83001" lon="7.17766">
        <ele>119.3</ele>
        <time>2021-09-20T13:26:11Z</time>
      </trkpt>
      <trkpt lat="43.82997" lon="7.17768">
        <ele>119.3</ele>
        <time>2021-09-20T13:26:12Z</time>
      </trkpt>
      <trkpt lat="43.82988" lon="7.17775">
        <ele>119.2</ele>
        <time>2021-09-20T13:26:14Z</time>
      </trkpt>
      <trkpt lat="43.82984" lon="7.1778">
        <ele>119.1</ele>
        <time>2021-09-20T13:26:15Z</time>
      </trkpt>
      <trkpt lat="43.8298" lon="7.17783">
        <ele>119.1</ele>
        <time>2021-09-20T13:26:16Z</time>
      </trkpt>
      <trkpt lat="43.82975" lon="7.1779">
        <ele>119</ele>
        <time>2021-09-20T13:26:18Z</time>
      </trkpt>
      <trkpt lat="43.82973" lon="7.17794">
        <ele>119</ele>
        <time>2021-09-20T13:26:19Z</time>
      </trkpt>
      <trkpt lat="43.8297" lon="7.17799">
        <ele>118.9</ele>
        <time>2021-09-20T13:26:20Z</time>
      </trkpt>
      <trkpt lat="43.82963" lon="7.17803">
        <ele>118.8</ele>
        <time>2021-09-20T13:26:22Z</time>
      </trkpt>
      <trkpt lat="43.82962" lon="7.17806">
        <ele>118.8</ele>
        <time>2021-09-20T13:26:23Z</time>
      </trkpt>
      <trkpt lat="43.82959" lon="7.17812">
        <ele>118.8</ele>
        <time>2021-09-20T13:26:25Z</time>
      </trkpt>
      <trkpt lat="43.82957" lon="7.17815">
        <ele>118.7</ele>
        <time>2021-09-20T13:26:26Z</time>
      </trkpt>
      <trkpt lat="43.82954" lon="7.17819">
        <ele>118.7</ele>
        <time>2021-09-20T13:26:27Z</time>
      </trkpt>
      <trkpt lat="43.82948" lon="7.17825">
        <ele>118.6</ele>
        <time>2021-09-20T13:26:28Z</time>
      </trkpt>
      <trkpt lat="43.82945" lon="7.17828">
        <ele>118.6</ele>
        <time>2021-09-20T13:26:29Z</time>
      </trkpt>
      <trkpt lat="43.82942" lon="7.17831">
        <ele>118.5</ele>
        <time>2021-09-20T13:26:30Z</time>
      </trkpt>
      <trkpt lat="43.82934" lon="7.17842">
        <ele>118.4</ele>
        <time>2021-09-20T13:26:32Z</time>
      </trkpt>
      <trkpt lat="43.82929" lon="7.17851">
        <ele>118.4</ele>
        <time>2021-09-20T13:26:34Z</time>
      </trkpt>
      <trkpt lat="43.82924" lon="7.17858">
        <ele>118.3</ele>
        <time>2021-09-20T13:26:35Z</time>
      </trkpt>
      <trkpt lat="43.8292" lon="7.17862">
        <ele>118.3</ele>
        <time>2021-09-20T13:26:37Z</time>
      </trkpt>
      <trkpt lat="43.82914" lon="7.17868">
        <ele>118.2</ele>
        <time>2021-09-20T13:26:38Z</time>
      </trkpt>
      <trkpt lat="43.82905" lon="7.17874">
        <ele>118.1</ele>
        <time>2021-09-20T13:26:40Z</time>
      </trkpt>
      <trkpt lat="43.82899" lon="7.17878">
        <ele>118.1</ele>
        <time>2021-09-20T13:26:41Z</time>
      </trkpt>
      <trkpt lat="43.8289" lon="7.17883">
        <ele>118</ele>
        <time>2021-09-20T13:26:43Z</time>
      </trkpt>
      <trkpt lat="43.82886" lon="7.17887">
        <ele>118</ele>
        <time>2021-09-20T13:26:44Z</time>
      </trkpt>
      <trkpt lat="43.82878" lon="7.17896">
        <ele>117.9</ele>
        <time>2021-09-20T13:26:46Z</time>
      </trkpt>
      <trkpt lat="43.82874" lon="7.179">
        <ele>117.9</ele>
        <time>2021-09-20T13:26:47Z</time>
      </trkpt>
      <trkpt lat="43.82869" lon="7.17907">
        <ele>117.8</ele>
        <time>2021-09-20T13:26:49Z</time>
      </trkpt>
      <trkpt lat="43.82866" lon="7.17911">
        <ele>117.8</ele>
        <time>2021-09-20T13:26:50Z</time>
      </trkpt>
      <trkpt lat="43.82857" lon="7.1792">
        <ele>117.7</ele>
        <time>2021-09-20T13:26:52Z</time>
      </trkpt>
      <trkpt lat="43.82854" lon="7.17925">
        <ele>117.7</ele>
        <time>2021-09-20T13:26:53Z</time>
      </trkpt>
      <trkpt lat="43.82852" lon="7.17927">
        <ele>117.7</ele>
        <time>2021-09-20T13:26:54Z</time>
      </trkpt>
      <trkpt lat="43.82848" lon="7.17933">
        <ele>117.6</ele>
        <time>2021-09-20T13:26:55Z</time>
      </trkpt>
      <trkpt lat="43.82843" lon="7.17939">
        <ele>117.6</ele>
        <time>2021-09-20T13:26:57Z</time>
      </trkpt>
      <trkpt lat="43.82837" lon="7.17945">
        <ele>117.5</ele>
        <time>2021-09-20T13:26:58Z</time>
      </trkpt>
      <trkpt lat="43.82832" lon="7.17949">
        <ele>117.5</ele>
        <time>2021-09-20T13:27:00Z</time>
      </trkpt>
      <trkpt lat="43.82828" lon="7.17953">
        <ele>117.5</ele>
        <time>2021-09-20T13:27:01Z</time>
      </trkpt>
      <trkpt lat="43.82821" lon="7.1796">
        <ele>117.4</ele>
        <time>2021-09-20T13:27:02Z</time>
      </trkpt>
      <trkpt lat="43.82816" lon="7.17964">
        <ele>117.4</ele>
        <time>2021-09-20T13:27:04Z</time>
      </trkpt>
      <trkpt lat="43.82811" lon="7.17968">
        <ele>117.4</ele>
        <time>2021-09-20T13:27:05Z</time>
      </trkpt>
      <trkpt lat="43.828" lon="7.17975">
        <ele>117.3</ele>
        <time>2021-09-20T13:27:07Z</time>
      </trkpt>
      <trkpt lat="43.82794" lon="7.1798">
        <ele>117.2</ele>
        <time>2021-09-20T13:27:08Z</time>
      </trkpt>
      <trkpt lat="43.8279" lon="7.17985">
        <ele>117.2</ele>
        <time>2021-09-20T13:27:10Z</time>
      </trkpt>
      <trkpt lat="43.82786" lon="7.17988">
        <ele>117.2</ele>
        <time>2021-09-20T13:27:11Z</time>
      </trkpt>
      <trkpt lat="43.82782" lon="7.17991">
        <ele>117.2</ele>
        <time>2021-09-20T13:27:12Z</time>
      </trkpt>
      <trkpt lat="43.82778" lon="7.17997">
        <ele>117.2</ele>
        <time>2021-09-20T13:27:13Z</time>
      </trkpt>
      <trkpt lat="43.82775" lon="7.18002">
        <ele>117.1</ele>
        <time>2021-09-20T13:27:14Z</time>
      </trkpt>
      <trkpt lat="43.82768" lon="7.1801">
        <ele>117.1</ele>
        <time>2021-09-20T13:27:16Z</time>
      </trkpt>
      <trkpt lat="43.82759" lon="7.18018">
        <ele>117</ele>
        <time>2021-09-20T13:27:18Z</time>
      </trkpt>
      <trkpt lat="43.82751" lon="7.18025">
        <ele>117</ele>
        <time>2021-09-20T13:27:20Z</time>
      </trkpt>
      <trkpt lat="43.82752" lon="7.18029">
        <ele>116.9</ele>
        <time>2021-09-20T13:27:22Z</time>
      </trkpt>
      <trkpt lat="43.82745" lon="7.18036">
        <ele>116.9</ele>
        <time>2021-09-20T13:27:24Z</time>
      </trkpt>
      <trkpt lat="43.82739" lon="7.1804">
        <ele>116.8</ele>
        <time>2021-09-20T13:27:25Z</time>
      </trkpt>
      <trkpt lat="43.8273" lon="7.18047">
        <ele>116.8</ele>
        <time>2021-09-20T13:27:26Z</time>
      </trkpt>
      <trkpt lat="43.82719" lon="7.18056">
        <ele>116.7</ele>
        <time>2021-09-20T13:27:28Z</time>
      </trkpt>
      <trkpt lat="43.8271" lon="7.18064">
        <ele>116.7</ele>
        <time>2021-09-20T13:27:30Z</time>
      </trkpt>
      <trkpt lat="43.82706" lon="7.18067">
        <ele>116.6</ele>
        <time>2021-09-20T13:27:31Z</time>
      </trkpt>
      <trkpt lat="43.82698" lon="7.18071">
        <ele>116.6</ele>
        <time>2021-09-20T13:27:33Z</time>
      </trkpt>
      <trkpt lat="43.82691" lon="7.18075">
        <ele>116.6</ele>
        <time>2021-09-20T13:27:34Z</time>
      </trkpt>
      <trkpt lat="43.82684" lon="7.1808">
        <ele>116.5</ele>
        <time>2021-09-20T13:27:36Z</time>
      </trkpt>
      <trkpt lat="43.82676" lon="7.18085">
        <ele>116.5</ele>
        <time>2021-09-20T13:27:38Z</time>
      </trkpt>
      <trkpt lat="43.82672" lon="7.18088">
        <ele>116.5</ele>
        <time>2021-09-20T13:27:39Z</time>
      </trkpt>
      <trkpt lat="43.82667" lon="7.18093">
        <ele>116.6</ele>
        <time>2021-09-20T13:27:40Z</time>
      </trkpt>
      <trkpt lat="43.8266" lon="7.18099">
        <ele>116.6</ele>
        <time>2021-09-20T13:27:42Z</time>
      </trkpt>
      <trkpt lat="43.82654" lon="7.18106">
        <ele>116.7</ele>
        <time>2021-09-20T13:27:44Z</time>
      </trkpt>
      <trkpt lat="43.82649" lon="7.18111">
        <ele>116.8</ele>
        <time>2021-09-20T13:27:46Z</time>
      </trkpt>
      <trkpt lat="43.82647" lon="7.18117">
        <ele>116.8</ele>
        <time>2021-09-20T13:27:47Z</time>
      </trkpt>
      <trkpt lat="43.82646" lon="7.18121">
        <ele>116.8</ele>
        <time>2021-09-20T13:27:48Z</time>
      </trkpt>
      <trkpt lat="43.82641" lon="7.18128">
        <ele>116.9</ele>
        <time>2021-09-20T13:27:49Z</time>
      </trkpt>
      <trkpt lat="43.82637" lon="7.18132">
        <ele>116.9</ele>
        <time>2021-09-20T13:27:51Z</time>
      </trkpt>
      <trkpt lat="43.82634" lon="7.18134">
        <ele>116.9</ele>
        <time>2021-09-20T13:27:52Z</time>
      </trkpt>
      <trkpt lat="43.82629" lon="7.18135">
        <ele>117</ele>
        <time>2021-09-20T13:27:53Z</time>
      </trkpt>
      <trkpt lat="43.82623" lon="7.18137">
        <ele>117.1</ele>
        <time>2021-09-20T13:27:55Z</time>
      </trkpt>
      <trkpt lat="43.82615" lon="7.18137">
        <ele>117.2</ele>
        <time>2021-09-20T13:27:57Z</time>
      </trkpt>
      <trkpt lat="43.8261" lon="7.18138">
        <ele>117.3</ele>
        <time>2021-09-20T13:27:59Z</time>
      </trkpt>
      <trkpt lat="43.82607" lon="7.18139">
        <ele>117.4</ele>
        <time>2021-09-20T13:28:00Z</time>
      </trkpt>
      <trkpt lat="43.82603" lon="7.18139">
        <ele>117.5</ele>
        <time>2021-09-20T13:28:01Z</time>
      </trkpt>
      <trkpt lat="43.82601" lon="7.18139">
        <ele>117.5</ele>
        <time>2021-09-20T13:28:02Z</time>
      </trkpt>
      <trkpt lat="43.826" lon="7.1814">
        <ele>117.5</ele>
        <time>2021-09-20T13:28:03Z</time>
      </trkpt>
      <trkpt lat="43.82598" lon="7.1814">
        <ele>117.6</ele>
        <time>2021-09-20T13:28:04Z</time>
      </trkpt>
      <trkpt lat="43.82596" lon="7.18141">
        <ele>117.7</ele>
        <time>2021-09-20T13:28:06Z</time>
      </trkpt>
      <trkpt lat="43.82594" lon="7.18141">
        <ele>117.7</ele>
        <time>2021-09-20T13:28:07Z</time>
      </trkpt>
      <trkpt lat="43.82588" lon="7.18146">
        <ele>117.9</ele>
        <time>2021-09-20T13:28:09Z</time>
      </trkpt>
      <trkpt lat="43.82581" lon="7.18155">
        <ele>117.8</ele>
        <time>2021-09-20T13:28:11Z</time>
      </trkpt>
      <trkpt lat="43.82573" lon="7.18161">
        <ele>117.4</ele>
        <time>2021-09-20T13:28:12Z</time>
      </trkpt>
      <trkpt lat="43.82567" lon="7.18163">
        <ele>117.2</ele>
        <time>2021-09-20T13:28:13Z</time>
      </trkpt>
      <trkpt lat="43.82562" lon="7.18168">
        <ele>116.9</ele>
        <time>2021-09-20T13:28:15Z</time>
      </trkpt>
      <trkpt lat="43.82557" lon="7.18173">
        <ele>116.7</ele>
        <time>2021-09-20T13:28:16Z</time>
      </trkpt>
      <trkpt lat="43.82551" lon="7.18179">
        <ele>116.5</ele>
        <time>2021-09-20T13:28:18Z</time>
      </trkpt>
      <trkpt lat="43.82549" lon="7.18183">
        <ele>116.4</ele>
        <time>2021-09-20T13:28:19Z</time>
      </trkpt>
      <trkpt lat="43.82545" lon="7.18187">
        <ele>116.3</ele>
        <time>2021-09-20T13:28:21Z</time>
      </trkpt>
      <trkpt lat="43.82543" lon="7.18188">
        <ele>116.2</ele>
        <time>2021-09-20T13:28:22Z</time>
      </trkpt>
      <trkpt lat="43.82539" lon="7.18191">
        <ele>116</ele>
        <time>2021-09-20T13:28:24Z</time>
      </trkpt>
      <trkpt lat="43.82534" lon="7.18196">
        <ele>115.8</ele>
        <time>2021-09-20T13:28:26Z</time>
      </trkpt>
      <trkpt lat="43.82529" lon="7.182">
        <ele>115.6</ele>
        <time>2021-09-20T13:28:27Z</time>
      </trkpt>
      <trkpt lat="43.82519" lon="7.18207">
        <ele>115.3</ele>
        <time>2021-09-20T13:28:29Z</time>
      </trkpt>
      <trkpt lat="43.8251" lon="7.18214">
        <ele>115.1</ele>
        <time>2021-09-20T13:28:31Z</time>
      </trkpt>
      <trkpt lat="43.82501" lon="7.1822">
        <ele>115</ele>
        <time>2021-09-20T13:28:33Z</time>
      </trkpt>
      <trkpt lat="43.82495" lon="7.18219">
        <ele>114.9</ele>
        <time>2021-09-20T13:28:35Z</time>
      </trkpt>
      <trkpt lat="43.82488" lon="7.18226">
        <ele>114.8</ele>
        <time>2021-09-20T13:28:37Z</time>
      </trkpt>
      <trkpt lat="43.82481" lon="7.18234">
        <ele>114.7</ele>
        <time>2021-09-20T13:28:38Z</time>
      </trkpt>
      <trkpt lat="43.82475" lon="7.18237">
        <ele>114.7</ele>
        <time>2021-09-20T13:28:40Z</time>
      </trkpt>
      <trkpt lat="43.82469" lon="7.18244">
        <ele>114.6</ele>
        <time>2021-09-20T13:28:41Z</time>
      </trkpt>
      <trkpt lat="43.82461" lon="7.18253">
        <ele>114.5</ele>
        <time>2021-09-20T13:28:43Z</time>
      </trkpt>
      <trkpt lat="43.82455" lon="7.18259">
        <ele>114.4</ele>
        <time>2021-09-20T13:28:44Z</time>
      </trkpt>
      <trkpt lat="43.8245" lon="7.18263">
        <ele>114.4</ele>
        <time>2021-09-20T13:28:46Z</time>
      </trkpt>
      <trkpt lat="43.82446" lon="7.18267">
        <ele>114.4</ele>
        <time>2021-09-20T13:28:47Z</time>
      </trkpt>
      <trkpt lat="43.82441" lon="7.18271">
        <ele>114.3</ele>
        <time>2021-09-20T13:28:48Z</time>
      </trkpt>
      <trkpt lat="43.82437" lon="7.18274">
        <ele>114.3</ele>
        <time>2021-09-20T13:28:50Z</time>
      </trkpt>
      <trkpt lat="43.82429" lon="7.18279">
        <ele>114.2</ele>
        <time>2021-09-20T13:28:51Z</time>
      </trkpt>
      <trkpt lat="43.82424" lon="7.18282">
        <ele>114.2</ele>
        <time>2021-09-20T13:28:52Z</time>
      </trkpt>
      <trkpt lat="43.82418" lon="7.18282">
        <ele>114.1</ele>
        <time>2021-09-20T13:28:54Z</time>
      </trkpt>
      <trkpt lat="43.82411" lon="7.18284">
        <ele>114.1</ele>
        <time>2021-09-20T13:28:56Z</time>
      </trkpt>
      <trkpt lat="43.82407" lon="7.18288">
        <ele>114</ele>
        <time>2021-09-20T13:28:57Z</time>
      </trkpt>
      <trkpt lat="43.82404" lon="7.18291">
        <ele>114</ele>
        <time>2021-09-20T13:28:58Z</time>
      </trkpt>
      <trkpt lat="43.82399" lon="7.18295">
        <ele>114</ele>
        <time>2021-09-20T13:28:59Z</time>
      </trkpt>
      <trkpt lat="43.82395" lon="7.18298">
        <ele>114</ele>
        <time>2021-09-20T13:29:00Z</time>
      </trkpt>
      <trkpt lat="43.82391" lon="7.18301">
        <ele>113.9</ele>
        <time>2021-09-20T13:29:01Z</time>
      </trkpt>
      <trkpt lat="43.82386" lon="7.18303">
        <ele>113.9</ele>
        <time>2021-09-20T13:29:02Z</time>
      </trkpt>
      <trkpt lat="43.82382" lon="7.18306">
        <ele>113.9</ele>
        <time>2021-09-20T13:29:03Z</time>
      </trkpt>
      <trkpt lat="43.82378" lon="7.18309">
        <ele>113.9</ele>
        <time>2021-09-20T13:29:04Z</time>
      </trkpt>
      <trkpt lat="43.82374" lon="7.18311">
        <ele>113.8</ele>
        <time>2021-09-20T13:29:05Z</time>
      </trkpt>
      <trkpt lat="43.8237" lon="7.18313">
        <ele>113.8</ele>
        <time>2021-09-20T13:29:06Z</time>
      </trkpt>
      <trkpt lat="43.82364" lon="7.18316">
        <ele>113.7</ele>
        <time>2021-09-20T13:29:08Z</time>
      </trkpt>
      <trkpt lat="43.82354" lon="7.18321">
        <ele>113.6</ele>
        <time>2021-09-20T13:29:10Z</time>
      </trkpt>
      <trkpt lat="43.82347" lon="7.18323">
        <ele>113.6</ele>
        <time>2021-09-20T13:29:12Z</time>
      </trkpt>
      <trkpt lat="43.82343" lon="7.18325">
        <ele>113.5</ele>
        <time>2021-09-20T13:29:13Z</time>
      </trkpt>
      <trkpt lat="43.82338" lon="7.18325">
        <ele>113.5</ele>
        <time>2021-09-20T13:29:14Z</time>
      </trkpt>
      <trkpt lat="43.82335" lon="7.18325">
        <ele>113.5</ele>
        <time>2021-09-20T13:29:16Z</time>
      </trkpt>
      <trkpt lat="43.82333" lon="7.18328">
        <ele>113.5</ele>
        <time>2021-09-20T13:29:17Z</time>
      </trkpt>
      <trkpt lat="43.82333" lon="7.18329">
        <ele>113.4</ele>
        <time>2021-09-20T13:29:18Z</time>
      </trkpt>
      <trkpt lat="43.82331" lon="7.18328">
        <ele>113.4</ele>
        <time>2021-09-20T13:29:19Z</time>
      </trkpt>
      <trkpt lat="43.82325" lon="7.18329">
        <ele>113.4</ele>
        <time>2021-09-20T13:29:21Z</time>
      </trkpt>
      <trkpt lat="43.82322" lon="7.1833">
        <ele>113.3</ele>
        <time>2021-09-20T13:29:22Z</time>
      </trkpt>
      <trkpt lat="43.82319" lon="7.1833">
        <ele>113.3</ele>
        <time>2021-09-20T13:29:23Z</time>
      </trkpt>
      <trkpt lat="43.82307" lon="7.18329">
        <ele>113.3</ele>
        <time>2021-09-20T13:29:25Z</time>
      </trkpt>
      <trkpt lat="43.82296" lon="7.18331">
        <ele>113.2</ele>
        <time>2021-09-20T13:29:27Z</time>
      </trkpt>
      <trkpt lat="43.82294" lon="7.18332">
        <ele>113.2</ele>
        <time>2021-09-20T13:29:28Z</time>
      </trkpt>
      <trkpt lat="43.82292" lon="7.18334">
        <ele>113.2</ele>
        <time>2021-09-20T13:29:29Z</time>
      </trkpt>
      <trkpt lat="43.82284" lon="7.18334">
        <ele>113.2</ele>
        <time>2021-09-20T13:29:31Z</time>
      </trkpt>
      <trkpt lat="43.82278" lon="7.18337">
        <ele>113.2</ele>
        <time>2021-09-20T13:29:33Z</time>
      </trkpt>
      <trkpt lat="43.82271" lon="7.18341">
        <ele>113.2</ele>
        <time>2021-09-20T13:29:34Z</time>
      </trkpt>
      <trkpt lat="43.82266" lon="7.18344">
        <ele>113.1</ele>
        <time>2021-09-20T13:29:35Z</time>
      </trkpt>
      <trkpt lat="43.82259" lon="7.18351">
        <ele>113.1</ele>
        <time>2021-09-20T13:29:38Z</time>
      </trkpt>
      <trkpt lat="43.82247" lon="7.18359">
        <ele>113</ele>
        <time>2021-09-20T13:29:40Z</time>
      </trkpt>
      <trkpt lat="43.82238" lon="7.18362">
        <ele>113</ele>
        <time>2021-09-20T13:29:41Z</time>
      </trkpt>
      <trkpt lat="43.82235" lon="7.18367">
        <ele>112.9</ele>
        <time>2021-09-20T13:29:43Z</time>
      </trkpt>
      <trkpt lat="43.82229" lon="7.18368">
        <ele>112.9</ele>
        <time>2021-09-20T13:29:44Z</time>
      </trkpt>
      <trkpt lat="43.82222" lon="7.18369">
        <ele>112.9</ele>
        <time>2021-09-20T13:29:45Z</time>
      </trkpt>
      <trkpt lat="43.82218" lon="7.18369">
        <ele>112.8</ele>
        <time>2021-09-20T13:29:46Z</time>
      </trkpt>
      <trkpt lat="43.82211" lon="7.18369">
        <ele>112.8</ele>
        <time>2021-09-20T13:29:48Z</time>
      </trkpt>
      <trkpt lat="43.82207" lon="7.18369">
        <ele>112.8</ele>
        <time>2021-09-20T13:29:49Z</time>
      </trkpt>
      <trkpt lat="43.82202" lon="7.18369">
        <ele>112.7</ele>
        <time>2021-09-20T13:29:50Z</time>
      </trkpt>
      <trkpt lat="43.82196" lon="7.18371">
        <ele>112.7</ele>
        <time>2021-09-20T13:29:52Z</time>
      </trkpt>
      <trkpt lat="43.82192" lon="7.18372">
        <ele>112.7</ele>
        <time>2021-09-20T13:29:53Z</time>
      </trkpt>
      <trkpt lat="43.82188" lon="7.18373">
        <ele>112.7</ele>
        <time>2021-09-20T13:29:55Z</time>
      </trkpt>
      <trkpt lat="43.82181" lon="7.18375">
        <ele>112.6</ele>
        <time>2021-09-20T13:29:56Z</time>
      </trkpt>
      <trkpt lat="43.82169" lon="7.18381">
        <ele>112.6</ele>
        <time>2021-09-20T13:29:58Z</time>
      </trkpt>
      <trkpt lat="43.82156" lon="7.18386">
        <ele>112.5</ele>
        <time>2021-09-20T13:30:00Z</time>
      </trkpt>
      <trkpt lat="43.82146" lon="7.1839">
        <ele>112.4</ele>
        <time>2021-09-20T13:30:02Z</time>
      </trkpt>
      <trkpt lat="43.82135" lon="7.18394">
        <ele>112.3</ele>
        <time>2021-09-20T13:30:04Z</time>
      </trkpt>
      <trkpt lat="43.8213" lon="7.18395">
        <ele>112.3</ele>
        <time>2021-09-20T13:30:05Z</time>
      </trkpt>
      <trkpt lat="43.82125" lon="7.18397">
        <ele>112.2</ele>
        <time>2021-09-20T13:30:06Z</time>
      </trkpt>
      <trkpt lat="43.82124" lon="7.18397">
        <ele>112.2</ele>
        <time>2021-09-20T13:30:07Z</time>
      </trkpt>
      <trkpt lat="43.82116" lon="7.18398">
        <ele>112.2</ele>
        <time>2021-09-20T13:30:09Z</time>
      </trkpt>
      <trkpt lat="43.8211" lon="7.184">
        <ele>112.2</ele>
        <time>2021-09-20T13:30:10Z</time>
      </trkpt>
      <trkpt lat="43.82106" lon="7.18401">
        <ele>112.1</ele>
        <time>2021-09-20T13:30:11Z</time>
      </trkpt>
      <trkpt lat="43.821" lon="7.18403">
        <ele>112.1</ele>
        <time>2021-09-20T13:30:13Z</time>
      </trkpt>
      <trkpt lat="43.82097" lon="7.18405">
        <ele>112.1</ele>
        <time>2021-09-20T13:30:14Z</time>
      </trkpt>
      <trkpt lat="43.82086" lon="7.18409">
        <ele>112</ele>
        <time>2021-09-20T13:30:16Z</time>
      </trkpt>
      <trkpt lat="43.81943" lon="7.18411">
        <ele>110.8</ele>
        <time>2021-09-20T13:30:40Z</time>
      </trkpt>
      <trkpt lat="43.81933" lon="7.1841">
        <ele>110.7</ele>
        <time>2021-09-20T13:30:42Z</time>
      </trkpt>
      <trkpt lat="43.8192" lon="7.18417">
        <ele>110.6</ele>
        <time>2021-09-20T13:30:43Z</time>
      </trkpt>
      <trkpt lat="43.81912" lon="7.1842">
        <ele>110.6</ele>
        <time>2021-09-20T13:30:45Z</time>
      </trkpt>
      <trkpt lat="43.81905" lon="7.18423">
        <ele>110.5</ele>
        <time>2021-09-20T13:30:46Z</time>
      </trkpt>
      <trkpt lat="43.819" lon="7.18423">
        <ele>110.5</ele>
        <time>2021-09-20T13:30:47Z</time>
      </trkpt>
      <trkpt lat="43.81891" lon="7.18423">
        <ele>110.5</ele>
        <time>2021-09-20T13:30:49Z</time>
      </trkpt>
      <trkpt lat="43.81882" lon="7.18424">
        <ele>110.5</ele>
        <time>2021-09-20T13:30:51Z</time>
      </trkpt>
      <trkpt lat="43.81877" lon="7.18426">
        <ele>110.4</ele>
        <time>2021-09-20T13:30:52Z</time>
      </trkpt>
      <trkpt lat="43.81867" lon="7.18428">
        <ele>110.4</ele>
        <time>2021-09-20T13:30:54Z</time>
      </trkpt>
      <trkpt lat="43.81864" lon="7.18431">
        <ele>110.4</ele>
        <time>2021-09-20T13:30:55Z</time>
      </trkpt>
      <trkpt lat="43.8186" lon="7.18432">
        <ele>110.3</ele>
        <time>2021-09-20T13:30:57Z</time>
      </trkpt>
      <trkpt lat="43.81858" lon="7.18433">
        <ele>110.3</ele>
        <time>2021-09-20T13:30:58Z</time>
      </trkpt>
      <trkpt lat="43.81854" lon="7.18435">
        <ele>110.3</ele>
        <time>2021-09-20T13:31:00Z</time>
      </trkpt>
      <trkpt lat="43.81851" lon="7.18436">
        <ele>110.2</ele>
        <time>2021-09-20T13:31:02Z</time>
      </trkpt>
      <trkpt lat="43.8185" lon="7.18436">
        <ele>110.2</ele>
        <time>2021-09-20T13:31:03Z</time>
      </trkpt>
      <trkpt lat="43.81837" lon="7.18438">
        <ele>110.1</ele>
        <time>2021-09-20T13:31:05Z</time>
      </trkpt>
      <trkpt lat="43.81798" lon="7.18445">
        <ele>109.8</ele>
        <time>2021-09-20T13:31:12Z</time>
      </trkpt>
      <trkpt lat="43.8178" lon="7.18448">
        <ele>109.6</ele>
        <time>2021-09-20T13:31:14Z</time>
      </trkpt>
      <trkpt lat="43.81774" lon="7.18449">
        <ele>109.6</ele>
        <time>2021-09-20T13:31:15Z</time>
      </trkpt>
      <trkpt lat="43.81764" lon="7.18452">
        <ele>109.5</ele>
        <time>2021-09-20T13:31:17Z</time>
      </trkpt>
      <trkpt lat="43.81759" lon="7.18453">
        <ele>109.5</ele>
        <time>2021-09-20T13:31:18Z</time>
      </trkpt>
      <trkpt lat="43.81755" lon="7.18455">
        <ele>109.4</ele>
        <time>2021-09-20T13:31:19Z</time>
      </trkpt>
      <trkpt lat="43.81748" lon="7.18456">
        <ele>109.4</ele>
        <time>2021-09-20T13:31:21Z</time>
      </trkpt>
      <trkpt lat="43.81743" lon="7.18457">
        <ele>109.4</ele>
        <time>2021-09-20T13:31:22Z</time>
      </trkpt>
      <trkpt lat="43.81738" lon="7.18458">
        <ele>109.3</ele>
        <time>2021-09-20T13:31:23Z</time>
      </trkpt>
      <trkpt lat="43.81729" lon="7.1846">
        <ele>109.2</ele>
        <time>2021-09-20T13:31:25Z</time>
      </trkpt>
      <trkpt lat="43.81718" lon="7.18462">
        <ele>109.1</ele>
        <time>2021-09-20T13:31:27Z</time>
      </trkpt>
      <trkpt lat="43.81713" lon="7.18464">
        <ele>109.1</ele>
        <time>2021-09-20T13:31:28Z</time>
      </trkpt>
      <trkpt lat="43.81705" lon="7.18467">
        <ele>109</ele>
        <time>2021-09-20T13:31:30Z</time>
      </trkpt>
      <trkpt lat="43.81697" lon="7.18468">
        <ele>109</ele>
        <time>2021-09-20T13:31:32Z</time>
      </trkpt>
      <trkpt lat="43.81689" lon="7.18469">
        <ele>108.9</ele>
        <time>2021-09-20T13:31:34Z</time>
      </trkpt>
      <trkpt lat="43.81685" lon="7.1847">
        <ele>108.8</ele>
        <time>2021-09-20T13:31:35Z</time>
      </trkpt>
      <trkpt lat="43.81677" lon="7.1847">
        <ele>108.8</ele>
        <time>2021-09-20T13:31:36Z</time>
      </trkpt>
      <trkpt lat="43.8167" lon="7.18471">
        <ele>108.7</ele>
        <time>2021-09-20T13:31:38Z</time>
      </trkpt>
      <trkpt lat="43.81663" lon="7.18471">
        <ele>108.6</ele>
        <time>2021-09-20T13:31:39Z</time>
      </trkpt>
      <trkpt lat="43.81652" lon="7.18475">
        <ele>108.5</ele>
        <time>2021-09-20T13:31:41Z</time>
      </trkpt>
      <trkpt lat="43.81646" lon="7.18476">
        <ele>108.5</ele>
        <time>2021-09-20T13:31:42Z</time>
      </trkpt>
      <trkpt lat="43.81636" lon="7.18478">
        <ele>108.4</ele>
        <time>2021-09-20T13:31:44Z</time>
      </trkpt>
      <trkpt lat="43.81626" lon="7.18476">
        <ele>108.3</ele>
        <time>2021-09-20T13:31:46Z</time>
      </trkpt>
      <trkpt lat="43.81621" lon="7.18475">
        <ele>108.3</ele>
        <time>2021-09-20T13:31:47Z</time>
      </trkpt>
      <trkpt lat="43.81612" lon="7.18473">
        <ele>108.3</ele>
        <time>2021-09-20T13:31:49Z</time>
      </trkpt>
      <trkpt lat="43.81609" lon="7.18473">
        <ele>108.3</ele>
        <time>2021-09-20T13:31:50Z</time>
      </trkpt>
      <trkpt lat="43.81603" lon="7.18474">
        <ele>108.3</ele>
        <time>2021-09-20T13:31:52Z</time>
      </trkpt>
      <trkpt lat="43.81596" lon="7.18475">
        <ele>108.2</ele>
        <time>2021-09-20T13:31:54Z</time>
      </trkpt>
      <trkpt lat="43.81591" lon="7.18474">
        <ele>108.2</ele>
        <time>2021-09-20T13:31:55Z</time>
      </trkpt>
      <trkpt lat="43.81583" lon="7.18473">
        <ele>108.2</ele>
        <time>2021-09-20T13:31:57Z</time>
      </trkpt>
      <trkpt lat="43.81577" lon="7.18473">
        <ele>108.2</ele>
        <time>2021-09-20T13:31:58Z</time>
      </trkpt>
      <trkpt lat="43.81572" lon="7.18472">
        <ele>108.1</ele>
        <time>2021-09-20T13:31:59Z</time>
      </trkpt>
      <trkpt lat="43.81564" lon="7.18472">
        <ele>108.1</ele>
        <time>2021-09-20T13:32:01Z</time>
      </trkpt>
      <trkpt lat="43.81558" lon="7.18472">
        <ele>108</ele>
        <time>2021-09-20T13:32:02Z</time>
      </trkpt>
      <trkpt lat="43.81553" lon="7.18472">
        <ele>108</ele>
        <time>2021-09-20T13:32:03Z</time>
      </trkpt>
      <trkpt lat="43.81546" lon="7.18471">
        <ele>107.9</ele>
        <time>2021-09-20T13:32:04Z</time>
      </trkpt>
      <trkpt lat="43.81539" lon="7.18471">
        <ele>107.9</ele>
        <time>2021-09-20T13:32:06Z</time>
      </trkpt>
      <trkpt lat="43.81532" lon="7.18471">
        <ele>107.8</ele>
        <time>2021-09-20T13:32:07Z</time>
      </trkpt>
      <trkpt lat="43.81526" lon="7.18472">
        <ele>107.8</ele>
        <time>2021-09-20T13:32:08Z</time>
      </trkpt>
      <trkpt lat="43.81522" lon="7.18473">
        <ele>107.7</ele>
        <time>2021-09-20T13:32:09Z</time>
      </trkpt>
      <trkpt lat="43.81514" lon="7.18476">
        <ele>107.6</ele>
        <time>2021-09-20T13:32:11Z</time>
      </trkpt>
      <trkpt lat="43.81504" lon="7.1848">
        <ele>107.6</ele>
        <time>2021-09-20T13:32:13Z</time>
      </trkpt>
      <trkpt lat="43.815" lon="7.18481">
        <ele>107.6</ele>
        <time>2021-09-20T13:32:14Z</time>
      </trkpt>
      <trkpt lat="43.81495" lon="7.18483">
        <ele>107.6</ele>
        <time>2021-09-20T13:32:15Z</time>
      </trkpt>
      <trkpt lat="43.81488" lon="7.18483">
        <ele>107.5</ele>
        <time>2021-09-20T13:32:17Z</time>
      </trkpt>
      <trkpt lat="43.81482" lon="7.18484">
        <ele>107.5</ele>
        <time>2021-09-20T13:32:18Z</time>
      </trkpt>
      <trkpt lat="43.81479" lon="7.18484">
        <ele>107.5</ele>
        <time>2021-09-20T13:32:19Z</time>
      </trkpt>
      <trkpt lat="43.81474" lon="7.18483">
        <ele>107.4</ele>
        <time>2021-09-20T13:32:21Z</time>
      </trkpt>
      <trkpt lat="43.8147" lon="7.18483">
        <ele>107.4</ele>
        <time>2021-09-20T13:32:22Z</time>
      </trkpt>
      <trkpt lat="43.81465" lon="7.18483">
        <ele>107.3</ele>
        <time>2021-09-20T13:32:23Z</time>
      </trkpt>
      <trkpt lat="43.8146" lon="7.18484">
        <ele>107.3</ele>
        <time>2021-09-20T13:32:24Z</time>
      </trkpt>
      <trkpt lat="43.81456" lon="7.18487">
        <ele>107.3</ele>
        <time>2021-09-20T13:32:25Z</time>
      </trkpt>
      <trkpt lat="43.81445" lon="7.18492">
        <ele>107.2</ele>
        <time>2021-09-20T13:32:27Z</time>
      </trkpt>
      <trkpt lat="43.8144" lon="7.18499">
        <ele>107.2</ele>
        <time>2021-09-20T13:32:29Z</time>
      </trkpt>
      <trkpt lat="43.81437" lon="7.18498">
        <ele>107.1</ele>
        <time>2021-09-20T13:32:30Z</time>
      </trkpt>
      <trkpt lat="43.81433" lon="7.18496">
        <ele>107.1</ele>
        <time>2021-09-20T13:32:31Z</time>
      </trkpt>
      <trkpt lat="43.81428" lon="7.18496">
        <ele>107.1</ele>
        <time>2021-09-20T13:32:33Z</time>
      </trkpt>
      <trkpt lat="43.81425" lon="7.18497">
        <ele>107.1</ele>
        <time>2021-09-20T13:32:34Z</time>
      </trkpt>
      <trkpt lat="43.81421" lon="7.18498">
        <ele>107</ele>
        <time>2021-09-20T13:32:35Z</time>
      </trkpt>
      <trkpt lat="43.81417" lon="7.185">
        <ele>107</ele>
        <time>2021-09-20T13:32:36Z</time>
      </trkpt>
      <trkpt lat="43.8141" lon="7.18501">
        <ele>107</ele>
        <time>2021-09-20T13:32:38Z</time>
      </trkpt>
      <trkpt lat="43.81406" lon="7.18502">
        <ele>106.9</ele>
        <time>2021-09-20T13:32:39Z</time>
      </trkpt>
      <trkpt lat="43.81399" lon="7.18504">
        <ele>106.9</ele>
        <time>2021-09-20T13:32:40Z</time>
      </trkpt>
      <trkpt lat="43.81395" lon="7.18511">
        <ele>106.8</ele>
        <time>2021-09-20T13:32:42Z</time>
      </trkpt>
      <trkpt lat="43.81387" lon="7.18514">
        <ele>106.7</ele>
        <time>2021-09-20T13:32:44Z</time>
      </trkpt>
      <trkpt lat="43.81381" lon="7.18509">
        <ele>106.7</ele>
        <time>2021-09-20T13:32:45Z</time>
      </trkpt>
      <trkpt lat="43.81376" lon="7.1851">
        <ele>106.6</ele>
        <time>2021-09-20T13:32:46Z</time>
      </trkpt>
      <trkpt lat="43.81372" lon="7.18506">
        <ele>106.6</ele>
        <time>2021-09-20T13:32:47Z</time>
      </trkpt>
      <trkpt lat="43.81366" lon="7.18503">
        <ele>106.5</ele>
        <time>2021-09-20T13:32:49Z</time>
      </trkpt>
      <trkpt lat="43.81359" lon="7.18502">
        <ele>106.5</ele>
        <time>2021-09-20T13:32:50Z</time>
      </trkpt>
      <trkpt lat="43.81355" lon="7.18502">
        <ele>106.5</ele>
        <time>2021-09-20T13:32:51Z</time>
      </trkpt>
      <trkpt lat="43.81346" lon="7.1851">
        <ele>106.4</ele>
        <time>2021-09-20T13:32:53Z</time>
      </trkpt>
      <trkpt lat="43.81341" lon="7.18514">
        <ele>106.3</ele>
        <time>2021-09-20T13:32:54Z</time>
      </trkpt>
      <trkpt lat="43.81336" lon="7.18517">
        <ele>106.3</ele>
        <time>2021-09-20T13:32:55Z</time>
      </trkpt>
      <trkpt lat="43.81332" lon="7.18519">
        <ele>106.3</ele>
        <time>2021-09-20T13:32:56Z</time>
      </trkpt>
      <trkpt lat="43.81325" lon="7.18523">
        <ele>106.2</ele>
        <time>2021-09-20T13:32:57Z</time>
      </trkpt>
      <trkpt lat="43.81317" lon="7.18523">
        <ele>106.2</ele>
        <time>2021-09-20T13:32:59Z</time>
      </trkpt>
      <trkpt lat="43.81312" lon="7.18525">
        <ele>106.1</ele>
        <time>2021-09-20T13:33:00Z</time>
      </trkpt>
      <trkpt lat="43.81307" lon="7.18525">
        <ele>106.1</ele>
        <time>2021-09-20T13:33:01Z</time>
      </trkpt>
      <trkpt lat="43.81296" lon="7.18529">
        <ele>106</ele>
        <time>2021-09-20T13:33:03Z</time>
      </trkpt>
      <trkpt lat="43.81292" lon="7.1853">
        <ele>105.9</ele>
        <time>2021-09-20T13:33:04Z</time>
      </trkpt>
      <trkpt lat="43.81286" lon="7.18531">
        <ele>105.8</ele>
        <time>2021-09-20T13:33:06Z</time>
      </trkpt>
      <trkpt lat="43.81281" lon="7.18529">
        <ele>105.7</ele>
        <time>2021-09-20T13:33:07Z</time>
      </trkpt>
      <trkpt lat="43.81276" lon="7.1853">
        <ele>105.6</ele>
        <time>2021-09-20T13:33:08Z</time>
      </trkpt>
      <trkpt lat="43.81272" lon="7.18531">
        <ele>105.6</ele>
        <time>2021-09-20T13:33:10Z</time>
      </trkpt>
      <trkpt lat="43.81263" lon="7.18536">
        <ele>105.4</ele>
        <time>2021-09-20T13:33:11Z</time>
      </trkpt>
      <trkpt lat="43.81258" lon="7.18538">
        <ele>105.4</ele>
        <time>2021-09-20T13:33:12Z</time>
      </trkpt>
      <trkpt lat="43.81254" lon="7.18541">
        <ele>105.3</ele>
        <time>2021-09-20T13:33:13Z</time>
      </trkpt>
      <trkpt lat="43.81245" lon="7.18547">
        <ele>105.1</ele>
        <time>2021-09-20T13:33:15Z</time>
      </trkpt>
      <trkpt lat="43.81241" lon="7.18551">
        <ele>104.9</ele>
        <time>2021-09-20T13:33:16Z</time>
      </trkpt>
      <trkpt lat="43.81237" lon="7.18556">
        <ele>104.7</ele>
        <time>2021-09-20T13:33:17Z</time>
      </trkpt>
      <trkpt lat="43.81232" lon="7.18563">
        <ele>104.3</ele>
        <time>2021-09-20T13:33:18Z</time>
      </trkpt>
      <trkpt lat="43.81228" lon="7.1857">
        <ele>104</ele>
        <time>2021-09-20T13:33:19Z</time>
      </trkpt>
      <trkpt lat="43.81216" lon="7.18583">
        <ele>103.4</ele>
        <time>2021-09-20T13:33:21Z</time>
      </trkpt>
      <trkpt lat="43.81209" lon="7.18587">
        <ele>103.2</ele>
        <time>2021-09-20T13:33:22Z</time>
      </trkpt>
      <trkpt lat="43.81203" lon="7.18591">
        <ele>103</ele>
        <time>2021-09-20T13:33:23Z</time>
      </trkpt>
      <trkpt lat="43.81198" lon="7.18594">
        <ele>103</ele>
        <time>2021-09-20T13:33:24Z</time>
      </trkpt>
      <trkpt lat="43.81193" lon="7.18598">
        <ele>102.9</ele>
        <time>2021-09-20T13:33:25Z</time>
      </trkpt>
      <trkpt lat="43.81183" lon="7.18606">
        <ele>102.8</ele>
        <time>2021-09-20T13:33:27Z</time>
      </trkpt>
      <trkpt lat="43.81178" lon="7.1861">
        <ele>102.8</ele>
        <time>2021-09-20T13:33:28Z</time>
      </trkpt>
      <trkpt lat="43.81173" lon="7.18614">
        <ele>102.7</ele>
        <time>2021-09-20T13:33:29Z</time>
      </trkpt>
      <trkpt lat="43.81169" lon="7.18618">
        <ele>102.7</ele>
        <time>2021-09-20T13:33:30Z</time>
      </trkpt>
      <trkpt lat="43.8116" lon="7.18624">
        <ele>102.6</ele>
        <time>2021-09-20T13:33:32Z</time>
      </trkpt>
      <trkpt lat="43.81152" lon="7.1863">
        <ele>102.6</ele>
        <time>2021-09-20T13:33:34Z</time>
      </trkpt>
      <trkpt lat="43.81148" lon="7.18633">
        <ele>102.5</ele>
        <time>2021-09-20T13:33:35Z</time>
      </trkpt>
      <trkpt lat="43.8114" lon="7.18638">
        <ele>102.5</ele>
        <time>2021-09-20T13:33:37Z</time>
      </trkpt>
      <trkpt lat="43.81132" lon="7.18641">
        <ele>102.4</ele>
        <time>2021-09-20T13:33:39Z</time>
      </trkpt>
      <trkpt lat="43.81128" lon="7.18642">
        <ele>102.4</ele>
        <time>2021-09-20T13:33:40Z</time>
      </trkpt>
      <trkpt lat="43.81125" lon="7.18644">
        <ele>102.3</ele>
        <time>2021-09-20T13:33:41Z</time>
      </trkpt>
      <trkpt lat="43.81119" lon="7.18649">
        <ele>102.3</ele>
        <time>2021-09-20T13:33:43Z</time>
      </trkpt>
      <trkpt lat="43.81118" lon="7.18654">
        <ele>102.3</ele>
        <time>2021-09-20T13:33:44Z</time>
      </trkpt>
      <trkpt lat="43.81115" lon="7.18656">
        <ele>102.2</ele>
        <time>2021-09-20T13:33:45Z</time>
      </trkpt>
      <trkpt lat="43.81112" lon="7.18659">
        <ele>102.2</ele>
        <time>2021-09-20T13:33:46Z</time>
      </trkpt>
      <trkpt lat="43.81108" lon="7.18661">
        <ele>102.2</ele>
        <time>2021-09-20T13:33:47Z</time>
      </trkpt>
      <trkpt lat="43.81102" lon="7.18664">
        <ele>102.1</ele>
        <time>2021-09-20T13:33:49Z</time>
      </trkpt>
      <trkpt lat="43.81094" lon="7.1867">
        <ele>102.1</ele>
        <time>2021-09-20T13:33:51Z</time>
      </trkpt>
      <trkpt lat="43.81087" lon="7.18676">
        <ele>102</ele>
        <time>2021-09-20T13:33:53Z</time>
      </trkpt>
      <trkpt lat="43.8108" lon="7.18684">
        <ele>102</ele>
        <time>2021-09-20T13:33:55Z</time>
      </trkpt>
      <trkpt lat="43.81076" lon="7.18687">
        <ele>102</ele>
        <time>2021-09-20T13:33:56Z</time>
      </trkpt>
      <trkpt lat="43.81074" lon="7.18689">
        <ele>101.9</ele>
        <time>2021-09-20T13:33:57Z</time>
      </trkpt>
      <trkpt lat="43.81066" lon="7.18696">
        <ele>101.9</ele>
        <time>2021-09-20T13:33:59Z</time>
      </trkpt>
      <trkpt lat="43.81063" lon="7.18699">
        <ele>101.9</ele>
        <time>2021-09-20T13:34:00Z</time>
      </trkpt>
      <trkpt lat="43.81053" lon="7.18712">
        <ele>101.8</ele>
        <time>2021-09-20T13:34:02Z</time>
      </trkpt>
      <trkpt lat="43.81048" lon="7.18717">
        <ele>101.8</ele>
        <time>2021-09-20T13:34:03Z</time>
      </trkpt>
      <trkpt lat="43.81044" lon="7.18723">
        <ele>101.7</ele>
        <time>2021-09-20T13:34:04Z</time>
      </trkpt>
      <trkpt lat="43.81036" lon="7.18734">
        <ele>101.6</ele>
        <time>2021-09-20T13:34:06Z</time>
      </trkpt>
      <trkpt lat="43.81029" lon="7.18745">
        <ele>101.5</ele>
        <time>2021-09-20T13:34:08Z</time>
      </trkpt>
      <trkpt lat="43.81021" lon="7.18755">
        <ele>101.5</ele>
        <time>2021-09-20T13:34:10Z</time>
      </trkpt>
      <trkpt lat="43.81014" lon="7.18764">
        <ele>101.4</ele>
        <time>2021-09-20T13:34:12Z</time>
      </trkpt>
      <trkpt lat="43.81011" lon="7.18767">
        <ele>101.4</ele>
        <time>2021-09-20T13:34:13Z</time>
      </trkpt>
      <trkpt lat="43.81007" lon="7.18771">
        <ele>101.3</ele>
        <time>2021-09-20T13:34:14Z</time>
      </trkpt>
      <trkpt lat="43.81005" lon="7.18774">
        <ele>101.3</ele>
        <time>2021-09-20T13:34:15Z</time>
      </trkpt>
      <trkpt lat="43.81001" lon="7.18777">
        <ele>101.3</ele>
        <time>2021-09-20T13:34:16Z</time>
      </trkpt>
      <trkpt lat="43.80994" lon="7.18785">
        <ele>101.2</ele>
        <time>2021-09-20T13:34:18Z</time>
      </trkpt>
      <trkpt lat="43.80991" lon="7.1879">
        <ele>101.2</ele>
        <time>2021-09-20T13:34:19Z</time>
      </trkpt>
      <trkpt lat="43.80985" lon="7.18801">
        <ele>101.1</ele>
        <time>2021-09-20T13:34:21Z</time>
      </trkpt>
      <trkpt lat="43.80981" lon="7.18807">
        <ele>101</ele>
        <time>2021-09-20T13:34:22Z</time>
      </trkpt>
      <trkpt lat="43.80973" lon="7.18816">
        <ele>100.9</ele>
        <time>2021-09-20T13:34:24Z</time>
      </trkpt>
      <trkpt lat="43.80967" lon="7.18824">
        <ele>100.9</ele>
        <time>2021-09-20T13:34:26Z</time>
      </trkpt>
      <trkpt lat="43.80962" lon="7.18827">
        <ele>100.9</ele>
        <time>2021-09-20T13:34:27Z</time>
      </trkpt>
      <trkpt lat="43.80957" lon="7.18834">
        <ele>100.8</ele>
        <time>2021-09-20T13:34:29Z</time>
      </trkpt>
      <trkpt lat="43.80952" lon="7.18839">
        <ele>100.8</ele>
        <time>2021-09-20T13:34:30Z</time>
      </trkpt>
      <trkpt lat="43.80944" lon="7.18849">
        <ele>100.8</ele>
        <time>2021-09-20T13:34:32Z</time>
      </trkpt>
      <trkpt lat="43.80936" lon="7.18858">
        <ele>100.7</ele>
        <time>2021-09-20T13:34:34Z</time>
      </trkpt>
      <trkpt lat="43.80932" lon="7.18862">
        <ele>100.7</ele>
        <time>2021-09-20T13:34:35Z</time>
      </trkpt>
      <trkpt lat="43.80929" lon="7.18866">
        <ele>100.6</ele>
        <time>2021-09-20T13:34:36Z</time>
      </trkpt>
      <trkpt lat="43.80922" lon="7.18875">
        <ele>100.5</ele>
        <time>2021-09-20T13:34:38Z</time>
      </trkpt>
      <trkpt lat="43.80915" lon="7.18883">
        <ele>100.4</ele>
        <time>2021-09-20T13:34:40Z</time>
      </trkpt>
      <trkpt lat="43.80913" lon="7.18887">
        <ele>100.4</ele>
        <time>2021-09-20T13:34:41Z</time>
      </trkpt>
      <trkpt lat="43.80906" lon="7.18897">
        <ele>100.3</ele>
        <time>2021-09-20T13:34:43Z</time>
      </trkpt>
      <trkpt lat="43.80902" lon="7.18901">
        <ele>100.3</ele>
        <time>2021-09-20T13:34:44Z</time>
      </trkpt>
      <trkpt lat="43.80894" lon="7.18908">
        <ele>100.2</ele>
        <time>2021-09-20T13:34:46Z</time>
      </trkpt>
      <trkpt lat="43.8089" lon="7.18913">
        <ele>100.1</ele>
        <time>2021-09-20T13:34:47Z</time>
      </trkpt>
      <trkpt lat="43.80882" lon="7.18921">
        <ele>100</ele>
        <time>2021-09-20T13:34:49Z</time>
      </trkpt>
      <trkpt lat="43.80879" lon="7.18926">
        <ele>100</ele>
        <time>2021-09-20T13:34:50Z</time>
      </trkpt>
      <trkpt lat="43.80877" lon="7.1893">
        <ele>99.9</ele>
        <time>2021-09-20T13:34:51Z</time>
      </trkpt>
      <trkpt lat="43.80871" lon="7.1894">
        <ele>99.8</ele>
        <time>2021-09-20T13:34:53Z</time>
      </trkpt>
      <trkpt lat="43.80867" lon="7.18945">
        <ele>99.7</ele>
        <time>2021-09-20T13:34:54Z</time>
      </trkpt>
      <trkpt lat="43.80864" lon="7.18951">
        <ele>99.7</ele>
        <time>2021-09-20T13:34:55Z</time>
      </trkpt>
      <trkpt lat="43.80858" lon="7.1896">
        <ele>99.5</ele>
        <time>2021-09-20T13:34:57Z</time>
      </trkpt>
      <trkpt lat="43.8085" lon="7.18968">
        <ele>99.4</ele>
        <time>2021-09-20T13:34:59Z</time>
      </trkpt>
      <trkpt lat="43.80847" lon="7.18971">
        <ele>99.4</ele>
        <time>2021-09-20T13:35:00Z</time>
      </trkpt>
      <trkpt lat="43.8084" lon="7.18977">
        <ele>99.3</ele>
        <time>2021-09-20T13:35:02Z</time>
      </trkpt>
      <trkpt lat="43.80836" lon="7.1898">
        <ele>99.3</ele>
        <time>2021-09-20T13:35:03Z</time>
      </trkpt>
      <trkpt lat="43.80834" lon="7.18982">
        <ele>99.3</ele>
        <time>2021-09-20T13:35:04Z</time>
      </trkpt>
      <trkpt lat="43.80831" lon="7.18985">
        <ele>99.2</ele>
        <time>2021-09-20T13:35:05Z</time>
      </trkpt>
      <trkpt lat="43.80828" lon="7.18988">
        <ele>99.2</ele>
        <time>2021-09-20T13:35:06Z</time>
      </trkpt>
      <trkpt lat="43.80822" lon="7.18991">
        <ele>99.2</ele>
        <time>2021-09-20T13:35:08Z</time>
      </trkpt>
      <trkpt lat="43.80819" lon="7.18995">
        <ele>99.1</ele>
        <time>2021-09-20T13:35:09Z</time>
      </trkpt>
      <trkpt lat="43.80816" lon="7.18996">
        <ele>99.1</ele>
        <time>2021-09-20T13:35:10Z</time>
      </trkpt>
      <trkpt lat="43.80813" lon="7.18998">
        <ele>99.1</ele>
        <time>2021-09-20T13:35:11Z</time>
      </trkpt>
      <trkpt lat="43.80812" lon="7.18999">
        <ele>99.1</ele>
        <time>2021-09-20T13:35:12Z</time>
      </trkpt>
      <trkpt lat="43.80808" lon="7.19002">
        <ele>99</ele>
        <time>2021-09-20T13:35:13Z</time>
      </trkpt>
      <trkpt lat="43.80804" lon="7.19005">
        <ele>99</ele>
        <time>2021-09-20T13:35:14Z</time>
      </trkpt>
      <trkpt lat="43.80801" lon="7.19009">
        <ele>98.9</ele>
        <time>2021-09-20T13:35:15Z</time>
      </trkpt>
      <trkpt lat="43.80795" lon="7.19015">
        <ele>98.9</ele>
        <time>2021-09-20T13:35:17Z</time>
      </trkpt>
      <trkpt lat="43.8079" lon="7.1902">
        <ele>98.8</ele>
        <time>2021-09-20T13:35:18Z</time>
      </trkpt>
      <trkpt lat="43.80784" lon="7.19025">
        <ele>98.8</ele>
        <time>2021-09-20T13:35:20Z</time>
      </trkpt>
      <trkpt lat="43.8078" lon="7.19032">
        <ele>98.7</ele>
        <time>2021-09-20T13:35:22Z</time>
      </trkpt>
      <trkpt lat="43.80777" lon="7.19037">
        <ele>98.7</ele>
        <time>2021-09-20T13:35:23Z</time>
      </trkpt>
      <trkpt lat="43.80775" lon="7.19041">
        <ele>98.7</ele>
        <time>2021-09-20T13:35:24Z</time>
      </trkpt>
      <trkpt lat="43.80771" lon="7.19046">
        <ele>98.6</ele>
        <time>2021-09-20T13:35:25Z</time>
      </trkpt>
      <trkpt lat="43.80765" lon="7.19052">
        <ele>98.6</ele>
        <time>2021-09-20T13:35:26Z</time>
      </trkpt>
      <trkpt lat="43.80763" lon="7.19061">
        <ele>98.5</ele>
        <time>2021-09-20T13:35:28Z</time>
      </trkpt>
      <trkpt lat="43.80756" lon="7.19063">
        <ele>98.5</ele>
        <time>2021-09-20T13:35:29Z</time>
      </trkpt>
      <trkpt lat="43.80752" lon="7.19067">
        <ele>98.5</ele>
        <time>2021-09-20T13:35:30Z</time>
      </trkpt>
      <trkpt lat="43.80744" lon="7.19075">
        <ele>98.4</ele>
        <time>2021-09-20T13:35:32Z</time>
      </trkpt>
      <trkpt lat="43.80742" lon="7.19082">
        <ele>98.3</ele>
        <time>2021-09-20T13:35:34Z</time>
      </trkpt>
      <trkpt lat="43.80739" lon="7.19086">
        <ele>98.3</ele>
        <time>2021-09-20T13:35:35Z</time>
      </trkpt>
      <trkpt lat="43.80736" lon="7.1909">
        <ele>98.3</ele>
        <time>2021-09-20T13:35:36Z</time>
      </trkpt>
      <trkpt lat="43.80729" lon="7.19097">
        <ele>98.2</ele>
        <time>2021-09-20T13:35:38Z</time>
      </trkpt>
      <trkpt lat="43.80726" lon="7.19101">
        <ele>98.2</ele>
        <time>2021-09-20T13:35:39Z</time>
      </trkpt>
      <trkpt lat="43.80721" lon="7.19109">
        <ele>98.1</ele>
        <time>2021-09-20T13:35:41Z</time>
      </trkpt>
      <trkpt lat="43.80716" lon="7.19119">
        <ele>98.1</ele>
        <time>2021-09-20T13:35:42Z</time>
      </trkpt>
      <trkpt lat="43.80708" lon="7.1913">
        <ele>98</ele>
        <time>2021-09-20T13:35:44Z</time>
      </trkpt>
      <trkpt lat="43.80702" lon="7.19141">
        <ele>97.9</ele>
        <time>2021-09-20T13:35:46Z</time>
      </trkpt>
      <trkpt lat="43.80696" lon="7.19151">
        <ele>97.9</ele>
        <time>2021-09-20T13:35:48Z</time>
      </trkpt>
      <trkpt lat="43.80693" lon="7.19156">
        <ele>97.8</ele>
        <time>2021-09-20T13:35:49Z</time>
      </trkpt>
      <trkpt lat="43.80689" lon="7.19161">
        <ele>97.8</ele>
        <time>2021-09-20T13:35:50Z</time>
      </trkpt>
      <trkpt lat="43.80682" lon="7.19169">
        <ele>97.7</ele>
        <time>2021-09-20T13:35:52Z</time>
      </trkpt>
      <trkpt lat="43.80678" lon="7.19171">
        <ele>97.7</ele>
        <time>2021-09-20T13:35:53Z</time>
      </trkpt>
      <trkpt lat="43.80675" lon="7.19171">
        <ele>97.6</ele>
        <time>2021-09-20T13:35:54Z</time>
      </trkpt>
      <trkpt lat="43.80668" lon="7.19184">
        <ele>97.5</ele>
        <time>2021-09-20T13:35:56Z</time>
      </trkpt>
      <trkpt lat="43.80659" lon="7.19198">
        <ele>97.4</ele>
        <time>2021-09-20T13:35:58Z</time>
      </trkpt>
      <trkpt lat="43.80655" lon="7.19203">
        <ele>97.4</ele>
        <time>2021-09-20T13:35:59Z</time>
      </trkpt>
      <trkpt lat="43.8065" lon="7.1921">
        <ele>97.3</ele>
        <time>2021-09-20T13:36:00Z</time>
      </trkpt>
      <trkpt lat="43.80639" lon="7.19222">
        <ele>97.2</ele>
        <time>2021-09-20T13:36:02Z</time>
      </trkpt>
      <trkpt lat="43.80629" lon="7.19231">
        <ele>97.2</ele>
        <time>2021-09-20T13:36:04Z</time>
      </trkpt>
      <trkpt lat="43.80621" lon="7.19241">
        <ele>97.1</ele>
        <time>2021-09-20T13:36:06Z</time>
      </trkpt>
      <trkpt lat="43.80615" lon="7.19249">
        <ele>97</ele>
        <time>2021-09-20T13:36:08Z</time>
      </trkpt>
      <trkpt lat="43.80611" lon="7.19253">
        <ele>97</ele>
        <time>2021-09-20T13:36:09Z</time>
      </trkpt>
      <trkpt lat="43.80604" lon="7.1926">
        <ele>96.9</ele>
        <time>2021-09-20T13:36:11Z</time>
      </trkpt>
      <trkpt lat="43.806" lon="7.19267">
        <ele>96.9</ele>
        <time>2021-09-20T13:36:12Z</time>
      </trkpt>
      <trkpt lat="43.80593" lon="7.19276">
        <ele>96.8</ele>
        <time>2021-09-20T13:36:14Z</time>
      </trkpt>
      <trkpt lat="43.8059" lon="7.19278">
        <ele>96.8</ele>
        <time>2021-09-20T13:36:16Z</time>
      </trkpt>
      <trkpt lat="43.80588" lon="7.1928">
        <ele>96.8</ele>
        <time>2021-09-20T13:36:17Z</time>
      </trkpt>
      <trkpt lat="43.80584" lon="7.19284">
        <ele>96.8</ele>
        <time>2021-09-20T13:36:18Z</time>
      </trkpt>
      <trkpt lat="43.80581" lon="7.19288">
        <ele>96.7</ele>
        <time>2021-09-20T13:36:19Z</time>
      </trkpt>
      <trkpt lat="43.80577" lon="7.19291">
        <ele>96.7</ele>
        <time>2021-09-20T13:36:20Z</time>
      </trkpt>
      <trkpt lat="43.80572" lon="7.19295">
        <ele>96.6</ele>
        <time>2021-09-20T13:36:21Z</time>
      </trkpt>
      <trkpt lat="43.80567" lon="7.19298">
        <ele>96.6</ele>
        <time>2021-09-20T13:36:22Z</time>
      </trkpt>
      <trkpt lat="43.80564" lon="7.19301">
        <ele>96.6</ele>
        <time>2021-09-20T13:36:23Z</time>
      </trkpt>
      <trkpt lat="43.80561" lon="7.19305">
        <ele>96.5</ele>
        <time>2021-09-20T13:36:24Z</time>
      </trkpt>
      <trkpt lat="43.80557" lon="7.19312">
        <ele>96.5</ele>
        <time>2021-09-20T13:36:26Z</time>
      </trkpt>
      <trkpt lat="43.80553" lon="7.19319">
        <ele>96.4</ele>
        <time>2021-09-20T13:36:27Z</time>
      </trkpt>
      <trkpt lat="43.8055" lon="7.19323">
        <ele>96.4</ele>
        <time>2021-09-20T13:36:29Z</time>
      </trkpt>
      <trkpt lat="43.80546" lon="7.19326">
        <ele>96.4</ele>
        <time>2021-09-20T13:36:30Z</time>
      </trkpt>
      <trkpt lat="43.80543" lon="7.19328">
        <ele>96.3</ele>
        <time>2021-09-20T13:36:31Z</time>
      </trkpt>
      <trkpt lat="43.80539" lon="7.1933">
        <ele>96.3</ele>
        <time>2021-09-20T13:36:32Z</time>
      </trkpt>
      <trkpt lat="43.80536" lon="7.19333">
        <ele>96.2</ele>
        <time>2021-09-20T13:36:34Z</time>
      </trkpt>
      <trkpt lat="43.80533" lon="7.19336">
        <ele>96.2</ele>
        <time>2021-09-20T13:36:35Z</time>
      </trkpt>
      <trkpt lat="43.80531" lon="7.19339">
        <ele>96.2</ele>
        <time>2021-09-20T13:36:36Z</time>
      </trkpt>
      <trkpt lat="43.80528" lon="7.19341">
        <ele>96.2</ele>
        <time>2021-09-20T13:36:37Z</time>
      </trkpt>
      <trkpt lat="43.80524" lon="7.19345">
        <ele>96.1</ele>
        <time>2021-09-20T13:36:38Z</time>
      </trkpt>
      <trkpt lat="43.8052" lon="7.19347">
        <ele>96.1</ele>
        <time>2021-09-20T13:36:39Z</time>
      </trkpt>
      <trkpt lat="43.80516" lon="7.19349">
        <ele>96.1</ele>
        <time>2021-09-20T13:36:41Z</time>
      </trkpt>
      <trkpt lat="43.80512" lon="7.19351">
        <ele>96</ele>
        <time>2021-09-20T13:36:42Z</time>
      </trkpt>
      <trkpt lat="43.80507" lon="7.19356">
        <ele>96</ele>
        <time>2021-09-20T13:36:44Z</time>
      </trkpt>
      <trkpt lat="43.80501" lon="7.19362">
        <ele>96</ele>
        <time>2021-09-20T13:36:46Z</time>
      </trkpt>
      <trkpt lat="43.80497" lon="7.19365">
        <ele>95.9</ele>
        <time>2021-09-20T13:36:47Z</time>
      </trkpt>
      <trkpt lat="43.80491" lon="7.19369">
        <ele>95.9</ele>
        <time>2021-09-20T13:36:48Z</time>
      </trkpt>
      <trkpt lat="43.80487" lon="7.19374">
        <ele>95.9</ele>
        <time>2021-09-20T13:36:49Z</time>
      </trkpt>
      <trkpt lat="43.80483" lon="7.19377">
        <ele>95.9</ele>
        <time>2021-09-20T13:36:50Z</time>
      </trkpt>
      <trkpt lat="43.8048" lon="7.19381">
        <ele>95.8</ele>
        <time>2021-09-20T13:36:51Z</time>
      </trkpt>
      <trkpt lat="43.80479" lon="7.19385">
        <ele>95.8</ele>
        <time>2021-09-20T13:36:52Z</time>
      </trkpt>
      <trkpt lat="43.80471" lon="7.1939">
        <ele>95.8</ele>
        <time>2021-09-20T13:36:54Z</time>
      </trkpt>
      <trkpt lat="43.80467" lon="7.19393">
        <ele>95.8</ele>
        <time>2021-09-20T13:36:55Z</time>
      </trkpt>
      <trkpt lat="43.80463" lon="7.19397">
        <ele>95.7</ele>
        <time>2021-09-20T13:36:56Z</time>
      </trkpt>
      <trkpt lat="43.80459" lon="7.19401">
        <ele>95.7</ele>
        <time>2021-09-20T13:36:57Z</time>
      </trkpt>
      <trkpt lat="43.80455" lon="7.19405">
        <ele>95.7</ele>
        <time>2021-09-20T13:36:58Z</time>
      </trkpt>
      <trkpt lat="43.80449" lon="7.1941">
        <ele>95.6</ele>
        <time>2021-09-20T13:37:00Z</time>
      </trkpt>
      <trkpt lat="43.80446" lon="7.19413">
        <ele>95.6</ele>
        <time>2021-09-20T13:37:01Z</time>
      </trkpt>
      <trkpt lat="43.80442" lon="7.19417">
        <ele>95.6</ele>
        <time>2021-09-20T13:37:02Z</time>
      </trkpt>
      <trkpt lat="43.80439" lon="7.19421">
        <ele>95.5</ele>
        <time>2021-09-20T13:37:03Z</time>
      </trkpt>
      <trkpt lat="43.80435" lon="7.19428">
        <ele>95.5</ele>
        <time>2021-09-20T13:37:04Z</time>
      </trkpt>
      <trkpt lat="43.8043" lon="7.19439">
        <ele>95.4</ele>
        <time>2021-09-20T13:37:06Z</time>
      </trkpt>
      <trkpt lat="43.80424" lon="7.19449">
        <ele>95.3</ele>
        <time>2021-09-20T13:37:08Z</time>
      </trkpt>
      <trkpt lat="43.8042" lon="7.19454">
        <ele>95.3</ele>
        <time>2021-09-20T13:37:09Z</time>
      </trkpt>
      <trkpt lat="43.80416" lon="7.19458">
        <ele>95.3</ele>
        <time>2021-09-20T13:37:10Z</time>
      </trkpt>
      <trkpt lat="43.80413" lon="7.1946">
        <ele>95.3</ele>
        <time>2021-09-20T13:37:11Z</time>
      </trkpt>
      <trkpt lat="43.80409" lon="7.19463">
        <ele>95.2</ele>
        <time>2021-09-20T13:37:12Z</time>
      </trkpt>
      <trkpt lat="43.80407" lon="7.19465">
        <ele>95.2</ele>
        <time>2021-09-20T13:37:13Z</time>
      </trkpt>
      <trkpt lat="43.80405" lon="7.1947">
        <ele>95.2</ele>
        <time>2021-09-20T13:37:14Z</time>
      </trkpt>
      <trkpt lat="43.80402" lon="7.19474">
        <ele>95.2</ele>
        <time>2021-09-20T13:37:15Z</time>
      </trkpt>
      <trkpt lat="43.80398" lon="7.19478">
        <ele>95.2</ele>
        <time>2021-09-20T13:37:17Z</time>
      </trkpt>
      <trkpt lat="43.80395" lon="7.19484">
        <ele>95.2</ele>
        <time>2021-09-20T13:37:18Z</time>
      </trkpt>
      <trkpt lat="43.80392" lon="7.19489">
        <ele>95.1</ele>
        <time>2021-09-20T13:37:19Z</time>
      </trkpt>
      <trkpt lat="43.80388" lon="7.19493">
        <ele>95.1</ele>
        <time>2021-09-20T13:37:20Z</time>
      </trkpt>
      <trkpt lat="43.80385" lon="7.19498">
        <ele>95.1</ele>
        <time>2021-09-20T13:37:21Z</time>
      </trkpt>
      <trkpt lat="43.80376" lon="7.19509">
        <ele>95</ele>
        <time>2021-09-20T13:37:23Z</time>
      </trkpt>
      <trkpt lat="43.80372" lon="7.19514">
        <ele>95</ele>
        <time>2021-09-20T13:37:24Z</time>
      </trkpt>
      <trkpt lat="43.80368" lon="7.19518">
        <ele>94.9</ele>
        <time>2021-09-20T13:37:25Z</time>
      </trkpt>
      <trkpt lat="43.80363" lon="7.19525">
        <ele>94.9</ele>
        <time>2021-09-20T13:37:27Z</time>
      </trkpt>
      <trkpt lat="43.80359" lon="7.19529">
        <ele>94.9</ele>
        <time>2021-09-20T13:37:28Z</time>
      </trkpt>
      <trkpt lat="43.80355" lon="7.19533">
        <ele>94.8</ele>
        <time>2021-09-20T13:37:29Z</time>
      </trkpt>
      <trkpt lat="43.80354" lon="7.19535">
        <ele>94.8</ele>
        <time>2021-09-20T13:37:30Z</time>
      </trkpt>
      <trkpt lat="43.80351" lon="7.19538">
        <ele>94.8</ele>
        <time>2021-09-20T13:37:32Z</time>
      </trkpt>
      <trkpt lat="43.80348" lon="7.1954">
        <ele>94.8</ele>
        <time>2021-09-20T13:37:33Z</time>
      </trkpt>
      <trkpt lat="43.80345" lon="7.19542">
        <ele>94.7</ele>
        <time>2021-09-20T13:37:34Z</time>
      </trkpt>
      <trkpt lat="43.80342" lon="7.19545">
        <ele>94.7</ele>
        <time>2021-09-20T13:37:35Z</time>
      </trkpt>
      <trkpt lat="43.80338" lon="7.19548">
        <ele>94.7</ele>
        <time>2021-09-20T13:37:36Z</time>
      </trkpt>
      <trkpt lat="43.80335" lon="7.19551">
        <ele>94.6</ele>
        <time>2021-09-20T13:37:37Z</time>
      </trkpt>
      <trkpt lat="43.80333" lon="7.19555">
        <ele>94.6</ele>
        <time>2021-09-20T13:37:39Z</time>
      </trkpt>
      <trkpt lat="43.8033" lon="7.19558">
        <ele>94.6</ele>
        <time>2021-09-20T13:37:40Z</time>
      </trkpt>
      <trkpt lat="43.80327" lon="7.19561">
        <ele>94.6</ele>
        <time>2021-09-20T13:37:41Z</time>
      </trkpt>
      <trkpt lat="43.80323" lon="7.19567">
        <ele>94.5</ele>
        <time>2021-09-20T13:37:43Z</time>
      </trkpt>
      <trkpt lat="43.80319" lon="7.1957">
        <ele>94.5</ele>
        <time>2021-09-20T13:37:44Z</time>
      </trkpt>
      <trkpt lat="43.80311" lon="7.19575">
        <ele>94.4</ele>
        <time>2021-09-20T13:37:46Z</time>
      </trkpt>
      <trkpt lat="43.80308" lon="7.19578">
        <ele>94.4</ele>
        <time>2021-09-20T13:37:47Z</time>
      </trkpt>
      <trkpt lat="43.80303" lon="7.19584">
        <ele>94.3</ele>
        <time>2021-09-20T13:37:49Z</time>
      </trkpt>
      <trkpt lat="43.80296" lon="7.19591">
        <ele>94.3</ele>
        <time>2021-09-20T13:37:51Z</time>
      </trkpt>
      <trkpt lat="43.80289" lon="7.196">
        <ele>94.2</ele>
        <time>2021-09-20T13:37:53Z</time>
      </trkpt>
      <trkpt lat="43.80286" lon="7.19604">
        <ele>94.2</ele>
        <time>2021-09-20T13:37:54Z</time>
      </trkpt>
      <trkpt lat="43.80284" lon="7.19609">
        <ele>94.1</ele>
        <time>2021-09-20T13:37:55Z</time>
      </trkpt>
      <trkpt lat="43.80282" lon="7.19614">
        <ele>94.1</ele>
        <time>2021-09-20T13:37:56Z</time>
      </trkpt>
      <trkpt lat="43.8028" lon="7.1962">
        <ele>94.1</ele>
        <time>2021-09-20T13:37:57Z</time>
      </trkpt>
      <trkpt lat="43.80275" lon="7.19629">
        <ele>94</ele>
        <time>2021-09-20T13:37:59Z</time>
      </trkpt>
      <trkpt lat="43.80272" lon="7.19634">
        <ele>94</ele>
        <time>2021-09-20T13:38:00Z</time>
      </trkpt>
      <trkpt lat="43.80268" lon="7.19635">
        <ele>94</ele>
        <time>2021-09-20T13:38:01Z</time>
      </trkpt>
      <trkpt lat="43.8026" lon="7.19634">
        <ele>94</ele>
        <time>2021-09-20T13:38:03Z</time>
      </trkpt>
      <trkpt lat="43.80256" lon="7.19636">
        <ele>94</ele>
        <time>2021-09-20T13:38:04Z</time>
      </trkpt>
      <trkpt lat="43.80252" lon="7.19639">
        <ele>94</ele>
        <time>2021-09-20T13:38:05Z</time>
      </trkpt>
      <trkpt lat="43.80249" lon="7.19635">
        <ele>94</ele>
        <time>2021-09-20T13:38:07Z</time>
      </trkpt>
      <trkpt lat="43.80245" lon="7.19641">
        <ele>94</ele>
        <time>2021-09-20T13:38:08Z</time>
      </trkpt>
      <trkpt lat="43.80241" lon="7.19647">
        <ele>94</ele>
        <time>2021-09-20T13:38:09Z</time>
      </trkpt>
      <trkpt lat="43.80239" lon="7.19652">
        <ele>94</ele>
        <time>2021-09-20T13:38:10Z</time>
      </trkpt>
      <trkpt lat="43.80236" lon="7.19656">
        <ele>93.9</ele>
        <time>2021-09-20T13:38:12Z</time>
      </trkpt>
      <trkpt lat="43.8023" lon="7.19662">
        <ele>93.8</ele>
        <time>2021-09-20T13:38:13Z</time>
      </trkpt>
      <trkpt lat="43.80223" lon="7.1967">
        <ele>93.7</ele>
        <time>2021-09-20T13:38:15Z</time>
      </trkpt>
      <trkpt lat="43.80221" lon="7.19673">
        <ele>93.7</ele>
        <time>2021-09-20T13:38:16Z</time>
      </trkpt>
      <trkpt lat="43.80219" lon="7.19677">
        <ele>93.7</ele>
        <time>2021-09-20T13:38:17Z</time>
      </trkpt>
      <trkpt lat="43.80216" lon="7.19682">
        <ele>93.6</ele>
        <time>2021-09-20T13:38:18Z</time>
      </trkpt>
      <trkpt lat="43.80212" lon="7.19687">
        <ele>93.6</ele>
        <time>2021-09-20T13:38:19Z</time>
      </trkpt>
      <trkpt lat="43.80208" lon="7.19694">
        <ele>93.6</ele>
        <time>2021-09-20T13:38:21Z</time>
      </trkpt>
      <trkpt lat="43.80203" lon="7.19701">
        <ele>93.5</ele>
        <time>2021-09-20T13:38:22Z</time>
      </trkpt>
      <trkpt lat="43.80196" lon="7.1971">
        <ele>93.5</ele>
        <time>2021-09-20T13:38:24Z</time>
      </trkpt>
      <trkpt lat="43.80194" lon="7.19714">
        <ele>93.4</ele>
        <time>2021-09-20T13:38:25Z</time>
      </trkpt>
      <trkpt lat="43.80191" lon="7.19719">
        <ele>93.4</ele>
        <time>2021-09-20T13:38:26Z</time>
      </trkpt>
      <trkpt lat="43.80184" lon="7.19726">
        <ele>93.4</ele>
        <time>2021-09-20T13:38:28Z</time>
      </trkpt>
      <trkpt lat="43.8018" lon="7.19731">
        <ele>93.4</ele>
        <time>2021-09-20T13:38:29Z</time>
      </trkpt>
      <trkpt lat="43.80173" lon="7.19739">
        <ele>93.3</ele>
        <time>2021-09-20T13:38:31Z</time>
      </trkpt>
      <trkpt lat="43.8017" lon="7.19741">
        <ele>93.3</ele>
        <time>2021-09-20T13:38:32Z</time>
      </trkpt>
      <trkpt lat="43.80166" lon="7.19744">
        <ele>93.3</ele>
        <time>2021-09-20T13:38:33Z</time>
      </trkpt>
      <trkpt lat="43.80163" lon="7.19748">
        <ele>93.3</ele>
        <time>2021-09-20T13:38:34Z</time>
      </trkpt>
      <trkpt lat="43.8016" lon="7.19751">
        <ele>93.3</ele>
        <time>2021-09-20T13:38:35Z</time>
      </trkpt>
      <trkpt lat="43.80156" lon="7.19755">
        <ele>93.2</ele>
        <time>2021-09-20T13:38:36Z</time>
      </trkpt>
      <trkpt lat="43.80148" lon="7.1976">
        <ele>93.2</ele>
        <time>2021-09-20T13:38:38Z</time>
      </trkpt>
      <trkpt lat="43.80139" lon="7.19768">
        <ele>93.2</ele>
        <time>2021-09-20T13:38:40Z</time>
      </trkpt>
      <trkpt lat="43.80135" lon="7.19772">
        <ele>93.2</ele>
        <time>2021-09-20T13:38:41Z</time>
      </trkpt>
      <trkpt lat="43.80127" lon="7.19781">
        <ele>93.1</ele>
        <time>2021-09-20T13:38:43Z</time>
      </trkpt>
      <trkpt lat="43.80119" lon="7.19789">
        <ele>93.1</ele>
        <time>2021-09-20T13:38:45Z</time>
      </trkpt>
      <trkpt lat="43.80115" lon="7.19793">
        <ele>93</ele>
        <time>2021-09-20T13:38:46Z</time>
      </trkpt>
      <trkpt lat="43.80112" lon="7.19798">
        <ele>93</ele>
        <time>2021-09-20T13:38:47Z</time>
      </trkpt>
      <trkpt lat="43.80106" lon="7.19809">
        <ele>93</ele>
        <time>2021-09-20T13:38:49Z</time>
      </trkpt>
      <trkpt lat="43.80098" lon="7.19828">
        <ele>93</ele>
        <time>2021-09-20T13:38:51Z</time>
      </trkpt>
      <trkpt lat="43.80094" lon="7.19837">
        <ele>93</ele>
        <time>2021-09-20T13:38:52Z</time>
      </trkpt>
      <trkpt lat="43.80091" lon="7.19844">
        <ele>93</ele>
        <time>2021-09-20T13:38:53Z</time>
      </trkpt>
      <trkpt lat="43.80084" lon="7.19856">
        <ele>93</ele>
        <time>2021-09-20T13:38:55Z</time>
      </trkpt>
      <trkpt lat="43.80077" lon="7.19863">
        <ele>93</ele>
        <time>2021-09-20T13:38:57Z</time>
      </trkpt>
      <trkpt lat="43.80073" lon="7.19867">
        <ele>93</ele>
        <time>2021-09-20T13:38:58Z</time>
      </trkpt>
      <trkpt lat="43.80066" lon="7.19874">
        <ele>93</ele>
        <time>2021-09-20T13:39:00Z</time>
      </trkpt>
      <trkpt lat="43.80062" lon="7.19877">
        <ele>93</ele>
        <time>2021-09-20T13:39:01Z</time>
      </trkpt>
      <trkpt lat="43.80053" lon="7.19883">
        <ele>92.9</ele>
        <time>2021-09-20T13:39:03Z</time>
      </trkpt>
      <trkpt lat="43.8005" lon="7.19885">
        <ele>92.9</ele>
        <time>2021-09-20T13:39:04Z</time>
      </trkpt>
      <trkpt lat="43.80048" lon="7.19886">
        <ele>92.9</ele>
        <time>2021-09-20T13:39:05Z</time>
      </trkpt>
      <trkpt lat="43.80042" lon="7.19891">
        <ele>92.8</ele>
        <time>2021-09-20T13:39:07Z</time>
      </trkpt>
      <trkpt lat="43.80035" lon="7.19894">
        <ele>92.7</ele>
        <time>2021-09-20T13:39:09Z</time>
      </trkpt>
      <trkpt lat="43.80028" lon="7.199">
        <ele>92.6</ele>
        <time>2021-09-20T13:39:11Z</time>
      </trkpt>
      <trkpt lat="43.80022" lon="7.19904">
        <ele>92.5</ele>
        <time>2021-09-20T13:39:13Z</time>
      </trkpt>
      <trkpt lat="43.80017" lon="7.19908">
        <ele>92.5</ele>
        <time>2021-09-20T13:39:14Z</time>
      </trkpt>
      <trkpt lat="43.80011" lon="7.19913">
        <ele>92.4</ele>
        <time>2021-09-20T13:39:16Z</time>
      </trkpt>
      <trkpt lat="43.80007" lon="7.19916">
        <ele>92.3</ele>
        <time>2021-09-20T13:39:17Z</time>
      </trkpt>
      <trkpt lat="43.80003" lon="7.19921">
        <ele>92.3</ele>
        <time>2021-09-20T13:39:18Z</time>
      </trkpt>
      <trkpt lat="43.79999" lon="7.19924">
        <ele>92.2</ele>
        <time>2021-09-20T13:39:19Z</time>
      </trkpt>
      <trkpt lat="43.79993" lon="7.19924">
        <ele>92.1</ele>
        <time>2021-09-20T13:39:21Z</time>
      </trkpt>
      <trkpt lat="43.79986" lon="7.19932">
        <ele>92</ele>
        <time>2021-09-20T13:39:22Z</time>
      </trkpt>
      <trkpt lat="43.79982" lon="7.19937">
        <ele>92</ele>
        <time>2021-09-20T13:39:23Z</time>
      </trkpt>
      <trkpt lat="43.79978" lon="7.19942">
        <ele>91.9</ele>
        <time>2021-09-20T13:39:24Z</time>
      </trkpt>
      <trkpt lat="43.79972" lon="7.19953">
        <ele>91.8</ele>
        <time>2021-09-20T13:39:26Z</time>
      </trkpt>
      <trkpt lat="43.79968" lon="7.19958">
        <ele>91.8</ele>
        <time>2021-09-20T13:39:27Z</time>
      </trkpt>
      <trkpt lat="43.79964" lon="7.19962">
        <ele>91.7</ele>
        <time>2021-09-20T13:39:28Z</time>
      </trkpt>
      <trkpt lat="43.79956" lon="7.19969">
        <ele>91.7</ele>
        <time>2021-09-20T13:39:30Z</time>
      </trkpt>
      <trkpt lat="43.79953" lon="7.19973">
        <ele>91.6</ele>
        <time>2021-09-20T13:39:31Z</time>
      </trkpt>
      <trkpt lat="43.79946" lon="7.19979">
        <ele>91.6</ele>
        <time>2021-09-20T13:39:33Z</time>
      </trkpt>
      <trkpt lat="43.79941" lon="7.19982">
        <ele>91.6</ele>
        <time>2021-09-20T13:39:34Z</time>
      </trkpt>
      <trkpt lat="43.79938" lon="7.19984">
        <ele>91.5</ele>
        <time>2021-09-20T13:39:35Z</time>
      </trkpt>
      <trkpt lat="43.7993" lon="7.1999">
        <ele>91.5</ele>
        <time>2021-09-20T13:39:37Z</time>
      </trkpt>
      <trkpt lat="43.79928" lon="7.19992">
        <ele>91.4</ele>
        <time>2021-09-20T13:39:38Z</time>
      </trkpt>
      <trkpt lat="43.79925" lon="7.19998">
        <ele>91.4</ele>
        <time>2021-09-20T13:39:40Z</time>
      </trkpt>
      <trkpt lat="43.79918" lon="7.20002">
        <ele>91.4</ele>
        <time>2021-09-20T13:39:41Z</time>
      </trkpt>
      <trkpt lat="43.79915" lon="7.20001">
        <ele>91.3</ele>
        <time>2021-09-20T13:39:43Z</time>
      </trkpt>
      <trkpt lat="43.79908" lon="7.20009">
        <ele>91.3</ele>
        <time>2021-09-20T13:39:45Z</time>
      </trkpt>
      <trkpt lat="43.79904" lon="7.20015">
        <ele>91.2</ele>
        <time>2021-09-20T13:39:46Z</time>
      </trkpt>
      <trkpt lat="43.79899" lon="7.20022">
        <ele>91.2</ele>
        <time>2021-09-20T13:39:47Z</time>
      </trkpt>
      <trkpt lat="43.79896" lon="7.20028">
        <ele>91.1</ele>
        <time>2021-09-20T13:39:48Z</time>
      </trkpt>
      <trkpt lat="43.79893" lon="7.20032">
        <ele>91.1</ele>
        <time>2021-09-20T13:39:50Z</time>
      </trkpt>
      <trkpt lat="43.79886" lon="7.2004">
        <ele>91</ele>
        <time>2021-09-20T13:39:52Z</time>
      </trkpt>
      <trkpt lat="43.79881" lon="7.20045">
        <ele>91</ele>
        <time>2021-09-20T13:39:53Z</time>
      </trkpt>
      <trkpt lat="43.79878" lon="7.20048">
        <ele>91</ele>
        <time>2021-09-20T13:39:54Z</time>
      </trkpt>
      <trkpt lat="43.79873" lon="7.20052">
        <ele>90.9</ele>
        <time>2021-09-20T13:39:55Z</time>
      </trkpt>
      <trkpt lat="43.79865" lon="7.20059">
        <ele>90.9</ele>
        <time>2021-09-20T13:39:57Z</time>
      </trkpt>
      <trkpt lat="43.79856" lon="7.20067">
        <ele>90.8</ele>
        <time>2021-09-20T13:39:59Z</time>
      </trkpt>
      <trkpt lat="43.79848" lon="7.20076">
        <ele>90.8</ele>
        <time>2021-09-20T13:40:01Z</time>
      </trkpt>
      <trkpt lat="43.79841" lon="7.20088">
        <ele>90.7</ele>
        <time>2021-09-20T13:40:03Z</time>
      </trkpt>
      <trkpt lat="43.79837" lon="7.20093">
        <ele>90.6</ele>
        <time>2021-09-20T13:40:04Z</time>
      </trkpt>
      <trkpt lat="43.79831" lon="7.20103">
        <ele>90.5</ele>
        <time>2021-09-20T13:40:06Z</time>
      </trkpt>
      <trkpt lat="43.79828" lon="7.20107">
        <ele>90.5</ele>
        <time>2021-09-20T13:40:07Z</time>
      </trkpt>
      <trkpt lat="43.79824" lon="7.20112">
        <ele>90.4</ele>
        <time>2021-09-20T13:40:08Z</time>
      </trkpt>
      <trkpt lat="43.79816" lon="7.20122">
        <ele>90.4</ele>
        <time>2021-09-20T13:40:10Z</time>
      </trkpt>
      <trkpt lat="43.79812" lon="7.20126">
        <ele>90.3</ele>
        <time>2021-09-20T13:40:11Z</time>
      </trkpt>
      <trkpt lat="43.79807" lon="7.20132">
        <ele>90.3</ele>
        <time>2021-09-20T13:40:13Z</time>
      </trkpt>
      <trkpt lat="43.798" lon="7.20141">
        <ele>90.3</ele>
        <time>2021-09-20T13:40:15Z</time>
      </trkpt>
      <trkpt lat="43.79796" lon="7.20139">
        <ele>90.2</ele>
        <time>2021-09-20T13:40:17Z</time>
      </trkpt>
      <trkpt lat="43.79791" lon="7.20151">
        <ele>90.2</ele>
        <time>2021-09-20T13:40:18Z</time>
      </trkpt>
      <trkpt lat="43.79786" lon="7.20159">
        <ele>90.2</ele>
        <time>2021-09-20T13:40:19Z</time>
      </trkpt>
      <trkpt lat="43.79782" lon="7.20164">
        <ele>90.1</ele>
        <time>2021-09-20T13:40:20Z</time>
      </trkpt>
      <trkpt lat="43.79775" lon="7.20177">
        <ele>90.1</ele>
        <time>2021-09-20T13:40:22Z</time>
      </trkpt>
      <trkpt lat="43.79771" lon="7.20181">
        <ele>90</ele>
        <time>2021-09-20T13:40:23Z</time>
      </trkpt>
      <trkpt lat="43.79766" lon="7.20185">
        <ele>90</ele>
        <time>2021-09-20T13:40:24Z</time>
      </trkpt>
      <trkpt lat="43.79761" lon="7.20189">
        <ele>89.9</ele>
        <time>2021-09-20T13:40:25Z</time>
      </trkpt>
      <trkpt lat="43.79753" lon="7.20197">
        <ele>89.9</ele>
        <time>2021-09-20T13:40:27Z</time>
      </trkpt>
      <trkpt lat="43.79744" lon="7.20203">
        <ele>89.8</ele>
        <time>2021-09-20T13:40:29Z</time>
      </trkpt>
      <trkpt lat="43.79735" lon="7.20209">
        <ele>89.7</ele>
        <time>2021-09-20T13:40:31Z</time>
      </trkpt>
      <trkpt lat="43.79731" lon="7.20212">
        <ele>89.7</ele>
        <time>2021-09-20T13:40:32Z</time>
      </trkpt>
      <trkpt lat="43.79728" lon="7.20207">
        <ele>89.7</ele>
        <time>2021-09-20T13:40:34Z</time>
      </trkpt>
      <trkpt lat="43.7972" lon="7.20216">
        <ele>89.7</ele>
        <time>2021-09-20T13:40:35Z</time>
      </trkpt>
      <trkpt lat="43.79716" lon="7.2022">
        <ele>89.6</ele>
        <time>2021-09-20T13:40:36Z</time>
      </trkpt>
      <trkpt lat="43.79708" lon="7.20228">
        <ele>89.6</ele>
        <time>2021-09-20T13:40:38Z</time>
      </trkpt>
      <trkpt lat="43.79699" lon="7.20235">
        <ele>89.6</ele>
        <time>2021-09-20T13:40:40Z</time>
      </trkpt>
      <trkpt lat="43.79693" lon="7.20241">
        <ele>89.5</ele>
        <time>2021-09-20T13:40:42Z</time>
      </trkpt>
      <trkpt lat="43.79688" lon="7.20245">
        <ele>89.5</ele>
        <time>2021-09-20T13:40:43Z</time>
      </trkpt>
      <trkpt lat="43.79684" lon="7.20254">
        <ele>89.5</ele>
        <time>2021-09-20T13:40:45Z</time>
      </trkpt>
      <trkpt lat="43.79679" lon="7.20259">
        <ele>89.4</ele>
        <time>2021-09-20T13:40:46Z</time>
      </trkpt>
      <trkpt lat="43.7967" lon="7.20267">
        <ele>89.4</ele>
        <time>2021-09-20T13:40:48Z</time>
      </trkpt>
      <trkpt lat="43.79662" lon="7.20273">
        <ele>89.3</ele>
        <time>2021-09-20T13:40:50Z</time>
      </trkpt>
      <trkpt lat="43.79659" lon="7.20276">
        <ele>89.3</ele>
        <time>2021-09-20T13:40:51Z</time>
      </trkpt>
      <trkpt lat="43.79656" lon="7.2028">
        <ele>89.3</ele>
        <time>2021-09-20T13:40:52Z</time>
      </trkpt>
      <trkpt lat="43.7965" lon="7.20287">
        <ele>89.2</ele>
        <time>2021-09-20T13:40:54Z</time>
      </trkpt>
      <trkpt lat="43.79644" lon="7.20295">
        <ele>89.2</ele>
        <time>2021-09-20T13:40:56Z</time>
      </trkpt>
      <trkpt lat="43.79636" lon="7.20303">
        <ele>89.1</ele>
        <time>2021-09-20T13:40:58Z</time>
      </trkpt>
      <trkpt lat="43.79633" lon="7.20307">
        <ele>89.1</ele>
        <time>2021-09-20T13:40:59Z</time>
      </trkpt>
      <trkpt lat="43.79626" lon="7.20315">
        <ele>89.1</ele>
        <time>2021-09-20T13:41:01Z</time>
      </trkpt>
      <trkpt lat="43.79619" lon="7.20323">
        <ele>89</ele>
        <time>2021-09-20T13:41:03Z</time>
      </trkpt>
      <trkpt lat="43.79617" lon="7.20326">
        <ele>89</ele>
        <time>2021-09-20T13:41:04Z</time>
      </trkpt>
      <trkpt lat="43.79616" lon="7.20327">
        <ele>89</ele>
        <time>2021-09-20T13:41:05Z</time>
      </trkpt>
      <trkpt lat="43.79613" lon="7.20332">
        <ele>89</ele>
        <time>2021-09-20T13:41:06Z</time>
      </trkpt>
      <trkpt lat="43.79608" lon="7.20339">
        <ele>88.9</ele>
        <time>2021-09-20T13:41:07Z</time>
      </trkpt>
      <trkpt lat="43.796" lon="7.20348">
        <ele>88.9</ele>
        <time>2021-09-20T13:41:09Z</time>
      </trkpt>
      <trkpt lat="43.79592" lon="7.20356">
        <ele>88.8</ele>
        <time>2021-09-20T13:41:11Z</time>
      </trkpt>
      <trkpt lat="43.79585" lon="7.20365">
        <ele>88.7</ele>
        <time>2021-09-20T13:41:13Z</time>
      </trkpt>
      <trkpt lat="43.79577" lon="7.20373">
        <ele>88.7</ele>
        <time>2021-09-20T13:41:15Z</time>
      </trkpt>
      <trkpt lat="43.79573" lon="7.20379">
        <ele>88.6</ele>
        <time>2021-09-20T13:41:17Z</time>
      </trkpt>
      <trkpt lat="43.79569" lon="7.20385">
        <ele>88.6</ele>
        <time>2021-09-20T13:41:18Z</time>
      </trkpt>
      <trkpt lat="43.79562" lon="7.20394">
        <ele>88.5</ele>
        <time>2021-09-20T13:41:20Z</time>
      </trkpt>
      <trkpt lat="43.79554" lon="7.20402">
        <ele>88.4</ele>
        <time>2021-09-20T13:41:22Z</time>
      </trkpt>
      <trkpt lat="43.79551" lon="7.20408">
        <ele>88.4</ele>
        <time>2021-09-20T13:41:23Z</time>
      </trkpt>
      <trkpt lat="43.79545" lon="7.20413">
        <ele>88.3</ele>
        <time>2021-09-20T13:41:25Z</time>
      </trkpt>
      <trkpt lat="43.79536" lon="7.2042">
        <ele>88.2</ele>
        <time>2021-09-20T13:41:27Z</time>
      </trkpt>
      <trkpt lat="43.7953" lon="7.20425">
        <ele>88.2</ele>
        <time>2021-09-20T13:41:28Z</time>
      </trkpt>
      <trkpt lat="43.79526" lon="7.20429">
        <ele>88.1</ele>
        <time>2021-09-20T13:41:29Z</time>
      </trkpt>
      <trkpt lat="43.79519" lon="7.20435">
        <ele>88.1</ele>
        <time>2021-09-20T13:41:31Z</time>
      </trkpt>
      <trkpt lat="43.79513" lon="7.20442">
        <ele>88</ele>
        <time>2021-09-20T13:41:33Z</time>
      </trkpt>
      <trkpt lat="43.79508" lon="7.20447">
        <ele>88</ele>
        <time>2021-09-20T13:41:35Z</time>
      </trkpt>
      <trkpt lat="43.79501" lon="7.20454">
        <ele>88</ele>
        <time>2021-09-20T13:41:37Z</time>
      </trkpt>
      <trkpt lat="43.79495" lon="7.2046">
        <ele>87.9</ele>
        <time>2021-09-20T13:41:38Z</time>
      </trkpt>
      <trkpt lat="43.7949" lon="7.20465">
        <ele>87.9</ele>
        <time>2021-09-20T13:41:40Z</time>
      </trkpt>
      <trkpt lat="43.79486" lon="7.20469">
        <ele>87.8</ele>
        <time>2021-09-20T13:41:41Z</time>
      </trkpt>
      <trkpt lat="43.79481" lon="7.20475">
        <ele>87.8</ele>
        <time>2021-09-20T13:41:42Z</time>
      </trkpt>
      <trkpt lat="43.79478" lon="7.20477">
        <ele>87.7</ele>
        <time>2021-09-20T13:41:43Z</time>
      </trkpt>
      <trkpt lat="43.79474" lon="7.20477">
        <ele>87.7</ele>
        <time>2021-09-20T13:41:44Z</time>
      </trkpt>
      <trkpt lat="43.79467" lon="7.20488">
        <ele>87.6</ele>
        <time>2021-09-20T13:41:46Z</time>
      </trkpt>
      <trkpt lat="43.79463" lon="7.20494">
        <ele>87.6</ele>
        <time>2021-09-20T13:41:47Z</time>
      </trkpt>
      <trkpt lat="43.79454" lon="7.20502">
        <ele>87.5</ele>
        <time>2021-09-20T13:41:49Z</time>
      </trkpt>
      <trkpt lat="43.79451" lon="7.20506">
        <ele>87.5</ele>
        <time>2021-09-20T13:41:50Z</time>
      </trkpt>
      <trkpt lat="43.79447" lon="7.20506">
        <ele>87.5</ele>
        <time>2021-09-20T13:41:51Z</time>
      </trkpt>
      <trkpt lat="43.79446" lon="7.20506">
        <ele>87.5</ele>
        <time>2021-09-20T13:41:52Z</time>
      </trkpt>
      <trkpt lat="43.79439" lon="7.20518">
        <ele>87.3</ele>
        <time>2021-09-20T13:41:54Z</time>
      </trkpt>
      <trkpt lat="43.79437" lon="7.20523">
        <ele>87.3</ele>
        <time>2021-09-20T13:41:55Z</time>
      </trkpt>
      <trkpt lat="43.79436" lon="7.20526">
        <ele>87.3</ele>
        <time>2021-09-20T13:41:56Z</time>
      </trkpt>
      <trkpt lat="43.79432" lon="7.2053">
        <ele>87.2</ele>
        <time>2021-09-20T13:41:57Z</time>
      </trkpt>
      <trkpt lat="43.79426" lon="7.20536">
        <ele>87.2</ele>
        <time>2021-09-20T13:41:59Z</time>
      </trkpt>
      <trkpt lat="43.79422" lon="7.20541">
        <ele>87.1</ele>
        <time>2021-09-20T13:42:00Z</time>
      </trkpt>
      <trkpt lat="43.79417" lon="7.20548">
        <ele>87.1</ele>
        <time>2021-09-20T13:42:02Z</time>
      </trkpt>
      <trkpt lat="43.79412" lon="7.20552">
        <ele>87</ele>
        <time>2021-09-20T13:42:03Z</time>
      </trkpt>
      <trkpt lat="43.79407" lon="7.20557">
        <ele>87</ele>
        <time>2021-09-20T13:42:05Z</time>
      </trkpt>
      <trkpt lat="43.79403" lon="7.20562">
        <ele>86.9</ele>
        <time>2021-09-20T13:42:06Z</time>
      </trkpt>
      <trkpt lat="43.79399" lon="7.20565">
        <ele>86.9</ele>
        <time>2021-09-20T13:42:07Z</time>
      </trkpt>
      <trkpt lat="43.79395" lon="7.2057">
        <ele>86.9</ele>
        <time>2021-09-20T13:42:08Z</time>
      </trkpt>
      <trkpt lat="43.79389" lon="7.20579">
        <ele>86.8</ele>
        <time>2021-09-20T13:42:10Z</time>
      </trkpt>
      <trkpt lat="43.79386" lon="7.20582">
        <ele>86.8</ele>
        <time>2021-09-20T13:42:11Z</time>
      </trkpt>
      <trkpt lat="43.79379" lon="7.2059">
        <ele>86.7</ele>
        <time>2021-09-20T13:42:13Z</time>
      </trkpt>
      <trkpt lat="43.79376" lon="7.20594">
        <ele>86.7</ele>
        <time>2021-09-20T13:42:14Z</time>
      </trkpt>
      <trkpt lat="43.79374" lon="7.20599">
        <ele>86.7</ele>
        <time>2021-09-20T13:42:15Z</time>
      </trkpt>
      <trkpt lat="43.79366" lon="7.20608">
        <ele>86.6</ele>
        <time>2021-09-20T13:42:17Z</time>
      </trkpt>
      <trkpt lat="43.79363" lon="7.20612">
        <ele>86.6</ele>
        <time>2021-09-20T13:42:18Z</time>
      </trkpt>
      <trkpt lat="43.79354" lon="7.20622">
        <ele>86.5</ele>
        <time>2021-09-20T13:42:20Z</time>
      </trkpt>
      <trkpt lat="43.79346" lon="7.20632">
        <ele>86.5</ele>
        <time>2021-09-20T13:42:22Z</time>
      </trkpt>
      <trkpt lat="43.79343" lon="7.20636">
        <ele>86.4</ele>
        <time>2021-09-20T13:42:23Z</time>
      </trkpt>
      <trkpt lat="43.79344" lon="7.20642">
        <ele>86.4</ele>
        <time>2021-09-20T13:42:25Z</time>
      </trkpt>
      <trkpt lat="43.79336" lon="7.20651">
        <ele>86.3</ele>
        <time>2021-09-20T13:42:27Z</time>
      </trkpt>
      <trkpt lat="43.79327" lon="7.20659">
        <ele>86.3</ele>
        <time>2021-09-20T13:42:29Z</time>
      </trkpt>
      <trkpt lat="43.79321" lon="7.20664">
        <ele>86.2</ele>
        <time>2021-09-20T13:42:30Z</time>
      </trkpt>
      <trkpt lat="43.79317" lon="7.20668">
        <ele>86.2</ele>
        <time>2021-09-20T13:42:31Z</time>
      </trkpt>
      <trkpt lat="43.79309" lon="7.20676">
        <ele>86.1</ele>
        <time>2021-09-20T13:42:33Z</time>
      </trkpt>
      <trkpt lat="43.79306" lon="7.20679">
        <ele>86.1</ele>
        <time>2021-09-20T13:42:34Z</time>
      </trkpt>
      <trkpt lat="43.79302" lon="7.20681">
        <ele>86.1</ele>
        <time>2021-09-20T13:42:35Z</time>
      </trkpt>
      <trkpt lat="43.79295" lon="7.20688">
        <ele>86.1</ele>
        <time>2021-09-20T13:42:37Z</time>
      </trkpt>
      <trkpt lat="43.79288" lon="7.20689">
        <ele>86</ele>
        <time>2021-09-20T13:42:39Z</time>
      </trkpt>
      <trkpt lat="43.79288" lon="7.20695">
        <ele>86</ele>
        <time>2021-09-20T13:42:41Z</time>
      </trkpt>
      <trkpt lat="43.79279" lon="7.20707">
        <ele>86</ele>
        <time>2021-09-20T13:42:42Z</time>
      </trkpt>
      <trkpt lat="43.79274" lon="7.20712">
        <ele>85.9</ele>
        <time>2021-09-20T13:42:43Z</time>
      </trkpt>
      <trkpt lat="43.79269" lon="7.20716">
        <ele>85.9</ele>
        <time>2021-09-20T13:42:44Z</time>
      </trkpt>
      <trkpt lat="43.79265" lon="7.2072">
        <ele>85.9</ele>
        <time>2021-09-20T13:42:45Z</time>
      </trkpt>
      <trkpt lat="43.79261" lon="7.20723">
        <ele>85.9</ele>
        <time>2021-09-20T13:42:46Z</time>
      </trkpt>
      <trkpt lat="43.79253" lon="7.2073">
        <ele>85.8</ele>
        <time>2021-09-20T13:42:48Z</time>
      </trkpt>
      <trkpt lat="43.79254" lon="7.20735">
        <ele>85.8</ele>
        <time>2021-09-20T13:42:50Z</time>
      </trkpt>
      <trkpt lat="43.79247" lon="7.20741">
        <ele>85.7</ele>
        <time>2021-09-20T13:42:51Z</time>
      </trkpt>
      <trkpt lat="43.79244" lon="7.20746">
        <ele>85.7</ele>
        <time>2021-09-20T13:42:52Z</time>
      </trkpt>
      <trkpt lat="43.79241" lon="7.2075">
        <ele>85.7</ele>
        <time>2021-09-20T13:42:53Z</time>
      </trkpt>
      <trkpt lat="43.79235" lon="7.2076">
        <ele>85.6</ele>
        <time>2021-09-20T13:42:55Z</time>
      </trkpt>
      <trkpt lat="43.79232" lon="7.20765">
        <ele>85.6</ele>
        <time>2021-09-20T13:42:56Z</time>
      </trkpt>
      <trkpt lat="43.79228" lon="7.20769">
        <ele>85.5</ele>
        <time>2021-09-20T13:42:57Z</time>
      </trkpt>
      <trkpt lat="43.79223" lon="7.20777">
        <ele>85.5</ele>
        <time>2021-09-20T13:42:59Z</time>
      </trkpt>
      <trkpt lat="43.79218" lon="7.20784">
        <ele>85.4</ele>
        <time>2021-09-20T13:43:01Z</time>
      </trkpt>
      <trkpt lat="43.79211" lon="7.20791">
        <ele>85.4</ele>
        <time>2021-09-20T13:43:02Z</time>
      </trkpt>
      <trkpt lat="43.79206" lon="7.20797">
        <ele>85.4</ele>
        <time>2021-09-20T13:43:03Z</time>
      </trkpt>
      <trkpt lat="43.79204" lon="7.20801">
        <ele>85.3</ele>
        <time>2021-09-20T13:43:04Z</time>
      </trkpt>
      <trkpt lat="43.79201" lon="7.20805">
        <ele>85.3</ele>
        <time>2021-09-20T13:43:05Z</time>
      </trkpt>
      <trkpt lat="43.79198" lon="7.20809">
        <ele>85.3</ele>
        <time>2021-09-20T13:43:06Z</time>
      </trkpt>
      <trkpt lat="43.79191" lon="7.20817">
        <ele>85.2</ele>
        <time>2021-09-20T13:43:08Z</time>
      </trkpt>
      <trkpt lat="43.79188" lon="7.20825">
        <ele>85.2</ele>
        <time>2021-09-20T13:43:10Z</time>
      </trkpt>
      <trkpt lat="43.79178" lon="7.20834">
        <ele>85.1</ele>
        <time>2021-09-20T13:43:11Z</time>
      </trkpt>
      <trkpt lat="43.79174" lon="7.20838">
        <ele>85.1</ele>
        <time>2021-09-20T13:43:12Z</time>
      </trkpt>
      <trkpt lat="43.79169" lon="7.20843">
        <ele>85</ele>
        <time>2021-09-20T13:43:13Z</time>
      </trkpt>
      <trkpt lat="43.79166" lon="7.20848">
        <ele>85</ele>
        <time>2021-09-20T13:43:14Z</time>
      </trkpt>
      <trkpt lat="43.79161" lon="7.20853">
        <ele>85</ele>
        <time>2021-09-20T13:43:16Z</time>
      </trkpt>
      <trkpt lat="43.79158" lon="7.20857">
        <ele>84.9</ele>
        <time>2021-09-20T13:43:17Z</time>
      </trkpt>
      <trkpt lat="43.79152" lon="7.20863">
        <ele>84.9</ele>
        <time>2021-09-20T13:43:18Z</time>
      </trkpt>
      <trkpt lat="43.79149" lon="7.20868">
        <ele>84.9</ele>
        <time>2021-09-20T13:43:19Z</time>
      </trkpt>
      <trkpt lat="43.79143" lon="7.20874">
        <ele>84.8</ele>
        <time>2021-09-20T13:43:20Z</time>
      </trkpt>
      <trkpt lat="43.79139" lon="7.20879">
        <ele>84.8</ele>
        <time>2021-09-20T13:43:22Z</time>
      </trkpt>
      <trkpt lat="43.79136" lon="7.20883">
        <ele>84.8</ele>
        <time>2021-09-20T13:43:23Z</time>
      </trkpt>
      <trkpt lat="43.79129" lon="7.20891">
        <ele>84.7</ele>
        <time>2021-09-20T13:43:25Z</time>
      </trkpt>
      <trkpt lat="43.79123" lon="7.20899">
        <ele>84.7</ele>
        <time>2021-09-20T13:43:27Z</time>
      </trkpt>
      <trkpt lat="43.79119" lon="7.20903">
        <ele>84.7</ele>
        <time>2021-09-20T13:43:28Z</time>
      </trkpt>
      <trkpt lat="43.79117" lon="7.20906">
        <ele>84.6</ele>
        <time>2021-09-20T13:43:29Z</time>
      </trkpt>
      <trkpt lat="43.79112" lon="7.20912">
        <ele>84.6</ele>
        <time>2021-09-20T13:43:31Z</time>
      </trkpt>
      <trkpt lat="43.79108" lon="7.20918">
        <ele>84.6</ele>
        <time>2021-09-20T13:43:32Z</time>
      </trkpt>
      <trkpt lat="43.79104" lon="7.20923">
        <ele>84.5</ele>
        <time>2021-09-20T13:43:33Z</time>
      </trkpt>
      <trkpt lat="43.79098" lon="7.2093">
        <ele>84.5</ele>
        <time>2021-09-20T13:43:35Z</time>
      </trkpt>
      <trkpt lat="43.79091" lon="7.20936">
        <ele>84.5</ele>
        <time>2021-09-20T13:43:37Z</time>
      </trkpt>
      <trkpt lat="43.79084" lon="7.20945">
        <ele>84.4</ele>
        <time>2021-09-20T13:43:39Z</time>
      </trkpt>
      <trkpt lat="43.79079" lon="7.20949">
        <ele>84.3</ele>
        <time>2021-09-20T13:43:40Z</time>
      </trkpt>
      <trkpt lat="43.79074" lon="7.20951">
        <ele>84.3</ele>
        <time>2021-09-20T13:43:41Z</time>
      </trkpt>
      <trkpt lat="43.79064" lon="7.20961">
        <ele>84.2</ele>
        <time>2021-09-20T13:43:43Z</time>
      </trkpt>
      <trkpt lat="43.79059" lon="7.20968">
        <ele>84.1</ele>
        <time>2021-09-20T13:43:45Z</time>
      </trkpt>
      <trkpt lat="43.79052" lon="7.20974">
        <ele>84</ele>
        <time>2021-09-20T13:43:46Z</time>
      </trkpt>
      <trkpt lat="43.79047" lon="7.20979">
        <ele>84</ele>
        <time>2021-09-20T13:43:47Z</time>
      </trkpt>
      <trkpt lat="43.79043" lon="7.20984">
        <ele>83.9</ele>
        <time>2021-09-20T13:43:48Z</time>
      </trkpt>
      <trkpt lat="43.79033" lon="7.20993">
        <ele>83.8</ele>
        <time>2021-09-20T13:43:50Z</time>
      </trkpt>
      <trkpt lat="43.79029" lon="7.20997">
        <ele>83.7</ele>
        <time>2021-09-20T13:43:51Z</time>
      </trkpt>
      <trkpt lat="43.79025" lon="7.21001">
        <ele>83.7</ele>
        <time>2021-09-20T13:43:52Z</time>
      </trkpt>
      <trkpt lat="43.79021" lon="7.21005">
        <ele>83.6</ele>
        <time>2021-09-20T13:43:53Z</time>
      </trkpt>
      <trkpt lat="43.79014" lon="7.21012">
        <ele>83.5</ele>
        <time>2021-09-20T13:43:55Z</time>
      </trkpt>
      <trkpt lat="43.79007" lon="7.2102">
        <ele>83.4</ele>
        <time>2021-09-20T13:43:57Z</time>
      </trkpt>
      <trkpt lat="43.79003" lon="7.21025">
        <ele>83.4</ele>
        <time>2021-09-20T13:43:58Z</time>
      </trkpt>
      <trkpt lat="43.78998" lon="7.21028">
        <ele>83.3</ele>
        <time>2021-09-20T13:43:59Z</time>
      </trkpt>
      <trkpt lat="43.78993" lon="7.21034">
        <ele>83.3</ele>
        <time>2021-09-20T13:44:01Z</time>
      </trkpt>
      <trkpt lat="43.78987" lon="7.2104">
        <ele>83.2</ele>
        <time>2021-09-20T13:44:02Z</time>
      </trkpt>
      <trkpt lat="43.78979" lon="7.21049">
        <ele>83.1</ele>
        <time>2021-09-20T13:44:04Z</time>
      </trkpt>
      <trkpt lat="43.78972" lon="7.21054">
        <ele>83.1</ele>
        <time>2021-09-20T13:44:06Z</time>
      </trkpt>
      <trkpt lat="43.78964" lon="7.21065">
        <ele>83</ele>
        <time>2021-09-20T13:44:08Z</time>
      </trkpt>
      <trkpt lat="43.7896" lon="7.2107">
        <ele>83</ele>
        <time>2021-09-20T13:44:09Z</time>
      </trkpt>
      <trkpt lat="43.78957" lon="7.21074">
        <ele>83</ele>
        <time>2021-09-20T13:44:10Z</time>
      </trkpt>
      <trkpt lat="43.7895" lon="7.21083">
        <ele>82.9</ele>
        <time>2021-09-20T13:44:12Z</time>
      </trkpt>
      <trkpt lat="43.78947" lon="7.21085">
        <ele>82.9</ele>
        <time>2021-09-20T13:44:13Z</time>
      </trkpt>
      <trkpt lat="43.78943" lon="7.2109">
        <ele>82.9</ele>
        <time>2021-09-20T13:44:15Z</time>
      </trkpt>
      <trkpt lat="43.78937" lon="7.21093">
        <ele>82.8</ele>
        <time>2021-09-20T13:44:16Z</time>
      </trkpt>
      <trkpt lat="43.78932" lon="7.21096">
        <ele>82.8</ele>
        <time>2021-09-20T13:44:17Z</time>
      </trkpt>
      <trkpt lat="43.78924" lon="7.21102">
        <ele>82.8</ele>
        <time>2021-09-20T13:44:19Z</time>
      </trkpt>
      <trkpt lat="43.7892" lon="7.21104">
        <ele>82.8</ele>
        <time>2021-09-20T13:44:20Z</time>
      </trkpt>
      <trkpt lat="43.78916" lon="7.2111">
        <ele>82.7</ele>
        <time>2021-09-20T13:44:22Z</time>
      </trkpt>
      <trkpt lat="43.78914" lon="7.21114">
        <ele>82.7</ele>
        <time>2021-09-20T13:44:23Z</time>
      </trkpt>
      <trkpt lat="43.78912" lon="7.21118">
        <ele>82.7</ele>
        <time>2021-09-20T13:44:24Z</time>
      </trkpt>
      <trkpt lat="43.78905" lon="7.21124">
        <ele>82.6</ele>
        <time>2021-09-20T13:44:26Z</time>
      </trkpt>
      <trkpt lat="43.78901" lon="7.21127">
        <ele>82.6</ele>
        <time>2021-09-20T13:44:27Z</time>
      </trkpt>
      <trkpt lat="43.78897" lon="7.2113">
        <ele>82.6</ele>
        <time>2021-09-20T13:44:28Z</time>
      </trkpt>
      <trkpt lat="43.78893" lon="7.21132">
        <ele>82.5</ele>
        <time>2021-09-20T13:44:29Z</time>
      </trkpt>
      <trkpt lat="43.78886" lon="7.21138">
        <ele>82.5</ele>
        <time>2021-09-20T13:44:31Z</time>
      </trkpt>
      <trkpt lat="43.78882" lon="7.21141">
        <ele>82.4</ele>
        <time>2021-09-20T13:44:32Z</time>
      </trkpt>
      <trkpt lat="43.78875" lon="7.21146">
        <ele>82.4</ele>
        <time>2021-09-20T13:44:34Z</time>
      </trkpt>
      <trkpt lat="43.78869" lon="7.21151">
        <ele>82.3</ele>
        <time>2021-09-20T13:44:36Z</time>
      </trkpt>
      <trkpt lat="43.78864" lon="7.21154">
        <ele>82.3</ele>
        <time>2021-09-20T13:44:37Z</time>
      </trkpt>
      <trkpt lat="43.78857" lon="7.21159">
        <ele>82.2</ele>
        <time>2021-09-20T13:44:39Z</time>
      </trkpt>
      <trkpt lat="43.78852" lon="7.21164">
        <ele>82.2</ele>
        <time>2021-09-20T13:44:40Z</time>
      </trkpt>
      <trkpt lat="43.78846" lon="7.2117">
        <ele>82.1</ele>
        <time>2021-09-20T13:44:42Z</time>
      </trkpt>
      <trkpt lat="43.7884" lon="7.21174">
        <ele>82.1</ele>
        <time>2021-09-20T13:44:43Z</time>
      </trkpt>
      <trkpt lat="43.78834" lon="7.21178">
        <ele>82.1</ele>
        <time>2021-09-20T13:44:45Z</time>
      </trkpt>
      <trkpt lat="43.7883" lon="7.21177">
        <ele>82.1</ele>
        <time>2021-09-20T13:44:46Z</time>
      </trkpt>
      <trkpt lat="43.78823" lon="7.21184">
        <ele>82</ele>
        <time>2021-09-20T13:44:48Z</time>
      </trkpt>
      <trkpt lat="43.78816" lon="7.21191">
        <ele>82</ele>
        <time>2021-09-20T13:44:49Z</time>
      </trkpt>
      <trkpt lat="43.78811" lon="7.21196">
        <ele>82</ele>
        <time>2021-09-20T13:44:51Z</time>
      </trkpt>
      <trkpt lat="43.78803" lon="7.21203">
        <ele>81.9</ele>
        <time>2021-09-20T13:44:53Z</time>
      </trkpt>
      <trkpt lat="43.78796" lon="7.2121">
        <ele>81.9</ele>
        <time>2021-09-20T13:44:55Z</time>
      </trkpt>
      <trkpt lat="43.78792" lon="7.21214">
        <ele>81.9</ele>
        <time>2021-09-20T13:44:56Z</time>
      </trkpt>
      <trkpt lat="43.7879" lon="7.21217">
        <ele>81.9</ele>
        <time>2021-09-20T13:44:57Z</time>
      </trkpt>
      <trkpt lat="43.78786" lon="7.2122">
        <ele>81.8</ele>
        <time>2021-09-20T13:44:58Z</time>
      </trkpt>
      <trkpt lat="43.78782" lon="7.21223">
        <ele>81.8</ele>
        <time>2021-09-20T13:44:59Z</time>
      </trkpt>
      <trkpt lat="43.78778" lon="7.21226">
        <ele>81.8</ele>
        <time>2021-09-20T13:45:00Z</time>
      </trkpt>
      <trkpt lat="43.78774" lon="7.21229">
        <ele>81.8</ele>
        <time>2021-09-20T13:45:01Z</time>
      </trkpt>
      <trkpt lat="43.7877" lon="7.21232">
        <ele>81.8</ele>
        <time>2021-09-20T13:45:02Z</time>
      </trkpt>
      <trkpt lat="43.78765" lon="7.21237">
        <ele>81.7</ele>
        <time>2021-09-20T13:45:04Z</time>
      </trkpt>
      <trkpt lat="43.78759" lon="7.21242">
        <ele>81.7</ele>
        <time>2021-09-20T13:45:06Z</time>
      </trkpt>
      <trkpt lat="43.78754" lon="7.21245">
        <ele>81.7</ele>
        <time>2021-09-20T13:45:07Z</time>
      </trkpt>
      <trkpt lat="43.78751" lon="7.21247">
        <ele>81.6</ele>
        <time>2021-09-20T13:45:08Z</time>
      </trkpt>
      <trkpt lat="43.78747" lon="7.21249">
        <ele>81.6</ele>
        <time>2021-09-20T13:45:09Z</time>
      </trkpt>
      <trkpt lat="43.78743" lon="7.21251">
        <ele>81.6</ele>
        <time>2021-09-20T13:45:10Z</time>
      </trkpt>
      <trkpt lat="43.78739" lon="7.21253">
        <ele>81.6</ele>
        <time>2021-09-20T13:45:11Z</time>
      </trkpt>
      <trkpt lat="43.78734" lon="7.21256">
        <ele>81.6</ele>
        <time>2021-09-20T13:45:12Z</time>
      </trkpt>
      <trkpt lat="43.7873" lon="7.21259">
        <ele>81.5</ele>
        <time>2021-09-20T13:45:13Z</time>
      </trkpt>
      <trkpt lat="43.78726" lon="7.21262">
        <ele>81.5</ele>
        <time>2021-09-20T13:45:14Z</time>
      </trkpt>
      <trkpt lat="43.7872" lon="7.21266">
        <ele>81.5</ele>
        <time>2021-09-20T13:45:16Z</time>
      </trkpt>
      <trkpt lat="43.78715" lon="7.21269">
        <ele>81.5</ele>
        <time>2021-09-20T13:45:17Z</time>
      </trkpt>
      <trkpt lat="43.78702" lon="7.21276">
        <ele>81.4</ele>
        <time>2021-09-20T13:45:19Z</time>
      </trkpt>
      <trkpt lat="43.78692" lon="7.21281">
        <ele>81.4</ele>
        <time>2021-09-20T13:45:21Z</time>
      </trkpt>
      <trkpt lat="43.78683" lon="7.21286">
        <ele>81.3</ele>
        <time>2021-09-20T13:45:23Z</time>
      </trkpt>
      <trkpt lat="43.78676" lon="7.21288">
        <ele>81.3</ele>
        <time>2021-09-20T13:45:25Z</time>
      </trkpt>
      <trkpt lat="43.78673" lon="7.2129">
        <ele>81.3</ele>
        <time>2021-09-20T13:45:26Z</time>
      </trkpt>
      <trkpt lat="43.78668" lon="7.21295">
        <ele>81.2</ele>
        <time>2021-09-20T13:45:27Z</time>
      </trkpt>
      <trkpt lat="43.78663" lon="7.21299">
        <ele>81.2</ele>
        <time>2021-09-20T13:45:28Z</time>
      </trkpt>
      <trkpt lat="43.78656" lon="7.21304">
        <ele>81.2</ele>
        <time>2021-09-20T13:45:30Z</time>
      </trkpt>
      <trkpt lat="43.78652" lon="7.21308">
        <ele>81.2</ele>
        <time>2021-09-20T13:45:31Z</time>
      </trkpt>
      <trkpt lat="43.78648" lon="7.21314">
        <ele>81.2</ele>
        <time>2021-09-20T13:45:33Z</time>
      </trkpt>
      <trkpt lat="43.78644" lon="7.21313">
        <ele>81.2</ele>
        <time>2021-09-20T13:45:34Z</time>
      </trkpt>
      <trkpt lat="43.78637" lon="7.21316">
        <ele>81.2</ele>
        <time>2021-09-20T13:45:36Z</time>
      </trkpt>
      <trkpt lat="43.78629" lon="7.2132">
        <ele>81.1</ele>
        <time>2021-09-20T13:45:38Z</time>
      </trkpt>
      <trkpt lat="43.78622" lon="7.21323">
        <ele>81.1</ele>
        <time>2021-09-20T13:45:40Z</time>
      </trkpt>
      <trkpt lat="43.78618" lon="7.21325">
        <ele>81.1</ele>
        <time>2021-09-20T13:45:41Z</time>
      </trkpt>
      <trkpt lat="43.78614" lon="7.21327">
        <ele>81.1</ele>
        <time>2021-09-20T13:45:42Z</time>
      </trkpt>
      <trkpt lat="43.78609" lon="7.21329">
        <ele>81</ele>
        <time>2021-09-20T13:45:43Z</time>
      </trkpt>
      <trkpt lat="43.78604" lon="7.21331">
        <ele>81</ele>
        <time>2021-09-20T13:45:44Z</time>
      </trkpt>
      <trkpt lat="43.78594" lon="7.21336">
        <ele>81</ele>
        <time>2021-09-20T13:45:46Z</time>
      </trkpt>
      <trkpt lat="43.7859" lon="7.21338">
        <ele>80.9</ele>
        <time>2021-09-20T13:45:47Z</time>
      </trkpt>
      <trkpt lat="43.78583" lon="7.21338">
        <ele>80.9</ele>
        <time>2021-09-20T13:45:49Z</time>
      </trkpt>
      <trkpt lat="43.78575" lon="7.21343">
        <ele>80.9</ele>
        <time>2021-09-20T13:45:51Z</time>
      </trkpt>
      <trkpt lat="43.78571" lon="7.21345">
        <ele>80.9</ele>
        <time>2021-09-20T13:45:52Z</time>
      </trkpt>
      <trkpt lat="43.78564" lon="7.21348">
        <ele>80.8</ele>
        <time>2021-09-20T13:45:54Z</time>
      </trkpt>
      <trkpt lat="43.78557" lon="7.21353">
        <ele>80.8</ele>
        <time>2021-09-20T13:45:56Z</time>
      </trkpt>
      <trkpt lat="43.78553" lon="7.21355">
        <ele>80.8</ele>
        <time>2021-09-20T13:45:57Z</time>
      </trkpt>
      <trkpt lat="43.78548" lon="7.21358">
        <ele>80.8</ele>
        <time>2021-09-20T13:45:58Z</time>
      </trkpt>
      <trkpt lat="43.78543" lon="7.21361">
        <ele>80.7</ele>
        <time>2021-09-20T13:46:00Z</time>
      </trkpt>
      <trkpt lat="43.78538" lon="7.21362">
        <ele>80.7</ele>
        <time>2021-09-20T13:46:01Z</time>
      </trkpt>
      <trkpt lat="43.78531" lon="7.21366">
        <ele>80.6</ele>
        <time>2021-09-20T13:46:03Z</time>
      </trkpt>
      <trkpt lat="43.78524" lon="7.21369">
        <ele>80.5</ele>
        <time>2021-09-20T13:46:04Z</time>
      </trkpt>
      <trkpt lat="43.78519" lon="7.2137">
        <ele>80.5</ele>
        <time>2021-09-20T13:46:05Z</time>
      </trkpt>
      <trkpt lat="43.78512" lon="7.21371">
        <ele>80.5</ele>
        <time>2021-09-20T13:46:06Z</time>
      </trkpt>
      <trkpt lat="43.78506" lon="7.21372">
        <ele>80.4</ele>
        <time>2021-09-20T13:46:08Z</time>
      </trkpt>
      <trkpt lat="43.785" lon="7.21374">
        <ele>80.4</ele>
        <time>2021-09-20T13:46:09Z</time>
      </trkpt>
      <trkpt lat="43.78496" lon="7.21376">
        <ele>80.4</ele>
        <time>2021-09-20T13:46:10Z</time>
      </trkpt>
      <trkpt lat="43.78488" lon="7.2138">
        <ele>80.3</ele>
        <time>2021-09-20T13:46:12Z</time>
      </trkpt>
      <trkpt lat="43.78483" lon="7.21381">
        <ele>80.3</ele>
        <time>2021-09-20T13:46:13Z</time>
      </trkpt>
      <trkpt lat="43.78478" lon="7.21382">
        <ele>80.3</ele>
        <time>2021-09-20T13:46:14Z</time>
      </trkpt>
      <trkpt lat="43.78469" lon="7.21385">
        <ele>80.2</ele>
        <time>2021-09-20T13:46:16Z</time>
      </trkpt>
      <trkpt lat="43.78459" lon="7.21387">
        <ele>80.2</ele>
        <time>2021-09-20T13:46:18Z</time>
      </trkpt>
      <trkpt lat="43.78449" lon="7.21391">
        <ele>80.1</ele>
        <time>2021-09-20T13:46:20Z</time>
      </trkpt>
      <trkpt lat="43.7844" lon="7.21396">
        <ele>80</ele>
        <time>2021-09-20T13:46:22Z</time>
      </trkpt>
      <trkpt lat="43.78435" lon="7.21397">
        <ele>79.9</ele>
        <time>2021-09-20T13:46:23Z</time>
      </trkpt>
      <trkpt lat="43.78427" lon="7.21398">
        <ele>79.9</ele>
        <time>2021-09-20T13:46:25Z</time>
      </trkpt>
      <trkpt lat="43.78424" lon="7.21396">
        <ele>79.8</ele>
        <time>2021-09-20T13:46:26Z</time>
      </trkpt>
      <trkpt lat="43.78419" lon="7.21399">
        <ele>79.8</ele>
        <time>2021-09-20T13:46:27Z</time>
      </trkpt>
      <trkpt lat="43.78415" lon="7.21401">
        <ele>79.7</ele>
        <time>2021-09-20T13:46:28Z</time>
      </trkpt>
      <trkpt lat="43.78411" lon="7.21403">
        <ele>79.7</ele>
        <time>2021-09-20T13:46:29Z</time>
      </trkpt>
      <trkpt lat="43.78403" lon="7.21405">
        <ele>79.6</ele>
        <time>2021-09-20T13:46:31Z</time>
      </trkpt>
      <trkpt lat="43.78399" lon="7.21406">
        <ele>79.6</ele>
        <time>2021-09-20T13:46:32Z</time>
      </trkpt>
      <trkpt lat="43.78392" lon="7.21408">
        <ele>79.6</ele>
        <time>2021-09-20T13:46:34Z</time>
      </trkpt>
      <trkpt lat="43.78382" lon="7.2141">
        <ele>79.5</ele>
        <time>2021-09-20T13:46:36Z</time>
      </trkpt>
      <trkpt lat="43.78378" lon="7.21411">
        <ele>79.4</ele>
        <time>2021-09-20T13:46:37Z</time>
      </trkpt>
      <trkpt lat="43.78373" lon="7.21411">
        <ele>79.4</ele>
        <time>2021-09-20T13:46:38Z</time>
      </trkpt>
      <trkpt lat="43.78368" lon="7.21412">
        <ele>79.4</ele>
        <time>2021-09-20T13:46:39Z</time>
      </trkpt>
      <trkpt lat="43.78359" lon="7.21415">
        <ele>79.3</ele>
        <time>2021-09-20T13:46:41Z</time>
      </trkpt>
      <trkpt lat="43.78351" lon="7.21417">
        <ele>79.2</ele>
        <time>2021-09-20T13:46:43Z</time>
      </trkpt>
      <trkpt lat="43.78347" lon="7.21418">
        <ele>79.2</ele>
        <time>2021-09-20T13:46:44Z</time>
      </trkpt>
      <trkpt lat="43.78343" lon="7.2142">
        <ele>79.2</ele>
        <time>2021-09-20T13:46:45Z</time>
      </trkpt>
      <trkpt lat="43.78335" lon="7.21421">
        <ele>79.1</ele>
        <time>2021-09-20T13:46:47Z</time>
      </trkpt>
      <trkpt lat="43.7833" lon="7.21421">
        <ele>79</ele>
        <time>2021-09-20T13:46:48Z</time>
      </trkpt>
      <trkpt lat="43.78327" lon="7.2142">
        <ele>79</ele>
        <time>2021-09-20T13:46:49Z</time>
      </trkpt>
      <trkpt lat="43.78321" lon="7.2142">
        <ele>79</ele>
        <time>2021-09-20T13:46:50Z</time>
      </trkpt>
      <trkpt lat="43.78315" lon="7.2142">
        <ele>78.9</ele>
        <time>2021-09-20T13:46:52Z</time>
      </trkpt>
      <trkpt lat="43.78311" lon="7.21421">
        <ele>78.9</ele>
        <time>2021-09-20T13:46:53Z</time>
      </trkpt>
      <trkpt lat="43.78308" lon="7.21421">
        <ele>78.8</ele>
        <time>2021-09-20T13:46:54Z</time>
      </trkpt>
      <trkpt lat="43.78301" lon="7.21422">
        <ele>78.8</ele>
        <time>2021-09-20T13:46:56Z</time>
      </trkpt>
      <trkpt lat="43.78293" lon="7.21422">
        <ele>78.7</ele>
        <time>2021-09-20T13:46:57Z</time>
      </trkpt>
      <trkpt lat="43.78285" lon="7.21421">
        <ele>78.7</ele>
        <time>2021-09-20T13:46:59Z</time>
      </trkpt>
      <trkpt lat="43.78277" lon="7.21421">
        <ele>78.6</ele>
        <time>2021-09-20T13:47:00Z</time>
      </trkpt>
      <trkpt lat="43.78273" lon="7.21422">
        <ele>78.6</ele>
        <time>2021-09-20T13:47:02Z</time>
      </trkpt>
      <trkpt lat="43.78271" lon="7.21425">
        <ele>78.6</ele>
        <time>2021-09-20T13:47:03Z</time>
      </trkpt>
      <trkpt lat="43.78266" lon="7.21426">
        <ele>78.5</ele>
        <time>2021-09-20T13:47:04Z</time>
      </trkpt>
      <trkpt lat="43.78262" lon="7.21427">
        <ele>78.5</ele>
        <time>2021-09-20T13:47:05Z</time>
      </trkpt>
      <trkpt lat="43.78257" lon="7.21428">
        <ele>78.5</ele>
        <time>2021-09-20T13:47:06Z</time>
      </trkpt>
      <trkpt lat="43.78253" lon="7.21429">
        <ele>78.4</ele>
        <time>2021-09-20T13:47:07Z</time>
      </trkpt>
      <trkpt lat="43.78249" lon="7.2143">
        <ele>78.4</ele>
        <time>2021-09-20T13:47:08Z</time>
      </trkpt>
      <trkpt lat="43.7824" lon="7.2143">
        <ele>78.3</ele>
        <time>2021-09-20T13:47:10Z</time>
      </trkpt>
      <trkpt lat="43.78232" lon="7.21431">
        <ele>78.3</ele>
        <time>2021-09-20T13:47:12Z</time>
      </trkpt>
      <trkpt lat="43.78228" lon="7.21431">
        <ele>78.3</ele>
        <time>2021-09-20T13:47:13Z</time>
      </trkpt>
      <trkpt lat="43.78224" lon="7.21431">
        <ele>78.3</ele>
        <time>2021-09-20T13:47:14Z</time>
      </trkpt>
      <trkpt lat="43.78219" lon="7.21431">
        <ele>78.3</ele>
        <time>2021-09-20T13:47:16Z</time>
      </trkpt>
      <trkpt lat="43.78215" lon="7.21432">
        <ele>78.3</ele>
        <time>2021-09-20T13:47:17Z</time>
      </trkpt>
      <trkpt lat="43.78209" lon="7.21432">
        <ele>78.3</ele>
        <time>2021-09-20T13:47:18Z</time>
      </trkpt>
      <trkpt lat="43.78204" lon="7.21432">
        <ele>78.2</ele>
        <time>2021-09-20T13:47:19Z</time>
      </trkpt>
      <trkpt lat="43.78198" lon="7.21433">
        <ele>78.2</ele>
        <time>2021-09-20T13:47:21Z</time>
      </trkpt>
      <trkpt lat="43.78192" lon="7.21434">
        <ele>78.2</ele>
        <time>2021-09-20T13:47:22Z</time>
      </trkpt>
      <trkpt lat="43.78188" lon="7.21435">
        <ele>78.1</ele>
        <time>2021-09-20T13:47:23Z</time>
      </trkpt>
      <trkpt lat="43.78182" lon="7.21436">
        <ele>78.1</ele>
        <time>2021-09-20T13:47:24Z</time>
      </trkpt>
      <trkpt lat="43.78173" lon="7.21434">
        <ele>78.1</ele>
        <time>2021-09-20T13:47:26Z</time>
      </trkpt>
      <trkpt lat="43.78165" lon="7.21431">
        <ele>78</ele>
        <time>2021-09-20T13:47:28Z</time>
      </trkpt>
      <trkpt lat="43.78158" lon="7.21433">
        <ele>78</ele>
        <time>2021-09-20T13:47:29Z</time>
      </trkpt>
      <trkpt lat="43.78147" lon="7.21434">
        <ele>77.8</ele>
        <time>2021-09-20T13:47:31Z</time>
      </trkpt>
      <trkpt lat="43.78134" lon="7.21433">
        <ele>77.7</ele>
        <time>2021-09-20T13:47:33Z</time>
      </trkpt>
      <trkpt lat="43.78123" lon="7.21433">
        <ele>77.5</ele>
        <time>2021-09-20T13:47:35Z</time>
      </trkpt>
      <trkpt lat="43.78112" lon="7.21431">
        <ele>77.4</ele>
        <time>2021-09-20T13:47:37Z</time>
      </trkpt>
      <trkpt lat="43.781" lon="7.21428">
        <ele>77.2</ele>
        <time>2021-09-20T13:47:39Z</time>
      </trkpt>
      <trkpt lat="43.78094" lon="7.21427">
        <ele>77</ele>
        <time>2021-09-20T13:47:40Z</time>
      </trkpt>
      <trkpt lat="43.78083" lon="7.21426">
        <ele>76.8</ele>
        <time>2021-09-20T13:47:42Z</time>
      </trkpt>
      <trkpt lat="43.78078" lon="7.21426">
        <ele>76.7</ele>
        <time>2021-09-20T13:47:43Z</time>
      </trkpt>
      <trkpt lat="43.78068" lon="7.21426">
        <ele>76.5</ele>
        <time>2021-09-20T13:47:45Z</time>
      </trkpt>
      <trkpt lat="43.78063" lon="7.21426">
        <ele>76.4</ele>
        <time>2021-09-20T13:47:46Z</time>
      </trkpt>
      <trkpt lat="43.78058" lon="7.21426">
        <ele>76.3</ele>
        <time>2021-09-20T13:47:47Z</time>
      </trkpt>
      <trkpt lat="43.78054" lon="7.21426">
        <ele>76.3</ele>
        <time>2021-09-20T13:47:48Z</time>
      </trkpt>
      <trkpt lat="43.78049" lon="7.21426">
        <ele>76.2</ele>
        <time>2021-09-20T13:47:49Z</time>
      </trkpt>
      <trkpt lat="43.7804" lon="7.21427">
        <ele>76.1</ele>
        <time>2021-09-20T13:47:51Z</time>
      </trkpt>
      <trkpt lat="43.78035" lon="7.21427">
        <ele>76.1</ele>
        <time>2021-09-20T13:47:52Z</time>
      </trkpt>
      <trkpt lat="43.78031" lon="7.21427">
        <ele>76</ele>
        <time>2021-09-20T13:47:53Z</time>
      </trkpt>
      <trkpt lat="43.78026" lon="7.21426">
        <ele>76</ele>
        <time>2021-09-20T13:47:54Z</time>
      </trkpt>
      <trkpt lat="43.78022" lon="7.21426">
        <ele>76</ele>
        <time>2021-09-20T13:47:55Z</time>
      </trkpt>
      <trkpt lat="43.78014" lon="7.21426">
        <ele>75.9</ele>
        <time>2021-09-20T13:47:57Z</time>
      </trkpt>
      <trkpt lat="43.78011" lon="7.21425">
        <ele>75.9</ele>
        <time>2021-09-20T13:47:58Z</time>
      </trkpt>
      <trkpt lat="43.78007" lon="7.21424">
        <ele>75.9</ele>
        <time>2021-09-20T13:47:59Z</time>
      </trkpt>
      <trkpt lat="43.77997" lon="7.21424">
        <ele>75.8</ele>
        <time>2021-09-20T13:48:01Z</time>
      </trkpt>
      <trkpt lat="43.77992" lon="7.21424">
        <ele>75.8</ele>
        <time>2021-09-20T13:48:02Z</time>
      </trkpt>
      <trkpt lat="43.77982" lon="7.21422">
        <ele>75.8</ele>
        <time>2021-09-20T13:48:04Z</time>
      </trkpt>
      <trkpt lat="43.77973" lon="7.21421">
        <ele>75.7</ele>
        <time>2021-09-20T13:48:06Z</time>
      </trkpt>
      <trkpt lat="43.77969" lon="7.2142">
        <ele>75.7</ele>
        <time>2021-09-20T13:48:07Z</time>
      </trkpt>
      <trkpt lat="43.7796" lon="7.2142">
        <ele>75.6</ele>
        <time>2021-09-20T13:48:09Z</time>
      </trkpt>
      <trkpt lat="43.77955" lon="7.2142">
        <ele>75.6</ele>
        <time>2021-09-20T13:48:10Z</time>
      </trkpt>
      <trkpt lat="43.77943" lon="7.21421">
        <ele>75.5</ele>
        <time>2021-09-20T13:48:12Z</time>
      </trkpt>
      <trkpt lat="43.77938" lon="7.2142">
        <ele>75.4</ele>
        <time>2021-09-20T13:48:13Z</time>
      </trkpt>
      <trkpt lat="43.77932" lon="7.21418">
        <ele>75.4</ele>
        <time>2021-09-20T13:48:14Z</time>
      </trkpt>
      <trkpt lat="43.77927" lon="7.21417">
        <ele>75.4</ele>
        <time>2021-09-20T13:48:15Z</time>
      </trkpt>
      <trkpt lat="43.77917" lon="7.21414">
        <ele>75.3</ele>
        <time>2021-09-20T13:48:17Z</time>
      </trkpt>
      <trkpt lat="43.77912" lon="7.21413">
        <ele>75.3</ele>
        <time>2021-09-20T13:48:18Z</time>
      </trkpt>
      <trkpt lat="43.77906" lon="7.21411">
        <ele>75.3</ele>
        <time>2021-09-20T13:48:19Z</time>
      </trkpt>
      <trkpt lat="43.77895" lon="7.21407">
        <ele>75.2</ele>
        <time>2021-09-20T13:48:21Z</time>
      </trkpt>
      <trkpt lat="43.7789" lon="7.21406">
        <ele>75.2</ele>
        <time>2021-09-20T13:48:22Z</time>
      </trkpt>
      <trkpt lat="43.77879" lon="7.21404">
        <ele>75.2</ele>
        <time>2021-09-20T13:48:24Z</time>
      </trkpt>
      <trkpt lat="43.77868" lon="7.214">
        <ele>75.1</ele>
        <time>2021-09-20T13:48:26Z</time>
      </trkpt>
      <trkpt lat="43.77856" lon="7.21393">
        <ele>75.1</ele>
        <time>2021-09-20T13:48:28Z</time>
      </trkpt>
      <trkpt lat="43.7785" lon="7.2139">
        <ele>75</ele>
        <time>2021-09-20T13:48:29Z</time>
      </trkpt>
      <trkpt lat="43.77839" lon="7.21383">
        <ele>75</ele>
        <time>2021-09-20T13:48:31Z</time>
      </trkpt>
      <trkpt lat="43.77828" lon="7.21378">
        <ele>74.9</ele>
        <time>2021-09-20T13:48:33Z</time>
      </trkpt>
      <trkpt lat="43.77817" lon="7.21371">
        <ele>74.8</ele>
        <time>2021-09-20T13:48:35Z</time>
      </trkpt>
      <trkpt lat="43.77812" lon="7.21367">
        <ele>74.7</ele>
        <time>2021-09-20T13:48:36Z</time>
      </trkpt>
      <trkpt lat="43.77807" lon="7.21364">
        <ele>74.7</ele>
        <time>2021-09-20T13:48:37Z</time>
      </trkpt>
      <trkpt lat="43.77798" lon="7.21355">
        <ele>74.6</ele>
        <time>2021-09-20T13:48:39Z</time>
      </trkpt>
      <trkpt lat="43.77793" lon="7.21352">
        <ele>74.6</ele>
        <time>2021-09-20T13:48:40Z</time>
      </trkpt>
      <trkpt lat="43.77787" lon="7.2135">
        <ele>74.5</ele>
        <time>2021-09-20T13:48:41Z</time>
      </trkpt>
      <trkpt lat="43.77782" lon="7.21349">
        <ele>74.5</ele>
        <time>2021-09-20T13:48:42Z</time>
      </trkpt>
      <trkpt lat="43.77777" lon="7.21347">
        <ele>74.5</ele>
        <time>2021-09-20T13:48:43Z</time>
      </trkpt>
      <trkpt lat="43.77767" lon="7.21343">
        <ele>74.4</ele>
        <time>2021-09-20T13:48:45Z</time>
      </trkpt>
      <trkpt lat="43.77763" lon="7.21342">
        <ele>74.4</ele>
        <time>2021-09-20T13:48:46Z</time>
      </trkpt>
      <trkpt lat="43.77752" lon="7.2134">
        <ele>74.3</ele>
        <time>2021-09-20T13:48:48Z</time>
      </trkpt>
      <trkpt lat="43.77747" lon="7.21338">
        <ele>74.2</ele>
        <time>2021-09-20T13:48:49Z</time>
      </trkpt>
      <trkpt lat="43.77735" lon="7.21337">
        <ele>74.1</ele>
        <time>2021-09-20T13:48:51Z</time>
      </trkpt>
      <trkpt lat="43.77729" lon="7.21335">
        <ele>74.1</ele>
        <time>2021-09-20T13:48:52Z</time>
      </trkpt>
      <trkpt lat="43.77719" lon="7.21329">
        <ele>74</ele>
        <time>2021-09-20T13:48:54Z</time>
      </trkpt>
      <trkpt lat="43.7771" lon="7.21322">
        <ele>74</ele>
        <time>2021-09-20T13:48:56Z</time>
      </trkpt>
      <trkpt lat="43.77699" lon="7.21317">
        <ele>73.9</ele>
        <time>2021-09-20T13:48:58Z</time>
      </trkpt>
      <trkpt lat="43.77694" lon="7.21315">
        <ele>73.8</ele>
        <time>2021-09-20T13:48:59Z</time>
      </trkpt>
      <trkpt lat="43.77682" lon="7.21309">
        <ele>73.8</ele>
        <time>2021-09-20T13:49:01Z</time>
      </trkpt>
      <trkpt lat="43.77677" lon="7.21306">
        <ele>73.7</ele>
        <time>2021-09-20T13:49:02Z</time>
      </trkpt>
      <trkpt lat="43.77671" lon="7.21303">
        <ele>73.7</ele>
        <time>2021-09-20T13:49:03Z</time>
      </trkpt>
      <trkpt lat="43.77661" lon="7.213">
        <ele>73.6</ele>
        <time>2021-09-20T13:49:05Z</time>
      </trkpt>
      <trkpt lat="43.77651" lon="7.21297">
        <ele>73.6</ele>
        <time>2021-09-20T13:49:07Z</time>
      </trkpt>
      <trkpt lat="43.7764" lon="7.21292">
        <ele>73.5</ele>
        <time>2021-09-20T13:49:09Z</time>
      </trkpt>
      <trkpt lat="43.7763" lon="7.21287">
        <ele>73.4</ele>
        <time>2021-09-20T13:49:11Z</time>
      </trkpt>
      <trkpt lat="43.7762" lon="7.21282">
        <ele>73.4</ele>
        <time>2021-09-20T13:49:13Z</time>
      </trkpt>
      <trkpt lat="43.7761" lon="7.21276">
        <ele>73.3</ele>
        <time>2021-09-20T13:49:15Z</time>
      </trkpt>
      <trkpt lat="43.77605" lon="7.21273">
        <ele>73.3</ele>
        <time>2021-09-20T13:49:16Z</time>
      </trkpt>
      <trkpt lat="43.77599" lon="7.21269">
        <ele>73.3</ele>
        <time>2021-09-20T13:49:17Z</time>
      </trkpt>
      <trkpt lat="43.77594" lon="7.21265">
        <ele>73.2</ele>
        <time>2021-09-20T13:49:18Z</time>
      </trkpt>
      <trkpt lat="43.77588" lon="7.21261">
        <ele>73.2</ele>
        <time>2021-09-20T13:49:19Z</time>
      </trkpt>
      <trkpt lat="43.77578" lon="7.21254">
        <ele>73.1</ele>
        <time>2021-09-20T13:49:21Z</time>
      </trkpt>
      <trkpt lat="43.77567" lon="7.21245">
        <ele>73</ele>
        <time>2021-09-20T13:49:23Z</time>
      </trkpt>
      <trkpt lat="43.77561" lon="7.21242">
        <ele>73</ele>
        <time>2021-09-20T13:49:24Z</time>
      </trkpt>
      <trkpt lat="43.77555" lon="7.21239">
        <ele>73</ele>
        <time>2021-09-20T13:49:25Z</time>
      </trkpt>
      <trkpt lat="43.77543" lon="7.21231">
        <ele>72.9</ele>
        <time>2021-09-20T13:49:27Z</time>
      </trkpt>
      <trkpt lat="43.77536" lon="7.21226">
        <ele>72.9</ele>
        <time>2021-09-20T13:49:28Z</time>
      </trkpt>
      <trkpt lat="43.77531" lon="7.21222">
        <ele>72.8</ele>
        <time>2021-09-20T13:49:29Z</time>
      </trkpt>
      <trkpt lat="43.77515" lon="7.21215">
        <ele>72.7</ele>
        <time>2021-09-20T13:49:31Z</time>
      </trkpt>
      <trkpt lat="43.77508" lon="7.21212">
        <ele>72.6</ele>
        <time>2021-09-20T13:49:32Z</time>
      </trkpt>
      <trkpt lat="43.77502" lon="7.21209">
        <ele>72.6</ele>
        <time>2021-09-20T13:49:33Z</time>
      </trkpt>
      <trkpt lat="43.77497" lon="7.21208">
        <ele>72.5</ele>
        <time>2021-09-20T13:49:34Z</time>
      </trkpt>
      <trkpt lat="43.7749" lon="7.21204">
        <ele>72.5</ele>
        <time>2021-09-20T13:49:36Z</time>
      </trkpt>
      <trkpt lat="43.77485" lon="7.212">
        <ele>72.4</ele>
        <time>2021-09-20T13:49:37Z</time>
      </trkpt>
      <trkpt lat="43.77476" lon="7.21193">
        <ele>72.4</ele>
        <time>2021-09-20T13:49:39Z</time>
      </trkpt>
      <trkpt lat="43.77467" lon="7.21188">
        <ele>72.3</ele>
        <time>2021-09-20T13:49:41Z</time>
      </trkpt>
      <trkpt lat="43.77464" lon="7.21187">
        <ele>72.3</ele>
        <time>2021-09-20T13:49:43Z</time>
      </trkpt>
      <trkpt lat="43.77455" lon="7.21183">
        <ele>72.2</ele>
        <time>2021-09-20T13:49:44Z</time>
      </trkpt>
      <trkpt lat="43.77432" lon="7.21165">
        <ele>72</ele>
        <time>2021-09-20T13:49:48Z</time>
      </trkpt>
      <trkpt lat="43.77418" lon="7.21153">
        <ele>71.9</ele>
        <time>2021-09-20T13:49:50Z</time>
      </trkpt>
      <trkpt lat="43.77412" lon="7.21145">
        <ele>71.8</ele>
        <time>2021-09-20T13:49:51Z</time>
      </trkpt>
      <trkpt lat="43.77401" lon="7.21136">
        <ele>71.8</ele>
        <time>2021-09-20T13:49:53Z</time>
      </trkpt>
      <trkpt lat="43.77393" lon="7.21128">
        <ele>71.7</ele>
        <time>2021-09-20T13:49:55Z</time>
      </trkpt>
      <trkpt lat="43.77387" lon="7.21117">
        <ele>71.6</ele>
        <time>2021-09-20T13:49:57Z</time>
      </trkpt>
      <trkpt lat="43.77377" lon="7.21107">
        <ele>71.5</ele>
        <time>2021-09-20T13:49:59Z</time>
      </trkpt>
      <trkpt lat="43.77373" lon="7.21102">
        <ele>71.5</ele>
        <time>2021-09-20T13:50:00Z</time>
      </trkpt>
      <trkpt lat="43.77364" lon="7.21094">
        <ele>71.4</ele>
        <time>2021-09-20T13:50:02Z</time>
      </trkpt>
      <trkpt lat="43.77359" lon="7.21089">
        <ele>71.4</ele>
        <time>2021-09-20T13:50:03Z</time>
      </trkpt>
      <trkpt lat="43.77349" lon="7.21082">
        <ele>71.3</ele>
        <time>2021-09-20T13:50:05Z</time>
      </trkpt>
      <trkpt lat="43.77344" lon="7.21078">
        <ele>71.2</ele>
        <time>2021-09-20T13:50:06Z</time>
      </trkpt>
      <trkpt lat="43.7734" lon="7.21074">
        <ele>71.2</ele>
        <time>2021-09-20T13:50:07Z</time>
      </trkpt>
      <trkpt lat="43.77331" lon="7.21066">
        <ele>71.2</ele>
        <time>2021-09-20T13:50:09Z</time>
      </trkpt>
      <trkpt lat="43.77327" lon="7.21061">
        <ele>71.1</ele>
        <time>2021-09-20T13:50:10Z</time>
      </trkpt>
      <trkpt lat="43.77322" lon="7.21055">
        <ele>71.1</ele>
        <time>2021-09-20T13:50:11Z</time>
      </trkpt>
      <trkpt lat="43.77313" lon="7.21043">
        <ele>71</ele>
        <time>2021-09-20T13:50:13Z</time>
      </trkpt>
      <trkpt lat="43.77303" lon="7.21031">
        <ele>70.9</ele>
        <time>2021-09-20T13:50:15Z</time>
      </trkpt>
      <trkpt lat="43.77291" lon="7.21021">
        <ele>70.8</ele>
        <time>2021-09-20T13:50:17Z</time>
      </trkpt>
      <trkpt lat="43.77281" lon="7.21011">
        <ele>70.7</ele>
        <time>2021-09-20T13:50:19Z</time>
      </trkpt>
      <trkpt lat="43.77277" lon="7.21006">
        <ele>70.7</ele>
        <time>2021-09-20T13:50:20Z</time>
      </trkpt>
      <trkpt lat="43.77273" lon="7.21002">
        <ele>70.7</ele>
        <time>2021-09-20T13:50:21Z</time>
      </trkpt>
      <trkpt lat="43.77269" lon="7.20997">
        <ele>70.6</ele>
        <time>2021-09-20T13:50:22Z</time>
      </trkpt>
      <trkpt lat="43.77257" lon="7.20988">
        <ele>70.6</ele>
        <time>2021-09-20T13:50:24Z</time>
      </trkpt>
      <trkpt lat="43.77246" lon="7.20981">
        <ele>70.5</ele>
        <time>2021-09-20T13:50:26Z</time>
      </trkpt>
      <trkpt lat="43.77241" lon="7.20977">
        <ele>70.4</ele>
        <time>2021-09-20T13:50:27Z</time>
      </trkpt>
      <trkpt lat="43.77237" lon="7.20972">
        <ele>70.4</ele>
        <time>2021-09-20T13:50:28Z</time>
      </trkpt>
      <trkpt lat="43.77234" lon="7.20967">
        <ele>70.4</ele>
        <time>2021-09-20T13:50:29Z</time>
      </trkpt>
      <trkpt lat="43.77227" lon="7.20957">
        <ele>70.3</ele>
        <time>2021-09-20T13:50:31Z</time>
      </trkpt>
      <trkpt lat="43.77221" lon="7.20948">
        <ele>70.3</ele>
        <time>2021-09-20T13:50:33Z</time>
      </trkpt>
      <trkpt lat="43.77218" lon="7.20943">
        <ele>70.2</ele>
        <time>2021-09-20T13:50:34Z</time>
      </trkpt>
      <trkpt lat="43.77212" lon="7.20934">
        <ele>70.2</ele>
        <time>2021-09-20T13:50:36Z</time>
      </trkpt>
      <trkpt lat="43.77208" lon="7.20929">
        <ele>70.2</ele>
        <time>2021-09-20T13:50:37Z</time>
      </trkpt>
      <trkpt lat="43.77202" lon="7.20922">
        <ele>70.1</ele>
        <time>2021-09-20T13:50:39Z</time>
      </trkpt>
      <trkpt lat="43.772" lon="7.20919">
        <ele>70.1</ele>
        <time>2021-09-20T13:50:40Z</time>
      </trkpt>
      <trkpt lat="43.77196" lon="7.20915">
        <ele>70.1</ele>
        <time>2021-09-20T13:50:41Z</time>
      </trkpt>
      <trkpt lat="43.77193" lon="7.20911">
        <ele>70</ele>
        <time>2021-09-20T13:50:42Z</time>
      </trkpt>
      <trkpt lat="43.7719" lon="7.20908">
        <ele>70</ele>
        <time>2021-09-20T13:50:43Z</time>
      </trkpt>
      <trkpt lat="43.77183" lon="7.209">
        <ele>70</ele>
        <time>2021-09-20T13:50:45Z</time>
      </trkpt>
      <trkpt lat="43.77177" lon="7.2089">
        <ele>70</ele>
        <time>2021-09-20T13:50:47Z</time>
      </trkpt>
      <trkpt lat="43.77175" lon="7.20885">
        <ele>69.9</ele>
        <time>2021-09-20T13:50:48Z</time>
      </trkpt>
      <trkpt lat="43.77172" lon="7.20879">
        <ele>69.9</ele>
        <time>2021-09-20T13:50:49Z</time>
      </trkpt>
      <trkpt lat="43.77165" lon="7.2087">
        <ele>69.9</ele>
        <time>2021-09-20T13:50:51Z</time>
      </trkpt>
      <trkpt lat="43.77161" lon="7.20866">
        <ele>69.9</ele>
        <time>2021-09-20T13:50:52Z</time>
      </trkpt>
      <trkpt lat="43.77152" lon="7.20859">
        <ele>69.8</ele>
        <time>2021-09-20T13:50:54Z</time>
      </trkpt>
      <trkpt lat="43.77148" lon="7.20855">
        <ele>69.8</ele>
        <time>2021-09-20T13:50:55Z</time>
      </trkpt>
      <trkpt lat="43.7714" lon="7.20848">
        <ele>69.8</ele>
        <time>2021-09-20T13:50:57Z</time>
      </trkpt>
      <trkpt lat="43.77136" lon="7.20843">
        <ele>69.7</ele>
        <time>2021-09-20T13:50:58Z</time>
      </trkpt>
      <trkpt lat="43.77131" lon="7.20839">
        <ele>69.7</ele>
        <time>2021-09-20T13:50:59Z</time>
      </trkpt>
      <trkpt lat="43.77122" lon="7.20833">
        <ele>69.7</ele>
        <time>2021-09-20T13:51:01Z</time>
      </trkpt>
      <trkpt lat="43.77116" lon="7.2083">
        <ele>69.7</ele>
        <time>2021-09-20T13:51:02Z</time>
      </trkpt>
      <trkpt lat="43.77104" lon="7.20825">
        <ele>69.6</ele>
        <time>2021-09-20T13:51:04Z</time>
      </trkpt>
      <trkpt lat="43.77099" lon="7.20822">
        <ele>69.5</ele>
        <time>2021-09-20T13:51:05Z</time>
      </trkpt>
      <trkpt lat="43.77088" lon="7.20819">
        <ele>69.5</ele>
        <time>2021-09-20T13:51:07Z</time>
      </trkpt>
      <trkpt lat="43.77082" lon="7.20819">
        <ele>69.4</ele>
        <time>2021-09-20T13:51:08Z</time>
      </trkpt>
      <trkpt lat="43.77077" lon="7.20818">
        <ele>69.4</ele>
        <time>2021-09-20T13:51:09Z</time>
      </trkpt>
      <trkpt lat="43.77072" lon="7.20818">
        <ele>69.3</ele>
        <time>2021-09-20T13:51:10Z</time>
      </trkpt>
      <trkpt lat="43.77063" lon="7.20816">
        <ele>69.2</ele>
        <time>2021-09-20T13:51:12Z</time>
      </trkpt>
      <trkpt lat="43.7706" lon="7.20814">
        <ele>69.2</ele>
        <time>2021-09-20T13:51:13Z</time>
      </trkpt>
      <trkpt lat="43.77057" lon="7.20808">
        <ele>69.1</ele>
        <time>2021-09-20T13:51:15Z</time>
      </trkpt>
      <trkpt lat="43.77055" lon="7.20804">
        <ele>69.1</ele>
        <time>2021-09-20T13:51:16Z</time>
      </trkpt>
      <trkpt lat="43.77051" lon="7.208">
        <ele>69.1</ele>
        <time>2021-09-20T13:51:17Z</time>
      </trkpt>
      <trkpt lat="43.77045" lon="7.20795">
        <ele>69.1</ele>
        <time>2021-09-20T13:51:18Z</time>
      </trkpt>
      <trkpt lat="43.7704" lon="7.20789">
        <ele>69.1</ele>
        <time>2021-09-20T13:51:20Z</time>
      </trkpt>
      <trkpt lat="43.77036" lon="7.20784">
        <ele>69.1</ele>
        <time>2021-09-20T13:51:21Z</time>
      </trkpt>
      <trkpt lat="43.77026" lon="7.20774">
        <ele>69.2</ele>
        <time>2021-09-20T13:51:23Z</time>
      </trkpt>
      <trkpt lat="43.77018" lon="7.20765">
        <ele>69.3</ele>
        <time>2021-09-20T13:51:25Z</time>
      </trkpt>
      <trkpt lat="43.77013" lon="7.20761">
        <ele>69.3</ele>
        <time>2021-09-20T13:51:26Z</time>
      </trkpt>
      <trkpt lat="43.77009" lon="7.20757">
        <ele>69.4</ele>
        <time>2021-09-20T13:51:27Z</time>
      </trkpt>
      <trkpt lat="43.77001" lon="7.20749">
        <ele>69.6</ele>
        <time>2021-09-20T13:51:29Z</time>
      </trkpt>
      <trkpt lat="43.76992" lon="7.20742">
        <ele>69.9</ele>
        <time>2021-09-20T13:51:31Z</time>
      </trkpt>
      <trkpt lat="43.76983" lon="7.20736">
        <ele>70.2</ele>
        <time>2021-09-20T13:51:33Z</time>
      </trkpt>
      <trkpt lat="43.76979" lon="7.20732">
        <ele>70.5</ele>
        <time>2021-09-20T13:51:34Z</time>
      </trkpt>
      <trkpt lat="43.76971" lon="7.20726">
        <ele>71</ele>
        <time>2021-09-20T13:51:36Z</time>
      </trkpt>
      <trkpt lat="43.76968" lon="7.20723">
        <ele>71.3</ele>
        <time>2021-09-20T13:51:37Z</time>
      </trkpt>
      <trkpt lat="43.76963" lon="7.20718">
        <ele>71.7</ele>
        <time>2021-09-20T13:51:39Z</time>
      </trkpt>
      <trkpt lat="43.76957" lon="7.20711">
        <ele>72.2</ele>
        <time>2021-09-20T13:51:41Z</time>
      </trkpt>
      <trkpt lat="43.76953" lon="7.20709">
        <ele>72.4</ele>
        <time>2021-09-20T13:51:42Z</time>
      </trkpt>
      <trkpt lat="43.76951" lon="7.20708">
        <ele>72.6</ele>
        <time>2021-09-20T13:51:43Z</time>
      </trkpt>
      <trkpt lat="43.76947" lon="7.20706">
        <ele>72.9</ele>
        <time>2021-09-20T13:51:45Z</time>
      </trkpt>
      <trkpt lat="43.76944" lon="7.20703">
        <ele>73.2</ele>
        <time>2021-09-20T13:51:46Z</time>
      </trkpt>
      <trkpt lat="43.76943" lon="7.20701">
        <ele>73.3</ele>
        <time>2021-09-20T13:51:47Z</time>
      </trkpt>
      <trkpt lat="43.76939" lon="7.20696">
        <ele>73.7</ele>
        <time>2021-09-20T13:51:49Z</time>
      </trkpt>
      <trkpt lat="43.76937" lon="7.20692">
        <ele>73.9</ele>
        <time>2021-09-20T13:51:50Z</time>
      </trkpt>
      <trkpt lat="43.76936" lon="7.20691">
        <ele>74</ele>
        <time>2021-09-20T13:51:51Z</time>
      </trkpt>
      <trkpt lat="43.76935" lon="7.20688">
        <ele>74.2</ele>
        <time>2021-09-20T13:51:53Z</time>
      </trkpt>
      <trkpt lat="43.76935" lon="7.20684">
        <ele>74.4</ele>
        <time>2021-09-20T13:51:54Z</time>
      </trkpt>
      <trkpt lat="43.76935" lon="7.2068">
        <ele>74.6</ele>
        <time>2021-09-20T13:51:55Z</time>
      </trkpt>
      <trkpt lat="43.76935" lon="7.20678">
        <ele>74.7</ele>
        <time>2021-09-20T13:51:57Z</time>
      </trkpt>
      <trkpt lat="43.76935" lon="7.20676">
        <ele>74.8</ele>
        <time>2021-09-20T13:51:58Z</time>
      </trkpt>
      <trkpt lat="43.76933" lon="7.20674">
        <ele>75</ele>
        <time>2021-09-20T13:52:00Z</time>
      </trkpt>
      <trkpt lat="43.76932" lon="7.20672">
        <ele>75.1</ele>
        <time>2021-09-20T13:52:01Z</time>
      </trkpt>
      <trkpt lat="43.76929" lon="7.20668">
        <ele>75.4</ele>
        <time>2021-09-20T13:52:03Z</time>
      </trkpt>
      <trkpt lat="43.76928" lon="7.20664">
        <ele>75.5</ele>
        <time>2021-09-20T13:52:04Z</time>
      </trkpt>
      <trkpt lat="43.76929" lon="7.20661">
        <ele>75.6</ele>
        <time>2021-09-20T13:52:06Z</time>
      </trkpt>
      <trkpt lat="43.7693" lon="7.2066">
        <ele>75.6</ele>
        <time>2021-09-20T13:52:07Z</time>
      </trkpt>
      <trkpt lat="43.76932" lon="7.20656">
        <ele>75.7</ele>
        <time>2021-09-20T13:52:09Z</time>
      </trkpt>
      <trkpt lat="43.76936" lon="7.20651">
        <ele>75.7</ele>
        <time>2021-09-20T13:52:11Z</time>
      </trkpt>
      <trkpt lat="43.76938" lon="7.20648">
        <ele>75.7</ele>
        <time>2021-09-20T13:52:12Z</time>
      </trkpt>
      <trkpt lat="43.76941" lon="7.20646">
        <ele>75.6</ele>
        <time>2021-09-20T13:52:13Z</time>
      </trkpt>
      <trkpt lat="43.76944" lon="7.2064">
        <ele>75.4</ele>
        <time>2021-09-20T13:52:15Z</time>
      </trkpt>
      <trkpt lat="43.76946" lon="7.20638">
        <ele>75.3</ele>
        <time>2021-09-20T13:52:16Z</time>
      </trkpt>
      <trkpt lat="43.76948" lon="7.20633">
        <ele>75.1</ele>
        <time>2021-09-20T13:52:17Z</time>
      </trkpt>
      <trkpt lat="43.76947" lon="7.20628">
        <ele>74.8</ele>
        <time>2021-09-20T13:52:19Z</time>
      </trkpt>
      <trkpt lat="43.76942" lon="7.20623">
        <ele>74.4</ele>
        <time>2021-09-20T13:52:21Z</time>
      </trkpt>
      <trkpt lat="43.76939" lon="7.2062">
        <ele>74.1</ele>
        <time>2021-09-20T13:52:22Z</time>
      </trkpt>
      <trkpt lat="43.76935" lon="7.20618">
        <ele>73.7</ele>
        <time>2021-09-20T13:52:23Z</time>
      </trkpt>
      <trkpt lat="43.76925" lon="7.20608">
        <ele>72.6</ele>
        <time>2021-09-20T13:52:25Z</time>
      </trkpt>
      <trkpt lat="43.76916" lon="7.20597">
        <ele>71.6</ele>
        <time>2021-09-20T13:52:27Z</time>
      </trkpt>
      <trkpt lat="43.7691" lon="7.20592">
        <ele>71</ele>
        <time>2021-09-20T13:52:28Z</time>
      </trkpt>
      <trkpt lat="43.76905" lon="7.20586">
        <ele>70.5</ele>
        <time>2021-09-20T13:52:29Z</time>
      </trkpt>
      <trkpt lat="43.76895" lon="7.20575">
        <ele>69.6</ele>
        <time>2021-09-20T13:52:31Z</time>
      </trkpt>
      <trkpt lat="43.76883" lon="7.20563">
        <ele>68.8</ele>
        <time>2021-09-20T13:52:33Z</time>
      </trkpt>
      <trkpt lat="43.76872" lon="7.20549">
        <ele>68.3</ele>
        <time>2021-09-20T13:52:35Z</time>
      </trkpt>
      <trkpt lat="43.7686" lon="7.20533">
        <ele>68</ele>
        <time>2021-09-20T13:52:37Z</time>
      </trkpt>
      <trkpt lat="43.76853" lon="7.20525">
        <ele>67.9</ele>
        <time>2021-09-20T13:52:38Z</time>
      </trkpt>
      <trkpt lat="43.76847" lon="7.20518">
        <ele>67.9</ele>
        <time>2021-09-20T13:52:39Z</time>
      </trkpt>
      <trkpt lat="43.76842" lon="7.20511">
        <ele>67.8</ele>
        <time>2021-09-20T13:52:40Z</time>
      </trkpt>
      <trkpt lat="43.76832" lon="7.20499">
        <ele>67.6</ele>
        <time>2021-09-20T13:52:42Z</time>
      </trkpt>
      <trkpt lat="43.76827" lon="7.20494">
        <ele>67.6</ele>
        <time>2021-09-20T13:52:43Z</time>
      </trkpt>
      <trkpt lat="43.76823" lon="7.20489">
        <ele>67.5</ele>
        <time>2021-09-20T13:52:44Z</time>
      </trkpt>
      <trkpt lat="43.76814" lon="7.2048">
        <ele>67.4</ele>
        <time>2021-09-20T13:52:46Z</time>
      </trkpt>
      <trkpt lat="43.7681" lon="7.20476">
        <ele>67.4</ele>
        <time>2021-09-20T13:52:47Z</time>
      </trkpt>
      <trkpt lat="43.76803" lon="7.20468">
        <ele>67.4</ele>
        <time>2021-09-20T13:52:49Z</time>
      </trkpt>
      <trkpt lat="43.76797" lon="7.2046">
        <ele>67.4</ele>
        <time>2021-09-20T13:52:51Z</time>
      </trkpt>
      <trkpt lat="43.76791" lon="7.20452">
        <ele>67.5</ele>
        <time>2021-09-20T13:52:53Z</time>
      </trkpt>
      <trkpt lat="43.76785" lon="7.20445">
        <ele>67.5</ele>
        <time>2021-09-20T13:52:55Z</time>
      </trkpt>
      <trkpt lat="43.76779" lon="7.2044">
        <ele>67.5</ele>
        <time>2021-09-20T13:52:57Z</time>
      </trkpt>
      <trkpt lat="43.76775" lon="7.20434">
        <ele>67.5</ele>
        <time>2021-09-20T13:52:58Z</time>
      </trkpt>
      <trkpt lat="43.76771" lon="7.20429">
        <ele>67.5</ele>
        <time>2021-09-20T13:52:59Z</time>
      </trkpt>
      <trkpt lat="43.76766" lon="7.20424">
        <ele>67.4</ele>
        <time>2021-09-20T13:53:01Z</time>
      </trkpt>
      <trkpt lat="43.7676" lon="7.2042">
        <ele>67.4</ele>
        <time>2021-09-20T13:53:02Z</time>
      </trkpt>
      <trkpt lat="43.76755" lon="7.20416">
        <ele>67.4</ele>
        <time>2021-09-20T13:53:03Z</time>
      </trkpt>
      <trkpt lat="43.76748" lon="7.20411">
        <ele>67.4</ele>
        <time>2021-09-20T13:53:05Z</time>
      </trkpt>
      <trkpt lat="43.76744" lon="7.20407">
        <ele>67.4</ele>
        <time>2021-09-20T13:53:06Z</time>
      </trkpt>
      <trkpt lat="43.7674" lon="7.20399">
        <ele>67.4</ele>
        <time>2021-09-20T13:53:07Z</time>
      </trkpt>
      <trkpt lat="43.76737" lon="7.20394">
        <ele>67.4</ele>
        <time>2021-09-20T13:53:09Z</time>
      </trkpt>
      <trkpt lat="43.76735" lon="7.20391">
        <ele>67.4</ele>
        <time>2021-09-20T13:53:10Z</time>
      </trkpt>
      <trkpt lat="43.76732" lon="7.20388">
        <ele>67.4</ele>
        <time>2021-09-20T13:53:11Z</time>
      </trkpt>
      <trkpt lat="43.76729" lon="7.20386">
        <ele>67.4</ele>
        <time>2021-09-20T13:53:12Z</time>
      </trkpt>
      <trkpt lat="43.76725" lon="7.20383">
        <ele>67.4</ele>
        <time>2021-09-20T13:53:13Z</time>
      </trkpt>
      <trkpt lat="43.76721" lon="7.2038">
        <ele>67.4</ele>
        <time>2021-09-20T13:53:14Z</time>
      </trkpt>
      <trkpt lat="43.76714" lon="7.20374">
        <ele>67.4</ele>
        <time>2021-09-20T13:53:15Z</time>
      </trkpt>
      <trkpt lat="43.7671" lon="7.2037">
        <ele>67.4</ele>
        <time>2021-09-20T13:53:16Z</time>
      </trkpt>
      <trkpt lat="43.76707" lon="7.20372">
        <ele>67.3</ele>
        <time>2021-09-20T13:53:17Z</time>
      </trkpt>
      <trkpt lat="43.76702" lon="7.20365">
        <ele>67.3</ele>
        <time>2021-09-20T13:53:19Z</time>
      </trkpt>
      <trkpt lat="43.76699" lon="7.20356">
        <ele>67.3</ele>
        <time>2021-09-20T13:53:20Z</time>
      </trkpt>
      <trkpt lat="43.76689" lon="7.20339">
        <ele>67.3</ele>
        <time>2021-09-20T13:53:22Z</time>
      </trkpt>
      <trkpt lat="43.76686" lon="7.20334">
        <ele>67.3</ele>
        <time>2021-09-20T13:53:23Z</time>
      </trkpt>
      <trkpt lat="43.76683" lon="7.20332">
        <ele>67.3</ele>
        <time>2021-09-20T13:53:24Z</time>
      </trkpt>
      <trkpt lat="43.76681" lon="7.20332">
        <ele>67.3</ele>
        <time>2021-09-20T13:53:25Z</time>
      </trkpt>
      <trkpt lat="43.76675" lon="7.20318">
        <ele>67.3</ele>
        <time>2021-09-20T13:53:27Z</time>
      </trkpt>
      <trkpt lat="43.76674" lon="7.20313">
        <ele>67.3</ele>
        <time>2021-09-20T13:53:28Z</time>
      </trkpt>
      <trkpt lat="43.7667" lon="7.20304">
        <ele>67.3</ele>
        <time>2021-09-20T13:53:30Z</time>
      </trkpt>
      <trkpt lat="43.76667" lon="7.203">
        <ele>67.2</ele>
        <time>2021-09-20T13:53:31Z</time>
      </trkpt>
      <trkpt lat="43.7666" lon="7.20294">
        <ele>67.1</ele>
        <time>2021-09-20T13:53:33Z</time>
      </trkpt>
      <trkpt lat="43.76657" lon="7.2029">
        <ele>67.1</ele>
        <time>2021-09-20T13:53:34Z</time>
      </trkpt>
      <trkpt lat="43.76654" lon="7.20286">
        <ele>67</ele>
        <time>2021-09-20T13:53:35Z</time>
      </trkpt>
      <trkpt lat="43.7665" lon="7.20281">
        <ele>67</ele>
        <time>2021-09-20T13:53:36Z</time>
      </trkpt>
      <trkpt lat="43.76647" lon="7.20277">
        <ele>67</ele>
        <time>2021-09-20T13:53:37Z</time>
      </trkpt>
      <trkpt lat="43.76645" lon="7.20273">
        <ele>67</ele>
        <time>2021-09-20T13:53:38Z</time>
      </trkpt>
      <trkpt lat="43.76644" lon="7.20268">
        <ele>67</ele>
        <time>2021-09-20T13:53:39Z</time>
      </trkpt>
      <trkpt lat="43.76644" lon="7.20253">
        <ele>67</ele>
        <time>2021-09-20T13:53:41Z</time>
      </trkpt>
      <trkpt lat="43.76641" lon="7.2024">
        <ele>67</ele>
        <time>2021-09-20T13:53:43Z</time>
      </trkpt>
      <trkpt lat="43.76641" lon="7.20233">
        <ele>67</ele>
        <time>2021-09-20T13:53:45Z</time>
      </trkpt>
      <trkpt lat="43.76638" lon="7.20227">
        <ele>67</ele>
        <time>2021-09-20T13:53:46Z</time>
      </trkpt>
      <trkpt lat="43.76633" lon="7.2022">
        <ele>67.1</ele>
        <time>2021-09-20T13:53:48Z</time>
      </trkpt>
      <trkpt lat="43.7663" lon="7.20215">
        <ele>67.1</ele>
        <time>2021-09-20T13:53:50Z</time>
      </trkpt>
      <trkpt lat="43.76629" lon="7.20213">
        <ele>66.8</ele>
        <time>2021-09-20T13:53:51Z</time>
      </trkpt>
      <trkpt lat="43.76629" lon="7.2021">
        <ele>66.6</ele>
        <time>2021-09-20T13:53:53Z</time>
      </trkpt>
      <trkpt lat="43.76631" lon="7.2021">
        <ele>66.3</ele>
        <time>2021-09-20T13:53:54Z</time>
      </trkpt>
      <trkpt lat="43.76632" lon="7.2021">
        <ele>66</ele>
        <time>2021-09-20T13:53:55Z</time>
      </trkpt>
      <trkpt lat="43.76628" lon="7.20213">
        <ele>65.7</ele>
        <time>2021-09-20T13:53:57Z</time>
      </trkpt>
      <trkpt lat="43.76624" lon="7.20217">
        <ele>65.5</ele>
        <time>2021-09-20T13:53:58Z</time>
      </trkpt>
      <trkpt lat="43.76619" lon="7.2022">
        <ele>65.2</ele>
        <time>2021-09-20T13:54:00Z</time>
      </trkpt>
      <trkpt lat="43.76615" lon="7.20223">
        <ele>64.9</ele>
        <time>2021-09-20T13:54:01Z</time>
      </trkpt>
      <trkpt lat="43.7661" lon="7.20226">
        <ele>64.6</ele>
        <time>2021-09-20T13:54:32Z</time>
      </trkpt>
      <trkpt lat="43.76606" lon="7.20229">
        <ele>64.3</ele>
        <time>2021-09-20T13:54:34Z</time>
      </trkpt>
      <trkpt lat="43.76592" lon="7.20214">
        <ele>63.8</ele>
        <time>2021-09-20T13:54:36Z</time>
      </trkpt>
      <trkpt lat="43.76585" lon="7.20206">
        <ele>63.8</ele>
        <time>2021-09-20T13:54:37Z</time>
      </trkpt>
      <trkpt lat="43.76574" lon="7.20192">
        <ele>64.1</ele>
        <time>2021-09-20T13:54:39Z</time>
      </trkpt>
      <trkpt lat="43.7657" lon="7.20185">
        <ele>64.3</ele>
        <time>2021-09-20T13:54:40Z</time>
      </trkpt>
      <trkpt lat="43.76561" lon="7.20169">
        <ele>64.9</ele>
        <time>2021-09-20T13:54:42Z</time>
      </trkpt>
      <trkpt lat="43.76557" lon="7.20162">
        <ele>65.1</ele>
        <time>2021-09-20T13:54:43Z</time>
      </trkpt>
      <trkpt lat="43.76551" lon="7.2015">
        <ele>65.5</ele>
        <time>2021-09-20T13:54:45Z</time>
      </trkpt>
      <trkpt lat="43.76547" lon="7.20146">
        <ele>65.5</ele>
        <time>2021-09-20T13:54:47Z</time>
      </trkpt>
      <trkpt lat="43.76544" lon="7.20144">
        <ele>65.5</ele>
        <time>2021-09-20T13:54:48Z</time>
      </trkpt>
      <trkpt lat="43.76543" lon="7.20143">
        <ele>65.5</ele>
        <time>2021-09-20T13:54:49Z</time>
      </trkpt>
      <trkpt lat="43.76538" lon="7.20139">
        <ele>65.5</ele>
        <time>2021-09-20T13:54:51Z</time>
      </trkpt>
      <trkpt lat="43.76534" lon="7.20136">
        <ele>65.5</ele>
        <time>2021-09-20T13:54:53Z</time>
      </trkpt>
      <trkpt lat="43.76532" lon="7.20139">
        <ele>65.4</ele>
        <time>2021-09-20T13:54:54Z</time>
      </trkpt>
      <trkpt lat="43.76528" lon="7.20138">
        <ele>65.4</ele>
        <time>2021-09-20T13:54:55Z</time>
      </trkpt>
      <trkpt lat="43.76527" lon="7.20136">
        <ele>65.4</ele>
        <time>2021-09-20T13:54:56Z</time>
      </trkpt>
      <trkpt lat="43.76523" lon="7.20133">
        <ele>65.3</ele>
        <time>2021-09-20T13:54:57Z</time>
      </trkpt>
      <trkpt lat="43.76519" lon="7.2013">
        <ele>65.3</ele>
        <time>2021-09-20T13:54:58Z</time>
      </trkpt>
      <trkpt lat="43.76515" lon="7.20127">
        <ele>65.2</ele>
        <time>2021-09-20T13:54:59Z</time>
      </trkpt>
      <trkpt lat="43.76507" lon="7.20123">
        <ele>65.1</ele>
        <time>2021-09-20T13:55:01Z</time>
      </trkpt>
      <trkpt lat="43.76504" lon="7.20121">
        <ele>65</ele>
        <time>2021-09-20T13:55:02Z</time>
      </trkpt>
      <trkpt lat="43.765" lon="7.20119">
        <ele>65</ele>
        <time>2021-09-20T13:55:03Z</time>
      </trkpt>
      <trkpt lat="43.76489" lon="7.20115">
        <ele>64.8</ele>
        <time>2021-09-20T13:55:05Z</time>
      </trkpt>
      <trkpt lat="43.76479" lon="7.2011">
        <ele>64.7</ele>
        <time>2021-09-20T13:55:07Z</time>
      </trkpt>
      <trkpt lat="43.76468" lon="7.20105">
        <ele>64.5</ele>
        <time>2021-09-20T13:55:09Z</time>
      </trkpt>
      <trkpt lat="43.76463" lon="7.20103">
        <ele>64.4</ele>
        <time>2021-09-20T13:55:10Z</time>
      </trkpt>
      <trkpt lat="43.76457" lon="7.20101">
        <ele>64.3</ele>
        <time>2021-09-20T13:55:11Z</time>
      </trkpt>
      <trkpt lat="43.76448" lon="7.20094">
        <ele>64.1</ele>
        <time>2021-09-20T13:55:13Z</time>
      </trkpt>
      <trkpt lat="43.76441" lon="7.20089">
        <ele>64</ele>
        <time>2021-09-20T13:55:15Z</time>
      </trkpt>
      <trkpt lat="43.76438" lon="7.20093">
        <ele>63.9</ele>
        <time>2021-09-20T13:55:16Z</time>
      </trkpt>
      <trkpt lat="43.76434" lon="7.20086">
        <ele>63.8</ele>
        <time>2021-09-20T13:55:17Z</time>
      </trkpt>
      <trkpt lat="43.76429" lon="7.20081">
        <ele>63.8</ele>
        <time>2021-09-20T13:55:18Z</time>
      </trkpt>
      <trkpt lat="43.76425" lon="7.20077">
        <ele>63.7</ele>
        <time>2021-09-20T13:55:19Z</time>
      </trkpt>
      <trkpt lat="43.76422" lon="7.20073">
        <ele>63.7</ele>
        <time>2021-09-20T13:55:20Z</time>
      </trkpt>
      <trkpt lat="43.76414" lon="7.20063">
        <ele>63.6</ele>
        <time>2021-09-20T13:55:22Z</time>
      </trkpt>
      <trkpt lat="43.7641" lon="7.2006">
        <ele>63.6</ele>
        <time>2021-09-20T13:55:23Z</time>
      </trkpt>
      <trkpt lat="43.76405" lon="7.20052">
        <ele>63.6</ele>
        <time>2021-09-20T13:55:24Z</time>
      </trkpt>
      <trkpt lat="43.76401" lon="7.20047">
        <ele>63.6</ele>
        <time>2021-09-20T13:55:26Z</time>
      </trkpt>
      <trkpt lat="43.76397" lon="7.20044">
        <ele>63.6</ele>
        <time>2021-09-20T13:55:27Z</time>
      </trkpt>
      <trkpt lat="43.76392" lon="7.2004">
        <ele>63.6</ele>
        <time>2021-09-20T13:55:28Z</time>
      </trkpt>
      <trkpt lat="43.76388" lon="7.20037">
        <ele>63.6</ele>
        <time>2021-09-20T13:55:29Z</time>
      </trkpt>
      <trkpt lat="43.76384" lon="7.20034">
        <ele>63.6</ele>
        <time>2021-09-20T13:55:30Z</time>
      </trkpt>
      <trkpt lat="43.76381" lon="7.20031">
        <ele>63.6</ele>
        <time>2021-09-20T13:55:31Z</time>
      </trkpt>
      <trkpt lat="43.76378" lon="7.20028">
        <ele>63.6</ele>
        <time>2021-09-20T13:55:32Z</time>
      </trkpt>
      <trkpt lat="43.76375" lon="7.20024">
        <ele>63.6</ele>
        <time>2021-09-20T13:55:34Z</time>
      </trkpt>
      <trkpt lat="43.76373" lon="7.20019">
        <ele>63.6</ele>
        <time>2021-09-20T13:55:35Z</time>
      </trkpt>
      <trkpt lat="43.7637" lon="7.20015">
        <ele>63.6</ele>
        <time>2021-09-20T13:55:36Z</time>
      </trkpt>
      <trkpt lat="43.76366" lon="7.20012">
        <ele>63.6</ele>
        <time>2021-09-20T13:55:37Z</time>
      </trkpt>
      <trkpt lat="43.76363" lon="7.20008">
        <ele>63.6</ele>
        <time>2021-09-20T13:55:38Z</time>
      </trkpt>
      <trkpt lat="43.76357" lon="7.20003">
        <ele>63.6</ele>
        <time>2021-09-20T13:55:39Z</time>
      </trkpt>
      <trkpt lat="43.7635" lon="7.20002">
        <ele>63.6</ele>
        <time>2021-09-20T13:55:41Z</time>
      </trkpt>
      <trkpt lat="43.76347" lon="7.19997">
        <ele>63.5</ele>
        <time>2021-09-20T13:55:42Z</time>
      </trkpt>
      <trkpt lat="43.76339" lon="7.19985">
        <ele>63.4</ele>
        <time>2021-09-20T13:55:44Z</time>
      </trkpt>
      <trkpt lat="43.76331" lon="7.19976">
        <ele>63.3</ele>
        <time>2021-09-20T13:55:46Z</time>
      </trkpt>
      <trkpt lat="43.76326" lon="7.19972">
        <ele>63.3</ele>
        <time>2021-09-20T13:55:47Z</time>
      </trkpt>
      <trkpt lat="43.76324" lon="7.19969">
        <ele>63.3</ele>
        <time>2021-09-20T13:55:48Z</time>
      </trkpt>
      <trkpt lat="43.76322" lon="7.19965">
        <ele>63.2</ele>
        <time>2021-09-20T13:55:49Z</time>
      </trkpt>
      <trkpt lat="43.76315" lon="7.19959">
        <ele>63.2</ele>
        <time>2021-09-20T13:55:51Z</time>
      </trkpt>
      <trkpt lat="43.76312" lon="7.19955">
        <ele>63.2</ele>
        <time>2021-09-20T13:55:52Z</time>
      </trkpt>
      <trkpt lat="43.76308" lon="7.19952">
        <ele>63.1</ele>
        <time>2021-09-20T13:55:53Z</time>
      </trkpt>
      <trkpt lat="43.76304" lon="7.19949">
        <ele>63.1</ele>
        <time>2021-09-20T13:55:54Z</time>
      </trkpt>
      <trkpt lat="43.76301" lon="7.19946">
        <ele>63.1</ele>
        <time>2021-09-20T13:55:55Z</time>
      </trkpt>
      <trkpt lat="43.76297" lon="7.19943">
        <ele>63.1</ele>
        <time>2021-09-20T13:55:56Z</time>
      </trkpt>
      <trkpt lat="43.76294" lon="7.19938">
        <ele>63</ele>
        <time>2021-09-20T13:55:57Z</time>
      </trkpt>
      <trkpt lat="43.76291" lon="7.19934">
        <ele>63</ele>
        <time>2021-09-20T13:55:58Z</time>
      </trkpt>
      <trkpt lat="43.76288" lon="7.19931">
        <ele>63</ele>
        <time>2021-09-20T13:55:59Z</time>
      </trkpt>
      <trkpt lat="43.76284" lon="7.19928">
        <ele>63</ele>
        <time>2021-09-20T13:56:00Z</time>
      </trkpt>
      <trkpt lat="43.7628" lon="7.19925">
        <ele>62.9</ele>
        <time>2021-09-20T13:56:01Z</time>
      </trkpt>
      <trkpt lat="43.76276" lon="7.19921">
        <ele>62.9</ele>
        <time>2021-09-20T13:56:03Z</time>
      </trkpt>
      <trkpt lat="43.76271" lon="7.19918">
        <ele>62.9</ele>
        <time>2021-09-20T13:56:04Z</time>
      </trkpt>
      <trkpt lat="43.76268" lon="7.19914">
        <ele>62.9</ele>
        <time>2021-09-20T13:56:05Z</time>
      </trkpt>
      <trkpt lat="43.76265" lon="7.19911">
        <ele>62.9</ele>
        <time>2021-09-20T13:56:06Z</time>
      </trkpt>
      <trkpt lat="43.76262" lon="7.19908">
        <ele>62.8</ele>
        <time>2021-09-20T13:56:07Z</time>
      </trkpt>
      <trkpt lat="43.76257" lon="7.19904">
        <ele>62.8</ele>
        <time>2021-09-20T13:56:08Z</time>
      </trkpt>
      <trkpt lat="43.76254" lon="7.199">
        <ele>62.7</ele>
        <time>2021-09-20T13:56:09Z</time>
      </trkpt>
      <trkpt lat="43.76251" lon="7.19896">
        <ele>62.7</ele>
        <time>2021-09-20T13:56:10Z</time>
      </trkpt>
      <trkpt lat="43.76247" lon="7.19892">
        <ele>62.6</ele>
        <time>2021-09-20T13:56:12Z</time>
      </trkpt>
      <trkpt lat="43.76244" lon="7.19888">
        <ele>62.6</ele>
        <time>2021-09-20T13:56:13Z</time>
      </trkpt>
      <trkpt lat="43.76241" lon="7.19884">
        <ele>62.6</ele>
        <time>2021-09-20T13:56:14Z</time>
      </trkpt>
      <trkpt lat="43.76236" lon="7.19879">
        <ele>62.5</ele>
        <time>2021-09-20T13:56:15Z</time>
      </trkpt>
      <trkpt lat="43.76231" lon="7.19873">
        <ele>62.5</ele>
        <time>2021-09-20T13:56:16Z</time>
      </trkpt>
      <trkpt lat="43.76227" lon="7.19868">
        <ele>62.4</ele>
        <time>2021-09-20T13:56:17Z</time>
      </trkpt>
      <trkpt lat="43.76221" lon="7.19861">
        <ele>62.3</ele>
        <time>2021-09-20T13:56:19Z</time>
      </trkpt>
      <trkpt lat="43.76218" lon="7.19858">
        <ele>62.3</ele>
        <time>2021-09-20T13:56:20Z</time>
      </trkpt>
      <trkpt lat="43.76215" lon="7.19855">
        <ele>62.2</ele>
        <time>2021-09-20T13:56:21Z</time>
      </trkpt>
      <trkpt lat="43.76208" lon="7.19846">
        <ele>62.1</ele>
        <time>2021-09-20T13:56:23Z</time>
      </trkpt>
      <trkpt lat="43.76205" lon="7.19844">
        <ele>62.1</ele>
        <time>2021-09-20T13:56:24Z</time>
      </trkpt>
      <trkpt lat="43.76201" lon="7.19842">
        <ele>62</ele>
        <time>2021-09-20T13:56:25Z</time>
      </trkpt>
      <trkpt lat="43.76198" lon="7.19839">
        <ele>62</ele>
        <time>2021-09-20T13:56:26Z</time>
      </trkpt>
      <trkpt lat="43.76195" lon="7.19835">
        <ele>61.9</ele>
        <time>2021-09-20T13:56:27Z</time>
      </trkpt>
      <trkpt lat="43.76191" lon="7.19831">
        <ele>61.9</ele>
        <time>2021-09-20T13:56:28Z</time>
      </trkpt>
      <trkpt lat="43.76187" lon="7.19827">
        <ele>61.9</ele>
        <time>2021-09-20T13:56:29Z</time>
      </trkpt>
      <trkpt lat="43.76182" lon="7.19821">
        <ele>61.8</ele>
        <time>2021-09-20T13:56:31Z</time>
      </trkpt>
      <trkpt lat="43.76176" lon="7.19815">
        <ele>61.8</ele>
        <time>2021-09-20T13:56:33Z</time>
      </trkpt>
      <trkpt lat="43.76172" lon="7.19812">
        <ele>61.7</ele>
        <time>2021-09-20T13:56:34Z</time>
      </trkpt>
      <trkpt lat="43.76166" lon="7.19806">
        <ele>61.7</ele>
        <time>2021-09-20T13:56:36Z</time>
      </trkpt>
      <trkpt lat="43.76162" lon="7.19802">
        <ele>61.6</ele>
        <time>2021-09-20T13:56:37Z</time>
      </trkpt>
      <trkpt lat="43.76156" lon="7.19796">
        <ele>61.5</ele>
        <time>2021-09-20T13:56:38Z</time>
      </trkpt>
      <trkpt lat="43.76152" lon="7.19792">
        <ele>61.5</ele>
        <time>2021-09-20T13:56:39Z</time>
      </trkpt>
      <trkpt lat="43.76149" lon="7.19789">
        <ele>61.5</ele>
        <time>2021-09-20T13:56:41Z</time>
      </trkpt>
      <trkpt lat="43.76146" lon="7.19785">
        <ele>61.4</ele>
        <time>2021-09-20T13:56:42Z</time>
      </trkpt>
      <trkpt lat="43.76143" lon="7.19781">
        <ele>61.4</ele>
        <time>2021-09-20T13:56:43Z</time>
      </trkpt>
      <trkpt lat="43.76139" lon="7.19777">
        <ele>61.4</ele>
        <time>2021-09-20T13:56:44Z</time>
      </trkpt>
      <trkpt lat="43.76133" lon="7.19771">
        <ele>61.3</ele>
        <time>2021-09-20T13:56:46Z</time>
      </trkpt>
      <trkpt lat="43.7613" lon="7.19767">
        <ele>61.3</ele>
        <time>2021-09-20T13:56:47Z</time>
      </trkpt>
      <trkpt lat="43.76127" lon="7.19763">
        <ele>61.3</ele>
        <time>2021-09-20T13:56:48Z</time>
      </trkpt>
      <trkpt lat="43.76124" lon="7.19759">
        <ele>61.3</ele>
        <time>2021-09-20T13:56:49Z</time>
      </trkpt>
      <trkpt lat="43.76119" lon="7.19752">
        <ele>61.3</ele>
        <time>2021-09-20T13:56:50Z</time>
      </trkpt>
      <trkpt lat="43.76115" lon="7.19755">
        <ele>61.3</ele>
        <time>2021-09-20T13:56:52Z</time>
      </trkpt>
      <trkpt lat="43.76111" lon="7.19751">
        <ele>61.3</ele>
        <time>2021-09-20T13:56:53Z</time>
      </trkpt>
      <trkpt lat="43.76105" lon="7.19739">
        <ele>61.4</ele>
        <time>2021-09-20T13:56:55Z</time>
      </trkpt>
      <trkpt lat="43.76101" lon="7.19732">
        <ele>61.4</ele>
        <time>2021-09-20T13:56:56Z</time>
      </trkpt>
      <trkpt lat="43.76098" lon="7.19727">
        <ele>61.4</ele>
        <time>2021-09-20T13:56:58Z</time>
      </trkpt>
      <trkpt lat="43.76094" lon="7.19721">
        <ele>61.5</ele>
        <time>2021-09-20T13:56:59Z</time>
      </trkpt>
      <trkpt lat="43.76089" lon="7.19715">
        <ele>61.5</ele>
        <time>2021-09-20T13:57:01Z</time>
      </trkpt>
      <trkpt lat="43.76085" lon="7.19711">
        <ele>61.5</ele>
        <time>2021-09-20T13:57:02Z</time>
      </trkpt>
      <trkpt lat="43.76081" lon="7.19703">
        <ele>61.4</ele>
        <time>2021-09-20T13:57:04Z</time>
      </trkpt>
      <trkpt lat="43.7608" lon="7.19698">
        <ele>61.4</ele>
        <time>2021-09-20T13:57:05Z</time>
      </trkpt>
      <trkpt lat="43.7608" lon="7.19693">
        <ele>61.3</ele>
        <time>2021-09-20T13:57:06Z</time>
      </trkpt>
      <trkpt lat="43.76079" lon="7.19683">
        <ele>61.1</ele>
        <time>2021-09-20T13:57:08Z</time>
      </trkpt>
      <trkpt lat="43.76084" lon="7.19667">
        <ele>60.8</ele>
        <time>2021-09-20T13:57:10Z</time>
      </trkpt>
      <trkpt lat="43.76088" lon="7.19659">
        <ele>60.6</ele>
        <time>2021-09-20T13:57:11Z</time>
      </trkpt>
      <trkpt lat="43.76096" lon="7.19643">
        <ele>60.4</ele>
        <time>2021-09-20T13:57:13Z</time>
      </trkpt>
      <trkpt lat="43.76104" lon="7.19629">
        <ele>60.3</ele>
        <time>2021-09-20T13:57:15Z</time>
      </trkpt>
      <trkpt lat="43.76108" lon="7.19622">
        <ele>60.2</ele>
        <time>2021-09-20T13:57:16Z</time>
      </trkpt>
      <trkpt lat="43.76111" lon="7.19615">
        <ele>60.2</ele>
        <time>2021-09-20T13:57:17Z</time>
      </trkpt>
      <trkpt lat="43.76119" lon="7.19603">
        <ele>60.3</ele>
        <time>2021-09-20T13:57:19Z</time>
      </trkpt>
      <trkpt lat="43.76122" lon="7.19593">
        <ele>60.2</ele>
        <time>2021-09-20T13:57:21Z</time>
      </trkpt>
      <trkpt lat="43.76122" lon="7.19589">
        <ele>60.1</ele>
        <time>2021-09-20T13:57:22Z</time>
      </trkpt>
      <trkpt lat="43.76122" lon="7.19582">
        <ele>60</ele>
        <time>2021-09-20T13:57:24Z</time>
      </trkpt>
      <trkpt lat="43.76122" lon="7.19582">
        <ele>60</ele>
        <time>2021-09-20T13:57:25Z</time>
      </trkpt>
      <trkpt lat="43.76119" lon="7.19581">
        <ele>60</ele>
        <time>2021-09-20T13:57:26Z</time>
      </trkpt>
      <trkpt lat="43.76114" lon="7.19576">
        <ele>59.9</ele>
        <time>2021-09-20T13:57:28Z</time>
      </trkpt>
      <trkpt lat="43.7611" lon="7.19574">
        <ele>59.8</ele>
        <time>2021-09-20T13:57:29Z</time>
      </trkpt>
      <trkpt lat="43.76105" lon="7.19571">
        <ele>59.7</ele>
        <time>2021-09-20T13:57:30Z</time>
      </trkpt>
      <trkpt lat="43.761" lon="7.19568">
        <ele>59.6</ele>
        <time>2021-09-20T13:57:31Z</time>
      </trkpt>
      <trkpt lat="43.76091" lon="7.19563">
        <ele>59.6</ele>
        <time>2021-09-20T13:57:32Z</time>
      </trkpt>
      <trkpt lat="43.76084" lon="7.19557">
        <ele>59.6</ele>
        <time>2021-09-20T13:57:34Z</time>
      </trkpt>
      <trkpt lat="43.76075" lon="7.19549">
        <ele>59.5</ele>
        <time>2021-09-20T13:57:36Z</time>
      </trkpt>
      <trkpt lat="43.76069" lon="7.19544">
        <ele>59.5</ele>
        <time>2021-09-20T13:57:37Z</time>
      </trkpt>
      <trkpt lat="43.76065" lon="7.19541">
        <ele>59.4</ele>
        <time>2021-09-20T13:57:38Z</time>
      </trkpt>
      <trkpt lat="43.76059" lon="7.19536">
        <ele>59.4</ele>
        <time>2021-09-20T13:57:39Z</time>
      </trkpt>
      <trkpt lat="43.76052" lon="7.1953">
        <ele>59.4</ele>
        <time>2021-09-20T13:57:41Z</time>
      </trkpt>
      <trkpt lat="43.76045" lon="7.19525">
        <ele>59.3</ele>
        <time>2021-09-20T13:57:43Z</time>
      </trkpt>
      <trkpt lat="43.7604" lon="7.1952">
        <ele>59.3</ele>
        <time>2021-09-20T13:57:44Z</time>
      </trkpt>
      <trkpt lat="43.76036" lon="7.19516">
        <ele>59.3</ele>
        <time>2021-09-20T13:57:45Z</time>
      </trkpt>
      <trkpt lat="43.76031" lon="7.1951">
        <ele>59.3</ele>
        <time>2021-09-20T13:57:47Z</time>
      </trkpt>
      <trkpt lat="43.76023" lon="7.19504">
        <ele>59.2</ele>
        <time>2021-09-20T13:57:49Z</time>
      </trkpt>
      <trkpt lat="43.76016" lon="7.19497">
        <ele>59.2</ele>
        <time>2021-09-20T13:57:51Z</time>
      </trkpt>
      <trkpt lat="43.76012" lon="7.19493">
        <ele>59.2</ele>
        <time>2021-09-20T13:57:52Z</time>
      </trkpt>
      <trkpt lat="43.76008" lon="7.19489">
        <ele>59.2</ele>
        <time>2021-09-20T13:57:53Z</time>
      </trkpt>
      <trkpt lat="43.76005" lon="7.19485">
        <ele>59.2</ele>
        <time>2021-09-20T13:57:54Z</time>
      </trkpt>
      <trkpt lat="43.76001" lon="7.19481">
        <ele>59.1</ele>
        <time>2021-09-20T13:57:55Z</time>
      </trkpt>
      <trkpt lat="43.75995" lon="7.19475">
        <ele>59.1</ele>
        <time>2021-09-20T13:57:57Z</time>
      </trkpt>
      <trkpt lat="43.75989" lon="7.19469">
        <ele>59.1</ele>
        <time>2021-09-20T13:57:59Z</time>
      </trkpt>
      <trkpt lat="43.75983" lon="7.19461">
        <ele>59.1</ele>
        <time>2021-09-20T13:58:01Z</time>
      </trkpt>
      <trkpt lat="43.75978" lon="7.19456">
        <ele>59.1</ele>
        <time>2021-09-20T13:58:02Z</time>
      </trkpt>
      <trkpt lat="43.75974" lon="7.19452">
        <ele>59.1</ele>
        <time>2021-09-20T13:58:03Z</time>
      </trkpt>
      <trkpt lat="43.75969" lon="7.19447">
        <ele>59</ele>
        <time>2021-09-20T13:58:05Z</time>
      </trkpt>
      <trkpt lat="43.75965" lon="7.19443">
        <ele>59</ele>
        <time>2021-09-20T13:58:06Z</time>
      </trkpt>
      <trkpt lat="43.75961" lon="7.19439">
        <ele>59</ele>
        <time>2021-09-20T13:58:07Z</time>
      </trkpt>
      <trkpt lat="43.75955" lon="7.19432">
        <ele>59</ele>
        <time>2021-09-20T13:58:09Z</time>
      </trkpt>
      <trkpt lat="43.75953" lon="7.19427">
        <ele>59</ele>
        <time>2021-09-20T13:58:10Z</time>
      </trkpt>
      <trkpt lat="43.75946" lon="7.19421">
        <ele>59</ele>
        <time>2021-09-20T13:58:11Z</time>
      </trkpt>
      <trkpt lat="43.75938" lon="7.19412">
        <ele>59</ele>
        <time>2021-09-20T13:58:13Z</time>
      </trkpt>
      <trkpt lat="43.75934" lon="7.19408">
        <ele>59</ele>
        <time>2021-09-20T13:58:14Z</time>
      </trkpt>
      <trkpt lat="43.75928" lon="7.19405">
        <ele>59</ele>
        <time>2021-09-20T13:58:15Z</time>
      </trkpt>
      <trkpt lat="43.75923" lon="7.19404">
        <ele>59</ele>
        <time>2021-09-20T13:58:17Z</time>
      </trkpt>
      <trkpt lat="43.7592" lon="7.19401">
        <ele>59</ele>
        <time>2021-09-20T13:58:18Z</time>
      </trkpt>
      <trkpt lat="43.75914" lon="7.19389">
        <ele>59</ele>
        <time>2021-09-20T13:58:20Z</time>
      </trkpt>
      <trkpt lat="43.75907" lon="7.19384">
        <ele>59</ele>
        <time>2021-09-20T13:58:22Z</time>
      </trkpt>
      <trkpt lat="43.75905" lon="7.19386">
        <ele>59</ele>
        <time>2021-09-20T13:58:23Z</time>
      </trkpt>
      <trkpt lat="43.759" lon="7.19378">
        <ele>58.9</ele>
        <time>2021-09-20T13:58:24Z</time>
      </trkpt>
      <trkpt lat="43.75897" lon="7.19376">
        <ele>58.9</ele>
        <time>2021-09-20T13:58:25Z</time>
      </trkpt>
      <trkpt lat="43.75892" lon="7.19371">
        <ele>58.9</ele>
        <time>2021-09-20T13:58:26Z</time>
      </trkpt>
      <trkpt lat="43.75886" lon="7.19368">
        <ele>58.9</ele>
        <time>2021-09-20T13:58:28Z</time>
      </trkpt>
      <trkpt lat="43.7588" lon="7.19364">
        <ele>58.9</ele>
        <time>2021-09-20T13:58:29Z</time>
      </trkpt>
      <trkpt lat="43.75874" lon="7.19361">
        <ele>58.9</ele>
        <time>2021-09-20T13:58:31Z</time>
      </trkpt>
      <trkpt lat="43.75871" lon="7.19357">
        <ele>58.9</ele>
        <time>2021-09-20T13:58:32Z</time>
      </trkpt>
      <trkpt lat="43.75866" lon="7.1935">
        <ele>58.8</ele>
        <time>2021-09-20T13:58:34Z</time>
      </trkpt>
      <trkpt lat="43.75863" lon="7.19347">
        <ele>58.8</ele>
        <time>2021-09-20T13:58:35Z</time>
      </trkpt>
      <trkpt lat="43.75859" lon="7.19344">
        <ele>58.8</ele>
        <time>2021-09-20T13:58:36Z</time>
      </trkpt>
      <trkpt lat="43.75855" lon="7.19341">
        <ele>58.8</ele>
        <time>2021-09-20T13:58:37Z</time>
      </trkpt>
      <trkpt lat="43.7585" lon="7.19337">
        <ele>58.8</ele>
        <time>2021-09-20T13:58:39Z</time>
      </trkpt>
      <trkpt lat="43.75846" lon="7.19334">
        <ele>58.8</ele>
        <time>2021-09-20T13:58:40Z</time>
      </trkpt>
      <trkpt lat="43.7584" lon="7.1933">
        <ele>58.8</ele>
        <time>2021-09-20T13:58:41Z</time>
      </trkpt>
      <trkpt lat="43.75835" lon="7.19325">
        <ele>58.8</ele>
        <time>2021-09-20T13:58:43Z</time>
      </trkpt>
      <trkpt lat="43.75829" lon="7.19318">
        <ele>58.8</ele>
        <time>2021-09-20T13:58:45Z</time>
      </trkpt>
      <trkpt lat="43.75824" lon="7.19314">
        <ele>58.7</ele>
        <time>2021-09-20T13:58:46Z</time>
      </trkpt>
      <trkpt lat="43.7582" lon="7.1931">
        <ele>58.7</ele>
        <time>2021-09-20T13:58:47Z</time>
      </trkpt>
      <trkpt lat="43.75815" lon="7.1931">
        <ele>58.7</ele>
        <time>2021-09-20T13:58:49Z</time>
      </trkpt>
      <trkpt lat="43.75809" lon="7.19304">
        <ele>58.7</ele>
        <time>2021-09-20T13:58:50Z</time>
      </trkpt>
      <trkpt lat="43.75805" lon="7.19299">
        <ele>58.7</ele>
        <time>2021-09-20T13:58:52Z</time>
      </trkpt>
      <trkpt lat="43.75802" lon="7.19295">
        <ele>58.7</ele>
        <time>2021-09-20T13:58:53Z</time>
      </trkpt>
      <trkpt lat="43.75798" lon="7.19291">
        <ele>58.7</ele>
        <time>2021-09-20T13:58:54Z</time>
      </trkpt>
      <trkpt lat="43.75792" lon="7.19285">
        <ele>58.6</ele>
        <time>2021-09-20T13:58:56Z</time>
      </trkpt>
      <trkpt lat="43.75785" lon="7.19279">
        <ele>58.6</ele>
        <time>2021-09-20T13:58:58Z</time>
      </trkpt>
      <trkpt lat="43.7578" lon="7.19272">
        <ele>58.6</ele>
        <time>2021-09-20T13:59:00Z</time>
      </trkpt>
      <trkpt lat="43.75774" lon="7.19267">
        <ele>58.6</ele>
        <time>2021-09-20T13:59:02Z</time>
      </trkpt>
      <trkpt lat="43.7577" lon="7.19264">
        <ele>58.6</ele>
        <time>2021-09-20T13:59:03Z</time>
      </trkpt>
      <trkpt lat="43.75767" lon="7.1926">
        <ele>58.6</ele>
        <time>2021-09-20T13:59:04Z</time>
      </trkpt>
      <trkpt lat="43.75762" lon="7.19257">
        <ele>58.6</ele>
        <time>2021-09-20T13:59:05Z</time>
      </trkpt>
      <trkpt lat="43.75757" lon="7.19252">
        <ele>58.6</ele>
        <time>2021-09-20T13:59:07Z</time>
      </trkpt>
      <trkpt lat="43.75747" lon="7.19246">
        <ele>58.6</ele>
        <time>2021-09-20T13:59:09Z</time>
      </trkpt>
      <trkpt lat="43.75744" lon="7.19243">
        <ele>58.6</ele>
        <time>2021-09-20T13:59:10Z</time>
      </trkpt>
      <trkpt lat="43.75739" lon="7.19236">
        <ele>58.6</ele>
        <time>2021-09-20T13:59:12Z</time>
      </trkpt>
      <trkpt lat="43.75734" lon="7.19234">
        <ele>58.6</ele>
        <time>2021-09-20T13:59:13Z</time>
      </trkpt>
      <trkpt lat="43.75728" lon="7.19231">
        <ele>58.6</ele>
        <time>2021-09-20T13:59:15Z</time>
      </trkpt>
      <trkpt lat="43.75722" lon="7.19227">
        <ele>58.6</ele>
        <time>2021-09-20T13:59:16Z</time>
      </trkpt>
      <trkpt lat="43.75717" lon="7.19223">
        <ele>58.6</ele>
        <time>2021-09-20T13:59:18Z</time>
      </trkpt>
      <trkpt lat="43.75715" lon="7.1922">
        <ele>58.6</ele>
        <time>2021-09-20T13:59:19Z</time>
      </trkpt>
      <trkpt lat="43.75711" lon="7.19215">
        <ele>58.6</ele>
        <time>2021-09-20T13:59:20Z</time>
      </trkpt>
      <trkpt lat="43.75706" lon="7.1921">
        <ele>58.6</ele>
        <time>2021-09-20T13:59:22Z</time>
      </trkpt>
      <trkpt lat="43.75703" lon="7.19207">
        <ele>58.6</ele>
        <time>2021-09-20T13:59:23Z</time>
      </trkpt>
      <trkpt lat="43.757" lon="7.19203">
        <ele>58.6</ele>
        <time>2021-09-20T13:59:24Z</time>
      </trkpt>
      <trkpt lat="43.75697" lon="7.192">
        <ele>58.6</ele>
        <time>2021-09-20T13:59:25Z</time>
      </trkpt>
      <trkpt lat="43.75693" lon="7.19196">
        <ele>58.5</ele>
        <time>2021-09-20T13:59:26Z</time>
      </trkpt>
      <trkpt lat="43.75689" lon="7.19191">
        <ele>58.5</ele>
        <time>2021-09-20T13:59:27Z</time>
      </trkpt>
      <trkpt lat="43.75684" lon="7.19184">
        <ele>58.4</ele>
        <time>2021-09-20T13:59:29Z</time>
      </trkpt>
      <trkpt lat="43.75677" lon="7.19177">
        <ele>58.4</ele>
        <time>2021-09-20T13:59:31Z</time>
      </trkpt>
      <trkpt lat="43.75671" lon="7.1917">
        <ele>58.3</ele>
        <time>2021-09-20T13:59:33Z</time>
      </trkpt>
      <trkpt lat="43.75667" lon="7.19167">
        <ele>58.3</ele>
        <time>2021-09-20T13:59:34Z</time>
      </trkpt>
      <trkpt lat="43.75663" lon="7.19164">
        <ele>58.2</ele>
        <time>2021-09-20T13:59:35Z</time>
      </trkpt>
      <trkpt lat="43.7566" lon="7.19161">
        <ele>58.2</ele>
        <time>2021-09-20T13:59:36Z</time>
      </trkpt>
      <trkpt lat="43.75656" lon="7.19158">
        <ele>58.2</ele>
        <time>2021-09-20T13:59:37Z</time>
      </trkpt>
      <trkpt lat="43.75651" lon="7.19154">
        <ele>58.1</ele>
        <time>2021-09-20T13:59:38Z</time>
      </trkpt>
      <trkpt lat="43.75645" lon="7.19151">
        <ele>58.1</ele>
        <time>2021-09-20T13:59:40Z</time>
      </trkpt>
      <trkpt lat="43.75638" lon="7.19145">
        <ele>58</ele>
        <time>2021-09-20T13:59:41Z</time>
      </trkpt>
      <trkpt lat="43.75633" lon="7.19141">
        <ele>58</ele>
        <time>2021-09-20T13:59:43Z</time>
      </trkpt>
      <trkpt lat="43.75629" lon="7.19138">
        <ele>58</ele>
        <time>2021-09-20T13:59:44Z</time>
      </trkpt>
      <trkpt lat="43.75623" lon="7.19135">
        <ele>57.9</ele>
        <time>2021-09-20T13:59:46Z</time>
      </trkpt>
      <trkpt lat="43.75619" lon="7.19132">
        <ele>57.9</ele>
        <time>2021-09-20T13:59:47Z</time>
      </trkpt>
      <trkpt lat="43.75613" lon="7.19128">
        <ele>57.9</ele>
        <time>2021-09-20T13:59:49Z</time>
      </trkpt>
      <trkpt lat="43.75607" lon="7.19121">
        <ele>57.8</ele>
        <time>2021-09-20T13:59:51Z</time>
      </trkpt>
      <trkpt lat="43.75599" lon="7.19114">
        <ele>57.7</ele>
        <time>2021-09-20T13:59:53Z</time>
      </trkpt>
      <trkpt lat="43.75595" lon="7.19111">
        <ele>57.7</ele>
        <time>2021-09-20T13:59:54Z</time>
      </trkpt>
      <trkpt lat="43.75592" lon="7.19108">
        <ele>57.6</ele>
        <time>2021-09-20T13:59:55Z</time>
      </trkpt>
      <trkpt lat="43.75588" lon="7.19105">
        <ele>57.6</ele>
        <time>2021-09-20T13:59:56Z</time>
      </trkpt>
      <trkpt lat="43.75585" lon="7.19101">
        <ele>57.5</ele>
        <time>2021-09-20T13:59:57Z</time>
      </trkpt>
      <trkpt lat="43.75579" lon="7.19095">
        <ele>57.5</ele>
        <time>2021-09-20T13:59:59Z</time>
      </trkpt>
      <trkpt lat="43.75575" lon="7.19092">
        <ele>57.5</ele>
        <time>2021-09-20T14:00:00Z</time>
      </trkpt>
      <trkpt lat="43.75568" lon="7.19086">
        <ele>57.4</ele>
        <time>2021-09-20T14:00:02Z</time>
      </trkpt>
      <trkpt lat="43.75564" lon="7.19082">
        <ele>57.4</ele>
        <time>2021-09-20T14:00:03Z</time>
      </trkpt>
      <trkpt lat="43.75558" lon="7.19077">
        <ele>57.3</ele>
        <time>2021-09-20T14:00:05Z</time>
      </trkpt>
      <trkpt lat="43.75551" lon="7.19073">
        <ele>57.3</ele>
        <time>2021-09-20T14:00:06Z</time>
      </trkpt>
      <trkpt lat="43.75545" lon="7.19071">
        <ele>57.3</ele>
        <time>2021-09-20T14:00:07Z</time>
      </trkpt>
      <trkpt lat="43.7554" lon="7.19068">
        <ele>57.2</ele>
        <time>2021-09-20T14:00:09Z</time>
      </trkpt>
      <trkpt lat="43.75537" lon="7.19066">
        <ele>57.2</ele>
        <time>2021-09-20T14:00:10Z</time>
      </trkpt>
      <trkpt lat="43.75534" lon="7.19064">
        <ele>57.2</ele>
        <time>2021-09-20T14:00:11Z</time>
      </trkpt>
      <trkpt lat="43.75529" lon="7.19061">
        <ele>57.1</ele>
        <time>2021-09-20T14:00:13Z</time>
      </trkpt>
      <trkpt lat="43.75522" lon="7.19057">
        <ele>57.1</ele>
        <time>2021-09-20T14:00:15Z</time>
      </trkpt>
      <trkpt lat="43.75517" lon="7.19054">
        <ele>57.1</ele>
        <time>2021-09-20T14:00:16Z</time>
      </trkpt>
      <trkpt lat="43.75513" lon="7.19052">
        <ele>57</ele>
        <time>2021-09-20T14:00:17Z</time>
      </trkpt>
      <trkpt lat="43.75507" lon="7.19049">
        <ele>57</ele>
        <time>2021-09-20T14:00:19Z</time>
      </trkpt>
      <trkpt lat="43.75502" lon="7.19047">
        <ele>57</ele>
        <time>2021-09-20T14:00:20Z</time>
      </trkpt>
      <trkpt lat="43.75496" lon="7.19042">
        <ele>56.9</ele>
        <time>2021-09-20T14:00:22Z</time>
      </trkpt>
      <trkpt lat="43.7549" lon="7.19036">
        <ele>56.9</ele>
        <time>2021-09-20T14:00:24Z</time>
      </trkpt>
      <trkpt lat="43.75483" lon="7.19031">
        <ele>56.8</ele>
        <time>2021-09-20T14:00:26Z</time>
      </trkpt>
      <trkpt lat="43.7548" lon="7.19027">
        <ele>56.8</ele>
        <time>2021-09-20T14:00:27Z</time>
      </trkpt>
      <trkpt lat="43.75478" lon="7.19024">
        <ele>56.8</ele>
        <time>2021-09-20T14:00:28Z</time>
      </trkpt>
      <trkpt lat="43.75475" lon="7.19022">
        <ele>56.8</ele>
        <time>2021-09-20T14:00:29Z</time>
      </trkpt>
      <trkpt lat="43.75471" lon="7.1902">
        <ele>56.8</ele>
        <time>2021-09-20T14:00:30Z</time>
      </trkpt>
      <trkpt lat="43.75467" lon="7.19016">
        <ele>56.8</ele>
        <time>2021-09-20T14:00:31Z</time>
      </trkpt>
      <trkpt lat="43.75463" lon="7.19011">
        <ele>56.7</ele>
        <time>2021-09-20T14:00:33Z</time>
      </trkpt>
      <trkpt lat="43.7546" lon="7.19009">
        <ele>56.7</ele>
        <time>2021-09-20T14:00:34Z</time>
      </trkpt>
      <trkpt lat="43.75454" lon="7.19003">
        <ele>56.7</ele>
        <time>2021-09-20T14:00:36Z</time>
      </trkpt>
      <trkpt lat="43.75449" lon="7.18996">
        <ele>56.7</ele>
        <time>2021-09-20T14:00:38Z</time>
      </trkpt>
      <trkpt lat="43.75445" lon="7.18992">
        <ele>56.6</ele>
        <time>2021-09-20T14:00:39Z</time>
      </trkpt>
      <trkpt lat="43.75442" lon="7.18989">
        <ele>56.6</ele>
        <time>2021-09-20T14:00:40Z</time>
      </trkpt>
      <trkpt lat="43.75438" lon="7.18986">
        <ele>56.6</ele>
        <time>2021-09-20T14:00:41Z</time>
      </trkpt>
      <trkpt lat="43.75433" lon="7.18982">
        <ele>56.5</ele>
        <time>2021-09-20T14:00:42Z</time>
      </trkpt>
      <trkpt lat="43.75428" lon="7.18979">
        <ele>56.5</ele>
        <time>2021-09-20T14:00:44Z</time>
      </trkpt>
      <trkpt lat="43.75423" lon="7.18975">
        <ele>56.5</ele>
        <time>2021-09-20T14:00:45Z</time>
      </trkpt>
      <trkpt lat="43.75419" lon="7.18972">
        <ele>56.5</ele>
        <time>2021-09-20T14:00:46Z</time>
      </trkpt>
      <trkpt lat="43.75412" lon="7.18965">
        <ele>56.4</ele>
        <time>2021-09-20T14:00:48Z</time>
      </trkpt>
      <trkpt lat="43.75404" lon="7.18956">
        <ele>56.4</ele>
        <time>2021-09-20T14:00:50Z</time>
      </trkpt>
      <trkpt lat="43.75399" lon="7.1895">
        <ele>56.4</ele>
        <time>2021-09-20T14:00:51Z</time>
      </trkpt>
      <trkpt lat="43.75388" lon="7.18943">
        <ele>56.3</ele>
        <time>2021-09-20T14:00:53Z</time>
      </trkpt>
      <trkpt lat="43.75382" lon="7.18939">
        <ele>56.3</ele>
        <time>2021-09-20T14:00:54Z</time>
      </trkpt>
      <trkpt lat="43.75373" lon="7.18933">
        <ele>56.2</ele>
        <time>2021-09-20T14:00:56Z</time>
      </trkpt>
      <trkpt lat="43.75367" lon="7.18928">
        <ele>56.2</ele>
        <time>2021-09-20T14:00:58Z</time>
      </trkpt>
      <trkpt lat="43.75364" lon="7.18924">
        <ele>56.2</ele>
        <time>2021-09-20T14:00:59Z</time>
      </trkpt>
      <trkpt lat="43.75357" lon="7.18919">
        <ele>56.1</ele>
        <time>2021-09-20T14:01:01Z</time>
      </trkpt>
      <trkpt lat="43.75353" lon="7.18915">
        <ele>56.1</ele>
        <time>2021-09-20T14:01:02Z</time>
      </trkpt>
      <trkpt lat="43.75349" lon="7.18912">
        <ele>56</ele>
        <time>2021-09-20T14:01:03Z</time>
      </trkpt>
      <trkpt lat="43.75342" lon="7.18906">
        <ele>56</ele>
        <time>2021-09-20T14:01:05Z</time>
      </trkpt>
      <trkpt lat="43.75334" lon="7.189">
        <ele>55.9</ele>
        <time>2021-09-20T14:01:07Z</time>
      </trkpt>
      <trkpt lat="43.75327" lon="7.18894">
        <ele>55.9</ele>
        <time>2021-09-20T14:01:08Z</time>
      </trkpt>
      <trkpt lat="43.75323" lon="7.18889">
        <ele>55.8</ele>
        <time>2021-09-20T14:01:09Z</time>
      </trkpt>
      <trkpt lat="43.7532" lon="7.18885">
        <ele>55.8</ele>
        <time>2021-09-20T14:01:10Z</time>
      </trkpt>
      <trkpt lat="43.75317" lon="7.18881">
        <ele>55.8</ele>
        <time>2021-09-20T14:01:11Z</time>
      </trkpt>
      <trkpt lat="43.75312" lon="7.18874">
        <ele>55.7</ele>
        <time>2021-09-20T14:01:13Z</time>
      </trkpt>
      <trkpt lat="43.75309" lon="7.18869">
        <ele>55.7</ele>
        <time>2021-09-20T14:01:14Z</time>
      </trkpt>
      <trkpt lat="43.75305" lon="7.18864">
        <ele>55.7</ele>
        <time>2021-09-20T14:01:15Z</time>
      </trkpt>
      <trkpt lat="43.75301" lon="7.1886">
        <ele>55.7</ele>
        <time>2021-09-20T14:01:16Z</time>
      </trkpt>
      <trkpt lat="43.753" lon="7.18855">
        <ele>55.6</ele>
        <time>2021-09-20T14:01:17Z</time>
      </trkpt>
      <trkpt lat="43.75298" lon="7.1885">
        <ele>55.6</ele>
        <time>2021-09-20T14:01:19Z</time>
      </trkpt>
      <trkpt lat="43.75285" lon="7.1884">
        <ele>55.6</ele>
        <time>2021-09-20T14:01:21Z</time>
      </trkpt>
      <trkpt lat="43.75281" lon="7.18836">
        <ele>55.5</ele>
        <time>2021-09-20T14:01:22Z</time>
      </trkpt>
      <trkpt lat="43.75278" lon="7.18832">
        <ele>55.5</ele>
        <time>2021-09-20T14:01:23Z</time>
      </trkpt>
      <trkpt lat="43.75275" lon="7.18828">
        <ele>55.5</ele>
        <time>2021-09-20T14:01:24Z</time>
      </trkpt>
      <trkpt lat="43.7527" lon="7.18824">
        <ele>55.5</ele>
        <time>2021-09-20T14:01:25Z</time>
      </trkpt>
      <trkpt lat="43.75266" lon="7.18821">
        <ele>55.4</ele>
        <time>2021-09-20T14:01:26Z</time>
      </trkpt>
      <trkpt lat="43.75263" lon="7.18816">
        <ele>55.4</ele>
        <time>2021-09-20T14:01:27Z</time>
      </trkpt>
      <trkpt lat="43.75257" lon="7.18809">
        <ele>55.4</ele>
        <time>2021-09-20T14:01:29Z</time>
      </trkpt>
      <trkpt lat="43.75253" lon="7.18805">
        <ele>55.3</ele>
        <time>2021-09-20T14:01:30Z</time>
      </trkpt>
      <trkpt lat="43.75249" lon="7.188">
        <ele>55.3</ele>
        <time>2021-09-20T14:01:31Z</time>
      </trkpt>
      <trkpt lat="43.75243" lon="7.18795">
        <ele>55.2</ele>
        <time>2021-09-20T14:01:33Z</time>
      </trkpt>
      <trkpt lat="43.75239" lon="7.18792">
        <ele>55.2</ele>
        <time>2021-09-20T14:01:34Z</time>
      </trkpt>
      <trkpt lat="43.75234" lon="7.18787">
        <ele>55.2</ele>
        <time>2021-09-20T14:01:35Z</time>
      </trkpt>
      <trkpt lat="43.75225" lon="7.1878">
        <ele>55.1</ele>
        <time>2021-09-20T14:01:37Z</time>
      </trkpt>
      <trkpt lat="43.75222" lon="7.18776">
        <ele>55</ele>
        <time>2021-09-20T14:01:38Z</time>
      </trkpt>
      <trkpt lat="43.75218" lon="7.18773">
        <ele>55</ele>
        <time>2021-09-20T14:01:39Z</time>
      </trkpt>
      <trkpt lat="43.75208" lon="7.18766">
        <ele>54.9</ele>
        <time>2021-09-20T14:01:41Z</time>
      </trkpt>
      <trkpt lat="43.75199" lon="7.1876">
        <ele>54.9</ele>
        <time>2021-09-20T14:01:43Z</time>
      </trkpt>
      <trkpt lat="43.75195" lon="7.18756">
        <ele>54.8</ele>
        <time>2021-09-20T14:01:44Z</time>
      </trkpt>
      <trkpt lat="43.75186" lon="7.18749">
        <ele>54.8</ele>
        <time>2021-09-20T14:01:46Z</time>
      </trkpt>
      <trkpt lat="43.75182" lon="7.18743">
        <ele>54.7</ele>
        <time>2021-09-20T14:01:47Z</time>
      </trkpt>
      <trkpt lat="43.75176" lon="7.18737">
        <ele>54.7</ele>
        <time>2021-09-20T14:01:49Z</time>
      </trkpt>
      <trkpt lat="43.75172" lon="7.18733">
        <ele>54.7</ele>
        <time>2021-09-20T14:01:51Z</time>
      </trkpt>
      <trkpt lat="43.75168" lon="7.18731">
        <ele>54.6</ele>
        <time>2021-09-20T14:01:52Z</time>
      </trkpt>
      <trkpt lat="43.75163" lon="7.18727">
        <ele>54.6</ele>
        <time>2021-09-20T14:01:53Z</time>
      </trkpt>
      <trkpt lat="43.75158" lon="7.18721">
        <ele>54.5</ele>
        <time>2021-09-20T14:01:55Z</time>
      </trkpt>
      <trkpt lat="43.75154" lon="7.18717">
        <ele>54.5</ele>
        <time>2021-09-20T14:01:56Z</time>
      </trkpt>
      <trkpt lat="43.75148" lon="7.18711">
        <ele>54.5</ele>
        <time>2021-09-20T14:01:57Z</time>
      </trkpt>
      <trkpt lat="43.75144" lon="7.18706">
        <ele>54.4</ele>
        <time>2021-09-20T14:01:59Z</time>
      </trkpt>
      <trkpt lat="43.75137" lon="7.187">
        <ele>54.3</ele>
        <time>2021-09-20T14:02:01Z</time>
      </trkpt>
      <trkpt lat="43.75132" lon="7.18694">
        <ele>54.3</ele>
        <time>2021-09-20T14:02:02Z</time>
      </trkpt>
      <trkpt lat="43.7513" lon="7.18691">
        <ele>54.3</ele>
        <time>2021-09-20T14:02:03Z</time>
      </trkpt>
      <trkpt lat="43.75127" lon="7.18686">
        <ele>54.2</ele>
        <time>2021-09-20T14:02:04Z</time>
      </trkpt>
      <trkpt lat="43.75122" lon="7.1868">
        <ele>54.2</ele>
        <time>2021-09-20T14:02:06Z</time>
      </trkpt>
      <trkpt lat="43.75118" lon="7.18677">
        <ele>54.1</ele>
        <time>2021-09-20T14:02:07Z</time>
      </trkpt>
      <trkpt lat="43.75115" lon="7.18673">
        <ele>54.1</ele>
        <time>2021-09-20T14:02:08Z</time>
      </trkpt>
      <trkpt lat="43.7511" lon="7.18669">
        <ele>54.1</ele>
        <time>2021-09-20T14:02:09Z</time>
      </trkpt>
      <trkpt lat="43.75104" lon="7.18663">
        <ele>54</ele>
        <time>2021-09-20T14:02:11Z</time>
      </trkpt>
      <trkpt lat="43.75101" lon="7.18659">
        <ele>54</ele>
        <time>2021-09-20T14:02:12Z</time>
      </trkpt>
      <trkpt lat="43.75097" lon="7.18656">
        <ele>54</ele>
        <time>2021-09-20T14:02:13Z</time>
      </trkpt>
      <trkpt lat="43.75093" lon="7.18651">
        <ele>54</ele>
        <time>2021-09-20T14:02:14Z</time>
      </trkpt>
      <trkpt lat="43.75086" lon="7.18644">
        <ele>54</ele>
        <time>2021-09-20T14:02:16Z</time>
      </trkpt>
      <trkpt lat="43.7508" lon="7.18638">
        <ele>53.9</ele>
        <time>2021-09-20T14:02:17Z</time>
      </trkpt>
      <trkpt lat="43.75072" lon="7.18629">
        <ele>53.9</ele>
        <time>2021-09-20T14:02:19Z</time>
      </trkpt>
      <trkpt lat="43.75069" lon="7.18625">
        <ele>53.9</ele>
        <time>2021-09-20T14:02:20Z</time>
      </trkpt>
      <trkpt lat="43.75061" lon="7.18618">
        <ele>53.8</ele>
        <time>2021-09-20T14:02:22Z</time>
      </trkpt>
      <trkpt lat="43.75056" lon="7.18613">
        <ele>53.8</ele>
        <time>2021-09-20T14:02:23Z</time>
      </trkpt>
      <trkpt lat="43.75052" lon="7.18608">
        <ele>53.7</ele>
        <time>2021-09-20T14:02:24Z</time>
      </trkpt>
      <trkpt lat="43.75049" lon="7.18604">
        <ele>53.7</ele>
        <time>2021-09-20T14:02:25Z</time>
      </trkpt>
      <trkpt lat="43.75041" lon="7.18597">
        <ele>53.6</ele>
        <time>2021-09-20T14:02:27Z</time>
      </trkpt>
      <trkpt lat="43.75038" lon="7.18593">
        <ele>53.6</ele>
        <time>2021-09-20T14:02:28Z</time>
      </trkpt>
      <trkpt lat="43.75034" lon="7.1859">
        <ele>53.5</ele>
        <time>2021-09-20T14:02:29Z</time>
      </trkpt>
      <trkpt lat="43.75032" lon="7.18587">
        <ele>53.5</ele>
        <time>2021-09-20T14:02:30Z</time>
      </trkpt>
      <trkpt lat="43.75028" lon="7.18583">
        <ele>53.5</ele>
        <time>2021-09-20T14:02:31Z</time>
      </trkpt>
      <trkpt lat="43.75021" lon="7.18575">
        <ele>53.4</ele>
        <time>2021-09-20T14:02:33Z</time>
      </trkpt>
      <trkpt lat="43.75017" lon="7.18571">
        <ele>53.3</ele>
        <time>2021-09-20T14:02:34Z</time>
      </trkpt>
      <trkpt lat="43.75013" lon="7.18567">
        <ele>53.3</ele>
        <time>2021-09-20T14:02:35Z</time>
      </trkpt>
      <trkpt lat="43.7501" lon="7.18563">
        <ele>53.3</ele>
        <time>2021-09-20T14:02:36Z</time>
      </trkpt>
      <trkpt lat="43.75007" lon="7.1856">
        <ele>53.3</ele>
        <time>2021-09-20T14:02:37Z</time>
      </trkpt>
      <trkpt lat="43.75006" lon="7.18558">
        <ele>53.2</ele>
        <time>2021-09-20T14:02:38Z</time>
      </trkpt>
      <trkpt lat="43.75003" lon="7.18554">
        <ele>53.2</ele>
        <time>2021-09-20T14:02:39Z</time>
      </trkpt>
      <trkpt lat="43.74999" lon="7.1855">
        <ele>53.2</ele>
        <time>2021-09-20T14:02:40Z</time>
      </trkpt>
      <trkpt lat="43.74995" lon="7.18547">
        <ele>53.2</ele>
        <time>2021-09-20T14:02:41Z</time>
      </trkpt>
      <trkpt lat="43.74989" lon="7.18541">
        <ele>53.1</ele>
        <time>2021-09-20T14:02:43Z</time>
      </trkpt>
      <trkpt lat="43.74985" lon="7.18538">
        <ele>53.1</ele>
        <time>2021-09-20T14:02:44Z</time>
      </trkpt>
      <trkpt lat="43.74979" lon="7.18532">
        <ele>53</ele>
        <time>2021-09-20T14:02:45Z</time>
      </trkpt>
      <trkpt lat="43.74975" lon="7.18528">
        <ele>53</ele>
        <time>2021-09-20T14:02:46Z</time>
      </trkpt>
      <trkpt lat="43.74969" lon="7.1852">
        <ele>52.9</ele>
        <time>2021-09-20T14:02:48Z</time>
      </trkpt>
      <trkpt lat="43.74965" lon="7.18516">
        <ele>52.9</ele>
        <time>2021-09-20T14:02:49Z</time>
      </trkpt>
      <trkpt lat="43.7496" lon="7.18512">
        <ele>52.9</ele>
        <time>2021-09-20T14:02:50Z</time>
      </trkpt>
      <trkpt lat="43.74955" lon="7.18508">
        <ele>52.8</ele>
        <time>2021-09-20T14:02:51Z</time>
      </trkpt>
      <trkpt lat="43.74949" lon="7.18502">
        <ele>52.8</ele>
        <time>2021-09-20T14:02:53Z</time>
      </trkpt>
      <trkpt lat="43.74944" lon="7.18497">
        <ele>52.8</ele>
        <time>2021-09-20T14:02:54Z</time>
      </trkpt>
      <trkpt lat="43.74939" lon="7.1849">
        <ele>52.7</ele>
        <time>2021-09-20T14:02:56Z</time>
      </trkpt>
      <trkpt lat="43.74933" lon="7.18483">
        <ele>52.7</ele>
        <time>2021-09-20T14:02:58Z</time>
      </trkpt>
      <trkpt lat="43.74926" lon="7.18477">
        <ele>52.6</ele>
        <time>2021-09-20T14:02:59Z</time>
      </trkpt>
      <trkpt lat="43.74921" lon="7.18473">
        <ele>52.6</ele>
        <time>2021-09-20T14:03:00Z</time>
      </trkpt>
      <trkpt lat="43.74916" lon="7.1847">
        <ele>52.5</ele>
        <time>2021-09-20T14:03:01Z</time>
      </trkpt>
      <trkpt lat="43.74911" lon="7.18466">
        <ele>52.5</ele>
        <time>2021-09-20T14:03:02Z</time>
      </trkpt>
      <trkpt lat="43.74903" lon="7.18457">
        <ele>52.5</ele>
        <time>2021-09-20T14:03:04Z</time>
      </trkpt>
      <trkpt lat="43.74895" lon="7.18451">
        <ele>52.4</ele>
        <time>2021-09-20T14:03:06Z</time>
      </trkpt>
      <trkpt lat="43.7489" lon="7.18447">
        <ele>52.4</ele>
        <time>2021-09-20T14:03:07Z</time>
      </trkpt>
      <trkpt lat="43.74882" lon="7.1844">
        <ele>52.3</ele>
        <time>2021-09-20T14:03:09Z</time>
      </trkpt>
      <trkpt lat="43.74877" lon="7.18436">
        <ele>52.3</ele>
        <time>2021-09-20T14:03:10Z</time>
      </trkpt>
      <trkpt lat="43.7487" lon="7.18429">
        <ele>52.3</ele>
        <time>2021-09-20T14:03:12Z</time>
      </trkpt>
      <trkpt lat="43.74866" lon="7.18426">
        <ele>52.3</ele>
        <time>2021-09-20T14:03:13Z</time>
      </trkpt>
      <trkpt lat="43.74858" lon="7.1842">
        <ele>52.2</ele>
        <time>2021-09-20T14:03:15Z</time>
      </trkpt>
      <trkpt lat="43.74853" lon="7.18416">
        <ele>52.2</ele>
        <time>2021-09-20T14:03:16Z</time>
      </trkpt>
      <trkpt lat="43.74848" lon="7.18413">
        <ele>52.2</ele>
        <time>2021-09-20T14:03:17Z</time>
      </trkpt>
      <trkpt lat="43.74839" lon="7.18405">
        <ele>52.2</ele>
        <time>2021-09-20T14:03:19Z</time>
      </trkpt>
      <trkpt lat="43.74836" lon="7.18402">
        <ele>52.2</ele>
        <time>2021-09-20T14:03:20Z</time>
      </trkpt>
      <trkpt lat="43.74826" lon="7.18395">
        <ele>52.1</ele>
        <time>2021-09-20T14:03:22Z</time>
      </trkpt>
      <trkpt lat="43.74816" lon="7.18389">
        <ele>52.1</ele>
        <time>2021-09-20T14:03:24Z</time>
      </trkpt>
      <trkpt lat="43.74811" lon="7.18386">
        <ele>52.1</ele>
        <time>2021-09-20T14:03:25Z</time>
      </trkpt>
      <trkpt lat="43.74807" lon="7.18383">
        <ele>52.1</ele>
        <time>2021-09-20T14:03:26Z</time>
      </trkpt>
      <trkpt lat="43.74799" lon="7.18375">
        <ele>52</ele>
        <time>2021-09-20T14:03:28Z</time>
      </trkpt>
      <trkpt lat="43.74798" lon="7.18372">
        <ele>52</ele>
        <time>2021-09-20T14:03:29Z</time>
      </trkpt>
      <trkpt lat="43.74796" lon="7.18368">
        <ele>52</ele>
        <time>2021-09-20T14:03:30Z</time>
      </trkpt>
      <trkpt lat="43.7479" lon="7.18363">
        <ele>52</ele>
        <time>2021-09-20T14:03:31Z</time>
      </trkpt>
      <trkpt lat="43.74785" lon="7.18358">
        <ele>52</ele>
        <time>2021-09-20T14:03:33Z</time>
      </trkpt>
      <trkpt lat="43.74778" lon="7.18355">
        <ele>52</ele>
        <time>2021-09-20T14:03:34Z</time>
      </trkpt>
      <trkpt lat="43.74774" lon="7.18352">
        <ele>52</ele>
        <time>2021-09-20T14:03:35Z</time>
      </trkpt>
      <trkpt lat="43.74768" lon="7.18349">
        <ele>51.9</ele>
        <time>2021-09-20T14:03:36Z</time>
      </trkpt>
      <trkpt lat="43.74761" lon="7.18346">
        <ele>51.9</ele>
        <time>2021-09-20T14:03:38Z</time>
      </trkpt>
      <trkpt lat="43.74756" lon="7.18347">
        <ele>51.9</ele>
        <time>2021-09-20T14:03:40Z</time>
      </trkpt>
      <trkpt lat="43.74747" lon="7.18338">
        <ele>51.8</ele>
        <time>2021-09-20T14:03:41Z</time>
      </trkpt>
      <trkpt lat="43.74738" lon="7.1833">
        <ele>51.8</ele>
        <time>2021-09-20T14:03:43Z</time>
      </trkpt>
      <trkpt lat="43.74734" lon="7.18327">
        <ele>51.7</ele>
        <time>2021-09-20T14:03:44Z</time>
      </trkpt>
      <trkpt lat="43.74729" lon="7.18325">
        <ele>51.7</ele>
        <time>2021-09-20T14:03:45Z</time>
      </trkpt>
      <trkpt lat="43.7472" lon="7.18321">
        <ele>51.6</ele>
        <time>2021-09-20T14:03:47Z</time>
      </trkpt>
      <trkpt lat="43.74712" lon="7.18314">
        <ele>51.6</ele>
        <time>2021-09-20T14:03:49Z</time>
      </trkpt>
      <trkpt lat="43.74705" lon="7.18309">
        <ele>51.6</ele>
        <time>2021-09-20T14:03:51Z</time>
      </trkpt>
      <trkpt lat="43.74702" lon="7.18308">
        <ele>51.5</ele>
        <time>2021-09-20T14:03:52Z</time>
      </trkpt>
      <trkpt lat="43.74698" lon="7.18306">
        <ele>51.5</ele>
        <time>2021-09-20T14:03:53Z</time>
      </trkpt>
      <trkpt lat="43.74692" lon="7.18301">
        <ele>51.5</ele>
        <time>2021-09-20T14:03:55Z</time>
      </trkpt>
      <trkpt lat="43.74689" lon="7.18298">
        <ele>51.5</ele>
        <time>2021-09-20T14:03:56Z</time>
      </trkpt>
      <trkpt lat="43.74683" lon="7.18292">
        <ele>51.4</ele>
        <time>2021-09-20T14:03:58Z</time>
      </trkpt>
      <trkpt lat="43.74679" lon="7.18288">
        <ele>51.4</ele>
        <time>2021-09-20T14:03:59Z</time>
      </trkpt>
      <trkpt lat="43.74676" lon="7.18287">
        <ele>51.4</ele>
        <time>2021-09-20T14:04:01Z</time>
      </trkpt>
      <trkpt lat="43.74673" lon="7.18285">
        <ele>51.4</ele>
        <time>2021-09-20T14:04:02Z</time>
      </trkpt>
      <trkpt lat="43.74669" lon="7.18283">
        <ele>51.4</ele>
        <time>2021-09-20T14:04:03Z</time>
      </trkpt>
      <trkpt lat="43.74665" lon="7.18282">
        <ele>51.3</ele>
        <time>2021-09-20T14:04:04Z</time>
      </trkpt>
      <trkpt lat="43.74661" lon="7.1828">
        <ele>51.3</ele>
        <time>2021-09-20T14:04:05Z</time>
      </trkpt>
      <trkpt lat="43.74658" lon="7.18278">
        <ele>51.3</ele>
        <time>2021-09-20T14:04:06Z</time>
      </trkpt>
      <trkpt lat="43.74654" lon="7.18276">
        <ele>51.2</ele>
        <time>2021-09-20T14:04:07Z</time>
      </trkpt>
      <trkpt lat="43.74651" lon="7.18274">
        <ele>51.2</ele>
        <time>2021-09-20T14:04:08Z</time>
      </trkpt>
      <trkpt lat="43.74647" lon="7.18271">
        <ele>51.2</ele>
        <time>2021-09-20T14:04:09Z</time>
      </trkpt>
      <trkpt lat="43.74639" lon="7.18265">
        <ele>51.1</ele>
        <time>2021-09-20T14:04:11Z</time>
      </trkpt>
      <trkpt lat="43.74636" lon="7.18262">
        <ele>51.1</ele>
        <time>2021-09-20T14:04:12Z</time>
      </trkpt>
      <trkpt lat="43.74629" lon="7.18255">
        <ele>51</ele>
        <time>2021-09-20T14:04:14Z</time>
      </trkpt>
      <trkpt lat="43.74626" lon="7.18252">
        <ele>51</ele>
        <time>2021-09-20T14:04:15Z</time>
      </trkpt>
      <trkpt lat="43.74621" lon="7.18249">
        <ele>51</ele>
        <time>2021-09-20T14:04:16Z</time>
      </trkpt>
      <trkpt lat="43.7461" lon="7.18242">
        <ele>50.9</ele>
        <time>2021-09-20T14:04:18Z</time>
      </trkpt>
      <trkpt lat="43.74601" lon="7.18235">
        <ele>50.9</ele>
        <time>2021-09-20T14:04:20Z</time>
      </trkpt>
      <trkpt lat="43.74596" lon="7.18231">
        <ele>50.9</ele>
        <time>2021-09-20T14:04:21Z</time>
      </trkpt>
      <trkpt lat="43.74592" lon="7.18227">
        <ele>50.8</ele>
        <time>2021-09-20T14:04:22Z</time>
      </trkpt>
      <trkpt lat="43.74587" lon="7.18224">
        <ele>50.8</ele>
        <time>2021-09-20T14:04:23Z</time>
      </trkpt>
      <trkpt lat="43.74577" lon="7.18218">
        <ele>50.8</ele>
        <time>2021-09-20T14:04:25Z</time>
      </trkpt>
      <trkpt lat="43.74567" lon="7.18213">
        <ele>50.7</ele>
        <time>2021-09-20T14:04:27Z</time>
      </trkpt>
      <trkpt lat="43.74562" lon="7.18211">
        <ele>50.7</ele>
        <time>2021-09-20T14:04:28Z</time>
      </trkpt>
      <trkpt lat="43.74557" lon="7.18208">
        <ele>50.7</ele>
        <time>2021-09-20T14:04:29Z</time>
      </trkpt>
      <trkpt lat="43.74548" lon="7.18203">
        <ele>50.6</ele>
        <time>2021-09-20T14:04:31Z</time>
      </trkpt>
      <trkpt lat="43.74539" lon="7.18196">
        <ele>50.5</ele>
        <time>2021-09-20T14:04:33Z</time>
      </trkpt>
      <trkpt lat="43.74533" lon="7.18193">
        <ele>50.5</ele>
        <time>2021-09-20T14:04:34Z</time>
      </trkpt>
      <trkpt lat="43.74526" lon="7.18189">
        <ele>50.4</ele>
        <time>2021-09-20T14:04:36Z</time>
      </trkpt>
      <trkpt lat="43.74521" lon="7.18185">
        <ele>50.4</ele>
        <time>2021-09-20T14:04:37Z</time>
      </trkpt>
      <trkpt lat="43.74513" lon="7.18178">
        <ele>50.3</ele>
        <time>2021-09-20T14:04:39Z</time>
      </trkpt>
      <trkpt lat="43.74507" lon="7.18175">
        <ele>50.3</ele>
        <time>2021-09-20T14:04:40Z</time>
      </trkpt>
      <trkpt lat="43.74497" lon="7.18169">
        <ele>50.2</ele>
        <time>2021-09-20T14:04:42Z</time>
      </trkpt>
      <trkpt lat="43.74492" lon="7.18166">
        <ele>50.2</ele>
        <time>2021-09-20T14:04:43Z</time>
      </trkpt>
      <trkpt lat="43.74488" lon="7.18164">
        <ele>50.2</ele>
        <time>2021-09-20T14:04:45Z</time>
      </trkpt>
      <trkpt lat="43.74482" lon="7.1816">
        <ele>50.2</ele>
        <time>2021-09-20T14:04:46Z</time>
      </trkpt>
      <trkpt lat="43.74478" lon="7.18157">
        <ele>50.1</ele>
        <time>2021-09-20T14:04:48Z</time>
      </trkpt>
      <trkpt lat="43.74473" lon="7.18154">
        <ele>50.1</ele>
        <time>2021-09-20T14:04:49Z</time>
      </trkpt>
      <trkpt lat="43.74466" lon="7.18149">
        <ele>50.1</ele>
        <time>2021-09-20T14:04:51Z</time>
      </trkpt>
      <trkpt lat="43.74462" lon="7.18148">
        <ele>50</ele>
        <time>2021-09-20T14:04:52Z</time>
      </trkpt>
      <trkpt lat="43.74457" lon="7.18145">
        <ele>50</ele>
        <time>2021-09-20T14:04:53Z</time>
      </trkpt>
      <trkpt lat="43.74452" lon="7.18143">
        <ele>50</ele>
        <time>2021-09-20T14:04:54Z</time>
      </trkpt>
      <trkpt lat="43.74448" lon="7.1814">
        <ele>50</ele>
        <time>2021-09-20T14:04:55Z</time>
      </trkpt>
      <trkpt lat="43.74441" lon="7.18138">
        <ele>49.9</ele>
        <time>2021-09-20T14:04:56Z</time>
      </trkpt>
      <trkpt lat="43.74429" lon="7.18131">
        <ele>49.9</ele>
        <time>2021-09-20T14:04:58Z</time>
      </trkpt>
      <trkpt lat="43.7442" lon="7.18126">
        <ele>49.8</ele>
        <time>2021-09-20T14:05:00Z</time>
      </trkpt>
      <trkpt lat="43.74416" lon="7.18124">
        <ele>49.8</ele>
        <time>2021-09-20T14:05:01Z</time>
      </trkpt>
      <trkpt lat="43.74411" lon="7.1812">
        <ele>49.7</ele>
        <time>2021-09-20T14:05:03Z</time>
      </trkpt>
      <trkpt lat="43.74406" lon="7.18116">
        <ele>49.7</ele>
        <time>2021-09-20T14:05:05Z</time>
      </trkpt>
      <trkpt lat="43.74402" lon="7.18114">
        <ele>49.6</ele>
        <time>2021-09-20T14:05:06Z</time>
      </trkpt>
      <trkpt lat="43.74398" lon="7.18113">
        <ele>49.6</ele>
        <time>2021-09-20T14:05:07Z</time>
      </trkpt>
      <trkpt lat="43.74395" lon="7.18111">
        <ele>49.6</ele>
        <time>2021-09-20T14:05:08Z</time>
      </trkpt>
      <trkpt lat="43.74391" lon="7.18109">
        <ele>49.5</ele>
        <time>2021-09-20T14:05:09Z</time>
      </trkpt>
      <trkpt lat="43.74384" lon="7.18107">
        <ele>49.5</ele>
        <time>2021-09-20T14:05:11Z</time>
      </trkpt>
      <trkpt lat="43.7438" lon="7.18106">
        <ele>49.4</ele>
        <time>2021-09-20T14:05:12Z</time>
      </trkpt>
      <trkpt lat="43.74375" lon="7.18105">
        <ele>49.4</ele>
        <time>2021-09-20T14:05:13Z</time>
      </trkpt>
      <trkpt lat="43.74365" lon="7.18105">
        <ele>49.3</ele>
        <time>2021-09-20T14:05:15Z</time>
      </trkpt>
      <trkpt lat="43.7436" lon="7.18104">
        <ele>49.3</ele>
        <time>2021-09-20T14:05:16Z</time>
      </trkpt>
      <trkpt lat="43.74357" lon="7.18104">
        <ele>49.2</ele>
        <time>2021-09-20T14:05:17Z</time>
      </trkpt>
      <trkpt lat="43.74351" lon="7.18104">
        <ele>49.2</ele>
        <time>2021-09-20T14:05:18Z</time>
      </trkpt>
      <trkpt lat="43.74347" lon="7.18102">
        <ele>49.2</ele>
        <time>2021-09-20T14:05:19Z</time>
      </trkpt>
      <trkpt lat="43.74345" lon="7.18101">
        <ele>49.2</ele>
        <time>2021-09-20T14:05:20Z</time>
      </trkpt>
      <trkpt lat="43.74341" lon="7.181">
        <ele>49.1</ele>
        <time>2021-09-20T14:05:21Z</time>
      </trkpt>
      <trkpt lat="43.74339" lon="7.18099">
        <ele>49.1</ele>
        <time>2021-09-20T14:05:23Z</time>
      </trkpt>
      <trkpt lat="43.74336" lon="7.18098">
        <ele>49.1</ele>
        <time>2021-09-20T14:05:24Z</time>
      </trkpt>
      <trkpt lat="43.74332" lon="7.18096">
        <ele>49.1</ele>
        <time>2021-09-20T14:05:25Z</time>
      </trkpt>
      <trkpt lat="43.7433" lon="7.18095">
        <ele>49.1</ele>
        <time>2021-09-20T14:05:26Z</time>
      </trkpt>
      <trkpt lat="43.74327" lon="7.18093">
        <ele>49</ele>
        <time>2021-09-20T14:05:27Z</time>
      </trkpt>
      <trkpt lat="43.74323" lon="7.1809">
        <ele>49</ele>
        <time>2021-09-20T14:05:28Z</time>
      </trkpt>
      <trkpt lat="43.74316" lon="7.18084">
        <ele>49</ele>
        <time>2021-09-20T14:05:29Z</time>
      </trkpt>
      <trkpt lat="43.74304" lon="7.18078">
        <ele>48.9</ele>
        <time>2021-09-20T14:05:31Z</time>
      </trkpt>
      <trkpt lat="43.74294" lon="7.18075">
        <ele>48.8</ele>
        <time>2021-09-20T14:05:33Z</time>
      </trkpt>
      <trkpt lat="43.7429" lon="7.18073">
        <ele>48.8</ele>
        <time>2021-09-20T14:05:34Z</time>
      </trkpt>
      <trkpt lat="43.74285" lon="7.1807">
        <ele>48.7</ele>
        <time>2021-09-20T14:05:35Z</time>
      </trkpt>
      <trkpt lat="43.74278" lon="7.18065">
        <ele>48.7</ele>
        <time>2021-09-20T14:05:37Z</time>
      </trkpt>
      <trkpt lat="43.74274" lon="7.18066">
        <ele>48.7</ele>
        <time>2021-09-20T14:05:38Z</time>
      </trkpt>
      <trkpt lat="43.74268" lon="7.18067">
        <ele>48.6</ele>
        <time>2021-09-20T14:05:39Z</time>
      </trkpt>
      <trkpt lat="43.74264" lon="7.18065">
        <ele>48.6</ele>
        <time>2021-09-20T14:05:40Z</time>
      </trkpt>
      <trkpt lat="43.74259" lon="7.18063">
        <ele>48.6</ele>
        <time>2021-09-20T14:05:41Z</time>
      </trkpt>
      <trkpt lat="43.74254" lon="7.18061">
        <ele>48.6</ele>
        <time>2021-09-20T14:05:42Z</time>
      </trkpt>
      <trkpt lat="43.74247" lon="7.18059">
        <ele>48.5</ele>
        <time>2021-09-20T14:05:43Z</time>
      </trkpt>
      <trkpt lat="43.7424" lon="7.18058">
        <ele>48.5</ele>
        <time>2021-09-20T14:05:45Z</time>
      </trkpt>
      <trkpt lat="43.74232" lon="7.18057">
        <ele>48.5</ele>
        <time>2021-09-20T14:05:46Z</time>
      </trkpt>
      <trkpt lat="43.74226" lon="7.18057">
        <ele>48.5</ele>
        <time>2021-09-20T14:05:47Z</time>
      </trkpt>
      <trkpt lat="43.7422" lon="7.18056">
        <ele>48.5</ele>
        <time>2021-09-20T14:05:49Z</time>
      </trkpt>
      <trkpt lat="43.74216" lon="7.18053">
        <ele>48.5</ele>
        <time>2021-09-20T14:05:50Z</time>
      </trkpt>
      <trkpt lat="43.74212" lon="7.18051">
        <ele>48.5</ele>
        <time>2021-09-20T14:05:51Z</time>
      </trkpt>
      <trkpt lat="43.74204" lon="7.18048">
        <ele>48.4</ele>
        <time>2021-09-20T14:05:53Z</time>
      </trkpt>
      <trkpt lat="43.74199" lon="7.18047">
        <ele>48.4</ele>
        <time>2021-09-20T14:05:54Z</time>
      </trkpt>
      <trkpt lat="43.74193" lon="7.18046">
        <ele>48.4</ele>
        <time>2021-09-20T14:05:55Z</time>
      </trkpt>
      <trkpt lat="43.74188" lon="7.18044">
        <ele>48.3</ele>
        <time>2021-09-20T14:05:56Z</time>
      </trkpt>
      <trkpt lat="43.7418" lon="7.18041">
        <ele>48.3</ele>
        <time>2021-09-20T14:05:58Z</time>
      </trkpt>
      <trkpt lat="43.74175" lon="7.18039">
        <ele>48.3</ele>
        <time>2021-09-20T14:05:59Z</time>
      </trkpt>
      <trkpt lat="43.74165" lon="7.18036">
        <ele>48.3</ele>
        <time>2021-09-20T14:06:01Z</time>
      </trkpt>
      <trkpt lat="43.74157" lon="7.18035">
        <ele>48.2</ele>
        <time>2021-09-20T14:06:03Z</time>
      </trkpt>
      <trkpt lat="43.74154" lon="7.18035">
        <ele>48.2</ele>
        <time>2021-09-20T14:06:04Z</time>
      </trkpt>
      <trkpt lat="43.74149" lon="7.18034">
        <ele>48.2</ele>
        <time>2021-09-20T14:06:05Z</time>
      </trkpt>
      <trkpt lat="43.74145" lon="7.18033">
        <ele>48.2</ele>
        <time>2021-09-20T14:06:06Z</time>
      </trkpt>
      <trkpt lat="43.74137" lon="7.18031">
        <ele>48.2</ele>
        <time>2021-09-20T14:06:08Z</time>
      </trkpt>
      <trkpt lat="43.74132" lon="7.18029">
        <ele>48.2</ele>
        <time>2021-09-20T14:06:09Z</time>
      </trkpt>
      <trkpt lat="43.74126" lon="7.18026">
        <ele>48.2</ele>
        <time>2021-09-20T14:06:11Z</time>
      </trkpt>
      <trkpt lat="43.74122" lon="7.18024">
        <ele>48.2</ele>
        <time>2021-09-20T14:06:12Z</time>
      </trkpt>
      <trkpt lat="43.74115" lon="7.18021">
        <ele>48.1</ele>
        <time>2021-09-20T14:06:14Z</time>
      </trkpt>
      <trkpt lat="43.74111" lon="7.18019">
        <ele>48.1</ele>
        <time>2021-09-20T14:06:15Z</time>
      </trkpt>
      <trkpt lat="43.74103" lon="7.18017">
        <ele>48.1</ele>
        <time>2021-09-20T14:06:17Z</time>
      </trkpt>
      <trkpt lat="43.74095" lon="7.18016">
        <ele>48</ele>
        <time>2021-09-20T14:06:19Z</time>
      </trkpt>
      <trkpt lat="43.74083" lon="7.18015">
        <ele>47.9</ele>
        <time>2021-09-20T14:06:21Z</time>
      </trkpt>
      <trkpt lat="43.74074" lon="7.18013">
        <ele>47.8</ele>
        <time>2021-09-20T14:06:23Z</time>
      </trkpt>
      <trkpt lat="43.74066" lon="7.18012">
        <ele>47.8</ele>
        <time>2021-09-20T14:06:24Z</time>
      </trkpt>
      <trkpt lat="43.7406" lon="7.18012">
        <ele>47.8</ele>
        <time>2021-09-20T14:06:25Z</time>
      </trkpt>
      <trkpt lat="43.74053" lon="7.18009">
        <ele>47.7</ele>
        <time>2021-09-20T14:06:27Z</time>
      </trkpt>
      <trkpt lat="43.74046" lon="7.18009">
        <ele>47.7</ele>
        <time>2021-09-20T14:06:28Z</time>
      </trkpt>
      <trkpt lat="43.7404" lon="7.18009">
        <ele>47.6</ele>
        <time>2021-09-20T14:06:29Z</time>
      </trkpt>
      <trkpt lat="43.74036" lon="7.18007">
        <ele>47.6</ele>
        <time>2021-09-20T14:06:30Z</time>
      </trkpt>
      <trkpt lat="43.74028" lon="7.18005">
        <ele>47.5</ele>
        <time>2021-09-20T14:06:33Z</time>
      </trkpt>
      <trkpt lat="43.74021" lon="7.18005">
        <ele>47.4</ele>
        <time>2021-09-20T14:06:34Z</time>
      </trkpt>
      <trkpt lat="43.74017" lon="7.18002">
        <ele>47.4</ele>
        <time>2021-09-20T14:06:35Z</time>
      </trkpt>
      <trkpt lat="43.7401" lon="7.18">
        <ele>47.3</ele>
        <time>2021-09-20T14:06:37Z</time>
      </trkpt>
      <trkpt lat="43.74004" lon="7.17999">
        <ele>47.3</ele>
        <time>2021-09-20T14:06:38Z</time>
      </trkpt>
      <trkpt lat="43.73993" lon="7.17995">
        <ele>47.2</ele>
        <time>2021-09-20T14:06:40Z</time>
      </trkpt>
      <trkpt lat="43.73988" lon="7.17993">
        <ele>47.2</ele>
        <time>2021-09-20T14:06:41Z</time>
      </trkpt>
      <trkpt lat="43.73983" lon="7.17992">
        <ele>47.2</ele>
        <time>2021-09-20T14:06:42Z</time>
      </trkpt>
      <trkpt lat="43.73973" lon="7.17989">
        <ele>47.1</ele>
        <time>2021-09-20T14:06:44Z</time>
      </trkpt>
      <trkpt lat="43.73963" lon="7.17985">
        <ele>47.1</ele>
        <time>2021-09-20T14:06:46Z</time>
      </trkpt>
      <trkpt lat="43.73958" lon="7.17983">
        <ele>47.1</ele>
        <time>2021-09-20T14:06:47Z</time>
      </trkpt>
      <trkpt lat="43.73956" lon="7.1798">
        <ele>47.1</ele>
        <time>2021-09-20T14:06:48Z</time>
      </trkpt>
      <trkpt lat="43.73951" lon="7.17979">
        <ele>47.1</ele>
        <time>2021-09-20T14:06:50Z</time>
      </trkpt>
      <trkpt lat="43.73941" lon="7.17979">
        <ele>47.1</ele>
        <time>2021-09-20T14:06:52Z</time>
      </trkpt>
      <trkpt lat="43.73935" lon="7.17979">
        <ele>47.1</ele>
        <time>2021-09-20T14:06:53Z</time>
      </trkpt>
      <trkpt lat="43.7393" lon="7.17978">
        <ele>47.1</ele>
        <time>2021-09-20T14:06:54Z</time>
      </trkpt>
      <trkpt lat="43.7392" lon="7.17978">
        <ele>47.2</ele>
        <time>2021-09-20T14:06:56Z</time>
      </trkpt>
      <trkpt lat="43.73916" lon="7.17978">
        <ele>47.2</ele>
        <time>2021-09-20T14:06:57Z</time>
      </trkpt>
      <trkpt lat="43.73912" lon="7.17978">
        <ele>47.2</ele>
        <time>2021-09-20T14:06:58Z</time>
      </trkpt>
      <trkpt lat="43.73907" lon="7.17978">
        <ele>47.2</ele>
        <time>2021-09-20T14:06:59Z</time>
      </trkpt>
      <trkpt lat="43.73903" lon="7.17978">
        <ele>47.2</ele>
        <time>2021-09-20T14:07:00Z</time>
      </trkpt>
      <trkpt lat="43.73898" lon="7.17978">
        <ele>47.2</ele>
        <time>2021-09-20T14:07:01Z</time>
      </trkpt>
      <trkpt lat="43.73893" lon="7.17977">
        <ele>47.3</ele>
        <time>2021-09-20T14:07:03Z</time>
      </trkpt>
      <trkpt lat="43.73887" lon="7.17976">
        <ele>47.3</ele>
        <time>2021-09-20T14:07:04Z</time>
      </trkpt>
      <trkpt lat="43.73879" lon="7.17975">
        <ele>47.3</ele>
        <time>2021-09-20T14:07:06Z</time>
      </trkpt>
      <trkpt lat="43.73874" lon="7.17975">
        <ele>47.3</ele>
        <time>2021-09-20T14:07:07Z</time>
      </trkpt>
      <trkpt lat="43.7387" lon="7.17975">
        <ele>47.3</ele>
        <time>2021-09-20T14:07:08Z</time>
      </trkpt>
      <trkpt lat="43.73867" lon="7.17975">
        <ele>47.4</ele>
        <time>2021-09-20T14:07:09Z</time>
      </trkpt>
      <trkpt lat="43.7386" lon="7.17976">
        <ele>47.4</ele>
        <time>2021-09-20T14:07:11Z</time>
      </trkpt>
      <trkpt lat="43.73854" lon="7.17977">
        <ele>47.4</ele>
        <time>2021-09-20T14:07:12Z</time>
      </trkpt>
      <trkpt lat="43.73844" lon="7.17977">
        <ele>47.4</ele>
        <time>2021-09-20T14:07:14Z</time>
      </trkpt>
      <trkpt lat="43.7384" lon="7.17978">
        <ele>47.4</ele>
        <time>2021-09-20T14:07:15Z</time>
      </trkpt>
      <trkpt lat="43.73835" lon="7.17981">
        <ele>47.4</ele>
        <time>2021-09-20T14:07:16Z</time>
      </trkpt>
      <trkpt lat="43.73828" lon="7.17981">
        <ele>47.5</ele>
        <time>2021-09-20T14:07:18Z</time>
      </trkpt>
      <trkpt lat="43.73825" lon="7.17981">
        <ele>47.5</ele>
        <time>2021-09-20T14:07:19Z</time>
      </trkpt>
      <trkpt lat="43.73821" lon="7.1798">
        <ele>47.5</ele>
        <time>2021-09-20T14:07:20Z</time>
      </trkpt>
      <trkpt lat="43.73816" lon="7.17978">
        <ele>47.5</ele>
        <time>2021-09-20T14:07:21Z</time>
      </trkpt>
      <trkpt lat="43.7381" lon="7.17977">
        <ele>47.5</ele>
        <time>2021-09-20T14:07:23Z</time>
      </trkpt>
      <trkpt lat="43.73803" lon="7.17976">
        <ele>47.5</ele>
        <time>2021-09-20T14:07:25Z</time>
      </trkpt>
      <trkpt lat="43.738" lon="7.17976">
        <ele>47.5</ele>
        <time>2021-09-20T14:07:26Z</time>
      </trkpt>
      <trkpt lat="43.73797" lon="7.17975">
        <ele>47.5</ele>
        <time>2021-09-20T14:07:27Z</time>
      </trkpt>
      <trkpt lat="43.73794" lon="7.17974">
        <ele>47.5</ele>
        <time>2021-09-20T14:07:28Z</time>
      </trkpt>
      <trkpt lat="43.73791" lon="7.17974">
        <ele>47.5</ele>
        <time>2021-09-20T14:07:29Z</time>
      </trkpt>
      <trkpt lat="43.73788" lon="7.17972">
        <ele>47.5</ele>
        <time>2021-09-20T14:07:30Z</time>
      </trkpt>
      <trkpt lat="43.73786" lon="7.17971">
        <ele>47.5</ele>
        <time>2021-09-20T14:07:31Z</time>
      </trkpt>
      <trkpt lat="43.73783" lon="7.17969">
        <ele>47.5</ele>
        <time>2021-09-20T14:07:32Z</time>
      </trkpt>
      <trkpt lat="43.73781" lon="7.17969">
        <ele>47.4</ele>
        <time>2021-09-20T14:07:33Z</time>
      </trkpt>
      <trkpt lat="43.73778" lon="7.17968">
        <ele>47.4</ele>
        <time>2021-09-20T14:07:34Z</time>
      </trkpt>
      <trkpt lat="43.73775" lon="7.17966">
        <ele>47.4</ele>
        <time>2021-09-20T14:07:36Z</time>
      </trkpt>
      <trkpt lat="43.73766" lon="7.17966">
        <ele>47.3</ele>
        <time>2021-09-20T14:07:38Z</time>
      </trkpt>
      <trkpt lat="43.73761" lon="7.17966">
        <ele>47.3</ele>
        <time>2021-09-20T14:07:39Z</time>
      </trkpt>
      <trkpt lat="43.73756" lon="7.17966">
        <ele>47.2</ele>
        <time>2021-09-20T14:07:40Z</time>
      </trkpt>
      <trkpt lat="43.73748" lon="7.17967">
        <ele>47.1</ele>
        <time>2021-09-20T14:07:41Z</time>
      </trkpt>
      <trkpt lat="43.73738" lon="7.17966">
        <ele>47</ele>
        <time>2021-09-20T14:07:43Z</time>
      </trkpt>
      <trkpt lat="43.73735" lon="7.17966">
        <ele>46.9</ele>
        <time>2021-09-20T14:07:44Z</time>
      </trkpt>
      <trkpt lat="43.73731" lon="7.17966">
        <ele>46.9</ele>
        <time>2021-09-20T14:07:45Z</time>
      </trkpt>
      <trkpt lat="43.73718" lon="7.17967">
        <ele>46.6</ele>
        <time>2021-09-20T14:07:47Z</time>
      </trkpt>
      <trkpt lat="43.73712" lon="7.17968">
        <ele>46.6</ele>
        <time>2021-09-20T14:07:48Z</time>
      </trkpt>
      <trkpt lat="43.73707" lon="7.17969">
        <ele>46.5</ele>
        <time>2021-09-20T14:07:49Z</time>
      </trkpt>
      <trkpt lat="43.73702" lon="7.17969">
        <ele>46.4</ele>
        <time>2021-09-20T14:07:50Z</time>
      </trkpt>
      <trkpt lat="43.73691" lon="7.17972">
        <ele>46.2</ele>
        <time>2021-09-20T14:07:52Z</time>
      </trkpt>
      <trkpt lat="43.7368" lon="7.17971">
        <ele>45.9</ele>
        <time>2021-09-20T14:07:54Z</time>
      </trkpt>
      <trkpt lat="43.7367" lon="7.17971">
        <ele>45.7</ele>
        <time>2021-09-20T14:07:56Z</time>
      </trkpt>
      <trkpt lat="43.73658" lon="7.17972">
        <ele>45.5</ele>
        <time>2021-09-20T14:07:58Z</time>
      </trkpt>
      <trkpt lat="43.73649" lon="7.17973">
        <ele>45.3</ele>
        <time>2021-09-20T14:08:00Z</time>
      </trkpt>
      <trkpt lat="43.73643" lon="7.17974">
        <ele>45.3</ele>
        <time>2021-09-20T14:08:01Z</time>
      </trkpt>
      <trkpt lat="43.73639" lon="7.17975">
        <ele>45.2</ele>
        <time>2021-09-20T14:08:02Z</time>
      </trkpt>
      <trkpt lat="43.73632" lon="7.17978">
        <ele>45.1</ele>
        <time>2021-09-20T14:08:04Z</time>
      </trkpt>
      <trkpt lat="43.73622" lon="7.17979">
        <ele>45</ele>
        <time>2021-09-20T14:08:06Z</time>
      </trkpt>
      <trkpt lat="43.73617" lon="7.17979">
        <ele>45</ele>
        <time>2021-09-20T14:08:07Z</time>
      </trkpt>
      <trkpt lat="43.73606" lon="7.17982">
        <ele>44.9</ele>
        <time>2021-09-20T14:08:09Z</time>
      </trkpt>
      <trkpt lat="43.736" lon="7.17983">
        <ele>44.9</ele>
        <time>2021-09-20T14:08:10Z</time>
      </trkpt>
      <trkpt lat="43.73587" lon="7.17984">
        <ele>44.8</ele>
        <time>2021-09-20T14:08:12Z</time>
      </trkpt>
      <trkpt lat="43.73581" lon="7.17985">
        <ele>44.8</ele>
        <time>2021-09-20T14:08:13Z</time>
      </trkpt>
      <trkpt lat="43.7357" lon="7.17986">
        <ele>44.8</ele>
        <time>2021-09-20T14:08:15Z</time>
      </trkpt>
      <trkpt lat="43.73566" lon="7.17986">
        <ele>44.8</ele>
        <time>2021-09-20T14:08:16Z</time>
      </trkpt>
      <trkpt lat="43.7356" lon="7.17989">
        <ele>44.8</ele>
        <time>2021-09-20T14:08:18Z</time>
      </trkpt>
      <trkpt lat="43.73552" lon="7.17988">
        <ele>44.8</ele>
        <time>2021-09-20T14:08:19Z</time>
      </trkpt>
      <trkpt lat="43.73547" lon="7.17992">
        <ele>44.9</ele>
        <time>2021-09-20T14:08:20Z</time>
      </trkpt>
      <trkpt lat="43.7354" lon="7.17994">
        <ele>44.9</ele>
        <time>2021-09-20T14:08:22Z</time>
      </trkpt>
      <trkpt lat="43.7353" lon="7.17993">
        <ele>44.9</ele>
        <time>2021-09-20T14:08:24Z</time>
      </trkpt>
      <trkpt lat="43.73524" lon="7.17993">
        <ele>45</ele>
        <time>2021-09-20T14:08:25Z</time>
      </trkpt>
      <trkpt lat="43.73519" lon="7.17993">
        <ele>45</ele>
        <time>2021-09-20T14:08:26Z</time>
      </trkpt>
      <trkpt lat="43.73512" lon="7.17993">
        <ele>45</ele>
        <time>2021-09-20T14:08:28Z</time>
      </trkpt>
      <trkpt lat="43.73508" lon="7.17994">
        <ele>44.9</ele>
        <time>2021-09-20T14:08:29Z</time>
      </trkpt>
      <trkpt lat="43.73504" lon="7.17995">
        <ele>44.9</ele>
        <time>2021-09-20T14:08:30Z</time>
      </trkpt>
      <trkpt lat="43.735" lon="7.17996">
        <ele>44.9</ele>
        <time>2021-09-20T14:08:31Z</time>
      </trkpt>
      <trkpt lat="43.73493" lon="7.17997">
        <ele>44.8</ele>
        <time>2021-09-20T14:08:33Z</time>
      </trkpt>
      <trkpt lat="43.73485" lon="7.17998">
        <ele>44.7</ele>
        <time>2021-09-20T14:08:35Z</time>
      </trkpt>
      <trkpt lat="43.7348" lon="7.17998">
        <ele>44.7</ele>
        <time>2021-09-20T14:08:36Z</time>
      </trkpt>
      <trkpt lat="43.7347" lon="7.17999">
        <ele>44.5</ele>
        <time>2021-09-20T14:08:38Z</time>
      </trkpt>
      <trkpt lat="43.7346" lon="7.18">
        <ele>44.4</ele>
        <time>2021-09-20T14:08:40Z</time>
      </trkpt>
      <trkpt lat="43.73454" lon="7.18001">
        <ele>44.4</ele>
        <time>2021-09-20T14:08:41Z</time>
      </trkpt>
      <trkpt lat="43.73444" lon="7.18002">
        <ele>44.4</ele>
        <time>2021-09-20T14:08:43Z</time>
      </trkpt>
      <trkpt lat="43.7344" lon="7.18003">
        <ele>44.4</ele>
        <time>2021-09-20T14:08:44Z</time>
      </trkpt>
      <trkpt lat="43.73432" lon="7.18004">
        <ele>44.5</ele>
        <time>2021-09-20T14:08:46Z</time>
      </trkpt>
      <trkpt lat="43.73426" lon="7.18006">
        <ele>44.5</ele>
        <time>2021-09-20T14:08:47Z</time>
      </trkpt>
      <trkpt lat="43.73417" lon="7.18008">
        <ele>44.6</ele>
        <time>2021-09-20T14:08:49Z</time>
      </trkpt>
      <trkpt lat="43.73412" lon="7.18013">
        <ele>44.6</ele>
        <time>2021-09-20T14:08:50Z</time>
      </trkpt>
      <trkpt lat="43.73401" lon="7.18008">
        <ele>44.7</ele>
        <time>2021-09-20T14:08:52Z</time>
      </trkpt>
      <trkpt lat="43.73396" lon="7.18008">
        <ele>44.7</ele>
        <time>2021-09-20T14:08:53Z</time>
      </trkpt>
      <trkpt lat="43.73389" lon="7.18006">
        <ele>44.7</ele>
        <time>2021-09-20T14:08:54Z</time>
      </trkpt>
      <trkpt lat="43.73379" lon="7.18008">
        <ele>44.6</ele>
        <time>2021-09-20T14:08:56Z</time>
      </trkpt>
      <trkpt lat="43.73374" lon="7.18009">
        <ele>44.6</ele>
        <time>2021-09-20T14:08:57Z</time>
      </trkpt>
      <trkpt lat="43.7337" lon="7.18011">
        <ele>44.6</ele>
        <time>2021-09-20T14:08:58Z</time>
      </trkpt>
      <trkpt lat="43.73366" lon="7.18012">
        <ele>44.6</ele>
        <time>2021-09-20T14:08:59Z</time>
      </trkpt>
      <trkpt lat="43.73361" lon="7.18012">
        <ele>44.5</ele>
        <time>2021-09-20T14:09:00Z</time>
      </trkpt>
      <trkpt lat="43.73355" lon="7.18013">
        <ele>44.5</ele>
        <time>2021-09-20T14:09:02Z</time>
      </trkpt>
      <trkpt lat="43.73346" lon="7.18017">
        <ele>44.4</ele>
        <time>2021-09-20T14:09:04Z</time>
      </trkpt>
      <trkpt lat="43.73341" lon="7.18018">
        <ele>44.4</ele>
        <time>2021-09-20T14:09:05Z</time>
      </trkpt>
      <trkpt lat="43.73329" lon="7.18018">
        <ele>44.3</ele>
        <time>2021-09-20T14:09:07Z</time>
      </trkpt>
      <trkpt lat="43.73324" lon="7.18018">
        <ele>44.2</ele>
        <time>2021-09-20T14:09:08Z</time>
      </trkpt>
      <trkpt lat="43.73316" lon="7.1802">
        <ele>44.2</ele>
        <time>2021-09-20T14:09:10Z</time>
      </trkpt>
      <trkpt lat="43.73315" lon="7.18024">
        <ele>44.2</ele>
        <time>2021-09-20T14:09:11Z</time>
      </trkpt>
      <trkpt lat="43.73308" lon="7.18022">
        <ele>44.1</ele>
        <time>2021-09-20T14:09:12Z</time>
      </trkpt>
      <trkpt lat="43.73298" lon="7.18023">
        <ele>44.1</ele>
        <time>2021-09-20T14:09:14Z</time>
      </trkpt>
      <trkpt lat="43.73294" lon="7.18023">
        <ele>44.1</ele>
        <time>2021-09-20T14:09:15Z</time>
      </trkpt>
      <trkpt lat="43.73292" lon="7.18024">
        <ele>44.1</ele>
        <time>2021-09-20T14:09:16Z</time>
      </trkpt>
      <trkpt lat="43.73286" lon="7.18025">
        <ele>44.1</ele>
        <time>2021-09-20T14:09:17Z</time>
      </trkpt>
      <trkpt lat="43.73277" lon="7.18025">
        <ele>44.1</ele>
        <time>2021-09-20T14:09:19Z</time>
      </trkpt>
      <trkpt lat="43.73267" lon="7.18027">
        <ele>44.1</ele>
        <time>2021-09-20T14:09:21Z</time>
      </trkpt>
      <trkpt lat="43.73263" lon="7.18027">
        <ele>44</ele>
        <time>2021-09-20T14:09:22Z</time>
      </trkpt>
      <trkpt lat="43.73259" lon="7.18028">
        <ele>44</ele>
        <time>2021-09-20T14:09:23Z</time>
      </trkpt>
      <trkpt lat="43.73253" lon="7.18029">
        <ele>44</ele>
        <time>2021-09-20T14:09:25Z</time>
      </trkpt>
      <trkpt lat="43.73248" lon="7.1803">
        <ele>43.9</ele>
        <time>2021-09-20T14:09:26Z</time>
      </trkpt>
      <trkpt lat="43.73244" lon="7.18031">
        <ele>43.9</ele>
        <time>2021-09-20T14:09:27Z</time>
      </trkpt>
      <trkpt lat="43.73239" lon="7.18031">
        <ele>43.8</ele>
        <time>2021-09-20T14:09:28Z</time>
      </trkpt>
      <trkpt lat="43.73235" lon="7.18032">
        <ele>43.8</ele>
        <time>2021-09-20T14:09:29Z</time>
      </trkpt>
      <trkpt lat="43.73231" lon="7.18032">
        <ele>43.7</ele>
        <time>2021-09-20T14:09:30Z</time>
      </trkpt>
      <trkpt lat="43.73225" lon="7.18032">
        <ele>43.7</ele>
        <time>2021-09-20T14:09:32Z</time>
      </trkpt>
      <trkpt lat="43.73219" lon="7.18033">
        <ele>43.6</ele>
        <time>2021-09-20T14:09:33Z</time>
      </trkpt>
      <trkpt lat="43.73208" lon="7.18034">
        <ele>43.6</ele>
        <time>2021-09-20T14:09:35Z</time>
      </trkpt>
      <trkpt lat="43.73198" lon="7.18035">
        <ele>43.5</ele>
        <time>2021-09-20T14:09:37Z</time>
      </trkpt>
      <trkpt lat="43.73189" lon="7.18036">
        <ele>43.5</ele>
        <time>2021-09-20T14:09:39Z</time>
      </trkpt>
      <trkpt lat="43.73182" lon="7.18037">
        <ele>43.4</ele>
        <time>2021-09-20T14:09:41Z</time>
      </trkpt>
      <trkpt lat="43.73178" lon="7.18038">
        <ele>43.4</ele>
        <time>2021-09-20T14:09:42Z</time>
      </trkpt>
      <trkpt lat="43.73175" lon="7.18039">
        <ele>43.4</ele>
        <time>2021-09-20T14:09:43Z</time>
      </trkpt>
      <trkpt lat="43.7317" lon="7.1804">
        <ele>43.4</ele>
        <time>2021-09-20T14:09:44Z</time>
      </trkpt>
      <trkpt lat="43.73163" lon="7.18042">
        <ele>43.3</ele>
        <time>2021-09-20T14:09:46Z</time>
      </trkpt>
      <trkpt lat="43.73166" lon="7.18043">
        <ele>43.3</ele>
        <time>2021-09-20T14:09:47Z</time>
      </trkpt>
      <trkpt lat="43.73155" lon="7.18042">
        <ele>43.2</ele>
        <time>2021-09-20T14:09:49Z</time>
      </trkpt>
      <trkpt lat="43.73145" lon="7.18043">
        <ele>43.1</ele>
        <time>2021-09-20T14:09:50Z</time>
      </trkpt>
      <trkpt lat="43.73137" lon="7.18043">
        <ele>43.1</ele>
        <time>2021-09-20T14:09:52Z</time>
      </trkpt>
      <trkpt lat="43.73132" lon="7.18045">
        <ele>43</ele>
        <time>2021-09-20T14:09:54Z</time>
      </trkpt>
      <trkpt lat="43.73124" lon="7.18047">
        <ele>43</ele>
        <time>2021-09-20T14:09:55Z</time>
      </trkpt>
      <trkpt lat="43.73115" lon="7.18048">
        <ele>42.9</ele>
        <time>2021-09-20T14:09:57Z</time>
      </trkpt>
      <trkpt lat="43.73112" lon="7.18046">
        <ele>42.9</ele>
        <time>2021-09-20T14:09:58Z</time>
      </trkpt>
      <trkpt lat="43.73103" lon="7.18048">
        <ele>42.8</ele>
        <time>2021-09-20T14:10:00Z</time>
      </trkpt>
      <trkpt lat="43.73095" lon="7.18051">
        <ele>42.7</ele>
        <time>2021-09-20T14:10:02Z</time>
      </trkpt>
      <trkpt lat="43.73085" lon="7.18054">
        <ele>42.7</ele>
        <time>2021-09-20T14:10:03Z</time>
      </trkpt>
      <trkpt lat="43.73078" lon="7.18056">
        <ele>42.6</ele>
        <time>2021-09-20T14:10:05Z</time>
      </trkpt>
      <trkpt lat="43.73072" lon="7.18057">
        <ele>42.6</ele>
        <time>2021-09-20T14:10:06Z</time>
      </trkpt>
      <trkpt lat="43.73067" lon="7.18057">
        <ele>42.6</ele>
        <time>2021-09-20T14:10:07Z</time>
      </trkpt>
      <trkpt lat="43.73056" lon="7.18058">
        <ele>42.6</ele>
        <time>2021-09-20T14:10:09Z</time>
      </trkpt>
      <trkpt lat="43.7305" lon="7.18059">
        <ele>42.6</ele>
        <time>2021-09-20T14:10:10Z</time>
      </trkpt>
      <trkpt lat="43.73044" lon="7.1806">
        <ele>42.5</ele>
        <time>2021-09-20T14:10:11Z</time>
      </trkpt>
      <trkpt lat="43.73038" lon="7.18059">
        <ele>42.5</ele>
        <time>2021-09-20T14:10:12Z</time>
      </trkpt>
      <trkpt lat="43.73028" lon="7.18059">
        <ele>42.4</ele>
        <time>2021-09-20T14:10:14Z</time>
      </trkpt>
      <trkpt lat="43.73018" lon="7.1806">
        <ele>42.4</ele>
        <time>2021-09-20T14:10:16Z</time>
      </trkpt>
      <trkpt lat="43.73014" lon="7.18061">
        <ele>42.4</ele>
        <time>2021-09-20T14:10:17Z</time>
      </trkpt>
      <trkpt lat="43.73009" lon="7.18062">
        <ele>42.3</ele>
        <time>2021-09-20T14:10:18Z</time>
      </trkpt>
      <trkpt lat="43.73" lon="7.18062">
        <ele>42.2</ele>
        <time>2021-09-20T14:10:20Z</time>
      </trkpt>
      <trkpt lat="43.72989" lon="7.18064">
        <ele>42.2</ele>
        <time>2021-09-20T14:10:22Z</time>
      </trkpt>
      <trkpt lat="43.72985" lon="7.18064">
        <ele>42.1</ele>
        <time>2021-09-20T14:10:23Z</time>
      </trkpt>
      <trkpt lat="43.72976" lon="7.18065">
        <ele>42.1</ele>
        <time>2021-09-20T14:10:25Z</time>
      </trkpt>
      <trkpt lat="43.72968" lon="7.18065">
        <ele>42</ele>
        <time>2021-09-20T14:10:27Z</time>
      </trkpt>
      <trkpt lat="43.72962" lon="7.18064">
        <ele>42</ele>
        <time>2021-09-20T14:10:29Z</time>
      </trkpt>
      <trkpt lat="43.72952" lon="7.18066">
        <ele>41.9</ele>
        <time>2021-09-20T14:10:31Z</time>
      </trkpt>
      <trkpt lat="43.7294" lon="7.18068">
        <ele>41.8</ele>
        <time>2021-09-20T14:10:33Z</time>
      </trkpt>
      <trkpt lat="43.72935" lon="7.18068">
        <ele>41.8</ele>
        <time>2021-09-20T14:10:34Z</time>
      </trkpt>
      <trkpt lat="43.7293" lon="7.18069">
        <ele>41.8</ele>
        <time>2021-09-20T14:10:35Z</time>
      </trkpt>
      <trkpt lat="43.72921" lon="7.18072">
        <ele>41.7</ele>
        <time>2021-09-20T14:10:37Z</time>
      </trkpt>
      <trkpt lat="43.72917" lon="7.18073">
        <ele>41.6</ele>
        <time>2021-09-20T14:10:38Z</time>
      </trkpt>
      <trkpt lat="43.72909" lon="7.18076">
        <ele>41.6</ele>
        <time>2021-09-20T14:10:40Z</time>
      </trkpt>
      <trkpt lat="43.72905" lon="7.18079">
        <ele>41.5</ele>
        <time>2021-09-20T14:10:41Z</time>
      </trkpt>
      <trkpt lat="43.72901" lon="7.1808">
        <ele>41.4</ele>
        <time>2021-09-20T14:10:43Z</time>
      </trkpt>
      <trkpt lat="43.72897" lon="7.1808">
        <ele>41.3</ele>
        <time>2021-09-20T14:10:44Z</time>
      </trkpt>
      <trkpt lat="43.7289" lon="7.1808">
        <ele>41.2</ele>
        <time>2021-09-20T14:10:46Z</time>
      </trkpt>
      <trkpt lat="43.72883" lon="7.1808">
        <ele>41.1</ele>
        <time>2021-09-20T14:10:47Z</time>
      </trkpt>
      <trkpt lat="43.72878" lon="7.1808">
        <ele>41</ele>
        <time>2021-09-20T14:10:48Z</time>
      </trkpt>
      <trkpt lat="43.72869" lon="7.18079">
        <ele>40.8</ele>
        <time>2021-09-20T14:10:50Z</time>
      </trkpt>
      <trkpt lat="43.72868" lon="7.18079">
        <ele>40.8</ele>
        <time>2021-09-20T14:10:51Z</time>
      </trkpt>
      <trkpt lat="43.72865" lon="7.1808">
        <ele>40.7</ele>
        <time>2021-09-20T14:10:52Z</time>
      </trkpt>
      <trkpt lat="43.72857" lon="7.18078">
        <ele>40.5</ele>
        <time>2021-09-20T14:10:54Z</time>
      </trkpt>
      <trkpt lat="43.7285" lon="7.18081">
        <ele>40.4</ele>
        <time>2021-09-20T14:10:55Z</time>
      </trkpt>
      <trkpt lat="43.72838" lon="7.18082">
        <ele>40.2</ele>
        <time>2021-09-20T14:10:57Z</time>
      </trkpt>
      <trkpt lat="43.72825" lon="7.18083">
        <ele>40</ele>
        <time>2021-09-20T14:10:59Z</time>
      </trkpt>
      <trkpt lat="43.72814" lon="7.18085">
        <ele>39.8</ele>
        <time>2021-09-20T14:11:01Z</time>
      </trkpt>
      <trkpt lat="43.72802" lon="7.18089">
        <ele>39.7</ele>
        <time>2021-09-20T14:11:03Z</time>
      </trkpt>
      <trkpt lat="43.72797" lon="7.18091">
        <ele>39.6</ele>
        <time>2021-09-20T14:11:04Z</time>
      </trkpt>
      <trkpt lat="43.72792" lon="7.18093">
        <ele>39.6</ele>
        <time>2021-09-20T14:11:05Z</time>
      </trkpt>
      <trkpt lat="43.72787" lon="7.18093">
        <ele>39.6</ele>
        <time>2021-09-20T14:11:06Z</time>
      </trkpt>
      <trkpt lat="43.72783" lon="7.18093">
        <ele>39.6</ele>
        <time>2021-09-20T14:11:07Z</time>
      </trkpt>
      <trkpt lat="43.72778" lon="7.18093">
        <ele>39.6</ele>
        <time>2021-09-20T14:11:08Z</time>
      </trkpt>
      <trkpt lat="43.72774" lon="7.18093">
        <ele>39.6</ele>
        <time>2021-09-20T14:11:09Z</time>
      </trkpt>
      <trkpt lat="43.7277" lon="7.18094">
        <ele>39.6</ele>
        <time>2021-09-20T14:11:10Z</time>
      </trkpt>
      <trkpt lat="43.72764" lon="7.18095">
        <ele>39.6</ele>
        <time>2021-09-20T14:11:12Z</time>
      </trkpt>
      <trkpt lat="43.72754" lon="7.18096">
        <ele>39.6</ele>
        <time>2021-09-20T14:11:14Z</time>
      </trkpt>
      <trkpt lat="43.72747" lon="7.18095">
        <ele>39.6</ele>
        <time>2021-09-20T14:11:16Z</time>
      </trkpt>
      <trkpt lat="43.72741" lon="7.18096">
        <ele>39.6</ele>
        <time>2021-09-20T14:11:17Z</time>
      </trkpt>
      <trkpt lat="43.72736" lon="7.18098">
        <ele>39.6</ele>
        <time>2021-09-20T14:11:18Z</time>
      </trkpt>
      <trkpt lat="43.72729" lon="7.18098">
        <ele>39.6</ele>
        <time>2021-09-20T14:11:20Z</time>
      </trkpt>
      <trkpt lat="43.72727" lon="7.18094">
        <ele>39.6</ele>
        <time>2021-09-20T14:11:21Z</time>
      </trkpt>
      <trkpt lat="43.72722" lon="7.18099">
        <ele>39.6</ele>
        <time>2021-09-20T14:11:22Z</time>
      </trkpt>
      <trkpt lat="43.72712" lon="7.18101">
        <ele>39.6</ele>
        <time>2021-09-20T14:11:24Z</time>
      </trkpt>
      <trkpt lat="43.72709" lon="7.18101">
        <ele>39.6</ele>
        <time>2021-09-20T14:11:25Z</time>
      </trkpt>
      <trkpt lat="43.72702" lon="7.18102">
        <ele>39.6</ele>
        <time>2021-09-20T14:11:27Z</time>
      </trkpt>
      <trkpt lat="43.72696" lon="7.18104">
        <ele>39.6</ele>
        <time>2021-09-20T14:11:28Z</time>
      </trkpt>
      <trkpt lat="43.72691" lon="7.18105">
        <ele>39.6</ele>
        <time>2021-09-20T14:11:29Z</time>
      </trkpt>
      <trkpt lat="43.72686" lon="7.18106">
        <ele>39.6</ele>
        <time>2021-09-20T14:11:30Z</time>
      </trkpt>
      <trkpt lat="43.72683" lon="7.18108">
        <ele>39.7</ele>
        <time>2021-09-20T14:11:31Z</time>
      </trkpt>
      <trkpt lat="43.7268" lon="7.18108">
        <ele>39.7</ele>
        <time>2021-09-20T14:11:32Z</time>
      </trkpt>
      <trkpt lat="43.72673" lon="7.1811">
        <ele>39.7</ele>
        <time>2021-09-20T14:11:34Z</time>
      </trkpt>
      <trkpt lat="43.72667" lon="7.18112">
        <ele>39.7</ele>
        <time>2021-09-20T14:11:35Z</time>
      </trkpt>
      <trkpt lat="43.72657" lon="7.18115">
        <ele>39.8</ele>
        <time>2021-09-20T14:11:37Z</time>
      </trkpt>
      <trkpt lat="43.72652" lon="7.18116">
        <ele>39.8</ele>
        <time>2021-09-20T14:11:38Z</time>
      </trkpt>
      <trkpt lat="43.72645" lon="7.18122">
        <ele>39.8</ele>
        <time>2021-09-20T14:11:39Z</time>
      </trkpt>
      <trkpt lat="43.72642" lon="7.18123">
        <ele>39.9</ele>
        <time>2021-09-20T14:11:41Z</time>
      </trkpt>
      <trkpt lat="43.72638" lon="7.18122">
        <ele>39.9</ele>
        <time>2021-09-20T14:11:42Z</time>
      </trkpt>
      <trkpt lat="43.72634" lon="7.18122">
        <ele>39.9</ele>
        <time>2021-09-20T14:11:43Z</time>
      </trkpt>
      <trkpt lat="43.72627" lon="7.18125">
        <ele>39.9</ele>
        <time>2021-09-20T14:11:45Z</time>
      </trkpt>
      <trkpt lat="43.72624" lon="7.18129">
        <ele>39.8</ele>
        <time>2021-09-20T14:11:46Z</time>
      </trkpt>
      <trkpt lat="43.72621" lon="7.18131">
        <ele>39.8</ele>
        <time>2021-09-20T14:11:47Z</time>
      </trkpt>
      <trkpt lat="43.72616" lon="7.1813">
        <ele>39.7</ele>
        <time>2021-09-20T14:11:49Z</time>
      </trkpt>
      <trkpt lat="43.72615" lon="7.18129">
        <ele>39.7</ele>
        <time>2021-09-20T14:11:50Z</time>
      </trkpt>
      <trkpt lat="43.72614" lon="7.18128">
        <ele>39.7</ele>
        <time>2021-09-20T14:11:51Z</time>
      </trkpt>
      <trkpt lat="43.72611" lon="7.18126">
        <ele>39.6</ele>
        <time>2021-09-20T14:11:52Z</time>
      </trkpt>
      <trkpt lat="43.72608" lon="7.18125">
        <ele>39.6</ele>
        <time>2021-09-20T14:11:53Z</time>
      </trkpt>
      <trkpt lat="43.72604" lon="7.18123">
        <ele>39.5</ele>
        <time>2021-09-20T14:11:54Z</time>
      </trkpt>
      <trkpt lat="43.726" lon="7.18122">
        <ele>39.5</ele>
        <time>2021-09-20T14:11:55Z</time>
      </trkpt>
      <trkpt lat="43.72598" lon="7.18122">
        <ele>39.4</ele>
        <time>2021-09-20T14:11:56Z</time>
      </trkpt>
      <trkpt lat="43.72593" lon="7.18126">
        <ele>39.4</ele>
        <time>2021-09-20T14:11:58Z</time>
      </trkpt>
      <trkpt lat="43.7259" lon="7.1813">
        <ele>39.3</ele>
        <time>2021-09-20T14:11:59Z</time>
      </trkpt>
      <trkpt lat="43.72581" lon="7.18139">
        <ele>39.2</ele>
        <time>2021-09-20T14:12:00Z</time>
      </trkpt>
      <trkpt lat="43.72575" lon="7.18143">
        <ele>39.2</ele>
        <time>2021-09-20T14:12:01Z</time>
      </trkpt>
      <trkpt lat="43.72565" lon="7.18153">
        <ele>39.1</ele>
        <time>2021-09-20T14:12:03Z</time>
      </trkpt>
      <trkpt lat="43.72555" lon="7.18158">
        <ele>39</ele>
        <time>2021-09-20T14:12:05Z</time>
      </trkpt>
      <trkpt lat="43.72551" lon="7.18158">
        <ele>39</ele>
        <time>2021-09-20T14:12:06Z</time>
      </trkpt>
      <trkpt lat="43.72546" lon="7.18157">
        <ele>38.9</ele>
        <time>2021-09-20T14:12:07Z</time>
      </trkpt>
      <trkpt lat="43.72537" lon="7.18156">
        <ele>38.9</ele>
        <time>2021-09-20T14:12:09Z</time>
      </trkpt>
      <trkpt lat="43.72525" lon="7.18154">
        <ele>38.8</ele>
        <time>2021-09-20T14:12:11Z</time>
      </trkpt>
      <trkpt lat="43.72515" lon="7.18153">
        <ele>38.7</ele>
        <time>2021-09-20T14:12:13Z</time>
      </trkpt>
      <trkpt lat="43.72509" lon="7.18152">
        <ele>38.7</ele>
        <time>2021-09-20T14:12:14Z</time>
      </trkpt>
      <trkpt lat="43.72504" lon="7.18152">
        <ele>38.6</ele>
        <time>2021-09-20T14:12:15Z</time>
      </trkpt>
      <trkpt lat="43.72496" lon="7.18154">
        <ele>38.6</ele>
        <time>2021-09-20T14:12:17Z</time>
      </trkpt>
      <trkpt lat="43.72488" lon="7.18155">
        <ele>38.5</ele>
        <time>2021-09-20T14:12:18Z</time>
      </trkpt>
      <trkpt lat="43.72482" lon="7.18156">
        <ele>38.5</ele>
        <time>2021-09-20T14:12:19Z</time>
      </trkpt>
      <trkpt lat="43.72476" lon="7.18156">
        <ele>38.5</ele>
        <time>2021-09-20T14:12:20Z</time>
      </trkpt>
      <trkpt lat="43.7247" lon="7.18156">
        <ele>38.4</ele>
        <time>2021-09-20T14:12:21Z</time>
      </trkpt>
      <trkpt lat="43.7246" lon="7.18157">
        <ele>38.3</ele>
        <time>2021-09-20T14:12:23Z</time>
      </trkpt>
      <trkpt lat="43.72451" lon="7.18158">
        <ele>38.3</ele>
        <time>2021-09-20T14:12:25Z</time>
      </trkpt>
      <trkpt lat="43.72443" lon="7.18158">
        <ele>38.2</ele>
        <time>2021-09-20T14:12:27Z</time>
      </trkpt>
      <trkpt lat="43.72436" lon="7.18159">
        <ele>38.2</ele>
        <time>2021-09-20T14:12:29Z</time>
      </trkpt>
      <trkpt lat="43.72433" lon="7.18158">
        <ele>38.2</ele>
        <time>2021-09-20T14:12:30Z</time>
      </trkpt>
      <trkpt lat="43.72433" lon="7.18158">
        <ele>38.2</ele>
        <time>2021-09-20T14:12:31Z</time>
      </trkpt>
      <trkpt lat="43.72426" lon="7.18157">
        <ele>38.2</ele>
        <time>2021-09-20T14:12:33Z</time>
      </trkpt>
      <trkpt lat="43.72423" lon="7.18156">
        <ele>38.1</ele>
        <time>2021-09-20T14:12:34Z</time>
      </trkpt>
      <trkpt lat="43.72416" lon="7.18155">
        <ele>38.1</ele>
        <time>2021-09-20T14:12:35Z</time>
      </trkpt>
      <trkpt lat="43.72406" lon="7.18155">
        <ele>38.1</ele>
        <time>2021-09-20T14:12:37Z</time>
      </trkpt>
      <trkpt lat="43.72401" lon="7.18155">
        <ele>38</ele>
        <time>2021-09-20T14:12:38Z</time>
      </trkpt>
      <trkpt lat="43.72396" lon="7.18156">
        <ele>38</ele>
        <time>2021-09-20T14:12:39Z</time>
      </trkpt>
      <trkpt lat="43.7239" lon="7.18157">
        <ele>38</ele>
        <time>2021-09-20T14:12:40Z</time>
      </trkpt>
      <trkpt lat="43.72387" lon="7.18158">
        <ele>38</ele>
        <time>2021-09-20T14:12:41Z</time>
      </trkpt>
      <trkpt lat="43.72376" lon="7.1816">
        <ele>37.9</ele>
        <time>2021-09-20T14:12:43Z</time>
      </trkpt>
      <trkpt lat="43.7237" lon="7.18161">
        <ele>37.9</ele>
        <time>2021-09-20T14:12:44Z</time>
      </trkpt>
      <trkpt lat="43.72363" lon="7.1816">
        <ele>37.9</ele>
        <time>2021-09-20T14:12:46Z</time>
      </trkpt>
      <trkpt lat="43.72356" lon="7.1816">
        <ele>37.8</ele>
        <time>2021-09-20T14:12:47Z</time>
      </trkpt>
      <trkpt lat="43.72345" lon="7.18162">
        <ele>37.8</ele>
        <time>2021-09-20T14:12:49Z</time>
      </trkpt>
      <trkpt lat="43.7234" lon="7.18163">
        <ele>37.8</ele>
        <time>2021-09-20T14:12:50Z</time>
      </trkpt>
      <trkpt lat="43.7233" lon="7.18164">
        <ele>37.8</ele>
        <time>2021-09-20T14:12:52Z</time>
      </trkpt>
      <trkpt lat="43.72326" lon="7.18165">
        <ele>37.7</ele>
        <time>2021-09-20T14:12:53Z</time>
      </trkpt>
      <trkpt lat="43.72316" lon="7.18165">
        <ele>37.7</ele>
        <time>2021-09-20T14:12:55Z</time>
      </trkpt>
      <trkpt lat="43.72306" lon="7.18167">
        <ele>37.6</ele>
        <time>2021-09-20T14:12:57Z</time>
      </trkpt>
      <trkpt lat="43.72302" lon="7.18167">
        <ele>37.6</ele>
        <time>2021-09-20T14:12:58Z</time>
      </trkpt>
      <trkpt lat="43.72297" lon="7.18168">
        <ele>37.6</ele>
        <time>2021-09-20T14:12:59Z</time>
      </trkpt>
      <trkpt lat="43.72287" lon="7.18168">
        <ele>37.5</ele>
        <time>2021-09-20T14:13:01Z</time>
      </trkpt>
      <trkpt lat="43.72277" lon="7.1817">
        <ele>37.5</ele>
        <time>2021-09-20T14:13:03Z</time>
      </trkpt>
      <trkpt lat="43.72272" lon="7.18171">
        <ele>37.5</ele>
        <time>2021-09-20T14:13:04Z</time>
      </trkpt>
      <trkpt lat="43.72267" lon="7.18171">
        <ele>37.4</ele>
        <time>2021-09-20T14:13:05Z</time>
      </trkpt>
      <trkpt lat="43.72263" lon="7.18171">
        <ele>37.4</ele>
        <time>2021-09-20T14:13:06Z</time>
      </trkpt>
      <trkpt lat="43.72253" lon="7.18172">
        <ele>37.4</ele>
        <time>2021-09-20T14:13:08Z</time>
      </trkpt>
      <trkpt lat="43.72245" lon="7.18174">
        <ele>37.3</ele>
        <time>2021-09-20T14:13:10Z</time>
      </trkpt>
      <trkpt lat="43.7224" lon="7.18174">
        <ele>37.3</ele>
        <time>2021-09-20T14:13:11Z</time>
      </trkpt>
      <trkpt lat="43.72238" lon="7.18174">
        <ele>37.3</ele>
        <time>2021-09-20T14:13:12Z</time>
      </trkpt>
      <trkpt lat="43.72228" lon="7.18173">
        <ele>37.2</ele>
        <time>2021-09-20T14:13:14Z</time>
      </trkpt>
      <trkpt lat="43.72219" lon="7.18173">
        <ele>37.1</ele>
        <time>2021-09-20T14:13:16Z</time>
      </trkpt>
      <trkpt lat="43.72215" lon="7.18175">
        <ele>37.1</ele>
        <time>2021-09-20T14:13:17Z</time>
      </trkpt>
      <trkpt lat="43.72209" lon="7.18179">
        <ele>37.1</ele>
        <time>2021-09-20T14:13:19Z</time>
      </trkpt>
      <trkpt lat="43.72204" lon="7.18178">
        <ele>37</ele>
        <time>2021-09-20T14:13:20Z</time>
      </trkpt>
      <trkpt lat="43.72197" lon="7.18175">
        <ele>37</ele>
        <time>2021-09-20T14:13:21Z</time>
      </trkpt>
      <trkpt lat="43.72191" lon="7.18175">
        <ele>37</ele>
        <time>2021-09-20T14:13:22Z</time>
      </trkpt>
      <trkpt lat="43.72187" lon="7.18175">
        <ele>36.9</ele>
        <time>2021-09-20T14:13:23Z</time>
      </trkpt>
      <trkpt lat="43.72183" lon="7.18175">
        <ele>36.9</ele>
        <time>2021-09-20T14:13:24Z</time>
      </trkpt>
      <trkpt lat="43.7218" lon="7.18171">
        <ele>36.9</ele>
        <time>2021-09-20T14:13:25Z</time>
      </trkpt>
      <trkpt lat="43.72174" lon="7.18171">
        <ele>36.9</ele>
        <time>2021-09-20T14:13:27Z</time>
      </trkpt>
      <trkpt lat="43.72166" lon="7.18174">
        <ele>36.8</ele>
        <time>2021-09-20T14:13:28Z</time>
      </trkpt>
      <trkpt lat="43.7216" lon="7.18176">
        <ele>36.8</ele>
        <time>2021-09-20T14:13:29Z</time>
      </trkpt>
      <trkpt lat="43.72152" lon="7.18178">
        <ele>36.7</ele>
        <time>2021-09-20T14:13:31Z</time>
      </trkpt>
      <trkpt lat="43.72145" lon="7.18179">
        <ele>36.7</ele>
        <time>2021-09-20T14:13:32Z</time>
      </trkpt>
      <trkpt lat="43.7214" lon="7.18181">
        <ele>36.6</ele>
        <time>2021-09-20T14:13:33Z</time>
      </trkpt>
      <trkpt lat="43.72135" lon="7.18182">
        <ele>36.6</ele>
        <time>2021-09-20T14:13:34Z</time>
      </trkpt>
      <trkpt lat="43.72131" lon="7.18183">
        <ele>36.6</ele>
        <time>2021-09-20T14:13:35Z</time>
      </trkpt>
      <trkpt lat="43.72122" lon="7.18184">
        <ele>36.5</ele>
        <time>2021-09-20T14:13:37Z</time>
      </trkpt>
      <trkpt lat="43.72119" lon="7.18184">
        <ele>36.5</ele>
        <time>2021-09-20T14:13:38Z</time>
      </trkpt>
      <trkpt lat="43.72112" lon="7.18181">
        <ele>36.4</ele>
        <time>2021-09-20T14:13:40Z</time>
      </trkpt>
      <trkpt lat="43.72106" lon="7.18181">
        <ele>36.4</ele>
        <time>2021-09-20T14:13:41Z</time>
      </trkpt>
      <trkpt lat="43.72094" lon="7.18181">
        <ele>36.2</ele>
        <time>2021-09-20T14:13:43Z</time>
      </trkpt>
      <trkpt lat="43.72081" lon="7.18181">
        <ele>36.1</ele>
        <time>2021-09-20T14:13:45Z</time>
      </trkpt>
      <trkpt lat="43.72075" lon="7.18181">
        <ele>36.1</ele>
        <time>2021-09-20T14:13:46Z</time>
      </trkpt>
      <trkpt lat="43.7207" lon="7.18182">
        <ele>36.1</ele>
        <time>2021-09-20T14:13:47Z</time>
      </trkpt>
      <trkpt lat="43.7206" lon="7.18182">
        <ele>36</ele>
        <time>2021-09-20T14:13:49Z</time>
      </trkpt>
      <trkpt lat="43.72054" lon="7.18184">
        <ele>36</ele>
        <time>2021-09-20T14:13:50Z</time>
      </trkpt>
      <trkpt lat="43.72045" lon="7.18185">
        <ele>36</ele>
        <time>2021-09-20T14:13:52Z</time>
      </trkpt>
      <trkpt lat="43.7204" lon="7.18186">
        <ele>35.9</ele>
        <time>2021-09-20T14:13:53Z</time>
      </trkpt>
      <trkpt lat="43.72034" lon="7.18187">
        <ele>35.9</ele>
        <time>2021-09-20T14:13:54Z</time>
      </trkpt>
      <trkpt lat="43.72023" lon="7.18189">
        <ele>35.9</ele>
        <time>2021-09-20T14:13:56Z</time>
      </trkpt>
      <trkpt lat="43.72018" lon="7.1819">
        <ele>35.9</ele>
        <time>2021-09-20T14:13:57Z</time>
      </trkpt>
      <trkpt lat="43.72014" lon="7.18191">
        <ele>35.9</ele>
        <time>2021-09-20T14:13:58Z</time>
      </trkpt>
      <trkpt lat="43.7201" lon="7.18192">
        <ele>35.9</ele>
        <time>2021-09-20T14:13:59Z</time>
      </trkpt>
      <trkpt lat="43.72002" lon="7.18193">
        <ele>35.8</ele>
        <time>2021-09-20T14:14:01Z</time>
      </trkpt>
      <trkpt lat="43.71998" lon="7.18194">
        <ele>35.8</ele>
        <time>2021-09-20T14:14:02Z</time>
      </trkpt>
      <trkpt lat="43.71994" lon="7.18194">
        <ele>35.8</ele>
        <time>2021-09-20T14:14:03Z</time>
      </trkpt>
      <trkpt lat="43.7199" lon="7.18194">
        <ele>35.8</ele>
        <time>2021-09-20T14:14:04Z</time>
      </trkpt>
      <trkpt lat="43.71989" lon="7.18193">
        <ele>35.8</ele>
        <time>2021-09-20T14:14:05Z</time>
      </trkpt>
      <trkpt lat="43.71988" lon="7.18189">
        <ele>35.8</ele>
        <time>2021-09-20T14:14:07Z</time>
      </trkpt>
      <trkpt lat="43.71987" lon="7.18184">
        <ele>35.8</ele>
        <time>2021-09-20T14:14:08Z</time>
      </trkpt>
      <trkpt lat="43.71987" lon="7.18179">
        <ele>35.8</ele>
        <time>2021-09-20T14:14:09Z</time>
      </trkpt>
      <trkpt lat="43.71987" lon="7.18173">
        <ele>35.8</ele>
        <time>2021-09-20T14:14:10Z</time>
      </trkpt>
      <trkpt lat="43.71987" lon="7.18168">
        <ele>35.8</ele>
        <time>2021-09-20T14:14:11Z</time>
      </trkpt>
      <trkpt lat="43.71987" lon="7.18162">
        <ele>35.9</ele>
        <time>2021-09-20T14:14:12Z</time>
      </trkpt>
      <trkpt lat="43.71988" lon="7.18155">
        <ele>35.9</ele>
        <time>2021-09-20T14:14:13Z</time>
      </trkpt>
      <trkpt lat="43.71988" lon="7.18149">
        <ele>35.9</ele>
        <time>2021-09-20T14:14:14Z</time>
      </trkpt>
      <trkpt lat="43.71988" lon="7.18143">
        <ele>35.9</ele>
        <time>2021-09-20T14:14:15Z</time>
      </trkpt>
      <trkpt lat="43.71989" lon="7.18136">
        <ele>35.9</ele>
        <time>2021-09-20T14:14:16Z</time>
      </trkpt>
      <trkpt lat="43.7199" lon="7.18129">
        <ele>36</ele>
        <time>2021-09-20T14:14:18Z</time>
      </trkpt>
      <trkpt lat="43.7199" lon="7.18123">
        <ele>36</ele>
        <time>2021-09-20T14:14:19Z</time>
      </trkpt>
      <trkpt lat="43.7199" lon="7.18118">
        <ele>36</ele>
        <time>2021-09-20T14:14:20Z</time>
      </trkpt>
      <trkpt lat="43.7199" lon="7.18113">
        <ele>36.1</ele>
        <time>2021-09-20T14:14:21Z</time>
      </trkpt>
      <trkpt lat="43.7199" lon="7.18103">
        <ele>36.1</ele>
        <time>2021-09-20T14:14:23Z</time>
      </trkpt>
      <trkpt lat="43.71989" lon="7.18099">
        <ele>36.1</ele>
        <time>2021-09-20T14:14:24Z</time>
      </trkpt>
      <trkpt lat="43.71988" lon="7.18094">
        <ele>36.2</ele>
        <time>2021-09-20T14:14:25Z</time>
      </trkpt>
      <trkpt lat="43.71982" lon="7.18087">
        <ele>36.3</ele>
        <time>2021-09-20T14:14:27Z</time>
      </trkpt>
      <trkpt lat="43.71979" lon="7.18082">
        <ele>36.3</ele>
        <time>2021-09-20T14:14:28Z</time>
      </trkpt>
      <trkpt lat="43.71976" lon="7.18075">
        <ele>36.3</ele>
        <time>2021-09-20T14:14:30Z</time>
      </trkpt>
      <trkpt lat="43.71974" lon="7.18071">
        <ele>36.3</ele>
        <time>2021-09-20T14:14:31Z</time>
      </trkpt>
      <trkpt lat="43.71973" lon="7.18067">
        <ele>36.4</ele>
        <time>2021-09-20T14:14:32Z</time>
      </trkpt>
      <trkpt lat="43.71971" lon="7.1806">
        <ele>36.4</ele>
        <time>2021-09-20T14:14:34Z</time>
      </trkpt>
      <trkpt lat="43.71967" lon="7.18051">
        <ele>36.4</ele>
        <time>2021-09-20T14:14:36Z</time>
      </trkpt>
      <trkpt lat="43.71963" lon="7.18045">
        <ele>36.3</ele>
        <time>2021-09-20T14:14:37Z</time>
      </trkpt>
      <trkpt lat="43.71961" lon="7.18039">
        <ele>36.3</ele>
        <time>2021-09-20T14:14:38Z</time>
      </trkpt>
      <trkpt lat="43.7196" lon="7.18034">
        <ele>36.3</ele>
        <time>2021-09-20T14:14:39Z</time>
      </trkpt>
      <trkpt lat="43.71958" lon="7.18029">
        <ele>36.3</ele>
        <time>2021-09-20T14:14:40Z</time>
      </trkpt>
      <trkpt lat="43.71956" lon="7.1802">
        <ele>36.2</ele>
        <time>2021-09-20T14:14:42Z</time>
      </trkpt>
      <trkpt lat="43.71954" lon="7.18014">
        <ele>36.2</ele>
        <time>2021-09-20T14:14:43Z</time>
      </trkpt>
      <trkpt lat="43.71952" lon="7.1801">
        <ele>36.2</ele>
        <time>2021-09-20T14:14:44Z</time>
      </trkpt>
      <trkpt lat="43.71951" lon="7.18006">
        <ele>36.2</ele>
        <time>2021-09-20T14:14:45Z</time>
      </trkpt>
      <trkpt lat="43.71949" lon="7.18002">
        <ele>36.1</ele>
        <time>2021-09-20T14:14:46Z</time>
      </trkpt>
      <trkpt lat="43.71945" lon="7.17993">
        <ele>36.1</ele>
        <time>2021-09-20T14:14:48Z</time>
      </trkpt>
      <trkpt lat="43.71943" lon="7.17989">
        <ele>36.1</ele>
        <time>2021-09-20T14:14:49Z</time>
      </trkpt>
      <trkpt lat="43.71942" lon="7.17984">
        <ele>36</ele>
        <time>2021-09-20T14:14:51Z</time>
      </trkpt>
      <trkpt lat="43.71941" lon="7.17978">
        <ele>36</ele>
        <time>2021-09-20T14:14:53Z</time>
      </trkpt>
      <trkpt lat="43.71941" lon="7.17976">
        <ele>36</ele>
        <time>2021-09-20T14:14:54Z</time>
      </trkpt>
      <trkpt lat="43.7194" lon="7.17974">
        <ele>36</ele>
        <time>2021-09-20T14:14:55Z</time>
      </trkpt>
      <trkpt lat="43.71943" lon="7.17971">
        <ele>36</ele>
        <time>2021-09-20T14:14:57Z</time>
      </trkpt>
      <trkpt lat="43.71945" lon="7.17971">
        <ele>36</ele>
        <time>2021-09-20T14:14:58Z</time>
      </trkpt>
      <trkpt lat="43.71947" lon="7.17971">
        <ele>36</ele>
        <time>2021-09-20T14:14:59Z</time>
      </trkpt>
      <trkpt lat="43.71948" lon="7.17971">
        <ele>36</ele>
        <time>2021-09-20T14:15:01Z</time>
      </trkpt>
      <trkpt lat="43.71948" lon="7.1797">
        <ele>36</ele>
        <time>2021-09-20T14:15:03Z</time>
      </trkpt>
      <trkpt lat="43.71948" lon="7.1797">
        <ele>36</ele>
        <time>2021-09-20T14:15:04Z</time>
      </trkpt>
      <trkpt lat="43.71949" lon="7.17969">
        <ele>36</ele>
        <time>2021-09-20T14:15:06Z</time>
      </trkpt>
      <trkpt lat="43.71981" lon="7.17955">
        <ele>35.9</ele>
        <time>2021-09-20T14:22:21Z</time>
      </trkpt>
      <trkpt lat="43.7198" lon="7.17957">
        <ele>35.9</ele>
        <time>2021-09-20T14:22:23Z</time>
      </trkpt>
      <trkpt lat="43.71979" lon="7.1796">
        <ele>35.9</ele>
        <time>2021-09-20T14:22:25Z</time>
      </trkpt>
      <trkpt lat="43.71979" lon="7.17963">
        <ele>35.9</ele>
        <time>2021-09-20T14:22:27Z</time>
      </trkpt>
      <trkpt lat="43.71979" lon="7.17964">
        <ele>35.9</ele>
        <time>2021-09-20T14:22:28Z</time>
      </trkpt>
      <trkpt lat="43.71979" lon="7.17968">
        <ele>35.9</ele>
        <time>2021-09-20T14:22:29Z</time>
      </trkpt>
      <trkpt lat="43.7198" lon="7.1797">
        <ele>36</ele>
        <time>2021-09-20T14:22:31Z</time>
      </trkpt>
      <trkpt lat="43.71981" lon="7.17973">
        <ele>36</ele>
        <time>2021-09-20T14:22:33Z</time>
      </trkpt>
      <trkpt lat="43.71983" lon="7.17974">
        <ele>36</ele>
        <time>2021-09-20T14:22:34Z</time>
      </trkpt>
      <trkpt lat="43.71984" lon="7.17975">
        <ele>36</ele>
        <time>2021-09-20T14:22:36Z</time>
      </trkpt>
      <trkpt lat="43.71985" lon="7.17975">
        <ele>36</ele>
        <time>2021-09-20T14:22:37Z</time>
      </trkpt>
      <trkpt lat="43.71987" lon="7.17976">
        <ele>36</ele>
        <time>2021-09-20T14:22:39Z</time>
      </trkpt>
      <trkpt lat="43.71988" lon="7.17977">
        <ele>36</ele>
        <time>2021-09-20T14:22:40Z</time>
      </trkpt>
      <trkpt lat="43.71989" lon="7.17977">
        <ele>36</ele>
        <time>2021-09-20T14:22:41Z</time>
      </trkpt>
      <trkpt lat="43.71989" lon="7.17978">
        <ele>36</ele>
        <time>2021-09-20T14:22:43Z</time>
      </trkpt>
      <trkpt lat="43.7199" lon="7.17978">
        <ele>36</ele>
        <time>2021-09-20T14:22:44Z</time>
      </trkpt>
      <trkpt lat="43.7199" lon="7.17978">
        <ele>36</ele>
        <time>2021-09-20T14:22:46Z</time>
      </trkpt>
      <trkpt lat="43.7199" lon="7.17978">
        <ele>36</ele>
        <time>2021-09-20T14:22:48Z</time>
      </trkpt>
      <trkpt lat="43.7199" lon="7.17978">
        <ele>36</ele>
        <time>2021-09-20T14:22:49Z</time>
      </trkpt>
      <trkpt lat="43.71989" lon="7.17979">
        <ele>36</ele>
        <time>2021-09-20T14:22:50Z</time>
      </trkpt>
      <trkpt lat="43.71989" lon="7.17979">
        <ele>36</ele>
        <time>2021-09-20T14:22:52Z</time>
      </trkpt>
      <trkpt lat="43.71989" lon="7.17979">
        <ele>36</ele>
        <time>2021-09-20T14:22:54Z</time>
      </trkpt>
      <trkpt lat="43.71989" lon="7.1798">
        <ele>36</ele>
        <time>2021-09-20T14:22:56Z</time>
      </trkpt>
      <trkpt lat="43.71987" lon="7.17981">
        <ele>36</ele>
        <time>2021-09-20T14:22:58Z</time>
      </trkpt>
      <trkpt lat="43.71986" lon="7.17982">
        <ele>36</ele>
        <time>2021-09-20T14:23:00Z</time>
      </trkpt>
      <trkpt lat="43.71985" lon="7.17983">
        <ele>36</ele>
        <time>2021-09-20T14:23:01Z</time>
      </trkpt>
      <trkpt lat="43.71985" lon="7.17984">
        <ele>36</ele>
        <time>2021-09-20T14:23:03Z</time>
      </trkpt>
      <trkpt lat="43.71985" lon="7.17984">
        <ele>36</ele>
        <time>2021-09-20T14:23:04Z</time>
      </trkpt>
      <trkpt lat="43.71984" lon="7.17984">
        <ele>36</ele>
        <time>2021-09-20T14:23:05Z</time>
      </trkpt>
      <trkpt lat="43.71978" lon="7.17981">
        <ele>36.1</ele>
        <time>2021-09-20T14:23:07Z</time>
      </trkpt>
      <trkpt lat="43.71973" lon="7.17977">
        <ele>36.1</ele>
        <time>2021-09-20T14:23:09Z</time>
      </trkpt>
      <trkpt lat="43.71971" lon="7.17974">
        <ele>36.1</ele>
        <time>2021-09-20T14:23:11Z</time>
      </trkpt>
      <trkpt lat="43.71971" lon="7.17973">
        <ele>36.1</ele>
        <time>2021-09-20T14:23:12Z</time>
      </trkpt>
      <trkpt lat="43.71974" lon="7.17974">
        <ele>36.1</ele>
        <time>2021-09-20T14:23:14Z</time>
      </trkpt>
      <trkpt lat="43.71976" lon="7.17976">
        <ele>36.2</ele>
        <time>2021-09-20T14:23:15Z</time>
      </trkpt>
      <trkpt lat="43.71976" lon="7.17976">
        <ele>36.2</ele>
        <time>2021-09-20T14:23:16Z</time>
      </trkpt>
      <trkpt lat="43.71978" lon="7.17974">
        <ele>36.2</ele>
        <time>2021-09-20T14:23:18Z</time>
      </trkpt>
      <trkpt lat="43.71979" lon="7.17973">
        <ele>36.2</ele>
        <time>2021-09-20T14:23:20Z</time>
      </trkpt>
      <trkpt lat="43.71981" lon="7.17972">
        <ele>36.2</ele>
        <time>2021-09-20T14:23:21Z</time>
      </trkpt>
      <trkpt lat="43.71981" lon="7.17972">
        <ele>36.2</ele>
        <time>2021-09-20T14:23:22Z</time>
      </trkpt>
      <trkpt lat="43.71982" lon="7.17972">
        <ele>36.2</ele>
        <time>2021-09-20T14:23:23Z</time>
      </trkpt>
      <trkpt lat="43.71984" lon="7.17972">
        <ele>36.2</ele>
        <time>2021-09-20T14:23:24Z</time>
      </trkpt>
      <trkpt lat="43.71985" lon="7.17972">
        <ele>36.2</ele>
        <time>2021-09-20T14:23:25Z</time>
      </trkpt>
      <trkpt lat="43.71987" lon="7.17973">
        <ele>36.2</ele>
        <time>2021-09-20T14:23:27Z</time>
      </trkpt>
      <trkpt lat="43.71989" lon="7.17973">
        <ele>36.2</ele>
        <time>2021-09-20T14:23:28Z</time>
      </trkpt>
      <trkpt lat="43.7199" lon="7.17973">
        <ele>36.2</ele>
        <time>2021-09-20T14:23:29Z</time>
      </trkpt>
      <trkpt lat="43.71991" lon="7.17972">
        <ele>36.3</ele>
        <time>2021-09-20T14:23:31Z</time>
      </trkpt>
      <trkpt lat="43.71992" lon="7.17972">
        <ele>36.3</ele>
        <time>2021-09-20T14:23:33Z</time>
      </trkpt>
      <trkpt lat="43.71993" lon="7.17972">
        <ele>36.3</ele>
        <time>2021-09-20T14:23:34Z</time>
      </trkpt>
      <trkpt lat="43.71993" lon="7.17972">
        <ele>36.3</ele>
        <time>2021-09-20T14:23:35Z</time>
      </trkpt>
      <trkpt lat="43.71994" lon="7.17972">
        <ele>36.3</ele>
        <time>2021-09-20T14:23:37Z</time>
      </trkpt>
      <trkpt lat="43.71994" lon="7.17971">
        <ele>36.3</ele>
        <time>2021-09-20T14:23:39Z</time>
      </trkpt>
      <trkpt lat="43.71994" lon="7.17972">
        <ele>36.3</ele>
        <time>2021-09-20T14:23:40Z</time>
      </trkpt>
      <trkpt lat="43.71993" lon="7.17972">
        <ele>36.3</ele>
        <time>2021-09-20T14:23:42Z</time>
      </trkpt>
      <trkpt lat="43.71992" lon="7.17972">
        <ele>36.3</ele>
        <time>2021-09-20T14:23:43Z</time>
      </trkpt>
      <trkpt lat="43.71991" lon="7.17972">
        <ele>36.3</ele>
        <time>2021-09-20T14:23:45Z</time>
      </trkpt>
      <trkpt lat="43.71988" lon="7.17969">
        <ele>36.3</ele>
        <time>2021-09-20T14:23:47Z</time>
      </trkpt>
      <trkpt lat="43.71985" lon="7.17969">
        <ele>36.4</ele>
        <time>2021-09-20T14:23:48Z</time>
      </trkpt>
      <trkpt lat="43.71981" lon="7.1797">
        <ele>36.4</ele>
        <time>2021-09-20T14:23:50Z</time>
      </trkpt>
      <trkpt lat="43.71978" lon="7.1797">
        <ele>36.4</ele>
        <time>2021-09-20T14:23:51Z</time>
      </trkpt>
      <trkpt lat="43.71977" lon="7.1797">
        <ele>36.4</ele>
        <time>2021-09-20T14:23:53Z</time>
      </trkpt>
      <trkpt lat="43.71976" lon="7.1797">
        <ele>36.4</ele>
        <time>2021-09-20T14:23:54Z</time>
      </trkpt>
      <trkpt lat="43.71973" lon="7.1797">
        <ele>36.4</ele>
        <time>2021-09-20T14:23:56Z</time>
      </trkpt>
      <trkpt lat="43.71971" lon="7.1797">
        <ele>36.5</ele>
        <time>2021-09-20T14:23:57Z</time>
      </trkpt>
      <trkpt lat="43.71956" lon="7.1797">
        <ele>36.6</ele>
        <time>2021-09-20T14:24:07Z</time>
      </trkpt>
      <trkpt lat="43.71954" lon="7.17972">
        <ele>36.6</ele>
        <time>2021-09-20T14:24:09Z</time>
      </trkpt>
      <trkpt lat="43.71953" lon="7.17973">
        <ele>36.6</ele>
        <time>2021-09-20T14:24:11Z</time>
      </trkpt>
      <trkpt lat="43.71951" lon="7.17978">
        <ele>36.6</ele>
        <time>2021-09-20T14:24:13Z</time>
      </trkpt>
      <trkpt lat="43.7195" lon="7.17979">
        <ele>36.6</ele>
        <time>2021-09-20T14:24:14Z</time>
      </trkpt>
      <trkpt lat="43.7195" lon="7.1798">
        <ele>36.6</ele>
        <time>2021-09-20T14:24:15Z</time>
      </trkpt>
      <trkpt lat="43.71949" lon="7.17982">
        <ele>36.7</ele>
        <time>2021-09-20T14:24:16Z</time>
      </trkpt>
      <trkpt lat="43.71948" lon="7.17985">
        <ele>36.7</ele>
        <time>2021-09-20T14:24:17Z</time>
      </trkpt>
      <trkpt lat="43.71947" lon="7.17988">
        <ele>36.7</ele>
        <time>2021-09-20T14:24:18Z</time>
      </trkpt>
      <trkpt lat="43.71945" lon="7.17992">
        <ele>36.7</ele>
        <time>2021-09-20T14:24:20Z</time>
      </trkpt>
      <trkpt lat="43.71944" lon="7.17995">
        <ele>36.8</ele>
        <time>2021-09-20T14:24:21Z</time>
      </trkpt>
      <trkpt lat="43.71945" lon="7.17996">
        <ele>36.8</ele>
        <time>2021-09-20T14:24:23Z</time>
      </trkpt>
      <trkpt lat="43.71945" lon="7.17997">
        <ele>36.8</ele>
        <time>2021-09-20T14:24:24Z</time>
      </trkpt>
      <trkpt lat="43.71946" lon="7.17996">
        <ele>36.8</ele>
        <time>2021-09-20T14:24:25Z</time>
      </trkpt>
      <trkpt lat="43.71947" lon="7.17995">
        <ele>36.8</ele>
        <time>2021-09-20T14:24:26Z</time>
      </trkpt>
      <trkpt lat="43.7195" lon="7.17995">
        <ele>36.8</ele>
        <time>2021-09-20T14:24:28Z</time>
      </trkpt>
      <trkpt lat="43.71952" lon="7.17995">
        <ele>36.8</ele>
        <time>2021-09-20T14:24:29Z</time>
      </trkpt>
      <trkpt lat="43.71955" lon="7.17995">
        <ele>36.9</ele>
        <time>2021-09-20T14:24:30Z</time>
      </trkpt>
      <trkpt lat="43.71959" lon="7.17995">
        <ele>36.9</ele>
        <time>2021-09-20T14:24:32Z</time>
      </trkpt>
      <trkpt lat="43.71961" lon="7.17995">
        <ele>36.9</ele>
        <time>2021-09-20T14:24:33Z</time>
      </trkpt>
      <trkpt lat="43.71985" lon="7.17967">
        <ele>37.2</ele>
        <time>2021-09-20T14:24:44Z</time>
      </trkpt>
      <trkpt lat="43.71986" lon="7.17966">
        <ele>37.2</ele>
        <time>2021-09-20T14:24:45Z</time>
      </trkpt>
      <trkpt lat="43.71985" lon="7.17968">
        <ele>37.3</ele>
        <time>2021-09-20T14:24:46Z</time>
      </trkpt>
      <trkpt lat="43.71984" lon="7.17971">
        <ele>37.3</ele>
        <time>2021-09-20T14:24:48Z</time>
      </trkpt>
      <trkpt lat="43.71983" lon="7.17973">
        <ele>37.3</ele>
        <time>2021-09-20T14:24:49Z</time>
      </trkpt>
      <trkpt lat="43.71983" lon="7.17973">
        <ele>37.3</ele>
        <time>2021-09-20T14:24:50Z</time>
      </trkpt>
      <trkpt lat="43.71983" lon="7.17973">
        <ele>37.3</ele>
        <time>2021-09-20T14:24:51Z</time>
      </trkpt>
      <trkpt lat="43.71984" lon="7.17972">
        <ele>37.3</ele>
        <time>2021-09-20T14:24:53Z</time>
      </trkpt>
      <trkpt lat="43.71987" lon="7.17966">
        <ele>37.4</ele>
        <time>2021-09-20T14:24:55Z</time>
      </trkpt>
      <trkpt lat="43.71994" lon="7.17957">
        <ele>37.6</ele>
        <time>2021-09-20T14:25:00Z</time>
      </trkpt>
      <trkpt lat="43.71999" lon="7.17954">
        <ele>37.6</ele>
        <time>2021-09-20T14:25:02Z</time>
      </trkpt>
      <trkpt lat="43.72003" lon="7.17952">
        <ele>37.7</ele>
        <time>2021-09-20T14:25:03Z</time>
      </trkpt>
      <trkpt lat="43.7201" lon="7.17951">
        <ele>37.9</ele>
        <time>2021-09-20T14:25:05Z</time>
      </trkpt>
      <trkpt lat="43.7201" lon="7.17951">
        <ele>37.9</ele>
        <time>2021-09-20T14:25:06Z</time>
      </trkpt>
      <trkpt lat="43.72012" lon="7.17951">
        <ele>37.9</ele>
        <time>2021-09-20T14:25:08Z</time>
      </trkpt>
      <trkpt lat="43.72016" lon="7.1795">
        <ele>38</ele>
        <time>2021-09-20T14:25:10Z</time>
      </trkpt>
      <trkpt lat="43.72016" lon="7.1795">
        <ele>38</ele>
        <time>2021-09-20T14:25:11Z</time>
      </trkpt>
      <trkpt lat="43.72016" lon="7.17951">
        <ele>38</ele>
        <time>2021-09-20T14:25:12Z</time>
      </trkpt>
      <trkpt lat="43.72015" lon="7.17953">
        <ele>38</ele>
        <time>2021-09-20T14:25:14Z</time>
      </trkpt>
      <trkpt lat="43.72014" lon="7.17953">
        <ele>38.1</ele>
        <time>2021-09-20T14:25:15Z</time>
      </trkpt>
      <trkpt lat="43.72013" lon="7.17954">
        <ele>38.1</ele>
        <time>2021-09-20T14:25:16Z</time>
      </trkpt>
      <trkpt lat="43.72013" lon="7.17955">
        <ele>38.1</ele>
        <time>2021-09-20T14:25:18Z</time>
      </trkpt>
      <trkpt lat="43.72013" lon="7.17955">
        <ele>38.1</ele>
        <time>2021-09-20T14:25:19Z</time>
      </trkpt>
      <trkpt lat="43.72006" lon="7.17958">
        <ele>38.2</ele>
        <time>2021-09-20T14:25:21Z</time>
      </trkpt>
      <trkpt lat="43.72002" lon="7.17959">
        <ele>38.4</ele>
        <time>2021-09-20T14:25:23Z</time>
      </trkpt>
      <trkpt lat="43.7198" lon="7.17958">
        <ele>38.8</ele>
        <time>2021-09-20T14:30:24Z</time>
      </trkpt>
      <trkpt lat="43.71977" lon="7.17954">
        <ele>38.9</ele>
        <time>2021-09-20T14:30:26Z</time>
      </trkpt>
      <trkpt lat="43.71975" lon="7.17949">
        <ele>39</ele>
        <time>2021-09-20T14:30:27Z</time>
      </trkpt>
      <trkpt lat="43.71975" lon="7.17948">
        <ele>39</ele>
        <time>2021-09-20T14:30:28Z</time>
      </trkpt>
      <trkpt lat="43.71975" lon="7.17945">
        <ele>39.1</ele>
        <time>2021-09-20T14:30:29Z</time>
      </trkpt>
      <trkpt lat="43.71976" lon="7.1794">
        <ele>39.2</ele>
        <time>2021-09-20T14:30:31Z</time>
      </trkpt>
      <trkpt lat="43.71973" lon="7.17935">
        <ele>39.2</ele>
        <time>2021-09-20T14:30:33Z</time>
      </trkpt>
      <trkpt lat="43.71971" lon="7.17933">
        <ele>39.3</ele>
        <time>2021-09-20T14:30:34Z</time>
      </trkpt>
      <trkpt lat="43.7197" lon="7.17932">
        <ele>39.3</ele>
        <time>2021-09-20T14:30:35Z</time>
      </trkpt>
      <trkpt lat="43.7197" lon="7.17932">
        <ele>39.3</ele>
        <time>2021-09-20T14:30:37Z</time>
      </trkpt>
      <trkpt lat="43.7197" lon="7.17931">
        <ele>39.3</ele>
        <time>2021-09-20T14:30:39Z</time>
      </trkpt>
      <trkpt lat="43.7197" lon="7.1793">
        <ele>39.3</ele>
        <time>2021-09-20T14:30:40Z</time>
      </trkpt>
      <trkpt lat="43.7197" lon="7.1793">
        <ele>39.3</ele>
        <time>2021-09-20T14:30:41Z</time>
      </trkpt>
      <trkpt lat="43.7197" lon="7.1793">
        <ele>39.3</ele>
        <time>2021-09-20T14:30:43Z</time>
      </trkpt>
      <trkpt lat="43.7197" lon="7.17929">
        <ele>39.3</ele>
        <time>2021-09-20T14:30:44Z</time>
      </trkpt>
      <trkpt lat="43.7197" lon="7.17929">
        <ele>39.3</ele>
        <time>2021-09-20T14:30:45Z</time>
      </trkpt>
      <trkpt lat="43.71964" lon="7.17932">
        <ele>39.6</ele>
        <time>2021-09-20T14:30:52Z</time>
      </trkpt>
      <trkpt lat="43.71956" lon="7.17934">
        <ele>39.6</ele>
        <time>2021-09-20T14:30:54Z</time>
      </trkpt>
      <trkpt lat="43.71951" lon="7.17935">
        <ele>39.6</ele>
        <time>2021-09-20T14:30:55Z</time>
      </trkpt>
      <trkpt lat="43.71942" lon="7.17937">
        <ele>39.6</ele>
        <time>2021-09-20T14:30:57Z</time>
      </trkpt>
      <trkpt lat="43.71935" lon="7.17939">
        <ele>39.6</ele>
        <time>2021-09-20T14:30:58Z</time>
      </trkpt>
      <trkpt lat="43.71931" lon="7.17941">
        <ele>39.6</ele>
        <time>2021-09-20T14:30:59Z</time>
      </trkpt>
      <trkpt lat="43.71923" lon="7.17943">
        <ele>39.5</ele>
        <time>2021-09-20T14:31:00Z</time>
      </trkpt>
      <trkpt lat="43.71915" lon="7.17945">
        <ele>39.4</ele>
        <time>2021-09-20T14:31:02Z</time>
      </trkpt>
      <trkpt lat="43.7191" lon="7.17947">
        <ele>39.3</ele>
        <time>2021-09-20T14:31:03Z</time>
      </trkpt>
      <trkpt lat="43.71906" lon="7.17948">
        <ele>39.3</ele>
        <time>2021-09-20T14:31:04Z</time>
      </trkpt>
      <trkpt lat="43.71902" lon="7.1795">
        <ele>39.3</ele>
        <time>2021-09-20T14:31:05Z</time>
      </trkpt>
      <trkpt lat="43.71893" lon="7.17951">
        <ele>39.2</ele>
        <time>2021-09-20T14:31:07Z</time>
      </trkpt>
      <trkpt lat="43.71889" lon="7.17951">
        <ele>39.1</ele>
        <time>2021-09-20T14:31:08Z</time>
      </trkpt>
      <trkpt lat="43.71882" lon="7.17954">
        <ele>39</ele>
        <time>2021-09-20T14:31:10Z</time>
      </trkpt>
      <trkpt lat="43.71878" lon="7.17956">
        <ele>39</ele>
        <time>2021-09-20T14:31:11Z</time>
      </trkpt>
      <trkpt lat="43.71874" lon="7.17956">
        <ele>38.9</ele>
        <time>2021-09-20T14:31:12Z</time>
      </trkpt>
      <trkpt lat="43.7187" lon="7.17957">
        <ele>38.9</ele>
        <time>2021-09-20T14:31:13Z</time>
      </trkpt>
      <trkpt lat="43.71866" lon="7.17957">
        <ele>38.8</ele>
        <time>2021-09-20T14:31:14Z</time>
      </trkpt>
      <trkpt lat="43.71859" lon="7.17955">
        <ele>38.7</ele>
        <time>2021-09-20T14:31:16Z</time>
      </trkpt>
      <trkpt lat="43.71855" lon="7.17954">
        <ele>38.7</ele>
        <time>2021-09-20T14:31:17Z</time>
      </trkpt>
      <trkpt lat="43.71849" lon="7.17952">
        <ele>38.6</ele>
        <time>2021-09-20T14:31:19Z</time>
      </trkpt>
      <trkpt lat="43.71845" lon="7.17951">
        <ele>38.6</ele>
        <time>2021-09-20T14:31:20Z</time>
      </trkpt>
      <trkpt lat="43.71845" lon="7.17951">
        <ele>38.6</ele>
        <time>2021-09-20T14:31:21Z</time>
      </trkpt>
      <trkpt lat="43.7184" lon="7.17949">
        <ele>38.5</ele>
        <time>2021-09-20T14:31:23Z</time>
      </trkpt>
      <trkpt lat="43.71839" lon="7.17949">
        <ele>38.5</ele>
        <time>2021-09-20T14:31:24Z</time>
      </trkpt>
      <trkpt lat="43.71837" lon="7.17949">
        <ele>38.5</ele>
        <time>2021-09-20T14:31:25Z</time>
      </trkpt>
      <trkpt lat="43.71834" lon="7.17947">
        <ele>38.5</ele>
        <time>2021-09-20T14:31:27Z</time>
      </trkpt>
      <trkpt lat="43.71831" lon="7.17944">
        <ele>38.5</ele>
        <time>2021-09-20T14:31:28Z</time>
      </trkpt>
      <trkpt lat="43.71826" lon="7.17939">
        <ele>38.4</ele>
        <time>2021-09-20T14:31:30Z</time>
      </trkpt>
      <trkpt lat="43.71821" lon="7.17931">
        <ele>38.3</ele>
        <time>2021-09-20T14:31:32Z</time>
      </trkpt>
      <trkpt lat="43.71814" lon="7.17922">
        <ele>38.1</ele>
        <time>2021-09-20T14:31:33Z</time>
      </trkpt>
      <trkpt lat="43.71809" lon="7.17917">
        <ele>38</ele>
        <time>2021-09-20T14:31:34Z</time>
      </trkpt>
      <trkpt lat="43.71804" lon="7.17913">
        <ele>37.9</ele>
        <time>2021-09-20T14:31:35Z</time>
      </trkpt>
      <trkpt lat="43.71797" lon="7.17903">
        <ele>37.7</ele>
        <time>2021-09-20T14:31:37Z</time>
      </trkpt>
      <trkpt lat="43.718" lon="7.17898">
        <ele>37.6</ele>
        <time>2021-09-20T14:31:39Z</time>
      </trkpt>
      <trkpt lat="43.71794" lon="7.17891">
        <ele>37.4</ele>
        <time>2021-09-20T14:31:40Z</time>
      </trkpt>
      <trkpt lat="43.7179" lon="7.17885">
        <ele>37.3</ele>
        <time>2021-09-20T14:31:41Z</time>
      </trkpt>
      <trkpt lat="43.71785" lon="7.17878">
        <ele>37.2</ele>
        <time>2021-09-20T14:31:43Z</time>
      </trkpt>
      <trkpt lat="43.71781" lon="7.17872">
        <ele>37.1</ele>
        <time>2021-09-20T14:31:44Z</time>
      </trkpt>
      <trkpt lat="43.71776" lon="7.17865">
        <ele>37</ele>
        <time>2021-09-20T14:31:46Z</time>
      </trkpt>
      <trkpt lat="43.71775" lon="7.17861">
        <ele>37</ele>
        <time>2021-09-20T14:31:47Z</time>
      </trkpt>
      <trkpt lat="43.71772" lon="7.17853">
        <ele>36.9</ele>
        <time>2021-09-20T14:31:49Z</time>
      </trkpt>
      <trkpt lat="43.71767" lon="7.17845">
        <ele>36.9</ele>
        <time>2021-09-20T14:31:51Z</time>
      </trkpt>
      <trkpt lat="43.71759" lon="7.17839">
        <ele>36.8</ele>
        <time>2021-09-20T14:31:53Z</time>
      </trkpt>
      <trkpt lat="43.71754" lon="7.17835">
        <ele>36.7</ele>
        <time>2021-09-20T14:31:54Z</time>
      </trkpt>
      <trkpt lat="43.71748" lon="7.17831">
        <ele>36.6</ele>
        <time>2021-09-20T14:31:55Z</time>
      </trkpt>
      <trkpt lat="43.71741" lon="7.17829">
        <ele>36.6</ele>
        <time>2021-09-20T14:31:57Z</time>
      </trkpt>
      <trkpt lat="43.71733" lon="7.17827">
        <ele>36.5</ele>
        <time>2021-09-20T14:31:58Z</time>
      </trkpt>
      <trkpt lat="43.71723" lon="7.17821">
        <ele>36.4</ele>
        <time>2021-09-20T14:32:00Z</time>
      </trkpt>
      <trkpt lat="43.71717" lon="7.17818">
        <ele>36.4</ele>
        <time>2021-09-20T14:32:01Z</time>
      </trkpt>
      <trkpt lat="43.71707" lon="7.17813">
        <ele>36.3</ele>
        <time>2021-09-20T14:32:03Z</time>
      </trkpt>
      <trkpt lat="43.71697" lon="7.17809">
        <ele>36.2</ele>
        <time>2021-09-20T14:32:05Z</time>
      </trkpt>
      <trkpt lat="43.7169" lon="7.17807">
        <ele>36.2</ele>
        <time>2021-09-20T14:32:06Z</time>
      </trkpt>
      <trkpt lat="43.71685" lon="7.17804">
        <ele>36.2</ele>
        <time>2021-09-20T14:32:07Z</time>
      </trkpt>
      <trkpt lat="43.71679" lon="7.17802">
        <ele>36.1</ele>
        <time>2021-09-20T14:32:08Z</time>
      </trkpt>
      <trkpt lat="43.71669" lon="7.17799">
        <ele>36.1</ele>
        <time>2021-09-20T14:32:10Z</time>
      </trkpt>
      <trkpt lat="43.71657" lon="7.17794">
        <ele>36</ele>
        <time>2021-09-20T14:32:12Z</time>
      </trkpt>
      <trkpt lat="43.71651" lon="7.17793">
        <ele>36</ele>
        <time>2021-09-20T14:32:13Z</time>
      </trkpt>
      <trkpt lat="43.71647" lon="7.17793">
        <ele>36</ele>
        <time>2021-09-20T14:32:14Z</time>
      </trkpt>
      <trkpt lat="43.71639" lon="7.1779">
        <ele>36</ele>
        <time>2021-09-20T14:32:16Z</time>
      </trkpt>
      <trkpt lat="43.71634" lon="7.17786">
        <ele>36</ele>
        <time>2021-09-20T14:32:17Z</time>
      </trkpt>
      <trkpt lat="43.71627" lon="7.17788">
        <ele>36</ele>
        <time>2021-09-20T14:32:19Z</time>
      </trkpt>
      <trkpt lat="43.71617" lon="7.17787">
        <ele>35.9</ele>
        <time>2021-09-20T14:32:21Z</time>
      </trkpt>
      <trkpt lat="43.71613" lon="7.17786">
        <ele>35.9</ele>
        <time>2021-09-20T14:32:22Z</time>
      </trkpt>
      <trkpt lat="43.71605" lon="7.17784">
        <ele>35.9</ele>
        <time>2021-09-20T14:32:24Z</time>
      </trkpt>
      <trkpt lat="43.71604" lon="7.17781">
        <ele>35.9</ele>
        <time>2021-09-20T14:32:26Z</time>
      </trkpt>
      <trkpt lat="43.71601" lon="7.1778">
        <ele>35.9</ele>
        <time>2021-09-20T14:32:27Z</time>
      </trkpt>
      <trkpt lat="43.71597" lon="7.17779">
        <ele>35.9</ele>
        <time>2021-09-20T14:32:28Z</time>
      </trkpt>
      <trkpt lat="43.71592" lon="7.17778">
        <ele>35.9</ele>
        <time>2021-09-20T14:32:29Z</time>
      </trkpt>
      <trkpt lat="43.71587" lon="7.17777">
        <ele>35.9</ele>
        <time>2021-09-20T14:32:31Z</time>
      </trkpt>
      <trkpt lat="43.71585" lon="7.17777">
        <ele>35.9</ele>
        <time>2021-09-20T14:32:32Z</time>
      </trkpt>
      <trkpt lat="43.71584" lon="7.17777">
        <ele>35.9</ele>
        <time>2021-09-20T14:32:34Z</time>
      </trkpt>
      <trkpt lat="43.71584" lon="7.17777">
        <ele>35.9</ele>
        <time>2021-09-20T14:32:35Z</time>
      </trkpt>
      <trkpt lat="43.71583" lon="7.17777">
        <ele>35.9</ele>
        <time>2021-09-20T14:32:37Z</time>
      </trkpt>
      <trkpt lat="43.71583" lon="7.17776">
        <ele>35.9</ele>
        <time>2021-09-20T14:32:39Z</time>
      </trkpt>
      <trkpt lat="43.71581" lon="7.17775">
        <ele>36</ele>
        <time>2021-09-20T14:32:40Z</time>
      </trkpt>
      <trkpt lat="43.71578" lon="7.17775">
        <ele>36</ele>
        <time>2021-09-20T14:32:41Z</time>
      </trkpt>
      <trkpt lat="43.71575" lon="7.17772">
        <ele>36</ele>
        <time>2021-09-20T14:32:42Z</time>
      </trkpt>
      <trkpt lat="43.71572" lon="7.17769">
        <ele>36</ele>
        <time>2021-09-20T14:32:44Z</time>
      </trkpt>
      <trkpt lat="43.7157" lon="7.17765">
        <ele>36</ele>
        <time>2021-09-20T14:32:45Z</time>
      </trkpt>
      <trkpt lat="43.71568" lon="7.17762">
        <ele>36</ele>
        <time>2021-09-20T14:32:46Z</time>
      </trkpt>
      <trkpt lat="43.71565" lon="7.17759">
        <ele>36</ele>
        <time>2021-09-20T14:32:48Z</time>
      </trkpt>
      <trkpt lat="43.71564" lon="7.17759">
        <ele>36</ele>
        <time>2021-09-20T14:32:49Z</time>
      </trkpt>
      <trkpt lat="43.71563" lon="7.17758">
        <ele>36</ele>
        <time>2021-09-20T14:32:50Z</time>
      </trkpt>
      <trkpt lat="43.71562" lon="7.17758">
        <ele>36</ele>
        <time>2021-09-20T14:32:52Z</time>
      </trkpt>
      <trkpt lat="43.71562" lon="7.17758">
        <ele>36</ele>
        <time>2021-09-20T14:32:54Z</time>
      </trkpt>
      <trkpt lat="43.71562" lon="7.17758">
        <ele>36</ele>
        <time>2021-09-20T14:32:55Z</time>
      </trkpt>
      <trkpt lat="43.71562" lon="7.17759">
        <ele>36</ele>
        <time>2021-09-20T14:32:57Z</time>
      </trkpt>
      <trkpt lat="43.71535" lon="7.17747">
        <ele>36.2</ele>
        <time>2021-09-20T14:33:10Z</time>
      </trkpt>
      <trkpt lat="43.71531" lon="7.17743">
        <ele>36.2</ele>
        <time>2021-09-20T14:33:11Z</time>
      </trkpt>
      <trkpt lat="43.71513" lon="7.17733">
        <ele>36.2</ele>
        <time>2021-09-20T14:33:13Z</time>
      </trkpt>
      <trkpt lat="43.71508" lon="7.17731">
        <ele>36.2</ele>
        <time>2021-09-20T14:33:14Z</time>
      </trkpt>
      <trkpt lat="43.71506" lon="7.17727">
        <ele>36.2</ele>
        <time>2021-09-20T14:33:15Z</time>
      </trkpt>
      <trkpt lat="43.71498" lon="7.17724">
        <ele>36.3</ele>
        <time>2021-09-20T14:33:17Z</time>
      </trkpt>
      <trkpt lat="43.71493" lon="7.17722">
        <ele>36.3</ele>
        <time>2021-09-20T14:33:18Z</time>
      </trkpt>
      <trkpt lat="43.71485" lon="7.1772">
        <ele>36.3</ele>
        <time>2021-09-20T14:33:20Z</time>
      </trkpt>
      <trkpt lat="43.7148" lon="7.17718">
        <ele>36.4</ele>
        <time>2021-09-20T14:33:21Z</time>
      </trkpt>
      <trkpt lat="43.71473" lon="7.17714">
        <ele>36.4</ele>
        <time>2021-09-20T14:33:22Z</time>
      </trkpt>
      <trkpt lat="43.71468" lon="7.17713">
        <ele>36.4</ele>
        <time>2021-09-20T14:33:23Z</time>
      </trkpt>
      <trkpt lat="43.71459" lon="7.17718">
        <ele>36.4</ele>
        <time>2021-09-20T14:33:25Z</time>
      </trkpt>
      <trkpt lat="43.71455" lon="7.17718">
        <ele>36.5</ele>
        <time>2021-09-20T14:33:26Z</time>
      </trkpt>
      <trkpt lat="43.7145" lon="7.17721">
        <ele>36.5</ele>
        <time>2021-09-20T14:33:27Z</time>
      </trkpt>
      <trkpt lat="43.71444" lon="7.17725">
        <ele>36.5</ele>
        <time>2021-09-20T14:33:29Z</time>
      </trkpt>
      <trkpt lat="43.71438" lon="7.17731">
        <ele>36.5</ele>
        <time>2021-09-20T14:33:30Z</time>
      </trkpt>
      <trkpt lat="43.71427" lon="7.17742">
        <ele>36.5</ele>
        <time>2021-09-20T14:33:32Z</time>
      </trkpt>
      <trkpt lat="43.71423" lon="7.17747">
        <ele>36.6</ele>
        <time>2021-09-20T14:33:33Z</time>
      </trkpt>
      <trkpt lat="43.71418" lon="7.17751">
        <ele>36.6</ele>
        <time>2021-09-20T14:33:34Z</time>
      </trkpt>
      <trkpt lat="43.71408" lon="7.17759">
        <ele>36.7</ele>
        <time>2021-09-20T14:33:36Z</time>
      </trkpt>
      <trkpt lat="43.71403" lon="7.17763">
        <ele>36.7</ele>
        <time>2021-09-20T14:33:37Z</time>
      </trkpt>
      <trkpt lat="43.71393" lon="7.1777">
        <ele>36.7</ele>
        <time>2021-09-20T14:33:39Z</time>
      </trkpt>
      <trkpt lat="43.71389" lon="7.17772">
        <ele>36.8</ele>
        <time>2021-09-20T14:33:40Z</time>
      </trkpt>
      <trkpt lat="43.71385" lon="7.17776">
        <ele>36.8</ele>
        <time>2021-09-20T14:33:41Z</time>
      </trkpt>
      <trkpt lat="43.71376" lon="7.17782">
        <ele>36.9</ele>
        <time>2021-09-20T14:33:43Z</time>
      </trkpt>
      <trkpt lat="43.71372" lon="7.17785">
        <ele>36.9</ele>
        <time>2021-09-20T14:33:44Z</time>
      </trkpt>
      <trkpt lat="43.71363" lon="7.17792">
        <ele>37</ele>
        <time>2021-09-20T14:33:46Z</time>
      </trkpt>
      <trkpt lat="43.71358" lon="7.17795">
        <ele>37</ele>
        <time>2021-09-20T14:33:47Z</time>
      </trkpt>
      <trkpt lat="43.71348" lon="7.17803">
        <ele>37.1</ele>
        <time>2021-09-20T14:33:49Z</time>
      </trkpt>
      <trkpt lat="43.71341" lon="7.1781">
        <ele>37.2</ele>
        <time>2021-09-20T14:33:51Z</time>
      </trkpt>
      <trkpt lat="43.71337" lon="7.17813">
        <ele>37.2</ele>
        <time>2021-09-20T14:33:52Z</time>
      </trkpt>
      <trkpt lat="43.71333" lon="7.17817">
        <ele>37.2</ele>
        <time>2021-09-20T14:33:53Z</time>
      </trkpt>
      <trkpt lat="43.71325" lon="7.17829">
        <ele>37.3</ele>
        <time>2021-09-20T14:33:55Z</time>
      </trkpt>
      <trkpt lat="43.71318" lon="7.17839">
        <ele>37.4</ele>
        <time>2021-09-20T14:33:57Z</time>
      </trkpt>
      <trkpt lat="43.71315" lon="7.17843">
        <ele>37.4</ele>
        <time>2021-09-20T14:33:58Z</time>
      </trkpt>
      <trkpt lat="43.71312" lon="7.17845">
        <ele>37.4</ele>
        <time>2021-09-20T14:33:59Z</time>
      </trkpt>
      <trkpt lat="43.7131" lon="7.17845">
        <ele>37.4</ele>
        <time>2021-09-20T14:34:00Z</time>
      </trkpt>
      <trkpt lat="43.71306" lon="7.17846">
        <ele>37.5</ele>
        <time>2021-09-20T14:34:01Z</time>
      </trkpt>
      <trkpt lat="43.71297" lon="7.17846">
        <ele>37.5</ele>
        <time>2021-09-20T14:34:03Z</time>
      </trkpt>
      <trkpt lat="43.71287" lon="7.17851">
        <ele>37.5</ele>
        <time>2021-09-20T14:34:05Z</time>
      </trkpt>
      <trkpt lat="43.71287" lon="7.17851">
        <ele>37.5</ele>
        <time>2021-09-20T14:34:06Z</time>
      </trkpt>
      <trkpt lat="43.71285" lon="7.17851">
        <ele>37.5</ele>
        <time>2021-09-20T14:34:07Z</time>
      </trkpt>
      <trkpt lat="43.71256" lon="7.17842">
        <ele>37.3</ele>
        <time>2021-09-20T14:34:14Z</time>
      </trkpt>
      <trkpt lat="43.71238" lon="7.17828">
        <ele>37.2</ele>
        <time>2021-09-20T14:34:16Z</time>
      </trkpt>
      <trkpt lat="43.71233" lon="7.17825">
        <ele>37.2</ele>
        <time>2021-09-20T14:34:17Z</time>
      </trkpt>
      <trkpt lat="43.71226" lon="7.17818">
        <ele>37.2</ele>
        <time>2021-09-20T14:34:18Z</time>
      </trkpt>
      <trkpt lat="43.71222" lon="7.17814">
        <ele>37.2</ele>
        <time>2021-09-20T14:34:19Z</time>
      </trkpt>
      <trkpt lat="43.71215" lon="7.1781">
        <ele>37.3</ele>
        <time>2021-09-20T14:34:21Z</time>
      </trkpt>
      <trkpt lat="43.71211" lon="7.17807">
        <ele>37.3</ele>
        <time>2021-09-20T14:34:22Z</time>
      </trkpt>
      <trkpt lat="43.71206" lon="7.17802">
        <ele>37.3</ele>
        <time>2021-09-20T14:34:24Z</time>
      </trkpt>
      <trkpt lat="43.71204" lon="7.17799">
        <ele>37.3</ele>
        <time>2021-09-20T14:34:25Z</time>
      </trkpt>
      <trkpt lat="43.712" lon="7.17796">
        <ele>37.3</ele>
        <time>2021-09-20T14:34:26Z</time>
      </trkpt>
      <trkpt lat="43.71195" lon="7.17792">
        <ele>37.3</ele>
        <time>2021-09-20T14:34:28Z</time>
      </trkpt>
      <trkpt lat="43.71192" lon="7.1779">
        <ele>37.4</ele>
        <time>2021-09-20T14:34:29Z</time>
      </trkpt>
      <trkpt lat="43.71188" lon="7.1779">
        <ele>37.4</ele>
        <time>2021-09-20T14:34:31Z</time>
      </trkpt>
      <trkpt lat="43.71188" lon="7.17788">
        <ele>37.4</ele>
        <time>2021-09-20T14:34:33Z</time>
      </trkpt>
      <trkpt lat="43.71187" lon="7.17785">
        <ele>37.4</ele>
        <time>2021-09-20T14:34:34Z</time>
      </trkpt>
      <trkpt lat="43.71187" lon="7.17784">
        <ele>37.4</ele>
        <time>2021-09-20T14:34:35Z</time>
      </trkpt>
      <trkpt lat="43.71188" lon="7.17781">
        <ele>37.4</ele>
        <time>2021-09-20T14:34:37Z</time>
      </trkpt>
      <trkpt lat="43.71188" lon="7.1778">
        <ele>37.4</ele>
        <time>2021-09-20T14:34:38Z</time>
      </trkpt>
      <trkpt lat="43.71188" lon="7.17779">
        <ele>37.4</ele>
        <time>2021-09-20T14:34:39Z</time>
      </trkpt>
      <trkpt lat="43.71188" lon="7.17778">
        <ele>37.4</ele>
        <time>2021-09-20T14:34:41Z</time>
      </trkpt>
      <trkpt lat="43.71186" lon="7.17778">
        <ele>37.4</ele>
        <time>2021-09-20T14:34:43Z</time>
      </trkpt>
      <trkpt lat="43.71183" lon="7.17779">
        <ele>37.4</ele>
        <time>2021-09-20T14:34:44Z</time>
      </trkpt>
      <trkpt lat="43.71179" lon="7.17782">
        <ele>37.4</ele>
        <time>2021-09-20T14:34:45Z</time>
      </trkpt>
      <trkpt lat="43.71172" lon="7.17789">
        <ele>37.4</ele>
        <time>2021-09-20T14:34:47Z</time>
      </trkpt>
      <trkpt lat="43.71165" lon="7.17793">
        <ele>37.4</ele>
        <time>2021-09-20T14:34:48Z</time>
      </trkpt>
      <trkpt lat="43.71161" lon="7.17796">
        <ele>37.4</ele>
        <time>2021-09-20T14:34:49Z</time>
      </trkpt>
      <trkpt lat="43.71156" lon="7.17799">
        <ele>37.5</ele>
        <time>2021-09-20T14:34:50Z</time>
      </trkpt>
      <trkpt lat="43.71151" lon="7.17802">
        <ele>37.5</ele>
        <time>2021-09-20T14:34:51Z</time>
      </trkpt>
      <trkpt lat="43.71141" lon="7.17804">
        <ele>37.5</ele>
        <time>2021-09-20T14:34:52Z</time>
      </trkpt>
      <trkpt lat="43.71134" lon="7.17806">
        <ele>37.5</ele>
        <time>2021-09-20T14:34:54Z</time>
      </trkpt>
      <trkpt lat="43.71128" lon="7.17806">
        <ele>37.5</ele>
        <time>2021-09-20T14:34:55Z</time>
      </trkpt>
      <trkpt lat="43.71121" lon="7.17806">
        <ele>37.6</ele>
        <time>2021-09-20T14:34:56Z</time>
      </trkpt>
      <trkpt lat="43.71116" lon="7.17806">
        <ele>37.6</ele>
        <time>2021-09-20T14:34:57Z</time>
      </trkpt>
      <trkpt lat="43.71113" lon="7.17806">
        <ele>37.6</ele>
        <time>2021-09-20T14:34:58Z</time>
      </trkpt>
      <trkpt lat="43.71095" lon="7.17807">
        <ele>37.7</ele>
        <time>2021-09-20T14:35:00Z</time>
      </trkpt>
      <trkpt lat="43.71091" lon="7.17806">
        <ele>37.7</ele>
        <time>2021-09-20T14:35:02Z</time>
      </trkpt>
      <trkpt lat="43.71088" lon="7.17805">
        <ele>37.7</ele>
        <time>2021-09-20T14:35:03Z</time>
      </trkpt>
      <trkpt lat="43.71084" lon="7.17803">
        <ele>37.7</ele>
        <time>2021-09-20T14:35:04Z</time>
      </trkpt>
      <trkpt lat="43.71081" lon="7.17801">
        <ele>37.7</ele>
        <time>2021-09-20T14:35:06Z</time>
      </trkpt>
      <trkpt lat="43.70983" lon="7.17804">
        <ele>37</ele>
        <time>2021-09-20T14:35:25Z</time>
      </trkpt>
      <trkpt lat="43.70963" lon="7.1781">
        <ele>36.9</ele>
        <time>2021-09-20T14:35:27Z</time>
      </trkpt>
      <trkpt lat="43.70954" lon="7.17813">
        <ele>36.9</ele>
        <time>2021-09-20T14:35:28Z</time>
      </trkpt>
      <trkpt lat="43.70941" lon="7.17815">
        <ele>36.9</ele>
        <time>2021-09-20T14:35:30Z</time>
      </trkpt>
      <trkpt lat="43.70937" lon="7.17816">
        <ele>36.9</ele>
        <time>2021-09-20T14:35:31Z</time>
      </trkpt>
      <trkpt lat="43.7093" lon="7.17816">
        <ele>36.9</ele>
        <time>2021-09-20T14:35:32Z</time>
      </trkpt>
      <trkpt lat="43.70924" lon="7.17814">
        <ele>36.9</ele>
        <time>2021-09-20T14:35:33Z</time>
      </trkpt>
      <trkpt lat="43.70915" lon="7.1781">
        <ele>36.8</ele>
        <time>2021-09-20T14:35:35Z</time>
      </trkpt>
      <trkpt lat="43.70901" lon="7.17805">
        <ele>36.8</ele>
        <time>2021-09-20T14:35:36Z</time>
      </trkpt>
      <trkpt lat="43.70886" lon="7.17802">
        <ele>36.7</ele>
        <time>2021-09-20T14:35:38Z</time>
      </trkpt>
      <trkpt lat="43.70879" lon="7.17801">
        <ele>36.7</ele>
        <time>2021-09-20T14:35:39Z</time>
      </trkpt>
      <trkpt lat="43.70866" lon="7.17801">
        <ele>36.7</ele>
        <time>2021-09-20T14:35:41Z</time>
      </trkpt>
      <trkpt lat="43.7086" lon="7.17801">
        <ele>36.7</ele>
        <time>2021-09-20T14:35:42Z</time>
      </trkpt>
      <trkpt lat="43.70854" lon="7.17802">
        <ele>36.7</ele>
        <time>2021-09-20T14:35:43Z</time>
      </trkpt>
      <trkpt lat="43.70848" lon="7.17804">
        <ele>36.7</ele>
        <time>2021-09-20T14:35:44Z</time>
      </trkpt>
      <trkpt lat="43.7084" lon="7.17806">
        <ele>36.7</ele>
        <time>2021-09-20T14:35:46Z</time>
      </trkpt>
      <trkpt lat="43.70836" lon="7.17808">
        <ele>36.7</ele>
        <time>2021-09-20T14:35:47Z</time>
      </trkpt>
      <trkpt lat="43.70828" lon="7.1781">
        <ele>36.7</ele>
        <time>2021-09-20T14:35:49Z</time>
      </trkpt>
      <trkpt lat="43.70822" lon="7.17812">
        <ele>36.7</ele>
        <time>2021-09-20T14:35:50Z</time>
      </trkpt>
      <trkpt lat="43.70818" lon="7.17812">
        <ele>36.7</ele>
        <time>2021-09-20T14:35:51Z</time>
      </trkpt>
      <trkpt lat="43.70814" lon="7.17814">
        <ele>36.7</ele>
        <time>2021-09-20T14:35:52Z</time>
      </trkpt>
      <trkpt lat="43.70807" lon="7.17815">
        <ele>36.6</ele>
        <time>2021-09-20T14:35:54Z</time>
      </trkpt>
      <trkpt lat="43.70803" lon="7.17816">
        <ele>36.6</ele>
        <time>2021-09-20T14:35:55Z</time>
      </trkpt>
      <trkpt lat="43.70792" lon="7.17815">
        <ele>36.5</ele>
        <time>2021-09-20T14:35:57Z</time>
      </trkpt>
      <trkpt lat="43.70784" lon="7.17813">
        <ele>36.4</ele>
        <time>2021-09-20T14:35:58Z</time>
      </trkpt>
      <trkpt lat="43.70777" lon="7.17812">
        <ele>36.3</ele>
        <time>2021-09-20T14:35:59Z</time>
      </trkpt>
      <trkpt lat="43.70767" lon="7.17815">
        <ele>36.1</ele>
        <time>2021-09-20T14:36:01Z</time>
      </trkpt>
      <trkpt lat="43.70762" lon="7.17817">
        <ele>36.1</ele>
        <time>2021-09-20T14:36:02Z</time>
      </trkpt>
      <trkpt lat="43.70753" lon="7.1782">
        <ele>36</ele>
        <time>2021-09-20T14:36:04Z</time>
      </trkpt>
      <trkpt lat="43.7075" lon="7.1782">
        <ele>36</ele>
        <time>2021-09-20T14:36:06Z</time>
      </trkpt>
      <trkpt lat="43.70748" lon="7.1782">
        <ele>35.9</ele>
        <time>2021-09-20T14:36:07Z</time>
      </trkpt>
      <trkpt lat="43.70743" lon="7.1782">
        <ele>35.9</ele>
        <time>2021-09-20T14:36:09Z</time>
      </trkpt>
      <trkpt lat="43.70739" lon="7.1782">
        <ele>35.8</ele>
        <time>2021-09-20T14:36:10Z</time>
      </trkpt>
      <trkpt lat="43.70736" lon="7.17819">
        <ele>35.8</ele>
        <time>2021-09-20T14:36:11Z</time>
      </trkpt>
      <trkpt lat="43.70733" lon="7.17818">
        <ele>35.8</ele>
        <time>2021-09-20T14:36:13Z</time>
      </trkpt>
      <trkpt lat="43.70731" lon="7.17817">
        <ele>35.7</ele>
        <time>2021-09-20T14:36:14Z</time>
      </trkpt>
      <trkpt lat="43.7073" lon="7.17817">
        <ele>35.7</ele>
        <time>2021-09-20T14:36:16Z</time>
      </trkpt>
      <trkpt lat="43.70704" lon="7.1781">
        <ele>35.4</ele>
        <time>2021-09-20T14:36:26Z</time>
      </trkpt>
      <trkpt lat="43.70696" lon="7.17805">
        <ele>35.4</ele>
        <time>2021-09-20T14:36:27Z</time>
      </trkpt>
      <trkpt lat="43.70693" lon="7.17802">
        <ele>35.4</ele>
        <time>2021-09-20T14:36:28Z</time>
      </trkpt>
      <trkpt lat="43.70685" lon="7.17799">
        <ele>35.5</ele>
        <time>2021-09-20T14:36:30Z</time>
      </trkpt>
      <trkpt lat="43.70678" lon="7.17798">
        <ele>35.6</ele>
        <time>2021-09-20T14:36:31Z</time>
      </trkpt>
      <trkpt lat="43.70673" lon="7.17797">
        <ele>35.6</ele>
        <time>2021-09-20T14:36:32Z</time>
      </trkpt>
      <trkpt lat="43.70661" lon="7.17797">
        <ele>35.7</ele>
        <time>2021-09-20T14:36:33Z</time>
      </trkpt>
      <trkpt lat="43.70646" lon="7.17795">
        <ele>35.8</ele>
        <time>2021-09-20T14:36:35Z</time>
      </trkpt>
      <trkpt lat="43.70634" lon="7.17792">
        <ele>35.9</ele>
        <time>2021-09-20T14:36:37Z</time>
      </trkpt>
      <trkpt lat="43.70629" lon="7.1779">
        <ele>36</ele>
        <time>2021-09-20T14:36:38Z</time>
      </trkpt>
      <trkpt lat="43.70621" lon="7.17781">
        <ele>36.1</ele>
        <time>2021-09-20T14:36:40Z</time>
      </trkpt>
      <trkpt lat="43.70621" lon="7.17775">
        <ele>36.2</ele>
        <time>2021-09-20T14:36:41Z</time>
      </trkpt>
      <trkpt lat="43.70619" lon="7.17773">
        <ele>36.2</ele>
        <time>2021-09-20T14:36:42Z</time>
      </trkpt>
      <trkpt lat="43.70617" lon="7.1777">
        <ele>36.2</ele>
        <time>2021-09-20T14:36:43Z</time>
      </trkpt>
      <trkpt lat="43.70616" lon="7.17769">
        <ele>36.2</ele>
        <time>2021-09-20T14:36:44Z</time>
      </trkpt>
      <trkpt lat="43.70614" lon="7.17763">
        <ele>36.3</ele>
        <time>2021-09-20T14:36:46Z</time>
      </trkpt>
      <trkpt lat="43.70612" lon="7.17758">
        <ele>36.3</ele>
        <time>2021-09-20T14:36:47Z</time>
      </trkpt>
      <trkpt lat="43.70608" lon="7.17755">
        <ele>36.3</ele>
        <time>2021-09-20T14:36:49Z</time>
      </trkpt>
      <trkpt lat="43.70606" lon="7.17754">
        <ele>36.4</ele>
        <time>2021-09-20T14:36:50Z</time>
      </trkpt>
      <trkpt lat="43.70602" lon="7.1775">
        <ele>36.4</ele>
        <time>2021-09-20T14:36:52Z</time>
      </trkpt>
      <trkpt lat="43.70599" lon="7.17746">
        <ele>36.4</ele>
        <time>2021-09-20T14:36:53Z</time>
      </trkpt>
      <trkpt lat="43.70597" lon="7.17744">
        <ele>36.4</ele>
        <time>2021-09-20T14:36:54Z</time>
      </trkpt>
      <trkpt lat="43.70592" lon="7.17741">
        <ele>36.5</ele>
        <time>2021-09-20T14:36:56Z</time>
      </trkpt>
      <trkpt lat="43.70588" lon="7.17738">
        <ele>36.6</ele>
        <time>2021-09-20T14:36:57Z</time>
      </trkpt>
      <trkpt lat="43.70586" lon="7.17732">
        <ele>36.6</ele>
        <time>2021-09-20T14:36:59Z</time>
      </trkpt>
      <trkpt lat="43.70584" lon="7.17727">
        <ele>36.7</ele>
        <time>2021-09-20T14:37:01Z</time>
      </trkpt>
      <trkpt lat="43.70582" lon="7.17721">
        <ele>36.8</ele>
        <time>2021-09-20T14:37:02Z</time>
      </trkpt>
      <trkpt lat="43.70573" lon="7.17719">
        <ele>36.8</ele>
        <time>2021-09-20T14:37:03Z</time>
      </trkpt>
      <trkpt lat="43.70561" lon="7.17718">
        <ele>36.9</ele>
        <time>2021-09-20T14:37:05Z</time>
      </trkpt>
      <trkpt lat="43.70554" lon="7.17718">
        <ele>36.9</ele>
        <time>2021-09-20T14:37:06Z</time>
      </trkpt>
      <trkpt lat="43.7054" lon="7.17721">
        <ele>36.9</ele>
        <time>2021-09-20T14:37:08Z</time>
      </trkpt>
      <trkpt lat="43.70528" lon="7.17727">
        <ele>37</ele>
        <time>2021-09-20T14:37:10Z</time>
      </trkpt>
      <trkpt lat="43.7052" lon="7.17734">
        <ele>37</ele>
        <time>2021-09-20T14:37:12Z</time>
      </trkpt>
      <trkpt lat="43.70513" lon="7.17739">
        <ele>37</ele>
        <time>2021-09-20T14:37:14Z</time>
      </trkpt>
      <trkpt lat="43.70507" lon="7.17748">
        <ele>37</ele>
        <time>2021-09-20T14:37:15Z</time>
      </trkpt>
      <trkpt lat="43.705" lon="7.17756">
        <ele>37</ele>
        <time>2021-09-20T14:37:17Z</time>
      </trkpt>
      <trkpt lat="43.70492" lon="7.17766">
        <ele>37</ele>
        <time>2021-09-20T14:37:19Z</time>
      </trkpt>
      <trkpt lat="43.70487" lon="7.17771">
        <ele>37</ele>
        <time>2021-09-20T14:37:20Z</time>
      </trkpt>
      <trkpt lat="43.70482" lon="7.17775">
        <ele>37</ele>
        <time>2021-09-20T14:37:21Z</time>
      </trkpt>
      <trkpt lat="43.70473" lon="7.17782">
        <ele>36.9</ele>
        <time>2021-09-20T14:37:23Z</time>
      </trkpt>
      <trkpt lat="43.70467" lon="7.17786">
        <ele>36.9</ele>
        <time>2021-09-20T14:37:24Z</time>
      </trkpt>
      <trkpt lat="43.70458" lon="7.17789">
        <ele>36.8</ele>
        <time>2021-09-20T14:37:26Z</time>
      </trkpt>
      <trkpt lat="43.7045" lon="7.17793">
        <ele>36.8</ele>
        <time>2021-09-20T14:37:28Z</time>
      </trkpt>
      <trkpt lat="43.70448" lon="7.17795">
        <ele>36.8</ele>
        <time>2021-09-20T14:37:29Z</time>
      </trkpt>
      <trkpt lat="43.70445" lon="7.17798">
        <ele>36.8</ele>
        <time>2021-09-20T14:37:30Z</time>
      </trkpt>
      <trkpt lat="43.70445" lon="7.17799">
        <ele>36.8</ele>
        <time>2021-09-20T14:37:31Z</time>
      </trkpt>
      <trkpt lat="43.7044" lon="7.17804">
        <ele>36.8</ele>
        <time>2021-09-20T14:37:33Z</time>
      </trkpt>
      <trkpt lat="43.70437" lon="7.17807">
        <ele>36.8</ele>
        <time>2021-09-20T14:37:34Z</time>
      </trkpt>
      <trkpt lat="43.70436" lon="7.17813">
        <ele>36.8</ele>
        <time>2021-09-20T14:37:36Z</time>
      </trkpt>
      <trkpt lat="43.70437" lon="7.17816">
        <ele>36.8</ele>
        <time>2021-09-20T14:37:38Z</time>
      </trkpt>
      <trkpt lat="43.70438" lon="7.17818">
        <ele>36.8</ele>
        <time>2021-09-20T14:37:39Z</time>
      </trkpt>
      <trkpt lat="43.70439" lon="7.17821">
        <ele>36.8</ele>
        <time>2021-09-20T14:37:40Z</time>
      </trkpt>
      <trkpt lat="43.7044" lon="7.17818">
        <ele>36.8</ele>
        <time>2021-09-20T14:37:41Z</time>
      </trkpt>
      <trkpt lat="43.70441" lon="7.17817">
        <ele>36.8</ele>
        <time>2021-09-20T14:37:43Z</time>
      </trkpt>
      <trkpt lat="43.70441" lon="7.17815">
        <ele>36.8</ele>
        <time>2021-09-20T14:37:44Z</time>
      </trkpt>
      <trkpt lat="43.70442" lon="7.17814">
        <ele>36.8</ele>
        <time>2021-09-20T14:37:46Z</time>
      </trkpt>
      <trkpt lat="43.70443" lon="7.17812">
        <ele>36.8</ele>
        <time>2021-09-20T14:37:47Z</time>
      </trkpt>
      <trkpt lat="43.70444" lon="7.17811">
        <ele>36.7</ele>
        <time>2021-09-20T14:37:49Z</time>
      </trkpt>
      <trkpt lat="43.70445" lon="7.17809">
        <ele>36.7</ele>
        <time>2021-09-20T14:37:57Z</time>
      </trkpt>
      <trkpt lat="43.70446" lon="7.17808">
        <ele>36.7</ele>
        <time>2021-09-20T14:37:58Z</time>
      </trkpt>
      <trkpt lat="43.70447" lon="7.17796">
        <ele>36.7</ele>
        <time>2021-09-20T14:38:00Z</time>
      </trkpt>
      <trkpt lat="43.70447" lon="7.1779">
        <ele>36.7</ele>
        <time>2021-09-20T14:38:02Z</time>
      </trkpt>
      <trkpt lat="43.70445" lon="7.17785">
        <ele>36.7</ele>
        <time>2021-09-20T14:38:03Z</time>
      </trkpt>
      <trkpt lat="43.70436" lon="7.17788">
        <ele>36.6</ele>
        <time>2021-09-20T14:38:05Z</time>
      </trkpt>
      <trkpt lat="43.70429" lon="7.17794">
        <ele>36.6</ele>
        <time>2021-09-20T14:38:07Z</time>
      </trkpt>
      <trkpt lat="43.70422" lon="7.17799">
        <ele>36.5</ele>
        <time>2021-09-20T14:38:08Z</time>
      </trkpt>
      <trkpt lat="43.70415" lon="7.17804">
        <ele>36.5</ele>
        <time>2021-09-20T14:38:10Z</time>
      </trkpt>
      <trkpt lat="43.70408" lon="7.1781">
        <ele>36.4</ele>
        <time>2021-09-20T14:38:45Z</time>
      </trkpt>
      <trkpt lat="43.70401" lon="7.17815">
        <ele>36.3</ele>
        <time>2021-09-20T14:38:46Z</time>
      </trkpt>
      <trkpt lat="43.70395" lon="7.17816">
        <ele>36.3</ele>
        <time>2021-09-20T14:38:47Z</time>
      </trkpt>
      <trkpt lat="43.7038" lon="7.17818">
        <ele>36.1</ele>
        <time>2021-09-20T14:38:49Z</time>
      </trkpt>
      <trkpt lat="43.70369" lon="7.17823">
        <ele>35.9</ele>
        <time>2021-09-20T14:38:51Z</time>
      </trkpt>
      <trkpt lat="43.70365" lon="7.17824">
        <ele>35.8</ele>
        <time>2021-09-20T14:38:52Z</time>
      </trkpt>
      <trkpt lat="43.70359" lon="7.17826">
        <ele>35.7</ele>
        <time>2021-09-20T14:38:53Z</time>
      </trkpt>
      <trkpt lat="43.70355" lon="7.17827">
        <ele>35.6</ele>
        <time>2021-09-20T14:38:54Z</time>
      </trkpt>
      <trkpt lat="43.70344" lon="7.17831">
        <ele>35.4</ele>
        <time>2021-09-20T14:38:56Z</time>
      </trkpt>
      <trkpt lat="43.70339" lon="7.17833">
        <ele>35.3</ele>
        <time>2021-09-20T14:38:57Z</time>
      </trkpt>
      <trkpt lat="43.70334" lon="7.17834">
        <ele>35.2</ele>
        <time>2021-09-20T14:38:58Z</time>
      </trkpt>
      <trkpt lat="43.70328" lon="7.17836">
        <ele>35.1</ele>
        <time>2021-09-20T14:38:59Z</time>
      </trkpt>
      <trkpt lat="43.70316" lon="7.17841">
        <ele>34.9</ele>
        <time>2021-09-20T14:39:01Z</time>
      </trkpt>
      <trkpt lat="43.70307" lon="7.17846">
        <ele>34.7</ele>
        <time>2021-09-20T14:39:03Z</time>
      </trkpt>
      <trkpt lat="43.70304" lon="7.17848">
        <ele>34.7</ele>
        <time>2021-09-20T14:39:04Z</time>
      </trkpt>
      <trkpt lat="43.70302" lon="7.17851">
        <ele>34.7</ele>
        <time>2021-09-20T14:39:05Z</time>
      </trkpt>
      <trkpt lat="43.70301" lon="7.17852">
        <ele>34.6</ele>
        <time>2021-09-20T14:39:07Z</time>
      </trkpt>
      <trkpt lat="43.70299" lon="7.17853">
        <ele>34.6</ele>
        <time>2021-09-20T14:39:08Z</time>
      </trkpt>
      <trkpt lat="43.70298" lon="7.17854">
        <ele>34.6</ele>
        <time>2021-09-20T14:39:09Z</time>
      </trkpt>
      <trkpt lat="43.70289" lon="7.17859">
        <ele>34.5</ele>
        <time>2021-09-20T14:39:11Z</time>
      </trkpt>
      <trkpt lat="43.70278" lon="7.17869">
        <ele>34.4</ele>
        <time>2021-09-20T14:39:12Z</time>
      </trkpt>
      <trkpt lat="43.70271" lon="7.17874">
        <ele>34.3</ele>
        <time>2021-09-20T14:39:14Z</time>
      </trkpt>
      <trkpt lat="43.70271" lon="7.17874">
        <ele>34.3</ele>
        <time>2021-09-20T14:39:14Z</time>
      </trkpt>
      <trkpt lat="43.70262" lon="7.17884">
        <ele>34.4</ele>
        <time>2021-09-20T14:39:15Z</time>
      </trkpt>
      <trkpt lat="43.70256" lon="7.17889">
        <ele>34.4</ele>
        <time>2021-09-20T14:39:16Z</time>
      </trkpt>
      <trkpt lat="43.70252" lon="7.17893">
        <ele>34.4</ele>
        <time>2021-09-20T14:39:17Z</time>
      </trkpt>
      <trkpt lat="43.70248" lon="7.17895">
        <ele>34.4</ele>
        <time>2021-09-20T14:39:18Z</time>
      </trkpt>
      <trkpt lat="43.70245" lon="7.17892">
        <ele>34.4</ele>
        <time>2021-09-20T14:39:19Z</time>
      </trkpt>
      <trkpt lat="43.7024" lon="7.17896">
        <ele>34.3</ele>
        <time>2021-09-20T14:39:21Z</time>
      </trkpt>
      <trkpt lat="43.70236" lon="7.17901">
        <ele>34.3</ele>
        <time>2021-09-20T14:39:22Z</time>
      </trkpt>
      <trkpt lat="43.70231" lon="7.17906">
        <ele>34.3</ele>
        <time>2021-09-20T14:39:24Z</time>
      </trkpt>
      <trkpt lat="43.70233" lon="7.17904">
        <ele>34.3</ele>
        <time>2021-09-20T14:39:25Z</time>
      </trkpt>
      <trkpt lat="43.70235" lon="7.17903">
        <ele>34.3</ele>
        <time>2021-09-20T14:39:26Z</time>
      </trkpt>
      <trkpt lat="43.70236" lon="7.17902">
        <ele>34.3</ele>
        <time>2021-09-20T14:39:28Z</time>
      </trkpt>
      <trkpt lat="43.70236" lon="7.17901">
        <ele>34.3</ele>
        <time>2021-09-20T14:39:30Z</time>
      </trkpt>
      <trkpt lat="43.70236" lon="7.17899">
        <ele>34.3</ele>
        <time>2021-09-20T14:39:32Z</time>
      </trkpt>
      <trkpt lat="43.70236" lon="7.17898">
        <ele>34.3</ele>
        <time>2021-09-20T14:39:33Z</time>
      </trkpt>
      <trkpt lat="43.70235" lon="7.17899">
        <ele>34.3</ele>
        <time>2021-09-20T14:39:34Z</time>
      </trkpt>
      <trkpt lat="43.70098" lon="7.18118">
        <ele>32.1</ele>
        <time>2021-09-20T14:40:02Z</time>
      </trkpt>
      <trkpt lat="43.7009" lon="7.18131">
        <ele>31.7</ele>
        <time>2021-09-20T14:40:03Z</time>
      </trkpt>
      <trkpt lat="43.70077" lon="7.18147">
        <ele>31.1</ele>
        <time>2021-09-20T14:40:05Z</time>
      </trkpt>
      <trkpt lat="43.70066" lon="7.18157">
        <ele>30.7</ele>
        <time>2021-09-20T14:40:07Z</time>
      </trkpt>
      <trkpt lat="43.7006" lon="7.18162">
        <ele>30.6</ele>
        <time>2021-09-20T14:40:08Z</time>
      </trkpt>
      <trkpt lat="43.70043" lon="7.18167">
        <ele>30.3</ele>
        <time>2021-09-20T14:40:10Z</time>
      </trkpt>
      <trkpt lat="43.70036" lon="7.18169">
        <ele>30.1</ele>
        <time>2021-09-20T14:40:11Z</time>
      </trkpt>
      <trkpt lat="43.70024" lon="7.18172">
        <ele>30</ele>
        <time>2021-09-20T14:40:13Z</time>
      </trkpt>
      <trkpt lat="43.70018" lon="7.18173">
        <ele>30</ele>
        <time>2021-09-20T14:40:14Z</time>
      </trkpt>
      <trkpt lat="43.70011" lon="7.18174">
        <ele>29.9</ele>
        <time>2021-09-20T14:40:15Z</time>
      </trkpt>
      <trkpt lat="43.70005" lon="7.18173">
        <ele>29.9</ele>
        <time>2021-09-20T14:40:16Z</time>
      </trkpt>
      <trkpt lat="43.69998" lon="7.18172">
        <ele>29.9</ele>
        <time>2021-09-20T14:40:17Z</time>
      </trkpt>
      <trkpt lat="43.69992" lon="7.1817">
        <ele>29.9</ele>
        <time>2021-09-20T14:40:18Z</time>
      </trkpt>
      <trkpt lat="43.6998" lon="7.18167">
        <ele>30</ele>
        <time>2021-09-20T14:40:20Z</time>
      </trkpt>
      <trkpt lat="43.69975" lon="7.18167">
        <ele>30</ele>
        <time>2021-09-20T14:40:21Z</time>
      </trkpt>
      <trkpt lat="43.69969" lon="7.18166">
        <ele>30</ele>
        <time>2021-09-20T14:40:22Z</time>
      </trkpt>
      <trkpt lat="43.69964" lon="7.18165">
        <ele>30</ele>
        <time>2021-09-20T14:40:23Z</time>
      </trkpt>
      <trkpt lat="43.69954" lon="7.18166">
        <ele>30.6</ele>
        <time>2021-09-20T14:40:25Z</time>
      </trkpt>
      <trkpt lat="43.69949" lon="7.18167">
        <ele>30.7</ele>
        <time>2021-09-20T14:40:26Z</time>
      </trkpt>
      <trkpt lat="43.69939" lon="7.18168">
        <ele>30.7</ele>
        <time>2021-09-20T14:40:28Z</time>
      </trkpt>
      <trkpt lat="43.69935" lon="7.18168">
        <ele>30.8</ele>
        <time>2021-09-20T14:40:29Z</time>
      </trkpt>
      <trkpt lat="43.69931" lon="7.18169">
        <ele>30.8</ele>
        <time>2021-09-20T14:40:30Z</time>
      </trkpt>
      <trkpt lat="43.69926" lon="7.18169">
        <ele>30.9</ele>
        <time>2021-09-20T14:40:32Z</time>
      </trkpt>
      <trkpt lat="43.69923" lon="7.18169">
        <ele>30.9</ele>
        <time>2021-09-20T14:40:33Z</time>
      </trkpt>
      <trkpt lat="43.69922" lon="7.18169">
        <ele>31</ele>
        <time>2021-09-20T14:40:34Z</time>
      </trkpt>
      <trkpt lat="43.69917" lon="7.1817">
        <ele>31</ele>
        <time>2021-09-20T14:40:36Z</time>
      </trkpt>
      <trkpt lat="43.69915" lon="7.18169">
        <ele>31.1</ele>
        <time>2021-09-20T14:40:38Z</time>
      </trkpt>
      <trkpt lat="43.69914" lon="7.18169">
        <ele>31.1</ele>
        <time>2021-09-20T14:40:39Z</time>
      </trkpt>
      <trkpt lat="43.69913" lon="7.18169">
        <ele>31.1</ele>
        <time>2021-09-20T14:40:40Z</time>
      </trkpt>
      <trkpt lat="43.69911" lon="7.18169">
        <ele>31.1</ele>
        <time>2021-09-20T14:40:41Z</time>
      </trkpt>
      <trkpt lat="43.69908" lon="7.18168">
        <ele>31.2</ele>
        <time>2021-09-20T14:40:43Z</time>
      </trkpt>
      <trkpt lat="43.69906" lon="7.18168">
        <ele>31.2</ele>
        <time>2021-09-20T14:40:44Z</time>
      </trkpt>
      <trkpt lat="43.69896" lon="7.18167">
        <ele>31.4</ele>
        <time>2021-09-20T14:40:46Z</time>
      </trkpt>
      <trkpt lat="43.69875" lon="7.18168">
        <ele>31.8</ele>
        <time>2021-09-20T14:40:47Z</time>
      </trkpt>
      <trkpt lat="43.69855" lon="7.18171">
        <ele>32.1</ele>
        <time>2021-09-20T14:40:49Z</time>
      </trkpt>
      <trkpt lat="43.69847" lon="7.18173">
        <ele>32.2</ele>
        <time>2021-09-20T14:40:50Z</time>
      </trkpt>
      <trkpt lat="43.69841" lon="7.18176">
        <ele>32.3</ele>
        <time>2021-09-20T14:40:51Z</time>
      </trkpt>
      <trkpt lat="43.6983" lon="7.18182">
        <ele>32.4</ele>
        <time>2021-09-20T14:40:53Z</time>
      </trkpt>
      <trkpt lat="43.69825" lon="7.18185">
        <ele>32.5</ele>
        <time>2021-09-20T14:40:54Z</time>
      </trkpt>
      <trkpt lat="43.69816" lon="7.18187">
        <ele>32.6</ele>
        <time>2021-09-20T14:40:56Z</time>
      </trkpt>
      <trkpt lat="43.69813" lon="7.18188">
        <ele>32.6</ele>
        <time>2021-09-20T14:40:57Z</time>
      </trkpt>
      <trkpt lat="43.69813" lon="7.18188">
        <ele>32.6</ele>
        <time>2021-09-20T14:40:58Z</time>
      </trkpt>
      <trkpt lat="43.69813" lon="7.18188">
        <ele>32.6</ele>
        <time>2021-09-20T14:41:00Z</time>
      </trkpt>
      <trkpt lat="43.69811" lon="7.18188">
        <ele>32.6</ele>
        <time>2021-09-20T14:41:01Z</time>
      </trkpt>
      <trkpt lat="43.69811" lon="7.18189">
        <ele>32.6</ele>
        <time>2021-09-20T14:41:02Z</time>
      </trkpt>
      <trkpt lat="43.6981" lon="7.1819">
        <ele>32.6</ele>
        <time>2021-09-20T14:41:03Z</time>
      </trkpt>
      <trkpt lat="43.69809" lon="7.1819">
        <ele>32.6</ele>
        <time>2021-09-20T14:41:05Z</time>
      </trkpt>
      <trkpt lat="43.69806" lon="7.18193">
        <ele>32.6</ele>
        <time>2021-09-20T14:41:07Z</time>
      </trkpt>
      <trkpt lat="43.69773" lon="7.18227">
        <ele>32.4</ele>
        <time>2021-09-20T14:41:19Z</time>
      </trkpt>
      <trkpt lat="43.69753" lon="7.1824">
        <ele>32.1</ele>
        <time>2021-09-20T14:41:21Z</time>
      </trkpt>
      <trkpt lat="43.69744" lon="7.18246">
        <ele>31.9</ele>
        <time>2021-09-20T14:41:22Z</time>
      </trkpt>
      <trkpt lat="43.69738" lon="7.18252">
        <ele>31.8</ele>
        <time>2021-09-20T14:41:23Z</time>
      </trkpt>
      <trkpt lat="43.6973" lon="7.18262">
        <ele>31.6</ele>
        <time>2021-09-20T14:41:25Z</time>
      </trkpt>
      <trkpt lat="43.69723" lon="7.18272">
        <ele>31.5</ele>
        <time>2021-09-20T14:41:27Z</time>
      </trkpt>
      <trkpt lat="43.69721" lon="7.18277">
        <ele>31.4</ele>
        <time>2021-09-20T14:41:28Z</time>
      </trkpt>
      <trkpt lat="43.69716" lon="7.18287">
        <ele>31.3</ele>
        <time>2021-09-20T14:41:30Z</time>
      </trkpt>
      <trkpt lat="43.69714" lon="7.18292">
        <ele>31.3</ele>
        <time>2021-09-20T14:41:31Z</time>
      </trkpt>
      <trkpt lat="43.69709" lon="7.183">
        <ele>31.2</ele>
        <time>2021-09-20T14:41:33Z</time>
      </trkpt>
      <trkpt lat="43.69706" lon="7.18303">
        <ele>31.1</ele>
        <time>2021-09-20T14:41:34Z</time>
      </trkpt>
      <trkpt lat="43.69693" lon="7.18308">
        <ele>31</ele>
        <time>2021-09-20T14:41:36Z</time>
      </trkpt>
      <trkpt lat="43.6968" lon="7.18309">
        <ele>30.9</ele>
        <time>2021-09-20T14:41:38Z</time>
      </trkpt>
      <trkpt lat="43.69676" lon="7.1831">
        <ele>30.9</ele>
        <time>2021-09-20T14:41:39Z</time>
      </trkpt>
      <trkpt lat="43.69669" lon="7.18311">
        <ele>30.8</ele>
        <time>2021-09-20T14:41:40Z</time>
      </trkpt>
      <trkpt lat="43.69658" lon="7.18315">
        <ele>30.8</ele>
        <time>2021-09-20T14:41:42Z</time>
      </trkpt>
      <trkpt lat="43.69652" lon="7.18317">
        <ele>30.8</ele>
        <time>2021-09-20T14:41:43Z</time>
      </trkpt>
      <trkpt lat="43.69644" lon="7.18319">
        <ele>30.7</ele>
        <time>2021-09-20T14:41:45Z</time>
      </trkpt>
      <trkpt lat="43.6964" lon="7.18319">
        <ele>30.7</ele>
        <time>2021-09-20T14:41:46Z</time>
      </trkpt>
      <trkpt lat="43.69635" lon="7.18319">
        <ele>30.7</ele>
        <time>2021-09-20T14:41:47Z</time>
      </trkpt>
      <trkpt lat="43.69629" lon="7.18318">
        <ele>30.7</ele>
        <time>2021-09-20T14:41:49Z</time>
      </trkpt>
      <trkpt lat="43.69624" lon="7.18317">
        <ele>30.7</ele>
        <time>2021-09-20T14:41:50Z</time>
      </trkpt>
      <trkpt lat="43.69618" lon="7.18315">
        <ele>30.6</ele>
        <time>2021-09-20T14:41:52Z</time>
      </trkpt>
      <trkpt lat="43.69614" lon="7.18313">
        <ele>30.6</ele>
        <time>2021-09-20T14:41:53Z</time>
      </trkpt>
      <trkpt lat="43.69611" lon="7.18309">
        <ele>30.6</ele>
        <time>2021-09-20T14:41:54Z</time>
      </trkpt>
      <trkpt lat="43.69608" lon="7.18306">
        <ele>30.6</ele>
        <time>2021-09-20T14:41:55Z</time>
      </trkpt>
      <trkpt lat="43.696" lon="7.18307">
        <ele>30.6</ele>
        <time>2021-09-20T14:41:56Z</time>
      </trkpt>
      <trkpt lat="43.69593" lon="7.1831">
        <ele>30.5</ele>
        <time>2021-09-20T14:41:58Z</time>
      </trkpt>
      <trkpt lat="43.69591" lon="7.1831">
        <ele>30.5</ele>
        <time>2021-09-20T14:41:59Z</time>
      </trkpt>
      <trkpt lat="43.69586" lon="7.18309">
        <ele>30.5</ele>
        <time>2021-09-20T14:42:01Z</time>
      </trkpt>
      <trkpt lat="43.69584" lon="7.1831">
        <ele>30.5</ele>
        <time>2021-09-20T14:42:02Z</time>
      </trkpt>
      <trkpt lat="43.69582" lon="7.1831">
        <ele>30.5</ele>
        <time>2021-09-20T14:42:04Z</time>
      </trkpt>
      <trkpt lat="43.69581" lon="7.18309">
        <ele>30.5</ele>
        <time>2021-09-20T14:42:05Z</time>
      </trkpt>
      <trkpt lat="43.69579" lon="7.18307">
        <ele>30.5</ele>
        <time>2021-09-20T14:42:07Z</time>
      </trkpt>
      <trkpt lat="43.69578" lon="7.18306">
        <ele>30.5</ele>
        <time>2021-09-20T14:42:09Z</time>
      </trkpt>
      <trkpt lat="43.69578" lon="7.18306">
        <ele>30.5</ele>
        <time>2021-09-20T14:42:11Z</time>
      </trkpt>
      <trkpt lat="43.69578" lon="7.18306">
        <ele>30.5</ele>
        <time>2021-09-20T14:42:12Z</time>
      </trkpt>
      <trkpt lat="43.69578" lon="7.18306">
        <ele>30.5</ele>
        <time>2021-09-20T14:42:13Z</time>
      </trkpt>
      <trkpt lat="43.69577" lon="7.18306">
        <ele>30.5</ele>
        <time>2021-09-20T14:42:15Z</time>
      </trkpt>
      <trkpt lat="43.69577" lon="7.18306">
        <ele>30.5</ele>
        <time>2021-09-20T14:42:16Z</time>
      </trkpt>
      <trkpt lat="43.69577" lon="7.18306">
        <ele>30.5</ele>
        <time>2021-09-20T14:42:18Z</time>
      </trkpt>
      <trkpt lat="43.69581" lon="7.18295">
        <ele>30.5</ele>
        <time>2021-09-20T14:45:28Z</time>
      </trkpt>
      <trkpt lat="43.6958" lon="7.1831">
        <ele>30.5</ele>
        <time>2021-09-20T14:45:33Z</time>
      </trkpt>
      <trkpt lat="43.69584" lon="7.1831">
        <ele>30.4</ele>
        <time>2021-09-20T14:45:38Z</time>
      </trkpt>
      <trkpt lat="43.69583" lon="7.18309">
        <ele>30.4</ele>
        <time>2021-09-20T14:45:43Z</time>
      </trkpt>
      <trkpt lat="43.69583" lon="7.18308">
        <ele>30.4</ele>
        <time>2021-09-20T14:45:48Z</time>
      </trkpt>
      <trkpt lat="43.69583" lon="7.18308">
        <ele>30.4</ele>
        <time>2021-09-20T14:45:53Z</time>
      </trkpt>
      <trkpt lat="43.69582" lon="7.18307">
        <ele>30.4</ele>
        <time>2021-09-20T14:45:58Z</time>
      </trkpt>
      <trkpt lat="43.69582" lon="7.18306">
        <ele>30.4</ele>
        <time>2021-09-20T14:45:58Z</time>
      </trkpt>
      <trkpt lat="43.6958" lon="7.18308">
        <ele>30.4</ele>
        <time>2021-09-20T14:46:00Z</time>
      </trkpt>
      <trkpt lat="43.69579" lon="7.18309">
        <ele>30.4</ele>
        <time>2021-09-20T14:46:01Z</time>
      </trkpt>
      <trkpt lat="43.69577" lon="7.18314">
        <ele>30.4</ele>
        <time>2021-09-20T14:46:02Z</time>
      </trkpt>
      <trkpt lat="43.69575" lon="7.18321">
        <ele>30.4</ele>
        <time>2021-09-20T14:46:04Z</time>
      </trkpt>
      <trkpt lat="43.69574" lon="7.18323">
        <ele>30.4</ele>
        <time>2021-09-20T14:46:05Z</time>
      </trkpt>
      <trkpt lat="43.69574" lon="7.18322">
        <ele>30.4</ele>
        <time>2021-09-20T14:46:06Z</time>
      </trkpt>
      <trkpt lat="43.69574" lon="7.18321">
        <ele>30.4</ele>
        <time>2021-09-20T14:46:07Z</time>
      </trkpt>
      <trkpt lat="43.69575" lon="7.18318">
        <ele>30.4</ele>
        <time>2021-09-20T14:46:09Z</time>
      </trkpt>
      <trkpt lat="43.69576" lon="7.18315">
        <ele>30.4</ele>
        <time>2021-09-20T14:46:11Z</time>
      </trkpt>
      <trkpt lat="43.69584" lon="7.18302">
        <ele>30.4</ele>
        <time>2021-09-20T14:47:15Z</time>
      </trkpt>
      <trkpt lat="43.69586" lon="7.183">
        <ele>30.4</ele>
        <time>2021-09-20T14:47:17Z</time>
      </trkpt>
      <trkpt lat="43.69588" lon="7.18298">
        <ele>30.4</ele>
        <time>2021-09-20T14:47:18Z</time>
      </trkpt>
      <trkpt lat="43.69593" lon="7.18298">
        <ele>30.4</ele>
        <time>2021-09-20T14:47:20Z</time>
      </trkpt>
      <trkpt lat="43.69596" lon="7.183">
        <ele>30.4</ele>
        <time>2021-09-20T14:47:22Z</time>
      </trkpt>
      <trkpt lat="43.69595" lon="7.18302">
        <ele>30.4</ele>
        <time>2021-09-20T14:47:23Z</time>
      </trkpt>
      <trkpt lat="43.69593" lon="7.18302">
        <ele>30.4</ele>
        <time>2021-09-20T14:47:24Z</time>
      </trkpt>
      <trkpt lat="43.69591" lon="7.18303">
        <ele>30.4</ele>
        <time>2021-09-20T14:47:26Z</time>
      </trkpt>
      <trkpt lat="43.69589" lon="7.18304">
        <ele>30.4</ele>
        <time>2021-09-20T14:47:27Z</time>
      </trkpt>
      <trkpt lat="43.69587" lon="7.18305">
        <ele>30.4</ele>
        <time>2021-09-20T14:47:28Z</time>
      </trkpt>
      <trkpt lat="43.69585" lon="7.18305">
        <ele>30.4</ele>
        <time>2021-09-20T14:47:43Z</time>
      </trkpt>
      <trkpt lat="43.69583" lon="7.18306">
        <ele>30.4</ele>
        <time>2021-09-20T14:47:44Z</time>
      </trkpt>
      <trkpt lat="43.69575" lon="7.18312">
        <ele>30.4</ele>
        <time>2021-09-20T14:47:46Z</time>
      </trkpt>
      <trkpt lat="43.69567" lon="7.18314">
        <ele>30.4</ele>
        <time>2021-09-20T14:47:48Z</time>
      </trkpt>
      <trkpt lat="43.6956" lon="7.18315">
        <ele>30.3</ele>
        <time>2021-09-20T14:47:50Z</time>
      </trkpt>
      <trkpt lat="43.69555" lon="7.18314">
        <ele>30.3</ele>
        <time>2021-09-20T14:47:51Z</time>
      </trkpt>
      <trkpt lat="43.69552" lon="7.18314">
        <ele>30.3</ele>
        <time>2021-09-20T14:47:52Z</time>
      </trkpt>
      <trkpt lat="43.69546" lon="7.18312">
        <ele>30.3</ele>
        <time>2021-09-20T14:47:54Z</time>
      </trkpt>
      <trkpt lat="43.69543" lon="7.18311">
        <ele>30.3</ele>
        <time>2021-09-20T14:47:55Z</time>
      </trkpt>
      <trkpt lat="43.69542" lon="7.18311">
        <ele>30.3</ele>
        <time>2021-09-20T14:47:56Z</time>
      </trkpt>
      <trkpt lat="43.69538" lon="7.18309">
        <ele>30.3</ele>
        <time>2021-09-20T14:47:58Z</time>
      </trkpt>
      <trkpt lat="43.69534" lon="7.18309">
        <ele>30.3</ele>
        <time>2021-09-20T14:47:59Z</time>
      </trkpt>
      <trkpt lat="43.69532" lon="7.18308">
        <ele>30.3</ele>
        <time>2021-09-20T14:48:00Z</time>
      </trkpt>
      <trkpt lat="43.69529" lon="7.18308">
        <ele>30.3</ele>
        <time>2021-09-20T14:48:01Z</time>
      </trkpt>
      <trkpt lat="43.69525" lon="7.18307">
        <ele>30.3</ele>
        <time>2021-09-20T14:48:02Z</time>
      </trkpt>
      <trkpt lat="43.69521" lon="7.18307">
        <ele>30.3</ele>
        <time>2021-09-20T14:48:04Z</time>
      </trkpt>
      <trkpt lat="43.69518" lon="7.18306">
        <ele>30.3</ele>
        <time>2021-09-20T14:48:05Z</time>
      </trkpt>
      <trkpt lat="43.69517" lon="7.18306">
        <ele>30.3</ele>
        <time>2021-09-20T14:48:06Z</time>
      </trkpt>
      <trkpt lat="43.6951" lon="7.18304">
        <ele>30.3</ele>
        <time>2021-09-20T14:48:08Z</time>
      </trkpt>
      <trkpt lat="43.69506" lon="7.18304">
        <ele>30.3</ele>
        <time>2021-09-20T14:48:09Z</time>
      </trkpt>
      <trkpt lat="43.69502" lon="7.18303">
        <ele>30.3</ele>
        <time>2021-09-20T14:48:10Z</time>
      </trkpt>
      <trkpt lat="43.69488" lon="7.18303">
        <ele>30.4</ele>
        <time>2021-09-20T14:48:12Z</time>
      </trkpt>
      <trkpt lat="43.69482" lon="7.18303">
        <ele>30.4</ele>
        <time>2021-09-20T14:48:13Z</time>
      </trkpt>
      <trkpt lat="43.69471" lon="7.18303">
        <ele>30.4</ele>
        <time>2021-09-20T14:48:15Z</time>
      </trkpt>
      <trkpt lat="43.69465" lon="7.18305">
        <ele>30.4</ele>
        <time>2021-09-20T14:48:17Z</time>
      </trkpt>
      <trkpt lat="43.69457" lon="7.18306">
        <ele>30.4</ele>
        <time>2021-09-20T14:48:18Z</time>
      </trkpt>
      <trkpt lat="43.69453" lon="7.18308">
        <ele>30.4</ele>
        <time>2021-09-20T14:48:19Z</time>
      </trkpt>
      <trkpt lat="43.69448" lon="7.18307">
        <ele>30.4</ele>
        <time>2021-09-20T14:48:21Z</time>
      </trkpt>
      <trkpt lat="43.69444" lon="7.18304">
        <ele>30.5</ele>
        <time>2021-09-20T14:48:22Z</time>
      </trkpt>
      <trkpt lat="43.6944" lon="7.183">
        <ele>30.5</ele>
        <time>2021-09-20T14:48:23Z</time>
      </trkpt>
      <trkpt lat="43.69433" lon="7.18292">
        <ele>30.5</ele>
        <time>2021-09-20T14:48:25Z</time>
      </trkpt>
      <trkpt lat="43.6943" lon="7.18287">
        <ele>30.5</ele>
        <time>2021-09-20T14:48:26Z</time>
      </trkpt>
      <trkpt lat="43.69426" lon="7.18283">
        <ele>30.5</ele>
        <time>2021-09-20T14:48:28Z</time>
      </trkpt>
      <trkpt lat="43.69422" lon="7.18281">
        <ele>30.5</ele>
        <time>2021-09-20T14:48:30Z</time>
      </trkpt>
      <trkpt lat="43.69419" lon="7.18281">
        <ele>30.6</ele>
        <time>2021-09-20T14:48:31Z</time>
      </trkpt>
      <trkpt lat="43.69416" lon="7.18281">
        <ele>30.6</ele>
        <time>2021-09-20T14:48:33Z</time>
      </trkpt>
      <trkpt lat="43.69413" lon="7.18281">
        <ele>30.6</ele>
        <time>2021-09-20T14:48:35Z</time>
      </trkpt>
      <trkpt lat="43.6941" lon="7.18281">
        <ele>30.6</ele>
        <time>2021-09-20T14:48:37Z</time>
      </trkpt>
      <trkpt lat="43.69407" lon="7.18281">
        <ele>30.6</ele>
        <time>2021-09-20T14:48:38Z</time>
      </trkpt>
      <trkpt lat="43.69404" lon="7.18281">
        <ele>30.6</ele>
        <time>2021-09-20T14:58:57Z</time>
      </trkpt>
      <trkpt lat="43.69401" lon="7.18281">
        <ele>30.6</ele>
        <time>2021-09-20T14:58:58Z</time>
      </trkpt>
      <trkpt lat="43.69397" lon="7.18285">
        <ele>30.6</ele>
        <time>2021-09-20T14:58:59Z</time>
      </trkpt>
      <trkpt lat="43.69393" lon="7.1829">
        <ele>30.6</ele>
        <time>2021-09-20T14:59:00Z</time>
      </trkpt>
      <trkpt lat="43.69386" lon="7.18301">
        <ele>30.7</ele>
        <time>2021-09-20T14:59:02Z</time>
      </trkpt>
      <trkpt lat="43.69383" lon="7.18307">
        <ele>30.7</ele>
        <time>2021-09-20T14:59:03Z</time>
      </trkpt>
      <trkpt lat="43.6938" lon="7.18312">
        <ele>30.7</ele>
        <time>2021-09-20T14:59:04Z</time>
      </trkpt>
      <trkpt lat="43.69374" lon="7.18325">
        <ele>30.8</ele>
        <time>2021-09-20T14:59:05Z</time>
      </trkpt>
      <trkpt lat="43.6937" lon="7.1833">
        <ele>30.8</ele>
        <time>2021-09-20T14:59:06Z</time>
      </trkpt>
      <trkpt lat="43.6937" lon="7.18335">
        <ele>30.8</ele>
        <time>2021-09-20T14:59:08Z</time>
      </trkpt>
      <trkpt lat="43.69365" lon="7.18344">
        <ele>30.8</ele>
        <time>2021-09-20T14:59:09Z</time>
      </trkpt>
      <trkpt lat="43.6936" lon="7.18352">
        <ele>30.9</ele>
        <time>2021-09-20T14:59:11Z</time>
      </trkpt>
      <trkpt lat="43.69356" lon="7.18355">
        <ele>30.9</ele>
        <time>2021-09-20T14:59:12Z</time>
      </trkpt>
      <trkpt lat="43.69352" lon="7.18358">
        <ele>30.9</ele>
        <time>2021-09-20T14:59:13Z</time>
      </trkpt>
      <trkpt lat="43.69348" lon="7.18361">
        <ele>30.9</ele>
        <time>2021-09-20T14:59:14Z</time>
      </trkpt>
      <trkpt lat="43.69344" lon="7.18363">
        <ele>30.9</ele>
        <time>2021-09-20T14:59:16Z</time>
      </trkpt>
      <trkpt lat="43.6934" lon="7.18365">
        <ele>30.9</ele>
        <time>2021-09-20T14:59:17Z</time>
      </trkpt>
      <trkpt lat="43.69336" lon="7.18366">
        <ele>30.9</ele>
        <time>2021-09-20T14:59:18Z</time>
      </trkpt>
      <trkpt lat="43.69333" lon="7.18368">
        <ele>31</ele>
        <time>2021-09-20T14:59:19Z</time>
      </trkpt>
      <trkpt lat="43.69329" lon="7.1837">
        <ele>31</ele>
        <time>2021-09-20T14:59:20Z</time>
      </trkpt>
      <trkpt lat="43.6932" lon="7.18373">
        <ele>31</ele>
        <time>2021-09-20T14:59:21Z</time>
      </trkpt>
      <trkpt lat="43.6931" lon="7.18375">
        <ele>31.1</ele>
        <time>2021-09-20T14:59:23Z</time>
      </trkpt>
      <trkpt lat="43.69306" lon="7.18375">
        <ele>31.1</ele>
        <time>2021-09-20T14:59:24Z</time>
      </trkpt>
      <trkpt lat="43.69297" lon="7.18376">
        <ele>31.2</ele>
        <time>2021-09-20T14:59:26Z</time>
      </trkpt>
      <trkpt lat="43.69293" lon="7.18375">
        <ele>31.2</ele>
        <time>2021-09-20T14:59:27Z</time>
      </trkpt>
      <trkpt lat="43.69288" lon="7.18375">
        <ele>31.3</ele>
        <time>2021-09-20T14:59:29Z</time>
      </trkpt>
      <trkpt lat="43.69284" lon="7.18376">
        <ele>31.3</ele>
        <time>2021-09-20T14:59:30Z</time>
      </trkpt>
      <trkpt lat="43.6928" lon="7.18378">
        <ele>31.3</ele>
        <time>2021-09-20T14:59:31Z</time>
      </trkpt>
      <trkpt lat="43.69276" lon="7.18379">
        <ele>31.4</ele>
        <time>2021-09-20T14:59:32Z</time>
      </trkpt>
      <trkpt lat="43.69272" lon="7.18379">
        <ele>31.4</ele>
        <time>2021-09-20T14:59:33Z</time>
      </trkpt>
      <trkpt lat="43.69267" lon="7.18377">
        <ele>31.5</ele>
        <time>2021-09-20T14:59:35Z</time>
      </trkpt>
      <trkpt lat="43.69261" lon="7.18376">
        <ele>31.6</ele>
        <time>2021-09-20T14:59:37Z</time>
      </trkpt>
      <trkpt lat="43.69253" lon="7.18376">
        <ele>31.7</ele>
        <time>2021-09-20T14:59:39Z</time>
      </trkpt>
      <trkpt lat="43.69248" lon="7.18376">
        <ele>31.7</ele>
        <time>2021-09-20T14:59:40Z</time>
      </trkpt>
      <trkpt lat="43.69245" lon="7.18376">
        <ele>31.8</ele>
        <time>2021-09-20T14:59:41Z</time>
      </trkpt>
      <trkpt lat="43.69241" lon="7.18376">
        <ele>31.9</ele>
        <time>2021-09-20T14:59:42Z</time>
      </trkpt>
      <trkpt lat="43.69235" lon="7.18376">
        <ele>32</ele>
        <time>2021-09-20T14:59:44Z</time>
      </trkpt>
      <trkpt lat="43.69232" lon="7.18376">
        <ele>32</ele>
        <time>2021-09-20T14:59:45Z</time>
      </trkpt>
      <trkpt lat="43.69229" lon="7.18377">
        <ele>32.1</ele>
        <time>2021-09-20T14:59:46Z</time>
      </trkpt>
      <trkpt lat="43.69225" lon="7.18378">
        <ele>32.1</ele>
        <time>2021-09-20T14:59:47Z</time>
      </trkpt>
      <trkpt lat="43.69223" lon="7.18378">
        <ele>32.2</ele>
        <time>2021-09-20T14:59:48Z</time>
      </trkpt>
      <trkpt lat="43.6922" lon="7.18378">
        <ele>32.2</ele>
        <time>2021-09-20T14:59:49Z</time>
      </trkpt>
      <trkpt lat="43.69216" lon="7.18379">
        <ele>32.3</ele>
        <time>2021-09-20T14:59:50Z</time>
      </trkpt>
      <trkpt lat="43.69211" lon="7.1838">
        <ele>32.4</ele>
        <time>2021-09-20T14:59:52Z</time>
      </trkpt>
      <trkpt lat="43.69205" lon="7.18381">
        <ele>32.5</ele>
        <time>2021-09-20T14:59:53Z</time>
      </trkpt>
      <trkpt lat="43.69201" lon="7.18382">
        <ele>32.5</ele>
        <time>2021-09-20T14:59:54Z</time>
      </trkpt>
      <trkpt lat="43.69189" lon="7.18383">
        <ele>32.7</ele>
        <time>2021-09-20T14:59:56Z</time>
      </trkpt>
      <trkpt lat="43.69179" lon="7.18384">
        <ele>32.9</ele>
        <time>2021-09-20T14:59:58Z</time>
      </trkpt>
      <trkpt lat="43.69174" lon="7.18385">
        <ele>32.9</ele>
        <time>2021-09-20T14:59:59Z</time>
      </trkpt>
      <trkpt lat="43.69169" lon="7.18386">
        <ele>32.9</ele>
        <time>2021-09-20T15:00:00Z</time>
      </trkpt>
      <trkpt lat="43.69165" lon="7.18386">
        <ele>33</ele>
        <time>2021-09-20T15:00:01Z</time>
      </trkpt>
      <trkpt lat="43.69157" lon="7.18387">
        <ele>33</ele>
        <time>2021-09-20T15:00:03Z</time>
      </trkpt>
      <trkpt lat="43.69151" lon="7.18389">
        <ele>33.1</ele>
        <time>2021-09-20T15:00:04Z</time>
      </trkpt>
      <trkpt lat="43.69149" lon="7.18387">
        <ele>33.1</ele>
        <time>2021-09-20T15:00:06Z</time>
      </trkpt>
      <trkpt lat="43.69141" lon="7.1839">
        <ele>33.1</ele>
        <time>2021-09-20T15:00:08Z</time>
      </trkpt>
      <trkpt lat="43.69133" lon="7.18391">
        <ele>33.2</ele>
        <time>2021-09-20T15:00:09Z</time>
      </trkpt>
      <trkpt lat="43.69128" lon="7.18392">
        <ele>33.2</ele>
        <time>2021-09-20T15:00:10Z</time>
      </trkpt>
      <trkpt lat="43.69123" lon="7.18391">
        <ele>33.3</ele>
        <time>2021-09-20T15:00:12Z</time>
      </trkpt>
      <trkpt lat="43.69119" lon="7.18391">
        <ele>33.3</ele>
        <time>2021-09-20T15:00:13Z</time>
      </trkpt>
      <trkpt lat="43.69112" lon="7.18393">
        <ele>33.4</ele>
        <time>2021-09-20T15:00:15Z</time>
      </trkpt>
      <trkpt lat="43.69108" lon="7.18392">
        <ele>33.4</ele>
        <time>2021-09-20T15:00:16Z</time>
      </trkpt>
      <trkpt lat="43.69105" lon="7.18392">
        <ele>33.4</ele>
        <time>2021-09-20T15:00:17Z</time>
      </trkpt>
      <trkpt lat="43.69099" lon="7.1839">
        <ele>33.4</ele>
        <time>2021-09-20T15:00:19Z</time>
      </trkpt>
      <trkpt lat="43.69091" lon="7.18388">
        <ele>33.5</ele>
        <time>2021-09-20T15:00:21Z</time>
      </trkpt>
      <trkpt lat="43.69085" lon="7.18387">
        <ele>33.5</ele>
        <time>2021-09-20T15:00:22Z</time>
      </trkpt>
      <trkpt lat="43.69079" lon="7.18386">
        <ele>33.5</ele>
        <time>2021-09-20T15:00:24Z</time>
      </trkpt>
      <trkpt lat="43.69073" lon="7.18385">
        <ele>33.5</ele>
        <time>2021-09-20T15:00:25Z</time>
      </trkpt>
      <trkpt lat="43.69069" lon="7.18383">
        <ele>33.5</ele>
        <time>2021-09-20T15:00:26Z</time>
      </trkpt>
      <trkpt lat="43.69064" lon="7.18378">
        <ele>33.6</ele>
        <time>2021-09-20T15:00:28Z</time>
      </trkpt>
      <trkpt lat="43.69062" lon="7.18375">
        <ele>33.6</ele>
        <time>2021-09-20T15:00:29Z</time>
      </trkpt>
      <trkpt lat="43.69058" lon="7.18368">
        <ele>33.6</ele>
        <time>2021-09-20T15:00:31Z</time>
      </trkpt>
      <trkpt lat="43.69051" lon="7.18361">
        <ele>33.6</ele>
        <time>2021-09-20T15:00:33Z</time>
      </trkpt>
      <trkpt lat="43.69046" lon="7.18356">
        <ele>33.6</ele>
        <time>2021-09-20T15:00:34Z</time>
      </trkpt>
      <trkpt lat="43.69039" lon="7.18351">
        <ele>33.7</ele>
        <time>2021-09-20T15:00:36Z</time>
      </trkpt>
      <trkpt lat="43.69032" lon="7.18346">
        <ele>33.7</ele>
        <time>2021-09-20T15:00:37Z</time>
      </trkpt>
      <trkpt lat="43.69028" lon="7.18342">
        <ele>33.7</ele>
        <time>2021-09-20T15:00:38Z</time>
      </trkpt>
      <trkpt lat="43.69022" lon="7.18337">
        <ele>33.7</ele>
        <time>2021-09-20T15:00:40Z</time>
      </trkpt>
      <trkpt lat="43.69016" lon="7.18333">
        <ele>33.7</ele>
        <time>2021-09-20T15:00:41Z</time>
      </trkpt>
      <trkpt lat="43.69011" lon="7.1833">
        <ele>33.7</ele>
        <time>2021-09-20T15:00:42Z</time>
      </trkpt>
      <trkpt lat="43.69005" lon="7.18328">
        <ele>33.7</ele>
        <time>2021-09-20T15:00:43Z</time>
      </trkpt>
      <trkpt lat="43.68999" lon="7.18327">
        <ele>33.7</ele>
        <time>2021-09-20T15:00:45Z</time>
      </trkpt>
      <trkpt lat="43.68992" lon="7.18325">
        <ele>33.8</ele>
        <time>2021-09-20T15:00:46Z</time>
      </trkpt>
      <trkpt lat="43.68988" lon="7.18324">
        <ele>33.8</ele>
        <time>2021-09-20T15:00:47Z</time>
      </trkpt>
      <trkpt lat="43.68982" lon="7.18324">
        <ele>33.8</ele>
        <time>2021-09-20T15:00:49Z</time>
      </trkpt>
      <trkpt lat="43.68978" lon="7.18323">
        <ele>33.8</ele>
        <time>2021-09-20T15:00:50Z</time>
      </trkpt>
      <trkpt lat="43.68973" lon="7.18323">
        <ele>33.9</ele>
        <time>2021-09-20T15:00:51Z</time>
      </trkpt>
      <trkpt lat="43.68967" lon="7.18322">
        <ele>33.9</ele>
        <time>2021-09-20T15:00:53Z</time>
      </trkpt>
      <trkpt lat="43.68956" lon="7.18321">
        <ele>33.9</ele>
        <time>2021-09-20T15:00:54Z</time>
      </trkpt>
      <trkpt lat="43.68946" lon="7.18321">
        <ele>33.9</ele>
        <time>2021-09-20T15:00:56Z</time>
      </trkpt>
      <trkpt lat="43.68938" lon="7.1832">
        <ele>33.9</ele>
        <time>2021-09-20T15:00:58Z</time>
      </trkpt>
      <trkpt lat="43.68933" lon="7.18319">
        <ele>33.9</ele>
        <time>2021-09-20T15:01:00Z</time>
      </trkpt>
      <trkpt lat="43.68927" lon="7.18319">
        <ele>34</ele>
        <time>2021-09-20T15:01:01Z</time>
      </trkpt>
      <trkpt lat="43.68923" lon="7.1832">
        <ele>34</ele>
        <time>2021-09-20T15:01:02Z</time>
      </trkpt>
      <trkpt lat="43.68915" lon="7.1832">
        <ele>34</ele>
        <time>2021-09-20T15:01:04Z</time>
      </trkpt>
      <trkpt lat="43.68909" lon="7.1832">
        <ele>34.1</ele>
        <time>2021-09-20T15:01:05Z</time>
      </trkpt>
      <trkpt lat="43.68899" lon="7.18323">
        <ele>34.1</ele>
        <time>2021-09-20T15:01:06Z</time>
      </trkpt>
      <trkpt lat="43.68888" lon="7.18323">
        <ele>34.2</ele>
        <time>2021-09-20T15:01:08Z</time>
      </trkpt>
      <trkpt lat="43.68877" lon="7.18324">
        <ele>34.4</ele>
        <time>2021-09-20T15:01:10Z</time>
      </trkpt>
      <trkpt lat="43.68873" lon="7.18325">
        <ele>34.4</ele>
        <time>2021-09-20T15:01:11Z</time>
      </trkpt>
      <trkpt lat="43.68867" lon="7.18325">
        <ele>34.5</ele>
        <time>2021-09-20T15:01:13Z</time>
      </trkpt>
      <trkpt lat="43.68862" lon="7.18327">
        <ele>34.6</ele>
        <time>2021-09-20T15:01:14Z</time>
      </trkpt>
      <trkpt lat="43.68862" lon="7.18325">
        <ele>34.6</ele>
        <time>2021-09-20T15:01:15Z</time>
      </trkpt>
      <trkpt lat="43.68859" lon="7.18328">
        <ele>34.7</ele>
        <time>2021-09-20T15:01:17Z</time>
      </trkpt>
      <trkpt lat="43.68857" lon="7.18331">
        <ele>34.7</ele>
        <time>2021-09-20T15:01:18Z</time>
      </trkpt>
      <trkpt lat="43.68855" lon="7.18334">
        <ele>34.8</ele>
        <time>2021-09-20T15:01:19Z</time>
      </trkpt>
      <trkpt lat="43.68855" lon="7.18335">
        <ele>34.8</ele>
        <time>2021-09-20T15:01:20Z</time>
      </trkpt>
      <trkpt lat="43.68854" lon="7.18337">
        <ele>34.8</ele>
        <time>2021-09-20T15:01:21Z</time>
      </trkpt>
      <trkpt lat="43.68852" lon="7.18341">
        <ele>34.9</ele>
        <time>2021-09-20T15:01:23Z</time>
      </trkpt>
      <trkpt lat="43.6885" lon="7.18343">
        <ele>35</ele>
        <time>2021-09-20T15:01:24Z</time>
      </trkpt>
      <trkpt lat="43.68788" lon="7.1836">
        <ele>36.2</ele>
        <time>2021-09-20T15:01:41Z</time>
      </trkpt>
      <trkpt lat="43.68776" lon="7.18364">
        <ele>36.3</ele>
        <time>2021-09-20T15:01:42Z</time>
      </trkpt>
      <trkpt lat="43.68769" lon="7.18367">
        <ele>36.4</ele>
        <time>2021-09-20T15:01:43Z</time>
      </trkpt>
      <trkpt lat="43.68761" lon="7.18369">
        <ele>36.4</ele>
        <time>2021-09-20T15:01:44Z</time>
      </trkpt>
      <trkpt lat="43.68747" lon="7.18372">
        <ele>36.2</ele>
        <time>2021-09-20T15:01:46Z</time>
      </trkpt>
      <trkpt lat="43.68738" lon="7.18374">
        <ele>36</ele>
        <time>2021-09-20T15:01:48Z</time>
      </trkpt>
      <trkpt lat="43.6873" lon="7.18373">
        <ele>35.9</ele>
        <time>2021-09-20T15:01:49Z</time>
      </trkpt>
      <trkpt lat="43.68725" lon="7.18372">
        <ele>35.7</ele>
        <time>2021-09-20T15:01:50Z</time>
      </trkpt>
      <trkpt lat="43.68715" lon="7.18369">
        <ele>35.5</ele>
        <time>2021-09-20T15:01:52Z</time>
      </trkpt>
      <trkpt lat="43.6871" lon="7.18369">
        <ele>35.4</ele>
        <time>2021-09-20T15:01:53Z</time>
      </trkpt>
      <trkpt lat="43.68707" lon="7.18369">
        <ele>35.3</ele>
        <time>2021-09-20T15:01:55Z</time>
      </trkpt>
      <trkpt lat="43.68705" lon="7.1837">
        <ele>35.3</ele>
        <time>2021-09-20T15:01:56Z</time>
      </trkpt>
      <trkpt lat="43.68701" lon="7.18371">
        <ele>35.1</ele>
        <time>2021-09-20T15:01:58Z</time>
      </trkpt>
      <trkpt lat="43.68698" lon="7.18372">
        <ele>35</ele>
        <time>2021-09-20T15:01:59Z</time>
      </trkpt>
      <trkpt lat="43.68697" lon="7.18372">
        <ele>35</ele>
        <time>2021-09-20T15:02:00Z</time>
      </trkpt>
      <trkpt lat="43.68694" lon="7.18373">
        <ele>34.9</ele>
        <time>2021-09-20T15:02:02Z</time>
      </trkpt>
      <trkpt lat="43.68692" lon="7.18374">
        <ele>34.9</ele>
        <time>2021-09-20T15:02:03Z</time>
      </trkpt>
      <trkpt lat="43.68528" lon="7.18496">
        <ele>32.8</ele>
        <time>2021-09-20T15:02:30Z</time>
      </trkpt>
      <trkpt lat="43.68511" lon="7.18504">
        <ele>33.3</ele>
        <time>2021-09-20T15:02:32Z</time>
      </trkpt>
      <trkpt lat="43.68497" lon="7.1851">
        <ele>33.5</ele>
        <time>2021-09-20T15:02:34Z</time>
      </trkpt>
      <trkpt lat="43.68485" lon="7.18514">
        <ele>33.8</ele>
        <time>2021-09-20T15:02:36Z</time>
      </trkpt>
      <trkpt lat="43.6848" lon="7.18516">
        <ele>33.9</ele>
        <time>2021-09-20T15:02:38Z</time>
      </trkpt>
      <trkpt lat="43.68473" lon="7.1852">
        <ele>34.1</ele>
        <time>2021-09-20T15:02:40Z</time>
      </trkpt>
      <trkpt lat="43.68468" lon="7.18519">
        <ele>34.3</ele>
        <time>2021-09-20T15:02:41Z</time>
      </trkpt>
      <trkpt lat="43.68464" lon="7.18518">
        <ele>34.4</ele>
        <time>2021-09-20T15:02:42Z</time>
      </trkpt>
      <trkpt lat="43.6846" lon="7.18517">
        <ele>34.6</ele>
        <time>2021-09-20T15:02:44Z</time>
      </trkpt>
      <trkpt lat="43.68456" lon="7.18517">
        <ele>34.7</ele>
        <time>2021-09-20T15:02:45Z</time>
      </trkpt>
      <trkpt lat="43.68455" lon="7.18517">
        <ele>34.7</ele>
        <time>2021-09-20T15:02:46Z</time>
      </trkpt>
      <trkpt lat="43.68452" lon="7.18517">
        <ele>34.8</ele>
        <time>2021-09-20T15:02:47Z</time>
      </trkpt>
      <trkpt lat="43.68448" lon="7.18517">
        <ele>34.9</ele>
        <time>2021-09-20T15:02:49Z</time>
      </trkpt>
      <trkpt lat="43.68446" lon="7.18518">
        <ele>35</ele>
        <time>2021-09-20T15:02:50Z</time>
      </trkpt>
      <trkpt lat="43.68442" lon="7.18518">
        <ele>35.1</ele>
        <time>2021-09-20T15:02:52Z</time>
      </trkpt>
      <trkpt lat="43.68439" lon="7.18518">
        <ele>35.2</ele>
        <time>2021-09-20T15:02:54Z</time>
      </trkpt>
      <trkpt lat="43.68424" lon="7.18529">
        <ele>35.5</ele>
        <time>2021-09-20T15:02:57Z</time>
      </trkpt>
      <trkpt lat="43.68417" lon="7.18534">
        <ele>35.6</ele>
        <time>2021-09-20T15:02:59Z</time>
      </trkpt>
      <trkpt lat="43.68411" lon="7.18542">
        <ele>35.7</ele>
        <time>2021-09-20T15:03:00Z</time>
      </trkpt>
      <trkpt lat="43.68407" lon="7.18547">
        <ele>35.7</ele>
        <time>2021-09-20T15:03:01Z</time>
      </trkpt>
      <trkpt lat="43.68389" lon="7.18568">
        <ele>35.4</ele>
        <time>2021-09-20T15:03:03Z</time>
      </trkpt>
      <trkpt lat="43.68374" lon="7.18583">
        <ele>34.9</ele>
        <time>2021-09-20T15:03:05Z</time>
      </trkpt>
      <trkpt lat="43.68369" lon="7.18589">
        <ele>34.7</ele>
        <time>2021-09-20T15:03:06Z</time>
      </trkpt>
      <trkpt lat="43.68368" lon="7.1859">
        <ele>34.7</ele>
        <time>2021-09-20T15:03:08Z</time>
      </trkpt>
      <trkpt lat="43.68373" lon="7.18591">
        <ele>34.5</ele>
        <time>2021-09-20T15:03:10Z</time>
      </trkpt>
      <trkpt lat="43.68368" lon="7.18592">
        <ele>34.3</ele>
        <time>2021-09-20T15:03:11Z</time>
      </trkpt>
      <trkpt lat="43.68364" lon="7.18593">
        <ele>34.1</ele>
        <time>2021-09-20T15:03:12Z</time>
      </trkpt>
      <trkpt lat="43.68359" lon="7.18594">
        <ele>34</ele>
        <time>2021-09-20T15:03:13Z</time>
      </trkpt>
      <trkpt lat="43.68354" lon="7.18594">
        <ele>33.8</ele>
        <time>2021-09-20T15:03:15Z</time>
      </trkpt>
      <trkpt lat="43.6835" lon="7.18595">
        <ele>33.6</ele>
        <time>2021-09-20T15:03:16Z</time>
      </trkpt>
      <trkpt lat="43.68345" lon="7.18596">
        <ele>33.4</ele>
        <time>2021-09-20T15:03:29Z</time>
      </trkpt>
      <trkpt lat="43.6834" lon="7.18597">
        <ele>33.3</ele>
        <time>2021-09-20T15:03:30Z</time>
      </trkpt>
      <trkpt lat="43.6833" lon="7.18599">
        <ele>32.8</ele>
        <time>2021-09-20T15:03:32Z</time>
      </trkpt>
      <trkpt lat="43.68319" lon="7.18604">
        <ele>32.5</ele>
        <time>2021-09-20T15:03:33Z</time>
      </trkpt>
      <trkpt lat="43.683" lon="7.18612">
        <ele>31.8</ele>
        <time>2021-09-20T15:03:34Z</time>
      </trkpt>
      <trkpt lat="43.68293" lon="7.18616">
        <ele>31.5</ele>
        <time>2021-09-20T15:03:36Z</time>
      </trkpt>
      <trkpt lat="43.68284" lon="7.18624">
        <ele>31.2</ele>
        <time>2021-09-20T15:03:37Z</time>
      </trkpt>
      <trkpt lat="43.68276" lon="7.18631">
        <ele>30.9</ele>
        <time>2021-09-20T15:03:38Z</time>
      </trkpt>
      <trkpt lat="43.68266" lon="7.1864">
        <ele>30.6</ele>
        <time>2021-09-20T15:03:40Z</time>
      </trkpt>
      <trkpt lat="43.68259" lon="7.18647">
        <ele>30.5</ele>
        <time>2021-09-20T15:03:41Z</time>
      </trkpt>
      <trkpt lat="43.68256" lon="7.18651">
        <ele>30.4</ele>
        <time>2021-09-20T15:03:42Z</time>
      </trkpt>
      <trkpt lat="43.68251" lon="7.18658">
        <ele>30.4</ele>
        <time>2021-09-20T15:03:44Z</time>
      </trkpt>
      <trkpt lat="43.68248" lon="7.18659">
        <ele>30.4</ele>
        <time>2021-09-20T15:03:45Z</time>
      </trkpt>
      <trkpt lat="43.68246" lon="7.18663">
        <ele>30.4</ele>
        <time>2021-09-20T15:03:46Z</time>
      </trkpt>
      <trkpt lat="43.68245" lon="7.18665">
        <ele>30.4</ele>
        <time>2021-09-20T15:03:47Z</time>
      </trkpt>
      <trkpt lat="43.68245" lon="7.18668">
        <ele>30.4</ele>
        <time>2021-09-20T15:03:49Z</time>
      </trkpt>
      <trkpt lat="43.68244" lon="7.18671">
        <ele>30.4</ele>
        <time>2021-09-20T15:03:51Z</time>
      </trkpt>
      <trkpt lat="43.68243" lon="7.18674">
        <ele>30.4</ele>
        <time>2021-09-20T15:03:52Z</time>
      </trkpt>
      <trkpt lat="43.68242" lon="7.18677">
        <ele>30.4</ele>
        <time>2021-09-20T15:04:06Z</time>
      </trkpt>
      <trkpt lat="43.68242" lon="7.1868">
        <ele>30.4</ele>
        <time>2021-09-20T15:04:07Z</time>
      </trkpt>
      <trkpt lat="43.68238" lon="7.18686">
        <ele>30.4</ele>
        <time>2021-09-20T15:04:09Z</time>
      </trkpt>
      <trkpt lat="43.68235" lon="7.18693">
        <ele>30.4</ele>
        <time>2021-09-20T15:04:10Z</time>
      </trkpt>
      <trkpt lat="43.68232" lon="7.18703">
        <ele>30.5</ele>
        <time>2021-09-20T15:04:12Z</time>
      </trkpt>
      <trkpt lat="43.68231" lon="7.18708">
        <ele>30.5</ele>
        <time>2021-09-20T15:04:13Z</time>
      </trkpt>
      <trkpt lat="43.68229" lon="7.18712">
        <ele>30.6</ele>
        <time>2021-09-20T15:04:14Z</time>
      </trkpt>
      <trkpt lat="43.68227" lon="7.18719">
        <ele>30.6</ele>
        <time>2021-09-20T15:04:16Z</time>
      </trkpt>
      <trkpt lat="43.68225" lon="7.18723">
        <ele>30.6</ele>
        <time>2021-09-20T15:04:17Z</time>
      </trkpt>
      <trkpt lat="43.68223" lon="7.18727">
        <ele>30.6</ele>
        <time>2021-09-20T15:04:18Z</time>
      </trkpt>
      <trkpt lat="43.68221" lon="7.18732">
        <ele>30.6</ele>
        <time>2021-09-20T15:04:19Z</time>
      </trkpt>
      <trkpt lat="43.68219" lon="7.18735">
        <ele>30.6</ele>
        <time>2021-09-20T15:04:21Z</time>
      </trkpt>
      <trkpt lat="43.68216" lon="7.18736">
        <ele>30.6</ele>
        <time>2021-09-20T15:04:22Z</time>
      </trkpt>
      <trkpt lat="43.68213" lon="7.18739">
        <ele>30.6</ele>
        <time>2021-09-20T15:04:23Z</time>
      </trkpt>
      <trkpt lat="43.68209" lon="7.18743">
        <ele>30.5</ele>
        <time>2021-09-20T15:04:24Z</time>
      </trkpt>
      <trkpt lat="43.68206" lon="7.18745">
        <ele>30.5</ele>
        <time>2021-09-20T15:04:25Z</time>
      </trkpt>
      <trkpt lat="43.68203" lon="7.18747">
        <ele>30.5</ele>
        <time>2021-09-20T15:04:26Z</time>
      </trkpt>
      <trkpt lat="43.68197" lon="7.18749">
        <ele>30.4</ele>
        <time>2021-09-20T15:04:28Z</time>
      </trkpt>
      <trkpt lat="43.68195" lon="7.18751">
        <ele>30.4</ele>
        <time>2021-09-20T15:04:29Z</time>
      </trkpt>
      <trkpt lat="43.68191" lon="7.18751">
        <ele>30.3</ele>
        <time>2021-09-20T15:04:31Z</time>
      </trkpt>
      <trkpt lat="43.68189" lon="7.18747">
        <ele>30.3</ele>
        <time>2021-09-20T15:04:32Z</time>
      </trkpt>
      <trkpt lat="43.68185" lon="7.18742">
        <ele>30.2</ele>
        <time>2021-09-20T15:04:34Z</time>
      </trkpt>
      <trkpt lat="43.68181" lon="7.1874">
        <ele>30.1</ele>
        <time>2021-09-20T15:04:35Z</time>
      </trkpt>
      <trkpt lat="43.68179" lon="7.18739">
        <ele>30.1</ele>
        <time>2021-09-20T15:04:36Z</time>
      </trkpt>
      <trkpt lat="43.68175" lon="7.18738">
        <ele>30.1</ele>
        <time>2021-09-20T15:04:38Z</time>
      </trkpt>
      <trkpt lat="43.68171" lon="7.18736">
        <ele>30</ele>
        <time>2021-09-20T15:04:39Z</time>
      </trkpt>
      <trkpt lat="43.68165" lon="7.18737">
        <ele>29.9</ele>
        <time>2021-09-20T15:04:41Z</time>
      </trkpt>
      <trkpt lat="43.68159" lon="7.18738">
        <ele>29.8</ele>
        <time>2021-09-20T15:04:42Z</time>
      </trkpt>
      <trkpt lat="43.68155" lon="7.18738">
        <ele>29.8</ele>
        <time>2021-09-20T15:04:43Z</time>
      </trkpt>
      <trkpt lat="43.68149" lon="7.18737">
        <ele>29.8</ele>
        <time>2021-09-20T15:04:45Z</time>
      </trkpt>
      <trkpt lat="43.68144" lon="7.18736">
        <ele>29.7</ele>
        <time>2021-09-20T15:04:46Z</time>
      </trkpt>
      <trkpt lat="43.68138" lon="7.18736">
        <ele>29.7</ele>
        <time>2021-09-20T15:04:48Z</time>
      </trkpt>
      <trkpt lat="43.68133" lon="7.18737">
        <ele>29.6</ele>
        <time>2021-09-20T15:04:49Z</time>
      </trkpt>
      <trkpt lat="43.68128" lon="7.18739">
        <ele>29.6</ele>
        <time>2021-09-20T15:04:51Z</time>
      </trkpt>
      <trkpt lat="43.68122" lon="7.18741">
        <ele>29.6</ele>
        <time>2021-09-20T15:04:52Z</time>
      </trkpt>
      <trkpt lat="43.68116" lon="7.18742">
        <ele>29.6</ele>
        <time>2021-09-20T15:04:54Z</time>
      </trkpt>
      <trkpt lat="43.68112" lon="7.18743">
        <ele>29.6</ele>
        <time>2021-09-20T15:04:55Z</time>
      </trkpt>
      <trkpt lat="43.68107" lon="7.18744">
        <ele>29.6</ele>
        <time>2021-09-20T15:04:56Z</time>
      </trkpt>
      <trkpt lat="43.68101" lon="7.18744">
        <ele>29.5</ele>
        <time>2021-09-20T15:04:58Z</time>
      </trkpt>
      <trkpt lat="43.68097" lon="7.18746">
        <ele>29.5</ele>
        <time>2021-09-20T15:05:00Z</time>
      </trkpt>
      <trkpt lat="43.68092" lon="7.18747">
        <ele>29.5</ele>
        <time>2021-09-20T15:05:01Z</time>
      </trkpt>
      <trkpt lat="43.68086" lon="7.18748">
        <ele>29.5</ele>
        <time>2021-09-20T15:05:02Z</time>
      </trkpt>
      <trkpt lat="43.68079" lon="7.1875">
        <ele>29.5</ele>
        <time>2021-09-20T15:05:04Z</time>
      </trkpt>
      <trkpt lat="43.68075" lon="7.18752">
        <ele>29.5</ele>
        <time>2021-09-20T15:05:05Z</time>
      </trkpt>
      <trkpt lat="43.6807" lon="7.18753">
        <ele>29.4</ele>
        <time>2021-09-20T15:05:06Z</time>
      </trkpt>
      <trkpt lat="43.68065" lon="7.18752">
        <ele>29.4</ele>
        <time>2021-09-20T15:05:07Z</time>
      </trkpt>
      <trkpt lat="43.6806" lon="7.1875">
        <ele>29.4</ele>
        <time>2021-09-20T15:05:09Z</time>
      </trkpt>
      <trkpt lat="43.68057" lon="7.18748">
        <ele>29.3</ele>
        <time>2021-09-20T15:05:11Z</time>
      </trkpt>
      <trkpt lat="43.68057" lon="7.18748">
        <ele>29.3</ele>
        <time>2021-09-20T15:05:12Z</time>
      </trkpt>
      <trkpt lat="43.68054" lon="7.18748">
        <ele>29.3</ele>
        <time>2021-09-20T15:05:13Z</time>
      </trkpt>
      <trkpt lat="43.6805" lon="7.18749">
        <ele>29.3</ele>
        <time>2021-09-20T15:05:15Z</time>
      </trkpt>
      <trkpt lat="43.68047" lon="7.18751">
        <ele>29.3</ele>
        <time>2021-09-20T15:05:16Z</time>
      </trkpt>
      <trkpt lat="43.68041" lon="7.18753">
        <ele>29.3</ele>
        <time>2021-09-20T15:05:17Z</time>
      </trkpt>
      <trkpt lat="43.68038" lon="7.18755">
        <ele>29.3</ele>
        <time>2021-09-20T15:05:19Z</time>
      </trkpt>
      <trkpt lat="43.68037" lon="7.18755">
        <ele>29.3</ele>
        <time>2021-09-20T15:05:20Z</time>
      </trkpt>
      <trkpt lat="43.68014" lon="7.18758">
        <ele>29.3</ele>
        <time>2021-09-20T15:05:21Z</time>
      </trkpt>
      <trkpt lat="43.68007" lon="7.18759">
        <ele>29.3</ele>
        <time>2021-09-20T15:05:22Z</time>
      </trkpt>
      <trkpt lat="43.68002" lon="7.1876">
        <ele>29.3</ele>
        <time>2021-09-20T15:05:23Z</time>
      </trkpt>
      <trkpt lat="43.67997" lon="7.18759">
        <ele>29.3</ele>
        <time>2021-09-20T15:05:25Z</time>
      </trkpt>
      <trkpt lat="43.67987" lon="7.18765">
        <ele>29.2</ele>
        <time>2021-09-20T15:05:26Z</time>
      </trkpt>
      <trkpt lat="43.67982" lon="7.18769">
        <ele>29.2</ele>
        <time>2021-09-20T15:05:27Z</time>
      </trkpt>
      <trkpt lat="43.67978" lon="7.18772">
        <ele>29.2</ele>
        <time>2021-09-20T15:05:28Z</time>
      </trkpt>
      <trkpt lat="43.67971" lon="7.18778">
        <ele>29.1</ele>
        <time>2021-09-20T15:05:30Z</time>
      </trkpt>
      <trkpt lat="43.6797" lon="7.1878">
        <ele>29.1</ele>
        <time>2021-09-20T15:05:31Z</time>
      </trkpt>
      <trkpt lat="43.67972" lon="7.18786">
        <ele>29.1</ele>
        <time>2021-09-20T15:05:33Z</time>
      </trkpt>
      <trkpt lat="43.67974" lon="7.18789">
        <ele>29.1</ele>
        <time>2021-09-20T15:05:34Z</time>
      </trkpt>
      <trkpt lat="43.67975" lon="7.18791">
        <ele>29</ele>
        <time>2021-09-20T15:05:35Z</time>
      </trkpt>
      <trkpt lat="43.67972" lon="7.18798">
        <ele>29</ele>
        <time>2021-09-20T15:05:37Z</time>
      </trkpt>
      <trkpt lat="43.67966" lon="7.18804">
        <ele>28.9</ele>
        <time>2021-09-20T15:05:38Z</time>
      </trkpt>
      <trkpt lat="43.67956" lon="7.18809">
        <ele>28.8</ele>
        <time>2021-09-20T15:05:40Z</time>
      </trkpt>
      <trkpt lat="43.67951" lon="7.18811">
        <ele>28.7</ele>
        <time>2021-09-20T15:05:41Z</time>
      </trkpt>
      <trkpt lat="43.67939" lon="7.1882">
        <ele>28.6</ele>
        <time>2021-09-20T15:05:44Z</time>
      </trkpt>
      <trkpt lat="43.67935" lon="7.18823">
        <ele>28.5</ele>
        <time>2021-09-20T15:05:45Z</time>
      </trkpt>
      <trkpt lat="43.67925" lon="7.18829">
        <ele>28.3</ele>
        <time>2021-09-20T15:05:47Z</time>
      </trkpt>
      <trkpt lat="43.67921" lon="7.18833">
        <ele>28.2</ele>
        <time>2021-09-20T15:05:48Z</time>
      </trkpt>
      <trkpt lat="43.67913" lon="7.18841">
        <ele>28</ele>
        <time>2021-09-20T15:05:50Z</time>
      </trkpt>
      <trkpt lat="43.67905" lon="7.18852">
        <ele>27.7</ele>
        <time>2021-09-20T15:05:52Z</time>
      </trkpt>
      <trkpt lat="43.679" lon="7.18858">
        <ele>27.6</ele>
        <time>2021-09-20T15:05:53Z</time>
      </trkpt>
      <trkpt lat="43.67891" lon="7.18868">
        <ele>27.4</ele>
        <time>2021-09-20T15:05:55Z</time>
      </trkpt>
      <trkpt lat="43.67883" lon="7.18876">
        <ele>27.1</ele>
        <time>2021-09-20T15:05:57Z</time>
      </trkpt>
      <trkpt lat="43.67872" lon="7.18883">
        <ele>26.9</ele>
        <time>2021-09-20T15:05:59Z</time>
      </trkpt>
      <trkpt lat="43.67866" lon="7.18887">
        <ele>26.8</ele>
        <time>2021-09-20T15:06:00Z</time>
      </trkpt>
      <trkpt lat="43.67854" lon="7.18891">
        <ele>26.7</ele>
        <time>2021-09-20T15:06:02Z</time>
      </trkpt>
      <trkpt lat="43.67846" lon="7.18892">
        <ele>26.7</ele>
        <time>2021-09-20T15:06:03Z</time>
      </trkpt>
      <trkpt lat="43.67839" lon="7.18893">
        <ele>26.7</ele>
        <time>2021-09-20T15:06:04Z</time>
      </trkpt>
      <trkpt lat="43.67826" lon="7.18895">
        <ele>26.7</ele>
        <time>2021-09-20T15:06:06Z</time>
      </trkpt>
      <trkpt lat="43.67813" lon="7.18895">
        <ele>26.8</ele>
        <time>2021-09-20T15:06:08Z</time>
      </trkpt>
      <trkpt lat="43.67807" lon="7.18894">
        <ele>26.8</ele>
        <time>2021-09-20T15:06:09Z</time>
      </trkpt>
      <trkpt lat="43.67803" lon="7.18891">
        <ele>26.9</ele>
        <time>2021-09-20T15:06:10Z</time>
      </trkpt>
      <trkpt lat="43.67796" lon="7.1888">
        <ele>27</ele>
        <time>2021-09-20T15:06:12Z</time>
      </trkpt>
      <trkpt lat="43.6779" lon="7.18874">
        <ele>27.2</ele>
        <time>2021-09-20T15:06:14Z</time>
      </trkpt>
      <trkpt lat="43.67788" lon="7.18871">
        <ele>27.3</ele>
        <time>2021-09-20T15:06:16Z</time>
      </trkpt>
      <trkpt lat="43.67785" lon="7.1887">
        <ele>27.4</ele>
        <time>2021-09-20T15:06:17Z</time>
      </trkpt>
      <trkpt lat="43.67777" lon="7.18866">
        <ele>27.7</ele>
        <time>2021-09-20T15:06:19Z</time>
      </trkpt>
      <trkpt lat="43.6777" lon="7.18861">
        <ele>28</ele>
        <time>2021-09-20T15:06:21Z</time>
      </trkpt>
      <trkpt lat="43.67768" lon="7.18858">
        <ele>28.1</ele>
        <time>2021-09-20T15:06:23Z</time>
      </trkpt>
      <trkpt lat="43.67765" lon="7.18857">
        <ele>28.2</ele>
        <time>2021-09-20T15:06:24Z</time>
      </trkpt>
      <trkpt lat="43.67761" lon="7.18856">
        <ele>28.3</ele>
        <time>2021-09-20T15:06:25Z</time>
      </trkpt>
      <trkpt lat="43.67754" lon="7.18854">
        <ele>28.6</ele>
        <time>2021-09-20T15:06:27Z</time>
      </trkpt>
      <trkpt lat="43.6775" lon="7.18853">
        <ele>28.7</ele>
        <time>2021-09-20T15:06:28Z</time>
      </trkpt>
      <trkpt lat="43.67748" lon="7.18853">
        <ele>28.8</ele>
        <time>2021-09-20T15:06:31Z</time>
      </trkpt>
      <trkpt lat="43.67747" lon="7.18853">
        <ele>28.8</ele>
        <time>2021-09-20T15:06:32Z</time>
      </trkpt>
      <trkpt lat="43.67744" lon="7.18854">
        <ele>29</ele>
        <time>2021-09-20T15:06:33Z</time>
      </trkpt>
      <trkpt lat="43.67742" lon="7.18855">
        <ele>29</ele>
        <time>2021-09-20T15:06:34Z</time>
      </trkpt>
      <trkpt lat="43.67741" lon="7.18855">
        <ele>29.1</ele>
        <time>2021-09-20T15:06:36Z</time>
      </trkpt>
      <trkpt lat="43.67739" lon="7.18855">
        <ele>29.1</ele>
        <time>2021-09-20T15:06:38Z</time>
      </trkpt>
      <trkpt lat="43.67731" lon="7.18855">
        <ele>29.4</ele>
        <time>2021-09-20T15:06:41Z</time>
      </trkpt>
      <trkpt lat="43.67721" lon="7.18856">
        <ele>29.8</ele>
        <time>2021-09-20T15:06:43Z</time>
      </trkpt>
      <trkpt lat="43.67711" lon="7.18856">
        <ele>30.1</ele>
        <time>2021-09-20T15:06:44Z</time>
      </trkpt>
      <trkpt lat="43.67706" lon="7.18856">
        <ele>30.3</ele>
        <time>2021-09-20T15:06:45Z</time>
      </trkpt>
      <trkpt lat="43.6768" lon="7.18855">
        <ele>30.8</ele>
        <time>2021-09-20T15:06:46Z</time>
      </trkpt>
      <trkpt lat="43.67673" lon="7.18855">
        <ele>30.8</ele>
        <time>2021-09-20T15:06:47Z</time>
      </trkpt>
      <trkpt lat="43.67662" lon="7.18854">
        <ele>30.8</ele>
        <time>2021-09-20T15:06:49Z</time>
      </trkpt>
      <trkpt lat="43.67658" lon="7.18854">
        <ele>30.7</ele>
        <time>2021-09-20T15:06:51Z</time>
      </trkpt>
      <trkpt lat="43.67659" lon="7.18853">
        <ele>30.7</ele>
        <time>2021-09-20T15:06:52Z</time>
      </trkpt>
      <trkpt lat="43.67646" lon="7.18855">
        <ele>30.5</ele>
        <time>2021-09-20T15:06:54Z</time>
      </trkpt>
      <trkpt lat="43.67635" lon="7.18856">
        <ele>30.4</ele>
        <time>2021-09-20T15:06:55Z</time>
      </trkpt>
      <trkpt lat="43.6763" lon="7.18856">
        <ele>30.4</ele>
        <time>2021-09-20T15:06:56Z</time>
      </trkpt>
      <trkpt lat="43.67726" lon="7.18832">
        <ele>30.5</ele>
        <time>2021-09-20T15:06:58Z</time>
      </trkpt>
      <trkpt lat="43.67728" lon="7.18831">
        <ele>30.5</ele>
        <time>2021-09-20T15:06:59Z</time>
      </trkpt>
      <trkpt lat="43.67726" lon="7.1883">
        <ele>30.5</ele>
        <time>2021-09-20T15:07:00Z</time>
      </trkpt>
      <trkpt lat="43.67716" lon="7.18829">
        <ele>30.5</ele>
        <time>2021-09-20T15:07:02Z</time>
      </trkpt>
      <trkpt lat="43.67705" lon="7.18829">
        <ele>30.5</ele>
        <time>2021-09-20T15:07:04Z</time>
      </trkpt>
      <trkpt lat="43.67696" lon="7.1883">
        <ele>30.5</ele>
        <time>2021-09-20T15:07:05Z</time>
      </trkpt>
      <trkpt lat="43.6769" lon="7.18831">
        <ele>30.5</ele>
        <time>2021-09-20T15:07:06Z</time>
      </trkpt>
      <trkpt lat="43.67677" lon="7.18834">
        <ele>30.5</ele>
        <time>2021-09-20T15:07:08Z</time>
      </trkpt>
      <trkpt lat="43.67659" lon="7.18836">
        <ele>30.5</ele>
        <time>2021-09-20T15:07:10Z</time>
      </trkpt>
      <trkpt lat="43.6765" lon="7.18836">
        <ele>30.5</ele>
        <time>2021-09-20T15:07:11Z</time>
      </trkpt>
      <trkpt lat="43.67646" lon="7.18836">
        <ele>30.5</ele>
        <time>2021-09-20T15:07:12Z</time>
      </trkpt>
      <trkpt lat="43.67633" lon="7.18836">
        <ele>30.4</ele>
        <time>2021-09-20T15:07:13Z</time>
      </trkpt>
      <trkpt lat="43.67619" lon="7.18836">
        <ele>30.3</ele>
        <time>2021-09-20T15:07:15Z</time>
      </trkpt>
      <trkpt lat="43.67614" lon="7.18833">
        <ele>30.2</ele>
        <time>2021-09-20T15:07:17Z</time>
      </trkpt>
      <trkpt lat="43.67599" lon="7.18832">
        <ele>29.9</ele>
        <time>2021-09-20T15:07:19Z</time>
      </trkpt>
      <trkpt lat="43.67596" lon="7.18832">
        <ele>29.8</ele>
        <time>2021-09-20T15:07:20Z</time>
      </trkpt>
      <trkpt lat="43.67592" lon="7.18833">
        <ele>29.7</ele>
        <time>2021-09-20T15:07:21Z</time>
      </trkpt>
      <trkpt lat="43.67589" lon="7.18833">
        <ele>29.6</ele>
        <time>2021-09-20T15:07:23Z</time>
      </trkpt>
      <trkpt lat="43.67545" lon="7.18861">
        <ele>29</ele>
        <time>2021-09-20T15:08:21Z</time>
      </trkpt>
      <trkpt lat="43.67543" lon="7.18871">
        <ele>28.9</ele>
        <time>2021-09-20T15:08:23Z</time>
      </trkpt>
      <trkpt lat="43.67542" lon="7.18876">
        <ele>28.8</ele>
        <time>2021-09-20T15:08:25Z</time>
      </trkpt>
      <trkpt lat="43.67541" lon="7.18878">
        <ele>28.8</ele>
        <time>2021-09-20T15:08:26Z</time>
      </trkpt>
      <trkpt lat="43.67541" lon="7.1888">
        <ele>28.7</ele>
        <time>2021-09-20T15:08:28Z</time>
      </trkpt>
      <trkpt lat="43.67541" lon="7.18882">
        <ele>28.7</ele>
        <time>2021-09-20T15:08:29Z</time>
      </trkpt>
      <trkpt lat="43.67541" lon="7.18883">
        <ele>28.7</ele>
        <time>2021-09-20T15:08:30Z</time>
      </trkpt>
      <trkpt lat="43.6754" lon="7.18883">
        <ele>28.7</ele>
        <time>2021-09-20T15:08:31Z</time>
      </trkpt>
      <trkpt lat="43.6754" lon="7.18882">
        <ele>28.7</ele>
        <time>2021-09-20T15:08:32Z</time>
      </trkpt>
      <trkpt lat="43.67539" lon="7.18882">
        <ele>28.7</ele>
        <time>2021-09-20T15:08:34Z</time>
      </trkpt>
      <trkpt lat="43.67534" lon="7.18888">
        <ele>28.5</ele>
        <time>2021-09-20T15:08:38Z</time>
      </trkpt>
      <trkpt lat="43.67506" lon="7.18894">
        <ele>28.4</ele>
        <time>2021-09-20T15:08:39Z</time>
      </trkpt>
      <trkpt lat="43.67499" lon="7.18897">
        <ele>28.4</ele>
        <time>2021-09-20T15:08:41Z</time>
      </trkpt>
      <trkpt lat="43.67495" lon="7.18899">
        <ele>28.4</ele>
        <time>2021-09-20T15:08:42Z</time>
      </trkpt>
      <trkpt lat="43.6749" lon="7.189">
        <ele>28.3</ele>
        <time>2021-09-20T15:08:44Z</time>
      </trkpt>
      <trkpt lat="43.67486" lon="7.189">
        <ele>28.3</ele>
        <time>2021-09-20T15:08:45Z</time>
      </trkpt>
      <trkpt lat="43.67482" lon="7.189">
        <ele>28.3</ele>
        <time>2021-09-20T15:08:47Z</time>
      </trkpt>
      <trkpt lat="43.6748" lon="7.189">
        <ele>28.3</ele>
        <time>2021-09-20T15:08:48Z</time>
      </trkpt>
      <trkpt lat="43.6748" lon="7.189">
        <ele>28.3</ele>
        <time>2021-09-20T15:08:50Z</time>
      </trkpt>
      <trkpt lat="43.67485" lon="7.18896">
        <ele>28.3</ele>
        <time>2021-09-20T15:08:53Z</time>
      </trkpt>
      <trkpt lat="43.67485" lon="7.18896">
        <ele>28.3</ele>
        <time>2021-09-20T15:08:54Z</time>
      </trkpt>
      <trkpt lat="43.67485" lon="7.18896">
        <ele>28.3</ele>
        <time>2021-09-20T15:08:55Z</time>
      </trkpt>
      <trkpt lat="43.67485" lon="7.18896">
        <ele>28.3</ele>
        <time>2021-09-20T15:08:56Z</time>
      </trkpt>
      <trkpt lat="43.67484" lon="7.18896">
        <ele>28.3</ele>
        <time>2021-09-20T15:08:57Z</time>
      </trkpt>
      <trkpt lat="43.67484" lon="7.18896">
        <ele>28.3</ele>
        <time>2021-09-20T15:08:59Z</time>
      </trkpt>
      <trkpt lat="43.67429" lon="7.18941">
        <ele>27.6</ele>
        <time>2021-09-20T15:09:40Z</time>
      </trkpt>
      <trkpt lat="43.67426" lon="7.18947">
        <ele>27.5</ele>
        <time>2021-09-20T15:09:41Z</time>
      </trkpt>
      <trkpt lat="43.67391" lon="7.18982">
        <ele>26.6</ele>
        <time>2021-09-20T15:09:43Z</time>
      </trkpt>
      <trkpt lat="43.67377" lon="7.18994">
        <ele>26.3</ele>
        <time>2021-09-20T15:09:44Z</time>
      </trkpt>
      <trkpt lat="43.67367" lon="7.19003">
        <ele>26</ele>
        <time>2021-09-20T15:09:46Z</time>
      </trkpt>
      <trkpt lat="43.67357" lon="7.1901">
        <ele>25.9</ele>
        <time>2021-09-20T15:09:47Z</time>
      </trkpt>
      <trkpt lat="43.67352" lon="7.19012">
        <ele>25.8</ele>
        <time>2021-09-20T15:09:52Z</time>
      </trkpt>
      <trkpt lat="43.67348" lon="7.19013">
        <ele>25.8</ele>
        <time>2021-09-20T15:09:53Z</time>
      </trkpt>
      <trkpt lat="43.67342" lon="7.19014">
        <ele>25.7</ele>
        <time>2021-09-20T15:09:54Z</time>
      </trkpt>
      <trkpt lat="43.67303" lon="7.19018">
        <ele>25.9</ele>
        <time>2021-09-20T15:09:55Z</time>
      </trkpt>
      <trkpt lat="43.67299" lon="7.19018">
        <ele>25.9</ele>
        <time>2021-09-20T15:09:57Z</time>
      </trkpt>
      <trkpt lat="43.67296" lon="7.19019">
        <ele>26</ele>
        <time>2021-09-20T15:09:58Z</time>
      </trkpt>
      <trkpt lat="43.6729" lon="7.19019">
        <ele>26</ele>
        <time>2021-09-20T15:09:59Z</time>
      </trkpt>
      <trkpt lat="43.67282" lon="7.1902">
        <ele>26.1</ele>
        <time>2021-09-20T15:10:00Z</time>
      </trkpt>
      <trkpt lat="43.67263" lon="7.19019">
        <ele>26.4</ele>
        <time>2021-09-20T15:10:03Z</time>
      </trkpt>
      <trkpt lat="43.67243" lon="7.19016">
        <ele>26.7</ele>
        <time>2021-09-20T15:10:05Z</time>
      </trkpt>
      <trkpt lat="43.67224" lon="7.19018">
        <ele>26.9</ele>
        <time>2021-09-20T15:10:07Z</time>
      </trkpt>
      <trkpt lat="43.67208" lon="7.1902">
        <ele>27.1</ele>
        <time>2021-09-20T15:10:09Z</time>
      </trkpt>
      <trkpt lat="43.67195" lon="7.1902">
        <ele>27.2</ele>
        <time>2021-09-20T15:10:10Z</time>
      </trkpt>
      <trkpt lat="43.67187" lon="7.19018">
        <ele>27.2</ele>
        <time>2021-09-20T15:10:11Z</time>
      </trkpt>
      <trkpt lat="43.67174" lon="7.19016">
        <ele>27.2</ele>
        <time>2021-09-20T15:10:13Z</time>
      </trkpt>
      <trkpt lat="43.6716" lon="7.19013">
        <ele>27.2</ele>
        <time>2021-09-20T15:10:14Z</time>
      </trkpt>
      <trkpt lat="43.67152" lon="7.1901">
        <ele>27.2</ele>
        <time>2021-09-20T15:10:16Z</time>
      </trkpt>
      <trkpt lat="43.6715" lon="7.19006">
        <ele>27.2</ele>
        <time>2021-09-20T15:10:17Z</time>
      </trkpt>
      <trkpt lat="43.67147" lon="7.19009">
        <ele>27.2</ele>
        <time>2021-09-20T15:10:18Z</time>
      </trkpt>
      <trkpt lat="43.67144" lon="7.19009">
        <ele>27.2</ele>
        <time>2021-09-20T15:10:19Z</time>
      </trkpt>
      <trkpt lat="43.67134" lon="7.19008">
        <ele>27.2</ele>
        <time>2021-09-20T15:10:21Z</time>
      </trkpt>
      <trkpt lat="43.6713" lon="7.19008">
        <ele>27.2</ele>
        <time>2021-09-20T15:10:22Z</time>
      </trkpt>
      <trkpt lat="43.67122" lon="7.19007">
        <ele>27.2</ele>
        <time>2021-09-20T15:10:24Z</time>
      </trkpt>
      <trkpt lat="43.67117" lon="7.19008">
        <ele>27.2</ele>
        <time>2021-09-20T15:10:25Z</time>
      </trkpt>
      <trkpt lat="43.67112" lon="7.19009">
        <ele>27.2</ele>
        <time>2021-09-20T15:10:27Z</time>
      </trkpt>
      <trkpt lat="43.67108" lon="7.19009">
        <ele>27.2</ele>
        <time>2021-09-20T15:10:28Z</time>
      </trkpt>
      <trkpt lat="43.67104" lon="7.19008">
        <ele>27.2</ele>
        <time>2021-09-20T15:10:30Z</time>
      </trkpt>
      <trkpt lat="43.67101" lon="7.19006">
        <ele>27.3</ele>
        <time>2021-09-20T15:10:31Z</time>
      </trkpt>
      <trkpt lat="43.67096" lon="7.19002">
        <ele>27.3</ele>
        <time>2021-09-20T15:10:33Z</time>
      </trkpt>
      <trkpt lat="43.67092" lon="7.18999">
        <ele>27.3</ele>
        <time>2021-09-20T15:10:35Z</time>
      </trkpt>
      <trkpt lat="43.67091" lon="7.18998">
        <ele>27.3</ele>
        <time>2021-09-20T15:10:36Z</time>
      </trkpt>
      <trkpt lat="43.6709" lon="7.18997">
        <ele>27.3</ele>
        <time>2021-09-20T15:10:37Z</time>
      </trkpt>
      <trkpt lat="43.67088" lon="7.18996">
        <ele>27.3</ele>
        <time>2021-09-20T15:10:38Z</time>
      </trkpt>
      <trkpt lat="43.67084" lon="7.18995">
        <ele>27.3</ele>
        <time>2021-09-20T15:10:40Z</time>
      </trkpt>
      <trkpt lat="43.67083" lon="7.18995">
        <ele>27.3</ele>
        <time>2021-09-20T15:10:42Z</time>
      </trkpt>
      <trkpt lat="43.67082" lon="7.18995">
        <ele>27.3</ele>
        <time>2021-09-20T15:10:44Z</time>
      </trkpt>
      <trkpt lat="43.67081" lon="7.18995">
        <ele>27.3</ele>
        <time>2021-09-20T15:10:45Z</time>
      </trkpt>
      <trkpt lat="43.67081" lon="7.18995">
        <ele>27.3</ele>
        <time>2021-09-20T15:10:46Z</time>
      </trkpt>
      <trkpt lat="43.6708" lon="7.18995">
        <ele>27.3</ele>
        <time>2021-09-20T15:10:47Z</time>
      </trkpt>
      <trkpt lat="43.67079" lon="7.18995">
        <ele>27.3</ele>
        <time>2021-09-20T15:10:49Z</time>
      </trkpt>
      <trkpt lat="43.67078" lon="7.18994">
        <ele>27.3</ele>
        <time>2021-09-20T15:10:50Z</time>
      </trkpt>
      <trkpt lat="43.67077" lon="7.18994">
        <ele>27.3</ele>
        <time>2021-09-20T15:10:51Z</time>
      </trkpt>
      <trkpt lat="43.67076" lon="7.18994">
        <ele>27.3</ele>
        <time>2021-09-20T15:10:52Z</time>
      </trkpt>
      <trkpt lat="43.6707" lon="7.18993">
        <ele>27.3</ele>
        <time>2021-09-20T15:10:54Z</time>
      </trkpt>
      <trkpt lat="43.67067" lon="7.18992">
        <ele>27.3</ele>
        <time>2021-09-20T15:10:55Z</time>
      </trkpt>
      <trkpt lat="43.67052" lon="7.18988">
        <ele>27.7</ele>
        <time>2021-09-20T15:10:57Z</time>
      </trkpt>
      <trkpt lat="43.6701" lon="7.18978">
        <ele>29.4</ele>
        <time>2021-09-20T15:11:05Z</time>
      </trkpt>
      <trkpt lat="43.67003" lon="7.18976">
        <ele>29.7</ele>
        <time>2021-09-20T15:11:06Z</time>
      </trkpt>
      <trkpt lat="43.6699" lon="7.18971">
        <ele>30.4</ele>
        <time>2021-09-20T15:11:08Z</time>
      </trkpt>
      <trkpt lat="43.66982" lon="7.18968">
        <ele>30.8</ele>
        <time>2021-09-20T15:11:09Z</time>
      </trkpt>
      <trkpt lat="43.66968" lon="7.18959">
        <ele>31.7</ele>
        <time>2021-09-20T15:11:11Z</time>
      </trkpt>
      <trkpt lat="43.66955" lon="7.18952">
        <ele>32.2</ele>
        <time>2021-09-20T15:11:12Z</time>
      </trkpt>
      <trkpt lat="43.66946" lon="7.18948">
        <ele>32.6</ele>
        <time>2021-09-20T15:11:14Z</time>
      </trkpt>
      <trkpt lat="43.66943" lon="7.18945">
        <ele>32.7</ele>
        <time>2021-09-20T15:11:16Z</time>
      </trkpt>
      <trkpt lat="43.66941" lon="7.18941">
        <ele>32.8</ele>
        <time>2021-09-20T15:11:17Z</time>
      </trkpt>
      <trkpt lat="43.6694" lon="7.1894">
        <ele>32.8</ele>
        <time>2021-09-20T15:11:18Z</time>
      </trkpt>
      <trkpt lat="43.66939" lon="7.18939">
        <ele>32.9</ele>
        <time>2021-09-20T15:11:19Z</time>
      </trkpt>
      <trkpt lat="43.66938" lon="7.18937">
        <ele>32.9</ele>
        <time>2021-09-20T15:11:21Z</time>
      </trkpt>
      <trkpt lat="43.66938" lon="7.18937">
        <ele>32.9</ele>
        <time>2021-09-20T15:11:22Z</time>
      </trkpt>
      <trkpt lat="43.66937" lon="7.18937">
        <ele>32.9</ele>
        <time>2021-09-20T15:11:24Z</time>
      </trkpt>
      <trkpt lat="43.66846" lon="7.18913">
        <ele>35.1</ele>
        <time>2021-09-20T15:12:29Z</time>
      </trkpt>
      <trkpt lat="43.66836" lon="7.18902">
        <ele>35.4</ele>
        <time>2021-09-20T15:12:30Z</time>
      </trkpt>
      <trkpt lat="43.66829" lon="7.18893">
        <ele>35.6</ele>
        <time>2021-09-20T15:12:31Z</time>
      </trkpt>
      <trkpt lat="43.66822" lon="7.18886">
        <ele>35.8</ele>
        <time>2021-09-20T15:12:32Z</time>
      </trkpt>
      <trkpt lat="43.6681" lon="7.18876">
        <ele>36.1</ele>
        <time>2021-09-20T15:12:34Z</time>
      </trkpt>
      <trkpt lat="43.66798" lon="7.18867">
        <ele>36.3</ele>
        <time>2021-09-20T15:12:36Z</time>
      </trkpt>
      <trkpt lat="43.66785" lon="7.1886">
        <ele>36.5</ele>
        <time>2021-09-20T15:12:38Z</time>
      </trkpt>
      <trkpt lat="43.6678" lon="7.18857">
        <ele>36.6</ele>
        <time>2021-09-20T15:12:39Z</time>
      </trkpt>
      <trkpt lat="43.66769" lon="7.1885">
        <ele>36.8</ele>
        <time>2021-09-20T15:12:41Z</time>
      </trkpt>
      <trkpt lat="43.66763" lon="7.18847">
        <ele>36.9</ele>
        <time>2021-09-20T15:12:42Z</time>
      </trkpt>
      <trkpt lat="43.66756" lon="7.18842">
        <ele>37</ele>
        <time>2021-09-20T15:12:44Z</time>
      </trkpt>
      <trkpt lat="43.66749" lon="7.18837">
        <ele>37.1</ele>
        <time>2021-09-20T15:12:46Z</time>
      </trkpt>
      <trkpt lat="43.66745" lon="7.18835">
        <ele>37.2</ele>
        <time>2021-09-20T15:12:47Z</time>
      </trkpt>
      <trkpt lat="43.66742" lon="7.18833">
        <ele>37.2</ele>
        <time>2021-09-20T15:12:48Z</time>
      </trkpt>
      <trkpt lat="43.66738" lon="7.1883">
        <ele>37.3</ele>
        <time>2021-09-20T15:12:49Z</time>
      </trkpt>
      <trkpt lat="43.66731" lon="7.18826">
        <ele>37.3</ele>
        <time>2021-09-20T15:12:51Z</time>
      </trkpt>
      <trkpt lat="43.66729" lon="7.18825">
        <ele>37.3</ele>
        <time>2021-09-20T15:12:52Z</time>
      </trkpt>
      <trkpt lat="43.66723" lon="7.18818">
        <ele>37.4</ele>
        <time>2021-09-20T15:12:54Z</time>
      </trkpt>
      <trkpt lat="43.66719" lon="7.18811">
        <ele>37.4</ele>
        <time>2021-09-20T15:12:55Z</time>
      </trkpt>
      <trkpt lat="43.66716" lon="7.18805">
        <ele>37.4</ele>
        <time>2021-09-20T15:12:56Z</time>
      </trkpt>
      <trkpt lat="43.6671" lon="7.18796">
        <ele>37.4</ele>
        <time>2021-09-20T15:12:58Z</time>
      </trkpt>
      <trkpt lat="43.66705" lon="7.1879">
        <ele>37.4</ele>
        <time>2021-09-20T15:12:59Z</time>
      </trkpt>
      <trkpt lat="43.66697" lon="7.18781">
        <ele>37.3</ele>
        <time>2021-09-20T15:13:01Z</time>
      </trkpt>
      <trkpt lat="43.66694" lon="7.18775">
        <ele>37.3</ele>
        <time>2021-09-20T15:13:02Z</time>
      </trkpt>
      <trkpt lat="43.66686" lon="7.18763">
        <ele>37.2</ele>
        <time>2021-09-20T15:13:04Z</time>
      </trkpt>
      <trkpt lat="43.66682" lon="7.18758">
        <ele>37.1</ele>
        <time>2021-09-20T15:13:05Z</time>
      </trkpt>
      <trkpt lat="43.66678" lon="7.18754">
        <ele>37.1</ele>
        <time>2021-09-20T15:13:06Z</time>
      </trkpt>
      <trkpt lat="43.66674" lon="7.18749">
        <ele>37.1</ele>
        <time>2021-09-20T15:13:07Z</time>
      </trkpt>
      <trkpt lat="43.6667" lon="7.18743">
        <ele>37</ele>
        <time>2021-09-20T15:13:08Z</time>
      </trkpt>
      <trkpt lat="43.66663" lon="7.18733">
        <ele>37</ele>
        <time>2021-09-20T15:13:10Z</time>
      </trkpt>
      <trkpt lat="43.66661" lon="7.18728">
        <ele>36.9</ele>
        <time>2021-09-20T15:13:11Z</time>
      </trkpt>
      <trkpt lat="43.66658" lon="7.18723">
        <ele>36.9</ele>
        <time>2021-09-20T15:13:12Z</time>
      </trkpt>
      <trkpt lat="43.66653" lon="7.18716">
        <ele>36.9</ele>
        <time>2021-09-20T15:13:14Z</time>
      </trkpt>
      <trkpt lat="43.66648" lon="7.1871">
        <ele>36.9</ele>
        <time>2021-09-20T15:13:16Z</time>
      </trkpt>
      <trkpt lat="43.66646" lon="7.18707">
        <ele>36.9</ele>
        <time>2021-09-20T15:13:17Z</time>
      </trkpt>
      <trkpt lat="43.66645" lon="7.18705">
        <ele>36.8</ele>
        <time>2021-09-20T15:13:18Z</time>
      </trkpt>
      <trkpt lat="43.66644" lon="7.18704">
        <ele>36.8</ele>
        <time>2021-09-20T15:13:19Z</time>
      </trkpt>
      <trkpt lat="43.66642" lon="7.18702">
        <ele>36.8</ele>
        <time>2021-09-20T15:13:21Z</time>
      </trkpt>
      <trkpt lat="43.66641" lon="7.187">
        <ele>36.8</ele>
        <time>2021-09-20T15:13:23Z</time>
      </trkpt>
      <trkpt lat="43.66641" lon="7.18698">
        <ele>36.8</ele>
        <time>2021-09-20T15:13:24Z</time>
      </trkpt>
      <trkpt lat="43.66642" lon="7.18696">
        <ele>36.8</ele>
        <time>2021-09-20T15:13:25Z</time>
      </trkpt>
      <trkpt lat="43.66642" lon="7.18694">
        <ele>36.8</ele>
        <time>2021-09-20T15:13:27Z</time>
      </trkpt>
      <trkpt lat="43.66642" lon="7.18693">
        <ele>36.8</ele>
        <time>2021-09-20T15:13:29Z</time>
      </trkpt>
      <trkpt lat="43.66643" lon="7.18691">
        <ele>36.8</ele>
        <time>2021-09-20T15:13:31Z</time>
      </trkpt>
      <trkpt lat="43.66643" lon="7.18689">
        <ele>36.8</ele>
        <time>2021-09-20T15:13:32Z</time>
      </trkpt>
      <trkpt lat="43.66643" lon="7.18688">
        <ele>36.8</ele>
        <time>2021-09-20T15:13:33Z</time>
      </trkpt>
      <trkpt lat="43.66644" lon="7.18686">
        <ele>36.8</ele>
        <time>2021-09-20T15:14:48Z</time>
      </trkpt>
      <trkpt lat="43.66644" lon="7.18684">
        <ele>36.8</ele>
        <time>2021-09-20T15:14:49Z</time>
      </trkpt>
      <trkpt lat="43.66648" lon="7.1868">
        <ele>36.7</ele>
        <time>2021-09-20T15:14:50Z</time>
      </trkpt>
      <trkpt lat="43.66652" lon="7.18675">
        <ele>36.7</ele>
        <time>2021-09-20T15:14:52Z</time>
      </trkpt>
      <trkpt lat="43.66656" lon="7.18671">
        <ele>36.7</ele>
        <time>2021-09-20T15:14:53Z</time>
      </trkpt>
      <trkpt lat="43.66658" lon="7.18666">
        <ele>36.7</ele>
        <time>2021-09-20T15:14:54Z</time>
      </trkpt>
      <trkpt lat="43.66659" lon="7.18664">
        <ele>36.7</ele>
        <time>2021-09-20T15:14:55Z</time>
      </trkpt>
      <trkpt lat="43.66659" lon="7.18662">
        <ele>36.7</ele>
        <time>2021-09-20T15:14:57Z</time>
      </trkpt>
      <trkpt lat="43.66659" lon="7.18662">
        <ele>36.7</ele>
        <time>2021-09-20T15:14:58Z</time>
      </trkpt>
      <trkpt lat="43.66659" lon="7.18662">
        <ele>36.7</ele>
        <time>2021-09-20T15:15:00Z</time>
      </trkpt>
      <trkpt lat="43.6666" lon="7.18662">
        <ele>36.7</ele>
        <time>2021-09-20T15:15:01Z</time>
      </trkpt>
      <trkpt lat="43.6666" lon="7.18662">
        <ele>36.7</ele>
        <time>2021-09-20T15:15:03Z</time>
      </trkpt>
      <trkpt lat="43.66663" lon="7.18661">
        <ele>36.7</ele>
        <time>2021-09-20T15:15:29Z</time>
      </trkpt>
      <trkpt lat="43.66659" lon="7.1866">
        <ele>36.7</ele>
        <time>2021-09-20T15:15:31Z</time>
      </trkpt>
      <trkpt lat="43.66657" lon="7.18661">
        <ele>36.7</ele>
        <time>2021-09-20T15:15:32Z</time>
      </trkpt>
      <trkpt lat="43.66653" lon="7.18662">
        <ele>36.7</ele>
        <time>2021-09-20T15:15:34Z</time>
      </trkpt>
      <trkpt lat="43.66651" lon="7.18666">
        <ele>36.7</ele>
        <time>2021-09-20T15:15:35Z</time>
      </trkpt>
      <trkpt lat="43.6665" lon="7.18668">
        <ele>36.7</ele>
        <time>2021-09-20T15:15:36Z</time>
      </trkpt>
      <trkpt lat="43.66648" lon="7.18674">
        <ele>36.7</ele>
        <time>2021-09-20T15:15:38Z</time>
      </trkpt>
      <trkpt lat="43.66645" lon="7.18677">
        <ele>36.7</ele>
        <time>2021-09-20T15:15:40Z</time>
      </trkpt>
      <trkpt lat="43.66645" lon="7.18678">
        <ele>36.7</ele>
        <time>2021-09-20T15:15:41Z</time>
      </trkpt>
      <trkpt lat="43.66644" lon="7.18681">
        <ele>36.7</ele>
        <time>2021-09-20T15:15:43Z</time>
      </trkpt>
      <trkpt lat="43.66644" lon="7.18683">
        <ele>36.7</ele>
        <time>2021-09-20T15:15:44Z</time>
      </trkpt>
      <trkpt lat="43.66636" lon="7.18683">
        <ele>36.7</ele>
        <time>2021-09-20T15:15:46Z</time>
      </trkpt>
      <trkpt lat="43.66628" lon="7.18681">
        <ele>36.7</ele>
        <time>2021-09-20T15:15:47Z</time>
      </trkpt>
      <trkpt lat="43.66621" lon="7.18679">
        <ele>36.7</ele>
        <time>2021-09-20T15:15:48Z</time>
      </trkpt>
      <trkpt lat="43.66613" lon="7.18677">
        <ele>36.6</ele>
        <time>2021-09-20T15:15:50Z</time>
      </trkpt>
      <trkpt lat="43.66605" lon="7.18675">
        <ele>36.5</ele>
        <time>2021-09-20T15:15:52Z</time>
      </trkpt>
      <trkpt lat="43.66598" lon="7.18673">
        <ele>36.4</ele>
        <time>2021-09-20T15:16:33Z</time>
      </trkpt>
      <trkpt lat="43.6659" lon="7.18672">
        <ele>36.2</ele>
        <time>2021-09-20T15:16:35Z</time>
      </trkpt>
      <trkpt lat="43.66581" lon="7.1867">
        <ele>36.1</ele>
        <time>2021-09-20T15:16:36Z</time>
      </trkpt>
      <trkpt lat="43.66573" lon="7.18668">
        <ele>36</ele>
        <time>2021-09-20T15:16:38Z</time>
      </trkpt>
      <trkpt lat="43.66567" lon="7.18666">
        <ele>36</ele>
        <time>2021-09-20T15:16:39Z</time>
      </trkpt>
      <trkpt lat="43.66561" lon="7.18662">
        <ele>35.9</ele>
        <time>2021-09-20T15:16:40Z</time>
      </trkpt>
      <trkpt lat="43.66557" lon="7.18659">
        <ele>35.8</ele>
        <time>2021-09-20T15:16:41Z</time>
      </trkpt>
      <trkpt lat="43.66551" lon="7.18657">
        <ele>35.7</ele>
        <time>2021-09-20T15:16:43Z</time>
      </trkpt>
      <trkpt lat="43.66546" lon="7.18653">
        <ele>35.6</ele>
        <time>2021-09-20T15:16:44Z</time>
      </trkpt>
      <trkpt lat="43.66542" lon="7.1865">
        <ele>35.5</ele>
        <time>2021-09-20T15:16:46Z</time>
      </trkpt>
      <trkpt lat="43.66532" lon="7.18646">
        <ele>35.3</ele>
        <time>2021-09-20T15:16:47Z</time>
      </trkpt>
      <trkpt lat="43.66523" lon="7.18644">
        <ele>35.1</ele>
        <time>2021-09-20T15:16:48Z</time>
      </trkpt>
      <trkpt lat="43.66507" lon="7.1864">
        <ele>34.8</ele>
        <time>2021-09-20T15:16:50Z</time>
      </trkpt>
      <trkpt lat="43.66496" lon="7.18634">
        <ele>34.6</ele>
        <time>2021-09-20T15:16:52Z</time>
      </trkpt>
      <trkpt lat="43.66487" lon="7.18627">
        <ele>34.4</ele>
        <time>2021-09-20T15:16:54Z</time>
      </trkpt>
      <trkpt lat="43.66482" lon="7.18623">
        <ele>34.3</ele>
        <time>2021-09-20T15:16:55Z</time>
      </trkpt>
      <trkpt lat="43.66476" lon="7.1862">
        <ele>34.2</ele>
        <time>2021-09-20T15:16:56Z</time>
      </trkpt>
      <trkpt lat="43.66466" lon="7.18614">
        <ele>34</ele>
        <time>2021-09-20T15:16:58Z</time>
      </trkpt>
      <trkpt lat="43.66455" lon="7.18607">
        <ele>33.7</ele>
        <time>2021-09-20T15:17:00Z</time>
      </trkpt>
      <trkpt lat="43.66447" lon="7.186">
        <ele>33.5</ele>
        <time>2021-09-20T15:17:02Z</time>
      </trkpt>
      <trkpt lat="43.66444" lon="7.18596">
        <ele>33.5</ele>
        <time>2021-09-20T15:17:03Z</time>
      </trkpt>
      <trkpt lat="43.66435" lon="7.18588">
        <ele>33.3</ele>
        <time>2021-09-20T15:17:05Z</time>
      </trkpt>
      <trkpt lat="43.66425" lon="7.18576">
        <ele>33</ele>
        <time>2021-09-20T15:17:07Z</time>
      </trkpt>
      <trkpt lat="43.66421" lon="7.18569">
        <ele>32.8</ele>
        <time>2021-09-20T15:17:08Z</time>
      </trkpt>
      <trkpt lat="43.66419" lon="7.18561">
        <ele>32.6</ele>
        <time>2021-09-20T15:17:09Z</time>
      </trkpt>
      <trkpt lat="43.66415" lon="7.18546">
        <ele>32.1</ele>
        <time>2021-09-20T15:17:11Z</time>
      </trkpt>
      <trkpt lat="43.66412" lon="7.18537">
        <ele>31.9</ele>
        <time>2021-09-20T15:17:12Z</time>
      </trkpt>
      <trkpt lat="43.66408" lon="7.18517">
        <ele>31.4</ele>
        <time>2021-09-20T15:17:14Z</time>
      </trkpt>
      <trkpt lat="43.66401" lon="7.18498">
        <ele>30.9</ele>
        <time>2021-09-20T15:17:16Z</time>
      </trkpt>
      <trkpt lat="43.66397" lon="7.18489">
        <ele>30.5</ele>
        <time>2021-09-20T15:17:17Z</time>
      </trkpt>
      <trkpt lat="43.66394" lon="7.18479">
        <ele>30.2</ele>
        <time>2021-09-20T15:17:18Z</time>
      </trkpt>
      <trkpt lat="43.6639" lon="7.18468">
        <ele>29.8</ele>
        <time>2021-09-20T15:17:19Z</time>
      </trkpt>
      <trkpt lat="43.66386" lon="7.18457">
        <ele>29.5</ele>
        <time>2021-09-20T15:17:20Z</time>
      </trkpt>
      <trkpt lat="43.66382" lon="7.18447">
        <ele>29.2</ele>
        <time>2021-09-20T15:17:21Z</time>
      </trkpt>
      <trkpt lat="43.66373" lon="7.18427">
        <ele>28.6</ele>
        <time>2021-09-20T15:17:23Z</time>
      </trkpt>
      <trkpt lat="43.66368" lon="7.18417">
        <ele>28.2</ele>
        <time>2021-09-20T15:17:24Z</time>
      </trkpt>
      <trkpt lat="43.66362" lon="7.18406">
        <ele>27.9</ele>
        <time>2021-09-20T15:17:25Z</time>
      </trkpt>
      <trkpt lat="43.66356" lon="7.18396">
        <ele>27.6</ele>
        <time>2021-09-20T15:17:26Z</time>
      </trkpt>
      <trkpt lat="43.66345" lon="7.18374">
        <ele>27</ele>
        <time>2021-09-20T15:17:28Z</time>
      </trkpt>
      <trkpt lat="43.66338" lon="7.18363">
        <ele>26.7</ele>
        <time>2021-09-20T15:17:29Z</time>
      </trkpt>
      <trkpt lat="43.66332" lon="7.18353">
        <ele>26.5</ele>
        <time>2021-09-20T15:17:30Z</time>
      </trkpt>
      <trkpt lat="43.66326" lon="7.18343">
        <ele>26.3</ele>
        <time>2021-09-20T15:17:31Z</time>
      </trkpt>
      <trkpt lat="43.66319" lon="7.18324">
        <ele>26</ele>
        <time>2021-09-20T15:17:33Z</time>
      </trkpt>
      <trkpt lat="43.66311" lon="7.18306">
        <ele>25.7</ele>
        <time>2021-09-20T15:17:35Z</time>
      </trkpt>
      <trkpt lat="43.66301" lon="7.18289">
        <ele>25.5</ele>
        <time>2021-09-20T15:17:37Z</time>
      </trkpt>
      <trkpt lat="43.66297" lon="7.1828">
        <ele>25.4</ele>
        <time>2021-09-20T15:17:38Z</time>
      </trkpt>
      <trkpt lat="43.66287" lon="7.18264">
        <ele>25.2</ele>
        <time>2021-09-20T15:17:40Z</time>
      </trkpt>
      <trkpt lat="43.66283" lon="7.18255">
        <ele>25.1</ele>
        <time>2021-09-20T15:17:41Z</time>
      </trkpt>
      <trkpt lat="43.66276" lon="7.18239">
        <ele>24.9</ele>
        <time>2021-09-20T15:17:43Z</time>
      </trkpt>
      <trkpt lat="43.66274" lon="7.18231">
        <ele>24.8</ele>
        <time>2021-09-20T15:17:44Z</time>
      </trkpt>
      <trkpt lat="43.6627" lon="7.18223">
        <ele>24.7</ele>
        <time>2021-09-20T15:17:45Z</time>
      </trkpt>
      <trkpt lat="43.66264" lon="7.18207">
        <ele>24.6</ele>
        <time>2021-09-20T15:17:47Z</time>
      </trkpt>
      <trkpt lat="43.66255" lon="7.18194">
        <ele>24.3</ele>
        <time>2021-09-20T15:17:49Z</time>
      </trkpt>
      <trkpt lat="43.66251" lon="7.18187">
        <ele>24.2</ele>
        <time>2021-09-20T15:17:50Z</time>
      </trkpt>
      <trkpt lat="43.66242" lon="7.18173">
        <ele>23.9</ele>
        <time>2021-09-20T15:17:52Z</time>
      </trkpt>
      <trkpt lat="43.66239" lon="7.18166">
        <ele>23.8</ele>
        <time>2021-09-20T15:17:53Z</time>
      </trkpt>
      <trkpt lat="43.66236" lon="7.18158">
        <ele>23.7</ele>
        <time>2021-09-20T15:17:54Z</time>
      </trkpt>
      <trkpt lat="43.6623" lon="7.18143">
        <ele>23.6</ele>
        <time>2021-09-20T15:17:56Z</time>
      </trkpt>
      <trkpt lat="43.66226" lon="7.18134">
        <ele>23.5</ele>
        <time>2021-09-20T15:17:57Z</time>
      </trkpt>
      <trkpt lat="43.66221" lon="7.18118">
        <ele>23.3</ele>
        <time>2021-09-20T15:17:59Z</time>
      </trkpt>
      <trkpt lat="43.66218" lon="7.18109">
        <ele>23.2</ele>
        <time>2021-09-20T15:18:00Z</time>
      </trkpt>
      <trkpt lat="43.66213" lon="7.1809">
        <ele>23.1</ele>
        <time>2021-09-20T15:18:02Z</time>
      </trkpt>
      <trkpt lat="43.66212" lon="7.18081">
        <ele>23</ele>
        <time>2021-09-20T15:18:03Z</time>
      </trkpt>
      <trkpt lat="43.66211" lon="7.18062">
        <ele>22.9</ele>
        <time>2021-09-20T15:18:05Z</time>
      </trkpt>
      <trkpt lat="43.6621" lon="7.18052">
        <ele>22.8</ele>
        <time>2021-09-20T15:18:06Z</time>
      </trkpt>
      <trkpt lat="43.66209" lon="7.18041">
        <ele>22.7</ele>
        <time>2021-09-20T15:18:07Z</time>
      </trkpt>
      <trkpt lat="43.66208" lon="7.18029">
        <ele>22.7</ele>
        <time>2021-09-20T15:18:08Z</time>
      </trkpt>
      <trkpt lat="43.66199" lon="7.18007">
        <ele>22.4</ele>
        <time>2021-09-20T15:18:10Z</time>
      </trkpt>
      <trkpt lat="43.66192" lon="7.17987">
        <ele>22.3</ele>
        <time>2021-09-20T15:18:12Z</time>
      </trkpt>
      <trkpt lat="43.66188" lon="7.17969">
        <ele>22.2</ele>
        <time>2021-09-20T15:18:14Z</time>
      </trkpt>
      <trkpt lat="43.66182" lon="7.17951">
        <ele>22.1</ele>
        <time>2021-09-20T15:18:16Z</time>
      </trkpt>
      <trkpt lat="43.66178" lon="7.17943">
        <ele>22</ele>
        <time>2021-09-20T15:18:17Z</time>
      </trkpt>
      <trkpt lat="43.66174" lon="7.17935">
        <ele>21.8</ele>
        <time>2021-09-20T15:18:18Z</time>
      </trkpt>
      <trkpt lat="43.66167" lon="7.1792">
        <ele>21.6</ele>
        <time>2021-09-20T15:18:20Z</time>
      </trkpt>
      <trkpt lat="43.66163" lon="7.17912">
        <ele>21.5</ele>
        <time>2021-09-20T15:18:21Z</time>
      </trkpt>
      <trkpt lat="43.66154" lon="7.17895">
        <ele>20.9</ele>
        <time>2021-09-20T15:18:23Z</time>
      </trkpt>
      <trkpt lat="43.6615" lon="7.17887">
        <ele>20.6</ele>
        <time>2021-09-20T15:18:24Z</time>
      </trkpt>
      <trkpt lat="43.66142" lon="7.17867">
        <ele>19.9</ele>
        <time>2021-09-20T15:18:26Z</time>
      </trkpt>
      <trkpt lat="43.66139" lon="7.17858">
        <ele>19.6</ele>
        <time>2021-09-20T15:18:27Z</time>
      </trkpt>
      <trkpt lat="43.66134" lon="7.17842">
        <ele>19.1</ele>
        <time>2021-09-20T15:18:29Z</time>
      </trkpt>
      <trkpt lat="43.6613" lon="7.17834">
        <ele>18.8</ele>
        <time>2021-09-20T15:18:30Z</time>
      </trkpt>
      <trkpt lat="43.66123" lon="7.17819">
        <ele>18.2</ele>
        <time>2021-09-20T15:18:32Z</time>
      </trkpt>
      <trkpt lat="43.6612" lon="7.17811">
        <ele>17.9</ele>
        <time>2021-09-20T15:18:33Z</time>
      </trkpt>
      <trkpt lat="43.66113" lon="7.17796">
        <ele>17.3</ele>
        <time>2021-09-20T15:18:35Z</time>
      </trkpt>
      <trkpt lat="43.66108" lon="7.17782">
        <ele>16.8</ele>
        <time>2021-09-20T15:18:37Z</time>
      </trkpt>
      <trkpt lat="43.66106" lon="7.17777">
        <ele>16.7</ele>
        <time>2021-09-20T15:18:38Z</time>
      </trkpt>
      <trkpt lat="43.66104" lon="7.17771">
        <ele>16.5</ele>
        <time>2021-09-20T15:18:40Z</time>
      </trkpt>
      <trkpt lat="43.66103" lon="7.17768">
        <ele>16.4</ele>
        <time>2021-09-20T15:18:41Z</time>
      </trkpt>
      <trkpt lat="43.66101" lon="7.17764">
        <ele>16.2</ele>
        <time>2021-09-20T15:18:43Z</time>
      </trkpt>
      <trkpt lat="43.66101" lon="7.17762">
        <ele>16.2</ele>
        <time>2021-09-20T15:18:45Z</time>
      </trkpt>
      <trkpt lat="43.66101" lon="7.17761">
        <ele>16.2</ele>
        <time>2021-09-20T15:18:46Z</time>
      </trkpt>
      <trkpt lat="43.66101" lon="7.17761">
        <ele>16.2</ele>
        <time>2021-09-20T15:18:47Z</time>
      </trkpt>
      <trkpt lat="43.66101" lon="7.17761">
        <ele>16.1</ele>
        <time>2021-09-20T15:18:49Z</time>
      </trkpt>
      <trkpt lat="43.66101" lon="7.1776">
        <ele>16.1</ele>
        <time>2021-09-20T15:18:50Z</time>
      </trkpt>
      <trkpt lat="43.66099" lon="7.17756">
        <ele>16</ele>
        <time>2021-09-20T15:18:52Z</time>
      </trkpt>
      <trkpt lat="43.66096" lon="7.17752">
        <ele>15.8</ele>
        <time>2021-09-20T15:18:53Z</time>
      </trkpt>
      <trkpt lat="43.66092" lon="7.17748">
        <ele>15.6</ele>
        <time>2021-09-20T15:18:54Z</time>
      </trkpt>
      <trkpt lat="43.66083" lon="7.17731">
        <ele>15.1</ele>
        <time>2021-09-20T15:18:56Z</time>
      </trkpt>
      <trkpt lat="43.66079" lon="7.17715">
        <ele>15</ele>
        <time>2021-09-20T15:18:58Z</time>
      </trkpt>
      <trkpt lat="43.66078" lon="7.17699">
        <ele>14.9</ele>
        <time>2021-09-20T15:19:00Z</time>
      </trkpt>
      <trkpt lat="43.66078" lon="7.17684">
        <ele>14.8</ele>
        <time>2021-09-20T15:19:02Z</time>
      </trkpt>
      <trkpt lat="43.6608" lon="7.17679">
        <ele>14.8</ele>
        <time>2021-09-20T15:19:03Z</time>
      </trkpt>
      <trkpt lat="43.6608" lon="7.17674">
        <ele>14.7</ele>
        <time>2021-09-20T15:19:04Z</time>
      </trkpt>
      <trkpt lat="43.6608" lon="7.17669">
        <ele>14.7</ele>
        <time>2021-09-20T15:19:05Z</time>
      </trkpt>
      <trkpt lat="43.66081" lon="7.17665">
        <ele>14.7</ele>
        <time>2021-09-20T15:19:06Z</time>
      </trkpt>
      <trkpt lat="43.66082" lon="7.1766">
        <ele>14.7</ele>
        <time>2021-09-20T15:19:08Z</time>
      </trkpt>
      <trkpt lat="43.66082" lon="7.17659">
        <ele>14.7</ele>
        <time>2021-09-20T15:19:10Z</time>
      </trkpt>
      <trkpt lat="43.66082" lon="7.17657">
        <ele>14.6</ele>
        <time>2021-09-20T15:19:11Z</time>
      </trkpt>
      <trkpt lat="43.66081" lon="7.1765">
        <ele>14.6</ele>
        <time>2021-09-20T15:19:13Z</time>
      </trkpt>
      <trkpt lat="43.66076" lon="7.17643">
        <ele>14.6</ele>
        <time>2021-09-20T15:19:15Z</time>
      </trkpt>
      <trkpt lat="43.66073" lon="7.17636">
        <ele>14.5</ele>
        <time>2021-09-20T15:19:16Z</time>
      </trkpt>
      <trkpt lat="43.66072" lon="7.17631">
        <ele>14.5</ele>
        <time>2021-09-20T15:19:17Z</time>
      </trkpt>
      <trkpt lat="43.66071" lon="7.17625">
        <ele>14.5</ele>
        <time>2021-09-20T15:19:18Z</time>
      </trkpt>
      <trkpt lat="43.66067" lon="7.17608">
        <ele>14.4</ele>
        <time>2021-09-20T15:19:20Z</time>
      </trkpt>
      <trkpt lat="43.66067" lon="7.17593">
        <ele>14.4</ele>
        <time>2021-09-20T15:19:22Z</time>
      </trkpt>
      <trkpt lat="43.66068" lon="7.17586">
        <ele>14.3</ele>
        <time>2021-09-20T15:19:23Z</time>
      </trkpt>
      <trkpt lat="43.6607" lon="7.17578">
        <ele>14.3</ele>
        <time>2021-09-20T15:19:24Z</time>
      </trkpt>
      <trkpt lat="43.66069" lon="7.17564">
        <ele>14.3</ele>
        <time>2021-09-20T15:19:26Z</time>
      </trkpt>
      <trkpt lat="43.66064" lon="7.17549">
        <ele>14.4</ele>
        <time>2021-09-20T15:19:28Z</time>
      </trkpt>
      <trkpt lat="43.66061" lon="7.17541">
        <ele>14.5</ele>
        <time>2021-09-20T15:19:29Z</time>
      </trkpt>
      <trkpt lat="43.66059" lon="7.17534">
        <ele>14.6</ele>
        <time>2021-09-20T15:19:30Z</time>
      </trkpt>
      <trkpt lat="43.66056" lon="7.17518">
        <ele>14.7</ele>
        <time>2021-09-20T15:19:32Z</time>
      </trkpt>
      <trkpt lat="43.66054" lon="7.17501">
        <ele>14.7</ele>
        <time>2021-09-20T15:19:34Z</time>
      </trkpt>
      <trkpt lat="43.66051" lon="7.17485">
        <ele>13.5</ele>
        <time>2021-09-20T15:19:36Z</time>
      </trkpt>
      <trkpt lat="43.66049" lon="7.17478">
        <ele>13.4</ele>
        <time>2021-09-20T15:19:37Z</time>
      </trkpt>
      <trkpt lat="43.66049" lon="7.1747">
        <ele>13.3</ele>
        <time>2021-09-20T15:19:38Z</time>
      </trkpt>
      <trkpt lat="43.66049" lon="7.17454">
        <ele>13.2</ele>
        <time>2021-09-20T15:19:40Z</time>
      </trkpt>
      <trkpt lat="43.6605" lon="7.17445">
        <ele>13.1</ele>
        <time>2021-09-20T15:19:41Z</time>
      </trkpt>
      <trkpt lat="43.6605" lon="7.17428">
        <ele>13</ele>
        <time>2021-09-20T15:19:43Z</time>
      </trkpt>
      <trkpt lat="43.66049" lon="7.1742">
        <ele>12.9</ele>
        <time>2021-09-20T15:19:44Z</time>
      </trkpt>
      <trkpt lat="43.66048" lon="7.17404">
        <ele>12.8</ele>
        <time>2021-09-20T15:19:46Z</time>
      </trkpt>
      <trkpt lat="43.66047" lon="7.17395">
        <ele>12.7</ele>
        <time>2021-09-20T15:19:47Z</time>
      </trkpt>
      <trkpt lat="43.66045" lon="7.17387">
        <ele>12.7</ele>
        <time>2021-09-20T15:19:48Z</time>
      </trkpt>
      <trkpt lat="43.66042" lon="7.17381">
        <ele>12.6</ele>
        <time>2021-09-20T15:19:49Z</time>
      </trkpt>
      <trkpt lat="43.66038" lon="7.17375">
        <ele>12.5</ele>
        <time>2021-09-20T15:19:50Z</time>
      </trkpt>
      <trkpt lat="43.66027" lon="7.17358">
        <ele>12.4</ele>
        <time>2021-09-20T15:19:52Z</time>
      </trkpt>
      <trkpt lat="43.66011" lon="7.17337">
        <ele>12.3</ele>
        <time>2021-09-20T15:19:54Z</time>
      </trkpt>
      <trkpt lat="43.66006" lon="7.17319">
        <ele>12.2</ele>
        <time>2021-09-20T15:19:56Z</time>
      </trkpt>
      <trkpt lat="43.66005" lon="7.17303">
        <ele>12.1</ele>
        <time>2021-09-20T15:19:58Z</time>
      </trkpt>
      <trkpt lat="43.66004" lon="7.17295">
        <ele>12.1</ele>
        <time>2021-09-20T15:19:59Z</time>
      </trkpt>
      <trkpt lat="43.66003" lon="7.17288">
        <ele>12</ele>
        <time>2021-09-20T15:20:00Z</time>
      </trkpt>
      <trkpt lat="43.66003" lon="7.1728">
        <ele>12</ele>
        <time>2021-09-20T15:20:02Z</time>
      </trkpt>
      <trkpt lat="43.66002" lon="7.17265">
        <ele>11.9</ele>
        <time>2021-09-20T15:20:04Z</time>
      </trkpt>
      <trkpt lat="43.66003" lon="7.17252">
        <ele>11.9</ele>
        <time>2021-09-20T15:20:06Z</time>
      </trkpt>
      <trkpt lat="43.66004" lon="7.17246">
        <ele>11.9</ele>
        <time>2021-09-20T15:20:07Z</time>
      </trkpt>
      <trkpt lat="43.66005" lon="7.1724">
        <ele>11.9</ele>
        <time>2021-09-20T15:20:08Z</time>
      </trkpt>
      <trkpt lat="43.6601" lon="7.17223">
        <ele>11.8</ele>
        <time>2021-09-20T15:20:10Z</time>
      </trkpt>
      <trkpt lat="43.66011" lon="7.17215">
        <ele>11.8</ele>
        <time>2021-09-20T15:20:11Z</time>
      </trkpt>
      <trkpt lat="43.6601" lon="7.17207">
        <ele>11.8</ele>
        <time>2021-09-20T15:20:12Z</time>
      </trkpt>
      <trkpt lat="43.66008" lon="7.172">
        <ele>11.7</ele>
        <time>2021-09-20T15:20:13Z</time>
      </trkpt>
      <trkpt lat="43.66006" lon="7.17192">
        <ele>11.7</ele>
        <time>2021-09-20T15:20:14Z</time>
      </trkpt>
      <trkpt lat="43.66004" lon="7.17179">
        <ele>11.6</ele>
        <time>2021-09-20T15:20:16Z</time>
      </trkpt>
      <trkpt lat="43.66001" lon="7.17174">
        <ele>11.5</ele>
        <time>2021-09-20T15:20:17Z</time>
      </trkpt>
      <trkpt lat="43.65998" lon="7.17157">
        <ele>11.4</ele>
        <time>2021-09-20T15:20:19Z</time>
      </trkpt>
      <trkpt lat="43.65995" lon="7.17148">
        <ele>11.3</ele>
        <time>2021-09-20T15:20:20Z</time>
      </trkpt>
      <trkpt lat="43.65991" lon="7.17131">
        <ele>11</ele>
        <time>2021-09-20T15:20:22Z</time>
      </trkpt>
      <trkpt lat="43.6599" lon="7.17122">
        <ele>10.9</ele>
        <time>2021-09-20T15:20:23Z</time>
      </trkpt>
      <trkpt lat="43.65988" lon="7.17113">
        <ele>10.8</ele>
        <time>2021-09-20T15:20:24Z</time>
      </trkpt>
      <trkpt lat="43.65987" lon="7.17104">
        <ele>10.6</ele>
        <time>2021-09-20T15:20:25Z</time>
      </trkpt>
      <trkpt lat="43.65986" lon="7.17095">
        <ele>10.5</ele>
        <time>2021-09-20T15:20:26Z</time>
      </trkpt>
      <trkpt lat="43.65986" lon="7.17078">
        <ele>10.2</ele>
        <time>2021-09-20T15:20:28Z</time>
      </trkpt>
      <trkpt lat="43.65985" lon="7.17069">
        <ele>10</ele>
        <time>2021-09-20T15:20:29Z</time>
      </trkpt>
      <trkpt lat="43.65983" lon="7.17057">
        <ele>9.9</ele>
        <time>2021-09-20T15:20:31Z</time>
      </trkpt>
      <trkpt lat="43.65982" lon="7.17049">
        <ele>9.8</ele>
        <time>2021-09-20T15:20:32Z</time>
      </trkpt>
      <trkpt lat="43.65981" lon="7.1703">
        <ele>9.6</ele>
        <time>2021-09-20T15:20:34Z</time>
      </trkpt>
      <trkpt lat="43.6598" lon="7.17026">
        <ele>9.5</ele>
        <time>2021-09-20T15:20:35Z</time>
      </trkpt>
      <trkpt lat="43.65979" lon="7.17017">
        <ele>9.4</ele>
        <time>2021-09-20T15:20:36Z</time>
      </trkpt>
      <trkpt lat="43.65973" lon="7.17006">
        <ele>9.3</ele>
        <time>2021-09-20T15:20:38Z</time>
      </trkpt>
      <trkpt lat="43.6597" lon="7.17004">
        <ele>9.3</ele>
        <time>2021-09-20T15:20:39Z</time>
      </trkpt>
      <trkpt lat="43.65954" lon="7.17">
        <ele>9.2</ele>
        <time>2021-09-20T15:20:41Z</time>
      </trkpt>
      <trkpt lat="43.6595" lon="7.16995">
        <ele>9.2</ele>
        <time>2021-09-20T15:20:42Z</time>
      </trkpt>
      <trkpt lat="43.65948" lon="7.16992">
        <ele>9.1</ele>
        <time>2021-09-20T15:20:43Z</time>
      </trkpt>
      <trkpt lat="43.65947" lon="7.16986">
        <ele>9.1</ele>
        <time>2021-09-20T15:20:45Z</time>
      </trkpt>
      <trkpt lat="43.65946" lon="7.1698">
        <ele>9.1</ele>
        <time>2021-09-20T15:20:46Z</time>
      </trkpt>
      <trkpt lat="43.65945" lon="7.16974">
        <ele>9.1</ele>
        <time>2021-09-20T15:20:47Z</time>
      </trkpt>
      <trkpt lat="43.65945" lon="7.1697">
        <ele>9</ele>
        <time>2021-09-20T15:20:48Z</time>
      </trkpt>
      <trkpt lat="43.65945" lon="7.16962">
        <ele>9</ele>
        <time>2021-09-20T15:20:50Z</time>
      </trkpt>
      <trkpt lat="43.65946" lon="7.16956">
        <ele>9</ele>
        <time>2021-09-20T15:20:51Z</time>
      </trkpt>
      <trkpt lat="43.65945" lon="7.16946">
        <ele>8.8</ele>
        <time>2021-09-20T15:20:53Z</time>
      </trkpt>
      <trkpt lat="43.65944" lon="7.16942">
        <ele>8.8</ele>
        <time>2021-09-20T15:20:54Z</time>
      </trkpt>
      <trkpt lat="43.65944" lon="7.16938">
        <ele>8.7</ele>
        <time>2021-09-20T15:20:55Z</time>
      </trkpt>
      <trkpt lat="43.65944" lon="7.16935">
        <ele>8.7</ele>
        <time>2021-09-20T15:20:57Z</time>
      </trkpt>
      <trkpt lat="43.65943" lon="7.16935">
        <ele>8.7</ele>
        <time>2021-09-20T15:20:58Z</time>
      </trkpt>
      <trkpt lat="43.6594" lon="7.16934">
        <ele>8.7</ele>
        <time>2021-09-20T15:20:59Z</time>
      </trkpt>
      <trkpt lat="43.65935" lon="7.16934">
        <ele>8.6</ele>
        <time>2021-09-20T15:21:01Z</time>
      </trkpt>
      <trkpt lat="43.65931" lon="7.16933">
        <ele>8.6</ele>
        <time>2021-09-20T15:21:03Z</time>
      </trkpt>
      <trkpt lat="43.65927" lon="7.16931">
        <ele>8.6</ele>
        <time>2021-09-20T15:21:04Z</time>
      </trkpt>
      <trkpt lat="43.65925" lon="7.16928">
        <ele>8.5</ele>
        <time>2021-09-20T15:21:06Z</time>
      </trkpt>
      <trkpt lat="43.65925" lon="7.16927">
        <ele>8.5</ele>
        <time>2021-09-20T15:21:07Z</time>
      </trkpt>
      <trkpt lat="43.65924" lon="7.16927">
        <ele>8.5</ele>
        <time>2021-09-20T15:21:08Z</time>
      </trkpt>
      <trkpt lat="43.65924" lon="7.16926">
        <ele>8.5</ele>
        <time>2021-09-20T15:21:09Z</time>
      </trkpt>
      <trkpt lat="43.65923" lon="7.16925">
        <ele>8.5</ele>
        <time>2021-09-20T15:21:10Z</time>
      </trkpt>
      <trkpt lat="43.65922" lon="7.16924">
        <ele>8.5</ele>
        <time>2021-09-20T15:21:12Z</time>
      </trkpt>
      <trkpt lat="43.6592" lon="7.16924">
        <ele>8.5</ele>
        <time>2021-09-20T15:21:13Z</time>
      </trkpt>
      <trkpt lat="43.6591" lon="7.16926">
        <ele>8.4</ele>
        <time>2021-09-20T15:21:15Z</time>
      </trkpt>
      <trkpt lat="43.65901" lon="7.16927">
        <ele>8.3</ele>
        <time>2021-09-20T15:21:17Z</time>
      </trkpt>
      <trkpt lat="43.65892" lon="7.16928">
        <ele>8.2</ele>
        <time>2021-09-20T15:21:18Z</time>
      </trkpt>
      <trkpt lat="43.65885" lon="7.16929">
        <ele>8.1</ele>
        <time>2021-09-20T15:21:19Z</time>
      </trkpt>
      <trkpt lat="43.65876" lon="7.16931">
        <ele>8</ele>
        <time>2021-09-20T15:21:21Z</time>
      </trkpt>
      <trkpt lat="43.65869" lon="7.16932">
        <ele>8</ele>
        <time>2021-09-20T15:21:22Z</time>
      </trkpt>
      <trkpt lat="43.65862" lon="7.16932">
        <ele>7.9</ele>
        <time>2021-09-20T15:21:23Z</time>
      </trkpt>
      <trkpt lat="43.65857" lon="7.16932">
        <ele>7.9</ele>
        <time>2021-09-20T15:21:25Z</time>
      </trkpt>
      <trkpt lat="43.65851" lon="7.16933">
        <ele>7.9</ele>
        <time>2021-09-20T15:21:26Z</time>
      </trkpt>
      <trkpt lat="43.65843" lon="7.16934">
        <ele>7.8</ele>
        <time>2021-09-20T15:21:28Z</time>
      </trkpt>
      <trkpt lat="43.65839" lon="7.16935">
        <ele>7.8</ele>
        <time>2021-09-20T15:21:29Z</time>
      </trkpt>
      <trkpt lat="43.65834" lon="7.16936">
        <ele>7.7</ele>
        <time>2021-09-20T15:21:30Z</time>
      </trkpt>
      <trkpt lat="43.65829" lon="7.16939">
        <ele>7.7</ele>
        <time>2021-09-20T15:21:32Z</time>
      </trkpt>
      <trkpt lat="43.65826" lon="7.16941">
        <ele>7.7</ele>
        <time>2021-09-20T15:21:33Z</time>
      </trkpt>
      <trkpt lat="43.65823" lon="7.16941">
        <ele>7.6</ele>
        <time>2021-09-20T15:21:34Z</time>
      </trkpt>
      <trkpt lat="43.6582" lon="7.16942">
        <ele>7.6</ele>
        <time>2021-09-20T15:21:35Z</time>
      </trkpt>
      <trkpt lat="43.65819" lon="7.16943">
        <ele>7.5</ele>
        <time>2021-09-20T15:21:36Z</time>
      </trkpt>
      <trkpt lat="43.65816" lon="7.16943">
        <ele>7.5</ele>
        <time>2021-09-20T15:21:37Z</time>
      </trkpt>
      <trkpt lat="43.65812" lon="7.16942">
        <ele>7.5</ele>
        <time>2021-09-20T15:21:38Z</time>
      </trkpt>
      <trkpt lat="43.65807" lon="7.1694">
        <ele>7.5</ele>
        <time>2021-09-20T15:21:40Z</time>
      </trkpt>
      <trkpt lat="43.65803" lon="7.16939">
        <ele>7.5</ele>
        <time>2021-09-20T15:21:42Z</time>
      </trkpt>
      <trkpt lat="43.65799" lon="7.16941">
        <ele>7.4</ele>
        <time>2021-09-20T15:21:44Z</time>
      </trkpt>
      <trkpt lat="43.65799" lon="7.16941">
        <ele>7.4</ele>
        <time>2021-09-20T15:21:45Z</time>
      </trkpt>
      <trkpt lat="43.65799" lon="7.16942">
        <ele>7.4</ele>
        <time>2021-09-20T15:21:47Z</time>
      </trkpt>
      <trkpt lat="43.65798" lon="7.16942">
        <ele>7.4</ele>
        <time>2021-09-20T15:21:48Z</time>
      </trkpt>
      <trkpt lat="43.65798" lon="7.16942">
        <ele>7.4</ele>
        <time>2021-09-20T15:21:49Z</time>
      </trkpt>
      <trkpt lat="43.65798" lon="7.16943">
        <ele>7.4</ele>
        <time>2021-09-20T15:21:50Z</time>
      </trkpt>
      <trkpt lat="43.65798" lon="7.16943">
        <ele>7.4</ele>
        <time>2021-09-20T15:21:52Z</time>
      </trkpt>
      <trkpt lat="43.65788" lon="7.16946">
        <ele>7.2</ele>
        <time>2021-09-20T15:22:06Z</time>
      </trkpt>
      <trkpt lat="43.65785" lon="7.1695">
        <ele>7.2</ele>
        <time>2021-09-20T15:22:07Z</time>
      </trkpt>
      <trkpt lat="43.65783" lon="7.16954">
        <ele>7.2</ele>
        <time>2021-09-20T15:22:08Z</time>
      </trkpt>
      <trkpt lat="43.6578" lon="7.16957">
        <ele>7.2</ele>
        <time>2021-09-20T15:22:09Z</time>
      </trkpt>
      <trkpt lat="43.65778" lon="7.16961">
        <ele>7.1</ele>
        <time>2021-09-20T15:22:10Z</time>
      </trkpt>
      <trkpt lat="43.65777" lon="7.16962">
        <ele>7.1</ele>
        <time>2021-09-20T15:22:11Z</time>
      </trkpt>
      <trkpt lat="43.65777" lon="7.16964">
        <ele>7.1</ele>
        <time>2021-09-20T15:22:12Z</time>
      </trkpt>
      <trkpt lat="43.65776" lon="7.16968">
        <ele>7.1</ele>
        <time>2021-09-20T15:22:14Z</time>
      </trkpt>
      <trkpt lat="43.65775" lon="7.16962">
        <ele>7.1</ele>
        <time>2021-09-20T15:22:15Z</time>
      </trkpt>
      <trkpt lat="43.65775" lon="7.16956">
        <ele>7.1</ele>
        <time>2021-09-20T15:22:17Z</time>
      </trkpt>
      <trkpt lat="43.65775" lon="7.1695">
        <ele>7.1</ele>
        <time>2021-09-20T15:22:18Z</time>
      </trkpt>
      <trkpt lat="43.65775" lon="7.16944">
        <ele>7.1</ele>
        <time>2021-09-20T15:22:20Z</time>
      </trkpt>
      <trkpt lat="43.65775" lon="7.16938">
        <ele>7.1</ele>
        <time>2021-09-20T15:22:22Z</time>
      </trkpt>
      <trkpt lat="43.65775" lon="7.16931">
        <ele>7.1</ele>
        <time>2021-09-20T15:22:23Z</time>
      </trkpt>
      <trkpt lat="43.65775" lon="7.16925">
        <ele>7</ele>
        <time>2021-09-20T15:22:24Z</time>
      </trkpt>
      <trkpt lat="43.65776" lon="7.16919">
        <ele>7</ele>
        <time>2021-09-20T15:22:25Z</time>
      </trkpt>
      <trkpt lat="43.65776" lon="7.16913">
        <ele>7</ele>
        <time>2021-09-20T15:24:23Z</time>
      </trkpt>
      <trkpt lat="43.65776" lon="7.16907">
        <ele>7</ele>
        <time>2021-09-20T15:24:24Z</time>
      </trkpt>
      <trkpt lat="43.65775" lon="7.16895">
        <ele>6.9</ele>
        <time>2021-09-20T15:24:26Z</time>
      </trkpt>
      <trkpt lat="43.65773" lon="7.16883">
        <ele>6.9</ele>
        <time>2021-09-20T15:24:28Z</time>
      </trkpt>
      <trkpt lat="43.65773" lon="7.16877">
        <ele>6.9</ele>
        <time>2021-09-20T15:24:29Z</time>
      </trkpt>
      <trkpt lat="43.65772" lon="7.16871">
        <ele>6.9</ele>
        <time>2021-09-20T15:24:30Z</time>
      </trkpt>
      <trkpt lat="43.6577" lon="7.16862">
        <ele>6.9</ele>
        <time>2021-09-20T15:24:32Z</time>
      </trkpt>
      <trkpt lat="43.6577" lon="7.16854">
        <ele>6.8</ele>
        <time>2021-09-20T15:24:34Z</time>
      </trkpt>
      <trkpt lat="43.65769" lon="7.1685">
        <ele>6.8</ele>
        <time>2021-09-20T15:24:35Z</time>
      </trkpt>
      <trkpt lat="43.65769" lon="7.16848">
        <ele>6.8</ele>
        <time>2021-09-20T15:24:36Z</time>
      </trkpt>
      <trkpt lat="43.65767" lon="7.1684">
        <ele>6.8</ele>
        <time>2021-09-20T15:24:38Z</time>
      </trkpt>
      <trkpt lat="43.65766" lon="7.16833">
        <ele>6.8</ele>
        <time>2021-09-20T15:24:40Z</time>
      </trkpt>
      <trkpt lat="43.65764" lon="7.16825">
        <ele>6.8</ele>
        <time>2021-09-20T15:24:42Z</time>
      </trkpt>
      <trkpt lat="43.65764" lon="7.1682">
        <ele>6.8</ele>
        <time>2021-09-20T15:24:43Z</time>
      </trkpt>
      <trkpt lat="43.65764" lon="7.16819">
        <ele>6.8</ele>
        <time>2021-09-20T15:24:44Z</time>
      </trkpt>
      <trkpt lat="43.65763" lon="7.1681">
        <ele>6.8</ele>
        <time>2021-09-20T15:24:46Z</time>
      </trkpt>
      <trkpt lat="43.65762" lon="7.16801">
        <ele>6.8</ele>
        <time>2021-09-20T15:24:48Z</time>
      </trkpt>
      <trkpt lat="43.65761" lon="7.16795">
        <ele>6.7</ele>
        <time>2021-09-20T15:24:49Z</time>
      </trkpt>
      <trkpt lat="43.6576" lon="7.16789">
        <ele>6.7</ele>
        <time>2021-09-20T15:24:50Z</time>
      </trkpt>
      <trkpt lat="43.65758" lon="7.1678">
        <ele>6.7</ele>
        <time>2021-09-20T15:24:52Z</time>
      </trkpt>
      <trkpt lat="43.65758" lon="7.16774">
        <ele>6.7</ele>
        <time>2021-09-20T15:24:53Z</time>
      </trkpt>
      <trkpt lat="43.65757" lon="7.1677">
        <ele>6.7</ele>
        <time>2021-09-20T15:24:54Z</time>
      </trkpt>
      <trkpt lat="43.65755" lon="7.1676">
        <ele>6.7</ele>
        <time>2021-09-20T15:24:56Z</time>
      </trkpt>
      <trkpt lat="43.65755" lon="7.16756">
        <ele>6.7</ele>
        <time>2021-09-20T15:24:57Z</time>
      </trkpt>
      <trkpt lat="43.65755" lon="7.16747">
        <ele>6.7</ele>
        <time>2021-09-20T15:24:59Z</time>
      </trkpt>
      <trkpt lat="43.65755" lon="7.16743">
        <ele>6.7</ele>
        <time>2021-09-20T15:25:00Z</time>
      </trkpt>
      <trkpt lat="43.65755" lon="7.16733">
        <ele>6.7</ele>
        <time>2021-09-20T15:25:02Z</time>
      </trkpt>
      <trkpt lat="43.65754" lon="7.16724">
        <ele>6.7</ele>
        <time>2021-09-20T15:25:04Z</time>
      </trkpt>
      <trkpt lat="43.65753" lon="7.1672">
        <ele>6.7</ele>
        <time>2021-09-20T15:25:05Z</time>
      </trkpt>
      <trkpt lat="43.65751" lon="7.1671">
        <ele>6.7</ele>
        <time>2021-09-20T15:25:07Z</time>
      </trkpt>
      <trkpt lat="43.65749" lon="7.16705">
        <ele>6.7</ele>
        <time>2021-09-20T15:25:08Z</time>
      </trkpt>
      <trkpt lat="43.65747" lon="7.16695">
        <ele>6.7</ele>
        <time>2021-09-20T15:25:10Z</time>
      </trkpt>
      <trkpt lat="43.65745" lon="7.1669">
        <ele>6.7</ele>
        <time>2021-09-20T15:25:11Z</time>
      </trkpt>
      <trkpt lat="43.65744" lon="7.1668">
        <ele>6.7</ele>
        <time>2021-09-20T15:25:13Z</time>
      </trkpt>
      <trkpt lat="43.65744" lon="7.16668">
        <ele>6.8</ele>
        <time>2021-09-20T15:25:15Z</time>
      </trkpt>
      <trkpt lat="43.65746" lon="7.16659">
        <ele>6.8</ele>
        <time>2021-09-20T15:25:17Z</time>
      </trkpt>
      <trkpt lat="43.65746" lon="7.1665">
        <ele>6.8</ele>
        <time>2021-09-20T15:25:18Z</time>
      </trkpt>
      <trkpt lat="43.65747" lon="7.16642">
        <ele>6.9</ele>
        <time>2021-09-20T15:25:19Z</time>
      </trkpt>
      <trkpt lat="43.65746" lon="7.16633">
        <ele>6.9</ele>
        <time>2021-09-20T15:25:21Z</time>
      </trkpt>
      <trkpt lat="43.65744" lon="7.16625">
        <ele>6.9</ele>
        <time>2021-09-20T15:25:22Z</time>
      </trkpt>
      <trkpt lat="43.65742" lon="7.1662">
        <ele>6.9</ele>
        <time>2021-09-20T15:25:23Z</time>
      </trkpt>
      <trkpt lat="43.65739" lon="7.16612">
        <ele>6.9</ele>
        <time>2021-09-20T15:25:24Z</time>
      </trkpt>
      <trkpt lat="43.65738" lon="7.16603">
        <ele>7</ele>
        <time>2021-09-20T15:25:26Z</time>
      </trkpt>
      <trkpt lat="43.6574" lon="7.16597">
        <ele>7</ele>
        <time>2021-09-20T15:25:27Z</time>
      </trkpt>
      <trkpt lat="43.65737" lon="7.16586">
        <ele>7</ele>
        <time>2021-09-20T15:25:29Z</time>
      </trkpt>
      <trkpt lat="43.65733" lon="7.16576">
        <ele>7</ele>
        <time>2021-09-20T15:25:31Z</time>
      </trkpt>
      <trkpt lat="43.6573" lon="7.16565">
        <ele>7</ele>
        <time>2021-09-20T15:25:33Z</time>
      </trkpt>
      <trkpt lat="43.65725" lon="7.16556">
        <ele>7.1</ele>
        <time>2021-09-20T15:25:35Z</time>
      </trkpt>
      <trkpt lat="43.65723" lon="7.16551">
        <ele>7.1</ele>
        <time>2021-09-20T15:25:36Z</time>
      </trkpt>
      <trkpt lat="43.65719" lon="7.1654">
        <ele>7.1</ele>
        <time>2021-09-20T15:25:38Z</time>
      </trkpt>
      <trkpt lat="43.65717" lon="7.16534">
        <ele>7.1</ele>
        <time>2021-09-20T15:25:39Z</time>
      </trkpt>
      <trkpt lat="43.65713" lon="7.16523">
        <ele>7.2</ele>
        <time>2021-09-20T15:25:41Z</time>
      </trkpt>
      <trkpt lat="43.6571" lon="7.16516">
        <ele>7.2</ele>
        <time>2021-09-20T15:25:42Z</time>
      </trkpt>
      <trkpt lat="43.65707" lon="7.16508">
        <ele>7.2</ele>
        <time>2021-09-20T15:25:44Z</time>
      </trkpt>
      <trkpt lat="43.65703" lon="7.16503">
        <ele>7.2</ele>
        <time>2021-09-20T15:25:45Z</time>
      </trkpt>
      <trkpt lat="43.657" lon="7.16498">
        <ele>7.2</ele>
        <time>2021-09-20T15:25:47Z</time>
      </trkpt>
      <trkpt lat="43.65697" lon="7.16491">
        <ele>7.3</ele>
        <time>2021-09-20T15:25:48Z</time>
      </trkpt>
      <trkpt lat="43.65696" lon="7.16486">
        <ele>7.3</ele>
        <time>2021-09-20T15:25:49Z</time>
      </trkpt>
      <trkpt lat="43.65693" lon="7.16475">
        <ele>7.3</ele>
        <time>2021-09-20T15:25:51Z</time>
      </trkpt>
      <trkpt lat="43.65691" lon="7.16467">
        <ele>7.3</ele>
        <time>2021-09-20T15:25:52Z</time>
      </trkpt>
      <trkpt lat="43.65689" lon="7.16461">
        <ele>7.3</ele>
        <time>2021-09-20T15:25:53Z</time>
      </trkpt>
      <trkpt lat="43.65687" lon="7.16455">
        <ele>7.3</ele>
        <time>2021-09-20T15:25:54Z</time>
      </trkpt>
      <trkpt lat="43.65683" lon="7.1645">
        <ele>7.2</ele>
        <time>2021-09-20T15:25:56Z</time>
      </trkpt>
      <trkpt lat="43.6568" lon="7.16442">
        <ele>7.2</ele>
        <time>2021-09-20T15:25:57Z</time>
      </trkpt>
      <trkpt lat="43.65679" lon="7.16436">
        <ele>7.2</ele>
        <time>2021-09-20T15:25:58Z</time>
      </trkpt>
      <trkpt lat="43.65679" lon="7.16431">
        <ele>7.2</ele>
        <time>2021-09-20T15:25:59Z</time>
      </trkpt>
      <trkpt lat="43.65677" lon="7.1642">
        <ele>7.2</ele>
        <time>2021-09-20T15:26:01Z</time>
      </trkpt>
      <trkpt lat="43.65674" lon="7.16411">
        <ele>7.2</ele>
        <time>2021-09-20T15:26:03Z</time>
      </trkpt>
      <trkpt lat="43.65671" lon="7.16404">
        <ele>7.2</ele>
        <time>2021-09-20T15:26:04Z</time>
      </trkpt>
      <trkpt lat="43.65668" lon="7.16399">
        <ele>7.2</ele>
        <time>2021-09-20T15:26:05Z</time>
      </trkpt>
      <trkpt lat="43.65666" lon="7.16391">
        <ele>7.2</ele>
        <time>2021-09-20T15:26:07Z</time>
      </trkpt>
      <trkpt lat="43.65664" lon="7.16385">
        <ele>7.1</ele>
        <time>2021-09-20T15:26:08Z</time>
      </trkpt>
      <trkpt lat="43.65663" lon="7.16381">
        <ele>7.1</ele>
        <time>2021-09-20T15:26:09Z</time>
      </trkpt>
      <trkpt lat="43.65661" lon="7.16373">
        <ele>7</ele>
        <time>2021-09-20T15:26:11Z</time>
      </trkpt>
      <trkpt lat="43.6566" lon="7.16367">
        <ele>7</ele>
        <time>2021-09-20T15:26:12Z</time>
      </trkpt>
      <trkpt lat="43.6566" lon="7.1636">
        <ele>6.9</ele>
        <time>2021-09-20T15:26:13Z</time>
      </trkpt>
      <trkpt lat="43.65657" lon="7.1635">
        <ele>6.9</ele>
        <time>2021-09-20T15:26:15Z</time>
      </trkpt>
      <trkpt lat="43.65655" lon="7.16342">
        <ele>6.9</ele>
        <time>2021-09-20T15:26:17Z</time>
      </trkpt>
      <trkpt lat="43.65654" lon="7.16338">
        <ele>6.9</ele>
        <time>2021-09-20T15:26:18Z</time>
      </trkpt>
      <trkpt lat="43.65652" lon="7.16332">
        <ele>6.9</ele>
        <time>2021-09-20T15:26:19Z</time>
      </trkpt>
      <trkpt lat="43.65651" lon="7.16327">
        <ele>6.9</ele>
        <time>2021-09-20T15:26:20Z</time>
      </trkpt>
      <trkpt lat="43.65649" lon="7.16323">
        <ele>6.9</ele>
        <time>2021-09-20T15:26:21Z</time>
      </trkpt>
      <trkpt lat="43.65646" lon="7.16315">
        <ele>6.9</ele>
        <time>2021-09-20T15:26:23Z</time>
      </trkpt>
      <trkpt lat="43.65643" lon="7.16308">
        <ele>6.9</ele>
        <time>2021-09-20T15:26:25Z</time>
      </trkpt>
      <trkpt lat="43.6564" lon="7.163">
        <ele>6.9</ele>
        <time>2021-09-20T15:26:27Z</time>
      </trkpt>
      <trkpt lat="43.65638" lon="7.16294">
        <ele>6.9</ele>
        <time>2021-09-20T15:26:28Z</time>
      </trkpt>
      <trkpt lat="43.65636" lon="7.16287">
        <ele>6.9</ele>
        <time>2021-09-20T15:26:30Z</time>
      </trkpt>
      <trkpt lat="43.65632" lon="7.16279">
        <ele>6.9</ele>
        <time>2021-09-20T15:26:31Z</time>
      </trkpt>
      <trkpt lat="43.65628" lon="7.16269">
        <ele>6.9</ele>
        <time>2021-09-20T15:26:33Z</time>
      </trkpt>
      <trkpt lat="43.65627" lon="7.16262">
        <ele>6.9</ele>
        <time>2021-09-20T15:26:34Z</time>
      </trkpt>
      <trkpt lat="43.65625" lon="7.16257">
        <ele>6.9</ele>
        <time>2021-09-20T15:26:35Z</time>
      </trkpt>
      <trkpt lat="43.65624" lon="7.16252">
        <ele>6.8</ele>
        <time>2021-09-20T15:26:36Z</time>
      </trkpt>
      <trkpt lat="43.6562" lon="7.16242">
        <ele>6.8</ele>
        <time>2021-09-20T15:26:38Z</time>
      </trkpt>
      <trkpt lat="43.65617" lon="7.16231">
        <ele>6.8</ele>
        <time>2021-09-20T15:26:40Z</time>
      </trkpt>
      <trkpt lat="43.65615" lon="7.16223">
        <ele>6.8</ele>
        <time>2021-09-20T15:26:41Z</time>
      </trkpt>
      <trkpt lat="43.65613" lon="7.16215">
        <ele>6.8</ele>
        <time>2021-09-20T15:26:42Z</time>
      </trkpt>
      <trkpt lat="43.65609" lon="7.16205">
        <ele>6.8</ele>
        <time>2021-09-20T15:26:44Z</time>
      </trkpt>
      <trkpt lat="43.65603" lon="7.16198">
        <ele>6.8</ele>
        <time>2021-09-20T15:26:46Z</time>
      </trkpt>
      <trkpt lat="43.656" lon="7.16187">
        <ele>6.7</ele>
        <time>2021-09-20T15:26:47Z</time>
      </trkpt>
      <trkpt lat="43.65598" lon="7.1618">
        <ele>6.7</ele>
        <time>2021-09-20T15:26:48Z</time>
      </trkpt>
      <trkpt lat="43.65595" lon="7.16166">
        <ele>6.7</ele>
        <time>2021-09-20T15:26:50Z</time>
      </trkpt>
      <trkpt lat="43.6559" lon="7.16154">
        <ele>6.7</ele>
        <time>2021-09-20T15:26:52Z</time>
      </trkpt>
      <trkpt lat="43.65587" lon="7.16149">
        <ele>6.7</ele>
        <time>2021-09-20T15:26:53Z</time>
      </trkpt>
      <trkpt lat="43.6558" lon="7.16137">
        <ele>6.6</ele>
        <time>2021-09-20T15:26:55Z</time>
      </trkpt>
      <trkpt lat="43.65577" lon="7.1613">
        <ele>6.6</ele>
        <time>2021-09-20T15:26:56Z</time>
      </trkpt>
      <trkpt lat="43.65574" lon="7.16124">
        <ele>6.6</ele>
        <time>2021-09-20T15:26:57Z</time>
      </trkpt>
      <trkpt lat="43.6557" lon="7.16112">
        <ele>6.6</ele>
        <time>2021-09-20T15:26:59Z</time>
      </trkpt>
      <trkpt lat="43.65567" lon="7.16109">
        <ele>6.6</ele>
        <time>2021-09-20T15:27:01Z</time>
      </trkpt>
      <trkpt lat="43.65564" lon="7.16104">
        <ele>6.6</ele>
        <time>2021-09-20T15:27:02Z</time>
      </trkpt>
      <trkpt lat="43.65556" lon="7.16091">
        <ele>6.6</ele>
        <time>2021-09-20T15:27:03Z</time>
      </trkpt>
      <trkpt lat="43.65553" lon="7.16085">
        <ele>6.6</ele>
        <time>2021-09-20T15:27:04Z</time>
      </trkpt>
      <trkpt lat="43.65547" lon="7.16075">
        <ele>6.6</ele>
        <time>2021-09-20T15:27:06Z</time>
      </trkpt>
      <trkpt lat="43.65542" lon="7.16065">
        <ele>6.6</ele>
        <time>2021-09-20T15:27:08Z</time>
      </trkpt>
      <trkpt lat="43.6554" lon="7.1606">
        <ele>6.6</ele>
        <time>2021-09-20T15:27:09Z</time>
      </trkpt>
      <trkpt lat="43.65537" lon="7.16052">
        <ele>6.6</ele>
        <time>2021-09-20T15:27:11Z</time>
      </trkpt>
      <trkpt lat="43.65533" lon="7.16045">
        <ele>6.5</ele>
        <time>2021-09-20T15:27:12Z</time>
      </trkpt>
      <trkpt lat="43.65529" lon="7.16034">
        <ele>6.5</ele>
        <time>2021-09-20T15:27:14Z</time>
      </trkpt>
      <trkpt lat="43.65526" lon="7.16026">
        <ele>6.5</ele>
        <time>2021-09-20T15:27:15Z</time>
      </trkpt>
      <trkpt lat="43.65523" lon="7.16021">
        <ele>6.5</ele>
        <time>2021-09-20T15:27:16Z</time>
      </trkpt>
      <trkpt lat="43.65521" lon="7.16014">
        <ele>6.5</ele>
        <time>2021-09-20T15:27:18Z</time>
      </trkpt>
      <trkpt lat="43.65516" lon="7.16005">
        <ele>6.6</ele>
        <time>2021-09-20T15:27:19Z</time>
      </trkpt>
      <trkpt lat="43.65513" lon="7.15998">
        <ele>6.6</ele>
        <time>2021-09-20T15:27:20Z</time>
      </trkpt>
      <trkpt lat="43.6551" lon="7.15987">
        <ele>6.7</ele>
        <time>2021-09-20T15:27:22Z</time>
      </trkpt>
      <trkpt lat="43.65507" lon="7.1598">
        <ele>6.7</ele>
        <time>2021-09-20T15:27:23Z</time>
      </trkpt>
      <trkpt lat="43.65505" lon="7.15973">
        <ele>6.7</ele>
        <time>2021-09-20T15:27:24Z</time>
      </trkpt>
      <trkpt lat="43.65499" lon="7.15961">
        <ele>6.7</ele>
        <time>2021-09-20T15:27:26Z</time>
      </trkpt>
      <trkpt lat="43.65493" lon="7.1595">
        <ele>6.7</ele>
        <time>2021-09-20T15:27:28Z</time>
      </trkpt>
      <trkpt lat="43.65493" lon="7.15942">
        <ele>6.7</ele>
        <time>2021-09-20T15:27:30Z</time>
      </trkpt>
      <trkpt lat="43.65486" lon="7.15934">
        <ele>6.7</ele>
        <time>2021-09-20T15:27:31Z</time>
      </trkpt>
      <trkpt lat="43.65483" lon="7.15928">
        <ele>6.7</ele>
        <time>2021-09-20T15:27:32Z</time>
      </trkpt>
      <trkpt lat="43.65481" lon="7.15922">
        <ele>6.7</ele>
        <time>2021-09-20T15:27:33Z</time>
      </trkpt>
      <trkpt lat="43.65474" lon="7.15911">
        <ele>6.7</ele>
        <time>2021-09-20T15:27:35Z</time>
      </trkpt>
      <trkpt lat="43.6547" lon="7.15904">
        <ele>6.7</ele>
        <time>2021-09-20T15:27:36Z</time>
      </trkpt>
      <trkpt lat="43.65467" lon="7.15898">
        <ele>6.6</ele>
        <time>2021-09-20T15:27:37Z</time>
      </trkpt>
      <trkpt lat="43.65465" lon="7.15892">
        <ele>6.6</ele>
        <time>2021-09-20T15:27:38Z</time>
      </trkpt>
      <trkpt lat="43.65459" lon="7.1588">
        <ele>6.6</ele>
        <time>2021-09-20T15:27:40Z</time>
      </trkpt>
      <trkpt lat="43.65457" lon="7.15874">
        <ele>6.6</ele>
        <time>2021-09-20T15:27:41Z</time>
      </trkpt>
      <trkpt lat="43.65454" lon="7.15865">
        <ele>6.6</ele>
        <time>2021-09-20T15:27:43Z</time>
      </trkpt>
      <trkpt lat="43.65452" lon="7.15855">
        <ele>6.6</ele>
        <time>2021-09-20T15:27:45Z</time>
      </trkpt>
      <trkpt lat="43.65449" lon="7.15847">
        <ele>6.6</ele>
        <time>2021-09-20T15:27:46Z</time>
      </trkpt>
      <trkpt lat="43.65446" lon="7.1584">
        <ele>6.6</ele>
        <time>2021-09-20T15:27:48Z</time>
      </trkpt>
      <trkpt lat="43.65443" lon="7.15832">
        <ele>6.7</ele>
        <time>2021-09-20T15:27:49Z</time>
      </trkpt>
      <trkpt lat="43.65442" lon="7.15827">
        <ele>6.7</ele>
        <time>2021-09-20T15:27:50Z</time>
      </trkpt>
      <trkpt lat="43.6544" lon="7.15821">
        <ele>6.7</ele>
        <time>2021-09-20T15:27:52Z</time>
      </trkpt>
      <trkpt lat="43.65433" lon="7.1581">
        <ele>6.7</ele>
        <time>2021-09-20T15:27:53Z</time>
      </trkpt>
      <trkpt lat="43.65431" lon="7.15804">
        <ele>6.7</ele>
        <time>2021-09-20T15:27:54Z</time>
      </trkpt>
      <trkpt lat="43.65429" lon="7.15796">
        <ele>6.7</ele>
        <time>2021-09-20T15:27:56Z</time>
      </trkpt>
      <trkpt lat="43.65427" lon="7.15791">
        <ele>6.7</ele>
        <time>2021-09-20T15:27:57Z</time>
      </trkpt>
      <trkpt lat="43.65424" lon="7.15782">
        <ele>6.7</ele>
        <time>2021-09-20T15:27:58Z</time>
      </trkpt>
      <trkpt lat="43.65423" lon="7.15776">
        <ele>6.7</ele>
        <time>2021-09-20T15:27:59Z</time>
      </trkpt>
      <trkpt lat="43.65421" lon="7.1577">
        <ele>6.7</ele>
        <time>2021-09-20T15:28:00Z</time>
      </trkpt>
      <trkpt lat="43.65419" lon="7.15763">
        <ele>6.7</ele>
        <time>2021-09-20T15:28:01Z</time>
      </trkpt>
      <trkpt lat="43.65413" lon="7.1575">
        <ele>6.7</ele>
        <time>2021-09-20T15:28:03Z</time>
      </trkpt>
      <trkpt lat="43.65408" lon="7.15738">
        <ele>6.7</ele>
        <time>2021-09-20T15:28:05Z</time>
      </trkpt>
      <trkpt lat="43.654" lon="7.15723">
        <ele>6.7</ele>
        <time>2021-09-20T15:28:08Z</time>
      </trkpt>
      <trkpt lat="43.65395" lon="7.15718">
        <ele>6.8</ele>
        <time>2021-09-20T15:28:10Z</time>
      </trkpt>
      <trkpt lat="43.65391" lon="7.15708">
        <ele>6.8</ele>
        <time>2021-09-20T15:28:12Z</time>
      </trkpt>
      <trkpt lat="43.65389" lon="7.15702">
        <ele>6.8</ele>
        <time>2021-09-20T15:28:13Z</time>
      </trkpt>
      <trkpt lat="43.65385" lon="7.15693">
        <ele>6.8</ele>
        <time>2021-09-20T15:28:15Z</time>
      </trkpt>
      <trkpt lat="43.65382" lon="7.15687">
        <ele>6.9</ele>
        <time>2021-09-20T15:28:16Z</time>
      </trkpt>
      <trkpt lat="43.6538" lon="7.15681">
        <ele>6.9</ele>
        <time>2021-09-20T15:28:17Z</time>
      </trkpt>
      <trkpt lat="43.65376" lon="7.15675">
        <ele>6.9</ele>
        <time>2021-09-20T15:28:19Z</time>
      </trkpt>
      <trkpt lat="43.65372" lon="7.15669">
        <ele>6.9</ele>
        <time>2021-09-20T15:28:20Z</time>
      </trkpt>
      <trkpt lat="43.65368" lon="7.15663">
        <ele>7</ele>
        <time>2021-09-20T15:28:22Z</time>
      </trkpt>
      <trkpt lat="43.65365" lon="7.15658">
        <ele>7</ele>
        <time>2021-09-20T15:28:23Z</time>
      </trkpt>
      <trkpt lat="43.65362" lon="7.15654">
        <ele>7</ele>
        <time>2021-09-20T15:28:24Z</time>
      </trkpt>
      <trkpt lat="43.65359" lon="7.15649">
        <ele>7</ele>
        <time>2021-09-20T15:28:25Z</time>
      </trkpt>
      <trkpt lat="43.65356" lon="7.15641">
        <ele>7.1</ele>
        <time>2021-09-20T15:28:27Z</time>
      </trkpt>
      <trkpt lat="43.65353" lon="7.15636">
        <ele>7.1</ele>
        <time>2021-09-20T15:28:28Z</time>
      </trkpt>
      <trkpt lat="43.6535" lon="7.15631">
        <ele>7.2</ele>
        <time>2021-09-20T15:28:29Z</time>
      </trkpt>
      <trkpt lat="43.65344" lon="7.15622">
        <ele>7.2</ele>
        <time>2021-09-20T15:28:30Z</time>
      </trkpt>
      <trkpt lat="43.6534" lon="7.15616">
        <ele>7.2</ele>
        <time>2021-09-20T15:28:31Z</time>
      </trkpt>
      <trkpt lat="43.65337" lon="7.15612">
        <ele>7.3</ele>
        <time>2021-09-20T15:28:32Z</time>
      </trkpt>
      <trkpt lat="43.65333" lon="7.15607">
        <ele>7.3</ele>
        <time>2021-09-20T15:28:33Z</time>
      </trkpt>
      <trkpt lat="43.65324" lon="7.15596">
        <ele>7.4</ele>
        <time>2021-09-20T15:28:35Z</time>
      </trkpt>
      <trkpt lat="43.65316" lon="7.15585">
        <ele>7.4</ele>
        <time>2021-09-20T15:28:37Z</time>
      </trkpt>
      <trkpt lat="43.65313" lon="7.15581">
        <ele>7.5</ele>
        <time>2021-09-20T15:28:38Z</time>
      </trkpt>
      <trkpt lat="43.65308" lon="7.15574">
        <ele>7.5</ele>
        <time>2021-09-20T15:28:40Z</time>
      </trkpt>
      <trkpt lat="43.65305" lon="7.15568">
        <ele>7.5</ele>
        <time>2021-09-20T15:28:42Z</time>
      </trkpt>
      <trkpt lat="43.65303" lon="7.15563">
        <ele>7.6</ele>
        <time>2021-09-20T15:28:43Z</time>
      </trkpt>
      <trkpt lat="43.65301" lon="7.15558">
        <ele>7.6</ele>
        <time>2021-09-20T15:28:44Z</time>
      </trkpt>
      <trkpt lat="43.65298" lon="7.15552">
        <ele>7.6</ele>
        <time>2021-09-20T15:28:46Z</time>
      </trkpt>
      <trkpt lat="43.65295" lon="7.15547">
        <ele>7.6</ele>
        <time>2021-09-20T15:28:47Z</time>
      </trkpt>
      <trkpt lat="43.65292" lon="7.15543">
        <ele>7.6</ele>
        <time>2021-09-20T15:28:48Z</time>
      </trkpt>
      <trkpt lat="43.6529" lon="7.15539">
        <ele>7.6</ele>
        <time>2021-09-20T15:28:50Z</time>
      </trkpt>
      <trkpt lat="43.65287" lon="7.15533">
        <ele>7.6</ele>
        <time>2021-09-20T15:28:51Z</time>
      </trkpt>
      <trkpt lat="43.65285" lon="7.15528">
        <ele>7.6</ele>
        <time>2021-09-20T15:28:52Z</time>
      </trkpt>
      <trkpt lat="43.65284" lon="7.15523">
        <ele>7.6</ele>
        <time>2021-09-20T15:28:53Z</time>
      </trkpt>
      <trkpt lat="43.65283" lon="7.15518">
        <ele>7.7</ele>
        <time>2021-09-20T15:28:55Z</time>
      </trkpt>
      <trkpt lat="43.6528" lon="7.15512">
        <ele>7.7</ele>
        <time>2021-09-20T15:28:56Z</time>
      </trkpt>
      <trkpt lat="43.65278" lon="7.15508">
        <ele>7.7</ele>
        <time>2021-09-20T15:28:57Z</time>
      </trkpt>
      <trkpt lat="43.65276" lon="7.15504">
        <ele>7.7</ele>
        <time>2021-09-20T15:28:58Z</time>
      </trkpt>
      <trkpt lat="43.65273" lon="7.15497">
        <ele>7.6</ele>
        <time>2021-09-20T15:29:00Z</time>
      </trkpt>
      <trkpt lat="43.65271" lon="7.15491">
        <ele>7.5</ele>
        <time>2021-09-20T15:29:01Z</time>
      </trkpt>
      <trkpt lat="43.65269" lon="7.15485">
        <ele>7.5</ele>
        <time>2021-09-20T15:29:02Z</time>
      </trkpt>
      <trkpt lat="43.65267" lon="7.15479">
        <ele>7.4</ele>
        <time>2021-09-20T15:29:03Z</time>
      </trkpt>
      <trkpt lat="43.65264" lon="7.15474">
        <ele>7.4</ele>
        <time>2021-09-20T15:29:04Z</time>
      </trkpt>
      <trkpt lat="43.6526" lon="7.15469">
        <ele>7.3</ele>
        <time>2021-09-20T15:29:05Z</time>
      </trkpt>
      <trkpt lat="43.65255" lon="7.15462">
        <ele>7.2</ele>
        <time>2021-09-20T15:29:07Z</time>
      </trkpt>
      <trkpt lat="43.6525" lon="7.15453">
        <ele>7.2</ele>
        <time>2021-09-20T15:29:08Z</time>
      </trkpt>
      <trkpt lat="43.65247" lon="7.15449">
        <ele>7.1</ele>
        <time>2021-09-20T15:29:09Z</time>
      </trkpt>
      <trkpt lat="43.65244" lon="7.15441">
        <ele>7.1</ele>
        <time>2021-09-20T15:29:11Z</time>
      </trkpt>
      <trkpt lat="43.65241" lon="7.15435">
        <ele>7</ele>
        <time>2021-09-20T15:29:12Z</time>
      </trkpt>
      <trkpt lat="43.65236" lon="7.15427">
        <ele>7</ele>
        <time>2021-09-20T15:29:13Z</time>
      </trkpt>
      <trkpt lat="43.65234" lon="7.15416">
        <ele>6.9</ele>
        <time>2021-09-20T15:29:15Z</time>
      </trkpt>
      <trkpt lat="43.6523" lon="7.15411">
        <ele>6.9</ele>
        <time>2021-09-20T15:29:16Z</time>
      </trkpt>
      <trkpt lat="43.65223" lon="7.15405">
        <ele>6.8</ele>
        <time>2021-09-20T15:29:18Z</time>
      </trkpt>
      <trkpt lat="43.65217" lon="7.15404">
        <ele>6.7</ele>
        <time>2021-09-20T15:29:20Z</time>
      </trkpt>
      <trkpt lat="43.65213" lon="7.15402">
        <ele>6.7</ele>
        <time>2021-09-20T15:29:21Z</time>
      </trkpt>
      <trkpt lat="43.65211" lon="7.154">
        <ele>6.7</ele>
        <time>2021-09-20T15:29:22Z</time>
      </trkpt>
      <trkpt lat="43.65208" lon="7.15399">
        <ele>6.7</ele>
        <time>2021-09-20T15:29:24Z</time>
      </trkpt>
      <trkpt lat="43.65207" lon="7.15401">
        <ele>6.7</ele>
        <time>2021-09-20T15:29:25Z</time>
      </trkpt>
      <trkpt lat="43.65205" lon="7.15403">
        <ele>6.7</ele>
        <time>2021-09-20T15:29:27Z</time>
      </trkpt>
      <trkpt lat="43.65205" lon="7.15404">
        <ele>6.6</ele>
        <time>2021-09-20T15:29:29Z</time>
      </trkpt>
      <trkpt lat="43.65204" lon="7.15405">
        <ele>6.6</ele>
        <time>2021-09-20T15:29:31Z</time>
      </trkpt>
      <trkpt lat="43.65203" lon="7.15406">
        <ele>6.6</ele>
        <time>2021-09-20T15:29:32Z</time>
      </trkpt>
      <trkpt lat="43.65202" lon="7.15407">
        <ele>6.6</ele>
        <time>2021-09-20T15:29:33Z</time>
      </trkpt>
      <trkpt lat="43.65201" lon="7.15408">
        <ele>6.6</ele>
        <time>2021-09-20T15:29:35Z</time>
      </trkpt>
    </trkseg>
  </trk>
</gpx>